#Info	Device Log	from Device	manufactured by	PyroScience GmbH
#Link	https://pyroscience.com
#Log Name	pH2rov
#Comment	pK8_AF_mit_Cu_Netz_ab_94_in_rovinj
#Device Name	AquapHOx-LX
#DeviceID	12
#UniqueID	2411E505575BA512
#Serial number	0
#Firmware	410
#Build	6
#Number of Channels	1
#Available Sensors	35
#Supported Analytes	7
#Channel	1
#
#settings	temp (0.001 C)	pressure (0.001 mbar)	salinity (0.001 g/L)	duration (1=1ms, 8=128ms)	intensity (0=10%, 7=100%)	amp (3=40x, 4=80x, 5=200x, 6=400x)	frequency (Hz)	crcEnable	writeLock	options (bit0=autoFlashDur., bit1=autoAmpl., bit2=1000xOxygen)	broadcast	analyte (0=none, 1=O2, 2=T, 3=pH, 4=CO2)	fiberType (0=230um, 1=430um, 2=1mm)	dual frequency (Hz)
#0	-300000	-1	35000	5	3	6	3000	0	0	2	3080192	3	2	0	0	0	0	0	0	0
#calibration	R1 (10e-6)	pH1 (0.001)	temp1 (0.001 C)	salinity1 (0.001 g/L)	R2 (10e-6)	pH2 (0.001)	temp2 (0.001 C)	salinity2 (0.001 g/L)	offset (0.001)	dPhi_ref (0.001 )	attenuation_coefficient (10e-6 1/m)	bkgdAmpl (0.001 mV)	bkgdDphi (0.001 )	dsf_dye (10e-6)	dtf_dye (10e-6)	pka (0.001 pH)	slope (10e-6)	bottom_t (10e-6 1/K)	top_t (10e-6 1/K)	slope_t (10e-6 1/K)	pka_t (10e-6 pH/K)	pka_is1 (0.001)	pka_is2 (0.001)
#1	1577960	2250	26798	2000	45892	11260	27085	6000	0	57800	33900	44	0	904700	-5670	8106	1034000	-1108	-803	0	-16280	970	126	623252	1656148	38723	0	0	0	0
#analogOutput	aoSelectA	aoSelectB	aoSelectC	aoSelectD	aoMinA	aoMinB	aoMinC	aoMinD	aoMaxA	aoMaxB	aoMaxC	aoMaxD
#4	259	261	265	266	0	0	0	0	250000	50000	2500000	250000
#temperatureSettings	sensorType	enableAverage	resistorRef (0.001 Ohm)	a (E-10/K)	b (E-11/K)	c (E-13/K)	tempOffset (0.001 C)	gain
#20	0	1	200000	4700000	25000	4000000	1000	0
#settingsStatus	sensorCodeType	sensorCodeLED	sensorCodePD	sensorCodeMiddleBlock	sensorCodeLastBlock	sensorSerialNumber	backgroundCompensation	fiberLength	medium	unitsGas	unitsWater	activeSensors	sensorName0	sensorName1	sensorName2	sampleInterval	uidTemperature0	uidTemperature1	uidPressure0	uidPressure1	uidSalinity0	uidSalinity1	measValidityTime
#30	1179189248	3	6	877	428	557	0	1000	1	0	8	0	0	0	0	60000	0	0	0	0	0	0	0	0	0
#calibrationStatus	lastCal1	lastCal2	lastCal3
#31	834240408	831240408	10101	0	0	0	0	0
#loggingStatus	filename0	filename1	filename2	mode	interval	duration	active
#32	1915897968	939554415	0	1	5	18	0	0	0	0	0	0	0	0	0	0
#deviceStatus	deviceName0	deviceName1	deviceName2	deviceName3	deviceName4	deviceName5	uidLastConfig0	uidLastConfig1	settingsMode	dimPortLed	slaveAddress
#34	1097954657	1883787128	759978029	855638016	0	0	471258724	-287415550	0	1000	1	0	0	0	0	0
#nonOpticalSensorsStatus	sampleIntervalSampleTemp	meaValTimeSampleTemp	sampleIntervalCaseTemp	meaValTimeCaseTemp	sampleIntervalPressure	meaValTimePressure	sampleIntervalHumidity	meaValTimeHumidity
#35	30000	90	0	900	0	900	0	900	0	0	0	0	0	0	0	0
#referenceSettings	referenceMode (0=standard, 1=averaging, 2=smart averaging)	refDurationAveragingMode (ms)	refDurationStandardMode (ms)	timeLimitSmartAveragingMode (s)
#41	2	20	50	10	0	0
#
DateTime (YYYY-MM-DD hh:mm:ss)	Fraction of Second (ms)	Comment	status	dphi (0.001 )	umolar (0.001 umol/L)	mbar (0.001 mbar)	airSat (0.001 %air sat)	tempSample (0.001 C)	tempCase (0.001 C)	signalIntensity (0.001 mV)	ambientLight (0.001 mV)	pressure (0.001 mbar)	humidity (0.001 %RH)	resistorTemp (0.001 Ohm or 0.001 mV)	percentO2 (0.001 %O2)	tempOptical (0.001 C)	pH (0.001 pH)	ldev (0.001 nm)	-	-
2024-04-08 13:55:32			0	21674	0	0	0	26864	27200	293129	27902	983661	34791	109958	0	0	4820	1576412	0	0
2024-04-08 13:56:32			0	21680	0	0	0	26916	26970	294613	26226	984164	35085	109978	0	0	-300000	1577852	0	0
2024-04-08 13:57:32			0	21686	0	0	0	27272	26800	291169	26382	984078	35250	110115	0	0	-300000	1578747	0	0
2024-04-08 13:58:32			0	21689	0	0	0	27397	26710	290793	26150	983909	35310	110163	0	0	-300000	1579240	0	0
2024-04-08 13:59:32			0	21695	0	0	0	27459	26640	290417	26679	983721	35383	110187	0	0	-300000	1579230	0	0
2024-04-08 14:00:32			0	21708	0	0	0	27490	26600	290221	26599	983654	35403	110199	0	0	-300000	1578200	0	0
2024-04-08 14:01:32			0	21706	0	0	0	27509	26580	289801	26512	983648	35423	110206	0	0	-300000	1578595	0	0
2024-04-08 14:02:32			0	21705	0	0	0	27516	26560	289501	26320	983553	35432	110209	0	0	-300000	1578883	0	0
2024-04-08 14:03:32			0	21708	0	0	0	27535	26550	289157	26509	983563	35443	110216	0	0	-300000	1578652	0	0
2024-04-08 14:04:32			0	21717	0	0	0	27537	26530	288861	26450	983431	35441	110217	0	0	-300000	1577870	0	0
2024-04-08 14:05:32			0	21718	0	0	0	27555	26530	288373	26460	983484	35441	110224	0	0	-300000	1577763	0	0
2024-04-08 14:06:32			0	21728	0	0	0	27555	26510	288213	26283	983398	35461	110224	0	0	3701	1576874	0	0
2024-04-08 14:07:32			0	21723	0	0	0	27563	26510	287777	26543	983389	35440	110227	0	0	-300000	1577409	0	0
2024-04-08 14:08:32			0	21729	0	0	0	27568	26490	287637	26460	983338	35471	110229	0	0	3125	1576948	0	0
2024-04-08 14:09:32			0	21729	0	0	0	27571	26490	287373	26462	983311	35460	110230	0	0	3072	1576948	0	0
2024-04-08 14:10:32			0	21731	0	0	0	27574	26490	286929	26471	983257	35471	110231	0	0	3997	1576734	0	0
2024-04-08 14:11:32			0	21720	0	0	0	27581	26480	286817	26382	983259	35470	110234	0	0	-300000	1578000	0	0
2024-04-08 14:12:32			0	21742	0	0	0	27579	26470	286425	26590	983216	35470	110233	0	0	4729	1575740	0	0
2024-04-08 14:13:32			0	21747	0	0	0	27579	26470	286189	26358	983243	35470	110233	0	0	4891	1575206	0	0
2024-04-08 14:14:32			0	21746	0	0	0	27589	26460	285929	26634	983234	35469	110237	0	0	4834	1575403	0	0
2024-04-08 14:15:32			0	21746	0	0	0	27586	26460	285717	26481	983181	35480	110236	0	0	4836	1575403	0	0
2024-04-08 14:16:32			0	21737	0	0	0	27589	26450	285309	26568	983110	35468	110237	0	0	4327	1576454	0	0
2024-04-08 14:17:32			0	21750	0	0	0	27589	26450	285225	26595	983137	35480	110237	0	0	4923	1575066	0	0
2024-04-08 14:18:32			0	21739	0	0	0	27592	26440	284941	26549	983121	35479	110238	0	0	4423	1576331	0	0
2024-04-08 14:19:32			0	21750	0	0	0	27589	26450	284513	26445	983102	35480	110237	0	0	4923	1575066	0	0
2024-04-08 14:20:32			0	21749	0	0	0	27615	26440	284321	27005	983059	35490	110247	0	0	4864	1575263	0	0
2024-04-08 14:21:32			0	21742	0	0	0	27594	26440	284093	26670	983067	35479	110239	0	0	4608	1576010	0	0
2024-04-08 14:22:32			0	21746	0	0	0	27607	26440	283797	26706	983086	35479	110244	0	0	4771	1575583	0	0
2024-04-08 14:23:32			0	21751	0	0	0	27558	26570	283553	27474	983176	35422	110225	0	0	5148	1573879	0	0
2024-04-08 14:24:32			0	21741	0	0	0	27553	26720	283501	26197	983435	35289	110223	0	0	5189	1573594	0	0
2024-04-08 14:25:32			0	21737	0	0	0	27602	26590	283053	26349	983396	35413	110242	0	0	4887	1575192	0	0
2024-04-08 14:26:32			0	21741	0	0	0	27623	26540	282929	26339	983367	35454	110250	0	0	4874	1575216	0	0
2024-04-08 14:27:32			0	21748	0	0	0	27644	26530	282737	26675	983342	35474	110258	0	0	5015	1574559	0	0
2024-04-08 14:28:32			0	21748	0	0	0	27654	26510	282453	26689	983371	35484	110262	0	0	4976	1574739	0	0
2024-04-08 14:29:32			0	21741	0	0	0	27657	26500	282333	26585	983319	35483	110263	0	0	4751	1575576	0	0
2024-04-08 14:30:32			0	21751	0	0	0	27664	26490	282033	26405	983329	35494	110266	0	0	5002	1574600	0	0
2024-04-08 14:31:32			0	21748	0	0	0	27659	26490	281625	26535	983284	35494	110264	0	0	4935	1574920	0	0
2024-04-08 14:32:32			0	21747	0	0	0	27670	26490	281569	26337	983257	35504	110268	0	0	4906	1575026	0	0
2024-04-08 14:33:32			0	21752	0	0	0	27675	26490	281385	26623	983311	35516	110270	0	0	5020	1574493	0	0
2024-04-08 14:34:32			0	21757	0	0	0	27677	26490	280893	26642	983284	35494	110271	0	0	5111	1573960	0	0
2024-04-08 14:35:32			0	21745	0	0	0	27680	26500	280421	26882	983265	35528	110272	0	0	4871	1575150	0	0
2024-04-08 14:36:32			0	21757	0	0	0	27685	26480	280389	26568	983267	35493	110274	0	0	5095	1574050	0	0
2024-04-08 14:37:32			0	21755	0	0	0	27683	26480	280137	26807	983241	35526	110273	0	0	5060	1574263	0	0
2024-04-08 14:38:32			0	21750	0	0	0	27683	26480	279705	26531	983241	35515	110273	0	0	4956	1574796	0	0
2024-04-08 14:39:32			0	21747	0	0	0	27693	26490	279369	26469	983249	35527	110277	0	0	4898	1575026	0	0
2024-04-08 14:40:32			0	21760	0	0	0	27688	26480	279113	26772	983241	35515	110275	0	0	5144	1573730	0	0
2024-04-08 14:41:32			0	21758	0	0	0	27701	26490	278881	26542	983230	35504	110280	0	0	5123	1573853	0	0
2024-04-08 14:42:32			0	21754	0	0	0	27701	26490	278529	26706	983230	35539	110280	0	0	5053	1574280	0	0
2024-04-08 14:43:32			0	21755	0	0	0	27703	26480	278237	26439	983241	35538	110281	0	0	5055	1574263	0	0
2024-04-08 14:44:32			0	21754	0	0	0	27711	26490	277825	26429	983276	35516	110284	0	0	5050	1574280	0	0
2024-04-08 14:45:32			0	21756	0	0	0	27714	26490	277529	26509	983230	35549	110285	0	0	5086	1574066	0	0
2024-04-08 14:46:32			0	21749	0	0	0	27719	26490	277397	26502	983230	35527	110287	0	0	4941	1574813	0	0
2024-04-08 14:47:32			0	21752	0	0	0	27729	26490	277033	26517	983168	35516	110291	0	0	5006	1574493	0	0
2024-04-08 14:48:32			0	21766	0	0	0	27722	26500	276677	26377	983212	35539	110288	0	0	5244	1572911	0	0
2024-04-08 14:49:32			0	21753	0	0	0	27735	26490	276321	26514	983195	35539	110293	0	0	5025	1574386	0	0
2024-04-08 14:50:32			0	21756	0	0	0	27719	26480	276105	26559	983160	35515	110287	0	0	5070	1574156	0	0
2024-04-08 14:51:32			0	21755	0	0	0	27724	26480	275837	26845	983187	35538	110289	0	0	5050	1574263	0	0
2024-04-08 14:52:32			0	21757	0	0	0	27729	26480	275437	26327	983187	35526	110291	0	0	5086	1574050	0	0
2024-04-08 14:53:32			0	21757	0	0	0	27729	26490	275185	26365	983222	35516	110291	0	0	5100	1573960	0	0
2024-04-08 14:54:32			0	21760	0	0	0	27735	26490	274893	26609	983204	35549	110293	0	0	5147	1573640	0	0
2024-04-08 14:55:32			0	21760	0	0	0	27729	26490	274337	26550	983168	35527	110291	0	0	5149	1573640	0	0
2024-04-08 14:56:32			0	21763	0	0	0	27740	26490	274317	26367	983150	35527	110295	0	0	5190	1573321	0	0
2024-04-08 14:57:32			0	21758	0	0	0	27742	26490	273909	26401	983142	35549	110296	0	0	5114	1573853	0	0
2024-04-08 14:58:32			0	21759	0	0	0	27742	26490	273605	26882	983168	35527	110296	0	0	5130	1573747	0	0
2024-04-08 14:59:32			0	21771	0	0	0	27748	26500	273153	26611	983185	35539	110298	0	0	5298	1572379	0	0
2024-04-08 15:00:32			0	21763	0	0	0	27748	26490	272921	26443	983257	35539	110298	0	0	5189	1573321	0	0
2024-04-08 15:01:32			0	21761	0	0	0	27755	26500	272529	26667	983166	35529	110301	0	0	5171	1573444	0	0
2024-04-08 15:02:32			0	21763	0	0	0	27755	26510	272337	26583	983228	35562	110301	0	0	5210	1573141	0	0
2024-04-08 15:03:32			0	21768	0	0	0	27763	26500	272141	26741	983239	35528	110304	0	0	5261	1572698	0	0
2024-04-08 15:04:32			0	21775	0	0	0	27750	26500	271533	26687	983185	35528	110299	0	0	5339	1571953	0	0
2024-04-08 15:05:32			0	21775	0	0	0	27768	26500	271541	26606	983212	35539	110306	0	0	5337	1571953	0	0
2024-04-08 15:06:32			0	21776	0	0	0	27771	26520	271053	26691	983245	35541	110307	0	0	5363	1571667	0	0
2024-04-08 15:07:32			0	21777	0	0	0	27789	26520	270817	26927	983272	35563	110314	0	0	5370	1571560	0	0
2024-04-08 15:08:32			0	21770	0	0	0	27786	26520	270445	26717	983299	35551	110313	0	0	5300	1572305	0	0
2024-04-08 15:09:32			0	21770	0	0	0	27794	26520	270085	26656	983334	35541	110316	0	0	5299	1572305	0	0
2024-04-08 15:10:32			0	21779	0	0	0	27799	26530	269941	26705	983342	35552	110318	0	0	5394	1571258	0	0
2024-04-08 15:11:32			0	21766	0	0	0	27799	26540	269681	26771	983394	35554	110318	0	0	5272	1572551	0	0
2024-04-08 15:12:32			0	21780	0	0	0	27784	26550	269337	26680	983402	35542	110312	0	0	5419	1570972	0	0
2024-04-08 15:13:32			0	21776	0	0	0	27805	26560	268989	26589	983446	35554	110320	0	0	5390	1571307	0	0
2024-04-08 15:14:32			0	21775	0	0	0	27690	26570	269153	26665	983730	35579	110276	0	0	5402	1571324	0	0
2024-04-08 15:15:32			0	21779	0	0	0	27838	26610	268457	26642	983797	35570	110333	0	0	5446	1570539	0	0
2024-04-08 15:16:32			0	21765	0	0	0	27799	26820	268225	26576	984173	35419	110318	0	0	5479	1570139	0	0
2024-04-08 15:17:32			0	21786	0	0	0	27932	26760	267773	26665	984180	35504	110369	0	0	5571	1568448	0	0
2024-04-08 15:18:32			0	21784	0	0	0	27963	26750	267397	26687	984209	35536	110381	0	0	5551	1568750	0	0
2024-04-08 15:19:32			0	21780	0	0	0	27966	26740	267217	26488	984192	35558	110382	0	0	5520	1569264	0	0
2024-04-08 15:20:32			0	21775	0	0	0	27958	26740	266829	26802	984201	35558	110379	0	0	5486	1569796	0	0
2024-04-08 15:21:32			0	21782	0	0	0	27797	26750	266641	26557	984343	35570	110317	0	0	5554	1568962	0	0
2024-04-08 15:22:32			0	21764	0	0	0	27854	26770	266441	26505	984430	35583	110339	0	0	5433	1570695	0	0
2024-04-08 15:23:32			0	21776	0	0	0	27986	26780	266113	26374	984473	35594	110390	0	0	5514	1569330	0	0
2024-04-08 15:24:32			0	21772	0	0	0	28093	26790	265893	26736	984498	35584	110431	0	0	5481	1569665	0	0
2024-04-08 15:25:32			0	21789	0	0	0	28111	26810	265469	26328	984443	35585	110438	0	0	5597	1567680	0	0
2024-04-08 15:26:32			0	21778	0	0	0	28111	26810	265325	26779	984478	35585	110438	0	0	5532	1568848	0	0
2024-04-08 15:27:32			0	21776	0	0	0	27999	26810	264953	26615	984478	35585	110395	0	0	5529	1569060	0	0
2024-04-08 15:28:32			0	21786	0	0	0	28044	26810	264621	26509	984317	35597	110412	0	0	5586	1567999	0	0
2024-04-08 15:29:32			0	21790	0	0	0	28041	26800	264457	26639	984238	35584	110411	0	0	5604	1567664	0	0
2024-04-08 15:30:32			0	21791	0	0	0	28025	26790	264109	26887	984195	35551	110405	0	0	5606	1567647	0	0
2024-04-08 15:31:32			0	21783	0	0	0	28007	26780	263737	26765	984079	35573	110398	0	0	5557	1568586	0	0
2024-04-08 15:32:32			0	21789	0	0	0	27981	26770	263261	26578	984063	35561	110388	0	0	5589	1568039	0	0
2024-04-08 15:33:32			0	21795	0	0	0	27963	26770	263129	26798	983974	35561	110381	0	0	5624	1567403	0	0
2024-04-08 15:34:32			0	21792	0	0	0	27942	26770	262949	26942	983893	35572	110373	0	0	5609	1567721	0	0
2024-04-08 15:35:32			0	21799	0	0	0	27924	26740	262785	26764	983745	35558	110366	0	0	5634	1567248	0	0
2024-04-08 15:36:32			0	21794	0	0	0	27903	26730	262493	26913	983701	35524	110358	0	0	5605	1567868	0	0
2024-04-08 15:37:32			0	21792	0	0	0	27883	26720	262217	26757	983649	35545	110350	0	0	5590	1568170	0	0
2024-04-08 15:38:32			0	21795	0	0	0	27859	26710	261961	26828	983614	35544	110341	0	0	5605	1567941	0	0
2024-04-08 15:39:32			0	21795	0	0	0	27854	26690	261701	26788	983466	35520	110339	0	0	5596	1568121	0	0
2024-04-08 15:40:32			0	21796	0	0	0	27833	26670	261525	26710	983432	35541	110331	0	0	5593	1568195	0	0
2024-04-08 15:41:32			0	21798	0	0	0	27812	26640	261337	26464	983372	35528	110323	0	0	5592	1568252	0	0
2024-04-08 15:42:32			0	21796	0	0	0	27799	26630	261085	26785	983302	35517	110318	0	0	5577	1568554	0	0
2024-04-08 15:43:32			0	21801	0	0	0	27781	26610	260897	26752	983153	35537	110311	0	0	5597	1568202	0	0
2024-04-08 15:44:32			0	21805	0	0	0	27768	26600	260709	26686	983083	35524	110306	0	0	5616	1567868	0	0
2024-04-08 15:45:32			0	21800	0	0	0	27753	26590	260433	26602	983093	35524	110300	0	0	5584	1568488	0	0
2024-04-08 15:46:32			0	21809	0	0	0	27732	26580	260161	26549	982916	35523	110292	0	0	5631	1567623	0	0
2024-04-08 15:47:32			0	21801	0	0	0	27722	26560	259893	26925	982909	35510	110288	0	0	5578	1568651	0	0
2024-04-08 15:48:32			0	21807	0	0	0	27706	26550	259849	26511	982794	35510	110282	0	0	5609	1568104	0	0
2024-04-08 15:49:32			0	21799	0	0	0	27690	26530	259517	26748	982734	35507	110276	0	0	5553	1569133	0	0
2024-04-08 15:50:32			0	21814	0	0	0	27675	26510	259321	26892	982727	35517	110270	0	0	5631	1567721	0	0
2024-04-08 15:51:32			0	21805	0	0	0	27667	26490	259093	26802	982641	35516	110267	0	0	5571	1568855	0	0
2024-04-08 15:52:32			0	21814	0	0	0	27651	26490	258865	26870	982587	35516	110261	0	0	5624	1567900	0	0
2024-04-08 15:53:32			0	21818	0	0	0	27636	26470	258749	26977	982519	35514	110255	0	0	5637	1567655	0	0
2024-04-08 15:54:32			0	21813	0	0	0	27618	26460	258505	27086	982403	35513	110248	0	0	5607	1568275	0	0
2024-04-08 15:55:32			0	21823	0	0	0	27602	26450	258289	26842	982351	35536	110242	0	0	5656	1567304	0	0
2024-04-08 15:56:32			0	21817	0	0	0	27594	26430	257973	26937	982300	35511	110239	0	0	5617	1568120	0	0
2024-04-08 15:57:32			0	21819	0	0	0	27581	26420	257849	26873	982230	35522	110234	0	0	5624	1567997	0	0
2024-04-08 15:58:32			0	21818	0	0	0	27571	26410	257861	26620	982213	35510	110230	0	0	5615	1568193	0	0
2024-04-08 15:59:32			0	21817	0	0	0	27558	26390	257421	26856	982099	35498	110225	0	0	5601	1568478	0	0
2024-04-08 16:00:32			0	21817	0	0	0	27548	26380	257333	26861	982101	35507	110221	0	0	5597	1568568	0	0
2024-04-08 16:01:32			0	21824	0	0	0	27540	26370	257101	26835	981977	35529	110218	0	0	5632	1567915	0	0
2024-04-08 16:02:32			0	21821	0	0	0	27524	26370	257185	26719	981951	35506	110212	0	0	5617	1568233	0	0
2024-04-08 16:03:32			0	21815	0	0	0	27509	26330	256925	26682	981919	35514	110206	0	0	5564	1569228	0	0
2024-04-08 16:04:32			0	21829	0	0	0	27493	26310	256569	26649	981814	35502	110200	0	0	5635	1567922	0	0
2024-04-08 16:05:32			0	21830	0	0	0	27480	26300	256457	26817	981762	35500	110195	0	0	5637	1567906	0	0
2024-04-08 16:06:32			0	21834	0	0	0	27475	26300	256265	26597	981735	35479	110193	0	0	5658	1567482	0	0
2024-04-08 16:07:32			0	21832	0	0	0	27464	26290	256053	26526	981638	35478	110189	0	0	5644	1567783	0	0
2024-04-08 16:08:32			0	21833	0	0	0	27457	26280	255729	26576	981595	35510	110186	0	0	5645	1567767	0	0
2024-04-08 16:09:32			0	21834	0	0	0	27441	26260	255801	26530	981562	35476	110180	0	0	5643	1567840	0	0
2024-04-08 16:10:32			0	21823	0	0	0	27438	26250	255561	26986	981500	35498	110179	0	0	5578	1569096	0	0
2024-04-08 16:11:32			0	21834	0	0	0	27425	26230	255493	26627	981413	35485	110174	0	0	5631	1568109	0	0
2024-04-08 16:12:32			0	21830	0	0	0	27410	26230	255401	26675	981413	35485	110168	0	0	5611	1568533	0	0
2024-04-08 16:13:32			0	21831	0	0	0	27405	26220	255217	26687	981281	35505	110166	0	0	5612	1568516	0	0
2024-04-08 16:14:32			0	21840	0	0	0	27392	26200	255137	26634	981229	35494	110161	0	0	5652	1567741	0	0
2024-04-08 16:15:32			0	21844	0	0	0	27386	26200	254885	26830	981248	35493	110159	0	0	5672	1567317	0	0
2024-04-08 16:16:32			0	21844	0	0	0	27373	26180	254645	26549	981223	35481	110154	0	0	5665	1567496	0	0
2024-04-08 16:17:32			0	21847	0	0	0	27368	26180	254465	26989	981143	35503	110152	0	0	5680	1567178	0	0
2024-04-08 16:18:32			0	21832	0	0	0	27361	26170	254233	27046	981144	35512	110149	0	0	5598	1568858	0	0
2024-04-08 16:19:32			0	21857	0	0	0	27348	26160	254161	26955	981047	35490	110144	0	0	5719	1566298	0	0
2024-04-08 16:20:32			0	21846	0	0	0	27340	26140	254001	26778	980996	35489	110141	0	0	5660	1567642	0	0
2024-04-08 16:21:32			0	21843	0	0	0	27322	26140	253845	26767	980996	35478	110134	0	0	5647	1567960	0	0
2024-04-08 16:22:32			0	21849	0	0	0	27316	26120	253617	26892	980909	35476	110132	0	0	5669	1567503	0	0
2024-04-08 16:23:32			0	21851	0	0	0	27309	26120	253681	26504	980847	35487	110129	0	0	5679	1567291	0	0
2024-04-08 16:24:32			0	21855	0	0	0	27231	26110	253381	26708	980858	35507	110099	0	0	5699	1566957	0	0
2024-04-08 16:25:32			0	21860	0	0	0	27215	26100	253325	26901	980769	35485	110093	0	0	5719	1566517	0	0
2024-04-08 16:26:32			0	21857	0	0	0	27212	26090	253117	26677	980806	35473	110092	0	0	5702	1566924	0	0
2024-04-08 16:27:32			0	21868	0	0	0	27244	26100	252857	27001	980849	35485	110104	0	0	5751	1565670	0	0
2024-04-08 16:28:32			0	21874	0	0	0	27270	26100	252693	26939	980868	35474	110114	0	0	5773	1565036	0	0
2024-04-08 16:29:32			0	21881	0	0	0	27262	26100	252613	26757	980841	35485	110111	0	0	5800	1564296	0	0
2024-04-08 16:30:32			0	21877	0	0	0	27264	26110	252517	27066	980858	35497	110112	0	0	5788	1564629	0	0
2024-04-08 16:31:32			0	21878	0	0	0	27283	26100	252341	26982	980903	35485	110119	0	0	5788	1564613	0	0
2024-04-08 16:32:32			0	21880	0	0	0	27285	26100	251853	26847	980921	35485	110120	0	0	5795	1564402	0	0
2024-04-08 16:33:32			0	21883	0	0	0	27285	26110	251885	26594	980938	35497	110120	0	0	5809	1563995	0	0
2024-04-08 16:34:32			0	21883	0	0	0	27311	26100	251773	26726	980930	35485	110130	0	0	5804	1564084	0	0
2024-04-08 16:35:32			0	21898	0	0	0	27319	26110	251541	26911	980919	35497	110133	0	0	5858	1562411	0	0
2024-04-08 16:36:32			0	21894	0	0	0	27322	26120	251425	26587	980954	35509	110134	0	0	5847	1562745	0	0
2024-04-08 16:37:32			0	21898	0	0	0	27327	26120	251313	26738	980990	35509	110136	0	0	5860	1562322	0	0
2024-04-08 16:38:32			0	21903	0	0	0	27340	26110	251129	26595	981027	35486	110141	0	0	5872	1561884	0	0
2024-04-08 16:39:32			0	21900	0	0	0	27345	26140	250877	26622	980961	35500	110143	0	0	5871	1561933	0	0
2024-04-08 16:40:32			0	21911	0	0	0	27376	26130	250801	26481	981033	35499	110155	0	0	5900	1560863	0	0
2024-04-08 16:41:32			0	21900	0	0	0	27381	26140	250673	26550	981049	35500	110157	0	0	5869	1561933	0	0
2024-04-08 16:42:32			0	21907	0	0	0	27399	26140	250525	26349	981130	35500	110164	0	0	5889	1561195	0	0
2024-04-08 16:43:32			0	21906	0	0	0	27415	26150	250193	26831	981138	35511	110170	0	0	5888	1561211	0	0
2024-04-08 16:44:32			0	21906	0	0	0	27415	26160	250361	26748	981208	35523	110170	0	0	5891	1561122	0	0
2024-04-08 16:45:32			0	21910	0	0	0	27436	26170	250121	26937	981225	35512	110178	0	0	5904	1560612	0	0
2024-04-08 16:46:32			0	21903	0	0	0	27451	26180	250021	26760	981268	35525	110184	0	0	5885	1561260	0	0
2024-04-08 16:47:32			0	21920	0	0	0	27457	26190	249749	26863	981266	35503	110186	0	0	5935	1559380	0	0
2024-04-08 16:48:32			0	21916	0	0	0	27464	26190	249645	26713	981347	35503	110189	0	0	5924	1559801	0	0
2024-04-08 16:49:32			0	21921	0	0	0	27477	26190	249621	26627	981347	35526	110194	0	0	5937	1559275	0	0
2024-04-08 16:50:32			0	21918	0	0	0	27490	26200	249441	26452	981355	35503	110199	0	0	5931	1559502	0	0
2024-04-08 16:51:32			0	21915	0	0	0	27503	26220	249437	26684	981423	35540	110204	0	0	5926	1559640	0	0
2024-04-08 16:52:32			0	21921	0	0	0	27496	26220	249245	26689	981477	35506	110201	0	0	5943	1559008	0	0
2024-04-08 16:53:32			0	21911	0	0	0	27509	26240	249105	26793	981510	35519	110206	0	0	5920	1559883	0	0
2024-04-08 16:54:32			0	21915	0	0	0	27514	26250	248805	26564	981607	35498	110208	0	0	5933	1559373	0	0
2024-04-08 16:55:32			0	21919	0	0	0	27537	26270	248797	27029	981640	35522	110217	0	0	5947	1558773	0	0
2024-04-08 16:56:32			0	21917	0	0	0	27535	26280	248729	26986	981675	35533	110216	0	0	5944	1558895	0	0
2024-04-08 16:57:32			0	21916	0	0	0	27553	26290	248537	26557	981692	35534	110223	0	0	5943	1558911	0	0
2024-04-08 16:58:32			0	21913	0	0	0	27555	26300	248509	26705	981717	35512	110224	0	0	5937	1559138	0	0
2024-04-08 16:59:32			0	21911	0	0	0	27568	26310	248253	26866	981779	35524	110229	0	0	5933	1559259	0	0
2024-04-08 17:00:32			0	21916	0	0	0	27592	26330	248129	26608	981839	35537	110238	0	0	5950	1558555	0	0
2024-04-08 17:01:32			0	21931	0	0	0	27589	26330	248121	27066	981892	35526	110237	0	0	5987	1556978	0	0
2024-04-08 17:02:32			0	21924	0	0	0	27615	26350	247853	26875	981872	35527	110247	0	0	5973	1557536	0	0
2024-04-08 17:03:32			0	21926	0	0	0	27638	26360	247773	26805	981916	35529	110256	0	0	5979	1557236	0	0
2024-04-08 17:04:32			0	21916	0	0	0	27636	26380	247637	26684	981994	35541	110255	0	0	5958	1558110	0	0
2024-04-08 17:05:32			0	21926	0	0	0	27612	26370	247425	26774	982039	35529	110246	0	0	5982	1557147	0	0
2024-04-08 17:06:32			0	21928	0	0	0	27599	26380	247225	26778	982048	35541	110241	0	0	5990	1556848	0	0
2024-04-08 17:07:32			0	21936	0	0	0	27659	26400	247225	26682	982027	35541	110264	0	0	6009	1555830	0	0
2024-04-08 17:08:32			0	21922	0	0	0	27677	26410	246941	26835	982070	35542	110271	0	0	5978	1557212	0	0
2024-04-08 17:09:32			0	21946	0	0	0	27688	26420	246829	26972	982141	35554	110275	0	0	6034	1554603	0	0
2024-04-08 17:10:32			0	21930	0	0	0	27701	26430	246661	26568	982158	35533	110280	0	0	6000	1556193	0	0
2024-04-08 17:11:32			0	21935	0	0	0	27706	26430	246681	26949	982193	35544	110282	0	0	6011	1555668	0	0
2024-04-08 17:12:32			0	21932	0	0	0	27716	26450	246509	26554	982191	35536	110286	0	0	6008	1555805	0	0
2024-04-08 17:13:32			0	21933	0	0	0	27737	26460	246509	26842	982261	35547	110294	0	0	6011	1555611	0	0
2024-04-08 17:14:32			0	21939	0	0	0	27753	26470	246345	26615	982331	35547	110300	0	0	6025	1554893	0	0
2024-04-08 17:15:32			0	21931	0	0	0	27758	26470	246309	26649	982339	35526	110302	0	0	6007	1555732	0	0
2024-04-08 17:16:32			0	21942	0	0	0	27771	26490	246129	26658	982364	35539	110307	0	0	6035	1554401	0	0
2024-04-08 17:17:32			0	21930	0	0	0	27781	26490	246145	27041	982399	35560	110311	0	0	6008	1555660	0	0
2024-04-08 17:18:32			0	21934	0	0	0	27794	26510	245981	26734	982424	35562	110316	0	0	6020	1555062	0	0
2024-04-08 17:19:32			0	21935	0	0	0	27802	26520	245969	26804	982476	35552	110319	0	0	6024	1554868	0	0
2024-04-08 17:20:32			0	21941	0	0	0	27818	26530	245881	26658	982600	35552	110325	0	0	6038	1554150	0	0
2024-04-08 17:21:32			0	21934	0	0	0	27818	26550	245669	26817	982598	35554	110325	0	0	6026	1554706	0	0
2024-04-08 17:22:32			0	21931	0	0	0	27838	26550	245509	26670	982633	35543	110333	0	0	6019	1555021	0	0
2024-04-08 17:23:32			0	21932	0	0	0	27846	26560	245481	26615	982668	35554	110336	0	0	6023	1554827	0	0
2024-04-08 17:24:32			0	21949	0	0	0	27862	26570	245433	26809	982773	35556	110342	0	0	6060	1552956	0	0
2024-04-08 17:25:32			0	21935	0	0	0	27870	26580	245461	26854	982728	35567	110345	0	0	6032	1554334	0	0
2024-04-08 17:26:32			0	21940	0	0	0	27877	26600	245241	26680	982788	35557	110348	0	0	6046	1553632	0	0
2024-04-08 17:27:32			0	21931	0	0	0	27898	26610	245073	26686	982858	35570	110356	0	0	6028	1554487	0	0
2024-04-08 17:28:32			0	21952	0	0	0	27906	26620	244973	26870	982955	35582	110359	0	0	6072	1552197	0	0
2024-04-08 17:29:32			0	21934	0	0	0	27919	26620	244889	26932	982883	35560	110364	0	0	6035	1554084	0	0
2024-04-08 17:30:32			0	21934	0	0	0	27940	26640	244745	26896	982997	35561	110372	0	0	6038	1553906	0	0
2024-04-08 17:31:32			0	21941	0	0	0	27948	26660	244761	26630	983040	35563	110375	0	0	6055	1552994	0	0
2024-04-08 17:32:32			0	21946	0	0	0	27958	26680	244673	26911	983154	35564	110379	0	0	6068	1552293	0	0
2024-04-08 17:33:32			0	21942	0	0	0	27979	26690	244549	26878	983090	35576	110387	0	0	6061	1552623	0	0
2024-04-08 17:34:32			0	21947	0	0	0	27984	26700	244365	26731	983187	35577	110389	0	0	6073	1552010	0	0
2024-04-08 17:35:32			0	21943	0	0	0	28002	26720	244181	26406	983301	35579	110396	0	0	6067	1552251	0	0
2024-04-08 17:36:32			0	21937	0	0	0	28010	26730	244285	26537	983264	35580	110399	0	0	6057	1552791	0	0
2024-04-08 17:37:32			0	21939	0	0	0	28020	26750	244145	26717	983404	35591	110403	0	0	6064	1552404	0	0
2024-04-08 17:38:32			0	21945	0	0	0	28033	26770	244069	26590	983384	35583	110408	0	0	6078	1551597	0	0
2024-04-08 17:39:32			0	21931	0	0	0	28046	26780	244053	26623	983508	35572	110413	0	0	6052	1552975	0	0
2024-04-08 17:40:32			0	21944	0	0	0	28062	26780	243809	26679	983516	35595	110419	0	0	6077	1551613	0	0
2024-04-08 17:41:32			0	21943	0	0	0	28070	26800	243809	26713	983576	35563	110422	0	0	6078	1551540	0	0
2024-04-08 17:42:32			0	21940	0	0	0	28085	26810	243653	26892	983646	35597	110428	0	0	6073	1551765	0	0
2024-04-08 17:43:32			0	21947	0	0	0	28109	26820	243841	26798	983690	35576	110437	0	0	6087	1550944	0	0
2024-04-08 17:44:32			0	21939	0	0	0	28114	26840	243637	26531	983715	35588	110439	0	0	6075	1551603	0	0
2024-04-08 17:45:32			0	21950	0	0	0	28122	26850	243501	26878	983758	35578	110442	0	0	6097	1550363	0	0
2024-04-08 17:46:32			0	21941	0	0	0	28137	26870	243441	26781	983818	35590	110448	0	0	6083	1551127	0	0
2024-04-08 17:47:32			0	21943	0	0	0	28158	26880	243525	26781	983897	35602	110456	0	0	6087	1550829	0	0
2024-04-08 17:48:32			0	21945	0	0	0	28166	26890	243433	26651	983913	35592	110459	0	0	6093	1550531	0	0
2024-04-08 17:49:32			0	21946	0	0	0	28179	26910	243273	26752	983992	35605	110464	0	0	6097	1550249	0	0
2024-04-08 17:50:32			0	21931	0	0	0	28192	26920	243237	26896	984017	35595	110469	0	0	6070	1551730	0	0
2024-04-08 17:51:32			0	21943	0	0	0	28205	26940	243277	26680	984096	35608	110474	0	0	6095	1550296	0	0
2024-04-08 17:52:32			0	21936	0	0	0	28207	26950	243141	26927	984112	35608	110475	0	0	6084	1550939	0	0
2024-04-08 17:53:32			0	21949	0	0	0	28236	26970	243065	26623	984191	35598	110486	0	0	6110	1549402	0	0
2024-04-08 17:54:32			0	21955	0	0	0	28246	26990	242821	26937	984286	35611	110490	0	0	6123	1548597	0	0
2024-04-08 17:55:32			0	21937	0	0	0	28254	27000	242853	26883	984249	35601	110493	0	0	6092	1550390	0	0
2024-04-08 17:56:32			0	21948	0	0	0	28270	27010	242781	26951	984319	35624	110499	0	0	6113	1549151	0	0
2024-04-08 17:57:32			0	21946	0	0	0	28280	27040	242625	26871	984388	35626	110503	0	0	6113	1549094	0	0
2024-04-08 17:58:32			0	21949	0	0	0	28303	27040	242677	26883	984369	35604	110512	0	0	6118	1548780	0	0
2024-04-08 17:59:32			0	21945	0	0	0	28319	27050	242673	27015	984413	35616	110518	0	0	6111	1549109	0	0
2024-04-08 18:00:32			0	21939	0	0	0	28324	27070	242673	26852	984473	35606	110520	0	0	6104	1549559	0	0
2024-04-08 18:01:32			0	21952	0	0	0	28332	27090	242605	26700	984578	35619	110523	0	0	6129	1548023	0	0
2024-04-08 18:02:32			0	21950	0	0	0	28345	27090	242513	26963	984587	35619	110528	0	0	6125	1548231	0	0
2024-04-08 18:03:32			0	21952	0	0	0	28358	27100	242273	26706	984737	35609	110533	0	0	6130	1547934	0	0
2024-04-08 18:04:32			0	21952	0	0	0	28374	27110	242277	26722	984727	35621	110539	0	0	6130	1547845	0	0
2024-04-08 18:05:32			0	21943	0	0	0	28386	27130	242281	26802	984733	35633	110544	0	0	6117	1548607	0	0
2024-04-08 18:06:32			0	21942	0	0	0	28402	27140	242177	26767	984804	35624	110550	0	0	6116	1548623	0	0
2024-04-08 18:07:32			0	21948	0	0	0	28410	27160	242173	26675	984864	35602	110553	0	0	6129	1547818	0	0
2024-04-08 18:08:32			0	21950	0	0	0	28420	27170	242133	26833	984934	35625	110557	0	0	6134	1547521	0	0
2024-04-08 18:09:32			0	21956	0	0	0	28441	27180	242145	27007	984970	35603	110565	0	0	6145	1546806	0	0
2024-04-08 18:10:32			0	21950	0	0	0	28459	27190	241949	26890	984959	35616	110572	0	0	6135	1547343	0	0
2024-04-08 18:11:32			0	21947	0	0	0	28459	27200	241945	26722	985038	35627	110572	0	0	6132	1547567	0	0
2024-04-08 18:12:32			0	21957	0	0	0	28475	27230	241877	26453	985125	35629	110578	0	0	6152	1546257	0	0
2024-04-08 18:13:32			0	21946	0	0	0	28483	27240	241761	26786	985088	35630	110581	0	0	6135	1547316	0	0
2024-04-08 18:14:32			0	21950	0	0	0	28496	27240	241641	26897	985150	35642	110586	0	0	6141	1546899	0	0
2024-04-08 18:15:32			0	21951	0	0	0	28498	27250	241529	26703	985220	35631	110587	0	0	6144	1546705	0	0
2024-04-08 18:16:32			0	21953	0	0	0	28516	27270	241493	26708	985299	35643	110594	0	0	6149	1546319	0	0
2024-04-08 18:17:32			0	21966	0	0	0	28524	27280	241449	26606	985315	35645	110597	0	0	6171	1544875	0	0
2024-04-08 18:18:32			0	21961	0	0	0	28542	27280	241505	26826	985342	35645	110604	0	0	6163	1545396	0	0
2024-04-08 18:19:32			0	21963	0	0	0	28550	27290	241257	26955	985340	35657	110607	0	0	6167	1545099	0	0
2024-04-08 18:20:32			0	21954	0	0	0	28566	27310	241257	26765	985400	35636	110613	0	0	6155	1545860	0	0
2024-04-08 18:21:32			0	21954	0	0	0	28571	27330	241221	26837	985460	35649	110615	0	0	6157	1545682	0	0
2024-04-08 18:22:32			0	21956	0	0	0	28579	27350	241269	26911	985485	35640	110618	0	0	6163	1545296	0	0
2024-04-08 18:23:32			0	21952	0	0	0	28594	27350	240941	26672	985494	35662	110624	0	0	6156	1545713	0	0
2024-04-08 18:24:32			0	21959	0	0	0	28610	27370	240957	26589	985545	35641	110630	0	0	6169	1544806	0	0
2024-04-08 18:25:32			0	21965	0	0	0	28618	27370	240909	26585	985607	35641	110633	0	0	6178	1544181	0	0
2024-04-08 18:26:32			0	21954	0	0	0	28618	27390	240857	26700	985659	35654	110633	0	0	6164	1545149	0	0
2024-04-08 18:27:32			0	21959	0	0	0	28633	27390	240869	26785	985721	35666	110639	0	0	6171	1544628	0	0
2024-04-08 18:28:32			0	21959	0	0	0	28641	27410	240873	26549	985639	35678	110642	0	0	6173	1544451	0	0
2024-04-08 18:29:32			0	21949	0	0	0	28649	27410	240697	26795	985755	35666	110645	0	0	6157	1545493	0	0
2024-04-08 18:30:32			0	21968	0	0	0	28670	27430	240549	26821	985780	35657	110653	0	0	6188	1543336	0	0
2024-04-08 18:31:32			0	21969	0	0	0	28672	27440	240681	26937	985796	35658	110654	0	0	6191	1543143	0	0
2024-04-08 18:32:32			0	21979	0	0	0	28680	27450	240449	26698	985813	35659	110657	0	0	6207	1542014	0	0
2024-04-08 18:33:32			0	21957	0	0	0	28690	27450	240513	26715	985920	35659	110661	0	0	6174	1544304	0	0
2024-04-08 18:34:32			0	21965	0	0	0	28693	27470	240273	26674	985927	35671	110662	0	0	6188	1543293	0	0
2024-04-08 18:35:32			0	21967	0	0	0	28703	27470	240361	26811	985873	35660	110666	0	0	6191	1543085	0	0
2024-04-08 18:36:32			0	21959	0	0	0	28714	27480	240301	26774	985970	35672	110670	0	0	6180	1543829	0	0
2024-04-08 18:37:32			0	21977	0	0	0	28724	27490	240165	26632	985987	35650	110674	0	0	6207	1541868	0	0
2024-04-08 18:38:32			0	21971	0	0	0	28615	27490	240133	26564	985995	35651	110632	0	0	6202	1542492	0	0
2024-04-08 18:39:32			0	21978	0	0	0	28649	27500	240113	26713	986039	35652	110645	0	0	6212	1541675	0	0
2024-04-08 18:40:32			0	21978	0	0	0	28675	27510	240117	26823	986001	35664	110655	0	0	6213	1541586	0	0
2024-04-08 18:41:32			0	21978	0	0	0	28698	27520	239969	26568	986010	35664	110664	0	0	6213	1541497	0	0
2024-04-08 18:42:32			0	21980	0	0	0	28683	27530	240065	26875	986072	35653	110658	0	0	6217	1541201	0	0
2024-04-08 18:43:32			0	21984	0	0	0	28680	27530	239993	26533	986053	35666	110657	0	0	6223	1540786	0	0
2024-04-08 18:44:32			0	21982	0	0	0	28742	27530	239861	26436	986107	35654	110681	0	0	6218	1540993	0	0
2024-04-08 18:45:32			0	21983	0	0	0	28753	27540	239861	26147	986097	35688	110685	0	0	6221	1540801	0	0
2024-04-08 18:46:32			0	21979	0	0	0	28763	27550	239665	26542	986105	35666	110689	0	0	6216	1541128	0	0
2024-04-08 18:47:32			0	21980	0	0	0	28776	27540	239581	26365	986097	35677	110694	0	0	6216	1541112	0	0
2024-04-08 18:48:32			0	21975	0	0	0	28703	27550	239601	26719	986140	35678	110666	0	0	6212	1541543	0	0
2024-04-08 18:49:32			0	21978	0	0	0	28742	27550	239745	26930	986132	35644	110681	0	0	6215	1541231	0	0
2024-04-08 18:50:32			0	21980	0	0	0	28729	27560	239597	26410	986130	35667	110676	0	0	6220	1540935	0	0
2024-04-08 18:51:32			0	21993	0	0	0	28719	27580	239597	26599	986155	35668	110672	0	0	6240	1539408	0	0
2024-04-08 18:52:32			0	21995	0	0	0	28732	27570	239521	26542	986139	35657	110677	0	0	6241	1539289	0	0
2024-04-08 18:53:32			0	21983	0	0	0	28776	27580	239461	26842	986190	35658	110694	0	0	6224	1540446	0	0
2024-04-08 18:54:32			0	21994	0	0	0	28753	27570	239313	26765	986120	35668	110685	0	0	6239	1539393	0	0
2024-04-08 18:55:32			0	21993	0	0	0	28750	27580	239249	26941	986155	35679	110684	0	0	6239	1539408	0	0
2024-04-08 18:56:32			0	21993	0	0	0	28771	27570	239313	26712	986039	35657	110692	0	0	6237	1539497	0	0
2024-04-08 18:57:32			0	22004	0	0	0	28789	27580	239253	26927	986110	35658	110699	0	0	6252	1538267	0	0
2024-04-08 18:58:32			0	21995	0	0	0	28799	27570	239041	26922	986066	35646	110703	0	0	6239	1539289	0	0
2024-04-08 18:59:32			0	22010	0	0	0	28799	27570	239077	27053	986039	35668	110703	0	0	6258	1537734	0	0
2024-04-08 19:00:32			0	21999	0	0	0	28799	27580	239161	26798	986056	35658	110703	0	0	6245	1538786	0	0
2024-04-08 19:01:32			0	22001	0	0	0	28807	27580	238993	26733	985994	35668	110706	0	0	6247	1538578	0	0
2024-04-08 19:02:32			0	21999	0	0	0	28802	27580	238993	26821	986021	35668	110704	0	0	6245	1538786	0	0
2024-04-08 19:03:32			0	22009	0	0	0	28802	27580	238889	26894	985940	35657	110704	0	0	6258	1537749	0	0
2024-04-08 19:04:32			0	21999	0	0	0	28797	27570	238941	26899	985977	35678	110702	0	0	6244	1538874	0	0
2024-04-08 19:05:32			0	22007	0	0	0	28810	27570	238917	26767	986013	35657	110707	0	0	6254	1538045	0	0
2024-04-08 19:06:32			0	22004	0	0	0	28802	27570	238965	26823	985951	35667	110704	0	0	6250	1538356	0	0
2024-04-08 19:07:32			0	22007	0	0	0	28794	27580	238757	26689	985994	35679	110701	0	0	6255	1537956	0	0
2024-04-08 19:08:32			0	22002	0	0	0	28802	27580	238701	26675	985913	35657	110704	0	0	6249	1538475	0	0
2024-04-08 19:09:32			0	22011	0	0	0	28797	27570	238793	26826	985932	35679	110702	0	0	6259	1537630	0	0
2024-04-08 19:10:32			0	22008	0	0	0	28802	27570	238765	26883	985932	35679	110704	0	0	6255	1537941	0	0
2024-04-08 19:11:32			0	22007	0	0	0	28802	27580	238689	26804	985913	35657	110704	0	0	6255	1537956	0	0
2024-04-08 19:12:32			0	22011	0	0	0	28794	27570	238701	26804	985924	35657	110701	0	0	6259	1537630	0	0
2024-04-08 19:13:32			0	22012	0	0	0	28799	27580	238633	26493	985940	35679	110703	0	0	6262	1537438	0	0
2024-04-08 19:14:32			0	22006	0	0	0	28794	27570	238629	26592	985897	35678	110701	0	0	6253	1538148	0	0
2024-04-08 19:15:32			0	22005	0	0	0	28797	27560	238617	26616	985915	35667	110702	0	0	6251	1538341	0	0
2024-04-08 19:16:32			0	22022	0	0	0	28799	27560	238713	26538	985826	35666	110703	0	0	6272	1536579	0	0
2024-04-08 19:17:32			0	22018	0	0	0	28789	27570	238617	26616	985843	35667	110699	0	0	6268	1536905	0	0
2024-04-08 19:18:32			0	22031	0	0	0	28794	27570	238401	26890	985789	35678	110701	0	0	6284	1535560	0	0
2024-04-08 19:19:32			0	22021	0	0	0	28792	27560	238317	26585	985800	35678	110700	0	0	6271	1536683	0	0
2024-04-08 19:20:32			0	22029	0	0	0	28784	27560	238409	26753	985835	35678	110697	0	0	6281	1535855	0	0
2024-04-08 19:21:32			0	22033	0	0	0	28794	27560	238225	26774	985835	35678	110701	0	0	6285	1535441	0	0
2024-04-08 19:22:32			0	22035	0	0	0	28789	27560	238333	26665	985665	35678	110699	0	0	6288	1535234	0	0
2024-04-08 19:23:32			0	22036	0	0	0	28786	27560	238181	26597	985727	35667	110698	0	0	6289	1535131	0	0
2024-04-08 19:24:32			0	22041	0	0	0	28792	27550	238113	26677	985765	35666	110700	0	0	6294	1534703	0	0
2024-04-08 19:25:32			0	22043	0	0	0	28786	27550	238093	26410	985676	35677	110698	0	0	6296	1534496	0	0
2024-04-08 19:26:32			0	22047	0	0	0	28789	27550	238285	26611	985729	35666	110699	0	0	6301	1534082	0	0
2024-04-08 19:27:32			0	22047	0	0	0	28786	27550	238129	26743	985684	35666	110698	0	0	6301	1534082	0	0
2024-04-08 19:28:32			0	22061	0	0	0	28774	27550	238065	26733	985649	35677	110693	0	0	6317	1532637	0	0
2024-04-08 19:29:32			0	22056	0	0	0	28781	27540	238057	26639	985686	35676	110696	0	0	6311	1533241	0	0
2024-04-08 19:30:32			0	22044	0	0	0	28776	27550	238025	26738	985630	35666	110694	0	0	6298	1534392	0	0
2024-04-08 19:31:32			0	22060	0	0	0	28768	27540	237933	26838	985605	35666	110691	0	0	6315	1532828	0	0
2024-04-08 19:32:32			0	22061	0	0	0	28781	27540	237905	26776	985525	35666	110696	0	0	6316	1532725	0	0
2024-04-08 19:33:32			0	22072	0	0	0	28771	27540	237893	26443	985533	35677	110692	0	0	6329	1531591	0	0
2024-04-08 19:34:32			0	22062	0	0	0	28768	27540	237801	26849	985578	35654	110691	0	0	6318	1532622	0	0
2024-04-08 19:35:32			0	22066	0	0	0	28766	27530	237885	26800	985516	35666	110690	0	0	6321	1532297	0	0
2024-04-08 19:36:32			0	22061	0	0	0	28761	27530	237773	26896	985543	35654	110688	0	0	6316	1532813	0	0
2024-04-08 19:37:32			0	22067	0	0	0	28763	27520	237841	26724	985500	35664	110689	0	0	6321	1532283	0	0
2024-04-08 19:38:32			0	22067	0	0	0	28753	27530	237601	26554	985481	35665	110685	0	0	6323	1532195	0	0
2024-04-08 19:39:32			0	22076	0	0	0	28753	27510	237665	26590	985411	35653	110685	0	0	6331	1531443	0	0
2024-04-08 19:40:32			0	22076	0	0	0	28745	27520	237529	26660	985419	35675	110682	0	0	6332	1531355	0	0
2024-04-08 19:41:32			0	22068	0	0	0	28742	27510	237665	26580	985357	35675	110681	0	0	6322	1532267	0	0
2024-04-08 19:42:32			0	22078	0	0	0	28742	27500	237549	26535	985313	35652	110681	0	0	6332	1531325	0	0
2024-04-08 19:43:32			0	22071	0	0	0	28740	27500	237469	26639	985332	35673	110680	0	0	6325	1532046	0	0
2024-04-08 19:44:32			0	22072	0	0	0	28740	27500	237357	26677	985332	35673	110680	0	0	6326	1531943	0	0
2024-04-08 19:45:32			0	22075	0	0	0	28737	27510	237449	26785	985241	35663	110679	0	0	6330	1531546	0	0
2024-04-08 19:46:32			0	22082	0	0	0	28737	27500	237441	26680	985225	35663	110679	0	0	6337	1530913	0	0
2024-04-08 19:47:32			0	22089	0	0	0	28737	27490	237261	26795	985216	35673	110679	0	0	6343	1530279	0	0
2024-04-08 19:48:32			0	22084	0	0	0	28724	27490	237285	26805	985127	35662	110674	0	0	6338	1530795	0	0
2024-04-08 19:49:32			0	22085	0	0	0	28722	27470	237269	26682	985129	35661	110673	0	0	6338	1530868	0	0
2024-04-08 19:50:32			0	22084	0	0	0	28719	27480	237281	26566	985119	35672	110672	0	0	6337	1530883	0	0
2024-04-08 19:51:32			0	22088	0	0	0	28714	27480	237309	26540	985138	35661	110670	0	0	6342	1530471	0	0
2024-04-08 19:52:32			0	22094	0	0	0	28714	27460	237101	26849	985059	35670	110670	0	0	6346	1530029	0	0
2024-04-08 19:53:32			0	22101	0	0	0	28706	27460	237229	26566	984997	35670	110667	0	0	6354	1529308	0	0
2024-04-08 19:54:32			0	22097	0	0	0	28703	27460	237253	26755	984970	35648	110666	0	0	6350	1529720	0	0
2024-04-08 19:55:32			0	22105	0	0	0	28688	27450	237245	26403	984927	35659	110660	0	0	6358	1528985	0	0
2024-04-08 19:56:32			0	22107	0	0	0	28683	27440	237137	26453	984972	35658	110658	0	0	6359	1528867	0	0
2024-04-08 19:57:32			0	22117	0	0	0	28685	27450	237073	26585	984908	35670	110659	0	0	6370	1527752	0	0
2024-04-08 19:58:32			0	22096	0	0	0	28680	27440	237261	26755	984856	35668	110657	0	0	6348	1529999	0	0
2024-04-08 19:59:32			0	22109	0	0	0	28675	27440	237101	26618	984776	35658	110655	0	0	6361	1528662	0	0
2024-04-08 20:00:32			0	22113	0	0	0	28667	27440	236961	26628	984830	35668	110652	0	0	6365	1528250	0	0
2024-04-08 20:01:32			0	22120	0	0	0	28662	27430	237001	27013	984821	35658	110650	0	0	6372	1527619	0	0
2024-04-08 20:02:32			0	22140	0	0	0	28654	27420	236869	26837	984805	35645	110647	0	0	6391	1525654	0	0
2024-04-08 20:03:32			0	22121	0	0	0	28646	27420	236753	26602	984635	35645	110644	0	0	6372	1527604	0	0
2024-04-08 20:04:32			0	22124	0	0	0	28644	27400	236609	26953	984691	35655	110643	0	0	6374	1527471	0	0
2024-04-08 20:05:32			0	22132	0	0	0	28638	27400	236729	27225	984664	35655	110641	0	0	6382	1526650	0	0
2024-04-08 20:06:32			0	22129	0	0	0	28633	27400	236769	26923	984629	35654	110639	0	0	6379	1526958	0	0
2024-04-08 20:07:32			0	22145	0	0	0	28625	27390	236601	27071	984585	35666	110636	0	0	6394	1525404	0	0
2024-04-08 20:08:32			0	22128	0	0	0	28628	27390	236721	26781	984594	35643	110637	0	0	6377	1527148	0	0
2024-04-08 20:09:32			0	22143	0	0	0	28620	27380	236629	26847	984461	35653	110634	0	0	6391	1525697	0	0
2024-04-08 20:10:32			0	22141	0	0	0	28607	27380	236729	26977	984515	35664	110629	0	0	6390	1525902	0	0
2024-04-08 20:11:32			0	22150	0	0	0	28607	27380	236765	26679	984434	35641	110629	0	0	6398	1524979	0	0
2024-04-08 20:12:32			0	22142	0	0	0	28597	27350	236629	26327	984393	35651	110625	0	0	6388	1526063	0	0
2024-04-08 20:13:32			0	22147	0	0	0	28589	27350	236481	26878	984331	35651	110622	0	0	6393	1525550	0	0
2024-04-08 20:14:32			0	22138	0	0	0	28589	27350	236453	26849	984304	35662	110622	0	0	6385	1526473	0	0
2024-04-08 20:15:32			0	22165	0	0	0	28581	27340	236469	26545	984261	35650	110619	0	0	6410	1523793	0	0
2024-04-08 20:16:32			0	22149	0	0	0	28568	27340	236421	26951	984242	35639	110614	0	0	6395	1525432	0	0
2024-04-08 20:17:32			0	22163	0	0	0	28566	27320	236409	26755	984182	35637	110613	0	0	6407	1524173	0	0
2024-04-08 20:18:32			0	22172	0	0	0	28550	27320	236297	26514	984174	35625	110607	0	0	6415	1523252	0	0
2024-04-08 20:19:32			0	22163	0	0	0	28550	27310	236249	26556	984104	35647	110607	0	0	6406	1524261	0	0
2024-04-08 20:20:32			0	22165	0	0	0	28542	27310	236269	26986	984023	35659	110604	0	0	6408	1524056	0	0
2024-04-08 20:21:32			0	22173	0	0	0	28529	27290	236237	26785	984025	35657	110599	0	0	6414	1523412	0	0
2024-04-08 20:22:32			0	22185	0	0	0	28522	27280	236161	26970	983973	35656	110596	0	0	6425	1522272	0	0
2024-04-08 20:23:32			0	22182	0	0	0	28524	27270	236093	26583	983911	35644	110597	0	0	6421	1522666	0	0
2024-04-08 20:24:32			0	22188	0	0	0	28511	27260	236165	26906	983868	35655	110592	0	0	6426	1522140	0	0
2024-04-08 20:25:32			0	22187	0	0	0	28501	27250	236009	26615	983797	35643	110588	0	0	6425	1522330	0	0
2024-04-08 20:26:32			0	22183	0	0	0	28501	27260	236073	26970	983832	35643	110588	0	0	6422	1522651	0	0
2024-04-08 20:27:32			0	22196	0	0	0	28496	27250	235945	26772	983824	35631	110586	0	0	6433	1521410	0	0
2024-04-08 20:28:32			0	22199	0	0	0	28488	27240	235925	26471	983719	35642	110583	0	0	6435	1521191	0	0
2024-04-08 20:29:32			0	22189	0	0	0	28480	27220	235813	26889	983613	35640	110580	0	0	6425	1522388	0	0
2024-04-08 20:30:32			0	22205	0	0	0	28459	27220	235845	26563	983613	35640	110572	0	0	6439	1520753	0	0
2024-04-08 20:31:32			0	22198	0	0	0	28446	27200	235801	26779	983500	35638	110567	0	0	6432	1521642	0	0
2024-04-08 20:32:32			0	22200	0	0	0	28436	27200	235829	26923	983446	35649	110563	0	0	6434	1521438	0	0
2024-04-08 20:33:32			0	22202	0	0	0	28433	27180	235897	26634	983421	35637	110562	0	0	6434	1521409	0	0
2024-04-08 20:34:32			0	22182	0	0	0	28425	27180	235945	26687	983413	35636	110559	0	0	6417	1523453	0	0
2024-04-08 20:35:32			0	22194	0	0	0	28415	27170	235981	26639	983289	35636	110555	0	0	6427	1522313	0	0
2024-04-08 20:36:32			0	22182	0	0	0	28397	27150	235877	26916	983229	35625	110548	0	0	6415	1523716	0	0
2024-04-08 20:37:32			0	22174	0	0	0	28394	27140	236009	26814	983220	35624	110547	0	0	6407	1524622	0	0
2024-04-08 20:38:32			0	22191	0	0	0	28376	27130	235981	27069	983142	35633	110540	0	0	6422	1522970	0	0
2024-04-08 20:39:32			0	22184	0	0	0	28371	27120	235861	26701	983072	35621	110538	0	0	6415	1523773	0	0
2024-04-08 20:40:32			0	22201	0	0	0	28358	27110	235881	26840	983028	35631	110533	0	0	6430	1522122	0	0
2024-04-08 20:41:32			0	22210	0	0	0	28337	27100	235793	26916	983020	35631	110525	0	0	6438	1521290	0	0
2024-04-08 20:42:32			0	22207	0	0	0	28345	27080	235733	26951	982879	35619	110528	0	0	6434	1521771	0	0
2024-04-08 20:43:32			0	22222	0	0	0	28332	27070	235733	26896	982881	35628	110523	0	0	6446	1520327	0	0
2024-04-08 20:44:32			0	22209	0	0	0	28319	27060	235697	26817	982766	35605	110518	0	0	6435	1521741	0	0
2024-04-08 20:45:32			0	22213	0	0	0	28303	27050	235817	26986	982803	35638	110512	0	0	6438	1521420	0	0
2024-04-08 20:46:32			0	22207	0	0	0	28298	27050	235801	27034	982687	35605	110510	0	0	6433	1522033	0	0
2024-04-08 20:47:32			0	22206	0	0	0	28290	27030	235893	27053	982734	35602	110507	0	0	6431	1522310	0	0
2024-04-08 20:48:32			0	22196	0	0	0	28267	27020	235905	26927	982610	35636	110498	0	0	6421	1523420	0	0
2024-04-08 20:49:32			0	22212	0	0	0	28270	27010	235853	27081	982548	35613	110499	0	0	6435	1521871	0	0
2024-04-08 20:50:32			0	22204	0	0	0	28259	26990	235761	26720	982434	35611	110495	0	0	6427	1522863	0	0
2024-04-08 20:51:32			0	22217	0	0	0	28249	26980	235757	26557	982436	35610	110491	0	0	6438	1521623	0	0
2024-04-08 20:52:32			0	22211	0	0	0	28228	26970	235777	26868	982348	35599	110483	0	0	6432	1522323	0	0
2024-04-08 20:53:32			0	22204	0	0	0	28220	26960	235769	26896	982277	35609	110480	0	0	6425	1523125	0	0
2024-04-08 20:54:32			0	22201	0	0	0	28207	26930	235929	26909	982263	35607	110475	0	0	6421	1523694	0	0
2024-04-08 20:55:32			0	22206	0	0	0	28194	26940	235893	26850	982191	35619	110470	0	0	6426	1523096	0	0
2024-04-08 20:56:32			0	22221	0	0	0	28192	26920	235973	27088	982158	35594	110469	0	0	6438	1521737	0	0
2024-04-08 20:57:32			0	22197	0	0	0	28181	26910	235909	26916	982141	35583	110465	0	0	6416	1524278	0	0
2024-04-08 20:58:32			0	22215	0	0	0	28171	26890	235965	27046	981982	35592	110461	0	0	6431	1522612	0	0
2024-04-08 20:59:32			0	22219	0	0	0	28153	26870	235873	26944	981975	35602	110454	0	0	6434	1522378	0	0
2024-04-08 21:00:32			0	22216	0	0	0	28142	26870	235789	26693	981833	35613	110450	0	0	6431	1522684	0	0
2024-04-08 21:01:32			0	22209	0	0	0	28135	26860	235741	26715	981852	35601	110447	0	0	6424	1523487	0	0
2024-04-08 21:02:32			0	22219	0	0	0	28124	26840	235901	26821	981730	35599	110443	0	0	6432	1522639	0	0
2024-04-08 21:03:32			0	22215	0	0	0	28109	26830	235805	26812	981614	35598	110437	0	0	6428	1523136	0	0
2024-04-08 21:04:32			0	22216	0	0	0	28098	26810	235881	26618	981581	35597	110433	0	0	6428	1523208	0	0
2024-04-08 21:05:32			0	22213	0	0	0	28093	26810	235821	26922	981600	35585	110431	0	0	6425	1523515	0	0
2024-04-08 21:06:32			0	22229	0	0	0	28080	26790	235713	27170	981459	35607	110426	0	0	6438	1522054	0	0
2024-04-08 21:07:32			0	22225	0	0	0	28067	26780	235709	26798	981451	35573	110421	0	0	6434	1522550	0	0
2024-04-08 21:08:32			0	22227	0	0	0	28051	26770	235765	26889	981380	35583	110415	0	0	6436	1522433	0	0
2024-04-08 21:09:32			0	22243	0	0	0	28038	26760	235701	26759	981302	35592	110410	0	0	6449	1520886	0	0
2024-04-08 21:10:32			0	22242	0	0	0	28031	26740	235657	26710	981277	35581	110407	0	0	6447	1521162	0	0
2024-04-08 21:11:32			0	22240	0	0	0	28020	26730	235573	26658	981207	35580	110403	0	0	6445	1521454	0	0
2024-04-08 21:12:32			0	22247	0	0	0	28007	26720	235601	26604	981110	35590	110398	0	0	6451	1520826	0	0
2024-04-08 21:13:32			0	22231	0	0	0	28005	26710	235609	26530	981112	35578	110397	0	0	6436	1522547	0	0
2024-04-08 21:14:32			0	22242	0	0	0	27984	26690	235617	26781	980980	35576	110389	0	0	6445	1521598	0	0
2024-04-08 21:15:32			0	22251	0	0	0	27976	26680	235725	26717	980910	35564	110386	0	0	6452	1520766	0	0
2024-04-08 21:16:32			0	22253	0	0	0	27963	26660	235709	26868	980850	35563	110381	0	0	6453	1520736	0	0
2024-04-08 21:17:32			0	22259	0	0	0	27948	26660	235569	26660	980876	35574	110375	0	0	6458	1520124	0	0
2024-04-08 21:18:32			0	22255	0	0	0	27935	26650	235525	26465	980806	35562	110370	0	0	6454	1520619	0	0
2024-04-08 21:19:32			0	22256	0	0	0	27922	26620	235697	26847	980738	35560	110365	0	0	6453	1520778	0	0
2024-04-08 21:20:32			0	22261	0	0	0	27914	26610	235601	26743	980641	35559	110362	0	0	6457	1520355	0	0
2024-04-08 21:21:32			0	22261	0	0	0	27896	26590	235709	26547	980528	35569	110355	0	0	6456	1520529	0	0
2024-04-08 21:22:32			0	22258	0	0	0	27885	26580	235649	26564	980511	35557	110351	0	0	6453	1520923	0	0
2024-04-08 21:23:32			0	22256	0	0	0	27872	26570	235641	26569	980441	35556	110346	0	0	6451	1521214	0	0
2024-04-08 21:24:32			0	22268	0	0	0	27862	26560	235549	26757	980371	35544	110342	0	0	6461	1520077	0	0
2024-04-08 21:25:32			0	22255	0	0	0	27849	26550	235573	26578	980274	35566	110337	0	0	6449	1521490	0	0
2024-04-08 21:26:32			0	22277	0	0	0	27841	26540	235509	26458	980195	35564	110334	0	0	6467	1519333	0	0
2024-04-08 21:27:32			0	22268	0	0	0	27823	26520	235577	26949	980170	35563	110327	0	0	6459	1520425	0	0
2024-04-08 21:28:32			0	22266	0	0	0	27815	26510	235525	26583	980038	35550	110324	0	0	6457	1520715	0	0
2024-04-08 21:29:32			0	22268	0	0	0	27805	26500	235545	26628	980030	35562	110320	0	0	6458	1520599	0	0
2024-04-08 21:30:32			0	22282	0	0	0	27792	26490	235653	26412	979951	35560	110315	0	0	6469	1519259	0	0
2024-04-08 21:31:32			0	22273	0	0	0	27768	26470	235641	26706	979900	35537	110306	0	0	6461	1520349	0	0
2024-04-08 21:32:32			0	22276	0	0	0	27766	26460	235613	26587	979848	35547	110305	0	0	6463	1520131	0	0
2024-04-08 21:33:32			0	22274	0	0	0	27750	26450	235613	26835	979778	35557	110299	0	0	6461	1520421	0	0
2024-04-08 21:34:32			0	22272	0	0	0	27740	26420	235605	26693	979603	35533	110295	0	0	6457	1520886	0	0
2024-04-08 21:35:32			0	22274	0	0	0	27732	26420	235637	26823	979656	35544	110292	0	0	6459	1520682	0	0
2024-04-08 21:36:32			0	22278	0	0	0	27701	26410	235553	26729	979506	35543	110280	0	0	6463	1520361	0	0
2024-04-08 21:37:32			0	22275	0	0	0	27693	26390	235609	26759	979472	35541	110277	0	0	6459	1520841	0	0
2024-04-08 21:38:32			0	22291	0	0	0	27680	26380	235605	27020	979429	35541	110272	0	0	6472	1519297	0	0
2024-04-08 21:39:32			0	22285	0	0	0	27667	26370	235681	26977	979324	35550	110267	0	0	6467	1519995	0	0
2024-04-08 21:40:32			0	22284	0	0	0	27657	26350	235701	26648	979299	35538	110263	0	0	6465	1520271	0	0
2024-04-08 21:41:32			0	22285	0	0	0	27644	26320	235613	26878	979150	35547	110258	0	0	6464	1520430	0	0
2024-04-08 21:42:32			0	22277	0	0	0	27628	26300	235761	27201	979091	35523	110252	0	0	6456	1521419	0	0
2024-04-08 21:43:32			0	22302	0	0	0	27612	26300	235577	26845	979109	35523	110246	0	0	6477	1518871	0	0
2024-04-08 21:44:32			0	22302	0	0	0	27599	26270	235669	26977	978987	35533	110241	0	0	6475	1519132	0	0
2024-04-08 21:45:32			0	22297	0	0	0	27581	26260	235565	26876	978944	35542	110234	0	0	6471	1519728	0	0
2024-04-08 21:46:32			0	22304	0	0	0	27579	26250	235513	26974	978820	35531	110233	0	0	6476	1519102	0	0
2024-04-08 21:47:32			0	22308	0	0	0	27555	26240	235593	26972	978769	35529	110224	0	0	6479	1518781	0	0
2024-04-08 21:48:32			0	22309	0	0	0	27542	26230	235465	26608	978733	35518	110219	0	0	6480	1518766	0	0
2024-04-08 21:49:32			0	22315	0	0	0	27532	26220	235465	26854	978655	35516	110215	0	0	6484	1518242	0	0
2024-04-08 21:50:32			0	22312	0	0	0	27524	26200	235557	27007	978604	35527	110212	0	0	6481	1518721	0	0
2024-04-08 21:51:32			0	22308	0	0	0	27506	26190	235625	26859	978507	35515	110205	0	0	6477	1519215	0	0
2024-04-08 21:52:32			0	22322	0	0	0	27483	26190	235517	26871	978498	35503	110196	0	0	6489	1517790	0	0
2024-04-08 21:53:32			0	22324	0	0	0	27470	26170	235469	26835	978438	35501	110191	0	0	6490	1517760	0	0
2024-04-08 21:54:32			0	22305	0	0	0	27457	26140	235545	26559	978335	35488	110186	0	0	6473	1519954	0	0
2024-04-08 21:55:32			0	22321	0	0	0	27449	26130	235461	26734	978247	35509	110183	0	0	6485	1518412	0	0
2024-04-08 21:56:32			0	22319	0	0	0	27428	26120	235469	26589	978168	35520	110175	0	0	6483	1518702	0	0
2024-04-08 21:57:32			0	22332	0	0	0	27410	26110	235393	27015	978125	35507	110168	0	0	6494	1517467	0	0
2024-04-08 21:58:32			0	22326	0	0	0	27399	26090	235369	26793	977958	35495	110164	0	0	6488	1518250	0	0
2024-04-08 21:59:32			0	22332	0	0	0	27379	26050	235389	26765	977935	35494	110156	0	0	6490	1517986	0	0
2024-04-08 22:00:32			0	22329	0	0	0	27366	26060	235361	26575	977890	35494	110151	0	0	6489	1518204	0	0
2024-04-08 22:01:32			0	22341	0	0	0	27355	26040	235301	26941	977857	35502	110147	0	0	6497	1517158	0	0
2024-04-08 22:02:32			0	22345	0	0	0	27335	26020	235433	26916	977778	35479	110139	0	0	6500	1516924	0	0
2024-04-08 22:03:32			0	22336	0	0	0	27319	26000	235213	26743	977683	35500	110133	0	0	6492	1518012	0	0
2024-04-08 22:04:32			0	22339	0	0	0	27311	25990	235281	26793	977595	35488	110130	0	0	6494	1517794	0	0
2024-04-08 22:05:32			0	22347	0	0	0	27290	25970	235309	26670	977535	35487	110122	0	0	6499	1517154	0	0
2024-04-08 22:06:32			0	22344	0	0	0	27264	25960	235421	26753	977430	35485	110112	0	0	6497	1517545	0	0
2024-04-08 22:07:32			0	22351	0	0	0	27259	25940	235277	26837	977370	35495	110110	0	0	6501	1517007	0	0
2024-04-08 22:08:32			0	22354	0	0	0	27246	25930	235433	26856	977354	35483	110105	0	0	6503	1516789	0	0
2024-04-08 22:09:32			0	22340	0	0	0	27228	25900	235317	26934	977205	35481	110098	0	0	6490	1518471	0	0
2024-04-08 22:10:32			0	22352	0	0	0	27218	25900	235261	26679	977116	35492	110094	0	0	6500	1517251	0	0
2024-04-08 22:11:32			0	22345	0	0	0	27205	25880	235361	26670	977057	35457	110089	0	0	6494	1518136	0	0
2024-04-08 22:12:32			0	22362	0	0	0	27181	25870	235321	26583	977048	35478	110080	0	0	6507	1516495	0	0
2024-04-08 22:13:32			0	22359	0	0	0	27174	25840	235245	26880	976945	35454	110077	0	0	6503	1517059	0	0
2024-04-08 22:14:32			0	22356	0	0	0	27153	25840	235233	27046	976937	35464	110069	0	0	6501	1517363	0	0
2024-04-08 22:15:32			0	22366	0	0	0	27135	25820	235305	26734	976770	35474	110062	0	0	6508	1516521	0	0
2024-04-08 22:16:32			0	22377	0	0	0	27119	25800	235109	26918	976638	35462	110056	0	0	6516	1515577	0	0
2024-04-08 22:17:32			0	22369	0	0	0	27103	25790	235197	26594	976595	35460	110050	0	0	6509	1516476	0	0
2024-04-08 22:18:32			0	22386	0	0	0	27093	25760	235177	26781	976527	35470	110046	0	0	6521	1515010	0	0
2024-04-08 22:19:32			0	22379	0	0	0	27070	25750	235185	26875	976449	35480	110037	0	0	6515	1515806	0	0
2024-04-08 22:20:32			0	22383	0	0	0	27051	25730	235209	26753	976397	35457	110030	0	0	6517	1515573	0	0
2024-04-08 22:21:32			0	22394	0	0	0	27044	25710	235205	26961	976337	35456	110027	0	0	6525	1514630	0	0
2024-04-08 22:22:32			0	22380	0	0	0	27023	25700	235197	26955	976267	35454	110019	0	0	6514	1516136	0	0
2024-04-08 22:23:32			0	22379	0	0	0	27012	25680	235253	27079	976172	35441	110015	0	0	6512	1516410	0	0
2024-04-08 22:24:32			0	22389	0	0	0	26981	25670	235177	26878	976102	35462	110003	0	0	6520	1515482	0	0
2024-04-08 22:25:32			0	22389	0	0	0	26968	25650	235033	26700	975970	35439	109998	0	0	6519	1515654	0	0
2024-04-08 22:26:32			0	22393	0	0	0	26950	25630	235253	26906	975929	35437	109991	0	0	6521	1515421	0	0
2024-04-08 22:27:32			0	22401	0	0	0	26940	25600	235209	27197	975834	35446	109987	0	0	6525	1514869	0	0
2024-04-08 22:28:32			0	22405	0	0	0	26927	25600	235185	27071	975880	35434	109982	0	0	6529	1514463	0	0
2024-04-08 22:29:32			0	22395	0	0	0	26903	25580	235049	26706	975686	35444	109973	0	0	6521	1515649	0	0
2024-04-08 22:30:32			0	22412	0	0	0	26883	25560	235233	26720	975608	35421	109965	0	0	6533	1514099	0	0
2024-04-08 22:31:32			0	22404	0	0	0	26872	25530	235197	26824	975585	35429	109961	0	0	6525	1515168	0	0
2024-04-08 22:32:32			0	22414	0	0	0	26857	25520	235001	26821	975461	35428	109955	0	0	6532	1514241	0	0
2024-04-08 22:33:32			0	22428	0	0	0	26841	25500	234969	26741	975375	35427	109949	0	0	6542	1512996	0	0
2024-04-08 22:34:32			0	22412	0	0	0	26823	25500	235057	27008	975313	35427	109942	0	0	6530	1514616	0	0
2024-04-08 22:35:32			0	22432	0	0	0	26802	25480	235033	26686	975235	35425	109934	0	0	6544	1512763	0	0
2024-04-08 22:36:32			0	22441	0	0	0	26784	25450	235025	26764	975140	35412	109927	0	0	6549	1512111	0	0
2024-04-08 22:37:32			0	22440	0	0	0	26773	25440	234977	26854	975116	35411	109923	0	0	6548	1512298	0	0
2024-04-08 22:38:32			0	22421	0	0	0	26742	25410	235065	26897	974940	35398	109911	0	0	6533	1514479	0	0
2024-04-08 22:39:32			0	22434	0	0	0	26737	25410	235113	26663	974932	35398	109909	0	0	6543	1513163	0	0
2024-04-08 22:40:32			0	22434	0	0	0	26716	25380	234985	26972	974776	35395	109901	0	0	6542	1513421	0	0
2024-04-08 22:41:32			0	22435	0	0	0	26703	25370	235049	26814	974732	35416	109896	0	0	6542	1513406	0	0
2024-04-08 22:42:32			0	22445	0	0	0	26688	25350	235113	26968	974654	35404	109890	0	0	6549	1512566	0	0
2024-04-08 22:43:32			0	22448	0	0	0	26659	25330	234997	26519	974560	35391	109879	0	0	6550	1512435	0	0
2024-04-08 22:44:32			0	22455	0	0	0	26651	25310	235025	26901	974455	35401	109876	0	0	6554	1511899	0	0
2024-04-08 22:45:32			0	22445	0	0	0	26641	25300	235049	26956	974358	35400	109872	0	0	6547	1512996	0	0
2024-04-08 22:46:32			0	22455	0	0	0	26612	25280	235014	27015	974316	35399	109861	0	0	6553	1512157	0	0
2024-04-08 22:47:32			0	22448	0	0	0	26592	25260	234874	26805	974257	35385	109853	0	0	6548	1513036	0	0
2024-04-08 22:48:32			0	22452	0	0	0	26579	25240	234989	26785	974152	35396	109848	0	0	6550	1512803	0	0
2024-04-08 22:49:32			0	22446	0	0	0	26561	25220	234973	27031	974039	35383	109841	0	0	6545	1513582	0	0
2024-04-08 22:50:32			0	22469	0	0	0	26542	25200	234830	26852	973998	35392	109834	0	0	6560	1511429	0	0
2024-04-08 22:51:32			0	22457	0	0	0	26527	25170	234870	27088	973964	35379	109828	0	0	6550	1512899	0	0
2024-04-08 22:52:32			0	22472	0	0	0	26506	25170	234794	26930	973903	35389	109820	0	0	6562	1511383	0	0
2024-04-08 22:53:32			0	22472	0	0	0	26485	25140	234766	26909	973746	35387	109812	0	0	6560	1511641	0	0
2024-04-08 22:54:32			0	22476	0	0	0	26467	25130	234794	26767	973685	35387	109805	0	0	6563	1511322	0	0
2024-04-08 22:55:32			0	22481	0	0	0	26451	25110	234790	27015	973590	35374	109799	0	0	6566	1510989	0	0
2024-04-08 22:56:32			0	22480	0	0	0	26431	25100	234730	26996	973520	35362	109791	0	0	6565	1511176	0	0
2024-04-08 22:57:32			0	22479	0	0	0	26412	25080	234666	26759	973469	35382	109784	0	0	6563	1511448	0	0
2024-04-08 22:58:32			0	22482	0	0	0	26397	25060	234678	26896	973321	35370	109778	0	0	6565	1511317	0	0
2024-04-08 22:59:32			0	22481	0	0	0	26379	25040	234758	26738	973341	35368	109771	0	0	6563	1511589	0	0
2024-04-08 23:00:32			0	22487	0	0	0	26355	25010	234638	26899	973193	35355	109762	0	0	6566	1511240	0	0
2024-04-08 23:01:32			0	22492	0	0	0	26337	25000	234666	26963	973176	35366	109755	0	0	6570	1510821	0	0
2024-04-08 23:02:32			0	22501	0	0	0	26319	24980	234538	26984	973028	35352	109748	0	0	6575	1510085	0	0
2024-04-08 23:03:32			0	22497	0	0	0	26309	24970	234670	26974	972958	35352	109744	0	0	6572	1510574	0	0
2024-04-08 23:04:32			0	22494	0	0	0	26288	24940	234706	26726	972864	35349	109736	0	0	6569	1511134	0	0
2024-04-08 23:05:32			0	22507	0	0	0	26259	24930	234714	26989	972785	35359	109725	0	0	6578	1509908	0	0
2024-04-08 23:06:32			0	22494	0	0	0	26251	24920	234766	26549	972769	35359	109722	0	0	6568	1511305	0	0
2024-04-08 23:07:32			0	22511	0	0	0	26231	24890	234706	26892	972682	35346	109714	0	0	6579	1509847	0	0
2024-04-08 23:08:32			0	22509	0	0	0	26215	24870	234606	26712	972516	35355	109708	0	0	6577	1510219	0	0
2024-04-08 23:09:32			0	22502	0	0	0	26192	24850	234546	26727	972501	35365	109699	0	0	6571	1511097	0	0
2024-04-08 23:10:32			0	22521	0	0	0	26168	24840	234594	27137	972351	35330	109690	0	0	6584	1509266	0	0
2024-04-08 23:11:32			0	22522	0	0	0	26155	24820	234606	26708	972319	35339	109685	0	0	6584	1509336	0	0
2024-04-08 23:12:32			0	22524	0	0	0	26132	24800	234642	27137	972232	35327	109676	0	0	6585	1509306	0	0
2024-04-08 23:13:32			0	22532	0	0	0	26111	24770	234542	26613	972164	35325	109668	0	0	6589	1508756	0	0
2024-04-08 23:14:32			0	22537	0	0	0	26098	24760	234602	27043	972067	35335	109663	0	0	6592	1508338	0	0
2024-04-08 23:15:32			0	22527	0	0	0	26080	24740	234410	26849	971973	35323	109656	0	0	6585	1509516	0	0
2024-04-08 23:16:32			0	22531	0	0	0	26057	24730	234546	27000	971930	35333	109647	0	0	6588	1509199	0	0
2024-04-08 23:17:32			0	22537	0	0	0	26038	24690	234382	27234	971899	35308	109640	0	0	6590	1508936	0	0
2024-04-08 23:18:32			0	22546	0	0	0	26031	24680	234490	26885	971740	35306	109637	0	0	6596	1508116	0	0
2024-04-08 23:19:32			0	22532	0	0	0	26007	24670	234294	26923	971671	35317	109628	0	0	6586	1509611	0	0
2024-04-08 23:20:32			0	22550	0	0	0	25986	24650	234346	27045	971593	35316	109620	0	0	6598	1507969	0	0
2024-04-08 23:21:32			0	22546	0	0	0	25958	24620	234346	27137	971482	35302	109609	0	0	6594	1508628	0	0
2024-04-08 23:22:32			0	22549	0	0	0	25940	24600	234426	27010	971430	35300	109602	0	0	6595	1508496	0	0
2024-04-08 23:23:32			0	22558	0	0	0	25924	24580	234354	27229	971299	35322	109596	0	0	6600	1507761	0	0
2024-04-08 23:24:32			0	22544	0	0	0	25903	24560	234298	27057	971204	35308	109588	0	0	6590	1509341	0	0
2024-04-08 23:25:32			0	22555	0	0	0	25888	24550	234506	26797	971188	35308	109582	0	0	6598	1508319	0	0
2024-04-08 23:26:32			0	22555	0	0	0	25862	24530	234370	26793	971056	35295	109572	0	0	6597	1508490	0	0
2024-04-08 23:27:32			0	22569	0	0	0	25849	24510	234470	26819	970997	35304	109567	0	0	6606	1507252	0	0
2024-04-08 23:28:32			0	22561	0	0	0	25825	24490	234298	26975	970910	35303	109558	0	0	6600	1508227	0	0
2024-04-08 23:29:32			0	22571	0	0	0	25810	24470	234318	26970	970771	35280	109552	0	0	6606	1507392	0	0
2024-04-08 23:30:32			0	22580	0	0	0	25779	24450	234290	26835	970703	35300	109540	0	0	6611	1506657	0	0
2024-04-08 23:31:32			0	22584	0	0	0	25771	24430	234306	26975	970625	35287	109537	0	0	6613	1506426	0	0
2024-04-08 23:32:32			0	22579	0	0	0	25740	24410	234418	27052	970538	35296	109525	0	0	6609	1507099	0	0
2024-04-08 23:33:32			0	22577	0	0	0	25729	24390	234370	26672	970452	35295	109521	0	0	6607	1507470	0	0
2024-04-08 23:34:32			0	22582	0	0	0	25714	24380	234258	26987	970401	35272	109515	0	0	6610	1507052	0	0
2024-04-08 23:35:32			0	22582	0	0	0	25685	24360	234378	26894	970341	35271	109504	0	0	6610	1507223	0	0
2024-04-08 23:36:32			0	22571	0	0	0	25667	24340	234246	27019	970237	35280	109497	0	0	6602	1508499	0	0
2024-04-08 23:37:32			0	22602	0	0	0	25651	24300	234214	26722	970125	35277	109491	0	0	6620	1505724	0	0
2024-04-08 23:38:32			0	22595	0	0	0	25625	24290	234338	27282	970055	35265	109481	0	0	6616	1506512	0	0
2024-04-08 23:39:32			0	22596	0	0	0	25612	24280	234278	26949	969951	35286	109476	0	0	6616	1506497	0	0
2024-04-08 23:40:32			0	22606	0	0	0	25589	24240	234202	27272	969813	35273	109467	0	0	6621	1505833	0	0
2024-04-08 23:41:32			0	22603	0	0	0	25568	24220	234254	27232	969772	35259	109459	0	0	6619	1506304	0	0
2024-04-08 23:42:32			0	22606	0	0	0	25550	24210	234274	26986	969702	35270	109452	0	0	6620	1506088	0	0
2024-04-08 23:43:32			0	22600	0	0	0	25527	24180	234258	26778	969573	35256	109443	0	0	6615	1506946	0	0
2024-04-08 23:44:32			0	22620	0	0	0	25509	24160	234210	26925	969468	35244	109436	0	0	6628	1505108	0	0
2024-04-08 23:45:32			0	22612	0	0	0	25490	24150	234270	27237	969337	35265	109429	0	0	6622	1505996	0	0
2024-04-08 23:46:32			0	22615	0	0	0	25475	24120	234278	27050	969322	35251	109423	0	0	6623	1505949	0	0
2024-04-08 23:47:32			0	22622	0	0	0	25446	24100	234146	27164	969201	35239	109412	0	0	6627	1505417	0	0
2024-04-08 23:48:32			0	22628	0	0	0	25428	24080	234242	27026	969123	35249	109405	0	0	6630	1504985	0	0
2024-04-08 23:49:32			0	22624	0	0	0	25410	24060	234354	26920	969037	35258	109398	0	0	6627	1505556	0	0
2024-04-08 23:50:32			0	22621	0	0	0	25384	24040	234270	27152	969004	35246	109388	0	0	6625	1506027	0	0
2024-04-08 23:51:32			0	22637	0	0	0	25366	24020	234310	27168	968926	35245	109381	0	0	6634	1504592	0	0
2024-04-08 23:52:32			0	22632	0	0	0	25350	23990	234386	26724	968770	35253	109375	0	0	6630	1505348	0	0
2024-04-08 23:53:32			0	22633	0	0	0	25327	23980	234206	26961	968719	35230	109366	0	0	6631	1505332	0	0
2024-04-08 23:54:32			0	22634	0	0	0	25306	23960	234334	26765	968641	35228	109358	0	0	6631	1505401	0	0
2024-04-08 23:55:32			0	22635	0	0	0	25288	23950	234274	26821	968563	35239	109351	0	0	6631	1505386	0	0
2024-04-08 23:56:32			0	22645	0	0	0	25270	23920	234214	26970	968433	35224	109344	0	0	6636	1504638	0	0
2024-04-08 23:57:32			0	22658	0	0	0	25251	23900	234162	26989	968374	35223	109337	0	0	6644	1503505	0	0
2024-04-08 23:58:32			0	22662	0	0	0	25228	23880	234230	26793	968315	35221	109328	0	0	6646	1503274	0	0
2024-04-08 23:59:32			0	22664	0	0	0	25205	23860	234374	26693	968210	35199	109319	0	0	6647	1503243	0	0
2024-04-09 00:00:32			0	22658	0	0	0	25186	23850	234142	26713	968132	35208	109312	0	0	6643	1503928	0	0
2024-04-09 00:01:32			0	22674	0	0	0	25163	23820	234146	26963	968011	35207	109303	0	0	6652	1502581	0	0
2024-04-09 00:02:32			0	22662	0	0	0	25148	23810	234338	26741	967933	35216	109297	0	0	6644	1503867	0	0
2024-04-09 00:03:32			0	22674	0	0	0	25124	23790	234350	26826	967900	35203	109288	0	0	6651	1502835	0	0
2024-04-09 00:04:32			0	22682	0	0	0	25114	23770	234254	26578	967769	35191	109284	0	0	6655	1502203	0	0
2024-04-09 00:05:32			0	22681	0	0	0	25083	23740	234254	26752	967640	35200	109272	0	0	6654	1502557	0	0
2024-04-09 00:06:32			0	22683	0	0	0	25067	23720	234158	26811	967668	35187	109266	0	0	6654	1502526	0	0
2024-04-09 00:07:32			0	22684	0	0	0	25049	23690	234334	27202	967513	35185	109259	0	0	6654	1502680	0	0
2024-04-09 00:08:32			0	22693	0	0	0	25020	23690	234318	27105	967398	35185	109248	0	0	6660	1501780	0	0
2024-04-09 00:09:32			0	22688	0	0	0	25007	23660	234242	26828	967348	35193	109243	0	0	6656	1502534	0	0
2024-04-09 00:10:32			0	22709	0	0	0	24986	23650	234138	27114	967305	35192	109235	0	0	6668	1500519	0	0
2024-04-09 00:11:32			0	22704	0	0	0	24955	23620	234118	26783	967230	35179	109223	0	0	6664	1501272	0	0
2024-04-09 00:12:32			0	22697	0	0	0	24937	23600	234126	27241	967117	35177	109216	0	0	6660	1502141	0	0
2024-04-09 00:13:32			0	22694	0	0	0	24927	23590	234230	27301	967074	35188	109212	0	0	6658	1502525	0	0
2024-04-09 00:14:32			0	22708	0	0	0	24903	23560	234146	26866	966979	35186	109203	0	0	6665	1501379	0	0
2024-04-09 00:15:32			0	22705	0	0	0	24877	23550	234114	26741	966848	35173	109193	0	0	6663	1501763	0	0
2024-04-09 00:16:32			0	22709	0	0	0	24859	23520	234186	26906	966799	35170	109186	0	0	6665	1501617	0	0
2024-04-09 00:17:32			0	22709	0	0	0	24836	23500	234062	27104	966713	35147	109177	0	0	6664	1501786	0	0
2024-04-09 00:18:32			0	22720	0	0	0	24823	23490	234110	26920	966643	35179	109172	0	0	6671	1500771	0	0
2024-04-09 00:19:32			0	22719	0	0	0	24792	23460	234022	26871	966514	35144	109160	0	0	6669	1501124	0	0
2024-04-09 00:20:32			0	22727	0	0	0	24776	23440	234162	26925	966444	35166	109154	0	0	6673	1500494	0	0
2024-04-09 00:21:32			0	22729	0	0	0	24766	23420	234210	27177	966331	35165	109150	0	0	6674	1500463	0	0
2024-04-09 00:22:32			0	22724	0	0	0	24740	23380	234138	26965	966239	35149	109140	0	0	6669	1501300	0	0
2024-04-09 00:23:32			0	22716	0	0	0	24716	23380	234098	26814	966204	35138	109131	0	0	6665	1502099	0	0
2024-04-09 00:24:32			0	22738	0	0	0	24698	23350	234130	27022	966083	35158	109124	0	0	6677	1500155	0	0
2024-04-09 00:25:32			0	22739	0	0	0	24683	23340	234182	27190	966032	35146	109118	0	0	6678	1500140	0	0
2024-04-09 00:26:32			0	22737	0	0	0	24657	23320	233934	27232	965893	35133	109108	0	0	6676	1500508	0	0
2024-04-09 00:27:32			0	22742	0	0	0	24641	23290	234118	27500	965852	35154	109102	0	0	6678	1500262	0	0
2024-04-09 00:28:32			0	22750	0	0	0	24618	23280	234046	26911	965747	35152	109093	0	0	6683	1499548	0	0
2024-04-09 00:29:32			0	22749	0	0	0	24594	23260	234106	27189	965723	35140	109084	0	0	6682	1499816	0	0
2024-04-09 00:30:32			0	22752	0	0	0	24576	23240	234006	26691	965575	35127	109077	0	0	6683	1499685	0	0
2024-04-09 00:31:32			0	22750	0	0	0	24555	23220	234114	27275	965516	35125	109069	0	0	6681	1500053	0	0
2024-04-09 00:32:32			0	22758	0	0	0	24540	23200	233966	27280	965456	35125	109063	0	0	6685	1499424	0	0
2024-04-09 00:33:32			0	22766	0	0	0	24516	23180	234098	27277	965344	35112	109054	0	0	6689	1498795	0	0
2024-04-09 00:34:32			0	22770	0	0	0	24488	23160	234062	27156	965266	35132	109043	0	0	6691	1498564	0	0
2024-04-09 00:35:32			0	22771	0	0	0	24475	23130	233898	27215	965172	35108	109038	0	0	6691	1498717	0	0
2024-04-09 00:36:32			0	22776	0	0	0	24462	23100	234026	27199	965043	35117	109033	0	0	6692	1498471	0	0
2024-04-09 00:37:32			0	22778	0	0	0	24436	23090	233874	26925	965026	35105	109023	0	0	6694	1498356	0	0
2024-04-09 00:38:32			0	22784	0	0	0	24412	23060	234022	27017	964924	35102	109014	0	0	6696	1498010	0	0
2024-04-09 00:39:32			0	22780	0	0	0	24397	23060	233970	27239	964862	35113	109008	0	0	6694	1498409	0	0
2024-04-09 00:40:32			0	22791	0	0	0	24374	23040	233818	27360	964776	35089	108999	0	0	6700	1497481	0	0
2024-04-09 00:41:32			0	22791	0	0	0	24355	23010	233978	27102	964701	35098	108992	0	0	6699	1497733	0	0
2024-04-09 00:42:32			0	22783	0	0	0	24335	22990	233926	27041	964623	35096	108984	0	0	6694	1498698	0	0
2024-04-09 00:43:32			0	22799	0	0	0	24311	22980	233962	26648	964473	35096	108975	0	0	6703	1497189	0	0
2024-04-09 00:44:32			0	22794	0	0	0	24288	22950	233850	27010	964478	35093	108966	0	0	6700	1497939	0	0
2024-04-09 00:45:32			0	22800	0	0	0	24270	22940	233782	26942	964373	35081	108959	0	0	6703	1497426	0	0
2024-04-09 00:46:32			0	22804	0	0	0	24257	22910	233718	27154	964271	35090	108954	0	0	6704	1497279	0	0
2024-04-09 00:47:32			0	22796	0	0	0	24238	22890	233802	26648	964219	35078	108947	0	0	6699	1498243	0	0
2024-04-09 00:48:32			0	22816	0	0	0	24220	22880	233894	27053	964168	35087	108940	0	0	6710	1496338	0	0
2024-04-09 00:49:32			0	22813	0	0	0	24186	22850	233798	26968	964003	35086	108927	0	0	6708	1496888	0	0
2024-04-09 00:50:32			0	22826	0	0	0	24173	22830	233718	27000	963935	35073	108922	0	0	6714	1495763	0	0
2024-04-09 00:51:32			0	22821	0	0	0	24161	22810	233730	26896	963857	35072	108917	0	0	6711	1496428	0	0
2024-04-09 00:52:32			0	22828	0	0	0	24140	22790	233758	26871	963763	35070	108909	0	0	6714	1495899	0	0
2024-04-09 00:53:32			0	22831	0	0	0	24119	22770	233562	27020	963650	35046	108901	0	0	6716	1495769	0	0
2024-04-09 00:54:32			0	22831	0	0	0	24096	22740	233790	27192	963609	35066	108892	0	0	6715	1496020	0	0
2024-04-09 00:55:32			0	22833	0	0	0	24077	22720	233706	27234	963497	35053	108885	0	0	6715	1495989	0	0
2024-04-09 00:56:32			0	22845	0	0	0	24057	22710	233838	27301	963472	35053	108877	0	0	6722	1494881	0	0
2024-04-09 00:57:32			0	22832	0	0	0	24038	22690	233742	27206	963413	35062	108870	0	0	6714	1496339	0	0
2024-04-09 00:58:32			0	22851	0	0	0	24012	22670	233666	27150	963300	35049	108860	0	0	6724	1494620	0	0
2024-04-09 00:59:32			0	22845	0	0	0	23992	22650	233782	27121	963196	35070	108852	0	0	6721	1495383	0	0
2024-04-09 01:00:32			0	22855	0	0	0	23981	22630	233782	27218	963163	35057	108848	0	0	6725	1494558	0	0
2024-04-09 01:01:32			0	22850	0	0	0	23958	22620	233718	27001	963112	35045	108839	0	0	6723	1495138	0	0
2024-04-09 01:02:32			0	22850	0	0	0	23942	22590	233686	26939	963045	35054	108833	0	0	6722	1495389	0	0
2024-04-09 01:03:32			0	22865	0	0	0	23914	22580	233750	27020	962949	35042	108822	0	0	6730	1493984	0	0
2024-04-09 01:04:32			0	22864	0	0	0	23901	22560	233950	27064	962924	35041	108817	0	0	6729	1494250	0	0
2024-04-09 01:05:32			0	22858	0	0	0	23885	22530	233778	27078	962768	35049	108811	0	0	6725	1495096	0	0
2024-04-09 01:06:32			0	22869	0	0	0	23851	22520	233598	27076	962752	35038	108798	0	0	6731	1494089	0	0
2024-04-09 01:07:32			0	22879	0	0	0	23841	22510	233570	27081	962648	35048	108794	0	0	6736	1493181	0	0
2024-04-09 01:08:32			0	22865	0	0	0	23825	22480	233610	26890	962546	35035	108788	0	0	6728	1494819	0	0
2024-04-09 01:09:32			0	22876	0	0	0	23799	22470	233486	27116	962476	35034	108778	0	0	6734	1493812	0	0
2024-04-09 01:10:32			0	22870	0	0	0	23786	22440	233422	27019	962427	35020	108773	0	0	6729	1494657	0	0
2024-04-09 01:11:32			0	22893	0	0	0	23768	22410	233426	26915	962280	35018	108766	0	0	6741	1492629	0	0
2024-04-09 01:12:32			0	22896	0	0	0	23740	22390	233534	27197	962220	35005	108755	0	0	6742	1492498	0	0
2024-04-09 01:13:32			0	22896	0	0	0	23724	22380	233506	27237	962151	35016	108749	0	0	6742	1492581	0	0
2024-04-09 01:14:32			0	22896	0	0	0	23706	22360	233394	27069	962118	35014	108742	0	0	6742	1492748	0	0
2024-04-09 01:15:32			0	22896	0	0	0	23685	22350	233450	26963	962022	35002	108734	0	0	6742	1492832	0	0
2024-04-09 01:16:32			0	22901	0	0	0	23680	22320	233430	27033	961946	35000	108732	0	0	6743	1492587	0	0
2024-04-09 01:17:32			0	22913	0	0	0	23651	22310	233498	27138	961850	35009	108721	0	0	6749	1491482	0	0
2024-04-09 01:18:32			0	22913	0	0	0	23628	22280	233482	27222	961756	35008	108712	0	0	6749	1491732	0	0
2024-04-09 01:19:32			0	22912	0	0	0	23615	22270	233254	27079	961740	34986	108707	0	0	6748	1491915	0	0
2024-04-09 01:20:32			0	22910	0	0	0	23594	22250	233310	27010	961628	35006	108699	0	0	6747	1492279	0	0
2024-04-09 01:21:32			0	22927	0	0	0	23568	22240	233398	26694	961576	34994	108689	0	0	6756	1490681	0	0
2024-04-09 01:22:32			0	22925	0	0	0	23553	22210	233286	26840	961456	34992	108683	0	0	6754	1491128	0	0
2024-04-09 01:23:32			0	22928	0	0	0	23542	22190	233378	26949	961468	35000	108679	0	0	6755	1490998	0	0
2024-04-09 01:24:32			0	22936	0	0	0	23514	22180	233406	27114	961372	34989	108668	0	0	6759	1490291	0	0
2024-04-09 01:25:32			0	22935	0	0	0	23498	22160	233246	27118	961321	34988	108662	0	0	6758	1490556	0	0
2024-04-09 01:26:32			0	22947	0	0	0	23472	22140	233190	26759	961227	34997	108652	0	0	6764	1489537	0	0
2024-04-09 01:27:32			0	22940	0	0	0	23454	22120	233230	26785	961176	34985	108645	0	0	6760	1490394	0	0
2024-04-09 01:28:32			0	22950	0	0	0	23446	22110	233378	27019	961080	34972	108642	0	0	6765	1489490	0	0
2024-04-09 01:29:32			0	22964	0	0	0	23423	22080	233226	27069	961031	34993	108633	0	0	6771	1488358	0	0
2024-04-09 01:30:32			0	22942	0	0	0	23402	22060	233102	26720	960937	34979	108625	0	0	6759	1490696	0	0
2024-04-09 01:31:32			0	22957	0	0	0	23381	22040	233154	27086	960851	34978	108617	0	0	6767	1489380	0	0
2024-04-09 01:32:32			0	22959	0	0	0	23353	22030	233170	26556	960789	34966	108606	0	0	6768	1489266	0	0
2024-04-09 01:33:32			0	22960	0	0	0	23348	22010	233078	27095	960730	34964	108604	0	0	6768	1489333	0	0
2024-04-09 01:34:32			0	22963	0	0	0	23327	21990	233118	27119	960626	34953	108596	0	0	6769	1489204	0	0
2024-04-09 01:35:32			0	22974	0	0	0	23311	21970	233014	27135	960559	34961	108590	0	0	6774	1488284	0	0
2024-04-09 01:36:32			0	22968	0	0	0	23283	21950	232998	26918	960526	34960	108579	0	0	6770	1489042	0	0
2024-04-09 01:37:32			0	22973	0	0	0	23272	21940	233146	27078	960430	34948	108575	0	0	6773	1488632	0	0
2024-04-09 01:38:32			0	22982	0	0	0	23251	21920	233146	26689	960317	34946	108567	0	0	6777	1487910	0	0
2024-04-09 01:39:32			0	22976	0	0	0	23231	21900	233122	27161	960312	34956	108559	0	0	6774	1488668	0	0
2024-04-09 01:40:32			0	23000	0	0	0	23223	21890	232954	26906	960295	34944	108556	0	0	6785	1486386	0	0
2024-04-09 01:41:32			0	22985	0	0	0	23202	21870	233022	26958	960103	34943	108548	0	0	6777	1488029	0	0
2024-04-09 01:42:32			0	22992	0	0	0	23174	21840	233086	26894	960089	34940	108537	0	0	6780	1487588	0	0
2024-04-09 01:43:32			0	23000	0	0	0	23158	21820	233102	26878	959995	34939	108531	0	0	6784	1486966	0	0
2024-04-09 01:44:32			0	23008	0	0	0	23135	21810	232906	26752	959907	34927	108522	0	0	6788	1486261	0	0
2024-04-09 01:45:32			0	23010	0	0	0	23122	21790	233078	26844	959893	34936	108517	0	0	6788	1486229	0	0
2024-04-09 01:46:32			0	23023	0	0	0	23106	21770	232934	26705	959762	34946	108511	0	0	6794	1485116	0	0
2024-04-09 01:47:32			0	23016	0	0	0	23083	21750	232926	26906	959730	34945	108502	0	0	6790	1485970	0	0
2024-04-09 01:48:32			0	23009	0	0	0	23064	21730	232958	27137	959662	34920	108495	0	0	6787	1486824	0	0
2024-04-09 01:49:32			0	23022	0	0	0	23049	21720	232922	26817	959521	34931	108489	0	0	6793	1485628	0	0
2024-04-09 01:50:32			0	23031	0	0	0	23031	21690	232974	27156	959507	34929	108482	0	0	6796	1484991	0	0
2024-04-09 01:51:32			0	23018	0	0	0	23002	21680	232874	26991	959456	34906	108471	0	0	6790	1486352	0	0
2024-04-09 01:52:32			0	23025	0	0	0	22992	21650	232886	26968	959381	34915	108467	0	0	6793	1485911	0	0
2024-04-09 01:53:32			0	23028	0	0	0	22971	21630	232938	27067	959303	34924	108459	0	0	6794	1485782	0	0
2024-04-09 01:54:32			0	23039	0	0	0	22950	21620	232858	26852	959252	34912	108451	0	0	6799	1484783	0	0
2024-04-09 01:55:32			0	23026	0	0	0	22927	21600	232846	27161	959113	34899	108442	0	0	6793	1486227	0	0
2024-04-09 01:56:32			0	23055	0	0	0	22916	21580	232766	26722	959062	34909	108438	0	0	6806	1483542	0	0
2024-04-09 01:57:32			0	23049	0	0	0	22903	21560	232674	27098	959021	34896	108433	0	0	6803	1484296	0	0
2024-04-09 01:58:32			0	23052	0	0	0	22880	21540	232870	27164	958944	34884	108424	0	0	6804	1484166	0	0
2024-04-09 01:59:32			0	23065	0	0	0	22862	21530	232762	26986	958840	34894	108417	0	0	6810	1482973	0	0
2024-04-09 02:00:32			0	23055	0	0	0	22841	21500	232726	27312	958799	34903	108409	0	0	6804	1484202	0	0
2024-04-09 02:01:32			0	23073	0	0	0	22823	21490	232710	27078	958775	34891	108402	0	0	6813	1482518	0	0
2024-04-09 02:02:32			0	23062	0	0	0	22805	21460	232762	26849	958601	34900	108395	0	0	6807	1483844	0	0
2024-04-09 02:03:32			0	23068	0	0	0	22779	21450	232618	26949	958630	34887	108385	0	0	6810	1483338	0	0
2024-04-09 02:04:32			0	23081	0	0	0	22755	21440	232658	26703	958595	34887	108376	0	0	6816	1482145	0	0
2024-04-09 02:05:32			0	23077	0	0	0	22735	21400	232606	26835	958405	34873	108368	0	0	6813	1482867	0	0
2024-04-09 02:06:32			0	23082	0	0	0	22722	21390	232546	26991	958415	34883	108363	0	0	6815	1482459	0	0
2024-04-09 02:07:32			0	23072	0	0	0	22711	21370	232606	26793	958269	34881	108359	0	0	6810	1483605	0	0
2024-04-09 02:08:32			0	23104	0	0	0	22680	21350	232610	26866	958191	34858	108347	0	0	6825	1480633	0	0
2024-04-09 02:09:32			0	23077	0	0	0	22670	21340	232602	26809	958167	34878	108343	0	0	6812	1483361	0	0
2024-04-09 02:10:32			0	23090	0	0	0	22651	21310	232650	27015	958099	34866	108336	0	0	6818	1482334	0	0
2024-04-09 02:11:32			0	23097	0	0	0	22631	21300	232494	27020	957969	34875	108328	0	0	6821	1481730	0	0
2024-04-09 02:12:32			0	23105	0	0	0	22615	21290	232562	26654	957899	34853	108322	0	0	6825	1481028	0	0
2024-04-09 02:13:32			0	23105	0	0	0	22597	21270	232638	26694	957893	34863	108315	0	0	6824	1481193	0	0
2024-04-09 02:14:32			0	23113	0	0	0	22571	21250	232474	26968	957834	34850	108305	0	0	6828	1480574	0	0
2024-04-09 02:15:32			0	23111	0	0	0	22561	21240	232430	27001	957764	34860	108301	0	0	6827	1480852	0	0
2024-04-09 02:16:32			0	23119	0	0	0	22537	21210	232402	27116	957609	34857	108292	0	0	6830	1480316	0	0
2024-04-09 02:17:32			0	23119	0	0	0	22511	21180	232530	26767	957542	34856	108282	0	0	6829	1480562	0	0
2024-04-09 02:18:32			0	23133	0	0	0	22498	21180	232430	26682	957462	34856	108277	0	0	6836	1479193	0	0
2024-04-09 02:19:32			0	23134	0	0	0	22490	21160	232438	26821	957403	34854	108274	0	0	6836	1479259	0	0
2024-04-09 02:20:32			0	23131	0	0	0	22462	21140	232342	26628	957336	34831	108263	0	0	6834	1479717	0	0
2024-04-09 02:21:32			0	23135	0	0	0	22449	21110	232318	26970	957296	34828	108258	0	0	6835	1479572	0	0
2024-04-09 02:22:32			0	23136	0	0	0	22428	21090	232262	26701	957210	34837	108250	0	0	6835	1479638	0	0
2024-04-09 02:23:32			0	23143	0	0	0	22410	21070	232454	27161	957106	34826	108243	0	0	6838	1479118	0	0
2024-04-09 02:24:32			0	23155	0	0	0	22389	21050	232414	27033	957012	34845	108235	0	0	6843	1478109	0	0
2024-04-09 02:25:32			0	23149	0	0	0	22376	21040	232218	26802	956951	34823	108230	0	0	6840	1478778	0	0
2024-04-09 02:26:32			0	23156	0	0	0	22353	21020	232338	26904	956937	34809	108221	0	0	6843	1478258	0	0
2024-04-09 02:27:32			0	23149	0	0	0	22335	21000	232386	27140	956798	34819	108214	0	0	6840	1479106	0	0
2024-04-09 02:28:32			0	23157	0	0	0	22319	20990	232298	27145	956782	34830	108208	0	0	6843	1478406	0	0
2024-04-09 02:29:32			0	23158	0	0	0	22296	20970	232246	26826	956723	34818	108199	0	0	6843	1478472	0	0
2024-04-09 02:30:32			0	23172	0	0	0	22277	20950	232206	26892	956645	34827	108192	0	0	6849	1477269	0	0
2024-04-09 02:31:32			0	23170	0	0	0	22257	20930	232250	26885	956578	34802	108184	0	0	6848	1477628	0	0
2024-04-09 02:32:32			0	23176	0	0	0	22244	20920	232006	26736	956509	34813	108179	0	0	6851	1477125	0	0
2024-04-09 02:33:32			0	23183	0	0	0	22228	20900	232062	27041	956423	34800	108173	0	0	6853	1476606	0	0
2024-04-09 02:34:32			0	23186	0	0	0	22207	20880	232130	26734	956399	34799	108165	0	0	6854	1476477	0	0
2024-04-09 02:35:32			0	23188	0	0	0	22184	20870	232130	26937	956321	34808	108156	0	0	6855	1476364	0	0
2024-04-09 02:36:32			0	23201	0	0	0	22166	20840	232122	26906	956193	34807	108149	0	0	6860	1475342	0	0
2024-04-09 02:37:32			0	23189	0	0	0	22148	20820	232162	26788	956150	34794	108142	0	0	6855	1476675	0	0
2024-04-09 02:38:32			0	23197	0	0	0	22137	20800	232162	27140	956109	34803	108138	0	0	6858	1476059	0	0
2024-04-09 02:39:32			0	23207	0	0	0	22119	20780	232126	26837	955997	34791	108131	0	0	6862	1475248	0	0
2024-04-09 02:40:32			0	23204	0	0	0	22090	20760	232022	26850	956000	34779	108120	0	0	6860	1475703	0	0
2024-04-09 02:41:32			0	23202	0	0	0	22075	20740	231958	26882	955879	34788	108114	0	0	6859	1476062	0	0
2024-04-09 02:42:32			0	23215	0	0	0	22059	20730	231958	26953	955837	34787	108108	0	0	6865	1474877	0	0
2024-04-09 02:43:32			0	23222	0	0	0	22041	20720	232070	26805	955794	34776	108101	0	0	6868	1474278	0	0
2024-04-09 02:44:32			0	23220	0	0	0	22015	20690	231966	27069	955692	34784	108091	0	0	6866	1474717	0	0
2024-04-09 02:45:32			0	23223	0	0	0	21997	20670	231950	27090	955614	34783	108084	0	0	6867	1474588	0	0
2024-04-09 02:46:32			0	23227	0	0	0	21984	20660	231894	26715	955537	34782	108079	0	0	6869	1474281	0	0
2024-04-09 02:47:32			0	23234	0	0	0	21971	20640	231954	26653	955433	34769	108074	0	0	6872	1473763	0	0
2024-04-09 02:48:32			0	23236	0	0	0	21953	20620	231910	26706	955393	34767	108067	0	0	6872	1473731	0	0
2024-04-09 02:49:32			0	23236	0	0	0	21922	20600	231822	26592	955262	34766	108055	0	0	6872	1473895	0	0
2024-04-09 02:50:32			0	23248	0	0	0	21914	20580	231886	26894	955309	34765	108052	0	0	6877	1472891	0	0
2024-04-09 02:51:32			0	23240	0	0	0	21896	20560	231778	26889	955144	34752	108045	0	0	6873	1473832	0	0
2024-04-09 02:52:32			0	23256	0	0	0	21877	20540	231782	26868	955111	34751	108038	0	0	6879	1472440	0	0
2024-04-09 02:53:32			0	23255	0	0	0	21854	20520	231870	26726	955114	34750	108029	0	0	6879	1472700	0	0
2024-04-09 02:54:32			0	23260	0	0	0	21833	20500	231750	26639	955002	34748	108021	0	0	6881	1472377	0	0
2024-04-09 02:55:32			0	23267	0	0	0	21818	20490	231830	27029	954932	34748	108015	0	0	6883	1471779	0	0
2024-04-09 02:56:32			0	23263	0	0	0	21797	20460	231778	26942	954884	34733	108007	0	0	6881	1472411	0	0
2024-04-09 02:57:32			0	23270	0	0	0	21774	20440	231654	26701	954763	34731	107998	0	0	6884	1471894	0	0
2024-04-09 02:58:32			0	23267	0	0	0	21761	20420	231786	26977	954686	34742	107993	0	0	6882	1472348	0	0
2024-04-09 02:59:32			0	23284	0	0	0	21740	20410	231782	27145	954723	34730	107985	0	0	6889	1470780	0	0
2024-04-09 03:00:32			0	23281	0	0	0	21735	20400	231558	27057	954619	34739	107983	0	0	6888	1471152	0	0
2024-04-09 03:01:32			0	23293	0	0	0	21709	20380	231682	26649	954541	34716	107973	0	0	6893	1470151	0	0
2024-04-09 03:02:32			0	23298	0	0	0	21685	20360	231762	26811	954501	34725	107964	0	0	6895	1469829	0	0
2024-04-09 03:03:32			0	23298	0	0	0	21672	20330	231770	27072	954434	34734	107959	0	0	6894	1470072	0	0
2024-04-09 03:04:32			0	23290	0	0	0	21654	20320	231574	27050	954338	34723	107952	0	0	6891	1470929	0	0
2024-04-09 03:05:32			0	23296	0	0	0	21631	20310	231526	26906	954313	34709	107943	0	0	6893	1470429	0	0
2024-04-09 03:06:32			0	23297	0	0	0	21618	20280	231510	27098	954167	34730	107938	0	0	6893	1470575	0	0
2024-04-09 03:07:32			0	23306	0	0	0	21597	20260	231558	26960	954108	34717	107930	0	0	6896	1469866	0	0
2024-04-09 03:08:32			0	23316	0	0	0	21581	20230	231618	27012	954014	34705	107924	0	0	6900	1469140	0	0
2024-04-09 03:09:32			0	23319	0	0	0	21553	20220	231574	26960	953964	34714	107913	0	0	6901	1468931	0	0
2024-04-09 03:10:32			0	23317	0	0	0	21545	20210	231566	26797	953868	34703	107910	0	0	6900	1469206	0	0
2024-04-09 03:11:32			0	23325	0	0	0	21522	20190	231486	27246	953809	34702	107901	0	0	6903	1468593	0	0
2024-04-09 03:12:32			0	23332	0	0	0	21506	20180	231526	26993	953766	34711	107895	0	0	6906	1467997	0	0
2024-04-09 03:13:32			0	23328	0	0	0	21483	20150	231654	26876	953664	34698	107886	0	0	6904	1468627	0	0
2024-04-09 03:14:32			0	23338	0	0	0	21464	20120	231510	27057	953624	34685	107879	0	0	6907	1467903	0	0
2024-04-09 03:15:32			0	23331	0	0	0	21449	20110	231370	26838	953581	34695	107873	0	0	6904	1468661	0	0
2024-04-09 03:16:32			0	23344	0	0	0	21428	20090	231362	26928	953443	34682	107865	0	0	6910	1467566	0	0
2024-04-09 03:17:32			0	23345	0	0	0	21412	20080	231570	26736	953445	34693	107859	0	0	6910	1467550	0	0
2024-04-09 03:18:32			0	23350	0	0	0	21389	20060	231466	27064	953359	34679	107850	0	0	6912	1467229	0	0
2024-04-09 03:19:32			0	23347	0	0	0	21376	20040	231434	27079	953247	34678	107845	0	0	6910	1467680	0	0
2024-04-09 03:20:32			0	23349	0	0	0	21355	20020	231326	26979	953189	34687	107837	0	0	6911	1467649	0	0
2024-04-09 03:21:32			0	23366	0	0	0	21332	20000	231294	26935	953138	34665	107828	0	0	6917	1466168	0	0
2024-04-09 03:22:32			0	23362	0	0	0	21316	20000	231510	26974	953111	34675	107822	0	0	6916	1466554	0	0
2024-04-09 03:23:32			0	23371	0	0	0	21306	19960	231362	27229	952967	34650	107818	0	0	6918	1466009	0	0
2024-04-09 03:24:32			0	23357	0	0	0	21280	19940	231322	26724	952942	34661	107808	0	0	6913	1467523	0	0
2024-04-09 03:25:32			0	23378	0	0	0	21267	19940	231342	26844	952881	34681	107803	0	0	6921	1465495	0	0
2024-04-09 03:26:32			0	23379	0	0	0	21244	19920	231322	26927	952849	34658	107794	0	0	6922	1465560	0	0
2024-04-09 03:27:32			0	23376	0	0	0	21215	19900	231358	26916	952764	34667	107783	0	0	6920	1466011	0	0
2024-04-09 03:28:32			0	23374	0	0	0	21212	19880	231238	26942	952705	34655	107782	0	0	6919	1466366	0	0
2024-04-09 03:29:32			0	23376	0	0	0	21187	19860	231234	26802	952593	34664	107772	0	0	6920	1466334	0	0
2024-04-09 03:30:32			0	23389	0	0	0	21168	19840	231226	26991	952542	34652	107765	0	0	6925	1465241	0	0
2024-04-09 03:31:32			0	23392	0	0	0	21140	19820	231314	26852	952475	34639	107754	0	0	6926	1465113	0	0
2024-04-09 03:32:32			0	23393	0	0	0	21129	19800	231278	26635	952424	34649	107750	0	0	6926	1465178	0	0
2024-04-09 03:33:32			0	23402	0	0	0	21109	19770	231330	27124	952349	34646	107742	0	0	6929	1464552	0	0
2024-04-09 03:34:32			0	23413	0	0	0	21090	19760	231242	26531	952280	34625	107735	0	0	6933	1463573	0	0
2024-04-09 03:35:32			0	23421	0	0	0	21080	19740	231170	26764	952142	34633	107731	0	0	6936	1462964	0	0
2024-04-09 03:36:32			0	23422	0	0	0	21054	19720	231170	26906	952180	34621	107721	0	0	6936	1463028	0	0
2024-04-09 03:37:32			0	23408	0	0	0	21033	19710	231118	26764	952111	34641	107713	0	0	6931	1464458	0	0
2024-04-09 03:38:32			0	23420	0	0	0	21018	19700	231194	27183	952016	34619	107707	0	0	6935	1463382	0	0
2024-04-09 03:39:32			0	23427	0	0	0	21002	19680	231090	26902	951983	34639	107701	0	0	6938	1462869	0	0
2024-04-09 03:40:32			0	23431	0	0	0	20981	19640	231134	26635	951829	34604	107693	0	0	6938	1462806	0	0
2024-04-09 03:41:32			0	23439	0	0	0	20966	19640	231178	26916	951847	34636	107687	0	0	6942	1462037	0	0
2024-04-09 03:42:32			0	23442	0	0	0	20942	19600	231022	27001	951764	34633	107678	0	0	6942	1462070	0	0
2024-04-09 03:43:32			0	23442	0	0	0	20932	19590	231014	26880	951687	34610	107674	0	0	6942	1462150	0	0
2024-04-09 03:44:32			0	23440	0	0	0	20901	19580	230994	26955	951644	34621	107662	0	0	6941	1462423	0	0
2024-04-09 03:45:32			0	23436	0	0	0	20896	19560	231050	26700	951559	34608	107660	0	0	6939	1462969	0	0
2024-04-09 03:46:32			0	23458	0	0	0	20877	19530	231082	26557	951465	34617	107653	0	0	6947	1461095	0	0
2024-04-09 03:47:32			0	23463	0	0	0	20854	19520	231050	26746	951422	34605	107644	0	0	6949	1460695	0	0
2024-04-09 03:48:32			0	23461	0	0	0	20836	19500	231038	27209	951303	34604	107637	0	0	6948	1461047	0	0
2024-04-09 03:49:32			0	23462	0	0	0	20812	19480	230938	27029	951217	34590	107628	0	0	6948	1461112	0	0
2024-04-09 03:50:32			0	23467	0	0	0	20797	19460	230954	27043	951246	34589	107622	0	0	6950	1460792	0	0
2024-04-09 03:51:32			0	23467	0	0	0	20774	19450	230922	26646	951115	34599	107613	0	0	6950	1460873	0	0
2024-04-09 03:52:32			0	23481	0	0	0	20755	19420	230738	26736	951067	34585	107606	0	0	6955	1459769	0	0
2024-04-09 03:53:32			0	23485	0	0	0	20742	19400	230778	27190	951043	34585	107601	0	0	6956	1459546	0	0
2024-04-09 03:54:32			0	23482	0	0	0	20724	19390	230734	26956	951019	34573	107594	0	0	6955	1459914	0	0
2024-04-09 03:55:32			0	23481	0	0	0	20703	19370	230790	27164	950862	34583	107586	0	0	6954	1460170	0	0
2024-04-09 03:56:32			0	23490	0	0	0	20677	19350	230894	27092	950777	34581	107576	0	0	6958	1459467	0	0
2024-04-09 03:57:32			0	23500	0	0	0	20664	19330	230810	27007	950744	34580	107571	0	0	6961	1458668	0	0
2024-04-09 03:58:32			0	23502	0	0	0	20641	19310	230826	27039	950693	34568	107562	0	0	6962	1458637	0	0
2024-04-09 03:59:32			0	23512	0	0	0	20631	19290	230826	26908	950653	34577	107558	0	0	6965	1457839	0	0
2024-04-09 04:00:32			0	23510	0	0	0	20597	19270	230822	26984	950576	34564	107545	0	0	6964	1458190	0	0
2024-04-09 04:01:32			0	23507	0	0	0	20586	19260	230746	27194	950499	34574	107541	0	0	6963	1458558	0	0
2024-04-09 04:02:32			0	23522	0	0	0	20566	19240	230658	26923	950448	34573	107533	0	0	6968	1457281	0	0
2024-04-09 04:03:32			0	23527	0	0	0	20555	19220	230834	27007	950381	34559	107529	0	0	6970	1456962	0	0
2024-04-09 04:04:32			0	23528	0	0	0	20532	19200	230678	27034	950296	34558	107520	0	0	6970	1457027	0	0
2024-04-09 04:05:32			0	23523	0	0	0	20516	19190	230738	26918	950174	34546	107514	0	0	6968	1457585	0	0
2024-04-09 04:06:32			0	23537	0	0	0	20488	19150	230550	27066	950091	34533	107503	0	0	6973	1456565	0	0
2024-04-09 04:07:32			0	23542	0	0	0	20475	19140	230662	26802	950101	34532	107498	0	0	6975	1456167	0	0
2024-04-09 04:08:32			0	23551	0	0	0	20454	19120	230710	26755	950042	34541	107490	0	0	6978	1455466	0	0
2024-04-09 04:09:32			0	23546	0	0	0	20436	19110	230638	26701	949973	34530	107483	0	0	6976	1456024	0	0
2024-04-09 04:10:32			0	23552	0	0	0	20415	19080	230626	26672	949845	34548	107475	0	0	6978	1455690	0	0
2024-04-09 04:11:32			0	23544	0	0	0	20402	19070	230658	26774	949829	34538	107470	0	0	6975	1456535	0	0
2024-04-09 04:12:32			0	23562	0	0	0	20379	19040	230666	26677	949736	34535	107461	0	0	6981	1455053	0	0
2024-04-09 04:13:32			0	23566	0	0	0	20361	19020	230630	26622	949650	34534	107454	0	0	6982	1454831	0	0
2024-04-09 04:14:32			0	23568	0	0	0	20337	19000	230495	26844	949610	34532	107445	0	0	6983	1454799	0	0
2024-04-09 04:15:32			0	23570	0	0	0	20322	18980	230563	26984	949498	34519	107439	0	0	6983	1454768	0	0
2024-04-09 04:16:32			0	23575	0	0	0	20296	18960	230535	26916	949474	34529	107429	0	0	6985	1454450	0	0
2024-04-09 04:17:32			0	23575	0	0	0	20285	18950	230599	26509	949431	34517	107425	0	0	6985	1454529	0	0
2024-04-09 04:18:32			0	23584	0	0	0	20267	18940	230451	27020	949328	34516	107418	0	0	6988	1453750	0	0
2024-04-09 04:19:32			0	23588	0	0	0	20241	18910	230491	26687	949261	34525	107408	0	0	6989	1453607	0	0
2024-04-09 04:20:32			0	23581	0	0	0	20225	18900	230499	27027	949184	34501	107402	0	0	6986	1454355	0	0
2024-04-09 04:21:32			0	23595	0	0	0	20210	18880	230315	26847	949204	34522	107396	0	0	6991	1453179	0	0
2024-04-09 04:22:32			0	23595	0	0	0	20194	18850	230291	26991	949103	34508	107390	0	0	6991	1453417	0	0
2024-04-09 04:23:32			0	23606	0	0	0	20166	18830	230399	26944	949044	34497	107379	0	0	6994	1452528	0	0
2024-04-09 04:24:32			0	23600	0	0	0	20148	18810	230407	27102	948985	34505	107372	0	0	6992	1453259	0	0
2024-04-09 04:25:32			0	23608	0	0	0	20140	18790	230255	26880	948882	34494	107369	0	0	6995	1452655	0	0
2024-04-09 04:26:32			0	23614	0	0	0	20109	18770	230419	27145	948831	34482	107357	0	0	6997	1452242	0	0
2024-04-09 04:27:32			0	23617	0	0	0	20096	18760	230311	27015	948780	34480	107352	0	0	6998	1452036	0	0
2024-04-09 04:28:32			0	23629	0	0	0	20077	18740	230435	27175	948748	34490	107345	0	0	7002	1451052	0	0
2024-04-09 04:29:32			0	23628	0	0	0	20059	18720	230219	26779	948724	34488	107338	0	0	7001	1451306	0	0
2024-04-09 04:30:32			0	23624	0	0	0	20044	18700	230155	26847	948631	34464	107332	0	0	6999	1451846	0	0
2024-04-09 04:31:32			0	23636	0	0	0	20018	18690	230247	26986	948535	34475	107322	0	0	7004	1450783	0	0
2024-04-09 04:32:32			0	23637	0	0	0	20002	18660	230363	26885	948495	34472	107316	0	0	7004	1450926	0	0
2024-04-09 04:33:32			0	23641	0	0	0	19981	18640	230119	26932	948383	34493	107308	0	0	7005	1450704	0	0
2024-04-09 04:34:32			0	23640	0	0	0	19968	18630	230147	27150	948306	34469	107303	0	0	7005	1450879	0	0
2024-04-09 04:35:32			0	23648	0	0	0	19950	18610	230067	26998	948300	34458	107296	0	0	7007	1450276	0	0
2024-04-09 04:36:32			0	23658	0	0	0	19927	18590	230027	27055	948196	34478	107287	0	0	7010	1449484	0	0
2024-04-09 04:37:32			0	23652	0	0	0	19914	18570	230059	27235	948111	34455	107282	0	0	7008	1450213	0	0
2024-04-09 04:38:32			0	23663	0	0	0	19890	18560	230011	26953	948034	34454	107273	0	0	7012	1449247	0	0
2024-04-09 04:39:32			0	23677	0	0	0	19875	18540	230091	26885	948002	34452	107267	0	0	7017	1448076	0	0
2024-04-09 04:40:32			0	23669	0	0	0	19857	18510	230047	26856	947882	34450	107260	0	0	7013	1449073	0	0
2024-04-09 04:41:32			0	23675	0	0	0	19833	18480	229887	27324	947868	34425	107251	0	0	7015	1448741	0	0
2024-04-09 04:42:32			0	23689	0	0	0	19812	18480	229859	27460	947834	34447	107243	0	0	7020	1447412	0	0
2024-04-09 04:43:32			0	23679	0	0	0	19797	18440	229915	26909	947698	34445	107237	0	0	7016	1448678	0	0
2024-04-09 04:44:32			0	23686	0	0	0	19779	18430	229899	26925	947655	34444	107230	0	0	7018	1448092	0	0
2024-04-09 04:45:32			0	23687	0	0	0	19758	18420	229995	26948	947533	34455	107222	0	0	7019	1448077	0	0
2024-04-09 04:46:32			0	23700	0	0	0	19742	18400	229851	27346	947572	34430	107216	0	0	7023	1447001	0	0
2024-04-09 04:47:32			0	23691	0	0	0	19724	18380	229831	26797	947487	34440	107209	0	0	7020	1448014	0	0
2024-04-09 04:48:32			0	23706	0	0	0	19711	18370	229851	26939	947471	34428	107204	0	0	7025	1446670	0	0
2024-04-09 04:49:32			0	23709	0	0	0	19685	18360	229811	27171	947376	34427	107194	0	0	7026	1446464	0	0
2024-04-09 04:50:32			0	23715	0	0	0	19672	18330	229863	27022	947388	34425	107189	0	0	7028	1446133	0	0
2024-04-09 04:51:32			0	23707	0	0	0	19654	18310	229659	27255	947269	34412	107182	0	0	7025	1447049	0	0
2024-04-09 04:52:32			0	23714	0	0	0	19631	18300	229851	27308	947173	34433	107173	0	0	7027	1446465	0	0
2024-04-09 04:53:32			0	23733	0	0	0	19610	18280	229695	27149	947141	34442	107165	0	0	7033	1444823	0	0
2024-04-09 04:54:32			0	23728	0	0	0	19594	18260	229807	26892	947003	34386	107159	0	0	7031	1445454	0	0
2024-04-09 04:55:32			0	23737	0	0	0	19584	18240	229643	27182	947024	34396	107155	0	0	7034	1444760	0	0
2024-04-09 04:56:32			0	23732	0	0	0	19561	18210	229659	26786	946930	34405	107146	0	0	7032	1445470	0	0
2024-04-09 04:57:32			0	23750	0	0	0	19537	18200	229631	27294	946888	34404	107137	0	0	7038	1443846	0	0
2024-04-09 04:58:32			0	23750	0	0	0	19519	18180	229471	27145	946803	34402	107130	0	0	7038	1444003	0	0
2024-04-09 04:59:32			0	23752	0	0	0	19501	18150	229459	27291	946683	34390	107123	0	0	7038	1444051	0	0
2024-04-09 05:00:32			0	23753	0	0	0	19483	18140	229423	27187	946712	34399	107116	0	0	7039	1444035	0	0
2024-04-09 05:01:32			0	23766	0	0	0	19459	18120	229463	27216	946688	34398	107107	0	0	7043	1442964	0	0
2024-04-09 05:02:32			0	23773	0	0	0	19446	18110	229419	27052	946584	34397	107102	0	0	7045	1442381	0	0
2024-04-09 05:03:32			0	23771	0	0	0	19428	18080	229495	27360	946491	34383	107095	0	0	7044	1442806	0	0
2024-04-09 05:04:32			0	23770	0	0	0	19415	18080	229471	27248	946456	34373	107090	0	0	7044	1442901	0	0
2024-04-09 05:05:32			0	23774	0	0	0	19389	18050	229439	27364	946408	34380	107080	0	0	7045	1442759	0	0
2024-04-09 05:06:32			0	23778	0	0	0	19376	18030	229343	27137	946297	34401	107075	0	0	7046	1442539	0	0
2024-04-09 05:07:32			0	23791	0	0	0	19355	18010	229375	27289	946273	34377	107067	0	0	7050	1441469	0	0
2024-04-09 05:08:32			0	23794	0	0	0	19340	18010	229371	27159	946185	34389	107061	0	0	7051	1441186	0	0
2024-04-09 05:09:32			0	23805	0	0	0	19316	17980	229415	27222	946198	34375	107052	0	0	7055	1440384	0	0
2024-04-09 05:10:32			0	23807	0	0	0	19301	17970	229303	27286	946102	34364	107046	0	0	7055	1440274	0	0
2024-04-09 05:11:32			0	23818	0	0	0	19283	17950	229255	27275	945983	34362	107039	0	0	7059	1439395	0	0
2024-04-09 05:12:32			0	23807	0	0	0	19262	17930	229187	27398	946030	34349	107031	0	0	7055	1440588	0	0
2024-04-09 05:13:32			0	23811	0	0	0	19246	17900	229039	27403	945831	34369	107025	0	0	7056	1440447	0	0
2024-04-09 05:14:32			0	23819	0	0	0	19228	17880	229207	26989	945781	34357	107018	0	0	7058	1439850	0	0
2024-04-09 05:15:32			0	23816	0	0	0	19212	17860	229159	27313	945767	34344	107012	0	0	7057	1440289	0	0
2024-04-09 05:16:32			0	23832	0	0	0	19189	17850	229055	27326	945706	34355	107003	0	0	7062	1438861	0	0
2024-04-09 05:17:32			0	23841	0	0	0	19174	17830	229103	27157	945692	34342	106997	0	0	7065	1438171	0	0
2024-04-09 05:18:32			0	23836	0	0	0	19155	17820	228991	27142	945596	34352	106990	0	0	7063	1438720	0	0
2024-04-09 05:19:32			0	23847	0	0	0	19137	17790	229115	27239	945503	34350	106983	0	0	7066	1437920	0	0
2024-04-09 05:20:32			0	23847	0	0	0	19116	17770	228939	27367	945471	34337	106975	0	0	7066	1438076	0	0
2024-04-09 05:21:32			0	23860	0	0	0	19106	17760	228879	27090	945394	34336	106971	0	0	7070	1436933	0	0
2024-04-09 05:22:32			0	23854	0	0	0	19085	17740	228919	27227	945362	34324	106963	0	0	7068	1437653	0	0
2024-04-09 05:23:32			0	23852	0	0	0	19067	17710	228863	27308	945269	34333	106956	0	0	7067	1438076	0	0
2024-04-09 05:24:32			0	23876	0	0	0	19044	17710	228787	27161	945287	34333	106947	0	0	7075	1435821	0	0
2024-04-09 05:25:32			0	23863	0	0	0	19028	17690	228859	27086	945176	34320	106941	0	0	7071	1437198	0	0
2024-04-09 05:26:32			0	23876	0	0	0	19015	17670	228715	27204	945091	34340	106936	0	0	7075	1436134	0	0
2024-04-09 05:27:32			0	23878	0	0	0	18992	17650	228843	27206	945032	34317	106927	0	0	7075	1436102	0	0
2024-04-09 05:28:32			0	23888	0	0	0	18979	17640	228699	27088	944989	34316	106922	0	0	7078	1435242	0	0
2024-04-09 05:29:32			0	23888	0	0	0	18961	17610	228755	27182	944896	34303	106915	0	0	7078	1435476	0	0
2024-04-09 05:30:32			0	23885	0	0	0	18945	17590	228687	27543	944890	34313	106909	0	0	7077	1435914	0	0
2024-04-09 05:31:32			0	23892	0	0	0	18919	17580	228747	27105	944882	34312	106899	0	0	7079	1435335	0	0
2024-04-09 05:32:32			0	23909	0	0	0	18901	17570	228627	26880	944813	34312	106892	0	0	7085	1433819	0	0
2024-04-09 05:33:32			0	23915	0	0	0	18883	17550	228651	27150	944641	34310	106885	0	0	7086	1433413	0	0
2024-04-09 05:34:32			0	23919	0	0	0	18859	17520	228543	27088	944646	34295	106876	0	0	7087	1433272	0	0
2024-04-09 05:35:32			0	23907	0	0	0	18849	17510	228495	27145	944559	34307	106872	0	0	7083	1434475	0	0
2024-04-09 05:36:32			0	23921	0	0	0	18833	17490	228475	27180	944545	34305	106866	0	0	7088	1433319	0	0
2024-04-09 05:37:32			0	23937	0	0	0	18812	17480	228443	26876	944476	34304	106858	0	0	7092	1431899	0	0
2024-04-09 05:38:32			0	23926	0	0	0	18799	17450	228467	26977	944436	34291	106853	0	0	7089	1433163	0	0
2024-04-09 05:39:32			0	23938	0	0	0	18776	17430	228475	26979	944351	34278	106844	0	0	7092	1432195	0	0
2024-04-09 05:40:32			0	23938	0	0	0	18766	17420	228391	27062	944335	34267	106840	0	0	7092	1432273	0	0
2024-04-09 05:41:32			0	23935	0	0	0	18748	17400	228455	26864	944268	34287	106833	0	0	7091	1432710	0	0
2024-04-09 05:42:32			0	23939	0	0	0	18729	17390	228347	27104	944199	34275	106826	0	0	7093	1432413	0	0
2024-04-09 05:43:32			0	23952	0	0	0	18711	17370	228459	27145	944122	34285	106819	0	0	7096	1431353	0	0
2024-04-09 05:44:32			0	23959	0	0	0	18698	17350	228199	27163	944063	34250	106814	0	0	7098	1430854	0	0
2024-04-09 05:45:32			0	23960	0	0	0	18677	17320	228391	26892	943971	34281	106806	0	0	7098	1430994	0	0
2024-04-09 05:46:32			0	23963	0	0	0	18662	17310	228235	26885	943894	34269	106800	0	0	7099	1430791	0	0
2024-04-09 05:47:32			0	23971	0	0	0	18636	17290	228259	27227	943843	34268	106790	0	0	7101	1430199	0	0
2024-04-09 05:48:32			0	23972	0	0	0	18623	17280	228319	27017	943951	34266	106785	0	0	7102	1430184	0	0
2024-04-09 05:49:32			0	23977	0	0	0	18607	17250	228179	27104	943753	34265	106779	0	0	7103	1429950	0	0
2024-04-09 05:50:32			0	23984	0	0	0	18589	17250	228115	26937	943692	34264	106772	0	0	7105	1429297	0	0
2024-04-09 05:51:32			0	23984	0	0	0	18566	17230	228043	27289	943667	34263	106763	0	0	7105	1429452	0	0
2024-04-09 05:52:32			0	23998	0	0	0	18555	17210	228183	26993	943627	34261	106759	0	0	7109	1428301	0	0
2024-04-09 05:53:32			0	23996	0	0	0	18540	17190	228139	26880	943542	34249	106753	0	0	7108	1428643	0	0
2024-04-09 05:54:32			0	24007	0	0	0	18519	17170	227987	26783	943431	34248	106745	0	0	7111	1427772	0	0
2024-04-09 05:55:32			0	24011	0	0	0	18506	17160	228055	27071	943441	34246	106740	0	0	7113	1427477	0	0
2024-04-09 05:56:32			0	24018	0	0	0	18483	17140	227915	27038	943391	34246	106731	0	0	7115	1426980	0	0
2024-04-09 05:57:32			0	24032	0	0	0	18470	17120	227999	26786	943324	34243	106726	0	0	7118	1425832	0	0
2024-04-09 05:58:32			0	24017	0	0	0	18449	17100	228031	27059	943247	34243	106718	0	0	7114	1427383	0	0
2024-04-09 05:59:32			0	24029	0	0	0	18441	17090	227955	26852	943205	34241	106715	0	0	7117	1426344	0	0
2024-04-09 06:00:32			0	24037	0	0	0	18420	17070	227919	26833	943217	34240	106707	0	0	7120	1425754	0	0
2024-04-09 06:01:32			0	24042	0	0	0	18392	17060	227947	26811	943157	34228	106696	0	0	7121	1425366	0	0
2024-04-09 06:02:32			0	24036	0	0	0	18379	17050	227839	26767	943080	34238	106691	0	0	7120	1426002	0	0
2024-04-09 06:03:32			0	24053	0	0	0	18355	17020	227975	26894	943021	34213	106682	0	0	7124	1424653	0	0
2024-04-09 06:04:32			0	24055	0	0	0	18345	17000	227871	27003	942989	34223	106678	0	0	7125	1424622	0	0
2024-04-09 06:05:32			0	24047	0	0	0	18332	17000	227763	27005	942928	34223	106673	0	0	7123	1425365	0	0
2024-04-09 06:06:32			0	24063	0	0	0	18303	16970	227703	26778	942854	34199	106662	0	0	7127	1424110	0	0
2024-04-09 06:07:32			0	24062	0	0	0	18290	16950	227731	26993	942750	34208	106657	0	0	7126	1424358	0	0
2024-04-09 06:08:32			0	24078	0	0	0	18280	16920	227615	26837	942721	34195	106653	0	0	7130	1423104	0	0
2024-04-09 06:09:32			0	24079	0	0	0	18259	16920	227591	27199	942747	34216	106645	0	0	7131	1423011	0	0
2024-04-09 06:10:32			0	24080	0	0	0	18244	16900	227631	26672	942670	34216	106639	0	0	7131	1423072	0	0
2024-04-09 06:11:32			0	24094	0	0	0	18228	16890	227551	27020	942628	34193	106633	0	0	7135	1421851	0	0
2024-04-09 06:12:32			0	24087	0	0	0	18212	16870	227563	26968	942509	34202	106627	0	0	7133	1422654	0	0
2024-04-09 06:13:32			0	24091	0	0	0	18194	16840	227459	26769	942442	34190	106620	0	0	7134	1422515	0	0
2024-04-09 06:14:32			0	24096	0	0	0	18179	16830	227475	26885	942399	34199	106614	0	0	7135	1422128	0	0
2024-04-09 06:15:32			0	24114	0	0	0	18163	16820	227483	26779	942428	34176	106608	0	0	7140	1420537	0	0
2024-04-09 06:16:32			0	24104	0	0	0	18142	16800	227543	26894	942343	34186	106600	0	0	7138	1421618	0	0
2024-04-09 06:17:32			0	24107	0	0	0	18124	16780	227475	26868	942266	34173	106593	0	0	7138	1421494	0	0
2024-04-09 06:18:32			0	24118	0	0	0	18114	16770	227259	26878	942216	34183	106589	0	0	7141	1420552	0	0
2024-04-09 06:19:32			0	24118	0	0	0	18090	16750	227367	27171	942218	34171	106580	0	0	7141	1420706	0	0
2024-04-09 06:20:32			0	24121	0	0	0	18083	16730	227463	27102	942133	34181	106577	0	0	7142	1420582	0	0
2024-04-09 06:21:32			0	24128	0	0	0	18057	16710	227259	26833	942101	34168	106567	0	0	7144	1420088	0	0
2024-04-09 06:22:32			0	24130	0	0	0	18044	16700	227267	26854	942006	34189	106562	0	0	7145	1419980	0	0
2024-04-09 06:23:32			0	24142	0	0	0	18025	16680	227307	27086	941982	34166	106555	0	0	7148	1419024	0	0
2024-04-09 06:24:32			0	24144	0	0	0	18010	16670	227271	26797	941931	34165	106549	0	0	7148	1418916	0	0
2024-04-09 06:25:32			0	24139	0	0	0	17992	16650	227239	26804	941846	34174	106542	0	0	7147	1419531	0	0
2024-04-09 06:26:32			0	24140	0	0	0	17976	16630	227391	26892	941762	34172	106536	0	0	7147	1419593	0	0
2024-04-09 06:27:32			0	24167	0	0	0	17971	16610	227223	26934	941782	34150	106534	0	0	7154	1417251	0	0
2024-04-09 06:28:32			0	24157	0	0	0	17942	16600	227235	26819	941713	34160	106523	0	0	7152	1418252	0	0
2024-04-09 06:29:32			0	24165	0	0	0	17919	16580	227115	27260	941663	34158	106514	0	0	7154	1417666	0	0
2024-04-09 06:30:32			0	24172	0	0	0	17911	16560	227087	27308	941604	34167	106511	0	0	7155	1417173	0	0
2024-04-09 06:31:32			0	24169	0	0	0	17890	16550	227059	27209	941528	34144	106503	0	0	7155	1417527	0	0
2024-04-09 06:32:32			0	24181	0	0	0	17877	16530	227063	26866	941548	34154	106498	0	0	7158	1416573	0	0
2024-04-09 06:33:32			0	24186	0	0	0	17862	16510	227155	26819	941445	34141	106492	0	0	7159	1416265	0	0
2024-04-09 06:34:32			0	24189	0	0	0	17846	16490	226943	27208	941413	34140	106486	0	0	7160	1416142	0	0
2024-04-09 06:35:32			0	24188	0	0	0	17828	16490	226967	26948	941352	34129	106479	0	0	7160	1416234	0	0
2024-04-09 06:36:32			0	24188	0	0	0	17820	16480	227003	27092	941310	34139	106476	0	0	7160	1416310	0	0
2024-04-09 06:37:32			0	24195	0	0	0	17794	16450	226955	26991	941270	34137	106466	0	0	7161	1415895	0	0
2024-04-09 06:38:32			0	24202	0	0	0	17779	16430	226911	26948	941166	34136	106460	0	0	7163	1415403	0	0
2024-04-09 06:39:32			0	24202	0	0	0	17763	16420	226887	26876	941169	34134	106454	0	0	7163	1415479	0	0
2024-04-09 06:40:32			0	24207	0	0	0	17742	16400	226763	27282	941118	34123	106446	0	0	7165	1415171	0	0
2024-04-09 06:41:32			0	24220	0	0	0	17729	16390	226795	27076	941121	34132	106441	0	0	7168	1414051	0	0
2024-04-09 06:42:32			0	24228	0	0	0	17709	16360	226631	27274	941028	34120	106433	0	0	7170	1413544	0	0
2024-04-09 06:43:32			0	24226	0	0	0	17703	16340	226651	27209	940969	34118	106431	0	0	7169	1413881	0	0
2024-04-09 06:44:32			0	24228	0	0	0	17677	16340	226555	27064	940961	34106	106421	0	0	7170	1413697	0	0
2024-04-09 06:45:32			0	24225	0	0	0	17662	16330	226627	26837	940893	34106	106415	0	0	7169	1414049	0	0
2024-04-09 06:46:32			0	24245	0	0	0	17657	16290	226487	27360	940810	34125	106413	0	0	7174	1412515	0	0
2024-04-09 06:47:32			0	24246	0	0	0	17633	16280	226639	26871	940760	34113	106404	0	0	7174	1412500	0	0
2024-04-09 06:48:32			0	24252	0	0	0	17618	16270	226655	26762	940725	34112	106398	0	0	7176	1412025	0	0
2024-04-09 06:49:32			0	24255	0	0	0	17602	16250	226663	27156	940667	34100	106392	0	0	7177	1411902	0	0
2024-04-09 06:50:32			0	24261	0	0	0	17581	16240	226667	27008	940564	34099	106384	0	0	7178	1411427	0	0
2024-04-09 06:51:32			0	24262	0	0	0	17574	16210	226587	27024	940576	34097	106381	0	0	7178	1411564	0	0
2024-04-09 06:52:32			0	24270	0	0	0	17555	16200	226615	27038	940552	34107	106374	0	0	7180	1410906	0	0
2024-04-09 06:53:32			0	24283	0	0	0	17535	16180	226599	27133	940476	34105	106366	0	0	7184	1409865	0	0
2024-04-09 06:54:32			0	24271	0	0	0	17527	16170	226531	26909	940459	34105	106363	0	0	7181	1411043	0	0
2024-04-09 06:55:32			0	24280	0	0	0	17511	16150	226523	27069	940427	34092	106357	0	0	7183	1410369	0	0
2024-04-09 06:56:32			0	24294	0	0	0	17493	16140	226299	27199	940306	34090	106350	0	0	7187	1409162	0	0
2024-04-09 06:57:32			0	24299	0	0	0	17475	16120	226371	26932	940300	34089	106343	0	0	7188	1408856	0	0
2024-04-09 06:58:32			0	24302	0	0	0	17464	16110	226371	27107	940258	34078	106339	0	0	7189	1408657	0	0
2024-04-09 06:59:32			0	24290	0	0	0	17449	16090	226367	27147	940173	34077	106333	0	0	7185	1409909	0	0
2024-04-09 07:00:32			0	24301	0	0	0	17431	16080	226099	26960	940183	34086	106326	0	0	7188	1408976	0	0
2024-04-09 07:01:32			0	24303	0	0	0	17420	16060	226271	27322	940133	34084	106322	0	0	7189	1408945	0	0
2024-04-09 07:02:32			0	24301	0	0	0	17399	16060	226155	27211	940072	34074	106314	0	0	7189	1409129	0	0
2024-04-09 07:03:32			0	24332	0	0	0	17384	16040	226055	27270	940040	34062	106308	0	0	7196	1406443	0	0
2024-04-09 07:04:32			0	24317	0	0	0	17366	16020	226071	26875	939990	34071	106301	0	0	7192	1407967	0	0
2024-04-09 07:05:32			0	24320	0	0	0	17358	16000	226127	27067	940011	34070	106298	0	0	7193	1407845	0	0
2024-04-09 07:06:32			0	24330	0	0	0	17340	15990	226131	27074	939881	34069	106291	0	0	7196	1407006	0	0
2024-04-09 07:07:32			0	24340	0	0	0	17327	15980	226079	27000	939873	34068	106286	0	0	7198	1406167	0	0
2024-04-09 07:08:32			0	24343	0	0	0	17314	15960	226135	26816	939833	34055	106281	0	0	7199	1406045	0	0
2024-04-09 07:09:32			0	24333	0	0	0	17293	15950	226111	27163	939817	34065	106273	0	0	7196	1407035	0	0
2024-04-09 07:10:32			0	24347	0	0	0	17280	15930	226015	27178	939740	34053	106268	0	0	7200	1405907	0	0
2024-04-09 07:11:32			0	24340	0	0	0	17259	15930	225939	26934	939767	34053	106260	0	0	7198	1406547	0	0
2024-04-09 07:12:32			0	24349	0	0	0	17257	15900	225923	27090	939658	34073	106259	0	0	7200	1405951	0	0
2024-04-09 07:13:32			0	24365	0	0	0	17233	15890	225811	26809	939676	34050	106250	0	0	7204	1404566	0	0
2024-04-09 07:14:32			0	24365	0	0	0	17223	15880	225791	26928	939555	34050	106246	0	0	7204	1404642	0	0
2024-04-09 07:15:32			0	24370	0	0	0	17210	15860	225847	27332	939610	34047	106241	0	0	7206	1404337	0	0
2024-04-09 07:16:32			0	24374	0	0	0	17189	15820	225747	26896	939493	34056	106233	0	0	7206	1404275	0	0
2024-04-09 07:17:32			0	24382	0	0	0	17179	15830	225731	26866	939448	34056	106229	0	0	7209	1403470	0	0
2024-04-09 07:18:32			0	24384	0	0	0	17163	15820	225755	27052	939432	34023	106223	0	0	7209	1403363	0	0
2024-04-09 07:19:32			0	24392	0	0	0	17158	15800	225787	26911	939348	34042	106221	0	0	7211	1402785	0	0
2024-04-09 07:20:32			0	24395	0	0	0	17142	15790	225571	26889	939437	34042	106215	0	0	7212	1402587	0	0
2024-04-09 07:21:32			0	24400	0	0	0	17122	15770	225715	26828	939352	34030	106207	0	0	7213	1402283	0	0
2024-04-09 07:22:32			0	24396	0	0	0	17111	15760	225599	26984	939291	34030	106203	0	0	7212	1402723	0	0
2024-04-09 07:23:32			0	24401	0	0	0	17093	15750	225655	26987	939276	34029	106196	0	0	7213	1402343	0	0
2024-04-09 07:24:32			0	24401	0	0	0	17075	15740	225531	26951	939233	34039	106189	0	0	7213	1402419	0	0
2024-04-09 07:25:32			0	24423	0	0	0	17075	15720	225523	26932	939088	34015	106189	0	0	7218	1400568	0	0
2024-04-09 07:26:32			0	24417	0	0	0	17051	15710	225475	26847	939098	34025	106180	0	0	7217	1401189	0	0
2024-04-09 07:27:32			0	24423	0	0	0	17041	15700	225495	26847	939161	34024	106176	0	0	7219	1400719	0	0
2024-04-09 07:28:32			0	24425	0	0	0	17023	15680	225415	26745	939076	34023	106169	0	0	7219	1400688	0	0
2024-04-09 07:29:32			0	24433	0	0	0	17012	15670	225415	27071	938989	34022	106165	0	0	7221	1400036	0	0
2024-04-09 07:30:32			0	24422	0	0	0	17005	15660	225415	26762	938992	34010	106162	0	0	7218	1401111	0	0
2024-04-09 07:31:32			0	24431	0	0	0	16986	15640	225391	27317	938915	34009	106155	0	0	7220	1400444	0	0
2024-04-09 07:32:32			0	24438	0	0	0	16984	15630	225303	27022	938873	34008	106154	0	0	7222	1399883	0	0
2024-04-09 07:33:32			0	24444	0	0	0	16961	15610	225351	26798	938893	33996	106145	0	0	7224	1399488	0	0
2024-04-09 07:34:32			0	24446	0	0	0	16950	15610	225319	26764	938859	34006	106141	0	0	7224	1399307	0	0
2024-04-09 07:35:32			0	24444	0	0	0	16966	15590	225431	26838	938782	34005	106147	0	0	7223	1399639	0	0
2024-04-09 07:36:32			0	24459	0	0	0	17028	15580	225259	27255	938766	33993	106171	0	0	7225	1398352	0	0
2024-04-09 07:37:32			0	24459	0	0	0	16984	15560	225251	26916	938707	33992	106154	0	0	7226	1398503	0	0
2024-04-09 07:38:32			0	24463	0	0	0	16961	15560	225203	27175	938760	33992	106145	0	0	7227	1398140	0	0
2024-04-09 07:39:32			0	24477	0	0	0	16916	15540	225123	27157	938710	34012	106128	0	0	7231	1397021	0	0
2024-04-09 07:40:32			0	24474	0	0	0	16898	15530	225215	26994	938720	34001	106121	0	0	7230	1397368	0	0
2024-04-09 07:41:32			0	24492	0	0	0	16880	15520	224975	27001	938704	34000	106114	0	0	7235	1395812	0	0
2024-04-09 07:42:32			0	24499	0	0	0	16875	15510	224887	27171	938688	34000	106112	0	0	7236	1395253	0	0
2024-04-09 07:43:32			0	24511	0	0	0	16914	15520	224739	27223	938696	34000	106127	0	0	7239	1394093	0	0
2024-04-09 07:44:32			0	24515	0	0	0	16937	15510	224555	27001	938706	34020	106136	0	0	7239	1393806	0	0
2024-04-09 07:45:32			0	24522	0	0	0	16890	15500	224431	27289	938672	33999	106118	0	0	7241	1393249	0	0
2024-04-09 07:46:32			0	24549	0	0	0	16922	15500	224367	26993	938725	34009	106130	0	0	7247	1390811	0	0
2024-04-09 07:47:32			0	24571	0	0	0	16903	15490	224399	27239	938787	33998	106123	0	0	7252	1388904	0	0
2024-04-09 07:48:32			0	24568	0	0	0	16870	15480	224099	27168	938771	33997	106110	0	0	7252	1389249	0	0
2024-04-09 07:49:32			0	24592	0	0	0	16857	15480	224055	26987	938763	33997	106105	0	0	7258	1387090	0	0
2024-04-09 07:50:32			0	24612	0	0	0	16851	15490	223883	26772	938727	33998	106103	0	0	7263	1385219	0	0
2024-04-09 07:51:32			0	24635	0	0	0	16888	15470	223444	27348	938755	34018	106117	0	0	7267	1383306	0	0
2024-04-09 07:52:32			0	24662	0	0	0	16859	15470	223368	27144	938782	33996	106106	0	0	7273	1380889	0	0
2024-04-09 07:53:32			0	24676	0	0	0	16851	15480	223052	27111	938824	34007	106103	0	0	7277	1379564	0	0
2024-04-09 07:54:32			0	24687	0	0	0	16867	15480	223032	26925	938877	33997	106109	0	0	7279	1378582	0	0
2024-04-09 07:55:32			0	24714	0	0	0	16854	15480	222728	27166	938869	34007	106104	0	0	7285	1376175	0	0
2024-04-09 07:56:32			0	24720	0	0	0	16815	15480	222640	27105	938842	34018	106089	0	0	7287	1375641	0	0
2024-04-09 07:57:32			0	24752	0	0	0	16841	15490	222528	26942	938964	34008	106099	0	0	7294	1372722	0	0
2024-04-09 07:58:32			0	24754	0	0	0	16836	15480	222356	26970	938982	34029	106097	0	0	7294	1372618	0	0
2024-04-09 07:59:32			0	24763	0	0	0	16823	15480	222280	27216	938929	34007	106092	0	0	7296	1371819	0	0
2024-04-09 08:00:32			0	24770	0	0	0	16846	15490	222276	26937	938964	34008	106101	0	0	7297	1371125	0	0
2024-04-09 08:01:32			0	24789	0	0	0	16823	15490	222188	27142	939069	33998	106092	0	0	7302	1369441	0	0
2024-04-09 08:02:32			0	24804	0	0	0	16823	15500	222052	27149	939032	34009	106092	0	0	7305	1368040	0	0
2024-04-09 08:03:32			0	24818	0	0	0	16812	15490	221872	27079	939042	34008	106088	0	0	7308	1366876	0	0
2024-04-09 08:04:32			0	24821	0	0	0	16807	15510	221816	27130	939127	34020	106086	0	0	7309	1366464	0	0
2024-04-09 08:05:32			0	24819	0	0	0	16807	15500	221640	27194	939164	34020	106086	0	0	7309	1366715	0	0
2024-04-09 08:06:32			0	24847	0	0	0	16810	15510	221632	27050	939206	34032	106087	0	0	7314	1364170	0	0
2024-04-09 08:07:32			0	24842	0	0	0	16807	15510	221392	27019	939233	34009	106086	0	0	7313	1364611	0	0
2024-04-09 08:08:32			0	24850	0	0	0	16812	15510	221440	26946	939206	34009	106088	0	0	7315	1363906	0	0
2024-04-09 08:09:32			0	24859	0	0	0	16812	15520	221312	27046	939301	34021	106088	0	0	7317	1363040	0	0
2024-04-09 08:10:32			0	24852	0	0	0	16820	15530	221284	27201	939317	34022	106091	0	0	7316	1363583	0	0
2024-04-09 08:11:32			0	24867	0	0	0	16818	15520	221368	27223	939301	34021	106090	0	0	7319	1362336	0	0
2024-04-09 08:12:32			0	24871	0	0	0	16823	15510	221160	27017	939320	34010	106092	0	0	7319	1362057	0	0
2024-04-09 08:13:32			0	24865	0	0	0	16815	15530	221088	27249	939370	34011	106089	0	0	7318	1362438	0	0
2024-04-09 08:14:32			0	24869	0	0	0	16828	15530	221088	27352	939396	34000	106094	0	0	7319	1362086	0	0
2024-04-09 08:15:32			0	24877	0	0	0	16828	15530	221068	26748	939457	34012	106094	0	0	7321	1361382	0	0
2024-04-09 08:16:32			0	24881	0	0	0	16823	15540	221028	26863	939544	34023	106092	0	0	7322	1360957	0	0
2024-04-09 08:17:32			0	24897	0	0	0	16828	15540	220996	26873	939491	34023	106094	0	0	7325	1359552	0	0
2024-04-09 08:18:32			0	24889	0	0	0	16825	15540	220880	27400	939526	34012	106093	0	0	7323	1360255	0	0
2024-04-09 08:19:32			0	24902	0	0	0	16828	15540	220916	26816	939552	34024	106094	0	0	7326	1359113	0	0
2024-04-09 08:20:32			0	24902	0	0	0	16833	15550	220888	27232	939620	34024	106096	0	0	7326	1359040	0	0
2024-04-09 08:21:32			0	24897	0	0	0	16833	15560	220820	27053	939584	34014	106096	0	0	7325	1359406	0	0
2024-04-09 08:22:32			0	24903	0	0	0	16841	15570	220808	26856	939697	34037	106099	0	0	7326	1358806	0	0
2024-04-09 08:23:32			0	24907	0	0	0	16836	15560	220768	26892	939742	34025	106097	0	0	7327	1358528	0	0
2024-04-09 08:24:32			0	24903	0	0	0	16844	15570	220768	26812	939723	34015	106100	0	0	7326	1358806	0	0
2024-04-09 08:25:32			0	24910	0	0	0	16854	15570	220716	26776	939750	34003	106104	0	0	7327	1358192	0	0
2024-04-09 08:26:32			0	24899	0	0	0	16859	15570	220600	26967	939750	34026	106106	0	0	7325	1359157	0	0
2024-04-09 08:27:32			0	24911	0	0	0	16857	15580	220752	26998	939826	34027	106105	0	0	7328	1358031	0	0
2024-04-09 08:28:32			0	24914	0	0	0	16857	15590	220580	26939	939861	34016	106105	0	0	7328	1357695	0	0
2024-04-09 08:29:32			0	24914	0	0	0	16864	15600	220836	27270	939869	34027	106108	0	0	7328	1357622	0	0
2024-04-09 08:30:32			0	24901	0	0	0	16864	15600	220576	27377	939948	34016	106108	0	0	7326	1358762	0	0
2024-04-09 08:31:32			0	24914	0	0	0	16870	15610	220528	26876	939964	34028	106110	0	0	7328	1357549	0	0
2024-04-09 08:32:32			0	24932	0	0	0	16877	15620	220428	26833	940138	34030	106113	0	0	7332	1355899	0	0
2024-04-09 08:33:32			0	24931	0	0	0	16872	15620	220360	27071	940146	34030	106111	0	0	7332	1355986	0	0
2024-04-09 08:34:32			0	24944	0	0	0	16896	15640	220292	27258	940231	34031	106120	0	0	7334	1354703	0	0
2024-04-09 08:35:32			0	24953	0	0	0	16901	15650	220180	27038	940326	34042	106122	0	0	7336	1353844	0	0
2024-04-09 08:36:32			0	24946	0	0	0	16906	15660	220112	27339	940342	34021	106124	0	0	7335	1354382	0	0
2024-04-09 08:37:32			0	24941	0	0	0	16935	15670	220296	27379	940384	34033	106135	0	0	7334	1354747	0	0
2024-04-09 08:38:32			0	24944	0	0	0	16950	15690	220184	27133	940514	34024	106141	0	0	7334	1354338	0	0
2024-04-09 08:39:32			0	24959	0	0	0	16966	15700	220116	27161	940556	34024	106147	0	0	7337	1352955	0	0
2024-04-09 08:40:32			0	24964	0	0	0	16974	15700	219960	27294	940617	34046	106150	0	0	7338	1352519	0	0
2024-04-09 08:41:32			0	24989	0	0	0	16981	15720	219808	26960	940649	34048	106153	0	0	7343	1350193	0	0
2024-04-09 08:42:32			0	24992	0	0	0	16992	15730	219792	27208	940709	34048	106157	0	0	7343	1349859	0	0
2024-04-09 08:43:32			0	24994	0	0	0	17005	15730	219388	26981	940691	34038	106162	0	0	7344	1349685	0	0
2024-04-09 08:44:32			0	25016	0	0	0	17018	15750	219400	27293	940768	34050	106167	0	0	7348	1347625	0	0
2024-04-09 08:45:32			0	25026	0	0	0	17028	15760	219364	27334	940845	34051	106171	0	0	7350	1346684	0	0
2024-04-09 08:46:32			0	25019	0	0	0	17038	15760	219296	27085	940897	34041	106175	0	0	7348	1347292	0	0
2024-04-09 08:47:32			0	25034	0	0	0	17054	15780	219144	27298	940982	34052	106181	0	0	7351	1345844	0	0
2024-04-09 08:48:32			0	25032	0	0	0	17033	15790	219016	27339	941024	34053	106173	0	0	7351	1345945	0	0
2024-04-09 08:49:32			0	25051	0	0	0	16966	15800	218788	27180	941093	34054	106147	0	0	7356	1344225	0	0
2024-04-09 08:50:32			0	25075	0	0	0	17036	15810	218656	27291	941241	34044	106174	0	0	7360	1342074	0	0
2024-04-09 08:51:32			0	25075	0	0	0	16979	15820	218324	26993	941249	34067	106152	0	0	7361	1342002	0	0
2024-04-09 08:52:32			0	25079	0	0	0	17059	15850	218436	27384	941358	34070	106183	0	0	7361	1341439	0	0
2024-04-09 08:53:32			0	25094	0	0	0	17075	15870	218272	27327	941434	34059	106189	0	0	7363	1339998	0	0
2024-04-09 08:54:32			0	25093	0	0	0	17116	15890	218396	26857	941590	34072	106205	0	0	7363	1339940	0	0
2024-04-09 08:55:32			0	25094	0	0	0	17148	15910	218340	27248	941728	34073	106217	0	0	7363	1339709	0	0
2024-04-09 08:56:32			0	25099	0	0	0	17184	15930	218036	27041	941821	34075	106231	0	0	7363	1339133	0	0
2024-04-09 08:57:32			0	25095	0	0	0	17210	15960	218160	26904	941861	34077	106241	0	0	7362	1339262	0	0
2024-04-09 08:58:32			0	25089	0	0	0	17228	15980	218268	26779	942059	34079	106248	0	0	7361	1339635	0	0
2024-04-09 08:59:32			0	25082	0	0	0	17272	16000	218384	26894	942188	34090	106265	0	0	7359	1340095	0	0
2024-04-09 09:00:32			0	25076	0	0	0	17296	16020	218364	26944	942255	34093	106274	0	0	7358	1340469	0	0
2024-04-09 09:01:32			0	25077	0	0	0	17314	16050	218252	26977	942382	34106	106281	0	0	7359	1340166	0	0
2024-04-09 09:02:32			0	25083	0	0	0	17355	16070	218216	26960	942459	34085	106297	0	0	7359	1339503	0	0
2024-04-09 09:03:32			0	25055	0	0	0	17374	16090	218232	26703	942649	34098	106304	0	0	7354	1341778	0	0
2024-04-09 09:04:32			0	25045	0	0	0	17412	16120	218396	27010	942758	34112	106319	0	0	7352	1342426	0	0
2024-04-09 09:05:32			0	25048	0	0	0	17444	16150	218468	26845	942825	34114	106331	0	0	7352	1341949	0	0
2024-04-09 09:06:32			0	25037	0	0	0	17457	16190	218552	26920	943039	34117	106336	0	0	7351	1342611	0	0
2024-04-09 09:07:32			0	25027	0	0	0	17498	16210	218576	26847	943150	34128	106352	0	0	7348	1343332	0	0
2024-04-09 09:08:32			0	25016	0	0	0	17522	16240	218536	26828	943312	34121	106361	0	0	7346	1344068	0	0
2024-04-09 09:09:32			0	25011	0	0	0	17553	16270	218572	26873	943484	34134	106373	0	0	7345	1344284	0	0
2024-04-09 09:10:32			0	25011	0	0	0	17587	16290	218648	26811	943550	34135	106386	0	0	7345	1344138	0	0
2024-04-09 09:11:32			0	24996	0	0	0	17625	16340	218488	27168	943807	34139	106401	0	0	7342	1345076	0	0
2024-04-09 09:12:32			0	25000	0	0	0	17649	16360	218508	26731	943866	34129	106410	0	0	7343	1344584	0	0
2024-04-09 09:13:32			0	24994	0	0	0	17683	16390	218572	27176	944001	34144	106423	0	0	7341	1344886	0	0
2024-04-09 09:14:32			0	24998	0	0	0	17701	16430	218524	27306	944137	34146	106430	0	0	7343	1344249	0	0
2024-04-09 09:15:32			0	24989	0	0	0	17735	16470	218628	26998	944246	34182	106443	0	0	7341	1344738	0	0
2024-04-09 09:16:32			0	24991	0	0	0	17753	16490	218608	27369	944418	34162	106450	0	0	7341	1344419	0	0
2024-04-09 09:17:32			0	24984	0	0	0	17786	16530	218528	26781	944606	34175	106463	0	0	7340	1344736	0	0
2024-04-09 09:18:32			0	24987	0	0	0	17836	16550	218360	27263	944752	34166	106482	0	0	7340	1344330	0	0
2024-04-09 09:19:32			0	24972	0	0	0	17867	16590	218408	27064	944808	34180	106494	0	0	7337	1345340	0	0
2024-04-09 09:20:32			0	24979	0	0	0	17893	16620	218332	27126	944917	34183	106504	0	0	7338	1344514	0	0
2024-04-09 09:21:32			0	24973	0	0	0	17914	16650	218300	27109	945195	34185	106512	0	0	7337	1344817	0	0
2024-04-09 09:22:32			0	24977	0	0	0	17945	16680	218324	27248	945357	34188	106524	0	0	7338	1344251	0	0
2024-04-09 09:23:32			0	24991	0	0	0	17974	16710	218264	27041	945450	34201	106535	0	0	7341	1342819	0	0
2024-04-09 09:24:32			0	24975	0	0	0	18002	16760	218260	27041	945549	34193	106546	0	0	7338	1343842	0	0
2024-04-09 09:25:32			0	24971	0	0	0	18020	16780	218052	27128	945713	34196	106553	0	0	7337	1344044	0	0
2024-04-09 09:26:32			0	24979	0	0	0	18072	16810	218160	27102	945840	34218	106573	0	0	7338	1343132	0	0
2024-04-09 09:27:32			0	24965	0	0	0	18101	16840	218024	26750	945941	34210	106584	0	0	7335	1344127	0	0
2024-04-09 09:28:32			0	24977	0	0	0	18114	16880	217936	27142	946112	34213	106589	0	0	7338	1342796	0	0
2024-04-09 09:29:32			0	24985	0	0	0	18142	16910	217840	26977	946318	34227	106600	0	0	7339	1341884	0	0
2024-04-09 09:30:32			0	24995	0	0	0	18179	16940	217824	27003	946427	34230	106614	0	0	7341	1340801	0	0
2024-04-09 09:31:32			0	24987	0	0	0	18210	16970	217684	27317	946555	34222	106626	0	0	7339	1341275	0	0
2024-04-09 09:32:32			0	24983	0	0	0	18251	17010	217764	27088	946743	34224	106642	0	0	7339	1341330	0	0
2024-04-09 09:33:32			0	24993	0	0	0	18270	17050	217668	27161	946853	34238	106649	0	0	7341	1340174	0	0
2024-04-09 09:34:32			0	24996	0	0	0	18316	17080	217600	27223	946988	34241	106667	0	0	7341	1339697	0	0
2024-04-09 09:35:32			0	24999	0	0	0	18361	17110	217688	27282	947187	34253	106684	0	0	7341	1339219	0	0
2024-04-09 09:36:32			0	24992	0	0	0	18361	17140	217380	27102	947296	34267	106684	0	0	7340	1339606	0	0
2024-04-09 09:37:32			0	25013	0	0	0	18418	17180	217296	27130	947511	34270	106706	0	0	7344	1337502	0	0
2024-04-09 09:38:32			0	25014	0	0	0	18441	17210	217212	27027	947665	34261	106715	0	0	7344	1337198	0	0
2024-04-09 09:39:32			0	25010	0	0	0	18475	17240	217084	27398	947801	34275	106728	0	0	7343	1337325	0	0
2024-04-09 09:40:32			0	25011	0	0	0	18496	17290	217144	27383	947873	34279	106736	0	0	7344	1336876	0	0
2024-04-09 09:41:32			0	25005	0	0	0	18498	17320	216908	27384	948054	34281	106737	0	0	7343	1337175	0	0
2024-04-09 09:42:32			0	25004	0	0	0	18561	17360	216900	27460	948295	34294	106761	0	0	7342	1336971	0	0
2024-04-09 09:43:32			0	25018	0	0	0	18618	17410	216832	27102	948402	34287	106783	0	0	7344	1335401	0	0
2024-04-09 09:44:32			0	25034	0	0	0	18646	17430	216824	27000	948496	34300	106794	0	0	7347	1333879	0	0
2024-04-09 09:45:32			0	25049	0	0	0	18680	17470	216736	27229	948737	34303	106807	0	0	7350	1332299	0	0
2024-04-09 09:46:32			0	25049	0	0	0	18714	17500	216552	27196	948891	34316	106820	0	0	7350	1332082	0	0
2024-04-09 09:47:32			0	25038	0	0	0	18742	17530	216512	27144	949019	34308	106831	0	0	7348	1332810	0	0
2024-04-09 09:48:32			0	25058	0	0	0	18776	17570	216412	26902	949171	34323	106844	0	0	7351	1330803	0	0
2024-04-09 09:49:32			0	25047	0	0	0	18805	17600	216372	26975	949298	34313	106855	0	0	7349	1331529	0	0
2024-04-09 09:50:32			0	25055	0	0	0	18836	17640	216228	27074	949540	34328	106867	0	0	7351	1330553	0	0
2024-04-09 09:51:32			0	25047	0	0	0	18859	17660	216220	26876	949625	34330	106876	0	0	7349	1331094	0	0
2024-04-09 09:52:32			0	25058	0	0	0	18898	17710	216304	27109	949777	34354	106891	0	0	7351	1329789	0	0
2024-04-09 09:53:32			0	25051	0	0	0	18914	17750	216200	26974	949877	34336	106897	0	0	7350	1330099	0	0
2024-04-09 09:54:32			0	25050	0	0	0	18935	17770	216040	26902	950120	34360	106905	0	0	7350	1330040	0	0
2024-04-09 09:55:32			0	25058	0	0	0	18901	17810	215972	26923	950159	34363	106892	0	0	7353	1329065	0	0
2024-04-09 09:56:32			0	25070	0	0	0	18966	17840	215588	27026	950358	34354	106917	0	0	7354	1327820	0	0
2024-04-09 09:57:32			0	25073	0	0	0	19031	17880	215676	27256	950510	34369	106942	0	0	7354	1327274	0	0
2024-04-09 09:58:32			0	25091	0	0	0	19072	17920	215672	27015	950646	34372	106958	0	0	7357	1325446	0	0
2024-04-09 09:59:32			0	25101	0	0	0	19098	17950	215456	27026	950800	34384	106968	0	0	7359	1324375	0	0
2024-04-09 10:00:32			0	25102	0	0	0	19127	18000	215288	26915	951058	34377	106979	0	0	7359	1323929	0	0
2024-04-09 10:01:32			0	25104	0	0	0	19168	18020	215136	26963	951125	34379	106995	0	0	7359	1323614	0	0
2024-04-09 10:02:32			0	25106	0	0	0	19199	18070	215168	26772	951277	34373	107007	0	0	7359	1323082	0	0
2024-04-09 10:03:32			0	25107	0	0	0	19223	18090	215276	27211	951370	34395	107016	0	0	7359	1322853	0	0
2024-04-09 10:04:32			0	25120	0	0	0	19280	18120	214892	27180	951604	34398	107038	0	0	7361	1321529	0	0
2024-04-09 10:05:32			0	25116	0	0	0	19319	18160	214816	27223	951748	34401	107053	0	0	7360	1321581	0	0
2024-04-09 10:06:32			0	25117	0	0	0	19329	18200	214828	27003	951892	34405	107057	0	0	7361	1321207	0	0
2024-04-09 10:07:32			0	25116	0	0	0	19381	18240	214772	27350	952028	34418	107077	0	0	7360	1321004	0	0
2024-04-09 10:08:32			0	25109	0	0	0	19415	18280	214800	27055	952191	34410	107090	0	0	7359	1321311	0	0
2024-04-09 10:09:32			0	25101	0	0	0	19441	18310	214840	27033	952345	34433	107100	0	0	7358	1321776	0	0
2024-04-09 10:10:32			0	25103	0	0	0	19493	18340	214772	26765	952534	34437	107120	0	0	7357	1321389	0	0
2024-04-09 10:11:32			0	25118	0	0	0	19524	18380	214704	26972	952670	34440	107132	0	0	7360	1319824	0	0
2024-04-09 10:12:32			0	25106	0	0	0	19566	18400	214676	26831	952816	34453	107148	0	0	7357	1320700	0	0
2024-04-09 10:13:32			0	25096	0	0	0	19599	18450	214540	27017	952995	34434	107161	0	0	7356	1321190	0	0
2024-04-09 10:14:32			0	25106	0	0	0	19625	18470	214576	26896	953115	34447	107171	0	0	7357	1320195	0	0
2024-04-09 10:15:32			0	25111	0	0	0	19657	18530	214576	26913	953284	34440	107183	0	0	7359	1319337	0	0
2024-04-09 10:16:32			0	25095	0	0	0	19706	18560	214396	27116	953456	34487	107202	0	0	7355	1320481	0	0
2024-04-09 10:17:32			0	25107	0	0	0	19729	18590	214336	27298	953592	34466	107211	0	0	7357	1319244	0	0
2024-04-09 10:18:32			0	25107	0	0	0	19773	18630	214384	27055	953782	34469	107228	0	0	7357	1318955	0	0
2024-04-09 10:19:32			0	25105	0	0	0	19818	18670	214248	27118	954032	34484	107245	0	0	7357	1318836	0	0
2024-04-09 10:20:32			0	25113	0	0	0	19844	18700	214208	27248	954062	34498	107255	0	0	7358	1317940	0	0
2024-04-09 10:21:32			0	25133	0	0	0	19888	18740	214104	26987	954207	34479	107272	0	0	7361	1315955	0	0
2024-04-09 10:22:32			0	25119	0	0	0	19935	18770	213952	27034	954441	34503	107290	0	0	7358	1316926	0	0
2024-04-09 10:23:32			0	25123	0	0	0	19953	18810	214040	26791	954524	34495	107297	0	0	7359	1316298	0	0
2024-04-09 10:24:32			0	25146	0	0	0	19976	18860	213784	26908	954738	34510	107306	0	0	7363	1313989	0	0
2024-04-09 10:25:32			0	25154	0	0	0	20015	18890	213636	27173	954884	34512	107321	0	0	7365	1313097	0	0
2024-04-09 10:26:32			0	25160	0	0	0	20049	18930	213460	27116	955055	34515	107334	0	0	7366	1312301	0	0
2024-04-09 10:27:32			0	25170	0	0	0	20085	18970	213288	27348	955173	34529	107348	0	0	7367	1311169	0	0
2024-04-09 10:28:32			0	25159	0	0	0	20103	19000	213260	26868	955309	34532	107355	0	0	7365	1311882	0	0
2024-04-09 10:29:32			0	25188	0	0	0	20174	19040	213128	26786	955454	34535	107382	0	0	7369	1309147	0	0
2024-04-09 10:30:32			0	25176	0	0	0	20184	19080	213104	26965	955616	34538	107386	0	0	7368	1309872	0	0
2024-04-09 10:31:32			0	25192	0	0	0	20215	19110	212928	27116	955816	34529	107398	0	0	7370	1308308	0	0
2024-04-09 10:32:32			0	25206	0	0	0	20228	19150	212768	26769	955960	34553	107403	0	0	7373	1306842	0	0
2024-04-09 10:33:32			0	25204	0	0	0	20306	19180	212780	26759	956062	34545	107433	0	0	7372	1306795	0	0
2024-04-09 10:34:32			0	25194	0	0	0	20316	19220	212632	26771	956233	34559	107437	0	0	7370	1307350	0	0
2024-04-09 10:35:32			0	25219	0	0	0	20264	19250	212600	27268	956335	34574	107417	0	0	7376	1305032	0	0
2024-04-09 10:36:32			0	25227	0	0	0	20366	19280	212624	26842	956445	34586	107456	0	0	7376	1304146	0	0
2024-04-09 10:37:32			0	25241	0	0	0	20407	19320	212400	26897	956634	34568	107472	0	0	7378	1302685	0	0
2024-04-09 10:38:32			0	25224	0	0	0	20438	19360	212488	26726	956752	34582	107484	0	0	7375	1303824	0	0
2024-04-09 10:39:32			0	25238	0	0	0	20483	19380	212340	26736	956830	34572	107501	0	0	7377	1302507	0	0
2024-04-09 10:40:32			0	25249	0	0	0	20535	19430	212168	27017	957043	34597	107521	0	0	7378	1301228	0	0
2024-04-09 10:41:32			0	25241	0	0	0	20540	19460	212040	26883	957119	34611	107523	0	0	7377	1301683	0	0
2024-04-09 10:42:32			0	25242	0	0	0	20584	19490	212068	26955	957247	34603	107540	0	0	7377	1301385	0	0
2024-04-09 10:43:32			0	25250	0	0	0	20610	19520	212016	27204	957455	34605	107550	0	0	7378	1300500	0	0
2024-04-09 10:44:32			0	25246	0	0	0	20625	19550	211932	26974	957618	34607	107556	0	0	7378	1300621	0	0
2024-04-09 10:45:32			0	25248	0	0	0	20688	19600	211892	26996	957745	34611	107580	0	0	7378	1300096	0	0
2024-04-09 10:46:32			0	25261	0	0	0	20716	19620	211756	26670	957944	34625	107591	0	0	7380	1298866	0	0
2024-04-09 10:47:32			0	25258	0	0	0	20771	19670	211596	26811	958070	34606	107612	0	0	7379	1298759	0	0
2024-04-09 10:48:32			0	25270	0	0	0	20789	19690	211592	26767	958236	34619	107619	0	0	7381	1297614	0	0
2024-04-09 10:49:32			0	25265	0	0	0	20825	19730	211464	27277	958346	34631	107633	0	0	7380	1297745	0	0
2024-04-09 10:50:32			0	25272	0	0	0	20877	19770	211488	27010	958472	34646	107653	0	0	7380	1296875	0	0
2024-04-09 10:51:32			0	25271	0	0	0	20924	19810	211272	26981	958635	34661	107671	0	0	7380	1296673	0	0
2024-04-09 10:52:32			0	25276	0	0	0	20935	19850	211340	27024	958806	34653	107675	0	0	7381	1295971	0	0
2024-04-09 10:53:32			0	25288	0	0	0	20963	19880	211228	27112	959075	34666	107686	0	0	7383	1294757	0	0
2024-04-09 10:54:32			0	25280	0	0	0	20989	19920	211104	27062	959132	34669	107696	0	0	7382	1295137	0	0
2024-04-09 10:55:32			0	25292	0	0	0	21059	19970	211060	26899	959365	34662	107723	0	0	7383	1293781	0	0
2024-04-09 10:56:32			0	25300	0	0	0	21070	20000	210976	27088	959387	34675	107727	0	0	7385	1292902	0	0
2024-04-09 10:57:32			0	25311	0	0	0	21101	20030	210816	26961	959657	34656	107739	0	0	7386	1291774	0	0
2024-04-09 10:58:32			0	25315	0	0	0	21119	20070	210684	26837	959828	34692	107746	0	0	7387	1291157	0	0
2024-04-09 10:59:32			0	25312	0	0	0	21161	20110	210452	27300	960018	34684	107762	0	0	7386	1291121	0	0
2024-04-09 11:00:32			0	25334	0	0	0	21218	20150	210352	27128	960162	34687	107784	0	0	7389	1289011	0	0
2024-04-09 11:01:32			0	25339	0	0	0	21257	20180	210280	26956	960317	34711	107799	0	0	7390	1288383	0	0
2024-04-09 11:02:32			0	25346	0	0	0	21290	20230	210184	26963	960479	34705	107812	0	0	7391	1287449	0	0
2024-04-09 11:03:32			0	25345	0	0	0	21329	20270	210104	26909	960642	34707	107827	0	0	7390	1287247	0	0
2024-04-09 11:04:32			0	25349	0	0	0	21350	20300	209964	26830	960805	34721	107835	0	0	7391	1286703	0	0
2024-04-09 11:05:32			0	25361	0	0	0	21412	20340	209944	26693	961003	34736	107859	0	0	7392	1285426	0	0
2024-04-09 11:06:32			0	25355	0	0	0	21431	20380	209760	26863	961122	34716	107866	0	0	7392	1285638	0	0
2024-04-09 11:07:32			0	25361	0	0	0	21522	20420	209836	26847	961391	34741	107901	0	0	7391	1284858	0	0
2024-04-09 11:08:32			0	25363	0	0	0	21498	20470	209700	27175	961579	34745	107892	0	0	7393	1284338	0	0
2024-04-09 11:09:32			0	25371	0	0	0	21573	20500	209664	26908	961663	34748	107921	0	0	7393	1283465	0	0
2024-04-09 11:10:32			0	25375	0	0	0	21573	20550	209556	26854	961861	34751	107921	0	0	7394	1282780	0	0
2024-04-09 11:11:32			0	25384	0	0	0	21602	20590	209368	27296	961979	34743	107932	0	0	7396	1281755	0	0
2024-04-09 11:12:32			0	25372	0	0	0	21641	20620	209340	27152	962116	34757	107947	0	0	7394	1282531	0	0
2024-04-09 11:13:32			0	25393	0	0	0	21714	20660	209312	26746	962280	34771	107975	0	0	7396	1280518	0	0
2024-04-09 11:14:32			0	25388	0	0	0	21768	20700	209256	26928	962424	34785	107996	0	0	7395	1280646	0	0
2024-04-09 11:15:32			0	25375	0	0	0	21797	20730	209160	27573	962562	34766	108007	0	0	7393	1281503	0	0
2024-04-09 11:16:32			0	25385	0	0	0	21836	20760	209088	27066	962717	34779	108022	0	0	7394	1280467	0	0
2024-04-09 11:17:32			0	25379	0	0	0	21857	20800	209136	27213	962809	34771	108030	0	0	7393	1280678	0	0
2024-04-09 11:18:32			0	25394	0	0	0	21885	20840	208960	26857	963025	34796	108041	0	0	7395	1279160	0	0
2024-04-09 11:19:32			0	25398	0	0	0	21906	20880	208912	27249	963091	34788	108049	0	0	7396	1278548	0	0
2024-04-09 11:20:32			0	25397	0	0	0	21986	20920	208944	27202	963201	34791	108080	0	0	7395	1278347	0	0
2024-04-09 11:21:32			0	25389	0	0	0	22005	20950	208804	26875	963418	34793	108087	0	0	7394	1278792	0	0
2024-04-09 11:22:32			0	25392	0	0	0	22020	20980	208688	27216	963546	34807	108093	0	0	7394	1278332	0	0
2024-04-09 11:23:32			0	25394	0	0	0	22072	21010	208632	27123	963649	34798	108113	0	0	7394	1277956	0	0
2024-04-09 11:24:32			0	25394	0	0	0	22106	21050	208556	27123	963847	34813	108126	0	0	7394	1277672	0	0
2024-04-09 11:25:32			0	25391	0	0	0	22166	21080	208504	26951	963994	34815	108149	0	0	7393	1277706	0	0
2024-04-09 11:26:32			0	25396	0	0	0	22181	21130	208492	27119	964129	34818	108155	0	0	7394	1276941	0	0
2024-04-09 11:27:32			0	25395	0	0	0	22210	21170	208484	26835	964194	34855	108166	0	0	7394	1276740	0	0
2024-04-09 11:28:32			0	25385	0	0	0	22223	21210	208456	26876	964385	34857	108171	0	0	7393	1277277	0	0
2024-04-09 11:29:32			0	25385	0	0	0	22283	21230	208488	26944	964505	34860	108194	0	0	7392	1277135	0	0
2024-04-09 11:30:32			0	25386	0	0	0	22337	21280	208288	27175	964606	34852	108215	0	0	7392	1276699	0	0
2024-04-09 11:31:32			0	25396	0	0	0	22337	21310	208216	27142	964796	34855	108215	0	0	7393	1275666	0	0
2024-04-09 11:32:32			0	25396	0	0	0	22397	21340	208144	27203	964899	34879	108238	0	0	7393	1275453	0	0
2024-04-09 11:33:32			0	25400	0	0	0	22438	21380	208172	26791	965123	34882	108254	0	0	7393	1274842	0	0
2024-04-09 11:34:32			0	25382	0	0	0	22483	21410	208076	26892	965218	34884	108271	0	0	7390	1276105	0	0
2024-04-09 11:35:32			0	25387	0	0	0	22516	21470	208024	26960	965414	34877	108284	0	0	7391	1275270	0	0
2024-04-09 11:36:32			0	25375	0	0	0	22488	21500	207952	27163	965516	34880	108273	0	0	7390	1276041	0	0
2024-04-09 11:37:32			0	25385	0	0	0	22566	21530	207988	27156	965653	34872	108303	0	0	7391	1275008	0	0
2024-04-09 11:38:32			0	25386	0	0	0	22594	21570	207972	27383	965844	34875	108314	0	0	7391	1274643	0	0
2024-04-09 11:39:32			0	25402	0	0	0	22618	21600	207916	27137	965973	34910	108323	0	0	7393	1273120	0	0
2024-04-09 11:40:32			0	25391	0	0	0	22677	21630	207876	27345	966136	34891	108346	0	0	7391	1273808	0	0
2024-04-09 11:41:32			0	25388	0	0	0	22703	21670	207824	27196	966308	34894	108356	0	0	7390	1273770	0	0
2024-04-09 11:42:32			0	25387	0	0	0	22740	21710	207756	27222	966438	34918	108370	0	0	7390	1273568	0	0
2024-04-09 11:43:32			0	25378	0	0	0	22737	21750	207780	26994	966636	34900	108369	0	0	7389	1274022	0	0
2024-04-09 11:44:32			0	25395	0	0	0	22823	21790	207784	27239	966781	34914	108402	0	0	7391	1272347	0	0
2024-04-09 11:45:32			0	25382	0	0	0	22849	21830	207732	27071	966980	34928	108412	0	0	7389	1273127	0	0
2024-04-09 11:46:32			0	25381	0	0	0	22849	21860	207620	26993	967136	34931	108412	0	0	7389	1272996	0	0
2024-04-09 11:47:32			0	25387	0	0	0	22909	21890	207516	26967	967273	34944	108435	0	0	7389	1272292	0	0
2024-04-09 11:48:32			0	25387	0	0	0	22953	21920	207512	27157	967482	34958	108452	0	0	7389	1272080	0	0
2024-04-09 11:49:32			0	25392	0	0	0	22961	21960	207408	27102	967654	34950	108455	0	0	7390	1271388	0	0
2024-04-09 11:50:32			0	25373	0	0	0	23002	21990	207340	26745	967748	34941	108471	0	0	7387	1272728	0	0
2024-04-09 11:51:32			0	25383	0	0	0	22999	22040	207216	26930	967937	34956	108470	0	0	7389	1271556	0	0
2024-04-09 11:52:32			0	25393	0	0	0	23054	22070	207208	26689	968119	34958	108491	0	0	7390	1270527	0	0
2024-04-09 11:53:32			0	25390	0	0	0	23124	22110	207064	26594	968230	34972	108518	0	0	7389	1270488	0	0
2024-04-09 11:54:32			0	25400	0	0	0	23072	22150	206940	26682	968455	34954	108498	0	0	7392	1269388	0	0
2024-04-09 11:55:32			0	25412	0	0	0	22927	22180	206788	27057	968619	34978	108442	0	0	7396	1268198	0	0
2024-04-09 11:56:32			0	25425	0	0	0	23184	22210	206580	26902	968714	34969	108541	0	0	7394	1266927	0	0
2024-04-09 11:57:32			0	25436	0	0	0	23233	22250	206468	26883	969001	34984	108560	0	0	7395	1265749	0	0
2024-04-09 11:58:32			0	25434	0	0	0	23264	22270	206492	27187	969060	34974	108572	0	0	7395	1265770	0	0
2024-04-09 11:59:32			0	25445	0	0	0	23311	22310	206292	27170	969171	34988	108590	0	0	7396	1264594	0	0
2024-04-09 12:00:32			0	25450	0	0	0	23350	22360	206240	27137	969484	35002	108605	0	0	7396	1263835	0	0
2024-04-09 12:01:32			0	25434	0	0	0	23379	22390	206064	27147	969622	35005	108616	0	0	7394	1264922	0	0
2024-04-09 12:02:32			0	25450	0	0	0	23433	22440	206140	27209	969810	35021	108637	0	0	7396	1263270	0	0
2024-04-09 12:03:32			0	25429	0	0	0	23470	22480	206072	27123	969983	35024	108651	0	0	7393	1264692	0	0
2024-04-09 12:04:32			0	25422	0	0	0	23519	22530	206064	26644	970243	35039	108670	0	0	7391	1264908	0	0
2024-04-09 12:05:32			0	25426	0	0	0	23553	22560	206004	26729	970452	35007	108683	0	0	7392	1264370	0	0
2024-04-09 12:06:32			0	25415	0	0	0	23599	22620	206068	27306	970650	35023	108701	0	0	7390	1264840	0	0
2024-04-09 12:07:32			0	25421	0	0	0	23649	22670	205928	27282	970998	35060	108720	0	0	7391	1263999	0	0
2024-04-09 12:08:32			0	25404	0	0	0	23688	22700	206088	26741	971109	35063	108735	0	0	7388	1265168	0	0
2024-04-09 12:09:32			0	25420	0	0	0	23732	22750	205928	26953	971396	35056	108752	0	0	7390	1263514	0	0
2024-04-09 12:10:32			0	25413	0	0	0	23789	22810	205880	26661	971610	35072	108774	0	0	7389	1263658	0	0
2024-04-09 12:11:32			0	25391	0	0	0	23828	22870	205928	26955	971826	35076	108789	0	0	7386	1265020	0	0
2024-04-09 12:12:32			0	25391	0	0	0	23880	22920	205596	26795	972103	35102	108809	0	0	7385	1264666	0	0
2024-04-09 12:13:32			0	25397	0	0	0	23924	22980	205736	26875	972380	35074	108826	0	0	7386	1263753	0	0
2024-04-09 12:14:32			0	25385	0	0	0	23976	23020	205724	26909	972641	35088	108846	0	0	7384	1264444	0	0
2024-04-09 12:15:32			0	25377	0	0	0	24028	23090	205652	26613	972836	35094	108866	0	0	7383	1264598	0	0
2024-04-09 12:16:32			0	25376	0	0	0	24077	23140	205580	26965	973159	35109	108885	0	0	7382	1264325	0	0
2024-04-09 12:17:32			0	25383	0	0	0	24135	23200	205368	26733	973409	35102	108907	0	0	7383	1263331	0	0
2024-04-09 12:18:32			0	25372	0	0	0	24184	23270	205244	26774	973650	35119	108926	0	0	7382	1263728	0	0
2024-04-09 12:19:32			0	25374	0	0	0	24236	23310	205396	26519	973937	35144	108946	0	0	7381	1263281	0	0
2024-04-09 12:20:32			0	25361	0	0	0	24290	23360	205156	26890	974180	35137	108967	0	0	7379	1263982	0	0
2024-04-09 12:21:32			0	25376	0	0	0	24345	23430	205092	26753	974455	35143	108988	0	0	7381	1262268	0	0
2024-04-09 12:22:32			0	25361	0	0	0	24402	23490	204920	26968	974725	35158	109010	0	0	7379	1263059	0	0
2024-04-09 12:23:32			0	25369	0	0	0	24459	23560	204928	26791	975027	35153	109032	0	0	7380	1261913	0	0
2024-04-09 12:24:32			0	25365	0	0	0	24509	23620	204788	26644	975340	35179	109051	0	0	7379	1261811	0	0
2024-04-09 12:25:32			0	25363	0	0	0	24573	23680	204684	26667	975607	35173	109076	0	0	7378	1261548	0	0
2024-04-09 12:26:32			0	25365	0	0	0	24633	23750	204732	26892	975920	35189	109099	0	0	7378	1260889	0	0
2024-04-09 12:27:32			0	25376	0	0	0	24693	23820	204588	26840	976223	35217	109122	0	0	7380	1259501	0	0
2024-04-09 12:28:32			0	25354	0	0	0	24753	23880	204532	26878	976482	35210	109145	0	0	7376	1260857	0	0
2024-04-09 12:29:32			0	25371	0	0	0	24818	23950	204272	26776	976838	35216	109170	0	0	7378	1258983	0	0
2024-04-09 12:30:32			0	25367	0	0	0	24877	24010	204320	26885	977133	35221	109193	0	0	7378	1258881	0	0
2024-04-09 12:31:32			0	25367	0	0	0	24937	24090	204176	26991	977524	35239	109216	0	0	7377	1258313	0	0
2024-04-09 12:32:32			0	25356	0	0	0	24997	24150	204092	27015	977756	35254	109239	0	0	7376	1258777	0	0
2024-04-09 12:33:32			0	25356	0	0	0	25062	24230	204072	26771	978076	35250	109264	0	0	7375	1258209	0	0
2024-04-09 12:34:32			0	25357	0	0	0	25135	24300	203924	27324	978459	35255	109292	0	0	7375	1257631	0	0
2024-04-09 12:35:32			0	25350	0	0	0	25194	24380	203856	27137	978797	35261	109315	0	0	7374	1257629	0	0
2024-04-09 12:36:32			0	25328	0	0	0	25264	24450	203736	26847	979012	35278	109342	0	0	7371	1258911	0	0
2024-04-09 12:37:32			0	25341	0	0	0	25332	24520	203708	26805	979376	35272	109368	0	0	7372	1257361	0	0
2024-04-09 12:38:32			0	25325	0	0	0	25202	24590	203592	27015	979698	35289	109318	0	0	7373	1258157	0	0
2024-04-09 12:39:32			0	25330	0	0	0	25444	24670	203552	27152	979983	35294	109411	0	0	7370	1257183	0	0
2024-04-09 12:40:32			0	25335	0	0	0	25459	24730	203296	26788	980304	35299	109417	0	0	7372	1256353	0	0
2024-04-09 12:41:32			0	25352	0	0	0	25548	24800	203332	26935	980501	35294	109451	0	0	7373	1254483	0	0
2024-04-09 12:42:32			0	25348	0	0	0	25690	24870	203040	26882	980689	35333	109506	0	0	7371	1254308	0	0
2024-04-09 12:43:32			0	25364	0	0	0	25735	24920	202980	27104	980977	35315	109523	0	0	7373	1252663	0	0
2024-04-09 12:44:32			0	25354	0	0	0	25812	24970	202916	26733	981221	35307	109553	0	0	7371	1253114	0	0
2024-04-09 12:45:32			0	25359	0	0	0	25807	25020	202640	26949	981393	35323	109551	0	0	7372	1252356	0	0
2024-04-09 12:46:32			0	25339	0	0	0	25828	25070	202632	26606	981601	35327	109559	0	0	7370	1253612	0	0
2024-04-09 12:47:32			0	25356	0	0	0	25898	25120	202560	26870	981773	35352	109586	0	0	7371	1251887	0	0
2024-04-09 12:48:32			0	25346	0	0	0	25877	25170	202456	26942	981954	35356	109578	0	0	7371	1252337	0	0
2024-04-09 12:49:32			0	25347	0	0	0	25968	25200	202356	27060	982085	35359	109613	0	0	7370	1252043	0	0
2024-04-09 12:50:32			0	25374	0	0	0	26018	25250	202028	26894	982240	35362	109632	0	0	7373	1249517	0	0
2024-04-09 12:51:32			0	25370	0	0	0	26093	25280	201964	26656	982423	35343	109661	0	0	7372	1249626	0	0
2024-04-09 12:52:32			0	25389	0	0	0	26150	25300	201908	26779	982545	35367	109683	0	0	7374	1247959	0	0
2024-04-09 12:53:32			0	25386	0	0	0	26129	25340	201856	26844	982710	35359	109675	0	0	7374	1247916	0	0
2024-04-09 12:54:32			0	25377	0	0	0	26171	25380	201912	26987	982803	35373	109691	0	0	7373	1248354	0	0
2024-04-09 12:55:32			0	25377	0	0	0	26176	25420	201884	26830	982923	35387	109693	0	0	7373	1248070	0	0
2024-04-09 12:56:32			0	25369	0	0	0	26254	25430	201880	26883	983056	35366	109723	0	0	7371	1248641	0	0
2024-04-09 12:57:32			0	25354	0	0	0	26275	25460	202060	26694	983124	35368	109731	0	0	7369	1249633	0	0
2024-04-09 12:58:32			0	25353	0	0	0	26306	25490	202004	26779	983254	35381	109743	0	0	7368	1249500	0	0
2024-04-09 12:59:32			0	25347	0	0	0	26327	25510	201936	26883	983287	35406	109751	0	0	7367	1249840	0	0
2024-04-09 13:00:32			0	25337	0	0	0	26366	25540	202020	26946	983436	35397	109766	0	0	7366	1250430	0	0
2024-04-09 13:01:32			0	25312	0	0	0	26386	25550	202196	26913	983533	35397	109774	0	0	7362	1252371	0	0
2024-04-09 13:02:32			0	25313	0	0	0	26381	25580	202260	26890	983529	35388	109772	0	0	7362	1252077	0	0
2024-04-09 13:03:32			0	25288	0	0	0	26410	25600	202364	26785	983651	35402	109783	0	0	7359	1253949	0	0
2024-04-09 13:04:32			0	25280	0	0	0	26407	25620	202388	26602	983738	35415	109782	0	0	7358	1254452	0	0
2024-04-09 13:05:32			0	25278	0	0	0	26441	25630	202484	26918	983826	35416	109795	0	0	7357	1254542	0	0
2024-04-09 13:06:32			0	25251	0	0	0	26425	25650	202692	26935	983833	35406	109789	0	0	7354	1256580	0	0
2024-04-09 13:07:32			0	25256	0	0	0	26464	25660	202628	26883	983858	35395	109804	0	0	7354	1256104	0	0
2024-04-09 13:08:32			0	25234	0	0	0	26519	25690	202664	27291	984007	35419	109825	0	0	7350	1257669	0	0
2024-04-09 13:09:32			0	25223	0	0	0	26501	25710	202828	26889	984013	35410	109818	0	0	7349	1258417	0	0
2024-04-09 13:10:32			0	25216	0	0	0	26509	25710	202896	26582	984102	35421	109821	0	0	7348	1258984	0	0
2024-04-09 13:11:32			0	25204	0	0	0	26532	25720	202960	26682	984199	35411	109830	0	0	7346	1259885	0	0
2024-04-09 13:12:32			0	25209	0	0	0	26550	25730	203040	27130	984180	35412	109837	0	0	7346	1259408	0	0
2024-04-09 13:13:32			0	25185	0	0	0	26561	25750	203040	26757	984276	35414	109841	0	0	7343	1261212	0	0
2024-04-09 13:14:32			0	25179	0	0	0	26605	25760	203152	26998	984257	35425	109858	0	0	7341	1261627	0	0
2024-04-09 13:15:32			0	25171	0	0	0	26566	25770	203224	26856	984300	35425	109843	0	0	7341	1262206	0	0
2024-04-09 13:16:32			0	25154	0	0	0	26623	25790	203156	27166	984360	35438	109865	0	0	7338	1263444	0	0
2024-04-09 13:17:32			0	25159	0	0	0	26638	25790	203204	26674	984441	35427	109871	0	0	7338	1263038	0	0
2024-04-09 13:18:32			0	25162	0	0	0	26615	25810	203156	26920	984493	35428	109862	0	0	7339	1262650	0	0
2024-04-09 13:19:32			0	25149	0	0	0	26662	25810	203360	26974	984466	35417	109880	0	0	7337	1263707	0	0
2024-04-09 13:20:32			0	25155	0	0	0	26638	25820	203220	27029	984598	35441	109871	0	0	7338	1263147	0	0
2024-04-09 13:21:32			0	25136	0	0	0	26659	25830	203260	27022	984615	35419	109879	0	0	7335	1264622	0	0
2024-04-09 13:22:32			0	25146	0	0	0	26659	25840	203368	26778	984569	35431	109879	0	0	7337	1263736	0	0
2024-04-09 13:23:32			0	25129	0	0	0	26620	25850	203396	27100	984640	35454	109864	0	0	7335	1265048	0	0
2024-04-09 13:24:32			0	25146	0	0	0	26672	25860	203436	26970	984710	35433	109884	0	0	7337	1263592	0	0
2024-04-09 13:25:32			0	25147	0	0	0	26690	25860	203408	26906	984656	35444	109891	0	0	7337	1263510	0	0
2024-04-09 13:26:32			0	25135	0	0	0	26711	25880	203212	26807	984743	35446	109899	0	0	7335	1264343	0	0
2024-04-09 13:27:32			0	25144	0	0	0	26737	25880	203440	26944	984743	35435	109909	0	0	7335	1263610	0	0
2024-04-09 13:28:32			0	25143	0	0	0	26735	25890	203360	27111	984813	35435	109908	0	0	7336	1263620	0	0
2024-04-09 13:29:32			0	25123	0	0	0	26737	25890	203364	26856	984867	35447	109909	0	0	7333	1265249	0	0
2024-04-09 13:30:32			0	25141	0	0	0	26646	25890	203340	27067	984920	35447	109874	0	0	7337	1263782	0	0
2024-04-09 13:31:32			0	25152	0	0	0	26771	25900	203352	26486	984919	35447	109922	0	0	7336	1262815	0	0
2024-04-09 13:32:32			0	25136	0	0	0	26750	25910	203332	26948	984980	35481	109914	0	0	7334	1264046	0	0
2024-04-09 13:33:32			0	25139	0	0	0	26792	25920	203324	26703	985024	35459	109930	0	0	7334	1263729	0	0
2024-04-09 13:34:32			0	25150	0	0	0	26768	25910	203132	26802	985042	35448	109921	0	0	7336	1262906	0	0
2024-04-09 13:35:32			0	25158	0	0	0	26727	25930	203200	26972	985068	35460	109905	0	0	7338	1262112	0	0
2024-04-09 13:36:32			0	25169	0	0	0	26714	25930	203060	27010	985022	35450	109900	0	0	7340	1261218	0	0
2024-04-09 13:37:32			0	25161	0	0	0	26799	25940	203120	26797	985191	35484	109933	0	0	7338	1261796	0	0
2024-04-09 13:38:32			0	25167	0	0	0	26659	25940	202964	27055	985165	35461	109879	0	0	7341	1261308	0	0
2024-04-09 13:39:32			0	25176	0	0	0	26831	25950	202892	27211	985261	35451	109945	0	0	7339	1260506	0	0
2024-04-09 13:40:32			0	25185	0	0	0	26846	25950	202816	26809	985261	35462	109951	0	0	7340	1259775	0	0
2024-04-09 13:41:32			0	25195	0	0	0	26862	25950	202812	27116	985323	35462	109957	0	0	7342	1258965	0	0
2024-04-09 13:42:32			0	25194	0	0	0	26574	25950	202752	26630	985342	35451	109846	0	0	7347	1259045	0	0
2024-04-09 13:43:32			0	25219	0	0	0	26722	25960	202692	26899	985251	35462	109903	0	0	7348	1256949	0	0
2024-04-09 13:44:32			0	25233	0	0	0	26745	25950	202612	26989	985235	35428	109912	0	0	7349	1255889	0	0
2024-04-09 13:45:32			0	25254	0	0	0	26181	25940	202452	26785	985092	35451	109695	0	0	7362	1254264	0	0
2024-04-09 13:46:32			0	25250	0	0	0	26485	25920	202456	26823	984845	35438	109812	0	0	7356	1254730	0	0
2024-04-09 13:47:32			0	25253	0	0	0	26545	25900	202504	27038	984696	35436	109835	0	0	7355	1254631	0	0
2024-04-09 13:48:32			0	25262	0	0	0	26563	25860	202472	26916	984496	35411	109842	0	0	7355	1254190	0	0
2024-04-09 13:49:32			0	25261	0	0	0	26566	25840	202804	26956	984409	35431	109843	0	0	7355	1254414	0	0
2024-04-09 13:50:32			0	25241	0	0	0	26542	25780	202656	27031	984103	35405	109834	0	0	7352	1256459	0	0
2024-04-09 13:51:32			0	25228	0	0	0	26524	25760	202884	26955	983963	35414	109827	0	0	7350	1257654	0	0
2024-04-09 13:52:32			0	25250	0	0	0	26527	25710	202884	27024	983933	35399	109828	0	0	7352	1256232	0	0
2024-04-09 13:53:32			0	25228	0	0	0	26516	25690	203140	27015	983855	35398	109824	0	0	7349	1258155	0	0
2024-04-09 13:54:32			0	25243	0	0	0	26018	25650	202996	26752	983565	35394	109632	0	0	7360	1257227	0	0
2024-04-09 13:55:32			0	25230	0	0	0	25942	25620	203144	26927	983435	35370	109603	0	0	7359	1258494	0	0
2024-04-09 13:56:32			0	25226	0	0	0	25961	25570	203436	26781	983111	35366	109610	0	0	7357	1259176	0	0
2024-04-09 13:57:32			0	25229	0	0	0	25942	25510	203460	27033	982886	35361	109603	0	0	7357	1259363	0	0
2024-04-09 13:58:32			0	25217	0	0	0	26106	25450	203716	26635	982660	35368	109666	0	0	7352	1260766	0	0
2024-04-09 13:59:32			0	25221	0	0	0	26124	25410	203832	27069	982586	35365	109673	0	0	7352	1260728	0	0
2024-04-09 14:00:32			0	25214	0	0	0	26114	25370	204024	27000	982412	35350	109669	0	0	7350	1261583	0	0
2024-04-09 14:01:32			0	25218	0	0	0	26181	25330	204156	26958	982319	35369	109695	0	0	7349	1261545	0	0
2024-04-09 14:02:32			0	25204	0	0	0	26215	25300	204276	26901	982385	35377	109708	0	0	7346	1262898	0	0
2024-04-09 14:03:32			0	25188	0	0	0	26257	25290	204332	26956	982475	35377	109724	0	0	7343	1264271	0	0
2024-04-09 14:04:32			0	25164	0	0	0	26314	25280	204656	26755	982512	35399	109746	0	0	7338	1266298	0	0
2024-04-09 14:05:32			0	25152	0	0	0	26373	25270	204692	26472	982575	35398	109769	0	0	7335	1267349	0	0
2024-04-09 14:06:32			0	25125	0	0	0	26444	25290	204888	26661	982707	35420	109796	0	0	7330	1269412	0	0
2024-04-09 14:07:32			0	25108	0	0	0	26506	25290	205072	26693	982895	35410	109820	0	0	7327	1270803	0	0
2024-04-09 14:08:32			0	25114	0	0	0	26690	25300	205012	26958	982965	35433	109891	0	0	7324	1270239	0	0
2024-04-09 14:09:32			0	25131	0	0	0	26896	25310	205180	26720	983196	35445	109970	0	0	7323	1268777	0	0
2024-04-09 14:10:32			0	25104	0	0	0	26942	25340	205312	26694	983540	35458	109988	0	0	7319	1270769	0	0
2024-04-09 14:11:32			0	25081	0	0	0	27054	25390	205636	26942	983944	35496	110031	0	0	7314	1272293	0	0
2024-04-09 14:12:32			0	25064	0	0	0	27166	25440	205648	26923	984322	35510	110074	0	0	7310	1273326	0	0
2024-04-09 14:13:32			0	25029	0	0	0	27283	25500	205776	26866	984716	35516	110119	0	0	7303	1275768	0	0
2024-04-09 14:14:32			0	25018	0	0	0	27410	25560	205964	26927	985030	35532	110168	0	0	7300	1276238	0	0
2024-04-09 14:15:32			0	25001	0	0	0	27599	25650	206136	27029	985386	35572	110241	0	0	7295	1276984	0	0
2024-04-09 14:16:32			0	25000	0	0	0	27662	25700	206008	26833	985746	35565	110265	0	0	7295	1276703	0	0
2024-04-09 14:17:32			0	25001	0	0	0	27745	25760	205932	26866	985971	35581	110297	0	0	7294	1276184	0	0
2024-04-09 14:18:32			0	24977	0	0	0	27823	25810	206140	26719	986188	35596	110327	0	0	7290	1277798	0	0
2024-04-09 14:19:32			0	24972	0	0	0	27893	25850	206132	26961	986327	35587	110354	0	0	7288	1277919	0	0
2024-04-09 14:20:32			0	24953	0	0	0	27968	25900	206160	27069	986598	35625	110383	0	0	7285	1279123	0	0
2024-04-09 14:21:32			0	24952	0	0	0	28031	25950	206196	26826	986958	35628	110407	0	0	7284	1278841	0	0
2024-04-09 14:22:32			0	24939	0	0	0	28101	25990	206208	26717	987131	35666	110434	0	0	7281	1279623	0	0
2024-04-09 14:23:32			0	24925	0	0	0	28179	26050	206428	26701	987384	35648	110464	0	0	7279	1280341	0	0
2024-04-09 14:24:32			0	24914	0	0	0	28241	26110	206276	26911	987583	35652	110488	0	0	7277	1280813	0	0
2024-04-09 14:25:32			0	24895	0	0	0	28301	26160	206256	27085	987942	35668	110511	0	0	7273	1282019	0	0
2024-04-09 14:26:32			0	24877	0	0	0	28374	26220	206372	26788	988195	35695	110539	0	0	7270	1283071	0	0
2024-04-09 14:27:32			0	24890	0	0	0	28454	26290	206280	26960	988562	35701	110570	0	0	7271	1281482	0	0
2024-04-09 14:28:32			0	24870	0	0	0	28519	26350	206404	26791	988796	35706	110595	0	0	7268	1282698	0	0
2024-04-09 14:29:32			0	24897	0	0	0	29080	26400	206040	26852	988916	35698	110811	0	0	7263	1280098	0	0
2024-04-09 14:30:32			0	24917	0	0	0	28867	26450	205968	26901	989277	35713	110729	0	0	7270	1278080	0	0
2024-04-09 14:31:32			0	24909	0	0	0	28945	26520	206032	26856	989688	35752	110759	0	0	7269	1278229	0	0
2024-04-09 14:32:32			0	24879	0	0	0	29025	26600	206096	26731	989983	35725	110790	0	0	7264	1280122	0	0
2024-04-09 14:33:32			0	24849	0	0	0	29096	26690	206228	26729	990224	35720	110817	0	0	7259	1281945	0	0
2024-04-09 14:34:32			0	24832	0	0	0	29148	26750	206368	26771	990521	35714	110837	0	0	7256	1282913	0	0
2024-04-09 14:35:32			0	24816	0	0	0	29199	26820	206520	27157	990844	35731	110857	0	0	7254	1283725	0	0
2024-04-09 14:36:32			0	24801	0	0	0	29215	26870	206692	27046	990963	35713	110863	0	0	7252	1284603	0	0
2024-04-09 14:37:32			0	24787	0	0	0	29241	26930	206648	26653	991109	35707	110873	0	0	7250	1285324	0	0
2024-04-09 14:38:32			0	24776	0	0	0	29249	26970	206788	26727	991248	35698	110876	0	0	7248	1285943	0	0
2024-04-09 14:39:32			0	24883	0	0	0	17841	26990	188176	28233	988847	35633	106484	0	0	7473	1276935	0	0
2024-04-09 14:40:32			0	26258	0	0	0	17527	26250	180093	29424	976248	34551	106363	0	0	7645	1174049	0	0
2024-04-09 14:41:32			0	27458	0	0	0	17410	25050	172906	29686	969034	33927	106318	0	0	7758	1095248	0	0
2024-04-09 14:42:32			0	28435	0	0	0	17371	23910	168251	29261	964609	33653	106303	0	0	7835	1036207	0	0
2024-04-09 14:43:32			0	29240	0	0	0	17319	22960	164820	29634	961776	33548	106283	0	0	7893	990049	0	0
2024-04-09 14:44:32			0	29890	0	0	0	17324	22200	162413	29733	959755	33513	106285	0	0	7937	954205	0	0
2024-04-09 14:45:32			0	30419	0	0	0	17314	21530	160610	29969	958050	33452	106281	0	0	7970	926201	0	0
2024-04-09 14:46:32			0	30856	0	0	0	17301	20990	159138	29884	956763	33456	106276	0	0	7997	903563	0	0
2024-04-09 14:47:32			0	31205	0	0	0	17316	20530	158263	30293	955679	33498	106282	0	0	8018	885979	0	0
2024-04-09 14:48:32			0	31491	0	0	0	17327	20100	157463	29337	954758	33520	106286	0	0	8034	872045	0	0
2024-04-09 14:49:32			0	31717	0	0	0	17301	19740	156979	29219	953917	33538	106276	0	0	8047	861261	0	0
2024-04-09 14:50:32			0	31912	0	0	0	17298	19420	156587	29812	953213	33600	106275	0	0	8058	852087	0	0
2024-04-09 14:51:32			0	32085	0	0	0	17285	19110	156152	29852	952568	33642	106270	0	0	8067	844136	0	0
2024-04-09 14:52:32			0	32239	0	0	0	17306	18840	156008	29181	952032	33655	106278	0	0	8075	837079	0	0
2024-04-09 14:53:32			0	32344	0	0	0	17296	18610	155828	29251	951421	33713	106274	0	0	8080	832503	0	0
2024-04-09 14:54:32			0	32428	0	0	0	17319	18390	155692	29750	951047	33751	106283	0	0	8084	829019	0	0
2024-04-09 14:55:32			0	32540	0	0	0	17314	18190	155388	29349	950652	33780	106281	0	0	8090	823969	0	0
2024-04-09 14:56:32			0	32622	0	0	0	17353	18010	155312	30086	950316	33810	106296	0	0	8093	820437	0	0
2024-04-09 14:57:32			0	32693	0	0	0	17314	17850	155224	29865	949977	33831	106281	0	0	8098	817406	0	0
2024-04-09 14:58:32			0	32749	0	0	0	17316	17700	155196	29526	949637	33852	106282	0	0	8100	815126	0	0
2024-04-09 14:59:32			0	32806	0	0	0	17311	17560	155105	29199	949358	33885	106280	0	0	8103	812754	0	0
2024-04-09 15:00:32			0	32860	0	0	0	17327	17440	155153	29986	949119	33898	106286	0	0	8105	810455	0	0
2024-04-09 15:01:32			0	32888	0	0	0	17306	17330	155049	30531	948949	33921	106278	0	0	8107	809476	0	0
2024-04-09 15:02:32			0	32919	0	0	0	17322	17220	155101	29566	948692	33946	106284	0	0	8108	808340	0	0
2024-04-09 15:03:32			0	32972	0	0	0	17296	17130	154909	29398	948407	33939	106274	0	0	8111	805970	0	0
2024-04-09 15:04:32			0	32987	0	0	0	17303	17050	154937	30015	948356	33965	106277	0	0	8112	805539	0	0
2024-04-09 15:05:32			0	33010	0	0	0	17314	16970	154993	29734	948138	33971	106281	0	0	8112	804691	0	0
2024-04-09 15:06:32			0	33033	0	0	0	17345	16900	154905	28724	948043	33998	106293	0	0	8113	803800	0	0
2024-04-09 15:07:32			0	33067	0	0	0	17316	16830	154953	29107	947859	34003	106282	0	0	8115	802339	0	0
2024-04-09 15:08:32			0	33071	0	0	0	17335	16770	155013	28686	947754	34020	106289	0	0	8115	802392	0	0
2024-04-09 15:09:32			0	33083	0	0	0	17324	16710	154997	28735	947568	34016	106285	0	0	8115	802030	0	0
2024-04-09 15:10:32			0	33119	0	0	0	17316	16670	154989	29150	947521	34023	106282	0	0	8117	800336	0	0
2024-04-09 15:11:32			0	33094	0	0	0	17309	16620	154973	29197	947440	34019	106279	0	0	8116	801849	0	0
2024-04-09 15:12:32			0	33123	0	0	0	17350	16570	154937	29001	947315	34027	106295	0	0	8117	800562	0	0
2024-04-09 15:13:32			0	33147	0	0	0	17319	16530	154905	27486	947224	34045	106283	0	0	8118	799493	0	0
2024-04-09 15:14:32			0	33172	0	0	0	17280	16490	154833	27737	947027	34041	106268	0	0	8120	798372	0	0
2024-04-09 15:15:32			0	33181	0	0	0	17288	16440	154953	27384	946928	34027	106271	0	0	8120	798122	0	0
2024-04-09 15:16:32			0	33169	0	0	0	17296	16400	154913	27602	946864	34046	106274	0	0	8119	798916	0	0
2024-04-09 15:17:32			0	33183	0	0	0	17277	16370	154805	27654	946789	34055	106267	0	0	8120	798321	0	0
2024-04-09 15:18:32			0	33217	0	0	0	17288	16350	154797	27517	946749	34064	106271	0	0	8122	796650	0	0
2024-04-09 15:19:32			0	33222	0	0	0	17288	16320	154813	27933	946647	34050	106271	0	0	8122	796521	0	0
2024-04-09 15:20:32			0	33231	0	0	0	17303	16290	154781	27448	946607	34059	106277	0	0	8122	796186	0	0
2024-04-09 15:21:32			0	33238	0	0	0	17296	16270	154877	27402	946620	34058	106274	0	0	8123	795911	0	0
2024-04-09 15:22:32			0	33239	0	0	0	17301	16250	154917	27959	946516	34078	106276	0	0	8123	795945	0	0
2024-04-09 15:23:32			0	33225	0	0	0	17301	16240	154817	27665	946526	34055	106276	0	0	8122	796711	0	0
2024-04-09 15:24:32			0	33249	0	0	0	17301	16210	154801	28018	946470	34052	106276	0	0	8123	795601	0	0
2024-04-09 15:25:32			0	33271	0	0	0	17298	16200	154905	27698	946435	34063	106275	0	0	8125	794510	0	0
2024-04-09 15:26:32			0	33267	0	0	0	17314	16180	154905	27736	946430	34062	106281	0	0	8124	794802	0	0
2024-04-09 15:27:32			0	33267	0	0	0	17314	16190	154881	27540	946464	34073	106281	0	0	8124	794759	0	0
2024-04-09 15:28:32			0	33287	0	0	0	17314	16180	154789	27874	946430	34083	106281	0	0	8125	793772	0	0
2024-04-09 15:29:32			0	33288	0	0	0	17335	16160	154785	27566	946424	34071	106289	0	0	8125	793806	0	0
2024-04-09 15:30:32			0	33297	0	0	0	17322	16150	154705	27606	946381	34082	106284	0	0	8125	793386	0	0
2024-04-09 15:31:32			0	33310	0	0	0	17314	16140	154613	27920	946365	34080	106281	0	0	8126	792760	0	0
2024-04-09 15:32:32			0	33317	0	0	0	17322	16140	154549	27770	946365	34080	106284	0	0	8127	792400	0	0
2024-04-09 15:33:32			0	33327	0	0	0	17316	16130	154649	27944	946383	34069	106282	0	0	8127	791929	0	0
2024-04-09 15:34:32			0	33326	0	0	0	17335	16130	154665	27916	946304	34069	106289	0	0	8127	791980	0	0
2024-04-09 15:35:32			0	33328	0	0	0	17311	16130	154621	27505	946323	34090	106280	0	0	8127	791877	0	0
2024-04-09 15:36:32			0	33326	0	0	0	17322	16120	154689	27892	946333	34079	106284	0	0	8127	792023	0	0
2024-04-09 15:37:32			0	33335	0	0	0	17316	16120	154709	27744	946341	34080	106282	0	0	8128	791560	0	0
2024-04-09 15:38:32			0	33337	0	0	0	17311	16110	154581	27635	946264	34078	106280	0	0	8128	791500	0	0
2024-04-09 15:39:32			0	33364	0	0	0	17306	16110	154509	27829	946316	34078	106278	0	0	8130	790114	0	0
2024-04-09 15:40:32			0	33361	0	0	0	17298	16100	154573	27673	946300	34077	106275	0	0	8129	790311	0	0
2024-04-09 15:41:32			0	33360	0	0	0	17342	16100	154473	27535	946274	34077	106292	0	0	8129	790362	0	0
2024-04-09 15:42:32			0	33363	0	0	0	17322	16090	154525	27452	946240	34099	106284	0	0	8129	790251	0	0
2024-04-09 15:43:32			0	33386	0	0	0	17309	16100	154417	28079	946274	34088	106279	0	0	8131	789029	0	0
2024-04-09 15:44:32			0	33393	0	0	0	17319	16090	154389	27537	946284	34098	106283	0	0	8131	788713	0	0
2024-04-09 15:45:32			0	33376	0	0	0	17316	16090	154405	27897	946240	34099	106282	0	0	8130	789584	0	0
2024-04-09 15:46:32			0	33400	0	0	0	17301	16090	154421	27847	946205	34087	106276	0	0	8132	788355	0	0
2024-04-09 15:47:32			0	33380	0	0	0	17280	16090	154465	27795	946205	34098	106268	0	0	8131	789379	0	0
2024-04-09 15:48:32			0	33401	0	0	0	17298	16070	154433	27666	946207	34086	106275	0	0	8132	788389	0	0
2024-04-09 15:49:32			0	33413	0	0	0	17303	16080	154405	27789	946171	34098	106277	0	0	8132	787732	0	0
2024-04-09 15:50:32			0	33428	0	0	0	17285	16070	154397	27576	946128	34086	106270	0	0	8133	787007	0	0
2024-04-09 15:51:32			0	33423	0	0	0	17298	16070	154329	27791	946120	34085	106275	0	0	8133	787263	0	0
2024-04-09 15:52:32			0	33405	0	0	0	17303	16070	154433	27769	946207	34076	106277	0	0	8132	788184	0	0
2024-04-09 15:53:32			0	33397	0	0	0	17283	16070	154365	27434	946068	34096	106269	0	0	8132	788593	0	0
2024-04-09 15:54:32			0	33422	0	0	0	17290	16070	154385	27904	946147	34085	106272	0	0	8133	787314	0	0
2024-04-09 15:55:32			0	33405	0	0	0	17303	16060	154325	27575	946104	34096	106277	0	0	8132	788226	0	0
2024-04-09 15:56:32			0	33412	0	0	0	17306	16060	154305	27505	946131	34084	106278	0	0	8132	787868	0	0
2024-04-09 15:57:32			0	33417	0	0	0	17306	16050	154369	27692	946149	34095	106278	0	0	8132	787655	0	0
2024-04-09 15:58:32			0	33426	0	0	0	17285	16050	154261	27632	946175	34084	106270	0	0	8133	787194	0	0
2024-04-09 15:59:32			0	33432	0	0	0	17298	16050	154233	28067	946043	34095	106275	0	0	8133	786888	0	0
2024-04-09 16:00:32			0	33446	0	0	0	17288	16050	154229	27595	946088	34095	106271	0	0	8134	786172	0	0
2024-04-09 16:01:32			0	33420	0	0	0	17264	16050	154233	27403	946062	34095	106262	0	0	8133	787501	0	0
2024-04-09 16:02:32			0	33443	0	0	0	17277	16050	154357	27464	946114	34084	106267	0	0	8134	786325	0	0
2024-04-09 16:03:32			0	33423	0	0	0	17262	16050	154393	27511	946141	34084	106261	0	0	8133	787348	0	0
2024-04-09 16:04:32			0	33401	0	0	0	17264	16040	154293	27412	946054	34094	106262	0	0	8132	788516	0	0
2024-04-09 16:05:32			0	33403	0	0	0	17259	16040	154505	27843	946072	34094	106260	0	0	8132	788414	0	0
2024-04-09 16:06:32			0	33411	0	0	0	17249	16030	154477	27781	946011	34093	106256	0	0	8133	788047	0	0
2024-04-09 16:07:32			0	33401	0	0	0	17246	16040	154473	27379	946046	34083	106255	0	0	8132	788516	0	0
2024-04-09 16:08:32			0	33378	0	0	0	17228	16030	154613	27473	946030	34083	106248	0	0	8131	789737	0	0
2024-04-09 16:09:32			0	33390	0	0	0	17233	16030	154505	27649	945950	34104	106250	0	0	8132	789122	0	0
2024-04-09 16:10:32			0	33388	0	0	0	17233	16020	154585	27770	945961	34082	106250	0	0	8132	789267	0	0
2024-04-09 16:11:32			0	33375	0	0	0	17223	16010	154585	27564	945892	34082	106246	0	0	8131	789977	0	0
2024-04-09 16:12:32			0	33373	0	0	0	17236	16010	154497	27637	945866	34082	106251	0	0	8131	790079	0	0
2024-04-09 16:13:32			0	33375	0	0	0	17228	16000	154637	27659	945884	34091	106248	0	0	8131	790019	0	0
2024-04-09 16:14:32			0	33358	0	0	0	17228	16000	154573	27490	945823	34090	106248	0	0	8130	790891	0	0
2024-04-09 16:15:32			0	33373	0	0	0	17236	16010	154597	27713	945918	34071	106251	0	0	8131	790079	0	0
2024-04-09 16:16:32			0	33364	0	0	0	17264	16010	154617	27502	945945	34082	106262	0	0	8130	790541	0	0
2024-04-09 16:17:32			0	33374	0	0	0	17244	16000	154537	27770	945928	34090	106254	0	0	8131	790070	0	0
2024-04-09 16:18:32			0	33381	0	0	0	17251	16000	154577	27543	945928	34090	106257	0	0	8131	789711	0	0
2024-04-09 16:19:32			0	33379	0	0	0	17244	16000	154605	27457	945849	34080	106254	0	0	8131	789814	0	0
2024-04-09 16:20:32			0	33387	0	0	0	17251	16000	154477	27568	945902	34090	106257	0	0	8131	789404	0	0
2024-04-09 16:21:32			0	33380	0	0	0	17241	16010	154585	27796	945945	34071	106253	0	0	8131	789720	0	0
2024-04-09 16:22:32			0	33368	0	0	0	17231	15990	154617	27557	945867	34090	106249	0	0	8130	790421	0	0
2024-04-09 16:23:32			0	33374	0	0	0	17228	15990	154581	27921	945894	34090	106248	0	0	8131	790113	0	0
2024-04-09 16:24:32			0	33377	0	0	0	17254	16000	154617	27795	945955	34090	106258	0	0	8131	789916	0	0
2024-04-09 16:25:32			0	33380	0	0	0	17231	15990	154569	27479	945867	34090	106249	0	0	8131	789805	0	0
2024-04-09 16:26:32			0	33372	0	0	0	17236	16000	154581	27685	945902	34090	106251	0	0	8131	790173	0	0
2024-04-09 16:27:32			0	33366	0	0	0	17225	15990	154621	27592	945859	34080	106247	0	0	8130	790523	0	0
2024-04-09 16:28:32			0	33356	0	0	0	17210	15990	154541	27483	945867	34090	106241	0	0	8130	791037	0	0
2024-04-09 16:29:32			0	33351	0	0	0	17220	15990	154753	27809	945815	34090	106245	0	0	8130	791293	0	0
2024-04-09 16:30:32			0	33339	0	0	0	17231	15990	154813	27543	945859	34090	106249	0	0	8129	791910	0	0
2024-04-09 16:31:32			0	33384	0	0	0	17238	15980	154709	27568	945825	34090	106252	0	0	8131	789643	0	0
2024-04-09 16:32:32			0	33381	0	0	0	17238	15970	154645	27599	945809	34100	106252	0	0	8131	789839	0	0
2024-04-09 16:33:32			0	33393	0	0	0	17238	15980	154581	27388	945825	34079	106252	0	0	8132	789181	0	0
2024-04-09 16:34:32			0	33384	0	0	0	17225	15980	154697	27842	945851	34090	106247	0	0	8131	789643	0	0
2024-04-09 16:35:32			0	33389	0	0	0	17233	15980	154589	27711	945878	34090	106250	0	0	8132	789386	0	0
2024-04-09 16:36:32			0	33392	0	0	0	17233	15980	154505	27474	945817	34089	106250	0	0	8132	789233	0	0
2024-04-09 16:37:32			0	33417	0	0	0	17241	15980	154505	27505	945817	34100	106253	0	0	8133	787952	0	0
2024-04-09 16:38:32			0	33400	0	0	0	17223	15980	154453	27696	945843	34089	106246	0	0	8132	788823	0	0
2024-04-09 16:39:32			0	33423	0	0	0	17233	15980	154573	27750	945870	34089	106250	0	0	8134	787645	0	0
2024-04-09 16:40:32			0	33401	0	0	0	17238	15980	154565	27892	945870	34089	106252	0	0	8132	788771	0	0
2024-04-09 16:41:32			0	33415	0	0	0	17233	15970	154529	27656	945756	34100	106250	0	0	8133	788097	0	0
2024-04-09 16:42:32			0	33421	0	0	0	17244	15990	154497	27920	945807	34101	106254	0	0	8133	787705	0	0
2024-04-09 16:43:32			0	33396	0	0	0	17218	15970	154517	27633	945775	34078	106244	0	0	8132	789070	0	0
2024-04-09 16:44:32			0	33423	0	0	0	17225	15980	154553	27348	945825	34112	106247	0	0	8134	787645	0	0
2024-04-09 16:45:32			0	33381	0	0	0	17233	15970	154453	27718	945827	34099	106250	0	0	8131	789839	0	0
2024-04-09 16:46:32			0	33401	0	0	0	17212	15970	154481	27372	945775	34088	106242	0	0	8133	788814	0	0
2024-04-09 16:47:32			0	33383	0	0	0	17212	15980	154617	27789	945738	34100	106242	0	0	8132	789694	0	0
2024-04-09 16:48:32			0	33378	0	0	0	17207	15970	154693	27822	945775	34099	106240	0	0	8131	789993	0	0
2024-04-09 16:49:32			0	33365	0	0	0	17215	15980	154665	27407	945764	34100	106243	0	0	8130	790617	0	0
2024-04-09 16:50:32			0	33361	0	0	0	17205	15970	154781	27963	945748	34088	106239	0	0	8130	790865	0	0
2024-04-09 16:51:32			0	33395	0	0	0	17215	15960	154697	27479	945714	34099	106243	0	0	8132	789164	0	0
2024-04-09 16:52:32			0	33360	0	0	0	17210	15970	154749	27717	945756	34100	106241	0	0	8130	790917	0	0
2024-04-09 16:53:32			0	33356	0	0	0	17205	15960	154789	27549	945793	34121	106239	0	0	8130	791165	0	0
2024-04-09 16:54:32			0	33352	0	0	0	17199	15960	154893	27874	945706	34087	106237	0	0	8130	791370	0	0
2024-04-09 16:55:32			0	33363	0	0	0	17202	15970	154885	27557	945748	34088	106238	0	0	8131	790763	0	0
2024-04-09 16:56:32			0	33333	0	0	0	17205	15960	154837	27473	945740	34099	106239	0	0	8129	792347	0	0
2024-04-09 16:57:32			0	33325	0	0	0	17202	15950	154881	27547	945750	34098	106238	0	0	8128	792801	0	0
2024-04-09 16:58:32			0	33351	0	0	0	17210	15960	154953	27466	945740	34088	106241	0	0	8130	791422	0	0
2024-04-09 16:59:32			0	33342	0	0	0	17218	15960	154929	27511	945785	34098	106244	0	0	8129	791884	0	0
2024-04-09 17:00:32			0	33351	0	0	0	17223	15960	154957	27443	945740	34099	106246	0	0	8129	791422	0	0
2024-04-09 17:01:32			0	33320	0	0	0	17212	15960	154937	27890	945740	34099	106242	0	0	8128	793015	0	0
2024-04-09 17:02:32			0	33343	0	0	0	17215	15960	154933	27332	945785	34087	106243	0	0	8129	791833	0	0
2024-04-09 17:03:32			0	33335	0	0	0	17238	15960	154853	27725	945785	34110	106252	0	0	8128	792244	0	0
2024-04-09 17:04:32			0	33354	0	0	0	17225	15960	154837	27706	945793	34099	106247	0	0	8130	791268	0	0
2024-04-09 17:05:32			0	33376	0	0	0	17254	15960	154705	27050	945785	34121	106258	0	0	8130	790138	0	0
2024-04-09 17:06:32			0	33416	0	0	0	17259	15960	154697	27497	945758	34098	106260	0	0	8133	788088	0	0
2024-04-09 17:07:32			0	33416	0	0	0	17270	15970	154661	27256	945862	34100	106264	0	0	8133	788046	0	0
2024-04-09 17:08:32			0	33426	0	0	0	17275	15970	154509	27203	945854	34099	106266	0	0	8133	787534	0	0
2024-04-09 17:09:32			0	33450	0	0	0	17257	15980	154501	27530	945851	34101	106259	0	0	8135	786265	0	0
2024-04-09 17:10:32			0	33434	0	0	0	17275	15990	154481	27322	945894	34101	106266	0	0	8134	787040	0	0
2024-04-09 17:11:32			0	33427	0	0	0	17296	15980	154589	27279	945930	34112	106274	0	0	8133	787441	0	0
2024-04-09 17:12:32			0	33429	0	0	0	17296	15990	154493	27374	945965	34113	106274	0	0	8133	787296	0	0
2024-04-09 17:13:32			0	33428	0	0	0	17309	15990	154537	27261	945920	34124	106279	0	0	8133	787347	0	0
2024-04-09 17:14:32			0	33420	0	0	0	17301	15990	154545	27388	945946	34113	106276	0	0	8132	787756	0	0
2024-04-09 17:15:32			0	33428	0	0	0	17303	16010	154641	27592	945945	34135	106277	0	0	8133	787262	0	0
2024-04-09 17:16:32			0	33418	0	0	0	17293	16010	154517	27279	945971	34125	106273	0	0	8132	787774	0	0
2024-04-09 17:17:32			0	33403	0	0	0	17301	16010	154585	27081	945997	34125	106276	0	0	8131	788541	0	0
2024-04-09 17:18:32			0	33412	0	0	0	17301	16020	154557	27447	946013	34104	106276	0	0	8132	788038	0	0
2024-04-09 17:19:32			0	33412	0	0	0	17301	16030	154601	27753	946056	34116	106276	0	0	8132	787996	0	0
2024-04-09 17:20:32			0	33397	0	0	0	17303	16020	154601	27632	945987	34115	106277	0	0	8131	788806	0	0
2024-04-09 17:21:32			0	33392	0	0	0	17311	16020	154657	27371	945961	34115	106280	0	0	8131	789062	0	0
2024-04-09 17:22:32			0	33392	0	0	0	17314	16030	154705	27616	946082	34126	106281	0	0	8131	789020	0	0
2024-04-09 17:23:32			0	33387	0	0	0	17309	16030	154697	27564	946030	34116	106279	0	0	8130	789276	0	0
2024-04-09 17:24:32			0	33374	0	0	0	17316	16020	154653	27424	946048	34104	106282	0	0	8129	789985	0	0
2024-04-09 17:25:32			0	33390	0	0	0	17322	16030	154581	27692	946082	34126	106284	0	0	8130	789122	0	0
2024-04-09 17:26:32			0	33395	0	0	0	17324	16030	154633	27530	946038	34116	106285	0	0	8131	788866	0	0
2024-04-09 17:27:32			0	33393	0	0	0	17329	16040	154713	27296	946098	34105	106287	0	0	8130	788926	0	0
2024-04-09 17:28:32			0	33390	0	0	0	17324	16040	154669	27298	946106	34116	106285	0	0	8130	789080	0	0
2024-04-09 17:29:32			0	33396	0	0	0	17332	16030	154705	27526	946082	34104	106288	0	0	8131	788815	0	0
2024-04-09 17:30:32			0	33381	0	0	0	17322	16040	154725	27460	946019	34127	106284	0	0	8130	789541	0	0
2024-04-09 17:31:32			0	33389	0	0	0	17316	16040	154653	27322	946080	34116	106282	0	0	8130	789131	0	0
2024-04-09 17:32:32			0	33375	0	0	0	17319	16040	154725	27618	946098	34116	106283	0	0	8130	789849	0	0
2024-04-09 17:33:32			0	33383	0	0	0	17322	16040	154757	27533	946080	34105	106284	0	0	8130	789439	0	0
2024-04-09 17:34:32			0	33394	0	0	0	17319	16030	154721	27341	946064	34116	106283	0	0	8131	788917	0	0
2024-04-09 17:35:32			0	33370	0	0	0	17316	16050	154741	27566	946141	34127	106282	0	0	8129	790062	0	0
2024-04-09 17:36:32			0	33394	0	0	0	17306	16040	154761	27384	946054	34116	106278	0	0	8131	788875	0	0
2024-04-09 17:37:32			0	33398	0	0	0	17303	16050	154741	27339	946114	34106	106277	0	0	8131	788627	0	0
2024-04-09 17:38:32			0	33392	0	0	0	17298	16030	154745	27390	946090	34137	106275	0	0	8131	789020	0	0
2024-04-09 17:39:32			0	33394	0	0	0	17306	16030	154637	27428	946011	34116	106278	0	0	8131	788917	0	0
2024-04-09 17:40:32			0	33409	0	0	0	17301	16030	154585	27263	946038	34104	106276	0	0	8132	788149	0	0
2024-04-09 17:41:32			0	33428	0	0	0	17309	16040	154589	27376	946019	34127	106279	0	0	8133	787134	0	0
2024-04-09 17:42:32			0	33418	0	0	0	17314	16040	154601	27364	946080	34116	106281	0	0	8132	787646	0	0
2024-04-09 17:43:32			0	33413	0	0	0	17327	16050	154525	27291	946062	34117	106286	0	0	8132	787859	0	0
2024-04-09 17:44:32			0	33430	0	0	0	17327	16030	154377	27460	946090	34116	106286	0	0	8133	787075	0	0
2024-04-09 17:45:32			0	33438	0	0	0	17301	16050	154421	27377	946114	34117	106276	0	0	8134	786581	0	0
2024-04-09 17:46:32			0	33440	0	0	0	17309	16040	154449	27568	946054	34116	106279	0	0	8134	786521	0	0
2024-04-09 17:47:32			0	33440	0	0	0	17309	16050	154365	27234	946062	34117	106279	0	0	8134	786479	0	0
2024-04-09 17:48:32			0	33458	0	0	0	17296	16040	154293	27402	946080	34127	106274	0	0	8135	785602	0	0
2024-04-09 17:49:32			0	33445	0	0	0	17303	16040	154357	27265	946106	34127	106277	0	0	8134	786266	0	0
2024-04-09 17:50:32			0	33453	0	0	0	17306	16040	154393	27357	946046	34127	106278	0	0	8134	785857	0	0
2024-04-09 17:51:32			0	33458	0	0	0	17293	16040	154445	27542	946133	34127	106273	0	0	8135	785602	0	0
2024-04-09 17:52:32			0	33448	0	0	0	17298	16040	154537	27189	946054	34116	106275	0	0	8134	786112	0	0
2024-04-09 17:53:32			0	33453	0	0	0	17293	16040	154501	27478	946072	34127	106273	0	0	8135	785857	0	0
2024-04-09 17:54:32			0	33438	0	0	0	17288	16040	154565	26958	946046	34127	106271	0	0	8134	786623	0	0
2024-04-09 17:55:32			0	33441	0	0	0	17290	16030	154441	27111	946011	34116	106272	0	0	8134	786512	0	0
2024-04-09 17:56:32			0	33439	0	0	0	17293	16030	154609	27038	946038	34126	106273	0	0	8134	786615	0	0
2024-04-09 17:57:32			0	33434	0	0	0	17298	16030	154617	27332	946011	34126	106275	0	0	8133	786870	0	0
2024-04-09 17:58:32			0	33427	0	0	0	17293	16030	154521	27229	945985	34126	106273	0	0	8133	787228	0	0
2024-04-09 17:59:32			0	33425	0	0	0	17290	16040	154461	27324	946046	34127	106272	0	0	8133	787288	0	0
2024-04-09 18:00:32			0	33426	0	0	0	17285	16040	154485	27415	946027	34105	106270	0	0	8133	787237	0	0
2024-04-09 18:01:32			0	33417	0	0	0	17288	16020	154557	27192	945942	34115	106271	0	0	8133	787782	0	0
2024-04-09 18:02:32			0	33426	0	0	0	17290	16030	154553	27407	945977	34137	106272	0	0	8133	787279	0	0
2024-04-09 18:03:32			0	33420	0	0	0	17283	16030	154617	27272	946056	34116	106269	0	0	8133	787586	0	0
2024-04-09 18:04:32			0	33424	0	0	0	17283	16030	154557	27050	946030	34126	106269	0	0	8133	787382	0	0
2024-04-09 18:05:32			0	33390	0	0	0	17280	16020	154685	27097	945995	34115	106268	0	0	8131	789165	0	0
2024-04-09 18:06:32			0	33411	0	0	0	17283	16020	154629	27150	946021	34115	106269	0	0	8132	788089	0	0
2024-04-09 18:07:32			0	33434	0	0	0	17293	16030	154661	27239	945985	34126	106273	0	0	8134	786870	0	0
2024-04-09 18:08:32			0	33421	0	0	0	17296	16030	154609	27225	946064	34116	106274	0	0	8133	787535	0	0
2024-04-09 18:09:32			0	33444	0	0	0	17290	16030	154637	27467	946038	34126	106272	0	0	8134	786359	0	0
2024-04-09 18:10:32			0	33429	0	0	0	17298	16030	154613	27518	946003	34148	106275	0	0	8133	787126	0	0
2024-04-09 18:11:32			0	33421	0	0	0	17303	16030	154637	27308	946030	34126	106277	0	0	8133	787535	0	0
2024-04-09 18:12:32			0	33428	0	0	0	17298	16030	154601	27464	946011	34126	106275	0	0	8133	787177	0	0
2024-04-09 18:13:32			0	33422	0	0	0	17306	16030	154613	27547	946064	34126	106278	0	0	8133	787484	0	0
2024-04-09 18:14:32			0	33447	0	0	0	17309	16030	154517	27227	946064	34126	106279	0	0	8134	786206	0	0
2024-04-09 18:15:32			0	33447	0	0	0	17311	16030	154601	27227	946064	34126	106280	0	0	8134	786206	0	0
2024-04-09 18:16:32			0	33447	0	0	0	17306	16050	154569	27528	946114	34138	106278	0	0	8134	786121	0	0
2024-04-09 18:17:32			0	33427	0	0	0	17298	16040	154685	27258	946046	34138	106275	0	0	8133	787186	0	0
2024-04-09 18:18:32			0	33435	0	0	0	17296	16030	154629	27575	946064	34137	106274	0	0	8134	786819	0	0
2024-04-09 18:19:32			0	33410	0	0	0	17293	16030	154677	27289	946011	34126	106273	0	0	8132	788098	0	0
2024-04-09 18:20:32			0	33430	0	0	0	17288	16040	154733	27621	946019	34116	106271	0	0	8133	787032	0	0
2024-04-09 18:21:32			0	33410	0	0	0	17288	16030	154793	27320	946090	34116	106271	0	0	8132	788098	0	0
2024-04-09 18:22:32			0	33421	0	0	0	17290	16020	154773	27248	945995	34104	106272	0	0	8133	787577	0	0
2024-04-09 18:23:32			0	33390	0	0	0	17298	16030	154897	27301	946011	34126	106275	0	0	8131	789122	0	0
2024-04-09 18:24:32			0	33392	0	0	0	17293	16030	154909	27090	945977	34137	106273	0	0	8131	789020	0	0
2024-04-09 18:25:32			0	33371	0	0	0	17296	16020	154945	27322	945995	34125	106274	0	0	8130	790139	0	0
2024-04-09 18:26:32			0	33363	0	0	0	17296	16020	155017	27166	945995	34125	106274	0	0	8129	790549	0	0
2024-04-09 18:27:32			0	33342	0	0	0	17301	16030	155141	27646	945985	34116	106276	0	0	8128	791585	0	0
2024-04-09 18:28:32			0	33352	0	0	0	17303	16030	155133	27365	946003	34116	106277	0	0	8128	791071	0	0
2024-04-09 18:29:32			0	33344	0	0	0	17290	16030	155065	27476	946038	34116	106272	0	0	8128	791482	0	0
2024-04-09 18:30:32			0	33312	0	0	0	17296	16030	155125	27281	946038	34126	106274	0	0	8126	793127	0	0
2024-04-09 18:31:32			0	33320	0	0	0	17290	16030	155209	27338	946030	34116	106272	0	0	8127	792716	0	0
2024-04-09 18:32:32			0	33303	0	0	0	17298	16020	155305	27341	946021	34115	106275	0	0	8126	793633	0	0
2024-04-09 18:33:32			0	33297	0	0	0	17298	16020	155305	27324	946074	34125	106275	0	0	8125	793942	0	0
2024-04-09 18:34:32			0	33305	0	0	0	17288	16040	155337	27464	945993	34116	106271	0	0	8126	793445	0	0
2024-04-09 18:35:32			0	33299	0	0	0	17283	16030	155389	27358	946003	34126	106269	0	0	8126	793797	0	0
2024-04-09 18:36:32			0	33266	0	0	0	17283	16030	155477	27364	946003	34126	106269	0	0	8124	795498	0	0
2024-04-09 18:37:32			0	33269	0	0	0	17293	16030	155481	27369	946030	34126	106273	0	0	8124	795343	0	0
2024-04-09 18:38:32			0	33289	0	0	0	17303	16030	155421	27741	946030	34126	106277	0	0	8125	794312	0	0
2024-04-09 18:39:32			0	33274	0	0	0	17288	16030	155473	27628	946038	34137	106271	0	0	8124	795085	0	0
2024-04-09 18:40:32			0	33282	0	0	0	17277	16020	155465	27173	945969	34125	106267	0	0	8125	794715	0	0
2024-04-09 18:41:32			0	33248	0	0	0	17280	16020	155501	27512	946013	34136	106268	0	0	8123	796469	0	0
2024-04-09 18:42:32			0	33262	0	0	0	17277	16020	155573	27206	945995	34115	106267	0	0	8123	795747	0	0
2024-04-09 18:43:32			0	33256	0	0	0	17288	16020	155597	27123	945961	34136	106271	0	0	8123	796056	0	0
2024-04-09 18:44:32			0	33263	0	0	0	17285	16020	155537	27109	946021	34115	106270	0	0	8123	795695	0	0
2024-04-09 18:45:32			0	33252	0	0	0	17275	16020	155581	27078	946021	34125	106266	0	0	8123	796263	0	0
2024-04-09 18:46:32			0	33249	0	0	0	17285	16020	155573	27341	946021	34115	106270	0	0	8123	796418	0	0
2024-04-09 18:47:32			0	33254	0	0	0	17293	16020	155589	27144	946013	34147	106273	0	0	8123	796159	0	0
2024-04-09 18:48:32			0	33251	0	0	0	17298	16020	155613	27261	945969	34125	106275	0	0	8122	796314	0	0
2024-04-09 18:49:32			0	33256	0	0	0	17301	16020	155577	27239	946013	34136	106276	0	0	8123	796056	0	0
2024-04-09 18:50:32			0	33248	0	0	0	17296	16020	155597	27602	945969	34125	106274	0	0	8122	796469	0	0
2024-04-09 18:51:32			0	33253	0	0	0	17290	16020	155669	27306	946021	34125	106272	0	0	8123	796211	0	0
2024-04-09 18:52:32			0	33256	0	0	0	17296	16030	155753	27414	946030	34126	106274	0	0	8123	796013	0	0
2024-04-09 18:53:32			0	33245	0	0	0	17296	16020	155701	27727	946074	34136	106274	0	0	8122	796624	0	0
2024-04-09 18:54:32			0	33234	0	0	0	17296	16020	155729	27088	945995	34115	106274	0	0	8121	797192	0	0
2024-04-09 18:55:32			0	33232	0	0	0	17288	16020	155689	27277	946021	34136	106271	0	0	8121	797296	0	0
2024-04-09 18:56:32			0	33234	0	0	0	17285	16020	155713	27249	945987	34147	106270	0	0	8122	797192	0	0
2024-04-09 18:57:32			0	33245	0	0	0	17283	16020	155745	27019	946013	34115	106269	0	0	8122	796624	0	0
2024-04-09 18:58:32			0	33236	0	0	0	17288	16020	155725	27355	946021	34136	106271	0	0	8122	797089	0	0
2024-04-09 18:59:32			0	33220	0	0	0	17290	16020	155781	27246	945995	34147	106272	0	0	8121	797916	0	0
2024-04-09 19:00:32			0	33215	0	0	0	17290	16020	155761	27331	945987	34136	106272	0	0	8120	798175	0	0
2024-04-09 19:01:32			0	33222	0	0	0	17290	16020	155821	27116	946021	34147	106272	0	0	8121	797813	0	0
2024-04-09 19:02:32			0	33242	0	0	0	17290	16020	155773	27088	945969	34136	106272	0	0	8122	796779	0	0
2024-04-09 19:03:32			0	33215	0	0	0	17290	16020	155709	27315	946040	34125	106272	0	0	8120	798175	0	0
2024-04-09 19:04:32			0	33230	0	0	0	17290	16020	155725	27059	946021	34136	106272	0	0	8121	797399	0	0
2024-04-09 19:05:32			0	33228	0	0	0	17298	16020	155713	27112	945961	34125	106275	0	0	8121	797502	0	0
2024-04-09 19:06:32			0	33238	0	0	0	17293	16020	155685	27369	946021	34136	106273	0	0	8122	796986	0	0
2024-04-09 19:07:32			0	33234	0	0	0	17296	16020	155657	27440	946021	34125	106274	0	0	8121	797192	0	0
2024-04-09 19:08:32			0	33249	0	0	0	17298	16020	155777	27133	945987	34136	106275	0	0	8122	796418	0	0
2024-04-09 19:09:32			0	33260	0	0	0	17296	16020	155657	27384	945987	34136	106274	0	0	8123	795850	0	0
2024-04-09 19:10:32			0	33226	0	0	0	17293	16020	155665	26817	945987	34115	106273	0	0	8121	797606	0	0
2024-04-09 19:11:32			0	33197	0	0	0	17293	16020	155849	27213	945961	34147	106273	0	0	8119	799106	0	0
2024-04-09 19:12:32			0	33187	0	0	0	17298	16020	155921	26981	946021	34136	106275	0	0	8119	799624	0	0
2024-04-09 19:13:32			0	33172	0	0	0	17301	16020	155969	27078	945908	34147	106276	0	0	8118	800401	0	0
2024-04-09 19:14:32			0	33202	0	0	0	17283	16020	155901	27183	945987	34136	106269	0	0	8120	798847	0	0
2024-04-09 19:15:32			0	33191	0	0	0	17288	16020	155805	27137	946013	34125	106271	0	0	8119	799417	0	0
2024-04-09 19:16:32			0	33233	0	0	0	17290	16030	155709	26968	946003	34126	106272	0	0	8122	797201	0	0
2024-04-09 19:17:32			0	33245	0	0	0	17303	16020	155705	27400	945987	34147	106277	0	0	8122	796624	0	0
2024-04-09 19:18:32			0	33266	0	0	0	17288	16020	155549	26965	945995	34136	106271	0	0	8123	795540	0	0
2024-04-09 19:19:32			0	33290	0	0	0	17293	16000	155441	27019	945963	34135	106273	0	0	8125	794389	0	0
2024-04-09 19:20:32			0	33301	0	0	0	17283	16020	155513	26918	945995	34136	106269	0	0	8126	793737	0	0
2024-04-09 19:21:32			0	33309	0	0	0	17283	16010	155437	26814	945979	34135	106269	0	0	8126	793368	0	0
2024-04-09 19:22:32			0	33310	0	0	0	17298	16010	155493	26861	945979	34135	106275	0	0	8126	793316	0	0
2024-04-09 19:23:32			0	33307	0	0	0	17296	16010	155353	27142	946005	34125	106274	0	0	8126	793471	0	0
2024-04-09 19:24:32			0	33312	0	0	0	17298	16020	155349	27215	946040	34136	106275	0	0	8126	793170	0	0
2024-04-09 19:25:32			0	33325	0	0	0	17293	16020	155357	26941	946021	34125	106273	0	0	8127	792502	0	0
2024-04-09 19:26:32			0	33333	0	0	0	17296	16020	155285	26972	946013	34147	106274	0	0	8127	792090	0	0
2024-04-09 19:27:32			0	33343	0	0	0	17306	16020	155393	27267	946013	34125	106278	0	0	8128	791576	0	0
2024-04-09 19:28:32			0	33344	0	0	0	17306	16020	155305	27131	946021	34136	106278	0	0	8128	791525	0	0
2024-04-09 19:29:32			0	33334	0	0	0	17296	16030	155189	27421	946030	34126	106274	0	0	8127	791996	0	0
2024-04-09 19:30:32			0	33339	0	0	0	17293	16020	155213	27216	945969	34147	106273	0	0	8128	791782	0	0
2024-04-09 19:31:32			0	33340	0	0	0	17293	16020	155229	27180	945995	34136	106273	0	0	8128	791731	0	0
2024-04-09 19:32:32			0	33345	0	0	0	17290	16020	155297	27019	946040	34136	106272	0	0	8128	791474	0	0
2024-04-09 19:33:32			0	33342	0	0	0	17293	16030	155261	26965	946030	34126	106273	0	0	8128	791585	0	0
2024-04-09 19:34:32			0	33333	0	0	0	17296	16020	155313	26817	946048	34136	106274	0	0	8127	792090	0	0
2024-04-09 19:35:32			0	33330	0	0	0	17290	16020	155241	26991	945995	34136	106272	0	0	8127	792244	0	0
2024-04-09 19:36:32			0	33341	0	0	0	17293	16020	155217	27072	946013	34147	106273	0	0	8128	791679	0	0
2024-04-09 19:37:32			0	33345	0	0	0	17296	16020	155309	27053	946066	34136	106274	0	0	8128	791474	0	0
2024-04-09 19:38:32			0	33335	0	0	0	17293	16020	155309	27298	945995	34125	106273	0	0	8128	791988	0	0
2024-04-09 19:39:32			0	33345	0	0	0	17288	16020	155237	27066	945987	34125	106271	0	0	8128	791474	0	0
2024-04-09 19:40:32			0	33360	0	0	0	17285	16030	155205	27209	946003	34137	106270	0	0	8129	790661	0	0
2024-04-09 19:41:32			0	33338	0	0	0	17285	16010	155165	27182	945953	34147	106270	0	0	8128	791876	0	0
2024-04-09 19:42:32			0	33320	0	0	0	17283	16010	155357	27223	945918	34135	106269	0	0	8127	792801	0	0
2024-04-09 19:43:32			0	33322	0	0	0	17285	16010	155293	27211	945979	34135	106270	0	0	8127	792699	0	0
2024-04-09 19:44:32			0	33301	0	0	0	17288	16010	155353	27199	946005	34135	106271	0	0	8126	793779	0	0
2024-04-09 19:45:32			0	33298	0	0	0	17288	16010	155465	26870	945979	34135	106271	0	0	8125	793934	0	0
2024-04-09 19:46:32			0	33284	0	0	0	17285	16020	155529	26996	946040	34136	106270	0	0	8125	794612	0	0
2024-04-09 19:47:32			0	33290	0	0	0	17288	16020	155537	27260	946013	34147	106271	0	0	8125	794303	0	0
2024-04-09 19:48:32			0	33287	0	0	0	17283	16000	155533	27105	945963	34135	106269	0	0	8125	794543	0	0
2024-04-09 19:49:32			0	33295	0	0	0	17280	16020	155481	27121	946013	34125	106268	0	0	8125	794046	0	0
2024-04-09 19:50:32			0	33300	0	0	0	17283	16000	155465	26837	945981	34145	106269	0	0	8126	793874	0	0
2024-04-09 19:51:32			0	33287	0	0	0	17285	16010	155497	27371	945945	34147	106270	0	0	8125	794501	0	0
2024-04-09 19:52:32			0	33297	0	0	0	17275	16020	155497	26897	946013	34136	106266	0	0	8126	793942	0	0
2024-04-09 19:53:32			0	33297	0	0	0	17288	16010	155457	27379	945997	34158	106271	0	0	8125	793985	0	0
2024-04-09 19:54:32			0	33283	0	0	0	17280	16010	155597	27008	945971	34125	106268	0	0	8125	794707	0	0
2024-04-09 19:55:32			0	33268	0	0	0	17293	16010	155701	26987	945918	34135	106273	0	0	8123	795480	0	0
2024-04-09 19:56:32			0	33253	0	0	0	17288	16020	155729	27074	945969	34125	106271	0	0	8123	796211	0	0
2024-04-09 19:57:32			0	33279	0	0	0	17293	16000	155781	27336	945989	34135	106273	0	0	8124	794956	0	0
2024-04-09 19:58:32			0	33266	0	0	0	17285	16000	155805	27258	945989	34146	106270	0	0	8123	795626	0	0
2024-04-09 19:59:32			0	33259	0	0	0	17280	16020	155753	27109	945961	34136	106268	0	0	8123	795902	0	0
2024-04-09 20:00:32			0	33254	0	0	0	17283	16000	155793	27147	945928	34145	106269	0	0	8123	796245	0	0
2024-04-09 20:01:32			0	33237	0	0	0	17277	16020	155765	27282	945961	34147	106267	0	0	8122	797037	0	0
2024-04-09 20:02:32			0	33243	0	0	0	17285	16010	155773	27138	945945	34135	106270	0	0	8122	796770	0	0
2024-04-09 20:03:32			0	33252	0	0	0	17283	16010	155729	27320	946032	34147	106269	0	0	8123	796306	0	0
2024-04-09 20:04:32			0	33245	0	0	0	17288	16010	155733	27185	945945	34135	106271	0	0	8122	796667	0	0
2024-04-09 20:05:32			0	33232	0	0	0	17288	16000	155821	26942	945963	34135	106271	0	0	8121	797382	0	0
2024-04-09 20:06:32			0	33242	0	0	0	17277	16010	155737	27168	945979	34147	106267	0	0	8122	796822	0	0
2024-04-09 20:07:32			0	33247	0	0	0	17277	16000	155661	26875	945963	34146	106267	0	0	8122	796607	0	0
2024-04-09 20:08:32			0	33243	0	0	0	17275	16000	155773	27242	945981	34145	106266	0	0	8122	796813	0	0
2024-04-09 20:09:32			0	33240	0	0	0	17280	16010	155665	26953	945979	34135	106268	0	0	8122	796925	0	0
2024-04-09 20:10:32			0	33232	0	0	0	17275	16010	155713	27396	945971	34135	106266	0	0	8122	797339	0	0
2024-04-09 20:11:32			0	33255	0	0	0	17275	16010	155713	27093	945971	34147	106266	0	0	8123	796151	0	0
2024-04-09 20:12:32			0	33249	0	0	0	17277	16010	155809	27222	945918	34158	106267	0	0	8123	796461	0	0
2024-04-09 20:13:32			0	33242	0	0	0	17277	16000	155701	27109	945963	34146	106267	0	0	8122	796865	0	0
2024-04-09 20:14:32			0	33242	0	0	0	17277	16000	155777	27246	945937	34146	106267	0	0	8122	796865	0	0
2024-04-09 20:15:32			0	33224	0	0	0	17277	16010	155885	27085	945971	34158	106267	0	0	8121	797752	0	0
2024-04-09 20:16:32			0	33223	0	0	0	17272	16010	155833	27133	945918	34158	106265	0	0	8121	797804	0	0
2024-04-09 20:17:32			0	33215	0	0	0	17277	16000	155893	27239	945963	34135	106267	0	0	8121	798261	0	0
2024-04-09 20:18:32			0	33231	0	0	0	17280	16010	155741	27497	945971	34147	106268	0	0	8121	797391	0	0
2024-04-09 20:19:32			0	33219	0	0	0	17288	16000	155905	27280	945937	34146	106271	0	0	8121	798054	0	0
2024-04-09 20:20:32			0	33208	0	0	0	17277	16010	155945	27097	945945	34135	106267	0	0	8120	798580	0	0
2024-04-09 20:21:32			0	33198	0	0	0	17283	16000	155917	27374	945937	34146	106269	0	0	8119	799141	0	0
2024-04-09 20:22:32			0	33185	0	0	0	17280	16000	155981	27052	945937	34146	106268	0	0	8119	799814	0	0
2024-04-09 20:23:32			0	33171	0	0	0	17283	16000	156117	27326	945981	34145	106269	0	0	8118	800540	0	0
2024-04-09 20:24:32			0	33190	0	0	0	17277	16000	156061	27034	945955	34134	106267	0	0	8119	799555	0	0
2024-04-09 20:25:32			0	33183	0	0	0	17283	16000	156049	27232	945910	34167	106269	0	0	8118	799918	0	0
2024-04-09 20:26:32			0	33184	0	0	0	17280	16000	156077	26986	945963	34157	106268	0	0	8119	799866	0	0
2024-04-09 20:27:32			0	33200	0	0	0	17275	16000	156041	27428	945955	34145	106266	0	0	8120	799037	0	0
2024-04-09 20:28:32			0	33169	0	0	0	17280	16000	155977	26960	945963	34146	106268	0	0	8118	800643	0	0
2024-04-09 20:29:32			0	33204	0	0	0	17285	16010	155941	27131	945971	34147	106270	0	0	8120	798787	0	0
2024-04-09 20:30:32			0	33189	0	0	0	17277	15990	156093	27450	945920	34134	106267	0	0	8119	799650	0	0
2024-04-09 20:31:32			0	33203	0	0	0	17270	16000	155985	27135	945902	34156	106264	0	0	8120	798882	0	0
2024-04-09 20:32:32			0	33201	0	0	0	17272	15990	155905	27462	945973	34145	106265	0	0	8120	799028	0	0
2024-04-09 20:33:32			0	33203	0	0	0	17277	16000	155925	27107	945876	34166	106267	0	0	8120	798882	0	0
2024-04-09 20:34:32			0	33212	0	0	0	17270	15990	155905	26925	945920	34156	106264	0	0	8120	798459	0	0
2024-04-09 20:35:32			0	33188	0	0	0	17264	16000	155945	27537	945963	34135	106262	0	0	8119	799659	0	0
2024-04-09 20:36:32			0	33182	0	0	0	17270	16010	156049	27286	945971	34147	106264	0	0	8119	799926	0	0
2024-04-09 20:37:32			0	33175	0	0	0	17270	16000	156049	27338	945928	34145	106264	0	0	8118	800332	0	0
2024-04-09 20:38:32			0	33167	0	0	0	17270	15990	156165	27301	945965	34145	106264	0	0	8118	800790	0	0
2024-04-09 20:39:32			0	33167	0	0	0	17262	16000	156197	27426	945928	34156	106261	0	0	8118	800747	0	0
2024-04-09 20:40:32			0	33162	0	0	0	17264	15990	156145	27336	945920	34145	106262	0	0	8117	801050	0	0
2024-04-09 20:41:32			0	33160	0	0	0	17267	16000	156165	27183	945955	34134	106263	0	0	8117	801110	0	0
2024-04-09 20:42:32			0	33166	0	0	0	17259	16000	156161	27255	945928	34156	106260	0	0	8118	800799	0	0
2024-04-09 20:43:32			0	33155	0	0	0	17267	15990	156129	27190	945912	34156	106263	0	0	8117	801413	0	0
2024-04-09 20:44:32			0	33163	0	0	0	17267	16000	156269	27190	945937	34157	106263	0	0	8118	800955	0	0
2024-04-09 20:45:32			0	33144	0	0	0	17262	15980	156269	27092	945930	34166	106261	0	0	8116	802027	0	0
2024-04-09 20:46:32			0	33152	0	0	0	17262	15990	156277	27239	945938	34166	106261	0	0	8117	801569	0	0
2024-04-09 20:47:32			0	33151	0	0	0	17254	16000	156237	27041	945928	34156	106258	0	0	8117	801577	0	0
2024-04-09 20:48:32			0	33158	0	0	0	17264	15980	156209	27255	945930	34144	106262	0	0	8117	801300	0	0
2024-04-09 20:49:32			0	33146	0	0	0	17267	15990	156217	26975	945920	34145	106263	0	0	8116	801880	0	0
2024-04-09 20:50:32			0	33145	0	0	0	17262	16000	156117	27215	945928	34156	106261	0	0	8117	801889	0	0
2024-04-09 20:51:32			0	33150	0	0	0	17270	15990	156153	27277	945894	34145	106264	0	0	8117	801672	0	0
2024-04-09 20:52:32			0	33160	0	0	0	17285	15990	156257	27140	945920	34156	106270	0	0	8117	801153	0	0
2024-04-09 20:53:32			0	33170	0	0	0	17298	16000	156165	26915	945928	34156	106275	0	0	8117	800592	0	0
2024-04-09 20:54:32			0	33181	0	0	0	17314	16000	156061	26928	945955	34145	106281	0	0	8118	800021	0	0
2024-04-09 20:55:32			0	33188	0	0	0	17368	16000	155989	26991	946007	34145	106302	0	0	8117	799659	0	0
2024-04-09 20:56:32			0	33215	0	0	0	17392	16020	155989	27196	946171	34158	106311	0	0	8119	798175	0	0
2024-04-09 20:57:32			0	33268	0	0	0	17418	16030	155757	27229	946161	34169	106321	0	0	8121	795394	0	0
2024-04-09 20:58:32			0	33307	0	0	0	17420	16040	155537	27031	946264	34170	106322	0	0	8124	793342	0	0
2024-04-09 20:59:32			0	33360	0	0	0	17425	16050	155329	26844	946272	34150	106324	0	0	8127	790575	0	0
2024-04-09 21:00:32			0	33379	0	0	0	17420	16060	155169	27230	946289	34183	106322	0	0	8128	789558	0	0
2024-04-09 21:01:32			0	33382	0	0	0	17425	16060	155153	27223	946323	34172	106324	0	0	8128	789404	0	0
2024-04-09 21:02:32			0	33399	0	0	0	17431	16070	155101	26972	946286	34173	106326	0	0	8129	788491	0	0
2024-04-09 21:03:32			0	33408	0	0	0	17433	16080	154917	27043	946373	34184	106327	0	0	8130	787988	0	0
2024-04-09 21:04:32			0	33434	0	0	0	17423	16080	154833	27189	946408	34174	106323	0	0	8132	786658	0	0
2024-04-09 21:05:32			0	33473	0	0	0	17423	16090	154729	27074	946416	34174	106323	0	0	8134	784624	0	0
2024-04-09 21:06:32			0	33454	0	0	0	17428	16090	154729	27083	946424	34186	106325	0	0	8133	785594	0	0
2024-04-09 21:07:32			0	33457	0	0	0	17438	16100	154673	27291	946485	34186	106329	0	0	8133	785398	0	0
2024-04-09 21:08:32			0	33500	0	0	0	17433	16100	154533	26876	946440	34186	106327	0	0	8135	783206	0	0
2024-04-09 21:09:32			0	33516	0	0	0	17444	16110	154529	26996	946527	34186	106331	0	0	8136	782349	0	0
2024-04-09 21:10:32			0	33529	0	0	0	17446	16110	154365	26937	946448	34186	106332	0	0	8137	781688	0	0
2024-04-09 21:11:32			0	33543	0	0	0	17449	16120	154365	27093	946543	34166	106333	0	0	8138	780934	0	0
2024-04-09 21:12:32			0	33542	0	0	0	17449	16110	154337	27545	946456	34187	106333	0	0	8138	781027	0	0
2024-04-09 21:13:32			0	33558	0	0	0	17454	16120	154317	27512	946578	34188	106335	0	0	8139	780173	0	0
2024-04-09 21:14:32			0	33585	0	0	0	17470	16140	154158	27128	946576	34200	106341	0	0	8140	778719	0	0
2024-04-09 21:15:32			0	33596	0	0	0	17459	16130	154130	27426	946560	34199	106337	0	0	8141	778203	0	0
2024-04-09 21:16:32			0	33602	0	0	0	17464	16130	154070	26989	946594	34178	106339	0	0	8141	777899	0	0
2024-04-09 21:17:32			0	33616	0	0	0	17467	16140	154070	27121	946550	34189	106340	0	0	8142	777149	0	0
2024-04-09 21:18:32			0	33610	0	0	0	17467	16140	154086	27202	946584	34190	106340	0	0	8142	777452	0	0
2024-04-09 21:19:32			0	33627	0	0	0	17470	16150	153994	27329	946626	34190	106341	0	0	8143	776550	0	0
2024-04-09 21:20:32			0	33632	0	0	0	17467	16150	153890	27248	946592	34201	106340	0	0	8143	776297	0	0
2024-04-09 21:21:32			0	33648	0	0	0	17467	16160	153954	27114	946634	34190	106340	0	0	8144	775447	0	0
2024-04-09 21:22:32			0	33647	0	0	0	17470	16150	153826	27355	946645	34179	106341	0	0	8144	775539	0	0
2024-04-09 21:23:32			0	33639	0	0	0	17470	16140	153858	27464	946584	34190	106341	0	0	8143	775985	0	0
2024-04-09 21:24:32			0	33674	0	0	0	17470	16160	153810	27168	946634	34201	106341	0	0	8145	774134	0	0
2024-04-09 21:25:32			0	33674	0	0	0	17462	16150	153738	27119	946600	34190	106338	0	0	8145	774176	0	0
2024-04-09 21:26:32			0	33677	0	0	0	17464	16170	153754	27019	946616	34180	106339	0	0	8146	773941	0	0
2024-04-09 21:27:32			0	33662	0	0	0	17464	16170	153690	27182	946695	34191	106339	0	0	8145	774698	0	0
2024-04-09 21:28:32			0	33662	0	0	0	17464	16150	153870	26890	946653	34190	106339	0	0	8145	774782	0	0
2024-04-09 21:29:32			0	33674	0	0	0	17467	16160	153710	27015	946713	34201	106340	0	0	8145	774134	0	0
2024-04-09 21:30:32			0	33681	0	0	0	17462	16170	153686	27237	946651	34203	106338	0	0	8146	773739	0	0
2024-04-09 21:31:32			0	33681	0	0	0	17459	16160	153678	27116	946634	34190	106337	0	0	8146	773781	0	0
2024-04-09 21:32:32			0	33685	0	0	0	17462	16170	153690	27208	946730	34203	106338	0	0	8146	773538	0	0
2024-04-09 21:33:32			0	33684	0	0	0	17459	16180	153566	27092	946685	34203	106337	0	0	8146	773546	0	0
2024-04-09 21:34:32			0	33707	0	0	0	17467	16170	153586	27364	946695	34191	106340	0	0	8147	772429	0	0
2024-04-09 21:35:32			0	33700	0	0	0	17457	16160	153574	27029	946608	34201	106336	0	0	8147	772823	0	0
2024-04-09 21:36:32			0	33700	0	0	0	17462	16170	153506	27293	946651	34203	106338	0	0	8147	772782	0	0
2024-04-09 21:37:32			0	33728	0	0	0	17457	16170	153534	27154	946651	34192	106336	0	0	8149	771372	0	0
2024-04-09 21:38:32			0	33741	0	0	0	17470	16170	153506	27531	946624	34192	106341	0	0	8149	770719	0	0
2024-04-09 21:39:32			0	33757	0	0	0	17464	16170	153502	27253	946651	34181	106339	0	0	8150	769915	0	0
2024-04-09 21:40:32			0	33729	0	0	0	17464	16170	153486	27277	946624	34203	106339	0	0	8149	771322	0	0
2024-04-09 21:41:32			0	33733	0	0	0	17459	16170	153454	27350	946695	34202	106337	0	0	8149	771121	0	0
2024-04-09 21:42:32			0	33747	0	0	0	17459	16170	153514	27152	946669	34202	106337	0	0	8150	770417	0	0
2024-04-09 21:43:32			0	33760	0	0	0	17467	16180	153386	27341	946659	34192	106340	0	0	8151	769723	0	0
2024-04-09 21:44:32			0	33723	0	0	0	17462	16180	153382	27725	946667	34204	106338	0	0	8148	771582	0	0
2024-04-09 21:45:32			0	33741	0	0	0	17464	16170	153366	27282	946669	34191	106339	0	0	8149	770719	0	0
2024-04-09 21:46:32			0	33749	0	0	0	17464	16180	153350	27270	946693	34204	106339	0	0	8150	770275	0	0
2024-04-09 21:47:32			0	33736	0	0	0	17464	16180	153390	27398	946667	34181	106339	0	0	8149	770928	0	0
2024-04-09 21:48:32			0	33749	0	0	0	17459	16180	153406	27481	946659	34192	106337	0	0	8150	770275	0	0
2024-04-09 21:49:32			0	33769	0	0	0	17454	16170	153374	27474	946643	34202	106335	0	0	8151	769312	0	0
2024-04-09 21:50:32			0	33766	0	0	0	17462	16170	153482	27315	946677	34192	106338	0	0	8151	769463	0	0
2024-04-09 21:51:32			0	33750	0	0	0	17462	16180	153278	27187	946659	34192	106338	0	0	8150	770225	0	0
2024-04-09 21:52:32			0	33754	0	0	0	17464	16170	153294	27576	946624	34203	106339	0	0	8150	770065	0	0
2024-04-09 21:53:32			0	33751	0	0	0	17462	16170	153294	27472	946651	34203	106338	0	0	8150	770216	0	0
2024-04-09 21:54:32			0	33759	0	0	0	17457	16180	153458	27710	946719	34181	106336	0	0	8151	769773	0	0
2024-04-09 21:55:32			0	33750	0	0	0	17462	16180	153410	27362	946659	34213	106338	0	0	8150	770225	0	0
2024-04-09 21:56:32			0	33754	0	0	0	17464	16170	153410	27511	946677	34192	106339	0	0	8150	770065	0	0
2024-04-09 21:57:32			0	33752	0	0	0	17459	16180	153430	27448	946606	34203	106337	0	0	8150	770124	0	0
2024-04-09 21:58:32			0	33754	0	0	0	17467	16180	153454	27339	946667	34204	106340	0	0	8150	770024	0	0
2024-04-09 21:59:32			0	33750	0	0	0	17464	16170	153526	27157	946677	34213	106339	0	0	8150	770266	0	0
2024-04-09 22:00:32			0	33749	0	0	0	17462	16170	153446	27312	946677	34213	106338	0	0	8150	770317	0	0
2024-04-09 22:01:32			0	33758	0	0	0	17462	16170	153390	27454	946624	34192	106338	0	0	8150	769864	0	0
2024-04-09 22:02:32			0	33750	0	0	0	17457	16180	153278	27190	946719	34225	106336	0	0	8150	770225	0	0
2024-04-09 22:03:32			0	33763	0	0	0	17462	16180	153378	27322	946659	34213	106338	0	0	8151	769572	0	0
2024-04-09 22:04:32			0	33767	0	0	0	17462	16180	153410	27568	946746	34193	106338	0	0	8151	769371	0	0
2024-04-09 22:05:32			0	33766	0	0	0	17454	16180	153406	27189	946640	34204	106335	0	0	8151	769421	0	0
2024-04-09 22:06:32			0	33764	0	0	0	17459	16170	153326	27352	946677	34213	106337	0	0	8151	769563	0	0
2024-04-09 22:07:32			0	33758	0	0	0	17464	16170	153442	27376	946669	34202	106339	0	0	8150	769864	0	0
2024-04-09 22:08:32			0	33766	0	0	0	17467	16170	153310	27237	946651	34213	106340	0	0	8151	769463	0	0
2024-04-09 22:09:32			0	33764	0	0	0	17467	16170	153350	27443	946651	34192	106340	0	0	8151	769563	0	0
2024-04-09 22:10:32			0	33767	0	0	0	17462	16170	153354	27372	946677	34192	106338	0	0	8151	769413	0	0
2024-04-09 22:11:32			0	33773	0	0	0	17464	16170	153390	27536	946651	34203	106339	0	0	8151	769112	0	0
2024-04-09 22:12:32			0	33741	0	0	0	17462	16180	153314	27552	946685	34203	106338	0	0	8150	770677	0	0
2024-04-09 22:13:32			0	33764	0	0	0	17462	16180	153386	27204	946667	34225	106338	0	0	8151	769522	0	0
2024-04-09 22:14:32			0	33768	0	0	0	17464	16170	153326	27666	946677	34224	106339	0	0	8151	769362	0	0
2024-04-09 22:15:32			0	33781	0	0	0	17472	16180	153354	27583	946693	34204	106342	0	0	8152	768669	0	0
2024-04-09 22:16:32			0	33775	0	0	0	17464	16180	153262	27360	946693	34193	106339	0	0	8151	768969	0	0
2024-04-09 22:17:32			0	33750	0	0	0	17467	16180	153406	27301	946693	34214	106340	0	0	8150	770225	0	0
2024-04-09 22:18:32			0	33753	0	0	0	17459	16170	153338	27457	946651	34203	106337	0	0	8150	770116	0	0
2024-04-09 22:19:32			0	33752	0	0	0	17459	16180	153406	27270	946693	34204	106337	0	0	8150	770124	0	0
2024-04-09 22:20:32			0	33751	0	0	0	17462	16180	153446	27817	946693	34214	106338	0	0	8150	770174	0	0
2024-04-09 22:21:32			0	33772	0	0	0	17470	16170	153498	27438	946703	34203	106341	0	0	8151	769162	0	0
2024-04-09 22:22:32			0	33757	0	0	0	17462	16170	153414	27173	946669	34202	106338	0	0	8150	769915	0	0
2024-04-09 22:23:32			0	33779	0	0	0	17454	16170	153410	27164	946651	34203	106335	0	0	8152	768810	0	0
2024-04-09 22:24:32			0	33786	0	0	0	17459	16180	153366	27635	946719	34214	106337	0	0	8152	768418	0	0
2024-04-09 22:25:32			0	33751	0	0	0	17467	16180	153454	27400	946738	34192	106340	0	0	8150	770174	0	0
2024-04-09 22:26:32			0	33773	0	0	0	17454	16180	153474	27511	946659	34213	106335	0	0	8152	769070	0	0
2024-04-09 22:27:32			0	33769	0	0	0	17457	16170	153434	27275	946677	34213	106336	0	0	8151	769312	0	0
2024-04-09 22:28:32			0	33779	0	0	0	17459	16170	153434	27126	946651	34213	106337	0	0	8152	768810	0	0
2024-04-09 22:29:32			0	33768	0	0	0	17467	16170	153446	27405	946651	34213	106340	0	0	8151	769362	0	0
2024-04-09 22:30:32			0	33765	0	0	0	17462	16170	153478	27471	946677	34224	106338	0	0	8151	769513	0	0
2024-04-09 22:31:32			0	33768	0	0	0	17457	16170	153398	27357	946677	34203	106336	0	0	8151	769362	0	0
2024-04-09 22:32:32			0	33760	0	0	0	17451	16180	153350	27486	946685	34224	106334	0	0	8151	769723	0	0
2024-04-09 22:33:32			0	33756	0	0	0	17454	16170	153442	27175	946703	34213	106335	0	0	8150	769965	0	0
2024-04-09 22:34:32			0	33761	0	0	0	17451	16170	153514	27163	946703	34203	106334	0	0	8151	769714	0	0
2024-04-09 22:35:32			0	33759	0	0	0	17451	16170	153434	27277	946703	34213	106334	0	0	8151	769814	0	0
2024-04-09 22:36:32			0	33751	0	0	0	17457	16180	153498	27182	946685	34203	106336	0	0	8150	770174	0	0
2024-04-09 22:37:32			0	33765	0	0	0	17444	16170	153402	27345	946651	34213	106331	0	0	8151	769513	0	0
2024-04-09 22:38:32			0	33788	0	0	0	17446	16180	153402	27223	946738	34213	106332	0	0	8153	768317	0	0
2024-04-09 22:39:32			0	33759	0	0	0	17438	16170	153322	27358	946651	34192	106329	0	0	8151	769814	0	0
2024-04-09 22:40:32			0	33764	0	0	0	17449	16170	153386	27201	946624	34213	106333	0	0	8151	769563	0	0
2024-04-09 22:41:32			0	33769	0	0	0	17444	16170	153458	27098	946677	34224	106331	0	0	8151	769312	0	0
2024-04-09 22:42:32			0	33764	0	0	0	17446	16170	153474	27137	946730	34213	106332	0	0	8151	769563	0	0
2024-04-09 22:43:32			0	33764	0	0	0	17436	16170	153426	27126	946590	34212	106328	0	0	8151	769563	0	0
2024-04-09 22:44:32			0	33764	0	0	0	17438	16160	153494	27197	946608	34212	106329	0	0	8151	769605	0	0
2024-04-09 22:45:32			0	33762	0	0	0	17431	16170	153470	27119	946545	34213	106326	0	0	8151	769663	0	0
2024-04-09 22:46:32			0	33776	0	0	0	17436	16170	153570	27135	946677	34203	106328	0	0	8152	768961	0	0
2024-04-09 22:47:32			0	33746	0	0	0	17436	16160	153526	27402	946608	34212	106328	0	0	8150	770509	0	0
2024-04-09 22:48:32			0	33766	0	0	0	17436	16160	153554	27119	946634	34212	106328	0	0	8151	769504	0	0
2024-04-09 22:49:32			0	33768	0	0	0	17441	16160	153502	27052	946634	34223	106330	0	0	8151	769404	0	0
2024-04-09 22:50:32			0	33772	0	0	0	17441	16170	153438	27206	946651	34213	106330	0	0	8152	769162	0	0
2024-04-09 22:51:32			0	33779	0	0	0	17441	16160	153410	27239	946634	34212	106330	0	0	8152	768852	0	0
2024-04-09 22:52:32			0	33790	0	0	0	17441	16170	153482	27239	946695	34223	106330	0	0	8153	768259	0	0
2024-04-09 22:53:32			0	33779	0	0	0	17438	16180	153382	27223	946659	34213	106329	0	0	8152	768769	0	0
2024-04-09 22:54:32			0	33784	0	0	0	17438	16170	153458	27360	946643	34223	106329	0	0	8152	768560	0	0
2024-04-09 22:55:32			0	33786	0	0	0	17433	16160	153450	27085	946608	34212	106327	0	0	8153	768501	0	0
2024-04-09 22:56:32			0	33789	0	0	0	17436	16160	153382	27272	946634	34223	106328	0	0	8153	768350	0	0
2024-04-09 22:57:32			0	33789	0	0	0	17433	16160	153418	27222	946661	34234	106327	0	0	8153	768350	0	0
2024-04-09 22:58:32			0	33783	0	0	0	17433	16170	153322	27111	946669	34212	106327	0	0	8152	768610	0	0
2024-04-09 22:59:32			0	33811	0	0	0	17438	16160	153406	27215	946661	34223	106329	0	0	8154	767248	0	0
2024-04-09 23:00:32			0	33811	0	0	0	17436	16140	153362	27274	946610	34211	106328	0	0	8154	767331	0	0
2024-04-09 23:01:32			0	33795	0	0	0	17441	16160	153266	27123	946608	34212	106330	0	0	8153	768050	0	0
2024-04-09 23:02:32			0	33815	0	0	0	17441	16160	153342	27391	946634	34223	106330	0	0	8154	767047	0	0
2024-04-09 23:03:32			0	33800	0	0	0	17446	16160	153378	27291	946687	34223	106332	0	0	8153	767799	0	0
2024-04-09 23:04:32			0	33815	0	0	0	17441	16150	153306	27405	946626	34212	106330	0	0	8154	767089	0	0
2024-04-09 23:05:32			0	33790	0	0	0	17449	16160	153266	27255	946608	34212	106333	0	0	8153	768300	0	0
2024-04-09 23:06:32			0	33808	0	0	0	17438	16150	153290	27351	946671	34223	106329	0	0	8154	767440	0	0
2024-04-09 23:07:32			0	33786	0	0	0	17438	16150	153270	27154	946592	34212	106329	0	0	8152	768542	0	0
2024-04-09 23:08:32			0	33805	0	0	0	17433	16150	153398	27282	946626	34212	106327	0	0	8154	767590	0	0
2024-04-09 23:09:32			0	33792	0	0	0	17436	16160	153326	27183	946661	34223	106328	0	0	8153	768200	0	0
2024-04-09 23:10:32			0	33795	0	0	0	17433	16150	153414	27287	946626	34212	106327	0	0	8153	768091	0	0
2024-04-09 23:11:32			0	33798	0	0	0	17436	16150	153406	27341	946618	34223	106328	0	0	8153	767941	0	0
2024-04-09 23:12:32			0	33790	0	0	0	17431	16140	153530	27305	946584	34211	106326	0	0	8153	768383	0	0
2024-04-09 23:13:32			0	33806	0	0	0	17433	16160	153354	27333	946608	34223	106327	0	0	8154	767498	0	0
2024-04-09 23:14:32			0	33779	0	0	0	17436	16140	153466	27208	946584	34222	106328	0	0	8152	768935	0	0
2024-04-09 23:15:32			0	33782	0	0	0	17433	16140	153478	27370	946610	34222	106327	0	0	8152	768784	0	0
2024-04-09 23:16:32			0	33787	0	0	0	17433	16150	153538	26963	946626	34223	106327	0	0	8153	768492	0	0
2024-04-09 23:17:32			0	33781	0	0	0	17428	16150	153542	27185	946645	34223	106325	0	0	8152	768793	0	0
2024-04-09 23:18:32			0	33787	0	0	0	17425	16150	153470	26890	946626	34212	106324	0	0	8153	768492	0	0
2024-04-09 23:19:32			0	33779	0	0	0	17433	16140	153518	26939	946584	34222	106327	0	0	8152	768935	0	0
2024-04-09 23:20:32			0	33783	0	0	0	17425	16150	153522	27187	946618	34223	106324	0	0	8152	768693	0	0
2024-04-09 23:21:32			0	33764	0	0	0	17431	16150	153662	27336	946574	34212	106326	0	0	8151	769646	0	0
2024-04-09 23:22:32			0	33772	0	0	0	17428	16150	153630	27041	946600	34223	106325	0	0	8152	769245	0	0
2024-04-09 23:23:32			0	33772	0	0	0	17441	16140	153646	27284	946584	34222	106330	0	0	8151	769286	0	0
2024-04-09 23:24:32			0	33760	0	0	0	17431	16150	153622	27199	946618	34212	106326	0	0	8151	769847	0	0
2024-04-09 23:25:32			0	33757	0	0	0	17433	16140	153546	27220	946610	34222	106327	0	0	8151	770039	0	0
2024-04-09 23:26:32			0	33750	0	0	0	17423	16150	153634	27448	946592	34234	106323	0	0	8151	770350	0	0
2024-04-09 23:27:32			0	33746	0	0	0	17431	16150	153682	27059	946592	34223	106326	0	0	8150	770551	0	0
2024-04-09 23:28:32			0	33769	0	0	0	17431	16140	153582	27490	946602	34221	106326	0	0	8151	769437	0	0
2024-04-09 23:29:32			0	33758	0	0	0	17428	16140	153730	27272	946584	34244	106325	0	0	8151	769989	0	0
2024-04-09 23:30:32			0	33751	0	0	0	17436	16150	153702	27376	946618	34223	106328	0	0	8150	770299	0	0
2024-04-09 23:31:32			0	33746	0	0	0	17431	16150	153630	26835	946566	34223	106326	0	0	8150	770551	0	0
2024-04-09 23:32:32			0	33744	0	0	0	17441	16140	153630	27396	946531	34233	106330	0	0	8150	770693	0	0
2024-04-09 23:33:32			0	33749	0	0	0	17431	16150	153550	27142	946618	34245	106326	0	0	8150	770400	0	0
2024-04-09 23:34:32			0	33739	0	0	0	17433	16150	153686	27138	946592	34212	106327	0	0	8150	770902	0	0
2024-04-09 23:35:32			0	33735	0	0	0	17428	16140	153690	27092	946584	34222	106325	0	0	8150	771145	0	0
2024-04-09 23:36:32			0	33743	0	0	0	17420	16140	153758	27454	946584	34222	106322	0	0	8150	770743	0	0
2024-04-09 23:37:32			0	33737	0	0	0	17425	16140	153794	27229	946637	34233	106324	0	0	8150	771045	0	0
2024-04-09 23:38:32			0	33739	0	0	0	17418	16140	153766	27339	946610	34244	106321	0	0	8150	770944	0	0
2024-04-09 23:39:32			0	33746	0	0	0	17423	16140	153718	27111	946602	34221	106323	0	0	8150	770592	0	0
2024-04-09 23:40:32			0	33730	0	0	0	17425	16150	153742	27150	946513	34234	106324	0	0	8149	771355	0	0
2024-04-09 23:41:32			0	33733	0	0	0	17431	16140	153758	27313	946550	34243	106326	0	0	8149	771246	0	0
2024-04-09 23:42:32			0	33725	0	0	0	17428	16150	153834	27209	946618	34223	106325	0	0	8149	771607	0	0
2024-04-09 23:43:32			0	33734	0	0	0	17431	16140	153858	27225	946602	34221	106326	0	0	8149	771195	0	0
2024-04-09 23:44:32			0	33741	0	0	0	17431	16140	153722	27360	946610	34244	106326	0	0	8150	770843	0	0
2024-04-09 23:45:32			0	33721	0	0	0	17425	16150	153746	27280	946618	34234	106324	0	0	8149	771808	0	0
2024-04-09 23:46:32			0	33716	0	0	0	17431	16140	153846	27074	946602	34243	106326	0	0	8148	772101	0	0
2024-04-09 23:47:32			0	33712	0	0	0	17436	16140	153878	27161	946610	34222	106328	0	0	8148	772303	0	0
2024-04-09 23:48:32			0	33710	0	0	0	17428	16140	153898	27429	946602	34243	106325	0	0	8148	772403	0	0
2024-04-09 23:49:32			0	33722	0	0	0	17431	16140	153910	27492	946610	34233	106326	0	0	8149	771799	0	0
2024-04-09 23:50:32			0	33707	0	0	0	17420	16150	153842	27263	946618	34223	106322	0	0	8148	772513	0	0
2024-04-09 23:51:32			0	33701	0	0	0	17423	16140	153922	27216	946584	34222	106323	0	0	8148	772857	0	0
2024-04-09 23:52:32			0	33685	0	0	0	17418	16140	154006	27426	946602	34232	106321	0	0	8147	773663	0	0
2024-04-09 23:53:32			0	33689	0	0	0	17420	16140	154018	26996	946584	34244	106322	0	0	8147	773461	0	0
2024-04-09 23:54:32			0	33702	0	0	0	17423	16140	153966	26991	946637	34233	106323	0	0	8148	772806	0	0
2024-04-09 23:55:32			0	33701	0	0	0	17425	16140	153938	27100	946523	34232	106324	0	0	8148	772857	0	0
2024-04-09 23:56:32			0	33706	0	0	0	17420	16140	153966	27019	946637	34233	106322	0	0	8148	772605	0	0
2024-04-09 23:57:32			0	33674	0	0	0	17431	16150	154014	27265	946645	34245	106326	0	0	8146	774176	0	0
2024-04-09 23:58:32			0	33695	0	0	0	17428	16140	154014	27431	946558	34244	106325	0	0	8147	773159	0	0
2024-04-09 23:59:32			0	33671	0	0	0	17425	16140	154062	27267	946576	34243	106324	0	0	8146	774369	0	0
2024-04-10 00:00:32			0	33622	0	0	0	17420	16150	154258	27490	946566	34212	106322	0	0	8143	776803	0	0
2024-04-10 00:01:32			0	33623	0	0	0	17418	16130	154362	27505	946594	34243	106321	0	0	8143	776836	0	0
2024-04-10 00:02:32			0	33608	0	0	0	17420	16130	154406	27267	946568	34232	106322	0	0	8142	777595	0	0
2024-04-10 00:03:32			0	33594	0	0	0	17436	16140	154458	27552	946550	34232	106328	0	0	8141	778262	0	0
2024-04-10 00:04:32			0	33597	0	0	0	17420	16130	154462	27249	946541	34232	106322	0	0	8141	778153	0	0
2024-04-10 00:05:32			0	33608	0	0	0	17423	16150	154418	27085	946592	34234	106323	0	0	8142	777511	0	0
2024-04-10 00:06:32			0	33600	0	0	0	17425	16150	154426	27069	946592	34223	106324	0	0	8142	777917	0	0
2024-04-10 00:07:32			0	33611	0	0	0	17423	16150	154266	27255	946592	34255	106323	0	0	8142	777360	0	0
2024-04-10 00:08:32			0	33633	0	0	0	17420	16140	154326	27327	946602	34243	106322	0	0	8144	776289	0	0
2024-04-10 00:09:32			0	33654	0	0	0	17433	16130	154250	27064	946594	34243	106327	0	0	8145	775269	0	0
2024-04-10 00:10:32			0	33674	0	0	0	17433	16140	154122	27071	946558	34233	106327	0	0	8146	774218	0	0
2024-04-10 00:11:32			0	33657	0	0	0	17425	16140	154070	27187	946584	34254	106324	0	0	8145	775076	0	0
2024-04-10 00:12:32			0	33656	0	0	0	17431	16140	154138	26941	946576	34232	106326	0	0	8145	775127	0	0
2024-04-10 00:13:32			0	33673	0	0	0	17425	16140	154094	27280	946576	34243	106324	0	0	8146	774268	0	0
2024-04-10 00:14:32			0	33684	0	0	0	17433	16140	154070	27131	946576	34232	106327	0	0	8146	773714	0	0
2024-04-10 00:15:32			0	33668	0	0	0	17431	16140	154206	27206	946602	34254	106326	0	0	8146	774521	0	0
2024-04-10 00:16:32			0	33670	0	0	0	17425	16150	154110	27237	946592	34245	106324	0	0	8146	774378	0	0
2024-04-10 00:17:32			0	33669	0	0	0	17425	16130	154158	27381	946647	34232	106324	0	0	8146	774512	0	0
2024-04-10 00:18:32			0	33676	0	0	0	17436	16150	154150	27095	946618	34234	106328	0	0	8146	774075	0	0
2024-04-10 00:19:32			0	33662	0	0	0	17433	16150	154190	26861	946592	34245	106327	0	0	8145	774782	0	0
2024-04-10 00:20:32			0	33650	0	0	0	17441	16140	154214	27454	946576	34243	106330	0	0	8144	775429	0	0
2024-04-10 00:21:32			0	33634	0	0	0	17438	16150	154234	27289	946600	34255	106329	0	0	8143	776196	0	0
2024-04-10 00:22:32			0	33626	0	0	0	17441	16150	154306	27090	946671	34245	106330	0	0	8143	776601	0	0
2024-04-10 00:23:32			0	33628	0	0	0	17428	16140	154454	26986	946629	34243	106325	0	0	8143	776542	0	0
2024-04-10 00:24:32			0	33594	0	0	0	17433	16140	154342	27294	946610	34244	106327	0	0	8141	778262	0	0
2024-04-10 00:25:32			0	33607	0	0	0	17438	16150	154422	27369	946645	34245	106329	0	0	8142	777562	0	0
2024-04-10 00:26:32			0	33578	0	0	0	17433	16130	154513	27017	946621	34243	106327	0	0	8140	779116	0	0
2024-04-10 00:27:32			0	33593	0	0	0	17428	16150	154570	26981	946566	34245	106325	0	0	8141	778271	0	0
2024-04-10 00:28:32			0	33606	0	0	0	17418	16150	154490	27345	946645	34255	106321	0	0	8142	777613	0	0
2024-04-10 00:29:32			0	33612	0	0	0	17428	16150	154306	27307	946645	34266	106325	0	0	8142	777309	0	0
2024-04-10 00:30:32			0	33619	0	0	0	17436	16140	154286	27230	946584	34254	106328	0	0	8143	776997	0	0
2024-04-10 00:31:32			0	33631	0	0	0	17423	16150	154334	27265	946626	34266	106323	0	0	8144	776348	0	0
2024-04-10 00:32:32			0	33669	0	0	0	17425	16150	154210	27173	946679	34245	106324	0	0	8146	774428	0	0
2024-04-10 00:33:32			0	33652	0	0	0	17431	16150	154274	27185	946671	34266	106326	0	0	8145	775287	0	0
2024-04-10 00:34:32			0	33646	0	0	0	17436	16140	154230	27234	946610	34254	106328	0	0	8144	775632	0	0
2024-04-10 00:35:32			0	33649	0	0	0	17423	16140	154242	27460	946629	34254	106323	0	0	8145	775480	0	0
2024-04-10 00:36:32			0	33671	0	0	0	17410	16140	154150	27149	946576	34254	106318	0	0	8146	774369	0	0
2024-04-10 00:37:32			0	33654	0	0	0	17405	16140	154150	26996	946576	34243	106316	0	0	8145	775228	0	0
2024-04-10 00:38:32			0	33666	0	0	0	17405	16140	154238	27130	946531	34244	106316	0	0	8146	774622	0	0
2024-04-10 00:39:32			0	33653	0	0	0	17420	16140	154330	27213	946629	34265	106322	0	0	8145	775278	0	0
2024-04-10 00:40:32			0	33646	0	0	0	17425	16150	154254	27076	946592	34255	106324	0	0	8144	775590	0	0
2024-04-10 00:41:32			0	33658	0	0	0	17431	16140	154326	27523	946479	34265	106326	0	0	8145	775025	0	0
2024-04-10 00:42:32			0	33649	0	0	0	17433	16140	154286	27270	946550	34265	106327	0	0	8144	775480	0	0
2024-04-10 00:43:32			0	33663	0	0	0	17428	16130	154278	26984	946612	34264	106325	0	0	8145	774815	0	0
2024-04-10 00:44:32			0	33678	0	0	0	17423	16140	154162	27166	946602	34254	106323	0	0	8146	774016	0	0
2024-04-10 00:45:32			0	33665	0	0	0	17420	16130	154194	27048	946594	34254	106322	0	0	8146	774714	0	0
2024-04-10 00:46:32			0	33683	0	0	0	17423	16130	154114	27281	946594	34254	106323	0	0	8147	773806	0	0
2024-04-10 00:47:32			0	33673	0	0	0	17425	16140	154154	27263	946523	34254	106324	0	0	8146	774268	0	0
2024-04-10 00:48:32			0	33690	0	0	0	17428	16140	154058	27471	946602	34265	106325	0	0	8147	773411	0	0
2024-04-10 00:49:32			0	33676	0	0	0	17420	16140	154190	27272	946576	34254	106322	0	0	8146	774117	0	0
2024-04-10 00:50:32			0	33684	0	0	0	17425	16140	154162	27150	946629	34265	106324	0	0	8147	773714	0	0
2024-04-10 00:51:32			0	33681	0	0	0	17420	16130	154222	27351	946541	34254	106322	0	0	8146	773907	0	0
2024-04-10 00:52:32			0	33673	0	0	0	17415	16140	154146	27381	946629	34265	106320	0	0	8146	774268	0	0
2024-04-10 00:53:32			0	33656	0	0	0	17423	16130	154214	27242	946621	34254	106323	0	0	8145	775168	0	0
2024-04-10 00:54:32			0	33662	0	0	0	17431	16140	154158	27154	946602	34254	106326	0	0	8145	774824	0	0
2024-04-10 00:55:32			0	33662	0	0	0	17425	16130	154186	27287	946594	34243	106324	0	0	8145	774865	0	0
2024-04-10 00:56:32			0	33650	0	0	0	17431	16140	154222	27258	946602	34276	106326	0	0	8144	775429	0	0
2024-04-10 00:57:32			0	33656	0	0	0	17436	16140	154282	27559	946610	34265	106328	0	0	8145	775127	0	0
2024-04-10 00:58:32			0	33646	0	0	0	17431	16130	154302	27338	946665	34264	106326	0	0	8144	775674	0	0
2024-04-10 00:59:32			0	33635	0	0	0	17441	16140	154362	27157	946655	34254	106330	0	0	8143	776188	0	0
2024-04-10 01:00:32			0	33615	0	0	0	17436	16130	154478	27300	946621	34276	106328	0	0	8142	777241	0	0
2024-04-10 01:01:32			0	33608	0	0	0	17444	16140	154634	27027	946610	34254	106331	0	0	8142	777553	0	0
2024-04-10 01:02:32			0	33549	0	0	0	17451	16150	154693	27133	946645	34255	106334	0	0	8138	780503	0	0
2024-04-10 01:03:32			0	33554	0	0	0	17464	16140	154793	27216	946655	34265	106339	0	0	8138	780291	0	0
2024-04-10 01:04:32			0	33540	0	0	0	17451	16150	154845	26994	946645	34255	106334	0	0	8138	780960	0	0
2024-04-10 01:05:32			0	33541	0	0	0	17464	16150	154821	27010	946679	34277	106339	0	0	8138	780909	0	0
2024-04-10 01:06:32			0	33553	0	0	0	17457	16140	154737	27173	946689	34265	106336	0	0	8138	780342	0	0
2024-04-10 01:07:32			0	33547	0	0	0	17470	16150	154725	27305	946705	34299	106341	0	0	8138	780605	0	0
2024-04-10 01:08:32			0	33544	0	0	0	17472	16150	154785	27046	946671	34277	106342	0	0	8138	780757	0	0
2024-04-10 01:09:32			0	33581	0	0	0	17475	16150	154738	27270	946758	34266	106343	0	0	8140	778879	0	0
2024-04-10 01:10:32			0	33592	0	0	0	17464	16160	154530	27331	946661	34277	106339	0	0	8141	778280	0	0
2024-04-10 01:11:32			0	33596	0	0	0	17470	16160	154590	27088	946766	34289	106341	0	0	8141	778077	0	0
2024-04-10 01:12:32			0	33595	0	0	0	17462	16150	154534	27530	946732	34277	106338	0	0	8141	778170	0	0
2024-04-10 01:13:32			0	33619	0	0	0	17467	16160	154426	27642	946713	34277	106340	0	0	8142	776913	0	0
2024-04-10 01:14:32			0	33641	0	0	0	17462	16170	154518	27476	946774	34311	106338	0	0	8144	775759	0	0
2024-04-10 01:15:32			0	33628	0	0	0	17477	16160	154406	27673	946713	34266	106344	0	0	8143	776458	0	0
2024-04-10 01:16:32			0	33628	0	0	0	17472	16170	154374	27365	946782	34279	106342	0	0	8143	776416	0	0
2024-04-10 01:17:32			0	33632	0	0	0	17470	16170	154254	27526	946809	34300	106341	0	0	8143	776213	0	0
2024-04-10 01:18:32			0	33664	0	0	0	17472	16170	154206	27628	946774	34278	106342	0	0	8145	774597	0	0
2024-04-10 01:19:32			0	33662	0	0	0	17480	16170	154278	27348	946703	34300	106345	0	0	8145	774698	0	0
2024-04-10 01:20:32			0	33684	0	0	0	17480	16170	154210	27384	946809	34268	106345	0	0	8146	773588	0	0
2024-04-10 01:21:32			0	33674	0	0	0	17472	16180	154150	27495	946790	34300	106342	0	0	8145	774051	0	0
2024-04-10 01:22:32			0	33677	0	0	0	17467	16180	154098	27142	946764	34279	106340	0	0	8146	773899	0	0
2024-04-10 01:23:32			0	33693	0	0	0	17467	16170	154074	27396	946782	34300	106340	0	0	8147	773135	0	0
2024-04-10 01:24:32			0	33687	0	0	0	17459	16170	154050	27381	946730	34279	106337	0	0	8146	773437	0	0
2024-04-10 01:25:32			0	33673	0	0	0	17459	16180	154146	27098	946772	34291	106337	0	0	8146	774101	0	0
2024-04-10 01:26:32			0	33666	0	0	0	17459	16170	154250	27192	946774	34278	106337	0	0	8145	774496	0	0
2024-04-10 01:27:32			0	33664	0	0	0	17467	16180	154278	27079	946798	34291	106340	0	0	8145	774555	0	0
2024-04-10 01:28:32			0	33644	0	0	0	17454	16180	154330	26913	946738	34279	106335	0	0	8144	775565	0	0
2024-04-10 01:29:32			0	33632	0	0	0	17467	16180	154238	27364	946772	34301	106340	0	0	8143	776172	0	0
2024-04-10 01:30:32			0	33644	0	0	0	17459	16180	154306	26967	946738	34300	106337	0	0	8144	775565	0	0
2024-04-10 01:31:32			0	33641	0	0	0	17454	16170	154370	27239	946774	34289	106335	0	0	8144	775759	0	0
2024-04-10 01:32:32			0	33641	0	0	0	17451	16180	154306	27268	946764	34300	106334	0	0	8144	775717	0	0
2024-04-10 01:33:32			0	33626	0	0	0	17451	16170	154554	27358	946756	34279	106334	0	0	8143	776517	0	0
2024-04-10 01:34:32			0	33626	0	0	0	17449	16170	154462	27168	946782	34300	106333	0	0	8143	776517	0	0
2024-04-10 01:35:32			0	33628	0	0	0	17459	16170	154498	27197	946730	34279	106337	0	0	8143	776416	0	0
2024-04-10 01:36:32			0	33607	0	0	0	17462	16170	154518	27220	946722	34289	106338	0	0	8142	777478	0	0
2024-04-10 01:37:32			0	33583	0	0	0	17457	16170	154498	27343	946782	34300	106336	0	0	8140	778694	0	0
2024-04-10 01:38:32			0	33589	0	0	0	17459	16170	154466	27062	946748	34299	106337	0	0	8141	778390	0	0
2024-04-10 01:39:32			0	33604	0	0	0	17454	16170	154418	27274	946774	34299	106335	0	0	8142	777630	0	0
2024-04-10 01:40:32			0	33610	0	0	0	17449	16170	154422	27083	946801	34299	106333	0	0	8142	777326	0	0
2024-04-10 01:41:32			0	33640	0	0	0	17449	16180	154278	27239	946764	34311	106333	0	0	8144	775767	0	0
2024-04-10 01:42:32			0	33650	0	0	0	17454	16170	154278	27121	946774	34299	106335	0	0	8144	775304	0	0
2024-04-10 01:43:32			0	33669	0	0	0	17441	16170	154302	27027	946756	34300	106330	0	0	8146	774345	0	0
2024-04-10 01:44:32			0	33647	0	0	0	17441	16170	154314	27272	946730	34322	106330	0	0	8144	775456	0	0
2024-04-10 01:45:32			0	33674	0	0	0	17446	16160	154290	27133	946713	34310	106332	0	0	8146	774134	0	0
2024-04-10 01:46:32			0	33647	0	0	0	17438	16170	154282	27102	946801	34311	106329	0	0	8144	775456	0	0
2024-04-10 01:47:32			0	33663	0	0	0	17436	16160	154274	27332	946661	34310	106328	0	0	8145	774689	0	0
2024-04-10 01:48:32			0	33657	0	0	0	17418	16150	154354	27131	946626	34299	106321	0	0	8145	775034	0	0
2024-04-10 01:49:32			0	33658	0	0	0	17412	16150	154462	27261	946653	34310	106319	0	0	8145	774984	0	0
2024-04-10 01:50:32			0	33644	0	0	0	17412	16150	154410	27194	946679	34299	106319	0	0	8145	775691	0	0
2024-04-10 01:51:32			0	33632	0	0	0	17405	16140	154426	27164	946681	34308	106316	0	0	8144	776339	0	0
2024-04-10 01:52:32			0	33638	0	0	0	17402	16150	154522	27438	946592	34299	106315	0	0	8144	775994	0	0
2024-04-10 01:53:32			0	33622	0	0	0	17405	16140	154466	27270	946629	34308	106316	0	0	8143	776845	0	0
2024-04-10 01:54:32			0	33615	0	0	0	17405	16130	154546	27048	946568	34308	106316	0	0	8143	777241	0	0
2024-04-10 01:55:32			0	33610	0	0	0	17386	16130	154662	27424	946621	34297	106309	0	0	8143	777494	0	0
2024-04-10 01:56:32			0	33585	0	0	0	17394	16140	154638	27287	946576	34297	106312	0	0	8141	778719	0	0
2024-04-10 01:57:32			0	33595	0	0	0	17376	16120	154586	26994	946578	34307	106305	0	0	8142	778296	0	0
2024-04-10 01:58:32			0	33599	0	0	0	17384	16130	154658	27199	946586	34307	106308	0	0	8142	778051	0	0
2024-04-10 01:59:32			0	33587	0	0	0	17381	16120	154602	27466	946543	34307	106307	0	0	8142	778701	0	0
2024-04-10 02:00:32			0	33589	0	0	0	17379	16120	154598	27168	946464	34318	106306	0	0	8142	778600	0	0
2024-04-10 02:01:32			0	33571	0	0	0	17376	16100	154634	27173	946493	34317	106305	0	0	8141	779597	0	0
2024-04-10 02:02:32			0	33584	0	0	0	17399	16100	154678	27232	946519	34306	106314	0	0	8141	778938	0	0
2024-04-10 02:03:32			0	33582	0	0	0	17405	16110	154714	27324	946509	34307	106316	0	0	8141	778997	0	0
2024-04-10 02:04:32			0	33556	0	0	0	17405	16100	154805	27209	946485	34316	106316	0	0	8139	780358	0	0
2024-04-10 02:05:32			0	33577	0	0	0	17399	16110	154781	27433	946527	34317	106314	0	0	8141	779250	0	0
2024-04-10 02:06:32			0	33577	0	0	0	17397	16110	154762	27381	946501	34306	106313	0	0	8141	779250	0	0
2024-04-10 02:07:32			0	33553	0	0	0	17405	16110	154845	27322	946554	34317	106316	0	0	8139	780468	0	0
2024-04-10 02:08:32			0	33564	0	0	0	17348	16100	154854	27213	946519	34317	106294	0	0	8141	779952	0	0
2024-04-10 02:09:32			0	33550	0	0	0	17363	16100	154877	27504	946432	34316	106300	0	0	8140	780663	0	0
2024-04-10 02:10:32			0	33546	0	0	0	17368	16090	154949	27248	946495	34316	106302	0	0	8139	780908	0	0
2024-04-10 02:11:32			0	33557	0	0	0	17397	16100	154949	27403	946432	34305	106313	0	0	8139	780308	0	0
2024-04-10 02:12:32			0	33544	0	0	0	17418	16090	154941	27164	946495	34316	106321	0	0	8138	781010	0	0
2024-04-10 02:13:32			0	33521	0	0	0	17428	16110	155061	27024	946554	34328	106325	0	0	8137	782095	0	0
2024-04-10 02:14:32			0	33520	0	0	0	17431	16110	155093	27196	946554	34328	106326	0	0	8137	782146	0	0
2024-04-10 02:15:32			0	33480	0	0	0	17425	16110	155273	27178	946580	34317	106324	0	0	8134	784183	0	0
2024-04-10 02:16:32			0	33438	0	0	0	17425	16110	155381	27185	946606	34338	106324	0	0	8132	786326	0	0
2024-04-10 02:17:32			0	33430	0	0	0	17423	16110	155361	27391	946614	34329	106323	0	0	8131	786735	0	0
2024-04-10 02:18:32			0	33423	0	0	0	17423	16110	155393	27523	946614	34329	106323	0	0	8131	787093	0	0
2024-04-10 02:19:32			0	33419	0	0	0	17431	16120	155529	26991	946631	34340	106326	0	0	8131	787255	0	0
2024-04-10 02:20:32			0	33419	0	0	0	17431	16120	155477	27142	946570	34339	106326	0	0	8131	787255	0	0
2024-04-10 02:21:32			0	33419	0	0	0	17431	16120	155561	26908	946649	34318	106326	0	0	8131	787255	0	0
2024-04-10 02:22:32			0	33406	0	0	0	17436	16120	155545	27284	946657	34340	106328	0	0	8130	787920	0	0
2024-04-10 02:23:32			0	33402	0	0	0	17431	16120	155637	27339	946622	34329	106326	0	0	8130	788125	0	0
2024-04-10 02:24:32			0	33404	0	0	0	17433	16110	155693	27133	946588	34350	106327	0	0	8130	788065	0	0
2024-04-10 02:25:32			0	33414	0	0	0	17428	16130	155545	27281	946691	34340	106325	0	0	8131	787468	0	0
2024-04-10 02:26:32			0	33437	0	0	0	17428	16130	155369	27511	946691	34330	106325	0	0	8132	786292	0	0
2024-04-10 02:27:32			0	33458	0	0	0	17431	16130	155325	27124	946726	34352	106326	0	0	8133	785220	0	0
2024-04-10 02:28:32			0	33482	0	0	0	17433	16130	155249	27329	946726	34341	106327	0	0	8134	783996	0	0
2024-04-10 02:29:32			0	33493	0	0	0	17436	16130	155245	27433	946691	34351	106328	0	0	8135	783436	0	0
2024-04-10 02:30:32			0	33484	0	0	0	17425	16130	155181	27438	946665	34340	106324	0	0	8135	783894	0	0
2024-04-10 02:31:32			0	33468	0	0	0	17425	16140	155217	27294	946681	34330	106324	0	0	8134	784668	0	0
2024-04-10 02:32:32			0	33486	0	0	0	17420	16140	155253	27410	946655	34341	106322	0	0	8135	783750	0	0
2024-04-10 02:33:32			0	33494	0	0	0	17431	16130	155145	27201	946639	34340	106326	0	0	8135	783385	0	0
2024-04-10 02:34:32			0	33488	0	0	0	17420	16130	155105	27306	946612	34340	106322	0	0	8135	783690	0	0
2024-04-10 02:35:32			0	33504	0	0	0	17386	16130	155081	27564	946621	34341	106309	0	0	8137	782875	0	0
2024-04-10 02:36:32			0	33505	0	0	0	17374	16130	155157	27656	946594	34341	106304	0	0	8137	782824	0	0
2024-04-10 02:37:32			0	33504	0	0	0	17368	16110	155161	27128	946535	34339	106302	0	0	8137	782960	0	0
2024-04-10 02:38:32			0	33501	0	0	0	17386	16130	155041	27549	946586	34340	106309	0	0	8136	783028	0	0
2024-04-10 02:39:32			0	33499	0	0	0	17394	16110	155085	27312	946535	34350	106312	0	0	8136	783215	0	0
2024-04-10 02:40:32			0	33508	0	0	0	17394	16110	155169	27360	946456	34339	106312	0	0	8137	782756	0	0
2024-04-10 02:41:32			0	33509	0	0	0	17389	16110	155165	27490	946535	34329	106310	0	0	8137	782706	0	0
2024-04-10 02:42:32			0	33486	0	0	0	17418	16120	155233	27083	946543	34350	106321	0	0	8135	783835	0	0
2024-04-10 02:43:32			0	33484	0	0	0	17415	16100	155321	27246	946572	34350	106320	0	0	8135	784021	0	0
2024-04-10 02:44:32			0	33453	0	0	0	17402	16110	155317	27253	946535	34339	106315	0	0	8133	785560	0	0
2024-04-10 02:45:32			0	33460	0	0	0	17410	16110	155393	27126	946527	34350	106318	0	0	8133	785203	0	0
2024-04-10 02:46:32			0	33460	0	0	0	17402	16100	155453	27395	946545	34338	106315	0	0	8134	785245	0	0
2024-04-10 02:47:32			0	33463	0	0	0	17399	16110	155421	27352	946614	34350	106314	0	0	8134	785050	0	0
2024-04-10 02:48:32			0	33463	0	0	0	17399	16110	155337	27300	946614	34339	106314	0	0	8134	785050	0	0
2024-04-10 02:49:32			0	33446	0	0	0	17418	16100	155365	27386	946545	34350	106321	0	0	8132	785960	0	0
2024-04-10 02:50:32			0	33435	0	0	0	17420	16110	155561	27300	946588	34361	106322	0	0	8132	786479	0	0
2024-04-10 02:51:32			0	33422	0	0	0	17423	16110	155533	27263	946641	34350	106323	0	0	8131	787144	0	0
2024-04-10 02:52:32			0	33416	0	0	0	17415	16110	155525	27246	946535	34361	106320	0	0	8131	787451	0	0
2024-04-10 02:53:32			0	33389	0	0	0	17418	16110	155629	27064	946633	34361	106321	0	0	8129	788833	0	0
2024-04-10 02:54:32			0	33386	0	0	0	17415	16120	155665	27128	946631	34351	106320	0	0	8129	788944	0	0
2024-04-10 02:55:32			0	33389	0	0	0	17415	16120	155705	27102	946622	34350	106320	0	0	8129	788790	0	0
2024-04-10 02:56:32			0	33380	0	0	0	17428	16110	155821	27137	946588	34361	106325	0	0	8128	789294	0	0
2024-04-10 02:57:32			0	33374	0	0	0	17420	16120	155737	27543	946596	34361	106322	0	0	8128	789559	0	0
2024-04-10 02:58:32			0	33368	0	0	0	17418	16120	155821	27171	946683	34351	106321	0	0	8128	789867	0	0
2024-04-10 02:59:32			0	33380	0	0	0	17407	16110	155725	27230	946588	34361	106317	0	0	8129	789294	0	0
2024-04-10 03:00:32			0	33372	0	0	0	17405	16110	155817	26961	946614	34361	106316	0	0	8128	789704	0	0
2024-04-10 03:01:32			0	33359	0	0	0	17405	16110	155857	27034	946614	34350	106316	0	0	8128	790371	0	0
2024-04-10 03:02:32			0	33370	0	0	0	17389	16120	155853	27104	946543	34361	106310	0	0	8128	789764	0	0
2024-04-10 03:03:32			0	33371	0	0	0	17399	16110	155845	27046	946562	34361	106314	0	0	8128	789755	0	0
2024-04-10 03:04:32			0	33366	0	0	0	17394	16110	155849	27036	946580	34350	106312	0	0	8128	790012	0	0
2024-04-10 03:05:32			0	33364	0	0	0	17402	16110	155889	27192	946588	34373	106315	0	0	8128	790114	0	0
2024-04-10 03:06:32			0	33352	0	0	0	17394	16110	155857	27069	946562	34373	106312	0	0	8127	790730	0	0
2024-04-10 03:07:32			0	33347	0	0	0	17374	16110	156009	27246	946527	34372	106304	0	0	8127	790987	0	0
2024-04-10 03:08:32			0	33341	0	0	0	17368	16110	155877	27005	946554	34361	106302	0	0	8127	791295	0	0
2024-04-10 03:09:32			0	33335	0	0	0	17366	16100	155977	27124	946519	34350	106301	0	0	8127	791646	0	0
2024-04-10 03:10:32			0	33338	0	0	0	17374	16090	156041	27057	946503	34371	106304	0	0	8127	791534	0	0
2024-04-10 03:11:32			0	33326	0	0	0	17379	16100	156017	27388	946537	34360	106306	0	0	8126	792108	0	0
2024-04-10 03:12:32			0	33310	0	0	0	17374	16100	156005	26994	946511	34349	106304	0	0	8125	792931	0	0
2024-04-10 03:13:32			0	33312	0	0	0	17368	16100	156041	27105	946511	34349	106302	0	0	8125	792828	0	0
2024-04-10 03:14:32			0	33308	0	0	0	17376	16100	156157	27163	946432	34381	106305	0	0	8125	793034	0	0
2024-04-10 03:15:32			0	33291	0	0	0	17399	16090	156165	26934	946529	34360	106314	0	0	8123	793952	0	0
2024-04-10 03:16:32			0	33287	0	0	0	17405	16100	156261	26949	946519	34361	106316	0	0	8123	794115	0	0
2024-04-10 03:17:32			0	33272	0	0	0	17410	16100	156341	26941	946511	34381	106318	0	0	8122	794888	0	0
2024-04-10 03:18:32			0	33257	0	0	0	17420	16090	156389	27332	946503	34381	106322	0	0	8121	795704	0	0
2024-04-10 03:19:32			0	33259	0	0	0	17402	16100	156409	27345	946545	34372	106315	0	0	8122	795558	0	0
2024-04-10 03:20:32			0	33262	0	0	0	17402	16090	156381	27079	946529	34381	106315	0	0	8122	795446	0	0
2024-04-10 03:21:32			0	33248	0	0	0	17399	16100	156433	26930	946545	34382	106314	0	0	8121	796126	0	0
2024-04-10 03:22:32			0	33250	0	0	0	17399	16100	156381	27559	946545	34382	106314	0	0	8121	796022	0	0
2024-04-10 03:23:32			0	33251	0	0	0	17405	16100	156293	27154	946564	34381	106316	0	0	8121	795971	0	0
2024-04-10 03:24:32			0	33232	0	0	0	17407	16110	156481	27114	946580	34393	106317	0	0	8120	796909	0	0
2024-04-10 03:25:32			0	33233	0	0	0	17405	16100	156409	27000	946572	34382	106316	0	0	8120	796900	0	0
2024-04-10 03:26:32			0	33238	0	0	0	17412	16110	156465	27133	946580	34382	106319	0	0	8120	796599	0	0
2024-04-10 03:27:32			0	33225	0	0	0	17410	16110	156489	27072	946633	34393	106318	0	0	8119	797270	0	0
2024-04-10 03:28:32			0	33228	0	0	0	17412	16110	156533	27369	946614	34383	106319	0	0	8120	797115	0	0
2024-04-10 03:29:32			0	33222	0	0	0	17418	16110	156509	27119	946588	34383	106321	0	0	8119	797425	0	0
2024-04-10 03:30:32			0	33217	0	0	0	17407	16110	156617	27258	946659	34382	106317	0	0	8119	797684	0	0
2024-04-10 03:31:32			0	33206	0	0	0	17407	16110	156525	27326	946633	34393	106317	0	0	8118	798252	0	0
2024-04-10 03:32:32			0	33192	0	0	0	17412	16110	156537	27126	946641	34373	106319	0	0	8117	798977	0	0
2024-04-10 03:33:32			0	33196	0	0	0	17412	16110	156593	26906	946614	34373	106319	0	0	8118	798770	0	0
2024-04-10 03:34:32			0	33216	0	0	0	17410	16110	156593	27301	946641	34394	106318	0	0	8119	797735	0	0
2024-04-10 03:35:32			0	33212	0	0	0	17402	16110	156633	27157	946588	34394	106315	0	0	8119	797942	0	0
2024-04-10 03:36:32			0	33210	0	0	0	17402	16110	156577	27355	946659	34372	106315	0	0	8119	798046	0	0
2024-04-10 03:37:32			0	33221	0	0	0	17394	16110	156509	27130	946554	34382	106312	0	0	8119	797477	0	0
2024-04-10 03:38:32			0	33205	0	0	0	17402	16110	156553	27199	946580	34393	106315	0	0	8118	798304	0	0
2024-04-10 03:39:32			0	33214	0	0	0	17399	16110	156581	27310	946580	34382	106314	0	0	8119	797839	0	0
2024-04-10 03:40:32			0	33213	0	0	0	17405	16100	156477	27281	946590	34381	106316	0	0	8119	797934	0	0
2024-04-10 03:41:32			0	33232	0	0	0	17399	16100	156557	27102	946625	34393	106314	0	0	8120	796952	0	0
2024-04-10 03:42:32			0	33218	0	0	0	17405	16110	156497	27424	946614	34394	106316	0	0	8119	797632	0	0
2024-04-10 03:43:32			0	33215	0	0	0	17407	16110	156461	27185	946685	34404	106317	0	0	8119	797787	0	0
2024-04-10 03:44:32			0	33203	0	0	0	17402	16110	156605	27324	946614	34383	106315	0	0	8118	798408	0	0
2024-04-10 03:45:32			0	33216	0	0	0	17402	16110	156481	27237	946633	34404	106315	0	0	8119	797735	0	0
2024-04-10 03:46:32			0	33220	0	0	0	17399	16120	156541	27348	946570	34383	106314	0	0	8119	797486	0	0
2024-04-10 03:47:32			0	33221	0	0	0	17407	16110	156513	27398	946633	34393	106317	0	0	8119	797477	0	0
2024-04-10 03:48:32			0	33204	0	0	0	17399	16100	156569	27407	946598	34404	106314	0	0	8118	798399	0	0
2024-04-10 03:49:32			0	33213	0	0	0	17405	16110	156525	27376	946614	34394	106316	0	0	8119	797891	0	0
2024-04-10 03:50:32			0	33212	0	0	0	17405	16110	156529	27524	946606	34404	106316	0	0	8119	797942	0	0
2024-04-10 03:51:32			0	33203	0	0	0	17394	16110	156677	27177	946633	34415	106312	0	0	8118	798408	0	0
2024-04-10 03:52:32			0	33232	0	0	0	17399	16110	156581	27457	946685	34382	106314	0	0	8120	796909	0	0
2024-04-10 03:53:32			0	33218	0	0	0	17402	16110	156481	27289	946614	34416	106315	0	0	8119	797632	0	0
2024-04-10 03:54:32			0	33207	0	0	0	17399	16110	156505	27145	946614	34405	106314	0	0	8119	798201	0	0
2024-04-10 03:55:32			0	33190	0	0	0	17399	16110	156665	27488	946614	34405	106314	0	0	8117	799081	0	0
2024-04-10 03:56:32			0	33176	0	0	0	17412	16120	156689	27152	946596	34394	106319	0	0	8116	799762	0	0
2024-04-10 03:57:32			0	33163	0	0	0	17402	16110	156781	27142	946588	34405	106315	0	0	8116	800479	0	0
2024-04-10 03:58:32			0	33150	0	0	0	17389	16120	156837	27234	946649	34394	106310	0	0	8115	801110	0	0
2024-04-10 03:59:32			0	33147	0	0	0	17389	16100	156949	27460	946625	34415	106310	0	0	8115	801352	0	0
2024-04-10 04:00:32			0	33140	0	0	0	17392	16100	156929	27234	946572	34415	106311	0	0	8115	801716	0	0
2024-04-10 04:01:32			0	33122	0	0	0	17399	16100	157121	27171	946572	34404	106314	0	0	8113	802650	0	0
2024-04-10 04:02:32			0	33099	0	0	0	17384	16100	157157	27398	946545	34415	106308	0	0	8112	803846	0	0
2024-04-10 04:03:32			0	33090	0	0	0	17379	16110	157241	27097	946580	34425	106306	0	0	8112	804271	0	0
2024-04-10 04:04:32			0	33074	0	0	0	17384	16100	157221	27294	946590	34403	106308	0	0	8111	805148	0	0
2024-04-10 04:05:32			0	33045	0	0	0	17389	16100	157357	27164	946590	34403	106310	0	0	8109	806660	0	0
2024-04-10 04:06:32			0	33054	0	0	0	17381	16100	157461	27308	946572	34404	106307	0	0	8110	806190	0	0
2024-04-10 04:07:32			0	33040	0	0	0	17384	16090	157513	27248	946627	34414	106308	0	0	8109	806964	0	0
2024-04-10 04:08:32			0	33046	0	0	0	17361	16090	157465	27462	946556	34415	106299	0	0	8109	806651	0	0
2024-04-10 04:09:32			0	33070	0	0	0	17340	16100	157301	27319	946485	34415	106291	0	0	8111	805356	0	0
2024-04-10 04:10:32			0	33100	0	0	0	17340	16100	157233	27168	946485	34415	106291	0	0	8113	803794	0	0
2024-04-10 04:11:32			0	33153	0	0	0	17345	16090	156981	27274	946495	34403	106293	0	0	8116	801084	0	0
2024-04-10 04:12:32			0	33193	0	0	0	17337	16080	156653	26989	946461	34403	106290	0	0	8119	799054	0	0
2024-04-10 04:13:32			0	33216	0	0	0	17329	16080	156461	27187	946540	34403	106287	0	0	8120	797865	0	0
2024-04-10 04:14:32			0	33280	0	0	0	17345	16080	156297	27183	946461	34414	106293	0	0	8124	794561	0	0
2024-04-10 04:15:32			0	33329	0	0	0	17348	16080	155993	27282	946400	34402	106294	0	0	8127	792040	0	0
2024-04-10 04:16:32			0	33416	0	0	0	17345	16080	155705	27391	946453	34423	106293	0	0	8132	787578	0	0
2024-04-10 04:17:32			0	33445	0	0	0	17345	16070	155541	26883	946463	34412	106293	0	0	8133	786138	0	0
2024-04-10 04:18:32			0	33478	0	0	0	17342	16080	155369	27126	946434	34414	106292	0	0	8136	784412	0	0
2024-04-10 04:19:32			0	33474	0	0	0	17340	16070	155369	27379	946392	34423	106291	0	0	8135	784658	0	0
2024-04-10 04:20:32			0	33507	0	0	0	17348	16060	155269	26913	946376	34422	106294	0	0	8137	783019	0	0
2024-04-10 04:21:32			0	33529	0	0	0	17345	16060	155281	26941	946428	34412	106293	0	0	8138	781899	0	0
2024-04-10 04:22:32			0	33549	0	0	0	17340	16060	155125	27192	946455	34433	106291	0	0	8140	780882	0	0
2024-04-10 04:23:32			0	33547	0	0	0	17345	16070	154985	27074	946392	34413	106293	0	0	8140	780942	0	0
2024-04-10 04:24:32			0	33576	0	0	0	17348	16070	154942	27156	946489	34422	106294	0	0	8141	779469	0	0
2024-04-10 04:25:32			0	33605	0	0	0	17358	16060	154818	27102	946455	34422	106298	0	0	8143	778041	0	0
2024-04-10 04:26:32			0	33617	0	0	0	17348	16070	154854	27116	946471	34423	106294	0	0	8144	777392	0	0
2024-04-10 04:27:32			0	33608	0	0	0	17340	16070	154738	27057	946392	34434	106291	0	0	8143	777847	0	0
2024-04-10 04:28:32			0	33630	0	0	0	17342	16080	154750	27229	946479	34423	106292	0	0	8145	776692	0	0
2024-04-10 04:29:32			0	33608	0	0	0	17340	16070	154882	27282	946384	34412	106291	0	0	8143	777847	0	0
2024-04-10 04:30:32			0	33585	0	0	0	17342	16070	154822	27241	946436	34445	106292	0	0	8142	779013	0	0
2024-04-10 04:31:32			0	33581	0	0	0	17348	16070	154982	27313	946384	34434	106294	0	0	8141	779216	0	0
2024-04-10 04:32:32			0	33579	0	0	0	17348	16060	154994	27175	946455	34422	106294	0	0	8141	779359	0	0
2024-04-10 04:33:32			0	33586	0	0	0	17353	16070	154934	27015	946463	34412	106296	0	0	8142	778962	0	0
2024-04-10 04:34:32			0	33591	0	0	0	17361	16060	154886	27242	946455	34433	106299	0	0	8142	778751	0	0
2024-04-10 04:35:32			0	33616	0	0	0	17348	16070	154862	27296	946489	34422	106294	0	0	8144	777442	0	0
2024-04-10 04:36:32			0	33625	0	0	0	17353	16070	154822	27537	946489	34422	106296	0	0	8144	776987	0	0
2024-04-10 04:37:32			0	33621	0	0	0	17353	16060	154798	27157	946455	34433	106296	0	0	8144	777231	0	0
2024-04-10 04:38:32			0	33624	0	0	0	17353	16080	154730	27270	946400	34423	106296	0	0	8144	776995	0	0
2024-04-10 04:39:32			0	33625	0	0	0	17353	16060	154706	27161	946349	34433	106296	0	0	8144	777029	0	0
2024-04-10 04:40:32			0	33621	0	0	0	17355	16070	154882	27528	946471	34434	106297	0	0	8144	777189	0	0
2024-04-10 04:41:32			0	33617	0	0	0	17350	16070	154798	27469	946515	34434	106295	0	0	8144	777392	0	0
2024-04-10 04:42:32			0	33625	0	0	0	17353	16060	154846	27260	946394	34433	106296	0	0	8144	777029	0	0
2024-04-10 04:43:32			0	33653	0	0	0	17340	16080	154686	27315	946373	34423	106291	0	0	8146	775529	0	0
2024-04-10 04:44:32			0	33640	0	0	0	17361	16060	154806	27277	946402	34433	106299	0	0	8145	776270	0	0
2024-04-10 04:45:32			0	33628	0	0	0	17358	16060	154870	27663	946447	34422	106298	0	0	8144	776877	0	0
2024-04-10 04:46:32			0	33630	0	0	0	17363	16070	154730	27452	946542	34434	106300	0	0	8144	776734	0	0
2024-04-10 04:47:32			0	33633	0	0	0	17361	16080	154866	27357	946426	34457	106299	0	0	8144	776540	0	0
2024-04-10 04:48:32			0	33615	0	0	0	17361	16070	154834	27170	946471	34423	106299	0	0	8143	777493	0	0
2024-04-10 04:49:32			0	33615	0	0	0	17355	16060	154790	27131	946455	34433	106297	0	0	8143	777535	0	0
2024-04-10 04:50:32			0	33632	0	0	0	17348	16070	154782	27003	946436	34456	106294	0	0	8144	776633	0	0
2024-04-10 04:51:32			0	33603	0	0	0	17355	16070	154830	27395	946515	34456	106297	0	0	8143	778101	0	0
2024-04-10 04:52:32			0	33614	0	0	0	17353	16060	154854	27329	946428	34433	106296	0	0	8143	777586	0	0
2024-04-10 04:53:32			0	33608	0	0	0	17348	16060	154806	27239	946455	34455	106294	0	0	8143	777889	0	0
2024-04-10 04:54:32			0	33608	0	0	0	17345	16060	154958	27538	946376	34444	106293	0	0	8143	777889	0	0
2024-04-10 04:55:32			0	33606	0	0	0	17342	16070	154866	26883	946436	34456	106292	0	0	8143	777949	0	0
2024-04-10 04:56:32			0	33585	0	0	0	17348	16060	154842	27500	946473	34455	106294	0	0	8142	779055	0	0
2024-04-10 04:57:32			0	33595	0	0	0	17340	16060	154982	27296	946455	34465	106291	0	0	8142	778548	0	0
2024-04-10 04:58:32			0	33596	0	0	0	17348	16060	154998	27388	946420	34444	106294	0	0	8142	778497	0	0
2024-04-10 04:59:32			0	33579	0	0	0	17355	16060	155090	27466	946481	34444	106297	0	0	8141	779359	0	0
2024-04-10 05:00:32			0	33576	0	0	0	17353	16070	155018	27092	946463	34466	106296	0	0	8141	779469	0	0
2024-04-10 05:01:32			0	33583	0	0	0	17348	16060	154982	27105	946447	34455	106294	0	0	8142	779156	0	0
2024-04-10 05:02:32			0	33597	0	0	0	17340	16060	154950	27452	946420	34455	106291	0	0	8143	778447	0	0
2024-04-10 05:03:32			0	33577	0	0	0	17335	16070	155078	27412	946489	34466	106289	0	0	8141	779419	0	0
2024-04-10 05:04:32			0	33558	0	0	0	17350	16060	155041	27445	946447	34444	106295	0	0	8140	780425	0	0
2024-04-10 05:05:32			0	33570	0	0	0	17340	16060	155141	27317	946394	34465	106291	0	0	8141	779816	0	0
2024-04-10 05:06:32			0	33543	0	0	0	17345	16060	155181	27123	946447	34455	106293	0	0	8139	781187	0	0
2024-04-10 05:07:32			0	33548	0	0	0	17345	16070	155249	27060	946463	34477	106293	0	0	8140	780891	0	0
2024-04-10 05:08:32			0	33539	0	0	0	17350	16060	155261	27400	946447	34465	106295	0	0	8139	781390	0	0
2024-04-10 05:09:32			0	33542	0	0	0	17350	16060	155373	27119	946499	34455	106295	0	0	8139	781238	0	0
2024-04-10 05:10:32			0	33519	0	0	0	17350	16060	155341	27312	946473	34465	106295	0	0	8138	782408	0	0
2024-04-10 05:11:32			0	33525	0	0	0	17348	16060	155265	27249	946428	34465	106294	0	0	8138	782102	0	0
2024-04-10 05:12:32			0	33506	0	0	0	17350	16070	155409	27305	946463	34477	106295	0	0	8137	783027	0	0
2024-04-10 05:13:32			0	33518	0	0	0	17342	16060	155393	27466	946507	34455	106292	0	0	8138	782459	0	0
2024-04-10 05:14:32			0	33513	0	0	0	17348	16060	155393	27239	946473	34476	106294	0	0	8137	782713	0	0
2024-04-10 05:15:32			0	33506	0	0	0	17340	16060	155361	27594	946481	34465	106291	0	0	8137	783069	0	0
2024-04-10 05:16:32			0	33503	0	0	0	17345	16070	155409	27542	946489	34466	106293	0	0	8137	783180	0	0
2024-04-10 05:17:32			0	33496	0	0	0	17340	16060	155465	27481	946428	34476	106291	0	0	8137	783579	0	0
2024-04-10 05:18:32			0	33501	0	0	0	17342	16060	155549	27417	946447	34455	106292	0	0	8137	783324	0	0
2024-04-10 05:19:32			0	33492	0	0	0	17335	16050	155437	27242	946457	34454	106289	0	0	8136	783825	0	0
2024-04-10 05:20:32			0	33488	0	0	0	17340	16060	155533	27339	946473	34465	106291	0	0	8136	783986	0	0
2024-04-10 05:21:32			0	33490	0	0	0	17342	16070	155513	27443	946463	34477	106292	0	0	8136	783842	0	0
2024-04-10 05:22:32			0	33487	0	0	0	17340	16070	155609	27429	946463	34477	106291	0	0	8136	783995	0	0
2024-04-10 05:23:32			0	33466	0	0	0	17337	16050	155593	27386	946439	34476	106290	0	0	8135	785151	0	0
2024-04-10 05:24:32			0	33457	0	0	0	17340	16060	155605	27279	946368	34476	106291	0	0	8134	785568	0	0
2024-04-10 05:25:32			0	33464	0	0	0	17340	16050	155725	27538	946386	34476	106291	0	0	8135	785253	0	0
2024-04-10 05:26:32			0	33444	0	0	0	17332	16060	155757	27474	946455	34455	106288	0	0	8134	786232	0	0
2024-04-10 05:27:32			0	33442	0	0	0	17335	16050	155833	27403	946412	34487	106289	0	0	8133	786376	0	0
2024-04-10 05:28:32			0	33425	0	0	0	17337	16050	155801	27535	946491	34487	106290	0	0	8132	787245	0	0
2024-04-10 05:29:32			0	33423	0	0	0	17332	16050	155761	27123	946360	34476	106288	0	0	8132	787348	0	0
2024-04-10 05:30:32			0	33421	0	0	0	17332	16060	155825	27211	946473	34476	106288	0	0	8132	787407	0	0
2024-04-10 05:31:32			0	33451	0	0	0	17337	16050	155793	27428	946465	34487	106290	0	0	8134	785917	0	0
2024-04-10 05:32:32			0	33425	0	0	0	17337	16050	155821	27093	946360	34476	106290	0	0	8132	787245	0	0
2024-04-10 05:33:32			0	33422	0	0	0	17337	16050	155841	27509	946439	34476	106290	0	0	8132	787399	0	0
2024-04-10 05:34:32			0	33425	0	0	0	17350	16050	155801	27090	946412	34476	106295	0	0	8132	787245	0	0
2024-04-10 05:35:32			0	33421	0	0	0	17342	16050	155833	27268	946457	34464	106292	0	0	8132	787450	0	0
2024-04-10 05:36:32			0	33420	0	0	0	17340	16050	155885	27450	946360	34476	106291	0	0	8132	787501	0	0
2024-04-10 05:37:32			0	33396	0	0	0	17335	16050	155989	27670	946412	34476	106289	0	0	8131	788730	0	0
2024-04-10 05:38:32			0	33402	0	0	0	17342	16050	155965	27445	946465	34476	106292	0	0	8131	788422	0	0
2024-04-10 05:39:32			0	33397	0	0	0	17329	16040	156017	27067	946343	34497	106287	0	0	8131	788721	0	0
2024-04-10 05:40:32			0	33388	0	0	0	17335	16050	155965	27062	946431	34476	106289	0	0	8130	789140	0	0
2024-04-10 05:41:32			0	33383	0	0	0	17335	16050	156001	26996	946378	34476	106289	0	0	8130	789396	0	0
2024-04-10 05:42:32			0	33380	0	0	0	17329	16050	155997	27305	946483	34487	106287	0	0	8130	789550	0	0
2024-04-10 05:43:32			0	33372	0	0	0	17329	16040	156081	26949	946422	34486	106287	0	0	8129	790002	0	0
2024-04-10 05:44:32			0	33362	0	0	0	17335	16050	156001	27287	946404	34487	106289	0	0	8129	790473	0	0
2024-04-10 05:45:32			0	33367	0	0	0	17324	16050	156109	27237	946404	34476	106285	0	0	8129	790216	0	0
2024-04-10 05:46:32			0	33373	0	0	0	17332	16060	155965	27265	946420	34465	106288	0	0	8129	789866	0	0
2024-04-10 05:47:32			0	33368	0	0	0	17337	16040	156073	27173	946449	34518	106290	0	0	8129	790208	0	0
2024-04-10 05:48:32			0	33363	0	0	0	17337	16050	156185	27126	946457	34498	106290	0	0	8129	790422	0	0
2024-04-10 05:49:32			0	33331	0	0	0	17348	16040	156177	26948	946422	34497	106294	0	0	8126	792108	0	0
2024-04-10 05:50:32			0	33314	0	0	0	17366	16050	156329	27336	946483	34498	106301	0	0	8125	792939	0	0
2024-04-10 05:51:32			0	33305	0	0	0	17376	16050	156485	26904	946439	34487	106305	0	0	8124	793402	0	0
2024-04-10 05:52:32			0	33294	0	0	0	17379	16050	156417	27248	946483	34498	106306	0	0	8124	793969	0	0
2024-04-10 05:53:32			0	33298	0	0	0	17384	16060	156381	27071	946552	34509	106308	0	0	8124	793720	0	0
2024-04-10 05:54:32			0	33306	0	0	0	17389	16060	156449	27450	946526	34499	106310	0	0	8124	793308	0	0
2024-04-10 05:55:32			0	33325	0	0	0	17386	16050	156341	27514	946544	34508	106309	0	0	8126	792373	0	0
2024-04-10 05:56:32			0	33320	0	0	0	17363	16070	156265	27395	946576	34510	106300	0	0	8126	792545	0	0
2024-04-10 05:57:32			0	33320	0	0	0	17361	16070	156325	26913	946515	34509	106299	0	0	8126	792545	0	0
2024-04-10 05:58:32			0	33313	0	0	0	17355	16070	156365	27041	946515	34499	106297	0	0	8125	792905	0	0
2024-04-10 05:59:32			0	33311	0	0	0	17353	16070	156393	27074	946542	34488	106296	0	0	8125	793008	0	0
2024-04-10 06:00:32			0	33310	0	0	0	17350	16060	156409	27237	946507	34520	106295	0	0	8125	793102	0	0
2024-04-10 06:01:32			0	33295	0	0	0	17355	16060	156597	27173	946473	34509	106297	0	0	8124	793874	0	0
2024-04-10 06:02:32			0	33263	0	0	0	17350	16060	156645	27313	946526	34509	106295	0	0	8122	795523	0	0
2024-04-10 06:03:32			0	33257	0	0	0	17363	16060	156653	27071	946507	34487	106300	0	0	8122	795833	0	0
2024-04-10 06:04:32			0	33257	0	0	0	17353	16060	156705	27502	946499	34509	106296	0	0	8122	795833	0	0
2024-04-10 06:05:32			0	33230	0	0	0	17345	16060	156845	27343	946507	34499	106293	0	0	8121	797227	0	0
2024-04-10 06:06:32			0	33228	0	0	0	17348	16060	156705	27324	946473	34520	106294	0	0	8120	797330	0	0
2024-04-10 06:07:32			0	33216	0	0	0	17340	16070	156777	27081	946489	34521	106291	0	0	8120	797908	0	0
2024-04-10 06:08:32			0	33223	0	0	0	17340	16070	156801	27263	946542	34521	106291	0	0	8120	797546	0	0
2024-04-10 06:09:32			0	33210	0	0	0	17337	16060	156797	27225	946526	34499	106290	0	0	8119	798261	0	0
2024-04-10 06:10:32			0	33199	0	0	0	17327	16060	156941	27227	946481	34509	106286	0	0	8119	798830	0	0
2024-04-10 06:11:32			0	33192	0	0	0	17324	16050	156985	26987	946465	34508	106285	0	0	8119	799236	0	0
2024-04-10 06:12:32			0	33187	0	0	0	17337	16060	156977	27260	946473	34509	106290	0	0	8118	799452	0	0
2024-04-10 06:13:32			0	33209	0	0	0	17322	16050	157021	27355	946439	34519	106284	0	0	8120	798356	0	0
2024-04-10 06:14:32			0	33180	0	0	0	17327	16050	157021	26934	946431	34519	106286	0	0	8118	799857	0	0
2024-04-10 06:15:32			0	33188	0	0	0	17316	16050	156937	27306	946491	34519	106282	0	0	8118	799443	0	0
2024-04-10 06:16:32			0	33177	0	0	0	17322	16050	157009	27100	946386	34508	106284	0	0	8118	800013	0	0
2024-04-10 06:17:32			0	33179	0	0	0	17340	16060	156941	27213	946447	34509	106291	0	0	8118	799866	0	0
2024-04-10 06:18:32			0	33172	0	0	0	17329	16050	157021	27396	946491	34530	106287	0	0	8117	800272	0	0
2024-04-10 06:19:32			0	33156	0	0	0	17324	16050	157137	27076	946431	34508	106285	0	0	8116	801102	0	0
2024-04-10 06:20:32			0	33148	0	0	0	17355	16040	157233	27182	946467	34518	106297	0	0	8115	801560	0	0
2024-04-10 06:21:32			0	33127	0	0	0	17358	16040	157321	27237	946449	34530	106298	0	0	8114	802651	0	0
2024-04-10 06:22:32			0	33123	0	0	0	17322	16050	157373	27263	946491	34498	106284	0	0	8114	802815	0	0
2024-04-10 06:23:32			0	33106	0	0	0	17314	16040	157385	27428	946449	34518	106281	0	0	8114	803742	0	0
2024-04-10 06:24:32			0	33101	0	0	0	17324	16050	157313	27126	946386	34530	106285	0	0	8113	803959	0	0
2024-04-10 06:25:32			0	33128	0	0	0	17322	16040	157377	27351	946370	34530	106284	0	0	8115	802599	0	0
2024-04-10 06:26:32			0	33094	0	0	0	17329	16040	157469	27339	946414	34518	106287	0	0	8113	804367	0	0
2024-04-10 06:27:32			0	33118	0	0	0	17319	16030	157413	27578	946433	34540	106283	0	0	8114	803162	0	0
2024-04-10 06:28:32			0	33088	0	0	0	17303	16040	157501	27296	946396	34530	106277	0	0	8113	804679	0	0
2024-04-10 06:29:32			0	33096	0	0	0	17316	16040	157457	27422	946317	34530	106282	0	0	8113	804263	0	0
2024-04-10 06:30:32			0	33100	0	0	0	17335	16050	157485	27651	946378	34519	106289	0	0	8113	804011	0	0
2024-04-10 06:31:32			0	33077	0	0	0	17327	16040	157501	27107	946370	34530	106286	0	0	8112	805252	0	0
2024-04-10 06:32:32			0	33075	0	0	0	17337	16030	157537	27197	946459	34529	106290	0	0	8111	805400	0	0
2024-04-10 06:33:32			0	33085	0	0	0	17329	16040	157557	27306	946414	34518	106287	0	0	8112	804836	0	0
2024-04-10 06:34:32			0	33067	0	0	0	17342	16030	157629	27383	946406	34529	106292	0	0	8111	805817	0	0
2024-04-10 06:35:32			0	33073	0	0	0	17337	16030	157597	27481	946459	34529	106290	0	0	8111	805504	0	0
2024-04-10 06:36:32			0	33070	0	0	0	17335	16040	157601	27107	946422	34541	106289	0	0	8111	805617	0	0
2024-04-10 06:37:32			0	33059	0	0	0	17327	16060	157621	27095	946447	34531	106286	0	0	8111	806104	0	0
2024-04-10 06:38:32			0	33058	0	0	0	17332	16040	157537	27305	946475	34541	106288	0	0	8110	806243	0	0
2024-04-10 06:39:32			0	33054	0	0	0	17322	16040	157593	27150	946449	34541	106284	0	0	8110	806451	0	0
2024-04-10 06:40:32			0	33055	0	0	0	17316	16030	157553	27041	946406	34540	106282	0	0	8110	806443	0	0
2024-04-10 06:41:32			0	33052	0	0	0	17319	16030	157589	27100	946425	34540	106283	0	0	8110	806599	0	0
2024-04-10 06:42:32			0	33056	0	0	0	17306	16030	157621	26902	946406	34529	106278	0	0	8111	806391	0	0
2024-04-10 06:43:32			0	33052	0	0	0	17296	16040	157581	27086	946343	34541	106274	0	0	8111	806556	0	0
2024-04-10 06:44:32			0	33041	0	0	0	17298	16030	157737	27052	946327	34540	106275	0	0	8110	807173	0	0
2024-04-10 06:45:32			0	33046	0	0	0	17298	16030	157549	27230	946319	34540	106275	0	0	8110	806912	0	0
2024-04-10 06:46:32			0	33057	0	0	0	17296	16030	157513	27336	946346	34540	106274	0	0	8111	806338	0	0
2024-04-10 06:47:32			0	33068	0	0	0	17296	16030	157493	27351	946372	34540	106274	0	0	8111	805765	0	0
2024-04-10 06:48:32			0	33067	0	0	0	17296	16020	157545	27260	946285	34528	106274	0	0	8111	805860	0	0
2024-04-10 06:49:32			0	33069	0	0	0	17293	16020	157521	27263	946303	34539	106273	0	0	8112	805756	0	0
2024-04-10 06:50:32			0	33088	0	0	0	17306	16020	157545	27168	946303	34539	106278	0	0	8112	804766	0	0
2024-04-10 06:51:32			0	33092	0	0	0	17303	16020	157445	27196	946390	34539	106277	0	0	8113	804558	0	0
2024-04-10 06:52:32			0	33143	0	0	0	17311	16020	157245	27253	946382	34539	106280	0	0	8116	801906	0	0
2024-04-10 06:53:32			0	33198	0	0	0	17311	16020	156977	27441	946382	34528	106280	0	0	8119	799054	0	0
2024-04-10 06:54:32			0	33245	0	0	0	17303	16030	156645	27142	946346	34540	106277	0	0	8122	796581	0	0
2024-04-10 06:55:32			0	33266	0	0	0	17314	16020	156661	27473	946390	34560	106281	0	0	8123	795540	0	0
2024-04-10 06:56:32			0	33277	0	0	0	17306	16020	156481	27260	946417	34539	106278	0	0	8124	794973	0	0
2024-04-10 06:57:32			0	33299	0	0	0	17306	16020	156529	27474	946356	34517	106278	0	0	8125	793840	0	0
2024-04-10 06:58:32			0	33320	0	0	0	17306	16010	156345	27274	946374	34538	106278	0	0	8126	792801	0	0
2024-04-10 06:59:32			0	33324	0	0	0	17309	16020	156321	27189	946311	34539	106279	0	0	8127	792553	0	0
2024-04-10 07:00:32			0	33346	0	0	0	17303	16020	156281	27128	946364	34539	106277	0	0	8128	791422	0	0
2024-04-10 07:01:32			0	33347	0	0	0	17303	16020	156193	27281	946408	34539	106277	0	0	8128	791371	0	0
2024-04-10 07:02:32			0	33366	0	0	0	17306	16020	156209	27447	946285	34549	106278	0	0	8129	790395	0	0
2024-04-10 07:03:32			0	33365	0	0	0	17301	16020	156121	27216	946303	34549	106276	0	0	8129	790447	0	0
2024-04-10 07:04:32			0	33371	0	0	0	17309	16020	156045	27227	946303	34549	106279	0	0	8129	790139	0	0
2024-04-10 07:05:32			0	33364	0	0	0	17309	16010	156149	27426	946295	34548	106279	0	0	8129	790541	0	0
2024-04-10 07:06:32			0	33360	0	0	0	17306	16020	156125	27312	946364	34549	106278	0	0	8129	790703	0	0
2024-04-10 07:07:32			0	33373	0	0	0	17306	16020	156237	27126	946417	34549	106278	0	0	8130	790036	0	0
2024-04-10 07:08:32			0	33367	0	0	0	17301	16020	156113	27369	946390	34549	106276	0	0	8129	790344	0	0
2024-04-10 07:09:32			0	33352	0	0	0	17298	16030	156245	27081	946425	34561	106275	0	0	8129	791071	0	0
2024-04-10 07:10:32			0	33378	0	0	0	17306	16010	156245	27319	946374	34548	106278	0	0	8130	789823	0	0
2024-04-10 07:11:32			0	33359	0	0	0	17303	16020	156269	27417	946311	34549	106277	0	0	8129	790755	0	0
2024-04-10 07:12:32			0	33365	0	0	0	17293	16010	156185	27303	946321	34548	106273	0	0	8129	790489	0	0
2024-04-10 07:13:32			0	33365	0	0	0	17306	16010	156213	27355	946366	34560	106278	0	0	8129	790489	0	0
2024-04-10 07:14:32			0	33362	0	0	0	17309	16020	156161	27145	946311	34549	106279	0	0	8129	790601	0	0
2024-04-10 07:15:32			0	33379	0	0	0	17314	16020	156137	27421	946443	34549	106281	0	0	8130	789729	0	0
2024-04-10 07:16:32			0	33383	0	0	0	17303	16000	156109	27422	946332	34548	106277	0	0	8130	789609	0	0
2024-04-10 07:17:32			0	33376	0	0	0	17303	16020	156057	27578	946382	34549	106277	0	0	8130	789883	0	0
2024-04-10 07:18:32			0	33401	0	0	0	17306	16020	156053	27345	946408	34560	106278	0	0	8131	788601	0	0
2024-04-10 07:19:32			0	33385	0	0	0	17306	16030	156145	27126	946346	34561	106278	0	0	8130	789379	0	0
2024-04-10 07:20:32			0	33399	0	0	0	17311	16020	156065	27428	946364	34571	106280	0	0	8131	788704	0	0
2024-04-10 07:21:32			0	33373	0	0	0	17303	16030	156153	27208	946398	34550	106277	0	0	8130	789994	0	0
2024-04-10 07:22:32			0	33382	0	0	0	17306	16010	156073	27566	946348	34560	106278	0	0	8130	789618	0	0
2024-04-10 07:23:32			0	33372	0	0	0	17306	16030	156145	27417	946398	34583	106278	0	0	8130	790045	0	0
2024-04-10 07:24:32			0	33370	0	0	0	17296	16020	156161	27260	946356	34583	106274	0	0	8130	790190	0	0
2024-04-10 07:25:32			0	33372	0	0	0	17309	16020	156197	27414	946382	34583	106279	0	0	8129	790088	0	0
2024-04-10 07:26:32			0	33328	0	0	0	17306	16020	156233	27237	946382	34560	106278	0	0	8127	792347	0	0
2024-04-10 07:27:32			0	33336	0	0	0	17303	16020	156261	27474	946443	34560	106277	0	0	8127	791936	0	0
2024-04-10 07:28:32			0	33371	0	0	0	17298	16020	156321	27563	946390	34583	106275	0	0	8130	790139	0	0
2024-04-10 07:29:32			0	33360	0	0	0	17303	16020	156197	27310	946303	34549	106277	0	0	8129	790703	0	0
2024-04-10 07:30:32			0	33383	0	0	0	17309	16020	156197	27426	946382	34583	106279	0	0	8130	789524	0	0
2024-04-10 07:31:32			0	33370	0	0	0	17306	16010	156145	27535	946295	34571	106278	0	0	8129	790233	0	0
2024-04-10 07:32:32			0	33364	0	0	0	17301	16020	156225	27635	946435	34571	106276	0	0	8129	790498	0	0
2024-04-10 07:33:32			0	33369	0	0	0	17311	16020	156221	27388	946417	34560	106280	0	0	8129	790242	0	0
2024-04-10 07:34:32			0	33370	0	0	0	17314	16020	156305	27313	946390	34593	106281	0	0	8129	790190	0	0
2024-04-10 07:35:32			0	33384	0	0	0	17309	16020	156233	27595	946443	34593	106279	0	0	8130	789472	0	0
2024-04-10 07:36:32			0	33390	0	0	0	17301	16010	156253	27514	946374	34582	106276	0	0	8131	789207	0	0
2024-04-10 07:37:32			0	33385	0	0	0	17306	16020	156293	27445	946408	34593	106278	0	0	8130	789421	0	0
2024-04-10 07:38:32			0	33377	0	0	0	17309	16020	156201	27416	946329	34560	106279	0	0	8130	789831	0	0
2024-04-10 07:39:32			0	33385	0	0	0	17314	16020	156201	27371	946382	34560	106281	0	0	8130	789421	0	0
2024-04-10 07:40:32			0	33359	0	0	0	17306	16020	156137	27365	946382	34593	106278	0	0	8129	790755	0	0
2024-04-10 07:41:32			0	33371	0	0	0	17309	16020	156197	27268	946435	34583	106279	0	0	8129	790139	0	0
2024-04-10 07:42:32			0	33365	0	0	0	17301	16030	156265	27379	946372	34593	106276	0	0	8129	790404	0	0
2024-04-10 07:43:32			0	33373	0	0	0	17296	16030	156181	27516	946451	34583	106274	0	0	8130	789994	0	0
2024-04-10 07:44:32			0	33363	0	0	0	17296	16020	156245	27585	946356	34593	106274	0	0	8129	790549	0	0
2024-04-10 07:45:32			0	33342	0	0	0	17303	16020	156321	27241	946390	34593	106277	0	0	8128	791628	0	0
2024-04-10 07:46:32			0	33334	0	0	0	17301	16030	156353	27623	946398	34583	106276	0	0	8127	791996	0	0
2024-04-10 07:47:32			0	33328	0	0	0	17309	16020	156393	27376	946408	34604	106279	0	0	8127	792347	0	0
2024-04-10 07:48:32			0	33322	0	0	0	17309	16020	156397	27765	946390	34583	106279	0	0	8126	792656	0	0
2024-04-10 07:49:32			0	33337	0	0	0	17342	16020	156457	27493	946469	34593	106292	0	0	8127	791885	0	0
2024-04-10 07:50:32			0	33344	0	0	0	17342	16020	156453	27459	946443	34583	106292	0	0	8127	791525	0	0
2024-04-10 07:51:32			0	33370	0	0	0	17329	16030	156317	27372	946425	34583	106287	0	0	8129	790148	0	0
2024-04-10 07:52:32			0	33392	0	0	0	17327	16020	156081	27362	946443	34604	106286	0	0	8130	789062	0	0
2024-04-10 07:53:32			0	33413	0	0	0	17332	16030	156049	27307	946406	34593	106288	0	0	8132	787945	0	0
2024-04-10 07:54:32			0	33442	0	0	0	17335	16040	156013	27422	946493	34617	106289	0	0	8133	786419	0	0
2024-04-10 07:55:32			0	33459	0	0	0	17350	16030	155869	27708	946459	34583	106295	0	0	8134	785593	0	0
2024-04-10 07:56:32			0	33458	0	0	0	17345	16040	155881	27746	946414	34594	106293	0	0	8134	785602	0	0
2024-04-10 07:57:32			0	33468	0	0	0	17345	16040	155785	27476	946493	34605	106293	0	0	8135	785091	0	0
2024-04-10 07:58:32			0	33476	0	0	0	17332	16040	155697	27478	946467	34605	106288	0	0	8135	784683	0	0
2024-04-10 07:59:32			0	33488	0	0	0	17335	16040	155653	27633	946520	34594	106289	0	0	8136	784071	0	0
2024-04-10 08:00:32			0	33495	0	0	0	17337	16040	155657	27343	946546	34594	106290	0	0	8136	783714	0	0
2024-04-10 08:01:32			0	33504	0	0	0	17340	16050	155637	27109	946536	34595	106291	0	0	8137	783214	0	0
2024-04-10 08:02:32			0	33519	0	0	0	17332	16030	155621	27237	946564	34605	106288	0	0	8138	782534	0	0
2024-04-10 08:03:32			0	33515	0	0	0	17322	16040	155613	27675	946528	34594	106284	0	0	8138	782696	0	0
2024-04-10 08:04:32			0	33502	0	0	0	17324	16050	155529	27628	946536	34606	106285	0	0	8137	783316	0	0
2024-04-10 08:05:32			0	33490	0	0	0	17332	16050	155685	27246	946483	34606	106288	0	0	8136	783927	0	0
2024-04-10 08:06:32			0	33500	0	0	0	17337	16040	155605	27581	946475	34617	106290	0	0	8137	783460	0	0
2024-04-10 08:07:32			0	33493	0	0	0	17342	16050	155625	27223	946483	34606	106292	0	0	8136	783774	0	0
2024-04-10 08:08:32			0	33509	0	0	0	17348	16040	155637	27843	946520	34617	106294	0	0	8137	783001	0	0
2024-04-10 08:09:32			0	33511	0	0	0	17342	16040	155585	27416	946493	34605	106292	0	0	8137	782899	0	0
2024-04-10 08:10:32			0	33522	0	0	0	17353	16050	155597	27592	946491	34606	106296	0	0	8138	782297	0	0
2024-04-10 08:11:32			0	33531	0	0	0	17358	16060	155469	27874	946605	34618	106298	0	0	8138	781797	0	0
2024-04-10 08:12:32			0	33536	0	0	0	17358	16050	155441	27543	946597	34606	106298	0	0	8139	781585	0	0
2024-04-10 08:13:32			0	33541	0	0	0	17361	16060	155469	27609	946578	34607	106299	0	0	8139	781289	0	0
2024-04-10 08:14:32			0	33550	0	0	0	17358	16050	155361	27334	946562	34606	106298	0	0	8139	780874	0	0
2024-04-10 08:15:32			0	33547	0	0	0	17361	16060	155385	27802	946657	34618	106299	0	0	8139	780984	0	0
2024-04-10 08:16:32			0	33563	0	0	0	17361	16050	155322	27500	946544	34617	106299	0	0	8140	780213	0	0
2024-04-10 08:17:32			0	33578	0	0	0	17361	16060	155186	27308	946613	34618	106299	0	0	8141	779410	0	0
2024-04-10 08:18:32			0	33580	0	0	0	17366	16060	155238	27272	946560	34628	106301	0	0	8141	779308	0	0
2024-04-10 08:19:32			0	33598	0	0	0	17371	16060	155242	27611	946552	34618	106303	0	0	8142	778396	0	0
2024-04-10 08:20:32			0	33601	0	0	0	17361	16070	155138	27524	946594	34619	106299	0	0	8142	778202	0	0
2024-04-10 08:21:32			0	33592	0	0	0	17368	16070	155150	27621	946594	34619	106302	0	0	8142	778658	0	0
2024-04-10 08:22:32			0	33610	0	0	0	17358	16060	155186	27684	946639	34618	106298	0	0	8143	777788	0	0
2024-04-10 08:23:32			0	33605	0	0	0	17366	16070	155194	27668	946594	34629	106301	0	0	8143	777999	0	0
2024-04-10 08:24:32			0	33605	0	0	0	17363	16070	155130	27566	946594	34619	106300	0	0	8143	777999	0	0
2024-04-10 08:25:32			0	33609	0	0	0	17361	16070	155194	27284	946603	34630	106299	0	0	8143	777797	0	0
2024-04-10 08:26:32			0	33594	0	0	0	17355	16080	155206	27422	946637	34608	106297	0	0	8142	778515	0	0
2024-04-10 08:27:32			0	33608	0	0	0	17361	16070	155114	27390	946621	34640	106299	0	0	8143	777847	0	0
2024-04-10 08:28:32			0	33598	0	0	0	17371	16070	155154	27498	946629	34641	106303	0	0	8142	778354	0	0
2024-04-10 08:29:32			0	33611	0	0	0	17355	16070	155170	27312	946655	34630	106297	0	0	8143	777696	0	0
2024-04-10 08:30:32			0	33596	0	0	0	17358	16060	155286	27554	946613	34628	106298	0	0	8142	778497	0	0
2024-04-10 08:31:32			0	33600	0	0	0	17366	16060	155310	27208	946586	34618	106301	0	0	8142	778295	0	0
2024-04-10 08:32:32			0	33617	0	0	0	17361	16080	155306	27358	946663	34630	106299	0	0	8143	777350	0	0
2024-04-10 08:33:32			0	33596	0	0	0	17361	16070	155246	27201	946655	34620	106299	0	0	8142	778455	0	0
2024-04-10 08:34:32			0	33609	0	0	0	17355	16080	155282	27383	946584	34641	106297	0	0	8143	777755	0	0
2024-04-10 08:35:32			0	33603	0	0	0	17361	16070	155142	27507	946621	34629	106299	0	0	8143	778101	0	0
2024-04-10 08:36:32			0	33599	0	0	0	17363	16080	155182	27789	946690	34652	106300	0	0	8142	778261	0	0
2024-04-10 08:37:32			0	33601	0	0	0	17361	16070	155118	27457	946621	34640	106299	0	0	8142	778202	0	0
2024-04-10 08:38:32			0	33596	0	0	0	17361	16070	155194	27319	946673	34651	106299	0	0	8142	778455	0	0
2024-04-10 08:39:32			0	33609	0	0	0	17350	16070	155170	27112	946621	34640	106295	0	0	8143	777797	0	0
2024-04-10 08:40:32			0	33594	0	0	0	17358	16070	155206	27345	946594	34629	106298	0	0	8142	778557	0	0
2024-04-10 08:41:32			0	33584	0	0	0	17366	16070	155282	27377	946629	34641	106301	0	0	8141	779064	0	0
2024-04-10 08:42:32			0	33595	0	0	0	17361	16060	155318	27431	946639	34628	106299	0	0	8142	778548	0	0
2024-04-10 08:43:32			0	33592	0	0	0	17371	16070	155370	27416	946682	34652	106303	0	0	8142	778658	0	0
2024-04-10 08:44:32			0	33576	0	0	0	17361	16080	155298	27350	946637	34652	106299	0	0	8141	779427	0	0
2024-04-10 08:45:32			0	33575	0	0	0	17366	16070	155365	27319	946673	34651	106301	0	0	8141	779520	0	0
2024-04-10 08:46:32			0	33574	0	0	0	17381	16070	155210	27405	946655	34663	106307	0	0	8141	779571	0	0
2024-04-10 08:47:32			0	33596	0	0	0	17371	16080	155338	27234	946663	34630	106303	0	0	8142	778413	0	0
2024-04-10 08:48:32			0	33584	0	0	0	17366	16070	155230	27431	946629	34652	106301	0	0	8141	779064	0	0
2024-04-10 08:49:32			0	33604	0	0	0	17374	16080	155226	27831	946637	34641	106304	0	0	8142	778008	0	0
2024-04-10 08:50:32			0	33604	0	0	0	17374	16080	155178	27564	946637	34630	106304	0	0	8142	778008	0	0
2024-04-10 08:51:32			0	33607	0	0	0	17368	16080	155202	27504	946671	34653	106302	0	0	8143	777856	0	0
2024-04-10 08:52:32			0	33614	0	0	0	17368	16080	155206	27490	946663	34663	106302	0	0	8143	777502	0	0
2024-04-10 08:53:32			0	33624	0	0	0	17374	16070	155094	27424	946682	34652	106304	0	0	8144	777037	0	0
2024-04-10 08:54:32			0	33626	0	0	0	17366	16070	155074	27336	946576	34652	106301	0	0	8144	776936	0	0
2024-04-10 08:55:32			0	33635	0	0	0	17368	16060	155026	27675	946665	34650	106302	0	0	8144	776523	0	0
2024-04-10 08:56:32			0	33645	0	0	0	17366	16070	154998	27348	946655	34673	106301	0	0	8145	775975	0	0
2024-04-10 08:57:32			0	33644	0	0	0	17358	16080	154966	27686	946611	34641	106298	0	0	8145	775984	0	0
2024-04-10 08:58:32			0	33650	0	0	0	17355	16080	154998	27519	946698	34664	106297	0	0	8145	775681	0	0
2024-04-10 08:59:32			0	33652	0	0	0	17353	16080	155026	27445	946663	34652	106296	0	0	8146	775580	0	0
2024-04-10 09:00:32			0	33649	0	0	0	17363	16070	154954	27500	946629	34641	106300	0	0	8145	775773	0	0
2024-04-10 09:01:32			0	33662	0	0	0	17366	16070	154890	27149	946655	34663	106301	0	0	8146	775116	0	0
2024-04-10 09:02:32			0	33669	0	0	0	17371	16080	154874	27561	946663	34652	106303	0	0	8146	774721	0	0
2024-04-10 09:03:32			0	33659	0	0	0	17361	16070	154946	27602	946576	34652	106299	0	0	8146	775268	0	0
2024-04-10 09:04:32			0	33666	0	0	0	17355	16070	154902	27405	946682	34663	106297	0	0	8146	774914	0	0
2024-04-10 09:05:32			0	33659	0	0	0	17355	16080	154886	27395	946663	34663	106297	0	0	8146	775226	0	0
2024-04-10 09:06:32			0	33661	0	0	0	17353	16060	154934	27545	946613	34650	106296	0	0	8146	775209	0	0
2024-04-10 09:07:32			0	33669	0	0	0	17358	16080	154886	27587	946584	34663	106298	0	0	8147	774721	0	0
2024-04-10 09:08:32			0	33668	0	0	0	17355	16070	154974	27251	946673	34662	106297	0	0	8146	774813	0	0
2024-04-10 09:09:32			0	33679	0	0	0	17353	16060	154842	27234	946613	34662	106296	0	0	8147	774300	0	0
2024-04-10 09:10:32			0	33662	0	0	0	17358	16060	154958	27100	946613	34662	106298	0	0	8146	775158	0	0
2024-04-10 09:11:32			0	33662	0	0	0	17366	16070	154954	27242	946753	34662	106301	0	0	8146	775116	0	0
2024-04-10 09:12:32			0	33661	0	0	0	17361	16080	154966	27331	946690	34673	106299	0	0	8146	775125	0	0
2024-04-10 09:13:32			0	33642	0	0	0	17361	16080	155062	27448	946671	34664	106299	0	0	8145	776085	0	0
2024-04-10 09:14:32			0	33654	0	0	0	17361	16070	154974	27256	946621	34673	106299	0	0	8146	775521	0	0
2024-04-10 09:15:32			0	33637	0	0	0	17368	16070	155010	27300	946673	34673	106302	0	0	8144	776380	0	0
2024-04-10 09:16:32			0	33670	0	0	0	17361	16070	155058	27452	946726	34651	106299	0	0	8147	774713	0	0
2024-04-10 09:17:32			0	33667	0	0	0	17355	16060	154986	27377	946613	34672	106297	0	0	8146	774906	0	0
2024-04-10 09:18:32			0	33642	0	0	0	17358	16060	155058	27265	946639	34662	106298	0	0	8145	776169	0	0
2024-04-10 09:19:32			0	33641	0	0	0	17361	16070	155010	27625	946682	34673	106299	0	0	8145	776178	0	0
2024-04-10 09:20:32			0	33637	0	0	0	17361	16060	155074	27530	946631	34662	106299	0	0	8145	776422	0	0
2024-04-10 09:21:32			0	33616	0	0	0	17353	16070	155010	27362	946682	34663	106296	0	0	8143	777442	0	0
2024-04-10 09:22:32			0	33636	0	0	0	17363	16070	155078	27419	946682	34684	106300	0	0	8144	776430	0	0
2024-04-10 09:23:32			0	33622	0	0	0	17350	16050	155098	27324	946649	34693	106295	0	0	8144	777222	0	0
2024-04-10 09:24:32			0	33642	0	0	0	17361	16070	155094	27308	946673	34673	106299	0	0	8145	776127	0	0
2024-04-10 09:25:32			0	33625	0	0	0	17358	16070	155050	27360	946700	34673	106298	0	0	8144	776987	0	0
2024-04-10 09:26:32			0	33615	0	0	0	17353	16080	154990	27239	946611	34684	106296	0	0	8143	777451	0	0
2024-04-10 09:27:32			0	33638	0	0	0	17355	16070	155042	27343	946655	34684	106297	0	0	8145	776329	0	0
2024-04-10 09:28:32			0	33634	0	0	0	17355	16070	154966	27694	946647	34662	106297	0	0	8144	776531	0	0
2024-04-10 09:29:32			0	33631	0	0	0	17366	16080	155038	27582	946584	34696	106301	0	0	8144	776641	0	0
2024-04-10 09:30:32			0	33626	0	0	0	17355	16070	155106	27185	946647	34695	106297	0	0	8144	776936	0	0
2024-04-10 09:31:32			0	33634	0	0	0	17348	16070	155118	27469	946603	34696	106294	0	0	8145	776531	0	0
2024-04-10 09:32:32			0	33625	0	0	0	17345	16060	154986	26963	946639	34683	106293	0	0	8144	777029	0	0
2024-04-10 09:33:32			0	33638	0	0	0	17345	16070	155078	27138	946621	34695	106293	0	0	8145	776329	0	0
2024-04-10 09:34:32			0	33643	0	0	0	17353	16070	155018	27395	946708	34673	106296	0	0	8145	776076	0	0
2024-04-10 09:35:32			0	33634	0	0	0	17348	16070	155066	27183	946673	34695	106294	0	0	8145	776531	0	0
2024-04-10 09:36:32			0	33641	0	0	0	17361	16060	155026	27630	946665	34694	106299	0	0	8145	776219	0	0
2024-04-10 09:37:32			0	33622	0	0	0	17358	16060	155046	27267	946684	34683	106298	0	0	8144	777181	0	0
2024-04-10 09:38:32			0	33618	0	0	0	17353	16050	155150	27199	946570	34682	106296	0	0	8143	777425	0	0
2024-04-10 09:39:32			0	33626	0	0	0	17353	16060	155134	27542	946639	34683	106296	0	0	8144	776978	0	0
2024-04-10 09:40:32			0	33611	0	0	0	17355	16070	155150	27213	946673	34695	106297	0	0	8143	777696	0	0
2024-04-10 09:41:32			0	33616	0	0	0	17358	16070	155246	27343	946647	34684	106298	0	0	8143	777442	0	0
2024-04-10 09:42:32			0	33616	0	0	0	17363	16060	155126	27421	946586	34705	106300	0	0	8143	777484	0	0
2024-04-10 09:43:32			0	33601	0	0	0	17361	16060	155274	27303	946631	34672	106299	0	0	8142	778244	0	0
2024-04-10 09:44:32			0	33601	0	0	0	17374	16070	155242	27206	946621	34695	106304	0	0	8142	778202	0	0
2024-04-10 09:45:32			0	33577	0	0	0	17381	16060	155270	27211	946665	34694	106307	0	0	8141	779461	0	0
2024-04-10 09:46:32			0	33589	0	0	0	17355	16060	155326	27460	946639	34705	106297	0	0	8142	778852	0	0
2024-04-10 09:47:32			0	33581	0	0	0	17355	16070	155310	27502	946700	34706	106297	0	0	8141	779216	0	0
2024-04-10 09:48:32			0	33587	0	0	0	17366	16080	155298	27353	946663	34707	106301	0	0	8142	778869	0	0
2024-04-10 09:49:32			0	33596	0	0	0	17384	16070	155246	27512	946700	34695	106308	0	0	8142	778455	0	0
2024-04-10 09:50:32			0	33570	0	0	0	17374	16060	155281	27455	946657	34683	106304	0	0	8140	779816	0	0
2024-04-10 09:51:32			0	33574	0	0	0	17381	16070	155285	27170	946655	34684	106307	0	0	8141	779571	0	0
2024-04-10 09:52:32			0	33568	0	0	0	17428	16060	155350	27613	946744	34694	106325	0	0	8139	779917	0	0
2024-04-10 09:53:32			0	33538	0	0	0	17431	16070	155433	27357	946734	34717	106326	0	0	8138	781399	0	0
2024-04-10 09:54:32			0	33538	0	0	0	17405	16060	155473	27144	946665	34705	106316	0	0	8138	781441	0	0
2024-04-10 09:55:32			0	33533	0	0	0	17381	16070	155549	27272	946787	34717	106307	0	0	8138	781653	0	0
2024-04-10 09:56:32			0	33548	0	0	0	17374	16080	155517	27121	946724	34707	106304	0	0	8139	780849	0	0
2024-04-10 09:57:32			0	33547	0	0	0	17361	16070	155481	27100	946734	34696	106299	0	0	8139	780942	0	0
2024-04-10 09:58:32			0	33564	0	0	0	17361	16080	155425	26904	946690	34707	106299	0	0	8140	780036	0	0
2024-04-10 09:59:32			0	33563	0	0	0	17366	16080	155457	27346	946698	34707	106301	0	0	8140	780087	0	0
2024-04-10 10:00:32			0	33563	0	0	0	17358	16070	155434	27379	946700	34706	106298	0	0	8140	780129	0	0
2024-04-10 10:01:32			0	33566	0	0	0	17355	16070	155333	27036	946682	34696	106297	0	0	8140	779977	0	0
2024-04-10 10:02:32			0	33581	0	0	0	17353	16070	155382	27306	946708	34707	106296	0	0	8141	779216	0	0
2024-04-10 10:03:32			0	33565	0	0	0	17350	16070	155429	27123	946621	34706	106295	0	0	8141	780028	0	0
2024-04-10 10:04:32			0	33594	0	0	0	17348	16070	155402	27260	946673	34716	106294	0	0	8142	778557	0	0
2024-04-10 10:05:32			0	33576	0	0	0	17355	16070	155362	27362	946673	34716	106297	0	0	8141	779469	0	0
2024-04-10 10:06:32			0	33603	0	0	0	17361	16060	155342	27232	946613	34726	106299	0	0	8143	778143	0	0
2024-04-10 10:07:32			0	33594	0	0	0	17358	16080	155334	27352	946690	34707	106298	0	0	8142	778515	0	0
2024-04-10 10:08:32			0	33600	0	0	0	17355	16070	155274	27699	946673	34716	106297	0	0	8142	778253	0	0
2024-04-10 10:09:32			0	33608	0	0	0	17358	16060	155286	27426	946639	34738	106298	0	0	8143	777889	0	0
2024-04-10 10:10:32			0	33602	0	0	0	17353	16070	155382	27358	946673	34716	106296	0	0	8143	778151	0	0
2024-04-10 10:11:32			0	33614	0	0	0	17361	16070	155294	27369	946647	34716	106299	0	0	8143	777544	0	0
2024-04-10 10:12:32			0	33605	0	0	0	17358	16060	155198	27405	946639	34738	106298	0	0	8143	778041	0	0
2024-04-10 10:13:32			0	33615	0	0	0	17355	16070	155306	27628	946673	34706	106297	0	0	8143	777493	0	0
2024-04-10 10:14:32			0	33609	0	0	0	17363	16060	155202	27220	946613	34726	106300	0	0	8143	777839	0	0
2024-04-10 10:15:32			0	33609	0	0	0	17363	16060	155254	27336	946684	34705	106300	0	0	8143	777839	0	0
2024-04-10 10:16:32			0	33620	0	0	0	17368	16060	155290	27223	946639	34715	106302	0	0	8143	777282	0	0
2024-04-10 10:17:32			0	33616	0	0	0	17363	16060	155294	27836	946665	34715	106300	0	0	8143	777484	0	0
2024-04-10 10:18:32			0	33612	0	0	0	17368	16070	155206	27274	946726	34738	106302	0	0	8143	777645	0	0
2024-04-10 10:19:32			0	33639	0	0	0	17366	16070	155286	27208	946726	34706	106301	0	0	8145	776279	0	0
2024-04-10 10:20:32			0	33628	0	0	0	17368	16070	155258	27656	946753	34727	106302	0	0	8144	776835	0	0
2024-04-10 10:21:32			0	33642	0	0	0	17376	16070	155226	27803	946682	34728	106305	0	0	8145	776127	0	0
2024-04-10 10:22:32			0	33633	0	0	0	17366	16070	155274	27303	946682	34728	106301	0	0	8144	776582	0	0
2024-04-10 10:23:32			0	33624	0	0	0	17366	16080	155238	27270	946690	34739	106301	0	0	8144	776995	0	0
2024-04-10 10:24:32			0	33633	0	0	0	17374	16080	155210	27452	946769	34717	106304	0	0	8144	776540	0	0
2024-04-10 10:25:32			0	33616	0	0	0	17368	16070	155210	27507	946708	34728	106302	0	0	8143	777442	0	0
2024-04-10 10:26:32			0	33617	0	0	0	17368	16070	155186	27386	946708	34739	106302	0	0	8143	777392	0	0
2024-04-10 10:27:32			0	33637	0	0	0	17374	16080	155326	27561	946769	34739	106304	0	0	8144	776338	0	0
2024-04-10 10:28:32			0	33616	0	0	0	17371	16070	155182	27531	946708	34728	106303	0	0	8143	777442	0	0
2024-04-10 10:29:32			0	33636	0	0	0	17374	16070	155226	27626	946787	34739	106304	0	0	8144	776430	0	0
2024-04-10 10:30:32			0	33617	0	0	0	17381	16080	155214	27616	946795	34739	106307	0	0	8143	777350	0	0
2024-04-10 10:31:32			0	33618	0	0	0	17374	16080	155270	27587	946777	34750	106304	0	0	8143	777299	0	0
2024-04-10 10:32:32			0	33618	0	0	0	17384	16080	155286	27386	946716	34739	106308	0	0	8143	777299	0	0
2024-04-10 10:33:32			0	33623	0	0	0	17381	16070	155262	27488	946761	34750	106307	0	0	8143	777088	0	0
2024-04-10 10:34:32			0	33616	0	0	0	17386	16080	155218	27190	946716	34739	106309	0	0	8143	777400	0	0
2024-04-10 10:35:32			0	33617	0	0	0	17376	16090	155262	27239	946706	34750	106305	0	0	8143	777308	0	0
2024-04-10 10:36:32			0	33627	0	0	0	17384	16090	155282	27300	946706	34740	106308	0	0	8144	776802	0	0
2024-04-10 10:37:32			0	33615	0	0	0	17394	16080	155374	27383	946829	34740	106312	0	0	8143	777451	0	0
2024-04-10 10:38:32			0	33633	0	0	0	17389	16080	155346	27286	946742	34739	106310	0	0	8144	776540	0	0
2024-04-10 10:39:32			0	33608	0	0	0	17392	16080	155358	27312	946777	34740	106311	0	0	8142	777805	0	0
2024-04-10 10:40:32			0	33603	0	0	0	17384	16080	155354	27133	946777	34750	106308	0	0	8142	778059	0	0
2024-04-10 10:41:32			0	33613	0	0	0	17397	16090	155270	27464	946732	34750	106313	0	0	8143	777510	0	0
2024-04-10 10:42:32			0	33616	0	0	0	17397	16090	155346	27367	946793	34751	106313	0	0	8143	777358	0	0
2024-04-10 10:43:32			0	33618	0	0	0	17394	16090	155326	27263	946785	34750	106312	0	0	8143	777257	0	0
2024-04-10 10:44:32			0	33610	0	0	0	17394	16110	155390	27391	946817	34730	106312	0	0	8143	777578	0	0
2024-04-10 10:45:32			0	33615	0	0	0	17402	16100	155402	27661	946854	34741	106315	0	0	8143	777367	0	0
2024-04-10 10:46:32			0	33633	0	0	0	17402	16100	155290	27261	946835	34763	106315	0	0	8144	776456	0	0
2024-04-10 10:47:32			0	33623	0	0	0	17405	16100	155242	27216	946801	34762	106316	0	0	8143	776962	0	0
2024-04-10 10:48:32			0	33627	0	0	0	17397	16090	155370	27718	946811	34772	106313	0	0	8143	776802	0	0
2024-04-10 10:49:32			0	33617	0	0	0	17397	16090	155378	27303	946864	34750	106313	0	0	8143	777308	0	0
2024-04-10 10:50:32			0	33613	0	0	0	17392	16100	155346	27566	946854	34762	106311	0	0	8143	777468	0	0
2024-04-10 10:51:32			0	33616	0	0	0	17397	16100	155262	27528	946783	34752	106313	0	0	8143	777316	0	0
2024-04-10 10:52:32			0	33609	0	0	0	17389	16090	155302	27748	946793	34762	106310	0	0	8143	777713	0	0
2024-04-10 10:53:32			0	33615	0	0	0	17399	16100	155358	27706	946783	34763	106314	0	0	8143	777367	0	0
2024-04-10 10:54:32			0	33601	0	0	0	17389	16100	155322	27561	946888	34752	106310	0	0	8142	778076	0	0
2024-04-10 10:55:32			0	33598	0	0	0	17397	16100	155346	27514	946906	34751	106313	0	0	8142	778228	0	0
2024-04-10 10:56:32			0	33620	0	0	0	17405	16110	155326	27211	946843	34752	106316	0	0	8143	777072	0	0
2024-04-10 10:57:32			0	33600	0	0	0	17397	16100	155382	27227	946827	34762	106313	0	0	8142	778127	0	0
2024-04-10 10:58:32			0	33605	0	0	0	17399	16110	155350	27467	946870	34774	106314	0	0	8142	777831	0	0
2024-04-10 10:59:32			0	33605	0	0	0	17402	16110	155326	27334	946896	34763	106315	0	0	8142	777831	0	0
2024-04-10 11:00:32			0	33605	0	0	0	17402	16100	155406	27312	946835	34741	106315	0	0	8142	777873	0	0
2024-04-10 11:01:32			0	33598	0	0	0	17399	16110	155410	27438	946870	34774	106314	0	0	8142	778186	0	0
2024-04-10 11:02:32			0	33605	0	0	0	17397	16110	155426	27609	946896	34774	106313	0	0	8142	777831	0	0
2024-04-10 11:03:32			0	33589	0	0	0	17405	16110	155318	27277	946870	34763	106316	0	0	8141	778642	0	0
2024-04-10 11:04:32			0	33614	0	0	0	17410	16110	155458	27569	946896	34763	106318	0	0	8143	777376	0	0
2024-04-10 11:05:32			0	33586	0	0	0	17405	16110	155366	27606	946851	34786	106316	0	0	8141	778794	0	0
2024-04-10 11:06:32			0	33609	0	0	0	17407	16100	155522	27265	946914	34763	106317	0	0	8142	777671	0	0
2024-04-10 11:07:32			0	33593	0	0	0	17399	16120	155478	27517	946859	34763	106314	0	0	8142	778397	0	0
2024-04-10 11:08:32			0	33588	0	0	0	17392	16110	155454	27588	946904	34763	106311	0	0	8141	778693	0	0
2024-04-10 11:09:32			0	33581	0	0	0	17392	16120	155382	27509	946886	34775	106311	0	0	8141	779005	0	0
2024-04-10 11:10:32			0	33576	0	0	0	17386	16110	155366	27708	946817	34774	106309	0	0	8141	779301	0	0
2024-04-10 11:11:32			0	33592	0	0	0	17389	16100	155330	27736	946862	34774	106310	0	0	8142	778532	0	0
2024-04-10 11:12:32			0	33564	0	0	0	17402	16120	155473	27464	946841	34786	106315	0	0	8140	779868	0	0
2024-04-10 11:13:32			0	33561	0	0	0	17397	16100	155513	27890	946906	34794	106313	0	0	8140	780104	0	0
2024-04-10 11:14:32			0	33527	0	0	0	17407	16100	155645	27672	946862	34774	106317	0	0	8137	781832	0	0
2024-04-10 11:15:32			0	33537	0	0	0	17405	16110	155657	27633	946896	34774	106316	0	0	8138	781281	0	0
2024-04-10 11:16:32			0	33530	0	0	0	17407	16110	155705	27668	946904	34775	106317	0	0	8138	781637	0	0
2024-04-10 11:17:32			0	33541	0	0	0	17405	16110	155669	27296	946904	34763	106316	0	0	8138	781078	0	0
2024-04-10 11:18:32			0	33533	0	0	0	17412	16110	155669	27722	946896	34774	106319	0	0	8138	781485	0	0
2024-04-10 11:19:32			0	33511	0	0	0	17415	16110	155641	27435	946904	34786	106320	0	0	8136	782604	0	0
2024-04-10 11:20:32			0	33503	0	0	0	17412	16120	155801	27282	946894	34775	106319	0	0	8136	782969	0	0
2024-04-10 11:21:32			0	33511	0	0	0	17412	16120	155825	27639	946912	34786	106319	0	0	8136	782561	0	0
2024-04-10 11:22:32			0	33503	0	0	0	17412	16120	155725	27725	946921	34764	106319	0	0	8136	782969	0	0
2024-04-10 11:23:32			0	33503	0	0	0	17425	16120	155857	27621	946947	34797	106324	0	0	8136	782969	0	0
2024-04-10 11:24:32			0	33507	0	0	0	17418	16110	155765	27595	946878	34796	106321	0	0	8136	782807	0	0
2024-04-10 11:25:32			0	33505	0	0	0	17425	16120	155829	27476	946912	34786	106324	0	0	8136	782867	0	0
2024-04-10 11:26:32			0	33510	0	0	0	17415	16120	155877	27452	946859	34786	106320	0	0	8136	782612	0	0
2024-04-10 11:27:32			0	33520	0	0	0	17433	16130	155829	27639	946963	34787	106327	0	0	8137	782061	0	0
2024-04-10 11:28:32			0	33514	0	0	0	17431	16120	155869	27448	946947	34797	106326	0	0	8136	782409	0	0
2024-04-10 11:29:32			0	33492	0	0	0	17420	16130	155733	27329	946929	34775	106322	0	0	8135	783487	0	0
2024-04-10 11:30:32			0	33512	0	0	0	17420	16130	155885	27478	946981	34786	106322	0	0	8136	782468	0	0
2024-04-10 11:31:32			0	33508	0	0	0	17431	16130	155785	27684	946910	34787	106326	0	0	8136	782672	0	0
2024-04-10 11:32:32			0	33502	0	0	0	17431	16130	155841	27991	946981	34797	106326	0	0	8136	782977	0	0
2024-04-10 11:33:32			0	33505	0	0	0	17433	16120	155713	27488	946965	34786	106327	0	0	8136	782867	0	0
2024-04-10 11:34:32			0	33515	0	0	0	17433	16120	155861	27665	946947	34786	106327	0	0	8136	782358	0	0
2024-04-10 11:35:32			0	33511	0	0	0	17436	16120	155757	27885	946973	34797	106328	0	0	8136	782561	0	0
2024-04-10 11:36:32			0	33517	0	0	0	17436	16130	155801	27573	946989	34808	106328	0	0	8136	782214	0	0
2024-04-10 11:37:32			0	33521	0	0	0	17431	16130	155701	27564	946937	34787	106326	0	0	8137	782010	0	0
2024-04-10 11:38:32			0	33545	0	0	0	17428	16130	155817	27613	947034	34808	106325	0	0	8138	780791	0	0
2024-04-10 11:39:32			0	33548	0	0	0	17438	16130	155669	28015	947008	34786	106329	0	0	8138	780638	0	0
2024-04-10 11:40:32			0	33535	0	0	0	17431	16140	155697	27831	946997	34797	106326	0	0	8138	781256	0	0
2024-04-10 11:41:32			0	33523	0	0	0	17433	16130	155733	27798	946963	34820	106327	0	0	8137	781909	0	0
2024-04-10 11:42:32			0	33549	0	0	0	17438	16150	155713	27772	947014	34810	106329	0	0	8138	780503	0	0
2024-04-10 11:43:32			0	33558	0	0	0	17464	16150	155633	27722	947014	34799	106339	0	0	8139	780046	0	0
2024-04-10 11:44:32			0	33546	0	0	0	17483	16150	155689	27725	947093	34810	106346	0	0	8138	780655	0	0
2024-04-10 11:45:32			0	33569	0	0	0	17516	16150	155494	27878	947145	34810	106359	0	0	8138	779488	0	0
2024-04-10 11:46:32			0	33589	0	0	0	17532	16150	155406	27443	947127	34810	106365	0	0	8139	778474	0	0
2024-04-10 11:47:32			0	33635	0	0	0	17535	16170	155314	27485	947257	34833	106366	0	0	8142	776062	0	0
2024-04-10 11:48:32			0	33637	0	0	0	17540	16180	155238	27660	947317	34823	106368	0	0	8142	775919	0	0
2024-04-10 11:49:32			0	33657	0	0	0	17537	16180	155146	27519	947273	34824	106367	0	0	8143	774908	0	0
2024-04-10 11:50:32			0	33683	0	0	0	17527	16190	155066	27396	947254	34812	106363	0	0	8145	773555	0	0
2024-04-10 11:51:32			0	33688	0	0	0	17535	16180	154974	27557	947220	34812	106366	0	0	8145	773345	0	0
2024-04-10 11:52:32			0	33695	0	0	0	17553	16200	154870	27369	947297	34825	106373	0	0	8145	772909	0	0
2024-04-10 11:53:32			0	33702	0	0	0	17561	16210	154894	27209	947321	34815	106376	0	0	8146	772514	0	0
2024-04-10 11:54:32			0	33729	0	0	0	17576	16210	154882	27422	947339	34835	106382	0	0	8147	771155	0	0
2024-04-10 11:55:32			0	33723	0	0	0	17592	16220	154678	27493	947337	34827	106388	0	0	8146	771416	0	0
2024-04-10 11:56:32			0	33737	0	0	0	17566	16220	154702	27554	947416	34837	106378	0	0	8148	770712	0	0
2024-04-10 11:57:32			0	33735	0	0	0	17576	16230	154674	27528	947424	34848	106382	0	0	8147	770770	0	0
2024-04-10 11:58:32			0	33745	0	0	0	17571	16220	154666	27616	947443	34827	106380	0	0	8148	770310	0	0
2024-04-10 11:59:32			0	33766	0	0	0	17581	16250	154674	27554	947491	34829	106384	0	0	8149	769130	0	0
2024-04-10 12:00:32			0	33750	0	0	0	17587	16250	154570	27571	947457	34838	106386	0	0	8148	769934	0	0
2024-04-10 12:01:32			0	33742	0	0	0	17592	16250	154622	27440	947518	34850	106388	0	0	8148	770335	0	0
2024-04-10 12:02:32			0	33751	0	0	0	17597	16250	154574	27327	947518	34850	106390	0	0	8148	769883	0	0
2024-04-10 12:03:32			0	33733	0	0	0	17597	16260	154650	27677	947534	34852	106390	0	0	8147	770746	0	0
2024-04-10 12:04:32			0	33759	0	0	0	17597	16270	154634	27310	947542	34841	106390	0	0	8149	769399	0	0
2024-04-10 12:05:32			0	33768	0	0	0	17599	16260	154602	27582	947534	34852	106391	0	0	8149	768988	0	0
2024-04-10 12:06:32			0	33764	0	0	0	17594	16280	154586	27396	947584	34841	106389	0	0	8149	769106	0	0
2024-04-10 12:07:32			0	33758	0	0	0	17599	16280	154582	27682	947611	34852	106391	0	0	8149	769407	0	0
2024-04-10 12:08:32			0	33759	0	0	0	17592	16280	154530	27166	947566	34864	106388	0	0	8149	769357	0	0
2024-04-10 12:09:32			0	33751	0	0	0	17584	16280	154478	27589	947566	34864	106385	0	0	8149	769759	0	0
2024-04-10 12:10:32			0	33741	0	0	0	17589	16290	154514	27422	947601	34853	106387	0	0	8148	770219	0	0
2024-04-10 12:11:32			0	33758	0	0	0	17581	16290	154442	27293	947609	34853	106384	0	0	8149	769366	0	0
2024-04-10 12:12:32			0	33774	0	0	0	17597	16280	154462	27621	947637	34841	106390	0	0	8150	768604	0	0
2024-04-10 12:13:32			0	33762	0	0	0	17592	16280	154486	27578	947611	34852	106388	0	0	8149	769206	0	0
2024-04-10 12:14:32			0	33755	0	0	0	17589	16290	154470	27703	947661	34842	106387	0	0	8149	769516	0	0
2024-04-10 12:15:32			0	33771	0	0	0	17602	16290	154446	27282	947601	34853	106392	0	0	8149	768713	0	0
2024-04-10 12:16:32			0	33767	0	0	0	17592	16290	154490	27753	947574	34853	106388	0	0	8149	768914	0	0
2024-04-10 12:17:32			0	33764	0	0	0	17610	16290	154498	27488	947627	34853	106395	0	0	8149	769065	0	0
2024-04-10 12:18:32			0	33787	0	0	0	17597	16300	154426	27469	947669	34865	106390	0	0	8150	767870	0	0
2024-04-10 12:19:32			0	33781	0	0	0	17602	16300	154410	27409	947651	34855	106392	0	0	8150	768171	0	0
2024-04-10 12:20:32			0	33785	0	0	0	17594	16300	154434	27583	947677	34866	106389	0	0	8150	767970	0	0
2024-04-10 12:21:32			0	33804	0	0	0	17592	16290	154390	27281	947661	34853	106388	0	0	8152	767060	0	0
2024-04-10 12:22:32			0	33798	0	0	0	17612	16290	154382	27523	947609	34864	106396	0	0	8151	767360	0	0
2024-04-10 12:23:32			0	33797	0	0	0	17610	16300	154390	27479	947617	34854	106395	0	0	8151	767369	0	0
2024-04-10 12:24:32			0	33805	0	0	0	17615	16300	154338	27407	947625	34876	106397	0	0	8151	766968	0	0
2024-04-10 12:25:32			0	33784	0	0	0	17623	16310	154390	27536	947686	34876	106400	0	0	8150	767979	0	0
2024-04-10 12:26:32			0	33807	0	0	0	17625	16300	154322	27760	947677	34876	106401	0	0	8151	766868	0	0
2024-04-10 12:27:32			0	33795	0	0	0	17644	16310	154298	27543	947686	34887	106408	0	0	8150	767428	0	0
2024-04-10 12:28:32			0	33798	0	0	0	17657	16320	154322	27715	947762	34867	106413	0	0	8150	767236	0	0
2024-04-10 12:29:32			0	33809	0	0	0	17662	16330	154278	27334	947823	34901	106415	0	0	8151	766644	0	0
2024-04-10 12:30:32			0	33811	0	0	0	17670	16330	154234	27457	947858	34890	106418	0	0	8151	766543	0	0
2024-04-10 12:31:32			0	33812	0	0	0	17675	16330	154186	27524	947823	34868	106420	0	0	8151	766493	0	0
2024-04-10 12:32:32			0	33813	0	0	0	17670	16340	154170	27234	947839	34890	106418	0	0	8151	766402	0	0
2024-04-10 12:33:32			0	33827	0	0	0	17675	16340	154198	27422	947839	34868	106420	0	0	8152	765702	0	0
2024-04-10 12:34:32			0	33854	0	0	0	17677	16340	154094	27578	947900	34890	106421	0	0	8153	764353	0	0
2024-04-10 12:35:32			0	33832	0	0	0	17680	16350	154198	27426	947855	34891	106422	0	0	8152	765410	0	0
2024-04-10 12:36:32			0	33857	0	0	0	17672	16350	154162	27438	947943	34891	106419	0	0	8154	764162	0	0
2024-04-10 12:37:32			0	33850	0	0	0	17675	16350	154102	27485	947811	34891	106420	0	0	8153	764511	0	0
2024-04-10 12:38:32			0	33843	0	0	0	17670	16350	154138	27588	947882	34891	106418	0	0	8153	764861	0	0
2024-04-10 12:39:32			0	33857	0	0	0	17659	16360	154034	27308	947898	34891	106414	0	0	8154	764121	0	0
2024-04-10 12:40:32			0	33862	0	0	0	17662	16360	153994	27296	947906	34892	106415	0	0	8154	763871	0	0
2024-04-10 12:41:32			0	33854	0	0	0	17657	16360	153934	27436	947898	34880	106413	0	0	8154	764270	0	0
2024-04-10 12:42:32			0	33864	0	0	0	17654	16360	154010	27396	947880	34892	106412	0	0	8154	763771	0	0
2024-04-10 12:43:32			0	33860	0	0	0	17659	16360	153998	27528	947872	34880	106414	0	0	8154	763971	0	0
2024-04-10 12:44:32			0	33869	0	0	0	17662	16360	153998	27261	947880	34903	106415	0	0	8154	763522	0	0
2024-04-10 12:45:32			0	33872	0	0	0	17651	16360	154058	27436	947932	34892	106411	0	0	8155	763372	0	0
2024-04-10 12:46:32			0	33880	0	0	0	17651	16370	154006	27537	947940	34893	106411	0	0	8155	762932	0	0
2024-04-10 12:47:32			0	33863	0	0	0	17649	16360	153990	27357	947906	34903	106410	0	0	8154	763821	0	0
2024-04-10 12:48:32			0	33877	0	0	0	17644	16360	153974	27393	947906	34892	106408	0	0	8155	763123	0	0
2024-04-10 12:49:32			0	33863	0	0	0	17651	16360	153934	27239	947932	34903	106411	0	0	8154	763821	0	0
2024-04-10 12:50:32			0	33877	0	0	0	17657	16360	153978	27258	947906	34892	106413	0	0	8155	763123	0	0
2024-04-10 12:51:32			0	33874	0	0	0	17654	16350	153978	27133	947864	34902	106412	0	0	8155	763314	0	0
2024-04-10 12:52:32			0	33875	0	0	0	17667	16360	153942	27135	947924	34902	106417	0	0	8155	763222	0	0
2024-04-10 12:53:32			0	33885	0	0	0	17662	16360	154010	27078	947932	34892	106415	0	0	8155	762724	0	0
2024-04-10 12:54:32			0	33887	0	0	0	17683	16360	153942	27322	947872	34902	106423	0	0	8155	762624	0	0
2024-04-10 12:55:32			0	33887	0	0	0	17664	16360	153958	27353	947924	34913	106416	0	0	8155	762624	0	0
2024-04-10 12:56:32			0	33874	0	0	0	17664	16370	153922	26949	947949	34915	106416	0	0	8155	763231	0	0
2024-04-10 12:57:32			0	33882	0	0	0	17667	16370	154002	27114	947949	34904	106417	0	0	8155	762832	0	0
2024-04-10 12:58:32			0	33885	0	0	0	17659	16370	153930	27521	947967	34904	106414	0	0	8155	762683	0	0
2024-04-10 12:59:32			0	33875	0	0	0	17657	16370	154026	27409	947940	34915	106413	0	0	8155	763181	0	0
2024-04-10 13:00:32			0	33887	0	0	0	17662	16370	153950	26949	947993	34904	106415	0	0	8156	762583	0	0
2024-04-10 13:01:32			0	33881	0	0	0	17670	16380	153950	27045	947931	34893	106418	0	0	8155	762841	0	0
2024-04-10 13:02:32			0	33888	0	0	0	17672	16370	153994	27590	948054	34904	106419	0	0	8155	762533	0	0
2024-04-10 13:03:32			0	33891	0	0	0	17680	16380	154018	27521	948010	34915	106422	0	0	8156	762342	0	0
2024-04-10 13:04:32			0	33869	0	0	0	17690	16370	153926	27310	947975	34915	106426	0	0	8154	763480	0	0
2024-04-10 13:05:32			0	33906	0	0	0	17693	16390	153862	27435	948052	34916	106427	0	0	8156	761554	0	0
2024-04-10 13:06:32			0	33884	0	0	0	17688	16380	153922	27481	948097	34905	106425	0	0	8155	762691	0	0
2024-04-10 13:07:32			0	33904	0	0	0	17690	16390	153858	27402	948078	34916	106426	0	0	8156	761654	0	0
2024-04-10 13:08:32			0	33899	0	0	0	17696	16400	153846	27277	948095	34916	106428	0	0	8156	761862	0	0
2024-04-10 13:09:32			0	33903	0	0	0	17706	16400	153778	27651	948042	34916	106432	0	0	8156	761663	0	0
2024-04-10 13:10:32			0	33916	0	0	0	17698	16390	153798	27493	948131	34927	106429	0	0	8157	761057	0	0
2024-04-10 13:11:32			0	33927	0	0	0	17703	16400	153798	27595	948121	34916	106431	0	0	8157	760469	0	0
2024-04-10 13:12:32			0	33911	0	0	0	17703	16400	153770	27502	948147	34927	106431	0	0	8156	761264	0	0
2024-04-10 13:13:32			0	33933	0	0	0	17701	16400	153798	27365	948129	34927	106430	0	0	8158	760170	0	0
2024-04-10 13:14:32			0	33930	0	0	0	17709	16410	153738	27606	948137	34928	106433	0	0	8157	760278	0	0
2024-04-10 13:15:32			0	33939	0	0	0	17709	16400	153698	27289	948076	34916	106433	0	0	8158	759872	0	0
2024-04-10 13:16:32			0	33925	0	0	0	17706	16420	153710	27594	948206	34929	106432	0	0	8157	760486	0	0
2024-04-10 13:17:32			0	33948	0	0	0	17703	16420	153798	27241	948180	34929	106431	0	0	8159	759343	0	0
2024-04-10 13:18:32			0	33949	0	0	0	17698	16400	153702	27701	948155	34939	106429	0	0	8159	759375	0	0
2024-04-10 13:19:32			0	33944	0	0	0	17706	16420	153738	27699	948153	34940	106432	0	0	8158	759541	0	0
2024-04-10 13:20:32			0	33943	0	0	0	17706	16420	153662	27246	948206	34929	106432	0	0	8158	759591	0	0
2024-04-10 13:21:32			0	33932	0	0	0	17709	16410	153670	27263	948172	34951	106433	0	0	8158	760179	0	0
2024-04-10 13:22:32			0	33949	0	0	0	17709	16410	153682	27312	948137	34939	106433	0	0	8159	759334	0	0
2024-04-10 13:23:32			0	33934	0	0	0	17706	16430	153666	27561	948230	34930	106432	0	0	8158	759997	0	0
2024-04-10 13:24:32			0	33942	0	0	0	17714	16410	153614	27906	948172	34951	106435	0	0	8158	759682	0	0
2024-04-10 13:25:32			0	33938	0	0	0	17711	16410	153630	27656	948119	34929	106434	0	0	8158	759881	0	0
2024-04-10 13:26:32			0	33942	0	0	0	17711	16410	153674	27711	948198	34940	106434	0	0	8158	759682	0	0
2024-04-10 13:27:32			0	33938	0	0	0	17709	16430	153662	27627	948222	34941	106433	0	0	8158	759798	0	0
2024-04-10 13:28:32			0	33934	0	0	0	17701	16420	153722	27569	948188	34940	106430	0	0	8158	760038	0	0
2024-04-10 13:29:32			0	33952	0	0	0	17706	16430	153698	27805	948248	34930	106432	0	0	8159	759103	0	0
2024-04-10 13:30:32			0	33948	0	0	0	17703	16420	153654	27530	948206	34940	106431	0	0	8159	759343	0	0
2024-04-10 13:31:32			0	33970	0	0	0	17701	16420	153678	27345	948153	34940	106430	0	0	8160	758251	0	0
2024-04-10 13:32:32			0	33973	0	0	0	17698	16420	153518	27590	948135	34951	106429	0	0	8160	758102	0	0
2024-04-10 13:33:32			0	33985	0	0	0	17703	16420	153498	27440	948161	34951	106431	0	0	8161	757507	0	0
2024-04-10 13:34:32			0	33970	0	0	0	17690	16430	153402	27635	948248	34941	106426	0	0	8160	758210	0	0
2024-04-10 13:35:32			0	33960	0	0	0	17690	16420	153502	27698	948188	34929	106426	0	0	8160	758747	0	0
2024-04-10 13:36:32			0	33968	0	0	0	17693	16420	153466	27417	948188	34951	106427	0	0	8160	758350	0	0
2024-04-10 13:37:32			0	33977	0	0	0	17685	16420	153438	27682	948232	34929	106424	0	0	8161	757904	0	0
2024-04-10 13:38:32			0	33978	0	0	0	17690	16410	153490	27483	948198	34940	106426	0	0	8161	757895	0	0
2024-04-10 13:39:32			0	33967	0	0	0	17685	16410	153542	27795	948145	34951	106424	0	0	8160	758441	0	0
2024-04-10 13:40:32			0	33978	0	0	0	17670	16420	153550	27744	948180	34951	106418	0	0	8161	757854	0	0
2024-04-10 13:41:32			0	33989	0	0	0	17685	16420	153582	27438	948188	34951	106424	0	0	8161	757309	0	0
2024-04-10 13:42:32			0	33979	0	0	0	17688	16410	153530	27497	948119	34961	106425	0	0	8161	757845	0	0
2024-04-10 13:43:32			0	33984	0	0	0	17688	16410	153554	27635	948119	34951	106425	0	0	8161	757597	0	0
2024-04-10 13:44:32			0	33966	0	0	0	17685	16410	153570	27826	948172	34951	106424	0	0	8160	758490	0	0
2024-04-10 13:45:32			0	33965	0	0	0	17688	16410	153566	27538	948145	34961	106425	0	0	8160	758540	0	0
2024-04-10 13:46:32			0	33961	0	0	0	17680	16420	153646	27521	948240	34984	106422	0	0	8160	758697	0	0
2024-04-10 13:47:32			0	33948	0	0	0	17685	16420	153650	27795	948180	34951	106424	0	0	8159	759343	0	0
2024-04-10 13:48:32			0	33954	0	0	0	17677	16410	153678	27310	948163	34961	106421	0	0	8159	759086	0	0
2024-04-10 13:49:32			0	33933	0	0	0	17659	16400	153682	27750	948182	34960	106414	0	0	8158	760170	0	0
2024-04-10 13:50:32			0	33944	0	0	0	17664	16400	153682	27147	948103	34950	106416	0	0	8159	759624	0	0
2024-04-10 13:51:32			0	33937	0	0	0	17651	16400	153786	27227	948076	34960	106411	0	0	8159	759971	0	0
2024-04-10 13:52:32			0	33926	0	0	0	17657	16400	153858	27492	948076	34971	106413	0	0	8158	760518	0	0
2024-04-10 13:53:32			0	33913	0	0	0	17659	16390	153930	27216	948087	34960	106414	0	0	8157	761206	0	0
2024-04-10 13:54:32			0	33901	0	0	0	17662	16390	153866	27409	948052	34949	106415	0	0	8156	761803	0	0
2024-04-10 13:55:32			0	33899	0	0	0	17664	16390	153922	27218	948026	34959	106416	0	0	8156	761903	0	0
2024-04-10 13:56:32			0	33901	0	0	0	17672	16390	153998	27528	948078	34949	106419	0	0	8156	761803	0	0
2024-04-10 13:57:32			0	33913	0	0	0	17662	16380	153862	27326	948044	34948	106415	0	0	8157	761247	0	0
2024-04-10 13:58:32			0	33892	0	0	0	17667	16390	153962	27322	948078	34959	106417	0	0	8156	762252	0	0
2024-04-10 13:59:32			0	33887	0	0	0	17657	16380	153978	27326	948044	34958	106413	0	0	8156	762542	0	0
2024-04-10 14:00:32			0	33888	0	0	0	17649	16380	154038	27744	948010	34947	106410	0	0	8156	762492	0	0
2024-04-10 14:01:32			0	33889	0	0	0	17654	16390	153910	27293	947973	34959	106412	0	0	8156	762401	0	0
2024-04-10 14:02:32			0	33890	0	0	0	17654	16380	153962	27402	947957	34958	106412	0	0	8156	762392	0	0
2024-04-10 14:03:32			0	33878	0	0	0	17646	16380	153930	27241	947991	34969	106409	0	0	8155	762991	0	0
2024-04-10 14:04:32			0	33897	0	0	0	17651	16380	153970	27377	948036	34980	106411	0	0	8156	762044	0	0
2024-04-10 14:05:32			0	33897	0	0	0	17657	16380	153950	27523	947983	34958	106413	0	0	8156	762044	0	0
2024-04-10 14:06:32			0	33902	0	0	0	17649	16370	153846	27206	947975	34958	106410	0	0	8157	761836	0	0
2024-04-10 14:07:32			0	33897	0	0	0	17654	16370	153950	27237	947949	34969	106412	0	0	8156	762085	0	0
2024-04-10 14:08:32			0	33893	0	0	0	17644	16380	153870	27376	947931	34958	106408	0	0	8156	762243	0	0
2024-04-10 14:09:32			0	33909	0	0	0	17649	16370	153982	27265	948046	34969	106410	0	0	8157	761487	0	0
2024-04-10 14:10:32			0	33909	0	0	0	17644	16370	153878	27286	948020	34969	106408	0	0	8157	761487	0	0
2024-04-10 14:11:32			0	33929	0	0	0	17651	16360	153778	27400	947959	34968	106411	0	0	8158	760533	0	0
2024-04-10 14:12:32			0	33909	0	0	0	17649	16360	153818	27362	947985	34958	106410	0	0	8157	761528	0	0
2024-04-10 14:13:32			0	33905	0	0	0	17664	16370	153846	27353	948028	34969	106416	0	0	8157	761686	0	0
2024-04-10 14:14:32			0	33909	0	0	0	17664	16380	153854	27474	948018	34958	106416	0	0	8157	761446	0	0
2024-04-10 14:15:32			0	33917	0	0	0	17675	16380	153794	27222	948089	34969	106420	0	0	8157	761048	0	0
2024-04-10 14:16:32			0	33927	0	0	0	17675	16360	153790	27270	948038	34990	106420	0	0	8158	760633	0	0
2024-04-10 14:17:32			0	33889	0	0	0	17685	16370	153850	27244	948054	34969	106424	0	0	8155	762483	0	0
2024-04-10 14:18:32			0	33904	0	0	0	17688	16380	153906	27345	948036	34980	106425	0	0	8156	761695	0	0
2024-04-10 14:19:32			0	33918	0	0	0	17685	16380	153958	27339	948115	34991	106424	0	0	8157	760998	0	0
2024-04-10 14:20:32			0	33898	0	0	0	17693	16370	153914	27177	948081	34980	106427	0	0	8156	762035	0	0
2024-04-10 14:21:32			0	33907	0	0	0	17698	16380	153922	27267	948062	34980	106429	0	0	8156	761546	0	0
2024-04-10 14:22:32			0	33906	0	0	0	17698	16380	153982	27653	948070	34992	106429	0	0	8156	761596	0	0
2024-04-10 14:23:32			0	33914	0	0	0	17706	16380	154006	27566	948176	34980	106432	0	0	8156	761197	0	0
2024-04-10 14:24:32			0	33898	0	0	0	17706	16390	153978	27765	948131	34981	106432	0	0	8156	761953	0	0
2024-04-10 14:25:32			0	33900	0	0	0	17709	16390	153942	27381	948131	34981	106433	0	0	8156	761853	0	0
2024-04-10 14:26:32			0	33914	0	0	0	17722	16390	153986	27393	948131	34981	106438	0	0	8156	761156	0	0
2024-04-10 14:27:32			0	33920	0	0	0	17722	16400	153874	27466	948155	34993	106438	0	0	8157	760817	0	0
2024-04-10 14:28:32			0	33916	0	0	0	17729	16400	153938	27298	948147	34993	106441	0	0	8156	761015	0	0
2024-04-10 14:29:32			0	33928	0	0	0	17740	16390	153954	27400	948166	34993	106445	0	0	8157	760460	0	0
2024-04-10 14:30:32			0	33932	0	0	0	17732	16400	153862	27267	948208	34993	106442	0	0	8157	760220	0	0
2024-04-10 14:31:32			0	33932	0	0	0	17737	16400	153894	27556	948234	35014	106444	0	0	8157	760220	0	0
2024-04-10 14:32:32			0	33919	0	0	0	17737	16420	153874	27352	948259	34995	106444	0	0	8156	760784	0	0
2024-04-10 14:33:32			0	33932	0	0	0	17745	16430	153882	27263	948301	34995	106447	0	0	8157	760097	0	0
2024-04-10 14:34:32			0	33934	0	0	0	17755	16430	153870	27561	948336	35018	106451	0	0	8157	759997	0	0
2024-04-10 14:35:32			0	33936	0	0	0	17753	16440	153730	27462	948344	34996	106450	0	0	8157	759857	0	0
2024-04-10 14:36:32			0	33944	0	0	0	17761	16430	153690	27478	948301	35006	106453	0	0	8157	759500	0	0
2024-04-10 14:37:32			0	33946	0	0	0	17753	16440	153718	27447	948344	34985	106450	0	0	8158	759360	0	0
2024-04-10 14:38:32			0	33946	0	0	0	17755	16440	153678	27455	948344	35018	106451	0	0	8158	759360	0	0
2024-04-10 14:39:32			0	33970	0	0	0	17758	16450	153654	27241	948386	35018	106452	0	0	8159	758128	0	0
2024-04-10 14:40:32			0	33956	0	0	0	17763	16450	153626	27457	948315	35019	106454	0	0	8158	758822	0	0
2024-04-10 14:41:32			0	33959	0	0	0	17763	16450	153650	27170	948360	35007	106454	0	0	8158	758673	0	0
2024-04-10 14:42:32			0	33980	0	0	0	17758	16450	153502	27395	948386	35029	106452	0	0	8160	757632	0	0
2024-04-10 14:43:32			0	33981	0	0	0	17748	16440	153402	27201	948396	34996	106448	0	0	8160	757623	0	0
2024-04-10 14:44:32			0	33988	0	0	0	17758	16450	153450	27499	948368	35008	106452	0	0	8160	757236	0	0
2024-04-10 14:45:32			0	34000	0	0	0	17753	16450	153414	27294	948386	35018	106450	0	0	8161	756641	0	0
2024-04-10 14:46:32			0	33995	0	0	0	17758	16450	153378	26932	948333	35018	106452	0	0	8161	756889	0	0
2024-04-10 14:47:32			0	34010	0	0	0	17763	16450	153278	27260	948386	35007	106454	0	0	8161	756146	0	0
2024-04-10 14:48:32			0	34023	0	0	0	17763	16450	153298	27369	948439	35029	106454	0	0	8162	755503	0	0
2024-04-10 14:49:32			0	34036	0	0	0	17776	16460	153178	27490	948402	35008	106459	0	0	8163	754819	0	0
2024-04-10 14:50:32			0	34054	0	0	0	17776	16450	153206	27372	948447	35019	106459	0	0	8164	753971	0	0
2024-04-10 14:51:32			0	34051	0	0	0	17766	16450	153190	27462	948473	35030	106455	0	0	8164	754119	0	0
2024-04-10 14:52:32			0	34049	0	0	0	17784	16460	153074	27689	948481	35019	106462	0	0	8163	754177	0	0
2024-04-10 14:53:32			0	34050	0	0	0	17776	16470	153158	27611	948463	35031	106459	0	0	8164	754087	0	0
2024-04-10 14:54:32			0	34052	0	0	0	17784	16480	153162	27348	948506	35032	106462	0	0	8164	753947	0	0
2024-04-10 14:55:32			0	34033	0	0	0	17792	16480	153166	27426	948453	35021	106465	0	0	8162	754886	0	0
2024-04-10 14:56:32			0	34050	0	0	0	17786	16480	153126	27414	948479	35053	106463	0	0	8163	754046	0	0
2024-04-10 14:57:32			0	34061	0	0	0	17786	16480	153122	27507	948532	35032	106463	0	0	8164	753503	0	0
2024-04-10 14:58:32			0	34040	0	0	0	17784	16490	153218	27286	948522	35033	106462	0	0	8163	754499	0	0
2024-04-10 14:59:32			0	34050	0	0	0	17792	16490	153078	27504	948522	35033	106465	0	0	8163	754005	0	0
2024-04-10 15:00:32			0	34051	0	0	0	17784	16480	153154	27147	948558	35032	106462	0	0	8164	753996	0	0
2024-04-10 15:01:32			0	34054	0	0	0	17794	16480	153258	27416	948487	35033	106466	0	0	8164	753848	0	0
2024-04-10 15:02:32			0	34041	0	0	0	17797	16490	153146	27715	948522	35033	106467	0	0	8163	754450	0	0
2024-04-10 15:03:32			0	34049	0	0	0	17797	16490	153162	27343	948495	35043	106467	0	0	8163	754054	0	0
2024-04-10 15:04:32			0	34058	0	0	0	17792	16480	153138	27213	948514	35043	106465	0	0	8164	753651	0	0
2024-04-10 15:05:32			0	34062	0	0	0	17789	16500	153218	27500	948565	35043	106464	0	0	8164	753372	0	0
2024-04-10 15:06:32			0	34061	0	0	0	17789	16490	153134	27281	948609	35033	106464	0	0	8164	753462	0	0
2024-04-10 15:07:32			0	34057	0	0	0	17784	16500	153106	27438	948538	35033	106462	0	0	8164	753619	0	0
2024-04-10 15:08:32			0	34054	0	0	0	17792	16490	153134	27334	948477	35033	106465	0	0	8164	753808	0	0
2024-04-10 15:09:32			0	34071	0	0	0	17797	16480	153166	27640	948566	35043	106467	0	0	8164	753009	0	0
2024-04-10 15:10:32			0	34052	0	0	0	17802	16500	153198	27561	948565	35055	106469	0	0	8163	753866	0	0
2024-04-10 15:11:32			0	34060	0	0	0	17805	16520	153174	27556	948650	35035	106470	0	0	8164	753389	0	0
2024-04-10 15:12:32			0	34074	0	0	0	17802	16510	153154	27944	948607	35044	106469	0	0	8165	752739	0	0
2024-04-10 15:13:32			0	34068	0	0	0	17810	16510	153106	27959	948607	35044	106472	0	0	8164	753035	0	0
2024-04-10 15:14:32			0	34056	0	0	0	17794	16510	153150	27732	948615	35044	106466	0	0	8164	753627	0	0
2024-04-10 15:15:32			0	34055	0	0	0	17805	16510	153166	27751	948615	35044	106470	0	0	8164	753677	0	0
2024-04-10 15:16:32			0	34056	0	0	0	17792	16520	153186	27661	948623	35056	106465	0	0	8164	753587	0	0
2024-04-10 15:17:32			0	34050	0	0	0	17797	16520	153210	27796	948623	35056	106467	0	0	8163	753883	0	0
2024-04-10 15:18:32			0	34049	0	0	0	17797	16520	153194	27490	948650	35056	106467	0	0	8163	753932	0	0
2024-04-10 15:19:32			0	34062	0	0	0	17807	16520	153158	27869	948650	35056	106471	0	0	8164	753290	0	0
2024-04-10 15:20:32			0	34045	0	0	0	17812	16530	153090	27729	948666	35046	106473	0	0	8163	754089	0	0
2024-04-10 15:21:32			0	34068	0	0	0	17805	16520	153198	27663	948684	35057	106470	0	0	8164	752994	0	0
2024-04-10 15:22:32			0	34072	0	0	0	17805	16520	153190	27951	948605	35046	106470	0	0	8165	752797	0	0
2024-04-10 15:23:32			0	34051	0	0	0	17815	16530	153146	27973	948639	35046	106474	0	0	8163	753793	0	0
2024-04-10 15:24:32			0	34069	0	0	0	17810	16520	153126	28018	948684	35057	106472	0	0	8164	752945	0	0
2024-04-10 15:25:32			0	34061	0	0	0	17823	16520	153034	27793	948737	35057	106477	0	0	8164	753340	0	0
2024-04-10 15:26:32			0	34065	0	0	0	17818	16520	153074	27947	948737	35079	106475	0	0	8164	753143	0	0
2024-04-10 15:27:32			0	34067	0	0	0	17815	16540	153090	27625	948708	35069	106474	0	0	8164	752962	0	0
2024-04-10 15:28:32			0	34075	0	0	0	17810	16550	153050	27751	948804	35047	106472	0	0	8165	752527	0	0
2024-04-10 15:29:32			0	34073	0	0	0	17807	16530	153066	27904	948727	35047	106471	0	0	8165	752707	0	0
2024-04-10 15:30:32			0	34074	0	0	0	17799	16540	153038	27859	948690	35070	106468	0	0	8165	752617	0	0
2024-04-10 15:31:32			0	34062	0	0	0	17794	16540	152902	27670	948690	35047	106466	0	0	8164	753209	0	0
2024-04-10 15:32:32			0	34099	0	0	0	17805	16550	152970	27435	948698	35070	106470	0	0	8166	751345	0	0
2024-04-10 15:33:32			0	34099	0	0	0	17820	16540	152926	27511	948708	35069	106476	0	0	8166	751385	0	0
2024-04-10 15:34:32			0	34089	0	0	0	17828	16550	152986	27840	948724	35070	106479	0	0	8165	751837	0	0
2024-04-10 15:35:32			0	34090	0	0	0	17844	16550	153006	27673	948759	35070	106485	0	0	8165	751788	0	0
2024-04-10 15:36:32			0	34071	0	0	0	17849	16550	153098	27954	948830	35058	106487	0	0	8164	752724	0	0
2024-04-10 15:37:32			0	34068	0	0	0	17849	16550	153154	27694	948759	35092	106487	0	0	8164	752872	0	0
2024-04-10 15:38:32			0	34062	0	0	0	17836	16550	153050	27661	948804	35070	106482	0	0	8164	753168	0	0
2024-04-10 15:39:32			0	34046	0	0	0	17836	16560	153202	27958	948846	35070	106482	0	0	8163	753917	0	0
2024-04-10 15:40:32			0	34050	0	0	0	17846	16560	153146	27757	948820	35070	106486	0	0	8163	753720	0	0
2024-04-10 15:41:32			0	34050	0	0	0	17849	16560	153102	27850	948828	35093	106487	0	0	8163	753720	0	0
2024-04-10 15:42:32			0	34042	0	0	0	17870	16560	153202	27795	948880	35060	106495	0	0	8162	754115	0	0
2024-04-10 15:43:32			0	34045	0	0	0	17893	16570	153234	27704	948870	35093	106504	0	0	8162	753926	0	0
2024-04-10 15:44:32			0	34031	0	0	0	17888	16580	153214	27386	948913	35073	106502	0	0	8161	754576	0	0
2024-04-10 15:45:32			0	34031	0	0	0	17870	16580	153190	27835	948913	35073	106495	0	0	8161	754576	0	0
2024-04-10 15:46:32			0	34053	0	0	0	17864	16600	153206	27531	948937	35074	106493	0	0	8163	753408	0	0
2024-04-10 15:47:32			0	34036	0	0	0	17846	16590	153246	27959	948921	35084	106486	0	0	8162	754289	0	0
2024-04-10 15:48:32			0	34056	0	0	0	17844	16610	153162	28093	948927	35075	106485	0	0	8163	753220	0	0
2024-04-10 15:49:32			0	34042	0	0	0	17849	16600	153158	27588	948919	35084	106487	0	0	8162	753951	0	0
2024-04-10 15:50:32			0	34042	0	0	0	17844	16600	153150	27684	948945	35074	106485	0	0	8163	753951	0	0
2024-04-10 15:51:32			0	34052	0	0	0	17849	16600	153170	27824	948937	35084	106487	0	0	8163	753458	0	0
2024-04-10 15:52:32			0	34034	0	0	0	17844	16600	153258	27911	948945	35074	106485	0	0	8162	754346	0	0
2024-04-10 15:53:32			0	34048	0	0	0	17841	16590	153146	27611	948876	35095	106484	0	0	8163	753696	0	0
2024-04-10 15:54:32			0	34046	0	0	0	17844	16600	153062	27258	948911	35096	106485	0	0	8163	753754	0	0
2024-04-10 15:55:32			0	34031	0	0	0	17857	16600	153218	27461	948858	35084	106490	0	0	8162	754495	0	0
2024-04-10 15:56:32			0	34053	0	0	0	17862	16590	153150	27642	948868	35084	106492	0	0	8163	753449	0	0
2024-04-10 15:57:32			0	34034	0	0	0	17867	16590	153238	27722	948876	35084	106494	0	0	8162	754387	0	0
2024-04-10 15:58:32			0	34041	0	0	0	17857	16580	153254	27547	948913	35105	106490	0	0	8162	754082	0	0
2024-04-10 15:59:32			0	34048	0	0	0	17857	16600	153202	27899	948911	35084	106490	0	0	8163	753655	0	0
2024-04-10 16:00:32			0	34052	0	0	0	17867	16590	153154	28147	948868	35106	106494	0	0	8163	753499	0	0
2024-04-10 16:01:32			0	34055	0	0	0	17875	16590	153102	27549	948903	35106	106497	0	0	8163	753351	0	0
2024-04-10 16:02:32			0	34047	0	0	0	17890	16600	153054	27618	948990	35107	106503	0	0	8162	753705	0	0
2024-04-10 16:03:32			0	34079	0	0	0	17898	16600	153122	27658	948937	35096	106506	0	0	8164	752126	0	0
2024-04-10 16:04:32			0	34080	0	0	0	17888	16610	153050	27783	948935	35108	106502	0	0	8164	752036	0	0
2024-04-10 16:05:32			0	34067	0	0	0	17888	16610	153030	27732	949032	35096	106502	0	0	8163	752677	0	0
2024-04-10 16:06:32			0	34086	0	0	0	17885	16610	152962	27772	949032	35096	106501	0	0	8164	751741	0	0
2024-04-10 16:07:32			0	34081	0	0	0	17893	16610	152966	27736	949006	35108	106504	0	0	8164	751987	0	0
2024-04-10 16:08:32			0	34098	0	0	0	17888	16600	152974	27781	949024	35096	106502	0	0	8165	751191	0	0
2024-04-10 16:09:32			0	34098	0	0	0	17898	16620	152910	27642	949101	35108	106506	0	0	8165	751109	0	0
2024-04-10 16:10:32			0	34105	0	0	0	17909	16620	152926	27483	948996	35097	106510	0	0	8165	750765	0	0
2024-04-10 16:11:32			0	34090	0	0	0	17927	16620	152866	27699	949083	35086	106517	0	0	8164	751503	0	0
2024-04-10 16:12:32			0	34094	0	0	0	17924	16630	152954	27623	949126	35109	106516	0	0	8164	751265	0	0
2024-04-10 16:13:32			0	34098	0	0	0	17942	16630	153106	27862	949144	35120	106523	0	0	8164	751069	0	0
2024-04-10 16:14:32			0	34099	0	0	0	18002	16640	153042	27421	949186	35110	106546	0	0	8163	750979	0	0
2024-04-10 16:15:32			0	34081	0	0	0	18064	16650	153170	27386	949229	35111	106570	0	0	8161	751824	0	0
2024-04-10 16:16:32			0	34123	0	0	0	18153	16650	153038	27336	949343	35122	106604	0	0	8162	749758	0	0
2024-04-10 16:17:32			0	34172	0	0	0	18179	16690	152778	27568	949558	35146	106614	0	0	8165	747190	0	0
2024-04-10 16:18:32			0	34212	0	0	0	18220	16710	152422	27526	949669	35160	106630	0	0	8166	745151	0	0
2024-04-10 16:19:32			0	34258	0	0	0	18233	16730	152394	28032	949754	35161	106635	0	0	8169	742823	0	0
2024-04-10 16:20:32			0	34244	0	0	0	18241	16750	152374	27488	949787	35152	106638	0	0	8168	743426	0	0
2024-04-10 16:21:32			0	34222	0	0	0	18241	16760	152546	27471	949909	35164	106638	0	0	8167	744460	0	0
2024-04-10 16:22:32			0	34183	0	0	0	18251	16790	152590	27824	949949	35154	106642	0	0	8165	746247	0	0
2024-04-10 16:23:32			0	34155	0	0	0	18251	16800	152558	27656	949991	35166	106642	0	0	8163	747578	0	0
2024-04-10 16:24:32			0	34135	0	0	0	18246	16810	152686	27724	950016	35166	106640	0	0	8162	748519	0	0
2024-04-10 16:25:32			0	34141	0	0	0	18241	16830	152718	27666	950074	35158	106638	0	0	8163	748144	0	0
2024-04-10 16:26:32			0	34150	0	0	0	18254	16840	152634	27838	950117	35170	106643	0	0	8163	747661	0	0
2024-04-10 16:27:32			0	34166	0	0	0	18251	16850	152550	27781	950151	35170	106642	0	0	8164	746837	0	0
2024-04-10 16:28:32			0	34163	0	0	0	18249	16860	152570	27718	950168	35181	106641	0	0	8164	746943	0	0
2024-04-10 16:29:32			0	34182	0	0	0	18246	16870	152394	28270	950192	35171	106640	0	0	8165	745972	0	0
2024-04-10 16:30:32			0	34200	0	0	0	18251	16890	152310	27946	950216	35162	106642	0	0	8166	745011	0	0
2024-04-10 16:31:32			0	34201	0	0	0	18246	16890	152250	27703	950216	35184	106640	0	0	8166	744962	0	0
2024-04-10 16:32:32			0	34224	0	0	0	18259	16900	152182	27699	950285	35173	106645	0	0	8167	743798	0	0
2024-04-10 16:33:32			0	34234	0	0	0	18275	16920	152122	27894	950344	35175	106651	0	0	8168	743229	0	0
2024-04-10 16:34:32			0	34247	0	0	0	18270	16910	152038	27982	950362	35175	106649	0	0	8169	742635	0	0
2024-04-10 16:35:32			0	34256	0	0	0	18270	16930	152054	28003	950421	35177	106649	0	0	8169	742116	0	0
2024-04-10 16:36:32			0	34252	0	0	0	18283	16940	152126	27783	950358	35188	106654	0	0	8169	742271	0	0
2024-04-10 16:37:32			0	34225	0	0	0	18277	16940	152170	27479	950437	35188	106652	0	0	8167	743588	0	0
2024-04-10 16:38:32			0	34220	0	0	0	18277	16950	152118	27635	950498	35189	106652	0	0	8167	743791	0	0
2024-04-10 16:39:32			0	34209	0	0	0	18270	16950	152230	27429	950427	35200	106649	0	0	8167	744329	0	0
2024-04-10 16:40:32			0	34194	0	0	0	18270	16960	152258	27680	950435	35178	106649	0	0	8166	745022	0	0
2024-04-10 16:41:32			0	34176	0	0	0	18272	16950	152322	28093	950453	35167	106650	0	0	8165	745943	0	0
2024-04-10 16:42:32			0	34167	0	0	0	18277	16960	152410	27935	950522	35201	106652	0	0	8164	746343	0	0
2024-04-10 16:43:32			0	34138	0	0	0	18280	16970	152594	27679	950486	35169	106653	0	0	8162	747723	0	0
2024-04-10 16:44:32			0	34114	0	0	0	18285	16980	152562	28074	950547	35192	106655	0	0	8161	748860	0	0
2024-04-10 16:45:32			0	34085	0	0	0	18277	16990	152562	27899	950510	35192	106652	0	0	8160	750244	0	0
2024-04-10 16:46:32			0	34084	0	0	0	18288	16980	152678	27788	950581	35203	106656	0	0	8159	750334	0	0
2024-04-10 16:47:32			0	34071	0	0	0	18288	16980	152774	27933	950581	35180	106656	0	0	8159	750973	0	0
2024-04-10 16:48:32			0	34057	0	0	0	18283	16990	152734	27805	950571	35204	106654	0	0	8158	751621	0	0
2024-04-10 16:49:32			0	34024	0	0	0	18280	16990	153062	27569	950571	35193	106653	0	0	8156	753247	0	0
2024-04-10 16:50:32			0	33979	0	0	0	18270	16990	153226	27324	950518	35204	106649	0	0	8154	755469	0	0
2024-04-10 16:51:32			0	33947	0	0	0	18270	16990	153398	27569	950545	35193	106649	0	0	8152	757052	0	0
2024-04-10 16:52:32			0	33907	0	0	0	18283	16990	153474	27635	950518	35204	106654	0	0	8149	759034	0	0
2024-04-10 16:53:32			0	33882	0	0	0	18270	16990	153578	27630	950518	35193	106649	0	0	8148	760276	0	0
2024-04-10 16:54:32			0	33868	0	0	0	18270	16990	153762	27588	950518	35193	106649	0	0	8147	760971	0	0
2024-04-10 16:55:32			0	33857	0	0	0	18275	16990	153758	27571	950518	35193	106651	0	0	8146	761519	0	0
2024-04-10 16:56:32			0	33851	0	0	0	18257	16990	153842	27748	950518	35182	106644	0	0	8146	761817	0	0
2024-04-10 16:57:32			0	33829	0	0	0	18270	16990	153842	27715	950518	35204	106649	0	0	8145	762912	0	0
2024-04-10 16:58:32			0	33828	0	0	0	18254	16990	153886	27376	950457	35203	106643	0	0	8145	762962	0	0
2024-04-10 16:59:32			0	33828	0	0	0	18249	16980	153902	27717	950423	35213	106641	0	0	8145	763004	0	0
2024-04-10 17:00:32			0	33826	0	0	0	18246	17000	153886	27466	950500	35193	106640	0	0	8145	763020	0	0
2024-04-10 17:01:32			0	33807	0	0	0	18238	16970	153906	27556	950459	35203	106637	0	0	8144	764092	0	0
2024-04-10 17:02:32			0	33805	0	0	0	18241	16980	153970	27757	950415	35192	106638	0	0	8144	764150	0	0
2024-04-10 17:03:32			0	33802	0	0	0	18228	16980	154102	27920	950441	35203	106633	0	0	8144	764300	0	0
2024-04-10 17:04:32			0	33796	0	0	0	18236	16970	154014	27878	950451	35191	106636	0	0	8143	764640	0	0
2024-04-10 17:05:32			0	33785	0	0	0	18233	16960	154110	27495	950417	35201	106635	0	0	8143	765231	0	0
2024-04-10 17:06:32			0	33778	0	0	0	18236	16970	154134	27840	950354	35203	106636	0	0	8142	765539	0	0
2024-04-10 17:07:32			0	33782	0	0	0	18233	16960	154146	27831	950417	35190	106635	0	0	8143	765381	0	0
2024-04-10 17:08:32			0	33782	0	0	0	18246	16960	154162	27677	950417	35211	106640	0	0	8142	765381	0	0
2024-04-10 17:09:32			0	33780	0	0	0	18236	16980	154150	27403	950468	35203	106636	0	0	8143	765398	0	0
2024-04-10 17:10:32			0	33781	0	0	0	18236	16970	154198	27845	950380	35203	106636	0	0	8143	765390	0	0
2024-04-10 17:11:32			0	33800	0	0	0	18233	16960	154102	27317	950417	35211	106635	0	0	8144	764482	0	0
2024-04-10 17:12:32			0	33823	0	0	0	18228	16960	153998	27821	950443	35190	106633	0	0	8145	763335	0	0
2024-04-10 17:13:32			0	33832	0	0	0	18228	16960	153786	27732	950409	35233	106633	0	0	8146	762887	0	0
2024-04-10 17:14:32			0	33870	0	0	0	18231	16950	153730	28129	950374	35189	106634	0	0	8148	761037	0	0
2024-04-10 17:15:32			0	33903	0	0	0	18244	16950	153578	27498	950445	35210	106639	0	0	8149	759398	0	0
2024-04-10 17:16:32			0	33914	0	0	0	18249	16960	153578	27559	950443	35211	106641	0	0	8150	758811	0	0
2024-04-10 17:17:32			0	33940	0	0	0	18244	16960	153554	27677	950417	35201	106639	0	0	8152	757522	0	0
2024-04-10 17:18:32			0	33942	0	0	0	18233	16960	153430	27791	950462	35200	106635	0	0	8152	757423	0	0
2024-04-10 17:19:32			0	33970	0	0	0	18236	16970	153510	27755	950425	35212	106636	0	0	8154	755996	0	0
2024-04-10 17:20:32			0	33959	0	0	0	18228	16960	153286	27415	950417	35201	106633	0	0	8153	756581	0	0
2024-04-10 17:21:32			0	33973	0	0	0	18238	16950	153338	27736	950374	35200	106637	0	0	8154	755929	0	0
2024-04-10 17:22:32			0	33957	0	0	0	18246	16960	153334	27313	950417	35211	106640	0	0	8153	756680	0	0
2024-04-10 17:23:32			0	33985	0	0	0	18241	16950	153246	27847	950348	35222	106638	0	0	8154	755336	0	0
2024-04-10 17:24:32			0	33983	0	0	0	18238	16960	153250	27907	950435	35210	106637	0	0	8154	755394	0	0
2024-04-10 17:25:32			0	33994	0	0	0	18238	16980	153190	27720	950441	35224	106637	0	0	8155	754769	0	0
2024-04-10 17:26:32			0	34009	0	0	0	18238	16970	153110	27341	950433	35213	106637	0	0	8156	754069	0	0
2024-04-10 17:27:32			0	34014	0	0	0	18238	16960	153162	27672	950409	35210	106637	0	0	8156	753863	0	0
2024-04-10 17:28:32			0	34044	0	0	0	18238	16970	153090	27743	950425	35202	106637	0	0	8158	752343	0	0
2024-04-10 17:29:32			0	34031	0	0	0	18241	16960	152966	27646	950417	35222	106638	0	0	8157	753025	0	0
2024-04-10 17:30:32			0	34057	0	0	0	18249	16950	152914	27741	950453	35233	106641	0	0	8158	751784	0	0
2024-04-10 17:31:32			0	34067	0	0	0	18246	16970	152962	27462	950530	35223	106640	0	0	8159	751210	0	0
2024-04-10 17:32:32			0	34061	0	0	0	18254	16970	152862	27625	950433	35203	106643	0	0	8158	751506	0	0
2024-04-10 17:33:32			0	34077	0	0	0	18236	16950	152770	27689	950401	35200	106636	0	0	8160	750800	0	0
2024-04-10 17:34:32			0	34089	0	0	0	18228	16950	152774	27452	950401	35210	106633	0	0	8160	750210	0	0
2024-04-10 17:35:32			0	34096	0	0	0	18225	16960	152794	27663	950382	35222	106632	0	0	8161	749825	0	0
2024-04-10 17:36:32			0	34097	0	0	0	18233	16960	152790	27500	950311	35222	106635	0	0	8161	749776	0	0
2024-04-10 17:37:32			0	34085	0	0	0	18223	16950	152738	27447	950393	35210	106631	0	0	8160	750407	0	0
2024-04-10 17:38:32			0	34098	0	0	0	18220	16960	152746	27478	950382	35222	106630	0	0	8161	749727	0	0
2024-04-10 17:39:32			0	34096	0	0	0	18225	16950	152826	27984	950366	35210	106632	0	0	8161	749866	0	0
2024-04-10 17:40:32			0	34085	0	0	0	18210	16950	152762	27287	950340	35210	106626	0	0	8160	750407	0	0
2024-04-10 17:41:32			0	34085	0	0	0	18212	16950	152794	27566	950366	35222	106627	0	0	8160	750407	0	0
2024-04-10 17:42:32			0	34089	0	0	0	18171	16940	152786	27261	950297	35220	106611	0	0	8161	750250	0	0
2024-04-10 17:43:32			0	34086	0	0	0	18168	16940	152842	27267	950305	35232	106610	0	0	8161	750398	0	0
2024-04-10 17:44:32			0	34106	0	0	0	18158	16940	152742	27149	950218	35220	106606	0	0	8163	749415	0	0
2024-04-10 17:45:32			0	34098	0	0	0	18158	16920	152674	27312	950194	35219	106606	0	0	8162	749890	0	0
2024-04-10 17:46:32			0	34087	0	0	0	18155	16920	152698	27845	950220	35219	106605	0	0	8161	750430	0	0
2024-04-10 17:47:32			0	34077	0	0	0	18148	16920	152862	27809	950159	35230	106602	0	0	8161	750922	0	0
2024-04-10 17:48:32			0	34076	0	0	0	18145	16910	152822	27303	950151	35219	106601	0	0	8161	751012	0	0
2024-04-10 17:49:32			0	34060	0	0	0	18140	16900	152886	27552	950101	35217	106599	0	0	8160	751840	0	0
2024-04-10 17:50:32			0	34066	0	0	0	18137	16910	152882	27511	950196	35219	106598	0	0	8160	751504	0	0
2024-04-10 17:51:32			0	34047	0	0	0	18135	16890	152998	27469	950119	35227	106597	0	0	8159	752522	0	0
2024-04-10 17:52:32			0	34059	0	0	0	18135	16900	152978	27371	950180	35228	106597	0	0	8160	751890	0	0
2024-04-10 17:53:32			0	34053	0	0	0	18127	16890	153074	27412	950032	35216	106594	0	0	8160	752226	0	0
2024-04-10 17:54:32			0	34038	0	0	0	18129	16890	153114	27412	950085	35227	106595	0	0	8159	752965	0	0
2024-04-10 17:55:32			0	34054	0	0	0	18127	16870	153074	27109	950052	35215	106594	0	0	8160	752258	0	0
2024-04-10 17:56:32			0	34055	0	0	0	18129	16870	152974	27381	950034	35226	106595	0	0	8160	752209	0	0
2024-04-10 17:57:32			0	34039	0	0	0	18124	16870	152994	27098	950087	35205	106593	0	0	8159	752997	0	0
2024-04-10 17:58:32			0	34069	0	0	0	18124	16860	153026	27320	950017	35226	106593	0	0	8161	751560	0	0
2024-04-10 17:59:32			0	34044	0	0	0	18116	16860	153018	27053	950017	35226	106590	0	0	8159	752792	0	0
2024-04-10 18:00:32			0	34050	0	0	0	18109	16860	153046	27424	949991	35226	106587	0	0	8160	752496	0	0
2024-04-10 18:01:32			0	34065	0	0	0	18098	16850	152994	27391	949967	35224	106583	0	0	8161	751798	0	0
2024-04-10 18:02:32			0	34056	0	0	0	18098	16850	153046	27464	949914	35213	106583	0	0	8160	752241	0	0
2024-04-10 18:03:32			0	34065	0	0	0	18101	16850	153002	27357	950028	35224	106584	0	0	8161	751798	0	0
2024-04-10 18:04:32			0	34068	0	0	0	18122	16850	152970	27230	949922	35224	106592	0	0	8161	751650	0	0
2024-04-10 18:05:32			0	34064	0	0	0	18122	16840	152990	27260	949932	35224	106592	0	0	8160	751888	0	0
2024-04-10 18:06:32			0	34063	0	0	0	18124	16840	153042	27533	950038	35224	106593	0	0	8160	751937	0	0
2024-04-10 18:07:32			0	34048	0	0	0	18122	16850	152974	27606	949967	35224	106592	0	0	8159	752635	0	0
2024-04-10 18:08:32			0	34067	0	0	0	18122	16850	152954	27672	949940	35224	106592	0	0	8160	751699	0	0
2024-04-10 18:09:32			0	34080	0	0	0	18122	16840	152994	27588	949985	35235	106592	0	0	8161	751100	0	0
2024-04-10 18:10:32			0	34070	0	0	0	18122	16830	152998	27659	949969	35245	106592	0	0	8161	751633	0	0
2024-04-10 18:11:32			0	34074	0	0	0	18127	16840	152914	26960	949924	35224	106594	0	0	8161	751395	0	0
2024-04-10 18:12:32			0	34065	0	0	0	18114	16840	152990	27260	949951	35235	106589	0	0	8160	751839	0	0
2024-04-10 18:13:32			0	34078	0	0	0	18109	16840	152906	27469	949951	35235	106587	0	0	8161	751199	0	0
2024-04-10 18:14:32			0	34066	0	0	0	18119	16840	152906	27183	949951	35235	106591	0	0	8160	751789	0	0
2024-04-10 18:15:32			0	34083	0	0	0	18119	16830	152934	27367	949961	35233	106591	0	0	8161	750993	0	0
2024-04-10 18:16:32			0	34085	0	0	0	18124	16840	152850	27658	949951	35235	106593	0	0	8161	750854	0	0
2024-04-10 18:17:32			0	34099	0	0	0	18116	16830	152938	27495	949908	35233	106590	0	0	8162	750206	0	0
2024-04-10 18:18:32			0	34087	0	0	0	18122	16830	152822	27152	949916	35223	106592	0	0	8162	750796	0	0
2024-04-10 18:19:32			0	34096	0	0	0	18119	16830	152826	27580	949908	35233	106591	0	0	8162	750354	0	0
2024-04-10 18:20:32			0	34098	0	0	0	18109	16830	152786	27159	949943	35234	106587	0	0	8162	750255	0	0
2024-04-10 18:21:32			0	34097	0	0	0	18109	16830	152722	27511	949934	35244	106587	0	0	8162	750304	0	0
2024-04-10 18:22:32			0	34111	0	0	0	18114	16830	152770	27332	949855	35233	106589	0	0	8163	749616	0	0
2024-04-10 18:23:32			0	34113	0	0	0	18109	16830	152734	27672	949882	35222	106587	0	0	8163	749518	0	0
2024-04-10 18:24:32			0	34126	0	0	0	18109	16830	152790	27395	949969	35245	106587	0	0	8164	748880	0	0
2024-04-10 18:25:32			0	34114	0	0	0	18116	16820	152694	27279	949926	35233	106590	0	0	8163	749510	0	0
2024-04-10 18:26:32			0	34119	0	0	0	18116	16830	152746	27502	949987	35233	106590	0	0	8163	749223	0	0
2024-04-10 18:27:32			0	34117	0	0	0	18114	16820	152722	27405	949900	35254	106589	0	0	8163	749362	0	0
2024-04-10 18:28:32			0	34120	0	0	0	18111	16820	152706	27429	949900	35244	106588	0	0	8164	749215	0	0
2024-04-10 18:29:32			0	34128	0	0	0	18103	16820	152646	27355	949900	35244	106585	0	0	8164	748822	0	0
2024-04-10 18:30:32			0	34117	0	0	0	18106	16820	152658	27578	949926	35233	106586	0	0	8163	749362	0	0
2024-04-10 18:31:32			0	34128	0	0	0	18101	16820	152742	27284	949900	35254	106584	0	0	8164	748822	0	0
2024-04-10 18:32:32			0	34128	0	0	0	18096	16820	152706	27573	949874	35254	106582	0	0	8164	748822	0	0
2024-04-10 18:33:32			0	34125	0	0	0	18090	16820	152674	27338	949926	35244	106580	0	0	8164	748969	0	0
2024-04-10 18:34:32			0	34109	0	0	0	18103	16820	152598	27588	949945	35244	106585	0	0	8163	749755	0	0
2024-04-10 18:35:32			0	34149	0	0	0	18098	16820	152694	27319	949874	35244	106583	0	0	8165	747792	0	0
2024-04-10 18:36:32			0	34142	0	0	0	18106	16820	152586	27732	949945	35244	106586	0	0	8165	748135	0	0
2024-04-10 18:37:32			0	34145	0	0	0	18096	16820	152646	27352	949874	35244	106582	0	0	8165	747988	0	0
2024-04-10 18:38:32			0	34171	0	0	0	18103	16820	152502	27086	949874	35254	106585	0	0	8167	746713	0	0
2024-04-10 18:39:32			0	34161	0	0	0	18098	16820	152486	27178	949892	35254	106583	0	0	8166	747203	0	0
2024-04-10 18:40:32			0	34171	0	0	0	18103	16810	152518	27398	949857	35243	106585	0	0	8167	746754	0	0
2024-04-10 18:41:32			0	34182	0	0	0	18103	16820	152470	27462	949839	35244	106585	0	0	8167	746175	0	0
2024-04-10 18:42:32			0	34179	0	0	0	18103	16810	152486	27379	949989	35254	106585	0	0	8167	746362	0	0
2024-04-10 18:43:32			0	34185	0	0	0	18109	16810	152510	27265	949884	35265	106587	0	0	8167	746068	0	0
2024-04-10 18:44:32			0	34187	0	0	0	18098	16820	152494	27443	949900	35244	106583	0	0	8168	745930	0	0
2024-04-10 18:45:32			0	34187	0	0	0	18103	16810	152526	27485	949876	35253	106585	0	0	8168	745970	0	0
2024-04-10 18:46:32			0	34187	0	0	0	18109	16820	152490	27609	949979	35266	106587	0	0	8167	745930	0	0
2024-04-10 18:47:32			0	34162	0	0	0	18103	16810	152490	27235	949884	35254	106585	0	0	8166	747195	0	0
2024-04-10 18:48:32			0	34178	0	0	0	18096	16810	152562	27350	949910	35254	106582	0	0	8167	746411	0	0
2024-04-10 18:49:32			0	34182	0	0	0	18077	16810	152462	27072	949884	35254	106575	0	0	8168	746215	0	0
2024-04-10 18:50:32			0	34175	0	0	0	18088	16810	152478	27329	949902	35253	106579	0	0	8167	746558	0	0
2024-04-10 18:51:32			0	34191	0	0	0	18085	16800	152342	27424	949868	35253	106578	0	0	8168	745815	0	0
2024-04-10 18:52:32			0	34205	0	0	0	18085	16800	152302	27334	949815	35264	106578	0	0	8169	745130	0	0
2024-04-10 18:53:32			0	34219	0	0	0	18077	16800	152338	27543	949807	35253	106575	0	0	8170	744445	0	0
2024-04-10 18:54:32			0	34224	0	0	0	18072	16810	152334	27751	949823	35264	106573	0	0	8170	744161	0	0
2024-04-10 18:55:32			0	34234	0	0	0	18070	16800	152362	27409	949833	35243	106572	0	0	8171	743713	0	0
2024-04-10 18:56:32			0	34227	0	0	0	18075	16800	152326	27397	949789	35264	106574	0	0	8170	744054	0	0
2024-04-10 18:57:32			0	34225	0	0	0	18072	16790	152354	27229	949825	35263	106573	0	0	8170	744193	0	0
2024-04-10 18:58:32			0	34232	0	0	0	18077	16790	152306	27215	949791	35251	106575	0	0	8170	743851	0	0
2024-04-10 18:59:32			0	34240	0	0	0	18083	16790	152342	27486	949772	35274	106577	0	0	8171	743460	0	0
2024-04-10 19:00:32			0	34236	0	0	0	18072	16800	152258	27492	949807	35253	106573	0	0	8171	743615	0	0
2024-04-10 19:01:32			0	34235	0	0	0	18064	16790	152194	27718	949825	35274	106570	0	0	8171	743704	0	0
2024-04-10 19:02:32			0	34227	0	0	0	18044	16800	152246	27360	949833	35264	106562	0	0	8171	744054	0	0
2024-04-10 19:03:32			0	34256	0	0	0	18062	16800	152210	27272	949860	35264	106569	0	0	8172	742639	0	0
2024-04-10 19:04:32			0	34248	0	0	0	18062	16800	152178	27287	949780	35253	106569	0	0	8172	743029	0	0
2024-04-10 19:05:32			0	34243	0	0	0	18075	16780	152202	27157	949730	35274	106574	0	0	8171	743354	0	0
2024-04-10 19:06:32			0	34252	0	0	0	18075	16790	152110	27183	949746	35252	106574	0	0	8172	742874	0	0
2024-04-10 19:07:32			0	34245	0	0	0	18051	16790	152090	27505	949764	35274	106565	0	0	8172	743216	0	0
2024-04-10 19:08:32			0	34264	0	0	0	18049	16780	152074	27353	949756	35262	106564	0	0	8173	742329	0	0
2024-04-10 19:09:32			0	34256	0	0	0	18044	16790	152058	27353	949799	35274	106562	0	0	8172	742679	0	0
2024-04-10 19:10:32			0	34262	0	0	0	18046	16780	152070	27199	949756	35262	106563	0	0	8173	742427	0	0
2024-04-10 19:11:32			0	34282	0	0	0	18025	16780	152078	27133	949643	35251	106555	0	0	8174	741452	0	0
2024-04-10 19:12:32			0	34266	0	0	0	18015	16780	152154	27208	949695	35262	106551	0	0	8173	742232	0	0
2024-04-10 19:13:32			0	34280	0	0	0	18012	16780	152146	27111	949722	35251	106550	0	0	8174	741549	0	0
2024-04-10 19:14:32			0	34241	0	0	0	18046	16770	152158	27182	949661	35262	106563	0	0	8171	743492	0	0
2024-04-10 19:15:32			0	34243	0	0	0	18051	16770	152210	27421	949714	35273	106565	0	0	8171	743394	0	0
2024-04-10 19:16:32			0	34244	0	0	0	18054	16760	152298	27229	949618	35272	106566	0	0	8171	743385	0	0
2024-04-10 19:17:32			0	34259	0	0	0	18051	16760	152226	27483	949663	35271	106565	0	0	8172	742654	0	0
2024-04-10 19:18:32			0	34231	0	0	0	18051	16760	152178	27232	949663	35260	106565	0	0	8171	744020	0	0
2024-04-10 19:19:32			0	34246	0	0	0	18062	16770	152274	27225	949732	35272	106569	0	0	8171	743248	0	0
2024-04-10 19:20:32			0	34228	0	0	0	18059	16770	152234	27284	949706	35261	106568	0	0	8170	744127	0	0
2024-04-10 19:21:32			0	34218	0	0	0	18051	16760	152290	27443	949716	35260	106565	0	0	8170	744656	0	0
2024-04-10 19:22:32			0	34225	0	0	0	18057	16770	152262	27052	949679	35272	106567	0	0	8170	744273	0	0
2024-04-10 19:23:32			0	34252	0	0	0	18059	16760	152250	27149	949742	35271	106568	0	0	8172	742995	0	0
2024-04-10 19:24:32			0	34230	0	0	0	18075	16760	152242	27270	949716	35260	106574	0	0	8170	744069	0	0
2024-04-10 19:25:32			0	34219	0	0	0	18067	16760	152242	27345	949698	35283	106571	0	0	8170	744607	0	0
2024-04-10 19:26:32			0	34223	0	0	0	18064	16770	152246	27438	949785	35272	106570	0	0	8170	744371	0	0
2024-04-10 19:27:32			0	34221	0	0	0	18070	16760	152214	27057	949724	35272	106572	0	0	8170	744509	0	0
2024-04-10 19:28:32			0	34214	0	0	0	18075	16760	152378	27324	949777	35272	106574	0	0	8169	744851	0	0
2024-04-10 19:29:32			0	34214	0	0	0	18070	16770	152318	27107	949819	35273	106572	0	0	8169	744811	0	0
2024-04-10 19:30:32			0	34226	0	0	0	18070	16770	152446	27353	949766	35284	106572	0	0	8170	744224	0	0
2024-04-10 19:31:32			0	34214	0	0	0	18062	16760	152490	27320	949777	35283	106569	0	0	8170	744851	0	0
2024-04-10 19:32:32			0	34189	0	0	0	18064	16760	152518	27098	949750	35272	106570	0	0	8168	746074	0	0
2024-04-10 19:33:32			0	34188	0	0	0	18062	16760	152514	27505	949769	35282	106569	0	0	8168	746123	0	0
2024-04-10 19:34:32			0	34203	0	0	0	18070	16760	152454	27107	949803	35283	106572	0	0	8169	745389	0	0
2024-04-10 19:35:32			0	34180	0	0	0	18064	16770	152610	27183	949732	35293	106570	0	0	8168	746475	0	0
2024-04-10 19:36:32			0	34202	0	0	0	18051	16760	152554	27511	949777	35283	106565	0	0	8169	745438	0	0
2024-04-10 19:37:32			0	34199	0	0	0	18059	16770	152578	27376	949732	35283	106568	0	0	8169	745545	0	0
2024-04-10 19:38:32			0	34212	0	0	0	18044	16770	152414	27355	949793	35284	106562	0	0	8170	744908	0	0
2024-04-10 19:39:32			0	34233	0	0	0	18046	16760	152414	27433	949724	35293	106563	0	0	8171	743923	0	0
2024-04-10 19:40:32			0	34227	0	0	0	18025	16760	152346	27145	949698	35293	106555	0	0	8171	744216	0	0
2024-04-10 19:41:32			0	34246	0	0	0	18028	16770	152326	27365	949687	35294	106556	0	0	8172	743248	0	0
2024-04-10 19:42:32			0	34252	0	0	0	18041	16750	152250	27161	949655	35282	106561	0	0	8172	743035	0	0
2024-04-10 19:43:32			0	34251	0	0	0	18046	16760	152290	27268	949716	35282	106563	0	0	8172	743044	0	0
2024-04-10 19:44:32			0	34222	0	0	0	18049	16760	152310	27001	949716	35293	106564	0	0	8170	744460	0	0
2024-04-10 19:45:32			0	34250	0	0	0	18044	16750	152362	27171	949708	35293	106562	0	0	8172	743133	0	0
2024-04-10 19:46:32			0	34223	0	0	0	18033	16760	152474	27279	949698	35293	106558	0	0	8171	744411	0	0
2024-04-10 19:47:32			0	34232	0	0	0	18049	16740	152450	27187	949691	35291	106564	0	0	8171	744052	0	0
2024-04-10 19:48:32			0	34201	0	0	0	18049	16760	152406	27436	949689	35293	106564	0	0	8169	745487	0	0
2024-04-10 19:49:32			0	34187	0	0	0	18044	16760	152498	27518	949769	35293	106562	0	0	8168	746172	0	0
2024-04-10 19:50:32			0	34203	0	0	0	18038	16750	152490	27505	949760	35293	106560	0	0	8169	745430	0	0
2024-04-10 19:51:32			0	34201	0	0	0	18049	16760	152506	26961	949769	35304	106564	0	0	8169	745487	0	0
2024-04-10 19:52:32			0	34183	0	0	0	18062	16750	152518	27327	949708	35304	106569	0	0	8168	746409	0	0
2024-04-10 19:53:32			0	34183	0	0	0	18046	16750	152538	27260	949726	35292	106563	0	0	8168	746409	0	0
2024-04-10 19:54:32			0	34148	0	0	0	18038	16760	152538	27410	949716	35304	106560	0	0	8166	748084	0	0
2024-04-10 19:55:32			0	34184	0	0	0	18051	16750	152546	27327	949708	35304	106565	0	0	8168	746360	0	0
2024-04-10 19:56:32			0	34168	0	0	0	18054	16760	152590	27381	949750	35293	106566	0	0	8167	747103	0	0
2024-04-10 19:57:32			0	34158	0	0	0	18054	16760	152610	27197	949769	35304	106566	0	0	8166	747593	0	0
2024-04-10 19:58:32			0	34137	0	0	0	18031	16760	152722	27036	949750	35316	106557	0	0	8166	748624	0	0
2024-04-10 19:59:32			0	34149	0	0	0	18036	16760	152766	27272	949689	35304	106559	0	0	8166	748035	0	0
2024-04-10 20:00:32			0	34145	0	0	0	18041	16760	152694	27157	949716	35304	106561	0	0	8166	748231	0	0
2024-04-10 20:01:32			0	34159	0	0	0	18057	16750	152718	27235	949726	35314	106567	0	0	8166	747585	0	0
2024-04-10 20:02:32			0	34135	0	0	0	18046	16750	152778	27121	949734	35304	106563	0	0	8165	748762	0	0
2024-04-10 20:03:32			0	34146	0	0	0	18038	16760	152878	27253	949803	35316	106560	0	0	8166	748182	0	0
2024-04-10 20:04:32			0	34140	0	0	0	18038	16760	152790	27424	949742	35315	106560	0	0	8166	748476	0	0
2024-04-10 20:05:32			0	34141	0	0	0	18028	16750	152910	27163	949681	35304	106556	0	0	8166	748468	0	0
2024-04-10 20:06:32			0	34125	0	0	0	18025	16740	152894	27355	949665	35313	106555	0	0	8165	749294	0	0
2024-04-10 20:07:32			0	34123	0	0	0	18020	16740	152866	27581	949665	35313	106553	0	0	8165	749392	0	0
2024-04-10 20:08:32			0	34138	0	0	0	18012	16730	152806	27486	949675	35302	106550	0	0	8166	748696	0	0
2024-04-10 20:09:32			0	34134	0	0	0	18018	16740	152778	27514	949586	35302	106552	0	0	8166	748852	0	0
2024-04-10 20:10:32			0	34150	0	0	0	18012	16730	152722	27563	949578	35302	106550	0	0	8167	748107	0	0
2024-04-10 20:11:32			0	34152	0	0	0	18010	16730	152738	27396	949517	35324	106549	0	0	8167	748009	0	0
2024-04-10 20:12:32			0	34139	0	0	0	18015	16730	152838	27124	949630	35302	106551	0	0	8166	748647	0	0
2024-04-10 20:13:32			0	34127	0	0	0	18023	16730	152714	27429	949622	35324	106554	0	0	8165	749236	0	0
2024-04-10 20:14:32			0	34128	0	0	0	18023	16730	152786	27338	949683	35302	106554	0	0	8165	749187	0	0
2024-04-10 20:15:32			0	34126	0	0	0	18028	16730	152770	27350	949649	35313	106556	0	0	8165	749285	0	0
2024-04-10 20:16:32			0	34133	0	0	0	18025	16730	152814	27232	949622	35313	106555	0	0	8165	748942	0	0
2024-04-10 20:17:32			0	34138	0	0	0	18033	16730	152886	27365	949657	35313	106558	0	0	8166	748696	0	0
2024-04-10 20:18:32			0	34143	0	0	0	18033	16720	152806	27400	949561	35312	106558	0	0	8166	748491	0	0
2024-04-10 20:19:32			0	34125	0	0	0	18007	16720	152830	27176	949614	35334	106548	0	0	8165	749375	0	0
2024-04-10 20:20:32			0	34135	0	0	0	18020	16740	152894	27322	949665	35302	106553	0	0	8166	748803	0	0
2024-04-10 20:21:32			0	34122	0	0	0	18012	16730	152970	27159	949657	35324	106550	0	0	8165	749482	0	0
2024-04-10 20:22:32			0	34102	0	0	0	18015	16730	152950	27336	949622	35335	106551	0	0	8164	750465	0	0
2024-04-10 20:23:32			0	34097	0	0	0	18020	16730	152962	27284	949622	35335	106553	0	0	8163	750711	0	0
2024-04-10 20:24:32			0	34088	0	0	0	18023	16720	152974	27182	949667	35324	106554	0	0	8163	751195	0	0
2024-04-10 20:25:32			0	34084	0	0	0	18023	16730	153114	27027	949622	35302	106554	0	0	8163	751351	0	0
2024-04-10 20:26:32			0	34069	0	0	0	18015	16730	153122	27010	949570	35324	106551	0	0	8162	752090	0	0
2024-04-10 20:27:32			0	34082	0	0	0	18012	16730	153066	27374	949596	35335	106550	0	0	8163	751449	0	0
2024-04-10 20:28:32			0	34076	0	0	0	18007	16730	153082	27098	949596	35335	106548	0	0	8162	751745	0	0
2024-04-10 20:29:32			0	34063	0	0	0	18010	16720	153106	27377	949588	35324	106549	0	0	8162	752426	0	0
2024-04-10 20:30:32			0	34069	0	0	0	18010	16720	153110	26930	949588	35334	106549	0	0	8162	752130	0	0
2024-04-10 20:31:32			0	34100	0	0	0	17979	16730	152998	27081	949622	35313	106537	0	0	8164	750564	0	0
2024-04-10 20:32:32			0	34082	0	0	0	17994	16720	153050	27175	949614	35334	106543	0	0	8163	751490	0	0
2024-04-10 20:33:32			0	34112	0	0	0	17963	16710	152918	27384	949537	35312	106531	0	0	8165	750055	0	0
2024-04-10 20:34:32			0	34142	0	0	0	17963	16700	152870	27104	949503	35333	106531	0	0	8167	748622	0	0
2024-04-10 20:35:32			0	34141	0	0	0	17958	16710	152834	27270	949511	35312	106529	0	0	8167	748630	0	0
2024-04-10 20:36:32			0	34163	0	0	0	17958	16700	152782	26967	949476	35333	106529	0	0	8168	747591	0	0
2024-04-10 20:37:32			0	34141	0	0	0	17966	16700	152818	26937	949547	35332	106532	0	0	8167	748671	0	0
2024-04-10 20:38:32			0	34129	0	0	0	17971	16700	152786	27005	949476	35322	106534	0	0	8166	749260	0	0
2024-04-10 20:39:32			0	34139	0	0	0	17971	16700	152770	27476	949521	35343	106534	0	0	8166	748769	0	0
2024-04-10 20:40:32			0	34137	0	0	0	17984	16710	152842	27412	949564	35323	106539	0	0	8166	748826	0	0
2024-04-10 20:41:32			0	34124	0	0	0	17976	16690	152858	27502	949539	35310	106536	0	0	8165	749546	0	0
2024-04-10 20:42:32			0	34127	0	0	0	17979	16690	152894	27126	949434	35332	106537	0	0	8166	749399	0	0
2024-04-10 20:43:32			0	34131	0	0	0	17971	16690	153018	27104	949513	35310	106534	0	0	8166	749202	0	0
2024-04-10 20:44:32			0	34129	0	0	0	17966	16690	152974	27372	949513	35332	106532	0	0	8166	749300	0	0
2024-04-10 20:45:32			0	34097	0	0	0	17955	16690	152974	27197	949531	35332	106528	0	0	8164	750874	0	0
2024-04-10 20:46:32			0	34105	0	0	0	17966	16690	153046	27261	949460	35332	106532	0	0	8165	750480	0	0
2024-04-10 20:47:32			0	34116	0	0	0	17963	16680	153046	27270	949444	35342	106531	0	0	8165	749980	0	0
2024-04-10 20:48:32			0	34091	0	0	0	17968	16680	153078	27279	949462	35341	106533	0	0	8164	751210	0	0
2024-04-10 20:49:32			0	34086	0	0	0	17958	16680	153198	27538	949436	35331	106529	0	0	8164	751456	0	0
2024-04-10 20:50:32			0	34066	0	0	0	17963	16680	153254	27377	949418	35332	106531	0	0	8162	752441	0	0
2024-04-10 20:51:32			0	34062	0	0	0	17976	16680	153286	27199	949471	35342	106536	0	0	8162	752638	0	0
2024-04-10 20:52:32			0	34051	0	0	0	17953	16680	153286	27102	949497	35342	106527	0	0	8162	753181	0	0
2024-04-10 20:53:32			0	34041	0	0	0	17955	16680	153330	27265	949391	35353	106528	0	0	8161	753674	0	0
2024-04-10 20:54:32			0	34046	0	0	0	17976	16680	153370	27317	949462	35341	106536	0	0	8161	753427	0	0
2024-04-10 20:55:32			0	34040	0	0	0	17958	16690	153322	27306	949452	35332	106529	0	0	8161	753683	0	0
2024-04-10 20:56:32			0	34038	0	0	0	17950	16680	153270	27144	949436	35341	106526	0	0	8161	753822	0	0
2024-04-10 20:57:32			0	34046	0	0	0	17945	16670	153402	27060	949375	35341	106524	0	0	8161	753468	0	0
2024-04-10 20:58:32			0	34030	0	0	0	17932	16670	153354	27528	949420	35330	106519	0	0	8161	754258	0	0
2024-04-10 20:59:32			0	34031	0	0	0	17919	16660	153298	27381	949332	35330	106514	0	0	8161	754250	0	0
2024-04-10 21:00:32			0	34029	0	0	0	17924	16660	153414	27275	949359	35330	106516	0	0	8161	754348	0	0
2024-04-10 21:01:32			0	34035	0	0	0	17932	16660	153394	27403	949324	35340	106519	0	0	8161	754052	0	0
2024-04-10 21:02:32			0	34044	0	0	0	17927	16650	153374	27199	949335	35339	106517	0	0	8162	753649	0	0
2024-04-10 21:03:32			0	34041	0	0	0	17922	16650	153494	27365	949369	35350	106515	0	0	8161	753797	0	0
2024-04-10 21:04:32			0	34026	0	0	0	17942	16660	153482	27545	949324	35340	106523	0	0	8160	754497	0	0
2024-04-10 21:05:32			0	34013	0	0	0	17953	16660	153466	27701	949324	35340	106527	0	0	8159	755139	0	0
2024-04-10 21:06:32			0	34014	0	0	0	17950	16650	153670	27383	949335	35350	106526	0	0	8159	755130	0	0
2024-04-10 21:07:32			0	33995	0	0	0	17953	16660	153658	27493	949377	35351	106527	0	0	8158	756029	0	0
2024-04-10 21:08:32			0	33994	0	0	0	17942	16650	153714	27296	949335	35350	106523	0	0	8158	756120	0	0
2024-04-10 21:09:32			0	33963	0	0	0	17953	16660	153682	27284	949324	35351	106527	0	0	8156	757614	0	0
2024-04-10 21:10:32			0	33954	0	0	0	17958	16660	153798	27398	949324	35351	106529	0	0	8156	758060	0	0
2024-04-10 21:11:32			0	33952	0	0	0	17948	16650	153778	27298	949343	35339	106525	0	0	8156	758200	0	0
2024-04-10 21:12:32			0	33929	0	0	0	17948	16650	153910	27229	949335	35350	106525	0	0	8154	759341	0	0
2024-04-10 21:13:32			0	33946	0	0	0	17948	16650	153890	27405	949308	35350	106525	0	0	8155	758498	0	0
2024-04-10 21:14:32			0	33929	0	0	0	17948	16650	154038	27471	949316	35361	106525	0	0	8154	759341	0	0
2024-04-10 21:15:32			0	33913	0	0	0	17942	16650	154034	27079	949414	35350	106523	0	0	8154	760136	0	0
2024-04-10 21:16:32			0	33926	0	0	0	17942	16650	154034	27498	949316	35339	106523	0	0	8154	759490	0	0
2024-04-10 21:17:32			0	33898	0	0	0	17945	16640	154162	27445	949326	35328	106524	0	0	8153	760923	0	0
2024-04-10 21:18:32			0	33887	0	0	0	17924	16650	154038	27374	949308	35361	106516	0	0	8152	761429	0	0
2024-04-10 21:19:32			0	33896	0	0	0	17911	16640	154022	27455	949247	35360	106511	0	0	8153	761022	0	0
2024-04-10 21:20:32			0	33882	0	0	0	17916	16640	154110	27272	949292	35349	106513	0	0	8152	761719	0	0
2024-04-10 21:21:32			0	33885	0	0	0	17906	16640	154090	27291	949247	35360	106509	0	0	8153	761570	0	0
2024-04-10 21:22:32			0	33872	0	0	0	17838	16640	154090	27253	949239	35338	106483	0	0	8153	762217	0	0
2024-04-10 21:23:32			0	33873	0	0	0	17836	16630	154090	27279	949197	35359	106482	0	0	8153	762208	0	0
2024-04-10 21:24:32			0	33855	0	0	0	17883	16630	154198	27244	949144	35348	106500	0	0	8151	763105	0	0
2024-04-10 21:25:32			0	33869	0	0	0	17898	16620	154278	27357	949207	35348	106506	0	0	8152	762449	0	0
2024-04-10 21:26:32			0	33855	0	0	0	17911	16620	154314	27351	949207	35348	106511	0	0	8151	763146	0	0
2024-04-10 21:27:32			0	33838	0	0	0	17911	16610	154362	27090	949225	35358	106511	0	0	8150	764035	0	0
2024-04-10 21:28:32			0	33817	0	0	0	17911	16620	154398	27384	949241	35359	106511	0	0	8148	765042	0	0
2024-04-10 21:29:32			0	33809	0	0	0	17849	16610	154510	27232	949217	35347	106487	0	0	8149	765484	0	0
2024-04-10 21:30:32			0	33821	0	0	0	17888	16620	154522	27168	949233	35348	106502	0	0	8149	764843	0	0
2024-04-10 21:31:32			0	33788	0	0	0	17875	16620	154446	27235	949180	35359	106497	0	0	8147	766492	0	0
2024-04-10 21:32:32			0	33801	0	0	0	17805	16610	154398	27237	949138	35358	106470	0	0	8149	765883	0	0
2024-04-10 21:33:32			0	33780	0	0	0	17792	16600	154506	27111	949103	35368	106465	0	0	8148	766975	0	0
2024-04-10 21:34:32			0	33790	0	0	0	17792	16600	154534	27426	949043	35346	106465	0	0	8149	766475	0	0
2024-04-10 21:35:32			0	33762	0	0	0	17779	16590	154706	27384	949000	35345	106460	0	0	8147	767918	0	0
2024-04-10 21:36:32			0	33753	0	0	0	17768	16580	154730	27355	948931	35333	106456	0	0	8147	768411	0	0
2024-04-10 21:37:32			0	33759	0	0	0	17766	16580	154734	27187	948984	35344	106455	0	0	8147	768110	0	0
2024-04-10 21:38:32			0	33751	0	0	0	17766	16560	154794	27232	948899	35342	106455	0	0	8147	768594	0	0
2024-04-10 21:39:32			0	33774	0	0	0	17781	16550	154798	27466	948804	35352	106461	0	0	8148	767483	0	0
2024-04-10 21:40:32			0	33742	0	0	0	17802	16540	154994	27476	948840	35352	106469	0	0	8146	769129	0	0
2024-04-10 21:41:32			0	33740	0	0	0	17815	16540	154858	27118	948927	35341	106474	0	0	8145	769229	0	0
2024-04-10 21:42:32			0	33726	0	0	0	17776	16540	154866	27107	948866	35341	106459	0	0	8145	769932	0	0
2024-04-10 21:43:32			0	33747	0	0	0	17714	16530	154890	27114	948832	35330	106435	0	0	8147	768919	0	0
2024-04-10 21:44:32			0	33734	0	0	0	17812	16530	154878	27490	948850	35362	106473	0	0	8145	769572	0	0
2024-04-10 21:45:32			0	33743	0	0	0	17755	16530	154906	27036	948832	35352	106451	0	0	8146	769120	0	0
2024-04-10 21:46:32			0	33726	0	0	0	17755	16520	155026	27383	948842	35351	106451	0	0	8145	770015	0	0
2024-04-10 21:47:32			0	33724	0	0	0	17797	16520	154902	27041	948842	35351	106467	0	0	8144	770115	0	0
2024-04-10 21:48:32			0	33738	0	0	0	17825	16520	155026	27483	948842	35340	106478	0	0	8145	769413	0	0
2024-04-10 21:49:32			0	33725	0	0	0	17828	16520	154954	27301	948808	35350	106479	0	0	8144	770065	0	0
2024-04-10 21:50:32			0	33723	0	0	0	17833	16520	154922	27502	948869	35351	106481	0	0	8144	770166	0	0
2024-04-10 21:51:32			0	33713	0	0	0	17774	16520	154982	27237	948834	35339	106458	0	0	8144	770668	0	0
2024-04-10 21:52:32			0	33701	0	0	0	17831	16510	155042	27119	948852	35360	106480	0	0	8142	771313	0	0
2024-04-10 21:53:32			0	33690	0	0	0	17849	16520	155098	27654	948869	35351	106487	0	0	8142	771824	0	0
2024-04-10 21:54:32			0	33694	0	0	0	17831	16510	155178	27213	948852	35349	106480	0	0	8142	771665	0	0
2024-04-10 21:55:32			0	33687	0	0	0	17794	16520	155106	27218	948808	35372	106466	0	0	8142	771975	0	0
2024-04-10 21:56:32			0	33664	0	0	0	17825	16510	155194	27326	948879	35360	106478	0	0	8140	773175	0	0
2024-04-10 21:57:32			0	33680	0	0	0	17789	16520	155146	27059	948887	35372	106464	0	0	8142	772327	0	0
2024-04-10 21:58:32			0	33691	0	0	0	17792	16510	155198	27334	948852	35360	106465	0	0	8143	771816	0	0
2024-04-10 21:59:32			0	33678	0	0	0	17737	16510	155110	27220	948826	35338	106444	0	0	8143	772470	0	0
2024-04-10 22:00:32			0	33686	0	0	0	17719	16520	155158	27384	948755	35350	106437	0	0	8144	772026	0	0
2024-04-10 22:01:32			0	33668	0	0	0	17774	16500	155142	27254	948757	35349	106458	0	0	8141	773015	0	0
2024-04-10 22:02:32			0	33682	0	0	0	17766	16500	155214	27502	948731	35349	106455	0	0	8142	772310	0	0
2024-04-10 22:03:32			0	33671	0	0	0	17774	16500	155158	27130	948731	35360	106458	0	0	8142	772864	0	0
2024-04-10 22:04:32			0	33665	0	0	0	17792	16500	155254	27177	948802	35360	106465	0	0	8141	773166	0	0
2024-04-10 22:05:32			0	33661	0	0	0	17786	16490	155262	27137	948793	35359	106463	0	0	8141	773410	0	0
2024-04-10 22:06:32			0	33656	0	0	0	17812	16500	155266	27467	948757	35349	106473	0	0	8140	773620	0	0
2024-04-10 22:07:32			0	33672	0	0	0	17815	16490	155150	27305	948793	35359	106474	0	0	8141	772856	0	0
2024-04-10 22:08:32			0	33662	0	0	0	17792	16490	155254	27696	948785	35359	106465	0	0	8141	773360	0	0
2024-04-10 22:09:32			0	33644	0	0	0	17786	16500	155342	27112	948810	35372	106463	0	0	8140	774225	0	0
2024-04-10 22:10:32			0	33639	0	0	0	17799	16500	155314	27216	948784	35382	106468	0	0	8139	774477	0	0
2024-04-10 22:11:32			0	33640	0	0	0	17768	16510	155366	27045	948844	35360	106456	0	0	8140	774385	0	0
2024-04-10 22:12:32			0	33648	0	0	0	17789	16490	155378	27036	948767	35359	106464	0	0	8140	774065	0	0
2024-04-10 22:13:32			0	33654	0	0	0	17750	16500	155362	27388	948828	35360	106449	0	0	8141	773721	0	0
2024-04-10 22:14:32			0	33638	0	0	0	17779	16490	155426	27751	948767	35359	106460	0	0	8140	774570	0	0
2024-04-10 22:15:32			0	33628	0	0	0	17776	16490	155386	27223	948741	35359	106459	0	0	8139	775074	0	0
2024-04-10 22:16:32			0	33645	0	0	0	17732	16490	155466	27013	948793	35370	106442	0	0	8141	774216	0	0
2024-04-10 22:17:32			0	33642	0	0	0	17753	16490	155442	27164	948759	35370	106450	0	0	8140	774368	0	0
2024-04-10 22:18:32			0	33634	0	0	0	17719	16500	155314	27060	948775	35360	106437	0	0	8140	774729	0	0
2024-04-10 22:19:32			0	33639	0	0	0	17667	16480	155490	27429	948646	35370	106417	0	0	8141	774561	0	0
2024-04-10 22:20:32			0	33624	0	0	0	17636	16480	155370	27187	948637	35347	106405	0	0	8141	775318	0	0
2024-04-10 22:21:32			0	33612	0	0	0	17594	16460	155458	27436	948587	35345	106389	0	0	8141	776008	0	0
2024-04-10 22:22:32			0	33596	0	0	0	17605	16450	155526	27244	948526	35357	106393	0	0	8140	776859	0	0
2024-04-10 22:23:32			0	33601	0	0	0	17638	16430	155514	27161	948467	35355	106406	0	0	8139	776690	0	0
2024-04-10 22:24:32			0	33621	0	0	0	17651	16410	155590	27100	948382	35342	106411	0	0	8140	775763	0	0
2024-04-10 22:25:32			0	33613	0	0	0	17670	16420	155522	27235	948338	35365	106418	0	0	8140	776126	0	0
2024-04-10 22:26:32			0	33631	0	0	0	17664	16410	155510	27142	948374	35353	106416	0	0	8141	775258	0	0
2024-04-10 22:27:32			0	33626	0	0	0	17680	16400	155594	27381	948393	35352	106422	0	0	8140	775552	0	0
2024-04-10 22:28:32			0	33623	0	0	0	17581	16410	155494	27284	948435	35353	106384	0	0	8142	775662	0	0
2024-04-10 22:29:32			0	33571	0	0	0	17524	16400	155658	27274	948366	35352	106362	0	0	8140	778335	0	0
2024-04-10 22:30:32			0	33527	0	0	0	17511	16380	155929	27256	948176	35329	106357	0	0	8137	780650	0	0
2024-04-10 22:31:32			0	33495	0	0	0	17524	16370	156201	27272	948160	35350	106362	0	0	8135	782319	0	0
2024-04-10 22:32:32			0	33464	0	0	0	17506	16360	156217	27187	948109	35337	106355	0	0	8133	783939	0	0
2024-04-10 22:33:32			0	33432	0	0	0	17420	16350	156357	27538	948074	35337	106322	0	0	8133	785614	0	0
2024-04-10 22:34:32			0	33423	0	0	0	17379	16330	156521	27391	947955	35346	106306	0	0	8133	786158	0	0
2024-04-10 22:35:32			0	33414	0	0	0	17407	16310	156585	27201	947817	35312	106317	0	0	8132	786703	0	0
2024-04-10 22:36:32			0	33393	0	0	0	17418	16290	156517	27452	947759	35310	106321	0	0	8130	787862	0	0
2024-04-10 22:37:32			0	33384	0	0	0	17420	16270	156573	27256	947761	35331	106322	0	0	8130	788408	0	0
2024-04-10 22:38:32			0	33392	0	0	0	17397	16270	156629	27003	947726	35331	106313	0	0	8130	787998	0	0
2024-04-10 22:39:32			0	33405	0	0	0	17358	16250	156605	27315	947589	35328	106298	0	0	8132	787418	0	0
2024-04-10 22:40:32			0	33390	0	0	0	17340	16240	156625	27267	947607	35317	106291	0	0	8131	788228	0	0
2024-04-10 22:41:32			0	33387	0	0	0	17340	16220	156813	26857	947461	35316	106291	0	0	8131	788467	0	0
2024-04-10 22:42:32			0	33384	0	0	0	17345	16210	156705	27287	947524	35314	106293	0	0	8131	788663	0	0
2024-04-10 22:43:32			0	33368	0	0	0	17366	16190	156857	26974	947447	35325	106301	0	0	8129	789568	0	0
2024-04-10 22:44:32			0	33378	0	0	0	17345	16200	156833	26972	947481	35325	106293	0	0	8130	789013	0	0
2024-04-10 22:45:32			0	33369	0	0	0	17353	16190	156805	27085	947492	35324	106296	0	0	8129	789517	0	0
2024-04-10 22:46:32			0	33375	0	0	0	17374	16190	156817	26908	947465	35324	106304	0	0	8129	789209	0	0
2024-04-10 22:47:32			0	33375	0	0	0	17366	16170	156921	27055	947467	35323	106301	0	0	8129	789295	0	0
2024-04-10 22:48:32			0	33380	0	0	0	17353	16170	156901	27164	947415	35323	106296	0	0	8130	789038	0	0
2024-04-10 22:49:32			0	33358	0	0	0	17322	16150	156941	27281	947364	35333	106284	0	0	8129	790251	0	0
2024-04-10 22:50:32			0	33351	0	0	0	17309	16150	156893	27424	947338	35333	106279	0	0	8129	790610	0	0
2024-04-10 22:51:32			0	33329	0	0	0	17340	16140	157109	27211	947243	35321	106291	0	0	8127	791783	0	0
2024-04-10 22:52:32			0	33349	0	0	0	17322	16130	157129	27235	947297	35319	106284	0	0	8128	790799	0	0
2024-04-10 22:53:32			0	33334	0	0	0	17277	16120	157113	26894	947228	35318	106267	0	0	8128	791612	0	0
2024-04-10 22:54:32			0	33297	0	0	0	17236	16100	157049	26955	947125	35306	106251	0	0	8127	793600	0	0
2024-04-10 22:55:32			0	33280	0	0	0	17223	16100	157357	27024	947117	35306	106246	0	0	8126	794475	0	0
2024-04-10 22:56:32			0	33261	0	0	0	17215	16070	157473	27112	946892	35315	106243	0	0	8125	795583	0	0
2024-04-10 22:57:32			0	33250	0	0	0	17207	16050	157533	27154	946886	35291	106240	0	0	8124	796237	0	0
2024-04-10 22:58:32			0	33244	0	0	0	17223	16050	157509	27171	946878	35302	106246	0	0	8123	796547	0	0
2024-04-10 22:59:32			0	33283	0	0	0	17218	16040	157461	27222	946897	35323	106244	0	0	8126	794578	0	0
2024-04-10 23:00:32			0	33293	0	0	0	17210	16030	157417	27100	946854	35311	106241	0	0	8126	794106	0	0
2024-04-10 23:01:32			0	33287	0	0	0	17202	16030	157361	27303	946820	35311	106238	0	0	8126	794415	0	0
2024-04-10 23:02:32			0	33287	0	0	0	17187	16010	157385	27282	946735	35299	106232	0	0	8126	794501	0	0
2024-04-10 23:03:32			0	33302	0	0	0	17194	16000	157473	27225	946727	35309	106235	0	0	8127	793771	0	0
2024-04-10 23:04:32			0	33293	0	0	0	17192	15990	157457	27293	946684	35319	106234	0	0	8127	794277	0	0
2024-04-10 23:05:32			0	33293	0	0	0	17194	15980	157465	27118	946686	35307	106235	0	0	8127	794320	0	0
2024-04-10 23:06:32			0	33320	0	0	0	17207	15970	157333	27059	946678	35318	106240	0	0	8128	792973	0	0
2024-04-10 23:07:32			0	33328	0	0	0	17202	15960	157337	27209	946662	35306	106238	0	0	8128	792604	0	0
2024-04-10 23:08:32			0	33357	0	0	0	17192	15960	157245	27156	946609	35306	106234	0	0	8130	791114	0	0
2024-04-10 23:09:32			0	33371	0	0	0	17187	15970	157081	27594	946591	35295	106232	0	0	8131	790352	0	0
2024-04-10 23:10:32			0	33367	0	0	0	17184	15960	157061	27326	946575	35316	106231	0	0	8131	790600	0	0
2024-04-10 23:11:32			0	33393	0	0	0	17171	15950	157265	27410	946559	35304	106226	0	0	8133	789309	0	0
2024-04-10 23:12:32			0	33339	0	0	0	17163	15940	157289	27526	946498	35304	106223	0	0	8130	792124	0	0
2024-04-10 23:13:32			0	33323	0	0	0	17158	15930	157397	27417	946553	35303	106221	0	0	8129	792989	0	0
2024-04-10 23:14:32			0	33328	0	0	0	17161	15930	157417	27150	946474	35314	106222	0	0	8129	792732	0	0
2024-04-10 23:15:32			0	33299	0	0	0	17161	15930	157457	27124	946474	35314	106222	0	0	8127	794225	0	0
2024-04-10 23:16:32			0	33285	0	0	0	17150	15910	157513	27346	946450	35312	106218	0	0	8126	795032	0	0
2024-04-10 23:17:32			0	33301	0	0	0	17148	15910	157485	27239	946450	35301	106217	0	0	8127	794208	0	0
2024-04-10 23:18:32			0	33290	0	0	0	17155	15900	157417	26989	946434	35301	106220	0	0	8127	794817	0	0
2024-04-10 23:19:32			0	33280	0	0	0	17158	15900	157697	27239	946399	35300	106221	0	0	8126	795333	0	0
2024-04-10 23:20:32			0	33308	0	0	0	17155	15900	157545	27398	946425	35300	106220	0	0	8128	793890	0	0
2024-04-10 23:21:32			0	33344	0	0	0	17158	15900	157377	27407	946478	35311	106221	0	0	8130	792037	0	0
2024-04-10 23:22:32			0	33352	0	0	0	17150	15890	157269	27390	946383	35322	106218	0	0	8130	791669	0	0
2024-04-10 23:23:32			0	33382	0	0	0	17148	15890	157093	27291	946444	35311	106217	0	0	8132	790129	0	0
2024-04-10 23:24:32			0	33391	0	0	0	17155	15890	157081	27296	946383	35311	106220	0	0	8133	789667	0	0
2024-04-10 23:25:32			0	33414	0	0	0	17153	15890	157041	27142	946436	35311	106219	0	0	8134	788488	0	0
2024-04-10 23:26:32			0	33397	0	0	0	17161	15890	157085	27007	946365	35311	106222	0	0	8133	789359	0	0
2024-04-10 23:27:32			0	33403	0	0	0	17155	15880	157193	27189	946393	35310	106220	0	0	8133	789094	0	0
2024-04-10 23:28:32			0	33412	0	0	0	17174	15880	157065	26977	946341	35321	106227	0	0	8133	788633	0	0
2024-04-10 23:29:32			0	33398	0	0	0	17174	15880	157057	27015	946375	35311	106227	0	0	8133	789351	0	0
2024-04-10 23:30:32			0	33415	0	0	0	17168	15880	157113	27223	946420	35321	106225	0	0	8134	788480	0	0
2024-04-10 23:31:32			0	33410	0	0	0	17189	15890	157057	27163	946444	35333	106233	0	0	8133	788693	0	0
2024-04-10 23:32:32			0	33410	0	0	0	17181	15880	157169	27093	946446	35321	106230	0	0	8133	788736	0	0
2024-04-10 23:33:32			0	33421	0	0	0	17187	15890	157077	27072	946462	35322	106232	0	0	8134	788130	0	0
2024-04-10 23:34:32			0	33418	0	0	0	17189	15880	157077	27336	946454	35333	106233	0	0	8134	788326	0	0
2024-04-10 23:35:32			0	33413	0	0	0	17199	15880	157101	27253	946446	35321	106237	0	0	8133	788582	0	0
2024-04-10 23:36:32			0	33413	0	0	0	17187	15880	157001	27170	946480	35333	106232	0	0	8133	788582	0	0
2024-04-10 23:37:32			0	33413	0	0	0	17199	15890	156997	27130	946436	35333	106237	0	0	8133	788540	0	0
2024-04-10 23:38:32			0	33407	0	0	0	17194	15890	157133	27265	946470	35333	106235	0	0	8133	788847	0	0
2024-04-10 23:39:32			0	33415	0	0	0	17205	15890	157105	27421	946462	35333	106239	0	0	8133	788437	0	0
2024-04-10 23:40:32			0	33403	0	0	0	17192	15890	157113	27322	946496	35343	106234	0	0	8133	789052	0	0
2024-04-10 23:41:32			0	33390	0	0	0	17192	15900	157053	27345	946504	35333	106234	0	0	8132	789676	0	0
2024-04-10 23:42:32			0	33401	0	0	0	17202	15890	157125	27289	946444	35343	106238	0	0	8132	789154	0	0
2024-04-10 23:43:32			0	33407	0	0	0	17218	15900	157197	27369	946513	35345	106244	0	0	8133	788804	0	0
2024-04-10 23:44:32			0	33414	0	0	0	17212	15900	157085	27251	946504	35333	106242	0	0	8133	788446	0	0
2024-04-10 23:45:32			0	33421	0	0	0	17207	15900	157141	27364	946504	35344	106240	0	0	8134	788087	0	0
2024-04-10 23:46:32			0	33443	0	0	0	17210	15900	157045	27410	946504	35333	106241	0	0	8135	786962	0	0
2024-04-10 23:47:32			0	33435	0	0	0	17215	15900	156937	27419	946565	35345	106243	0	0	8134	787371	0	0
2024-04-10 23:48:32			0	33389	0	0	0	17199	15900	157061	27199	946513	35333	106237	0	0	8132	789727	0	0
2024-04-10 23:49:32			0	33369	0	0	0	17197	15910	157141	27222	946521	35333	106236	0	0	8131	790711	0	0
2024-04-10 23:50:32			0	33339	0	0	0	17199	15900	157425	27433	946504	35344	106237	0	0	8129	792295	0	0
2024-04-10 23:51:32			0	33314	0	0	0	17202	15910	157525	27253	946573	35345	106238	0	0	8127	793538	0	0
2024-04-10 23:52:32			0	33310	0	0	0	17218	15910	157653	27215	946555	35356	106244	0	0	8127	793744	0	0
2024-04-10 23:53:32			0	33306	0	0	0	17205	15900	157625	27100	946486	35333	106239	0	0	8127	793993	0	0
2024-04-10 23:54:32			0	33294	0	0	0	17220	15900	157653	27003	946531	35344	106245	0	0	8126	794611	0	0
2024-04-10 23:55:32			0	33288	0	0	0	17215	15920	157561	27111	946545	35357	106243	0	0	8126	794835	0	0
2024-04-10 23:56:32			0	33317	0	0	0	17228	15920	157457	27287	946537	35334	106248	0	0	8127	793341	0	0
2024-04-10 23:57:32			0	33323	0	0	0	17212	15930	157353	27332	946606	35346	106242	0	0	8128	792989	0	0
2024-04-10 23:58:32			0	33333	0	0	0	17223	15910	157341	27287	946600	35345	106246	0	0	8128	792560	0	0
2024-04-10 23:59:32			0	33362	0	0	0	17228	15900	157341	27436	946557	35355	106248	0	0	8130	791113	0	0
2024-04-11 00:00:32			0	33359	0	0	0	17233	15900	157345	26939	946618	35345	106250	0	0	8129	791267	0	0
2024-04-11 00:01:32			0	33356	0	0	0	17228	15910	157417	27071	946608	35367	106248	0	0	8129	791378	0	0
2024-04-11 00:02:32			0	33344	0	0	0	17236	15930	157485	27088	946632	35346	106251	0	0	8129	791909	0	0
2024-04-11 00:03:32			0	33331	0	0	0	17241	15910	157461	27232	946634	35356	106253	0	0	8128	792663	0	0
2024-04-11 00:04:32			0	33347	0	0	0	17244	15930	157341	27147	946685	35357	106254	0	0	8129	791755	0	0
2024-04-11 00:05:32			0	33346	0	0	0	17238	15930	157433	27067	946632	35368	106252	0	0	8129	791807	0	0
2024-04-11 00:06:32			0	33352	0	0	0	17233	15930	157381	26925	946640	35357	106250	0	0	8129	791498	0	0
2024-04-11 00:07:32			0	33369	0	0	0	17244	15930	157329	27379	946587	35357	106254	0	0	8130	790625	0	0
2024-04-11 00:08:32			0	33351	0	0	0	17241	15930	157237	27216	946640	35357	106253	0	0	8129	791550	0	0
2024-04-11 00:09:32			0	33394	0	0	0	17249	15930	157273	27445	946632	35368	106256	0	0	8131	789343	0	0
2024-04-11 00:10:32			0	33381	0	0	0	17241	15940	157265	27422	946727	35347	106253	0	0	8131	789967	0	0
2024-04-11 00:11:32			0	33383	0	0	0	17254	15930	157245	27545	946719	35357	106258	0	0	8131	789907	0	0
2024-04-11 00:12:32			0	33391	0	0	0	17259	15930	157201	27388	946666	35368	106260	0	0	8131	789497	0	0
2024-04-11 00:13:32			0	33368	0	0	0	17262	15940	157209	27100	946727	35347	106261	0	0	8130	790634	0	0
2024-04-11 00:14:32			0	33387	0	0	0	17254	15940	157169	27312	946682	35359	106258	0	0	8131	789659	0	0
2024-04-11 00:15:32			0	33377	0	0	0	17257	15940	157165	27499	946735	35370	106259	0	0	8130	790172	0	0
2024-04-11 00:16:32			0	33387	0	0	0	17275	15950	157149	27130	946690	35370	106266	0	0	8131	789617	0	0
2024-04-11 00:17:32			0	33401	0	0	0	17288	15950	157165	27277	946778	35371	106271	0	0	8131	788899	0	0
2024-04-11 00:18:32			0	33387	0	0	0	17283	15960	157069	27362	946759	35360	106269	0	0	8131	789574	0	0
2024-04-11 00:19:32			0	33406	0	0	0	17280	15960	157069	27126	946759	35371	106268	0	0	8132	788601	0	0
2024-04-11 00:20:32			0	33410	0	0	0	17280	15960	156989	27029	946759	35392	106268	0	0	8132	788396	0	0
2024-04-11 00:21:32			0	33414	0	0	0	17272	15970	157053	27088	946775	35382	106265	0	0	8132	788148	0	0
2024-04-11 00:22:32			0	33387	0	0	0	17283	15960	157005	27455	946820	35372	106269	0	0	8131	789574	0	0
2024-04-11 00:23:32			0	33392	0	0	0	17275	15960	157005	27326	946794	35372	106266	0	0	8131	789318	0	0
2024-04-11 00:24:32			0	33390	0	0	0	17272	15970	156989	27424	946802	35382	106265	0	0	8131	789378	0	0
2024-04-11 00:25:32			0	33381	0	0	0	17277	15970	157109	27696	946828	35382	106267	0	0	8130	789839	0	0
2024-04-11 00:26:32			0	33361	0	0	0	17285	15970	157133	27319	946810	35372	106270	0	0	8129	790865	0	0
2024-04-11 00:27:32			0	33375	0	0	0	17283	15970	157237	27306	946802	35382	106269	0	0	8130	790147	0	0
2024-04-11 00:28:32			0	33385	0	0	0	17296	15980	157141	27121	946844	35382	106274	0	0	8130	789592	0	0
2024-04-11 00:29:32			0	33410	0	0	0	17293	15970	156973	27289	946854	35372	106273	0	0	8132	788353	0	0
2024-04-11 00:30:32			0	33431	0	0	0	17303	15980	156913	27163	946844	35382	106277	0	0	8133	787236	0	0
2024-04-11 00:31:32			0	33467	0	0	0	17301	15980	156781	27272	946844	35405	106276	0	0	8135	785396	0	0
2024-04-11 00:32:32			0	33486	0	0	0	17306	15980	156549	27102	946879	35373	106278	0	0	8136	784427	0	0
2024-04-11 00:33:32			0	33505	0	0	0	17311	15980	156573	27121	946879	35383	106280	0	0	8137	783458	0	0
2024-04-11 00:34:32			0	33494	0	0	0	17309	15990	156461	27111	946939	35374	106279	0	0	8137	783977	0	0
2024-04-11 00:35:32			0	33510	0	0	0	17316	15990	156481	27498	946887	35395	106282	0	0	8137	783162	0	0
2024-04-11 00:36:32			0	33531	0	0	0	17314	16000	156513	27350	946929	35384	106281	0	0	8139	782050	0	0
2024-04-11 00:37:32			0	33502	0	0	0	17324	16000	156513	27194	946955	35384	106285	0	0	8137	783527	0	0
2024-04-11 00:38:32			0	33497	0	0	0	17316	16000	156509	27071	947043	35385	106282	0	0	8137	783781	0	0
2024-04-11 00:39:32			0	33504	0	0	0	17316	16000	156541	27383	946929	35395	106282	0	0	8137	783425	0	0
2024-04-11 00:40:32			0	33473	0	0	0	17329	16000	156697	27173	946964	35385	106287	0	0	8135	785005	0	0
2024-04-11 00:41:32			0	33464	0	0	0	17327	16000	156805	27100	946982	35406	106286	0	0	8135	785465	0	0
2024-04-11 00:42:32			0	33427	0	0	0	17327	16000	156965	27301	947008	35406	106286	0	0	8132	787356	0	0
2024-04-11 00:43:32			0	33367	0	0	0	17335	16000	157121	27352	947016	35385	106289	0	0	8129	790430	0	0
2024-04-11 00:44:32			0	33361	0	0	0	17337	16010	157313	27190	946919	35408	106290	0	0	8128	790695	0	0
2024-04-11 00:45:32			0	33321	0	0	0	17342	16010	157497	27580	947059	35397	106292	0	0	8126	792750	0	0
2024-04-11 00:46:32			0	33252	0	0	0	17350	16020	157793	27341	947049	35386	106295	0	0	8122	796263	0	0
2024-04-11 00:47:32			0	33234	0	0	0	17361	16020	157949	27229	947049	35409	106299	0	0	8120	797192	0	0
2024-04-11 00:48:32			0	33200	0	0	0	17358	16020	158021	27367	947128	35397	106298	0	0	8118	798951	0	0
2024-04-11 00:49:32			0	33169	0	0	0	17358	16020	158173	27379	947049	35397	106298	0	0	8116	800557	0	0
2024-04-11 00:50:32			0	33153	0	0	0	17353	16030	158305	27322	947110	35398	106296	0	0	8116	801344	0	0
2024-04-11 00:51:32			0	33122	0	0	0	17361	16030	158321	27201	947057	35409	106299	0	0	8114	802954	0	0
2024-04-11 00:52:32			0	33115	0	0	0	17371	16040	158477	27064	947126	35399	106303	0	0	8113	803274	0	0
2024-04-11 00:53:32			0	33141	0	0	0	17376	16040	158373	27098	947186	35410	106305	0	0	8115	801923	0	0
2024-04-11 00:54:32			0	33172	0	0	0	17376	16040	158205	27109	947152	35410	106305	0	0	8116	800315	0	0
2024-04-11 00:55:32			0	33178	0	0	0	17381	16050	158061	27093	947168	35400	106307	0	0	8117	799961	0	0
2024-04-11 00:56:32			0	33190	0	0	0	17381	16040	158021	27088	947160	35410	106307	0	0	8117	799383	0	0
2024-04-11 00:57:32			0	33220	0	0	0	17386	16050	157889	27310	947115	35421	106309	0	0	8119	797787	0	0
2024-04-11 00:58:32			0	33249	0	0	0	17379	16050	157781	27178	947176	35400	106306	0	0	8121	796289	0	0
2024-04-11 00:59:32			0	33277	0	0	0	17379	16060	157657	27500	947184	35422	106306	0	0	8123	794801	0	0
2024-04-11 01:00:32			0	33315	0	0	0	17379	16050	157489	27386	947203	35400	106306	0	0	8125	792888	0	0
2024-04-11 01:01:32			0	33344	0	0	0	17381	16050	157325	27196	947150	35432	106307	0	0	8127	791397	0	0
2024-04-11 01:02:32			0	33353	0	0	0	17376	16060	157229	27206	947298	35412	106305	0	0	8127	790892	0	0
2024-04-11 01:03:32			0	33391	0	0	0	17374	16060	157041	27192	947192	35433	106304	0	0	8130	788943	0	0
2024-04-11 01:04:32			0	33401	0	0	0	17384	16070	157081	27512	947261	35423	106308	0	0	8130	788389	0	0
2024-04-11 01:05:32			0	33367	0	0	0	17379	16060	157049	27157	947166	35433	106306	0	0	8128	790174	0	0
2024-04-11 01:06:32			0	33369	0	0	0	17376	16070	157045	27507	947235	35423	106305	0	0	8128	790028	0	0
2024-04-11 01:07:32			0	33366	0	0	0	17371	16060	157073	27313	947184	35422	106303	0	0	8128	790225	0	0
2024-04-11 01:08:32			0	33387	0	0	0	17376	16070	157089	27281	947174	35423	106305	0	0	8129	789106	0	0
2024-04-11 01:09:32			0	33397	0	0	0	17371	16070	157101	27441	947227	35423	106303	0	0	8130	788593	0	0
2024-04-11 01:10:32			0	33425	0	0	0	17379	16060	156929	27260	947184	35412	106306	0	0	8132	787203	0	0
2024-04-11 01:11:32			0	33443	0	0	0	17374	16060	156709	27360	947192	35412	106304	0	0	8133	786283	0	0
2024-04-11 01:12:32			0	33461	0	0	0	17376	16070	156705	26977	947227	35434	106305	0	0	8134	785321	0	0
2024-04-11 01:13:32			0	33435	0	0	0	17376	16070	156693	27279	947227	35423	106305	0	0	8132	786649	0	0
2024-04-11 01:14:32			0	33437	0	0	0	17366	16070	156809	27486	947200	35413	106301	0	0	8133	786547	0	0
2024-04-11 01:15:32			0	33476	0	0	0	17376	16070	156597	27182	947148	35434	106305	0	0	8135	784556	0	0
2024-04-11 01:16:32			0	33498	0	0	0	17376	16080	156649	27353	947243	35423	106305	0	0	8136	783392	0	0
2024-04-11 01:17:32			0	33509	0	0	0	17379	16060	156533	27604	947192	35433	106306	0	0	8137	782917	0	0
2024-04-11 01:18:32			0	33535	0	0	0	17371	16060	156409	27372	947219	35422	106303	0	0	8138	781594	0	0
2024-04-11 01:19:32			0	33551	0	0	0	17371	16080	156245	27095	947269	35435	106303	0	0	8139	780697	0	0
2024-04-11 01:20:32			0	33567	0	0	0	17368	16070	156205	27098	947200	35434	106302	0	0	8140	779926	0	0
2024-04-11 01:21:32			0	33549	0	0	0	17366	16070	156257	27336	947253	35434	106301	0	0	8139	780840	0	0
2024-04-11 01:22:32			0	33557	0	0	0	17363	16060	156213	27303	947166	35444	106300	0	0	8140	780476	0	0
2024-04-11 01:23:32			0	33537	0	0	0	17368	16070	156225	27438	947235	35446	106302	0	0	8139	781450	0	0
2024-04-11 01:24:32			0	33542	0	0	0	17361	16070	156217	27438	947235	35435	106299	0	0	8139	781196	0	0
2024-04-11 01:25:32			0	33555	0	0	0	17358	16060	156345	27140	947271	35433	106298	0	0	8140	780578	0	0
2024-04-11 01:26:32			0	33534	0	0	0	17353	16060	156353	27001	947166	35444	106296	0	0	8139	781645	0	0
2024-04-11 01:27:32			0	33549	0	0	0	17363	16060	156273	27057	947219	35433	106300	0	0	8139	780882	0	0
2024-04-11 01:28:32			0	33553	0	0	0	17355	16060	156233	27126	947219	35455	106297	0	0	8140	780679	0	0
2024-04-11 01:29:32			0	33592	0	0	0	17361	16060	156182	27448	947192	35433	106299	0	0	8142	778700	0	0
2024-04-11 01:30:32			0	33588	0	0	0	17358	16070	156034	27312	947148	35434	106298	0	0	8142	778861	0	0
2024-04-11 01:31:32			0	33602	0	0	0	17353	16070	156114	27083	947200	35445	106296	0	0	8143	778151	0	0
2024-04-11 01:32:32			0	33612	0	0	0	17358	16060	156134	27118	947184	35444	106298	0	0	8143	777687	0	0
2024-04-11 01:33:32			0	33599	0	0	0	17355	16060	156082	27022	947192	35422	106297	0	0	8142	778345	0	0
2024-04-11 01:34:32			0	33636	0	0	0	17353	16070	155926	27092	947174	35445	106296	0	0	8145	776430	0	0
2024-04-11 01:35:32			0	33633	0	0	0	17355	16060	155938	27072	947158	35444	106297	0	0	8144	776624	0	0
2024-04-11 01:36:32			0	33635	0	0	0	17363	16060	156002	27293	947184	35444	106300	0	0	8144	776523	0	0
2024-04-11 01:37:32			0	33646	0	0	0	17355	16060	155958	27298	947158	35444	106297	0	0	8145	775967	0	0
2024-04-11 01:38:32			0	33646	0	0	0	17350	16060	155886	27123	947158	35444	106295	0	0	8145	775967	0	0
2024-04-11 01:39:32			0	33648	0	0	0	17348	16060	155770	27486	947166	35433	106294	0	0	8145	775866	0	0
2024-04-11 01:40:32			0	33642	0	0	0	17345	16060	155918	27201	947158	35433	106293	0	0	8145	776169	0	0
2024-04-11 01:41:32			0	33650	0	0	0	17340	16050	155902	27412	947168	35454	106291	0	0	8146	775806	0	0
2024-04-11 01:42:32			0	33651	0	0	0	17340	16060	155814	27426	947079	35444	106291	0	0	8146	775714	0	0
2024-04-11 01:43:32			0	33660	0	0	0	17340	16060	155834	26970	947184	35433	106291	0	0	8146	775259	0	0
2024-04-11 01:44:32			0	33679	0	0	0	17345	16050	155894	27251	947115	35443	106293	0	0	8147	774342	0	0
2024-04-11 01:45:32			0	33703	0	0	0	17353	16050	155734	27218	947176	35454	106296	0	0	8148	773131	0	0
2024-04-11 01:46:32			0	33707	0	0	0	17342	16050	155746	27256	947097	35432	106292	0	0	8149	772930	0	0
2024-04-11 01:47:32			0	33723	0	0	0	17353	16050	155618	27206	947123	35465	106296	0	0	8150	772124	0	0
2024-04-11 01:48:32			0	33724	0	0	0	17345	16040	155542	27260	947134	35454	106293	0	0	8150	772115	0	0
2024-04-11 01:49:32			0	33741	0	0	0	17348	16050	155466	27140	947168	35443	106294	0	0	8151	771218	0	0
2024-04-11 01:50:32			0	33747	0	0	0	17350	16050	155462	27345	947142	35454	106295	0	0	8151	770916	0	0
2024-04-11 01:51:32			0	33755	0	0	0	17353	16040	155470	27175	947134	35454	106296	0	0	8152	770556	0	0
2024-04-11 01:52:32			0	33788	0	0	0	17348	16040	155330	27256	947081	35454	106294	0	0	8154	768898	0	0
2024-04-11 01:53:32			0	33782	0	0	0	17350	16050	155394	26944	947142	35443	106295	0	0	8153	769158	0	0
2024-04-11 01:54:32			0	33776	0	0	0	17348	16050	155318	27287	947063	35454	106294	0	0	8153	769459	0	0
2024-04-11 01:55:32			0	33776	0	0	0	17353	16050	155274	27500	947097	35443	106296	0	0	8153	769459	0	0
2024-04-11 01:56:32			0	33789	0	0	0	17358	16050	155410	27138	947168	35454	106298	0	0	8153	768807	0	0
2024-04-11 01:57:32			0	33799	0	0	0	17361	16050	155306	26993	947115	35454	106299	0	0	8154	768305	0	0
2024-04-11 01:58:32			0	33786	0	0	0	17329	16050	155222	27131	947115	35465	106287	0	0	8154	768957	0	0
2024-04-11 01:59:32			0	33751	0	0	0	17348	16050	155350	27145	947203	35443	106294	0	0	8151	770715	0	0
2024-04-11 02:00:32			0	33737	0	0	0	17337	16050	155502	27086	947123	35443	106290	0	0	8151	771419	0	0
2024-04-11 02:01:32			0	33739	0	0	0	17345	16040	155610	27474	947160	35464	106293	0	0	8151	771360	0	0
2024-04-11 02:02:32			0	33717	0	0	0	17345	16050	155594	27194	947194	35465	106293	0	0	8149	772426	0	0
2024-04-11 02:03:32			0	33716	0	0	0	17361	16050	155598	27171	947142	35454	106299	0	0	8149	772476	0	0
2024-04-11 02:04:32			0	33711	0	0	0	17348	16040	155618	27419	947186	35464	106294	0	0	8149	772770	0	0
2024-04-11 02:05:32			0	33707	0	0	0	17355	16040	155622	27344	947126	35464	106297	0	0	8149	772971	0	0
2024-04-11 02:06:32			0	33692	0	0	0	17350	16030	155650	27202	947118	35453	106295	0	0	8148	773769	0	0
2024-04-11 02:07:32			0	33690	0	0	0	17345	16050	155678	27341	947176	35454	106293	0	0	8148	773787	0	0
2024-04-11 02:08:32			0	33707	0	0	0	17355	16050	155674	27511	947142	35454	106297	0	0	8149	772930	0	0
2024-04-11 02:09:32			0	33697	0	0	0	17353	16040	155758	27538	947160	35464	106296	0	0	8148	773476	0	0
2024-04-11 02:10:32			0	33708	0	0	0	17353	16040	155794	27632	947134	35454	106296	0	0	8149	772921	0	0
2024-04-11 02:11:32			0	33695	0	0	0	17358	16050	155742	27204	947168	35454	106298	0	0	8148	773535	0	0
2024-04-11 02:12:32			0	33716	0	0	0	17355	16040	155774	27412	947160	35454	106297	0	0	8149	772518	0	0
2024-04-11 02:13:32			0	33690	0	0	0	17350	16040	155846	27621	947186	35464	106295	0	0	8148	773829	0	0
2024-04-11 02:14:32			0	33688	0	0	0	17361	16050	155730	27507	947176	35476	106299	0	0	8147	773888	0	0
2024-04-11 02:15:32			0	33679	0	0	0	17335	16050	155834	27213	947142	35465	106289	0	0	8147	774342	0	0
2024-04-11 02:16:32			0	33631	0	0	0	17335	16050	155930	27310	947194	35465	106289	0	0	8145	776767	0	0
2024-04-11 02:17:32			0	33602	0	0	0	17332	16050	156118	27331	947168	35465	106288	0	0	8143	778235	0	0
2024-04-11 02:18:32			0	33585	0	0	0	17335	16040	156186	27189	947047	35454	106289	0	0	8142	779139	0	0
2024-04-11 02:19:32			0	33600	0	0	0	17337	16040	156178	27185	947126	35464	106290	0	0	8143	778379	0	0
2024-04-11 02:20:32			0	33596	0	0	0	17348	16030	156258	27135	947144	35474	106294	0	0	8142	778623	0	0
2024-04-11 02:21:32			0	33607	0	0	0	17353	16040	156186	27015	947160	35464	106296	0	0	8143	778024	0	0
2024-04-11 02:22:32			0	33610	0	0	0	17335	16020	156162	27064	947154	35462	106289	0	0	8143	777956	0	0
2024-04-11 02:23:32			0	33589	0	0	0	17340	16040	156138	26913	947152	35464	106291	0	0	8142	778936	0	0
2024-04-11 02:24:32			0	33593	0	0	0	17324	16040	156234	27201	947134	35464	106285	0	0	8142	778733	0	0
2024-04-11 02:25:32			0	33583	0	0	0	17309	16030	156134	27481	947091	35474	106279	0	0	8142	779282	0	0
2024-04-11 02:26:32			0	33586	0	0	0	17296	16030	156190	27322	947065	35474	106274	0	0	8142	779130	0	0
2024-04-11 02:27:32			0	33591	0	0	0	17309	16020	156270	27331	947075	35462	106279	0	0	8142	778919	0	0
2024-04-11 02:28:32			0	33593	0	0	0	17316	16020	156190	27469	947022	35473	106282	0	0	8142	778818	0	0
2024-04-11 02:29:32			0	33609	0	0	0	17301	16020	156234	26979	947075	35452	106276	0	0	8144	778007	0	0
2024-04-11 02:30:32			0	33616	0	0	0	17296	16020	156070	27371	947014	35462	106274	0	0	8144	777652	0	0
2024-04-11 02:31:32			0	33630	0	0	0	17293	16020	156102	27161	947022	35462	106273	0	0	8145	776943	0	0
2024-04-11 02:32:32			0	33616	0	0	0	17309	16010	156166	27422	947051	35461	106279	0	0	8144	777694	0	0
2024-04-11 02:33:32			0	33622	0	0	0	17309	16010	156026	27235	947059	35495	106279	0	0	8144	777390	0	0
2024-04-11 02:34:32			0	33638	0	0	0	17319	16010	156134	27312	947006	35473	106283	0	0	8145	776581	0	0
2024-04-11 02:35:32			0	33649	0	0	0	17324	16000	155910	27320	946990	35461	106285	0	0	8146	776066	0	0
2024-04-11 02:36:32			0	33649	0	0	0	17322	16020	156034	27263	947014	35473	106284	0	0	8146	775983	0	0
2024-04-11 02:37:32			0	33655	0	0	0	17322	16020	155878	27170	947014	35473	106284	0	0	8146	775679	0	0
2024-04-11 02:38:32			0	33647	0	0	0	17332	16010	155838	27509	947033	35461	106288	0	0	8145	776125	0	0
2024-04-11 02:39:32			0	33669	0	0	0	17337	16010	155874	27159	947025	35484	106290	0	0	8147	775014	0	0
2024-04-11 02:40:32			0	33684	0	0	0	17345	16020	155738	27493	947154	35473	106293	0	0	8147	774215	0	0
2024-04-11 02:41:32			0	33688	0	0	0	17345	16020	155794	26928	947093	35485	106293	0	0	8148	774013	0	0
2024-04-11 02:42:32			0	33700	0	0	0	17340	16030	155766	27152	947083	35485	106291	0	0	8148	773366	0	0
2024-04-11 02:43:32			0	33702	0	0	0	17342	16020	155682	27393	947067	35462	106292	0	0	8148	773307	0	0
2024-04-11 02:44:32			0	33703	0	0	0	17358	16020	155658	27291	947101	35473	106298	0	0	8148	773257	0	0
2024-04-11 02:45:32			0	33701	0	0	0	17345	16020	155594	27348	947093	35485	106293	0	0	8148	773357	0	0
2024-04-11 02:46:32			0	33723	0	0	0	17361	16030	155654	27417	947110	35485	106299	0	0	8149	772207	0	0
2024-04-11 02:47:32			0	33704	0	0	0	17361	16030	155598	27100	947091	35485	106299	0	0	8148	773164	0	0
2024-04-11 02:48:32			0	33713	0	0	0	17363	16040	155770	27180	947152	35486	106300	0	0	8149	772669	0	0
2024-04-11 02:49:32			0	33715	0	0	0	17363	16030	155618	27208	947118	35485	106300	0	0	8149	772610	0	0
2024-04-11 02:50:32			0	33715	0	0	0	17355	16030	155594	27241	947144	35474	106297	0	0	8149	772610	0	0
2024-04-11 02:51:32			0	33734	0	0	0	17361	16040	155466	27355	947099	35486	106299	0	0	8150	771612	0	0
2024-04-11 02:52:32			0	33732	0	0	0	17361	16040	155714	27176	947152	35486	106299	0	0	8150	771713	0	0
2024-04-11 02:53:32			0	33726	0	0	0	17358	16030	155666	27157	947091	35474	106298	0	0	8150	772056	0	0
2024-04-11 02:54:32			0	33717	0	0	0	17342	16040	155642	27504	947126	35486	106292	0	0	8149	772468	0	0
2024-04-11 02:55:32			0	33681	0	0	0	17327	16040	155750	27440	947126	35475	106286	0	0	8148	774283	0	0
2024-04-11 02:56:32			0	33658	0	0	0	17335	16030	155998	27473	947136	35474	106289	0	0	8146	775486	0	0
2024-04-11 02:57:32			0	33638	0	0	0	17345	16020	155982	27535	947075	35473	106293	0	0	8145	776539	0	0
2024-04-11 02:58:32			0	33637	0	0	0	17329	16020	156006	26961	947154	35485	106287	0	0	8145	776589	0	0
2024-04-11 02:59:32			0	33630	0	0	0	17314	16010	156030	27211	947112	35473	106281	0	0	8145	776985	0	0
2024-04-11 03:00:32			0	33614	0	0	0	17348	16020	156186	27222	947075	35485	106294	0	0	8143	777753	0	0
2024-04-11 03:01:32			0	33620	0	0	0	17376	16020	156094	27507	947120	35496	106305	0	0	8143	777450	0	0
2024-04-11 03:02:32			0	33653	0	0	0	17363	16020	155822	27261	947128	35496	106300	0	0	8145	775780	0	0
2024-04-11 03:03:32			0	33690	0	0	0	17329	16030	155870	27419	947170	35507	106287	0	0	8148	773870	0	0
2024-04-11 03:04:32			0	33683	0	0	0	17335	16030	155878	27358	947197	35485	106289	0	0	8148	774223	0	0
2024-04-11 03:05:32			0	33660	0	0	0	17353	16030	155838	27341	947110	35496	106296	0	0	8146	775385	0	0
2024-04-11 03:06:32			0	33666	0	0	0	17309	16040	155730	27251	947099	35486	106279	0	0	8147	775040	0	0
2024-04-11 03:07:32			0	33648	0	0	0	17335	16030	155962	27357	947030	35485	106289	0	0	8145	775991	0	0
2024-04-11 03:08:32			0	33628	0	0	0	17355	16030	155914	27119	947136	35496	106297	0	0	8144	777003	0	0
2024-04-11 03:09:32			0	33667	0	0	0	17324	16030	155834	27509	947162	35496	106285	0	0	8147	775031	0	0
2024-04-11 03:10:32			0	33643	0	0	0	17319	16030	155994	27294	947091	35496	106283	0	0	8145	776244	0	0
2024-04-11 03:11:32			0	33619	0	0	0	17316	16020	155990	27168	947120	35496	106282	0	0	8144	777500	0	0
2024-04-11 03:12:32			0	33640	0	0	0	17342	16030	155990	27118	947136	35496	106292	0	0	8145	776396	0	0
2024-04-11 03:13:32			0	33635	0	0	0	17311	16010	155962	27012	947059	35505	106280	0	0	8145	776732	0	0
2024-04-11 03:14:32			0	33616	0	0	0	17311	16020	156142	27220	947067	35485	106280	0	0	8144	777652	0	0
2024-04-11 03:15:32			0	33612	0	0	0	17355	16010	156182	27372	947033	35495	106297	0	0	8143	777897	0	0
2024-04-11 03:16:32			0	33619	0	0	0	17350	16030	156130	27159	947110	35485	106295	0	0	8143	777458	0	0
2024-04-11 03:17:32			0	33644	0	0	0	17342	16030	156010	27133	947144	35496	106292	0	0	8145	776193	0	0
2024-04-11 03:18:32			0	33647	0	0	0	17340	16030	155986	27293	947110	35496	106291	0	0	8145	776042	0	0
2024-04-11 03:19:32			0	33656	0	0	0	17329	16020	156054	27480	947128	35496	106287	0	0	8146	775629	0	0
2024-04-11 03:20:32			0	33627	0	0	0	17329	16020	155950	27362	947101	35496	106287	0	0	8144	777095	0	0
2024-04-11 03:21:32			0	33635	0	0	0	17316	16020	156026	27326	947180	35506	106282	0	0	8145	776691	0	0
2024-04-11 03:22:32			0	33627	0	0	0	17311	16030	156058	27275	947083	35496	106280	0	0	8145	777053	0	0
2024-04-11 03:23:32			0	33618	0	0	0	17322	16020	156186	27131	947075	35496	106284	0	0	8144	777551	0	0
2024-04-11 03:24:32			0	33603	0	0	0	17309	16020	156186	27241	947049	35496	106279	0	0	8143	778311	0	0
2024-04-11 03:25:32			0	33590	0	0	0	17306	16020	156242	27197	947067	35506	106278	0	0	8142	778970	0	0
2024-04-11 03:26:32			0	33591	0	0	0	17309	16020	156274	27253	947067	35496	106279	0	0	8142	778919	0	0
2024-04-11 03:27:32			0	33591	0	0	0	17319	16010	156242	26979	947033	35495	106283	0	0	8142	778961	0	0
2024-04-11 03:28:32			0	33600	0	0	0	17324	16010	156366	27481	946998	35505	106285	0	0	8143	778505	0	0
2024-04-11 03:29:32			0	33590	0	0	0	17327	16010	156262	26941	947051	35495	106286	0	0	8142	779012	0	0
2024-04-11 03:30:32			0	33612	0	0	0	17342	16010	156202	27183	947164	35495	106292	0	0	8143	777897	0	0
2024-04-11 03:31:32			0	33646	0	0	0	17337	16030	156118	26759	947110	35496	106290	0	0	8145	776092	0	0
2024-04-11 03:32:32			0	33653	0	0	0	17335	16020	156062	27109	947120	35496	106289	0	0	8146	775780	0	0
2024-04-11 03:33:32			0	33650	0	0	0	17345	16010	156066	27306	947085	35505	106293	0	0	8145	775974	0	0
2024-04-11 03:34:32			0	33650	0	0	0	17335	16010	156082	27031	947138	35516	106289	0	0	8145	775974	0	0
2024-04-11 03:35:32			0	33679	0	0	0	17337	16010	156058	27542	947059	35495	106290	0	0	8147	774509	0	0
2024-04-11 03:36:32			0	33654	0	0	0	17350	16030	156022	27142	947110	35507	106295	0	0	8146	775688	0	0
2024-04-11 03:37:32			0	33676	0	0	0	17340	16030	155918	27416	947189	35507	106291	0	0	8147	774577	0	0
2024-04-11 03:38:32			0	33681	0	0	0	17337	16030	155998	27379	947170	35507	106290	0	0	8147	774324	0	0
2024-04-11 03:39:32			0	33676	0	0	0	17342	16030	155942	27008	947197	35518	106292	0	0	8147	774577	0	0
2024-04-11 03:40:32			0	33674	0	0	0	17345	16020	156010	27187	947093	35506	106293	0	0	8147	774720	0	0
2024-04-11 03:41:32			0	33674	0	0	0	17340	16030	155834	26904	947083	35507	106291	0	0	8147	774678	0	0
2024-04-11 03:42:32			0	33668	0	0	0	17335	16040	155886	27048	947178	35507	106289	0	0	8147	774939	0	0
2024-04-11 03:43:32			0	33670	0	0	0	17332	16030	155894	27074	947189	35518	106288	0	0	8147	774880	0	0
2024-04-11 03:44:32			0	33646	0	0	0	17329	16030	155910	27105	947144	35507	106287	0	0	8145	776092	0	0
2024-04-11 03:45:32			0	33665	0	0	0	17327	16030	155882	27237	947170	35507	106286	0	0	8147	775132	0	0
2024-04-11 03:46:32			0	33643	0	0	0	17327	16030	156038	27079	947091	35496	106286	0	0	8145	776244	0	0
2024-04-11 03:47:32			0	33632	0	0	0	17324	16020	156094	27001	947154	35506	106285	0	0	8145	776842	0	0
2024-04-11 03:48:32			0	33632	0	0	0	17329	16020	156070	26913	947128	35517	106287	0	0	8145	776842	0	0
2024-04-11 03:49:32			0	33630	0	0	0	17332	16030	156150	26982	947083	35518	106288	0	0	8144	776901	0	0
2024-04-11 03:50:32			0	33607	0	0	0	17322	16020	156150	27128	947093	35506	106284	0	0	8143	778108	0	0
2024-04-11 03:51:32			0	33609	0	0	0	17327	16030	156322	27138	947144	35518	106286	0	0	8143	777965	0	0
2024-04-11 03:52:32			0	33604	0	0	0	17329	16030	156298	27154	947144	35507	106287	0	0	8143	778218	0	0
2024-04-11 03:53:32			0	33611	0	0	0	17335	16030	156274	26967	947144	35507	106289	0	0	8143	777863	0	0
2024-04-11 03:54:32			0	33593	0	0	0	17337	16030	156258	27171	947136	35518	106290	0	0	8142	778775	0	0
2024-04-11 03:55:32			0	33589	0	0	0	17332	16010	156186	27367	947156	35516	106288	0	0	8142	779062	0	0
2024-04-11 03:56:32			0	33592	0	0	0	17322	16020	156362	27279	947101	35517	106284	0	0	8142	778868	0	0
2024-04-11 03:57:32			0	33576	0	0	0	17329	16030	156290	27239	947189	35518	106287	0	0	8141	779638	0	0
2024-04-11 03:58:32			0	33592	0	0	0	17327	16020	156290	27263	947093	35517	106286	0	0	8142	778868	0	0
2024-04-11 03:59:32			0	33586	0	0	0	17322	16020	156322	27213	947146	35506	106284	0	0	8142	779173	0	0
2024-04-11 04:00:32			0	33596	0	0	0	17316	16030	156342	27173	947083	35518	106282	0	0	8143	778623	0	0
2024-04-11 04:01:32			0	33594	0	0	0	17316	16020	156334	26838	947101	35517	106282	0	0	8143	778767	0	0
2024-04-11 04:02:32			0	33584	0	0	0	17311	16020	156318	27163	947120	35506	106280	0	0	8142	779274	0	0
2024-04-11 04:03:32			0	33583	0	0	0	17319	16030	156342	26944	947110	35507	106283	0	0	8142	779282	0	0
2024-04-11 04:04:32			0	33598	0	0	0	17306	16020	156302	27178	947120	35528	106278	0	0	8143	778564	0	0
2024-04-11 04:05:32			0	33589	0	0	0	17306	16020	156314	27229	947067	35517	106278	0	0	8142	779020	0	0
2024-04-11 04:06:32			0	33575	0	0	0	17314	16020	156257	27027	947075	35506	106281	0	0	8141	779730	0	0
2024-04-11 04:07:32			0	33565	0	0	0	17314	16010	156293	26972	947077	35516	106281	0	0	8141	780280	0	0
2024-04-11 04:08:32			0	33566	0	0	0	17309	16010	156373	27369	947085	35516	106279	0	0	8141	780229	0	0
2024-04-11 04:09:32			0	33566	0	0	0	17301	16010	156405	26994	947077	35505	106276	0	0	8141	780229	0	0
2024-04-11 04:10:32			0	33537	0	0	0	17303	16020	156513	27383	947067	35528	106277	0	0	8139	781661	0	0
2024-04-11 04:11:32			0	33533	0	0	0	17322	16020	156517	27502	947067	35528	106284	0	0	8139	781864	0	0
2024-04-11 04:12:32			0	33533	0	0	0	17309	16000	156533	27407	947008	35526	106279	0	0	8139	781949	0	0
2024-04-11 04:13:32			0	33549	0	0	0	17306	16010	156561	27085	947059	35516	106278	0	0	8140	781093	0	0
2024-04-11 04:14:32			0	33536	0	0	0	17296	16000	156557	27249	947016	35515	106274	0	0	8139	781796	0	0
2024-04-11 04:15:32			0	33488	0	0	0	17303	16020	156793	27092	947041	35539	106277	0	0	8136	784156	0	0
2024-04-11 04:16:32			0	33486	0	0	0	17301	16010	156769	26809	947025	35516	106276	0	0	8136	784300	0	0
2024-04-11 04:17:32			0	33480	0	0	0	17309	16010	156765	27161	947051	35516	106279	0	0	8136	784606	0	0
2024-04-11 04:18:32			0	33507	0	0	0	17316	16000	156829	27310	947069	35527	106282	0	0	8137	783272	0	0
2024-04-11 04:19:32			0	33518	0	0	0	17319	16020	156621	27272	947120	35539	106283	0	0	8138	782627	0	0
2024-04-11 04:20:32			0	33526	0	0	0	17316	16010	156477	27409	947130	35527	106282	0	0	8138	782263	0	0
2024-04-11 04:21:32			0	33554	0	0	0	17322	16000	156501	27296	947043	35527	106284	0	0	8140	780881	0	0
2024-04-11 04:22:32			0	33553	0	0	0	17309	16010	156501	27260	947085	35516	106279	0	0	8140	780890	0	0
2024-04-11 04:23:32			0	33569	0	0	0	17314	16010	156533	27114	947085	35527	106281	0	0	8141	780077	0	0
2024-04-11 04:24:32			0	33566	0	0	0	17309	16010	156470	27279	947051	35527	106279	0	0	8141	780229	0	0
2024-04-11 04:25:32			0	33553	0	0	0	17311	16010	156481	27528	947085	35527	106280	0	0	8140	780890	0	0
2024-04-11 04:26:32			0	33577	0	0	0	17314	16000	156530	27523	947122	35515	106281	0	0	8141	779713	0	0
2024-04-11 04:27:32			0	33543	0	0	0	17306	16000	156477	27325	947069	35527	106278	0	0	8140	781440	0	0
2024-04-11 04:28:32			0	33555	0	0	0	17296	16020	156565	27462	947093	35539	106274	0	0	8141	780746	0	0
2024-04-11 04:29:32			0	33531	0	0	0	17293	16010	156753	27322	947085	35527	106273	0	0	8139	782008	0	0
2024-04-11 04:30:32			0	33514	0	0	0	17290	16000	156769	27433	946964	35515	106272	0	0	8138	782916	0	0
2024-04-11 04:31:32			0	33482	0	0	0	17277	16000	156749	27005	947008	35526	106267	0	0	8136	784546	0	0
2024-04-11 04:32:32			0	33454	0	0	0	17283	15990	157037	27242	946966	35526	106269	0	0	8135	786018	0	0
2024-04-11 04:33:32			0	33452	0	0	0	17280	16000	156937	27157	947008	35537	106268	0	0	8135	786078	0	0
2024-04-11 04:34:32			0	33440	0	0	0	17280	16000	157089	27260	947043	35538	106268	0	0	8134	786691	0	0
2024-04-11 04:35:32			0	33433	0	0	0	17280	16000	157065	27369	946982	35526	106268	0	0	8134	787049	0	0
2024-04-11 04:36:32			0	33406	0	0	0	17277	16000	157153	27156	947008	35526	106267	0	0	8132	788430	0	0
2024-04-11 04:37:32			0	33390	0	0	0	17285	15990	157269	27495	946966	35537	106270	0	0	8131	789293	0	0
2024-04-11 04:38:32			0	33392	0	0	0	17285	15990	157357	27422	946992	35526	106270	0	0	8131	789190	0	0
2024-04-11 04:39:32			0	33390	0	0	0	17275	15990	157349	27523	946992	35537	106266	0	0	8131	789293	0	0
2024-04-11 04:40:32			0	33389	0	0	0	17285	15980	157309	27291	947010	35525	106270	0	0	8131	789386	0	0
2024-04-11 04:41:32			0	33366	0	0	0	17275	15990	157377	27556	947026	35537	106266	0	0	8130	790523	0	0
2024-04-11 04:42:32			0	33375	0	0	0	17275	15990	157405	26986	946895	35526	106266	0	0	8130	790062	0	0
2024-04-11 04:43:32			0	33382	0	0	0	17262	15980	157453	27320	946984	35525	106261	0	0	8131	789745	0	0
2024-04-11 04:44:32			0	33412	0	0	0	17264	15980	157313	27486	946905	35514	106262	0	0	8132	788208	0	0
2024-04-11 04:45:32			0	33426	0	0	0	17275	15980	157153	27511	946931	35536	106266	0	0	8133	787492	0	0
2024-04-11 04:46:32			0	33395	0	0	0	17277	15980	157345	27279	946897	35545	106267	0	0	8131	789079	0	0
2024-04-11 04:47:32			0	33384	0	0	0	17280	15980	157241	27431	946923	35535	106268	0	0	8130	789643	0	0
2024-04-11 04:48:32			0	33358	0	0	0	17293	15970	157445	27265	946986	35535	106273	0	0	8129	791019	0	0
2024-04-11 04:49:32			0	33351	0	0	0	17306	15980	157609	27564	946976	35545	106278	0	0	8128	791336	0	0
2024-04-11 04:50:32			0	33343	0	0	0	17298	15980	157541	27048	946984	35536	106275	0	0	8128	791747	0	0
2024-04-11 04:51:32			0	33319	0	0	0	17290	15970	157669	27017	947020	35535	106272	0	0	8126	793024	0	0
2024-04-11 04:52:32			0	33319	0	0	0	17293	15980	157725	27339	946897	35545	106273	0	0	8126	792981	0	0
2024-04-11 04:53:32			0	33318	0	0	0	17303	15980	157769	27492	946950	35535	106277	0	0	8126	793033	0	0
2024-04-11 04:54:32			0	33309	0	0	0	17301	15990	157781	27268	946992	35537	106276	0	0	8126	793453	0	0
2024-04-11 04:55:32			0	33292	0	0	0	17285	15980	157885	27277	946923	35545	106270	0	0	8125	794371	0	0
2024-04-11 04:56:32			0	33229	0	0	0	17275	15980	158017	27332	946931	35546	106266	0	0	8121	797623	0	0
2024-04-11 04:57:32			0	33218	0	0	0	17272	15970	158257	27256	946915	35545	106265	0	0	8121	798235	0	0
2024-04-11 04:58:32			0	33160	0	0	0	17280	15980	158345	27223	946923	35545	106268	0	0	8117	801197	0	0
2024-04-11 04:59:32			0	33156	0	0	0	17290	15970	158625	27339	946907	35545	106272	0	0	8117	801447	0	0
2024-04-11 05:00:32			0	33095	0	0	0	17272	15970	158817	27187	946941	35535	106265	0	0	8113	804619	0	0
2024-04-11 05:01:32			0	33068	0	0	0	17288	15980	158913	27438	946897	35545	106271	0	0	8111	805982	0	0
2024-04-11 05:02:32			0	33021	0	0	0	17290	15980	159037	27263	946897	35545	106272	0	0	8108	808436	0	0
2024-04-11 05:03:32			0	33008	0	0	0	17290	15970	159169	27680	946907	35545	106272	0	0	8108	809159	0	0
2024-04-11 05:04:32			0	32985	0	0	0	17285	15970	159389	27412	946907	35545	106270	0	0	8106	810363	0	0
2024-04-11 05:05:32			0	32948	0	0	0	17285	15980	159385	27428	947029	35545	106270	0	0	8104	812260	0	0
2024-04-11 05:06:32			0	32943	0	0	0	17293	15980	159385	27312	946984	35536	106273	0	0	8104	812522	0	0
2024-04-11 05:07:32			0	32960	0	0	0	17290	15980	159409	27277	947002	35545	106272	0	0	8105	811630	0	0
2024-04-11 05:08:32			0	32954	0	0	0	17296	15980	159461	27333	946976	35535	106274	0	0	8104	811945	0	0
2024-04-11 05:09:32			0	32961	0	0	0	17290	15970	159417	27346	946933	35545	106272	0	0	8105	811621	0	0
2024-04-11 05:10:32			0	32952	0	0	0	17293	15980	159389	27218	947002	35545	106273	0	0	8104	812050	0	0
2024-04-11 05:11:32			0	32946	0	0	0	17296	15980	159461	27448	946923	35545	106274	0	0	8104	812365	0	0
2024-04-11 05:12:32			0	32942	0	0	0	17285	15980	159545	27352	947002	35557	106270	0	0	8104	812575	0	0
2024-04-11 05:13:32			0	32932	0	0	0	17296	15980	159477	27379	947010	35536	106274	0	0	8103	813100	0	0
2024-04-11 05:14:32			0	32950	0	0	0	17296	15990	159453	27232	946992	35569	106274	0	0	8104	812111	0	0
2024-04-11 05:15:32			0	32937	0	0	0	17296	15980	159533	27326	946958	35546	106274	0	0	8103	812837	0	0
2024-04-11 05:16:32			0	32947	0	0	0	17296	15970	159581	27168	946968	35568	106274	0	0	8104	812356	0	0
2024-04-11 05:17:32			0	32919	0	0	0	17288	15980	159477	27140	947002	35545	106271	0	0	8102	813783	0	0
2024-04-11 05:18:32			0	32915	0	0	0	17293	15990	159581	27528	946974	35558	106273	0	0	8102	813949	0	0
2024-04-11 05:19:32			0	32932	0	0	0	17275	15980	159689	27268	946976	35557	106266	0	0	8103	813100	0	0
2024-04-11 05:20:32			0	32938	0	0	0	17277	15980	159545	27364	947002	35557	106267	0	0	8104	812785	0	0
2024-04-11 05:21:32			0	32940	0	0	0	17293	15980	159501	27331	946976	35568	106273	0	0	8103	812680	0	0
2024-04-11 05:22:32			0	32961	0	0	0	17283	15980	159437	27448	946923	35557	106269	0	0	8105	811578	0	0
2024-04-11 05:23:32			0	32977	0	0	0	17288	15970	159405	27613	946941	35557	106271	0	0	8106	810782	0	0
2024-04-11 05:24:32			0	32980	0	0	0	17288	15970	159333	27265	946889	35557	106271	0	0	8106	810625	0	0
2024-04-11 05:25:32			0	32990	0	0	0	17298	15970	159225	27469	946915	35557	106275	0	0	8106	810101	0	0
2024-04-11 05:26:32			0	33002	0	0	0	17275	15980	159189	27357	946984	35568	106266	0	0	8108	809430	0	0
2024-04-11 05:27:32			0	32992	0	0	0	17285	15970	159229	27296	946994	35568	106270	0	0	8107	809997	0	0
2024-04-11 05:28:32			0	32986	0	0	0	17280	15970	159245	27116	947047	35557	106268	0	0	8106	810311	0	0
2024-04-11 05:29:32			0	32984	0	0	0	17264	15970	159201	27149	946968	35568	106262	0	0	8107	810416	0	0
2024-04-11 05:30:32			0	32980	0	0	0	17280	15970	159225	27296	946968	35557	106268	0	0	8106	810625	0	0
2024-04-11 05:31:32			0	33007	0	0	0	17283	15970	159209	27145	946994	35557	106269	0	0	8108	809212	0	0
2024-04-11 05:32:32			0	32983	0	0	0	17275	15970	159317	27149	946941	35557	106266	0	0	8106	810468	0	0
2024-04-11 05:33:32			0	32987	0	0	0	17290	15970	159245	27381	946960	35556	106272	0	0	8106	810259	0	0
2024-04-11 05:34:32			0	33007	0	0	0	17285	15960	159157	27027	947031	35556	106270	0	0	8108	809255	0	0
2024-04-11 05:35:32			0	33016	0	0	0	17249	15960	159205	27260	946899	35567	106256	0	0	8109	808785	0	0
2024-04-11 05:36:32			0	33016	0	0	0	17262	15960	159189	27474	946873	35556	106261	0	0	8109	808785	0	0
2024-04-11 05:37:32			0	33019	0	0	0	17277	15950	159101	27396	946901	35576	106267	0	0	8108	808671	0	0
2024-04-11 05:38:32			0	33006	0	0	0	17293	15950	159181	27161	946883	35555	106273	0	0	8107	809351	0	0
2024-04-11 05:39:32			0	33016	0	0	0	17303	15940	159229	27381	946946	35576	106277	0	0	8108	808872	0	0
2024-04-11 05:40:32			0	33050	0	0	0	17288	15970	159089	27140	946960	35567	106271	0	0	8110	806965	0	0
2024-04-11 05:41:32			0	33050	0	0	0	17296	15970	159013	27576	946960	35578	106274	0	0	8110	806965	0	0
2024-04-11 05:42:32			0	33054	0	0	0	17303	15960	159077	27478	946952	35556	106277	0	0	8110	806799	0	0
2024-04-11 05:43:32			0	33071	0	0	0	17293	15970	158961	27313	946986	35556	106273	0	0	8111	805869	0	0
2024-04-11 05:44:32			0	33076	0	0	0	17303	15970	158981	27300	947020	35557	106277	0	0	8112	805608	0	0
2024-04-11 05:45:32			0	33079	0	0	0	17301	15970	159021	27303	946960	35567	106276	0	0	8112	805452	0	0
2024-04-11 05:46:32			0	33100	0	0	0	17301	15970	158737	27280	946941	35568	106276	0	0	8113	804358	0	0
2024-04-11 05:47:32			0	33108	0	0	0	17298	15970	158957	27093	946986	35567	106275	0	0	8114	803942	0	0
2024-04-11 05:48:32			0	33107	0	0	0	17290	15980	158837	27140	947002	35568	106272	0	0	8114	803951	0	0
2024-04-11 05:49:32			0	33106	0	0	0	17280	15980	158873	27225	947029	35579	106268	0	0	8114	804003	0	0
2024-04-11 05:50:32			0	33083	0	0	0	17241	15980	158805	27192	946879	35557	106253	0	0	8113	805200	0	0
2024-04-11 05:51:32			0	33047	0	0	0	17267	15980	159061	26991	946931	35568	106263	0	0	8110	807078	0	0
2024-04-11 05:52:32			0	33039	0	0	0	17267	15960	159001	27461	946925	35567	106263	0	0	8110	807582	0	0
2024-04-11 05:53:32			0	33038	0	0	0	17270	15960	159077	26970	946873	35578	106264	0	0	8110	807635	0	0
2024-04-11 05:54:32			0	33042	0	0	0	17257	15960	159057	26873	946891	35577	106259	0	0	8110	807426	0	0
2024-04-11 05:55:32			0	33036	0	0	0	17251	15960	159081	27076	946846	35567	106257	0	0	8110	807739	0	0
2024-04-11 05:56:32			0	33035	0	0	0	17238	15940	159101	27341	946840	35576	106252	0	0	8110	807879	0	0
2024-04-11 05:57:32			0	33035	0	0	0	17275	15950	159157	27173	946848	35576	106266	0	0	8109	807835	0	0
2024-04-11 05:58:32			0	33025	0	0	0	17283	15950	159205	27438	946848	35565	106269	0	0	8109	808358	0	0
2024-04-11 05:59:32			0	33041	0	0	0	17290	15940	159097	27220	946867	35576	106272	0	0	8109	807565	0	0
2024-04-11 06:00:32			0	33082	0	0	0	17293	15950	159061	27222	946927	35565	106273	0	0	8112	805383	0	0
2024-04-11 06:01:32			0	33074	0	0	0	17277	15960	158989	27334	946891	35577	106267	0	0	8112	805756	0	0
2024-04-11 06:02:32			0	33084	0	0	0	17277	15950	158993	27296	946857	35577	106267	0	0	8112	805278	0	0
2024-04-11 06:03:32			0	33059	0	0	0	17267	15950	159061	27346	946875	35576	106263	0	0	8111	806582	0	0
2024-04-11 06:04:32			0	33051	0	0	0	17225	15950	159101	27386	946875	35565	106247	0	0	8111	807000	0	0
2024-04-11 06:05:32			0	33018	0	0	0	17220	15940	159181	26870	946788	35576	106245	0	0	8109	808767	0	0
2024-04-11 06:06:32			0	32993	0	0	0	17194	15940	159397	27001	946788	35576	106235	0	0	8108	810076	0	0
2024-04-11 06:07:32			0	32936	0	0	0	17197	15940	159541	27121	946753	35576	106236	0	0	8105	813065	0	0
2024-04-11 06:08:32			0	32931	0	0	0	17179	15930	159705	27067	946737	35575	106229	0	0	8105	813372	0	0
2024-04-11 06:09:32			0	32923	0	0	0	17194	15930	159749	27145	946737	35564	106235	0	0	8104	813792	0	0
2024-04-11 06:10:32			0	32902	0	0	0	17192	15920	159793	27152	946747	35563	106234	0	0	8103	814940	0	0
2024-04-11 06:11:32			0	32912	0	0	0	17192	15920	159845	27197	946703	35585	106234	0	0	8103	814414	0	0
2024-04-11 06:12:32			0	32887	0	0	0	17184	15910	159817	27412	946687	35551	106231	0	0	8102	815774	0	0
2024-04-11 06:13:32			0	32879	0	0	0	17161	15910	159861	27218	946687	35583	106222	0	0	8102	816196	0	0
2024-04-11 06:14:32			0	32883	0	0	0	17166	15910	159841	27216	946705	35562	106224	0	0	8102	815985	0	0
2024-04-11 06:15:32			0	32881	0	0	0	17171	15890	159937	27757	946620	35583	106226	0	0	8101	816178	0	0
2024-04-11 06:16:32			0	32890	0	0	0	17184	15900	159925	27410	946636	35561	106231	0	0	8102	815660	0	0
2024-04-11 06:17:32			0	32920	0	0	0	17192	15900	159845	27402	946689	35561	106234	0	0	8104	814081	0	0
2024-04-11 06:18:32			0	32919	0	0	0	17207	15900	159693	27331	946644	35583	106240	0	0	8103	814134	0	0
2024-04-11 06:19:32			0	32947	0	0	0	17218	15890	159757	27441	946681	35572	106244	0	0	8105	812707	0	0
2024-04-11 06:20:32			0	32975	0	0	0	17199	15890	159521	27242	946673	35572	106237	0	0	8107	811237	0	0
2024-04-11 06:21:32			0	33006	0	0	0	17171	15900	159621	27367	946741	35561	106226	0	0	8109	809570	0	0
2024-04-11 06:22:32			0	32997	0	0	0	17168	15890	159645	27085	946654	35572	106225	0	0	8109	810084	0	0
2024-04-11 06:23:32			0	32956	0	0	0	17142	15890	159653	27350	946602	35572	106215	0	0	8107	812234	0	0
2024-04-11 06:24:32			0	32945	0	0	0	17158	15890	159781	27410	946620	35549	106221	0	0	8106	812811	0	0
2024-04-11 06:25:32			0	32925	0	0	0	17150	15890	160029	27279	946541	35549	106218	0	0	8105	813862	0	0
2024-04-11 06:26:32			0	32885	0	0	0	17166	15880	160053	27767	946604	35582	106224	0	0	8102	816012	0	0
2024-04-11 06:27:32			0	32890	0	0	0	17168	15870	160189	27580	946569	35570	106225	0	0	8102	815792	0	0
2024-04-11 06:28:32			0	32897	0	0	0	17176	15860	160125	27372	946561	35569	106228	0	0	8102	815467	0	0
2024-04-11 06:29:32			0	32905	0	0	0	17179	15880	160037	27666	946691	35583	106229	0	0	8103	814958	0	0
2024-04-11 06:30:32			0	32942	0	0	0	17181	15880	159869	27561	946559	35572	106230	0	0	8105	813013	0	0
2024-04-11 06:31:32			0	32950	0	0	0	17197	15860	159805	27414	946535	35569	106236	0	0	8105	812680	0	0
2024-04-11 06:32:32			0	32953	0	0	0	17194	15880	159701	27329	946630	35592	106235	0	0	8105	812435	0	0
2024-04-11 06:33:32			0	32992	0	0	0	17202	15860	159517	27211	946640	35569	106238	0	0	8108	810477	0	0
2024-04-11 06:34:32			0	33022	0	0	0	17199	15880	159405	27199	946683	35571	106237	0	0	8110	808820	0	0
2024-04-11 06:35:32			0	33051	0	0	0	17210	15890	159241	27246	946673	35583	106241	0	0	8111	807261	0	0
2024-04-11 06:36:32			0	33085	0	0	0	17220	15880	159237	27466	946665	35583	106245	0	0	8113	805530	0	0
2024-04-11 06:37:32			0	33102	0	0	0	17212	15890	159121	27670	946707	35593	106242	0	0	8114	804601	0	0
2024-04-11 06:38:32			0	33106	0	0	0	17207	15890	159029	27157	946699	35583	106240	0	0	8115	804393	0	0
2024-04-11 06:39:32			0	33132	0	0	0	17228	15900	158913	27272	946741	35572	106248	0	0	8116	802997	0	0
2024-04-11 06:40:32			0	33133	0	0	0	17233	15890	158885	27443	946760	35572	106250	0	0	8116	802988	0	0
2024-04-11 06:41:32			0	33145	0	0	0	17241	15900	158817	27164	946715	35594	106253	0	0	8116	802321	0	0
2024-04-11 06:42:32			0	33168	0	0	0	17241	15900	158689	27170	946776	35595	106253	0	0	8118	801127	0	0
2024-04-11 06:43:32			0	33176	0	0	0	17236	15900	158617	27261	946776	35583	106251	0	0	8118	800712	0	0
2024-04-11 06:44:32			0	33200	0	0	0	17238	15910	158561	27495	946731	35595	106252	0	0	8120	799425	0	0
2024-04-11 06:45:32			0	33213	0	0	0	17249	15910	158401	27251	946810	35595	106256	0	0	8120	798752	0	0
2024-04-11 06:46:32			0	33230	0	0	0	17244	15910	158393	27476	946818	35583	106254	0	0	8122	797872	0	0
2024-04-11 06:47:32			0	33241	0	0	0	17249	15910	158317	27353	946871	35606	106256	0	0	8122	797304	0	0
2024-04-11 06:48:32			0	33242	0	0	0	17254	15920	158249	27343	946782	35585	106258	0	0	8122	797209	0	0
2024-04-11 06:49:32			0	33262	0	0	0	17251	15920	158161	27083	946808	35596	106257	0	0	8123	796176	0	0
2024-04-11 06:50:32			0	33271	0	0	0	17257	15930	158129	27372	946843	35596	106259	0	0	8124	795669	0	0
2024-04-11 06:51:32			0	33280	0	0	0	17259	15940	158121	27320	946911	35597	106260	0	0	8124	795162	0	0
2024-04-11 06:52:32			0	33289	0	0	0	17262	15920	158049	27352	946861	35596	106261	0	0	8125	794783	0	0
2024-04-11 06:53:32			0	33297	0	0	0	17259	15930	157961	27582	946895	35607	106260	0	0	8125	794328	0	0
2024-04-11 06:54:32			0	33292	0	0	0	17272	15920	158037	27086	946861	35596	106265	0	0	8125	794629	0	0
2024-04-11 06:55:32			0	33309	0	0	0	17262	15930	158021	27474	946903	35596	106261	0	0	8126	793710	0	0
2024-04-11 06:56:32			0	33300	0	0	0	17262	15950	158005	27345	946875	35609	106261	0	0	8126	794088	0	0
2024-04-11 06:57:32			0	33304	0	0	0	17259	15940	157837	27343	946919	35609	106260	0	0	8126	793925	0	0
2024-04-11 06:58:32			0	33305	0	0	0	17264	15940	158093	27459	946911	35608	106262	0	0	8126	793873	0	0
2024-04-11 06:59:32			0	33302	0	0	0	17259	15950	158025	27528	946901	35609	106260	0	0	8126	793985	0	0
2024-04-11 07:00:32			0	33304	0	0	0	17257	15950	158045	27760	946927	35598	106259	0	0	8126	793882	0	0
2024-04-11 07:01:32			0	33289	0	0	0	17254	15950	158101	27147	946909	35598	106258	0	0	8125	794655	0	0
2024-04-11 07:02:32			0	33289	0	0	0	17257	15940	158145	27673	946946	35587	106259	0	0	8125	794697	0	0
2024-04-11 07:03:32			0	33261	0	0	0	17254	15940	158269	27611	946867	35598	106258	0	0	8123	796142	0	0
2024-04-11 07:04:32			0	33243	0	0	0	17267	15940	158301	27343	946867	35598	106263	0	0	8122	797071	0	0
2024-04-11 07:05:32			0	33248	0	0	0	17251	15940	158301	27384	946893	35598	106257	0	0	8123	796813	0	0
2024-04-11 07:06:32			0	33238	0	0	0	17257	15950	158297	27228	946954	35598	106259	0	0	8122	797287	0	0
2024-04-11 07:07:32			0	33242	0	0	0	17259	15950	158289	27263	946962	35598	106260	0	0	8122	797080	0	0
2024-04-11 07:08:32			0	33236	0	0	0	17254	15950	158381	27192	946927	35598	106258	0	0	8122	797390	0	0
2024-04-11 07:09:32			0	33233	0	0	0	17249	15950	158333	27338	946962	35598	106256	0	0	8122	797545	0	0
2024-04-11 07:10:32			0	33236	0	0	0	17259	15950	158333	27386	946962	35610	106260	0	0	8122	797390	0	0
2024-04-11 07:11:32			0	33220	0	0	0	17249	15950	158389	27466	946927	35609	106256	0	0	8121	798217	0	0
2024-04-11 07:12:32			0	33206	0	0	0	17257	15960	158485	27535	946970	35610	106259	0	0	8120	798899	0	0
2024-04-11 07:13:32			0	33186	0	0	0	17251	15940	158569	27500	946919	35620	106257	0	0	8119	800021	0	0
2024-04-11 07:14:32			0	33187	0	0	0	17251	15950	158517	27698	946962	35610	106257	0	0	8119	799926	0	0
2024-04-11 07:15:32			0	33189	0	0	0	17246	15950	158541	27412	946962	35610	106255	0	0	8119	799822	0	0
2024-04-11 07:16:32			0	33178	0	0	0	17246	15950	158569	27358	946909	35610	106255	0	0	8119	800393	0	0
2024-04-11 07:17:32			0	33183	0	0	0	17254	15950	158525	27543	946927	35598	106258	0	0	8119	800133	0	0
2024-04-11 07:18:32			0	33183	0	0	0	17257	15950	158533	27216	946927	35609	106259	0	0	8119	800133	0	0
2024-04-11 07:19:32			0	33214	0	0	0	17257	15950	158549	27767	946954	35609	106259	0	0	8121	798528	0	0
2024-04-11 07:20:32			0	33211	0	0	0	17254	15950	158585	27376	946936	35621	106258	0	0	8120	798683	0	0
2024-04-11 07:21:32			0	33219	0	0	0	17246	15950	158433	27126	946936	35598	106255	0	0	8121	798269	0	0
2024-04-11 07:22:32			0	33219	0	0	0	17254	15950	158437	27334	946954	35620	106258	0	0	8121	798269	0	0
2024-04-11 07:23:32			0	33223	0	0	0	17259	15950	158381	27284	946954	35630	106260	0	0	8121	798062	0	0
2024-04-11 07:24:32			0	33224	0	0	0	17259	15950	158429	27268	946927	35609	106260	0	0	8121	798011	0	0
2024-04-11 07:25:32			0	33213	0	0	0	17257	15950	158413	27431	947015	35610	106259	0	0	8120	798580	0	0
2024-04-11 07:26:32			0	33246	0	0	0	17259	15950	158441	27443	946901	35620	106260	0	0	8122	796873	0	0
2024-04-11 07:27:32			0	33221	0	0	0	17246	15950	158465	27921	946954	35630	106255	0	0	8121	798166	0	0
2024-04-11 07:28:32			0	33222	0	0	0	17251	15950	158457	27511	946909	35621	106257	0	0	8121	798114	0	0
2024-04-11 07:29:32			0	33223	0	0	0	17246	15950	158513	27559	946883	35610	106255	0	0	8121	798062	0	0
2024-04-11 07:30:32			0	33216	0	0	0	17249	15960	158565	27504	946970	35631	106256	0	0	8121	798381	0	0
2024-04-11 07:31:32			0	33208	0	0	0	17251	15950	158413	27562	946962	35621	106257	0	0	8120	798838	0	0
2024-04-11 07:32:32			0	33220	0	0	0	17257	15940	158513	27873	946919	35620	106259	0	0	8121	798260	0	0
2024-04-11 07:33:32			0	33210	0	0	0	17254	15950	158533	27625	946848	35620	106258	0	0	8120	798735	0	0
2024-04-11 07:34:32			0	33226	0	0	0	17249	15950	158537	27348	946909	35610	106256	0	0	8121	797907	0	0
2024-04-11 07:35:32			0	33200	0	0	0	17246	15960	158521	27521	946917	35610	106255	0	0	8120	799210	0	0
2024-04-11 07:36:32			0	33211	0	0	0	17241	15950	158525	27562	946962	35621	106253	0	0	8121	798683	0	0
2024-04-11 07:37:32			0	33209	0	0	0	17238	15940	158513	27479	946919	35620	106252	0	0	8121	798830	0	0
2024-04-11 07:38:32			0	33214	0	0	0	17244	15950	158529	27267	946927	35609	106254	0	0	8121	798528	0	0
2024-04-11 07:39:32			0	33215	0	0	0	17233	15950	158465	27248	946954	35609	106250	0	0	8121	798476	0	0
2024-04-11 07:40:32			0	33247	0	0	0	17236	15940	158365	27476	946919	35620	106251	0	0	8123	796865	0	0
2024-04-11 07:41:32			0	33208	0	0	0	17244	15930	158361	27523	946930	35618	106254	0	0	8120	798925	0	0
2024-04-11 07:42:32			0	33239	0	0	0	17241	15940	158353	27576	946867	35620	106253	0	0	8122	797278	0	0
2024-04-11 07:43:32			0	33251	0	0	0	17249	15950	158301	27569	946927	35630	106256	0	0	8123	796615	0	0
2024-04-11 07:44:32			0	33241	0	0	0	17244	15940	158361	27272	946919	35620	106254	0	0	8122	797175	0	0
2024-04-11 07:45:32			0	33257	0	0	0	17241	15940	158313	27542	946893	35630	106253	0	0	8123	796348	0	0
2024-04-11 07:46:32			0	33266	0	0	0	17244	15940	158341	27888	946998	35620	106254	0	0	8124	795884	0	0
2024-04-11 07:47:32			0	33265	0	0	0	17236	15940	158265	27793	946840	35620	106251	0	0	8124	795935	0	0
2024-04-11 07:48:32			0	33268	0	0	0	17241	15940	158241	27542	946867	35620	106253	0	0	8124	795780	0	0
2024-04-11 07:49:32			0	33280	0	0	0	17225	15940	158269	27486	946859	35629	106247	0	0	8125	795162	0	0
2024-04-11 07:50:32			0	33269	0	0	0	17233	15940	158389	27575	946885	35619	106250	0	0	8124	795729	0	0
2024-04-11 07:51:32			0	33255	0	0	0	17231	15940	158221	27336	946911	35619	106249	0	0	8123	796451	0	0
2024-04-11 07:52:32			0	33247	0	0	0	17231	15940	158349	27429	946859	35619	106249	0	0	8123	796865	0	0
2024-04-11 07:53:32			0	33246	0	0	0	17223	15940	158285	27575	946885	35629	106246	0	0	8123	796916	0	0
2024-04-11 07:54:32			0	33250	0	0	0	17220	15940	158241	27682	946885	35619	106245	0	0	8123	796710	0	0
2024-04-11 07:55:32			0	33238	0	0	0	17220	15940	158433	27776	946893	35609	106245	0	0	8123	797330	0	0
2024-04-11 07:56:32			0	33242	0	0	0	17231	15930	158365	27381	946851	35618	106249	0	0	8123	797166	0	0
2024-04-11 07:57:32			0	33238	0	0	0	17228	15930	158325	27710	946877	35628	106248	0	0	8122	797373	0	0
2024-04-11 07:58:32			0	33232	0	0	0	17223	15930	158301	27859	946895	35618	106246	0	0	8122	797683	0	0
2024-04-11 07:59:32			0	33251	0	0	0	17218	15940	158325	27585	946885	35629	106244	0	0	8123	796658	0	0
2024-04-11 08:00:32			0	33238	0	0	0	17212	15920	158309	27796	946861	35628	106242	0	0	8123	797416	0	0
2024-04-11 08:01:32			0	33225	0	0	0	17205	15910	158393	27514	946818	35617	106239	0	0	8122	798131	0	0
2024-04-11 08:02:32			0	33239	0	0	0	17202	15930	158349	27483	946816	35618	106238	0	0	8123	797321	0	0
2024-04-11 08:03:32			0	33223	0	0	0	17199	15910	158405	27531	946810	35627	106237	0	0	8122	798235	0	0
2024-04-11 08:04:32			0	33240	0	0	0	17205	15910	158465	27445	946792	35638	106239	0	0	8123	797355	0	0
2024-04-11 08:05:32			0	33219	0	0	0	17207	15910	158409	27708	946845	35638	106240	0	0	8121	798441	0	0
2024-04-11 08:06:32			0	33206	0	0	0	17199	15910	158477	27441	946792	35617	106237	0	0	8121	799114	0	0
2024-04-11 08:07:32			0	33205	0	0	0	17205	15910	158529	27576	946845	35617	106239	0	0	8121	799166	0	0
2024-04-11 08:08:32			0	33209	0	0	0	17179	15910	158577	27665	946731	35617	106229	0	0	8121	798959	0	0
2024-04-11 08:09:32			0	33189	0	0	0	17184	15900	158553	27670	946750	35627	106231	0	0	8120	800038	0	0
2024-04-11 08:10:32			0	33187	0	0	0	17171	15910	158597	27628	946784	35617	106226	0	0	8120	800099	0	0
2024-04-11 08:11:32			0	33178	0	0	0	17168	15900	158649	27751	946715	35616	106225	0	0	8120	800608	0	0
2024-04-11 08:12:32			0	33168	0	0	0	17171	15890	158761	27512	946707	35625	106226	0	0	8119	801170	0	0
2024-04-11 08:13:32			0	33156	0	0	0	17176	15890	158741	27625	946654	35615	106228	0	0	8118	801793	0	0
2024-04-11 08:14:32			0	33155	0	0	0	17184	15890	158805	27511	946760	35625	106231	0	0	8118	801845	0	0
2024-04-11 08:15:32			0	33156	0	0	0	17176	15880	158773	27677	946744	35625	106228	0	0	8118	801837	0	0
2024-04-11 08:16:32			0	33152	0	0	0	17179	15890	158857	27739	946681	35625	106229	0	0	8118	802001	0	0
2024-04-11 08:17:32			0	33151	0	0	0	17197	15890	158829	27731	946673	35625	106236	0	0	8117	802053	0	0
2024-04-11 08:18:32			0	33149	0	0	0	17223	15890	158849	27812	946699	35625	106246	0	0	8117	802157	0	0
2024-04-11 08:19:32			0	33130	0	0	0	17249	15880	159061	27493	946744	35636	106256	0	0	8115	803187	0	0
2024-04-11 08:20:32			0	33117	0	0	0	17241	15890	159069	27395	946831	35636	106253	0	0	8115	803820	0	0
2024-04-11 08:21:32			0	33069	0	0	0	17254	15890	159045	27616	946839	35625	106258	0	0	8112	806321	0	0
2024-04-11 08:22:32			0	33088	0	0	0	17270	15910	159189	27460	946897	35638	106264	0	0	8113	805244	0	0
2024-04-11 08:23:32			0	33075	0	0	0	17257	15910	159193	27601	946871	35638	106259	0	0	8112	805921	0	0
2024-04-11 08:24:32			0	33057	0	0	0	17267	15920	159237	27531	946905	35650	106263	0	0	8111	806817	0	0
2024-04-11 08:25:32			0	33050	0	0	0	17259	15930	159349	27379	946869	35640	106260	0	0	8110	807139	0	0
2024-04-11 08:26:32			0	33060	0	0	0	17254	15930	159309	27374	946869	35640	106258	0	0	8111	806617	0	0
2024-04-11 08:27:32			0	33044	0	0	0	17251	15930	159241	27607	946930	35640	106257	0	0	8110	807452	0	0
2024-04-11 08:28:32			0	33067	0	0	0	17225	15910	159169	27452	946871	35649	106247	0	0	8112	806339	0	0
2024-04-11 08:29:32			0	33087	0	0	0	17210	15920	159181	27590	946826	35639	106241	0	0	8114	805252	0	0
2024-04-11 08:30:32			0	33106	0	0	0	17210	15930	159021	27556	946843	35628	106241	0	0	8115	804219	0	0
2024-04-11 08:31:32			0	33121	0	0	0	17220	15910	158969	27457	946766	35649	106245	0	0	8115	803526	0	0
2024-04-11 08:32:32			0	33126	0	0	0	17220	15920	158865	27381	946861	35651	106245	0	0	8116	803222	0	0
2024-04-11 08:33:32			0	33142	0	0	0	17218	15910	158829	27653	946845	35638	106244	0	0	8117	802434	0	0
2024-04-11 08:34:32			0	33139	0	0	0	17215	15920	158813	27313	946853	35639	106243	0	0	8117	802546	0	0
2024-04-11 08:35:32			0	33165	0	0	0	17212	15920	158641	27691	946853	35650	106242	0	0	8118	801196	0	0
2024-04-11 08:36:32			0	33184	0	0	0	17218	15910	158689	27424	946889	35638	106244	0	0	8119	800254	0	0
2024-04-11 08:37:32			0	33219	0	0	0	17225	15910	158525	27471	946863	35627	106247	0	0	8121	798441	0	0
2024-04-11 08:38:32			0	33231	0	0	0	17228	15910	158505	27537	946818	35649	106248	0	0	8122	797821	0	0
2024-04-11 08:39:32			0	33234	0	0	0	17231	15910	158489	27300	946818	35638	106249	0	0	8122	797665	0	0
2024-04-11 08:40:32			0	33255	0	0	0	17228	15930	158317	27388	946869	35651	106248	0	0	8123	796494	0	0
2024-04-11 08:41:32			0	33293	0	0	0	17238	15910	158213	27492	946845	35638	106252	0	0	8125	794620	0	0
2024-04-11 08:42:32			0	33307	0	0	0	17225	15920	158149	27383	946932	35639	106247	0	0	8127	793856	0	0
2024-04-11 08:43:32			0	33310	0	0	0	17228	15920	158097	27545	946835	35628	106248	0	0	8127	793701	0	0
2024-04-11 08:44:32			0	33328	0	0	0	17241	15930	157909	27469	946930	35651	106253	0	0	8128	792732	0	0
2024-04-11 08:45:32			0	33337	0	0	0	17249	15920	157961	27428	946887	35651	106256	0	0	8128	792312	0	0
2024-04-11 08:46:32			0	33327	0	0	0	17254	15930	157889	27611	946948	35651	106258	0	0	8127	792784	0	0
2024-04-11 08:47:32			0	33343	0	0	0	17254	15930	157901	27272	946956	35662	106258	0	0	8128	791961	0	0
2024-04-11 08:48:32			0	33337	0	0	0	17251	15930	157857	27504	946922	35672	106257	0	0	8128	792269	0	0
2024-04-11 08:49:32			0	33343	0	0	0	17254	15940	157925	27199	946964	35651	106258	0	0	8128	791918	0	0
2024-04-11 08:50:32			0	33344	0	0	0	17244	15930	157873	27381	946930	35662	106254	0	0	8128	791909	0	0
2024-04-11 08:51:32			0	33356	0	0	0	17244	15940	157877	27308	946938	35651	106254	0	0	8129	791250	0	0
2024-04-11 08:52:32			0	33352	0	0	0	17236	15940	157809	27208	946964	35651	106251	0	0	8129	791456	0	0
2024-04-11 08:53:32			0	33360	0	0	0	17238	15940	157877	27258	946911	35651	106252	0	0	8130	791045	0	0
2024-04-11 08:54:32			0	33354	0	0	0	17244	15930	157937	27258	946922	35651	106254	0	0	8129	791396	0	0
2024-04-11 08:55:32			0	33360	0	0	0	17244	15940	157817	27588	946911	35651	106254	0	0	8129	791045	0	0
2024-04-11 08:56:32			0	33346	0	0	0	17246	15930	157825	27263	946877	35672	106255	0	0	8129	791807	0	0
2024-04-11 08:57:32			0	33356	0	0	0	17241	15940	157837	27433	946938	35651	106253	0	0	8129	791250	0	0
2024-04-11 08:58:32			0	33375	0	0	0	17246	15940	157761	27123	946893	35663	106255	0	0	8130	790275	0	0
2024-04-11 08:59:32			0	33380	0	0	0	17246	15940	157745	27329	946998	35641	106255	0	0	8131	790018	0	0
2024-04-11 09:00:32			0	33393	0	0	0	17249	15930	157613	27320	946903	35672	106256	0	0	8131	789394	0	0
2024-04-11 09:01:32			0	33405	0	0	0	17257	15930	157569	27329	946982	35651	106259	0	0	8132	788779	0	0
2024-04-11 09:02:32			0	33415	0	0	0	17257	15940	157641	27677	946946	35663	106259	0	0	8133	788225	0	0
2024-04-11 09:03:32			0	33414	0	0	0	17254	15950	157537	27308	947006	35663	106258	0	0	8133	788233	0	0
2024-04-11 09:04:32			0	33415	0	0	0	17249	15940	157517	27310	946946	35652	106256	0	0	8133	788225	0	0
2024-04-11 09:05:32			0	33412	0	0	0	17259	15940	157489	27246	946964	35673	106260	0	0	8132	788378	0	0
2024-04-11 09:06:32			0	33423	0	0	0	17257	15940	157585	27293	946946	35674	106259	0	0	8133	787815	0	0
2024-04-11 09:07:32			0	33427	0	0	0	17249	15950	157589	27530	946927	35674	106256	0	0	8133	787568	0	0
2024-04-11 09:08:32			0	33446	0	0	0	17259	15940	157465	27627	946972	35663	106260	0	0	8134	786639	0	0
2024-04-11 09:09:32			0	33424	0	0	0	17264	15940	157521	27512	946946	35652	106262	0	0	8133	787764	0	0
2024-04-11 09:10:32			0	33439	0	0	0	17262	15950	157389	27504	946980	35652	106261	0	0	8134	786954	0	0
2024-04-11 09:11:32			0	33440	0	0	0	17267	15940	157505	27263	946938	35663	106263	0	0	8134	786946	0	0
2024-04-11 09:12:32			0	33447	0	0	0	17264	15950	157453	27365	947067	35674	106262	0	0	8134	786545	0	0
2024-04-11 09:13:32			0	33461	0	0	0	17262	15940	157369	27642	946946	35663	106261	0	0	8135	785872	0	0
2024-04-11 09:14:32			0	33463	0	0	0	17267	15960	157385	27583	946970	35664	106263	0	0	8135	785685	0	0
2024-04-11 09:15:32			0	33450	0	0	0	17257	15950	157433	27230	946988	35685	106259	0	0	8135	786392	0	0
2024-04-11 09:16:32			0	33455	0	0	0	17270	15960	157321	27154	947057	35665	106264	0	0	8135	786094	0	0
2024-04-11 09:17:32			0	33452	0	0	0	17264	15950	157365	27229	947006	35674	106262	0	0	8135	786290	0	0
2024-04-11 09:18:32			0	33452	0	0	0	17264	15950	157477	27279	946988	35664	106262	0	0	8135	786290	0	0
2024-04-11 09:19:32			0	33460	0	0	0	17262	15950	157417	27715	947006	35674	106261	0	0	8135	785881	0	0
2024-04-11 09:20:32			0	33442	0	0	0	17267	15950	157365	27646	947015	35664	106263	0	0	8134	786801	0	0
2024-04-11 09:21:32			0	33458	0	0	0	17264	15950	157393	27500	947041	35674	106262	0	0	8135	785983	0	0
2024-04-11 09:22:32			0	33447	0	0	0	17262	15950	157369	27635	947006	35674	106261	0	0	8134	786545	0	0
2024-04-11 09:23:32			0	33454	0	0	0	17270	15960	157385	27455	946996	35674	106264	0	0	8135	786145	0	0
2024-04-11 09:24:32			0	33453	0	0	0	17270	15960	157337	27512	947031	35675	106264	0	0	8135	786196	0	0
2024-04-11 09:25:32			0	33452	0	0	0	17280	15960	157425	27637	947049	35674	106268	0	0	8134	786247	0	0
2024-04-11 09:26:32			0	33451	0	0	0	17264	15950	157421	27625	946980	35685	106262	0	0	8135	786341	0	0
2024-04-11 09:27:32			0	33439	0	0	0	17267	15950	157397	27606	947033	35674	106263	0	0	8134	786954	0	0
2024-04-11 09:28:32			0	33475	0	0	0	17277	15960	157361	27211	946996	35664	106267	0	0	8136	785073	0	0
2024-04-11 09:29:32			0	33471	0	0	0	17267	15960	157409	27479	947049	35674	106263	0	0	8136	785277	0	0
2024-04-11 09:30:32			0	33456	0	0	0	17277	15960	157445	27973	947083	35686	106267	0	0	8135	786043	0	0
2024-04-11 09:31:32			0	33472	0	0	0	17270	15960	157357	27428	947031	35686	106264	0	0	8136	785226	0	0
2024-04-11 09:32:32			0	33475	0	0	0	17283	15960	157369	27410	947057	35686	106269	0	0	8136	785073	0	0
2024-04-11 09:33:32			0	33467	0	0	0	17285	15960	157353	27802	947049	35674	106270	0	0	8135	785481	0	0
2024-04-11 09:34:32			0	33477	0	0	0	17285	15960	157289	27564	947083	35675	106270	0	0	8136	784971	0	0
2024-04-11 09:35:32			0	33484	0	0	0	17285	15960	157149	27358	947031	35675	106270	0	0	8136	784614	0	0
2024-04-11 09:36:32			0	33500	0	0	0	17285	15970	157233	27741	947126	35698	106270	0	0	8137	783756	0	0
2024-04-11 09:37:32			0	33500	0	0	0	17293	15980	157141	27588	947089	35688	106273	0	0	8137	783713	0	0
2024-04-11 09:38:32			0	33517	0	0	0	17296	15970	157121	27260	947118	35686	106274	0	0	8138	782890	0	0
2024-04-11 09:39:32			0	33541	0	0	0	17303	15970	157077	27705	947126	35676	106277	0	0	8139	781668	0	0
2024-04-11 09:40:32			0	33547	0	0	0	17322	15980	156953	27274	947116	35688	106284	0	0	8139	781321	0	0
2024-04-11 09:41:32			0	33544	0	0	0	17316	15980	156829	27535	947160	35708	106282	0	0	8139	781474	0	0
2024-04-11 09:42:32			0	33560	0	0	0	17319	15990	156897	27332	947176	35700	106283	0	0	8140	780618	0	0
2024-04-11 09:43:32			0	33583	0	0	0	17335	15990	156878	27665	947211	35700	106289	0	0	8141	779451	0	0
2024-04-11 09:44:32			0	33607	0	0	0	17337	15990	156786	27677	947237	35689	106290	0	0	8143	778234	0	0
2024-04-11 09:45:32			0	33618	0	0	0	17329	15990	156606	27713	947229	35700	106287	0	0	8144	777677	0	0
2024-04-11 09:46:32			0	33627	0	0	0	17342	15990	156518	27393	947263	35700	106292	0	0	8144	777221	0	0
2024-04-11 09:47:32			0	33636	0	0	0	17342	16000	156458	27386	947254	35701	106292	0	0	8144	776724	0	0
2024-04-11 09:48:32			0	33636	0	0	0	17353	16010	156394	27164	947262	35701	106296	0	0	8144	776682	0	0
2024-04-11 09:49:32			0	33649	0	0	0	17376	16010	156370	27409	947296	35701	106305	0	0	8145	776024	0	0
2024-04-11 09:50:32			0	33707	0	0	0	17366	16020	156206	27691	947383	35702	106301	0	0	8148	773055	0	0
2024-04-11 09:51:32			0	33707	0	0	0	17379	16030	156274	27516	947320	35703	106306	0	0	8148	773013	0	0
2024-04-11 09:52:32			0	33710	0	0	0	17392	16030	156078	27249	947373	35692	106311	0	0	8148	772862	0	0
2024-04-11 09:53:32			0	33745	0	0	0	17407	16040	155970	27298	947415	35725	106317	0	0	8150	771058	0	0
2024-04-11 09:54:32			0	33766	0	0	0	17405	16040	155934	27364	947547	35714	106316	0	0	8151	770003	0	0
2024-04-11 09:55:32			0	33778	0	0	0	17405	16050	155806	27486	947405	35705	106316	0	0	8152	769359	0	0
2024-04-11 09:56:32			0	33807	0	0	0	17441	16050	155854	27481	947519	35715	106330	0	0	8153	767904	0	0
2024-04-11 09:57:32			0	33824	0	0	0	17428	16060	155634	27590	947553	35705	106325	0	0	8154	767011	0	0
2024-04-11 09:58:32			0	33837	0	0	0	17462	16070	155526	27384	947543	35716	106338	0	0	8155	766318	0	0
2024-04-11 09:59:32			0	33851	0	0	0	17457	16080	155498	27386	947638	35717	106336	0	0	8156	765577	0	0
2024-04-11 10:00:32			0	33856	0	0	0	17480	16080	155486	27282	947664	35717	106345	0	0	8155	765327	0	0
2024-04-11 10:01:32			0	33887	0	0	0	17506	16100	155310	27602	947776	35730	106355	0	0	8157	763696	0	0
2024-04-11 10:02:32			0	33892	0	0	0	17501	16110	155190	27286	947713	35719	106353	0	0	8157	763405	0	0
2024-04-11 10:03:32			0	33905	0	0	0	17501	16110	155082	27419	947826	35731	106353	0	0	8158	762757	0	0
2024-04-11 10:04:32			0	33949	0	0	0	17496	16120	154990	27431	947869	35721	106351	0	0	8161	760525	0	0
2024-04-11 10:05:32			0	33951	0	0	0	17490	16120	154946	27729	947790	35732	106349	0	0	8161	760425	0	0
2024-04-11 10:06:32			0	33974	0	0	0	17483	16130	154950	27509	947851	35743	106346	0	0	8163	759241	0	0
2024-04-11 10:07:32			0	33967	0	0	0	17490	16130	154930	27338	947859	35711	106349	0	0	8162	759589	0	0
2024-04-11 10:08:32			0	33960	0	0	0	17493	16140	154878	27471	947841	35722	106350	0	0	8162	759896	0	0
2024-04-11 10:09:32			0	33976	0	0	0	17503	16140	154982	27679	947875	35723	106354	0	0	8162	759101	0	0
2024-04-11 10:10:32			0	33968	0	0	0	17522	16140	154930	27415	947875	35734	106361	0	0	8162	759498	0	0
2024-04-11 10:11:32			0	33985	0	0	0	17514	16150	154830	27727	947917	35734	106358	0	0	8163	758613	0	0
2024-04-11 10:12:32			0	34001	0	0	0	17514	16160	154782	27345	947899	35734	106358	0	0	8164	757778	0	0
2024-04-11 10:13:32			0	34005	0	0	0	17540	16170	154746	27538	947986	35735	106368	0	0	8164	757539	0	0
2024-04-11 10:14:32			0	34008	0	0	0	17550	16180	154754	27383	948055	35736	106372	0	0	8164	757349	0	0
2024-04-11 10:15:32			0	34031	0	0	0	17540	16180	154690	27537	948063	35737	106368	0	0	8165	756210	0	0
2024-04-11 10:16:32			0	34033	0	0	0	17535	16180	154702	27445	948002	35725	106366	0	0	8165	756111	0	0
2024-04-11 10:17:32			0	34003	0	0	0	17542	16190	154694	27498	948019	35737	106369	0	0	8163	757556	0	0
2024-04-11 10:18:32			0	34021	0	0	0	17535	16190	154582	27533	947992	35748	106366	0	0	8165	756664	0	0
2024-04-11 10:19:32			0	34020	0	0	0	17532	16200	154490	27166	948069	35750	106365	0	0	8165	756673	0	0
2024-04-11 10:20:32			0	34020	0	0	0	17540	16190	154538	27542	948027	35738	106368	0	0	8164	756714	0	0
2024-04-11 10:21:32			0	34024	0	0	0	17545	16210	154550	27313	948077	35738	106370	0	0	8165	756434	0	0
2024-04-11 10:22:32			0	34039	0	0	0	17555	16200	154522	27190	948148	35738	106374	0	0	8165	755732	0	0
2024-04-11 10:23:32			0	34044	0	0	0	17566	16200	154462	27795	948122	35738	106378	0	0	8165	755485	0	0
2024-04-11 10:24:32			0	34039	0	0	0	17571	16220	154498	27445	948199	35750	106380	0	0	8165	755650	0	0
2024-04-11 10:25:32			0	34050	0	0	0	17581	16220	154426	27673	948172	35740	106384	0	0	8166	755106	0	0
2024-04-11 10:26:32			0	34046	0	0	0	17566	16230	154418	27409	948249	35741	106378	0	0	8166	755263	0	0
2024-04-11 10:27:32			0	34050	0	0	0	17581	16230	154510	27459	948197	35741	106384	0	0	8166	755066	0	0
2024-04-11 10:28:32			0	34048	0	0	0	17607	16240	154426	27500	948284	35752	106394	0	0	8165	755124	0	0
2024-04-11 10:29:32			0	34075	0	0	0	17587	16240	154474	27609	948265	35763	106386	0	0	8167	753789	0	0
2024-04-11 10:30:32			0	34065	0	0	0	17584	16240	154418	27670	948239	35763	106385	0	0	8167	754283	0	0
2024-04-11 10:31:32			0	34061	0	0	0	17592	16250	154322	27887	948247	35752	106388	0	0	8166	754440	0	0
2024-04-11 10:32:32			0	34081	0	0	0	17605	16250	154366	27568	948335	35742	106393	0	0	8167	753452	0	0
2024-04-11 10:33:32			0	34077	0	0	0	17605	16260	154234	27789	948351	35765	106393	0	0	8167	753609	0	0
2024-04-11 10:34:32			0	34070	0	0	0	17602	16250	154306	27554	948335	35752	106392	0	0	8167	753995	0	0
2024-04-11 10:35:32			0	34096	0	0	0	17607	16270	154314	27493	948332	35754	106394	0	0	8168	752631	0	0
2024-04-11 10:36:32			0	34082	0	0	0	17615	16270	154302	27507	948332	35754	106397	0	0	8167	753321	0	0
2024-04-11 10:37:32			0	34099	0	0	0	17599	16270	154286	27750	948332	35744	106391	0	0	8168	752483	0	0
2024-04-11 10:38:32			0	34103	0	0	0	17612	16270	154238	27895	948367	35776	106396	0	0	8168	752286	0	0
2024-04-11 10:39:32			0	34100	0	0	0	17607	16270	154294	27907	948341	35754	106394	0	0	8168	752434	0	0
2024-04-11 10:40:32			0	34102	0	0	0	17623	16270	154134	27415	948367	35765	106400	0	0	8168	752335	0	0
2024-04-11 10:41:32			0	34100	0	0	0	17612	16280	154010	27493	948375	35745	106396	0	0	8168	752393	0	0
2024-04-11 10:42:32			0	34098	0	0	0	17612	16290	153966	27410	948417	35767	106396	0	0	8168	752451	0	0
2024-04-11 10:43:32			0	34119	0	0	0	17618	16280	153970	27757	948375	35766	106398	0	0	8169	751456	0	0
2024-04-11 10:44:32			0	34139	0	0	0	17618	16280	154006	27965	948409	35756	106398	0	0	8170	750472	0	0
2024-04-11 10:45:32			0	34128	0	0	0	17625	16290	153990	27637	948478	35767	106401	0	0	8170	750973	0	0
2024-04-11 10:46:32			0	34133	0	0	0	17625	16280	153978	27578	948436	35767	106401	0	0	8170	750767	0	0
2024-04-11 10:47:32			0	34136	0	0	0	17646	16290	153990	27871	948470	35767	106409	0	0	8170	750579	0	0
2024-04-11 10:48:32			0	34128	0	0	0	17649	16310	154022	27628	948476	35768	106410	0	0	8169	750891	0	0
2024-04-11 10:49:32			0	34131	0	0	0	17651	16310	153902	27372	948537	35791	106411	0	0	8170	750744	0	0
2024-04-11 10:50:32			0	34134	0	0	0	17662	16310	154034	27635	948590	35791	106415	0	0	8170	750596	0	0
2024-04-11 10:51:32			0	34144	0	0	0	17664	16320	153902	27431	948545	35780	106416	0	0	8170	750063	0	0
2024-04-11 10:52:32			0	34137	0	0	0	17672	16320	153870	27531	948598	35780	106419	0	0	8170	750408	0	0
2024-04-11 10:53:32			0	34134	0	0	0	17677	16310	153898	27498	948563	35768	106421	0	0	8169	750596	0	0
2024-04-11 10:54:32			0	34134	0	0	0	17685	16330	153934	27566	948614	35771	106424	0	0	8169	750515	0	0
2024-04-11 10:55:32			0	34157	0	0	0	17675	16330	153874	27706	948622	35771	106420	0	0	8171	749384	0	0
2024-04-11 10:56:32			0	34145	0	0	0	17690	16330	153902	27711	948648	35782	106426	0	0	8170	749974	0	0
2024-04-11 10:57:32			0	34145	0	0	0	17698	16340	153966	27592	948683	35792	106429	0	0	8170	749933	0	0
2024-04-11 10:58:32			0	34156	0	0	0	17701	16340	153834	27760	948612	35804	106430	0	0	8170	749392	0	0
2024-04-11 10:59:32			0	34154	0	0	0	17709	16350	153834	27788	948707	35794	106433	0	0	8170	749450	0	0
2024-04-11 11:00:32			0	34155	0	0	0	17716	16360	153782	27779	948749	35794	106436	0	0	8170	749361	0	0
2024-04-11 11:01:32			0	34165	0	0	0	17711	16370	153770	27595	948705	35785	106434	0	0	8171	748829	0	0
2024-04-11 11:02:32			0	34183	0	0	0	17729	16370	153738	27701	948810	35806	106441	0	0	8172	747945	0	0
2024-04-11 11:03:32			0	34191	0	0	0	17709	16370	153754	27618	948792	35795	106433	0	0	8172	747552	0	0
2024-04-11 11:04:32			0	34191	0	0	0	17703	16380	153746	27722	948748	35785	106431	0	0	8173	747512	0	0
2024-04-11 11:05:32			0	34207	0	0	0	17722	16380	153646	27729	948721	35785	106438	0	0	8173	746727	0	0
2024-04-11 11:06:32			0	34204	0	0	0	17722	16380	153682	27568	948808	35786	106438	0	0	8173	746875	0	0
2024-04-11 11:07:32			0	34203	0	0	0	17737	16380	153682	27464	948853	35795	106444	0	0	8173	746924	0	0
2024-04-11 11:08:32			0	34226	0	0	0	17737	16380	153642	27407	948835	35786	106444	0	0	8174	745797	0	0
2024-04-11 11:09:32			0	34218	0	0	0	17740	16390	153578	27696	948816	35797	106445	0	0	8173	746148	0	0
2024-04-11 11:10:32			0	34229	0	0	0	17742	16400	153506	27611	948885	35787	106446	0	0	8174	745569	0	0
2024-04-11 11:11:32			0	34256	0	0	0	17748	16400	153418	27493	948938	35809	106448	0	0	8176	744248	0	0
2024-04-11 11:12:32			0	34261	0	0	0	17758	16400	153358	27743	948964	35809	106452	0	0	8176	744004	0	0
2024-04-11 11:13:32			0	34249	0	0	0	17755	16410	153414	27575	948901	35809	106451	0	0	8175	744550	0	0
2024-04-11 11:14:32			0	34278	0	0	0	17763	16410	153366	27800	948928	35809	106454	0	0	8177	743133	0	0
2024-04-11 11:15:32			0	34285	0	0	0	17763	16410	153262	28037	948910	35810	106454	0	0	8177	742792	0	0
2024-04-11 11:16:32			0	34297	0	0	0	17766	16430	153210	27585	949013	35800	106455	0	0	8178	742126	0	0
2024-04-11 11:17:32			0	34331	0	0	0	17766	16430	153082	27675	948987	35800	106455	0	0	8180	740469	0	0
2024-04-11 11:18:32			0	34318	0	0	0	17771	16440	153122	27819	949029	35791	106457	0	0	8179	741062	0	0
2024-04-11 11:19:32			0	34327	0	0	0	17771	16440	152994	27587	949029	35812	106457	0	0	8179	740624	0	0
2024-04-11 11:20:32			0	34338	0	0	0	17771	16440	153066	27242	949011	35812	106457	0	0	8180	740088	0	0
2024-04-11 11:21:32			0	34350	0	0	0	17774	16440	152979	27822	949003	35801	106458	0	0	8181	739504	0	0
2024-04-11 11:22:32			0	34378	0	0	0	17766	16450	152903	27653	949072	35824	106455	0	0	8182	738103	0	0
2024-04-11 11:23:32			0	34373	0	0	0	17768	16440	152815	27876	949037	35812	106456	0	0	8182	738386	0	0
2024-04-11 11:24:32			0	34387	0	0	0	17768	16440	152827	27376	949011	35823	106456	0	0	8183	737706	0	0
2024-04-11 11:25:32			0	34400	0	0	0	17776	16440	152739	27445	949063	35823	106459	0	0	8184	737075	0	0
2024-04-11 11:26:32			0	34402	0	0	0	17776	16450	152655	27582	949053	35813	106459	0	0	8184	736939	0	0
2024-04-11 11:27:32			0	34401	0	0	0	17794	16460	152763	27545	949088	35813	106466	0	0	8183	736947	0	0
2024-04-11 11:28:32			0	34396	0	0	0	17799	16450	152691	27571	949106	35825	106468	0	0	8183	737230	0	0
2024-04-11 11:29:32			0	34386	0	0	0	17799	16470	152759	27637	949175	35825	106468	0	0	8182	737635	0	0
2024-04-11 11:30:32			0	34398	0	0	0	17810	16470	152803	27935	949096	35814	106472	0	0	8183	737053	0	0
2024-04-11 11:31:32			0	34361	0	0	0	17818	16480	152723	27599	949173	35805	106475	0	0	8181	738810	0	0
2024-04-11 11:32:32			0	34368	0	0	0	17820	16480	152775	27673	949165	35826	106476	0	0	8181	738469	0	0
2024-04-11 11:33:32			0	34370	0	0	0	17838	16480	152859	27770	949225	35816	106483	0	0	8181	738372	0	0
2024-04-11 11:34:32			0	34353	0	0	0	17838	16480	152847	27979	949217	35815	106483	0	0	8180	739198	0	0
2024-04-11 11:35:32			0	34358	0	0	0	17841	16490	152859	27504	949321	35837	106484	0	0	8180	738915	0	0
2024-04-11 11:36:32			0	34360	0	0	0	17844	16500	152795	27838	949205	35839	106485	0	0	8180	738778	0	0
2024-04-11 11:37:32			0	34375	0	0	0	17844	16500	152823	27530	949197	35817	106485	0	0	8181	738050	0	0
2024-04-11 11:38:32			0	34375	0	0	0	17851	16500	152699	27582	949258	35829	106488	0	0	8181	738050	0	0
2024-04-11 11:39:32			0	34374	0	0	0	17857	16510	152799	27602	949353	35829	106490	0	0	8181	738058	0	0
2024-04-11 11:40:32			0	34389	0	0	0	17859	16510	152687	27637	949353	35829	106491	0	0	8182	737330	0	0
2024-04-11 11:41:32			0	34378	0	0	0	17857	16520	152659	27524	949361	35839	106490	0	0	8181	737824	0	0
2024-04-11 11:42:32			0	34381	0	0	0	17846	16520	152699	27878	949317	35840	106486	0	0	8182	737678	0	0
2024-04-11 11:43:32			0	34388	0	0	0	17857	16520	152527	27755	949396	35840	106490	0	0	8182	737339	0	0
2024-04-11 11:44:32			0	34408	0	0	0	17859	16530	152623	27550	949404	35851	106491	0	0	8183	736329	0	0
2024-04-11 11:45:32			0	34422	0	0	0	17872	16520	152575	27713	949343	35840	106496	0	0	8184	735690	0	0
2024-04-11 11:46:32			0	34399	0	0	0	17857	16540	152551	27253	949394	35841	106490	0	0	8183	736725	0	0
2024-04-11 11:47:32			0	34399	0	0	0	17870	16530	152555	27992	949359	35841	106495	0	0	8182	736765	0	0
2024-04-11 11:48:32			0	34406	0	0	0	17872	16540	152623	27331	949446	35841	106496	0	0	8183	736386	0	0
2024-04-11 11:49:32			0	34404	0	0	0	17867	16530	152507	27658	949430	35819	106494	0	0	8183	736523	0	0
2024-04-11 11:50:32			0	34401	0	0	0	17859	16540	152735	27861	949420	35831	106491	0	0	8183	736628	0	0
2024-04-11 11:51:32			0	34388	0	0	0	17859	16540	152703	27391	949402	35842	106491	0	0	8182	737259	0	0
2024-04-11 11:52:32			0	34357	0	0	0	17844	16540	152711	27633	949375	35821	106485	0	0	8180	738764	0	0
2024-04-11 11:53:32			0	34374	0	0	0	17836	16540	152711	27326	949367	35841	106482	0	0	8181	737938	0	0
2024-04-11 11:54:32			0	34374	0	0	0	17846	16550	152707	27267	949410	35842	106486	0	0	8181	737898	0	0
2024-04-11 11:55:32			0	34369	0	0	0	17849	16530	152651	27428	949359	35831	106487	0	0	8181	738221	0	0
2024-04-11 11:56:32			0	34378	0	0	0	17844	16540	152711	27550	949349	35842	106485	0	0	8182	737744	0	0
2024-04-11 11:57:32			0	34376	0	0	0	17851	16540	152783	27660	949428	35842	106488	0	0	8181	737841	0	0
2024-04-11 11:58:32			0	34363	0	0	0	17849	16550	152679	27410	949436	35832	106487	0	0	8181	738433	0	0
2024-04-11 11:59:32			0	34380	0	0	0	17849	16540	152699	27433	949394	35841	106487	0	0	8182	737647	0	0
2024-04-11 12:00:32			0	34383	0	0	0	17859	16540	152615	27332	949428	35832	106491	0	0	8182	737502	0	0
2024-04-11 12:01:32			0	34391	0	0	0	17864	16540	152555	27296	949394	35841	106493	0	0	8182	737113	0	0
2024-04-11 12:02:32			0	34414	0	0	0	17870	16550	152551	27395	949418	35821	106495	0	0	8183	735958	0	0
2024-04-11 12:03:32			0	34418	0	0	0	17875	16550	152539	27578	949444	35843	106497	0	0	8183	735765	0	0
2024-04-11 12:04:32			0	34402	0	0	0	17862	16560	152499	27478	949487	35843	106492	0	0	8183	736500	0	0
2024-04-11 12:05:32			0	34421	0	0	0	17841	16560	152435	27578	949479	35843	106484	0	0	8184	735579	0	0
2024-04-11 12:06:32			0	34425	0	0	0	17828	16550	152451	27454	949444	35854	106479	0	0	8185	735426	0	0
2024-04-11 12:07:32			0	34441	0	0	0	17864	16550	152423	27348	949497	35854	106493	0	0	8185	734651	0	0
2024-04-11 12:08:32			0	34450	0	0	0	17893	16550	152479	27462	949436	35842	106504	0	0	8185	734216	0	0
2024-04-11 12:09:32			0	34414	0	0	0	17906	16560	152499	27471	949558	35843	106509	0	0	8183	735918	0	0
2024-04-11 12:10:32			0	34450	0	0	0	17919	16570	152323	27741	949574	35855	106514	0	0	8185	734136	0	0
2024-04-11 12:11:32			0	34429	0	0	0	17883	16560	152291	27732	949566	35843	106500	0	0	8184	735192	0	0
2024-04-11 12:12:32			0	34445	0	0	0	17880	16580	152315	27324	949564	35844	106499	0	0	8185	734338	0	0
2024-04-11 12:13:32			0	34451	0	0	0	17875	16570	152335	27222	949477	35855	106497	0	0	8185	734088	0	0
2024-04-11 12:14:32			0	34450	0	0	0	17890	16570	152391	27675	949503	35844	106503	0	0	8185	734136	0	0
2024-04-11 12:15:32			0	34436	0	0	0	17901	16580	152427	27419	949564	35844	106507	0	0	8184	734774	0	0
2024-04-11 12:16:32			0	34432	0	0	0	17909	16580	152347	27331	949598	35856	106510	0	0	8184	734967	0	0
2024-04-11 12:17:32			0	34425	0	0	0	17911	16590	152395	27673	949606	35857	106511	0	0	8183	735266	0	0
2024-04-11 12:18:32			0	34434	0	0	0	17916	16590	152503	27710	949633	35857	106513	0	0	8184	734831	0	0
2024-04-11 12:19:32			0	34425	0	0	0	17898	16600	152467	27396	949649	35858	106506	0	0	8184	735227	0	0
2024-04-11 12:20:32			0	34430	0	0	0	17924	16600	152431	27381	949702	35858	106516	0	0	8183	734984	0	0
2024-04-11 12:21:32			0	34434	0	0	0	17916	16590	152511	27597	949667	35868	106513	0	0	8184	734831	0	0
2024-04-11 12:22:32			0	34436	0	0	0	17935	16600	152507	27504	949736	35858	106520	0	0	8184	734694	0	0
2024-04-11 12:23:32			0	34428	0	0	0	17935	16600	152411	27138	949683	35869	106520	0	0	8183	735081	0	0
2024-04-11 12:24:32			0	34423	0	0	0	17890	16610	152379	27280	949718	35870	106503	0	0	8184	735284	0	0
2024-04-11 12:25:32			0	34432	0	0	0	17880	16610	152251	27601	949673	35870	106499	0	0	8184	734848	0	0
2024-04-11 12:26:32			0	34473	0	0	0	17883	16610	152211	27502	949620	35870	106500	0	0	8187	732866	0	0
2024-04-11 12:27:32			0	34466	0	0	0	17880	16610	152223	27599	949612	35859	106499	0	0	8186	733204	0	0
2024-04-11 12:28:32			0	34474	0	0	0	17872	16590	152235	27460	949614	35846	106496	0	0	8187	732897	0	0
2024-04-11 12:29:32			0	34450	0	0	0	17880	16610	152327	27282	949612	35859	106499	0	0	8185	733977	0	0
2024-04-11 12:30:32			0	34400	0	0	0	17877	16600	152491	27350	949570	35869	106498	0	0	8183	736438	0	0
2024-04-11 12:31:32			0	34389	0	0	0	17888	16600	152603	27426	949657	35869	106502	0	0	8182	736971	0	0
2024-04-11 12:32:32			0	34347	0	0	0	17893	16600	152651	27400	949631	35858	106504	0	0	8179	739010	0	0
2024-04-11 12:33:32			0	34335	0	0	0	17896	16600	152722	27606	949578	35869	106505	0	0	8179	739594	0	0
2024-04-11 12:34:32			0	34333	0	0	0	17893	16600	152822	27448	949631	35858	106504	0	0	8178	739691	0	0
2024-04-11 12:35:32			0	34326	0	0	0	17888	16610	152774	27395	949560	35870	106502	0	0	8178	739991	0	0
2024-04-11 12:36:32			0	34331	0	0	0	17893	16610	152862	27485	949647	35870	106504	0	0	8178	739748	0	0
2024-04-11 12:37:32			0	34333	0	0	0	17885	16600	152898	27507	949649	35858	106501	0	0	8179	739691	0	0
2024-04-11 12:38:32			0	34335	0	0	0	17896	16600	152870	27753	949631	35869	106505	0	0	8179	739594	0	0
2024-04-11 12:39:32			0	34332	0	0	0	17880	16600	152794	27353	949604	35858	106499	0	0	8179	739740	0	0
2024-04-11 12:40:32			0	34351	0	0	0	17877	16600	152735	27679	949604	35858	106498	0	0	8180	738816	0	0
2024-04-11 12:41:32			0	34340	0	0	0	17867	16600	152698	27267	949623	35869	106494	0	0	8179	739351	0	0
2024-04-11 12:42:32			0	34348	0	0	0	17896	16600	152750	27310	949596	35869	106505	0	0	8179	738962	0	0
2024-04-11 12:43:32			0	34382	0	0	0	17940	16600	152843	27365	949649	35858	106522	0	0	8180	737311	0	0
2024-04-11 12:44:32			0	34399	0	0	0	17968	16590	152531	27689	949694	35878	106533	0	0	8181	736526	0	0
2024-04-11 12:45:32			0	34423	0	0	0	17922	16600	152419	27701	949649	35869	106515	0	0	8183	735323	0	0
2024-04-11 12:46:32			0	34416	0	0	0	17911	16610	152451	27568	949700	35870	106511	0	0	8183	735623	0	0
2024-04-11 12:47:32			0	34410	0	0	0	17929	16620	152403	27307	949734	35870	106518	0	0	8182	735873	0	0
2024-04-11 12:48:32			0	34428	0	0	0	17909	16610	152395	27315	949665	35870	106510	0	0	8184	735041	0	0
2024-04-11 12:49:32			0	34434	0	0	0	17911	16620	152331	27331	949708	35859	106511	0	0	8184	734712	0	0
2024-04-11 12:50:32			0	34458	0	0	0	17901	16620	152223	27232	949708	35870	106507	0	0	8186	733551	0	0
2024-04-11 12:51:32			0	34442	0	0	0	17875	16610	152131	27319	949726	35870	106497	0	0	8185	734364	0	0
2024-04-11 12:52:32			0	34455	0	0	0	17880	16620	152235	27736	949708	35881	106499	0	0	8186	733696	0	0
2024-04-11 12:53:32			0	34468	0	0	0	17896	16610	152251	27755	949700	35870	106505	0	0	8186	733107	0	0
2024-04-11 12:54:32			0	34475	0	0	0	17929	16620	152207	27784	949716	35870	106518	0	0	8186	732730	0	0
2024-04-11 12:55:32			0	34488	0	0	0	17955	16610	152243	27524	949726	35880	106528	0	0	8186	732142	0	0
2024-04-11 12:56:32			0	34494	0	0	0	17992	16620	152127	27459	949769	35870	106542	0	0	8186	731813	0	0
2024-04-11 12:57:32			0	34529	0	0	0	18018	16630	152075	27441	949890	35871	106552	0	0	8188	730086	0	0
2024-04-11 12:58:32			0	34566	0	0	0	18031	16640	151847	27488	949925	35882	106557	0	0	8190	728267	0	0
2024-04-11 12:59:32			0	34603	0	0	0	18018	16640	151683	27627	949951	35882	106552	0	0	8192	726491	0	0
2024-04-11 13:00:32			0	34605	0	0	0	18007	16650	151591	27966	949915	35894	106548	0	0	8192	726356	0	0
2024-04-11 13:01:32			0	34623	0	0	0	18010	16670	151503	27698	950026	35885	106549	0	0	8193	725414	0	0
2024-04-11 13:02:32			0	34645	0	0	0	17997	16670	151479	27497	950000	35896	106544	0	0	8195	724361	0	0
2024-04-11 13:03:32			0	34632	0	0	0	17999	16680	151463	27490	950069	35897	106545	0	0	8194	724944	0	0
2024-04-11 13:04:32			0	34655	0	0	0	18036	16680	151351	27911	950077	35886	106559	0	0	8195	723843	0	0
2024-04-11 13:05:32			0	34671	0	0	0	18007	16680	151183	27781	950051	35897	106548	0	0	8196	723078	0	0
2024-04-11 13:06:32			0	34692	0	0	0	18062	16690	151139	27445	950085	35897	106569	0	0	8196	722036	0	0
2024-04-11 13:07:32			0	34730	0	0	0	18062	16700	151039	27982	950128	35898	106569	0	0	8199	720185	0	0
2024-04-11 13:08:32			0	34739	0	0	0	18002	16690	151023	27485	950120	35898	106546	0	0	8200	719795	0	0
2024-04-11 13:09:32			0	34696	0	0	0	17940	16700	151095	27715	950083	35899	106522	0	0	8199	721806	0	0
2024-04-11 13:10:32			0	34651	0	0	0	17945	16700	151303	27774	950075	35887	106524	0	0	8196	723956	0	0
2024-04-11 13:11:32			0	34619	0	0	0	17937	16690	151367	27431	949988	35876	106521	0	0	8194	725527	0	0
2024-04-11 13:12:32			0	34625	0	0	0	17940	16680	151511	27639	949945	35886	106522	0	0	8195	725279	0	0
2024-04-11 13:13:32			0	34601	0	0	0	17937	16680	151611	27904	949919	35886	106521	0	0	8193	726429	0	0
2024-04-11 13:14:32			0	34583	0	0	0	17940	16680	151723	27654	949884	35885	106522	0	0	8192	727293	0	0
2024-04-11 13:15:32			0	34578	0	0	0	17948	16680	151723	27675	949884	35885	106525	0	0	8192	727533	0	0
2024-04-11 13:16:32			0	34573	0	0	0	17966	16670	151755	27918	949947	35896	106532	0	0	8191	727813	0	0
2024-04-11 13:17:32			0	34600	0	0	0	17986	16670	151659	27850	949947	35885	106540	0	0	8192	726517	0	0
2024-04-11 13:18:32			0	34614	0	0	0	17971	16680	151491	27485	950016	35875	106534	0	0	8193	725806	0	0
2024-04-11 13:19:32			0	34602	0	0	0	17955	16670	151615	27680	949955	35885	106528	0	0	8193	726421	0	0
2024-04-11 13:20:32			0	34583	0	0	0	17950	16680	151651	27821	949972	35897	106526	0	0	8192	727293	0	0
2024-04-11 13:21:32			0	34592	0	0	0	17940	16670	151475	27367	949903	35908	106522	0	0	8193	726900	0	0
2024-04-11 13:22:32			0	34582	0	0	0	17968	16680	151551	27545	949911	35897	106533	0	0	8192	727341	0	0
2024-04-11 13:23:32			0	34577	0	0	0	17974	16670	151559	27635	949947	35896	106535	0	0	8191	727620	0	0
2024-04-11 13:24:32			0	34587	0	0	0	17999	16670	151583	27940	950061	35908	106545	0	0	8191	727140	0	0
2024-04-11 13:25:32			0	34584	0	0	0	17927	16670	151507	27748	949921	35896	106517	0	0	8192	727284	0	0
2024-04-11 13:26:32			0	34571	0	0	0	17932	16670	151591	27829	949903	35897	106519	0	0	8192	727909	0	0
2024-04-11 13:27:32			0	34564	0	0	0	17981	16670	151707	27357	949876	35908	106538	0	0	8190	728245	0	0
2024-04-11 13:28:32			0	34583	0	0	0	18005	16670	151715	27615	950026	35896	106547	0	0	8191	727332	0	0
2024-04-11 13:29:32			0	34595	0	0	0	18023	16680	151587	27998	950043	35908	106554	0	0	8192	726717	0	0
2024-04-11 13:30:32			0	34600	0	0	0	18002	16680	151611	27462	950077	35897	106546	0	0	8192	726477	0	0
2024-04-11 13:31:32			0	34602	0	0	0	18041	16680	151551	27795	950103	35908	106561	0	0	8192	726381	0	0
2024-04-11 13:32:32			0	34621	0	0	0	18051	16700	151471	27850	950128	35909	106565	0	0	8193	725392	0	0
2024-04-11 13:33:32			0	34638	0	0	0	18049	16700	151539	28136	950154	35919	106564	0	0	8194	724578	0	0
2024-04-11 13:34:32			0	34621	0	0	0	18057	16710	151523	27862	950170	35921	106567	0	0	8193	725353	0	0
2024-04-11 13:35:32			0	34620	0	0	0	18049	16700	151411	27573	950188	35920	106564	0	0	8193	725440	0	0
2024-04-11 13:36:32			0	34617	0	0	0	18067	16710	151511	27531	950231	35911	106571	0	0	8192	725544	0	0
2024-04-11 13:37:32			0	34625	0	0	0	18070	16720	151435	27772	950247	35922	106572	0	0	8193	725122	0	0
2024-04-11 13:38:32			0	34618	0	0	0	18064	16720	151495	27691	950274	35933	106570	0	0	8192	725457	0	0
2024-04-11 13:39:32			0	34620	0	0	0	18075	16730	151519	27391	950290	35934	106574	0	0	8192	725322	0	0
2024-04-11 13:40:32			0	34594	0	0	0	18080	16740	151511	27760	950324	35912	106576	0	0	8191	726529	0	0
2024-04-11 13:41:32			0	34597	0	0	0	18072	16750	151511	27694	950359	35923	106573	0	0	8191	726346	0	0
2024-04-11 13:42:32			0	34583	0	0	0	18064	16750	151583	27842	950314	35935	106570	0	0	8190	727017	0	0
2024-04-11 13:43:32			0	34580	0	0	0	18046	16750	151671	27706	950341	35924	106563	0	0	8191	727161	0	0
2024-04-11 13:44:32			0	34570	0	0	0	18049	16770	151647	27516	950339	35915	106564	0	0	8190	727563	0	0
2024-04-11 13:45:32			0	34525	0	0	0	18046	16750	151723	27369	950288	35914	106563	0	0	8187	729805	0	0
2024-04-11 13:46:32			0	34549	0	0	0	18036	16750	151767	27391	950288	35924	106559	0	0	8189	728650	0	0
2024-04-11 13:47:32			0	34523	0	0	0	18036	16750	151891	27492	950262	35924	106559	0	0	8188	729901	0	0
2024-04-11 13:48:32			0	34498	0	0	0	18041	16750	151927	27850	950280	35923	106561	0	0	8186	731105	0	0
2024-04-11 13:49:32			0	34517	0	0	0	18041	16750	151907	27498	950306	35902	106561	0	0	8187	730190	0	0
2024-04-11 13:50:32			0	34515	0	0	0	18031	16760	151763	27554	950243	35914	106557	0	0	8187	730247	0	0
2024-04-11 13:51:32			0	34511	0	0	0	18038	16750	151803	27868	950288	35914	106560	0	0	8187	730479	0	0
2024-04-11 13:52:32			0	34540	0	0	0	18033	16740	151919	27734	950245	35934	106558	0	0	8189	729123	0	0
2024-04-11 13:53:32			0	34520	0	0	0	18038	16750	151683	27391	950174	35923	106560	0	0	8187	730045	0	0
2024-04-11 13:54:32			0	34532	0	0	0	18033	16750	151771	27608	950227	35923	106558	0	0	8188	729468	0	0
2024-04-11 13:55:32			0	34532	0	0	0	18033	16730	151691	27815	950263	35923	106558	0	0	8188	729547	0	0
2024-04-11 13:56:32			0	34522	0	0	0	18028	16730	151675	27777	950263	35923	106556	0	0	8188	730028	0	0
2024-04-11 13:57:32			0	34538	0	0	0	18070	16740	151723	28275	950219	35923	106572	0	0	8188	729219	0	0
2024-04-11 13:58:32			0	34527	0	0	0	18067	16740	151815	27781	950192	35934	106571	0	0	8187	729748	0	0
2024-04-11 13:59:32			0	34492	0	0	0	18062	16760	151707	27613	950296	35924	106569	0	0	8185	731355	0	0
2024-04-11 14:00:32			0	34517	0	0	0	18049	16730	151795	27831	950263	35923	106564	0	0	8187	730269	0	0
2024-04-11 14:01:32			0	34522	0	0	0	18051	16750	151711	27859	950280	35935	106565	0	0	8187	729949	0	0
2024-04-11 14:02:32			0	34531	0	0	0	18059	16750	151683	27750	950333	35923	106568	0	0	8188	729516	0	0
2024-04-11 14:03:32			0	34512	0	0	0	18051	16750	151747	27744	950314	35935	106565	0	0	8187	730430	0	0
2024-04-11 14:04:32			0	34520	0	0	0	18054	16750	151791	27838	950341	35924	106566	0	0	8187	730045	0	0
2024-04-11 14:05:32			0	34507	0	0	0	18059	16750	151847	27583	950262	35935	106568	0	0	8186	730671	0	0
2024-04-11 14:06:32			0	34490	0	0	0	18049	16750	151895	27765	950288	35924	106564	0	0	8185	731491	0	0
2024-04-11 14:07:32			0	34496	0	0	0	18049	16760	151783	27706	950402	35935	106564	0	0	8186	731162	0	0
2024-04-11 14:08:32			0	34502	0	0	0	18041	16750	151907	27630	950314	35935	106561	0	0	8186	730912	0	0
2024-04-11 14:09:32			0	34482	0	0	0	18072	16750	151887	27428	950288	35946	106573	0	0	8185	731876	0	0
2024-04-11 14:10:32			0	34496	0	0	0	18090	16760	151923	27580	950322	35958	106580	0	0	8185	731162	0	0
2024-04-11 14:11:32			0	34514	0	0	0	18101	16760	151851	27585	950375	35924	106584	0	0	8186	730295	0	0
2024-04-11 14:12:32			0	34518	0	0	0	18114	16770	151723	27320	950347	35948	106589	0	0	8186	730062	0	0
2024-04-11 14:13:32			0	34524	0	0	0	18122	16760	151679	27933	950462	35947	106592	0	0	8186	729813	0	0
2024-04-11 14:14:32			0	34551	0	0	0	18132	16780	151743	27628	950495	35938	106596	0	0	8188	728436	0	0
2024-04-11 14:15:32			0	34557	0	0	0	18137	16790	151643	27840	950556	35938	106598	0	0	8188	728108	0	0
2024-04-11 14:16:32			0	34562	0	0	0	18148	16790	151571	27647	950661	35959	106602	0	0	8188	727868	0	0
2024-04-11 14:17:32			0	34600	0	0	0	18174	16800	151495	27757	950572	35950	106612	0	0	8190	726005	0	0
2024-04-11 14:18:32			0	34621	0	0	0	18189	16810	151307	27407	950728	35951	106618	0	0	8191	724960	0	0
2024-04-11 14:19:32			0	34602	0	0	0	18181	16820	151427	27521	950691	35973	106615	0	0	8190	725831	0	0
2024-04-11 14:20:32			0	34606	0	0	0	18210	16830	151299	27497	950760	35963	106626	0	0	8190	725600	0	0
2024-04-11 14:21:32			0	34635	0	0	0	18212	16840	151231	27552	950847	35964	106627	0	0	8191	724172	0	0
2024-04-11 14:22:32			0	34651	0	0	0	18249	16850	151171	27868	950890	35965	106641	0	0	8192	723368	0	0
2024-04-11 14:23:32			0	34685	0	0	0	18275	16870	151015	27486	951002	35966	106651	0	0	8193	721666	0	0
2024-04-11 14:24:32			0	34718	0	0	0	18264	16870	150843	27750	951010	35988	106647	0	0	8195	720093	0	0
2024-04-11 14:25:32			0	34720	0	0	0	18316	16900	150855	27473	951156	35980	106667	0	0	8195	719881	0	0
2024-04-11 14:26:32			0	34770	0	0	0	18340	16910	150707	27871	951101	35981	106676	0	0	8197	717464	0	0
2024-04-11 14:27:32			0	34753	0	0	0	18309	16930	150627	27597	951231	35972	106664	0	0	8197	718194	0	0
2024-04-11 14:28:32			0	34776	0	0	0	18353	16940	150523	27802	951247	35983	106681	0	0	8197	717062	0	0
2024-04-11 14:29:32			0	34798	0	0	0	18340	16950	150507	27705	951298	35984	106676	0	0	8199	715980	0	0
2024-04-11 14:30:32			0	34822	0	0	0	18342	16970	150415	27805	951348	35986	106677	0	0	8200	714765	0	0
2024-04-11 14:31:32			0	34845	0	0	0	18329	16970	150311	27829	951356	35987	106672	0	0	8202	713676	0	0
2024-04-11 14:32:32			0	34859	0	0	0	18405	16980	150227	27824	951425	36008	106701	0	0	8201	712976	0	0
2024-04-11 14:33:32			0	34891	0	0	0	18407	17000	150107	27696	951537	36010	106702	0	0	8203	711387	0	0
2024-04-11 14:34:32			0	34935	0	0	0	18415	17010	149771	27762	951580	36000	106705	0	0	8206	709275	0	0
2024-04-11 14:35:32			0	34937	0	0	0	18379	17020	149731	27346	951622	36011	106691	0	0	8206	709142	0	0
2024-04-11 14:36:32			0	34967	0	0	0	18412	17030	149679	28011	951639	36002	106704	0	0	8207	707693	0	0
2024-04-11 14:37:32			0	34960	0	0	0	18415	17040	149651	27907	951673	35992	106705	0	0	8207	707984	0	0
2024-04-11 14:38:32			0	34987	0	0	0	18436	17050	149511	27774	951689	35992	106713	0	0	8208	706677	0	0
2024-04-11 14:39:32			0	35010	0	0	0	18449	17070	149555	27902	951687	35994	106718	0	0	8209	705521	0	0
2024-04-11 14:40:32			0	35051	0	0	0	18464	17070	149295	28029	951748	36004	106724	0	0	8211	703601	0	0
2024-04-11 14:41:32			0	35078	0	0	0	18475	17080	149155	27793	951756	36016	106728	0	0	8213	702300	0	0
2024-04-11 14:42:32			0	35111	0	0	0	18480	17100	148944	27861	951876	36007	106730	0	0	8215	700683	0	0
2024-04-11 14:43:32			0	35146	0	0	0	18477	17090	148948	27504	951807	36006	106729	0	0	8217	699090	0	0
2024-04-11 14:44:32			0	35149	0	0	0	18496	17100	148824	27694	951876	36018	106736	0	0	8216	698913	0	0
2024-04-11 14:45:32			0	35165	0	0	0	18485	17110	148712	27552	951945	36019	106732	0	0	8218	698130	0	0
2024-04-11 14:46:32			0	35178	0	0	0	18493	17120	148676	27699	951961	36020	106735	0	0	8218	697488	0	0
2024-04-11 14:47:32			0	35163	0	0	0	18488	17140	148740	27746	951986	36021	106733	0	0	8218	698109	0	0
2024-04-11 14:48:32			0	35145	0	0	0	18532	17140	148780	27876	952065	36021	106750	0	0	8216	698947	0	0
2024-04-11 14:49:32			0	35182	0	0	0	18522	17150	148736	27502	952089	36034	106746	0	0	8218	697188	0	0
2024-04-11 14:50:32			0	35174	0	0	0	18537	17160	148596	27552	952097	36011	106752	0	0	8217	697522	0	0
2024-04-11 14:51:32			0	35205	0	0	0	18553	17160	148600	27838	952097	36011	106758	0	0	8219	696082	0	0
2024-04-11 14:52:32			0	35209	0	0	0	18553	17170	148476	27528	952121	36024	106758	0	0	8219	695859	0	0
2024-04-11 14:53:32			0	35235	0	0	0	18568	17180	148452	27556	952235	36036	106764	0	0	8220	694615	0	0
2024-04-11 14:54:32			0	35245	0	0	0	18561	17180	148244	27779	952190	36046	106761	0	0	8221	694152	0	0
2024-04-11 14:55:32			0	35240	0	0	0	18550	17200	148272	27880	952268	36026	106757	0	0	8221	694308	0	0
2024-04-11 14:56:32			0	35247	0	0	0	18563	17200	148396	27826	952223	36038	106762	0	0	8221	693984	0	0
2024-04-11 14:57:32			0	35191	0	0	0	18579	17200	148352	27930	952223	36026	106768	0	0	8218	696581	0	0
2024-04-11 14:58:32			0	35208	0	0	0	18574	17210	148388	27552	952318	36027	106766	0	0	8219	695754	0	0
2024-04-11 14:59:32			0	35184	0	0	0	18579	17220	148440	27585	952308	36049	106768	0	0	8218	696830	0	0
2024-04-11 15:00:32			0	35213	0	0	0	18537	17220	148452	27713	952255	36028	106752	0	0	8220	695484	0	0
2024-04-11 15:01:32			0	35189	0	0	0	18540	17220	148624	27822	952334	36039	106753	0	0	8218	696598	0	0
2024-04-11 15:02:32			0	35175	0	0	0	18563	17230	148648	28020	952271	36040	106762	0	0	8217	697211	0	0
2024-04-11 15:03:32			0	35143	0	0	0	18524	17230	148668	27822	952298	36040	106747	0	0	8216	698698	0	0
2024-04-11 15:04:32			0	35119	0	0	0	18537	17250	148636	27783	952331	36031	106752	0	0	8215	699740	0	0
2024-04-11 15:05:32			0	35094	0	0	0	18545	17230	148823	27685	952298	36040	106755	0	0	8213	700982	0	0
2024-04-11 15:06:32			0	35116	0	0	0	18563	17240	148884	28069	952280	36041	106762	0	0	8214	699918	0	0
2024-04-11 15:07:32			0	35095	0	0	0	18555	17250	148879	27516	952428	36052	106759	0	0	8213	700859	0	0
2024-04-11 15:08:32			0	35090	0	0	0	18558	17250	148971	27675	952322	36052	106760	0	0	8213	701092	0	0
2024-04-11 15:09:32			0	35086	0	0	0	18561	17250	149063	27543	952454	36041	106761	0	0	8213	701279	0	0
2024-04-11 15:10:32			0	35042	0	0	0	18550	17260	149087	27559	952391	36041	106757	0	0	8210	703296	0	0
2024-04-11 15:11:32			0	35035	0	0	0	18550	17260	149223	27999	952418	36031	106757	0	0	8210	703623	0	0
2024-04-11 15:12:32			0	34973	0	0	0	18563	17250	149303	27689	952357	36041	106762	0	0	8206	706567	0	0
2024-04-11 15:13:32			0	34960	0	0	0	18555	17270	149363	27973	952434	36053	106759	0	0	8206	707100	0	0
2024-04-11 15:14:32			0	34937	0	0	0	18532	17250	149507	27706	952331	36041	106750	0	0	8205	708257	0	0
2024-04-11 15:15:32			0	34894	0	0	0	18561	17260	149619	27866	952400	36042	106761	0	0	8202	710243	0	0
2024-04-11 15:16:32			0	34905	0	0	0	18563	17260	149807	28072	952339	36041	106762	0	0	8202	709725	0	0
2024-04-11 15:17:32			0	34931	0	0	0	18620	17260	149655	27514	952391	36041	106784	0	0	8203	708501	0	0
2024-04-11 15:18:32			0	34994	0	0	0	18623	17260	149391	27862	952479	36042	106785	0	0	8206	705543	0	0
2024-04-11 15:19:32			0	35016	0	0	0	18576	17280	149147	27940	952556	36043	106767	0	0	8209	704436	0	0
2024-04-11 15:20:32			0	35011	0	0	0	18540	17280	149155	27725	952511	36055	106753	0	0	8209	704670	0	0
2024-04-11 15:21:32			0	34949	0	0	0	18566	17280	149555	27460	952406	36034	106763	0	0	8205	707578	0	0
2024-04-11 15:22:32			0	34955	0	0	0	18597	17280	149491	27724	952529	36054	106775	0	0	8205	707296	0	0
2024-04-11 15:23:32			0	35015	0	0	0	18594	17290	149307	27717	952546	36056	106774	0	0	8208	704445	0	0
2024-04-11 15:24:32			0	35021	0	0	0	18587	17300	149151	27821	952562	36045	106771	0	0	8209	704126	0	0
2024-04-11 15:25:32			0	35029	0	0	0	18576	17300	149075	27776	952535	36056	106767	0	0	8209	703751	0	0
2024-04-11 15:26:32			0	34999	0	0	0	18548	17290	149291	27569	952554	36045	106756	0	0	8208	705194	0	0
2024-04-11 15:27:32			0	34936	0	0	0	18553	17300	149499	27575	952483	36045	106758	0	0	8205	708112	0	0
2024-04-11 15:28:32			0	34917	0	0	0	18566	17290	149551	28034	952440	36056	106763	0	0	8203	709044	0	0
2024-04-11 15:29:32			0	34912	0	0	0	18574	17290	149683	28037	952475	36056	106766	0	0	8203	709279	0	0
2024-04-11 15:30:32			0	34924	0	0	0	18599	17290	149603	27982	952501	36056	106776	0	0	8203	708715	0	0
2024-04-11 15:31:32			0	34964	0	0	0	18628	17290	149483	27807	952527	36056	106787	0	0	8205	706835	0	0
2024-04-11 15:32:32			0	35028	0	0	0	18628	17300	149247	27588	952588	36045	106787	0	0	8208	703798	0	0
2024-04-11 15:33:32			0	35054	0	0	0	18625	17300	149135	27800	952535	36067	106786	0	0	8210	702582	0	0
2024-04-11 15:34:32			0	35073	0	0	0	18631	17310	148967	27618	952604	36068	106788	0	0	8211	701657	0	0
2024-04-11 15:35:32			0	35079	0	0	0	18589	17310	148911	27788	952578	36057	106772	0	0	8212	701377	0	0
2024-04-11 15:36:32			0	35015	0	0	0	18597	17310	149147	27809	952604	36057	106775	0	0	8208	704368	0	0
2024-04-11 15:37:32			0	34990	0	0	0	18561	17320	149195	27767	952655	36058	106761	0	0	8208	705501	0	0
2024-04-11 15:38:32			0	34912	0	0	0	18555	17320	149431	27876	952515	36068	106759	0	0	8203	709164	0	0
2024-04-11 15:39:32			0	34889	0	0	0	18568	17310	149683	27923	952578	36057	106764	0	0	8202	710285	0	0
2024-04-11 15:40:32			0	34881	0	0	0	18605	17310	149779	27668	952560	36080	106778	0	0	8201	710662	0	0
2024-04-11 15:41:32			0	34955	0	0	0	18623	17310	149555	27597	952639	36068	106785	0	0	8204	707181	0	0
2024-04-11 15:42:32			0	34983	0	0	0	18641	17310	149275	27881	952613	36057	106792	0	0	8206	705867	0	0
2024-04-11 15:43:32			0	35032	0	0	0	18607	17320	149191	27980	952621	36057	106779	0	0	8209	703534	0	0
2024-04-11 15:44:32			0	35011	0	0	0	18594	17330	149267	27630	952663	36070	106774	0	0	8208	704479	0	0
2024-04-11 15:45:32			0	34982	0	0	0	18589	17320	149419	27777	952594	36090	106772	0	0	8207	705876	0	0
2024-04-11 15:46:32			0	34937	0	0	0	18589	17320	149559	27854	952594	36068	106772	0	0	8204	707988	0	0
2024-04-11 15:47:32			0	34914	0	0	0	18618	17320	149703	27715	952655	36069	106783	0	0	8202	709070	0	0
2024-04-11 15:48:32			0	34939	0	0	0	18651	17320	149591	27930	952734	36058	106796	0	0	8203	707894	0	0
2024-04-11 15:49:32			0	35002	0	0	0	18662	17330	149251	27850	952803	36070	106800	0	0	8207	704900	0	0
2024-04-11 15:50:32			0	35032	0	0	0	18641	17340	149219	27705	952864	36060	106792	0	0	8209	703458	0	0
2024-04-11 15:51:32			0	35051	0	0	0	18623	17340	149123	27677	952732	36082	106785	0	0	8210	702570	0	0
2024-04-11 15:52:32			0	34987	0	0	0	18610	17340	149319	27855	952732	36071	106780	0	0	8207	705565	0	0
2024-04-11 15:53:32			0	34988	0	0	0	18636	17340	149335	27691	952759	36060	106790	0	0	8206	705518	0	0
2024-04-11 15:54:32			0	34999	0	0	0	18662	17340	149307	27741	952706	36060	106800	0	0	8206	705002	0	0
2024-04-11 15:55:32			0	35041	0	0	0	18662	17350	149039	27478	952748	36083	106800	0	0	8209	702999	0	0
2024-04-11 15:56:32			0	35050	0	0	0	18672	17350	149063	27897	952775	36060	106804	0	0	8209	702578	0	0
2024-04-11 15:57:32			0	35076	0	0	0	18685	17350	148923	27552	952854	36060	106809	0	0	8210	701364	0	0
2024-04-11 15:58:32			0	35076	0	0	0	18646	17360	148907	28005	952844	36083	106794	0	0	8211	701326	0	0
2024-04-11 15:59:32			0	35076	0	0	0	18659	17360	148915	27557	952844	36083	106799	0	0	8211	701326	0	0
2024-04-11 16:00:32			0	35065	0	0	0	18664	17360	148939	27914	952844	36083	106801	0	0	8210	701840	0	0
2024-04-11 16:01:32			0	35093	0	0	0	18683	17370	148931	27711	952860	36094	106808	0	0	8211	700495	0	0
2024-04-11 16:02:32			0	35112	0	0	0	18654	17370	148779	27987	952860	36073	106797	0	0	8213	699610	0	0
2024-04-11 16:03:32			0	35089	0	0	0	18675	17370	148855	28100	952860	36106	106805	0	0	8211	700682	0	0
2024-04-11 16:04:32			0	35137	0	0	0	18701	17390	148700	27920	952911	36074	106815	0	0	8214	698370	0	0
2024-04-11 16:05:32			0	35177	0	0	0	18701	17380	148480	27720	952956	36084	106815	0	0	8216	696550	0	0
2024-04-11 16:06:32			0	35223	0	0	0	18706	17380	148284	28263	952921	36095	106817	0	0	8218	694417	0	0
2024-04-11 16:07:32			0	35254	0	0	0	18701	17380	148120	27469	952869	36063	106815	0	0	8220	692982	0	0
2024-04-11 16:08:32			0	35276	0	0	0	18698	17390	148088	27566	952938	36106	106814	0	0	8221	691928	0	0
2024-04-11 16:09:32			0	35288	0	0	0	18703	17390	147976	27658	952938	36084	106816	0	0	8222	691374	0	0
2024-04-11 16:10:32			0	35315	0	0	0	18701	17390	147892	27868	952964	36095	106815	0	0	8223	690128	0	0
2024-04-11 16:11:32			0	35316	0	0	0	18698	17390	147944	27590	952946	36075	106814	0	0	8224	690082	0	0
2024-04-11 16:12:32			0	35319	0	0	0	18701	17390	147892	27836	952938	36095	106815	0	0	8224	689943	0	0
2024-04-11 16:13:32			0	35309	0	0	0	18706	17390	147820	27989	953017	36095	106817	0	0	8223	690405	0	0
2024-04-11 16:14:32			0	35335	0	0	0	18685	17400	147868	27562	952935	36076	106809	0	0	8225	689169	0	0
2024-04-11 16:15:32			0	35335	0	0	0	18670	17390	147832	27829	952893	36096	106803	0	0	8225	689206	0	0
2024-04-11 16:16:32			0	35320	0	0	0	18664	17390	147912	28013	952893	36107	106801	0	0	8224	689897	0	0
2024-04-11 16:17:32			0	35304	0	0	0	18657	17390	147956	28088	952866	36085	106798	0	0	8224	690635	0	0
2024-04-11 16:18:32			0	35309	0	0	0	18675	17390	148036	28131	952832	36084	106805	0	0	8224	690405	0	0
2024-04-11 16:19:32			0	35279	0	0	0	18654	17390	148048	27744	952885	36084	106797	0	0	8222	691789	0	0
2024-04-11 16:20:32			0	35294	0	0	0	18675	17390	148068	27566	952990	36095	106805	0	0	8223	691097	0	0
2024-04-11 16:21:32			0	35280	0	0	0	18667	17380	147988	28006	952956	36095	106802	0	0	8222	691781	0	0
2024-04-11 16:22:32			0	35267	0	0	0	18646	17380	148032	27623	952850	36095	106794	0	0	8222	692381	0	0
2024-04-11 16:23:32			0	35241	0	0	0	18633	17380	148204	27848	952869	36084	106789	0	0	8220	693583	0	0
2024-04-11 16:24:32			0	35211	0	0	0	18633	17380	148384	28072	952877	36084	106789	0	0	8219	694973	0	0
2024-04-11 16:25:32			0	35164	0	0	0	18620	17370	148536	28122	952834	36094	106784	0	0	8216	697191	0	0
2024-04-11 16:26:32			0	35116	0	0	0	18625	17380	148764	27975	952763	36084	106786	0	0	8214	699386	0	0
2024-04-11 16:27:32			0	35095	0	0	0	18646	17380	148907	28095	952789	36095	106794	0	0	8212	700364	0	0
2024-04-11 16:28:32			0	35081	0	0	0	18638	17370	148935	27845	952747	36083	106791	0	0	8212	701055	0	0
2024-04-11 16:29:32			0	35095	0	0	0	18633	17370	148995	27968	952773	36083	106789	0	0	8212	700402	0	0
2024-04-11 16:30:32			0	35072	0	0	0	18628	17360	148991	28298	952817	36105	106787	0	0	8211	701513	0	0
2024-04-11 16:31:32			0	35047	0	0	0	18618	17360	149135	27876	952817	36083	106783	0	0	8210	702680	0	0
2024-04-11 16:32:32			0	35047	0	0	0	18607	17360	149163	28244	952809	36094	106779	0	0	8210	702680	0	0
2024-04-11 16:33:32			0	35031	0	0	0	18605	17360	149263	27519	952712	36094	106778	0	0	8209	703428	0	0
2024-04-11 16:34:32			0	34999	0	0	0	18607	17350	149355	28195	952775	36093	106779	0	0	8207	704964	0	0
2024-04-11 16:35:32			0	34995	0	0	0	18612	17360	149267	27632	952757	36083	106781	0	0	8207	705113	0	0
2024-04-11 16:36:32			0	35020	0	0	0	18625	17340	149311	27909	952732	36092	106786	0	0	8208	704019	0	0
2024-04-11 16:37:32			0	34986	0	0	0	18625	17340	149351	28195	952732	36082	106786	0	0	8206	705612	0	0
2024-04-11 16:38:32			0	34980	0	0	0	18620	17350	149343	28265	952722	36104	106784	0	0	8206	705855	0	0
2024-04-11 16:39:32			0	35000	0	0	0	18602	17360	149287	28096	952757	36105	106777	0	0	8208	704879	0	0
2024-04-11 16:40:32			0	34991	0	0	0	18607	17340	149375	28032	952706	36092	106779	0	0	8207	705377	0	0
2024-04-11 16:41:32			0	34967	0	0	0	18620	17340	149479	27750	952653	36092	106784	0	0	8205	706503	0	0
2024-04-11 16:42:32			0	35000	0	0	0	18644	17340	149367	27920	952785	36092	106793	0	0	8207	704956	0	0
2024-04-11 16:43:32			0	35023	0	0	0	18631	17360	149355	28031	952783	36094	106788	0	0	8208	703802	0	0
2024-04-11 16:44:32			0	35022	0	0	0	18594	17340	149235	27966	952759	36092	106774	0	0	8209	703926	0	0
2024-04-11 16:45:32			0	35003	0	0	0	18574	17360	149275	28528	952730	36105	106766	0	0	8208	704739	0	0
2024-04-11 16:46:32			0	35002	0	0	0	18589	17350	149251	28133	952635	36103	106772	0	0	8208	704824	0	0
2024-04-11 16:47:32			0	35016	0	0	0	18607	17330	149235	28190	952698	36081	106779	0	0	8208	704245	0	0
2024-04-11 16:48:32			0	35007	0	0	0	18589	17330	149243	28298	952671	36081	106772	0	0	8208	704666	0	0
2024-04-11 16:49:32			0	35012	0	0	0	18607	17330	149095	27992	952690	36091	106779	0	0	8208	704432	0	0
2024-04-11 16:50:32			0	35025	0	0	0	18625	17330	149227	28010	952724	36102	106786	0	0	8208	703823	0	0
2024-04-11 16:51:32			0	35028	0	0	0	18620	17340	149215	27822	952706	36103	106784	0	0	8209	703645	0	0
2024-04-11 16:52:32			0	35021	0	0	0	18568	17330	149243	27725	952716	36102	106764	0	0	8209	704011	0	0
2024-04-11 16:53:32			0	35029	0	0	0	18568	17330	149051	28057	952610	36091	106764	0	0	8210	703637	0	0
2024-04-11 16:54:32			0	35019	0	0	0	18566	17320	149167	27869	952682	36091	106763	0	0	8209	704143	0	0
2024-04-11 16:55:32			0	35002	0	0	0	18555	17330	149231	28400	952610	36102	106759	0	0	8208	704900	0	0
2024-04-11 16:56:32			0	35002	0	0	0	18599	17320	149299	27479	952647	36090	106776	0	0	8208	704939	0	0
2024-04-11 16:57:32			0	35009	0	0	0	18618	17320	149235	28091	952682	36091	106783	0	0	8208	704611	0	0
2024-04-11 16:58:32			0	35023	0	0	0	18592	17320	149299	27904	952700	36090	106773	0	0	8209	703955	0	0
2024-04-11 16:59:32			0	35019	0	0	0	18610	17330	149239	27523	952663	36091	106780	0	0	8208	704104	0	0
2024-04-11 17:00:32			0	34991	0	0	0	18589	17320	149299	28013	952734	36091	106772	0	0	8207	705454	0	0
2024-04-11 17:01:32			0	34968	0	0	0	18612	17320	149499	27926	952655	36102	106781	0	0	8205	706533	0	0
2024-04-11 17:02:32			0	34976	0	0	0	18587	17320	149435	28065	952655	36102	106771	0	0	8206	706157	0	0
2024-04-11 17:03:32			0	34930	0	0	0	18548	17330	149499	28114	952637	36091	106756	0	0	8204	708279	0	0
2024-04-11 17:04:32			0	34888	0	0	0	18571	17320	149719	27786	952568	36080	106765	0	0	8202	710294	0	0
2024-04-11 17:05:32			0	34864	0	0	0	18550	17320	149923	27951	952594	36090	106757	0	0	8201	711425	0	0
2024-04-11 17:06:32			0	34847	0	0	0	18555	17310	150091	27958	952613	36101	106759	0	0	8200	712266	0	0
2024-04-11 17:07:32			0	34843	0	0	0	18605	17310	150087	27628	952604	36101	106778	0	0	8199	712455	0	0
2024-04-11 17:08:32			0	34839	0	0	0	18597	17310	150047	27930	952604	36090	106775	0	0	8198	712644	0	0
2024-04-11 17:09:32			0	34810	0	0	0	18594	17300	150247	27897	952596	36089	106774	0	0	8197	714053	0	0
2024-04-11 17:10:32			0	34774	0	0	0	18599	17300	150443	27725	952623	36079	106776	0	0	8195	715757	0	0
2024-04-11 17:11:32			0	34758	0	0	0	18638	17300	150411	27637	952596	36100	106791	0	0	8193	716516	0	0
2024-04-11 17:12:32			0	34778	0	0	0	18646	17320	150331	27888	952673	36101	106794	0	0	8194	715490	0	0
2024-04-11 17:13:32			0	34741	0	0	0	18618	17310	150427	28086	952692	36112	106783	0	0	8193	717283	0	0
2024-04-11 17:14:32			0	34785	0	0	0	18636	17330	150347	27949	952742	36114	106790	0	0	8195	715120	0	0
2024-04-11 17:15:32			0	34770	0	0	0	18623	17320	150399	27552	952761	36102	106785	0	0	8194	715869	0	0
2024-04-11 17:16:32			0	34750	0	0	0	18618	17330	150395	27866	952690	36114	106783	0	0	8193	716778	0	0
2024-04-11 17:17:32			0	34701	0	0	0	18587	17330	150575	27706	952724	36114	106771	0	0	8191	719106	0	0
2024-04-11 17:18:32			0	34650	0	0	0	18597	17320	150935	27672	952682	36102	106775	0	0	8188	721573	0	0
2024-04-11 17:19:32			0	34647	0	0	0	18628	17320	150811	27595	952734	36113	106787	0	0	8187	721716	0	0
2024-04-11 17:20:32			0	34649	0	0	0	18599	17330	150835	27320	952690	36114	106776	0	0	8188	721582	0	0
2024-04-11 17:21:32			0	34632	0	0	0	18620	17320	150907	27798	952655	36102	106784	0	0	8186	722432	0	0
2024-04-11 17:22:32			0	34647	0	0	0	18628	17320	150943	27796	952682	36102	106787	0	0	8187	721716	0	0
2024-04-11 17:23:32			0	34645	0	0	0	18612	17330	150979	27992	952777	36102	106781	0	0	8187	721772	0	0
2024-04-11 17:24:32			0	34604	0	0	0	18618	17330	151187	27284	952716	36114	106783	0	0	8185	723729	0	0
2024-04-11 17:25:32			0	34584	0	0	0	18631	17330	151143	27840	952751	36091	106788	0	0	8184	724686	0	0
2024-04-11 17:26:32			0	34586	0	0	0	18641	17320	151115	28081	952761	36102	106792	0	0	8184	724629	0	0
2024-04-11 17:27:32			0	34619	0	0	0	18654	17320	151087	27789	952734	36113	106797	0	0	8185	723052	0	0
2024-04-11 17:28:32			0	34613	0	0	0	18657	17340	151091	29422	952785	36114	106798	0	0	8185	723260	0	0
2024-04-11 17:29:32			0	34653	0	0	0	18670	17350	150987	27481	952775	36104	106803	0	0	8187	721312	0	0
2024-04-11 17:30:32			0	34727	0	0	0	18727	17350	150683	27566	952846	36136	106825	0	0	8190	717792	0	0
2024-04-11 17:31:32			0	34837	0	0	0	18794	17360	150171	27547	952968	36116	106851	0	0	8195	712544	0	0
2024-04-11 17:32:32			0	34961	0	0	0	18815	17380	149619	27502	953088	36128	106859	0	0	8202	706631	0	0
2024-04-11 17:33:32			0	35028	0	0	0	18828	17390	149255	27873	953202	36139	106864	0	0	8205	703454	0	0
2024-04-11 17:34:32			0	35057	0	0	0	18880	17410	149187	27428	953348	36153	106884	0	0	8206	702022	0	0
2024-04-11 17:35:32			0	35098	0	0	0	18955	17440	149087	27881	953520	36155	106913	0	0	8207	699996	0	0
2024-04-11 17:36:32			0	35109	0	0	0	18955	17460	148916	27564	953606	36156	106913	0	0	8208	699407	0	0
2024-04-11 17:37:32			0	35104	0	0	0	18999	17480	149039	27672	953646	36159	106930	0	0	8207	699564	0	0
2024-04-11 17:38:32			0	35085	0	0	0	18968	17510	149135	27880	953748	36161	106918	0	0	8207	700335	0	0
2024-04-11 17:39:32			0	35048	0	0	0	19012	17520	149167	27438	953790	36172	106935	0	0	8204	702023	0	0
2024-04-11 17:40:32			0	35013	0	0	0	19025	17530	149339	27737	953851	36173	106940	0	0	8202	703620	0	0
2024-04-11 17:41:32			0	34920	0	0	0	19046	17570	149675	27460	953943	36176	106948	0	0	8197	707825	0	0
2024-04-11 17:42:32			0	34857	0	0	0	18919	17570	149851	27564	953924	36177	106899	0	0	8195	710789	0	0
2024-04-11 17:43:32			0	34900	0	0	0	18810	17580	149571	27637	953782	36156	106857	0	0	8199	708726	0	0
2024-04-11 17:44:32			0	34924	0	0	0	18786	17570	149431	27642	953731	36144	106848	0	0	8201	707637	0	0
2024-04-11 17:45:32			0	34943	0	0	0	18750	17550	149439	27492	953593	36153	106834	0	0	8203	706822	0	0
2024-04-11 17:46:32			0	34928	0	0	0	18722	17530	149419	27332	953437	36141	106823	0	0	8202	707603	0	0
2024-04-11 17:47:32			0	34912	0	0	0	18716	17520	149515	27704	953386	36139	106821	0	0	8201	708393	0	0
2024-04-11 17:48:32			0	34904	0	0	0	18776	17510	149619	27590	953378	36150	106844	0	0	8200	708808	0	0
2024-04-11 17:49:32			0	34865	0	0	0	18745	17500	149715	27556	953468	36138	106832	0	0	8198	710682	0	0
2024-04-11 17:50:32			0	34808	0	0	0	18677	17510	149999	27350	953423	36139	106806	0	0	8196	713333	0	0
2024-04-11 17:51:32			0	34743	0	0	0	18636	17490	150303	27480	953346	36137	106790	0	0	8193	716487	0	0
2024-04-11 17:52:32			0	34656	0	0	0	18667	17470	150643	27374	953181	36125	106802	0	0	8188	720699	0	0
2024-04-11 17:53:32			0	34618	0	0	0	18701	17480	150823	27507	953215	36136	106815	0	0	8185	722471	0	0
2024-04-11 17:54:32			0	34570	0	0	0	18618	17460	151079	27528	953165	36114	106783	0	0	8184	724843	0	0
2024-04-11 17:55:32			0	34511	0	0	0	18623	17460	151331	27552	953025	36134	106785	0	0	8180	727669	0	0
2024-04-11 17:56:32			0	34457	0	0	0	18644	17450	151575	27428	953008	36123	106793	0	0	8177	730303	0	0
2024-04-11 17:57:32			0	34416	0	0	0	18618	17430	151647	27388	952958	36132	106783	0	0	8175	732358	0	0
2024-04-11 17:58:32			0	34414	0	0	0	18631	17430	151799	27663	953029	36122	106788	0	0	8174	732454	0	0
2024-04-11 17:59:32			0	34385	0	0	0	18633	17420	151983	27788	953065	36121	106789	0	0	8173	733894	0	0
2024-04-11 18:00:32			0	34360	0	0	0	18646	17410	151927	27729	953031	36130	106794	0	0	8171	735142	0	0
2024-04-11 18:01:32			0	34374	0	0	0	18612	17410	151967	27187	953004	36120	106781	0	0	8172	734465	0	0
2024-04-11 18:02:32			0	34365	0	0	0	18641	17410	151995	27502	952970	36152	106792	0	0	8171	734900	0	0
2024-04-11 18:03:32			0	34365	0	0	0	18636	17410	152171	27270	952970	36129	106790	0	0	8171	734900	0	0
2024-04-11 18:04:32			0	34364	0	0	0	18659	17400	152195	27428	953033	36119	106799	0	0	8171	734988	0	0
2024-04-11 18:05:32			0	34342	0	0	0	18638	17400	152086	27450	952980	36119	106791	0	0	8170	736053	0	0
2024-04-11 18:06:32			0	34326	0	0	0	18680	17400	152290	27280	953015	36129	106807	0	0	8168	736827	0	0
2024-04-11 18:07:32			0	34345	0	0	0	18646	17400	152170	27189	953059	36129	106794	0	0	8170	735907	0	0
2024-04-11 18:08:32			0	34366	0	0	0	18638	17400	152111	27448	952927	36141	106791	0	0	8171	734891	0	0
2024-04-11 18:09:32			0	34358	0	0	0	18625	17400	152107	27301	952980	36129	106786	0	0	8171	735278	0	0
2024-04-11 18:10:32			0	34323	0	0	0	18641	17380	152162	27258	952903	36118	106792	0	0	8169	737053	0	0
2024-04-11 18:11:32			0	34354	0	0	0	18638	17380	152123	27433	952903	36118	106791	0	0	8171	735552	0	0
2024-04-11 18:12:32			0	34345	0	0	0	18659	17390	152146	27493	952938	36139	106799	0	0	8170	735947	0	0
2024-04-11 18:13:32			0	34387	0	0	0	18685	17380	152059	27350	952895	36128	106809	0	0	8172	733956	0	0
2024-04-11 18:14:32			0	34399	0	0	0	18667	17390	152003	27453	953043	36139	106802	0	0	8173	733337	0	0
2024-04-11 18:15:32			0	34419	0	0	0	18667	17390	151887	27261	953078	36129	106802	0	0	8174	732372	0	0
2024-04-11 18:16:32			0	34421	0	0	0	18662	17380	152003	27286	952982	36139	106800	0	0	8174	732316	0	0
2024-04-11 18:17:32			0	34391	0	0	0	18675	17390	151983	27326	952964	36150	106805	0	0	8172	733723	0	0
2024-04-11 18:18:32			0	34383	0	0	0	18657	17400	151863	27239	953086	36152	106798	0	0	8172	734070	0	0
2024-04-11 18:19:32			0	34404	0	0	0	18667	17400	151939	27260	953007	36119	106802	0	0	8173	733056	0	0
2024-04-11 18:20:32			0	34395	0	0	0	18683	17400	152031	27346	953041	36141	106808	0	0	8172	733490	0	0
2024-04-11 18:21:32			0	34396	0	0	0	18649	17390	152019	27317	953025	36140	106795	0	0	8173	733482	0	0
2024-04-11 18:22:32			0	34353	0	0	0	18628	17390	152083	27744	952919	36129	106787	0	0	8171	735560	0	0
2024-04-11 18:23:32			0	34363	0	0	0	18677	17390	152215	27651	952964	36128	106806	0	0	8171	735076	0	0
2024-04-11 18:24:32			0	34369	0	0	0	18625	17380	152175	27308	952929	36128	106786	0	0	8172	734826	0	0
2024-04-11 18:25:32			0	34346	0	0	0	18625	17390	152162	27457	952938	36128	106786	0	0	8170	735899	0	0
2024-04-11 18:26:32			0	34357	0	0	0	18618	17380	152219	27185	952816	36139	106783	0	0	8171	735407	0	0
2024-04-11 18:27:32			0	34351	0	0	0	18620	17370	152243	27265	952826	36148	106784	0	0	8171	735737	0	0
2024-04-11 18:28:32			0	34348	0	0	0	18610	17370	152171	27576	952808	36127	106780	0	0	8171	735882	0	0
2024-04-11 18:29:32			0	34359	0	0	0	18581	17360	152207	27050	952791	36137	106769	0	0	8172	735390	0	0
2024-04-11 18:30:32			0	34381	0	0	0	18584	17360	152155	27126	952765	36116	106770	0	0	8173	734326	0	0
2024-04-11 18:31:32			0	34360	0	0	0	18574	17350	152127	27429	952669	36148	106766	0	0	8172	735381	0	0
2024-04-11 18:32:32			0	34350	0	0	0	18579	17330	152243	27530	952698	36125	106768	0	0	8171	735945	0	0
2024-04-11 18:33:32			0	34348	0	0	0	18579	17330	152246	27495	952663	36125	106768	0	0	8171	736042	0	0
2024-04-11 18:34:32			0	34359	0	0	0	18563	17330	152227	27632	952637	36125	106762	0	0	8172	735510	0	0
2024-04-11 18:35:32			0	34345	0	0	0	18566	17310	152294	27322	952613	36123	106763	0	0	8171	736267	0	0
2024-04-11 18:36:32			0	34338	0	0	0	18568	17310	152418	27256	952578	36133	106764	0	0	8171	736606	0	0
2024-04-11 18:37:32			0	34344	0	0	0	18550	17310	152438	27329	952665	36123	106757	0	0	8171	736316	0	0
2024-04-11 18:38:32			0	34336	0	0	0	18558	17300	152338	27393	952649	36133	106760	0	0	8171	736743	0	0
2024-04-11 18:39:32			0	34324	0	0	0	18529	17310	152486	27301	952604	36133	106749	0	0	8170	737285	0	0
2024-04-11 18:40:32			0	34325	0	0	0	18514	17300	152422	27118	952544	36122	106743	0	0	8171	737276	0	0
2024-04-11 18:41:32			0	34318	0	0	0	18509	17290	152418	27383	952598	36132	106741	0	0	8170	737656	0	0
2024-04-11 18:42:32			0	34294	0	0	0	18506	17280	152526	27322	952477	36130	106740	0	0	8169	738861	0	0
2024-04-11 18:43:32			0	34297	0	0	0	18496	17280	152438	27256	952406	36131	106736	0	0	8169	738715	0	0
2024-04-11 18:44:32			0	34282	0	0	0	18524	17270	152494	27154	952460	36129	106747	0	0	8168	739483	0	0
2024-04-11 18:45:32			0	34290	0	0	0	18490	17260	152474	27199	952391	36118	106734	0	0	8169	739135	0	0
2024-04-11 18:46:32			0	34304	0	0	0	18490	17260	152474	27059	952400	36129	106734	0	0	8170	738455	0	0
2024-04-11 18:47:32			0	34303	0	0	0	18483	17260	152434	27180	952365	36107	106731	0	0	8170	738504	0	0
2024-04-11 18:48:32			0	34308	0	0	0	18490	17250	152442	27280	952357	36129	106734	0	0	8170	738301	0	0
2024-04-11 18:49:32			0	34289	0	0	0	18477	17240	152570	27270	952341	36139	106729	0	0	8169	739264	0	0
2024-04-11 18:50:32			0	34304	0	0	0	18488	17230	152558	27111	952316	36116	106733	0	0	8170	738576	0	0
2024-04-11 18:51:32			0	34294	0	0	0	18511	17230	152606	27229	952316	36116	106742	0	0	8169	739061	0	0
2024-04-11 18:52:32			0	34283	0	0	0	18509	17240	152538	27152	952359	36138	106741	0	0	8168	739555	0	0
2024-04-11 18:53:32			0	34300	0	0	0	18490	17230	152482	27244	952298	36126	106734	0	0	8169	738770	0	0
2024-04-11 18:54:32			0	34283	0	0	0	18498	17230	152562	27383	952290	36116	106737	0	0	8168	739596	0	0
2024-04-11 18:55:32			0	34284	0	0	0	18498	17220	152662	27486	952326	36115	106737	0	0	8168	739587	0	0
2024-04-11 18:56:32			0	34279	0	0	0	18485	17220	152694	27360	952282	36137	106732	0	0	8168	739830	0	0
2024-04-11 18:57:32			0	34284	0	0	0	18498	17220	152630	27225	952308	36115	106737	0	0	8168	739587	0	0
2024-04-11 18:58:32			0	34273	0	0	0	18488	17230	152658	27306	952316	36126	106733	0	0	8168	740082	0	0
2024-04-11 18:59:32			0	34259	0	0	0	18493	17210	152690	27074	952231	36136	106735	0	0	8167	740843	0	0
2024-04-11 19:00:32			0	34270	0	0	0	18490	17220	152762	27476	952274	36125	106734	0	0	8168	740268	0	0
2024-04-11 19:01:32			0	34263	0	0	0	18485	17210	152790	27022	952213	36125	106732	0	0	8167	740648	0	0
2024-04-11 19:02:32			0	34257	0	0	0	18496	17200	152734	27395	952196	36125	106736	0	0	8167	740981	0	0
2024-04-11 19:03:32			0	34238	0	0	0	18485	17190	152794	27336	952233	36124	106732	0	0	8166	741946	0	0
2024-04-11 19:04:32			0	34253	0	0	0	18459	17200	152786	27280	952276	36125	106722	0	0	8167	741176	0	0
2024-04-11 19:05:32			0	34250	0	0	0	18457	17190	152790	27405	952180	36113	106721	0	0	8167	741362	0	0
2024-04-11 19:06:32			0	34253	0	0	0	18462	17190	152834	27517	952146	36102	106723	0	0	8167	741216	0	0
2024-04-11 19:07:32			0	34238	0	0	0	18485	17190	152946	27199	952119	36124	106732	0	0	8166	741946	0	0
2024-04-11 19:08:32			0	34231	0	0	0	18462	17190	152942	27135	952180	36134	106723	0	0	8166	742287	0	0
2024-04-11 19:09:32			0	34227	0	0	0	18462	17180	152926	27469	952103	36123	106723	0	0	8165	742523	0	0
2024-04-11 19:10:32			0	34232	0	0	0	18467	17170	152914	27334	952113	36111	106725	0	0	8166	742319	0	0
2024-04-11 19:11:32			0	34249	0	0	0	18475	17180	152834	27358	952111	36123	106728	0	0	8167	741451	0	0
2024-04-11 19:12:32			0	34239	0	0	0	18462	17170	152850	27331	952148	36122	106723	0	0	8166	741978	0	0
2024-04-11 19:13:32			0	34253	0	0	0	18457	17170	152850	27192	952087	36144	106721	0	0	8167	741296	0	0
2024-04-11 19:14:32			0	34249	0	0	0	18454	17170	152786	27064	952061	36122	106720	0	0	8167	741491	0	0
2024-04-11 19:15:32			0	34238	0	0	0	18449	17170	152858	26968	952061	36122	106718	0	0	8166	742027	0	0
2024-04-11 19:16:32			0	34228	0	0	0	18454	17160	152942	27204	952097	36121	106720	0	0	8166	742554	0	0
2024-04-11 19:17:32			0	34220	0	0	0	18462	17160	152934	27410	952071	36121	106723	0	0	8165	742945	0	0
2024-04-11 19:18:32			0	34220	0	0	0	18449	17160	152974	27338	952052	36122	106718	0	0	8165	742945	0	0
2024-04-11 19:19:32			0	34228	0	0	0	18446	17150	152958	26798	952115	36121	106717	0	0	8166	742595	0	0
2024-04-11 19:20:32			0	34210	0	0	0	18462	17140	153006	26968	952073	36120	106723	0	0	8164	743513	0	0
2024-04-11 19:21:32			0	34195	0	0	0	18433	17140	153062	27220	951994	36130	106712	0	0	8164	744246	0	0
2024-04-11 19:22:32			0	34217	0	0	0	18420	17160	153022	27374	952018	36131	106707	0	0	8166	743091	0	0
2024-04-11 19:23:32			0	34214	0	0	0	18415	17140	152962	27367	952038	36119	106705	0	0	8165	743318	0	0
2024-04-11 19:24:32			0	34231	0	0	0	18438	17130	152950	27270	951978	36129	106714	0	0	8166	742529	0	0
2024-04-11 19:25:32			0	34208	0	0	0	18420	17140	152978	27142	951959	36129	106707	0	0	8165	743611	0	0
2024-04-11 19:26:32			0	34206	0	0	0	18425	17140	153006	27419	952012	36129	106709	0	0	8165	743708	0	0
2024-04-11 19:27:32			0	34205	0	0	0	18425	17130	153106	27024	952004	36119	106709	0	0	8165	743798	0	0
2024-04-11 19:28:32			0	34182	0	0	0	18415	17140	153102	27369	951967	36130	106705	0	0	8163	744881	0	0
2024-04-11 19:29:32			0	34178	0	0	0	18436	17130	153178	27301	951969	36129	106713	0	0	8163	745117	0	0
2024-04-11 19:30:32			0	34162	0	0	0	18433	17130	153282	27104	951969	36140	106712	0	0	8162	745899	0	0
2024-04-11 19:31:32			0	34141	0	0	0	18428	17130	153410	27215	951969	36129	106710	0	0	8161	746927	0	0
2024-04-11 19:32:32			0	34123	0	0	0	18420	17130	153438	27235	951996	36129	106707	0	0	8160	747809	0	0
2024-04-11 19:33:32			0	34138	0	0	0	18418	17120	153394	26863	951927	36139	106706	0	0	8161	747115	0	0
2024-04-11 19:34:32			0	34142	0	0	0	18418	17120	153518	27156	951988	36129	106706	0	0	8161	746919	0	0
2024-04-11 19:35:32			0	34138	0	0	0	18418	17130	153478	27568	951943	36118	106706	0	0	8161	747074	0	0
2024-04-11 19:36:32			0	34124	0	0	0	18418	17120	153426	27069	951953	36139	106706	0	0	8160	747801	0	0
2024-04-11 19:37:32			0	34105	0	0	0	18418	17120	153494	26875	951900	36139	106706	0	0	8159	748733	0	0
2024-04-11 19:38:32			0	34107	0	0	0	18420	17110	153578	27305	951945	36128	106707	0	0	8159	748675	0	0
2024-04-11 19:39:32			0	34088	0	0	0	18423	17110	153682	27369	951831	36127	106708	0	0	8158	749608	0	0
2024-04-11 19:40:32			0	34070	0	0	0	18423	17120	153798	27364	951900	36128	106708	0	0	8157	750452	0	0
2024-04-11 19:41:32			0	34071	0	0	0	18415	17100	153666	27239	951876	36138	106705	0	0	8157	750484	0	0
2024-04-11 19:42:32			0	34067	0	0	0	18423	17110	153718	27391	951918	36128	106708	0	0	8157	750640	0	0
2024-04-11 19:43:32			0	34061	0	0	0	18423	17110	153638	26946	951858	36138	106708	0	0	8156	750935	0	0
2024-04-11 19:44:32			0	34074	0	0	0	18420	17100	153662	27034	951929	36149	106707	0	0	8157	750337	0	0
2024-04-11 19:45:32			0	34101	0	0	0	18418	17110	153674	27168	951918	36128	106706	0	0	8159	748970	0	0
2024-04-11 19:46:32			0	34113	0	0	0	18423	17100	153526	27242	951876	36138	106708	0	0	8159	748422	0	0
2024-04-11 19:47:32			0	34107	0	0	0	18410	17110	153578	27306	951937	36127	106703	0	0	8159	748675	0	0
2024-04-11 19:48:32			0	34105	0	0	0	18420	17110	153478	27128	951858	36138	106707	0	0	8159	748773	0	0
2024-04-11 19:49:32			0	34108	0	0	0	18415	17110	153606	27514	951892	36139	106705	0	0	8159	748626	0	0
2024-04-11 19:50:32			0	34104	0	0	0	18402	17110	153594	26927	951884	36138	106700	0	0	8159	748822	0	0
2024-04-11 19:51:32			0	34100	0	0	0	18412	17100	153662	27078	951823	36138	106704	0	0	8159	749059	0	0
2024-04-11 19:52:32			0	34105	0	0	0	18410	17090	153630	27022	951912	36137	106703	0	0	8159	748855	0	0
2024-04-11 19:53:32			0	34105	0	0	0	18410	17100	153502	27383	951876	36138	106703	0	0	8159	748814	0	0
2024-04-11 19:54:32			0	34115	0	0	0	18410	17100	153566	27000	951876	36138	106703	0	0	8160	748323	0	0
2024-04-11 19:55:32			0	34111	0	0	0	18418	17090	153554	26906	951860	36148	106706	0	0	8159	748560	0	0
2024-04-11 19:56:32			0	34097	0	0	0	18410	17100	153530	26932	951902	36127	106703	0	0	8159	749207	0	0
2024-04-11 19:57:32			0	34080	0	0	0	18399	17100	153634	27326	951841	36137	106699	0	0	8158	750042	0	0
2024-04-11 19:58:32			0	34080	0	0	0	18399	17090	153682	27213	951860	36148	106699	0	0	8158	750082	0	0
2024-04-11 19:59:32			0	34046	0	0	0	18394	17100	153782	27261	951894	36137	106697	0	0	8156	751714	0	0
2024-04-11 20:00:32			0	34030	0	0	0	18397	17100	153826	27281	951849	36149	106698	0	0	8155	752502	0	0
2024-04-11 20:01:32			0	34000	0	0	0	18394	17090	154022	27045	951886	36148	106697	0	0	8153	754022	0	0
2024-04-11 20:02:32			0	33990	0	0	0	18402	17090	154146	27244	951807	36137	106700	0	0	8152	754516	0	0
2024-04-11 20:03:32			0	33953	0	0	0	18389	17090	154238	27209	951886	36137	106695	0	0	8150	756345	0	0
2024-04-11 20:04:32			0	33948	0	0	0	18386	17100	154310	27227	951902	36127	106694	0	0	8150	756551	0	0
2024-04-11 20:05:32			0	33937	0	0	0	18394	17090	154378	27410	951772	36148	106697	0	0	8149	757136	0	0
2024-04-11 20:06:32			0	33921	0	0	0	18389	17090	154430	27256	951799	36137	106695	0	0	8149	757929	0	0
2024-04-11 20:07:32			0	33903	0	0	0	18386	17080	154542	26977	951835	36136	106694	0	0	8148	758862	0	0
2024-04-11 20:08:32			0	33883	0	0	0	18379	17080	154594	27336	951791	36148	106691	0	0	8147	759855	0	0
2024-04-11 20:09:32			0	33879	0	0	0	18374	17080	154690	27507	951783	36147	106689	0	0	8146	760053	0	0
2024-04-11 20:10:32			0	33844	0	0	0	18371	17070	154750	27121	951774	36135	106688	0	0	8144	761834	0	0
2024-04-11 20:11:32			0	33831	0	0	0	18368	17080	154854	27282	951764	36125	106687	0	0	8144	762440	0	0
2024-04-11 20:12:32			0	33819	0	0	0	18379	17070	154914	27351	951714	36146	106691	0	0	8143	763079	0	0
2024-04-11 20:13:32			0	33833	0	0	0	18381	17070	154930	27150	951774	36146	106692	0	0	8144	762382	0	0
2024-04-11 20:14:32			0	33830	0	0	0	18374	17070	154962	27319	951748	36135	106689	0	0	8144	762531	0	0
2024-04-11 20:15:32			0	33815	0	0	0	18368	17060	154910	27455	951785	36135	106687	0	0	8143	763320	0	0
2024-04-11 20:16:32			0	33810	0	0	0	18371	17060	155042	27183	951758	36146	106688	0	0	8142	763569	0	0
2024-04-11 20:17:32			0	33812	0	0	0	18374	17070	155010	27202	951722	36135	106689	0	0	8142	763428	0	0
2024-04-11 20:18:32			0	33785	0	0	0	18366	17070	155102	27358	951748	36135	106686	0	0	8141	764775	0	0
2024-04-11 20:19:32			0	33799	0	0	0	18376	17060	155086	27580	951758	36146	106690	0	0	8142	764118	0	0
2024-04-11 20:20:32			0	33799	0	0	0	18381	17070	154958	27554	951793	36135	106692	0	0	8142	764076	0	0
2024-04-11 20:21:32			0	33789	0	0	0	18371	17060	155050	27088	951750	36145	106688	0	0	8141	764616	0	0
2024-04-11 20:22:32			0	33783	0	0	0	18366	17060	155142	27209	951732	36135	106686	0	0	8141	764916	0	0
2024-04-11 20:23:32			0	33784	0	0	0	18355	17060	155062	27588	951679	36135	106682	0	0	8141	764866	0	0
2024-04-11 20:24:32			0	33779	0	0	0	18371	17060	155202	27270	951679	36157	106688	0	0	8141	765116	0	0
2024-04-11 20:25:32			0	33773	0	0	0	18376	17060	155102	27230	951724	36134	106690	0	0	8140	765415	0	0
2024-04-11 20:26:32			0	33775	0	0	0	18374	17060	155098	27140	951732	36167	106689	0	0	8140	765315	0	0
2024-04-11 20:27:32			0	33783	0	0	0	18374	17050	155194	27391	951768	36133	106689	0	0	8141	764957	0	0
2024-04-11 20:28:32			0	33775	0	0	0	18371	17060	155202	27234	951697	36124	106688	0	0	8140	765315	0	0
2024-04-11 20:29:32			0	33782	0	0	0	18381	17050	155058	27020	951708	36156	106692	0	0	8140	765007	0	0
2024-04-11 20:30:32			0	33785	0	0	0	18374	17060	155042	27078	951705	36146	106689	0	0	8141	764816	0	0
2024-04-11 20:31:32			0	33766	0	0	0	18379	17060	155270	27093	951724	36167	106691	0	0	8140	765765	0	0
2024-04-11 20:32:32			0	33756	0	0	0	18397	17050	155170	26817	951716	36145	106698	0	0	8139	766306	0	0
2024-04-11 20:33:32			0	33767	0	0	0	18371	17060	155166	27038	951724	36156	106688	0	0	8140	765715	0	0
2024-04-11 20:34:32			0	33752	0	0	0	18363	17060	155250	27100	951705	36146	106685	0	0	8139	766465	0	0
2024-04-11 20:35:32			0	33747	0	0	0	18386	17050	155242	27064	951734	36133	106694	0	0	8138	766756	0	0
2024-04-11 20:36:32			0	33780	0	0	0	18366	17060	155178	27048	951732	36146	106686	0	0	8141	765066	0	0
2024-04-11 20:37:32			0	33767	0	0	0	18376	17060	155222	27436	951785	36146	106690	0	0	8140	765715	0	0
2024-04-11 20:38:32			0	33767	0	0	0	18381	17060	155178	27128	951777	36145	106692	0	0	8140	765715	0	0
2024-04-11 20:39:32			0	33808	0	0	0	18386	17060	155198	27390	951732	36157	106694	0	0	8142	763669	0	0
2024-04-11 20:40:32			0	33816	0	0	0	18386	17060	155126	27277	951811	36146	106694	0	0	8142	763270	0	0
2024-04-11 20:41:32			0	33798	0	0	0	18371	17060	155058	27130	951777	36145	106688	0	0	8142	764168	0	0
2024-04-11 20:42:32			0	33798	0	0	0	18381	17070	155202	27230	951793	36146	106692	0	0	8142	764126	0	0
2024-04-11 20:43:32			0	33766	0	0	0	18368	17060	155238	27142	951750	36156	106687	0	0	8140	765765	0	0
2024-04-11 20:44:32			0	33766	0	0	0	18379	17060	155154	27144	951758	36157	106691	0	0	8140	765765	0	0
2024-04-11 20:45:32			0	33781	0	0	0	18389	17060	155110	27175	951811	36167	106695	0	0	8140	765016	0	0
2024-04-11 20:46:32			0	33812	0	0	0	18386	17060	155026	27422	951785	36157	106694	0	0	8142	763470	0	0
2024-04-11 20:47:32			0	33811	0	0	0	18389	17060	155026	26876	951758	36167	106695	0	0	8142	763519	0	0
2024-04-11 20:48:32			0	33822	0	0	0	18392	17060	154982	27332	951785	36167	106696	0	0	8143	762971	0	0
2024-04-11 20:49:32			0	33827	0	0	0	18389	17060	155006	27048	951777	36167	106695	0	0	8143	762722	0	0
2024-04-11 20:50:32			0	33815	0	0	0	18381	17060	154966	27419	951785	36146	106692	0	0	8142	763320	0	0
2024-04-11 20:51:32			0	33808	0	0	0	18392	17070	154930	27118	951766	36146	106696	0	0	8142	763628	0	0
2024-04-11 20:52:32			0	33818	0	0	0	18392	17060	154990	27118	951732	36167	106696	0	0	8142	763170	0	0
2024-04-11 20:53:32			0	33846	0	0	0	18392	17060	154946	27007	951758	36146	106696	0	0	8144	761776	0	0
2024-04-11 20:54:32			0	33835	0	0	0	18386	17070	154902	27211	951793	36157	106694	0	0	8144	762283	0	0
2024-04-11 20:55:32			0	33831	0	0	0	18379	17060	154822	27208	951785	36179	106691	0	0	8143	762523	0	0
2024-04-11 20:56:32			0	33853	0	0	0	18384	17060	154890	27138	951724	36156	106693	0	0	8145	761428	0	0
2024-04-11 20:57:32			0	33829	0	0	0	18381	17060	154870	27203	951758	36167	106692	0	0	8143	762623	0	0
2024-04-11 20:58:32			0	33839	0	0	0	18374	17060	154794	27126	951785	36167	106689	0	0	8144	762125	0	0
2024-04-11 20:59:32			0	33859	0	0	0	18371	17070	154830	27171	951766	36167	106688	0	0	8145	761088	0	0
2024-04-11 21:00:32			0	33855	0	0	0	18381	17060	154774	27308	951837	36167	106692	0	0	8145	761329	0	0
2024-04-11 21:01:32			0	33872	0	0	0	18374	17060	154754	27254	951732	36179	106689	0	0	8146	760484	0	0
2024-04-11 21:02:32			0	33869	0	0	0	18379	17060	154702	27334	951811	36157	106691	0	0	8146	760633	0	0
2024-04-11 21:03:32			0	33860	0	0	0	18381	17060	154754	27267	951777	36145	106692	0	0	8145	761080	0	0
2024-04-11 21:04:32			0	33887	0	0	0	18384	17070	154722	27239	951793	36146	106693	0	0	8147	759697	0	0
2024-04-11 21:05:32			0	33863	0	0	0	18376	17070	154834	27334	951819	36167	106690	0	0	8145	760890	0	0
2024-04-11 21:06:32			0	33859	0	0	0	18384	17070	154682	27332	951819	36179	106693	0	0	8145	761088	0	0
2024-04-11 21:07:32			0	33882	0	0	0	18384	17070	154654	27190	951827	36146	106693	0	0	8146	759946	0	0
2024-04-11 21:08:32			0	33872	0	0	0	18376	17060	154566	27488	951758	36167	106690	0	0	8146	760484	0	0
2024-04-11 21:09:32			0	33918	0	0	0	18379	17070	154390	27322	951793	36167	106691	0	0	8149	758160	0	0
2024-04-11 21:10:32			0	33894	0	0	0	18371	17070	154554	27177	951774	36167	106688	0	0	8147	759350	0	0
2024-04-11 21:11:32			0	33911	0	0	0	18389	17070	154482	27334	951766	36179	106695	0	0	8148	758507	0	0
2024-04-11 21:12:32			0	33949	0	0	0	18386	17060	154346	27135	951829	36178	106694	0	0	8150	756665	0	0
2024-04-11 21:13:32			0	33944	0	0	0	18381	17070	154358	26902	951793	36167	106692	0	0	8150	756872	0	0
2024-04-11 21:14:32			0	33948	0	0	0	18363	17070	154462	27015	951819	36167	106685	0	0	8151	756674	0	0
2024-04-11 21:15:32			0	33953	0	0	0	18381	17070	154426	27185	951766	36157	106692	0	0	8151	756427	0	0
2024-04-11 21:16:32			0	33950	0	0	0	18376	17060	154434	27076	951803	36145	106690	0	0	8150	756616	0	0
2024-04-11 21:17:32			0	33951	0	0	0	18368	17070	154306	27154	951766	36179	106687	0	0	8151	756525	0	0
2024-04-11 21:18:32			0	33938	0	0	0	18361	17060	154454	27235	951724	36189	106684	0	0	8150	757210	0	0
2024-04-11 21:19:32			0	33927	0	0	0	18353	17060	154410	27074	951777	36167	106681	0	0	8149	757755	0	0
2024-04-11 21:20:32			0	33924	0	0	0	18342	17070	154434	26918	951766	36179	106677	0	0	8150	757862	0	0
2024-04-11 21:21:32			0	33924	0	0	0	18355	17060	154442	27015	951724	36156	106682	0	0	8149	757904	0	0
2024-04-11 21:22:32			0	33928	0	0	0	18350	17050	154414	27320	951768	36166	106680	0	0	8150	757746	0	0
2024-04-11 21:23:32			0	33936	0	0	0	18353	17050	154414	27130	951716	36166	106681	0	0	8150	757350	0	0
2024-04-11 21:24:32			0	33925	0	0	0	18371	17050	154518	26998	951734	36177	106688	0	0	8149	757895	0	0
2024-04-11 21:25:32			0	33916	0	0	0	18358	17040	154542	27086	951726	36177	106683	0	0	8149	758382	0	0
2024-04-11 21:26:32			0	33912	0	0	0	18361	17060	154610	27097	951697	36156	106684	0	0	8148	758498	0	0
2024-04-11 21:27:32			0	33921	0	0	0	18363	17050	154634	26857	951760	36177	106685	0	0	8149	758093	0	0
2024-04-11 21:28:32			0	33904	0	0	0	18355	17050	154634	26795	951760	36177	106682	0	0	8148	758936	0	0
2024-04-11 21:29:32			0	33908	0	0	0	18363	17060	154534	26974	951803	36156	106685	0	0	8148	758697	0	0
2024-04-11 21:30:32			0	33901	0	0	0	18361	17060	154622	27336	951697	36178	106684	0	0	8148	759044	0	0
2024-04-11 21:31:32			0	33907	0	0	0	18361	17040	154566	26958	951699	36177	106684	0	0	8148	758829	0	0
2024-04-11 21:32:32			0	33911	0	0	0	18350	17050	154474	27204	951716	36177	106680	0	0	8149	758589	0	0
2024-04-11 21:33:32			0	33918	0	0	0	18345	17040	154518	27123	951673	36177	106678	0	0	8149	758283	0	0
2024-04-11 21:34:32			0	33892	0	0	0	18355	17050	154634	27274	951716	36177	106682	0	0	8147	759532	0	0
2024-04-11 21:35:32			0	33895	0	0	0	18337	17050	154750	26785	951716	36177	106675	0	0	8148	759383	0	0
2024-04-11 21:36:32			0	33894	0	0	0	18335	17050	154718	26849	951742	36177	106674	0	0	8148	759432	0	0
2024-04-11 21:37:32			0	33888	0	0	0	18322	17030	154654	27086	951691	36166	106669	0	0	8148	759813	0	0
2024-04-11 21:38:32			0	33877	0	0	0	18324	17030	154646	27287	951665	36176	106670	0	0	8147	760359	0	0
2024-04-11 21:39:32			0	33893	0	0	0	18348	17030	154758	27152	951665	36166	106679	0	0	8147	759564	0	0
2024-04-11 21:40:32			0	33863	0	0	0	18348	17040	154730	27358	951699	36188	106679	0	0	8146	761014	0	0
2024-04-11 21:41:32			0	33887	0	0	0	18358	17040	154742	27263	951752	36166	106683	0	0	8147	759821	0	0
2024-04-11 21:42:32			0	33876	0	0	0	18337	17030	154594	27561	951736	36175	106675	0	0	8147	760409	0	0
2024-04-11 21:43:32			0	33879	0	0	0	18327	17030	154694	27343	951683	36175	106671	0	0	8147	760260	0	0
2024-04-11 21:44:32			0	33865	0	0	0	18329	17030	154678	27310	951657	36175	106672	0	0	8146	760955	0	0
2024-04-11 21:45:32			0	33880	0	0	0	18306	17030	154630	27154	951665	36176	106663	0	0	8147	760210	0	0
2024-04-11 21:46:32			0	33876	0	0	0	18311	17020	154730	27031	951596	36175	106665	0	0	8147	760450	0	0
2024-04-11 21:47:32			0	33866	0	0	0	18301	17020	154734	27034	951588	36175	106661	0	0	8147	760947	0	0
2024-04-11 21:48:32			0	33868	0	0	0	18301	17020	154698	26970	951622	36164	106661	0	0	8147	760848	0	0
2024-04-11 21:49:32			0	33863	0	0	0	18309	17020	154774	27159	951596	36175	106664	0	0	8146	761096	0	0
2024-04-11 21:50:32			0	33873	0	0	0	18311	17020	154770	27338	951588	36186	106665	0	0	8147	760599	0	0
2024-04-11 21:51:32			0	33883	0	0	0	18303	17010	154722	27386	951572	36185	106662	0	0	8148	760143	0	0
2024-04-11 21:52:32			0	33858	0	0	0	18303	17010	154790	27104	951580	36186	106662	0	0	8146	761386	0	0
2024-04-11 21:53:32			0	33857	0	0	0	18301	17010	154854	27312	951572	36174	106661	0	0	8146	761436	0	0
2024-04-11 21:54:32			0	33866	0	0	0	18303	17010	154814	26918	951598	36174	106662	0	0	8147	760988	0	0
2024-04-11 21:55:32			0	33865	0	0	0	18314	17010	154838	27088	951651	36174	106666	0	0	8146	761038	0	0
2024-04-11 21:56:32			0	33868	0	0	0	18285	17010	154754	27267	951572	36185	106655	0	0	8147	760889	0	0
2024-04-11 21:57:32			0	33882	0	0	0	18280	17000	154822	27300	951590	36184	106653	0	0	8148	760234	0	0
2024-04-11 21:58:32			0	33879	0	0	0	18270	17010	154702	27310	951466	36185	106649	0	0	8148	760342	0	0
2024-04-11 21:59:32			0	33880	0	0	0	18280	16990	154786	27386	951521	36163	106653	0	0	8148	760375	0	0
2024-04-11 22:00:32			0	33878	0	0	0	18251	16990	154718	27298	951460	36162	106642	0	0	8148	760474	0	0
2024-04-11 22:01:32			0	33877	0	0	0	18275	16990	154670	27197	951486	36162	106651	0	0	8148	760524	0	0
2024-04-11 22:02:32			0	33881	0	0	0	18277	16980	154786	27074	951452	36171	106652	0	0	8148	760366	0	0
2024-04-11 22:03:32			0	33892	0	0	0	18264	16980	154690	27066	951425	36171	106647	0	0	8149	759820	0	0
2024-04-11 22:04:32			0	33880	0	0	0	18262	16990	154746	27149	951407	36172	106646	0	0	8148	760375	0	0
2024-04-11 22:05:32			0	33914	0	0	0	18264	16970	154734	27085	951383	36183	106647	0	0	8150	758769	0	0
2024-04-11 22:06:32			0	33913	0	0	0	18251	16970	154654	27424	951383	36171	106642	0	0	8150	758819	0	0
2024-04-11 22:07:32			0	33939	0	0	0	18236	16970	154682	27137	951383	36183	106636	0	0	8152	757530	0	0
2024-04-11 22:08:32			0	33932	0	0	0	18249	16970	154634	27124	951428	36171	106641	0	0	8151	757877	0	0
2024-04-11 22:09:32			0	33914	0	0	0	18246	16960	154642	27135	951340	36160	106640	0	0	8150	758811	0	0
2024-04-11 22:10:32			0	33941	0	0	0	18241	16960	154590	27147	951359	36148	106638	0	0	8152	757472	0	0
2024-04-11 22:11:32			0	33918	0	0	0	18257	16960	154562	27074	951332	36180	106644	0	0	8150	758612	0	0
2024-04-11 22:12:32			0	33901	0	0	0	18244	16950	154538	26949	951377	36180	106639	0	0	8149	759497	0	0
2024-04-11 22:13:32			0	33932	0	0	0	18246	16950	154546	27053	951377	36191	106640	0	0	8151	757959	0	0
2024-04-11 22:14:32			0	33923	0	0	0	18231	16960	154522	27241	951332	36180	106634	0	0	8151	758364	0	0
2024-04-11 22:15:32			0	33914	0	0	0	18233	16950	154558	27093	951298	36191	106635	0	0	8150	758852	0	0
2024-04-11 22:16:32			0	33857	0	0	0	18236	16940	154758	27296	951300	36167	106636	0	0	8147	761725	0	0
2024-04-11 22:17:32			0	33796	0	0	0	18236	16940	155058	27377	951255	36168	106636	0	0	8143	764765	0	0
2024-04-11 22:18:32			0	33736	0	0	0	18233	16940	155362	26816	951247	36179	106635	0	0	8140	767765	0	0
2024-04-11 22:19:32			0	33683	0	0	0	18236	16940	155634	27093	951281	36158	106636	0	0	8137	770422	0	0
2024-04-11 22:20:32			0	33655	0	0	0	18236	16930	155770	27199	951265	36167	106636	0	0	8135	771871	0	0
2024-04-11 22:21:32			0	33634	0	0	0	18223	16940	155954	27088	951326	36190	106631	0	0	8134	772886	0	0
2024-04-11 22:22:32			0	33609	0	0	0	18231	16930	155914	27301	951284	36167	106634	0	0	8132	774187	0	0
2024-04-11 22:23:32			0	33594	0	0	0	18223	16940	156086	27235	951273	36179	106631	0	0	8132	774901	0	0
2024-04-11 22:24:32			0	33593	0	0	0	18210	16930	156070	27327	951257	36167	106626	0	0	8132	774994	0	0
2024-04-11 22:25:32			0	33545	0	0	0	18223	16930	156337	27222	951231	36179	106631	0	0	8129	777419	0	0
2024-04-11 22:26:32			0	33523	0	0	0	18210	16920	156413	27289	951241	36177	106626	0	0	8128	778574	0	0
2024-04-11 22:27:32			0	33504	0	0	0	18218	16910	156621	27147	951233	36177	106629	0	0	8126	779579	0	0
2024-04-11 22:28:32			0	33493	0	0	0	18212	16930	156641	27182	951231	36167	106627	0	0	8126	780052	0	0
2024-04-11 22:29:32			0	33458	0	0	0	18218	16920	156673	27523	951215	36166	106629	0	0	8124	781871	0	0
2024-04-11 22:30:32			0	33457	0	0	0	18207	16920	156769	27277	951215	36166	106625	0	0	8124	781922	0	0
2024-04-11 22:31:32			0	33463	0	0	0	18207	16920	156809	27424	951188	36177	106625	0	0	8124	781617	0	0
2024-04-11 22:32:32			0	33436	0	0	0	18205	16910	156821	27381	951180	36166	106624	0	0	8122	783032	0	0
2024-04-11 22:33:32			0	33416	0	0	0	18199	16910	157009	27182	951180	36188	106622	0	0	8121	784050	0	0
2024-04-11 22:34:32			0	33406	0	0	0	18202	16900	156909	27241	951138	36166	106623	0	0	8121	784602	0	0
2024-04-11 22:35:32			0	33410	0	0	0	18197	16910	156965	27717	951198	36166	106621	0	0	8121	784356	0	0
2024-04-11 22:36:32			0	33389	0	0	0	18179	16900	156953	27213	951164	36176	106614	0	0	8120	785469	0	0
2024-04-11 22:37:32			0	33386	0	0	0	18199	16910	157053	27332	951119	36177	106622	0	0	8120	785579	0	0
2024-04-11 22:38:32			0	33383	0	0	0	18179	16900	157077	27326	951156	36175	106614	0	0	8120	785775	0	0
2024-04-11 22:39:32			0	33361	0	0	0	18184	16900	157133	27180	951156	36175	106616	0	0	8118	786898	0	0
2024-04-11 22:40:32			0	33354	0	0	0	18186	16890	157281	27241	951148	36175	106617	0	0	8118	787299	0	0
2024-04-11 22:41:32			0	33310	0	0	0	18184	16890	157333	27459	951121	36175	106616	0	0	8115	789550	0	0
2024-04-11 22:42:32			0	33320	0	0	0	18168	16890	157445	26958	951034	36175	106610	0	0	8116	789038	0	0
2024-04-11 22:43:32			0	33300	0	0	0	18168	16890	157569	27196	951061	36175	106610	0	0	8115	790062	0	0
2024-04-11 22:44:32			0	33288	0	0	0	18174	16870	157601	27241	951089	36184	106612	0	0	8114	790763	0	0
2024-04-11 22:45:32			0	33297	0	0	0	18176	16870	157585	27329	951036	36173	106613	0	0	8114	790301	0	0
2024-04-11 22:46:32			0	33282	0	0	0	18166	16860	157613	27039	951073	36173	106609	0	0	8114	791114	0	0
2024-04-11 22:47:32			0	33299	0	0	0	18181	16870	157577	27197	951002	36184	106615	0	0	8115	790199	0	0
2024-04-11 22:48:32			0	33271	0	0	0	18168	16860	157633	27126	950993	36173	106610	0	0	8113	791678	0	0
2024-04-11 22:49:32			0	33284	0	0	0	18168	16870	157585	27486	951107	36195	106610	0	0	8114	790968	0	0
2024-04-11 22:50:32			0	33285	0	0	0	18166	16870	157613	26961	951002	36195	106609	0	0	8114	790917	0	0
2024-04-11 22:51:32			0	33287	0	0	0	18171	16860	157757	27478	951020	36184	106611	0	0	8114	790857	0	0
2024-04-11 22:52:32			0	33289	0	0	0	18166	16850	157737	27417	951030	36171	106609	0	0	8114	790797	0	0
2024-04-11 22:53:32			0	33280	0	0	0	18168	16860	157629	27594	951091	36183	106610	0	0	8114	791216	0	0
2024-04-11 22:54:32			0	33300	0	0	0	18174	16860	157669	27518	951099	36173	106612	0	0	8115	790191	0	0
2024-04-11 22:55:32			0	33285	0	0	0	18168	16850	157649	27029	950977	36161	106610	0	0	8114	791003	0	0
2024-04-11 22:56:32			0	33304	0	0	0	18171	16860	157569	27405	951012	36172	106611	0	0	8115	789985	0	0
2024-04-11 22:57:32			0	33317	0	0	0	18171	16860	157489	27209	950967	36184	106611	0	0	8116	789319	0	0
2024-04-11 22:58:32			0	33320	0	0	0	18168	16860	157465	27464	950985	36172	106610	0	0	8116	789166	0	0
2024-04-11 22:59:32			0	33315	0	0	0	18163	16860	157401	27386	951064	36183	106608	0	0	8116	789422	0	0
2024-04-11 23:00:32			0	33327	0	0	0	18161	16860	157437	27275	951012	36183	106607	0	0	8116	788808	0	0
2024-04-11 23:01:32			0	33316	0	0	0	18163	16850	157569	27319	951083	36183	106608	0	0	8116	789413	0	0
2024-04-11 23:02:32			0	33298	0	0	0	18150	16860	157505	27119	950959	36172	106603	0	0	8115	790293	0	0
2024-04-11 23:03:32			0	33289	0	0	0	18140	16850	157569	26989	950977	36194	106599	0	0	8115	790797	0	0
2024-04-11 23:04:32			0	33289	0	0	0	18127	16850	157537	27163	951004	36171	106594	0	0	8115	790797	0	0
2024-04-11 23:05:32			0	33307	0	0	0	18129	16850	157405	27305	950925	36194	106595	0	0	8116	789875	0	0
2024-04-11 23:06:32			0	33308	0	0	0	18085	16840	157457	27112	950900	36171	106578	0	0	8117	789866	0	0
2024-04-11 23:07:32			0	33302	0	0	0	18041	16840	157305	27157	950847	36182	106561	0	0	8117	790174	0	0
2024-04-11 23:08:32			0	33316	0	0	0	18127	16840	157473	27291	950821	36171	106594	0	0	8116	789456	0	0
2024-04-11 23:09:32			0	33306	0	0	0	18142	16830	157481	27059	950892	36181	106600	0	0	8115	790011	0	0
2024-04-11 23:10:32			0	33323	0	0	0	18142	16830	157449	27138	950945	36203	106600	0	0	8116	789140	0	0
2024-04-11 23:11:32			0	33323	0	0	0	18161	16830	157493	27048	950971	36181	106607	0	0	8116	789140	0	0
2024-04-11 23:12:32			0	33322	0	0	0	18158	16830	157461	27019	950892	36170	106606	0	0	8116	789192	0	0
2024-04-11 23:13:32			0	33322	0	0	0	18137	16840	157417	27069	950900	36171	106598	0	0	8116	789149	0	0
2024-04-11 23:14:32			0	33318	0	0	0	18153	16840	157469	27360	950979	36182	106604	0	0	8116	789354	0	0
2024-04-11 23:15:32			0	33302	0	0	0	18142	16840	157573	27317	950953	36182	106600	0	0	8115	790174	0	0
2024-04-11 23:16:32			0	33278	0	0	0	18137	16830	157665	27218	950918	36181	106598	0	0	8114	791448	0	0
2024-04-11 23:17:32			0	33275	0	0	0	18142	16840	157625	27590	950927	36182	106600	0	0	8114	791558	0	0
2024-04-11 23:18:32			0	33265	0	0	0	18148	16840	157613	27126	950953	36193	106602	0	0	8113	792072	0	0
2024-04-11 23:19:32			0	33294	0	0	0	18148	16840	157597	27066	950953	36182	106602	0	0	8115	790584	0	0
2024-04-11 23:20:32			0	33278	0	0	0	18142	16830	157669	27296	950892	36181	106600	0	0	8114	791448	0	0
2024-04-11 23:21:32			0	33268	0	0	0	18153	16840	157645	27156	950953	36171	106604	0	0	8113	791918	0	0
2024-04-11 23:22:32			0	33271	0	0	0	18158	16830	157717	27502	950937	36191	106606	0	0	8113	791807	0	0
2024-04-11 23:23:32			0	33296	0	0	0	18153	16830	157633	27265	950884	36180	106604	0	0	8115	790524	0	0
2024-04-11 23:24:32			0	33304	0	0	0	18145	16830	157497	27241	950858	36191	106601	0	0	8115	790114	0	0
2024-04-11 23:25:32			0	33305	0	0	0	18145	16830	157489	27284	950945	36192	106601	0	0	8115	790063	0	0
2024-04-11 23:26:32			0	33323	0	0	0	18135	16830	157305	27251	950945	36181	106597	0	0	8117	789140	0	0
2024-04-11 23:27:32			0	33351	0	0	0	18135	16830	157325	27215	950892	36181	106597	0	0	8118	787708	0	0
2024-04-11 23:28:32			0	33337	0	0	0	18137	16830	157333	27434	950910	36191	106598	0	0	8117	788424	0	0
2024-04-11 23:29:32			0	33371	0	0	0	18142	16830	157329	26975	950866	36192	106600	0	0	8119	786686	0	0
2024-04-11 23:30:32			0	33373	0	0	0	18153	16840	157277	27460	950979	36193	106604	0	0	8119	786541	0	0
2024-04-11 23:31:32			0	33414	0	0	0	18135	16830	157109	27190	950918	36192	106597	0	0	8122	784492	0	0
2024-04-11 23:32:32			0	33432	0	0	0	18135	16820	156969	27013	950902	36191	106597	0	0	8123	783618	0	0
2024-04-11 23:33:32			0	33437	0	0	0	18140	16830	156885	27223	950918	36192	106599	0	0	8123	783321	0	0
2024-04-11 23:34:32			0	33448	0	0	0	18137	16830	156961	27105	950884	36191	106598	0	0	8124	782761	0	0
2024-04-11 23:35:32			0	33441	0	0	0	18137	16830	156829	27092	950892	36192	106598	0	0	8124	783117	0	0
2024-04-11 23:36:32			0	33453	0	0	0	18129	16820	156817	27523	950841	36191	106595	0	0	8124	782550	0	0
2024-04-11 23:37:32			0	33478	0	0	0	18140	16820	156705	27050	950876	36180	106599	0	0	8126	781279	0	0
2024-04-11 23:38:32			0	33491	0	0	0	18127	16820	156657	27170	950876	36202	106594	0	0	8127	780619	0	0
2024-04-11 23:39:32			0	33498	0	0	0	18135	16820	156573	27403	950850	36169	106597	0	0	8127	780264	0	0
2024-04-11 23:40:32			0	33507	0	0	0	18127	16820	156593	27267	950902	36169	106594	0	0	8128	779807	0	0
2024-04-11 23:41:32			0	33529	0	0	0	18114	16810	156429	27409	950860	36179	106589	0	0	8129	778734	0	0
2024-04-11 23:42:32			0	33529	0	0	0	18114	16820	156401	27074	950868	36191	106589	0	0	8129	778692	0	0
2024-04-11 23:43:32			0	33539	0	0	0	18083	16820	156433	27769	950789	36191	106577	0	0	8130	778186	0	0
2024-04-11 23:44:32			0	33528	0	0	0	18114	16810	156521	27206	950860	36212	106589	0	0	8129	778785	0	0
2024-04-11 23:45:32			0	33540	0	0	0	18116	16810	156421	27440	950852	36190	106590	0	0	8130	778177	0	0
2024-04-11 23:46:32			0	33547	0	0	0	18124	16810	156497	27329	950754	36202	106593	0	0	8130	777823	0	0
2024-04-11 23:47:32			0	33529	0	0	0	18129	16810	156509	27168	950860	36202	106595	0	0	8129	778734	0	0
2024-04-11 23:48:32			0	33539	0	0	0	18111	16810	156517	27175	950860	36202	106588	0	0	8130	778228	0	0
2024-04-11 23:49:32			0	33531	0	0	0	18114	16810	156337	27026	950825	36201	106589	0	0	8129	778633	0	0
2024-04-11 23:50:32			0	33550	0	0	0	18114	16800	156409	27102	950817	36190	106589	0	0	8130	777713	0	0
2024-04-11 23:51:32			0	33558	0	0	0	18109	16800	156385	27377	950844	36190	106587	0	0	8131	777309	0	0
2024-04-11 23:52:32			0	33573	0	0	0	18116	16810	156274	27324	950852	36190	106590	0	0	8132	776508	0	0
2024-04-11 23:53:32			0	33582	0	0	0	18101	16800	156286	27180	950870	36190	106584	0	0	8132	776095	0	0
2024-04-11 23:54:32			0	33569	0	0	0	18103	16800	156298	27083	950844	36201	106585	0	0	8132	776752	0	0
2024-04-11 23:55:32			0	33586	0	0	0	18101	16800	156246	26981	950817	36190	106584	0	0	8133	775894	0	0
2024-04-11 23:56:32			0	33575	0	0	0	18103	16800	156233	27364	950791	36190	106585	0	0	8132	776449	0	0
2024-04-11 23:57:32			0	33594	0	0	0	18101	16800	156202	27293	950809	36201	106584	0	0	8133	775489	0	0
2024-04-11 23:58:32			0	33590	0	0	0	18106	16810	156250	27275	950799	36190	106586	0	0	8133	775649	0	0
2024-04-11 23:59:32			0	33606	0	0	0	18090	16810	156238	27421	950807	36202	106580	0	0	8134	774842	0	0
2024-04-12 00:00:32			0	33594	0	0	0	18098	16790	156126	27308	950775	36200	106583	0	0	8133	775531	0	0
2024-04-12 00:01:32			0	33600	0	0	0	18090	16800	156030	27300	950783	36190	106580	0	0	8134	775187	0	0
2024-04-12 00:02:32			0	33646	0	0	0	18083	16790	155930	27325	950775	36189	106577	0	0	8136	772910	0	0
2024-04-12 00:03:32			0	33652	0	0	0	18088	16790	155890	27090	950827	36200	106579	0	0	8137	772608	0	0
2024-04-12 00:04:32			0	33663	0	0	0	18096	16790	155882	27048	950722	36189	106582	0	0	8137	772054	0	0
2024-04-12 00:05:32			0	33653	0	0	0	18096	16790	155926	27211	950767	36188	106582	0	0	8137	772557	0	0
2024-04-12 00:06:32			0	33676	0	0	0	18106	16780	155918	27046	950758	36209	106586	0	0	8138	771442	0	0
2024-04-12 00:07:32			0	33670	0	0	0	18085	16790	155842	27378	950748	36178	106578	0	0	8138	771702	0	0
2024-04-12 00:08:32			0	33664	0	0	0	18093	16780	155922	26689	950732	36209	106581	0	0	8137	772046	0	0
2024-04-12 00:09:32			0	33659	0	0	0	18080	16780	155930	27069	950732	36199	106576	0	0	8137	772297	0	0
2024-04-12 00:10:32			0	33645	0	0	0	18098	16780	156058	27232	950732	36209	106583	0	0	8136	773002	0	0
2024-04-12 00:11:32			0	33668	0	0	0	18088	16780	155946	27026	950758	36209	106579	0	0	8137	771845	0	0
2024-04-12 00:12:32			0	33640	0	0	0	18005	16780	155990	27071	950706	36188	106547	0	0	8137	773254	0	0
2024-04-12 00:13:32			0	33526	0	0	0	17968	16780	156529	27092	950645	36188	106533	0	0	8131	779013	0	0
2024-04-12 00:14:32			0	33513	0	0	0	17989	16770	156609	27307	950576	36198	106541	0	0	8130	779714	0	0
2024-04-12 00:15:32			0	33511	0	0	0	18041	16750	156569	27414	950552	36197	106561	0	0	8129	779900	0	0
2024-04-12 00:16:32			0	33537	0	0	0	17999	16760	156377	26889	950594	36186	106545	0	0	8131	778540	0	0
2024-04-12 00:17:32			0	33563	0	0	0	17953	16750	156329	27121	950491	36185	106527	0	0	8133	777266	0	0
2024-04-12 00:18:32			0	33526	0	0	0	17948	16740	156473	26873	950430	36195	106525	0	0	8131	779182	0	0
2024-04-12 00:19:32			0	33515	0	0	0	18012	16730	156621	27137	950474	36184	106550	0	0	8130	779782	0	0
2024-04-12 00:20:32			0	33535	0	0	0	18007	16730	156441	27263	950527	36195	106548	0	0	8131	778768	0	0
2024-04-12 00:21:32			0	33514	0	0	0	18057	16730	156585	27010	950580	36195	106567	0	0	8129	779832	0	0
2024-04-12 00:22:32			0	33535	0	0	0	18031	16740	156513	27145	950562	36195	106557	0	0	8130	778726	0	0
2024-04-12 00:23:32			0	33550	0	0	0	18057	16730	156525	27355	950519	36184	106567	0	0	8131	778008	0	0
2024-04-12 00:24:32			0	33538	0	0	0	18023	16740	156493	27220	950562	36195	106554	0	0	8131	778574	0	0
2024-04-12 00:25:32			0	33534	0	0	0	18036	16730	156541	27161	950527	36195	106559	0	0	8130	778819	0	0
2024-04-12 00:26:32			0	33509	0	0	0	18005	16730	156613	27026	950501	36206	106547	0	0	8129	780086	0	0
2024-04-12 00:27:32			0	33489	0	0	0	18007	16740	156661	26908	950588	36184	106548	0	0	8128	781059	0	0
2024-04-12 00:28:32			0	33477	0	0	0	17989	16740	156709	27052	950588	36184	106541	0	0	8128	781668	0	0
2024-04-12 00:29:32			0	33476	0	0	0	17989	16730	156877	27085	950440	36195	106541	0	0	8128	781762	0	0
2024-04-12 00:30:32			0	33441	0	0	0	17864	16730	156833	27079	950440	36184	106493	0	0	8128	783542	0	0
2024-04-12 00:31:32			0	33435	0	0	0	17794	16710	156953	27183	950284	36171	106466	0	0	8128	783932	0	0
2024-04-12 00:32:32			0	33425	0	0	0	17846	16700	156997	27248	950207	36181	106486	0	0	8127	784484	0	0
2024-04-12 00:33:32			0	33421	0	0	0	17745	16690	157005	27128	950111	36180	106447	0	0	8128	784730	0	0
2024-04-12 00:34:32			0	33414	0	0	0	17690	16670	156989	27213	950026	36167	106426	0	0	8129	785172	0	0
2024-04-12 00:35:32			0	33434	0	0	0	17638	16640	156961	27074	949872	36144	106406	0	0	8131	784281	0	0
2024-04-12 00:36:32			0	33444	0	0	0	17568	16610	156753	27090	949647	36130	106379	0	0	8132	783898	0	0
2024-04-12 00:37:32			0	33442	0	0	0	17550	16570	156901	27003	949477	36138	106372	0	0	8132	784170	0	0
2024-04-12 00:38:32			0	33419	0	0	0	17529	16550	156973	27029	949304	36147	106364	0	0	8131	785428	0	0
2024-04-12 00:39:32			0	33436	0	0	0	17480	16510	156961	27291	949134	36122	106345	0	0	8133	784730	0	0
2024-04-12 00:40:32			0	33448	0	0	0	17457	16490	156869	27229	949075	36121	106336	0	0	8134	784203	0	0
2024-04-12 00:41:32			0	33459	0	0	0	17454	16430	157085	27599	948916	36117	106335	0	0	8134	783897	0	0
2024-04-12 00:42:32			0	33463	0	0	0	17423	16410	157041	26982	948849	36114	106323	0	0	8135	783778	0	0
2024-04-12 00:43:32			0	33504	0	0	0	17412	16370	156789	27374	948740	36100	106319	0	0	8137	781861	0	0
2024-04-12 00:44:32			0	33531	0	0	0	17386	16350	156677	27326	948646	36098	106309	0	0	8139	780574	0	0
2024-04-12 00:45:32			0	33576	0	0	0	17376	16330	156473	27277	948561	36108	106305	0	0	8142	778376	0	0
2024-04-12 00:46:32			0	33607	0	0	0	17412	16310	156374	27260	948529	36106	106319	0	0	8143	776890	0	0
2024-04-12 00:47:32			0	33621	0	0	0	17462	16280	156534	26968	948533	36103	106338	0	0	8143	776309	0	0
2024-04-12 00:48:32			0	33596	0	0	0	17576	16290	156654	27079	948681	36115	106382	0	0	8140	777531	0	0
2024-04-12 00:49:32			0	33569	0	0	0	17522	16280	156865	27232	948805	36125	106361	0	0	8139	778941	0	0
2024-04-12 00:50:32			0	33535	0	0	0	17592	16310	156945	27313	948924	36149	106388	0	0	8136	780539	0	0
2024-04-12 00:51:32			0	33491	0	0	0	17685	16300	157037	26951	948916	36138	106424	0	0	8132	782818	0	0
2024-04-12 00:52:32			0	33435	0	0	0	17724	16330	157393	27270	949070	36163	106439	0	0	8128	785545	0	0
2024-04-12 00:53:32			0	33339	0	0	0	17748	16330	157881	26935	949175	36140	106448	0	0	8122	790458	0	0
2024-04-12 00:54:32			0	33258	0	0	0	17774	16360	158197	27303	949242	36142	106458	0	0	8116	794493	0	0
2024-04-12 00:55:32			0	33202	0	0	0	17820	16370	158621	26934	949372	36176	106476	0	0	8112	797339	0	0
2024-04-12 00:56:32			0	33145	0	0	0	17831	16390	158781	27398	949423	36156	106480	0	0	8109	800202	0	0
2024-04-12 00:57:32			0	33100	0	0	0	17844	16390	158985	27270	949457	36167	106485	0	0	8106	802536	0	0
2024-04-12 00:58:32			0	33109	0	0	0	17851	16420	159057	27007	949577	36191	106488	0	0	8106	801939	0	0
2024-04-12 00:59:32			0	33065	0	0	0	17857	16430	159173	27154	949627	36170	106490	0	0	8104	804182	0	0
2024-04-12 01:00:32			0	33033	0	0	0	17851	16450	159269	27069	949599	36161	106488	0	0	8102	805761	0	0
2024-04-12 01:01:32			0	33020	0	0	0	17862	16470	159269	27261	949676	36163	106492	0	0	8101	806351	0	0
2024-04-12 01:02:32			0	33018	0	0	0	17844	16470	159365	27419	949728	36184	106485	0	0	8101	806456	0	0
2024-04-12 01:03:32			0	33043	0	0	0	17857	16490	159261	26987	949708	36174	106490	0	0	8103	805066	0	0
2024-04-12 01:04:32			0	33031	0	0	0	17888	16490	159305	27171	949734	36174	106502	0	0	8101	805691	0	0
2024-04-12 01:05:32			0	33041	0	0	0	17877	16500	159161	27376	949785	36187	106498	0	0	8102	805126	0	0
2024-04-12 01:06:32			0	33042	0	0	0	17870	16500	159057	27147	949759	36187	106495	0	0	8102	805074	0	0
2024-04-12 01:07:32			0	33044	0	0	0	17877	16510	159073	27159	949802	36176	106498	0	0	8103	804927	0	0
2024-04-12 01:08:32			0	33059	0	0	0	17880	16520	159057	27275	949739	36178	106499	0	0	8103	804103	0	0
2024-04-12 01:09:32			0	33055	0	0	0	17851	16530	158989	27090	949773	36167	106488	0	0	8104	804267	0	0
2024-04-12 01:10:32			0	33046	0	0	0	17833	16530	159045	26993	949773	36200	106481	0	0	8104	804735	0	0
2024-04-12 01:11:32			0	33033	0	0	0	17709	16520	158989	27033	949739	36178	106433	0	0	8105	805456	0	0
2024-04-12 01:12:32			0	33008	0	0	0	17794	16520	159181	26975	949686	36167	106466	0	0	8102	806759	0	0
2024-04-12 01:13:32			0	33002	0	0	0	17818	16530	159285	27227	949747	36189	106475	0	0	8101	807028	0	0
2024-04-12 01:14:32			0	32980	0	0	0	17833	16520	159369	27057	949712	36178	106481	0	0	8099	808221	0	0
2024-04-12 01:15:32			0	32986	0	0	0	17838	16520	159261	27038	949818	36178	106483	0	0	8100	807907	0	0
2024-04-12 01:16:32			0	32994	0	0	0	17849	16520	159281	27057	949765	36189	106487	0	0	8100	807489	0	0
2024-04-12 01:17:32			0	32984	0	0	0	17854	16530	159341	27327	949747	36178	106489	0	0	8099	807968	0	0
2024-04-12 01:18:32			0	33004	0	0	0	17851	16530	159321	27171	949799	36189	106488	0	0	8101	806924	0	0
2024-04-12 01:19:32			0	33036	0	0	0	17898	16530	159261	27008	949879	36189	106506	0	0	8102	805256	0	0
2024-04-12 01:20:32			0	33106	0	0	0	17914	16540	158893	27248	949842	36201	106512	0	0	8106	801574	0	0
2024-04-12 01:21:32			0	33168	0	0	0	17916	16550	158477	26928	949911	36201	106513	0	0	8110	798319	0	0
2024-04-12 01:22:32			0	33238	0	0	0	17924	16550	158153	27251	949919	36202	106516	0	0	8114	794707	0	0
2024-04-12 01:23:32			0	33291	0	0	0	17929	16550	157805	27550	949945	36202	106518	0	0	8117	791980	0	0
2024-04-12 01:24:32			0	33363	0	0	0	17948	16560	157505	27138	949961	36203	106525	0	0	8121	788246	0	0
2024-04-12 01:25:32			0	33444	0	0	0	17958	16560	157161	27088	950041	36192	106529	0	0	8125	784110	0	0
2024-04-12 01:26:32			0	33502	0	0	0	17971	16580	156917	27050	950118	36204	106534	0	0	8129	781075	0	0
2024-04-12 01:27:32			0	33568	0	0	0	17979	16570	156662	27206	950030	36204	106537	0	0	8132	777771	0	0
2024-04-12 01:28:32			0	33627	0	0	0	17989	16590	156386	27289	950134	36206	106541	0	0	8136	774705	0	0
2024-04-12 01:29:32			0	33672	0	0	0	17999	16600	156194	27460	950158	36206	106545	0	0	8138	772396	0	0
2024-04-12 01:30:32			0	33717	0	0	0	17976	16610	155914	27095	950219	36196	106536	0	0	8141	770092	0	0
2024-04-12 01:31:32			0	33709	0	0	0	17976	16620	155786	27135	950182	36218	106536	0	0	8141	770452	0	0
2024-04-12 01:32:32			0	33726	0	0	0	17981	16630	155754	27471	950260	36208	106538	0	0	8142	769557	0	0
2024-04-12 01:33:32			0	33743	0	0	0	17981	16620	155734	27107	950209	36218	106538	0	0	8143	768746	0	0
2024-04-12 01:34:32			0	33761	0	0	0	17979	16630	155582	26991	950199	36198	106537	0	0	8144	767802	0	0
2024-04-12 01:35:32			0	33779	0	0	0	17986	16630	155474	27126	950233	36208	106540	0	0	8145	766901	0	0
2024-04-12 01:36:32			0	33782	0	0	0	17984	16630	155454	27149	950251	36208	106539	0	0	8145	766751	0	0
2024-04-12 01:37:32			0	33790	0	0	0	17963	16640	155386	27310	950276	36220	106531	0	0	8146	766309	0	0
2024-04-12 01:38:32			0	33824	0	0	0	17971	16640	155342	27144	950241	36208	106534	0	0	8148	764610	0	0
2024-04-12 01:39:32			0	33820	0	0	0	17971	16640	155330	27079	950189	36220	106534	0	0	8148	764810	0	0
2024-04-12 01:40:32			0	33827	0	0	0	17968	16640	155230	27286	950223	36198	106533	0	0	8148	764460	0	0
2024-04-12 01:41:32			0	33829	0	0	0	17961	16650	155338	27000	950257	36199	106530	0	0	8148	764319	0	0
2024-04-12 01:42:32			0	33813	0	0	0	17966	16640	155398	27287	950223	36208	106532	0	0	8147	765159	0	0
2024-04-12 01:43:32			0	33815	0	0	0	17953	16640	155390	27286	950268	36198	106527	0	0	8148	765060	0	0
2024-04-12 01:44:32			0	33784	0	0	0	17955	16640	155502	27093	950249	36220	106528	0	0	8146	766609	0	0
2024-04-12 01:45:32			0	33770	0	0	0	17945	16650	155514	27322	950205	36209	106524	0	0	8145	767268	0	0
2024-04-12 01:46:32			0	33720	0	0	0	17953	16640	155722	27142	950170	36208	106527	0	0	8142	769816	0	0
2024-04-12 01:47:32			0	33725	0	0	0	17953	16640	155830	27005	950189	36208	106527	0	0	8142	769565	0	0
2024-04-12 01:48:32			0	33731	0	0	0	17963	16630	155706	27140	950180	36198	106531	0	0	8143	769306	0	0
2024-04-12 01:49:32			0	33762	0	0	0	17955	16640	155690	27078	950189	36220	106528	0	0	8145	767710	0	0
2024-04-12 01:50:32			0	33727	0	0	0	17945	16640	155738	27173	950189	36198	106524	0	0	8143	769465	0	0
2024-04-12 01:51:32			0	33741	0	0	0	17932	16630	155698	27569	950146	36186	106519	0	0	8144	768804	0	0
2024-04-12 01:52:32			0	33752	0	0	0	17950	16630	155650	27360	950180	36208	106526	0	0	8144	768253	0	0
2024-04-12 01:53:32			0	33765	0	0	0	17942	16640	155594	27279	950189	36220	106523	0	0	8145	767560	0	0
2024-04-12 01:54:32			0	33767	0	0	0	17942	16630	155574	27407	950199	36208	106523	0	0	8145	767502	0	0
2024-04-12 01:55:32			0	33797	0	0	0	17950	16640	155530	27287	950189	36220	106526	0	0	8147	765959	0	0
2024-04-12 01:56:32			0	33777	0	0	0	17950	16640	155474	27313	950215	36208	106526	0	0	8146	766959	0	0
2024-04-12 01:57:32			0	33769	0	0	0	17948	16640	155534	27284	950162	36208	106525	0	0	8145	767360	0	0
2024-04-12 01:58:32			0	33746	0	0	0	17885	16640	155662	27175	950189	36220	106501	0	0	8145	768512	0	0
2024-04-12 01:59:32			0	33722	0	0	0	17911	16640	155694	27177	950136	36208	106511	0	0	8143	769716	0	0
2024-04-12 02:00:32			0	33717	0	0	0	17864	16620	155830	27128	950085	36197	106493	0	0	8143	770050	0	0
2024-04-12 02:01:32			0	33655	0	0	0	17872	16620	156046	27100	950006	36208	106496	0	0	8140	773168	0	0
2024-04-12 02:02:32			0	33613	0	0	0	17872	16600	156102	27194	950000	36206	106496	0	0	8137	775370	0	0
2024-04-12 02:03:32			0	33613	0	0	0	17833	16600	156238	27206	950026	36195	106481	0	0	8138	775370	0	0
2024-04-12 02:04:32			0	33605	0	0	0	17862	16590	156274	27436	949984	36194	106492	0	0	8137	775816	0	0
2024-04-12 02:05:32			0	33618	0	0	0	17883	16600	156274	27013	950000	36195	106500	0	0	8137	775118	0	0
2024-04-12 02:06:32			0	33599	0	0	0	17877	16600	156342	26911	949992	36195	106498	0	0	8136	776077	0	0
2024-04-12 02:07:32			0	33605	0	0	0	17896	16580	156378	26977	949959	36182	106505	0	0	8136	775858	0	0
2024-04-12 02:08:32			0	33624	0	0	0	17888	16590	156294	27300	949984	36194	106502	0	0	8137	774857	0	0
2024-04-12 02:09:32			0	33599	0	0	0	17898	16590	156314	27142	949976	36216	106506	0	0	8136	776119	0	0
2024-04-12 02:10:32			0	33611	0	0	0	17896	16600	156402	27267	950044	36195	106505	0	0	8137	775471	0	0
2024-04-12 02:11:32			0	33613	0	0	0	17898	16600	156290	27180	950018	36206	106506	0	0	8137	775370	0	0
2024-04-12 02:12:32			0	33620	0	0	0	17901	16580	156242	27416	949994	36205	106507	0	0	8137	775101	0	0
2024-04-12 02:13:32			0	33665	0	0	0	17903	16600	156226	27003	950018	36206	106508	0	0	8140	772748	0	0
2024-04-12 02:14:32			0	33662	0	0	0	17901	16590	156182	27029	950063	36206	106507	0	0	8139	772941	0	0
2024-04-12 02:15:32			0	33680	0	0	0	17898	16580	156082	27334	949967	36215	106506	0	0	8140	772077	0	0
2024-04-12 02:16:32			0	33675	0	0	0	17898	16590	156086	27272	950081	36216	106506	0	0	8140	772287	0	0
2024-04-12 02:17:32			0	33693	0	0	0	17896	16580	156122	27072	949994	36215	106505	0	0	8141	771423	0	0
2024-04-12 02:18:32			0	33704	0	0	0	17903	16590	155950	27192	950036	36206	106508	0	0	8142	770828	0	0
2024-04-12 02:19:32			0	33723	0	0	0	17906	16590	155930	27268	950028	36216	106509	0	0	8143	769874	0	0
2024-04-12 02:20:32			0	33739	0	0	0	17903	16590	155854	26817	950028	36216	106508	0	0	8144	769071	0	0
2024-04-12 02:21:32			0	33754	0	0	0	17909	16590	155786	27280	950036	36216	106510	0	0	8145	768319	0	0
2024-04-12 02:22:32			0	33752	0	0	0	17909	16590	155794	27173	950002	36227	106510	0	0	8145	768419	0	0
2024-04-12 02:23:32			0	33751	0	0	0	17909	16590	155774	27215	950036	36227	106510	0	0	8144	768469	0	0
2024-04-12 02:24:32			0	33745	0	0	0	17914	16590	155658	27185	950010	36227	106512	0	0	8144	768770	0	0
2024-04-12 02:25:32			0	33753	0	0	0	17916	16600	155658	27197	950044	36216	106513	0	0	8145	768328	0	0
2024-04-12 02:26:32			0	33759	0	0	0	17909	16600	155718	27272	950018	36216	106510	0	0	8145	768027	0	0
2024-04-12 02:27:32			0	33760	0	0	0	17914	16590	155754	27124	950010	36216	106512	0	0	8145	768018	0	0
2024-04-12 02:28:32			0	33749	0	0	0	17906	16590	155770	27209	950063	36216	106509	0	0	8144	768570	0	0
2024-04-12 02:29:32			0	33726	0	0	0	17909	16590	155782	27412	950036	36227	106510	0	0	8143	769723	0	0
2024-04-12 02:30:32			0	33731	0	0	0	17914	16590	155822	27199	950036	36206	106512	0	0	8143	769472	0	0
2024-04-12 02:31:32			0	33724	0	0	0	17909	16600	155938	27024	950000	36195	106510	0	0	8143	769782	0	0
2024-04-12 02:32:32			0	33717	0	0	0	17906	16590	155922	27279	950010	36238	106509	0	0	8143	770175	0	0
2024-04-12 02:33:32			0	33702	0	0	0	17898	16590	155966	27038	950010	36227	106506	0	0	8142	770929	0	0
2024-04-12 02:34:32			0	33688	0	0	0	17898	16610	156098	27230	950061	36217	106506	0	0	8141	771549	0	0
2024-04-12 02:35:32			0	33645	0	0	0	17857	16590	156130	27194	950010	36227	106490	0	0	8139	773798	0	0
2024-04-12 02:36:32			0	33585	0	0	0	17859	16590	156502	27320	949976	36206	106491	0	0	8136	776827	0	0
2024-04-12 02:37:32			0	33526	0	0	0	17854	16590	156829	27362	949976	36216	106489	0	0	8132	779815	0	0
2024-04-12 02:38:32			0	33474	0	0	0	17841	16580	156993	27258	949933	36214	106484	0	0	8129	782498	0	0
2024-04-12 02:39:32			0	33435	0	0	0	17851	16580	157105	27322	949854	36225	106488	0	0	8127	784484	0	0
2024-04-12 02:40:32			0	33423	0	0	0	17836	16560	157313	27246	949935	36224	106482	0	0	8126	785181	0	0
2024-04-12 02:41:32			0	33388	0	0	0	17838	16560	157361	27218	949935	36213	106483	0	0	8124	786968	0	0
2024-04-12 02:42:32			0	33396	0	0	0	17812	16560	157377	26889	949856	36203	106473	0	0	8125	786559	0	0
2024-04-12 02:43:32			0	33349	0	0	0	17799	16550	157605	26928	949840	36202	106468	0	0	8122	789006	0	0
2024-04-12 02:44:32			0	33343	0	0	0	17794	16550	157725	27223	949813	36224	106466	0	0	8122	789313	0	0
2024-04-12 02:45:32			0	33324	0	0	0	17792	16540	157753	27519	949771	36212	106465	0	0	8121	790329	0	0
2024-04-12 02:46:32			0	33305	0	0	0	17781	16540	157797	27336	949718	36212	106461	0	0	8120	791304	0	0
2024-04-12 02:47:32			0	33286	0	0	0	17771	16530	158013	27594	949702	36211	106457	0	0	8119	792323	0	0
2024-04-12 02:48:32			0	33270	0	0	0	17763	16520	158141	27535	949660	36210	106454	0	0	8118	793188	0	0
2024-04-12 02:49:32			0	33249	0	0	0	17763	16530	158229	27190	949641	36210	106454	0	0	8117	794226	0	0
2024-04-12 02:50:32			0	33232	0	0	0	17729	16510	158213	27476	949556	36220	106441	0	0	8116	795188	0	0
2024-04-12 02:51:32			0	33238	0	0	0	17714	16500	158249	27010	949601	36208	106435	0	0	8117	794922	0	0
2024-04-12 02:52:32			0	33206	0	0	0	17711	16500	158305	27211	949487	36198	106434	0	0	8115	796572	0	0
2024-04-12 02:53:32			0	33204	0	0	0	17711	16490	158521	27248	949532	36197	106434	0	0	8115	796719	0	0
2024-04-12 02:54:32			0	33180	0	0	0	17735	16480	158441	27157	949534	36207	106443	0	0	8113	798001	0	0
2024-04-12 02:55:32			0	33198	0	0	0	17758	16480	158577	27111	949507	36207	106452	0	0	8114	797071	0	0
2024-04-12 02:56:32			0	33185	0	0	0	17758	16470	158657	27346	949499	36206	106452	0	0	8113	797786	0	0
2024-04-12 02:57:32			0	33191	0	0	0	17742	16470	158673	27199	949552	36206	106446	0	0	8114	797476	0	0
2024-04-12 02:58:32			0	33166	0	0	0	17722	16480	158617	27289	949542	36208	106438	0	0	8112	798725	0	0
2024-04-12 02:59:32			0	33154	0	0	0	17719	16470	158633	27024	949518	36206	106437	0	0	8112	799390	0	0
2024-04-12 03:00:32			0	33166	0	0	0	17732	16460	158537	27152	949483	36183	106442	0	0	8112	798812	0	0
2024-04-12 03:01:32			0	33166	0	0	0	17729	16450	158617	27279	949396	36183	106441	0	0	8112	798855	0	0
2024-04-12 03:02:32			0	33181	0	0	0	17732	16460	158509	27268	949457	36216	106442	0	0	8113	798036	0	0
2024-04-12 03:03:32			0	33179	0	0	0	17727	16450	158457	27029	949475	36183	106440	0	0	8113	798182	0	0
2024-04-12 03:04:32			0	33204	0	0	0	17742	16450	158353	27097	949467	36193	106446	0	0	8114	796891	0	0
2024-04-12 03:05:32			0	33224	0	0	0	17742	16440	158341	27248	949485	36193	106446	0	0	8115	795902	0	0
2024-04-12 03:06:32			0	33228	0	0	0	17748	16440	158357	27192	949512	36214	106448	0	0	8115	795695	0	0
2024-04-12 03:07:32			0	33230	0	0	0	17748	16440	158321	27301	949424	36193	106448	0	0	8116	795592	0	0
2024-04-12 03:08:32			0	33271	0	0	0	17735	16430	158313	27192	949416	36193	106443	0	0	8118	793523	0	0
2024-04-12 03:09:32			0	33246	0	0	0	17740	16450	158169	27334	949520	36215	106445	0	0	8117	794725	0	0
2024-04-12 03:10:32			0	33254	0	0	0	17722	16440	158173	27220	949433	36204	106438	0	0	8117	794355	0	0
2024-04-12 03:11:32			0	33277	0	0	0	17716	16430	158105	27121	949364	36204	106436	0	0	8119	793214	0	0
2024-04-12 03:12:32			0	33302	0	0	0	17714	16440	157989	27133	949372	36204	106435	0	0	8120	791887	0	0
2024-04-12 03:13:32			0	33286	0	0	0	17696	16440	158065	27421	949380	36225	106428	0	0	8120	792709	0	0
2024-04-12 03:14:32			0	33302	0	0	0	17706	16420	157997	27357	949313	36191	106432	0	0	8121	791972	0	0
2024-04-12 03:15:32			0	33305	0	0	0	17690	16410	158033	27386	949331	36191	106426	0	0	8121	791861	0	0
2024-04-12 03:16:32			0	33316	0	0	0	17688	16410	158001	27364	949305	36191	106425	0	0	8122	791296	0	0
2024-04-12 03:17:32			0	33330	0	0	0	17698	16410	157941	27450	949252	36202	106429	0	0	8122	790577	0	0
2024-04-12 03:18:32			0	33324	0	0	0	17685	16410	157977	27495	949226	36191	106424	0	0	8122	790885	0	0
2024-04-12 03:19:32			0	33341	0	0	0	17698	16400	157889	27291	949236	36178	106429	0	0	8123	790056	0	0
2024-04-12 03:20:32			0	33345	0	0	0	17703	16390	157757	27227	949246	36211	106431	0	0	8123	789894	0	0
2024-04-12 03:21:32			0	33368	0	0	0	17709	16400	157749	27452	949281	36211	106433	0	0	8124	788673	0	0
2024-04-12 03:22:32			0	33369	0	0	0	17706	16400	157629	27419	949333	36201	106432	0	0	8124	788621	0	0
2024-04-12 03:23:32			0	33368	0	0	0	17711	16390	157597	27187	949273	36201	106434	0	0	8124	788715	0	0
2024-04-12 03:24:32			0	33362	0	0	0	17714	16390	157669	27010	949194	36190	106435	0	0	8124	789023	0	0
2024-04-12 03:25:32			0	33351	0	0	0	17719	16400	157697	27364	949315	36190	106437	0	0	8123	789543	0	0
2024-04-12 03:26:32			0	33352	0	0	0	17724	16390	157773	27062	949325	36201	106439	0	0	8123	789535	0	0
2024-04-12 03:27:32			0	33327	0	0	0	17724	16400	157733	27178	949360	36201	106439	0	0	8122	790774	0	0
2024-04-12 03:28:32			0	33347	0	0	0	17737	16400	157817	27371	949413	36211	106444	0	0	8123	789748	0	0
2024-04-12 03:29:32			0	33333	0	0	0	17732	16390	157841	27215	949378	36211	106442	0	0	8122	790509	0	0
2024-04-12 03:30:32			0	33332	0	0	0	17740	16400	157873	27322	949368	36201	106445	0	0	8122	790518	0	0
2024-04-12 03:31:32			0	33311	0	0	0	17727	16400	157961	27383	949421	36211	106440	0	0	8121	791595	0	0
2024-04-12 03:32:32			0	33306	0	0	0	17693	16400	158005	27317	949333	36211	106427	0	0	8121	791852	0	0
2024-04-12 03:33:32			0	33361	0	0	0	17690	16400	157673	27206	949368	36211	106426	0	0	8124	789031	0	0
2024-04-12 03:34:32			0	33411	0	0	0	17696	16400	157361	27045	949315	36222	106428	0	0	8127	786474	0	0
2024-04-12 03:35:32			0	33440	0	0	0	17683	16390	157225	27185	949220	36201	106423	0	0	8129	785036	0	0
2024-04-12 03:36:32			0	33469	0	0	0	17677	16390	157133	27263	949185	36200	106421	0	0	8131	783557	0	0
2024-04-12 03:37:32			0	33500	0	0	0	17675	16380	157161	26941	949204	36199	106420	0	0	8133	782022	0	0
2024-04-12 03:38:32			0	33501	0	0	0	17677	16380	157057	27204	949177	36209	106421	0	0	8133	781971	0	0
2024-04-12 03:39:32			0	33497	0	0	0	17683	16380	156961	27298	949177	36209	106423	0	0	8132	782175	0	0
2024-04-12 03:40:32			0	33531	0	0	0	17683	16370	156857	27263	949214	36208	106423	0	0	8134	780489	0	0
2024-04-12 03:41:32			0	33576	0	0	0	17677	16380	156682	27428	949204	36209	106421	0	0	8137	778165	0	0
2024-04-12 03:42:32			0	33571	0	0	0	17683	16370	156589	27639	949153	36208	106423	0	0	8137	778461	0	0
2024-04-12 03:43:32			0	33586	0	0	0	17677	16380	156734	27282	949169	36208	106421	0	0	8138	777659	0	0
2024-04-12 03:44:32			0	33589	0	0	0	17680	16370	156742	27296	949206	36198	106422	0	0	8138	777549	0	0
2024-04-12 03:45:32			0	33558	0	0	0	17675	16370	156729	27140	949267	36208	106420	0	0	8136	779120	0	0
2024-04-12 03:46:32			0	33579	0	0	0	17677	16380	156830	27085	949143	36198	106421	0	0	8137	778014	0	0
2024-04-12 03:47:32			0	33573	0	0	0	17675	16370	156746	27150	949161	36208	106420	0	0	8137	778359	0	0
2024-04-12 03:48:32			0	33565	0	0	0	17672	16370	156761	27353	949206	36208	106419	0	0	8136	778765	0	0
2024-04-12 03:49:32			0	33586	0	0	0	17672	16350	156730	27374	949129	36208	106419	0	0	8138	777785	0	0
2024-04-12 03:50:32			0	33574	0	0	0	17670	16370	156710	27197	949161	36208	106418	0	0	8137	778309	0	0
2024-04-12 03:51:32			0	33580	0	0	0	17670	16360	156626	27301	949171	36197	106418	0	0	8137	778047	0	0
2024-04-12 03:52:32			0	33584	0	0	0	17654	16360	156690	27150	949171	36208	106412	0	0	8138	777844	0	0
2024-04-12 03:53:32			0	33602	0	0	0	17664	16370	156690	27400	949179	36208	106416	0	0	8139	776891	0	0
2024-04-12 03:54:32			0	33576	0	0	0	17670	16360	156710	27351	949224	36208	106418	0	0	8137	778250	0	0
2024-04-12 03:55:32			0	33590	0	0	0	17670	16360	156682	27296	949145	36219	106418	0	0	8138	777541	0	0
2024-04-12 03:56:32			0	33599	0	0	0	17662	16350	156666	27045	949094	36208	106415	0	0	8139	777127	0	0
2024-04-12 03:57:32			0	33604	0	0	0	17667	16360	156602	27093	949145	36208	106417	0	0	8139	776832	0	0
2024-04-12 03:58:32			0	33614	0	0	0	17680	16360	156466	27116	949110	36197	106422	0	0	8139	776327	0	0
2024-04-12 03:59:32			0	33625	0	0	0	17662	16350	156478	27383	949102	36208	106415	0	0	8140	775813	0	0
2024-04-12 04:00:32			0	33637	0	0	0	17659	16360	156450	27078	949137	36208	106414	0	0	8141	775165	0	0
2024-04-12 04:01:32			0	33644	0	0	0	17657	16360	156506	27467	949084	36218	106413	0	0	8141	774811	0	0
2024-04-12 04:02:32			0	33623	0	0	0	17662	16360	156450	27479	949110	36208	106415	0	0	8140	775872	0	0
2024-04-12 04:03:32			0	33642	0	0	0	17662	16350	156462	27481	949102	36218	106415	0	0	8141	774954	0	0
2024-04-12 04:04:32			0	33631	0	0	0	17657	16350	156406	27336	949121	36218	106413	0	0	8141	775510	0	0
2024-04-12 04:05:32			0	33640	0	0	0	17657	16350	156478	27346	949094	36208	106413	0	0	8141	775055	0	0
2024-04-12 04:06:32			0	33624	0	0	0	17659	16340	156630	27339	949086	36207	106414	0	0	8140	775905	0	0
2024-04-12 04:07:32			0	33633	0	0	0	17657	16350	156578	27312	949121	36218	106413	0	0	8141	775409	0	0
2024-04-12 04:08:32			0	33635	0	0	0	17659	16360	156590	27258	949137	36218	106414	0	0	8141	775266	0	0
2024-04-12 04:09:32			0	33622	0	0	0	17659	16330	156558	27518	949096	36206	106414	0	0	8140	776048	0	0
2024-04-12 04:10:32			0	33620	0	0	0	17659	16340	156606	27000	949112	36207	106414	0	0	8140	776107	0	0
2024-04-12 04:11:32			0	33627	0	0	0	17646	16340	156474	27348	949060	36207	106409	0	0	8140	775754	0	0
2024-04-12 04:12:32			0	33636	0	0	0	17644	16350	156386	26960	949094	36208	106408	0	0	8141	775257	0	0
2024-04-12 04:13:32			0	33628	0	0	0	17641	16340	156454	27296	949060	36207	106407	0	0	8141	775703	0	0
2024-04-12 04:14:32			0	33618	0	0	0	17641	16350	156614	27071	949041	36197	106407	0	0	8140	776166	0	0
2024-04-12 04:15:32			0	33598	0	0	0	17641	16340	156682	27137	949052	36216	106407	0	0	8139	777220	0	0
2024-04-12 04:16:32			0	33581	0	0	0	17638	16340	156706	27265	949112	36217	106406	0	0	8138	778080	0	0
2024-04-12 04:17:32			0	33576	0	0	0	17641	16330	156770	27208	949062	36206	106407	0	0	8137	778376	0	0
2024-04-12 04:18:32			0	33569	0	0	0	17646	16330	156854	27242	949070	36216	106409	0	0	8137	778730	0	0
2024-04-12 04:19:32			0	33569	0	0	0	17628	16330	156850	27258	949044	36206	106402	0	0	8137	778730	0	0
2024-04-12 04:20:32			0	33573	0	0	0	17633	16330	156837	26932	949062	36206	106404	0	0	8137	778528	0	0
2024-04-12 04:21:32			0	33544	0	0	0	17638	16330	156917	27265	949036	36216	106406	0	0	8136	779998	0	0
2024-04-12 04:22:32			0	33552	0	0	0	17633	16330	156889	27157	949009	36227	106404	0	0	8136	779592	0	0
2024-04-12 04:23:32			0	33561	0	0	0	17628	16320	156801	27324	948993	36215	106402	0	0	8137	779178	0	0
2024-04-12 04:24:32			0	33570	0	0	0	17646	16330	156673	27471	949044	36227	106409	0	0	8137	778680	0	0
2024-04-12 04:25:32			0	33600	0	0	0	17631	16320	156778	27493	949054	36215	106403	0	0	8139	777203	0	0
2024-04-12 04:26:32			0	33610	0	0	0	17631	16310	156606	27414	949011	36214	106403	0	0	8140	776739	0	0
2024-04-12 04:27:32			0	33646	0	0	0	17636	16320	156494	27298	949001	36215	106405	0	0	8142	774878	0	0
2024-04-12 04:28:32			0	33671	0	0	0	17636	16310	156338	27268	948959	36214	106405	0	0	8143	773659	0	0
2024-04-12 04:29:32			0	33714	0	0	0	17633	16330	156222	27327	949062	36216	106404	0	0	8146	771410	0	0
2024-04-12 04:30:32			0	33696	0	0	0	17625	16320	156254	27178	949054	36215	106401	0	0	8145	772357	0	0
2024-04-12 04:31:32			0	33685	0	0	0	17628	16320	156350	27078	949019	36215	106402	0	0	8144	772911	0	0
2024-04-12 04:32:32			0	33664	0	0	0	17625	16320	156410	27166	949027	36205	106401	0	0	8143	773970	0	0
2024-04-12 04:33:32			0	33631	0	0	0	17633	16320	156550	27327	949019	36205	106404	0	0	8141	775635	0	0
2024-04-12 04:34:32			0	33637	0	0	0	17636	16310	156494	27046	948959	36225	106405	0	0	8141	775374	0	0
2024-04-12 04:35:32			0	33663	0	0	0	17628	16310	156398	27332	949038	36225	106402	0	0	8143	774062	0	0
2024-04-12 04:36:32			0	33654	0	0	0	17625	16320	156430	27322	949019	36226	106401	0	0	8142	774474	0	0
2024-04-12 04:37:32			0	33654	0	0	0	17625	16320	156378	27315	948967	36226	106401	0	0	8142	774474	0	0
2024-04-12 04:38:32			0	33670	0	0	0	17631	16310	156362	27145	949011	36214	106403	0	0	8143	773709	0	0
2024-04-12 04:39:32			0	33676	0	0	0	17633	16330	156174	26837	949009	36239	106404	0	0	8144	773323	0	0
2024-04-12 04:40:32			0	33699	0	0	0	17633	16320	156174	27376	949001	36227	106404	0	0	8145	772206	0	0
2024-04-12 04:41:32			0	33727	0	0	0	17641	16320	156114	27592	949019	36237	106407	0	0	8146	770798	0	0
2024-04-12 04:42:32			0	33768	0	0	0	17646	16310	156018	27298	949030	36225	106409	0	0	8149	768781	0	0
2024-04-12 04:43:32			0	33777	0	0	0	17657	16330	155894	27124	949062	36216	106413	0	0	8149	768246	0	0
2024-04-12 04:44:32			0	33813	0	0	0	17649	16320	155778	27218	949046	36215	106410	0	0	8151	766485	0	0
2024-04-12 04:45:32			0	33821	0	0	0	17646	16320	155798	27176	949072	36215	106409	0	0	8152	766085	0	0
2024-04-12 04:46:32			0	33807	0	0	0	17641	16330	155738	26998	949036	36227	106407	0	0	8151	766744	0	0
2024-04-12 04:47:32			0	33809	0	0	0	17651	16320	155586	27261	949001	36227	106411	0	0	8151	766685	0	0
2024-04-12 04:48:32			0	33826	0	0	0	17641	16310	155498	27145	949011	36225	106407	0	0	8152	765876	0	0
2024-04-12 04:49:32			0	33846	0	0	0	17657	16320	155586	27322	949001	36227	106413	0	0	8153	764835	0	0
2024-04-12 04:50:32			0	33848	0	0	0	17649	16330	155586	27007	949036	36239	106410	0	0	8153	764694	0	0
2024-04-12 04:51:32			0	33868	0	0	0	17651	16320	155498	27507	949019	36226	106411	0	0	8154	763737	0	0
2024-04-12 04:52:32			0	33865	0	0	0	17641	16330	155502	27365	949036	36227	106407	0	0	8154	763845	0	0
2024-04-12 04:53:32			0	33849	0	0	0	17646	16320	155550	27334	949027	36215	106409	0	0	8153	764685	0	0
2024-04-12 04:54:32			0	33851	0	0	0	17646	16320	155578	27493	949159	36227	106409	0	0	8153	764585	0	0
2024-04-12 04:55:32			0	33856	0	0	0	17659	16330	155570	27053	949062	36216	106414	0	0	8154	764294	0	0
2024-04-12 04:56:32			0	33856	0	0	0	17664	16330	155530	27189	949036	36227	106416	0	0	8154	764294	0	0
2024-04-12 04:57:32			0	33891	0	0	0	17675	16330	155486	27293	949149	36227	106420	0	0	8155	762549	0	0
2024-04-12 04:58:32			0	33900	0	0	0	17664	16330	155302	27215	949088	36227	106416	0	0	8156	762100	0	0
2024-04-12 04:59:32			0	33884	0	0	0	17672	16330	155382	27182	949123	36227	106419	0	0	8155	762898	0	0
2024-04-12 05:00:32			0	33902	0	0	0	17667	16340	155366	27079	949131	36239	106417	0	0	8156	761959	0	0
2024-04-12 05:01:32			0	33903	0	0	0	17683	16330	155410	27201	949149	36250	106423	0	0	8156	761951	0	0
2024-04-12 05:02:32			0	33908	0	0	0	17688	16340	155286	27168	949104	36239	106425	0	0	8156	761660	0	0
2024-04-12 05:03:32			0	33920	0	0	0	17685	16340	155222	27015	949218	36239	106424	0	0	8157	761063	0	0
2024-04-12 05:04:32			0	33914	0	0	0	17688	16340	155206	27500	949183	36227	106425	0	0	8157	761362	0	0
2024-04-12 05:05:32			0	33926	0	0	0	17690	16340	155198	27481	949244	36228	106426	0	0	8157	760765	0	0
2024-04-12 05:06:32			0	33918	0	0	0	17677	16360	155146	27192	949189	36229	106421	0	0	8157	761081	0	0
2024-04-12 05:07:32			0	33915	0	0	0	17675	16350	155290	27298	949181	36240	106420	0	0	8157	761271	0	0
2024-04-12 05:08:32			0	33905	0	0	0	17672	16340	155206	27348	949139	36217	106419	0	0	8156	761810	0	0
2024-04-12 05:09:32			0	33902	0	0	0	17672	16350	155226	26996	949226	36229	106419	0	0	8156	761918	0	0
2024-04-12 05:10:32			0	33883	0	0	0	17670	16350	155254	27194	949147	36229	106418	0	0	8155	762865	0	0
2024-04-12 05:11:32			0	33910	0	0	0	17670	16360	155254	27085	949171	36251	106418	0	0	8157	761479	0	0
2024-04-12 05:12:32			0	33877	0	0	0	17667	16360	155278	27289	949216	36229	106417	0	0	8155	763123	0	0
2024-04-12 05:13:32			0	33878	0	0	0	17670	16340	155338	27249	949165	36228	106418	0	0	8155	763155	0	0
2024-04-12 05:14:32			0	33876	0	0	0	17664	16340	155498	27345	949191	36228	106416	0	0	8155	763255	0	0
2024-04-12 05:15:32			0	33872	0	0	0	17654	16350	155470	27459	949208	36240	106412	0	0	8155	763413	0	0
2024-04-12 05:16:32			0	33871	0	0	0	17662	16340	155430	27001	949165	36239	106415	0	0	8154	763505	0	0
2024-04-12 05:17:32			0	33829	0	0	0	17657	16350	155490	27150	949208	36229	106413	0	0	8152	765560	0	0
2024-04-12 05:18:32			0	33847	0	0	0	17649	16350	155518	27123	949155	36240	106410	0	0	8153	764661	0	0
2024-04-12 05:19:32			0	33836	0	0	0	17654	16340	155506	27433	949131	36239	106412	0	0	8153	765252	0	0
2024-04-12 05:20:32			0	33815	0	0	0	17646	16350	155578	27267	949181	36250	106409	0	0	8152	766261	0	0
2024-04-12 05:21:32			0	33824	0	0	0	17644	16350	155618	27424	949181	36262	106408	0	0	8152	765810	0	0
2024-04-12 05:22:32			0	33820	0	0	0	17651	16340	155658	27048	949104	36239	106411	0	0	8152	766052	0	0
2024-04-12 05:23:32			0	33802	0	0	0	17644	16330	155734	27225	949115	36227	106408	0	0	8151	766994	0	0
2024-04-12 05:24:32			0	33810	0	0	0	17649	16340	155718	27348	949060	36228	106410	0	0	8151	766552	0	0
2024-04-12 05:25:32			0	33797	0	0	0	17649	16340	155718	27332	949052	36250	106410	0	0	8150	767203	0	0
2024-04-12 05:26:32			0	33784	0	0	0	17644	16330	155790	27355	949123	36239	106408	0	0	8150	767896	0	0
2024-04-12 05:27:32			0	33762	0	0	0	17644	16340	155958	27253	949078	36227	106408	0	0	8148	768957	0	0
2024-04-12 05:28:32			0	33749	0	0	0	17649	16330	155974	27140	949149	36227	106410	0	0	8148	769651	0	0
2024-04-12 05:29:32			0	33765	0	0	0	17657	16340	155946	27383	949131	36227	106413	0	0	8148	768807	0	0
2024-04-12 05:30:32			0	33751	0	0	0	17644	16330	155998	27369	949070	36227	106408	0	0	8148	769551	0	0
2024-04-12 05:31:32			0	33759	0	0	0	17644	16330	156010	27258	949044	36239	106408	0	0	8148	769149	0	0
2024-04-12 05:32:32			0	33758	0	0	0	17644	16340	156010	27331	949183	36227	106408	0	0	8148	769158	0	0
2024-04-12 05:33:32			0	33752	0	0	0	17641	16340	155998	27190	949104	36239	106407	0	0	8148	769459	0	0
2024-04-12 05:34:32			0	33760	0	0	0	17633	16340	156010	27261	949078	36239	106404	0	0	8148	769058	0	0
2024-04-12 05:35:32			0	33753	0	0	0	17636	16330	156066	27310	949062	36239	106405	0	0	8148	769450	0	0
2024-04-12 05:36:32			0	33759	0	0	0	17641	16340	156082	27479	949052	36216	106407	0	0	8148	769108	0	0
2024-04-12 05:37:32			0	33753	0	0	0	17631	16330	156078	27265	949062	36239	106403	0	0	8148	769450	0	0
2024-04-12 05:38:32			0	33737	0	0	0	17633	16330	156026	27497	949044	36239	106404	0	0	8147	770254	0	0
2024-04-12 05:39:32			0	33732	0	0	0	17633	16320	156106	27479	949072	36248	106404	0	0	8147	770547	0	0
2024-04-12 05:40:32			0	33724	0	0	0	17636	16320	156214	27305	949054	36238	106405	0	0	8146	770949	0	0
2024-04-12 05:41:32			0	33721	0	0	0	17638	16320	156198	27317	949080	36238	106406	0	0	8146	771099	0	0
2024-04-12 05:42:32			0	33698	0	0	0	17633	16320	156202	27301	949080	36227	106404	0	0	8145	772257	0	0
2024-04-12 05:43:32			0	33670	0	0	0	17623	16320	156274	27383	948975	36227	106400	0	0	8143	773667	0	0
2024-04-12 05:44:32			0	33665	0	0	0	17615	16320	156566	26958	949027	36238	106397	0	0	8143	773919	0	0
2024-04-12 05:45:32			0	33611	0	0	0	17610	16320	156514	27348	949019	36237	106395	0	0	8140	776646	0	0
2024-04-12 05:46:32			0	33582	0	0	0	17610	16320	156761	27144	949019	36226	106395	0	0	8138	778114	0	0
2024-04-12 05:47:32			0	33551	0	0	0	17599	16310	156893	27336	948977	36247	106391	0	0	8137	779727	0	0
2024-04-12 05:48:32			0	33558	0	0	0	17597	16300	156833	27372	948961	36247	106390	0	0	8137	779414	0	0
2024-04-12 05:49:32			0	33579	0	0	0	17594	16300	156782	27180	948995	36236	106389	0	0	8138	778350	0	0
2024-04-12 05:50:32			0	33592	0	0	0	17587	16300	156758	27286	948961	36235	106386	0	0	8139	777692	0	0
2024-04-12 05:51:32			0	33569	0	0	0	17599	16300	156750	27391	948916	36236	106391	0	0	8138	778857	0	0
2024-04-12 05:52:32			0	33588	0	0	0	17592	16290	156878	27022	948953	36235	106388	0	0	8139	777936	0	0
2024-04-12 05:53:32			0	33568	0	0	0	17594	16290	156849	27301	948926	36235	106389	0	0	8138	778949	0	0
2024-04-12 05:54:32			0	33568	0	0	0	17602	16300	156861	27550	948961	36247	106392	0	0	8138	778907	0	0
2024-04-12 05:55:32			0	33563	0	0	0	17602	16290	156821	27241	949032	36223	106392	0	0	8137	779203	0	0
2024-04-12 05:56:32			0	33548	0	0	0	17602	16280	156897	27786	948910	36246	106392	0	0	8136	780006	0	0
2024-04-12 05:57:32			0	33539	0	0	0	17599	16290	156981	27473	948892	36246	106391	0	0	8136	780421	0	0
2024-04-12 05:58:32			0	33523	0	0	0	17594	16290	157037	27566	948945	36246	106389	0	0	8135	781233	0	0
2024-04-12 05:59:32			0	33527	0	0	0	17587	16290	157117	27429	948900	36246	106386	0	0	8135	781030	0	0
2024-04-12 06:00:32			0	33502	0	0	0	17594	16280	157029	27268	948910	36235	106389	0	0	8134	782343	0	0
2024-04-12 06:01:32			0	33504	0	0	0	17589	16280	157253	27393	948928	36234	106387	0	0	8134	782241	0	0
2024-04-12 06:02:32			0	33503	0	0	0	17581	16290	157117	27135	948945	36223	106384	0	0	8134	782250	0	0
2024-04-12 06:03:32			0	33512	0	0	0	17581	16270	157093	27227	948860	36222	106384	0	0	8134	781877	0	0
2024-04-12 06:04:32			0	33531	0	0	0	17576	16280	157025	27357	948876	36223	106382	0	0	8136	780869	0	0
2024-04-12 06:05:32			0	33537	0	0	0	17589	16280	157065	27145	948910	36246	106387	0	0	8136	780564	0	0
2024-04-12 06:06:32			0	33535	0	0	0	17581	16270	157093	27424	948868	36244	106384	0	0	8136	780708	0	0
2024-04-12 06:07:32			0	33512	0	0	0	17566	16270	157137	27422	948815	36233	106378	0	0	8135	781877	0	0
2024-04-12 06:08:32			0	33521	0	0	0	17568	16270	157101	27424	948841	36233	106379	0	0	8135	781419	0	0
2024-04-12 06:09:32			0	33497	0	0	0	17563	16270	157245	27409	948886	36211	106377	0	0	8134	782640	0	0
2024-04-12 06:10:32			0	33515	0	0	0	17550	16270	157217	27450	948780	36254	106372	0	0	8135	781724	0	0
2024-04-12 06:11:32			0	33497	0	0	0	17542	16270	157245	27213	948860	36244	106369	0	0	8134	782640	0	0
2024-04-12 06:12:32			0	33485	0	0	0	17537	16260	157253	27433	948791	36243	106367	0	0	8134	783293	0	0
2024-04-12 06:13:32			0	33461	0	0	0	17540	16250	157269	27371	948756	36243	106368	0	0	8132	784559	0	0
2024-04-12 06:14:32			0	33470	0	0	0	17542	16250	157525	27253	948756	36243	106369	0	0	8132	784099	0	0
2024-04-12 06:15:32			0	33467	0	0	0	17535	16250	157345	27215	948730	36231	106366	0	0	8132	784253	0	0
2024-04-12 06:16:32			0	33468	0	0	0	17532	16250	157493	27538	948801	36231	106365	0	0	8133	784202	0	0
2024-04-12 06:17:32			0	33467	0	0	0	17542	16240	157445	27405	948713	36252	106369	0	0	8132	784295	0	0
2024-04-12 06:18:32			0	33461	0	0	0	17529	16240	157405	27332	948687	36242	106364	0	0	8132	784601	0	0
2024-04-12 06:19:32			0	33477	0	0	0	17535	16240	157385	27483	948679	36219	106366	0	0	8133	783785	0	0
2024-04-12 06:20:32			0	33463	0	0	0	17529	16230	157353	27448	948742	36229	106364	0	0	8132	784541	0	0
2024-04-12 06:21:32			0	33469	0	0	0	17535	16230	157385	27348	948663	36229	106366	0	0	8132	784235	0	0
2024-04-12 06:22:32			0	33451	0	0	0	17527	16230	157381	27329	948697	36230	106363	0	0	8132	785153	0	0
2024-04-12 06:23:32			0	33456	0	0	0	17540	16220	157541	27173	948681	36240	106368	0	0	8132	784941	0	0
2024-04-12 06:24:32			0	33436	0	0	0	17558	16220	157477	27542	948655	36240	106375	0	0	8130	785961	0	0
2024-04-12 06:25:32			0	33458	0	0	0	17555	16240	157465	27455	948705	36252	106374	0	0	8132	784754	0	0
2024-04-12 06:26:32			0	33468	0	0	0	17545	16230	157441	27483	948716	36240	106370	0	0	8132	784286	0	0
2024-04-12 06:27:32			0	33484	0	0	0	17548	16220	157353	27230	948752	36229	106371	0	0	8133	783513	0	0
2024-04-12 06:28:32			0	33490	0	0	0	17545	16220	157341	27052	948734	36240	106370	0	0	8133	783208	0	0
2024-04-12 06:29:32			0	33500	0	0	0	17532	16220	157253	27305	948699	36229	106365	0	0	8134	782699	0	0
2024-04-12 06:30:32			0	33504	0	0	0	17540	16230	157265	27352	948697	36230	106368	0	0	8134	782453	0	0
2024-04-12 06:31:32			0	33504	0	0	0	17535	16220	157365	27391	948699	36229	106366	0	0	8134	782495	0	0
2024-04-12 06:32:32			0	33482	0	0	0	17532	16210	157393	27196	948639	36239	106365	0	0	8133	783658	0	0
2024-04-12 06:33:32			0	33459	0	0	0	17527	16210	157537	27390	948639	36228	106363	0	0	8132	784830	0	0
2024-04-12 06:34:32			0	33437	0	0	0	17527	16220	157593	27388	948647	36240	106363	0	0	8131	785910	0	0
2024-04-12 06:35:32			0	33416	0	0	0	17527	16220	157713	26974	948673	36240	106363	0	0	8129	786983	0	0
2024-04-12 06:36:32			0	33391	0	0	0	17511	16200	157697	27455	948596	36239	106357	0	0	8128	788347	0	0
2024-04-12 06:37:32			0	33373	0	0	0	17511	16220	157689	27204	948673	36229	106357	0	0	8127	789184	0	0
2024-04-12 06:38:32			0	33356	0	0	0	17509	16200	157853	27467	948649	36227	106356	0	0	8126	790141	0	0
2024-04-12 06:39:32			0	33366	0	0	0	17506	16210	157905	27493	948578	36227	106355	0	0	8127	789585	0	0
2024-04-12 06:40:32			0	33329	0	0	0	17514	16210	157901	27239	948604	36227	106358	0	0	8124	791484	0	0
2024-04-12 06:41:32			0	33330	0	0	0	17509	16210	157901	27048	948604	36239	106356	0	0	8125	791432	0	0
2024-04-12 06:42:32			0	33347	0	0	0	17506	16200	157953	27485	948622	36239	106355	0	0	8126	790602	0	0
2024-04-12 06:43:32			0	33346	0	0	0	17503	16210	157825	27145	948604	36239	106354	0	0	8126	790611	0	0
2024-04-12 06:44:32			0	33320	0	0	0	17503	16190	158037	27149	948580	36238	106354	0	0	8124	792032	0	0
2024-04-12 06:45:32			0	33285	0	0	0	17496	16200	158181	27286	948641	36227	106351	0	0	8122	793789	0	0
2024-04-12 06:46:32			0	33266	0	0	0	17496	16200	158325	27196	948614	36227	106351	0	0	8121	794768	0	0
2024-04-12 06:47:32			0	33265	0	0	0	17498	16190	158297	27329	948625	36237	106352	0	0	8121	794862	0	0
2024-04-12 06:48:32			0	33272	0	0	0	17493	16190	158517	27007	948546	36226	106350	0	0	8121	794502	0	0
2024-04-12 06:49:32			0	33268	0	0	0	17490	16190	158389	27020	948572	36237	106349	0	0	8121	794708	0	0
2024-04-12 06:50:32			0	33252	0	0	0	17475	16180	158365	27157	948590	36237	106343	0	0	8120	795575	0	0
2024-04-12 06:51:32			0	33246	0	0	0	17470	16180	158481	27201	948590	36237	106341	0	0	8120	795885	0	0
2024-04-12 06:52:32			0	33240	0	0	0	17475	16190	158477	26896	948546	36237	106343	0	0	8120	796151	0	0
2024-04-12 06:53:32			0	33239	0	0	0	17459	16180	158501	27627	948477	36225	106337	0	0	8120	796246	0	0
2024-04-12 06:54:32			0	33237	0	0	0	17464	16170	158409	27582	948495	36247	106339	0	0	8120	796392	0	0
2024-04-12 06:55:32			0	33228	0	0	0	17467	16170	158509	27296	948434	36235	106340	0	0	8119	796857	0	0
2024-04-12 06:56:32			0	33225	0	0	0	17464	16180	158477	27332	948424	36225	106339	0	0	8119	796969	0	0
2024-04-12 06:57:32			0	33233	0	0	0	17470	16170	158453	27289	948513	36224	106341	0	0	8119	796599	0	0
2024-04-12 06:58:32			0	33254	0	0	0	17475	16170	158437	27194	948469	36236	106343	0	0	8120	795515	0	0
2024-04-12 06:59:32			0	33270	0	0	0	17464	16170	158385	27353	948469	36236	106339	0	0	8121	794690	0	0
2024-04-12 07:00:32			0	33276	0	0	0	17470	16170	158273	27384	948487	36235	106341	0	0	8122	794381	0	0
2024-04-12 07:01:32			0	33276	0	0	0	17475	16170	158217	27372	948513	36224	106343	0	0	8122	794381	0	0
2024-04-12 07:02:32			0	33291	0	0	0	17470	16170	158233	27270	948461	36235	106341	0	0	8123	793609	0	0
2024-04-12 07:03:32			0	33286	0	0	0	17470	16170	158185	27161	948461	36235	106341	0	0	8122	793866	0	0
2024-04-12 07:04:32			0	33304	0	0	0	17459	16160	158153	27312	948479	36235	106337	0	0	8124	792983	0	0
2024-04-12 07:05:32			0	33297	0	0	0	17475	16160	158145	27511	948452	36235	106343	0	0	8123	793343	0	0
2024-04-12 07:06:32			0	33279	0	0	0	17454	16150	158285	27441	948436	36235	106335	0	0	8122	794312	0	0
2024-04-12 07:07:32			0	33266	0	0	0	17444	16150	158373	27350	948497	36235	106331	0	0	8121	794982	0	0
2024-04-12 07:08:32			0	33247	0	0	0	17431	16150	158441	27405	948410	36235	106326	0	0	8121	795962	0	0
2024-04-12 07:09:32			0	33249	0	0	0	17418	16150	158321	27249	948463	36235	106321	0	0	8121	795859	0	0
2024-04-12 07:10:32			0	33292	0	0	0	17405	16150	158145	27416	948410	36235	106316	0	0	8124	793643	0	0
2024-04-12 07:11:32			0	33370	0	0	0	17392	16130	157765	27154	948307	36244	106311	0	0	8128	789721	0	0
2024-04-12 07:12:32			0	33462	0	0	0	17386	16130	157477	27220	948333	36233	106309	0	0	8134	785016	0	0
2024-04-12 07:13:32			0	33510	0	0	0	17379	16130	157201	27241	948299	36232	106306	0	0	8137	782570	0	0
2024-04-12 07:14:32			0	33544	0	0	0	17376	16120	156997	27478	948264	36243	106305	0	0	8139	780883	0	0
2024-04-12 07:15:32			0	33571	0	0	0	17379	16110	156774	27416	948187	36231	106306	0	0	8141	779555	0	0
2024-04-12 07:16:32			0	33583	0	0	0	17428	16120	156686	27604	948229	36231	106325	0	0	8140	778904	0	0
2024-04-12 07:17:32			0	33556	0	0	0	17428	16120	156881	27426	948308	36231	106325	0	0	8139	780274	0	0
2024-04-12 07:18:32			0	33533	0	0	0	17415	16120	157073	27374	948256	36231	106320	0	0	8138	781442	0	0
2024-04-12 07:19:32			0	33528	0	0	0	17410	16110	157053	27822	948248	36231	106318	0	0	8137	781739	0	0
2024-04-12 07:20:32			0	33561	0	0	0	17415	16110	157001	27739	948240	36242	106320	0	0	8139	780062	0	0
2024-04-12 07:21:32			0	33587	0	0	0	17423	16110	156854	27294	948274	36231	106323	0	0	8141	778743	0	0
2024-04-12 07:22:32			0	33547	0	0	0	17418	16110	156993	27460	948300	36242	106321	0	0	8138	780773	0	0
2024-04-12 07:23:32			0	33506	0	0	0	17420	16110	157321	27376	948213	36231	106322	0	0	8136	782858	0	0
2024-04-12 07:24:32			0	33484	0	0	0	17423	16110	157265	27613	948274	36231	106323	0	0	8135	783979	0	0
2024-04-12 07:25:32			0	33494	0	0	0	17423	16110	157261	27767	948292	36231	106323	0	0	8135	783469	0	0
2024-04-12 07:26:32			0	33488	0	0	0	17425	16100	157137	27620	948276	36241	106324	0	0	8135	783817	0	0
2024-04-12 07:27:32			0	33544	0	0	0	17425	16110	157097	27677	948292	36242	106324	0	0	8138	780926	0	0
2024-04-12 07:28:32			0	33550	0	0	0	17428	16100	156921	27689	948223	36230	106325	0	0	8138	780663	0	0
2024-04-12 07:29:32			0	33538	0	0	0	17441	16110	156937	27145	948266	36242	106330	0	0	8138	781231	0	0
2024-04-12 07:30:32			0	33513	0	0	0	17433	16110	157105	27512	948292	36231	106327	0	0	8136	782502	0	0
2024-04-12 07:31:32			0	33476	0	0	0	17441	16110	157297	27419	948319	36231	106330	0	0	8134	784387	0	0
2024-04-12 07:32:32			0	33418	0	0	0	17433	16110	157521	27412	948292	36231	106327	0	0	8131	787349	0	0
2024-04-12 07:33:32			0	33393	0	0	0	17418	16110	157677	27149	948266	36242	106321	0	0	8129	788628	0	0
2024-04-12 07:34:32			0	33376	0	0	0	17433	16110	157877	27500	948327	36231	106327	0	0	8128	789499	0	0
2024-04-12 07:35:32			0	33346	0	0	0	17425	16110	157925	27396	948319	36231	106324	0	0	8126	791038	0	0
2024-04-12 07:36:32			0	33338	0	0	0	17425	16110	158065	27421	948266	36242	106324	0	0	8126	791449	0	0
2024-04-12 07:37:32			0	33308	0	0	0	17431	16110	158189	27576	948319	36252	106326	0	0	8124	792991	0	0
2024-04-12 07:38:32			0	33296	0	0	0	17412	16110	158337	27249	948266	36242	106319	0	0	8124	793608	0	0
2024-04-12 07:39:32			0	33269	0	0	0	17394	16110	158257	27284	948187	36242	106312	0	0	8122	794999	0	0
2024-04-12 07:40:32			0	33239	0	0	0	17392	16090	158461	27138	948242	36230	106311	0	0	8120	796633	0	0
2024-04-12 07:41:32			0	33223	0	0	0	17392	16100	158533	27443	948232	36231	106311	0	0	8120	797417	0	0
2024-04-12 07:42:32			0	33222	0	0	0	17397	16100	158637	27481	948205	36252	106313	0	0	8119	797468	0	0
2024-04-12 07:43:32			0	33223	0	0	0	17397	16100	158709	27547	948197	36230	106313	0	0	8119	797417	0	0
2024-04-12 07:44:32			0	33213	0	0	0	17394	16080	158713	27402	948173	36229	106312	0	0	8119	798020	0	0
2024-04-12 07:45:32			0	33206	0	0	0	17386	16090	158725	27571	948207	36240	106309	0	0	8119	798339	0	0
2024-04-12 07:46:32			0	33177	0	0	0	17405	16080	158765	27398	948252	36250	106316	0	0	8116	799883	0	0
2024-04-12 07:47:32			0	33180	0	0	0	17392	16080	158869	27864	948173	36250	106311	0	0	8117	799728	0	0
2024-04-12 07:48:32			0	33161	0	0	0	17386	16090	158861	27763	948181	36250	106309	0	0	8116	800669	0	0
2024-04-12 07:49:32			0	33162	0	0	0	17384	16090	158845	27694	948181	36240	106308	0	0	8116	800618	0	0
2024-04-12 07:50:32			0	33153	0	0	0	17386	16080	159025	27616	948138	36239	106309	0	0	8115	801128	0	0
2024-04-12 07:51:32			0	33123	0	0	0	17392	16080	159125	27795	948165	36228	106311	0	0	8113	802685	0	0
2024-04-12 07:52:32			0	33098	0	0	0	17394	16080	159209	27573	948147	36240	106312	0	0	8112	803985	0	0
2024-04-12 07:53:32			0	33101	0	0	0	17386	16080	159225	27765	948112	36228	106309	0	0	8112	803829	0	0
2024-04-12 07:54:32			0	33089	0	0	0	17389	16070	159305	27737	948157	36228	106310	0	0	8111	804497	0	0
2024-04-12 07:55:32			0	33101	0	0	0	17379	16080	159217	27633	948165	36239	106306	0	0	8112	803829	0	0
2024-04-12 07:56:32			0	33090	0	0	0	17386	16070	159225	27946	948157	36228	106309	0	0	8111	804445	0	0
2024-04-12 07:57:32			0	33093	0	0	0	17394	16080	159269	27545	948138	36239	106312	0	0	8112	804245	0	0
2024-04-12 07:58:32			0	33102	0	0	0	17381	16080	159121	27796	948112	36261	106307	0	0	8112	803777	0	0
2024-04-12 07:59:32			0	33127	0	0	0	17381	16070	159121	27516	948157	36250	106307	0	0	8114	802521	0	0
2024-04-12 08:00:32			0	33136	0	0	0	17381	16070	159041	27450	948149	36238	106307	0	0	8114	802053	0	0
2024-04-12 08:01:32			0	33145	0	0	0	17389	16080	158993	27710	948112	36250	106310	0	0	8115	801543	0	0
2024-04-12 08:02:32			0	33168	0	0	0	17386	16070	158849	27861	948130	36228	106309	0	0	8116	800393	0	0
2024-04-12 08:03:32			0	33185	0	0	0	17389	16080	158817	27796	948165	36250	106310	0	0	8117	799469	0	0
2024-04-12 08:04:32			0	33208	0	0	0	17397	16070	158777	27724	948104	36239	106313	0	0	8118	798321	0	0
2024-04-12 08:05:32			0	33211	0	0	0	17399	16070	158705	27554	948122	36238	106314	0	0	8119	798166	0	0
2024-04-12 08:06:32			0	33235	0	0	0	17397	16080	158593	27751	948191	36250	106313	0	0	8120	796883	0	0
2024-04-12 08:07:32			0	33238	0	0	0	17399	16070	158509	27831	948209	36250	106314	0	0	8120	796771	0	0
2024-04-12 08:08:32			0	33267	0	0	0	17405	16080	158461	27554	948165	36228	106316	0	0	8122	795231	0	0
2024-04-12 08:09:32			0	33273	0	0	0	17410	16080	158401	27843	948226	36261	106318	0	0	8122	794922	0	0
2024-04-12 08:10:32			0	33303	0	0	0	17420	16090	158229	27757	948260	36261	106322	0	0	8124	793334	0	0
2024-04-12 08:11:32			0	33317	0	0	0	17425	16080	158189	27989	948173	36250	106324	0	0	8125	792656	0	0
2024-04-12 08:12:32			0	33327	0	0	0	17420	16070	158049	27666	948236	36228	106322	0	0	8125	792185	0	0
2024-04-12 08:13:32			0	33343	0	0	0	17425	16080	158073	28266	948252	36250	106324	0	0	8126	791320	0	0
2024-04-12 08:14:32			0	33363	0	0	0	17425	16090	157917	27937	948268	36251	106324	0	0	8127	790251	0	0
2024-04-12 08:15:32			0	33362	0	0	0	17420	16090	157945	27736	948260	36261	106322	0	0	8127	790302	0	0
2024-04-12 08:16:32			0	33385	0	0	0	17420	16090	157853	27805	948313	36272	106322	0	0	8129	789123	0	0
2024-04-12 08:17:32			0	33397	0	0	0	17423	16090	157753	27940	948313	36250	106323	0	0	8129	788508	0	0
2024-04-12 08:18:32			0	33411	0	0	0	17418	16080	157781	27965	948305	36250	106321	0	0	8130	787834	0	0
2024-04-12 08:19:32			0	33431	0	0	0	17423	16110	157509	28121	948292	36263	106323	0	0	8132	786684	0	0
2024-04-12 08:20:32			0	33448	0	0	0	17431	16100	157589	27774	948250	36251	106326	0	0	8132	785858	0	0
2024-04-12 08:21:32			0	33445	0	0	0	17425	16100	157513	28216	948250	36251	106324	0	0	8132	786011	0	0
2024-04-12 08:22:32			0	33462	0	0	0	17423	16090	157329	27805	948207	36240	106323	0	0	8133	785185	0	0
2024-04-12 08:23:32			0	33480	0	0	0	17420	16100	157361	27840	948250	36251	106322	0	0	8134	784225	0	0
2024-04-12 08:24:32			0	33497	0	0	0	17423	16100	157345	27737	948258	36252	106323	0	0	8135	783359	0	0
2024-04-12 08:25:32			0	33496	0	0	0	17420	16100	157241	28018	948276	36251	106322	0	0	8135	783410	0	0
2024-04-12 08:26:32			0	33515	0	0	0	17428	16110	157169	27613	948292	36252	106325	0	0	8136	782400	0	0
2024-04-12 08:27:32			0	33505	0	0	0	17412	16100	157141	27436	948276	36251	106319	0	0	8136	782951	0	0
2024-04-12 08:28:32			0	33526	0	0	0	17425	16110	157141	27802	948292	36252	106324	0	0	8137	781840	0	0
2024-04-12 08:29:32			0	33502	0	0	0	17425	16100	157201	27793	948311	36252	106324	0	0	8136	783104	0	0
2024-04-12 08:30:32			0	33524	0	0	0	17420	16100	157249	27279	948276	36251	106322	0	0	8137	781985	0	0
2024-04-12 08:31:32			0	33499	0	0	0	17423	16100	157297	27833	948284	36252	106323	0	0	8135	783257	0	0
2024-04-12 08:32:32			0	33499	0	0	0	17420	16100	157357	27691	948276	36251	106322	0	0	8136	783257	0	0
2024-04-12 08:33:32			0	33473	0	0	0	17428	16100	157293	27384	948311	36242	106325	0	0	8134	784582	0	0
2024-04-12 08:34:32			0	33463	0	0	0	17423	16100	157409	27608	948337	36263	106323	0	0	8133	785092	0	0
2024-04-12 08:35:32			0	33462	0	0	0	17428	16100	157465	27894	948276	36251	106325	0	0	8133	785143	0	0
2024-04-12 08:36:32			0	33455	0	0	0	17433	16110	157429	27784	948292	36263	106327	0	0	8133	785458	0	0
2024-04-12 08:37:32			0	33457	0	0	0	17438	16100	157413	27242	948363	36252	106329	0	0	8133	785398	0	0
2024-04-12 08:38:32			0	33451	0	0	0	17438	16120	157421	27554	948335	36253	106329	0	0	8132	785620	0	0
2024-04-12 08:39:32			0	33455	0	0	0	17438	16110	157377	27582	948371	36252	106329	0	0	8133	785458	0	0
2024-04-12 08:40:32			0	33470	0	0	0	17436	16100	157509	27576	948311	36252	106328	0	0	8134	784735	0	0
2024-04-12 08:41:32			0	33448	0	0	0	17428	16100	157377	27426	948355	36262	106325	0	0	8132	785858	0	0
2024-04-12 08:42:32			0	33464	0	0	0	17436	16110	157397	27407	948345	36252	106328	0	0	8133	784999	0	0
2024-04-12 08:43:32			0	33440	0	0	0	17428	16110	157429	27319	948266	36252	106325	0	0	8132	786224	0	0
2024-04-12 08:44:32			0	33447	0	0	0	17433	16110	157565	27455	948345	36252	106327	0	0	8132	785866	0	0
2024-04-12 08:45:32			0	33449	0	0	0	17438	16110	157593	27384	948327	36253	106329	0	0	8132	785764	0	0
2024-04-12 08:46:32			0	33433	0	0	0	17444	16110	157609	27403	948353	36264	106331	0	0	8131	786582	0	0
2024-04-12 08:47:32			0	33435	0	0	0	17451	16120	157617	27206	948370	36253	106334	0	0	8131	786437	0	0
2024-04-12 08:48:32			0	33430	0	0	0	17444	16110	157629	27239	948371	36263	106331	0	0	8131	786735	0	0
2024-04-12 08:49:32			0	33438	0	0	0	17451	16120	157513	27583	948388	36264	106334	0	0	8131	786284	0	0
2024-04-12 08:50:32			0	33427	0	0	0	17454	16120	157581	27421	948361	36264	106335	0	0	8131	786846	0	0
2024-04-12 08:51:32			0	33438	0	0	0	17454	16120	157497	27434	948388	36264	106335	0	0	8131	786284	0	0
2024-04-12 08:52:32			0	33441	0	0	0	17449	16120	157633	27281	948422	36264	106333	0	0	8132	786130	0	0
2024-04-12 08:53:32			0	33464	0	0	0	17459	16120	157441	27293	948361	36275	106337	0	0	8133	784956	0	0
2024-04-12 08:54:32			0	33464	0	0	0	17464	16120	157453	27033	948361	36264	106339	0	0	8133	784956	0	0
2024-04-12 08:55:32			0	33462	0	0	0	17451	16120	157381	27313	948449	36264	106334	0	0	8133	785058	0	0
2024-04-12 08:56:32			0	33452	0	0	0	17449	16120	157353	27469	948449	36264	106333	0	0	8132	785569	0	0
2024-04-12 08:57:32			0	33475	0	0	0	17457	16120	157329	27281	948388	36275	106336	0	0	8134	784395	0	0
2024-04-12 08:58:32			0	33463	0	0	0	17451	16120	157361	27327	948396	36276	106334	0	0	8133	785007	0	0
2024-04-12 08:59:32			0	33461	0	0	0	17462	16130	157321	27405	948351	36264	106338	0	0	8133	785067	0	0
2024-04-12 09:00:32			0	33467	0	0	0	17464	16130	157321	27310	948351	36253	106339	0	0	8133	784761	0	0
2024-04-12 09:01:32			0	33469	0	0	0	17457	16120	157413	27156	948414	36286	106336	0	0	8133	784701	0	0
2024-04-12 09:02:32			0	33465	0	0	0	17457	16130	157325	27755	948404	36264	106336	0	0	8133	784863	0	0
2024-04-12 09:03:32			0	33473	0	0	0	17454	16130	157261	27556	948465	36254	106335	0	0	8134	784455	0	0
2024-04-12 09:04:32			0	33460	0	0	0	17467	16130	157281	27595	948351	36276	106340	0	0	8133	785118	0	0
2024-04-12 09:05:32			0	33463	0	0	0	17467	16130	157333	27365	948430	36253	106340	0	0	8133	784965	0	0
2024-04-12 09:06:32			0	33443	0	0	0	17459	16130	157417	27436	948412	36288	106337	0	0	8132	785986	0	0
2024-04-12 09:07:32			0	33455	0	0	0	17449	16140	157429	27421	948446	36276	106333	0	0	8133	785331	0	0
2024-04-12 09:08:32			0	33431	0	0	0	17446	16140	157497	27362	948473	36265	106332	0	0	8131	786556	0	0
2024-04-12 09:09:32			0	33445	0	0	0	17459	16130	157305	27557	948430	36264	106337	0	0	8132	785884	0	0
2024-04-12 09:10:32			0	33446	0	0	0	17459	16150	157457	27438	948436	36278	106337	0	0	8132	785748	0	0
2024-04-12 09:11:32			0	33472	0	0	0	17449	16140	157433	27185	948481	36288	106333	0	0	8134	784464	0	0
2024-04-12 09:12:32			0	33461	0	0	0	17459	16140	157401	27303	948446	36265	106337	0	0	8133	785025	0	0
2024-04-12 09:13:32			0	33460	0	0	0	17464	16140	157413	27807	948455	36277	106339	0	0	8133	785076	0	0
2024-04-12 09:14:32			0	33438	0	0	0	17470	16140	157457	27275	948507	36277	106341	0	0	8131	786199	0	0
2024-04-12 09:15:32			0	33438	0	0	0	17459	16130	157477	27360	948438	36276	106337	0	0	8131	786241	0	0
2024-04-12 09:16:32			0	33406	0	0	0	17462	16140	157753	27307	948428	36266	106338	0	0	8130	787835	0	0
2024-04-12 09:17:32			0	33386	0	0	0	17459	16140	157729	27294	948428	36266	106337	0	0	8128	788859	0	0
2024-04-12 09:18:32			0	33366	0	0	0	17467	16140	157813	27576	948499	36276	106340	0	0	8127	789884	0	0
2024-04-12 09:19:32			0	33351	0	0	0	17485	16140	157869	27540	948455	36266	106347	0	0	8126	790653	0	0
2024-04-12 09:20:32			0	33357	0	0	0	17488	16140	157949	27523	948560	36288	106348	0	0	8126	790345	0	0
2024-04-12 09:21:32			0	33360	0	0	0	17480	16150	157969	27225	948497	36267	106345	0	0	8126	790149	0	0
2024-04-12 09:22:32			0	33369	0	0	0	17475	16150	157857	27223	948523	36278	106343	0	0	8127	789687	0	0
2024-04-12 09:23:32			0	33366	0	0	0	17480	16150	157821	27216	948497	36289	106345	0	0	8127	789841	0	0
2024-04-12 09:24:32			0	33377	0	0	0	17472	16150	157689	27206	948463	36267	106342	0	0	8128	789277	0	0
2024-04-12 09:25:32			0	33378	0	0	0	17475	16160	157777	27124	948584	36267	106343	0	0	8128	789184	0	0
2024-04-12 09:26:32			0	33385	0	0	0	17477	16150	157781	27199	948550	36278	106344	0	0	8128	788868	0	0
2024-04-12 09:27:32			0	33365	0	0	0	17477	16150	157833	27078	948489	36278	106344	0	0	8127	789892	0	0
2024-04-12 09:28:32			0	33355	0	0	0	17480	16150	157845	27019	948489	36278	106345	0	0	8126	790405	0	0
2024-04-12 09:29:32			0	33340	0	0	0	17475	16150	157877	27327	948542	36267	106343	0	0	8125	791175	0	0
2024-04-12 09:30:32			0	33348	0	0	0	17485	16150	157929	27161	948515	36267	106347	0	0	8126	790765	0	0
2024-04-12 09:31:32			0	33337	0	0	0	17480	16160	157845	27310	948505	36267	106345	0	0	8125	791286	0	0
2024-04-12 09:32:32			0	33339	0	0	0	17470	16160	158025	27377	948531	36267	106341	0	0	8125	791184	0	0
2024-04-12 09:33:32			0	33318	0	0	0	17467	16150	158057	27301	948550	36278	106340	0	0	8124	792305	0	0
2024-04-12 09:34:32			0	33292	0	0	0	17477	16150	158133	27346	948444	36278	106344	0	0	8122	793643	0	0
2024-04-12 09:35:32			0	33293	0	0	0	17477	16150	158197	27256	948515	36267	106344	0	0	8123	793592	0	0
2024-04-12 09:36:32			0	33290	0	0	0	17477	16150	158197	27355	948550	36278	106344	0	0	8122	793746	0	0
2024-04-12 09:37:32			0	33259	0	0	0	17472	16150	158289	27561	948489	36267	106342	0	0	8121	795343	0	0
2024-04-12 09:38:32			0	33266	0	0	0	17462	16150	158185	27339	948550	36278	106338	0	0	8121	794982	0	0
2024-04-12 09:39:32			0	33285	0	0	0	17451	16150	158233	27502	948497	36289	106334	0	0	8123	794003	0	0
2024-04-12 09:40:32			0	33288	0	0	0	17446	16140	158085	27710	948507	36288	106332	0	0	8123	793892	0	0
2024-04-12 09:41:32			0	33305	0	0	0	17444	16150	158221	27457	948489	36278	106331	0	0	8124	792974	0	0
2024-04-12 09:42:32			0	33310	0	0	0	17451	16130	158153	27786	948438	36265	106334	0	0	8124	792802	0	0
2024-04-12 09:43:32			0	33300	0	0	0	17457	16140	158157	27377	948507	36277	106336	0	0	8123	793274	0	0
2024-04-12 09:44:32			0	33309	0	0	0	17444	16150	158109	27469	948523	36278	106331	0	0	8124	792768	0	0
2024-04-12 09:45:32			0	33293	0	0	0	17451	16140	158121	27386	948455	36277	106334	0	0	8123	793634	0	0
2024-04-12 09:46:32			0	33303	0	0	0	17514	16150	158137	27753	948550	36267	106358	0	0	8123	793077	0	0
2024-04-12 09:47:32			0	33318	0	0	0	17618	16160	158021	27397	948663	36299	106398	0	0	8122	792263	0	0
2024-04-12 09:48:32			0	33316	0	0	0	17633	16170	158141	27760	948758	36301	106404	0	0	8121	792323	0	0
2024-04-12 09:49:32			0	33304	0	0	0	17605	16200	158041	27696	948825	36303	106393	0	0	8121	792811	0	0
2024-04-12 09:50:32			0	33338	0	0	0	17553	16200	158081	27421	948807	36292	106373	0	0	8124	791064	0	0
2024-04-12 09:51:32			0	33323	0	0	0	17566	16200	158129	27248	948807	36292	106378	0	0	8123	791835	0	0
2024-04-12 09:52:32			0	33330	0	0	0	17641	16210	158165	27390	948902	36293	106407	0	0	8122	791432	0	0
2024-04-12 09:53:32			0	33316	0	0	0	17690	16230	158093	27701	948987	36306	106426	0	0	8121	792066	0	0
2024-04-12 09:54:32			0	33350	0	0	0	17683	16220	158013	27360	948997	36316	106423	0	0	8123	790363	0	0
2024-04-12 09:55:32			0	33366	0	0	0	17651	16260	157865	27301	949062	36298	106411	0	0	8124	789372	0	0
2024-04-12 09:56:32			0	33404	0	0	0	17628	16270	157617	27599	949123	36298	106402	0	0	8127	787384	0	0
2024-04-12 09:57:32			0	33449	0	0	0	17657	16270	157485	27639	949131	36309	106413	0	0	8129	785086	0	0
2024-04-12 09:58:32			0	33459	0	0	0	17675	16280	157365	27642	949086	36310	106420	0	0	8130	784533	0	0
2024-04-12 09:59:32			0	33472	0	0	0	17680	16290	157289	27390	949208	36322	106422	0	0	8130	783828	0	0
2024-04-12 10:00:32			0	33472	0	0	0	17690	16290	157209	27568	949208	36322	106426	0	0	8130	783828	0	0
2024-04-12 10:01:32			0	33493	0	0	0	17698	16300	157209	27666	949224	36323	106429	0	0	8131	782717	0	0
2024-04-12 10:02:32			0	33487	0	0	0	17706	16310	157181	27639	949267	36323	106432	0	0	8131	782980	0	0
2024-04-12 10:03:32			0	33488	0	0	0	17696	16310	157253	27187	949275	36323	106428	0	0	8131	782929	0	0
2024-04-12 10:04:32			0	33472	0	0	0	17701	16320	157213	27441	949291	36314	106430	0	0	8130	783701	0	0
2024-04-12 10:05:32			0	33491	0	0	0	17693	16330	157265	27289	949299	36326	106427	0	0	8132	782691	0	0
2024-04-12 10:06:32			0	33483	0	0	0	17696	16340	157337	27478	949350	36326	106428	0	0	8131	783056	0	0
2024-04-12 10:07:32			0	33479	0	0	0	17701	16340	157193	27514	949350	36326	106430	0	0	8131	783260	0	0
2024-04-12 10:08:32			0	33472	0	0	0	17698	16340	157261	27350	949350	36326	106429	0	0	8130	783616	0	0
2024-04-12 10:09:32			0	33464	0	0	0	17693	16350	157221	27369	949331	36327	106427	0	0	8130	783982	0	0
2024-04-12 10:10:32			0	33459	0	0	0	17701	16360	157169	27571	949400	36327	106430	0	0	8130	784194	0	0
2024-04-12 10:11:32			0	33474	0	0	0	17709	16350	157121	27701	949392	36316	106433	0	0	8130	783472	0	0
2024-04-12 10:12:32			0	33464	0	0	0	17711	16360	157185	27355	949382	36328	106434	0	0	8130	783939	0	0
2024-04-12 10:13:32			0	33483	0	0	0	17714	16370	157085	27557	949416	36318	106435	0	0	8131	782929	0	0
2024-04-12 10:14:32			0	33475	0	0	0	17722	16380	157237	27488	949433	36318	106438	0	0	8130	783294	0	0
2024-04-12 10:15:32			0	33472	0	0	0	17727	16360	157225	27313	949461	36328	106440	0	0	8130	783532	0	0
2024-04-12 10:16:32			0	33475	0	0	0	17724	16370	157249	27308	949372	36339	106439	0	0	8130	783337	0	0
2024-04-12 10:17:32			0	33490	0	0	0	17722	16380	157121	27488	949486	36318	106438	0	0	8131	782531	0	0
2024-04-12 10:18:32			0	33483	0	0	0	17724	16370	157173	27383	949557	36318	106439	0	0	8131	782929	0	0
2024-04-12 10:19:32			0	33469	0	0	0	17732	16380	157085	27672	949433	36329	106442	0	0	8130	783600	0	0
2024-04-12 10:20:32			0	33493	0	0	0	17727	16390	157025	27424	949502	36341	106440	0	0	8131	782336	0	0
2024-04-12 10:21:32			0	33491	0	0	0	17724	16380	157029	27383	949494	36340	106439	0	0	8131	782480	0	0
2024-04-12 10:22:32			0	33513	0	0	0	17701	16390	157017	27547	949510	36341	106430	0	0	8133	781319	0	0
2024-04-12 10:23:32			0	33506	0	0	0	17685	16390	156965	27639	949483	36320	106424	0	0	8133	781675	0	0
2024-04-12 10:24:32			0	33533	0	0	0	17662	16400	156877	27402	949492	36331	106415	0	0	8135	780261	0	0
2024-04-12 10:25:32			0	33542	0	0	0	17659	16390	156909	27807	949475	36297	106414	0	0	8135	779847	0	0
2024-04-12 10:26:32			0	33538	0	0	0	17636	16380	156809	27710	949388	36330	106405	0	0	8136	780092	0	0
2024-04-12 10:27:32			0	33541	0	0	0	17605	16380	156773	27711	949388	36330	106393	0	0	8136	779940	0	0
2024-04-12 10:28:32			0	33536	0	0	0	17594	16370	156725	27659	949337	36329	106389	0	0	8136	780236	0	0
2024-04-12 10:29:32			0	33537	0	0	0	17592	16360	156797	27729	949250	36317	106388	0	0	8136	780227	0	0
2024-04-12 10:30:32			0	33534	0	0	0	17587	16350	156769	27362	949279	36305	106386	0	0	8136	780421	0	0
2024-04-12 10:31:32			0	33536	0	0	0	17589	16350	156805	27467	949147	36316	106387	0	0	8136	780320	0	0
2024-04-12 10:32:32			0	33522	0	0	0	17581	16340	156813	27781	949139	36315	106384	0	0	8135	781073	0	0
2024-04-12 10:33:32			0	33532	0	0	0	17566	16340	156873	27455	949139	36315	106378	0	0	8136	780565	0	0
2024-04-12 10:34:32			0	33518	0	0	0	17581	16320	156793	27419	949106	36303	106384	0	0	8135	781361	0	0
2024-04-12 10:35:32			0	33523	0	0	0	17576	16310	156861	27486	949143	36323	106382	0	0	8135	781149	0	0
2024-04-12 10:36:32			0	33521	0	0	0	17548	16310	156965	27524	949056	36301	106371	0	0	8136	781251	0	0
2024-04-12 10:37:32			0	33533	0	0	0	17550	16310	156845	27656	949056	36312	106372	0	0	8136	780641	0	0
2024-04-12 10:38:32			0	33518	0	0	0	17555	16290	156933	27587	949005	36311	106374	0	0	8135	781487	0	0
2024-04-12 10:39:32			0	33498	0	0	0	17561	16290	156917	27556	948979	36311	106376	0	0	8134	782504	0	0
2024-04-12 10:40:32			0	33494	0	0	0	17563	16290	156985	27454	949058	36322	106377	0	0	8134	782708	0	0
2024-04-12 10:41:32			0	33498	0	0	0	17555	16290	157093	27680	948971	36299	106374	0	0	8134	782504	0	0
2024-04-12 10:42:32			0	33487	0	0	0	17555	16290	157097	27663	949032	36322	106374	0	0	8133	783064	0	0
2024-04-12 10:43:32			0	33477	0	0	0	17574	16280	157117	27199	949042	36299	106381	0	0	8133	783616	0	0
2024-04-12 10:44:32			0	33487	0	0	0	17571	16280	157097	27377	948963	36311	106380	0	0	8133	783107	0	0
2024-04-12 10:45:32			0	33466	0	0	0	17599	16280	157217	27585	949042	36311	106391	0	0	8131	784176	0	0
2024-04-12 10:46:32			0	33463	0	0	0	17612	16280	157349	27362	949042	36333	106396	0	0	8131	784329	0	0
2024-04-12 10:47:32			0	33464	0	0	0	17649	16290	157241	27466	949129	36333	106410	0	0	8131	784236	0	0
2024-04-12 10:48:32			0	33467	0	0	0	17651	16290	157229	27244	949163	36322	106411	0	0	8131	784083	0	0
2024-04-12 10:49:32			0	33484	0	0	0	17641	16290	157117	27665	949163	36333	106407	0	0	8132	783217	0	0
2024-04-12 10:50:32			0	33499	0	0	0	17636	16310	157117	27438	949188	36312	106405	0	0	8133	782369	0	0
2024-04-12 10:51:32			0	33499	0	0	0	17657	16310	157097	27763	949196	36312	106413	0	0	8133	782369	0	0
2024-04-12 10:52:32			0	33512	0	0	0	17649	16320	157001	27621	949177	36313	106410	0	0	8134	781666	0	0
2024-04-12 10:53:32			0	33538	0	0	0	17620	16320	156929	27677	949291	36335	106399	0	0	8136	780345	0	0
2024-04-12 10:54:32			0	33516	0	0	0	17599	16320	156853	27959	949177	36334	106391	0	0	8135	781462	0	0
2024-04-12 10:55:32			0	33540	0	0	0	17594	16320	156813	27942	949177	36313	106389	0	0	8136	780243	0	0
2024-04-12 10:56:32			0	33513	0	0	0	17599	16310	156865	27400	949090	36333	106391	0	0	8134	781657	0	0
2024-04-12 10:57:32			0	33509	0	0	0	17587	16310	157021	27783	949143	36323	106386	0	0	8134	781861	0	0
2024-04-12 10:58:32			0	33507	0	0	0	17574	16300	157017	27517	949127	36323	106381	0	0	8134	782004	0	0
2024-04-12 10:59:32			0	33481	0	0	0	17561	16300	157057	27441	949145	36300	106376	0	0	8133	783328	0	0
2024-04-12 11:00:32			0	33477	0	0	0	17566	16300	157101	27391	949119	36311	106378	0	0	8133	783531	0	0
2024-04-12 11:01:32			0	33472	0	0	0	17563	16290	157089	27758	949111	36322	106377	0	0	8132	783828	0	0
2024-04-12 11:02:32			0	33470	0	0	0	17581	16290	157125	27784	949084	36322	106384	0	0	8132	783930	0	0
2024-04-12 11:03:32			0	33464	0	0	0	17579	16290	157225	27802	949050	36311	106383	0	0	8132	784236	0	0
2024-04-12 11:04:32			0	33487	0	0	0	17581	16290	157213	27987	949050	36333	106384	0	0	8133	783064	0	0
2024-04-12 11:05:32			0	33491	0	0	0	17599	16280	156993	27490	949042	36333	106391	0	0	8133	782903	0	0
2024-04-12 11:06:32			0	33518	0	0	0	17602	16280	156957	27796	949068	36322	106392	0	0	8134	781530	0	0
2024-04-12 11:07:32			0	33517	0	0	0	17636	16290	156801	27694	949129	36333	106405	0	0	8134	781538	0	0
2024-04-12 11:08:32			0	33525	0	0	0	17685	16300	157001	27556	949259	36333	106424	0	0	8134	781089	0	0
2024-04-12 11:09:32			0	33538	0	0	0	17662	16320	156981	27977	949309	36334	106415	0	0	8135	780345	0	0
2024-04-12 11:10:32			0	33537	0	0	0	17641	16310	156781	27812	949319	36323	106407	0	0	8135	780438	0	0
2024-04-12 11:11:32			0	33557	0	0	0	17649	16320	156853	27963	949265	36346	106410	0	0	8136	779381	0	0
2024-04-12 11:12:32			0	33547	0	0	0	17654	16330	156837	27630	949352	36336	106412	0	0	8136	779846	0	0
2024-04-12 11:13:32			0	33541	0	0	0	17657	16330	156873	27783	949360	36326	106413	0	0	8135	780150	0	0
2024-04-12 11:14:32			0	33548	0	0	0	17649	16330	156769	27680	949307	36326	106410	0	0	8136	779795	0	0
2024-04-12 11:15:32			0	33558	0	0	0	17638	16340	156750	27881	949342	36336	106406	0	0	8137	779246	0	0
2024-04-12 11:16:32			0	33557	0	0	0	17644	16330	156837	27748	949360	36326	106408	0	0	8136	779339	0	0
2024-04-12 11:17:32			0	33564	0	0	0	17646	16350	156805	27975	949331	36349	106409	0	0	8137	778900	0	0
2024-04-12 11:18:32			0	33535	0	0	0	17638	16340	156753	27743	949342	36358	106406	0	0	8135	780413	0	0
2024-04-12 11:19:32			0	33528	0	0	0	17646	16350	156813	27838	949366	36360	106409	0	0	8135	780726	0	0
2024-04-12 11:20:32			0	33531	0	0	0	17657	16360	156789	27826	949374	36337	106413	0	0	8135	780532	0	0
2024-04-12 11:21:32			0	33534	0	0	0	17677	16360	156965	28213	949453	36327	106421	0	0	8135	780379	0	0
2024-04-12 11:22:32			0	33526	0	0	0	17677	16360	156881	28129	949400	36337	106421	0	0	8134	780785	0	0
2024-04-12 11:23:32			0	33529	0	0	0	17670	16370	156801	28117	949416	36350	106418	0	0	8134	780591	0	0
2024-04-12 11:24:32			0	33523	0	0	0	17709	16360	156865	27899	949435	36328	106433	0	0	8133	780938	0	0
2024-04-12 11:25:32			0	33531	0	0	0	17711	16370	156925	27800	949530	36339	106434	0	0	8134	780489	0	0
2024-04-12 11:26:32			0	33513	0	0	0	17745	16380	156897	27951	949565	36339	106447	0	0	8132	781361	0	0
2024-04-12 11:27:32			0	33532	0	0	0	17768	16380	156769	27916	949625	36362	106456	0	0	8133	780396	0	0
2024-04-12 11:28:32			0	33549	0	0	0	17755	16390	156725	27651	949642	36341	106451	0	0	8134	779492	0	0
2024-04-12 11:29:32			0	33574	0	0	0	17735	16400	156682	27776	949597	36341	106443	0	0	8136	778182	0	0
2024-04-12 11:30:32			0	33584	0	0	0	17729	16400	156542	27985	949676	36353	106441	0	0	8137	777676	0	0
2024-04-12 11:31:32			0	33589	0	0	0	17719	16410	156498	27776	949640	36342	106437	0	0	8137	777381	0	0
2024-04-12 11:32:32			0	33580	0	0	0	17688	16410	156570	27637	949587	36342	106425	0	0	8137	777837	0	0
2024-04-12 11:33:32			0	33591	0	0	0	17693	16410	156442	27928	949613	36332	106427	0	0	8138	777280	0	0
2024-04-12 11:34:32			0	33563	0	0	0	17709	16400	156621	27531	949631	36353	106433	0	0	8136	778740	0	0
2024-04-12 11:35:32			0	33558	0	0	0	17768	16430	156657	27979	949698	36355	106456	0	0	8135	778867	0	0
2024-04-12 11:36:32			0	33553	0	0	0	17797	16430	156737	27682	949777	36366	106467	0	0	8134	779120	0	0
2024-04-12 11:37:32			0	33555	0	0	0	17932	16440	156733	27763	949907	36367	106519	0	0	8132	778977	0	0
2024-04-12 11:38:32			0	33569	0	0	0	18067	16460	156694	27842	950195	36390	106571	0	0	8130	778183	0	0
2024-04-12 11:39:32			0	33591	0	0	0	18137	16510	156614	27724	950355	36405	106598	0	0	8131	776860	0	0
2024-04-12 11:40:32			0	33626	0	0	0	18186	16550	156486	28081	950596	36418	106617	0	0	8132	774924	0	0
2024-04-12 11:41:32			0	33634	0	0	0	18155	16590	156466	27746	950748	36422	106605	0	0	8133	774352	0	0
2024-04-12 11:42:32			0	33660	0	0	0	18197	16620	156354	27760	950789	36425	106621	0	0	8134	772916	0	0
2024-04-12 11:43:32			0	33644	0	0	0	18212	16650	156190	27672	950943	36406	106627	0	0	8133	773597	0	0
2024-04-12 11:44:32			0	33656	0	0	0	18212	16670	156134	27599	951010	36430	106627	0	0	8134	772909	0	0
2024-04-12 11:45:32			0	33653	0	0	0	18168	16690	156162	27675	951087	36430	106610	0	0	8135	772976	0	0
2024-04-12 11:46:32			0	33663	0	0	0	18166	16710	156066	27783	951093	36444	106609	0	0	8136	772389	0	0
2024-04-12 11:47:32			0	33679	0	0	0	18233	16730	155982	27663	951205	36434	106635	0	0	8135	771500	0	0
2024-04-12 11:48:32			0	33664	0	0	0	18249	16750	155910	27562	951203	36424	106641	0	0	8134	772171	0	0
2024-04-12 11:49:32			0	33685	0	0	0	18262	16770	155890	27914	951296	36449	106646	0	0	8135	771032	0	0
2024-04-12 11:50:32			0	33686	0	0	0	18225	16780	155834	27894	951339	36438	106632	0	0	8136	770940	0	0
2024-04-12 11:51:32			0	33705	0	0	0	18212	16800	155722	27724	951310	36440	106627	0	0	8138	769902	0	0
2024-04-12 11:52:32			0	33703	0	0	0	18212	16820	155758	27627	951369	36431	106627	0	0	8138	769919	0	0
2024-04-12 11:53:32			0	33698	0	0	0	18257	16820	155738	27393	951509	36431	106644	0	0	8137	770170	0	0
2024-04-12 11:54:32			0	33699	0	0	0	18280	16830	155706	27975	951491	36442	106653	0	0	8136	770078	0	0
2024-04-12 11:55:32			0	33720	0	0	0	18259	16850	155710	27921	951497	36455	106645	0	0	8138	768941	0	0
2024-04-12 11:56:32			0	33696	0	0	0	18270	16850	155670	27892	951497	36465	106649	0	0	8136	770145	0	0
2024-04-12 11:57:32			0	33704	0	0	0	18262	16870	155638	27464	951556	36446	106646	0	0	8137	769660	0	0
2024-04-12 11:58:32			0	33731	0	0	0	18236	16870	155462	27852	951477	36446	106636	0	0	8139	768306	0	0
2024-04-12 11:59:32			0	33728	0	0	0	18189	16860	155578	27556	951468	36457	106618	0	0	8140	768498	0	0
2024-04-12 12:00:32			0	33724	0	0	0	18184	16870	155462	27904	951485	36435	106616	0	0	8140	768657	0	0
2024-04-12 12:01:32			0	33701	0	0	0	18194	16890	155470	27779	951562	36447	106620	0	0	8138	769727	0	0
2024-04-12 12:02:32			0	33712	0	0	0	18223	16890	155594	27435	951535	36447	106631	0	0	8138	769175	0	0
2024-04-12 12:03:32			0	33703	0	0	0	18189	16870	155610	27530	951511	36446	106618	0	0	8138	769710	0	0
2024-04-12 12:04:32			0	33694	0	0	0	18161	16870	155562	27696	951432	36446	106607	0	0	8138	770162	0	0
2024-04-12 12:05:32			0	33684	0	0	0	18174	16870	155722	27765	951406	36402	106612	0	0	8137	770664	0	0
2024-04-12 12:06:32			0	33665	0	0	0	18207	16880	155846	28076	951466	36435	106625	0	0	8136	771577	0	0
2024-04-12 12:07:32			0	33662	0	0	0	18202	16870	155786	28109	951432	36423	106623	0	0	8136	771770	0	0
2024-04-12 12:08:32			0	33691	0	0	0	18186	16870	155758	27923	951398	36446	106617	0	0	8138	770313	0	0
2024-04-12 12:09:32			0	33679	0	0	0	18161	16870	155710	27582	951406	36435	106607	0	0	8137	770915	0	0
2024-04-12 12:10:32			0	33658	0	0	0	18140	16870	155746	27966	951424	36423	106599	0	0	8136	771971	0	0
2024-04-12 12:11:32			0	33704	0	0	0	18135	16860	155694	27739	951310	36423	106597	0	0	8139	769702	0	0
2024-04-12 12:12:32			0	33682	0	0	0	18114	16850	155706	27540	951320	36412	106589	0	0	8138	770848	0	0
2024-04-12 12:13:32			0	33683	0	0	0	18090	16840	155530	27725	951217	36411	106580	0	0	8139	770840	0	0
2024-04-12 12:14:32			0	33695	0	0	0	18098	16840	155550	27647	951243	36421	106583	0	0	8139	770237	0	0
2024-04-12 12:15:32			0	33720	0	0	0	18088	16850	155398	28076	951233	36433	106579	0	0	8141	768941	0	0
2024-04-12 12:16:32			0	33732	0	0	0	18096	16830	155434	27557	951235	36420	106582	0	0	8141	768423	0	0
2024-04-12 12:17:32			0	33735	0	0	0	18096	16820	155402	27741	951219	36419	106582	0	0	8141	768314	0	0
2024-04-12 12:18:32			0	33758	0	0	0	18106	16820	155482	27514	951166	36442	106586	0	0	8143	767162	0	0
2024-04-12 12:19:32			0	33735	0	0	0	18080	16820	155438	27791	951166	36419	106576	0	0	8142	768314	0	0
2024-04-12 12:20:32			0	33744	0	0	0	18101	16820	155394	27796	951158	36419	106584	0	0	8142	767863	0	0
2024-04-12 12:21:32			0	33779	0	0	0	18109	16810	155270	27836	951176	36441	106587	0	0	8144	766154	0	0
2024-04-12 12:22:32			0	33767	0	0	0	18088	16810	155378	27835	951176	36408	106579	0	0	8143	766754	0	0
2024-04-12 12:23:32			0	33767	0	0	0	18085	16820	155394	27859	951192	36442	106578	0	0	8144	766712	0	0
2024-04-12 12:24:32			0	33784	0	0	0	18070	16800	155250	27571	951099	36429	106572	0	0	8145	765945	0	0
2024-04-12 12:25:32			0	33775	0	0	0	18067	16800	155186	27606	951160	36418	106571	0	0	8144	766395	0	0
2024-04-12 12:26:32			0	33808	0	0	0	18054	16810	155098	27538	951089	36440	106566	0	0	8146	764705	0	0
2024-04-12 12:27:32			0	33799	0	0	0	18059	16790	155194	27800	951057	36406	106568	0	0	8146	765237	0	0
2024-04-12 12:28:32			0	33817	0	0	0	18067	16800	155082	27821	951073	36418	106571	0	0	8147	764297	0	0
2024-04-12 12:29:32			0	33813	0	0	0	18067	16790	155066	27668	951012	36417	106571	0	0	8146	764538	0	0
2024-04-12 12:30:32			0	33796	0	0	0	18070	16780	155166	27744	950996	36427	106572	0	0	8145	765428	0	0
2024-04-12 12:31:32			0	33813	0	0	0	18070	16770	155054	27717	950998	36416	106572	0	0	8146	764621	0	0
2024-04-12 12:32:32			0	33819	0	0	0	18070	16780	155014	27906	951093	36438	106572	0	0	8147	764280	0	0
2024-04-12 12:33:32			0	33812	0	0	0	18088	16770	155034	27926	951006	36426	106579	0	0	8146	764671	0	0
2024-04-12 12:34:32			0	33840	0	0	0	18103	16770	155130	27904	951112	36405	106585	0	0	8147	763274	0	0
2024-04-12 12:35:32			0	33831	0	0	0	18111	16780	155198	27639	951041	36416	106588	0	0	8147	763681	0	0
2024-04-12 12:36:32			0	33834	0	0	0	18129	16780	155166	27902	951093	36427	106595	0	0	8147	763532	0	0
2024-04-12 12:37:32			0	33829	0	0	0	18127	16780	155098	27713	951146	36450	106594	0	0	8146	763781	0	0
2024-04-12 12:38:32			0	33833	0	0	0	18122	16790	155054	27972	951162	36427	106592	0	0	8147	763540	0	0
2024-04-12 12:39:32			0	33826	0	0	0	18129	16790	154954	27953	951136	36416	106595	0	0	8146	763889	0	0
2024-04-12 12:40:32			0	33852	0	0	0	18127	16790	155002	27866	951118	36428	106594	0	0	8148	762593	0	0
2024-04-12 12:41:32			0	33838	0	0	0	18106	16790	154862	27916	951136	36427	106586	0	0	8147	763291	0	0
2024-04-12 12:42:32			0	33875	0	0	0	17958	16790	154830	28105	951144	36417	106529	0	0	8152	761448	0	0
2024-04-12 12:43:32			0	33898	0	0	0	18005	16800	154682	27835	951160	36429	106547	0	0	8152	760264	0	0
2024-04-12 12:44:32			0	33903	0	0	0	18101	16790	154702	28048	951057	36427	106584	0	0	8151	760057	0	0
2024-04-12 12:45:32			0	33908	0	0	0	18116	16790	154770	27770	951091	36417	106590	0	0	8151	759808	0	0
2024-04-12 12:46:32			0	33891	0	0	0	18135	16790	154690	27972	951136	36438	106597	0	0	8150	760653	0	0
2024-04-12 12:47:32			0	33917	0	0	0	18132	16790	154718	27987	951170	36439	106596	0	0	8151	759361	0	0
2024-04-12 12:48:32			0	33909	0	0	0	18137	16800	154642	27894	951126	36429	106598	0	0	8151	759717	0	0
2024-04-12 12:49:32			0	33894	0	0	0	18129	16780	154762	27758	951172	36427	106595	0	0	8150	760545	0	0
2024-04-12 12:50:32			0	33887	0	0	0	18132	16800	154682	28013	951213	36440	106596	0	0	8150	760810	0	0
2024-04-12 12:51:32			0	33893	0	0	0	18145	16810	154622	27874	951229	36441	106601	0	0	8150	760471	0	0
2024-04-12 12:52:32			0	33894	0	0	0	18153	16810	154750	27928	951221	36451	106604	0	0	8150	760421	0	0
2024-04-12 12:53:32			0	33897	0	0	0	18166	16810	154750	27748	951229	36441	106609	0	0	8150	760272	0	0
2024-04-12 12:54:32			0	33896	0	0	0	18192	16820	154746	27659	951237	36442	106619	0	0	8149	760281	0	0
2024-04-12 12:55:32			0	33892	0	0	0	18246	16830	154742	27722	951446	36454	106640	0	0	8148	760438	0	0
2024-04-12 12:56:32			0	33883	0	0	0	18309	16830	154818	27921	951525	36454	106664	0	0	8147	760886	0	0
2024-04-12 12:57:32			0	33875	0	0	0	18311	16860	154766	27753	951600	36467	106665	0	0	8146	761160	0	0
2024-04-12 12:58:32			0	33883	0	0	0	18350	16890	154706	27902	951799	36469	106680	0	0	8146	760638	0	0
2024-04-12 12:59:32			0	33888	0	0	0	18428	16910	154786	27561	951964	36471	106710	0	0	8145	760307	0	0
2024-04-12 13:00:32			0	33898	0	0	0	18438	16940	154742	27947	952091	36484	106714	0	0	8146	759687	0	0
2024-04-12 13:01:32			0	33891	0	0	0	18428	16950	154782	27817	952142	36507	106710	0	0	8146	759993	0	0
2024-04-12 13:02:32			0	33909	0	0	0	18316	16980	154702	27815	952138	36488	106667	0	0	8149	758976	0	0
2024-04-12 13:03:32			0	33933	0	0	0	18303	17000	154602	27699	952118	36467	106662	0	0	8150	757704	0	0
2024-04-12 13:04:32			0	33927	0	0	0	18241	17000	154522	27599	952004	36467	106638	0	0	8151	758002	0	0
2024-04-12 13:05:32			0	33928	0	0	0	18215	16990	154454	27737	951917	36478	106628	0	0	8152	757993	0	0
2024-04-12 13:06:32			0	33928	0	0	0	18231	16990	154298	27611	951943	36457	106634	0	0	8151	757993	0	0
2024-04-12 13:07:32			0	33948	0	0	0	18249	16980	154358	27483	951953	36465	106641	0	0	8152	757043	0	0
2024-04-12 13:08:32			0	33957	0	0	0	18257	16970	154442	27611	951937	36465	106644	0	0	8152	756639	0	0
2024-04-12 13:09:32			0	33937	0	0	0	18262	16980	154390	27906	951919	36455	106646	0	0	8151	757588	0	0
2024-04-12 13:10:32			0	33928	0	0	0	18257	16980	154490	27899	951900	36477	106644	0	0	8151	758034	0	0
2024-04-12 13:11:32			0	33917	0	0	0	18267	16980	154522	27717	951953	36465	106648	0	0	8150	758580	0	0
2024-04-12 13:12:32			0	33913	0	0	0	18264	16990	154554	27845	951935	36466	106647	0	0	8150	758737	0	0
2024-04-12 13:13:32			0	33927	0	0	0	18270	16990	154554	27786	951988	36466	106649	0	0	8151	758043	0	0
2024-04-12 13:14:32			0	33916	0	0	0	18236	16990	154634	28031	951908	36466	106636	0	0	8150	758588	0	0
2024-04-12 13:15:32			0	33900	0	0	0	18223	16980	154550	27725	951813	36444	106631	0	0	8150	759423	0	0
2024-04-12 13:16:32			0	33897	0	0	0	18220	16960	154634	27796	951807	36474	106630	0	0	8149	759654	0	0
2024-04-12 13:17:32			0	33879	0	0	0	18215	16950	154698	27850	951773	36463	106628	0	0	8148	760590	0	0
2024-04-12 13:18:32			0	33876	0	0	0	18228	16960	154722	27729	951754	36453	106633	0	0	8148	760698	0	0
2024-04-12 13:19:32			0	33877	0	0	0	18212	16950	154758	27608	951738	36453	106627	0	0	8148	760689	0	0
2024-04-12 13:20:32			0	33857	0	0	0	18197	16940	154686	27991	951704	36473	106621	0	0	8147	761725	0	0
2024-04-12 13:21:32			0	33840	0	0	0	18199	16940	154810	27765	951730	36452	106622	0	0	8146	762571	0	0
2024-04-12 13:22:32			0	33831	0	0	0	18194	16930	154830	27925	951635	36461	106620	0	0	8146	763061	0	0
2024-04-12 13:23:32			0	33842	0	0	0	18210	16940	154942	27744	951643	36451	106626	0	0	8146	762472	0	0
2024-04-12 13:24:32			0	33833	0	0	0	18212	16930	154978	27445	951653	36451	106627	0	0	8146	762961	0	0
2024-04-12 13:25:32			0	33843	0	0	0	18384	16930	154910	28185	951740	36461	106693	0	0	8143	762463	0	0
2024-04-12 13:26:32			0	33844	0	0	0	18553	16940	155090	27991	951941	36496	106758	0	0	8141	762372	0	0
2024-04-12 13:27:32			0	33803	0	0	0	18555	16980	155198	27994	952182	36477	106759	0	0	8138	764250	0	0
2024-04-12 13:28:32			0	33798	0	0	0	18592	17000	155226	27918	952408	36500	106773	0	0	8138	764416	0	0
2024-04-12 13:29:32			0	33781	0	0	0	18625	17040	155238	27959	952518	36515	106786	0	0	8136	765099	0	0
2024-04-12 13:30:32			0	33769	0	0	0	18654	17070	155302	27597	952637	36505	106797	0	0	8135	765574	0	0
2024-04-12 13:31:32			0	33790	0	0	0	18693	17100	155294	28081	952739	36530	106812	0	0	8136	764401	0	0
2024-04-12 13:32:32			0	33748	0	0	0	18735	17120	155266	27685	952911	36521	106828	0	0	8133	766415	0	0
2024-04-12 13:33:32			0	33756	0	0	0	18737	17160	155222	27592	952995	36535	106829	0	0	8133	765849	0	0
2024-04-12 13:34:32			0	33779	0	0	0	18727	17180	155270	27748	953088	36537	106825	0	0	8135	764618	0	0
2024-04-12 13:35:32			0	33785	0	0	0	18732	17190	155090	27736	953210	36538	106827	0	0	8135	764277	0	0
2024-04-12 13:36:32			0	33787	0	0	0	18737	17220	155054	28025	953232	36540	106829	0	0	8136	764053	0	0
2024-04-12 13:37:32			0	33786	0	0	0	18763	17240	155078	27694	953309	36531	106839	0	0	8135	764019	0	0
2024-04-12 13:38:32			0	33792	0	0	0	18763	17270	154962	27933	953358	36543	106839	0	0	8136	763596	0	0
2024-04-12 13:39:32			0	33796	0	0	0	18758	17280	154978	27757	953374	36544	106837	0	0	8136	763355	0	0
2024-04-12 13:40:32			0	33796	0	0	0	18758	17290	154966	27961	953390	36536	106837	0	0	8136	763314	0	0
2024-04-12 13:41:32			0	33804	0	0	0	18750	17300	154894	27454	953433	36546	106834	0	0	8137	762874	0	0
2024-04-12 13:42:32			0	33817	0	0	0	18750	17300	154806	27795	953494	36558	106834	0	0	8137	762226	0	0
2024-04-12 13:43:32			0	33807	0	0	0	18722	17330	154818	27883	953490	36549	106823	0	0	8138	762600	0	0
2024-04-12 13:44:32			0	33808	0	0	0	18714	17330	154806	27765	953543	36549	106820	0	0	8138	762550	0	0
2024-04-12 13:45:32			0	33822	0	0	0	18750	17350	154730	27954	953559	36550	106834	0	0	8138	761771	0	0
2024-04-12 13:46:32			0	33831	0	0	0	18758	17350	154790	28214	953567	36541	106837	0	0	8138	761323	0	0
2024-04-12 13:47:32			0	33832	0	0	0	18763	17340	154698	27852	953551	36540	106839	0	0	8138	761315	0	0
2024-04-12 13:48:32			0	33847	0	0	0	18786	17370	154766	27620	953618	36563	106848	0	0	8139	760445	0	0
2024-04-12 13:49:32			0	33833	0	0	0	18815	17380	154734	27946	953669	36575	106859	0	0	8138	761100	0	0
2024-04-12 13:50:32			0	33818	0	0	0	18846	17390	154778	27859	953738	36543	106871	0	0	8136	761804	0	0
2024-04-12 13:51:32			0	33801	0	0	0	18846	17400	154778	27637	953728	36555	106871	0	0	8135	762609	0	0
2024-04-12 13:52:32			0	33808	0	0	0	18846	17420	154846	27703	953831	36567	106871	0	0	8136	762177	0	0
2024-04-12 13:53:32			0	33793	0	0	0	18815	17430	154762	27968	953908	36568	106859	0	0	8136	762882	0	0
2024-04-12 13:54:32			0	33789	0	0	0	18807	17440	154850	27512	953898	36559	106856	0	0	8136	763040	0	0
2024-04-12 13:55:32			0	33779	0	0	0	18815	17440	154698	27878	953872	36559	106859	0	0	8135	763538	0	0
2024-04-12 13:56:32			0	33780	0	0	0	18812	17450	154790	27847	953880	36581	106858	0	0	8135	763447	0	0
2024-04-12 13:57:32			0	33795	0	0	0	18812	17450	154802	27937	953782	36548	106858	0	0	8136	762700	0	0
2024-04-12 13:58:32			0	33788	0	0	0	18820	17440	154858	27895	953819	36570	106861	0	0	8135	763090	0	0
2024-04-12 13:59:32			0	33795	0	0	0	18812	17450	154654	27854	953880	36548	106858	0	0	8136	762700	0	0
2024-04-12 14:00:32			0	33796	0	0	0	18823	17460	154690	27696	953878	36560	106862	0	0	8136	762609	0	0
2024-04-12 14:01:32			0	33817	0	0	0	18818	17460	154550	27753	953878	36560	106860	0	0	8137	761564	0	0
2024-04-12 14:02:32			0	33799	0	0	0	18812	17460	154758	28008	953843	36560	106858	0	0	8136	762459	0	0
2024-04-12 14:03:32			0	33811	0	0	0	18825	17470	154690	28116	953912	36560	106863	0	0	8137	761821	0	0
2024-04-12 14:04:32			0	33803	0	0	0	18833	17470	154674	27991	953947	36572	106866	0	0	8136	762219	0	0
2024-04-12 14:05:32			0	33815	0	0	0	18841	17470	154542	27812	953912	36560	106869	0	0	8137	761622	0	0
2024-04-12 14:06:32			0	33813	0	0	0	18846	17470	154586	27821	953965	36560	106871	0	0	8136	761721	0	0
2024-04-12 14:07:32			0	33805	0	0	0	18851	17480	154626	27796	954016	36551	106873	0	0	8136	762078	0	0
2024-04-12 14:08:32			0	33810	0	0	0	18851	17490	154662	27434	953998	36563	106873	0	0	8136	761788	0	0
2024-04-12 14:09:32			0	33818	0	0	0	18841	17490	154654	27947	954024	36584	106869	0	0	8137	761390	0	0
2024-04-12 14:10:32			0	33814	0	0	0	18846	17490	154646	27739	953980	36563	106871	0	0	8137	761589	0	0
2024-04-12 14:11:32			0	33827	0	0	0	18851	17500	154586	27580	954067	36563	106873	0	0	8137	760901	0	0
2024-04-12 14:12:32			0	33810	0	0	0	18862	17500	154598	27918	954040	36563	106877	0	0	8136	761746	0	0
2024-04-12 14:13:32			0	33834	0	0	0	18875	17500	154682	27486	954128	36564	106882	0	0	8137	760554	0	0
2024-04-12 14:14:32			0	33819	0	0	0	18872	17520	154698	27829	954099	36564	106881	0	0	8137	761216	0	0
2024-04-12 14:15:32			0	33814	0	0	0	18862	17510	154626	27857	954136	36564	106877	0	0	8136	761506	0	0
2024-04-12 14:16:32			0	33809	0	0	0	18854	17520	154558	27793	954152	36576	106874	0	0	8136	761713	0	0
2024-04-12 14:17:32			0	33807	0	0	0	18862	17530	154622	27447	954195	36566	106877	0	0	8136	761771	0	0
2024-04-12 14:18:32			0	33814	0	0	0	18872	17530	154526	27627	954116	36566	106881	0	0	8136	761423	0	0
2024-04-12 14:19:32			0	33825	0	0	0	18870	17540	154582	27505	954211	36577	106880	0	0	8137	760835	0	0
2024-04-12 14:20:32			0	33816	0	0	0	18888	17540	154494	27431	954219	36567	106887	0	0	8136	761282	0	0
2024-04-12 14:21:32			0	33829	0	0	0	18898	17550	154478	27838	954254	36568	106891	0	0	8137	760595	0	0
2024-04-12 14:22:32			0	33821	0	0	0	18906	17550	154482	27814	954254	36579	106894	0	0	8136	760993	0	0
2024-04-12 14:23:32			0	33839	0	0	0	18940	17560	154518	27533	954323	36580	106907	0	0	8137	760057	0	0
2024-04-12 14:24:32			0	33843	0	0	0	18948	17570	154466	28265	954453	36581	106910	0	0	8137	759817	0	0
2024-04-12 14:25:32			0	33840	0	0	0	18999	17570	154406	27947	954505	36581	106930	0	0	8136	759966	0	0
2024-04-12 14:26:32			0	33833	0	0	0	19025	17590	154422	27557	954556	36603	106940	0	0	8135	760231	0	0
2024-04-12 14:27:32			0	33849	0	0	0	19070	17620	154306	27800	954684	36595	106957	0	0	8135	759313	0	0
2024-04-12 14:28:32			0	33846	0	0	0	19140	17630	154394	27578	954745	36595	106984	0	0	8134	759420	0	0
2024-04-12 14:29:32			0	33826	0	0	0	19228	17660	154510	27452	954961	36599	107018	0	0	8132	760289	0	0
2024-04-12 14:30:32			0	33827	0	0	0	19290	17680	154522	27833	955152	36611	107042	0	0	8131	760156	0	0
2024-04-12 14:31:32			0	33798	0	0	0	19316	17720	154674	27861	955262	36625	107052	0	0	8129	761431	0	0
2024-04-12 14:32:32			0	33772	0	0	0	19329	17740	154726	27724	955461	36616	107057	0	0	8127	762641	0	0
2024-04-12 14:33:32			0	33745	0	0	0	19329	17770	154790	27661	955457	36629	107057	0	0	8126	763861	0	0
2024-04-12 14:34:32			0	33730	0	0	0	19340	17800	154922	27573	955559	36631	107061	0	0	8125	764483	0	0
2024-04-12 14:35:32			0	33704	0	0	0	19376	17820	154938	27914	955618	36634	107075	0	0	8123	765697	0	0
2024-04-12 14:36:32			0	33687	0	0	0	19389	17840	154902	27578	955782	36658	107080	0	0	8122	766463	0	0
2024-04-12 14:37:32			0	33688	0	0	0	19376	17870	154938	27763	955778	36649	107075	0	0	8122	766287	0	0
2024-04-12 14:38:32			0	33693	0	0	0	19392	17900	154902	27755	955872	36662	107081	0	0	8122	765912	0	0
2024-04-12 14:39:32			0	33683	0	0	0	19407	17920	154854	27939	955975	36641	107087	0	0	8122	766328	0	0
2024-04-12 14:40:32			0	33683	0	0	0	19402	17930	154790	27937	956000	36675	107085	0	0	8122	766286	0	0
2024-04-12 14:41:32			0	33732	0	0	0	19418	17950	154770	27682	956059	36655	107091	0	0	8124	763759	0	0
2024-04-12 14:42:32			0	33749	0	0	0	19418	17970	154514	27791	956083	36645	107091	0	0	8125	762830	0	0
2024-04-12 14:43:32			0	33777	0	0	0	19433	17980	154422	27722	956213	36647	107097	0	0	8127	761396	0	0
2024-04-12 14:44:32			0	33799	0	0	0	19431	18000	154166	27961	956185	36659	107096	0	0	8128	760221	0	0
2024-04-12 14:45:32			0	33823	0	0	0	19335	18020	154058	27511	956279	36662	107059	0	0	8131	758948	0	0
2024-04-12 14:46:32			0	33831	0	0	0	19329	18020	154006	27500	956331	36651	107057	0	0	8132	758551	0	0
2024-04-12 14:47:32			0	33871	0	0	0	19285	18030	153798	27682	956216	36651	107040	0	0	8135	756531	0	0
2024-04-12 14:48:32			0	33876	0	0	0	19285	18030	153798	27642	956128	36651	107040	0	0	8135	756284	0	0
2024-04-12 14:49:32			0	33899	0	0	0	19236	18030	153582	27757	956136	36639	107021	0	0	8138	755148	0	0
2024-04-12 14:50:32			0	33920	0	0	0	19205	18020	153386	27800	956059	36650	107009	0	0	8139	754153	0	0
2024-04-12 14:51:32			0	33964	0	0	0	19231	18020	153242	27684	956059	36639	107019	0	0	8141	751986	0	0
2024-04-12 14:52:32			0	33988	0	0	0	19207	18010	153294	27888	955964	36649	107010	0	0	8143	750847	0	0
2024-04-12 14:53:32			0	33984	0	0	0	19171	18000	153262	27479	955842	36616	106996	0	0	8143	751085	0	0
2024-04-12 14:54:32			0	33986	0	0	0	19181	17990	153230	27933	955833	36636	107000	0	0	8143	751027	0	0
2024-04-12 14:55:32			0	33983	0	0	0	19176	17970	153278	27623	955748	36635	106998	0	0	8143	751257	0	0
2024-04-12 14:56:32			0	33987	0	0	0	19153	17990	153266	27850	955799	36635	106989	0	0	8144	750978	0	0
2024-04-12 14:57:32			0	33995	0	0	0	19153	17970	153274	27935	955819	36624	106989	0	0	8144	750667	0	0
2024-04-12 14:58:32			0	33992	0	0	0	19158	17970	153314	27809	955827	36635	106991	0	0	8144	750814	0	0
2024-04-12 14:59:32			0	34006	0	0	0	19189	17970	153330	27826	955880	36635	107003	0	0	8144	750127	0	0
2024-04-12 15:00:32			0	33980	0	0	0	19254	17980	153330	27809	955967	36635	107028	0	0	8142	751363	0	0
2024-04-12 15:01:32			0	33985	0	0	0	19267	17990	153302	27796	956037	36647	107033	0	0	8142	751077	0	0
2024-04-12 15:02:32			0	33972	0	0	0	19293	18000	153390	27791	956114	36638	107043	0	0	8141	751675	0	0
2024-04-12 15:03:32			0	33969	0	0	0	19340	18020	153442	27992	956173	36651	107061	0	0	8140	751740	0	0
2024-04-12 15:04:32			0	33961	0	0	0	19431	18030	153398	27647	956234	36651	107096	0	0	8138	752093	0	0
2024-04-12 15:05:32			0	33983	0	0	0	19522	18050	153374	27588	956425	36652	107131	0	0	8138	750929	0	0
2024-04-12 15:06:32			0	33985	0	0	0	19566	18070	153322	27939	956537	36676	107148	0	0	8137	750749	0	0
2024-04-12 15:07:32			0	33990	0	0	0	19558	18080	153362	27476	956641	36688	107145	0	0	8138	750462	0	0
2024-04-12 15:08:32			0	33984	0	0	0	19579	18110	153374	27466	956795	36668	107153	0	0	8137	750634	0	0
2024-04-12 15:09:32			0	33996	0	0	0	19574	18130	153362	27632	956934	36693	107151	0	0	8138	749963	0	0
2024-04-12 15:10:32			0	33987	0	0	0	19389	18150	153322	27868	956860	36694	107080	0	0	8141	750323	0	0
2024-04-12 15:11:32			0	33978	0	0	0	19477	18170	153234	27517	956885	36684	107114	0	0	8139	750683	0	0
2024-04-12 15:12:32			0	33965	0	0	0	19493	18190	153346	27549	957005	36675	107120	0	0	8138	751240	0	0
2024-04-12 15:13:32			0	33947	0	0	0	19451	18200	153398	27751	956968	36687	107104	0	0	8137	752084	0	0
2024-04-12 15:14:32			0	33939	0	0	0	19379	18210	153406	27372	957029	36687	107076	0	0	8138	752436	0	0
2024-04-12 15:15:32			0	33922	0	0	0	19335	18220	153374	27448	956984	36688	107059	0	0	8138	753232	0	0
2024-04-12 15:16:32			0	33924	0	0	0	19350	18230	153234	27741	956956	36667	107065	0	0	8138	753092	0	0
2024-04-12 15:17:32			0	33942	0	0	0	19348	18240	153282	27826	956946	36679	107064	0	0	8139	752165	0	0
2024-04-12 15:18:32			0	33957	0	0	0	19319	18240	153162	27611	956991	36667	107053	0	0	8140	751428	0	0
2024-04-12 15:19:32			0	33969	0	0	0	19293	18240	153094	27376	956938	36667	107043	0	0	8142	750838	0	0
2024-04-12 15:20:32			0	33982	0	0	0	19267	18230	152938	27869	956745	36656	107033	0	0	8143	750241	0	0
2024-04-12 15:21:32			0	33999	0	0	0	19231	18210	152942	27805	956633	36632	107019	0	0	8144	749489	0	0
2024-04-12 15:22:32			0	34018	0	0	0	19181	18180	152826	27840	956505	36641	107000	0	0	8146	748680	0	0
2024-04-12 15:23:32			0	34031	0	0	0	19179	18170	152826	27696	956594	36652	106999	0	0	8147	748084	0	0
2024-04-12 15:24:32			0	34021	0	0	0	19324	18160	152878	27878	956559	36640	107055	0	0	8144	748614	0	0
2024-04-12 15:25:32			0	34049	0	0	0	19254	18160	152870	28006	956612	36662	107028	0	0	8146	747243	0	0
2024-04-12 15:26:32			0	34004	0	0	0	19267	18160	152910	27873	956631	36640	107033	0	0	8144	749448	0	0
2024-04-12 15:27:32			0	34028	0	0	0	19296	18160	152922	27821	956631	36651	107044	0	0	8145	748271	0	0
2024-04-12 15:28:32			0	34011	0	0	0	19353	18160	152970	27949	956578	36640	107066	0	0	8143	749104	0	0
2024-04-12 15:29:32			0	34047	0	0	0	19322	18150	152846	27443	956570	36628	107054	0	0	8145	747382	0	0
2024-04-12 15:30:32			0	34030	0	0	0	19174	18150	152850	27973	956482	36650	106997	0	0	8147	748214	0	0
2024-04-12 15:31:32			0	34042	0	0	0	19179	18150	152690	27435	956517	36651	106999	0	0	8147	747627	0	0
2024-04-12 15:32:32			0	34050	0	0	0	18958	18140	152698	27836	956360	36649	106914	0	0	8151	747276	0	0
2024-04-12 15:33:32			0	34060	0	0	0	18911	18120	152578	27523	956230	36625	106896	0	0	8153	746868	0	0
2024-04-12 15:34:32			0	34069	0	0	0	18833	18120	152530	27685	956090	36625	106866	0	0	8155	746428	0	0
2024-04-12 15:35:32			0	34095	0	0	0	18797	18070	152486	28013	955778	36600	106852	0	0	8156	745360	0	0
2024-04-12 15:36:32			0	34084	0	0	0	18828	18040	152482	27788	955616	36575	106864	0	0	8155	746020	0	0
2024-04-12 15:37:32			0	34085	0	0	0	18849	18010	152510	27828	955488	36583	106872	0	0	8155	746093	0	0
2024-04-12 15:38:32			0	34109	0	0	0	18828	17960	152622	27826	955441	36580	106864	0	0	8156	745124	0	0
2024-04-12 15:39:32			0	34098	0	0	0	18838	17950	152646	27985	955337	36588	106868	0	0	8155	745702	0	0
2024-04-12 15:40:32			0	34094	0	0	0	18825	17920	152686	27881	955262	36565	106863	0	0	8155	746019	0	0
2024-04-12 15:41:32			0	34098	0	0	0	18823	17900	152730	27916	955158	36552	106862	0	0	8155	745905	0	0
2024-04-12 15:42:32			0	34093	0	0	0	18833	17880	152702	27979	955152	36562	106866	0	0	8155	746231	0	0
2024-04-12 15:43:32			0	34110	0	0	0	18854	17850	152678	28027	955111	36560	106874	0	0	8155	745522	0	0
2024-04-12 15:44:32			0	34110	0	0	0	18880	17830	152778	27864	955044	36580	106884	0	0	8155	745603	0	0
2024-04-12 15:45:32			0	34119	0	0	0	18924	17820	152754	27904	955010	36569	106901	0	0	8154	745204	0	0
2024-04-12 15:46:32			0	34132	0	0	0	18929	17820	152714	28145	955055	36579	106903	0	0	8155	744569	0	0
2024-04-12 15:47:32			0	34120	0	0	0	18963	17800	152726	27989	955022	36577	106916	0	0	8154	745236	0	0
2024-04-12 15:48:32			0	34112	0	0	0	18953	17800	152746	28135	955128	36577	106912	0	0	8153	745627	0	0
2024-04-12 15:49:32			0	34098	0	0	0	18971	17790	152950	27691	955146	36577	106919	0	0	8152	746352	0	0
2024-04-12 15:50:32			0	34081	0	0	0	18940	17800	153018	27727	955109	36588	106907	0	0	8152	747143	0	0
2024-04-12 15:51:32			0	34092	0	0	0	18859	17790	153078	27906	955067	36587	106876	0	0	8154	746646	0	0
2024-04-12 15:52:32			0	34079	0	0	0	18877	17780	152982	27717	955016	36565	106883	0	0	8153	747323	0	0
2024-04-12 15:53:32			0	34087	0	0	0	18836	17770	153018	27822	954902	36564	106867	0	0	8154	746972	0	0
2024-04-12 15:54:32			0	34098	0	0	0	18833	17760	153026	27755	954851	36563	106866	0	0	8155	746474	0	0
2024-04-12 15:55:32			0	34120	0	0	0	18820	17750	152866	27861	954809	36573	106861	0	0	8156	745439	0	0
2024-04-12 15:56:32			0	34131	0	0	0	18784	17730	152838	27899	954731	36561	106847	0	0	8157	744983	0	0
2024-04-12 15:57:32			0	34146	0	0	0	18766	17710	152714	27543	954646	36548	106840	0	0	8158	744332	0	0
2024-04-12 15:58:32			0	34148	0	0	0	18724	17700	152746	27996	954490	36557	106824	0	0	8159	744275	0	0
2024-04-12 15:59:32			0	34157	0	0	0	18683	17670	152802	27684	954449	36544	106808	0	0	8160	743957	0	0
2024-04-12 16:00:32			0	34141	0	0	0	18659	17660	152814	27594	954353	36577	106799	0	0	8159	744779	0	0
2024-04-12 16:01:32			0	34144	0	0	0	18605	17630	152830	27769	954252	36552	106778	0	0	8160	744754	0	0
2024-04-12 16:02:32			0	34138	0	0	0	18550	17600	152822	28032	954044	36549	106757	0	0	8161	745168	0	0
2024-04-12 16:03:32			0	34129	0	0	0	18501	17580	152830	27727	953985	36548	106738	0	0	8161	745689	0	0
2024-04-12 16:04:32			0	34127	0	0	0	18475	17560	152914	27798	953926	36546	106728	0	0	8161	745868	0	0
2024-04-12 16:05:32			0	34139	0	0	0	18446	17530	152894	28263	953825	36522	106717	0	0	8162	745403	0	0
2024-04-12 16:06:32			0	34133	0	0	0	18384	17490	152950	28037	953549	36519	106693	0	0	8163	745859	0	0
2024-04-12 16:07:32			0	34127	0	0	0	18423	17460	153042	28069	953500	36516	106708	0	0	8162	746274	0	0
2024-04-12 16:08:32			0	34118	0	0	0	18433	17430	153070	28249	953459	36525	106712	0	0	8161	746836	0	0
2024-04-12 16:09:32			0	34122	0	0	0	18431	17410	153050	28055	953400	36544	106711	0	0	8161	746722	0	0
2024-04-12 16:10:32			0	34149	0	0	0	18451	17400	153118	27956	953429	36522	106719	0	0	8162	745442	0	0
2024-04-12 16:11:32			0	34161	0	0	0	18436	17370	153106	28360	953309	36520	106713	0	0	8163	744976	0	0
2024-04-12 16:12:32			0	34164	0	0	0	18264	17370	152962	27864	953222	36519	106647	0	0	8166	744830	0	0
2024-04-12 16:13:32			0	34199	0	0	0	18197	17330	152806	27989	953015	36517	106621	0	0	8169	743283	0	0
2024-04-12 16:14:32			0	34246	0	0	0	18207	17310	152706	28164	952948	36515	106625	0	0	8172	741073	0	0
2024-04-12 16:15:32			0	34219	0	0	0	18233	17290	152782	27725	952923	36502	106635	0	0	8169	742469	0	0
2024-04-12 16:16:32			0	34203	0	0	0	18309	17280	152842	28027	952907	36513	106664	0	0	8167	743290	0	0
2024-04-12 16:17:32			0	34217	0	0	0	18374	17270	152818	28124	953015	36511	106689	0	0	8167	742647	0	0
2024-04-12 16:18:32			0	34223	0	0	0	18275	17260	152870	28025	952999	36521	106651	0	0	8169	742395	0	0
2024-04-12 16:19:32			0	34239	0	0	0	18192	17260	152746	28148	953007	36522	106619	0	0	8171	741616	0	0
2024-04-12 16:20:32			0	34242	0	0	0	18127	17260	152646	28058	952919	36510	106594	0	0	8172	741469	0	0
2024-04-12 16:21:32			0	34239	0	0	0	18158	17230	152682	27923	952799	36519	106606	0	0	8172	741736	0	0
2024-04-12 16:22:32			0	34213	0	0	0	18238	17240	152706	27833	952887	36498	106637	0	0	8169	742963	0	0
2024-04-12 16:23:32			0	34223	0	0	0	18275	17230	152946	28102	952950	36508	106651	0	0	8169	742516	0	0
2024-04-12 16:24:32			0	34223	0	0	0	18262	17230	152826	27770	952958	36530	106646	0	0	8169	742516	0	0
2024-04-12 16:25:32			0	34234	0	0	0	18225	17240	152842	27678	952913	36531	106632	0	0	8170	741940	0	0
2024-04-12 16:26:32			0	34237	0	0	0	18197	17240	152678	27883	952861	36498	106621	0	0	8171	741794	0	0
2024-04-12 16:27:32			0	34259	0	0	0	18220	17210	152590	27767	952846	36485	106630	0	0	8172	740843	0	0
2024-04-12 16:28:32			0	34268	0	0	0	18319	17230	152650	28015	952897	36508	106668	0	0	8170	740325	0	0
2024-04-12 16:29:32			0	34263	0	0	0	18389	17220	152666	28015	952933	36518	106695	0	0	8169	740608	0	0
2024-04-12 16:30:32			0	34268	0	0	0	18524	17230	152826	28336	953063	36530	106747	0	0	8167	740325	0	0
2024-04-12 16:31:32			0	34231	0	0	0	18574	17230	153050	28154	953116	36519	106766	0	0	8164	742126	0	0
2024-04-12 16:32:32			0	34209	0	0	0	18566	17240	153086	28187	953106	36520	106763	0	0	8163	743158	0	0
2024-04-12 16:33:32			0	34185	0	0	0	18587	17240	153114	27750	953106	36532	106771	0	0	8161	744330	0	0
2024-04-12 16:34:32			0	34156	0	0	0	18576	17250	153186	27871	953122	36532	106767	0	0	8160	745707	0	0
2024-04-12 16:35:32			0	34159	0	0	0	18540	17260	153258	27989	953191	36533	106753	0	0	8161	745519	0	0
2024-04-12 16:36:32			0	34157	0	0	0	18542	17260	153314	27906	953157	36543	106754	0	0	8160	745617	0	0
2024-04-12 16:37:32			0	34154	0	0	0	18576	17260	153266	27916	953236	36543	106767	0	0	8160	745764	0	0
2024-04-12 16:38:32			0	34152	0	0	0	18592	17270	153282	27703	953200	36543	106773	0	0	8159	745821	0	0
2024-04-12 16:39:32			0	34149	0	0	0	18594	17280	153282	27887	953269	36544	106774	0	0	8159	745928	0	0
2024-04-12 16:40:32			0	34156	0	0	0	18594	17270	153190	27987	953313	36544	106774	0	0	8160	745626	0	0
2024-04-12 16:41:32			0	34139	0	0	0	18607	17280	153210	28128	953277	36556	106779	0	0	8158	746417	0	0
2024-04-12 16:42:32			0	34160	0	0	0	18620	17290	153206	28253	953285	36568	106784	0	0	8159	745349	0	0
2024-04-12 16:43:32			0	34153	0	0	0	18612	17290	153122	27614	953390	36546	106781	0	0	8159	745691	0	0
2024-04-12 16:44:32			0	34151	0	0	0	18615	17290	153106	27493	953372	36546	106782	0	0	8159	745789	0	0
2024-04-12 16:45:32			0	34164	0	0	0	18623	17290	153098	27731	953346	36557	106785	0	0	8160	745154	0	0
2024-04-12 16:46:32			0	34158	0	0	0	18631	17320	153146	27951	953439	36559	106788	0	0	8159	745325	0	0
2024-04-12 16:47:32			0	34153	0	0	0	18654	17320	153134	27963	953465	36559	106797	0	0	8159	745570	0	0
2024-04-12 16:48:32			0	34141	0	0	0	18654	17320	153310	27613	953465	36559	106797	0	0	8158	746157	0	0
2024-04-12 16:49:32			0	34143	0	0	0	18667	17330	153358	27436	953516	36571	106802	0	0	8158	746018	0	0
2024-04-12 16:50:32			0	34145	0	0	0	18670	17340	153322	28116	953524	36572	106803	0	0	8158	745880	0	0
2024-04-12 16:51:32			0	34118	0	0	0	18675	17340	153250	27762	953551	36561	106805	0	0	8156	747202	0	0
2024-04-12 16:52:32			0	34117	0	0	0	18664	17350	153286	28010	953620	36562	106801	0	0	8157	747210	0	0
2024-04-12 16:53:32			0	34110	0	0	0	18641	17360	153362	27930	953583	36551	106792	0	0	8157	747512	0	0
2024-04-12 16:54:32			0	34101	0	0	0	18636	17370	153318	27921	953565	36563	106790	0	0	8156	747913	0	0
2024-04-12 16:55:32			0	34092	0	0	0	18602	17370	153402	27542	953592	36551	106777	0	0	8156	748354	0	0
2024-04-12 16:56:32			0	34086	0	0	0	18555	17360	153486	27727	953504	36563	106759	0	0	8157	748689	0	0
2024-04-12 16:57:32			0	34064	0	0	0	18548	17350	153486	27899	953435	36541	106756	0	0	8155	749810	0	0
2024-04-12 16:58:32			0	34040	0	0	0	18566	17340	153570	27784	953392	36529	106763	0	0	8154	751030	0	0
2024-04-12 16:59:32			0	34027	0	0	0	18532	17340	153666	27947	953340	36561	106750	0	0	8154	751670	0	0
2024-04-12 17:00:32			0	34007	0	0	0	18545	17330	153758	27982	953323	36539	106755	0	0	8152	752695	0	0
2024-04-12 17:01:32			0	34007	0	0	0	18553	17330	153842	27737	953323	36549	106758	0	0	8152	752695	0	0
2024-04-12 17:02:32			0	33985	0	0	0	18568	17310	153890	27977	953299	36547	106764	0	0	8150	753862	0	0
2024-04-12 17:03:32			0	33954	0	0	0	18574	17320	153878	27731	953281	36570	106766	0	0	8149	755351	0	0
2024-04-12 17:04:32			0	33953	0	0	0	18555	17310	153914	28017	953299	36559	106759	0	0	8149	755442	0	0
2024-04-12 17:05:32			0	33953	0	0	0	18563	17310	153998	27779	953299	36559	106762	0	0	8149	755442	0	0
2024-04-12 17:06:32			0	33947	0	0	0	18555	17300	154090	27852	953283	36558	106759	0	0	8148	755779	0	0
2024-04-12 17:07:32			0	33946	0	0	0	18558	17300	154086	28098	953309	36558	106760	0	0	8148	755829	0	0
2024-04-12 17:08:32			0	33940	0	0	0	18568	17300	153942	28114	953327	36546	106764	0	0	8148	756125	0	0
2024-04-12 17:09:32			0	33924	0	0	0	18592	17310	154134	28048	953352	36570	106773	0	0	8146	756875	0	0
2024-04-12 17:10:32			0	33939	0	0	0	18597	17310	154162	27869	953370	36559	106775	0	0	8147	756134	0	0
2024-04-12 17:11:32			0	33920	0	0	0	18597	17310	154106	28150	953344	36570	106775	0	0	8146	757074	0	0
2024-04-12 17:12:32			0	33944	0	0	0	18612	17300	154122	28523	953283	36569	106781	0	0	8147	755927	0	0
2024-04-12 17:13:32			0	33941	0	0	0	18605	17320	154122	27958	953394	36582	106778	0	0	8147	755993	0	0
2024-04-12 17:14:32			0	33945	0	0	0	18615	17330	154118	28119	953402	36560	106782	0	0	8147	755755	0	0
2024-04-12 17:15:32			0	33943	0	0	0	18633	17320	154054	27748	953465	36581	106789	0	0	8147	755895	0	0
2024-04-12 17:16:32			0	33944	0	0	0	18641	17330	154170	28166	953543	36571	106792	0	0	8147	755804	0	0
2024-04-12 17:17:32			0	33950	0	0	0	18644	17330	154058	27894	953516	36571	106793	0	0	8147	755508	0	0
2024-04-12 17:18:32			0	33962	0	0	0	18638	17350	154098	27900	953532	36583	106791	0	0	8148	754833	0	0
2024-04-12 17:19:32			0	33956	0	0	0	18638	17360	154018	27923	953575	36563	106791	0	0	8148	755088	0	0
2024-04-12 17:20:32			0	33966	0	0	0	18641	17370	154026	28377	953618	36584	106792	0	0	8148	754553	0	0
2024-04-12 17:21:32			0	33976	0	0	0	18641	17370	153958	27786	953644	36563	106792	0	0	8149	754060	0	0
2024-04-12 17:22:32			0	33985	0	0	0	18623	17370	153758	27821	953644	36584	106785	0	0	8150	753616	0	0
2024-04-12 17:23:32			0	33983	0	0	0	18615	17370	153754	28261	953652	36575	106782	0	0	8150	753715	0	0
2024-04-12 17:24:32			0	33994	0	0	0	18587	17380	153790	27958	953555	36575	106771	0	0	8151	753131	0	0
2024-04-12 17:25:32			0	33998	0	0	0	18576	17380	153786	27791	953555	36542	106767	0	0	8151	752934	0	0
2024-04-12 17:26:32			0	33971	0	0	0	18568	17360	153906	27682	953478	36563	106764	0	0	8150	754348	0	0
2024-04-12 17:27:32			0	33977	0	0	0	18561	17360	153870	28291	953451	36563	106761	0	0	8150	754051	0	0
2024-04-12 17:28:32			0	33978	0	0	0	18558	17360	153894	27961	953417	36563	106760	0	0	8150	754002	0	0
2024-04-12 17:29:32			0	33961	0	0	0	18550	17340	153826	27748	953366	36561	106757	0	0	8149	754923	0	0
2024-04-12 17:30:32			0	33988	0	0	0	18537	17330	153818	27760	953350	36549	106752	0	0	8151	753632	0	0
2024-04-12 17:31:32			0	34010	0	0	0	18540	17330	153774	27763	953350	36571	106753	0	0	8152	752548	0	0
2024-04-12 17:32:32			0	34015	0	0	0	18501	17320	153730	28010	953281	36570	106738	0	0	8153	752342	0	0
2024-04-12 17:33:32			0	34051	0	0	0	18537	17310	153582	28214	953238	36559	106752	0	0	8155	750612	0	0
2024-04-12 17:34:32			0	34100	0	0	0	18522	17300	153370	28027	953248	36568	106746	0	0	8158	748246	0	0
2024-04-12 17:35:32			0	34145	0	0	0	18527	17290	153166	27885	953267	36579	106748	0	0	8160	746083	0	0
2024-04-12 17:36:32			0	34185	0	0	0	18516	17290	153014	27973	953187	36557	106744	0	0	8163	744128	0	0
2024-04-12 17:37:32			0	34209	0	0	0	18522	17280	152866	27753	953137	36544	106746	0	0	8164	742997	0	0
2024-04-12 17:38:32			0	34257	0	0	0	18509	17270	152686	28020	953128	36555	106741	0	0	8167	740699	0	0
2024-04-12 17:39:32			0	34257	0	0	0	18503	17280	152634	27907	953110	36534	106739	0	0	8167	740659	0	0
2024-04-12 17:40:32			0	34286	0	0	0	18511	17260	152602	27731	953112	36555	106742	0	0	8168	739329	0	0
2024-04-12 17:41:32			0	34269	0	0	0	18522	17270	152546	27407	953120	36566	106746	0	0	8167	740115	0	0
2024-04-12 17:42:32			0	34271	0	0	0	18516	17260	152686	27802	953131	36554	106744	0	0	8167	740058	0	0
2024-04-12 17:43:32			0	34248	0	0	0	18506	17240	152754	27613	953080	36553	106740	0	0	8166	741258	0	0
2024-04-12 17:44:32			0	34216	0	0	0	18514	17250	152842	27535	953088	36575	106743	0	0	8164	742777	0	0
2024-04-12 17:45:32			0	34223	0	0	0	18501	17250	152922	27526	953088	36575	106738	0	0	8165	742435	0	0
2024-04-12 17:46:32			0	34197	0	0	0	18537	17260	152970	27362	953104	36576	106752	0	0	8163	743663	0	0
2024-04-12 17:47:32			0	34212	0	0	0	18548	17270	153066	27774	953147	36566	106756	0	0	8164	742891	0	0
2024-04-12 17:48:32			0	34153	0	0	0	18561	17260	153062	27654	953271	36577	106761	0	0	8160	745813	0	0
2024-04-12 17:49:32			0	34139	0	0	0	18576	17280	153222	27457	953277	36567	106767	0	0	8159	746417	0	0
2024-04-12 17:50:32			0	34120	0	0	0	18581	17290	153322	27571	953364	36579	106769	0	0	8158	747307	0	0
2024-04-12 17:51:32			0	34107	0	0	0	18579	17290	153426	27786	953364	36568	106768	0	0	8157	747944	0	0
2024-04-12 17:52:32			0	34078	0	0	0	18594	17290	153518	27788	953399	36579	106774	0	0	8155	749367	0	0
2024-04-12 17:53:32			0	34065	0	0	0	18602	17310	153594	27673	953449	36581	106777	0	0	8154	749924	0	0
2024-04-12 17:54:32			0	34069	0	0	0	18618	17320	153574	27722	953545	36581	106783	0	0	8154	749686	0	0
2024-04-12 17:55:32			0	34063	0	0	0	18672	17340	153666	27895	953656	36605	106804	0	0	8153	749900	0	0
2024-04-12 17:56:32			0	34063	0	0	0	18742	17370	153602	27505	953811	36596	106831	0	0	8152	749777	0	0
2024-04-12 17:57:32			0	34056	0	0	0	18753	17390	153554	27459	954028	36598	106835	0	0	8152	750040	0	0
2024-04-12 17:58:32			0	34095	0	0	0	18766	17420	153462	27961	954050	36601	106840	0	0	8154	748004	0	0
2024-04-12 17:59:32			0	34100	0	0	0	18753	17430	153318	27989	954093	36612	106835	0	0	8154	747718	0	0
2024-04-12 18:00:32			0	34151	0	0	0	18740	17460	153134	27652	954054	36592	106830	0	0	8158	745100	0	0
2024-04-12 18:01:32			0	34141	0	0	0	18745	17460	153058	27365	954063	36604	106832	0	0	8157	745589	0	0
2024-04-12 18:02:32			0	34146	0	0	0	18719	17470	153046	27547	953991	36593	106822	0	0	8158	745304	0	0
2024-04-12 18:03:32			0	34165	0	0	0	18701	17460	152958	27528	954010	36604	106815	0	0	8159	744417	0	0
2024-04-12 18:04:32			0	34174	0	0	0	18672	17460	152926	27249	953922	36592	106804	0	0	8160	743977	0	0
2024-04-12 18:05:32			0	34180	0	0	0	18675	17460	152922	27904	953870	36582	106805	0	0	8160	743684	0	0
2024-04-12 18:06:32			0	34152	0	0	0	18646	17440	152890	27450	953758	36580	106794	0	0	8159	745133	0	0
2024-04-12 18:07:32			0	34126	0	0	0	18607	17420	153098	27736	953646	36579	106779	0	0	8158	746485	0	0
2024-04-12 18:08:32			0	34104	0	0	0	18587	17410	153214	27488	953577	36577	106771	0	0	8157	747603	0	0
2024-04-12 18:09:32			0	34057	0	0	0	18555	17390	153410	27412	953500	36554	106759	0	0	8155	749991	0	0
2024-04-12 18:10:32			0	34015	0	0	0	18553	17380	153506	27582	953431	36575	106758	0	0	8153	752097	0	0
2024-04-12 18:11:32			0	33991	0	0	0	18529	17360	153770	27402	953364	36574	106749	0	0	8152	753361	0	0
2024-04-12 18:12:32			0	33955	0	0	0	18519	17350	153994	27538	953356	36562	106745	0	0	8150	755178	0	0
2024-04-12 18:13:32			0	33927	0	0	0	18514	17320	154026	27663	953210	36559	106743	0	0	8148	756686	0	0
2024-04-12 18:14:32			0	33910	0	0	0	18535	17320	154050	27701	953262	36559	106751	0	0	8147	757527	0	0
2024-04-12 18:15:32			0	33927	0	0	0	18537	17300	154210	27720	953204	36580	106752	0	0	8147	756768	0	0
2024-04-12 18:16:32			0	33901	0	0	0	18537	17300	154166	27784	953169	36557	106752	0	0	8146	758055	0	0
2024-04-12 18:17:32			0	33888	0	0	0	18503	17290	154234	27391	953240	36579	106739	0	0	8146	758741	0	0
2024-04-12 18:18:32			0	33893	0	0	0	18501	17290	154290	27829	953126	36557	106738	0	0	8146	758493	0	0
2024-04-12 18:19:32			0	33879	0	0	0	18501	17280	154358	27762	953057	36555	106738	0	0	8145	759229	0	0
2024-04-12 18:20:32			0	33877	0	0	0	18488	17270	154394	27322	953102	36555	106733	0	0	8145	759369	0	0
2024-04-12 18:21:32			0	33872	0	0	0	18488	17260	154454	27639	953025	36576	106733	0	0	8145	759658	0	0
2024-04-12 18:22:32			0	33876	0	0	0	18483	17250	154426	27391	953096	36554	106731	0	0	8145	759501	0	0
2024-04-12 18:23:32			0	33869	0	0	0	18498	17250	154454	27571	953035	36564	106737	0	0	8145	759849	0	0
2024-04-12 18:24:32			0	33844	0	0	0	18503	17240	154486	27614	953045	36574	106739	0	0	8143	761132	0	0
2024-04-12 18:25:32			0	33861	0	0	0	18509	17240	154514	27658	953106	36575	106741	0	0	8144	760287	0	0
2024-04-12 18:26:32			0	33853	0	0	0	18568	17240	154534	27208	953080	36575	106764	0	0	8142	760685	0	0
2024-04-12 18:27:32			0	33852	0	0	0	18498	17240	154578	27467	953080	36553	106737	0	0	8144	760734	0	0
2024-04-12 18:28:32			0	33851	0	0	0	18480	17240	154522	27462	953019	36574	106730	0	0	8144	760784	0	0
2024-04-12 18:29:32			0	33860	0	0	0	18488	17230	154570	27433	953037	36563	106733	0	0	8144	760378	0	0
2024-04-12 18:30:32			0	33846	0	0	0	18516	17240	154582	27512	953098	36574	106744	0	0	8143	761032	0	0
2024-04-12 18:31:32			0	33833	0	0	0	18615	17260	154590	27866	953447	36609	106782	0	0	8141	761596	0	0
2024-04-12 18:32:32			0	33842	0	0	0	18628	17310	154666	27868	953774	36635	106787	0	0	8141	760942	0	0
2024-04-12 18:33:32			0	33853	0	0	0	18646	17350	154482	27774	953725	36594	106794	0	0	8142	760230	0	0
2024-04-12 18:34:32			0	33859	0	0	0	18719	17360	154486	27602	953742	36595	106822	0	0	8141	759891	0	0
2024-04-12 18:35:32			0	33855	0	0	0	18784	17380	154514	27481	954012	36608	106847	0	0	8139	760007	0	0
2024-04-12 18:36:32			0	33893	0	0	0	18727	17420	154350	27268	954201	36622	106825	0	0	8143	757957	0	0
2024-04-12 18:37:32			0	33913	0	0	0	18649	17440	154078	27845	954136	36602	106795	0	0	8145	756885	0	0
2024-04-12 18:38:32			0	33941	0	0	0	18636	17450	154030	27357	953985	36591	106790	0	0	8147	755459	0	0
2024-04-12 18:39:32			0	33935	0	0	0	18602	17450	153934	27569	953880	36591	106777	0	0	8148	755756	0	0
2024-04-12 18:40:32			0	33953	0	0	0	18576	17440	153894	27225	953758	36590	106767	0	0	8149	754908	0	0
2024-04-12 18:41:32			0	33949	0	0	0	18553	17410	153914	27334	953604	36566	106758	0	0	8149	755229	0	0
2024-04-12 18:42:32			0	33946	0	0	0	18537	17390	153854	27038	953492	36553	106752	0	0	8149	755459	0	0
2024-04-12 18:43:32			0	33950	0	0	0	18535	17370	153938	27357	953433	36584	106751	0	0	8149	755343	0	0
2024-04-12 18:44:32			0	33939	0	0	0	18522	17350	154038	27121	953356	36562	106746	0	0	8149	755969	0	0
2024-04-12 18:45:32			0	33924	0	0	0	18524	17330	154142	27490	953297	36571	106747	0	0	8148	756793	0	0
2024-04-12 18:46:32			0	33915	0	0	0	18511	17310	154134	27386	953220	36581	106742	0	0	8147	757321	0	0
2024-04-12 18:47:32			0	33893	0	0	0	18509	17290	154198	27306	953161	36557	106741	0	0	8146	758493	0	0
2024-04-12 18:48:32			0	33892	0	0	0	18506	17300	154250	27433	953195	36557	106740	0	0	8146	758502	0	0
2024-04-12 18:49:32			0	33882	0	0	0	18488	17280	154314	27416	953145	36567	106733	0	0	8146	759080	0	0
2024-04-12 18:50:32			0	33861	0	0	0	18519	17270	154394	27383	953181	36567	106745	0	0	8144	760163	0	0
2024-04-12 18:51:32			0	33851	0	0	0	18574	17280	154426	27369	953216	36578	106766	0	0	8142	760619	0	0
2024-04-12 18:52:32			0	33858	0	0	0	18594	17280	154454	27670	953321	36588	106774	0	0	8142	760271	0	0
2024-04-12 18:53:32			0	33879	0	0	0	18680	17300	154402	27348	953573	36613	106807	0	0	8142	759146	0	0
2024-04-12 18:54:32			0	33898	0	0	0	18898	17330	154470	27412	953807	36604	106891	0	0	8140	758081	0	0
2024-04-12 18:55:32			0	33914	0	0	0	19062	17380	154446	27861	954091	36640	106954	0	0	8138	757082	0	0
2024-04-12 18:56:32			0	33893	0	0	0	19106	17440	154398	27327	954497	36624	106971	0	0	8137	757875	0	0
2024-04-12 18:57:32			0	33914	0	0	0	19031	17480	154382	27263	954650	36649	106942	0	0	8139	756671	0	0
2024-04-12 18:58:32			0	33895	0	0	0	19077	17530	154350	27272	954908	36675	106960	0	0	8138	757405	0	0
2024-04-12 18:59:32			0	33887	0	0	0	19140	17570	154238	27258	955007	36668	106984	0	0	8136	757636	0	0
2024-04-12 19:00:32			0	33875	0	0	0	19202	17630	154334	27308	955203	36683	107008	0	0	8135	757983	0	0
2024-04-12 19:01:32			0	33902	0	0	0	18971	17660	154150	27561	955251	36675	106919	0	0	8140	756523	0	0
2024-04-12 19:02:32			0	33908	0	0	0	18885	17690	153954	27261	955107	36666	106886	0	0	8142	756103	0	0
2024-04-12 19:03:32			0	33912	0	0	0	18771	17680	153782	27485	954914	36644	106842	0	0	8144	755947	0	0
2024-04-12 19:04:32			0	33923	0	0	0	18761	17670	153822	27124	954766	36621	106838	0	0	8145	755445	0	0
2024-04-12 19:05:32			0	33901	0	0	0	18719	17660	153822	27199	954670	36631	106822	0	0	8145	756573	0	0
2024-04-12 19:06:32			0	33903	0	0	0	18740	17650	153862	27478	954707	36630	106830	0	0	8144	756515	0	0
2024-04-12 19:07:32			0	33895	0	0	0	18698	17640	153930	27255	954532	36619	106814	0	0	8145	756952	0	0
2024-04-12 19:08:32			0	33920	0	0	0	18742	17630	153858	26941	954455	36607	106831	0	0	8145	755757	0	0
2024-04-12 19:09:32			0	33911	0	0	0	18724	17620	153834	27422	954500	36627	106824	0	0	8145	756243	0	0
2024-04-12 19:10:32			0	33911	0	0	0	18906	17630	153966	27528	954674	36628	106894	0	0	8142	756202	0	0
2024-04-12 19:11:32			0	33926	0	0	0	18961	17660	153938	27447	955040	36631	106915	0	0	8142	755338	0	0
2024-04-12 19:12:32			0	33945	0	0	0	19023	17690	153866	27287	955213	36655	106939	0	0	8142	754276	0	0
2024-04-12 19:13:32			0	33947	0	0	0	19202	17730	153766	27817	955410	36669	107008	0	0	8139	754014	0	0
2024-04-12 19:14:32			0	33950	0	0	0	19329	17770	153870	27279	955713	36684	107057	0	0	8138	753701	0	0
2024-04-12 19:15:32			0	33928	0	0	0	19423	17820	154038	27389	956032	36699	107093	0	0	8135	754581	0	0
2024-04-12 19:16:32			0	33871	0	0	0	19522	17880	154210	27197	956368	36704	107131	0	0	8130	757150	0	0
2024-04-12 19:17:32			0	33846	0	0	0	19823	17940	154334	27150	956730	36731	107247	0	0	8124	758139	0	0
2024-04-12 19:18:32			0	33764	0	0	0	20049	18020	154778	27448	957143	36759	107334	0	0	8116	761876	0	0
2024-04-12 19:19:32			0	33701	0	0	0	20077	18090	155118	27488	957600	36787	107345	0	0	8112	764720	0	0
2024-04-12 19:20:32			0	33630	0	0	0	20049	18160	155286	27429	957828	36792	107334	0	0	8109	767973	0	0
2024-04-12 19:21:32			0	33563	0	0	0	19922	18220	155357	27307	957910	36808	107285	0	0	8107	771077	0	0
2024-04-12 19:22:32			0	33546	0	0	0	19864	18290	155453	27684	957918	36781	107263	0	0	8108	771636	0	0
2024-04-12 19:23:32			0	33527	0	0	0	19641	18310	155277	27571	957766	36783	107177	0	0	8110	772506	0	0
2024-04-12 19:24:32			0	33556	0	0	0	19550	18310	155217	27343	957634	36772	107142	0	0	8114	771050	0	0
2024-04-12 19:25:32			0	33585	0	0	0	19454	18300	154946	27576	957387	36760	107105	0	0	8117	769638	0	0
2024-04-12 19:26:32			0	33588	0	0	0	19418	18290	154814	27471	957284	36737	107091	0	0	8118	769529	0	0
2024-04-12 19:27:32			0	33622	0	0	0	19405	18290	154618	27256	957072	36726	107086	0	0	8120	767828	0	0
2024-04-12 19:28:32			0	33642	0	0	0	19272	18260	154538	27357	957050	36735	107035	0	0	8123	766954	0	0
2024-04-12 19:29:32			0	33685	0	0	0	19220	18240	154394	27365	956859	36711	107015	0	0	8126	764892	0	0
2024-04-12 19:30:32			0	33711	0	0	0	19192	18220	154206	27303	956781	36700	107004	0	0	8128	763680	0	0
2024-04-12 19:31:32			0	33716	0	0	0	19298	18190	154194	27261	956688	36698	107045	0	0	8127	763556	0	0
2024-04-12 19:32:32			0	33741	0	0	0	19244	18170	154146	27452	956681	36696	107024	0	0	8129	762395	0	0
2024-04-12 19:33:32			0	33755	0	0	0	19283	18170	154154	27376	956673	36706	107039	0	0	8129	761699	0	0
2024-04-12 19:34:32			0	33722	0	0	0	19415	18160	154262	27428	956745	36706	107090	0	0	8125	763382	0	0
2024-04-12 19:35:32			0	33687	0	0	0	19605	18180	154502	27790	956875	36717	107163	0	0	8120	765043	0	0
2024-04-12 19:36:32			0	33647	0	0	0	19696	18190	154746	27348	957137	36719	107198	0	0	8116	766997	0	0
2024-04-12 19:37:32			0	33621	0	0	0	19675	18240	154906	27365	957308	36755	107190	0	0	8115	768088	0	0
2024-04-12 19:38:32			0	33582	0	0	0	19703	18250	155002	27248	957359	36745	107201	0	0	8112	769998	0	0
2024-04-12 19:39:32			0	33600	0	0	0	19584	18270	154994	27511	957489	36747	107155	0	0	8115	769013	0	0
2024-04-12 19:40:32			0	33594	0	0	0	19563	18290	155046	27286	957345	36727	107147	0	0	8115	769229	0	0
2024-04-12 19:41:32			0	33553	0	0	0	19576	18290	154901	27123	957284	36737	107152	0	0	8113	771284	0	0
2024-04-12 19:42:32			0	33563	0	0	0	19638	18290	155049	27526	957390	36737	107176	0	0	8112	770783	0	0
2024-04-12 19:43:32			0	33542	0	0	0	19649	18290	155201	27152	957398	36750	107180	0	0	8111	771836	0	0
2024-04-12 19:44:32			0	33549	0	0	0	19659	18310	155169	27135	957457	36740	107184	0	0	8111	771401	0	0
2024-04-12 19:45:32			0	33582	0	0	0	19662	18310	155046	27066	957501	36750	107185	0	0	8113	769746	0	0
2024-04-12 19:46:32			0	33583	0	0	0	19659	18310	155026	27244	957562	36740	107184	0	0	8113	769696	0	0
2024-04-12 19:47:32			0	33600	0	0	0	19628	18310	154946	27471	957457	36750	107172	0	0	8115	768845	0	0
2024-04-12 19:48:32			0	33626	0	0	0	19615	18330	154794	26958	957481	36752	107167	0	0	8117	767460	0	0
2024-04-12 19:49:32			0	33640	0	0	0	19584	18330	154610	27013	957410	36742	107155	0	0	8118	766761	0	0
2024-04-12 19:50:32			0	33659	0	0	0	19599	18330	154602	26951	957455	36752	107161	0	0	8119	765812	0	0
2024-04-12 19:51:32			0	33682	0	0	0	19535	18330	154414	27329	957402	36742	107136	0	0	8121	764665	0	0
2024-04-12 19:52:32			0	33690	0	0	0	19503	18320	154378	27149	957385	36740	107124	0	0	8122	764308	0	0
2024-04-12 19:53:32			0	33683	0	0	0	19446	18300	154254	27322	957300	36738	107102	0	0	8123	764741	0	0
2024-04-12 19:54:32			0	33705	0	0	0	19381	18310	154170	27322	957237	36739	107077	0	0	8125	763603	0	0
2024-04-12 19:55:32			0	33706	0	0	0	19381	18300	154246	27076	957088	36727	107077	0	0	8125	763595	0	0
2024-04-12 19:56:32			0	33696	0	0	0	19332	18280	154262	27272	957011	36726	107058	0	0	8125	764177	0	0
2024-04-12 19:57:32			0	33721	0	0	0	19288	18260	154134	27296	956899	36725	107041	0	0	8127	763015	0	0
2024-04-12 19:58:32			0	33715	0	0	0	19280	18230	154238	27159	956771	36710	107038	0	0	8127	763439	0	0
2024-04-12 19:59:32			0	33727	0	0	0	19197	18200	154126	27150	956651	36698	107006	0	0	8129	762967	0	0
2024-04-12 20:00:32			0	33731	0	0	0	19109	18180	154074	27464	956486	36696	106972	0	0	8131	762851	0	0
2024-04-12 20:01:32			0	33716	0	0	0	19057	18140	154074	27440	956289	36682	106952	0	0	8130	763764	0	0
2024-04-12 20:02:32			0	33725	0	0	0	19070	18120	154166	27135	956195	36690	106957	0	0	8131	763400	0	0
2024-04-12 20:03:32			0	33748	0	0	0	19148	18090	154226	27291	956075	36678	106987	0	0	8131	762380	0	0
2024-04-12 20:04:32			0	33729	0	0	0	18992	18070	154138	27074	956043	36676	106927	0	0	8132	763409	0	0
2024-04-12 20:05:32			0	33743	0	0	0	18955	18050	154222	27012	955870	36663	106913	0	0	8133	762795	0	0
2024-04-12 20:06:32			0	33749	0	0	0	18898	18020	154142	27327	955715	36661	106891	0	0	8134	762622	0	0
2024-04-12 20:07:32			0	33739	0	0	0	18914	17980	154158	27332	955544	36647	106897	0	0	8133	763286	0	0
2024-04-12 20:08:32			0	33753	0	0	0	18916	17950	154146	27377	955416	36666	106898	0	0	8134	762714	0	0
2024-04-12 20:09:32			0	33745	0	0	0	18901	17920	154234	27107	955323	36642	106892	0	0	8134	763237	0	0
2024-04-12 20:10:32			0	33748	0	0	0	18903	17880	154278	27398	955213	36639	106893	0	0	8134	763254	0	0
2024-04-12 20:11:32			0	33763	0	0	0	18896	17850	154238	27428	955103	36646	106890	0	0	8135	762632	0	0
2024-04-12 20:12:32			0	33740	0	0	0	18903	17820	154294	27324	955089	36656	106893	0	0	8133	763902	0	0
2024-04-12 20:13:32			0	33765	0	0	0	18914	17810	154322	27414	955038	36643	106897	0	0	8134	762699	0	0
2024-04-12 20:14:32			0	33744	0	0	0	18893	17790	154418	26963	955040	36630	106889	0	0	8133	763827	0	0
2024-04-12 20:15:32			0	33748	0	0	0	18890	17770	154370	27227	954955	36640	106888	0	0	8133	763711	0	0
2024-04-12 20:16:32			0	33748	0	0	0	18877	17750	154406	27149	954870	36638	106883	0	0	8133	763794	0	0
2024-04-12 20:17:32			0	33757	0	0	0	18857	17740	154530	27381	954801	36638	106875	0	0	8134	763388	0	0
2024-04-12 20:18:32			0	33752	0	0	0	18854	17710	154582	26963	954752	36646	106874	0	0	8134	763762	0	0
2024-04-12 20:19:32			0	33756	0	0	0	18844	17690	154642	27381	954666	36645	106870	0	0	8134	763645	0	0
2024-04-12 20:20:32			0	33744	0	0	0	18828	17690	154698	27116	954579	36633	106864	0	0	8134	764243	0	0
2024-04-12 20:21:32			0	33729	0	0	0	18836	17660	154610	27280	954538	36642	106867	0	0	8133	765116	0	0
2024-04-12 20:22:32			0	33729	0	0	0	18823	17660	154750	27052	954504	36641	106862	0	0	8133	765116	0	0
2024-04-12 20:23:32			0	33732	0	0	0	18810	17640	154722	27386	954479	36630	106857	0	0	8133	765050	0	0
2024-04-12 20:24:32			0	33731	0	0	0	18805	17620	154722	27339	954447	36638	106855	0	0	8133	765183	0	0
2024-04-12 20:25:32			0	33718	0	0	0	18802	17610	154786	27229	954412	36638	106854	0	0	8132	765874	0	0
2024-04-12 20:26:32			0	33743	0	0	0	18792	17590	154786	27083	954353	36625	106850	0	0	8134	764709	0	0
2024-04-12 20:27:32			0	33715	0	0	0	18781	17580	154818	26968	954363	36635	106846	0	0	8132	766149	0	0
2024-04-12 20:28:32			0	33724	0	0	0	18792	17580	154898	26948	954302	36646	106850	0	0	8133	765699	0	0
2024-04-12 20:29:32			0	33732	0	0	0	18779	17560	154918	26998	954225	36633	106845	0	0	8133	765383	0	0
2024-04-12 20:30:32			0	33725	0	0	0	18779	17550	154754	26918	954209	36656	106845	0	0	8133	765774	0	0
2024-04-12 20:31:32			0	33725	0	0	0	18776	17540	154846	27261	954219	36643	106844	0	0	8133	765816	0	0
2024-04-12 20:32:32			0	33719	0	0	0	18763	17540	154858	27306	954132	36610	106839	0	0	8133	766115	0	0
2024-04-12 20:33:32			0	33731	0	0	0	18763	17520	154902	27194	954160	36641	106839	0	0	8133	765600	0	0
2024-04-12 20:34:32			0	33739	0	0	0	18768	17520	154858	27019	954152	36619	106841	0	0	8134	765200	0	0
2024-04-12 20:35:32			0	33738	0	0	0	18761	17510	154810	27095	954144	36641	106838	0	0	8134	765292	0	0
2024-04-12 20:36:32			0	33750	0	0	0	18768	17500	154874	27138	954067	36639	106841	0	0	8134	764735	0	0
2024-04-12 20:37:32			0	33750	0	0	0	18867	17490	154886	27388	954138	36650	106879	0	0	8133	764776	0	0
2024-04-12 20:38:32			0	33729	0	0	0	18919	17500	154958	27071	954313	36651	106899	0	0	8130	765783	0	0
2024-04-12 20:39:32			0	33721	0	0	0	18979	17510	155046	26871	954461	36663	106922	0	0	8129	766141	0	0
2024-04-12 20:40:32			0	33720	0	0	0	18989	17540	155114	26934	954589	36665	106926	0	0	8129	766066	0	0
2024-04-12 20:41:32			0	33706	0	0	0	19132	17570	155182	27114	954735	36678	106981	0	0	8126	766640	0	0
2024-04-12 20:42:32			0	33674	0	0	0	19249	17590	155354	27289	954873	36679	107026	0	0	8122	768157	0	0
2024-04-12 20:43:32			0	33640	0	0	0	19246	17610	155582	27312	955046	36704	107025	0	0	8120	769777	0	0
2024-04-12 20:44:32			0	33596	0	0	0	19249	17660	155646	27433	955217	36696	107026	0	0	8118	771776	0	0
2024-04-12 20:45:32			0	33596	0	0	0	19272	17680	155702	27010	955284	36709	107035	0	0	8118	771691	0	0
2024-04-12 20:46:32			0	33577	0	0	0	19275	17710	155658	27100	955386	36711	107036	0	0	8117	772520	0	0
2024-04-12 20:47:32			0	33580	0	0	0	19348	17740	155698	27398	955567	36725	107064	0	0	8116	772243	0	0
2024-04-12 20:48:32			0	33575	0	0	0	19412	17770	155698	27201	955634	36739	107089	0	0	8114	772368	0	0
2024-04-12 20:49:32			0	33556	0	0	0	19399	17810	155721	27336	955831	36719	107084	0	0	8114	773156	0	0
2024-04-12 20:50:32			0	33575	0	0	0	19412	17820	155646	27225	955900	36731	107089	0	0	8115	772158	0	0
2024-04-12 20:51:32			0	33565	0	0	0	19415	17860	155661	27324	955939	36735	107090	0	0	8114	772493	0	0
2024-04-12 20:52:32			0	33580	0	0	0	19438	17880	155546	27338	956059	36737	107099	0	0	8115	771654	0	0
2024-04-12 20:53:32			0	33559	0	0	0	19438	17910	155561	27260	956152	36750	107099	0	0	8114	772584	0	0
2024-04-12 20:54:32			0	33539	0	0	0	19467	17930	155621	27137	956264	36762	107110	0	0	8112	773505	0	0
2024-04-12 20:55:32			0	33553	0	0	0	19436	17940	155561	27261	956254	36742	107098	0	0	8113	772759	0	0
2024-04-12 20:56:32			0	33538	0	0	0	19384	17960	155597	27478	956226	36732	107078	0	0	8114	773429	0	0
2024-04-12 20:57:32			0	33545	0	0	0	19340	17960	155565	27493	956154	36732	107061	0	0	8115	773077	0	0
2024-04-12 20:58:32			0	33537	0	0	0	19340	17980	155457	27381	956152	36734	107061	0	0	8114	773395	0	0
2024-04-12 20:59:32			0	33528	0	0	0	19348	17980	155529	27301	956152	36734	107064	0	0	8114	773848	0	0
2024-04-12 21:00:32			0	33560	0	0	0	19350	17980	155501	27227	956152	36745	107065	0	0	8116	772238	0	0
2024-04-12 21:01:32			0	33535	0	0	0	19296	17980	155629	27329	956160	36734	107044	0	0	8115	773496	0	0
2024-04-12 21:02:32			0	33524	0	0	0	19246	17980	155633	27313	956099	36734	107025	0	0	8115	774049	0	0
2024-04-12 21:03:32			0	33525	0	0	0	19223	17980	155569	27130	956073	36723	107016	0	0	8116	773999	0	0
2024-04-12 21:04:32			0	33502	0	0	0	19249	17970	155625	27396	955986	36733	107026	0	0	8114	775200	0	0
2024-04-12 21:05:32			0	33520	0	0	0	19249	17970	155621	27145	956004	36732	107026	0	0	8115	774293	0	0
2024-04-12 21:06:32			0	33509	0	0	0	18883	17950	155517	26991	955847	36720	106885	0	0	8120	774932	0	0
2024-04-12 21:07:32			0	33536	0	0	0	18846	17940	155437	27390	955585	36687	106871	0	0	8123	773614	0	0
2024-04-12 21:08:32			0	33559	0	0	0	18794	17900	155285	27365	955343	36672	106851	0	0	8125	772626	0	0
2024-04-12 21:09:32			0	33570	0	0	0	18784	17860	155274	27312	955146	36680	106847	0	0	8125	772241	0	0
2024-04-12 21:10:32			0	33583	0	0	0	18766	17820	155262	26965	954957	36645	106840	0	0	8126	771756	0	0
2024-04-12 21:11:32			0	33570	0	0	0	18703	17770	155270	27300	954797	36651	106816	0	0	8126	772620	0	0
2024-04-12 21:12:32			0	33595	0	0	0	18683	17740	155290	27253	954634	36659	106808	0	0	8128	771490	0	0
2024-04-12 21:13:32			0	33597	0	0	0	18670	17700	155302	27263	954550	36646	106803	0	0	8128	771557	0	0
2024-04-12 21:14:32			0	33611	0	0	0	18649	17670	155298	26922	954388	36642	106795	0	0	8129	770980	0	0
2024-04-12 21:15:32			0	33623	0	0	0	18649	17640	155274	27104	954241	36641	106795	0	0	8130	770504	0	0
2024-04-12 21:16:32			0	33622	0	0	0	18646	17600	155326	27384	954184	36637	106794	0	0	8129	770722	0	0
2024-04-12 21:17:32			0	33633	0	0	0	18625	17580	155338	27130	954020	36635	106786	0	0	8130	770254	0	0
2024-04-12 21:18:32			0	33617	0	0	0	18625	17550	155306	27353	953963	36633	106786	0	0	8129	771183	0	0
2024-04-12 21:19:32			0	33623	0	0	0	18623	17540	155462	27460	953973	36621	106785	0	0	8129	770923	0	0
2024-04-12 21:20:32			0	33623	0	0	0	18620	17520	155378	27393	953896	36641	106784	0	0	8129	771007	0	0
2024-04-12 21:21:32			0	33611	0	0	0	18623	17500	155370	27171	953882	36639	106785	0	0	8129	771694	0	0
2024-04-12 21:22:32			0	33602	0	0	0	18633	17480	155542	27462	953831	36638	106789	0	0	8128	772230	0	0
2024-04-12 21:23:32			0	33604	0	0	0	18620	17470	155582	27097	953780	36625	106784	0	0	8128	772171	0	0
2024-04-12 21:24:32			0	33613	0	0	0	18610	17460	155626	27229	953764	36625	106780	0	0	8129	771761	0	0
2024-04-12 21:25:32			0	33614	0	0	0	18607	17450	155618	27448	953721	36625	106779	0	0	8129	771753	0	0
2024-04-12 21:26:32			0	33599	0	0	0	18618	17420	155502	27466	953681	36623	106783	0	0	8128	772633	0	0
2024-04-12 21:27:32			0	33609	0	0	0	18602	17420	155598	27403	953786	36633	106777	0	0	8128	772130	0	0
2024-04-12 21:28:32			0	33616	0	0	0	18618	17410	155614	27324	953717	36632	106783	0	0	8129	771820	0	0
2024-04-12 21:29:32			0	33613	0	0	0	18623	17420	155554	27166	953752	36632	106785	0	0	8128	771929	0	0
2024-04-12 21:30:32			0	33634	0	0	0	18615	17410	155526	27435	953797	36643	106782	0	0	8130	770916	0	0
2024-04-12 21:31:32			0	33610	0	0	0	18615	17410	155630	27209	953770	36632	106782	0	0	8128	772122	0	0
2024-04-12 21:32:32			0	33605	0	0	0	18618	17420	155614	27601	953752	36632	106783	0	0	8128	772331	0	0
2024-04-12 21:33:32			0	33574	0	0	0	18607	17410	155694	26948	953744	36632	106779	0	0	8126	773933	0	0
2024-04-12 21:34:32			0	33583	0	0	0	18599	17410	155742	27410	953683	36631	106776	0	0	8127	773480	0	0
2024-04-12 21:35:32			0	33583	0	0	0	18587	17390	155722	27481	953606	36630	106771	0	0	8127	773564	0	0
2024-04-12 21:36:32			0	33565	0	0	0	18574	17380	155906	27263	953608	36629	106766	0	0	8126	774513	0	0
2024-04-12 21:37:32			0	33566	0	0	0	18542	17370	155889	27417	953520	36640	106754	0	0	8127	774505	0	0
2024-04-12 21:38:32			0	33549	0	0	0	18537	17360	155813	27239	953583	36628	106752	0	0	8126	775404	0	0
2024-04-12 21:39:32			0	33559	0	0	0	18529	17350	155837	27248	953480	36626	106749	0	0	8126	774942	0	0
2024-04-12 21:40:32			0	33533	0	0	0	18535	17330	155893	27486	953463	36625	106751	0	0	8125	776338	0	0
2024-04-12 21:41:32			0	33540	0	0	0	18579	17350	155953	27062	953673	36638	106768	0	0	8124	775900	0	0
2024-04-12 21:42:32			0	33549	0	0	0	18566	17370	155985	27504	953705	36640	106763	0	0	8125	775362	0	0
2024-04-12 21:43:32			0	33521	0	0	0	18558	17380	155969	27488	953740	36629	106760	0	0	8124	776733	0	0
2024-04-12 21:44:32			0	33512	0	0	0	18581	17380	156045	27518	953661	36629	106769	0	0	8123	777188	0	0
2024-04-12 21:45:32			0	33504	0	0	0	18799	17380	156089	27220	953880	36652	106853	0	0	8119	777592	0	0
2024-04-12 21:46:32			0	33482	0	0	0	19077	17410	156281	27105	954219	36654	106960	0	0	8113	778579	0	0
2024-04-12 21:47:32			0	33480	0	0	0	19158	17450	156345	27092	954495	36679	106991	0	0	8112	778510	0	0
2024-04-12 21:48:32			0	33496	0	0	0	18815	17490	156205	27166	954640	36671	106859	0	0	8118	777532	0	0
2024-04-12 21:49:32			0	33510	0	0	0	18844	17520	156153	27241	954609	36674	106870	0	0	8119	776698	0	0
2024-04-12 21:50:32			0	33514	0	0	0	18963	17550	155961	27261	954703	36655	106916	0	0	8117	776369	0	0
2024-04-12 21:51:32			0	33514	0	0	0	19150	17580	156161	27083	954831	36679	106988	0	0	8114	776242	0	0
2024-04-12 21:52:32			0	33489	0	0	0	19111	17590	156209	27138	954934	36669	106973	0	0	8114	777463	0	0
2024-04-12 21:53:32			0	33473	0	0	0	19153	17610	156241	27201	955011	36692	106989	0	0	8112	778187	0	0
2024-04-12 21:54:32			0	33503	0	0	0	19137	17640	156085	27126	955087	36673	106983	0	0	8114	776544	0	0
2024-04-12 21:55:32			0	33504	0	0	0	19031	17650	155953	26958	955103	36684	106942	0	0	8116	776451	0	0
2024-04-12 21:56:32			0	33516	0	0	0	19038	17670	155837	27131	955003	36697	106945	0	0	8117	775761	0	0
2024-04-12 21:57:32			0	33515	0	0	0	19085	17680	155925	27005	955046	36699	106963	0	0	8116	775769	0	0
2024-04-12 21:58:32			0	33514	0	0	0	18893	17680	155785	26911	955064	36687	106889	0	0	8119	775820	0	0
2024-04-12 21:59:32			0	33518	0	0	0	18781	17680	155689	27244	954985	36687	106846	0	0	8121	775618	0	0
2024-04-12 22:00:32			0	33531	0	0	0	18644	17680	155697	27000	954835	36676	106793	0	0	8124	774963	0	0
2024-04-12 22:01:32			0	33518	0	0	0	18685	17680	155737	27150	954808	36666	106809	0	0	8123	775618	0	0
2024-04-12 22:02:32			0	33510	0	0	0	18561	17660	155717	27168	954583	36641	106761	0	0	8124	776106	0	0
2024-04-12 22:03:32			0	33485	0	0	0	18514	17620	155845	27267	954262	36649	106743	0	0	8124	777538	0	0
2024-04-12 22:04:32			0	33475	0	0	0	18490	17580	155957	26863	954117	36625	106734	0	0	8123	778213	0	0
2024-04-12 22:05:32			0	33460	0	0	0	18451	17550	155993	26967	953892	36612	106719	0	0	8123	779099	0	0
2024-04-12 22:06:32			0	33457	0	0	0	18441	17500	156001	27012	953803	36606	106715	0	0	8123	779463	0	0
2024-04-12 22:07:32			0	33476	0	0	0	18423	17470	156037	27053	953656	36615	106708	0	0	8124	778628	0	0
2024-04-12 22:08:32			0	33492	0	0	0	18425	17430	155901	27173	953478	36590	106709	0	0	8125	777988	0	0
2024-04-12 22:09:32			0	33518	0	0	0	18389	17390	155905	27365	953368	36609	106695	0	0	8127	776843	0	0
2024-04-12 22:10:32			0	33542	0	0	0	18381	17370	155885	27251	953336	36596	106692	0	0	8128	775715	0	0
2024-04-12 22:11:32			0	33543	0	0	0	18358	17340	155829	27313	953207	36594	106683	0	0	8128	775791	0	0
2024-04-12 22:12:32			0	33546	0	0	0	18348	17320	155753	27435	953104	36592	106679	0	0	8129	775724	0	0
2024-04-12 22:13:32			0	33564	0	0	0	18361	17280	155845	27237	952978	36599	106684	0	0	8129	774984	0	0
2024-04-12 22:14:32			0	33596	0	0	0	18353	17260	155662	27339	952980	36577	106681	0	0	8131	773456	0	0
2024-04-12 22:15:32			0	33589	0	0	0	18353	17250	155706	27294	952938	36586	106681	0	0	8131	773850	0	0
2024-04-12 22:16:32			0	33596	0	0	0	18353	17220	155678	27312	952889	36583	106681	0	0	8131	773624	0	0
2024-04-12 22:17:32			0	33616	0	0	0	18345	17190	155542	27358	952761	36603	106678	0	0	8132	772743	0	0
2024-04-12 22:18:32			0	33622	0	0	0	18337	17190	155442	27438	952779	36592	106675	0	0	8133	772441	0	0
2024-04-12 22:19:32			0	33632	0	0	0	18327	17180	155530	27466	952763	36591	106671	0	0	8133	771980	0	0
2024-04-12 22:20:32			0	33629	0	0	0	18329	17160	155490	27116	952651	36589	106672	0	0	8133	772215	0	0
2024-04-12 22:21:32			0	33632	0	0	0	18322	17150	155582	27443	952564	36589	106669	0	0	8133	772106	0	0
2024-04-12 22:22:32			0	33643	0	0	0	18316	17130	155546	27189	952524	36586	106667	0	0	8134	771637	0	0
2024-04-12 22:23:32			0	33644	0	0	0	18311	17120	155594	27353	952595	36597	106665	0	0	8134	771628	0	0
2024-04-12 22:24:32			0	33650	0	0	0	18296	17110	155618	27436	952491	36585	106659	0	0	8135	771369	0	0
2024-04-12 22:25:32			0	33657	0	0	0	18285	17100	155546	27481	952483	36596	106655	0	0	8135	771059	0	0
2024-04-12 22:26:32			0	33639	0	0	0	18285	17080	155634	27253	952424	36594	106655	0	0	8134	772047	0	0
2024-04-12 22:27:32			0	33657	0	0	0	18270	17080	155622	27298	952398	36583	106649	0	0	8135	771142	0	0
2024-04-12 22:28:32			0	33643	0	0	0	18259	17070	155658	27171	952302	36582	106645	0	0	8135	771888	0	0
2024-04-12 22:29:32			0	33610	0	0	0	18267	17060	155722	27388	952312	36592	106648	0	0	8132	773591	0	0
2024-04-12 22:30:32			0	33636	0	0	0	18262	17050	155702	27296	952270	36591	106646	0	0	8134	772324	0	0
2024-04-12 22:31:32			0	33636	0	0	0	18254	17040	155774	27294	952306	36581	106643	0	0	8134	772366	0	0
2024-04-12 22:32:32			0	33618	0	0	0	18251	17030	155802	27504	952211	36589	106642	0	0	8133	773314	0	0
2024-04-12 22:33:32			0	33623	0	0	0	18238	17030	155838	27334	952158	36589	106637	0	0	8134	773062	0	0
2024-04-12 22:34:32			0	33628	0	0	0	18244	17000	155766	27248	952144	36587	106639	0	0	8134	772936	0	0
2024-04-12 22:35:32			0	33612	0	0	0	18223	17010	155822	27177	952126	36588	106631	0	0	8133	773700	0	0
2024-04-12 22:36:32			0	33609	0	0	0	18212	17000	155870	27227	952118	36598	106627	0	0	8133	773893	0	0
2024-04-12 22:37:32			0	33626	0	0	0	18199	16990	155926	27255	952049	36587	106622	0	0	8134	773079	0	0
2024-04-12 22:38:32			0	33605	0	0	0	18184	16980	155914	27272	952051	36564	106616	0	0	8133	774179	0	0
2024-04-12 22:39:32			0	33615	0	0	0	18181	16970	155974	27320	952042	36585	106615	0	0	8134	773716	0	0
2024-04-12 22:40:32			0	33605	0	0	0	18176	16960	155946	27012	951939	36583	106613	0	0	8133	774263	0	0
2024-04-12 22:41:32			0	33596	0	0	0	18176	16950	155926	26932	951878	36561	106613	0	0	8133	774758	0	0
2024-04-12 22:42:32			0	33610	0	0	0	18148	16940	155962	27100	951888	36593	106602	0	0	8134	774094	0	0
2024-04-12 22:43:32			0	33604	0	0	0	18135	16940	155942	27386	951915	36583	106597	0	0	8134	774397	0	0
2024-04-12 22:44:32			0	33607	0	0	0	18142	16930	155974	27327	951811	36582	106600	0	0	8134	774288	0	0
2024-04-12 22:45:32			0	33599	0	0	0	18158	16920	155962	27595	951777	36591	106606	0	0	8133	774733	0	0
2024-04-12 22:46:32			0	33594	0	0	0	18153	16910	156146	27227	951761	36558	106604	0	0	8133	775027	0	0
2024-04-12 22:47:32			0	33592	0	0	0	18148	16910	156114	27175	951787	36569	106602	0	0	8133	775128	0	0
2024-04-12 22:48:32			0	33564	0	0	0	18122	16900	156093	27227	951771	36569	106592	0	0	8131	776584	0	0
2024-04-12 22:49:32			0	33569	0	0	0	18122	16900	156117	27301	951692	36569	106592	0	0	8132	776332	0	0
2024-04-12 22:50:32			0	33549	0	0	0	18129	16890	156173	27261	951728	36567	106595	0	0	8130	777385	0	0
2024-04-12 22:51:32			0	33544	0	0	0	18124	16880	156225	27383	951757	36566	106593	0	0	8130	777680	0	0
2024-04-12 22:52:32			0	33555	0	0	0	18140	16870	156265	27208	951740	36576	106599	0	0	8130	777166	0	0
2024-04-12 22:53:32			0	33553	0	0	0	18158	16880	156273	27277	951712	36578	106606	0	0	8130	777224	0	0
2024-04-12 22:54:32			0	33535	0	0	0	18127	16870	156285	27066	951749	36576	106594	0	0	8129	778177	0	0
2024-04-12 22:55:32			0	33537	0	0	0	18114	16880	156337	27327	951651	36577	106589	0	0	8130	778034	0	0
2024-04-12 22:56:32			0	33534	0	0	0	18148	16860	156361	27119	951653	36587	106602	0	0	8129	778270	0	0
2024-04-12 22:57:32			0	33523	0	0	0	18202	16870	156365	27052	951820	36576	106623	0	0	8127	778785	0	0
2024-04-12 22:58:32			0	33520	0	0	0	18231	16870	156461	26991	951801	36565	106634	0	0	8127	778937	0	0
2024-04-12 22:59:32			0	33506	0	0	0	18233	16890	156545	27104	951852	36588	106635	0	0	8126	779562	0	0
2024-04-12 23:00:32			0	33511	0	0	0	18233	16880	156605	27175	951836	36587	106635	0	0	8126	779351	0	0
2024-04-12 23:01:32			0	33490	0	0	0	18249	16900	156689	27114	951895	36600	106641	0	0	8125	780331	0	0
2024-04-12 23:02:32			0	33495	0	0	0	18249	16900	156645	27270	951895	36579	106641	0	0	8125	780078	0	0
2024-04-12 23:03:32			0	33489	0	0	0	18254	16910	156721	27357	952016	36591	106643	0	0	8125	780340	0	0
2024-04-12 23:04:32			0	33470	0	0	0	18264	16910	156681	26866	951964	36591	106647	0	0	8123	781304	0	0
2024-04-12 23:05:32			0	33477	0	0	0	18254	16910	156753	27107	951972	36602	106643	0	0	8124	780949	0	0
2024-04-12 23:06:32			0	33463	0	0	0	18272	16910	156589	27360	951884	36602	106650	0	0	8123	781660	0	0
2024-04-12 23:07:32			0	33471	0	0	0	18296	16910	156645	27320	952016	36591	106659	0	0	8123	781253	0	0
2024-04-12 23:08:32			0	33478	0	0	0	18306	16930	156621	27022	952110	36582	106663	0	0	8123	780813	0	0
2024-04-12 23:09:32			0	33505	0	0	0	18322	16930	156621	27130	952022	36603	106669	0	0	8125	779444	0	0
2024-04-12 23:10:32			0	33506	0	0	0	18337	16940	156477	27293	952179	36615	106675	0	0	8124	779351	0	0
2024-04-12 23:11:32			0	33531	0	0	0	18337	16950	156561	27397	952160	36583	106675	0	0	8126	778042	0	0
2024-04-12 23:12:32			0	33521	0	0	0	18329	16960	156417	27326	952229	36605	106672	0	0	8126	778506	0	0
2024-04-12 23:13:32			0	33533	0	0	0	18337	16960	156413	27274	952203	36616	106675	0	0	8126	777899	0	0
2024-04-12 23:14:32			0	33548	0	0	0	18361	16970	156325	27602	952298	36618	106684	0	0	8127	777098	0	0
2024-04-12 23:15:32			0	33556	0	0	0	18353	16980	156273	27211	952209	36619	106681	0	0	8127	776652	0	0
2024-04-12 23:16:32			0	33550	0	0	0	18337	16980	156197	27046	952262	36607	106675	0	0	8127	776955	0	0
2024-04-12 23:17:32			0	33539	0	0	0	18345	16980	156185	27053	952270	36607	106678	0	0	8127	777511	0	0
2024-04-12 23:18:32			0	33553	0	0	0	18348	16980	156157	27372	952323	36607	106679	0	0	8127	776803	0	0
2024-04-12 23:19:32			0	33556	0	0	0	18361	16990	156173	27116	952392	36609	106684	0	0	8127	776609	0	0
2024-04-12 23:20:32			0	33579	0	0	0	18371	17000	156166	27180	952408	36620	106688	0	0	8129	775406	0	0
2024-04-12 23:21:32			0	33582	0	0	0	18381	17000	156106	27017	952400	36609	106692	0	0	8129	775254	0	0
2024-04-12 23:22:32			0	33621	0	0	0	18381	17010	155998	26887	952424	36622	106692	0	0	8131	773247	0	0
2024-04-12 23:23:32			0	33603	0	0	0	18376	17010	156010	27244	952451	36632	106690	0	0	8130	774153	0	0
2024-04-12 23:24:32			0	33599	0	0	0	18381	17010	155950	27067	952477	36611	106692	0	0	8130	774355	0	0
2024-04-12 23:25:32			0	33605	0	0	0	18405	17020	155890	27381	952440	36600	106701	0	0	8130	774011	0	0
2024-04-12 23:26:32			0	33614	0	0	0	18405	17010	155998	27105	952451	36622	106701	0	0	8130	773599	0	0
2024-04-12 23:27:32			0	33620	0	0	0	18402	17020	155822	27279	952520	36622	106700	0	0	8131	773255	0	0
2024-04-12 23:28:32			0	33628	0	0	0	18392	17050	155842	27348	952552	36602	106696	0	0	8131	772727	0	0
2024-04-12 23:29:32			0	33647	0	0	0	18389	17050	155742	27270	952499	36624	106695	0	0	8132	771771	0	0
2024-04-12 23:30:32			0	33646	0	0	0	18386	17040	155714	27267	952465	36634	106694	0	0	8132	771863	0	0
2024-04-12 23:31:32			0	33660	0	0	0	18399	17030	155698	27303	952536	36634	106699	0	0	8133	771201	0	0
2024-04-12 23:32:32			0	33677	0	0	0	18392	17050	155538	27242	952534	36624	106696	0	0	8134	770264	0	0
2024-04-12 23:33:32			0	33705	0	0	0	18394	17060	155430	27421	952568	36614	106697	0	0	8136	768817	0	0
2024-04-12 23:34:32			0	33708	0	0	0	18389	17050	155318	27045	952578	36613	106695	0	0	8136	768709	0	0
2024-04-12 23:35:32			0	33724	0	0	0	18389	17050	155238	27135	952526	36602	106695	0	0	8137	767907	0	0
2024-04-12 23:36:32			0	33742	0	0	0	18389	17050	155234	26949	952507	36613	106695	0	0	8138	767006	0	0
2024-04-12 23:37:32			0	33757	0	0	0	18374	17060	155118	27405	952463	36614	106689	0	0	8139	766215	0	0
2024-04-12 23:38:32			0	33755	0	0	0	18376	17050	155118	27232	952560	36634	106690	0	0	8139	766356	0	0
2024-04-12 23:39:32			0	33762	0	0	0	18376	17050	155170	27078	952534	36634	106690	0	0	8139	766006	0	0
2024-04-12 23:40:32			0	33777	0	0	0	18386	17060	155090	27060	952542	36625	106694	0	0	8140	765216	0	0
2024-04-12 23:41:32			0	33799	0	0	0	18376	17060	155074	27312	952515	36635	106690	0	0	8142	764118	0	0
2024-04-12 23:42:32			0	33781	0	0	0	18374	17050	154954	26920	952526	36624	106689	0	0	8141	765057	0	0
2024-04-12 23:43:32			0	33784	0	0	0	18379	17050	154922	27078	952507	36624	106691	0	0	8141	764908	0	0
2024-04-12 23:44:32			0	33788	0	0	0	18379	17040	155066	26977	952518	36613	106691	0	0	8141	764750	0	0
2024-04-12 23:45:32			0	33774	0	0	0	18379	17050	155118	27374	952473	36624	106691	0	0	8140	765407	0	0
2024-04-12 23:46:32			0	33768	0	0	0	18374	17060	155142	26920	952576	36615	106689	0	0	8140	765665	0	0
2024-04-12 23:47:32			0	33770	0	0	0	18379	17050	155122	27215	952534	36624	106691	0	0	8140	765607	0	0
2024-04-12 23:48:32			0	33745	0	0	0	18376	17050	155190	27249	952507	36624	106690	0	0	8138	766856	0	0
2024-04-12 23:49:32			0	33734	0	0	0	18379	17060	155094	27327	952515	36614	106691	0	0	8138	767365	0	0
2024-04-12 23:50:32			0	33729	0	0	0	18374	17060	155242	27043	952550	36636	106689	0	0	8138	767615	0	0
2024-04-12 23:51:32			0	33741	0	0	0	18368	17060	155238	27312	952515	36614	106687	0	0	8138	767015	0	0
2024-04-12 23:52:32			0	33744	0	0	0	18374	17060	155154	27176	952489	36625	106689	0	0	8138	766865	0	0
2024-04-12 23:53:32			0	33734	0	0	0	18358	17050	155266	27140	952560	36624	106683	0	0	8138	767407	0	0
2024-04-12 23:54:32			0	33733	0	0	0	18350	17050	155230	27130	952507	36602	106680	0	0	8138	767457	0	0
2024-04-12 23:55:32			0	33737	0	0	0	18376	17060	155206	27135	952524	36625	106690	0	0	8138	767215	0	0
2024-04-12 23:56:32			0	33745	0	0	0	18368	17050	155170	27012	952526	36657	106687	0	0	8139	766856	0	0
2024-04-12 23:57:32			0	33752	0	0	0	18386	17050	155098	27228	952507	36613	106694	0	0	8139	766506	0	0
2024-04-12 23:58:32			0	33748	0	0	0	18361	17060	155074	27135	952515	36635	106684	0	0	8139	766665	0	0
2024-04-12 23:59:32			0	33757	0	0	0	18358	17050	155090	27213	952507	36624	106683	0	0	8139	766256	0	0
2024-04-13 00:00:32			0	33768	0	0	0	18358	17060	155134	27050	952568	36625	106683	0	0	8140	765665	0	0
2024-04-13 00:01:32			0	33751	0	0	0	18350	17060	155130	26835	952542	36635	106680	0	0	8139	766515	0	0
2024-04-13 00:02:32			0	33743	0	0	0	18319	17050	155134	26840	952507	36624	106668	0	0	8139	766956	0	0
2024-04-13 00:03:32			0	33747	0	0	0	18285	17050	155118	27131	952507	36602	106655	0	0	8140	766756	0	0
2024-04-13 00:04:32			0	33763	0	0	0	18262	17050	154974	26889	952428	36613	106646	0	0	8141	765956	0	0
2024-04-13 00:05:32			0	33800	0	0	0	18179	17030	154806	27118	952325	36601	106614	0	0	8145	764192	0	0
2024-04-13 00:06:32			0	33821	0	0	0	18098	17030	154614	27293	952298	36612	106583	0	0	8147	763145	0	0
2024-04-13 00:07:32			0	33811	0	0	0	18028	17010	154746	26937	952081	36600	106556	0	0	8148	763726	0	0
2024-04-13 00:08:32			0	33793	0	0	0	17877	16980	154826	27371	951980	36596	106498	0	0	8149	764749	0	0
2024-04-13 00:09:32			0	33729	0	0	0	17812	16970	155042	27088	951876	36574	106473	0	0	8147	767990	0	0
2024-04-13 00:10:32			0	33661	0	0	0	17696	16950	155366	27154	951693	36583	106428	0	0	8145	771485	0	0
2024-04-13 00:11:32			0	33595	0	0	0	17592	16910	155682	27104	951357	36569	106388	0	0	8142	774977	0	0
2024-04-13 00:12:32			0	33513	0	0	0	17550	16860	155961	26958	951231	36543	106372	0	0	8138	779334	0	0
2024-04-13 00:13:32			0	33448	0	0	0	17498	16830	156289	27232	950937	36540	106352	0	0	8135	782761	0	0
2024-04-13 00:14:32			0	33420	0	0	0	17431	16780	156613	27059	950777	36537	106326	0	0	8134	784399	0	0
2024-04-13 00:15:32			0	33368	0	0	0	17467	16720	156717	27215	950511	36510	106340	0	0	8130	787308	0	0
2024-04-13 00:16:32			0	33351	0	0	0	17464	16670	156949	27232	950263	36495	106339	0	0	8129	788391	0	0
2024-04-13 00:17:32			0	33336	0	0	0	17436	16640	156921	27206	950197	36492	106328	0	0	8128	789287	0	0
2024-04-13 00:18:32			0	33367	0	0	0	17415	16600	157049	27405	949965	36478	106320	0	0	8130	787871	0	0
2024-04-13 00:19:32			0	33378	0	0	0	17418	16560	157009	27263	949980	36485	106321	0	0	8131	787479	0	0
2024-04-13 00:20:32			0	33392	0	0	0	17436	16540	156921	27455	949929	36517	106328	0	0	8131	786849	0	0
2024-04-13 00:21:32			0	33397	0	0	0	17670	16530	156937	27197	950063	36504	106418	0	0	8127	786636	0	0
2024-04-13 00:22:32			0	33357	0	0	0	17776	16530	157257	27079	950274	36515	106459	0	0	8123	788681	0	0
2024-04-13 00:23:32			0	33319	0	0	0	17823	16530	157501	26963	950274	36526	106477	0	0	8120	790629	0	0
2024-04-13 00:24:32			0	33285	0	0	0	17841	16530	157713	27502	950353	36515	106484	0	0	8118	792374	0	0
2024-04-13 00:25:32			0	33273	0	0	0	17828	16530	157749	27066	950414	36516	106479	0	0	8117	792991	0	0
2024-04-13 00:26:32			0	33295	0	0	0	17854	16540	157777	27137	950475	36527	106489	0	0	8118	791818	0	0
2024-04-13 00:27:32			0	33292	0	0	0	17890	16540	157745	27223	950588	36539	106503	0	0	8117	791972	0	0
2024-04-13 00:28:32			0	33292	0	0	0	17877	16550	157677	27327	950491	36549	106498	0	0	8118	791929	0	0
2024-04-13 00:29:32			0	33295	0	0	0	17924	16570	157669	27159	950558	36551	106516	0	0	8117	791689	0	0
2024-04-13 00:30:32			0	33315	0	0	0	17948	16570	157617	27020	950663	36551	106525	0	0	8118	790663	0	0
2024-04-13 00:31:32			0	33318	0	0	0	17924	16580	157665	27429	950706	36552	106516	0	0	8119	790466	0	0
2024-04-13 00:32:32			0	33309	0	0	0	17932	16590	157597	27275	950767	36542	106519	0	0	8118	790885	0	0
2024-04-13 00:33:32			0	33303	0	0	0	17919	16600	157533	27367	950783	36554	106514	0	0	8118	791150	0	0
2024-04-13 00:34:32			0	33302	0	0	0	17896	16610	157561	27504	950799	36555	106505	0	0	8118	791159	0	0
2024-04-13 00:35:32			0	33315	0	0	0	17875	16600	157565	26890	950738	36565	106497	0	0	8119	790535	0	0
2024-04-13 00:36:32			0	33311	0	0	0	17864	16600	157417	27578	950685	36543	106493	0	0	8119	790740	0	0
2024-04-13 00:37:32			0	33325	0	0	0	17903	16600	157425	27128	950730	36554	106508	0	0	8119	790022	0	0
2024-04-13 00:38:32			0	33333	0	0	0	17919	16600	157417	27490	950756	36554	106514	0	0	8120	789612	0	0
2024-04-13 00:39:32			0	33322	0	0	0	17955	16600	157409	27248	950756	36543	106528	0	0	8118	790175	0	0
2024-04-13 00:40:32			0	33330	0	0	0	17961	16610	157521	27261	950807	36555	106530	0	0	8119	789723	0	0
2024-04-13 00:41:32			0	33345	0	0	0	17963	16620	157357	26934	950815	36567	106531	0	0	8120	788911	0	0
2024-04-13 00:42:32			0	33347	0	0	0	17958	16620	157269	26909	950815	36578	106529	0	0	8120	788809	0	0
2024-04-13 00:43:32			0	33370	0	0	0	17979	16620	157409	27376	950841	36567	106537	0	0	8121	787632	0	0
2024-04-13 00:44:32			0	33345	0	0	0	17984	16630	157393	27154	950892	36579	106539	0	0	8119	788869	0	0
2024-04-13 00:45:32			0	33335	0	0	0	17999	16640	157305	27376	950901	36579	106545	0	0	8119	789338	0	0
2024-04-13 00:46:32			0	33348	0	0	0	17992	16630	157229	26880	950892	36567	106542	0	0	8119	788715	0	0
2024-04-13 00:47:32			0	33364	0	0	0	17979	16650	157273	26941	950917	36602	106537	0	0	8121	787811	0	0
2024-04-13 00:48:32			0	33379	0	0	0	17955	16650	157165	27057	950969	36569	106528	0	0	8122	787044	0	0
2024-04-13 00:49:32			0	33372	0	0	0	17955	16650	157157	27180	951004	36569	106528	0	0	8122	787402	0	0
2024-04-13 00:50:32			0	33377	0	0	0	17981	16660	157137	26835	951046	36592	106538	0	0	8122	787104	0	0
2024-04-13 00:51:32			0	33362	0	0	0	17989	16660	157177	27105	951046	36582	106541	0	0	8120	787871	0	0
2024-04-13 00:52:32			0	33383	0	0	0	17989	16670	157293	26949	951107	36582	106541	0	0	8122	786755	0	0
2024-04-13 00:53:32			0	33376	0	0	0	18012	16670	157209	27239	951089	36572	106550	0	0	8121	787113	0	0
2024-04-13 00:54:32			0	33392	0	0	0	18015	16670	157145	27161	951116	36572	106551	0	0	8122	786295	0	0
2024-04-13 00:55:32			0	33379	0	0	0	18012	16690	157153	26975	951087	36572	106550	0	0	8121	786874	0	0
2024-04-13 00:56:32			0	33383	0	0	0	18005	16690	157149	27027	951140	36583	106547	0	0	8122	786670	0	0
2024-04-13 00:57:32			0	33371	0	0	0	18028	16690	157133	27327	951114	36572	106556	0	0	8121	787283	0	0
2024-04-13 00:58:32			0	33370	0	0	0	18020	16700	157093	27317	951183	36583	106553	0	0	8121	787291	0	0
2024-04-13 00:59:32			0	33380	0	0	0	18020	16690	157109	27265	951140	36594	106553	0	0	8121	786823	0	0
2024-04-13 01:00:32			0	33387	0	0	0	18007	16690	157093	27038	951095	36583	106548	0	0	8122	786465	0	0
2024-04-13 01:01:32			0	33387	0	0	0	18033	16700	157153	26909	951164	36574	106558	0	0	8121	786423	0	0
2024-04-13 01:02:32			0	33376	0	0	0	18044	16690	157017	27100	951174	36583	106562	0	0	8121	787027	0	0
2024-04-13 01:03:32			0	33367	0	0	0	18041	16710	157085	26883	951207	36585	106561	0	0	8120	787402	0	0
2024-04-13 01:04:32			0	33353	0	0	0	18031	16710	157077	27267	951207	36585	106557	0	0	8119	788118	0	0
2024-04-13 01:05:32			0	33358	0	0	0	17971	16710	157181	26961	951225	36585	106534	0	0	8121	787862	0	0
2024-04-13 01:06:32			0	33365	0	0	0	17963	16710	157133	27305	951172	36585	106531	0	0	8121	787504	0	0
2024-04-13 01:07:32			0	33363	0	0	0	17963	16710	157201	27020	951154	36575	106531	0	0	8121	787607	0	0
2024-04-13 01:08:32			0	33344	0	0	0	17932	16720	157121	27294	951189	36585	106519	0	0	8121	788536	0	0
2024-04-13 01:09:32			0	33334	0	0	0	17849	16710	157193	27133	951180	36575	106487	0	0	8121	789090	0	0
2024-04-13 01:10:32			0	33338	0	0	0	17672	16710	157117	27235	951093	36575	106419	0	0	8125	788886	0	0
2024-04-13 01:11:32			0	33343	0	0	0	17519	16710	157005	27142	950935	36564	106360	0	0	8128	788630	0	0
2024-04-13 01:12:32			0	33338	0	0	0	17428	16690	156941	27055	950673	36562	106325	0	0	8129	788971	0	0
2024-04-13 01:13:32			0	33329	0	0	0	17340	16650	156937	27112	950363	36537	106291	0	0	8130	789603	0	0
2024-04-13 01:14:32			0	33313	0	0	0	17329	16610	157017	27112	950192	36511	106287	0	0	8129	790594	0	0
2024-04-13 01:15:32			0	33301	0	0	0	17322	16560	157145	27090	950041	36518	106284	0	0	8128	791424	0	0
2024-04-13 01:16:32			0	33280	0	0	0	17337	16540	157329	26849	950140	36505	106290	0	0	8126	792589	0	0
2024-04-13 01:17:32			0	33248	0	0	0	17358	16530	157517	27331	950063	36515	106298	0	0	8124	794278	0	0
2024-04-13 01:18:32			0	33251	0	0	0	17293	16510	157561	27523	949899	36513	106273	0	0	8125	794209	0	0
2024-04-13 01:19:32			0	33233	0	0	0	17285	16480	157689	27547	949700	36490	106270	0	0	8124	795265	0	0
2024-04-13 01:20:32			0	33209	0	0	0	17225	16430	157709	27397	949416	36475	106247	0	0	8123	796719	0	0
2024-04-13 01:21:32			0	33219	0	0	0	17212	16390	157773	27263	949291	36471	106242	0	0	8124	796375	0	0
2024-04-13 01:22:32			0	33242	0	0	0	17197	16340	157765	27133	949086	36457	106236	0	0	8125	795403	0	0
2024-04-13 01:23:32			0	33241	0	0	0	17166	16300	157705	27268	948969	36454	106224	0	0	8125	795627	0	0
2024-04-13 01:24:32			0	33289	0	0	0	17145	16250	157525	27343	948783	36449	106216	0	0	8128	793369	0	0
2024-04-13 01:25:32			0	33311	0	0	0	17119	16220	157485	26974	948568	36447	106206	0	0	8130	792366	0	0
2024-04-13 01:26:32			0	33327	0	0	0	17116	16170	157477	27370	948495	36443	106205	0	0	8131	791758	0	0
2024-04-13 01:27:32			0	33360	0	0	0	17111	16150	157441	27154	948384	36441	106203	0	0	8133	790149	0	0
2024-04-13 01:28:32			0	33382	0	0	0	17093	16110	157213	27225	948292	36448	106196	0	0	8134	789191	0	0
2024-04-13 01:29:32			0	33417	0	0	0	17093	16070	157125	27116	948175	36445	106196	0	0	8136	787570	0	0
2024-04-13 01:30:32			0	33437	0	0	0	17101	16050	157057	27338	948151	36432	106199	0	0	8137	786632	0	0
2024-04-13 01:31:32			0	33436	0	0	0	17096	16040	156973	27372	948100	36442	106197	0	0	8137	786725	0	0
2024-04-13 01:32:32			0	33454	0	0	0	17096	16020	156941	27170	948015	36441	106197	0	0	8138	785891	0	0
2024-04-13 01:33:32			0	33462	0	0	0	17096	15990	156973	27343	947967	36450	106197	0	0	8138	785609	0	0
2024-04-13 01:34:32			0	33463	0	0	0	17101	15980	156929	27317	947898	36437	106199	0	0	8138	785601	0	0
2024-04-13 01:35:32			0	33463	0	0	0	17090	15960	157061	27362	947900	36458	106195	0	0	8138	785685	0	0
2024-04-13 01:36:32			0	33468	0	0	0	17085	15940	156997	27324	947868	36446	106193	0	0	8139	785515	0	0
2024-04-13 01:37:32			0	33453	0	0	0	17090	15940	157149	27036	947807	36434	106195	0	0	8138	786281	0	0
2024-04-13 01:38:32			0	33461	0	0	0	17088	15910	157145	27329	947811	36442	106194	0	0	8138	786000	0	0
2024-04-13 01:39:32			0	33442	0	0	0	17085	15900	157117	27256	947750	36442	106193	0	0	8137	787013	0	0
2024-04-13 01:40:32			0	33442	0	0	0	17088	15890	157169	27085	947700	36441	106194	0	0	8137	787055	0	0
2024-04-13 01:41:32			0	33462	0	0	0	17090	15890	157189	27568	947779	36452	106195	0	0	8138	786033	0	0
2024-04-13 01:42:32			0	33461	0	0	0	17088	15870	157301	27307	947702	36439	106194	0	0	8138	786169	0	0
2024-04-13 01:43:32			0	33460	0	0	0	17088	15860	157209	27138	947712	36449	106194	0	0	8138	786262	0	0
2024-04-13 01:44:32			0	33460	0	0	0	17103	15860	157181	27097	947712	36438	106200	0	0	8137	786262	0	0
2024-04-13 01:45:32			0	33452	0	0	0	17127	15850	157169	27359	947730	36449	106209	0	0	8137	786714	0	0
2024-04-13 01:46:32			0	33445	0	0	0	17148	15870	157305	27391	947754	36460	106217	0	0	8136	786987	0	0
2024-04-13 01:47:32			0	33448	0	0	0	17161	15860	157405	27192	947738	36449	106222	0	0	8136	786876	0	0
2024-04-13 01:48:32			0	33423	0	0	0	17163	15860	157533	27300	947799	36460	106223	0	0	8134	788155	0	0
2024-04-13 01:49:32			0	33417	0	0	0	17158	15860	157613	26944	947799	36460	106221	0	0	8134	788462	0	0
2024-04-13 01:50:32			0	33400	0	0	0	17148	15860	157541	27138	947825	36449	106217	0	0	8133	789333	0	0
2024-04-13 01:51:32			0	33373	0	0	0	17155	15850	157693	27157	947801	36459	106220	0	0	8131	790761	0	0
2024-04-13 01:52:32			0	33370	0	0	0	17145	15850	157845	27348	947783	36460	106216	0	0	8131	790915	0	0
2024-04-13 01:53:32			0	33341	0	0	0	17122	15860	157953	27402	947799	36449	106207	0	0	8130	792363	0	0
2024-04-13 01:54:32			0	33308	0	0	0	17098	15850	157969	27079	947722	36449	106198	0	0	8128	794104	0	0
2024-04-13 01:55:32			0	33285	0	0	0	17098	15850	157977	26968	947730	36438	106198	0	0	8127	795289	0	0
2024-04-13 01:56:32			0	33279	0	0	0	17111	15840	158145	26920	947740	36458	106203	0	0	8126	795642	0	0
2024-04-13 01:57:32			0	33267	0	0	0	17096	15840	158185	27164	947740	36458	106197	0	0	8126	796261	0	0
2024-04-13 01:58:32			0	33250	0	0	0	17075	15830	158225	27053	947645	36448	106189	0	0	8125	797182	0	0
2024-04-13 01:59:32			0	33253	0	0	0	17070	15830	158313	27059	947592	36448	106187	0	0	8125	797027	0	0
2024-04-13 02:00:32			0	33236	0	0	0	17075	15830	158241	26864	947558	36458	106189	0	0	8124	797906	0	0
2024-04-13 02:01:32			0	33246	0	0	0	17077	15830	158325	26935	947558	36458	106190	0	0	8125	797389	0	0
2024-04-13 02:02:32			0	33250	0	0	0	17090	15820	158373	27159	947655	36467	106195	0	0	8125	797225	0	0
2024-04-13 02:03:32			0	33240	0	0	0	17109	15810	158313	27142	947639	36457	106202	0	0	8124	797785	0	0
2024-04-13 02:04:32			0	33254	0	0	0	17103	15820	158329	27137	947629	36457	106200	0	0	8125	797019	0	0
2024-04-13 02:05:32			0	33253	0	0	0	17111	15810	158317	26715	947639	36457	106203	0	0	8125	797113	0	0
2024-04-13 02:06:32			0	33244	0	0	0	17137	15810	158329	27071	947631	36456	106213	0	0	8124	797578	0	0
2024-04-13 02:07:32			0	33230	0	0	0	17137	15820	158489	27185	947647	36467	106213	0	0	8123	798260	0	0
2024-04-13 02:08:32			0	33218	0	0	0	17161	15820	158489	26956	947708	36467	106222	0	0	8122	798881	0	0
2024-04-13 02:09:32			0	33177	0	0	0	17161	15830	158549	27282	947724	36458	106222	0	0	8119	800963	0	0
2024-04-13 02:10:32			0	33173	0	0	0	17199	15840	158801	27329	947872	36458	106237	0	0	8119	801127	0	0
2024-04-13 02:11:32			0	33141	0	0	0	17667	15880	159025	26948	948289	36505	106417	0	0	8109	802616	0	0
2024-04-13 02:12:32			0	33101	0	0	0	17820	15940	159397	27235	948676	36532	106476	0	0	8104	804436	0	0
2024-04-13 02:13:32			0	33020	0	0	0	17898	16000	159757	27130	949115	36547	106506	0	0	8098	808401	0	0
2024-04-13 02:14:32			0	32963	0	0	0	17950	16060	159981	27215	949431	36575	106526	0	0	8094	811122	0	0
2024-04-13 02:15:32			0	32925	0	0	0	18002	16140	160205	27260	949764	36581	106546	0	0	8091	812765	0	0
2024-04-13 02:16:32			0	32882	0	0	0	18018	16190	160237	27218	949924	36585	106552	0	0	8089	814806	0	0
2024-04-13 02:17:32			0	32884	0	0	0	18023	16250	160165	27293	950127	36580	106554	0	0	8089	814436	0	0
2024-04-13 02:18:32			0	32885	0	0	0	18031	16280	160137	27319	950228	36593	106557	0	0	8089	814252	0	0
2024-04-13 02:19:32			0	32882	0	0	0	18049	16330	160117	27630	950353	36586	106564	0	0	8089	814190	0	0
2024-04-13 02:20:32			0	32900	0	0	0	18041	16370	159953	27090	950444	36600	106561	0	0	8090	813068	0	0
2024-04-13 02:21:32			0	32886	0	0	0	18033	16400	159909	27161	950572	36614	106558	0	0	8090	813671	0	0
2024-04-13 02:22:32			0	32893	0	0	0	18033	16440	159845	27102	950611	36595	106558	0	0	8090	813128	0	0
2024-04-13 02:23:32			0	32879	0	0	0	18031	16470	159805	27528	950677	36608	106557	0	0	8090	813731	0	0
2024-04-13 02:24:32			0	32871	0	0	0	18036	16490	159929	27218	950736	36610	106559	0	0	8089	814064	0	0
2024-04-13 02:25:32			0	32857	0	0	0	18044	16510	159905	27178	950822	36601	106562	0	0	8088	814711	0	0
2024-04-13 02:26:32			0	32855	0	0	0	18044	16530	159937	26974	950801	36602	106562	0	0	8088	814728	0	0
2024-04-13 02:27:32			0	32819	0	0	0	18031	16530	159993	27064	950809	36614	106557	0	0	8086	816623	0	0
2024-04-13 02:28:32			0	32817	0	0	0	18015	16560	160021	27234	950876	36605	106551	0	0	8087	816596	0	0
2024-04-13 02:29:32			0	32821	0	0	0	17997	16560	159973	27156	950858	36594	106544	0	0	8087	816385	0	0
2024-04-13 02:30:32			0	32805	0	0	0	17997	16580	160073	27012	950917	36607	106544	0	0	8086	817140	0	0
2024-04-13 02:31:32			0	32786	0	0	0	18038	16590	160053	26963	950872	36597	106560	0	0	8084	818098	0	0
2024-04-13 02:32:32			0	32778	0	0	0	18057	16590	160045	26883	950906	36608	106567	0	0	8084	818520	0	0
2024-04-13 02:33:32			0	32754	0	0	0	18064	16610	160084	27218	950992	36598	106570	0	0	8082	819699	0	0
2024-04-13 02:34:32			0	32789	0	0	0	18077	16620	160145	27234	951034	36610	106575	0	0	8084	817807	0	0
2024-04-13 02:35:32			0	32802	0	0	0	18075	16630	160025	27308	951077	36611	106574	0	0	8085	817077	0	0
2024-04-13 02:36:32			0	32831	0	0	0	18067	16640	159801	27173	951138	36623	106571	0	0	8087	815506	0	0
2024-04-13 02:37:32			0	32871	0	0	0	18075	16650	159621	27237	951162	36613	106574	0	0	8089	813359	0	0
2024-04-13 02:38:32			0	32907	0	0	0	18083	16660	159373	27306	951178	36614	106577	0	0	8091	811426	0	0
2024-04-13 02:39:32			0	32948	0	0	0	18116	16670	159173	27112	951213	36625	106590	0	0	8093	809236	0	0
2024-04-13 02:40:32			0	33004	0	0	0	18116	16690	159025	27109	951272	36616	106590	0	0	8097	806225	0	0
2024-04-13 02:41:32			0	33017	0	0	0	18116	16700	158921	27196	951288	36617	106590	0	0	8098	805505	0	0
2024-04-13 02:42:32			0	33063	0	0	0	18111	16700	158613	27322	951296	36628	106588	0	0	8101	803112	0	0
2024-04-13 02:43:32			0	33086	0	0	0	18122	16710	158513	27371	951339	36628	106592	0	0	8102	801874	0	0
2024-04-13 02:44:32			0	33132	0	0	0	18119	16710	158381	27467	951304	36628	106591	0	0	8105	799490	0	0
2024-04-13 02:45:32			0	33154	0	0	0	18119	16730	158213	27260	951363	36620	106591	0	0	8106	798265	0	0
2024-04-13 02:46:32			0	33177	0	0	0	18124	16730	158009	27265	951442	36630	106593	0	0	8107	797077	0	0
2024-04-13 02:47:32			0	33221	0	0	0	18116	16730	157917	27083	951450	36620	106590	0	0	8110	794808	0	0
2024-04-13 02:48:32			0	33251	0	0	0	18122	16750	157785	27076	951396	36622	106592	0	0	8112	793178	0	0
2024-04-13 02:49:32			0	33237	0	0	0	18114	16760	157677	27435	951457	36632	106589	0	0	8111	793855	0	0
2024-04-13 02:50:32			0	33267	0	0	0	18109	16760	157621	27147	951351	36632	106587	0	0	8113	792313	0	0
2024-04-13 02:51:32			0	33289	0	0	0	18109	16760	157541	27246	951430	36622	106587	0	0	8115	791183	0	0
2024-04-13 02:52:32			0	33302	0	0	0	18109	16760	157553	27093	951438	36632	106587	0	0	8115	790516	0	0
2024-04-13 02:53:32			0	33301	0	0	0	18129	16760	157381	27256	951457	36632	106595	0	0	8115	790568	0	0
2024-04-13 02:54:32			0	33327	0	0	0	18142	16770	157385	26870	951473	36611	106600	0	0	8116	789192	0	0
2024-04-13 02:55:32			0	33347	0	0	0	18140	16780	157269	27282	951515	36613	106599	0	0	8118	788126	0	0
2024-04-13 02:56:32			0	33354	0	0	0	18140	16780	157313	27138	951550	36624	106599	0	0	8118	787768	0	0
2024-04-13 02:57:32			0	33372	0	0	0	18140	16780	157213	26996	951550	36624	106599	0	0	8119	786848	0	0
2024-04-13 02:58:32			0	33377	0	0	0	18142	16780	157177	27168	951523	36634	106600	0	0	8119	786593	0	0
2024-04-13 02:59:32			0	33391	0	0	0	18135	16790	157065	27000	951558	36613	106597	0	0	8120	785835	0	0
2024-04-13 03:00:32			0	33402	0	0	0	18135	16790	156985	27293	951592	36625	106597	0	0	8121	785274	0	0
2024-04-13 03:01:32			0	33412	0	0	0	18127	16790	156861	27620	951513	36614	106594	0	0	8122	784764	0	0
2024-04-13 03:02:32			0	33415	0	0	0	18122	16800	156865	26949	951600	36625	106592	0	0	8122	784569	0	0
2024-04-13 03:03:32			0	33426	0	0	0	18116	16800	156913	27105	951548	36625	106590	0	0	8123	784009	0	0
2024-04-13 03:04:32			0	33423	0	0	0	18114	16790	156761	27189	951566	36625	106589	0	0	8123	784204	0	0
2024-04-13 03:05:32			0	33435	0	0	0	18129	16800	156785	27159	951627	36625	106595	0	0	8123	783550	0	0
2024-04-13 03:06:32			0	33431	0	0	0	18122	16800	156817	27441	951574	36647	106592	0	0	8123	783754	0	0
2024-04-13 03:07:32			0	33443	0	0	0	18119	16800	156777	27348	951609	36625	106591	0	0	8124	783143	0	0
2024-04-13 03:08:32			0	33437	0	0	0	18119	16800	156745	27268	951548	36636	106591	0	0	8123	783448	0	0
2024-04-13 03:09:32			0	33432	0	0	0	18111	16790	156765	27119	951540	36625	106588	0	0	8123	783745	0	0
2024-04-13 03:10:32			0	33445	0	0	0	18098	16800	156873	27046	951556	36625	106583	0	0	8124	783041	0	0
2024-04-13 03:11:32			0	33438	0	0	0	18085	16800	156777	27104	951556	36636	106578	0	0	8124	783397	0	0
2024-04-13 03:12:32			0	33424	0	0	0	18057	16790	156745	27178	951540	36625	106567	0	0	8124	784153	0	0
2024-04-13 03:13:32			0	33415	0	0	0	18031	16800	156821	27294	951582	36614	106557	0	0	8124	784569	0	0
2024-04-13 03:14:32			0	33449	0	0	0	17989	16800	156765	27204	951469	36614	106541	0	0	8126	782838	0	0
2024-04-13 03:15:32			0	33468	0	0	0	18038	16790	156589	27308	951452	36624	106560	0	0	8127	781914	0	0
2024-04-13 03:16:32			0	33455	0	0	0	18049	16790	156653	27313	951460	36625	106564	0	0	8126	782575	0	0
2024-04-13 03:17:32			0	33472	0	0	0	18049	16780	156657	27296	951489	36624	106564	0	0	8127	781753	0	0
2024-04-13 03:18:32			0	33459	0	0	0	18057	16770	156597	27105	951394	36622	106567	0	0	8126	782456	0	0
2024-04-13 03:19:32			0	33428	0	0	0	18067	16780	156753	26989	951436	36624	106571	0	0	8124	783991	0	0
2024-04-13 03:20:32			0	33401	0	0	0	18090	16780	156933	27081	951463	36624	106580	0	0	8122	785368	0	0
2024-04-13 03:21:32			0	33360	0	0	0	18098	16780	157137	27417	951444	36645	106583	0	0	8119	787461	0	0
2024-04-13 03:22:32			0	33319	0	0	0	18098	16770	157329	27293	951428	36623	106583	0	0	8117	789602	0	0
2024-04-13 03:23:32			0	33286	0	0	0	18090	16770	157433	27166	951507	36623	106580	0	0	8115	791294	0	0
2024-04-13 03:24:32			0	33289	0	0	0	18072	16770	157541	27336	951507	36623	106573	0	0	8115	791140	0	0
2024-04-13 03:25:32			0	33299	0	0	0	18070	16780	157561	27434	951489	36624	106572	0	0	8116	790584	0	0
2024-04-13 03:26:32			0	33293	0	0	0	18059	16770	157529	27248	951446	36622	106568	0	0	8116	790935	0	0
2024-04-13 03:27:32			0	33291	0	0	0	18067	16770	157557	26951	951473	36611	106571	0	0	8115	791038	0	0
2024-04-13 03:28:32			0	33287	0	0	0	18054	16760	157481	27265	951438	36632	106566	0	0	8115	791286	0	0
2024-04-13 03:29:32			0	33276	0	0	0	18059	16770	157493	27178	951446	36632	106568	0	0	8115	791808	0	0
2024-04-13 03:30:32			0	33283	0	0	0	18064	16770	157525	27202	951473	36622	106570	0	0	8115	791448	0	0
2024-04-13 03:31:32			0	33265	0	0	0	18051	16770	157561	27303	951420	36611	106565	0	0	8114	792373	0	0
2024-04-13 03:32:32			0	33267	0	0	0	18038	16760	157621	27003	951438	36632	106560	0	0	8114	792313	0	0
2024-04-13 03:33:32			0	33269	0	0	0	18023	16760	157557	27263	951359	36622	106554	0	0	8115	792210	0	0
2024-04-13 03:34:32			0	33274	0	0	0	18020	16760	157545	27365	951351	36610	106553	0	0	8115	791953	0	0
2024-04-13 03:35:32			0	33278	0	0	0	18023	16750	157537	27530	951343	36632	106554	0	0	8115	791791	0	0
2024-04-13 03:36:32			0	33295	0	0	0	18018	16750	157585	27147	951343	36622	106552	0	0	8116	790918	0	0
2024-04-13 03:37:32			0	33306	0	0	0	18018	16740	157569	27190	951326	36630	106552	0	0	8117	790397	0	0
2024-04-13 03:38:32			0	33312	0	0	0	18012	16740	157477	27031	951353	36620	106550	0	0	8118	790089	0	0
2024-04-13 03:39:32			0	33324	0	0	0	18015	16730	157437	27445	951266	36620	106551	0	0	8118	789517	0	0
2024-04-13 03:40:32			0	33332	0	0	0	18031	16730	157325	27300	951318	36630	106557	0	0	8118	789107	0	0
2024-04-13 03:41:32			0	33325	0	0	0	18038	16730	157393	27036	951345	36620	106560	0	0	8118	789466	0	0
2024-04-13 03:42:32			0	33316	0	0	0	18049	16750	157493	27222	951308	36642	106564	0	0	8117	789841	0	0
2024-04-13 03:43:32			0	33284	0	0	0	18057	16750	157605	27305	951422	36610	106567	0	0	8115	791483	0	0
2024-04-13 03:44:32			0	33238	0	0	0	18059	16750	157821	27298	951396	36632	106568	0	0	8112	793847	0	0
2024-04-13 03:45:32			0	33177	0	0	0	18057	16740	157953	27173	951326	36620	106567	0	0	8109	797034	0	0
2024-04-13 03:46:32			0	33172	0	0	0	18062	16740	158029	27381	951379	36620	106569	0	0	8108	797292	0	0
2024-04-13 03:47:32			0	33169	0	0	0	18057	16740	158053	27239	951353	36620	106567	0	0	8108	797447	0	0
2024-04-13 03:48:32			0	33188	0	0	0	18064	16750	158009	27173	951396	36632	106570	0	0	8109	796423	0	0
2024-04-13 03:49:32			0	33173	0	0	0	18062	16740	158041	27178	951353	36630	106569	0	0	8108	797241	0	0
2024-04-13 03:50:32			0	33196	0	0	0	18067	16750	157981	27377	951388	36621	106571	0	0	8110	796011	0	0
2024-04-13 03:51:32			0	33187	0	0	0	18067	16750	157945	27466	951440	36631	106571	0	0	8109	796475	0	0
2024-04-13 03:52:32			0	33223	0	0	0	18062	16760	157865	27588	951404	36643	106569	0	0	8111	794576	0	0
2024-04-13 03:53:32			0	33229	0	0	0	18051	16750	157797	27220	951369	36632	106565	0	0	8112	794310	0	0
2024-04-13 03:54:32			0	33249	0	0	0	18046	16750	157773	27249	951369	36622	106563	0	0	8113	793281	0	0
2024-04-13 03:55:32			0	33262	0	0	0	18049	16740	157649	27114	951326	36620	106564	0	0	8114	792656	0	0
2024-04-13 03:56:32			0	33296	0	0	0	18049	16730	157605	27312	951292	36620	106564	0	0	8116	790952	0	0
2024-04-13 03:57:32			0	33309	0	0	0	18036	16730	157429	27102	951292	36620	106559	0	0	8117	790286	0	0
2024-04-13 03:58:32			0	33331	0	0	0	18015	16730	157321	27227	951284	36630	106551	0	0	8119	789158	0	0
2024-04-13 03:59:32			0	33344	0	0	0	18015	16720	157157	27298	951276	36619	106551	0	0	8119	788536	0	0
2024-04-13 04:00:32			0	33369	0	0	0	17997	16720	157121	27355	951276	36608	106544	0	0	8121	787257	0	0
2024-04-13 04:01:32			0	33360	0	0	0	17994	16720	157105	27388	951276	36619	106543	0	0	8121	787717	0	0
2024-04-13 04:02:32			0	33377	0	0	0	17984	16710	157025	27107	951233	36618	106539	0	0	8122	786891	0	0
2024-04-13 04:03:32			0	33386	0	0	0	17971	16710	156965	27327	951207	36618	106534	0	0	8122	786431	0	0
2024-04-13 04:04:32			0	33410	0	0	0	17986	16700	156917	27092	951112	36639	106540	0	0	8124	785249	0	0
2024-04-13 04:05:32			0	33449	0	0	0	17971	16700	156793	27020	951156	36606	106534	0	0	8126	783262	0	0
2024-04-13 04:06:32			0	33462	0	0	0	17968	16700	156653	26840	951130	36617	106533	0	0	8127	782600	0	0
2024-04-13 04:07:32			0	33472	0	0	0	17961	16680	156617	27230	951132	36616	106530	0	0	8128	782177	0	0
2024-04-13 04:08:32			0	33457	0	0	0	17953	16680	156657	27081	951026	36616	106527	0	0	8127	782940	0	0
2024-04-13 04:09:32			0	33472	0	0	0	17961	16680	156757	27301	951018	36615	106530	0	0	8128	782177	0	0
2024-04-13 04:10:32			0	33429	0	0	0	17971	16670	156741	27654	951063	36615	106534	0	0	8125	784408	0	0
2024-04-13 04:11:32			0	33416	0	0	0	17974	16670	156837	27374	951063	36625	106535	0	0	8124	785071	0	0
2024-04-13 04:12:32			0	33413	0	0	0	17953	16670	156905	26894	951063	36615	106527	0	0	8124	785224	0	0
2024-04-13 04:13:32			0	33362	0	0	0	17950	16660	157021	27156	951020	36625	106526	0	0	8121	787871	0	0
2024-04-13 04:14:32			0	33364	0	0	0	17955	16670	157161	27310	951028	36625	106528	0	0	8121	787726	0	0
2024-04-13 04:15:32			0	33321	0	0	0	17955	16660	157409	27246	951012	36625	106528	0	0	8119	789970	0	0
2024-04-13 04:16:32			0	33286	0	0	0	17974	16660	157493	27772	951012	36613	106535	0	0	8116	791766	0	0
2024-04-13 04:17:32			0	33264	0	0	0	17966	16650	157737	27528	951004	36613	106532	0	0	8115	792939	0	0
2024-04-13 04:18:32			0	33234	0	0	0	17968	16660	157793	27357	951012	36625	106533	0	0	8113	794440	0	0
2024-04-13 04:19:32			0	33201	0	0	0	17979	16660	157949	27126	951046	36625	106537	0	0	8111	796140	0	0
2024-04-13 04:20:32			0	33197	0	0	0	17992	16650	157901	27524	950996	36624	106542	0	0	8111	796390	0	0
2024-04-13 04:21:32			0	33200	0	0	0	17994	16660	158117	27024	951012	36613	106543	0	0	8111	796192	0	0
2024-04-13 04:22:32			0	33184	0	0	0	17997	16660	158085	27213	951065	36635	106544	0	0	8110	797018	0	0
2024-04-13 04:23:32			0	33216	0	0	0	17999	16670	158057	27284	951081	36614	106545	0	0	8112	795324	0	0
2024-04-13 04:24:32			0	33205	0	0	0	18007	16660	157949	27291	951091	36635	106548	0	0	8111	795934	0	0
2024-04-13 04:25:32			0	33234	0	0	0	18007	16670	157773	27060	951107	36614	106548	0	0	8113	794397	0	0
2024-04-13 04:26:32			0	33241	0	0	0	18002	16670	157717	27364	951081	36636	106546	0	0	8113	794036	0	0
2024-04-13 04:27:32			0	33305	0	0	0	17997	16670	157501	27282	951116	36625	106544	0	0	8117	790748	0	0
2024-04-13 04:28:32			0	33335	0	0	0	17989	16670	157269	27235	951116	36636	106541	0	0	8119	789210	0	0
2024-04-13 04:29:32			0	33389	0	0	0	17971	16670	157085	27175	951116	36636	106534	0	0	8122	786448	0	0
2024-04-13 04:30:32			0	33418	0	0	0	17971	16670	156797	27407	951028	36636	106534	0	0	8124	784969	0	0
2024-04-13 04:31:32			0	33454	0	0	0	17971	16660	156761	27315	951065	36613	106534	0	0	8126	783177	0	0
2024-04-13 04:32:32			0	33465	0	0	0	17953	16670	156621	27319	951028	36625	106527	0	0	8127	782575	0	0
2024-04-13 04:33:32			0	33475	0	0	0	17948	16650	156613	27457	951004	36624	106525	0	0	8128	782151	0	0
2024-04-13 04:34:32			0	33477	0	0	0	17935	16650	156577	27706	951030	36613	106520	0	0	8128	782049	0	0
2024-04-13 04:35:32			0	33473	0	0	0	17927	16660	156545	27490	950986	36613	106517	0	0	8128	782211	0	0
2024-04-13 04:36:32			0	33472	0	0	0	17922	16650	156597	27490	950943	36624	106515	0	0	8128	782304	0	0
2024-04-13 04:37:32			0	33455	0	0	0	17924	16650	156621	27267	950943	36613	106516	0	0	8127	783168	0	0
2024-04-13 04:38:32			0	33434	0	0	0	17919	16640	156705	27222	950848	36623	106514	0	0	8126	784281	0	0
2024-04-13 04:39:32			0	33444	0	0	0	17906	16630	156649	27350	950866	36622	106509	0	0	8127	783813	0	0
2024-04-13 04:40:32			0	33440	0	0	0	17903	16620	156677	27178	950868	36621	106508	0	0	8126	784060	0	0
2024-04-13 04:41:32			0	33445	0	0	0	17914	16620	156801	27093	950815	36610	106512	0	0	8127	783805	0	0
2024-04-13 04:42:32			0	33422	0	0	0	17914	16610	156701	27178	950833	36621	106512	0	0	8125	785019	0	0
2024-04-13 04:43:32			0	33418	0	0	0	17903	16610	156825	27223	950860	36631	106508	0	0	8125	785224	0	0
2024-04-13 04:44:32			0	33395	0	0	0	17914	16620	156845	27326	950868	36610	106512	0	0	8124	786355	0	0
2024-04-13 04:45:32			0	33415	0	0	0	17909	16610	156869	27467	950799	36621	106510	0	0	8125	785376	0	0
2024-04-13 04:46:32			0	33398	0	0	0	17914	16600	156945	27550	950791	36609	106512	0	0	8124	786287	0	0
2024-04-13 04:47:32			0	33410	0	0	0	17909	16600	156833	27300	950783	36620	106510	0	0	8124	785674	0	0
2024-04-13 04:48:32			0	33401	0	0	0	17903	16600	156925	27400	950791	36609	106508	0	0	8124	786134	0	0
2024-04-13 04:49:32			0	33404	0	0	0	17903	16600	156933	27135	950783	36609	106508	0	0	8124	785980	0	0
2024-04-13 04:50:32			0	33384	0	0	0	17903	16600	156997	27105	950783	36630	106508	0	0	8123	787002	0	0
2024-04-13 04:51:32			0	33393	0	0	0	17901	16600	156977	27248	950809	36620	106507	0	0	8124	786542	0	0
2024-04-13 04:52:32			0	33367	0	0	0	17901	16590	156973	27431	950801	36608	106507	0	0	8122	787914	0	0
2024-04-13 04:53:32			0	33393	0	0	0	17890	16600	156945	27275	950756	36620	106503	0	0	8124	786542	0	0
2024-04-13 04:54:32			0	33402	0	0	0	17890	16590	157025	27078	950793	36619	106503	0	0	8124	786125	0	0
2024-04-13 04:55:32			0	33382	0	0	0	17893	16590	157077	27357	950740	36619	106504	0	0	8123	787147	0	0
2024-04-13 04:56:32			0	33378	0	0	0	17896	16580	157097	27505	950732	36628	106505	0	0	8123	787394	0	0
2024-04-13 04:57:32			0	33376	0	0	0	17890	16590	157061	27409	950740	36619	106503	0	0	8123	787453	0	0
2024-04-13 04:58:32			0	33388	0	0	0	17890	16590	157045	27263	950740	36619	106503	0	0	8123	786840	0	0
2024-04-13 04:59:32			0	33398	0	0	0	17896	16590	157089	27190	950767	36619	106505	0	0	8124	786329	0	0
2024-04-13 05:00:32			0	33399	0	0	0	17890	16580	157069	27254	950679	36628	106503	0	0	8124	786321	0	0
2024-04-13 05:01:32			0	33395	0	0	0	17893	16580	156989	27357	950698	36606	106504	0	0	8124	786525	0	0
2024-04-13 05:02:32			0	33373	0	0	0	17888	16570	157073	27267	950742	36617	106502	0	0	8122	787692	0	0
2024-04-13 05:03:32			0	33377	0	0	0	17883	16580	157081	27345	950750	36617	106500	0	0	8123	787445	0	0
2024-04-13 05:04:32			0	33406	0	0	0	17883	16570	157173	27041	950690	36617	106500	0	0	8124	786006	0	0
2024-04-13 05:05:32			0	33383	0	0	0	17883	16570	157045	26955	950690	36606	106500	0	0	8123	787181	0	0
2024-04-13 05:06:32			0	33378	0	0	0	17877	16570	157065	27282	950690	36606	106498	0	0	8123	787437	0	0
2024-04-13 05:07:32			0	33387	0	0	0	17880	16570	157025	27289	950681	36617	106499	0	0	8123	786976	0	0
2024-04-13 05:08:32			0	33380	0	0	0	17867	16580	157013	27393	950698	36595	106494	0	0	8123	787291	0	0
2024-04-13 05:09:32			0	33378	0	0	0	17867	16560	157181	27142	950692	36616	106494	0	0	8123	787479	0	0
2024-04-13 05:10:32			0	33380	0	0	0	17870	16570	157049	27204	950681	36617	106495	0	0	8123	787334	0	0
2024-04-13 05:11:32			0	33401	0	0	0	17870	16560	157005	27000	950673	36617	106495	0	0	8124	786304	0	0
2024-04-13 05:12:32			0	33424	0	0	0	17864	16560	156925	27429	950692	36605	106493	0	0	8126	785130	0	0
2024-04-13 05:13:32			0	33412	0	0	0	17864	16550	156825	27355	950631	36626	106493	0	0	8125	785785	0	0
2024-04-13 05:14:32			0	33430	0	0	0	17870	16560	156861	27435	950665	36616	106495	0	0	8126	784824	0	0
2024-04-13 05:15:32			0	33422	0	0	0	17872	16560	156897	27133	950665	36616	106496	0	0	8126	785232	0	0
2024-04-13 05:16:32			0	33429	0	0	0	17864	16550	156869	27493	950657	36616	106493	0	0	8126	784917	0	0
2024-04-13 05:17:32			0	33417	0	0	0	17875	16540	156953	27294	950615	36615	106497	0	0	8125	785572	0	0
2024-04-13 05:18:32			0	33421	0	0	0	17883	16550	156905	27450	950604	36605	106500	0	0	8125	785325	0	0
2024-04-13 05:19:32			0	33422	0	0	0	17877	16550	156921	27497	950675	36615	106498	0	0	8125	785274	0	0
2024-04-13 05:20:32			0	33411	0	0	0	17875	16560	156845	27386	950665	36626	106497	0	0	8125	785793	0	0
2024-04-13 05:21:32			0	33412	0	0	0	17877	16540	156869	27239	950633	36614	106498	0	0	8125	785827	0	0
2024-04-13 05:22:32			0	33424	0	0	0	17888	16550	156969	27206	950596	36615	106502	0	0	8125	785172	0	0
2024-04-13 05:23:32			0	33405	0	0	0	17890	16550	157017	27107	950631	36626	106503	0	0	8124	786142	0	0
2024-04-13 05:24:32			0	33395	0	0	0	17885	16550	157033	27227	950649	36636	106501	0	0	8124	786653	0	0
2024-04-13 05:25:32			0	33401	0	0	0	17888	16550	156969	27493	950675	36615	106502	0	0	8124	786346	0	0
2024-04-13 05:26:32			0	33402	0	0	0	17872	16550	157049	27459	950649	36615	106496	0	0	8124	786295	0	0
2024-04-13 05:27:32			0	33389	0	0	0	17875	16540	157005	27255	950615	36615	106497	0	0	8123	787002	0	0
2024-04-13 05:28:32			0	33410	0	0	0	17859	16540	157033	27351	950588	36615	106491	0	0	8125	785929	0	0
2024-04-13 05:29:32			0	33399	0	0	0	17857	16550	157093	27206	950675	36604	106490	0	0	8124	786449	0	0
2024-04-13 05:30:32			0	33377	0	0	0	17846	16550	157041	27369	950604	36626	106486	0	0	8123	787573	0	0
2024-04-13 05:31:32			0	33398	0	0	0	17841	16540	157017	27199	950633	36635	106484	0	0	8125	786542	0	0
2024-04-13 05:32:32			0	33377	0	0	0	17844	16530	157001	27343	950617	36613	106485	0	0	8123	787658	0	0
2024-04-13 05:33:32			0	33412	0	0	0	17838	16540	156941	27281	950641	36625	106483	0	0	8125	785827	0	0
2024-04-13 05:34:32			0	33400	0	0	0	17831	16530	156853	27319	950538	36624	106480	0	0	8125	786482	0	0
2024-04-13 05:35:32			0	33402	0	0	0	17831	16540	156929	27128	950527	36614	106480	0	0	8125	786338	0	0
2024-04-13 05:36:32			0	33406	0	0	0	17810	16520	156909	27518	950503	36613	106472	0	0	8125	786219	0	0
2024-04-13 05:37:32			0	33421	0	0	0	17823	16520	156909	27377	950548	36612	106477	0	0	8126	785453	0	0
2024-04-13 05:38:32			0	33382	0	0	0	17818	16520	156877	27587	950503	36613	106475	0	0	8124	787445	0	0
2024-04-13 05:39:32			0	33413	0	0	0	17823	16510	156845	27322	950434	36612	106477	0	0	8126	785904	0	0
2024-04-13 05:40:32			0	33418	0	0	0	17820	16520	156925	27215	950477	36624	106476	0	0	8126	785606	0	0
2024-04-13 05:41:32			0	33423	0	0	0	17815	16520	156881	27215	950416	36624	106474	0	0	8126	785351	0	0
2024-04-13 05:42:32			0	33444	0	0	0	17820	16510	156769	27568	950453	36633	106476	0	0	8127	784322	0	0
2024-04-13 05:43:32			0	33457	0	0	0	17815	16500	156737	27507	950497	36623	106474	0	0	8128	783703	0	0
2024-04-13 05:44:32			0	33462	0	0	0	17825	16510	156757	27483	950453	36633	106478	0	0	8128	783405	0	0
2024-04-13 05:45:32			0	33479	0	0	0	17820	16520	156729	27400	950469	36624	106476	0	0	8130	782498	0	0
2024-04-13 05:46:32			0	33485	0	0	0	17820	16510	156729	27353	950513	36612	106476	0	0	8130	782235	0	0
2024-04-13 05:47:32			0	33492	0	0	0	17823	16510	156633	27305	950532	36601	106477	0	0	8130	781879	0	0
2024-04-13 05:48:32			0	33495	0	0	0	17823	16510	156557	27414	950461	36612	106477	0	0	8130	781727	0	0
2024-04-13 05:49:32			0	33519	0	0	0	17818	16510	156453	27222	950408	36601	106475	0	0	8132	780508	0	0
2024-04-13 05:50:32			0	33522	0	0	0	17810	16500	156501	27282	950418	36623	106472	0	0	8132	780398	0	0
2024-04-13 05:51:32			0	33519	0	0	0	17815	16510	156493	27078	950505	36612	106474	0	0	8132	780508	0	0
2024-04-13 05:52:32			0	33517	0	0	0	17810	16500	156373	27248	950436	36622	106472	0	0	8132	780652	0	0
2024-04-13 05:53:32			0	33530	0	0	0	17805	16500	156445	27464	950384	36622	106470	0	0	8133	779992	0	0
2024-04-13 05:54:32			0	33548	0	0	0	17807	16490	156293	27535	950375	36621	106471	0	0	8134	779121	0	0
2024-04-13 05:55:32			0	33553	0	0	0	17812	16500	156253	27279	950515	36611	106473	0	0	8134	778825	0	0
2024-04-13 05:56:32			0	33565	0	0	0	17807	16480	156229	27209	950412	36610	106471	0	0	8135	778302	0	0
2024-04-13 05:57:32			0	33587	0	0	0	17799	16490	156166	27519	950402	36610	106468	0	0	8136	777146	0	0
2024-04-13 05:58:32			0	33607	0	0	0	17810	16490	156050	27319	950525	36631	106472	0	0	8137	776135	0	0
2024-04-13 05:59:32			0	33630	0	0	0	17802	16480	156058	27409	950491	36621	106469	0	0	8139	775015	0	0
2024-04-13 06:00:32			0	33638	0	0	0	17799	16490	155834	27507	950420	36621	106468	0	0	8139	774570	0	0
2024-04-13 06:01:32			0	33651	0	0	0	17805	16490	155826	27204	950393	36621	106470	0	0	8140	773914	0	0
2024-04-13 06:02:32			0	33648	0	0	0	17805	16490	155818	27590	950375	36610	106470	0	0	8140	774065	0	0
2024-04-13 06:03:32			0	33652	0	0	0	17794	16490	155738	27104	950393	36610	106466	0	0	8140	773863	0	0
2024-04-13 06:04:32			0	33658	0	0	0	17799	16480	155782	27362	950351	36609	106468	0	0	8140	773603	0	0
2024-04-13 06:05:32			0	33684	0	0	0	17792	16490	155674	27312	950375	36621	106465	0	0	8142	772252	0	0
2024-04-13 06:06:32			0	33673	0	0	0	17794	16480	155766	27422	950412	36610	106466	0	0	8141	772847	0	0
2024-04-13 06:07:32			0	33676	0	0	0	17784	16490	155694	27190	950393	36610	106462	0	0	8142	772654	0	0
2024-04-13 06:08:32			0	33693	0	0	0	17789	16480	155646	27367	950465	36631	106464	0	0	8143	771840	0	0
2024-04-13 06:09:32			0	33681	0	0	0	17781	16480	155682	27459	950325	36598	106461	0	0	8142	772444	0	0
2024-04-13 06:10:32			0	33706	0	0	0	17781	16470	155550	27367	950264	36608	106461	0	0	8143	771228	0	0
2024-04-13 06:11:32			0	33695	0	0	0	17784	16470	155574	27476	950361	36619	106462	0	0	8143	771782	0	0
2024-04-13 06:12:32			0	33709	0	0	0	17781	16480	155562	27150	950298	36620	106461	0	0	8144	771036	0	0
2024-04-13 06:13:32			0	33718	0	0	0	17781	16480	155538	27452	950333	36610	106461	0	0	8144	770583	0	0
2024-04-13 06:14:32			0	33704	0	0	0	17781	16480	155622	27171	950377	36609	106461	0	0	8143	771287	0	0
2024-04-13 06:15:32			0	33725	0	0	0	17779	16470	155434	27225	950282	36608	106460	0	0	8145	770274	0	0
2024-04-13 06:16:32			0	33722	0	0	0	17774	16470	155478	27227	950256	36630	106458	0	0	8144	770424	0	0
2024-04-13 06:17:32			0	33723	0	0	0	17771	16470	155450	27374	950335	36608	106457	0	0	8145	770374	0	0
2024-04-13 06:18:32			0	33721	0	0	0	17776	16470	155418	27374	950308	36608	106459	0	0	8144	770474	0	0
2024-04-13 06:19:32			0	33744	0	0	0	17779	16470	155386	27467	950290	36619	106460	0	0	8146	769320	0	0
2024-04-13 06:20:32			0	33759	0	0	0	17768	16450	155198	27440	950284	36607	106456	0	0	8147	768651	0	0
2024-04-13 06:21:32			0	33769	0	0	0	17781	16470	155162	27533	950335	36608	106461	0	0	8147	768066	0	0
2024-04-13 06:22:32			0	33783	0	0	0	17771	16470	155050	27286	950308	36619	106457	0	0	8148	767365	0	0
2024-04-13 06:23:32			0	33768	0	0	0	17758	16460	155074	27258	950274	36608	106452	0	0	8147	768158	0	0
2024-04-13 06:24:32			0	33778	0	0	0	17771	16460	155142	27557	950300	36629	106457	0	0	8148	767657	0	0
2024-04-13 06:25:32			0	33782	0	0	0	17766	16470	155082	27282	950282	36619	106455	0	0	8148	767415	0	0
2024-04-13 06:26:32			0	33796	0	0	0	17758	16440	155130	26994	950250	36606	106452	0	0	8149	766838	0	0
2024-04-13 06:27:32			0	33760	0	0	0	17758	16460	155206	27540	950274	36608	106452	0	0	8147	768559	0	0
2024-04-13 06:28:32			0	33738	0	0	0	17763	16440	155290	27298	950197	36606	106454	0	0	8145	769746	0	0
2024-04-13 06:29:32			0	33714	0	0	0	17755	16450	155366	27422	950292	36596	106451	0	0	8144	770910	0	0
2024-04-13 06:30:32			0	33693	0	0	0	17753	16440	155502	27441	950250	36606	106450	0	0	8143	772007	0	0
2024-04-13 06:31:32			0	33676	0	0	0	17753	16450	155534	27892	950205	36607	106450	0	0	8142	772821	0	0
2024-04-13 06:32:32			0	33652	0	0	0	17745	16440	155686	27293	950197	36617	106447	0	0	8141	774073	0	0
2024-04-13 06:33:32			0	33654	0	0	0	17748	16430	155642	27362	950207	36606	106448	0	0	8141	774014	0	0
2024-04-13 06:34:32			0	33650	0	0	0	17745	16430	155654	27270	950154	36627	106447	0	0	8141	774215	0	0
2024-04-13 06:35:32			0	33648	0	0	0	17745	16440	155722	27412	950215	36617	106447	0	0	8140	774275	0	0
2024-04-13 06:36:32			0	33642	0	0	0	17750	16420	155810	27284	950165	36615	106449	0	0	8140	774661	0	0
2024-04-13 06:37:32			0	33651	0	0	0	17740	16430	155654	27403	950207	36617	106445	0	0	8141	774165	0	0
2024-04-13 06:38:32			0	33645	0	0	0	17740	16430	155766	27272	950173	36616	106445	0	0	8140	774468	0	0
2024-04-13 06:39:32			0	33627	0	0	0	17740	16430	155770	27448	950128	36617	106445	0	0	8139	775376	0	0
2024-04-13 06:40:32			0	33636	0	0	0	17735	16430	155762	27409	950173	36626	106443	0	0	8140	774922	0	0
2024-04-13 06:41:32			0	33629	0	0	0	17745	16420	155882	27459	950165	36593	106447	0	0	8139	775317	0	0
2024-04-13 06:42:32			0	33633	0	0	0	17732	16430	155962	27422	950173	36626	106442	0	0	8140	775073	0	0
2024-04-13 06:43:32			0	33611	0	0	0	17737	16420	155938	27405	950191	36593	106444	0	0	8138	776226	0	0
2024-04-13 06:44:32			0	33609	0	0	0	17735	16410	155862	27554	950175	36615	106443	0	0	8138	776370	0	0
2024-04-13 06:45:32			0	33608	0	0	0	17735	16420	155966	27410	950183	36604	106443	0	0	8138	776378	0	0
2024-04-13 06:46:32			0	33583	0	0	0	17732	16420	155910	27294	950191	36604	106442	0	0	8137	777643	0	0
2024-04-13 06:47:32			0	33587	0	0	0	17732	16410	155954	27242	950167	36615	106442	0	0	8137	777482	0	0
2024-04-13 06:48:32			0	33587	0	0	0	17729	16400	156034	27322	950159	36603	106441	0	0	8137	777524	0	0
2024-04-13 06:49:32			0	33588	0	0	0	17727	16400	156086	27468	950132	36603	106440	0	0	8137	777474	0	0
2024-04-13 06:50:32			0	33593	0	0	0	17724	16410	156046	27213	950114	36615	106439	0	0	8137	777179	0	0
2024-04-13 06:51:32			0	33571	0	0	0	17727	16410	156145	27279	950140	36615	106440	0	0	8136	778292	0	0
2024-04-13 06:52:32			0	33570	0	0	0	17724	16410	156121	27376	950167	36615	106439	0	0	8136	778343	0	0
2024-04-13 06:53:32			0	33567	0	0	0	17719	16400	156093	27223	950124	36614	106437	0	0	8136	778537	0	0
2024-04-13 06:54:32			0	33561	0	0	0	17727	16400	156173	27312	950132	36614	106440	0	0	8135	778841	0	0
2024-04-13 06:55:32			0	33570	0	0	0	17724	16410	156113	27185	950148	36626	106439	0	0	8136	778343	0	0
2024-04-13 06:56:32			0	33555	0	0	0	17732	16390	156081	27322	950142	36603	106442	0	0	8135	779187	0	0
2024-04-13 06:57:32			0	33559	0	0	0	17724	16400	156097	27249	950124	36625	106439	0	0	8135	778943	0	0
2024-04-13 06:58:32			0	33559	0	0	0	17732	16400	156186	27580	950080	36625	106442	0	0	8135	778943	0	0
2024-04-13 06:59:32			0	33561	0	0	0	17724	16400	156241	27507	950132	36603	106439	0	0	8136	778841	0	0
2024-04-13 07:00:32			0	33575	0	0	0	17719	16400	156182	27654	950080	36603	106437	0	0	8136	778132	0	0
2024-04-13 07:01:32			0	33561	0	0	0	17714	16410	156185	27343	950114	36604	106435	0	0	8136	778799	0	0
2024-04-13 07:02:32			0	33557	0	0	0	17714	16390	156153	27336	950063	36614	106435	0	0	8135	779086	0	0
2024-04-13 07:03:32			0	33556	0	0	0	17714	16400	156173	27381	950071	36625	106435	0	0	8135	779095	0	0
2024-04-13 07:04:32			0	33578	0	0	0	17716	16400	156070	27705	950098	36614	106436	0	0	8137	777980	0	0
2024-04-13 07:05:32			0	33581	0	0	0	17711	16390	155966	27268	950055	36613	106434	0	0	8137	777870	0	0
2024-04-13 07:06:32			0	33605	0	0	0	17706	16400	156014	27698	950071	36614	106432	0	0	8138	776614	0	0
2024-04-13 07:07:32			0	33599	0	0	0	17706	16400	155958	27403	950098	36603	106432	0	0	8138	776917	0	0
2024-04-13 07:08:32			0	33627	0	0	0	17703	16390	155850	27441	950063	36614	106431	0	0	8140	775544	0	0
2024-04-13 07:09:32			0	33633	0	0	0	17709	16380	155834	27303	949995	36612	106433	0	0	8140	775283	0	0
2024-04-13 07:10:32			0	33635	0	0	0	17703	16400	155822	27336	950071	36614	106431	0	0	8140	775098	0	0
2024-04-13 07:11:32			0	33626	0	0	0	17706	16380	155758	27150	950021	36633	106432	0	0	8140	775636	0	0
2024-04-13 07:12:32			0	33631	0	0	0	17709	16380	155826	27308	950039	36611	106433	0	0	8140	775384	0	0
2024-04-13 07:13:32			0	33644	0	0	0	17709	16380	155866	27528	950126	36601	106433	0	0	8141	774728	0	0
2024-04-13 07:14:32			0	33639	0	0	0	17711	16380	155710	27229	950074	36633	106434	0	0	8140	774980	0	0
2024-04-13 07:15:32			0	33650	0	0	0	17703	16380	155790	27071	950074	36601	106431	0	0	8141	774425	0	0
2024-04-13 07:16:32			0	33621	0	0	0	17706	16380	155886	27230	950066	36611	106432	0	0	8139	775889	0	0
2024-04-13 07:17:32			0	33636	0	0	0	17701	16390	155890	27140	950055	36602	106430	0	0	8140	775089	0	0
2024-04-13 07:18:32			0	33634	0	0	0	17706	16380	155878	27267	949934	36623	106432	0	0	8140	775232	0	0
2024-04-13 07:19:32			0	33615	0	0	0	17711	16390	155962	27334	950029	36613	106434	0	0	8139	776150	0	0
2024-04-13 07:20:32			0	33623	0	0	0	17711	16380	155902	27277	950047	36612	106434	0	0	8139	775788	0	0
2024-04-13 07:21:32			0	33606	0	0	0	17709	16380	155966	27371	949960	36611	106433	0	0	8138	776647	0	0
2024-04-13 07:22:32			0	33611	0	0	0	17701	16380	155938	27086	950021	36601	106430	0	0	8139	776394	0	0
2024-04-13 07:23:32			0	33608	0	0	0	17701	16380	155918	27334	950039	36611	106430	0	0	8139	776546	0	0
2024-04-13 07:24:32			0	33607	0	0	0	17703	16380	155814	27242	950047	36612	106431	0	0	8138	776597	0	0
2024-04-13 07:25:32			0	33624	0	0	0	17696	16380	155866	27265	950013	36600	106428	0	0	8140	775737	0	0
2024-04-13 07:26:32			0	33628	0	0	0	17688	16380	155914	27102	950074	36612	106425	0	0	8140	775535	0	0
2024-04-13 07:27:32			0	33627	0	0	0	17693	16380	155782	27277	950074	36623	106427	0	0	8140	775586	0	0
2024-04-13 07:28:32			0	33646	0	0	0	17690	16380	155798	27055	950047	36612	106426	0	0	8141	774627	0	0
2024-04-13 07:29:32			0	33656	0	0	0	17685	16380	155758	27265	950039	36623	106424	0	0	8142	774122	0	0
2024-04-13 07:30:32			0	33651	0	0	0	17688	16370	155738	27371	949944	36611	106425	0	0	8141	774416	0	0
2024-04-13 07:31:32			0	33639	0	0	0	17690	16370	155750	27376	949970	36611	106426	0	0	8141	775022	0	0
2024-04-13 07:32:32			0	33672	0	0	0	17688	16380	155806	27293	950013	36623	106425	0	0	8143	773315	0	0
2024-04-13 07:33:32			0	33635	0	0	0	17683	16360	155662	27183	950015	36611	106423	0	0	8140	775266	0	0
2024-04-13 07:34:32			0	33642	0	0	0	17696	16380	155734	27152	950039	36611	106428	0	0	8141	774829	0	0
2024-04-13 07:35:32			0	33643	0	0	0	17693	16380	155778	27706	949960	36600	106427	0	0	8141	774778	0	0
2024-04-13 07:36:32			0	33634	0	0	0	17685	16380	155878	27296	950013	36600	106424	0	0	8140	775232	0	0
2024-04-13 07:37:32			0	33608	0	0	0	17688	16370	155846	27187	949978	36611	106425	0	0	8139	776588	0	0
2024-04-13 07:38:32			0	33600	0	0	0	17693	16360	155926	27625	949909	36622	106427	0	0	8138	777035	0	0
2024-04-13 07:39:32			0	33595	0	0	0	17680	16370	155966	27479	949996	36611	106422	0	0	8138	777246	0	0
2024-04-13 07:40:32			0	33585	0	0	0	17685	16370	155958	27374	949891	36611	106424	0	0	8137	777752	0	0
2024-04-13 07:41:32			0	33580	0	0	0	17677	16370	156042	27620	950023	36623	106421	0	0	8137	778005	0	0
2024-04-13 07:42:32			0	33577	0	0	0	17675	16350	155978	27412	949919	36610	106420	0	0	8137	778241	0	0
2024-04-13 07:43:32			0	33561	0	0	0	17662	16370	156129	27177	949996	36623	106415	0	0	8136	778967	0	0
2024-04-13 07:44:32			0	33546	0	0	0	17662	16370	156169	27569	949970	36623	106415	0	0	8136	779728	0	0
2024-04-13 07:45:32			0	33519	0	0	0	17644	16360	156193	27684	949980	36610	106408	0	0	8134	781141	0	0
2024-04-13 07:46:32			0	33543	0	0	0	17644	16360	156129	27543	949856	36622	106408	0	0	8136	779923	0	0
2024-04-13 07:47:32			0	33539	0	0	0	17651	16360	156157	27445	949875	36621	106411	0	0	8135	780125	0	0
2024-04-13 07:48:32			0	33533	0	0	0	17651	16350	156189	27946	949938	36610	106411	0	0	8135	780472	0	0
2024-04-13 07:49:32			0	33529	0	0	0	17670	16340	156349	27464	949930	36609	106418	0	0	8134	780718	0	0
2024-04-13 07:50:32			0	33496	0	0	0	17664	16360	156353	27663	949954	36610	106416	0	0	8132	782310	0	0
2024-04-13 07:51:32			0	33463	0	0	0	17667	16360	156549	27428	949954	36621	106417	0	0	8130	783990	0	0
2024-04-13 07:52:32			0	33425	0	0	0	17670	16350	156773	27686	949859	36599	106418	0	0	8128	785971	0	0
2024-04-13 07:53:32			0	33405	0	0	0	17670	16350	156909	27450	949911	36610	106418	0	0	8127	786993	0	0
2024-04-13 07:54:32			0	33391	0	0	0	17677	16350	156961	27835	949911	36610	106421	0	0	8126	787709	0	0
2024-04-13 07:55:32			0	33373	0	0	0	17670	16350	156985	27842	949919	36599	106418	0	0	8125	788630	0	0
2024-04-13 07:56:32			0	33369	0	0	0	17675	16340	157213	27611	949877	36609	106420	0	0	8125	788877	0	0
2024-04-13 07:57:32			0	33342	0	0	0	17664	16350	157073	27661	949964	36621	106416	0	0	8123	790218	0	0
2024-04-13 07:58:32			0	33353	0	0	0	17677	16350	157237	27607	949946	36610	106421	0	0	8124	789654	0	0
2024-04-13 07:59:32			0	33343	0	0	0	17667	16340	157137	27502	949903	36630	106417	0	0	8123	790210	0	0
2024-04-13 08:00:32			0	33355	0	0	0	17672	16340	157181	27313	950009	36609	106419	0	0	8124	789595	0	0
2024-04-13 08:01:32			0	33334	0	0	0	17672	16340	157257	27822	949956	36641	106419	0	0	8123	790672	0	0
2024-04-13 08:02:32			0	33344	0	0	0	17670	16340	157181	27847	949877	36620	106418	0	0	8123	790158	0	0
2024-04-13 08:03:32			0	33345	0	0	0	17670	16340	157137	27684	949903	36609	106418	0	0	8123	790107	0	0
2024-04-13 08:04:32			0	33338	0	0	0	17662	16350	157153	27649	949938	36610	106415	0	0	8123	790423	0	0
2024-04-13 08:05:32			0	33363	0	0	0	17654	16350	157145	27871	949859	36610	106412	0	0	8125	789142	0	0
2024-04-13 08:06:32			0	33368	0	0	0	17654	16340	157225	27788	949850	36620	106412	0	0	8125	788928	0	0
2024-04-13 08:07:32			0	33362	0	0	0	17657	16340	157013	27861	949869	36629	106413	0	0	8125	789236	0	0
2024-04-13 08:08:32			0	33370	0	0	0	17649	16340	156973	28017	949956	36620	106410	0	0	8125	788826	0	0
2024-04-13 08:09:32			0	33400	0	0	0	17646	16330	156997	27689	949861	36608	106409	0	0	8127	787333	0	0
2024-04-13 08:10:32			0	33396	0	0	0	17651	16330	156937	27538	949861	36629	106411	0	0	8127	787538	0	0
2024-04-13 08:11:32			0	33413	0	0	0	17641	16340	156821	27519	949877	36620	106407	0	0	8128	786627	0	0
2024-04-13 08:12:32			0	33409	0	0	0	17654	16340	156833	27824	949869	36619	106412	0	0	8127	786831	0	0
2024-04-13 08:13:32			0	33423	0	0	0	17641	16330	156797	27751	949834	36619	106407	0	0	8128	786158	0	0
2024-04-13 08:14:32			0	33432	0	0	0	17644	16330	156765	27590	949782	36597	106408	0	0	8129	785699	0	0
2024-04-13 08:15:32			0	33451	0	0	0	17644	16340	156845	27713	949842	36619	106408	0	0	8130	784687	0	0
2024-04-13 08:16:32			0	33417	0	0	0	17644	16340	156773	27951	949842	36608	106408	0	0	8128	786422	0	0
2024-04-13 08:17:32			0	33432	0	0	0	17654	16340	156753	27774	949842	36586	106412	0	0	8129	785656	0	0
2024-04-13 08:18:32			0	33417	0	0	0	17654	16340	156837	27703	949921	36619	106412	0	0	8128	786422	0	0
2024-04-13 08:19:32			0	33413	0	0	0	17654	16340	156793	27876	949842	36608	106412	0	0	8128	786627	0	0
2024-04-13 08:20:32			0	33415	0	0	0	17651	16340	156817	28001	949798	36620	106411	0	0	8128	786524	0	0
2024-04-13 08:21:32			0	33415	0	0	0	17654	16330	156805	28107	949808	36608	106412	0	0	8128	786567	0	0
2024-04-13 08:22:32			0	33404	0	0	0	17651	16330	156805	27769	949834	36608	106411	0	0	8127	787129	0	0
2024-04-13 08:23:32			0	33418	0	0	0	17657	16330	156861	27861	949887	36608	106413	0	0	8128	786414	0	0
2024-04-13 08:24:32			0	33408	0	0	0	17659	16320	156841	27951	949836	36628	106414	0	0	8127	786967	0	0
2024-04-13 08:25:32			0	33413	0	0	0	17659	16330	156773	27861	949826	36619	106414	0	0	8128	786669	0	0
2024-04-13 08:26:32			0	33404	0	0	0	17672	16330	156825	27753	949834	36608	106419	0	0	8127	787129	0	0
2024-04-13 08:27:32			0	33428	0	0	0	17672	16330	156905	27923	949887	36619	106419	0	0	8128	785903	0	0
2024-04-13 08:28:32			0	33419	0	0	0	17667	16330	156809	27457	949861	36629	106417	0	0	8128	786363	0	0
2024-04-13 08:29:32			0	33428	0	0	0	17677	16330	156777	27516	949887	36629	106421	0	0	8128	785903	0	0
2024-04-13 08:30:32			0	33417	0	0	0	17685	16350	156797	27474	949938	36621	106424	0	0	8127	786380	0	0
2024-04-13 08:31:32			0	33436	0	0	0	17690	16330	156753	27833	949940	36629	106426	0	0	8128	785494	0	0
2024-04-13 08:32:32			0	33448	0	0	0	17701	16340	156757	27682	949930	36630	106430	0	0	8129	784840	0	0
2024-04-13 08:33:32			0	33448	0	0	0	17696	16340	156789	27526	949982	36609	106428	0	0	8129	784840	0	0
2024-04-13 08:34:32			0	33432	0	0	0	17701	16340	156801	27743	949982	36630	106430	0	0	8128	785656	0	0
2024-04-13 08:35:32			0	33450	0	0	0	17709	16350	156649	27412	949990	36621	106433	0	0	8129	784695	0	0
2024-04-13 08:36:32			0	33458	0	0	0	17709	16360	156729	27663	950006	36621	106433	0	0	8129	784245	0	0
2024-04-13 08:37:32			0	33435	0	0	0	17719	16360	156777	27498	950067	36622	106437	0	0	8128	785418	0	0
2024-04-13 08:38:32			0	33447	0	0	0	17711	16360	156717	27538	950015	36643	106434	0	0	8129	784806	0	0
2024-04-13 08:39:32			0	33420	0	0	0	17716	16360	156797	27743	950112	36621	106436	0	0	8127	786184	0	0
2024-04-13 08:40:32			0	33442	0	0	0	17719	16370	156761	27774	950075	36633	106437	0	0	8128	785018	0	0
2024-04-13 08:41:32			0	33449	0	0	0	17716	16360	156725	27755	950067	36632	106436	0	0	8129	784704	0	0
2024-04-13 08:42:32			0	33458	0	0	0	17711	16370	156757	27810	950102	36644	106434	0	0	8129	784203	0	0
2024-04-13 08:43:32			0	33447	0	0	0	17716	16380	156649	27371	950047	36633	106436	0	0	8129	784721	0	0
2024-04-13 08:44:32			0	33443	0	0	0	17714	16370	156761	27412	950057	36623	106435	0	0	8129	784968	0	0
2024-04-13 08:45:32			0	33452	0	0	0	17724	16380	156717	27628	950100	36623	106439	0	0	8129	784466	0	0
2024-04-13 08:46:32			0	33441	0	0	0	17719	16370	156697	27595	950057	36633	106437	0	0	8128	785070	0	0
2024-04-13 08:47:32			0	33472	0	0	0	17719	16380	156721	27509	950074	36623	106437	0	0	8130	783447	0	0
2024-04-13 08:48:32			0	33447	0	0	0	17719	16380	156697	27440	950100	36623	106437	0	0	8129	784721	0	0
2024-04-13 08:49:32			0	33443	0	0	0	17714	16370	156821	27486	950057	36644	106435	0	0	8129	784968	0	0
2024-04-13 08:50:32			0	33435	0	0	0	17719	16380	156721	27829	950066	36633	106437	0	0	8128	785333	0	0
2024-04-13 08:51:32			0	33439	0	0	0	17722	16380	156749	27630	950126	36633	106438	0	0	8128	785129	0	0
2024-04-13 08:52:32			0	33411	0	0	0	17714	16390	156753	27741	950134	36645	106435	0	0	8127	786516	0	0
2024-04-13 08:53:32			0	33394	0	0	0	17711	16380	156897	27736	950092	36633	106434	0	0	8126	787427	0	0
2024-04-13 08:54:32			0	33413	0	0	0	17709	16380	156913	27351	950074	36645	106433	0	0	8127	786457	0	0
2024-04-13 08:55:32			0	33417	0	0	0	17706	16380	156917	27322	950100	36645	106432	0	0	8127	786252	0	0
2024-04-13 08:56:32			0	33397	0	0	0	17714	16380	156865	27822	950092	36633	106435	0	0	8126	787274	0	0
2024-04-13 08:57:32			0	33420	0	0	0	17690	16380	156825	27355	950039	36633	106426	0	0	8128	786099	0	0
2024-04-13 08:58:32			0	33419	0	0	0	17675	16380	156861	27519	950066	36633	106420	0	0	8128	786150	0	0
2024-04-13 08:59:32			0	33435	0	0	0	17683	16380	156697	27537	950118	36623	106423	0	0	8129	785333	0	0
2024-04-13 09:00:32			0	33451	0	0	0	17696	16370	156677	27666	950075	36623	106428	0	0	8129	784560	0	0
2024-04-13 09:01:32			0	33424	0	0	0	17693	16380	156709	27147	950039	36633	106427	0	0	8128	785895	0	0
2024-04-13 09:02:32			0	33437	0	0	0	17711	16370	156725	27303	950128	36611	106434	0	0	8128	785274	0	0
2024-04-13 09:03:32			0	33412	0	0	0	17719	16380	156793	27476	950145	36644	106437	0	0	8127	786508	0	0
2024-04-13 09:04:32			0	33414	0	0	0	17714	16390	156869	27251	950161	36634	106435	0	0	8127	786363	0	0
2024-04-13 09:05:32			0	33387	0	0	0	17732	16390	156965	27194	950134	36624	106442	0	0	8125	787743	0	0
2024-04-13 09:06:32			0	33357	0	0	0	17768	16390	157013	27505	950187	36634	106456	0	0	8123	789279	0	0
2024-04-13 09:07:32			0	33348	0	0	0	17781	16400	157141	27393	950256	36646	106461	0	0	8122	789697	0	0
2024-04-13 09:08:32			0	33341	0	0	0	17789	16410	157069	27403	950246	36636	106464	0	0	8121	790013	0	0
2024-04-13 09:09:32			0	33340	0	0	0	17781	16420	157221	27495	950315	36637	106461	0	0	8122	790022	0	0
2024-04-13 09:10:32			0	33335	0	0	0	17792	16410	157173	27507	950280	36648	106465	0	0	8121	790321	0	0
2024-04-13 09:11:32			0	33334	0	0	0	17792	16420	157177	27493	950402	36648	106465	0	0	8121	790330	0	0
2024-04-13 09:12:32			0	33341	0	0	0	17799	16430	157065	27161	950357	36660	106468	0	0	8121	789928	0	0
2024-04-13 09:13:32			0	33322	0	0	0	17797	16430	157089	27460	950365	36649	106467	0	0	8120	790903	0	0
2024-04-13 09:14:32			0	33344	0	0	0	17799	16440	157041	27371	950434	36649	106468	0	0	8122	789731	0	0
2024-04-13 09:15:32			0	33343	0	0	0	17802	16430	157101	27448	950418	36649	106469	0	0	8121	789825	0	0
2024-04-13 09:16:32			0	33337	0	0	0	17797	16440	157109	27504	950400	36649	106467	0	0	8121	790090	0	0
2024-04-13 09:17:32			0	33356	0	0	0	17807	16450	157017	27360	950503	36640	106471	0	0	8122	789074	0	0
2024-04-13 09:18:32			0	33368	0	0	0	17810	16450	157017	27384	950416	36639	106472	0	0	8123	788459	0	0
2024-04-13 09:19:32			0	33384	0	0	0	17807	16450	156925	27301	950450	36651	106471	0	0	8124	787641	0	0
2024-04-13 09:20:32			0	33373	0	0	0	17812	16450	156977	27525	950450	36662	106473	0	0	8123	788204	0	0
2024-04-13 09:21:32			0	33398	0	0	0	17805	16460	156801	27358	950538	36651	106470	0	0	8125	786883	0	0
2024-04-13 09:22:32			0	33412	0	0	0	17797	16470	156785	27493	950467	36641	106467	0	0	8126	786125	0	0
2024-04-13 09:23:32			0	33405	0	0	0	17797	16460	156741	27691	950485	36651	106467	0	0	8125	786525	0	0
2024-04-13 09:24:32			0	33408	0	0	0	17792	16470	156749	27286	950501	36652	106465	0	0	8126	786329	0	0
2024-04-13 09:25:32			0	33426	0	0	0	17766	16470	156645	27550	950440	36652	106455	0	0	8127	785410	0	0
2024-04-13 09:26:32			0	33438	0	0	0	17776	16470	156625	27524	950475	36663	106459	0	0	8128	784798	0	0
2024-04-13 09:27:32			0	33424	0	0	0	17763	16470	156573	27597	950388	36652	106454	0	0	8127	785512	0	0
2024-04-13 09:28:32			0	33436	0	0	0	17753	16460	156617	27398	950432	36651	106450	0	0	8128	784943	0	0
2024-04-13 09:29:32			0	33442	0	0	0	17758	16470	156605	27514	950361	36641	106452	0	0	8128	784594	0	0
2024-04-13 09:30:32			0	33447	0	0	0	17758	16470	156497	27383	950414	36641	106452	0	0	8129	784339	0	0
2024-04-13 09:31:32			0	33480	0	0	0	17763	16470	156417	27561	950335	36641	106454	0	0	8130	782659	0	0
2024-04-13 09:32:32			0	33500	0	0	0	17758	16470	156261	27606	950414	36641	106452	0	0	8132	781642	0	0
2024-04-13 09:33:32			0	33524	0	0	0	17766	16450	156241	27319	950345	36640	106455	0	0	8133	780507	0	0
2024-04-13 09:34:32			0	33517	0	0	0	17761	16450	156245	27466	950284	36661	106453	0	0	8133	780863	0	0
2024-04-13 09:35:32			0	33482	0	0	0	17758	16440	156389	27590	950329	36638	106452	0	0	8130	782684	0	0
2024-04-13 09:36:32			0	33436	0	0	0	17766	16450	156617	27649	950371	36640	106455	0	0	8128	784985	0	0
2024-04-13 09:37:32			0	33379	0	0	0	17755	16450	156817	27419	950345	36651	106451	0	0	8124	787896	0	0
2024-04-13 09:38:32			0	33359	0	0	0	17758	16430	156957	27538	950339	36661	106452	0	0	8123	789006	0	0
2024-04-13 09:39:32			0	33349	0	0	0	17758	16440	156981	27713	950347	36649	106452	0	0	8123	789475	0	0
2024-04-13 09:40:32			0	33329	0	0	0	17755	16450	157057	27663	950337	36650	106451	0	0	8121	790458	0	0
2024-04-13 09:41:32			0	33316	0	0	0	17755	16450	157153	27580	950319	36662	106451	0	0	8121	791125	0	0
2024-04-13 09:42:32			0	33299	0	0	0	17750	16440	157197	27639	950355	36649	106449	0	0	8120	792041	0	0
2024-04-13 09:43:32			0	33284	0	0	0	17768	16450	157289	27535	950363	36639	106456	0	0	8119	792769	0	0
2024-04-13 09:44:32			0	33304	0	0	0	17776	16450	157269	27770	950371	36651	106459	0	0	8120	791741	0	0
2024-04-13 09:45:32			0	33257	0	0	0	17810	16450	157397	27909	950442	36661	106472	0	0	8116	794158	0	0
2024-04-13 09:46:32			0	33280	0	0	0	17828	16450	157397	27509	950503	36651	106479	0	0	8117	792975	0	0
2024-04-13 09:47:32			0	33267	0	0	0	17831	16470	157461	27597	950519	36663	106480	0	0	8117	793558	0	0
2024-04-13 09:48:32			0	33272	0	0	0	17823	16470	157485	27521	950527	36652	106477	0	0	8117	793300	0	0
2024-04-13 09:49:32			0	33271	0	0	0	17818	16480	157529	27609	950562	36653	106475	0	0	8117	793309	0	0
2024-04-13 09:50:32			0	33279	0	0	0	17825	16480	157357	27428	950596	36642	106478	0	0	8117	792897	0	0
2024-04-13 09:51:32			0	33267	0	0	0	17851	16480	157301	27528	950615	36664	106488	0	0	8116	793515	0	0
2024-04-13 09:52:32			0	33293	0	0	0	17846	16500	157193	27673	950621	36665	106486	0	0	8118	792092	0	0
2024-04-13 09:53:32			0	33311	0	0	0	17849	16490	157225	27454	950639	36665	106487	0	0	8119	791210	0	0
2024-04-13 09:54:32			0	33319	0	0	0	17851	16500	157161	27675	950682	36666	106488	0	0	8119	790757	0	0
2024-04-13 09:55:32			0	33331	0	0	0	17844	16500	157033	27388	950629	36666	106485	0	0	8120	790141	0	0
2024-04-13 09:56:32			0	33348	0	0	0	17849	16510	156929	27511	950645	36655	106487	0	0	8121	789228	0	0
2024-04-13 09:57:32			0	33358	0	0	0	17849	16510	156873	27552	950690	36666	106487	0	0	8122	788715	0	0
2024-04-13 09:58:32			0	33355	0	0	0	17846	16500	156833	27450	950655	36666	106486	0	0	8122	788912	0	0
2024-04-13 09:59:32			0	33369	0	0	0	17857	16520	156741	27666	950759	36656	106490	0	0	8122	788110	0	0
2024-04-13 10:00:32			0	33401	0	0	0	17859	16520	156721	27840	950706	36666	106491	0	0	8124	786474	0	0
2024-04-13 10:01:32			0	33390	0	0	0	17862	16520	156633	27523	950785	36666	106492	0	0	8124	787036	0	0
2024-04-13 10:02:32			0	33417	0	0	0	17864	16520	156609	27388	950706	36666	106493	0	0	8125	785657	0	0
2024-04-13 10:03:32			0	33410	0	0	0	17872	16530	156573	27313	950783	36668	106496	0	0	8125	785972	0	0
2024-04-13 10:04:32			0	33447	0	0	0	17875	16530	156549	27440	950722	36657	106497	0	0	8127	784085	0	0
2024-04-13 10:05:32			0	33431	0	0	0	17875	16530	156465	27493	950749	36657	106497	0	0	8126	784900	0	0
2024-04-13 10:06:32			0	33443	0	0	0	17877	16530	156417	27386	950749	36657	106498	0	0	8127	784289	0	0
2024-04-13 10:07:32			0	33458	0	0	0	17880	16540	156409	27402	950686	36658	106499	0	0	8127	783482	0	0
2024-04-13 10:08:32			0	33462	0	0	0	17880	16540	156345	27222	950773	36658	106499	0	0	8128	783278	0	0
2024-04-13 10:09:32			0	33472	0	0	0	17883	16540	156413	27511	950773	36669	106500	0	0	8128	782769	0	0
2024-04-13 10:10:32			0	33476	0	0	0	17867	16530	156309	27625	950783	36668	106494	0	0	8129	782608	0	0
2024-04-13 10:11:32			0	33494	0	0	0	17885	16540	156205	27322	950791	36658	106501	0	0	8130	781651	0	0
2024-04-13 10:12:32			0	33514	0	0	0	17877	16550	156209	27348	950781	36669	106498	0	0	8131	780593	0	0
2024-04-13 10:13:32			0	33523	0	0	0	17880	16540	156017	27805	950817	36668	106499	0	0	8131	780178	0	0
2024-04-13 10:14:32			0	33530	0	0	0	17877	16550	155961	27351	950815	36669	106498	0	0	8132	779781	0	0
2024-04-13 10:15:32			0	33562	0	0	0	17877	16540	156021	27277	950773	36680	106498	0	0	8134	778201	0	0
2024-04-13 10:16:32			0	33579	0	0	0	17883	16550	155826	27279	950842	36648	106500	0	0	8135	777299	0	0
2024-04-13 10:17:32			0	33600	0	0	0	17885	16540	155814	27289	950826	36669	106501	0	0	8136	776279	0	0
2024-04-13 10:18:32			0	33632	0	0	0	17888	16560	155762	27334	950850	36680	106502	0	0	8138	774579	0	0
2024-04-13 10:19:32			0	33641	0	0	0	17893	16550	155598	27535	950834	36669	106504	0	0	8138	774167	0	0
2024-04-13 10:20:32			0	33651	0	0	0	17888	16570	155514	27355	950892	36671	106502	0	0	8139	773579	0	0
2024-04-13 10:21:32			0	33683	0	0	0	17888	16560	155330	27118	950858	36670	106502	0	0	8141	772009	0	0
2024-04-13 10:22:32			0	33703	0	0	0	17901	16560	155246	27294	950884	36670	106507	0	0	8142	771004	0	0
2024-04-13 10:23:32			0	33727	0	0	0	17890	16560	155190	27937	950876	36669	106503	0	0	8143	769798	0	0
2024-04-13 10:24:32			0	33730	0	0	0	17898	16560	155174	27585	950850	36680	106506	0	0	8143	769648	0	0
2024-04-13 10:25:32			0	33768	0	0	0	17901	16560	155014	27332	950911	36670	106507	0	0	8145	767742	0	0
2024-04-13 10:26:32			0	33767	0	0	0	17909	16570	154982	27265	950953	36671	106510	0	0	8145	767751	0	0
2024-04-13 10:27:32			0	33781	0	0	0	17916	16570	154918	27369	950945	36682	106513	0	0	8146	767050	0	0
2024-04-13 10:28:32			0	33803	0	0	0	17922	16560	154754	27743	950929	36692	106515	0	0	8147	765990	0	0
2024-04-13 10:29:32			0	33813	0	0	0	17914	16570	154682	27599	950919	36682	106512	0	0	8148	765449	0	0
2024-04-13 10:30:32			0	33818	0	0	0	17924	16580	154726	27627	950996	36683	106516	0	0	8148	765158	0	0
2024-04-13 10:31:32			0	33818	0	0	0	17922	16580	154630	27405	950996	36672	106515	0	0	8148	765158	0	0
2024-04-13 10:32:32			0	33828	0	0	0	17919	16580	154738	27530	950996	36672	106514	0	0	8149	764659	0	0
2024-04-13 10:33:32			0	33836	0	0	0	17919	16590	154754	27630	950925	36673	106514	0	0	8149	764218	0	0
2024-04-13 10:34:32			0	33803	0	0	0	17927	16580	154714	27608	950935	36682	106517	0	0	8147	765908	0	0
2024-04-13 10:35:32			0	33818	0	0	0	17929	16580	154842	27592	951075	36672	106518	0	0	8148	765158	0	0
2024-04-13 10:36:32			0	33803	0	0	0	17935	16600	154826	27516	951020	36696	106520	0	0	8147	765825	0	0
2024-04-13 10:37:32			0	33784	0	0	0	17937	16610	154830	27836	951063	36696	106521	0	0	8146	766734	0	0
2024-04-13 10:38:32			0	33803	0	0	0	17940	16600	154910	27781	951028	36696	106522	0	0	8147	765825	0	0
2024-04-13 10:39:32			0	33748	0	0	0	17940	16600	154898	27793	951028	36696	106522	0	0	8144	768578	0	0
2024-04-13 10:40:32			0	33769	0	0	0	17927	16600	154910	27706	951046	36673	106517	0	0	8145	767526	0	0
2024-04-13 10:41:32			0	33742	0	0	0	17919	16600	154978	27618	951055	36673	106514	0	0	8144	768879	0	0
2024-04-13 10:42:32			0	33765	0	0	0	17924	16610	155014	27580	951071	36674	106516	0	0	8145	767685	0	0
2024-04-13 10:43:32			0	33730	0	0	0	17919	16610	155062	27833	951097	36674	106514	0	0	8143	769439	0	0
2024-04-13 10:44:32			0	33758	0	0	0	17914	16610	154878	27713	951071	36674	106512	0	0	8145	768035	0	0
2024-04-13 10:45:32			0	33767	0	0	0	17914	16610	155018	27511	951044	36696	106512	0	0	8145	767585	0	0
2024-04-13 10:46:32			0	33739	0	0	0	17909	16600	154878	27542	951055	36673	106510	0	0	8144	769030	0	0
2024-04-13 10:47:32			0	33755	0	0	0	17893	16620	154894	27492	951000	36697	106504	0	0	8145	768144	0	0
2024-04-13 10:48:32			0	33760	0	0	0	17864	16610	154858	27715	950983	36685	106493	0	0	8146	767935	0	0
2024-04-13 10:49:32			0	33800	0	0	0	17864	16600	154730	27435	951002	36685	106493	0	0	8148	765975	0	0
2024-04-13 10:50:32			0	33789	0	0	0	17849	16610	154710	27588	951010	36674	106487	0	0	8148	766483	0	0
2024-04-13 10:51:32			0	33820	0	0	0	17862	16600	154574	27874	950949	36696	106492	0	0	8149	764975	0	0
2024-04-13 10:52:32			0	33832	0	0	0	17919	16610	154538	27630	951036	36685	106514	0	0	8149	764335	0	0
2024-04-13 10:53:32			0	33840	0	0	0	17916	16600	154570	27992	951081	36696	106513	0	0	8150	763977	0	0
2024-04-13 10:54:32			0	33791	0	0	0	17828	16610	154658	27885	951036	36674	106479	0	0	8148	766383	0	0
2024-04-13 10:55:32			0	33789	0	0	0	17890	16620	154754	27689	951052	36675	106503	0	0	8147	766442	0	0
2024-04-13 10:56:32			0	33778	0	0	0	17932	16610	154886	27571	950983	36674	106519	0	0	8146	767034	0	0
2024-04-13 10:57:32			0	33733	0	0	0	17961	16610	154978	27763	951063	36685	106530	0	0	8143	769289	0	0
2024-04-13 10:58:32			0	33725	0	0	0	17974	16620	155010	27630	951184	36675	106535	0	0	8142	769649	0	0
2024-04-13 10:59:32			0	33711	0	0	0	17984	16620	155110	27909	951166	36686	106539	0	0	8141	770352	0	0
2024-04-13 11:00:32			0	33697	0	0	0	17989	16630	155266	27538	951227	36676	106541	0	0	8140	771013	0	0
2024-04-13 11:01:32			0	33690	0	0	0	17999	16630	155250	27902	951235	36698	106545	0	0	8140	771365	0	0
2024-04-13 11:02:32			0	33674	0	0	0	18010	16640	155218	27550	951243	36709	106549	0	0	8138	772128	0	0
2024-04-13 11:03:32			0	33685	0	0	0	18012	16640	155134	27743	951331	36699	106550	0	0	8139	771575	0	0
2024-04-13 11:04:32			0	33672	0	0	0	18025	16650	155194	27970	951268	36689	106555	0	0	8138	772187	0	0
2024-04-13 11:05:32			0	33675	0	0	0	18041	16660	155286	27791	951276	36711	106561	0	0	8138	771994	0	0
2024-04-13 11:06:32			0	33676	0	0	0	18041	16670	155354	27803	951371	36701	106561	0	0	8138	771902	0	0
2024-04-13 11:07:32			0	33679	0	0	0	18067	16670	155286	27847	951345	36711	106571	0	0	8138	771751	0	0
2024-04-13 11:08:32			0	33668	0	0	0	18140	16680	155306	27729	951475	36724	106599	0	0	8136	772263	0	0
2024-04-13 11:09:32			0	33660	0	0	0	18155	16700	155218	27620	951578	36725	106605	0	0	8135	772582	0	0
2024-04-13 11:10:32			0	33664	0	0	0	18166	16720	155390	27840	951637	36716	106609	0	0	8136	772297	0	0
2024-04-13 11:11:32			0	33656	0	0	0	18181	16730	155270	27802	951714	36739	106615	0	0	8135	772658	0	0
2024-04-13 11:12:32			0	33666	0	0	0	18210	16750	155358	27672	951862	36718	106626	0	0	8135	772071	0	0
2024-04-13 11:13:32			0	33648	0	0	0	18223	16760	155334	27763	951852	36730	106631	0	0	8134	772935	0	0
2024-04-13 11:14:32			0	33616	0	0	0	18225	16780	155510	27569	951911	36732	106632	0	0	8132	774463	0	0
2024-04-13 11:15:32			0	33584	0	0	0	18233	16790	155690	27588	951980	36721	106635	0	0	8130	776037	0	0
2024-04-13 11:16:32			0	33535	0	0	0	18267	16790	155869	27618	951962	36733	106648	0	0	8127	778515	0	0
2024-04-13 11:17:32			0	33530	0	0	0	18296	16820	155957	27991	952134	36747	106659	0	0	8126	778642	0	0
2024-04-13 11:18:32			0	33522	0	0	0	18301	16820	155793	27592	952116	36736	106661	0	0	8125	779047	0	0
2024-04-13 11:19:32			0	33500	0	0	0	18306	16840	156009	27649	952201	36738	106663	0	0	8124	780078	0	0
2024-04-13 11:20:32			0	33495	0	0	0	18298	16850	156013	28256	952243	36749	106660	0	0	8124	780289	0	0
2024-04-13 11:21:32			0	33476	0	0	0	18303	16850	155977	27862	952191	36738	106662	0	0	8123	781253	0	0
2024-04-13 11:22:32			0	33482	0	0	0	18306	16870	156033	27569	952303	36740	106663	0	0	8123	780864	0	0
2024-04-13 11:23:32			0	33481	0	0	0	18319	16880	156049	27729	952337	36741	106668	0	0	8123	780873	0	0
2024-04-13 11:24:32			0	33443	0	0	0	18337	16900	156161	27803	952396	36752	106675	0	0	8121	782719	0	0
2024-04-13 11:25:32			0	33446	0	0	0	18335	16910	156217	27942	952386	36754	106674	0	0	8121	782524	0	0
2024-04-13 11:26:32			0	33435	0	0	0	18353	16910	156165	27868	952447	36765	106681	0	0	8120	783083	0	0
2024-04-13 11:27:32			0	33427	0	0	0	18368	16930	156229	27913	952497	36756	106687	0	0	8119	783405	0	0
2024-04-13 11:28:32			0	33403	0	0	0	18366	16940	156241	27859	952522	36746	106686	0	0	8118	784585	0	0
2024-04-13 11:29:32			0	33438	0	0	0	18384	16950	156301	27659	952591	36768	106693	0	0	8120	782761	0	0
2024-04-13 11:30:32			0	33407	0	0	0	18368	16960	156257	27953	952546	36747	106687	0	0	8118	784296	0	0
2024-04-13 11:31:32			0	33400	0	0	0	18374	16960	156281	27954	952625	36757	106689	0	0	8118	784653	0	0
2024-04-13 11:32:32			0	33402	0	0	0	18348	16980	156353	27791	952639	36760	106679	0	0	8118	784466	0	0
2024-04-13 11:33:32			0	33397	0	0	0	18340	16980	156297	28024	952613	36771	106676	0	0	8118	784721	0	0
2024-04-13 11:34:32			0	33368	0	0	0	18327	16990	156329	27665	952656	36761	106671	0	0	8117	786157	0	0
2024-04-13 11:35:32			0	33378	0	0	0	18314	16980	156389	27909	952639	36771	106666	0	0	8117	785689	0	0
2024-04-13 11:36:32			0	33362	0	0	0	18306	16990	156369	27961	952594	36750	106663	0	0	8117	786463	0	0
2024-04-13 11:37:32			0	33360	0	0	0	18301	16980	156477	27663	952586	36760	106661	0	0	8117	786608	0	0
2024-04-13 11:38:32			0	33356	0	0	0	18332	16990	156561	27958	952621	36750	106673	0	0	8116	786770	0	0
2024-04-13 11:39:32			0	33349	0	0	0	18301	16980	156589	27947	952560	36771	106661	0	0	8116	787170	0	0
2024-04-13 11:40:32			0	33347	0	0	0	18366	17000	156629	27861	952637	36761	106686	0	0	8115	787187	0	0
2024-04-13 11:41:32			0	33326	0	0	0	18428	16980	156825	27864	952745	36760	106710	0	0	8112	788346	0	0
2024-04-13 11:42:32			0	33306	0	0	0	18459	16990	156805	27599	952814	36772	106722	0	0	8111	789327	0	0
2024-04-13 11:43:32			0	33306	0	0	0	18480	17010	156921	27620	952873	36774	106730	0	0	8111	789241	0	0
2024-04-13 11:44:32			0	33301	0	0	0	18501	17030	156861	27653	952950	36775	106738	0	0	8110	789411	0	0
2024-04-13 11:45:32			0	33297	0	0	0	18529	17050	156953	27850	953088	36788	106749	0	0	8109	789530	0	0
2024-04-13 11:46:32			0	33278	0	0	0	18540	17070	156937	27426	953139	36789	106753	0	0	8108	790418	0	0
2024-04-13 11:47:32			0	33285	0	0	0	18571	17070	157021	27954	953147	36789	106765	0	0	8108	790059	0	0
2024-04-13 11:48:32			0	33280	0	0	0	18594	17090	156977	27762	953224	36791	106774	0	0	8107	790230	0	0
2024-04-13 11:49:32			0	33274	0	0	0	18587	17110	156853	27504	953256	36791	106771	0	0	8107	790452	0	0
2024-04-13 11:50:32			0	33265	0	0	0	18592	17110	156969	27625	953317	36782	106773	0	0	8107	790913	0	0
2024-04-13 11:51:32			0	33261	0	0	0	18605	17140	157081	27710	953384	36794	106778	0	0	8106	790989	0	0
2024-04-13 11:52:32			0	33256	0	0	0	18597	17150	156889	27994	953435	36807	106775	0	0	8106	791203	0	0
2024-04-13 11:53:32			0	33244	0	0	0	18550	17170	156961	27869	953433	36787	106757	0	0	8106	791733	0	0
2024-04-13 11:54:32			0	33260	0	0	0	18529	17170	156861	27734	953380	36797	106749	0	0	8108	790912	0	0
2024-04-13 11:55:32			0	33279	0	0	0	18522	17160	156833	27992	953399	36796	106746	0	0	8109	789981	0	0
2024-04-13 11:56:32			0	33269	0	0	0	18519	17170	156849	27855	953354	36787	106745	0	0	8108	790450	0	0
2024-04-13 11:57:32			0	33282	0	0	0	18501	17170	156837	28050	953336	36787	106738	0	0	8110	789784	0	0
2024-04-13 11:58:32			0	33286	0	0	0	18493	17170	156753	27883	953301	36776	106735	0	0	8110	789580	0	0
2024-04-13 11:59:32			0	33291	0	0	0	18485	17170	156773	27829	953354	36776	106732	0	0	8110	789324	0	0
2024-04-13 12:00:32			0	33288	0	0	0	18477	17170	156685	28102	953327	36787	106729	0	0	8110	789477	0	0
2024-04-13 12:01:32			0	33310	0	0	0	18485	17150	156629	27966	953303	36785	106732	0	0	8111	788437	0	0
2024-04-13 12:02:32			0	33310	0	0	0	18480	17170	156577	27724	953275	36797	106730	0	0	8112	788351	0	0
2024-04-13 12:03:32			0	33314	0	0	0	18462	17160	156513	27975	953311	36774	106723	0	0	8112	788190	0	0
2024-04-13 12:04:32			0	33315	0	0	0	18475	17160	156561	27984	953258	36785	106728	0	0	8112	788139	0	0
2024-04-13 12:05:32			0	33322	0	0	0	18472	17150	156485	27854	953250	36774	106727	0	0	8112	787823	0	0
2024-04-13 12:06:32			0	33342	0	0	0	18464	17150	156481	27939	953224	36807	106724	0	0	8114	786802	0	0
2024-04-13 12:07:32			0	33345	0	0	0	18451	17150	156445	28095	953198	36774	106719	0	0	8114	786648	0	0
2024-04-13 12:08:32			0	33370	0	0	0	18436	17150	156441	27535	953224	36795	106713	0	0	8116	785373	0	0
2024-04-13 12:09:32			0	33374	0	0	0	18376	17140	156373	27666	953147	36773	106690	0	0	8117	785211	0	0
2024-04-13 12:10:32			0	33373	0	0	0	18363	17130	156305	27679	953060	36784	106685	0	0	8117	785305	0	0
2024-04-13 12:11:32			0	33387	0	0	0	18374	17130	156253	27718	952999	36761	106689	0	0	8118	784592	0	0
2024-04-13 12:12:32			0	33388	0	0	0	18389	17120	156293	27814	953035	36760	106695	0	0	8118	784583	0	0
2024-04-13 12:13:32			0	33379	0	0	0	18358	17120	156245	27854	953088	36782	106683	0	0	8118	785042	0	0
2024-04-13 12:14:32			0	33398	0	0	0	18394	17120	156261	27975	953141	36771	106697	0	0	8118	784074	0	0
2024-04-13 12:15:32			0	33387	0	0	0	18423	17110	156249	27763	953027	36771	106708	0	0	8117	784677	0	0
2024-04-13 12:16:32			0	33388	0	0	0	18472	17120	156249	27673	953141	36782	106727	0	0	8116	784583	0	0
2024-04-13 12:17:32			0	33405	0	0	0	18480	17120	156293	27859	953175	36793	106730	0	0	8117	783718	0	0
2024-04-13 12:18:32			0	33385	0	0	0	18477	17130	156365	27758	953210	36793	106729	0	0	8116	784694	0	0
2024-04-13 12:19:32			0	33404	0	0	0	18480	17140	156321	27852	953252	36794	106730	0	0	8117	783683	0	0
2024-04-13 12:20:32			0	33411	0	0	0	18485	17130	156393	27718	953218	36784	106732	0	0	8117	783370	0	0
2024-04-13 12:21:32			0	33403	0	0	0	18493	17140	156289	27902	953305	36784	106735	0	0	8117	783734	0	0
2024-04-13 12:22:32			0	33416	0	0	0	18509	17140	156257	27689	953287	36785	106741	0	0	8117	783073	0	0
2024-04-13 12:23:32			0	33411	0	0	0	18545	17150	156109	27840	953348	36795	106755	0	0	8116	783285	0	0
2024-04-13 12:24:32			0	33431	0	0	0	18558	17170	156185	27973	953512	36808	106760	0	0	8117	782183	0	0
2024-04-13 12:25:32			0	33415	0	0	0	18602	17180	156101	28261	953510	36788	106777	0	0	8116	782953	0	0
2024-04-13 12:26:32			0	33430	0	0	0	18605	17190	156249	27861	953606	36789	106778	0	0	8117	782149	0	0
2024-04-13 12:27:32			0	33420	0	0	0	18748	17210	156229	28074	953717	36811	106833	0	0	8114	782572	0	0
2024-04-13 12:28:32			0	33400	0	0	0	18786	17220	156229	27628	953786	36812	106848	0	0	8112	783546	0	0
2024-04-13 12:29:32			0	33393	0	0	0	18771	17260	156341	27678	953923	36827	106842	0	0	8112	783732	0	0
2024-04-13 12:30:32			0	33361	0	0	0	18784	17260	156337	27864	954010	36816	106847	0	0	8110	785362	0	0
2024-04-13 12:31:32			0	33355	0	0	0	18789	17290	156573	27894	954050	36851	106849	0	0	8110	785540	0	0
2024-04-13 12:32:32			0	33324	0	0	0	18786	17290	156529	27422	954032	36830	106848	0	0	8108	787122	0	0
2024-04-13 12:33:32			0	33317	0	0	0	18771	17310	156661	27994	954117	36842	106842	0	0	8108	787394	0	0
2024-04-13 12:34:32			0	33324	0	0	0	18768	17320	156521	27895	954081	36810	106841	0	0	8108	786994	0	0
2024-04-13 12:35:32			0	33329	0	0	0	18750	17330	156513	27717	954142	36822	106834	0	0	8109	786696	0	0
2024-04-13 12:36:32			0	33348	0	0	0	18732	17340	156437	27800	954105	36823	106827	0	0	8110	785684	0	0
2024-04-13 12:37:32			0	33348	0	0	0	18709	17350	156353	27680	954121	36824	106818	0	0	8111	785641	0	0
2024-04-13 12:38:32			0	33352	0	0	0	18701	17330	156213	27793	954097	36822	106815	0	0	8111	785523	0	0
2024-04-13 12:39:32			0	33336	0	0	0	18698	17350	156293	27739	954016	36834	106814	0	0	8110	786253	0	0
2024-04-13 12:40:32			0	33345	0	0	0	18696	17350	156301	27504	954069	36845	106813	0	0	8111	785794	0	0
2024-04-13 12:41:32			0	33351	0	0	0	18690	17350	156277	27918	954069	36812	106811	0	0	8111	785488	0	0
2024-04-13 12:42:32			0	33349	0	0	0	18683	17350	156373	27795	954008	36823	106808	0	0	8111	785590	0	0
2024-04-13 12:43:32			0	33338	0	0	0	18675	17350	156545	27935	954095	36824	106805	0	0	8111	786151	0	0
2024-04-13 12:44:32			0	33332	0	0	0	18672	17350	156381	27803	954016	36824	106804	0	0	8111	786458	0	0
2024-04-13 12:45:32			0	33350	0	0	0	18664	17350	156297	27921	953989	36812	106801	0	0	8112	785539	0	0
2024-04-13 12:46:32			0	33363	0	0	0	18672	17350	156277	27665	953989	36834	106804	0	0	8112	784877	0	0
2024-04-13 12:47:32			0	33346	0	0	0	18719	17350	156325	27855	954060	36823	106822	0	0	8111	785743	0	0
2024-04-13 12:48:32			0	33352	0	0	0	18745	17360	156329	27930	954103	36825	106832	0	0	8111	785395	0	0
2024-04-13 12:49:32			0	33341	0	0	0	18748	17360	156361	27800	954209	36825	106833	0	0	8110	785956	0	0
2024-04-13 12:50:32			0	33353	0	0	0	18758	17360	156313	27750	954182	36835	106837	0	0	8110	785344	0	0
2024-04-13 12:51:32			0	33363	0	0	0	18753	17380	156361	27878	954268	36826	106835	0	0	8111	784749	0	0
2024-04-13 12:52:32			0	33346	0	0	0	18781	17380	156417	27999	954250	36836	106846	0	0	8110	785615	0	0
2024-04-13 12:53:32			0	33336	0	0	0	18779	17390	156261	27796	954337	36836	106845	0	0	8109	786082	0	0
2024-04-13 12:54:32			0	33349	0	0	0	18779	17400	156325	27916	954308	36849	106845	0	0	8110	785377	0	0
2024-04-13 12:55:32			0	33380	0	0	0	18768	17400	156277	27772	954335	36828	106841	0	0	8112	783798	0	0
2024-04-13 12:56:32			0	33345	0	0	0	18786	17400	156329	27753	954335	36828	106848	0	0	8110	785581	0	0
2024-04-13 12:57:32			0	33359	0	0	0	18807	17410	156197	28001	954404	36829	106856	0	0	8110	784825	0	0
2024-04-13 12:58:32			0	33350	0	0	0	18807	17420	156165	27703	954412	36829	106856	0	0	8110	785241	0	0
2024-04-13 12:59:32			0	33351	0	0	0	18812	17420	156237	27855	954499	36851	106858	0	0	8110	785189	0	0
2024-04-13 13:00:32			0	33370	0	0	0	18820	17430	156265	27625	954489	36830	106861	0	0	8111	784179	0	0
2024-04-13 13:01:32			0	33333	0	0	0	18815	17430	156349	28055	954516	36851	106859	0	0	8109	786065	0	0
2024-04-13 13:02:32			0	33361	0	0	0	18820	17450	156189	27779	954513	36842	106861	0	0	8110	784552	0	0
2024-04-13 13:03:32			0	33357	0	0	0	18838	17450	156273	27786	954593	36842	106868	0	0	8110	784756	0	0
2024-04-13 13:04:32			0	33345	0	0	0	18849	17460	156333	27433	954583	36843	106872	0	0	8109	785324	0	0
2024-04-13 13:05:32			0	33343	0	0	0	18862	17450	156265	27566	954540	36842	106877	0	0	8108	785469	0	0
2024-04-13 13:06:32			0	33327	0	0	0	18890	17460	156333	27816	954696	36844	106888	0	0	8107	786242	0	0
2024-04-13 13:07:32			0	33343	0	0	0	18914	17480	156285	27843	954668	36844	106897	0	0	8108	785341	0	0
2024-04-13 13:08:32			0	33331	0	0	0	18919	17480	156349	28057	954729	36845	106899	0	0	8107	785953	0	0
2024-04-13 13:09:32			0	33306	0	0	0	19109	17500	156585	27930	954938	36868	106972	0	0	8102	787143	0	0
2024-04-13 13:10:32			0	33308	0	0	0	19150	17530	156641	27559	955040	36872	106988	0	0	8102	786913	0	0
2024-04-13 13:11:32			0	33284	0	0	0	19186	17550	156689	27942	955231	36895	107002	0	0	8100	788053	0	0
2024-04-13 13:12:32			0	33254	0	0	0	19192	17570	156685	27630	955351	36897	107004	0	0	8098	789501	0	0
2024-04-13 13:13:32			0	33249	0	0	0	19189	17600	156749	27930	955452	36899	107003	0	0	8098	789628	0	0
2024-04-13 13:14:32			0	33252	0	0	0	19205	17630	156713	27946	955511	36901	107009	0	0	8098	789346	0	0
2024-04-13 13:15:32			0	33253	0	0	0	19220	17660	156673	27897	955648	36893	107015	0	0	8098	789166	0	0
2024-04-13 13:16:32			0	33221	0	0	0	19225	17670	156757	27554	955637	36904	107017	0	0	8096	790762	0	0
2024-04-13 13:17:32			0	33217	0	0	0	19236	17690	156773	27654	955802	36907	107021	0	0	8096	790881	0	0
2024-04-13 13:18:32			0	33235	0	0	0	19249	17720	156689	27755	955843	36919	107026	0	0	8097	789829	0	0
2024-04-13 13:19:32			0	33200	0	0	0	19257	17740	156681	27871	955929	36920	107029	0	0	8095	791537	0	0
2024-04-13 13:20:32			0	33186	0	0	0	19272	17750	156785	27843	955979	36922	107035	0	0	8094	792212	0	0
2024-04-13 13:21:32			0	33188	0	0	0	19293	17770	156833	27992	955985	36923	107043	0	0	8093	792023	0	0
2024-04-13 13:22:32			0	33160	0	0	0	19293	17780	156893	27488	956107	36924	107043	0	0	8092	793417	0	0
2024-04-13 13:23:32			0	33156	0	0	0	19288	17800	157033	27999	956113	36926	107041	0	0	8092	793537	0	0
2024-04-13 13:24:32			0	33130	0	0	0	19290	17820	157009	27850	956164	36916	107042	0	0	8090	794787	0	0
2024-04-13 13:25:32			0	33143	0	0	0	19290	17840	156993	27445	956223	36929	107042	0	0	8091	794032	0	0
2024-04-13 13:26:32			0	33146	0	0	0	19288	17840	156909	27791	956231	36930	107041	0	0	8091	793878	0	0
2024-04-13 13:27:32			0	33154	0	0	0	19277	17850	156941	27819	956221	36942	107037	0	0	8092	793423	0	0
2024-04-13 13:28:32			0	33165	0	0	0	19290	17860	156861	27597	956238	36920	107042	0	0	8093	792815	0	0
2024-04-13 13:29:32			0	33173	0	0	0	19283	17880	156813	27433	956262	36921	107039	0	0	8093	792318	0	0
2024-04-13 13:30:32			0	33184	0	0	0	19303	17880	156677	27784	956350	36912	107047	0	0	8094	791754	0	0
2024-04-13 13:31:32			0	33189	0	0	0	19316	17890	156581	27623	956384	36934	107052	0	0	8094	791454	0	0
2024-04-13 13:32:32			0	33179	0	0	0	19340	17900	156665	27798	956408	36935	107061	0	0	8093	791924	0	0
2024-04-13 13:33:32			0	33202	0	0	0	19348	17920	156665	27528	956530	36936	107064	0	0	8094	790658	0	0
2024-04-13 13:34:32			0	33183	0	0	0	19358	17930	156665	27604	956573	36925	107068	0	0	8093	791589	0	0
2024-04-13 13:35:32			0	33179	0	0	0	19368	17940	156673	27970	956571	36927	107072	0	0	8092	791751	0	0
2024-04-13 13:36:32			0	33194	0	0	0	19384	17950	156605	27454	956632	36938	107078	0	0	8093	790939	0	0
2024-04-13 13:37:32			0	33192	0	0	0	19379	17950	156661	27507	956640	36928	107076	0	0	8093	791041	0	0
2024-04-13 13:38:32			0	33204	0	0	0	19384	17970	156625	27810	956673	36941	107078	0	0	8094	790341	0	0
2024-04-13 13:39:32			0	33193	0	0	0	19381	17970	156537	27338	956726	36941	107077	0	0	8093	790904	0	0
2024-04-13 13:40:32			0	33208	0	0	0	19376	17980	156493	27516	956715	36930	107075	0	0	8094	790093	0	0
2024-04-13 13:41:32			0	33233	0	0	0	19376	17990	156497	27795	956724	36930	107075	0	0	8096	788770	0	0
2024-04-13 13:42:32			0	33223	0	0	0	19368	18000	156397	27582	956714	36943	107072	0	0	8095	789239	0	0
2024-04-13 13:43:32			0	33244	0	0	0	19301	17990	156369	27982	956706	36942	107046	0	0	8098	788208	0	0
2024-04-13 13:44:32			0	33239	0	0	0	19293	18010	156301	27935	956791	36955	107043	0	0	8098	788378	0	0
2024-04-13 13:45:32			0	33236	0	0	0	19202	18010	156161	27613	956730	36933	107008	0	0	8099	788531	0	0
2024-04-13 13:46:32			0	33244	0	0	0	19109	18010	156109	27675	956624	36933	106972	0	0	8101	788122	0	0
2024-04-13 13:47:32			0	33244	0	0	0	19031	18000	156025	27982	956370	36910	106942	0	0	8102	788165	0	0
2024-04-13 13:48:32			0	33254	0	0	0	18955	17960	155997	27852	956093	36875	106913	0	0	8104	787826	0	0
2024-04-13 13:49:32			0	33246	0	0	0	18885	17920	156073	27953	955817	36871	106886	0	0	8105	788407	0	0
2024-04-13 13:50:32			0	33274	0	0	0	18823	17870	155981	27640	955567	36878	106862	0	0	8107	787191	0	0
2024-04-13 13:51:32			0	33270	0	0	0	18766	17810	156133	27755	955390	36850	106840	0	0	8108	787653	0	0
2024-04-13 13:52:32			0	33274	0	0	0	18740	17780	156041	27800	955333	36870	106830	0	0	8108	787578	0	0
2024-04-13 13:53:32			0	33311	0	0	0	18724	17750	155933	27623	955179	36868	106824	0	0	8110	785818	0	0
2024-04-13 13:54:32			0	33317	0	0	0	18688	17730	155901	27788	955067	36844	106810	0	0	8111	785598	0	0
2024-04-13 13:55:32			0	33326	0	0	0	18667	17690	155889	27635	954870	36840	106802	0	0	8112	785310	0	0
2024-04-13 13:56:32			0	33360	0	0	0	18638	17660	155709	27809	954768	36816	106791	0	0	8114	783707	0	0
2024-04-13 13:57:32			0	33365	0	0	0	18644	17610	155729	27857	954676	36824	106793	0	0	8114	783666	0	0
2024-04-13 13:58:32			0	33392	0	0	0	18651	17590	155677	27876	954644	36833	106796	0	0	8116	782379	0	0
2024-04-13 13:59:32			0	33400	0	0	0	18649	17570	155657	27859	954638	36842	106795	0	0	8116	782057	0	0
2024-04-13 14:00:32			0	33429	0	0	0	18657	17560	155629	27519	954560	36841	106798	0	0	8118	780628	0	0
2024-04-13 14:01:32			0	33427	0	0	0	18651	17540	155589	27975	954562	36829	106796	0	0	8117	780814	0	0
2024-04-13 14:02:32			0	33449	0	0	0	18646	17510	155525	27762	954434	36826	106794	0	0	8119	779826	0	0
2024-04-13 14:03:32			0	33483	0	0	0	18638	17500	155441	27868	954365	36826	106791	0	0	8121	778147	0	0
2024-04-13 14:04:32			0	33486	0	0	0	18625	17480	155389	27996	954333	36824	106786	0	0	8121	778080	0	0
2024-04-13 14:05:32			0	33515	0	0	0	18610	17480	155341	27972	954298	36823	106780	0	0	8123	776614	0	0
2024-04-13 14:06:32			0	33537	0	0	0	18594	17450	155229	27509	954197	36821	106774	0	0	8124	775630	0	0
2024-04-13 14:07:32			0	33526	0	0	0	18566	17430	155133	27770	954146	36808	106763	0	0	8124	776270	0	0
2024-04-13 14:08:32			0	33540	0	0	0	18498	17420	155089	27358	954103	36819	106737	0	0	8126	775605	0	0
2024-04-13 14:09:32			0	33573	0	0	0	18493	17410	155130	27748	954026	36817	106735	0	0	8128	773984	0	0
2024-04-13 14:10:32			0	33605	0	0	0	18503	17380	154914	27511	953986	36804	106739	0	0	8130	772499	0	0
2024-04-13 14:11:32			0	33625	0	0	0	18522	17370	154658	27573	953969	36803	106746	0	0	8130	771536	0	0
2024-04-13 14:12:32			0	33694	0	0	0	18477	17360	154558	27604	953918	36825	106729	0	0	8135	768117	0	0
2024-04-13 14:13:32			0	33729	0	0	0	18514	17350	154446	27774	953902	36823	106743	0	0	8137	766407	0	0
2024-04-13 14:14:32			0	33746	0	0	0	18553	17330	154326	27659	953886	36822	106758	0	0	8137	765642	0	0
2024-04-13 14:15:32			0	33767	0	0	0	18825	17360	154274	27627	954288	36846	106863	0	0	8134	764469	0	0
2024-04-13 14:16:32			0	33742	0	0	0	18794	17400	154354	27911	954538	36860	106851	0	0	8133	765550	0	0
2024-04-13 14:17:32			0	33731	0	0	0	18763	17410	154474	27925	954589	36839	106839	0	0	8133	766058	0	0
2024-04-13 14:18:32			0	33738	0	0	0	18774	17440	154494	27751	954550	36852	106843	0	0	8133	765583	0	0
2024-04-13 14:19:32			0	33704	0	0	0	18750	17440	154594	27684	954550	36831	106834	0	0	8132	767282	0	0
2024-04-13 14:20:32			0	33708	0	0	0	18784	17450	154538	27959	954601	36842	106847	0	0	8131	767040	0	0
2024-04-13 14:21:32			0	33694	0	0	0	18768	17450	154562	27661	954654	36842	106841	0	0	8131	767741	0	0
2024-04-13 14:22:32			0	33686	0	0	0	18867	17470	154614	27661	954765	36855	106879	0	0	8129	768058	0	0
2024-04-13 14:23:32			0	33678	0	0	0	18924	17480	154678	27628	954914	36856	106901	0	0	8127	768417	0	0
2024-04-13 14:24:32			0	33662	0	0	0	18802	17510	154738	27881	954875	36870	106854	0	0	8129	769093	0	0
2024-04-13 14:25:32			0	33648	0	0	0	18709	17510	154666	28034	954778	36848	106818	0	0	8129	769795	0	0
2024-04-13 14:26:32			0	33665	0	0	0	18703	17500	154534	27750	954621	36814	106816	0	0	8130	768984	0	0
2024-04-13 14:27:32			0	33660	0	0	0	18711	17480	154486	27607	954570	36824	106819	0	0	8130	769318	0	0
2024-04-13 14:28:32			0	33685	0	0	0	18631	17480	154418	27554	954562	36833	106788	0	0	8133	768066	0	0
2024-04-13 14:29:32			0	33705	0	0	0	18610	17460	154378	27684	954459	36833	106780	0	0	8134	767149	0	0
2024-04-13 14:30:32			0	33711	0	0	0	18672	17460	154210	27731	954424	36833	106804	0	0	8133	766849	0	0
2024-04-13 14:31:32			0	33718	0	0	0	18693	17440	154190	27495	954400	36832	106812	0	0	8133	766582	0	0
2024-04-13 14:32:32			0	33732	0	0	0	18649	17440	154258	27275	954373	36832	106795	0	0	8135	765883	0	0
2024-04-13 14:33:32			0	33743	0	0	0	18651	17440	154218	28013	954365	36841	106796	0	0	8136	765334	0	0
2024-04-13 14:34:32			0	33737	0	0	0	18636	17430	154222	27786	954296	36840	106790	0	0	8135	765675	0	0
2024-04-13 14:35:32			0	33745	0	0	0	18623	17420	154238	27951	954227	36818	106785	0	0	8136	765317	0	0
2024-04-13 14:36:32			0	33724	0	0	0	18561	17410	154262	27876	954132	36828	106761	0	0	8136	766408	0	0
2024-04-13 14:37:32			0	33731	0	0	0	18550	17400	154166	28142	954150	36817	106757	0	0	8136	766099	0	0
2024-04-13 14:38:32			0	33716	0	0	0	18561	17380	154286	27722	954030	36836	106761	0	0	8135	766932	0	0
2024-04-13 14:39:32			0	33723	0	0	0	18558	17370	154362	27727	954022	36825	106760	0	0	8136	766624	0	0
2024-04-13 14:40:32			0	33703	0	0	0	18548	17360	154450	27646	953945	36825	106756	0	0	8135	767666	0	0
2024-04-13 14:41:32			0	33682	0	0	0	18529	17350	154494	27668	953928	36812	106749	0	0	8134	768759	0	0
2024-04-13 14:42:32			0	33688	0	0	0	18542	17330	154434	27779	953912	36822	106754	0	0	8134	768542	0	0
2024-04-13 14:43:32			0	33674	0	0	0	18540	17320	154550	27807	953861	36820	106753	0	0	8133	769286	0	0
2024-04-13 14:44:32			0	33670	0	0	0	18537	17300	154626	27713	953837	36831	106752	0	0	8133	769570	0	0
2024-04-13 14:45:32			0	33671	0	0	0	18542	17300	154702	27569	953758	36820	106754	0	0	8132	769520	0	0
2024-04-13 14:46:32			0	33655	0	0	0	18548	17300	154806	27691	953776	36830	106756	0	0	8131	770322	0	0
2024-04-13 14:47:32			0	33648	0	0	0	18558	17300	154702	27604	953855	36819	106760	0	0	8131	770674	0	0
2024-04-13 14:48:32			0	33642	0	0	0	18555	17290	154778	27765	953786	36819	106759	0	0	8131	771017	0	0
2024-04-13 14:49:32			0	33648	0	0	0	18555	17290	154726	27646	953786	36819	106759	0	0	8131	770716	0	0
2024-04-13 14:50:32			0	33632	0	0	0	18563	17290	154878	28062	953839	36819	106762	0	0	8130	771519	0	0
2024-04-13 14:51:32			0	33622	0	0	0	18553	17280	154814	27769	953752	36818	106758	0	0	8129	772064	0	0
2024-04-13 14:52:32			0	33620	0	0	0	18566	17280	154834	27814	953770	36817	106763	0	0	8129	772164	0	0
2024-04-13 14:53:32			0	33632	0	0	0	18566	17280	154850	27932	953770	36828	106763	0	0	8130	771561	0	0
2024-04-13 14:54:32			0	33611	0	0	0	18571	17270	154958	27692	953815	36828	106765	0	0	8128	772659	0	0
2024-04-13 14:55:32			0	33618	0	0	0	18568	17270	154966	27376	953780	36805	106764	0	0	8129	772307	0	0
2024-04-13 14:56:32			0	33619	0	0	0	18566	17280	155006	27868	953831	36818	106763	0	0	8129	772215	0	0
2024-04-13 14:57:32			0	33609	0	0	0	18563	17280	154918	27928	953744	36817	106762	0	0	8128	772718	0	0
2024-04-13 14:58:32			0	33617	0	0	0	18566	17270	154926	27653	953788	36828	106763	0	0	8129	772357	0	0
2024-04-13 14:59:32			0	33645	0	0	0	18571	17280	154826	27755	953876	36828	106765	0	0	8130	770908	0	0
2024-04-13 15:00:32			0	33636	0	0	0	18568	17270	154858	28046	953788	36828	106764	0	0	8130	771402	0	0
2024-04-13 15:01:32			0	33643	0	0	0	18568	17270	154774	27595	953762	36817	106764	0	0	8130	771050	0	0
2024-04-13 15:02:32			0	33647	0	0	0	18558	17270	154786	28357	953815	36817	106760	0	0	8131	770850	0	0
2024-04-13 15:03:32			0	33653	0	0	0	18542	17270	154742	27512	953736	36828	106754	0	0	8131	770548	0	0
2024-04-13 15:04:32			0	33646	0	0	0	18542	17270	154750	27885	953807	36816	106754	0	0	8131	770900	0	0
2024-04-13 15:05:32			0	33659	0	0	0	18555	17280	154734	27812	953770	36839	106759	0	0	8131	770205	0	0
2024-04-13 15:06:32			0	33665	0	0	0	18553	17270	154750	27909	953807	36827	106758	0	0	8132	769946	0	0
2024-04-13 15:07:32			0	33681	0	0	0	18561	17270	154778	28131	953815	36828	106761	0	0	8133	769144	0	0
2024-04-13 15:08:32			0	33691	0	0	0	18563	17270	154662	27940	953788	36817	106762	0	0	8133	768643	0	0
2024-04-13 15:09:32			0	33679	0	0	0	18558	17270	154618	28029	953860	36816	106760	0	0	8133	769244	0	0
2024-04-13 15:10:32			0	33685	0	0	0	18566	17270	154618	27873	953833	36827	106763	0	0	8133	768943	0	0
2024-04-13 15:11:32			0	33694	0	0	0	18587	17280	154590	27807	953902	36817	106771	0	0	8133	768451	0	0
2024-04-13 15:12:32			0	33721	0	0	0	18605	17290	154510	27717	953918	36830	106778	0	0	8134	767057	0	0
2024-04-13 15:13:32			0	33716	0	0	0	18612	17280	154382	27923	953884	36829	106781	0	0	8134	767349	0	0
2024-04-13 15:14:32			0	33747	0	0	0	18615	17280	154410	28020	953884	36829	106782	0	0	8136	765799	0	0
2024-04-13 15:15:32			0	33755	0	0	0	18620	17290	154246	27916	953945	36830	106784	0	0	8136	765358	0	0
2024-04-13 15:16:32			0	33773	0	0	0	18628	17290	154214	28143	953953	36819	106787	0	0	8137	764460	0	0
2024-04-13 15:17:32			0	33758	0	0	0	18625	17300	154218	27973	953935	36830	106786	0	0	8136	765167	0	0
2024-04-13 15:18:32			0	33762	0	0	0	18633	17300	154286	28168	954014	36840	106789	0	0	8136	764967	0	0
2024-04-13 15:19:32			0	33755	0	0	0	18638	17310	154358	27982	954038	36820	106791	0	0	8136	765275	0	0
2024-04-13 15:20:32			0	33776	0	0	0	18636	17320	154282	27913	954046	36832	106790	0	0	8137	764186	0	0
2024-04-13 15:21:32			0	33775	0	0	0	18644	17320	154206	27904	954020	36842	106793	0	0	8137	764236	0	0
2024-04-13 15:22:32			0	33769	0	0	0	18641	17330	154190	27873	954063	36833	106792	0	0	8137	764494	0	0
2024-04-13 15:23:32			0	33779	0	0	0	18641	17330	154186	27902	954036	36822	106792	0	0	8137	763995	0	0
2024-04-13 15:24:32			0	33799	0	0	0	18633	17330	154022	28037	954142	36843	106789	0	0	8139	762998	0	0
2024-04-13 15:25:32			0	33798	0	0	0	18628	17340	154062	27673	954079	36833	106787	0	0	8139	763007	0	0
2024-04-13 15:26:32			0	33804	0	0	0	18657	17350	153982	28055	954113	36844	106798	0	0	8139	762666	0	0
2024-04-13 15:27:32			0	33830	0	0	0	18716	17350	153926	27732	954227	36845	106821	0	0	8139	761373	0	0
2024-04-13 15:28:32			0	33817	0	0	0	18698	17340	154006	27871	954211	36823	106814	0	0	8139	762061	0	0
2024-04-13 15:29:32			0	33803	0	0	0	18693	17360	154010	27672	954243	36846	106812	0	0	8138	762675	0	0
2024-04-13 15:30:32			0	33811	0	0	0	18693	17360	153990	27557	954243	36846	106812	0	0	8138	762276	0	0
2024-04-13 15:31:32			0	33794	0	0	0	18677	17360	153974	27573	954270	36835	106806	0	0	8138	763123	0	0
2024-04-13 15:32:32			0	33823	0	0	0	18667	17360	153954	27632	954190	36825	106802	0	0	8140	761680	0	0
2024-04-13 15:33:32			0	33801	0	0	0	18664	17360	154022	27760	954235	36835	106801	0	0	8138	762774	0	0
2024-04-13 15:34:32			0	33796	0	0	0	18675	17360	154050	27902	954217	36835	106805	0	0	8138	763023	0	0
2024-04-13 15:35:32			0	33807	0	0	0	18693	17370	154062	28039	954199	36846	106812	0	0	8138	762434	0	0
2024-04-13 15:36:32			0	33798	0	0	0	18690	17370	154086	27946	954331	36846	106811	0	0	8138	762882	0	0
2024-04-13 15:37:32			0	33787	0	0	0	18677	17380	154002	27822	954241	36836	106806	0	0	8137	763389	0	0
2024-04-13 15:38:32			0	33788	0	0	0	18631	17360	154110	27861	954243	36835	106788	0	0	8138	763422	0	0
2024-04-13 15:39:32			0	33771	0	0	0	18592	17370	154022	27890	954146	36835	106773	0	0	8138	764228	0	0
2024-04-13 15:40:32			0	33787	0	0	0	18540	17370	153934	27732	954128	36835	106753	0	0	8140	763430	0	0
2024-04-13 15:41:32			0	33811	0	0	0	18519	17360	153878	27826	954024	36835	106745	0	0	8141	762276	0	0
2024-04-13 15:42:32			0	33847	0	0	0	18571	17340	153822	27968	954026	36823	106765	0	0	8142	760569	0	0
2024-04-13 15:43:32			0	33870	0	0	0	18631	17350	153778	28110	954060	36833	106788	0	0	8143	759386	0	0
2024-04-13 15:44:32			0	33874	0	0	0	18657	17340	153738	27887	954052	36833	106798	0	0	8143	759229	0	0
2024-04-13 15:45:32			0	33901	0	0	0	18587	17340	153674	27705	954105	36833	106771	0	0	8145	757891	0	0
2024-04-13 15:46:32			0	33906	0	0	0	18558	17350	153570	28043	954034	36833	106760	0	0	8146	757602	0	0
2024-04-13 15:47:32			0	33931	0	0	0	18540	17330	153398	27992	954063	36822	106753	0	0	8148	756447	0	0
2024-04-13 15:48:32			0	33951	0	0	0	18571	17320	153318	28136	954028	36832	106765	0	0	8148	755499	0	0
2024-04-13 15:49:32			0	33970	0	0	0	18545	17330	153334	27921	953991	36811	106755	0	0	8150	754520	0	0
2024-04-13 15:50:32			0	33993	0	0	0	18511	17320	153106	27708	953949	36821	106742	0	0	8152	753426	0	0
2024-04-13 15:51:32			0	34004	0	0	0	18558	17330	153086	27873	953991	36822	106760	0	0	8152	752843	0	0
2024-04-13 15:52:32			0	34038	0	0	0	18470	17320	152910	28150	953941	36842	106726	0	0	8155	751210	0	0
2024-04-13 15:53:32			0	34063	0	0	0	18410	17320	152754	27717	953914	36820	106703	0	0	8158	749981	0	0
2024-04-13 15:54:32			0	34088	0	0	0	18376	17290	152578	27734	953742	36808	106690	0	0	8159	748876	0	0
2024-04-13 15:55:32			0	34117	0	0	0	18342	17280	152454	27507	953620	36807	106677	0	0	8162	747494	0	0
2024-04-13 15:56:32			0	34172	0	0	0	18277	17260	152258	28031	953535	36794	106652	0	0	8166	744884	0	0
2024-04-13 15:57:32			0	34208	0	0	0	18277	17230	152118	27492	953406	36791	106652	0	0	8168	743247	0	0
2024-04-13 15:58:32			0	34251	0	0	0	18342	17210	151990	27562	953419	36800	106677	0	0	8169	741233	0	0
2024-04-13 15:59:32			0	34249	0	0	0	18444	17200	152026	27692	953437	36811	106716	0	0	8167	741370	0	0
2024-04-13 16:00:32			0	34256	0	0	0	18488	17200	152014	27866	953534	36800	106733	0	0	8167	741029	0	0
2024-04-13 16:01:32			0	34255	0	0	0	18509	17210	152050	27840	953551	36823	106741	0	0	8166	741038	0	0
2024-04-13 16:02:32			0	34220	0	0	0	18519	17210	152222	27909	953638	36823	106745	0	0	8164	742743	0	0
2024-04-13 16:03:32			0	34205	0	0	0	18537	17220	152202	27672	953654	36812	106752	0	0	8163	743434	0	0
2024-04-13 16:04:32			0	34231	0	0	0	18535	17230	152210	27452	953715	36824	106751	0	0	8165	742126	0	0
2024-04-13 16:05:32			0	34250	0	0	0	18506	17240	152194	27350	953811	36825	106740	0	0	8166	741161	0	0
2024-04-13 16:06:32			0	34231	0	0	0	18472	17250	152130	27469	953782	36804	106727	0	0	8166	742046	0	0
2024-04-13 16:07:32			0	34239	0	0	0	18384	17260	152130	27828	953738	36804	106693	0	0	8168	741616	0	0
2024-04-13 16:08:32			0	34236	0	0	0	18371	17250	152054	27878	953730	36827	106688	0	0	8168	741802	0	0
2024-04-13 16:09:32			0	34250	0	0	0	18314	17230	151946	28010	953486	36802	106666	0	0	8170	741201	0	0
2024-04-13 16:10:32			0	34243	0	0	0	18298	17220	151990	28305	953469	36780	106660	0	0	8169	741582	0	0
2024-04-13 16:11:32			0	34239	0	0	0	18314	17190	152106	27635	953394	36799	106666	0	0	8169	741898	0	0
2024-04-13 16:12:32			0	34209	0	0	0	18314	17180	152122	27899	953325	36809	106666	0	0	8167	743401	0	0
2024-04-13 16:13:32			0	34191	0	0	0	18293	17170	152294	27965	953248	36787	106658	0	0	8166	744320	0	0
2024-04-13 16:14:32			0	34167	0	0	0	18309	17150	152406	27954	953198	36785	106664	0	0	8164	745574	0	0
2024-04-13 16:15:32			0	34146	0	0	0	18306	17150	152530	27628	953189	36795	106663	0	0	8163	746601	0	0
2024-04-13 16:16:32			0	34142	0	0	0	18303	17130	152486	28313	953139	36794	106662	0	0	8163	746878	0	0
2024-04-13 16:17:32			0	34106	0	0	0	18319	17130	152582	27861	953139	36794	106668	0	0	8161	748643	0	0
2024-04-13 16:18:32			0	34117	0	0	0	18316	17130	152618	27819	953183	36793	106667	0	0	8161	748103	0	0
2024-04-13 16:19:32			0	34125	0	0	0	18311	17130	152630	27947	953271	36794	106665	0	0	8162	747711	0	0
2024-04-13 16:20:32			0	34126	0	0	0	18340	17120	152626	27774	953202	36783	106676	0	0	8161	747703	0	0
2024-04-13 16:21:32			0	34127	0	0	0	18355	17130	152642	28098	953342	36804	106682	0	0	8161	747613	0	0
2024-04-13 16:22:32			0	34128	0	0	0	18394	17140	152630	27722	953411	36805	106697	0	0	8161	747524	0	0
2024-04-13 16:23:32			0	34119	0	0	0	18420	17150	152874	28015	953461	36807	106707	0	0	8160	747924	0	0
2024-04-13 16:24:32			0	34116	0	0	0	18407	17170	152838	28136	953547	36808	106702	0	0	8160	747990	0	0
2024-04-13 16:25:32			0	34106	0	0	0	18374	17170	152766	27857	953512	36808	106689	0	0	8160	748481	0	0
2024-04-13 16:26:32			0	34117	0	0	0	18379	17180	152662	27587	953484	36809	106691	0	0	8161	747900	0	0
2024-04-13 16:27:32			0	34113	0	0	0	18441	17190	152530	27755	953650	36810	106715	0	0	8159	748056	0	0
2024-04-13 16:28:32			0	34118	0	0	0	18438	17200	152610	27691	953587	36811	106714	0	0	8160	747770	0	0
2024-04-13 16:29:32			0	34138	0	0	0	18412	17200	152594	27973	953622	36822	106704	0	0	8161	746790	0	0
2024-04-13 16:30:32			0	34135	0	0	0	18402	17190	152570	28188	953492	36799	106700	0	0	8161	746978	0	0
2024-04-13 16:31:32			0	34136	0	0	0	18420	17190	152510	27913	953526	36821	106707	0	0	8161	746929	0	0
2024-04-13 16:32:32			0	34142	0	0	0	18480	17190	152386	28074	953632	36821	106730	0	0	8160	746635	0	0
2024-04-13 16:33:32			0	34138	0	0	0	18451	17210	152434	27691	953691	36823	106719	0	0	8161	746750	0	0
2024-04-13 16:34:32			0	34161	0	0	0	18381	17230	152494	27979	953715	36802	106692	0	0	8163	745543	0	0
2024-04-13 16:35:32			0	34164	0	0	0	18415	17220	152374	28041	953681	36834	106705	0	0	8163	745437	0	0
2024-04-13 16:36:32			0	34152	0	0	0	18348	17240	152290	28275	953652	36803	106679	0	0	8163	745943	0	0
2024-04-13 16:37:32			0	34186	0	0	0	18335	17220	152194	27563	953541	36801	106674	0	0	8165	744362	0	0
2024-04-13 16:38:32			0	34197	0	0	0	18314	17210	152190	28152	953498	36790	106666	0	0	8166	743865	0	0
2024-04-13 16:39:32			0	34184	0	0	0	18332	17200	152138	27953	953455	36789	106673	0	0	8165	744540	0	0
2024-04-13 16:40:32			0	34194	0	0	0	18355	17190	152114	28150	953465	36799	106682	0	0	8165	744092	0	0
2024-04-13 16:41:32			0	34188	0	0	0	18420	17190	152314	27607	953545	36810	106707	0	0	8164	744385	0	0
2024-04-13 16:42:32			0	34151	0	0	0	18483	17210	152390	27914	953735	36823	106731	0	0	8161	746113	0	0
2024-04-13 16:43:32			0	34155	0	0	0	18496	17230	152430	27440	953794	36824	106736	0	0	8161	745837	0	0
2024-04-13 16:44:32			0	34137	0	0	0	18574	17240	152634	28195	954004	36826	106766	0	0	8159	746677	0	0
2024-04-13 16:45:32			0	34119	0	0	0	18576	17290	152730	27819	954130	36830	106767	0	0	8158	747356	0	0
2024-04-13 16:46:32			0	34097	0	0	0	18532	17300	152702	28190	954207	36831	106750	0	0	8157	748394	0	0
2024-04-13 16:47:32			0	34083	0	0	0	18467	17310	152670	28017	954030	36809	106725	0	0	8158	749040	0	0
2024-04-13 16:48:32			0	34084	0	0	0	18415	17310	152586	27699	953951	36809	106705	0	0	8159	748991	0	0
2024-04-13 16:49:32			0	34102	0	0	0	18407	17300	152502	28436	953916	36820	106702	0	0	8160	748148	0	0
2024-04-13 16:50:32			0	34141	0	0	0	18376	17290	152398	28076	953795	36819	106690	0	0	8163	746279	0	0
2024-04-13 16:51:32			0	34152	0	0	0	18368	17270	152366	27972	953754	36794	106687	0	0	8163	745821	0	0
2024-04-13 16:52:32			0	34154	0	0	0	18355	17270	152234	27900	953709	36785	106682	0	0	8164	745724	0	0
2024-04-13 16:53:32			0	34152	0	0	0	18376	17250	152350	28103	953624	36804	106690	0	0	8163	745902	0	0
2024-04-13 16:54:32			0	34164	0	0	0	18358	17240	152318	27850	953608	36792	106683	0	0	8164	745356	0	0
2024-04-13 16:55:32			0	34145	0	0	0	18368	17230	152378	27748	953478	36781	106687	0	0	8163	746326	0	0
2024-04-13 16:56:32			0	34139	0	0	0	18355	17200	152434	27791	953384	36800	106682	0	0	8162	746741	0	0
2024-04-13 16:57:32			0	34141	0	0	0	18361	17200	152394	27757	953403	36778	106684	0	0	8162	746644	0	0
2024-04-13 16:58:32			0	34135	0	0	0	18361	17180	152518	27783	953344	36788	106684	0	0	8162	747018	0	0
2024-04-13 16:59:32			0	34128	0	0	0	18355	17170	152526	27810	953309	36797	106682	0	0	8162	747402	0	0
2024-04-13 17:00:32			0	34122	0	0	0	18350	17170	152562	27786	953301	36787	106680	0	0	8161	747696	0	0
2024-04-13 17:01:32			0	34112	0	0	0	18358	17150	152614	27441	953250	36785	106683	0	0	8160	748268	0	0
2024-04-13 17:02:32			0	34118	0	0	0	18337	17150	152582	27885	953198	36795	106675	0	0	8161	747973	0	0
2024-04-13 17:03:32			0	34112	0	0	0	18335	17140	152630	27769	953287	36795	106674	0	0	8161	748308	0	0
2024-04-13 17:04:32			0	34098	0	0	0	18342	17130	152654	27795	953263	36783	106677	0	0	8160	749036	0	0
2024-04-13 17:05:32			0	34107	0	0	0	18337	17130	152706	27680	953297	36794	106675	0	0	8160	748594	0	0
2024-04-13 17:06:32			0	34099	0	0	0	18345	17130	152658	27880	953271	36784	106678	0	0	8160	748987	0	0
2024-04-13 17:07:32			0	34098	0	0	0	18366	17130	152602	27672	953315	36793	106686	0	0	8159	749036	0	0
2024-04-13 17:08:32			0	34110	0	0	0	18397	17130	152698	27743	953342	36804	106698	0	0	8160	748447	0	0
2024-04-13 17:09:32			0	34103	0	0	0	18412	17130	152642	28103	953323	36794	106704	0	0	8159	748790	0	0
2024-04-13 17:10:32			0	34090	0	0	0	18381	17140	152678	27661	953287	36806	106692	0	0	8159	749388	0	0
2024-04-13 17:11:32			0	34112	0	0	0	18366	17130	152746	27540	953263	36793	106686	0	0	8160	748349	0	0
2024-04-13 17:12:32			0	34101	0	0	0	18366	17130	152766	27921	953183	36793	106686	0	0	8160	748888	0	0
2024-04-13 17:13:32			0	34095	0	0	0	18361	17130	152722	27734	953263	36793	106684	0	0	8159	749183	0	0
2024-04-13 17:14:32			0	34108	0	0	0	18361	17130	152666	27843	953289	36815	106684	0	0	8160	748545	0	0
2024-04-13 17:15:32			0	34112	0	0	0	18350	17130	152714	28386	953263	36793	106680	0	0	8161	748349	0	0
2024-04-13 17:16:32			0	34119	0	0	0	18355	17120	152730	27946	953220	36792	106682	0	0	8161	748046	0	0
2024-04-13 17:17:32			0	34130	0	0	0	18363	17120	152630	28386	953202	36804	106685	0	0	8161	747507	0	0
2024-04-13 17:18:32			0	34115	0	0	0	18392	17120	152570	27763	953254	36804	106696	0	0	8160	748242	0	0
2024-04-13 17:19:32			0	34134	0	0	0	18410	17120	152610	28338	953246	36803	106703	0	0	8161	747311	0	0
2024-04-13 17:20:32			0	34139	0	0	0	18441	17110	152522	28081	953291	36792	106715	0	0	8160	747106	0	0
2024-04-13 17:21:32			0	34143	0	0	0	18480	17130	152558	27881	953482	36816	106730	0	0	8160	746829	0	0
2024-04-13 17:22:32			0	34163	0	0	0	18503	17150	152546	27677	953514	36818	106739	0	0	8161	745769	0	0
2024-04-13 17:23:32			0	34147	0	0	0	18511	17160	152526	28074	953575	36829	106742	0	0	8160	746512	0	0
2024-04-13 17:24:32			0	34168	0	0	0	18542	17170	152490	27956	953652	36819	106754	0	0	8161	745444	0	0
2024-04-13 17:25:32			0	34151	0	0	0	18589	17190	152590	27895	953817	36842	106772	0	0	8159	746194	0	0
2024-04-13 17:26:32			0	34153	0	0	0	18638	17210	152590	28043	953867	36844	106791	0	0	8158	746016	0	0
2024-04-13 17:27:32			0	34150	0	0	0	18716	17240	152466	28031	954030	36847	106821	0	0	8157	746041	0	0
2024-04-13 17:28:32			0	34185	0	0	0	18784	17270	152470	27581	954237	36861	106847	0	0	8158	744208	0	0
2024-04-13 17:29:32			0	34194	0	0	0	18864	17310	152358	27717	954532	36875	106878	0	0	8157	743608	0	0
2024-04-13 17:30:32			0	34209	0	0	0	18812	17350	152242	28100	954649	36877	106858	0	0	8159	742714	0	0
2024-04-13 17:31:32			0	34211	0	0	0	18771	17380	152254	27469	954690	36859	106842	0	0	8160	742496	0	0
2024-04-13 17:32:32			0	34200	0	0	0	18664	17400	152174	27848	954670	36860	106801	0	0	8162	742951	0	0
2024-04-13 17:33:32			0	34208	0	0	0	18628	17400	152062	27961	954520	36849	106787	0	0	8163	742561	0	0
2024-04-13 17:34:32			0	34205	0	0	0	18605	17410	152118	27602	954449	36838	106778	0	0	8163	742667	0	0
2024-04-13 17:35:32			0	34210	0	0	0	18532	17390	152190	27647	954292	36837	106750	0	0	8164	742504	0	0
2024-04-13 17:36:32			0	34204	0	0	0	18501	17380	152086	27734	954276	36826	106738	0	0	8164	742837	0	0
2024-04-13 17:37:32			0	34211	0	0	0	18428	17370	151950	27711	954207	36825	106710	0	0	8166	742536	0	0
2024-04-13 17:38:32			0	34217	0	0	0	18410	17360	151898	27833	954085	36825	106703	0	0	8167	742284	0	0
2024-04-13 17:39:32			0	34256	0	0	0	18366	17340	151818	27781	953973	36833	106686	0	0	8170	740466	0	0
2024-04-13 17:40:32			0	34273	0	0	0	18332	17330	151606	28376	953878	36811	106673	0	0	8171	739680	0	0
2024-04-13 17:41:32			0	34298	0	0	0	18251	17310	151626	27758	953792	36809	106642	0	0	8174	738546	0	0
2024-04-13 17:42:32			0	34317	0	0	0	18238	17280	151478	27644	953646	36818	106637	0	0	8175	737744	0	0
2024-04-13 17:43:32			0	34323	0	0	0	18275	17260	151426	27569	953640	36805	106651	0	0	8175	737533	0	0
2024-04-13 17:44:32			0	34329	0	0	0	18257	17260	151422	27594	953579	36816	106644	0	0	8175	737243	0	0
2024-04-13 17:45:32			0	34337	0	0	0	18231	17240	151374	27852	953581	36815	106634	0	0	8176	736935	0	0
2024-04-13 17:46:32			0	34370	0	0	0	18259	17230	151383	27979	953486	36791	106645	0	0	8177	735377	0	0
2024-04-13 17:47:32			0	34331	0	0	0	18285	17210	151502	27743	953506	36790	106655	0	0	8175	737346	0	0
2024-04-13 17:48:32			0	34344	0	0	0	18322	17210	151542	28259	953498	36800	106669	0	0	8175	736716	0	0
2024-04-13 17:49:32			0	34309	0	0	0	18371	17200	151682	27706	953482	36811	106688	0	0	8172	738453	0	0
2024-04-13 17:50:32			0	34322	0	0	0	18511	17220	151710	27724	953725	36823	106742	0	0	8170	737742	0	0
2024-04-13 17:51:32			0	34282	0	0	0	18748	17240	151938	27490	954048	36835	106833	0	0	8164	739604	0	0
2024-04-13 17:52:32			0	34240	0	0	0	18844	17280	152078	27569	954359	36850	106870	0	0	8160	741486	0	0
2024-04-13 17:53:32			0	34199	0	0	0	18831	17330	152334	28041	954617	36887	106865	0	0	8158	743283	0	0
2024-04-13 17:54:32			0	34171	0	0	0	18841	17380	152430	27840	954743	36880	106869	0	0	8157	744447	0	0
2024-04-13 17:55:32			0	34154	0	0	0	18862	17400	152466	27753	954836	36882	106877	0	0	8156	745197	0	0
2024-04-13 17:56:32			0	34143	0	0	0	18838	17450	152458	27977	955042	36875	106868	0	0	8156	745532	0	0
2024-04-13 17:57:32			0	34138	0	0	0	18867	17480	152434	27500	955098	36889	106879	0	0	8155	745655	0	0
2024-04-13 17:58:32			0	34148	0	0	0	18820	17490	152402	27857	955194	36879	106861	0	0	8156	745126	0	0
2024-04-13 17:59:32			0	34154	0	0	0	18737	17530	152262	27715	955145	36893	106829	0	0	8158	744670	0	0
2024-04-13 18:00:32			0	34146	0	0	0	18672	17550	152142	27845	955265	36895	106804	0	0	8159	744980	0	0
2024-04-13 18:01:32			0	34180	0	0	0	18597	17560	152102	27758	955115	36895	106775	0	0	8162	743280	0	0
2024-04-13 18:02:32			0	34185	0	0	0	18509	17550	151914	27595	954967	36862	106741	0	0	8164	743077	0	0
2024-04-13 18:03:32			0	34239	0	0	0	18389	17540	151710	27989	954660	36849	106695	0	0	8169	740488	0	0
2024-04-13 18:04:32			0	34244	0	0	0	18290	17480	151606	27604	954412	36813	106657	0	0	8171	740486	0	0
2024-04-13 18:05:32			0	34261	0	0	0	18296	17460	151498	27796	954239	36821	106659	0	0	8172	739740	0	0
2024-04-13 18:06:32			0	34290	0	0	0	18236	17420	151374	27609	954130	36819	106636	0	0	8174	738493	0	0
2024-04-13 18:07:32			0	34320	0	0	0	18181	17400	151334	27661	953965	36805	106615	0	0	8177	737118	0	0
2024-04-13 18:08:32			0	34308	0	0	0	18225	17370	151342	27512	953864	36792	106632	0	0	8175	737820	0	0
2024-04-13 18:09:32			0	34308	0	0	0	18171	17350	151454	27509	953691	36790	106611	0	0	8176	737900	0	0
2024-04-13 18:10:32			0	34284	0	0	0	18148	17300	151610	27434	953468	36776	106602	0	0	8175	739266	0	0
2024-04-13 18:11:32			0	34235	0	0	0	18135	17260	151778	27706	953323	36773	106597	0	0	8172	741810	0	0
2024-04-13 18:12:32			0	34227	0	0	0	18101	17220	151806	27485	953224	36769	106584	0	0	8172	742361	0	0
2024-04-13 18:13:32			0	34214	0	0	0	18148	17190	152054	27708	953202	36789	106602	0	0	8170	743116	0	0
2024-04-13 18:14:32			0	34175	0	0	0	18140	17180	152206	27992	953159	36788	106599	0	0	8168	745061	0	0
2024-04-13 18:15:32			0	34158	0	0	0	18163	17170	152254	27675	953064	36776	106608	0	0	8167	745933	0	0
2024-04-13 18:16:32			0	34159	0	0	0	18155	17140	152402	27630	953023	36762	106605	0	0	8167	746005	0	0
2024-04-13 18:17:32			0	34149	0	0	0	18155	17130	152418	27644	953183	36793	106605	0	0	8166	746536	0	0
2024-04-13 18:18:32			0	34147	0	0	0	18402	17130	152610	27873	953271	36794	106700	0	0	8162	746633	0	0
2024-04-13 18:19:32			0	34174	0	0	0	18322	17160	152370	27595	953575	36807	106669	0	0	8165	745191	0	0
2024-04-13 18:20:32			0	34206	0	0	0	18262	17180	152278	27895	953581	36820	106646	0	0	8168	743547	0	0
2024-04-13 18:21:32			0	34218	0	0	0	18228	17190	152186	27682	953597	36810	106633	0	0	8169	742921	0	0
2024-04-13 18:22:32			0	34234	0	0	0	18145	17190	152078	27509	953386	36789	106601	0	0	8171	742141	0	0
2024-04-13 18:23:32			0	34226	0	0	0	18127	17180	152054	27845	953265	36777	106594	0	0	8171	742571	0	0
2024-04-13 18:24:32			0	34196	0	0	0	18153	17150	152158	27951	953250	36763	106604	0	0	8169	744156	0	0
2024-04-13 18:25:32			0	34191	0	0	0	18202	17150	152294	27802	953356	36785	106623	0	0	8168	744400	0	0
2024-04-13 18:26:32			0	34164	0	0	0	18210	17180	152466	27635	953528	36798	106626	0	0	8166	745599	0	0
2024-04-13 18:27:32			0	34163	0	0	0	18246	17190	152406	27868	953624	36810	106640	0	0	8166	745607	0	0
2024-04-13 18:28:32			0	34136	0	0	0	18303	17200	152514	27789	953746	36800	106662	0	0	8163	746888	0	0
2024-04-13 18:29:32			0	34156	0	0	0	18374	17230	152474	27881	953900	36802	106689	0	0	8163	745788	0	0
2024-04-13 18:30:32			0	34138	0	0	0	18493	17250	152538	27715	953959	36804	106735	0	0	8160	746587	0	0
2024-04-13 18:31:32			0	34125	0	0	0	18675	17270	152554	27843	954176	36827	106805	0	0	8156	747143	0	0
2024-04-13 18:32:32			0	34124	0	0	0	18763	17310	152614	27814	954532	36842	106839	0	0	8155	747030	0	0
2024-04-13 18:33:32			0	34123	0	0	0	18857	17360	152722	27959	954824	36857	106875	0	0	8154	746876	0	0
2024-04-13 18:34:32			0	34071	0	0	0	19002	17410	152790	27562	955109	36871	106931	0	0	8148	749222	0	0
2024-04-13 18:35:32			0	34062	0	0	0	18932	17450	152938	27274	955200	36897	106904	0	0	8149	749500	0	0
2024-04-13 18:36:32			0	34016	0	0	0	18794	17490	152942	27661	955353	36901	106851	0	0	8149	751598	0	0
2024-04-13 18:37:32			0	34004	0	0	0	18672	17530	152938	27274	955357	36893	106804	0	0	8151	752025	0	0
2024-04-13 18:38:32			0	34005	0	0	0	18553	17540	152894	27602	955302	36894	106758	0	0	8153	751935	0	0
2024-04-13 18:39:32			0	33991	0	0	0	18368	17560	152810	27478	955168	36874	106687	0	0	8155	752542	0	0
2024-04-13 18:40:32			0	34005	0	0	0	18340	17560	152734	27424	955070	36841	106676	0	0	8157	751853	0	0
2024-04-13 18:41:32			0	34013	0	0	0	18244	17550	152574	27490	954737	36830	106639	0	0	8159	751500	0	0
2024-04-13 18:42:32			0	33996	0	0	0	18189	17500	152742	27571	954418	36803	106618	0	0	8158	752542	0	0
2024-04-13 18:43:32			0	33972	0	0	0	18150	17460	152790	27571	954239	36789	106603	0	0	8157	753888	0	0
2024-04-13 18:44:32			0	33959	0	0	0	18142	17440	152810	27260	954128	36797	106600	0	0	8157	754612	0	0
2024-04-13 18:45:32			0	33963	0	0	0	18119	17420	152818	27633	954077	36797	106591	0	0	8157	754496	0	0
2024-04-13 18:46:32			0	33954	0	0	0	18088	17400	152962	27549	953965	36784	106579	0	0	8157	755023	0	0
2024-04-13 18:47:32			0	33957	0	0	0	18116	17370	153126	27260	953864	36771	106590	0	0	8157	754998	0	0
2024-04-13 18:48:32			0	33940	0	0	0	18106	17350	153222	27409	953699	36758	106586	0	0	8156	755920	0	0
2024-04-13 18:49:32			0	33936	0	0	0	18090	17310	153270	27495	953608	36744	106580	0	0	8156	756282	0	0
2024-04-13 18:50:32			0	33934	0	0	0	18077	17290	153278	27367	953610	36775	106575	0	0	8156	756463	0	0
2024-04-13 18:51:32			0	33937	0	0	0	18090	17280	153310	27426	953620	36742	106580	0	0	8156	756356	0	0
2024-04-13 18:52:32			0	33928	0	0	0	18132	17300	153298	27703	953803	36796	106596	0	0	8154	756719	0	0
2024-04-13 18:53:32			0	33932	0	0	0	18106	17300	153250	27687	953776	36786	106586	0	0	8155	756521	0	0
2024-04-13 18:54:32			0	33934	0	0	0	18085	17270	153286	27474	953551	36774	106578	0	0	8155	756545	0	0
2024-04-13 18:55:32			0	33918	0	0	0	18070	17260	153290	27234	953315	36728	106572	0	0	8155	757378	0	0
2024-04-13 18:56:32			0	33921	0	0	0	18051	17220	153298	27656	953258	36736	106565	0	0	8155	757394	0	0
2024-04-13 18:57:32			0	33901	0	0	0	18044	17200	153430	27286	953218	36735	106562	0	0	8154	758467	0	0
2024-04-13 18:58:32			0	33910	0	0	0	18085	17170	153454	27241	953204	36721	106578	0	0	8154	758145	0	0
2024-04-13 18:59:32			0	33899	0	0	0	18267	17190	153542	27724	953553	36766	106648	0	0	8150	758608	0	0
2024-04-13 19:00:32			0	33878	0	0	0	18979	17230	154122	27450	954032	36824	106922	0	0	8137	759485	0	0
2024-04-13 19:01:32			0	33866	0	0	0	19135	17270	154258	27920	954528	36839	106982	0	0	8134	759915	0	0
2024-04-13 19:02:32			0	33865	0	0	0	19150	17340	154418	27213	954844	36844	106988	0	0	8134	759676	0	0
2024-04-13 19:03:32			0	33834	0	0	0	19023	17400	154318	27595	955101	36860	106939	0	0	8134	760967	0	0
2024-04-13 19:04:32			0	33813	0	0	0	19111	17450	154162	27329	955226	36864	106973	0	0	8132	761804	0	0
2024-04-13 19:05:32			0	33811	0	0	0	19072	17480	154254	27569	955389	36900	106958	0	0	8133	761779	0	0
2024-04-13 19:06:32			0	33803	0	0	0	19135	17540	154094	27457	955619	36894	106982	0	0	8131	761929	0	0
2024-04-13 19:07:32			0	33802	0	0	0	18997	17570	154094	27550	955712	36907	106929	0	0	8134	761854	0	0
2024-04-13 19:08:32			0	33801	0	0	0	19090	17600	153866	27279	955796	36910	106965	0	0	8132	761780	0	0
2024-04-13 19:09:32			0	33797	0	0	0	19085	17640	153758	27313	955897	36923	106963	0	0	8132	761812	0	0
2024-04-13 19:10:32			0	33805	0	0	0	19142	17660	153822	27727	955885	36915	106985	0	0	8132	761332	0	0
2024-04-13 19:11:32			0	33781	0	0	0	19176	17690	153950	27703	955979	36916	106998	0	0	8130	762401	0	0
2024-04-13 19:12:32			0	33796	0	0	0	19028	17710	153850	27517	956099	36930	106941	0	0	8134	761572	0	0
2024-04-13 19:13:32			0	33778	0	0	0	18545	17740	153794	27332	955963	36932	106755	0	0	8141	762342	0	0
2024-04-13 19:14:32			0	33812	0	0	0	18350	17730	153458	27706	955709	36899	106680	0	0	8146	760694	0	0
2024-04-13 19:15:32			0	33809	0	0	0	18353	17720	153390	27398	955508	36865	106681	0	0	8146	760885	0	0
2024-04-13 19:16:32			0	33831	0	0	0	18257	17700	153322	27384	955256	36863	106644	0	0	8149	759875	0	0
2024-04-13 19:17:32			0	33848	0	0	0	18231	17660	153174	27312	955014	36838	106634	0	0	8150	759197	0	0
2024-04-13 19:18:32			0	33847	0	0	0	18389	17640	153310	27630	955087	36859	106695	0	0	8147	759330	0	0
2024-04-13 19:19:32			0	33818	0	0	0	18428	17640	153458	27348	955343	36858	106710	0	0	8145	760769	0	0
2024-04-13 19:20:32			0	33849	0	0	0	18306	17630	153326	27386	955142	36846	106663	0	0	8148	759272	0	0
2024-04-13 19:21:32			0	33836	0	0	0	18503	17630	153474	27658	955282	36846	106739	0	0	8144	759917	0	0
2024-04-13 19:22:32			0	33814	0	0	0	18893	17640	153714	27547	955448	36847	106889	0	0	8137	760968	0	0
2024-04-13 19:23:32			0	33794	0	0	0	19015	17650	153862	27874	955623	36859	106936	0	0	8133	761920	0	0
2024-04-13 19:24:32			0	33785	0	0	0	19137	17670	153886	27575	955769	36872	106983	0	0	8131	762285	0	0
2024-04-13 19:25:32			0	33757	0	0	0	19215	17700	154126	27566	955916	36874	107013	0	0	8128	763554	0	0
2024-04-13 19:26:32			0	33765	0	0	0	19290	17720	154138	27365	956028	36908	107042	0	0	8127	763073	0	0
2024-04-13 19:27:32			0	33738	0	0	0	19316	17740	154150	27336	956201	36911	107052	0	0	8125	764335	0	0
2024-04-13 19:28:32			0	33728	0	0	0	19311	17770	154206	27495	956303	36913	107050	0	0	8125	764708	0	0
2024-04-13 19:29:32			0	33729	0	0	0	19322	17800	154134	27279	956370	36926	107054	0	0	8125	764533	0	0
2024-04-13 19:30:32			0	33730	0	0	0	19314	17820	154194	27647	956410	36928	107051	0	0	8125	764400	0	0
2024-04-13 19:31:32			0	33709	0	0	0	19309	17830	154226	27805	956532	36940	107049	0	0	8124	765406	0	0
2024-04-13 19:32:32			0	33711	0	0	0	19311	17850	154142	27296	956512	36931	107050	0	0	8124	765223	0	0
2024-04-13 19:33:32			0	33700	0	0	0	19275	17880	154134	27447	956606	36932	107036	0	0	8125	765646	0	0
2024-04-13 19:34:32			0	33705	0	0	0	19205	17890	154082	27597	956569	36945	107009	0	0	8126	765355	0	0
2024-04-13 19:35:32			0	33706	0	0	0	18799	17890	153994	27248	956490	36934	106853	0	0	8133	765305	0	0
2024-04-13 19:36:32			0	33716	0	0	0	18506	17890	153794	27452	956366	36934	106740	0	0	8139	764807	0	0
2024-04-13 19:37:32			0	33729	0	0	0	18376	17860	153622	27478	955974	36910	106690	0	0	8141	764283	0	0
2024-04-13 19:38:32			0	33747	0	0	0	18161	17840	153526	27552	955465	36854	106607	0	0	8146	763470	0	0
2024-04-13 19:39:32			0	33754	0	0	0	18101	17750	153502	27557	954756	36791	106584	0	0	8147	763495	0	0
2024-04-13 19:40:32			0	33760	0	0	0	18067	17640	153470	27663	954207	36771	106571	0	0	8147	763654	0	0
2024-04-13 19:41:32			0	33762	0	0	0	18018	17530	153470	27424	953772	36762	106552	0	0	8148	764011	0	0
2024-04-13 19:42:32			0	33786	0	0	0	17997	17440	153566	27180	953441	36754	106544	0	0	8149	763189	0	0
2024-04-13 19:43:32			0	33802	0	0	0	17971	17350	153490	27668	953224	36758	106534	0	0	8150	762766	0	0
2024-04-13 19:44:32			0	33804	0	0	0	17968	17280	153694	27331	952960	36774	106533	0	0	8150	762957	0	0
2024-04-13 19:45:32			0	33807	0	0	0	17961	17220	153778	27720	952810	36747	106530	0	0	8150	763056	0	0
2024-04-13 19:46:32			0	33813	0	0	0	17958	17170	153718	27293	952694	36765	106529	0	0	8150	762964	0	0
2024-04-13 19:47:32			0	33813	0	0	0	17953	17110	153942	27452	952473	36771	106527	0	0	8150	763213	0	0
2024-04-13 19:48:32			0	33839	0	0	0	17953	17070	153946	27201	952487	36756	106527	0	0	8151	762083	0	0
2024-04-13 19:49:32			0	33808	0	0	0	17950	17050	153982	27516	952367	36765	106526	0	0	8149	763710	0	0
2024-04-13 19:50:32			0	33834	0	0	0	17953	17010	154090	27268	952337	36751	106527	0	0	8151	762580	0	0
2024-04-13 19:51:32			0	33823	0	0	0	17963	16980	154122	27531	952217	36760	106531	0	0	8150	763253	0	0
2024-04-13 19:52:32			0	33821	0	0	0	17974	16950	154178	27329	952239	36768	106535	0	0	8149	763476	0	0
2024-04-13 19:53:32			0	33821	0	0	0	17981	16940	154258	27578	952223	36756	106538	0	0	8149	763518	0	0
2024-04-13 19:54:32			0	33816	0	0	0	17968	16920	154186	27476	952191	36765	106533	0	0	8149	763850	0	0
2024-04-13 19:55:32			0	33814	0	0	0	17963	16900	154174	27369	952106	36752	106531	0	0	8149	764033	0	0
2024-04-13 19:56:32			0	33820	0	0	0	17955	16870	154250	27211	952039	36750	106528	0	0	8149	763858	0	0
2024-04-13 19:57:32			0	33833	0	0	0	17953	16850	154330	27267	952006	36771	106527	0	0	8150	763292	0	0
2024-04-13 19:58:32			0	33800	0	0	0	17997	16850	154394	27438	952024	36771	106544	0	0	8147	764938	0	0
2024-04-13 19:59:32			0	33819	0	0	0	17971	16850	154362	27395	951998	36749	106534	0	0	8149	763990	0	0
2024-04-13 20:00:32			0	33797	0	0	0	17963	16840	154398	27352	951982	36759	106531	0	0	8147	765130	0	0
2024-04-13 20:01:32			0	33808	0	0	0	17953	16820	154366	27410	951905	36757	106527	0	0	8148	764663	0	0
2024-04-13 20:02:32			0	33825	0	0	0	17945	16800	154362	27438	951925	36766	106524	0	0	8149	763898	0	0
2024-04-13 20:03:32			0	33803	0	0	0	17961	16800	154426	27306	952057	36778	106530	0	0	8148	764996	0	0
2024-04-13 20:04:32			0	33809	0	0	0	17992	16820	154494	27081	952195	36768	106542	0	0	8148	764613	0	0
2024-04-13 20:05:32			0	33780	0	0	0	17997	16820	154470	27222	952168	36768	106544	0	0	8146	766062	0	0
2024-04-13 20:06:32			0	33801	0	0	0	18007	16830	154526	27286	952177	36779	106548	0	0	8147	764971	0	0
2024-04-13 20:07:32			0	33785	0	0	0	17989	16840	154470	27440	952201	36771	106541	0	0	8146	765729	0	0
2024-04-13 20:08:32			0	33795	0	0	0	18002	16830	154494	27204	952158	36769	106546	0	0	8147	765271	0	0
2024-04-13 20:09:32			0	33786	0	0	0	17986	16820	154550	27348	952168	36768	106540	0	0	8146	765762	0	0
2024-04-13 20:10:32			0	33792	0	0	0	17999	16830	154510	27483	952132	36769	106545	0	0	8147	765421	0	0
2024-04-13 20:11:32			0	33785	0	0	0	18041	16830	154458	27157	952211	36780	106561	0	0	8145	765771	0	0
2024-04-13 20:12:32			0	33803	0	0	0	18046	16840	154526	27263	952280	36771	106563	0	0	8146	764830	0	0
2024-04-13 20:13:32			0	33785	0	0	0	18018	16830	154518	27357	952177	36779	106552	0	0	8146	765771	0	0
2024-04-13 20:14:32			0	33775	0	0	0	18020	16820	154530	27774	952063	36768	106553	0	0	8145	766312	0	0
2024-04-13 20:15:32			0	33787	0	0	0	17992	16820	154514	27234	952116	36757	106542	0	0	8146	765712	0	0
2024-04-13 20:16:32			0	33789	0	0	0	17984	16810	154594	27241	952100	36767	106539	0	0	8146	765654	0	0
2024-04-13 20:17:32			0	33779	0	0	0	17955	16820	154718	27549	951949	36757	106528	0	0	8146	766112	0	0
2024-04-13 20:18:32			0	33777	0	0	0	17942	16790	154646	27592	951882	36766	106523	0	0	8146	766337	0	0
2024-04-13 20:19:32			0	33763	0	0	0	17929	16770	154694	27078	951771	36764	106518	0	0	8146	767120	0	0
2024-04-13 20:20:32			0	33779	0	0	0	17924	16760	154698	27530	951747	36762	106516	0	0	8147	766361	0	0
2024-04-13 20:21:32			0	33772	0	0	0	17922	16740	154658	27015	951643	36750	106515	0	0	8146	766794	0	0
2024-04-13 20:22:32			0	33765	0	0	0	17919	16730	154654	27211	951574	36761	106514	0	0	8146	767186	0	0
2024-04-13 20:23:32			0	33787	0	0	0	17911	16700	154614	27594	951560	36748	106511	0	0	8147	766210	0	0
2024-04-13 20:24:32			0	33784	0	0	0	17914	16700	154634	27679	951507	36758	106512	0	0	8147	766360	0	0
2024-04-13 20:25:32			0	33799	0	0	0	17898	16690	154702	27405	951544	36757	106506	0	0	8148	765652	0	0
2024-04-13 20:26:32			0	33806	0	0	0	17919	16680	154570	27746	951440	36756	106514	0	0	8148	765343	0	0
2024-04-13 20:27:32			0	33805	0	0	0	17942	16680	154702	27395	951467	36767	106523	0	0	8148	765393	0	0
2024-04-13 20:28:32			0	33800	0	0	0	17953	16670	154686	27305	951529	36755	106527	0	0	8147	765685	0	0
2024-04-13 20:29:32			0	33806	0	0	0	17961	16670	154634	27594	951556	36766	106530	0	0	8147	765385	0	0
2024-04-13 20:30:32			0	33799	0	0	0	17958	16670	154662	27571	951556	36777	106529	0	0	8147	765735	0	0
2024-04-13 20:31:32			0	33817	0	0	0	17971	16680	154698	27680	951607	36768	106534	0	0	8148	764794	0	0
2024-04-13 20:32:32			0	33807	0	0	0	17992	16680	154722	27329	951633	36768	106542	0	0	8147	765293	0	0
2024-04-13 20:33:32			0	33813	0	0	0	18036	16680	154598	27213	951686	36768	106559	0	0	8146	764994	0	0
2024-04-13 20:34:32			0	33807	0	0	0	18070	16690	154674	27499	951720	36790	106572	0	0	8146	765252	0	0
2024-04-13 20:35:32			0	33813	0	0	0	18072	16690	154694	27130	951755	36791	106573	0	0	8146	764952	0	0
2024-04-13 20:36:32			0	33836	0	0	0	18075	16710	154654	27265	951805	36781	106574	0	0	8147	763722	0	0
2024-04-13 20:37:32			0	33833	0	0	0	18062	16710	154586	27640	951832	36792	106569	0	0	8147	763871	0	0
2024-04-13 20:38:32			0	33828	0	0	0	18049	16720	154562	27360	951882	36792	106564	0	0	8147	764079	0	0
2024-04-13 20:39:32			0	33865	0	0	0	18041	16720	154490	27308	951795	36803	106561	0	0	8150	762235	0	0
2024-04-13 20:40:32			0	33868	0	0	0	17999	16720	154330	27313	951795	36781	106545	0	0	8150	762086	0	0
2024-04-13 20:41:32			0	33863	0	0	0	17979	16720	154270	27109	951742	36770	106537	0	0	8150	762335	0	0
2024-04-13 20:42:32			0	33856	0	0	0	17968	16710	154258	27204	951708	36781	106533	0	0	8150	762725	0	0
2024-04-13 20:43:32			0	33885	0	0	0	17971	16720	154206	27203	951716	36770	106534	0	0	8152	761240	0	0
2024-04-13 20:44:32			0	33883	0	0	0	17979	16710	154202	27545	951726	36781	106537	0	0	8152	761380	0	0
2024-04-13 20:45:32			0	33880	0	0	0	17958	16700	154238	27334	951639	36769	106529	0	0	8152	761571	0	0
2024-04-13 20:46:32			0	33879	0	0	0	17945	16690	154298	27429	951570	36769	106524	0	0	8152	761662	0	0
2024-04-13 20:47:32			0	33880	0	0	0	17932	16680	154306	27069	951501	36779	106519	0	0	8152	761653	0	0
2024-04-13 20:48:32			0	33898	0	0	0	17927	16680	154322	27248	951527	36790	106517	0	0	8153	760758	0	0
2024-04-13 20:49:32			0	33892	0	0	0	17929	16670	154218	27098	951503	36766	106518	0	0	8153	761098	0	0
2024-04-13 20:50:32			0	33907	0	0	0	17919	16670	154138	27360	951476	36777	106514	0	0	8154	760352	0	0
2024-04-13 20:51:32			0	33913	0	0	0	17914	16660	154190	27003	951460	36754	106512	0	0	8154	760095	0	0
2024-04-13 20:52:32			0	33920	0	0	0	17911	16650	154026	27178	951470	36776	106511	0	0	8155	759788	0	0
2024-04-13 20:53:32			0	33951	0	0	0	17903	16650	154010	27431	951418	36776	106508	0	0	8157	758250	0	0
2024-04-13 20:54:32			0	33940	0	0	0	17890	16640	153982	27466	951410	36775	106503	0	0	8156	758836	0	0
2024-04-13 20:55:32			0	33949	0	0	0	17841	16630	154006	27434	951393	36763	106484	0	0	8157	758431	0	0
2024-04-13 20:56:32			0	33980	0	0	0	17799	16640	153902	27421	951322	36764	106468	0	0	8160	756853	0	0
2024-04-13 20:57:32			0	33962	0	0	0	17763	16620	153922	27348	951193	36773	106454	0	0	8159	757827	0	0
2024-04-13 20:58:32			0	33966	0	0	0	17722	16610	153902	27403	951142	36750	106438	0	0	8160	757670	0	0
2024-04-13 20:59:32			0	33941	0	0	0	17703	16590	153890	27256	951038	36771	106431	0	0	8159	758992	0	0
2024-04-13 21:00:32			0	33943	0	0	0	17714	16560	154026	27505	950990	36757	106435	0	0	8159	759016	0	0
2024-04-13 21:01:32			0	33946	0	0	0	17628	16560	153982	26849	950929	36746	106402	0	0	8160	758867	0	0
2024-04-13 21:02:32			0	33974	0	0	0	17638	16540	153890	27409	950931	36746	106406	0	0	8162	757561	0	0
2024-04-13 21:03:32			0	33981	0	0	0	17625	16510	153786	27531	950751	36742	106401	0	0	8162	757337	0	0
2024-04-13 21:04:32			0	33990	0	0	0	17568	16500	153646	27066	950655	36731	106379	0	0	8164	756932	0	0
2024-04-13 21:05:32			0	34009	0	0	0	17516	16490	153750	27369	950552	36730	106359	0	0	8166	756032	0	0
2024-04-13 21:06:32			0	34017	0	0	0	17490	16450	153626	27296	950477	36706	106349	0	0	8166	755800	0	0
2024-04-13 21:07:32			0	34026	0	0	0	17477	16430	153606	27024	950286	36704	106344	0	0	8167	755436	0	0
2024-04-13 21:08:32			0	34021	0	0	0	17475	16400	153546	27549	950185	36722	106343	0	0	8167	755806	0	0
2024-04-13 21:09:32			0	34057	0	0	0	17444	16370	153558	27357	950084	36709	106331	0	0	8169	754149	0	0
2024-04-13 21:10:32			0	34029	0	0	0	17438	16350	153622	27562	950025	36718	106329	0	0	8168	755614	0	0
2024-04-13 21:11:32			0	34028	0	0	0	17418	16330	153630	27435	949966	36695	106321	0	0	8168	755746	0	0
2024-04-13 21:12:32			0	34049	0	0	0	17394	16310	153670	27190	949855	36704	106312	0	0	8169	754789	0	0
2024-04-13 21:13:32			0	34060	0	0	0	17371	16280	153674	27450	949753	36702	106303	0	0	8170	754367	0	0
2024-04-13 21:14:32			0	34059	0	0	0	17374	16260	153718	27293	949616	36701	106304	0	0	8170	754498	0	0
2024-04-13 21:15:32			0	34084	0	0	0	17366	16240	153626	27492	949575	36687	106301	0	0	8171	753345	0	0
2024-04-13 21:16:32			0	34085	0	0	0	17358	16230	153494	27223	949567	36686	106298	0	0	8172	753336	0	0
2024-04-13 21:17:32			0	34101	0	0	0	17358	16210	153590	27104	949535	36707	106298	0	0	8172	752628	0	0
2024-04-13 21:18:32			0	34091	0	0	0	17361	16190	153694	27429	949502	36683	106299	0	0	8172	753203	0	0
2024-04-13 21:19:32			0	34066	0	0	0	17355	16180	153766	27495	949407	36693	106297	0	0	8170	754478	0	0
2024-04-13 21:20:32			0	34062	0	0	0	17392	16170	153742	27268	949443	36693	106311	0	0	8169	754717	0	0
2024-04-13 21:21:32			0	34023	0	0	0	17415	16160	153918	27561	949559	36702	106320	0	0	8167	756688	0	0
2024-04-13 21:22:32			0	34006	0	0	0	17415	16160	154054	27291	949506	36691	106320	0	0	8166	757530	0	0
2024-04-13 21:23:32			0	33991	0	0	0	17407	16160	154174	27509	949480	36702	106317	0	0	8165	758274	0	0
2024-04-13 21:24:32			0	33970	0	0	0	17412	16160	154210	27672	949480	36712	106319	0	0	8164	759317	0	0
2024-04-13 21:25:32			0	33961	0	0	0	17423	16150	154178	27514	949517	36691	106323	0	0	8163	759805	0	0
2024-04-13 21:26:32			0	33936	0	0	0	17418	16150	154310	27535	949464	36702	106321	0	0	8162	761048	0	0
2024-04-13 21:27:32			0	33963	0	0	0	17418	16140	154330	27428	949482	36690	106321	0	0	8163	759746	0	0
2024-04-13 21:28:32			0	33946	0	0	0	17420	16140	154326	27345	949482	36701	106322	0	0	8162	760592	0	0
2024-04-13 21:29:32			0	33948	0	0	0	17399	16140	154294	27284	949482	36701	106314	0	0	8162	760492	0	0
2024-04-13 21:30:32			0	33953	0	0	0	17399	16130	154286	27549	949413	36678	106314	0	0	8163	760285	0	0
2024-04-13 21:31:32			0	33960	0	0	0	17410	16130	154218	27345	949387	36701	106318	0	0	8163	759937	0	0
2024-04-13 21:32:32			0	33969	0	0	0	17405	16130	154186	27253	949405	36700	106316	0	0	8164	759489	0	0
2024-04-13 21:33:32			0	33973	0	0	0	17389	16130	154186	27403	949413	36711	106310	0	0	8164	759291	0	0
2024-04-13 21:34:32			0	33988	0	0	0	17386	16120	154182	27440	949318	36700	106309	0	0	8165	758587	0	0
2024-04-13 21:35:32			0	33994	0	0	0	17384	16120	154086	27395	949318	36689	106308	0	0	8165	758289	0	0
2024-04-13 21:36:32			0	33989	0	0	0	17368	16110	154082	27242	949293	36698	106302	0	0	8165	758578	0	0
2024-04-13 21:37:32			0	33997	0	0	0	17368	16110	154218	27303	949302	36720	106302	0	0	8166	758181	0	0
2024-04-13 21:38:32			0	33989	0	0	0	17366	16100	154262	27008	949277	36686	106301	0	0	8165	758619	0	0
2024-04-13 21:39:32			0	33965	0	0	0	17368	16100	154278	27251	949251	36697	106302	0	0	8164	759811	0	0
2024-04-13 21:40:32			0	33958	0	0	0	17371	16080	154218	27213	949253	36696	106303	0	0	8163	760241	0	0
2024-04-13 21:41:32			0	33952	0	0	0	17368	16080	154346	27173	949253	36708	106302	0	0	8163	760540	0	0
2024-04-13 21:42:32			0	33928	0	0	0	17361	16080	154430	27251	949148	36685	106299	0	0	8162	761734	0	0
2024-04-13 21:43:32			0	33911	0	0	0	17355	16080	154530	27289	949140	36696	106297	0	0	8161	762581	0	0
2024-04-13 21:44:32			0	33898	0	0	0	17340	16070	154614	27216	949211	36685	106291	0	0	8160	763271	0	0
2024-04-13 21:45:32			0	33890	0	0	0	17340	16060	154634	27190	949134	36672	106291	0	0	8160	763711	0	0
2024-04-13 21:46:32			0	33878	0	0	0	17348	16060	154694	27441	949186	36683	106294	0	0	8159	764310	0	0
2024-04-13 21:47:32			0	33862	0	0	0	17350	16060	154798	27116	949142	36694	106295	0	0	8158	765110	0	0
2024-04-13 21:48:32			0	33876	0	0	0	17353	16050	154810	27248	949152	36693	106296	0	0	8159	764451	0	0
2024-04-13 21:49:32			0	33867	0	0	0	17345	16050	154814	26930	949117	36693	106293	0	0	8158	764901	0	0
2024-04-13 21:50:32			0	33856	0	0	0	17345	16040	154850	27452	949128	36703	106293	0	0	8158	765492	0	0
2024-04-13 21:51:32			0	33847	0	0	0	17345	16050	154758	27249	949091	36704	106293	0	0	8157	765901	0	0
2024-04-13 21:52:32			0	33852	0	0	0	17329	16040	154774	26930	949075	36703	106287	0	0	8158	765692	0	0
2024-04-13 21:53:32			0	33858	0	0	0	17335	16040	154798	27060	949083	36681	106289	0	0	8158	765392	0	0
2024-04-13 21:54:32			0	33849	0	0	0	17332	16040	154858	27384	949136	36692	106288	0	0	8157	765842	0	0
2024-04-13 21:55:32			0	33818	0	0	0	17329	16040	154966	27428	949075	36692	106287	0	0	8156	767394	0	0
2024-04-13 21:56:32			0	33835	0	0	0	17324	16040	154986	27255	949022	36703	106285	0	0	8157	766543	0	0
2024-04-13 21:57:32			0	33781	0	0	0	17322	16040	155150	27341	949049	36692	106284	0	0	8154	769250	0	0
2024-04-13 21:58:32			0	33788	0	0	0	17319	16040	155178	27495	949075	36692	106283	0	0	8154	768898	0	0
2024-04-13 21:59:32			0	33783	0	0	0	17267	16030	155138	27414	949093	36692	106263	0	0	8155	769191	0	0
2024-04-13 22:00:32			0	33812	0	0	0	17267	16020	155054	27157	948990	36691	106263	0	0	8156	767778	0	0
2024-04-13 22:01:32			0	33816	0	0	0	17262	16020	155054	27126	949051	36691	106261	0	0	8157	767577	0	0
2024-04-13 22:02:32			0	33842	0	0	0	17262	16030	155022	27348	949059	36703	106261	0	0	8158	766234	0	0
2024-04-13 22:03:32			0	33835	0	0	0	17228	16030	154990	27447	949006	36692	106248	0	0	8158	766584	0	0
2024-04-13 22:04:32			0	33811	0	0	0	17199	16020	155026	27107	948998	36702	106237	0	0	8157	767828	0	0
2024-04-13 22:05:32			0	33802	0	0	0	17179	16010	155002	27050	948947	36690	106229	0	0	8157	768320	0	0
2024-04-13 22:06:32			0	33794	0	0	0	17163	16010	155062	27312	948895	36690	106223	0	0	8157	768722	0	0
2024-04-13 22:07:32			0	33786	0	0	0	17142	16000	155142	27308	948834	36667	106215	0	0	8157	769165	0	0
2024-04-13 22:08:32			0	33768	0	0	0	17111	15980	155218	27081	948696	36676	106203	0	0	8156	770152	0	0
2024-04-13 22:09:32			0	33743	0	0	0	17077	15970	155314	27279	948601	36665	106190	0	0	8155	771450	0	0
2024-04-13 22:10:32			0	33744	0	0	0	17070	15940	155286	27003	948552	36641	106187	0	0	8155	771525	0	0
2024-04-13 22:11:32			0	33728	0	0	0	17057	15940	155250	27131	948492	36662	106182	0	0	8154	772330	0	0
2024-04-13 22:12:32			0	33760	0	0	0	17051	15920	155262	27588	948388	36661	106180	0	0	8156	770803	0	0
2024-04-13 22:13:32			0	33733	0	0	0	17051	15910	155362	27180	948364	36660	106180	0	0	8155	772203	0	0
2024-04-13 22:14:32			0	33741	0	0	0	17057	15900	155350	26967	948401	36669	106182	0	0	8155	771842	0	0
2024-04-13 22:15:32			0	33736	0	0	0	17080	15880	155450	27395	948342	36667	106191	0	0	8154	772177	0	0
2024-04-13 22:16:32			0	33732	0	0	0	17114	15880	155490	27246	948368	36667	106204	0	0	8153	772379	0	0
2024-04-13 22:17:32			0	33725	0	0	0	17142	15880	155562	27138	948447	36679	106215	0	0	8153	772731	0	0
2024-04-13 22:18:32			0	33732	0	0	0	17174	15880	155466	27308	948421	36679	106227	0	0	8152	772379	0	0
2024-04-13 22:19:32			0	33727	0	0	0	17238	15890	155434	27241	948543	36668	106252	0	0	8151	772589	0	0
2024-04-13 22:20:32			0	33726	0	0	0	17420	15900	155722	27357	948856	36692	106322	0	0	8148	772598	0	0
2024-04-13 22:21:32			0	33684	0	0	0	17324	15940	155886	27428	948834	36695	106285	0	0	8147	774549	0	0
2024-04-13 22:22:32			0	33648	0	0	0	17303	15940	155922	27192	948834	36683	106277	0	0	8146	776368	0	0
2024-04-13 22:23:32			0	33638	0	0	0	17290	15950	156030	27438	948858	36685	106272	0	0	8145	776832	0	0
2024-04-13 22:24:32			0	33650	0	0	0	17285	15950	156010	27241	948858	36674	106270	0	0	8146	776225	0	0
2024-04-13 22:25:32			0	33640	0	0	0	17246	15950	156002	27074	948832	36685	106255	0	0	8146	776731	0	0
2024-04-13 22:26:32			0	33636	0	0	0	17251	15950	155966	27462	948718	36684	106257	0	0	8146	776933	0	0
2024-04-13 22:27:32			0	33638	0	0	0	17254	15950	155954	27538	948858	36674	106258	0	0	8146	776832	0	0
2024-04-13 22:28:32			0	33635	0	0	0	17241	15950	155998	27630	948771	36684	106253	0	0	8146	776984	0	0
2024-04-13 22:29:32			0	33652	0	0	0	17244	15950	155914	27360	948771	36695	106254	0	0	8147	776124	0	0
2024-04-13 22:30:32			0	33633	0	0	0	17223	15940	155962	27208	948729	36672	106246	0	0	8146	777127	0	0
2024-04-13 22:31:32			0	33646	0	0	0	17215	15940	155922	27564	948702	36672	106243	0	0	8147	776469	0	0
2024-04-13 22:32:32			0	33634	0	0	0	17215	15940	155878	27447	948676	36683	106243	0	0	8146	777076	0	0
2024-04-13 22:33:32			0	33641	0	0	0	17220	15930	155894	27462	948642	36671	106245	0	0	8147	776764	0	0
2024-04-13 22:34:32			0	33665	0	0	0	17212	15930	155918	27208	948668	36671	106242	0	0	8148	775550	0	0
2024-04-13 22:35:32			0	33662	0	0	0	17212	15930	155810	27407	948633	36683	106242	0	0	8148	775702	0	0
2024-04-13 22:36:32			0	33681	0	0	0	17215	15930	155958	26840	948633	36683	106243	0	0	8149	774742	0	0
2024-04-13 22:37:32			0	33687	0	0	0	17197	15920	155838	27381	948652	36694	106236	0	0	8150	774481	0	0
2024-04-13 22:38:32			0	33681	0	0	0	17168	15920	155758	27320	948652	36683	106225	0	0	8150	774784	0	0
2024-04-13 22:39:32			0	33700	0	0	0	17179	15930	155770	27154	948686	36671	106229	0	0	8151	773783	0	0
2024-04-13 22:40:32			0	33703	0	0	0	17215	15920	155670	27459	948565	36682	106243	0	0	8150	773674	0	0
2024-04-13 22:41:32			0	33693	0	0	0	17233	15910	155766	27216	948654	36660	106250	0	0	8149	774220	0	0
2024-04-13 22:42:32			0	33685	0	0	0	17220	15910	155746	27170	948654	36670	106245	0	0	8149	774624	0	0
2024-04-13 22:43:32			0	33701	0	0	0	17220	15930	155646	27386	948713	36683	106245	0	0	8150	773733	0	0
2024-04-13 22:44:32			0	33727	0	0	0	17223	15920	155574	27074	948670	36671	106246	0	0	8151	772464	0	0
2024-04-13 22:45:32			0	33743	0	0	0	17389	15910	155502	27298	948715	36692	106310	0	0	8150	771700	0	0
2024-04-13 22:46:32			0	33742	0	0	0	17792	15960	155630	27270	949261	36717	106465	0	0	8143	771542	0	0
2024-04-13 22:47:32			0	33753	0	0	0	17496	16000	155494	27291	949308	36722	106351	0	0	8149	770823	0	0
2024-04-13 22:48:32			0	33783	0	0	0	17350	16020	155366	27472	949227	36691	106295	0	0	8153	769232	0	0
2024-04-13 22:49:32			0	33773	0	0	0	17379	16030	155274	27159	949093	36703	106306	0	0	8152	769693	0	0
2024-04-13 22:50:32			0	33769	0	0	0	17368	16030	155326	26975	949059	36692	106302	0	0	8152	769894	0	0
2024-04-13 22:51:32			0	33743	0	0	0	17379	16020	155370	27460	949148	36702	106306	0	0	8150	771242	0	0
2024-04-13 22:52:32			0	33736	0	0	0	17410	16030	155434	27090	949191	36713	106318	0	0	8149	771553	0	0
2024-04-13 22:53:32			0	33748	0	0	0	17436	16030	155438	27543	949251	36713	106328	0	0	8150	770949	0	0
2024-04-13 22:54:32			0	33743	0	0	0	17399	16050	155394	27384	949328	36704	106314	0	0	8150	771117	0	0
2024-04-13 22:55:32			0	33768	0	0	0	17394	16050	155334	27573	949231	36714	106312	0	0	8152	769861	0	0
2024-04-13 22:56:32			0	33757	0	0	0	17361	16060	155310	27372	949265	36715	106299	0	0	8152	770372	0	0
2024-04-13 22:57:32			0	33756	0	0	0	17316	16060	155238	27242	949213	36715	106282	0	0	8152	770422	0	0
2024-04-13 22:58:32			0	33755	0	0	0	17368	16050	155266	27294	949196	36693	106302	0	0	8151	770514	0	0
2024-04-13 22:59:32			0	33751	0	0	0	17594	16070	155346	27524	949413	36716	106389	0	0	8147	770632	0	0
2024-04-13 23:00:32			0	33736	0	0	0	17831	16090	155534	27166	949770	36751	106480	0	0	8142	771303	0	0
2024-04-13 23:01:32			0	33731	0	0	0	17831	16140	155742	27331	950133	36788	106480	0	0	8142	771346	0	0
2024-04-13 23:02:32			0	33720	0	0	0	17711	16180	155670	27322	950224	36769	106434	0	0	8144	771733	0	0
2024-04-13 23:03:32			0	33735	0	0	0	17846	16220	155502	27554	950333	36750	106486	0	0	8143	770812	0	0
2024-04-13 23:04:32			0	33725	0	0	0	17890	16240	155574	27135	950505	36785	106503	0	0	8142	771232	0	0
2024-04-13 23:05:32			0	33724	0	0	0	17420	16280	155506	27284	950299	36766	106322	0	0	8150	771115	0	0
2024-04-13 23:06:32			0	33701	0	0	0	17501	16260	155326	27329	949958	36722	106353	0	0	8147	772356	0	0
2024-04-13 23:07:32			0	33622	0	0	0	17955	16260	155918	27452	950293	36754	106528	0	0	8135	776342	0	0
2024-04-13 23:08:32			0	33607	0	0	0	17836	16280	156142	27041	950544	36767	106482	0	0	8136	777016	0	0
2024-04-13 23:09:32			0	33571	0	0	0	17548	16310	156054	26989	950479	36769	106371	0	0	8139	778713	0	0
2024-04-13 23:10:32			0	33584	0	0	0	17581	16320	156086	27312	950443	36770	106384	0	0	8139	778013	0	0
2024-04-13 23:11:32			0	33550	0	0	0	17527	16320	155973	27462	950266	36759	106363	0	0	8138	779736	0	0
2024-04-13 23:12:32			0	33551	0	0	0	17532	16310	156029	27232	950171	36748	106365	0	0	8138	779727	0	0
2024-04-13 23:13:32			0	33555	0	0	0	17503	16300	156157	27431	950120	36736	106354	0	0	8138	779567	0	0
2024-04-13 23:14:32			0	33526	0	0	0	17477	16290	156141	27390	950112	36735	106344	0	0	8137	781081	0	0
2024-04-13 23:15:32			0	33514	0	0	0	17477	16280	156153	27602	949991	36746	106344	0	0	8136	781733	0	0
2024-04-13 23:16:32			0	33506	0	0	0	17475	16260	156157	27150	949897	36721	106343	0	0	8136	782224	0	0
2024-04-13 23:17:32			0	33476	0	0	0	17436	16260	156301	27294	949871	36721	106328	0	0	8135	783751	0	0
2024-04-13 23:18:32			0	33479	0	0	0	17342	16250	156361	27377	949829	36742	106292	0	0	8136	783641	0	0
2024-04-13 23:19:32			0	33479	0	0	0	17322	16220	156445	27623	949603	36729	106284	0	0	8137	783768	0	0
2024-04-13 23:20:32			0	33460	0	0	0	17350	16210	156469	27452	949605	36727	106295	0	0	8135	784779	0	0
2024-04-13 23:21:32			0	33475	0	0	0	17332	16190	156553	27516	949502	36727	106288	0	0	8136	784099	0	0
2024-04-13 23:22:32			0	33481	0	0	0	17340	16160	156421	27275	949454	36712	106291	0	0	8136	783920	0	0
2024-04-13 23:23:32			0	33486	0	0	0	17358	16170	156397	27481	949462	36724	106298	0	0	8136	783623	0	0
2024-04-13 23:24:32			0	33487	0	0	0	17337	16140	156353	27483	949429	36711	106290	0	0	8136	783699	0	0
2024-04-13 23:25:32			0	33494	0	0	0	17327	16140	156441	27313	949369	36711	106286	0	0	8137	783342	0	0
2024-04-13 23:26:32			0	33531	0	0	0	17389	16120	156277	27261	949318	36710	106310	0	0	8138	781544	0	0
2024-04-13 23:27:32			0	33541	0	0	0	17381	16120	156321	27339	949344	36721	106307	0	0	8139	781036	0	0
2024-04-13 23:28:32			0	33563	0	0	0	17379	16130	156110	27419	949379	36721	106306	0	0	8140	779877	0	0
2024-04-13 23:29:32			0	33577	0	0	0	17368	16130	156030	27611	949405	36700	106302	0	0	8141	779166	0	0
2024-04-13 23:30:32			0	33604	0	0	0	17327	16100	155974	27524	949259	36698	106286	0	0	8143	777924	0	0
2024-04-13 23:31:32			0	33624	0	0	0	17309	16100	155806	27175	949285	36708	106279	0	0	8145	776911	0	0
2024-04-13 23:32:32			0	33660	0	0	0	17311	16090	155678	27308	949190	36697	106280	0	0	8147	775134	0	0
2024-04-13 23:33:32			0	33704	0	0	0	17322	16070	155498	27440	949132	36696	106284	0	0	8149	772998	0	0
2024-04-13 23:34:32			0	33713	0	0	0	17306	16070	155498	27512	949097	36706	106278	0	0	8150	772544	0	0
2024-04-13 23:35:32			0	33701	0	0	0	17314	16060	155462	27500	949160	36715	106281	0	0	8149	773190	0	0
2024-04-13 23:36:32			0	33708	0	0	0	17345	16070	155406	27426	949229	36716	106293	0	0	8149	772796	0	0
2024-04-13 23:37:32			0	33666	0	0	0	17579	16080	155674	27428	949561	36739	106383	0	0	8143	774873	0	0
2024-04-13 23:38:32			0	33621	0	0	0	17620	16120	155918	27066	949766	36743	106399	0	0	8139	776980	0	0
2024-04-13 23:39:32			0	33562	0	0	0	17587	16130	156129	27429	949827	36743	106386	0	0	8137	779927	0	0
2024-04-13 23:40:32			0	33527	0	0	0	17548	16170	156453	27286	949883	36746	106371	0	0	8135	781536	0	0
2024-04-13 23:41:32			0	33452	0	0	0	17490	16180	156681	27400	949855	36737	106349	0	0	8132	785314	0	0
2024-04-13 23:42:32			0	33440	0	0	0	17451	16180	156793	27310	949776	36737	106334	0	0	8132	785927	0	0
2024-04-13 23:43:32			0	33416	0	0	0	17394	16170	156893	27403	949681	36725	106312	0	0	8131	787196	0	0
2024-04-13 23:44:32			0	33374	0	0	0	17374	16170	157009	27270	949593	36703	106304	0	0	8129	789346	0	0
2024-04-13 23:45:32			0	33374	0	0	0	17355	16150	157049	27279	949498	36712	106297	0	0	8129	789431	0	0
2024-04-13 23:46:32			0	33368	0	0	0	17355	16150	156953	27523	949683	36723	106297	0	0	8129	789739	0	0
2024-04-13 23:47:32			0	33379	0	0	0	17405	16170	156973	27711	949786	36736	106316	0	0	8129	789090	0	0
2024-04-13 23:48:32			0	33380	0	0	0	17584	16190	156937	27459	949916	36737	106385	0	0	8126	788953	0	0
2024-04-13 23:49:32			0	33404	0	0	0	17693	16210	156961	27398	950167	36761	106427	0	0	8126	787639	0	0
2024-04-13 23:50:32			0	33358	0	0	0	17742	16250	157037	27019	950382	36763	106446	0	0	8122	789825	0	0
2024-04-13 23:51:32			0	33339	0	0	0	17841	16270	157173	27374	950528	36765	106484	0	0	8120	790714	0	0
2024-04-13 23:52:32			0	33299	0	0	0	17849	16300	157513	27050	950524	36780	106487	0	0	8117	792640	0	0
2024-04-13 23:53:32			0	33257	0	0	0	17875	16330	157589	27272	950670	36782	106497	0	0	8115	794673	0	0
2024-04-13 23:54:32			0	33217	0	0	0	17932	16340	157809	27481	950799	36772	106519	0	0	8111	796693	0	0
2024-04-13 23:55:32			0	33202	0	0	0	17981	16380	157993	27320	950962	36796	106538	0	0	8110	797296	0	0
2024-04-13 23:56:32			0	33175	0	0	0	18010	16410	158077	27081	951089	36799	106549	0	0	8108	798562	0	0
2024-04-13 23:57:32			0	33147	0	0	0	18038	16440	158077	27497	951225	36813	106560	0	0	8106	799882	0	0
2024-04-13 23:58:32			0	33129	0	0	0	18054	16470	158097	27358	951318	36815	106566	0	0	8104	800685	0	0
2024-04-13 23:59:32			0	33131	0	0	0	18072	16500	158221	27123	951333	36806	106573	0	0	8104	800451	0	0
2024-04-14 00:00:32			0	33149	0	0	0	18090	16530	158109	27310	951460	36820	106580	0	0	8105	799389	0	0
2024-04-14 00:01:32			0	33161	0	0	0	18088	16540	158165	27303	951485	36810	106579	0	0	8106	798725	0	0
2024-04-14 00:02:32			0	33172	0	0	0	18083	16570	157873	27538	951639	36813	106577	0	0	8107	798026	0	0
2024-04-14 00:03:32			0	33209	0	0	0	18085	16580	157737	27088	951647	36802	106578	0	0	8109	796073	0	0
2024-04-14 00:04:32			0	33252	0	0	0	18072	16600	157513	27163	951653	36826	106573	0	0	8112	793771	0	0
2024-04-14 00:05:32			0	33276	0	0	0	18070	16610	157233	27175	951651	36816	106572	0	0	8114	792494	0	0
2024-04-14 00:06:32			0	33297	0	0	0	18070	16620	157221	27467	951712	36828	106572	0	0	8115	791372	0	0
2024-04-14 00:07:32			0	33303	0	0	0	18064	16620	157077	27258	951694	36849	106570	0	0	8115	791064	0	0
2024-04-14 00:08:32			0	33322	0	0	0	18062	16640	157045	27319	951744	36830	106569	0	0	8117	790004	0	0
2024-04-14 00:09:32			0	33341	0	0	0	18054	16640	156993	27159	951700	36819	106566	0	0	8118	789031	0	0
2024-04-14 00:10:32			0	33343	0	0	0	17950	16650	156905	27180	951655	36830	106526	0	0	8120	788886	0	0
2024-04-14 00:11:32			0	33351	0	0	0	17958	16650	156861	27355	951637	36808	106529	0	0	8120	788476	0	0
2024-04-14 00:12:32			0	33348	0	0	0	18023	16660	156913	27346	951671	36820	106554	0	0	8119	788587	0	0
2024-04-14 00:13:32			0	33350	0	0	0	18049	16660	156877	27277	951698	36820	106564	0	0	8119	788485	0	0
2024-04-14 00:14:32			0	33348	0	0	0	18070	16670	156933	27282	951775	36811	106572	0	0	8118	788545	0	0
2024-04-14 00:15:32			0	33366	0	0	0	18088	16670	156853	27066	951793	36832	106579	0	0	8119	787624	0	0
2024-04-14 00:16:32			0	33348	0	0	0	18077	16680	156753	27206	951862	36833	106575	0	0	8118	788502	0	0
2024-04-14 00:17:32			0	33377	0	0	0	18083	16680	156657	27452	951818	36823	106577	0	0	8120	787019	0	0
2024-04-14 00:18:32			0	33422	0	0	0	18085	16690	156629	27531	951886	36812	106578	0	0	8123	784680	0	0
2024-04-14 00:19:32			0	33434	0	0	0	18077	16700	156485	27279	951842	36812	106575	0	0	8123	784026	0	0
2024-04-14 00:20:32			0	33457	0	0	0	18077	16690	156317	27187	951826	36833	106575	0	0	8125	782897	0	0
2024-04-14 00:21:32			0	33482	0	0	0	18077	16690	156205	27599	951939	36834	106575	0	0	8126	781626	0	0
2024-04-14 00:22:32			0	33485	0	0	0	18075	16710	156177	27052	951919	36825	106574	0	0	8127	781389	0	0
2024-04-14 00:23:32			0	33536	0	0	0	18072	16710	156105	27215	951858	36825	106573	0	0	8130	778802	0	0
2024-04-14 00:24:32			0	33529	0	0	0	18064	16710	155977	27507	951840	36825	106570	0	0	8129	779156	0	0
2024-04-14 00:25:32			0	33539	0	0	0	18064	16720	155933	27495	951927	36835	106570	0	0	8130	778607	0	0
2024-04-14 00:26:32			0	33574	0	0	0	18044	16700	155678	27189	951824	36834	106562	0	0	8132	776920	0	0
2024-04-14 00:27:32			0	33601	0	0	0	18031	16710	155678	27145	951832	36846	106557	0	0	8134	775514	0	0
2024-04-14 00:28:32			0	33612	0	0	0	18002	16700	155474	27267	951763	36823	106546	0	0	8135	775001	0	0
2024-04-14 00:29:32			0	33618	0	0	0	18015	16690	155566	27038	951781	36812	106551	0	0	8135	774740	0	0
2024-04-14 00:30:32			0	33624	0	0	0	17948	16690	155434	27112	951667	36811	106525	0	0	8137	774437	0	0
2024-04-14 00:31:32			0	33633	0	0	0	17810	16660	155346	26987	951495	36810	106472	0	0	8140	774109	0	0
2024-04-14 00:32:32			0	33671	0	0	0	17716	16650	155190	27253	951260	36787	106436	0	0	8143	772237	0	0
2024-04-14 00:33:32			0	33674	0	0	0	17644	16620	155178	27429	951132	36784	106408	0	0	8145	772212	0	0
2024-04-14 00:34:32			0	33653	0	0	0	17688	16580	155298	27559	951101	36781	106425	0	0	8142	773436	0	0
2024-04-14 00:35:32			0	33629	0	0	0	17810	16570	155354	27488	951111	36802	106472	0	0	8139	774688	0	0
2024-04-14 00:36:32			0	33631	0	0	0	17789	16560	155570	27209	951069	36791	106464	0	0	8139	774629	0	0
2024-04-14 00:37:32			0	33621	0	0	0	17906	16550	155558	27552	951158	36790	106509	0	0	8137	775176	0	0
2024-04-14 00:38:32			0	33607	0	0	0	17950	16560	155794	27178	951219	36800	106526	0	0	8135	775841	0	0
2024-04-14 00:39:32			0	33583	0	0	0	17976	16560	155830	27253	951245	36822	106536	0	0	8133	777054	0	0
2024-04-14 00:40:32			0	33584	0	0	0	17997	16590	155842	27170	951426	36814	106544	0	0	8133	776877	0	0
2024-04-14 00:41:32			0	33579	0	0	0	18015	16590	155850	27412	951531	36814	106551	0	0	8133	777130	0	0
2024-04-14 00:42:32			0	33574	0	0	0	18028	16610	155938	27230	951511	36827	106556	0	0	8132	777299	0	0
2024-04-14 00:43:32			0	33573	0	0	0	18031	16620	155906	27338	951685	36828	106557	0	0	8132	777307	0	0
2024-04-14 00:44:32			0	33588	0	0	0	18036	16620	155822	27293	951641	36828	106559	0	0	8133	776549	0	0
2024-04-14 00:45:32			0	33585	0	0	0	18033	16630	155766	27232	951623	36829	106558	0	0	8133	776659	0	0
2024-04-14 00:46:32			0	33588	0	0	0	18044	16640	155730	27144	951726	36819	106562	0	0	8133	776465	0	0
2024-04-14 00:47:32			0	33610	0	0	0	18044	16640	155730	27234	951726	36830	106562	0	0	8134	775354	0	0
2024-04-14 00:48:32			0	33629	0	0	0	18041	16660	155678	27232	951671	36831	106561	0	0	8135	774311	0	0
2024-04-14 00:49:32			0	33636	0	0	0	18041	16660	155718	27251	951750	36831	106561	0	0	8136	773958	0	0
2024-04-14 00:50:32			0	33642	0	0	0	18057	16670	155562	27241	951793	36821	106567	0	0	8136	773614	0	0
2024-04-14 00:51:32			0	33641	0	0	0	18038	16670	155458	27232	951767	36842	106560	0	0	8136	773664	0	0
2024-04-14 00:52:32			0	33653	0	0	0	18046	16670	155386	27453	951775	36833	106563	0	0	8137	773060	0	0
2024-04-14 00:53:32			0	33655	0	0	0	18057	16670	155402	27421	951801	36822	106567	0	0	8137	772959	0	0
2024-04-14 00:54:32			0	33655	0	0	0	18057	16680	155374	27036	951889	36833	106567	0	0	8137	772917	0	0
2024-04-14 00:55:32			0	33666	0	0	0	18046	16680	155434	27287	951844	36833	106563	0	0	8138	772363	0	0
2024-04-14 00:56:32			0	33655	0	0	0	18057	16680	155362	27436	951870	36844	106567	0	0	8137	772917	0	0
2024-04-14 00:57:32			0	33654	0	0	0	18049	16680	155282	27355	951897	36833	106564	0	0	8137	772967	0	0
2024-04-14 00:58:32			0	33663	0	0	0	18046	16680	155378	27417	951844	36823	106563	0	0	8137	772514	0	0
2024-04-14 00:59:32			0	33676	0	0	0	18051	16680	155270	27258	951897	36833	106565	0	0	8138	771860	0	0
2024-04-14 01:00:32			0	33663	0	0	0	18051	16690	155434	27396	951913	36823	106565	0	0	8137	772473	0	0
2024-04-14 01:01:32			0	33665	0	0	0	18049	16690	155430	27291	951834	36823	106564	0	0	8138	772372	0	0
2024-04-14 01:02:32			0	33657	0	0	0	18051	16690	155238	27286	951886	36845	106565	0	0	8137	772774	0	0
2024-04-14 01:03:32			0	33657	0	0	0	18041	16690	155350	27324	951852	36823	106561	0	0	8137	772774	0	0
2024-04-14 01:04:32			0	33666	0	0	0	18038	16700	155358	26941	951771	36834	106560	0	0	8138	772280	0	0
2024-04-14 01:05:32			0	33647	0	0	0	18046	16690	155410	27126	951913	36823	106563	0	0	8137	773278	0	0
2024-04-14 01:06:32			0	33646	0	0	0	18033	16690	155414	27220	951834	36834	106558	0	0	8137	773329	0	0
2024-04-14 01:07:32			0	33646	0	0	0	18031	16700	155350	27201	951895	36845	106557	0	0	8137	773287	0	0
2024-04-14 01:08:32			0	33656	0	0	0	18020	16700	155390	27360	951815	36834	106553	0	0	8138	772783	0	0
2024-04-14 01:09:32			0	33639	0	0	0	18015	16690	155374	27135	951773	36844	106551	0	0	8137	773681	0	0
2024-04-14 01:10:32			0	33647	0	0	0	18012	16690	155434	27419	951834	36834	106550	0	0	8137	773278	0	0
2024-04-14 01:11:32			0	33650	0	0	0	18012	16690	155454	27346	951826	36844	106550	0	0	8137	773127	0	0
2024-04-14 01:12:32			0	33647	0	0	0	18012	16690	155414	27505	951773	36833	106550	0	0	8137	773278	0	0
2024-04-14 01:13:32			0	33655	0	0	0	18005	16680	155450	27294	951765	36855	106547	0	0	8138	772917	0	0
2024-04-14 01:14:32			0	33640	0	0	0	18012	16690	155422	27523	951826	36844	106550	0	0	8137	773631	0	0
2024-04-14 01:15:32			0	33669	0	0	0	18015	16680	155310	27486	951791	36844	106551	0	0	8138	772212	0	0
2024-04-14 01:16:32			0	33677	0	0	0	18012	16690	155242	27594	951826	36844	106550	0	0	8139	771768	0	0
2024-04-14 01:17:32			0	33669	0	0	0	18010	16690	155286	27670	951826	36844	106549	0	0	8138	772171	0	0
2024-04-14 01:18:32			0	33689	0	0	0	18012	16690	155238	27751	951773	36844	106550	0	0	8140	771165	0	0
2024-04-14 01:19:32			0	33702	0	0	0	18015	16690	155198	27203	951773	36823	106551	0	0	8140	770511	0	0
2024-04-14 01:20:32			0	33712	0	0	0	18018	16690	155094	27164	951826	36833	106552	0	0	8141	770009	0	0
2024-04-14 01:21:32			0	33725	0	0	0	18018	16680	154986	27251	951738	36823	106552	0	0	8142	769399	0	0
2024-04-14 01:22:32			0	33739	0	0	0	18010	16690	154898	27173	951826	36844	106549	0	0	8143	768655	0	0
2024-04-14 01:23:32			0	33751	0	0	0	18007	16680	154890	27265	951738	36823	106548	0	0	8143	768095	0	0
2024-04-14 01:24:32			0	33748	0	0	0	18005	16680	155014	27183	951783	36843	106547	0	0	8143	768245	0	0
2024-04-14 01:25:32			0	33768	0	0	0	18015	16680	154966	27182	951809	36822	106551	0	0	8144	767244	0	0
2024-04-14 01:26:32			0	33743	0	0	0	18010	16680	154914	27268	951765	36833	106549	0	0	8143	768496	0	0
2024-04-14 01:27:32			0	33753	0	0	0	18012	16680	154902	27428	951783	36843	106550	0	0	8143	767995	0	0
2024-04-14 01:28:32			0	33747	0	0	0	18018	16690	154914	27604	951826	36833	106552	0	0	8143	768254	0	0
2024-04-14 01:29:32			0	33737	0	0	0	18020	16680	154874	27543	951757	36843	106553	0	0	8142	768797	0	0
2024-04-14 01:30:32			0	33748	0	0	0	18028	16690	154914	27339	951773	36833	106556	0	0	8143	768204	0	0
2024-04-14 01:31:32			0	33755	0	0	0	18023	16680	154806	27170	951818	36833	106554	0	0	8143	767895	0	0
2024-04-14 01:32:32			0	33758	0	0	0	18028	16680	154962	27310	951870	36833	106556	0	0	8143	767744	0	0
2024-04-14 01:33:32			0	33753	0	0	0	18023	16690	154946	27488	951852	36844	106554	0	0	8143	767953	0	0
2024-04-14 01:34:32			0	33761	0	0	0	18025	16680	154930	27150	951818	36844	106555	0	0	8144	767594	0	0
2024-04-14 01:35:32			0	33780	0	0	0	18020	16680	154910	27149	951809	36833	106553	0	0	8145	766643	0	0
2024-04-14 01:36:32			0	33775	0	0	0	18015	16670	154822	27135	951749	36833	106551	0	0	8144	766935	0	0
2024-04-14 01:37:32			0	33779	0	0	0	18010	16680	154694	27644	951818	36844	106549	0	0	8145	766693	0	0
2024-04-14 01:38:32			0	33792	0	0	0	18012	16680	154674	27185	951870	36844	106550	0	0	8146	766043	0	0
2024-04-14 01:39:32			0	33821	0	0	0	18007	16680	154650	27098	951783	36854	106548	0	0	8147	764594	0	0
2024-04-14 01:40:32			0	33830	0	0	0	18012	16690	154574	27360	951799	36833	106550	0	0	8148	764104	0	0
2024-04-14 01:41:32			0	33849	0	0	0	17999	16680	154542	27459	951783	36833	106545	0	0	8149	763198	0	0
2024-04-14 01:42:32			0	33839	0	0	0	17994	16680	154542	27519	951791	36833	106543	0	0	8149	763696	0	0
2024-04-14 01:43:32			0	33852	0	0	0	17997	16680	154446	27256	951757	36843	106544	0	0	8149	763048	0	0
2024-04-14 01:44:32			0	33842	0	0	0	18002	16670	154510	27128	951749	36843	106546	0	0	8149	763588	0	0
2024-04-14 01:45:32			0	33871	0	0	0	17999	16670	154402	27197	951722	36833	106545	0	0	8150	762143	0	0
2024-04-14 01:46:32			0	33876	0	0	0	17997	16670	154370	27343	951749	36833	106544	0	0	8151	761894	0	0
2024-04-14 01:47:32			0	33882	0	0	0	18002	16680	154274	27204	951730	36833	106546	0	0	8151	761554	0	0
2024-04-14 01:48:32			0	33896	0	0	0	17997	16670	154190	27015	951767	36842	106544	0	0	8152	760899	0	0
2024-04-14 01:49:32			0	33933	0	0	0	18005	16670	154082	27628	951767	36853	106547	0	0	8154	759061	0	0
2024-04-14 01:50:32			0	33972	0	0	0	17997	16660	153914	27562	951838	36842	106544	0	0	8156	757168	0	0
2024-04-14 01:51:32			0	34014	0	0	0	17992	16670	153746	27208	951714	36842	106542	0	0	8159	755049	0	0
2024-04-14 01:52:32			0	34026	0	0	0	17992	16670	153606	27334	951687	36842	106542	0	0	8159	754456	0	0
2024-04-14 01:53:32			0	34036	0	0	0	17989	16660	153534	27237	951758	36832	106541	0	0	8160	754003	0	0
2024-04-14 01:54:32			0	34056	0	0	0	17999	16670	153462	27467	951740	36832	106545	0	0	8161	752975	0	0
2024-04-14 01:55:32			0	34045	0	0	0	17989	16650	153598	27509	951742	36830	106541	0	0	8161	753599	0	0
2024-04-14 01:56:32			0	34044	0	0	0	17992	16660	153510	27576	951750	36831	106542	0	0	8160	753608	0	0
2024-04-14 01:57:32			0	34041	0	0	0	17984	16650	153650	27371	951690	36830	106539	0	0	8160	753797	0	0
2024-04-14 01:58:32			0	34007	0	0	0	17986	16650	153738	27258	951663	36852	106540	0	0	8158	755476	0	0
2024-04-14 01:59:32			0	34004	0	0	0	17976	16660	153746	27213	951698	36831	106536	0	0	8158	755584	0	0
2024-04-14 02:00:32			0	33995	0	0	0	17981	16650	153894	27469	951716	36841	106538	0	0	8158	756070	0	0
2024-04-14 02:01:32			0	33963	0	0	0	17976	16660	153938	27197	951698	36853	106536	0	0	8156	757614	0	0
2024-04-14 02:02:32			0	33961	0	0	0	17966	16650	154022	27360	951690	36852	106532	0	0	8156	757754	0	0
2024-04-14 02:03:32			0	33920	0	0	0	17976	16650	154178	27287	951655	36841	106536	0	0	8153	759788	0	0
2024-04-14 02:04:32			0	33879	0	0	0	17963	16650	154270	27355	951681	36830	106531	0	0	8151	761827	0	0
2024-04-14 02:05:32			0	33879	0	0	0	17963	16650	154306	27140	951681	36841	106531	0	0	8151	761827	0	0
2024-04-14 02:06:32			0	33859	0	0	0	17937	16640	154318	27362	951594	36840	106521	0	0	8151	762864	0	0
2024-04-14 02:07:32			0	33842	0	0	0	17922	16640	154442	27545	951568	36840	106515	0	0	8150	763712	0	0
2024-04-14 02:08:32			0	33820	0	0	0	17916	16640	154462	27286	951560	36840	106513	0	0	8149	764810	0	0
2024-04-14 02:09:32			0	33820	0	0	0	17909	16630	154550	27220	951499	36829	106510	0	0	8149	764851	0	0
2024-04-14 02:10:32			0	33818	0	0	0	17903	16630	154486	27474	951517	36829	106508	0	0	8149	764951	0	0
2024-04-14 02:11:32			0	33827	0	0	0	17898	16620	154562	27547	951483	36838	106506	0	0	8149	764543	0	0
2024-04-14 02:12:32			0	33830	0	0	0	17890	16610	154490	27543	951493	36827	106503	0	0	8150	764435	0	0
2024-04-14 02:13:32			0	33833	0	0	0	17893	16610	154442	27454	951405	36827	106504	0	0	8150	764285	0	0
2024-04-14 02:14:32			0	33856	0	0	0	17896	16610	154366	27050	951466	36837	106505	0	0	8151	763138	0	0
2024-04-14 02:15:32			0	33860	0	0	0	17901	16610	154202	27376	951485	36827	106507	0	0	8151	762938	0	0
2024-04-14 02:16:32			0	33903	0	0	0	17903	16610	154190	27447	951485	36827	106508	0	0	8154	760798	0	0
2024-04-14 02:17:32			0	33925	0	0	0	17901	16600	154122	27332	951397	36826	106507	0	0	8155	759746	0	0
2024-04-14 02:18:32			0	33946	0	0	0	17896	16580	153986	27194	951418	36835	106505	0	0	8156	758785	0	0
2024-04-14 02:19:32			0	33987	0	0	0	17890	16590	153782	27407	951399	36826	106503	0	0	8159	756712	0	0
2024-04-14 02:20:32			0	33998	0	0	0	17883	16590	153722	27346	951373	36836	106500	0	0	8159	756167	0	0
2024-04-14 02:21:32			0	33999	0	0	0	17893	16590	153754	27398	951478	36836	106504	0	0	8159	756118	0	0
2024-04-14 02:22:32			0	33990	0	0	0	17903	16580	153654	27274	951436	36834	106508	0	0	8158	756604	0	0
2024-04-14 02:23:32			0	34003	0	0	0	17890	16580	153710	27229	951410	36824	106503	0	0	8159	755961	0	0
2024-04-14 02:24:32			0	34001	0	0	0	17888	16590	153706	27187	951407	36836	106502	0	0	8159	756019	0	0
2024-04-14 02:25:32			0	33998	0	0	0	17893	16580	153702	27325	951391	36825	106504	0	0	8159	756208	0	0
2024-04-14 02:26:32			0	34008	0	0	0	17893	16580	153622	27706	951365	36835	106504	0	0	8160	755713	0	0
2024-04-14 02:27:32			0	34019	0	0	0	17883	16570	153694	27194	951322	36834	106500	0	0	8160	755210	0	0
2024-04-14 02:28:32			0	34008	0	0	0	17875	16560	153682	27241	951385	36823	106497	0	0	8160	755795	0	0
2024-04-14 02:29:32			0	34005	0	0	0	17870	16560	153618	27222	951351	36811	106495	0	0	8160	755943	0	0
2024-04-14 02:30:32			0	33982	0	0	0	17870	16570	153746	27282	951349	36824	106495	0	0	8159	757041	0	0
2024-04-14 02:31:32			0	33967	0	0	0	17870	16570	153842	27490	951296	36824	106495	0	0	8158	757785	0	0
2024-04-14 02:32:32			0	33952	0	0	0	17862	16560	153838	27419	951272	36822	106492	0	0	8157	758570	0	0
2024-04-14 02:33:32			0	33957	0	0	0	17862	16550	153930	27450	951229	36821	106492	0	0	8157	758362	0	0
2024-04-14 02:34:32			0	33918	0	0	0	17859	16550	154070	27428	951237	36822	106491	0	0	8155	760299	0	0
2024-04-14 02:35:32			0	33900	0	0	0	17859	16550	154150	27114	951282	36833	106491	0	0	8154	761194	0	0
2024-04-14 02:36:32			0	33890	0	0	0	17844	16550	154230	27272	951264	36822	106485	0	0	8154	761692	0	0
2024-04-14 02:37:32			0	33885	0	0	0	17849	16550	154258	27234	951203	36821	106487	0	0	8153	761941	0	0
2024-04-14 02:38:32			0	33888	0	0	0	17846	16530	154310	27485	951231	36821	106486	0	0	8153	761874	0	0
2024-04-14 02:39:32			0	33863	0	0	0	17849	16530	154350	27206	951250	36820	106487	0	0	8152	763119	0	0
2024-04-14 02:40:32			0	33853	0	0	0	17854	16540	154338	27415	951213	36832	106489	0	0	8151	763576	0	0
2024-04-14 02:41:32			0	33863	0	0	0	17844	16540	154386	27234	951213	36810	106485	0	0	8152	763078	0	0
2024-04-14 02:42:32			0	33858	0	0	0	17846	16530	154290	27381	951205	36821	106486	0	0	8152	763368	0	0
2024-04-14 02:43:32			0	33859	0	0	0	17849	16540	154298	27424	951187	36832	106487	0	0	8152	763277	0	0
2024-04-14 02:44:32			0	33854	0	0	0	17836	16520	154342	27578	951189	36831	106482	0	0	8151	763609	0	0
2024-04-14 02:45:32			0	33843	0	0	0	17833	16520	154370	27319	951189	36831	106481	0	0	8151	764158	0	0
2024-04-14 02:46:32			0	33854	0	0	0	17831	16520	154346	27391	951162	36820	106480	0	0	8151	763609	0	0
2024-04-14 02:47:32			0	33860	0	0	0	17838	16520	154402	27189	951189	36831	106483	0	0	8152	763310	0	0
2024-04-14 02:48:32			0	33858	0	0	0	17838	16510	154282	27301	951138	36807	106483	0	0	8152	763451	0	0
2024-04-14 02:49:32			0	33859	0	0	0	17841	16520	154354	27279	951189	36831	106484	0	0	8152	763360	0	0
2024-04-14 02:50:32			0	33867	0	0	0	17831	16520	154218	27355	951189	36831	106480	0	0	8152	762961	0	0
2024-04-14 02:51:32			0	33865	0	0	0	17833	16510	154190	27654	951172	36807	106481	0	0	8152	763102	0	0
2024-04-14 02:52:32			0	33878	0	0	0	17833	16510	154206	27296	951120	36818	106481	0	0	8153	762454	0	0
2024-04-14 02:53:32			0	33896	0	0	0	17828	16510	154182	27459	951172	36818	106479	0	0	8154	761558	0	0
2024-04-14 02:54:32			0	33902	0	0	0	17825	16510	154230	27402	951138	36807	106478	0	0	8154	761259	0	0
2024-04-14 02:55:32			0	33908	0	0	0	17828	16500	154126	27267	951122	36817	106479	0	0	8155	761002	0	0
2024-04-14 02:56:32			0	33895	0	0	0	17820	16510	154086	27055	951138	36840	106476	0	0	8154	761608	0	0
2024-04-14 02:57:32			0	33924	0	0	0	17825	16500	154110	27384	951077	36829	106478	0	0	8156	760206	0	0
2024-04-14 02:58:32			0	33909	0	0	0	17825	16510	153986	27569	951112	36818	106478	0	0	8155	760911	0	0
2024-04-14 02:59:32			0	33932	0	0	0	17828	16500	153994	27272	951156	36829	106479	0	0	8156	759809	0	0
2024-04-14 03:00:32			0	33930	0	0	0	17823	16510	154014	27469	951112	36818	106477	0	0	8156	759867	0	0
2024-04-14 03:01:32			0	33944	0	0	0	17812	16510	154074	27416	951112	36829	106473	0	0	8157	759172	0	0
2024-04-14 03:02:32			0	33959	0	0	0	17818	16500	153974	27498	951095	36817	106475	0	0	8158	758468	0	0
2024-04-14 03:03:32			0	33952	0	0	0	17823	16490	153930	27445	951087	36805	106477	0	0	8157	758857	0	0
2024-04-14 03:04:32			0	33956	0	0	0	17828	16490	153898	27369	951132	36828	106479	0	0	8157	758658	0	0
2024-04-14 03:05:32			0	33956	0	0	0	17820	16490	153826	27523	951113	36828	106476	0	0	8157	758658	0	0
2024-04-14 03:06:32			0	33968	0	0	0	17810	16500	153878	27466	951077	36818	106472	0	0	8158	758022	0	0
2024-04-14 03:07:32			0	33980	0	0	0	17823	16500	153686	27367	951122	36829	106477	0	0	8159	757427	0	0
2024-04-14 03:08:32			0	33977	0	0	0	17820	16500	153666	27237	951104	36829	106476	0	0	8159	757576	0	0
2024-04-14 03:09:32			0	33991	0	0	0	17820	16490	153726	27395	951061	36817	106476	0	0	8159	756923	0	0
2024-04-14 03:10:32			0	33999	0	0	0	17823	16490	153654	27064	951105	36828	106477	0	0	8160	756527	0	0
2024-04-14 03:11:32			0	34003	0	0	0	17818	16490	153646	27291	951087	36817	106475	0	0	8160	756329	0	0
2024-04-14 03:12:32			0	34006	0	0	0	17820	16500	153658	27237	951148	36829	106476	0	0	8160	756139	0	0
2024-04-14 03:13:32			0	33995	0	0	0	17815	16490	153666	27249	951026	36828	106474	0	0	8160	756725	0	0
2024-04-14 03:14:32			0	34013	0	0	0	17823	16480	153654	27064	951071	36817	106477	0	0	8161	755875	0	0
2024-04-14 03:15:32			0	34024	0	0	0	17831	16490	153522	27440	951105	36817	106480	0	0	8161	755290	0	0
2024-04-14 03:16:32			0	34045	0	0	0	17833	16500	153458	27346	951148	36839	106481	0	0	8162	754211	0	0
2024-04-14 03:17:32			0	34081	0	0	0	17841	16490	153342	27203	951166	36838	106484	0	0	8164	752475	0	0
2024-04-14 03:18:32			0	34054	0	0	0	17838	16490	153446	27460	951087	36838	106483	0	0	8163	753808	0	0
2024-04-14 03:19:32			0	33997	0	0	0	17844	16510	153674	27524	951191	36829	106485	0	0	8160	756544	0	0
2024-04-14 03:20:32			0	33921	0	0	0	17862	16490	154014	27554	951192	36828	106492	0	0	8155	760397	0	0
2024-04-14 03:21:32			0	33881	0	0	0	17854	16510	154142	27390	951172	36829	106489	0	0	8153	762305	0	0
2024-04-14 03:22:32			0	33829	0	0	0	17854	16510	154370	27583	951199	36851	106489	0	0	8150	764898	0	0
2024-04-14 03:23:32			0	33802	0	0	0	17854	16500	154598	27438	951183	36829	106489	0	0	8148	766289	0	0
2024-04-14 03:24:32			0	33789	0	0	0	17851	16510	154598	27287	951252	36829	106488	0	0	8147	766898	0	0
2024-04-14 03:25:32			0	33769	0	0	0	17849	16510	154666	27222	951225	36829	106487	0	0	8146	767900	0	0
2024-04-14 03:26:32			0	33753	0	0	0	17854	16510	154730	27398	951252	36840	106489	0	0	8145	768702	0	0
2024-04-14 03:27:32			0	33759	0	0	0	17859	16510	154810	27140	951146	36829	106491	0	0	8145	768401	0	0
2024-04-14 03:28:32			0	33743	0	0	0	17857	16510	154846	27253	951191	36829	106490	0	0	8145	769203	0	0
2024-04-14 03:29:32			0	33749	0	0	0	17849	16510	154910	27234	951225	36829	106487	0	0	8145	768902	0	0
2024-04-14 03:30:32			0	33753	0	0	0	17851	16520	154814	27300	951181	36840	106488	0	0	8145	768660	0	0
2024-04-14 03:31:32			0	33745	0	0	0	17851	16520	154938	27140	951233	36830	106488	0	0	8145	769061	0	0
2024-04-14 03:32:32			0	33741	0	0	0	17857	16520	154786	27459	951286	36830	106490	0	0	8144	769262	0	0
2024-04-14 03:33:32			0	33738	0	0	0	17854	16510	154938	27043	951172	36818	106489	0	0	8144	769454	0	0
2024-04-14 03:34:32			0	33734	0	0	0	17859	16510	154866	27398	951252	36829	106491	0	0	8144	769655	0	0
2024-04-14 03:35:32			0	33747	0	0	0	17864	16520	154882	27204	951294	36841	106493	0	0	8145	768961	0	0
2024-04-14 03:36:32			0	33731	0	0	0	17867	16520	154910	27100	951233	36840	106494	0	0	8144	769764	0	0
2024-04-14 03:37:32			0	33745	0	0	0	17870	16530	154790	27024	951250	36852	106495	0	0	8145	769020	0	0
2024-04-14 03:38:32			0	33761	0	0	0	17864	16530	154762	27175	951302	36841	106493	0	0	8146	768218	0	0
2024-04-14 03:39:32			0	33754	0	0	0	17857	16520	154802	27128	951268	36831	106490	0	0	8145	768610	0	0
2024-04-14 03:40:32			0	33759	0	0	0	17864	16530	154738	27147	951302	36831	106493	0	0	8145	768318	0	0
2024-04-14 03:41:32			0	33765	0	0	0	17867	16530	154686	27298	951258	36842	106494	0	0	8146	768017	0	0
2024-04-14 03:42:32			0	33758	0	0	0	17859	16520	154706	27253	951294	36841	106491	0	0	8145	768410	0	0
2024-04-14 03:43:32			0	33761	0	0	0	17862	16530	154626	27571	951250	36831	106492	0	0	8146	768218	0	0
2024-04-14 03:44:32			0	33777	0	0	0	17864	16530	154630	27201	951310	36842	106493	0	0	8146	767416	0	0
2024-04-14 03:45:32			0	33785	0	0	0	17857	16530	154598	27211	951223	36841	106490	0	0	8147	767016	0	0
2024-04-14 03:46:32			0	33791	0	0	0	17854	16520	154570	27291	951241	36841	106489	0	0	8147	766757	0	0
2024-04-14 03:47:32			0	33783	0	0	0	17870	16520	154650	27473	951260	36830	106495	0	0	8147	767157	0	0
2024-04-14 03:48:32			0	33782	0	0	0	17859	16520	154526	27114	951233	36840	106491	0	0	8147	767207	0	0
2024-04-14 03:49:32			0	33785	0	0	0	17867	16520	154602	27531	951294	36831	106494	0	0	8147	767057	0	0
2024-04-14 03:50:32			0	33782	0	0	0	17859	16530	154626	27116	951276	36831	106491	0	0	8147	767166	0	0
2024-04-14 03:51:32			0	33796	0	0	0	17857	16520	154618	27405	951241	36831	106490	0	0	8148	766506	0	0
2024-04-14 03:52:32			0	33793	0	0	0	17859	16530	154594	27438	951302	36852	106491	0	0	8147	766615	0	0
2024-04-14 03:53:32			0	33796	0	0	0	17870	16530	154690	27182	951276	36831	106495	0	0	8147	766465	0	0
2024-04-14 03:54:32			0	33779	0	0	0	17857	16520	154606	27287	951268	36831	106490	0	0	8147	767357	0	0
2024-04-14 03:55:32			0	33786	0	0	0	17867	16530	154690	27225	951302	36831	106494	0	0	8147	766965	0	0
2024-04-14 03:56:32			0	33767	0	0	0	17862	16530	154646	27147	951231	36832	106492	0	0	8146	767917	0	0
2024-04-14 03:57:32			0	33768	0	0	0	17862	16520	154670	27286	951286	36819	106492	0	0	8146	767908	0	0
2024-04-14 03:58:32			0	33768	0	0	0	17857	16530	154646	27348	951250	36831	106490	0	0	8146	767867	0	0
2024-04-14 03:59:32			0	33797	0	0	0	17857	16530	154646	27365	951284	36821	106490	0	0	8148	766415	0	0
2024-04-14 04:00:32			0	33793	0	0	0	17854	16520	154686	27409	951207	36840	106489	0	0	8148	766657	0	0
2024-04-14 04:01:32			0	33774	0	0	0	17854	16520	154626	27272	951268	36831	106489	0	0	8146	767608	0	0
2024-04-14 04:02:32			0	33783	0	0	0	17854	16530	154594	27516	951276	36831	106489	0	0	8147	767116	0	0
2024-04-14 04:03:32			0	33804	0	0	0	17854	16530	154566	27530	951310	36842	106489	0	0	8148	766065	0	0
2024-04-14 04:04:32			0	33793	0	0	0	17859	16520	154634	27107	951233	36840	106491	0	0	8147	766657	0	0
2024-04-14 04:05:32			0	33804	0	0	0	17854	16520	154566	27334	951241	36841	106489	0	0	8148	766106	0	0
2024-04-14 04:06:32			0	33813	0	0	0	17851	16520	154590	27438	951320	36841	106488	0	0	8149	765656	0	0
2024-04-14 04:07:32			0	33796	0	0	0	17849	16520	154554	27298	951233	36840	106487	0	0	8148	766506	0	0
2024-04-14 04:08:32			0	33813	0	0	0	17849	16510	154474	27225	951199	36829	106487	0	0	8149	765698	0	0
2024-04-14 04:09:32			0	33806	0	0	0	17841	16520	154546	27329	951260	36840	106484	0	0	8149	766006	0	0
2024-04-14 04:10:32			0	33819	0	0	0	17844	16520	154574	27576	951215	36831	106485	0	0	8149	765357	0	0
2024-04-14 04:11:32			0	33788	0	0	0	17846	16520	154562	27436	951181	36840	106486	0	0	8147	766907	0	0
2024-04-14 04:12:32			0	33797	0	0	0	17844	16520	154506	27358	951207	36830	106485	0	0	8148	766456	0	0
2024-04-14 04:13:32			0	33804	0	0	0	17844	16520	154626	27267	951215	36841	106485	0	0	8148	766106	0	0
2024-04-14 04:14:32			0	33771	0	0	0	17851	16520	154750	27357	951260	36830	106488	0	0	8146	767758	0	0
2024-04-14 04:15:32			0	33780	0	0	0	17846	16530	154706	27332	951250	36841	106486	0	0	8147	767266	0	0
2024-04-14 04:16:32			0	33769	0	0	0	17841	16510	154738	27216	951225	36862	106484	0	0	8146	767900	0	0
2024-04-14 04:17:32			0	33766	0	0	0	17849	16510	154774	27549	951225	36840	106487	0	0	8146	768050	0	0
2024-04-14 04:18:32			0	33750	0	0	0	17841	16510	154598	27294	951225	36829	106484	0	0	8145	768852	0	0
2024-04-14 04:19:32			0	33767	0	0	0	17841	16510	154678	27566	951304	36840	106484	0	0	8146	768000	0	0
2024-04-14 04:20:32			0	33764	0	0	0	17841	16510	154734	27175	951164	36851	106484	0	0	8146	768150	0	0
2024-04-14 04:21:32			0	33753	0	0	0	17841	16510	154742	27327	951243	36840	106484	0	0	8145	768702	0	0
2024-04-14 04:22:32			0	33748	0	0	0	17838	16510	154718	27545	951225	36829	106483	0	0	8145	768952	0	0
2024-04-14 04:23:32			0	33751	0	0	0	17833	16520	154726	27682	951233	36840	106481	0	0	8145	768760	0	0
2024-04-14 04:24:32			0	33750	0	0	0	17828	16510	154778	27279	951172	36840	106479	0	0	8145	768852	0	0
2024-04-14 04:25:32			0	33763	0	0	0	17820	16500	154718	27313	951156	36829	106476	0	0	8146	768242	0	0
2024-04-14 04:26:32			0	33756	0	0	0	17825	16510	154642	27441	951191	36840	106478	0	0	8146	768551	0	0
2024-04-14 04:27:32			0	33745	0	0	0	17815	16500	154674	27279	951227	36829	106474	0	0	8145	769145	0	0
2024-04-14 04:28:32			0	33780	0	0	0	17810	16500	154658	27498	951104	36818	106472	0	0	8147	767390	0	0
2024-04-14 04:29:32			0	33765	0	0	0	17815	16500	154598	27789	951175	36839	106474	0	0	8146	768142	0	0
2024-04-14 04:30:32			0	33775	0	0	0	17805	16500	154618	27774	951122	36817	106470	0	0	8147	767641	0	0
2024-04-14 04:31:32			0	33762	0	0	0	17802	16500	154598	27402	951175	36839	106469	0	0	8147	768292	0	0
2024-04-14 04:32:32			0	33770	0	0	0	17810	16490	154714	27438	951132	36838	106472	0	0	8147	767933	0	0
2024-04-14 04:33:32			0	33759	0	0	0	17810	16490	154710	27324	951140	36838	106472	0	0	8146	768484	0	0
2024-04-14 04:34:32			0	33773	0	0	0	17815	16490	154690	27383	951184	36849	106474	0	0	8147	767783	0	0
2024-04-14 04:35:32			0	33752	0	0	0	17815	16490	154638	27535	951026	36838	106474	0	0	8146	768835	0	0
2024-04-14 04:36:32			0	33752	0	0	0	17810	16480	154662	27232	951097	36828	106472	0	0	8146	768877	0	0
2024-04-14 04:37:32			0	33765	0	0	0	17807	16490	154614	27509	951105	36828	106471	0	0	8147	768183	0	0
2024-04-14 04:38:32			0	33783	0	0	0	17807	16480	154582	27355	951124	36828	106471	0	0	8148	767323	0	0
2024-04-14 04:39:32			0	33798	0	0	0	17807	16480	154422	27467	951097	36860	106471	0	0	8148	766572	0	0
2024-04-14 04:40:32			0	33787	0	0	0	17797	16480	154362	27372	951097	36849	106467	0	0	8148	767123	0	0
2024-04-14 04:41:32			0	33826	0	0	0	17799	16480	154414	27223	951097	36838	106468	0	0	8150	765172	0	0
2024-04-14 04:42:32			0	33834	0	0	0	17810	16480	154366	27289	951071	36838	106472	0	0	8150	764773	0	0
2024-04-14 04:43:32			0	33844	0	0	0	17805	16480	154314	27550	951124	36828	106470	0	0	8151	764273	0	0
2024-04-14 04:44:32			0	33853	0	0	0	17799	16480	154366	27362	951089	36837	106468	0	0	8152	763824	0	0
2024-04-14 04:45:32			0	33879	0	0	0	17797	16470	154286	27343	951134	36836	106467	0	0	8153	762569	0	0
2024-04-14 04:46:32			0	33879	0	0	0	17792	16480	154286	27725	951142	36837	106465	0	0	8153	762528	0	0
2024-04-14 04:47:32			0	33890	0	0	0	17797	16470	154122	27220	951107	36826	106467	0	0	8154	762021	0	0
2024-04-14 04:48:32			0	33922	0	0	0	17797	16470	154062	27133	951107	36847	106467	0	0	8156	760429	0	0
2024-04-14 04:49:32			0	33903	0	0	0	17802	16470	154074	27467	951055	36847	106469	0	0	8155	761374	0	0
2024-04-14 04:50:32			0	33934	0	0	0	17805	16480	154018	27609	951124	36828	106470	0	0	8156	759792	0	0
2024-04-14 04:51:32			0	33966	0	0	0	17797	16450	153858	27547	951030	36825	106467	0	0	8158	758326	0	0
2024-04-14 04:52:32			0	33967	0	0	0	17797	16480	153702	27528	951142	36848	106467	0	0	8158	758154	0	0
2024-04-14 04:53:32			0	33968	0	0	0	17794	16480	153678	27339	951089	36837	106466	0	0	8159	758104	0	0
2024-04-14 04:54:32			0	34014	0	0	0	17807	16470	153710	27502	951081	36847	106471	0	0	8161	755866	0	0
2024-04-14 04:55:32			0	34006	0	0	0	17802	16480	153610	27270	951142	36837	106469	0	0	8161	756221	0	0
2024-04-14 04:56:32			0	34050	0	0	0	17805	16460	153454	27100	951091	36825	106470	0	0	8163	754127	0	0
2024-04-14 04:57:32			0	34046	0	0	0	17807	16470	153470	27135	951134	36847	106471	0	0	8163	754284	0	0
2024-04-14 04:58:32			0	34077	0	0	0	17815	16470	153438	27211	951081	36826	106474	0	0	8164	752754	0	0
2024-04-14 04:59:32			0	34108	0	0	0	17807	16470	153326	27564	951099	36815	106471	0	0	8166	751226	0	0
2024-04-14 05:00:32			0	34112	0	0	0	17802	16470	153058	27357	951073	36826	106469	0	0	8167	751030	0	0
2024-04-14 05:01:32			0	34125	0	0	0	17797	16470	152974	27291	951002	36847	106467	0	0	8168	750390	0	0
2024-04-14 05:02:32			0	34166	0	0	0	17797	16480	152842	27332	951089	36848	106467	0	0	8170	748334	0	0
2024-04-14 05:03:32			0	34193	0	0	0	17805	16470	152694	27403	951081	36847	106470	0	0	8171	747050	0	0
2024-04-14 05:04:32			0	34220	0	0	0	17794	16470	152558	27270	951081	36836	106466	0	0	8173	745727	0	0
2024-04-14 05:05:32			0	34231	0	0	0	17789	16470	152490	27248	951099	36847	106464	0	0	8174	745189	0	0
2024-04-14 05:06:32			0	34258	0	0	0	17779	16470	152402	27119	951047	36847	106460	0	0	8175	743869	0	0
2024-04-14 05:07:32			0	34277	0	0	0	17792	16470	152274	27237	951073	36836	106465	0	0	8176	742941	0	0
2024-04-14 05:08:32			0	34293	0	0	0	17786	16460	152198	27407	951091	36825	106463	0	0	8177	742201	0	0
2024-04-14 05:09:32			0	34290	0	0	0	17789	16470	152238	27057	951099	36836	106464	0	0	8177	742307	0	0
2024-04-14 05:10:32			0	34301	0	0	0	17794	16470	152246	27177	951073	36836	106466	0	0	8178	741770	0	0
2024-04-14 05:11:32			0	34311	0	0	0	17792	16470	152226	27381	951073	36826	106465	0	0	8178	741283	0	0
2024-04-14 05:12:32			0	34297	0	0	0	17792	16470	152198	27369	951047	36847	106465	0	0	8178	741965	0	0
2024-04-14 05:13:32			0	34300	0	0	0	17781	16470	152198	27203	951073	36836	106461	0	0	8178	741819	0	0
2024-04-14 05:14:32			0	34304	0	0	0	17776	16460	152274	27774	951038	36825	106459	0	0	8178	741664	0	0
2024-04-14 05:15:32			0	34304	0	0	0	17774	16460	152210	27429	951038	36847	106458	0	0	8178	741664	0	0
2024-04-14 05:16:32			0	34291	0	0	0	17771	16460	152382	27280	951038	36847	106457	0	0	8177	742298	0	0
2024-04-14 05:17:32			0	34306	0	0	0	17774	16460	152330	27300	951038	36825	106458	0	0	8178	741567	0	0
2024-04-14 05:18:32			0	34309	0	0	0	17776	16450	152274	27604	951083	36835	106459	0	0	8178	741461	0	0
2024-04-14 05:19:32			0	34280	0	0	0	17776	16450	152286	27469	951004	36835	106459	0	0	8177	742875	0	0
2024-04-14 05:20:32			0	34284	0	0	0	17779	16450	152306	27684	951030	36847	106460	0	0	8177	742680	0	0
2024-04-14 05:21:32			0	34293	0	0	0	17774	16440	152258	27391	951041	36845	106458	0	0	8177	742281	0	0
2024-04-14 05:22:32			0	34286	0	0	0	17771	16450	152334	27433	950996	36846	106457	0	0	8177	742582	0	0
2024-04-14 05:23:32			0	34294	0	0	0	17766	16450	152266	27623	951101	36835	106455	0	0	8178	742192	0	0
2024-04-14 05:24:32			0	34300	0	0	0	17766	16440	152330	27696	950935	36845	106455	0	0	8178	741939	0	0
2024-04-14 05:25:32			0	34291	0	0	0	17761	16440	152294	27535	951006	36824	106453	0	0	8178	742378	0	0
2024-04-14 05:26:32			0	34297	0	0	0	17753	16430	152246	27509	950972	36834	106450	0	0	8178	742126	0	0
2024-04-14 05:27:32			0	34297	0	0	0	17755	16430	152318	27635	950972	36834	106451	0	0	8178	742126	0	0
2024-04-14 05:28:32			0	34297	0	0	0	17755	16430	152274	27426	950990	36833	106451	0	0	8178	742126	0	0
2024-04-14 05:29:32			0	34295	0	0	0	17745	16430	152234	27338	950911	36833	106447	0	0	8178	742223	0	0
2024-04-14 05:30:32			0	34293	0	0	0	17750	16430	152254	27550	950945	36834	106449	0	0	8178	742321	0	0
2024-04-14 05:31:32			0	34302	0	0	0	17735	16430	152270	27249	950884	36833	106443	0	0	8179	741882	0	0
2024-04-14 05:32:32			0	34294	0	0	0	17737	16430	152250	27483	950990	36823	106444	0	0	8178	742272	0	0
2024-04-14 05:33:32			0	34293	0	0	0	17735	16420	152270	27486	950903	36833	106443	0	0	8178	742361	0	0
2024-04-14 05:34:32			0	34290	0	0	0	17732	16400	152206	27194	950870	36832	106442	0	0	8178	742588	0	0
2024-04-14 05:35:32			0	34316	0	0	0	17729	16410	152154	27365	950878	36842	106441	0	0	8179	741280	0	0
2024-04-14 05:36:32			0	34304	0	0	0	17727	16410	152190	27156	950913	36833	106440	0	0	8179	741865	0	0
2024-04-14 05:37:32			0	34295	0	0	0	17742	16400	152306	27511	950870	36832	106446	0	0	8178	742344	0	0
2024-04-14 05:38:32			0	34260	0	0	0	17729	16400	152430	27105	950844	36820	106441	0	0	8176	744053	0	0
2024-04-14 05:39:32			0	34217	0	0	0	17732	16390	152734	27066	950854	36820	106442	0	0	8174	746197	0	0
2024-04-14 05:40:32			0	34160	0	0	0	17745	16400	152890	27156	950844	36832	106447	0	0	8170	748953	0	0
2024-04-14 05:41:32			0	34123	0	0	0	17742	16400	153018	27218	950897	36832	106446	0	0	8168	750772	0	0
2024-04-14 05:42:32			0	34087	0	0	0	17735	16400	153226	27518	950844	36842	106443	0	0	8166	752546	0	0
2024-04-14 05:43:32			0	34070	0	0	0	17729	16410	153362	27403	950878	36832	106441	0	0	8165	753344	0	0
2024-04-14 05:44:32			0	34029	0	0	0	17740	16390	153458	27341	950828	36842	106445	0	0	8163	755451	0	0
2024-04-14 05:45:32			0	34019	0	0	0	17735	16400	153490	27388	950870	36820	106443	0	0	8162	755905	0	0
2024-04-14 05:46:32			0	34002	0	0	0	17729	16390	153586	27090	950801	36832	106441	0	0	8161	756788	0	0
2024-04-14 05:47:32			0	33974	0	0	0	17719	16400	153626	27012	950791	36832	106437	0	0	8160	758134	0	0
2024-04-14 05:48:32			0	33966	0	0	0	17719	16390	153754	27140	950854	36820	106437	0	0	8159	758572	0	0
2024-04-14 05:49:32			0	33921	0	0	0	17711	16390	154006	27343	950801	36832	106434	0	0	8157	760808	0	0
2024-04-14 05:50:32			0	33890	0	0	0	17716	16390	154122	27248	950828	36832	106436	0	0	8155	762351	0	0
2024-04-14 05:51:32			0	33856	0	0	0	17716	16390	154258	27402	950767	36831	106436	0	0	8153	764046	0	0
2024-04-14 05:52:32			0	33833	0	0	0	17701	16380	154374	27149	950785	36830	106430	0	0	8152	765236	0	0
2024-04-14 05:53:32			0	33828	0	0	0	17703	16400	154426	27190	950757	36842	106431	0	0	8152	765404	0	0
2024-04-14 05:54:32			0	33829	0	0	0	17690	16380	154438	27419	950751	36818	106426	0	0	8152	765436	0	0
2024-04-14 05:55:32			0	33809	0	0	0	17701	16380	154426	27393	950733	36830	106430	0	0	8150	766436	0	0
2024-04-14 05:56:32			0	33819	0	0	0	17703	16380	154510	27204	950804	36829	106431	0	0	8151	765936	0	0
2024-04-14 05:57:32			0	33820	0	0	0	17688	16380	154478	27170	950751	36818	106425	0	0	8151	765886	0	0
2024-04-14 05:58:32			0	33825	0	0	0	17703	16380	154434	27407	950785	36830	106431	0	0	8151	765636	0	0
2024-04-14 05:59:32			0	33841	0	0	0	17696	16370	154466	27066	950716	36839	106428	0	0	8152	764878	0	0
2024-04-14 06:00:32			0	33836	0	0	0	17680	16370	154546	27376	950682	36818	106422	0	0	8152	765128	0	0
2024-04-14 06:01:32			0	33851	0	0	0	17680	16370	154386	27564	950637	36818	106422	0	0	8153	764379	0	0
2024-04-14 06:02:32			0	33836	0	0	0	17672	16360	154394	27376	950639	36838	106419	0	0	8152	765169	0	0
2024-04-14 06:03:32			0	33850	0	0	0	17675	16360	154310	27287	950753	36828	106420	0	0	8153	764470	0	0
2024-04-14 06:04:32			0	33851	0	0	0	17670	16350	154350	27208	950623	36849	106418	0	0	8153	764461	0	0
2024-04-14 06:05:32			0	33842	0	0	0	17672	16350	154346	27346	950657	36827	106419	0	0	8153	764911	0	0
2024-04-14 06:06:32			0	33832	0	0	0	17670	16350	154366	27228	950631	36838	106418	0	0	8152	765410	0	0
2024-04-14 06:07:32			0	33821	0	0	0	17662	16350	154506	27275	950657	36816	106415	0	0	8152	765960	0	0
2024-04-14 06:08:32			0	33785	0	0	0	17670	16340	154610	27279	950633	36815	106418	0	0	8149	767804	0	0
2024-04-14 06:09:32			0	33752	0	0	0	17670	16340	154690	27410	950615	36827	106418	0	0	8147	769459	0	0
2024-04-14 06:10:32			0	33735	0	0	0	17664	16340	154758	27303	950641	36837	106416	0	0	8146	770312	0	0
2024-04-14 06:11:32			0	33722	0	0	0	17664	16340	155014	27613	950615	36827	106416	0	0	8146	770966	0	0
2024-04-14 06:12:32			0	33701	0	0	0	17670	16340	155022	27383	950562	36827	106418	0	0	8144	772022	0	0
2024-04-14 06:13:32			0	33671	0	0	0	17664	16340	155066	27339	950607	36836	106416	0	0	8143	773533	0	0
2024-04-14 06:14:32			0	33677	0	0	0	17662	16330	155046	27145	950599	36836	106415	0	0	8143	773273	0	0
2024-04-14 06:15:32			0	33659	0	0	0	17659	16340	155154	27300	950615	36816	106414	0	0	8142	774138	0	0
2024-04-14 06:16:32			0	33687	0	0	0	17659	16320	155066	27315	950627	36824	106414	0	0	8144	772810	0	0
2024-04-14 06:17:32			0	33670	0	0	0	17654	16330	155082	27334	950572	36815	106412	0	0	8143	773625	0	0
2024-04-14 06:18:32			0	33673	0	0	0	17649	16330	155258	27031	950599	36815	106410	0	0	8143	773474	0	0
2024-04-14 06:19:32			0	33666	0	0	0	17654	16330	155194	27459	950546	36836	106412	0	0	8143	773827	0	0
2024-04-14 06:20:32			0	33688	0	0	0	17654	16330	155130	27326	950591	36836	106412	0	0	8144	772718	0	0
2024-04-14 06:21:32			0	33677	0	0	0	17657	16320	155034	27478	950556	36825	106413	0	0	8143	773314	0	0
2024-04-14 06:22:32			0	33690	0	0	0	17651	16320	155158	27338	950556	36835	106411	0	0	8144	772659	0	0
2024-04-14 06:23:32			0	33708	0	0	0	17654	16330	154974	27601	950591	36826	106412	0	0	8145	771712	0	0
2024-04-14 06:24:32			0	33719	0	0	0	17654	16330	155046	27343	950538	36826	106412	0	0	8146	771158	0	0
2024-04-14 06:25:32			0	33713	0	0	0	17644	16320	154990	27497	950548	36846	106408	0	0	8145	771502	0	0
2024-04-14 06:26:32			0	33717	0	0	0	17649	16320	155054	27229	950548	36834	106410	0	0	8146	771301	0	0
2024-04-14 06:27:32			0	33738	0	0	0	17649	16320	154938	27104	950503	36835	106410	0	0	8147	770245	0	0
2024-04-14 06:28:32			0	33737	0	0	0	17641	16320	154898	27376	950522	36824	106407	0	0	8147	770295	0	0
2024-04-14 06:29:32			0	33742	0	0	0	17649	16320	154762	27300	950522	36813	106410	0	0	8147	770044	0	0
2024-04-14 06:30:32			0	33764	0	0	0	17636	16320	154782	27138	950469	36824	106405	0	0	8149	768940	0	0
2024-04-14 06:31:32			0	33772	0	0	0	17628	16320	154734	27509	950574	36824	106402	0	0	8149	768539	0	0
2024-04-14 06:32:32			0	33787	0	0	0	17625	16310	154546	27459	950505	36801	106401	0	0	8150	767828	0	0
2024-04-14 06:33:32			0	33785	0	0	0	17618	16300	154602	27597	950471	36823	106398	0	0	8150	767970	0	0
2024-04-14 06:34:32			0	33787	0	0	0	17623	16300	154550	27362	950497	36834	106400	0	0	8150	767870	0	0
2024-04-14 06:35:32			0	33815	0	0	0	17607	16320	154446	27338	950416	36813	106394	0	0	8152	766385	0	0
2024-04-14 06:36:32			0	33828	0	0	0	17605	16300	154446	27410	950471	36834	106393	0	0	8153	765817	0	0
2024-04-14 06:37:32			0	33846	0	0	0	17597	16290	154342	27140	950428	36811	106390	0	0	8154	764959	0	0
2024-04-14 06:38:32			0	33863	0	0	0	17597	16300	154310	27396	950410	36811	106390	0	0	8155	764069	0	0
2024-04-14 06:39:32			0	33867	0	0	0	17607	16280	154114	27140	950412	36822	106394	0	0	8155	763952	0	0
2024-04-14 06:40:32			0	33920	0	0	0	17599	16280	154082	27182	950386	36811	106391	0	0	8158	761310	0	0
2024-04-14 06:41:32			0	33958	0	0	0	17597	16280	153838	27187	950404	36821	106390	0	0	8160	759421	0	0
2024-04-14 06:42:32			0	34007	0	0	0	17594	16280	153686	27294	950439	36811	106389	0	0	8163	756990	0	0
2024-04-14 06:43:32			0	34065	0	0	0	17581	16270	153334	27410	950370	36831	106384	0	0	8167	754161	0	0
2024-04-14 06:44:32			0	34129	0	0	0	17581	16280	153018	27015	950325	36821	106384	0	0	8171	750964	0	0
2024-04-14 06:45:32			0	34193	0	0	0	17576	16270	152782	27542	950317	36831	106382	0	0	8174	747858	0	0
2024-04-14 06:46:32			0	34244	0	0	0	17581	16270	152518	27438	950362	36798	106384	0	0	8177	745359	0	0
2024-04-14 06:47:32			0	34318	0	0	0	17589	16280	152158	27336	950299	36821	106387	0	0	8181	741703	0	0
2024-04-14 06:48:32			0	34393	0	0	0	17579	16270	151951	27454	950370	36820	106383	0	0	8186	738093	0	0
2024-04-14 06:49:32			0	34423	0	0	0	17592	16270	151615	27478	950362	36831	106388	0	0	8187	736637	0	0
2024-04-14 06:50:32			0	34482	0	0	0	17592	16260	151451	27866	950354	36831	106388	0	0	8190	733819	0	0
2024-04-14 06:51:32			0	34524	0	0	0	17592	16270	151295	27183	950335	36820	106388	0	0	8193	731751	0	0
2024-04-14 06:52:32			0	34550	0	0	0	17599	16260	151063	27521	950354	36831	106391	0	0	8194	730536	0	0
2024-04-14 06:53:32			0	34583	0	0	0	17597	16260	150967	27383	950345	36819	106390	0	0	8196	728947	0	0
2024-04-14 06:54:32			0	34629	0	0	0	17594	16260	150991	27374	950327	36820	106389	0	0	8199	726736	0	0
2024-04-14 06:55:32			0	34645	0	0	0	17587	16270	150815	27502	950335	36820	106386	0	0	8200	725929	0	0
2024-04-14 06:56:32			0	34640	0	0	0	17589	16270	150727	27478	950335	36809	106387	0	0	8200	726169	0	0
2024-04-14 06:57:32			0	34642	0	0	0	17594	16260	150707	27426	950319	36831	106389	0	0	8200	726113	0	0
2024-04-14 06:58:32			0	34667	0	0	0	17597	16260	150683	27659	950354	36831	106390	0	0	8201	724914	0	0
2024-04-14 06:59:32			0	34661	0	0	0	17594	16260	150631	27381	950406	36831	106389	0	0	8201	725202	0	0
2024-04-14 07:00:32			0	34630	0	0	0	17592	16260	150679	27135	950293	36819	106388	0	0	8199	726688	0	0
2024-04-14 07:01:32			0	34636	0	0	0	17581	16270	150823	27362	950309	36820	106384	0	0	8199	726361	0	0
2024-04-14 07:02:32			0	34610	0	0	0	17589	16250	150927	27736	950277	36818	106387	0	0	8198	727688	0	0
2024-04-14 07:03:32			0	34586	0	0	0	17579	16260	150871	27718	950293	36819	106383	0	0	8197	728803	0	0
2024-04-14 07:04:32			0	34586	0	0	0	17584	16240	151071	27531	950321	36818	106385	0	0	8196	728882	0	0
2024-04-14 07:05:32			0	34555	0	0	0	17568	16240	151031	27379	950313	36829	106379	0	0	8195	730374	0	0
2024-04-14 07:06:32			0	34561	0	0	0	17561	16240	151227	27407	950260	36829	106376	0	0	8195	730085	0	0
2024-04-14 07:07:32			0	34510	0	0	0	17563	16240	151295	27514	950286	36818	106377	0	0	8192	732545	0	0
2024-04-14 07:08:32			0	34488	0	0	0	17555	16240	151467	27731	950286	36807	106374	0	0	8191	733608	0	0
2024-04-14 07:09:32			0	34458	0	0	0	17550	16240	151467	27400	950207	36829	106372	0	0	8190	735060	0	0
2024-04-14 07:10:32			0	34440	0	0	0	17548	16240	151611	27157	950234	36818	106371	0	0	8189	735932	0	0
2024-04-14 07:11:32			0	34420	0	0	0	17548	16240	151751	27537	950207	36807	106371	0	0	8188	736902	0	0
2024-04-14 07:12:32			0	34384	0	0	0	17540	16230	151843	27457	950191	36816	106368	0	0	8186	738690	0	0
2024-04-14 07:13:32			0	34360	0	0	0	17542	16240	152063	27208	950207	36829	106369	0	0	8184	739817	0	0
2024-04-14 07:14:32			0	34312	0	0	0	17540	16220	152202	27705	950175	36827	106368	0	0	8181	742236	0	0
2024-04-14 07:15:32			0	34278	0	0	0	17540	16220	152370	27746	950149	36816	106368	0	0	8180	743897	0	0
2024-04-14 07:16:32			0	34255	0	0	0	17537	16220	152478	27651	950122	36827	106367	0	0	8178	745021	0	0
2024-04-14 07:17:32			0	34227	0	0	0	17545	16220	152674	27604	950175	36816	106370	0	0	8177	746393	0	0
2024-04-14 07:18:32			0	34174	0	0	0	17540	16210	152806	27183	950193	36815	106368	0	0	8173	749034	0	0
2024-04-14 07:19:32			0	34137	0	0	0	17540	16210	152886	27369	950193	36815	106368	0	0	8171	750854	0	0
2024-04-14 07:20:32			0	34104	0	0	0	17540	16210	153206	27561	950167	36804	106368	0	0	8169	752480	0	0
2024-04-14 07:21:32			0	34070	0	0	0	17542	16210	153330	27300	950159	36803	106369	0	0	8167	754158	0	0
2024-04-14 07:22:32			0	34037	0	0	0	17535	16210	153510	27447	950193	36815	106366	0	0	8166	755790	0	0
2024-04-14 07:23:32			0	34005	0	0	0	17529	16210	153586	27426	950185	36836	106364	0	0	8164	757375	0	0
2024-04-14 07:24:32			0	33994	0	0	0	17537	16200	153706	27409	950169	36814	106367	0	0	8163	757962	0	0
2024-04-14 07:25:32			0	33991	0	0	0	17548	16210	153722	27279	950185	36814	106371	0	0	8163	758069	0	0
2024-04-14 07:26:32			0	33967	0	0	0	17545	16210	153710	27466	950193	36826	106370	0	0	8161	759261	0	0
2024-04-14 07:27:32			0	33974	0	0	0	17553	16210	153786	26916	950212	36814	106373	0	0	8162	758913	0	0
2024-04-14 07:28:32			0	33967	0	0	0	17555	16210	153874	27395	950193	36815	106374	0	0	8161	759261	0	0
2024-04-14 07:29:32			0	33978	0	0	0	17555	16210	153826	27350	950193	36815	106374	0	0	8162	758714	0	0
2024-04-14 07:30:32			0	33988	0	0	0	17558	16210	153714	27296	950185	36803	106375	0	0	8162	758218	0	0
2024-04-14 07:31:32			0	33985	0	0	0	17558	16210	153730	27036	950132	36814	106375	0	0	8162	758367	0	0
2024-04-14 07:32:32			0	34002	0	0	0	17555	16210	153630	27332	950220	36815	106374	0	0	8163	757524	0	0
2024-04-14 07:33:32			0	34026	0	0	0	17563	16210	153558	27675	950167	36804	106377	0	0	8165	756335	0	0
2024-04-14 07:34:32			0	34032	0	0	0	17550	16220	153506	27244	950149	36837	106372	0	0	8165	755997	0	0
2024-04-14 07:35:32			0	34064	0	0	0	17553	16210	153286	27228	950220	36815	106373	0	0	8167	754455	0	0
2024-04-14 07:36:32			0	34076	0	0	0	17542	16210	153274	27072	950141	36826	106369	0	0	8168	753862	0	0
2024-04-14 07:37:32			0	34099	0	0	0	17537	16210	153178	27331	950212	36826	106367	0	0	8169	752727	0	0
2024-04-14 07:38:32			0	34123	0	0	0	17542	16200	153110	27324	950098	36836	106369	0	0	8170	751584	0	0
2024-04-14 07:39:32			0	34125	0	0	0	17540	16210	153022	27204	950141	36815	106368	0	0	8171	751445	0	0
2024-04-14 07:40:32			0	34139	0	0	0	17524	16210	152986	27239	950141	36826	106362	0	0	8172	750756	0	0
2024-04-14 07:41:32			0	34163	0	0	0	17529	16210	152874	27333	950159	36814	106364	0	0	8173	749575	0	0
2024-04-14 07:42:32			0	34190	0	0	0	17522	16200	152778	27573	950143	36826	106361	0	0	8175	748289	0	0
2024-04-14 07:43:32			0	34205	0	0	0	17519	16200	152774	27699	950124	36826	106360	0	0	8176	747552	0	0
2024-04-14 07:44:32			0	34200	0	0	0	17522	16200	152662	27569	950177	36826	106361	0	0	8175	747798	0	0
2024-04-14 07:45:32			0	34193	0	0	0	17519	16190	152690	27436	950161	36825	106360	0	0	8175	748181	0	0
2024-04-14 07:46:32			0	34173	0	0	0	17514	16200	152786	27639	950090	36836	106358	0	0	8174	749124	0	0
2024-04-14 07:47:32			0	34179	0	0	0	17524	16210	152938	27705	950132	36826	106362	0	0	8174	748788	0	0
2024-04-14 07:48:32			0	34153	0	0	0	17516	16200	153018	27928	950064	36826	106359	0	0	8173	750107	0	0
2024-04-14 07:49:32			0	34118	0	0	0	17501	16200	153014	27731	950090	36814	106353	0	0	8171	751830	0	0
2024-04-14 07:50:32			0	34109	0	0	0	17457	16190	153150	27614	949942	36802	106336	0	0	8171	752315	0	0
2024-04-14 07:51:32			0	34026	0	0	0	17467	16180	153530	27895	950005	36801	106340	0	0	8166	756457	0	0
2024-04-14 07:52:32			0	33946	0	0	0	17459	16180	153898	28058	950031	36812	106337	0	0	8162	760428	0	0
2024-04-14 07:53:32			0	33894	0	0	0	17457	16170	154146	27543	949997	36823	106336	0	0	8158	763058	0	0
2024-04-14 07:54:32			0	33847	0	0	0	17459	16160	154338	27883	949981	36810	106337	0	0	8156	765446	0	0
2024-04-14 07:55:32			0	33825	0	0	0	17464	16170	154462	27680	949944	36823	106339	0	0	8154	766505	0	0
2024-04-14 07:56:32			0	33802	0	0	0	17480	16150	154586	27828	949920	36822	106345	0	0	8153	767740	0	0
2024-04-14 07:57:32			0	33778	0	0	0	17472	16170	154726	27763	949989	36800	106342	0	0	8151	768860	0	0
2024-04-14 07:58:32			0	33784	0	0	0	17464	16160	154786	27968	949928	36799	106339	0	0	8152	768601	0	0
2024-04-14 07:59:32			0	33796	0	0	0	17462	16160	154618	27843	949928	36810	106338	0	0	8153	767999	0	0
2024-04-14 08:00:32			0	33782	0	0	0	17462	16150	154626	27673	949964	36810	106338	0	0	8152	768743	0	0
2024-04-14 08:01:32			0	33790	0	0	0	17457	16150	154642	28067	949973	36822	106336	0	0	8152	768342	0	0
2024-04-14 08:02:32			0	33792	0	0	0	17459	16140	154730	27698	949869	36798	106337	0	0	8152	768283	0	0
2024-04-14 08:03:32			0	33815	0	0	0	17462	16150	154538	27763	949885	36810	106338	0	0	8154	767089	0	0
2024-04-14 08:04:32			0	33806	0	0	0	17467	16140	154526	28096	949904	36810	106340	0	0	8153	767581	0	0
2024-04-14 08:05:32			0	33816	0	0	0	17480	16140	154570	28053	949851	36821	106345	0	0	8153	767080	0	0
2024-04-14 08:06:32			0	33821	0	0	0	17480	16140	154558	27715	949930	36821	106345	0	0	8154	766830	0	0
2024-04-14 08:07:32			0	33817	0	0	0	17483	16140	154506	27816	949956	36810	106346	0	0	8153	767030	0	0
2024-04-14 08:08:32			0	33823	0	0	0	17480	16140	154582	27826	949956	36821	106345	0	0	8154	766730	0	0
2024-04-14 08:09:32			0	33841	0	0	0	17483	16140	154518	27911	949877	36821	106346	0	0	8155	765829	0	0
2024-04-14 08:10:32			0	33855	0	0	0	17488	16140	154466	28006	949948	36809	106348	0	0	8156	765129	0	0
2024-04-14 08:11:32			0	33863	0	0	0	17485	16140	154498	27904	949930	36832	106347	0	0	8156	764729	0	0
2024-04-14 08:12:32			0	33875	0	0	0	17483	16140	154370	27807	950009	36798	106346	0	0	8157	764130	0	0
2024-04-14 08:13:32			0	33881	0	0	0	17483	16150	154346	28048	949964	36810	106346	0	0	8157	763789	0	0
2024-04-14 08:14:32			0	33880	0	0	0	17488	16150	154346	27894	949991	36799	106348	0	0	8157	763839	0	0
2024-04-14 08:15:32			0	33849	0	0	0	17493	16140	154358	27906	950001	36820	106350	0	0	8155	765429	0	0
2024-04-14 08:16:32			0	33850	0	0	0	17496	16160	154574	27760	950007	36822	106351	0	0	8155	765296	0	0
2024-04-14 08:17:32			0	33830	0	0	0	17490	16130	154478	27753	950019	36820	106349	0	0	8154	766421	0	0
2024-04-14 08:18:32			0	33802	0	0	0	17493	16150	154614	28253	949991	36822	106350	0	0	8152	767740	0	0
2024-04-14 08:19:32			0	33796	0	0	0	17509	16160	154698	27996	950007	36822	106356	0	0	8152	767999	0	0
2024-04-14 08:20:32			0	33786	0	0	0	17511	16150	154734	27932	950025	36810	106357	0	0	8151	768542	0	0
2024-04-14 08:21:32			0	33783	0	0	0	17516	16170	154710	28490	950041	36811	106359	0	0	8151	768610	0	0
2024-04-14 08:22:32			0	33776	0	0	0	17519	16170	154822	28036	950041	36811	106360	0	0	8151	768961	0	0
2024-04-14 08:23:32			0	33780	0	0	0	17527	16170	154758	28138	950068	36833	106363	0	0	8151	768760	0	0
2024-04-14 08:24:32			0	33788	0	0	0	17529	16170	154778	28010	950129	36823	106364	0	0	8151	768359	0	0
2024-04-14 08:25:32			0	33762	0	0	0	17532	16170	154838	28102	950102	36812	106365	0	0	8149	769663	0	0
2024-04-14 08:26:32			0	33756	0	0	0	17535	16180	154786	27935	950137	36833	106366	0	0	8149	769923	0	0
2024-04-14 08:27:32			0	33750	0	0	0	17537	16180	154874	27675	950171	36813	106367	0	0	8149	770225	0	0
2024-04-14 08:28:32			0	33746	0	0	0	17540	16180	155010	27739	950171	36824	106368	0	0	8148	770426	0	0
2024-04-14 08:29:32			0	33740	0	0	0	17537	16180	155050	27460	950171	36834	106367	0	0	8148	770727	0	0
2024-04-14 08:30:32			0	33708	0	0	0	17529	16180	155022	27769	950092	36824	106364	0	0	8146	772337	0	0
2024-04-14 08:31:32			0	33681	0	0	0	17540	16170	155138	27767	950129	36823	106368	0	0	8145	773739	0	0
2024-04-14 08:32:32			0	33678	0	0	0	17542	16190	155190	27291	950135	36835	106369	0	0	8144	773807	0	0
2024-04-14 08:33:32			0	33664	0	0	0	17540	16200	155346	27831	950203	36836	106368	0	0	8144	774471	0	0
2024-04-14 08:34:32			0	33624	0	0	0	17555	16200	155390	27317	950222	36836	106374	0	0	8141	776492	0	0
2024-04-14 08:35:32			0	33603	0	0	0	17558	16200	155506	27588	950230	36826	106375	0	0	8140	777555	0	0
2024-04-14 08:36:32			0	33590	0	0	0	17555	16210	155502	27822	950212	36826	106374	0	0	8139	778171	0	0
2024-04-14 08:37:32			0	33579	0	0	0	17553	16190	155546	27923	950214	36835	106373	0	0	8138	778813	0	0
2024-04-14 08:38:32			0	33594	0	0	0	17561	16200	155622	27372	950256	36836	106376	0	0	8139	778010	0	0
2024-04-14 08:39:32			0	33568	0	0	0	17553	16200	155629	27514	950203	36836	106373	0	0	8138	779328	0	0
2024-04-14 08:40:32			0	33558	0	0	0	17561	16200	155661	27429	950256	36826	106376	0	0	8137	779836	0	0
2024-04-14 08:41:32			0	33551	0	0	0	17558	16200	155693	27680	950203	36836	106375	0	0	8137	780191	0	0
2024-04-14 08:42:32			0	33531	0	0	0	17574	16210	155733	27699	950291	36836	106381	0	0	8135	781164	0	0
2024-04-14 08:43:32			0	33538	0	0	0	17566	16220	155737	27810	950262	36827	106378	0	0	8136	780767	0	0
2024-04-14 08:44:32			0	33507	0	0	0	17553	16210	155825	27639	950272	36826	106373	0	0	8134	782385	0	0
2024-04-14 08:45:32			0	33526	0	0	0	17561	16220	155901	27656	950280	36849	106376	0	0	8135	781376	0	0
2024-04-14 08:46:32			0	33520	0	0	0	17555	16210	155837	27502	950272	36826	106374	0	0	8135	781724	0	0
2024-04-14 08:47:32			0	33521	0	0	0	17566	16220	155793	27616	950254	36849	106378	0	0	8135	781631	0	0
2024-04-14 08:48:32			0	33534	0	0	0	17558	16210	155825	27453	950272	36826	106375	0	0	8136	781012	0	0
2024-04-14 08:49:32			0	33538	0	0	0	17555	16220	155733	27486	950280	36837	106374	0	0	8136	780767	0	0
2024-04-14 08:50:32			0	33564	0	0	0	17555	16220	155633	27661	950254	36837	106374	0	0	8138	779447	0	0
2024-04-14 08:51:32			0	33566	0	0	0	17563	16220	155610	27699	950228	36827	106377	0	0	8138	779345	0	0
2024-04-14 08:52:32			0	33558	0	0	0	17542	16210	155685	27467	950246	36837	106369	0	0	8138	779793	0	0
2024-04-14 08:53:32			0	33572	0	0	0	17558	16220	155694	27630	950236	36827	106375	0	0	8138	779041	0	0
2024-04-14 08:54:32			0	33571	0	0	0	17553	16200	155682	27416	950230	36826	106373	0	0	8138	779176	0	0
2024-04-14 08:55:32			0	33573	0	0	0	17545	16210	155625	27663	950238	36836	106370	0	0	8138	779032	0	0
2024-04-14 08:56:32			0	33540	0	0	0	17555	16210	155637	27490	950212	36836	106374	0	0	8136	780707	0	0
2024-04-14 08:57:32			0	33528	0	0	0	17545	16220	155901	27400	950228	36827	106370	0	0	8136	781275	0	0
2024-04-14 08:58:32			0	33483	0	0	0	17555	16210	155961	27343	950272	36837	106374	0	0	8133	783606	0	0
2024-04-14 08:59:32			0	33475	0	0	0	17542	16220	156125	27346	950236	36837	106369	0	0	8133	783972	0	0
2024-04-14 09:00:32			0	33421	0	0	0	17548	16210	156157	27514	950185	36836	106371	0	0	8129	786770	0	0
2024-04-14 09:01:32			0	33425	0	0	0	17555	16210	156221	27379	950220	36837	106374	0	0	8129	786566	0	0
2024-04-14 09:02:32			0	33410	0	0	0	17553	16220	156277	27372	950280	36837	106373	0	0	8129	787290	0	0
2024-04-14 09:03:32			0	33406	0	0	0	17571	16210	156441	27395	950246	36848	106380	0	0	8128	787537	0	0
2024-04-14 09:04:32			0	33386	0	0	0	17571	16220	156397	27556	950254	36837	106380	0	0	8127	788518	0	0
2024-04-14 09:05:32			0	33410	0	0	0	17576	16220	156357	27436	950228	36837	106382	0	0	8128	787290	0	0
2024-04-14 09:06:32			0	33422	0	0	0	17576	16220	156173	27705	950288	36837	106382	0	0	8129	786677	0	0
2024-04-14 09:07:32			0	33450	0	0	0	17571	16220	156213	27405	950315	36849	106380	0	0	8131	785247	0	0
2024-04-14 09:08:32			0	33464	0	0	0	17558	16220	156117	27573	950280	36837	106375	0	0	8132	784533	0	0
2024-04-14 09:09:32			0	33488	0	0	0	17571	16230	156101	27445	950297	36837	106380	0	0	8133	783267	0	0
2024-04-14 09:10:32			0	33501	0	0	0	17574	16220	155933	27673	950315	36849	106381	0	0	8134	782648	0	0
2024-04-14 09:11:32			0	33524	0	0	0	17568	16220	155861	27407	950280	36827	106379	0	0	8135	781478	0	0
2024-04-14 09:12:32			0	33533	0	0	0	17615	16210	155781	27346	950351	36837	106397	0	0	8135	781063	0	0
2024-04-14 09:13:32			0	33553	0	0	0	17566	16250	155669	27282	950356	36839	106378	0	0	8137	779879	0	0
2024-04-14 09:14:32			0	33573	0	0	0	17542	16230	155610	27661	950323	36849	106369	0	0	8138	778948	0	0
2024-04-14 09:15:32			0	33570	0	0	0	17506	16240	155630	27505	950286	36861	106355	0	0	8139	779059	0	0
2024-04-14 09:16:32			0	33554	0	0	0	17561	16230	155657	27543	950297	36837	106376	0	0	8137	779912	0	0
2024-04-14 09:17:32			0	33537	0	0	0	17571	16230	155769	27391	950297	36849	106380	0	0	8136	780775	0	0
2024-04-14 09:18:32			0	33535	0	0	0	17584	16240	155805	27459	950347	36850	106385	0	0	8136	780835	0	0
2024-04-14 09:19:32			0	33528	0	0	0	17592	16240	155749	27490	950365	36839	106388	0	0	8135	781190	0	0
2024-04-14 09:20:32			0	33511	0	0	0	17597	16240	155737	27272	950339	36850	106390	0	0	8134	782054	0	0
2024-04-14 09:21:32			0	33517	0	0	0	17587	16250	155849	27500	950390	36840	106386	0	0	8135	781707	0	0
2024-04-14 09:22:32			0	33509	0	0	0	17589	16240	155817	27415	950418	36839	106387	0	0	8134	782156	0	0
2024-04-14 09:23:32			0	33484	0	0	0	17579	16240	155865	27085	950365	36850	106383	0	0	8133	783429	0	0
2024-04-14 09:24:32			0	33494	0	0	0	17571	16240	155809	27642	950347	36850	106380	0	0	8133	782920	0	0
2024-04-14 09:25:32			0	33489	0	0	0	17571	16240	155909	27402	950365	36839	106380	0	0	8133	783174	0	0
2024-04-14 09:26:32			0	33490	0	0	0	17574	16240	155889	27384	950313	36839	106381	0	0	8133	783123	0	0
2024-04-14 09:27:32			0	33491	0	0	0	17568	16240	155965	27554	950347	36850	106379	0	0	8133	783072	0	0
2024-04-14 09:28:32			0	33482	0	0	0	17574	16250	156029	27319	950408	36850	106381	0	0	8133	783488	0	0
2024-04-14 09:29:32			0	33472	0	0	0	17576	16250	155997	27170	950382	36839	106382	0	0	8132	783998	0	0
2024-04-14 09:30:32			0	33476	0	0	0	17584	16240	156089	27585	950313	36839	106385	0	0	8132	783836	0	0
2024-04-14 09:31:32			0	33478	0	0	0	17584	16240	156153	27452	950313	36839	106385	0	0	8132	783734	0	0
2024-04-14 09:32:32			0	33460	0	0	0	17594	16250	155973	27653	950435	36839	106389	0	0	8131	784609	0	0
2024-04-14 09:33:32			0	33482	0	0	0	17605	16250	156181	27246	950443	36862	106393	0	0	8132	783488	0	0
2024-04-14 09:34:32			0	33471	0	0	0	17602	16250	156157	27206	950469	36830	106392	0	0	8132	784049	0	0
2024-04-14 09:35:32			0	33474	0	0	0	17610	16260	156037	27322	950425	36841	106395	0	0	8132	783853	0	0
2024-04-14 09:36:32			0	33477	0	0	0	17612	16260	155933	27310	950451	36841	106396	0	0	8132	783701	0	0
2024-04-14 09:37:32			0	33499	0	0	0	17615	16260	155829	27416	950477	36841	106397	0	0	8133	782580	0	0
2024-04-14 09:38:32			0	33521	0	0	0	17623	16260	155817	27422	950433	36841	106400	0	0	8134	781462	0	0
2024-04-14 09:39:32			0	33545	0	0	0	17625	16270	155761	27301	950467	36853	106401	0	0	8136	780201	0	0
2024-04-14 09:40:32			0	33542	0	0	0	17638	16270	155761	27220	950493	36853	106406	0	0	8135	780353	0	0
2024-04-14 09:41:32			0	33509	0	0	0	17638	16270	155785	27334	950546	36853	106406	0	0	8133	782029	0	0
2024-04-14 09:42:32			0	33487	0	0	0	17644	16280	155957	27396	950536	36853	106408	0	0	8132	783107	0	0
2024-04-14 09:43:32			0	33464	0	0	0	17638	16280	156117	27498	950536	36865	106406	0	0	8131	784278	0	0
2024-04-14 09:44:32			0	33414	0	0	0	17646	16290	156189	27277	950560	36865	106409	0	0	8128	786788	0	0
2024-04-14 09:45:32			0	33407	0	0	0	17662	16290	156233	27445	950578	36843	106415	0	0	8127	787146	0	0
2024-04-14 09:46:32			0	33408	0	0	0	17657	16290	156345	27300	950658	36854	106413	0	0	8127	787095	0	0
2024-04-14 09:47:32			0	33394	0	0	0	17659	16300	156285	27568	950647	36855	106414	0	0	8126	787768	0	0
2024-04-14 09:48:32			0	33383	0	0	0	17654	16300	156325	27414	950621	36855	106412	0	0	8126	788331	0	0
2024-04-14 09:49:32			0	33373	0	0	0	17664	16300	156417	27469	950674	36876	106416	0	0	8125	788843	0	0
2024-04-14 09:50:32			0	33373	0	0	0	17672	16300	156441	27374	950647	36866	106419	0	0	8125	788843	0	0
2024-04-14 09:51:32			0	33373	0	0	0	17670	16300	156441	27258	950647	36866	106418	0	0	8125	788843	0	0
2024-04-14 09:52:32			0	33373	0	0	0	17680	16310	156425	27426	950698	36856	106422	0	0	8125	788800	0	0
2024-04-14 09:53:32			0	33365	0	0	0	17685	16320	156425	27479	950653	36846	106424	0	0	8124	789167	0	0
2024-04-14 09:54:32			0	33366	0	0	0	17563	16320	156341	27478	950601	36857	106377	0	0	8126	789116	0	0
2024-04-14 09:55:32			0	33379	0	0	0	17610	16310	156429	27521	950540	36856	106395	0	0	8126	788493	0	0
2024-04-14 09:56:32			0	33381	0	0	0	17623	16320	156357	27490	950601	36846	106400	0	0	8126	788348	0	0
2024-04-14 09:57:32			0	33373	0	0	0	17615	16310	156373	27308	950532	36856	106397	0	0	8126	788800	0	0
2024-04-14 09:58:32			0	33385	0	0	0	17587	16300	156433	27850	950516	36844	106386	0	0	8127	788229	0	0
2024-04-14 09:59:32			0	33403	0	0	0	17607	16290	156269	27121	950560	36854	106394	0	0	8128	787350	0	0
2024-04-14 10:00:32			0	33402	0	0	0	17607	16280	156269	27564	950518	36854	106394	0	0	8127	787444	0	0
2024-04-14 10:01:32			0	33419	0	0	0	17636	16290	156213	27512	950481	36854	106405	0	0	8128	786532	0	0
2024-04-14 10:02:32			0	33416	0	0	0	17638	16300	156145	27588	950568	36855	106406	0	0	8128	786643	0	0
2024-04-14 10:03:32			0	33440	0	0	0	17638	16290	156105	27402	950560	36843	106406	0	0	8129	785460	0	0
2024-04-14 10:04:32			0	33451	0	0	0	17631	16290	156045	27312	950560	36875	106403	0	0	8130	784899	0	0
2024-04-14 10:05:32			0	33462	0	0	0	17628	16300	155929	27223	950542	36866	106402	0	0	8131	784295	0	0
2024-04-14 10:06:32			0	33479	0	0	0	17615	16290	155809	27639	950526	36854	106397	0	0	8132	783472	0	0
2024-04-14 10:07:32			0	33482	0	0	0	17620	16300	155869	27869	950568	36866	106399	0	0	8132	783277	0	0
2024-04-14 10:08:32			0	33487	0	0	0	17625	16280	155845	27708	950544	36865	106401	0	0	8132	783107	0	0
2024-04-14 10:09:32			0	33524	0	0	0	17636	16300	155853	27524	950568	36876	106405	0	0	8134	781140	0	0
2024-04-14 10:10:32			0	33517	0	0	0	17633	16290	155745	27315	950560	36865	106404	0	0	8134	781538	0	0
2024-04-14 10:11:32			0	33523	0	0	0	17628	16300	155733	27431	950595	36866	106402	0	0	8134	781191	0	0
2024-04-14 10:12:32			0	33533	0	0	0	17620	16290	155661	27414	950605	36843	106399	0	0	8135	780725	0	0
2024-04-14 10:13:32			0	33545	0	0	0	17618	16290	155621	27573	950552	36865	106398	0	0	8136	780116	0	0
2024-04-14 10:14:32			0	33561	0	0	0	17607	16290	155513	27438	950455	36854	106394	0	0	8137	779304	0	0
2024-04-14 10:15:32			0	33564	0	0	0	17597	16290	155617	27326	950560	36843	106390	0	0	8137	779152	0	0
2024-04-14 10:16:32			0	33572	0	0	0	17610	16280	155414	27409	950544	36843	106395	0	0	8138	778789	0	0
2024-04-14 10:17:32			0	33583	0	0	0	17594	16270	155418	27592	950493	36864	106389	0	0	8138	778273	0	0
2024-04-14 10:18:32			0	33597	0	0	0	17584	16290	155298	27599	950552	36843	106385	0	0	8139	777481	0	0
2024-04-14 10:19:32			0	33608	0	0	0	17589	16280	155258	27346	950491	36843	106387	0	0	8140	776966	0	0
2024-04-14 10:20:32			0	33630	0	0	0	17576	16280	155234	27613	950465	36854	106382	0	0	8142	775853	0	0
2024-04-14 10:21:32			0	33634	0	0	0	17587	16280	155174	27497	950544	36854	106386	0	0	8142	775651	0	0
2024-04-14 10:22:32			0	33652	0	0	0	17584	16270	155058	27507	950475	36841	106385	0	0	8143	774784	0	0
2024-04-14 10:23:32			0	33652	0	0	0	17589	16270	155038	27894	950422	36841	106387	0	0	8143	774784	0	0
2024-04-14 10:24:32			0	33668	0	0	0	17597	16280	155022	27789	950483	36853	106390	0	0	8143	773935	0	0
2024-04-14 10:25:32			0	33693	0	0	0	17602	16280	154958	27549	950536	36832	106392	0	0	8145	772675	0	0
2024-04-14 10:26:32			0	33678	0	0	0	17587	16270	154958	27689	950554	36853	106386	0	0	8144	773473	0	0
2024-04-14 10:27:32			0	33695	0	0	0	17587	16270	154802	27871	950501	36864	106386	0	0	8145	772616	0	0
2024-04-14 10:28:32			0	33729	0	0	0	17589	16270	154834	27842	950554	36853	106387	0	0	8147	770906	0	0
2024-04-14 10:29:32			0	33718	0	0	0	17589	16280	154738	28018	950518	36843	106387	0	0	8146	771417	0	0
2024-04-14 10:30:32			0	33725	0	0	0	17599	16290	154698	27793	950587	36854	106391	0	0	8147	771023	0	0
2024-04-14 10:31:32			0	33742	0	0	0	17719	16280	154650	27869	950694	36875	106437	0	0	8146	770211	0	0
2024-04-14 10:32:32			0	33744	0	0	0	17797	16310	154786	27680	950874	36877	106467	0	0	8145	769985	0	0
2024-04-14 10:33:32			0	33755	0	0	0	17838	16340	154762	27533	951002	36891	106483	0	0	8145	769308	0	0
2024-04-14 10:34:32			0	33769	0	0	0	17841	16350	154686	27685	951105	36881	106484	0	0	8146	768564	0	0
2024-04-14 10:35:32			0	33739	0	0	0	17854	16370	154850	27828	951191	36883	106489	0	0	8144	769987	0	0
2024-04-14 10:36:32			0	33726	0	0	0	17870	16390	154786	27611	951223	36885	106495	0	0	8143	770556	0	0
2024-04-14 10:37:32			0	33717	0	0	0	17875	16400	154910	28194	951258	36896	106497	0	0	8142	770967	0	0
2024-04-14 10:38:32			0	33700	0	0	0	17831	16430	154930	28084	951306	36888	106480	0	0	8142	771697	0	0
2024-04-14 10:39:32			0	33699	0	0	0	17831	16430	154954	27673	951306	36888	106480	0	0	8142	771747	0	0
2024-04-14 10:40:32			0	33677	0	0	0	17851	16440	154958	27947	951349	36900	106488	0	0	8140	772813	0	0
2024-04-14 10:41:32			0	33662	0	0	0	17820	16450	155022	27855	951373	36879	106476	0	0	8140	773527	0	0
2024-04-14 10:42:32			0	33656	0	0	0	17763	16450	154958	27606	951241	36890	106454	0	0	8141	773829	0	0
2024-04-14 10:43:32			0	33653	0	0	0	17779	16440	155086	27743	951278	36877	106460	0	0	8140	774022	0	0
2024-04-14 10:44:32			0	33623	0	0	0	17815	16460	155006	27842	951302	36890	106474	0	0	8138	775452	0	0
2024-04-14 10:45:32			0	33631	0	0	0	17812	16450	155150	27937	951294	36879	106473	0	0	8138	775090	0	0
2024-04-14 10:46:32			0	33615	0	0	0	17776	16450	155166	27710	951241	36901	106459	0	0	8138	775898	0	0
2024-04-14 10:47:32			0	33587	0	0	0	17737	16460	155138	27585	951223	36879	106444	0	0	8137	777272	0	0
2024-04-14 10:48:32			0	33605	0	0	0	17677	16440	155098	27497	951225	36877	106421	0	0	8139	776446	0	0
2024-04-14 10:49:32			0	33601	0	0	0	17688	16440	155114	27815	951164	36877	106425	0	0	8139	776648	0	0
2024-04-14 10:50:32			0	33585	0	0	0	17742	16450	155150	27786	951207	36868	106446	0	0	8137	777415	0	0
2024-04-14 10:51:32			0	33595	0	0	0	17844	16450	155102	27760	951347	36890	106485	0	0	8136	776909	0	0
2024-04-14 10:52:32			0	33581	0	0	0	17857	16470	155242	27859	951416	36891	106490	0	0	8135	777534	0	0
2024-04-14 10:53:32			0	33603	0	0	0	17849	16480	155190	27644	951405	36892	106487	0	0	8136	776379	0	0
2024-04-14 10:54:32			0	33585	0	0	0	17831	16490	155138	27878	951456	36893	106480	0	0	8136	777247	0	0
2024-04-14 10:55:32			0	33588	0	0	0	17844	16500	155266	27812	951438	36882	106485	0	0	8136	777053	0	0
2024-04-14 10:56:32			0	33605	0	0	0	17849	16500	155158	27685	951446	36883	106487	0	0	8136	776194	0	0
2024-04-14 10:57:32			0	33602	0	0	0	17846	16500	155150	27966	951438	36893	106486	0	0	8136	776345	0	0
2024-04-14 10:58:32			0	33627	0	0	0	17846	16510	155126	27968	951489	36894	106486	0	0	8138	775041	0	0
2024-04-14 10:59:32			0	33622	0	0	0	17846	16510	154998	27868	951428	36894	106486	0	0	8138	775293	0	0
2024-04-14 11:00:32			0	33633	0	0	0	17831	16500	155038	27762	951438	36872	106480	0	0	8138	774780	0	0
2024-04-14 11:01:32			0	33663	0	0	0	17833	16510	154930	27485	951436	36883	106481	0	0	8140	773225	0	0
2024-04-14 11:02:32			0	33667	0	0	0	17854	16510	154938	27902	951481	36905	106489	0	0	8140	773024	0	0
2024-04-14 11:03:32			0	33687	0	0	0	17870	16520	154810	27722	951497	36884	106495	0	0	8141	771975	0	0
2024-04-14 11:04:32			0	33672	0	0	0	17854	16510	154722	27871	951481	36894	106489	0	0	8140	772772	0	0
2024-04-14 11:05:32			0	33666	0	0	0	17833	16520	154782	27857	951576	36895	106481	0	0	8140	773032	0	0
2024-04-14 11:06:32			0	33659	0	0	0	17833	16520	154842	27812	951497	36895	106481	0	0	8140	773385	0	0
2024-04-14 11:07:32			0	33671	0	0	0	17849	16520	154850	27614	951558	36907	106487	0	0	8140	772781	0	0
2024-04-14 11:08:32			0	33678	0	0	0	17841	16530	154758	27767	951566	36885	106484	0	0	8141	772386	0	0
2024-04-14 11:09:32			0	33652	0	0	0	17825	16530	154758	27440	951460	36885	106478	0	0	8140	773696	0	0
2024-04-14 11:10:32			0	33658	0	0	0	17831	16520	154826	27595	951452	36896	106480	0	0	8140	773435	0	0
2024-04-14 11:11:32			0	33671	0	0	0	17815	16530	154786	27751	951513	36885	106474	0	0	8141	772739	0	0
2024-04-14 11:12:32			0	33671	0	0	0	17792	16500	154738	28062	951446	36883	106465	0	0	8141	772864	0	0
2024-04-14 11:13:32			0	33667	0	0	0	17794	16510	154742	27985	951428	36883	106466	0	0	8141	773024	0	0
2024-04-14 11:14:32			0	33678	0	0	0	17789	16520	154754	27815	951418	36884	106464	0	0	8142	772428	0	0
2024-04-14 11:15:32			0	33656	0	0	0	17794	16510	154798	27691	951410	36894	106466	0	0	8140	773578	0	0
2024-04-14 11:16:32			0	33637	0	0	0	17799	16510	154782	27623	951349	36883	106468	0	0	8139	774536	0	0
2024-04-14 11:17:32			0	33659	0	0	0	17799	16510	154778	27414	951375	36894	106468	0	0	8141	773427	0	0
2024-04-14 11:18:32			0	33656	0	0	0	17799	16500	154962	27590	951394	36894	106468	0	0	8140	773620	0	0
2024-04-14 11:19:32			0	33647	0	0	0	17810	16500	154970	27914	951412	36882	106472	0	0	8140	774074	0	0
2024-04-14 11:20:32			0	33618	0	0	0	17802	16500	155026	27557	951438	36893	106469	0	0	8138	775537	0	0
2024-04-14 11:21:32			0	33631	0	0	0	17812	16500	154962	27717	951446	36905	106473	0	0	8139	774881	0	0
2024-04-14 11:22:32			0	33616	0	0	0	17831	16500	155086	27973	951465	36905	106480	0	0	8137	775638	0	0
2024-04-14 11:23:32			0	33608	0	0	0	17846	16500	155050	27763	951491	36893	106486	0	0	8137	776042	0	0
2024-04-14 11:24:32			0	33597	0	0	0	17862	16510	155126	27907	951533	36894	106492	0	0	8136	776556	0	0
2024-04-14 11:25:32			0	33603	0	0	0	17901	16510	155130	27673	951507	36905	106507	0	0	8136	776253	0	0
2024-04-14 11:26:32			0	33593	0	0	0	17916	16520	155178	28062	951663	36896	106513	0	0	8135	776717	0	0
2024-04-14 11:27:32			0	33602	0	0	0	17929	16530	155150	27616	951750	36907	106518	0	0	8135	776219	0	0
2024-04-14 11:28:32			0	33604	0	0	0	17953	16550	155138	27620	951756	36897	106527	0	0	8135	776034	0	0
2024-04-14 11:29:32			0	33627	0	0	0	17955	16550	155070	27850	951791	36898	106528	0	0	8136	774873	0	0
2024-04-14 11:30:32			0	33637	0	0	0	17948	16560	154922	27698	951773	36909	106525	0	0	8137	774327	0	0
2024-04-14 11:31:32			0	33645	0	0	0	17958	16570	154874	27855	951842	36900	106529	0	0	8137	773881	0	0
2024-04-14 11:32:32			0	33651	0	0	0	17958	16580	154814	27642	951866	36912	106529	0	0	8138	773537	0	0
2024-04-14 11:33:32			0	33677	0	0	0	17937	16580	154806	27751	951831	36911	106521	0	0	8140	772228	0	0
2024-04-14 11:34:32			0	33697	0	0	0	17909	16580	154710	27660	951779	36911	106510	0	0	8141	771222	0	0
2024-04-14 11:35:32			0	33690	0	0	0	17927	16580	154690	27407	951919	36912	106517	0	0	8141	771574	0	0
2024-04-14 11:36:32			0	33717	0	0	0	17929	16600	154646	27398	951943	36924	106518	0	0	8142	770134	0	0
2024-04-14 11:37:32			0	33723	0	0	0	17929	16600	154434	27588	951864	36902	106518	0	0	8143	769832	0	0
2024-04-14 11:38:32			0	33739	0	0	0	17916	16600	154466	27300	951925	36913	106513	0	0	8144	769030	0	0
2024-04-14 11:39:32			0	33738	0	0	0	17937	16600	154382	27895	951977	36924	106521	0	0	8143	769080	0	0
2024-04-14 11:40:32			0	33733	0	0	0	17953	16610	154418	27850	951986	36914	106527	0	0	8143	769289	0	0
2024-04-14 11:41:32			0	33763	0	0	0	17974	16620	154454	27545	951923	36915	106535	0	0	8144	767743	0	0
2024-04-14 11:42:32			0	33733	0	0	0	17961	16610	154498	27576	951941	36914	106530	0	0	8143	769289	0	0
2024-04-14 11:43:32			0	33741	0	0	0	17953	16620	154534	27796	951931	36915	106527	0	0	8143	768846	0	0
2024-04-14 11:44:32			0	33711	0	0	0	17986	16620	154550	27743	952036	36915	106540	0	0	8141	770352	0	0
2024-04-14 11:45:32			0	33678	0	0	0	18010	16630	154666	27894	952071	36926	106549	0	0	8139	771968	0	0
2024-04-14 11:46:32			0	33686	0	0	0	18023	16640	154870	27718	952140	36906	106554	0	0	8139	771524	0	0
2024-04-14 11:47:32			0	33666	0	0	0	18002	16640	154794	27628	952122	36916	106546	0	0	8138	772531	0	0
2024-04-14 11:48:32			0	33664	0	0	0	17992	16650	154746	28121	952164	36906	106542	0	0	8138	772589	0	0
2024-04-14 11:49:32			0	33664	0	0	0	18007	16650	154682	28018	952130	36928	106548	0	0	8138	772589	0	0
2024-04-14 11:50:32			0	33658	0	0	0	18046	16660	154726	27535	952233	36941	106563	0	0	8137	772850	0	0
2024-04-14 11:51:32			0	33664	0	0	0	18054	16660	154754	27911	952199	36929	106566	0	0	8137	772548	0	0
2024-04-14 11:52:32			0	33679	0	0	0	18059	16670	154730	27744	952276	36930	106568	0	0	8138	771751	0	0
2024-04-14 11:53:32			0	33696	0	0	0	18085	16670	154622	27639	952250	36919	106578	0	0	8139	770896	0	0
2024-04-14 11:54:32			0	33700	0	0	0	18093	16690	154658	27246	952327	36931	106581	0	0	8139	770612	0	0
2024-04-14 11:55:32			0	33685	0	0	0	18106	16700	154650	27729	952317	36932	106586	0	0	8138	771324	0	0
2024-04-14 11:56:32			0	33695	0	0	0	18137	16700	154722	27594	952404	36944	106598	0	0	8138	770821	0	0
2024-04-14 11:57:32			0	33688	0	0	0	18155	16710	154698	27580	952473	36933	106605	0	0	8137	771131	0	0
2024-04-14 11:58:32			0	33683	0	0	0	18161	16720	154774	27694	952515	36934	106607	0	0	8137	771341	0	0
2024-04-14 11:59:32			0	33645	0	0	0	18171	16740	154754	27573	952566	36946	106611	0	0	8135	773169	0	0
2024-04-14 12:00:32			0	33652	0	0	0	18176	16750	154878	27944	952574	36958	106613	0	0	8135	772775	0	0
2024-04-14 12:01:32			0	33628	0	0	0	18176	16760	154934	27618	952643	36937	106613	0	0	8134	773942	0	0
2024-04-14 12:02:32			0	33601	0	0	0	18202	16780	155050	27861	952684	36950	106623	0	0	8132	775220	0	0
2024-04-14 12:03:32			0	33592	0	0	0	18207	16780	154974	27852	952710	36960	106625	0	0	8131	775675	0	0
2024-04-14 12:04:32			0	33582	0	0	0	18220	16800	155066	27682	952787	36941	106630	0	0	8130	776095	0	0
2024-04-14 12:05:32			0	33593	0	0	0	18236	16810	155038	28112	952777	36941	106636	0	0	8131	775498	0	0
2024-04-14 12:06:32			0	33581	0	0	0	18228	16820	155030	27937	952846	36954	106633	0	0	8130	776062	0	0
2024-04-14 12:07:32			0	33594	0	0	0	18225	16830	154930	27864	952836	36964	106632	0	0	8131	775363	0	0
2024-04-14 12:08:32			0	33614	0	0	0	18212	16830	154842	27907	952810	36954	106627	0	0	8132	774354	0	0
2024-04-14 12:09:32			0	33605	0	0	0	18199	16840	154946	27755	952931	36955	106622	0	0	8132	774766	0	0
2024-04-14 12:10:32			0	33613	0	0	0	18199	16830	154866	27627	952844	36943	106622	0	0	8133	774405	0	0
2024-04-14 12:11:32			0	33631	0	0	0	18166	16840	154874	27616	952826	36944	106609	0	0	8134	773456	0	0
2024-04-14 12:12:32			0	33628	0	0	0	18142	16840	154810	27647	952826	36955	106600	0	0	8135	773607	0	0
2024-04-14 12:13:32			0	33635	0	0	0	18067	16840	154806	27963	952773	36965	106571	0	0	8136	773254	0	0
2024-04-14 12:14:32			0	33635	0	0	0	18064	16820	154786	27944	952670	36954	106570	0	0	8136	773338	0	0
2024-04-14 12:15:32			0	33646	0	0	0	18046	16820	154578	27621	952688	36931	106563	0	0	8137	772784	0	0
2024-04-14 12:16:32			0	33655	0	0	0	18038	16810	154702	27852	952645	36941	106560	0	0	8138	772373	0	0
2024-04-14 12:17:32			0	33661	0	0	0	18033	16800	154618	27949	952558	36930	106558	0	0	8138	772113	0	0
2024-04-14 12:18:32			0	33686	0	0	0	18012	16800	154526	27873	952550	36941	106550	0	0	8140	770856	0	0
2024-04-14 12:19:32			0	33682	0	0	0	17986	16780	154482	28083	952499	36939	106540	0	0	8140	771141	0	0
2024-04-14 12:20:32			0	33697	0	0	0	17950	16780	154398	28065	952465	36928	106526	0	0	8142	770387	0	0
2024-04-14 12:21:32			0	33727	0	0	0	17927	16770	154318	27703	952430	36916	106517	0	0	8144	768923	0	0
2024-04-14 12:22:32			0	33734	0	0	0	17901	16760	154214	28076	952380	36926	106507	0	0	8144	768614	0	0
2024-04-14 12:23:32			0	33752	0	0	0	17901	16760	154178	27866	952406	36926	106507	0	0	8145	767712	0	0
2024-04-14 12:24:32			0	33775	0	0	0	17958	16760	153990	27876	952432	36915	106529	0	0	8146	766561	0	0
2024-04-14 12:25:32			0	33774	0	0	0	17971	16750	153966	27767	952451	36937	106534	0	0	8146	766653	0	0
2024-04-14 12:26:32			0	33819	0	0	0	17966	16750	153950	28024	952398	36926	106532	0	0	8148	764404	0	0
2024-04-14 12:27:32			0	33829	0	0	0	17945	16750	153878	27783	952477	36937	106524	0	0	8149	763905	0	0
2024-04-14 12:28:32			0	33814	0	0	0	17961	16760	153878	27980	952520	36926	106530	0	0	8148	764612	0	0
2024-04-14 12:29:32			0	33818	0	0	0	18005	16760	153766	27862	952538	36937	106547	0	0	8148	764413	0	0
2024-04-14 12:30:32			0	33844	0	0	0	18025	16770	153802	27647	952528	36926	106555	0	0	8149	763075	0	0
2024-04-14 12:31:32			0	33845	0	0	0	18057	16790	153762	27744	952639	36917	106567	0	0	8148	762942	0	0
2024-04-14 12:32:32			0	33848	0	0	0	18109	16790	153718	27842	952718	36950	106587	0	0	8148	762793	0	0
2024-04-14 12:33:32			0	33851	0	0	0	18174	16800	153734	27578	952743	36952	106612	0	0	8147	762602	0	0
2024-04-14 12:34:32			0	33860	0	0	0	18205	16820	153798	27972	952881	36954	106624	0	0	8147	762071	0	0
2024-04-14 12:35:32			0	33866	0	0	0	18236	16840	153798	27984	953071	36945	106636	0	0	8147	761690	0	0
2024-04-14 12:36:32			0	33858	0	0	0	18270	16860	153702	27684	953069	36957	106649	0	0	8146	762006	0	0
2024-04-14 12:37:32			0	33871	0	0	0	18303	16880	153670	28084	953181	36969	106662	0	0	8146	761276	0	0
2024-04-14 12:38:32			0	33898	0	0	0	18324	16900	153594	27861	953222	36950	106670	0	0	8147	759852	0	0
2024-04-14 12:39:32			0	33904	0	0	0	18335	16910	153354	27758	953256	36961	106674	0	0	8148	759513	0	0
2024-04-14 12:40:32			0	33917	0	0	0	18335	16920	153378	27868	953299	36961	106674	0	0	8149	758826	0	0
2024-04-14 12:41:32			0	33905	0	0	0	18348	16920	153354	27684	953333	36973	106679	0	0	8148	759422	0	0
2024-04-14 12:42:32			0	33907	0	0	0	18353	16930	153278	27795	953402	36973	106681	0	0	8148	759281	0	0
2024-04-14 12:43:32			0	33916	0	0	0	18348	16950	153266	27994	953382	36975	106679	0	0	8148	758753	0	0
2024-04-14 12:44:32			0	33897	0	0	0	18342	16960	153290	27798	953469	36975	106677	0	0	8147	759654	0	0
2024-04-14 12:45:32			0	33901	0	0	0	18355	16970	153230	27611	953520	36956	106682	0	0	8147	759415	0	0
2024-04-14 12:46:32			0	33906	0	0	0	18361	16970	153310	27880	953546	36966	106684	0	0	8148	759167	0	0
2024-04-14 12:47:32			0	33911	0	0	0	18368	16990	153202	27774	953597	36978	106687	0	0	8148	758836	0	0
2024-04-14 12:48:32			0	33922	0	0	0	18410	17010	153162	27757	953770	36992	106703	0	0	8148	758208	0	0
2024-04-14 12:49:32			0	33914	0	0	0	18457	17030	153190	27918	953900	37003	106721	0	0	8147	758523	0	0
2024-04-14 12:50:32			0	33895	0	0	0	18498	17060	153286	28058	954054	37006	106737	0	0	8145	759342	0	0
2024-04-14 12:51:32			0	33879	0	0	0	18540	17090	153466	27907	954042	37008	106753	0	0	8144	760012	0	0
2024-04-14 12:52:32			0	33848	0	0	0	18563	17110	153554	27758	954154	36999	106762	0	0	8142	761470	0	0
2024-04-14 12:53:32			0	33812	0	0	0	18610	17120	153718	28001	954284	37022	106780	0	0	8139	763221	0	0
2024-04-14 12:54:32			0	33778	0	0	0	18680	17140	153882	27904	954414	37012	106807	0	0	8136	764833	0	0
2024-04-14 12:55:32			0	33738	0	0	0	18781	17170	154006	28022	954497	37015	106846	0	0	8132	766707	0	0
2024-04-14 12:56:32			0	33721	0	0	0	18857	17200	154146	28077	954669	37040	106875	0	0	8130	767432	0	0
2024-04-14 12:57:32			0	33689	0	0	0	18922	17240	154270	27909	954814	37032	106900	0	0	8127	768868	0	0
2024-04-14 12:58:32			0	33689	0	0	0	18929	17270	154338	28008	954968	37045	106903	0	0	8127	768743	0	0
2024-04-14 12:59:32			0	33664	0	0	0	18963	17300	154294	27824	955096	37047	106916	0	0	8125	769871	0	0
2024-04-14 13:00:32			0	33663	0	0	0	19005	17320	154394	27724	955234	37060	106932	0	0	8124	769837	0	0
2024-04-14 13:01:32			0	33658	0	0	0	18999	17360	154394	27639	955318	37075	106930	0	0	8124	769921	0	0
2024-04-14 13:02:32			0	33665	0	0	0	18992	17380	154306	27595	955377	37087	106927	0	0	8125	769486	0	0
2024-04-14 13:03:32			0	33656	0	0	0	18992	17400	154286	27921	955383	37067	106927	0	0	8124	769854	0	0
2024-04-14 13:04:32			0	33666	0	0	0	18984	17420	154238	28025	955415	37080	106924	0	0	8125	769269	0	0
2024-04-14 13:05:32			0	33662	0	0	0	18976	17430	154078	28084	955484	37070	106921	0	0	8125	769427	0	0
2024-04-14 13:06:32			0	33673	0	0	0	18979	17440	154106	27996	955562	37060	106922	0	0	8126	768834	0	0
2024-04-14 13:07:32			0	33667	0	0	0	18976	17460	154102	27786	955586	37061	106921	0	0	8126	769051	0	0
2024-04-14 13:08:32			0	33652	0	0	0	18958	17480	154058	27795	955619	37074	106914	0	0	8125	769719	0	0
2024-04-14 13:09:32			0	33664	0	0	0	18974	17480	154082	28020	955619	37074	106920	0	0	8126	769118	0	0
2024-04-14 13:10:32			0	33659	0	0	0	18992	17490	154158	27987	955670	37075	106927	0	0	8125	769327	0	0
2024-04-14 13:11:32			0	33644	0	0	0	19028	17510	154154	28136	955773	37066	106941	0	0	8124	769995	0	0
2024-04-14 13:12:32			0	33628	0	0	0	19059	17520	154218	27940	955816	37087	106953	0	0	8122	770756	0	0
2024-04-14 13:13:32			0	33621	0	0	0	19083	17540	154262	27772	955857	37080	106962	0	0	8122	771024	0	0
2024-04-14 13:14:32			0	33609	0	0	0	19088	17550	154314	27953	955970	37069	106964	0	0	8121	771584	0	0
2024-04-14 13:15:32			0	33602	0	0	0	19088	17580	154334	27965	956045	37093	106964	0	0	8121	771810	0	0
2024-04-14 13:16:32			0	33605	0	0	0	19098	17590	154338	27852	956096	37095	106968	0	0	8121	771617	0	0
2024-04-14 13:17:32			0	33591	0	0	0	19101	17610	154374	27815	956147	37095	106969	0	0	8120	772237	0	0
2024-04-14 13:18:32			0	33591	0	0	0	19122	17620	154314	27810	956164	37096	106977	0	0	8119	772195	0	0
2024-04-14 13:19:32			0	33600	0	0	0	19145	17630	154282	27907	956259	37086	106986	0	0	8120	771701	0	0
2024-04-14 13:20:32			0	33638	0	0	0	19161	17650	154046	28060	956318	37099	106992	0	0	8122	769710	0	0
2024-04-14 13:21:32			0	33666	0	0	0	19181	17670	153890	28031	956395	37100	107000	0	0	8123	768223	0	0
2024-04-14 13:22:32			0	33706	0	0	0	19181	17690	153722	28003	956516	37103	107000	0	0	8126	766139	0	0
2024-04-14 13:23:32			0	33760	0	0	0	19194	17700	153494	27736	956550	37103	107005	0	0	8129	763405	0	0
2024-04-14 13:24:32			0	33784	0	0	0	19207	17730	153222	27710	956652	37095	107010	0	0	8130	762086	0	0
2024-04-14 13:25:32			0	33802	0	0	0	19207	17720	153138	27666	956591	37105	107010	0	0	8131	761232	0	0
2024-04-14 13:26:32			0	33837	0	0	0	19220	17740	153050	27843	956615	37117	107015	0	0	8133	759412	0	0
2024-04-14 13:27:32			0	33839	0	0	0	19233	17750	153026	27630	956693	37119	107020	0	0	8133	759272	0	0
2024-04-14 13:28:32			0	33853	0	0	0	19228	17770	153054	27704	956770	37121	107018	0	0	8134	758495	0	0
2024-04-14 13:29:32			0	33829	0	0	0	19246	17770	153046	27687	956752	37131	107025	0	0	8132	759685	0	0
2024-04-14 13:30:32			0	33833	0	0	0	19246	17790	152982	27524	956811	37122	107025	0	0	8132	759404	0	0
2024-04-14 13:31:32			0	33817	0	0	0	19270	17790	153122	27618	956882	37100	107034	0	0	8131	760197	0	0
2024-04-14 13:32:32			0	33811	0	0	0	19280	17820	153094	28155	956957	37135	107038	0	0	8131	760371	0	0
2024-04-14 13:33:32			0	33792	0	0	0	19293	17830	153174	27972	957000	37114	107043	0	0	8129	761273	0	0
2024-04-14 13:34:32			0	33785	0	0	0	19285	17830	153226	28020	957008	37136	107040	0	0	8129	761621	0	0
2024-04-14 13:35:32			0	33751	0	0	0	19288	17850	153246	28157	957067	37138	107041	0	0	8127	763229	0	0
2024-04-14 13:36:32			0	33767	0	0	0	19303	17850	153322	27843	957067	37117	107047	0	0	8128	762433	0	0
2024-04-14 13:37:32			0	33753	0	0	0	19340	17870	153258	28180	957232	37140	107061	0	0	8126	763046	0	0
2024-04-14 13:38:32			0	33790	0	0	0	19366	17890	153090	27998	957256	37141	107071	0	0	8128	761124	0	0
2024-04-14 13:39:32			0	33827	0	0	0	19394	17900	152938	27757	957352	37141	107082	0	0	8130	759246	0	0
2024-04-14 13:40:32			0	33851	0	0	0	19399	17920	152798	27744	957429	37143	107084	0	0	8131	757974	0	0
2024-04-14 13:41:32			0	33864	0	0	0	19415	17930	152702	27802	957472	37144	107090	0	0	8132	757290	0	0
2024-04-14 13:42:32			0	33845	0	0	0	19418	17940	152806	28060	957496	37145	107091	0	0	8131	758189	0	0
2024-04-14 13:43:32			0	33842	0	0	0	19428	17970	152858	27979	957563	37136	107095	0	0	8131	758213	0	0
2024-04-14 13:44:32			0	33845	0	0	0	19431	17980	152790	27966	957606	37160	107096	0	0	8131	758023	0	0
2024-04-14 13:45:32			0	33822	0	0	0	19436	17980	152918	27840	957693	37149	107098	0	0	8129	759163	0	0
2024-04-14 13:46:32			0	33822	0	0	0	19449	18000	152918	27705	957647	37162	107103	0	0	8129	759080	0	0
2024-04-14 13:47:32			0	33815	0	0	0	19459	18010	152914	27815	957708	37151	107107	0	0	8129	759386	0	0
2024-04-14 13:48:32			0	33829	0	0	0	19457	18010	152834	28058	957769	37162	107106	0	0	8130	758692	0	0
2024-04-14 13:49:32			0	33812	0	0	0	19464	18030	152966	27933	957767	37142	107109	0	0	8129	759451	0	0
2024-04-14 13:50:32			0	33796	0	0	0	19483	18030	152902	27876	957854	37164	107116	0	0	8127	760245	0	0
2024-04-14 13:51:32			0	33826	0	0	0	19490	18050	152890	28060	957852	37154	107119	0	0	8129	758675	0	0
2024-04-14 13:52:32			0	33841	0	0	0	19501	18050	152658	27953	957966	37154	107123	0	0	8130	757932	0	0
2024-04-14 13:53:32			0	33853	0	0	0	19503	18070	152626	27815	957972	37167	107124	0	0	8130	757256	0	0
2024-04-14 13:54:32			0	33881	0	0	0	19509	18090	152450	27985	957970	37158	107126	0	0	8132	755789	0	0
2024-04-14 13:55:32			0	33902	0	0	0	19511	18090	152406	27895	958050	37169	107127	0	0	8133	754753	0	0
2024-04-14 13:56:32			0	33900	0	0	0	19509	18090	152414	27966	958058	37147	107126	0	0	8133	754851	0	0
2024-04-14 13:57:32			0	33865	0	0	0	19529	18110	152478	28067	958056	37170	107134	0	0	8131	756497	0	0
2024-04-14 13:58:32			0	33864	0	0	0	19524	18120	152518	27646	958133	37171	107132	0	0	8131	756505	0	0
2024-04-14 13:59:32			0	33870	0	0	0	19522	18120	152518	27793	958178	37170	107131	0	0	8131	756209	0	0
2024-04-14 14:00:32			0	33843	0	0	0	19535	18130	152522	27831	958221	37172	107136	0	0	8130	757502	0	0
2024-04-14 14:01:32			0	33856	0	0	0	19548	18140	152530	27802	958264	37163	107141	0	0	8130	756818	0	0
2024-04-14 14:02:32			0	33838	0	0	0	19558	18150	152546	27737	958280	37185	107145	0	0	8129	757667	0	0
2024-04-14 14:03:32			0	33844	0	0	0	19566	18160	152566	27883	958331	37164	107148	0	0	8129	757329	0	0
2024-04-14 14:04:32			0	33851	0	0	0	19109	18170	152362	27692	958215	37155	106972	0	0	8138	756941	0	0
2024-04-14 14:05:32			0	33877	0	0	0	18680	18150	152190	28060	957460	37120	106807	0	0	8146	755739	0	0
2024-04-14 14:06:32			0	33905	0	0	0	18768	18040	151954	27640	956840	37078	106841	0	0	8146	754811	0	0
2024-04-14 14:07:32			0	33888	0	0	0	18927	17980	152062	27783	956734	37083	106902	0	0	8142	755897	0	0
2024-04-14 14:08:32			0	33858	0	0	0	19238	17940	152358	27478	956994	37113	107022	0	0	8135	757545	0	0
2024-04-14 14:09:32			0	33875	0	0	0	19238	17940	152614	27940	957126	37145	107022	0	0	8136	756704	0	0
2024-04-14 14:10:32			0	33862	0	0	0	19301	17970	152658	27900	957405	37136	107046	0	0	8134	757223	0	0
2024-04-14 14:11:32			0	33866	0	0	0	19340	17970	152646	27909	957466	37137	107061	0	0	8134	757026	0	0
2024-04-14 14:12:32			0	33861	0	0	0	19586	17990	152794	27902	957684	37138	107156	0	0	8129	757190	0	0
2024-04-14 14:13:32			0	33821	0	0	0	19644	18020	152954	27878	957997	37164	107178	0	0	8126	759047	0	0
2024-04-14 14:14:32			0	33805	0	0	0	19683	18050	153034	27942	958178	37166	107193	0	0	8125	759716	0	0
2024-04-14 14:15:32			0	33799	0	0	0	19683	18090	153010	27918	958296	37169	107193	0	0	8124	759847	0	0
2024-04-14 14:16:32			0	33788	0	0	0	19696	18120	153098	27918	958451	37182	107198	0	0	8124	760269	0	0
2024-04-14 14:17:32			0	33754	0	0	0	19698	18150	153086	27755	958473	37186	107199	0	0	8122	761832	0	0
2024-04-14 14:18:32			0	33753	0	0	0	19737	18180	153074	27809	958620	37187	107214	0	0	8121	761757	0	0
2024-04-14 14:19:32			0	33748	0	0	0	19753	18210	153242	27807	958669	37190	107220	0	0	8121	761881	0	0
2024-04-14 14:20:32			0	33723	0	0	0	19771	18230	153090	27666	958825	37202	107227	0	0	8119	763041	0	0
2024-04-14 14:21:32			0	33734	0	0	0	19758	18240	153174	27869	958850	37182	107222	0	0	8120	762452	0	0
2024-04-14 14:22:32			0	33725	0	0	0	19750	18260	153118	27866	958874	37194	107219	0	0	8120	762816	0	0
2024-04-14 14:23:32			0	33702	0	0	0	19698	18270	153134	27913	958846	37184	107199	0	0	8119	763919	0	0
2024-04-14 14:24:32			0	33740	0	0	0	19101	18270	152910	27861	958494	37162	106969	0	0	8132	762029	0	0
2024-04-14 14:25:32			0	33784	0	0	0	19438	18220	152582	27332	958209	37148	107099	0	0	8128	760052	0	0
2024-04-14 14:26:32			0	33774	0	0	0	19651	18220	152838	27840	958439	37179	107181	0	0	8124	760548	0	0
2024-04-14 14:27:32			0	33767	0	0	0	19368	18230	152850	27689	958455	37180	107072	0	0	8129	760854	0	0
2024-04-14 14:28:32			0	33770	0	0	0	19387	18200	152730	27628	958282	37145	107079	0	0	8128	760830	0	0
2024-04-14 14:29:32			0	33783	0	0	0	19561	18210	152678	27798	958404	37157	107146	0	0	8126	760143	0	0
2024-04-14 14:30:32			0	33754	0	0	0	19561	18200	152846	27632	958422	37157	107146	0	0	8124	761624	0	0
2024-04-14 14:31:32			0	33782	0	0	0	19519	18210	152734	27907	958404	37157	107130	0	0	8127	760193	0	0
2024-04-14 14:32:32			0	33778	0	0	0	19506	18220	152886	27758	958447	37169	107125	0	0	8127	760350	0	0
2024-04-14 14:33:32			0	33774	0	0	0	19477	18210	152834	27512	958378	37167	107114	0	0	8127	760590	0	0
2024-04-14 14:34:32			0	33758	0	0	0	19503	18210	152890	27616	958404	37167	107124	0	0	8126	761384	0	0
2024-04-14 14:35:32			0	33770	0	0	0	19509	18220	152858	27890	958473	37180	107126	0	0	8126	760747	0	0
2024-04-14 14:36:32			0	33753	0	0	0	19503	18220	152894	27885	958473	37148	107124	0	0	8125	761591	0	0
2024-04-14 14:37:32			0	33762	0	0	0	19514	18230	152882	27711	958516	37148	107128	0	0	8126	761102	0	0
2024-04-14 14:38:32			0	33773	0	0	0	19548	18220	152898	27956	958465	37158	107141	0	0	8126	760598	0	0
2024-04-14 14:39:32			0	33763	0	0	0	19561	18220	152902	27670	958447	37159	107146	0	0	8125	761094	0	0
2024-04-14 14:40:32			0	33773	0	0	0	19529	18220	152866	27601	958439	37158	107134	0	0	8126	760598	0	0
2024-04-14 14:41:32			0	33784	0	0	0	19589	18220	152814	27899	958553	37159	107157	0	0	8126	760052	0	0
2024-04-14 14:42:32			0	33822	0	0	0	19574	18230	152646	27692	958587	37180	107151	0	0	8128	758128	0	0
2024-04-14 14:43:32			0	33840	0	0	0	19625	18240	152506	27540	958638	37182	107171	0	0	8128	757196	0	0
2024-04-14 14:44:32			0	33857	0	0	0	19636	18250	152558	27696	958673	37171	107175	0	0	8129	756314	0	0
2024-04-14 14:45:32			0	33832	0	0	0	19602	18250	152530	28043	958594	37171	107162	0	0	8128	757550	0	0
2024-04-14 14:46:32			0	33842	0	0	0	19607	18260	152482	27414	958663	37183	107164	0	0	8129	757014	0	0
2024-04-14 14:47:32			0	33844	0	0	0	19566	18260	152526	27698	958636	37161	107148	0	0	8130	756915	0	0
2024-04-14 14:48:32			0	33868	0	0	0	19514	18260	152270	27609	958557	37171	107128	0	0	8132	755730	0	0
2024-04-14 14:49:32			0	33871	0	0	0	19511	18250	152274	27847	958549	37171	107127	0	0	8132	755623	0	0
2024-04-14 14:50:32			0	33880	0	0	0	19514	18250	152306	27601	958514	37182	107128	0	0	8133	755179	0	0
2024-04-14 14:51:32			0	33848	0	0	0	19568	18250	152274	27961	958541	37171	107149	0	0	8130	756759	0	0
2024-04-14 14:52:32			0	33854	0	0	0	19581	18250	152406	27899	958655	37182	107154	0	0	8130	756462	0	0
2024-04-14 14:53:32			0	33830	0	0	0	19584	18250	152554	27613	958647	37171	107155	0	0	8129	757649	0	0
2024-04-14 14:54:32			0	33836	0	0	0	19597	18260	152502	27885	958697	37172	107160	0	0	8129	757311	0	0
2024-04-14 14:55:32			0	33839	0	0	0	19594	18260	152470	27920	958671	37183	107159	0	0	8129	757163	0	0
2024-04-14 14:56:32			0	33849	0	0	0	19605	18280	152530	28034	958809	37174	107163	0	0	8130	756586	0	0
2024-04-14 14:57:32			0	33847	0	0	0	19688	18280	152482	27939	958881	37173	107195	0	0	8128	756685	0	0
2024-04-14 14:58:32			0	33819	0	0	0	19784	18310	152638	27899	959070	37199	107232	0	0	8125	757945	0	0
2024-04-14 14:59:32			0	33833	0	0	0	19799	18330	152618	27632	959226	37200	107238	0	0	8126	757170	0	0
2024-04-14 15:00:32			0	33805	0	0	0	19784	18350	152634	28155	959233	37212	107232	0	0	8124	758472	0	0
2024-04-14 15:01:32			0	33815	0	0	0	19745	18360	152562	27897	959249	37192	107217	0	0	8126	757936	0	0
2024-04-14 15:02:32			0	33832	0	0	0	19753	18380	152522	27640	959211	37193	107220	0	0	8127	757012	0	0
2024-04-14 15:03:32			0	33805	0	0	0	19761	18390	152506	27996	959298	37205	107223	0	0	8125	758307	0	0
2024-04-14 15:04:32			0	33811	0	0	0	19771	18390	152582	27798	959306	37205	107227	0	0	8125	758010	0	0
2024-04-14 15:05:32			0	33826	0	0	0	19794	18390	152538	27862	959359	37205	107236	0	0	8126	757268	0	0
2024-04-14 15:06:32			0	33808	0	0	0	19818	18410	152474	27511	959445	37196	107245	0	0	8124	758075	0	0
2024-04-14 15:07:32			0	33810	0	0	0	19831	18430	152514	27918	959443	37208	107250	0	0	8124	757893	0	0
2024-04-14 15:08:32			0	33802	0	0	0	19828	18430	152506	27996	959557	37198	107249	0	0	8124	758289	0	0
2024-04-14 15:09:32			0	33827	0	0	0	19802	18450	152446	27692	959555	37210	107239	0	0	8126	756970	0	0
2024-04-14 15:10:32			0	33833	0	0	0	19802	18450	152386	27916	959502	37210	107239	0	0	8126	756673	0	0
2024-04-14 15:11:32			0	33852	0	0	0	19799	18440	152422	27659	959494	37209	107238	0	0	8127	755776	0	0
2024-04-14 15:12:32			0	33851	0	0	0	19792	18470	152314	27784	959561	37212	107235	0	0	8127	755702	0	0
2024-04-14 15:13:32			0	33855	0	0	0	19789	18460	152342	27857	959579	37201	107234	0	0	8128	755546	0	0
2024-04-14 15:14:32			0	33850	0	0	0	19799	18470	152482	27873	959534	37201	107238	0	0	8127	755751	0	0
2024-04-14 15:15:32			0	33879	0	0	0	19779	18470	152286	28013	959481	37201	107230	0	0	8129	754321	0	0
2024-04-14 15:16:32			0	33864	0	0	0	19779	18460	152158	27725	959473	37189	107230	0	0	8128	755102	0	0
2024-04-14 15:17:32			0	33867	0	0	0	19781	18460	152158	28055	959526	37189	107231	0	0	8128	754954	0	0
2024-04-14 15:18:32			0	33874	0	0	0	19784	18460	152206	28128	959518	37210	107232	0	0	8129	754608	0	0
2024-04-14 15:19:32			0	33887	0	0	0	19802	18470	152246	27732	959561	37201	107239	0	0	8129	753926	0	0
2024-04-14 15:20:32			0	33914	0	0	0	19812	18470	152018	27880	959587	37212	107243	0	0	8131	752597	0	0
2024-04-14 15:21:32			0	33936	0	0	0	19807	18470	151942	27838	959534	37212	107241	0	0	8132	751515	0	0
2024-04-14 15:22:32			0	33998	0	0	0	19789	18460	151734	27859	959526	37201	107234	0	0	8136	748514	0	0
2024-04-14 15:23:32			0	34007	0	0	0	19784	18480	151630	28058	959551	37201	107232	0	0	8137	747992	0	0
2024-04-14 15:24:32			0	34020	0	0	0	19786	18480	151534	28100	959551	37201	107233	0	0	8137	747356	0	0
2024-04-14 15:25:32			0	34051	0	0	0	19794	18470	151462	27829	959508	37201	107236	0	0	8139	745881	0	0
2024-04-14 15:26:32			0	34055	0	0	0	19810	18470	151462	27854	959569	37190	107242	0	0	8139	745686	0	0
2024-04-14 15:27:32			0	34035	0	0	0	19823	18480	151466	28036	959665	37224	107247	0	0	8138	746622	0	0
2024-04-14 15:28:32			0	34061	0	0	0	19828	18480	151498	27772	959638	37224	107249	0	0	8139	745352	0	0
2024-04-14 15:29:32			0	34036	0	0	0	19849	18490	151502	27979	959673	37224	107257	0	0	8137	746532	0	0
2024-04-14 15:30:32			0	34032	0	0	0	19844	18490	151562	27836	959655	37213	107255	0	0	8137	746728	0	0
2024-04-14 15:31:32			0	34015	0	0	0	19844	18510	151586	27575	959671	37225	107255	0	0	8136	747478	0	0
2024-04-14 15:32:32			0	33986	0	0	0	19851	18510	151770	27556	959777	37214	107258	0	0	8134	748898	0	0
2024-04-14 15:33:32			0	33975	0	0	0	19870	18520	151778	27623	959740	37205	107265	0	0	8133	749396	0	0
2024-04-14 15:34:32			0	33978	0	0	0	19885	18520	151842	27753	959793	37216	107271	0	0	8133	749249	0	0
2024-04-14 15:35:32			0	33951	0	0	0	19885	18530	152054	27630	959757	37216	107271	0	0	8132	750532	0	0
2024-04-14 15:36:32			0	33943	0	0	0	19906	18540	152094	27758	959887	37207	107279	0	0	8131	750884	0	0
2024-04-14 15:37:32			0	33921	0	0	0	19940	18540	152034	27776	959913	37228	107292	0	0	8129	751965	0	0
2024-04-14 15:38:32			0	33897	0	0	0	19992	18550	152130	27923	960027	37217	107312	0	0	8127	753104	0	0
2024-04-14 15:39:32			0	33893	0	0	0	20202	18580	152114	27864	960349	37244	107393	0	0	8123	753178	0	0
2024-04-14 15:40:32			0	33857	0	0	0	20345	18610	152578	27666	960584	37267	107448	0	0	8119	754828	0	0
2024-04-14 15:41:32			0	33821	0	0	0	20444	18670	152674	27483	960973	37294	107486	0	0	8116	756356	0	0
2024-04-14 15:42:32			0	33822	0	0	0	20506	18730	152546	27620	961248	37299	107510	0	0	8115	756058	0	0
2024-04-14 15:43:32			0	33854	0	0	0	20581	18770	152422	27871	961480	37336	107539	0	0	8116	754314	0	0
2024-04-14 15:44:32			0	33860	0	0	0	20566	18830	152290	27800	961695	37318	107533	0	0	8117	753771	0	0
2024-04-14 15:45:32			0	33870	0	0	0	20576	18870	152246	27566	961848	37333	107537	0	0	8117	753114	0	0
2024-04-14 15:46:32			0	33887	0	0	0	20568	18910	152078	27521	961878	37326	107534	0	0	8118	752113	0	0
2024-04-14 15:47:32			0	33922	0	0	0	20561	18950	151958	27495	961978	37329	107531	0	0	8121	750230	0	0
2024-04-14 15:48:32			0	33920	0	0	0	20558	18980	151802	27788	962073	37320	107530	0	0	8121	750204	0	0
2024-04-14 15:49:32			0	33920	0	0	0	20555	18990	151754	27757	962150	37333	107529	0	0	8121	750163	0	0
2024-04-14 15:50:32			0	33946	0	0	0	20540	19020	151734	27859	962164	37323	107523	0	0	8123	748766	0	0
2024-04-14 15:51:32			0	33937	0	0	0	20522	19030	151534	27696	962101	37335	107516	0	0	8123	749165	0	0
2024-04-14 15:52:32			0	33946	0	0	0	20519	19050	151514	27918	962169	37304	107515	0	0	8123	748643	0	0
2024-04-14 15:53:32			0	33958	0	0	0	20511	19070	151582	27557	962220	37328	107512	0	0	8124	747973	0	0
2024-04-14 15:54:32			0	33960	0	0	0	20511	19070	151386	27769	962167	37328	107512	0	0	8124	747875	0	0
2024-04-14 15:55:32			0	33961	0	0	0	20519	19100	151446	27713	962260	37320	107515	0	0	8124	747703	0	0
2024-04-14 15:56:32			0	33976	0	0	0	20535	19100	151414	27802	962313	37308	107521	0	0	8125	746970	0	0
2024-04-14 15:57:32			0	33983	0	0	0	20555	19110	151442	27751	962357	37320	107529	0	0	8125	746587	0	0
2024-04-14 15:58:32			0	33987	0	0	0	20581	19120	151342	27372	962426	37321	107539	0	0	8125	746351	0	0
2024-04-14 15:59:32			0	34012	0	0	0	20592	19130	151250	27954	962442	37332	107543	0	0	8126	745090	0	0
2024-04-14 16:00:32			0	34051	0	0	0	20615	19150	151250	27854	962536	37324	107552	0	0	8128	743108	0	0
2024-04-14 16:01:32			0	34069	0	0	0	20623	19160	151038	27923	962597	37335	107555	0	0	8129	742191	0	0
2024-04-14 16:02:32			0	34060	0	0	0	20584	19180	150906	27594	962550	37336	107540	0	0	8129	742547	0	0
2024-04-14 16:03:32			0	34088	0	0	0	20597	19190	150826	27895	962567	37337	107545	0	0	8131	741146	0	0
2024-04-14 16:04:32			0	34104	0	0	0	20612	19200	150730	27984	962644	37329	107551	0	0	8132	740329	0	0
2024-04-14 16:05:32			0	34129	0	0	0	20597	19210	150682	27637	962705	37329	107545	0	0	8133	739076	0	0
2024-04-14 16:06:32			0	34103	0	0	0	20599	19210	150658	28001	962767	37329	107546	0	0	8132	740337	0	0
2024-04-14 16:07:32			0	34073	0	0	0	20610	19220	150818	27599	962695	37318	107550	0	0	8130	741753	0	0
2024-04-14 16:08:32			0	34044	0	0	0	20599	19220	150898	27769	962730	37340	107546	0	0	8128	743163	0	0
2024-04-14 16:09:32			0	34048	0	0	0	20586	19220	150982	27493	962730	37340	107541	0	0	8129	742968	0	0
2024-04-14 16:10:32			0	34009	0	0	0	20579	19230	151098	27909	962773	37320	107538	0	0	8127	744827	0	0
2024-04-14 16:11:32			0	34004	0	0	0	20589	19240	151086	27746	962755	37320	107542	0	0	8126	745030	0	0
2024-04-14 16:12:32			0	33978	0	0	0	20597	19240	151138	27859	962781	37341	107545	0	0	8125	746298	0	0
2024-04-14 16:13:32			0	33969	0	0	0	20633	19240	151174	27637	962834	37341	107559	0	0	8124	746738	0	0
2024-04-14 16:14:32			0	33969	0	0	0	20649	19240	151170	27403	962869	37321	107565	0	0	8123	746738	0	0
2024-04-14 16:15:32			0	33975	0	0	0	20644	19260	151238	27795	962893	37333	107563	0	0	8124	746363	0	0
2024-04-14 16:16:32			0	33961	0	0	0	20625	19260	151246	27490	962902	37333	107556	0	0	8123	747047	0	0
2024-04-14 16:17:32			0	33966	0	0	0	20610	19260	151178	27066	962955	37333	107550	0	0	8124	746803	0	0
2024-04-14 16:18:32			0	33969	0	0	0	20602	19280	151218	27685	962926	37344	107547	0	0	8124	746574	0	0
2024-04-14 16:19:32			0	33979	0	0	0	20628	19270	151238	27758	962944	37333	107557	0	0	8124	746127	0	0
2024-04-14 16:20:32			0	33982	0	0	0	20685	19280	151138	27419	963040	37345	107579	0	0	8124	745939	0	0
2024-04-14 16:21:32			0	34002	0	0	0	20693	19290	151106	28107	963057	37326	107582	0	0	8125	744923	0	0
2024-04-14 16:22:32			0	33983	0	0	0	20690	19300	151138	27737	963118	37347	107581	0	0	8124	745809	0	0
2024-04-14 16:23:32			0	34022	0	0	0	20685	19310	150950	27954	963169	37349	107579	0	0	8126	743867	0	0
2024-04-14 16:24:32			0	34038	0	0	0	20688	19320	150970	27982	963132	37360	107580	0	0	8127	743047	0	0
2024-04-14 16:25:32			0	34018	0	0	0	20680	19320	150894	27746	963132	37337	107577	0	0	8126	744020	0	0
2024-04-14 16:26:32			0	34021	0	0	0	20667	19320	150898	27725	963132	37327	107572	0	0	8126	743874	0	0
2024-04-14 16:27:32			0	34035	0	0	0	20657	19320	150874	27956	963079	37349	107568	0	0	8127	743193	0	0
2024-04-14 16:28:32			0	34055	0	0	0	20659	19330	150830	27810	963122	37350	107569	0	0	8129	742179	0	0
2024-04-14 16:29:32			0	34066	0	0	0	20646	19320	150674	27222	963132	37360	107564	0	0	8129	741685	0	0
2024-04-14 16:30:32			0	34120	0	0	0	20646	19330	150386	27242	963061	37349	107564	0	0	8132	739025	0	0
2024-04-14 16:31:32			0	34152	0	0	0	20649	19320	150262	27289	963071	37327	107565	0	0	8134	737516	0	0
2024-04-14 16:32:32			0	34185	0	0	0	20657	19320	150146	27242	963053	37337	107568	0	0	8136	735921	0	0
2024-04-14 16:33:32			0	34214	0	0	0	20654	19320	150066	27329	963026	37327	107567	0	0	8138	734522	0	0
2024-04-14 16:34:32			0	34257	0	0	0	20675	19310	149934	27566	963010	37349	107575	0	0	8140	732491	0	0
2024-04-14 16:35:32			0	34249	0	0	0	20680	19320	149830	27038	963053	37360	107577	0	0	8139	732836	0	0
2024-04-14 16:36:32			0	34266	0	0	0	20667	19320	149818	27331	963045	37349	107572	0	0	8140	732018	0	0
2024-04-14 16:37:32			0	34266	0	0	0	20685	19330	149802	27576	963175	37361	107579	0	0	8140	731978	0	0
2024-04-14 16:38:32			0	34256	0	0	0	20683	19320	149862	27109	963079	37360	107578	0	0	8140	732499	0	0
2024-04-14 16:39:32			0	34253	0	0	0	20683	19320	149802	27537	963079	37349	107578	0	0	8139	732644	0	0
2024-04-14 16:40:32			0	34264	0	0	0	20688	19320	149838	27357	963132	37349	107580	0	0	8140	732114	0	0
2024-04-14 16:41:32			0	34284	0	0	0	20680	19320	149702	27280	963106	37327	107577	0	0	8141	731153	0	0
2024-04-14 16:42:32			0	34292	0	0	0	20680	19330	149766	27185	963087	37349	107577	0	0	8142	730729	0	0
2024-04-14 16:43:32			0	34295	0	0	0	20688	19320	149542	27396	963124	37349	107580	0	0	8142	730625	0	0
2024-04-14 16:44:32			0	34317	0	0	0	20683	19320	149550	27538	963124	37371	107578	0	0	8143	729569	0	0
2024-04-14 16:45:32			0	34322	0	0	0	20685	19330	149498	27242	963087	37338	107579	0	0	8143	729289	0	0
2024-04-14 16:46:32			0	34312	0	0	0	20657	19330	149614	27483	963087	37328	107568	0	0	8143	729769	0	0
2024-04-14 16:47:32			0	34291	0	0	0	20670	19330	149674	27885	963122	37329	107573	0	0	8142	730777	0	0
2024-04-14 16:48:32			0	34258	0	0	0	20664	19330	149826	27237	963096	37350	107571	0	0	8140	732363	0	0
2024-04-14 16:49:32			0	34241	0	0	0	20659	19330	149910	27232	963114	37361	107569	0	0	8139	733181	0	0
2024-04-14 16:50:32			0	34213	0	0	0	20651	19320	150030	27237	963079	37349	107566	0	0	8138	734570	0	0
2024-04-14 16:51:32			0	34234	0	0	0	20651	19320	149970	27386	963018	37327	107566	0	0	8139	733558	0	0
2024-04-14 16:52:32			0	34262	0	0	0	20649	19320	149830	27327	963045	37337	107565	0	0	8140	732210	0	0
2024-04-14 16:53:32			0	34285	0	0	0	20654	19320	149726	27123	963018	37337	107567	0	0	8142	731105	0	0
2024-04-14 16:54:32			0	34263	0	0	0	20641	19320	149698	27230	963045	37349	107562	0	0	8141	732162	0	0
2024-04-14 16:55:32			0	34256	0	0	0	20646	19300	149750	27246	963020	37326	107564	0	0	8140	732580	0	0
2024-04-14 16:56:32			0	34255	0	0	0	20649	19310	149794	27409	963055	37348	107565	0	0	8140	732587	0	0
2024-04-14 16:57:32			0	34233	0	0	0	20649	19310	149782	27805	963036	37349	107565	0	0	8139	733647	0	0
2024-04-14 16:58:32			0	34209	0	0	0	20638	19310	150042	27417	963055	37359	107561	0	0	8138	734804	0	0
2024-04-14 16:59:32			0	34184	0	0	0	20636	19290	150026	27289	962924	37336	107560	0	0	8136	736091	0	0
2024-04-14 17:00:32			0	34175	0	0	0	20628	19300	150162	27812	963046	37347	107557	0	0	8136	736485	0	0
2024-04-14 17:01:32			0	34171	0	0	0	20625	19300	150242	27765	963038	37358	107556	0	0	8136	736679	0	0
2024-04-14 17:02:32			0	34132	0	0	0	20633	19310	150338	27850	963002	37348	107559	0	0	8133	738525	0	0
2024-04-14 17:03:32			0	34134	0	0	0	20636	19300	150366	27647	963046	37347	107560	0	0	8133	738469	0	0
2024-04-14 17:04:32			0	34119	0	0	0	20636	19310	150386	28067	963055	37337	107560	0	0	8132	739154	0	0
2024-04-14 17:05:32			0	34107	0	0	0	20633	19310	150454	27939	963036	37349	107559	0	0	8132	739736	0	0
2024-04-14 17:06:32			0	34098	0	0	0	20623	19320	150474	27646	963045	37349	107555	0	0	8132	740132	0	0
2024-04-14 17:07:32			0	34075	0	0	0	20620	19310	150538	28157	963002	37348	107554	0	0	8130	741289	0	0
2024-04-14 17:08:32			0	34088	0	0	0	20612	19300	150578	28029	963038	37347	107551	0	0	8131	740698	0	0
2024-04-14 17:09:32			0	34087	0	0	0	20610	19310	150526	27894	963036	37360	107550	0	0	8131	740706	0	0
2024-04-14 17:10:32			0	34067	0	0	0	20605	19310	150598	27883	963055	37337	107548	0	0	8130	741678	0	0
2024-04-14 17:11:32			0	34086	0	0	0	20605	19310	150590	28195	963028	37348	107548	0	0	8131	740755	0	0
2024-04-14 17:12:32			0	34066	0	0	0	20592	19300	150594	28117	962993	37347	107543	0	0	8130	741767	0	0
2024-04-14 17:13:32			0	34082	0	0	0	20584	19300	150578	27972	962985	37347	107540	0	0	8131	740990	0	0
2024-04-14 17:14:32			0	34082	0	0	0	20589	19290	150526	27956	963030	37326	107542	0	0	8131	741030	0	0
2024-04-14 17:15:32			0	34088	0	0	0	20597	19300	150510	28110	962985	37336	107545	0	0	8131	740698	0	0
2024-04-14 17:16:32			0	34074	0	0	0	20592	19300	150538	28029	962941	37347	107543	0	0	8131	741378	0	0
2024-04-14 17:17:32			0	34113	0	0	0	20610	19300	150510	27928	962959	37336	107550	0	0	8133	739486	0	0
2024-04-14 17:18:32			0	34094	0	0	0	20607	19290	150486	27685	963030	37326	107549	0	0	8131	740448	0	0
2024-04-14 17:19:32			0	34125	0	0	0	20610	19290	150478	27788	963004	37347	107550	0	0	8133	738945	0	0
2024-04-14 17:20:32			0	34122	0	0	0	20612	19290	150362	27627	962924	37336	107551	0	0	8133	739090	0	0
2024-04-14 17:21:32			0	34120	0	0	0	20615	19290	150406	27746	963030	37347	107552	0	0	8133	739187	0	0
2024-04-14 17:22:32			0	34146	0	0	0	20610	19290	150222	27930	962977	37326	107550	0	0	8134	737928	0	0
2024-04-14 17:23:32			0	34174	0	0	0	20618	19300	150238	27329	963038	37347	107553	0	0	8136	736534	0	0
2024-04-14 17:24:32			0	34164	0	0	0	20615	19300	150158	27855	963012	37358	107552	0	0	8135	737017	0	0
2024-04-14 17:25:32			0	34197	0	0	0	20615	19300	150106	27616	963038	37336	107552	0	0	8137	735423	0	0
2024-04-14 17:26:32			0	34182	0	0	0	20605	19300	150078	27874	962993	37336	107548	0	0	8137	736147	0	0
2024-04-14 17:27:32			0	34190	0	0	0	20602	19290	150026	27979	962924	37326	107547	0	0	8137	735801	0	0
2024-04-14 17:28:32			0	34218	0	0	0	20584	19300	149942	27739	962906	37326	107540	0	0	8139	734410	0	0
2024-04-14 17:29:32			0	34211	0	0	0	20555	19300	149930	27523	962879	37358	107529	0	0	8139	734748	0	0
2024-04-14 17:30:32			0	34233	0	0	0	20454	19280	149798	27772	962847	37323	107490	0	0	8142	733768	0	0
2024-04-14 17:31:32			0	34239	0	0	0	20480	19280	149874	27559	962820	37323	107500	0	0	8142	733479	0	0
2024-04-14 17:32:32			0	34249	0	0	0	20477	19270	149842	27488	962785	37312	107499	0	0	8142	733037	0	0
2024-04-14 17:33:32			0	34257	0	0	0	20457	19250	149734	27502	962692	37310	107491	0	0	8143	732733	0	0
2024-04-14 17:34:32			0	34246	0	0	0	20384	19250	149762	27876	962586	37321	107463	0	0	8144	733262	0	0
2024-04-14 17:35:32			0	34272	0	0	0	20288	19230	149670	27961	962455	37320	107426	0	0	8147	732092	0	0
2024-04-14 17:36:32			0	34283	0	0	0	20202	19210	149622	27616	962282	37317	107393	0	0	8149	731643	0	0
2024-04-14 17:37:32			0	34274	0	0	0	20236	19190	149534	27753	962310	37293	107406	0	0	8148	732156	0	0
2024-04-14 17:38:32			0	34266	0	0	0	20275	19170	149602	28011	962269	37303	107421	0	0	8146	732621	0	0
2024-04-14 17:39:32			0	34270	0	0	0	20324	19150	149758	27322	962245	37312	107440	0	0	8146	732509	0	0
2024-04-14 17:40:32			0	34266	0	0	0	20327	19140	149814	27928	962167	37312	107441	0	0	8145	732742	0	0
2024-04-14 17:41:32			0	34271	0	0	0	20324	19140	149682	27923	962167	37312	107440	0	0	8146	732501	0	0
2024-04-14 17:42:32			0	34305	0	0	0	20348	19130	149618	27789	962212	37300	107449	0	0	8147	730907	0	0
2024-04-14 17:43:32			0	34310	0	0	0	20366	19120	149614	27779	962169	37310	107456	0	0	8147	730707	0	0
2024-04-14 17:44:32			0	34307	0	0	0	20389	19130	149546	27918	962239	37311	107465	0	0	8147	730811	0	0
2024-04-14 17:45:32			0	34336	0	0	0	20418	19120	149498	27847	962249	37299	107476	0	0	8148	729459	0	0
2024-04-14 17:46:32			0	34352	0	0	0	20428	19130	149507	28143	962265	37311	107480	0	0	8148	728651	0	0
2024-04-14 17:47:32			0	34355	0	0	0	20454	19130	149647	27854	962397	37300	107490	0	0	8148	728508	0	0
2024-04-14 17:48:32			0	34352	0	0	0	20488	19140	149523	27959	962300	37312	107503	0	0	8147	728611	0	0
2024-04-14 17:49:32			0	34346	0	0	0	20493	19130	149574	27592	962344	37311	107505	0	0	8147	728939	0	0
2024-04-14 17:50:32			0	34338	0	0	0	20496	19130	149642	27854	962371	37311	107506	0	0	8146	729323	0	0
2024-04-14 17:51:32			0	34315	0	0	0	20496	19150	149618	27786	962430	37334	107506	0	0	8145	730346	0	0
2024-04-14 17:52:32			0	34290	0	0	0	20498	19150	149714	27996	962475	37333	107507	0	0	8144	731547	0	0
2024-04-14 17:53:32			0	34296	0	0	0	20493	19150	149842	27769	962430	37324	107505	0	0	8144	731259	0	0
2024-04-14 17:54:32			0	34236	0	0	0	20493	19150	150002	27857	962430	37312	107505	0	0	8141	734147	0	0
2024-04-14 17:55:32			0	34208	0	0	0	20483	19150	150214	27947	962404	37334	107501	0	0	8139	735498	0	0
2024-04-14 17:56:32			0	34174	0	0	0	20472	19150	150310	27894	962475	37312	107497	0	0	8138	737141	0	0
2024-04-14 17:57:32			0	34166	0	0	0	20449	19140	150330	27807	962353	37333	107488	0	0	8138	737568	0	0
2024-04-14 17:58:32			0	34138	0	0	0	20410	19140	150438	27471	962300	37312	107473	0	0	8137	738924	0	0
2024-04-14 17:59:32			0	34144	0	0	0	20394	19130	150514	27300	962257	37310	107467	0	0	8137	738673	0	0
2024-04-14 18:00:32			0	34108	0	0	0	20389	19120	150610	27307	962161	37299	107465	0	0	8135	740460	0	0
2024-04-14 18:01:32			0	34124	0	0	0	20348	19100	150598	27170	962031	37308	107449	0	0	8137	739765	0	0
2024-04-14 18:02:32			0	34116	0	0	0	20264	19100	150550	27514	961943	37308	107417	0	0	8138	740153	0	0
2024-04-14 18:03:32			0	34132	0	0	0	20212	19070	150358	27819	961910	37295	107397	0	0	8139	739498	0	0
2024-04-14 18:04:32			0	34147	0	0	0	20103	19040	150294	27755	961782	37282	107355	0	0	8142	738893	0	0
2024-04-14 18:05:32			0	34211	0	0	0	20036	19020	150022	27324	961537	37269	107329	0	0	8147	735877	0	0
2024-04-14 18:06:32			0	34235	0	0	0	19937	18990	149858	27651	961295	37255	107291	0	0	8149	734840	0	0
2024-04-14 18:07:32			0	34272	0	0	0	19864	18950	149742	27829	961097	37263	107263	0	0	8153	733217	0	0
2024-04-14 18:08:32			0	34261	0	0	0	19849	18920	149718	27611	960889	37250	107257	0	0	8152	733867	0	0
2024-04-14 18:09:32			0	34282	0	0	0	19825	18880	149654	27887	960797	37246	107248	0	0	8154	733016	0	0
2024-04-14 18:10:32			0	34305	0	0	0	19807	18830	149590	27580	960591	37252	107241	0	0	8155	732110	0	0
2024-04-14 18:11:32			0	34328	0	0	0	19841	18810	149646	27659	960550	37250	107254	0	0	8156	731084	0	0
2024-04-14 18:12:32			0	34321	0	0	0	19807	18780	149622	27746	960491	37239	107241	0	0	8156	731541	0	0
2024-04-14 18:13:32			0	34337	0	0	0	19828	18750	149674	27293	960460	37235	107249	0	0	8156	730891	0	0
2024-04-14 18:14:32			0	34344	0	0	0	19797	18740	149658	27493	960373	37223	107237	0	0	8157	730595	0	0
2024-04-14 18:15:32			0	34336	0	0	0	19784	18720	149814	27928	960252	37210	107232	0	0	8157	731060	0	0
2024-04-14 18:16:32			0	34325	0	0	0	19786	18690	149854	27614	960212	37219	107233	0	0	8156	731709	0	0
2024-04-14 18:17:32			0	34355	0	0	0	19784	18670	149775	27642	960197	37218	107232	0	0	8157	730346	0	0
2024-04-14 18:18:32			0	34418	0	0	0	19789	18650	149443	27748	960085	37227	107234	0	0	8161	727404	0	0
2024-04-14 18:19:32			0	34433	0	0	0	19750	18640	149399	27495	960051	37215	107219	0	0	8162	726726	0	0
2024-04-14 18:20:32			0	34416	0	0	0	19727	18640	149379	27516	959971	37215	107210	0	0	8162	727540	0	0
2024-04-14 18:21:32			0	34393	0	0	0	19732	18610	149619	27618	959869	37212	107212	0	0	8160	728762	0	0
2024-04-14 18:22:32			0	34350	0	0	0	19714	18600	149695	27670	959818	37211	107205	0	0	8158	730867	0	0
2024-04-14 18:23:32			0	34294	0	0	0	19698	18580	150022	27717	959846	37200	107199	0	0	8155	733643	0	0
2024-04-14 18:24:32			0	34275	0	0	0	19703	18560	150154	27620	959761	37219	107201	0	0	8154	734640	0	0
2024-04-14 18:25:32			0	34230	0	0	0	19706	18540	150386	27426	959596	37207	107202	0	0	8151	736895	0	0
2024-04-14 18:26:32			0	34214	0	0	0	19701	18530	150534	27460	959685	37216	107200	0	0	8150	737710	0	0
2024-04-14 18:27:32			0	34169	0	0	0	19672	18510	150658	27616	959547	37215	107189	0	0	8148	739972	0	0
2024-04-14 18:28:32			0	34176	0	0	0	19670	18500	150730	27502	959584	37214	107188	0	0	8148	739673	0	0
2024-04-14 18:29:32			0	34162	0	0	0	19651	18480	150762	27291	959506	37212	107181	0	0	8148	740434	0	0
2024-04-14 18:30:32			0	34164	0	0	0	19563	18470	150634	27528	959429	37223	107147	0	0	8149	740377	0	0
2024-04-14 18:31:32			0	34209	0	0	0	19410	18450	150622	27440	959378	37200	107088	0	0	8154	738275	0	0
2024-04-14 18:32:32			0	34203	0	0	0	19246	18450	150470	27601	959211	37210	107025	0	0	8157	738565	0	0
2024-04-14 18:33:32			0	34198	0	0	0	19275	18420	150466	27784	959056	37185	107036	0	0	8156	738929	0	0
2024-04-14 18:34:32			0	34171	0	0	0	19272	18400	150562	27535	959076	37172	107035	0	0	8154	740320	0	0
2024-04-14 18:35:32			0	34196	0	0	0	19311	18390	150582	27684	959121	37183	107050	0	0	8155	739147	0	0
2024-04-14 18:36:32			0	34227	0	0	0	19345	18380	150418	27303	959017	37182	107063	0	0	8156	737685	0	0
2024-04-14 18:37:32			0	34234	0	0	0	19381	18370	150370	27677	959001	37181	107077	0	0	8156	737386	0	0
2024-04-14 18:38:32			0	34265	0	0	0	19410	18360	150354	27649	959038	37180	107088	0	0	8157	735927	0	0
2024-04-14 18:39:32			0	34281	0	0	0	19483	18340	150290	27495	959013	37168	107116	0	0	8157	735234	0	0
2024-04-14 18:40:32			0	34272	0	0	0	19584	18350	150406	27854	959056	37202	107155	0	0	8155	735629	0	0
2024-04-14 18:41:32			0	34259	0	0	0	19675	18360	150442	27550	959196	37192	107190	0	0	8152	736217	0	0
2024-04-14 18:42:32			0	34268	0	0	0	19714	18360	150422	27371	959249	37203	107205	0	0	8152	735782	0	0
2024-04-14 18:43:32			0	34268	0	0	0	19753	18370	150534	27367	959353	37214	107220	0	0	8152	735741	0	0
2024-04-14 18:44:32			0	34249	0	0	0	19763	18380	150774	27502	959441	37204	107224	0	0	8150	736620	0	0
2024-04-14 18:45:32			0	34191	0	0	0	19792	18390	150874	27729	959430	37205	107235	0	0	8147	739390	0	0
2024-04-14 18:46:32			0	34148	0	0	0	19815	18400	151118	27282	959561	37207	107244	0	0	8144	741438	0	0
2024-04-14 18:47:32			0	34120	0	0	0	19838	18410	151206	27654	959551	37218	107253	0	0	8142	742760	0	0
2024-04-14 18:48:32			0	34105	0	0	0	19851	18430	151370	27213	959654	37230	107258	0	0	8141	743409	0	0
2024-04-14 18:49:32			0	34068	0	0	0	19864	18440	151402	27260	959679	37220	107263	0	0	8139	745173	0	0
2024-04-14 18:50:32			0	34060	0	0	0	19885	18450	151430	27454	959774	37243	107271	0	0	8138	745523	0	0
2024-04-14 18:51:32			0	34026	0	0	0	19896	18460	151486	27476	959764	37244	107275	0	0	8136	747144	0	0
2024-04-14 18:52:32			0	34047	0	0	0	19877	18470	151578	27703	959886	37245	107268	0	0	8137	746076	0	0
2024-04-14 18:53:32			0	34010	0	0	0	19862	18480	151726	27464	959877	37246	107262	0	0	8135	747845	0	0
2024-04-14 18:54:32			0	34012	0	0	0	19888	18480	151682	27611	959877	37235	107272	0	0	8135	747747	0	0
2024-04-14 18:55:32			0	34022	0	0	0	19909	18490	151582	27431	959991	37247	107280	0	0	8135	747217	0	0
2024-04-14 18:56:32			0	34017	0	0	0	19922	18510	151582	27339	959962	37225	107285	0	0	8135	747380	0	0
2024-04-14 18:57:32			0	34028	0	0	0	19935	18510	151598	27258	959970	37248	107290	0	0	8135	746842	0	0
2024-04-14 18:58:32			0	34031	0	0	0	19922	18530	151534	27623	960021	37238	107285	0	0	8136	746614	0	0
2024-04-14 18:59:32			0	34020	0	0	0	19932	18540	151498	27620	959985	37250	107289	0	0	8135	747110	0	0
2024-04-14 19:00:32			0	34039	0	0	0	19929	18540	151522	27197	959985	37250	107288	0	0	8136	746182	0	0
2024-04-14 19:01:32			0	34040	0	0	0	19927	18540	151538	27336	960099	37240	107287	0	0	8136	746133	0	0
2024-04-14 19:02:32			0	34027	0	0	0	19932	18550	151438	27421	960054	37250	107289	0	0	8136	746727	0	0
2024-04-14 19:03:32			0	34021	0	0	0	19929	18550	151546	27355	960168	37262	107288	0	0	8135	747021	0	0
2024-04-14 19:04:32			0	34003	0	0	0	19932	18560	151598	27440	960070	37241	107289	0	0	8134	747861	0	0
2024-04-14 19:05:32			0	33989	0	0	0	19937	18550	151490	27398	960088	37251	107291	0	0	8133	748587	0	0
2024-04-14 19:06:32			0	33986	0	0	0	19942	18560	151622	27416	960158	37241	107293	0	0	8133	748693	0	0
2024-04-14 19:07:32			0	33984	0	0	0	19950	18570	151526	27559	960174	37242	107296	0	0	8133	748750	0	0
2024-04-14 19:08:32			0	34013	0	0	0	19953	18570	151518	27519	960166	37251	107297	0	0	8134	747330	0	0
2024-04-14 19:09:32			0	34007	0	0	0	19966	18580	151558	27218	960156	37264	107302	0	0	8134	747583	0	0
2024-04-14 19:10:32			0	34011	0	0	0	19961	18590	151526	27537	960312	37254	107300	0	0	8134	747346	0	0
2024-04-14 19:11:32			0	33977	0	0	0	19979	18590	151634	27298	960198	37254	107307	0	0	8132	749011	0	0
2024-04-14 19:12:32			0	33982	0	0	0	19976	18590	151654	27462	960260	37254	107306	0	0	8132	748766	0	0
2024-04-14 19:13:32			0	33973	0	0	0	19984	18610	151742	27523	960372	37256	107309	0	0	8132	749125	0	0
2024-04-14 19:14:32			0	33951	0	0	0	20005	18600	151694	27324	960329	37267	107317	0	0	8130	750245	0	0
2024-04-14 19:15:32			0	33955	0	0	0	20018	18620	151706	27291	960388	37257	107322	0	0	8130	749967	0	0
2024-04-14 19:16:32			0	33950	0	0	0	20020	18620	151842	27237	960327	37256	107323	0	0	8130	750212	0	0
2024-04-14 19:17:32			0	33947	0	0	0	19963	18620	151758	27227	960354	37256	107301	0	0	8131	750359	0	0
2024-04-14 19:18:32			0	33934	0	0	0	19916	18620	151782	27490	960362	37268	107283	0	0	8131	750997	0	0
2024-04-14 19:19:32			0	33940	0	0	0	19898	18620	151714	27724	960380	37256	107276	0	0	8131	750703	0	0
2024-04-14 19:20:32			0	33954	0	0	0	19820	18620	151666	27159	960221	37235	107246	0	0	8134	750016	0	0
2024-04-14 19:21:32			0	33961	0	0	0	19828	18610	151566	27289	960152	37234	107249	0	0	8134	749713	0	0
2024-04-14 19:22:32			0	33952	0	0	0	19761	18600	151622	27286	960056	37222	107223	0	0	8134	750196	0	0
2024-04-14 19:23:32			0	33969	0	0	0	19680	18590	151578	27400	959907	37210	107192	0	0	8137	749403	0	0
2024-04-14 19:24:32			0	33977	0	0	0	19605	18560	151566	26994	959700	37208	107163	0	0	8138	749134	0	0
2024-04-14 19:25:32			0	33974	0	0	0	19506	18530	151674	27360	959553	37184	107125	0	0	8140	749404	0	0
2024-04-14 19:26:32			0	33971	0	0	0	19464	18490	151590	27452	959311	37203	107109	0	0	8140	749715	0	0
2024-04-14 19:27:32			0	33966	0	0	0	19451	18450	151578	27306	959184	37189	107104	0	0	8140	750124	0	0
2024-04-14 19:28:32			0	33957	0	0	0	19381	18420	151570	27235	958985	37197	107077	0	0	8140	750689	0	0
2024-04-14 19:29:32			0	33965	0	0	0	19371	18400	151630	27144	958891	37172	107073	0	0	8141	750378	0	0
2024-04-14 19:30:32			0	33955	0	0	0	19350	18370	151618	27386	958789	37181	107065	0	0	8140	750992	0	0
2024-04-14 19:31:32			0	33965	0	0	0	19329	18340	151630	27171	958661	37168	107057	0	0	8141	750625	0	0
2024-04-14 19:32:32			0	33949	0	0	0	19285	18310	151578	27140	958480	37187	107040	0	0	8141	751534	0	0
2024-04-14 19:33:32			0	33951	0	0	0	19264	18270	151690	26892	958370	37163	107032	0	0	8141	751600	0	0
2024-04-14 19:34:32			0	33952	0	0	0	19259	18250	151770	27093	958258	37171	107030	0	0	8141	751633	0	0
2024-04-14 19:35:32			0	33960	0	0	0	19262	18220	151814	27341	958227	37158	107031	0	0	8141	751363	0	0
2024-04-14 19:36:32			0	33958	0	0	0	19257	18180	151874	27320	958117	37155	107029	0	0	8141	751625	0	0
2024-04-14 19:37:32			0	33963	0	0	0	19257	18150	151854	27277	958068	37152	107029	0	0	8141	751502	0	0
2024-04-14 19:38:32			0	33934	0	0	0	19283	18130	151922	27377	958044	37163	107039	0	0	8139	753011	0	0
2024-04-14 19:39:32			0	33952	0	0	0	19303	18120	151850	27215	958054	37182	107047	0	0	8140	752166	0	0
2024-04-14 19:40:32			0	33963	0	0	0	19311	18120	151814	27357	958046	37160	107050	0	0	8140	751625	0	0
2024-04-14 19:41:32			0	33973	0	0	0	19337	18110	151882	27100	958109	37170	107060	0	0	8140	751175	0	0
2024-04-14 19:42:32			0	33982	0	0	0	19335	18110	151898	27317	958135	37170	107059	0	0	8141	750733	0	0
2024-04-14 19:43:32			0	33991	0	0	0	19337	18110	151870	27339	958162	37170	107060	0	0	8141	750290	0	0
2024-04-14 19:44:32			0	34001	0	0	0	19345	18100	151898	27336	958145	37169	107063	0	0	8142	749841	0	0
2024-04-14 19:45:32			0	33999	0	0	0	19345	18110	151798	27357	958117	37160	107063	0	0	8142	749898	0	0
2024-04-14 19:46:32			0	33976	0	0	0	19337	18100	151818	27485	958145	37180	107060	0	0	8141	751068	0	0
2024-04-14 19:47:32			0	34016	0	0	0	19355	18090	151810	27490	958111	37180	107067	0	0	8143	749146	0	0
2024-04-14 19:48:32			0	34010	0	0	0	19363	18090	151786	27261	958137	37169	107070	0	0	8142	749440	0	0
2024-04-14 19:49:32			0	34008	0	0	0	19387	18090	151814	27409	958164	37180	107079	0	0	8142	749538	0	0
2024-04-14 19:50:32			0	34004	0	0	0	19394	18100	151790	27305	958127	37169	107082	0	0	8141	749693	0	0
2024-04-14 19:51:32			0	33990	0	0	0	19418	18100	151846	27691	958172	37169	107091	0	0	8140	750380	0	0
2024-04-14 19:52:32			0	33988	0	0	0	19433	18090	151974	27417	958190	37169	107097	0	0	8140	750520	0	0
2024-04-14 19:53:32			0	33976	0	0	0	19459	18100	152054	27414	958312	37181	107107	0	0	8138	751068	0	0
2024-04-14 19:54:32			0	33956	0	0	0	19475	18110	152134	27447	958302	37181	107113	0	0	8137	752010	0	0
2024-04-14 19:55:32			0	33940	0	0	0	19485	18110	152178	27308	958347	37193	107117	0	0	8136	752798	0	0
2024-04-14 19:56:32			0	33925	0	0	0	19498	18120	152226	27227	958416	37181	107122	0	0	8135	753495	0	0
2024-04-14 19:57:32			0	33916	0	0	0	19488	18130	152362	27235	958414	37184	107118	0	0	8135	753898	0	0
2024-04-14 19:58:32			0	33905	0	0	0	19488	18130	152410	27326	958388	37184	107118	0	0	8134	754440	0	0
2024-04-14 19:59:32			0	33886	0	0	0	19480	18130	152306	27215	958300	37183	107115	0	0	8133	755377	0	0
2024-04-14 20:00:32			0	33901	0	0	0	19485	18130	152294	27164	958414	37184	107117	0	0	8134	754637	0	0
2024-04-14 20:01:32			0	33909	0	0	0	19498	18130	152290	27022	958441	37195	107122	0	0	8134	754243	0	0
2024-04-14 20:02:32			0	33914	0	0	0	19509	18130	152374	27573	958493	37206	107126	0	0	8134	753996	0	0
2024-04-14 20:03:32			0	33890	0	0	0	19509	18160	152378	27365	958534	37197	107126	0	0	8133	755056	0	0
2024-04-14 20:04:32			0	33884	0	0	0	19529	18160	152350	27303	958587	37197	107134	0	0	8132	755353	0	0
2024-04-14 20:05:32			0	33878	0	0	0	19540	18170	152410	27692	958638	37198	107138	0	0	8132	755608	0	0
2024-04-14 20:06:32			0	33891	0	0	0	19550	18170	152382	27367	958638	37209	107142	0	0	8132	754966	0	0
2024-04-14 20:07:32			0	33882	0	0	0	19532	18180	152298	27223	958575	37198	107135	0	0	8132	755369	0	0
2024-04-14 20:08:32			0	33867	0	0	0	19501	18190	152298	27218	958557	37188	107123	0	0	8132	756068	0	0
2024-04-14 20:09:32			0	33881	0	0	0	19464	18180	152326	27067	958540	37187	107109	0	0	8133	755418	0	0
2024-04-14 20:10:32			0	33887	0	0	0	19477	18170	152390	27322	958498	37186	107114	0	0	8133	755163	0	0
2024-04-14 20:11:32			0	33877	0	0	0	19501	18170	152298	27241	958532	37187	107123	0	0	8132	755657	0	0
2024-04-14 20:12:32			0	33869	0	0	0	19522	18180	152490	27144	958620	37198	107131	0	0	8132	756011	0	0
2024-04-14 20:13:32			0	33865	0	0	0	19527	18180	152470	27305	958567	37220	107133	0	0	8131	756208	0	0
2024-04-14 20:14:32			0	33884	0	0	0	19550	18180	152458	27254	958593	37220	107142	0	0	8132	755270	0	0
2024-04-14 20:15:32			0	33880	0	0	0	19563	18200	152562	27161	958679	37210	107147	0	0	8132	755385	0	0
2024-04-14 20:16:32			0	33861	0	0	0	19592	18200	152546	27492	958732	37210	107158	0	0	8130	756323	0	0
2024-04-14 20:17:32			0	33877	0	0	0	19602	18210	152466	27398	958774	37211	107162	0	0	8131	755492	0	0
2024-04-14 20:18:32			0	33877	0	0	0	19610	18220	152498	27429	958817	37213	107165	0	0	8131	755451	0	0
2024-04-14 20:19:32			0	33870	0	0	0	19618	18240	152506	27348	958842	37213	107168	0	0	8130	755714	0	0
2024-04-14 20:20:32			0	33866	0	0	0	19628	18240	152570	27163	958842	37213	107172	0	0	8130	755911	0	0
2024-04-14 20:21:32			0	33878	0	0	0	19623	18240	152538	27234	958815	37213	107170	0	0	8131	755319	0	0
2024-04-14 20:22:32			0	33877	0	0	0	19623	18240	152514	27493	958850	37204	107170	0	0	8131	755368	0	0
2024-04-14 20:23:32			0	33867	0	0	0	19620	18260	152534	27343	958883	37206	107169	0	0	8130	755779	0	0
2024-04-14 20:24:32			0	33848	0	0	0	19610	18260	152634	27253	958962	37216	107165	0	0	8129	756718	0	0
2024-04-14 20:25:32			0	33851	0	0	0	19618	18260	152558	27253	958901	37215	107168	0	0	8129	756569	0	0
2024-04-14 20:26:32			0	33867	0	0	0	19602	18270	152490	27206	958891	37216	107162	0	0	8131	755738	0	0
2024-04-14 20:27:32			0	33868	0	0	0	19592	18270	152522	27294	958917	37216	107158	0	0	8131	755689	0	0
2024-04-14 20:28:32			0	33843	0	0	0	19592	18260	152546	27183	958830	37206	107158	0	0	8129	756965	0	0
2024-04-14 20:29:32			0	33849	0	0	0	19563	18260	152458	27142	958821	37205	107147	0	0	8130	756668	0	0
2024-04-14 20:30:32			0	33878	0	0	0	19561	18250	152458	27580	958840	37193	107146	0	0	8132	755278	0	0
2024-04-14 20:31:32			0	33867	0	0	0	19535	18250	152434	27554	958805	37193	107136	0	0	8132	755820	0	0
2024-04-14 20:32:32			0	33862	0	0	0	19527	18250	152442	27008	958734	37204	107133	0	0	8131	756067	0	0
2024-04-14 20:33:32			0	33868	0	0	0	19519	18240	152430	27062	958577	37203	107130	0	0	8132	755812	0	0
2024-04-14 20:34:32			0	33900	0	0	0	19511	18240	152258	27249	958683	37192	107127	0	0	8134	754233	0	0
2024-04-14 20:35:32			0	33900	0	0	0	19472	18230	152278	27225	958614	37191	107112	0	0	8135	754275	0	0
2024-04-14 20:36:32			0	33919	0	0	0	19462	18220	152286	27251	958605	37202	107108	0	0	8136	753380	0	0
2024-04-14 20:37:32			0	33907	0	0	0	19431	18190	152118	27029	958538	37189	107096	0	0	8135	754094	0	0
2024-04-14 20:38:32			0	33925	0	0	0	19415	18190	152186	26854	958504	37199	107090	0	0	8137	753208	0	0
2024-04-14 20:39:32			0	33934	0	0	0	19389	18170	152102	27395	958400	37198	107080	0	0	8138	752847	0	0
2024-04-14 20:40:32			0	33957	0	0	0	19384	18160	152014	27393	958251	37186	107078	0	0	8139	751756	0	0
2024-04-14 20:41:32			0	33964	0	0	0	19374	18150	151982	27284	958254	37174	107074	0	0	8139	751453	0	0
2024-04-14 20:42:32			0	33960	0	0	0	19355	18120	151994	26994	958160	37171	107067	0	0	8139	751773	0	0
2024-04-14 20:43:32			0	33965	0	0	0	19337	18130	151982	27348	958123	37184	107060	0	0	8140	751486	0	0
2024-04-14 20:44:32			0	33945	0	0	0	19329	18110	152010	27267	958144	37193	107057	0	0	8139	752552	0	0
2024-04-14 20:45:32			0	33971	0	0	0	19329	18100	152006	27071	958119	37191	107057	0	0	8140	751314	0	0
2024-04-14 20:46:32			0	33958	0	0	0	19332	18090	152058	27232	958103	37180	107058	0	0	8140	751994	0	0
2024-04-14 20:47:32			0	33979	0	0	0	19342	18090	152086	27069	957997	37180	107062	0	0	8141	750962	0	0
2024-04-14 20:48:32			0	33975	0	0	0	19353	18090	152094	27625	958076	37169	107066	0	0	8140	751158	0	0
2024-04-14 20:49:32			0	33960	0	0	0	19335	18080	152086	27346	958113	37178	107059	0	0	8140	751937	0	0
2024-04-14 20:50:32			0	33974	0	0	0	19322	18080	151994	27339	958033	37178	107054	0	0	8141	751249	0	0
2024-04-14 20:51:32			0	33959	0	0	0	19319	18080	152094	27100	958007	37178	107053	0	0	8140	751986	0	0
2024-04-14 20:52:32			0	33962	0	0	0	19322	18080	152078	27045	958007	37178	107054	0	0	8140	751838	0	0
2024-04-14 20:53:32			0	33961	0	0	0	19322	18060	152166	27483	958009	37177	107054	0	0	8140	751970	0	0
2024-04-14 20:54:32			0	33947	0	0	0	19319	18050	152226	27357	958019	37166	107053	0	0	8139	752700	0	0
2024-04-14 20:55:32			0	33925	0	0	0	19324	18040	152286	27308	957950	37166	107055	0	0	8138	753824	0	0
2024-04-14 20:56:32			0	33914	0	0	0	19319	18060	152302	27516	958001	37155	107053	0	0	8137	754284	0	0
2024-04-14 20:57:32			0	33923	0	0	0	19322	18060	152350	27228	957974	37177	107054	0	0	8138	753841	0	0
2024-04-14 20:58:32			0	33912	0	0	0	19311	18040	152486	27246	957976	37176	107050	0	0	8137	754465	0	0
2024-04-14 20:59:32			0	33902	0	0	0	19303	18040	152354	27161	957889	37186	107047	0	0	8137	754959	0	0
2024-04-14 21:00:32			0	33915	0	0	0	19296	18040	152418	27076	957889	37175	107044	0	0	8137	754317	0	0
2024-04-14 21:01:32			0	33913	0	0	0	19322	18040	152414	27469	957889	37186	107054	0	0	8137	754416	0	0
2024-04-14 21:02:32			0	33888	0	0	0	19322	18030	152438	27505	957899	37185	107054	0	0	8135	755691	0	0
2024-04-14 21:03:32			0	33897	0	0	0	19324	18030	152526	27369	957846	37174	107055	0	0	8136	755246	0	0
2024-04-14 21:04:32			0	33880	0	0	0	19311	18020	152430	27433	957856	37163	107050	0	0	8135	756127	0	0
2024-04-14 21:05:32			0	33898	0	0	0	19285	18010	152398	27251	957840	37172	107040	0	0	8137	755280	0	0
2024-04-14 21:06:32			0	33895	0	0	0	19277	18020	152454	27289	957865	37174	107037	0	0	8137	755386	0	0
2024-04-14 21:07:32			0	33884	0	0	0	19194	18010	152350	27480	957769	37172	107005	0	0	8137	755971	0	0
2024-04-14 21:08:32			0	33902	0	0	0	19018	18010	152286	27329	957655	37151	106937	0	0	8141	755082	0	0
2024-04-14 21:09:32			0	33923	0	0	0	18883	17990	152234	27220	957490	37149	106885	0	0	8145	754128	0	0
2024-04-14 21:10:32			0	33918	0	0	0	18755	17970	152154	27124	957325	37147	106836	0	0	8146	754457	0	0
2024-04-14 21:11:32			0	33917	0	0	0	18714	17940	152094	27310	957205	37124	106820	0	0	8147	754630	0	0
2024-04-14 21:12:32			0	33908	0	0	0	18758	17920	152126	27390	957165	37132	106837	0	0	8146	755156	0	0
2024-04-14 21:13:32			0	33878	0	0	0	19028	17920	152246	27180	957244	37132	106941	0	0	8139	756639	0	0
2024-04-14 21:14:32			0	33863	0	0	0	19090	17900	152534	27358	957333	37131	106965	0	0	8137	757463	0	0
2024-04-14 21:15:32			0	33858	0	0	0	19093	17900	152618	27407	957360	37131	106966	0	0	8137	757710	0	0
2024-04-14 21:16:32			0	33852	0	0	0	19116	17920	152638	27331	957403	37154	106975	0	0	8136	757925	0	0
2024-04-14 21:17:32			0	33878	0	0	0	18862	17900	152610	27320	957333	37131	106877	0	0	8142	756721	0	0
2024-04-14 21:18:32			0	33858	0	0	0	18836	17900	152566	27287	957140	37130	106867	0	0	8141	757710	0	0
2024-04-14 21:19:32			0	33884	0	0	0	18693	17880	152438	27291	957002	37118	106812	0	0	8145	756507	0	0
2024-04-14 21:20:32			0	33863	0	0	0	18571	17860	152462	27308	956811	37105	106765	0	0	8146	757628	0	0
2024-04-14 21:21:32			0	33873	0	0	0	18558	17820	152314	27668	956595	37092	106760	0	0	8147	757298	0	0
2024-04-14 21:22:32			0	33860	0	0	0	18449	17790	152458	27157	956335	37078	106718	0	0	8147	758066	0	0
2024-04-14 21:23:32			0	33868	0	0	0	18355	17730	152390	27497	955894	37051	106682	0	0	8149	757917	0	0
2024-04-14 21:24:32			0	33884	0	0	0	18290	17670	152402	27192	955505	37035	106657	0	0	8151	757373	0	0
2024-04-14 21:25:32			0	33902	0	0	0	18277	17590	152414	27232	955269	37018	106652	0	0	8152	756812	0	0
2024-04-14 21:26:32			0	33909	0	0	0	18272	17540	152482	27509	955188	37035	106650	0	0	8152	756671	0	0
2024-04-14 21:27:32			0	33923	0	0	0	18280	17480	152366	27460	955151	37009	106653	0	0	8152	756226	0	0
2024-04-14 21:28:32			0	33930	0	0	0	18293	17450	152494	27076	955015	37017	106658	0	0	8153	756003	0	0
2024-04-14 21:29:32			0	33944	0	0	0	18290	17420	152438	27246	954895	37026	106657	0	0	8153	755435	0	0
2024-04-14 21:30:32			0	33961	0	0	0	18277	17390	152394	27388	954741	37012	106652	0	0	8154	754718	0	0
2024-04-14 21:31:32			0	33955	0	0	0	18301	17360	152426	27500	954710	37009	106661	0	0	8153	755137	0	0
2024-04-14 21:32:32			0	33961	0	0	0	18309	17320	152454	27412	954662	37017	106664	0	0	8153	755005	0	0
2024-04-14 21:33:32			0	33982	0	0	0	18322	17300	152362	27320	954629	37015	106669	0	0	8154	754051	0	0
2024-04-14 21:34:32			0	33997	0	0	0	18329	17280	152490	27306	954615	37035	106672	0	0	8155	753393	0	0
2024-04-14 21:35:32			0	33993	0	0	0	18335	17280	152374	27471	954668	37024	106674	0	0	8155	753590	0	0
2024-04-14 21:36:32			0	34018	0	0	0	18444	17280	152314	27332	954887	37057	106716	0	0	8154	752358	0	0
2024-04-14 21:37:32			0	34021	0	0	0	18540	17310	152418	27343	955139	37060	106753	0	0	8153	752088	0	0
2024-04-14 21:38:32			0	34028	0	0	0	18664	17330	152454	27436	955383	37073	106801	0	0	8151	751661	0	0
2024-04-14 21:39:32			0	34036	0	0	0	18799	17380	152450	27258	955702	37098	106853	0	0	8150	751064	0	0
2024-04-14 21:40:32			0	34026	0	0	0	18841	17420	152462	27642	955846	37102	106869	0	0	8149	751392	0	0
2024-04-14 21:41:32			0	34044	0	0	0	18846	17450	152366	27291	956027	37093	106871	0	0	8150	750385	0	0
2024-04-14 21:42:32			0	34083	0	0	0	18844	17490	152122	27284	956031	37097	106870	0	0	8152	748307	0	0
2024-04-14 21:43:32			0	34121	0	0	0	18911	17510	151890	27187	956249	37110	106896	0	0	8153	746365	0	0
2024-04-14 21:44:32			0	34125	0	0	0	18937	17540	151802	27147	956411	37123	106906	0	0	8153	746047	0	0
2024-04-14 21:45:32			0	34134	0	0	0	18937	17580	151742	27734	956555	37115	106906	0	0	8154	745445	0	0
2024-04-14 21:46:32			0	34106	0	0	0	18906	17610	151794	27317	956552	37140	106894	0	0	8153	746693	0	0
2024-04-14 21:47:32			0	34088	0	0	0	18836	17630	151842	27557	956674	37108	106867	0	0	8153	747493	0	0
2024-04-14 21:48:32			0	34065	0	0	0	18870	17650	151858	27287	956653	37110	106880	0	0	8151	748538	0	0
2024-04-14 21:49:32			0	34044	0	0	0	18870	17670	152014	27429	956686	37112	106880	0	0	8150	749487	0	0
2024-04-14 21:50:32			0	33997	0	0	0	19054	17680	152034	27305	956887	37101	106951	0	0	8145	751756	0	0
2024-04-14 21:51:32			0	33968	0	0	0	19233	17720	152314	27346	957085	37126	107020	0	0	8140	753020	0	0
2024-04-14 21:52:32			0	33950	0	0	0	19335	17750	152590	27419	957292	37151	107059	0	0	8137	753784	0	0
2024-04-14 21:53:32			0	33958	0	0	0	19355	17780	152506	27237	957402	37154	107067	0	0	8138	753266	0	0
2024-04-14 21:54:32			0	33929	0	0	0	19311	17810	152526	26979	957416	37145	107050	0	0	8137	754573	0	0
2024-04-14 21:55:32			0	33929	0	0	0	19122	17820	152482	27282	957309	37147	106977	0	0	8140	754532	0	0
2024-04-14 21:56:32			0	33917	0	0	0	18935	17820	152314	27218	957089	37113	106905	0	0	8143	755124	0	0
2024-04-14 21:57:32			0	33947	0	0	0	18745	17800	152274	27175	956634	37089	106832	0	0	8148	753726	0	0
2024-04-14 21:58:32			0	33941	0	0	0	18620	17760	152110	27391	956384	37076	106784	0	0	8149	754186	0	0
2024-04-14 21:59:32			0	33958	0	0	0	18483	17690	152026	27433	956119	37070	106731	0	0	8152	753635	0	0
2024-04-14 22:00:32			0	33970	0	0	0	18425	17650	151978	27189	955782	37066	106709	0	0	8154	753208	0	0
2024-04-14 22:01:32			0	34000	0	0	0	18361	17600	151818	27303	955470	37030	106684	0	0	8156	751935	0	0
2024-04-14 22:02:32			0	34012	0	0	0	18314	17520	151894	27265	955156	37011	106666	0	0	8157	751672	0	0
2024-04-14 22:03:32			0	34023	0	0	0	18262	17460	151910	27426	954873	37006	106646	0	0	8158	751376	0	0
2024-04-14 22:04:32			0	34049	0	0	0	18220	17420	151790	27147	954737	37015	106630	0	0	8160	750261	0	0
2024-04-14 22:05:32			0	34085	0	0	0	18192	17360	151802	27225	954499	36988	106619	0	0	8163	748738	0	0
2024-04-14 22:06:32			0	34092	0	0	0	18176	17310	151714	27036	954347	37005	106613	0	0	8163	748598	0	0
2024-04-14 22:07:32			0	34116	0	0	0	18171	17270	151682	27190	954264	36992	106611	0	0	8164	747584	0	0
2024-04-14 22:08:32			0	34138	0	0	0	18148	17240	151590	27421	954180	37000	106602	0	0	8166	746628	0	0
2024-04-14 22:09:32			0	34161	0	0	0	18132	17200	151638	27246	954010	36996	106596	0	0	8167	745665	0	0
2024-04-14 22:10:32			0	34176	0	0	0	18114	17160	151678	27474	953971	36992	106589	0	0	8168	745093	0	0
2024-04-14 22:11:32			0	34173	0	0	0	18114	17140	151598	27419	953868	36980	106589	0	0	8168	745321	0	0
2024-04-14 22:12:32			0	34192	0	0	0	18114	17110	151610	27398	953845	37010	106589	0	0	8169	744513	0	0
2024-04-14 22:13:32			0	34180	0	0	0	18106	17090	151786	27232	953804	36987	106586	0	0	8168	745181	0	0
2024-04-14 22:14:32			0	34175	0	0	0	18103	17070	151774	27542	953746	37006	106585	0	0	8168	745506	0	0
2024-04-14 22:15:32			0	34168	0	0	0	18096	17050	151898	27609	953616	36983	106582	0	0	8168	745929	0	0
2024-04-14 22:16:32			0	34137	0	0	0	18088	17030	151874	27559	953583	36982	106579	0	0	8166	747529	0	0
2024-04-14 22:17:32			0	34142	0	0	0	18067	17010	151870	27310	953498	36991	106571	0	0	8166	747365	0	0
2024-04-14 22:18:32			0	34132	0	0	0	18070	16990	151998	27277	953553	37001	106572	0	0	8166	747936	0	0
2024-04-14 22:19:32			0	34090	0	0	0	18106	16990	152110	27625	953571	36967	106586	0	0	8163	749998	0	0
2024-04-14 22:20:32			0	34071	0	0	0	18179	16980	152302	27289	953581	37000	106614	0	0	8160	750973	0	0
2024-04-14 22:21:32			0	34058	0	0	0	18220	16980	152470	27393	953642	37021	106630	0	0	8159	751613	0	0
2024-04-14 22:22:32			0	34065	0	0	0	18233	16980	152502	27711	953686	37000	106635	0	0	8159	751268	0	0
2024-04-14 22:23:32			0	34058	0	0	0	18238	16980	152486	27514	953739	37010	106637	0	0	8159	751613	0	0
2024-04-14 22:24:32			0	34042	0	0	0	18225	16990	152586	27298	953755	36989	106632	0	0	8158	752360	0	0
2024-04-14 22:25:32			0	34026	0	0	0	18174	16980	152566	27639	953713	37010	106612	0	0	8158	753189	0	0
2024-04-14 22:26:32			0	34040	0	0	0	18106	16980	152530	27543	953589	36989	106586	0	0	8160	752499	0	0
2024-04-14 22:27:32			0	34029	0	0	0	18020	16970	152498	27514	953494	36989	106553	0	0	8161	753082	0	0
2024-04-14 22:28:32			0	34021	0	0	0	17935	16950	152494	27239	953382	36975	106520	0	0	8161	753559	0	0
2024-04-14 22:29:32			0	34011	0	0	0	17903	16920	152506	27405	953201	36962	106508	0	0	8161	754175	0	0
2024-04-14 22:30:32			0	34012	0	0	0	17880	16900	152602	27010	953169	36971	106499	0	0	8162	754207	0	0
2024-04-14 22:31:32			0	33990	0	0	0	17833	16890	152682	27194	953039	36969	106481	0	0	8161	755335	0	0
2024-04-14 22:32:32			0	33967	0	0	0	17846	16870	152726	27209	953033	36968	106486	0	0	8159	756554	0	0
2024-04-14 22:33:32			0	33961	0	0	0	17833	16840	152778	27294	952905	36965	106481	0	0	8159	756974	0	0
2024-04-14 22:34:32			0	33959	0	0	0	17831	16830	152834	27133	952844	36954	106480	0	0	8159	757114	0	0
2024-04-14 22:35:32			0	33960	0	0	0	17768	16810	152838	27419	952733	36953	106456	0	0	8160	757147	0	0
2024-04-14 22:36:32			0	33941	0	0	0	17716	16780	152838	27710	952570	36950	106436	0	0	8160	758212	0	0
2024-04-14 22:37:32			0	33955	0	0	0	17714	16760	152818	27371	952432	36926	106435	0	0	8161	757600	0	0
2024-04-14 22:38:32			0	33954	0	0	0	17675	16720	152882	27507	952357	36945	106420	0	0	8161	757814	0	0
2024-04-14 22:39:32			0	33967	0	0	0	17672	16700	152886	27287	952264	36954	106419	0	0	8162	757251	0	0
2024-04-14 22:40:32			0	33960	0	0	0	17646	16660	152858	27488	952014	36929	106409	0	0	8161	757762	0	0
2024-04-14 22:41:32			0	33959	0	0	0	17618	16620	152942	27332	951931	36925	106398	0	0	8162	757976	0	0
2024-04-14 22:42:32			0	33966	0	0	0	17607	16600	153038	27234	951785	36924	106394	0	0	8162	757711	0	0
2024-04-14 22:43:32			0	33935	0	0	0	17592	16560	153098	27196	951694	36909	106388	0	0	8160	759413	0	0
2024-04-14 22:44:32			0	33922	0	0	0	17568	16540	153198	27369	951537	36930	106379	0	0	8160	760141	0	0
2024-04-14 22:45:32			0	33910	0	0	0	17522	16510	153202	27260	951436	36916	106361	0	0	8160	760861	0	0
2024-04-14 22:46:32			0	33886	0	0	0	17483	16480	153382	27642	951282	36904	106346	0	0	8159	762179	0	0
2024-04-14 22:47:32			0	33881	0	0	0	17444	16450	153482	27159	951215	36901	106331	0	0	8159	762552	0	0
2024-04-14 22:48:32			0	33830	0	0	0	17431	16410	153638	27275	951097	36898	106326	0	0	8156	765262	0	0
2024-04-14 22:49:32			0	33826	0	0	0	17428	16380	153814	27128	951049	36895	106325	0	0	8156	765586	0	0
2024-04-14 22:50:32			0	33821	0	0	0	17418	16370	153882	27379	950998	36905	106321	0	0	8156	765878	0	0
2024-04-14 22:51:32			0	33794	0	0	0	17410	16350	154018	27762	950947	36903	106318	0	0	8154	767312	0	0
2024-04-14 22:52:32			0	33759	0	0	0	17407	16330	154126	27384	950933	36902	106317	0	0	8152	769149	0	0
2024-04-14 22:53:32			0	33757	0	0	0	17446	16310	154274	27386	950927	36888	106332	0	0	8151	769333	0	0
2024-04-14 22:54:32			0	33738	0	0	0	17467	16300	154322	27566	950885	36910	106340	0	0	8150	770328	0	0
2024-04-14 22:55:32			0	33740	0	0	0	17470	16290	154434	27118	950921	36909	106341	0	0	8150	770269	0	0
2024-04-14 22:56:32			0	33711	0	0	0	17467	16280	154382	27249	950860	36919	106340	0	0	8148	771769	0	0
2024-04-14 22:57:32			0	33703	0	0	0	17467	16280	154554	27235	950826	36918	106340	0	0	8148	772172	0	0
2024-04-14 22:58:32			0	33693	0	0	0	17485	16280	154606	27124	950852	36908	106347	0	0	8147	772675	0	0
2024-04-14 22:59:32			0	33690	0	0	0	17501	16270	154650	27027	950836	36907	106353	0	0	8146	772868	0	0
2024-04-14 23:00:32			0	33681	0	0	0	17498	16260	154406	27447	950854	36917	106352	0	0	8146	773364	0	0
2024-04-14 23:01:32			0	33705	0	0	0	17501	16260	154594	26899	950881	36907	106353	0	0	8147	772154	0	0
2024-04-14 23:02:32			0	33688	0	0	0	17488	16250	154558	27248	950751	36916	106348	0	0	8146	773052	0	0
2024-04-14 23:03:32			0	33699	0	0	0	17490	16240	154598	26987	950795	36905	106349	0	0	8147	772540	0	0
2024-04-14 23:04:32			0	33685	0	0	0	17480	16240	154582	27114	950769	36905	106345	0	0	8146	773245	0	0
2024-04-14 23:05:32			0	33706	0	0	0	17501	16240	154630	27403	950787	36916	106353	0	0	8147	772188	0	0
2024-04-14 23:06:32			0	33703	0	0	0	17519	16240	154638	27234	950848	36926	106360	0	0	8147	772339	0	0
2024-04-14 23:07:32			0	33702	0	0	0	17511	16240	154754	27225	950866	36905	106357	0	0	8147	772389	0	0
2024-04-14 23:08:32			0	33695	0	0	0	17514	16240	154654	26927	950866	36916	106358	0	0	8146	772742	0	0
2024-04-14 23:09:32			0	33705	0	0	0	17519	16240	154666	26847	950822	36916	106360	0	0	8147	772238	0	0
2024-04-14 23:10:32			0	33705	0	0	0	17516	16240	154554	26804	950866	36905	106359	0	0	8147	772238	0	0
2024-04-14 23:11:32			0	33712	0	0	0	17524	16250	154610	26866	950864	36916	106362	0	0	8147	771844	0	0
2024-04-14 23:12:32			0	33720	0	0	0	17537	16250	154550	26955	950856	36916	106367	0	0	8147	771441	0	0
2024-04-14 23:13:32			0	33738	0	0	0	17516	16250	154426	26968	950838	36906	106359	0	0	8149	770537	0	0
2024-04-14 23:14:32			0	33759	0	0	0	17519	16240	154370	26965	950848	36905	106360	0	0	8150	769523	0	0
2024-04-14 23:15:32			0	33753	0	0	0	17511	16230	154282	27403	950771	36892	106357	0	0	8150	769866	0	0
2024-04-14 23:16:32			0	33785	0	0	0	17509	16240	154302	27235	950787	36905	106356	0	0	8152	768219	0	0
2024-04-14 23:17:32			0	33786	0	0	0	17496	16230	154118	27175	950779	36915	106351	0	0	8152	768210	0	0
2024-04-14 23:18:32			0	33807	0	0	0	17485	16220	154034	27156	950702	36914	106347	0	0	8153	767199	0	0
2024-04-14 23:19:32			0	33805	0	0	0	17483	16220	154102	27144	950702	36914	106346	0	0	8153	767300	0	0
2024-04-14 23:20:32			0	33812	0	0	0	17503	16210	154082	27417	950712	36902	106354	0	0	8153	766991	0	0
2024-04-14 23:21:32			0	33815	0	0	0	17540	16210	154074	27326	950791	36913	106368	0	0	8153	766840	0	0
2024-04-14 23:22:32			0	33837	0	0	0	17527	16200	153946	27062	950757	36913	106363	0	0	8154	765781	0	0
2024-04-14 23:23:32			0	33858	0	0	0	17519	16220	153938	27358	950755	36924	106360	0	0	8156	764649	0	0
2024-04-14 23:24:32			0	33861	0	0	0	17490	16220	153934	27609	950755	36914	106349	0	0	8156	764499	0	0
2024-04-14 23:25:32			0	33852	0	0	0	17475	16210	153758	27234	950818	36913	106343	0	0	8156	764990	0	0
2024-04-14 23:26:32			0	33874	0	0	0	17477	16210	153714	27448	950747	36902	106344	0	0	8157	763891	0	0
2024-04-14 23:27:32			0	33862	0	0	0	17467	16210	153762	27414	950739	36902	106340	0	0	8157	764490	0	0
2024-04-14 23:28:32			0	33873	0	0	0	17472	16200	153830	27277	950670	36902	106342	0	0	8157	763982	0	0
2024-04-14 23:29:32			0	33852	0	0	0	17467	16190	153854	27329	950635	36901	106340	0	0	8156	765072	0	0
2024-04-14 23:30:32			0	33860	0	0	0	17477	16190	153786	27402	950662	36901	106344	0	0	8156	764673	0	0
2024-04-14 23:31:32			0	33859	0	0	0	17490	16200	153882	27424	950643	36913	106349	0	0	8156	764681	0	0
2024-04-14 23:32:32			0	33845	0	0	0	17488	16190	153882	27424	950706	36911	106348	0	0	8155	765422	0	0
2024-04-14 23:33:32			0	33833	0	0	0	17490	16190	153918	27177	950662	36922	106349	0	0	8154	766022	0	0
2024-04-14 23:34:32			0	33835	0	0	0	17488	16190	153978	27407	950653	36900	106348	0	0	8155	765922	0	0
2024-04-14 23:35:32			0	33840	0	0	0	17490	16190	154042	27322	950627	36911	106349	0	0	8155	765672	0	0
2024-04-14 23:36:32			0	33832	0	0	0	17485	16180	153934	27466	950611	36910	106347	0	0	8154	766114	0	0
2024-04-14 23:37:32			0	33832	0	0	0	17488	16190	153974	27242	950574	36921	106348	0	0	8154	766072	0	0
2024-04-14 23:38:32			0	33822	0	0	0	17475	16170	153978	27415	950577	36910	106343	0	0	8154	766656	0	0
2024-04-14 23:39:32			0	33837	0	0	0	17470	16180	153950	27415	950532	36920	106341	0	0	8155	765864	0	0
2024-04-14 23:40:32			0	33824	0	0	0	17457	16170	154014	27483	950577	36899	106336	0	0	8154	766555	0	0
2024-04-14 23:41:32			0	33842	0	0	0	17467	16170	153922	27653	950568	36909	106340	0	0	8155	765655	0	0
2024-04-14 23:42:32			0	33819	0	0	0	17451	16160	154086	27324	950587	36897	106334	0	0	8154	766847	0	0
2024-04-14 23:43:32			0	33824	0	0	0	17454	16170	154010	27597	950577	36910	106335	0	0	8154	766555	0	0
2024-04-14 23:44:32			0	33813	0	0	0	17444	16160	154158	27500	950587	36897	106331	0	0	8154	767148	0	0
2024-04-14 23:45:32			0	33798	0	0	0	17451	16170	154066	27479	950550	36910	106334	0	0	8153	767858	0	0
2024-04-14 23:46:32			0	33808	0	0	0	17451	16160	154202	27398	950508	36909	106334	0	0	8154	767398	0	0
2024-04-14 23:47:32			0	33786	0	0	0	17441	16160	154214	27607	950560	36919	106330	0	0	8152	768501	0	0
2024-04-14 23:48:32			0	33806	0	0	0	17428	16150	154170	27322	950500	36909	106325	0	0	8154	767540	0	0
2024-04-14 23:49:32			0	33776	0	0	0	17425	16170	154210	27433	950542	36909	106324	0	0	8152	768961	0	0
2024-04-14 23:50:32			0	33801	0	0	0	17399	16150	154178	27450	950473	36930	106314	0	0	8154	767790	0	0
2024-04-14 23:51:32			0	33799	0	0	0	17389	16140	154194	27294	950431	36908	106310	0	0	8154	767932	0	0
2024-04-14 23:52:32			0	33798	0	0	0	17386	16150	154242	27516	950439	36897	106309	0	0	8154	767941	0	0
2024-04-14 23:53:32			0	33771	0	0	0	17384	16140	154322	27559	950431	36897	106308	0	0	8152	769336	0	0
2024-04-14 23:54:32			0	33786	0	0	0	17379	16140	154362	27448	950423	36896	106306	0	0	8153	768584	0	0
2024-04-14 23:55:32			0	33770	0	0	0	17379	16130	154306	27107	950380	36906	106306	0	0	8152	769428	0	0
2024-04-14 23:56:32			0	33797	0	0	0	17363	16130	154286	27279	950327	36906	106300	0	0	8154	768074	0	0
2024-04-14 23:57:32			0	33788	0	0	0	17368	16120	154338	27569	950311	36905	106302	0	0	8154	768566	0	0
2024-04-14 23:58:32			0	33807	0	0	0	17389	16110	154210	27178	950329	36916	106310	0	0	8154	767655	0	0
2024-04-14 23:59:32			0	33796	0	0	0	17412	16110	154342	27312	950303	36905	106319	0	0	8153	768207	0	0
2024-04-15 00:00:32			0	33796	0	0	0	17412	16110	154218	27379	950400	36916	106319	0	0	8153	768207	0	0
2024-04-15 00:01:32			0	33805	0	0	0	17425	16110	154126	27076	950329	36894	106324	0	0	8154	767755	0	0
2024-04-15 00:02:32			0	33852	0	0	0	17428	16100	154034	27161	950366	36904	106325	0	0	8156	765444	0	0
2024-04-15 00:03:32			0	33899	0	0	0	17433	16120	153814	27428	950372	36916	106327	0	0	8159	763015	0	0
2024-04-15 00:04:32			0	33913	0	0	0	17433	16110	153786	27450	950408	36916	106327	0	0	8160	762358	0	0
2024-04-15 00:05:32			0	33891	0	0	0	17407	16120	153870	27076	950416	36916	106317	0	0	8159	763414	0	0
2024-04-15 00:06:32			0	33915	0	0	0	17394	16120	153862	27166	950425	36906	106312	0	0	8161	762217	0	0
2024-04-15 00:07:32			0	33887	0	0	0	17389	16120	153746	27428	950337	36905	106310	0	0	8159	763613	0	0
2024-04-15 00:08:32			0	33868	0	0	0	17394	16110	153902	27492	950400	36904	106312	0	0	8158	764603	0	0
2024-04-15 00:09:32			0	33842	0	0	0	17384	16120	153882	27265	950390	36916	106308	0	0	8156	765862	0	0
2024-04-15 00:10:32			0	33845	0	0	0	17384	16110	154010	27118	950329	36905	106308	0	0	8157	765753	0	0
2024-04-15 00:11:32			0	33840	0	0	0	17402	16110	154066	27163	950329	36894	106315	0	0	8156	766003	0	0
2024-04-15 00:12:32			0	33821	0	0	0	17415	16100	154198	27182	950339	36904	106320	0	0	8155	766995	0	0
2024-04-15 00:13:32			0	33821	0	0	0	17410	16100	154174	27116	950366	36904	106318	0	0	8155	766995	0	0
2024-04-15 00:14:32			0	33801	0	0	0	17412	16110	154266	27485	950400	36893	106319	0	0	8154	767956	0	0
2024-04-15 00:15:32			0	33808	0	0	0	17402	16110	154206	27552	950347	36916	106315	0	0	8154	767605	0	0
2024-04-15 00:16:32			0	33799	0	0	0	17381	16110	154238	26986	950347	36904	106307	0	0	8154	768056	0	0
2024-04-15 00:17:32			0	33801	0	0	0	17394	16110	154234	27140	950347	36916	106312	0	0	8154	767956	0	0
2024-04-15 00:18:32			0	33804	0	0	0	17386	16110	154166	27199	950400	36904	106309	0	0	8154	767806	0	0
2024-04-15 00:19:32			0	33813	0	0	0	17374	16100	154226	26819	950305	36904	106304	0	0	8155	767396	0	0
2024-04-15 00:20:32			0	33801	0	0	0	17366	16110	154226	26941	950347	36904	106301	0	0	8154	767956	0	0
2024-04-15 00:21:32			0	33803	0	0	0	17368	16100	154238	27159	950305	36904	106302	0	0	8154	767897	0	0
2024-04-15 00:22:32			0	33793	0	0	0	17379	16100	154298	27086	950331	36904	106306	0	0	8154	768399	0	0
2024-04-15 00:23:32			0	33801	0	0	0	17402	16100	154318	27362	950366	36904	106315	0	0	8154	767998	0	0
2024-04-15 00:24:32			0	33800	0	0	0	17431	16110	154222	27095	950453	36904	106326	0	0	8153	768006	0	0
2024-04-15 00:25:32			0	33798	0	0	0	17441	16120	154386	27171	950425	36906	106330	0	0	8153	768065	0	0
2024-04-15 00:26:32			0	33797	0	0	0	17446	16120	154326	27003	950495	36905	106332	0	0	8153	768115	0	0
2024-04-15 00:27:32			0	33792	0	0	0	17457	16120	154394	27135	950451	36906	106336	0	0	8152	768366	0	0
2024-04-15 00:28:32			0	33779	0	0	0	17457	16120	154414	27296	950495	36905	106336	0	0	8152	769018	0	0
2024-04-15 00:29:32			0	33772	0	0	0	17451	16130	154370	26991	950485	36906	106334	0	0	8151	769328	0	0
2024-04-15 00:30:32			0	33774	0	0	0	17441	16130	154298	27156	950459	36916	106330	0	0	8152	769227	0	0
2024-04-15 00:31:32			0	33777	0	0	0	17438	16140	154302	27327	950502	36907	106329	0	0	8152	769035	0	0
2024-04-15 00:32:32			0	33784	0	0	0	17431	16130	154306	27230	950459	36916	106326	0	0	8152	768726	0	0
2024-04-15 00:33:32			0	33777	0	0	0	17410	16120	154350	26948	950530	36916	106318	0	0	8152	769118	0	0
2024-04-15 00:34:32			0	33780	0	0	0	17389	16120	154374	27088	950451	36927	106310	0	0	8153	768968	0	0
2024-04-15 00:35:32			0	33776	0	0	0	17394	16130	154326	27343	950485	36916	106312	0	0	8152	769127	0	0
2024-04-15 00:36:32			0	33765	0	0	0	17389	16120	154322	27313	950398	36895	106310	0	0	8152	769721	0	0
2024-04-15 00:37:32			0	33747	0	0	0	17397	16130	154466	27251	950459	36906	106313	0	0	8151	770583	0	0
2024-04-15 00:38:32			0	33735	0	0	0	17379	16120	154554	27171	950443	36916	106306	0	0	8150	771228	0	0
2024-04-15 00:39:32			0	33722	0	0	0	17355	16120	154558	27098	950477	36927	106297	0	0	8150	771883	0	0
2024-04-15 00:40:32			0	33719	0	0	0	17350	16120	154550	27332	950390	36916	106295	0	0	8150	772033	0	0
2024-04-15 00:41:32			0	33704	0	0	0	17348	16110	154682	27284	950347	36926	106294	0	0	8149	772831	0	0
2024-04-15 00:42:32			0	33686	0	0	0	17342	16120	154678	27324	950398	36895	106292	0	0	8148	773696	0	0
2024-04-15 00:43:32			0	33688	0	0	0	17332	16110	154666	27436	950321	36893	106288	0	0	8148	773637	0	0
2024-04-15 00:44:32			0	33671	0	0	0	17306	16110	154770	27119	950242	36893	106278	0	0	8148	774495	0	0
2024-04-15 00:45:32			0	33662	0	0	0	17311	16110	154790	27118	950216	36893	106280	0	0	8147	774949	0	0
2024-04-15 00:46:32			0	33667	0	0	0	17296	16100	154934	26861	950331	36893	106274	0	0	8148	774738	0	0
2024-04-15 00:47:32			0	33630	0	0	0	17290	16080	155002	27251	950228	36903	106272	0	0	8145	776692	0	0
2024-04-15 00:48:32			0	33645	0	0	0	17303	16080	154962	27289	950201	36892	106277	0	0	8146	775933	0	0
2024-04-15 00:49:32			0	33626	0	0	0	17290	16080	155058	27336	950167	36913	106272	0	0	8145	776894	0	0
2024-04-15 00:50:32			0	33631	0	0	0	17290	16060	155026	27133	950090	36900	106272	0	0	8145	776725	0	0
2024-04-15 00:51:32			0	33617	0	0	0	17296	16060	155138	27163	950090	36900	106274	0	0	8144	777434	0	0
2024-04-15 00:52:32			0	33611	0	0	0	17314	16060	155134	27178	950143	36889	106281	0	0	8144	777737	0	0
2024-04-15 00:53:32			0	33594	0	0	0	17374	16060	155158	27447	950169	36912	106304	0	0	8142	778599	0	0
2024-04-15 00:54:32			0	33615	0	0	0	17397	16070	155266	27492	950204	36912	106313	0	0	8143	777493	0	0
2024-04-15 00:55:32			0	33591	0	0	0	17371	16080	155226	27291	950246	36902	106303	0	0	8142	778667	0	0
2024-04-15 00:56:32			0	33589	0	0	0	17340	16070	155218	27464	950256	36890	106291	0	0	8142	778810	0	0
2024-04-15 00:57:32			0	33574	0	0	0	17332	16070	155438	27111	950204	36912	106288	0	0	8141	779571	0	0
2024-04-15 00:58:32			0	33572	0	0	0	17348	16070	155350	27307	950177	36912	106294	0	0	8141	779673	0	0
2024-04-15 00:59:32			0	33562	0	0	0	17371	16070	155349	27211	950230	36901	106303	0	0	8140	780180	0	0
2024-04-15 01:00:32			0	33571	0	0	0	17358	16060	155505	27409	950169	36912	106298	0	0	8141	779765	0	0
2024-04-15 01:01:32			0	33546	0	0	0	17337	16070	155557	27415	950230	36901	106290	0	0	8140	780993	0	0
2024-04-15 01:02:32			0	33534	0	0	0	17348	16070	155625	27367	950230	36901	106294	0	0	8139	781602	0	0
2024-04-15 01:03:32			0	33509	0	0	0	17355	16060	155653	27189	950214	36912	106297	0	0	8137	782917	0	0
2024-04-15 01:04:32			0	33514	0	0	0	17363	16060	155693	27582	950169	36900	106300	0	0	8137	782662	0	0
2024-04-15 01:05:32			0	33482	0	0	0	17345	16060	155725	27336	950248	36912	106293	0	0	8136	784292	0	0
2024-04-15 01:06:32			0	33484	0	0	0	17329	16060	155849	27481	950187	36922	106287	0	0	8136	784190	0	0
2024-04-15 01:07:32			0	33457	0	0	0	17306	16070	155897	27365	950230	36890	106278	0	0	8135	785525	0	0
2024-04-15 01:08:32			0	33444	0	0	0	17277	16060	156029	27170	950082	36889	106267	0	0	8135	786232	0	0
2024-04-15 01:09:32			0	33437	0	0	0	17259	16050	155997	27467	950092	36900	106260	0	0	8134	786632	0	0
2024-04-15 01:10:32			0	33444	0	0	0	17259	16030	155977	27267	950068	36887	106260	0	0	8135	786359	0	0
2024-04-15 01:11:32			0	33456	0	0	0	17251	16030	155913	27552	950042	36887	106257	0	0	8136	785746	0	0
2024-04-15 01:12:32			0	33459	0	0	0	17241	16020	155897	27485	949894	36886	106253	0	0	8136	785635	0	0
2024-04-15 01:13:32			0	33450	0	0	0	17233	16020	155841	27251	949833	36886	106250	0	0	8135	786095	0	0
2024-04-15 01:14:32			0	33481	0	0	0	17228	16000	155805	27312	949827	36884	106248	0	0	8137	784597	0	0
2024-04-15 01:15:32			0	33489	0	0	0	17215	16000	155761	27400	949827	36884	106243	0	0	8138	784189	0	0
2024-04-15 01:16:32			0	33519	0	0	0	17215	15990	155669	27286	949810	36895	106243	0	0	8140	782703	0	0
2024-04-15 01:17:32			0	33513	0	0	0	17228	15990	155673	27557	949863	36895	106248	0	0	8139	783009	0	0
2024-04-15 01:18:32			0	33551	0	0	0	17228	15990	155629	27156	949837	36906	106248	0	0	8141	781076	0	0
2024-04-15 01:19:32			0	33545	0	0	0	17301	15980	155573	26838	949934	36905	106276	0	0	8140	781423	0	0
2024-04-15 01:20:32			0	33536	0	0	0	17353	15980	155609	27211	949987	36905	106296	0	0	8138	781880	0	0
2024-04-15 01:21:32			0	33514	0	0	0	17379	16000	155681	27150	950090	36906	106306	0	0	8137	782916	0	0
2024-04-15 01:22:32			0	33534	0	0	0	17399	16010	155741	27071	950133	36896	106314	0	0	8138	781856	0	0
2024-04-15 01:23:32			0	33501	0	0	0	17392	16020	155877	27187	950149	36908	106311	0	0	8136	783493	0	0
2024-04-15 01:24:32			0	33471	0	0	0	17384	16020	155909	27341	950183	36908	106308	0	0	8134	785023	0	0
2024-04-15 01:25:32			0	33477	0	0	0	17374	16030	155873	27138	950165	36898	106304	0	0	8135	784674	0	0
2024-04-15 01:26:32			0	33479	0	0	0	17366	16030	155925	26984	950121	36909	106301	0	0	8135	784572	0	0
2024-04-15 01:27:32			0	33457	0	0	0	17366	16030	155937	27149	950121	36909	106301	0	0	8134	785695	0	0
2024-04-15 01:28:32			0	33440	0	0	0	17350	16020	155885	27327	950104	36908	106295	0	0	8133	786606	0	0
2024-04-15 01:29:32			0	33451	0	0	0	17335	16030	156041	27154	950121	36898	106289	0	0	8134	786001	0	0
2024-04-15 01:30:32			0	33427	0	0	0	17314	16030	156137	27093	950086	36898	106281	0	0	8133	787228	0	0
2024-04-15 01:31:32			0	33408	0	0	0	17314	16020	156209	26960	950104	36897	106281	0	0	8132	788243	0	0
2024-04-15 01:32:32			0	33374	0	0	0	17283	16030	156289	27164	950086	36898	106269	0	0	8130	789942	0	0
2024-04-15 01:33:32			0	33333	0	0	0	17293	16020	156509	27353	950052	36886	106273	0	0	8127	792090	0	0
2024-04-15 01:34:32			0	33284	0	0	0	17285	16030	156769	27137	950033	36909	106270	0	0	8125	794569	0	0
2024-04-15 01:35:32			0	33245	0	0	0	17290	16030	156881	27540	950060	36909	106272	0	0	8122	796581	0	0
2024-04-15 01:36:32			0	33220	0	0	0	17277	16020	157209	27235	950052	36908	106267	0	0	8121	797916	0	0
2024-04-15 01:37:32			0	33179	0	0	0	17267	16020	157253	27435	949999	36918	106263	0	0	8119	800039	0	0
2024-04-15 01:38:32			0	33164	0	0	0	17275	16020	157421	27443	950017	36886	106266	0	0	8118	800816	0	0
2024-04-15 01:39:32			0	33136	0	0	0	17309	16020	157509	27208	950052	36908	106279	0	0	8115	802269	0	0
2024-04-15 01:40:32			0	33114	0	0	0	17290	16010	157545	27351	950054	36907	106272	0	0	8114	803456	0	0
2024-04-15 01:41:32			0	33089	0	0	0	17296	16010	157681	27274	949975	36907	106274	0	0	8113	804757	0	0
2024-04-15 01:42:32			0	33094	0	0	0	17272	16020	157713	27350	949991	36908	106265	0	0	8113	804454	0	0
2024-04-15 01:43:32			0	33075	0	0	0	17244	16010	157765	27064	949975	36907	106254	0	0	8113	805487	0	0
2024-04-15 01:44:32			0	33059	0	0	0	17225	16010	157757	27197	949922	36896	106247	0	0	8112	806321	0	0
2024-04-15 01:45:32			0	33057	0	0	0	17215	16000	157825	27462	949906	36895	106243	0	0	8112	806469	0	0
2024-04-15 01:46:32			0	33063	0	0	0	17210	15990	157953	26955	949837	36895	106241	0	0	8112	806199	0	0
2024-04-15 01:47:32			0	33070	0	0	0	17205	15980	157825	27331	949881	36894	106239	0	0	8113	805878	0	0
2024-04-15 01:48:32			0	33053	0	0	0	17205	15970	157897	27159	949733	36893	106239	0	0	8112	806808	0	0
2024-04-15 01:49:32			0	33069	0	0	0	17181	15970	157821	27171	949760	36904	106230	0	0	8113	805973	0	0
2024-04-15 01:50:32			0	33073	0	0	0	17184	15970	157825	27156	949752	36892	106231	0	0	8113	805765	0	0
2024-04-15 01:51:32			0	33095	0	0	0	17189	15950	157829	27369	949701	36880	106233	0	0	8115	804705	0	0
2024-04-15 01:52:32			0	33098	0	0	0	17189	15950	157841	27187	949746	36880	106233	0	0	8115	804549	0	0
2024-04-15 01:53:32			0	33115	0	0	0	17176	15950	157741	27225	949648	36880	106228	0	0	8116	803664	0	0
2024-04-15 01:54:32			0	33109	0	0	0	17187	15950	157729	27258	949719	36891	106232	0	0	8115	803977	0	0
2024-04-15 01:55:32			0	33123	0	0	0	17168	15940	157669	27355	949624	36890	106225	0	0	8117	803292	0	0
2024-04-15 01:56:32			0	33124	0	0	0	17171	15920	157721	27313	949645	36867	106226	0	0	8116	803326	0	0
2024-04-15 01:57:32			0	33117	0	0	0	17174	15920	157637	27223	949547	36878	106227	0	0	8116	803690	0	0
2024-04-15 01:58:32			0	33135	0	0	0	17153	15910	157617	27313	949523	36887	106219	0	0	8117	802798	0	0
2024-04-15 01:59:32			0	33131	0	0	0	17148	15900	157613	27105	949489	36876	106217	0	0	8117	803049	0	0
2024-04-15 02:00:32			0	33143	0	0	0	17150	15900	157629	26935	949480	36875	106218	0	0	8118	802425	0	0
2024-04-15 02:01:32			0	33164	0	0	0	17148	15890	157593	27352	949367	36875	106217	0	0	8119	801378	0	0
2024-04-15 02:02:32			0	33161	0	0	0	17135	15870	157393	27150	949440	36874	106212	0	0	8119	801620	0	0
2024-04-15 02:03:32			0	33168	0	0	0	17140	15870	157357	27213	949334	36863	106214	0	0	8119	801257	0	0
2024-04-15 02:04:32			0	33186	0	0	0	17192	15880	157409	26918	949483	36886	106234	0	0	8120	800280	0	0
2024-04-15 02:05:32			0	33182	0	0	0	17257	15880	157433	27105	949614	36897	106259	0	0	8118	800487	0	0
2024-04-15 02:06:32			0	33175	0	0	0	17306	15900	157449	27235	949691	36909	106278	0	0	8117	800764	0	0
2024-04-15 02:07:32			0	33182	0	0	0	17337	15910	157481	27270	949794	36898	106290	0	0	8117	800358	0	0
2024-04-15 02:08:32			0	33177	0	0	0	17355	15930	157541	27119	949898	36911	106297	0	0	8117	800531	0	0
2024-04-15 02:09:32			0	33167	0	0	0	17368	15930	157513	27384	949958	36921	106302	0	0	8116	801050	0	0
2024-04-15 02:10:32			0	33154	0	0	0	17371	15950	157565	27029	949983	36902	106303	0	0	8115	801638	0	0
2024-04-15 02:11:32			0	33167	0	0	0	17361	15960	157553	27213	949954	36903	106299	0	0	8116	800920	0	0
2024-04-15 02:12:32			0	33162	0	0	0	17345	15970	157573	27384	950076	36893	106293	0	0	8116	801136	0	0
2024-04-15 02:13:32			0	33164	0	0	0	17329	15990	157413	27462	950021	36916	106287	0	0	8117	800946	0	0
2024-04-15 02:14:32			0	33167	0	0	0	17314	15980	157385	27239	949960	36894	106281	0	0	8117	800834	0	0
2024-04-15 02:15:32			0	33156	0	0	0	17316	15980	157517	27386	950031	36925	106282	0	0	8116	801404	0	0
2024-04-15 02:16:32			0	33129	0	0	0	17309	15980	157621	27137	949960	36916	106279	0	0	8115	802806	0	0
2024-04-15 02:17:32			0	33100	0	0	0	17249	15980	157681	27152	949960	36916	106256	0	0	8114	804315	0	0
2024-04-15 02:18:32			0	33070	0	0	0	17241	15970	157893	27104	949865	36904	106253	0	0	8112	805921	0	0
2024-04-15 02:19:32			0	33043	0	0	0	17272	15980	158149	27182	949847	36893	106265	0	0	8110	807287	0	0
2024-04-15 02:20:32			0	33032	0	0	0	17267	15970	158113	27180	949892	36904	106263	0	0	8109	807905	0	0
2024-04-15 02:21:32			0	33015	0	0	0	17244	15970	158221	27118	949883	36914	106254	0	0	8109	808793	0	0
2024-04-15 02:22:32			0	33008	0	0	0	17231	15980	158141	27164	949847	36915	106249	0	0	8109	809116	0	0
2024-04-15 02:23:32			0	33005	0	0	0	17231	15970	158249	27012	949813	36925	106249	0	0	8108	809316	0	0
2024-04-15 02:24:32			0	33002	0	0	0	17264	15960	158241	27150	949867	36891	106262	0	0	8108	809517	0	0
2024-04-15 02:25:32			0	33001	0	0	0	17275	15960	158209	26937	949788	36891	106266	0	0	8107	809569	0	0
2024-04-15 02:26:32			0	33004	0	0	0	17316	15950	158301	27379	949885	36914	106282	0	0	8107	809456	0	0
2024-04-15 02:27:32			0	33029	0	0	0	17345	15960	158269	27038	949954	36903	106293	0	0	8108	808105	0	0
2024-04-15 02:28:32			0	33044	0	0	0	17355	15970	158189	27426	949997	36904	106297	0	0	8109	807278	0	0
2024-04-15 02:29:32			0	33064	0	0	0	17363	15980	157993	27121	950039	36916	106300	0	0	8110	806191	0	0
2024-04-15 02:30:32			0	33094	0	0	0	17366	15980	157729	27533	950005	36915	106301	0	0	8112	804627	0	0
2024-04-15 02:31:32			0	33143	0	0	0	17371	15990	157581	27301	950029	36916	106303	0	0	8115	802036	0	0
2024-04-15 02:32:32			0	33168	0	0	0	17374	15990	157421	27246	950056	36906	106304	0	0	8116	800738	0	0
2024-04-15 02:33:32			0	33206	0	0	0	17371	16000	157245	27338	950098	36917	106303	0	0	8118	798726	0	0
2024-04-15 02:34:32			0	33230	0	0	0	17381	16010	157225	27460	950133	36907	106307	0	0	8120	797442	0	0
2024-04-15 02:35:32			0	33253	0	0	0	17374	16010	157033	27469	950115	36907	106304	0	0	8121	796254	0	0
2024-04-15 02:36:32			0	33292	0	0	0	17384	16010	156945	27123	950141	36929	106308	0	0	8123	794243	0	0
2024-04-15 02:37:32			0	33305	0	0	0	17379	16010	156805	27180	950106	36929	106306	0	0	8124	793573	0	0
2024-04-15 02:38:32			0	33341	0	0	0	17371	16020	156761	27355	950149	36908	106303	0	0	8127	791679	0	0
2024-04-15 02:39:32			0	33363	0	0	0	17368	16020	156597	27346	950175	36908	106302	0	0	8128	790549	0	0
2024-04-15 02:40:32			0	33380	0	0	0	17363	16020	156473	27130	950175	36908	106300	0	0	8129	789677	0	0
2024-04-15 02:41:32			0	33399	0	0	0	17379	16020	156345	27367	950131	36918	106306	0	0	8130	788704	0	0
2024-04-15 02:42:32			0	33390	0	0	0	17428	16030	156265	27055	950165	36919	106325	0	0	8129	789122	0	0
2024-04-15 02:43:32			0	33408	0	0	0	17418	16040	156285	27111	950234	36931	106321	0	0	8130	788158	0	0
2024-04-15 02:44:32			0	33418	0	0	0	17368	16040	156261	27239	950268	36931	106302	0	0	8131	787646	0	0
2024-04-15 02:45:32			0	33420	0	0	0	17376	16030	156341	27066	950226	36919	106305	0	0	8131	787586	0	0
2024-04-15 02:46:32			0	33418	0	0	0	17386	16040	156225	27365	950260	36931	106309	0	0	8131	787646	0	0
2024-04-15 02:47:32			0	33425	0	0	0	17386	16030	156149	26946	950226	36930	106309	0	0	8131	787330	0	0
2024-04-15 02:48:32			0	33425	0	0	0	17394	16050	156129	27270	950277	36943	106312	0	0	8131	787245	0	0
2024-04-15 02:49:32			0	33426	0	0	0	17381	16040	156209	27039	950268	36920	106307	0	0	8132	787237	0	0
2024-04-15 02:50:32			0	33443	0	0	0	17379	16040	156133	27566	950234	36931	106306	0	0	8133	786368	0	0
2024-04-15 02:51:32			0	33481	0	0	0	17379	16050	156149	27242	950224	36932	106306	0	0	8135	784386	0	0
2024-04-15 02:52:32			0	33505	0	0	0	17366	16050	155933	27260	950198	36921	106301	0	0	8137	783163	0	0
2024-04-15 02:53:32			0	33475	0	0	0	17366	16040	155961	27220	950189	36910	106301	0	0	8135	784734	0	0
2024-04-15 02:54:32			0	33482	0	0	0	17363	16040	155981	27448	950189	36931	106300	0	0	8135	784377	0	0
2024-04-15 02:55:32			0	33468	0	0	0	17355	16050	156013	27564	950171	36921	106297	0	0	8135	785049	0	0
2024-04-15 02:56:32			0	33450	0	0	0	17358	16040	156073	27216	950155	36920	106298	0	0	8133	786010	0	0
2024-04-15 02:57:32			0	33430	0	0	0	17366	16030	156249	27384	950147	36930	106301	0	0	8132	787075	0	0
2024-04-15 02:58:32			0	33434	0	0	0	17366	16040	156149	27144	950189	36920	106301	0	0	8132	786828	0	0
2024-04-15 02:59:32			0	33418	0	0	0	17366	16040	156149	27571	950155	36920	106301	0	0	8131	787646	0	0
2024-04-15 03:00:32			0	33421	0	0	0	17358	16020	156325	27223	950131	36918	106298	0	0	8132	787577	0	0
2024-04-15 03:01:32			0	33411	0	0	0	17358	16030	156249	27190	950086	36930	106298	0	0	8131	788047	0	0
2024-04-15 03:02:32			0	33412	0	0	0	17355	16030	156149	27215	950147	36930	106297	0	0	8131	787996	0	0
2024-04-15 03:03:32			0	33442	0	0	0	17355	16040	156201	27208	950208	36920	106297	0	0	8133	786419	0	0
2024-04-15 03:04:32			0	33456	0	0	0	17358	16040	156237	27124	950155	36920	106298	0	0	8134	785704	0	0
2024-04-15 03:05:32			0	33434	0	0	0	17361	16030	156185	27433	950113	36919	106299	0	0	8132	786870	0	0
2024-04-15 03:06:32			0	33442	0	0	0	17355	16030	156209	27294	950139	36919	106297	0	0	8133	786461	0	0
2024-04-15 03:07:32			0	33450	0	0	0	17366	16030	156117	27145	950226	36930	106301	0	0	8133	786053	0	0
2024-04-15 03:08:32			0	33458	0	0	0	17358	16030	156153	27260	950113	36930	106298	0	0	8134	785644	0	0
2024-04-15 03:09:32			0	33449	0	0	0	17350	16020	156089	27374	950149	36918	106295	0	0	8133	786146	0	0
2024-04-15 03:10:32			0	33463	0	0	0	17345	16030	156049	27336	950200	36919	106293	0	0	8134	785389	0	0
2024-04-15 03:11:32			0	33440	0	0	0	17345	16030	156053	27001	950173	36919	106293	0	0	8133	786564	0	0
2024-04-15 03:12:32			0	33430	0	0	0	17350	16020	156273	27455	950157	36930	106295	0	0	8132	787117	0	0
2024-04-15 03:13:32			0	33409	0	0	0	17345	16020	156369	27300	950131	36908	106293	0	0	8131	788192	0	0
2024-04-15 03:14:32			0	33385	0	0	0	17335	16030	156417	27168	950139	36919	106289	0	0	8130	789379	0	0
2024-04-15 03:15:32			0	33362	0	0	0	17332	16020	156473	27260	950078	36918	106288	0	0	8128	790601	0	0
2024-04-15 03:16:32			0	33350	0	0	0	17327	16020	156573	27358	950044	36918	106286	0	0	8128	791217	0	0
2024-04-15 03:17:32			0	33361	0	0	0	17324	16020	156585	27130	950070	36918	106285	0	0	8129	790652	0	0
2024-04-15 03:18:32			0	33317	0	0	0	17324	16010	156733	27074	950036	36918	106285	0	0	8126	792956	0	0
2024-04-15 03:19:32			0	33319	0	0	0	17324	16010	156893	26904	950062	36929	106285	0	0	8126	792853	0	0
2024-04-15 03:20:32			0	33291	0	0	0	17322	16020	156913	27173	950104	36918	106284	0	0	8124	794252	0	0
2024-04-15 03:21:32			0	33300	0	0	0	17293	16000	156925	27256	950098	36928	106273	0	0	8125	793874	0	0
2024-04-15 03:22:32			0	33295	0	0	0	17277	16020	156937	27267	949991	36918	106267	0	0	8125	794046	0	0
2024-04-15 03:23:32			0	33289	0	0	0	17280	16000	156973	27239	949993	36917	106268	0	0	8125	794440	0	0
2024-04-15 03:24:32			0	33278	0	0	0	17283	16000	157001	27429	949958	36916	106269	0	0	8124	795007	0	0
2024-04-15 03:25:32			0	33268	0	0	0	17267	15990	157033	27239	949898	36916	106263	0	0	8124	795566	0	0
2024-04-15 03:26:32			0	33278	0	0	0	17264	15980	156981	26994	949908	36905	106262	0	0	8124	795093	0	0
2024-04-15 03:27:32			0	33256	0	0	0	17272	15980	157017	27130	949926	36915	106265	0	0	8123	796228	0	0
2024-04-15 03:28:32			0	33272	0	0	0	17306	15970	156885	27074	949883	36903	106278	0	0	8123	795445	0	0
2024-04-15 03:29:32			0	33279	0	0	0	17314	15970	156941	26857	949971	36925	106281	0	0	8124	795084	0	0
2024-04-15 03:30:32			0	33279	0	0	0	17327	15970	156981	27275	949918	36937	106286	0	0	8123	795084	0	0
2024-04-15 03:31:32			0	33282	0	0	0	17423	15970	157049	27098	950023	36925	106323	0	0	8122	794930	0	0
2024-04-15 03:32:32			0	33292	0	0	0	17483	16000	157077	27135	950195	36927	106346	0	0	8122	794286	0	0
2024-04-15 03:33:32			0	33315	0	0	0	17425	16010	156877	27724	950246	36940	106324	0	0	8124	793059	0	0
2024-04-15 03:34:32			0	33379	0	0	0	17384	16010	156613	27454	950273	36940	106308	0	0	8129	789771	0	0
2024-04-15 03:35:32			0	33397	0	0	0	17381	16020	156421	27235	950210	36930	106307	0	0	8130	788806	0	0
2024-04-15 03:36:32			0	33436	0	0	0	17457	16030	156253	27159	950331	36942	106336	0	0	8131	786768	0	0
2024-04-15 03:37:32			0	33464	0	0	0	17503	16040	156157	27352	950418	36931	106354	0	0	8132	785295	0	0
2024-04-15 03:38:32			0	33492	0	0	0	17490	16050	155977	27123	950356	36954	106349	0	0	8134	783825	0	0
2024-04-15 03:39:32			0	33516	0	0	0	17493	16060	155957	27455	950459	36933	106350	0	0	8135	782560	0	0
2024-04-15 03:40:32			0	33550	0	0	0	17480	16080	155769	27291	950457	36946	106345	0	0	8137	780747	0	0
2024-04-15 03:41:32			0	33604	0	0	0	17472	16080	155474	27246	950536	36957	106342	0	0	8141	778008	0	0
2024-04-15 03:42:32			0	33638	0	0	0	17475	16090	155286	27027	950578	36946	106343	0	0	8143	776245	0	0
2024-04-15 03:43:32			0	33645	0	0	0	17467	16080	155146	27206	950518	36946	106340	0	0	8143	775933	0	0
2024-04-15 03:44:32			0	33695	0	0	0	17480	16090	155026	27116	950508	36936	106345	0	0	8146	773368	0	0
2024-04-15 03:45:32			0	33709	0	0	0	17464	16100	154938	27294	950516	36947	106339	0	0	8147	772621	0	0
2024-04-15 03:46:32			0	33727	0	0	0	17454	16090	154838	27417	950481	36947	106335	0	0	8148	771756	0	0
2024-04-15 03:47:32			0	33768	0	0	0	17459	16100	154750	27428	950418	36948	106337	0	0	8151	769653	0	0
2024-04-15 03:48:32			0	33752	0	0	0	17449	16100	154690	27440	950471	36948	106333	0	0	8150	770457	0	0
2024-04-15 03:49:32			0	33774	0	0	0	17451	16090	154622	27175	950420	36946	106334	0	0	8151	769394	0	0
2024-04-15 03:50:32			0	33777	0	0	0	17457	16100	154502	27466	950445	36948	106336	0	0	8151	769201	0	0
2024-04-15 03:51:32			0	33777	0	0	0	17446	16090	154606	27476	950473	36958	106332	0	0	8151	769243	0	0
2024-04-15 03:52:32			0	33785	0	0	0	17438	16090	154470	27395	950402	36936	106329	0	0	8152	768841	0	0
2024-04-15 03:53:32			0	33781	0	0	0	17449	16100	154558	27300	950489	36936	106333	0	0	8152	769001	0	0
2024-04-15 03:54:32			0	33802	0	0	0	17446	16110	154382	27325	950453	36948	106332	0	0	8153	767906	0	0
2024-04-15 03:55:32			0	33799	0	0	0	17441	16090	154450	27223	950455	36936	106330	0	0	8153	768139	0	0
2024-04-15 03:56:32			0	33813	0	0	0	17433	16100	154462	27029	950524	36948	106327	0	0	8154	767396	0	0
2024-04-15 03:57:32			0	33818	0	0	0	17441	16090	154542	27547	950455	36958	106330	0	0	8154	767187	0	0
2024-04-15 03:58:32			0	33800	0	0	0	17436	16090	154438	27474	950455	36947	106328	0	0	8153	768089	0	0
2024-04-15 03:59:32			0	33812	0	0	0	17436	16100	154442	27282	950524	36948	106328	0	0	8154	767446	0	0
2024-04-15 04:00:32			0	33796	0	0	0	17444	16090	154502	27319	950455	36947	106331	0	0	8153	768290	0	0
2024-04-15 04:01:32			0	33803	0	0	0	17444	16100	154410	27362	950497	36969	106331	0	0	8153	767897	0	0
2024-04-15 04:02:32			0	33816	0	0	0	17444	16100	154374	27492	950463	36947	106331	0	0	8154	767246	0	0
2024-04-15 04:03:32			0	33815	0	0	0	17449	16100	154490	27445	950445	36937	106333	0	0	8154	767296	0	0
2024-04-15 04:04:32			0	33827	0	0	0	17454	16100	154334	27159	950437	36936	106335	0	0	8154	766695	0	0
2024-04-15 04:05:32			0	33825	0	0	0	17457	16110	154358	26991	950479	36948	106336	0	0	8154	766754	0	0
2024-04-15 04:06:32			0	33828	0	0	0	17475	16100	154282	26991	950603	36948	106343	0	0	8154	766645	0	0
2024-04-15 04:07:32			0	33818	0	0	0	17459	16100	154370	27498	950524	36948	106337	0	0	8154	767146	0	0
2024-04-15 04:08:32			0	33830	0	0	0	17475	16120	154438	27595	950583	36950	106343	0	0	8154	766462	0	0
2024-04-15 04:09:32			0	33819	0	0	0	17498	16120	154418	27358	950601	36938	106352	0	0	8153	767013	0	0
2024-04-15 04:10:32			0	33817	0	0	0	17501	16120	154526	27064	950601	36949	106353	0	0	8153	767113	0	0
2024-04-15 04:11:32			0	33807	0	0	0	17516	16120	154538	27204	950574	36949	106359	0	0	8152	767614	0	0
2024-04-15 04:12:32			0	33800	0	0	0	17522	16120	154466	27239	950627	36959	106361	0	0	8152	767965	0	0
2024-04-15 04:13:32			0	33777	0	0	0	17527	16120	154578	27159	950662	36960	106363	0	0	8150	769118	0	0
2024-04-15 04:14:32			0	33769	0	0	0	17532	16130	154662	27230	950731	36950	106365	0	0	8150	769478	0	0
2024-04-15 04:15:32			0	33755	0	0	0	17535	16150	154822	27222	950702	36952	106366	0	0	8149	770098	0	0
2024-04-15 04:16:32			0	33738	0	0	0	17524	16150	154838	26998	950710	36952	106362	0	0	8148	770953	0	0
2024-04-15 04:17:32			0	33742	0	0	0	17522	16150	154902	27176	950781	36962	106361	0	0	8148	770752	0	0
2024-04-15 04:18:32			0	33726	0	0	0	17522	16150	154870	27383	950729	36962	106361	0	0	8147	771556	0	0
2024-04-15 04:19:32			0	33716	0	0	0	17527	16150	154962	27180	950763	36962	106363	0	0	8147	772060	0	0
2024-04-15 04:20:32			0	33689	0	0	0	17540	16160	154958	27237	950718	36962	106368	0	0	8145	773378	0	0
2024-04-15 04:21:32			0	33675	0	0	0	17527	16170	155038	27227	950806	36953	106363	0	0	8144	774042	0	0
2024-04-15 04:22:32			0	33631	0	0	0	17522	16170	155218	27147	950806	36953	106361	0	0	8142	776264	0	0
2024-04-15 04:23:32			0	33630	0	0	0	17516	16170	155358	27012	950753	36963	106359	0	0	8142	776315	0	0
2024-04-15 04:24:32			0	33599	0	0	0	17511	16170	155382	27095	950779	36963	106357	0	0	8140	777883	0	0
2024-04-15 04:25:32			0	33582	0	0	0	17503	16170	155626	27170	950726	36942	106354	0	0	8139	778745	0	0
2024-04-15 04:26:32			0	33565	0	0	0	17506	16170	155669	26922	950761	36964	106355	0	0	8138	779607	0	0
2024-04-15 04:27:32			0	33536	0	0	0	17501	16170	155661	27471	950779	36963	106353	0	0	8137	781079	0	0
2024-04-15 04:28:32			0	33508	0	0	0	17529	16160	155821	27249	950824	36962	106364	0	0	8135	782545	0	0
2024-04-15 04:29:32			0	33485	0	0	0	17519	16160	155885	27270	950824	36952	106360	0	0	8133	783716	0	0
2024-04-15 04:30:32			0	33482	0	0	0	17524	16150	155937	27488	950763	36962	106362	0	0	8133	783912	0	0
2024-04-15 04:31:32			0	33478	0	0	0	17514	16170	155937	27511	950814	36954	106358	0	0	8133	784031	0	0
2024-04-15 04:32:32			0	33464	0	0	0	17519	16170	156109	27228	950735	36975	106360	0	0	8132	784744	0	0
2024-04-15 04:33:32			0	33466	0	0	0	17524	16170	156053	27374	950806	36963	106362	0	0	8132	784642	0	0
2024-04-15 04:34:32			0	33455	0	0	0	17514	16170	156113	27324	950787	36964	106358	0	0	8132	785204	0	0
2024-04-15 04:35:32			0	33462	0	0	0	17506	16170	156097	27410	950840	36954	106355	0	0	8132	784846	0	0
2024-04-15 04:36:32			0	33441	0	0	0	17503	16170	156169	27071	950814	36954	106354	0	0	8131	785918	0	0
2024-04-15 04:37:32			0	33406	0	0	0	17511	16170	156289	27156	950814	36964	106357	0	0	8129	787707	0	0
2024-04-15 04:38:32			0	33363	0	0	0	17514	16170	156429	27390	950753	36974	106358	0	0	8126	789910	0	0
2024-04-15 04:39:32			0	33353	0	0	0	17514	16170	156541	27308	950726	36974	106358	0	0	8126	790423	0	0
2024-04-15 04:40:32			0	33344	0	0	0	17496	16180	156593	27209	950795	36975	106351	0	0	8125	790842	0	0
2024-04-15 04:41:32			0	33341	0	0	0	17490	16170	156737	26970	950761	36964	106349	0	0	8125	791038	0	0
2024-04-15 04:42:32			0	33318	0	0	0	17490	16160	156765	27334	950718	36962	106349	0	0	8124	792263	0	0
2024-04-15 04:43:32			0	33300	0	0	0	17488	16170	156997	27157	950779	36974	106348	0	0	8123	793146	0	0
2024-04-15 04:44:32			0	33272	0	0	0	17490	16170	157093	27296	950735	36964	106349	0	0	8121	794587	0	0
2024-04-15 04:45:32			0	33241	0	0	0	17485	16170	157081	27274	950779	36953	106347	0	0	8119	796186	0	0
2024-04-15 04:46:32			0	33230	0	0	0	17496	16170	157173	27189	950708	36964	106351	0	0	8119	796754	0	0
2024-04-15 04:47:32			0	33213	0	0	0	17514	16170	157233	27533	950787	36964	106358	0	0	8117	797632	0	0
2024-04-15 04:48:32			0	33231	0	0	0	17509	16160	157201	27017	950745	36973	106356	0	0	8118	796745	0	0
2024-04-15 04:49:32			0	33254	0	0	0	17506	16150	157065	27454	950763	36952	106355	0	0	8120	795601	0	0
2024-04-15 04:50:32			0	33289	0	0	0	17506	16170	156893	27060	950761	36964	106355	0	0	8122	793712	0	0
2024-04-15 04:51:32			0	33320	0	0	0	17503	16160	156753	27005	950797	36962	106354	0	0	8124	792160	0	0
2024-04-15 04:52:32			0	33348	0	0	0	17519	16170	156553	27076	950761	36975	106360	0	0	8125	790679	0	0
2024-04-15 04:53:32			0	33371	0	0	0	17501	16170	156485	27281	950753	36974	106353	0	0	8127	789500	0	0
2024-04-15 04:54:32			0	33379	0	0	0	17506	16160	156397	27324	950745	36952	106355	0	0	8127	789132	0	0
2024-04-15 04:55:32			0	33395	0	0	0	17496	16150	156461	27183	950710	36973	106351	0	0	8128	788355	0	0
2024-04-15 04:56:32			0	33377	0	0	0	17506	16170	156461	27239	950779	36963	106355	0	0	8127	789192	0	0
2024-04-15 04:57:32			0	33357	0	0	0	17511	16170	156585	27104	950761	36975	106357	0	0	8126	790217	0	0
2024-04-15 04:58:32			0	33364	0	0	0	17498	16160	156549	26875	950745	36962	106352	0	0	8126	789901	0	0
2024-04-15 04:59:32			0	33351	0	0	0	17501	16160	156669	26970	950718	36962	106353	0	0	8126	790568	0	0
2024-04-15 05:00:32			0	33344	0	0	0	17506	16160	156589	27062	950745	36973	106355	0	0	8125	790927	0	0
2024-04-15 05:01:32			0	33344	0	0	0	17493	16170	156713	26968	950726	36974	106350	0	0	8125	790884	0	0
2024-04-15 05:02:32			0	33335	0	0	0	17501	16170	156733	27043	950726	36963	106353	0	0	8125	791347	0	0
2024-04-15 05:03:32			0	33340	0	0	0	17490	16150	156745	27301	950737	36973	106349	0	0	8125	791175	0	0
2024-04-15 05:04:32			0	33333	0	0	0	17490	16170	156701	27249	950787	36931	106349	0	0	8125	791449	0	0
2024-04-15 05:05:32			0	33341	0	0	0	17490	16150	156801	27072	950710	36962	106349	0	0	8125	791124	0	0
2024-04-15 05:06:32			0	33332	0	0	0	17488	16150	156549	27163	950737	36962	106348	0	0	8125	791586	0	0
2024-04-15 05:07:32			0	33348	0	0	0	17464	16160	156553	27357	950718	36962	106339	0	0	8126	790722	0	0
2024-04-15 05:08:32			0	33366	0	0	0	17464	16150	156481	27182	950737	36962	106339	0	0	8127	789841	0	0
2024-04-15 05:09:32			0	33377	0	0	0	17470	16150	156457	27105	950710	36962	106341	0	0	8128	789277	0	0
2024-04-15 05:10:32			0	33397	0	0	0	17462	16140	156405	27287	950668	36951	106338	0	0	8129	788296	0	0
2024-04-15 05:11:32			0	33424	0	0	0	17462	16140	156261	27369	950668	36951	106338	0	0	8131	786914	0	0
2024-04-15 05:12:32			0	33459	0	0	0	17464	16150	156145	27020	950676	36962	106339	0	0	8133	785084	0	0
2024-04-15 05:13:32			0	33445	0	0	0	17480	16140	156045	27046	950660	36950	106345	0	0	8132	785841	0	0
2024-04-15 05:14:32			0	33471	0	0	0	17480	16140	156013	27305	950668	36973	106345	0	0	8133	784515	0	0
2024-04-15 05:15:32			0	33457	0	0	0	17470	16140	156013	26849	950615	36951	106341	0	0	8132	785229	0	0
2024-04-15 05:16:32			0	33468	0	0	0	17477	16140	156069	27029	950607	36961	106344	0	0	8133	784668	0	0
2024-04-15 05:17:32			0	33465	0	0	0	17477	16140	156069	27324	950694	36961	106344	0	0	8133	784821	0	0
2024-04-15 05:18:32			0	33455	0	0	0	17475	16140	156085	27135	950660	36939	106343	0	0	8132	785331	0	0
2024-04-15 05:19:32			0	33474	0	0	0	17472	16140	156097	27377	950633	36961	106342	0	0	8133	784362	0	0
2024-04-15 05:20:32			0	33451	0	0	0	17462	16140	156057	27114	950668	36973	106338	0	0	8132	785535	0	0
2024-04-15 05:21:32			0	33461	0	0	0	17467	16140	156121	27332	950712	36961	106340	0	0	8133	785025	0	0
2024-04-15 05:22:32			0	33463	0	0	0	17470	16130	156229	27305	950652	36961	106341	0	0	8133	784965	0	0
2024-04-15 05:23:32			0	33446	0	0	0	17483	16130	156181	26961	950678	36972	106346	0	0	8131	785833	0	0
2024-04-15 05:24:32			0	33446	0	0	0	17472	16130	156225	27379	950643	36950	106342	0	0	8132	785833	0	0
2024-04-15 05:25:32			0	33458	0	0	0	17480	16140	156209	27211	950686	36961	106345	0	0	8132	785178	0	0
2024-04-15 05:26:32			0	33440	0	0	0	17483	16130	156333	27426	950652	36950	106346	0	0	8131	786139	0	0
2024-04-15 05:27:32			0	33427	0	0	0	17485	16130	156301	27130	950678	36961	106347	0	0	8130	786803	0	0
2024-04-15 05:28:32			0	33431	0	0	0	17483	16140	156349	27171	950694	36973	106346	0	0	8131	786556	0	0
2024-04-15 05:29:32			0	33407	0	0	0	17498	16140	156425	27324	950633	36972	106352	0	0	8129	787784	0	0
2024-04-15 05:30:32			0	33380	0	0	0	17485	16140	156373	27246	950694	36951	106347	0	0	8128	789166	0	0
2024-04-15 05:31:32			0	33366	0	0	0	17498	16130	156537	27296	950678	36983	106352	0	0	8126	789926	0	0
2024-04-15 05:32:32			0	33345	0	0	0	17498	16140	156497	27372	950686	36961	106352	0	0	8125	790961	0	0
2024-04-15 05:33:32			0	33359	0	0	0	17501	16130	156661	26984	950678	36961	106353	0	0	8126	790286	0	0
2024-04-15 05:34:32			0	33348	0	0	0	17496	16140	156625	27150	950694	36951	106351	0	0	8125	790807	0	0
2024-04-15 05:35:32			0	33352	0	0	0	17485	16140	156573	27279	950694	36951	106347	0	0	8126	790602	0	0
2024-04-15 05:36:32			0	33369	0	0	0	17467	16140	156593	27161	950660	36961	106340	0	0	8127	789730	0	0
2024-04-15 05:37:32			0	33367	0	0	0	17470	16140	156393	27121	950686	36961	106341	0	0	8127	789833	0	0
2024-04-15 05:38:32			0	33385	0	0	0	17472	16140	156389	27003	950694	36951	106342	0	0	8128	788910	0	0
2024-04-15 05:39:32			0	33373	0	0	0	17485	16130	156485	27355	950625	36961	106347	0	0	8127	789568	0	0
2024-04-15 05:40:32			0	33361	0	0	0	17483	16140	156481	27020	950633	36961	106346	0	0	8126	790140	0	0
2024-04-15 05:41:32			0	33363	0	0	0	17488	16140	156505	27338	950686	36983	106348	0	0	8126	790038	0	0
2024-04-15 05:42:32			0	33366	0	0	0	17485	16130	156593	27081	950678	36950	106347	0	0	8127	789926	0	0
2024-04-15 05:43:32			0	33337	0	0	0	17493	16130	156657	26882	950625	36961	106350	0	0	8125	791415	0	0
2024-04-15 05:44:32			0	33322	0	0	0	17488	16140	156745	27357	950694	36961	106348	0	0	8124	792143	0	0
2024-04-15 05:45:32			0	33279	0	0	0	17490	16140	156925	27052	950747	36973	106349	0	0	8121	794355	0	0
2024-04-15 05:46:32			0	33284	0	0	0	17472	16130	156973	27059	950704	36961	106342	0	0	8122	794141	0	0
2024-04-15 05:47:32			0	33269	0	0	0	17472	16140	156993	27131	950686	36972	106342	0	0	8121	794871	0	0
2024-04-15 05:48:32			0	33280	0	0	0	17470	16140	157073	27130	950633	36972	106341	0	0	8122	794304	0	0
2024-04-15 05:49:32			0	33257	0	0	0	17467	16140	157137	27421	950633	36972	106340	0	0	8121	795489	0	0
2024-04-15 05:50:32			0	33258	0	0	0	17467	16140	157097	27092	950686	36950	106340	0	0	8121	795438	0	0
2024-04-15 05:51:32			0	33251	0	0	0	17475	16140	157005	27286	950633	36961	106343	0	0	8120	795799	0	0
2024-04-15 05:52:32			0	33253	0	0	0	17470	16130	157037	27287	950643	36971	106341	0	0	8120	795739	0	0
2024-04-15 05:53:32			0	33282	0	0	0	17467	16130	157001	26982	950625	36972	106340	0	0	8122	794244	0	0
2024-04-15 05:54:32			0	33249	0	0	0	17464	16130	157089	27090	950670	36960	106339	0	0	8120	795945	0	0
2024-04-15 05:55:32			0	33274	0	0	0	17475	16120	157081	27305	950688	36971	106343	0	0	8121	794699	0	0
2024-04-15 05:56:32			0	33268	0	0	0	17470	16130	157041	27334	950678	36961	106341	0	0	8121	794965	0	0
2024-04-15 05:57:32			0	33256	0	0	0	17470	16140	156993	27196	950686	36950	106341	0	0	8120	795541	0	0
2024-04-15 05:58:32			0	33256	0	0	0	17472	16130	157153	26987	950599	36972	106342	0	0	8120	795584	0	0
2024-04-15 05:59:32			0	33251	0	0	0	17462	16140	157065	27041	950660	36961	106338	0	0	8120	795799	0	0
2024-04-15 06:00:32			0	33246	0	0	0	17464	16130	157089	26868	950678	36950	106339	0	0	8120	796100	0	0
2024-04-15 06:01:32			0	33246	0	0	0	17464	16130	157197	26915	950617	36960	106339	0	0	8120	796100	0	0
2024-04-15 06:02:32			0	33224	0	0	0	17464	16130	157193	27180	950678	36961	106339	0	0	8119	797236	0	0
2024-04-15 06:03:32			0	33228	0	0	0	17462	16130	157197	27171	950643	36971	106338	0	0	8119	797029	0	0
2024-04-15 06:04:32			0	33237	0	0	0	17459	16130	157217	26870	950643	36971	106337	0	0	8119	796564	0	0
2024-04-15 06:05:32			0	33223	0	0	0	17464	16130	157301	27137	950643	36982	106339	0	0	8118	797288	0	0
2024-04-15 06:06:32			0	33213	0	0	0	17454	16130	157281	27345	950625	36961	106335	0	0	8118	797804	0	0
2024-04-15 06:07:32			0	33224	0	0	0	17464	16120	157353	27100	950653	36959	106339	0	0	8118	797279	0	0
2024-04-15 06:08:32			0	33189	0	0	0	17464	16120	157393	27355	950635	36950	106339	0	0	8116	799089	0	0
2024-04-15 06:09:32			0	33179	0	0	0	17449	16130	157461	27180	950670	36950	106333	0	0	8116	799564	0	0
2024-04-15 06:10:32			0	33175	0	0	0	17470	16130	157497	27293	950670	36960	106341	0	0	8115	799771	0	0
2024-04-15 06:11:32			0	33152	0	0	0	17464	16120	157625	26989	950635	36960	106339	0	0	8114	801006	0	0
2024-04-15 06:12:32			0	33151	0	0	0	17470	16120	157621	27142	950627	36949	106341	0	0	8114	801058	0	0
2024-04-15 06:13:32			0	33143	0	0	0	17475	16120	157561	27355	950601	36959	106343	0	0	8113	801473	0	0
2024-04-15 06:14:32			0	33143	0	0	0	17472	16130	157765	27410	950696	36971	106342	0	0	8114	801430	0	0
2024-04-15 06:15:32			0	33157	0	0	0	17475	16130	157581	26923	950670	36971	106343	0	0	8114	800704	0	0
2024-04-15 06:16:32			0	33181	0	0	0	17467	16130	157581	27005	950678	36961	106340	0	0	8116	799460	0	0
2024-04-15 06:17:32			0	33201	0	0	0	17472	16120	157421	27177	950635	36982	106342	0	0	8117	798468	0	0
2024-04-15 06:18:32			0	33239	0	0	0	17477	16130	157233	26897	950678	36961	106344	0	0	8119	796461	0	0
2024-04-15 06:19:32			0	33285	0	0	0	17475	16130	157053	27239	950696	36950	106343	0	0	8122	794089	0	0
2024-04-15 06:20:32			0	33307	0	0	0	17483	16130	156921	26977	950723	36960	106346	0	0	8123	792957	0	0
2024-04-15 06:21:32			0	33367	0	0	0	17477	16130	156677	26982	950670	36960	106344	0	0	8127	789875	0	0
2024-04-15 06:22:32			0	33391	0	0	0	17467	16140	156465	27232	950712	36972	106340	0	0	8129	788603	0	0
2024-04-15 06:23:32			0	33427	0	0	0	17470	16120	156237	27128	950714	36971	106341	0	0	8131	786846	0	0
2024-04-15 06:24:32			0	33460	0	0	0	17470	16130	156153	27022	950643	36960	106341	0	0	8133	785118	0	0
2024-04-15 06:25:32			0	33474	0	0	0	17467	16130	156033	26890	950678	36961	106340	0	0	8133	784404	0	0
2024-04-15 06:26:32			0	33500	0	0	0	17462	16130	155933	27128	950643	36971	106338	0	0	8135	783079	0	0
2024-04-15 06:27:32			0	33550	0	0	0	17472	16130	155829	27315	950696	36982	106342	0	0	8138	780537	0	0
2024-04-15 06:28:32			0	33570	0	0	0	17470	16120	155725	27033	950583	36971	106341	0	0	8139	779564	0	0
2024-04-15 06:29:32			0	33592	0	0	0	17470	16130	155494	27121	950652	36961	106341	0	0	8140	778406	0	0
2024-04-15 06:30:32			0	33608	0	0	0	17467	16130	155422	26930	950643	36960	106340	0	0	8141	777595	0	0
2024-04-15 06:31:32			0	33631	0	0	0	17470	16130	155470	26918	950723	36960	106341	0	0	8143	776432	0	0
2024-04-15 06:32:32			0	33633	0	0	0	17467	16130	155366	26915	950723	36960	106340	0	0	8143	776331	0	0
2024-04-15 06:33:32			0	33666	0	0	0	17464	16130	155214	26996	950696	36950	106339	0	0	8145	774663	0	0
2024-04-15 06:34:32			0	33675	0	0	0	17462	16130	155094	27189	950723	36971	106338	0	0	8145	774209	0	0
2024-04-15 06:35:32			0	33676	0	0	0	17467	16130	155254	27338	950643	36960	106340	0	0	8145	774159	0	0
2024-04-15 06:36:32			0	33682	0	0	0	17459	16120	155198	27277	950653	36981	106337	0	0	8146	773898	0	0
2024-04-15 06:37:32			0	33664	0	0	0	17457	16130	155206	27057	950670	36960	106336	0	0	8145	774764	0	0
2024-04-15 06:38:32			0	33670	0	0	0	17457	16130	155246	27310	950670	36971	106336	0	0	8145	774462	0	0
2024-04-15 06:39:32			0	33642	0	0	0	17454	16120	155378	26778	950627	36970	106335	0	0	8144	775918	0	0
2024-04-15 06:40:32			0	33626	0	0	0	17459	16130	155474	27112	950670	36971	106337	0	0	8143	776685	0	0
2024-04-15 06:41:32			0	33616	0	0	0	17459	16130	155474	27201	950670	36960	106337	0	0	8142	777190	0	0
2024-04-15 06:42:32			0	33589	0	0	0	17454	16120	155614	26797	950662	36971	106335	0	0	8140	778600	0	0
2024-04-15 06:43:32			0	33575	0	0	0	17457	16130	155641	27022	950696	36960	106336	0	0	8140	779268	0	0
2024-04-15 06:44:32			0	33561	0	0	0	17457	16120	155669	27251	950574	36981	106336	0	0	8139	780020	0	0
2024-04-15 06:45:32			0	33564	0	0	0	17446	16120	155705	27088	950583	36971	106332	0	0	8139	779868	0	0
2024-04-15 06:46:32			0	33561	0	0	0	17457	16130	155685	27199	950617	36960	106336	0	0	8139	779978	0	0
2024-04-15 06:47:32			0	33569	0	0	0	17446	16110	155705	26845	950566	36970	106332	0	0	8139	779656	0	0
2024-04-15 06:48:32			0	33561	0	0	0	17454	16110	155661	27170	950645	36959	106335	0	0	8139	780062	0	0
2024-04-15 06:49:32			0	33555	0	0	0	17457	16110	155781	27327	950593	36959	106336	0	0	8138	780367	0	0
2024-04-15 06:50:32			0	33553	0	0	0	17451	16110	155729	27256	950619	36970	106334	0	0	8138	780468	0	0
2024-04-15 06:51:32			0	33559	0	0	0	17454	16100	155881	27315	950621	36958	106335	0	0	8139	780206	0	0
2024-04-15 06:52:32			0	33563	0	0	0	17451	16110	155742	27232	950584	36969	106334	0	0	8139	779961	0	0
2024-04-15 06:53:32			0	33578	0	0	0	17449	16110	155754	26904	950645	36970	106333	0	0	8140	779200	0	0
2024-04-15 06:54:32			0	33571	0	0	0	17431	16100	155846	27189	950542	36958	106326	0	0	8140	779597	0	0
2024-04-15 06:55:32			0	33550	0	0	0	17433	16100	155745	27396	950568	36947	106327	0	0	8138	780663	0	0
2024-04-15 06:56:32			0	33545	0	0	0	17428	16100	155825	26878	950621	36958	106325	0	0	8138	780917	0	0
2024-04-15 06:57:32			0	33556	0	0	0	17410	16110	155817	27293	950619	36959	106318	0	0	8139	780316	0	0
2024-04-15 06:58:32			0	33538	0	0	0	17418	16100	155853	27320	950516	36958	106321	0	0	8138	781273	0	0
2024-04-15 06:59:32			0	33532	0	0	0	17405	16100	155933	27293	950542	36947	106316	0	0	8138	781578	0	0
2024-04-15 07:00:32			0	33532	0	0	0	17423	16090	155933	27357	950534	36958	106323	0	0	8137	781620	0	0
2024-04-15 07:01:32			0	33491	0	0	0	17410	16100	156037	27348	950489	36968	106318	0	0	8135	783664	0	0
2024-04-15 07:02:32			0	33500	0	0	0	17418	16090	156037	27213	950534	36958	106321	0	0	8136	783248	0	0
2024-04-15 07:03:32			0	33475	0	0	0	17420	16070	156109	27319	950475	36957	106322	0	0	8134	784607	0	0
2024-04-15 07:04:32			0	33471	0	0	0	17423	16080	156309	26972	950510	36957	106323	0	0	8134	784769	0	0
2024-04-15 07:05:32			0	33456	0	0	0	17407	16090	156249	27467	950526	36979	106317	0	0	8133	785492	0	0
2024-04-15 07:06:32			0	33444	0	0	0	17418	16090	156277	27230	950526	36968	106321	0	0	8132	786104	0	0
2024-04-15 07:07:32			0	33430	0	0	0	17418	16080	156361	27183	950483	36967	106321	0	0	8131	786862	0	0
2024-04-15 07:08:32			0	33427	0	0	0	17415	16080	156469	27431	950518	36968	106320	0	0	8131	787016	0	0
2024-04-15 07:09:32			0	33433	0	0	0	17412	16080	156529	27137	950465	36958	106319	0	0	8132	786709	0	0
2024-04-15 07:10:32			0	33400	0	0	0	17407	16070	156489	27386	950414	36966	106317	0	0	8130	788440	0	0
2024-04-15 07:11:32			0	33399	0	0	0	17402	16080	156573	27493	950491	36968	106315	0	0	8130	788449	0	0
2024-04-15 07:12:32			0	33395	0	0	0	17399	16080	156581	27303	950457	36957	106314	0	0	8130	788653	0	0
2024-04-15 07:13:32			0	33381	0	0	0	17399	16080	156657	27277	950483	36967	106314	0	0	8129	789371	0	0
2024-04-15 07:14:32			0	33389	0	0	0	17402	16070	156633	27334	950414	36956	106315	0	0	8129	789003	0	0
2024-04-15 07:15:32			0	33369	0	0	0	17410	16070	156681	27467	950449	36957	106318	0	0	8128	790028	0	0
2024-04-15 07:16:32			0	33357	0	0	0	17415	16080	156761	27033	950431	36967	106320	0	0	8127	790602	0	0
2024-04-15 07:17:32			0	33371	0	0	0	17410	16070	156741	27253	950467	36966	106318	0	0	8128	789926	0	0
2024-04-15 07:18:32			0	33371	0	0	0	17407	16060	156681	27396	950512	36976	106317	0	0	8128	789969	0	0
2024-04-15 07:19:32			0	33372	0	0	0	17418	16070	156657	27523	950449	36946	106321	0	0	8128	789874	0	0
2024-04-15 07:20:32			0	33355	0	0	0	17433	16070	156629	27268	950475	36967	106327	0	0	8127	790747	0	0
2024-04-15 07:21:32			0	33375	0	0	0	17423	16070	156697	27492	950449	36967	106323	0	0	8128	789721	0	0
2024-04-15 07:22:32			0	33377	0	0	0	17412	16060	156677	27263	950433	36965	106319	0	0	8128	789661	0	0
2024-04-15 07:23:32			0	33376	0	0	0	17423	16070	156689	27185	950422	36957	106323	0	0	8128	789669	0	0
2024-04-15 07:24:32			0	33368	0	0	0	17412	16070	156585	27121	950441	36966	106319	0	0	8128	790080	0	0
2024-04-15 07:25:32			0	33374	0	0	0	17412	16070	156721	27260	950441	36966	106319	0	0	8128	789772	0	0
2024-04-15 07:26:32			0	33369	0	0	0	17392	16060	156757	27208	950380	36965	106311	0	0	8128	790071	0	0
2024-04-15 07:27:32			0	33348	0	0	0	17392	16070	156681	27438	950414	36966	106311	0	0	8127	791106	0	0
2024-04-15 07:28:32			0	33357	0	0	0	17389	16060	156773	27384	950398	36965	106310	0	0	8127	790687	0	0
2024-04-15 07:29:32			0	33366	0	0	0	17394	16050	156757	27614	950416	36964	106312	0	0	8128	790268	0	0
2024-04-15 07:30:32			0	33383	0	0	0	17418	16070	156645	27614	950493	36966	106321	0	0	8129	789311	0	0
2024-04-15 07:31:32			0	33416	0	0	0	17438	16060	156629	27597	950485	36965	106329	0	0	8130	787663	0	0
2024-04-15 07:32:32			0	33448	0	0	0	17415	16070	156393	27460	950493	36977	106320	0	0	8132	785985	0	0
2024-04-15 07:33:32			0	33488	0	0	0	17444	16080	156241	27320	950536	36957	106331	0	0	8134	783902	0	0
2024-04-15 07:34:32			0	33498	0	0	0	17446	16080	156029	27360	950544	36958	106332	0	0	8135	783392	0	0
2024-04-15 07:35:32			0	33509	0	0	0	17446	16090	156005	27194	950578	36968	106332	0	0	8136	782790	0	0
2024-04-15 07:36:32			0	33532	0	0	0	17480	16100	155973	27237	950674	36980	106345	0	0	8136	781578	0	0
2024-04-15 07:37:32			0	33530	0	0	0	17503	16100	156025	27625	950761	36992	106354	0	0	8136	781679	0	0
2024-04-15 07:38:32			0	33535	0	0	0	17540	16110	156009	27528	950777	36992	106368	0	0	8136	781383	0	0
2024-04-15 07:39:32			0	33515	0	0	0	17553	16120	156005	27441	950811	36970	106373	0	0	8134	782358	0	0
2024-04-15 07:40:32			0	33494	0	0	0	17561	16120	156137	27377	950846	36982	106376	0	0	8133	783427	0	0
2024-04-15 07:41:32			0	33502	0	0	0	17563	16140	156189	27535	950950	36983	106377	0	0	8133	782935	0	0
2024-04-15 07:42:32			0	33495	0	0	0	17597	16150	156205	27331	950947	37006	106390	0	0	8133	783249	0	0
2024-04-15 07:43:32			0	33498	0	0	0	17623	16170	156305	27663	951016	36996	106400	0	0	8132	783012	0	0
2024-04-15 07:44:32			0	33466	0	0	0	17599	16180	156321	27635	951112	36997	106391	0	0	8131	784600	0	0
2024-04-15 07:45:32			0	33466	0	0	0	17589	16200	156281	27346	951039	37000	106387	0	0	8131	784515	0	0
2024-04-15 07:46:32			0	33447	0	0	0	17597	16190	156329	27607	951030	36999	106390	0	0	8130	785527	0	0
2024-04-15 07:47:32			0	33426	0	0	0	17612	16210	156357	27556	951055	37010	106396	0	0	8128	786515	0	0
2024-04-15 07:48:32			0	33434	0	0	0	17615	16210	156461	27490	951160	36989	106397	0	0	8129	786106	0	0
2024-04-15 07:49:32			0	33404	0	0	0	17649	16230	156605	27722	951324	37000	106410	0	0	8127	787554	0	0
2024-04-15 07:50:32			0	33389	0	0	0	17659	16220	156521	27395	951264	36990	106414	0	0	8126	788365	0	0
2024-04-15 07:51:32			0	33389	0	0	0	17651	16220	156541	27760	951211	37012	106411	0	0	8126	788365	0	0
2024-04-15 07:52:32			0	33376	0	0	0	17628	16240	156645	27736	951261	37002	106402	0	0	8125	788945	0	0
2024-04-15 07:53:32			0	33379	0	0	0	17636	16240	156537	28043	951209	37013	106405	0	0	8125	788791	0	0
2024-04-15 07:54:32			0	33398	0	0	0	17631	16240	156477	27835	951296	37002	106403	0	0	8127	787819	0	0
2024-04-15 07:55:32			0	33390	0	0	0	17633	16250	156573	27788	951339	37014	106404	0	0	8126	788186	0	0
2024-04-15 07:56:32			0	33405	0	0	0	17618	16260	156501	27691	951329	36994	106398	0	0	8127	787376	0	0
2024-04-15 07:57:32			0	33420	0	0	0	17623	16260	156453	27301	951276	37004	106400	0	0	8128	786609	0	0
2024-04-15 07:58:32			0	33415	0	0	0	17633	16260	156405	27476	951302	37004	106404	0	0	8128	786864	0	0
2024-04-15 07:59:32			0	33410	0	0	0	17625	16270	156381	27713	951363	36994	106401	0	0	8128	787077	0	0
2024-04-15 08:00:32			0	33422	0	0	0	17620	16270	156345	27708	951363	36994	106399	0	0	8128	786464	0	0
2024-04-15 08:01:32			0	33422	0	0	0	17628	16270	156293	27621	951337	36983	106402	0	0	8128	786464	0	0
2024-04-15 08:02:32			0	33449	0	0	0	17649	16270	156309	27904	951318	36994	106410	0	0	8130	785086	0	0
2024-04-15 08:03:32			0	33429	0	0	0	17651	16260	156265	28036	951355	37004	106411	0	0	8128	786149	0	0
2024-04-15 08:04:32			0	33445	0	0	0	17667	16280	156321	27777	951440	37006	106417	0	0	8129	785247	0	0
2024-04-15 08:05:32			0	33471	0	0	0	17680	16300	156145	27751	951438	37018	106422	0	0	8130	783837	0	0
2024-04-15 08:06:32			0	33483	0	0	0	17685	16300	156093	27987	951438	37029	106424	0	0	8131	783226	0	0
2024-04-15 08:07:32			0	33493	0	0	0	17693	16300	156093	27755	951438	37007	106427	0	0	8132	782717	0	0
2024-04-15 08:08:32			0	33515	0	0	0	17680	16300	155949	28069	951446	37019	106422	0	0	8133	781598	0	0
2024-04-15 08:09:32			0	33523	0	0	0	17701	16310	155893	27982	951586	37008	106430	0	0	8133	781149	0	0
2024-04-15 08:10:32			0	33538	0	0	0	17693	16310	155753	28195	951541	37030	106427	0	0	8134	780387	0	0
2024-04-15 08:11:32			0	33539	0	0	0	17685	16320	155673	28032	951550	36998	106424	0	0	8134	780294	0	0
2024-04-15 08:12:32			0	33572	0	0	0	17688	16320	155673	27878	951558	37009	106425	0	0	8136	778621	0	0
2024-04-15 08:13:32			0	33566	0	0	0	17696	16330	155582	27779	951618	37021	106428	0	0	8136	778882	0	0
2024-04-15 08:14:32			0	33573	0	0	0	17706	16330	155597	28025	951574	37010	106432	0	0	8136	778528	0	0
2024-04-15 08:15:32			0	33577	0	0	0	17709	16330	155626	27861	951600	37000	106433	0	0	8136	778325	0	0
2024-04-15 08:16:32			0	33596	0	0	0	17711	16330	155574	27710	951600	37010	106434	0	0	8137	777363	0	0
2024-04-15 08:17:32			0	33585	0	0	0	17714	16340	155538	28058	951643	37011	106435	0	0	8137	777878	0	0
2024-04-15 08:18:32			0	33576	0	0	0	17724	16340	155554	28011	951695	37033	106439	0	0	8136	778334	0	0
2024-04-15 08:19:32			0	33573	0	0	0	17724	16350	155550	27973	951677	37012	106439	0	0	8136	778443	0	0
2024-04-15 08:20:32			0	33601	0	0	0	17714	16350	155610	27920	951712	37023	106435	0	0	8138	777026	0	0
2024-04-15 08:21:32			0	33598	0	0	0	17727	16360	155474	27984	951720	37023	106440	0	0	8137	777136	0	0
2024-04-15 08:22:32			0	33614	0	0	0	17724	16360	155458	27996	951728	37013	106439	0	0	8138	776327	0	0
2024-04-15 08:23:32			0	33607	0	0	0	17737	16360	155478	27803	951754	37013	106444	0	0	8138	776681	0	0
2024-04-15 08:24:32			0	33615	0	0	0	17732	16360	155518	27711	951754	37013	106442	0	0	8138	776276	0	0
2024-04-15 08:25:32			0	33606	0	0	0	17729	16360	155482	27831	951781	37024	106441	0	0	8138	776731	0	0
2024-04-15 08:26:32			0	33611	0	0	0	17709	16360	155418	27822	951728	37024	106433	0	0	8139	776478	0	0
2024-04-15 08:27:32			0	33594	0	0	0	17685	16370	155386	27576	951710	37025	106424	0	0	8138	777296	0	0
2024-04-15 08:28:32			0	33617	0	0	0	17711	16380	155466	27450	951761	37003	106434	0	0	8139	776091	0	0
2024-04-15 08:29:32			0	33604	0	0	0	17706	16370	155378	27557	951683	37013	106432	0	0	8138	776790	0	0
2024-04-15 08:30:32			0	33617	0	0	0	17709	16370	155438	27419	951692	37036	106433	0	0	8139	776133	0	0
2024-04-15 08:31:32			0	33613	0	0	0	17709	16360	155310	27770	951728	37013	106433	0	0	8139	776377	0	0
2024-04-15 08:32:32			0	33621	0	0	0	17701	16370	155374	27571	951815	37025	106430	0	0	8139	775931	0	0
2024-04-15 08:33:32			0	33615	0	0	0	17685	16380	155318	27549	951734	37025	106424	0	0	8139	776192	0	0
2024-04-15 08:34:32			0	33628	0	0	0	17685	16370	155350	27578	951692	37002	106424	0	0	8140	775577	0	0
2024-04-15 08:35:32			0	33613	0	0	0	17706	16380	155422	27481	951752	37013	106432	0	0	8139	776293	0	0
2024-04-15 08:36:32			0	33614	0	0	0	17706	16370	155342	27469	951771	37036	106432	0	0	8139	776285	0	0
2024-04-15 08:37:32			0	33619	0	0	0	17693	16380	155402	27431	951761	37014	106427	0	0	8139	775990	0	0
2024-04-15 08:38:32			0	33635	0	0	0	17683	16370	155358	27803	951692	37025	106423	0	0	8140	775224	0	0
2024-04-15 08:39:32			0	33634	0	0	0	17675	16380	155318	27518	951726	37025	106420	0	0	8141	775232	0	0
2024-04-15 08:40:32			0	33628	0	0	0	17667	16360	155318	27899	951649	37013	106417	0	0	8140	775619	0	0
2024-04-15 08:41:32			0	33647	0	0	0	17667	16370	155294	27485	951604	37025	106417	0	0	8141	774618	0	0
2024-04-15 08:42:32			0	33664	0	0	0	17688	16360	155298	27549	951675	37024	106425	0	0	8142	773802	0	0
2024-04-15 08:43:32			0	33633	0	0	0	17685	16370	155374	27923	951683	37013	106424	0	0	8140	775325	0	0
2024-04-15 08:44:32			0	33631	0	0	0	17680	16360	155254	27536	951693	37023	106422	0	0	8140	775468	0	0
2024-04-15 08:45:32			0	33644	0	0	0	17706	16370	155302	27479	951718	37013	106432	0	0	8141	774769	0	0
2024-04-15 08:46:32			0	33637	0	0	0	17719	16370	155322	27670	951692	37013	106437	0	0	8140	775123	0	0
2024-04-15 08:47:32			0	33656	0	0	0	17732	16370	155290	27784	951692	37013	106442	0	0	8141	774164	0	0
2024-04-15 08:48:32			0	33643	0	0	0	17732	16370	155362	27438	951771	37025	106442	0	0	8140	774820	0	0
2024-04-15 08:49:32			0	33639	0	0	0	17735	16380	155370	27400	951761	37036	106443	0	0	8140	774980	0	0
2024-04-15 08:50:32			0	33635	0	0	0	17763	16390	155286	27500	951769	37026	106454	0	0	8139	775140	0	0
2024-04-15 08:51:32			0	33627	0	0	0	17740	16380	155294	27270	951813	37036	106445	0	0	8139	775586	0	0
2024-04-15 08:52:32			0	33624	0	0	0	17745	16390	155414	27628	951909	37027	106447	0	0	8139	775695	0	0
2024-04-15 08:53:32			0	33625	0	0	0	17740	16390	155402	27701	951821	37015	106445	0	0	8139	775645	0	0
2024-04-15 08:54:32			0	33615	0	0	0	17763	16390	155434	27556	951856	37038	106454	0	0	8138	776150	0	0
2024-04-15 08:55:32			0	33604	0	0	0	17755	16390	155406	27209	951874	37026	106451	0	0	8137	776706	0	0
2024-04-15 08:56:32			0	33611	0	0	0	17742	16400	155318	27490	951898	37016	106446	0	0	8138	776310	0	0
2024-04-15 08:57:32			0	33615	0	0	0	17737	16400	155402	27156	951838	37027	106444	0	0	8138	776108	0	0
2024-04-15 08:58:32			0	33608	0	0	0	17735	16390	155486	27339	951856	37038	106443	0	0	8138	776504	0	0
2024-04-15 08:59:32			0	33616	0	0	0	17750	16390	155434	27216	951856	37027	106449	0	0	8138	776100	0	0
2024-04-15 09:00:32			0	33618	0	0	0	17748	16400	155410	27357	951846	37027	106448	0	0	8138	775957	0	0
2024-04-15 09:01:32			0	33629	0	0	0	17727	16400	155350	27485	951864	37027	106440	0	0	8139	775401	0	0
2024-04-15 09:02:32			0	33630	0	0	0	17703	16400	155390	27298	951819	37038	106431	0	0	8140	775350	0	0
2024-04-15 09:03:32			0	33630	0	0	0	17701	16390	155370	27407	951769	37015	106430	0	0	8140	775392	0	0
2024-04-15 09:04:32			0	33620	0	0	0	17690	16390	155334	27573	951856	37016	106426	0	0	8140	775898	0	0
2024-04-15 09:05:32			0	33632	0	0	0	17693	16390	155390	27417	951821	37015	106427	0	0	8140	775291	0	0
2024-04-15 09:06:32			0	33615	0	0	0	17688	16380	155382	27388	951681	37025	106425	0	0	8139	776192	0	0
2024-04-15 09:07:32			0	33624	0	0	0	17688	16380	155374	27345	951708	37003	106425	0	0	8140	775737	0	0
2024-04-15 09:08:32			0	33620	0	0	0	17664	16380	155342	27256	951708	37014	106416	0	0	8140	775940	0	0
2024-04-15 09:09:32			0	33627	0	0	0	17644	16370	155318	27338	951683	37013	106408	0	0	8141	775628	0	0
2024-04-15 09:10:32			0	33631	0	0	0	17641	16370	155274	27462	951710	37013	106407	0	0	8141	775426	0	0
2024-04-15 09:11:32			0	33647	0	0	0	17636	16360	155278	27345	951614	37023	106405	0	0	8142	774660	0	0
2024-04-15 09:12:32			0	33633	0	0	0	17646	16360	155254	27842	951667	37012	106409	0	0	8141	775367	0	0
2024-04-15 09:13:32			0	33640	0	0	0	17623	16350	155302	27358	951598	37023	106400	0	0	8142	775055	0	0
2024-04-15 09:14:32			0	33645	0	0	0	17610	16350	155334	27426	951553	37012	106395	0	0	8142	774803	0	0
2024-04-15 09:15:32			0	33634	0	0	0	17607	16340	155330	27403	951537	37000	106394	0	0	8142	775400	0	0
2024-04-15 09:16:32			0	33645	0	0	0	17589	16330	155338	27507	951416	37010	106387	0	0	8142	774886	0	0
2024-04-15 09:17:32			0	33641	0	0	0	17589	16330	155338	27310	951495	37000	106387	0	0	8142	775088	0	0
2024-04-15 09:18:32			0	33628	0	0	0	17581	16320	155342	27454	951426	37009	106384	0	0	8142	775787	0	0
2024-04-15 09:19:32			0	33639	0	0	0	17584	16320	155374	27604	951452	37009	106385	0	0	8142	775231	0	0
2024-04-15 09:20:32			0	33654	0	0	0	17587	16310	155370	27341	951428	37008	106386	0	0	8143	774516	0	0
2024-04-15 09:21:32			0	33647	0	0	0	17581	16310	155326	27388	951454	36998	106384	0	0	8143	774869	0	0
2024-04-15 09:22:32			0	33635	0	0	0	17579	16300	155302	27353	951393	36998	106383	0	0	8142	775517	0	0
2024-04-15 09:23:32			0	33649	0	0	0	17579	16300	155282	27679	951367	37008	106383	0	0	8143	774810	0	0
2024-04-15 09:24:32			0	33661	0	0	0	17558	16280	155266	27405	951282	37006	106375	0	0	8144	774288	0	0
2024-04-15 09:25:32			0	33648	0	0	0	17568	16280	155198	27300	951308	37017	106379	0	0	8143	774945	0	0
2024-04-15 09:26:32			0	33661	0	0	0	17558	16280	155222	27538	951327	36995	106375	0	0	8144	774288	0	0
2024-04-15 09:27:32			0	33676	0	0	0	17545	16270	155150	27476	951266	37004	106370	0	0	8145	773574	0	0
2024-04-15 09:28:32			0	33685	0	0	0	17548	16270	155158	27352	951284	36994	106371	0	0	8145	773120	0	0
2024-04-15 09:29:32			0	33690	0	0	0	17532	16270	155146	27322	951231	37004	106365	0	0	8146	772868	0	0
2024-04-15 09:30:32			0	33688	0	0	0	17537	16250	155162	27422	951260	37003	106367	0	0	8145	773052	0	0
2024-04-15 09:31:32			0	33686	0	0	0	17540	16250	155142	27424	951181	36993	106368	0	0	8145	773153	0	0
2024-04-15 09:32:32			0	33696	0	0	0	17540	16240	155102	27145	951191	37002	106368	0	0	8146	772691	0	0
2024-04-15 09:33:32			0	33705	0	0	0	17529	16240	155066	27239	951111	36992	106364	0	0	8147	772238	0	0
2024-04-15 09:34:32			0	33726	0	0	0	17537	16240	155010	27469	951182	37002	106367	0	0	8148	771181	0	0
2024-04-15 09:35:32			0	33702	0	0	0	17524	16230	155082	27341	951201	36991	106362	0	0	8146	772431	0	0
2024-04-15 09:36:32			0	33689	0	0	0	17519	16230	155082	27281	951122	36991	106360	0	0	8146	773086	0	0
2024-04-15 09:37:32			0	33727	0	0	0	17519	16230	155010	27324	951166	36979	106360	0	0	8148	771173	0	0
2024-04-15 09:38:32			0	33715	0	0	0	17514	16220	155062	27438	951053	37012	106358	0	0	8147	771818	0	0
2024-04-15 09:39:32			0	33729	0	0	0	17516	16210	154878	27441	951037	36989	106359	0	0	8148	771155	0	0
2024-04-15 09:40:32			0	33716	0	0	0	17524	16210	155022	27301	951134	37000	106362	0	0	8147	771809	0	0
2024-04-15 09:41:32			0	33722	0	0	0	17514	16210	155006	27422	951028	36989	106358	0	0	8148	771508	0	0
2024-04-15 09:42:32			0	33725	0	0	0	17516	16200	154922	27523	951047	36989	106359	0	0	8148	771398	0	0
2024-04-15 09:43:32			0	33728	0	0	0	17522	16200	154974	27369	951012	37010	106361	0	0	8148	771247	0	0
2024-04-15 09:44:32			0	33737	0	0	0	17522	16200	154938	27362	951118	36989	106361	0	0	8148	770795	0	0
2024-04-15 09:45:32			0	33743	0	0	0	17524	16200	154958	27507	951099	36989	106362	0	0	8149	770493	0	0
2024-04-15 09:46:32			0	33757	0	0	0	17524	16210	154874	27658	951089	36989	106362	0	0	8150	769748	0	0
2024-04-15 09:47:32			0	33746	0	0	0	17527	16200	154874	27467	951047	37010	106363	0	0	8149	770343	0	0
2024-04-15 09:48:32			0	33752	0	0	0	17529	16210	154886	27689	951108	37000	106364	0	0	8149	770000	0	0
2024-04-15 09:49:32			0	33750	0	0	0	17532	16210	154914	27312	951028	37000	106365	0	0	8149	770100	0	0
2024-04-15 09:50:32			0	33744	0	0	0	17527	16200	154882	27225	951039	37000	106363	0	0	8149	770443	0	0
2024-04-15 09:51:32			0	33764	0	0	0	17522	16210	154854	27507	951108	36989	106361	0	0	8150	769397	0	0
2024-04-15 09:52:32			0	33751	0	0	0	17519	16200	154926	27748	951065	36989	106360	0	0	8149	770091	0	0
2024-04-15 09:53:32			0	33762	0	0	0	17514	16200	154926	27358	951012	37000	106358	0	0	8150	769539	0	0
2024-04-15 09:54:32			0	33768	0	0	0	17519	16190	154906	27545	951004	36999	106360	0	0	8150	769279	0	0
2024-04-15 09:55:32			0	33778	0	0	0	17524	16200	154782	27637	951091	37000	106362	0	0	8151	768736	0	0
2024-04-15 09:56:32			0	33766	0	0	0	17522	16190	154806	27434	951030	37009	106361	0	0	8150	769380	0	0
2024-04-15 09:57:32			0	33775	0	0	0	17514	16190	154850	27571	951075	36998	106358	0	0	8151	768928	0	0
2024-04-15 09:58:32			0	33787	0	0	0	17519	16190	154794	27493	950978	36999	106360	0	0	8151	768326	0	0
2024-04-15 09:59:32			0	33780	0	0	0	17524	16190	154766	27666	950970	36987	106362	0	0	8151	768677	0	0
2024-04-15 10:00:32			0	33795	0	0	0	17514	16190	154774	27286	951004	36999	106358	0	0	8152	767925	0	0
2024-04-15 10:01:32			0	33779	0	0	0	17516	16190	154806	27580	951004	36988	106359	0	0	8151	768727	0	0
2024-04-15 10:02:32			0	33783	0	0	0	17514	16200	154794	27495	951039	37010	106358	0	0	8151	768485	0	0
2024-04-15 10:03:32			0	33783	0	0	0	17519	16180	154734	27286	950988	36998	106360	0	0	8151	768568	0	0
2024-04-15 10:04:32			0	33792	0	0	0	17522	16190	154722	27630	951049	37008	106361	0	0	8152	768076	0	0
2024-04-15 10:05:32			0	33787	0	0	0	17522	16190	154722	27391	951030	36988	106361	0	0	8151	768326	0	0
2024-04-15 10:06:32			0	33795	0	0	0	17522	16190	154702	27312	950978	36999	106361	0	0	8152	767925	0	0
2024-04-15 10:07:32			0	33810	0	0	0	17516	16190	154706	27724	951030	36999	106359	0	0	8153	767174	0	0
2024-04-15 10:08:32			0	33800	0	0	0	17522	16190	154674	27381	951101	36998	106361	0	0	8152	767675	0	0
2024-04-15 10:09:32			0	33816	0	0	0	17529	16190	154622	27412	951030	36999	106364	0	0	8153	766873	0	0
2024-04-15 10:10:32			0	33795	0	0	0	17532	16190	154706	27488	951083	36999	106365	0	0	8152	767925	0	0
2024-04-15 10:11:32			0	33802	0	0	0	17532	16180	154786	27306	951093	36987	106365	0	0	8152	767616	0	0
2024-04-15 10:12:32			0	33821	0	0	0	17545	16190	154870	27244	951101	36998	106370	0	0	8153	766623	0	0
2024-04-15 10:13:32			0	33825	0	0	0	17535	16200	154618	27431	951118	37010	106366	0	0	8153	766381	0	0
2024-04-15 10:14:32			0	33819	0	0	0	17542	16200	154626	27407	951144	37010	106369	0	0	8153	766681	0	0
2024-04-15 10:15:32			0	33840	0	0	0	17540	16190	154594	27703	951110	36999	106368	0	0	8154	765672	0	0
2024-04-15 10:16:32			0	33818	0	0	0	17542	16190	154570	27691	951110	37009	106369	0	0	8153	766773	0	0
2024-04-15 10:17:32			0	33832	0	0	0	17548	16200	154550	27559	951144	37010	106371	0	0	8153	766031	0	0
2024-04-15 10:18:32			0	33838	0	0	0	17548	16200	154506	27419	951020	37000	106371	0	0	8154	765731	0	0
2024-04-15 10:19:32			0	33839	0	0	0	17558	16200	154570	27383	951126	37000	106375	0	0	8154	765681	0	0
2024-04-15 10:20:32			0	33833	0	0	0	17553	16200	154554	27352	951126	37000	106373	0	0	8153	765981	0	0
2024-04-15 10:21:32			0	33840	0	0	0	17561	16210	154558	27331	951187	37010	106376	0	0	8154	765590	0	0
2024-04-15 10:22:32			0	33847	0	0	0	17563	16200	154446	27944	951144	37010	106377	0	0	8154	765281	0	0
2024-04-15 10:23:32			0	33849	0	0	0	17555	16200	154426	27500	951152	37000	106374	0	0	8154	765181	0	0
2024-04-15 10:24:32			0	33844	0	0	0	17558	16200	154466	27758	951152	37000	106375	0	0	8154	765431	0	0
2024-04-15 10:25:32			0	33858	0	0	0	17558	16210	154298	27540	951108	37000	106375	0	0	8155	764690	0	0
2024-04-15 10:26:32			0	33875	0	0	0	17568	16210	154394	27944	951213	37000	106379	0	0	8156	763841	0	0
2024-04-15 10:27:32			0	33847	0	0	0	17566	16210	154370	28005	951221	36989	106378	0	0	8154	765240	0	0
2024-04-15 10:28:32			0	33869	0	0	0	17568	16210	154290	27914	951134	37021	106379	0	0	8155	764141	0	0
2024-04-15 10:29:32			0	33870	0	0	0	17571	16220	154386	27930	951176	37012	106380	0	0	8155	764050	0	0
2024-04-15 10:30:32			0	33875	0	0	0	17571	16210	154322	27445	951195	37011	106380	0	0	8156	763841	0	0
2024-04-15 10:31:32			0	33881	0	0	0	17571	16210	154334	27502	951213	37021	106380	0	0	8156	763542	0	0
2024-04-15 10:32:32			0	33883	0	0	0	17571	16210	154234	27746	951195	37000	106380	0	0	8156	763442	0	0
2024-04-15 10:33:32			0	33895	0	0	0	17568	16220	154198	27914	951255	37000	106379	0	0	8157	762802	0	0
2024-04-15 10:34:32			0	33887	0	0	0	17550	16210	154194	27999	951221	37022	106372	0	0	8157	763242	0	0
2024-04-15 10:35:32			0	33918	0	0	0	17550	16220	154158	27734	951184	37000	106372	0	0	8159	761656	0	0
2024-04-15 10:36:32			0	33908	0	0	0	17542	16220	154198	27580	951150	37012	106369	0	0	8158	762154	0	0
2024-04-15 10:37:32			0	33921	0	0	0	17542	16220	154206	27722	951176	37000	106369	0	0	8159	761507	0	0
2024-04-15 10:38:32			0	33907	0	0	0	17540	16220	154122	27940	951176	37012	106368	0	0	8158	762204	0	0
2024-04-15 10:39:32			0	33923	0	0	0	17532	16210	154146	27326	951168	37000	106365	0	0	8159	761449	0	0
2024-04-15 10:40:32			0	33919	0	0	0	17540	16210	154122	27514	951142	37000	106368	0	0	8159	761648	0	0
2024-04-15 10:41:32			0	33930	0	0	0	17535	16210	154198	27909	951055	37010	106366	0	0	8159	761100	0	0
2024-04-15 10:42:32			0	33926	0	0	0	17529	16200	154138	27649	951099	37010	106364	0	0	8159	761340	0	0
2024-04-15 10:43:32			0	33924	0	0	0	17527	16210	154162	27514	951134	37010	106363	0	0	8159	761399	0	0
2024-04-15 10:44:32			0	33901	0	0	0	17527	16200	154154	27979	951065	37021	106363	0	0	8158	762586	0	0
2024-04-15 10:45:32			0	33907	0	0	0	17524	16200	154218	27769	951126	37010	106362	0	0	8158	762287	0	0
2024-04-15 10:46:32			0	33893	0	0	0	17522	16200	154306	27647	951047	37000	106361	0	0	8157	762984	0	0
2024-04-15 10:47:32			0	33909	0	0	0	17532	16200	154258	28119	951012	37010	106365	0	0	8158	762187	0	0
2024-04-15 10:48:32			0	33911	0	0	0	17527	16210	154166	27724	951055	37010	106363	0	0	8158	762046	0	0
2024-04-15 10:49:32			0	33902	0	0	0	17535	16200	154194	27743	951126	37000	106366	0	0	8158	762536	0	0
2024-04-15 10:50:32			0	33906	0	0	0	17537	16190	154242	27932	951110	37009	106367	0	0	8158	762378	0	0
2024-04-15 10:51:32			0	33894	0	0	0	17548	16200	154194	27935	951126	37010	106371	0	0	8157	762935	0	0
2024-04-15 10:52:32			0	33887	0	0	0	17558	16210	154250	27660	951142	37000	106375	0	0	8157	763242	0	0
2024-04-15 10:53:32			0	33891	0	0	0	17561	16210	154434	27659	951168	37000	106376	0	0	8157	763043	0	0
2024-04-15 10:54:32			0	33911	0	0	0	17555	16210	154354	27357	951160	37021	106374	0	0	8158	762046	0	0
2024-04-15 10:55:32			0	33919	0	0	0	17558	16210	154322	27621	951213	37010	106375	0	0	8158	761648	0	0
2024-04-15 10:56:32			0	33897	0	0	0	17548	16210	154238	27959	951187	37021	106371	0	0	8157	762744	0	0
2024-04-15 10:57:32			0	33894	0	0	0	17542	16210	154294	27911	951213	37010	106369	0	0	8157	762893	0	0
2024-04-15 10:58:32			0	33902	0	0	0	17561	16210	154406	27360	951195	37011	106376	0	0	8157	762495	0	0
2024-04-15 10:59:32			0	33932	0	0	0	17550	16210	154302	27566	951239	37010	106372	0	0	8159	761001	0	0
2024-04-15 11:00:32			0	33901	0	0	0	17553	16220	154282	27757	951237	37023	106373	0	0	8158	762503	0	0
2024-04-15 11:01:32			0	33909	0	0	0	17558	16210	154258	27814	951195	37011	106375	0	0	8158	762146	0	0
2024-04-15 11:02:32			0	33915	0	0	0	17553	16210	154174	27661	951221	37011	106373	0	0	8158	761847	0	0
2024-04-15 11:03:32			0	33915	0	0	0	17571	16210	154230	27614	951195	37011	106380	0	0	8158	761847	0	0
2024-04-15 11:04:32			0	33917	0	0	0	17581	16220	154242	27769	951237	37000	106384	0	0	8158	761706	0	0
2024-04-15 11:05:32			0	33937	0	0	0	17592	16210	154066	27649	951221	37011	106388	0	0	8159	760752	0	0
2024-04-15 11:06:32			0	33938	0	0	0	17602	16220	154118	27798	951264	37012	106392	0	0	8159	760661	0	0
2024-04-15 11:07:32			0	33952	0	0	0	17610	16240	153942	27656	951341	37013	106395	0	0	8160	759883	0	0
2024-04-15 11:08:32			0	33959	0	0	0	17584	16240	154034	27294	951314	37013	106385	0	0	8160	759535	0	0
2024-04-15 11:09:32			0	33966	0	0	0	17587	16240	154014	27587	951322	37013	106386	0	0	8161	759187	0	0
2024-04-15 11:10:32			0	33956	0	0	0	17576	16240	154042	27826	951296	37024	106382	0	0	8160	759684	0	0
2024-04-15 11:11:32			0	33948	0	0	0	17605	16240	154010	27743	951322	37013	106393	0	0	8159	760082	0	0
2024-04-15 11:12:32			0	33955	0	0	0	17618	16250	153978	27729	951383	37013	106398	0	0	8160	759693	0	0
2024-04-15 11:13:32			0	33957	0	0	0	17625	16250	154078	27807	951410	37013	106401	0	0	8160	759593	0	0
2024-04-15 11:14:32			0	33961	0	0	0	17633	16250	154050	27647	951383	37024	106404	0	0	8160	759395	0	0
2024-04-15 11:15:32			0	33971	0	0	0	17633	16250	153938	27711	951391	37036	106404	0	0	8160	758898	0	0
2024-04-15 11:16:32			0	33956	0	0	0	17633	16260	153950	27632	951408	37016	106404	0	0	8160	759602	0	0
2024-04-15 11:17:32			0	33958	0	0	0	17633	16260	154014	27835	951373	37015	106404	0	0	8160	759503	0	0
2024-04-15 11:18:32			0	33983	0	0	0	17628	16270	153966	27640	951442	37027	106402	0	0	8161	758221	0	0
2024-04-15 11:19:32			0	33967	0	0	0	17628	16280	154066	27760	951458	37039	106402	0	0	8160	758974	0	0
2024-04-15 11:20:32			0	33938	0	0	0	17620	16270	154006	27724	951416	37016	106399	0	0	8159	760456	0	0
2024-04-15 11:21:32			0	33966	0	0	0	17641	16270	154046	27760	951503	37027	106407	0	0	8160	759064	0	0
2024-04-15 11:22:32			0	33931	0	0	0	17646	16280	154118	27590	951493	37017	106409	0	0	8158	760763	0	0
2024-04-15 11:23:32			0	33960	0	0	0	17664	16290	153950	27909	951554	37039	106416	0	0	8159	759280	0	0
2024-04-15 11:24:32			0	33933	0	0	0	17670	16290	154190	27992	951562	37028	106418	0	0	8158	760622	0	0
2024-04-15 11:25:32			0	33932	0	0	0	17685	16290	154126	27788	951562	37039	106424	0	0	8157	760672	0	0
2024-04-15 11:26:32			0	33930	0	0	0	17683	16300	154102	27727	951631	37030	106423	0	0	8157	760730	0	0
2024-04-15 11:27:32			0	33939	0	0	0	17688	16310	154214	27653	951665	37030	106425	0	0	8158	760242	0	0
2024-04-15 11:28:32			0	33924	0	0	0	17688	16310	154090	27668	951691	37019	106425	0	0	8157	760988	0	0
2024-04-15 11:29:32			0	33935	0	0	0	17688	16320	154002	27538	951716	37042	106425	0	0	8158	760399	0	0
2024-04-15 11:30:32			0	33949	0	0	0	17703	16320	153938	27720	951689	37032	106431	0	0	8158	759703	0	0
2024-04-15 11:31:32			0	33960	0	0	0	17716	16320	153918	27916	951742	37032	106436	0	0	8159	759157	0	0
2024-04-15 11:32:32			0	33973	0	0	0	17742	16340	153902	27601	951793	37054	106446	0	0	8159	758430	0	0
2024-04-15 11:33:32			0	33975	0	0	0	17742	16340	153858	28010	951827	37043	106446	0	0	8159	758331	0	0
2024-04-15 11:34:32			0	33981	0	0	0	17779	16360	153898	27987	951799	37044	106460	0	0	8159	757951	0	0
2024-04-15 11:35:32			0	33959	0	0	0	17784	16360	153878	27689	951904	37034	106462	0	0	8158	759043	0	0
2024-04-15 11:36:32			0	33984	0	0	0	17807	16370	153770	27999	951920	37057	106471	0	0	8159	757761	0	0
2024-04-15 11:37:32			0	33989	0	0	0	17810	16370	153830	28244	951982	37046	106472	0	0	8159	757513	0	0
2024-04-15 11:38:32			0	33977	0	0	0	17823	16390	153738	28147	952032	37047	106477	0	0	8158	758027	0	0
2024-04-15 11:39:32			0	33949	0	0	0	17825	16400	153794	28013	952075	37059	106478	0	0	8157	759375	0	0
2024-04-15 11:40:32			0	33959	0	0	0	17846	16400	153778	28095	952083	37059	106486	0	0	8157	758879	0	0
2024-04-15 11:41:32			0	33968	0	0	0	17870	16420	153866	27977	952142	37050	106495	0	0	8157	758350	0	0
2024-04-15 11:42:32			0	33945	0	0	0	17846	16430	153830	27925	952263	37063	106486	0	0	8156	759451	0	0
2024-04-15 11:43:32			0	33957	0	0	0	17849	16440	153766	27925	952219	37052	106487	0	0	8157	758814	0	0
2024-04-15 11:44:32			0	33962	0	0	0	17864	16450	153742	27864	952296	37053	106493	0	0	8157	758525	0	0
2024-04-15 11:45:32			0	33957	0	0	0	17872	16470	153738	27819	952286	37065	106496	0	0	8157	758691	0	0
2024-04-15 11:46:32			0	33953	0	0	0	17872	16470	153798	28006	952346	37065	106496	0	0	8156	758889	0	0
2024-04-15 11:47:32			0	33980	0	0	0	17890	16480	153746	27673	952328	37044	106503	0	0	8158	757509	0	0
2024-04-15 11:48:32			0	33971	0	0	0	17903	16490	153790	28064	952397	37078	106508	0	0	8157	757914	0	0
2024-04-15 11:49:32			0	33973	0	0	0	17916	16490	153730	27911	952405	37067	106513	0	0	8157	757815	0	0
2024-04-15 11:50:32			0	33964	0	0	0	17940	16520	153690	27968	952499	37069	106522	0	0	8156	758138	0	0
2024-04-15 11:51:32			0	33979	0	0	0	17953	16510	153706	27836	952491	37080	106527	0	0	8157	757436	0	0
2024-04-15 11:52:32			0	33991	0	0	0	17958	16530	153610	27855	952620	37070	106529	0	0	8157	756759	0	0
2024-04-15 11:53:32			0	33984	0	0	0	17974	16530	153658	27682	952629	37071	106535	0	0	8157	757106	0	0
2024-04-15 11:54:32			0	33988	0	0	0	17971	16540	153586	28027	952637	37071	106534	0	0	8157	756867	0	0
2024-04-15 11:55:32			0	33967	0	0	0	17986	16550	153606	27770	952687	37083	106540	0	0	8156	757867	0	0
2024-04-15 11:56:32			0	33978	0	0	0	18010	16560	153686	27614	952704	37083	106549	0	0	8156	757280	0	0
2024-04-15 11:57:32			0	33967	0	0	0	18020	16580	153638	28166	952728	37084	106553	0	0	8155	757744	0	0
2024-04-15 11:58:32			0	33976	0	0	0	17994	16590	153694	28077	952884	37097	106543	0	0	8156	757256	0	0
2024-04-15 11:59:32			0	33987	0	0	0	17989	16600	153610	27717	952839	37087	106541	0	0	8157	756671	0	0
2024-04-15 12:00:32			0	33966	0	0	0	17976	16600	153662	27767	952795	37077	106536	0	0	8156	757711	0	0
2024-04-15 12:01:32			0	33964	0	0	0	17955	16600	153634	28315	952742	37077	106528	0	0	8156	757810	0	0
2024-04-15 12:02:32			0	33946	0	0	0	17945	16600	153798	28116	952716	37077	106524	0	0	8155	758703	0	0
2024-04-15 12:03:32			0	33936	0	0	0	17935	16610	153902	28062	952750	37055	106520	0	0	8155	759158	0	0
2024-04-15 12:04:32			0	33904	0	0	0	17935	16600	153886	27855	952742	37077	106520	0	0	8153	760789	0	0
2024-04-15 12:05:32			0	33878	0	0	0	17932	16590	154026	27873	952726	37076	106519	0	0	8152	762124	0	0
2024-04-15 12:06:32			0	33878	0	0	0	17932	16600	154070	27885	952708	37066	106519	0	0	8152	762083	0	0
2024-04-15 12:07:32			0	33865	0	0	0	17942	16600	154058	27666	952734	37087	106523	0	0	8151	762730	0	0
2024-04-15 12:08:32			0	33841	0	0	0	17942	16600	154086	27692	952681	37077	106523	0	0	8149	763927	0	0
2024-04-15 12:09:32			0	33847	0	0	0	17945	16600	154098	28020	952663	37077	106524	0	0	8150	763628	0	0
2024-04-15 12:10:32			0	33831	0	0	0	17945	16610	154254	27796	952724	37077	106524	0	0	8149	764385	0	0
2024-04-15 12:11:32			0	33831	0	0	0	17942	16600	154138	27651	952742	37087	106523	0	0	8149	764426	0	0
2024-04-15 12:12:32			0	33835	0	0	0	17955	16600	154182	27652	952768	37066	106528	0	0	8149	764227	0	0
2024-04-15 12:13:32			0	33834	0	0	0	17953	16610	154282	27904	952724	37077	106527	0	0	8149	764235	0	0
2024-04-15 12:14:32			0	33830	0	0	0	17955	16610	154218	27944	952706	37088	106528	0	0	8148	764435	0	0
2024-04-15 12:15:32			0	33820	0	0	0	17966	16600	154354	27646	952716	37077	106532	0	0	8148	764975	0	0
2024-04-15 12:16:32			0	33830	0	0	0	17971	16610	154242	27958	952777	37066	106534	0	0	8148	764435	0	0
2024-04-15 12:17:32			0	33818	0	0	0	17968	16620	154374	27760	952766	37078	106533	0	0	8148	764992	0	0
2024-04-15 12:18:32			0	33848	0	0	0	17974	16610	154346	27661	952732	37088	106535	0	0	8149	763537	0	0
2024-04-15 12:19:32			0	33816	0	0	0	17981	16610	154318	27810	952811	37088	106538	0	0	8147	765134	0	0
2024-04-15 12:20:32			0	33826	0	0	0	17992	16620	154378	27840	952819	37088	106542	0	0	8148	764593	0	0
2024-04-15 12:21:32			0	33824	0	0	0	17994	16630	154250	27530	952888	37089	106543	0	0	8147	764651	0	0
2024-04-15 12:22:32			0	33799	0	0	0	17999	16620	154430	27940	952880	37100	106545	0	0	8146	765942	0	0
2024-04-15 12:23:32			0	33826	0	0	0	18005	16630	154314	27840	952923	37089	106547	0	0	8147	764552	0	0
2024-04-15 12:24:32			0	33818	0	0	0	18005	16640	154346	27734	952905	37080	106547	0	0	8147	764910	0	0
2024-04-15 12:25:32			0	33821	0	0	0	18012	16640	154302	27549	952860	37090	106550	0	0	8147	764760	0	0
2024-04-15 12:26:32			0	33831	0	0	0	18015	16640	154314	27620	952878	37090	106551	0	0	8148	764261	0	0
2024-04-15 12:27:32			0	33825	0	0	0	18012	16650	154354	27623	952955	37091	106550	0	0	8147	764519	0	0
2024-04-15 12:28:32			0	33825	0	0	0	18028	16650	154274	27812	952974	37081	106556	0	0	8147	764519	0	0
2024-04-15 12:29:32			0	33814	0	0	0	18028	16650	154306	27654	952955	37081	106556	0	0	8146	765068	0	0
2024-04-15 12:30:32			0	33831	0	0	0	18038	16660	154302	27789	952972	37082	106560	0	0	8147	764178	0	0
2024-04-15 12:31:32			0	33836	0	0	0	18057	16670	154218	27822	953085	37115	106567	0	0	8147	763887	0	0
2024-04-15 12:32:32			0	33839	0	0	0	18057	16670	154254	27575	953094	37083	106567	0	0	8147	763737	0	0
2024-04-15 12:33:32			0	33847	0	0	0	18070	16680	154258	27861	953057	37083	106572	0	0	8148	763297	0	0
2024-04-15 12:34:32			0	33833	0	0	0	18067	16680	154194	27556	953057	37105	106571	0	0	8147	763995	0	0
2024-04-15 12:35:32			0	33836	0	0	0	18062	16700	154170	27294	953134	37106	106569	0	0	8147	763763	0	0
2024-04-15 12:36:32			0	33807	0	0	0	18083	16690	154250	27450	953126	37106	106577	0	0	8145	765252	0	0
2024-04-15 12:37:32			0	33808	0	0	0	18077	16700	154278	27538	953108	37106	106575	0	0	8145	765161	0	0
2024-04-15 12:38:32			0	33814	0	0	0	18083	16700	154330	27280	953221	37096	106577	0	0	8146	764861	0	0
2024-04-15 12:39:32			0	33784	0	0	0	18093	16700	154402	27573	953248	37107	106581	0	0	8144	766360	0	0
2024-04-15 12:40:32			0	33801	0	0	0	18098	16710	154326	27781	953230	37108	106583	0	0	8145	765469	0	0
2024-04-15 12:41:32			0	33804	0	0	0	18111	16710	154274	27383	953264	37108	106588	0	0	8145	765319	0	0
2024-04-15 12:42:32			0	33800	0	0	0	18114	16730	154466	27734	953236	37109	106589	0	0	8145	765436	0	0
2024-04-15 12:43:32			0	33798	0	0	0	18127	16730	154382	27601	953323	37109	106594	0	0	8144	765536	0	0
2024-04-15 12:44:32			0	33798	0	0	0	18129	16720	154346	27734	953325	37097	106595	0	0	8144	765577	0	0
2024-04-15 12:45:32			0	33808	0	0	0	18132	16730	154266	27556	953428	37131	106596	0	0	8145	765036	0	0
2024-04-15 12:46:32			0	33834	0	0	0	18140	16750	154214	27890	953418	37110	106599	0	0	8146	763656	0	0
2024-04-15 12:47:32			0	33866	0	0	0	18145	16760	154034	27711	953408	37111	106601	0	0	8148	762020	0	0
2024-04-15 12:48:32			0	33874	0	0	0	18148	16750	153886	27557	953453	37122	106602	0	0	8148	761663	0	0
2024-04-15 12:49:32			0	33899	0	0	0	18150	16760	153950	27925	953522	37101	106603	0	0	8150	760379	0	0
2024-04-15 12:50:32			0	33912	0	0	0	18155	16760	153902	27710	953443	37101	106605	0	0	8151	759733	0	0
2024-04-15 12:51:32			0	33916	0	0	0	18153	16770	153854	27878	953512	37101	106604	0	0	8151	759493	0	0
2024-04-15 12:52:32			0	33908	0	0	0	18150	16790	153870	27391	953536	37113	106603	0	0	8151	759808	0	0
2024-04-15 12:53:32			0	33910	0	0	0	18155	16790	153862	27805	953536	37125	106605	0	0	8151	759709	0	0
2024-04-15 12:54:32			0	33915	0	0	0	18158	16780	153826	27791	953502	37113	106606	0	0	8151	759502	0	0
2024-04-15 12:55:32			0	33914	0	0	0	18127	16780	153774	27798	953475	37113	106594	0	0	8151	759551	0	0
2024-04-15 12:56:32			0	33918	0	0	0	18135	16790	153794	27762	953563	37113	106597	0	0	8151	759312	0	0
2024-04-15 12:57:32			0	33913	0	0	0	18129	16780	153866	27911	953528	37102	106595	0	0	8151	759601	0	0
2024-04-15 12:58:32			0	33897	0	0	0	18124	16780	153806	27928	953449	37102	106593	0	0	8150	760396	0	0
2024-04-15 12:59:32			0	33898	0	0	0	18119	16790	153850	27791	953457	37102	106591	0	0	8150	760305	0	0
2024-04-15 13:00:32			0	33897	0	0	0	18114	16790	153866	27828	953536	37102	106589	0	0	8150	760355	0	0
2024-04-15 13:01:32			0	33888	0	0	0	18109	16780	153834	27786	953449	37113	106587	0	0	8150	760843	0	0
2024-04-15 13:02:32			0	33871	0	0	0	18101	16780	153874	27855	953388	37113	106584	0	0	8149	761689	0	0
2024-04-15 13:03:32			0	33875	0	0	0	18101	16780	153902	27963	953335	37102	106584	0	0	8149	761490	0	0
2024-04-15 13:04:32			0	33856	0	0	0	18098	16780	154006	27954	953449	37102	106583	0	0	8148	762436	0	0
2024-04-15 13:05:32			0	33863	0	0	0	18111	16770	154090	27880	953459	37113	106588	0	0	8148	762128	0	0
2024-04-15 13:06:32			0	33858	0	0	0	18114	16790	154074	27651	953483	37102	106589	0	0	8148	762295	0	0
2024-04-15 13:07:32			0	33852	0	0	0	18114	16790	154174	28117	953510	37113	106589	0	0	8148	762593	0	0
2024-04-15 13:08:32			0	33870	0	0	0	18111	16780	154154	28098	953441	37135	106588	0	0	8149	761739	0	0
2024-04-15 13:09:32			0	33860	0	0	0	18119	16780	154198	27569	953467	37113	106591	0	0	8148	762236	0	0
2024-04-15 13:10:32			0	33861	0	0	0	18122	16790	154194	27869	953457	37113	106592	0	0	8148	762145	0	0
2024-04-15 13:11:32			0	33855	0	0	0	18132	16780	154146	27701	953502	37113	106596	0	0	8148	762485	0	0
2024-04-15 13:12:32			0	33857	0	0	0	18148	16790	154218	27507	953571	37114	106602	0	0	8148	762345	0	0
2024-04-15 13:13:32			0	33855	0	0	0	18161	16790	154234	27545	953650	37114	106607	0	0	8147	762444	0	0
2024-04-15 13:14:32			0	33836	0	0	0	18174	16790	154282	27774	953571	37114	106612	0	0	8146	763391	0	0
2024-04-15 13:15:32			0	33836	0	0	0	18166	16810	154170	27659	953595	37136	106609	0	0	8146	763308	0	0
2024-04-15 13:16:32			0	33835	0	0	0	18161	16810	154218	27940	953621	37115	106607	0	0	8146	763358	0	0
2024-04-15 13:17:32			0	33819	0	0	0	18158	16810	154246	28064	953569	37125	106606	0	0	8145	764156	0	0
2024-04-15 13:18:32			0	33822	0	0	0	18171	16820	154242	27627	953664	37138	106611	0	0	8145	763965	0	0
2024-04-15 13:19:32			0	33826	0	0	0	18186	16820	154318	27907	953664	37127	106617	0	0	8145	763765	0	0
2024-04-15 13:20:32			0	33828	0	0	0	18194	16830	154358	27874	953707	37127	106620	0	0	8145	763624	0	0
2024-04-15 13:21:32			0	33815	0	0	0	18186	16830	154290	27720	953688	37150	106617	0	0	8145	764273	0	0
2024-04-15 13:22:32			0	33825	0	0	0	18197	16830	154306	27611	953680	37138	106621	0	0	8145	763774	0	0
2024-04-15 13:23:32			0	33806	0	0	0	18189	16830	154230	27868	953680	37127	106618	0	0	8144	764722	0	0
2024-04-15 13:24:32			0	33825	0	0	0	18202	16830	154226	27426	953786	37117	106623	0	0	8145	763774	0	0
2024-04-15 13:25:32			0	33834	0	0	0	18202	16840	154306	27840	953776	37107	106623	0	0	8146	763284	0	0
2024-04-15 13:26:32			0	33814	0	0	0	18199	16840	154258	27576	953678	37119	106622	0	0	8144	764281	0	0
2024-04-15 13:27:32			0	33823	0	0	0	18189	16840	154274	27869	953757	37119	106618	0	0	8145	763832	0	0
2024-04-15 13:28:32			0	33818	0	0	0	18192	16840	154286	27332	953757	37119	106619	0	0	8145	764081	0	0
2024-04-15 13:29:32			0	33817	0	0	0	18197	16850	154382	27698	953773	37129	106621	0	0	8145	764090	0	0
2024-04-15 13:30:32			0	33809	0	0	0	18202	16850	154354	27675	953845	37140	106623	0	0	8144	764489	0	0
2024-04-15 13:31:32			0	33804	0	0	0	18215	16850	154282	27528	953765	37129	106628	0	0	8144	764739	0	0
2024-04-15 13:32:32			0	33799	0	0	0	18210	16850	154282	27488	953792	37119	106626	0	0	8143	764988	0	0
2024-04-15 13:33:32			0	33805	0	0	0	18215	16850	154310	27874	953845	37119	106628	0	0	8144	764689	0	0
2024-04-15 13:34:32			0	33798	0	0	0	18218	16860	154426	27803	953869	37142	106629	0	0	8143	764997	0	0
2024-04-15 13:35:32			0	33784	0	0	0	18228	16870	154238	27516	953851	37121	106633	0	0	8142	765655	0	0
2024-04-15 13:36:32			0	33790	0	0	0	18246	16860	154330	27229	953834	37141	106640	0	0	8142	765396	0	0
2024-04-15 13:37:32			0	33797	0	0	0	18231	16860	154414	27152	953816	37121	106634	0	0	8143	765047	0	0
2024-04-15 13:38:32			0	33793	0	0	0	18231	16870	154342	27627	953912	37110	106634	0	0	8143	765205	0	0
2024-04-15 13:39:32			0	33779	0	0	0	18223	16870	154374	27284	953885	37121	106631	0	0	8142	765905	0	0
2024-04-15 13:40:32			0	33780	0	0	0	18215	16880	154510	27293	953841	37143	106628	0	0	8142	765813	0	0
2024-04-15 13:41:32			0	33769	0	0	0	18228	16870	154394	27215	953912	37121	106633	0	0	8141	766404	0	0
2024-04-15 13:42:32			0	33780	0	0	0	18228	16870	154426	27203	953885	37131	106633	0	0	8142	765855	0	0
2024-04-15 13:43:32			0	33773	0	0	0	18251	16870	154442	27441	953885	37121	106642	0	0	8141	766204	0	0
2024-04-15 13:44:32			0	33768	0	0	0	18231	16880	154446	27954	953894	37111	106634	0	0	8141	766413	0	0
2024-04-15 13:45:32			0	33762	0	0	0	18246	16880	154458	27580	953920	37132	106640	0	0	8141	766713	0	0
2024-04-15 13:46:32			0	33766	0	0	0	18246	16890	154450	27842	954015	37144	106640	0	0	8141	766471	0	0
2024-04-15 13:47:32			0	33767	0	0	0	18259	16890	154502	27786	953971	37133	106645	0	0	8141	766421	0	0
2024-04-15 13:48:32			0	33766	0	0	0	18275	16900	154586	27984	954032	37133	106651	0	0	8141	766430	0	0
2024-04-15 13:49:32			0	33756	0	0	0	18262	16900	154538	27614	954040	37134	106646	0	0	8140	766930	0	0
2024-04-15 13:50:32			0	33754	0	0	0	18275	16910	154478	27651	954074	37125	106651	0	0	8140	766988	0	0
2024-04-15 13:51:32			0	33756	0	0	0	18280	16900	154502	27724	954040	37145	106653	0	0	8140	766930	0	0
2024-04-15 13:52:32			0	33762	0	0	0	18275	16910	154506	27438	954109	37125	106651	0	0	8140	766588	0	0
2024-04-15 13:53:32			0	33756	0	0	0	18272	16910	154486	27405	954109	37125	106650	0	0	8140	766888	0	0
2024-04-15 13:54:32			0	33758	0	0	0	18277	16920	154542	27459	954064	37146	106652	0	0	8140	766747	0	0
2024-04-15 13:55:32			0	33759	0	0	0	18272	16920	154450	27992	954151	37147	106650	0	0	8140	766697	0	0
2024-04-15 13:56:32			0	33753	0	0	0	18288	16920	154470	27685	954072	37147	106656	0	0	8140	766997	0	0
2024-04-15 13:57:32			0	33748	0	0	0	18272	16920	154462	27769	954046	37147	106650	0	0	8140	767247	0	0
2024-04-15 13:58:32			0	33779	0	0	0	18283	16930	154474	27652	954080	37148	106654	0	0	8141	765655	0	0
2024-04-15 13:59:32			0	33748	0	0	0	18293	16920	154458	27829	954125	37147	106658	0	0	8139	767247	0	0
2024-04-15 14:00:32			0	33780	0	0	0	18290	16930	154494	27916	954141	37126	106657	0	0	8141	765605	0	0
2024-04-15 14:01:32			0	33777	0	0	0	18296	16940	154426	27613	954157	37149	106659	0	0	8141	765714	0	0
2024-04-15 14:02:32			0	33772	0	0	0	18319	16930	154430	27588	954168	37159	106668	0	0	8140	766005	0	0
2024-04-15 14:03:32			0	33770	0	0	0	18298	16940	154390	27824	954184	37160	106660	0	0	8141	766064	0	0
2024-04-15 14:04:32			0	33769	0	0	0	18301	16940	154314	27474	954202	37137	106661	0	0	8141	766114	0	0
2024-04-15 14:05:32			0	33771	0	0	0	18298	16950	154398	27658	954192	37150	106660	0	0	8141	765972	0	0
2024-04-15 14:06:32			0	33786	0	0	0	18309	16960	154358	27765	954261	37150	106664	0	0	8142	765181	0	0
2024-04-15 14:07:32			0	33779	0	0	0	18322	16960	154390	27869	954261	37161	106669	0	0	8141	765531	0	0
2024-04-15 14:08:32			0	33769	0	0	0	18316	16960	154342	27847	954235	37150	106667	0	0	8140	766030	0	0
2024-04-15 14:09:32			0	33773	0	0	0	18316	16960	154374	27689	954287	37161	106667	0	0	8141	765831	0	0
2024-04-15 14:10:32			0	33777	0	0	0	18329	16960	154314	28098	954269	37139	106672	0	0	8141	765631	0	0
2024-04-15 14:11:32			0	33791	0	0	0	18335	16960	154242	27921	954295	37139	106674	0	0	8141	764932	0	0
2024-04-15 14:12:32			0	33781	0	0	0	18340	16970	154374	27911	954338	37152	106676	0	0	8141	765390	0	0
2024-04-15 14:13:32			0	33778	0	0	0	18348	16970	154246	27443	954356	37162	106679	0	0	8140	765539	0	0
2024-04-15 14:14:32			0	33783	0	0	0	18340	16980	154274	27623	954320	37152	106676	0	0	8141	765248	0	0
2024-04-15 14:15:32			0	33797	0	0	0	18340	16980	154198	27673	954373	37152	106676	0	0	8142	764549	0	0
2024-04-15 14:16:32			0	33794	0	0	0	18345	16990	154278	27467	954415	37164	106678	0	0	8142	764657	0	0
2024-04-15 14:17:32			0	33794	0	0	0	18355	16990	154118	27357	954371	37175	106682	0	0	8141	764657	0	0
2024-04-15 14:18:32			0	33816	0	0	0	18348	16990	154138	27772	954371	37165	106679	0	0	8143	763560	0	0
2024-04-15 14:19:32			0	33808	0	0	0	18350	17000	154058	27734	954432	37165	106680	0	0	8142	763918	0	0
2024-04-15 14:20:32			0	33818	0	0	0	18366	17000	154098	27675	954405	37175	106686	0	0	8143	763419	0	0
2024-04-15 14:21:32			0	33820	0	0	0	18371	17000	154086	27687	954432	37154	106688	0	0	8143	763319	0	0
2024-04-15 14:22:32			0	33840	0	0	0	18366	17010	154118	27708	954448	37154	106686	0	0	8144	762282	0	0
2024-04-15 14:23:32			0	33835	0	0	0	18384	17010	154074	27654	954527	37166	106693	0	0	8143	762531	0	0
2024-04-15 14:24:32			0	33838	0	0	0	18374	17010	154066	27913	954509	37177	106689	0	0	8144	762381	0	0
2024-04-15 14:25:32			0	33831	0	0	0	18397	17020	154054	27542	954517	37166	106698	0	0	8143	762688	0	0
2024-04-15 14:26:32			0	33840	0	0	0	18397	17020	153954	27390	954596	37155	106698	0	0	8143	762240	0	0
2024-04-15 14:27:32			0	33851	0	0	0	18397	17030	153990	27991	954568	37167	106698	0	0	8144	761652	0	0
2024-04-15 14:28:32			0	33837	0	0	0	18402	17040	154030	27443	954576	37179	106700	0	0	8143	762307	0	0
2024-04-15 14:29:32			0	33848	0	0	0	18407	17040	154078	27365	954576	37168	106702	0	0	8144	761760	0	0
2024-04-15 14:30:32			0	33832	0	0	0	18412	17030	154010	27585	954647	37167	106704	0	0	8143	762597	0	0
2024-04-15 14:31:32			0	33842	0	0	0	18410	17050	153910	27708	954637	37168	106703	0	0	8144	762017	0	0
2024-04-15 14:32:32			0	33852	0	0	0	18412	17050	153910	27647	954618	37179	106704	0	0	8144	761519	0	0
2024-04-15 14:33:32			0	33850	0	0	0	18412	17050	153978	27765	954663	37168	106704	0	0	8144	761619	0	0
2024-04-15 14:34:32			0	33860	0	0	0	18415	17050	153898	27429	954618	37179	106705	0	0	8144	761121	0	0
2024-04-15 14:35:32			0	33862	0	0	0	18423	17070	153826	27646	954669	37169	106708	0	0	8145	760939	0	0
2024-04-15 14:36:32			0	33878	0	0	0	18420	17070	153874	27554	954669	37169	106707	0	0	8146	760145	0	0
2024-04-15 14:37:32			0	33880	0	0	0	18423	17070	153726	27585	954756	37181	106708	0	0	8146	760045	0	0
2024-04-15 14:38:32			0	33886	0	0	0	18425	17070	153862	27628	954722	37169	106709	0	0	8146	759747	0	0
2024-04-15 14:39:32			0	33885	0	0	0	18438	17070	153842	27942	954696	37169	106714	0	0	8146	759797	0	0
2024-04-15 14:40:32			0	33893	0	0	0	18425	17080	153762	27450	954712	37149	106709	0	0	8146	759358	0	0
2024-04-15 14:41:32			0	33900	0	0	0	18420	17080	153642	27620	954712	37193	106707	0	0	8147	759011	0	0
2024-04-15 14:42:32			0	33884	0	0	0	18418	17070	153742	27414	954704	37181	106706	0	0	8146	759847	0	0
2024-04-15 14:43:32			0	33890	0	0	0	18438	17080	153814	28025	954773	37171	106714	0	0	8146	759507	0	0
2024-04-15 14:44:32			0	33886	0	0	0	18438	17080	153774	27530	954738	37170	106714	0	0	8146	759706	0	0
2024-04-15 14:45:32			0	33882	0	0	0	18449	17080	153802	28015	954773	37161	106718	0	0	8145	759905	0	0
2024-04-15 14:46:32			0	33885	0	0	0	18433	17080	153786	28024	954738	37193	106712	0	0	8146	759756	0	0
2024-04-15 14:47:32			0	33891	0	0	0	18423	17090	153606	27881	954728	37193	106708	0	0	8146	759417	0	0
2024-04-15 14:48:32			0	33913	0	0	0	18441	17090	153698	27972	954754	37171	106715	0	0	8147	758325	0	0
2024-04-15 14:49:32			0	33917	0	0	0	18441	17100	153530	27899	954858	37163	106715	0	0	8148	758086	0	0
2024-04-15 14:50:32			0	33902	0	0	0	18444	17090	153670	27979	954710	37171	106716	0	0	8147	758871	0	0
2024-04-15 14:51:32			0	33901	0	0	0	18425	17090	153674	27724	954763	37161	106709	0	0	8147	758920	0	0
2024-04-15 14:52:32			0	33926	0	0	0	18425	17090	153598	27502	954763	37171	106709	0	0	8148	757681	0	0
2024-04-15 14:53:32			0	33905	0	0	0	18425	17090	153630	27511	954789	37182	106709	0	0	8147	758722	0	0
2024-04-15 14:54:32			0	33912	0	0	0	18415	17100	153566	27713	954744	37172	106705	0	0	8148	758334	0	0
2024-04-15 14:55:32			0	33902	0	0	0	18423	17100	153586	27625	954752	37173	106708	0	0	8147	758830	0	0
2024-04-15 14:56:32			0	33906	0	0	0	18431	17090	153606	27447	954789	37161	106711	0	0	8147	758673	0	0
2024-04-15 14:57:32			0	33906	0	0	0	18433	17100	153662	27306	954744	37162	106712	0	0	8147	758631	0	0
2024-04-15 14:58:32			0	33892	0	0	0	18446	17100	153646	27637	954744	37162	106717	0	0	8146	759326	0	0
2024-04-15 14:59:32			0	33899	0	0	0	18441	17100	153694	27672	954805	37151	106715	0	0	8147	758978	0	0
2024-04-15 15:00:32			0	33898	0	0	0	18462	17100	153742	27732	954823	37183	106723	0	0	8146	759028	0	0
2024-04-15 15:01:32			0	33901	0	0	0	18446	17100	153710	27435	954858	37184	106717	0	0	8147	758879	0	0
2024-04-15 15:02:32			0	33900	0	0	0	18454	17100	153614	27452	954884	37184	106720	0	0	8146	758929	0	0
2024-04-15 15:03:32			0	33904	0	0	0	18467	17100	153666	27800	954876	37172	106725	0	0	8146	758730	0	0
2024-04-15 15:04:32			0	33892	0	0	0	18459	17110	153686	27530	954813	37195	106722	0	0	8146	759285	0	0
2024-04-15 15:05:32			0	33902	0	0	0	18464	17110	153682	27731	954874	37185	106724	0	0	8146	758788	0	0
2024-04-15 15:06:32			0	33905	0	0	0	18464	17110	153594	27869	954927	37163	106724	0	0	8147	758640	0	0
2024-04-15 15:07:32			0	33910	0	0	0	18472	17110	153594	27284	954901	37174	106727	0	0	8147	758392	0	0
2024-04-15 15:08:32			0	33914	0	0	0	18475	17120	153570	27415	954962	37174	106728	0	0	8147	758152	0	0
2024-04-15 15:09:32			0	33922	0	0	0	18480	17120	153514	27377	954970	37174	106730	0	0	8147	757756	0	0
2024-04-15 15:10:32			0	33933	0	0	0	18490	17120	153550	27280	954962	37185	106734	0	0	8148	757211	0	0
2024-04-15 15:11:32			0	33928	0	0	0	18496	17130	153514	27345	954986	37186	106736	0	0	8147	757418	0	0
2024-04-15 15:12:32			0	33938	0	0	0	18488	17130	153518	27647	954933	37186	106733	0	0	8148	756922	0	0
2024-04-15 15:13:32			0	33941	0	0	0	18501	17130	153494	27441	955013	37186	106738	0	0	8148	756774	0	0
2024-04-15 15:14:32			0	33938	0	0	0	18514	17140	153406	27353	955055	37187	106743	0	0	8148	756881	0	0
2024-04-15 15:15:32			0	33932	0	0	0	18506	17140	153530	27249	955108	37209	106740	0	0	8148	757178	0	0
2024-04-15 15:16:32			0	33942	0	0	0	18535	17140	153474	27147	955055	37187	106751	0	0	8148	756683	0	0
2024-04-15 15:17:32			0	33933	0	0	0	18532	17150	153406	27469	955116	37188	106750	0	0	8147	757088	0	0
2024-04-15 15:18:32			0	33947	0	0	0	18522	17160	153418	27343	955132	37199	106746	0	0	8148	756354	0	0
2024-04-15 15:19:32			0	33927	0	0	0	18561	17160	153390	27395	955088	37200	106761	0	0	8146	757344	0	0
2024-04-15 15:20:32			0	33930	0	0	0	18566	17170	153382	27339	955228	37201	106763	0	0	8147	757154	0	0
2024-04-15 15:21:32			0	33926	0	0	0	18558	17170	153434	27403	955236	37201	106760	0	0	8146	757352	0	0
2024-04-15 15:22:32			0	33948	0	0	0	18576	17180	153370	27576	955226	37190	106767	0	0	8147	756222	0	0
2024-04-15 15:23:32			0	33953	0	0	0	18574	17180	153370	27407	955297	37202	106766	0	0	8148	755975	0	0
2024-04-15 15:24:32			0	33951	0	0	0	18592	17190	153426	27602	955260	37191	106773	0	0	8147	756033	0	0
2024-04-15 15:25:32			0	33954	0	0	0	18579	17190	153302	27421	955313	37202	106768	0	0	8148	755885	0	0
2024-04-15 15:26:32			0	33962	0	0	0	18576	17210	153246	27405	955293	37204	106767	0	0	8148	755407	0	0
2024-04-15 15:27:32			0	33940	0	0	0	18574	17200	153346	27573	955285	37203	106766	0	0	8147	756536	0	0
2024-04-15 15:28:32			0	33976	0	0	0	18555	17210	153254	27580	955301	37204	106759	0	0	8150	754715	0	0
2024-04-15 15:29:32			0	33967	0	0	0	18542	17200	153222	27829	955311	37203	106754	0	0	8149	755201	0	0
2024-04-15 15:30:32			0	33977	0	0	0	18524	17200	153154	27698	955232	37192	106747	0	0	8150	754707	0	0
2024-04-15 15:31:32			0	33980	0	0	0	18524	17200	153138	27718	955232	37181	106747	0	0	8150	754559	0	0
2024-04-15 15:32:32			0	33986	0	0	0	18527	17190	153082	27656	955181	37202	106748	0	0	8151	754304	0	0
2024-04-15 15:33:32			0	34007	0	0	0	18532	17210	153058	27647	955214	37204	106750	0	0	8152	753186	0	0
2024-04-15 15:34:32			0	34008	0	0	0	18532	17190	153122	27840	955216	37191	106750	0	0	8152	753219	0	0
2024-04-15 15:35:32			0	34003	0	0	0	18537	17190	153122	27755	955268	37191	106752	0	0	8151	753465	0	0
2024-04-15 15:36:32			0	34003	0	0	0	18548	17190	153138	27275	955208	37191	106756	0	0	8151	753465	0	0
2024-04-15 15:37:32			0	34008	0	0	0	18540	17190	153126	27435	955234	37180	106753	0	0	8152	753219	0	0
2024-04-15 15:38:32			0	34018	0	0	0	18537	17190	153034	27410	955242	37191	106752	0	0	8152	752726	0	0
2024-04-15 15:39:32			0	34032	0	0	0	18540	17190	152990	27530	955189	37213	106753	0	0	8153	752036	0	0
2024-04-15 15:40:32			0	34042	0	0	0	18535	17200	152942	27725	955277	37203	106751	0	0	8154	751503	0	0
2024-04-15 15:41:32			0	34055	0	0	0	18519	17200	152798	27599	955232	37203	106745	0	0	8155	750863	0	0
2024-04-15 15:42:32			0	34078	0	0	0	18509	17190	152798	27609	955102	37202	106741	0	0	8156	749774	0	0
2024-04-15 15:43:32			0	34085	0	0	0	18509	17190	152678	27788	955189	37180	106741	0	0	8157	749430	0	0
2024-04-15 15:44:32			0	34115	0	0	0	18459	17190	152538	27563	955234	37191	106722	0	0	8159	747958	0	0
2024-04-15 15:45:32			0	34190	0	0	0	18444	17190	152234	27343	955128	37202	106716	0	0	8164	744288	0	0
2024-04-15 15:46:32			0	34217	0	0	0	18436	17180	152154	27906	955120	37179	106713	0	0	8165	743010	0	0
2024-04-15 15:47:32			0	34235	0	0	0	18389	17180	151974	27429	955059	37190	106695	0	0	8167	742133	0	0
2024-04-15 15:48:32			0	34288	0	0	0	18407	17170	151754	27492	954990	37179	106702	0	0	8170	739594	0	0
2024-04-15 15:49:32			0	34283	0	0	0	18371	17160	151722	27576	954948	37166	106688	0	0	8170	739877	0	0
2024-04-15 15:50:32			0	34269	0	0	0	18353	17140	151854	27876	954791	37166	106681	0	0	8170	740638	0	0
2024-04-15 15:51:32			0	34257	0	0	0	18350	17130	151950	27478	954741	37164	106680	0	0	8169	741262	0	0
2024-04-15 15:52:32			0	34227	0	0	0	18363	17120	151982	27762	954777	37141	106685	0	0	8167	742764	0	0
2024-04-15 15:53:32			0	34245	0	0	0	18355	17110	152030	27777	954716	37185	106682	0	0	8168	741927	0	0
2024-04-15 15:54:32			0	34228	0	0	0	18368	17110	152118	27576	954708	37184	106687	0	0	8167	742756	0	0
2024-04-15 15:55:32			0	34232	0	0	0	18363	17100	152018	27710	954639	37172	106685	0	0	8167	742601	0	0
2024-04-15 15:56:32			0	34216	0	0	0	18353	17090	152058	27937	954657	37182	106681	0	0	8166	743422	0	0
2024-04-15 15:57:32			0	34202	0	0	0	18374	17100	152178	27807	954692	37194	106689	0	0	8165	744065	0	0
2024-04-15 15:58:32			0	34209	0	0	0	18371	17080	152206	27932	954614	37171	106688	0	0	8166	743804	0	0
2024-04-15 15:59:32			0	34212	0	0	0	18371	17080	152302	27639	954633	37170	106688	0	0	8166	743658	0	0
2024-04-15 16:00:32			0	34230	0	0	0	18379	17080	152058	27918	954606	37181	106691	0	0	8167	742779	0	0
2024-04-15 16:01:32			0	34224	0	0	0	18384	17080	152070	27762	954659	37181	106693	0	0	8166	743072	0	0
2024-04-15 16:02:32			0	34259	0	0	0	18379	17070	152094	27331	954625	37181	106691	0	0	8168	741406	0	0
2024-04-15 16:03:32			0	34250	0	0	0	18381	17070	151986	27731	954625	37169	106692	0	0	8168	741845	0	0
2024-04-15 16:04:32			0	34227	0	0	0	18379	17080	152110	27438	954633	37160	106691	0	0	8166	742926	0	0
2024-04-15 16:05:32			0	34243	0	0	0	18389	17070	152166	27476	954643	37181	106695	0	0	8167	742186	0	0
2024-04-15 16:06:32			0	34217	0	0	0	18384	17070	152254	27625	954643	37169	106693	0	0	8166	743454	0	0
2024-04-15 16:07:32			0	34231	0	0	0	18384	17070	152166	27621	954651	37159	106693	0	0	8167	742771	0	0
2024-04-15 16:08:32			0	34219	0	0	0	18386	17060	152114	28096	954661	37181	106694	0	0	8166	743397	0	0
2024-04-15 16:09:32			0	34223	0	0	0	18399	17070	151998	27677	954643	37159	106699	0	0	8166	743161	0	0
2024-04-15 16:10:32			0	34229	0	0	0	18418	17060	152038	27932	954653	37191	106706	0	0	8166	742909	0	0
2024-04-15 16:11:32			0	34254	0	0	0	18410	17070	151866	27502	954722	37169	106703	0	0	8167	741650	0	0
2024-04-15 16:12:32			0	34265	0	0	0	18415	17060	151846	27569	954740	37181	106705	0	0	8168	741154	0	0
2024-04-15 16:13:32			0	34268	0	0	0	18420	17070	151806	27677	954722	37181	106707	0	0	8168	740968	0	0
2024-04-15 16:14:32			0	34272	0	0	0	18420	17070	151790	27680	954730	37169	106707	0	0	8168	740774	0	0
2024-04-15 16:15:32			0	34300	0	0	0	18425	17070	151814	27765	954669	37159	106709	0	0	8170	739412	0	0
2024-04-15 16:16:32			0	34283	0	0	0	18423	17080	151782	27821	954738	37181	106708	0	0	8169	740198	0	0
2024-04-15 16:17:32			0	34272	0	0	0	18405	17090	151862	27469	954728	37182	106701	0	0	8169	740693	0	0
2024-04-15 16:18:32			0	34257	0	0	0	18405	17080	151898	27836	954720	37150	106701	0	0	8168	741464	0	0
2024-04-15 16:19:32			0	34241	0	0	0	18407	17070	151966	27679	954704	37169	106702	0	0	8167	742283	0	0
2024-04-15 16:20:32			0	34234	0	0	0	18423	17080	152038	27769	954712	37170	106708	0	0	8166	742584	0	0
2024-04-15 16:21:32			0	34228	0	0	0	18433	17070	152038	27854	954696	37159	106712	0	0	8165	742917	0	0
2024-04-15 16:22:32			0	34222	0	0	0	18444	17080	152094	27661	954720	37193	106716	0	0	8165	743170	0	0
2024-04-15 16:23:32			0	34223	0	0	0	18464	17090	152026	27890	954781	37182	106724	0	0	8165	743081	0	0
2024-04-15 16:24:32			0	34218	0	0	0	18477	17090	152030	28036	954886	37182	106729	0	0	8164	743325	0	0
2024-04-15 16:25:32			0	34216	0	0	0	18488	17100	152030	27455	954929	37194	106733	0	0	8164	743382	0	0
2024-04-15 16:26:32			0	34215	0	0	0	18485	17100	152014	27653	954929	37183	106732	0	0	8164	743431	0	0
2024-04-15 16:27:32			0	34218	0	0	0	18498	17100	151954	27770	954955	37194	106737	0	0	8164	743284	0	0
2024-04-15 16:28:32			0	34223	0	0	0	18490	17120	151950	27647	955015	37185	106734	0	0	8164	742960	0	0
2024-04-15 16:29:32			0	34213	0	0	0	18493	17110	152014	27900	954980	37196	106735	0	0	8164	743488	0	0
2024-04-15 16:30:32			0	34222	0	0	0	18503	17120	151982	27824	955041	37196	106739	0	0	8164	743008	0	0
2024-04-15 16:31:32			0	34230	0	0	0	18509	17130	151874	27492	955065	37198	106741	0	0	8165	742578	0	0
2024-04-15 16:32:32			0	34229	0	0	0	18514	17130	151998	27902	955065	37198	106743	0	0	8164	742627	0	0
2024-04-15 16:33:32			0	34212	0	0	0	18527	17130	152082	27627	955092	37198	106748	0	0	8163	743456	0	0
2024-04-15 16:34:32			0	34211	0	0	0	18516	17150	151962	27795	955063	37188	106744	0	0	8163	743424	0	0
2024-04-15 16:35:32			0	34214	0	0	0	18527	17140	152022	27963	955126	37186	106748	0	0	8163	743318	0	0
2024-04-15 16:36:32			0	34197	0	0	0	18524	17150	152114	27991	955090	37199	106747	0	0	8163	744107	0	0
2024-04-15 16:37:32			0	34191	0	0	0	18532	17160	152070	28025	955132	37199	106750	0	0	8162	744360	0	0
2024-04-15 16:38:32			0	34201	0	0	0	18535	17160	152070	27668	955212	37209	106751	0	0	8163	743872	0	0
2024-04-15 16:39:32			0	34198	0	0	0	18535	17160	152042	27883	955167	37200	106751	0	0	8162	744018	0	0
2024-04-15 16:40:32			0	34196	0	0	0	18540	17170	152102	27748	955183	37201	106753	0	0	8162	744076	0	0
2024-04-15 16:41:32			0	34191	0	0	0	18542	17170	152126	27762	955201	37201	106754	0	0	8162	744320	0	0
2024-04-15 16:42:32			0	34203	0	0	0	18548	17170	152222	27474	955210	37190	106756	0	0	8163	743734	0	0
2024-04-15 16:43:32			0	34189	0	0	0	18542	17180	152030	27932	955244	37202	106754	0	0	8162	744377	0	0
2024-04-15 16:44:32			0	34193	0	0	0	18553	17170	152090	27424	955183	37201	106758	0	0	8162	744222	0	0
2024-04-15 16:45:32			0	34180	0	0	0	18550	17190	152106	27556	955260	37213	106757	0	0	8161	744776	0	0
2024-04-15 16:46:32			0	34205	0	0	0	18550	17190	152122	27979	955260	37213	106757	0	0	8163	743555	0	0
2024-04-15 16:47:32			0	34191	0	0	0	18550	17190	152050	27807	955234	37202	106757	0	0	8162	744239	0	0
2024-04-15 16:48:32			0	34189	0	0	0	18553	17190	152094	27907	955216	37213	106758	0	0	8162	744337	0	0
2024-04-15 16:49:32			0	34188	0	0	0	18545	17190	152070	27711	955260	37213	106755	0	0	8162	744385	0	0
2024-04-15 16:50:32			0	34197	0	0	0	18553	17190	152138	27923	955242	37191	106758	0	0	8162	743946	0	0
2024-04-15 16:51:32			0	34198	0	0	0	18548	17200	152174	27523	955329	37192	106756	0	0	8162	743857	0	0
2024-04-15 16:52:32			0	34181	0	0	0	18542	17190	152090	27817	955268	37213	106754	0	0	8162	744727	0	0
2024-04-15 16:53:32			0	34188	0	0	0	18553	17190	152094	27914	955295	37191	106758	0	0	8162	744385	0	0
2024-04-15 16:54:32			0	34184	0	0	0	18542	17200	152158	27701	955285	37213	106754	0	0	8162	744540	0	0
2024-04-15 16:55:32			0	34178	0	0	0	18537	17200	152218	27685	955250	37203	106752	0	0	8161	744834	0	0
2024-04-15 16:56:32			0	34150	0	0	0	18550	17200	152266	27575	955277	37213	106757	0	0	8160	746203	0	0
2024-04-15 16:57:32			0	34171	0	0	0	18550	17200	152182	27623	955303	37203	106757	0	0	8161	745176	0	0
2024-04-15 16:58:32			0	34157	0	0	0	18553	17200	152302	27466	955338	37213	106758	0	0	8160	745860	0	0
2024-04-15 16:59:32			0	34168	0	0	0	18550	17210	152238	27996	955319	37204	106757	0	0	8161	745282	0	0
2024-04-15 17:00:32			0	34149	0	0	0	18555	17200	152294	27788	955338	37192	106759	0	0	8160	746252	0	0
2024-04-15 17:01:32			0	34151	0	0	0	18558	17200	152234	27814	955285	37203	106760	0	0	8160	746154	0	0
2024-04-15 17:02:32			0	34150	0	0	0	18563	17200	152250	27845	955338	37192	106762	0	0	8159	746203	0	0
2024-04-15 17:03:32			0	34186	0	0	0	18555	17210	152214	27435	955346	37204	106759	0	0	8162	744402	0	0
2024-04-15 17:04:32			0	34165	0	0	0	18563	17210	152226	27883	955327	37204	106762	0	0	8160	745429	0	0
2024-04-15 17:05:32			0	34163	0	0	0	18558	17210	152310	27831	955319	37204	106760	0	0	8160	745526	0	0
2024-04-15 17:06:32			0	34147	0	0	0	18553	17200	152282	27436	955364	37213	106758	0	0	8159	746350	0	0
2024-04-15 17:07:32			0	34156	0	0	0	18558	17220	152362	27621	955336	37205	106760	0	0	8160	745828	0	0
2024-04-15 17:08:32			0	34150	0	0	0	18548	17210	152238	27793	955293	37193	106756	0	0	8160	746162	0	0
2024-04-15 17:09:32			0	34147	0	0	0	18548	17200	152314	27253	955311	37203	106756	0	0	8160	746350	0	0
2024-04-15 17:10:32			0	34136	0	0	0	18550	17220	152446	27365	955336	37215	106757	0	0	8159	746807	0	0
2024-04-15 17:11:32			0	34121	0	0	0	18558	17210	152302	27573	955354	37214	106760	0	0	8158	747583	0	0
2024-04-15 17:12:32			0	34130	0	0	0	18558	17200	152466	27412	955311	37203	106760	0	0	8158	747182	0	0
2024-04-15 17:13:32			0	34157	0	0	0	18563	17210	152362	27549	955407	37204	106762	0	0	8160	745820	0	0
2024-04-15 17:14:32			0	34142	0	0	0	18558	17220	152354	27559	955362	37215	106760	0	0	8159	746513	0	0
2024-04-15 17:15:32			0	34145	0	0	0	18558	17210	152330	27483	955327	37204	106760	0	0	8159	746407	0	0
2024-04-15 17:16:32			0	34139	0	0	0	18566	17210	152318	27471	955346	37204	106763	0	0	8159	746701	0	0
2024-04-15 17:17:32			0	34147	0	0	0	18566	17210	152310	27459	955372	37204	106763	0	0	8159	746309	0	0
2024-04-15 17:18:32			0	34152	0	0	0	18558	17220	152298	27623	955441	37205	106760	0	0	8160	746024	0	0
2024-04-15 17:19:32			0	34138	0	0	0	18568	17220	152330	27921	955336	37205	106764	0	0	8159	746709	0	0
2024-04-15 17:20:32			0	34143	0	0	0	18581	17230	152338	27703	955378	37195	106769	0	0	8159	746424	0	0
2024-04-15 17:21:32			0	34160	0	0	0	18563	17220	152302	27767	955388	37226	106762	0	0	8160	745633	0	0
2024-04-15 17:22:32			0	34152	0	0	0	18563	17230	152262	27618	955378	37216	106762	0	0	8160	745983	0	0
2024-04-15 17:23:32			0	34144	0	0	0	18568	17220	152330	27178	955362	37215	106764	0	0	8159	746415	0	0
2024-04-15 17:24:32			0	34134	0	0	0	18568	17240	152322	27419	955395	37195	106764	0	0	8159	746824	0	0
2024-04-15 17:25:32			0	34148	0	0	0	18568	17210	152362	27606	955354	37214	106764	0	0	8159	746260	0	0
2024-04-15 17:26:32			0	34150	0	0	0	18558	17220	152290	27275	955344	37205	106760	0	0	8160	746122	0	0
2024-04-15 17:27:32			0	34142	0	0	0	18574	17230	152314	27232	955431	37216	106766	0	0	8159	746473	0	0
2024-04-15 17:28:32			0	34146	0	0	0	18568	17210	152418	27173	955380	37214	106764	0	0	8159	746358	0	0
2024-04-15 17:29:32			0	34159	0	0	0	18561	17230	152366	27575	955378	37206	106761	0	0	8160	745641	0	0
2024-04-15 17:30:32			0	34160	0	0	0	18568	17230	152322	27597	955405	37216	106764	0	0	8160	745592	0	0
2024-04-15 17:31:32			0	34155	0	0	0	18563	17230	152274	27554	955457	37216	106762	0	0	8160	745837	0	0
2024-04-15 17:32:32			0	34144	0	0	0	18563	17230	152346	27424	955413	37216	106762	0	0	8159	746375	0	0
2024-04-15 17:33:32			0	34146	0	0	0	18563	17220	152370	27350	955388	37194	106762	0	0	8159	746318	0	0
2024-04-15 17:34:32			0	34153	0	0	0	18555	17210	152358	27569	955354	37214	106759	0	0	8160	746016	0	0
2024-04-15 17:35:32			0	34138	0	0	0	18555	17220	152326	27706	955362	37205	106759	0	0	8159	746709	0	0
2024-04-15 17:36:32			0	34148	0	0	0	18555	17230	152278	27689	955405	37206	106759	0	0	8160	746179	0	0
2024-04-15 17:37:32			0	34140	0	0	0	18550	17220	152290	27562	955370	37205	106757	0	0	8159	746611	0	0
2024-04-15 17:38:32			0	34150	0	0	0	18550	17230	152318	27467	955413	37216	106757	0	0	8160	746081	0	0
2024-04-15 17:39:32			0	34126	0	0	0	18563	17230	152278	27211	955405	37216	106762	0	0	8158	747256	0	0
2024-04-15 17:40:32			0	34143	0	0	0	18561	17210	152290	27204	955380	37214	106761	0	0	8159	746505	0	0
2024-04-15 17:41:32			0	34148	0	0	0	18561	17220	152366	27213	955362	37215	106761	0	0	8159	746220	0	0
2024-04-15 17:42:32			0	34149	0	0	0	18566	17220	152330	27253	955423	37215	106763	0	0	8159	746171	0	0
2024-04-15 17:43:32			0	34148	0	0	0	18561	17230	152290	27635	955378	37206	106761	0	0	8159	746179	0	0
2024-04-15 17:44:32			0	34138	0	0	0	18561	17220	152294	27306	955423	37205	106761	0	0	8159	746709	0	0
2024-04-15 17:45:32			0	34137	0	0	0	18563	17210	152306	27235	955346	37204	106762	0	0	8159	746799	0	0
2024-04-15 17:46:32			0	34144	0	0	0	18561	17210	152350	27102	955354	37214	106761	0	0	8159	746456	0	0
2024-04-15 17:47:32			0	34136	0	0	0	18555	17230	152414	27173	955299	37216	106759	0	0	8159	746766	0	0
2024-04-15 17:48:32			0	34116	0	0	0	18548	17220	152358	27268	955415	37205	106756	0	0	8158	747787	0	0
2024-04-15 17:49:32			0	34116	0	0	0	18558	17210	152498	27374	955407	37214	106760	0	0	8158	747828	0	0
2024-04-15 17:50:32			0	34105	0	0	0	18548	17210	152446	27209	955319	37204	106756	0	0	8157	748367	0	0
2024-04-15 17:51:32			0	34115	0	0	0	18558	17220	152486	27308	955415	37205	106760	0	0	8158	747836	0	0
2024-04-15 17:52:32			0	34104	0	0	0	18558	17210	152502	27229	955407	37193	106760	0	0	8157	748416	0	0
2024-04-15 17:53:32			0	34105	0	0	0	18558	17210	152450	27300	955380	37204	106760	0	0	8157	748367	0	0
2024-04-15 17:54:32			0	34105	0	0	0	18568	17210	152578	27350	955354	37193	106764	0	0	8157	748367	0	0
2024-04-15 17:55:32			0	34083	0	0	0	18553	17220	152598	27293	955388	37205	106758	0	0	8156	749406	0	0
2024-04-15 17:56:32			0	34095	0	0	0	18563	17210	152638	27422	955380	37214	106762	0	0	8156	748858	0	0
2024-04-15 17:57:32			0	34075	0	0	0	18566	17210	152494	27789	955380	37214	106763	0	0	8155	749840	0	0
2024-04-15 17:58:32			0	34081	0	0	0	18553	17210	152482	27242	955327	37204	106758	0	0	8156	749545	0	0
2024-04-15 17:59:32			0	34105	0	0	0	18555	17220	152614	27168	955467	37205	106759	0	0	8157	748326	0	0
2024-04-15 18:00:32			0	34088	0	0	0	18566	17210	152638	27320	955380	37214	106763	0	0	8156	749201	0	0
2024-04-15 18:01:32			0	34085	0	0	0	18561	17210	152574	27336	955380	37204	106761	0	0	8156	749349	0	0
2024-04-15 18:02:32			0	34092	0	0	0	18568	17210	152634	27192	955407	37204	106764	0	0	8156	749005	0	0
2024-04-15 18:03:32			0	34069	0	0	0	18571	17210	152650	27112	955372	37204	106765	0	0	8155	750135	0	0
2024-04-15 18:04:32			0	34069	0	0	0	18568	17220	152630	27455	955449	37215	106764	0	0	8155	750094	0	0
2024-04-15 18:05:32			0	34076	0	0	0	18566	17210	152678	27364	955354	37214	106763	0	0	8155	749790	0	0
2024-04-15 18:06:32			0	34093	0	0	0	18561	17230	152642	27229	955431	37216	106761	0	0	8156	748875	0	0
2024-04-15 18:07:32			0	34089	0	0	0	18566	17210	152690	27367	955425	37225	106763	0	0	8156	749152	0	0
2024-04-15 18:08:32			0	34087	0	0	0	18561	17210	152646	27206	955433	37225	106761	0	0	8156	749250	0	0
2024-04-15 18:09:32			0	34099	0	0	0	18574	17220	152550	27258	955370	37215	106766	0	0	8156	748621	0	0
2024-04-15 18:10:32			0	34091	0	0	0	18576	17220	152506	27462	955441	37215	106767	0	0	8156	749013	0	0
2024-04-15 18:11:32			0	34085	0	0	0	18571	17230	152582	27345	955431	37216	106765	0	0	8156	749267	0	0
2024-04-15 18:12:32			0	34076	0	0	0	18568	17230	152622	27407	955352	37216	106764	0	0	8155	749709	0	0
2024-04-15 18:13:32			0	34067	0	0	0	18571	17210	152730	27507	955407	37204	106765	0	0	8155	750233	0	0
2024-04-15 18:14:32			0	34087	0	0	0	18571	17220	152654	27483	955449	37205	106765	0	0	8156	749210	0	0
2024-04-15 18:15:32			0	34071	0	0	0	18571	17220	152678	27222	955476	37226	106765	0	0	8155	749996	0	0
2024-04-15 18:16:32			0	34076	0	0	0	18571	17210	152762	27227	955380	37214	106765	0	0	8155	749790	0	0
2024-04-15 18:17:32			0	34080	0	0	0	18561	17210	152702	27505	955407	37204	106761	0	0	8155	749594	0	0
2024-04-15 18:18:32			0	34066	0	0	0	18563	17200	152730	27178	955364	37213	106762	0	0	8155	750322	0	0
2024-04-15 18:19:32			0	34069	0	0	0	18576	17220	152798	27428	955441	37226	106767	0	0	8155	750094	0	0
2024-04-15 18:20:32			0	34075	0	0	0	18579	17220	152690	27415	955388	37215	106768	0	0	8155	749799	0	0
2024-04-15 18:21:32			0	34077	0	0	0	18592	17230	152814	27357	955378	37216	106773	0	0	8155	749660	0	0
2024-04-15 18:22:32			0	34076	0	0	0	18587	17220	152750	27242	955388	37215	106771	0	0	8155	749750	0	0
2024-04-15 18:23:32			0	34074	0	0	0	18568	17230	152674	27275	955510	37216	106764	0	0	8155	749807	0	0
2024-04-15 18:24:32			0	34073	0	0	0	18581	17230	152726	27220	955413	37227	106769	0	0	8155	749856	0	0
2024-04-15 18:25:32			0	34079	0	0	0	18592	17230	152742	27267	955431	37206	106773	0	0	8155	749562	0	0
2024-04-15 18:26:32			0	34064	0	0	0	18587	17240	152658	27364	955500	37207	106771	0	0	8154	750258	0	0
2024-04-15 18:27:32			0	34059	0	0	0	18584	17220	152746	26961	955396	37215	106770	0	0	8154	750585	0	0
2024-04-15 18:28:32			0	34061	0	0	0	18579	17230	152790	27144	955405	37206	106768	0	0	8154	750446	0	0
2024-04-15 18:29:32			0	34075	0	0	0	18574	17240	152778	27147	955456	37229	106766	0	0	8155	749718	0	0
2024-04-15 18:30:32			0	34066	0	0	0	18574	17230	152846	27324	955386	37216	106766	0	0	8155	750200	0	0
2024-04-15 18:31:32			0	34062	0	0	0	18574	17230	152690	27242	955465	37216	106766	0	0	8154	750397	0	0
2024-04-15 18:32:32			0	34048	0	0	0	18579	17230	152690	27578	955457	37206	106768	0	0	8153	751085	0	0
2024-04-15 18:33:32			0	34067	0	0	0	18589	17240	152698	27587	955448	37217	106772	0	0	8154	750110	0	0
2024-04-15 18:34:32			0	34065	0	0	0	18594	17230	152774	27211	955431	37227	106774	0	0	8154	750250	0	0
2024-04-15 18:35:32			0	34056	0	0	0	18602	17230	152790	27055	955465	37238	106777	0	0	8154	750692	0	0
2024-04-15 18:36:32			0	34048	0	0	0	18592	17230	152766	27535	955492	37216	106773	0	0	8153	751085	0	0
2024-04-15 18:37:32			0	34049	0	0	0	18579	17230	152798	27519	955465	37216	106768	0	0	8153	751036	0	0
2024-04-15 18:38:32			0	34045	0	0	0	18574	17240	152878	27462	955500	37217	106766	0	0	8153	751192	0	0
2024-04-15 18:39:32			0	34062	0	0	0	18579	17240	152826	27235	955448	37217	106768	0	0	8154	750356	0	0
2024-04-15 18:40:32			0	34059	0	0	0	18579	17240	152662	27547	955429	37218	106768	0	0	8154	750504	0	0
2024-04-15 18:41:32			0	34057	0	0	0	18584	17230	152630	27303	955439	37216	106770	0	0	8154	750643	0	0
2024-04-15 18:42:32			0	34052	0	0	0	18587	17230	152690	27152	955465	37216	106771	0	0	8154	750889	0	0
2024-04-15 18:43:32			0	34055	0	0	0	18579	17230	152702	27523	955431	37216	106768	0	0	8154	750741	0	0
2024-04-15 18:44:32			0	34059	0	0	0	18574	17230	152702	27197	955405	37227	106766	0	0	8154	750545	0	0
2024-04-15 18:45:32			0	34051	0	0	0	18574	17230	152754	27566	955431	37216	106766	0	0	8154	750938	0	0
2024-04-15 18:46:32			0	34075	0	0	0	18574	17230	152746	27334	955465	37216	106766	0	0	8155	749758	0	0
2024-04-15 18:47:32			0	34062	0	0	0	18584	17240	152674	27791	955421	37217	106770	0	0	8154	750356	0	0
2024-04-15 18:48:32			0	34054	0	0	0	18584	17230	152678	27479	955431	37216	106770	0	0	8154	750790	0	0
2024-04-15 18:49:32			0	34063	0	0	0	18589	17230	152658	27578	955431	37227	106772	0	0	8154	750348	0	0
2024-04-15 18:50:32			0	34049	0	0	0	18592	17230	152602	27412	955510	37216	106773	0	0	8153	751036	0	0
2024-04-15 18:51:32			0	34073	0	0	0	18594	17230	152634	27448	955465	37216	106774	0	0	8155	749856	0	0
2024-04-15 18:52:32			0	34058	0	0	0	18592	17230	152710	27400	955510	37238	106773	0	0	8154	750594	0	0
2024-04-15 18:53:32			0	34058	0	0	0	18592	17230	152666	27211	955457	37216	106773	0	0	8154	750594	0	0
2024-04-15 18:54:32			0	34067	0	0	0	18594	17240	152678	27377	955448	37239	106774	0	0	8154	750110	0	0
2024-04-15 18:55:32			0	34074	0	0	0	18610	17230	152686	27433	955492	37238	106780	0	0	8154	749807	0	0
2024-04-15 18:56:32			0	34052	0	0	0	18602	17240	152714	27277	955553	37217	106777	0	0	8153	750848	0	0
2024-04-15 18:57:32			0	34054	0	0	0	18602	17240	152726	27509	955553	37217	106777	0	0	8153	750750	0	0
2024-04-15 18:58:32			0	34030	0	0	0	18610	17250	152838	27533	955517	37229	106780	0	0	8152	751890	0	0
2024-04-15 18:59:32			0	34037	0	0	0	18605	17250	152782	27670	955543	37218	106778	0	0	8152	751545	0	0
2024-04-15 19:00:32			0	34024	0	0	0	18612	17240	152978	27633	955535	37229	106781	0	0	8152	752226	0	0
2024-04-15 19:01:32			0	34016	0	0	0	18607	17250	152878	27407	955577	37229	106779	0	0	8151	752579	0	0
2024-04-15 19:02:32			0	34018	0	0	0	18610	17240	152870	27261	955561	37218	106780	0	0	8151	752521	0	0
2024-04-15 19:03:32			0	33992	0	0	0	18607	17250	152842	27003	955569	37229	106779	0	0	8150	753762	0	0
2024-04-15 19:04:32			0	34010	0	0	0	18610	17250	152838	27242	955525	37229	106780	0	0	8151	752875	0	0
2024-04-15 19:05:32			0	34005	0	0	0	18607	17250	152910	27350	955577	37229	106779	0	0	8151	753121	0	0
2024-04-15 19:06:32			0	34016	0	0	0	18618	17250	152922	27211	955577	37229	106783	0	0	8151	752579	0	0
2024-04-15 19:07:32			0	34012	0	0	0	18610	17250	153030	27538	955551	37229	106780	0	0	8151	752776	0	0
2024-04-15 19:08:32			0	34000	0	0	0	18610	17260	152982	27441	955533	37229	106780	0	0	8150	753327	0	0
2024-04-15 19:09:32			0	34009	0	0	0	18607	17250	153018	27156	955551	37229	106779	0	0	8151	752924	0	0
2024-04-15 19:10:32			0	33994	0	0	0	18607	17250	152978	27227	955525	37218	106779	0	0	8150	753663	0	0
2024-04-15 19:11:32			0	34020	0	0	0	18612	17260	153014	27239	955567	37230	106781	0	0	8151	752341	0	0
2024-04-15 19:12:32			0	33991	0	0	0	18607	17250	153070	27064	955577	37229	106779	0	0	8150	753811	0	0
2024-04-15 19:13:32			0	34002	0	0	0	18602	17260	153030	27171	955638	37218	106777	0	0	8151	753228	0	0
2024-04-15 19:14:32			0	33995	0	0	0	18605	17250	152982	27415	955577	37229	106778	0	0	8150	753614	0	0
2024-04-15 19:15:32			0	33976	0	0	0	18602	17260	153022	27253	955559	37229	106777	0	0	8149	754511	0	0
2024-04-15 19:16:32			0	33985	0	0	0	18607	17260	153070	27248	955567	37230	106779	0	0	8149	754067	0	0
2024-04-15 19:17:32			0	33990	0	0	0	18610	17260	153090	27326	955594	37242	106780	0	0	8150	753820	0	0
2024-04-15 19:18:32			0	33986	0	0	0	18605	17260	153046	27350	955586	37229	106778	0	0	8150	754017	0	0
2024-04-15 19:19:32			0	33985	0	0	0	18605	17260	153110	27358	955559	37229	106778	0	0	8149	754067	0	0
2024-04-15 19:20:32			0	33989	0	0	0	18602	17260	153086	27319	955541	37230	106777	0	0	8150	753869	0	0
2024-04-15 19:21:32			0	33982	0	0	0	18602	17260	153054	27357	955567	37219	106777	0	0	8149	754215	0	0
2024-04-15 19:22:32			0	33990	0	0	0	18615	17260	153082	27267	955567	37230	106782	0	0	8150	753820	0	0
2024-04-15 19:23:32			0	33986	0	0	0	18654	17260	153086	27424	955647	37230	106797	0	0	8149	754017	0	0
2024-04-15 19:24:32			0	33982	0	0	0	18641	17270	153054	26975	955734	37230	106792	0	0	8149	754174	0	0
2024-04-15 19:25:32			0	33997	0	0	0	18649	17280	153102	27255	955697	37242	106795	0	0	8150	753393	0	0
2024-04-15 19:26:32			0	34011	0	0	0	18677	17270	152958	27298	955681	37230	106806	0	0	8150	752744	0	0
2024-04-15 19:27:32			0	34019	0	0	0	18667	17280	152922	27145	955705	37221	106802	0	0	8151	752309	0	0
2024-04-15 19:28:32			0	34029	0	0	0	18677	17280	152950	27564	955732	37232	106806	0	0	8151	751816	0	0
2024-04-15 19:29:32			0	34041	0	0	0	18701	17290	152802	27448	955801	37244	106815	0	0	8151	751185	0	0
2024-04-15 19:30:32			0	34063	0	0	0	18701	17300	152886	27190	955923	37245	106815	0	0	8153	750063	0	0
2024-04-15 19:31:32			0	34053	0	0	0	18706	17300	152746	27161	955896	37245	106817	0	0	8152	750554	0	0
2024-04-15 19:32:32			0	34079	0	0	0	18716	17310	152706	27213	955931	37234	106821	0	0	8153	749236	0	0
2024-04-15 19:33:32			0	34092	0	0	0	18711	17310	152634	27261	955939	37234	106819	0	0	8154	748598	0	0
2024-04-15 19:34:32			0	34084	0	0	0	18724	17330	152594	27102	955937	37236	106824	0	0	8154	748909	0	0
2024-04-15 19:35:32			0	34099	0	0	0	18727	17320	152562	27074	955929	37246	106825	0	0	8154	748214	0	0
2024-04-15 19:36:32			0	34118	0	0	0	18727	17330	152486	27145	955963	37257	106825	0	0	8155	747242	0	0
2024-04-15 19:37:32			0	34116	0	0	0	18706	17330	152418	27280	956016	37247	106817	0	0	8156	747340	0	0
2024-04-15 19:38:32			0	34124	0	0	0	18722	17350	152294	27196	955988	37258	106823	0	0	8156	746867	0	0
2024-04-15 19:39:32			0	34112	0	0	0	18729	17350	152518	27436	956014	37258	106826	0	0	8155	747455	0	0
2024-04-15 19:40:32			0	34120	0	0	0	18735	17360	152486	27090	956004	37250	106828	0	0	8156	747023	0	0
2024-04-15 19:41:32			0	34122	0	0	0	18735	17360	152530	27074	955978	37260	106828	0	0	8156	746925	0	0
2024-04-15 19:42:32			0	34119	0	0	0	18740	17360	152486	27332	955986	37250	106830	0	0	8155	747072	0	0
2024-04-15 19:43:32			0	34143	0	0	0	18758	17360	152446	27187	956039	37239	106837	0	0	8156	745897	0	0
2024-04-15 19:44:32			0	34122	0	0	0	18755	17370	152502	27393	956082	37250	106836	0	0	8155	746884	0	0
2024-04-15 19:45:32			0	34148	0	0	0	18761	17370	152358	27294	956073	37260	106838	0	0	8157	745612	0	0
2024-04-15 19:46:32			0	34137	0	0	0	18758	17380	152258	27291	956143	37250	106837	0	0	8156	746109	0	0
2024-04-15 19:47:32			0	34160	0	0	0	18755	17370	152322	27079	956134	37250	106836	0	0	8158	745025	0	0
2024-04-15 19:48:32			0	34169	0	0	0	18758	17380	152126	27192	956143	37261	106837	0	0	8158	744545	0	0
2024-04-15 19:49:32			0	34169	0	0	0	18758	17380	152126	27222	956071	37250	106837	0	0	8158	744545	0	0
2024-04-15 19:50:32			0	34191	0	0	0	18758	17390	152126	27216	956159	37240	106837	0	0	8159	743431	0	0
2024-04-15 19:51:32			0	34176	0	0	0	18768	17390	152146	27118	956106	37261	106841	0	0	8158	744163	0	0
2024-04-15 19:52:32			0	34186	0	0	0	18763	17390	152094	26961	956159	37250	106839	0	0	8159	743675	0	0
2024-04-15 19:53:32			0	34171	0	0	0	18768	17390	152074	26937	956193	37251	106841	0	0	8158	744407	0	0
2024-04-15 19:54:32			0	34189	0	0	0	18761	17390	152054	27111	956167	37251	106838	0	0	8159	743528	0	0
2024-04-15 19:55:32			0	34180	0	0	0	18779	17390	152094	27133	956220	37262	106845	0	0	8158	743968	0	0
2024-04-15 19:56:32			0	34194	0	0	0	18779	17400	152014	27062	956175	37274	106845	0	0	8159	743244	0	0
2024-04-15 19:57:32			0	34212	0	0	0	18771	17400	151962	27691	956201	37263	106842	0	0	8160	742366	0	0
2024-04-15 19:58:32			0	34183	0	0	0	18779	17410	152014	27204	956165	37242	106845	0	0	8159	743740	0	0
2024-04-15 19:59:32			0	34206	0	0	0	18771	17400	152038	27332	956236	37252	106842	0	0	8160	742659	0	0
2024-04-15 20:00:32			0	34212	0	0	0	18779	17400	151946	26849	956175	37263	106845	0	0	8160	742366	0	0
2024-04-15 20:01:32			0	34235	0	0	0	18766	17410	151934	27038	956244	37252	106840	0	0	8162	741206	0	0
2024-04-15 20:02:32			0	34223	0	0	0	18774	17400	151922	27313	956236	37252	106843	0	0	8161	741831	0	0
2024-04-15 20:03:32			0	34232	0	0	0	18771	17410	151958	27088	956199	37275	106842	0	0	8162	741352	0	0
2024-04-15 20:04:32			0	34232	0	0	0	18776	17400	151986	27402	956210	37263	106844	0	0	8161	741392	0	0
2024-04-15 20:05:32			0	34233	0	0	0	18776	17410	151858	27296	956244	37252	106844	0	0	8162	741303	0	0
2024-04-15 20:06:32			0	34232	0	0	0	18774	17410	151882	27298	956191	37252	106843	0	0	8162	741352	0	0
2024-04-15 20:07:32			0	34230	0	0	0	18771	17420	151994	27185	956269	37277	106842	0	0	8162	741409	0	0
2024-04-15 20:08:32			0	34218	0	0	0	18774	17420	151898	27261	956242	37266	106843	0	0	8161	741993	0	0
2024-04-15 20:09:32			0	34235	0	0	0	18779	17410	151882	27005	956244	37242	106845	0	0	8162	741206	0	0
2024-04-15 20:10:32			0	34229	0	0	0	18779	17410	151926	27050	956226	37253	106845	0	0	8161	741498	0	0
2024-04-15 20:11:32			0	34224	0	0	0	18771	17410	151934	27109	956226	37264	106842	0	0	8161	741742	0	0
2024-04-15 20:12:32			0	34229	0	0	0	18771	17420	151834	27076	956287	37254	106842	0	0	8161	741458	0	0
2024-04-15 20:13:32			0	34226	0	0	0	18774	17420	151822	27258	956260	37265	106843	0	0	8161	741604	0	0
2024-04-15 20:14:32			0	34236	0	0	0	18768	17420	151762	27383	956260	37254	106841	0	0	8162	741117	0	0
2024-04-15 20:15:32			0	34247	0	0	0	18768	17420	151830	27209	956295	37254	106841	0	0	8163	740582	0	0
2024-04-15 20:16:32			0	34248	0	0	0	18771	17420	151822	27289	956234	37265	106842	0	0	8163	740533	0	0
2024-04-15 20:17:32			0	34233	0	0	0	18774	17410	151818	27533	956279	37253	106843	0	0	8162	741303	0	0
2024-04-15 20:18:32			0	34236	0	0	0	18776	17420	151878	27341	956269	37277	106844	0	0	8162	741117	0	0
2024-04-15 20:19:32			0	34240	0	0	0	18768	17410	151822	27192	956199	37253	106841	0	0	8162	740963	0	0
2024-04-15 20:20:32			0	34237	0	0	0	18766	17420	151906	27251	956287	37254	106840	0	0	8162	741068	0	0
2024-04-15 20:21:32			0	34260	0	0	0	18768	17420	151866	27072	956234	37276	106841	0	0	8163	739950	0	0
2024-04-15 20:22:32			0	34244	0	0	0	18776	17420	151786	27448	956269	37254	106844	0	0	8162	740728	0	0
2024-04-15 20:23:32			0	34262	0	0	0	18766	17410	151850	27341	956252	37253	106840	0	0	8163	739893	0	0
2024-04-15 20:24:32			0	34258	0	0	0	18771	17420	151826	26850	956295	37254	106842	0	0	8163	740047	0	0
2024-04-15 20:25:32			0	34247	0	0	0	18768	17430	151830	27308	956224	37244	106841	0	0	8163	740541	0	0
2024-04-15 20:26:32			0	34257	0	0	0	18768	17420	151882	27324	956260	37244	106841	0	0	8163	740096	0	0
2024-04-15 20:27:32			0	34260	0	0	0	18774	17420	151774	26920	956269	37244	106843	0	0	8163	739950	0	0
2024-04-15 20:28:32			0	34277	0	0	0	18758	17420	151738	26916	956181	37254	106837	0	0	8164	739124	0	0
2024-04-15 20:29:32			0	34260	0	0	0	18768	17420	151754	27376	956313	37265	106841	0	0	8163	739950	0	0
2024-04-15 20:30:32			0	34273	0	0	0	18753	17420	151698	27320	956287	37265	106835	0	0	8164	739318	0	0
2024-04-15 20:31:32			0	34273	0	0	0	18768	17420	151754	27393	956234	37254	106841	0	0	8164	739318	0	0
2024-04-15 20:32:32			0	34247	0	0	0	18768	17420	151754	27201	956260	37265	106841	0	0	8163	740582	0	0
2024-04-15 20:33:32			0	34270	0	0	0	18771	17420	151726	27351	956242	37277	106842	0	0	8164	739464	0	0
2024-04-15 20:34:32			0	34273	0	0	0	18766	17420	151750	26989	956313	37254	106840	0	0	8164	739318	0	0
2024-04-15 20:35:32			0	34275	0	0	0	18766	17430	151590	27300	956250	37266	106840	0	0	8164	739181	0	0
2024-04-15 20:36:32			0	34281	0	0	0	18753	17420	151654	27209	956269	37254	106835	0	0	8165	738930	0	0
2024-04-15 20:37:32			0	34274	0	0	0	18768	17420	151754	27428	956295	37277	106841	0	0	8164	739270	0	0
2024-04-15 20:38:32			0	34272	0	0	0	18763	17420	151690	26939	956189	37266	106839	0	0	8164	739367	0	0
2024-04-15 20:39:32			0	34295	0	0	0	18771	17420	151690	27332	956287	37276	106842	0	0	8165	738250	0	0
2024-04-15 20:40:32			0	34283	0	0	0	18776	17420	151666	26987	956269	37288	106844	0	0	8164	738833	0	0
2024-04-15 20:41:32			0	34279	0	0	0	18774	17420	151666	27253	956260	37265	106843	0	0	8164	739027	0	0
2024-04-15 20:42:32			0	34301	0	0	0	18776	17420	151630	27338	956348	37254	106844	0	0	8165	737959	0	0
2024-04-15 20:43:32			0	34301	0	0	0	18797	17430	151474	26889	956277	37266	106852	0	0	8165	737919	0	0
2024-04-15 20:44:32			0	34302	0	0	0	18779	17420	151666	27367	956295	37266	106845	0	0	8166	737911	0	0
2024-04-15 20:45:32			0	34302	0	0	0	18776	17430	151538	27485	956364	37266	106844	0	0	8166	737870	0	0
2024-04-15 20:46:32			0	34304	0	0	0	18784	17430	151550	27390	956303	37266	106847	0	0	8166	737773	0	0
2024-04-15 20:47:32			0	34319	0	0	0	18786	17430	151570	27208	956329	37266	106848	0	0	8166	737046	0	0
2024-04-15 20:48:32			0	34302	0	0	0	18781	17430	151570	27112	956338	37254	106846	0	0	8166	737870	0	0
2024-04-15 20:49:32			0	34306	0	0	0	18802	17430	151662	27455	956364	37254	106854	0	0	8165	737676	0	0
2024-04-15 20:50:32			0	34322	0	0	0	18794	17440	151486	27287	956346	37278	106851	0	0	8166	736861	0	0
2024-04-15 20:51:32			0	34305	0	0	0	18781	17430	151554	27310	956364	37266	106846	0	0	8166	737725	0	0
2024-04-15 20:52:32			0	34302	0	0	0	18789	17430	151570	27152	956338	37266	106849	0	0	8165	737870	0	0
2024-04-15 20:53:32			0	34334	0	0	0	18794	17430	151446	27066	956364	37254	106851	0	0	8167	736320	0	0
2024-04-15 20:54:32			0	34313	0	0	0	18794	17430	151514	27033	956364	37254	106851	0	0	8166	737337	0	0
2024-04-15 20:55:32			0	34302	0	0	0	18799	17430	151522	27053	956364	37244	106853	0	0	8165	737870	0	0
2024-04-15 20:56:32			0	34319	0	0	0	18792	17430	151514	27232	956338	37254	106850	0	0	8166	737046	0	0
2024-04-15 20:57:32			0	34316	0	0	0	18794	17440	151582	27410	956380	37278	106851	0	0	8166	737152	0	0
2024-04-15 20:58:32			0	34324	0	0	0	18799	17450	151466	27242	956388	37278	106853	0	0	8167	736724	0	0
2024-04-15 20:59:32			0	34312	0	0	0	18799	17440	151434	27111	956346	37266	106853	0	0	8166	737345	0	0
2024-04-15 21:00:32			0	34324	0	0	0	18802	17440	151502	27107	956319	37255	106854	0	0	8166	736764	0	0
2024-04-15 21:01:32			0	34317	0	0	0	18802	17440	151486	27258	956433	37267	106854	0	0	8166	737103	0	0
2024-04-15 21:02:32			0	34326	0	0	0	18799	17440	151458	27355	956380	37278	106853	0	0	8167	736667	0	0
2024-04-15 21:03:32			0	34342	0	0	0	18794	17440	151458	27251	956346	37255	106851	0	0	8168	735893	0	0
2024-04-15 21:04:32			0	34345	0	0	0	18794	17440	151395	27215	956380	37278	106851	0	0	8168	735747	0	0
2024-04-15 21:05:32			0	34315	0	0	0	18794	17440	151490	27170	956380	37267	106851	0	0	8166	737200	0	0
2024-04-15 21:06:32			0	34317	0	0	0	18784	17440	151530	27412	956327	37267	106847	0	0	8166	737103	0	0
2024-04-15 21:07:32			0	34313	0	0	0	18794	17440	151502	27064	956380	37278	106851	0	0	8166	737297	0	0
2024-04-15 21:08:32			0	34306	0	0	0	18786	17430	151614	27345	956390	37254	106848	0	0	8166	737676	0	0
2024-04-15 21:09:32			0	34327	0	0	0	18799	17450	151542	27192	956468	37267	106853	0	0	8167	736579	0	0
2024-04-15 21:10:32			0	34307	0	0	0	18794	17440	151566	27027	956327	37278	106851	0	0	8166	737588	0	0
2024-04-15 21:11:32			0	34313	0	0	0	18784	17440	151586	26783	956380	37267	106847	0	0	8166	737297	0	0
2024-04-15 21:12:32			0	34307	0	0	0	18779	17430	151506	27256	956329	37266	106845	0	0	8166	737628	0	0
2024-04-15 21:13:32			0	34302	0	0	0	18784	17440	151562	27263	956380	37256	106847	0	0	8166	737830	0	0
2024-04-15 21:14:32			0	34297	0	0	0	18786	17430	151514	27010	956364	37254	106848	0	0	8165	738113	0	0
2024-04-15 21:15:32			0	34290	0	0	0	18789	17440	151550	27060	956319	37278	106849	0	0	8165	738412	0	0
2024-04-15 21:16:32			0	34308	0	0	0	18781	17440	151510	27083	956346	37266	106846	0	0	8166	737539	0	0
2024-04-15 21:17:32			0	34288	0	0	0	18786	17440	151566	27175	956354	37278	106848	0	0	8165	738510	0	0
2024-04-15 21:18:32			0	34298	0	0	0	18786	17430	151518	27171	956338	37277	106848	0	0	8165	738064	0	0
2024-04-15 21:19:32			0	34324	0	0	0	18781	17440	151582	26986	956372	37245	106846	0	0	8167	736764	0	0
2024-04-15 21:20:32			0	34314	0	0	0	18779	17440	151522	26916	956380	37267	106845	0	0	8166	737249	0	0
2024-04-15 21:21:32			0	34321	0	0	0	18784	17440	151534	27050	956372	37255	106847	0	0	8167	736909	0	0
2024-04-15 21:22:32			0	34315	0	0	0	18784	17440	151486	27350	956346	37255	106847	0	0	8166	737200	0	0
2024-04-15 21:23:32			0	34318	0	0	0	18789	17440	151530	27190	956319	37266	106849	0	0	8166	737055	0	0
2024-04-15 21:24:32			0	34290	0	0	0	18781	17430	151522	27145	956390	37266	106846	0	0	8165	738452	0	0
2024-04-15 21:25:32			0	34293	0	0	0	18781	17430	151622	27281	956285	37288	106846	0	0	8165	738307	0	0
2024-04-15 21:26:32			0	34293	0	0	0	18776	17430	151686	27308	956329	37266	106844	0	0	8165	738307	0	0
2024-04-15 21:27:32			0	34289	0	0	0	18776	17440	151674	27140	956327	37278	106844	0	0	8165	738461	0	0
2024-04-15 21:28:32			0	34273	0	0	0	18779	17440	151770	27097	956266	37266	106845	0	0	8164	739238	0	0
2024-04-15 21:29:32			0	34262	0	0	0	18774	17430	151794	27111	956311	37266	106843	0	0	8163	739812	0	0
2024-04-15 21:30:32			0	34240	0	0	0	18774	17430	151834	27438	956311	37277	106843	0	0	8162	740882	0	0
2024-04-15 21:31:32			0	34213	0	0	0	18776	17430	151918	27138	956303	37266	106844	0	0	8161	742197	0	0
2024-04-15 21:32:32			0	34236	0	0	0	18774	17430	151862	27038	956311	37277	106843	0	0	8162	741077	0	0
2024-04-15 21:33:32			0	34234	0	0	0	18766	17430	151882	27045	956277	37254	106840	0	0	8162	741174	0	0
2024-04-15 21:34:32			0	34247	0	0	0	18771	17430	151746	27171	956303	37254	106842	0	0	8163	740541	0	0
2024-04-15 21:35:32			0	34237	0	0	0	18768	17430	151726	27088	956338	37277	106841	0	0	8162	741028	0	0
2024-04-15 21:36:32			0	34248	0	0	0	18768	17430	151754	27272	956329	37266	106841	0	0	8163	740493	0	0
2024-04-15 21:37:32			0	34250	0	0	0	18766	17430	151826	27196	956382	37266	106840	0	0	8163	740396	0	0
2024-04-15 21:38:32			0	34257	0	0	0	18774	17430	151834	27370	956364	37254	106843	0	0	8163	740055	0	0
2024-04-15 21:39:32			0	34244	0	0	0	18781	17430	151786	27481	956338	37254	106846	0	0	8162	740687	0	0
2024-04-15 21:40:32			0	34240	0	0	0	18776	17430	151898	27270	956303	37277	106844	0	0	8162	740882	0	0
2024-04-15 21:41:32			0	34221	0	0	0	18774	17420	151850	27001	956295	37288	106843	0	0	8161	741847	0	0
2024-04-15 21:42:32			0	34243	0	0	0	18768	17420	151838	27166	956295	37254	106841	0	0	8162	740776	0	0
2024-04-15 21:43:32			0	34208	0	0	0	18766	17420	151850	27431	956295	37266	106840	0	0	8160	742481	0	0
2024-04-15 21:44:32			0	34208	0	0	0	18763	17420	152066	27076	956269	37277	106839	0	0	8160	742481	0	0
2024-04-15 21:45:32			0	34214	0	0	0	18768	17430	152050	27086	956329	37266	106841	0	0	8161	742148	0	0
2024-04-15 21:46:32			0	34183	0	0	0	18774	17420	152122	27445	956269	37254	106843	0	0	8159	743700	0	0
2024-04-15 21:47:32			0	34158	0	0	0	18771	17420	152146	27429	956321	37277	106842	0	0	8157	744920	0	0
2024-04-15 21:48:32			0	34159	0	0	0	18774	17420	152214	27114	956374	37266	106843	0	0	8157	744872	0	0
2024-04-15 21:49:32			0	34171	0	0	0	18771	17420	152242	27229	956269	37254	106842	0	0	8158	744285	0	0
2024-04-15 21:50:32			0	34168	0	0	0	18771	17430	152198	27348	956356	37254	106842	0	0	8158	744392	0	0
2024-04-15 21:51:32			0	34155	0	0	0	18771	17420	152290	27145	956321	37277	106842	0	0	8157	745067	0	0
2024-04-15 21:52:32			0	34157	0	0	0	18781	17410	152262	27303	956331	37264	106846	0	0	8157	745010	0	0
2024-04-15 21:53:32			0	34141	0	0	0	18774	17420	152222	27372	956313	37276	106843	0	0	8156	745752	0	0
2024-04-15 21:54:32			0	34164	0	0	0	18774	17420	152338	27255	956313	37276	106843	0	0	8158	744627	0	0
2024-04-15 21:55:32			0	34152	0	0	0	18774	17420	152266	27467	956269	37266	106843	0	0	8157	745214	0	0
2024-04-15 21:56:32			0	34151	0	0	0	18771	17420	152266	27377	956287	37254	106842	0	0	8157	745263	0	0
2024-04-15 21:57:32			0	34160	0	0	0	18774	17420	152306	27109	956348	37288	106843	0	0	8157	744823	0	0
2024-04-15 21:58:32			0	34153	0	0	0	18776	17410	152242	27341	956429	37274	106844	0	0	8157	745205	0	0
2024-04-15 21:59:32			0	34160	0	0	0	18786	17430	152282	27433	956356	37266	106848	0	0	8157	744782	0	0
2024-04-15 22:00:32			0	34164	0	0	0	18794	17420	152318	27296	956374	37288	106851	0	0	8157	744627	0	0
2024-04-15 22:01:32			0	34166	0	0	0	18786	17420	152310	27140	956374	37266	106848	0	0	8158	744530	0	0
2024-04-15 22:02:32			0	34147	0	0	0	18776	17420	152302	27365	956374	37266	106844	0	0	8157	745458	0	0
2024-04-15 22:03:32			0	34150	0	0	0	18779	17430	152326	27315	956382	37266	106845	0	0	8157	745271	0	0
2024-04-15 22:04:32			0	34148	0	0	0	18784	17430	152434	27228	956364	37277	106847	0	0	8157	745369	0	0
2024-04-15 22:05:32			0	34124	0	0	0	18774	17420	152402	27024	956374	37277	106843	0	0	8155	746583	0	0
2024-04-15 22:06:32			0	34118	0	0	0	18774	17430	152374	26923	956303	37266	106843	0	0	8155	746836	0	0
2024-04-15 22:07:32			0	34133	0	0	0	18768	17430	152470	27109	956382	37277	106841	0	0	8156	746102	0	0
2024-04-15 22:08:32			0	34122	0	0	0	18766	17440	152462	27114	956319	37266	106840	0	0	8156	746600	0	0
2024-04-15 22:09:32			0	34105	0	0	0	18750	17420	152466	27289	956287	37276	106834	0	0	8155	747514	0	0
2024-04-15 22:10:32			0	34090	0	0	0	18761	17420	152582	27088	956313	37265	106838	0	0	8154	748249	0	0
2024-04-15 22:11:32			0	34049	0	0	0	18750	17410	152754	27312	956279	37275	106834	0	0	8151	750302	0	0
2024-04-15 22:12:32			0	34034	0	0	0	18755	17430	152822	26863	956277	37254	106836	0	0	8151	750958	0	0
2024-04-15 22:13:32			0	34005	0	0	0	18745	17410	153002	27098	956305	37253	106832	0	0	8149	752467	0	0
2024-04-15 22:14:32			0	33991	0	0	0	18748	17420	153078	27315	956295	37254	106833	0	0	8148	753115	0	0
2024-04-15 22:15:32			0	33979	0	0	0	18745	17410	153158	27204	956244	37263	106832	0	0	8147	753748	0	0
2024-04-15 22:16:32			0	33944	0	0	0	18740	17410	153242	27563	956252	37264	106830	0	0	8146	755476	0	0
2024-04-15 22:17:32			0	33927	0	0	0	18737	17410	153278	27348	956218	37263	106829	0	0	8145	756316	0	0
2024-04-15 22:18:32			0	33896	0	0	0	18735	17400	153438	27490	956228	37263	106828	0	0	8143	757891	0	0
2024-04-15 22:19:32			0	33890	0	0	0	18737	17400	153566	27138	956228	37274	106829	0	0	8142	758189	0	0
2024-04-15 22:20:32			0	33857	0	0	0	18729	17400	153650	26989	956175	37285	106826	0	0	8141	759825	0	0
2024-04-15 22:21:32			0	33858	0	0	0	18737	17400	153722	27293	956175	37274	106829	0	0	8141	759775	0	0
2024-04-15 22:22:32			0	33821	0	0	0	18729	17400	153718	27338	956122	37263	106826	0	0	8139	761613	0	0
2024-04-15 22:23:32			0	33816	0	0	0	18732	17400	153766	27064	956122	37263	106827	0	0	8138	761862	0	0
2024-04-15 22:24:32			0	33808	0	0	0	18722	17390	153926	27428	956185	37261	106823	0	0	8138	762302	0	0
2024-04-15 22:25:32			0	33792	0	0	0	18732	17390	153898	27312	956220	37262	106827	0	0	8137	763098	0	0
2024-04-15 22:26:32			0	33771	0	0	0	18727	17400	153986	27131	956149	37252	106825	0	0	8136	764103	0	0
2024-04-15 22:27:32			0	33772	0	0	0	18719	17380	153998	27109	956143	37261	106822	0	0	8136	764136	0	0
2024-04-15 22:28:32			0	33786	0	0	0	18732	17390	154034	27228	956159	37261	106827	0	0	8136	763397	0	0
2024-04-15 22:29:32			0	33775	0	0	0	18727	17380	154030	26956	956177	37261	106825	0	0	8136	763987	0	0
2024-04-15 22:30:32			0	33778	0	0	0	18722	17390	154122	27249	956132	37250	106823	0	0	8136	763796	0	0
2024-04-15 22:31:32			0	33774	0	0	0	18716	17380	154142	27199	956151	37273	106821	0	0	8136	764037	0	0
2024-04-15 22:32:32			0	33751	0	0	0	18722	17380	154118	26939	956116	37261	106823	0	0	8134	765184	0	0
2024-04-15 22:33:32			0	33753	0	0	0	18724	17380	154210	27029	956124	37273	106824	0	0	8135	765084	0	0
2024-04-15 22:34:32			0	33756	0	0	0	18729	17380	154118	27493	956124	37261	106826	0	0	8135	764934	0	0
2024-04-15 22:35:32			0	33747	0	0	0	18716	17390	154194	27372	956132	37261	106821	0	0	8134	765342	0	0
2024-04-15 22:36:32			0	33758	0	0	0	18716	17380	154274	27206	956203	37261	106821	0	0	8135	764835	0	0
2024-04-15 22:37:32			0	33724	0	0	0	18706	17370	154386	27523	956073	37282	106817	0	0	8133	766574	0	0
2024-04-15 22:38:32			0	33696	0	0	0	18706	17380	154358	27486	956037	37273	106817	0	0	8132	767933	0	0
2024-04-15 22:39:32			0	33696	0	0	0	18714	17380	154370	27267	956098	37273	106820	0	0	8131	767933	0	0
2024-04-15 22:40:32			0	33701	0	0	0	18722	17370	154406	27516	956108	37272	106823	0	0	8132	767724	0	0
2024-04-15 22:41:32			0	33706	0	0	0	18711	17380	154474	27244	956063	37261	106819	0	0	8132	767433	0	0
2024-04-15 22:42:32			0	33696	0	0	0	18716	17370	154618	27651	956108	37250	106821	0	0	8131	767975	0	0
2024-04-15 22:43:32			0	33699	0	0	0	18727	17380	154446	27225	956143	37284	106825	0	0	8131	767783	0	0
2024-04-15 22:44:32			0	33705	0	0	0	18724	17370	154570	27691	956100	37250	106824	0	0	8132	767524	0	0
2024-04-15 22:45:32			0	33697	0	0	0	18722	17380	154494	27329	956169	37261	106823	0	0	8131	767883	0	0
2024-04-15 22:46:32			0	33709	0	0	0	18724	17380	154382	27635	956222	37261	106824	0	0	8132	767283	0	0
2024-04-15 22:47:32			0	33702	0	0	0	18742	17380	154522	27847	956195	37250	106831	0	0	8131	767633	0	0
2024-04-15 22:48:32			0	33728	0	0	0	18729	17380	154342	27324	956222	37273	106826	0	0	8133	766333	0	0
2024-04-15 22:49:32			0	33761	0	0	0	18750	17390	154074	27607	956185	37273	106834	0	0	8135	764643	0	0
2024-04-15 22:50:32			0	33759	0	0	0	18719	17390	154162	27332	956185	37284	106822	0	0	8135	764743	0	0
2024-04-15 22:51:32			0	33711	0	0	0	18716	17380	154322	27270	956116	37261	106821	0	0	8132	767183	0	0
2024-04-15 22:52:32			0	33691	0	0	0	18727	17380	154438	27357	956143	37261	106825	0	0	8131	768183	0	0
2024-04-15 22:53:32			0	33693	0	0	0	18711	17370	154418	27379	956134	37261	106819	0	0	8131	768125	0	0
2024-04-15 22:54:32			0	33679	0	0	0	18709	17370	154650	27105	956082	37283	106818	0	0	8130	768826	0	0
2024-04-15 22:55:32			0	33658	0	0	0	18722	17370	154678	27436	956100	37271	106823	0	0	8129	769879	0	0
2024-04-15 22:56:32			0	33671	0	0	0	18711	17360	154506	27535	956171	37271	106819	0	0	8130	769269	0	0
2024-04-15 22:57:32			0	33635	0	0	0	18714	17370	154618	27352	956161	37272	106820	0	0	8128	771033	0	0
2024-04-15 22:58:32			0	33641	0	0	0	18711	17370	154630	27157	956134	37272	106819	0	0	8128	770732	0	0
2024-04-15 22:59:32			0	33656	0	0	0	18711	17380	154634	27183	956195	37261	106819	0	0	8129	769938	0	0
2024-04-15 23:00:32			0	33657	0	0	0	18724	17380	154622	27627	956143	37273	106824	0	0	8129	769887	0	0
2024-04-15 23:01:32			0	33704	0	0	0	18755	17370	154478	27164	956187	37283	106836	0	0	8131	767574	0	0
2024-04-15 23:02:32			0	33737	0	0	0	18763	17380	154202	27083	956195	37273	106839	0	0	8133	765883	0	0
2024-04-15 23:03:32			0	33779	0	0	0	18750	17390	154122	27057	956273	37285	106834	0	0	8136	763746	0	0
2024-04-15 23:04:32			0	33769	0	0	0	18745	17390	154206	27041	956220	37274	106832	0	0	8135	764244	0	0
2024-04-15 23:05:32			0	33761	0	0	0	18732	17380	154178	27268	956230	37273	106827	0	0	8135	764685	0	0
2024-04-15 23:06:32			0	33748	0	0	0	18735	17380	154254	27291	956230	37261	106828	0	0	8134	765334	0	0
2024-04-15 23:07:32			0	33722	0	0	0	18750	17380	154230	27053	956203	37261	106834	0	0	8132	766632	0	0
2024-04-15 23:08:32			0	33731	0	0	0	18732	17390	154322	27393	956220	37285	106827	0	0	8133	766141	0	0
2024-04-15 23:09:32			0	33733	0	0	0	18758	17390	154246	27291	956238	37273	106837	0	0	8133	766041	0	0
2024-04-15 23:10:32			0	33731	0	0	0	18753	17390	154254	27286	956238	37261	106835	0	0	8133	766141	0	0
2024-04-15 23:11:32			0	33759	0	0	0	18771	17400	154250	27277	956333	37274	106842	0	0	8134	764702	0	0
2024-04-15 23:12:32			0	33782	0	0	0	18786	17400	154026	27216	956386	37274	106848	0	0	8135	763555	0	0
2024-04-15 23:13:32			0	33816	0	0	0	18792	17400	153958	27228	956315	37263	106850	0	0	8137	761862	0	0
2024-04-15 23:14:32			0	33830	0	0	0	18784	17400	153830	27144	956315	37263	106847	0	0	8138	761166	0	0
2024-04-15 23:15:32			0	33836	0	0	0	18763	17410	153698	27447	956350	37274	106839	0	0	8139	760827	0	0
2024-04-15 23:16:32			0	33839	0	0	0	18797	17410	153862	27348	956411	37275	106852	0	0	8138	760677	0	0
2024-04-15 23:17:32			0	33867	0	0	0	18805	17410	153634	27249	956403	37274	106855	0	0	8140	759288	0	0
2024-04-15 23:18:32			0	33880	0	0	0	18794	17410	153654	27289	956463	37286	106851	0	0	8141	758643	0	0
2024-04-15 23:19:32			0	33903	0	0	0	18802	17430	153534	27258	956461	37266	106854	0	0	8142	757421	0	0
2024-04-15 23:20:32			0	33915	0	0	0	18799	17420	153478	27493	956498	37265	106853	0	0	8143	756868	0	0
2024-04-15 23:21:32			0	33922	0	0	0	18786	17430	153402	26977	956461	37298	106848	0	0	8144	756481	0	0
2024-04-15 23:22:32			0	33907	0	0	0	18784	17430	153514	27048	956443	37277	106847	0	0	8143	757223	0	0
2024-04-15 23:23:32			0	33897	0	0	0	18807	17430	153582	27076	956488	37288	106856	0	0	8142	757718	0	0
2024-04-15 23:24:32			0	33916	0	0	0	18794	17430	153458	27211	956461	37266	106851	0	0	8143	756778	0	0
2024-04-15 23:25:32			0	33910	0	0	0	18781	17430	153566	27573	956461	37266	106846	0	0	8143	757075	0	0
2024-04-15 23:26:32			0	33897	0	0	0	18784	17440	153582	27352	956399	37266	106847	0	0	8142	757677	0	0
2024-04-15 23:27:32			0	33917	0	0	0	18797	17430	153542	27298	956470	37277	106852	0	0	8143	756728	0	0
2024-04-15 23:28:32			0	33915	0	0	0	18797	17430	153510	27320	956496	37288	106852	0	0	8143	756827	0	0
2024-04-15 23:29:32			0	33918	0	0	0	18794	17420	153522	27410	956480	37277	106851	0	0	8143	756720	0	0
2024-04-15 23:30:32			0	33917	0	0	0	18794	17430	153502	27371	956470	37266	106851	0	0	8143	756728	0	0
2024-04-15 23:31:32			0	33912	0	0	0	18812	17440	153482	27595	956504	37266	106858	0	0	8143	756935	0	0
2024-04-15 23:32:32			0	33946	0	0	0	18805	17440	153254	27196	956512	37290	106855	0	0	8145	755254	0	0
2024-04-15 23:33:32			0	33957	0	0	0	18807	17440	153222	27545	956504	37289	106856	0	0	8145	754710	0	0
2024-04-15 23:34:32			0	33927	0	0	0	18807	17450	153266	27286	956520	37278	106856	0	0	8144	756152	0	0
2024-04-15 23:35:32			0	33938	0	0	0	18807	17450	153306	27370	956573	37267	106856	0	0	8144	755608	0	0
2024-04-15 23:36:32			0	33970	0	0	0	18815	17440	153210	27173	956512	37278	106859	0	0	8146	754069	0	0
2024-04-15 23:37:32			0	33988	0	0	0	18812	17450	153230	27360	956529	37278	106858	0	0	8147	753140	0	0
2024-04-15 23:38:32			0	33997	0	0	0	18810	17460	153166	27426	956510	37290	106857	0	0	8148	752656	0	0
2024-04-15 23:39:32			0	33964	0	0	0	18815	17450	153202	27176	956547	37290	106859	0	0	8146	754324	0	0
2024-04-15 23:40:32			0	33966	0	0	0	18805	17450	153234	27379	956529	37290	106855	0	0	8146	754225	0	0
2024-04-15 23:41:32			0	33972	0	0	0	18818	17450	153194	27282	956555	37256	106860	0	0	8146	753929	0	0
2024-04-15 23:42:32			0	33971	0	0	0	18810	17450	153222	27358	956573	37290	106857	0	0	8146	753979	0	0
2024-04-15 23:43:32			0	33962	0	0	0	18810	17460	153254	27630	956563	37279	106857	0	0	8146	754382	0	0
2024-04-15 23:44:32			0	33958	0	0	0	18812	17460	153322	27261	956563	37279	106858	0	0	8145	754579	0	0
2024-04-15 23:45:32			0	33978	0	0	0	18810	17460	153326	27438	956563	37279	106857	0	0	8147	753592	0	0
2024-04-15 23:46:32			0	33977	0	0	0	18823	17450	153378	27512	956555	37278	106862	0	0	8146	753683	0	0
2024-04-15 23:47:32			0	33981	0	0	0	18820	17460	153174	27592	956571	37291	106861	0	0	8147	753445	0	0
2024-04-15 23:48:32			0	33957	0	0	0	18820	17470	153238	27371	956606	37280	106861	0	0	8145	754587	0	0
2024-04-15 23:49:32			0	33960	0	0	0	18799	17460	153294	27066	956571	37280	106853	0	0	8146	754480	0	0
2024-04-15 23:50:32			0	33972	0	0	0	18820	17460	153226	27111	956563	37290	106861	0	0	8146	753888	0	0
2024-04-15 23:51:32			0	33990	0	0	0	18831	17460	153250	27012	956598	37280	106865	0	0	8147	753001	0	0
2024-04-15 23:52:32			0	33987	0	0	0	18831	17460	152990	26845	956598	37280	106865	0	0	8147	753149	0	0
2024-04-15 23:53:32			0	33997	0	0	0	18825	17460	153094	27126	956563	37279	106863	0	0	8147	752656	0	0
2024-04-15 23:54:32			0	33987	0	0	0	18805	17470	153134	27346	956553	37280	106855	0	0	8147	753108	0	0
2024-04-15 23:55:32			0	33937	0	0	0	18812	17470	153086	27060	956606	37301	106858	0	0	8144	755575	0	0
2024-04-15 23:56:32			0	33994	0	0	0	18838	17470	153034	27015	956606	37280	106868	0	0	8147	752763	0	0
2024-04-15 23:57:32			0	33990	0	0	0	18833	17460	153098	27372	956571	37291	106866	0	0	8147	753001	0	0
2024-04-15 23:58:32			0	33970	0	0	0	18807	17460	153090	26987	956598	37269	106856	0	0	8146	753987	0	0
2024-04-15 23:59:32			0	33975	0	0	0	18823	17460	153178	27149	956624	37280	106862	0	0	8146	753740	0	0
2024-04-16 00:00:32			0	33963	0	0	0	18815	17460	153238	27358	956624	37280	106859	0	0	8146	754332	0	0
2024-04-16 00:01:32			0	33955	0	0	0	18812	17470	153330	27105	956553	37291	106858	0	0	8145	754686	0	0
2024-04-16 00:02:32			0	33965	0	0	0	18810	17460	153206	26908	956571	37291	106857	0	0	8146	754234	0	0
2024-04-16 00:03:32			0	33965	0	0	0	18823	17470	153290	27303	956579	37291	106862	0	0	8146	754193	0	0
2024-04-16 00:04:32			0	33958	0	0	0	18820	17470	153338	27199	956659	37280	106861	0	0	8145	754538	0	0
2024-04-16 00:05:32			0	33957	0	0	0	18825	17460	153286	27254	956650	37280	106863	0	0	8145	754628	0	0
2024-04-16 00:06:32			0	33963	0	0	0	18831	17460	153170	27230	956642	37279	106865	0	0	8145	754332	0	0
2024-04-16 00:07:32			0	33984	0	0	0	18823	17470	153190	27116	956579	37280	106862	0	0	8147	753256	0	0
2024-04-16 00:08:32			0	33970	0	0	0	18820	17470	153254	27194	956640	37269	106861	0	0	8146	753946	0	0
2024-04-16 00:09:32			0	33963	0	0	0	18823	17470	153310	27201	956632	37291	106862	0	0	8146	754291	0	0
2024-04-16 00:10:32			0	33956	0	0	0	18815	17460	153310	27637	956598	37301	106859	0	0	8145	754678	0	0
2024-04-16 00:11:32			0	33952	0	0	0	18815	17460	153334	27300	956598	37291	106859	0	0	8145	754875	0	0
2024-04-16 00:12:32			0	33958	0	0	0	18812	17460	153326	27170	956624	37280	106858	0	0	8145	754579	0	0
2024-04-16 00:13:32			0	33967	0	0	0	18825	17470	153358	27185	956667	37301	106863	0	0	8146	754094	0	0
2024-04-16 00:14:32			0	33960	0	0	0	18815	17470	153230	27197	956632	37301	106859	0	0	8145	754439	0	0
2024-04-16 00:15:32			0	33956	0	0	0	18825	17470	153198	27315	956667	37291	106863	0	0	8145	754637	0	0
2024-04-16 00:16:32			0	33954	0	0	0	18823	17470	153266	27022	956614	37291	106862	0	0	8145	754736	0	0
2024-04-16 00:17:32			0	33944	0	0	0	18810	17470	153262	27500	956640	37291	106857	0	0	8145	755229	0	0
2024-04-16 00:18:32			0	33960	0	0	0	18833	17470	153290	26844	956606	37280	106866	0	0	8145	754439	0	0
2024-04-16 00:19:32			0	34006	0	0	0	18825	17470	153150	27620	956606	37280	106863	0	0	8148	752172	0	0
2024-04-16 00:20:32			0	33957	0	0	0	18823	17470	153206	26984	956659	37280	106862	0	0	8145	754587	0	0
2024-04-16 00:21:32			0	33968	0	0	0	18823	17470	153182	27130	956640	37291	106862	0	0	8146	754045	0	0
2024-04-16 00:22:32			0	33976	0	0	0	18818	17470	153206	26948	956640	37291	106860	0	0	8146	753650	0	0
2024-04-16 00:23:32			0	33974	0	0	0	18831	17470	153146	27379	956667	37301	106865	0	0	8146	753749	0	0
2024-04-16 00:24:32			0	33995	0	0	0	18836	17470	153102	27201	956720	37291	106867	0	0	8147	752714	0	0
2024-04-16 00:25:32			0	33998	0	0	0	18831	17480	153102	27104	956675	37291	106865	0	0	8147	752525	0	0
2024-04-16 00:26:32			0	33995	0	0	0	18831	17480	153086	27229	956648	37291	106865	0	0	8147	752673	0	0
2024-04-16 00:27:32			0	33997	0	0	0	18825	17470	153170	26876	956606	37269	106863	0	0	8147	752615	0	0
2024-04-16 00:28:32			0	33977	0	0	0	18823	17470	153126	27433	956640	37291	106862	0	0	8146	753601	0	0
2024-04-16 00:29:32			0	33965	0	0	0	18810	17480	153262	27263	956630	37292	106857	0	0	8146	754152	0	0
2024-04-16 00:30:32			0	33954	0	0	0	18820	17470	153302	27194	956659	37291	106861	0	0	8145	754736	0	0
2024-04-16 00:31:32			0	33964	0	0	0	18820	17470	153222	27237	956579	37291	106861	0	0	8146	754242	0	0
2024-04-16 00:32:32			0	33960	0	0	0	18823	17470	153306	27237	956685	37280	106862	0	0	8145	754439	0	0
2024-04-16 00:33:32			0	33984	0	0	0	18823	17470	153178	27298	956606	37291	106862	0	0	8147	753256	0	0
2024-04-16 00:34:32			0	33963	0	0	0	18807	17470	153286	27268	956614	37280	106856	0	0	8146	754291	0	0
2024-04-16 00:35:32			0	33971	0	0	0	18810	17470	153342	27066	956632	37291	106857	0	0	8146	753897	0	0
2024-04-16 00:36:32			0	33955	0	0	0	18812	17460	153358	27395	956650	37280	106858	0	0	8145	754727	0	0
2024-04-16 00:37:32			0	33965	0	0	0	18815	17470	153314	27045	956659	37291	106859	0	0	8146	754193	0	0
2024-04-16 00:38:32			0	33932	0	0	0	18812	17470	153310	27291	956614	37291	106858	0	0	8144	755822	0	0
2024-04-16 00:39:32			0	33965	0	0	0	18823	17470	153202	27246	956659	37291	106862	0	0	8146	754193	0	0
2024-04-16 00:40:32			0	33984	0	0	0	18846	17470	153246	27367	956659	37280	106871	0	0	8146	753256	0	0
2024-04-16 00:41:32			0	34003	0	0	0	18831	17470	153134	27190	956667	37301	106865	0	0	8148	752320	0	0
2024-04-16 00:42:32			0	34006	0	0	0	18823	17470	153106	27166	956640	37301	106862	0	0	8148	752172	0	0
2024-04-16 00:43:32			0	34006	0	0	0	18825	17470	153082	27199	956614	37291	106863	0	0	8148	752172	0	0
2024-04-16 00:44:32			0	34014	0	0	0	18841	17470	153070	27180	956685	37280	106869	0	0	8148	751778	0	0
2024-04-16 00:45:32			0	34014	0	0	0	18828	17470	153010	27071	956685	37301	106864	0	0	8148	751778	0	0
2024-04-16 00:46:32			0	34026	0	0	0	18846	17460	153034	27248	956677	37301	106871	0	0	8149	751229	0	0
2024-04-16 00:47:32			0	34048	0	0	0	18818	17470	152978	27050	956659	37291	106860	0	0	8151	750106	0	0
2024-04-16 00:48:32			0	34007	0	0	0	18823	17480	153022	27149	956657	37282	106862	0	0	8148	752082	0	0
2024-04-16 00:49:32			0	34020	0	0	0	18825	17470	153086	27334	956659	37291	106863	0	0	8149	751483	0	0
2024-04-16 00:50:32			0	34001	0	0	0	18818	17480	153182	27410	956701	37291	106860	0	0	8148	752377	0	0
2024-04-16 00:51:32			0	33985	0	0	0	18823	17480	153246	27358	956622	37291	106862	0	0	8147	753165	0	0
2024-04-16 00:52:32			0	34009	0	0	0	18833	17480	153118	27365	956683	37292	106866	0	0	8148	751983	0	0
2024-04-16 00:53:32			0	34039	0	0	0	18833	17470	153046	27161	956659	37269	106866	0	0	8150	750549	0	0
2024-04-16 00:54:32			0	34037	0	0	0	18825	17470	153098	27085	956614	37291	106863	0	0	8150	750647	0	0
2024-04-16 00:55:32			0	34038	0	0	0	18833	17470	153098	27279	956640	37280	106866	0	0	8150	750598	0	0
2024-04-16 00:56:32			0	34039	0	0	0	18838	17470	152978	27088	956720	37301	106868	0	0	8150	750549	0	0
2024-04-16 00:57:32			0	34065	0	0	0	18838	17470	153022	26866	956659	37291	106868	0	0	8151	749272	0	0
2024-04-16 00:58:32			0	34049	0	0	0	18823	17480	153010	26956	956683	37292	106862	0	0	8151	750016	0	0
2024-04-16 00:59:32			0	34045	0	0	0	18825	17480	152978	27339	956675	37291	106863	0	0	8150	750213	0	0
2024-04-16 01:00:32			0	34038	0	0	0	18820	17470	153006	27374	956667	37291	106861	0	0	8150	750598	0	0
2024-04-16 01:01:32			0	34028	0	0	0	18831	17470	153058	27286	956667	37280	106865	0	0	8149	751089	0	0
2024-04-16 01:02:32			0	34056	0	0	0	18831	17480	153018	27393	956709	37292	106865	0	0	8151	749673	0	0
2024-04-16 01:03:32			0	34044	0	0	0	18849	17480	152990	27140	956736	37292	106872	0	0	8150	750262	0	0
2024-04-16 01:04:32			0	34053	0	0	0	18841	17470	152926	27180	956667	37301	106869	0	0	8150	749861	0	0
2024-04-16 01:05:32			0	34066	0	0	0	18838	17480	152902	27478	956728	37302	106868	0	0	8151	749182	0	0
2024-04-16 01:06:32			0	34070	0	0	0	18849	17480	152802	27407	956648	37291	106872	0	0	8151	748986	0	0
2024-04-16 01:07:32			0	34059	0	0	0	18831	17480	152822	27142	956728	37302	106865	0	0	8151	749526	0	0
2024-04-16 01:08:32			0	34067	0	0	0	18833	17480	152862	27448	956709	37292	106866	0	0	8151	749133	0	0
2024-04-16 01:09:32			0	34061	0	0	0	18825	17480	152830	27319	956675	37291	106863	0	0	8151	749427	0	0
2024-04-16 01:10:32			0	34056	0	0	0	18838	17480	152926	27228	956648	37281	106868	0	0	8151	749673	0	0
2024-04-16 01:11:32			0	34068	0	0	0	18841	17480	152826	27405	956648	37291	106869	0	0	8151	749084	0	0
2024-04-16 01:12:32			0	34072	0	0	0	18838	17480	152778	27305	956709	37292	106868	0	0	8152	748888	0	0
2024-04-16 01:13:32			0	34062	0	0	0	18838	17480	152914	27410	956675	37291	106868	0	0	8151	749378	0	0
2024-04-16 01:14:32			0	34086	0	0	0	18831	17490	152846	27253	956665	37304	106865	0	0	8153	748160	0	0
2024-04-16 01:15:32			0	34077	0	0	0	18828	17490	152938	27414	956718	37304	106864	0	0	8152	748602	0	0
2024-04-16 01:16:32			0	34046	0	0	0	18818	17480	152930	27428	956736	37292	106860	0	0	8150	750164	0	0
2024-04-16 01:17:32			0	34037	0	0	0	18818	17470	152978	27360	956685	37301	106860	0	0	8150	750647	0	0
2024-04-16 01:18:32			0	34033	0	0	0	18825	17490	152950	27144	956718	37304	106863	0	0	8150	750762	0	0
2024-04-16 01:19:32			0	34043	0	0	0	18828	17470	153006	27528	956667	37301	106864	0	0	8150	750352	0	0
2024-04-16 01:20:32			0	34033	0	0	0	18841	17470	152954	27341	956667	37291	106869	0	0	8149	750844	0	0
2024-04-16 01:21:32			0	34056	0	0	0	18844	17470	152786	27383	956720	37291	106870	0	0	8151	749714	0	0
2024-04-16 01:22:32			0	34071	0	0	0	18833	17480	152862	27578	956736	37303	106866	0	0	8152	748937	0	0
2024-04-16 01:23:32			0	34060	0	0	0	18828	17480	152818	27071	956728	37302	106864	0	0	8151	749476	0	0
2024-04-16 01:24:32			0	34039	0	0	0	18823	17470	152950	27346	956693	37291	106862	0	0	8150	750549	0	0
2024-04-16 01:25:32			0	34031	0	0	0	18815	17480	153078	27414	956675	37291	106859	0	0	8150	750901	0	0
2024-04-16 01:26:32			0	34013	0	0	0	18815	17480	153142	27332	956675	37281	106859	0	0	8149	751787	0	0
2024-04-16 01:27:32			0	34045	0	0	0	18844	17480	153034	27298	956675	37281	106870	0	0	8150	750213	0	0
2024-04-16 01:28:32			0	34055	0	0	0	18838	17480	152946	27576	956728	37302	106868	0	0	8151	749722	0	0
2024-04-16 01:29:32			0	34058	0	0	0	18831	17480	152942	27175	956762	37303	106865	0	0	8151	749575	0	0
2024-04-16 01:30:32			0	34034	0	0	0	18823	17480	152978	27365	956675	37302	106862	0	0	8150	750754	0	0
2024-04-16 01:31:32			0	34041	0	0	0	18820	17480	152926	27216	956675	37291	106861	0	0	8150	750410	0	0
2024-04-16 01:32:32			0	34024	0	0	0	18823	17480	152902	27131	956736	37282	106862	0	0	8149	751245	0	0
2024-04-16 01:33:32			0	34037	0	0	0	18825	17480	152910	27379	956622	37291	106863	0	0	8150	750606	0	0
2024-04-16 01:34:32			0	34048	0	0	0	18841	17470	152954	27281	956720	37301	106869	0	0	8150	750106	0	0
2024-04-16 01:35:32			0	34062	0	0	0	18828	17470	152846	27452	956667	37291	106864	0	0	8151	749419	0	0
2024-04-16 01:36:32			0	34056	0	0	0	18836	17480	152910	27306	956709	37303	106867	0	0	8151	749673	0	0
2024-04-16 01:37:32			0	34058	0	0	0	18836	17470	152818	27232	956693	37301	106867	0	0	8151	749615	0	0
2024-04-16 01:38:32			0	34076	0	0	0	18841	17480	152770	27563	956675	37291	106869	0	0	8152	748691	0	0
2024-04-16 01:39:32			0	34077	0	0	0	18825	17470	152846	27384	956720	37301	106863	0	0	8152	748683	0	0
2024-04-16 01:40:32			0	34077	0	0	0	18823	17480	152882	27192	956675	37291	106862	0	0	8152	748642	0	0
2024-04-16 01:41:32			0	34096	0	0	0	18857	17480	152614	27156	956728	37302	106875	0	0	8153	747711	0	0
2024-04-16 01:42:32			0	34109	0	0	0	18833	17480	152614	27365	956728	37291	106866	0	0	8154	747074	0	0
2024-04-16 01:43:32			0	34110	0	0	0	18844	17470	152618	27142	956720	37291	106870	0	0	8154	747066	0	0
2024-04-16 01:44:32			0	34101	0	0	0	18836	17480	152534	27177	956789	37282	106867	0	0	8153	747466	0	0
2024-04-16 01:45:32			0	34089	0	0	0	18828	17480	152622	27377	956736	37303	106864	0	0	8153	748054	0	0
2024-04-16 01:46:32			0	34092	0	0	0	18812	17470	152618	27367	956693	37301	106858	0	0	8153	747947	0	0
2024-04-16 01:47:32			0	34110	0	0	0	18838	17480	152654	27263	956781	37291	106868	0	0	8154	747025	0	0
2024-04-16 01:48:32			0	34086	0	0	0	18833	17470	152730	27303	956746	37291	106866	0	0	8152	748242	0	0
2024-04-16 01:49:32			0	34084	0	0	0	18831	17470	152686	27197	956693	37301	106865	0	0	8152	748340	0	0
2024-04-16 01:50:32			0	34074	0	0	0	18820	17470	152738	27046	956640	37291	106861	0	0	8152	748830	0	0
2024-04-16 01:51:32			0	34086	0	0	0	18831	17480	152714	27157	956657	37303	106865	0	0	8153	748201	0	0
2024-04-16 01:52:32			0	34086	0	0	0	18836	17470	152694	27263	956720	37280	106867	0	0	8152	748242	0	0
2024-04-16 01:53:32			0	34078	0	0	0	18838	17480	152582	27088	956789	37303	106868	0	0	8152	748593	0	0
2024-04-16 01:54:32			0	34101	0	0	0	18838	17480	152554	27429	956683	37303	106868	0	0	8153	747466	0	0
2024-04-16 01:55:32			0	34102	0	0	0	18820	17480	152574	27256	956728	37291	106861	0	0	8154	747417	0	0
2024-04-16 01:56:32			0	34074	0	0	0	18820	17480	152726	27417	956762	37292	106861	0	0	8152	748789	0	0
2024-04-16 01:57:32			0	34081	0	0	0	18846	17480	152642	27523	956675	37291	106871	0	0	8152	748446	0	0
2024-04-16 01:58:32			0	34086	0	0	0	18833	17470	152590	27402	956711	37291	106866	0	0	8152	748242	0	0
2024-04-16 01:59:32			0	34069	0	0	0	18818	17480	152710	27280	956701	37302	106860	0	0	8152	749035	0	0
2024-04-16 02:00:32			0	34072	0	0	0	18831	17480	152730	27308	956675	37302	106865	0	0	8152	748888	0	0
2024-04-16 02:01:32			0	34070	0	0	0	18823	17480	152710	27291	956709	37292	106862	0	0	8152	748986	0	0
2024-04-16 02:02:32			0	34067	0	0	0	18815	17480	152638	27170	956675	37302	106859	0	0	8152	749133	0	0
2024-04-16 02:03:32			0	34070	0	0	0	18825	17470	152742	27587	956659	37291	106863	0	0	8152	749026	0	0
2024-04-16 02:04:32			0	34069	0	0	0	18828	17480	152786	27234	956728	37302	106864	0	0	8152	749035	0	0
2024-04-16 02:05:32			0	34074	0	0	0	18818	17480	152658	27194	956675	37302	106860	0	0	8152	748789	0	0
2024-04-16 02:06:32			0	34046	0	0	0	18825	17470	152878	27310	956693	37291	106863	0	0	8150	750205	0	0
2024-04-16 02:07:32			0	34073	0	0	0	18815	17470	152890	27211	956667	37301	106859	0	0	8152	748879	0	0
2024-04-16 02:08:32			0	34045	0	0	0	18815	17470	152806	27300	956667	37301	106859	0	0	8150	750254	0	0
2024-04-16 02:09:32			0	34040	0	0	0	18799	17470	152966	27345	956667	37291	106853	0	0	8150	750500	0	0
2024-04-16 02:10:32			0	34009	0	0	0	18815	17470	152938	27261	956667	37291	106859	0	0	8148	752024	0	0
2024-04-16 02:11:32			0	34018	0	0	0	18805	17470	152918	27258	956632	37301	106855	0	0	8149	751581	0	0
2024-04-16 02:12:32			0	34010	0	0	0	18807	17460	153046	27066	956669	37279	106856	0	0	8148	752016	0	0
2024-04-16 02:13:32			0	34005	0	0	0	18802	17470	153158	26991	956606	37301	106854	0	0	8148	752221	0	0
2024-04-16 02:14:32			0	33992	0	0	0	18805	17470	153230	27280	956579	37301	106855	0	0	8148	752861	0	0
2024-04-16 02:15:32			0	33993	0	0	0	18807	17460	153130	27296	956563	37290	106856	0	0	8147	752853	0	0
2024-04-16 02:16:32			0	33984	0	0	0	18799	17450	153182	27388	956608	37278	106853	0	0	8147	753337	0	0
2024-04-16 02:17:32			0	34004	0	0	0	18812	17470	153054	27383	956640	37291	106858	0	0	8148	752270	0	0
2024-04-16 02:18:32			0	33999	0	0	0	18802	17460	153090	27488	956598	37291	106854	0	0	8148	752558	0	0
2024-04-16 02:19:32			0	33980	0	0	0	18805	17460	153038	27625	956590	37290	106855	0	0	8147	753494	0	0
2024-04-16 02:20:32			0	33989	0	0	0	18810	17460	153078	27436	956590	37290	106857	0	0	8147	753050	0	0
2024-04-16 02:21:32			0	34021	0	0	0	18818	17470	152994	27182	956632	37301	106860	0	0	8149	751434	0	0
2024-04-16 02:22:32			0	34041	0	0	0	18805	17470	152894	27138	956685	37291	106855	0	0	8150	750450	0	0
2024-04-16 02:23:32			0	34034	0	0	0	18812	17460	153014	27379	956598	37291	106858	0	0	8150	750835	0	0
2024-04-16 02:24:32			0	34040	0	0	0	18818	17460	153006	27222	956624	37291	106860	0	0	8150	750540	0	0
2024-04-16 02:25:32			0	34041	0	0	0	18807	17460	152894	27416	956616	37290	106856	0	0	8150	750491	0	0
2024-04-16 02:26:32			0	34052	0	0	0	18807	17460	152990	27379	956669	37301	106856	0	0	8151	749951	0	0
2024-04-16 02:27:32			0	34061	0	0	0	18812	17460	152850	27119	956590	37301	106858	0	0	8151	749509	0	0
2024-04-16 02:28:32			0	34056	0	0	0	18797	17460	152830	26920	956598	37291	106852	0	0	8151	749754	0	0
2024-04-16 02:29:32			0	34074	0	0	0	18805	17450	152818	27298	956634	37300	106855	0	0	8152	748911	0	0
2024-04-16 02:30:32			0	34061	0	0	0	18802	17450	152786	27157	956634	37300	106854	0	0	8151	749550	0	0
2024-04-16 02:31:32			0	34047	0	0	0	18807	17460	152794	27178	956571	37291	106856	0	0	8151	750196	0	0
2024-04-16 02:32:32			0	34052	0	0	0	18792	17450	152874	27154	956608	37290	106850	0	0	8151	749992	0	0
2024-04-16 02:33:32			0	34069	0	0	0	18802	17450	152858	27279	956634	37300	106854	0	0	8152	749157	0	0
2024-04-16 02:34:32			0	34071	0	0	0	18807	17450	152838	27535	956634	37300	106856	0	0	8152	749059	0	0
2024-04-16 02:35:32			0	34073	0	0	0	18792	17450	152834	27305	956581	37300	106850	0	0	8152	748960	0	0
2024-04-16 02:36:32			0	34043	0	0	0	18802	17460	152914	27455	956642	37301	106854	0	0	8150	750393	0	0
2024-04-16 02:37:32			0	34042	0	0	0	18794	17450	152850	27524	956634	37300	106851	0	0	8150	750483	0	0
2024-04-16 02:38:32			0	34072	0	0	0	18802	17450	152846	27428	956581	37290	106854	0	0	8152	749010	0	0
2024-04-16 02:39:32			0	34093	0	0	0	18797	17450	152926	27421	956608	37300	106852	0	0	8153	747980	0	0
2024-04-16 02:40:32			0	34076	0	0	0	18802	17460	152750	27235	956590	37290	106854	0	0	8152	748773	0	0
2024-04-16 02:41:32			0	34070	0	0	0	18794	17460	152862	27267	956616	37290	106851	0	0	8152	749067	0	0
2024-04-16 02:42:32			0	34068	0	0	0	18802	17450	152858	27248	956555	37300	106854	0	0	8152	749206	0	0
2024-04-16 02:43:32			0	34076	0	0	0	18786	17450	152854	27507	956626	37300	106848	0	0	8153	748813	0	0
2024-04-16 02:44:32			0	34065	0	0	0	18799	17440	152882	27268	956592	37300	106853	0	0	8152	749394	0	0
2024-04-16 02:45:32			0	34081	0	0	0	18789	17450	152878	27315	956608	37290	106849	0	0	8153	748568	0	0
2024-04-16 02:46:32			0	34070	0	0	0	18789	17450	152926	27502	956581	37300	106849	0	0	8152	749108	0	0
2024-04-16 02:47:32			0	34067	0	0	0	18781	17450	152850	27313	956547	37300	106846	0	0	8152	749255	0	0
2024-04-16 02:48:32			0	34062	0	0	0	18797	17440	152910	27460	956565	37290	106852	0	0	8152	749541	0	0
2024-04-16 02:49:32			0	34053	0	0	0	18776	17440	152922	27476	956565	37290	106844	0	0	8151	749983	0	0
2024-04-16 02:50:32			0	34057	0	0	0	18779	17440	152970	27277	956512	37278	106845	0	0	8152	749787	0	0
2024-04-16 02:51:32			0	34068	0	0	0	18784	17440	152902	27393	956539	37290	106847	0	0	8152	749247	0	0
2024-04-16 02:52:32			0	34061	0	0	0	18784	17430	152930	27502	956549	37298	106847	0	0	8152	749631	0	0
2024-04-16 02:53:32			0	34063	0	0	0	18781	17440	152918	27348	956557	37289	106846	0	0	8152	749492	0	0
2024-04-16 02:54:32			0	34081	0	0	0	18789	17440	152910	27424	956565	37290	106849	0	0	8153	748609	0	0
2024-04-16 02:55:32			0	34087	0	0	0	18794	17440	152910	27367	956539	37300	106851	0	0	8153	748314	0	0
2024-04-16 02:56:32			0	34094	0	0	0	18784	17440	152858	27232	956583	37310	106847	0	0	8154	747971	0	0
2024-04-16 02:57:32			0	34099	0	0	0	18789	17440	152754	27204	956592	37300	106849	0	0	8154	747726	0	0
2024-04-16 02:58:32			0	34112	0	0	0	18794	17440	152698	27199	956592	37300	106851	0	0	8154	747090	0	0
2024-04-16 02:59:32			0	34112	0	0	0	18771	17440	152734	27149	956504	37299	106842	0	0	8155	747090	0	0
2024-04-16 03:00:32			0	34077	0	0	0	18784	17430	152782	27614	956522	37298	106847	0	0	8153	748846	0	0
2024-04-16 03:01:32			0	34090	0	0	0	18774	17440	152806	27180	956512	37278	106843	0	0	8154	748168	0	0
2024-04-16 03:02:32			0	34102	0	0	0	18786	17440	152898	27497	956583	37299	106848	0	0	8154	747579	0	0
2024-04-16 03:03:32			0	34087	0	0	0	18776	17430	152802	27488	956549	37288	106844	0	0	8153	748355	0	0
2024-04-16 03:04:32			0	34076	0	0	0	18776	17430	152846	27512	956522	37298	106844	0	0	8153	748895	0	0
2024-04-16 03:05:32			0	34100	0	0	0	18771	17430	152890	26998	956549	37298	106842	0	0	8154	747718	0	0
2024-04-16 03:06:32			0	34097	0	0	0	18786	17430	152726	27348	956549	37298	106848	0	0	8154	747865	0	0
2024-04-16 03:07:32			0	34102	0	0	0	18784	17430	152810	27282	956488	37298	106847	0	0	8154	747620	0	0
2024-04-16 03:08:32			0	34095	0	0	0	18776	17430	152790	27149	956549	37288	106844	0	0	8154	747963	0	0
2024-04-16 03:09:32			0	34087	0	0	0	18774	17420	152822	27171	956551	37308	106843	0	0	8153	748396	0	0
2024-04-16 03:10:32			0	34078	0	0	0	18779	17440	152866	27409	956557	37299	106845	0	0	8153	748756	0	0
2024-04-16 03:11:32			0	34069	0	0	0	18766	17430	152894	27464	956541	37288	106840	0	0	8152	749238	0	0
2024-04-16 03:12:32			0	34053	0	0	0	18766	17430	152894	27027	956522	37298	106840	0	0	8151	750024	0	0
2024-04-16 03:13:32			0	34051	0	0	0	18774	17430	152858	27566	956522	37298	106843	0	0	8151	750122	0	0
2024-04-16 03:14:32			0	34056	0	0	0	18779	17430	152998	27424	956541	37298	106845	0	0	8151	749877	0	0
2024-04-16 03:15:32			0	34086	0	0	0	18779	17430	152846	27114	956567	37288	106845	0	0	8153	748404	0	0
2024-04-16 03:16:32			0	34070	0	0	0	18768	17430	152830	27372	956567	37298	106841	0	0	8152	749189	0	0
2024-04-16 03:17:32			0	34087	0	0	0	18784	17420	152826	27284	956533	37288	106847	0	0	8153	748396	0	0
2024-04-16 03:18:32			0	34081	0	0	0	18784	17430	152798	27474	956549	37298	106847	0	0	8153	748649	0	0
2024-04-16 03:19:32			0	34093	0	0	0	18781	17430	152762	27464	956522	37298	106846	0	0	8154	748061	0	0
2024-04-16 03:20:32			0	34089	0	0	0	18784	17430	152870	27358	956488	37298	106847	0	0	8153	748257	0	0
2024-04-16 03:21:32			0	34110	0	0	0	18781	17440	152746	27277	956557	37299	106846	0	0	8155	747187	0	0
2024-04-16 03:22:32			0	34091	0	0	0	18781	17430	152954	27197	956602	37309	106846	0	0	8153	748159	0	0
2024-04-16 03:23:32			0	34078	0	0	0	18774	17440	152910	27517	956557	37289	106843	0	0	8153	748756	0	0
2024-04-16 03:24:32			0	34097	0	0	0	18771	17430	152902	27369	956435	37309	106842	0	0	8154	747865	0	0
2024-04-16 03:25:32			0	34073	0	0	0	18774	17430	152838	27410	956594	37298	106843	0	0	8153	749042	0	0
2024-04-16 03:26:32			0	34087	0	0	0	18779	17430	152898	27440	956567	37309	106845	0	0	8153	748355	0	0
2024-04-16 03:27:32			0	34100	0	0	0	18781	17420	152858	27296	956533	37298	106846	0	0	8154	747759	0	0
2024-04-16 03:28:32			0	34063	0	0	0	18771	17430	152858	27199	956522	37298	106842	0	0	8152	749533	0	0
2024-04-16 03:29:32			0	34084	0	0	0	18763	17430	152906	27421	956549	37309	106839	0	0	8153	748502	0	0
2024-04-16 03:30:32			0	34065	0	0	0	18766	17420	152946	27281	956559	37288	106840	0	0	8152	749476	0	0
2024-04-16 03:31:32			0	34072	0	0	0	18766	17420	152998	27552	956533	37288	106840	0	0	8153	749132	0	0
2024-04-16 03:32:32			0	34082	0	0	0	18766	17430	152966	27351	956567	37288	106840	0	0	8153	748600	0	0
2024-04-16 03:33:32			0	34068	0	0	0	18766	17420	152922	27540	956533	37288	106840	0	0	8152	749328	0	0
2024-04-16 03:34:32			0	34047	0	0	0	18771	17420	153066	27557	956524	37297	106842	0	0	8151	750360	0	0
2024-04-16 03:35:32			0	34034	0	0	0	18761	17420	153078	27237	956506	37309	106838	0	0	8150	750999	0	0
2024-04-16 03:36:32			0	34051	0	0	0	18779	17420	152962	27168	956506	37309	106845	0	0	8151	750163	0	0
2024-04-16 03:37:32			0	34077	0	0	0	18781	17430	152986	27562	956488	37298	106846	0	0	8153	748846	0	0
2024-04-16 03:38:32			0	34079	0	0	0	18792	17420	152886	27182	956480	37288	106850	0	0	8153	748788	0	0
2024-04-16 03:39:32			0	34100	0	0	0	18779	17430	152914	27270	956628	37288	106845	0	0	8154	747718	0	0
2024-04-16 03:40:32			0	34063	0	0	0	18771	17430	152926	27268	956522	37288	106842	0	0	8152	749533	0	0
2024-04-16 03:41:32			0	34052	0	0	0	18753	17420	153042	27081	956506	37288	106835	0	0	8152	750114	0	0
2024-04-16 03:42:32			0	34051	0	0	0	18758	17430	153058	27296	956514	37298	106837	0	0	8152	750122	0	0
2024-04-16 03:43:32			0	34060	0	0	0	18763	17420	152982	27319	956453	37298	106839	0	0	8152	749721	0	0
2024-04-16 03:44:32			0	34061	0	0	0	18753	17420	153046	27391	956480	37298	106835	0	0	8152	749672	0	0
2024-04-16 03:45:32			0	34081	0	0	0	18771	17420	153046	27274	956524	37287	106842	0	0	8153	748690	0	0
2024-04-16 03:46:32			0	34081	0	0	0	18771	17430	152982	27048	956541	37288	106842	0	0	8153	748649	0	0
2024-04-16 03:47:32			0	34074	0	0	0	18768	17410	152910	27414	956516	37308	106841	0	0	8153	749074	0	0
2024-04-16 03:48:32			0	34070	0	0	0	18771	17420	152986	27118	956506	37298	106842	0	0	8152	749230	0	0
2024-04-16 03:49:32			0	34086	0	0	0	18774	17420	152990	27400	956480	37298	106843	0	0	8153	748445	0	0
2024-04-16 03:50:32			0	34057	0	0	0	18774	17420	152950	27358	956419	37297	106843	0	0	8152	749868	0	0
2024-04-16 03:51:32			0	34069	0	0	0	18771	17410	153026	27672	956490	37296	106842	0	0	8152	749320	0	0
2024-04-16 03:52:32			0	34068	0	0	0	18763	17430	153054	27412	956461	37298	106839	0	0	8152	749287	0	0
2024-04-16 03:53:32			0	34044	0	0	0	18758	17420	152926	27540	956506	37298	106837	0	0	8151	750507	0	0
2024-04-16 03:54:32			0	34077	0	0	0	18763	17420	152950	27282	956524	37297	106839	0	0	8153	748887	0	0
2024-04-16 03:55:32			0	34084	0	0	0	18766	17420	152906	27585	956472	37297	106840	0	0	8153	748543	0	0
2024-04-16 03:56:32			0	34080	0	0	0	18768	17420	153046	27230	956498	37297	106841	0	0	8153	748739	0	0
2024-04-16 03:57:32			0	34074	0	0	0	18766	17410	153014	27419	956535	37296	106840	0	0	8153	749074	0	0
2024-04-16 03:58:32			0	34075	0	0	0	18763	17420	152950	27504	956472	37297	106839	0	0	8153	748985	0	0
2024-04-16 03:59:32			0	34069	0	0	0	18761	17420	153006	27343	956445	37320	106838	0	0	8152	749279	0	0
2024-04-16 04:00:32			0	34086	0	0	0	18768	17410	152966	27595	956490	37308	106841	0	0	8153	748486	0	0
2024-04-16 04:01:32			0	34100	0	0	0	18766	17410	152986	27202	956490	37296	106840	0	0	8154	747799	0	0
2024-04-16 04:02:32			0	34115	0	0	0	18763	17420	152962	27505	956524	37297	106839	0	0	8155	747024	0	0
2024-04-16 04:03:32			0	34107	0	0	0	18768	17420	152886	27377	956498	37287	106841	0	0	8155	747416	0	0
2024-04-16 04:04:32			0	34098	0	0	0	18766	17410	152930	27305	956463	37308	106840	0	0	8154	747897	0	0
2024-04-16 04:05:32			0	34092	0	0	0	18766	17420	152970	27331	956533	37298	106840	0	0	8154	748151	0	0
2024-04-16 04:06:32			0	34097	0	0	0	18761	17410	152906	27024	956490	37308	106838	0	0	8154	747946	0	0
2024-04-16 04:07:32			0	34103	0	0	0	18758	17410	152982	27242	956490	37286	106837	0	0	8154	747652	0	0
2024-04-16 04:08:32			0	34089	0	0	0	18761	17410	153002	27336	956508	37296	106838	0	0	8154	748338	0	0
2024-04-16 04:09:32			0	34082	0	0	0	18763	17410	152982	27196	956535	37307	106839	0	0	8153	748682	0	0
2024-04-16 04:10:32			0	34079	0	0	0	18771	17410	152978	27502	956490	37296	106842	0	0	8153	748829	0	0
2024-04-16 04:11:32			0	34095	0	0	0	18766	17420	152970	27353	956472	37297	106840	0	0	8154	748004	0	0
2024-04-16 04:12:32			0	34102	0	0	0	18753	17410	152806	27543	956543	37308	106835	0	0	8154	747701	0	0
2024-04-16 04:13:32			0	34090	0	0	0	18750	17410	152922	27045	956482	37296	106834	0	0	8154	748290	0	0
2024-04-16 04:14:32			0	34074	0	0	0	18758	17410	152962	26998	956516	37296	106837	0	0	8153	749074	0	0
2024-04-16 04:15:32			0	34089	0	0	0	18761	17420	153046	27196	956498	37287	106838	0	0	8154	748298	0	0
2024-04-16 04:16:32			0	34097	0	0	0	18753	17410	152942	27563	956516	37286	106835	0	0	8154	747946	0	0
2024-04-16 04:17:32			0	34065	0	0	0	18753	17410	153022	27455	956463	37286	106835	0	0	8152	749516	0	0
2024-04-16 04:18:32			0	34092	0	0	0	18768	17410	153006	27192	956508	37307	106841	0	0	8154	748191	0	0
2024-04-16 04:19:32			0	34080	0	0	0	18771	17400	152970	27507	956500	37285	106842	0	0	8153	748821	0	0
2024-04-16 04:20:32			0	34089	0	0	0	18768	17410	152970	27144	956516	37296	106841	0	0	8153	748338	0	0
2024-04-16 04:21:32			0	34108	0	0	0	18774	17410	152946	27159	956490	37308	106843	0	0	8154	747407	0	0
2024-04-16 04:22:32			0	34119	0	0	0	18774	17410	152846	27543	956543	37296	106843	0	0	8155	746869	0	0
2024-04-16 04:23:32			0	34136	0	0	0	18771	17410	152782	27352	956508	37296	106842	0	0	8156	746036	0	0
2024-04-16 04:24:32			0	34137	0	0	0	18768	17420	152798	27421	956551	37297	106841	0	0	8156	745947	0	0
2024-04-16 04:25:32			0	34135	0	0	0	18766	17410	152878	27452	956569	37296	106840	0	0	8156	746086	0	0
2024-04-16 04:26:32			0	34121	0	0	0	18779	17410	152766	27604	956543	37286	106845	0	0	8155	746771	0	0
2024-04-16 04:27:32			0	34138	0	0	0	18774	17420	152850	27274	956551	37308	106843	0	0	8156	745898	0	0
2024-04-16 04:28:32			0	34149	0	0	0	18781	17420	152766	27419	956604	37308	106846	0	0	8157	745360	0	0
2024-04-16 04:29:32			0	34142	0	0	0	18781	17420	152742	27178	956533	37298	106846	0	0	8156	745703	0	0
2024-04-16 04:30:32			0	34144	0	0	0	18768	17430	152742	27595	956567	37309	106841	0	0	8157	745564	0	0
2024-04-16 04:31:32			0	34111	0	0	0	18763	17420	152918	27294	956577	37297	106839	0	0	8155	747220	0	0
2024-04-16 04:32:32			0	34110	0	0	0	18774	17410	152858	27580	956543	37296	106843	0	0	8155	747309	0	0
2024-04-16 04:33:32			0	34152	0	0	0	18789	17420	152710	27428	956498	37297	106849	0	0	8157	745214	0	0
2024-04-16 04:34:32			0	34157	0	0	0	18786	17420	152682	27435	956551	37297	106848	0	0	8157	744969	0	0
2024-04-16 04:35:32			0	34155	0	0	0	18776	17430	152614	27218	956567	37309	106844	0	0	8157	745027	0	0
2024-04-16 04:36:32			0	34155	0	0	0	18789	17420	152622	27225	956559	37320	106849	0	0	8157	745067	0	0
2024-04-16 04:37:32			0	34162	0	0	0	18776	17420	152622	27147	956533	37298	106844	0	0	8158	744725	0	0
2024-04-16 04:38:32			0	34166	0	0	0	18776	17420	152582	27514	956585	37309	106844	0	0	8158	744530	0	0
2024-04-16 04:39:32			0	34182	0	0	0	18779	17420	152482	27211	956551	37308	106845	0	0	8159	743749	0	0
2024-04-16 04:40:32			0	34186	0	0	0	18774	17420	152622	27279	956533	37309	106843	0	0	8159	743553	0	0
2024-04-16 04:41:32			0	34187	0	0	0	18784	17430	152642	27415	956575	37309	106847	0	0	8159	743464	0	0
2024-04-16 04:42:32			0	34165	0	0	0	18784	17430	152610	27365	956628	37288	106847	0	0	8158	744538	0	0
2024-04-16 04:43:32			0	34189	0	0	0	18784	17430	152578	27350	956514	37309	106847	0	0	8159	743367	0	0
2024-04-16 04:44:32			0	34177	0	0	0	18779	17420	152574	27549	956604	37287	106845	0	0	8158	743993	0	0
2024-04-16 04:45:32			0	34182	0	0	0	18774	17430	152598	27498	956541	37309	106843	0	0	8159	743708	0	0
2024-04-16 04:46:32			0	34162	0	0	0	18768	17430	152630	27450	956594	37309	106841	0	0	8158	744685	0	0
2024-04-16 04:47:32			0	34169	0	0	0	18763	17420	152586	27306	956559	37309	106839	0	0	8158	744383	0	0
2024-04-16 04:48:32			0	34157	0	0	0	18779	17420	152734	27402	956559	37298	106845	0	0	8157	744969	0	0
2024-04-16 04:49:32			0	34164	0	0	0	18763	17420	152666	27237	956551	37308	106839	0	0	8158	744627	0	0
2024-04-16 04:50:32			0	34138	0	0	0	18763	17420	152738	27635	956612	37298	106839	0	0	8156	745898	0	0
2024-04-16 04:51:32			0	34134	0	0	0	18771	17420	152750	27462	956533	37309	106842	0	0	8156	746094	0	0
2024-04-16 04:52:32			0	34128	0	0	0	18774	17420	152746	27170	956612	37277	106843	0	0	8156	746388	0	0
2024-04-16 04:53:32			0	34140	0	0	0	18771	17420	152754	27199	956577	37308	106842	0	0	8156	745800	0	0
2024-04-16 04:54:32			0	34137	0	0	0	18766	17410	152742	27182	956543	37296	106840	0	0	8156	745988	0	0
2024-04-16 04:55:32			0	34122	0	0	0	18755	17410	152850	27436	956543	37286	106836	0	0	8156	746722	0	0
2024-04-16 04:56:32			0	34115	0	0	0	18761	17420	152814	27367	956524	37297	106838	0	0	8155	747024	0	0
2024-04-16 04:57:32			0	34097	0	0	0	18745	17420	152878	27294	956524	37297	106832	0	0	8154	747906	0	0
2024-04-16 04:58:32			0	34088	0	0	0	18748	17420	152910	27137	956498	37297	106833	0	0	8154	748347	0	0
2024-04-16 04:59:32			0	34091	0	0	0	18758	17410	152882	27332	956516	37308	106837	0	0	8154	748241	0	0
2024-04-16 05:00:32			0	34083	0	0	0	18750	17400	152998	27196	956526	37307	106834	0	0	8153	748674	0	0
2024-04-16 05:01:32			0	34089	0	0	0	18750	17420	153090	27069	956533	37298	106834	0	0	8154	748298	0	0
2024-04-16 05:02:32			0	34066	0	0	0	18748	17410	153150	27237	956490	37308	106833	0	0	8152	749467	0	0
2024-04-16 05:03:32			0	34040	0	0	0	18755	17400	153270	27293	956500	37307	106836	0	0	8151	750785	0	0
2024-04-16 05:04:32			0	34018	0	0	0	18735	17410	153286	27204	956482	37296	106828	0	0	8150	751827	0	0
2024-04-16 05:05:32			0	33991	0	0	0	18724	17410	153374	27138	956455	37296	106824	0	0	8149	753156	0	0
2024-04-16 05:06:32			0	33981	0	0	0	18735	17400	153382	27249	956447	37307	106828	0	0	8148	753690	0	0
2024-04-16 05:07:32			0	33978	0	0	0	18742	17400	153446	27353	956492	37296	106831	0	0	8147	753838	0	0
2024-04-16 05:08:32			0	33970	0	0	0	18729	17400	153602	27279	956492	37296	106826	0	0	8147	754233	0	0
2024-04-16 05:09:32			0	33959	0	0	0	18724	17400	153498	27161	956394	37296	106824	0	0	8147	754776	0	0
2024-04-16 05:10:32			0	33944	0	0	0	18727	17400	153638	27218	956474	37307	106825	0	0	8146	755517	0	0
2024-04-16 05:11:32			0	33949	0	0	0	18735	17390	153670	27121	956405	37295	106828	0	0	8146	755311	0	0
2024-04-16 05:12:32			0	33923	0	0	0	18732	17390	153698	27433	956405	37306	106827	0	0	8144	756596	0	0
2024-04-16 05:13:32			0	33922	0	0	0	18724	17390	153690	27216	956431	37285	106824	0	0	8144	756645	0	0
2024-04-16 05:14:32			0	33921	0	0	0	18716	17380	153754	27168	956388	37305	106821	0	0	8144	756736	0	0
2024-04-16 05:15:32			0	33901	0	0	0	18722	17380	153810	27223	956415	37294	106823	0	0	8143	757726	0	0
2024-04-16 05:16:32			0	33889	0	0	0	18724	17380	153774	27124	956468	37294	106824	0	0	8142	758320	0	0
2024-04-16 05:17:32			0	33918	0	0	0	18732	17380	153822	27244	956441	37284	106827	0	0	8144	756884	0	0
2024-04-16 05:18:32			0	33912	0	0	0	18722	17390	153818	27490	956431	37295	106823	0	0	8144	757140	0	0
2024-04-16 05:19:32			0	33920	0	0	0	18724	17390	153794	27353	956405	37317	106824	0	0	8144	756744	0	0
2024-04-16 05:20:32			0	33897	0	0	0	18727	17380	153874	27457	956415	37305	106825	0	0	8143	757924	0	0
2024-04-16 05:21:32			0	33902	0	0	0	18711	17390	153814	27329	956370	37294	106819	0	0	8144	757635	0	0
2024-04-16 05:22:32			0	33899	0	0	0	18709	17380	153882	27492	956388	37294	106818	0	0	8143	757825	0	0
2024-04-16 05:23:32			0	33896	0	0	0	18716	17370	153882	27422	956319	37304	106821	0	0	8143	758015	0	0
2024-04-16 05:24:32			0	33896	0	0	0	18722	17380	153862	27119	956309	37305	106823	0	0	8143	757974	0	0
2024-04-16 05:25:32			0	33906	0	0	0	18727	17380	153846	27168	956354	37294	106825	0	0	8143	757479	0	0
2024-04-16 05:26:32			0	33900	0	0	0	18724	17370	153730	27258	956372	37304	106824	0	0	8143	757817	0	0
2024-04-16 05:27:32			0	33893	0	0	0	18719	17390	153878	27370	956396	37305	106822	0	0	8143	758081	0	0
2024-04-16 05:28:32			0	33876	0	0	0	18714	17380	153958	27133	956301	37294	106820	0	0	8142	758965	0	0
2024-04-16 05:29:32			0	33867	0	0	0	18714	17380	154006	27222	956407	37305	106820	0	0	8141	759411	0	0
2024-04-16 05:30:32			0	33856	0	0	0	18693	17370	154058	27327	956258	37304	106812	0	0	8141	759999	0	0
2024-04-16 05:31:32			0	33842	0	0	0	18701	17380	154166	27351	956354	37305	106815	0	0	8140	760653	0	0
2024-04-16 05:32:32			0	33850	0	0	0	18716	17360	154062	27419	956276	37292	106821	0	0	8140	760338	0	0
2024-04-16 05:33:32			0	33867	0	0	0	18722	17370	154018	27190	956346	37304	106823	0	0	8141	759453	0	0
2024-04-16 05:34:32			0	33878	0	0	0	18711	17370	153982	27312	956338	37304	106819	0	0	8142	758907	0	0
2024-04-16 05:35:32			0	33894	0	0	0	18727	17370	153890	27145	956364	37292	106825	0	0	8143	758114	0	0
2024-04-16 05:36:32			0	33886	0	0	0	18724	17370	154022	27228	956398	37304	106824	0	0	8142	758510	0	0
2024-04-16 05:37:32			0	33864	0	0	0	18714	17370	153894	27218	956285	37315	106820	0	0	8141	759602	0	0
2024-04-16 05:38:32			0	33904	0	0	0	18711	17360	153894	27324	956408	37304	106819	0	0	8143	757660	0	0
2024-04-16 05:39:32			0	33913	0	0	0	18727	17370	153734	27301	956285	37315	106825	0	0	8144	757173	0	0
2024-04-16 05:40:32			0	33917	0	0	0	18724	17370	153734	27390	956398	37304	106824	0	0	8144	756975	0	0
2024-04-16 05:41:32			0	33923	0	0	0	18724	17370	153738	27072	956398	37304	106824	0	0	8144	756678	0	0
2024-04-16 05:42:32			0	33940	0	0	0	18729	17360	153730	27469	956355	37304	106826	0	0	8145	755879	0	0
2024-04-16 05:43:32			0	33937	0	0	0	18724	17370	153578	27277	956390	37292	106824	0	0	8145	755986	0	0
2024-04-16 05:44:32			0	33922	0	0	0	18724	17360	153526	27220	956355	37315	106824	0	0	8144	756769	0	0
2024-04-16 05:45:32			0	33932	0	0	0	18719	17370	153614	27284	956451	37293	106822	0	0	8145	756233	0	0
2024-04-16 05:46:32			0	33945	0	0	0	18722	17380	153638	27092	956407	37305	106823	0	0	8146	755549	0	0
2024-04-16 05:47:32			0	33917	0	0	0	18716	17380	153582	27234	956380	37294	106821	0	0	8144	756934	0	0
2024-04-16 05:48:32			0	33936	0	0	0	18727	17370	153562	27319	956364	37304	106825	0	0	8145	756035	0	0
2024-04-16 05:49:32			0	33944	0	0	0	18727	17370	153534	27561	956372	37293	106825	0	0	8146	755640	0	0
2024-04-16 05:50:32			0	33943	0	0	0	18729	17370	153582	27341	956319	37304	106826	0	0	8145	755689	0	0
2024-04-16 05:51:32			0	33947	0	0	0	18729	17370	153458	27580	956338	37304	106826	0	0	8146	755492	0	0
2024-04-16 05:52:32			0	33946	0	0	0	18716	17370	153722	27474	956417	37292	106821	0	0	8146	755541	0	0
2024-04-16 05:53:32			0	33907	0	0	0	18696	17370	153710	27381	956319	37293	106813	0	0	8144	757470	0	0
2024-04-16 05:54:32			0	33879	0	0	0	18703	17370	153834	27502	956372	37283	106816	0	0	8142	758857	0	0
2024-04-16 05:55:32			0	33856	0	0	0	18693	17370	153958	27455	956372	37304	106812	0	0	8141	759999	0	0
2024-04-16 05:56:32			0	33851	0	0	0	18698	17360	154014	27216	956355	37292	106814	0	0	8141	760288	0	0
2024-04-16 05:57:32			0	33855	0	0	0	18690	17370	154082	27352	956319	37304	106811	0	0	8141	760048	0	0
2024-04-16 05:58:32			0	33833	0	0	0	18701	17360	154074	27197	956276	37304	106815	0	0	8140	761182	0	0
2024-04-16 05:59:32			0	33834	0	0	0	18683	17360	154130	27317	956303	37304	106808	0	0	8140	761133	0	0
2024-04-16 06:00:32			0	33794	0	0	0	18701	17360	154158	27370	956295	37304	106815	0	0	8137	763123	0	0
2024-04-16 06:01:32			0	33818	0	0	0	18701	17350	154178	27460	956339	37314	106815	0	0	8139	761970	0	0
2024-04-16 06:02:32			0	33806	0	0	0	18690	17360	154150	27376	956268	37292	106811	0	0	8138	762525	0	0
2024-04-16 06:03:32			0	33797	0	0	0	18706	17360	154150	27308	956347	37292	106817	0	0	8137	762973	0	0
2024-04-16 06:04:32			0	33791	0	0	0	18693	17360	154150	27223	956303	37292	106812	0	0	8137	763272	0	0
2024-04-16 06:05:32			0	33798	0	0	0	18709	17360	154282	27296	956268	37304	106818	0	0	8137	762924	0	0
2024-04-16 06:06:32			0	33817	0	0	0	18696	17350	154274	27147	956339	37291	106813	0	0	8139	762019	0	0
2024-04-16 06:07:32			0	33808	0	0	0	18703	17350	154290	27277	956260	37303	106816	0	0	8138	762467	0	0
2024-04-16 06:08:32			0	33791	0	0	0	18696	17360	154222	27076	956295	37292	106813	0	0	8137	763272	0	0
2024-04-16 06:09:32			0	33805	0	0	0	18706	17350	154254	26835	956252	37302	106817	0	0	8138	762617	0	0
2024-04-16 06:10:32			0	33808	0	0	0	18696	17350	154134	26996	956339	37291	106813	0	0	8138	762467	0	0
2024-04-16 06:11:32			0	33806	0	0	0	18696	17360	154210	26934	956268	37304	106813	0	0	8138	762525	0	0
2024-04-16 06:12:32			0	33787	0	0	0	18690	17350	154234	27008	956234	37291	106811	0	0	8137	763513	0	0
2024-04-16 06:13:32			0	33795	0	0	0	18703	17350	154226	27261	956234	37291	106816	0	0	8137	763115	0	0
2024-04-16 06:14:32			0	33802	0	0	0	18698	17350	154254	27384	956339	37303	106814	0	0	8138	762766	0	0
2024-04-16 06:15:32			0	33818	0	0	0	18698	17350	154258	27046	956252	37291	106814	0	0	8139	761970	0	0
2024-04-16 06:16:32			0	33834	0	0	0	18698	17350	154182	26911	956286	37314	106814	0	0	8140	761174	0	0
2024-04-16 06:17:32			0	33838	0	0	0	18714	17360	154138	27015	956329	37304	106820	0	0	8140	760934	0	0
2024-04-16 06:18:32			0	33829	0	0	0	18719	17360	154066	26981	956355	37304	106822	0	0	8139	761381	0	0
2024-04-16 06:19:32			0	33863	0	0	0	18716	17360	153986	27338	956347	37315	106821	0	0	8141	759692	0	0
2024-04-16 06:20:32			0	33862	0	0	0	18709	17360	154002	27365	956374	37304	106818	0	0	8141	759742	0	0
2024-04-16 06:21:32			0	33889	0	0	0	18742	17360	153994	27189	956408	37304	106831	0	0	8142	758403	0	0
2024-04-16 06:22:32			0	33924	0	0	0	18763	17360	153854	27298	956461	37315	106839	0	0	8144	756670	0	0
2024-04-16 06:23:32			0	33929	0	0	0	18745	17370	153642	27377	956478	37304	106832	0	0	8144	756381	0	0
2024-04-16 06:24:32			0	33954	0	0	0	18758	17380	153642	27261	956407	37305	106837	0	0	8146	755105	0	0
2024-04-16 06:25:32			0	33977	0	0	0	18750	17370	153466	27007	956451	37304	106834	0	0	8147	754011	0	0
2024-04-16 06:26:32			0	34007	0	0	0	18789	17380	153326	26979	956494	37316	106849	0	0	8148	752491	0	0
2024-04-16 06:27:32			0	34040	0	0	0	18784	17390	153118	27178	956528	37316	106847	0	0	8150	750826	0	0
2024-04-16 06:28:32			0	34054	0	0	0	18789	17380	153058	27409	956547	37305	106849	0	0	8151	750179	0	0
2024-04-16 06:29:32			0	34075	0	0	0	18794	17390	152870	27112	956537	37317	106851	0	0	8152	749107	0	0
2024-04-16 06:30:32			0	34125	0	0	0	18799	17410	152814	26949	956614	37307	106853	0	0	8155	746575	0	0
2024-04-16 06:31:32			0	34136	0	0	0	18807	17410	152770	27086	956640	37307	106856	0	0	8155	746036	0	0
2024-04-16 06:32:32			0	34173	0	0	0	18810	17420	152542	27190	956691	37320	106857	0	0	8158	744188	0	0
2024-04-16 06:33:32			0	34212	0	0	0	18812	17420	152330	27098	956717	37332	106858	0	0	8160	742286	0	0
2024-04-16 06:34:32			0	34233	0	0	0	18812	17420	152222	27268	956665	37332	106858	0	0	8161	741263	0	0
2024-04-16 06:35:32			0	34280	0	0	0	18810	17430	152022	27393	956681	37320	106857	0	0	8164	738938	0	0
2024-04-16 06:36:32			0	34295	0	0	0	18794	17440	151926	27038	956742	37321	106851	0	0	8165	738170	0	0
2024-04-16 06:37:32			0	34308	0	0	0	18815	17430	151978	27383	956707	37320	106859	0	0	8165	737580	0	0
2024-04-16 06:38:32			0	34362	0	0	0	18851	17430	151647	27092	956734	37309	106873	0	0	8168	734965	0	0
2024-04-16 06:39:32			0	34439	0	0	0	18846	17440	151375	27211	956795	37310	106871	0	0	8172	731210	0	0
2024-04-16 06:40:32			0	34465	0	0	0	18857	17450	151115	27400	956890	37322	106875	0	0	8174	729919	0	0
2024-04-16 06:41:32			0	34526	0	0	0	18890	17450	151047	27046	956845	37322	106888	0	0	8176	726989	0	0
2024-04-16 06:42:32			0	34563	0	0	0	18883	17470	150875	27397	956870	37334	106885	0	0	8179	725139	0	0
2024-04-16 06:43:32			0	34572	0	0	0	18893	17470	150759	27287	956931	37334	106889	0	0	8179	724708	0	0
2024-04-16 06:44:32			0	34588	0	0	0	18888	17480	150659	27298	956913	37325	106887	0	0	8180	723904	0	0
2024-04-16 06:45:32			0	34605	0	0	0	18898	17490	150619	27364	956956	37326	106891	0	0	8181	723052	0	0
2024-04-16 06:46:32			0	34633	0	0	0	18885	17490	150499	27263	956982	37336	106886	0	0	8183	721717	0	0
2024-04-16 06:47:32			0	34652	0	0	0	18909	17480	150383	27272	956992	37346	106895	0	0	8183	720850	0	0
2024-04-16 06:48:32			0	34689	0	0	0	18903	17500	150239	27048	957006	37337	106893	0	0	8186	719012	0	0
2024-04-16 06:49:32			0	34715	0	0	0	18914	17510	150163	27268	957120	37317	106897	0	0	8187	717737	0	0
2024-04-16 06:50:32			0	34743	0	0	0	18927	17510	149959	27521	957147	37349	106902	0	0	8188	716409	0	0
2024-04-16 06:51:32			0	34757	0	0	0	18909	17520	149979	27481	957084	37317	106895	0	0	8190	715707	0	0
2024-04-16 06:52:32			0	34767	0	0	0	18916	17520	149887	27319	957092	37350	106898	0	0	8190	715233	0	0
2024-04-16 06:53:32			0	34791	0	0	0	18940	17540	149811	27177	957116	37340	106907	0	0	8191	714020	0	0
2024-04-16 06:54:32			0	34827	0	0	0	18958	17540	149647	27055	957177	37340	106914	0	0	8193	712319	0	0
2024-04-16 06:55:32			0	34854	0	0	0	18945	17550	149563	27258	957212	37341	106909	0	0	8194	711007	0	0
2024-04-16 06:56:32			0	34860	0	0	0	18942	17550	149451	27275	957193	37342	106908	0	0	8195	710724	0	0
2024-04-16 06:57:32			0	34861	0	0	0	18953	17550	149363	27334	957273	37332	106912	0	0	8195	710677	0	0
2024-04-16 06:58:32			0	34894	0	0	0	18958	17560	149343	27429	957228	37342	106914	0	0	8197	709085	0	0
2024-04-16 06:59:32			0	34921	0	0	0	18961	17570	149347	27334	957244	37343	106915	0	0	8198	707778	0	0
2024-04-16 07:00:32			0	34933	0	0	0	18971	17560	149127	27531	957236	37332	106919	0	0	8198	707253	0	0
2024-04-16 07:01:32			0	34945	0	0	0	18966	17580	149119	27161	957261	37344	106917	0	0	8199	706613	0	0
2024-04-16 07:02:32			0	34946	0	0	0	18963	17580	149051	27275	957374	37344	106916	0	0	8199	706566	0	0
2024-04-16 07:03:32			0	34968	0	0	0	18963	17570	149019	27606	957332	37333	106916	0	0	8201	705573	0	0
2024-04-16 07:04:32			0	34960	0	0	0	18963	17580	148987	27024	957348	37333	106916	0	0	8200	705909	0	0
2024-04-16 07:05:32			0	34951	0	0	0	18958	17570	148907	27301	957332	37344	106914	0	0	8200	706370	0	0
2024-04-16 07:06:32			0	34911	0	0	0	18906	17600	149099	27246	957293	37324	106894	0	0	8199	708132	0	0
2024-04-16 07:07:32			0	34880	0	0	0	18909	17580	149415	27175	957181	37333	106895	0	0	8197	709667	0	0
2024-04-16 07:08:32			0	34835	0	0	0	18909	17580	149359	27443	957269	37333	106895	0	0	8194	711787	0	0
2024-04-16 07:09:32			0	34819	0	0	0	18914	17580	149571	27343	957208	37344	106897	0	0	8193	712542	0	0
2024-04-16 07:10:32			0	34825	0	0	0	18916	17570	149471	27201	957191	37343	106898	0	0	8193	712297	0	0
2024-04-16 07:11:32			0	34788	0	0	0	18903	17570	149727	27448	957200	37333	106893	0	0	8192	714045	0	0
2024-04-16 07:12:32			0	34790	0	0	0	18922	17580	149659	27403	957216	37344	106900	0	0	8191	713912	0	0
2024-04-16 07:13:32			0	34817	0	0	0	18953	17570	149563	27131	957226	37344	106912	0	0	8192	712675	0	0
2024-04-16 07:14:32			0	34848	0	0	0	18940	17580	149443	27092	957261	37333	106907	0	0	8194	711174	0	0
2024-04-16 07:15:32			0	34848	0	0	0	18929	17570	149459	27258	957200	37344	106903	0	0	8194	711213	0	0
2024-04-16 07:16:32			0	34844	0	0	0	18919	17570	149511	27303	957244	37322	106899	0	0	8194	711401	0	0
2024-04-16 07:17:32			0	34865	0	0	0	18922	17580	149375	26998	957234	37322	106900	0	0	8196	710373	0	0
2024-04-16 07:18:32			0	34843	0	0	0	18937	17580	149327	27279	957242	37344	106906	0	0	8194	711410	0	0
2024-04-16 07:19:32			0	34891	0	0	0	18935	17570	149239	27112	957297	37322	106905	0	0	8197	709188	0	0
2024-04-16 07:20:32			0	34903	0	0	0	18932	17580	149223	27057	957295	37344	106904	0	0	8198	708585	0	0
2024-04-16 07:21:32			0	34909	0	0	0	18955	17570	149255	27010	957305	37344	106913	0	0	8197	708342	0	0
2024-04-16 07:22:32			0	34922	0	0	0	18953	17580	149135	26970	957313	37344	106912	0	0	8198	707692	0	0
2024-04-16 07:23:32			0	34944	0	0	0	18950	17580	149031	26987	957261	37333	106911	0	0	8200	706660	0	0
2024-04-16 07:24:32			0	34939	0	0	0	18940	17590	149035	27152	957277	37356	106907	0	0	8199	706856	0	0
2024-04-16 07:25:32			0	34943	0	0	0	18955	17580	149091	27152	957348	37344	106913	0	0	8199	706707	0	0
2024-04-16 07:26:32			0	34961	0	0	0	18942	17590	148891	27441	957382	37345	106908	0	0	8201	705824	0	0
2024-04-16 07:27:32			0	34944	0	0	0	18927	17580	148975	27076	957348	37344	106902	0	0	8200	706660	0	0
2024-04-16 07:28:32			0	34929	0	0	0	18942	17580	149107	27235	957287	37333	106908	0	0	8199	707364	0	0
2024-04-16 07:29:32			0	34919	0	0	0	18919	17590	149067	27407	957338	37334	106899	0	0	8199	707795	0	0
2024-04-16 07:30:32			0	34926	0	0	0	18942	17590	149095	27261	957250	37345	106908	0	0	8199	707466	0	0
2024-04-16 07:31:32			0	34932	0	0	0	18927	17570	149119	27298	957226	37344	106902	0	0	8199	707261	0	0
2024-04-16 07:32:32			0	34936	0	0	0	18914	17590	149091	27241	957330	37356	106897	0	0	8200	706997	0	0
2024-04-16 07:33:32			0	34921	0	0	0	18942	17580	149163	27369	957348	37344	106908	0	0	8198	707739	0	0
2024-04-16 07:34:32			0	34954	0	0	0	18961	17590	149147	27265	957391	37334	106915	0	0	8200	706152	0	0
2024-04-16 07:35:32			0	34938	0	0	0	18953	17580	148991	27327	957348	37333	106912	0	0	8199	706941	0	0
2024-04-16 07:36:32			0	34951	0	0	0	18966	17590	149111	26972	957382	37345	106917	0	0	8200	706293	0	0
2024-04-16 07:37:32			0	34955	0	0	0	18968	17580	149035	27367	957348	37355	106918	0	0	8200	706144	0	0
2024-04-16 07:38:32			0	34975	0	0	0	18955	17600	148971	27272	957380	37334	106913	0	0	8201	705130	0	0
2024-04-16 07:39:32			0	34971	0	0	0	18937	17600	148979	27152	957328	37357	106906	0	0	8201	705317	0	0
2024-04-16 07:40:32			0	34955	0	0	0	18961	17600	149011	27466	957346	37345	106915	0	0	8200	706067	0	0
2024-04-16 07:41:32			0	34957	0	0	0	18966	17590	148995	27448	957391	37345	106917	0	0	8200	706012	0	0
2024-04-16 07:42:32			0	34982	0	0	0	18963	17600	148843	27504	957407	37334	106916	0	0	8202	704802	0	0
2024-04-16 07:43:32			0	34980	0	0	0	18971	17600	148951	27509	957407	37345	106919	0	0	8201	704896	0	0
2024-04-16 07:44:32			0	34983	0	0	0	18963	17600	148951	27407	957372	37345	106916	0	0	8202	704755	0	0
2024-04-16 07:45:32			0	34997	0	0	0	18981	17600	148831	27455	957460	37345	106923	0	0	8202	704100	0	0
2024-04-16 07:46:32			0	34990	0	0	0	18961	17610	148887	27098	957441	37346	106915	0	0	8202	704389	0	0
2024-04-16 07:47:32			0	34985	0	0	0	18971	17600	148903	27512	957407	37345	106919	0	0	8202	704662	0	0
2024-04-16 07:48:32			0	34998	0	0	0	18955	17610	148919	27504	957441	37357	106913	0	0	8203	704015	0	0
2024-04-16 07:49:32			0	34951	0	0	0	18961	17610	148967	27360	957441	37346	106915	0	0	8200	706216	0	0
2024-04-16 07:50:32			0	34973	0	0	0	18966	17610	148955	27098	957423	37347	106917	0	0	8201	705185	0	0
2024-04-16 07:51:32			0	34974	0	0	0	18974	17630	148947	27564	957466	37359	106920	0	0	8201	705062	0	0
2024-04-16 07:52:32			0	34975	0	0	0	18968	17600	148835	27161	957460	37334	106918	0	0	8201	705130	0	0
2024-04-16 07:53:32			0	34980	0	0	0	18966	17610	148891	27201	957441	37346	106917	0	0	8201	704857	0	0
2024-04-16 07:54:32			0	34973	0	0	0	18955	17600	148915	27585	957433	37345	106913	0	0	8201	705224	0	0
2024-04-16 07:55:32			0	34980	0	0	0	18963	17610	148911	27041	957441	37325	106916	0	0	8201	704857	0	0
2024-04-16 07:56:32			0	34957	0	0	0	18961	17630	148907	27381	957440	37337	106915	0	0	8200	705858	0	0
2024-04-16 07:57:32			0	34962	0	0	0	18961	17630	148907	27376	957413	37348	106915	0	0	8201	705623	0	0
2024-04-16 07:58:32			0	34957	0	0	0	18948	17600	148931	27549	957460	37334	106910	0	0	8200	705973	0	0
2024-04-16 07:59:32			0	34951	0	0	0	18971	17610	149035	27604	957415	37346	106919	0	0	8200	706216	0	0
2024-04-16 08:00:32			0	34953	0	0	0	18963	17610	149039	27881	957362	37335	106916	0	0	8200	706122	0	0
2024-04-16 08:01:32			0	34988	0	0	0	18942	17610	149019	27687	957441	37357	106908	0	0	8202	704483	0	0
2024-04-16 08:02:32			0	34964	0	0	0	18950	17600	149031	27800	957372	37357	106911	0	0	8201	705645	0	0
2024-04-16 08:03:32			0	34961	0	0	0	18968	17600	149035	27478	957407	37334	106918	0	0	8200	705786	0	0
2024-04-16 08:04:32			0	34962	0	0	0	18981	17610	149039	27414	957441	37346	106923	0	0	8200	705700	0	0
2024-04-16 08:05:32			0	34964	0	0	0	18963	17630	148947	27490	957466	37337	106916	0	0	8201	705530	0	0
2024-04-16 08:06:32			0	34968	0	0	0	18981	17620	148987	27426	957432	37347	106923	0	0	8201	705381	0	0
2024-04-16 08:07:32			0	34979	0	0	0	18979	17620	148847	27684	957484	37347	106922	0	0	8201	704866	0	0
2024-04-16 08:08:32			0	34986	0	0	0	18976	17620	148907	27836	957458	37347	106921	0	0	8202	704538	0	0
2024-04-16 08:09:32			0	34990	0	0	0	18971	17610	148879	27776	957476	37347	106919	0	0	8202	704389	0	0
2024-04-16 08:10:32			0	34965	0	0	0	18950	17620	148871	27327	957432	37369	106911	0	0	8201	705522	0	0
2024-04-16 08:11:32			0	34979	0	0	0	18976	17620	148915	27599	957484	37347	106921	0	0	8201	704866	0	0
2024-04-16 08:12:32			0	34996	0	0	0	18981	17610	148983	27317	957441	37357	106923	0	0	8202	704109	0	0
2024-04-16 08:13:32			0	34998	0	0	0	18976	17620	148851	27524	957484	37347	106921	0	0	8202	703977	0	0
2024-04-16 08:14:32			0	35016	0	0	0	18987	17620	148895	27459	957511	37358	106925	0	0	8203	703135	0	0
2024-04-16 08:15:32			0	34998	0	0	0	18989	17620	148799	27157	957511	37347	106926	0	0	8202	703977	0	0
2024-04-16 08:16:32			0	35007	0	0	0	18976	17630	148819	27320	957519	37359	106921	0	0	8203	703517	0	0
2024-04-16 08:17:32			0	35005	0	0	0	18976	17630	148807	27150	957493	37348	106921	0	0	8203	703611	0	0
2024-04-16 08:18:32			0	34978	0	0	0	18974	17630	148879	27566	957474	37359	106920	0	0	8201	704874	0	0
2024-04-16 08:19:32			0	34998	0	0	0	18976	17630	148811	27298	957493	37348	106921	0	0	8202	703938	0	0
2024-04-16 08:20:32			0	34993	0	0	0	18979	17630	148779	27310	957493	37348	106922	0	0	8202	704172	0	0
2024-04-16 08:21:32			0	35000	0	0	0	18987	17620	148751	27371	957511	37358	106925	0	0	8202	703883	0	0
2024-04-16 08:22:32			0	35007	0	0	0	18981	17620	148863	27628	957484	37347	106923	0	0	8203	703556	0	0
2024-04-16 08:23:32			0	35006	0	0	0	18984	17630	148851	27249	957545	37370	106924	0	0	8203	703564	0	0
2024-04-16 08:24:32			0	35009	0	0	0	18981	17640	148735	27569	957535	37360	106923	0	0	8203	703386	0	0
2024-04-16 08:25:32			0	35010	0	0	0	18997	17630	148771	27561	957545	37370	106929	0	0	8203	703377	0	0
2024-04-16 08:26:32			0	35004	0	0	0	18976	17630	148791	27476	957474	37359	106921	0	0	8203	703658	0	0
2024-04-16 08:27:32			0	35000	0	0	0	18979	17630	148907	27223	957493	37359	106922	0	0	8202	703845	0	0
2024-04-16 08:28:32			0	34981	0	0	0	18989	17630	148815	27228	957466	37359	106926	0	0	8201	704734	0	0
2024-04-16 08:29:32			0	34999	0	0	0	18979	17630	148899	27326	957501	37348	106922	0	0	8202	703891	0	0
2024-04-16 08:30:32			0	34988	0	0	0	18971	17640	148839	27350	957509	37327	106919	0	0	8202	704368	0	0
2024-04-16 08:31:32			0	34982	0	0	0	18992	17640	148891	27400	957517	37361	106927	0	0	8201	704649	0	0
2024-04-16 08:32:32			0	34988	0	0	0	18989	17630	148735	27609	957527	37348	106926	0	0	8202	704406	0	0
2024-04-16 08:33:32			0	35008	0	0	0	19002	17630	148739	27067	957493	37370	106931	0	0	8202	703471	0	0
2024-04-16 08:34:32			0	35010	0	0	0	18999	17640	148727	27405	957535	37371	106930	0	0	8203	703339	0	0
2024-04-16 08:35:32			0	35023	0	0	0	18981	17640	148723	27189	957596	37361	106923	0	0	8204	702732	0	0
2024-04-16 08:36:32			0	34996	0	0	0	18994	17640	148715	27157	957562	37360	106928	0	0	8202	703994	0	0
2024-04-16 08:37:32			0	35025	0	0	0	18997	17640	148779	27473	957543	37361	106929	0	0	8204	702638	0	0
2024-04-16 08:38:32			0	35014	0	0	0	18999	17640	148735	27152	957596	37361	106930	0	0	8203	703152	0	0
2024-04-16 08:39:32			0	34994	0	0	0	18984	17640	148867	27431	957543	37350	106924	0	0	8202	704087	0	0
2024-04-16 08:40:32			0	34990	0	0	0	18981	17640	148791	27812	957543	37361	106923	0	0	8202	704274	0	0
2024-04-16 08:41:32			0	34969	0	0	0	18974	17640	148763	27327	957588	37360	106920	0	0	8201	705257	0	0
2024-04-16 08:42:32			0	34988	0	0	0	18984	17640	148887	27433	957535	37360	106924	0	0	8202	704368	0	0
2024-04-16 08:43:32			0	34994	0	0	0	18981	17630	148851	27433	957519	37370	106923	0	0	8202	704125	0	0
2024-04-16 08:44:32			0	34980	0	0	0	18999	17640	148879	27926	957562	37349	106930	0	0	8201	704742	0	0
2024-04-16 08:45:32			0	34972	0	0	0	18989	17640	148831	27409	957517	37350	106926	0	0	8201	705117	0	0
2024-04-16 08:46:32			0	34978	0	0	0	18984	17640	148907	27514	957570	37361	106924	0	0	8201	704836	0	0
2024-04-16 08:47:32			0	34984	0	0	0	18987	17640	148971	27371	957570	37361	106925	0	0	8201	704555	0	0
2024-04-16 08:48:32			0	34966	0	0	0	18989	17650	148907	27360	957525	37361	106926	0	0	8200	705359	0	0
2024-04-16 08:49:32			0	34963	0	0	0	18984	17640	148891	27370	957509	37337	106924	0	0	8200	705538	0	0
2024-04-16 08:50:32			0	34968	0	0	0	18989	17640	148931	27680	957570	37350	106926	0	0	8200	705304	0	0
2024-04-16 08:51:32			0	34971	0	0	0	18987	17640	148947	27512	957562	37349	106925	0	0	8201	705164	0	0
2024-04-16 08:52:32			0	34988	0	0	0	18989	17640	148943	27448	957588	37371	106926	0	0	8202	704368	0	0
2024-04-16 08:53:32			0	34972	0	0	0	18958	17630	149031	27038	957527	37348	106914	0	0	8201	705155	0	0
2024-04-16 08:54:32			0	34927	0	0	0	18948	17630	149071	27225	957440	37359	106910	0	0	8199	707265	0	0
2024-04-16 08:55:32			0	34885	0	0	0	18953	17630	149243	27479	957501	37359	106912	0	0	8196	709239	0	0
2024-04-16 08:56:32			0	34871	0	0	0	18958	17610	149411	27717	957423	37358	106914	0	0	8195	709975	0	0
2024-04-16 08:57:32			0	34833	0	0	0	18953	17620	149407	27701	957484	37347	106912	0	0	8193	711726	0	0
2024-04-16 08:58:32			0	34843	0	0	0	18948	17630	149343	27203	957466	37348	106910	0	0	8194	711216	0	0
2024-04-16 08:59:32			0	34825	0	0	0	18945	17620	149555	27355	957432	37369	106909	0	0	8193	712104	0	0
2024-04-16 09:00:32			0	34809	0	0	0	18948	17610	149603	27402	957371	37347	106910	0	0	8192	712898	0	0
2024-04-16 09:01:32			0	34811	0	0	0	18945	17610	149627	27338	957397	37347	106909	0	0	8192	712803	0	0
2024-04-16 09:02:32			0	34807	0	0	0	18950	17610	149607	27249	957389	37335	106911	0	0	8192	712992	0	0
2024-04-16 09:03:32			0	34808	0	0	0	18961	17610	149563	27398	957450	37336	106915	0	0	8192	712945	0	0
2024-04-16 09:04:32			0	34789	0	0	0	18958	17610	149655	27246	957468	37357	106914	0	0	8191	713842	0	0
2024-04-16 09:05:32			0	34798	0	0	0	18963	17620	149687	27447	957458	37347	106916	0	0	8191	713378	0	0
2024-04-16 09:06:32			0	34823	0	0	0	18971	17610	149699	27405	957423	37358	106919	0	0	8193	712237	0	0
2024-04-16 09:07:32			0	34799	0	0	0	18955	17600	149619	27152	957460	37368	106913	0	0	8191	713409	0	0
2024-04-16 09:08:32			0	34809	0	0	0	18968	17610	149659	27272	957441	37346	106918	0	0	8192	712898	0	0
2024-04-16 09:09:32			0	34814	0	0	0	18966	17600	149691	27453	957460	37357	106917	0	0	8192	712700	0	0
2024-04-16 09:10:32			0	34826	0	0	0	18961	17610	149607	27524	957415	37346	106915	0	0	8193	712095	0	0
2024-04-16 09:11:32			0	34826	0	0	0	18966	17610	149635	27156	957389	37357	106917	0	0	8193	712095	0	0
2024-04-16 09:12:32			0	34841	0	0	0	18971	17610	149599	27346	957450	37358	106919	0	0	8194	711388	0	0
2024-04-16 09:13:32			0	34811	0	0	0	18974	17620	149543	27163	957458	37336	106920	0	0	8192	712764	0	0
2024-04-16 09:14:32			0	34830	0	0	0	18968	17610	149591	27499	957521	37368	106918	0	0	8193	711906	0	0
2024-04-16 09:15:32			0	34822	0	0	0	18976	17630	149535	27338	957466	37370	106921	0	0	8193	712207	0	0
2024-04-16 09:16:32			0	34810	0	0	0	18974	17630	149559	27661	957527	37359	106920	0	0	8192	712773	0	0
2024-04-16 09:17:32			0	34830	0	0	0	18984	17600	149523	27313	957433	37357	106924	0	0	8193	711945	0	0
2024-04-16 09:18:32			0	34820	0	0	0	18971	17620	149651	27258	957484	37358	106919	0	0	8192	712340	0	0
2024-04-16 09:19:32			0	34820	0	0	0	18974	17620	149479	27201	957432	37358	106920	0	0	8192	712340	0	0
2024-04-16 09:20:32			0	34841	0	0	0	18976	17630	149523	27306	957545	37359	106921	0	0	8194	711310	0	0
2024-04-16 09:21:32			0	34837	0	0	0	18984	17630	149495	27552	957466	37359	106924	0	0	8193	711499	0	0
2024-04-16 09:22:32			0	34834	0	0	0	18987	17630	149531	27216	957440	37370	106925	0	0	8193	711640	0	0
2024-04-16 09:23:32			0	34847	0	0	0	18992	17620	149647	27436	957484	37347	106927	0	0	8194	711066	0	0
2024-04-16 09:24:32			0	34838	0	0	0	18984	17610	149635	27471	957476	37358	106924	0	0	8193	711529	0	0
2024-04-16 09:25:32			0	34854	0	0	0	18989	17630	149587	27118	957519	37348	106926	0	0	8194	710698	0	0
2024-04-16 09:26:32			0	34853	0	0	0	18987	17630	149595	27447	957519	37370	106925	0	0	8194	710745	0	0
2024-04-16 09:27:32			0	34839	0	0	0	18989	17630	149563	27287	957598	37370	106926	0	0	8193	711405	0	0
2024-04-16 09:28:32			0	34850	0	0	0	18989	17630	149507	27287	957527	37359	106926	0	0	8194	710886	0	0
2024-04-16 09:29:32			0	34837	0	0	0	18989	17630	149547	27564	957527	37370	106926	0	0	8193	711499	0	0
2024-04-16 09:30:32			0	34859	0	0	0	18994	17630	149519	27365	957598	37370	106928	0	0	8194	710462	0	0
2024-04-16 09:31:32			0	34869	0	0	0	18994	17630	149555	27396	957545	37359	106928	0	0	8195	709991	0	0
2024-04-16 09:32:32			0	34851	0	0	0	18997	17630	149455	27476	957580	37359	106929	0	0	8194	710839	0	0
2024-04-16 09:33:32			0	34857	0	0	0	19002	17630	149467	27281	957554	37380	106931	0	0	8194	710557	0	0
2024-04-16 09:34:32			0	34857	0	0	0	18992	17630	149503	27377	957545	37359	106927	0	0	8194	710557	0	0
2024-04-16 09:35:32			0	34859	0	0	0	18989	17630	149547	27407	957501	37359	106926	0	0	8194	710462	0	0
2024-04-16 09:36:32			0	34869	0	0	0	18992	17640	149575	27635	957562	37349	106927	0	0	8195	709953	0	0
2024-04-16 09:37:32			0	34879	0	0	0	18994	17630	149563	27770	957554	37370	106928	0	0	8195	709521	0	0
2024-04-16 09:38:32			0	34859	0	0	0	18999	17640	149447	27521	957588	37371	106930	0	0	8194	710424	0	0
2024-04-16 09:39:32			0	34865	0	0	0	19010	17650	149363	27563	957578	37361	106934	0	0	8194	710102	0	0
2024-04-16 09:40:32			0	34873	0	0	0	19005	17640	149375	27613	957649	37372	106932	0	0	8195	709764	0	0
2024-04-16 09:41:32			0	34893	0	0	0	19012	17650	149267	27398	957639	37372	106935	0	0	8196	708785	0	0
2024-04-16 09:42:32			0	34888	0	0	0	19010	17650	149343	27533	957578	37350	106934	0	0	8196	709020	0	0
2024-04-16 09:43:32			0	34900	0	0	0	19007	17640	149319	27267	957596	37350	106933	0	0	8196	708495	0	0
2024-04-16 09:44:32			0	34904	0	0	0	19012	17660	149371	27429	957594	37373	106935	0	0	8197	708230	0	0
2024-04-16 09:45:32			0	34911	0	0	0	19015	17650	149275	27521	957613	37350	106936	0	0	8197	707939	0	0
2024-04-16 09:46:32			0	34908	0	0	0	19023	17660	149295	27684	957647	37361	106939	0	0	8197	708042	0	0
2024-04-16 09:47:32			0	34917	0	0	0	19012	17650	149287	27623	957657	37361	106935	0	0	8197	707657	0	0
2024-04-16 09:48:32			0	34936	0	0	0	19020	17650	149203	27293	957631	37361	106938	0	0	8198	706766	0	0
2024-04-16 09:49:32			0	34911	0	0	0	19023	17660	149235	27798	957682	37351	106939	0	0	8197	707901	0	0
2024-04-16 09:50:32			0	34914	0	0	0	19018	17650	149119	27492	957718	37361	106937	0	0	8197	707798	0	0
2024-04-16 09:51:32			0	34932	0	0	0	19023	17670	149147	27748	957663	37351	106939	0	0	8198	706876	0	0
2024-04-16 09:52:32			0	34945	0	0	0	19020	17660	149199	27516	957726	37373	106938	0	0	8199	706305	0	0
2024-04-16 09:53:32			0	34952	0	0	0	19020	17670	149139	27838	957690	37351	106938	0	0	8199	705939	0	0
2024-04-16 09:54:32			0	34960	0	0	0	19028	17660	149131	27481	957708	37362	106941	0	0	8199	705602	0	0
2024-04-16 09:55:32			0	34944	0	0	0	19036	17660	149059	27485	957735	37373	106944	0	0	8198	706352	0	0
2024-04-16 09:56:32			0	34956	0	0	0	19025	17660	149231	27859	957621	37373	106940	0	0	8199	705789	0	0
2024-04-16 09:57:32			0	34955	0	0	0	19031	17670	149019	27642	957716	37373	106942	0	0	8199	705798	0	0
2024-04-16 09:58:32			0	34948	0	0	0	19028	17670	149115	27333	957751	37373	106941	0	0	8199	706126	0	0
2024-04-16 09:59:32			0	34954	0	0	0	19028	17680	149079	27474	957680	37384	106941	0	0	8199	705807	0	0
2024-04-16 10:00:32			0	34956	0	0	0	19025	17670	149039	27476	957724	37362	106940	0	0	8199	705751	0	0
2024-04-16 10:01:32			0	34966	0	0	0	19023	17670	149055	27383	957698	37373	106939	0	0	8200	705283	0	0
2024-04-16 10:02:32			0	34966	0	0	0	19028	17670	148915	27692	957724	37373	106941	0	0	8200	705283	0	0
2024-04-16 10:03:32			0	34974	0	0	0	19028	17680	148995	27739	957793	37375	106941	0	0	8200	704870	0	0
2024-04-16 10:04:32			0	34982	0	0	0	19028	17670	148939	27602	957777	37373	106941	0	0	8201	704534	0	0
2024-04-16 10:05:32			0	34997	0	0	0	19033	17670	148975	27635	957716	37362	106943	0	0	8201	703832	0	0
2024-04-16 10:06:32			0	34989	0	0	0	19033	17680	148875	27521	957785	37363	106943	0	0	8201	704168	0	0
2024-04-16 10:07:32			0	34984	0	0	0	19036	17680	148891	27360	957759	37363	106944	0	0	8201	704401	0	0
2024-04-16 10:08:32			0	35000	0	0	0	19025	17680	148851	27339	957741	37353	106940	0	0	8202	703653	0	0
2024-04-16 10:09:32			0	34977	0	0	0	19036	17680	148903	27743	957741	37364	106944	0	0	8200	704729	0	0
2024-04-16 10:10:32			0	34994	0	0	0	19036	17680	148911	27500	957793	37364	106944	0	0	8201	703934	0	0
2024-04-16 10:11:32			0	34992	0	0	0	19041	17670	148923	27175	957777	37362	106946	0	0	8201	704066	0	0
2024-04-16 10:12:32			0	34980	0	0	0	19033	17670	148871	27275	957751	37373	106943	0	0	8201	704627	0	0
2024-04-16 10:13:32			0	34995	0	0	0	19036	17680	148759	27220	957759	37363	106944	0	0	8201	703887	0	0
2024-04-16 10:14:32			0	34997	0	0	0	19031	17680	148847	27410	957733	37352	106942	0	0	8202	703793	0	0
2024-04-16 10:15:32			0	35002	0	0	0	19033	17680	148787	27166	957733	37363	106943	0	0	8202	703560	0	0
2024-04-16 10:16:32			0	35011	0	0	0	19025	17690	148819	27561	957776	37375	106940	0	0	8203	703101	0	0
2024-04-16 10:17:32			0	35009	0	0	0	19038	17690	148767	27215	957749	37385	106945	0	0	8202	703194	0	0
2024-04-16 10:18:32			0	35022	0	0	0	19025	17670	148739	27282	957724	37362	106940	0	0	8203	702664	0	0
2024-04-16 10:19:32			0	35022	0	0	0	19031	17680	148747	27237	957767	37375	106942	0	0	8203	702625	0	0
2024-04-16 10:20:32			0	35006	0	0	0	19033	17680	148743	27215	957793	37375	106943	0	0	8202	703373	0	0
2024-04-16 10:21:32			0	35015	0	0	0	19038	17680	148803	27270	957741	37385	106945	0	0	8202	702952	0	0
2024-04-16 10:22:32			0	34997	0	0	0	19036	17690	148751	26951	957828	37385	106944	0	0	8202	703755	0	0
2024-04-16 10:23:32			0	35006	0	0	0	19038	17690	148723	27466	957749	37375	106945	0	0	8202	703334	0	0
2024-04-16 10:24:32			0	35017	0	0	0	19033	17690	148743	27251	957784	37365	106943	0	0	8203	702821	0	0
2024-04-16 10:25:32			0	34994	0	0	0	19033	17670	148751	27396	957777	37362	106943	0	0	8201	703972	0	0
2024-04-16 10:26:32			0	35018	0	0	0	19038	17690	148739	27296	957784	37354	106945	0	0	8203	702774	0	0
2024-04-16 10:27:32			0	35022	0	0	0	19031	17690	148739	27192	957802	37375	106942	0	0	8203	702587	0	0
2024-04-16 10:28:32			0	34996	0	0	0	19033	17680	148795	27183	957741	37375	106943	0	0	8201	703840	0	0
2024-04-16 10:29:32			0	34995	0	0	0	19038	17670	148735	27234	957777	37373	106945	0	0	8201	703925	0	0
2024-04-16 10:30:32			0	34999	0	0	0	19038	17680	148767	27251	957785	37374	106945	0	0	8202	703700	0	0
2024-04-16 10:31:32			0	35013	0	0	0	19036	17680	148683	27229	957714	37364	106944	0	0	8202	703046	0	0
2024-04-16 10:32:32			0	35012	0	0	0	19036	17680	148747	27312	957759	37363	106944	0	0	8202	703092	0	0
2024-04-16 10:33:32			0	35009	0	0	0	19038	17680	148751	27220	957706	37374	106945	0	0	8202	703233	0	0
2024-04-16 10:34:32			0	35016	0	0	0	19025	17680	148735	27497	957706	37374	106940	0	0	8203	702906	0	0
2024-04-16 10:35:32			0	35033	0	0	0	19038	17690	148795	27239	957802	37364	106945	0	0	8204	702073	0	0
2024-04-16 10:36:32			0	35023	0	0	0	19036	17680	148743	27395	957793	37375	106944	0	0	8203	702579	0	0
2024-04-16 10:37:32			0	35010	0	0	0	19038	17680	148771	27305	957820	37364	106945	0	0	8202	703186	0	0
2024-04-16 10:38:32			0	35011	0	0	0	19036	17690	148803	27178	957836	37375	106944	0	0	8202	703101	0	0
2024-04-16 10:39:32			0	35028	0	0	0	19028	17680	148739	27208	957741	37364	106941	0	0	8203	702345	0	0
2024-04-16 10:40:32			0	35016	0	0	0	19044	17690	148799	27384	957776	37375	106947	0	0	8202	702867	0	0
2024-04-16 10:41:32			0	35010	0	0	0	19036	17690	148723	27234	957802	37364	106944	0	0	8202	703148	0	0
2024-04-16 10:42:32			0	35007	0	0	0	19038	17690	148679	27358	957784	37375	106945	0	0	8202	703288	0	0
2024-04-16 10:43:32			0	34998	0	0	0	19031	17680	148731	27346	957820	37364	106942	0	0	8202	703747	0	0
2024-04-16 10:44:32			0	34991	0	0	0	19036	17680	148831	27034	957767	37364	106944	0	0	8201	704074	0	0
2024-04-16 10:45:32			0	35019	0	0	0	19033	17680	148699	27433	957793	37375	106943	0	0	8203	702765	0	0
2024-04-16 10:46:32			0	35000	0	0	0	19033	17690	148803	27277	957749	37364	106943	0	0	8202	703615	0	0
2024-04-16 10:47:32			0	35019	0	0	0	19036	17680	148747	27180	957793	37385	106944	0	0	8203	702765	0	0
2024-04-16 10:48:32			0	35017	0	0	0	19041	17690	148683	27241	957757	37375	106946	0	0	8203	702821	0	0
2024-04-16 10:49:32			0	35029	0	0	0	19033	17690	148739	27306	957855	37375	106943	0	0	8203	702260	0	0
2024-04-16 10:50:32			0	35012	0	0	0	19041	17690	148647	27455	957784	37365	106946	0	0	8202	703054	0	0
2024-04-16 10:51:32			0	35018	0	0	0	19031	17680	148799	27350	957846	37385	106942	0	0	8203	702812	0	0
2024-04-16 10:52:32			0	35013	0	0	0	19044	17690	148687	27251	957776	37364	106947	0	0	8202	703007	0	0
2024-04-16 10:53:32			0	35015	0	0	0	19036	17680	148827	27346	957793	37364	106944	0	0	8202	702952	0	0
2024-04-16 10:54:32			0	35019	0	0	0	19044	17680	148715	27393	957793	37375	106947	0	0	8203	702765	0	0
2024-04-16 10:55:32			0	35028	0	0	0	19041	17680	148727	27022	957873	37385	106946	0	0	8203	702345	0	0
2024-04-16 10:56:32			0	35006	0	0	0	19036	17690	148687	26975	957828	37375	106944	0	0	8202	703334	0	0
2024-04-16 10:57:32			0	35028	0	0	0	19031	17680	148755	27038	957846	37396	106942	0	0	8203	702345	0	0
2024-04-16 10:58:32			0	35025	0	0	0	19036	17690	148763	27149	957828	37364	106944	0	0	8203	702447	0	0
2024-04-16 10:59:32			0	35019	0	0	0	19041	17680	148699	27500	957873	37364	106946	0	0	8203	702765	0	0
2024-04-16 11:00:32			0	35015	0	0	0	19041	17690	148695	27528	957802	37375	106946	0	0	8202	702914	0	0
2024-04-16 11:01:32			0	35004	0	0	0	19038	17690	148823	27505	957802	37375	106945	0	0	8202	703428	0	0
2024-04-16 11:02:32			0	35024	0	0	0	19036	17680	148743	27395	957820	37364	106944	0	0	8203	702532	0	0
2024-04-16 11:03:32			0	35013	0	0	0	19044	17690	148779	27206	957802	37353	106947	0	0	8202	703007	0	0
2024-04-16 11:04:32			0	35012	0	0	0	19044	17690	148839	27303	957802	37364	106947	0	0	8202	703054	0	0
2024-04-16 11:05:32			0	35019	0	0	0	19036	17690	148743	27131	957855	37375	106944	0	0	8203	702727	0	0
2024-04-16 11:06:32			0	35030	0	0	0	19041	17680	148679	27301	957838	37374	106946	0	0	8203	702252	0	0
2024-04-16 11:07:32			0	35025	0	0	0	19041	17700	148763	27085	957792	37375	106946	0	0	8203	702408	0	0
2024-04-16 11:08:32			0	35014	0	0	0	19041	17680	148791	27171	957820	37385	106946	0	0	8202	702999	0	0
2024-04-16 11:09:32			0	35023	0	0	0	19038	17680	148743	27251	957846	37364	106945	0	0	8203	702579	0	0
2024-04-16 11:10:32			0	35025	0	0	0	19041	17690	148755	27476	957836	37386	106946	0	0	8203	702447	0	0
2024-04-16 11:11:32			0	35022	0	0	0	19033	17690	148735	27474	957889	37375	106943	0	0	8203	702587	0	0
2024-04-16 11:12:32			0	35028	0	0	0	19041	17690	148771	27225	957802	37375	106946	0	0	8203	702307	0	0
2024-04-16 11:13:32			0	35027	0	0	0	19038	17690	148707	27157	957863	37397	106945	0	0	8203	702353	0	0
2024-04-16 11:14:32			0	35040	0	0	0	19041	17690	148691	27341	957802	37375	106946	0	0	8204	701747	0	0
2024-04-16 11:15:32			0	35025	0	0	0	19041	17690	148775	27590	957836	37386	106946	0	0	8203	702447	0	0
2024-04-16 11:16:32			0	35032	0	0	0	19038	17680	148683	27391	957820	37385	106945	0	0	8203	702158	0	0
2024-04-16 11:17:32			0	35042	0	0	0	19044	17690	148687	27033	957802	37385	106947	0	0	8204	701653	0	0
2024-04-16 11:18:32			0	35053	0	0	0	19041	17690	148763	27504	957828	37375	106946	0	0	8205	701140	0	0
2024-04-16 11:19:32			0	35020	0	0	0	19046	17690	148607	27203	957836	37375	106948	0	0	8203	702680	0	0
2024-04-16 11:20:32			0	35024	0	0	0	19049	17690	148731	27419	957855	37375	106949	0	0	8203	702494	0	0
2024-04-16 11:21:32			0	35020	0	0	0	19046	17700	148699	27376	957845	37386	106948	0	0	8203	702642	0	0
2024-04-16 11:22:32			0	35038	0	0	0	19049	17700	148719	27573	957853	37376	106949	0	0	8204	701802	0	0
2024-04-16 11:23:32			0	35022	0	0	0	19054	17690	148731	27138	957836	37386	106951	0	0	8203	702587	0	0
2024-04-16 11:24:32			0	35030	0	0	0	19051	17680	148743	27248	957793	37385	106950	0	0	8203	702252	0	0
2024-04-16 11:25:32			0	35029	0	0	0	19049	17700	148707	27369	957853	37366	106949	0	0	8203	702222	0	0
2024-04-16 11:26:32			0	35023	0	0	0	19054	17690	148707	27109	957828	37375	106951	0	0	8203	702540	0	0
2024-04-16 11:27:32			0	35021	0	0	0	19054	17690	148647	27313	957836	37375	106951	0	0	8203	702634	0	0
2024-04-16 11:28:32			0	35023	0	0	0	19036	17680	148683	27502	957820	37353	106944	0	0	8203	702579	0	0
2024-04-16 11:29:32			0	35025	0	0	0	19044	17700	148643	27518	957932	37387	106947	0	0	8203	702408	0	0
2024-04-16 11:30:32			0	35004	0	0	0	19046	17690	148719	27301	957810	37375	106948	0	0	8202	703428	0	0
2024-04-16 11:31:32			0	35028	0	0	0	19038	17700	148727	27384	957818	37386	106945	0	0	8203	702269	0	0
2024-04-16 11:32:32			0	35033	0	0	0	19054	17700	148655	27524	957826	37376	106951	0	0	8203	702035	0	0
2024-04-16 11:33:32			0	35022	0	0	0	19046	17700	148683	27150	957818	37375	106948	0	0	8203	702549	0	0
2024-04-16 11:34:32			0	35028	0	0	0	19059	17690	148679	27194	957828	37375	106953	0	0	8203	702307	0	0
2024-04-16 11:35:32			0	35028	0	0	0	19051	17700	148683	27621	957924	37375	106950	0	0	8203	702269	0	0
2024-04-16 11:36:32			0	35038	0	0	0	19054	17690	148699	27554	957855	37385	106951	0	0	8204	701840	0	0
2024-04-16 11:37:32			0	35029	0	0	0	19054	17700	148699	27357	957879	37376	106951	0	0	8203	702222	0	0
2024-04-16 11:38:32			0	35026	0	0	0	19054	17710	148771	27426	957861	37376	106951	0	0	8203	702324	0	0
2024-04-16 11:39:32			0	35029	0	0	0	19051	17700	148663	27156	957897	37375	106950	0	0	8203	702222	0	0
2024-04-16 11:40:32			0	35035	0	0	0	19046	17700	148719	27561	957897	37375	106948	0	0	8204	701942	0	0
2024-04-16 11:41:32			0	35018	0	0	0	19049	17700	148583	27187	957871	37386	106949	0	0	8203	702735	0	0
2024-04-16 11:42:32			0	35034	0	0	0	19051	17700	148707	27443	957897	37386	106950	0	0	8203	701988	0	0
2024-04-16 11:43:32			0	35017	0	0	0	19044	17690	148687	27294	957810	37375	106947	0	0	8203	702821	0	0
2024-04-16 11:44:32			0	35022	0	0	0	19059	17700	148659	27625	957879	37376	106953	0	0	8203	702549	0	0
2024-04-16 11:45:32			0	35008	0	0	0	19049	17710	148631	27415	957887	37376	106949	0	0	8202	703164	0	0
2024-04-16 11:46:32			0	35025	0	0	0	19051	17700	148667	27549	957906	37387	106950	0	0	8203	702408	0	0
2024-04-16 11:47:32			0	35026	0	0	0	19057	17700	148659	27431	957871	37386	106952	0	0	8203	702362	0	0
2024-04-16 11:48:32			0	35031	0	0	0	19057	17700	148675	27497	957950	37375	106952	0	0	8203	702129	0	0
2024-04-16 11:49:32			0	35026	0	0	0	19046	17700	148767	27486	957871	37375	106948	0	0	8203	702362	0	0
2024-04-16 11:50:32			0	35027	0	0	0	19059	17710	148727	27556	957940	37387	106953	0	0	8203	702277	0	0
2024-04-16 11:51:32			0	35027	0	0	0	19057	17700	148603	27355	957932	37376	106952	0	0	8203	702315	0	0
2024-04-16 11:52:32			0	35021	0	0	0	19054	17700	148727	27696	957871	37386	106951	0	0	8203	702595	0	0
2024-04-16 11:53:32			0	35027	0	0	0	19059	17700	148603	27197	957845	37386	106953	0	0	8203	702315	0	0
2024-04-16 11:54:32			0	35022	0	0	0	19057	17710	148627	27235	957914	37376	106952	0	0	8203	702511	0	0
2024-04-16 11:55:32			0	35032	0	0	0	19064	17700	148647	27459	957932	37387	106955	0	0	8203	702082	0	0
2024-04-16 11:56:32			0	35023	0	0	0	19054	17710	148647	27218	957914	37387	106951	0	0	8203	702464	0	0
2024-04-16 11:57:32			0	35024	0	0	0	19059	17710	148663	27445	957895	37377	106953	0	0	8203	702417	0	0
2024-04-16 11:58:32			0	35030	0	0	0	19064	17700	148687	27611	957950	37375	106955	0	0	8203	702175	0	0
2024-04-16 11:59:32			0	35034	0	0	0	19062	17700	148627	27495	957932	37376	106954	0	0	8203	701988	0	0
2024-04-16 12:00:32			0	35028	0	0	0	19062	17700	148635	27421	957853	37376	106954	0	0	8203	702269	0	0
2024-04-16 12:01:32			0	35018	0	0	0	19067	17710	148675	27871	957887	37366	106956	0	0	8202	702697	0	0
2024-04-16 12:02:32			0	35026	0	0	0	19062	17700	148587	27265	957879	37387	106954	0	0	8203	702362	0	0
2024-04-16 12:03:32			0	35026	0	0	0	19072	17710	148571	27540	957940	37398	106958	0	0	8203	702324	0	0
2024-04-16 12:04:32			0	35021	0	0	0	19064	17710	148703	27201	957914	37387	106955	0	0	8202	702557	0	0
2024-04-16 12:05:32			0	35041	0	0	0	19059	17710	148683	27741	957975	37377	106953	0	0	8204	701624	0	0
2024-04-16 12:06:32			0	35020	0	0	0	19057	17710	148671	27301	957940	37387	106952	0	0	8203	702604	0	0
2024-04-16 12:07:32			0	35030	0	0	0	19064	17710	148663	27473	957940	37376	106955	0	0	8203	702137	0	0
2024-04-16 12:08:32			0	35019	0	0	0	19070	17710	148627	27206	957948	37388	106957	0	0	8202	702650	0	0
2024-04-16 12:09:32			0	35040	0	0	0	19064	17710	148595	27409	957922	37377	106955	0	0	8204	701670	0	0
2024-04-16 12:10:32			0	35033	0	0	0	19057	17720	148587	27260	957965	37377	106952	0	0	8203	701959	0	0
2024-04-16 12:11:32			0	35023	0	0	0	19070	17710	148595	27079	957895	37399	106957	0	0	8203	702464	0	0
2024-04-16 12:12:32			0	35037	0	0	0	19075	17710	148535	27847	957948	37377	106959	0	0	8203	701810	0	0
2024-04-16 12:13:32			0	35050	0	0	0	19070	17710	148503	27409	957922	37377	106957	0	0	8204	701204	0	0
2024-04-16 12:14:32			0	35034	0	0	0	19067	17710	148539	27569	957914	37376	106956	0	0	8203	701950	0	0
2024-04-16 12:15:32			0	35048	0	0	0	19075	17710	148575	27606	957948	37377	106959	0	0	8204	701297	0	0
2024-04-16 12:16:32			0	35031	0	0	0	19072	17720	148551	27326	957956	37377	106958	0	0	8203	702052	0	0
2024-04-16 12:17:32			0	35040	0	0	0	19070	17710	148559	27819	957940	37387	106957	0	0	8203	701670	0	0
2024-04-16 12:18:32			0	35034	0	0	0	19085	17720	148595	27602	957983	37377	106963	0	0	8203	701912	0	0
2024-04-16 12:19:32			0	35037	0	0	0	19070	17710	148507	27500	957922	37388	106957	0	0	8203	701810	0	0
2024-04-16 12:20:32			0	35045	0	0	0	19070	17720	148539	27357	957956	37377	106957	0	0	8204	701399	0	0
2024-04-16 12:21:32			0	35045	0	0	0	19085	17720	148483	27744	957983	37377	106963	0	0	8204	701399	0	0
2024-04-16 12:22:32			0	35033	0	0	0	19075	17720	148479	27587	958009	37377	106959	0	0	8203	701959	0	0
2024-04-16 12:23:32			0	35047	0	0	0	19064	17710	148603	27533	957922	37399	106955	0	0	8204	701344	0	0
2024-04-16 12:24:32			0	35060	0	0	0	19077	17710	148547	27478	957993	37398	106960	0	0	8204	700738	0	0
2024-04-16 12:25:32			0	35053	0	0	0	19075	17710	148555	27498	958072	37387	106959	0	0	8204	701064	0	0
2024-04-16 12:26:32			0	35041	0	0	0	19090	17720	148471	27630	958009	37377	106965	0	0	8203	701585	0	0
2024-04-16 12:27:32			0	35046	0	0	0	19075	17720	148483	27549	957956	37388	106959	0	0	8204	701352	0	0
2024-04-16 12:28:32			0	35035	0	0	0	19075	17710	148563	27370	957948	37388	106959	0	0	8203	701904	0	0
2024-04-16 12:29:32			0	35059	0	0	0	19077	17720	148551	27315	957983	37388	106960	0	0	8204	700746	0	0
2024-04-16 12:30:32			0	35043	0	0	0	19077	17720	148483	27543	958036	37388	106960	0	0	8204	701492	0	0
2024-04-16 12:31:32			0	35037	0	0	0	19077	17720	148607	27783	957991	37389	106960	0	0	8203	701772	0	0
2024-04-16 12:32:32			0	35041	0	0	0	19085	17710	148583	27575	957948	37399	106963	0	0	8203	701624	0	0
2024-04-16 12:33:32			0	35028	0	0	0	19075	17720	148667	27244	957983	37388	106959	0	0	8203	702192	0	0
2024-04-16 12:34:32			0	35041	0	0	0	19080	17730	148679	27521	957999	37378	106961	0	0	8203	701547	0	0
2024-04-16 12:35:32			0	35046	0	0	0	19077	17720	148743	27523	958044	37389	106960	0	0	8204	701352	0	0
2024-04-16 12:36:32			0	35050	0	0	0	19072	17730	148635	27753	958052	37378	106958	0	0	8204	701128	0	0
2024-04-16 12:37:32			0	35040	0	0	0	19088	17740	148547	27450	958024	37390	106964	0	0	8203	701556	0	0
2024-04-16 12:38:32			0	35023	0	0	0	19077	17720	148695	27180	957965	37377	106960	0	0	8202	702426	0	0
2024-04-16 12:39:32			0	35019	0	0	0	19077	17720	148703	27294	957956	37399	106960	0	0	8202	702612	0	0
2024-04-16 12:40:32			0	35022	0	0	0	19083	17730	148683	27455	958026	37378	106962	0	0	8202	702434	0	0
2024-04-16 12:41:32			0	35036	0	0	0	19077	17720	148647	27462	958017	37389	106960	0	0	8203	701819	0	0
2024-04-16 12:42:32			0	35017	0	0	0	19088	17730	148627	27561	958026	37378	106964	0	0	8202	702668	0	0
2024-04-16 12:43:32			0	35029	0	0	0	19077	17720	148563	27640	958009	37388	106960	0	0	8203	702145	0	0
2024-04-16 12:44:32			0	35027	0	0	0	19080	17710	148611	27531	957940	37376	106961	0	0	8203	702277	0	0
2024-04-16 12:45:32			0	35025	0	0	0	19077	17730	148575	27488	958052	37401	106960	0	0	8203	702294	0	0
2024-04-16 12:46:32			0	35028	0	0	0	19085	17730	148631	27241	958052	37389	106963	0	0	8203	702154	0	0
2024-04-16 12:47:32			0	35031	0	0	0	19088	17730	148603	27131	957973	37389	106964	0	0	8203	702014	0	0
2024-04-16 12:48:32			0	35029	0	0	0	19080	17730	148583	27277	957999	37401	106961	0	0	8203	702107	0	0
2024-04-16 12:49:32			0	35030	0	0	0	19088	17740	148663	27505	958095	37389	106964	0	0	8203	702022	0	0
2024-04-16 12:50:32			0	35026	0	0	0	19077	17720	148739	27345	957991	37389	106960	0	0	8203	702285	0	0
2024-04-16 12:51:32			0	35026	0	0	0	19083	17730	148551	27512	958060	37412	106962	0	0	8203	702247	0	0
2024-04-16 12:52:32			0	35034	0	0	0	19080	17730	148691	27478	958007	37389	106961	0	0	8203	701874	0	0
2024-04-16 12:53:32			0	35030	0	0	0	19085	17730	148655	27429	957946	37401	106963	0	0	8203	702061	0	0
2024-04-16 12:54:32			0	35023	0	0	0	19077	17740	148599	27241	957989	37378	106960	0	0	8203	702349	0	0
2024-04-16 12:55:32			0	35029	0	0	0	19088	17730	148667	27149	958113	37401	106964	0	0	8203	702107	0	0
2024-04-16 12:56:32			0	35009	0	0	0	19085	17740	148691	27438	958069	37378	106963	0	0	8202	703003	0	0
2024-04-16 12:57:32			0	35026	0	0	0	19085	17730	148587	27376	958026	37389	106963	0	0	8203	702247	0	0
2024-04-16 12:58:32			0	35028	0	0	0	19085	17730	148583	27517	957999	37401	106963	0	0	8203	702154	0	0
2024-04-16 12:59:32			0	35020	0	0	0	19083	17740	148599	27455	957963	37389	106962	0	0	8202	702489	0	0
2024-04-16 13:00:32			0	35022	0	0	0	19085	17720	148603	27393	958017	37389	106963	0	0	8202	702472	0	0
2024-04-16 13:01:32			0	35026	0	0	0	19088	17730	148643	27672	958034	37401	106964	0	0	8202	702247	0	0
2024-04-16 13:02:32			0	35027	0	0	0	19090	17730	148739	27362	958087	37401	106965	0	0	8202	702200	0	0
2024-04-16 13:03:32			0	35025	0	0	0	19090	17740	148735	27621	957989	37401	106965	0	0	8202	702255	0	0
2024-04-16 13:04:32			0	35005	0	0	0	19085	17740	148647	27668	958042	37389	106963	0	0	8201	703190	0	0
2024-04-16 13:05:32			0	35022	0	0	0	19085	17730	148731	27576	958026	37401	106963	0	0	8202	702434	0	0
2024-04-16 13:06:32			0	35029	0	0	0	19083	17730	148803	27724	958052	37378	106962	0	0	8203	702107	0	0
2024-04-16 13:07:32			0	35020	0	0	0	19080	17730	148767	27235	958052	37389	106961	0	0	8202	702527	0	0
2024-04-16 13:08:32			0	35018	0	0	0	19080	17730	148751	27296	958087	37401	106961	0	0	8202	702621	0	0
2024-04-16 13:09:32			0	35026	0	0	0	19088	17740	148731	27386	958016	37389	106964	0	0	8202	702209	0	0
2024-04-16 13:10:32			0	35012	0	0	0	19088	17740	148679	27239	958069	37389	106964	0	0	8202	702863	0	0
2024-04-16 13:11:32			0	35014	0	0	0	19088	17740	148803	27263	958095	37401	106964	0	0	8202	702769	0	0
2024-04-16 13:12:32			0	35016	0	0	0	19085	17730	148595	27569	958087	37389	106963	0	0	8202	702714	0	0
2024-04-16 13:13:32			0	35004	0	0	0	19077	17730	148835	27485	958034	37412	106960	0	0	8201	703275	0	0
2024-04-16 13:14:32			0	35004	0	0	0	19083	17730	148739	27355	957946	37401	106962	0	0	8201	703275	0	0
2024-04-16 13:15:32			0	35017	0	0	0	19090	17730	148739	27279	958007	37389	106965	0	0	8202	702668	0	0
2024-04-16 13:16:32			0	35013	0	0	0	19080	17740	148719	27518	958016	37401	106961	0	0	8202	702816	0	0
2024-04-16 13:17:32			0	35013	0	0	0	19080	17730	148767	27216	957981	37389	106961	0	0	8202	702854	0	0
2024-04-16 13:18:32			0	35008	0	0	0	19088	17740	148687	27199	958077	37390	106964	0	0	8201	703050	0	0
2024-04-16 13:19:32			0	35002	0	0	0	19077	17730	148831	27362	958026	37389	106960	0	0	8201	703368	0	0
2024-04-16 13:20:32			0	34989	0	0	0	19088	17720	148759	27436	958070	37389	106964	0	0	8200	704014	0	0
2024-04-16 13:21:32			0	35004	0	0	0	19085	17740	148731	27201	958095	37389	106963	0	0	8201	703236	0	0
2024-04-16 13:22:32			0	34994	0	0	0	19083	17740	148819	27685	958103	37390	106962	0	0	8201	703704	0	0
2024-04-16 13:23:32			0	35006	0	0	0	19085	17740	148751	27403	958042	37389	106963	0	0	8201	703143	0	0
2024-04-16 13:24:32			0	35012	0	0	0	19093	17740	148687	27428	958103	37390	106966	0	0	8202	702863	0	0
2024-04-16 13:25:32			0	35002	0	0	0	19083	17740	148739	27658	958050	37401	106962	0	0	8201	703330	0	0
2024-04-16 13:26:32			0	35009	0	0	0	19085	17730	148747	27736	958060	37378	106963	0	0	8202	703041	0	0
2024-04-16 13:27:32			0	34990	0	0	0	19090	17730	148731	27478	958026	37401	106965	0	0	8200	703929	0	0
2024-04-16 13:28:32			0	35010	0	0	0	19088	17730	148763	27248	958113	37401	106964	0	0	8202	702994	0	0
2024-04-16 13:29:32			0	35009	0	0	0	19088	17740	148739	27376	958042	37389	106964	0	0	8202	703003	0	0
2024-04-16 13:30:32			0	34997	0	0	0	19085	17740	148751	27254	958069	37389	106963	0	0	8201	703563	0	0
2024-04-16 13:31:32			0	35011	0	0	0	19088	17740	148683	27507	958077	37401	106964	0	0	8202	702909	0	0
2024-04-16 13:32:32			0	35010	0	0	0	19096	17730	148779	27763	958087	37401	106967	0	0	8201	702994	0	0
2024-04-16 13:33:32			0	34991	0	0	0	19090	17740	148803	27310	958077	37401	106965	0	0	8201	703844	0	0
2024-04-16 13:34:32			0	35010	0	0	0	19088	17740	148823	27569	958077	37401	106964	0	0	8202	702956	0	0
2024-04-16 13:35:32			0	35000	0	0	0	19083	17750	148723	27312	958138	37402	106962	0	0	8201	703385	0	0
2024-04-16 13:36:32			0	35011	0	0	0	19085	17740	148707	27242	958103	37379	106963	0	0	8202	702909	0	0
2024-04-16 13:37:32			0	35012	0	0	0	19090	17750	148683	27409	958111	37391	106965	0	0	8202	702824	0	0
2024-04-16 13:38:32			0	35006	0	0	0	19088	17740	148639	27374	958130	37401	106964	0	0	8201	703143	0	0
2024-04-16 13:39:32			0	35015	0	0	0	19098	17750	148743	27578	958093	37402	106968	0	0	8202	702684	0	0
2024-04-16 13:40:32			0	34982	0	0	0	19103	17740	148695	27291	958077	37413	106970	0	0	8200	704265	0	0
2024-04-16 13:41:32			0	35009	0	0	0	19093	17740	148623	27473	958077	37413	106966	0	0	8201	703003	0	0
2024-04-16 13:42:32			0	34996	0	0	0	19096	17740	148739	27644	958077	37401	106967	0	0	8201	703610	0	0
2024-04-16 13:43:32			0	35038	0	0	0	19093	17750	148755	27244	958085	37402	106966	0	0	8203	701611	0	0
2024-04-16 13:44:32			0	35027	0	0	0	19098	17740	148651	27383	958069	37401	106968	0	0	8202	702162	0	0
2024-04-16 13:45:32			0	35041	0	0	0	19098	17740	148663	27211	958130	37401	106968	0	0	8203	701509	0	0
2024-04-16 13:46:32			0	35024	0	0	0	19098	17740	148523	27357	958077	37401	106968	0	0	8202	702302	0	0
2024-04-16 13:47:32			0	35039	0	0	0	19101	17750	148583	27609	958164	37391	106969	0	0	8203	701564	0	0
2024-04-16 13:48:32			0	35026	0	0	0	19098	17750	148615	27350	958138	37413	106968	0	0	8202	702171	0	0
2024-04-16 13:49:32			0	35050	0	0	0	19101	17740	148539	27547	958103	37401	106969	0	0	8204	701089	0	0
2024-04-16 13:50:32			0	35050	0	0	0	19101	17740	148503	27414	958050	37390	106969	0	0	8204	701089	0	0
2024-04-16 13:51:32			0	35058	0	0	0	19096	17750	148539	27296	958172	37391	106967	0	0	8204	700678	0	0
2024-04-16 13:52:32			0	35060	0	0	0	19103	17750	148503	27436	958111	37391	106970	0	0	8204	700585	0	0
2024-04-16 13:53:32			0	35078	0	0	0	19109	17750	148519	27769	958138	37391	106972	0	0	8205	699747	0	0
2024-04-16 13:54:32			0	35071	0	0	0	19106	17760	148443	27426	958136	37392	106971	0	0	8205	700035	0	0
2024-04-16 13:55:32			0	35069	0	0	0	19103	17750	148451	27282	958119	37402	106970	0	0	8205	700166	0	0
2024-04-16 13:56:32			0	35061	0	0	0	19111	17740	148403	27550	958130	37401	106973	0	0	8204	700577	0	0
2024-04-16 13:57:32			0	35086	0	0	0	19111	17750	148363	27293	958225	37402	106973	0	0	8205	699374	0	0
2024-04-16 13:58:32			0	35076	0	0	0	19122	17760	148503	27336	958241	37403	106977	0	0	8205	699802	0	0
2024-04-16 13:59:32			0	35096	0	0	0	19109	17760	148519	27352	958241	37414	106972	0	0	8206	698871	0	0
2024-04-16 14:00:32			0	35071	0	0	0	19114	17760	148491	27569	958215	37403	106974	0	0	8205	700035	0	0
2024-04-16 14:01:32			0	35094	0	0	0	19114	17760	148291	27301	958215	37392	106974	0	0	8206	698964	0	0
2024-04-16 14:02:32			0	35087	0	0	0	19114	17760	148443	27223	958241	37403	106974	0	0	8206	699290	0	0
2024-04-16 14:03:32			0	35092	0	0	0	19122	17760	148323	27796	958207	37392	106977	0	0	8206	699057	0	0
2024-04-16 14:04:32			0	35100	0	0	0	19132	17760	148403	27474	958189	37403	106981	0	0	8206	698685	0	0
2024-04-16 14:05:32			0	35111	0	0	0	19122	17770	148291	27651	958250	37393	106977	0	0	8207	698135	0	0
2024-04-16 14:06:32			0	35111	0	0	0	19124	17760	148352	27750	958241	37403	106978	0	0	8207	698173	0	0
2024-04-16 14:07:32			0	35118	0	0	0	19129	17770	148264	27490	958250	37393	106980	0	0	8207	697810	0	0
2024-04-16 14:08:32			0	35121	0	0	0	19119	17780	148248	27654	958248	37416	106976	0	0	8207	697633	0	0
2024-04-16 14:09:32			0	35121	0	0	0	19127	17770	148344	27810	958231	37415	106979	0	0	8207	697671	0	0
2024-04-16 14:10:32			0	35127	0	0	0	19127	17780	148328	27677	958266	37394	106979	0	0	8208	697354	0	0
2024-04-16 14:11:32			0	35129	0	0	0	19140	17770	148380	27625	958250	37404	106984	0	0	8207	697299	0	0
2024-04-16 14:12:32			0	35139	0	0	0	19137	17780	148240	27653	958239	37405	106983	0	0	8208	696797	0	0
2024-04-16 14:13:32			0	35136	0	0	0	19135	17770	148124	27562	958231	37404	106982	0	0	8208	696974	0	0
2024-04-16 14:14:32			0	35152	0	0	0	19150	17770	148136	27407	958250	37415	106988	0	0	8209	696232	0	0
2024-04-16 14:15:32			0	35164	0	0	0	19145	17780	148112	27796	958300	37416	106986	0	0	8209	695638	0	0
2024-04-16 14:16:32			0	35160	0	0	0	19153	17780	148016	27914	958319	37394	106989	0	0	8209	695823	0	0
2024-04-16 14:17:32			0	35192	0	0	0	19140	17790	147972	27961	958335	37406	106984	0	0	8211	694303	0	0
2024-04-16 14:18:32			0	35173	0	0	0	19142	17790	148044	28119	958335	37416	106985	0	0	8210	695183	0	0
2024-04-16 14:19:32			0	35181	0	0	0	19161	17780	147960	28076	958353	37405	106992	0	0	8210	694850	0	0
2024-04-16 14:20:32			0	35174	0	0	0	19161	17780	147948	27788	958353	37394	106992	0	0	8210	695174	0	0
2024-04-16 14:21:32			0	35199	0	0	0	19176	17790	147996	27980	958361	37416	106998	0	0	8211	693979	0	0
2024-04-16 14:22:32			0	35196	0	0	0	19163	17790	147980	27580	958449	37416	106993	0	0	8211	694118	0	0
2024-04-16 14:23:32			0	35191	0	0	0	19179	17800	147880	28005	958412	37416	106999	0	0	8210	694311	0	0
2024-04-16 14:24:32			0	35212	0	0	0	19189	17800	147904	27614	958431	37416	107003	0	0	8211	693340	0	0
2024-04-16 14:25:32			0	35235	0	0	0	19181	17800	147844	27748	958492	37416	107000	0	0	8213	692277	0	0
2024-04-16 14:26:32			0	35219	0	0	0	19199	17810	147788	27920	958481	37417	107007	0	0	8212	692979	0	0
2024-04-16 14:27:32			0	35244	0	0	0	19174	17810	147752	27602	958481	37417	106997	0	0	8213	691824	0	0
2024-04-16 14:28:32			0	35236	0	0	0	19179	17830	147712	28116	958506	37430	106999	0	0	8213	692118	0	0
2024-04-16 14:29:32			0	35259	0	0	0	19212	17810	147668	28263	958534	37407	107012	0	0	8214	691132	0	0
2024-04-16 14:30:32			0	35262	0	0	0	19197	17820	147628	27926	958542	37418	107006	0	0	8214	690956	0	0
2024-04-16 14:31:32			0	35255	0	0	0	19179	17830	147624	28015	958540	37420	106999	0	0	8214	691241	0	0
2024-04-16 14:32:32			0	35269	0	0	0	19212	17830	147604	27659	958532	37419	107012	0	0	8214	690595	0	0
2024-04-16 14:33:32			0	35284	0	0	0	19233	17840	147536	27666	958601	37431	107020	0	0	8215	689867	0	0
2024-04-16 14:34:32			0	35290	0	0	0	19225	17850	147516	27447	958591	37421	107017	0	0	8215	689553	0	0
2024-04-16 14:35:32			0	35288	0	0	0	19205	17850	147412	28131	958573	37421	107009	0	0	8216	689645	0	0
2024-04-16 14:36:32			0	35291	0	0	0	19215	17850	147448	28050	958626	37433	107013	0	0	8216	689507	0	0
2024-04-16 14:37:32			0	35302	0	0	0	19212	17850	147480	27559	958618	37421	107012	0	0	8216	689000	0	0
2024-04-16 14:38:32			0	35288	0	0	0	19225	17860	147368	27963	958687	37411	107017	0	0	8215	689607	0	0
2024-04-16 14:39:32			0	35305	0	0	0	19249	17860	147388	27750	958669	37433	107026	0	0	8216	688825	0	0
2024-04-16 14:40:32			0	35310	0	0	0	19241	17860	147364	27673	958687	37421	107023	0	0	8216	688595	0	0
2024-04-16 14:41:32			0	35332	0	0	0	19267	17860	147300	27928	958740	37433	107033	0	0	8217	687583	0	0
2024-04-16 14:42:32			0	35342	0	0	0	19257	17880	147272	27996	958728	37424	107029	0	0	8218	687049	0	0
2024-04-16 14:43:32			0	35344	0	0	0	19231	17880	147240	27933	958728	37424	107019	0	0	8218	686957	0	0
2024-04-16 14:44:32			0	35325	0	0	0	19236	17880	147188	27923	958667	37413	107021	0	0	8217	687830	0	0
2024-04-16 14:45:32			0	35335	0	0	0	19275	17880	147216	27701	958754	37424	107036	0	0	8217	687371	0	0
2024-04-16 14:46:32			0	35352	0	0	0	19285	17890	147220	27390	958797	37415	107040	0	0	8218	686553	0	0
2024-04-16 14:47:32			0	35352	0	0	0	19275	17890	147164	28069	958824	37436	107036	0	0	8218	686553	0	0
2024-04-16 14:48:32			0	35358	0	0	0	19272	17890	147140	27732	958789	37425	107035	0	0	8218	686277	0	0
2024-04-16 14:49:32			0	35353	0	0	0	19285	17900	147188	27500	958832	37425	107040	0	0	8218	686469	0	0
2024-04-16 14:50:32			0	35375	0	0	0	19244	17900	147140	27800	958813	37437	107024	0	0	8220	685460	0	0
2024-04-16 14:51:32			0	35361	0	0	0	19257	17900	147220	27677	958752	37425	107029	0	0	8219	686102	0	0
2024-04-16 14:52:32			0	35350	0	0	0	19285	17900	147140	27658	958840	37437	107040	0	0	8218	686607	0	0
2024-04-16 14:53:32			0	35393	0	0	0	19270	17910	147012	27722	958901	37438	107034	0	0	8220	684598	0	0
2024-04-16 14:54:32			0	35368	0	0	0	19296	17910	147004	27704	958795	37426	107044	0	0	8219	685744	0	0
2024-04-16 14:55:32			0	35390	0	0	0	19298	17920	147004	27592	958830	37426	107045	0	0	8220	684698	0	0
2024-04-16 14:56:32			0	35417	0	0	0	19303	17920	146924	27514	959023	37450	107047	0	0	8221	683463	0	0
2024-04-16 14:57:32			0	35408	0	0	0	19259	17930	146876	27770	958952	37416	107030	0	0	8222	683837	0	0
2024-04-16 14:58:32			0	35406	0	0	0	19277	17920	146880	28037	958944	37427	107037	0	0	8221	683966	0	0
2024-04-16 14:59:32			0	35395	0	0	0	19306	17930	146948	27763	958872	37427	107048	0	0	8220	684432	0	0
2024-04-16 15:00:32			0	35414	0	0	0	19306	17930	146892	27547	958978	37427	107048	0	0	8221	683562	0	0
2024-04-16 15:01:32			0	35404	0	0	0	19283	17940	146944	27684	958968	37440	107039	0	0	8221	683983	0	0
2024-04-16 15:02:32			0	35418	0	0	0	19283	17940	146972	27580	958889	37440	107039	0	0	8222	683342	0	0
2024-04-16 15:03:32			0	35395	0	0	0	19257	17940	146920	27923	958942	37440	107029	0	0	8221	684395	0	0
2024-04-16 15:04:32			0	35402	0	0	0	19262	17930	146900	27658	958899	37427	107031	0	0	8221	684112	0	0
2024-04-16 15:05:32			0	35405	0	0	0	19293	17940	146932	27744	958968	37429	107043	0	0	8221	683937	0	0
2024-04-16 15:06:32			0	35404	0	0	0	19301	17940	146928	27635	958968	37451	107046	0	0	8221	683983	0	0
2024-04-16 15:07:32			0	35406	0	0	0	19275	17930	146932	28096	958933	37428	107036	0	0	8221	683929	0	0
2024-04-16 15:08:32			0	35401	0	0	0	19314	17940	146900	27483	958995	37440	107051	0	0	8220	684120	0	0
2024-04-16 15:09:32			0	35430	0	0	0	19301	17940	146788	28455	959056	37429	107046	0	0	8222	682794	0	0
2024-04-16 15:10:32			0	35431	0	0	0	19309	17950	146832	28116	958984	37440	107049	0	0	8222	682711	0	0
2024-04-16 15:11:32			0	35412	0	0	0	19290	17960	146896	27711	959001	37430	107042	0	0	8221	683542	0	0
2024-04-16 15:12:32			0	35420	0	0	0	19290	17950	146808	27868	958958	37440	107042	0	0	8222	683214	0	0
2024-04-16 15:13:32			0	35414	0	0	0	19290	17950	146880	27829	959045	37441	107042	0	0	8221	683488	0	0
2024-04-16 15:14:32			0	35420	0	0	0	19306	17940	146872	27949	958976	37418	107048	0	0	8221	683251	0	0
2024-04-16 15:15:32			0	35398	0	0	0	19275	17940	146872	27533	958950	37429	107036	0	0	8221	684258	0	0
2024-04-16 15:16:32			0	35409	0	0	0	19280	17940	146924	27654	958976	37429	107038	0	0	8221	683754	0	0
2024-04-16 15:17:32			0	35421	0	0	0	19301	17950	146888	28128	959011	37429	107046	0	0	8222	683168	0	0
2024-04-16 15:18:32			0	35407	0	0	0	19283	17950	146908	27840	959064	37418	107039	0	0	8221	683808	0	0
2024-04-16 15:19:32			0	35395	0	0	0	19290	17960	146868	28043	958974	37442	107042	0	0	8220	684320	0	0
2024-04-16 15:20:32			0	35409	0	0	0	19293	17950	146972	27781	958993	37441	107043	0	0	8221	683717	0	0
2024-04-16 15:21:32			0	35392	0	0	0	19290	17950	146980	28185	958984	37429	107042	0	0	8220	684495	0	0
2024-04-16 15:22:32			0	35400	0	0	0	19340	17950	147044	27540	959045	37419	107061	0	0	8220	684128	0	0
2024-04-16 15:23:32			0	35433	0	0	0	19322	17960	146820	27659	959035	37453	107054	0	0	8222	682582	0	0
2024-04-16 15:24:32			0	35414	0	0	0	19267	17960	146896	27895	959009	37430	107033	0	0	8222	683451	0	0
2024-04-16 15:25:32			0	35392	0	0	0	19298	17960	146940	27691	958974	37419	107045	0	0	8220	684458	0	0
2024-04-16 15:26:32			0	35394	0	0	0	19296	17960	146936	27925	959054	37430	107044	0	0	8220	684366	0	0
2024-04-16 15:27:32			0	35381	0	0	0	19285	17950	146992	27516	959019	37441	107040	0	0	8220	684999	0	0
2024-04-16 15:28:32			0	35395	0	0	0	19345	17950	146980	27646	958984	37429	107063	0	0	8219	684357	0	0
2024-04-16 15:29:32			0	35383	0	0	0	19296	17950	146940	27665	959037	37429	107044	0	0	8220	684907	0	0
2024-04-16 15:30:32			0	35385	0	0	0	19267	17950	146924	27956	958993	37430	107033	0	0	8220	684816	0	0
2024-04-16 15:31:32			0	35380	0	0	0	19293	17950	146940	27769	958966	37441	107043	0	0	8220	685044	0	0
2024-04-16 15:32:32			0	35357	0	0	0	19293	17950	147032	27460	958958	37429	107043	0	0	8218	686099	0	0
2024-04-16 15:33:32			0	35388	0	0	0	19332	17950	147040	27623	959090	37429	107058	0	0	8219	684678	0	0
2024-04-16 15:34:32			0	35401	0	0	0	19301	17950	146964	28008	959072	37441	107046	0	0	8221	684083	0	0
2024-04-16 15:35:32			0	35380	0	0	0	19290	17950	146952	27925	958940	37419	107042	0	0	8220	685044	0	0
2024-04-16 15:36:32			0	35398	0	0	0	19309	17960	146892	27632	959115	37442	107049	0	0	8220	684183	0	0
2024-04-16 15:37:32			0	35395	0	0	0	19277	17970	146940	27552	959070	37430	107037	0	0	8221	684283	0	0
2024-04-16 15:38:32			0	35392	0	0	0	19350	17960	146932	27748	959062	37453	107065	0	0	8219	684458	0	0
2024-04-16 15:39:32			0	35427	0	0	0	19306	17970	146868	27904	959149	37442	107048	0	0	8222	682819	0	0
2024-04-16 15:40:32			0	35414	0	0	0	19361	17960	146872	27935	959115	37442	107069	0	0	8220	683451	0	0
2024-04-16 15:41:32			0	35420	0	0	0	19324	17970	146760	27737	959123	37442	107055	0	0	8221	683139	0	0
2024-04-16 15:42:32			0	35401	0	0	0	19316	17980	146820	27732	959033	37421	107052	0	0	8220	683971	0	0
2024-04-16 15:43:32			0	35420	0	0	0	19348	17980	146836	27824	959086	37454	107064	0	0	8221	683102	0	0
2024-04-16 15:44:32			0	35409	0	0	0	19342	17970	146884	27895	959157	37431	107062	0	0	8220	683642	0	0
2024-04-16 15:45:32			0	35429	0	0	0	19389	17980	146932	27788	959245	37454	107080	0	0	8221	682690	0	0
2024-04-16 15:46:32			0	35432	0	0	0	19335	17980	146808	27731	959174	37443	107059	0	0	8222	682553	0	0
2024-04-16 15:47:32			0	35420	0	0	0	19358	17990	146908	27904	959182	37443	107068	0	0	8221	683065	0	0
2024-04-16 15:48:32			0	35413	0	0	0	19363	17990	146952	28152	959217	37455	107070	0	0	8220	683385	0	0
2024-04-16 15:49:32			0	35437	0	0	0	19314	17990	146844	28074	959182	37443	107051	0	0	8222	682288	0	0
2024-04-16 15:50:32			0	35413	0	0	0	19316	17990	146828	27731	959129	37454	107052	0	0	8221	683385	0	0
2024-04-16 15:51:32			0	35433	0	0	0	19368	17990	146808	27973	959217	37444	107072	0	0	8221	682471	0	0
2024-04-16 15:52:32			0	35431	0	0	0	19350	18000	146760	27828	959304	37434	107065	0	0	8222	682525	0	0
2024-04-16 15:53:32			0	35422	0	0	0	19337	17990	146760	27921	959261	37443	107060	0	0	8221	682973	0	0
2024-04-16 15:54:32			0	35439	0	0	0	19381	18000	146820	27833	959251	37445	107077	0	0	8222	682159	0	0
2024-04-16 15:55:32			0	35430	0	0	0	19319	18000	146748	28133	959198	37423	107053	0	0	8222	682570	0	0
2024-04-16 15:56:32			0	35421	0	0	0	19298	17990	146796	27921	959190	37433	107045	0	0	8222	683019	0	0
2024-04-16 15:57:32			0	35412	0	0	0	19340	17990	146876	27880	959129	37443	107061	0	0	8221	683430	0	0
2024-04-16 15:58:32			0	35428	0	0	0	19340	18000	146852	27807	959225	37445	107061	0	0	8222	682662	0	0
2024-04-16 15:59:32			0	35413	0	0	0	19285	17990	146884	28005	959156	37443	107040	0	0	8222	683385	0	0
2024-04-16 16:00:32			0	35393	0	0	0	19332	17980	146952	27687	959094	37443	107058	0	0	8220	684337	0	0
2024-04-16 16:01:32			0	35413	0	0	0	19350	17990	146860	27933	959190	37444	107065	0	0	8221	683385	0	0
2024-04-16 16:02:32			0	35429	0	0	0	19394	18000	146904	27762	959278	37445	107082	0	0	8221	682616	0	0
2024-04-16 16:03:32			0	35431	0	0	0	19371	18010	146896	27689	959320	37446	107073	0	0	8221	682487	0	0
2024-04-16 16:04:32			0	35439	0	0	0	19353	17990	146764	27637	959217	37444	107066	0	0	8222	682196	0	0
2024-04-16 16:05:32			0	35423	0	0	0	19371	18000	146836	27706	959233	37435	107073	0	0	8221	682890	0	0
2024-04-16 16:06:32			0	35410	0	0	0	19316	18010	146780	27613	959249	37435	107052	0	0	8221	683447	0	0
2024-04-16 16:07:32			0	35408	0	0	0	19376	18010	146848	27566	959215	37446	107075	0	0	8220	683539	0	0
2024-04-16 16:08:32			0	35418	0	0	0	19332	18010	146948	27916	959241	37457	107058	0	0	8221	683082	0	0
2024-04-16 16:09:32			0	35424	0	0	0	19361	18000	146800	27802	959259	37446	107069	0	0	8221	682845	0	0
2024-04-16 16:10:32			0	35410	0	0	0	19384	18000	146808	27869	959312	37467	107078	0	0	8220	683485	0	0
2024-04-16 16:11:32			0	35420	0	0	0	19394	18010	146800	27824	959320	37457	107082	0	0	8220	682990	0	0
2024-04-16 16:12:32			0	35427	0	0	0	19361	18010	146736	27868	959302	37457	107069	0	0	8221	682670	0	0
2024-04-16 16:13:32			0	35408	0	0	0	19350	18020	146728	27516	959292	37447	107065	0	0	8220	683502	0	0
2024-04-16 16:14:32			0	35424	0	0	0	19389	18010	146780	27918	959329	37446	107080	0	0	8221	682807	0	0
2024-04-16 16:15:32			0	35430	0	0	0	19322	18010	146816	27710	959276	37446	107054	0	0	8222	682533	0	0
2024-04-16 16:16:32			0	35413	0	0	0	19366	18010	146744	27656	959215	37457	107071	0	0	8220	683310	0	0
2024-04-16 16:17:32			0	35423	0	0	0	19358	18010	146764	27672	959329	37457	107068	0	0	8221	682853	0	0
2024-04-16 16:18:32			0	35430	0	0	0	19371	18020	146744	28074	959371	37436	107073	0	0	8221	682496	0	0
2024-04-16 16:19:32			0	35430	0	0	0	19410	18020	146724	27913	959371	37458	107088	0	0	8221	682496	0	0
2024-04-16 16:20:32			0	35449	0	0	0	19399	18020	146684	27996	959424	37458	107084	0	0	8222	681628	0	0
2024-04-16 16:21:32			0	35444	0	0	0	19358	18030	146724	27699	959414	37447	107068	0	0	8222	681819	0	0
2024-04-16 16:22:32			0	35455	0	0	0	19389	18040	146656	28175	959369	37437	107080	0	0	8222	681280	0	0
2024-04-16 16:23:32			0	35439	0	0	0	19324	18030	146632	27926	959361	37447	107055	0	0	8223	682048	0	0
2024-04-16 16:24:32			0	35443	0	0	0	19399	18030	146736	27921	959353	37436	107084	0	0	8222	681865	0	0
2024-04-16 16:25:32			0	35446	0	0	0	19335	18020	146744	27647	959398	37436	107059	0	0	8223	681765	0	0
2024-04-16 16:26:32			0	35461	0	0	0	19405	18030	146688	28041	959440	37447	107086	0	0	8222	681044	0	0
2024-04-16 16:27:32			0	35436	0	0	0	19387	18040	146616	27982	959475	37448	107079	0	0	8221	682147	0	0
2024-04-16 16:28:32			0	35445	0	0	0	19319	18040	146648	27876	959457	37449	107053	0	0	8223	681737	0	0
2024-04-16 16:29:32			0	35447	0	0	0	19363	18030	146708	27937	959361	37458	107070	0	0	8222	681682	0	0
2024-04-16 16:30:32			0	35449	0	0	0	19425	18030	146828	28034	959308	37447	107094	0	0	8221	681591	0	0
2024-04-16 16:31:32			0	35479	0	0	0	19361	18030	146740	27689	959406	37469	107069	0	0	8224	680223	0	0
2024-04-16 16:32:32			0	35448	0	0	0	19322	18040	146672	27783	959351	37449	107054	0	0	8223	681599	0	0
2024-04-16 16:33:32			0	35434	0	0	0	19371	18020	146840	27717	959292	37447	107073	0	0	8221	682313	0	0
2024-04-16 16:34:32			0	35432	0	0	0	19358	18030	146748	27842	959300	37447	107068	0	0	8222	682367	0	0
2024-04-16 16:35:32			0	35430	0	0	0	19335	18030	146676	28001	959300	37436	107059	0	0	8222	682459	0	0
2024-04-16 16:36:32			0	35432	0	0	0	19397	18020	146764	27689	959284	37458	107083	0	0	8221	682405	0	0
2024-04-16 16:37:32			0	35426	0	0	0	19376	18030	146760	27913	959414	37458	107075	0	0	8221	682641	0	0
2024-04-16 16:38:32			0	35431	0	0	0	19337	18030	146696	28090	959308	37458	107060	0	0	8222	682413	0	0
2024-04-16 16:39:32			0	35423	0	0	0	19379	18030	146808	28138	959300	37458	107076	0	0	8221	682779	0	0
2024-04-16 16:40:32			0	35426	0	0	0	19420	18030	146796	27923	959414	37447	107092	0	0	8220	682641	0	0
2024-04-16 16:41:32			0	35436	0	0	0	19355	18040	146720	27777	959475	37458	107067	0	0	8222	682147	0	0
2024-04-16 16:42:32			0	35428	0	0	0	19340	18040	146692	27836	959343	37470	107061	0	0	8222	682513	0	0
2024-04-16 16:43:32			0	35420	0	0	0	19405	18030	146764	27663	959379	37447	107086	0	0	8220	682916	0	0
2024-04-16 16:44:32			0	35442	0	0	0	19402	18030	146744	27842	959388	37458	107085	0	0	8221	681910	0	0
2024-04-16 16:45:32			0	35449	0	0	0	19379	18040	146788	27621	959475	37458	107076	0	0	8222	681554	0	0
2024-04-16 16:46:32			0	35448	0	0	0	19420	18030	146692	27590	959361	37447	107092	0	0	8221	681637	0	0
2024-04-16 16:47:32			0	35444	0	0	0	19355	18030	146752	27987	959467	37447	107067	0	0	8222	681819	0	0
2024-04-16 16:48:32			0	35451	0	0	0	19379	18030	146716	27743	959414	37447	107076	0	0	8222	681500	0	0
2024-04-16 16:49:32			0	35444	0	0	0	19366	18040	146636	27739	959457	37449	107071	0	0	8222	681782	0	0
2024-04-16 16:50:32			0	35458	0	0	0	19345	18030	146688	27734	959308	37436	107063	0	0	8223	681180	0	0
2024-04-16 16:51:32			0	35446	0	0	0	19340	18040	146672	27763	959422	37448	107061	0	0	8223	681691	0	0
2024-04-16 16:52:32			0	35446	0	0	0	19387	18030	146720	27729	959327	37436	107079	0	0	8222	681728	0	0
2024-04-16 16:53:32			0	35449	0	0	0	19392	18020	146576	27831	959292	37469	107081	0	0	8222	681628	0	0
2024-04-16 16:54:32			0	35454	0	0	0	19410	18030	146628	27786	959440	37480	107088	0	0	8222	681363	0	0
2024-04-16 16:55:32			0	35456	0	0	0	19399	18030	146604	27691	959467	37447	107084	0	0	8222	681272	0	0
2024-04-16 16:56:32			0	35466	0	0	0	19355	18040	146604	27495	959396	37458	107067	0	0	8224	680778	0	0
2024-04-16 16:57:32			0	35454	0	0	0	19355	18030	146584	27684	959388	37458	107067	0	0	8223	681363	0	0
2024-04-16 16:58:32			0	35452	0	0	0	19350	18040	146660	27763	959343	37448	107065	0	0	8223	681417	0	0
2024-04-16 16:59:32			0	35446	0	0	0	19392	18030	146584	27783	959335	37447	107081	0	0	8222	681728	0	0
2024-04-16 17:00:32			0	35447	0	0	0	19415	18030	146716	27800	959440	37458	107090	0	0	8222	681682	0	0
2024-04-16 17:01:32			0	35489	0	0	0	19371	18040	146624	27866	959430	37459	107073	0	0	8225	679730	0	0
2024-04-16 17:02:32			0	35457	0	0	0	19405	18040	146700	27757	959396	37458	107086	0	0	8222	681189	0	0
2024-04-16 17:03:32			0	35439	0	0	0	19327	18040	146676	27985	959396	37458	107056	0	0	8223	682010	0	0
2024-04-16 17:04:32			0	35449	0	0	0	19389	18030	146632	27504	959414	37447	107080	0	0	8222	681591	0	0
2024-04-16 17:05:32			0	35455	0	0	0	19418	18040	146732	27956	959483	37459	107091	0	0	8222	681280	0	0
2024-04-16 17:06:32			0	35458	0	0	0	19415	18040	146660	27989	959430	37459	107090	0	0	8222	681143	0	0
2024-04-16 17:07:32			0	35472	0	0	0	19392	18050	146700	27850	959465	37438	107081	0	0	8223	680468	0	0
2024-04-16 17:08:32			0	35466	0	0	0	19361	18040	146652	27606	959510	37449	107069	0	0	8224	680778	0	0
2024-04-16 17:09:32			0	35466	0	0	0	19345	18040	146636	27897	959396	37448	107063	0	0	8224	680778	0	0
2024-04-16 17:10:32			0	35442	0	0	0	19371	18040	146640	28006	959457	37459	107073	0	0	8222	681873	0	0
2024-04-16 17:11:32			0	35444	0	0	0	19394	18040	146660	27666	959449	37448	107082	0	0	8222	681782	0	0
2024-04-16 17:12:32			0	35462	0	0	0	19397	18050	146604	27424	959447	37470	107083	0	0	8223	680924	0	0
2024-04-16 17:13:32			0	35447	0	0	0	19410	18050	146584	27873	959526	37459	107088	0	0	8222	681608	0	0
2024-04-16 17:14:32			0	35451	0	0	0	19428	18050	146732	27935	959518	37470	107095	0	0	8222	681425	0	0
2024-04-16 17:15:32			0	35463	0	0	0	19342	18060	146688	27637	959428	37450	107062	0	0	8224	680841	0	0
2024-04-16 17:16:32			0	35436	0	0	0	19361	18040	146624	27661	959404	37459	107069	0	0	8222	682147	0	0
2024-04-16 17:17:32			0	35447	0	0	0	19392	18050	146724	27621	959386	37470	107081	0	0	8222	681608	0	0
2024-04-16 17:18:32			0	35441	0	0	0	19371	18040	146744	27341	959449	37448	107073	0	0	8222	681919	0	0
2024-04-16 17:19:32			0	35458	0	0	0	19363	18040	146732	27523	959483	37449	107070	0	0	8223	681143	0	0
2024-04-16 17:20:32			0	35440	0	0	0	19376	18040	146756	27223	959351	37449	107075	0	0	8222	681965	0	0
2024-04-16 17:21:32			0	35437	0	0	0	19332	18040	146712	27319	959396	37458	107058	0	0	8222	682102	0	0
2024-04-16 17:22:32			0	35422	0	0	0	19314	18030	146780	27471	959300	37447	107051	0	0	8222	682824	0	0
2024-04-16 17:23:32			0	35425	0	0	0	19340	18030	146776	27237	959300	37447	107061	0	0	8222	682687	0	0
2024-04-16 17:24:32			0	35433	0	0	0	19350	18020	146800	27597	959257	37458	107065	0	0	8222	682359	0	0
2024-04-16 17:25:32			0	35432	0	0	0	19376	18010	146788	27592	959302	37457	107075	0	0	8221	682442	0	0
2024-04-16 17:26:32			0	35436	0	0	0	19342	18020	146804	27575	959345	37447	107062	0	0	8222	682222	0	0
2024-04-16 17:27:32			0	35436	0	0	0	19337	18020	146848	27393	959337	37447	107060	0	0	8222	682222	0	0
2024-04-16 17:28:32			0	35427	0	0	0	19335	18010	146780	27319	959188	37446	107059	0	0	8222	682670	0	0
2024-04-16 17:29:32			0	35401	0	0	0	19363	18020	146808	27663	959363	37458	107070	0	0	8220	683822	0	0
2024-04-16 17:30:32			0	35416	0	0	0	19314	18010	146852	27611	959249	37446	107051	0	0	8221	683173	0	0
2024-04-16 17:31:32			0	35411	0	0	0	19290	18010	146856	27322	959223	37435	107042	0	0	8222	683402	0	0
2024-04-16 17:32:32			0	35414	0	0	0	19337	18000	146888	27256	959259	37457	107060	0	0	8221	683302	0	0
2024-04-16 17:33:32			0	35403	0	0	0	19342	18000	146980	27557	959259	37457	107062	0	0	8220	683805	0	0
2024-04-16 17:34:32			0	35406	0	0	0	19316	18010	146824	27481	959294	37457	107052	0	0	8221	683630	0	0
2024-04-16 17:35:32			0	35397	0	0	0	19340	18000	146900	27542	959278	37456	107061	0	0	8220	684079	0	0
2024-04-16 17:36:32			0	35402	0	0	0	19298	18000	146932	27488	959198	37456	107045	0	0	8221	683851	0	0
2024-04-16 17:37:32			0	35395	0	0	0	19366	17990	146940	27445	959243	37455	107071	0	0	8219	684208	0	0
2024-04-16 17:38:32			0	35411	0	0	0	19355	17990	146908	27383	959243	37455	107067	0	0	8220	683476	0	0
2024-04-16 17:39:32			0	35385	0	0	0	19345	18000	146956	27267	959233	37467	107063	0	0	8219	684629	0	0
2024-04-16 17:40:32			0	35407	0	0	0	19350	18000	146940	27438	959312	37435	107065	0	0	8220	683622	0	0
2024-04-16 17:41:32			0	35384	0	0	0	19366	18000	146932	27076	959312	37457	107071	0	0	8219	684675	0	0
2024-04-16 17:42:32			0	35396	0	0	0	19342	18000	147056	27156	959286	37457	107062	0	0	8220	684125	0	0
2024-04-16 17:43:32			0	35382	0	0	0	19322	18000	147036	27104	959251	37456	107054	0	0	8219	684766	0	0
2024-04-16 17:44:32			0	35377	0	0	0	19340	18000	146976	27121	959172	37434	107061	0	0	8219	684995	0	0
2024-04-16 17:45:32			0	35376	0	0	0	19316	18000	147032	27176	959225	37445	107052	0	0	8219	685041	0	0
2024-04-16 17:46:32			0	35378	0	0	0	19340	17980	147088	27196	959226	37432	107061	0	0	8219	685024	0	0
2024-04-16 17:47:32			0	35369	0	0	0	19345	17990	147052	27116	959288	37454	107063	0	0	8218	685399	0	0
2024-04-16 17:48:32			0	35360	0	0	0	19348	17990	146992	27069	959217	37444	107064	0	0	8218	685812	0	0
2024-04-16 17:49:32			0	35369	0	0	0	19363	18010	147080	27116	959294	37467	107070	0	0	8218	685324	0	0
2024-04-16 17:50:32			0	35379	0	0	0	19319	18000	147020	26833	959251	37445	107053	0	0	8219	684903	0	0
2024-04-16 17:51:32			0	35353	0	0	0	19309	17990	147056	26854	959190	37455	107049	0	0	8218	686133	0	0
2024-04-16 17:52:32			0	35357	0	0	0	19314	17990	147044	27327	959137	37455	107051	0	0	8218	685949	0	0
2024-04-16 17:53:32			0	35362	0	0	0	19311	17990	147136	27441	959137	37455	107050	0	0	8218	685720	0	0
2024-04-16 17:54:32			0	35345	0	0	0	19350	17980	147124	27185	959226	37443	107065	0	0	8217	686537	0	0
2024-04-16 17:55:32			0	35339	0	0	0	19342	17990	147196	27251	959208	37454	107062	0	0	8217	686775	0	0
2024-04-16 17:56:32			0	35331	0	0	0	19342	17990	147316	27265	959208	37443	107062	0	0	8216	687142	0	0
2024-04-16 17:57:32			0	35314	0	0	0	19342	17990	147252	26948	959270	37455	107062	0	0	8215	687923	0	0
2024-04-16 17:58:32			0	35332	0	0	0	19335	17990	147184	27100	959208	37465	107059	0	0	8216	687096	0	0
2024-04-16 17:59:32			0	35324	0	0	0	19329	18000	147264	27039	959225	37445	107057	0	0	8216	687426	0	0
2024-04-16 18:00:32			0	35315	0	0	0	19332	18000	147332	27142	959206	37457	107058	0	0	8216	687840	0	0
2024-04-16 18:01:32			0	35305	0	0	0	19322	17980	147248	27371	959165	37454	107054	0	0	8215	688374	0	0
2024-04-16 18:02:32			0	35313	0	0	0	19303	17980	147220	27138	959200	37454	107047	0	0	8216	688007	0	0
2024-04-16 18:03:32			0	35304	0	0	0	19280	17980	147336	27060	959113	37465	107038	0	0	8216	688420	0	0
2024-04-16 18:04:32			0	35285	0	0	0	19316	17970	147416	27185	959131	37454	107052	0	0	8214	689332	0	0
2024-04-16 18:05:32			0	35296	0	0	0	19311	17960	147416	27046	959115	37453	107050	0	0	8215	688863	0	0
2024-04-16 18:06:32			0	35299	0	0	0	19332	17980	147404	27298	959121	37454	107058	0	0	8215	688650	0	0
2024-04-16 18:07:32			0	35302	0	0	0	19327	17970	147464	27415	959184	37454	107056	0	0	8215	688550	0	0
2024-04-16 18:08:32			0	35266	0	0	0	19327	17980	147480	27036	959218	37454	107056	0	0	8213	690169	0	0
2024-04-16 18:09:32			0	35295	0	0	0	19311	17980	147432	27348	959200	37454	107050	0	0	8215	688834	0	0
2024-04-16 18:10:32			0	35267	0	0	0	19348	17970	147548	27163	959104	37464	107064	0	0	8212	690161	0	0
2024-04-16 18:11:32			0	35255	0	0	0	19335	17970	147464	26946	959176	37463	107059	0	0	8212	690714	0	0
2024-04-16 18:12:32			0	35261	0	0	0	19332	17980	147548	27270	959192	37454	107058	0	0	8212	690400	0	0
2024-04-16 18:13:32			0	35258	0	0	0	19303	17980	147604	26994	959226	37454	107047	0	0	8213	690538	0	0
2024-04-16 18:14:32			0	35246	0	0	0	19316	17980	147504	27357	959165	37454	107052	0	0	8212	691091	0	0
2024-04-16 18:15:32			0	35240	0	0	0	19311	17970	147584	27223	959104	37454	107050	0	0	8212	691405	0	0
2024-04-16 18:16:32			0	35247	0	0	0	19306	17960	147592	27177	959115	37453	107048	0	0	8212	691120	0	0
2024-04-16 18:17:32			0	35240	0	0	0	19314	17970	147636	27301	959131	37454	107051	0	0	8212	691405	0	0
2024-04-16 18:18:32			0	35227	0	0	0	19322	17970	147596	27112	959096	37453	107054	0	0	8211	692005	0	0
2024-04-16 18:19:32			0	35207	0	0	0	19309	17970	147748	27173	959157	37454	107049	0	0	8210	692929	0	0
2024-04-16 18:20:32			0	35221	0	0	0	19303	17970	147748	26974	959096	37474	107047	0	0	8211	692282	0	0
2024-04-16 18:21:32			0	35201	0	0	0	19309	17970	147820	27183	959096	37442	107049	0	0	8209	693206	0	0
2024-04-16 18:22:32			0	35190	0	0	0	19306	17980	147848	27436	959113	37454	107048	0	0	8209	693677	0	0
2024-04-16 18:23:32			0	35185	0	0	0	19324	17970	147920	27045	959149	37453	107055	0	0	8208	693946	0	0
2024-04-16 18:24:32			0	35174	0	0	0	19314	17970	148020	26908	959184	37454	107051	0	0	8208	694455	0	0
2024-04-16 18:25:32			0	35169	0	0	0	19303	17980	148052	26993	959165	37476	107047	0	0	8208	694648	0	0
2024-04-16 18:26:32			0	35181	0	0	0	19309	17970	148092	27372	959123	37453	107049	0	0	8208	694131	0	0
2024-04-16 18:27:32			0	35149	0	0	0	19303	17960	148076	27135	959115	37453	107047	0	0	8207	695651	0	0
2024-04-16 18:28:32			0	35153	0	0	0	19298	17970	148020	27204	959131	37464	107045	0	0	8207	695427	0	0
2024-04-16 18:29:32			0	35145	0	0	0	19301	17970	148036	26837	959096	37463	107046	0	0	8207	695798	0	0
2024-04-16 18:30:32			0	35131	0	0	0	19296	17960	148072	27029	959194	37453	107044	0	0	8206	696485	0	0
2024-04-16 18:31:32			0	35152	0	0	0	19288	17970	147988	27208	959096	37463	107041	0	0	8207	695474	0	0
2024-04-16 18:32:32			0	35149	0	0	0	19283	17960	148144	27012	959080	37453	107039	0	0	8207	695651	0	0
2024-04-16 18:33:32			0	35146	0	0	0	19285	17950	148060	26658	959098	37462	107040	0	0	8207	695827	0	0
2024-04-16 18:34:32			0	35133	0	0	0	19285	17950	148076	26771	959125	37441	107040	0	0	8206	696430	0	0
2024-04-16 18:35:32			0	35120	0	0	0	19283	17960	148132	27140	959106	37453	107039	0	0	8205	696995	0	0
2024-04-16 18:36:32			0	35129	0	0	0	19288	17950	148140	27098	959098	37452	107041	0	0	8206	696616	0	0
2024-04-16 18:37:32			0	35120	0	0	0	19285	17950	148164	27067	959125	37452	107040	0	0	8205	697033	0	0
2024-04-16 18:38:32			0	35119	0	0	0	19290	17960	148172	26934	959133	37453	107042	0	0	8205	697042	0	0
2024-04-16 18:39:32			0	35095	0	0	0	19293	17940	148359	27286	959056	37429	107043	0	0	8204	698232	0	0
2024-04-16 18:40:32			0	35083	0	0	0	19288	17950	148275	27178	959125	37462	107041	0	0	8203	698752	0	0
2024-04-16 18:41:32			0	35086	0	0	0	19280	17950	148287	26904	959037	37440	107038	0	0	8204	698613	0	0
2024-04-16 18:42:32			0	35081	0	0	0	19272	17950	148303	27052	959019	37452	107035	0	0	8203	698845	0	0
2024-04-16 18:43:32			0	35087	0	0	0	19270	17950	148303	27078	959011	37451	107034	0	0	8204	698566	0	0
2024-04-16 18:44:32			0	35104	0	0	0	19272	17940	148259	26965	959056	37451	107035	0	0	8205	697814	0	0
2024-04-16 18:45:32			0	35117	0	0	0	19280	17950	148280	27062	959090	37451	107038	0	0	8205	697173	0	0
2024-04-16 18:46:32			0	35074	0	0	0	19272	17940	148323	27251	959047	37451	107035	0	0	8203	699209	0	0
2024-04-16 18:47:32			0	35061	0	0	0	19277	17940	148459	26918	959047	37451	107037	0	0	8202	699814	0	0
2024-04-16 18:48:32			0	35052	0	0	0	19280	17940	148439	27095	958995	37451	107038	0	0	8202	700233	0	0
2024-04-16 18:49:32			0	35064	0	0	0	19272	17940	148423	26974	958995	37461	107035	0	0	8202	699674	0	0
2024-04-16 18:50:32			0	35087	0	0	0	19272	17930	148319	27270	958978	37450	107035	0	0	8204	698642	0	0
2024-04-16 18:51:32			0	35068	0	0	0	19272	17930	148411	27274	958960	37450	107035	0	0	8203	699526	0	0
2024-04-16 18:52:32			0	35066	0	0	0	19275	17940	148511	26953	958995	37440	107036	0	0	8202	699581	0	0
2024-04-16 18:53:32			0	35072	0	0	0	19270	17940	148387	27069	958968	37440	107034	0	0	8203	699302	0	0
2024-04-16 18:54:32			0	35051	0	0	0	19267	17930	148459	26928	958978	37460	107033	0	0	8202	700317	0	0
2024-04-16 18:55:32			0	35041	0	0	0	19272	17930	148519	26979	958960	37450	107035	0	0	8201	700783	0	0
2024-04-16 18:56:32			0	35070	0	0	0	19270	17930	148471	26968	958952	37450	107034	0	0	8203	699433	0	0
2024-04-16 18:57:32			0	35048	0	0	0	19264	17930	148551	27109	959013	37450	107032	0	0	8202	700457	0	0
2024-04-16 18:58:32			0	35051	0	0	0	19262	17920	148575	27015	958996	37450	107031	0	0	8202	700356	0	0
2024-04-16 18:59:32			0	35034	0	0	0	19257	17920	148571	27357	958917	37438	107029	0	0	8201	701148	0	0
2024-04-16 19:00:32			0	35020	0	0	0	19259	17920	148679	27074	958970	37427	107030	0	0	8200	701800	0	0
2024-04-16 19:01:32			0	35014	0	0	0	19257	17930	148615	27147	959013	37439	107029	0	0	8200	702042	0	0
2024-04-16 19:02:32			0	35001	0	0	0	19257	17920	148715	27118	958891	37438	107029	0	0	8199	702687	0	0
2024-04-16 19:03:32			0	34990	0	0	0	19244	17920	148751	27291	958970	37450	107024	0	0	8199	703201	0	0
2024-04-16 19:04:32			0	34989	0	0	0	19244	17920	148835	27046	958917	37438	107024	0	0	8199	703248	0	0
2024-04-16 19:05:32			0	34960	0	0	0	19254	17920	148811	27145	958883	37449	107028	0	0	8197	704604	0	0
2024-04-16 19:06:32			0	34964	0	0	0	19249	17920	148999	27105	958883	37449	107026	0	0	8197	704416	0	0
2024-04-16 19:07:32			0	34962	0	0	0	19246	17910	148883	26949	958901	37459	107025	0	0	8197	704548	0	0
2024-04-16 19:08:32			0	34952	0	0	0	19236	17900	148907	26949	958893	37448	107021	0	0	8197	705055	0	0
2024-04-16 19:09:32			0	34948	0	0	0	19236	17900	148911	26918	958919	37448	107021	0	0	8196	705242	0	0
2024-04-16 19:10:32			0	34941	0	0	0	19236	17900	149043	26817	958911	37447	107021	0	0	8196	705570	0	0
2024-04-16 19:11:32			0	34934	0	0	0	19228	17900	149011	27137	958832	37447	107018	0	0	8196	705898	0	0
2024-04-16 19:12:32			0	34940	0	0	0	19231	17900	149015	27126	958858	37447	107019	0	0	8196	705617	0	0
2024-04-16 19:13:32			0	34927	0	0	0	19231	17890	149139	27303	958929	37447	107019	0	0	8195	706264	0	0
2024-04-16 19:14:32			0	34902	0	0	0	19207	17900	149151	27358	958832	37458	107010	0	0	8194	707398	0	0
2024-04-16 19:15:32			0	34910	0	0	0	19215	17880	149067	27064	958807	37435	107013	0	0	8195	707100	0	0
2024-04-16 19:16:32			0	34903	0	0	0	19210	17890	149127	27277	958850	37447	107011	0	0	8194	707390	0	0
2024-04-16 19:17:32			0	34899	0	0	0	19199	17900	149091	27305	958805	37447	107007	0	0	8194	707539	0	0
2024-04-16 19:18:32			0	34898	0	0	0	19192	17880	149163	26941	958773	37434	107004	0	0	8194	707663	0	0
2024-04-16 19:19:32			0	34923	0	0	0	19176	17880	149031	26986	958773	37434	106998	0	0	8196	706490	0	0
2024-04-16 19:20:32			0	34899	0	0	0	19179	17860	149067	27067	958722	37445	106999	0	0	8194	707693	0	0
2024-04-16 19:21:32			0	34906	0	0	0	19174	17860	149191	27300	958687	37433	106997	0	0	8195	707365	0	0
2024-04-16 19:22:32			0	34899	0	0	0	19158	17860	149171	27407	958608	37433	106991	0	0	8195	707693	0	0
2024-04-16 19:23:32			0	34900	0	0	0	19158	17850	149203	27000	958591	37421	106991	0	0	8195	707685	0	0
2024-04-16 19:24:32			0	34899	0	0	0	19132	17850	149155	27237	958618	37421	106981	0	0	8195	707732	0	0
2024-04-16 19:25:32			0	34904	0	0	0	19135	17840	149179	26955	958549	37431	106982	0	0	8195	707536	0	0
2024-04-16 19:26:32			0	34860	0	0	0	19145	17830	149303	27156	958559	37430	106986	0	0	8193	709642	0	0
2024-04-16 19:27:32			0	34858	0	0	0	19129	17830	149415	26975	958593	37442	106980	0	0	8193	709736	0	0
2024-04-16 19:28:32			0	34847	0	0	0	19140	17820	149371	26956	958516	37440	106984	0	0	8192	710292	0	0
2024-04-16 19:29:32			0	34837	0	0	0	19127	17820	149439	26769	958498	37430	106979	0	0	8192	710763	0	0
2024-04-16 19:30:32			0	34842	0	0	0	19135	17820	149447	27027	958490	37418	106982	0	0	8192	710528	0	0
2024-04-16 19:31:32			0	34838	0	0	0	19127	17820	149439	27130	958471	37419	106979	0	0	8192	710716	0	0
2024-04-16 19:32:32			0	34842	0	0	0	19132	17810	149487	26805	958500	37440	106981	0	0	8192	710566	0	0
2024-04-16 19:33:32			0	34822	0	0	0	19132	17810	149559	26918	958534	37417	106981	0	0	8191	711509	0	0
2024-04-16 19:34:32			0	34820	0	0	0	19114	17810	149519	27256	958473	37429	106974	0	0	8191	711603	0	0
2024-04-16 19:35:32			0	34816	0	0	0	19124	17800	149627	27229	958492	37439	106978	0	0	8190	711830	0	0
2024-04-16 19:36:32			0	34807	0	0	0	19135	17790	149555	26991	958467	37427	106982	0	0	8190	712294	0	0
2024-04-16 19:37:32			0	34796	0	0	0	19119	17800	149647	27083	958431	37439	106976	0	0	8189	712774	0	0
2024-04-16 19:38:32			0	34808	0	0	0	19119	17790	149655	27390	958422	37427	106976	0	0	8190	712247	0	0
2024-04-16 19:39:32			0	34789	0	0	0	19101	17800	149743	26837	958457	37439	106969	0	0	8189	713104	0	0
2024-04-16 19:40:32			0	34796	0	0	0	19116	17790	149799	27281	958414	37416	106975	0	0	8189	712813	0	0
2024-04-16 19:41:32			0	34773	0	0	0	19103	17780	149763	27098	958380	37426	106970	0	0	8188	713938	0	0
2024-04-16 19:42:32			0	34774	0	0	0	19101	17780	149887	27033	958372	37426	106969	0	0	8188	713891	0	0
2024-04-16 19:43:32			0	34756	0	0	0	19111	17780	149987	27005	958424	37437	106973	0	0	8187	714742	0	0
2024-04-16 19:44:32			0	34760	0	0	0	19124	17780	149923	27048	958424	37426	106978	0	0	8187	714553	0	0
2024-04-16 19:45:32			0	34756	0	0	0	19116	17780	149911	27396	958398	37426	106975	0	0	8187	714742	0	0
2024-04-16 19:46:32			0	34766	0	0	0	19096	17780	149951	27053	958459	37437	106967	0	0	8188	714269	0	0
2024-04-16 19:47:32			0	34729	0	0	0	19098	17780	149931	26991	958398	37426	106968	0	0	8186	716020	0	0
2024-04-16 19:48:32			0	34752	0	0	0	19093	17770	150003	26842	958363	37404	106966	0	0	8187	714970	0	0
2024-04-16 19:49:32			0	34737	0	0	0	19096	17770	149891	27043	958355	37425	106967	0	0	8186	715680	0	0
2024-04-16 19:50:32			0	34737	0	0	0	19090	17760	150059	27123	958347	37424	106965	0	0	8186	715719	0	0
2024-04-16 19:51:32			0	34727	0	0	0	19083	17760	149971	26993	958339	37436	106962	0	0	8186	716193	0	0
2024-04-16 19:52:32			0	34713	0	0	0	19090	17770	150075	27001	958302	37448	106965	0	0	8185	716817	0	0
2024-04-16 19:53:32			0	34708	0	0	0	19080	17760	150059	27159	958294	37436	106961	0	0	8185	717093	0	0
2024-04-16 19:54:32			0	34706	0	0	0	19083	17750	150087	26896	958278	37446	106962	0	0	8185	717227	0	0
2024-04-16 19:55:32			0	34692	0	0	0	19080	17750	150127	27033	958225	37413	106961	0	0	8184	717892	0	0
2024-04-16 19:56:32			0	34676	0	0	0	19072	17750	150235	27059	958304	37424	106958	0	0	8183	718651	0	0
2024-04-16 19:57:32			0	34685	0	0	0	19059	17750	150287	27131	958270	37413	106953	0	0	8184	718224	0	0
2024-04-16 19:58:32			0	34670	0	0	0	19057	17740	150239	27339	958201	37433	106952	0	0	8183	718976	0	0
2024-04-16 19:59:32			0	34653	0	0	0	19059	17740	150331	26977	958227	37433	106953	0	0	8182	719784	0	0
2024-04-16 20:00:32			0	34656	0	0	0	19051	17750	150455	27180	958199	37413	106950	0	0	8182	719602	0	0
2024-04-16 20:01:32			0	34635	0	0	0	19049	17740	150443	27003	958174	37433	106949	0	0	8181	720640	0	0
2024-04-16 20:02:32			0	34614	0	0	0	19044	17730	150511	27064	958158	37422	106947	0	0	8180	721680	0	0
2024-04-16 20:03:32			0	34632	0	0	0	19093	17720	150495	27088	958202	37421	106966	0	0	8180	720862	0	0
2024-04-16 20:04:32			0	34634	0	0	0	19070	17720	150431	27005	958247	37420	106957	0	0	8181	720766	0	0
2024-04-16 20:05:32			0	34635	0	0	0	19080	17740	150427	27322	958201	37422	106961	0	0	8181	720640	0	0
2024-04-16 20:06:32			0	34638	0	0	0	19041	17720	150427	27128	958221	37420	106946	0	0	8182	720576	0	0
2024-04-16 20:07:32			0	34647	0	0	0	19033	17710	150447	27313	958160	37410	106943	0	0	8182	720187	0	0
2024-04-16 20:08:32			0	34625	0	0	0	19012	17720	150431	26977	958115	37420	106935	0	0	8181	721195	0	0
2024-04-16 20:09:32			0	34611	0	0	0	19049	17710	150487	26982	958133	37410	106949	0	0	8180	721901	0	0
2024-04-16 20:10:32			0	34607	0	0	0	19031	17700	150583	27357	958162	37430	106942	0	0	8180	722131	0	0
2024-04-16 20:11:32			0	34605	0	0	0	19036	17700	150515	27341	958056	37430	106944	0	0	8180	722227	0	0
2024-04-16 20:12:32			0	34592	0	0	0	19033	17700	150547	26967	958117	37431	106943	0	0	8179	722847	0	0
2024-04-16 20:13:32			0	34604	0	0	0	19031	17700	150651	27121	958135	37419	106942	0	0	8180	722274	0	0
2024-04-16 20:14:32			0	34594	0	0	0	19023	17690	150683	27346	958048	37430	106939	0	0	8179	722791	0	0
2024-04-16 20:15:32			0	34585	0	0	0	19023	17700	150675	27239	958135	37419	106939	0	0	8179	723181	0	0
2024-04-16 20:16:32			0	34580	0	0	0	19020	17690	150739	27041	958021	37430	106938	0	0	8178	723459	0	0
2024-04-16 20:17:32			0	34579	0	0	0	19005	17690	150739	27365	958074	37419	106932	0	0	8179	723507	0	0
2024-04-16 20:18:32			0	34593	0	0	0	19010	17680	150667	26875	958084	37418	106934	0	0	8179	722878	0	0
2024-04-16 20:19:32			0	34587	0	0	0	18997	17690	150667	27225	958048	37419	106929	0	0	8179	723125	0	0
2024-04-16 20:20:32			0	34610	0	0	0	18997	17680	150611	26981	958023	37417	106929	0	0	8180	722067	0	0
2024-04-16 20:21:32			0	34601	0	0	0	19012	17670	150623	27090	957962	37416	106935	0	0	8180	722535	0	0
2024-04-16 20:22:32			0	34601	0	0	0	19015	17680	150631	27249	957997	37417	106936	0	0	8180	722496	0	0
2024-04-16 20:23:32			0	34613	0	0	0	19015	17670	150603	27343	958060	37416	106936	0	0	8180	721963	0	0
2024-04-16 20:24:32			0	34602	0	0	0	19020	17670	150575	27431	958033	37416	106938	0	0	8180	722488	0	0
2024-04-16 20:25:32			0	34632	0	0	0	19010	17680	150523	27064	958023	37407	106934	0	0	8182	721019	0	0
2024-04-16 20:26:32			0	34609	0	0	0	18999	17670	150551	27305	957962	37406	106930	0	0	8180	722154	0	0
2024-04-16 20:27:32			0	34650	0	0	0	18994	17660	150471	27069	957946	37416	106928	0	0	8183	720240	0	0
2024-04-16 20:28:32			0	34669	0	0	0	19005	17660	150343	27239	957972	37438	106932	0	0	8184	719336	0	0
2024-04-16 20:29:32			0	34671	0	0	0	19018	17670	150339	27374	957962	37406	106937	0	0	8184	719202	0	0
2024-04-16 20:30:32			0	34674	0	0	0	19015	17670	150339	27410	958033	37427	106936	0	0	8184	719059	0	0
2024-04-16 20:31:32			0	34675	0	0	0	19012	17670	150323	27263	957980	37416	106935	0	0	8184	719012	0	0
2024-04-16 20:32:32			0	34661	0	0	0	19028	17660	150355	27403	957938	37416	106941	0	0	8183	719717	0	0
2024-04-16 20:33:32			0	34676	0	0	0	19025	17670	150327	27171	957980	37427	106940	0	0	8184	718964	0	0
2024-04-16 20:34:32			0	34696	0	0	0	19018	17670	150307	27306	958060	37427	106937	0	0	8185	718014	0	0
2024-04-16 20:35:32			0	34675	0	0	0	19025	17670	150351	27105	958094	37416	106940	0	0	8184	719012	0	0
2024-04-16 20:36:32			0	34719	0	0	0	19023	17670	150251	27199	958007	37406	106939	0	0	8186	716923	0	0
2024-04-16 20:37:32			0	34699	0	0	0	19020	17670	150255	27505	958007	37416	106938	0	0	8185	717872	0	0
2024-04-16 20:38:32			0	34682	0	0	0	19015	17670	150203	27144	957980	37416	106936	0	0	8184	718679	0	0
2024-04-16 20:39:32			0	34676	0	0	0	19015	17670	150287	27175	958007	37416	106936	0	0	8184	718964	0	0
2024-04-16 20:40:32			0	34705	0	0	0	19010	17670	150211	27296	957928	37427	106934	0	0	8186	717587	0	0
2024-04-16 20:41:32			0	34695	0	0	0	19010	17670	150183	27175	958041	37416	106934	0	0	8185	718062	0	0
2024-04-16 20:42:32			0	34700	0	0	0	19018	17660	150255	27118	957999	37427	106937	0	0	8185	717864	0	0
2024-04-16 20:43:32			0	34712	0	0	0	19005	17670	150135	27398	958007	37416	106932	0	0	8186	717255	0	0
2024-04-16 20:44:32			0	34708	0	0	0	19015	17670	150131	27421	958033	37416	106936	0	0	8186	717445	0	0
2024-04-16 20:45:32			0	34719	0	0	0	19023	17670	150091	27123	957989	37416	106939	0	0	8186	716923	0	0
2024-04-16 20:46:32			0	34741	0	0	0	19012	17670	150043	27048	957875	37427	106935	0	0	8188	715880	0	0
2024-04-16 20:47:32			0	34748	0	0	0	19020	17670	149891	27147	957989	37416	106938	0	0	8188	715549	0	0
2024-04-16 20:48:32			0	34761	0	0	0	19028	17660	149971	27242	957999	37427	106941	0	0	8188	714972	0	0
2024-04-16 20:49:32			0	34781	0	0	0	19023	17670	149803	26974	958112	37427	106939	0	0	8190	713988	0	0
2024-04-16 20:50:32			0	34798	0	0	0	19038	17670	149807	27327	958041	37427	106945	0	0	8190	713184	0	0
2024-04-16 20:51:32			0	34794	0	0	0	19023	17680	149819	26956	958102	37417	106939	0	0	8190	713335	0	0
2024-04-16 20:52:32			0	34804	0	0	0	19023	17680	149831	26953	958050	37428	106939	0	0	8191	712862	0	0
2024-04-16 20:53:32			0	34789	0	0	0	19025	17670	149799	27313	958041	37416	106940	0	0	8190	713609	0	0
2024-04-16 20:54:32			0	34796	0	0	0	19028	17680	149695	27336	958084	37418	106941	0	0	8190	713240	0	0
2024-04-16 20:55:32			0	34812	0	0	0	19044	17670	149707	27332	958041	37416	106947	0	0	8191	712523	0	0
2024-04-16 20:56:32			0	34789	0	0	0	19031	17670	149795	26970	958121	37427	106942	0	0	8190	713609	0	0
2024-04-16 20:57:32			0	34804	0	0	0	19028	17680	149767	26814	958076	37428	106941	0	0	8191	712862	0	0
2024-04-16 20:58:32			0	34817	0	0	0	19041	17680	149811	26975	958102	37417	106946	0	0	8191	712249	0	0
2024-04-16 20:59:32			0	34819	0	0	0	19031	17680	149767	27001	958076	37428	106942	0	0	8192	712154	0	0
2024-04-16 21:00:32			0	34814	0	0	0	19038	17690	149607	27078	958119	37418	106945	0	0	8191	712351	0	0
2024-04-16 21:01:32			0	34798	0	0	0	19031	17690	149783	27052	958145	37429	106942	0	0	8191	713107	0	0
2024-04-16 21:02:32			0	34808	0	0	0	19041	17680	149739	27150	958058	37429	106946	0	0	8191	712673	0	0
2024-04-16 21:03:32			0	34829	0	0	0	19067	17680	149607	27464	958084	37429	106956	0	0	8192	711683	0	0
2024-04-16 21:04:32			0	34821	0	0	0	19049	17680	149671	27135	958110	37429	106949	0	0	8191	712060	0	0
2024-04-16 21:05:32			0	34820	0	0	0	19031	17680	149643	27312	958163	37418	106942	0	0	8192	712107	0	0
2024-04-16 21:06:32			0	34815	0	0	0	19033	17690	149687	27530	958119	37418	106943	0	0	8191	712304	0	0
2024-04-16 21:07:32			0	34816	0	0	0	19015	17690	149623	27313	958180	37430	106936	0	0	8192	712257	0	0
2024-04-16 21:08:32			0	34803	0	0	0	18999	17690	149715	27571	958040	37440	106930	0	0	8191	712871	0	0
2024-04-16 21:09:32			0	34796	0	0	0	19007	17680	149711	27350	958005	37429	106933	0	0	8191	713240	0	0
2024-04-16 21:10:32			0	34801	0	0	0	19028	17680	149763	27157	958058	37408	106941	0	0	8191	713004	0	0
2024-04-16 21:11:32			0	34786	0	0	0	19036	17680	149791	26864	958050	37417	106944	0	0	8190	713712	0	0
2024-04-16 21:12:32			0	34798	0	0	0	19025	17680	149815	27066	958110	37440	106940	0	0	8191	713145	0	0
2024-04-16 21:13:32			0	34796	0	0	0	19020	17670	149739	27092	958041	37438	106938	0	0	8190	713279	0	0
2024-04-16 21:14:32			0	34801	0	0	0	19031	17680	149767	27109	958076	37417	106942	0	0	8191	713004	0	0
2024-04-16 21:15:32			0	34796	0	0	0	19028	17690	149683	27029	958127	37419	106941	0	0	8190	713201	0	0
2024-04-16 21:16:32			0	34819	0	0	0	19036	17680	149571	27272	958137	37429	106944	0	0	8192	712154	0	0
2024-04-16 21:17:32			0	34820	0	0	0	19038	17690	149715	27081	958145	37418	106945	0	0	8192	712068	0	0
2024-04-16 21:18:32			0	34800	0	0	0	19046	17670	149595	27251	958094	37427	106948	0	0	8190	713090	0	0
2024-04-16 21:19:32			0	34815	0	0	0	19033	17670	149635	27374	958094	37427	106943	0	0	8191	712382	0	0
2024-04-16 21:20:32			0	34834	0	0	0	19051	17680	149635	27422	958163	37440	106950	0	0	8192	711447	0	0
2024-04-16 21:21:32			0	34823	0	0	0	19051	17690	149651	27135	958145	37429	106950	0	0	8192	711927	0	0
2024-04-16 21:22:32			0	34831	0	0	0	19054	17690	149599	27320	958145	37429	106951	0	0	8192	711549	0	0
2024-04-16 21:23:32			0	34840	0	0	0	19046	17690	149571	27346	958180	37441	106948	0	0	8193	711125	0	0
2024-04-16 21:24:32			0	34841	0	0	0	19033	17690	149611	26961	958154	37441	106943	0	0	8193	711078	0	0
2024-04-16 21:25:32			0	34822	0	0	0	19038	17700	149671	26876	958135	37430	106945	0	0	8192	711935	0	0
2024-04-16 21:26:32			0	34822	0	0	0	19038	17690	149615	27081	958145	37418	106945	0	0	8192	711974	0	0
2024-04-16 21:27:32			0	34828	0	0	0	19046	17690	149635	26960	958101	37430	106948	0	0	8192	711691	0	0
2024-04-16 21:28:32			0	34827	0	0	0	19067	17690	149555	26930	958180	37419	106956	0	0	8192	711738	0	0
2024-04-16 21:29:32			0	34844	0	0	0	19062	17690	149619	26821	958154	37430	106954	0	0	8193	710937	0	0
2024-04-16 21:30:32			0	34838	0	0	0	19054	17700	149643	27187	958249	37409	106951	0	0	8192	711181	0	0
2024-04-16 21:31:32			0	34847	0	0	0	19044	17700	149667	27216	958109	37408	106947	0	0	8193	710757	0	0
2024-04-16 21:32:32			0	34814	0	0	0	19059	17700	149771	26875	958162	37430	106953	0	0	8191	712313	0	0
2024-04-16 21:33:32			0	34831	0	0	0	19064	17690	149627	27372	958145	37440	106955	0	0	8192	711549	0	0
2024-04-16 21:34:32			0	34838	0	0	0	19020	17690	149715	27187	958180	37419	106938	0	0	8193	711219	0	0
2024-04-16 21:35:32			0	34822	0	0	0	19005	17700	149651	27034	958082	37441	106932	0	0	8192	711935	0	0
2024-04-16 21:36:32			0	34822	0	0	0	19044	17700	149695	27142	958143	37442	106947	0	0	8192	711935	0	0
2024-04-16 21:37:32			0	34836	0	0	0	19018	17700	149571	26977	958117	37431	106937	0	0	8193	711275	0	0
2024-04-16 21:38:32			0	34822	0	0	0	19012	17690	149655	27168	958180	37419	106935	0	0	8192	711974	0	0
2024-04-16 21:39:32			0	34789	0	0	0	19041	17690	149755	27027	958040	37418	106946	0	0	8190	713532	0	0
2024-04-16 21:40:32			0	34804	0	0	0	19020	17690	149715	27178	958119	37418	106938	0	0	8191	712823	0	0
2024-04-16 21:41:32			0	34777	0	0	0	19018	17690	149831	27242	958040	37418	106937	0	0	8190	714099	0	0
2024-04-16 21:42:32			0	34784	0	0	0	19012	17680	149887	27161	958076	37417	106935	0	0	8190	713807	0	0
2024-04-16 21:43:32			0	34781	0	0	0	19002	17680	149863	27476	958084	37418	106931	0	0	8190	713949	0	0
2024-04-16 21:44:32			0	34768	0	0	0	18994	17680	149899	27357	958084	37429	106928	0	0	8189	714563	0	0
2024-04-16 21:45:32			0	34763	0	0	0	19007	17670	149899	27215	958041	37416	106933	0	0	8189	714839	0	0
2024-04-16 21:46:32			0	34762	0	0	0	18994	17670	149839	27185	957989	37427	106928	0	0	8189	714886	0	0
2024-04-16 21:47:32			0	34763	0	0	0	18981	17670	150003	27267	957989	37427	106923	0	0	8189	714839	0	0
2024-04-16 21:48:32			0	34762	0	0	0	18974	17670	150019	27154	957962	37416	106920	0	0	8189	714886	0	0
2024-04-16 21:49:32			0	34736	0	0	0	18984	17660	150031	26856	957938	37426	106924	0	0	8188	716156	0	0
2024-04-16 21:50:32			0	34732	0	0	0	18984	17660	150043	27055	957964	37416	106924	0	0	8187	716346	0	0
2024-04-16 21:51:32			0	34702	0	0	0	18994	17660	150075	27242	957972	37427	106928	0	0	8186	717769	0	0
2024-04-16 21:52:32			0	34721	0	0	0	18997	17670	150047	26821	958033	37427	106929	0	0	8187	716828	0	0
2024-04-16 21:53:32			0	34727	0	0	0	18942	17650	150019	27232	957930	37426	106908	0	0	8188	716622	0	0
2024-04-16 21:54:32			0	34683	0	0	0	18922	17650	150187	27048	957930	37415	106900	0	0	8186	718710	0	0
2024-04-16 21:55:32			0	34634	0	0	0	18885	17640	150511	27272	957887	37415	106886	0	0	8184	721080	0	0
2024-04-16 21:56:32			0	34619	0	0	0	18862	17640	150483	27008	957747	37415	106877	0	0	8183	721795	0	0
2024-04-16 21:57:32			0	34581	0	0	0	18859	17620	150599	26977	957696	37413	106876	0	0	8181	723687	0	0
2024-04-16 21:58:32			0	34529	0	0	0	18864	17590	150903	27258	957602	37421	106878	0	0	8178	726293	0	0
2024-04-16 21:59:32			0	34525	0	0	0	18854	17590	150891	27175	957647	37399	106874	0	0	8178	726484	0	0
2024-04-16 22:00:32			0	34495	0	0	0	18841	17590	150979	27034	957549	37400	106869	0	0	8176	727922	0	0
2024-04-16 22:01:32			0	34503	0	0	0	18857	17580	150987	27015	957551	37410	106875	0	0	8176	727578	0	0
2024-04-16 22:02:32			0	34496	0	0	0	18851	17570	151187	26802	957490	37420	106873	0	0	8176	727954	0	0
2024-04-16 22:03:32			0	34480	0	0	0	18833	17560	151199	26717	957527	37408	106866	0	0	8175	728761	0	0
2024-04-16 22:04:32			0	34478	0	0	0	18836	17560	151251	27204	957447	37397	106867	0	0	8175	728857	0	0
2024-04-16 22:05:32			0	34452	0	0	0	18825	17550	151215	27218	957458	37408	106863	0	0	8174	730147	0	0
2024-04-16 22:06:32			0	34457	0	0	0	18838	17560	151215	27332	957466	37408	106868	0	0	8174	729867	0	0
2024-04-16 22:07:32			0	34463	0	0	0	18851	17540	151307	27194	957460	37394	106873	0	0	8174	729658	0	0
2024-04-16 22:08:32			0	34440	0	0	0	18846	17540	151367	27261	957468	37406	106871	0	0	8173	730764	0	0
2024-04-16 22:09:32			0	34439	0	0	0	18851	17530	151339	27317	957443	37394	106873	0	0	8173	730852	0	0
2024-04-16 22:10:32			0	34414	0	0	0	18844	17520	151459	27258	957435	37405	106870	0	0	8171	732096	0	0
2024-04-16 22:11:32			0	34428	0	0	0	18831	17530	151463	27275	957478	37416	106865	0	0	8172	731381	0	0
2024-04-16 22:12:32			0	34422	0	0	0	18831	17520	151563	27275	957435	37416	106865	0	0	8172	731710	0	0
2024-04-16 22:13:32			0	34397	0	0	0	18825	17520	151539	27277	957303	37405	106863	0	0	8171	732915	0	0
2024-04-16 22:14:32			0	34379	0	0	0	18805	17520	151579	27213	957409	37416	106855	0	0	8170	733784	0	0
2024-04-16 22:15:32			0	34364	0	0	0	18815	17510	151727	27222	957384	37404	106859	0	0	8169	734549	0	0
2024-04-16 22:16:32			0	34379	0	0	0	18844	17510	151683	27045	957366	37415	106870	0	0	8169	733824	0	0
2024-04-16 22:17:32			0	34376	0	0	0	18854	17500	151735	27573	957376	37403	106874	0	0	8169	734009	0	0
2024-04-16 22:18:32			0	34399	0	0	0	18818	17500	151655	27281	957403	37414	106860	0	0	8171	732899	0	0
2024-04-16 22:19:32			0	34387	0	0	0	18836	17500	151651	27041	957403	37403	106867	0	0	8170	733478	0	0
2024-04-16 22:20:32			0	34361	0	0	0	18786	17500	151639	27175	957323	37403	106848	0	0	8169	734734	0	0
2024-04-16 22:21:32			0	34362	0	0	0	18659	17500	151751	27140	957244	37392	106799	0	0	8171	734685	0	0
2024-04-16 22:22:32			0	34326	0	0	0	18659	17470	151822	27251	957063	37389	106799	0	0	8169	736547	0	0
2024-04-16 22:23:32			0	34285	0	0	0	18672	17470	151994	27235	957055	37377	106804	0	0	8167	738535	0	0
2024-04-16 22:24:32			0	34250	0	0	0	18670	17450	152142	27010	957022	37376	106803	0	0	8165	740315	0	0
2024-04-16 22:25:32			0	34234	0	0	0	18714	17440	152242	27098	956988	37387	106820	0	0	8163	741134	0	0
2024-04-16 22:26:32			0	34226	0	0	0	18701	17440	152290	27046	956980	37386	106815	0	0	8163	741523	0	0
2024-04-16 22:27:32			0	34253	0	0	0	18636	17430	152246	26989	957016	37385	106790	0	0	8165	740250	0	0
2024-04-16 22:28:32			0	34231	0	0	0	18625	17430	152414	27246	956963	37385	106786	0	0	8164	741320	0	0
2024-04-16 22:29:32			0	34219	0	0	0	18605	17410	152394	27027	956886	37374	106778	0	0	8164	741985	0	0
2024-04-16 22:30:32			0	34205	0	0	0	18514	17400	152422	27076	956756	37350	106743	0	0	8164	742708	0	0
2024-04-16 22:31:32			0	34175	0	0	0	18529	17380	152574	27123	956697	37360	106749	0	0	8162	744252	0	0
2024-04-16 22:32:32			0	34156	0	0	0	18592	17380	152638	27421	956618	37371	106773	0	0	8160	745180	0	0
2024-04-16 22:33:32			0	34113	0	0	0	18615	17350	152818	27121	956656	37357	106782	0	0	8157	747406	0	0
2024-04-16 22:34:32			0	34140	0	0	0	18589	17340	152762	27105	956666	37368	106772	0	0	8159	746125	0	0
2024-04-16 22:35:32			0	34124	0	0	0	18524	17340	152786	27005	956561	37378	106747	0	0	8159	746908	0	0
2024-04-16 22:36:32			0	34118	0	0	0	18535	17330	152946	27303	956526	37367	106751	0	0	8159	747242	0	0
2024-04-16 22:37:32			0	34105	0	0	0	18561	17320	153018	27241	956502	37354	106761	0	0	8157	747920	0	0
2024-04-16 22:38:32			0	34074	0	0	0	18472	17310	152930	27163	956459	37365	106727	0	0	8157	749481	0	0
2024-04-16 22:39:32			0	34086	0	0	0	18449	17300	153110	27306	956416	37331	106718	0	0	8158	748933	0	0
2024-04-16 22:40:32			0	34037	0	0	0	18488	17280	153238	27130	956365	37352	106733	0	0	8155	751423	0	0
2024-04-16 22:41:32			0	34041	0	0	0	18366	17270	153254	27013	956270	37362	106686	0	0	8157	751267	0	0
2024-04-16 22:42:32			0	34034	0	0	0	18493	17250	153346	27289	956105	37349	106735	0	0	8154	751693	0	0
2024-04-16 22:43:32			0	34005	0	0	0	18389	17240	153402	26892	956089	37348	106695	0	0	8154	753162	0	0
2024-04-16 22:44:32			0	34014	0	0	0	18405	17230	153446	27248	956152	37336	106701	0	0	8154	752759	0	0
2024-04-16 22:45:32			0	34020	0	0	0	18332	17230	153382	27464	956012	37347	106673	0	0	8156	752464	0	0
2024-04-16 22:46:32			0	33992	0	0	0	18311	17200	153594	26755	955936	37333	106665	0	0	8155	753967	0	0
2024-04-16 22:47:32			0	33977	0	0	0	18205	17190	153526	26887	955788	37343	106624	0	0	8155	754748	0	0
2024-04-16 22:48:32			0	33944	0	0	0	18238	17170	153750	26935	955809	37332	106637	0	0	8153	756461	0	0
2024-04-16 22:49:32			0	33920	0	0	0	18166	17150	153754	26927	955618	37319	106609	0	0	8153	757732	0	0
2024-04-16 22:50:32			0	33887	0	0	0	18140	17120	153902	27268	955498	37316	106599	0	0	8151	759491	0	0
2024-04-16 22:51:32			0	33859	0	0	0	18345	17100	154174	27305	955430	37303	106678	0	0	8146	760965	0	0
2024-04-16 22:52:32			0	33856	0	0	0	18454	17090	154294	27306	955573	37324	106720	0	0	8144	761155	0	0
2024-04-16 22:53:32			0	33876	0	0	0	18485	17100	154198	27279	955800	37335	106732	0	0	8144	760120	0	0
2024-04-16 22:54:32			0	33933	0	0	0	18683	17110	154114	27007	956027	37358	106808	0	0	8144	757252	0	0
2024-04-16 22:55:32			0	34001	0	0	0	18405	17150	153702	27365	956172	37362	106701	0	0	8153	753727	0	0
2024-04-16 22:56:32			0	34014	0	0	0	18405	17140	153522	26951	956111	37329	106701	0	0	8154	753127	0	0
2024-04-16 22:57:32			0	33992	0	0	0	18433	17140	153582	27017	956005	37351	106712	0	0	8152	754212	0	0
2024-04-16 22:58:32			0	33988	0	0	0	18358	17150	153622	27324	955943	37351	106683	0	0	8153	754369	0	0
2024-04-16 22:59:32			0	33967	0	0	0	18386	17150	153758	26928	955916	37330	106694	0	0	8152	755406	0	0
2024-04-16 23:00:32			0	33947	0	0	0	18153	17140	153666	27246	955760	37328	106604	0	0	8154	756436	0	0
2024-04-16 23:01:32			0	33898	0	0	0	17981	17120	153782	27377	955358	37304	106538	0	0	8154	758946	0	0
2024-04-16 23:02:32			0	33848	0	0	0	17903	17070	154154	26930	955065	37300	106508	0	0	8153	761636	0	0
2024-04-16 23:03:32			0	33801	0	0	0	17867	17020	154302	26889	954886	37275	106494	0	0	8150	764184	0	0
2024-04-16 23:04:32			0	33763	0	0	0	17890	16970	154590	27251	954787	37260	106503	0	0	8147	766289	0	0
2024-04-16 23:05:32			0	33739	0	0	0	17851	16930	154730	27332	954537	37267	106488	0	0	8146	767656	0	0
2024-04-16 23:06:32			0	33686	0	0	0	17942	16900	155006	27041	954541	37254	106523	0	0	8142	770438	0	0
2024-04-16 23:07:32			0	33673	0	0	0	17927	16870	155118	27085	954379	37273	106517	0	0	8141	771217	0	0
2024-04-16 23:08:32			0	33667	0	0	0	18085	16840	155186	26987	954443	37271	106578	0	0	8138	771644	0	0
2024-04-16 23:09:32			0	33675	0	0	0	18171	16860	155346	26965	954784	37305	106611	0	0	8137	771158	0	0
2024-04-16 23:10:32			0	33687	0	0	0	18124	16870	155230	27204	954906	37294	106593	0	0	8138	770514	0	0
2024-04-16 23:11:32			0	33708	0	0	0	18093	16880	155062	27024	954817	37295	106581	0	0	8140	769418	0	0
2024-04-16 23:12:32			0	33690	0	0	0	18129	16870	155238	27173	954809	37305	106595	0	0	8139	770363	0	0
2024-04-16 23:13:32			0	33718	0	0	0	17997	16880	155202	27317	954817	37285	106544	0	0	8142	768916	0	0
2024-04-16 23:14:32			0	33729	0	0	0	18051	16890	155070	27069	954780	37286	106565	0	0	8142	768323	0	0
2024-04-16 23:15:32			0	33698	0	0	0	17901	16860	155002	26960	954581	37294	106507	0	0	8143	770003	0	0
2024-04-16 23:16:32			0	33663	0	0	0	17807	16840	155102	27277	954461	37282	106471	0	0	8142	771845	0	0
2024-04-16 23:17:32			0	33657	0	0	0	17888	16810	155318	27339	954394	37257	106502	0	0	8140	772272	0	0
2024-04-16 23:18:32			0	33636	0	0	0	17870	16810	155366	27055	954254	37267	106495	0	0	8139	773330	0	0
2024-04-16 23:19:32			0	33628	0	0	0	17758	16790	155438	27348	954283	37277	106452	0	0	8141	773817	0	0
2024-04-16 23:20:32			0	33621	0	0	0	17776	16760	155578	27255	954076	37253	106459	0	0	8140	774295	0	0
2024-04-16 23:21:32			0	33587	0	0	0	17870	16730	155702	27050	954009	37261	106495	0	0	8136	776137	0	0
2024-04-16 23:22:32			0	33578	0	0	0	17880	16730	155869	27060	954106	37261	106499	0	0	8135	776592	0	0
2024-04-16 23:23:32			0	33586	0	0	0	17753	16730	155694	27315	954080	37250	106450	0	0	8138	776188	0	0
2024-04-16 23:24:32			0	33562	0	0	0	17761	16700	155865	27486	953802	37249	106453	0	0	8136	777527	0	0
2024-04-16 23:25:32			0	33540	0	0	0	17667	16680	155913	27370	953796	37236	106417	0	0	8137	778725	0	0
2024-04-16 23:26:32			0	33550	0	0	0	17641	16650	156005	27187	953527	37233	106407	0	0	8138	778345	0	0
2024-04-16 23:27:32			0	33521	0	0	0	17646	16620	156141	27170	953460	37219	106409	0	0	8136	779942	0	0
2024-04-16 23:28:32			0	33523	0	0	0	17602	16590	156085	27062	953306	37228	106392	0	0	8136	779967	0	0
2024-04-16 23:29:32			0	33484	0	0	0	17636	16560	156177	27019	953196	37213	106405	0	0	8133	782074	0	0
2024-04-16 23:30:32			0	33469	0	0	0	17875	16540	156509	27332	953436	37224	106497	0	0	8128	782922	0	0
2024-04-16 23:31:32			0	33519	0	0	0	17672	16550	156241	27267	953452	37247	106419	0	0	8135	780339	0	0
2024-04-16 23:32:32			0	33512	0	0	0	17742	16560	156337	27230	953460	37224	106446	0	0	8133	780652	0	0
2024-04-16 23:33:32			0	33497	0	0	0	17768	16550	156429	27137	953505	37268	106456	0	0	8132	781456	0	0
2024-04-16 23:34:32			0	33489	0	0	0	17646	16540	156293	27092	953296	37223	106409	0	0	8133	781905	0	0
2024-04-16 23:35:32			0	33464	0	0	0	17587	16530	156385	27223	953253	37222	106386	0	0	8133	783219	0	0
2024-04-16 23:36:32			0	33477	0	0	0	17641	16500	156409	26804	953046	37208	106407	0	0	8132	782684	0	0
2024-04-16 23:37:32			0	33445	0	0	0	17628	16490	156481	27524	953135	37219	106402	0	0	8131	784356	0	0
2024-04-16 23:38:32			0	33483	0	0	0	17584	16480	156409	27059	953119	37218	106385	0	0	8134	782464	0	0
2024-04-16 23:39:32			0	33466	0	0	0	17563	16470	156413	27346	952953	37217	106377	0	0	8133	783371	0	0
2024-04-16 23:40:32			0	33461	0	0	0	17529	16440	156509	27339	952939	37215	106364	0	0	8133	783753	0	0
2024-04-16 23:41:32			0	33461	0	0	0	17509	16430	156513	27008	952756	37204	106356	0	0	8133	783796	0	0
2024-04-16 23:42:32			0	33444	0	0	0	17516	16380	156633	27260	952630	37188	106359	0	0	8132	784874	0	0
2024-04-16 23:43:32			0	33453	0	0	0	17514	16370	156701	27107	952509	37220	106358	0	0	8133	784458	0	0
2024-04-16 23:44:32			0	33433	0	0	0	17558	16350	156741	27355	952502	37186	106375	0	0	8131	785563	0	0
2024-04-16 23:45:32			0	33421	0	0	0	17532	16340	156757	26887	952557	37195	106365	0	0	8130	786218	0	0
2024-04-16 23:46:32			0	33446	0	0	0	17503	16330	156825	27149	952515	37195	106354	0	0	8132	784984	0	0
2024-04-16 23:47:32			0	33437	0	0	0	17496	16310	156729	27033	952464	37193	106351	0	0	8132	785528	0	0
2024-04-16 23:48:32			0	33432	0	0	0	17493	16300	156733	26842	952421	37193	106350	0	0	8131	785826	0	0
2024-04-16 23:49:32			0	33428	0	0	0	17535	16290	156829	27012	952300	37202	106366	0	0	8130	786073	0	0
2024-04-16 23:50:32			0	33426	0	0	0	17561	16290	156965	27055	952397	37202	106376	0	0	8130	786175	0	0
2024-04-16 23:51:32			0	33423	0	0	0	17566	16270	156965	27275	952338	37190	106378	0	0	8129	786413	0	0
2024-04-16 23:52:32			0	33430	0	0	0	17527	16280	156841	27185	952407	37202	106363	0	0	8131	786013	0	0
2024-04-16 23:53:32			0	33419	0	0	0	17509	16270	156905	27310	952399	37190	106356	0	0	8130	786617	0	0
2024-04-16 23:54:32			0	33423	0	0	0	17524	16260	156829	27003	952304	37201	106362	0	0	8130	786455	0	0
2024-04-16 23:55:32			0	33420	0	0	0	17503	16260	156857	27050	952322	37200	106354	0	0	8130	786609	0	0
2024-04-16 23:56:32			0	33418	0	0	0	17490	16250	156961	27322	952261	37209	106349	0	0	8130	786754	0	0
2024-04-16 23:57:32			0	33417	0	0	0	17496	16240	156953	27154	952218	37208	106351	0	0	8130	786847	0	0
2024-04-16 23:58:32			0	33441	0	0	0	17501	16240	156989	27263	952237	37198	106353	0	0	8131	785621	0	0
2024-04-16 23:59:32			0	33424	0	0	0	17485	16220	157029	27114	952212	37186	106347	0	0	8131	786574	0	0
2024-04-17 00:00:32			0	33420	0	0	0	17503	16220	157065	27038	952178	37197	106354	0	0	8130	786779	0	0
2024-04-17 00:01:32			0	33408	0	0	0	17490	16210	156973	26882	952143	37207	106349	0	0	8129	787435	0	0
2024-04-17 00:02:32			0	33426	0	0	0	17493	16210	156925	27123	952135	37206	106350	0	0	8131	786515	0	0
2024-04-17 00:03:32			0	33416	0	0	0	17503	16200	157013	27490	952127	37195	106354	0	0	8130	787068	0	0
2024-04-17 00:04:32			0	33419	0	0	0	17480	16200	156921	27457	952101	37206	106345	0	0	8130	786915	0	0
2024-04-17 00:05:32			0	33404	0	0	0	17516	16190	156981	27474	952137	37205	106359	0	0	8129	787724	0	0
2024-04-17 00:06:32			0	33403	0	0	0	17558	16190	157101	27107	952182	37182	106375	0	0	8128	787776	0	0
2024-04-17 00:07:32			0	33410	0	0	0	17553	16210	157033	27331	952275	37207	106373	0	0	8129	787333	0	0
2024-04-17 00:08:32			0	33430	0	0	0	17535	16200	156953	27402	952233	37227	106366	0	0	8130	786353	0	0
2024-04-17 00:09:32			0	33414	0	0	0	17532	16210	157029	27383	952267	37195	106365	0	0	8129	787128	0	0
2024-04-17 00:10:32			0	33408	0	0	0	17545	16200	157049	27092	952206	37216	106370	0	0	8129	787477	0	0
2024-04-17 00:11:32			0	33403	0	0	0	17625	16210	157145	27319	952275	37217	106401	0	0	8127	787691	0	0
2024-04-17 00:12:32			0	33425	0	0	0	17589	16220	157117	27371	952318	37218	106387	0	0	8129	786523	0	0
2024-04-17 00:13:32			0	33412	0	0	0	17672	16240	157053	27327	952474	37208	106419	0	0	8127	787103	0	0
2024-04-17 00:14:32			0	33424	0	0	0	17654	16250	157061	27339	952543	37242	106412	0	0	8128	786447	0	0
2024-04-17 00:15:32			0	33433	0	0	0	17631	16260	156973	27409	952506	37221	106403	0	0	8129	785945	0	0
2024-04-17 00:16:32			0	33451	0	0	0	17659	16250	156809	27597	952498	37220	106414	0	0	8129	785068	0	0
2024-04-17 00:17:32			0	33467	0	0	0	17654	16270	156789	27263	952549	37233	106412	0	0	8131	784168	0	0
2024-04-17 00:18:32			0	33461	0	0	0	17709	16280	156757	27592	952565	37223	106433	0	0	8129	784431	0	0
2024-04-17 00:19:32			0	33458	0	0	0	17724	16300	156705	27440	952677	37236	106439	0	0	8129	784499	0	0
2024-04-17 00:20:32			0	33485	0	0	0	17612	16290	156697	27244	952687	37224	106396	0	0	8132	783166	0	0
2024-04-17 00:21:32			0	33460	0	0	0	17594	16300	156693	27500	952632	37225	106389	0	0	8131	784398	0	0
2024-04-17 00:22:32			0	33466	0	0	0	17597	16300	156777	27329	952553	37225	106390	0	0	8132	784092	0	0
2024-04-17 00:23:32			0	33442	0	0	0	17584	16290	156745	27251	952563	37213	106385	0	0	8130	785358	0	0
2024-04-17 00:24:32			0	33427	0	0	0	17602	16280	156845	27429	952468	37224	106392	0	0	8129	786166	0	0
2024-04-17 00:25:32			0	33431	0	0	0	17589	16280	156913	27479	952513	37212	106387	0	0	8130	785962	0	0
2024-04-17 00:26:32			0	33428	0	0	0	17610	16280	156957	27393	952407	37223	106395	0	0	8129	786115	0	0
2024-04-17 00:27:32			0	33448	0	0	0	17612	16280	156885	27300	952494	37224	106396	0	0	8130	785094	0	0
2024-04-17 00:28:32			0	33458	0	0	0	17597	16280	156761	27379	952547	37224	106390	0	0	8131	784584	0	0
2024-04-17 00:29:32			0	33456	0	0	0	17579	16270	156873	27159	952478	37222	106383	0	0	8131	784729	0	0
2024-04-17 00:30:32			0	33464	0	0	0	17574	16270	156777	27246	952425	37222	106381	0	0	8132	784321	0	0
2024-04-17 00:31:32			0	33484	0	0	0	17576	16280	156745	27251	952433	37212	106382	0	0	8133	783259	0	0
2024-04-17 00:32:32			0	33502	0	0	0	17584	16260	156565	27424	952383	37222	106385	0	0	8134	782428	0	0
2024-04-17 00:33:32			0	33505	0	0	0	17561	16260	156569	27319	952462	37222	106376	0	0	8134	782275	0	0
2024-04-17 00:34:32			0	33483	0	0	0	17548	16260	156645	27365	952383	37222	106371	0	0	8133	783395	0	0
2024-04-17 00:35:32			0	33476	0	0	0	17558	16260	156821	27388	952330	37222	106375	0	0	8133	783751	0	0
2024-04-17 00:36:32			0	33465	0	0	0	17553	16260	156765	27455	952375	37200	106373	0	0	8132	784312	0	0
2024-04-17 00:37:32			0	33440	0	0	0	17574	16240	156797	27293	952350	37208	106381	0	0	8130	785672	0	0
2024-04-17 00:38:32			0	33450	0	0	0	17558	16250	156893	27317	952358	37208	106375	0	0	8131	785119	0	0
2024-04-17 00:39:32			0	33457	0	0	0	17545	16240	156785	27353	952289	37208	106370	0	0	8132	784805	0	0
2024-04-17 00:40:32			0	33443	0	0	0	17545	16240	156841	27284	952289	37208	106370	0	0	8131	785519	0	0
2024-04-17 00:41:32			0	33443	0	0	0	17542	16240	156929	27152	952297	37208	106369	0	0	8131	785519	0	0
2024-04-17 00:42:32			0	33433	0	0	0	17540	16240	156921	27287	952289	37198	106368	0	0	8130	786030	0	0
2024-04-17 00:43:32			0	33412	0	0	0	17529	16240	156921	27107	952324	37220	106364	0	0	8129	787103	0	0
2024-04-17 00:44:32			0	33408	0	0	0	17537	16220	157001	27128	952283	37208	106367	0	0	8129	787392	0	0
2024-04-17 00:45:32			0	33397	0	0	0	17527	16230	157193	27319	952247	37197	106363	0	0	8128	787913	0	0
2024-04-17 00:46:32			0	33390	0	0	0	17524	16220	157169	27024	952186	37208	106362	0	0	8128	788313	0	0
2024-04-17 00:47:32			0	33392	0	0	0	17532	16210	157177	27391	952222	37217	106365	0	0	8128	788254	0	0
2024-04-17 00:48:32			0	33382	0	0	0	17535	16210	157153	27345	952196	37217	106366	0	0	8127	788766	0	0
2024-04-17 00:49:32			0	33386	0	0	0	17524	16210	157253	27319	952214	37195	106362	0	0	8128	788561	0	0
2024-04-17 00:50:32			0	33343	0	0	0	17524	16220	157253	27249	952178	37218	106362	0	0	8125	790722	0	0
2024-04-17 00:51:32			0	33355	0	0	0	17522	16200	157325	27235	952206	37206	106361	0	0	8126	790192	0	0
2024-04-17 00:52:32			0	33362	0	0	0	17524	16190	157385	27057	952111	37215	106362	0	0	8126	789876	0	0
2024-04-17 00:53:32			0	33345	0	0	0	17519	16200	157429	26956	952206	37227	106360	0	0	8125	790705	0	0
2024-04-17 00:54:32			0	33346	0	0	0	17524	16200	157397	27076	952145	37206	106362	0	0	8125	790654	0	0
2024-04-17 00:55:32			0	33340	0	0	0	17519	16200	157401	27194	952127	37227	106360	0	0	8125	790962	0	0
2024-04-17 00:56:32			0	33335	0	0	0	17527	16200	157397	27166	952172	37216	106363	0	0	8124	791218	0	0
2024-04-17 00:57:32			0	33331	0	0	0	17535	16190	157437	27365	952243	37215	106366	0	0	8124	791466	0	0
2024-04-17 00:58:32			0	33337	0	0	0	17537	16190	157497	27429	952137	37194	106367	0	0	8124	791158	0	0
2024-04-17 00:59:32			0	33330	0	0	0	17529	16200	157469	27654	952206	37239	106364	0	0	8124	791475	0	0
2024-04-17 01:00:32			0	33345	0	0	0	17522	16190	157453	27388	952190	37205	106361	0	0	8125	790748	0	0
2024-04-17 01:01:32			0	33329	0	0	0	17535	16200	157481	27377	952127	37206	106366	0	0	8124	791527	0	0
2024-04-17 01:02:32			0	33346	0	0	0	17529	16190	157409	27421	952129	37205	106364	0	0	8125	790696	0	0
2024-04-17 01:03:32			0	33335	0	0	0	17524	16200	157433	27190	952172	37216	106362	0	0	8125	791218	0	0
2024-04-17 01:04:32			0	33337	0	0	0	17522	16190	157465	27279	952111	37227	106361	0	0	8125	791158	0	0
2024-04-17 01:05:32			0	33318	0	0	0	17519	16190	157605	27495	952076	37193	106360	0	0	8124	792134	0	0
2024-04-17 01:06:32			0	33312	0	0	0	17511	16190	157589	27334	952103	37226	106357	0	0	8123	792443	0	0
2024-04-17 01:07:32			0	33309	0	0	0	17493	16190	157481	27611	952137	37215	106350	0	0	8123	792597	0	0
2024-04-17 01:08:32			0	33297	0	0	0	17490	16180	157521	27284	952113	37214	106349	0	0	8123	793257	0	0
2024-04-17 01:09:32			0	33288	0	0	0	17470	16180	157561	27272	952087	37214	106341	0	0	8123	793720	0	0
2024-04-17 01:10:32			0	33308	0	0	0	17501	16180	157601	27326	952095	37205	106353	0	0	8123	792691	0	0
2024-04-17 01:11:32			0	33292	0	0	0	17493	16170	157577	27272	952078	37214	106350	0	0	8122	793557	0	0
2024-04-17 01:12:32			0	33312	0	0	0	17480	16170	157709	27421	952052	37204	106345	0	0	8124	792528	0	0
2024-04-17 01:13:32			0	33295	0	0	0	17496	16150	157773	27067	952028	37191	106351	0	0	8122	793489	0	0
2024-04-17 01:14:32			0	33303	0	0	0	17488	16160	157717	27672	952036	37191	106348	0	0	8123	793034	0	0
2024-04-17 01:15:32			0	33290	0	0	0	17470	16170	157757	27599	952018	37213	106341	0	0	8123	793660	0	0
2024-04-17 01:16:32			0	33290	0	0	0	17467	16170	157733	27410	951973	37225	106340	0	0	8123	793660	0	0
2024-04-17 01:17:32			0	33288	0	0	0	17467	16160	157737	27362	952036	37202	106340	0	0	8122	793806	0	0
2024-04-17 01:18:32			0	33289	0	0	0	17454	16150	157741	27341	951949	37202	106335	0	0	8123	793797	0	0
2024-04-17 01:19:32			0	33277	0	0	0	17459	16150	157789	27258	951967	37212	106337	0	0	8122	794415	0	0
2024-04-17 01:20:32			0	33288	0	0	0	17436	16140	157729	27303	951933	37201	106328	0	0	8123	793892	0	0
2024-04-17 01:21:32			0	33280	0	0	0	17464	16140	157761	27434	951924	37200	106339	0	0	8122	794304	0	0
2024-04-17 01:22:32			0	33288	0	0	0	17470	16140	157741	27213	951951	37211	106341	0	0	8122	793892	0	0
2024-04-17 01:23:32			0	33283	0	0	0	17477	16140	157705	27336	951959	37211	106344	0	0	8122	794149	0	0
2024-04-17 01:24:32			0	33260	0	0	0	17524	16140	157733	27353	952064	37211	106362	0	0	8120	795335	0	0
2024-04-17 01:25:32			0	33286	0	0	0	17511	16150	157785	27706	952028	37223	106357	0	0	8122	793952	0	0
2024-04-17 01:26:32			0	33273	0	0	0	17527	16150	157769	27595	952028	37212	106363	0	0	8120	794622	0	0
2024-04-17 01:27:32			0	33271	0	0	0	17532	16160	157825	27274	952062	37212	106365	0	0	8120	794682	0	0
2024-04-17 01:28:32			0	33258	0	0	0	17524	16140	157933	27377	952064	37211	106362	0	0	8120	795438	0	0
2024-04-17 01:29:32			0	33247	0	0	0	17480	16140	157853	27400	952012	37222	106345	0	0	8120	796005	0	0
2024-04-17 01:30:32			0	33242	0	0	0	17516	16160	158013	27400	952036	37212	106359	0	0	8119	796177	0	0
2024-04-17 01:31:32			0	33240	0	0	0	17514	16170	157897	27168	952044	37213	106358	0	0	8119	796238	0	0
2024-04-17 01:32:32			0	33224	0	0	0	17509	16170	158129	27293	952018	37224	106356	0	0	8118	797064	0	0
2024-04-17 01:33:32			0	33205	0	0	0	17503	16150	158197	27647	952054	37212	106354	0	0	8117	798132	0	0
2024-04-17 01:34:32			0	33188	0	0	0	17480	16150	158209	27670	952054	37223	106345	0	0	8116	799012	0	0
2024-04-17 01:35:32			0	33169	0	0	0	17485	16150	158265	27152	952001	37202	106347	0	0	8115	799996	0	0
2024-04-17 01:36:32			0	33155	0	0	0	17485	16150	158469	27391	952028	37202	106347	0	0	8114	800721	0	0
2024-04-17 01:37:32			0	33154	0	0	0	17503	16150	158441	27357	951993	37212	106354	0	0	8114	800773	0	0
2024-04-17 01:38:32			0	33143	0	0	0	17480	16150	158437	27562	951993	37202	106345	0	0	8113	801344	0	0
2024-04-17 01:39:32			0	33127	0	0	0	17446	16150	158561	27543	951993	37202	106332	0	0	8113	802174	0	0
2024-04-17 01:40:32			0	33124	0	0	0	17449	16130	158585	27393	951890	37211	106333	0	0	8113	802417	0	0
2024-04-17 01:41:32			0	33119	0	0	0	17441	16140	158525	27504	951872	37211	106330	0	0	8113	802633	0	0
2024-04-17 01:42:32			0	33109	0	0	0	17436	16140	158541	27343	951898	37200	106328	0	0	8112	803153	0	0
2024-04-17 01:43:32			0	33124	0	0	0	17425	16130	158573	27604	951864	37200	106324	0	0	8113	802417	0	0
2024-04-17 01:44:32			0	33136	0	0	0	17428	16120	158565	27852	951821	37200	106325	0	0	8114	801837	0	0
2024-04-17 01:45:32			0	33140	0	0	0	17389	16110	158393	27208	951805	37199	106310	0	0	8115	801672	0	0
2024-04-17 01:46:32			0	33151	0	0	0	17399	16110	158429	27319	951665	37198	106314	0	0	8115	801102	0	0
2024-04-17 01:47:32			0	33186	0	0	0	17368	16100	158269	27208	951728	37197	106302	0	0	8118	799331	0	0
2024-04-17 01:48:32			0	33209	0	0	0	17374	16090	158349	27324	951632	37207	106304	0	0	8119	798184	0	0
2024-04-17 01:49:32			0	33219	0	0	0	17368	16080	158265	27123	951677	37185	106302	0	0	8120	797709	0	0
2024-04-17 01:50:32			0	33211	0	0	0	17363	16080	158193	27168	951651	37174	106300	0	0	8119	798123	0	0
2024-04-17 01:51:32			0	33198	0	0	0	17368	16070	158193	27353	951634	37207	106302	0	0	8118	798839	0	0
2024-04-17 01:52:32			0	33224	0	0	0	17376	16060	158133	26970	951584	37194	106305	0	0	8120	797537	0	0
2024-04-17 01:53:32			0	33206	0	0	0	17394	16060	158185	27291	951557	37183	106312	0	0	8118	798468	0	0
2024-04-17 01:54:32			0	33216	0	0	0	17402	16050	158209	27183	951628	37182	106315	0	0	8119	797994	0	0
2024-04-17 01:55:32			0	33205	0	0	0	17402	16060	158229	27324	951584	37205	106315	0	0	8118	798520	0	0
2024-04-17 01:56:32			0	33204	0	0	0	17399	16050	158241	26826	951707	37214	106314	0	0	8118	798615	0	0
2024-04-17 01:57:32			0	33205	0	0	0	17425	16060	158321	27293	951636	37194	106324	0	0	8118	798520	0	0
2024-04-17 01:58:32			0	33190	0	0	0	17431	16060	158325	27326	951697	37205	106326	0	0	8117	799296	0	0
2024-04-17 01:59:32			0	33186	0	0	0	17436	16060	158445	27417	951610	37205	106328	0	0	8116	799503	0	0
2024-04-17 02:00:32			0	33167	0	0	0	17423	16060	158469	27281	951663	37205	106323	0	0	8115	800488	0	0
2024-04-17 02:01:32			0	33152	0	0	0	17428	16060	158549	27390	951697	37205	106325	0	0	8114	801266	0	0
2024-04-17 02:02:32			0	33159	0	0	0	17454	16060	158489	27216	951724	37205	106335	0	0	8114	800903	0	0
2024-04-17 02:03:32			0	33150	0	0	0	17446	16060	158505	27267	951776	37215	106332	0	0	8114	801370	0	0
2024-04-17 02:04:32			0	33137	0	0	0	17444	16080	158569	26946	951827	37207	106331	0	0	8113	801958	0	0
2024-04-17 02:05:32			0	33155	0	0	0	17444	16080	158649	27126	951774	37228	106331	0	0	8114	801024	0	0
2024-04-17 02:06:32			0	33145	0	0	0	17431	16070	158641	27104	951792	37217	106326	0	0	8114	801586	0	0
2024-04-17 02:07:32			0	33154	0	0	0	17444	16080	158585	27407	951774	37207	106331	0	0	8114	801076	0	0
2024-04-17 02:08:32			0	33177	0	0	0	17457	16080	158517	27500	951756	37207	106336	0	0	8116	799883	0	0
2024-04-17 02:09:32			0	33158	0	0	0	17457	16080	158429	27313	951809	37218	106336	0	0	8114	800868	0	0
2024-04-17 02:10:32			0	33167	0	0	0	17459	16080	158553	27384	951730	37218	106337	0	0	8115	800402	0	0
2024-04-17 02:11:32			0	33172	0	0	0	17438	16080	158441	26944	951801	37207	106329	0	0	8116	800142	0	0
2024-04-17 02:12:32			0	33179	0	0	0	17425	16090	158501	27488	951790	37207	106324	0	0	8116	799736	0	0
2024-04-17 02:13:32			0	33186	0	0	0	17438	16080	158377	27088	951809	37218	106329	0	0	8116	799417	0	0
2024-04-17 02:14:32			0	33192	0	0	0	17441	16080	158257	26935	951782	37207	106330	0	0	8117	799106	0	0
2024-04-17 02:15:32			0	33187	0	0	0	17441	16080	158309	27166	951801	37217	106330	0	0	8116	799365	0	0
2024-04-17 02:16:32			0	33191	0	0	0	17428	16080	158269	27150	951782	37218	106325	0	0	8117	799158	0	0
2024-04-17 02:17:32			0	33196	0	0	0	17423	16080	158289	27493	951677	37218	106323	0	0	8117	798899	0	0
2024-04-17 02:18:32			0	33205	0	0	0	17423	16090	158305	27372	951738	37218	106323	0	0	8118	798390	0	0
2024-04-17 02:19:32			0	33202	0	0	0	17428	16080	158281	27020	951748	37217	106325	0	0	8118	798589	0	0
2024-04-17 02:20:32			0	33219	0	0	0	17412	16080	158217	27220	951748	37217	106319	0	0	8119	797709	0	0
2024-04-17 02:21:32			0	33228	0	0	0	17381	16080	158101	27078	951703	37196	106307	0	0	8120	797244	0	0
2024-04-17 02:22:32			0	33240	0	0	0	17366	16080	158081	27343	951695	37207	106301	0	0	8121	796624	0	0
2024-04-17 02:23:32			0	33247	0	0	0	17368	16070	158041	27244	951600	37206	106302	0	0	8121	796306	0	0
2024-04-17 02:24:32			0	33296	0	0	0	17368	16050	157797	27429	951602	37204	106302	0	0	8124	793865	0	0
2024-04-17 02:25:32			0	33340	0	0	0	17371	16050	157589	27225	951567	37204	106303	0	0	8127	791602	0	0
2024-04-17 02:26:32			0	33365	0	0	0	17350	16050	157417	27163	951549	37193	106295	0	0	8129	790319	0	0
2024-04-17 02:27:32			0	33358	0	0	0	17350	16050	157533	27180	951549	37204	106295	0	0	8128	790678	0	0
2024-04-17 02:28:32			0	33350	0	0	0	17342	16040	157513	27048	951578	37203	106292	0	0	8128	791132	0	0
2024-04-17 02:29:32			0	33328	0	0	0	17327	16040	157601	27213	951559	37203	106286	0	0	8127	792262	0	0
2024-04-17 02:30:32			0	33322	0	0	0	17322	16030	157689	27307	951543	37191	106284	0	0	8126	792613	0	0
2024-04-17 02:31:32			0	33305	0	0	0	17314	16040	157733	27306	951525	37192	106281	0	0	8125	793445	0	0
2024-04-17 02:32:32			0	33285	0	0	0	17322	16020	157877	27199	951440	37202	106284	0	0	8124	794561	0	0
2024-04-17 02:33:32			0	33281	0	0	0	17322	16020	157893	27474	951440	37190	106284	0	0	8124	794767	0	0
2024-04-17 02:34:32			0	33263	0	0	0	17311	16010	157893	27277	951458	37201	106280	0	0	8123	795738	0	0
2024-04-17 02:35:32			0	33292	0	0	0	17288	16000	157857	27144	951354	37188	106271	0	0	8125	794286	0	0
2024-04-17 02:36:32			0	33309	0	0	0	17290	16000	157841	27265	951416	37189	106272	0	0	8126	793410	0	0
2024-04-17 02:37:32			0	33309	0	0	0	17283	16000	157869	27104	951337	37200	106269	0	0	8126	793410	0	0
2024-04-17 02:38:32			0	33310	0	0	0	17290	15990	157893	27007	951312	37177	106272	0	0	8126	793402	0	0
2024-04-17 02:39:32			0	33268	0	0	0	17270	15990	158005	27161	951294	37177	106264	0	0	8124	795566	0	0
2024-04-17 02:40:32			0	33244	0	0	0	17264	15980	158105	27303	951322	37186	106262	0	0	8122	796848	0	0
2024-04-17 02:41:32			0	33241	0	0	0	17275	15970	158157	27041	951235	37198	106266	0	0	8122	797046	0	0
2024-04-17 02:42:32			0	33266	0	0	0	17264	15970	158101	26928	951235	37186	106262	0	0	8124	795755	0	0
2024-04-17 02:43:32			0	33241	0	0	0	17267	15970	158109	26981	951227	37197	106263	0	0	8122	797046	0	0
2024-04-17 02:44:32			0	33231	0	0	0	17270	15970	158181	27312	951253	37186	106264	0	0	8121	797563	0	0
2024-04-17 02:45:32			0	33242	0	0	0	17280	15960	158169	27562	951271	37186	106268	0	0	8122	797037	0	0
2024-04-17 02:46:32			0	33238	0	0	0	17280	15960	158145	27092	951290	37196	106268	0	0	8122	797244	0	0
2024-04-17 02:47:32			0	33247	0	0	0	17296	15960	158181	27249	951298	37186	106274	0	0	8122	796779	0	0
2024-04-17 02:48:32			0	33274	0	0	0	17288	15960	158001	27400	951316	37185	106271	0	0	8124	795385	0	0
2024-04-17 02:49:32			0	33287	0	0	0	17277	15960	157981	27202	951298	37186	106267	0	0	8125	794715	0	0
2024-04-17 02:50:32			0	33300	0	0	0	17296	15950	157937	27312	951255	37196	106274	0	0	8125	794088	0	0
2024-04-17 02:51:32			0	33330	0	0	0	17311	15950	157805	27163	951308	37174	106280	0	0	8127	792544	0	0
2024-04-17 02:52:32			0	33332	0	0	0	17298	15960	157753	27208	951316	37207	106275	0	0	8127	792398	0	0
2024-04-17 02:53:32			0	33338	0	0	0	17290	15960	157785	27383	951350	37197	106272	0	0	8127	792090	0	0
2024-04-17 02:54:32			0	33348	0	0	0	17290	15960	157785	27809	951290	37185	106272	0	0	8128	791576	0	0
2024-04-17 02:55:32			0	33339	0	0	0	17296	15960	157817	27194	951245	37197	106274	0	0	8127	792038	0	0
2024-04-17 02:56:32			0	33347	0	0	0	17288	15960	157737	27327	951245	37197	106271	0	0	8128	791627	0	0
2024-04-17 02:57:32			0	33369	0	0	0	17298	15960	157601	27140	951342	37196	106275	0	0	8129	790497	0	0
2024-04-17 02:58:32			0	33380	0	0	0	17280	15960	157549	27159	951290	37185	106268	0	0	8130	789933	0	0
2024-04-17 02:59:32			0	33371	0	0	0	17288	15950	157549	27173	951282	37185	106271	0	0	8129	790437	0	0
2024-04-17 03:00:32			0	33369	0	0	0	17285	15960	157477	27419	951263	37185	106270	0	0	8129	790497	0	0
2024-04-17 03:01:32			0	33389	0	0	0	17285	15960	157445	26946	951290	37185	106270	0	0	8131	789472	0	0
2024-04-17 03:02:32			0	33393	0	0	0	17293	15950	157345	27509	951273	37173	106273	0	0	8131	789309	0	0
2024-04-17 03:03:32			0	33404	0	0	0	17288	15950	157337	27378	951221	37195	106271	0	0	8131	788745	0	0
2024-04-17 03:04:32			0	33403	0	0	0	17301	15950	157245	27393	951282	37185	106276	0	0	8131	788797	0	0
2024-04-17 03:05:32			0	33409	0	0	0	17301	15950	157365	27300	951282	37185	106276	0	0	8131	788489	0	0
2024-04-17 03:06:32			0	33423	0	0	0	17298	15950	157261	27092	951308	37185	106275	0	0	8132	787773	0	0
2024-04-17 03:07:32			0	33434	0	0	0	17293	15960	157273	27450	951298	37186	106273	0	0	8133	787168	0	0
2024-04-17 03:08:32			0	33433	0	0	0	17290	15950	157361	27409	951282	37185	106272	0	0	8133	787261	0	0
2024-04-17 03:09:32			0	33432	0	0	0	17275	15950	157377	27039	951229	37185	106266	0	0	8133	787312	0	0
2024-04-17 03:10:32			0	33407	0	0	0	17280	15940	157405	27265	951213	37195	106268	0	0	8132	788634	0	0
2024-04-17 03:11:32			0	33395	0	0	0	17288	15960	157509	27020	951263	37185	106271	0	0	8131	789164	0	0
2024-04-17 03:12:32			0	33419	0	0	0	17272	15940	157421	27289	951292	37195	106265	0	0	8133	788020	0	0
2024-04-17 03:13:32			0	33379	0	0	0	17283	15940	157377	27298	951239	37184	106269	0	0	8130	790070	0	0
2024-04-17 03:14:32			0	33378	0	0	0	17277	15950	157605	27339	951326	37184	106267	0	0	8130	790078	0	0
2024-04-17 03:15:32			0	33356	0	0	0	17285	15950	157701	27345	951247	37195	106270	0	0	8129	791208	0	0
2024-04-17 03:16:32			0	33341	0	0	0	17293	15950	157717	27355	951194	37184	106273	0	0	8128	791978	0	0
2024-04-17 03:17:32			0	33318	0	0	0	17298	15950	157845	27227	951221	37195	106275	0	0	8126	793161	0	0
2024-04-17 03:18:32			0	33286	0	0	0	17298	15940	157985	27464	951292	37195	106275	0	0	8124	794852	0	0
2024-04-17 03:19:32			0	33260	0	0	0	17296	15950	158085	27504	951273	37195	106274	0	0	8123	796150	0	0
2024-04-17 03:20:32			0	33276	0	0	0	17309	15950	158089	27112	951194	37206	106279	0	0	8123	795325	0	0
2024-04-17 03:21:32			0	33239	0	0	0	17311	15960	158149	27274	951290	37185	106280	0	0	8121	797192	0	0
2024-04-17 03:22:32			0	33233	0	0	0	17309	15950	158285	27386	951326	37184	106279	0	0	8121	797545	0	0
2024-04-17 03:23:32			0	33243	0	0	0	17288	15950	158365	27336	951273	37195	106271	0	0	8122	797028	0	0
2024-04-17 03:24:32			0	33244	0	0	0	17301	15950	158225	27324	951255	37185	106276	0	0	8122	796977	0	0
2024-04-17 03:25:32			0	33262	0	0	0	17314	15940	158141	27215	951265	37206	106281	0	0	8122	796090	0	0
2024-04-17 03:26:32			0	33262	0	0	0	17298	15950	158177	27384	951255	37207	106275	0	0	8123	796047	0	0
2024-04-17 03:27:32			0	33253	0	0	0	17285	15950	158121	26998	951334	37185	106270	0	0	8122	796512	0	0
2024-04-17 03:28:32			0	33277	0	0	0	17309	15950	157973	27369	951273	37173	106279	0	0	8123	795273	0	0
2024-04-17 03:29:32			0	33279	0	0	0	17311	15960	158013	27365	951316	37207	106280	0	0	8124	795127	0	0
2024-04-17 03:30:32			0	33242	0	0	0	17298	15950	158117	27201	951273	37195	106275	0	0	8122	797080	0	0
2024-04-17 03:31:32			0	33244	0	0	0	17301	15950	158305	27265	951247	37195	106276	0	0	8122	796977	0	0
2024-04-17 03:32:32			0	33236	0	0	0	17288	15960	158253	27206	951316	37185	106271	0	0	8121	797347	0	0
2024-04-17 03:33:32			0	33248	0	0	0	17303	15940	158245	27358	951265	37206	106277	0	0	8122	796813	0	0
2024-04-17 03:34:32			0	33232	0	0	0	17296	15950	158277	27263	951282	37185	106274	0	0	8121	797597	0	0
2024-04-17 03:35:32			0	33256	0	0	0	17298	15950	158213	27317	951334	37196	106275	0	0	8122	796357	0	0
2024-04-17 03:36:32			0	33270	0	0	0	17303	15950	158057	27301	951282	37196	106277	0	0	8123	795634	0	0
2024-04-17 03:37:32			0	33261	0	0	0	17298	15950	158073	27138	951273	37195	106275	0	0	8123	796099	0	0
2024-04-17 03:38:32			0	33261	0	0	0	17303	15950	158173	26996	951308	37196	106277	0	0	8123	796099	0	0
2024-04-17 03:39:32			0	33257	0	0	0	17303	15950	158141	27452	951300	37195	106277	0	0	8122	796305	0	0
2024-04-17 03:40:32			0	33258	0	0	0	17311	15960	158049	27386	951316	37196	106280	0	0	8122	796211	0	0
2024-04-17 03:41:32			0	33235	0	0	0	17332	15960	158181	27516	951342	37196	106288	0	0	8121	797399	0	0
2024-04-17 03:42:32			0	33235	0	0	0	17324	15950	158209	27571	951334	37217	106285	0	0	8121	797442	0	0
2024-04-17 03:43:32			0	33209	0	0	0	17316	15960	158325	27341	951350	37197	106282	0	0	8119	798744	0	0
2024-04-17 03:44:32			0	33212	0	0	0	17353	15970	158341	27421	951385	37197	106296	0	0	8119	798545	0	0
2024-04-17 03:45:32			0	33194	0	0	0	17392	15970	158393	27422	951385	37208	106311	0	0	8117	799477	0	0
2024-04-17 03:46:32			0	33157	0	0	0	17379	15970	158621	27355	951411	37197	106306	0	0	8115	801395	0	0
2024-04-17 03:47:32			0	33121	0	0	0	17374	15980	158653	27376	951401	37219	106304	0	0	8113	803222	0	0
2024-04-17 03:48:32			0	33106	0	0	0	17399	15970	158853	27457	951472	37219	106314	0	0	8112	804046	0	0
2024-04-17 03:49:32			0	33103	0	0	0	17407	15990	158945	27554	951496	37209	106317	0	0	8111	804115	0	0
2024-04-17 03:50:32			0	33087	0	0	0	17405	15990	158921	27313	951523	37209	106316	0	0	8111	804948	0	0
2024-04-17 03:51:32			0	33093	0	0	0	17402	16000	158841	27116	951565	37209	106315	0	0	8111	804593	0	0
2024-04-17 03:52:32			0	33085	0	0	0	17405	16010	158869	27258	951582	37222	106316	0	0	8111	804966	0	0
2024-04-17 03:53:32			0	33076	0	0	0	17392	16000	158865	27182	951513	37209	106311	0	0	8110	805478	0	0
2024-04-17 03:54:32			0	33095	0	0	0	17381	16000	158813	27079	951565	37209	106307	0	0	8111	804488	0	0
2024-04-17 03:55:32			0	33097	0	0	0	17361	16010	158813	27119	951503	37201	106299	0	0	8112	804341	0	0
2024-04-17 03:56:32			0	33108	0	0	0	17379	16000	158745	27371	951521	37200	106306	0	0	8112	803812	0	0
2024-04-17 03:57:32			0	33102	0	0	0	17335	16000	158777	27107	951513	37209	106289	0	0	8113	804124	0	0
2024-04-17 03:58:32			0	33095	0	0	0	17350	16000	158889	27092	951468	37200	106295	0	0	8112	804488	0	0
2024-04-17 03:59:32			0	33095	0	0	0	17374	15990	158789	26739	951478	37209	106304	0	0	8112	804532	0	0
2024-04-17 04:00:32			0	33061	0	0	0	17355	16000	158933	27083	951468	37200	106297	0	0	8110	806260	0	0
2024-04-17 04:01:32			0	33060	0	0	0	17342	16000	159001	27043	951513	37188	106292	0	0	8110	806312	0	0
2024-04-17 04:02:32			0	33031	0	0	0	17379	15990	159125	27142	951531	37188	106306	0	0	8108	807870	0	0
2024-04-17 04:03:32			0	33009	0	0	0	17342	16010	159201	27090	951511	37222	106292	0	0	8107	808933	0	0
2024-04-17 04:04:32			0	33004	0	0	0	17355	16000	159253	27222	951486	37209	106297	0	0	8106	809238	0	0
2024-04-17 04:05:32			0	32993	0	0	0	17374	15990	159301	27052	951452	37199	106304	0	0	8105	809857	0	0
2024-04-17 04:06:32			0	32998	0	0	0	17322	16000	159309	27064	951460	37209	106284	0	0	8107	809552	0	0
2024-04-17 04:07:32			0	32963	0	0	0	17306	15990	159489	27090	951452	37188	106278	0	0	8105	811429	0	0
2024-04-17 04:08:32			0	32923	0	0	0	17267	15980	159677	27079	951348	37198	106263	0	0	8103	813573	0	0
2024-04-17 04:09:32			0	32905	0	0	0	17267	15970	159869	27369	951261	37208	106263	0	0	8102	814563	0	0
2024-04-17 04:10:32			0	32868	0	0	0	17270	15960	159885	27229	951219	37197	106264	0	0	8099	816555	0	0
2024-04-17 04:11:32			0	32880	0	0	0	17272	15960	159897	27029	951298	37197	106265	0	0	8100	815923	0	0
2024-04-17 04:12:32			0	32890	0	0	0	17267	15950	159817	27421	951326	37184	106263	0	0	8101	815440	0	0
2024-04-17 04:13:32			0	32895	0	0	0	17275	15950	159877	27306	951273	37195	106266	0	0	8101	815177	0	0
2024-04-17 04:14:32			0	32898	0	0	0	17233	15940	159889	27377	951178	37194	106250	0	0	8102	815063	0	0
2024-04-17 04:15:32			0	32884	0	0	0	17277	15940	159877	27118	951231	37183	106267	0	0	8100	815800	0	0
2024-04-17 04:16:32			0	32865	0	0	0	17244	15940	159969	27201	951205	37194	106254	0	0	8100	816801	0	0
2024-04-17 04:17:32			0	32869	0	0	0	17231	15930	160021	27519	951162	37193	106249	0	0	8100	816635	0	0
2024-04-17 04:18:32			0	32826	0	0	0	17228	15920	160173	27486	951146	37193	106248	0	0	8097	818948	0	0
2024-04-17 04:19:32			0	32808	0	0	0	17225	15920	160241	27222	951146	37193	106247	0	0	8096	819900	0	0
2024-04-17 04:20:32			0	32813	0	0	0	17215	15910	160245	27246	951059	37203	106243	0	0	8097	819680	0	0
2024-04-17 04:21:32			0	32811	0	0	0	17231	15910	160361	27220	951085	37192	106249	0	0	8096	819786	0	0
2024-04-17 04:22:32			0	32817	0	0	0	17236	15900	160317	27434	951087	37191	106251	0	0	8096	819512	0	0
2024-04-17 04:23:32			0	32842	0	0	0	17244	15900	160221	27552	951069	37213	106254	0	0	8098	818192	0	0
2024-04-17 04:24:32			0	32838	0	0	0	17283	15900	160197	27112	951113	37191	106269	0	0	8097	818403	0	0
2024-04-17 04:25:32			0	32849	0	0	0	17267	15900	160301	27105	951140	37191	106263	0	0	8098	817822	0	0
2024-04-17 04:26:32			0	32884	0	0	0	17270	15910	160049	27066	951156	37192	106264	0	0	8100	815932	0	0
2024-04-17 04:27:32			0	32888	0	0	0	17288	15900	160009	27159	951174	37192	106271	0	0	8100	815765	0	0
2024-04-17 04:28:32			0	32899	0	0	0	17267	15910	159913	27027	951156	37203	106263	0	0	8101	815142	0	0
2024-04-17 04:29:32			0	32914	0	0	0	17251	15900	159941	27069	951174	37203	106257	0	0	8102	814397	0	0
2024-04-17 04:30:32			0	32934	0	0	0	17244	15910	159845	26904	951103	37192	106254	0	0	8104	813302	0	0
2024-04-17 04:31:32			0	32946	0	0	0	17241	15910	159581	27312	951138	37203	106253	0	0	8104	812671	0	0
2024-04-17 04:32:32			0	32960	0	0	0	17254	15900	159581	27057	951113	37191	106258	0	0	8105	811980	0	0
2024-04-17 04:33:32			0	32971	0	0	0	17267	15910	159601	27118	951130	37203	106263	0	0	8105	811359	0	0
2024-04-17 04:34:32			0	32978	0	0	0	17285	15910	159521	27334	951103	37203	106270	0	0	8106	810993	0	0
2024-04-17 04:35:32			0	32982	0	0	0	17275	15910	159605	26826	951217	37203	106266	0	0	8106	810783	0	0
2024-04-17 04:36:32			0	32990	0	0	0	17254	15910	159533	26864	951209	37203	106258	0	0	8107	810364	0	0
2024-04-17 04:37:32			0	32995	0	0	0	17254	15910	159401	27159	951156	37192	106258	0	0	8107	810102	0	0
2024-04-17 04:38:32			0	33015	0	0	0	17233	15910	159325	27093	951103	37170	106250	0	0	8109	809055	0	0
2024-04-17 04:39:32			0	33023	0	0	0	17236	15900	159321	27121	951148	37192	106251	0	0	8109	808680	0	0
2024-04-17 04:40:32			0	33022	0	0	0	17244	15900	159241	27234	951122	37192	106254	0	0	8109	808732	0	0
2024-04-17 04:41:32			0	33021	0	0	0	17244	15900	159325	26800	951148	37192	106254	0	0	8109	808785	0	0
2024-04-17 04:42:32			0	33022	0	0	0	17249	15900	159321	27208	951095	37192	106256	0	0	8109	808732	0	0
2024-04-17 04:43:32			0	33013	0	0	0	17228	15900	159425	27081	951113	37202	106248	0	0	8109	809203	0	0
2024-04-17 04:44:32			0	32994	0	0	0	17231	15900	159517	27168	951095	37203	106249	0	0	8107	810198	0	0
2024-04-17 04:45:32			0	32990	0	0	0	17218	15900	159449	27353	951087	37202	106244	0	0	8107	810407	0	0
2024-04-17 04:46:32			0	33019	0	0	0	17199	15900	159393	27350	951061	37169	106237	0	0	8109	808889	0	0
2024-04-17 04:47:32			0	33012	0	0	0	17212	15890	159341	27182	951045	37179	106242	0	0	8109	809299	0	0
2024-04-17 04:48:32			0	33025	0	0	0	17168	15880	159261	27592	951028	37189	106225	0	0	8110	808663	0	0
2024-04-17 04:49:32			0	33035	0	0	0	17184	15870	159209	27157	950994	37177	106231	0	0	8111	808184	0	0
2024-04-17 04:50:32			0	33049	0	0	0	17174	15880	159133	27050	950949	37200	106227	0	0	8112	807409	0	0
2024-04-17 04:51:32			0	33071	0	0	0	17155	15860	159129	27338	950907	37177	106220	0	0	8113	806347	0	0
2024-04-17 04:52:32			0	33077	0	0	0	17168	15860	159045	27317	950880	37177	106225	0	0	8113	806034	0	0
2024-04-17 04:53:32			0	33089	0	0	0	17158	15850	159037	27601	950882	37176	106221	0	0	8114	805452	0	0
2024-04-17 04:54:32			0	33102	0	0	0	17155	15840	158993	27696	950866	37186	106220	0	0	8115	804818	0	0
2024-04-17 04:55:32			0	33115	0	0	0	17148	15840	159113	27194	950866	37186	106217	0	0	8116	804141	0	0
2024-04-17 04:56:32			0	33111	0	0	0	17163	15830	158901	27079	950858	37175	106223	0	0	8115	804393	0	0
2024-04-17 04:57:32			0	33092	0	0	0	17197	15830	158997	27280	950832	37186	106236	0	0	8114	805383	0	0
2024-04-17 04:58:32			0	33077	0	0	0	17205	15830	159109	27431	950858	37175	106239	0	0	8113	806165	0	0
2024-04-17 04:59:32			0	33058	0	0	0	17228	15840	159185	27027	950892	37197	106248	0	0	8111	807113	0	0
2024-04-17 05:00:32			0	33048	0	0	0	17218	15840	159229	26935	950892	37175	106244	0	0	8111	807635	0	0
2024-04-17 05:01:32			0	33032	0	0	0	17212	15840	159361	26987	950892	37197	106242	0	0	8110	808471	0	0
2024-04-17 05:02:32			0	33025	0	0	0	17228	15830	159401	26998	950902	37185	106248	0	0	8109	808881	0	0
2024-04-17 05:03:32			0	33009	0	0	0	17228	15840	159601	26819	950945	37208	106248	0	0	8108	809675	0	0
2024-04-17 05:04:32			0	32979	0	0	0	17228	15830	159505	27159	950911	37197	106248	0	0	8106	811290	0	0
2024-04-17 05:05:32			0	32969	0	0	0	17257	15840	159685	27459	950892	37186	106259	0	0	8105	811771	0	0
2024-04-17 05:06:32			0	32949	0	0	0	17275	15830	159737	27064	950937	37186	106266	0	0	8104	812864	0	0
2024-04-17 05:07:32			0	32952	0	0	0	17194	15840	159717	27440	950927	37186	106235	0	0	8105	812663	0	0
2024-04-17 05:08:32			0	32955	0	0	0	17233	15840	159789	27379	950900	37186	106250	0	0	8105	812505	0	0
2024-04-17 05:09:32			0	32940	0	0	0	17275	15850	159777	27360	951022	37199	106266	0	0	8103	813249	0	0
2024-04-17 05:10:32			0	32949	0	0	0	17270	15850	159793	27498	950988	37208	106264	0	0	8104	812777	0	0
2024-04-17 05:11:32			0	32955	0	0	0	17272	15850	159689	27400	951048	37199	106265	0	0	8104	812461	0	0
2024-04-17 05:12:32			0	32945	0	0	0	17251	15850	159697	27046	950996	37188	106257	0	0	8104	812987	0	0
2024-04-17 05:13:32			0	32947	0	0	0	17225	15850	159789	27835	950890	37188	106247	0	0	8104	812882	0	0
2024-04-17 05:14:32			0	32938	0	0	0	17231	15850	159829	27218	950909	37187	106249	0	0	8104	813354	0	0
2024-04-17 05:15:32			0	32933	0	0	0	17225	15840	159725	27602	950927	37197	106247	0	0	8103	813661	0	0
2024-04-17 05:16:32			0	32950	0	0	0	17205	15840	159653	27298	950919	37208	106239	0	0	8105	812768	0	0
2024-04-17 05:17:32			0	32996	0	0	0	17096	15850	159545	27618	950830	37198	106197	0	0	8110	810312	0	0
2024-04-17 05:18:32			0	32971	0	0	0	17153	15830	159585	27777	950779	37197	106219	0	0	8107	811709	0	0
2024-04-17 05:19:32			0	32995	0	0	0	17161	15820	159557	27258	950789	37173	106222	0	0	8108	810495	0	0
2024-04-17 05:20:32			0	32994	0	0	0	17161	15820	159577	27244	950789	37173	106222	0	0	8108	810547	0	0
2024-04-17 05:21:32			0	32961	0	0	0	17161	15820	159673	27398	950807	37196	106222	0	0	8106	812278	0	0
2024-04-17 05:22:32			0	32938	0	0	0	17148	15810	159733	27563	950791	37195	106217	0	0	8105	813530	0	0
2024-04-17 05:23:32			0	32928	0	0	0	17085	15820	159761	27272	950728	37207	106193	0	0	8105	814012	0	0
2024-04-17 05:24:32			0	32891	0	0	0	17090	15800	159849	27227	950730	37172	106195	0	0	8103	816047	0	0
2024-04-17 05:25:32			0	32873	0	0	0	17103	15800	160009	27402	950670	37182	106200	0	0	8102	816996	0	0
2024-04-17 05:26:32			0	32869	0	0	0	17083	15790	160205	27336	950714	37182	106192	0	0	8102	817251	0	0
2024-04-17 05:27:32			0	32803	0	0	0	17132	15780	160421	27395	950619	37181	106211	0	0	8097	820784	0	0
2024-04-17 05:28:32			0	32791	0	0	0	17189	15780	160525	27348	950637	37191	106233	0	0	8095	821419	0	0
2024-04-17 05:29:32			0	32788	0	0	0	17103	15780	160529	27524	950698	37181	106200	0	0	8096	821578	0	0
2024-04-17 05:30:32			0	32779	0	0	0	17163	15790	160685	27268	950688	37204	106223	0	0	8095	822011	0	0
2024-04-17 05:31:32			0	32750	0	0	0	17189	15790	160724	27753	950759	37193	106233	0	0	8093	823550	0	0
2024-04-17 05:32:32			0	32771	0	0	0	17270	15800	160844	27481	950801	37193	106264	0	0	8093	822391	0	0
2024-04-17 05:33:32			0	32775	0	0	0	17259	15810	160652	27312	950896	37195	106260	0	0	8093	822135	0	0
2024-04-17 05:34:32			0	32783	0	0	0	17246	15820	160513	27611	950939	37184	106255	0	0	8094	821666	0	0
2024-04-17 05:35:32			0	32791	0	0	0	17236	15830	160545	27459	950955	37196	106251	0	0	8095	821198	0	0
2024-04-17 05:36:32			0	32800	0	0	0	17283	15830	160485	27388	950955	37196	106269	0	0	8094	820721	0	0
2024-04-17 05:37:32			0	32814	0	0	0	17264	15830	160409	27547	951016	37208	106262	0	0	8095	819981	0	0
2024-04-17 05:38:32			0	32791	0	0	0	17262	15830	160389	27313	951016	37229	106261	0	0	8094	821198	0	0
2024-04-17 05:39:32			0	32835	0	0	0	17238	15840	160369	27540	950998	37197	106252	0	0	8097	818826	0	0
2024-04-17 05:40:32			0	32829	0	0	0	17225	15850	160357	27497	950988	37198	106247	0	0	8097	819099	0	0
2024-04-17 05:41:32			0	32823	0	0	0	17251	15840	160341	27414	950979	37208	106257	0	0	8096	819460	0	0
2024-04-17 05:42:32			0	32813	0	0	0	17236	15850	160265	27367	950988	37198	106251	0	0	8096	819945	0	0
2024-04-17 05:43:32			0	32805	0	0	0	17233	15860	160321	27265	951004	37220	106250	0	0	8096	820324	0	0
2024-04-17 05:44:32			0	32814	0	0	0	17241	15850	160389	27720	951014	37198	106253	0	0	8096	819892	0	0
2024-04-17 05:45:32			0	32813	0	0	0	17220	15850	160413	27400	951022	37209	106245	0	0	8096	819945	0	0
2024-04-17 05:46:32			0	32789	0	0	0	17199	15850	160505	27281	950943	37209	106237	0	0	8095	821215	0	0
2024-04-17 05:47:32			0	32785	0	0	0	17192	15840	160625	27435	950953	37197	106234	0	0	8095	821472	0	0
2024-04-17 05:48:32			0	32789	0	0	0	17215	15850	160581	27303	950943	37188	106243	0	0	8095	821215	0	0
2024-04-17 05:49:32			0	32777	0	0	0	17254	15860	160652	27602	950977	37209	106258	0	0	8094	821807	0	0
2024-04-17 05:50:32			0	32757	0	0	0	17212	15840	160664	27505	950979	37197	106242	0	0	8093	822956	0	0
2024-04-17 05:51:32			0	32753	0	0	0	17233	15850	160716	27390	950882	37198	106250	0	0	8092	823124	0	0
2024-04-17 05:52:32			0	32787	0	0	0	17231	15840	160677	27215	951006	37208	106249	0	0	8094	821366	0	0
2024-04-17 05:53:32			0	32768	0	0	0	17174	15840	160636	27289	950840	37208	106227	0	0	8094	822373	0	0
2024-04-17 05:54:32			0	32749	0	0	0	17122	15830	160672	27128	950832	37208	106207	0	0	8094	823425	0	0
2024-04-17 05:55:32			0	32746	0	0	0	17106	15830	160756	27590	950753	37197	106201	0	0	8094	823585	0	0
2024-04-17 05:56:32			0	32748	0	0	0	17158	15820	160884	27543	950781	37184	106221	0	0	8093	823523	0	0
2024-04-17 05:57:32			0	32725	0	0	0	17106	15810	160812	27343	950826	37184	106201	0	0	8093	824790	0	0
2024-04-17 05:58:32			0	32689	0	0	0	17083	15810	161020	27358	950694	37173	106192	0	0	8091	826705	0	0
2024-04-17 05:59:32			0	32655	0	0	0	17059	15800	161080	27237	950643	37171	106183	0	0	8089	828563	0	0
2024-04-17 06:00:32			0	32646	0	0	0	17064	15790	161380	27409	950609	37182	106185	0	0	8088	829088	0	0
2024-04-17 06:01:32			0	32642	0	0	0	17080	15780	161332	27376	950611	37180	106191	0	0	8088	829346	0	0
2024-04-17 06:02:32			0	32639	0	0	0	17085	15770	161320	27422	950550	37180	106193	0	0	8087	829551	0	0
2024-04-17 06:03:32			0	32640	0	0	0	17049	15770	161260	27734	950524	37180	106179	0	0	8088	829498	0	0
2024-04-17 06:04:32			0	32662	0	0	0	17059	15770	161216	27492	950568	37180	106183	0	0	8089	828323	0	0
2024-04-17 06:05:32			0	32672	0	0	0	17033	15760	161276	27757	950508	37168	106173	0	0	8090	827834	0	0
2024-04-17 06:06:32			0	32676	0	0	0	17057	15750	161248	27739	950430	37179	106182	0	0	8090	827666	0	0
2024-04-17 06:07:32			0	32704	0	0	0	17049	15750	161108	27609	950509	37190	106179	0	0	8092	826174	0	0
2024-04-17 06:08:32			0	32704	0	0	0	17064	15740	161084	27381	950467	37177	106185	0	0	8092	826218	0	0
2024-04-17 06:09:32			0	32716	0	0	0	17038	15740	161208	27377	950475	37167	106175	0	0	8093	825579	0	0
2024-04-17 06:10:32			0	32729	0	0	0	17054	15730	161060	27585	950459	37176	106181	0	0	8093	824932	0	0
2024-04-17 06:11:32			0	32703	0	0	0	17041	15730	161012	27377	950451	37176	106176	0	0	8092	826316	0	0
2024-04-17 06:12:32			0	32717	0	0	0	17031	15730	161044	27301	950398	37166	106172	0	0	8093	825571	0	0
2024-04-17 06:13:32			0	32733	0	0	0	17015	15720	160928	27436	950364	37176	106166	0	0	8094	824764	0	0
2024-04-17 06:14:32			0	32726	0	0	0	17015	15720	160940	27256	950337	37166	106166	0	0	8094	825136	0	0
2024-04-17 06:15:32			0	32744	0	0	0	17018	15720	160960	27452	950311	37176	106167	0	0	8095	824179	0	0
2024-04-17 06:16:32			0	32761	0	0	0	17015	15720	160876	27434	950250	37186	106166	0	0	8096	823276	0	0
2024-04-17 06:17:32			0	32738	0	0	0	17010	15720	160808	27265	950276	37175	106164	0	0	8095	824498	0	0
2024-04-17 06:18:32			0	32744	0	0	0	17033	15700	160876	27150	950323	37152	106173	0	0	8094	824268	0	0
2024-04-17 06:19:32			0	32731	0	0	0	17025	15690	160964	27466	950341	37163	106170	0	0	8094	825004	0	0
2024-04-17 06:20:32			0	32734	0	0	0	17012	15710	160888	27057	950392	37186	106165	0	0	8094	824755	0	0
2024-04-17 06:21:32			0	32736	0	0	0	17007	15700	161052	26993	950357	37174	106163	0	0	8094	824693	0	0
2024-04-17 06:22:32			0	32713	0	0	0	16992	15700	160884	27339	950323	37185	106157	0	0	8093	825917	0	0
2024-04-17 06:23:32			0	32715	0	0	0	16994	15690	161064	27088	950236	37173	106158	0	0	8093	825855	0	0
2024-04-17 06:24:32			0	32719	0	0	0	17002	15680	160996	27227	950325	37173	106161	0	0	8093	825686	0	0
2024-04-17 06:25:32			0	32714	0	0	0	16999	15690	161032	27395	950281	37173	106160	0	0	8093	825908	0	0
2024-04-17 06:26:32			0	32727	0	0	0	16997	15680	161000	27201	950220	37173	106159	0	0	8094	825261	0	0
2024-04-17 06:27:32			0	32732	0	0	0	16989	15670	160912	27331	950204	37182	106156	0	0	8094	825039	0	0
2024-04-17 06:28:32			0	32730	0	0	0	16997	15680	160996	27281	950264	37172	106159	0	0	8094	825101	0	0
2024-04-17 06:29:32			0	32733	0	0	0	16986	15680	161072	27218	950220	37173	106155	0	0	8094	824942	0	0
2024-04-17 06:30:32			0	32724	0	0	0	16999	15670	161028	26977	950230	37171	106160	0	0	8094	825465	0	0
2024-04-17 06:31:32			0	32725	0	0	0	16989	15670	161056	27246	950204	37171	106156	0	0	8094	825412	0	0
2024-04-17 06:32:32			0	32742	0	0	0	16976	15660	160992	27498	950187	37182	106151	0	0	8095	824552	0	0
2024-04-17 06:33:32			0	32713	0	0	0	16974	15660	161124	27492	950135	37160	106150	0	0	8093	826095	0	0
2024-04-17 06:34:32			0	32725	0	0	0	16966	15670	161060	26982	950116	37170	106147	0	0	8094	825412	0	0
2024-04-17 06:35:32			0	32714	0	0	0	16961	15660	160984	27421	950108	37170	106145	0	0	8094	826041	0	0
2024-04-17 06:36:32			0	32687	0	0	0	16961	15670	161224	27677	950151	37171	106145	0	0	8092	827436	0	0
2024-04-17 06:37:32			0	32707	0	0	0	16929	15650	161192	27291	950013	37159	106133	0	0	8094	826459	0	0
2024-04-17 06:38:32			0	32700	0	0	0	16914	15650	161236	27137	950005	37169	106127	0	0	8093	826832	0	0
2024-04-17 06:39:32			0	32665	0	0	0	16906	15630	161280	27220	949981	37158	106124	0	0	8091	828788	0	0
2024-04-17 06:40:32			0	32656	0	0	0	16919	15620	161508	27178	949938	37167	106129	0	0	8091	829313	0	0
2024-04-17 06:41:32			0	32633	0	0	0	16888	15630	161516	27485	949946	37167	106117	0	0	8090	830498	0	0
2024-04-17 06:42:32			0	32623	0	0	0	16916	15610	161668	27493	949975	37156	106128	0	0	8088	831122	0	0
2024-04-17 06:43:32			0	32617	0	0	0	16994	15620	161580	27300	949956	37157	106158	0	0	8087	831399	0	0
2024-04-17 06:44:32			0	32711	0	0	0	17072	15630	161340	27435	950183	37167	106188	0	0	8091	826335	0	0
2024-04-17 06:45:32			0	32777	0	0	0	17088	15640	160789	27351	950226	37191	106194	0	0	8095	822782	0	0
2024-04-17 06:46:32			0	32858	0	0	0	17018	15660	160485	27258	950266	37182	106167	0	0	8102	818404	0	0
2024-04-17 06:47:32			0	32873	0	0	0	17044	15650	160405	27537	950277	37170	106177	0	0	8102	817656	0	0
2024-04-17 06:48:32			0	32886	0	0	0	16968	15660	160285	27609	950258	37170	106148	0	0	8104	816927	0	0
2024-04-17 06:49:32			0	32870	0	0	0	16893	15650	160345	27725	950119	37159	106119	0	0	8104	817815	0	0
2024-04-17 06:50:32			0	32838	0	0	0	16999	15650	160493	27215	950137	37148	106160	0	0	8101	819506	0	0
2024-04-17 06:51:32			0	32875	0	0	0	17098	15650	160349	27455	950242	37169	106198	0	0	8101	817551	0	0
2024-04-17 06:52:32			0	32983	0	0	0	17083	15660	159965	27796	950390	37193	106192	0	0	8108	811823	0	0
2024-04-17 06:53:32			0	33016	0	0	0	17142	15690	159665	27717	950465	37184	106215	0	0	8109	809962	0	0
2024-04-17 06:54:32			0	33072	0	0	0	17161	15700	159329	27225	950481	37196	106222	0	0	8112	806991	0	0
2024-04-17 06:55:32			0	33106	0	0	0	17189	15710	159205	27345	950611	37197	106233	0	0	8114	805174	0	0
2024-04-17 06:56:32			0	33142	0	0	0	17114	15730	159021	27483	950669	37187	106204	0	0	8118	803213	0	0
2024-04-17 06:57:32			0	33148	0	0	0	17158	15740	159089	27706	950625	37188	106221	0	0	8117	802858	0	0
2024-04-17 06:58:32			0	33174	0	0	0	17161	15750	158901	27369	950694	37201	106222	0	0	8119	801464	0	0
2024-04-17 06:59:32			0	33205	0	0	0	17184	15750	158861	27412	950649	37190	106231	0	0	8120	799856	0	0
2024-04-17 07:00:32			0	33219	0	0	0	17150	15760	158585	27229	950763	37201	106218	0	0	8122	799087	0	0
2024-04-17 07:01:32			0	33203	0	0	0	17148	15770	158601	27516	950700	37203	106217	0	0	8121	799873	0	0
2024-04-17 07:02:32			0	33234	0	0	0	17166	15770	158509	27376	950761	37191	106224	0	0	8122	798268	0	0
2024-04-17 07:03:32			0	33247	0	0	0	17150	15760	158425	27429	950718	37191	106218	0	0	8123	797638	0	0
2024-04-17 07:04:32			0	33252	0	0	0	17145	15780	158361	27611	950743	37180	106216	0	0	8124	797294	0	0
2024-04-17 07:05:32			0	33250	0	0	0	17088	15770	158269	27594	950682	37203	106194	0	0	8125	797440	0	0
2024-04-17 07:06:32			0	33222	0	0	0	17033	15770	158521	27488	950603	37180	106173	0	0	8124	798889	0	0
2024-04-17 07:07:32			0	33193	0	0	0	17064	15760	158637	27421	950613	37179	106185	0	0	8122	800435	0	0
2024-04-17 07:08:32			0	33183	0	0	0	17288	15750	158749	27398	950570	37179	106271	0	0	8117	800997	0	0
2024-04-17 07:09:32			0	33378	0	0	0	17784	15780	158141	27562	951356	37236	106462	0	0	8121	790803	0	0
2024-04-17 07:10:32			0	33648	0	0	0	17880	15860	156930	27364	951952	37275	106499	0	0	8135	776703	0	0
2024-04-17 07:11:32			0	33925	0	0	0	17950	15960	155602	27680	952404	37305	106526	0	0	8151	762377	0	0
2024-04-17 07:12:32			0	34112	0	0	0	17992	16040	154630	27699	952631	37323	106542	0	0	8161	752776	0	0
2024-04-17 07:13:32			0	34292	0	0	0	18036	16120	153858	27261	952954	37319	106559	0	0	8171	743614	0	0
2024-04-17 07:14:32			0	34421	0	0	0	18044	16190	153171	27868	953130	37334	106562	0	0	8179	737052	0	0
2024-04-17 07:15:32			0	34512	0	0	0	18051	16240	152675	27339	953264	37329	106565	0	0	8184	732448	0	0
2024-04-17 07:16:32			0	34584	0	0	0	18018	16290	152211	27362	953425	37333	106552	0	0	8189	728781	0	0
2024-04-17 07:17:32			0	34654	0	0	0	18028	16330	151911	27497	953445	37326	106556	0	0	8193	725263	0	0
2024-04-17 07:18:32			0	34684	0	0	0	18067	16360	151607	27530	953512	37338	106571	0	0	8194	723709	0	0
2024-04-17 07:19:32			0	34728	0	0	0	18049	16390	151387	27426	953727	37342	106564	0	0	8197	721489	0	0
2024-04-17 07:20:32			0	34739	0	0	0	18012	16420	151311	27523	953723	37344	106550	0	0	8199	720847	0	0
2024-04-17 07:21:32			0	34789	0	0	0	18044	16440	151195	27374	953809	37345	106562	0	0	8201	718388	0	0
2024-04-17 07:22:32			0	34798	0	0	0	18036	16470	151047	27481	953788	37337	106559	0	0	8202	717843	0	0
2024-04-17 07:23:32			0	34810	0	0	0	18051	16480	150959	27390	953884	37349	106565	0	0	8202	717234	0	0
2024-04-17 07:24:32			0	34831	0	0	0	18044	16500	150815	27516	953898	37340	106562	0	0	8204	716159	0	0
2024-04-17 07:25:32			0	34846	0	0	0	18041	16520	150719	27511	953949	37352	106561	0	0	8205	715371	0	0
2024-04-17 07:26:32			0	34862	0	0	0	18041	16540	150627	27531	954008	37332	106561	0	0	8206	714535	0	0
2024-04-17 07:27:32			0	34869	0	0	0	18018	16550	150567	27618	954032	37344	106552	0	0	8206	714165	0	0
2024-04-17 07:28:32			0	34861	0	0	0	17997	16550	150615	27455	953927	37344	106544	0	0	8206	714544	0	0
2024-04-17 07:29:32			0	34871	0	0	0	17986	16570	150555	27220	953933	37335	106540	0	0	8207	713993	0	0
2024-04-17 07:30:32			0	34880	0	0	0	17997	16570	150583	27614	954012	37324	106544	0	0	8208	713567	0	0
2024-04-17 07:31:32			0	34873	0	0	0	17997	16600	150471	27724	954026	37337	106544	0	0	8207	713782	0	0
2024-04-17 07:32:32			0	34883	0	0	0	17992	16580	150427	27888	953975	37335	106542	0	0	8208	713386	0	0
2024-04-17 07:33:32			0	34887	0	0	0	17997	16600	150471	27656	954008	37337	106544	0	0	8208	713120	0	0
2024-04-17 07:34:32			0	34893	0	0	0	17997	16590	150347	27871	953992	37326	106544	0	0	8208	712875	0	0
2024-04-17 07:35:32			0	34903	0	0	0	17999	16610	150439	27673	954121	37328	106545	0	0	8209	712325	0	0
2024-04-17 07:36:32			0	34909	0	0	0	17999	16610	150263	27736	954130	37316	106545	0	0	8209	712041	0	0
2024-04-17 07:37:32			0	34913	0	0	0	17997	16600	150263	27701	953981	37327	106544	0	0	8210	711891	0	0
2024-04-17 07:38:32			0	34923	0	0	0	18007	16620	150235	27590	954146	37328	106548	0	0	8210	711342	0	0
2024-04-17 07:39:32			0	34937	0	0	0	17974	16620	150159	27866	954014	37317	106535	0	0	8211	710681	0	0
2024-04-17 07:40:32			0	34936	0	0	0	17981	16620	150163	27469	954041	37328	106538	0	0	8211	710728	0	0
2024-04-17 07:41:32			0	34943	0	0	0	17968	16620	150095	27557	953988	37339	106533	0	0	8212	710398	0	0
2024-04-17 07:42:32			0	34942	0	0	0	17979	16620	150099	27502	954014	37328	106537	0	0	8212	710445	0	0
2024-04-17 07:43:32			0	34956	0	0	0	17974	16630	150135	27842	954057	37329	106535	0	0	8212	709747	0	0
2024-04-17 07:44:32			0	34944	0	0	0	17958	16630	149999	27848	954022	37329	106529	0	0	8212	710312	0	0
2024-04-17 07:45:32			0	34951	0	0	0	17981	16620	150111	27852	953988	37328	106538	0	0	8212	710021	0	0
2024-04-17 07:46:32			0	34946	0	0	0	17992	16630	150063	27890	954102	37318	106542	0	0	8212	710218	0	0
2024-04-17 07:47:32			0	34943	0	0	0	17981	16620	150059	27324	954032	37317	106538	0	0	8212	710398	0	0
2024-04-17 07:48:32			0	34939	0	0	0	18002	16620	150071	27428	954093	37328	106546	0	0	8211	710587	0	0
2024-04-17 07:49:32			0	34948	0	0	0	18002	16630	150087	27949	954110	37329	106546	0	0	8212	710124	0	0
2024-04-17 07:50:32			0	34956	0	0	0	17986	16630	150011	27699	954057	37329	106540	0	0	8212	709747	0	0
2024-04-17 07:51:32			0	34933	0	0	0	17989	16630	150011	27706	954136	37339	106541	0	0	8211	710831	0	0
2024-04-17 07:52:32			0	34960	0	0	0	17999	16640	149991	27606	954047	37330	106545	0	0	8212	709520	0	0
2024-04-17 07:53:32			0	34955	0	0	0	17997	16640	149991	28037	954039	37308	106544	0	0	8212	709755	0	0
2024-04-17 07:54:32			0	34963	0	0	0	18002	16630	150055	27807	954162	37318	106546	0	0	8212	709417	0	0
2024-04-17 07:55:32			0	34940	0	0	0	18010	16640	150039	27476	954126	37319	106549	0	0	8211	710463	0	0
2024-04-17 07:56:32			0	34961	0	0	0	18031	16650	149991	27760	954195	37331	106557	0	0	8212	709434	0	0
2024-04-17 07:57:32			0	34969	0	0	0	18028	16650	150003	27767	954240	37352	106556	0	0	8212	709057	0	0
2024-04-17 07:58:32			0	34960	0	0	0	18038	16660	149995	28095	954203	37332	106560	0	0	8212	709443	0	0
2024-04-17 07:59:32			0	34962	0	0	0	18031	16670	150003	27492	954228	37322	106557	0	0	8212	709310	0	0
2024-04-17 08:00:32			0	34963	0	0	0	18012	16660	149883	27824	954177	37342	106550	0	0	8212	709302	0	0
2024-04-17 08:01:32			0	34977	0	0	0	18012	16660	149863	27859	954177	37332	106550	0	0	8213	708642	0	0
2024-04-17 08:02:32			0	34962	0	0	0	18012	16670	149939	27601	954219	37333	106550	0	0	8212	709310	0	0
2024-04-17 08:03:32			0	34947	0	0	0	18020	16660	150027	28031	954211	37343	106553	0	0	8211	710056	0	0
2024-04-17 08:04:32			0	34960	0	0	0	18010	16670	149911	27644	954219	37333	106549	0	0	8212	709405	0	0
2024-04-17 08:05:32			0	34968	0	0	0	18002	16670	149947	27632	954219	37333	106546	0	0	8213	709028	0	0
2024-04-17 08:06:32			0	34956	0	0	0	18010	16670	149999	27639	954246	37343	106549	0	0	8212	709593	0	0
2024-04-17 08:07:32			0	34962	0	0	0	18018	16660	149915	27843	954237	37333	106552	0	0	8212	709349	0	0
2024-04-17 08:08:32			0	34971	0	0	0	18012	16660	149847	28044	954229	37332	106550	0	0	8213	708925	0	0
2024-04-17 08:09:32			0	34960	0	0	0	18010	16660	150051	27862	954229	37332	106549	0	0	8212	709443	0	0
2024-04-17 08:10:32			0	34951	0	0	0	17999	16670	149879	27894	954193	37343	106545	0	0	8212	709829	0	0
2024-04-17 08:11:32			0	34967	0	0	0	18007	16670	150015	27998	954193	37333	106548	0	0	8213	709075	0	0
2024-04-17 08:12:32			0	34957	0	0	0	17997	16660	149899	27679	954185	37333	106544	0	0	8212	709584	0	0
2024-04-17 08:13:32			0	34972	0	0	0	18002	16660	149915	27763	954211	37333	106546	0	0	8213	708878	0	0
2024-04-17 08:14:32			0	34954	0	0	0	17999	16670	149943	27699	954219	37343	106545	0	0	8212	709687	0	0
2024-04-17 08:15:32			0	34974	0	0	0	17997	16660	149939	27835	954185	37333	106544	0	0	8213	708784	0	0
2024-04-17 08:16:32			0	34969	0	0	0	17994	16660	149991	28048	954132	37343	106543	0	0	8213	709019	0	0
2024-04-17 08:17:32			0	34965	0	0	0	17986	16650	149967	27999	954195	37341	106540	0	0	8213	709246	0	0
2024-04-17 08:18:32			0	34955	0	0	0	17981	16650	149943	27953	954168	37341	106538	0	0	8212	709717	0	0
2024-04-17 08:19:32			0	34964	0	0	0	17981	16660	149915	27887	954158	37343	106538	0	0	8213	709255	0	0
2024-04-17 08:20:32			0	34960	0	0	0	17984	16650	149983	27486	954081	37331	106539	0	0	8213	709481	0	0
2024-04-17 08:21:32			0	34954	0	0	0	17992	16670	149907	27711	954166	37321	106542	0	0	8212	709687	0	0
2024-04-17 08:22:32			0	34946	0	0	0	17986	16650	149947	27777	954142	37320	106540	0	0	8212	710141	0	0
2024-04-17 08:23:32			0	34959	0	0	0	17984	16650	149963	27795	954142	37309	106539	0	0	8213	709528	0	0
2024-04-17 08:24:32			0	34965	0	0	0	17976	16650	150047	27538	954160	37352	106536	0	0	8213	709246	0	0
2024-04-17 08:25:32			0	34942	0	0	0	17966	16640	150103	27894	954126	37319	106532	0	0	8212	710368	0	0
2024-04-17 08:26:32			0	34941	0	0	0	17981	16650	150127	27843	954160	37331	106538	0	0	8212	710377	0	0
2024-04-17 08:27:32			0	34951	0	0	0	17963	16640	150043	28005	954126	37319	106531	0	0	8212	709944	0	0
2024-04-17 08:28:32			0	34944	0	0	0	17961	16640	149931	27734	954065	37330	106530	0	0	8212	710274	0	0
2024-04-17 08:29:32			0	34932	0	0	0	17981	16640	150011	27499	954100	37330	106538	0	0	8211	710840	0	0
2024-04-17 08:30:32			0	34956	0	0	0	17989	16630	150111	27639	954128	37329	106541	0	0	8212	709747	0	0
2024-04-17 08:31:32			0	34921	0	0	0	17981	16640	150075	27500	954118	37340	106538	0	0	8210	711359	0	0
2024-04-17 08:32:32			0	34944	0	0	0	17971	16640	150003	27530	954073	37330	106534	0	0	8212	710274	0	0
2024-04-17 08:33:32			0	34937	0	0	0	17963	16640	150103	27410	954047	37330	106531	0	0	8212	710604	0	0
2024-04-17 08:34:32			0	34962	0	0	0	17953	16640	150115	27627	954073	37330	106527	0	0	8213	709425	0	0
2024-04-17 08:35:32			0	34942	0	0	0	17958	16630	150035	27618	954057	37318	106529	0	0	8212	710407	0	0
2024-04-17 08:36:32			0	34924	0	0	0	17976	16630	150039	27828	954102	37329	106536	0	0	8211	711256	0	0
2024-04-17 08:37:32			0	34943	0	0	0	17974	16630	150095	27402	954031	37339	106535	0	0	8212	710359	0	0
2024-04-17 08:38:32			0	34923	0	0	0	17994	16640	150191	27346	954065	37330	106543	0	0	8210	711265	0	0
2024-04-17 08:39:32			0	34924	0	0	0	17989	16640	150087	27478	954144	37340	106541	0	0	8210	711217	0	0
2024-04-17 08:40:32			0	34913	0	0	0	18002	16640	150155	27795	954126	37330	106546	0	0	8210	711737	0	0
2024-04-17 08:41:32			0	34934	0	0	0	17989	16650	150107	27682	954134	37331	106541	0	0	8211	710707	0	0
2024-04-17 08:42:32			0	34931	0	0	0	17986	16630	150207	27493	954136	37318	106540	0	0	8211	710926	0	0
2024-04-17 08:43:32			0	34923	0	0	0	17976	16650	150143	27230	954213	37331	106536	0	0	8211	711226	0	0
2024-04-17 08:44:32			0	34945	0	0	0	17979	16650	150247	27478	954081	37341	106537	0	0	8212	710188	0	0
2024-04-17 08:45:32			0	34943	0	0	0	17961	16640	150139	27561	954065	37340	106530	0	0	8212	710321	0	0
2024-04-17 08:46:32			0	34932	0	0	0	17992	16630	150091	27647	954031	37329	106542	0	0	8211	710878	0	0
2024-04-17 08:47:32			0	34913	0	0	0	17989	16630	150179	27209	954057	37329	106541	0	0	8210	711775	0	0
2024-04-17 08:48:32			0	34921	0	0	0	17979	16640	150055	27272	954118	37319	106537	0	0	8210	711359	0	0
2024-04-17 08:49:32			0	34921	0	0	0	17986	16640	150155	27426	954197	37340	106540	0	0	8210	711359	0	0
2024-04-17 08:50:32			0	34916	0	0	0	18010	16640	150203	27455	954152	37340	106549	0	0	8210	711595	0	0
2024-04-17 08:51:32			0	34920	0	0	0	17994	16640	150183	27634	954047	37340	106543	0	0	8210	711406	0	0
2024-04-17 08:52:32			0	34934	0	0	0	18005	16640	150055	27138	954205	37330	106547	0	0	8211	710746	0	0
2024-04-17 08:53:32			0	34922	0	0	0	18010	16650	150035	27524	954195	37331	106549	0	0	8210	711273	0	0
2024-04-17 08:54:32			0	34929	0	0	0	18007	16650	150059	27573	954221	37352	106548	0	0	8210	710943	0	0
2024-04-17 08:55:32			0	34920	0	0	0	18007	16650	150159	27604	954195	37341	106548	0	0	8210	711368	0	0
2024-04-17 08:56:32			0	34924	0	0	0	18028	16650	150123	27287	954195	37331	106556	0	0	8210	711179	0	0
2024-04-17 08:57:32			0	34930	0	0	0	18033	16650	150047	27424	954248	37331	106558	0	0	8210	710896	0	0
2024-04-17 08:58:32			0	34929	0	0	0	18025	16660	150159	27602	954264	37333	106555	0	0	8210	710904	0	0
2024-04-17 08:59:32			0	34931	0	0	0	18028	16660	150099	27571	954229	37342	106556	0	0	8210	710810	0	0
2024-04-17 09:00:32			0	34941	0	0	0	18015	16670	150043	27535	954246	37321	106551	0	0	8211	710300	0	0
2024-04-17 09:01:32			0	34934	0	0	0	18025	16670	150115	27502	954333	37333	106555	0	0	8211	710630	0	0
2024-04-17 09:02:32			0	34939	0	0	0	18015	16670	149979	27481	954307	37322	106551	0	0	8211	710394	0	0
2024-04-17 09:03:32			0	34938	0	0	0	18044	16670	150015	27502	954228	37333	106562	0	0	8210	710442	0	0
2024-04-17 09:04:32			0	34931	0	0	0	18031	16670	149975	27422	954272	37333	106557	0	0	8210	710772	0	0
2024-04-17 09:05:32			0	34921	0	0	0	18031	16670	150007	27440	954325	37343	106557	0	0	8210	711243	0	0
2024-04-17 09:06:32			0	34925	0	0	0	18033	16680	150083	27426	954297	37344	106558	0	0	8210	711016	0	0
2024-04-17 09:07:32			0	34920	0	0	0	18031	16680	150095	27357	954323	37333	106557	0	0	8210	711252	0	0
2024-04-17 09:08:32			0	34926	0	0	0	18028	16680	150043	27097	954289	37344	106556	0	0	8210	710969	0	0
2024-04-17 09:09:32			0	34932	0	0	0	18033	16680	150147	27289	954315	37344	106558	0	0	8210	710686	0	0
2024-04-17 09:10:32			0	34931	0	0	0	18031	16680	150067	27270	954270	37344	106557	0	0	8210	710733	0	0
2024-04-17 09:11:32			0	34940	0	0	0	18036	16680	150079	27154	954297	37344	106559	0	0	8211	710309	0	0
2024-04-17 09:12:32			0	34929	0	0	0	18023	16680	149959	27095	954289	37333	106554	0	0	8210	710827	0	0
2024-04-17 09:13:32			0	34941	0	0	0	18023	16680	150023	27521	954289	37333	106554	0	0	8211	710261	0	0
2024-04-17 09:14:32			0	34930	0	0	0	18018	16690	149995	27130	954278	37344	106552	0	0	8211	710742	0	0
2024-04-17 09:15:32			0	34908	0	0	0	18018	16680	150027	27585	954289	37322	106552	0	0	8209	711819	0	0
2024-04-17 09:16:32			0	34922	0	0	0	18015	16680	149995	27699	954315	37344	106551	0	0	8210	711158	0	0
2024-04-17 09:17:32			0	34931	0	0	0	18010	16680	149999	27377	954289	37344	106549	0	0	8211	710733	0	0
2024-04-17 09:18:32			0	34920	0	0	0	18015	16680	150191	27189	954236	37333	106551	0	0	8210	711252	0	0
2024-04-17 09:19:32			0	34924	0	0	0	18005	16670	150183	27334	954201	37344	106547	0	0	8210	711102	0	0
2024-04-17 09:20:32			0	34895	0	0	0	18015	16670	150151	27196	954219	37343	106551	0	0	8209	712471	0	0
2024-04-17 09:21:32			0	34910	0	0	0	18007	16670	150167	27307	954254	37344	106548	0	0	8209	711763	0	0
2024-04-17 09:22:32			0	34909	0	0	0	18018	16670	150187	27412	954246	37354	106552	0	0	8209	711810	0	0
2024-04-17 09:23:32			0	34898	0	0	0	18002	16680	150299	27346	954262	37333	106546	0	0	8209	712291	0	0
2024-04-17 09:24:32			0	34896	0	0	0	18015	16670	150287	27561	954254	37344	106551	0	0	8209	712424	0	0
2024-04-17 09:25:32			0	34881	0	0	0	17997	16650	150283	27320	954300	37331	106544	0	0	8208	713210	0	0
2024-04-17 09:26:32			0	34876	0	0	0	18005	16660	150299	27424	954264	37333	106547	0	0	8208	713408	0	0
2024-04-17 09:27:32			0	34881	0	0	0	18005	16670	150331	27222	954254	37355	106547	0	0	8208	713133	0	0
2024-04-17 09:28:32			0	34857	0	0	0	18020	16670	150327	27242	954272	37365	106553	0	0	8206	714269	0	0
2024-04-17 09:29:32			0	34839	0	0	0	18018	16670	150355	27258	954307	37355	106552	0	0	8205	715122	0	0
2024-04-17 09:30:32			0	34855	0	0	0	18020	16670	150403	27251	954333	37355	106553	0	0	8206	714364	0	0
2024-04-17 09:31:32			0	34842	0	0	0	18020	16670	150435	27490	954333	37322	106553	0	0	8205	714980	0	0
2024-04-17 09:32:32			0	34834	0	0	0	18015	16670	150451	27367	954272	37333	106551	0	0	8205	715359	0	0
2024-04-17 09:33:32			0	34822	0	0	0	18020	16660	150443	27225	954211	37333	106553	0	0	8204	715966	0	0
2024-04-17 09:34:32			0	34845	0	0	0	18012	16680	150507	27431	954289	37344	106550	0	0	8206	714799	0	0
2024-04-17 09:35:32			0	34833	0	0	0	18007	16670	150559	27556	954272	37333	106548	0	0	8205	715406	0	0
2024-04-17 09:36:32			0	34829	0	0	0	18031	16660	150551	27170	954290	37343	106557	0	0	8204	715635	0	0
2024-04-17 09:37:32			0	34822	0	0	0	18015	16670	150679	27651	954298	37343	106551	0	0	8204	715928	0	0
2024-04-17 09:38:32			0	34811	0	0	0	18033	16680	150615	27293	954341	37344	106558	0	0	8204	716411	0	0
2024-04-17 09:39:32			0	34788	0	0	0	18031	16680	150611	27447	954368	37344	106557	0	0	8202	717503	0	0
2024-04-17 09:40:32			0	34794	0	0	0	18031	16690	150679	27208	954358	37344	106557	0	0	8203	717179	0	0
2024-04-17 09:41:32			0	34783	0	0	0	18036	16680	150739	27033	954297	37333	106559	0	0	8202	717740	0	0
2024-04-17 09:42:32			0	34776	0	0	0	18044	16680	150775	27235	954376	37333	106562	0	0	8201	718073	0	0
2024-04-17 09:43:32			0	34772	0	0	0	18041	16680	150771	27637	954349	37344	106561	0	0	8201	718263	0	0
2024-04-17 09:44:32			0	34777	0	0	0	18038	16690	150799	27301	954278	37344	106560	0	0	8202	717987	0	0
2024-04-17 09:45:32			0	34765	0	0	0	18036	16690	150791	27479	954358	37344	106559	0	0	8201	718557	0	0
2024-04-17 09:46:32			0	34748	0	0	0	18033	16680	150835	27312	954349	37356	106558	0	0	8200	719405	0	0
2024-04-17 09:47:32			0	34763	0	0	0	18051	16680	150859	27253	954376	37344	106565	0	0	8201	718691	0	0
2024-04-17 09:48:32			0	34714	0	0	0	18046	16690	150943	27268	954418	37356	106563	0	0	8198	720986	0	0
2024-04-17 09:49:32			0	34757	0	0	0	18046	16680	150963	27296	954402	37344	106563	0	0	8200	718977	0	0
2024-04-17 09:50:32			0	34733	0	0	0	18046	16700	150875	27161	954408	37346	106563	0	0	8199	720042	0	0
2024-04-17 09:51:32			0	34741	0	0	0	18059	16690	150911	27145	954392	37345	106568	0	0	8199	719700	0	0
2024-04-17 09:52:32			0	34747	0	0	0	18062	16700	150847	27376	954347	37345	106569	0	0	8200	719375	0	0
2024-04-17 09:53:32			0	34729	0	0	0	18057	16690	150851	27608	954384	37367	106567	0	0	8199	720271	0	0
2024-04-17 09:54:32			0	34750	0	0	0	18046	16700	150887	27509	954382	37357	106563	0	0	8200	719232	0	0
2024-04-17 09:55:32			0	34756	0	0	0	18054	16710	150923	27397	954469	37347	106566	0	0	8200	718908	0	0
2024-04-17 09:56:32			0	34744	0	0	0	18057	16700	150895	27453	954435	37346	106567	0	0	8199	719518	0	0
2024-04-17 09:57:32			0	34737	0	0	0	18062	16710	150927	27505	954443	37347	106569	0	0	8199	719812	0	0
2024-04-17 09:58:32			0	34756	0	0	0	18057	16690	150963	27601	954445	37345	106567	0	0	8200	718985	0	0
2024-04-17 09:59:32			0	34734	0	0	0	18059	16710	150911	27699	954443	37358	106568	0	0	8199	719955	0	0
2024-04-17 10:00:32			0	34737	0	0	0	18049	16700	150987	27289	954453	37345	106564	0	0	8199	719851	0	0
2024-04-17 10:01:32			0	34741	0	0	0	18054	16710	150931	27504	954443	37336	106566	0	0	8199	719622	0	0
2024-04-17 10:02:32			0	34750	0	0	0	18062	16710	150939	27462	954504	37347	106569	0	0	8200	719193	0	0
2024-04-17 10:03:32			0	34739	0	0	0	18070	16710	150955	27453	954469	37347	106572	0	0	8199	719717	0	0
2024-04-17 10:04:32			0	34735	0	0	0	18070	16710	150975	27429	954504	37347	106572	0	0	8199	719907	0	0
2024-04-17 10:05:32			0	34728	0	0	0	18070	16700	150947	27828	954479	37345	106572	0	0	8198	720280	0	0
2024-04-17 10:06:32			0	34738	0	0	0	18077	16710	150931	27339	954504	37347	106575	0	0	8199	719765	0	0
2024-04-17 10:07:32			0	34735	0	0	0	18077	16720	150923	27229	954512	37358	106575	0	0	8199	719868	0	0
2024-04-17 10:08:32			0	34723	0	0	0	18067	16710	151015	27211	954504	37358	106571	0	0	8198	720479	0	0
2024-04-17 10:09:32			0	34728	0	0	0	18067	16720	150891	27630	954512	37336	106571	0	0	8198	720202	0	0
2024-04-17 10:10:32			0	34734	0	0	0	18072	16710	150915	27334	954477	37347	106573	0	0	8199	719955	0	0
2024-04-17 10:11:32			0	34759	0	0	0	18070	16710	150891	27116	954477	37347	106572	0	0	8200	718765	0	0
2024-04-17 10:12:32			0	34748	0	0	0	18077	16720	150935	27621	954485	37347	106575	0	0	8199	719249	0	0
2024-04-17 10:13:32			0	34728	0	0	0	18080	16710	150875	27388	954556	37358	106576	0	0	8198	720241	0	0
2024-04-17 10:14:32			0	34736	0	0	0	18080	16730	150855	27582	954607	37349	106576	0	0	8199	719782	0	0
2024-04-17 10:15:32			0	34741	0	0	0	18080	16730	150927	27478	954581	37360	106576	0	0	8199	719544	0	0
2024-04-17 10:16:32			0	34747	0	0	0	18083	16720	150783	27462	954538	37347	106577	0	0	8199	719297	0	0
2024-04-17 10:17:32			0	34751	0	0	0	18077	16730	150819	27569	954554	37349	106575	0	0	8200	719068	0	0
2024-04-17 10:18:32			0	34748	0	0	0	18072	16720	150843	27685	954538	37347	106573	0	0	8200	719249	0	0
2024-04-17 10:19:32			0	34750	0	0	0	18080	16730	150811	27331	954554	37337	106576	0	0	8200	719115	0	0
2024-04-17 10:20:32			0	34739	0	0	0	18075	16710	150851	27606	954583	37347	106574	0	0	8199	719717	0	0
2024-04-17 10:21:32			0	34748	0	0	0	18085	16720	150903	27644	954520	37359	106578	0	0	8199	719249	0	0
2024-04-17 10:22:32			0	34754	0	0	0	18085	16720	150823	27698	954538	37347	106578	0	0	8200	718964	0	0
2024-04-17 10:23:32			0	34730	0	0	0	18085	16730	150939	27809	954562	37337	106578	0	0	8198	720068	0	0
2024-04-17 10:24:32			0	34746	0	0	0	18088	16730	150859	27464	954562	37360	106579	0	0	8199	719306	0	0
2024-04-17 10:25:32			0	34742	0	0	0	18096	16730	150851	27769	954554	37349	106582	0	0	8199	719496	0	0
2024-04-17 10:26:32			0	34745	0	0	0	18106	16730	150867	27395	954615	37360	106586	0	0	8199	719353	0	0
2024-04-17 10:27:32			0	34758	0	0	0	18103	16730	150819	27753	954589	37360	106585	0	0	8200	718735	0	0
2024-04-17 10:28:32			0	34762	0	0	0	18111	16730	150843	27909	954589	37360	106588	0	0	8200	718544	0	0
2024-04-17 10:29:32			0	34756	0	0	0	18116	16730	150863	27562	954642	37360	106590	0	0	8199	718830	0	0
2024-04-17 10:30:32			0	34766	0	0	0	18119	16750	150755	27755	954666	37361	106591	0	0	8200	718276	0	0
2024-04-17 10:31:32			0	34751	0	0	0	18122	16750	150731	27493	954658	37360	106592	0	0	8199	718990	0	0
2024-04-17 10:32:32			0	34757	0	0	0	18124	16750	150779	27972	954666	37361	106593	0	0	8199	718704	0	0
2024-04-17 10:33:32			0	34760	0	0	0	18127	16750	150815	27852	954658	37349	106594	0	0	8199	718562	0	0
2024-04-17 10:34:32			0	34761	0	0	0	18127	16750	150811	27488	954719	37372	106594	0	0	8199	718514	0	0
2024-04-17 10:35:32			0	34762	0	0	0	18132	16770	150847	27743	954699	37363	106596	0	0	8200	718389	0	0
2024-04-17 10:36:32			0	34761	0	0	0	18135	16760	150839	27500	954709	37362	106597	0	0	8199	718475	0	0
2024-04-17 10:37:32			0	34770	0	0	0	18135	16770	150843	27758	954743	37373	106597	0	0	8200	718008	0	0
2024-04-17 10:38:32			0	34767	0	0	0	18140	16770	150895	27961	954804	37363	106599	0	0	8200	718151	0	0
2024-04-17 10:39:32			0	34770	0	0	0	18145	16770	150787	27987	954752	37374	106601	0	0	8200	718008	0	0
2024-04-17 10:40:32			0	34769	0	0	0	18135	16770	150767	27710	954770	37373	106597	0	0	8200	718056	0	0
2024-04-17 10:41:32			0	34767	0	0	0	18150	16770	150655	27954	954725	37363	106603	0	0	8199	718151	0	0
2024-04-17 10:42:32			0	34771	0	0	0	18153	16780	150715	27965	954821	37353	106604	0	0	8200	717922	0	0
2024-04-17 10:43:32			0	34766	0	0	0	18155	16780	150639	27554	954812	37364	106605	0	0	8199	718160	0	0
2024-04-17 10:44:32			0	34773	0	0	0	18161	16780	150735	27708	954812	37375	106607	0	0	8200	717827	0	0
2024-04-17 10:45:32			0	34795	0	0	0	18158	16790	150751	27772	954802	37375	106606	0	0	8201	716743	0	0
2024-04-17 10:46:32			0	34784	0	0	0	18161	16790	150743	27868	954855	37353	106607	0	0	8200	717266	0	0
2024-04-17 10:47:32			0	34785	0	0	0	18168	16780	150611	27916	954821	37375	106610	0	0	8200	717257	0	0
2024-04-17 10:48:32			0	34781	0	0	0	18176	16800	150571	27538	954845	37376	106613	0	0	8200	717369	0	0
2024-04-17 10:49:32			0	34774	0	0	0	18179	16810	150451	27751	954888	37365	106614	0	0	8200	717663	0	0
2024-04-17 10:50:32			0	34787	0	0	0	18176	16800	150503	27663	954906	37365	106613	0	0	8200	717084	0	0
2024-04-17 10:51:32			0	34797	0	0	0	18176	16800	150523	28053	954871	37354	106613	0	0	8201	716609	0	0
2024-04-17 10:52:32			0	34809	0	0	0	18184	16810	150571	27802	954888	37376	106616	0	0	8201	716001	0	0
2024-04-17 10:53:32			0	34796	0	0	0	18186	16810	150555	27580	954975	37366	106617	0	0	8201	716618	0	0
2024-04-17 10:54:32			0	34803	0	0	0	18181	16810	150535	27594	954888	37376	106615	0	0	8201	716286	0	0
2024-04-17 10:55:32			0	34809	0	0	0	18174	16820	150479	27890	954904	37377	106612	0	0	8202	715963	0	0
2024-04-17 10:56:32			0	34811	0	0	0	18179	16830	150487	27666	954946	37367	106614	0	0	8202	715829	0	0
2024-04-17 10:57:32			0	34821	0	0	0	18179	16820	150455	27769	954904	37377	106614	0	0	8202	715394	0	0
2024-04-17 10:58:32			0	34826	0	0	0	18176	16820	150451	27680	954904	37377	106613	0	0	8203	715157	0	0
2024-04-17 10:59:32			0	34819	0	0	0	18181	16810	150339	27763	954896	37376	106615	0	0	8202	715527	0	0
2024-04-17 11:00:32			0	34822	0	0	0	18179	16830	150471	28173	954946	37367	106614	0	0	8202	715308	0	0
2024-04-17 11:01:32			0	34830	0	0	0	18179	16820	150427	28206	954938	37367	106614	0	0	8203	714967	0	0
2024-04-17 11:02:32			0	34807	0	0	0	18197	16820	150527	27776	954965	37377	106621	0	0	8201	716057	0	0
2024-04-17 11:03:32			0	34824	0	0	0	18199	16830	150535	28122	955034	37378	106622	0	0	8202	715213	0	0
2024-04-17 11:04:32			0	34858	0	0	0	18192	16830	150383	27810	955026	37367	106619	0	0	8204	713603	0	0
2024-04-17 11:05:32			0	34842	0	0	0	18189	16830	150363	28043	954973	37367	106618	0	0	8203	714360	0	0
2024-04-17 11:06:32			0	34852	0	0	0	18194	16840	150315	27628	955042	37369	106620	0	0	8204	713848	0	0
2024-04-17 11:07:32			0	34843	0	0	0	18194	16820	150387	28240	954991	37377	106620	0	0	8203	714352	0	0
2024-04-17 11:08:32			0	34829	0	0	0	18186	16830	150355	28018	955026	37377	106617	0	0	8203	714976	0	0
2024-04-17 11:09:32			0	34840	0	0	0	18205	16830	150255	28072	954999	37367	106624	0	0	8203	714455	0	0
2024-04-17 11:10:32			0	34844	0	0	0	18210	16840	150355	27835	955015	37379	106626	0	0	8203	714227	0	0
2024-04-17 11:11:32			0	34872	0	0	0	18210	16830	150291	27554	955007	37378	106626	0	0	8205	712941	0	0
2024-04-17 11:12:32			0	34848	0	0	0	18199	16850	150319	27815	955032	37380	106622	0	0	8204	713999	0	0
2024-04-17 11:13:32			0	34851	0	0	0	18205	16840	150291	27511	955024	37391	106624	0	0	8204	713895	0	0
2024-04-17 11:14:32			0	34857	0	0	0	18215	16850	150259	27826	955066	37380	106628	0	0	8204	713573	0	0
2024-04-17 11:15:32			0	34885	0	0	0	18220	16850	150263	27809	955084	37370	106630	0	0	8205	712249	0	0
2024-04-17 11:16:32			0	34865	0	0	0	18225	16850	150175	28176	955066	37380	106632	0	0	8204	713194	0	0
2024-04-17 11:17:32			0	34862	0	0	0	18231	16860	150323	27874	955180	37381	106634	0	0	8204	713298	0	0
2024-04-17 11:18:32			0	34857	0	0	0	18254	16850	150323	28081	955119	37380	106643	0	0	8203	713573	0	0
2024-04-17 11:19:32			0	34855	0	0	0	18251	16860	150219	28093	955180	37392	106642	0	0	8203	713629	0	0
2024-04-17 11:20:32			0	34845	0	0	0	18272	16870	150259	28110	955196	37381	106650	0	0	8202	714063	0	0
2024-04-17 11:21:32			0	34832	0	0	0	18280	16880	150355	27892	955239	37382	106653	0	0	8201	714640	0	0
2024-04-17 11:22:32			0	34854	0	0	0	18296	16870	150327	28074	955249	37392	106659	0	0	8202	713638	0	0
2024-04-17 11:23:32			0	34827	0	0	0	18303	16890	150303	28029	955343	37394	106662	0	0	8201	714838	0	0
2024-04-17 11:24:32			0	34842	0	0	0	18309	16890	150287	27779	955343	37383	106664	0	0	8202	714128	0	0
2024-04-17 11:25:32			0	34825	0	0	0	18316	16910	150339	28397	955341	37385	106667	0	0	8201	714855	0	0
2024-04-17 11:26:32			0	34829	0	0	0	18314	16900	150399	28109	955359	37396	106666	0	0	8201	714705	0	0
2024-04-17 11:27:32			0	34833	0	0	0	18324	16920	150287	28197	955418	37397	106670	0	0	8201	714438	0	0
2024-04-17 11:28:32			0	34840	0	0	0	18319	16920	150423	28103	955418	37386	106668	0	0	8201	714106	0	0
2024-04-17 11:29:32			0	34829	0	0	0	18332	16930	150355	27732	955452	37398	106673	0	0	8201	714588	0	0
2024-04-17 11:30:32			0	34816	0	0	0	18335	16940	150455	28126	955468	37398	106674	0	0	8200	715165	0	0
2024-04-17 11:31:32			0	34802	0	0	0	18327	16950	150391	27843	955458	37389	106671	0	0	8199	715790	0	0
2024-04-17 11:32:32			0	34805	0	0	0	18332	16950	150423	27987	955519	37400	106673	0	0	8199	715648	0	0
2024-04-17 11:33:32			0	34799	0	0	0	18337	16940	150399	27923	955450	37388	106675	0	0	8199	715971	0	0
2024-04-17 11:34:32			0	34815	0	0	0	18335	16940	150447	27698	955521	37409	106674	0	0	8200	715213	0	0
2024-04-17 11:35:32			0	34776	0	0	0	18335	16950	150483	27727	955485	37400	106674	0	0	8198	717023	0	0
2024-04-17 11:36:32			0	34779	0	0	0	18337	16950	150515	27687	955519	37389	106675	0	0	8198	716881	0	0
2024-04-17 11:37:32			0	34767	0	0	0	18340	16970	150615	27788	955596	37402	106676	0	0	8197	717373	0	0
2024-04-17 11:38:32			0	34753	0	0	0	18342	16960	150711	27949	955562	37401	106677	0	0	8196	718077	0	0
2024-04-17 11:39:32			0	34741	0	0	0	18345	16970	150567	28291	955552	37391	106678	0	0	8196	718608	0	0
2024-04-17 11:40:32			0	34748	0	0	0	18358	16970	150639	28084	955684	37402	106683	0	0	8196	718276	0	0
2024-04-17 11:41:32			0	34764	0	0	0	18363	16970	150571	28011	955605	37414	106685	0	0	8197	717515	0	0
2024-04-17 11:42:32			0	34741	0	0	0	18366	16980	150723	27963	955639	37414	106686	0	0	8195	718569	0	0
2024-04-17 11:43:32			0	34736	0	0	0	18358	16980	150679	27878	955621	37402	106683	0	0	8195	718807	0	0
2024-04-17 11:44:32			0	34732	0	0	0	18368	16980	150691	27755	955665	37402	106687	0	0	8195	718998	0	0
2024-04-17 11:45:32			0	34735	0	0	0	18366	16990	150767	27992	955717	37393	106686	0	0	8195	718816	0	0
2024-04-17 11:46:32			0	34717	0	0	0	18379	16990	150791	27495	955664	37404	106691	0	0	8194	719672	0	0
2024-04-17 11:47:32			0	34709	0	0	0	18376	17000	150839	27665	955706	37404	106690	0	0	8193	720014	0	0
2024-04-17 11:48:32			0	34698	0	0	0	18374	17000	150815	27476	955777	37393	106689	0	0	8193	720538	0	0
2024-04-17 11:49:32			0	34689	0	0	0	18374	17010	150927	28064	955820	37405	106689	0	0	8192	720928	0	0
2024-04-17 11:50:32			0	34675	0	0	0	18371	17010	150799	27623	955820	37405	106688	0	0	8192	721595	0	0
2024-04-17 11:51:32			0	34682	0	0	0	18366	17010	150799	27954	955794	37405	106686	0	0	8192	721261	0	0
2024-04-17 11:52:32			0	34679	0	0	0	18363	17010	150819	27959	955767	37405	106685	0	0	8192	721404	0	0
2024-04-17 11:53:32			0	34681	0	0	0	18368	17010	150755	28072	955696	37406	106687	0	0	8192	721309	0	0
2024-04-17 11:54:32			0	34696	0	0	0	18353	17010	150827	27874	955715	37416	106681	0	0	8193	720594	0	0
2024-04-17 11:55:32			0	34674	0	0	0	18353	17010	150915	28128	955775	37406	106681	0	0	8192	721643	0	0
2024-04-17 11:56:32			0	34668	0	0	0	18355	17000	150871	27944	955706	37415	106682	0	0	8192	721968	0	0
2024-04-17 11:57:32			0	34668	0	0	0	18366	17000	150947	27791	955706	37404	106686	0	0	8191	721968	0	0
2024-04-17 11:58:32			0	34668	0	0	0	18368	17010	151031	27791	955749	37416	106687	0	0	8191	721929	0	0
2024-04-17 11:59:32			0	34651	0	0	0	18368	17000	150907	27606	955706	37425	106687	0	0	8190	722780	0	0
2024-04-17 12:00:32			0	34676	0	0	0	18374	17010	150923	27954	955723	37406	106689	0	0	8192	721548	0	0
2024-04-17 12:01:32			0	34683	0	0	0	18374	17010	150939	27727	955715	37405	106689	0	0	8192	721214	0	0
2024-04-17 12:02:32			0	34649	0	0	0	18386	17010	150999	27718	955723	37395	106694	0	0	8190	722836	0	0
2024-04-17 12:03:32			0	34659	0	0	0	18392	17020	151123	27684	955845	37406	106696	0	0	8190	722320	0	0
2024-04-17 12:04:32			0	34652	0	0	0	18389	17020	151183	27779	955924	37406	106695	0	0	8190	722654	0	0
2024-04-17 12:05:32			0	34628	0	0	0	18392	17030	151175	27850	955879	37406	106696	0	0	8189	723761	0	0
2024-04-17 12:06:32			0	34605	0	0	0	18386	17030	151159	27814	955853	37406	106694	0	0	8188	724861	0	0
2024-04-17 12:07:32			0	34586	0	0	0	18371	17030	151347	27724	955808	37396	106688	0	0	8187	725771	0	0
2024-04-17 12:08:32			0	34577	0	0	0	18371	17030	151335	28057	955721	37384	106688	0	0	8186	726202	0	0
2024-04-17 12:09:32			0	34560	0	0	0	18381	17020	151375	27783	955792	37416	106692	0	0	8185	727057	0	0
2024-04-17 12:10:32			0	34561	0	0	0	18392	17030	151503	28343	955826	37395	106696	0	0	8185	726969	0	0
2024-04-17 12:11:32			0	34528	0	0	0	18389	17030	151615	27992	955879	37417	106695	0	0	8183	728554	0	0
2024-04-17 12:12:32			0	34516	0	0	0	18384	17030	151659	27783	955826	37406	106693	0	0	8183	729130	0	0
2024-04-17 12:13:32			0	34501	0	0	0	18368	17030	151675	27535	955861	37407	106687	0	0	8182	729852	0	0
2024-04-17 12:14:32			0	34503	0	0	0	18379	17040	151803	27678	955843	37408	106691	0	0	8182	729716	0	0
2024-04-17 12:15:32			0	34472	0	0	0	18384	17030	151827	27757	955782	37407	106693	0	0	8180	731248	0	0
2024-04-17 12:16:32			0	34453	0	0	0	18381	17030	151915	27996	955826	37406	106692	0	0	8179	732164	0	0
2024-04-17 12:17:32			0	34454	0	0	0	18392	17050	151979	27890	955851	37397	106696	0	0	8179	732037	0	0
2024-04-17 12:18:32			0	34453	0	0	0	18392	17020	152055	28086	955845	37416	106696	0	0	8179	732204	0	0
2024-04-17 12:19:32			0	34433	0	0	0	18384	17030	151867	27989	955826	37417	106693	0	0	8178	733129	0	0
2024-04-17 12:20:32			0	34444	0	0	0	18376	17030	151951	27842	955887	37417	106690	0	0	8179	732598	0	0
2024-04-17 12:21:32			0	34424	0	0	0	18384	17040	152091	27763	955843	37408	106693	0	0	8177	733524	0	0
2024-04-17 12:22:32			0	34416	0	0	0	18392	17030	152019	27826	955861	37417	106696	0	0	8177	733950	0	0
2024-04-17 12:23:32			0	34423	0	0	0	18402	17040	152019	27680	955922	37408	106700	0	0	8177	733572	0	0
2024-04-17 12:24:32			0	34402	0	0	0	18407	17030	152123	27703	955879	37428	106702	0	0	8176	734627	0	0
2024-04-17 12:25:32			0	34389	0	0	0	18399	17030	152227	27774	955887	37417	106699	0	0	8175	735256	0	0
2024-04-17 12:26:32			0	34379	0	0	0	18397	17040	152171	27685	955922	37429	106698	0	0	8175	735700	0	0
2024-04-17 12:27:32			0	34385	0	0	0	18412	17050	152243	27999	955930	37408	106704	0	0	8175	735370	0	0
2024-04-17 12:28:32			0	34398	0	0	0	18407	17040	152191	28090	955922	37418	106702	0	0	8176	734781	0	0
2024-04-17 12:29:32			0	34379	0	0	0	18415	17050	152299	27748	955991	37408	106705	0	0	8174	735660	0	0
2024-04-17 12:30:32			0	34384	0	0	0	18415	17050	152211	27979	955964	37408	106705	0	0	8175	735418	0	0
2024-04-17 12:31:32			0	34366	0	0	0	18418	17060	152259	27618	955901	37410	106706	0	0	8174	736250	0	0
2024-04-17 12:32:32			0	34380	0	0	0	18420	17060	152199	27597	955981	37410	106707	0	0	8174	735572	0	0
2024-04-17 12:33:32			0	34389	0	0	0	18436	17060	152259	27998	955999	37419	106713	0	0	8175	735136	0	0
2024-04-17 12:34:32			0	34394	0	0	0	18433	17070	152103	27947	956015	37420	106712	0	0	8175	734854	0	0
2024-04-17 12:35:32			0	34386	0	0	0	18420	17060	152127	27880	956007	37420	106707	0	0	8175	735281	0	0
2024-04-17 12:36:32			0	34386	0	0	0	18431	17060	152119	27980	955946	37419	106711	0	0	8175	735281	0	0
2024-04-17 12:37:32			0	34380	0	0	0	18431	17060	152135	28197	956033	37431	106711	0	0	8174	735572	0	0
2024-04-17 12:38:32			0	34381	0	0	0	18436	17060	152135	27755	955954	37420	106713	0	0	8174	735523	0	0
2024-04-17 12:39:32			0	34367	0	0	0	18433	17060	152283	27939	955981	37410	106712	0	0	8173	736201	0	0
2024-04-17 12:40:32			0	34397	0	0	0	18436	17080	152287	27651	955979	37421	106713	0	0	8175	734670	0	0
2024-04-17 12:41:32			0	34379	0	0	0	18441	17070	152215	27595	956068	37420	106715	0	0	8174	735580	0	0
2024-04-17 12:42:32			0	34374	0	0	0	18454	17080	152203	27848	956092	37422	106720	0	0	8174	735782	0	0
2024-04-17 12:43:32			0	34394	0	0	0	18454	17070	152155	27900	956076	37420	106720	0	0	8175	734854	0	0
2024-04-17 12:44:32			0	34408	0	0	0	18451	17070	152191	27654	956076	37410	106719	0	0	8175	734178	0	0
2024-04-17 12:45:32			0	34413	0	0	0	18462	17090	152131	27847	956100	37411	106723	0	0	8176	733856	0	0
2024-04-17 12:46:32			0	34410	0	0	0	18459	17090	152115	27926	956109	37422	106722	0	0	8176	734001	0	0
2024-04-17 12:47:32			0	34413	0	0	0	18462	17090	152167	27883	956100	37411	106723	0	0	8176	733856	0	0
2024-04-17 12:48:32			0	34412	0	0	0	18464	17100	152099	27751	956169	37422	106724	0	0	8176	733865	0	0
2024-04-17 12:49:32			0	34406	0	0	0	18464	17100	152043	27998	956117	37434	106724	0	0	8175	734155	0	0
2024-04-17 12:50:32			0	34408	0	0	0	18467	17100	151987	27883	956125	37423	106725	0	0	8175	734058	0	0
2024-04-17 12:51:32			0	34426	0	0	0	18462	17100	152003	27852	956125	37413	106723	0	0	8176	733189	0	0
2024-04-17 12:52:32			0	34408	0	0	0	18467	17110	152063	27831	956159	37423	106725	0	0	8175	734018	0	0
2024-04-17 12:53:32			0	34400	0	0	0	18472	17100	152047	27953	956178	37434	106727	0	0	8175	734445	0	0
2024-04-17 12:54:32			0	34420	0	0	0	18477	17110	152103	27722	956239	37423	106729	0	0	8176	733439	0	0
2024-04-17 12:55:32			0	34412	0	0	0	18480	17110	152115	27665	956167	37424	106730	0	0	8175	733825	0	0
2024-04-17 12:56:32			0	34415	0	0	0	18470	17100	152007	27869	956204	37423	106726	0	0	8176	733720	0	0
2024-04-17 12:57:32			0	34390	0	0	0	18475	17100	152075	27689	956169	37434	106728	0	0	8174	734928	0	0
2024-04-17 12:58:32			0	34415	0	0	0	18485	17110	152087	27815	956194	37435	106732	0	0	8175	733680	0	0
2024-04-17 12:59:32			0	34414	0	0	0	18498	17100	152071	27959	956178	37423	106737	0	0	8175	733768	0	0
2024-04-17 13:00:32			0	34430	0	0	0	18488	17110	151995	27765	956159	37434	106733	0	0	8176	732956	0	0
2024-04-17 13:01:32			0	34428	0	0	0	18493	17120	152035	27734	956237	37425	106735	0	0	8176	733012	0	0
2024-04-17 13:02:32			0	34426	0	0	0	18480	17120	151999	27625	956237	37436	106730	0	0	8176	733109	0	0
2024-04-17 13:03:32			0	34435	0	0	0	18483	17120	151975	27637	956237	37436	106731	0	0	8177	732675	0	0
2024-04-17 13:04:32			0	34412	0	0	0	18498	17130	152011	27701	956324	37447	106737	0	0	8175	733745	0	0
2024-04-17 13:05:32			0	34426	0	0	0	18488	17130	151999	27838	956306	37437	106733	0	0	8176	733069	0	0
2024-04-17 13:06:32			0	34415	0	0	0	18490	17120	152083	27523	956290	37447	106734	0	0	8175	733640	0	0
2024-04-17 13:07:32			0	34427	0	0	0	18483	17130	151939	27736	956306	37437	106731	0	0	8176	733021	0	0
2024-04-17 13:08:32			0	34436	0	0	0	18498	17130	151975	27942	956271	37425	106737	0	0	8177	732587	0	0
2024-04-17 13:09:32			0	34426	0	0	0	18498	17140	151955	27791	956314	37437	106737	0	0	8176	733030	0	0
2024-04-17 13:10:32			0	34428	0	0	0	18511	17140	151923	27854	956288	37437	106742	0	0	8176	732933	0	0
2024-04-17 13:11:32			0	34443	0	0	0	18509	17140	151959	27599	956288	37416	106741	0	0	8177	732209	0	0
2024-04-17 13:12:32			0	34445	0	0	0	18514	17130	151931	28022	956332	37426	106743	0	0	8177	732153	0	0
2024-04-17 13:13:32			0	34445	0	0	0	18522	17140	151827	27653	956367	37426	106746	0	0	8177	732113	0	0
2024-04-17 13:14:32			0	34438	0	0	0	18532	17150	151767	27774	956410	37439	106750	0	0	8176	732411	0	0
2024-04-17 13:15:32			0	34452	0	0	0	18532	17140	151879	27711	956393	37437	106750	0	0	8177	731775	0	0
2024-04-17 13:16:32			0	34453	0	0	0	18524	17150	151819	27492	956418	37427	106747	0	0	8177	731688	0	0
2024-04-17 13:17:32			0	34463	0	0	0	18524	17150	151715	27892	956418	37450	106747	0	0	8178	731205	0	0
2024-04-17 13:18:32			0	34474	0	0	0	18532	17150	151623	27505	956410	37427	106750	0	0	8178	730676	0	0
2024-04-17 13:19:32			0	34488	0	0	0	18527	17150	151715	27911	956365	37439	106748	0	0	8179	730002	0	0
2024-04-17 13:20:32			0	34467	0	0	0	18524	17160	151643	27805	956373	37450	106747	0	0	8178	730973	0	0
2024-04-17 13:21:32			0	34481	0	0	0	18537	17150	151695	27708	956410	37427	106752	0	0	8179	730339	0	0
2024-04-17 13:22:32			0	34469	0	0	0	18529	17160	151875	28024	956460	37439	106749	0	0	8178	730877	0	0
2024-04-17 13:23:32			0	34455	0	0	0	18537	17160	151707	27694	956460	37428	106752	0	0	8177	731551	0	0
2024-04-17 13:24:32			0	34461	0	0	0	18548	17160	151719	27689	956460	37428	106756	0	0	8177	731262	0	0
2024-04-17 13:25:32			0	34460	0	0	0	18566	17170	151719	27927	956521	37451	106763	0	0	8177	731271	0	0
2024-04-17 13:26:32			0	34465	0	0	0	18542	17180	151663	27653	956537	37441	106754	0	0	8178	730990	0	0
2024-04-17 13:27:32			0	34463	0	0	0	18566	17170	151675	27828	956556	37451	106763	0	0	8177	731126	0	0
2024-04-17 13:28:32			0	34469	0	0	0	18571	17190	151707	27798	956527	37431	106765	0	0	8177	730758	0	0
2024-04-17 13:29:32			0	34478	0	0	0	18574	17200	151659	27661	956544	37454	106766	0	0	8178	730285	0	0
2024-04-17 13:30:32			0	34474	0	0	0	18579	17190	151643	27711	956536	37453	106768	0	0	8178	730517	0	0
2024-04-17 13:31:32			0	34481	0	0	0	18584	17200	151699	27632	956596	37454	106770	0	0	8178	730141	0	0
2024-04-17 13:32:32			0	34489	0	0	0	18587	17200	151775	27892	956570	37464	106771	0	0	8178	729756	0	0
2024-04-17 13:33:32			0	34490	0	0	0	18579	17210	151699	27911	956560	37444	106768	0	0	8179	729668	0	0
2024-04-17 13:34:32			0	34492	0	0	0	18571	17200	151599	27795	956623	37431	106765	0	0	8179	729611	0	0
2024-04-17 13:35:32			0	34506	0	0	0	18581	17200	151619	27611	956605	37454	106769	0	0	8179	728938	0	0
2024-04-17 13:36:32			0	34498	0	0	0	18584	17210	151551	27480	956639	37455	106770	0	0	8179	729283	0	0
2024-04-17 13:37:32			0	34502	0	0	0	18602	17210	151711	27571	956621	37465	106777	0	0	8179	729091	0	0
2024-04-17 13:38:32			0	34511	0	0	0	18612	17210	151559	27616	956647	37444	106781	0	0	8179	728659	0	0
2024-04-17 13:39:32			0	34532	0	0	0	18610	17230	151511	27777	956698	37456	106780	0	0	8181	727571	0	0
2024-04-17 13:40:32			0	34552	0	0	0	18618	17220	151391	27779	956690	37466	106783	0	0	8182	726652	0	0
2024-04-17 13:41:32			0	34549	0	0	0	18615	17230	151347	27732	956733	37445	106782	0	0	8181	726756	0	0
2024-04-17 13:42:32			0	34554	0	0	0	18623	17240	151343	27668	956741	37446	106785	0	0	8182	726477	0	0
2024-04-17 13:43:32			0	34555	0	0	0	18620	17240	151263	27939	956794	37446	106784	0	0	8182	726429	0	0
2024-04-17 13:44:32			0	34563	0	0	0	18625	17240	151311	28142	956828	37468	106786	0	0	8182	726045	0	0
2024-04-17 13:45:32			0	34568	0	0	0	18618	17250	151299	27984	956784	37447	106783	0	0	8183	725767	0	0
2024-04-17 13:46:32			0	34555	0	0	0	18610	17250	151255	28001	956765	37437	106780	0	0	8182	726389	0	0
2024-04-17 13:47:32			0	34564	0	0	0	18620	17250	151291	27861	956810	37458	106784	0	0	8182	725958	0	0
2024-04-17 13:48:32			0	34566	0	0	0	18628	17250	151283	27727	956810	37447	106787	0	0	8182	725862	0	0
2024-04-17 13:49:32			0	34560	0	0	0	18625	17260	151219	27526	956826	37458	106786	0	0	8182	726110	0	0
2024-04-17 13:50:32			0	34562	0	0	0	18638	17260	151199	27488	956747	37437	106791	0	0	8182	726014	0	0
2024-04-17 13:51:32			0	34565	0	0	0	18644	17250	151155	27890	956818	37458	106793	0	0	8182	725910	0	0
2024-04-17 13:52:32			0	34576	0	0	0	18628	17270	151059	27836	956869	37459	106787	0	0	8183	725305	0	0
2024-04-17 13:53:32			0	34625	0	0	0	18615	17260	150843	27991	956861	37437	106782	0	0	8186	723001	0	0
2024-04-17 13:54:32			0	34666	0	0	0	18607	17260	150795	27651	956808	37448	106779	0	0	8188	721045	0	0
2024-04-17 13:55:32			0	34679	0	0	0	18610	17270	150671	28062	956895	37448	106780	0	0	8189	720387	0	0
2024-04-17 13:56:32			0	34717	0	0	0	18558	17270	150451	27755	956772	37449	106760	0	0	8192	718579	0	0
2024-04-17 13:57:32			0	34796	0	0	0	18540	17270	150171	27772	956824	37449	106753	0	0	8197	714832	0	0
2024-04-17 13:58:32			0	34835	0	0	0	18566	17270	149867	27471	956763	37448	106763	0	0	8199	712988	0	0
2024-04-17 13:59:32			0	34869	0	0	0	18550	17270	149735	27899	956816	37448	106757	0	0	8201	711382	0	0
2024-04-17 14:00:32			0	34905	0	0	0	18506	17260	149731	27616	956808	37448	106740	0	0	8203	709725	0	0
2024-04-17 14:01:32			0	34914	0	0	0	18537	17260	149539	27857	956774	37448	106752	0	0	8203	709301	0	0
2024-04-17 14:02:32			0	34939	0	0	0	18537	17270	149563	27576	956790	37459	106752	0	0	8205	708087	0	0
2024-04-17 14:03:32			0	34935	0	0	0	18550	17270	149539	27763	956790	37448	106757	0	0	8204	708275	0	0
2024-04-17 14:04:32			0	34935	0	0	0	18561	17260	149607	27968	956782	37448	106761	0	0	8204	708313	0	0
2024-04-17 14:05:32			0	34889	0	0	0	18542	17270	149651	27894	956798	37449	106754	0	0	8202	710440	0	0
2024-04-17 14:06:32			0	34882	0	0	0	18548	17260	149823	27651	956808	37437	106756	0	0	8201	710808	0	0
2024-04-17 14:07:32			0	34845	0	0	0	18602	17260	150027	28010	956800	37448	106777	0	0	8198	712554	0	0
2024-04-17 14:08:32			0	34842	0	0	0	18561	17260	150035	27953	956861	37437	106761	0	0	8199	712696	0	0
2024-04-17 14:09:32			0	34838	0	0	0	18610	17270	149975	27944	956816	37437	106780	0	0	8198	712846	0	0
2024-04-17 14:10:32			0	34832	0	0	0	18633	17270	150027	27519	956824	37449	106789	0	0	8197	713129	0	0
2024-04-17 14:11:32			0	34792	0	0	0	18651	17280	150163	27668	956893	37471	106796	0	0	8195	714983	0	0
2024-04-17 14:12:32			0	34781	0	0	0	18644	17270	150315	27911	956904	37471	106793	0	0	8194	715542	0	0
2024-04-17 14:13:32			0	34768	0	0	0	18654	17280	150387	27699	956920	37450	106797	0	0	8193	716120	0	0
2024-04-17 14:14:32			0	34761	0	0	0	18638	17290	150347	27395	956981	37451	106791	0	0	8193	716412	0	0
2024-04-17 14:15:32			0	34719	0	0	0	18628	17290	150443	27642	956954	37451	106787	0	0	8191	718406	0	0
2024-04-17 14:16:32			0	34739	0	0	0	18618	17290	150403	27521	956989	37451	106783	0	0	8192	717456	0	0
2024-04-17 14:17:32			0	34728	0	0	0	18628	17300	150455	27640	956918	37461	106787	0	0	8192	717940	0	0
2024-04-17 14:18:32			0	34727	0	0	0	18625	17290	150439	27953	956963	37451	106786	0	0	8192	718026	0	0
2024-04-17 14:19:32			0	34733	0	0	0	18625	17290	150419	27869	956910	37461	106786	0	0	8192	717741	0	0
2024-04-17 14:20:32			0	34709	0	0	0	18612	17290	150631	27497	956910	37451	106781	0	0	8191	718881	0	0
2024-04-17 14:21:32			0	34672	0	0	0	18599	17290	150595	27914	956910	37440	106776	0	0	8189	720642	0	0
2024-04-17 14:22:32			0	34663	0	0	0	18587	17280	150619	27833	956867	37450	106771	0	0	8189	721110	0	0
2024-04-17 14:23:32			0	34636	0	0	0	18605	17280	150799	27772	956833	37449	106778	0	0	8187	722398	0	0
2024-04-17 14:24:32			0	34623	0	0	0	18620	17280	150939	27894	956920	37439	106784	0	0	8186	723018	0	0
2024-04-17 14:25:32			0	34612	0	0	0	18620	17280	150915	27880	956920	37460	106784	0	0	8185	723544	0	0
2024-04-17 14:26:32			0	34605	0	0	0	18623	17280	150995	28100	956946	37460	106785	0	0	8185	723878	0	0
2024-04-17 14:27:32			0	34599	0	0	0	18641	17280	151079	27831	956893	37450	106792	0	0	8184	724165	0	0
2024-04-17 14:28:32			0	34588	0	0	0	18644	17280	151035	27786	956946	37460	106793	0	0	8183	724691	0	0
2024-04-17 14:29:32			0	34590	0	0	0	18651	17300	151031	27911	956971	37451	106796	0	0	8183	724517	0	0
2024-04-17 14:30:32			0	34573	0	0	0	18638	17290	151027	27537	956910	37451	106791	0	0	8183	725369	0	0
2024-04-17 14:31:32			0	34559	0	0	0	18631	17290	151175	27725	956928	37461	106788	0	0	8182	726040	0	0
2024-04-17 14:32:32			0	34549	0	0	0	18636	17290	151251	27862	956981	37472	106790	0	0	8181	726519	0	0
2024-04-17 14:33:32			0	34564	0	0	0	18633	17290	151119	27881	956936	37451	106789	0	0	8182	725800	0	0
2024-04-17 14:34:32			0	34561	0	0	0	18633	17290	151179	27826	956936	37472	106789	0	0	8182	725944	0	0
2024-04-17 14:35:32			0	34545	0	0	0	18638	17290	151243	27862	956910	37472	106791	0	0	8181	726711	0	0
2024-04-17 14:36:32			0	34555	0	0	0	18646	17290	151243	28060	956936	37451	106794	0	0	8182	726231	0	0
2024-04-17 14:37:32			0	34555	0	0	0	18654	17290	151151	28096	956963	37451	106797	0	0	8181	726231	0	0
2024-04-17 14:38:32			0	34553	0	0	0	18649	17300	151215	27911	957005	37452	106795	0	0	8181	726288	0	0
2024-04-17 14:39:32			0	34553	0	0	0	18657	17300	151175	27916	957005	37462	106798	0	0	8181	726288	0	0
2024-04-17 14:40:32			0	34570	0	0	0	18664	17300	151255	27711	956997	37461	106801	0	0	8182	725474	0	0
2024-04-17 14:41:32			0	34565	0	0	0	18646	17310	151115	27842	957013	37474	106794	0	0	8182	725674	0	0
2024-04-17 14:42:32			0	34553	0	0	0	18623	17310	151155	27800	956961	37463	106785	0	0	8182	726248	0	0
2024-04-17 14:43:32			0	34582	0	0	0	18625	17310	151011	27594	957022	37453	106786	0	0	8184	724860	0	0
2024-04-17 14:44:32			0	34568	0	0	0	18625	17320	151063	28086	957056	37453	106786	0	0	8183	725491	0	0
2024-04-17 14:45:32			0	34573	0	0	0	18659	17310	151179	27706	957013	37474	106799	0	0	8182	725291	0	0
2024-04-17 14:46:32			0	34582	0	0	0	18677	17320	151087	27798	957056	37453	106806	0	0	8183	724821	0	0
2024-04-17 14:47:32			0	34570	0	0	0	18701	17310	151167	27450	957093	37453	106815	0	0	8182	725434	0	0
2024-04-17 14:48:32			0	34586	0	0	0	18716	17320	151187	27809	957170	37442	106821	0	0	8182	724629	0	0
2024-04-17 14:49:32			0	34589	0	0	0	18719	17330	151191	27469	957152	37476	106822	0	0	8182	724446	0	0
2024-04-17 14:50:32			0	34599	0	0	0	18729	17340	151187	27763	957221	37476	106826	0	0	8183	723929	0	0
2024-04-17 14:51:32			0	34574	0	0	0	18729	17350	150991	27563	957263	37477	106826	0	0	8181	725085	0	0
2024-04-17 14:52:32			0	34575	0	0	0	18719	17350	151019	27474	957263	37477	106822	0	0	8182	725037	0	0
2024-04-17 14:53:32			0	34609	0	0	0	18724	17350	151019	27873	957263	37477	106824	0	0	8184	723412	0	0
2024-04-17 14:54:32			0	34584	0	0	0	18732	17370	151135	27708	957288	37478	106827	0	0	8182	724528	0	0
2024-04-17 14:55:32			0	34557	0	0	0	18711	17360	151163	27478	957298	37478	106819	0	0	8181	725860	0	0
2024-04-17 14:56:32			0	34579	0	0	0	18703	17360	151043	27512	957298	37478	106816	0	0	8182	724807	0	0
2024-04-17 14:57:32			0	34592	0	0	0	18714	17360	151067	27630	957280	37478	106820	0	0	8183	724185	0	0
2024-04-17 14:58:32			0	34592	0	0	0	18670	17370	151051	27519	957296	37458	106803	0	0	8184	724146	0	0
2024-04-17 14:59:32			0	34590	0	0	0	18690	17370	150967	27687	957314	37457	106811	0	0	8183	724241	0	0
2024-04-17 15:00:32			0	34603	0	0	0	18620	17380	150971	27521	957252	37468	106784	0	0	8185	723580	0	0
2024-04-17 15:01:32			0	34600	0	0	0	18599	17360	150875	27571	957227	37457	106776	0	0	8185	723803	0	0
2024-04-17 15:02:32			0	34603	0	0	0	18587	17360	150987	27970	957121	37446	106771	0	0	8186	723659	0	0
2024-04-17 15:03:32			0	34586	0	0	0	18587	17360	151087	27864	957139	37434	106771	0	0	8185	724472	0	0
2024-04-17 15:04:32			0	34598	0	0	0	18579	17350	151083	27621	957097	37465	106768	0	0	8185	723937	0	0
2024-04-17 15:05:32			0	34580	0	0	0	18574	17330	151035	27928	956914	37454	106766	0	0	8184	724877	0	0
2024-04-17 15:06:32			0	34575	0	0	0	18581	17320	151063	27947	957011	37442	106769	0	0	8184	725155	0	0
2024-04-17 15:07:32			0	34575	0	0	0	18576	17320	151047	27925	956950	37441	106767	0	0	8184	725155	0	0
2024-04-17 15:08:32			0	34560	0	0	0	18574	17300	151031	27556	956979	37452	106766	0	0	8183	725952	0	0
2024-04-17 15:09:32			0	34563	0	0	0	18571	17300	151159	27711	956873	37441	106765	0	0	8183	725809	0	0
2024-04-17 15:10:32			0	34548	0	0	0	18589	17300	151203	27772	956873	37441	106772	0	0	8182	726528	0	0
2024-04-17 15:11:32			0	34563	0	0	0	18610	17300	151199	27467	956944	37472	106780	0	0	8183	725809	0	0
2024-04-17 15:12:32			0	34565	0	0	0	18628	17300	151119	27840	956971	37461	106787	0	0	8182	725713	0	0
2024-04-17 15:13:32			0	34562	0	0	0	18628	17300	151131	27836	956997	37472	106787	0	0	8182	725857	0	0
2024-04-17 15:14:32			0	34585	0	0	0	18638	17300	151111	27303	957032	37452	106791	0	0	8183	724756	0	0
2024-04-17 15:15:32			0	34600	0	0	0	18633	17300	151103	27460	956997	37461	106789	0	0	8184	724039	0	0
2024-04-17 15:16:32			0	34587	0	0	0	18657	17310	151007	27852	957013	37453	106798	0	0	8183	724621	0	0
2024-04-17 15:17:32			0	34631	0	0	0	18696	17310	150903	27888	957074	37453	106813	0	0	8185	722518	0	0
2024-04-17 15:18:32			0	34615	0	0	0	18716	17310	150963	27765	957154	37474	106821	0	0	8184	723282	0	0
2024-04-17 15:19:32			0	34615	0	0	0	18719	17330	150975	27623	957204	37464	106822	0	0	8184	723204	0	0
2024-04-17 15:20:32			0	34616	0	0	0	18727	17330	150883	27800	957152	37476	106825	0	0	8184	723156	0	0
2024-04-17 15:21:32			0	34633	0	0	0	18727	17350	150951	27829	957255	37476	106825	0	0	8185	722266	0	0
2024-04-17 15:22:32			0	34626	0	0	0	18732	17350	150907	27594	957290	37477	106827	0	0	8184	722600	0	0
2024-04-17 15:23:32			0	34638	0	0	0	18727	17360	150867	27854	957324	37478	106825	0	0	8185	721988	0	0
2024-04-17 15:24:32			0	34633	0	0	0	18714	17360	150875	27549	957280	37478	106820	0	0	8185	722227	0	0
2024-04-17 15:25:32			0	34626	0	0	0	18696	17370	150823	27763	957262	37446	106813	0	0	8185	722522	0	0
2024-04-17 15:26:32			0	34660	0	0	0	18701	17360	150815	27895	957227	37478	106815	0	0	8187	720940	0	0
2024-04-17 15:27:32			0	34652	0	0	0	18709	17370	150747	27599	957262	37478	106818	0	0	8186	721282	0	0
2024-04-17 15:28:32			0	34658	0	0	0	18693	17360	150675	27731	957227	37457	106812	0	0	8187	721035	0	0
2024-04-17 15:29:32			0	34675	0	0	0	18690	17360	150699	27365	957192	37478	106811	0	0	8188	720225	0	0
2024-04-17 15:30:32			0	34674	0	0	0	18680	17360	150707	27933	957253	37478	106807	0	0	8188	720273	0	0
2024-04-17 15:31:32			0	34685	0	0	0	18667	17370	150647	27848	957182	37467	106802	0	0	8189	719710	0	0
2024-04-17 15:32:32			0	34691	0	0	0	18677	17360	150691	27741	957245	37478	106806	0	0	8189	719464	0	0
2024-04-17 15:33:32			0	34682	0	0	0	18659	17360	150571	27517	957139	37478	106799	0	0	8189	719892	0	0
2024-04-17 15:34:32			0	34667	0	0	0	18667	17350	150659	27866	957184	37456	106802	0	0	8188	720645	0	0
2024-04-17 15:35:32			0	34676	0	0	0	18672	17350	150695	27677	957131	37456	106804	0	0	8188	720217	0	0
2024-04-17 15:36:32			0	34659	0	0	0	18675	17350	150743	28008	957184	37456	106805	0	0	8187	721027	0	0
2024-04-17 15:37:32			0	34663	0	0	0	18662	17350	150767	27819	957158	37466	106800	0	0	8188	720836	0	0
2024-04-17 15:38:32			0	34677	0	0	0	18672	17350	150671	27947	957202	37455	106804	0	0	8188	720169	0	0
2024-04-17 15:39:32			0	34692	0	0	0	18672	17350	150683	27840	957210	37488	106804	0	0	8189	719455	0	0
2024-04-17 15:40:32			0	34690	0	0	0	18675	17350	150719	27881	957210	37456	106805	0	0	8189	719551	0	0
2024-04-17 15:41:32			0	34672	0	0	0	18672	17350	150707	27739	957263	37456	106804	0	0	8188	720407	0	0
2024-04-17 15:42:32			0	34669	0	0	0	18672	17350	150719	27646	957184	37456	106804	0	0	8188	720550	0	0
2024-04-17 15:43:32			0	34662	0	0	0	18672	17350	150707	27746	957176	37465	106804	0	0	8187	720884	0	0
2024-04-17 15:44:32			0	34669	0	0	0	18672	17360	150791	27850	957219	37467	106804	0	0	8188	720511	0	0
2024-04-17 15:45:32			0	34653	0	0	0	18670	17350	150847	27776	957176	37476	106803	0	0	8187	721312	0	0
2024-04-17 15:46:32			0	34648	0	0	0	18685	17350	150899	28192	957229	37476	106809	0	0	8186	721551	0	0
2024-04-17 15:47:32			0	34653	0	0	0	18703	17340	150875	27878	957247	37465	106816	0	0	8186	721352	0	0
2024-04-17 15:48:32			0	34644	0	0	0	18709	17350	150903	27887	957229	37476	106818	0	0	8186	721741	0	0
2024-04-17 15:49:32			0	34628	0	0	0	18698	17350	150907	27895	957290	37477	106814	0	0	8185	722505	0	0
2024-04-17 15:50:32			0	34640	0	0	0	18693	17350	150955	27783	957184	37466	106812	0	0	8186	721932	0	0
2024-04-17 15:51:32			0	34635	0	0	0	18716	17350	150875	27557	957290	37477	106821	0	0	8185	722171	0	0
2024-04-17 15:52:32			0	34630	0	0	0	18711	17360	150875	27833	957280	37478	106819	0	0	8185	722370	0	0
2024-04-17 15:53:32			0	34614	0	0	0	18703	17360	150911	27757	957332	37446	106816	0	0	8184	723134	0	0
2024-04-17 15:54:32			0	34614	0	0	0	18703	17360	150935	27802	957280	37467	106816	0	0	8184	723134	0	0
2024-04-17 15:55:32			0	34626	0	0	0	18711	17370	150999	27899	957367	37446	106819	0	0	8185	722522	0	0
2024-04-17 15:56:32			0	34620	0	0	0	18709	17370	150975	27583	957314	37478	106818	0	0	8184	722808	0	0
2024-04-17 15:57:32			0	34612	0	0	0	18719	17370	150967	27696	957323	37468	106822	0	0	8184	723190	0	0
2024-04-17 15:58:32			0	34611	0	0	0	18714	17380	151027	27814	957331	37480	106820	0	0	8184	723198	0	0
2024-04-17 15:59:32			0	34619	0	0	0	18735	17380	151027	27774	957304	37491	106828	0	0	8184	722816	0	0
2024-04-17 16:00:32			0	34614	0	0	0	18716	17370	150971	27757	957323	37468	106821	0	0	8184	723094	0	0
2024-04-17 16:01:32			0	34600	0	0	0	18724	17380	150999	27911	957339	37480	106824	0	0	8183	723724	0	0
2024-04-17 16:02:32			0	34603	0	0	0	18724	17390	151023	27661	957373	37468	106824	0	0	8183	723541	0	0
2024-04-17 16:03:32			0	34596	0	0	0	18732	17380	151075	28037	957418	37491	106827	0	0	8183	723915	0	0
2024-04-17 16:04:32			0	34601	0	0	0	18727	17380	150943	27755	957339	37480	106825	0	0	8183	723676	0	0
2024-04-17 16:05:32			0	34597	0	0	0	18737	17400	150947	27956	957443	37470	106829	0	0	8183	723789	0	0
2024-04-17 16:06:32			0	34582	0	0	0	18724	17390	150995	27711	957408	37481	106824	0	0	8182	724545	0	0
2024-04-17 16:07:32			0	34589	0	0	0	18729	17400	151079	27947	957416	37481	106826	0	0	8183	724171	0	0
2024-04-17 16:08:32			0	34596	0	0	0	18735	17400	151019	28081	957310	37470	106828	0	0	8183	723836	0	0
2024-04-17 16:09:32			0	34584	0	0	0	18732	17390	151107	27710	957400	37480	106827	0	0	8182	724449	0	0
2024-04-17 16:10:32			0	34582	0	0	0	18735	17390	151011	27866	957408	37458	106828	0	0	8182	724545	0	0
2024-04-17 16:11:32			0	34603	0	0	0	18701	17390	151007	27573	957355	37481	106815	0	0	8184	723541	0	0
2024-04-17 16:12:32			0	34611	0	0	0	18683	17390	150911	27836	957276	37458	106808	0	0	8185	723159	0	0
2024-04-17 16:13:32			0	34618	0	0	0	18688	17390	150855	27921	957355	37458	106810	0	0	8185	722825	0	0
2024-04-17 16:14:32			0	34655	0	0	0	18706	17390	150859	27646	957329	37469	106817	0	0	8187	721060	0	0
2024-04-17 16:15:32			0	34650	0	0	0	18693	17390	150751	27779	957294	37480	106812	0	0	8187	721298	0	0
2024-04-17 16:16:32			0	34664	0	0	0	18670	17390	150715	27750	957294	37480	106803	0	0	8188	720632	0	0
2024-04-17 16:17:32			0	34675	0	0	0	18672	17390	150739	27802	957347	37447	106804	0	0	8188	720108	0	0
2024-04-17 16:18:32			0	34656	0	0	0	18654	17390	150743	27795	957294	37468	106797	0	0	8188	721013	0	0
2024-04-17 16:19:32			0	34678	0	0	0	18641	17370	150643	27878	957191	37458	106792	0	0	8189	720043	0	0
2024-04-17 16:20:32			0	34663	0	0	0	18646	17370	150643	27883	957209	37457	106794	0	0	8188	720758	0	0
2024-04-17 16:21:32			0	34665	0	0	0	18641	17370	150799	28043	957235	37457	106792	0	0	8188	720662	0	0
2024-04-17 16:22:32			0	34639	0	0	0	18646	17370	150787	27774	957209	37434	106794	0	0	8187	721901	0	0
2024-04-17 16:23:32			0	34634	0	0	0	18649	17360	150839	27876	957219	37457	106795	0	0	8186	722179	0	0
2024-04-17 16:24:32			0	34635	0	0	0	18623	17360	150819	27975	957148	37467	106785	0	0	8187	722132	0	0
2024-04-17 16:25:32			0	34635	0	0	0	18623	17350	150819	27911	957158	37456	106785	0	0	8187	722171	0	0
2024-04-17 16:26:32			0	34655	0	0	0	18618	17350	150831	27760	957150	37465	106783	0	0	8188	721217	0	0
2024-04-17 16:27:32			0	34638	0	0	0	18620	17340	150791	27815	957115	37465	106784	0	0	8187	722067	0	0
2024-04-17 16:28:32			0	34649	0	0	0	18623	17340	150795	28279	957089	37455	106785	0	0	8187	721542	0	0
2024-04-17 16:29:32			0	34634	0	0	0	18615	17320	150739	27966	957143	37475	106782	0	0	8187	722336	0	0
2024-04-17 16:30:32			0	34642	0	0	0	18615	17320	150803	27713	957064	37453	106782	0	0	8187	721955	0	0
2024-04-17 16:31:32			0	34642	0	0	0	18610	17320	150775	27975	957091	37453	106780	0	0	8187	721955	0	0
2024-04-17 16:32:32			0	34660	0	0	0	18612	17320	150691	27795	957091	37464	106781	0	0	8188	721096	0	0
2024-04-17 16:33:32			0	34667	0	0	0	18599	17320	150751	27711	957082	37453	106776	0	0	8189	720763	0	0
2024-04-17 16:34:32			0	34649	0	0	0	18589	17320	150719	27680	957091	37464	106772	0	0	8188	721621	0	0
2024-04-17 16:35:32			0	34685	0	0	0	18592	17320	150643	28005	956985	37475	106773	0	0	8190	719906	0	0
2024-04-17 16:36:32			0	34671	0	0	0	18579	17300	150667	28053	956997	37461	106768	0	0	8189	720651	0	0
2024-04-17 16:37:32			0	34683	0	0	0	18589	17300	150563	27821	957032	37452	106772	0	0	8190	720079	0	0
2024-04-17 16:38:32			0	34706	0	0	0	18563	17300	150575	27547	956971	37461	106762	0	0	8191	718985	0	0
2024-04-17 16:39:32			0	34692	0	0	0	18581	17300	150515	27777	956971	37451	106769	0	0	8190	719651	0	0
2024-04-17 16:40:32			0	34701	0	0	0	18589	17300	150567	27987	956891	37461	106772	0	0	8191	719223	0	0
2024-04-17 16:41:32			0	34708	0	0	0	18579	17300	150543	27961	956944	37461	106768	0	0	8191	718890	0	0
2024-04-17 16:42:32			0	34726	0	0	0	18587	17290	150471	27994	956954	37451	106771	0	0	8192	718073	0	0
2024-04-17 16:43:32			0	34698	0	0	0	18584	17280	150399	27926	956920	37450	106770	0	0	8191	719444	0	0
2024-04-17 16:44:32			0	34722	0	0	0	18581	17290	150547	27802	956936	37472	106769	0	0	8192	718264	0	0
2024-04-17 16:45:32			0	34728	0	0	0	18579	17290	150487	28140	956954	37461	106768	0	0	8192	717979	0	0
2024-04-17 16:46:32			0	34710	0	0	0	18587	17290	150427	27966	956954	37472	106771	0	0	8191	718834	0	0
2024-04-17 16:47:32			0	34721	0	0	0	18584	17290	150515	27639	956954	37451	106770	0	0	8192	718311	0	0
2024-04-17 16:48:32			0	34724	0	0	0	18592	17280	150423	27502	956973	37483	106773	0	0	8192	718208	0	0
2024-04-17 16:49:32			0	34735	0	0	0	18628	17290	150487	27614	957034	37472	106787	0	0	8192	717646	0	0
2024-04-17 16:50:32			0	34730	0	0	0	18592	17290	150455	27414	957015	37451	106773	0	0	8192	717884	0	0
2024-04-17 16:51:32			0	34738	0	0	0	18587	17290	150407	27659	957007	37483	106771	0	0	8193	717504	0	0
2024-04-17 16:52:32			0	34756	0	0	0	18581	17300	150411	27552	957058	37462	106769	0	0	8194	716611	0	0
2024-04-17 16:53:32			0	34736	0	0	0	18592	17300	150391	27732	957076	37472	106773	0	0	8193	717560	0	0
2024-04-17 16:54:32			0	34735	0	0	0	18581	17290	150475	27757	956963	37451	106769	0	0	8193	717646	0	0
2024-04-17 16:55:32			0	34721	0	0	0	18584	17290	150395	27594	956902	37451	106770	0	0	8192	718311	0	0
2024-04-17 16:56:32			0	34743	0	0	0	18579	17290	150399	27852	956902	37451	106768	0	0	8193	717266	0	0
2024-04-17 16:57:32			0	34743	0	0	0	18558	17280	150371	27805	956912	37449	106760	0	0	8194	717305	0	0
2024-04-17 16:58:32			0	34751	0	0	0	18571	17280	150399	27741	956833	37449	106765	0	0	8194	716926	0	0
2024-04-17 16:59:32			0	34745	0	0	0	18612	17270	150451	27831	956869	37459	106781	0	0	8193	717249	0	0
2024-04-17 17:00:32			0	34735	0	0	0	18610	17270	150487	27850	956948	37459	106780	0	0	8192	717724	0	0
2024-04-17 17:01:32			0	34741	0	0	0	18589	17280	150515	27649	956912	37449	106772	0	0	8193	717400	0	0
2024-04-17 17:02:32			0	34747	0	0	0	18574	17270	150499	27573	956904	37449	106766	0	0	8193	717154	0	0
2024-04-17 17:03:32			0	34738	0	0	0	18581	17270	150555	27966	956877	37438	106769	0	0	8193	717582	0	0
2024-04-17 17:04:32			0	34719	0	0	0	18566	17260	150511	27588	956887	37448	106763	0	0	8192	718523	0	0
2024-04-17 17:05:32			0	34737	0	0	0	18568	17270	150503	27531	956922	37459	106764	0	0	8193	717629	0	0
2024-04-17 17:06:32			0	34726	0	0	0	18558	17260	150535	27670	956861	37459	106760	0	0	8193	718191	0	0
2024-04-17 17:07:32			0	34737	0	0	0	18563	17260	150467	27526	956887	37470	106762	0	0	8193	717668	0	0
2024-04-17 17:08:32			0	34726	0	0	0	18566	17260	150515	27305	956800	37448	106763	0	0	8192	718191	0	0
2024-04-17 17:09:32			0	34751	0	0	0	18558	17250	150459	27319	956792	37458	106760	0	0	8194	717043	0	0
2024-04-17 17:10:32			0	34759	0	0	0	18566	17260	150371	27281	956835	37448	106763	0	0	8194	716624	0	0
2024-04-17 17:11:32			0	34784	0	0	0	18563	17250	150275	27452	956784	37458	106762	0	0	8196	715478	0	0
2024-04-17 17:12:32			0	34764	0	0	0	18566	17240	150275	27436	956776	37458	106763	0	0	8194	716465	0	0
2024-04-17 17:13:32			0	34808	0	0	0	18563	17250	150251	27431	956731	37458	106762	0	0	8197	714342	0	0
2024-04-17 17:14:32			0	34810	0	0	0	18579	17240	150215	27313	956802	37468	106768	0	0	8197	714286	0	0
2024-04-17 17:15:32			0	34837	0	0	0	18576	17240	150111	27232	956794	37457	106767	0	0	8198	713009	0	0
2024-04-17 17:16:32			0	34862	0	0	0	18574	17240	150067	27209	956802	37447	106766	0	0	8200	711829	0	0
2024-04-17 17:17:32			0	34872	0	0	0	18576	17240	149831	27293	956767	37446	106767	0	0	8200	711357	0	0
2024-04-17 17:18:32			0	34893	0	0	0	18574	17240	149803	27783	956776	37458	106766	0	0	8202	710367	0	0
2024-04-17 17:19:32			0	34897	0	0	0	18574	17250	149819	27505	956836	37468	106766	0	0	8202	710140	0	0
2024-04-17 17:20:32			0	34886	0	0	0	18587	17240	149791	27204	956828	37468	106771	0	0	8201	710697	0	0
2024-04-17 17:21:32			0	34897	0	0	0	18597	17250	149759	27189	956845	37458	106775	0	0	8201	710140	0	0
2024-04-17 17:22:32			0	34894	0	0	0	18584	17260	149815	27381	956906	37469	106770	0	0	8201	710243	0	0
2024-04-17 17:23:32			0	34900	0	0	0	18589	17260	149851	27270	956932	37480	106772	0	0	8202	709960	0	0
2024-04-17 17:24:32			0	34899	0	0	0	18589	17260	149843	27578	956958	37458	106772	0	0	8202	710007	0	0
2024-04-17 17:25:32			0	34894	0	0	0	18594	17250	149835	27505	956889	37479	106774	0	0	8201	710281	0	0
2024-04-17 17:26:32			0	34886	0	0	0	18605	17260	149843	27409	956835	37470	106778	0	0	8201	710619	0	0
2024-04-17 17:27:32			0	34882	0	0	0	18594	17260	149779	27286	956853	37458	106774	0	0	8201	710808	0	0
2024-04-17 17:28:32			0	34859	0	0	0	18581	17260	149827	27189	956861	37470	106769	0	0	8200	711893	0	0
2024-04-17 17:29:32			0	34849	0	0	0	18592	17250	149955	27140	956863	37468	106773	0	0	8199	712404	0	0
2024-04-17 17:30:32			0	34836	0	0	0	18576	17250	149903	27118	956871	37448	106767	0	0	8198	713018	0	0
2024-04-17 17:31:32			0	34823	0	0	0	18581	17250	149967	27142	956792	37448	106769	0	0	8198	713632	0	0
2024-04-17 17:32:32			0	34813	0	0	0	18574	17240	150047	27519	956802	37468	106766	0	0	8197	714144	0	0
2024-04-17 17:33:32			0	34780	0	0	0	18563	17250	150119	27500	956836	37458	106762	0	0	8195	715667	0	0
2024-04-17 17:34:32			0	34771	0	0	0	18555	17250	150203	27421	956784	37468	106759	0	0	8195	716094	0	0
2024-04-17 17:35:32			0	34785	0	0	0	18555	17230	150315	27421	956706	37466	106759	0	0	8196	715508	0	0
2024-04-17 17:36:32			0	34776	0	0	0	18550	17240	150263	27358	956767	37467	106757	0	0	8195	715896	0	0
2024-04-17 17:37:32			0	34785	0	0	0	18537	17230	150291	27249	956706	37466	106752	0	0	8196	715508	0	0
2024-04-17 17:38:32			0	34765	0	0	0	18519	17230	150335	27711	956698	37466	106745	0	0	8195	716456	0	0
2024-04-17 17:39:32			0	34767	0	0	0	18506	17220	150315	27556	956663	37455	106740	0	0	8196	716400	0	0
2024-04-17 17:40:32			0	34760	0	0	0	18503	17200	150311	27282	956623	37443	106739	0	0	8195	716810	0	0
2024-04-17 17:41:32			0	34737	0	0	0	18501	17210	150371	27476	956613	37455	106738	0	0	8194	717863	0	0
2024-04-17 17:42:32			0	34732	0	0	0	18503	17200	150347	27393	956570	37443	106739	0	0	8194	718140	0	0
2024-04-17 17:43:32			0	34713	0	0	0	18503	17190	150499	27360	956562	37442	106739	0	0	8192	719082	0	0
2024-04-17 17:44:32			0	34709	0	0	0	18496	17190	150507	27575	956554	37453	106736	0	0	8192	719272	0	0
2024-04-17 17:45:32			0	34697	0	0	0	18480	17190	150619	27550	956509	37442	106730	0	0	8192	719843	0	0
2024-04-17 17:46:32			0	34706	0	0	0	18485	17180	150707	27182	956519	37441	106732	0	0	8192	719454	0	0
2024-04-17 17:47:32			0	34695	0	0	0	18496	17180	150667	27097	956519	37441	106736	0	0	8191	719977	0	0
2024-04-17 17:48:32			0	34692	0	0	0	18493	17170	150715	27739	956548	37461	106735	0	0	8191	720159	0	0
2024-04-17 17:49:32			0	34685	0	0	0	18490	17170	150639	27549	956503	37440	106734	0	0	8191	720492	0	0
2024-04-17 17:50:32			0	34680	0	0	0	18493	17170	150655	27512	956477	37451	106735	0	0	8191	720731	0	0
2024-04-17 17:51:32			0	34702	0	0	0	18496	17160	150667	27601	956452	37460	106736	0	0	8192	719722	0	0
2024-04-17 17:52:32			0	34715	0	0	0	18483	17170	150679	27199	956503	37451	106731	0	0	8193	719065	0	0
2024-04-17 17:53:32			0	34728	0	0	0	18477	17160	150663	27377	956479	37439	106729	0	0	8194	718486	0	0
2024-04-17 17:54:32			0	34701	0	0	0	18483	17150	150551	27208	956470	37439	106731	0	0	8192	719809	0	0
2024-04-17 17:55:32			0	34707	0	0	0	18485	17150	150579	27632	956470	37439	106732	0	0	8192	719523	0	0
2024-04-17 17:56:32			0	34703	0	0	0	18470	17150	150655	27202	956497	37439	106726	0	0	8192	719714	0	0
2024-04-17 17:57:32			0	34707	0	0	0	18475	17160	150563	27433	956452	37439	106728	0	0	8192	719484	0	0
2024-04-17 17:58:32			0	34709	0	0	0	18467	17140	150615	27334	956375	37449	106725	0	0	8193	719467	0	0
2024-04-17 17:59:32			0	34705	0	0	0	18475	17150	150663	27286	956410	37439	106728	0	0	8192	719618	0	0
2024-04-17 18:00:32			0	34703	0	0	0	18480	17140	150659	27405	956375	37427	106730	0	0	8192	719753	0	0
2024-04-17 18:01:32			0	34706	0	0	0	18477	17140	150699	27267	956428	37438	106729	0	0	8192	719610	0	0
2024-04-17 18:02:32			0	34683	0	0	0	18472	17140	150679	27232	956446	37437	106727	0	0	8191	720705	0	0
2024-04-17 18:03:32			0	34694	0	0	0	18470	17140	150663	27377	956454	37459	106726	0	0	8192	720181	0	0
2024-04-17 18:04:32			0	34693	0	0	0	18475	17140	150675	27416	956446	37469	106728	0	0	8192	720229	0	0
2024-04-17 18:05:32			0	34678	0	0	0	18480	17140	150731	27400	956393	37458	106730	0	0	8191	720943	0	0
2024-04-17 18:06:32			0	34686	0	0	0	18470	17140	150687	27649	956420	37469	106726	0	0	8191	720562	0	0
2024-04-17 18:07:32			0	34682	0	0	0	18467	17130	150675	27303	956359	37437	106725	0	0	8191	720792	0	0
2024-04-17 18:08:32			0	34685	0	0	0	18464	17140	150703	27805	956393	37458	106724	0	0	8191	720610	0	0
2024-04-17 18:09:32			0	34672	0	0	0	18462	17130	150659	27772	956411	37437	106723	0	0	8191	721268	0	0
2024-04-17 18:10:32			0	34681	0	0	0	18467	17130	150675	27376	956411	37458	106725	0	0	8191	720840	0	0
2024-04-17 18:11:32			0	34682	0	0	0	18464	17120	150739	27599	956395	37458	106724	0	0	8191	720831	0	0
2024-04-17 18:12:32			0	34678	0	0	0	18464	17130	150807	27041	956403	37436	106724	0	0	8191	720982	0	0
2024-04-17 18:13:32			0	34684	0	0	0	18464	17120	150847	27436	956395	37436	106724	0	0	8191	720736	0	0
2024-04-17 18:14:32			0	34687	0	0	0	18459	17130	150611	27286	956377	37447	106722	0	0	8191	720554	0	0
2024-04-17 18:15:32			0	34672	0	0	0	18454	17130	150787	27403	956377	37436	106720	0	0	8191	721268	0	0
2024-04-17 18:16:32			0	34672	0	0	0	18454	17120	150807	27403	956342	37458	106720	0	0	8191	721308	0	0
2024-04-17 18:17:32			0	34684	0	0	0	18454	17120	150675	27336	956342	37458	106720	0	0	8191	720736	0	0
2024-04-17 18:18:32			0	34685	0	0	0	18444	17120	150787	27308	956369	37436	106716	0	0	8192	720688	0	0
2024-04-17 18:19:32			0	34692	0	0	0	18451	17120	150823	27351	956361	37446	106719	0	0	8192	720355	0	0
2024-04-17 18:20:32			0	34687	0	0	0	18457	17110	150715	27218	956299	37446	106721	0	0	8191	720632	0	0
2024-04-17 18:21:32			0	34669	0	0	0	18451	17120	150751	27545	956334	37468	106719	0	0	8190	721451	0	0
2024-04-17 18:22:32			0	34685	0	0	0	18449	17120	150875	27402	956369	37447	106718	0	0	8191	720688	0	0
2024-04-17 18:23:32			0	34697	0	0	0	18444	17110	150731	27476	956291	37457	106716	0	0	8192	720156	0	0
2024-04-17 18:24:32			0	34688	0	0	0	18438	17110	150799	27689	956344	37423	106714	0	0	8192	720584	0	0
2024-04-17 18:25:32			0	34685	0	0	0	18444	17100	150631	26856	956283	37446	106716	0	0	8191	720766	0	0
2024-04-17 18:26:32			0	34676	0	0	0	18431	17100	150707	27497	956283	37434	106711	0	0	8191	721195	0	0
2024-04-17 18:27:32			0	34678	0	0	0	18438	17100	150699	27300	956283	37446	106714	0	0	8191	721100	0	0
2024-04-17 18:28:32			0	34690	0	0	0	18428	17100	150795	27665	956283	37434	106710	0	0	8192	720528	0	0
2024-04-17 18:29:32			0	34695	0	0	0	18428	17100	150715	27322	956222	37445	106710	0	0	8192	720290	0	0
2024-04-17 18:30:32			0	34668	0	0	0	18433	17100	150759	27109	956257	37457	106712	0	0	8191	721577	0	0
2024-04-17 18:31:32			0	34690	0	0	0	18423	17100	150747	27208	956301	37456	106708	0	0	8192	720528	0	0
2024-04-17 18:32:32			0	34683	0	0	0	18428	17100	150791	27472	956275	37445	106710	0	0	8192	720862	0	0
2024-04-17 18:33:32			0	34680	0	0	0	18433	17100	150659	26984	956301	37456	106712	0	0	8191	721005	0	0
2024-04-17 18:34:32			0	34697	0	0	0	18418	17100	150791	27145	956222	37445	106706	0	0	8193	720195	0	0
2024-04-17 18:35:32			0	34688	0	0	0	18418	17110	150839	27289	956239	37446	106706	0	0	8192	720584	0	0
2024-04-17 18:36:32			0	34681	0	0	0	18415	17090	150819	27415	956267	37433	106705	0	0	8192	720996	0	0
2024-04-17 18:37:32			0	34685	0	0	0	18423	17090	150939	27251	956259	37444	106708	0	0	8192	720805	0	0
2024-04-17 18:38:32			0	34693	0	0	0	18423	17090	150787	27422	956267	37444	106708	0	0	8192	720424	0	0
2024-04-17 18:39:32			0	34685	0	0	0	18415	17090	150755	27289	956188	37455	106705	0	0	8192	720805	0	0
2024-04-17 18:40:32			0	34680	0	0	0	18418	17090	150855	27415	956232	37444	106706	0	0	8192	721044	0	0
2024-04-17 18:41:32			0	34687	0	0	0	18415	17080	150799	27206	956163	37443	106705	0	0	8192	720749	0	0
2024-04-17 18:42:32			0	34675	0	0	0	18410	17090	150883	27235	956206	37455	106703	0	0	8191	721282	0	0
2024-04-17 18:43:32			0	34668	0	0	0	18423	17090	150899	27376	956232	37455	106708	0	0	8191	721616	0	0
2024-04-17 18:44:32			0	34675	0	0	0	18410	17080	150839	27133	956224	37455	106703	0	0	8191	721321	0	0
2024-04-17 18:45:32			0	34681	0	0	0	18420	17070	150871	27062	956155	37453	106707	0	0	8191	721074	0	0
2024-04-17 18:46:32			0	34683	0	0	0	18410	17080	150807	27296	956243	37443	106703	0	0	8192	720940	0	0
2024-04-17 18:47:32			0	34669	0	0	0	18420	17080	150879	27241	956224	37444	106707	0	0	8191	721607	0	0
2024-04-17 18:48:32			0	34666	0	0	0	18418	17070	150959	27436	956234	37453	106706	0	0	8191	721790	0	0
2024-04-17 18:49:32			0	34673	0	0	0	18410	17070	150855	27024	956155	37442	106703	0	0	8191	721456	0	0
2024-04-17 18:50:32			0	34685	0	0	0	18415	17080	150963	27462	956190	37432	106705	0	0	8192	720844	0	0
2024-04-17 18:51:32			0	34652	0	0	0	18410	17090	150943	26991	956180	37433	106703	0	0	8190	722379	0	0
2024-04-17 18:52:32			0	34671	0	0	0	18410	17080	150847	27142	956137	37432	106703	0	0	8191	721512	0	0
2024-04-17 18:53:32			0	34667	0	0	0	18415	17070	150995	27041	956173	37453	106705	0	0	8191	721742	0	0
2024-04-17 18:54:32			0	34652	0	0	0	18415	17070	150899	27331	956182	37453	106705	0	0	8190	722458	0	0
2024-04-17 18:55:32			0	34658	0	0	0	18412	17070	150923	27549	956200	37442	106704	0	0	8190	722171	0	0
2024-04-17 18:56:32			0	34650	0	0	0	18407	17080	151011	27256	956216	37454	106702	0	0	8190	722514	0	0
2024-04-17 18:57:32			0	34663	0	0	0	18405	17070	150943	27267	956182	37431	106701	0	0	8191	721933	0	0
2024-04-17 18:58:32			0	34649	0	0	0	18407	17080	150915	27448	956269	37454	106702	0	0	8190	722562	0	0
2024-04-17 18:59:32			0	34664	0	0	0	18412	17060	150955	27355	956104	37453	106704	0	0	8191	721924	0	0
2024-04-17 19:00:32			0	34649	0	0	0	18407	17080	150903	27324	956216	37454	106702	0	0	8190	722562	0	0
2024-04-17 19:01:32			0	34663	0	0	0	18407	17060	150907	27215	956165	37431	106702	0	0	8191	721972	0	0
2024-04-17 19:02:32			0	34655	0	0	0	18410	17070	150851	27454	956173	37464	106703	0	0	8190	722315	0	0
2024-04-17 19:03:32			0	34648	0	0	0	18410	17070	150935	27467	956147	37431	106703	0	0	8190	722649	0	0
2024-04-17 19:04:32			0	34655	0	0	0	18402	17070	151003	27033	956173	37442	106700	0	0	8190	722315	0	0
2024-04-17 19:05:32			0	34639	0	0	0	18410	17070	150959	27171	956121	37464	106703	0	0	8189	723078	0	0
2024-04-17 19:06:32			0	34629	0	0	0	18402	17070	150867	27189	956173	37453	106700	0	0	8189	723556	0	0
2024-04-17 19:07:32			0	34659	0	0	0	18405	17060	150827	27289	956104	37453	106701	0	0	8190	722163	0	0
2024-04-17 19:08:32			0	34656	0	0	0	18394	17060	150811	27345	956104	37453	106697	0	0	8190	722306	0	0
2024-04-17 19:09:32			0	34656	0	0	0	18405	17070	150899	27248	956121	37442	106701	0	0	8190	722267	0	0
2024-04-17 19:10:32			0	34658	0	0	0	18402	17060	150895	26745	956139	37453	106700	0	0	8190	722210	0	0
2024-04-17 19:11:32			0	34646	0	0	0	18402	17060	150951	27381	956139	37453	106700	0	0	8190	722783	0	0
2024-04-17 19:12:32			0	34667	0	0	0	18392	17060	150907	26847	956139	37442	106696	0	0	8191	721781	0	0
2024-04-17 19:13:32			0	34653	0	0	0	18376	17050	150855	26800	956096	37452	106690	0	0	8191	722488	0	0
2024-04-17 19:14:32			0	34664	0	0	0	18368	17060	150895	27140	956078	37441	106687	0	0	8191	721924	0	0
2024-04-17 19:15:32			0	34660	0	0	0	18376	17050	150831	27376	956096	37429	106690	0	0	8191	722154	0	0
2024-04-17 19:16:32			0	34660	0	0	0	18374	17050	150967	27332	956088	37429	106689	0	0	8191	722154	0	0
2024-04-17 19:17:32			0	34643	0	0	0	18358	17050	150911	27256	956017	37452	106683	0	0	8190	722966	0	0
2024-04-17 19:18:32			0	34648	0	0	0	18272	17040	150939	27315	956054	37441	106650	0	0	8192	722766	0	0
2024-04-17 19:19:32			0	34674	0	0	0	18241	17040	150999	27338	956027	37462	106638	0	0	8194	721525	0	0
2024-04-17 19:20:32			0	34657	0	0	0	18140	17040	150791	27078	955974	37452	106599	0	0	8195	722337	0	0
2024-04-17 19:21:32			0	34662	0	0	0	18122	17030	150903	26989	955887	37429	106592	0	0	8195	722137	0	0
2024-04-17 19:22:32			0	34687	0	0	0	18093	17020	150759	27123	955810	37416	106581	0	0	8197	720984	0	0
2024-04-17 19:23:32			0	34690	0	0	0	17981	16990	150639	27145	955505	37404	106538	0	0	8199	720958	0	0
2024-04-17 19:24:32			0	34710	0	0	0	17981	16970	150635	27118	955464	37402	106538	0	0	8200	720084	0	0
2024-04-17 19:25:32			0	34752	0	0	0	17986	16940	150507	27012	955337	37409	106540	0	0	8202	718202	0	0
2024-04-17 19:26:32			0	34783	0	0	0	17974	16920	150263	27013	955278	37385	106535	0	0	8204	716808	0	0
2024-04-17 19:27:32			0	34827	0	0	0	17961	16900	150111	26981	955140	37384	106530	0	0	8207	714799	0	0
2024-04-17 19:28:32			0	34859	0	0	0	17963	16870	150007	26984	955038	37381	106531	0	0	8208	713401	0	0
2024-04-17 19:29:32			0	34883	0	0	0	17953	16850	149971	26897	955040	37391	106527	0	0	8210	712344	0	0
2024-04-17 19:30:32			0	34884	0	0	0	17950	16840	149955	27074	955024	37402	106526	0	0	8210	712335	0	0
2024-04-17 19:31:32			0	34892	0	0	0	17984	16830	149991	26849	955026	37399	106539	0	0	8210	711996	0	0
2024-04-17 19:32:32			0	34880	0	0	0	17999	16830	149931	27038	955060	37389	106545	0	0	8209	712563	0	0
2024-04-17 19:33:32			0	34869	0	0	0	18020	16830	149971	26970	955086	37389	106553	0	0	8208	713083	0	0
2024-04-17 19:34:32			0	34845	0	0	0	18067	16840	150179	26811	955147	37401	106571	0	0	8206	714179	0	0
2024-04-17 19:35:32			0	34799	0	0	0	18090	16840	150375	26922	955253	37390	106580	0	0	8203	716359	0	0
2024-04-17 19:36:32			0	34744	0	0	0	18181	16850	150551	27183	955277	37402	106615	0	0	8198	718933	0	0
2024-04-17 19:37:32			0	34693	0	0	0	18275	16850	150891	26854	955401	37423	106651	0	0	8194	721363	0	0
2024-04-17 19:38:32			0	34666	0	0	0	18257	16870	151099	27159	955460	37415	106644	0	0	8192	722573	0	0
2024-04-17 19:39:32			0	34628	0	0	0	18301	16890	151203	26970	955546	37405	106661	0	0	8190	724311	0	0
2024-04-17 19:40:32			0	34593	0	0	0	18285	16900	151363	27306	955702	37407	106655	0	0	8188	725947	0	0
2024-04-17 19:41:32			0	34590	0	0	0	18257	16910	151279	26908	955684	37429	106644	0	0	8188	726052	0	0
2024-04-17 19:42:32			0	34598	0	0	0	18184	16910	151295	26998	955665	37418	106616	0	0	8190	725668	0	0
2024-04-17 19:43:32			0	34600	0	0	0	18085	16900	151287	27253	955509	37406	106578	0	0	8192	725612	0	0
2024-04-17 19:44:32			0	34591	0	0	0	18077	16910	151219	27249	955446	37408	106575	0	0	8191	726004	0	0
2024-04-17 19:45:32			0	34592	0	0	0	18036	16900	151135	27367	955377	37416	106559	0	0	8192	725995	0	0
2024-04-17 19:46:32			0	34597	0	0	0	17997	16890	151115	27147	955255	37394	106544	0	0	8193	725795	0	0
2024-04-17 19:47:32			0	34613	0	0	0	17968	16860	150959	26951	955162	37381	106533	0	0	8194	725147	0	0
2024-04-17 19:48:32			0	34653	0	0	0	17963	16840	150923	26713	954989	37379	106531	0	0	8197	723311	0	0
2024-04-17 19:49:32			0	34692	0	0	0	17974	16830	150919	26922	954946	37377	106535	0	0	8199	721488	0	0
2024-04-17 19:50:32			0	34694	0	0	0	17958	16810	150703	27362	954861	37376	106529	0	0	8199	721471	0	0
2024-04-17 19:51:32			0	34726	0	0	0	17955	16790	150663	26889	954837	37375	106528	0	0	8201	720024	0	0
2024-04-17 19:52:32			0	34726	0	0	0	17948	16770	150723	27241	954752	37374	106525	0	0	8201	720102	0	0
2024-04-17 19:53:32			0	34743	0	0	0	17937	16750	150567	27105	954693	37383	106521	0	0	8202	719371	0	0
2024-04-17 19:54:32			0	34762	0	0	0	17922	16730	150579	27015	954607	37371	106515	0	0	8203	718544	0	0
2024-04-17 19:55:32			0	34776	0	0	0	17914	16720	150435	27130	954565	37369	106512	0	0	8204	717918	0	0
2024-04-17 19:56:32			0	34800	0	0	0	17942	16710	150451	27419	954548	37390	106523	0	0	8205	716817	0	0
2024-04-17 19:57:32			0	34813	0	0	0	17986	16710	150451	27095	954609	37379	106540	0	0	8205	716199	0	0
2024-04-17 19:58:32			0	34819	0	0	0	17948	16700	150427	27142	954593	37390	106525	0	0	8206	715954	0	0
2024-04-17 19:59:32			0	34815	0	0	0	17953	16690	150347	27239	954550	37378	106527	0	0	8205	716182	0	0
2024-04-17 20:00:32			0	34837	0	0	0	17940	16690	150351	27020	954577	37389	106522	0	0	8207	715139	0	0
2024-04-17 20:01:32			0	34817	0	0	0	17937	16690	150407	27405	954595	37377	106521	0	0	8206	716087	0	0
2024-04-17 20:02:32			0	34785	0	0	0	17940	16690	150531	26873	954516	37377	106522	0	0	8204	717607	0	0
2024-04-17 20:03:32			0	34774	0	0	0	17976	16690	150583	26739	954603	37368	106536	0	0	8202	718129	0	0
2024-04-17 20:04:32			0	34736	0	0	0	18015	16690	150883	27036	954621	37377	106551	0	0	8200	719938	0	0
2024-04-17 20:05:32			0	34700	0	0	0	18028	16690	150971	27352	954648	37377	106556	0	0	8197	721654	0	0
2024-04-17 20:06:32			0	34638	0	0	0	18049	16690	151279	26913	954708	37389	106564	0	0	8194	724617	0	0
2024-04-17 20:07:32			0	34602	0	0	0	18051	16710	151419	27209	954741	37390	106565	0	0	8192	726263	0	0
2024-04-17 20:08:32			0	34569	0	0	0	18062	16700	151455	27166	954777	37378	106569	0	0	8189	727886	0	0
2024-04-17 20:09:32			0	34543	0	0	0	18077	16710	151699	27093	954759	37379	106575	0	0	8188	729097	0	0
2024-04-17 20:10:32			0	34533	0	0	0	18075	16700	151871	27320	954769	37400	106574	0	0	8187	729617	0	0
2024-04-17 20:11:32			0	34509	0	0	0	18080	16710	151851	26870	954820	37402	106576	0	0	8186	730733	0	0
2024-04-17 20:12:32			0	34489	0	0	0	18106	16710	151951	27279	954873	37402	106586	0	0	8184	731697	0	0
2024-04-17 20:13:32			0	34494	0	0	0	18114	16720	151947	27138	954915	37380	106589	0	0	8184	731417	0	0
2024-04-17 20:14:32			0	34475	0	0	0	18083	16730	151947	27336	954905	37403	106577	0	0	8184	732294	0	0
2024-04-17 20:15:32			0	34475	0	0	0	18088	16730	151887	27263	954905	37381	106579	0	0	8184	732294	0	0
2024-04-17 20:16:32			0	34478	0	0	0	18109	16730	151947	27549	954879	37403	106587	0	0	8184	732149	0	0
2024-04-17 20:17:32			0	34493	0	0	0	18129	16750	151891	27390	954922	37404	106595	0	0	8184	731346	0	0
2024-04-17 20:18:32			0	34474	0	0	0	18119	16750	151847	27357	954956	37405	106591	0	0	8183	732262	0	0
2024-04-17 20:19:32			0	34481	0	0	0	18101	16750	151895	27528	954983	37405	106584	0	0	8184	731925	0	0
2024-04-17 20:20:32			0	34474	0	0	0	18085	16750	151839	27369	954922	37393	106578	0	0	8184	732262	0	0
2024-04-17 20:21:32			0	34492	0	0	0	18080	16750	151943	26875	954956	37394	106576	0	0	8185	731394	0	0
2024-04-17 20:22:32			0	34478	0	0	0	18103	16750	151779	27097	954956	37405	106585	0	0	8184	732069	0	0
2024-04-17 20:23:32			0	34480	0	0	0	18129	16750	151855	26944	954869	37404	106595	0	0	8184	731973	0	0
2024-04-17 20:24:32			0	34484	0	0	0	18124	16760	151907	27199	954999	37395	106593	0	0	8184	731740	0	0
2024-04-17 20:25:32			0	34472	0	0	0	18124	16760	151859	27324	954991	37405	106593	0	0	8183	732319	0	0
2024-04-17 20:26:32			0	34486	0	0	0	18119	16760	151815	27251	954973	37395	106591	0	0	8184	731644	0	0
2024-04-17 20:27:32			0	34477	0	0	0	18116	16770	151855	27282	954989	37395	106590	0	0	8184	732038	0	0
2024-04-17 20:28:32			0	34473	0	0	0	18129	16770	151855	26816	954989	37406	106595	0	0	8183	732231	0	0
2024-04-17 20:29:32			0	34492	0	0	0	18129	16770	151823	26941	955094	37406	106595	0	0	8184	731315	0	0
2024-04-17 20:30:32			0	34477	0	0	0	18137	16770	151771	27149	955068	37406	106598	0	0	8183	732038	0	0
2024-04-17 20:31:32			0	34479	0	0	0	18145	16770	151779	27163	955034	37406	106601	0	0	8183	731942	0	0
2024-04-17 20:32:32			0	34470	0	0	0	18153	16780	151783	27137	955137	37407	106604	0	0	8183	732336	0	0
2024-04-17 20:33:32			0	34493	0	0	0	18158	16780	151855	27287	955050	37417	106606	0	0	8184	731227	0	0
2024-04-17 20:34:32			0	34487	0	0	0	18150	16780	151815	27085	955084	37417	106603	0	0	8184	731516	0	0
2024-04-17 20:35:32			0	34483	0	0	0	18132	16790	151731	27265	955127	37408	106596	0	0	8184	731670	0	0
2024-04-17 20:36:32			0	34465	0	0	0	18135	16800	151719	27433	955135	37398	106597	0	0	8183	732498	0	0
2024-04-17 20:37:32			0	34493	0	0	0	18140	16790	151683	26994	955127	37408	106599	0	0	8184	731187	0	0
2024-04-17 20:38:32			0	34485	0	0	0	18122	16790	151703	27350	955092	37407	106592	0	0	8184	731573	0	0
2024-04-17 20:39:32			0	34480	0	0	0	18111	16790	151743	27118	955153	37397	106588	0	0	8184	731814	0	0
2024-04-17 20:40:32			0	34490	0	0	0	18096	16790	151619	27424	955040	37407	106582	0	0	8185	731332	0	0
2024-04-17 20:41:32			0	34492	0	0	0	18046	16790	151643	27443	955048	37397	106563	0	0	8186	731236	0	0
2024-04-17 20:42:32			0	34525	0	0	0	18033	16780	151463	27426	954900	37385	106558	0	0	8188	729686	0	0
2024-04-17 20:43:32			0	34541	0	0	0	17984	16770	151335	27298	954831	37384	106539	0	0	8190	728956	0	0
2024-04-17 20:44:32			0	34598	0	0	0	17963	16760	151227	27135	954806	37383	106531	0	0	8193	726259	0	0
2024-04-17 20:45:32			0	34618	0	0	0	17966	16750	151155	27121	954745	37394	106532	0	0	8194	725339	0	0
2024-04-17 20:46:32			0	34630	0	0	0	17966	16730	151075	27578	954694	37381	106532	0	0	8195	724843	0	0
2024-04-17 20:47:32			0	34661	0	0	0	17986	16730	151007	27059	954660	37381	106540	0	0	8196	723360	0	0
2024-04-17 20:48:32			0	34692	0	0	0	17984	16710	150859	27438	954654	37390	106539	0	0	8198	721958	0	0
2024-04-17 20:49:32			0	34710	0	0	0	17963	16720	150839	27395	954696	37379	106531	0	0	8199	721060	0	0
2024-04-17 20:50:32			0	34733	0	0	0	17935	16710	150603	27145	954654	37390	106520	0	0	8201	720003	0	0
2024-04-17 20:51:32			0	34749	0	0	0	17909	16700	150443	27098	954558	37389	106510	0	0	8202	719280	0	0
2024-04-17 20:52:32			0	34772	0	0	0	17927	16690	150439	26946	954542	37388	106517	0	0	8203	718224	0	0
2024-04-17 20:53:32			0	34785	0	0	0	17927	16680	150399	27244	954455	37377	106517	0	0	8204	717645	0	0
2024-04-17 20:54:32			0	34797	0	0	0	17911	16670	150391	27185	954518	37366	106511	0	0	8205	717114	0	0
2024-04-17 20:55:32			0	34796	0	0	0	17906	16660	150331	27090	954396	37375	106509	0	0	8205	717200	0	0
2024-04-17 20:56:32			0	34804	0	0	0	17901	16660	150479	27038	954440	37375	106507	0	0	8205	716821	0	0
2024-04-17 20:57:32			0	34807	0	0	0	17893	16660	150359	27203	954369	37375	106504	0	0	8206	716678	0	0
2024-04-17 20:58:32			0	34807	0	0	0	17867	16630	150387	27287	954347	37362	106494	0	0	8206	716795	0	0
2024-04-17 20:59:32			0	34795	0	0	0	17859	16630	150391	27275	954312	37362	106491	0	0	8205	717365	0	0
2024-04-17 21:00:32			0	34819	0	0	0	17849	16620	150335	27383	954278	37372	106487	0	0	8207	716264	0	0
2024-04-17 21:01:32			0	34852	0	0	0	17875	16610	150227	27462	954253	37371	106497	0	0	8208	714738	0	0
2024-04-17 21:02:32			0	34866	0	0	0	17883	16610	150035	27324	954227	37371	106500	0	0	8209	714075	0	0
2024-04-17 21:03:32			0	34907	0	0	0	17883	16600	149899	27095	954272	37381	106500	0	0	8211	712174	0	0
2024-04-17 21:04:32			0	34931	0	0	0	17883	16610	149887	26899	954227	37381	106500	0	0	8212	711003	0	0
2024-04-17 21:05:32			0	34939	0	0	0	17885	16600	149767	27613	954237	37370	106501	0	0	8213	710664	0	0
2024-04-17 21:06:32			0	34960	0	0	0	17877	16590	149783	27398	954229	37380	106498	0	0	8214	709712	0	0
2024-04-17 21:07:32			0	34963	0	0	0	17870	16590	149675	27386	954168	37370	106495	0	0	8214	709571	0	0
2024-04-17 21:08:32			0	34958	0	0	0	17857	16590	149739	27571	954203	37370	106490	0	0	8214	709806	0	0
2024-04-17 21:09:32			0	34936	0	0	0	17841	16580	149823	27326	954134	37379	106484	0	0	8213	710882	0	0
2024-04-17 21:10:32			0	34926	0	0	0	17857	16570	149767	27159	954117	37368	106490	0	0	8212	711393	0	0
2024-04-17 21:11:32			0	34897	0	0	0	17841	16570	150015	27294	954091	37368	106484	0	0	8211	712763	0	0
2024-04-17 21:12:32			0	34870	0	0	0	17862	16570	150123	27140	954136	37357	106492	0	0	8209	714040	0	0
2024-04-17 21:13:32			0	34846	0	0	0	17857	16550	150267	27386	954103	37365	106490	0	0	8208	715254	0	0
2024-04-17 21:14:32			0	34813	0	0	0	17864	16560	150387	27100	954067	37355	106493	0	0	8206	716781	0	0
2024-04-17 21:15:32			0	34787	0	0	0	17862	16550	150483	27310	954164	37376	106492	0	0	8204	718056	0	0
2024-04-17 21:16:32			0	34765	0	0	0	17870	16560	150563	27296	954119	37366	106495	0	0	8203	719063	0	0
2024-04-17 21:17:32			0	34736	0	0	0	17859	16560	150747	27402	954093	37376	106491	0	0	8202	720444	0	0
2024-04-17 21:18:32			0	34704	0	0	0	17838	16550	150831	27220	954130	37365	106483	0	0	8200	722010	0	0
2024-04-17 21:19:32			0	34687	0	0	0	17823	16550	150903	27296	954059	37366	106477	0	0	8200	722822	0	0
2024-04-17 21:20:32			0	34676	0	0	0	17784	16540	150943	27267	954016	37365	106462	0	0	8200	723387	0	0
2024-04-17 21:21:32			0	34651	0	0	0	17758	16540	151063	27324	953955	37365	106452	0	0	8199	724583	0	0
2024-04-17 21:22:32			0	34622	0	0	0	17768	16530	151195	27500	953939	37364	106456	0	0	8197	726012	0	0
2024-04-17 21:23:32			0	34615	0	0	0	17761	16520	151287	27405	953931	37375	106453	0	0	8196	726387	0	0
2024-04-17 21:24:32			0	34595	0	0	0	17753	16510	151263	27312	953809	37351	106450	0	0	8195	727386	0	0
2024-04-17 21:25:32			0	34600	0	0	0	17742	16510	151315	27364	953880	37373	106446	0	0	8196	727146	0	0
2024-04-17 21:26:32			0	34614	0	0	0	17724	16490	151291	27336	953803	37360	106439	0	0	8197	726553	0	0
2024-04-17 21:27:32			0	34628	0	0	0	17696	16490	151131	26958	953776	37338	106428	0	0	8198	725881	0	0
2024-04-17 21:28:32			0	34650	0	0	0	17693	16480	150979	27317	953786	37360	106427	0	0	8199	724866	0	0
2024-04-17 21:29:32			0	34686	0	0	0	17667	16470	150903	27490	953665	37348	106417	0	0	8202	723183	0	0
2024-04-17 21:30:32			0	34714	0	0	0	17667	16470	150891	27362	953604	37348	106417	0	0	8203	721845	0	0
2024-04-17 21:31:32			0	34714	0	0	0	17657	16450	150779	27152	953553	37346	106413	0	0	8203	721923	0	0
2024-04-17 21:32:32			0	34713	0	0	0	17654	16440	150839	27152	953511	37334	106412	0	0	8203	722010	0	0
2024-04-17 21:33:32			0	34714	0	0	0	17662	16430	150831	27112	953468	37333	106415	0	0	8203	722001	0	0
2024-04-17 21:34:32			0	34721	0	0	0	17657	16420	150759	27001	953513	37355	106413	0	0	8204	721706	0	0
2024-04-17 21:35:32			0	34751	0	0	0	17675	16410	150815	27189	953496	37333	106420	0	0	8205	720314	0	0
2024-04-17 21:36:32			0	34727	0	0	0	17677	16400	150747	26923	953427	37353	106421	0	0	8204	721498	0	0
2024-04-17 21:37:32			0	34733	0	0	0	17672	16400	150859	27104	953480	37353	106419	0	0	8204	721211	0	0
2024-04-17 21:38:32			0	34718	0	0	0	17641	16390	150795	27024	953464	37342	106407	0	0	8204	721966	0	0
2024-04-17 21:39:32			0	34721	0	0	0	17649	16390	150835	27076	953429	37341	106410	0	0	8204	721823	0	0
2024-04-17 21:40:32			0	34716	0	0	0	17646	16390	150943	27213	953429	37331	106409	0	0	8203	722062	0	0
2024-04-17 21:41:32			0	34677	0	0	0	17636	16380	151011	27222	953421	37340	106405	0	0	8201	723966	0	0
2024-04-17 21:42:32			0	34658	0	0	0	17638	16370	151083	27424	953265	37351	106406	0	0	8200	724914	0	0
2024-04-17 21:43:32			0	34629	0	0	0	17620	16370	151207	26934	953273	37339	106399	0	0	8199	726304	0	0
2024-04-17 21:44:32			0	34609	0	0	0	17618	16350	151323	27196	953267	37338	106398	0	0	8198	727343	0	0
2024-04-17 21:45:32			0	34570	0	0	0	17618	16360	151455	26934	953249	37338	106398	0	0	8196	729179	0	0
2024-04-17 21:46:32			0	34573	0	0	0	17607	16350	151471	26864	953232	37338	106394	0	0	8196	729074	0	0
2024-04-17 21:47:32			0	34578	0	0	0	17599	16340	151539	27332	953163	37336	106391	0	0	8196	728873	0	0
2024-04-17 21:48:32			0	34570	0	0	0	17568	16330	151459	27092	953155	37326	106379	0	0	8196	729297	0	0
2024-04-17 21:49:32			0	34578	0	0	0	17584	16320	151391	27345	953086	37335	106385	0	0	8196	728951	0	0
2024-04-17 21:50:32			0	34591	0	0	0	17574	16300	151403	27041	953107	37334	106381	0	0	8197	728405	0	0
2024-04-17 21:51:32			0	34591	0	0	0	17587	16300	151403	27059	953080	37312	106386	0	0	8197	728405	0	0
2024-04-17 21:52:32			0	34603	0	0	0	17594	16300	151271	27090	953098	37323	106389	0	0	8198	727828	0	0
2024-04-17 21:53:32			0	34615	0	0	0	17581	16290	151331	27017	953090	37333	106384	0	0	8198	727291	0	0
2024-04-17 21:54:32			0	34630	0	0	0	17592	16300	151399	26913	953046	37323	106388	0	0	8199	726531	0	0
2024-04-17 21:55:32			0	34640	0	0	0	17581	16290	151303	26894	953038	37322	106384	0	0	8200	726091	0	0
2024-04-17 21:56:32			0	34645	0	0	0	17589	16300	151255	26934	953046	37323	106387	0	0	8200	725812	0	0
2024-04-17 21:57:32			0	34645	0	0	0	17587	16280	151171	26896	953021	37333	106386	0	0	8200	725890	0	0
2024-04-17 21:58:32			0	34648	0	0	0	17589	16280	151243	27092	953066	37332	106387	0	0	8200	725746	0	0
2024-04-17 21:59:32			0	34630	0	0	0	17597	16290	151263	26972	953064	37333	106390	0	0	8199	726571	0	0
2024-04-17 22:00:32			0	34631	0	0	0	17599	16280	151167	27119	953100	37333	106391	0	0	8199	726562	0	0
2024-04-17 22:01:32			0	34608	0	0	0	17597	16290	151259	27358	953117	37333	106390	0	0	8198	727627	0	0
2024-04-17 22:02:32			0	34626	0	0	0	17594	16280	151279	27261	953127	37333	106389	0	0	8199	726802	0	0
2024-04-17 22:03:32			0	34599	0	0	0	17587	16280	151355	27237	953127	37333	106386	0	0	8197	728099	0	0
2024-04-17 22:04:32			0	34594	0	0	0	17579	16290	151463	27235	953082	37333	106383	0	0	8197	728300	0	0
2024-04-17 22:05:32			0	34587	0	0	0	17571	16280	151399	27518	952987	37332	106380	0	0	8197	728676	0	0
2024-04-17 22:06:32			0	34588	0	0	0	17555	16270	151463	27364	953005	37331	106374	0	0	8197	728667	0	0
2024-04-17 22:07:32			0	34581	0	0	0	17542	16270	151519	27064	952952	37320	106369	0	0	8197	729004	0	0
2024-04-17 22:08:32			0	34583	0	0	0	17506	16270	151435	27074	952892	37331	106355	0	0	8198	728908	0	0
2024-04-17 22:09:32			0	34601	0	0	0	17493	16250	151287	27291	952841	37319	106350	0	0	8199	728121	0	0
2024-04-17 22:10:32			0	34599	0	0	0	17488	16240	151379	27020	952798	37318	106348	0	0	8199	728256	0	0
2024-04-17 22:11:32			0	34612	0	0	0	17488	16220	151271	27074	952792	37316	106348	0	0	8199	727710	0	0
2024-04-17 22:12:32			0	34635	0	0	0	17472	16220	151239	27135	952739	37327	106342	0	0	8201	726605	0	0
2024-04-17 22:13:32			0	34632	0	0	0	17459	16220	151287	27029	952687	37327	106337	0	0	8201	726749	0	0
2024-04-17 22:14:32			0	34625	0	0	0	17480	16200	151275	27350	952681	37314	106345	0	0	8200	727164	0	0
2024-04-17 22:15:32			0	34623	0	0	0	17501	16200	151287	27331	952786	37303	106353	0	0	8200	727260	0	0
2024-04-17 22:16:32			0	34615	0	0	0	17563	16210	151303	27036	952820	37326	106377	0	0	8198	727605	0	0
2024-04-17 22:17:32			0	34598	0	0	0	17574	16220	151307	27066	952897	37327	106381	0	0	8197	728383	0	0
2024-04-17 22:18:32			0	34602	0	0	0	17540	16210	151343	26733	952881	37326	106368	0	0	8198	728230	0	0
2024-04-17 22:19:32			0	34560	0	0	0	17550	16230	151467	27154	952879	37327	106372	0	0	8195	730173	0	0
2024-04-17 22:20:32			0	34526	0	0	0	17550	16240	151611	27239	952922	37339	106372	0	0	8194	731772	0	0
2024-04-17 22:21:32			0	34487	0	0	0	17519	16220	151943	27064	952871	37327	106360	0	0	8192	733736	0	0
2024-04-17 22:22:32			0	34431	0	0	0	17532	16220	152155	27267	952924	37316	106365	0	0	8188	736448	0	0
2024-04-17 22:23:32			0	34385	0	0	0	17496	16220	152379	27338	952818	37327	106351	0	0	8186	738681	0	0
2024-04-17 22:24:32			0	34334	0	0	0	17480	16220	152482	26996	952845	37305	106345	0	0	8184	741164	0	0
2024-04-17 22:25:32			0	34295	0	0	0	17509	16230	152714	27185	952879	37316	106356	0	0	8181	743026	0	0
2024-04-17 22:26:32			0	34240	0	0	0	17498	16230	152886	27171	952861	37306	106352	0	0	8178	745716	0	0
2024-04-17 22:27:32			0	34224	0	0	0	17503	16240	153062	26786	952903	37307	106354	0	0	8177	746459	0	0
2024-04-17 22:28:32			0	34203	0	0	0	17477	16240	153038	26953	952843	37329	106344	0	0	8176	747489	0	0
2024-04-17 22:29:32			0	34177	0	0	0	17446	16230	153182	26854	952774	37305	106332	0	0	8175	748806	0	0
2024-04-17 22:30:32			0	34170	0	0	0	17423	16220	153130	27017	952792	37305	106323	0	0	8175	749190	0	0
2024-04-17 22:31:32			0	34174	0	0	0	17423	16210	153250	26949	952715	37314	106323	0	0	8175	749034	0	0
2024-04-17 22:32:32			0	34193	0	0	0	17371	16200	153106	27034	952628	37303	106303	0	0	8177	748141	0	0
2024-04-17 22:33:32			0	34207	0	0	0	17314	16180	153014	26861	952595	37291	106281	0	0	8179	747535	0	0
2024-04-17 22:34:32			0	34220	0	0	0	17306	16180	152866	27223	952569	37302	106278	0	0	8180	746897	0	0
2024-04-17 22:35:32			0	34256	0	0	0	17316	16180	152914	26948	952535	37301	106282	0	0	8182	745134	0	0
2024-04-17 22:36:32			0	34278	0	0	0	17275	16180	152654	26974	952587	37301	106266	0	0	8184	744057	0	0
2024-04-17 22:37:32			0	34294	0	0	0	17259	16160	152590	26960	952510	37289	106260	0	0	8185	743356	0	0
2024-04-17 22:38:32			0	34310	0	0	0	17241	16130	152578	26816	952364	37287	106253	0	0	8186	742695	0	0
2024-04-17 22:39:32			0	34294	0	0	0	17212	16140	152482	26998	952241	37298	106242	0	0	8186	743436	0	0
2024-04-17 22:40:32			0	34318	0	0	0	17192	16110	152494	26871	952226	37286	106234	0	0	8187	742384	0	0
2024-04-17 22:41:32			0	34314	0	0	0	17212	16110	152546	27126	952192	37295	106242	0	0	8187	742580	0	0
2024-04-17 22:42:32			0	34329	0	0	0	17187	16090	152518	27190	952036	37284	106232	0	0	8188	741928	0	0
2024-04-17 22:43:32			0	34342	0	0	0	17171	16070	152442	27123	951916	37259	106226	0	0	8189	741374	0	0
2024-04-17 22:44:32			0	34363	0	0	0	17171	16050	152391	27039	951865	37269	106226	0	0	8190	740430	0	0
2024-04-17 22:45:32			0	34366	0	0	0	17171	16020	152351	27024	951738	37255	106226	0	0	8190	740404	0	0
2024-04-17 22:46:32			0	34390	0	0	0	17174	16000	152263	27156	951697	37264	106227	0	0	8191	739316	0	0
2024-04-17 22:47:32			0	34403	0	0	0	17155	15980	152111	27203	951646	37252	106220	0	0	8192	738763	0	0
2024-04-17 22:48:32			0	34430	0	0	0	17142	15970	152111	27076	951622	37261	106215	0	0	8194	737491	0	0
2024-04-17 22:49:32			0	34430	0	0	0	17137	15960	152215	26982	951535	37261	106213	0	0	8194	737530	0	0
2024-04-17 22:50:32			0	34422	0	0	0	17140	15940	152207	26722	951502	37260	106214	0	0	8193	737999	0	0
2024-04-17 22:51:32			0	34420	0	0	0	17140	15930	152251	26975	951452	37248	106214	0	0	8193	738136	0	0
2024-04-17 22:52:32			0	34424	0	0	0	17135	15900	152255	26994	951411	37246	106212	0	0	8193	738061	0	0
2024-04-17 22:53:32			0	34419	0	0	0	17137	15900	152315	27355	951385	37246	106213	0	0	8193	738304	0	0
2024-04-17 22:54:32			0	34422	0	0	0	17140	15900	152315	27000	951377	37256	106214	0	0	8193	738158	0	0
2024-04-17 22:55:32			0	34437	0	0	0	17150	15890	152323	27152	951334	37255	106218	0	0	8194	737469	0	0
2024-04-17 22:56:32			0	34419	0	0	0	17132	15880	152355	27241	951353	37255	106211	0	0	8193	738383	0	0
2024-04-17 22:57:32			0	34411	0	0	0	17132	15880	152311	26934	951371	37244	106211	0	0	8192	738772	0	0
2024-04-17 22:58:32			0	34425	0	0	0	17132	15870	152279	27001	951336	37253	106211	0	0	8193	738131	0	0
2024-04-17 22:59:32			0	34402	0	0	0	17135	15850	152443	27303	951285	37242	106212	0	0	8192	739330	0	0
2024-04-17 23:00:32			0	34407	0	0	0	17129	15840	152387	27147	951296	37262	106210	0	0	8192	739126	0	0
2024-04-17 23:01:32			0	34422	0	0	0	17127	15840	152395	27403	951296	37273	106209	0	0	8193	738397	0	0
2024-04-17 23:02:32			0	34421	0	0	0	17129	15850	152311	27209	951259	37275	106210	0	0	8193	738405	0	0
2024-04-17 23:03:32			0	34413	0	0	0	17132	15830	152347	26923	951306	37262	106211	0	0	8192	738874	0	0
2024-04-17 23:04:32			0	34433	0	0	0	17137	15830	152311	27220	951245	37272	106213	0	0	8193	737902	0	0
2024-04-17 23:05:32			0	34420	0	0	0	17127	15830	152407	27114	951227	37262	106209	0	0	8193	738534	0	0
2024-04-17 23:06:32			0	34434	0	0	0	17122	15820	152431	27017	951210	37260	106207	0	0	8194	737893	0	0
2024-04-17 23:07:32			0	34435	0	0	0	17122	15820	152363	27372	951158	37250	106207	0	0	8194	737844	0	0
2024-04-17 23:08:32			0	34443	0	0	0	17127	15820	152383	27447	951263	37271	106209	0	0	8194	737456	0	0
2024-04-17 23:09:32			0	34432	0	0	0	17135	15820	152395	27137	951229	37260	106212	0	0	8193	737990	0	0
2024-04-17 23:10:32			0	34403	0	0	0	17124	15820	152351	27079	951229	37271	106208	0	0	8192	739401	0	0
2024-04-17 23:11:32			0	34419	0	0	0	17122	15810	152435	27256	951160	37259	106207	0	0	8193	738662	0	0
2024-04-17 23:12:32			0	34425	0	0	0	17129	15810	152443	26974	951212	37259	106210	0	0	8193	738370	0	0
2024-04-17 23:13:32			0	34431	0	0	0	17124	15810	152383	27222	951186	37259	106208	0	0	8193	738078	0	0
2024-04-17 23:14:32			0	34431	0	0	0	17109	15800	152423	27060	951178	37270	106202	0	0	8194	738118	0	0
2024-04-17 23:15:32			0	34427	0	0	0	17116	15800	152315	27352	951170	37269	106205	0	0	8193	738313	0	0
2024-04-17 23:16:32			0	34446	0	0	0	17114	15790	152251	27126	951101	37258	106204	0	0	8194	737429	0	0
2024-04-17 23:17:32			0	34454	0	0	0	17116	15790	152259	27114	951162	37269	106205	0	0	8195	737041	0	0
2024-04-17 23:18:32			0	34458	0	0	0	17119	15800	152155	27197	951170	37269	106206	0	0	8195	736807	0	0
2024-04-17 23:19:32			0	34466	0	0	0	17114	15790	152231	27326	951135	37269	106204	0	0	8195	736458	0	0
2024-04-17 23:20:32			0	34459	0	0	0	17114	15800	152247	27357	951223	37269	106204	0	0	8195	736758	0	0
2024-04-17 23:21:32			0	34468	0	0	0	17119	15780	152179	27244	951138	37267	106206	0	0	8195	736401	0	0
2024-04-17 23:22:32			0	34463	0	0	0	17114	15790	152143	27142	951127	37269	106204	0	0	8195	736604	0	0
2024-04-17 23:23:32			0	34487	0	0	0	17116	15790	152159	26833	951127	37269	106205	0	0	8197	735440	0	0
2024-04-17 23:24:32			0	34471	0	0	0	17116	15790	152199	26894	951127	37258	106205	0	0	8196	736216	0	0
2024-04-17 23:25:32			0	34469	0	0	0	17114	15780	152195	27067	951172	37268	106204	0	0	8196	736352	0	0
2024-04-17 23:26:32			0	34464	0	0	0	17114	15780	152171	26896	951111	37267	106204	0	0	8195	736595	0	0
2024-04-17 23:27:32			0	34456	0	0	0	17119	15780	152123	27286	951164	37267	106206	0	0	8195	736983	0	0
2024-04-17 23:28:32			0	34444	0	0	0	17129	15780	152223	26996	951172	37268	106210	0	0	8194	737566	0	0
2024-04-17 23:29:32			0	34456	0	0	0	17122	15780	152327	27083	951059	37267	106207	0	0	8195	736983	0	0
2024-04-17 23:30:32			0	34490	0	0	0	17135	15790	152283	27170	951162	37269	106212	0	0	8197	735294	0	0
2024-04-17 23:31:32			0	34464	0	0	0	17132	15780	152199	27206	951111	37278	106211	0	0	8195	736595	0	0
2024-04-17 23:32:32			0	34473	0	0	0	17132	15790	152179	27528	951154	37280	106211	0	0	8196	736119	0	0
2024-04-17 23:33:32			0	34454	0	0	0	17132	15790	152171	27000	951127	37291	106211	0	0	8195	737041	0	0
2024-04-17 23:34:32			0	34440	0	0	0	17124	15780	152331	26833	951172	37257	106208	0	0	8194	737760	0	0
2024-04-17 23:35:32			0	34426	0	0	0	17124	15780	152387	26876	951085	37256	106208	0	0	8193	738441	0	0
2024-04-17 23:36:32			0	34379	0	0	0	17127	15780	152431	26845	951146	37257	106209	0	0	8190	740729	0	0
2024-04-17 23:37:32			0	34354	0	0	0	17119	15780	152687	26972	951119	37257	106206	0	0	8189	741948	0	0
2024-04-17 23:38:32			0	34301	0	0	0	17103	15790	152778	27232	951127	37269	106200	0	0	8186	744498	0	0
2024-04-17 23:39:32			0	34269	0	0	0	17101	15780	153026	27255	951093	37268	106199	0	0	8184	746106	0	0
2024-04-17 23:40:32			0	34233	0	0	0	17085	15780	153306	27138	951111	37267	106193	0	0	8183	747872	0	0
2024-04-17 23:41:32			0	34172	0	0	0	17096	15770	153502	27312	951129	37267	106197	0	0	8179	750912	0	0
2024-04-17 23:42:32			0	34149	0	0	0	17088	15780	153638	26821	951093	37257	106194	0	0	8178	752006	0	0
2024-04-17 23:43:32			0	34106	0	0	0	17093	15770	153786	27102	951042	37267	106196	0	0	8175	754170	0	0
2024-04-17 23:44:32			0	34069	0	0	0	17090	15770	153934	26602	951077	37256	106195	0	0	8173	756000	0	0
2024-04-17 23:45:32			0	34038	0	0	0	17109	15760	154018	26637	951087	37266	106202	0	0	8171	757578	0	0
2024-04-17 23:46:32			0	34023	0	0	0	17116	15780	154010	26809	951093	37247	106205	0	0	8170	758240	0	0
2024-04-17 23:47:32			0	34018	0	0	0	17109	15770	154186	27211	951095	37267	106202	0	0	8170	758529	0	0
2024-04-17 23:48:32			0	34004	0	0	0	17111	15780	154186	27365	951085	37256	106203	0	0	8169	759184	0	0
2024-04-17 23:49:32			0	34040	0	0	0	17106	15770	154150	27208	951129	37256	106201	0	0	8171	757437	0	0
2024-04-17 23:50:32			0	34015	0	0	0	17109	15770	154162	27039	951069	37267	106202	0	0	8170	758678	0	0
2024-04-17 23:51:32			0	34009	0	0	0	17116	15780	154298	27239	951111	37267	106205	0	0	8169	758935	0	0
2024-04-17 23:52:32			0	34021	0	0	0	17109	15770	154326	26984	951121	37267	106202	0	0	8170	758380	0	0
2024-04-17 23:53:32			0	33993	0	0	0	17111	15770	154162	27336	951103	37256	106203	0	0	8168	759771	0	0
2024-04-17 23:54:32			0	33995	0	0	0	17114	15760	154358	27260	951061	37266	106204	0	0	8168	759713	0	0
2024-04-17 23:55:32			0	33969	0	0	0	17119	15770	154402	27005	951095	37267	106206	0	0	8167	760965	0	0
2024-04-17 23:56:32			0	33915	0	0	0	17179	15780	154574	27000	951198	37268	106229	0	0	8163	763616	0	0
2024-04-17 23:57:32			0	33898	0	0	0	17187	15790	154706	27041	951320	37280	106232	0	0	8161	764424	0	0
2024-04-17 23:58:32			0	33879	0	0	0	17171	15800	154850	27003	951275	37269	106226	0	0	8161	765332	0	0
2024-04-17 23:59:32			0	33843	0	0	0	17153	15810	154862	27126	951239	37271	106219	0	0	8159	767093	0	0
2024-04-18 00:00:32			0	33840	0	0	0	17155	15800	154970	27003	951283	37270	106220	0	0	8159	767285	0	0
2024-04-18 00:01:32			0	33798	0	0	0	17150	15810	155158	26861	951300	37250	106218	0	0	8156	769350	0	0
2024-04-18 00:02:32			0	33785	0	0	0	17132	15810	155198	27138	951186	37282	106211	0	0	8156	770003	0	0
2024-04-18 00:03:32			0	33784	0	0	0	17135	15810	155294	26998	951265	37271	106212	0	0	8156	770054	0	0
2024-04-18 00:04:32			0	33762	0	0	0	17132	15800	155394	26830	951231	37291	106211	0	0	8155	771201	0	0
2024-04-18 00:05:32			0	33759	0	0	0	17132	15800	155310	26871	951204	37281	106211	0	0	8154	771352	0	0
2024-04-18 00:06:32			0	33748	0	0	0	17137	15800	155354	27390	951310	37259	106213	0	0	8154	771906	0	0
2024-04-18 00:07:32			0	33736	0	0	0	17132	15800	155510	26861	951231	37270	106211	0	0	8153	772510	0	0
2024-04-18 00:08:32			0	33744	0	0	0	17129	15800	155414	27320	951170	37258	106210	0	0	8154	772107	0	0
2024-04-18 00:09:32			0	33729	0	0	0	17127	15810	155454	27069	951212	37259	106209	0	0	8153	772821	0	0
2024-04-18 00:10:32			0	33746	0	0	0	17127	15800	155390	27222	951196	37269	106209	0	0	8154	772007	0	0
2024-04-18 00:11:32			0	33774	0	0	0	17114	15800	155394	27204	951196	37269	106204	0	0	8156	770598	0	0
2024-04-18 00:12:32			0	33763	0	0	0	17114	15790	155370	27078	951215	37269	106204	0	0	8155	771193	0	0
2024-04-18 00:13:32			0	33811	0	0	0	17090	15800	155234	27095	951231	37281	106195	0	0	8158	768739	0	0
2024-04-18 00:14:32			0	33845	0	0	0	17088	15800	155050	26805	951152	37259	106194	0	0	8160	767034	0	0
2024-04-18 00:15:32			0	33872	0	0	0	17083	15790	154906	27118	951135	37280	106192	0	0	8162	765724	0	0
2024-04-18 00:16:32			0	33897	0	0	0	17096	15790	154702	27405	951215	37248	106197	0	0	8163	764474	0	0
2024-04-18 00:17:32			0	33916	0	0	0	17101	15790	154642	27249	951215	37258	106199	0	0	8164	763525	0	0
2024-04-18 00:18:32			0	33932	0	0	0	17103	15790	154494	27024	951215	37248	106200	0	0	8165	762727	0	0
2024-04-18 00:19:32			0	33964	0	0	0	17088	15790	154374	27282	951215	37280	106194	0	0	8167	761132	0	0
2024-04-18 00:20:32			0	33972	0	0	0	17067	15790	154430	27421	951135	37269	106186	0	0	8168	760734	0	0
2024-04-18 00:21:32			0	33970	0	0	0	17075	15790	154338	27069	951101	37280	106189	0	0	8168	760834	0	0
2024-04-18 00:22:32			0	33986	0	0	0	17085	15790	154322	26963	951154	37258	106193	0	0	8168	760038	0	0
2024-04-18 00:23:32			0	33975	0	0	0	17085	15790	154430	27019	951135	37269	106193	0	0	8168	760585	0	0
2024-04-18 00:24:32			0	33967	0	0	0	17077	15780	154362	26901	951119	37279	106190	0	0	8167	761024	0	0
2024-04-18 00:25:32			0	33941	0	0	0	17090	15790	154554	27074	951127	37280	106195	0	0	8166	762278	0	0
2024-04-18 00:26:32			0	33922	0	0	0	17080	15790	154698	27007	951109	37269	106191	0	0	8165	763226	0	0
2024-04-18 00:27:32			0	33911	0	0	0	17109	15790	154570	27137	951162	37269	106202	0	0	8164	763775	0	0
2024-04-18 00:28:32			0	33876	0	0	0	17158	15790	154914	27164	951206	37269	106221	0	0	8161	765524	0	0
2024-04-18 00:29:32			0	33770	0	0	0	17207	15800	155362	27012	951302	37258	106240	0	0	8154	770799	0	0
2024-04-18 00:30:32			0	33735	0	0	0	17301	15800	155590	26979	951381	37291	106276	0	0	8150	772561	0	0
2024-04-18 00:31:32			0	33692	0	0	0	17270	15810	155854	27260	951431	37304	106264	0	0	8148	774688	0	0
2024-04-18 00:32:32			0	33658	0	0	0	17290	15820	155942	26915	951466	37293	106272	0	0	8146	776364	0	0
2024-04-18 00:33:32			0	33605	0	0	0	17342	15840	156110	27345	951498	37284	106292	0	0	8142	778965	0	0
2024-04-18 00:34:32			0	33582	0	0	0	17332	15850	156234	26993	951620	37295	106288	0	0	8141	780090	0	0
2024-04-18 00:35:32			0	33585	0	0	0	17290	15860	156294	27223	951662	37296	106272	0	0	8142	779896	0	0
2024-04-18 00:36:32			0	33544	0	0	0	17262	15880	156389	27204	951669	37309	106261	0	0	8140	781895	0	0
2024-04-18 00:37:32			0	33516	0	0	0	17275	15890	156445	27111	951658	37298	106266	0	0	8138	783278	0	0
2024-04-18 00:38:32			0	33486	0	0	0	17288	15890	156657	27293	951632	37298	106271	0	0	8136	784808	0	0
2024-04-18 00:39:32			0	33474	0	0	0	17257	15900	156753	27287	951640	37299	106259	0	0	8136	785378	0	0
2024-04-18 00:40:32			0	33448	0	0	0	17228	15890	156917	26991	951545	37288	106248	0	0	8135	786748	0	0
2024-04-18 00:41:32			0	33388	0	0	0	17246	15890	157093	27360	951519	37277	106255	0	0	8131	789821	0	0
2024-04-18 00:42:32			0	33376	0	0	0	17251	15880	157149	27289	951563	37298	106257	0	0	8130	790479	0	0
2024-04-18 00:43:32			0	33351	0	0	0	17285	15880	157285	27142	951590	37298	106270	0	0	8128	791763	0	0
2024-04-18 00:44:32			0	33348	0	0	0	17262	15890	157389	27220	951624	37309	106261	0	0	8128	791875	0	0
2024-04-18 00:45:32			0	33342	0	0	0	17238	15880	157313	27206	951616	37298	106252	0	0	8128	792226	0	0
2024-04-18 00:46:32			0	33327	0	0	0	17259	15890	157349	26960	951624	37288	106260	0	0	8127	792955	0	0
2024-04-18 00:47:32			0	33309	0	0	0	17254	15890	157457	27199	951658	37309	106258	0	0	8126	793881	0	0
2024-04-18 00:48:32			0	33295	0	0	0	17244	15900	157629	27476	951667	37289	106254	0	0	8125	794560	0	0
2024-04-18 00:49:32			0	33277	0	0	0	17244	15890	157657	27033	951606	37309	106254	0	0	8124	795531	0	0
2024-04-18 00:50:32			0	33251	0	0	0	17249	15880	157649	27312	951555	37287	106256	0	0	8123	796916	0	0
2024-04-18 00:51:32			0	33235	0	0	0	17241	15890	157833	27241	951545	37288	106253	0	0	8122	797700	0	0
2024-04-18 00:52:32			0	33235	0	0	0	17220	15890	157861	27175	951571	37288	106245	0	0	8122	797700	0	0
2024-04-18 00:53:32			0	33226	0	0	0	17228	15890	157917	27067	951519	37298	106248	0	0	8121	798165	0	0
2024-04-18 00:54:32			0	33204	0	0	0	17233	15880	158049	27092	951529	37298	106250	0	0	8120	799347	0	0
2024-04-18 00:55:32			0	33182	0	0	0	17199	15890	158145	26953	951571	37288	106237	0	0	8119	800444	0	0
2024-04-18 00:56:32			0	33163	0	0	0	17174	15880	158177	27317	951502	37276	106227	0	0	8119	801473	0	0
2024-04-18 00:57:32			0	33129	0	0	0	17158	15890	158337	27230	951492	37277	106221	0	0	8117	803196	0	0
2024-04-18 00:58:32			0	33092	0	0	0	17150	15870	158489	27225	951415	37275	106218	0	0	8115	805209	0	0
2024-04-18 00:59:32			0	33077	0	0	0	17166	15860	158617	27348	951451	37286	106224	0	0	8113	806034	0	0
2024-04-18 01:00:32			0	33055	0	0	0	17145	15850	158773	26823	951338	37264	106216	0	0	8112	807226	0	0
2024-04-18 01:01:32			0	33024	0	0	0	17127	15850	158797	27119	951277	37263	106209	0	0	8111	808846	0	0
2024-04-18 01:02:32			0	33020	0	0	0	17122	15840	158917	26987	951322	37284	106207	0	0	8111	809099	0	0
2024-04-18 01:03:32			0	32993	0	0	0	17124	15840	158969	26934	951314	37284	106208	0	0	8109	810512	0	0
2024-04-18 01:04:32			0	32980	0	0	0	17132	15820	159041	27010	951289	37282	106211	0	0	8108	811281	0	0
2024-04-18 01:05:32			0	32958	0	0	0	17132	15820	159049	26960	951237	37282	106211	0	0	8106	812436	0	0
2024-04-18 01:06:32			0	32950	0	0	0	17122	15820	159173	27239	951255	37271	106207	0	0	8106	812856	0	0
2024-04-18 01:07:32			0	32955	0	0	0	17119	15810	159197	27433	951273	37271	106206	0	0	8106	812637	0	0
2024-04-18 01:08:32			0	32916	0	0	0	17119	15810	159341	27528	951212	37292	106206	0	0	8104	814687	0	0
2024-04-18 01:09:32			0	32911	0	0	0	17101	15800	159453	27055	951196	37291	106199	0	0	8104	814994	0	0
2024-04-18 01:10:32			0	32886	0	0	0	17101	15800	159493	26977	951170	37291	106199	0	0	8103	816311	0	0
2024-04-18 01:11:32			0	32868	0	0	0	17103	15800	159601	27350	951125	37291	106200	0	0	8101	817260	0	0
2024-04-18 01:12:32			0	32854	0	0	0	17098	15790	159633	27376	951135	37269	106198	0	0	8101	818043	0	0
2024-04-18 01:13:32			0	32826	0	0	0	17077	15790	159897	27178	951109	37269	106190	0	0	8099	819523	0	0
2024-04-18 01:14:32			0	32831	0	0	0	17088	15790	159873	27050	951101	37269	106194	0	0	8099	819258	0	0
2024-04-18 01:15:32			0	32822	0	0	0	17080	15780	160029	27017	951032	37278	106191	0	0	8099	819778	0	0
2024-04-18 01:16:32			0	32796	0	0	0	17085	15780	160013	26939	951119	37268	106193	0	0	8097	821155	0	0
2024-04-18 01:17:32			0	32796	0	0	0	17077	15760	160109	27263	951061	37277	106190	0	0	8097	821243	0	0
2024-04-18 01:18:32			0	32778	0	0	0	17077	15770	160232	27407	951095	37267	106190	0	0	8096	822153	0	0
2024-04-18 01:19:32			0	32771	0	0	0	17075	15770	160172	27199	951042	37267	106189	0	0	8096	822524	0	0
2024-04-18 01:20:32			0	32774	0	0	0	17067	15760	160188	27119	951034	37266	106186	0	0	8096	822409	0	0
2024-04-18 01:21:32			0	32760	0	0	0	17062	15770	160316	27296	951069	37278	106184	0	0	8095	823108	0	0
2024-04-18 01:22:32			0	32761	0	0	0	17062	15750	160256	27015	950992	37277	106184	0	0	8095	823143	0	0
2024-04-18 01:23:32			0	32758	0	0	0	17062	15760	160132	27433	951026	37277	106184	0	0	8095	823258	0	0
2024-04-18 01:24:32			0	32771	0	0	0	17057	15750	160048	27071	951010	37277	106182	0	0	8096	822613	0	0
2024-04-18 01:25:32			0	32798	0	0	0	17038	15750	160033	27267	950931	37266	106175	0	0	8098	821181	0	0
2024-04-18 01:26:32			0	32822	0	0	0	16999	15740	159969	27163	950923	37254	106160	0	0	8100	819955	0	0
2024-04-18 01:27:32			0	32860	0	0	0	17023	15720	159869	27164	950837	37263	106169	0	0	8102	818035	0	0
2024-04-18 01:28:32			0	32895	0	0	0	17044	15720	159613	27416	950829	37262	106177	0	0	8104	816188	0	0
2024-04-18 01:29:32			0	32869	0	0	0	17051	15720	159577	27291	950943	37274	106180	0	0	8102	817560	0	0
2024-04-18 01:30:32			0	32895	0	0	0	17054	15720	159585	27303	950890	37274	106181	0	0	8103	816188	0	0
2024-04-18 01:31:32			0	32894	0	0	0	17085	15730	159653	27393	950925	37274	106193	0	0	8103	816197	0	0
2024-04-18 01:32:32			0	32915	0	0	0	17106	15730	159545	27324	950977	37285	106201	0	0	8104	815091	0	0
2024-04-18 01:33:32			0	32940	0	0	0	17109	15730	159465	27031	951064	37285	106202	0	0	8105	813776	0	0
2024-04-18 01:34:32			0	32974	0	0	0	17083	15720	159277	27343	950995	37274	106192	0	0	8108	812033	0	0
2024-04-18 01:35:32			0	32984	0	0	0	17075	15740	159237	27034	950993	37286	106189	0	0	8109	811421	0	0
2024-04-18 01:36:32			0	32991	0	0	0	17057	15740	159173	27192	950975	37276	106182	0	0	8109	811054	0	0
2024-04-18 01:37:32			0	32987	0	0	0	17051	15730	159185	26949	950906	37274	106180	0	0	8109	811308	0	0
2024-04-18 01:38:32			0	32952	0	0	0	17046	15720	159341	27258	950916	37252	106178	0	0	8107	813189	0	0
2024-04-18 01:39:32			0	32932	0	0	0	17046	15720	159493	27098	950829	37284	106178	0	0	8106	814240	0	0
2024-04-18 01:40:32			0	32899	0	0	0	17038	15720	159609	26889	950882	37273	106175	0	0	8104	815977	0	0
2024-04-18 01:41:32			0	32873	0	0	0	17044	15720	159669	27144	950882	37273	106177	0	0	8102	817348	0	0
2024-04-18 01:42:32			0	32831	0	0	0	17038	15720	159805	27267	950882	37262	106175	0	0	8100	819567	0	0
2024-04-18 01:43:32			0	32843	0	0	0	17044	15710	159865	27086	950918	37273	106177	0	0	8100	818977	0	0
2024-04-18 01:44:32			0	32841	0	0	0	17036	15700	160057	27216	950805	37273	106174	0	0	8100	819127	0	0
2024-04-18 01:45:32			0	32820	0	0	0	17033	15710	160141	27039	950874	37273	106173	0	0	8099	820193	0	0
2024-04-18 01:46:32			0	32796	0	0	0	17038	15710	160125	27203	950900	37273	106175	0	0	8098	821464	0	0
2024-04-18 01:47:32			0	32770	0	0	0	17044	15700	160212	27256	950884	37273	106177	0	0	8096	822887	0	0
2024-04-18 01:48:32			0	32765	0	0	0	17031	15700	160380	27305	950884	37261	106172	0	0	8096	823153	0	0
2024-04-18 01:49:32			0	32749	0	0	0	17033	15710	160376	27310	950795	37273	106173	0	0	8095	823958	0	0
2024-04-18 01:50:32			0	32740	0	0	0	17036	15700	160528	27379	950858	37273	106174	0	0	8094	824481	0	0
2024-04-18 01:51:32			0	32721	0	0	0	17033	15700	160516	27358	950858	37273	106173	0	0	8093	825491	0	0
2024-04-18 01:52:32			0	32696	0	0	0	17028	15700	160664	27145	950805	37261	106171	0	0	8092	826822	0	0
2024-04-18 01:53:32			0	32676	0	0	0	17025	15690	160680	27483	950833	37260	106170	0	0	8090	827933	0	0
2024-04-18 01:54:32			0	32674	0	0	0	17028	15690	160872	27203	950815	37260	106171	0	0	8090	828040	0	0
2024-04-18 01:55:32			0	32647	0	0	0	17028	15690	161004	27218	950842	37260	106171	0	0	8088	829481	0	0
2024-04-18 01:56:32			0	32663	0	0	0	17031	15690	161072	27225	950868	37271	106172	0	0	8089	828627	0	0
2024-04-18 01:57:32			0	32632	0	0	0	17033	15690	161036	27220	950807	37271	106173	0	0	8087	830283	0	0
2024-04-18 01:58:32			0	32605	0	0	0	17083	15690	161216	27199	950842	37282	106192	0	0	8085	831728	0	0
2024-04-18 01:59:32			0	32601	0	0	0	17161	15700	161344	27029	950955	37272	106222	0	0	8083	831897	0	0
2024-04-18 02:00:32			0	32580	0	0	0	17184	15700	161332	27144	950963	37284	106231	0	0	8082	833023	0	0
2024-04-18 02:01:32			0	32625	0	0	0	17218	15730	161104	27512	951135	37285	106244	0	0	8084	830479	0	0
2024-04-18 02:02:32			0	32707	0	0	0	17225	15730	160748	27194	951170	37307	106247	0	0	8089	826103	0	0
2024-04-18 02:03:32			0	32827	0	0	0	17212	15750	160013	27112	951255	37298	106242	0	0	8097	819646	0	0
2024-04-18 02:04:32			0	32949	0	0	0	17220	15760	159497	27488	951271	37289	106245	0	0	8104	813171	0	0
2024-04-18 02:05:32			0	33034	0	0	0	17205	15770	159085	26847	951279	37289	106239	0	0	8110	808672	0	0
2024-04-18 02:06:32			0	33113	0	0	0	17225	15780	158625	26946	951277	37290	106247	0	0	8114	804505	0	0
2024-04-18 02:07:32			0	33172	0	0	0	17210	15780	158461	26902	951304	37300	106241	0	0	8118	801438	0	0
2024-04-18 02:08:32			0	33195	0	0	0	17215	15790	158197	27312	951320	37280	106243	0	0	8119	800202	0	0
2024-04-18 02:09:32			0	33237	0	0	0	17225	15800	157989	26927	951275	37280	106247	0	0	8122	797984	0	0
2024-04-18 02:10:32			0	33282	0	0	0	17223	15800	157905	27229	951257	37291	106246	0	0	8124	795659	0	0
2024-04-18 02:11:32			0	33331	0	0	0	17223	15800	157609	27358	951328	37291	106246	0	0	8127	793133	0	0
2024-04-18 02:12:32			0	33395	0	0	0	17179	15800	157265	27045	951310	37291	106229	0	0	8132	789845	0	0
2024-04-18 02:13:32			0	33420	0	0	0	17171	15800	157129	27232	951223	37280	106226	0	0	8134	788564	0	0
2024-04-18 02:14:32			0	33411	0	0	0	17199	15790	157121	27119	951241	37280	106237	0	0	8133	789067	0	0
2024-04-18 02:15:32			0	33397	0	0	0	17210	15800	157197	27658	951328	37291	106241	0	0	8132	789743	0	0
2024-04-18 02:16:32			0	33398	0	0	0	17218	15810	157225	27033	951344	37303	106244	0	0	8132	789649	0	0
2024-04-18 02:17:32			0	33416	0	0	0	17199	15800	157097	27227	951310	37313	106237	0	0	8133	788769	0	0
2024-04-18 02:18:32			0	33428	0	0	0	17225	15810	157109	27111	951379	37293	106247	0	0	8133	788111	0	0
2024-04-18 02:19:32			0	33460	0	0	0	17215	15810	156961	27480	951352	37293	106243	0	0	8135	786474	0	0
2024-04-18 02:20:32			0	33469	0	0	0	17218	15810	156929	27234	951405	37293	106244	0	0	8136	786014	0	0
2024-04-18 02:21:32			0	33495	0	0	0	17225	15810	156805	27112	951484	37304	106247	0	0	8137	784687	0	0
2024-04-18 02:22:32			0	33489	0	0	0	17220	15820	156777	27343	951526	37304	106245	0	0	8137	784951	0	0
2024-04-18 02:23:32			0	33521	0	0	0	17218	15830	156593	27140	951429	37293	106244	0	0	8139	783277	0	0
2024-04-18 02:24:32			0	33536	0	0	0	17223	15830	156493	27500	951464	37305	106246	0	0	8140	782513	0	0
2024-04-18 02:25:32			0	33554	0	0	0	17212	15840	156537	27412	951419	37305	106242	0	0	8141	781555	0	0
2024-04-18 02:26:32			0	33576	0	0	0	17210	15840	156429	27424	951472	37305	106241	0	0	8142	780437	0	0
2024-04-18 02:27:32			0	33568	0	0	0	17205	15840	156473	27154	951498	37305	106239	0	0	8142	780843	0	0
2024-04-18 02:28:32			0	33543	0	0	0	17215	15840	156437	27131	951393	37305	106243	0	0	8140	782115	0	0
2024-04-18 02:29:32			0	33546	0	0	0	17205	15840	156525	27383	951419	37305	106239	0	0	8141	781962	0	0
2024-04-18 02:30:32			0	33524	0	0	0	17202	15840	156573	27244	951472	37294	106238	0	0	8139	783082	0	0
2024-04-18 02:31:32			0	33514	0	0	0	17202	15830	156689	26894	951437	37305	106238	0	0	8139	783634	0	0
2024-04-18 02:32:32			0	33504	0	0	0	17189	15840	156609	27020	951427	37294	106233	0	0	8138	784101	0	0
2024-04-18 02:33:32			0	33474	0	0	0	17194	15830	156765	27396	951411	37294	106235	0	0	8137	785674	0	0
2024-04-18 02:34:32			0	33457	0	0	0	17189	15840	156821	26861	951401	37305	106233	0	0	8136	786500	0	0
2024-04-18 02:35:32			0	33452	0	0	0	17197	15840	156933	27024	951375	37294	106236	0	0	8135	786756	0	0
2024-04-18 02:36:32			0	33429	0	0	0	17199	15840	156985	27066	951419	37294	106237	0	0	8134	787933	0	0
2024-04-18 02:37:32			0	33448	0	0	0	17181	15830	157009	27060	951411	37305	106230	0	0	8135	787003	0	0
2024-04-18 02:38:32			0	33440	0	0	0	17189	15840	156881	26918	951401	37294	106233	0	0	8135	787370	0	0
2024-04-18 02:39:32			0	33449	0	0	0	17083	15840	156985	27053	951287	37284	106192	0	0	8137	786909	0	0
2024-04-18 02:40:32			0	33416	0	0	0	17044	15820	156941	26984	951202	37293	106177	0	0	8136	788684	0	0
2024-04-18 02:41:32			0	33339	0	0	0	17096	15800	157393	26797	951152	37281	106197	0	0	8130	792722	0	0
2024-04-18 02:42:32			0	33255	0	0	0	17111	15800	157893	26916	951144	37269	106203	0	0	8125	797053	0	0
2024-04-18 02:43:32			0	33198	0	0	0	17072	15790	158109	27206	951135	37269	106188	0	0	8122	800046	0	0
2024-04-18 02:44:32			0	33159	0	0	0	17096	15780	158321	27102	951146	37279	106197	0	0	8119	802113	0	0
2024-04-18 02:45:32			0	33112	0	0	0	17088	15780	158585	27034	951111	37278	106194	0	0	8116	804558	0	0
2024-04-18 02:46:32			0	33084	0	0	0	17077	15760	158625	27244	951061	37266	106190	0	0	8115	806104	0	0
2024-04-18 02:47:32			0	33066	0	0	0	17093	15770	158861	26965	951103	37289	106196	0	0	8113	806999	0	0
2024-04-18 02:48:32			0	33054	0	0	0	17077	15760	158841	27348	951087	37289	106190	0	0	8113	807670	0	0
2024-04-18 02:49:32			0	33045	0	0	0	17070	15760	158825	27130	951079	37288	106187	0	0	8113	808140	0	0
2024-04-18 02:50:32			0	33046	0	0	0	17096	15760	158897	26868	951052	37288	106197	0	0	8112	808088	0	0
2024-04-18 02:51:32			0	33056	0	0	0	17080	15760	158945	27277	951131	37277	106191	0	0	8113	807565	0	0
2024-04-18 02:52:32			0	33035	0	0	0	17083	15760	158965	26849	951079	37298	106192	0	0	8112	808663	0	0
2024-04-18 02:53:32			0	33012	0	0	0	17090	15760	159001	27322	951087	37299	106195	0	0	8110	809866	0	0
2024-04-18 02:54:32			0	33015	0	0	0	17075	15750	159037	27365	951044	37277	106189	0	0	8111	809753	0	0
2024-04-18 02:55:32			0	33013	0	0	0	17085	15760	159101	27041	951113	37266	106193	0	0	8110	809814	0	0
2024-04-18 02:56:32			0	32988	0	0	0	17085	15750	159113	27306	951036	37277	106193	0	0	8109	811168	0	0
2024-04-18 02:57:32			0	32991	0	0	0	17140	15760	159297	27069	951105	37288	106214	0	0	8108	810967	0	0
2024-04-18 02:58:32			0	32987	0	0	0	17132	15760	159249	27287	951079	37288	106211	0	0	8108	811176	0	0
2024-04-18 02:59:32			0	33022	0	0	0	17153	15760	159129	27220	951131	37277	106219	0	0	8110	809343	0	0
2024-04-18 03:00:32			0	33021	0	0	0	17150	15750	159085	26901	951150	37288	106218	0	0	8110	809439	0	0
2024-04-18 03:01:32			0	33021	0	0	0	17140	15760	159161	27241	951158	37288	106214	0	0	8110	809395	0	0
2024-04-18 03:02:32			0	33020	0	0	0	17122	15760	159037	27209	951192	37289	106207	0	0	8110	809448	0	0
2024-04-18 03:03:32			0	33024	0	0	0	17114	15770	158957	27163	951174	37289	106204	0	0	8111	809195	0	0
2024-04-18 03:04:32			0	33029	0	0	0	17106	15770	158909	26902	951182	37289	106201	0	0	8111	808933	0	0
2024-04-18 03:05:32			0	33027	0	0	0	17114	15770	158973	27343	951121	37289	106204	0	0	8111	809038	0	0
2024-04-18 03:06:32			0	32996	0	0	0	17096	15770	159117	27131	951129	37289	106197	0	0	8109	810661	0	0
2024-04-18 03:07:32			0	32989	0	0	0	17098	15770	159249	27268	951095	37278	106198	0	0	8109	811028	0	0
2024-04-18 03:08:32			0	32962	0	0	0	17093	15770	159337	27317	951129	37300	106196	0	0	8107	812444	0	0
2024-04-18 03:09:32			0	32955	0	0	0	17093	15770	159425	26894	951095	37289	106196	0	0	8107	812812	0	0
2024-04-18 03:10:32			0	32925	0	0	0	17101	15760	159509	26981	951087	37289	106199	0	0	8105	814433	0	0
2024-04-18 03:11:32			0	32909	0	0	0	17067	15760	159625	26981	951079	37288	106186	0	0	8104	815275	0	0
2024-04-18 03:12:32			0	32904	0	0	0	17080	15760	159677	27031	951131	37288	106191	0	0	8104	815538	0	0
2024-04-18 03:13:32			0	32861	0	0	0	17075	15760	159689	27041	951113	37277	106189	0	0	8101	817806	0	0
2024-04-18 03:14:32			0	32887	0	0	0	17080	15770	159705	27272	951069	37289	106191	0	0	8103	816390	0	0
2024-04-18 03:15:32			0	32873	0	0	0	17080	15750	159777	27185	951089	37288	106191	0	0	8102	817216	0	0
2024-04-18 03:16:32			0	32880	0	0	0	17080	15750	159789	26864	951071	37277	106191	0	0	8102	816847	0	0
2024-04-18 03:17:32			0	32876	0	0	0	17080	15750	159765	26753	951176	37277	106191	0	0	8102	817058	0	0
2024-04-18 03:18:32			0	32881	0	0	0	17093	15770	159617	27180	951095	37300	106196	0	0	8102	816706	0	0
2024-04-18 03:19:32			0	32886	0	0	0	17075	15750	159637	27208	951150	37277	106189	0	0	8103	816531	0	0
2024-04-18 03:20:32			0	32892	0	0	0	17070	15760	159773	26996	951052	37298	106187	0	0	8103	816171	0	0
2024-04-18 03:21:32			0	32889	0	0	0	17088	15760	159645	26871	951052	37288	106194	0	0	8103	816329	0	0
2024-04-18 03:22:32			0	32897	0	0	0	17067	15750	159681	27249	951044	37288	106186	0	0	8104	815951	0	0
2024-04-18 03:23:32			0	32889	0	0	0	17057	15750	159793	27209	951071	37277	106182	0	0	8103	816372	0	0
2024-04-18 03:24:32			0	32869	0	0	0	17051	15750	159681	27072	951010	37288	106180	0	0	8102	817427	0	0
2024-04-18 03:25:32			0	32874	0	0	0	17046	15730	159705	27017	951064	37274	106178	0	0	8102	817252	0	0
2024-04-18 03:26:32			0	32882	0	0	0	17036	15740	159697	27227	951046	37275	106174	0	0	8103	816786	0	0
2024-04-18 03:27:32			0	32865	0	0	0	17023	15740	159657	26923	950967	37264	106169	0	0	8102	817682	0	0
2024-04-18 03:28:32			0	32871	0	0	0	17023	15740	159681	26915	950967	37275	106169	0	0	8103	817366	0	0
2024-04-18 03:29:32			0	32892	0	0	0	17023	15720	159645	26866	950916	37285	106169	0	0	8104	816346	0	0
2024-04-18 03:30:32			0	32887	0	0	0	17018	15720	159649	26868	950961	37273	106167	0	0	8104	816610	0	0
2024-04-18 03:31:32			0	32894	0	0	0	17020	15720	159645	27024	950916	37263	106168	0	0	8104	816241	0	0
2024-04-18 03:32:32			0	32895	0	0	0	17010	15710	159657	27199	950900	37284	106164	0	0	8104	816232	0	0
2024-04-18 03:33:32			0	32892	0	0	0	16999	15720	159709	27053	950916	37274	106160	0	0	8104	816346	0	0
2024-04-18 03:34:32			0	32912	0	0	0	17007	15710	159521	27296	950840	37284	106163	0	0	8105	815337	0	0
2024-04-18 03:35:32			0	32932	0	0	0	17005	15710	159489	27176	950918	37273	106162	0	0	8107	814284	0	0
2024-04-18 03:36:32			0	32925	0	0	0	16999	15700	159545	27147	950858	37261	106160	0	0	8106	814696	0	0
2024-04-18 03:37:32			0	32930	0	0	0	17002	15700	159557	27230	950876	37261	106161	0	0	8106	814433	0	0
2024-04-18 03:38:32			0	32952	0	0	0	17005	15690	159445	27012	950789	37292	106162	0	0	8108	813320	0	0
2024-04-18 03:39:32			0	32941	0	0	0	16989	15690	159537	27071	950807	37260	106156	0	0	8107	813898	0	0
2024-04-18 03:40:32			0	32937	0	0	0	16989	15690	159397	27194	950781	37260	106156	0	0	8107	814109	0	0
2024-04-18 03:41:32			0	32930	0	0	0	16981	15690	159557	27412	950754	37271	106153	0	0	8107	814477	0	0
2024-04-18 03:42:32			0	32941	0	0	0	16971	15680	159477	27199	950765	37259	106149	0	0	8107	813942	0	0
2024-04-18 03:43:32			0	32951	0	0	0	16963	15680	159429	26981	950738	37259	106146	0	0	8108	813416	0	0
2024-04-18 03:44:32			0	32961	0	0	0	16945	15670	159453	27081	950756	37269	106139	0	0	8109	812935	0	0
2024-04-18 03:45:32			0	32976	0	0	0	16932	15660	159385	27000	950601	37257	106134	0	0	8110	812191	0	0
2024-04-18 03:46:32			0	32999	0	0	0	16927	15660	159225	27107	950635	37268	106132	0	0	8112	810984	0	0
2024-04-18 03:47:32			0	33012	0	0	0	16924	15650	159009	27027	950584	37278	106131	0	0	8112	810346	0	0
2024-04-18 03:48:32			0	33040	0	0	0	16927	15640	159009	26946	950629	37267	106132	0	0	8114	808924	0	0
2024-04-18 03:49:32			0	33056	0	0	0	16916	15630	158937	27119	950499	37254	106128	0	0	8115	808131	0	0
2024-04-18 03:50:32			0	33047	0	0	0	16903	15620	158857	27301	950517	37254	106123	0	0	8115	808645	0	0
2024-04-18 03:51:32			0	33072	0	0	0	16922	15630	158821	27281	950578	37265	106130	0	0	8116	807295	0	0
2024-04-18 03:52:32			0	33078	0	0	0	16922	15620	158817	27254	950483	37254	106130	0	0	8116	807025	0	0
2024-04-18 03:53:32			0	33095	0	0	0	16919	15620	158793	27270	950483	37265	106129	0	0	8117	806138	0	0
2024-04-18 03:54:32			0	33099	0	0	0	16909	15610	158845	26856	950501	37243	106125	0	0	8118	805972	0	0
2024-04-18 03:55:32			0	33109	0	0	0	16919	15610	158777	27199	950448	37253	106129	0	0	8118	805451	0	0
2024-04-18 03:56:32			0	33105	0	0	0	16911	15610	158713	26852	950448	37253	106126	0	0	8118	805659	0	0
2024-04-18 03:57:32			0	33114	0	0	0	16909	15610	158729	27163	950467	37263	106125	0	0	8119	805190	0	0
2024-04-18 03:58:32			0	33098	0	0	0	16916	15600	158793	27239	950477	37263	106128	0	0	8118	806068	0	0
2024-04-18 03:59:32			0	33077	0	0	0	16927	15600	158873	27163	950503	37263	106132	0	0	8116	807164	0	0
2024-04-18 04:00:32			0	33078	0	0	0	16932	15600	159001	27045	950485	37263	106134	0	0	8116	807112	0	0
2024-04-18 04:01:32			0	33030	0	0	0	16935	15600	159065	27168	950503	37263	106135	0	0	8113	809622	0	0
2024-04-18 04:02:32			0	33017	0	0	0	16945	15590	159209	27149	950521	37241	106139	0	0	8112	810346	0	0
2024-04-18 04:03:32			0	32981	0	0	0	16937	15600	159441	27067	950503	37263	106136	0	0	8110	812191	0	0
2024-04-18 04:04:32			0	32960	0	0	0	16958	15600	159429	26961	950511	37252	106144	0	0	8108	813294	0	0
2024-04-18 04:05:32			0	32942	0	0	0	16948	15580	159553	27201	950539	37273	106140	0	0	8107	814328	0	0
2024-04-18 04:06:32			0	32933	0	0	0	16976	15600	159621	27092	950564	37275	106151	0	0	8107	814714	0	0
2024-04-18 04:07:32			0	32950	0	0	0	16999	15610	159605	27315	950598	37263	106160	0	0	8107	813776	0	0
2024-04-18 04:08:32			0	32964	0	0	0	16997	15610	159489	26937	950625	37263	106159	0	0	8108	813040	0	0
2024-04-18 04:09:32			0	32951	0	0	0	16986	15610	159505	27282	950633	37287	106155	0	0	8107	813723	0	0
2024-04-18 04:10:32			0	32967	0	0	0	16989	15630	159505	27322	950684	37276	106156	0	0	8109	812795	0	0
2024-04-18 04:11:32			0	32951	0	0	0	16979	15630	159537	27190	950631	37265	106152	0	0	8108	813635	0	0
2024-04-18 04:12:32			0	32927	0	0	0	16974	15630	159633	27022	950605	37265	106150	0	0	8106	814898	0	0
2024-04-18 04:13:32			0	32935	0	0	0	16976	15630	159753	27286	950605	37265	106151	0	0	8107	814477	0	0
2024-04-18 04:14:32			0	32953	0	0	0	16979	15620	159497	27008	950649	37265	106152	0	0	8108	813574	0	0
2024-04-18 04:15:32			0	32996	0	0	0	16981	15630	159349	27097	950613	37266	106153	0	0	8110	811273	0	0
2024-04-18 04:16:32			0	33031	0	0	0	16981	15630	159097	27443	950657	37265	106153	0	0	8113	809439	0	0
2024-04-18 04:17:32			0	33148	0	0	0	16984	15620	158697	27384	950675	37276	106154	0	0	8120	803377	0	0
2024-04-18 04:18:32			0	33219	0	0	0	16986	15630	158333	26913	950684	37276	106155	0	0	8124	799647	0	0
2024-04-18 04:19:32			0	33300	0	0	0	16979	15630	157913	27339	950684	37276	106152	0	0	8129	795458	0	0
2024-04-18 04:20:32			0	33358	0	0	0	16984	15630	157593	26909	950665	37277	106154	0	0	8132	792470	0	0
2024-04-18 04:21:32			0	33409	0	0	0	16979	15620	157385	27095	950649	37265	106152	0	0	8135	789893	0	0
2024-04-18 04:22:32			0	33439	0	0	0	16979	15630	157301	27102	950692	37288	106152	0	0	8137	788312	0	0
2024-04-18 04:23:32			0	33476	0	0	0	16971	15630	157009	27026	950605	37276	106149	0	0	8140	786419	0	0
2024-04-18 04:24:32			0	33502	0	0	0	16974	15630	156929	27081	950684	37254	106150	0	0	8141	785091	0	0
2024-04-18 04:25:32			0	33552	0	0	0	16961	15630	156713	26949	950613	37277	106145	0	0	8144	782542	0	0
2024-04-18 04:26:32			0	33567	0	0	0	16948	15620	156714	27175	950588	37265	106140	0	0	8145	781820	0	0
2024-04-18 04:27:32			0	33601	0	0	0	16958	15630	156554	27301	950578	37265	106144	0	0	8147	780050	0	0
2024-04-18 04:28:32			0	33592	0	0	0	16955	15620	156534	27031	950588	37276	106143	0	0	8147	780549	0	0
2024-04-18 04:29:32			0	33592	0	0	0	16948	15620	156478	26986	950623	37265	106140	0	0	8147	780549	0	0
2024-04-18 04:30:32			0	33620	0	0	0	16945	15620	156346	27074	950588	37265	106139	0	0	8148	779127	0	0
2024-04-18 04:31:32			0	33641	0	0	0	16945	15620	156250	26977	950614	37276	106139	0	0	8150	778062	0	0
2024-04-18 04:32:32			0	33689	0	0	0	16935	15620	156086	27329	950562	37287	106135	0	0	8153	775633	0	0
2024-04-18 04:33:32			0	33695	0	0	0	16940	15620	156014	27164	950588	37254	106137	0	0	8153	775330	0	0
2024-04-18 04:34:32			0	33732	0	0	0	16935	15610	155946	26987	950519	37252	106135	0	0	8155	773503	0	0
2024-04-18 04:35:32			0	33718	0	0	0	16927	15610	155846	27550	950546	37263	106132	0	0	8154	774210	0	0
2024-04-18 04:36:32			0	33745	0	0	0	16919	15610	155862	27391	950527	37275	106129	0	0	8156	772848	0	0
2024-04-18 04:37:32			0	33763	0	0	0	16929	15610	155798	27341	950527	37264	106133	0	0	8157	771941	0	0
2024-04-18 04:38:32			0	33773	0	0	0	16919	15600	155706	27336	950538	37252	106129	0	0	8158	771479	0	0
2024-04-18 04:39:32			0	33770	0	0	0	16924	15600	155686	27118	950503	37263	106131	0	0	8158	771630	0	0
2024-04-18 04:40:32			0	33792	0	0	0	16929	15600	155630	27062	950503	37252	106133	0	0	8159	770523	0	0
2024-04-18 04:41:32			0	33788	0	0	0	16922	15590	155534	27365	950495	37263	106130	0	0	8159	770765	0	0
2024-04-18 04:42:32			0	33808	0	0	0	16922	15590	155530	27036	950495	37263	106130	0	0	8160	769760	0	0
2024-04-18 04:43:32			0	33815	0	0	0	16916	15600	155474	27216	950424	37263	106128	0	0	8160	769367	0	0
2024-04-18 04:44:32			0	33833	0	0	0	16922	15590	155482	27196	950468	37263	106130	0	0	8161	768504	0	0
2024-04-18 04:45:32			0	33840	0	0	0	16919	15600	155378	27166	950477	37274	106129	0	0	8162	768112	0	0
2024-04-18 04:46:32			0	33855	0	0	0	16919	15590	155446	27313	950416	37274	106129	0	0	8163	767401	0	0
2024-04-18 04:47:32			0	33849	0	0	0	16916	15580	155346	27268	950487	37284	106128	0	0	8162	767743	0	0
2024-04-18 04:48:32			0	33851	0	0	0	16919	15590	155298	27081	950468	37274	106129	0	0	8162	767601	0	0
2024-04-18 04:49:32			0	33847	0	0	0	16922	15580	155366	26885	950460	37262	106130	0	0	8162	767843	0	0
2024-04-18 04:50:32			0	33854	0	0	0	16914	15580	155218	27396	950426	37261	106127	0	0	8163	767492	0	0
2024-04-18 04:51:32			0	33881	0	0	0	16914	15580	155198	27213	950426	37261	106127	0	0	8164	766140	0	0
2024-04-18 04:52:32			0	33874	0	0	0	16919	15570	155242	27152	950462	37250	106129	0	0	8164	766532	0	0
2024-04-18 04:53:32			0	33889	0	0	0	16906	15560	155226	27164	950499	37270	106124	0	0	8165	765822	0	0
2024-04-18 04:54:32			0	33887	0	0	0	16911	15560	155214	27374	950454	37260	106126	0	0	8164	765922	0	0
2024-04-18 04:55:32			0	33896	0	0	0	16909	15570	155194	27095	950470	37261	106125	0	0	8165	765430	0	0
2024-04-18 04:56:32			0	33893	0	0	0	16906	15570	155266	26934	950444	37272	106124	0	0	8165	765580	0	0
2024-04-18 04:57:32			0	33890	0	0	0	16906	15560	155178	27159	950428	37271	106124	0	0	8165	765772	0	0
2024-04-18 04:58:32			0	33881	0	0	0	16906	15560	155206	27227	950375	37250	106124	0	0	8164	766222	0	0
2024-04-18 04:59:32			0	33879	0	0	0	16906	15560	155210	27178	950428	37282	106124	0	0	8164	766322	0	0
2024-04-18 05:00:32			0	33899	0	0	0	16909	15570	155250	27254	950383	37240	106125	0	0	8165	765280	0	0
2024-04-18 05:01:32			0	33896	0	0	0	16903	15560	155138	27090	950420	37259	106123	0	0	8165	765472	0	0
2024-04-18 05:02:32			0	33884	0	0	0	16909	15550	155230	27215	950438	37270	106125	0	0	8164	766113	0	0
2024-04-18 05:03:32			0	33882	0	0	0	16909	15560	155182	27130	950428	37260	106125	0	0	8164	766172	0	0
2024-04-18 05:04:32			0	33899	0	0	0	16903	15560	155230	27289	950420	37249	106123	0	0	8165	765322	0	0
2024-04-18 05:05:32			0	33901	0	0	0	16896	15560	155154	27230	950393	37270	106120	0	0	8166	765221	0	0
2024-04-18 05:06:32			0	33905	0	0	0	16911	15560	155174	27111	950393	37259	106126	0	0	8165	765021	0	0
2024-04-18 05:07:32			0	33922	0	0	0	16906	15560	155138	27436	950367	37270	106124	0	0	8167	764172	0	0
2024-04-18 05:08:32			0	33910	0	0	0	16909	15560	155142	27050	950393	37270	106125	0	0	8166	764771	0	0
2024-04-18 05:09:32			0	33906	0	0	0	16898	15550	155214	27206	950438	37259	106121	0	0	8166	765013	0	0
2024-04-18 05:10:32			0	33906	0	0	0	16901	15550	155082	26930	950438	37259	106122	0	0	8166	765013	0	0
2024-04-18 05:11:32			0	33919	0	0	0	16896	15560	155142	27383	950446	37270	106120	0	0	8167	764322	0	0
2024-04-18 05:12:32			0	33934	0	0	0	16898	15560	155210	27365	950367	37259	106121	0	0	8167	763572	0	0
2024-04-18 05:13:32			0	33912	0	0	0	16896	15550	155154	27419	950351	37270	106120	0	0	8166	764713	0	0
2024-04-18 05:14:32			0	33922	0	0	0	16901	15560	155158	27095	950315	37270	106122	0	0	8167	764172	0	0
2024-04-18 05:15:32			0	33899	0	0	0	16909	15550	155146	27055	950412	37249	106125	0	0	8165	765363	0	0
2024-04-18 05:16:32			0	33903	0	0	0	16906	15560	155098	27241	950420	37259	106124	0	0	8165	765121	0	0
2024-04-18 05:17:32			0	33913	0	0	0	16896	15550	155050	27313	950333	37259	106120	0	0	8166	764663	0	0
2024-04-18 05:18:32			0	33923	0	0	0	16901	15550	155074	27479	950359	37259	106122	0	0	8167	764163	0	0
2024-04-18 05:19:32			0	33910	0	0	0	16893	15550	155066	27272	950359	37259	106119	0	0	8166	764813	0	0
2024-04-18 05:20:32			0	33907	0	0	0	16901	15560	155066	27486	950446	37259	106122	0	0	8166	764921	0	0
2024-04-18 05:21:32			0	33901	0	0	0	16896	15540	154974	27457	950343	37270	106120	0	0	8165	765304	0	0
2024-04-18 05:22:32			0	33917	0	0	0	16896	15550	155022	27187	950377	37259	106120	0	0	8166	764463	0	0
2024-04-18 05:23:32			0	33914	0	0	0	16893	15550	155058	27294	950351	37270	106119	0	0	8166	764613	0	0
2024-04-18 05:24:32			0	33914	0	0	0	16893	15550	155082	27175	950412	37270	106119	0	0	8166	764613	0	0
2024-04-18 05:25:32			0	33900	0	0	0	16896	15550	155078	27060	950377	37259	106120	0	0	8165	765313	0	0
2024-04-18 05:26:32			0	33907	0	0	0	16885	15560	155162	27185	950420	37270	106116	0	0	8166	764921	0	0
2024-04-18 05:27:32			0	33891	0	0	0	16893	15540	155098	27007	950317	37259	106119	0	0	8165	765804	0	0
2024-04-18 05:28:32			0	33880	0	0	0	16893	15550	155146	27256	950325	37259	106119	0	0	8164	766314	0	0
2024-04-18 05:29:32			0	33908	0	0	0	16893	15540	155110	27209	950335	37258	106119	0	0	8166	764954	0	0
2024-04-18 05:30:32			0	33896	0	0	0	16893	15540	155206	27111	950317	37281	106119	0	0	8165	765554	0	0
2024-04-18 05:31:32			0	33905	0	0	0	16888	15550	155226	27332	950377	37259	106117	0	0	8166	765063	0	0
2024-04-18 05:32:32			0	33905	0	0	0	16885	15540	155238	27228	950308	37248	106116	0	0	8166	765104	0	0
2024-04-18 05:33:32			0	33903	0	0	0	16885	15540	155154	27384	950264	37270	106116	0	0	8166	765204	0	0
2024-04-18 05:34:32			0	33908	0	0	0	16888	15530	155194	26870	950353	37258	106117	0	0	8166	764995	0	0
2024-04-18 05:35:32			0	33898	0	0	0	16888	15550	155134	27147	950351	37281	106117	0	0	8165	765413	0	0
2024-04-18 05:36:32			0	33889	0	0	0	16885	15530	155226	27251	950300	37258	106116	0	0	8165	765945	0	0
2024-04-18 05:37:32			0	33902	0	0	0	16890	15530	155226	27402	950274	37258	106118	0	0	8166	765295	0	0
2024-04-18 05:38:32			0	33898	0	0	0	16880	15540	155142	27189	950308	37269	106114	0	0	8166	765454	0	0
2024-04-18 05:39:32			0	33881	0	0	0	16888	15550	155162	27085	950246	37270	106117	0	0	8164	766263	0	0
2024-04-18 05:40:32			0	33888	0	0	0	16885	15540	155174	27417	950308	37248	106116	0	0	8165	765954	0	0
2024-04-18 05:41:32			0	33895	0	0	0	16888	15540	155234	27433	950317	37270	106117	0	0	8165	765604	0	0
2024-04-18 05:42:32			0	33876	0	0	0	16893	15530	155194	27447	950327	37269	106119	0	0	8164	766596	0	0
2024-04-18 05:43:32			0	33885	0	0	0	16890	15550	155278	27242	950377	37270	106118	0	0	8165	766063	0	0
2024-04-18 05:44:32			0	33868	0	0	0	16890	15540	155302	27090	950317	37270	106118	0	0	8164	766956	0	0
2024-04-18 05:45:32			0	33894	0	0	0	16883	15540	155318	27426	950317	37270	106115	0	0	8165	765654	0	0
2024-04-18 05:46:32			0	33865	0	0	0	16883	15540	155270	27109	950256	37258	106115	0	0	8164	767106	0	0
2024-04-18 05:47:32			0	33875	0	0	0	16888	15540	155278	27336	950343	37259	106117	0	0	8164	766605	0	0
2024-04-18 05:48:32			0	33878	0	0	0	16888	15530	155222	27272	950406	37280	106117	0	0	8164	766496	0	0
2024-04-18 05:49:32			0	33870	0	0	0	16888	15540	155362	27178	950361	37258	106117	0	0	8164	766856	0	0
2024-04-18 05:50:32			0	33869	0	0	0	16890	15540	155438	27509	950369	37259	106118	0	0	8164	766906	0	0
2024-04-18 05:51:32			0	33865	0	0	0	16890	15550	155382	27171	950298	37270	106118	0	0	8163	767065	0	0
2024-04-18 05:52:32			0	33873	0	0	0	16896	15530	155342	27020	950274	37280	106120	0	0	8164	766747	0	0
2024-04-18 05:53:32			0	33865	0	0	0	16890	15540	155382	26944	950387	37269	106118	0	0	8163	767106	0	0
2024-04-18 05:54:32			0	33867	0	0	0	16890	15530	155282	27232	950300	37280	106118	0	0	8163	767047	0	0
2024-04-18 05:55:32			0	33867	0	0	0	16896	15540	155334	26934	950343	37259	106120	0	0	8163	767006	0	0
2024-04-18 05:56:32			0	33866	0	0	0	16901	15540	155430	27241	950361	37269	106122	0	0	8163	767056	0	0
2024-04-18 05:57:32			0	33858	0	0	0	16901	15540	155302	27121	950343	37259	106122	0	0	8163	767457	0	0
2024-04-18 05:58:32			0	33870	0	0	0	16903	15540	155246	27395	950396	37270	106123	0	0	8163	766856	0	0
2024-04-18 05:59:32			0	33862	0	0	0	16911	15540	155226	27369	950369	37270	106126	0	0	8163	767257	0	0
2024-04-18 06:00:32			0	33885	0	0	0	16916	15540	155230	27301	950422	37259	106128	0	0	8164	766105	0	0
2024-04-18 06:01:32			0	33875	0	0	0	16924	15550	155262	27353	950438	37270	106131	0	0	8163	766564	0	0
2024-04-18 06:02:32			0	33888	0	0	0	16948	15550	155222	27017	950491	37270	106140	0	0	8164	765913	0	0
2024-04-18 06:03:32			0	33890	0	0	0	16955	15570	155190	27111	950541	37272	106143	0	0	8164	765731	0	0
2024-04-18 06:04:32			0	33890	0	0	0	16963	15570	155158	27013	950541	37272	106146	0	0	8164	765731	0	0
2024-04-18 06:05:32			0	33900	0	0	0	16974	15590	155174	27112	950600	37285	106150	0	0	8164	765148	0	0
2024-04-18 06:06:32			0	33896	0	0	0	16974	15580	155170	26850	950610	37293	106150	0	0	8164	765389	0	0
2024-04-18 06:07:32			0	33910	0	0	0	16974	15570	155078	27041	950602	37261	106150	0	0	8165	764730	0	0
2024-04-18 06:08:32			0	33918	0	0	0	16971	15600	154986	27069	950582	37285	106149	0	0	8165	764207	0	0
2024-04-18 06:09:32			0	33902	0	0	0	16961	15600	155014	27104	950608	37274	106145	0	0	8165	765007	0	0
2024-04-18 06:10:32			0	33915	0	0	0	16976	15600	155066	27175	950616	37275	106151	0	0	8165	764357	0	0
2024-04-18 06:11:32			0	33925	0	0	0	16984	15600	155010	27152	950661	37285	106154	0	0	8166	763857	0	0
2024-04-18 06:12:32			0	33926	0	0	0	16984	15600	155074	27109	950722	37275	106154	0	0	8166	763808	0	0
2024-04-18 06:13:32			0	33916	0	0	0	16984	15610	155098	27033	950659	37264	106154	0	0	8165	764266	0	0
2024-04-18 06:14:32			0	33897	0	0	0	16999	15600	155074	27164	950669	37275	106160	0	0	8164	765257	0	0
2024-04-18 06:15:32			0	33903	0	0	0	17005	15620	155026	27478	950693	37276	106162	0	0	8164	764874	0	0
2024-04-18 06:16:32			0	33909	0	0	0	16994	15620	155074	27027	950675	37276	106158	0	0	8165	764575	0	0
2024-04-18 06:17:32			0	33913	0	0	0	16999	15620	155070	27275	950746	37276	106160	0	0	8165	764375	0	0
2024-04-18 06:18:32			0	33896	0	0	0	16997	15610	155106	27185	950738	37275	106159	0	0	8164	765266	0	0
2024-04-18 06:19:32			0	33891	0	0	0	17010	15630	155182	27222	950718	37277	106164	0	0	8163	765433	0	0
2024-04-18 06:20:32			0	33893	0	0	0	17015	15640	155146	27509	950726	37299	106166	0	0	8163	765292	0	0
2024-04-18 06:21:32			0	33892	0	0	0	17012	15640	155118	27232	950761	37289	106165	0	0	8163	765342	0	0
2024-04-18 06:22:32			0	33880	0	0	0	17010	15650	155178	27059	950742	37278	106164	0	0	8163	765901	0	0
2024-04-18 06:23:32			0	33872	0	0	0	17012	15640	155166	27303	950805	37289	106165	0	0	8162	766343	0	0
2024-04-18 06:24:32			0	33875	0	0	0	17018	15650	155334	27360	950795	37278	106167	0	0	8162	766151	0	0
2024-04-18 06:25:32			0	33883	0	0	0	17012	15650	155262	27668	950882	37290	106165	0	0	8163	765751	0	0
2024-04-18 06:26:32			0	33867	0	0	0	17018	15650	155142	27213	950829	37290	106167	0	0	8162	766552	0	0
2024-04-18 06:27:32			0	33870	0	0	0	17015	15660	155090	27254	950890	37291	106166	0	0	8162	766360	0	0
2024-04-18 06:28:32			0	33863	0	0	0	17025	15660	155154	27383	950811	37280	106170	0	0	8162	766711	0	0
2024-04-18 06:29:32			0	33866	0	0	0	17023	15650	155162	27263	950803	37279	106169	0	0	8162	766602	0	0
2024-04-18 06:30:32			0	33855	0	0	0	17025	15650	155078	27320	950856	37290	106170	0	0	8161	767153	0	0
2024-04-18 06:31:32			0	33872	0	0	0	17023	15660	155042	27685	950925	37291	106169	0	0	8162	766260	0	0
2024-04-18 06:32:32			0	33889	0	0	0	17028	15660	155138	27443	950846	37312	106171	0	0	8163	765410	0	0
2024-04-18 06:33:32			0	33887	0	0	0	17033	15670	155070	27183	950880	37280	106173	0	0	8163	765468	0	0
2024-04-18 06:34:32			0	33890	0	0	0	17023	15660	155058	27234	950846	37291	106169	0	0	8163	765360	0	0
2024-04-18 06:35:32			0	33897	0	0	0	17036	15670	155018	27199	950854	37301	106174	0	0	8163	764968	0	0
2024-04-18 06:36:32			0	33898	0	0	0	17031	15670	154962	27405	950888	37291	106172	0	0	8164	764918	0	0
2024-04-18 06:37:32			0	33918	0	0	0	17033	15670	154938	27248	950914	37291	106173	0	0	8165	763919	0	0
2024-04-18 06:38:32			0	33921	0	0	0	17046	15670	154882	27102	950888	37280	106178	0	0	8165	763769	0	0
2024-04-18 06:39:32			0	33939	0	0	0	17028	15680	154922	27176	950923	37302	106171	0	0	8166	762830	0	0
2024-04-18 06:40:32			0	33943	0	0	0	17031	15680	154874	27675	950931	37282	106172	0	0	8166	762630	0	0
2024-04-18 06:41:32			0	33947	0	0	0	17041	15680	154790	27310	950949	37291	106176	0	0	8166	762431	0	0
2024-04-18 06:42:32			0	33962	0	0	0	17044	15680	154838	27343	950931	37292	106177	0	0	8167	761683	0	0
2024-04-18 06:43:32			0	33949	0	0	0	17036	15680	154738	27454	950878	37292	106174	0	0	8166	762331	0	0
2024-04-18 06:44:32			0	33968	0	0	0	17041	15700	154822	27196	950929	37293	106176	0	0	8168	761302	0	0
2024-04-18 06:45:32			0	33969	0	0	0	17044	15680	154618	27407	950923	37291	106177	0	0	8168	761334	0	0
2024-04-18 06:46:32			0	33961	0	0	0	17046	15690	154622	27261	950912	37292	106178	0	0	8167	761692	0	0
2024-04-18 06:47:32			0	33965	0	0	0	17044	15690	154606	27213	950965	37292	106177	0	0	8167	761493	0	0
2024-04-18 06:48:32			0	33973	0	0	0	17051	15690	154626	27421	951000	37303	106180	0	0	8168	761094	0	0
2024-04-18 06:49:32			0	33978	0	0	0	17044	15700	154506	27260	950963	37294	106177	0	0	8168	760804	0	0
2024-04-18 06:50:32			0	33969	0	0	0	17049	15690	154526	27241	951026	37303	106179	0	0	8167	761293	0	0
2024-04-18 06:51:32			0	33989	0	0	0	17044	15690	154506	27166	950947	37292	106177	0	0	8169	760298	0	0
2024-04-18 06:52:32			0	34004	0	0	0	17049	15700	154490	27209	950989	37294	106179	0	0	8170	759511	0	0
2024-04-18 06:53:32			0	33989	0	0	0	17054	15690	154558	27692	950947	37282	106181	0	0	8169	760298	0	0
2024-04-18 06:54:32			0	33999	0	0	0	17057	15690	154374	27206	950973	37303	106182	0	0	8169	759800	0	0
2024-04-18 06:55:32			0	34005	0	0	0	17044	15700	154310	27419	951034	37293	106177	0	0	8170	759461	0	0
2024-04-18 06:56:32			0	34028	0	0	0	17054	15700	154334	27287	950989	37294	106181	0	0	8171	758319	0	0
2024-04-18 06:57:32			0	34020	0	0	0	17049	15700	154258	27100	951016	37294	106179	0	0	8171	758716	0	0
2024-04-18 06:58:32			0	34023	0	0	0	17054	15690	154202	27227	950973	37303	106181	0	0	8171	758608	0	0
2024-04-18 06:59:32			0	34049	0	0	0	17054	15700	154238	27086	950989	37294	106181	0	0	8172	757277	0	0
2024-04-18 07:00:32			0	34052	0	0	0	17059	15710	154166	27261	950979	37294	106183	0	0	8172	757087	0	0
2024-04-18 07:01:32			0	34062	0	0	0	17059	15710	154246	27298	951024	37305	106183	0	0	8173	756591	0	0
2024-04-18 07:02:32			0	34065	0	0	0	17067	15700	154098	27180	951042	37305	106186	0	0	8173	756484	0	0
2024-04-18 07:03:32			0	34082	0	0	0	17075	15710	154146	26948	951024	37305	106189	0	0	8174	755601	0	0
2024-04-18 07:04:32			0	34083	0	0	0	17072	15710	154114	26824	951050	37294	106188	0	0	8174	755551	0	0
2024-04-18 07:05:32			0	34084	0	0	0	17075	15710	154006	27173	951024	37284	106189	0	0	8174	755502	0	0
2024-04-18 07:06:32			0	34101	0	0	0	17080	15720	154046	27078	951074	37295	106191	0	0	8175	754620	0	0
2024-04-18 07:07:32			0	34094	0	0	0	17083	15720	153978	27279	951119	37306	106192	0	0	8174	754966	0	0
2024-04-18 07:08:32			0	34087	0	0	0	17085	15710	153990	27156	951024	37294	106193	0	0	8174	755353	0	0
2024-04-18 07:09:32			0	34095	0	0	0	17088	15730	154006	27027	951135	37295	106194	0	0	8174	754876	0	0
2024-04-18 07:10:32			0	34080	0	0	0	17098	15720	153926	27112	951022	37295	106198	0	0	8173	755659	0	0
2024-04-18 07:11:32			0	34097	0	0	0	17106	15720	153990	27034	951101	37295	106201	0	0	8174	754818	0	0
2024-04-18 07:12:32			0	34085	0	0	0	17122	15730	154050	27216	951170	37307	106207	0	0	8173	755371	0	0
2024-04-18 07:13:32			0	34075	0	0	0	17114	15740	154042	26946	951151	37296	106204	0	0	8173	755825	0	0
2024-04-18 07:14:32			0	34070	0	0	0	17124	15750	154186	27034	951273	37341	106208	0	0	8172	756032	0	0
2024-04-18 07:15:32			0	34058	0	0	0	17137	15740	154110	27274	951238	37297	106213	0	0	8171	756667	0	0
2024-04-18 07:16:32			0	34050	0	0	0	17142	15750	154298	27315	951229	37309	106215	0	0	8171	757023	0	0
2024-04-18 07:17:32			0	34040	0	0	0	17148	15750	154078	27104	951229	37309	106217	0	0	8170	757519	0	0
2024-04-18 07:18:32			0	34047	0	0	0	17129	15760	154102	27185	951289	37309	106210	0	0	8171	757131	0	0
2024-04-18 07:19:32			0	34058	0	0	0	17158	15760	153982	27201	951298	37310	106221	0	0	8171	756586	0	0
2024-04-18 07:20:32			0	34070	0	0	0	17158	15760	153918	27112	951298	37310	106221	0	0	8172	755991	0	0
2024-04-18 07:21:32			0	34092	0	0	0	17171	15770	153926	27265	951314	37343	106226	0	0	8173	754862	0	0
2024-04-18 07:22:32			0	34099	0	0	0	17168	15770	154006	27194	951340	37322	106225	0	0	8173	754516	0	0
2024-04-18 07:23:32			0	34103	0	0	0	17161	15780	153850	27448	951356	37300	106222	0	0	8174	754277	0	0
2024-04-18 07:24:32			0	34124	0	0	0	17171	15780	153778	27209	951409	37323	106226	0	0	8175	753239	0	0
2024-04-18 07:25:32			0	34131	0	0	0	17174	15780	153686	27357	951435	37323	106227	0	0	8175	752894	0	0
2024-04-18 07:26:32			0	34156	0	0	0	17174	15800	153602	27473	951441	37334	106227	0	0	8177	751580	0	0
2024-04-18 07:27:32			0	34168	0	0	0	17171	15790	153542	27149	951373	37312	106226	0	0	8177	751029	0	0
2024-04-18 07:28:32			0	34184	0	0	0	17187	15790	153598	27305	951399	37334	106232	0	0	8178	750241	0	0
2024-04-18 07:29:32			0	34171	0	0	0	17179	15790	153494	27239	951425	37323	106229	0	0	8177	750881	0	0
2024-04-18 07:30:32			0	34190	0	0	0	17179	15800	153306	27076	951407	37312	106229	0	0	8179	749905	0	0
2024-04-18 07:31:32			0	34208	0	0	0	17187	15810	153318	27390	951449	37325	106232	0	0	8180	748979	0	0
2024-04-18 07:32:32			0	34193	0	0	0	17187	15810	153386	26991	951449	37314	106232	0	0	8179	749717	0	0
2024-04-18 07:33:32			0	34202	0	0	0	17197	15810	153422	27135	951484	37315	106236	0	0	8179	749274	0	0
2024-04-18 07:34:32			0	34175	0	0	0	17192	15810	153474	27422	951484	37326	106234	0	0	8178	750603	0	0
2024-04-18 07:35:32			0	34183	0	0	0	17194	15820	153534	27260	951474	37326	106235	0	0	8178	750169	0	0
2024-04-18 07:36:32			0	34173	0	0	0	17197	15820	153390	27244	951492	37304	106236	0	0	8177	750661	0	0
2024-04-18 07:37:32			0	34171	0	0	0	17199	15820	153458	27209	951553	37315	106237	0	0	8177	750759	0	0
2024-04-18 07:38:32			0	34186	0	0	0	17192	15830	153502	27445	951508	37327	106234	0	0	8178	749980	0	0
2024-04-18 07:39:32			0	34170	0	0	0	17192	15830	153642	27346	951482	37316	106234	0	0	8177	750768	0	0
2024-04-18 07:40:32			0	34164	0	0	0	17194	15830	153510	27483	951535	37316	106235	0	0	8177	751064	0	0
2024-04-18 07:41:32			0	34157	0	0	0	17197	15830	153602	27145	951516	37349	106236	0	0	8177	751409	0	0
2024-04-18 07:42:32			0	34166	0	0	0	17194	15820	153498	27086	951579	37326	106235	0	0	8177	751006	0	0
2024-04-18 07:43:32			0	34178	0	0	0	17184	15830	153454	27338	951508	37305	106231	0	0	8178	750374	0	0
2024-04-18 07:44:32			0	34161	0	0	0	17194	15830	153394	27371	951535	37327	106235	0	0	8177	751212	0	0
2024-04-18 07:45:32			0	34160	0	0	0	17202	15830	153522	27232	951543	37316	106238	0	0	8177	751261	0	0
2024-04-18 07:46:32			0	34159	0	0	0	17199	15830	153406	27261	951561	37316	106237	0	0	8177	751310	0	0
2024-04-18 07:47:32			0	34181	0	0	0	17205	15830	153418	27019	951569	37328	106239	0	0	8178	750227	0	0
2024-04-18 07:48:32			0	34166	0	0	0	17205	15840	153538	26991	951630	37328	106239	0	0	8177	750925	0	0
2024-04-18 07:49:32			0	34155	0	0	0	17205	15840	153502	27097	951559	37328	106239	0	0	8176	751467	0	0
2024-04-18 07:50:32			0	34166	0	0	0	17205	15850	153494	27409	951567	37328	106239	0	0	8177	750884	0	0
2024-04-18 07:51:32			0	34146	0	0	0	17199	15840	153370	27128	951577	37338	106237	0	0	8176	751910	0	0
2024-04-18 07:52:32			0	34193	0	0	0	17199	15840	153378	27152	951577	37316	106237	0	0	8179	749596	0	0
2024-04-18 07:53:32			0	34204	0	0	0	17205	15840	153330	27100	951559	37316	106239	0	0	8179	749055	0	0
2024-04-18 07:54:32			0	34206	0	0	0	17197	15830	153242	27275	951569	37316	106236	0	0	8179	748997	0	0
2024-04-18 07:55:32			0	34213	0	0	0	17210	15840	153286	27402	951603	37328	106241	0	0	8180	748612	0	0
2024-04-18 07:56:32			0	34238	0	0	0	17202	15840	153182	27310	951585	37328	106238	0	0	8181	747385	0	0
2024-04-18 07:57:32			0	34248	0	0	0	17207	15850	153046	27180	951593	37328	106240	0	0	8182	746854	0	0
2024-04-18 07:58:32			0	34269	0	0	0	17212	15850	152946	27100	951567	37306	106242	0	0	8183	745824	0	0
2024-04-18 07:59:32			0	34278	0	0	0	17220	15850	152942	27121	951680	37339	106245	0	0	8183	745383	0	0
2024-04-18 08:00:32			0	34280	0	0	0	17218	15840	152938	27326	951585	37349	106244	0	0	8183	745326	0	0
2024-04-18 08:01:32			0	34267	0	0	0	17225	15850	152962	27109	951601	37329	106247	0	0	8182	745922	0	0
2024-04-18 08:02:32			0	34251	0	0	0	17215	15860	153022	27260	951583	37318	106243	0	0	8182	746666	0	0
2024-04-18 08:03:32			0	34247	0	0	0	17223	15860	153154	27317	951636	37318	106246	0	0	8181	746862	0	0
2024-04-18 08:04:32			0	34217	0	0	0	17218	15860	153178	27711	951636	37318	106244	0	0	8180	748335	0	0
2024-04-18 08:05:32			0	34198	0	0	0	17215	15860	153374	27305	951670	37329	106243	0	0	8179	749269	0	0
2024-04-18 08:06:32			0	34190	0	0	0	17223	15850	153342	27098	951654	37329	106246	0	0	8178	749703	0	0
2024-04-18 08:07:32			0	34201	0	0	0	17231	15870	153318	27325	951678	37319	106249	0	0	8179	749081	0	0
2024-04-18 08:08:32			0	34194	0	0	0	17223	15850	153410	27450	951654	37329	106246	0	0	8178	749506	0	0
2024-04-18 08:09:32			0	34198	0	0	0	17233	15860	153298	27379	951723	37329	106250	0	0	8178	749269	0	0
2024-04-18 08:10:32			0	34191	0	0	0	17244	15870	153302	27438	951652	37351	106254	0	0	8178	749573	0	0
2024-04-18 08:11:32			0	34182	0	0	0	17225	15860	153286	27656	951723	37329	106247	0	0	8178	750056	0	0
2024-04-18 08:12:32			0	34182	0	0	0	17225	15870	153298	27216	951731	37330	106247	0	0	8178	750016	0	0
2024-04-18 08:13:32			0	34193	0	0	0	17231	15870	153394	27118	951652	37340	106249	0	0	8178	749474	0	0
2024-04-18 08:14:32			0	34196	0	0	0	17228	15870	153278	27284	951731	37319	106248	0	0	8178	749327	0	0
2024-04-18 08:15:32			0	34176	0	0	0	17233	15860	153318	27435	951715	37329	106250	0	0	8177	750351	0	0
2024-04-18 08:16:32			0	34183	0	0	0	17228	15880	153350	27377	951713	37341	106248	0	0	8178	749926	0	0
2024-04-18 08:17:32			0	34184	0	0	0	17231	15880	153282	27348	951713	37331	106249	0	0	8178	749877	0	0
2024-04-18 08:18:32			0	34174	0	0	0	17228	15880	153258	27357	951713	37363	106248	0	0	8177	750369	0	0
2024-04-18 08:19:32			0	34175	0	0	0	17231	15880	153342	27327	951721	37321	106249	0	0	8177	750320	0	0
2024-04-18 08:20:32			0	34164	0	0	0	17236	15870	153330	27147	951705	37319	106251	0	0	8176	750902	0	0
2024-04-18 08:21:32			0	34158	0	0	0	17233	15890	153390	27312	951685	37342	106250	0	0	8176	751116	0	0
2024-04-18 08:22:32			0	34150	0	0	0	17228	15870	153342	27274	951678	37330	106248	0	0	8176	751592	0	0
2024-04-18 08:23:32			0	34148	0	0	0	17233	15880	153322	27504	951721	37321	106250	0	0	8176	751650	0	0
2024-04-18 08:24:32			0	34144	0	0	0	17233	15870	153418	27578	951678	37340	106250	0	0	8175	751887	0	0
2024-04-18 08:25:32			0	34146	0	0	0	17225	15890	153438	27523	951782	37342	106247	0	0	8176	751708	0	0
2024-04-18 08:26:32			0	34137	0	0	0	17231	15880	153458	27268	951739	37331	106249	0	0	8175	752192	0	0
2024-04-18 08:27:32			0	34158	0	0	0	17233	15860	153454	27005	951697	37339	106250	0	0	8176	751238	0	0
2024-04-18 08:28:32			0	34129	0	0	0	17238	15880	153466	27391	951827	37332	106252	0	0	8174	752587	0	0
2024-04-18 08:29:32			0	34135	0	0	0	17228	15880	153506	27774	951721	37321	106248	0	0	8175	752291	0	0
2024-04-18 08:30:32			0	34136	0	0	0	17241	15880	153410	27319	951748	37321	106253	0	0	8175	752241	0	0
2024-04-18 08:31:32			0	34151	0	0	0	17244	15880	153530	27175	951739	37363	106254	0	0	8176	751502	0	0
2024-04-18 08:32:32			0	34134	0	0	0	17254	15900	153506	27454	951772	37343	106258	0	0	8175	752259	0	0
2024-04-18 08:33:32			0	34110	0	0	0	17236	15890	153474	27296	951764	37342	106251	0	0	8173	753484	0	0
2024-04-18 08:34:32			0	34139	0	0	0	17246	15890	153498	27550	951869	37332	106255	0	0	8175	752053	0	0
2024-04-18 08:35:32			0	34140	0	0	0	17244	15890	153418	27206	951729	37321	106254	0	0	8175	752004	0	0
2024-04-18 08:36:32			0	34128	0	0	0	17259	15890	153518	27298	951764	37321	106260	0	0	8174	752596	0	0
2024-04-18 08:37:32			0	34148	0	0	0	17246	15890	153470	27441	951764	37332	106255	0	0	8175	751609	0	0
2024-04-18 08:38:32			0	34135	0	0	0	17246	15900	153434	27332	951727	37333	106255	0	0	8175	752210	0	0
2024-04-18 08:39:32			0	34132	0	0	0	17259	15900	153474	27682	951798	37333	106260	0	0	8174	752358	0	0
2024-04-18 08:40:32			0	34146	0	0	0	17244	15890	153514	27254	951764	37342	106254	0	0	8175	751708	0	0
2024-04-18 08:41:32			0	34132	0	0	0	17244	15900	153434	27416	951746	37354	106254	0	0	8175	752358	0	0
2024-04-18 08:42:32			0	34135	0	0	0	17238	15890	153386	27345	951764	37332	106252	0	0	8175	752250	0	0
2024-04-18 08:43:32			0	34137	0	0	0	17251	15890	153454	27758	951782	37332	106257	0	0	8175	752152	0	0
2024-04-18 08:44:32			0	34145	0	0	0	17249	15890	153462	27691	951808	37332	106256	0	0	8175	751757	0	0
2024-04-18 08:45:32			0	34139	0	0	0	17241	15890	153382	27281	951737	37332	106253	0	0	8175	752053	0	0
2024-04-18 08:46:32			0	34135	0	0	0	17241	15900	153334	27377	951772	37354	106253	0	0	8175	752210	0	0
2024-04-18 08:47:32			0	34141	0	0	0	17244	15900	153378	27625	951798	37354	106254	0	0	8175	751914	0	0
2024-04-18 08:48:32			0	34140	0	0	0	17246	15890	153410	27537	951816	37332	106255	0	0	8175	752004	0	0
2024-04-18 08:49:32			0	34154	0	0	0	17249	15890	153334	27746	951764	37332	106256	0	0	8176	751314	0	0
2024-04-18 08:50:32			0	34154	0	0	0	17251	15890	153474	27618	951808	37332	106257	0	0	8176	751314	0	0
2024-04-18 08:51:32			0	34148	0	0	0	17249	15890	153370	27232	951790	37332	106256	0	0	8175	751609	0	0
2024-04-18 08:52:32			0	34153	0	0	0	17249	15900	153350	27381	951772	37365	106256	0	0	8176	751322	0	0
2024-04-18 08:53:32			0	34142	0	0	0	17262	15890	153450	27230	951790	37332	106261	0	0	8175	751905	0	0
2024-04-18 08:54:32			0	34132	0	0	0	17257	15900	153402	27287	951859	37322	106259	0	0	8174	752358	0	0
2024-04-18 08:55:32			0	34137	0	0	0	17246	15900	153434	27225	951851	37333	106255	0	0	8175	752111	0	0
2024-04-18 08:56:32			0	34158	0	0	0	17249	15900	153474	27204	951806	37322	106256	0	0	8176	751076	0	0
2024-04-18 08:57:32			0	34151	0	0	0	17254	15900	153438	27587	951806	37333	106258	0	0	8176	751421	0	0
2024-04-18 08:58:32			0	34122	0	0	0	17257	15900	153394	27563	951798	37354	106259	0	0	8174	752851	0	0
2024-04-18 08:59:32			0	34142	0	0	0	17251	15910	153430	27472	951814	37333	106257	0	0	8175	751824	0	0
2024-04-18 09:00:32			0	34137	0	0	0	17254	15900	153506	27481	951825	37333	106258	0	0	8175	752111	0	0
2024-04-18 09:01:32			0	34122	0	0	0	17264	15910	153486	27277	951814	37322	106262	0	0	8174	752810	0	0
2024-04-18 09:02:32			0	34137	0	0	0	17259	15900	153446	27187	951825	37333	106260	0	0	8175	752111	0	0
2024-04-18 09:03:32			0	34128	0	0	0	17264	15900	153542	27428	951833	37355	106262	0	0	8174	752555	0	0
2024-04-18 09:04:32			0	34133	0	0	0	17264	15910	153558	27196	951867	37344	106262	0	0	8174	752268	0	0
2024-04-18 09:05:32			0	34117	0	0	0	17272	15910	153634	27211	951867	37355	106265	0	0	8173	753057	0	0
2024-04-18 09:06:32			0	34115	0	0	0	17277	15910	153606	27161	951954	37333	106267	0	0	8173	753156	0	0
2024-04-18 09:07:32			0	34108	0	0	0	17280	15910	153570	27502	951893	37355	106268	0	0	8173	753502	0	0
2024-04-18 09:08:32			0	34121	0	0	0	17277	15930	153538	27436	951926	37345	106267	0	0	8174	752779	0	0
2024-04-18 09:09:32			0	34105	0	0	0	17264	15910	153502	27514	951902	37333	106262	0	0	8173	753650	0	0
2024-04-18 09:10:32			0	34113	0	0	0	17275	15910	153518	27673	951902	37333	106266	0	0	8173	753255	0	0
2024-04-18 09:11:32			0	34122	0	0	0	17259	15920	153538	27426	951962	37333	106260	0	0	8174	752770	0	0
2024-04-18 09:12:32			0	34127	0	0	0	17267	15920	153522	27225	951918	37334	106263	0	0	8174	752523	0	0
2024-04-18 09:13:32			0	34135	0	0	0	17270	15920	153558	27126	951883	37333	106264	0	0	8174	752129	0	0
2024-04-18 09:14:32			0	34132	0	0	0	17275	15920	153450	27502	951883	37344	106266	0	0	8174	752277	0	0
2024-04-18 09:15:32			0	34123	0	0	0	17283	15910	153534	27241	951902	37355	106269	0	0	8173	752761	0	0
2024-04-18 09:16:32			0	34140	0	0	0	17285	15910	153438	27204	951928	37333	106270	0	0	8174	751923	0	0
2024-04-18 09:17:32			0	34138	0	0	0	17290	15930	153438	27287	951979	37334	106272	0	0	8174	751940	0	0
2024-04-18 09:18:32			0	34126	0	0	0	17283	15910	153478	27476	951902	37333	106269	0	0	8174	752613	0	0
2024-04-18 09:19:32			0	34131	0	0	0	17288	15930	153470	27229	951952	37334	106271	0	0	8174	752285	0	0
2024-04-18 09:20:32			0	34121	0	0	0	17285	15930	153542	27312	951979	37334	106270	0	0	8173	752779	0	0
2024-04-18 09:21:32			0	34123	0	0	0	17293	15940	153422	27152	951968	37368	106273	0	0	8173	752639	0	0
2024-04-18 09:22:32			0	34134	0	0	0	17290	15940	153442	27523	951995	37335	106272	0	0	8174	752097	0	0
2024-04-18 09:23:32			0	34139	0	0	0	17293	15920	153414	27105	951997	37356	106273	0	0	8174	751931	0	0
2024-04-18 09:24:32			0	34129	0	0	0	17303	15930	153446	27504	951960	37356	106277	0	0	8174	752384	0	0
2024-04-18 09:25:32			0	34122	0	0	0	17293	15940	153502	27147	952029	37358	106273	0	0	8173	752689	0	0
2024-04-18 09:26:32			0	34126	0	0	0	17309	15930	153414	27220	951960	37324	106279	0	0	8173	752532	0	0
2024-04-18 09:27:32			0	34141	0	0	0	17309	15940	153522	27599	952021	37335	106279	0	0	8174	751752	0	0
2024-04-18 09:28:32			0	34148	0	0	0	17301	15940	153522	27279	952021	37346	106276	0	0	8175	751407	0	0
2024-04-18 09:29:32			0	34147	0	0	0	17319	15950	153494	27218	952045	37359	106283	0	0	8174	751415	0	0
2024-04-18 09:30:32			0	34145	0	0	0	17322	15950	153438	27286	952011	37358	106284	0	0	8174	751514	0	0
2024-04-18 09:31:32			0	34160	0	0	0	17309	15940	153398	27313	951995	37335	106279	0	0	8175	750815	0	0
2024-04-18 09:32:32			0	34145	0	0	0	17319	15940	153410	27246	952056	37336	106283	0	0	8174	751554	0	0
2024-04-18 09:33:32			0	34163	0	0	0	17314	15950	153426	27358	952064	37347	106281	0	0	8175	750627	0	0
2024-04-18 09:34:32			0	34154	0	0	0	17316	15960	153402	27588	952106	37359	106282	0	0	8175	751030	0	0
2024-04-18 09:35:32			0	34141	0	0	0	17316	15960	153482	27763	952106	37348	106282	0	0	8174	751671	0	0
2024-04-18 09:36:32			0	34159	0	0	0	17314	15960	153350	27640	952080	37336	106281	0	0	8175	750784	0	0
2024-04-18 09:37:32			0	34159	0	0	0	17314	15960	153310	27291	952054	37348	106281	0	0	8175	750784	0	0
2024-04-18 09:38:32			0	34159	0	0	0	17314	15960	153374	27512	952054	37326	106281	0	0	8175	750784	0	0
2024-04-18 09:39:32			0	34159	0	0	0	17322	15950	153346	27438	952098	37359	106284	0	0	8175	750824	0	0
2024-04-18 09:40:32			0	34161	0	0	0	17327	15960	153354	27334	952080	37348	106286	0	0	8175	750685	0	0
2024-04-18 09:41:32			0	34155	0	0	0	17314	15960	153322	27673	952035	37360	106281	0	0	8175	750981	0	0
2024-04-18 09:42:32			0	34149	0	0	0	17306	15970	153398	27376	952096	37348	106278	0	0	8175	751236	0	0
2024-04-18 09:43:32			0	34138	0	0	0	17311	15960	153486	27505	952080	37348	106280	0	0	8174	751818	0	0
2024-04-18 09:44:32			0	34138	0	0	0	17327	15960	153378	27621	952027	37359	106286	0	0	8174	751818	0	0
2024-04-18 09:45:32			0	34130	0	0	0	17309	15950	153446	27682	952124	37370	106279	0	0	8174	752253	0	0
2024-04-18 09:46:32			0	34147	0	0	0	17319	15960	153514	27519	952062	37360	106283	0	0	8175	751375	0	0
2024-04-18 09:47:32			0	34114	0	0	0	17324	15960	153514	27462	952080	37359	106285	0	0	8173	753003	0	0
2024-04-18 09:48:32			0	34103	0	0	0	17327	15960	153502	27504	952088	37360	106286	0	0	8172	753545	0	0
2024-04-18 09:49:32			0	34126	0	0	0	17327	15960	153582	27345	952088	37348	106286	0	0	8173	752410	0	0
2024-04-18 09:50:32			0	34119	0	0	0	17332	15960	153490	27383	952114	37360	106288	0	0	8173	752756	0	0
2024-04-18 09:51:32			0	34120	0	0	0	17329	15970	153490	27161	952122	37360	106287	0	0	8173	752666	0	0
2024-04-18 09:52:32			0	34103	0	0	0	17337	15970	153538	27322	952131	37360	106290	0	0	8172	753505	0	0
2024-04-18 09:53:32			0	34123	0	0	0	17335	15970	153490	27244	952157	37338	106289	0	0	8173	752518	0	0
2024-04-18 09:54:32			0	34123	0	0	0	17337	15970	153482	27547	952149	37371	106290	0	0	8173	752518	0	0
2024-04-18 09:55:32			0	34136	0	0	0	17340	15980	153470	27339	952191	37360	106291	0	0	8174	751836	0	0
2024-04-18 09:56:32			0	34132	0	0	0	17337	15980	153370	27367	952139	37360	106290	0	0	8173	752033	0	0
2024-04-18 09:57:32			0	34150	0	0	0	17340	15980	153526	27630	952173	37372	106291	0	0	8174	751146	0	0
2024-04-18 09:58:32			0	34143	0	0	0	17353	15980	153426	27422	952218	37360	106296	0	0	8174	751491	0	0
2024-04-18 09:59:32			0	34144	0	0	0	17353	15980	153434	27649	952199	37361	106296	0	0	8174	751442	0	0
2024-04-18 10:00:32			0	34153	0	0	0	17366	15990	153374	27585	952189	37351	106301	0	0	8174	750958	0	0
2024-04-18 10:01:32			0	34142	0	0	0	17350	15990	153434	27409	952216	37362	106295	0	0	8174	751500	0	0
2024-04-18 10:02:32			0	34157	0	0	0	17361	15990	153490	27992	952260	37362	106299	0	0	8175	750761	0	0
2024-04-18 10:03:32			0	34154	0	0	0	17368	15990	153394	27369	952208	37373	106302	0	0	8174	750908	0	0
2024-04-18 10:04:32			0	34158	0	0	0	17376	15990	153462	27514	952268	37362	106305	0	0	8174	750711	0	0
2024-04-18 10:05:32			0	34141	0	0	0	17379	16000	153418	27595	952259	37374	106306	0	0	8173	751509	0	0
2024-04-18 10:06:32			0	34168	0	0	0	17376	16010	153358	27479	952319	37364	106305	0	0	8175	750138	0	0
2024-04-18 10:07:32			0	34141	0	0	0	17381	16010	153430	27533	952301	37364	106307	0	0	8173	751468	0	0
2024-04-18 10:08:32			0	34151	0	0	0	17386	16000	153478	27632	952259	37384	106309	0	0	8174	751016	0	0
2024-04-18 10:09:32			0	34136	0	0	0	17386	16020	153286	27984	952362	37375	106309	0	0	8173	751674	0	0
2024-04-18 10:10:32			0	34154	0	0	0	17376	16010	153398	27580	952319	37364	106305	0	0	8174	750827	0	0
2024-04-18 10:11:32			0	34143	0	0	0	17376	16010	153346	27569	952327	37353	106305	0	0	8174	751369	0	0
2024-04-18 10:12:32			0	34157	0	0	0	17374	16020	153334	27469	952344	37365	106304	0	0	8174	750639	0	0
2024-04-18 10:13:32			0	34157	0	0	0	17376	16020	153358	27682	952362	37353	106305	0	0	8174	750639	0	0
2024-04-18 10:14:32			0	34151	0	0	0	17366	16020	153386	27845	952309	37365	106301	0	0	8174	750935	0	0
2024-04-18 10:15:32			0	34147	0	0	0	17386	16020	153514	27526	952396	37342	106309	0	0	8174	751132	0	0
2024-04-18 10:16:32			0	34125	0	0	0	17376	16020	153470	27428	952344	37386	106305	0	0	8173	752216	0	0
2024-04-18 10:17:32			0	34144	0	0	0	17376	16020	153634	27426	952283	37375	106305	0	0	8174	751279	0	0
2024-04-18 10:18:32			0	34125	0	0	0	17381	16010	153574	27317	952301	37364	106307	0	0	8172	752257	0	0
2024-04-18 10:19:32			0	34123	0	0	0	17379	16020	153522	27524	952317	37375	106306	0	0	8172	752315	0	0
2024-04-18 10:20:32			0	34112	0	0	0	17389	16030	153534	27455	952360	37375	106310	0	0	8172	752817	0	0
2024-04-18 10:21:32			0	34114	0	0	0	17392	16030	153558	27724	952404	37365	106311	0	0	8172	752718	0	0
2024-04-18 10:22:32			0	34110	0	0	0	17392	16020	153602	27727	952370	37375	106311	0	0	8171	752956	0	0
2024-04-18 10:23:32			0	34134	0	0	0	17389	16030	153594	27696	952334	37375	106310	0	0	8173	751732	0	0
2024-04-18 10:24:32			0	34130	0	0	0	17394	16030	153538	27502	952413	37375	106312	0	0	8173	751929	0	0
2024-04-18 10:25:32			0	34114	0	0	0	17405	16040	153610	27505	952447	37376	106316	0	0	8172	752678	0	0
2024-04-18 10:26:32			0	34103	0	0	0	17405	16040	153586	27454	952368	37376	106316	0	0	8171	753220	0	0
2024-04-18 10:27:32			0	34119	0	0	0	17399	16030	153594	27332	952413	37365	106314	0	0	8172	752471	0	0
2024-04-18 10:28:32			0	34105	0	0	0	17402	16030	153638	27550	952439	37375	106315	0	0	8171	753162	0	0
2024-04-18 10:29:32			0	34083	0	0	0	17402	16030	153754	27770	952439	37365	106315	0	0	8170	754249	0	0
2024-04-18 10:30:32			0	34080	0	0	0	17412	16030	153890	27590	952439	37365	106319	0	0	8169	754397	0	0
2024-04-18 10:31:32			0	34071	0	0	0	17405	16040	153838	27390	952455	37366	106316	0	0	8169	754801	0	0
2024-04-18 10:32:32			0	34065	0	0	0	17402	16050	153846	27256	952445	37367	106315	0	0	8169	755057	0	0
2024-04-18 10:33:32			0	34042	0	0	0	17399	16050	153818	27497	952445	37356	106314	0	0	8168	756196	0	0
2024-04-18 10:34:32			0	34079	0	0	0	17402	16050	153922	27109	952463	37377	106315	0	0	8170	754365	0	0
2024-04-18 10:35:32			0	34069	0	0	0	17407	16050	153850	27466	952437	37377	106317	0	0	8169	754860	0	0
2024-04-18 10:36:32			0	34085	0	0	0	17405	16040	153618	27251	952455	37366	106316	0	0	8170	754109	0	0
2024-04-18 10:37:32			0	34110	0	0	0	17415	16040	153590	27569	952481	37376	106320	0	0	8171	752875	0	0
2024-04-18 10:38:32			0	34153	0	0	0	17407	16040	153406	27289	952455	37387	106317	0	0	8174	750755	0	0
2024-04-18 10:39:32			0	34164	0	0	0	17407	16050	153330	27393	952445	37377	106317	0	0	8174	750173	0	0
2024-04-18 10:40:32			0	34184	0	0	0	17402	16060	153166	27367	952514	37368	106315	0	0	8176	749149	0	0
2024-04-18 10:41:32			0	34201	0	0	0	17410	16050	153142	27246	952437	37377	106318	0	0	8176	748354	0	0
2024-04-18 10:42:32			0	34215	0	0	0	17420	16050	153126	27575	952490	37377	106322	0	0	8177	747667	0	0
2024-04-18 10:43:32			0	34218	0	0	0	17410	16060	153074	27578	952479	37389	106318	0	0	8178	747479	0	0
2024-04-18 10:44:32			0	34226	0	0	0	17412	16040	153134	27478	952455	37366	106319	0	0	8178	747167	0	0
2024-04-18 10:45:32			0	34219	0	0	0	17410	16060	153182	27369	952479	37368	106318	0	0	8178	747430	0	0
2024-04-18 10:46:32			0	34218	0	0	0	17410	16060	153110	27595	952461	37368	106318	0	0	8178	747479	0	0
2024-04-18 10:47:32			0	34230	0	0	0	17418	16050	153110	27505	952471	37367	106321	0	0	8178	746931	0	0
2024-04-18 10:48:32			0	34224	0	0	0	17415	16060	153086	27076	952506	37346	106320	0	0	8178	747185	0	0
2024-04-18 10:49:32			0	34219	0	0	0	17423	16060	153054	27594	952506	37368	106323	0	0	8177	747430	0	0
2024-04-18 10:50:32			0	34228	0	0	0	17418	16060	153106	27246	952514	37368	106321	0	0	8178	746989	0	0
2024-04-18 10:51:32			0	34209	0	0	0	17420	16060	153094	27609	952514	37389	106322	0	0	8177	747921	0	0
2024-04-18 10:52:32			0	34224	0	0	0	17420	16060	153138	27604	952488	37368	106322	0	0	8178	747185	0	0
2024-04-18 10:53:32			0	34213	0	0	0	17415	16060	153174	27180	952540	37346	106320	0	0	8177	747725	0	0
2024-04-18 10:54:32			0	34207	0	0	0	17415	16060	153154	27561	952567	37378	106320	0	0	8177	748019	0	0
2024-04-18 10:55:32			0	34221	0	0	0	17425	16070	153062	27471	952556	37380	106324	0	0	8177	747292	0	0
2024-04-18 10:56:32			0	34239	0	0	0	17412	16070	153166	27438	952548	37369	106319	0	0	8179	746409	0	0
2024-04-18 10:57:32			0	34241	0	0	0	17418	16070	153054	27358	952522	37369	106321	0	0	8179	746311	0	0
2024-04-18 10:58:32			0	34250	0	0	0	17423	16070	153062	27350	952575	37379	106323	0	0	8179	745870	0	0
2024-04-18 10:59:32			0	34262	0	0	0	17418	16070	152950	27639	952548	37369	106321	0	0	8180	745282	0	0
2024-04-18 11:00:32			0	34261	0	0	0	17415	16070	152814	27755	952522	37379	106320	0	0	8180	745331	0	0
2024-04-18 11:01:32			0	34266	0	0	0	17423	16070	152786	27220	952575	37369	106323	0	0	8180	745087	0	0
2024-04-18 11:02:32			0	34268	0	0	0	17412	16070	152834	27331	952609	37369	106319	0	0	8180	744989	0	0
2024-04-18 11:03:32			0	34271	0	0	0	17418	16080	152806	27383	952538	37380	106321	0	0	8181	744802	0	0
2024-04-18 11:04:32			0	34286	0	0	0	17428	16080	152782	27166	952565	37369	106325	0	0	8181	744068	0	0
2024-04-18 11:05:32			0	34287	0	0	0	17436	16070	152794	27448	952583	37380	106328	0	0	8181	744059	0	0
2024-04-18 11:06:32			0	34284	0	0	0	17423	16070	152766	27607	952530	37380	106323	0	0	8181	744206	0	0
2024-04-18 11:07:32			0	34293	0	0	0	17423	16070	152742	27885	952583	37369	106323	0	0	8182	743766	0	0
2024-04-18 11:08:32			0	34294	0	0	0	17420	16070	152810	27819	952583	37380	106322	0	0	8182	743717	0	0
2024-04-18 11:09:32			0	34315	0	0	0	17425	16070	152722	27949	952609	37380	106324	0	0	8183	742691	0	0
2024-04-18 11:10:32			0	34302	0	0	0	17407	16070	152710	27556	952583	37380	106317	0	0	8182	743326	0	0
2024-04-18 11:11:32			0	34305	0	0	0	17407	16080	152642	27724	952617	37380	106317	0	0	8183	743139	0	0
2024-04-18 11:12:32			0	34288	0	0	0	17402	16080	152626	27509	952520	37380	106315	0	0	8182	743970	0	0
2024-04-18 11:13:32			0	34282	0	0	0	17415	16080	152598	27583	952617	37369	106320	0	0	8181	744264	0	0
2024-04-18 11:14:32			0	34297	0	0	0	17402	16060	152710	27807	952540	37378	106315	0	0	8182	743611	0	0
2024-04-18 11:15:32			0	34315	0	0	0	17407	16080	152742	27428	952538	37380	106317	0	0	8183	742651	0	0
2024-04-18 11:16:32			0	34293	0	0	0	17407	16080	152730	27743	952538	37380	106317	0	0	8182	743726	0	0
2024-04-18 11:17:32			0	34291	0	0	0	17405	16070	152746	27604	952530	37380	106316	0	0	8182	743864	0	0
2024-04-18 11:18:32			0	34292	0	0	0	17402	16080	152822	27578	952565	37380	106315	0	0	8182	743775	0	0
2024-04-18 11:19:32			0	34269	0	0	0	17405	16070	152898	27608	952556	37391	106316	0	0	8181	744940	0	0
2024-04-18 11:20:32			0	34277	0	0	0	17407	16080	152954	27388	952565	37380	106317	0	0	8181	744508	0	0
2024-04-18 11:21:32			0	34265	0	0	0	17410	16070	152854	27403	952530	37369	106318	0	0	8180	745136	0	0
2024-04-18 11:22:32			0	34283	0	0	0	17402	16080	152954	27550	952512	37369	106315	0	0	8181	744215	0	0
2024-04-18 11:23:32			0	34271	0	0	0	17412	16080	152870	27744	952565	37380	106319	0	0	8181	744802	0	0
2024-04-18 11:24:32			0	34245	0	0	0	17428	16080	152982	27393	952591	37369	106325	0	0	8179	746075	0	0
2024-04-18 11:25:32			0	34265	0	0	0	17425	16070	152970	27954	952583	37380	106324	0	0	8180	745136	0	0
2024-04-18 11:26:32			0	34261	0	0	0	17423	16080	152886	27687	952670	37380	106323	0	0	8180	745291	0	0
2024-04-18 11:27:32			0	34245	0	0	0	17436	16070	152902	27890	952583	37380	106328	0	0	8179	746115	0	0
2024-04-18 11:28:32			0	34266	0	0	0	17449	16080	152846	27985	952617	37380	106333	0	0	8180	745046	0	0
2024-04-18 11:29:32			0	34271	0	0	0	17444	16080	152922	27956	952625	37370	106331	0	0	8180	744802	0	0
2024-04-18 11:30:32			0	34246	0	0	0	17451	16090	152898	27698	952686	37370	106334	0	0	8179	745986	0	0
2024-04-18 11:31:32			0	34271	0	0	0	17441	16090	152870	27821	952739	37370	106330	0	0	8180	744761	0	0
2024-04-18 11:32:32			0	34264	0	0	0	17446	16090	152750	27691	952660	37380	106332	0	0	8180	745104	0	0
2024-04-18 11:33:32			0	34277	0	0	0	17457	16080	152838	27492	952678	37380	106336	0	0	8180	744508	0	0
2024-04-18 11:34:32			0	34282	0	0	0	17446	16100	152750	27659	952702	37371	106332	0	0	8181	744183	0	0
2024-04-18 11:35:32			0	34280	0	0	0	17462	16090	152670	27419	952694	37381	106338	0	0	8180	744321	0	0
2024-04-18 11:36:32			0	34304	0	0	0	17462	16090	152722	27854	952721	37392	106338	0	0	8182	743148	0	0
2024-04-18 11:37:32			0	34308	0	0	0	17462	16100	152802	27336	952729	37381	106338	0	0	8182	742913	0	0
2024-04-18 11:38:32			0	34310	0	0	0	17451	16100	152630	27713	952737	37382	106334	0	0	8182	742815	0	0
2024-04-18 11:39:32			0	34325	0	0	0	17446	16100	152594	27343	952702	37371	106332	0	0	8183	742083	0	0
2024-04-18 11:40:32			0	34330	0	0	0	17444	16100	152586	27758	952763	37393	106331	0	0	8184	741839	0	0
2024-04-18 11:41:32			0	34332	0	0	0	17438	16100	152550	27803	952702	37381	106329	0	0	8184	741741	0	0
2024-04-18 11:42:32			0	34339	0	0	0	17470	16110	152566	27537	952779	37383	106341	0	0	8184	741360	0	0
2024-04-18 11:43:32			0	34360	0	0	0	17467	16100	152571	27317	952755	37404	106340	0	0	8185	740377	0	0
2024-04-18 11:44:32			0	34351	0	0	0	17496	16110	152507	27469	952727	37394	106351	0	0	8184	740775	0	0
2024-04-18 11:45:32			0	34368	0	0	0	17524	16110	152591	27512	952859	37383	106362	0	0	8184	739947	0	0
2024-04-18 11:46:32			0	34370	0	0	0	17498	16130	152455	27175	952883	37395	106352	0	0	8185	739770	0	0
2024-04-18 11:47:32			0	34383	0	0	0	17477	16130	152435	27261	952883	37384	106344	0	0	8186	739138	0	0
2024-04-18 11:48:32			0	34390	0	0	0	17459	16130	152307	27303	952891	37396	106337	0	0	8187	738797	0	0
2024-04-18 11:49:32			0	34391	0	0	0	17488	16130	152383	27352	952830	37374	106348	0	0	8186	738749	0	0
2024-04-18 11:50:32			0	34407	0	0	0	17496	16130	152359	27039	952865	37385	106351	0	0	8187	737971	0	0
2024-04-18 11:51:32			0	34388	0	0	0	17490	16130	152279	27488	952857	37395	106349	0	0	8186	738894	0	0
2024-04-18 11:52:32			0	34395	0	0	0	17506	16130	152331	27637	952891	37385	106355	0	0	8186	738554	0	0
2024-04-18 11:53:32			0	34410	0	0	0	17514	16140	152199	27241	952899	37385	106358	0	0	8187	737785	0	0
2024-04-18 11:54:32			0	34406	0	0	0	17514	16140	152163	27377	952934	37397	106358	0	0	8187	737980	0	0
2024-04-18 11:55:32			0	34409	0	0	0	17509	16150	152203	27478	952942	37408	106356	0	0	8187	737794	0	0
2024-04-18 11:56:32			0	34416	0	0	0	17490	16150	152155	27286	953003	37386	106349	0	0	8188	737454	0	0
2024-04-18 11:57:32			0	34424	0	0	0	17498	16150	152087	27140	952950	37375	106352	0	0	8188	737066	0	0
2024-04-18 11:58:32			0	34432	0	0	0	17509	16150	152115	27473	952968	37397	106356	0	0	8189	736678	0	0
2024-04-18 11:59:32			0	34439	0	0	0	17503	16150	152155	27397	952924	37386	106354	0	0	8189	736338	0	0
2024-04-18 12:00:32			0	34447	0	0	0	17524	16150	152175	27460	952976	37375	106362	0	0	8189	735950	0	0
2024-04-18 12:01:32			0	34425	0	0	0	17524	16150	152167	27393	952950	37375	106362	0	0	8188	737017	0	0
2024-04-18 12:02:32			0	34447	0	0	0	17516	16160	152051	27601	952932	37397	106359	0	0	8189	735911	0	0
2024-04-18 12:03:32			0	34458	0	0	0	17516	16150	151947	27246	952950	37397	106359	0	0	8190	735417	0	0
2024-04-18 12:04:32			0	34437	0	0	0	17519	16160	152011	27173	952958	37375	106360	0	0	8189	736395	0	0
2024-04-18 12:05:32			0	34467	0	0	0	17542	16170	151987	27597	952966	37409	106369	0	0	8190	734902	0	0
2024-04-18 12:06:32			0	34476	0	0	0	17503	16160	151971	27571	953037	37397	106354	0	0	8191	734506	0	0
2024-04-18 12:07:32			0	34441	0	0	0	17509	16170	151923	27137	952948	37377	106356	0	0	8189	736162	0	0
2024-04-18 12:08:32			0	34474	0	0	0	17498	16160	152003	27550	952985	37375	106352	0	0	8191	734603	0	0
2024-04-18 12:09:32			0	34467	0	0	0	17498	16170	151975	27279	952966	37387	106352	0	0	8191	734902	0	0
2024-04-18 12:10:32			0	34468	0	0	0	17493	16170	151879	27405	952922	37388	106350	0	0	8191	734853	0	0
2024-04-18 12:11:32			0	34484	0	0	0	17516	16170	151875	27428	953001	37388	106359	0	0	8191	734079	0	0
2024-04-18 12:12:32			0	34497	0	0	0	17545	16160	151759	26949	952905	37386	106370	0	0	8192	733490	0	0
2024-04-18 12:13:32			0	34511	0	0	0	17529	16160	151695	27159	952932	37397	106364	0	0	8193	732813	0	0
2024-04-18 12:14:32			0	34510	0	0	0	17514	16170	151815	26937	953027	37388	106358	0	0	8193	732822	0	0
2024-04-18 12:15:32			0	34507	0	0	0	17516	16170	151795	27043	952974	37388	106359	0	0	8193	732967	0	0
2024-04-18 12:16:32			0	34514	0	0	0	17514	16160	151747	27175	952985	37386	106358	0	0	8193	732668	0	0
2024-04-18 12:17:32			0	34511	0	0	0	17516	16160	151743	27358	952985	37397	106359	0	0	8193	732813	0	0
2024-04-18 12:18:32			0	34526	0	0	0	17527	16170	151607	27390	952922	37410	106363	0	0	8194	732049	0	0
2024-04-18 12:19:32			0	34517	0	0	0	17527	16170	151683	27104	952940	37387	106363	0	0	8193	732484	0	0
2024-04-18 12:20:32			0	34541	0	0	0	17516	16170	151663	27326	952948	37388	106359	0	0	8195	731325	0	0
2024-04-18 12:21:32			0	34530	0	0	0	17519	16170	151639	27152	952966	37387	106360	0	0	8194	731856	0	0
2024-04-18 12:22:32			0	34534	0	0	0	17519	16170	151619	27218	952922	37410	106360	0	0	8194	731663	0	0
2024-04-18 12:23:32			0	34543	0	0	0	17522	16170	151711	27481	952940	37376	106361	0	0	8195	731229	0	0
2024-04-18 12:24:32			0	34541	0	0	0	17509	16170	151627	27341	952966	37409	106356	0	0	8195	731325	0	0
2024-04-18 12:25:32			0	34541	0	0	0	17509	16160	151615	27208	952932	37397	106356	0	0	8195	731365	0	0
2024-04-18 12:26:32			0	34538	0	0	0	17516	16160	151683	27067	952985	37397	106359	0	0	8194	731510	0	0
2024-04-18 12:27:32			0	34535	0	0	0	17511	16150	151639	27517	952897	37397	106357	0	0	8194	731694	0	0
2024-04-18 12:28:32			0	34522	0	0	0	17509	16170	151787	27419	952966	37409	106356	0	0	8194	732242	0	0
2024-04-18 12:29:32			0	34527	0	0	0	17501	16170	151743	27282	953001	37399	106353	0	0	8194	732001	0	0
2024-04-18 12:30:32			0	34526	0	0	0	17506	16170	151703	27422	952966	37387	106355	0	0	8194	732049	0	0
2024-04-18 12:31:32			0	34524	0	0	0	17509	16170	151687	27400	952993	37398	106356	0	0	8194	732146	0	0
2024-04-18 12:32:32			0	34520	0	0	0	17511	16150	151739	27403	952942	37397	106357	0	0	8194	732418	0	0
2024-04-18 12:33:32			0	34503	0	0	0	17511	16150	151767	27320	952976	37386	106357	0	0	8193	733239	0	0
2024-04-18 12:34:32			0	34513	0	0	0	17503	16160	151755	27248	952958	37397	106354	0	0	8193	732717	0	0
2024-04-18 12:35:32			0	34513	0	0	0	17506	16170	151687	27374	952966	37387	106355	0	0	8193	732677	0	0
2024-04-18 12:36:32			0	34512	0	0	0	17509	16150	151723	27497	952950	37386	106356	0	0	8193	732804	0	0
2024-04-18 12:37:32			0	34521	0	0	0	17511	16170	151835	27621	952940	37387	106357	0	0	8194	732291	0	0
2024-04-18 12:38:32			0	34502	0	0	0	17506	16160	151743	27703	952932	37386	106355	0	0	8193	733248	0	0
2024-04-18 12:39:32			0	34488	0	0	0	17516	16160	151871	27479	952932	37386	106359	0	0	8192	733925	0	0
2024-04-18 12:40:32			0	34503	0	0	0	17509	16150	151871	27511	952976	37386	106356	0	0	8193	733239	0	0
2024-04-18 12:41:32			0	34525	0	0	0	17501	16160	151819	27500	952985	37386	106353	0	0	8194	732137	0	0
2024-04-18 12:42:32			0	34493	0	0	0	17506	16150	151975	27343	952924	37375	106355	0	0	8192	733723	0	0
2024-04-18 12:43:32			0	34509	0	0	0	17511	16170	151927	27580	952914	37387	106357	0	0	8193	732870	0	0
2024-04-18 12:44:32			0	34506	0	0	0	17511	16160	151935	27312	952905	37397	106357	0	0	8193	733055	0	0
2024-04-18 12:45:32			0	34507	0	0	0	17509	16160	151871	27185	952932	37397	106356	0	0	8193	733006	0	0
2024-04-18 12:46:32			0	34493	0	0	0	17498	16160	151919	27429	952932	37408	106352	0	0	8192	733683	0	0
2024-04-18 12:47:32			0	34523	0	0	0	17506	16160	151791	27268	952958	37397	106355	0	0	8194	732234	0	0
2024-04-18 12:48:32			0	34518	0	0	0	17501	16150	151723	27483	952950	37386	106353	0	0	8194	732514	0	0
2024-04-18 12:49:32			0	34508	0	0	0	17501	16150	151767	27284	952924	37397	106353	0	0	8193	732998	0	0
2024-04-18 12:50:32			0	34508	0	0	0	17503	16170	151799	27474	952993	37398	106354	0	0	8193	732919	0	0
2024-04-18 12:51:32			0	34515	0	0	0	17509	16150	151895	27523	952897	37408	106356	0	0	8193	732660	0	0
2024-04-18 12:52:32			0	34533	0	0	0	17509	16150	151739	27270	952942	37408	106356	0	0	8194	731790	0	0
2024-04-18 12:53:32			0	34505	0	0	0	17506	16140	151835	27473	952960	37397	106355	0	0	8193	733182	0	0
2024-04-18 12:54:32			0	34518	0	0	0	17514	16160	151747	27331	952932	37386	106358	0	0	8193	732475	0	0
2024-04-18 12:55:32			0	34517	0	0	0	17501	16150	151811	27268	952897	37397	106353	0	0	8194	732563	0	0
2024-04-18 12:56:32			0	34507	0	0	0	17503	16150	151827	27218	952968	37397	106354	0	0	8193	733046	0	0
2024-04-18 12:57:32			0	34495	0	0	0	17501	16150	151823	27405	952871	37397	106353	0	0	8192	733626	0	0
2024-04-18 12:58:32			0	34518	0	0	0	17503	16150	151827	27071	952916	37397	106354	0	0	8194	732514	0	0
2024-04-18 12:59:32			0	34497	0	0	0	17511	16150	151903	27521	952950	37408	106357	0	0	8192	733529	0	0
2024-04-18 13:00:32			0	34484	0	0	0	17514	16150	151887	27621	952916	37397	106358	0	0	8191	734158	0	0
2024-04-18 13:01:32			0	34526	0	0	0	17511	16150	151887	27345	952950	37397	106357	0	0	8194	732128	0	0
2024-04-18 13:02:32			0	34491	0	0	0	17516	16150	151903	27786	952924	37397	106359	0	0	8192	733820	0	0
2024-04-18 13:03:32			0	34507	0	0	0	17522	16160	151955	27608	952985	37408	106361	0	0	8193	733006	0	0
2024-04-18 13:04:32			0	34510	0	0	0	17529	16150	151911	27303	953003	37408	106364	0	0	8193	732901	0	0
2024-04-18 13:05:32			0	34519	0	0	0	17527	16150	151799	27244	952942	37408	106363	0	0	8193	732466	0	0
2024-04-18 13:06:32			0	34503	0	0	0	17522	16150	151875	27351	953003	37408	106361	0	0	8192	733239	0	0
2024-04-18 13:07:32			0	34518	0	0	0	17522	16150	151899	27213	952916	37397	106361	0	0	8193	732514	0	0
2024-04-18 13:08:32			0	34529	0	0	0	17519	16170	151807	27234	953019	37409	106360	0	0	8194	731904	0	0
2024-04-18 13:09:32			0	34537	0	0	0	17527	16160	151815	27282	952958	37408	106363	0	0	8194	731558	0	0
2024-04-18 13:10:32			0	34539	0	0	0	17527	16150	151787	27336	952950	37408	106363	0	0	8194	731501	0	0
2024-04-18 13:11:32			0	34543	0	0	0	17524	16150	151727	27371	952950	37397	106362	0	0	8195	731308	0	0
2024-04-18 13:12:32			0	34533	0	0	0	17524	16170	151695	27369	952966	37409	106362	0	0	8194	731711	0	0
2024-04-18 13:13:32			0	34552	0	0	0	17532	16160	151699	27549	953037	37397	106365	0	0	8195	730834	0	0
2024-04-18 13:14:32			0	34559	0	0	0	17527	16170	151603	27604	953001	37399	106363	0	0	8196	730458	0	0
2024-04-18 13:15:32			0	34582	0	0	0	17535	16160	151559	27647	953011	37397	106366	0	0	8197	729389	0	0
2024-04-18 13:16:32			0	34562	0	0	0	17529	16170	151583	27400	953027	37410	106364	0	0	8196	730313	0	0
2024-04-18 13:17:32			0	34588	0	0	0	17529	16170	151575	27556	952993	37409	106364	0	0	8197	729061	0	0
2024-04-18 13:18:32			0	34567	0	0	0	17529	16170	151583	27675	953045	37409	106364	0	0	8196	730072	0	0
2024-04-18 13:19:32			0	34571	0	0	0	17519	16170	151631	27168	953001	37420	106360	0	0	8196	729879	0	0
2024-04-18 13:20:32			0	34579	0	0	0	17516	16160	151563	27222	952985	37408	106359	0	0	8197	729533	0	0
2024-04-18 13:21:32			0	34585	0	0	0	17524	16170	151595	27258	953019	37387	106362	0	0	8197	729205	0	0
2024-04-18 13:22:32			0	34589	0	0	0	17516	16170	151543	27355	953019	37409	106359	0	0	8197	729013	0	0
2024-04-18 13:23:32			0	34573	0	0	0	17527	16180	151651	27452	953009	37399	106363	0	0	8196	729743	0	0
2024-04-18 13:24:32			0	34588	0	0	0	17516	16170	151515	27253	952966	37409	106359	0	0	8197	729061	0	0
2024-04-18 13:25:32			0	34569	0	0	0	17522	16150	151591	27854	953003	37397	106361	0	0	8196	730054	0	0
2024-04-18 13:26:32			0	34562	0	0	0	17516	16160	151543	27345	952958	37408	106359	0	0	8196	730352	0	0
2024-04-18 13:27:32			0	34574	0	0	0	17522	16170	151667	27530	953019	37419	106361	0	0	8196	729735	0	0
2024-04-18 13:28:32			0	34577	0	0	0	17511	16160	151663	27185	952985	37386	106357	0	0	8197	729630	0	0
2024-04-18 13:29:32			0	34574	0	0	0	17516	16170	151619	27549	953001	37399	106359	0	0	8197	729735	0	0
2024-04-18 13:30:32			0	34579	0	0	0	17519	16170	151591	26986	952966	37398	106360	0	0	8197	729494	0	0
2024-04-18 13:31:32			0	34577	0	0	0	17522	16170	151491	26975	952993	37387	106361	0	0	8197	729590	0	0
2024-04-18 13:32:32			0	34579	0	0	0	17522	16180	151547	27216	953009	37399	106361	0	0	8197	729455	0	0
2024-04-18 13:33:32			0	34578	0	0	0	17514	16160	151583	27279	953011	37408	106358	0	0	8197	729582	0	0
2024-04-18 13:34:32			0	34580	0	0	0	17514	16170	151591	27365	952974	37399	106358	0	0	8197	729446	0	0
2024-04-18 13:35:32			0	34563	0	0	0	17509	16160	151603	27253	952985	37386	106356	0	0	8196	730304	0	0
2024-04-18 13:36:32			0	34572	0	0	0	17514	16170	151675	27267	952993	37398	106358	0	0	8196	729831	0	0
2024-04-18 13:37:32			0	34569	0	0	0	17522	16160	151639	27601	952958	37408	106361	0	0	8196	730015	0	0
2024-04-18 13:38:32			0	34578	0	0	0	17509	16150	151627	27583	952897	37408	106356	0	0	8197	729621	0	0
2024-04-18 13:39:32			0	34588	0	0	0	17498	16170	151659	27296	952993	37398	106352	0	0	8198	729061	0	0
2024-04-18 13:40:32			0	34586	0	0	0	17511	16150	151591	27467	952976	37397	106357	0	0	8197	729236	0	0
2024-04-18 13:41:32			0	34580	0	0	0	17514	16170	151579	27727	952940	37409	106358	0	0	8197	729446	0	0
2024-04-18 13:42:32			0	34580	0	0	0	17506	16160	151655	27374	952958	37408	106355	0	0	8197	729485	0	0
2024-04-18 13:43:32			0	34573	0	0	0	17501	16150	151599	27656	952976	37386	106353	0	0	8197	729862	0	0
2024-04-18 13:44:32			0	34580	0	0	0	17509	16150	151699	27215	952950	37408	106356	0	0	8197	729525	0	0
2024-04-18 13:45:32			0	34571	0	0	0	17501	16150	151679	27329	952942	37386	106353	0	0	8197	729958	0	0
2024-04-18 13:46:32			0	34540	0	0	0	17490	16160	151839	27281	952985	37397	106349	0	0	8195	731413	0	0
2024-04-18 13:47:32			0	34520	0	0	0	17493	16150	151735	27220	952889	37408	106350	0	0	8194	732418	0	0
2024-04-18 13:48:32			0	34509	0	0	0	17490	16150	151787	27310	952916	37386	106349	0	0	8193	732949	0	0
2024-04-18 13:49:32			0	34508	0	0	0	17490	16140	151859	27433	952960	37385	106349	0	0	8193	733037	0	0
2024-04-18 13:50:32			0	34519	0	0	0	17485	16150	151803	27352	952916	37397	106347	0	0	8194	732466	0	0
2024-04-18 13:51:32			0	34503	0	0	0	17490	16140	151911	27348	952952	37396	106349	0	0	8193	733279	0	0
2024-04-18 13:52:32			0	34487	0	0	0	17493	16140	152051	27448	952899	37396	106350	0	0	8192	734053	0	0
2024-04-18 13:53:32			0	34486	0	0	0	17480	16140	152019	27248	952899	37385	106345	0	0	8192	734101	0	0
2024-04-18 13:54:32			0	34499	0	0	0	17477	16140	152011	27190	952960	37385	106344	0	0	8193	733472	0	0
2024-04-18 13:55:32			0	34477	0	0	0	17480	16130	152051	27308	952830	37406	106345	0	0	8191	734576	0	0
2024-04-18 13:56:32			0	34467	0	0	0	17459	16130	152123	27242	952918	37396	106337	0	0	8191	735061	0	0
2024-04-18 13:57:32			0	34468	0	0	0	17472	16140	152095	27538	952847	37385	106342	0	0	8191	734972	0	0
2024-04-18 13:58:32			0	34474	0	0	0	17480	16120	152063	27334	952901	37384	106345	0	0	8191	734761	0	0
2024-04-18 13:59:32			0	34491	0	0	0	17470	16130	152131	27336	952883	37384	106341	0	0	8192	733899	0	0
2024-04-18 14:00:32			0	34477	0	0	0	17467	16120	152047	27447	952875	37395	106340	0	0	8192	734616	0	0
2024-04-18 14:01:32			0	34474	0	0	0	17483	16130	152183	27549	952910	37406	106346	0	0	8191	734722	0	0
2024-04-18 14:02:32			0	34481	0	0	0	17483	16130	152263	27448	952891	37407	106346	0	0	8192	734383	0	0
2024-04-18 14:03:32			0	34456	0	0	0	17477	16130	152195	27654	952857	37406	106344	0	0	8190	735593	0	0
2024-04-18 14:04:32			0	34452	0	0	0	17462	16130	152211	27300	952830	37395	106338	0	0	8190	735787	0	0
2024-04-18 14:05:32			0	34447	0	0	0	17436	16120	152219	27327	952875	37416	106328	0	0	8190	736069	0	0
2024-04-18 14:06:32			0	34411	0	0	0	17412	16120	152287	27429	952822	37406	106319	0	0	8189	737816	0	0
2024-04-18 14:07:32			0	34371	0	0	0	17350	16110	152531	27182	952753	37394	106295	0	0	8188	739801	0	0
2024-04-18 14:08:32			0	34299	0	0	0	17345	16100	152890	27431	952650	37371	106293	0	0	8183	743352	0	0
2024-04-18 14:09:32			0	34186	0	0	0	17316	16080	153222	27137	952520	37392	106282	0	0	8177	748970	0	0
2024-04-18 14:10:32			0	34131	0	0	0	17314	16070	153662	27511	952417	37379	106281	0	0	8174	751717	0	0
2024-04-18 14:11:32			0	34075	0	0	0	17335	16060	153966	27194	952400	37389	106289	0	0	8171	754522	0	0
2024-04-18 14:12:32			0	34028	0	0	0	17337	16050	154106	27434	952384	37377	106290	0	0	8168	756889	0	0
2024-04-18 14:13:32			0	33987	0	0	0	17319	16030	154374	27386	952360	37365	106283	0	0	8166	759005	0	0
2024-04-18 14:14:32			0	33950	0	0	0	17327	16040	154558	27358	952447	37387	106286	0	0	8163	760803	0	0
2024-04-18 14:15:32			0	33937	0	0	0	17335	16020	154566	27218	952423	37365	106289	0	0	8162	761533	0	0
2024-04-18 14:16:32			0	33930	0	0	0	17342	16020	154658	27180	952362	37397	106292	0	0	8162	761881	0	0
2024-04-18 14:17:32			0	33896	0	0	0	17324	16020	154762	27447	952449	37365	106285	0	0	8160	763577	0	0
2024-04-18 14:18:32			0	33876	0	0	0	17301	16010	154778	27371	952293	37385	106276	0	0	8159	764616	0	0
2024-04-18 14:19:32			0	33844	0	0	0	17225	16000	154938	27362	952250	37373	106247	0	0	8159	766258	0	0
2024-04-18 14:20:32			0	33795	0	0	0	17207	15990	155202	27348	952181	37362	106240	0	0	8156	768755	0	0
2024-04-18 14:21:32			0	33723	0	0	0	17218	15990	155614	27177	952102	37362	106244	0	0	8152	772374	0	0
2024-04-18 14:22:32			0	33648	0	0	0	17220	15960	155942	27197	952035	37360	106245	0	0	8147	776284	0	0
2024-04-18 14:23:32			0	33640	0	0	0	17241	15960	156102	27523	952106	37370	106253	0	0	8146	776689	0	0
2024-04-18 14:24:32			0	33605	0	0	0	17215	15950	156302	27422	952011	37358	106243	0	0	8145	778503	0	0
2024-04-18 14:25:32			0	33571	0	0	0	17223	15950	156421	27055	952019	37370	106246	0	0	8142	780228	0	0
2024-04-18 14:26:32			0	33567	0	0	0	17207	15940	156457	27286	952047	37357	106240	0	0	8142	780473	0	0
2024-04-18 14:27:32			0	33507	0	0	0	17202	15940	156577	27275	951995	37357	106238	0	0	8139	783526	0	0
2024-04-18 14:28:32			0	33481	0	0	0	17194	15920	156765	27447	951970	37377	106235	0	0	8137	784936	0	0
2024-04-18 14:29:32			0	33451	0	0	0	17187	15920	156861	26934	951918	37356	106232	0	0	8136	786468	0	0
2024-04-18 14:30:32			0	33423	0	0	0	17187	15900	157045	26977	951912	37366	106232	0	0	8134	787985	0	0
2024-04-18 14:31:32			0	33396	0	0	0	17192	15890	157265	27154	951843	37353	106234	0	0	8132	789411	0	0
2024-04-18 14:32:32			0	33362	0	0	0	17176	15890	157481	27150	951808	37364	106228	0	0	8131	791155	0	0
2024-04-18 14:33:32			0	33348	0	0	0	17189	15890	157525	27170	951808	37353	106233	0	0	8129	791875	0	0
2024-04-18 14:34:32			0	33314	0	0	0	17223	15890	157625	27407	951808	37353	106246	0	0	8127	793624	0	0
2024-04-18 14:35:32			0	33321	0	0	0	17215	15870	157689	27386	951836	37362	106243	0	0	8127	793349	0	0
2024-04-18 14:36:32			0	33318	0	0	0	17215	15880	157541	27440	951898	37374	106243	0	0	8127	793460	0	0
2024-04-18 14:37:32			0	33345	0	0	0	17199	15880	157561	27338	951871	37363	106237	0	0	8129	792071	0	0
2024-04-18 14:38:32			0	33320	0	0	0	17202	15890	157653	27001	951861	37353	106238	0	0	8128	793315	0	0
2024-04-18 14:39:32			0	33317	0	0	0	17202	15870	157877	26838	951810	37374	106238	0	0	8127	793555	0	0
2024-04-18 14:40:32			0	33297	0	0	0	17194	15870	157877	27133	951836	37351	106235	0	0	8126	794585	0	0
2024-04-18 14:41:32			0	33255	0	0	0	17197	15860	157965	27251	951794	37339	106236	0	0	8124	796795	0	0
2024-04-18 14:42:32			0	33272	0	0	0	17199	15860	158057	27268	951855	37351	106237	0	0	8125	795917	0	0
2024-04-18 14:43:32			0	33251	0	0	0	17205	15850	158045	27313	951838	37351	106239	0	0	8123	797045	0	0
2024-04-18 14:44:32			0	33252	0	0	0	17207	15860	158037	27324	951820	37362	106240	0	0	8123	796950	0	0
2024-04-18 14:45:32			0	33240	0	0	0	17205	15860	158081	27473	951715	37362	106239	0	0	8123	797570	0	0
2024-04-18 14:46:32			0	33245	0	0	0	17199	15860	158073	27171	951794	37362	106237	0	0	8123	797312	0	0
2024-04-18 14:47:32			0	33243	0	0	0	17194	15860	158089	27119	951847	37362	106235	0	0	8123	797415	0	0
2024-04-18 14:48:32			0	33248	0	0	0	17189	15850	158073	27237	951733	37362	106233	0	0	8123	797200	0	0
2024-04-18 14:49:32			0	33235	0	0	0	17189	15850	158129	27123	951830	37339	106233	0	0	8122	797872	0	0
2024-04-18 14:50:32			0	33227	0	0	0	17189	15850	158081	27052	951838	37351	106233	0	0	8122	798286	0	0
2024-04-18 14:51:32			0	33235	0	0	0	17181	15840	158157	27196	951743	37371	106230	0	0	8123	797915	0	0
2024-04-18 14:52:32			0	33214	0	0	0	17179	15850	158189	27147	951672	37350	106229	0	0	8121	798959	0	0
2024-04-18 14:53:32			0	33214	0	0	0	17171	15840	158261	27074	951664	37360	106226	0	0	8121	799002	0	0
2024-04-18 14:54:32			0	33200	0	0	0	17168	15830	158297	27239	951674	37360	106225	0	0	8121	799770	0	0
2024-04-18 14:55:32			0	33204	0	0	0	17166	15840	158329	27336	951709	37360	106224	0	0	8121	799520	0	0
2024-04-18 14:56:32			0	33181	0	0	0	17155	15840	158309	27286	951656	37349	106220	0	0	8120	800712	0	0
2024-04-18 14:57:32			0	33174	0	0	0	17161	15830	158369	27358	951648	37360	106222	0	0	8119	801118	0	0
2024-04-18 14:58:32			0	33185	0	0	0	17158	15830	158501	27319	951674	37349	106221	0	0	8120	800547	0	0
2024-04-18 14:59:32			0	33169	0	0	0	17155	15830	158413	27286	951666	37348	106220	0	0	8119	801378	0	0
2024-04-18 15:00:32			0	33158	0	0	0	17150	15820	158401	27227	951632	37358	106218	0	0	8118	801992	0	0
2024-04-18 15:01:32			0	33159	0	0	0	17148	15820	158477	27270	951676	37358	106217	0	0	8118	801940	0	0
2024-04-18 15:02:32			0	33157	0	0	0	17137	15810	158461	27260	951642	37358	106213	0	0	8118	802087	0	0
2024-04-18 15:03:32			0	33149	0	0	0	17127	15820	158513	27031	951545	37358	106209	0	0	8118	802460	0	0
2024-04-18 15:04:32			0	33159	0	0	0	17127	15810	158497	27220	951634	37325	106209	0	0	8119	801983	0	0
2024-04-18 15:05:32			0	33171	0	0	0	17127	15810	158565	27352	951642	37347	106209	0	0	8119	801360	0	0
2024-04-18 15:06:32			0	33148	0	0	0	17119	15800	158529	26854	951512	37356	106206	0	0	8118	802598	0	0
2024-04-18 15:07:32			0	33154	0	0	0	17137	15800	158517	27279	951573	37357	106213	0	0	8118	802286	0	0
2024-04-18 15:08:32			0	33164	0	0	0	17132	15800	158485	27052	951539	37345	106211	0	0	8119	801767	0	0
2024-04-18 15:09:32			0	33162	0	0	0	17135	15800	158517	27265	951573	37357	106212	0	0	8119	801871	0	0
2024-04-18 15:10:32			0	33144	0	0	0	17148	15800	158537	27436	951599	37357	106217	0	0	8117	802806	0	0
2024-04-18 15:11:32			0	33167	0	0	0	17155	15800	158437	27545	951678	37357	106220	0	0	8119	801611	0	0
2024-04-18 15:12:32			0	33157	0	0	0	17142	15800	158409	27092	951520	37345	106215	0	0	8118	802130	0	0
2024-04-18 15:13:32			0	33186	0	0	0	17184	15800	158445	27267	951573	37357	106231	0	0	8119	800625	0	0
2024-04-18 15:14:32			0	33176	0	0	0	17150	15790	158301	27260	951610	37334	106218	0	0	8119	801187	0	0
2024-04-18 15:15:32			0	33194	0	0	0	17176	15810	158237	27111	951581	37357	106228	0	0	8120	800167	0	0
2024-04-18 15:16:32			0	33208	0	0	0	17158	15800	158289	27253	951573	37345	106221	0	0	8121	799485	0	0
2024-04-18 15:17:32			0	33229	0	0	0	17187	15800	158289	27182	951618	37356	106232	0	0	8122	798397	0	0
2024-04-18 15:18:32			0	33226	0	0	0	17231	15800	158257	27301	951652	37357	106249	0	0	8121	798552	0	0
2024-04-18 15:19:32			0	33263	0	0	0	17251	15810	158101	27452	951774	37358	106257	0	0	8123	796597	0	0
2024-04-18 15:20:32			0	33301	0	0	0	17246	15820	157837	27457	951869	37358	106255	0	0	8125	794593	0	0
2024-04-18 15:21:32			0	33336	0	0	0	17244	15830	157641	27088	951824	37348	106254	0	0	8127	792748	0	0
2024-04-18 15:22:32			0	33351	0	0	0	17238	15850	157565	27307	951804	37361	106252	0	0	8129	791891	0	0
2024-04-18 15:23:32			0	33363	0	0	0	17228	15840	157401	27317	951814	37360	106248	0	0	8129	791317	0	0
2024-04-18 15:24:32			0	33344	0	0	0	17223	15840	157465	27079	951814	37360	106246	0	0	8128	792294	0	0
2024-04-18 15:25:32			0	33369	0	0	0	17244	15840	157445	27294	951735	37360	106254	0	0	8130	791009	0	0
2024-04-18 15:26:32			0	33384	0	0	0	17238	15850	157321	27118	951838	37362	106252	0	0	8131	790197	0	0
2024-04-18 15:27:32			0	33387	0	0	0	17236	15850	157253	26982	951838	37373	106251	0	0	8131	790043	0	0
2024-04-18 15:28:32			0	33414	0	0	0	17244	15850	157249	27405	951857	37361	106254	0	0	8132	788658	0	0
2024-04-18 15:29:32			0	33420	0	0	0	17228	15850	157249	27159	951891	37362	106248	0	0	8133	788351	0	0
2024-04-18 15:30:32			0	33456	0	0	0	17233	15850	157105	26948	951883	37361	106250	0	0	8135	786509	0	0
2024-04-18 15:31:32			0	33442	0	0	0	17238	15850	157113	27220	951865	37373	106252	0	0	8134	787225	0	0
2024-04-18 15:32:32			0	33447	0	0	0	17233	15850	157085	27164	951865	37362	106250	0	0	8134	786969	0	0
2024-04-18 15:33:32			0	33451	0	0	0	17236	15850	157053	27343	951838	37362	106251	0	0	8135	786765	0	0
2024-04-18 15:34:32			0	33445	0	0	0	17238	15860	157145	27393	951899	37362	106252	0	0	8134	787029	0	0
2024-04-18 15:35:32			0	33442	0	0	0	17231	15860	157049	26892	951907	37362	106249	0	0	8134	787183	0	0
2024-04-18 15:36:32			0	33444	0	0	0	17233	15870	157021	27412	951915	37374	106250	0	0	8134	787038	0	0
2024-04-18 15:37:32			0	33472	0	0	0	17220	15860	157013	27348	951873	37351	106245	0	0	8136	785649	0	0
2024-04-18 15:38:32			0	33448	0	0	0	17215	15860	156913	27046	951881	37362	106243	0	0	8135	786876	0	0
2024-04-18 15:39:32			0	33446	0	0	0	17205	15860	157045	27241	951873	37373	106239	0	0	8135	786978	0	0
2024-04-18 15:40:32			0	33440	0	0	0	17199	15860	157073	27462	951794	37373	106237	0	0	8135	787285	0	0
2024-04-18 15:41:32			0	33434	0	0	0	17179	15850	157153	27519	951778	37372	106229	0	0	8135	787635	0	0
2024-04-18 15:42:32			0	33422	0	0	0	17184	15850	157149	27372	951786	37383	106231	0	0	8134	788249	0	0
2024-04-18 15:43:32			0	33416	0	0	0	17168	15840	157245	27220	951743	37349	106225	0	0	8134	788599	0	0
2024-04-18 15:44:32			0	33409	0	0	0	17171	15850	157293	27426	951778	37339	106226	0	0	8133	788915	0	0
2024-04-18 15:45:32			0	33395	0	0	0	17171	15830	157221	27313	951727	37360	106226	0	0	8132	789717	0	0
2024-04-18 15:46:32			0	33401	0	0	0	17176	15830	157193	27364	951727	37360	106228	0	0	8133	789410	0	0
2024-04-18 15:47:32			0	33398	0	0	0	17174	15840	157357	27138	951743	37349	106227	0	0	8132	789521	0	0
2024-04-18 15:48:32			0	33399	0	0	0	17179	15840	157253	27126	951761	37360	106229	0	0	8132	789470	0	0
2024-04-18 15:49:32			0	33412	0	0	0	17179	15830	157373	27118	951745	37370	106229	0	0	8133	788846	0	0
2024-04-18 15:50:32			0	33407	0	0	0	17187	15840	157257	27107	951735	37360	106232	0	0	8133	789059	0	0
2024-04-18 15:51:32			0	33398	0	0	0	17192	15830	157221	27067	951701	37360	106234	0	0	8132	789564	0	0
2024-04-18 15:52:32			0	33417	0	0	0	17176	15830	157205	27251	951780	37360	106228	0	0	8133	788590	0	0
2024-04-18 15:53:32			0	33447	0	0	0	17174	15820	157237	27234	951763	37369	106227	0	0	8135	787097	0	0
2024-04-18 15:54:32			0	33422	0	0	0	17171	15820	157237	27459	951684	37369	106226	0	0	8134	788376	0	0
2024-04-18 15:55:32			0	33424	0	0	0	17181	15830	157201	27327	951753	37371	106230	0	0	8134	788231	0	0
2024-04-18 15:56:32			0	33416	0	0	0	17179	15820	157249	27161	951737	37358	106229	0	0	8133	788684	0	0
2024-04-18 15:57:32			0	33427	0	0	0	17192	15820	157189	27284	951729	37358	106234	0	0	8134	788120	0	0
2024-04-18 15:58:32			0	33435	0	0	0	17202	15830	157157	27130	951780	37360	106238	0	0	8134	787668	0	0
2024-04-18 15:59:32			0	33445	0	0	0	17199	15830	156965	27173	951780	37371	106237	0	0	8135	787156	0	0
2024-04-18 16:00:32			0	33466	0	0	0	17212	15840	157077	27388	951788	37371	106242	0	0	8136	786041	0	0
2024-04-18 16:01:32			0	33483	0	0	0	17218	15830	156921	27391	951832	37371	106244	0	0	8137	785215	0	0
2024-04-18 16:02:32			0	33487	0	0	0	17212	15830	157001	27357	951753	37381	106242	0	0	8137	785011	0	0
2024-04-18 16:03:32			0	33480	0	0	0	17202	15830	156917	27303	951832	37381	106238	0	0	8137	785368	0	0
2024-04-18 16:04:32			0	33497	0	0	0	17205	15840	156937	27185	951840	37371	106239	0	0	8138	784458	0	0
2024-04-18 16:05:32			0	33495	0	0	0	17220	15840	156809	27128	951788	37349	106245	0	0	8137	784560	0	0
2024-04-18 16:06:32			0	33520	0	0	0	17210	15840	156789	27360	951761	37371	106241	0	0	8139	783286	0	0
2024-04-18 16:07:32			0	33510	0	0	0	17233	15840	156821	27154	951901	37360	106250	0	0	8138	783795	0	0
2024-04-18 16:08:32			0	33541	0	0	0	17246	15840	156709	27086	951849	37381	106255	0	0	8140	782216	0	0
2024-04-18 16:09:32			0	33540	0	0	0	17264	15860	156573	27157	951960	37373	106262	0	0	8139	782183	0	0
2024-04-18 16:10:32			0	33577	0	0	0	17272	15860	156494	27142	951952	37383	106265	0	0	8142	780302	0	0
2024-04-18 16:11:32			0	33608	0	0	0	17257	15860	156378	27279	951978	37362	106259	0	0	8144	778729	0	0
2024-04-18 16:12:32			0	33632	0	0	0	17270	15860	156214	27369	951986	37373	106264	0	0	8145	777513	0	0
2024-04-18 16:13:32			0	33652	0	0	0	17280	15870	156062	27393	952021	37362	106268	0	0	8146	776459	0	0
2024-04-18 16:14:32			0	33675	0	0	0	17270	15870	155986	27088	951994	37374	106264	0	0	8147	775296	0	0
2024-04-18 16:15:32			0	33697	0	0	0	17275	15870	155846	27072	952021	37374	106266	0	0	8149	774185	0	0
2024-04-18 16:16:32			0	33724	0	0	0	17270	15890	155658	27203	952080	37375	106264	0	0	8150	772740	0	0
2024-04-18 16:17:32			0	33755	0	0	0	17283	15890	155570	27255	952080	37385	106269	0	0	8152	771179	0	0
2024-04-18 16:18:32			0	33790	0	0	0	17285	15890	155446	27149	952045	37385	106270	0	0	8154	769420	0	0
2024-04-18 16:19:32			0	33821	0	0	0	17293	15910	155306	27313	952104	37387	106273	0	0	8156	767782	0	0
2024-04-18 16:20:32			0	33841	0	0	0	17285	15900	155010	27263	952096	37366	106270	0	0	8157	766821	0	0
2024-04-18 16:21:32			0	33863	0	0	0	17280	15900	155010	27244	952141	37375	106268	0	0	8158	765720	0	0
2024-04-18 16:22:32			0	33886	0	0	0	17288	15910	155030	27431	952139	37387	106271	0	0	8160	764529	0	0
2024-04-18 16:23:32			0	33895	0	0	0	17293	15900	154958	27324	952122	37387	106273	0	0	8160	764121	0	0
2024-04-18 16:24:32			0	33913	0	0	0	17288	15920	154846	27429	952076	37377	106271	0	0	8161	763140	0	0
2024-04-18 16:25:32			0	33921	0	0	0	17285	15910	154802	27339	952112	37376	106270	0	0	8162	762782	0	0
2024-04-18 16:26:32			0	33935	0	0	0	17290	15910	154798	27206	952165	37409	106272	0	0	8162	762084	0	0
2024-04-18 16:27:32			0	33933	0	0	0	17290	15910	154706	27138	952112	37387	106272	0	0	8162	762184	0	0
2024-04-18 16:28:32			0	33945	0	0	0	17290	15920	154746	27343	952128	37367	106272	0	0	8163	761545	0	0
2024-04-18 16:29:32			0	33944	0	0	0	17293	15930	154670	27353	952084	37389	106273	0	0	8163	761554	0	0
2024-04-18 16:30:32			0	33950	0	0	0	17293	15930	154674	27358	952163	37389	106273	0	0	8163	761255	0	0
2024-04-18 16:31:32			0	33964	0	0	0	17301	15930	154690	27180	952163	37377	106276	0	0	8164	760558	0	0
2024-04-18 16:32:32			0	33958	0	0	0	17303	15940	154738	27416	952232	37378	106277	0	0	8164	760816	0	0
2024-04-18 16:33:32			0	33963	0	0	0	17296	15940	154570	27459	952205	37378	106274	0	0	8164	760567	0	0
2024-04-18 16:34:32			0	33958	0	0	0	17298	15940	154630	27131	952179	37389	106275	0	0	8164	760816	0	0
2024-04-18 16:35:32			0	33956	0	0	0	17298	15940	154598	27331	952258	37378	106275	0	0	8164	760915	0	0
2024-04-18 16:36:32			0	33972	0	0	0	17296	15940	154554	27711	952205	37378	106274	0	0	8165	760119	0	0
2024-04-18 16:37:32			0	33968	0	0	0	17296	15940	154518	27357	952214	37379	106274	0	0	8164	760318	0	0
2024-04-18 16:38:32			0	33977	0	0	0	17306	15940	154602	27369	952205	37378	106278	0	0	8165	759871	0	0
2024-04-18 16:39:32			0	33972	0	0	0	17301	15940	154538	27523	952161	37390	106276	0	0	8165	760119	0	0
2024-04-18 16:40:32			0	33988	0	0	0	17311	15950	154526	27235	952195	37401	106280	0	0	8165	759283	0	0
2024-04-18 16:41:32			0	33985	0	0	0	17288	15940	154530	27357	952214	37379	106271	0	0	8166	759473	0	0
2024-04-18 16:42:32			0	33989	0	0	0	17298	15940	154498	27481	952187	37369	106275	0	0	8166	759274	0	0
2024-04-18 16:43:32			0	34006	0	0	0	17290	15940	154414	27500	952232	37389	106272	0	0	8167	758430	0	0
2024-04-18 16:44:32			0	34010	0	0	0	17296	15940	154494	27282	952214	37379	106274	0	0	8167	758231	0	0
2024-04-18 16:45:32			0	34011	0	0	0	17288	15940	154486	27270	952187	37369	106271	0	0	8167	758182	0	0
2024-04-18 16:46:32			0	34013	0	0	0	17280	15940	154306	27230	952179	37389	106268	0	0	8167	758082	0	0
2024-04-18 16:47:32			0	34022	0	0	0	17288	15940	154266	27189	952232	37378	106271	0	0	8168	757636	0	0
2024-04-18 16:48:32			0	34045	0	0	0	17290	15950	154258	27440	952230	37380	106272	0	0	8169	756455	0	0
2024-04-18 16:49:32			0	34041	0	0	0	17288	15930	154306	27324	952171	37400	106271	0	0	8169	756735	0	0
2024-04-18 16:50:32			0	34047	0	0	0	17290	15940	154294	27114	952240	37369	106272	0	0	8169	756397	0	0
2024-04-18 16:51:32			0	34062	0	0	0	17288	15940	154218	27192	952205	37368	106271	0	0	8170	755654	0	0
2024-04-18 16:52:32			0	34063	0	0	0	17285	15940	154302	27339	952153	37378	106270	0	0	8170	755605	0	0
2024-04-18 16:53:32			0	34058	0	0	0	17283	15940	154198	27038	952205	37368	106269	0	0	8170	755852	0	0
2024-04-18 16:54:32			0	34039	0	0	0	17280	15930	154214	27296	952145	37377	106268	0	0	8169	756834	0	0
2024-04-18 16:55:32			0	34047	0	0	0	17288	15940	154206	27246	952161	37379	106271	0	0	8169	756397	0	0
2024-04-18 16:56:32			0	34068	0	0	0	17290	15940	154142	27164	952126	37389	106272	0	0	8170	755357	0	0
2024-04-18 16:57:32			0	34054	0	0	0	17280	15940	154174	27431	952179	37378	106268	0	0	8170	756050	0	0
2024-04-18 16:58:32			0	34056	0	0	0	17285	15930	154210	27383	952171	37377	106270	0	0	8170	755992	0	0
2024-04-18 16:59:32			0	34063	0	0	0	17277	15930	154162	27211	952145	37377	106267	0	0	8170	755645	0	0
2024-04-18 17:00:32			0	34059	0	0	0	17275	15940	154130	27324	952135	37379	106266	0	0	8170	755803	0	0
2024-04-18 17:01:32			0	34053	0	0	0	17277	15930	154210	27289	952118	37389	106267	0	0	8170	756140	0	0
2024-04-18 17:02:32			0	34054	0	0	0	17277	15930	154154	27526	952197	37389	106267	0	0	8170	756091	0	0
2024-04-18 17:03:32			0	34062	0	0	0	17285	15930	154214	27339	952137	37367	106270	0	0	8170	755695	0	0
2024-04-18 17:04:32			0	34065	0	0	0	17285	15920	154226	27516	952094	37377	106270	0	0	8170	755587	0	0
2024-04-18 17:05:32			0	34075	0	0	0	17270	15920	154146	27156	952076	37377	106264	0	0	8171	755092	0	0
2024-04-18 17:06:32			0	34054	0	0	0	17280	15910	154214	27241	952086	37376	106268	0	0	8170	756172	0	0
2024-04-18 17:07:32			0	34053	0	0	0	17220	15910	154130	27383	952025	37387	106245	0	0	8171	756222	0	0
2024-04-18 17:08:32			0	34059	0	0	0	17168	15910	154166	27289	951973	37376	106225	0	0	8172	755925	0	0
2024-04-18 17:09:32			0	34057	0	0	0	17171	15900	154286	27429	951930	37375	106226	0	0	8172	756065	0	0
2024-04-18 17:10:32			0	33995	0	0	0	17163	15890	154514	27216	951914	37364	106223	0	0	8168	759181	0	0
2024-04-18 17:11:32			0	33969	0	0	0	17174	15890	154698	27725	951887	37364	106227	0	0	8166	760473	0	0
2024-04-18 17:12:32			0	33950	0	0	0	17179	15880	154786	27371	951871	37374	106229	0	0	8165	761460	0	0
2024-04-18 17:13:32			0	33922	0	0	0	17176	15870	154910	27666	951836	37362	106228	0	0	8163	762897	0	0
2024-04-18 17:14:32			0	33915	0	0	0	17171	15860	154970	27455	951873	37362	106226	0	0	8163	763287	0	0
2024-04-18 17:15:32			0	33899	0	0	0	17174	15850	154942	27370	951812	37373	106227	0	0	8162	764127	0	0
2024-04-18 17:16:32			0	33887	0	0	0	17176	15850	155074	27711	951812	37362	106228	0	0	8161	764726	0	0
2024-04-18 17:17:32			0	33880	0	0	0	17163	15850	155022	27183	951786	37373	106223	0	0	8161	765076	0	0
2024-04-18 17:18:32			0	33882	0	0	0	17179	15850	154978	27114	951804	37372	106229	0	0	8161	764976	0	0
2024-04-18 17:19:32			0	33872	0	0	0	17194	15840	154998	27272	951796	37371	106235	0	0	8160	765518	0	0
2024-04-18 17:20:32			0	33874	0	0	0	17210	15840	155002	27538	951770	37371	106241	0	0	8160	765418	0	0
2024-04-18 17:21:32			0	33876	0	0	0	17210	15850	154974	27178	951883	37382	106241	0	0	8160	765276	0	0
2024-04-18 17:22:32			0	33905	0	0	0	17231	15860	154994	27263	951873	37373	106249	0	0	8161	763786	0	0
2024-04-18 17:23:32			0	33894	0	0	0	17225	15860	155030	27429	951899	37383	106247	0	0	8161	764335	0	0
2024-04-18 17:24:32			0	33905	0	0	0	17233	15860	155006	27211	951934	37383	106250	0	0	8161	763786	0	0
2024-04-18 17:25:32			0	33926	0	0	0	17236	15870	154834	27222	951994	37384	106251	0	0	8163	762697	0	0
2024-04-18 17:26:32			0	33925	0	0	0	17241	15860	154754	27583	951986	37373	106253	0	0	8162	762788	0	0
2024-04-18 17:27:32			0	33950	0	0	0	17238	15870	154666	27410	952021	37362	106252	0	0	8164	761501	0	0
2024-04-18 17:28:32			0	33971	0	0	0	17225	15870	154630	27308	951915	37374	106247	0	0	8165	760456	0	0
2024-04-18 17:29:32			0	33957	0	0	0	17218	15860	154618	27447	951986	37362	106244	0	0	8165	761194	0	0
2024-04-18 17:30:32			0	33975	0	0	0	17236	15880	154590	27443	951950	37384	106251	0	0	8166	760216	0	0
2024-04-18 17:31:32			0	33977	0	0	0	17228	15880	154526	27296	951950	37374	106248	0	0	8166	760116	0	0
2024-04-18 17:32:32			0	33994	0	0	0	17228	15870	154598	27479	951942	37374	106248	0	0	8167	759312	0	0
2024-04-18 17:33:32			0	33993	0	0	0	17225	15870	154582	27594	951968	37384	106247	0	0	8167	759362	0	0
2024-04-18 17:34:32			0	33966	0	0	0	17231	15870	154522	27448	951994	37362	106249	0	0	8165	760705	0	0
2024-04-18 17:35:32			0	33977	0	0	0	17244	15870	154578	27293	951994	37374	106254	0	0	8166	760157	0	0
2024-04-18 17:36:32			0	33976	0	0	0	17225	15870	154606	27213	951942	37384	106247	0	0	8166	760207	0	0
2024-04-18 17:37:32			0	33960	0	0	0	17233	15870	154594	27523	951994	37374	106250	0	0	8165	761003	0	0
2024-04-18 17:38:32			0	33983	0	0	0	17236	15880	154666	27604	951977	37384	106251	0	0	8166	759818	0	0
2024-04-18 17:39:32			0	33984	0	0	0	17249	15880	154666	27303	951977	37384	106256	0	0	8166	759768	0	0
2024-04-18 17:40:32			0	33973	0	0	0	17249	15870	154758	27390	951994	37374	106256	0	0	8165	760356	0	0
2024-04-18 17:41:32			0	33971	0	0	0	17254	15870	154714	27265	951994	37374	106258	0	0	8165	760456	0	0
2024-04-18 17:42:32			0	33993	0	0	0	17244	15880	154490	27447	952011	37385	106254	0	0	8166	759321	0	0
2024-04-18 17:43:32			0	33976	0	0	0	17241	15880	154618	27499	952011	37385	106253	0	0	8166	760166	0	0
2024-04-18 17:44:32			0	33990	0	0	0	17246	15890	154542	27201	952054	37364	106255	0	0	8166	759429	0	0
2024-04-18 17:45:32			0	33999	0	0	0	17251	15880	154502	27100	952090	37385	106257	0	0	8167	759023	0	0
2024-04-18 17:46:32			0	34000	0	0	0	17238	15880	154502	27379	952011	37385	106252	0	0	8167	758973	0	0
2024-04-18 17:47:32			0	34001	0	0	0	17238	15890	154486	27116	952019	37375	106252	0	0	8167	758883	0	0
2024-04-18 17:48:32			0	34014	0	0	0	17238	15890	154466	27310	951993	37385	106252	0	0	8168	758237	0	0
2024-04-18 17:49:32			0	34031	0	0	0	17233	15880	154482	27050	951958	37375	106250	0	0	8169	757435	0	0
2024-04-18 17:50:32			0	34029	0	0	0	17244	15890	154434	27178	952027	37375	106254	0	0	8169	757493	0	0
2024-04-18 17:51:32			0	34017	0	0	0	17238	15880	154446	27216	952011	37385	106252	0	0	8168	758129	0	0
2024-04-18 17:52:32			0	34007	0	0	0	17238	15880	154430	27395	952011	37375	106252	0	0	8167	758626	0	0
2024-04-18 17:53:32			0	34036	0	0	0	17249	15880	154442	27628	951985	37385	106256	0	0	8169	757187	0	0
2024-04-18 17:54:32			0	34032	0	0	0	17236	15880	154362	27254	952011	37385	106251	0	0	8169	757385	0	0
2024-04-18 17:55:32			0	34037	0	0	0	17244	15880	154222	26994	952064	37375	106254	0	0	8169	757137	0	0
2024-04-18 17:56:32			0	34045	0	0	0	17233	15890	154346	27128	952045	37385	106250	0	0	8170	756700	0	0
2024-04-18 17:57:32			0	34039	0	0	0	17244	15890	154250	27421	952045	37375	106254	0	0	8169	756997	0	0
2024-04-18 17:58:32			0	34045	0	0	0	17244	15880	154314	27041	952003	37384	106254	0	0	8169	756741	0	0
2024-04-18 17:59:32			0	34048	0	0	0	17238	15900	154362	26991	952035	37386	106252	0	0	8170	756510	0	0
2024-04-18 18:00:32			0	34054	0	0	0	17228	15890	154318	27239	952027	37385	106248	0	0	8170	756254	0	0
2024-04-18 18:01:32			0	34060	0	0	0	17241	15890	154222	27509	952045	37385	106253	0	0	8170	755957	0	0
2024-04-18 18:02:32			0	34076	0	0	0	17233	15890	154226	27081	952045	37385	106250	0	0	8172	755165	0	0
2024-04-18 18:03:32			0	34075	0	0	0	17228	15880	154178	26974	951985	37375	106248	0	0	8172	755255	0	0
2024-04-18 18:04:32			0	34079	0	0	0	17220	15890	154094	27088	952027	37385	106245	0	0	8172	755017	0	0
2024-04-18 18:05:32			0	34099	0	0	0	17210	15880	154070	27310	951985	37375	106241	0	0	8173	754068	0	0
2024-04-18 18:06:32			0	34104	0	0	0	17215	15880	154102	27282	951985	37375	106243	0	0	8173	753821	0	0
2024-04-18 18:07:32			0	34097	0	0	0	17218	15880	153970	27305	951950	37396	106244	0	0	8173	754167	0	0
2024-04-18 18:08:32			0	34092	0	0	0	17212	15870	154014	27345	951942	37374	106242	0	0	8173	754455	0	0
2024-04-18 18:09:32			0	34093	0	0	0	17212	15870	154070	27116	951889	37374	106242	0	0	8173	754406	0	0
2024-04-18 18:10:32			0	34094	0	0	0	17215	15870	154114	27312	951889	37374	106243	0	0	8173	754356	0	0
2024-04-18 18:11:32			0	34104	0	0	0	17207	15860	154026	27298	951881	37383	106240	0	0	8173	753903	0	0
2024-04-18 18:12:32			0	34087	0	0	0	17210	15870	154226	27083	951889	37384	106241	0	0	8172	754702	0	0
2024-04-18 18:13:32			0	34082	0	0	0	17215	15860	154102	27398	951986	37383	106243	0	0	8172	754990	0	0
2024-04-18 18:14:32			0	34088	0	0	0	17210	15860	154162	27265	951899	37373	106241	0	0	8172	754693	0	0
2024-04-18 18:15:32			0	34082	0	0	0	17215	15860	154130	27280	951952	37383	106243	0	0	8172	754990	0	0
2024-04-18 18:16:32			0	34087	0	0	0	17212	15860	154154	27208	951952	37373	106242	0	0	8172	754743	0	0
2024-04-18 18:17:32			0	34089	0	0	0	17210	15860	154174	27268	951960	37373	106241	0	0	8173	754644	0	0
2024-04-18 18:18:32			0	34071	0	0	0	17215	15860	154050	27341	952013	37383	106243	0	0	8171	755535	0	0
2024-04-18 18:19:32			0	34092	0	0	0	17210	15860	154090	27008	951934	37373	106241	0	0	8173	754496	0	0
2024-04-18 18:20:32			0	34071	0	0	0	17215	15860	154030	27531	951960	37373	106243	0	0	8171	755535	0	0
2024-04-18 18:21:32			0	34100	0	0	0	17210	15870	154066	27066	951994	37374	106241	0	0	8173	754060	0	0
2024-04-18 18:22:32			0	34101	0	0	0	17207	15860	154002	27055	951873	37373	106240	0	0	8173	754051	0	0
2024-04-18 18:23:32			0	34101	0	0	0	17205	15860	153994	27360	951952	37373	106239	0	0	8173	754051	0	0
2024-04-18 18:24:32			0	34102	0	0	0	17199	15850	154010	27355	951891	37362	106237	0	0	8173	754042	0	0
2024-04-18 18:25:32			0	34126	0	0	0	17212	15850	154066	26932	951917	37383	106242	0	0	8175	752857	0	0
2024-04-18 18:26:32			0	34110	0	0	0	17207	15860	153930	26870	951934	37383	106240	0	0	8174	753606	0	0
2024-04-18 18:27:32			0	34102	0	0	0	17202	15860	153934	27157	951926	37373	106238	0	0	8173	754001	0	0
2024-04-18 18:28:32			0	34094	0	0	0	17210	15860	153926	27642	951899	37373	106241	0	0	8173	754397	0	0
2024-04-18 18:29:32			0	34098	0	0	0	17207	15860	153922	27360	951926	37383	106240	0	0	8173	754199	0	0
2024-04-18 18:30:32			0	34090	0	0	0	17210	15850	154026	27203	951883	37372	106241	0	0	8173	754635	0	0
2024-04-18 18:31:32			0	34091	0	0	0	17202	15860	154018	27414	951926	37383	106238	0	0	8173	754545	0	0
2024-04-18 18:32:32			0	34086	0	0	0	17192	15850	154078	27114	951891	37373	106234	0	0	8173	754833	0	0
2024-04-18 18:33:32			0	34087	0	0	0	17199	15840	154154	27161	951901	37360	106237	0	0	8173	754824	0	0
2024-04-18 18:34:32			0	34078	0	0	0	17197	15850	154114	27331	951917	37394	106236	0	0	8172	755229	0	0
2024-04-18 18:35:32			0	34082	0	0	0	17194	15850	154198	27454	951804	37372	106235	0	0	8172	755031	0	0
2024-04-18 18:36:32			0	34059	0	0	0	17199	15850	154102	27395	951804	37382	106237	0	0	8171	756169	0	0
2024-04-18 18:37:32			0	34066	0	0	0	17197	15840	154122	27557	951928	37381	106236	0	0	8171	755863	0	0
2024-04-18 18:38:32			0	34067	0	0	0	17189	15840	154254	27135	951849	37381	106233	0	0	8172	755814	0	0
2024-04-18 18:39:32			0	34078	0	0	0	17189	15850	154226	27112	951857	37372	106233	0	0	8172	755229	0	0
2024-04-18 18:40:32			0	34031	0	0	0	17187	15840	154222	27147	951849	37381	106232	0	0	8169	757598	0	0
2024-04-18 18:41:32			0	34055	0	0	0	17181	15840	154306	27220	951875	37371	106230	0	0	8171	756408	0	0
2024-04-18 18:42:32			0	34050	0	0	0	17192	15840	154350	27265	951867	37371	106234	0	0	8170	756656	0	0
2024-04-18 18:43:32			0	34031	0	0	0	17194	15840	154358	27059	951840	37381	106235	0	0	8169	757598	0	0
2024-04-18 18:44:32			0	34028	0	0	0	17189	15830	154294	27069	951832	37381	106233	0	0	8169	757788	0	0
2024-04-18 18:45:32			0	34029	0	0	0	17192	15830	154322	27000	951806	37371	106234	0	0	8169	757738	0	0
2024-04-18 18:46:32			0	34039	0	0	0	17181	15840	154446	27220	951893	37371	106230	0	0	8170	757201	0	0
2024-04-18 18:47:32			0	34019	0	0	0	17181	15840	154434	27312	951840	37371	106230	0	0	8169	758193	0	0
2024-04-18 18:48:32			0	34031	0	0	0	17181	15840	154438	26906	951849	37381	106230	0	0	8170	757598	0	0
2024-04-18 18:49:32			0	34016	0	0	0	17184	15840	154534	27114	951840	37371	106231	0	0	8169	758342	0	0
2024-04-18 18:50:32			0	34007	0	0	0	17171	15840	154638	26935	951849	37381	106226	0	0	8168	758789	0	0
2024-04-18 18:51:32			0	34008	0	0	0	17176	15830	154570	27074	951832	37381	106228	0	0	8168	758781	0	0
2024-04-18 18:52:32			0	34010	0	0	0	17168	15830	154454	26987	951859	37371	106225	0	0	8169	758681	0	0
2024-04-18 18:53:32			0	34009	0	0	0	17176	15820	154474	26968	951842	37380	106228	0	0	8168	758772	0	0
2024-04-18 18:54:32			0	34009	0	0	0	17168	15830	154550	27440	951824	37380	106225	0	0	8168	758731	0	0
2024-04-18 18:55:32			0	33991	0	0	0	17161	15820	154562	26951	951763	37369	106222	0	0	8167	759666	0	0
2024-04-18 18:56:32			0	33992	0	0	0	17161	15820	154550	27182	951737	37380	106222	0	0	8168	759616	0	0
2024-04-18 18:57:32			0	33995	0	0	0	17161	15820	154562	27332	951782	37369	106222	0	0	8168	759467	0	0
2024-04-18 18:58:32			0	33976	0	0	0	17150	15810	154606	27133	951747	37369	106218	0	0	8167	760453	0	0
2024-04-18 18:59:32			0	33988	0	0	0	17148	15820	154642	27294	951676	37369	106217	0	0	8168	759815	0	0
2024-04-18 19:00:32			0	33987	0	0	0	17155	15820	154598	27531	951703	37358	106220	0	0	8167	759865	0	0
2024-04-18 19:01:32			0	33972	0	0	0	17153	15810	154626	27081	951721	37358	106219	0	0	8166	760652	0	0
2024-04-18 19:02:32			0	33978	0	0	0	17155	15820	154602	27296	951755	37380	106220	0	0	8167	760313	0	0
2024-04-18 19:03:32			0	33989	0	0	0	17158	15820	154626	27391	951676	37380	106221	0	0	8167	759766	0	0
2024-04-18 19:04:32			0	33987	0	0	0	17153	15820	154650	27239	951729	37369	106219	0	0	8167	759865	0	0
2024-04-18 19:05:32			0	33994	0	0	0	17155	15810	154650	27173	951721	37369	106220	0	0	8168	759558	0	0
2024-04-18 19:06:32			0	33990	0	0	0	17158	15810	154638	27287	951713	37369	106221	0	0	8167	759757	0	0
2024-04-18 19:07:32			0	33983	0	0	0	17158	15810	154610	27256	951739	37357	106221	0	0	8167	760105	0	0
2024-04-18 19:08:32			0	33976	0	0	0	17155	15800	154622	27019	951678	37378	106220	0	0	8167	760494	0	0
2024-04-18 19:09:32			0	33980	0	0	0	17137	15810	154646	27377	951765	37379	106213	0	0	8167	760254	0	0
2024-04-18 19:10:32			0	33976	0	0	0	17145	15800	154578	27069	951723	37356	106216	0	0	8167	760494	0	0
2024-04-18 19:11:32			0	33983	0	0	0	17142	15800	154606	27171	951757	37368	106215	0	0	8167	760146	0	0
2024-04-18 19:12:32			0	33975	0	0	0	17150	15800	154642	26835	951670	37367	106218	0	0	8167	760544	0	0
2024-04-18 19:13:32			0	33989	0	0	0	17137	15800	154610	27005	951731	37357	106213	0	0	8168	759847	0	0
2024-04-18 19:14:32			0	33983	0	0	0	17140	15800	154570	27150	951731	37389	106214	0	0	8167	760146	0	0
2024-04-18 19:15:32			0	33997	0	0	0	17137	15800	154638	27265	951705	37378	106213	0	0	8168	759450	0	0
2024-04-18 19:16:32			0	33973	0	0	0	17137	15800	154610	27407	951697	37377	106213	0	0	8167	760643	0	0
2024-04-18 19:17:32			0	33990	0	0	0	17132	15790	154670	27005	951733	37356	106211	0	0	8168	759839	0	0
2024-04-18 19:18:32			0	33982	0	0	0	17129	15790	154682	27239	951680	37367	106210	0	0	8167	760237	0	0
2024-04-18 19:19:32			0	33984	0	0	0	17119	15800	154638	27157	951644	37367	106206	0	0	8168	760096	0	0
2024-04-18 19:20:32			0	33970	0	0	0	17127	15790	154650	26935	951662	37377	106209	0	0	8167	760834	0	0
2024-04-18 19:21:32			0	33973	0	0	0	17114	15790	154694	27486	951715	37367	106204	0	0	8167	760684	0	0
2024-04-18 19:22:32			0	33979	0	0	0	17119	15790	154670	27071	951662	37377	106206	0	0	8167	760386	0	0
2024-04-18 19:23:32			0	33966	0	0	0	17122	15790	154650	27088	951601	37356	106207	0	0	8167	761033	0	0
2024-04-18 19:24:32			0	33952	0	0	0	17124	15780	154758	27234	951699	37355	106208	0	0	8166	761771	0	0
2024-04-18 19:25:32			0	33954	0	0	0	17135	15790	154826	26802	951707	37356	106212	0	0	8166	761631	0	0
2024-04-18 19:26:32			0	33950	0	0	0	17148	15790	154770	26970	951707	37367	106217	0	0	8165	761830	0	0
2024-04-18 19:27:32			0	33955	0	0	0	17132	15790	154862	27124	951654	37377	106211	0	0	8166	761580	0	0
2024-04-18 19:28:32			0	33938	0	0	0	17137	15790	154810	27204	951628	37367	106213	0	0	8165	762428	0	0
2024-04-18 19:29:32			0	33941	0	0	0	17129	15780	154834	27381	951620	37376	106210	0	0	8165	762319	0	0
2024-04-18 19:30:32			0	33941	0	0	0	17142	15790	154886	27244	951636	37367	106215	0	0	8165	762278	0	0
2024-04-18 19:31:32			0	33944	0	0	0	17127	15780	154874	27133	951672	37376	106209	0	0	8165	762170	0	0
2024-04-18 19:32:32			0	33938	0	0	0	17137	15790	154966	27059	951707	37367	106213	0	0	8165	762428	0	0
2024-04-18 19:33:32			0	33932	0	0	0	17140	15790	154922	27107	951707	37367	106214	0	0	8164	762727	0	0
2024-04-18 19:34:32			0	33922	0	0	0	17135	15780	154842	27013	951646	37376	106212	0	0	8164	763267	0	0
2024-04-18 19:35:32			0	33939	0	0	0	17140	15790	154926	27504	951628	37367	106214	0	0	8165	762378	0	0
2024-04-18 19:36:32			0	33927	0	0	0	17145	15790	154938	27104	951715	37367	106216	0	0	8164	762977	0	0
2024-04-18 19:37:32			0	33939	0	0	0	17145	15780	154946	27294	951699	37376	106216	0	0	8165	762419	0	0
2024-04-18 19:38:32			0	33925	0	0	0	17150	15780	154858	27497	951593	37387	106218	0	0	8164	763117	0	0
2024-04-18 19:39:32			0	33927	0	0	0	17155	15800	154882	26972	951670	37377	106220	0	0	8164	762935	0	0
2024-04-18 19:40:32			0	33924	0	0	0	17150	15790	154898	27199	951741	37377	106218	0	0	8164	763126	0	0
2024-04-18 19:41:32			0	33926	0	0	0	17153	15790	154902	27152	951689	37367	106219	0	0	8164	763026	0	0
2024-04-18 19:42:32			0	33941	0	0	0	17145	15780	154990	27024	951672	37366	106216	0	0	8165	762319	0	0
2024-04-18 19:43:32			0	33933	0	0	0	17142	15790	154978	27353	951689	37367	106215	0	0	8164	762677	0	0
2024-04-18 19:44:32			0	33923	0	0	0	17137	15790	154938	27218	951741	37399	106213	0	0	8164	763176	0	0
2024-04-18 19:45:32			0	33938	0	0	0	17137	15800	154914	27111	951697	37377	106213	0	0	8165	762387	0	0
2024-04-18 19:46:32			0	33923	0	0	0	17135	15790	154998	27537	951680	37377	106212	0	0	8164	763176	0	0
2024-04-18 19:47:32			0	33930	0	0	0	17150	15790	154962	27166	951689	37377	106218	0	0	8164	762827	0	0
2024-04-18 19:48:32			0	33922	0	0	0	17148	15790	154970	27331	951707	37377	106217	0	0	8164	763226	0	0
2024-04-18 19:49:32			0	33936	0	0	0	17150	15790	154882	27079	951662	37367	106218	0	0	8164	762528	0	0
2024-04-18 19:50:32			0	33912	0	0	0	17171	15800	154958	27149	951776	37367	106226	0	0	8163	763684	0	0
2024-04-18 19:51:32			0	33923	0	0	0	17174	15790	154966	27046	951733	37377	106227	0	0	8163	763176	0	0
2024-04-18 19:52:32			0	33910	0	0	0	17166	15800	154914	27180	951784	37378	106224	0	0	8163	763784	0	0
2024-04-18 19:53:32			0	33947	0	0	0	17168	15810	154902	27362	951792	37369	106225	0	0	8165	761897	0	0
2024-04-18 19:54:32			0	33946	0	0	0	17161	15800	154998	27227	951749	37367	106222	0	0	8165	761988	0	0
2024-04-18 19:55:32			0	33931	0	0	0	17161	15800	154918	27365	951723	37367	106222	0	0	8164	762736	0	0
2024-04-18 19:56:32			0	33928	0	0	0	17158	15800	154934	27462	951723	37377	106221	0	0	8164	762885	0	0
2024-04-18 19:57:32			0	33930	0	0	0	17158	15810	154870	27066	951713	37379	106221	0	0	8164	762744	0	0
2024-04-18 19:58:32			0	33936	0	0	0	17163	15800	154922	27431	951757	37368	106223	0	0	8164	762486	0	0
2024-04-18 19:59:32			0	33926	0	0	0	17171	15800	155002	27277	951810	37378	106226	0	0	8163	762985	0	0
2024-04-18 20:00:32			0	33915	0	0	0	17168	15800	154874	27086	951802	37377	106225	0	0	8163	763534	0	0
2024-04-18 20:01:32			0	33927	0	0	0	17174	15810	154874	27355	951845	37390	106227	0	0	8163	762894	0	0
2024-04-18 20:02:32			0	33934	0	0	0	17155	15800	154938	27258	951776	37377	106220	0	0	8164	762586	0	0
2024-04-18 20:03:32			0	33931	0	0	0	17174	15800	154914	27459	951836	37368	106227	0	0	8164	762736	0	0
2024-04-18 20:04:32			0	33930	0	0	0	17155	15810	154746	27371	951765	37379	106220	0	0	8164	762744	0	0
2024-04-18 20:05:32			0	33929	0	0	0	17158	15800	154858	27294	951784	37378	106221	0	0	8164	762835	0	0
2024-04-18 20:06:32			0	33924	0	0	0	17163	15800	154918	26937	951784	37368	106223	0	0	8163	763085	0	0
2024-04-18 20:07:32			0	33917	0	0	0	17187	15810	154938	27123	951765	37379	106232	0	0	8163	763393	0	0
2024-04-18 20:08:32			0	33929	0	0	0	17174	15810	154758	27093	951765	37379	106227	0	0	8164	762794	0	0
2024-04-18 20:09:32			0	33936	0	0	0	17171	15810	154794	27168	951792	37369	106226	0	0	8164	762445	0	0
2024-04-18 20:10:32			0	33919	0	0	0	17171	15810	154802	27196	951826	37369	106226	0	0	8163	763293	0	0
2024-04-18 20:11:32			0	33944	0	0	0	17168	15820	154790	27352	951861	37369	106225	0	0	8165	762005	0	0
2024-04-18 20:12:32			0	33941	0	0	0	17163	15810	154738	27306	951826	37380	106223	0	0	8164	762196	0	0
2024-04-18 20:13:32			0	33944	0	0	0	17155	15810	154706	27272	951792	37369	106220	0	0	8165	762047	0	0
2024-04-18 20:14:32			0	33930	0	0	0	17142	15820	154710	27306	951755	37369	106215	0	0	8164	762703	0	0
2024-04-18 20:15:32			0	33914	0	0	0	17150	15810	154778	27410	951765	37390	106218	0	0	8163	763543	0	0
2024-04-18 20:16:32			0	33922	0	0	0	17132	15810	154798	27376	951739	37357	106211	0	0	8164	763143	0	0
2024-04-18 20:17:32			0	33928	0	0	0	17137	15800	154850	27060	951723	37377	106213	0	0	8164	762885	0	0
2024-04-18 20:18:32			0	33915	0	0	0	17127	15800	154834	27248	951731	37378	106209	0	0	8164	763534	0	0
2024-04-18 20:19:32			0	33912	0	0	0	17129	15810	154826	27407	951721	37358	106210	0	0	8163	763643	0	0
2024-04-18 20:20:32			0	33910	0	0	0	17124	15800	154830	27474	951678	37368	106208	0	0	8163	763784	0	0
2024-04-18 20:21:32			0	33891	0	0	0	17119	15800	154878	27457	951705	37368	106206	0	0	8162	764733	0	0
2024-04-18 20:22:32			0	33899	0	0	0	17114	15790	154938	27213	951662	37367	106204	0	0	8163	764374	0	0
2024-04-18 20:23:32			0	33911	0	0	0	17103	15780	154902	27211	951672	37376	106200	0	0	8164	763816	0	0
2024-04-18 20:24:32			0	33889	0	0	0	17114	15800	154966	27230	951697	37377	106204	0	0	8162	764833	0	0
2024-04-18 20:25:32			0	33890	0	0	0	17111	15800	154922	27192	951644	37367	106203	0	0	8162	764783	0	0
2024-04-18 20:26:32			0	33892	0	0	0	17106	15780	154966	27170	951612	37375	106201	0	0	8162	764765	0	0
2024-04-18 20:27:32			0	33886	0	0	0	17098	15790	154970	27372	951680	37367	106198	0	0	8162	765024	0	0
2024-04-18 20:28:32			0	33877	0	0	0	17101	15790	155002	27086	951636	37377	106199	0	0	8162	765474	0	0
2024-04-18 20:29:32			0	33862	0	0	0	17114	15770	155078	27228	951577	37365	106204	0	0	8161	766307	0	0
2024-04-18 20:30:32			0	33855	0	0	0	17111	15780	155126	26968	951585	37375	106203	0	0	8160	766616	0	0
2024-04-18 20:31:32			0	33859	0	0	0	17114	15770	155134	27180	951577	37375	106204	0	0	8160	766457	0	0
2024-04-18 20:32:32			0	33854	0	0	0	17116	15780	155154	27457	951612	37365	106205	0	0	8160	766666	0	0
2024-04-18 20:33:32			0	33845	0	0	0	17114	15780	155078	27208	951646	37376	106204	0	0	8160	767117	0	0
2024-04-18 20:34:32			0	33856	0	0	0	17111	15770	155154	27334	951577	37375	106203	0	0	8160	766607	0	0
2024-04-18 20:35:32			0	33857	0	0	0	17119	15760	155114	27358	951561	37375	106206	0	0	8160	766599	0	0
2024-04-18 20:36:32			0	33852	0	0	0	17116	15770	155174	27124	951622	37387	106205	0	0	8160	766808	0	0
2024-04-18 20:37:32			0	33844	0	0	0	17111	15770	155170	27235	951569	37375	106203	0	0	8160	767208	0	0
2024-04-18 20:38:32			0	33850	0	0	0	17111	15770	155222	27457	951603	37365	106203	0	0	8160	766908	0	0
2024-04-18 20:39:32			0	33842	0	0	0	17114	15770	155158	27594	951595	37375	106204	0	0	8159	767309	0	0
2024-04-18 20:40:32			0	33848	0	0	0	17106	15770	155194	26857	951577	37375	106201	0	0	8160	767008	0	0
2024-04-18 20:41:32			0	33835	0	0	0	17101	15760	155306	27419	951508	37375	106199	0	0	8159	767701	0	0
2024-04-18 20:42:32			0	33832	0	0	0	17088	15760	155210	27208	951614	37386	106194	0	0	8159	767851	0	0
2024-04-18 20:43:32			0	33851	0	0	0	17090	15770	155206	27201	951577	37365	106195	0	0	8160	766858	0	0
2024-04-18 20:44:32			0	33840	0	0	0	17088	15750	155138	27249	951545	37385	106194	0	0	8160	767492	0	0
2024-04-18 20:45:32			0	33847	0	0	0	17083	15760	155174	27138	951500	37364	106192	0	0	8160	767099	0	0
2024-04-18 20:46:32			0	33850	0	0	0	17067	15760	155174	27180	951553	37375	106186	0	0	8161	766949	0	0
2024-04-18 20:47:32			0	33826	0	0	0	17072	15760	155058	27114	951500	37352	106188	0	0	8159	768152	0	0
2024-04-18 20:48:32			0	33837	0	0	0	17072	15750	155162	27050	951457	37385	106188	0	0	8160	767642	0	0
2024-04-18 20:49:32			0	33831	0	0	0	17075	15750	155206	27275	951563	37364	106189	0	0	8159	767943	0	0
2024-04-18 20:50:32			0	33829	0	0	0	17064	15740	155246	27479	951502	37363	106185	0	0	8159	768085	0	0
2024-04-18 20:51:32			0	33813	0	0	0	17072	15740	155242	27736	951441	37351	106188	0	0	8158	768887	0	0
2024-04-18 20:52:32			0	33832	0	0	0	17067	15740	155342	27471	951441	37373	106186	0	0	8159	767934	0	0
2024-04-18 20:53:32			0	33831	0	0	0	17077	15730	155306	27261	951451	37372	106190	0	0	8159	768025	0	0
2024-04-18 20:54:32			0	33807	0	0	0	17077	15740	155298	27372	951467	37362	106190	0	0	8158	769189	0	0
2024-04-18 20:55:32			0	33813	0	0	0	17083	15730	155346	27286	951459	37361	106192	0	0	8158	768929	0	0
2024-04-18 20:56:32			0	33803	0	0	0	17067	15740	155382	27209	951449	37363	106186	0	0	8158	769389	0	0
2024-04-18 20:57:32			0	33806	0	0	0	17083	15740	155374	27137	951475	37363	106192	0	0	8158	769239	0	0
2024-04-18 20:58:32			0	33797	0	0	0	17072	15730	155462	27189	951433	37372	106188	0	0	8157	769732	0	0
2024-04-18 20:59:32			0	33797	0	0	0	17080	15730	155438	27190	951433	37372	106191	0	0	8157	769732	0	0
2024-04-18 21:00:32			0	33790	0	0	0	17075	15730	155490	27196	951486	37361	106189	0	0	8157	770084	0	0
2024-04-18 21:01:32			0	33807	0	0	0	17080	15730	155398	27417	951459	37361	106191	0	0	8158	769230	0	0
2024-04-18 21:02:32			0	33796	0	0	0	17067	15730	155470	27105	951451	37361	106186	0	0	8157	769782	0	0
2024-04-18 21:03:32			0	33794	0	0	0	17070	15730	155434	27048	951433	37361	106187	0	0	8157	769883	0	0
2024-04-18 21:04:32			0	33793	0	0	0	17070	15730	155470	27374	951459	37382	106187	0	0	8157	769933	0	0
2024-04-18 21:05:32			0	33790	0	0	0	17064	15720	155350	27531	951443	37372	106185	0	0	8157	770125	0	0
2024-04-18 21:06:32			0	33780	0	0	0	17064	15720	155450	27171	951390	37372	106185	0	0	8156	770628	0	0
2024-04-18 21:07:32			0	33796	0	0	0	17072	15720	155418	27383	951443	37382	106188	0	0	8157	769824	0	0
2024-04-18 21:08:32			0	33789	0	0	0	17059	15730	155418	27048	951459	37361	106183	0	0	8157	770134	0	0
2024-04-18 21:09:32			0	33782	0	0	0	17059	15720	155434	27124	951409	37349	106183	0	0	8157	770528	0	0
2024-04-18 21:10:32			0	33781	0	0	0	17051	15720	155418	27241	951469	37372	106180	0	0	8157	770578	0	0
2024-04-18 21:11:32			0	33786	0	0	0	17051	15720	155354	27081	951390	37361	106180	0	0	8157	770326	0	0
2024-04-18 21:12:32			0	33781	0	0	0	17057	15720	155390	27102	951409	37371	106182	0	0	8157	770578	0	0
2024-04-18 21:13:32			0	33794	0	0	0	17054	15720	155478	27251	951382	37360	106181	0	0	8157	769924	0	0
2024-04-18 21:14:32			0	33792	0	0	0	17054	15730	155502	27147	951346	37361	106181	0	0	8157	769984	0	0
2024-04-18 21:15:32			0	33786	0	0	0	17046	15720	155506	26958	951382	37360	106178	0	0	8157	770326	0	0
2024-04-18 21:16:32			0	33789	0	0	0	17046	15720	155534	27234	951382	37360	106178	0	0	8157	770176	0	0
2024-04-18 21:17:32			0	33799	0	0	0	17046	15710	155462	27159	951340	37371	106178	0	0	8158	769715	0	0
2024-04-18 21:18:32			0	33789	0	0	0	17046	15710	155426	27312	951340	37360	106178	0	0	8157	770217	0	0
2024-04-18 21:19:32			0	33778	0	0	0	17044	15710	155358	26974	951348	37371	106177	0	0	8157	770770	0	0
2024-04-18 21:20:32			0	33783	0	0	0	17049	15700	155446	27237	951358	37348	106179	0	0	8157	770560	0	0
2024-04-18 21:21:32			0	33777	0	0	0	17044	15710	155442	27215	951401	37360	106177	0	0	8156	770821	0	0
2024-04-18 21:22:32			0	33790	0	0	0	17046	15700	155358	26960	951350	37370	106178	0	0	8157	770208	0	0
2024-04-18 21:23:32			0	33793	0	0	0	17038	15720	155486	27052	951330	37382	106175	0	0	8158	769975	0	0
2024-04-18 21:24:32			0	33780	0	0	0	17038	15700	155470	27046	951350	37348	106175	0	0	8157	770711	0	0
2024-04-18 21:25:32			0	33773	0	0	0	17033	15700	155494	27039	951324	37359	106173	0	0	8156	771063	0	0
2024-04-18 21:26:32			0	33767	0	0	0	17038	15700	155478	27409	951350	37370	106175	0	0	8156	771365	0	0
2024-04-18 21:27:32			0	33793	0	0	0	17025	15700	155478	27157	951332	37371	106170	0	0	8158	770058	0	0
2024-04-18 21:28:32			0	33789	0	0	0	17028	15690	155414	27312	951289	37369	106171	0	0	8157	770300	0	0
2024-04-18 21:29:32			0	33766	0	0	0	17028	15690	155490	27242	951289	37369	106171	0	0	8156	771457	0	0
2024-04-18 21:30:32			0	33785	0	0	0	17028	15690	155550	27114	951307	37369	106171	0	0	8157	770501	0	0
2024-04-18 21:31:32			0	33786	0	0	0	17036	15690	155490	27604	951307	37379	106174	0	0	8157	770451	0	0
2024-04-18 21:32:32			0	33786	0	0	0	17038	15690	155434	27326	951342	37358	106175	0	0	8157	770451	0	0
2024-04-18 21:33:32			0	33785	0	0	0	17046	15690	155482	27353	951334	37369	106178	0	0	8157	770501	0	0
2024-04-18 21:34:32			0	33770	0	0	0	17051	15700	155542	27000	951358	37381	106180	0	0	8156	771214	0	0
2024-04-18 21:35:32			0	33773	0	0	0	17057	15690	155502	27209	951368	37358	106182	0	0	8156	771105	0	0
2024-04-18 21:36:32			0	33768	0	0	0	17051	15700	155446	27509	951403	37370	106180	0	0	8156	771315	0	0
2024-04-18 21:37:32			0	33791	0	0	0	17046	15710	155418	27076	951366	37371	106178	0	0	8157	770117	0	0
2024-04-18 21:38:32			0	33776	0	0	0	17049	15700	155494	27379	951411	37348	106179	0	0	8156	770912	0	0
2024-04-18 21:39:32			0	33764	0	0	0	17041	15710	155450	27128	951313	37360	106176	0	0	8156	771475	0	0
2024-04-18 21:40:32			0	33775	0	0	0	17044	15700	155414	27307	951384	37348	106177	0	0	8156	770963	0	0
2024-04-18 21:41:32			0	33780	0	0	0	17044	15700	155406	27507	951350	37359	106177	0	0	8157	770711	0	0
2024-04-18 21:42:32			0	33801	0	0	0	17044	15700	155442	27296	951332	37360	106177	0	0	8158	769656	0	0
2024-04-18 21:43:32			0	33815	0	0	0	17046	15710	155326	27300	951348	37360	106178	0	0	8159	768911	0	0
2024-04-18 21:44:32			0	33819	0	0	0	17059	15690	155442	27410	951421	37369	106183	0	0	8159	768793	0	0
2024-04-18 21:45:32			0	33815	0	0	0	17062	15700	155334	27512	951384	37360	106184	0	0	8158	768953	0	0
2024-04-18 21:46:32			0	33830	0	0	0	17062	15700	155330	27673	951437	37371	106184	0	0	8159	768200	0	0
2024-04-18 21:47:32			0	33816	0	0	0	17070	15700	155246	27587	951384	37360	106187	0	0	8158	768902	0	0
2024-04-18 21:48:32			0	33836	0	0	0	17064	15700	155214	27538	951411	37371	106185	0	0	8160	767899	0	0
2024-04-18 21:49:32			0	33852	0	0	0	17080	15720	155202	27466	951514	37371	106191	0	0	8160	767014	0	0
2024-04-18 21:50:32			0	33850	0	0	0	17075	15710	155026	27140	951453	37371	106189	0	0	8160	767156	0	0
2024-04-18 21:51:32			0	33860	0	0	0	17062	15710	155118	27453	951419	37371	106184	0	0	8161	766655	0	0
2024-04-18 21:52:32			0	33873	0	0	0	17064	15720	154990	27405	951409	37382	106185	0	0	8162	765963	0	0
2024-04-18 21:53:32			0	33876	0	0	0	17059	15710	154986	27355	951419	37360	106183	0	0	8162	765854	0	0
2024-04-18 21:54:32			0	33896	0	0	0	17054	15710	154910	26866	951427	37371	106181	0	0	8163	764854	0	0
2024-04-18 21:55:32			0	33901	0	0	0	17044	15710	154934	27065	951366	37371	106177	0	0	8164	764604	0	0
2024-04-18 21:56:32			0	33913	0	0	0	17044	15700	154854	27095	951358	37371	106177	0	0	8164	764045	0	0
2024-04-18 21:57:32			0	33926	0	0	0	17038	15710	154738	27185	951401	37371	106175	0	0	8165	763355	0	0
2024-04-18 21:58:32			0	33935	0	0	0	17036	15700	154674	27130	951358	37371	106174	0	0	8166	762947	0	0
2024-04-18 21:59:32			0	33931	0	0	0	17038	15700	154666	27170	951305	37371	106175	0	0	8166	763147	0	0
2024-04-18 22:00:32			0	33934	0	0	0	17038	15700	154642	27712	951358	37381	106175	0	0	8166	762997	0	0
2024-04-18 22:01:32			0	33928	0	0	0	17038	15700	154710	27142	951403	37359	106175	0	0	8165	763296	0	0
2024-04-18 22:02:32			0	33948	0	0	0	17038	15700	154678	27388	951350	37370	106175	0	0	8167	762299	0	0
2024-04-18 22:03:32			0	33923	0	0	0	17036	15700	154682	26863	951332	37360	106174	0	0	8165	763546	0	0
2024-04-18 22:04:32			0	33939	0	0	0	17036	15700	154626	27398	951384	37371	106174	0	0	8166	762748	0	0
2024-04-18 22:05:32			0	33925	0	0	0	17028	15690	154698	27364	951342	37369	106171	0	0	8165	763487	0	0
2024-04-18 22:06:32			0	33925	0	0	0	17033	15710	154686	27320	951374	37371	106173	0	0	8165	763405	0	0
2024-04-18 22:07:32			0	33915	0	0	0	17023	15710	154798	27194	951366	37360	106169	0	0	8165	763904	0	0
2024-04-18 22:08:32			0	33920	0	0	0	17023	15690	154714	27417	951334	37358	106169	0	0	8165	763737	0	0
2024-04-18 22:09:32			0	33920	0	0	0	17018	15690	154790	27164	951368	37379	106167	0	0	8165	763737	0	0
2024-04-18 22:10:32			0	33903	0	0	0	17018	15690	154702	27511	951342	37358	106167	0	0	8164	764586	0	0
2024-04-18 22:11:32			0	33895	0	0	0	17025	15690	154822	27248	951307	37358	106170	0	0	8164	764986	0	0
2024-04-18 22:12:32			0	33900	0	0	0	17020	15690	154866	27474	951281	37358	106168	0	0	8164	764736	0	0
2024-04-18 22:13:32			0	33889	0	0	0	17023	15690	154942	27111	951342	37369	106169	0	0	8163	765286	0	0
2024-04-18 22:14:32			0	33889	0	0	0	17023	15690	154978	27360	951360	37369	106169	0	0	8163	765286	0	0
2024-04-18 22:15:32			0	33865	0	0	0	17025	15690	154922	27601	951281	37369	106170	0	0	8162	766487	0	0
2024-04-18 22:16:32			0	33863	0	0	0	17028	15690	155074	27592	951334	37347	106171	0	0	8162	766587	0	0
2024-04-18 22:17:32			0	33846	0	0	0	17025	15680	155014	27211	951352	37369	106170	0	0	8161	767480	0	0
2024-04-18 22:18:32			0	33854	0	0	0	17028	15680	154994	27324	951247	37369	106171	0	0	8161	767079	0	0
2024-04-18 22:19:32			0	33842	0	0	0	17020	15680	155166	27571	951299	37369	106168	0	0	8161	767681	0	0
2024-04-18 22:20:32			0	33863	0	0	0	17007	15680	155202	27569	951247	37358	106163	0	0	8162	766629	0	0
2024-04-18 22:21:32			0	33830	0	0	0	16999	15670	155222	27455	951222	37355	106160	0	0	8160	768324	0	0
2024-04-18 22:22:32			0	33826	0	0	0	16976	15680	155150	27407	951212	37346	106151	0	0	8160	768483	0	0
2024-04-18 22:23:32			0	33816	0	0	0	16961	15670	155202	27395	951151	37356	106145	0	0	8160	769026	0	0
2024-04-18 22:24:32			0	33823	0	0	0	16924	15660	155218	27306	951127	37344	106131	0	0	8161	768717	0	0
2024-04-18 22:25:32			0	33820	0	0	0	16916	15640	155350	27277	951050	37343	106128	0	0	8161	768950	0	0
2024-04-18 22:26:32			0	33773	0	0	0	16914	15630	155458	27293	950947	37341	106127	0	0	8158	771354	0	0
2024-04-18 22:27:32			0	33794	0	0	0	16901	15630	155534	27121	951000	37352	106122	0	0	8159	770298	0	0
2024-04-18 22:28:32			0	33785	0	0	0	16903	15630	155518	27469	950973	37341	106123	0	0	8159	770750	0	0
2024-04-18 22:29:32			0	33775	0	0	0	16903	15610	155562	27400	951001	37340	106123	0	0	8158	771336	0	0
2024-04-18 22:30:32			0	33777	0	0	0	16896	15610	155558	27293	950888	37350	106120	0	0	8158	771236	0	0
2024-04-18 22:31:32			0	33781	0	0	0	16890	15600	155498	27502	950880	37339	106118	0	0	8159	771076	0	0
2024-04-18 22:32:32			0	33773	0	0	0	16896	15600	155526	27329	950924	37338	106120	0	0	8158	771479	0	0
2024-04-18 22:33:32			0	33777	0	0	0	16903	15580	155602	27810	950776	37338	106123	0	0	8158	771360	0	0
2024-04-18 22:34:32			0	33751	0	0	0	16906	15590	155702	27268	950916	37338	106124	0	0	8157	772628	0	0
2024-04-18 22:35:32			0	33747	0	0	0	16911	15580	155722	27242	950855	37349	106126	0	0	8156	772871	0	0
2024-04-18 22:36:32			0	33734	0	0	0	16922	15580	155806	27281	950908	37349	106130	0	0	8155	773527	0	0
2024-04-18 22:37:32			0	33723	0	0	0	16914	15580	155770	27241	950908	37349	106127	0	0	8155	774082	0	0
2024-04-18 22:38:32			0	33698	0	0	0	16916	15590	155858	27507	950916	37350	106128	0	0	8153	775303	0	0
2024-04-18 22:39:32			0	33696	0	0	0	16911	15580	155906	27710	950934	37360	106126	0	0	8153	775446	0	0
2024-04-18 22:40:32			0	33701	0	0	0	16903	15580	155938	27447	950908	37349	106123	0	0	8154	775193	0	0
2024-04-18 22:41:32			0	33694	0	0	0	16893	15580	155870	27549	950873	37348	106119	0	0	8154	775547	0	0
2024-04-18 22:42:32			0	33697	0	0	0	16880	15570	155902	27268	950831	37348	106114	0	0	8154	775437	0	0
2024-04-18 22:43:32			0	33701	0	0	0	16888	15570	155878	27473	950831	37348	106117	0	0	8154	775235	0	0
2024-04-18 22:44:32			0	33699	0	0	0	16893	15560	156002	27673	950770	37336	106119	0	0	8154	775378	0	0
2024-04-18 22:45:32			0	33683	0	0	0	16901	15560	155970	27412	950796	37336	106122	0	0	8153	776187	0	0
2024-04-18 22:46:32			0	33681	0	0	0	16906	15550	155978	27348	950807	37335	106124	0	0	8152	776330	0	0
2024-04-18 22:47:32			0	33683	0	0	0	16901	15560	156050	27599	950796	37347	106122	0	0	8153	776187	0	0
2024-04-18 22:48:32			0	33692	0	0	0	16914	15550	156070	27535	950798	37345	106127	0	0	8153	775773	0	0
2024-04-18 22:49:32			0	33686	0	0	0	16924	15560	156074	27272	950815	37346	106131	0	0	8152	776035	0	0
2024-04-18 22:50:32			0	33681	0	0	0	16924	15560	156098	27537	950867	37346	106131	0	0	8152	776288	0	0
2024-04-18 22:51:32			0	33684	0	0	0	16929	15570	156014	27300	950857	37348	106133	0	0	8152	776095	0	0
2024-04-18 22:52:32			0	33673	0	0	0	16924	15570	156178	27272	950936	37370	106131	0	0	8152	776651	0	0
2024-04-18 22:53:32			0	33673	0	0	0	16935	15560	155986	27182	950920	37346	106135	0	0	8151	776693	0	0
2024-04-18 22:54:32			0	33674	0	0	0	16919	15580	156038	27530	950900	37348	106129	0	0	8152	776559	0	0
2024-04-18 22:55:32			0	33684	0	0	0	16924	15560	156094	27393	950902	37347	106131	0	0	8152	776136	0	0
2024-04-18 22:56:32			0	33691	0	0	0	16924	15560	156034	27507	950875	37347	106131	0	0	8153	775782	0	0
2024-04-18 22:57:32			0	33673	0	0	0	16914	15570	156142	27331	950910	37337	106127	0	0	8152	776651	0	0
2024-04-18 22:58:32			0	33664	0	0	0	16903	15560	156062	27322	950788	37346	106123	0	0	8151	777148	0	0
2024-04-18 22:59:32			0	33677	0	0	0	16903	15560	156018	27798	950796	37347	106123	0	0	8152	776490	0	0
2024-04-18 23:00:32			0	33678	0	0	0	16893	15560	155986	27371	950875	37358	106119	0	0	8152	776440	0	0
2024-04-18 23:01:32			0	33678	0	0	0	16906	15560	155926	27447	950875	37336	106124	0	0	8152	776440	0	0
2024-04-18 23:02:32			0	33678	0	0	0	16919	15550	155950	27497	950912	37357	106129	0	0	8152	776481	0	0
2024-04-18 23:03:32			0	33679	0	0	0	16927	15550	156018	27287	950859	37335	106132	0	0	8152	776431	0	0
2024-04-18 23:04:32			0	33696	0	0	0	16919	15570	155946	27182	950883	37337	106129	0	0	8153	775488	0	0
2024-04-18 23:05:32			0	33703	0	0	0	16929	15550	155850	27571	950877	37357	106133	0	0	8153	775217	0	0
2024-04-18 23:06:32			0	33719	0	0	0	16911	15560	155898	27493	950849	37358	106126	0	0	8155	774367	0	0
2024-04-18 23:07:32			0	33709	0	0	0	16924	15560	155870	27505	950894	37346	106131	0	0	8154	774872	0	0
2024-04-18 23:08:32			0	33725	0	0	0	16922	15570	155814	27656	950883	37359	106130	0	0	8155	774023	0	0
2024-04-18 23:09:32			0	33717	0	0	0	16935	15570	155682	27630	950883	37348	106135	0	0	8154	774427	0	0
2024-04-18 23:10:32			0	33729	0	0	0	16940	15570	155662	27621	950892	37370	106137	0	0	8155	773821	0	0
2024-04-18 23:11:32			0	33749	0	0	0	16950	15580	155650	27711	950900	37348	106141	0	0	8156	772771	0	0
2024-04-18 23:12:32			0	33739	0	0	0	16940	15580	155566	27296	950952	37348	106137	0	0	8155	773275	0	0
2024-04-18 23:13:32			0	33777	0	0	0	16927	15580	155562	27566	950847	37359	106132	0	0	8158	771360	0	0
2024-04-18 23:14:32			0	33787	0	0	0	16922	15570	155574	27331	950883	37337	106130	0	0	8158	770899	0	0
2024-04-18 23:15:32			0	33803	0	0	0	16927	15570	155378	27402	950883	37348	106132	0	0	8159	770094	0	0
2024-04-18 23:16:32			0	33818	0	0	0	16927	15580	155398	27888	950952	37348	106132	0	0	8160	769299	0	0
2024-04-18 23:17:32			0	33821	0	0	0	16935	15600	155322	27434	951003	37361	106135	0	0	8160	769065	0	0
2024-04-18 23:18:32			0	33807	0	0	0	16940	15580	155314	27345	950979	37359	106137	0	0	8159	769851	0	0
2024-04-18 23:19:32			0	33835	0	0	0	16935	15580	155178	27594	950873	37370	106135	0	0	8161	768445	0	0
2024-04-18 23:20:32			0	33838	0	0	0	16942	15580	155194	27286	950952	37348	106138	0	0	8161	768295	0	0
2024-04-18 23:21:32			0	33837	0	0	0	16948	15570	155170	27547	950944	37370	106140	0	0	8161	768386	0	0
2024-04-18 23:22:32			0	33848	0	0	0	16953	15570	155122	27251	950910	37348	106142	0	0	8161	767835	0	0
2024-04-18 23:23:32			0	33871	0	0	0	16953	15590	154958	27286	950942	37361	106142	0	0	8163	766599	0	0
2024-04-18 23:24:32			0	33875	0	0	0	16955	15580	154926	27346	950926	37370	106143	0	0	8163	766440	0	0
2024-04-18 23:25:32			0	33881	0	0	0	16963	15600	155026	27481	951011	37361	106146	0	0	8163	766057	0	0
2024-04-18 23:26:32			0	33865	0	0	0	16958	15580	154974	27249	951013	37360	106144	0	0	8162	766941	0	0
2024-04-18 23:27:32			0	33900	0	0	0	16958	15600	154882	27395	951011	37373	106144	0	0	8165	765107	0	0
2024-04-18 23:28:32			0	33929	0	0	0	16974	15610	154778	27455	951020	37361	106150	0	0	8166	763616	0	0
2024-04-18 23:29:32			0	33896	0	0	0	16979	15610	154958	27227	951080	37362	106152	0	0	8164	765266	0	0
2024-04-18 23:30:32			0	33910	0	0	0	16979	15610	154754	27078	951046	37361	106152	0	0	8165	764566	0	0
2024-04-18 23:31:32			0	33914	0	0	0	16971	15610	154658	27246	951072	37361	106149	0	0	8165	764366	0	0
2024-04-18 23:32:32			0	33926	0	0	0	16976	15610	154702	27483	951080	37373	106151	0	0	8166	763766	0	0
2024-04-18 23:33:32			0	33919	0	0	0	16966	15610	154602	27279	951020	37361	106147	0	0	8166	764116	0	0
2024-04-18 23:34:32			0	33956	0	0	0	16968	15610	154602	27384	951107	37362	106148	0	0	8168	762269	0	0
2024-04-18 23:35:32			0	33945	0	0	0	16974	15600	154622	27474	951064	37361	106150	0	0	8167	762859	0	0
2024-04-18 23:36:32			0	33973	0	0	0	16966	15620	154474	27111	951088	37352	106147	0	0	8169	761381	0	0
2024-04-18 23:37:32			0	33989	0	0	0	16984	15620	154442	27242	951088	37363	106154	0	0	8169	760585	0	0
2024-04-18 23:38:32			0	33971	0	0	0	16986	15620	154394	27261	951062	37374	106155	0	0	8168	761481	0	0
2024-04-18 23:39:32			0	33995	0	0	0	16994	15610	154378	27067	951107	37362	106158	0	0	8170	760327	0	0
2024-04-18 23:40:32			0	33993	0	0	0	16997	15620	154338	27027	951123	37363	106159	0	0	8169	760385	0	0
2024-04-18 23:41:32			0	33999	0	0	0	16997	15640	154330	27263	951147	37375	106159	0	0	8170	760005	0	0
2024-04-18 23:42:32			0	33993	0	0	0	17005	15630	154354	27046	951192	37364	106162	0	0	8169	760345	0	0
2024-04-18 23:43:32			0	34008	0	0	0	17028	15640	154294	27157	951226	37354	106171	0	0	8170	759558	0	0
2024-04-18 23:44:32			0	34028	0	0	0	17023	15640	154234	27317	951200	37354	106169	0	0	8171	758564	0	0
2024-04-18 23:45:32			0	34023	0	0	0	17025	15650	154206	27293	951277	37387	106170	0	0	8171	758771	0	0
2024-04-18 23:46:32			0	34037	0	0	0	17031	15650	154126	26974	951216	37365	106172	0	0	8172	758076	0	0
2024-04-18 23:47:32			0	34066	0	0	0	17041	15660	154078	27315	951293	37377	106176	0	0	8173	756597	0	0
2024-04-18 23:48:32			0	34063	0	0	0	17031	15660	154026	27175	951320	37377	106172	0	0	8173	756746	0	0
2024-04-18 23:49:32			0	34058	0	0	0	17015	15660	153958	26837	951293	37377	106166	0	0	8173	756994	0	0
2024-04-18 23:50:32			0	34065	0	0	0	17015	15660	153974	27346	951232	37366	106166	0	0	8173	756647	0	0
2024-04-18 23:51:32			0	34089	0	0	0	17018	15660	153790	26913	951206	37366	106167	0	0	8175	755458	0	0
2024-04-18 23:52:32			0	34084	0	0	0	17015	15670	153798	27216	951275	37377	106166	0	0	8175	755664	0	0
2024-04-18 23:53:32			0	34083	0	0	0	17038	15660	153854	27156	951311	37366	106175	0	0	8174	755755	0	0
2024-04-18 23:54:32			0	34119	0	0	0	17028	15670	153806	27229	951309	37377	106171	0	0	8176	753933	0	0
2024-04-18 23:55:32			0	34110	0	0	0	17031	15670	153662	27196	951336	37367	106172	0	0	8176	754378	0	0
2024-04-18 23:56:32			0	34134	0	0	0	17025	15670	153650	26934	951354	37355	106170	0	0	8177	753192	0	0
2024-04-18 23:57:32			0	34119	0	0	0	17031	15670	153566	27194	951362	37367	106172	0	0	8176	753933	0	0
2024-04-18 23:58:32			0	34137	0	0	0	17028	15670	153642	27455	951283	37367	106171	0	0	8177	753044	0	0
2024-04-18 23:59:32			0	34158	0	0	0	17038	15680	153562	26899	951344	37378	106175	0	0	8179	751967	0	0
2024-04-19 00:00:32			0	34167	0	0	0	17038	15670	153438	27386	951388	37356	106175	0	0	8179	751564	0	0
2024-04-19 00:01:32			0	34174	0	0	0	17028	15670	153482	27251	951275	37366	106171	0	0	8180	751219	0	0
2024-04-19 00:02:32			0	34174	0	0	0	17031	15680	153302	27393	951318	37378	106172	0	0	8180	751178	0	0
2024-04-19 00:03:32			0	34197	0	0	0	17010	15680	153310	27208	951344	37368	106164	0	0	8181	750045	0	0
2024-04-19 00:04:32			0	34196	0	0	0	17018	15680	153246	27187	951344	37368	106167	0	0	8181	750095	0	0
2024-04-19 00:05:32			0	34203	0	0	0	17010	15680	153286	27145	951318	37378	106164	0	0	8182	749750	0	0
2024-04-19 00:06:32			0	34212	0	0	0	17007	15680	153206	27440	951344	37368	106163	0	0	8182	749307	0	0
2024-04-19 00:07:32			0	34215	0	0	0	17010	15670	153230	27445	951283	37367	106164	0	0	8182	749200	0	0
2024-04-19 00:08:32			0	34219	0	0	0	17007	15670	153234	27130	951257	37345	106163	0	0	8183	749003	0	0
2024-04-19 00:09:32			0	34235	0	0	0	17010	15680	153202	27067	951265	37378	106164	0	0	8184	748176	0	0
2024-04-19 00:10:32			0	34218	0	0	0	17015	15680	153254	27424	951291	37368	106166	0	0	8182	749012	0	0
2024-04-19 00:11:32			0	34226	0	0	0	17018	15680	153182	27199	951344	37368	106167	0	0	8183	748619	0	0
2024-04-19 00:12:32			0	34215	0	0	0	17033	15670	153138	27320	951362	37377	106173	0	0	8182	749200	0	0
2024-04-19 00:13:32			0	34253	0	0	0	17033	15670	153082	27022	951301	37377	106173	0	0	8184	747333	0	0
2024-04-19 00:14:32			0	34237	0	0	0	17025	15680	153162	27163	951318	37368	106170	0	0	8183	748078	0	0
2024-04-19 00:15:32			0	34254	0	0	0	17023	15670	153122	26951	951309	37356	106169	0	0	8184	747284	0	0
2024-04-19 00:16:32			0	34241	0	0	0	17028	15680	153122	27019	951344	37378	106171	0	0	8184	747882	0	0
2024-04-19 00:17:32			0	34225	0	0	0	17020	15670	153134	27163	951283	37377	106168	0	0	8183	748708	0	0
2024-04-19 00:18:32			0	34223	0	0	0	17020	15660	153110	27301	951267	37366	106168	0	0	8183	748847	0	0
2024-04-19 00:19:32			0	34246	0	0	0	17018	15670	153014	27180	951328	37366	106167	0	0	8184	747677	0	0
2024-04-19 00:20:32			0	34248	0	0	0	17025	15670	153138	27081	951354	37366	106170	0	0	8184	747578	0	0
2024-04-19 00:21:32			0	34240	0	0	0	17015	15680	153070	27216	951273	37369	106166	0	0	8184	747931	0	0
2024-04-19 00:22:32			0	34243	0	0	0	17023	15690	153054	27428	951334	37379	106169	0	0	8184	747743	0	0
2024-04-19 00:23:32			0	34249	0	0	0	17015	15670	152938	27479	951309	37377	106166	0	0	8184	747529	0	0
2024-04-19 00:24:32			0	34253	0	0	0	17023	15670	152970	27237	951309	37377	106169	0	0	8184	747333	0	0
2024-04-19 00:25:32			0	34258	0	0	0	17023	15680	153022	27355	951326	37379	106169	0	0	8185	747047	0	0
2024-04-19 00:26:32			0	34240	0	0	0	17012	15680	153062	27333	951326	37369	106165	0	0	8184	747931	0	0
2024-04-19 00:27:32			0	34253	0	0	0	17010	15680	153030	27241	951291	37357	106164	0	0	8185	747293	0	0
2024-04-19 00:28:32			0	34236	0	0	0	17012	15680	152994	27085	951291	37378	106165	0	0	8184	748127	0	0
2024-04-19 00:29:32			0	34243	0	0	0	17012	15680	152982	27209	951318	37378	106165	0	0	8184	747784	0	0
2024-04-19 00:30:32			0	34249	0	0	0	17018	15670	152966	27416	951309	37367	106167	0	0	8184	747529	0	0
2024-04-19 00:31:32			0	34250	0	0	0	17020	15670	153130	27206	951301	37388	106168	0	0	8184	747480	0	0
2024-04-19 00:32:32			0	34259	0	0	0	17007	15680	153018	27511	951265	37357	106163	0	0	8185	746998	0	0
2024-04-19 00:33:32			0	34256	0	0	0	16994	15660	153046	27390	951241	37366	106158	0	0	8185	747226	0	0
2024-04-19 00:34:32			0	34251	0	0	0	16994	15670	153066	27215	951309	37356	106158	0	0	8185	747431	0	0
2024-04-19 00:35:32			0	34248	0	0	0	16997	15670	152994	27204	951249	37355	106159	0	0	8184	747578	0	0
2024-04-19 00:36:32			0	34252	0	0	0	17002	15680	153046	27365	951291	37368	106161	0	0	8185	747342	0	0
2024-04-19 00:37:32			0	34266	0	0	0	17012	15660	153094	27017	951232	37366	106165	0	0	8185	746735	0	0
2024-04-19 00:38:32			0	34275	0	0	0	17007	15670	152978	27133	951275	37366	106163	0	0	8186	746254	0	0
2024-04-19 00:39:32			0	34273	0	0	0	17015	15650	152934	27203	951330	37376	106166	0	0	8185	746432	0	0
2024-04-19 00:40:32			0	34267	0	0	0	17025	15670	152910	27306	951301	37366	106170	0	0	8185	746646	0	0
2024-04-19 00:41:32			0	34268	0	0	0	17028	15670	153022	27225	951362	37367	106171	0	0	8185	746597	0	0
2024-04-19 00:42:32			0	34255	0	0	0	17028	15680	152930	27467	951344	37368	106171	0	0	8184	747194	0	0
2024-04-19 00:43:32			0	34265	0	0	0	17015	15680	153014	27256	951396	37378	106166	0	0	8185	746704	0	0
2024-04-19 00:44:32			0	34254	0	0	0	17025	15680	152978	27523	951370	37368	106170	0	0	8184	747244	0	0
2024-04-19 00:45:32			0	34260	0	0	0	17031	15670	152958	27067	951336	37377	106172	0	0	8185	746989	0	0
2024-04-19 00:46:32			0	34248	0	0	0	17025	15680	152930	27215	951370	37368	106170	0	0	8184	747538	0	0
2024-04-19 00:47:32			0	34265	0	0	0	17015	15670	152950	27036	951309	37389	106166	0	0	8185	746744	0	0
2024-04-19 00:48:32			0	34261	0	0	0	17020	15680	152902	27196	951352	37369	106168	0	0	8185	746900	0	0
2024-04-19 00:49:32			0	34275	0	0	0	17015	15680	152822	27251	951299	37379	106166	0	0	8186	746213	0	0
2024-04-19 00:50:32			0	34258	0	0	0	17018	15680	152930	27445	951344	37368	106167	0	0	8185	747047	0	0
2024-04-19 00:51:32			0	34270	0	0	0	17020	15670	152966	26814	951309	37367	106168	0	0	8185	746499	0	0
2024-04-19 00:52:32			0	34263	0	0	0	17020	15670	152858	27223	951328	37377	106168	0	0	8185	746842	0	0
2024-04-19 00:53:32			0	34288	0	0	0	17028	15670	152830	27072	951328	37377	106171	0	0	8186	745617	0	0
2024-04-19 00:54:32			0	34270	0	0	0	17025	15680	152838	27213	951378	37379	106170	0	0	8185	746459	0	0
2024-04-19 00:55:32			0	34270	0	0	0	17041	15680	152858	26975	951378	37369	106176	0	0	8185	746459	0	0
2024-04-19 00:56:32			0	34276	0	0	0	17036	15680	152894	27241	951326	37379	106174	0	0	8185	746164	0	0
2024-04-19 00:57:32			0	34268	0	0	0	17025	15680	152850	27163	951378	37379	106170	0	0	8185	746557	0	0
2024-04-19 00:58:32			0	34260	0	0	0	17038	15680	152930	27156	951405	37379	106175	0	0	8184	746949	0	0
2024-04-19 00:59:32			0	34256	0	0	0	17036	15680	152886	27327	951396	37378	106174	0	0	8184	747145	0	0
2024-04-19 01:00:32			0	34252	0	0	0	17036	15680	152962	27261	951352	37379	106174	0	0	8184	747342	0	0
2024-04-19 01:01:32			0	34271	0	0	0	17044	15680	152938	27137	951423	37378	106177	0	0	8185	746410	0	0
2024-04-19 01:02:32			0	34252	0	0	0	17041	15690	152826	27343	951360	37369	106176	0	0	8184	747302	0	0
2024-04-19 01:03:32			0	34255	0	0	0	17038	15680	153010	27362	951326	37369	106175	0	0	8184	747194	0	0
2024-04-19 01:04:32			0	34243	0	0	0	17033	15690	152974	27147	951360	37369	106173	0	0	8184	747743	0	0
2024-04-19 01:05:32			0	34253	0	0	0	17033	15680	152966	27100	951378	37390	106173	0	0	8184	747293	0	0
2024-04-19 01:06:32			0	34232	0	0	0	17033	15680	153038	26934	951299	37390	106173	0	0	8183	748324	0	0
2024-04-19 01:07:32			0	34244	0	0	0	17038	15690	153054	26873	951360	37379	106175	0	0	8184	747694	0	0
2024-04-19 01:08:32			0	34246	0	0	0	17031	15680	152998	26932	951405	37369	106172	0	0	8184	747636	0	0
2024-04-19 01:09:32			0	34225	0	0	0	17031	15700	153158	27495	951376	37370	106172	0	0	8183	748587	0	0
2024-04-19 01:10:32			0	34224	0	0	0	17036	15680	153106	27126	951352	37390	106174	0	0	8182	748717	0	0
2024-04-19 01:11:32			0	34227	0	0	0	17038	15680	153078	27230	951405	37390	106175	0	0	8183	748570	0	0
2024-04-19 01:12:32			0	34214	0	0	0	17041	15680	153122	26993	951378	37379	106176	0	0	8182	749209	0	0
2024-04-19 01:13:32			0	34190	0	0	0	17028	15680	153194	26885	951370	37378	106171	0	0	8181	750390	0	0
2024-04-19 01:14:32			0	34197	0	0	0	17033	15690	153146	27144	951413	37369	106173	0	0	8181	750005	0	0
2024-04-19 01:15:32			0	34195	0	0	0	17023	15680	153206	27157	951352	37369	106169	0	0	8181	750144	0	0
2024-04-19 01:16:32			0	34183	0	0	0	17031	15680	153226	27206	951431	37369	106172	0	0	8180	750735	0	0
2024-04-19 01:17:32			0	34170	0	0	0	17023	15680	153310	27206	951344	37378	106169	0	0	8180	751375	0	0
2024-04-19 01:18:32			0	34176	0	0	0	17025	15680	153314	26977	951326	37379	106170	0	0	8180	751079	0	0
2024-04-19 01:19:32			0	34162	0	0	0	17023	15680	153450	27104	951378	37379	106169	0	0	8179	751770	0	0
2024-04-19 01:20:32			0	34141	0	0	0	17025	15690	153474	27294	951360	37390	106170	0	0	8178	752765	0	0
2024-04-19 01:21:32			0	34133	0	0	0	17025	15680	153458	26800	951344	37368	106170	0	0	8177	753201	0	0
2024-04-19 01:22:32			0	34143	0	0	0	17033	15680	153482	26741	951370	37389	106173	0	0	8178	752707	0	0
2024-04-19 01:23:32			0	34127	0	0	0	17023	15690	153450	26857	951360	37379	106169	0	0	8177	753457	0	0
2024-04-19 01:24:32			0	34128	0	0	0	17028	15680	153486	26781	951352	37369	106171	0	0	8177	753448	0	0
2024-04-19 01:25:32			0	34115	0	0	0	17018	15680	153466	27135	951344	37378	106167	0	0	8176	754090	0	0
2024-04-19 01:26:32			0	34132	0	0	0	17010	15680	153494	26856	951238	37378	106164	0	0	8178	753250	0	0
2024-04-19 01:27:32			0	34102	0	0	0	17010	15690	153550	27358	951334	37379	106164	0	0	8176	754692	0	0
2024-04-19 01:28:32			0	34109	0	0	0	17018	15680	153522	27306	951344	37368	106167	0	0	8176	754387	0	0
2024-04-19 01:29:32			0	34106	0	0	0	17020	15680	153450	26996	951396	37389	106168	0	0	8176	754535	0	0
2024-04-19 01:30:32			0	34087	0	0	0	17015	15670	153542	26863	951257	37389	106166	0	0	8175	755516	0	0
2024-04-19 01:31:32			0	34089	0	0	0	17015	15680	153558	26856	951370	37378	106166	0	0	8175	755376	0	0
2024-04-19 01:32:32			0	34091	0	0	0	17015	15680	153578	26939	951378	37379	106166	0	0	8175	755277	0	0
2024-04-19 01:33:32			0	34070	0	0	0	17002	15670	153694	27140	951354	37388	106161	0	0	8174	756358	0	0
2024-04-19 01:34:32			0	34087	0	0	0	17015	15680	153738	27098	951344	37378	106166	0	0	8175	755475	0	0
2024-04-19 01:35:32			0	34071	0	0	0	17005	15670	153686	27407	951309	37377	106162	0	0	8174	756308	0	0
2024-04-19 01:36:32			0	34068	0	0	0	16999	15680	153750	27189	951344	37368	106160	0	0	8174	756416	0	0
2024-04-19 01:37:32			0	34057	0	0	0	17005	15660	153802	27209	951320	37377	106162	0	0	8173	757043	0	0
2024-04-19 01:38:32			0	34042	0	0	0	17015	15670	153762	27493	951328	37377	106166	0	0	8172	757746	0	0
2024-04-19 01:39:32			0	34051	0	0	0	17005	15670	153854	27154	951362	37377	106162	0	0	8173	757300	0	0
2024-04-19 01:40:32			0	34070	0	0	0	17018	15670	153910	27244	951336	37377	106167	0	0	8174	756358	0	0
2024-04-19 01:41:32			0	34046	0	0	0	17012	15670	153886	26882	951309	37377	106165	0	0	8172	757548	0	0
2024-04-19 01:42:32			0	34038	0	0	0	17012	15680	153918	27097	951352	37379	106165	0	0	8172	757904	0	0
2024-04-19 01:43:32			0	34033	0	0	0	17012	15670	153970	27398	951301	37377	106165	0	0	8172	758193	0	0
2024-04-19 01:44:32			0	34041	0	0	0	17010	15670	154022	27251	951362	37367	106164	0	0	8172	757796	0	0
2024-04-19 01:45:32			0	34039	0	0	0	17007	15660	153862	27367	951293	37377	106163	0	0	8172	757936	0	0
2024-04-19 01:46:32			0	34014	0	0	0	17025	15680	154074	27609	951344	37378	106170	0	0	8170	759096	0	0
2024-04-19 01:47:32			0	34004	0	0	0	17028	15670	154006	26977	951336	37377	106171	0	0	8170	759634	0	0
2024-04-19 01:48:32			0	34023	0	0	0	17020	15670	153950	27350	951301	37377	106168	0	0	8171	758690	0	0
2024-04-19 01:49:32			0	34016	0	0	0	17007	15670	153950	27701	951362	37377	106163	0	0	8171	759037	0	0
2024-04-19 01:50:32			0	34005	0	0	0	17007	15680	154038	27459	951318	37378	106163	0	0	8170	759543	0	0
2024-04-19 01:51:32			0	34009	0	0	0	17007	15670	154086	27326	951328	37366	106163	0	0	8170	759385	0	0
2024-04-19 01:52:32			0	33986	0	0	0	16992	15650	154026	27324	951251	37376	106157	0	0	8169	760611	0	0
2024-04-19 01:53:32			0	33983	0	0	0	16997	15660	154130	27346	951241	37388	106159	0	0	8169	760719	0	0
2024-04-19 01:54:32			0	33982	0	0	0	16994	15670	154082	27336	951275	37388	106158	0	0	8169	760728	0	0
2024-04-19 01:55:32			0	33974	0	0	0	16986	15660	154202	27098	951285	37388	106155	0	0	8169	761168	0	0
2024-04-19 01:56:32			0	33964	0	0	0	17007	15660	154154	27590	951338	37388	106163	0	0	8168	761665	0	0
2024-04-19 01:57:32			0	33946	0	0	0	16994	15650	154282	27329	951303	37376	106158	0	0	8167	762604	0	0
2024-04-19 01:58:32			0	33944	0	0	0	16994	15650	154202	27291	951269	37375	106158	0	0	8167	762704	0	0
2024-04-19 01:59:32			0	33949	0	0	0	16989	15670	154266	27654	951222	37377	106156	0	0	8167	762372	0	0
2024-04-19 02:00:32			0	33936	0	0	0	16992	15650	154366	27365	951243	37386	106157	0	0	8166	763103	0	0
2024-04-19 02:01:32			0	33930	0	0	0	16984	15650	154418	27396	951224	37376	106154	0	0	8166	763402	0	0
2024-04-19 02:02:32			0	33930	0	0	0	16989	15660	154438	27412	951232	37366	106156	0	0	8166	763361	0	0
2024-04-19 02:03:32			0	33920	0	0	0	16986	15660	154446	27459	951285	37366	106155	0	0	8166	763860	0	0
2024-04-19 02:04:32			0	33922	0	0	0	16992	15650	154354	27727	951269	37397	106157	0	0	8166	763801	0	0
2024-04-19 02:05:32			0	33928	0	0	0	16999	15650	154318	27324	951269	37365	106160	0	0	8166	763502	0	0
2024-04-19 02:06:32			0	33922	0	0	0	16984	15650	154394	27505	951303	37376	106154	0	0	8166	763801	0	0
2024-04-19 02:07:32			0	33902	0	0	0	16984	15650	154478	27571	951190	37375	106154	0	0	8164	764801	0	0
2024-04-19 02:08:32			0	33894	0	0	0	16986	15630	154434	27500	951192	37385	106155	0	0	8164	765283	0	0
2024-04-19 02:09:32			0	33907	0	0	0	16979	15650	154486	27326	951269	37386	106152	0	0	8165	764551	0	0
2024-04-19 02:10:32			0	33886	0	0	0	16974	15650	154574	27597	951216	37365	106150	0	0	8164	765601	0	0
2024-04-19 02:11:32			0	33889	0	0	0	16976	15640	154510	27274	951208	37375	106151	0	0	8164	765492	0	0
2024-04-19 02:12:32			0	33873	0	0	0	16974	15640	154638	27355	951226	37365	106150	0	0	8163	766293	0	0
2024-04-19 02:13:32			0	33890	0	0	0	16963	15640	154654	27659	951208	37386	106146	0	0	8164	765442	0	0
2024-04-19 02:14:32			0	33873	0	0	0	16971	15640	154582	27369	951208	37386	106149	0	0	8163	766293	0	0
2024-04-19 02:15:32			0	33854	0	0	0	16963	15630	154634	27490	951166	37375	106146	0	0	8162	767286	0	0
2024-04-19 02:16:32			0	33865	0	0	0	16966	15630	154618	27291	951131	37363	106147	0	0	8163	766735	0	0
2024-04-19 02:17:32			0	33877	0	0	0	16966	15620	154638	27334	951175	37384	106147	0	0	8163	766175	0	0
2024-04-19 02:18:32			0	33847	0	0	0	16974	15630	154682	27405	951158	37374	106150	0	0	8161	767637	0	0
2024-04-19 02:19:32			0	33873	0	0	0	16968	15630	154758	27301	951158	37374	106148	0	0	8163	766334	0	0
2024-04-19 02:20:32			0	33843	0	0	0	16961	15630	154850	27409	951184	37384	106145	0	0	8161	767837	0	0
2024-04-19 02:21:32			0	33852	0	0	0	16948	15630	154762	27248	951158	37374	106140	0	0	8162	767386	0	0
2024-04-19 02:22:32			0	33835	0	0	0	16948	15630	154742	27386	951079	37341	106140	0	0	8161	768239	0	0
2024-04-19 02:23:32			0	33857	0	0	0	16948	15620	154674	26958	951167	37374	106140	0	0	8162	767177	0	0
2024-04-19 02:24:32			0	33846	0	0	0	16948	15610	154794	27400	951133	37373	106140	0	0	8162	767769	0	0
2024-04-19 02:25:32			0	33836	0	0	0	16953	15610	154714	27268	951159	37384	106142	0	0	8161	768271	0	0
2024-04-19 02:26:32			0	33844	0	0	0	16958	15620	154750	27606	951088	37384	106144	0	0	8161	767828	0	0
2024-04-19 02:27:32			0	33824	0	0	0	16955	15610	154858	27069	951107	37384	106143	0	0	8160	768873	0	0
2024-04-19 02:28:32			0	33834	0	0	0	16953	15610	154846	27464	951133	37373	106142	0	0	8161	768371	0	0
2024-04-19 02:29:32			0	33827	0	0	0	16953	15610	154826	27409	951072	37373	106142	0	0	8160	768723	0	0
2024-04-19 02:30:32			0	33835	0	0	0	16948	15620	154814	27692	951141	37384	106140	0	0	8161	768280	0	0
2024-04-19 02:31:32			0	33829	0	0	0	16948	15620	154730	27286	951036	37363	106140	0	0	8161	768581	0	0
2024-04-19 02:32:32			0	33829	0	0	0	16955	15620	154842	27317	951141	37363	106143	0	0	8161	768581	0	0
2024-04-19 02:33:32			0	33803	0	0	0	16942	15610	154894	27267	951046	37373	106138	0	0	8159	769928	0	0
2024-04-19 02:34:32			0	33817	0	0	0	16942	15600	154846	27433	951090	37383	106138	0	0	8160	769266	0	0
2024-04-19 02:35:32			0	33821	0	0	0	16948	15600	154826	27357	951064	37373	106140	0	0	8160	769065	0	0
2024-04-19 02:36:32			0	33808	0	0	0	16950	15600	154866	27383	951038	37361	106141	0	0	8159	769719	0	0
2024-04-19 02:37:32			0	33804	0	0	0	16948	15610	154830	27282	951046	37383	106140	0	0	8159	769878	0	0
2024-04-19 02:38:32			0	33802	0	0	0	16935	15610	154842	27407	951020	37361	106135	0	0	8159	769979	0	0
2024-04-19 02:39:32			0	33817	0	0	0	16935	15600	154902	27300	951064	37361	106135	0	0	8160	769266	0	0
2024-04-19 02:40:32			0	33819	0	0	0	16929	15600	154886	27145	951056	37382	106133	0	0	8160	769166	0	0
2024-04-19 02:41:32			0	33802	0	0	0	16940	15600	154914	27260	951030	37372	106137	0	0	8159	770020	0	0
2024-04-19 02:42:32			0	33814	0	0	0	16937	15600	154918	27209	951003	37372	106136	0	0	8160	769417	0	0
2024-04-19 02:43:32			0	33816	0	0	0	16942	15600	154946	27383	951082	37372	106138	0	0	8160	769316	0	0
2024-04-19 02:44:32			0	33794	0	0	0	16942	15590	154978	27417	950995	37361	106138	0	0	8159	770464	0	0
2024-04-19 02:45:32			0	33817	0	0	0	16955	15580	155002	27313	951039	37371	106143	0	0	8160	769349	0	0
2024-04-19 02:46:32			0	33796	0	0	0	16974	15600	154914	27322	951135	37382	106150	0	0	8158	770321	0	0
2024-04-19 02:47:32			0	33811	0	0	0	16979	15610	154934	27287	951098	37394	106152	0	0	8159	769526	0	0
2024-04-19 02:48:32			0	33841	0	0	0	16979	15600	154926	27388	951056	37382	106152	0	0	8161	768062	0	0
2024-04-19 02:49:32			0	33829	0	0	0	16976	15610	154882	27424	951125	37373	106151	0	0	8160	768622	0	0
2024-04-19 02:50:32			0	33819	0	0	0	16971	15600	154974	27199	951090	37373	106149	0	0	8160	769166	0	0
2024-04-19 02:51:32			0	33818	0	0	0	16961	15610	154846	27576	951098	37383	106145	0	0	8160	769175	0	0
2024-04-19 02:52:32			0	33854	0	0	0	16953	15590	154802	27367	951074	37372	106142	0	0	8162	767451	0	0
2024-04-19 02:53:32			0	33834	0	0	0	16958	15600	154778	27384	951090	37383	106144	0	0	8161	768413	0	0
2024-04-19 02:54:32			0	33852	0	0	0	16968	15600	154666	27206	951117	37383	106148	0	0	8162	767510	0	0
2024-04-19 02:55:32			0	33861	0	0	0	16981	15600	154590	27203	951169	37373	106153	0	0	8162	767059	0	0
2024-04-19 02:56:32			0	33885	0	0	0	17005	15620	154554	27628	951220	37396	106162	0	0	8163	765775	0	0
2024-04-19 02:57:32			0	33886	0	0	0	17020	15610	154554	27227	951238	37384	106168	0	0	8163	765766	0	0
2024-04-19 02:58:32			0	33899	0	0	0	17041	15630	154518	27282	951297	37385	106176	0	0	8163	765033	0	0
2024-04-19 02:59:32			0	33901	0	0	0	17041	15630	154550	27033	951324	37385	106176	0	0	8163	764933	0	0
2024-04-19 03:00:32			0	33900	0	0	0	17049	15640	154462	27107	951313	37386	106179	0	0	8163	764942	0	0
2024-04-19 03:01:32			0	33898	0	0	0	17057	15650	154398	27409	951322	37375	106182	0	0	8163	765001	0	0
2024-04-19 03:02:32			0	33896	0	0	0	17041	15640	154446	27145	951287	37397	106176	0	0	8163	765142	0	0
2024-04-19 03:03:32			0	33907	0	0	0	17038	15650	154422	27410	951348	37386	106175	0	0	8164	764551	0	0
2024-04-19 03:04:32			0	33908	0	0	0	17041	15640	154498	27229	951313	37386	106176	0	0	8164	764542	0	0
2024-04-19 03:05:32			0	33892	0	0	0	17044	15640	154382	27497	951253	37386	106177	0	0	8163	765342	0	0
2024-04-19 03:06:32			0	33892	0	0	0	17044	15650	154474	27282	951322	37386	106177	0	0	8163	765301	0	0
2024-04-19 03:07:32			0	33902	0	0	0	17023	15650	154422	27020	951269	37386	106169	0	0	8164	764801	0	0
2024-04-19 03:08:32			0	33893	0	0	0	16986	15640	154486	27246	951200	37375	106155	0	0	8164	765292	0	0
2024-04-19 03:09:32			0	33910	0	0	0	16984	15630	154474	27206	951105	37363	106154	0	0	8165	764483	0	0
2024-04-19 03:10:32			0	33890	0	0	0	16971	15630	154426	27128	951113	37396	106149	0	0	8164	765483	0	0
2024-04-19 03:11:32			0	33886	0	0	0	16974	15620	154478	27616	951149	37374	106150	0	0	8164	765725	0	0
2024-04-19 03:12:32			0	33881	0	0	0	16992	15630	154598	27351	951158	37374	106157	0	0	8163	765934	0	0
2024-04-19 03:13:32			0	33879	0	0	0	17007	15630	154558	27173	951158	37374	106163	0	0	8163	766034	0	0
2024-04-19 03:14:32			0	33863	0	0	0	17015	15610	154538	27209	951159	37395	106166	0	0	8161	766918	0	0
2024-04-19 03:15:32			0	33858	0	0	0	17005	15630	154586	27149	951210	37384	106162	0	0	8161	767085	0	0
2024-04-19 03:16:32			0	33862	0	0	0	16950	15610	154582	27369	951028	37362	106141	0	0	8163	766968	0	0
2024-04-19 03:17:32			0	33858	0	0	0	16914	15600	154654	27287	951064	37383	106127	0	0	8163	767209	0	0
2024-04-19 03:18:32			0	33866	0	0	0	16893	15600	154646	27493	950985	37383	106119	0	0	8164	766808	0	0
2024-04-19 03:19:32			0	33864	0	0	0	16864	15580	154566	27428	950987	37371	106108	0	0	8164	766991	0	0
2024-04-19 03:20:32			0	33867	0	0	0	16841	15570	154618	27507	950892	37380	106099	0	0	8164	766882	0	0
2024-04-19 03:21:32			0	33859	0	0	0	16838	15560	154534	27154	950841	37357	106098	0	0	8164	767324	0	0
2024-04-19 03:22:32			0	33882	0	0	0	16841	15560	154602	27372	950841	37357	106099	0	0	8165	766172	0	0
2024-04-19 03:23:32			0	33881	0	0	0	16836	15550	154594	27258	950851	37357	106097	0	0	8165	766263	0	0
2024-04-19 03:24:32			0	33885	0	0	0	16833	15540	154610	27445	950782	37367	106096	0	0	8166	766105	0	0
2024-04-19 03:25:32			0	33891	0	0	0	16825	15530	154498	27255	950748	37345	106093	0	0	8166	765845	0	0
2024-04-19 03:26:32			0	33923	0	0	0	16823	15520	154386	27431	950732	37366	106092	0	0	8168	764286	0	0
2024-04-19 03:27:32			0	33945	0	0	0	16820	15520	154202	27748	950732	37355	106091	0	0	8169	763188	0	0
2024-04-19 03:28:32			0	33981	0	0	0	16794	15500	154142	27331	950647	37353	106081	0	0	8172	761474	0	0
2024-04-19 03:29:32			0	33976	0	0	0	16797	15500	154166	27481	950673	37364	106082	0	0	8171	761723	0	0
2024-04-19 03:30:32			0	33971	0	0	0	16802	15500	154298	27573	950612	37364	106084	0	0	8171	761973	0	0
2024-04-19 03:31:32			0	33952	0	0	0	16792	15500	154306	27310	950612	37352	106080	0	0	8170	762920	0	0
2024-04-19 03:32:32			0	33894	0	0	0	16774	15490	154514	27225	950569	37352	106073	0	0	8167	765860	0	0
2024-04-19 03:33:32			0	33879	0	0	0	16776	15480	154682	27422	950640	37362	106074	0	0	8166	766652	0	0
2024-04-19 03:34:32			0	33858	0	0	0	16781	15480	154714	27469	950579	37351	106076	0	0	8165	767705	0	0
2024-04-19 03:35:32			0	33829	0	0	0	16776	15490	154858	27282	950577	37364	106074	0	0	8163	769119	0	0
2024-04-19 03:36:32			0	33836	0	0	0	16779	15470	154954	27052	950590	37350	106075	0	0	8163	768850	0	0
2024-04-19 03:37:32			0	33794	0	0	0	16784	15470	155034	27307	950590	37350	106077	0	0	8161	770961	0	0
2024-04-19 03:38:32			0	33784	0	0	0	16774	15460	155134	27552	950555	37349	106073	0	0	8160	771506	0	0
2024-04-19 03:39:32			0	33787	0	0	0	16781	15460	155286	27346	950600	37360	106076	0	0	8160	771355	0	0
2024-04-19 03:40:32			0	33761	0	0	0	16771	15460	155310	27517	950521	37360	106072	0	0	8159	772665	0	0
2024-04-19 03:41:32			0	33766	0	0	0	16776	15450	155274	27453	950513	37337	106074	0	0	8159	772454	0	0
2024-04-19 03:42:32			0	33749	0	0	0	16774	15460	155318	27310	950468	37360	106073	0	0	8158	773270	0	0
2024-04-19 03:43:32			0	33715	0	0	0	16763	15460	155350	27400	950494	37349	106069	0	0	8156	774986	0	0
2024-04-19 03:44:32			0	33708	0	0	0	16766	15450	155338	27390	950478	37337	106070	0	0	8156	775382	0	0
2024-04-19 03:45:32			0	33718	0	0	0	16761	15450	155438	27268	950478	37359	106068	0	0	8157	774876	0	0
2024-04-19 03:46:32			0	33717	0	0	0	16771	15450	155542	27407	950505	37348	106072	0	0	8156	774927	0	0
2024-04-19 03:47:32			0	33699	0	0	0	16766	15440	155506	27346	950523	37359	106070	0	0	8155	775878	0	0
2024-04-19 03:48:32			0	33710	0	0	0	16779	15440	155490	27516	950523	37336	106075	0	0	8156	775322	0	0
2024-04-19 03:49:32			0	33687	0	0	0	16779	15450	155442	27493	950452	37359	106075	0	0	8154	776444	0	0
2024-04-19 03:50:32			0	33695	0	0	0	16776	15450	155554	27180	950486	37348	106074	0	0	8155	776039	0	0
2024-04-19 03:51:32			0	33696	0	0	0	16771	15440	155554	27383	950523	37347	106072	0	0	8155	776030	0	0
2024-04-19 03:52:32			0	33674	0	0	0	16774	15440	155614	27230	950462	37359	106073	0	0	8154	777144	0	0
2024-04-19 03:53:32			0	33682	0	0	0	16774	15430	155606	27358	950525	37347	106073	0	0	8154	776781	0	0
2024-04-19 03:54:32			0	33676	0	0	0	16774	15430	155642	27121	950480	37358	106073	0	0	8154	777084	0	0
2024-04-19 03:55:32			0	33678	0	0	0	16771	15440	155682	27362	950488	37347	106072	0	0	8154	776941	0	0
2024-04-19 03:56:32			0	33685	0	0	0	16776	15430	155614	27189	950507	37358	106074	0	0	8154	776629	0	0
2024-04-19 03:57:32			0	33665	0	0	0	16776	15440	155678	27180	950462	37347	106074	0	0	8153	777600	0	0
2024-04-19 03:58:32			0	33680	0	0	0	16768	15430	155646	27086	950472	37358	106071	0	0	8154	776882	0	0
2024-04-19 03:59:32			0	33666	0	0	0	16761	15430	155590	27225	950454	37369	106068	0	0	8153	777591	0	0
2024-04-19 04:00:32			0	33693	0	0	0	16758	15420	155602	27026	950464	37346	106067	0	0	8155	776266	0	0
2024-04-19 04:01:32			0	33673	0	0	0	16761	15430	155638	27473	950428	37347	106068	0	0	8154	777236	0	0
2024-04-19 04:02:32			0	33674	0	0	0	16748	15430	155642	27559	950420	37347	106063	0	0	8154	777186	0	0
2024-04-19 04:03:32			0	33677	0	0	0	16735	15410	155606	27171	950316	37345	106058	0	0	8154	777117	0	0
2024-04-19 04:04:32			0	33659	0	0	0	16735	15410	155690	27046	950316	37345	106058	0	0	8153	778029	0	0
2024-04-19 04:05:32			0	33670	0	0	0	16740	15410	155638	27079	950395	37345	106060	0	0	8154	777472	0	0
2024-04-19 04:06:32			0	33674	0	0	0	16732	15410	155690	27422	950316	37356	106057	0	0	8154	777269	0	0
2024-04-19 04:07:32			0	33671	0	0	0	16729	15410	155794	27164	950361	37356	106056	0	0	8154	777421	0	0
2024-04-19 04:08:32			0	33673	0	0	0	16740	15410	155730	27317	950335	37345	106060	0	0	8154	777320	0	0
2024-04-19 04:09:32			0	33674	0	0	0	16729	15410	155702	27208	950387	37334	106056	0	0	8154	777269	0	0
2024-04-19 04:10:32			0	33674	0	0	0	16729	15390	155798	26850	950310	37343	106056	0	0	8154	777353	0	0
2024-04-19 04:11:32			0	33660	0	0	0	16735	15400	155718	26984	950371	37333	106058	0	0	8153	778020	0	0
2024-04-19 04:12:32			0	33674	0	0	0	16735	15410	155626	26890	950308	37345	106058	0	0	8154	777269	0	0
2024-04-19 04:13:32			0	33683	0	0	0	16732	15400	155706	27215	950318	37333	106057	0	0	8155	776855	0	0
2024-04-19 04:14:32			0	33679	0	0	0	16735	15400	155670	27105	950345	37354	106058	0	0	8154	777058	0	0
2024-04-19 04:15:32			0	33667	0	0	0	16729	15390	155626	27357	950337	37343	106056	0	0	8154	777707	0	0
2024-04-19 04:16:32			0	33691	0	0	0	16732	15390	155714	27083	950276	37354	106057	0	0	8155	776492	0	0
2024-04-19 04:17:32			0	33689	0	0	0	16742	15390	155770	27229	950363	37354	106061	0	0	8155	776593	0	0
2024-04-19 04:18:32			0	33683	0	0	0	16735	15390	155738	27097	950363	37343	106058	0	0	8155	776897	0	0
2024-04-19 04:19:32			0	33683	0	0	0	16732	15400	155682	27176	950318	37366	106057	0	0	8155	776855	0	0
2024-04-19 04:20:32			0	33704	0	0	0	16735	15380	155618	27229	950347	37332	106058	0	0	8156	775876	0	0
2024-04-19 04:21:32			0	33694	0	0	0	16737	15390	155618	26793	950337	37354	106059	0	0	8155	776340	0	0
2024-04-19 04:22:32			0	33708	0	0	0	16763	15390	155698	26934	950415	37354	106069	0	0	8156	775632	0	0
2024-04-19 04:23:32			0	33711	0	0	0	16794	15400	155594	26899	950450	37354	106081	0	0	8155	775439	0	0
2024-04-19 04:24:32			0	33721	0	0	0	16823	15400	155586	27130	950484	37355	106092	0	0	8155	774933	0	0
2024-04-19 04:25:32			0	33712	0	0	0	16864	15420	155594	27156	950596	37378	106108	0	0	8154	775305	0	0
2024-04-19 04:26:32			0	33715	0	0	0	16898	15440	155630	27131	950725	37370	106121	0	0	8154	775070	0	0
2024-04-19 04:27:32			0	33721	0	0	0	16924	15470	155486	26972	950800	37372	106131	0	0	8154	774641	0	0
2024-04-19 04:28:32			0	33730	0	0	0	16953	15480	155454	27244	950869	37383	106142	0	0	8154	774145	0	0
2024-04-19 04:29:32			0	33740	0	0	0	16979	15480	155474	27199	950956	37373	106152	0	0	8154	773641	0	0
2024-04-19 04:30:32			0	33737	0	0	0	16997	15500	155382	26889	950989	37375	106159	0	0	8154	773709	0	0
2024-04-19 04:31:32			0	33753	0	0	0	17015	15510	155394	27339	951005	37386	106166	0	0	8155	772860	0	0
2024-04-19 04:32:32			0	33758	0	0	0	17025	15540	155230	26996	951124	37399	106170	0	0	8155	772483	0	0
2024-04-19 04:33:32			0	33769	0	0	0	17036	15530	155210	27133	951116	37399	106174	0	0	8155	771971	0	0
2024-04-19 04:34:32			0	33769	0	0	0	17038	15550	155166	27289	951201	37390	106175	0	0	8155	771888	0	0
2024-04-19 04:35:32			0	33776	0	0	0	17046	15560	155262	27026	951218	37390	106178	0	0	8156	771494	0	0
2024-04-19 04:36:32			0	33760	0	0	0	17036	15580	155266	27358	951216	37391	106174	0	0	8155	772216	0	0
2024-04-19 04:37:32			0	33763	0	0	0	17007	15590	155274	27511	951232	37393	106163	0	0	8156	772024	0	0
2024-04-19 04:38:32			0	33750	0	0	0	17012	15580	155206	27248	951250	37392	106165	0	0	8155	772720	0	0
2024-04-19 04:39:32			0	33719	0	0	0	17020	15600	155306	27161	951240	37393	106168	0	0	8153	774201	0	0
2024-04-19 04:40:32			0	33717	0	0	0	17018	15600	155366	26916	951301	37383	106167	0	0	8153	774302	0	0
2024-04-19 04:41:32			0	33703	0	0	0	17036	15620	155362	27362	951352	37396	106174	0	0	8152	774925	0	0
2024-04-19 04:42:32			0	33692	0	0	0	17044	15630	155494	27215	951421	37396	106177	0	0	8151	775439	0	0
2024-04-19 04:43:32			0	33676	0	0	0	17051	15640	155538	27291	951437	37386	106180	0	0	8150	776207	0	0
2024-04-19 04:44:32			0	33673	0	0	0	17057	15640	155594	27170	951384	37397	106182	0	0	8150	776358	0	0
2024-04-19 04:45:32			0	33661	0	0	0	17057	15650	155526	27390	951435	37398	106182	0	0	8149	776924	0	0
2024-04-19 04:46:32			0	33635	0	0	0	17070	15650	155646	27272	951480	37386	106187	0	0	8147	778241	0	0
2024-04-19 04:47:32			0	33639	0	0	0	17062	15660	155670	27301	951443	37399	106184	0	0	8148	777996	0	0
2024-04-19 04:48:32			0	33620	0	0	0	17059	15670	155798	27390	951565	37399	106183	0	0	8147	778918	0	0
2024-04-19 04:49:32			0	33628	0	0	0	17064	15670	155710	27066	951573	37400	106185	0	0	8147	778512	0	0
2024-04-19 04:50:32			0	33622	0	0	0	17067	15670	155638	27196	951546	37411	106186	0	0	8147	778816	0	0
2024-04-19 04:51:32			0	33629	0	0	0	17062	15670	155630	27092	951415	37411	106184	0	0	8147	778461	0	0
2024-04-19 04:52:32			0	33622	0	0	0	17062	15680	155658	27189	951554	37400	106184	0	0	8147	778774	0	0
2024-04-19 04:53:32			0	33620	0	0	0	17041	15670	155706	27531	951494	37400	106176	0	0	8147	778918	0	0
2024-04-19 04:54:32			0	33631	0	0	0	17031	15680	155606	27507	951344	37400	106172	0	0	8148	778318	0	0
2024-04-19 04:55:32			0	33635	0	0	0	17005	15670	155574	27429	951275	37377	106162	0	0	8149	778157	0	0
2024-04-19 04:56:32			0	33638	0	0	0	16986	15650	155466	27237	951303	37387	106155	0	0	8149	778089	0	0
2024-04-19 04:57:32			0	33645	0	0	0	16974	15650	155558	27381	951322	37386	106150	0	0	8150	777734	0	0
2024-04-19 04:58:32			0	33681	0	0	0	16986	15640	155422	27211	951208	37386	106155	0	0	8151	775954	0	0
2024-04-19 04:59:32			0	33653	0	0	0	16979	15640	155450	27112	951261	37375	106152	0	0	8150	777371	0	0
2024-04-19 05:00:32			0	33688	0	0	0	16989	15640	155390	27069	951261	37408	106156	0	0	8152	775600	0	0
2024-04-19 05:01:32			0	33673	0	0	0	16999	15640	155350	27159	951279	37375	106160	0	0	8151	776358	0	0
2024-04-19 05:02:32			0	33707	0	0	0	17005	15640	155286	27338	951332	37408	106162	0	0	8153	774640	0	0
2024-04-19 05:03:32			0	33710	0	0	0	17020	15640	155254	27483	951305	37408	106168	0	0	8153	774488	0	0
2024-04-19 05:04:32			0	33726	0	0	0	17025	15650	155186	27291	951409	37387	106170	0	0	8153	773639	0	0
2024-04-19 05:05:32			0	33735	0	0	0	17025	15660	155070	27218	951496	37410	106170	0	0	8154	773144	0	0
2024-04-19 05:06:32			0	33738	0	0	0	17031	15650	155058	27229	951409	37387	106172	0	0	8154	773034	0	0
2024-04-19 05:07:32			0	33771	0	0	0	17028	15640	154942	26970	951332	37408	106171	0	0	8156	771413	0	0
2024-04-19 05:08:32			0	33788	0	0	0	17025	15650	154902	27445	951401	37397	106170	0	0	8157	770516	0	0
2024-04-19 05:09:32			0	33794	0	0	0	17010	15660	154878	27253	951338	37399	106164	0	0	8158	770173	0	0
2024-04-19 05:10:32			0	33812	0	0	0	17012	15650	154822	27086	951409	37387	106165	0	0	8159	769310	0	0
2024-04-19 05:11:32			0	33809	0	0	0	17005	15650	154726	27512	951409	37398	106162	0	0	8159	769461	0	0
2024-04-19 05:12:32			0	33826	0	0	0	17007	15650	154722	27124	951322	37386	106163	0	0	8160	768607	0	0
2024-04-19 05:13:32			0	33809	0	0	0	17018	15650	154702	27027	951374	37397	106167	0	0	8158	769461	0	0
2024-04-19 05:14:32			0	33836	0	0	0	17015	15660	154670	27133	951417	37388	106166	0	0	8160	768064	0	0
2024-04-19 05:15:32			0	33842	0	0	0	17012	15660	154586	27177	951390	37388	106165	0	0	8161	767763	0	0
2024-04-19 05:16:32			0	33834	0	0	0	17020	15660	154650	27254	951390	37410	106168	0	0	8160	768165	0	0
2024-04-19 05:17:32			0	33832	0	0	0	17015	15650	154642	27086	951409	37387	106166	0	0	8160	768306	0	0
2024-04-19 05:18:32			0	33831	0	0	0	17012	15650	154626	27331	951401	37386	106165	0	0	8160	768356	0	0
2024-04-19 05:19:32			0	33833	0	0	0	17015	15660	154598	27403	951346	37410	106166	0	0	8160	768215	0	0
2024-04-19 05:20:32			0	33839	0	0	0	17007	15660	154714	26994	951443	37399	106163	0	0	8160	767914	0	0
2024-04-19 05:21:32			0	33831	0	0	0	17012	15660	154758	27116	951390	37399	106165	0	0	8160	768315	0	0
2024-04-19 05:22:32			0	33843	0	0	0	17015	15660	154586	27300	951390	37399	106166	0	0	8161	767713	0	0
2024-04-19 05:23:32			0	33832	0	0	0	17010	15660	154526	26967	951417	37399	106164	0	0	8160	768265	0	0
2024-04-19 05:24:32			0	33843	0	0	0	17012	15660	154534	27537	951417	37410	106165	0	0	8161	767713	0	0
2024-04-19 05:25:32			0	33843	0	0	0	16999	15660	154590	27069	951417	37388	106160	0	0	8161	767713	0	0
2024-04-19 05:26:32			0	33839	0	0	0	17007	15660	154550	27194	951390	37399	106163	0	0	8160	767914	0	0
2024-04-19 05:27:32			0	33860	0	0	0	16997	15650	154578	27008	951330	37387	106159	0	0	8162	766903	0	0
2024-04-19 05:28:32			0	33863	0	0	0	16984	15650	154638	27412	951382	37387	106154	0	0	8162	766752	0	0
2024-04-19 05:29:32			0	33869	0	0	0	16999	15650	154454	27355	951382	37387	106160	0	0	8162	766452	0	0
2024-04-19 05:30:32			0	33840	0	0	0	16989	15650	154514	27296	951409	37398	106156	0	0	8161	767905	0	0
2024-04-19 05:31:32			0	33868	0	0	0	16984	15660	154474	27088	951390	37399	106154	0	0	8163	766461	0	0
2024-04-19 05:32:32			0	33868	0	0	0	16976	15660	154582	27370	951390	37388	106151	0	0	8163	766461	0	0
2024-04-19 05:33:32			0	33871	0	0	0	16981	15640	154402	27441	951305	37397	106153	0	0	8163	766393	0	0
2024-04-19 05:34:32			0	33864	0	0	0	16976	15650	154438	27483	951269	37386	106151	0	0	8162	766702	0	0
2024-04-19 05:35:32			0	33866	0	0	0	16986	15650	154378	27291	951348	37386	106155	0	0	8162	766602	0	0
2024-04-19 05:36:32			0	33874	0	0	0	16979	15640	154346	27308	951313	37386	106152	0	0	8163	766243	0	0
2024-04-19 05:37:32			0	33880	0	0	0	16976	15640	154362	27301	951279	37397	106151	0	0	8163	765942	0	0
2024-04-19 05:38:32			0	33878	0	0	0	16984	15640	154382	27362	951332	37397	106154	0	0	8163	766043	0	0
2024-04-19 05:39:32			0	33856	0	0	0	16981	15640	154322	27183	951279	37386	106153	0	0	8162	767144	0	0
2024-04-19 05:40:32			0	33857	0	0	0	16974	15640	154374	27640	951313	37397	106150	0	0	8162	767094	0	0
2024-04-19 05:41:32			0	33878	0	0	0	16986	15640	154374	27663	951279	37386	106155	0	0	8163	766043	0	0
2024-04-19 05:42:32			0	33866	0	0	0	16979	15630	154330	27732	951297	37385	106152	0	0	8162	766685	0	0
2024-04-19 05:43:32			0	33874	0	0	0	16979	15640	154398	27576	951305	37397	106152	0	0	8163	766243	0	0
2024-04-19 05:44:32			0	33868	0	0	0	16984	15630	154406	27479	951297	37385	106154	0	0	8162	766584	0	0
2024-04-19 05:45:32			0	33846	0	0	0	16984	15640	154506	27234	951279	37386	106154	0	0	8161	767645	0	0
2024-04-19 05:46:32			0	33858	0	0	0	16979	15630	154386	27405	951297	37385	106152	0	0	8162	767085	0	0
2024-04-19 05:47:32			0	33865	0	0	0	16974	15640	154390	27855	951332	37386	106150	0	0	8162	766693	0	0
2024-04-19 05:48:32			0	33851	0	0	0	16979	15640	154426	27621	951313	37386	106152	0	0	8162	767395	0	0
2024-04-19 05:49:32			0	33860	0	0	0	16974	15640	154430	27459	951234	37397	106150	0	0	8162	766944	0	0
2024-04-19 05:50:32			0	33852	0	0	0	16974	15630	154382	27706	951245	37396	106150	0	0	8162	767386	0	0
2024-04-19 05:51:32			0	33856	0	0	0	16971	15640	154370	27682	951358	37386	106149	0	0	8162	767144	0	0
2024-04-19 05:52:32			0	33865	0	0	0	16984	15630	154406	27405	951289	37384	106154	0	0	8162	766735	0	0
2024-04-19 05:53:32			0	33861	0	0	0	16974	15630	154346	27242	951376	37396	106150	0	0	8162	766935	0	0
2024-04-19 05:54:32			0	33856	0	0	0	16986	15630	154346	27150	951315	37396	106155	0	0	8162	767186	0	0
2024-04-19 05:55:32			0	33865	0	0	0	16974	15640	154390	27379	951305	37386	106150	0	0	8162	766693	0	0
2024-04-19 05:56:32			0	33895	0	0	0	16979	15620	154466	27514	951281	37396	106152	0	0	8164	765274	0	0
2024-04-19 05:57:32			0	33880	0	0	0	16979	15630	154274	27750	951324	37385	106152	0	0	8163	765984	0	0
2024-04-19 05:58:32			0	33885	0	0	0	16976	15640	154298	27457	951340	37397	106151	0	0	8164	765692	0	0
2024-04-19 05:59:32			0	33886	0	0	0	16984	15640	154322	27208	951358	37397	106154	0	0	8164	765642	0	0
2024-04-19 06:00:32			0	33887	0	0	0	16989	15630	154298	27469	951324	37396	106156	0	0	8163	765633	0	0
2024-04-19 06:01:32			0	33906	0	0	0	16981	15630	154394	27286	951289	37396	106153	0	0	8165	764683	0	0
2024-04-19 06:02:32			0	33913	0	0	0	16981	15630	154222	27460	951315	37396	106153	0	0	8165	764333	0	0
2024-04-19 06:03:32			0	33905	0	0	0	16984	15630	154202	27339	951236	37384	106154	0	0	8165	764733	0	0
2024-04-19 06:04:32			0	33917	0	0	0	16981	15630	154250	27540	951315	37384	106153	0	0	8165	764134	0	0
2024-04-19 06:05:32			0	33941	0	0	0	16976	15620	154158	27102	951281	37384	106151	0	0	8167	762976	0	0
2024-04-19 06:06:32			0	33934	0	0	0	16979	15640	154050	27412	951305	37397	106152	0	0	8166	763244	0	0
2024-04-19 06:07:32			0	33955	0	0	0	16979	15620	154062	27171	951254	37407	106152	0	0	8168	762278	0	0
2024-04-19 06:08:32			0	33962	0	0	0	16963	15630	153970	27118	951324	37396	106146	0	0	8168	761888	0	0
2024-04-19 06:09:32			0	33974	0	0	0	16974	15620	153906	27507	951307	37384	106150	0	0	8169	761331	0	0
2024-04-19 06:10:32			0	33981	0	0	0	16979	15630	153850	27308	951210	37407	106152	0	0	8169	760942	0	0
2024-04-19 06:11:32			0	33996	0	0	0	16974	15620	153826	27403	951281	37384	106150	0	0	8170	760236	0	0
2024-04-19 06:12:32			0	33992	0	0	0	16976	15630	153842	27554	951315	37396	106151	0	0	8170	760394	0	0
2024-04-19 06:13:32			0	34007	0	0	0	16981	15630	153826	27521	951289	37396	106153	0	0	8171	759648	0	0
2024-04-19 06:14:32			0	34009	0	0	0	16976	15620	153714	27185	951281	37396	106151	0	0	8171	759590	0	0
2024-04-19 06:15:32			0	34023	0	0	0	16979	15630	153614	27469	951289	37384	106152	0	0	8172	758853	0	0
2024-04-19 06:16:32			0	34035	0	0	0	16974	15610	153642	27405	951238	37395	106150	0	0	8172	758339	0	0
2024-04-19 06:17:32			0	34028	0	0	0	16976	15620	153574	27187	951281	37396	106151	0	0	8172	758645	0	0
2024-04-19 06:18:32			0	34058	0	0	0	16968	15630	153582	27275	951297	37396	106148	0	0	8174	757116	0	0
2024-04-19 06:19:32			0	34066	0	0	0	16974	15620	153522	27353	951307	37417	106150	0	0	8174	756760	0	0
2024-04-19 06:20:32			0	34062	0	0	0	16968	15620	153518	27376	951299	37407	106148	0	0	8174	756958	0	0
2024-04-19 06:21:32			0	34062	0	0	0	16974	15620	153422	27455	951299	37396	106150	0	0	8174	756958	0	0
2024-04-19 06:22:32			0	34098	0	0	0	16966	15620	153382	27341	951254	37384	106147	0	0	8176	755175	0	0
2024-04-19 06:23:32			0	34107	0	0	0	16968	15620	153262	27320	951273	37384	106148	0	0	8177	754730	0	0
2024-04-19 06:24:32			0	34108	0	0	0	16974	15620	153194	27613	951202	37396	106150	0	0	8176	754680	0	0
2024-04-19 06:25:32			0	34134	0	0	0	16966	15630	153194	27319	951263	37396	106147	0	0	8178	753354	0	0
2024-04-19 06:26:32			0	34125	0	0	0	16958	15620	153154	27547	951254	37396	106144	0	0	8178	753839	0	0
2024-04-19 06:27:32			0	34163	0	0	0	16968	15620	152998	27303	951228	37396	106148	0	0	8180	751963	0	0
2024-04-19 06:28:32			0	34156	0	0	0	16963	15610	153018	27242	951212	37384	106146	0	0	8179	752349	0	0
2024-04-19 06:29:32			0	34142	0	0	0	16961	15610	152938	27393	951230	37394	106145	0	0	8179	753040	0	0
2024-04-19 06:30:32			0	34175	0	0	0	16955	15620	153010	27281	951202	37384	106143	0	0	8181	751372	0	0
2024-04-19 06:31:32			0	34160	0	0	0	16924	15610	152910	27531	951125	37405	106131	0	0	8180	752152	0	0
2024-04-19 06:32:32			0	34186	0	0	0	16927	15600	152910	27234	951117	37405	106132	0	0	8182	750910	0	0
2024-04-19 06:33:32			0	34202	0	0	0	16924	15600	152782	27609	951161	37382	106131	0	0	8183	750122	0	0
2024-04-19 06:34:32			0	34187	0	0	0	16924	15580	152786	27308	951145	37392	106131	0	0	8182	750942	0	0
2024-04-19 06:35:32			0	34211	0	0	0	16929	15580	152690	27263	951066	37381	106133	0	0	8183	749760	0	0
2024-04-19 06:36:32			0	34209	0	0	0	16916	15580	152694	27088	951058	37391	106128	0	0	8183	749858	0	0
2024-04-19 06:37:32			0	34243	0	0	0	16937	15580	152650	27093	951118	37392	106136	0	0	8185	748186	0	0
2024-04-19 06:38:32			0	34232	0	0	0	16942	15570	152626	27542	951155	37380	106138	0	0	8184	748767	0	0
2024-04-19 06:39:32			0	34257	0	0	0	16955	15600	152654	27414	951135	37404	106143	0	0	8185	747418	0	0
2024-04-19 06:40:32			0	34246	0	0	0	16948	15590	152566	27178	951179	37393	106140	0	0	8185	747999	0	0
2024-04-19 06:41:32			0	34226	0	0	0	16961	15590	152554	27206	951100	37382	106145	0	0	8183	748982	0	0
2024-04-19 06:42:32			0	34231	0	0	0	16942	15590	152526	27390	951153	37393	106138	0	0	8184	748736	0	0
2024-04-19 06:43:32			0	34229	0	0	0	16937	15580	152594	27308	951137	37380	106136	0	0	8184	748874	0	0
2024-04-19 06:44:32			0	34227	0	0	0	16924	15580	152614	27661	951066	37392	106131	0	0	8184	748973	0	0
2024-04-19 06:45:32			0	34214	0	0	0	16911	15580	152690	27739	951084	37380	106126	0	0	8184	749612	0	0
2024-04-19 06:46:32			0	34207	0	0	0	16922	15580	152654	27391	951092	37381	106130	0	0	8183	749957	0	0
2024-04-19 06:47:32			0	34242	0	0	0	16929	15580	152638	27443	951110	37391	106133	0	0	8185	748235	0	0
2024-04-19 06:48:32			0	34223	0	0	0	16937	15580	152718	27372	951110	37391	106136	0	0	8184	749170	0	0
2024-04-19 06:49:32			0	34227	0	0	0	16929	15580	152654	27154	951163	37391	106133	0	0	8184	748973	0	0
2024-04-19 06:50:32			0	34205	0	0	0	16929	15580	152686	27346	951118	37392	106133	0	0	8183	750055	0	0
2024-04-19 06:51:32			0	34204	0	0	0	16927	15570	152714	27377	951076	37391	106132	0	0	8183	750145	0	0
2024-04-19 06:52:32			0	34217	0	0	0	16903	15560	152730	27575	951033	37379	106123	0	0	8184	749545	0	0
2024-04-19 06:53:32			0	34194	0	0	0	16883	15560	152802	27679	950902	37379	106115	0	0	8183	750678	0	0
2024-04-19 06:54:32			0	34191	0	0	0	16867	15560	152734	27441	950946	37390	106109	0	0	8183	750826	0	0
2024-04-19 06:55:32			0	34178	0	0	0	16859	15550	152786	27211	950938	37379	106106	0	0	8182	751507	0	0
2024-04-19 06:56:32			0	34185	0	0	0	16846	15540	152870	27351	950888	37377	106101	0	0	8183	751202	0	0
2024-04-19 06:57:32			0	34153	0	0	0	16841	15530	152994	27307	950906	37367	106099	0	0	8181	752821	0	0
2024-04-19 06:58:32			0	34133	0	0	0	16838	15520	152994	27493	950855	37375	106098	0	0	8180	753850	0	0
2024-04-19 06:59:32			0	34120	0	0	0	16831	15520	153158	27559	950803	37386	106095	0	0	8179	754493	0	0
2024-04-19 07:00:32			0	34112	0	0	0	16836	15510	153182	27561	950873	37386	106097	0	0	8179	754929	0	0
2024-04-19 07:01:32			0	34106	0	0	0	16836	15520	153262	27284	950811	37387	106097	0	0	8178	755185	0	0
2024-04-19 07:02:32			0	34110	0	0	0	16841	15510	153226	27473	950794	37365	106099	0	0	8178	755028	0	0
2024-04-19 07:03:32			0	34066	0	0	0	16846	15510	153286	27308	950794	37375	106101	0	0	8176	757208	0	0
2024-04-19 07:04:32			0	34089	0	0	0	16846	15520	153318	27282	950829	37375	106101	0	0	8177	756027	0	0
2024-04-19 07:05:32			0	34080	0	0	0	16838	15510	153346	27176	950813	37375	106098	0	0	8177	756514	0	0
2024-04-19 07:06:32			0	34091	0	0	0	16841	15510	153282	27571	950847	37386	106099	0	0	8177	755969	0	0
2024-04-19 07:07:32			0	34095	0	0	0	16833	15500	153342	27353	950805	37386	106096	0	0	8178	755811	0	0
2024-04-19 07:08:32			0	34099	0	0	0	16838	15500	153306	27447	950805	37375	106098	0	0	8178	755613	0	0
2024-04-19 07:09:32			0	34105	0	0	0	16833	15500	153366	27279	950796	37375	106096	0	0	8178	755316	0	0
2024-04-19 07:10:32			0	34099	0	0	0	16831	15500	153314	27365	950770	37385	106095	0	0	8178	755613	0	0
2024-04-19 07:11:32			0	34080	0	0	0	16841	15500	153314	27419	950796	37375	106099	0	0	8177	756554	0	0
2024-04-19 07:12:32			0	34112	0	0	0	16823	15490	153286	27326	950727	37384	106092	0	0	8179	755010	0	0
2024-04-19 07:13:32			0	34115	0	0	0	16823	15490	153286	27583	950701	37374	106092	0	0	8179	754862	0	0
2024-04-19 07:14:32			0	34096	0	0	0	16820	15500	153270	27279	950770	37385	106091	0	0	8178	755762	0	0
2024-04-19 07:15:32			0	34108	0	0	0	16812	15480	153138	27118	950667	37373	106088	0	0	8179	755249	0	0
2024-04-19 07:16:32			0	34126	0	0	0	16812	15480	153298	27268	950658	37373	106088	0	0	8180	754358	0	0
2024-04-19 07:17:32			0	34096	0	0	0	16805	15480	153362	27242	950693	37351	106085	0	0	8178	755843	0	0
2024-04-19 07:18:32			0	34101	0	0	0	16792	15470	153358	27279	950677	37372	106080	0	0	8178	755636	0	0
2024-04-19 07:19:32			0	34109	0	0	0	16784	15470	153346	27575	950677	37361	106077	0	0	8179	755240	0	0
2024-04-19 07:20:32			0	34096	0	0	0	16789	15470	153294	27265	950642	37350	106079	0	0	8178	755884	0	0
2024-04-19 07:21:32			0	34082	0	0	0	16784	15470	153366	27307	950616	37372	106077	0	0	8178	756577	0	0
2024-04-19 07:22:32			0	34068	0	0	0	16779	15460	153414	27352	950626	37360	106075	0	0	8177	757312	0	0
2024-04-19 07:23:32			0	34040	0	0	0	16774	15460	153438	27462	950626	37371	106073	0	0	8175	758702	0	0
2024-04-19 07:24:32			0	34039	0	0	0	16766	15470	153518	27751	950563	37372	106070	0	0	8175	758711	0	0
2024-04-19 07:25:32			0	34033	0	0	0	16763	15440	153654	27448	950575	37370	106069	0	0	8175	759132	0	0
2024-04-19 07:26:32			0	34015	0	0	0	16753	15440	153686	27242	950567	37370	106065	0	0	8174	760027	0	0
2024-04-19 07:27:32			0	33977	0	0	0	16750	15450	153738	27428	950557	37359	106064	0	0	8172	761879	0	0
2024-04-19 07:28:32			0	33979	0	0	0	16755	15440	153942	27611	950470	37380	106066	0	0	8172	761820	0	0
2024-04-19 07:29:32			0	33958	0	0	0	16748	15440	153966	27298	950541	37370	106063	0	0	8171	762867	0	0
2024-04-19 07:30:32			0	33952	0	0	0	16748	15420	153990	27540	950464	37368	106063	0	0	8170	763249	0	0
2024-04-19 07:31:32			0	33924	0	0	0	16758	15410	154062	27549	950448	37367	106067	0	0	8168	764689	0	0
2024-04-19 07:32:32			0	33900	0	0	0	16750	15420	154146	27310	950464	37357	106064	0	0	8167	765848	0	0
2024-04-19 07:33:32			0	33898	0	0	0	16750	15420	154246	27651	950509	37356	106064	0	0	8167	765948	0	0
2024-04-19 07:34:32			0	33892	0	0	0	16742	15420	154218	27493	950490	37357	106061	0	0	8167	766249	0	0
2024-04-19 07:35:32			0	33861	0	0	0	16750	15410	154282	27467	950474	37367	106064	0	0	8165	767844	0	0
2024-04-19 07:36:32			0	33869	0	0	0	16748	15420	154358	27533	950464	37357	106063	0	0	8165	767401	0	0
2024-04-19 07:37:32			0	33845	0	0	0	16748	15420	154450	27666	950490	37368	106063	0	0	8164	768605	0	0
2024-04-19 07:38:32			0	33852	0	0	0	16748	15420	154442	27757	950430	37367	106063	0	0	8164	768254	0	0
2024-04-19 07:39:32			0	33848	0	0	0	16742	15410	154470	27246	950474	37367	106061	0	0	8164	768496	0	0
2024-04-19 07:40:32			0	33814	0	0	0	16742	15420	154582	27836	950464	37378	106061	0	0	8162	770163	0	0
2024-04-19 07:41:32			0	33816	0	0	0	16742	15420	154490	27725	950464	37368	106061	0	0	8162	770062	0	0
2024-04-19 07:42:32			0	33830	0	0	0	16742	15410	154526	27450	950448	37367	106061	0	0	8163	769400	0	0
2024-04-19 07:43:32			0	33823	0	0	0	16750	15410	154502	27920	950422	37367	106064	0	0	8163	769751	0	0
2024-04-19 07:44:32			0	33820	0	0	0	16745	15410	154522	27280	950466	37356	106062	0	0	8163	769902	0	0
2024-04-19 07:45:32			0	33825	0	0	0	16755	15410	154598	27599	950448	37367	106066	0	0	8163	769651	0	0
2024-04-19 07:46:32			0	33832	0	0	0	16763	15410	154546	27557	950527	37377	106069	0	0	8163	769299	0	0
2024-04-19 07:47:32			0	33823	0	0	0	16761	15410	154554	27467	950501	37367	106068	0	0	8163	769751	0	0
2024-04-19 07:48:32			0	33829	0	0	0	16768	15420	154570	27630	950509	37356	106071	0	0	8163	769409	0	0
2024-04-19 07:49:32			0	33827	0	0	0	16761	15430	154582	27800	950499	37358	106068	0	0	8163	769468	0	0
2024-04-19 07:50:32			0	33832	0	0	0	16758	15410	154514	27765	950501	37367	106067	0	0	8163	769299	0	0
2024-04-19 07:51:32			0	33846	0	0	0	16753	15410	154446	27864	950466	37356	106065	0	0	8164	768596	0	0
2024-04-19 07:52:32			0	33849	0	0	0	16763	15410	154490	27303	950492	37356	106069	0	0	8164	768446	0	0
2024-04-19 07:53:32			0	33836	0	0	0	16758	15410	154494	27616	950519	37388	106067	0	0	8163	769098	0	0
2024-04-19 07:54:32			0	33853	0	0	0	16755	15410	154526	27627	950448	37377	106066	0	0	8164	768245	0	0
2024-04-19 07:55:32			0	33875	0	0	0	16758	15410	154342	27540	950519	37367	106067	0	0	8166	767141	0	0
2024-04-19 07:56:32			0	33882	0	0	0	16761	15410	154298	27467	950501	37377	106068	0	0	8166	766791	0	0
2024-04-19 07:57:32			0	33884	0	0	0	16768	15420	154414	27329	950517	37378	106071	0	0	8166	766649	0	0
2024-04-19 07:58:32			0	33888	0	0	0	16768	15420	154262	27580	950482	37367	106071	0	0	8166	766449	0	0
2024-04-19 07:59:32			0	33903	0	0	0	16787	15420	154138	27672	950482	37367	106078	0	0	8167	765698	0	0
2024-04-19 08:00:32			0	33918	0	0	0	16781	15420	154142	27486	950543	37368	106076	0	0	8168	764948	0	0
2024-04-19 08:01:32			0	33911	0	0	0	16789	15420	154206	27705	950535	37388	106079	0	0	8167	765298	0	0
2024-04-19 08:02:32			0	33932	0	0	0	16779	15420	154078	27720	950490	37378	106075	0	0	8169	764248	0	0
2024-04-19 08:03:32			0	33942	0	0	0	16750	15430	154066	27862	950533	37369	106064	0	0	8170	763707	0	0
2024-04-19 08:04:32			0	33952	0	0	0	16740	15420	153942	27646	950403	37367	106060	0	0	8170	763249	0	0
2024-04-19 08:05:32			0	33964	0	0	0	16732	15400	153898	27789	950379	37376	106057	0	0	8171	762732	0	0
2024-04-19 08:06:32			0	33960	0	0	0	16724	15410	153966	27855	950413	37356	106054	0	0	8171	762891	0	0
2024-04-19 08:07:32			0	33983	0	0	0	16714	15400	153918	28025	950345	37343	106050	0	0	8173	761784	0	0
2024-04-19 08:08:32			0	33961	0	0	0	16685	15380	153946	28013	950320	37343	106039	0	0	8172	762964	0	0
2024-04-19 08:09:32			0	33932	0	0	0	16657	15390	153966	27965	950258	37366	106028	0	0	8171	764371	0	0
2024-04-19 08:10:32			0	33883	0	0	0	16615	15360	154174	27868	950130	37352	106012	0	0	8168	766947	0	0
2024-04-19 08:11:32			0	33850	0	0	0	16594	15360	154398	27583	950148	37340	106004	0	0	8167	768602	0	0
2024-04-19 08:12:32			0	33760	0	0	0	16607	15340	154850	27776	950010	37349	106009	0	0	8161	773214	0	0
2024-04-19 08:13:32			0	33736	0	0	0	16620	15330	154990	27691	949976	37337	106014	0	0	8159	774467	0	0
2024-04-19 08:14:32			0	33734	0	0	0	16599	15330	155038	27630	950047	37337	106006	0	0	8160	774568	0	0
2024-04-19 08:15:32			0	33729	0	0	0	16597	15320	155106	27807	949978	37337	106005	0	0	8159	774862	0	0
2024-04-19 08:16:32			0	33703	0	0	0	16599	15310	155218	27511	949962	37336	106006	0	0	8158	776219	0	0
2024-04-19 08:17:32			0	33688	0	0	0	16615	15300	155314	27861	949972	37335	106012	0	0	8157	777020	0	0
2024-04-19 08:18:32			0	33663	0	0	0	16615	15300	155342	27633	949954	37347	106012	0	0	8155	778287	0	0
2024-04-19 08:19:32			0	33646	0	0	0	16667	15300	155534	27490	950025	37357	106032	0	0	8153	779149	0	0
2024-04-19 08:20:32			0	33622	0	0	0	16685	15310	155578	27618	950120	37358	106039	0	0	8151	780326	0	0
2024-04-19 08:21:32			0	33609	0	0	0	16698	15300	155722	27828	950059	37358	106044	0	0	8150	781029	0	0
2024-04-19 08:22:32			0	33606	0	0	0	16703	15320	155710	27516	950162	37348	106046	0	0	8150	781098	0	0
2024-04-19 08:23:32			0	33600	0	0	0	16690	15320	155730	27571	950162	37370	106041	0	0	8150	781403	0	0
2024-04-19 08:24:32			0	33622	0	0	0	16685	15310	155698	27485	950101	37347	106039	0	0	8151	780326	0	0
2024-04-19 08:25:32			0	33614	0	0	0	16672	15320	155626	27507	950065	37337	106034	0	0	8151	780691	0	0
2024-04-19 08:26:32			0	33608	0	0	0	16657	15310	155634	27763	950041	37358	106028	0	0	8151	781038	0	0
2024-04-19 08:27:32			0	33600	0	0	0	16659	15310	155754	27722	950154	37358	106029	0	0	8151	781445	0	0
2024-04-19 08:28:32			0	33591	0	0	0	16677	15310	155790	27400	950128	37347	106036	0	0	8150	781903	0	0
2024-04-19 08:29:32			0	33590	0	0	0	16690	15310	155762	27649	950128	37347	106041	0	0	8149	781954	0	0
2024-04-19 08:30:32			0	33588	0	0	0	16677	15320	155782	27824	950162	37359	106036	0	0	8150	782013	0	0
2024-04-19 08:31:32			0	33590	0	0	0	16649	15320	155870	27696	950091	37371	106025	0	0	8150	781912	0	0
2024-04-19 08:32:32			0	33571	0	0	0	16651	15310	155889	27543	950093	37347	106026	0	0	8149	782921	0	0
2024-04-19 08:33:32			0	33547	0	0	0	16659	15310	155945	27371	950075	37347	106029	0	0	8147	784145	0	0
2024-04-19 08:34:32			0	33557	0	0	0	16672	15300	155989	27557	950085	37358	106034	0	0	8148	783677	0	0
2024-04-19 08:35:32			0	33539	0	0	0	16709	15310	155981	27810	950128	37336	106048	0	0	8146	784553	0	0
2024-04-19 08:36:32			0	33521	0	0	0	16714	15320	156161	27293	950188	37359	106050	0	0	8145	785430	0	0
2024-04-19 08:37:32			0	33513	0	0	0	16748	15320	156129	27312	950215	37370	106063	0	0	8144	785839	0	0
2024-04-19 08:38:32			0	33498	0	0	0	16745	15340	156205	27242	950273	37349	106062	0	0	8143	786521	0	0
2024-04-19 08:39:32			0	33514	0	0	0	16753	15330	156265	27329	950371	37360	106065	0	0	8144	785745	0	0
2024-04-19 08:40:32			0	33501	0	0	0	16745	15350	156081	27538	950298	37383	106062	0	0	8143	786325	0	0
2024-04-19 08:41:32			0	33493	0	0	0	16740	15350	156249	27329	950298	37373	106060	0	0	8143	786734	0	0
2024-04-19 08:42:32			0	33470	0	0	0	16735	15350	156265	27706	950298	37361	106058	0	0	8142	787912	0	0
2024-04-19 08:43:32			0	33484	0	0	0	16755	15360	156329	27679	950464	37373	106066	0	0	8142	787153	0	0
2024-04-19 08:44:32			0	33472	0	0	0	16750	15360	156265	27677	950446	37363	106064	0	0	8142	787767	0	0
2024-04-19 08:45:32			0	33469	0	0	0	16779	15380	156193	27493	950444	37364	106075	0	0	8141	787836	0	0
2024-04-19 08:46:32			0	33490	0	0	0	16779	15380	156289	27467	950452	37375	106075	0	0	8142	786761	0	0
2024-04-19 08:47:32			0	33461	0	0	0	16776	15390	156253	27677	950486	37376	106074	0	0	8141	788203	0	0
2024-04-19 08:48:32			0	33470	0	0	0	16787	15390	156361	27261	950513	37376	106078	0	0	8141	787742	0	0
2024-04-19 08:49:32			0	33476	0	0	0	16779	15390	156261	27564	950486	37376	106075	0	0	8142	787435	0	0
2024-04-19 08:50:32			0	33448	0	0	0	16787	15400	156293	27557	950476	37366	106078	0	0	8140	788827	0	0
2024-04-19 08:51:32			0	33469	0	0	0	16789	15410	156297	27538	950519	37377	106079	0	0	8141	787709	0	0
2024-04-19 08:52:32			0	33460	0	0	0	16792	15400	156313	27744	950590	37376	106080	0	0	8140	788212	0	0
2024-04-19 08:53:32			0	33461	0	0	0	16784	15410	156209	27692	950545	37377	106077	0	0	8141	788119	0	0
2024-04-19 08:54:32			0	33473	0	0	0	16792	15400	156221	27847	950563	37355	106080	0	0	8141	787546	0	0
2024-04-19 08:55:32			0	33469	0	0	0	16771	15410	156349	27585	950501	37377	106072	0	0	8141	787709	0	0
2024-04-19 08:56:32			0	33464	0	0	0	16768	15420	156325	27360	950543	37378	106071	0	0	8141	787922	0	0
2024-04-19 08:57:32			0	33480	0	0	0	16758	15420	156189	27457	950482	37377	106067	0	0	8142	787103	0	0
2024-04-19 08:58:32			0	33481	0	0	0	16758	15410	156193	27514	950492	37367	106067	0	0	8142	787095	0	0
2024-04-19 08:59:32			0	33498	0	0	0	16735	15410	156185	27246	950474	37367	106058	0	0	8144	786225	0	0
2024-04-19 09:00:32			0	33503	0	0	0	16735	15400	156069	27343	950432	37355	106058	0	0	8144	786012	0	0
2024-04-19 09:01:32			0	33529	0	0	0	16735	15400	156049	27244	950432	37366	106058	0	0	8146	784684	0	0
2024-04-19 09:02:32			0	33534	0	0	0	16714	15400	156045	27653	950397	37366	106050	0	0	8146	784429	0	0
2024-04-19 09:03:32			0	33538	0	0	0	16693	15400	155969	27206	950326	37344	106042	0	0	8147	784225	0	0
2024-04-19 09:04:32			0	33542	0	0	0	16683	15390	155941	27130	950328	37333	106038	0	0	8147	784063	0	0
2024-04-19 09:05:32			0	33549	0	0	0	16677	15380	155821	27164	950312	37342	106036	0	0	8148	783748	0	0
2024-04-19 09:06:32			0	33531	0	0	0	16667	15380	155821	27275	950286	37364	106032	0	0	8147	784666	0	0
2024-04-19 09:07:32			0	33542	0	0	0	16670	15370	155857	27317	950278	37364	106033	0	0	8147	784147	0	0
2024-04-19 09:08:32			0	33524	0	0	0	16657	15360	156001	26958	950261	37352	106028	0	0	8146	785108	0	0
2024-04-19 09:09:32			0	33511	0	0	0	16651	15360	155949	27234	950201	37351	106026	0	0	8146	785772	0	0
2024-04-19 09:10:32			0	33492	0	0	0	16649	15350	156153	27398	950193	37350	106025	0	0	8145	786786	0	0
2024-04-19 09:11:32			0	33476	0	0	0	16636	15350	156253	27434	950184	37361	106020	0	0	8144	787604	0	0
2024-04-19 09:12:32			0	33458	0	0	0	16641	15340	156381	27635	950203	37339	106022	0	0	8143	788569	0	0
2024-04-19 09:13:32			0	33434	0	0	0	16620	15340	156509	27897	950142	37338	106014	0	0	8142	789800	0	0
2024-04-19 09:14:32			0	33397	0	0	0	16631	15330	156553	27829	950134	37360	106018	0	0	8139	791743	0	0
2024-04-19 09:15:32			0	33400	0	0	0	16644	15340	156661	27334	950142	37349	106023	0	0	8139	791546	0	0
2024-04-19 09:16:32			0	33399	0	0	0	16646	15330	156693	27628	950152	37349	106024	0	0	8139	791640	0	0
2024-04-19 09:17:32			0	33358	0	0	0	16651	15330	156753	27377	950178	37360	106026	0	0	8136	793750	0	0
2024-04-19 09:18:32			0	33352	0	0	0	16659	15320	156949	27303	950170	37349	106029	0	0	8136	794102	0	0
2024-04-19 09:19:32			0	33327	0	0	0	16664	15340	156961	27658	950195	37361	106031	0	0	8134	795306	0	0
2024-04-19 09:20:32			0	33325	0	0	0	16667	15330	156941	27157	950152	37349	106032	0	0	8134	795452	0	0
2024-04-19 09:21:32			0	33325	0	0	0	16670	15330	156909	27421	950152	37349	106033	0	0	8134	795452	0	0
2024-04-19 09:22:32			0	33312	0	0	0	16659	15330	157045	27216	950152	37360	106029	0	0	8134	796123	0	0
2024-04-19 09:23:32			0	33315	0	0	0	16651	15330	156909	27332	950160	37371	106026	0	0	8134	795968	0	0
2024-04-19 09:24:32			0	33329	0	0	0	16664	15330	156869	27261	950134	37349	106031	0	0	8134	795246	0	0
2024-04-19 09:25:32			0	33340	0	0	0	16662	15330	156925	27194	950134	37349	106030	0	0	8135	794678	0	0
2024-04-19 09:26:32			0	33353	0	0	0	16670	15320	156773	27417	950144	37360	106033	0	0	8136	794050	0	0
2024-04-19 09:27:32			0	33379	0	0	0	16677	15330	156737	27353	950178	37360	106036	0	0	8137	792669	0	0
2024-04-19 09:28:32			0	33364	0	0	0	16664	15330	156725	27303	950213	37360	106031	0	0	8137	793441	0	0
2024-04-19 09:29:32			0	33384	0	0	0	16677	15320	156613	27568	950223	37349	106036	0	0	8137	792454	0	0
2024-04-19 09:30:32			0	33386	0	0	0	16690	15330	156681	27473	950239	37349	106041	0	0	8137	792308	0	0
2024-04-19 09:31:32			0	33392	0	0	0	16693	15330	156673	27699	950186	37381	106042	0	0	8138	792000	0	0
2024-04-19 09:32:32			0	33368	0	0	0	16677	15320	156649	27152	950144	37360	106036	0	0	8137	793278	0	0
2024-04-19 09:33:32			0	33384	0	0	0	16657	15320	156645	27237	950170	37360	106028	0	0	8138	792454	0	0
2024-04-19 09:34:32			0	33399	0	0	0	16654	15310	156645	27377	950154	37347	106027	0	0	8139	791725	0	0
2024-04-19 09:35:32			0	33393	0	0	0	16646	15320	156689	27448	950136	37348	106024	0	0	8139	791991	0	0
2024-04-19 09:36:32			0	33389	0	0	0	16677	15320	156669	27300	950162	37370	106036	0	0	8138	792197	0	0
2024-04-19 09:37:32			0	33397	0	0	0	16703	15330	156693	27620	950205	37371	106046	0	0	8138	791743	0	0
2024-04-19 09:38:32			0	33375	0	0	0	16724	15330	156713	27545	950284	37371	106054	0	0	8136	792875	0	0
2024-04-19 09:39:32			0	33388	0	0	0	16755	15340	156785	27301	950308	37373	106066	0	0	8136	792163	0	0
2024-04-19 09:40:32			0	33369	0	0	0	16779	15350	156877	27426	950421	37361	106075	0	0	8135	793098	0	0
2024-04-19 09:41:32			0	33357	0	0	0	16789	15360	156825	27350	950446	37384	106079	0	0	8134	793674	0	0
2024-04-19 09:42:32			0	33346	0	0	0	16794	15370	156865	27365	950480	37384	106081	0	0	8133	794198	0	0
2024-04-19 09:43:32			0	33326	0	0	0	16807	15380	156865	27628	950523	37364	106086	0	0	8132	795186	0	0
2024-04-19 09:44:32			0	33340	0	0	0	16799	15380	156841	27698	950557	37397	106083	0	0	8133	794464	0	0
2024-04-19 09:45:32			0	33369	0	0	0	16802	15390	156709	27833	950592	37376	106084	0	0	8135	792928	0	0
2024-04-19 09:46:32			0	33416	0	0	0	16815	15400	156457	27372	950537	37376	106089	0	0	8137	790469	0	0
2024-04-19 09:47:32			0	33455	0	0	0	16818	15400	156305	27736	950590	37376	106090	0	0	8140	788468	0	0
2024-04-19 09:48:32			0	33493	0	0	0	16815	15410	156145	27300	950606	37388	106089	0	0	8142	786481	0	0
2024-04-19 09:49:32			0	33511	0	0	0	16831	15420	156017	27338	950648	37378	106095	0	0	8143	785519	0	0
2024-04-19 09:50:32			0	33546	0	0	0	16823	15420	155945	27467	950727	37411	106092	0	0	8145	783732	0	0
2024-04-19 09:51:32			0	33577	0	0	0	16836	15430	155806	27234	950656	37390	106097	0	0	8147	782111	0	0
2024-04-19 09:52:32			0	33597	0	0	0	16831	15430	155618	27374	950665	37379	106095	0	0	8148	781093	0	0
2024-04-19 09:53:32			0	33630	0	0	0	16838	15440	155502	27519	950752	37391	106098	0	0	8150	779375	0	0
2024-04-19 09:54:32			0	33655	0	0	0	16846	15440	155382	27966	950707	37380	106101	0	0	8151	778107	0	0
2024-04-19 09:55:32			0	33678	0	0	0	16846	15440	155306	27434	950725	37402	106101	0	0	8153	776941	0	0
2024-04-19 09:56:32			0	33702	0	0	0	16849	15460	155146	27346	950784	37381	106102	0	0	8154	775643	0	0
2024-04-19 09:57:32			0	33737	0	0	0	16857	15460	155190	27364	950837	37381	106105	0	0	8156	773875	0	0
2024-04-19 09:58:32			0	33751	0	0	0	16859	15460	155042	27372	950758	37393	106106	0	0	8157	773169	0	0
2024-04-19 09:59:32			0	33765	0	0	0	16854	15460	154778	27434	950766	37381	106104	0	0	8158	772463	0	0
2024-04-19 10:00:32			0	33784	0	0	0	16867	15480	154766	27911	950790	37394	106109	0	0	8159	771423	0	0
2024-04-19 10:01:32			0	33794	0	0	0	16872	15480	154650	27656	950843	37394	106111	0	0	8159	770920	0	0
2024-04-19 10:02:32			0	33829	0	0	0	16875	15480	154570	27639	950922	37383	106112	0	0	8161	769160	0	0
2024-04-19 10:03:32			0	33853	0	0	0	16875	15480	154554	27576	950877	37394	106112	0	0	8163	767956	0	0
2024-04-19 10:04:32			0	33867	0	0	0	16864	15490	154358	27932	950920	37396	106108	0	0	8164	767212	0	0
2024-04-19 10:05:32			0	33885	0	0	0	16883	15490	154230	27343	950938	37384	106115	0	0	8164	766311	0	0
2024-04-19 10:06:32			0	33904	0	0	0	16877	15490	154182	27313	950893	37407	106113	0	0	8166	765360	0	0
2024-04-19 10:07:32			0	33893	0	0	0	16875	15500	154358	27327	950962	37397	106112	0	0	8165	765869	0	0
2024-04-19 10:08:32			0	33941	0	0	0	16883	15490	154086	27255	950920	37375	106115	0	0	8168	763510	0	0
2024-04-19 10:09:32			0	33910	0	0	0	16890	15500	154150	27509	950910	37408	106118	0	0	8166	765018	0	0
2024-04-19 10:10:32			0	33957	0	0	0	16890	15510	154054	27183	950952	37398	106118	0	0	8169	762630	0	0
2024-04-19 10:11:32			0	33955	0	0	0	16893	15510	154074	27390	951005	37409	106119	0	0	8168	762730	0	0
2024-04-19 10:12:32			0	33964	0	0	0	16890	15520	153974	27379	951013	37386	106118	0	0	8169	762240	0	0
2024-04-19 10:13:32			0	33961	0	0	0	16893	15520	153838	27343	951013	37398	106119	0	0	8169	762389	0	0
2024-04-19 10:14:32			0	33992	0	0	0	16903	15520	153846	27422	951021	37398	106123	0	0	8170	760845	0	0
2024-04-19 10:15:32			0	33994	0	0	0	16893	15530	153890	27222	951056	37387	106119	0	0	8171	760704	0	0
2024-04-19 10:16:32			0	33983	0	0	0	16901	15520	153798	27647	951013	37386	106122	0	0	8170	761293	0	0
2024-04-19 10:17:32			0	34010	0	0	0	16901	15530	153722	27256	951011	37388	106122	0	0	8172	759908	0	0
2024-04-19 10:18:32			0	34033	0	0	0	16909	15530	153626	26953	951037	37388	106125	0	0	8173	758764	0	0
2024-04-19 10:19:32			0	34037	0	0	0	16901	15530	153686	27272	951011	37399	106122	0	0	8173	758566	0	0
2024-04-19 10:20:32			0	34028	0	0	0	16909	15520	153634	27133	951048	37398	106125	0	0	8172	759054	0	0
2024-04-19 10:21:32			0	34052	0	0	0	16911	15530	153526	27531	951037	37388	106126	0	0	8174	757821	0	0
2024-04-19 10:22:32			0	34063	0	0	0	16914	15540	153582	27545	951072	37388	106127	0	0	8175	757235	0	0
2024-04-19 10:23:32			0	34082	0	0	0	16922	15540	153430	27367	951054	37411	106130	0	0	8175	756292	0	0
2024-04-19 10:24:32			0	34072	0	0	0	16909	15540	153430	27620	951054	37389	106125	0	0	8175	756788	0	0
2024-04-19 10:25:32			0	34072	0	0	0	16919	15540	153458	27258	951159	37400	106129	0	0	8175	756788	0	0
2024-04-19 10:26:32			0	34087	0	0	0	16927	15540	153350	27034	951106	37400	106132	0	0	8176	756045	0	0
2024-04-19 10:27:32			0	34094	0	0	0	16922	15550	153434	27341	951167	37400	106130	0	0	8176	755657	0	0
2024-04-19 10:28:32			0	34083	0	0	0	16932	15550	153354	27680	951167	37400	106134	0	0	8175	756202	0	0
2024-04-19 10:29:32			0	34099	0	0	0	16927	15550	153358	27511	951167	37421	106132	0	0	8176	755410	0	0
2024-04-19 10:30:32			0	34100	0	0	0	16937	15560	153274	27518	951157	37401	106136	0	0	8176	755320	0	0
2024-04-19 10:31:32			0	34095	0	0	0	16935	15560	153298	27253	951183	37412	106135	0	0	8176	755567	0	0
2024-04-19 10:32:32			0	34111	0	0	0	16945	15560	153246	27568	951131	37433	106139	0	0	8177	754775	0	0
2024-04-19 10:33:32			0	34119	0	0	0	16945	15560	153338	27781	951139	37402	106139	0	0	8177	754380	0	0
2024-04-19 10:34:32			0	34119	0	0	0	16953	15560	153202	27362	951218	37402	106142	0	0	8177	754380	0	0
2024-04-19 10:35:32			0	34124	0	0	0	16950	15580	153278	27485	951224	37414	106141	0	0	8178	754051	0	0
2024-04-19 10:36:32			0	34104	0	0	0	16958	15570	153262	27398	951207	37402	106144	0	0	8176	755081	0	0
2024-04-19 10:37:32			0	34118	0	0	0	16974	15580	153358	27736	951224	37414	106150	0	0	8177	754348	0	0
2024-04-19 10:38:32			0	34131	0	0	0	16966	15600	153214	27407	951267	37425	106147	0	0	8178	753624	0	0
2024-04-19 10:39:32			0	34117	0	0	0	16968	15590	153282	27590	951258	37404	106148	0	0	8177	754357	0	0
2024-04-19 10:40:32			0	34119	0	0	0	16974	15600	153214	27493	951301	37405	106150	0	0	8177	754217	0	0
2024-04-19 10:41:32			0	34113	0	0	0	16968	15590	153222	27646	951258	37415	106148	0	0	8177	754555	0	0
2024-04-19 10:42:32			0	34126	0	0	0	16976	15600	153142	27654	951354	37405	106151	0	0	8177	753871	0	0
2024-04-19 10:43:32			0	34124	0	0	0	16989	15600	153162	27412	951345	37415	106156	0	0	8177	753970	0	0
2024-04-19 10:44:32			0	34118	0	0	0	16981	15610	153186	27607	951317	37416	106153	0	0	8177	754226	0	0
2024-04-19 10:45:32			0	34135	0	0	0	16986	15610	153186	27613	951370	37416	106155	0	0	8178	753386	0	0
2024-04-19 10:46:32			0	34105	0	0	0	16999	15610	153214	27633	951396	37416	106160	0	0	8176	754869	0	0
2024-04-19 10:47:32			0	34128	0	0	0	16997	15620	153206	27547	951439	37428	106159	0	0	8177	753691	0	0
2024-04-19 10:48:32			0	34122	0	0	0	17002	15620	153154	27492	951465	37417	106161	0	0	8177	753988	0	0
2024-04-19 10:49:32			0	34130	0	0	0	17007	15630	153230	27473	951394	37417	106163	0	0	8177	753552	0	0
2024-04-19 10:50:32			0	34133	0	0	0	17015	15630	153174	27854	951473	37417	106166	0	0	8177	753404	0	0
2024-04-19 10:51:32			0	34133	0	0	0	17020	15640	153142	27640	951498	37429	106168	0	0	8177	753363	0	0
2024-04-19 10:52:32			0	34134	0	0	0	17007	15640	153126	27718	951498	37408	106163	0	0	8178	753314	0	0
2024-04-19 10:53:32			0	34138	0	0	0	17015	15640	153126	27545	951524	37408	106166	0	0	8178	753116	0	0
2024-04-19 10:54:32			0	34156	0	0	0	17028	15650	153106	27376	951532	37429	106171	0	0	8178	752187	0	0
2024-04-19 10:55:32			0	34143	0	0	0	17023	15650	153046	27407	951488	37419	106169	0	0	8178	752829	0	0
2024-04-19 10:56:32			0	34141	0	0	0	17025	15650	152994	27384	951532	37408	106170	0	0	8178	752927	0	0
2024-04-19 10:57:32			0	34169	0	0	0	17036	15660	153106	27426	951627	37420	106174	0	0	8179	751506	0	0
2024-04-19 10:58:32			0	34137	0	0	0	17038	15670	153082	27588	951617	37410	106175	0	0	8177	753044	0	0
2024-04-19 10:59:32			0	34144	0	0	0	17044	15650	153070	27630	951593	37430	106177	0	0	8178	752779	0	0
2024-04-19 11:00:32			0	34136	0	0	0	17054	15660	153010	27604	951601	37431	106181	0	0	8177	753134	0	0
2024-04-19 11:01:32			0	34159	0	0	0	17059	15670	153010	27606	951599	37421	106183	0	0	8178	751958	0	0
2024-04-19 11:02:32			0	34145	0	0	0	17054	15680	153058	27502	951633	37412	106181	0	0	8178	752608	0	0
2024-04-19 11:03:32			0	34143	0	0	0	17067	15680	152958	27326	951686	37444	106186	0	0	8177	752707	0	0
2024-04-19 11:04:32			0	34156	0	0	0	17067	15690	152978	27535	951755	37423	106186	0	0	8178	752025	0	0
2024-04-19 11:05:32			0	34149	0	0	0	17072	15690	153062	27732	951702	37434	106188	0	0	8178	752371	0	0
2024-04-19 11:06:32			0	34152	0	0	0	17075	15690	153034	27656	951676	37412	106189	0	0	8178	752222	0	0
2024-04-19 11:07:32			0	34137	0	0	0	17075	15690	152994	27587	951710	37434	106189	0	0	8177	752963	0	0
2024-04-19 11:08:32			0	34133	0	0	0	17075	15690	153074	27684	951737	37412	106189	0	0	8177	753160	0	0
2024-04-19 11:09:32			0	34129	0	0	0	17075	15700	153078	27371	951745	37446	106189	0	0	8176	753317	0	0
2024-04-19 11:10:32			0	34144	0	0	0	17083	15700	153082	27514	951779	37458	106192	0	0	8177	752577	0	0
2024-04-19 11:11:32			0	34135	0	0	0	17075	15710	153062	27422	951814	37435	106189	0	0	8177	752980	0	0
2024-04-19 11:12:32			0	34110	0	0	0	17077	15710	153034	27672	951769	37446	106190	0	0	8175	754215	0	0
2024-04-19 11:13:32			0	34147	0	0	0	17080	15710	153134	27543	951822	37435	106191	0	0	8177	752388	0	0
2024-04-19 11:14:32			0	34131	0	0	0	17093	15710	153130	27635	951875	37424	106196	0	0	8176	753178	0	0
2024-04-19 11:15:32			0	34118	0	0	0	17088	15720	153110	27519	951830	37425	106194	0	0	8176	753779	0	0
2024-04-19 11:16:32			0	34132	0	0	0	17098	15710	153122	27530	951796	37424	106198	0	0	8176	753128	0	0
2024-04-19 11:17:32			0	34133	0	0	0	17103	15730	153070	27512	951872	37426	106200	0	0	8176	752998	0	0
2024-04-19 11:18:32			0	34139	0	0	0	17111	15730	153010	27338	951854	37437	106203	0	0	8176	752702	0	0
2024-04-19 11:19:32			0	34123	0	0	0	17111	15730	153178	27275	951846	37437	106203	0	0	8176	753492	0	0
2024-04-19 11:20:32			0	34114	0	0	0	17122	15740	153182	27573	951915	37449	106207	0	0	8175	753896	0	0
2024-04-19 11:21:32			0	34114	0	0	0	17122	15740	153138	27452	951897	37439	106207	0	0	8175	753896	0	0
2024-04-19 11:22:32			0	34120	0	0	0	17132	15740	153066	27464	951897	37439	106211	0	0	8175	753600	0	0
2024-04-19 11:23:32			0	34112	0	0	0	17135	15740	153182	27606	951923	37460	106212	0	0	8175	753995	0	0
2024-04-19 11:24:32			0	34123	0	0	0	17137	15740	153014	27407	951923	37439	106213	0	0	8175	753451	0	0
2024-04-19 11:25:32			0	34125	0	0	0	17135	15750	153046	27402	951966	37451	106212	0	0	8175	753312	0	0
2024-04-19 11:26:32			0	34109	0	0	0	17127	15760	153010	27365	952035	37461	106209	0	0	8175	754062	0	0
2024-04-19 11:27:32			0	34111	0	0	0	17137	15760	153022	27590	951982	37451	106213	0	0	8175	753963	0	0
2024-04-19 11:28:32			0	34103	0	0	0	17145	15770	153166	27317	951964	37452	106216	0	0	8174	754318	0	0
2024-04-19 11:29:32			0	34128	0	0	0	17148	15760	153110	27177	952035	37461	106217	0	0	8175	753123	0	0
2024-04-19 11:30:32			0	34130	0	0	0	17150	15780	152970	27483	951980	37441	106218	0	0	8176	752943	0	0
2024-04-19 11:31:32			0	34153	0	0	0	17155	15770	152874	27353	952130	37441	106220	0	0	8177	751849	0	0
2024-04-19 11:32:32			0	34188	0	0	0	17158	15770	152806	27653	952077	37441	106221	0	0	8179	750125	0	0
2024-04-19 11:33:32			0	34193	0	0	0	17163	15770	152862	27428	952077	37430	106223	0	0	8179	749878	0	0
2024-04-19 11:34:32			0	34193	0	0	0	17163	15790	152858	27673	952102	37432	106223	0	0	8179	749798	0	0
2024-04-19 11:35:32			0	34160	0	0	0	17166	15800	152906	27661	952144	37454	106224	0	0	8177	751382	0	0
2024-04-19 11:36:32			0	34182	0	0	0	17174	15780	152850	27857	952067	37463	106227	0	0	8178	750380	0	0
2024-04-19 11:37:32			0	34162	0	0	0	17174	15800	152922	27459	952171	37432	106227	0	0	8177	751284	0	0
2024-04-19 11:38:32			0	34159	0	0	0	17179	15800	152874	27362	952197	37464	106229	0	0	8177	751432	0	0
2024-04-19 11:39:32			0	34146	0	0	0	17176	15800	152922	27607	952171	37464	106228	0	0	8176	752073	0	0
2024-04-19 11:40:32			0	34140	0	0	0	17192	15810	153050	27822	952266	37444	106234	0	0	8176	752328	0	0
2024-04-19 11:41:32			0	34127	0	0	0	17187	15800	153094	27689	952197	37454	106232	0	0	8175	753010	0	0
2024-04-19 11:42:32			0	34112	0	0	0	17174	15810	153234	27384	952187	37444	106227	0	0	8174	753710	0	0
2024-04-19 11:43:32			0	34103	0	0	0	17174	15810	153158	27800	952161	37444	106227	0	0	8174	754155	0	0
2024-04-19 11:44:32			0	34087	0	0	0	17163	15810	153258	27405	952169	37467	106223	0	0	8173	754946	0	0
2024-04-19 11:45:32			0	34088	0	0	0	17179	15810	153218	28037	952134	37456	106229	0	0	8173	754897	0	0
2024-04-19 11:46:32			0	34100	0	0	0	17197	15810	153326	27438	952187	37466	106236	0	0	8173	754303	0	0
2024-04-19 11:47:32			0	34080	0	0	0	17184	15810	153302	27441	952221	37467	106231	0	0	8172	755293	0	0
2024-04-19 11:48:32			0	34085	0	0	0	17181	15820	153338	27384	952238	37456	106230	0	0	8173	755005	0	0
2024-04-19 11:49:32			0	34078	0	0	0	17187	15820	153270	27984	952256	37445	106232	0	0	8172	755351	0	0
2024-04-19 11:50:32			0	34068	0	0	0	17192	15820	153310	27524	952229	37456	106234	0	0	8171	755846	0	0
2024-04-19 11:51:32			0	34092	0	0	0	17174	15820	153310	27601	952229	37456	106227	0	0	8173	754658	0	0
2024-04-19 11:52:32			0	34088	0	0	0	17127	15830	153246	27554	952254	37458	106209	0	0	8174	754815	0	0
2024-04-19 11:53:32			0	34101	0	0	0	17145	15810	153162	27635	952142	37456	106216	0	0	8174	754254	0	0
2024-04-19 11:54:32			0	34094	0	0	0	17132	15810	153186	27409	952108	37433	106211	0	0	8174	754600	0	0
2024-04-19 11:55:32			0	34099	0	0	0	17114	15810	153046	27666	952037	37445	106204	0	0	8175	754353	0	0
2024-04-19 11:56:32			0	34116	0	0	0	17088	15800	153122	27599	952013	37464	106194	0	0	8176	753553	0	0
2024-04-19 11:57:32			0	34107	0	0	0	17083	15800	153110	27639	952039	37421	106192	0	0	8175	753998	0	0
2024-04-19 11:58:32			0	34117	0	0	0	17090	15790	153158	27689	952005	37454	106195	0	0	8176	753544	0	0
2024-04-19 11:59:32			0	34121	0	0	0	17106	15790	153034	27476	952023	37432	106201	0	0	8176	753347	0	0
2024-04-19 12:00:32			0	34117	0	0	0	17132	15790	153090	27729	952084	37443	106211	0	0	8175	753544	0	0
2024-04-19 12:01:32			0	34121	0	0	0	17109	15790	153070	27479	952057	37432	106202	0	0	8176	753347	0	0
2024-04-19 12:02:32			0	34124	0	0	0	17098	15780	153058	27526	952015	37463	106198	0	0	8176	753239	0	0
2024-04-19 12:03:32			0	34117	0	0	0	17093	15780	153050	27710	952041	37453	106196	0	0	8176	753585	0	0
2024-04-19 12:04:32			0	34136	0	0	0	17096	15780	152974	27339	951928	37441	106197	0	0	8177	752647	0	0
2024-04-19 12:05:32			0	34150	0	0	0	17090	15770	152982	27481	951972	37462	106195	0	0	8178	751997	0	0
2024-04-19 12:06:32			0	34164	0	0	0	17090	15770	152946	27287	951990	37441	106195	0	0	8178	751307	0	0
2024-04-19 12:07:32			0	34162	0	0	0	17075	15780	152878	27607	951954	37441	106189	0	0	8179	751365	0	0
2024-04-19 12:08:32			0	34171	0	0	0	17080	15770	152838	27331	951938	37441	106191	0	0	8179	750962	0	0
2024-04-19 12:09:32			0	34173	0	0	0	17085	15770	152858	27490	951938	37441	106193	0	0	8179	750863	0	0
2024-04-19 12:10:32			0	34191	0	0	0	17083	15760	152778	27452	951956	37440	106192	0	0	8180	750017	0	0
2024-04-19 12:11:32			0	34210	0	0	0	17085	15760	152746	27481	951956	37429	106193	0	0	8181	749083	0	0
2024-04-19 12:12:32			0	34218	0	0	0	17085	15760	152686	27516	951869	37439	106193	0	0	8182	748689	0	0
2024-04-19 12:13:32			0	34209	0	0	0	17093	15760	152706	27403	951974	37428	106196	0	0	8181	749132	0	0
2024-04-19 12:14:32			0	34221	0	0	0	17096	15760	152662	27346	951930	37451	106197	0	0	8182	748542	0	0
2024-04-19 12:15:32			0	34223	0	0	0	17098	15760	152694	27590	951974	37439	106198	0	0	8182	748444	0	0
2024-04-19 12:16:32			0	34218	0	0	0	17111	15760	152574	27653	951982	37451	106203	0	0	8181	748689	0	0
2024-04-19 12:17:32			0	34228	0	0	0	17127	15760	152634	27739	951956	37440	106209	0	0	8181	748198	0	0
2024-04-19 12:18:32			0	34253	0	0	0	17158	15760	152546	27649	952061	37451	106221	0	0	8182	746971	0	0
2024-04-19 12:19:32			0	34258	0	0	0	17171	15780	152510	27303	952138	37441	106226	0	0	8183	746645	0	0
2024-04-19 12:20:32			0	34297	0	0	0	17150	15780	152334	27666	952146	37442	106218	0	0	8185	744734	0	0
2024-04-19 12:21:32			0	34288	0	0	0	17145	15780	152334	27434	952059	37441	106216	0	0	8185	745175	0	0
2024-04-19 12:22:32			0	34310	0	0	0	17137	15790	152242	27770	952154	37454	106213	0	0	8186	744058	0	0
2024-04-19 12:23:32			0	34319	0	0	0	17127	15790	152154	27308	952102	37443	106209	0	0	8187	743618	0	0
2024-04-19 12:24:32			0	34345	0	0	0	17137	15780	152118	27409	952094	37463	106213	0	0	8188	742388	0	0
2024-04-19 12:25:32			0	34361	0	0	0	17135	15780	152027	27646	952067	37442	106212	0	0	8189	741607	0	0
2024-04-19 12:26:32			0	34370	0	0	0	17155	15780	151979	27429	952120	37442	106220	0	0	8189	741168	0	0
2024-04-19 12:27:32			0	34367	0	0	0	17187	15790	152035	27407	952136	37464	106232	0	0	8189	741274	0	0
2024-04-19 12:28:32			0	34374	0	0	0	17184	15800	151999	27523	952197	37454	106231	0	0	8189	740893	0	0
2024-04-19 12:29:32			0	34378	0	0	0	17194	15800	151947	27498	952258	37444	106235	0	0	8189	740698	0	0
2024-04-19 12:30:32			0	34384	0	0	0	17197	15810	152047	27665	952300	37445	106236	0	0	8189	740366	0	0
2024-04-19 12:31:32			0	34366	0	0	0	17168	15810	152039	27731	952240	37456	106225	0	0	8189	741243	0	0
2024-04-19 12:32:32			0	34362	0	0	0	17168	15820	152035	27383	952229	37456	106225	0	0	8189	741398	0	0
2024-04-19 12:33:32			0	34363	0	0	0	17187	15820	152011	27743	952150	37467	106232	0	0	8189	741349	0	0
2024-04-19 12:34:32			0	34356	0	0	0	17189	15820	152055	27770	952229	37456	106233	0	0	8188	741691	0	0
2024-04-19 12:35:32			0	34354	0	0	0	17181	15820	152003	27828	952177	37456	106230	0	0	8188	741788	0	0
2024-04-19 12:36:32			0	34359	0	0	0	17174	15820	152019	27381	952238	37456	106227	0	0	8188	741544	0	0
2024-04-19 12:37:32			0	34351	0	0	0	17179	15820	152039	27338	952264	37456	106229	0	0	8188	741935	0	0
2024-04-19 12:38:32			0	34344	0	0	0	17184	15820	152170	27346	952256	37456	106231	0	0	8187	742276	0	0
2024-04-19 12:39:32			0	34321	0	0	0	17194	15830	151994	27500	952280	37479	106235	0	0	8186	743360	0	0
2024-04-19 12:40:32			0	34323	0	0	0	17207	15830	152142	27388	952246	37446	106240	0	0	8186	743262	0	0
2024-04-19 12:41:32			0	34335	0	0	0	17197	15820	152258	27497	952343	37445	106236	0	0	8187	742716	0	0
2024-04-19 12:42:32			0	34322	0	0	0	17205	15830	152090	27613	952351	37457	106239	0	0	8186	743311	0	0
2024-04-19 12:43:32			0	34310	0	0	0	17202	15840	152194	27453	952315	37468	106238	0	0	8185	743857	0	0
2024-04-19 12:44:32			0	34306	0	0	0	17207	15840	152222	27322	952367	37468	106240	0	0	8185	744053	0	0
2024-04-19 12:45:32			0	34298	0	0	0	17210	15840	152282	27514	952349	37458	106241	0	0	8184	744444	0	0
2024-04-19 12:46:32			0	34291	0	0	0	17223	15850	152258	27649	952365	37459	106246	0	0	8184	744747	0	0
2024-04-19 12:47:32			0	34282	0	0	0	17228	15850	152358	27329	952418	37449	106248	0	0	8183	745187	0	0
2024-04-19 12:48:32			0	34301	0	0	0	17244	15850	152338	27365	952418	37470	106254	0	0	8184	744258	0	0
2024-04-19 12:49:32			0	34278	0	0	0	17249	15870	152330	27720	952469	37449	106256	0	0	8183	745303	0	0
2024-04-19 12:50:32			0	34277	0	0	0	17254	15880	152350	27637	952451	37471	106258	0	0	8183	745312	0	0
2024-04-19 12:51:32			0	34268	0	0	0	17259	15880	152410	27326	952459	37461	106260	0	0	8182	745752	0	0
2024-04-19 12:52:32			0	34264	0	0	0	17254	15890	152378	27457	952520	37461	106258	0	0	8182	745908	0	0
2024-04-19 12:53:32			0	34260	0	0	0	17262	15890	152478	27852	952493	37472	106261	0	0	8182	746105	0	0
2024-04-19 12:54:32			0	34266	0	0	0	17275	15900	152466	27680	952588	37462	106266	0	0	8182	745770	0	0
2024-04-19 12:55:32			0	34268	0	0	0	17275	15890	152398	27831	952633	37461	106266	0	0	8182	745712	0	0
2024-04-19 12:56:32			0	34271	0	0	0	17270	15900	152434	27774	952562	37462	106264	0	0	8182	745525	0	0
2024-04-19 12:57:32			0	34259	0	0	0	17277	15910	152450	27531	952631	37485	106267	0	0	8181	746073	0	0
2024-04-19 12:58:32			0	34277	0	0	0	17301	15910	152338	27992	952657	37463	106276	0	0	8182	745191	0	0
2024-04-19 12:59:32			0	34281	0	0	0	17314	15920	152342	27821	952708	37476	106281	0	0	8182	744955	0	0
2024-04-19 13:00:32			0	34283	0	0	0	17324	15930	152286	28064	952724	37476	106285	0	0	8182	744817	0	0
2024-04-19 13:01:32			0	34273	0	0	0	17329	15940	152270	27862	952759	37488	106287	0	0	8181	745267	0	0
2024-04-19 13:02:32			0	34281	0	0	0	17332	15960	152114	27606	952870	37489	106288	0	0	8182	744795	0	0
2024-04-19 13:03:32			0	34301	0	0	0	17348	15960	152106	27770	952923	37500	106294	0	0	8183	743816	0	0
2024-04-19 13:04:32			0	34324	0	0	0	17384	15970	152094	27509	952939	37468	106308	0	0	8184	742652	0	0
2024-04-19 13:05:32			0	34319	0	0	0	17418	15980	151982	27417	952982	37491	106321	0	0	8183	742857	0	0
2024-04-19 13:06:32			0	34356	0	0	0	17438	15990	152014	27601	953085	37481	106329	0	0	8185	741011	0	0
2024-04-19 13:07:32			0	34351	0	0	0	17433	15990	151902	27578	953085	37481	106327	0	0	8184	741255	0	0
2024-04-19 13:08:32			0	34347	0	0	0	17361	16000	151951	27899	953119	37503	106299	0	0	8185	741410	0	0
2024-04-19 13:09:32			0	34351	0	0	0	17431	16030	151991	27750	953195	37485	106326	0	0	8185	741095	0	0
2024-04-19 13:10:32			0	34316	0	0	0	17438	16020	152046	27467	953213	37484	106329	0	0	8182	742843	0	0
2024-04-19 13:11:32			0	34322	0	0	0	17498	16040	152054	27781	953298	37497	106352	0	0	8182	742470	0	0
2024-04-19 13:12:32			0	34283	0	0	0	17516	16060	152206	27355	953331	37508	106359	0	0	8179	744295	0	0
2024-04-19 13:13:32			0	34272	0	0	0	17527	16070	152266	27999	953339	37499	106363	0	0	8179	744793	0	0
2024-04-19 13:14:32			0	34257	0	0	0	17545	16080	152346	27670	953487	37510	106370	0	0	8178	745487	0	0
2024-04-19 13:15:32			0	34290	0	0	0	17540	16090	152190	27874	953503	37511	106368	0	0	8180	743832	0	0
2024-04-19 13:16:32			0	34279	0	0	0	17532	16100	152078	27502	953493	37501	106365	0	0	8179	744330	0	0
2024-04-19 13:17:32			0	34283	0	0	0	17535	16100	152138	27876	953467	37501	106366	0	0	8179	744134	0	0
2024-04-19 13:18:32			0	34281	0	0	0	17540	16100	152102	27781	953546	37523	106368	0	0	8179	744232	0	0
2024-04-19 13:19:32			0	34287	0	0	0	17542	16110	152062	27888	953544	37525	106369	0	0	8179	743899	0	0
2024-04-19 13:20:32			0	34312	0	0	0	17553	16120	151994	27788	953534	37525	106373	0	0	8181	742637	0	0
2024-04-19 13:21:32			0	34310	0	0	0	17529	16120	151770	27748	953586	37525	106364	0	0	8181	742735	0	0
2024-04-19 13:22:32			0	34359	0	0	0	17516	16130	151863	27659	953568	37514	106359	0	0	8184	740306	0	0
2024-04-19 13:23:32			0	34381	0	0	0	17514	16140	151683	27909	953566	37495	106358	0	0	8185	739195	0	0
2024-04-19 13:24:32			0	34381	0	0	0	17553	16140	151723	28105	953611	37504	106373	0	0	8185	739195	0	0
2024-04-19 13:25:32			0	34383	0	0	0	17561	16140	151643	27812	953645	37527	106376	0	0	8185	739098	0	0
2024-04-19 13:26:32			0	34435	0	0	0	17545	16140	151443	27751	953593	37527	106370	0	0	8188	736572	0	0
2024-04-19 13:27:32			0	34434	0	0	0	17550	16150	151295	27850	953635	37506	106372	0	0	8188	736581	0	0
2024-04-19 13:28:32			0	34480	0	0	0	17537	16170	151323	27966	953651	37518	106367	0	0	8191	734273	0	0
2024-04-19 13:29:32			0	34469	0	0	0	17522	16160	151223	27731	953617	37528	106361	0	0	8190	734844	0	0
2024-04-19 13:30:32			0	34496	0	0	0	17529	16170	151131	27568	953678	37506	106364	0	0	8192	733499	0	0
2024-04-19 13:31:32			0	34488	0	0	0	17545	16170	151087	27604	953633	37507	106370	0	0	8191	733886	0	0
2024-04-19 13:32:32			0	34508	0	0	0	17550	16170	151115	27687	953625	37529	106372	0	0	8192	732919	0	0
2024-04-19 13:33:32			0	34497	0	0	0	17542	16170	151191	27757	953678	37540	106369	0	0	8192	733450	0	0
2024-04-19 13:34:32			0	34509	0	0	0	17540	16180	151123	27549	953641	37518	106368	0	0	8193	732831	0	0
2024-04-19 13:35:32			0	34528	0	0	0	17566	16170	151003	27895	953686	37518	106378	0	0	8193	731953	0	0
2024-04-19 13:36:32			0	34554	0	0	0	17558	16190	150995	27838	953737	37508	106375	0	0	8195	730619	0	0
2024-04-19 13:37:32			0	34554	0	0	0	17561	16190	150903	27871	953737	37530	106376	0	0	8195	730619	0	0
2024-04-19 13:38:32			0	34554	0	0	0	17553	16190	150911	27930	953684	37530	106373	0	0	8195	730619	0	0
2024-04-19 13:39:32			0	34552	0	0	0	17563	16180	150947	27699	953728	37519	106377	0	0	8195	730755	0	0
2024-04-19 13:40:32			0	34553	0	0	0	17524	16180	150887	27635	953649	37530	106362	0	0	8195	730707	0	0
2024-04-19 13:41:32			0	34537	0	0	0	17519	16190	150927	27533	953718	37531	106360	0	0	8195	731439	0	0
2024-04-19 13:42:32			0	34526	0	0	0	17553	16190	151067	27611	953631	37508	106373	0	0	8193	731970	0	0
2024-04-19 13:43:32			0	34509	0	0	0	17555	16190	151091	27545	953710	37530	106374	0	0	8192	732791	0	0
2024-04-19 13:44:32			0	34529	0	0	0	17587	16190	151003	27850	953737	37508	106386	0	0	8193	731825	0	0
2024-04-19 13:45:32			0	34556	0	0	0	17594	16190	151015	27623	953763	37530	106389	0	0	8194	730523	0	0
2024-04-19 13:46:32			0	34542	0	0	0	17594	16200	150947	27544	953814	37521	106389	0	0	8194	731159	0	0
2024-04-19 13:47:32			0	34555	0	0	0	17625	16200	150839	27504	953893	37521	106401	0	0	8194	730532	0	0
2024-04-19 13:48:32			0	34503	0	0	0	17638	16210	151095	27713	953901	37532	106406	0	0	8191	733002	0	0
2024-04-19 13:49:32			0	34486	0	0	0	17550	16220	151231	27935	953891	37523	106372	0	0	8191	733784	0	0
2024-04-19 13:50:32			0	34408	0	0	0	17532	16210	151595	27906	953795	37510	106365	0	0	8187	737604	0	0
2024-04-19 13:51:32			0	34324	0	0	0	17433	16210	151746	27949	953637	37510	106327	0	0	8184	741691	0	0
2024-04-19 13:52:32			0	34227	0	0	0	17371	16190	152234	27991	953473	37498	106303	0	0	8179	746514	0	0
2024-04-19 13:53:32			0	34139	0	0	0	17371	16170	152774	27556	953422	37507	106303	0	0	8174	750918	0	0
2024-04-19 13:54:32			0	34051	0	0	0	17376	16150	153138	27642	953398	37495	106305	0	0	8169	755342	0	0
2024-04-19 13:55:32			0	34000	0	0	0	17358	16140	153382	27737	953321	37494	106298	0	0	8166	757909	0	0
2024-04-19 13:56:32			0	33922	0	0	0	17358	16120	153674	27932	953209	37492	106298	0	0	8162	761869	0	0
2024-04-19 13:57:32			0	33875	0	0	0	17355	16110	154006	27760	953272	37501	106297	0	0	8159	764254	0	0
2024-04-19 13:58:32			0	33844	0	0	0	17358	16100	154186	27547	953150	37501	106298	0	0	8157	765844	0	0
2024-04-19 13:59:32			0	33800	0	0	0	17353	16080	154378	27663	953179	37490	106296	0	0	8154	768131	0	0
2024-04-19 14:00:32			0	33773	0	0	0	17368	16080	154570	27789	953179	37479	106302	0	0	8152	769485	0	0
2024-04-19 14:01:32			0	33741	0	0	0	17384	16070	154590	27918	953128	37499	106308	0	0	8150	771135	0	0
2024-04-19 14:02:32			0	33726	0	0	0	17389	16070	154698	27417	953162	37478	106310	0	0	8149	771889	0	0
2024-04-19 14:03:32			0	33728	0	0	0	17389	16060	154762	28010	953173	37487	106310	0	0	8149	771831	0	0
2024-04-19 14:04:32			0	33705	0	0	0	17389	16060	154802	27822	953094	37498	106310	0	0	8148	772989	0	0
2024-04-19 14:05:32			0	33688	0	0	0	17407	16060	154850	27814	953243	37498	106317	0	0	8147	773846	0	0
2024-04-19 14:06:32			0	33706	0	0	0	17415	16060	154862	27621	953199	37508	106320	0	0	8148	772938	0	0
2024-04-19 14:07:32			0	33709	0	0	0	17433	16070	154938	27618	953215	37500	106327	0	0	8148	772746	0	0
2024-04-19 14:08:32			0	33708	0	0	0	17438	16070	154902	27848	953233	37499	106329	0	0	8147	772796	0	0
2024-04-19 14:09:32			0	33716	0	0	0	17444	16070	154838	27627	953260	37509	106331	0	0	8148	772393	0	0
2024-04-19 14:10:32			0	33712	0	0	0	17436	16070	154778	27854	953294	37510	106328	0	0	8148	772594	0	0
2024-04-19 14:11:32			0	33701	0	0	0	17446	16070	154922	27843	953260	37520	106332	0	0	8147	773149	0	0
2024-04-19 14:12:32			0	33696	0	0	0	17451	16080	154878	27899	953337	37500	106334	0	0	8147	773359	0	0
2024-04-19 14:13:32			0	33718	0	0	0	17444	16080	154926	27433	953329	37510	106331	0	0	8148	772251	0	0
2024-04-19 14:14:32			0	33707	0	0	0	17418	16080	154882	27483	953284	37511	106321	0	0	8148	772805	0	0
2024-04-19 14:15:32			0	33707	0	0	0	17407	16080	154938	27483	953329	37521	106317	0	0	8148	772805	0	0
2024-04-19 14:16:32			0	33662	0	0	0	17418	16070	155046	27836	953268	37500	106321	0	0	8145	775116	0	0
2024-04-19 14:17:32			0	33678	0	0	0	17397	16070	155094	27958	953242	37489	106313	0	0	8146	774309	0	0
2024-04-19 14:18:32			0	33652	0	0	0	17407	16060	155222	27500	953199	37487	106317	0	0	8145	775663	0	0
2024-04-19 14:19:32			0	33648	0	0	0	17389	16070	155222	28060	953102	37488	106310	0	0	8145	775824	0	0
2024-04-19 14:20:32			0	33613	0	0	0	17410	16060	155298	27930	953164	37508	106318	0	0	8142	777636	0	0
2024-04-19 14:21:32			0	33625	0	0	0	17412	16060	155286	27566	953243	37508	106319	0	0	8143	777029	0	0
2024-04-19 14:22:32			0	33610	0	0	0	17407	16060	155346	27809	953191	37487	106317	0	0	8142	777788	0	0
2024-04-19 14:23:32			0	33594	0	0	0	17415	16060	155526	27793	953252	37508	106320	0	0	8141	778599	0	0
2024-04-19 14:24:32			0	33577	0	0	0	17407	16070	155406	27762	953260	37499	106317	0	0	8140	779419	0	0
2024-04-19 14:25:32			0	33567	0	0	0	17415	16060	155462	27975	953243	37487	106320	0	0	8139	779968	0	0
2024-04-19 14:26:32			0	33553	0	0	0	17386	16070	155665	27977	953260	37509	106309	0	0	8139	780637	0	0
2024-04-19 14:27:32			0	33524	0	0	0	17399	16060	155717	27715	953199	37498	106314	0	0	8137	782153	0	0
2024-04-19 14:28:32			0	33501	0	0	0	17394	16060	155869	27447	953217	37487	106312	0	0	8136	783324	0	0
2024-04-19 14:29:32			0	33477	0	0	0	17389	16060	155953	27696	953199	37498	106310	0	0	8135	784547	0	0
2024-04-19 14:30:32			0	33465	0	0	0	17386	16050	155953	27609	953209	37475	106309	0	0	8134	785202	0	0
2024-04-19 14:31:32			0	33453	0	0	0	17399	16060	156073	27949	953199	37487	106314	0	0	8133	785772	0	0
2024-04-19 14:32:32			0	33428	0	0	0	17402	16050	156133	27786	953183	37508	106315	0	0	8131	787092	0	0
2024-04-19 14:33:32			0	33426	0	0	0	17410	16050	156237	27795	953209	37498	106318	0	0	8131	787194	0	0
2024-04-19 14:34:32			0	33430	0	0	0	17412	16060	156173	27821	953191	37520	106319	0	0	8131	786947	0	0
2024-04-19 14:35:32			0	33416	0	0	0	17420	16060	156357	27694	953225	37487	106322	0	0	8130	787663	0	0
2024-04-19 14:36:32			0	33415	0	0	0	17420	16060	156373	27722	953199	37498	106322	0	0	8130	787714	0	0
2024-04-19 14:37:32			0	33408	0	0	0	17428	16060	156425	27920	953225	37498	106325	0	0	8130	788073	0	0
2024-04-19 14:38:32			0	33387	0	0	0	17418	16060	156405	27680	953252	37508	106321	0	0	8129	789148	0	0
2024-04-19 14:39:32			0	33380	0	0	0	17397	16070	156369	27621	953268	37510	106313	0	0	8129	789464	0	0
2024-04-19 14:40:32			0	33358	0	0	0	17415	16060	156565	27703	953278	37508	106320	0	0	8127	790635	0	0
2024-04-19 14:41:32			0	33339	0	0	0	17412	16070	156585	27537	953233	37499	106319	0	0	8126	791568	0	0
2024-04-19 14:42:32			0	33342	0	0	0	17420	16060	156701	28157	953191	37508	106322	0	0	8126	791457	0	0
2024-04-19 14:43:32			0	33331	0	0	0	17423	16070	156705	27736	953286	37509	106323	0	0	8125	791979	0	0
2024-04-19 14:44:32			0	33321	0	0	0	17425	16070	156793	27729	953233	37499	106324	0	0	8125	792494	0	0
2024-04-19 14:45:32			0	33303	0	0	0	17428	16070	156821	27473	953268	37500	106325	0	0	8124	793419	0	0
2024-04-19 14:46:32			0	33289	0	0	0	17428	16070	156945	27486	953207	37509	106325	0	0	8123	794140	0	0
2024-04-19 14:47:32			0	33276	0	0	0	17428	16070	157017	27822	953268	37510	106325	0	0	8122	794810	0	0
2024-04-19 14:48:32			0	33246	0	0	0	17410	16070	157141	27326	953268	37521	106318	0	0	8120	796358	0	0
2024-04-19 14:49:32			0	33217	0	0	0	17425	16070	157217	27371	953260	37488	106324	0	0	8118	797856	0	0
2024-04-19 14:50:32			0	33203	0	0	0	17412	16060	157357	27873	953252	37498	106319	0	0	8118	798623	0	0
2024-04-19 14:51:32			0	33177	0	0	0	17410	16060	157413	27592	953243	37498	106318	0	0	8116	799970	0	0
2024-04-19 14:52:32			0	33168	0	0	0	17412	16070	157573	27445	953260	37499	106319	0	0	8116	800393	0	0
2024-04-19 14:53:32			0	33150	0	0	0	17412	16060	157597	27848	953217	37508	106319	0	0	8115	801370	0	0
2024-04-19 14:54:32			0	33117	0	0	0	17415	16070	157749	27675	953233	37499	106320	0	0	8113	803040	0	0
2024-04-19 14:55:32			0	33106	0	0	0	17399	16060	157765	27412	953270	37487	106314	0	0	8112	803656	0	0
2024-04-19 14:56:32			0	33084	0	0	0	17397	16060	157949	27466	953146	37508	106313	0	0	8111	804801	0	0
2024-04-19 14:57:32			0	33056	0	0	0	17389	16060	158009	27873	953191	37476	106310	0	0	8109	806260	0	0
2024-04-19 14:58:32			0	32999	0	0	0	17389	16060	158341	27483	953199	37487	106310	0	0	8106	809237	0	0
2024-04-19 14:59:32			0	32982	0	0	0	17394	16060	158437	27876	953217	37508	106312	0	0	8105	810127	0	0
2024-04-19 15:00:32			0	32964	0	0	0	17392	16050	158509	27635	953183	37486	106311	0	0	8104	811114	0	0
2024-04-19 15:01:32			0	32945	0	0	0	17399	16050	158637	27807	953175	37498	106314	0	0	8102	812110	0	0
2024-04-19 15:02:32			0	32920	0	0	0	17405	16050	158701	27512	953183	37508	106316	0	0	8101	813423	0	0
2024-04-19 15:03:32			0	32911	0	0	0	17386	16050	158781	27866	953183	37498	106309	0	0	8100	813896	0	0
2024-04-19 15:04:32			0	32903	0	0	0	17405	16060	158869	27504	953138	37487	106316	0	0	8100	814273	0	0
2024-04-19 15:05:32			0	32878	0	0	0	17397	16050	159033	27786	953183	37508	106313	0	0	8098	815632	0	0
2024-04-19 15:06:32			0	32857	0	0	0	17386	16060	159053	27685	953217	37508	106309	0	0	8097	816695	0	0
2024-04-19 15:07:32			0	32850	0	0	0	17394	16050	159129	27897	953235	37508	106312	0	0	8097	817108	0	0
2024-04-19 15:08:32			0	32836	0	0	0	17392	16060	159205	27654	953225	37487	106311	0	0	8096	817802	0	0
2024-04-19 15:09:32			0	32797	0	0	0	17399	16060	159369	27718	953243	37508	106314	0	0	8093	819863	0	0
2024-04-19 15:10:32			0	32772	0	0	0	17397	16040	159504	27696	953140	37507	106313	0	0	8092	821274	0	0
2024-04-19 15:11:32			0	32750	0	0	0	17394	16050	159576	27717	953201	37519	106312	0	0	8090	822396	0	0
2024-04-19 15:12:32			0	32745	0	0	0	17407	16050	159732	27932	953209	37475	106317	0	0	8090	822661	0	0
2024-04-19 15:13:32			0	32715	0	0	0	17402	16060	159740	27857	953252	37508	106315	0	0	8088	824209	0	0
2024-04-19 15:14:32			0	32716	0	0	0	17399	16060	159796	27663	953252	37487	106314	0	0	8088	824156	0	0
2024-04-19 15:15:32			0	32697	0	0	0	17399	16050	159812	27457	953235	37498	106314	0	0	8087	825211	0	0
2024-04-19 15:16:32			0	32652	0	0	0	17405	16050	160044	27535	953209	37508	106316	0	0	8084	827606	0	0
2024-04-19 15:17:32			0	32645	0	0	0	17405	16060	160204	27724	953296	37487	106316	0	0	8084	827935	0	0
2024-04-19 15:18:32			0	32642	0	0	0	17405	16050	160188	27582	953262	37498	106316	0	0	8084	828140	0	0
2024-04-19 15:19:32			0	32632	0	0	0	17410	16050	160356	27464	953209	37508	106318	0	0	8083	828673	0	0
2024-04-19 15:20:32			0	32605	0	0	0	17423	16060	160432	27474	953225	37498	106323	0	0	8081	830070	0	0
2024-04-19 15:21:32			0	32582	0	0	0	17425	16060	160452	27871	953252	37520	106324	0	0	8080	831300	0	0
2024-04-19 15:22:32			0	32561	0	0	0	17428	16060	160388	28046	953331	37508	106325	0	0	8078	832425	0	0
2024-04-19 15:23:32			0	32575	0	0	0	17428	16060	160536	28164	953296	37520	106325	0	0	8079	831675	0	0
2024-04-19 15:24:32			0	32569	0	0	0	17467	16070	160492	27864	953286	37499	106340	0	0	8078	831951	0	0
2024-04-19 15:25:32			0	32600	0	0	0	17470	16070	160436	27822	953321	37521	106341	0	0	8080	830293	0	0
2024-04-19 15:26:32			0	32690	0	0	0	17483	16070	159956	27658	953365	37509	106346	0	0	8085	825494	0	0
2024-04-19 15:27:32			0	32702	0	0	0	17485	16080	159892	27627	953390	37522	106347	0	0	8086	824811	0	0
2024-04-19 15:28:32			0	32706	0	0	0	17472	16090	159868	28107	953424	37511	106342	0	0	8087	824554	0	0
2024-04-19 15:29:32			0	32723	0	0	0	17493	16080	159644	27873	953363	37511	106350	0	0	8087	823695	0	0
2024-04-19 15:30:32			0	32757	0	0	0	17493	16090	159548	27911	953406	37512	106350	0	0	8089	821847	0	0
2024-04-19 15:31:32			0	32831	0	0	0	17485	16100	159389	27777	953440	37512	106347	0	0	8094	817890	0	0
2024-04-19 15:32:32			0	32851	0	0	0	17514	16100	159101	28148	953440	37512	106358	0	0	8095	816834	0	0
2024-04-19 15:33:32			0	32981	0	0	0	17514	16110	158493	27748	953535	37535	106358	0	0	8103	809961	0	0
2024-04-19 15:34:32			0	33053	0	0	0	17514	16110	158153	27779	953517	37525	106358	0	0	8107	806199	0	0
2024-04-19 15:35:32			0	33118	0	0	0	17514	16120	157757	27289	953552	37536	106358	0	0	8111	802772	0	0
2024-04-19 15:36:32			0	33213	0	0	0	17532	16110	157269	27933	953544	37525	106365	0	0	8117	797891	0	0
2024-04-19 15:37:32			0	33330	0	0	0	17527	16120	156673	27544	953534	37525	106363	0	0	8124	791817	0	0
2024-04-19 15:38:32			0	33364	0	0	0	17511	16120	156645	27928	953552	37513	106357	0	0	8126	790072	0	0
2024-04-19 15:39:32			0	33401	0	0	0	17522	16130	156353	27679	953621	37525	106361	0	0	8128	788133	0	0
2024-04-19 15:40:32			0	33459	0	0	0	17498	16120	156073	27812	953560	37514	106352	0	0	8132	785211	0	0
2024-04-19 15:41:32			0	33446	0	0	0	17506	16130	156245	27614	953542	37514	106355	0	0	8131	785833	0	0
2024-04-19 15:42:32			0	33476	0	0	0	17503	16140	155981	27795	953532	37515	106354	0	0	8133	784260	0	0
2024-04-19 15:43:32			0	33623	0	0	0	17550	16130	155390	27852	953595	37514	106372	0	0	8141	776836	0	0
2024-04-19 15:44:32			0	33704	0	0	0	17581	16140	155014	27644	953690	37526	106384	0	0	8145	772706	0	0
2024-04-19 15:45:32			0	33756	0	0	0	17594	16140	154706	27651	953698	37527	106389	0	0	8148	770090	0	0
2024-04-19 15:46:32			0	33785	0	0	0	17563	16170	154526	28041	953704	37540	106377	0	0	8150	768509	0	0
2024-04-19 15:47:32			0	33834	0	0	0	17587	16180	154374	27918	953852	37530	106386	0	0	8153	766014	0	0
2024-04-19 15:48:32			0	33860	0	0	0	17571	16170	154214	28079	953739	37530	106380	0	0	8155	764755	0	0
2024-04-19 15:49:32			0	33892	0	0	0	17527	16180	154078	27588	953781	37530	106363	0	0	8157	763117	0	0
2024-04-19 15:50:32			0	33871	0	0	0	17498	16180	154146	27647	953781	37519	106352	0	0	8156	764165	0	0
2024-04-19 15:51:32			0	33833	0	0	0	17470	16180	154346	27900	953649	37530	106341	0	0	8155	766064	0	0
2024-04-19 15:52:32			0	33785	0	0	0	17436	16170	154446	27654	953625	37518	106328	0	0	8152	768509	0	0
2024-04-19 15:53:32			0	33741	0	0	0	17459	16150	154774	27710	953574	37517	106337	0	0	8149	770802	0	0
2024-04-19 15:54:32			0	33675	0	0	0	17444	16150	154958	27765	953548	37539	106331	0	0	8146	774126	0	0
2024-04-19 15:55:32			0	33674	0	0	0	17449	16150	155026	27847	953556	37517	106333	0	0	8146	774176	0	0
2024-04-19 15:56:32			0	33641	0	0	0	17436	16150	155058	27564	953574	37506	106328	0	0	8144	775842	0	0
2024-04-19 15:57:32			0	33627	0	0	0	17444	16140	155174	27566	953540	37527	106331	0	0	8143	776592	0	0
2024-04-19 15:58:32			0	33625	0	0	0	17446	16150	155362	27810	953522	37495	106332	0	0	8143	776651	0	0
2024-04-19 15:59:32			0	33602	0	0	0	17444	16130	155322	27791	953516	37514	106331	0	0	8141	777899	0	0
2024-04-19 16:00:32			0	33607	0	0	0	17441	16120	155558	27514	953481	37514	106330	0	0	8142	777688	0	0
2024-04-19 16:01:32			0	33571	0	0	0	17464	16130	155505	27625	953489	37514	106339	0	0	8139	779471	0	0
2024-04-19 16:02:32			0	33568	0	0	0	17464	16130	155485	28072	953489	37503	106339	0	0	8139	779623	0	0
2024-04-19 16:03:32			0	33593	0	0	0	17464	16120	155542	28011	953534	37525	106339	0	0	8140	778397	0	0
2024-04-19 16:04:32			0	33606	0	0	0	17480	16130	155526	27793	953524	37515	106345	0	0	8141	777697	0	0
2024-04-19 16:05:32			0	33565	0	0	0	17498	16130	155537	27958	953550	37526	106352	0	0	8138	779775	0	0
2024-04-19 16:06:32			0	33606	0	0	0	17480	16140	155418	28041	953566	37516	106345	0	0	8141	777655	0	0
2024-04-19 16:07:32			0	33610	0	0	0	17498	16150	155382	27509	953601	37506	106352	0	0	8141	777410	0	0
2024-04-19 16:08:32			0	33638	0	0	0	17514	16150	155218	27414	953574	37539	106358	0	0	8142	775994	0	0
2024-04-19 16:09:32			0	33673	0	0	0	17483	16140	155126	27729	953593	37538	106346	0	0	8145	774268	0	0
2024-04-19 16:10:32			0	33679	0	0	0	17475	16150	155162	27602	953548	37506	106343	0	0	8145	773924	0	0
2024-04-19 16:11:32			0	33653	0	0	0	17477	16140	155118	27838	953505	37515	106344	0	0	8144	775278	0	0
2024-04-19 16:12:32			0	33651	0	0	0	17483	16140	155246	27571	953619	37516	106346	0	0	8144	775379	0	0
2024-04-19 16:13:32			0	33666	0	0	0	17483	16150	155162	27916	953574	37517	106346	0	0	8145	774580	0	0
2024-04-19 16:14:32			0	33678	0	0	0	17514	16150	155106	27868	953601	37517	106358	0	0	8145	773974	0	0
2024-04-19 16:15:32			0	33714	0	0	0	17501	16140	154890	28102	953593	37516	106353	0	0	8147	772202	0	0
2024-04-19 16:16:32			0	33717	0	0	0	17506	16140	154854	27542	953593	37527	106355	0	0	8147	772051	0	0
2024-04-19 16:17:32			0	33774	0	0	0	17514	16150	154690	27998	953680	37506	106358	0	0	8150	769144	0	0
2024-04-19 16:18:32			0	33782	0	0	0	17532	16150	154590	27414	953627	37517	106365	0	0	8151	768743	0	0
2024-04-19 16:19:32			0	33827	0	0	0	17527	16150	154526	27814	953714	37517	106363	0	0	8153	766488	0	0
2024-04-19 16:20:32			0	33849	0	0	0	17535	16150	154350	27668	953688	37517	106366	0	0	8154	765388	0	0
2024-04-19 16:21:32			0	33828	0	0	0	17542	16170	154410	27672	953704	37518	106369	0	0	8153	766355	0	0
2024-04-19 16:22:32			0	33869	0	0	0	17548	16170	154246	27816	953704	37540	106371	0	0	8155	764306	0	0
2024-04-19 16:23:32			0	33899	0	0	0	17561	16160	154138	27462	953722	37517	106376	0	0	8157	762850	0	0
2024-04-19 16:24:32			0	33934	0	0	0	17561	16170	153886	27708	953730	37529	106376	0	0	8159	761066	0	0
2024-04-19 16:25:32			0	33976	0	0	0	17571	16170	153734	27601	953757	37529	106380	0	0	8161	758978	0	0
2024-04-19 16:26:32			0	33967	0	0	0	17568	16170	153682	27464	953730	37529	106379	0	0	8161	759425	0	0
2024-04-19 16:27:32			0	33986	0	0	0	17574	16180	153706	27365	953808	37530	106381	0	0	8162	758440	0	0
2024-04-19 16:28:32			0	34000	0	0	0	17574	16180	153574	27996	953808	37530	106381	0	0	8163	757746	0	0
2024-04-19 16:29:32			0	34017	0	0	0	17589	16180	153542	27708	953808	37541	106387	0	0	8163	756903	0	0
2024-04-19 16:30:32			0	34063	0	0	0	17589	16190	153362	27842	953868	37541	106387	0	0	8166	754586	0	0
2024-04-19 16:31:32			0	34058	0	0	0	17563	16190	153222	27838	953824	37531	106377	0	0	8166	754833	0	0
2024-04-19 16:32:32			0	34034	0	0	0	17576	16200	153514	27640	953893	37532	106382	0	0	8165	755980	0	0
2024-04-19 16:33:32			0	34032	0	0	0	17581	16200	153458	27862	953919	37532	106384	0	0	8165	756078	0	0
2024-04-19 16:34:32			0	34047	0	0	0	17599	16210	153466	27824	953901	37532	106391	0	0	8165	755295	0	0
2024-04-19 16:35:32			0	34056	0	0	0	17599	16210	153210	28006	953901	37532	106391	0	0	8166	754850	0	0
2024-04-19 16:36:32			0	34096	0	0	0	17594	16210	153134	27547	953901	37532	106389	0	0	8168	752875	0	0
2024-04-19 16:37:32			0	34104	0	0	0	17589	16210	153114	27507	953927	37521	106387	0	0	8169	752480	0	0
2024-04-19 16:38:32			0	34090	0	0	0	17599	16220	153142	27767	954031	37534	106391	0	0	8168	753130	0	0
2024-04-19 16:39:32			0	34100	0	0	0	17592	16230	153198	28155	953986	37534	106388	0	0	8168	752596	0	0
2024-04-19 16:40:32			0	34104	0	0	0	17612	16230	153130	27795	953986	37534	106396	0	0	8168	752399	0	0
2024-04-19 16:41:32			0	34097	0	0	0	17607	16220	153022	27717	954004	37555	106394	0	0	8168	752785	0	0
2024-04-19 16:42:32			0	34103	0	0	0	17553	16230	153066	27480	953941	37535	106373	0	0	8169	752448	0	0
2024-04-19 16:43:32			0	34059	0	0	0	17522	16230	153318	27947	953881	37523	106361	0	0	8167	754621	0	0
2024-04-19 16:44:32			0	33995	0	0	0	17522	16220	153522	27689	953793	37534	106361	0	0	8163	757830	0	0
2024-04-19 16:45:32			0	33962	0	0	0	17527	16210	153746	27670	953777	37522	106363	0	0	8161	759509	0	0
2024-04-19 16:46:32			0	33913	0	0	0	17519	16210	153862	27609	953769	37521	106360	0	0	8159	761947	0	0
2024-04-19 16:47:32			0	33893	0	0	0	17532	16200	154046	27633	953779	37521	106365	0	0	8157	762984	0	0
2024-04-19 16:48:32			0	33903	0	0	0	17545	16190	154034	27381	953797	37531	106370	0	0	8158	762527	0	0
2024-04-19 16:49:32			0	33885	0	0	0	17529	16200	154050	27436	953779	37521	106364	0	0	8157	763384	0	0
2024-04-19 16:50:32			0	33873	0	0	0	17548	16190	154122	27431	953824	37531	106371	0	0	8156	764024	0	0
2024-04-19 16:51:32			0	33844	0	0	0	17537	16200	154214	27287	953814	37532	106367	0	0	8154	765431	0	0
2024-04-19 16:52:32			0	33850	0	0	0	17542	16190	154222	27545	953797	37531	106369	0	0	8155	765172	0	0
2024-04-19 16:53:32			0	33853	0	0	0	17561	16200	154170	28277	953840	37532	106376	0	0	8154	764981	0	0
2024-04-19 16:54:32			0	33876	0	0	0	17563	16200	154118	27526	953866	37542	106377	0	0	8156	763833	0	0
2024-04-19 16:55:32			0	33900	0	0	0	17574	16200	154078	27900	953866	37532	106381	0	0	8157	762635	0	0
2024-04-19 16:56:32			0	33896	0	0	0	17581	16200	154018	27859	953919	37532	106384	0	0	8157	762835	0	0
2024-04-19 16:57:32			0	33917	0	0	0	17561	16220	154002	27694	953917	37544	106376	0	0	8158	761706	0	0
2024-04-19 16:58:32			0	33933	0	0	0	17576	16210	153830	27692	953856	37533	106382	0	0	8159	760951	0	0
2024-04-19 16:59:32			0	33927	0	0	0	17571	16210	153886	27932	953856	37533	106380	0	0	8159	761250	0	0
2024-04-19 17:00:32			0	33933	0	0	0	17561	16210	153910	27715	953875	37532	106376	0	0	8159	760951	0	0
2024-04-19 17:01:32			0	33916	0	0	0	17566	16210	153906	27907	953883	37533	106378	0	0	8158	761797	0	0
2024-04-19 17:02:32			0	33948	0	0	0	17581	16210	153798	27783	953883	37533	106384	0	0	8160	760205	0	0
2024-04-19 17:03:32			0	33963	0	0	0	17587	16210	153762	27327	953901	37521	106386	0	0	8160	759459	0	0
2024-04-19 17:04:32			0	33977	0	0	0	17594	16230	153670	27640	953933	37534	106389	0	0	8161	758682	0	0
2024-04-19 17:05:32			0	33996	0	0	0	17592	16220	153626	27935	953978	37534	106388	0	0	8162	757781	0	0
2024-04-19 17:06:32			0	34007	0	0	0	17602	16220	153506	27705	953864	37544	106392	0	0	8163	757235	0	0
2024-04-19 17:07:32			0	34038	0	0	0	17602	16210	153414	27890	953962	37533	106392	0	0	8165	755741	0	0
2024-04-19 17:08:32			0	34050	0	0	0	17605	16220	153374	27888	954004	37555	106393	0	0	8165	755106	0	0
2024-04-19 17:09:32			0	34053	0	0	0	17589	16230	153338	27483	953960	37544	106387	0	0	8166	754917	0	0
2024-04-19 17:10:32			0	34062	0	0	0	17599	16230	153314	27720	953960	37544	106391	0	0	8166	754472	0	0
2024-04-19 17:11:32			0	34065	0	0	0	17610	16230	153330	27559	953986	37544	106395	0	0	8166	754324	0	0
2024-04-19 17:12:32			0	34033	0	0	0	17589	16230	153478	27651	953986	37544	106387	0	0	8165	755906	0	0
2024-04-19 17:13:32			0	34016	0	0	0	17638	16220	153322	27848	953952	37534	106406	0	0	8163	756789	0	0
2024-04-19 17:14:32			0	34043	0	0	0	17667	16220	153326	27892	954004	37544	106417	0	0	8164	755452	0	0
2024-04-19 17:15:32			0	34104	0	0	0	17711	16240	153162	27694	954063	37557	106434	0	0	8167	752358	0	0
2024-04-19 17:16:32			0	34185	0	0	0	17709	16250	152726	27386	954151	37545	106433	0	0	8171	748332	0	0
2024-04-19 17:17:32			0	34257	0	0	0	17722	16260	152338	27544	954175	37570	106438	0	0	8175	744763	0	0
2024-04-19 17:18:32			0	34345	0	0	0	17729	16270	151990	27493	954289	37559	106441	0	0	8180	740427	0	0
2024-04-19 17:19:32			0	34388	0	0	0	17719	16280	151659	27718	954339	37550	106437	0	0	8183	738296	0	0
2024-04-19 17:20:32			0	34442	0	0	0	17644	16300	151555	27609	954311	37562	106408	0	0	8188	735596	0	0
2024-04-19 17:21:32			0	34352	0	0	0	17664	16290	151751	27835	954197	37550	106416	0	0	8182	740007	0	0
2024-04-19 17:22:32			0	34353	0	0	0	17662	16280	151859	27637	954147	37549	106415	0	0	8182	739998	0	0
2024-04-19 17:23:32			0	34379	0	0	0	17625	16270	151919	27355	954112	37548	106401	0	0	8184	738773	0	0
2024-04-19 17:24:32			0	34315	0	0	0	17623	16270	152062	27312	954033	37538	106400	0	0	8180	741890	0	0
2024-04-19 17:25:32			0	34281	0	0	0	17594	16270	152262	27428	954086	37538	106389	0	0	8179	743549	0	0
2024-04-19 17:26:32			0	34253	0	0	0	17620	16260	152418	27438	954070	37548	106399	0	0	8177	744959	0	0
2024-04-19 17:27:32			0	34226	0	0	0	17594	16250	152530	27635	954027	37536	106389	0	0	8176	746321	0	0
2024-04-19 17:28:32			0	34200	0	0	0	17545	16250	152538	27694	954053	37536	106370	0	0	8175	747596	0	0
2024-04-19 17:29:32			0	34154	0	0	0	17537	16250	152702	28594	953940	37535	106367	0	0	8173	749855	0	0
2024-04-19 17:30:32			0	34126	0	0	0	17532	16230	152898	27523	953889	37535	106365	0	0	8171	751315	0	0
2024-04-19 17:31:32			0	34067	0	0	0	17550	16220	153178	27705	953917	37523	106372	0	0	8167	754266	0	0
2024-04-19 17:32:32			0	34056	0	0	0	17574	16230	153254	27651	953907	37534	106381	0	0	8166	754769	0	0
2024-04-19 17:33:32			0	34084	0	0	0	17605	16220	153078	27609	953952	37534	106393	0	0	8167	753426	0	0
2024-04-19 17:34:32			0	34143	0	0	0	17589	16220	152982	27319	953952	37534	106387	0	0	8171	750518	0	0
2024-04-19 17:35:32			0	34168	0	0	0	17610	16230	152834	27710	954021	37556	106395	0	0	8172	749248	0	0
2024-04-19 17:36:32			0	34213	0	0	0	17589	16240	152602	27892	954029	37545	106387	0	0	8175	746998	0	0
2024-04-19 17:37:32			0	34225	0	0	0	17612	16230	152454	27751	953986	37544	106396	0	0	8175	746451	0	0
2024-04-19 17:38:32			0	34233	0	0	0	17594	16240	152470	27803	954081	37557	106389	0	0	8176	746018	0	0
2024-04-19 17:39:32			0	34246	0	0	0	17579	16230	152394	27666	953968	37545	106383	0	0	8177	745422	0	0
2024-04-19 17:40:32			0	34211	0	0	0	17524	16230	152554	27720	953933	37534	106362	0	0	8176	747137	0	0
2024-04-19 17:41:32			0	34133	0	0	0	17527	16230	152810	27492	953828	37534	106363	0	0	8171	750970	0	0
2024-04-19 17:42:32			0	34085	0	0	0	17514	16210	153058	27805	953830	37522	106358	0	0	8169	753418	0	0
2024-04-19 17:43:32			0	34048	0	0	0	17550	16220	153322	27621	953812	37534	106372	0	0	8166	755205	0	0
2024-04-19 17:44:32			0	34035	0	0	0	17555	16200	153438	27639	953893	37532	106374	0	0	8165	755930	0	0
2024-04-19 17:45:32			0	34008	0	0	0	17581	16200	153378	27459	953866	37542	106384	0	0	8163	757267	0	0
2024-04-19 17:46:32			0	34040	0	0	0	17592	16220	153394	27673	953970	37555	106388	0	0	8165	755601	0	0
2024-04-19 17:47:32			0	34059	0	0	0	17605	16220	153338	27635	953970	37555	106393	0	0	8166	754661	0	0
2024-04-19 17:48:32			0	34100	0	0	0	17615	16210	153118	27616	953935	37554	106397	0	0	8168	752677	0	0
2024-04-19 17:49:32			0	34125	0	0	0	17610	16220	152910	27341	954057	37544	106395	0	0	8170	751404	0	0
2024-04-19 17:50:32			0	34178	0	0	0	17612	16240	152878	27255	954081	37557	106396	0	0	8173	748716	0	0
2024-04-19 17:51:32			0	34220	0	0	0	17625	16250	152682	27876	954124	37545	106401	0	0	8175	746615	0	0
2024-04-19 17:52:32			0	34266	0	0	0	17618	16240	152386	27478	954116	37568	106398	0	0	8178	744403	0	0
2024-04-19 17:53:32			0	34290	0	0	0	17605	16250	152194	27628	954124	37545	106393	0	0	8179	743190	0	0
2024-04-19 17:54:32			0	34314	0	0	0	17612	16260	152154	27499	954088	37537	106396	0	0	8181	741978	0	0
2024-04-19 17:55:32			0	34342	0	0	0	17615	16250	152054	27348	954159	37557	106397	0	0	8182	740654	0	0
2024-04-19 17:56:32			0	34398	0	0	0	17631	16260	151915	27417	954141	37547	106403	0	0	8185	737890	0	0
2024-04-19 17:57:32			0	34413	0	0	0	17638	16260	151739	27852	954149	37548	106406	0	0	8186	737162	0	0
2024-04-19 17:58:32			0	34404	0	0	0	17657	16280	151735	27913	954199	37549	106413	0	0	8185	737519	0	0
2024-04-19 17:59:32			0	34434	0	0	0	17662	16270	151591	27348	954218	37548	106415	0	0	8187	736103	0	0
2024-04-19 18:00:32			0	34466	0	0	0	17670	16290	151523	27608	954268	37550	106418	0	0	8188	734474	0	0
2024-04-19 18:01:32			0	34519	0	0	0	17667	16290	151351	27767	954268	37550	106417	0	0	8191	731913	0	0
2024-04-19 18:02:32			0	34519	0	0	0	17651	16300	151279	27440	954285	37562	106411	0	0	8192	731873	0	0
2024-04-19 18:03:32			0	34538	0	0	0	17659	16290	151143	27407	954303	37561	106414	0	0	8193	730996	0	0
2024-04-19 18:04:32			0	34576	0	0	0	17659	16290	151103	27448	954329	37550	106414	0	0	8195	729166	0	0
2024-04-19 18:05:32			0	34565	0	0	0	17680	16290	151031	27578	954355	37550	106422	0	0	8194	729695	0	0
2024-04-19 18:06:32			0	34593	0	0	0	17693	16310	150987	27852	954414	37562	106427	0	0	8195	728269	0	0
2024-04-19 18:07:32			0	34610	0	0	0	17683	16300	150839	27868	954424	37541	106423	0	0	8196	727491	0	0
2024-04-19 18:08:32			0	34606	0	0	0	17696	16310	150779	27357	954335	37551	106428	0	0	8196	727644	0	0
2024-04-19 18:09:32			0	34640	0	0	0	17703	16320	150603	27568	954404	37585	106431	0	0	8198	725973	0	0
2024-04-19 18:10:32			0	34677	0	0	0	17696	16320	150519	27291	954370	37563	106428	0	0	8200	724200	0	0
2024-04-19 18:11:32			0	34694	0	0	0	17711	16330	150431	27502	954420	37554	106434	0	0	8201	723348	0	0
2024-04-19 18:12:32			0	34691	0	0	0	17698	16320	150463	27481	954483	37553	106429	0	0	8201	723530	0	0
2024-04-19 18:13:32			0	34703	0	0	0	17657	16320	150375	27537	954431	37564	106413	0	0	8202	722956	0	0
2024-04-19 18:14:32			0	34687	0	0	0	17685	16330	150467	27443	954386	37554	106424	0	0	8201	723683	0	0
2024-04-19 18:15:32			0	34711	0	0	0	17698	16340	150363	27215	954481	37554	106429	0	0	8202	722496	0	0
2024-04-19 18:16:32			0	34706	0	0	0	17685	16340	150423	27374	954429	37554	106424	0	0	8202	722735	0	0
2024-04-19 18:17:32			0	34715	0	0	0	17675	16330	150239	27409	954368	37565	106420	0	0	8203	722344	0	0
2024-04-19 18:18:32			0	34710	0	0	0	17667	16340	150311	27303	954376	37543	106417	0	0	8202	722544	0	0
2024-04-19 18:19:32			0	34711	0	0	0	17670	16330	150287	27298	954394	37576	106418	0	0	8202	722535	0	0
2024-04-19 18:20:32			0	34719	0	0	0	17664	16330	150319	27428	954368	37543	106416	0	0	8203	722153	0	0
2024-04-19 18:21:32			0	34718	0	0	0	17675	16330	150435	27462	954420	37554	106420	0	0	8203	722201	0	0
2024-04-19 18:22:32			0	34694	0	0	0	17662	16340	150387	27015	954481	37565	106415	0	0	8202	723309	0	0
2024-04-19 18:23:32			0	34687	0	0	0	17654	16340	150423	27300	954402	37554	106412	0	0	8201	723643	0	0
2024-04-19 18:24:32			0	34691	0	0	0	17651	16320	150383	27137	954378	37553	106411	0	0	8202	723530	0	0
2024-04-19 18:25:32			0	34700	0	0	0	17631	16330	150463	27260	954360	37565	106403	0	0	8202	723061	0	0
2024-04-19 18:26:32			0	34693	0	0	0	17633	16320	150507	27367	954352	37542	106404	0	0	8202	723435	0	0
2024-04-19 18:27:32			0	34682	0	0	0	17623	16320	150571	27476	954291	37563	106400	0	0	8202	723961	0	0
2024-04-19 18:28:32			0	34670	0	0	0	17646	16320	150491	27440	954264	37541	106409	0	0	8201	724536	0	0
2024-04-19 18:29:32			0	34681	0	0	0	17633	16320	150499	27187	954343	37552	106404	0	0	8201	724009	0	0
2024-04-19 18:30:32			0	34674	0	0	0	17631	16310	150543	27474	954301	37541	106403	0	0	8201	724383	0	0
2024-04-19 18:31:32			0	34682	0	0	0	17615	16300	150587	27526	954266	37551	106397	0	0	8202	724039	0	0
2024-04-19 18:32:32			0	34672	0	0	0	17597	16310	150535	27443	954222	37551	106390	0	0	8201	724479	0	0
2024-04-19 18:33:32			0	34649	0	0	0	17605	16300	150539	27464	954232	37550	106393	0	0	8200	725620	0	0
2024-04-19 18:34:32			0	34642	0	0	0	17599	16300	150675	27526	954232	37529	106391	0	0	8200	725956	0	0
2024-04-19 18:35:32			0	34611	0	0	0	17597	16300	150823	27114	954179	37540	106390	0	0	8198	727444	0	0
2024-04-19 18:36:32			0	34593	0	0	0	17592	16300	150879	27275	954179	37550	106388	0	0	8197	728309	0	0
2024-04-19 18:37:32			0	34596	0	0	0	17607	16290	150915	27576	954189	37550	106394	0	0	8197	728204	0	0
2024-04-19 18:38:32			0	34577	0	0	0	17589	16270	150979	27424	954165	37548	106387	0	0	8196	729196	0	0
2024-04-19 18:39:32			0	34583	0	0	0	17587	16280	151023	27348	954199	37549	106386	0	0	8196	728868	0	0
2024-04-19 18:40:32			0	34557	0	0	0	17592	16270	151039	27376	954104	37548	106388	0	0	8195	730159	0	0
2024-04-19 18:41:32			0	34538	0	0	0	17584	16270	151075	27400	954078	37538	106385	0	0	8194	731075	0	0
2024-04-19 18:42:32			0	34531	0	0	0	17587	16260	151127	27474	954114	37547	106386	0	0	8193	731452	0	0
2024-04-19 18:43:32			0	34545	0	0	0	17587	16260	151171	27293	954114	37547	106386	0	0	8194	730777	0	0
2024-04-19 18:44:32			0	34521	0	0	0	17584	16260	151175	27646	954088	37558	106385	0	0	8193	731935	0	0
2024-04-19 18:45:32			0	34523	0	0	0	17592	16260	151243	27362	954096	37559	106388	0	0	8193	731838	0	0
2024-04-19 18:46:32			0	34514	0	0	0	17584	16260	151279	27495	954114	37537	106385	0	0	8192	732273	0	0
2024-04-19 18:47:32			0	34522	0	0	0	17576	16250	151331	27263	954019	37524	106382	0	0	8193	731926	0	0
2024-04-19 18:48:32			0	34508	0	0	0	17576	16250	151319	27187	954080	37546	106382	0	0	8192	732602	0	0
2024-04-19 18:49:32			0	34501	0	0	0	17579	16250	151431	27383	953992	37535	106383	0	0	8192	732940	0	0
2024-04-19 18:50:32			0	34510	0	0	0	17576	16250	151383	27194	954053	37557	106382	0	0	8192	732505	0	0
2024-04-19 18:51:32			0	34506	0	0	0	17581	16240	151411	27220	954055	37535	106384	0	0	8192	732738	0	0
2024-04-19 18:52:32			0	34510	0	0	0	17571	16250	151335	27130	954053	37536	106380	0	0	8192	732505	0	0
2024-04-19 18:53:32			0	34507	0	0	0	17574	16240	151375	27435	953984	37545	106381	0	0	8192	732690	0	0
2024-04-19 18:54:32			0	34493	0	0	0	17563	16230	151319	27074	953994	37535	106377	0	0	8191	733406	0	0
2024-04-19 18:55:32			0	34527	0	0	0	17576	16240	151307	27282	954063	37545	106382	0	0	8193	731724	0	0
2024-04-19 18:56:32			0	34523	0	0	0	17561	16240	151403	27241	954037	37545	106376	0	0	8193	731917	0	0
2024-04-19 18:57:32			0	34511	0	0	0	17571	16240	151451	27391	954063	37535	106380	0	0	8192	732497	0	0
2024-04-19 18:58:32			0	34518	0	0	0	17566	16220	151387	27152	954004	37534	106378	0	0	8193	732238	0	0
2024-04-19 18:59:32			0	34503	0	0	0	17563	16220	151447	27256	954004	37544	106377	0	0	8192	732962	0	0
2024-04-19 19:00:32			0	34504	0	0	0	17566	16240	151499	27192	953976	37545	106378	0	0	8192	732835	0	0
2024-04-19 19:01:32			0	34491	0	0	0	17563	16230	151535	27175	954039	37544	106377	0	0	8191	733503	0	0
2024-04-19 19:02:32			0	34490	0	0	0	17558	16220	151455	27237	954004	37544	106375	0	0	8191	733591	0	0
2024-04-19 19:03:32			0	34466	0	0	0	17566	16220	151527	27038	953952	37555	106378	0	0	8190	734752	0	0
2024-04-19 19:04:32			0	34456	0	0	0	17563	16220	151631	27258	954004	37555	106377	0	0	8189	735236	0	0
2024-04-19 19:05:32			0	34440	0	0	0	17563	16220	151643	27107	953970	37534	106377	0	0	8188	736011	0	0
2024-04-19 19:06:32			0	34446	0	0	0	17568	16220	151631	27329	954004	37534	106379	0	0	8189	735720	0	0
2024-04-19 19:07:32			0	34445	0	0	0	17568	16220	151671	26890	953899	37544	106379	0	0	8189	735769	0	0
2024-04-19 19:08:32			0	34453	0	0	0	17563	16210	151591	27371	953935	37543	106377	0	0	8189	735421	0	0
2024-04-19 19:09:32			0	34446	0	0	0	17558	16210	151663	27499	953935	37554	106375	0	0	8189	735760	0	0
2024-04-19 19:10:32			0	34462	0	0	0	17555	16210	151575	27524	953962	37533	106374	0	0	8190	734985	0	0
2024-04-19 19:11:32			0	34443	0	0	0	17555	16210	151627	27078	953962	37543	106374	0	0	8189	735906	0	0
2024-04-19 19:12:32			0	34454	0	0	0	17545	16200	151687	27338	953919	37542	106370	0	0	8189	735412	0	0
2024-04-19 19:13:32			0	34442	0	0	0	17550	16210	151591	27121	953954	37553	106372	0	0	8189	735954	0	0
2024-04-19 19:14:32			0	34444	0	0	0	17542	16210	151691	27222	953954	37532	106369	0	0	8189	735857	0	0
2024-04-19 19:15:32			0	34438	0	0	0	17542	16200	151767	27204	953840	37532	106369	0	0	8189	736188	0	0
2024-04-19 19:16:32			0	34438	0	0	0	17542	16200	151691	27435	953858	37532	106369	0	0	8189	736188	0	0
2024-04-19 19:17:32			0	34442	0	0	0	17550	16200	151699	27251	953893	37532	106372	0	0	8189	735994	0	0
2024-04-19 19:18:32			0	34439	0	0	0	17550	16190	151755	27393	953903	37541	106372	0	0	8188	736179	0	0
2024-04-19 19:19:32			0	34437	0	0	0	17548	16190	151775	27260	953850	37531	106371	0	0	8188	736276	0	0
2024-04-19 19:20:32			0	34425	0	0	0	17545	16210	151747	27192	953901	37542	106370	0	0	8188	736778	0	0
2024-04-19 19:21:32			0	34413	0	0	0	17550	16190	151847	27102	953850	37552	106372	0	0	8187	737441	0	0
2024-04-19 19:22:32			0	34423	0	0	0	17545	16200	151803	27227	953937	37542	106370	0	0	8188	736915	0	0
2024-04-19 19:23:32			0	34410	0	0	0	17542	16200	151867	27076	953937	37542	106369	0	0	8187	737546	0	0
2024-04-19 19:24:32			0	34413	0	0	0	17548	16190	151859	26970	953903	37520	106371	0	0	8187	737441	0	0
2024-04-19 19:25:32			0	34415	0	0	0	17540	16200	151835	27159	953885	37553	106368	0	0	8187	737303	0	0
2024-04-19 19:26:32			0	34409	0	0	0	17532	16190	151883	27199	953876	37552	106365	0	0	8187	737635	0	0
2024-04-19 19:27:32			0	34396	0	0	0	17540	16190	151987	27199	953876	37541	106368	0	0	8186	738266	0	0
2024-04-19 19:28:32			0	34388	0	0	0	17529	16190	151807	27170	953797	37541	106364	0	0	8186	738655	0	0
2024-04-19 19:29:32			0	34395	0	0	0	17532	16180	151975	26923	953852	37541	106365	0	0	8186	738355	0	0
2024-04-19 19:30:32			0	34395	0	0	0	17532	16190	151951	27353	953816	37530	106365	0	0	8186	738315	0	0
2024-04-19 19:31:32			0	34386	0	0	0	17537	16190	151931	27455	953868	37530	106367	0	0	8186	738752	0	0
2024-04-19 19:32:32			0	34378	0	0	0	17532	16190	151983	27536	953842	37541	106365	0	0	8185	739141	0	0
2024-04-19 19:33:32			0	34384	0	0	0	17516	16170	152035	27587	953818	37530	106359	0	0	8186	738929	0	0
2024-04-19 19:34:32			0	34359	0	0	0	17509	16170	152059	27154	953765	37541	106356	0	0	8184	740146	0	0
2024-04-19 19:35:32			0	34363	0	0	0	17509	16180	152083	27119	953799	37551	106356	0	0	8185	739911	0	0
2024-04-19 19:36:32			0	34342	0	0	0	17524	16170	152070	27345	953791	37551	106362	0	0	8183	740974	0	0
2024-04-19 19:37:32			0	34333	0	0	0	17532	16170	152202	27185	953765	37541	106365	0	0	8183	741412	0	0
2024-04-19 19:38:32			0	34323	0	0	0	17542	16180	152226	27566	953799	37541	106369	0	0	8182	741860	0	0
2024-04-19 19:39:32			0	34336	0	0	0	17527	16170	152282	27093	953739	37541	106363	0	0	8183	741266	0	0
2024-04-19 19:40:32			0	34328	0	0	0	17524	16170	152262	27326	953791	37541	106362	0	0	8182	741656	0	0
2024-04-19 19:41:32			0	34333	0	0	0	17524	16170	152282	27372	953844	37551	106362	0	0	8183	741412	0	0
2024-04-19 19:42:32			0	34316	0	0	0	17529	16180	152286	27232	953808	37530	106364	0	0	8182	742201	0	0
2024-04-19 19:43:32			0	34340	0	0	0	17514	16170	152302	27197	953739	37541	106358	0	0	8183	741071	0	0
2024-04-19 19:44:32			0	34325	0	0	0	17522	16170	152230	26986	953783	37529	106361	0	0	8182	741802	0	0
2024-04-19 19:45:32			0	34332	0	0	0	17516	16170	152318	27280	953791	37541	106359	0	0	8183	741461	0	0
2024-04-19 19:46:32			0	34325	0	0	0	17514	16170	152182	27644	953757	37540	106358	0	0	8182	741802	0	0
2024-04-19 19:47:32			0	34328	0	0	0	17522	16160	152246	27466	953854	37549	106361	0	0	8182	741696	0	0
2024-04-19 19:48:32			0	34333	0	0	0	17524	16170	152290	27514	953757	37540	106362	0	0	8183	741412	0	0
2024-04-19 19:49:32			0	34325	0	0	0	17514	16170	152242	27171	953765	37530	106358	0	0	8182	741802	0	0
2024-04-19 19:50:32			0	34320	0	0	0	17522	16170	152222	27147	953783	37529	106361	0	0	8182	742046	0	0
2024-04-19 19:51:32			0	34321	0	0	0	17519	16170	152234	27381	953810	37550	106360	0	0	8182	741998	0	0
2024-04-19 19:52:32			0	34309	0	0	0	17511	16170	152310	27119	953836	37529	106357	0	0	8182	742583	0	0
2024-04-19 19:53:32			0	34318	0	0	0	17514	16150	152374	27355	953793	37549	106358	0	0	8182	742224	0	0
2024-04-19 19:54:32			0	34311	0	0	0	17514	16170	152346	27204	953757	37561	106358	0	0	8182	742486	0	0
2024-04-19 19:55:32			0	34310	0	0	0	17511	16170	152362	27204	953810	37550	106357	0	0	8182	742534	0	0
2024-04-19 19:56:32			0	34300	0	0	0	17511	16160	152374	27180	953696	37539	106357	0	0	8181	743063	0	0
2024-04-19 19:57:32			0	34311	0	0	0	17514	16160	152398	27578	953749	37528	106358	0	0	8182	742526	0	0
2024-04-19 19:58:32			0	34306	0	0	0	17514	16160	152406	27573	953775	37539	106358	0	0	8181	742770	0	0
2024-04-19 19:59:32			0	34295	0	0	0	17511	16160	152498	27189	953696	37549	106357	0	0	8181	743307	0	0
2024-04-19 20:00:32			0	34297	0	0	0	17519	16150	152382	27410	953714	37539	106360	0	0	8181	743249	0	0
2024-04-19 20:01:32			0	34279	0	0	0	17514	16160	152450	27466	953749	37549	106358	0	0	8180	744089	0	0
2024-04-19 20:02:32			0	34293	0	0	0	17511	16150	152454	27235	953767	37539	106357	0	0	8181	743445	0	0
2024-04-19 20:03:32			0	34299	0	0	0	17509	16160	152466	27545	953775	37539	106356	0	0	8181	743112	0	0
2024-04-19 20:04:32			0	34274	0	0	0	17511	16150	152502	27391	953714	37539	106357	0	0	8179	744374	0	0
2024-04-19 20:05:32			0	34258	0	0	0	17509	16170	152558	27303	953810	37540	106356	0	0	8179	745076	0	0
2024-04-19 20:06:32			0	34250	0	0	0	17509	16150	152562	27116	953688	37539	106356	0	0	8178	745548	0	0
2024-04-19 20:07:32			0	34259	0	0	0	17509	16160	152490	27291	953775	37549	106356	0	0	8179	745067	0	0
2024-04-19 20:08:32			0	34263	0	0	0	17514	16150	152546	27374	953732	37528	106358	0	0	8179	744912	0	0
2024-04-19 20:09:32			0	34228	0	0	0	17506	16160	152610	27133	953749	37549	106355	0	0	8177	746586	0	0
2024-04-19 20:10:32			0	34237	0	0	0	17514	16160	152626	27220	953749	37539	106358	0	0	8177	746145	0	0
2024-04-19 20:11:32			0	34229	0	0	0	17511	16150	152758	27416	953688	37528	106357	0	0	8177	746577	0	0
2024-04-19 20:12:32			0	34244	0	0	0	17501	16140	152678	27398	953777	37559	106353	0	0	8178	745882	0	0
2024-04-19 20:13:32			0	34238	0	0	0	17496	16150	152646	27409	953732	37539	106351	0	0	8178	746136	0	0
2024-04-19 20:14:32			0	34212	0	0	0	17477	16140	152666	27507	953690	37526	106344	0	0	8176	747451	0	0
2024-04-19 20:15:32			0	34200	0	0	0	17475	16140	152782	27305	953611	37547	106343	0	0	8176	748040	0	0
2024-04-19 20:16:32			0	34179	0	0	0	17475	16140	152770	27350	953664	37537	106343	0	0	8175	749071	0	0
2024-04-19 20:17:32			0	34193	0	0	0	17470	16140	152838	27286	953637	37547	106341	0	0	8175	748383	0	0
2024-04-19 20:18:32			0	34180	0	0	0	17459	16120	153038	27455	953639	37537	106337	0	0	8175	749103	0	0
2024-04-19 20:19:32			0	34161	0	0	0	17446	16110	152994	27173	953570	37536	106332	0	0	8174	750078	0	0
2024-04-19 20:20:32			0	34144	0	0	0	17462	16120	153026	26920	953560	37525	106338	0	0	8173	750874	0	0
2024-04-19 20:21:32			0	34145	0	0	0	17477	16110	153026	27060	953544	37546	106344	0	0	8172	750865	0	0
2024-04-19 20:22:32			0	34164	0	0	0	17496	16110	153058	27102	953649	37525	106351	0	0	8173	749930	0	0
2024-04-19 20:23:32			0	34157	0	0	0	17488	16120	153218	27092	953657	37536	106348	0	0	8173	750234	0	0
2024-04-19 20:24:32			0	34146	0	0	0	17485	16130	153210	27232	953647	37537	106347	0	0	8172	750735	0	0
2024-04-19 20:25:32			0	34148	0	0	0	17475	16120	153106	27227	953604	37525	106343	0	0	8173	750677	0	0
2024-04-19 20:26:32			0	34146	0	0	0	17459	16120	153018	27272	953613	37537	106337	0	0	8173	750776	0	0
2024-04-19 20:27:32			0	34148	0	0	0	17433	16120	153098	27168	953639	37525	106327	0	0	8173	750677	0	0
2024-04-19 20:28:32			0	34152	0	0	0	17451	16110	153042	27293	953596	37536	106334	0	0	8173	750521	0	0
2024-04-19 20:29:32			0	34153	0	0	0	17436	16110	153094	27164	953535	37545	106328	0	0	8174	750472	0	0
2024-04-19 20:30:32			0	34159	0	0	0	17431	16110	153034	27261	953517	37546	106326	0	0	8174	750176	0	0
2024-04-19 20:31:32			0	34157	0	0	0	17431	16100	152998	27459	953546	37523	106326	0	0	8174	750315	0	0
2024-04-19 20:32:32			0	34145	0	0	0	17433	16110	152918	27163	953535	37535	106327	0	0	8173	750865	0	0
2024-04-19 20:33:32			0	34169	0	0	0	17423	16100	153046	27334	953475	37535	106323	0	0	8175	749725	0	0
2024-04-19 20:34:32			0	34169	0	0	0	17431	16090	152982	27206	953432	37534	106326	0	0	8174	749765	0	0
2024-04-19 20:35:32			0	34172	0	0	0	17436	16090	152998	27220	953477	37533	106328	0	0	8175	749618	0	0
2024-04-19 20:36:32			0	34162	0	0	0	17454	16090	153050	27256	953529	37533	106335	0	0	8174	750110	0	0
2024-04-19 20:37:32			0	34158	0	0	0	17449	16090	153006	27289	953485	37534	106333	0	0	8174	750306	0	0
2024-04-19 20:38:32			0	34183	0	0	0	17457	16090	153138	27140	953477	37533	106336	0	0	8175	749077	0	0
2024-04-19 20:39:32			0	34169	0	0	0	17459	16080	153050	27447	953539	37521	106337	0	0	8174	749806	0	0
2024-04-19 20:40:32			0	34157	0	0	0	17472	16080	152974	27701	953521	37533	106342	0	0	8173	750396	0	0
2024-04-19 20:41:32			0	34166	0	0	0	17485	16090	153154	27216	953503	37543	106347	0	0	8173	749913	0	0
2024-04-19 20:42:32			0	34132	0	0	0	17488	16090	153106	27046	953537	37544	106348	0	0	8171	751587	0	0
2024-04-19 20:43:32			0	34148	0	0	0	17477	16090	153142	27372	953537	37534	106344	0	0	8172	750799	0	0
2024-04-19 20:44:32			0	34154	0	0	0	17475	16100	153070	27173	953519	37534	106343	0	0	8173	750463	0	0
2024-04-19 20:45:32			0	34150	0	0	0	17472	16090	153122	27419	953556	37522	106342	0	0	8173	750700	0	0
2024-04-19 20:46:32			0	34151	0	0	0	17483	16090	153118	27317	953511	37534	106346	0	0	8173	750651	0	0
2024-04-19 20:47:32			0	34148	0	0	0	17472	16100	153110	26928	953554	37535	106342	0	0	8173	750758	0	0
2024-04-19 20:48:32			0	34186	0	0	0	17480	16100	152990	27345	953572	37534	106345	0	0	8175	748889	0	0
2024-04-19 20:49:32			0	34194	0	0	0	17488	16100	153058	27319	953580	37545	106348	0	0	8175	748496	0	0
2024-04-19 20:50:32			0	34189	0	0	0	17496	16110	152942	27301	953649	37536	106351	0	0	8175	748701	0	0
2024-04-19 20:51:32			0	34211	0	0	0	17496	16100	152834	27552	953606	37545	106351	0	0	8176	747661	0	0
2024-04-19 20:52:32			0	34209	0	0	0	17519	16120	152950	27358	953631	37546	106360	0	0	8175	747679	0	0
2024-04-19 20:53:32			0	34194	0	0	0	17498	16110	152854	27329	953615	37556	106352	0	0	8175	748456	0	0
2024-04-19 20:54:32			0	34208	0	0	0	17496	16110	152870	27717	953649	37525	106351	0	0	8176	747768	0	0
2024-04-19 20:55:32			0	34204	0	0	0	17503	16110	152842	27462	953623	37546	106354	0	0	8175	747965	0	0
2024-04-19 20:56:32			0	34222	0	0	0	17503	16110	152766	27353	953623	37536	106354	0	0	8176	747081	0	0
2024-04-19 20:57:32			0	34238	0	0	0	17522	16120	152746	27698	953631	37546	106361	0	0	8177	746257	0	0
2024-04-19 20:58:32			0	34217	0	0	0	17535	16120	152766	27597	953736	37546	106366	0	0	8176	747286	0	0
2024-04-19 20:59:32			0	34244	0	0	0	17545	16130	152686	27393	953726	37547	106370	0	0	8177	745922	0	0
2024-04-19 21:00:32			0	34248	0	0	0	17522	16130	152690	27545	953700	37537	106361	0	0	8178	745726	0	0
2024-04-19 21:01:32			0	34257	0	0	0	17568	16130	152630	27215	953734	37537	106379	0	0	8177	745286	0	0
2024-04-19 21:02:32			0	34262	0	0	0	17576	16140	152602	27313	953795	37547	106382	0	0	8178	745001	0	0
2024-04-19 21:03:32			0	34269	0	0	0	17563	16140	152622	27381	953848	37547	106377	0	0	8178	744658	0	0
2024-04-19 21:04:32			0	34294	0	0	0	17563	16150	152626	27287	953872	37549	106377	0	0	8180	743396	0	0
2024-04-19 21:05:32			0	34275	0	0	0	17545	16160	152534	27424	953854	37560	106370	0	0	8179	744284	0	0
2024-04-19 21:06:32			0	34281	0	0	0	17571	16150	152498	27253	953864	37549	106380	0	0	8179	744031	0	0
2024-04-19 21:07:32			0	34296	0	0	0	17571	16170	152474	27137	953941	37540	106380	0	0	8180	743218	0	0
2024-04-19 21:08:32			0	34293	0	0	0	17574	16170	152486	27545	953889	37550	106381	0	0	8180	743365	0	0
2024-04-19 21:09:32			0	34304	0	0	0	17568	16170	152526	27507	953915	37540	106379	0	0	8180	742827	0	0
2024-04-19 21:10:32			0	34270	0	0	0	17566	16170	152618	27360	953897	37551	106378	0	0	8178	744489	0	0
2024-04-19 21:11:32			0	34289	0	0	0	17548	16180	152602	27190	953878	37551	106371	0	0	8180	743520	0	0
2024-04-19 21:12:32			0	34261	0	0	0	17553	16180	152690	27395	953887	37552	106373	0	0	8178	744889	0	0
2024-04-19 21:13:32			0	34227	0	0	0	17550	16180	152730	26904	953887	37563	106372	0	0	8176	746554	0	0
2024-04-19 21:14:32			0	34244	0	0	0	17542	16190	152766	27417	953868	37552	106369	0	0	8177	745681	0	0
2024-04-19 21:15:32			0	34205	0	0	0	17535	16180	152822	27424	953826	37541	106366	0	0	8175	747633	0	0
2024-04-19 21:16:32			0	34187	0	0	0	17514	16170	152814	27440	953810	37540	106358	0	0	8174	748557	0	0
2024-04-19 21:17:32			0	34176	0	0	0	17501	16170	152854	27592	953739	37541	106353	0	0	8174	749098	0	0
2024-04-19 21:18:32			0	34167	0	0	0	17509	16160	152918	27327	953749	37549	106356	0	0	8173	749580	0	0
2024-04-19 21:19:32			0	34160	0	0	0	17514	16150	153002	27199	953820	37549	106358	0	0	8173	749965	0	0
2024-04-19 21:20:32			0	34153	0	0	0	17514	16150	153090	27396	953759	37560	106358	0	0	8172	750310	0	0
2024-04-19 21:21:32			0	34152	0	0	0	17511	16140	152970	27459	953777	37548	106357	0	0	8172	750399	0	0
2024-04-19 21:22:32			0	34132	0	0	0	17498	16150	153126	27412	953785	37549	106352	0	0	8171	751344	0	0
2024-04-19 21:23:32			0	34126	0	0	0	17511	16150	153146	27299	953759	37517	106357	0	0	8171	751639	0	0
2024-04-19 21:24:32			0	34114	0	0	0	17506	16150	153234	27332	953767	37549	106355	0	0	8170	752231	0	0
2024-04-19 21:25:32			0	34107	0	0	0	17503	16150	153270	27131	953714	37549	106354	0	0	8170	752576	0	0
2024-04-19 21:26:32			0	34074	0	0	0	17490	16140	153394	27206	953777	37538	106349	0	0	8168	754246	0	0
2024-04-19 21:27:32			0	34097	0	0	0	17480	16150	153326	27234	953732	37539	106345	0	0	8170	753069	0	0
2024-04-19 21:28:32			0	34090	0	0	0	17480	16140	153530	27301	953716	37537	106345	0	0	8169	753456	0	0
2024-04-19 21:29:32			0	34056	0	0	0	17480	16130	153474	27131	953682	37537	106345	0	0	8167	755176	0	0
2024-04-19 21:30:32			0	34053	0	0	0	17477	16140	153554	27145	953716	37547	106344	0	0	8167	755284	0	0
2024-04-19 21:31:32			0	34058	0	0	0	17475	16130	153574	27303	953674	37547	106343	0	0	8168	755078	0	0
2024-04-19 21:32:32			0	34033	0	0	0	17485	16130	153618	27479	953674	37537	106347	0	0	8166	756315	0	0
2024-04-19 21:33:32			0	34044	0	0	0	17488	16130	153718	27594	953647	37547	106348	0	0	8166	755770	0	0
2024-04-19 21:34:32			0	34013	0	0	0	17488	16120	153818	27441	953683	37536	106348	0	0	8165	757347	0	0
2024-04-19 21:35:32			0	34020	0	0	0	17483	16120	153754	27130	953613	37537	106346	0	0	8165	757000	0	0
2024-04-19 21:36:32			0	33992	0	0	0	17480	16120	153794	27428	953631	37557	106345	0	0	8164	758388	0	0
2024-04-19 21:37:32			0	34020	0	0	0	17449	16120	153798	27585	953578	37546	106333	0	0	8166	757000	0	0
2024-04-19 21:38:32			0	34013	0	0	0	17381	16110	153770	27455	953517	37536	106307	0	0	8166	757387	0	0
2024-04-19 21:39:32			0	34013	0	0	0	17335	16100	153774	27547	953448	37524	106289	0	0	8167	757428	0	0
2024-04-19 21:40:32			0	33997	0	0	0	17350	16090	153838	27178	953345	37511	106295	0	0	8166	758263	0	0
2024-04-19 21:41:32			0	34006	0	0	0	17376	16080	153830	27464	953310	37522	106305	0	0	8166	757857	0	0
2024-04-19 21:42:32			0	34009	0	0	0	17399	16060	153842	27429	953304	37508	106314	0	0	8166	757790	0	0
2024-04-19 21:43:32			0	34009	0	0	0	17405	16060	153942	27239	953304	37520	106316	0	0	8166	757790	0	0
2024-04-19 21:44:32			0	33986	0	0	0	17402	16060	153910	27298	953270	37531	106315	0	0	8164	758932	0	0
2024-04-19 21:45:32			0	33988	0	0	0	17407	16060	153934	27265	953323	37541	106317	0	0	8164	758833	0	0
2024-04-19 21:46:32			0	33988	0	0	0	17394	16050	153858	27364	953333	37530	106312	0	0	8164	758873	0	0
2024-04-19 21:47:32			0	33973	0	0	0	17392	16050	154030	27265	953288	37530	106311	0	0	8164	759619	0	0
2024-04-19 21:48:32			0	33976	0	0	0	17368	16040	154054	27166	953237	37529	106302	0	0	8164	759510	0	0
2024-04-19 21:49:32			0	33967	0	0	0	17342	16040	154030	27371	953272	37529	106292	0	0	8164	759958	0	0
2024-04-19 21:50:32			0	33981	0	0	0	17353	16040	154030	27306	953264	37529	106296	0	0	8165	759262	0	0
2024-04-19 21:51:32			0	33954	0	0	0	17272	16030	154110	27287	953089	37517	106265	0	0	8164	760646	0	0
2024-04-19 21:52:32			0	33964	0	0	0	17238	16010	154030	27391	953110	37515	106252	0	0	8166	760230	0	0
2024-04-19 21:53:32			0	33949	0	0	0	17228	16000	154114	27163	952988	37514	106248	0	0	8165	761017	0	0
2024-04-19 21:54:32			0	33963	0	0	0	17228	15980	154018	27384	952911	37513	106248	0	0	8165	760403	0	0
2024-04-19 21:55:32			0	33965	0	0	0	17238	15970	154118	27196	952868	37512	106252	0	0	8165	760344	0	0
2024-04-19 21:56:32			0	33964	0	0	0	17254	15970	154038	27034	952886	37511	106258	0	0	8165	760394	0	0
2024-04-19 21:57:32			0	33953	0	0	0	17272	15960	154238	27185	952957	37500	106265	0	0	8164	760982	0	0
2024-04-19 21:58:32			0	33947	0	0	0	17283	15960	154178	27388	952896	37510	106269	0	0	8164	761281	0	0
2024-04-19 21:59:32			0	33938	0	0	0	17324	15950	154318	27159	952933	37542	106285	0	0	8162	761770	0	0
2024-04-19 22:00:32			0	33927	0	0	0	17355	15960	154434	27346	952931	37522	106297	0	0	8161	762278	0	0
2024-04-19 22:01:32			0	33921	0	0	0	17374	15960	154438	27229	953055	37522	106304	0	0	8160	762576	0	0
2024-04-19 22:02:32			0	33896	0	0	0	17386	15960	154478	27308	953089	37534	106309	0	0	8159	763824	0	0
2024-04-19 22:03:32			0	33881	0	0	0	17399	15980	154566	27255	953113	37534	106314	0	0	8158	764490	0	0
2024-04-19 22:04:32			0	33856	0	0	0	17451	15990	154706	27147	953296	37525	106334	0	0	8156	765699	0	0
2024-04-19 22:05:32			0	33836	0	0	0	17472	16000	154790	27287	953357	37546	106342	0	0	8154	766658	0	0
2024-04-19 22:06:32			0	33833	0	0	0	17483	16010	154734	27324	953355	37559	106346	0	0	8154	766767	0	0
2024-04-19 22:07:32			0	33807	0	0	0	17483	16030	154922	27182	953432	37549	106346	0	0	8152	767987	0	0
2024-04-19 22:08:32			0	33810	0	0	0	17483	16040	154894	27313	953475	37550	106346	0	0	8153	767795	0	0
2024-04-19 22:09:32			0	33803	0	0	0	17490	16040	154938	27346	953483	37550	106349	0	0	8152	768146	0	0
2024-04-19 22:10:32			0	33801	0	0	0	17485	16050	154858	27183	953604	37541	106347	0	0	8152	768205	0	0
2024-04-19 22:11:32			0	33807	0	0	0	17493	16070	154910	27239	953558	37543	106350	0	0	8152	767821	0	0
2024-04-19 22:12:32			0	33807	0	0	0	17480	16070	154858	27092	953550	37553	106345	0	0	8153	767821	0	0
2024-04-19 22:13:32			0	33804	0	0	0	17477	16070	154894	27312	953576	37553	106344	0	0	8152	767971	0	0
2024-04-19 22:14:32			0	33840	0	0	0	17467	16080	154746	27583	953539	37543	106340	0	0	8155	766127	0	0
2024-04-19 22:15:32			0	33846	0	0	0	17464	16080	154686	27241	953548	37533	106339	0	0	8155	765827	0	0
2024-04-19 22:16:32			0	33852	0	0	0	17457	16080	154510	27086	953627	37533	106336	0	0	8156	765527	0	0
2024-04-19 22:17:32			0	33869	0	0	0	17454	16080	154578	27154	953539	37554	106335	0	0	8157	764677	0	0
2024-04-19 22:18:32			0	33869	0	0	0	17451	16080	154474	27208	953495	37543	106334	0	0	8157	764677	0	0
2024-04-19 22:19:32			0	33876	0	0	0	17449	16090	154558	27346	953556	37543	106333	0	0	8157	764286	0	0
2024-04-19 22:20:32			0	33878	0	0	0	17449	16090	154478	27507	953608	37543	106333	0	0	8157	764187	0	0
2024-04-19 22:21:32			0	33888	0	0	0	17441	16080	154430	27390	953521	37543	106330	0	0	8158	763728	0	0
2024-04-19 22:22:32			0	33883	0	0	0	17431	16070	154382	27229	953505	37532	106326	0	0	8158	764019	0	0
2024-04-19 22:23:32			0	33906	0	0	0	17436	16090	154362	27460	953529	37522	106328	0	0	8159	762790	0	0
2024-04-19 22:24:32			0	33894	0	0	0	17425	16080	154374	27223	953487	37543	106324	0	0	8159	763429	0	0
2024-04-19 22:25:32			0	33903	0	0	0	17438	16080	154390	27305	953442	37533	106329	0	0	8159	762980	0	0
2024-04-19 22:26:32			0	33925	0	0	0	17428	16080	154318	27027	953487	37543	106325	0	0	8160	761884	0	0
2024-04-19 22:27:32			0	33924	0	0	0	17428	16080	154246	27364	953513	37543	106325	0	0	8160	761933	0	0
2024-04-19 22:28:32			0	33924	0	0	0	17428	16070	154186	27152	953418	37532	106325	0	0	8160	761975	0	0
2024-04-19 22:29:32			0	33909	0	0	0	17407	16070	154222	27474	953418	37532	106317	0	0	8160	762722	0	0
2024-04-19 22:30:32			0	33907	0	0	0	17418	16070	154274	27460	953418	37532	106321	0	0	8159	762822	0	0
2024-04-19 22:31:32			0	33918	0	0	0	17405	16070	154314	27144	953497	37532	106316	0	0	8160	762274	0	0
2024-04-19 22:32:32			0	33905	0	0	0	17397	16070	154258	27246	953418	37532	106313	0	0	8160	762922	0	0
2024-04-19 22:33:32			0	33928	0	0	0	17381	16070	154230	27435	953365	37542	106307	0	0	8161	761775	0	0
2024-04-19 22:34:32			0	33927	0	0	0	17384	16060	154214	27331	953323	37541	106308	0	0	8161	761866	0	0
2024-04-19 22:35:32			0	33919	0	0	0	17368	16060	154198	27466	953323	37531	106302	0	0	8161	762265	0	0
2024-04-19 22:36:32			0	33918	0	0	0	17366	16050	154190	27296	953333	37530	106301	0	0	8161	762356	0	0
2024-04-19 22:37:32			0	33932	0	0	0	17386	16050	154262	27187	953288	37541	106309	0	0	8161	761658	0	0
2024-04-19 22:38:32			0	33928	0	0	0	17397	16040	154262	27512	953272	37540	106313	0	0	8161	761899	0	0
2024-04-19 22:39:32			0	33927	0	0	0	17366	16040	154222	27300	953264	37529	106301	0	0	8161	761949	0	0
2024-04-19 22:40:32			0	33931	0	0	0	17361	16030	154198	27535	953308	37528	106299	0	0	8162	761790	0	0
2024-04-19 22:41:32			0	33938	0	0	0	17355	16030	154178	27485	953247	37528	106297	0	0	8162	761442	0	0
2024-04-19 22:42:32			0	33924	0	0	0	17355	16040	154270	27438	953237	37540	106297	0	0	8161	762098	0	0
2024-04-19 22:43:32			0	33905	0	0	0	17345	16010	154218	27388	953223	37527	106293	0	0	8160	763169	0	0
2024-04-19 22:44:32			0	33917	0	0	0	17316	16020	154322	27402	953205	37527	106282	0	0	8162	762529	0	0
2024-04-19 22:45:32			0	33920	0	0	0	17319	16020	154334	27421	953205	37516	106283	0	0	8162	762380	0	0
2024-04-19 22:46:32			0	33908	0	0	0	17301	16010	154342	27317	953110	37527	106276	0	0	8161	763019	0	0
2024-04-19 22:47:32			0	33913	0	0	0	17303	16000	154394	27474	952988	37525	106277	0	0	8161	762811	0	0
2024-04-19 22:48:32			0	33906	0	0	0	17311	15980	154542	27206	953069	37513	106280	0	0	8161	763242	0	0
2024-04-19 22:49:32			0	33892	0	0	0	17309	15990	154434	27355	953032	37525	106279	0	0	8160	763900	0	0
2024-04-19 22:50:32			0	33901	0	0	0	17303	15990	154414	27575	953024	37536	106277	0	0	8161	763451	0	0
2024-04-19 22:51:32			0	33898	0	0	0	17306	15990	154450	27282	953103	37525	106278	0	0	8160	763600	0	0
2024-04-19 22:52:32			0	33866	0	0	0	17311	15990	154606	27666	952998	37536	106280	0	0	8158	765199	0	0
2024-04-19 22:53:32			0	33846	0	0	0	17303	15990	154618	27253	953077	37503	106277	0	0	8157	766199	0	0
2024-04-19 22:54:32			0	33844	0	0	0	17303	15980	154694	27315	953095	37502	106277	0	0	8157	766340	0	0
2024-04-19 22:55:32			0	33822	0	0	0	17303	15970	154830	27467	952965	37522	106277	0	0	8156	767484	0	0
2024-04-19 22:56:32			0	33799	0	0	0	17306	15970	154922	27319	953079	37523	106278	0	0	8155	768637	0	0
2024-04-19 22:57:32			0	33776	0	0	0	17306	15970	155034	27150	952965	37511	106278	0	0	8153	769791	0	0
2024-04-19 22:58:32			0	33731	0	0	0	17285	15970	155226	27540	952974	37512	106270	0	0	8151	772054	0	0
2024-04-19 22:59:32			0	33702	0	0	0	17288	15970	155306	27531	952965	37511	106271	0	0	8149	773515	0	0
2024-04-19 23:00:32			0	33684	0	0	0	17290	15960	155470	27322	952923	37522	106272	0	0	8148	774465	0	0
2024-04-19 23:01:32			0	33702	0	0	0	17293	15960	155410	27104	952984	37500	106273	0	0	8149	773557	0	0
2024-04-19 23:02:32			0	33670	0	0	0	17293	15960	155514	27204	952905	37511	106273	0	0	8147	775172	0	0
2024-04-19 23:03:32			0	33697	0	0	0	17283	15960	155558	27109	952931	37511	106269	0	0	8149	773810	0	0
2024-04-19 23:04:32			0	33679	0	0	0	17257	15950	155482	26831	952915	37522	106259	0	0	8148	774760	0	0
2024-04-19 23:05:32			0	33674	0	0	0	17249	15940	155646	27107	952819	37510	106256	0	0	8148	775054	0	0
2024-04-19 23:06:32			0	33668	0	0	0	17241	15940	155582	27298	952890	37509	106253	0	0	8148	775357	0	0
2024-04-19 23:07:32			0	33674	0	0	0	17220	15930	155610	27190	952777	37519	106245	0	0	8148	775096	0	0
2024-04-19 23:08:32			0	33647	0	0	0	17220	15910	155690	27105	952771	37506	106245	0	0	8147	776544	0	0
2024-04-19 23:09:32			0	33631	0	0	0	17207	15910	155758	27093	952771	37506	106240	0	0	8146	777354	0	0
2024-04-19 23:10:32			0	33610	0	0	0	17215	15900	155834	27291	952702	37506	106243	0	0	8145	778460	0	0
2024-04-19 23:11:32			0	33569	0	0	0	17225	15900	155977	27658	952720	37506	106247	0	0	8142	780540	0	0
2024-04-19 23:12:32			0	33576	0	0	0	17220	15900	156026	27255	952755	37506	106245	0	0	8143	780185	0	0
2024-04-19 23:13:32			0	33556	0	0	0	17207	15900	156145	27203	952720	37517	106240	0	0	8142	781201	0	0
2024-04-19 23:14:32			0	33536	0	0	0	17205	15880	156277	27241	952669	37505	106239	0	0	8140	782302	0	0
2024-04-19 23:15:32			0	33523	0	0	0	17199	15890	156225	27307	952599	37495	106237	0	0	8140	782922	0	0
2024-04-19 23:16:32			0	33501	0	0	0	17207	15880	156501	27362	952635	37526	106240	0	0	8138	784085	0	0
2024-04-19 23:17:32			0	33496	0	0	0	17207	15880	156417	27410	952669	37505	106240	0	0	8138	784340	0	0
2024-04-19 23:18:32			0	33478	0	0	0	17207	15870	156525	27306	952627	37493	106240	0	0	8137	785301	0	0
2024-04-19 23:19:32			0	33472	0	0	0	17210	15880	156525	27206	952669	37516	106241	0	0	8136	785565	0	0
2024-04-19 23:20:32			0	33484	0	0	0	17202	15860	156581	27135	952566	37502	106238	0	0	8137	785037	0	0
2024-04-19 23:21:32			0	33484	0	0	0	17197	15860	156441	27232	952618	37513	106236	0	0	8137	785037	0	0
2024-04-19 23:22:32			0	33501	0	0	0	17192	15860	156445	27291	952584	37513	106234	0	0	8138	784170	0	0
2024-04-19 23:23:32			0	33509	0	0	0	17197	15860	156401	27270	952618	37492	106236	0	0	8139	783762	0	0
2024-04-19 23:24:32			0	33511	0	0	0	17192	15850	156421	27126	952568	37491	106234	0	0	8139	783702	0	0
2024-04-19 23:25:32			0	33515	0	0	0	17218	15850	156441	27460	952602	37513	106244	0	0	8139	783498	0	0
2024-04-19 23:26:32			0	33519	0	0	0	17223	15860	156341	27211	952584	37502	106246	0	0	8139	783252	0	0
2024-04-19 23:27:32			0	33555	0	0	0	17233	15860	156245	27294	952645	37524	106250	0	0	8141	781420	0	0
2024-04-19 23:28:32			0	33559	0	0	0	17223	15860	156305	27355	952645	37524	106246	0	0	8141	781217	0	0
2024-04-19 23:29:32			0	33577	0	0	0	17218	15860	156222	27454	952663	37513	106244	0	0	8142	780302	0	0
2024-04-19 23:30:32			0	33584	0	0	0	17207	15850	156182	27317	952655	37502	106240	0	0	8143	779989	0	0
2024-04-19 23:31:32			0	33585	0	0	0	17199	15840	156170	27246	952586	37500	106237	0	0	8143	779980	0	0
2024-04-19 23:32:32			0	33569	0	0	0	17205	15840	156141	26974	952612	37512	106239	0	0	8142	780793	0	0
2024-04-19 23:33:32			0	33572	0	0	0	17199	15850	156162	27315	952629	37492	106237	0	0	8142	780598	0	0
2024-04-19 23:34:32			0	33574	0	0	0	17202	15850	156169	27176	952655	37502	106238	0	0	8142	780496	0	0
2024-04-19 23:35:32			0	33572	0	0	0	17210	15850	156186	27046	952602	37502	106241	0	0	8142	780598	0	0
2024-04-19 23:36:32			0	33575	0	0	0	17202	15840	156118	27197	952612	37512	106238	0	0	8142	780488	0	0
2024-04-19 23:37:32			0	33562	0	0	0	17202	15840	156125	26994	952586	37500	106238	0	0	8142	781148	0	0
2024-04-19 23:38:32			0	33568	0	0	0	17202	15860	156106	27192	952645	37502	106238	0	0	8142	780759	0	0
2024-04-19 23:39:32			0	33549	0	0	0	17210	15840	156141	27344	952533	37490	106241	0	0	8141	781809	0	0
2024-04-19 23:40:32			0	33579	0	0	0	17199	15860	156198	27350	952610	37513	106237	0	0	8143	780201	0	0
2024-04-19 23:41:32			0	33581	0	0	0	17210	15850	156226	27424	952620	37512	106241	0	0	8143	780141	0	0
2024-04-19 23:42:32			0	33556	0	0	0	17210	15840	156153	27131	952586	37512	106241	0	0	8141	781453	0	0
2024-04-19 23:43:32			0	33567	0	0	0	17197	15850	156149	27331	952594	37501	106236	0	0	8142	780852	0	0
2024-04-19 23:44:32			0	33572	0	0	0	17194	15850	156194	27197	952620	37512	106235	0	0	8142	780598	0	0
2024-04-19 23:45:32			0	33552	0	0	0	17199	15850	156177	27348	952541	37512	106237	0	0	8141	781615	0	0
2024-04-19 23:46:32			0	33563	0	0	0	17199	15850	156154	27126	952594	37512	106237	0	0	8142	781055	0	0
2024-04-19 23:47:32			0	33555	0	0	0	17194	15850	156257	27277	952568	37501	106235	0	0	8141	781462	0	0
2024-04-19 23:48:32			0	33547	0	0	0	17192	15840	156177	27448	952533	37523	106234	0	0	8141	781911	0	0
2024-04-19 23:49:32			0	33538	0	0	0	17187	15840	156233	27182	952560	37500	106232	0	0	8141	782369	0	0
2024-04-19 23:50:32			0	33519	0	0	0	17179	15840	156305	27140	952499	37479	106229	0	0	8140	783337	0	0
2024-04-19 23:51:32			0	33525	0	0	0	17194	15830	156413	27248	952535	37511	106235	0	0	8140	783073	0	0
2024-04-19 23:52:32			0	33505	0	0	0	17192	15840	156469	27007	952604	37500	106234	0	0	8139	784050	0	0
2024-04-19 23:53:32			0	33500	0	0	0	17194	15840	156501	27301	952578	37512	106235	0	0	8138	784305	0	0
2024-04-19 23:54:32			0	33481	0	0	0	17184	15830	156553	27291	952517	37512	106231	0	0	8137	785317	0	0
2024-04-19 23:55:32			0	33492	0	0	0	17192	15830	156521	27048	952570	37523	106234	0	0	8138	784755	0	0
2024-04-19 23:56:32			0	33478	0	0	0	17179	15830	156581	27400	952543	37500	106229	0	0	8137	785470	0	0
2024-04-19 23:57:32			0	33483	0	0	0	17197	15830	156561	27225	952622	37512	106236	0	0	8137	785215	0	0
2024-04-19 23:58:32			0	33480	0	0	0	17192	15830	156673	26916	952543	37512	106234	0	0	8137	785368	0	0
2024-04-19 23:59:32			0	33485	0	0	0	17199	15830	156625	27192	952543	37500	106237	0	0	8137	785113	0	0
2024-04-20 00:00:32			0	33479	0	0	0	17197	15830	156541	27204	952596	37512	106236	0	0	8137	785419	0	0
2024-04-20 00:01:32			0	33491	0	0	0	17192	15830	156529	27327	952570	37512	106234	0	0	8138	784806	0	0
2024-04-20 00:02:32			0	33516	0	0	0	17197	15830	156381	27196	952570	37512	106236	0	0	8139	783532	0	0
2024-04-20 00:03:32			0	33507	0	0	0	17202	15840	156549	27038	952560	37500	106238	0	0	8138	783948	0	0
2024-04-20 00:04:32			0	33517	0	0	0	17205	15830	156461	27208	952543	37500	106239	0	0	8139	783481	0	0
2024-04-20 00:05:32			0	33520	0	0	0	17202	15840	156417	27474	952586	37523	106238	0	0	8139	783286	0	0
2024-04-20 00:06:32			0	33515	0	0	0	17194	15840	156417	27272	952639	37512	106235	0	0	8139	783540	0	0
2024-04-20 00:07:32			0	33526	0	0	0	17192	15830	156361	27421	952570	37512	106234	0	0	8140	783022	0	0
2024-04-20 00:08:32			0	33498	0	0	0	17205	15830	156385	27199	952596	37512	106239	0	0	8138	784449	0	0
2024-04-20 00:09:32			0	33535	0	0	0	17187	15830	156433	27008	952588	37522	106232	0	0	8140	782564	0	0
2024-04-20 00:10:32			0	33526	0	0	0	17192	15830	156225	27303	952596	37512	106234	0	0	8140	783022	0	0
2024-04-20 00:11:32			0	33561	0	0	0	17194	15850	156253	27317	952594	37512	106235	0	0	8142	781157	0	0
2024-04-20 00:12:32			0	33548	0	0	0	17184	15830	156253	27216	952543	37512	106231	0	0	8141	781902	0	0
2024-04-20 00:13:32			0	33568	0	0	0	17189	15830	156241	27507	952570	37500	106233	0	0	8142	780885	0	0
2024-04-20 00:14:32			0	33572	0	0	0	17189	15830	156078	27473	952570	37490	106233	0	0	8142	780682	0	0
2024-04-20 00:15:32			0	33569	0	0	0	17197	15830	156214	27196	952543	37512	106236	0	0	8142	780835	0	0
2024-04-20 00:16:32			0	33585	0	0	0	17197	15830	156238	27204	952596	37512	106236	0	0	8143	780022	0	0
2024-04-20 00:17:32			0	33541	0	0	0	17197	15830	156177	27154	952562	37511	106236	0	0	8141	782259	0	0
2024-04-20 00:18:32			0	33567	0	0	0	17199	15830	156222	27880	952622	37490	106237	0	0	8142	780936	0	0
2024-04-20 00:19:32			0	33552	0	0	0	17202	15830	156273	27175	952596	37512	106238	0	0	8141	781699	0	0
2024-04-20 00:20:32			0	33545	0	0	0	17189	15840	156337	27196	952552	37523	106233	0	0	8141	782013	0	0
2024-04-20 00:21:32			0	33549	0	0	0	17194	15830	156385	27317	952596	37512	106235	0	0	8141	781852	0	0
2024-04-20 00:22:32			0	33557	0	0	0	17197	15830	156353	27419	952596	37512	106236	0	0	8141	781445	0	0
2024-04-20 00:23:32			0	33531	0	0	0	17192	15840	156405	27048	952604	37523	106234	0	0	8140	782725	0	0
2024-04-20 00:24:32			0	33532	0	0	0	17197	15830	156385	27147	952596	37500	106236	0	0	8140	782717	0	0
2024-04-20 00:25:32			0	33521	0	0	0	17194	15850	156377	27142	952541	37512	106235	0	0	8139	783193	0	0
2024-04-20 00:26:32			0	33509	0	0	0	17192	15840	156429	27076	952604	37500	106234	0	0	8139	783846	0	0
2024-04-20 00:27:32			0	33505	0	0	0	17194	15830	156457	27296	952562	37511	106235	0	0	8138	784092	0	0
2024-04-20 00:28:32			0	33497	0	0	0	17187	15840	156533	27031	952578	37500	106232	0	0	8138	784458	0	0
2024-04-20 00:29:32			0	33486	0	0	0	17192	15840	156649	27074	952552	37512	106234	0	0	8137	785019	0	0
2024-04-20 00:30:32			0	33474	0	0	0	17189	15830	156657	27514	952570	37512	106233	0	0	8137	785674	0	0
2024-04-20 00:31:32			0	33478	0	0	0	17179	15830	156589	27322	952535	37511	106229	0	0	8137	785470	0	0
2024-04-20 00:32:32			0	33455	0	0	0	17181	15830	156645	27277	952535	37500	106230	0	0	8136	786645	0	0
2024-04-20 00:33:32			0	33459	0	0	0	17171	15830	156757	27370	952509	37511	106226	0	0	8136	786441	0	0
2024-04-20 00:34:32			0	33449	0	0	0	17166	15830	156697	27287	952596	37500	106224	0	0	8136	786952	0	0
2024-04-20 00:35:32			0	33428	0	0	0	17163	15830	156717	27220	952509	37500	106223	0	0	8134	788026	0	0
2024-04-20 00:36:32			0	33405	0	0	0	17158	15820	156805	27189	952527	37510	106221	0	0	8133	789247	0	0
2024-04-20 00:37:32			0	33413	0	0	0	17145	15820	156929	27034	952493	37500	106216	0	0	8134	788837	0	0
2024-04-20 00:38:32			0	33384	0	0	0	17135	15820	156949	27239	952519	37500	106212	0	0	8132	790324	0	0
2024-04-20 00:39:32			0	33360	0	0	0	17137	15810	157053	27582	952432	37500	106213	0	0	8131	791599	0	0
2024-04-20 00:40:32			0	33361	0	0	0	17090	15800	157253	27374	952416	37508	106195	0	0	8131	791591	0	0
2024-04-20 00:41:32			0	33327	0	0	0	17070	15790	157437	27310	952321	37497	106187	0	0	8130	793382	0	0
2024-04-20 00:42:32			0	33273	0	0	0	17098	15800	157477	27241	952381	37486	106198	0	0	8126	796123	0	0
2024-04-20 00:43:32			0	33278	0	0	0	17096	15790	157597	27453	952286	37497	106197	0	0	8126	795908	0	0
2024-04-20 00:44:32			0	33235	0	0	0	17103	15790	157705	26776	952321	37507	106200	0	0	8124	798130	0	0
2024-04-20 00:45:32			0	33238	0	0	0	17103	15780	157749	26955	952304	37485	106200	0	0	8124	798018	0	0
2024-04-20 00:46:32			0	33236	0	0	0	17090	15770	157797	27249	952262	37485	106195	0	0	8124	798164	0	0
2024-04-20 00:47:32			0	33213	0	0	0	17093	15770	157837	27237	952288	37496	106196	0	0	8122	799355	0	0
2024-04-20 00:48:32			0	33224	0	0	0	17106	15770	157873	27092	952227	37485	106201	0	0	8123	798785	0	0
2024-04-20 00:49:32			0	33237	0	0	0	17114	15780	157861	27310	952296	37485	106204	0	0	8124	798070	0	0
2024-04-20 00:50:32			0	33234	0	0	0	17116	15780	157865	27185	952349	37496	106205	0	0	8123	798225	0	0
2024-04-20 00:51:32			0	33253	0	0	0	17054	15770	157845	27156	952235	37496	106181	0	0	8125	797285	0	0
2024-04-20 00:52:32			0	33204	0	0	0	17038	15760	158001	27050	952219	37495	106175	0	0	8123	799864	0	0
2024-04-20 00:53:32			0	33165	0	0	0	17051	15750	158065	27124	952124	37483	106180	0	0	8120	801931	0	0
2024-04-20 00:54:32			0	33144	0	0	0	17064	15750	158225	27495	952177	37472	106185	0	0	8119	803022	0	0
2024-04-20 00:55:32			0	33141	0	0	0	17088	15740	158449	27071	952160	37493	106194	0	0	8118	803222	0	0
2024-04-20 00:56:32			0	33146	0	0	0	17070	15740	158301	27360	952152	37502	106187	0	0	8119	802962	0	0
2024-04-20 00:57:32			0	33123	0	0	0	17005	15750	158445	26994	952142	37483	106162	0	0	8118	804115	0	0
2024-04-20 00:58:32			0	33109	0	0	0	17041	15730	158533	27124	952118	37480	106176	0	0	8117	804930	0	0
2024-04-20 00:59:32			0	33078	0	0	0	17051	15730	158645	26974	952065	37491	106180	0	0	8115	806547	0	0
2024-04-20 01:00:32			0	33073	0	0	0	17057	15720	158757	27187	952075	37491	106182	0	0	8114	806851	0	0
2024-04-20 01:01:32			0	33075	0	0	0	17015	15720	158689	27298	952067	37491	106166	0	0	8115	806747	0	0
2024-04-20 01:02:32			0	33028	0	0	0	16974	15720	158881	27135	951935	37480	106150	0	0	8113	809203	0	0
2024-04-20 01:03:32			0	32993	0	0	0	16976	15700	159133	27455	951937	37490	106151	0	0	8111	811124	0	0
2024-04-20 01:04:32			0	32951	0	0	0	16942	15700	159325	27431	951911	37479	106138	0	0	8109	813329	0	0
2024-04-20 01:05:32			0	32909	0	0	0	16981	15680	159509	27074	951826	37466	106153	0	0	8105	815626	0	0
2024-04-20 01:06:32			0	32912	0	0	0	16976	15680	159581	27369	951870	37476	106151	0	0	8106	815468	0	0
2024-04-20 01:07:32			0	32899	0	0	0	16937	15680	159641	27473	951844	37487	106136	0	0	8106	816153	0	0
2024-04-20 01:08:32			0	32868	0	0	0	16932	15670	159693	27279	951783	37464	106134	0	0	8104	817832	0	0
2024-04-20 01:09:32			0	32828	0	0	0	16916	15660	159929	27268	951680	37475	106128	0	0	8101	819991	0	0
2024-04-20 01:10:32			0	32786	0	0	0	16911	15650	160185	27324	951716	37473	106126	0	0	8099	822260	0	0
2024-04-20 01:11:32			0	32756	0	0	0	16906	15630	160204	27500	951640	37451	106124	0	0	8097	823941	0	0
2024-04-20 01:12:32			0	32735	0	0	0	16903	15630	160308	27369	951605	37460	106123	0	0	8096	825057	0	0
2024-04-20 01:13:32			0	32718	0	0	0	16896	15620	160484	27270	951623	37439	106120	0	0	8095	826007	0	0
2024-04-20 01:14:32			0	32697	0	0	0	16901	15610	160580	27526	951580	37470	106122	0	0	8093	827170	0	0
2024-04-20 01:15:32			0	32683	0	0	0	16919	15600	160668	27279	951564	37470	106129	0	0	8092	827961	0	0
2024-04-20 01:16:32			0	32690	0	0	0	16903	15600	160628	27647	951617	37470	106123	0	0	8093	827588	0	0
2024-04-20 01:17:32			0	32695	0	0	0	16922	15600	160680	27138	951609	37458	106130	0	0	8093	827321	0	0
2024-04-20 01:18:32			0	32692	0	0	0	16922	15600	160560	27152	951617	37459	106130	0	0	8093	827481	0	0
2024-04-20 01:19:32			0	32706	0	0	0	16924	15600	160492	27000	951556	37469	106131	0	0	8093	826735	0	0
2024-04-20 01:20:32			0	32703	0	0	0	16914	15600	160480	27301	951635	37480	106127	0	0	8093	826895	0	0
2024-04-20 01:21:32			0	32743	0	0	0	16922	15580	160316	27168	951566	37468	106130	0	0	8096	824854	0	0
2024-04-20 01:22:32			0	32739	0	0	0	16909	15600	160408	27315	951609	37458	106125	0	0	8096	824978	0	0
2024-04-20 01:23:32			0	32748	0	0	0	16924	15590	160396	27289	951548	37469	106131	0	0	8096	824544	0	0
2024-04-20 01:24:32			0	32746	0	0	0	16932	15570	160380	27516	951523	37478	106134	0	0	8096	824739	0	0
2024-04-20 01:25:32			0	32760	0	0	0	16945	15580	160356	27267	951566	37468	106139	0	0	8096	823950	0	0
2024-04-20 01:26:32			0	32793	0	0	0	16935	15590	160181	27336	951600	37458	106135	0	0	8099	822154	0	0
2024-04-20 01:27:32			0	32791	0	0	0	16916	15580	160077	27791	951558	37478	106128	0	0	8099	822305	0	0
2024-04-20 01:28:32			0	32784	0	0	0	16909	15580	160117	27497	951513	37479	106125	0	0	8098	822676	0	0
2024-04-20 01:29:32			0	32782	0	0	0	16924	15580	160121	27338	951540	37458	106131	0	0	8098	822782	0	0
2024-04-20 01:30:32			0	32806	0	0	0	16940	15570	160045	27383	951568	37478	106137	0	0	8099	821554	0	0
2024-04-20 01:31:32			0	32821	0	0	0	16940	15580	160033	27445	951592	37458	106137	0	0	8100	820715	0	0
2024-04-20 01:32:32			0	32828	0	0	0	16950	15580	160045	27429	951610	37489	106141	0	0	8100	820344	0	0
2024-04-20 01:33:32			0	32835	0	0	0	16955	15590	159885	27343	951653	37480	106143	0	0	8101	819929	0	0
2024-04-20 01:34:32			0	32850	0	0	0	16953	15590	159789	27511	951574	37469	106142	0	0	8102	819136	0	0
2024-04-20 01:35:32			0	32861	0	0	0	16942	15590	159841	27371	951679	37458	106138	0	0	8103	818555	0	0
2024-04-20 01:36:32			0	32861	0	0	0	16942	15590	159801	27440	951706	37469	106138	0	0	8103	818555	0	0
2024-04-20 01:37:32			0	32869	0	0	0	16953	15590	159885	27384	951627	37480	106142	0	0	8103	818132	0	0
2024-04-20 01:38:32			0	32884	0	0	0	16961	15580	159745	27275	951698	37479	106145	0	0	8104	817384	0	0
2024-04-20 01:39:32			0	32895	0	0	0	16963	15600	159669	27230	951635	37469	106146	0	0	8104	816716	0	0
2024-04-20 01:40:32			0	32891	0	0	0	16955	15600	159709	27575	951661	37469	106143	0	0	8104	816927	0	0
2024-04-20 01:41:32			0	32900	0	0	0	16961	15600	159673	27251	951696	37459	106145	0	0	8105	816452	0	0
2024-04-20 01:42:32			0	32901	0	0	0	16953	15610	159601	27192	951651	37470	106142	0	0	8105	816355	0	0
2024-04-20 01:43:32			0	32898	0	0	0	16942	15600	159621	27159	951661	37469	106138	0	0	8105	816558	0	0
2024-04-20 01:44:32			0	32905	0	0	0	16953	15590	159489	27282	951627	37469	106142	0	0	8105	816232	0	0
2024-04-20 01:45:32			0	32918	0	0	0	16953	15600	159581	27415	951661	37491	106142	0	0	8106	815504	0	0
2024-04-20 01:46:32			0	32905	0	0	0	16974	15600	159621	27251	951688	37480	106150	0	0	8105	816188	0	0
2024-04-20 01:47:32			0	32928	0	0	0	16950	15600	159529	27351	951722	37481	106141	0	0	8107	814977	0	0
2024-04-20 01:48:32			0	32951	0	0	0	16963	15610	159445	27303	951712	37493	106146	0	0	8108	813723	0	0
2024-04-20 01:49:32			0	32949	0	0	0	16945	15600	159437	27301	951643	37481	106139	0	0	8108	813872	0	0
2024-04-20 01:50:32			0	32963	0	0	0	16929	15600	159377	27000	951643	37481	106133	0	0	8109	813136	0	0
2024-04-20 01:51:32			0	32968	0	0	0	16937	15600	159377	27312	951617	37470	106136	0	0	8109	812873	0	0
2024-04-20 01:52:32			0	32925	0	0	0	16932	15610	159549	27105	951572	37470	106134	0	0	8107	815091	0	0
2024-04-20 01:53:32			0	32911	0	0	0	16950	15590	159509	27248	951574	37480	106141	0	0	8106	815916	0	0
2024-04-20 01:54:32			0	32936	0	0	0	16958	15600	159569	27156	951661	37480	106144	0	0	8107	814556	0	0
2024-04-20 01:55:32			0	32929	0	0	0	16974	15600	159581	27296	951643	37470	106150	0	0	8106	814924	0	0
2024-04-20 01:56:32			0	32953	0	0	0	16979	15600	159441	27298	951722	37481	106152	0	0	8108	813662	0	0
2024-04-20 01:57:32			0	32969	0	0	0	16994	15610	159397	27230	951783	37492	106158	0	0	8108	812777	0	0
2024-04-20 01:58:32			0	32988	0	0	0	16989	15610	159257	27211	951783	37470	106156	0	0	8110	811780	0	0
2024-04-20 01:59:32			0	33001	0	0	0	16984	15620	159225	27317	951799	37471	106154	0	0	8111	811054	0	0
2024-04-20 02:00:32			0	33016	0	0	0	17010	15610	159137	27029	951757	37481	106164	0	0	8111	810311	0	0
2024-04-20 02:01:32			0	33046	0	0	0	16997	15610	158933	27137	951817	37482	106159	0	0	8113	808741	0	0
2024-04-20 02:02:32			0	33055	0	0	0	16981	15620	158881	26889	951807	37482	106153	0	0	8114	808227	0	0
2024-04-20 02:03:32			0	33085	0	0	0	16984	15630	158773	27199	951763	37482	106154	0	0	8116	806616	0	0
2024-04-20 02:04:32			0	33080	0	0	0	17012	15620	158757	27128	951860	37494	106165	0	0	8115	806920	0	0
2024-04-20 02:05:32			0	33117	0	0	0	17010	15630	158685	27020	951876	37483	106164	0	0	8117	804947	0	0
2024-04-20 02:06:32			0	33137	0	0	0	16992	15630	158577	27272	951824	37483	106157	0	0	8119	803906	0	0
2024-04-20 02:07:32			0	33157	0	0	0	16999	15640	158553	27298	951858	37473	106160	0	0	8120	802822	0	0
2024-04-20 02:08:32			0	33155	0	0	0	17012	15630	158425	27119	951824	37472	106165	0	0	8120	802969	0	0
2024-04-20 02:09:32			0	33187	0	0	0	17012	15650	158297	27060	951901	37484	106165	0	0	8122	801220	0	0
2024-04-20 02:10:32			0	33185	0	0	0	17018	15640	158293	27248	951866	37495	106167	0	0	8121	801367	0	0
2024-04-20 02:11:32			0	33219	0	0	0	17033	15640	158081	27315	951893	37484	106173	0	0	8123	799604	0	0
2024-04-20 02:12:32			0	33229	0	0	0	17015	15660	158033	27402	951970	37475	106166	0	0	8124	799000	0	0
2024-04-20 02:13:32			0	33242	0	0	0	17033	15650	157973	27360	951935	37496	106173	0	0	8125	798370	0	0
2024-04-20 02:14:32			0	33251	0	0	0	17049	15650	157933	27289	951962	37496	106179	0	0	8125	797904	0	0
2024-04-20 02:15:32			0	33279	0	0	0	17015	15660	157761	27289	951943	37486	106166	0	0	8127	796414	0	0
2024-04-20 02:16:32			0	33293	0	0	0	17025	15650	157829	27097	951935	37485	106170	0	0	8128	795734	0	0
2024-04-20 02:17:32			0	33290	0	0	0	17023	15660	157769	27078	951891	37475	106169	0	0	8128	795846	0	0
2024-04-20 02:18:32			0	33288	0	0	0	17020	15660	157785	27183	951951	37497	106168	0	0	8128	795949	0	0
2024-04-20 02:19:32			0	33287	0	0	0	17044	15660	157797	27197	951917	37486	106177	0	0	8127	796001	0	0
2024-04-20 02:20:32			0	33293	0	0	0	17044	15670	157777	27293	951986	37486	106177	0	0	8128	795648	0	0
2024-04-20 02:21:32			0	33294	0	0	0	17057	15670	157721	26937	952012	37497	106182	0	0	8127	795597	0	0
2024-04-20 02:22:32			0	33309	0	0	0	17051	15680	157657	26902	952002	37499	106180	0	0	8128	794780	0	0
2024-04-20 02:23:32			0	33345	0	0	0	17036	15670	157617	27053	951994	37498	106174	0	0	8131	792968	0	0
2024-04-20 02:24:32			0	33319	0	0	0	16997	15680	157601	27274	951949	37487	106159	0	0	8130	794265	0	0
2024-04-20 02:25:32			0	33290	0	0	0	17007	15670	157793	27206	951941	37475	106163	0	0	8128	795803	0	0
2024-04-20 02:26:32			0	33285	0	0	0	17025	15670	157769	27093	951915	37498	106170	0	0	8127	796061	0	0
2024-04-20 02:27:32			0	33296	0	0	0	17015	15670	157709	26984	951933	37486	106166	0	0	8128	795493	0	0
2024-04-20 02:28:32			0	33296	0	0	0	16974	15680	157753	27088	951931	37499	106150	0	0	8129	795450	0	0
2024-04-20 02:29:32			0	33265	0	0	0	17025	15660	157897	27281	951891	37486	106170	0	0	8126	797137	0	0
2024-04-20 02:30:32			0	33284	0	0	0	17005	15660	157841	27050	951951	37497	106162	0	0	8128	796156	0	0
2024-04-20 02:31:32			0	33305	0	0	0	17015	15670	157721	26967	951881	37497	106166	0	0	8129	795029	0	0
2024-04-20 02:32:32			0	33299	0	0	0	17015	15670	157725	27079	951933	37486	106166	0	0	8128	795339	0	0
2024-04-20 02:33:32			0	33320	0	0	0	17015	15660	157657	26968	951872	37486	106166	0	0	8130	794299	0	0
2024-04-20 02:34:32			0	33308	0	0	0	17005	15670	157701	27159	951907	37497	106162	0	0	8129	794874	0	0
2024-04-20 02:35:32			0	33310	0	0	0	17012	15660	157705	27142	951925	37486	106165	0	0	8129	794814	0	0
2024-04-20 02:36:32			0	33330	0	0	0	17028	15660	157681	27255	951951	37497	106171	0	0	8130	793783	0	0
2024-04-20 02:37:32			0	33329	0	0	0	17036	15670	157621	27272	951968	37498	106174	0	0	8130	793792	0	0
2024-04-20 02:38:32			0	33353	0	0	0	17028	15670	157585	27367	951960	37486	106171	0	0	8131	792557	0	0
2024-04-20 02:39:32			0	33356	0	0	0	17036	15660	157501	27192	952004	37497	106174	0	0	8131	792445	0	0
2024-04-20 02:40:32			0	33364	0	0	0	17049	15670	157601	27079	951960	37497	106179	0	0	8132	791991	0	0
2024-04-20 02:41:32			0	33381	0	0	0	17018	15680	157341	27159	951976	37499	106167	0	0	8133	791075	0	0
2024-04-20 02:42:32			0	33345	0	0	0	16979	15670	157389	26828	951986	37486	106152	0	0	8132	792968	0	0
2024-04-20 02:43:32			0	33339	0	0	0	16974	15680	157581	26717	951923	37476	106150	0	0	8132	793234	0	0
2024-04-20 02:44:32			0	33321	0	0	0	16994	15660	157665	27201	951846	37486	106158	0	0	8130	794247	0	0
2024-04-20 02:45:32			0	33299	0	0	0	16999	15660	157617	27189	951838	37486	106160	0	0	8129	795381	0	0
2024-04-20 02:46:32			0	33276	0	0	0	16999	15650	157741	27079	951935	37496	106160	0	0	8127	796612	0	0
2024-04-20 02:47:32			0	33282	0	0	0	16984	15660	157721	27379	951891	37497	106154	0	0	8128	796259	0	0
2024-04-20 02:48:32			0	33286	0	0	0	16979	15650	157825	27450	951883	37485	106152	0	0	8128	796095	0	0
2024-04-20 02:49:32			0	33257	0	0	0	16942	15650	157833	27183	951856	37485	106138	0	0	8127	797594	0	0
2024-04-20 02:50:32			0	33256	0	0	0	16940	15640	158021	26885	951840	37495	106137	0	0	8127	797688	0	0
2024-04-20 02:51:32			0	33234	0	0	0	16942	15630	158173	27261	951745	37483	106138	0	0	8126	798870	0	0
2024-04-20 02:52:32			0	33204	0	0	0	16953	15630	158185	27208	951771	37483	106142	0	0	8124	800425	0	0
2024-04-20 02:53:32			0	33187	0	0	0	16935	15640	158237	27010	951779	37473	106135	0	0	8123	801263	0	0
2024-04-20 02:54:32			0	33192	0	0	0	16940	15640	158357	27173	951700	37484	106137	0	0	8123	801004	0	0
2024-04-20 02:55:32			0	33187	0	0	0	16974	15620	158377	27466	951755	37482	106150	0	0	8122	801350	0	0
2024-04-20 02:56:32			0	33185	0	0	0	16976	15630	158385	27119	951737	37471	106151	0	0	8122	801410	0	0
2024-04-20 02:57:32			0	33197	0	0	0	16968	15620	158241	27289	951755	37482	106148	0	0	8123	800831	0	0
2024-04-20 02:58:32			0	33232	0	0	0	16966	15620	158225	27177	951746	37471	106147	0	0	8125	799017	0	0
2024-04-20 02:59:32			0	33221	0	0	0	16963	15630	158149	27213	951789	37482	106146	0	0	8124	799543	0	0
2024-04-20 03:00:32			0	33230	0	0	0	16966	15620	158157	27272	951746	37482	106147	0	0	8125	799120	0	0
2024-04-20 03:01:32			0	33234	0	0	0	16971	15620	158081	27343	951773	37471	106149	0	0	8125	798913	0	0
2024-04-20 03:02:32			0	33233	0	0	0	16979	15620	158161	27424	951746	37494	106152	0	0	8125	798965	0	0
2024-04-20 03:03:32			0	33236	0	0	0	16992	15630	158101	27426	951842	37482	106157	0	0	8125	798766	0	0
2024-04-20 03:04:32			0	33242	0	0	0	16992	15630	158073	27429	951824	37472	106157	0	0	8125	798456	0	0
2024-04-20 03:05:32			0	33240	0	0	0	16997	15630	157969	27313	951771	37483	106159	0	0	8125	798559	0	0
2024-04-20 03:06:32			0	33285	0	0	0	16953	15620	157865	27713	951807	37494	106142	0	0	8128	796275	0	0
2024-04-20 03:07:32			0	33260	0	0	0	16927	15630	157889	27524	951737	37494	106132	0	0	8127	797524	0	0
2024-04-20 03:08:32			0	33243	0	0	0	16942	15610	158021	27265	951730	37470	106138	0	0	8126	798490	0	0
2024-04-20 03:09:32			0	33230	0	0	0	16924	15620	158065	27402	951720	37482	106131	0	0	8126	799120	0	0
2024-04-20 03:10:32			0	33235	0	0	0	16924	15610	158169	27118	951678	37470	106131	0	0	8126	798904	0	0
2024-04-20 03:11:32			0	33191	0	0	0	16901	15600	158201	27033	951643	37481	106122	0	0	8123	801228	0	0
2024-04-20 03:12:32			0	33168	0	0	0	16919	15600	158389	27327	951635	37469	106129	0	0	8122	802423	0	0
2024-04-20 03:13:32			0	33192	0	0	0	16924	15600	158465	27410	951582	37491	106131	0	0	8123	801176	0	0
2024-04-20 03:14:32			0	33176	0	0	0	16961	15600	158529	27384	951635	37491	106145	0	0	8122	802007	0	0
2024-04-20 03:15:32			0	33194	0	0	0	16992	15610	158253	27170	951704	37481	106157	0	0	8122	801030	0	0
2024-04-20 03:16:32			0	33223	0	0	0	16997	15610	158245	27012	951730	37502	106159	0	0	8124	799526	0	0
2024-04-20 03:17:32			0	33253	0	0	0	16989	15610	158117	26842	951809	37492	106156	0	0	8126	797973	0	0
2024-04-20 03:18:32			0	33269	0	0	0	16955	15620	157937	27386	951860	37504	106143	0	0	8127	797102	0	0
2024-04-20 03:19:32			0	33265	0	0	0	16935	15610	157929	27464	951712	37482	106135	0	0	8127	797352	0	0
2024-04-20 03:20:32			0	33242	0	0	0	16922	15610	157949	27319	951651	37492	106130	0	0	8126	798542	0	0
2024-04-20 03:21:32			0	33241	0	0	0	16916	15610	158085	27253	951686	37470	106128	0	0	8126	798593	0	0
2024-04-20 03:22:32			0	33243	0	0	0	16906	15600	158145	27072	951582	37480	106124	0	0	8127	798533	0	0
2024-04-20 03:23:32			0	33200	0	0	0	16896	15600	158241	27017	951643	37481	106120	0	0	8124	800761	0	0
2024-04-20 03:24:32			0	33188	0	0	0	16898	15580	158329	27294	951610	37457	106121	0	0	8123	801470	0	0
2024-04-20 03:25:32			0	33167	0	0	0	16919	15580	158437	27438	951558	37467	106129	0	0	8122	802561	0	0
2024-04-20 03:26:32			0	33164	0	0	0	16914	15590	158325	27550	951600	37480	106127	0	0	8122	802674	0	0
2024-04-20 03:27:32			0	33170	0	0	0	16901	15580	158481	27234	951592	37468	106122	0	0	8122	802406	0	0
2024-04-20 03:28:32			0	33176	0	0	0	16914	15570	158497	27303	951568	37478	106127	0	0	8122	802137	0	0
2024-04-20 03:29:32			0	33179	0	0	0	16922	15560	158425	27353	951560	37466	106130	0	0	8122	802024	0	0
2024-04-20 03:30:32			0	33170	0	0	0	16919	15560	158389	27400	951578	37477	106129	0	0	8122	802492	0	0
2024-04-20 03:31:32			0	33194	0	0	0	16942	15580	158505	27542	951610	37489	106138	0	0	8123	801159	0	0
2024-04-20 03:32:32			0	33195	0	0	0	16932	15570	158361	27538	951542	37489	106134	0	0	8123	801150	0	0
2024-04-20 03:33:32			0	33202	0	0	0	16942	15570	158361	27308	951647	37489	106138	0	0	8123	800787	0	0
2024-04-20 03:34:32			0	33206	0	0	0	16968	15570	158321	27633	951681	37478	106148	0	0	8123	800579	0	0
2024-04-20 03:35:32			0	33221	0	0	0	16974	15580	158193	27346	951689	37478	106150	0	0	8124	799758	0	0
2024-04-20 03:36:32			0	33254	0	0	0	17002	15600	158045	27732	951661	37491	106161	0	0	8126	797964	0	0
2024-04-20 03:37:32			0	33287	0	0	0	17015	15600	157905	27220	951827	37502	106166	0	0	8127	796258	0	0
2024-04-20 03:38:32			0	33323	0	0	0	16984	15610	157789	27422	951836	37492	106154	0	0	8130	794358	0	0
2024-04-20 03:39:32			0	33330	0	0	0	16968	15610	157773	27265	951757	37481	106148	0	0	8131	793997	0	0
2024-04-20 03:40:32			0	33308	0	0	0	16948	15610	157801	27485	951712	37482	106140	0	0	8130	795131	0	0
2024-04-20 03:41:32			0	33291	0	0	0	16929	15620	157905	27239	951720	37482	106133	0	0	8129	795966	0	0
2024-04-20 03:42:32			0	33276	0	0	0	16935	15600	157917	26842	951696	37481	106135	0	0	8128	796826	0	0
2024-04-20 03:43:32			0	33261	0	0	0	16929	15600	157953	27126	951643	37470	106133	0	0	8127	797601	0	0
2024-04-20 03:44:32			0	33261	0	0	0	16942	15600	158029	27097	951688	37480	106138	0	0	8127	797601	0	0
2024-04-20 03:45:32			0	33261	0	0	0	16916	15600	158005	27507	951661	37480	106128	0	0	8127	797601	0	0
2024-04-20 03:46:32			0	33235	0	0	0	16911	15590	158113	26984	951627	37480	106126	0	0	8126	798990	0	0
2024-04-20 03:47:32			0	33213	0	0	0	16901	15580	158161	26998	951671	37468	106122	0	0	8125	800173	0	0
2024-04-20 03:48:32			0	33201	0	0	0	16937	15580	158217	27183	951566	37458	106136	0	0	8123	800796	0	0
2024-04-20 03:49:32			0	33200	0	0	0	16950	15570	158185	27329	951621	37489	106141	0	0	8123	800891	0	0
2024-04-20 03:50:32			0	33225	0	0	0	16945	15580	158153	27135	951663	37478	106139	0	0	8125	799551	0	0
2024-04-20 03:51:32			0	33235	0	0	0	16932	15580	158213	27433	951610	37478	106134	0	0	8125	799033	0	0
2024-04-20 03:52:32			0	33221	0	0	0	16940	15580	158053	27282	951716	37478	106137	0	0	8125	799758	0	0
2024-04-20 03:53:32			0	33208	0	0	0	16945	15600	158201	27284	951714	37469	106139	0	0	8124	800346	0	0
2024-04-20 03:54:32			0	33238	0	0	0	16898	15580	158117	27034	951645	37479	106121	0	0	8126	798878	0	0
2024-04-20 03:55:32			0	33212	0	0	0	16924	15580	158157	27237	951671	37479	106131	0	0	8124	800225	0	0
2024-04-20 03:56:32			0	33208	0	0	0	16898	15580	158181	27490	951610	37478	106121	0	0	8124	800433	0	0
2024-04-20 03:57:32			0	33202	0	0	0	16885	15570	158149	27274	951594	37467	106116	0	0	8124	800787	0	0
2024-04-20 03:58:32			0	33157	0	0	0	16890	15560	158361	27171	951481	37466	106118	0	0	8121	803168	0	0
2024-04-20 03:59:32			0	33160	0	0	0	16880	15560	158377	27460	951552	37477	106114	0	0	8122	803012	0	0
2024-04-20 04:00:32			0	33129	0	0	0	16896	15550	158577	27182	951509	37476	106120	0	0	8120	804669	0	0
2024-04-20 04:01:32			0	33145	0	0	0	16896	15560	158481	27440	951586	37489	106120	0	0	8121	803792	0	0
2024-04-20 04:02:32			0	33155	0	0	0	16919	15560	158449	27175	951604	37455	106129	0	0	8121	803272	0	0
2024-04-20 04:03:32			0	33166	0	0	0	16906	15550	158485	27209	951544	37477	106124	0	0	8122	802743	0	0
2024-04-20 04:04:32			0	33151	0	0	0	16903	15550	158465	27202	951544	37477	106123	0	0	8121	803523	0	0
2024-04-20 04:05:32			0	33177	0	0	0	16898	15560	158377	26975	951533	37489	106121	0	0	8122	802128	0	0
2024-04-20 04:06:32			0	33174	0	0	0	16901	15540	158429	27230	951422	37476	106122	0	0	8122	802370	0	0
2024-04-20 04:07:32			0	33174	0	0	0	16880	15550	158401	27209	951623	37488	106114	0	0	8123	802327	0	0
2024-04-20 04:08:32			0	33157	0	0	0	16885	15550	158469	27518	951457	37465	106116	0	0	8121	803211	0	0
2024-04-20 04:09:32			0	33153	0	0	0	16875	15550	158477	26915	951509	37455	106112	0	0	8121	803419	0	0
2024-04-20 04:10:32			0	33129	0	0	0	16888	15540	158481	27235	951493	37475	106117	0	0	8120	804712	0	0
2024-04-20 04:11:32			0	33161	0	0	0	16885	15540	158529	27215	951475	37465	106116	0	0	8122	803046	0	0
2024-04-20 04:12:32			0	33135	0	0	0	16885	15530	158433	27504	951450	37474	106116	0	0	8120	804443	0	0
2024-04-20 04:13:32			0	33139	0	0	0	16898	15530	158629	26927	951511	37486	106121	0	0	8120	804234	0	0
2024-04-20 04:14:32			0	33151	0	0	0	16888	15540	158545	27197	951493	37475	106117	0	0	8121	803566	0	0
2024-04-20 04:15:32			0	33138	0	0	0	16880	15550	158505	27020	951457	37476	106114	0	0	8120	804200	0	0
2024-04-20 04:16:32			0	33133	0	0	0	16883	15540	158621	27313	951475	37465	106115	0	0	8120	804503	0	0
2024-04-20 04:17:32			0	33141	0	0	0	16898	15540	158657	27085	951501	37465	106121	0	0	8120	804087	0	0
2024-04-20 04:18:32			0	33108	0	0	0	16872	15540	158633	27206	951467	37475	106111	0	0	8119	805806	0	0
2024-04-20 04:19:32			0	33101	0	0	0	16857	15530	158753	27422	951485	37475	106105	0	0	8118	806215	0	0
2024-04-20 04:20:32			0	33096	0	0	0	16883	15530	158777	27130	951459	37475	106115	0	0	8118	806476	0	0
2024-04-20 04:21:32			0	33120	0	0	0	16859	15530	158765	27329	951485	37475	106106	0	0	8120	805224	0	0
2024-04-20 04:22:32			0	33100	0	0	0	16862	15530	158753	27060	951459	37475	106107	0	0	8118	806267	0	0
2024-04-20 04:23:32			0	33061	0	0	0	16838	15530	159005	27182	951424	37474	106098	0	0	8116	808304	0	0
2024-04-20 04:24:32			0	33052	0	0	0	16857	15520	158965	27133	951390	37474	106105	0	0	8115	808819	0	0
2024-04-20 04:25:32			0	33059	0	0	0	16870	15520	159037	27215	951408	37484	106110	0	0	8116	808453	0	0
2024-04-20 04:26:32			0	33055	0	0	0	16870	15510	158965	27433	951444	37472	106110	0	0	8115	808705	0	0
2024-04-20 04:27:32			0	33073	0	0	0	16877	15520	158937	27395	951390	37485	106113	0	0	8116	807721	0	0
2024-04-20 04:28:32			0	33066	0	0	0	16867	15510	158973	27334	951373	37473	106109	0	0	8116	808130	0	0
2024-04-20 04:29:32			0	33070	0	0	0	16854	15510	158921	27308	951373	37473	106104	0	0	8116	807921	0	0
2024-04-20 04:30:32			0	33042	0	0	0	16823	15510	159045	27102	951418	37461	106092	0	0	8115	809386	0	0
2024-04-20 04:31:32			0	33013	0	0	0	16851	15510	159221	27531	951313	37461	106103	0	0	8113	810905	0	0
2024-04-20 04:32:32			0	33049	0	0	0	16877	15510	159137	27509	951365	37472	106113	0	0	8115	809019	0	0
2024-04-20 04:33:32			0	33054	0	0	0	16883	15510	159065	27126	951418	37472	106115	0	0	8115	808758	0	0
2024-04-20 04:34:32			0	33053	0	0	0	16864	15500	159117	27301	951410	37472	106108	0	0	8115	808853	0	0
2024-04-20 04:35:32			0	33053	0	0	0	16859	15510	159001	27140	951452	37473	106106	0	0	8115	808810	0	0
2024-04-20 04:36:32			0	33043	0	0	0	16828	15510	159077	27305	951373	37484	106094	0	0	8115	809333	0	0
2024-04-20 04:37:32			0	33046	0	0	0	16841	15510	159137	27320	951313	37461	106099	0	0	8115	809176	0	0
2024-04-20 04:38:32			0	33014	0	0	0	16836	15500	159185	27452	951357	37472	106097	0	0	8113	810896	0	0
2024-04-20 04:39:32			0	33012	0	0	0	16838	15500	159237	27319	951323	37472	106098	0	0	8113	811001	0	0
2024-04-20 04:40:32			0	33013	0	0	0	16838	15490	159285	27353	951262	37472	106098	0	0	8113	810992	0	0
2024-04-20 04:41:32			0	33002	0	0	0	16846	15500	159357	27426	951357	37472	106101	0	0	8112	811526	0	0
2024-04-20 04:42:32			0	32996	0	0	0	16844	15490	159385	27606	951341	37460	106100	0	0	8112	811884	0	0
2024-04-20 04:43:32			0	33029	0	0	0	16859	15500	159309	27377	951375	37483	106106	0	0	8114	810110	0	0
2024-04-20 04:44:32			0	33009	0	0	0	16854	15490	159325	27476	951314	37460	106104	0	0	8113	811202	0	0
2024-04-20 04:45:32			0	33025	0	0	0	16883	15500	159225	27294	951349	37483	106115	0	0	8113	810319	0	0
2024-04-20 04:46:32			0	33028	0	0	0	16880	15500	159201	27168	951436	37484	106114	0	0	8113	810162	0	0
2024-04-20 04:47:32			0	33029	0	0	0	16875	15500	159109	27301	951375	37483	106112	0	0	8114	810110	0	0
2024-04-20 04:48:32			0	33036	0	0	0	16880	15510	159129	27161	951418	37484	106114	0	0	8114	809700	0	0
2024-04-20 04:49:32			0	33047	0	0	0	16885	15510	159149	27722	951392	37472	106116	0	0	8115	809124	0	0
2024-04-20 04:50:32			0	33059	0	0	0	16875	15510	159049	27225	951426	37473	106112	0	0	8115	808496	0	0
2024-04-20 04:51:32			0	33048	0	0	0	16875	15510	159049	27658	951479	37484	106112	0	0	8115	809072	0	0
2024-04-20 04:52:32			0	33042	0	0	0	16864	15510	159041	27519	951373	37473	106108	0	0	8115	809386	0	0
2024-04-20 04:53:32			0	33037	0	0	0	16851	15510	159057	27202	951373	37473	106103	0	0	8115	809647	0	0
2024-04-20 04:54:32			0	33031	0	0	0	16844	15510	159253	27265	951295	37484	106100	0	0	8114	809962	0	0
2024-04-20 04:55:32			0	33013	0	0	0	16836	15500	159153	27441	951384	37472	106097	0	0	8113	810949	0	0
2024-04-20 04:56:32			0	33008	0	0	0	16862	15510	159165	27421	951339	37484	106107	0	0	8113	811167	0	0
2024-04-20 04:57:32			0	33015	0	0	0	16849	15500	159165	27542	951331	37472	106102	0	0	8113	810844	0	0
2024-04-20 04:58:32			0	33015	0	0	0	16851	15500	159229	27124	951357	37484	106103	0	0	8113	810844	0	0
2024-04-20 04:59:32			0	33006	0	0	0	16851	15500	159273	27505	951305	37472	106103	0	0	8113	811316	0	0
2024-04-20 05:00:32			0	33012	0	0	0	16833	15490	159237	27033	951341	37472	106096	0	0	8113	811044	0	0
2024-04-20 05:01:32			0	33001	0	0	0	16836	15500	159237	27183	951349	37472	106097	0	0	8113	811578	0	0
2024-04-20 05:02:32			0	33028	0	0	0	16831	15500	159349	27055	951331	37461	106095	0	0	8114	810162	0	0
2024-04-20 05:03:32			0	32986	0	0	0	16851	15500	159393	27410	951244	37472	106103	0	0	8111	812365	0	0
2024-04-20 05:04:32			0	33001	0	0	0	16880	15500	159301	27455	951349	37483	106114	0	0	8112	811578	0	0
2024-04-20 05:05:32			0	33037	0	0	0	16854	15490	159221	27275	951341	37483	106104	0	0	8114	809735	0	0
2024-04-20 05:06:32			0	33043	0	0	0	16867	15500	159121	27208	951375	37472	106109	0	0	8115	809377	0	0
2024-04-20 05:07:32			0	33042	0	0	0	16872	15500	159173	27332	951375	37460	106111	0	0	8114	809429	0	0
2024-04-20 05:08:32			0	33047	0	0	0	16859	15500	159145	27138	951357	37484	106106	0	0	8115	809167	0	0
2024-04-20 05:09:32			0	33025	0	0	0	16831	15490	159201	27469	951306	37482	106095	0	0	8114	810363	0	0
2024-04-20 05:10:32			0	33031	0	0	0	16838	15490	159265	27493	951288	37460	106098	0	0	8114	810049	0	0
2024-04-20 05:11:32			0	33029	0	0	0	16857	15500	159213	27428	951323	37483	106105	0	0	8114	810110	0	0
2024-04-20 05:12:32			0	33034	0	0	0	16870	15490	159161	27178	951367	37460	106110	0	0	8114	809892	0	0
2024-04-20 05:13:32			0	33041	0	0	0	16849	15500	159097	27384	951375	37483	106102	0	0	8115	809481	0	0
2024-04-20 05:14:32			0	33047	0	0	0	16851	15500	159133	27326	951323	37460	106103	0	0	8115	809167	0	0
2024-04-20 05:15:32			0	33046	0	0	0	16849	15500	159193	27466	951375	37483	106102	0	0	8115	809220	0	0
2024-04-20 05:16:32			0	33047	0	0	0	16846	15490	159133	27216	951341	37472	106101	0	0	8115	809211	0	0
2024-04-20 05:17:32			0	33047	0	0	0	16836	15500	159153	27251	951349	37483	106097	0	0	8115	809167	0	0
2024-04-20 05:18:32			0	33031	0	0	0	16836	15500	159177	27123	951349	37472	106097	0	0	8114	810005	0	0
2024-04-20 05:19:32			0	33012	0	0	0	16833	15490	159257	27379	951280	37482	106096	0	0	8113	811044	0	0
2024-04-20 05:20:32			0	33007	0	0	0	16828	15490	159305	27059	951280	37482	106094	0	0	8113	811307	0	0
2024-04-20 05:21:32			0	33013	0	0	0	16828	15490	159281	27059	951288	37472	106094	0	0	8113	810992	0	0
2024-04-20 05:22:32			0	33015	0	0	0	16820	15490	159377	27137	951227	37471	106091	0	0	8114	810887	0	0
2024-04-20 05:23:32			0	32991	0	0	0	16825	15480	159381	27265	951272	37470	106093	0	0	8112	812190	0	0
2024-04-20 05:24:32			0	32988	0	0	0	16815	15480	159385	27072	951264	37470	106089	0	0	8112	812348	0	0
2024-04-20 05:25:32			0	33001	0	0	0	16815	15480	159277	27289	951185	37481	106089	0	0	8113	811665	0	0
2024-04-20 05:26:32			0	32984	0	0	0	16825	15480	159473	27222	951290	37470	106093	0	0	8112	812558	0	0
2024-04-20 05:27:32			0	32997	0	0	0	16815	15470	159477	27488	951203	37458	106089	0	0	8113	811919	0	0
2024-04-20 05:28:32			0	32988	0	0	0	16810	15480	159525	27305	951211	37492	106087	0	0	8112	812348	0	0
2024-04-20 05:29:32			0	32969	0	0	0	16797	15480	159461	27144	951211	37470	106082	0	0	8111	813346	0	0
2024-04-20 05:30:32			0	32968	0	0	0	16792	15470	159577	27192	951195	37458	106080	0	0	8111	813442	0	0
2024-04-20 05:31:32			0	32947	0	0	0	16781	15470	159577	27580	951142	37469	106076	0	0	8110	814547	0	0
2024-04-20 05:32:32			0	32968	0	0	0	16812	15470	159505	27173	951221	37480	106088	0	0	8111	813442	0	0
2024-04-20 05:33:32			0	32981	0	0	0	16810	15470	159553	27357	951203	37480	106087	0	0	8112	812759	0	0
2024-04-20 05:34:32			0	32965	0	0	0	16818	15470	159485	27310	951195	37480	106090	0	0	8110	813600	0	0
2024-04-20 05:35:32			0	32976	0	0	0	16810	15460	159585	27079	951187	37458	106087	0	0	8111	813065	0	0
2024-04-20 05:36:32			0	32978	0	0	0	16810	15470	159433	27142	951203	37469	106087	0	0	8111	812917	0	0
2024-04-20 05:37:32			0	32989	0	0	0	16810	15470	159381	27156	951248	37448	106087	0	0	8112	812339	0	0
2024-04-20 05:38:32			0	33001	0	0	0	16807	15460	159441	27433	951187	37458	106086	0	0	8113	811753	0	0
2024-04-20 05:39:32			0	32989	0	0	0	16812	15470	159449	27173	951248	37469	106088	0	0	8112	812339	0	0
2024-04-20 05:40:32			0	32977	0	0	0	16781	15460	159433	27407	951161	37468	106076	0	0	8112	813013	0	0
2024-04-20 05:41:32			0	32962	0	0	0	16792	15460	159577	27455	951187	37458	106080	0	0	8111	813801	0	0
2024-04-20 05:42:32			0	32971	0	0	0	16818	15450	159589	27128	951144	37468	106090	0	0	8111	813372	0	0
2024-04-20 05:43:32			0	32984	0	0	0	16823	15450	159489	27088	951223	37468	106092	0	0	8111	812689	0	0
2024-04-20 05:44:32			0	33010	0	0	0	16818	15460	159493	27166	951240	37479	106090	0	0	8113	811280	0	0
2024-04-20 05:45:32			0	33004	0	0	0	16831	15470	159349	27114	951221	37469	106095	0	0	8113	811551	0	0
2024-04-20 05:46:32			0	33025	0	0	0	16828	15460	159273	27163	951266	37458	106094	0	0	8114	810494	0	0
2024-04-20 05:47:32			0	33044	0	0	0	16825	15470	159317	26875	951282	37469	106093	0	0	8115	809455	0	0
2024-04-20 05:48:32			0	33046	0	0	0	16825	15470	159209	27315	951300	37458	106093	0	0	8115	809350	0	0
2024-04-20 05:49:32			0	33051	0	0	0	16823	15480	159309	27046	951237	37481	106092	0	0	8116	809045	0	0
2024-04-20 05:50:32			0	33049	0	0	0	16820	15480	159245	27038	951237	37470	106091	0	0	8116	809150	0	0
2024-04-20 05:51:32			0	33034	0	0	0	16828	15470	159257	27336	951308	37469	106094	0	0	8115	809979	0	0
2024-04-20 05:52:32			0	33041	0	0	0	16828	15470	159161	27128	951229	37480	106094	0	0	8115	809612	0	0
2024-04-20 05:53:32			0	33043	0	0	0	16828	15470	159213	27116	951300	37480	106094	0	0	8115	809507	0	0
2024-04-20 05:54:32			0	33067	0	0	0	16810	15460	159145	27388	951258	37468	106087	0	0	8117	808295	0	0
2024-04-20 05:55:32			0	33064	0	0	0	16836	15480	159057	27013	951316	37459	106097	0	0	8116	808365	0	0
2024-04-20 05:56:32			0	33091	0	0	0	16862	15470	158941	27421	951327	37469	106107	0	0	8117	806998	0	0
2024-04-20 05:57:32			0	33121	0	0	0	16857	15470	158857	27161	951335	37469	106105	0	0	8119	805432	0	0
2024-04-20 05:58:32			0	33130	0	0	0	16862	15480	158833	27696	951316	37481	106107	0	0	8120	804920	0	0
2024-04-20 05:59:32			0	33139	0	0	0	16851	15480	158841	27377	951298	37470	106103	0	0	8121	804451	0	0
2024-04-20 06:00:32			0	33153	0	0	0	16862	15480	158789	27293	951351	37492	106107	0	0	8121	803722	0	0
2024-04-20 06:01:32			0	33143	0	0	0	16838	15480	158681	27469	951325	37470	106098	0	0	8121	804242	0	0
2024-04-20 06:02:32			0	33132	0	0	0	16846	15490	158709	27019	951359	37482	106101	0	0	8120	804772	0	0
2024-04-20 06:03:32			0	33149	0	0	0	16841	15500	158713	27222	951401	37483	106099	0	0	8121	803844	0	0
2024-04-20 06:04:32			0	33153	0	0	0	16836	15490	158649	27007	951367	37472	106097	0	0	8122	803679	0	0
2024-04-20 06:05:32			0	33111	0	0	0	16841	15490	158789	27409	951333	37471	106099	0	0	8119	805867	0	0
2024-04-20 06:06:32			0	33142	0	0	0	16849	15490	158765	26979	951385	37471	106102	0	0	8121	804251	0	0
2024-04-20 06:07:32			0	33132	0	0	0	16890	15500	158837	27248	951349	37494	106118	0	0	8120	804729	0	0
2024-04-20 06:08:32			0	33159	0	0	0	16893	15490	158641	27000	951412	37482	106119	0	0	8121	803366	0	0
2024-04-20 06:09:32			0	33201	0	0	0	16893	15500	158549	27203	951428	37483	106119	0	0	8124	801140	0	0
2024-04-20 06:10:32			0	33196	0	0	0	16870	15510	158405	27351	951444	37484	106110	0	0	8124	801357	0	0
2024-04-20 06:11:32			0	33204	0	0	0	16880	15490	158309	27267	951393	37483	106114	0	0	8124	801028	0	0
2024-04-20 06:12:32			0	33193	0	0	0	16893	15500	158413	27436	951463	37484	106119	0	0	8123	801556	0	0
2024-04-20 06:13:32			0	33216	0	0	0	16909	15510	158349	27192	951452	37484	106125	0	0	8124	800319	0	0
2024-04-20 06:14:32			0	33248	0	0	0	16890	15510	158213	27499	951479	37484	106118	0	0	8127	798661	0	0
2024-04-20 06:15:32			0	33257	0	0	0	16898	15520	158169	27161	951521	37485	106121	0	0	8127	798152	0	0
2024-04-20 06:16:32			0	33287	0	0	0	16896	15520	158021	27263	951513	37496	106120	0	0	8129	796601	0	0
2024-04-20 06:17:32			0	33274	0	0	0	16898	15530	158041	27268	951511	37475	106121	0	0	8128	797230	0	0
2024-04-20 06:18:32			0	33274	0	0	0	16919	15530	157953	27374	951556	37485	106129	0	0	8128	797230	0	0
2024-04-20 06:19:32			0	33298	0	0	0	16927	15530	158025	27443	951564	37497	106132	0	0	8129	795990	0	0
2024-04-20 06:20:32			0	33328	0	0	0	16924	15530	157829	27409	951582	37496	106131	0	0	8131	794442	0	0
2024-04-20 06:21:32			0	33335	0	0	0	16927	15530	157801	27041	951538	37486	106132	0	0	8131	794081	0	0
2024-04-20 06:22:32			0	33315	0	0	0	16911	15540	157749	27251	951598	37497	106126	0	0	8130	795070	0	0
2024-04-20 06:23:32			0	33326	0	0	0	16893	15530	157921	27452	951590	37475	106119	0	0	8131	794545	0	0
2024-04-20 06:24:32			0	33303	0	0	0	16909	15540	157881	27300	951580	37476	106125	0	0	8130	795689	0	0
2024-04-20 06:25:32			0	33316	0	0	0	16909	15540	157897	27201	951527	37476	106125	0	0	8131	795018	0	0
2024-04-20 06:26:32			0	33304	0	0	0	16906	15540	157825	27185	951572	37486	106124	0	0	8130	795637	0	0
2024-04-20 06:27:32			0	33319	0	0	0	16916	15540	157905	27213	951580	37476	106128	0	0	8131	794863	0	0
2024-04-20 06:28:32			0	33322	0	0	0	16896	15540	157809	27410	951546	37486	106120	0	0	8131	794709	0	0
2024-04-20 06:29:32			0	33306	0	0	0	16906	15540	157809	27386	951625	37497	106124	0	0	8130	795534	0	0
2024-04-20 06:30:32			0	33293	0	0	0	16898	15540	157805	27462	951580	37476	106121	0	0	8129	796205	0	0
2024-04-20 06:31:32			0	33301	0	0	0	16896	15540	157853	27249	951572	37497	106120	0	0	8130	795792	0	0
2024-04-20 06:32:32			0	33308	0	0	0	16901	15550	157941	27362	951562	37476	106122	0	0	8130	795388	0	0
2024-04-20 06:33:32			0	33295	0	0	0	16903	15550	157885	27225	951623	37488	106123	0	0	8129	796059	0	0
2024-04-20 06:34:32			0	33299	0	0	0	16916	15540	157953	27173	951546	37486	106128	0	0	8129	795895	0	0
2024-04-20 06:35:32			0	33294	0	0	0	16911	15550	157905	27071	951588	37487	106126	0	0	8129	796111	0	0
2024-04-20 06:36:32			0	33280	0	0	0	16896	15540	157885	27189	951598	37486	106120	0	0	8129	796877	0	0
2024-04-20 06:37:32			0	33288	0	0	0	16919	15550	157977	27144	951596	37477	106129	0	0	8129	796421	0	0
2024-04-20 06:38:32			0	33270	0	0	0	16909	15550	157965	27116	951641	37487	106125	0	0	8128	797351	0	0
2024-04-20 06:39:32			0	33275	0	0	0	16924	15550	157973	27173	951588	37476	106131	0	0	8128	797092	0	0
2024-04-20 06:40:32			0	33290	0	0	0	16919	15550	157941	27157	951649	37477	106129	0	0	8129	796317	0	0
2024-04-20 06:41:32			0	33274	0	0	0	16911	15560	157917	27071	951604	37509	106126	0	0	8128	797101	0	0
2024-04-20 06:42:32			0	33284	0	0	0	16909	15560	157941	27251	951657	37477	106125	0	0	8129	796584	0	0
2024-04-20 06:43:32			0	33284	0	0	0	16929	15550	157897	27441	951675	37488	106133	0	0	8128	796627	0	0
2024-04-20 06:44:32			0	33291	0	0	0	16922	15540	157953	27431	951606	37498	106130	0	0	8129	796308	0	0
2024-04-20 06:45:32			0	33284	0	0	0	16929	15550	157977	27341	951649	37488	106133	0	0	8128	796627	0	0
2024-04-20 06:46:32			0	33299	0	0	0	16948	15550	157929	27332	951702	37499	106140	0	0	8129	795853	0	0
2024-04-20 06:47:32			0	33299	0	0	0	16945	15550	157897	27166	951675	37488	106139	0	0	8129	795853	0	0
2024-04-20 06:48:32			0	33308	0	0	0	16914	15570	157845	27403	951673	37489	106127	0	0	8130	795302	0	0
2024-04-20 06:49:32			0	33294	0	0	0	16927	15560	157869	27170	951665	37489	106132	0	0	8129	796068	0	0
2024-04-20 06:50:32			0	33284	0	0	0	16916	15560	157965	26996	951665	37477	106128	0	0	8129	796584	0	0
2024-04-20 06:51:32			0	33290	0	0	0	16914	15570	158033	27083	951700	37489	106127	0	0	8129	796231	0	0
2024-04-20 06:52:32			0	33279	0	0	0	16909	15560	157953	27039	951639	37489	106125	0	0	8128	796843	0	0
2024-04-20 06:53:32			0	33292	0	0	0	16955	15560	157953	27163	951718	37477	106143	0	0	8128	796171	0	0
2024-04-20 06:54:32			0	33313	0	0	0	16958	15560	157845	26913	951744	37500	106144	0	0	8130	795087	0	0
2024-04-20 06:55:32			0	33305	0	0	0	16945	15580	157825	27102	951750	37500	106139	0	0	8129	795414	0	0
2024-04-20 06:56:32			0	33304	0	0	0	16948	15570	157725	27284	951673	37478	106140	0	0	8129	795509	0	0
2024-04-20 06:57:32			0	33325	0	0	0	16932	15590	157909	27499	951732	37501	106134	0	0	8131	794340	0	0
2024-04-20 06:58:32			0	33297	0	0	0	16948	15590	157757	27374	951758	37501	106140	0	0	8129	795784	0	0
2024-04-20 06:59:32			0	33305	0	0	0	16937	15570	157837	27017	951752	37489	106136	0	0	8130	795457	0	0
2024-04-20 07:00:32			0	33307	0	0	0	16945	15570	157745	27291	951708	37489	106139	0	0	8130	795354	0	0
2024-04-20 07:01:32			0	33316	0	0	0	16935	15580	157797	27485	951750	37479	106135	0	0	8130	794847	0	0
2024-04-20 07:02:32			0	33312	0	0	0	16924	15580	157913	27239	951750	37490	106131	0	0	8130	795053	0	0
2024-04-20 07:03:32			0	33289	0	0	0	16929	15580	157809	27367	951777	37479	106133	0	0	8129	796240	0	0
2024-04-20 07:04:32			0	33276	0	0	0	16935	15580	157805	27227	951716	37500	106135	0	0	8128	796912	0	0
2024-04-20 07:05:32			0	33312	0	0	0	16927	15580	157885	27300	951803	37479	106132	0	0	8130	795053	0	0
2024-04-20 07:06:32			0	33282	0	0	0	16919	15560	157825	27185	951665	37489	106129	0	0	8128	796688	0	0
2024-04-20 07:07:32			0	33300	0	0	0	16932	15580	157797	27360	951698	37479	106134	0	0	8129	795672	0	0
2024-04-20 07:08:32			0	33313	0	0	0	16940	15580	157817	27161	951742	37489	106137	0	0	8130	795002	0	0
2024-04-20 07:09:32			0	33314	0	0	0	16929	15580	157845	27255	951750	37490	106133	0	0	8130	794950	0	0
2024-04-20 07:10:32			0	33300	0	0	0	16901	15600	157789	27013	951714	37501	106122	0	0	8130	795587	0	0
2024-04-20 07:11:32			0	33288	0	0	0	16922	15580	157953	27031	951689	37489	106130	0	0	8129	796292	0	0
2024-04-20 07:12:32			0	33311	0	0	0	16922	15590	157821	27357	951758	37501	106130	0	0	8130	795062	0	0
2024-04-20 07:13:32			0	33288	0	0	0	16919	15580	157781	27092	951671	37500	106129	0	0	8129	796292	0	0
2024-04-20 07:14:32			0	33292	0	0	0	16929	15590	157941	27206	951785	37491	106133	0	0	8129	796043	0	0
2024-04-20 07:15:32			0	33316	0	0	0	16942	15570	157837	27119	951779	37489	106138	0	0	8130	794890	0	0
2024-04-20 07:16:32			0	33328	0	0	0	16961	15580	157641	27180	951724	37490	106145	0	0	8131	794228	0	0
2024-04-20 07:17:32			0	33348	0	0	0	16958	15580	157613	27377	951750	37500	106144	0	0	8132	793198	0	0
2024-04-20 07:18:32			0	33353	0	0	0	16945	15600	157585	26932	951793	37491	106139	0	0	8132	792855	0	0
2024-04-20 07:19:32			0	33358	0	0	0	16948	15600	157525	27296	951827	37502	106140	0	0	8133	792598	0	0
2024-04-20 07:20:32			0	33352	0	0	0	16935	15600	157469	27145	951827	37502	106135	0	0	8133	792907	0	0
2024-04-20 07:21:32			0	33352	0	0	0	16914	15600	157593	27466	951767	37480	106127	0	0	8133	792907	0	0
2024-04-20 07:22:32			0	33320	0	0	0	16916	15600	157589	27280	951740	37491	106128	0	0	8131	794555	0	0
2024-04-20 07:23:32			0	33336	0	0	0	16919	15600	157653	27381	951793	37491	106129	0	0	8132	793731	0	0
2024-04-20 07:24:32			0	33340	0	0	0	16942	15590	157673	27609	951758	37491	106138	0	0	8132	793567	0	0
2024-04-20 07:25:32			0	33358	0	0	0	16955	15590	157573	27635	951785	37491	106143	0	0	8133	792641	0	0
2024-04-20 07:26:32			0	33372	0	0	0	16968	15590	157497	27562	951732	37491	106148	0	0	8133	791921	0	0
2024-04-20 07:27:32			0	33387	0	0	0	16986	15590	157353	27609	951864	37501	106155	0	0	8134	791150	0	0
2024-04-20 07:28:32			0	33408	0	0	0	16984	15610	157277	27561	951915	37502	106154	0	0	8135	789987	0	0
2024-04-20 07:29:32			0	33418	0	0	0	16984	15610	157277	27691	951888	37502	106154	0	0	8136	789474	0	0
2024-04-20 07:30:32			0	33421	0	0	0	16955	15610	157233	27313	951844	37514	106143	0	0	8136	789320	0	0
2024-04-20 07:31:32			0	33417	0	0	0	16971	15610	157205	27303	951923	37503	106149	0	0	8136	789525	0	0
2024-04-20 07:32:32			0	33415	0	0	0	16963	15620	157205	27398	951904	37504	106146	0	0	8136	789585	0	0
2024-04-20 07:33:32			0	33424	0	0	0	16948	15610	157245	27519	951844	37493	106140	0	0	8137	789166	0	0
2024-04-20 07:34:32			0	33410	0	0	0	16935	15610	157189	27111	951817	37503	106135	0	0	8136	789884	0	0
2024-04-20 07:35:32			0	33393	0	0	0	16950	15620	157265	27428	951825	37494	106141	0	0	8135	790714	0	0
2024-04-20 07:36:32			0	33420	0	0	0	16968	15600	157213	27653	951827	37492	106148	0	0	8136	789413	0	0
2024-04-20 07:37:32			0	33428	0	0	0	16958	15610	157193	27402	951888	37492	106144	0	0	8137	788961	0	0
2024-04-20 07:38:32			0	33447	0	0	0	16971	15610	157157	27583	951896	37514	106149	0	0	8138	787988	0	0
2024-04-20 07:39:32			0	33450	0	0	0	16919	15620	157165	27717	951878	37494	106129	0	0	8139	787791	0	0
2024-04-20 07:40:32			0	33425	0	0	0	16953	15610	157197	27438	951888	37502	106142	0	0	8137	789115	0	0
2024-04-20 07:41:32			0	33456	0	0	0	16968	15620	157189	27255	951852	37504	106148	0	0	8138	787484	0	0
2024-04-20 07:42:32			0	33447	0	0	0	16968	15600	157177	27371	951880	37492	106148	0	0	8138	788030	0	0
2024-04-20 07:43:32			0	33467	0	0	0	16999	15620	157029	27454	951904	37515	106160	0	0	8138	786922	0	0
2024-04-20 07:44:32			0	33490	0	0	0	17005	15620	156953	27298	951939	37494	106162	0	0	8140	785746	0	0
2024-04-20 07:45:32			0	33492	0	0	0	17007	15620	156845	27268	952018	37515	106163	0	0	8140	785644	0	0
2024-04-20 07:46:32			0	33521	0	0	0	16981	15630	156881	27251	952000	37504	106153	0	0	8142	784121	0	0
2024-04-20 07:47:32			0	33507	0	0	0	16994	15630	156829	27364	951955	37516	106158	0	0	8141	784835	0	0
2024-04-20 07:48:32			0	33522	0	0	0	17010	15630	156893	27710	952008	37516	106164	0	0	8142	784070	0	0
2024-04-20 07:49:32			0	33519	0	0	0	16984	15640	156645	27687	952024	37505	106154	0	0	8142	784181	0	0
2024-04-20 07:50:32			0	33528	0	0	0	17002	15640	156617	27521	951990	37516	106161	0	0	8142	783722	0	0
2024-04-20 07:51:32			0	33528	0	0	0	16986	15640	156681	27762	951964	37505	106155	0	0	8142	783722	0	0
2024-04-20 07:52:32			0	33545	0	0	0	17015	15640	156685	27260	952016	37505	106166	0	0	8143	782856	0	0
2024-04-20 07:53:32			0	33558	0	0	0	17010	15640	156509	27274	951990	37495	106164	0	0	8144	782194	0	0
2024-04-20 07:54:32			0	33558	0	0	0	16997	15640	156581	27613	951990	37505	106159	0	0	8144	782194	0	0
2024-04-20 07:55:32			0	33539	0	0	0	16976	15650	156505	27640	951953	37495	106151	0	0	8143	783119	0	0
2024-04-20 07:56:32			0	33543	0	0	0	16966	15650	156617	27604	951927	37495	106147	0	0	8144	782916	0	0
2024-04-20 07:57:32			0	33538	0	0	0	16979	15640	156661	27625	951945	37495	106152	0	0	8143	783213	0	0
2024-04-20 07:58:32			0	33558	0	0	0	16979	15650	156605	27178	951953	37516	106152	0	0	8144	782152	0	0
2024-04-20 07:59:32			0	33546	0	0	0	16955	15640	156681	27473	951945	37505	106143	0	0	8144	782805	0	0
2024-04-20 08:00:32			0	33557	0	0	0	16955	15640	156693	27583	951972	37505	106143	0	0	8145	782245	0	0
2024-04-20 08:01:32			0	33532	0	0	0	16945	15640	156669	27502	951972	37505	106139	0	0	8143	783518	0	0
2024-04-20 08:02:32			0	33533	0	0	0	16984	15630	156741	27255	951842	37504	106154	0	0	8143	783509	0	0
2024-04-20 08:03:32			0	33527	0	0	0	16984	15640	156773	27352	951885	37484	106154	0	0	8142	783773	0	0
2024-04-20 08:04:32			0	33533	0	0	0	16986	15620	156681	27473	951965	37504	106155	0	0	8143	783552	0	0
2024-04-20 08:05:32			0	33562	0	0	0	16981	15640	156693	27590	951972	37484	106153	0	0	8144	781990	0	0
2024-04-20 08:06:32			0	33550	0	0	0	16994	15640	156489	27571	951911	37505	106158	0	0	8144	782601	0	0
2024-04-20 08:07:32			0	33565	0	0	0	16974	15630	156498	27241	951903	37504	106150	0	0	8145	781880	0	0
2024-04-20 08:08:32			0	33569	0	0	0	17010	15640	156554	27521	951998	37505	106164	0	0	8144	781634	0	0
2024-04-20 08:09:32			0	33563	0	0	0	16997	15640	156529	27336	951972	37495	106159	0	0	8144	781940	0	0
2024-04-20 08:10:32			0	33571	0	0	0	16961	15630	156585	27265	951876	37504	106145	0	0	8145	781575	0	0
2024-04-20 08:11:32			0	33534	0	0	0	16945	15640	156641	27303	951919	37495	106139	0	0	8143	783416	0	0
2024-04-20 08:12:32			0	33542	0	0	0	16942	15630	156689	27329	951929	37504	106138	0	0	8144	783051	0	0
2024-04-20 08:13:32			0	33538	0	0	0	16948	15620	156781	27550	951860	37504	106140	0	0	8144	783297	0	0
2024-04-20 08:14:32			0	33519	0	0	0	16945	15630	156705	27360	951895	37482	106139	0	0	8143	784223	0	0
2024-04-20 08:15:32			0	33545	0	0	0	16961	15630	156705	27435	951895	37494	106145	0	0	8144	782898	0	0
2024-04-20 08:16:32			0	33523	0	0	0	16986	15620	156713	27632	951913	37494	106155	0	0	8142	784061	0	0
2024-04-20 08:17:32			0	33541	0	0	0	16994	15630	156653	27592	951895	37504	106158	0	0	8143	783102	0	0
2024-04-20 08:18:32			0	33572	0	0	0	16992	15620	156662	27329	951913	37504	106157	0	0	8145	781566	0	0
2024-04-20 08:19:32			0	33564	0	0	0	16974	15630	156677	27483	951982	37494	106150	0	0	8145	781931	0	0
2024-04-20 08:20:32			0	33598	0	0	0	16968	15630	156450	27388	951895	37504	106148	0	0	8147	780202	0	0
2024-04-20 08:21:32			0	33616	0	0	0	16963	15620	156406	27530	951913	37494	106146	0	0	8148	779330	0	0
2024-04-20 08:22:32			0	33629	0	0	0	16963	15630	156274	27268	951895	37504	106146	0	0	8149	778629	0	0
2024-04-20 08:23:32			0	33610	0	0	0	16979	15630	156338	27152	951947	37494	106152	0	0	8147	779593	0	0
2024-04-20 08:24:32			0	33627	0	0	0	16966	15630	156346	27393	951929	37504	106147	0	0	8149	778730	0	0
2024-04-20 08:25:32			0	33641	0	0	0	16906	15620	156314	27341	951807	37494	106124	0	0	8150	778062	0	0
2024-04-20 08:26:32			0	33621	0	0	0	16862	15610	156310	27597	951836	37502	106107	0	0	8150	779119	0	0
2024-04-20 08:27:32			0	33629	0	0	0	16867	15610	156302	27552	951678	37481	106109	0	0	8150	778713	0	0
2024-04-20 08:28:32			0	33649	0	0	0	16867	15600	156198	27360	951714	37501	106109	0	0	8151	777741	0	0
2024-04-20 08:29:32			0	33665	0	0	0	16877	15580	156214	27137	951645	37490	106113	0	0	8152	777014	0	0
2024-04-20 08:30:32			0	33676	0	0	0	16875	15580	156118	27287	951689	37500	106112	0	0	8153	776457	0	0
2024-04-20 08:31:32			0	33687	0	0	0	16844	15570	155934	27358	951568	37489	106100	0	0	8154	775943	0	0
2024-04-20 08:32:32			0	33722	0	0	0	16841	15550	155994	27490	951544	37477	106099	0	0	8156	774258	0	0
2024-04-20 08:33:32			0	33727	0	0	0	16836	15550	155910	27400	951562	37487	106097	0	0	8156	774005	0	0
2024-04-20 08:34:32			0	33715	0	0	0	16802	15540	155966	27183	951475	37476	106084	0	0	8156	774653	0	0
2024-04-20 08:35:32			0	33744	0	0	0	16810	15540	155818	27360	951467	37475	106087	0	0	8158	773189	0	0
2024-04-20 08:36:32			0	33762	0	0	0	16799	15530	155842	27424	951450	37485	106083	0	0	8159	772323	0	0
2024-04-20 08:37:32			0	33776	0	0	0	16810	15520	155790	27493	951408	37484	106087	0	0	8159	771660	0	0
2024-04-20 08:38:32			0	33778	0	0	0	16823	15510	155698	27871	951392	37484	106092	0	0	8159	771601	0	0
2024-04-20 08:39:32			0	33821	0	0	0	16836	15510	155538	27383	951426	37484	106097	0	0	8162	769438	0	0
2024-04-20 08:40:32			0	33846	0	0	0	16805	15510	155342	27300	951426	37506	106085	0	0	8164	768183	0	0
2024-04-20 08:41:32			0	33873	0	0	0	16825	15510	155378	27331	951426	37473	106093	0	0	8165	766829	0	0
2024-04-20 08:42:32			0	33888	0	0	0	16836	15500	155282	27197	951357	37472	106097	0	0	8165	766119	0	0
2024-04-20 08:43:32			0	33925	0	0	0	16815	15500	155082	27426	951436	37484	106089	0	0	8168	764269	0	0
2024-04-20 08:44:32			0	33951	0	0	0	16825	15500	155078	27620	951375	37494	106093	0	0	8169	762970	0	0
2024-04-20 08:45:32			0	33940	0	0	0	16823	15500	155018	27428	951401	37483	106092	0	0	8169	763519	0	0
2024-04-20 08:46:32			0	33950	0	0	0	16810	15500	154994	27739	951401	37483	106087	0	0	8170	763020	0	0
2024-04-20 08:47:32			0	33959	0	0	0	16807	15490	154954	27379	951412	37482	106086	0	0	8170	762612	0	0
2024-04-20 08:48:32			0	33977	0	0	0	16802	15490	154906	27542	951438	37471	106084	0	0	8171	761715	0	0
2024-04-20 08:49:32			0	33958	0	0	0	16815	15490	154886	27568	951385	37503	106089	0	0	8170	762662	0	0
2024-04-20 08:50:32			0	33953	0	0	0	16812	15480	154894	27365	951351	37492	106088	0	0	8170	762953	0	0
2024-04-20 08:51:32			0	33968	0	0	0	16823	15480	154834	27227	951377	37481	106092	0	0	8170	762204	0	0
2024-04-20 08:52:32			0	33977	0	0	0	16831	15480	154882	27668	951369	37481	106095	0	0	8171	761756	0	0
2024-04-20 08:53:32			0	33997	0	0	0	16836	15480	154798	27722	951377	37481	106097	0	0	8172	760759	0	0
2024-04-20 08:54:32			0	33979	0	0	0	16831	15480	154722	27414	951456	37470	106095	0	0	8171	761656	0	0
2024-04-20 08:55:32			0	33989	0	0	0	16818	15490	154786	27536	951359	37471	106090	0	0	8172	761117	0	0
2024-04-20 08:56:32			0	34008	0	0	0	16823	15490	154750	27476	951359	37471	106092	0	0	8173	760171	0	0
2024-04-20 08:57:32			0	34006	0	0	0	16810	15480	154702	27578	951404	37481	106087	0	0	8173	760311	0	0
2024-04-20 08:58:32			0	34010	0	0	0	16807	15480	154690	27531	951404	37481	106086	0	0	8173	760112	0	0
2024-04-20 08:59:32			0	34018	0	0	0	16820	15470	154666	27550	951387	37480	106091	0	0	8173	759755	0	0
2024-04-20 09:00:32			0	34005	0	0	0	16828	15480	154690	27625	951369	37481	106094	0	0	8172	760361	0	0
2024-04-20 09:01:32			0	34018	0	0	0	16851	15470	154606	27370	951361	37480	106103	0	0	8173	759755	0	0
2024-04-20 09:02:32			0	34045	0	0	0	16844	15490	154610	27505	951359	37493	106100	0	0	8174	758332	0	0
2024-04-20 09:03:32			0	34051	0	0	0	16862	15490	154598	27481	951446	37494	106107	0	0	8174	758034	0	0
2024-04-20 09:04:32			0	34066	0	0	0	16867	15490	154478	27263	951385	37482	106109	0	0	8175	757289	0	0
2024-04-20 09:05:32			0	34067	0	0	0	16857	15490	154362	27015	951491	37503	106105	0	0	8175	757240	0	0
2024-04-20 09:06:32			0	34081	0	0	0	16844	15490	154450	27426	951393	37494	106100	0	0	8177	756546	0	0
2024-04-20 09:07:32			0	34078	0	0	0	16851	15490	154426	27286	951420	37494	106103	0	0	8176	756694	0	0
2024-04-20 09:08:32			0	34102	0	0	0	16870	15500	154362	27466	951480	37494	106110	0	0	8177	755465	0	0
2024-04-20 09:09:32			0	34100	0	0	0	16857	15500	154270	27362	951454	37483	106105	0	0	8177	755564	0	0
2024-04-20 09:10:32			0	34122	0	0	0	16867	15500	154182	27550	951463	37495	106109	0	0	8179	754475	0	0
2024-04-20 09:11:32			0	34109	0	0	0	16859	15510	154226	27334	951444	37484	106106	0	0	8178	755077	0	0
2024-04-20 09:12:32			0	34123	0	0	0	16854	15500	154258	27253	951489	37484	106104	0	0	8179	754425	0	0
2024-04-20 09:13:32			0	34136	0	0	0	16846	15510	154206	27497	951471	37495	106101	0	0	8180	753742	0	0
2024-04-20 09:14:32			0	34134	0	0	0	16836	15500	154098	27557	951401	37483	106097	0	0	8180	753881	0	0
2024-04-20 09:15:32			0	34124	0	0	0	16849	15500	154078	27331	951515	37484	106102	0	0	8179	754376	0	0
2024-04-20 09:16:32			0	34129	0	0	0	16849	15500	154174	27277	951436	37495	106102	0	0	8179	754129	0	0
2024-04-20 09:17:32			0	34152	0	0	0	16846	15510	154142	27293	951444	37495	106101	0	0	8181	752952	0	0
2024-04-20 09:18:32			0	34145	0	0	0	16849	15500	154094	27150	951489	37505	106102	0	0	8180	753338	0	0
2024-04-20 09:19:32			0	34156	0	0	0	16846	15500	154042	27429	951375	37494	106101	0	0	8181	752795	0	0
2024-04-20 09:20:32			0	34139	0	0	0	16838	15510	154138	27616	951444	37495	106098	0	0	8180	753594	0	0
2024-04-20 09:21:32			0	34148	0	0	0	16838	15510	154062	27597	951444	37505	106098	0	0	8181	753149	0	0
2024-04-20 09:22:32			0	34150	0	0	0	16844	15490	154086	27547	951472	37472	106100	0	0	8181	753131	0	0
2024-04-20 09:23:32			0	34142	0	0	0	16864	15500	154026	27196	951480	37472	106108	0	0	8180	753486	0	0
2024-04-20 09:24:32			0	34177	0	0	0	16854	15500	154006	27346	951489	37495	106104	0	0	8182	751758	0	0
2024-04-20 09:25:32			0	34155	0	0	0	16859	15510	153906	27242	951444	37484	106106	0	0	8181	752804	0	0
2024-04-20 09:26:32			0	34178	0	0	0	16862	15500	153954	27457	951463	37484	106107	0	0	8182	751709	0	0
2024-04-20 09:27:32			0	34178	0	0	0	16883	15490	153986	27434	951446	37483	106115	0	0	8181	751749	0	0
2024-04-20 09:28:32			0	34171	0	0	0	16898	15510	153930	27618	951471	37495	106121	0	0	8181	752014	0	0
2024-04-20 09:29:32			0	34177	0	0	0	16909	15510	154034	27336	951523	37495	106125	0	0	8181	751718	0	0
2024-04-20 09:30:32			0	34179	0	0	0	16906	15500	153894	27485	951620	37484	106124	0	0	8181	751660	0	0
2024-04-20 09:31:32			0	34187	0	0	0	16893	15520	153942	27763	951645	37496	106119	0	0	8182	751184	0	0
2024-04-20 09:32:32			0	34197	0	0	0	16893	15520	153794	27473	951592	37496	106119	0	0	8183	750692	0	0
2024-04-20 09:33:32			0	34205	0	0	0	16893	15520	153798	27455	951540	37484	106119	0	0	8183	750297	0	0
2024-04-20 09:34:32			0	34216	0	0	0	16932	15520	153914	27381	951592	37496	106134	0	0	8183	749756	0	0
2024-04-20 09:35:32			0	34212	0	0	0	16940	15520	153678	27767	951653	37518	106137	0	0	8183	749953	0	0
2024-04-20 09:36:32			0	34203	0	0	0	16940	15530	153758	27590	951695	37497	106137	0	0	8182	750356	0	0
2024-04-20 09:37:32			0	34204	0	0	0	16937	15540	153834	27362	951685	37508	106136	0	0	8182	750266	0	0
2024-04-20 09:38:32			0	34194	0	0	0	16924	15540	153814	27587	951704	37507	106131	0	0	8182	750759	0	0
2024-04-20 09:39:32			0	34219	0	0	0	16932	15550	153826	27571	951693	37498	106134	0	0	8183	749487	0	0
2024-04-20 09:40:32			0	34221	0	0	0	16940	15550	153722	27611	951702	37488	106137	0	0	8183	749389	0	0
2024-04-20 09:41:32			0	34221	0	0	0	16932	15540	153762	27606	951659	37508	106134	0	0	8183	749429	0	0
2024-04-20 09:42:32			0	34216	0	0	0	16945	15560	153738	27403	951736	37488	106139	0	0	8183	749595	0	0
2024-04-20 09:43:32			0	34202	0	0	0	16945	15550	153654	27776	951702	37488	106139	0	0	8182	750324	0	0
2024-04-20 09:44:32			0	34207	0	0	0	16942	15560	153842	27627	951736	37499	106138	0	0	8182	750038	0	0
2024-04-20 09:45:32			0	34213	0	0	0	16942	15570	153714	27630	951831	37500	106138	0	0	8183	749702	0	0
2024-04-20 09:46:32			0	34203	0	0	0	16953	15560	153862	27528	951770	37500	106142	0	0	8182	750234	0	0
2024-04-20 09:47:32			0	34213	0	0	0	16953	15580	153734	27819	951742	37511	106142	0	0	8183	749661	0	0
2024-04-20 09:48:32			0	34203	0	0	0	16961	15560	153670	27842	951797	37510	106145	0	0	8182	750234	0	0
2024-04-20 09:49:32			0	34228	0	0	0	16961	15580	153766	27326	951821	37511	106145	0	0	8183	748924	0	0
2024-04-20 09:50:32			0	34210	0	0	0	16963	15580	153658	27379	951847	37522	106146	0	0	8182	749809	0	0
2024-04-20 09:51:32			0	34220	0	0	0	16955	15580	153590	27569	951803	37500	106143	0	0	8183	749317	0	0
2024-04-20 09:52:32			0	34213	0	0	0	16953	15580	153674	27326	951882	37500	106142	0	0	8183	749661	0	0
2024-04-20 09:53:32			0	34233	0	0	0	16968	15590	153694	27481	951864	37523	106148	0	0	8184	748637	0	0
2024-04-20 09:54:32			0	34214	0	0	0	16955	15600	153762	27237	951925	37501	106143	0	0	8183	749531	0	0
2024-04-20 09:55:32			0	34211	0	0	0	16963	15590	153758	27386	951916	37523	106146	0	0	8182	749720	0	0
2024-04-20 09:56:32			0	34222	0	0	0	16961	15600	153554	27628	951846	37501	106145	0	0	8183	749138	0	0
2024-04-20 09:57:32			0	34216	0	0	0	16963	15600	153630	27365	951872	37512	106146	0	0	8183	749433	0	0
2024-04-20 09:58:32			0	34219	0	0	0	16958	15610	153630	27597	951915	37492	106144	0	0	8183	749245	0	0
2024-04-20 09:59:32			0	34222	0	0	0	16963	15610	153534	27324	951915	37492	106146	0	0	8183	749098	0	0
2024-04-20 10:00:32			0	34227	0	0	0	16963	15610	153614	27642	951862	37513	106146	0	0	8184	748852	0	0
2024-04-20 10:01:32			0	34243	0	0	0	16976	15620	153506	27705	951957	37504	106151	0	0	8184	748025	0	0
2024-04-20 10:02:32			0	34243	0	0	0	16968	15610	153694	27440	951923	37514	106148	0	0	8184	748066	0	0
2024-04-20 10:03:32			0	34244	0	0	0	16979	15610	153514	27315	951915	37513	106152	0	0	8184	748016	0	0
2024-04-20 10:04:32			0	34259	0	0	0	16971	15620	153514	27469	951878	37515	106149	0	0	8185	747240	0	0
2024-04-20 10:05:32			0	34258	0	0	0	16984	15610	153458	27455	951870	37493	106154	0	0	8185	747329	0	0
2024-04-20 10:06:32			0	34264	0	0	0	16968	15610	153426	27710	951915	37524	106148	0	0	8186	747034	0	0
2024-04-20 10:07:32			0	34273	0	0	0	16958	15610	153394	27144	951949	37514	106144	0	0	8186	746593	0	0
2024-04-20 10:08:32			0	34273	0	0	0	16981	15620	153366	27594	951965	37515	106153	0	0	8186	746553	0	0
2024-04-20 10:09:32			0	34258	0	0	0	16979	15620	153382	27242	951957	37515	106152	0	0	8185	747289	0	0
2024-04-20 10:10:32			0	34300	0	0	0	16984	15610	153294	27466	951896	37514	106154	0	0	8187	745269	0	0
2024-04-20 10:11:32			0	34279	0	0	0	16981	15620	153390	27114	952010	37526	106153	0	0	8186	746258	0	0
2024-04-20 10:12:32			0	34272	0	0	0	16986	15620	153270	27159	951965	37515	106155	0	0	8186	746602	0	0
2024-04-20 10:13:32			0	34301	0	0	0	16984	15630	153310	27412	952034	37516	106154	0	0	8188	745140	0	0
2024-04-20 10:14:32			0	34295	0	0	0	16984	15620	153182	27312	952036	37504	106154	0	0	8187	745474	0	0
2024-04-20 10:15:32			0	34297	0	0	0	16986	15630	153258	27620	951974	37494	106155	0	0	8187	745336	0	0
2024-04-20 10:16:32			0	34307	0	0	0	16986	15630	153258	27187	951955	37504	106155	0	0	8188	744846	0	0
2024-04-20 10:17:32			0	34301	0	0	0	16992	15630	153274	27190	952000	37504	106157	0	0	8187	745140	0	0
2024-04-20 10:18:32			0	34304	0	0	0	16984	15630	153270	27268	952008	37516	106154	0	0	8188	744993	0	0
2024-04-20 10:19:32			0	34304	0	0	0	16981	15630	153246	27396	951955	37494	106153	0	0	8188	744993	0	0
2024-04-20 10:20:32			0	34318	0	0	0	16979	15640	153190	27388	952016	37516	106152	0	0	8189	744268	0	0
2024-04-20 10:21:32			0	34327	0	0	0	16984	15630	153166	27448	952000	37504	106154	0	0	8189	743868	0	0
2024-04-20 10:22:32			0	34328	0	0	0	16986	15630	153274	27512	952000	37515	106155	0	0	8189	743819	0	0
2024-04-20 10:23:32			0	34319	0	0	0	16989	15640	153278	27753	952043	37516	106156	0	0	8189	744219	0	0
2024-04-20 10:24:32			0	34313	0	0	0	16997	15630	153130	27488	951982	37516	106159	0	0	8188	744553	0	0
2024-04-20 10:25:32			0	34326	0	0	0	16994	15630	153166	27234	951982	37516	106158	0	0	8189	743917	0	0
2024-04-20 10:26:32			0	34325	0	0	0	16984	15630	153198	27460	951955	37527	106154	0	0	8189	743965	0	0
2024-04-20 10:27:32			0	34321	0	0	0	16974	15630	153118	27563	952008	37504	106150	0	0	8189	744161	0	0
2024-04-20 10:28:32			0	34339	0	0	0	16994	15630	153266	27422	951955	37527	106158	0	0	8190	743281	0	0
2024-04-20 10:29:32			0	34321	0	0	0	16984	15630	153250	27791	952034	37516	106154	0	0	8189	744161	0	0
2024-04-20 10:30:32			0	34324	0	0	0	16989	15630	153162	27542	952034	37516	106156	0	0	8189	744014	0	0
2024-04-20 10:31:32			0	34324	0	0	0	16999	15640	153282	27623	952043	37505	106160	0	0	8189	743974	0	0
2024-04-20 10:32:32			0	34341	0	0	0	16989	15630	153226	27711	952034	37516	106156	0	0	8190	743183	0	0
2024-04-20 10:33:32			0	34341	0	0	0	16999	15640	153142	27429	952043	37505	106160	0	0	8190	743143	0	0
2024-04-20 10:34:32			0	34326	0	0	0	16997	15640	153206	27355	952051	37516	106159	0	0	8189	743877	0	0
2024-04-20 10:35:32			0	34327	0	0	0	17010	15650	153170	27346	952085	37528	106164	0	0	8189	743788	0	0
2024-04-20 10:36:32			0	34344	0	0	0	17015	15640	153118	27583	952024	37516	106166	0	0	8189	742996	0	0
2024-04-20 10:37:32			0	34330	0	0	0	17015	15640	153030	27284	952069	37516	106166	0	0	8189	743681	0	0
2024-04-20 10:38:32			0	34336	0	0	0	17020	15650	153122	27398	952085	37516	106168	0	0	8189	743348	0	0
2024-04-20 10:39:32			0	34342	0	0	0	17015	15650	153082	27646	952111	37528	106166	0	0	8189	743054	0	0
2024-04-20 10:40:32			0	34330	0	0	0	17018	15650	153014	27350	952111	37505	106167	0	0	8189	743641	0	0
2024-04-20 10:41:32			0	34359	0	0	0	17020	15650	153070	27175	952111	37505	106168	0	0	8190	742224	0	0
2024-04-20 10:42:32			0	34325	0	0	0	17025	15650	153058	27332	952093	37517	106170	0	0	8188	743885	0	0
2024-04-20 10:43:32			0	34347	0	0	0	17018	15660	153070	27473	952101	37507	106167	0	0	8190	742770	0	0
2024-04-20 10:44:32			0	34348	0	0	0	17028	15660	153179	27447	952101	37529	106171	0	0	8190	742721	0	0
2024-04-20 10:45:32			0	34351	0	0	0	17018	15650	153075	27514	952120	37528	106167	0	0	8190	742614	0	0
2024-04-20 10:46:32			0	34330	0	0	0	17025	15660	153122	27424	952128	37518	106170	0	0	8189	743601	0	0
2024-04-20 10:47:32			0	34340	0	0	0	17025	15660	153162	27708	952075	37529	106170	0	0	8189	743112	0	0
2024-04-20 10:48:32			0	34337	0	0	0	17018	15670	153118	27734	952117	37518	106167	0	0	8189	743218	0	0
2024-04-20 10:49:32			0	34344	0	0	0	17020	15660	153123	27331	952083	37518	106168	0	0	8190	742916	0	0
2024-04-20 10:50:32			0	34329	0	0	0	17012	15660	153046	27656	952109	37529	106165	0	0	8189	743650	0	0
2024-04-20 10:51:32			0	34342	0	0	0	16999	15670	153058	27885	952144	37507	106160	0	0	8190	742974	0	0
2024-04-20 10:52:32			0	34361	0	0	0	16976	15660	153007	27564	952101	37529	106151	0	0	8191	742086	0	0
2024-04-20 10:53:32			0	34379	0	0	0	16971	15660	152911	27878	952128	37518	106149	0	0	8192	741208	0	0
2024-04-20 10:54:32			0	34395	0	0	0	16984	15640	152823	27547	952024	37505	106154	0	0	8193	740508	0	0
2024-04-20 10:55:32			0	34403	0	0	0	17002	15650	152835	27659	952059	37516	106161	0	0	8193	740078	0	0
2024-04-20 10:56:32			0	34393	0	0	0	17007	15650	152907	27402	952085	37516	106163	0	0	8192	740565	0	0
2024-04-20 10:57:32			0	34372	0	0	0	17025	15650	152843	27848	952120	37528	106170	0	0	8191	741589	0	0
2024-04-20 10:58:32			0	34369	0	0	0	17036	15660	152963	27842	952128	37518	106174	0	0	8191	741696	0	0
2024-04-20 10:59:32			0	34388	0	0	0	17033	15670	152931	27796	952178	37508	106173	0	0	8192	740729	0	0
2024-04-20 11:00:32			0	34377	0	0	0	17036	15670	152851	27987	952170	37507	106174	0	0	8191	741266	0	0
2024-04-20 11:01:32			0	34372	0	0	0	17041	15660	152915	27642	952188	37518	106176	0	0	8191	741549	0	0
2024-04-20 11:02:32			0	34376	0	0	0	17033	15670	152919	27557	952152	37519	106173	0	0	8191	741314	0	0
2024-04-20 11:03:32			0	34380	0	0	0	17033	15670	152847	27810	952170	37497	106173	0	0	8191	741119	0	0
2024-04-20 11:04:32			0	34388	0	0	0	17036	15670	152951	27942	952178	37530	106174	0	0	8192	740729	0	0
2024-04-20 11:05:32			0	34390	0	0	0	17044	15670	152991	28013	952178	37519	106177	0	0	8192	740632	0	0
2024-04-20 11:06:32			0	34379	0	0	0	17044	15680	152955	27628	952265	37520	106177	0	0	8191	741128	0	0
2024-04-20 11:07:32			0	34376	0	0	0	17046	15680	152935	27454	952213	37531	106178	0	0	8191	741274	0	0
2024-04-20 11:08:32			0	34369	0	0	0	17046	15670	153015	27857	952231	37508	106178	0	0	8191	741656	0	0
2024-04-20 11:09:32			0	34380	0	0	0	17046	15690	152935	28022	952255	37521	106178	0	0	8191	741039	0	0
2024-04-20 11:10:32			0	34360	0	0	0	17051	15680	152939	27711	952186	37531	106180	0	0	8190	742055	0	0
2024-04-20 11:11:32			0	34363	0	0	0	17049	15680	152939	27892	952273	37532	106179	0	0	8190	741909	0	0
2024-04-20 11:12:32			0	34376	0	0	0	17049	15680	153027	27505	952213	37531	106179	0	0	8191	741274	0	0
2024-04-20 11:13:32			0	34364	0	0	0	17044	15690	152935	27460	952229	37532	106177	0	0	8190	741820	0	0
2024-04-20 11:14:32			0	34367	0	0	0	17049	15680	152943	27590	952247	37521	106179	0	0	8190	741714	0	0
2024-04-20 11:15:32			0	34358	0	0	0	17038	15690	153079	27809	952263	37509	106175	0	0	8190	742113	0	0
2024-04-20 11:16:32			0	34342	0	0	0	17044	15700	152982	28013	952324	37543	106177	0	0	8189	742854	0	0
2024-04-20 11:17:32			0	34345	0	0	0	17046	15680	153066	27699	952168	37509	106178	0	0	8189	742788	0	0
2024-04-20 11:18:32			0	34321	0	0	0	17044	15700	153122	27659	952245	37521	106177	0	0	8188	743881	0	0
2024-04-20 11:19:32			0	34337	0	0	0	17054	15690	153034	27885	952211	37509	106181	0	0	8189	743138	0	0
2024-04-20 11:20:32			0	34321	0	0	0	17046	15690	153146	27781	952290	37532	106178	0	0	8188	743921	0	0
2024-04-20 11:21:32			0	34334	0	0	0	17049	15690	153150	27869	952290	37532	106179	0	0	8189	743285	0	0
2024-04-20 11:22:32			0	34327	0	0	0	17041	15700	153062	27711	952298	37521	106176	0	0	8188	743587	0	0
2024-04-20 11:23:32			0	34329	0	0	0	17044	15700	153070	28365	952271	37532	106177	0	0	8188	743490	0	0
2024-04-20 11:24:32			0	34331	0	0	0	17049	15690	153198	27758	952342	37521	106179	0	0	8188	743432	0	0
2024-04-20 11:25:32			0	34312	0	0	0	17046	15700	153118	27822	952332	37522	106178	0	0	8187	744321	0	0
2024-04-20 11:26:32			0	34297	0	0	0	17041	15690	153126	28107	952263	37532	106176	0	0	8187	745095	0	0
2024-04-20 11:27:32			0	34309	0	0	0	17049	15700	153170	27991	952271	37521	106179	0	0	8187	744468	0	0
2024-04-20 11:28:32			0	34292	0	0	0	17046	15700	153278	27866	952280	37522	106178	0	0	8186	745300	0	0
2024-04-20 11:29:32			0	34308	0	0	0	17044	15700	153262	27777	952245	37521	106177	0	0	8187	744517	0	0
2024-04-20 11:30:32			0	34285	0	0	0	17051	15710	153270	27713	952288	37522	106180	0	0	8186	745603	0	0
2024-04-20 11:31:32			0	34298	0	0	0	17051	15700	153294	27795	952280	37543	106180	0	0	8187	745006	0	0
2024-04-20 11:32:32			0	34281	0	0	0	17046	15710	153270	27696	952314	37533	106178	0	0	8186	745799	0	0
2024-04-20 11:33:32			0	34280	0	0	0	17046	15710	153242	27376	952314	37522	106178	0	0	8186	745848	0	0
2024-04-20 11:34:32			0	34281	0	0	0	17044	15700	153262	27561	952324	37532	106177	0	0	8186	745839	0	0
2024-04-20 11:35:32			0	34268	0	0	0	17057	15700	153330	27970	952306	37533	106182	0	0	8185	746476	0	0
2024-04-20 11:36:32			0	34267	0	0	0	17057	15700	153394	27564	952332	37543	106182	0	0	8185	746525	0	0
2024-04-20 11:37:32			0	34271	0	0	0	17054	15700	153330	27493	952245	37521	106181	0	0	8185	746329	0	0
2024-04-20 11:38:32			0	34269	0	0	0	17051	15690	153354	27795	952290	37542	106180	0	0	8185	746467	0	0
2024-04-20 11:39:32			0	34257	0	0	0	17067	15710	153370	27786	952393	37533	106186	0	0	8184	746976	0	0
2024-04-20 11:40:32			0	34273	0	0	0	17064	15700	153458	27720	952306	37533	106185	0	0	8185	746231	0	0
2024-04-20 11:41:32			0	34272	0	0	0	17059	15700	153350	27692	952332	37543	106183	0	0	8185	746280	0	0
2024-04-20 11:42:32			0	34268	0	0	0	17067	15700	153282	27476	952332	37533	106186	0	0	8185	746476	0	0
2024-04-20 11:43:32			0	34268	0	0	0	17077	15710	153330	27855	952367	37543	106190	0	0	8184	746436	0	0
2024-04-20 11:44:32			0	34261	0	0	0	17085	15710	153430	27925	952401	37522	106193	0	0	8184	746779	0	0
2024-04-20 11:45:32			0	34242	0	0	0	17083	15720	153414	27970	952391	37524	106192	0	0	8183	747672	0	0
2024-04-20 11:46:32			0	34248	0	0	0	17090	15710	153402	27933	952401	37522	106195	0	0	8183	747417	0	0
2024-04-20 11:47:32			0	34225	0	0	0	17090	15720	153434	28051	952436	37534	106195	0	0	8182	748507	0	0
2024-04-20 11:48:32			0	34228	0	0	0	17090	15720	153562	27402	952470	37524	106195	0	0	8182	748359	0	0
2024-04-20 11:49:32			0	34211	0	0	0	17088	15720	153586	27763	952391	37524	106194	0	0	8181	749195	0	0
2024-04-20 11:50:32			0	34208	0	0	0	17083	15730	153714	27403	952478	37524	106192	0	0	8181	749302	0	0
2024-04-20 11:51:32			0	34193	0	0	0	17090	15720	153670	27767	952417	37535	106195	0	0	8180	750080	0	0
2024-04-20 11:52:32			0	34189	0	0	0	17090	15720	153706	27803	952523	37545	106195	0	0	8180	750277	0	0
2024-04-20 11:53:32			0	34180	0	0	0	17090	15730	153714	27762	952434	37535	106195	0	0	8179	750680	0	0
2024-04-20 11:54:32			0	34193	0	0	0	17093	15720	153826	27597	952417	37535	106196	0	0	8180	750080	0	0
2024-04-20 11:55:32			0	34177	0	0	0	17088	15730	153770	27585	952425	37535	106194	0	0	8179	750828	0	0
2024-04-20 11:56:32			0	34168	0	0	0	17093	15730	153670	27786	952434	37535	106196	0	0	8178	751271	0	0
2024-04-20 11:57:32			0	34151	0	0	0	17090	15740	153870	27435	952442	37536	106195	0	0	8178	752069	0	0
2024-04-20 11:58:32			0	34147	0	0	0	17106	15730	154002	27913	952460	37524	106201	0	0	8177	752307	0	0
2024-04-20 11:59:32			0	34125	0	0	0	17090	15730	153986	27433	952460	37535	106195	0	0	8176	753393	0	0
2024-04-20 12:00:32			0	34105	0	0	0	17101	15740	154026	27339	952476	37537	106199	0	0	8175	754341	0	0
2024-04-20 12:01:32			0	34116	0	0	0	17101	15740	154074	27502	952476	37537	106199	0	0	8175	753797	0	0
2024-04-20 12:02:32			0	34094	0	0	0	17109	15740	154142	27675	952468	37536	106202	0	0	8174	754885	0	0
2024-04-20 12:03:32			0	34099	0	0	0	17098	15740	154234	27336	952468	37525	106198	0	0	8174	754637	0	0
2024-04-20 12:04:32			0	34073	0	0	0	17109	15740	154214	27180	952468	37536	106202	0	0	8173	755924	0	0
2024-04-20 12:05:32			0	34068	0	0	0	17103	15750	154170	27194	952493	37526	106200	0	0	8173	756131	0	0
2024-04-20 12:06:32			0	34082	0	0	0	17119	15750	154294	27621	952563	37548	106206	0	0	8173	755438	0	0
2024-04-20 12:07:32			0	34077	0	0	0	17116	15740	154186	27980	952476	37537	106205	0	0	8173	755726	0	0
2024-04-20 12:08:32			0	34100	0	0	0	17109	15750	154174	27564	952537	37538	106202	0	0	8174	754547	0	0
2024-04-20 12:09:32			0	34078	0	0	0	17127	15750	154282	27483	952572	37538	106209	0	0	8173	755636	0	0
2024-04-20 12:10:32			0	34066	0	0	0	17132	15750	154190	27440	952519	37548	106211	0	0	8172	756230	0	0
2024-04-20 12:11:32			0	34070	0	0	0	17127	15750	154410	27383	952590	37548	106209	0	0	8172	756032	0	0
2024-04-20 12:12:32			0	34071	0	0	0	17124	15760	154298	27419	952527	37526	106208	0	0	8172	755942	0	0
2024-04-20 12:13:32			0	34065	0	0	0	17119	15760	154298	27578	952535	37538	106206	0	0	8172	756239	0	0
2024-04-20 12:14:32			0	34053	0	0	0	17119	15760	154378	27505	952553	37526	106206	0	0	8172	756834	0	0
2024-04-20 12:15:32			0	34042	0	0	0	17114	15760	154386	27762	952562	37527	106204	0	0	8171	757379	0	0
2024-04-20 12:16:32			0	34042	0	0	0	17127	15770	154502	27519	952622	37549	106209	0	0	8171	757338	0	0
2024-04-20 12:17:32			0	34017	0	0	0	17129	15770	154390	27582	952596	37539	106210	0	0	8169	758579	0	0
2024-04-20 12:18:32			0	34032	0	0	0	17129	15760	154542	27100	952535	37538	106210	0	0	8170	757875	0	0
2024-04-20 12:19:32			0	34037	0	0	0	17122	15760	154530	27538	952562	37538	106207	0	0	8171	757627	0	0
2024-04-20 12:20:32			0	34023	0	0	0	17127	15770	154406	27653	952604	37539	106209	0	0	8170	758281	0	0
2024-04-20 12:21:32			0	34024	0	0	0	17122	15770	154486	27175	952578	37539	106207	0	0	8170	758231	0	0
2024-04-20 12:22:32			0	34008	0	0	0	17124	15770	154530	27180	952596	37560	106208	0	0	8169	759026	0	0
2024-04-20 12:23:32			0	34021	0	0	0	17127	15770	154562	27717	952596	37528	106209	0	0	8170	758380	0	0
2024-04-20 12:24:32			0	34022	0	0	0	17124	15770	154574	27402	952596	37539	106208	0	0	8170	758331	0	0
2024-04-20 12:25:32			0	34001	0	0	0	17124	15770	154598	27431	952596	37528	106208	0	0	8168	759374	0	0
2024-04-20 12:26:32			0	33997	0	0	0	17119	15770	154522	27353	952675	37560	106206	0	0	8168	759572	0	0
2024-04-20 12:27:32			0	34001	0	0	0	17122	15770	154542	27571	952578	37549	106207	0	0	8168	759374	0	0
2024-04-20 12:28:32			0	34003	0	0	0	17116	15760	154626	27156	952588	37548	106205	0	0	8169	759315	0	0
2024-04-20 12:29:32			0	34010	0	0	0	17119	15760	154502	27407	952553	37548	106206	0	0	8169	758967	0	0
2024-04-20 12:30:32			0	34005	0	0	0	17116	15760	154598	27131	952562	37538	106205	0	0	8169	759216	0	0
2024-04-20 12:31:32			0	33979	0	0	0	17127	15770	154510	27171	952596	37539	106209	0	0	8167	760468	0	0
2024-04-20 12:32:32			0	34017	0	0	0	17129	15770	154562	27227	952570	37549	106210	0	0	8169	758579	0	0
2024-04-20 12:33:32			0	34003	0	0	0	17124	15760	154658	26871	952562	37538	106208	0	0	8169	759315	0	0
2024-04-20 12:34:32			0	34010	0	0	0	17127	15760	154542	27386	952614	37548	106209	0	0	8169	758967	0	0
2024-04-20 12:35:32			0	34024	0	0	0	17122	15770	154526	27315	952604	37539	106207	0	0	8170	758231	0	0
2024-04-20 12:36:32			0	34006	0	0	0	17124	15760	154502	27374	952509	37548	106208	0	0	8169	759166	0	0
2024-04-20 12:37:32			0	34009	0	0	0	17119	15770	154550	27447	952570	37539	106206	0	0	8169	758976	0	0
2024-04-20 12:38:32			0	34009	0	0	0	17111	15770	154642	27180	952622	37539	106203	0	0	8169	758976	0	0
2024-04-20 12:39:32			0	34022	0	0	0	17114	15770	154626	27426	952551	37549	106204	0	0	8170	758331	0	0
2024-04-20 12:40:32			0	34024	0	0	0	17111	15770	154430	27476	952570	37539	106203	0	0	8170	758231	0	0
2024-04-20 12:41:32			0	34008	0	0	0	17106	15760	154550	27185	952535	37538	106201	0	0	8169	759067	0	0
2024-04-20 12:42:32			0	34002	0	0	0	17114	15760	154558	27249	952527	37548	106204	0	0	8169	759365	0	0
2024-04-20 12:43:32			0	34012	0	0	0	17098	15770	154590	26918	952570	37539	106198	0	0	8170	758827	0	0
2024-04-20 12:44:32			0	34020	0	0	0	17103	15760	154598	27121	952535	37538	106200	0	0	8170	758471	0	0
2024-04-20 12:45:32			0	34010	0	0	0	17119	15760	154430	27289	952527	37548	106206	0	0	8169	758967	0	0
2024-04-20 12:46:32			0	34010	0	0	0	17106	15760	154494	27396	952562	37548	106201	0	0	8169	758967	0	0
2024-04-20 12:47:32			0	34019	0	0	0	17109	15760	154502	27001	952535	37527	106202	0	0	8170	758520	0	0
2024-04-20 12:48:32			0	34016	0	0	0	17111	15770	154570	27249	952578	37539	106203	0	0	8170	758629	0	0
2024-04-20 12:49:32			0	34003	0	0	0	17116	15760	154478	27114	952580	37538	106205	0	0	8169	759315	0	0
2024-04-20 12:50:32			0	34012	0	0	0	17119	15760	154570	27208	952562	37548	106206	0	0	8169	758868	0	0
2024-04-20 12:51:32			0	33999	0	0	0	17116	15760	154578	27216	952588	37560	106205	0	0	8168	759514	0	0
2024-04-20 12:52:32			0	34009	0	0	0	17111	15760	154498	27301	952606	37559	106203	0	0	8169	759017	0	0
2024-04-20 12:53:32			0	34003	0	0	0	17116	15760	154514	27291	952553	37538	106205	0	0	8169	759315	0	0
2024-04-20 12:54:32			0	33997	0	0	0	17116	15750	154498	27045	952545	37526	106205	0	0	8168	759654	0	0
2024-04-20 12:55:32			0	34005	0	0	0	17114	15760	154538	27284	952580	37538	106204	0	0	8169	759216	0	0
2024-04-20 12:56:32			0	34003	0	0	0	17132	15760	154578	27422	952535	37538	106211	0	0	8168	759315	0	0
2024-04-20 12:57:32			0	33983	0	0	0	17127	15750	154530	27313	952545	37548	106209	0	0	8167	760351	0	0
2024-04-20 12:58:32			0	34009	0	0	0	17116	15760	154530	27421	952527	37538	106205	0	0	8169	759017	0	0
2024-04-20 12:59:32			0	34018	0	0	0	17122	15770	154546	27296	952543	37539	106207	0	0	8169	758529	0	0
2024-04-20 13:00:32			0	34004	0	0	0	17124	15760	154526	27142	952535	37548	106208	0	0	8169	759266	0	0
2024-04-20 13:01:32			0	34008	0	0	0	17119	15760	154554	27163	952527	37538	106206	0	0	8169	759067	0	0
2024-04-20 13:02:32			0	33992	0	0	0	17132	15760	154462	27388	952614	37538	106211	0	0	8168	759862	0	0
2024-04-20 13:03:32			0	34010	0	0	0	17124	15760	154366	27381	952580	37538	106208	0	0	8169	758967	0	0
2024-04-20 13:04:32			0	34028	0	0	0	17129	15760	154306	27048	952641	37538	106210	0	0	8170	758074	0	0
2024-04-20 13:05:32			0	34033	0	0	0	17127	15770	154374	27178	952596	37549	106209	0	0	8170	757785	0	0
2024-04-20 13:06:32			0	34020	0	0	0	17127	15760	154390	27345	952614	37538	106209	0	0	8169	758471	0	0
2024-04-20 13:07:32			0	34050	0	0	0	17127	15770	154418	27331	952578	37549	106209	0	0	8171	756942	0	0
2024-04-20 13:08:32			0	34024	0	0	0	17122	15770	154530	27383	952657	37549	106207	0	0	8170	758231	0	0
2024-04-20 13:09:32			0	34046	0	0	0	17124	15770	154434	27298	952604	37539	106208	0	0	8171	757140	0	0
2024-04-20 13:10:32			0	34032	0	0	0	17129	15770	154402	27253	952630	37560	106210	0	0	8170	757834	0	0
2024-04-20 13:11:32			0	34046	0	0	0	17137	15770	154286	27523	952543	37528	106213	0	0	8171	757140	0	0
2024-04-20 13:12:32			0	34066	0	0	0	17135	15770	154266	27284	952570	37560	106212	0	0	8172	756149	0	0
2024-04-20 13:13:32			0	34070	0	0	0	17129	15770	154130	27234	952622	37539	106210	0	0	8172	755951	0	0
2024-04-20 13:14:32			0	34068	0	0	0	17132	15770	154182	27173	952570	37539	106211	0	0	8172	756050	0	0
2024-04-20 13:15:32			0	34068	0	0	0	17132	15770	154178	27348	952578	37539	106211	0	0	8172	756050	0	0
2024-04-20 13:16:32			0	34080	0	0	0	17148	15780	154310	27168	952744	37539	106217	0	0	8173	755415	0	0
2024-04-20 13:17:32			0	34078	0	0	0	17140	15770	154230	27275	952578	37539	106214	0	0	8173	755554	0	0
2024-04-20 13:18:32			0	34082	0	0	0	17135	15780	154182	27124	952612	37539	106212	0	0	8173	755316	0	0
2024-04-20 13:19:32			0	34088	0	0	0	17137	15770	154258	27322	952630	37539	106213	0	0	8173	755060	0	0
2024-04-20 13:20:32			0	34066	0	0	0	17145	15770	154202	27128	952622	37539	106216	0	0	8172	756149	0	0
2024-04-20 13:21:32			0	34079	0	0	0	17148	15770	154142	27287	952657	37560	106217	0	0	8173	755505	0	0
2024-04-20 13:22:32			0	34088	0	0	0	17153	15780	154134	27421	952639	37549	106219	0	0	8173	755019	0	0
2024-04-20 13:23:32			0	34083	0	0	0	17148	15780	154218	27505	952612	37549	106217	0	0	8173	755266	0	0
2024-04-20 13:24:32			0	34063	0	0	0	17145	15770	154290	27457	952683	37549	106216	0	0	8172	756297	0	0
2024-04-20 13:25:32			0	34047	0	0	0	17168	15780	154266	27488	952691	37549	106225	0	0	8170	757049	0	0
2024-04-20 13:26:32			0	34081	0	0	0	17166	15790	154234	27296	952768	37551	106224	0	0	8172	755325	0	0
2024-04-20 13:27:32			0	34089	0	0	0	17158	15780	154214	27519	952744	37549	106221	0	0	8173	754969	0	0
2024-04-20 13:28:32			0	34069	0	0	0	17161	15790	154178	27405	952681	37541	106222	0	0	8172	755919	0	0
2024-04-20 13:29:32			0	34048	0	0	0	17161	15790	154198	27178	952681	37562	106222	0	0	8171	756959	0	0
2024-04-20 13:30:32			0	34078	0	0	0	17148	15790	154322	27128	952689	37551	106217	0	0	8173	755473	0	0
2024-04-20 13:31:32			0	34068	0	0	0	17150	15790	154202	27152	952681	37551	106218	0	0	8172	755968	0	0
2024-04-20 13:32:32			0	34068	0	0	0	17171	15790	154246	27069	952760	37551	106226	0	0	8172	755968	0	0
2024-04-20 13:33:32			0	34064	0	0	0	17168	15790	154282	27307	952681	37551	106225	0	0	8171	756166	0	0
2024-04-20 13:34:32			0	34062	0	0	0	17176	15800	154306	27213	952776	37562	106228	0	0	8171	756225	0	0
2024-04-20 13:35:32			0	34052	0	0	0	17197	15790	154366	27164	952813	37562	106236	0	0	8170	756761	0	0
2024-04-20 13:36:32			0	34060	0	0	0	17199	15800	154346	27315	952811	37563	106237	0	0	8171	756324	0	0
2024-04-20 13:37:32			0	34064	0	0	0	17197	15800	154222	27608	952837	37563	106236	0	0	8171	756126	0	0
2024-04-20 13:38:32			0	34060	0	0	0	17197	15820	154226	27424	952835	37565	106236	0	0	8171	756242	0	0
2024-04-20 13:39:32			0	34066	0	0	0	17199	15810	154174	27206	952819	37564	106237	0	0	8171	755986	0	0
2024-04-20 13:40:32			0	34067	0	0	0	17215	15810	154250	27345	952872	37564	106243	0	0	8171	755936	0	0
2024-04-20 13:41:32			0	34070	0	0	0	17205	15810	154238	27216	952845	37564	106239	0	0	8171	755788	0	0
2024-04-20 13:42:32			0	34069	0	0	0	17197	15820	154278	27260	952888	37565	106236	0	0	8171	755796	0	0
2024-04-20 13:43:32			0	34082	0	0	0	17189	15820	154198	27119	952888	37565	106233	0	0	8172	755153	0	0
2024-04-20 13:44:32			0	34083	0	0	0	17174	15820	154174	27352	952870	37532	106227	0	0	8173	755104	0	0
2024-04-20 13:45:32			0	34103	0	0	0	17163	15820	154074	27242	952888	37565	106223	0	0	8174	754114	0	0
2024-04-20 13:46:32			0	34105	0	0	0	17168	15820	154026	27220	952817	37565	106225	0	0	8174	754016	0	0
2024-04-20 13:47:32			0	34093	0	0	0	17161	15820	154006	27514	952756	37565	106222	0	0	8173	754609	0	0
2024-04-20 13:48:32			0	34107	0	0	0	17181	15820	153970	26946	952809	37553	106230	0	0	8174	753917	0	0
2024-04-20 13:49:32			0	34100	0	0	0	17181	15820	154014	27469	952835	37553	106230	0	0	8173	754263	0	0
2024-04-20 13:50:32			0	34114	0	0	0	17181	15820	154066	27204	952835	37553	106230	0	0	8174	753571	0	0
2024-04-20 13:51:32			0	34110	0	0	0	17166	15820	154006	27505	952861	37553	106224	0	0	8174	753769	0	0
2024-04-20 13:52:32			0	34124	0	0	0	17163	15810	153946	27409	952845	37553	106223	0	0	8175	753118	0	0
2024-04-20 13:53:32			0	34136	0	0	0	17150	15820	153978	27448	952809	37565	106218	0	0	8176	752485	0	0
2024-04-20 13:54:32			0	34129	0	0	0	17158	15810	153874	27324	952845	37564	106221	0	0	8175	752871	0	0
2024-04-20 13:55:32			0	34138	0	0	0	17161	15810	153838	27154	952801	37553	106222	0	0	8176	752427	0	0
2024-04-20 13:56:32			0	34145	0	0	0	17171	15810	153898	27559	952793	37553	106226	0	0	8176	752081	0	0
2024-04-20 13:57:32			0	34133	0	0	0	17166	15810	153918	27131	952845	37564	106224	0	0	8176	752673	0	0
2024-04-20 13:58:32			0	34097	0	0	0	17148	15810	153954	27559	952827	37553	106217	0	0	8174	754452	0	0
2024-04-20 13:59:32			0	34106	0	0	0	17140	15800	153910	26986	952776	37551	106214	0	0	8174	754048	0	0
2024-04-20 14:00:32			0	34116	0	0	0	17116	15800	153942	27041	952732	37552	106205	0	0	8175	753553	0	0
2024-04-20 14:01:32			0	34119	0	0	0	17059	15790	153982	27378	952689	37541	106183	0	0	8176	753446	0	0
2024-04-20 14:02:32			0	34111	0	0	0	17046	15790	153942	27308	952584	37541	106178	0	0	8176	753841	0	0
2024-04-20 14:03:32			0	34112	0	0	0	17018	15780	153882	27227	952533	37528	106167	0	0	8177	753832	0	0
2024-04-20 14:04:32			0	34107	0	0	0	17010	15760	153906	27322	952430	37538	106164	0	0	8176	754161	0	0
2024-04-20 14:05:32			0	34127	0	0	0	16999	15750	153910	27554	952466	37538	106160	0	0	8178	753213	0	0
2024-04-20 14:06:32			0	34137	0	0	0	17012	15740	153870	27417	952371	37537	106165	0	0	8178	752760	0	0
2024-04-20 14:07:32			0	34147	0	0	0	17012	15740	153882	27428	952363	37536	106165	0	0	8179	752267	0	0
2024-04-20 14:08:32			0	34149	0	0	0	17010	15730	153902	27246	952346	37524	106164	0	0	8179	752208	0	0
2024-04-20 14:09:32			0	34160	0	0	0	17005	15720	153986	27580	952278	37523	106162	0	0	8179	751706	0	0
2024-04-20 14:10:32			0	34162	0	0	0	17007	15710	153966	27377	952322	37533	106163	0	0	8179	751648	0	0
2024-04-20 14:11:32			0	34161	0	0	0	17007	15710	153966	27588	952269	37533	106163	0	0	8179	751698	0	0
2024-04-20 14:12:32			0	34155	0	0	0	16994	15690	153818	27436	952237	37542	106158	0	0	8179	752074	0	0
2024-04-20 14:13:32			0	34158	0	0	0	17010	15700	153906	27512	952271	37532	106164	0	0	8179	751886	0	0
2024-04-20 14:14:32			0	34160	0	0	0	17018	15700	153874	27272	952271	37532	106167	0	0	8179	751787	0	0
2024-04-20 14:15:32			0	34150	0	0	0	17020	15690	153854	27400	952290	37532	106168	0	0	8178	752321	0	0
2024-04-20 14:16:32			0	34164	0	0	0	17010	15690	153854	27504	952255	37542	106164	0	0	8179	751630	0	0
2024-04-20 14:17:32			0	34190	0	0	0	16999	15690	153854	27703	952237	37532	106160	0	0	8181	750350	0	0
2024-04-20 14:18:32			0	34169	0	0	0	17010	15690	153690	27509	952290	37521	106164	0	0	8180	751384	0	0
2024-04-20 14:19:32			0	34192	0	0	0	17010	15680	153774	27319	952247	37521	106164	0	0	8181	750291	0	0
2024-04-20 14:20:32			0	34206	0	0	0	17010	15670	153706	27357	952231	37530	106164	0	0	8182	749643	0	0
2024-04-20 14:21:32			0	34216	0	0	0	17002	15680	153682	27267	952265	37541	106161	0	0	8183	749110	0	0
2024-04-20 14:22:32			0	34207	0	0	0	17005	15680	153706	27320	952195	37532	106162	0	0	8182	749553	0	0
2024-04-20 14:23:32			0	34219	0	0	0	17002	15680	153702	27365	952247	37542	106161	0	0	8183	748963	0	0
2024-04-20 14:24:32			0	34220	0	0	0	16999	15670	153642	27320	952257	37519	106160	0	0	8183	748954	0	0
2024-04-20 14:25:32			0	34236	0	0	0	16999	15670	153490	27306	952249	37518	106160	0	0	8184	748168	0	0
2024-04-20 14:26:32			0	34250	0	0	0	17002	15680	153618	27384	952300	37542	106161	0	0	8185	747440	0	0
2024-04-20 14:27:32			0	34245	0	0	0	16992	15670	153550	27575	952231	37541	106157	0	0	8184	747726	0	0
2024-04-20 14:28:32			0	34228	0	0	0	17002	15670	153562	27046	952196	37529	106161	0	0	8183	748561	0	0
2024-04-20 14:29:32			0	34233	0	0	0	17002	15670	153574	27748	952196	37529	106161	0	0	8183	748315	0	0
2024-04-20 14:30:32			0	34225	0	0	0	16997	15660	153558	27377	952207	37529	106159	0	0	8183	748749	0	0
2024-04-20 14:31:32			0	34255	0	0	0	17002	15650	153502	27251	952172	37528	106161	0	0	8185	747315	0	0
2024-04-20 14:32:32			0	34248	0	0	0	17002	15670	153466	27661	952144	37540	106161	0	0	8184	747578	0	0
2024-04-20 14:33:32			0	34231	0	0	0	16999	15660	153518	27332	952233	37518	106160	0	0	8183	748454	0	0
2024-04-20 14:34:32			0	34252	0	0	0	16994	15660	153562	27400	952180	37529	106158	0	0	8185	747422	0	0
2024-04-20 14:35:32			0	34244	0	0	0	16984	15660	153522	28126	952180	37529	106154	0	0	8184	747815	0	0
2024-04-20 14:36:32			0	34279	0	0	0	16986	15650	153458	27861	952120	37539	106155	0	0	8186	746138	0	0
2024-04-20 14:37:32			0	34261	0	0	0	16984	15660	153502	27445	952154	37529	106154	0	0	8185	746980	0	0
2024-04-20 14:38:32			0	34263	0	0	0	16981	15650	153442	27604	952146	37506	106153	0	0	8185	746923	0	0
2024-04-20 14:39:32			0	34261	0	0	0	16981	15650	153462	27358	952172	37528	106153	0	0	8185	747021	0	0
2024-04-20 14:40:32			0	34273	0	0	0	16981	15640	153394	27694	952130	37528	106153	0	0	8186	746472	0	0
2024-04-20 14:41:32			0	34272	0	0	0	16984	15640	153442	27767	952156	37516	106154	0	0	8186	746521	0	0
2024-04-20 14:42:32			0	34276	0	0	0	16994	15650	153458	27720	952172	37539	106158	0	0	8186	746285	0	0
2024-04-20 14:43:32			0	34272	0	0	0	16994	15640	153514	27402	952130	37539	106158	0	0	8186	746521	0	0
2024-04-20 14:44:32			0	34276	0	0	0	16986	15640	153394	27828	952103	37528	106155	0	0	8186	746325	0	0
2024-04-20 14:45:32			0	34269	0	0	0	16999	15650	153458	27372	952164	37539	106160	0	0	8186	746628	0	0
2024-04-20 14:46:32			0	34274	0	0	0	16989	15650	153442	27672	952172	37550	106156	0	0	8186	746383	0	0
2024-04-20 14:47:32			0	34256	0	0	0	17007	15650	153430	27521	952190	37539	106163	0	0	8185	747266	0	0
2024-04-20 14:48:32			0	34252	0	0	0	17007	15640	153378	27552	952156	37528	106163	0	0	8184	747503	0	0
2024-04-20 14:49:32			0	34282	0	0	0	17007	15650	153462	27642	952190	37528	106163	0	0	8186	745991	0	0
2024-04-20 14:50:32			0	34286	0	0	0	17010	15660	153438	27502	952233	37518	106164	0	0	8186	745755	0	0
2024-04-20 14:51:32			0	34269	0	0	0	17002	15660	153414	27540	952207	37550	106161	0	0	8186	746588	0	0
2024-04-20 14:52:32			0	34283	0	0	0	17005	15660	153430	27507	952259	37550	106162	0	0	8186	745902	0	0
2024-04-20 14:53:32			0	34285	0	0	0	16994	15650	153370	27620	952172	37550	106158	0	0	8187	745844	0	0
2024-04-20 14:54:32			0	34261	0	0	0	17005	15660	153370	27809	952207	37529	106162	0	0	8185	746980	0	0
2024-04-20 14:55:32			0	34275	0	0	0	17012	15660	153458	28133	952233	37518	106165	0	0	8186	746294	0	0
2024-04-20 14:56:32			0	34277	0	0	0	17012	15650	153378	27725	952198	37539	106165	0	0	8186	746236	0	0
2024-04-20 14:57:32			0	34281	0	0	0	17010	15650	153378	27920	952190	37539	106164	0	0	8186	746040	0	0
2024-04-20 14:58:32			0	34269	0	0	0	17010	15660	153394	27679	952188	37540	106164	0	0	8185	746588	0	0
2024-04-20 14:59:32			0	34277	0	0	0	17002	15650	153318	27979	952190	37528	106161	0	0	8186	746236	0	0
2024-04-20 15:00:32			0	34286	0	0	0	17007	15650	153314	27616	952164	37528	106163	0	0	8186	745795	0	0
2024-04-20 15:01:32			0	34285	0	0	0	16994	15660	153382	27602	952241	37529	106158	0	0	8187	745804	0	0
2024-04-20 15:02:32			0	34286	0	0	0	16979	15650	153370	27474	952172	37528	106152	0	0	8187	745795	0	0
2024-04-20 15:03:32			0	34296	0	0	0	16979	15660	153318	27367	952188	37529	106152	0	0	8187	745265	0	0
2024-04-20 15:04:32			0	34286	0	0	0	16968	15650	153334	27256	952138	37528	106148	0	0	8187	745795	0	0
2024-04-20 15:05:32			0	34298	0	0	0	16976	15650	153382	27265	952172	37517	106151	0	0	8188	745207	0	0
2024-04-20 15:06:32			0	34280	0	0	0	16979	15650	153426	27088	952172	37528	106152	0	0	8186	746089	0	0
2024-04-20 15:07:32			0	34283	0	0	0	16971	15640	153454	27326	952103	37528	106149	0	0	8187	745982	0	0
2024-04-20 15:08:32			0	34272	0	0	0	16976	15640	153354	27364	952156	37539	106151	0	0	8186	746521	0	0
2024-04-20 15:09:32			0	34256	0	0	0	16976	15640	153442	27362	952130	37539	106151	0	0	8185	747306	0	0
2024-04-20 15:10:32			0	34246	0	0	0	16981	15640	153458	27550	952095	37516	106153	0	0	8184	747797	0	0
2024-04-20 15:11:32			0	34246	0	0	0	16976	15640	153566	27478	952121	37539	106151	0	0	8185	747797	0	0
2024-04-20 15:12:32			0	34236	0	0	0	16981	15640	153522	27369	952121	37539	106153	0	0	8184	748288	0	0
2024-04-20 15:13:32			0	34227	0	0	0	16976	15640	153594	27173	952095	37539	106151	0	0	8183	748731	0	0
2024-04-20 15:14:32			0	34244	0	0	0	16981	15630	153670	27282	952087	37538	106153	0	0	8184	747936	0	0
2024-04-20 15:15:32			0	34210	0	0	0	16979	15640	153634	27211	952130	37516	106152	0	0	8182	749567	0	0
2024-04-20 15:16:32			0	34219	0	0	0	16981	15630	153738	27346	952113	37516	106153	0	0	8183	749164	0	0
2024-04-20 15:17:32			0	34222	0	0	0	16976	15630	153762	27367	952113	37527	106151	0	0	8183	749017	0	0
2024-04-20 15:18:32			0	34199	0	0	0	16974	15630	153802	27157	952132	37526	106150	0	0	8182	750149	0	0
2024-04-20 15:19:32			0	34201	0	0	0	16976	15640	153794	27339	952148	37528	106151	0	0	8182	750010	0	0
2024-04-20 15:20:32			0	34196	0	0	0	16974	15640	153770	27448	952069	37528	106150	0	0	8182	750256	0	0
2024-04-20 15:21:32			0	34193	0	0	0	16979	15640	153790	27623	952095	37516	106152	0	0	8181	750404	0	0
2024-04-20 15:22:32			0	34188	0	0	0	16976	15640	153910	27474	952121	37528	106151	0	0	8181	750650	0	0
2024-04-20 15:23:32			0	34166	0	0	0	16981	15640	153918	27279	952095	37516	106153	0	0	8180	751734	0	0
2024-04-20 15:24:32			0	34162	0	0	0	16976	15630	154058	27171	952079	37526	106151	0	0	8180	751972	0	0
2024-04-20 15:25:32			0	34158	0	0	0	16974	15630	153958	27646	952132	37526	106150	0	0	8179	752169	0	0
2024-04-20 15:26:32			0	34138	0	0	0	16976	15630	154042	27531	952105	37515	106151	0	0	8178	753157	0	0
2024-04-20 15:27:32			0	34147	0	0	0	16979	15640	154154	27381	952174	37528	106152	0	0	8179	752672	0	0
2024-04-20 15:28:32			0	34140	0	0	0	16979	15620	154270	27542	952097	37526	106152	0	0	8178	753098	0	0
2024-04-20 15:29:32			0	34154	0	0	0	16971	15630	154142	27358	952026	37526	106149	0	0	8179	752367	0	0
2024-04-20 15:30:32			0	34126	0	0	0	16968	15630	154138	27601	952113	37538	106148	0	0	8178	753749	0	0
2024-04-20 15:31:32			0	34110	0	0	0	16966	15620	154230	27518	952097	37526	106147	0	0	8177	754581	0	0
2024-04-20 15:32:32			0	34116	0	0	0	16958	15620	154178	27493	952036	37515	106144	0	0	8177	754284	0	0
2024-04-20 15:33:32			0	34126	0	0	0	16961	15630	154114	27256	952079	37515	106145	0	0	8178	753749	0	0
2024-04-20 15:34:32			0	34106	0	0	0	16963	15620	154206	27542	952036	37526	106146	0	0	8177	754779	0	0
2024-04-20 15:35:32			0	34085	0	0	0	16950	15630	154266	27845	952087	37527	106141	0	0	8176	755778	0	0
2024-04-20 15:36:32			0	34076	0	0	0	16958	15630	154334	27466	952087	37527	106144	0	0	8175	756223	0	0
2024-04-20 15:37:32			0	34066	0	0	0	16950	15610	154454	27699	952028	37536	106141	0	0	8174	756800	0	0
2024-04-20 15:38:32			0	34067	0	0	0	16953	15620	154526	27601	952018	37526	106142	0	0	8174	756710	0	0
2024-04-20 15:39:32			0	34035	0	0	0	16945	15620	154558	27279	952044	37537	106139	0	0	8173	758298	0	0
2024-04-20 15:40:32			0	34019	0	0	0	16955	15610	154530	27305	952054	37514	106143	0	0	8172	759133	0	0
2024-04-20 15:41:32			0	34028	0	0	0	16958	15610	154574	27569	952002	37525	106144	0	0	8172	758686	0	0
2024-04-20 15:42:32			0	34012	0	0	0	16945	15610	154646	27557	952054	37525	106139	0	0	8171	759481	0	0
2024-04-20 15:43:32			0	33984	0	0	0	16955	15610	154682	27699	952054	37525	106143	0	0	8170	760874	0	0
2024-04-20 15:44:32			0	33997	0	0	0	16948	15610	154750	27582	952054	37525	106140	0	0	8170	760227	0	0
2024-04-20 15:45:32			0	33992	0	0	0	16961	15610	154734	27724	952081	37525	106145	0	0	8170	760476	0	0
2024-04-20 15:46:32			0	33999	0	0	0	16961	15610	154802	27358	952028	37525	106145	0	0	8170	760128	0	0
2024-04-20 15:47:32			0	33994	0	0	0	16963	15610	154750	27578	952020	37524	106146	0	0	8170	760377	0	0
2024-04-20 15:48:32			0	33982	0	0	0	16963	15610	154814	27557	952028	37525	106146	0	0	8169	760974	0	0
2024-04-20 15:49:32			0	33982	0	0	0	16968	15610	154814	27403	952028	37536	106148	0	0	8169	760974	0	0
2024-04-20 15:50:32			0	33980	0	0	0	16961	15610	154758	27286	952081	37525	106145	0	0	8169	761074	0	0
2024-04-20 15:51:32			0	33987	0	0	0	16958	15610	154806	27736	952020	37535	106144	0	0	8170	760725	0	0
2024-04-20 15:52:32			0	33958	0	0	0	16961	15620	154802	27511	952089	37526	106145	0	0	8168	762129	0	0
2024-04-20 15:53:32			0	33994	0	0	0	16953	15610	154822	27614	952054	37525	106142	0	0	8170	760377	0	0
2024-04-20 15:54:32			0	33971	0	0	0	16963	15610	154814	27543	952002	37525	106146	0	0	8169	761522	0	0
2024-04-20 15:55:32			0	33969	0	0	0	16963	15600	154794	27601	952030	37534	106146	0	0	8169	761662	0	0
2024-04-20 15:56:32			0	33982	0	0	0	16966	15610	154814	27362	952073	37524	106147	0	0	8169	760974	0	0
2024-04-20 15:57:32			0	33989	0	0	0	16966	15610	154902	27628	952081	37536	106147	0	0	8170	760626	0	0
2024-04-20 15:58:32			0	33968	0	0	0	16958	15610	154766	27305	952046	37524	106144	0	0	8169	761671	0	0
2024-04-20 15:59:32			0	33968	0	0	0	16966	15610	154834	27448	952046	37524	106147	0	0	8168	761671	0	0
2024-04-20 16:00:32			0	33968	0	0	0	16974	15610	154714	27339	951975	37536	106150	0	0	8168	761671	0	0
2024-04-20 16:01:32			0	33987	0	0	0	16979	15600	154730	27583	952091	37535	106152	0	0	8169	760766	0	0
2024-04-20 16:02:32			0	33971	0	0	0	16968	15610	154754	27386	952054	37536	106148	0	0	8169	761522	0	0
2024-04-20 16:03:32			0	33982	0	0	0	16966	15620	154762	27758	952010	37537	106147	0	0	8169	760933	0	0
2024-04-20 16:04:32			0	33986	0	0	0	16974	15610	154706	27639	952073	37524	106150	0	0	8169	760775	0	0
2024-04-20 16:05:32			0	34004	0	0	0	16971	15620	154866	27590	952010	37526	106149	0	0	8171	759838	0	0
2024-04-20 16:06:32			0	33994	0	0	0	16971	15610	154822	27443	952081	37514	106149	0	0	8170	760377	0	0
2024-04-20 16:07:32			0	33997	0	0	0	16981	15630	154766	27460	952079	37537	106153	0	0	8170	760145	0	0
2024-04-20 16:08:32			0	34019	0	0	0	16979	15610	154758	27753	952081	37514	106152	0	0	8171	759133	0	0
2024-04-20 16:09:32			0	34016	0	0	0	16989	15620	154666	27590	952062	37537	106156	0	0	8171	759242	0	0
2024-04-20 16:10:32			0	34021	0	0	0	16999	15620	154730	27409	952150	37537	106160	0	0	8171	758993	0	0
2024-04-20 16:11:32			0	34027	0	0	0	17002	15630	154694	27835	952140	37538	106161	0	0	8171	758654	0	0
2024-04-20 16:12:32			0	34048	0	0	0	17012	15630	154570	27826	952132	37537	106165	0	0	8172	757612	0	0
2024-04-20 16:13:32			0	34062	0	0	0	17005	15630	154442	27526	952140	37538	106162	0	0	8173	756917	0	0
2024-04-20 16:14:32			0	34088	0	0	0	17018	15620	154370	27736	952220	37537	106167	0	0	8175	755670	0	0
2024-04-20 16:15:32			0	34104	0	0	0	17007	15640	154290	27415	952156	37539	106163	0	0	8176	754797	0	0
2024-04-20 16:16:32			0	34108	0	0	0	17018	15640	154234	27578	952200	37549	106167	0	0	8176	754599	0	0
2024-04-20 16:17:32			0	34124	0	0	0	17018	15650	154194	27608	952217	37539	106167	0	0	8177	753767	0	0
2024-04-20 16:18:32			0	34138	0	0	0	17015	15650	154078	27473	952190	37549	106166	0	0	8178	753075	0	0
2024-04-20 16:19:32			0	34132	0	0	0	17015	15650	154094	27724	952243	37549	106166	0	0	8177	753372	0	0
2024-04-20 16:20:32			0	34155	0	0	0	17012	15650	153946	27351	952251	37539	106165	0	0	8179	752236	0	0
2024-04-20 16:21:32			0	34170	0	0	0	17023	15650	153966	27836	952243	37539	106169	0	0	8179	751497	0	0
2024-04-20 16:22:32			0	34158	0	0	0	17018	15650	153866	27436	952225	37539	106167	0	0	8179	752088	0	0
2024-04-20 16:23:32			0	34151	0	0	0	17018	15660	153898	27498	952286	37550	106167	0	0	8178	752393	0	0
2024-04-20 16:24:32			0	34170	0	0	0	17023	15660	153958	27422	952286	37529	106169	0	0	8179	751456	0	0
2024-04-20 16:25:32			0	34193	0	0	0	17025	15650	153854	27661	952330	37539	106170	0	0	8181	750363	0	0
2024-04-20 16:26:32			0	34161	0	0	0	17033	15670	153778	27580	952354	37529	106173	0	0	8179	751859	0	0
2024-04-20 16:27:32			0	34192	0	0	0	17036	15660	153794	27925	952338	37550	106174	0	0	8180	750372	0	0
2024-04-20 16:28:32			0	34185	0	0	0	17033	15680	153754	28025	952344	37541	106173	0	0	8180	750636	0	0
2024-04-20 16:29:32			0	34184	0	0	0	17033	15670	153770	27464	952389	37541	106173	0	0	8180	750726	0	0
2024-04-20 16:30:32			0	34209	0	0	0	17041	15680	153818	27566	952352	37553	106176	0	0	8181	749455	0	0
2024-04-20 16:31:32			0	34213	0	0	0	17031	15680	153806	27578	952371	37541	106172	0	0	8182	749258	0	0
2024-04-20 16:32:32			0	34202	0	0	0	17049	15670	153726	27270	952336	37551	106179	0	0	8181	749840	0	0
2024-04-20 16:33:32			0	34213	0	0	0	17049	15680	153694	27462	952405	37553	106179	0	0	8182	749258	0	0
2024-04-20 16:34:32			0	34231	0	0	0	17041	15690	153598	27710	952387	37553	106176	0	0	8183	748333	0	0
2024-04-20 16:35:32			0	34235	0	0	0	17051	15690	153590	27374	952440	37542	106180	0	0	8183	748136	0	0
2024-04-20 16:36:32			0	34238	0	0	0	17054	15690	153538	27649	952413	37542	106181	0	0	8183	747989	0	0
2024-04-20 16:37:32			0	34252	0	0	0	17072	15690	153562	27739	952395	37553	106188	0	0	8183	747302	0	0
2024-04-20 16:38:32			0	34256	0	0	0	17085	15690	153570	27183	952421	37542	106193	0	0	8183	747105	0	0
2024-04-20 16:39:32			0	34266	0	0	0	17080	15700	153394	27351	952429	37543	106191	0	0	8184	746574	0	0
2024-04-20 16:40:32			0	34292	0	0	0	17080	15700	153310	27507	952508	37543	106191	0	0	8186	745300	0	0
2024-04-20 16:41:32			0	34280	0	0	0	17080	15700	153382	27447	952490	37555	106191	0	0	8185	745888	0	0
2024-04-20 16:42:32			0	34313	0	0	0	17085	15700	153194	27583	952482	37565	106193	0	0	8187	744272	0	0
2024-04-20 16:43:32			0	34319	0	0	0	17096	15700	153114	27284	952517	37555	106197	0	0	8187	743978	0	0
2024-04-20 16:44:32			0	34352	0	0	0	17098	15710	153039	27467	952472	37555	106198	0	0	8189	742326	0	0
2024-04-20 16:45:32			0	34373	0	0	0	17101	15710	152991	27417	952559	37543	106199	0	0	8190	741301	0	0
2024-04-20 16:46:32			0	34364	0	0	0	17093	15720	152931	27390	952488	37555	106196	0	0	8190	741700	0	0
2024-04-20 16:47:32			0	34404	0	0	0	17098	15700	152767	27779	952490	37555	106198	0	0	8192	739830	0	0
2024-04-20 16:48:32			0	34396	0	0	0	17106	15720	152775	27717	952515	37544	106201	0	0	8191	740140	0	0
2024-04-20 16:49:32			0	34425	0	0	0	17088	15720	152767	27364	952523	37535	106194	0	0	8193	738728	0	0
2024-04-20 16:50:32			0	34408	0	0	0	17067	15720	152679	27720	952549	37545	106186	0	0	8193	739556	0	0
2024-04-20 16:51:32			0	34417	0	0	0	17064	15720	152695	27732	952436	37544	106185	0	0	8193	739117	0	0
2024-04-20 16:52:32			0	34401	0	0	0	17062	15720	152779	27668	952462	37555	106184	0	0	8192	739896	0	0
2024-04-20 16:53:32			0	34389	0	0	0	17059	15710	152907	27517	952427	37543	106183	0	0	8192	740521	0	0
2024-04-20 16:54:32			0	34366	0	0	0	17028	15710	152959	27485	952393	37555	106171	0	0	8191	741642	0	0
2024-04-20 16:55:32			0	34357	0	0	0	16984	15700	152955	27557	952280	37533	106154	0	0	8191	742122	0	0
2024-04-20 16:56:32			0	34336	0	0	0	16958	15700	153106	27602	952350	37543	106144	0	0	8190	743147	0	0
2024-04-20 16:57:32			0	34290	0	0	0	16976	15680	153214	27448	952221	37542	106151	0	0	8187	745478	0	0
2024-04-20 16:58:32			0	34253	0	0	0	16953	15670	153434	27142	952257	37530	106142	0	0	8185	747333	0	0
2024-04-20 16:59:32			0	34230	0	0	0	16971	15660	153598	27251	952188	37540	106149	0	0	8184	748503	0	0
2024-04-20 17:00:32			0	34198	0	0	0	16948	15660	153782	27450	952207	37540	106140	0	0	8182	750077	0	0
2024-04-20 17:01:32			0	34159	0	0	0	16932	15660	153826	27826	952154	37518	106134	0	0	8180	751999	0	0
2024-04-20 17:02:32			0	34140	0	0	0	16976	15640	153998	27351	952130	37528	106151	0	0	8178	753017	0	0
2024-04-20 17:03:32			0	34138	0	0	0	17012	15640	154154	27374	952182	37528	106165	0	0	8178	753116	0	0
2024-04-20 17:04:32			0	34111	0	0	0	16963	15640	154258	27516	952156	37528	106146	0	0	8177	754450	0	0
2024-04-20 17:05:32			0	34105	0	0	0	16958	15640	154206	27251	952095	37528	106144	0	0	8177	754747	0	0
2024-04-20 17:06:32			0	34097	0	0	0	16955	15640	154258	27753	952121	37528	106143	0	0	8176	755143	0	0
2024-04-20 17:07:32			0	34102	0	0	0	16961	15630	154210	27549	952087	37538	106145	0	0	8176	754936	0	0
2024-04-20 17:08:32			0	34106	0	0	0	16932	15640	154254	27531	952121	37539	106134	0	0	8177	754698	0	0
2024-04-20 17:09:32			0	34072	0	0	0	16924	15630	154390	27519	952053	37526	106131	0	0	8175	756422	0	0
2024-04-20 17:10:32			0	34056	0	0	0	16942	15620	154430	27618	952071	37537	106138	0	0	8174	757256	0	0
2024-04-20 17:11:32			0	34055	0	0	0	16932	15610	154582	27410	952028	37525	106134	0	0	8174	757346	0	0
2024-04-20 17:12:32			0	34042	0	0	0	16927	15620	154558	27414	952010	37526	106132	0	0	8173	757950	0	0
2024-04-20 17:13:32			0	34010	0	0	0	16888	15610	154474	27720	951967	37535	106117	0	0	8172	759581	0	0
2024-04-20 17:14:32			0	33991	0	0	0	16888	15590	154690	27431	951916	37512	106117	0	0	8171	760608	0	0
2024-04-20 17:15:32			0	33972	0	0	0	16880	15600	154754	27533	951925	37534	106114	0	0	8170	761513	0	0
2024-04-20 17:16:32			0	33960	0	0	0	16893	15580	154806	27509	951935	37511	106119	0	0	8169	762193	0	0
2024-04-20 17:17:32			0	33951	0	0	0	16901	15580	155002	27426	951908	37523	106122	0	0	8168	762642	0	0
2024-04-20 17:18:32			0	33931	0	0	0	16877	15580	154974	27300	951874	37533	106113	0	0	8168	763640	0	0
2024-04-20 17:19:32			0	33908	0	0	0	16888	15570	155154	27535	951831	37533	106117	0	0	8166	764830	0	0
2024-04-20 17:20:32			0	33882	0	0	0	16885	15560	155270	28055	951876	37532	106116	0	0	8165	766172	0	0
2024-04-20 17:21:32			0	33882	0	0	0	16893	15550	155462	27543	951886	37531	106119	0	0	8164	766214	0	0
2024-04-20 17:22:32			0	33849	0	0	0	16896	15550	155530	27685	951886	37531	106120	0	0	8162	767867	0	0
2024-04-20 17:23:32			0	33824	0	0	0	16901	15560	155582	27776	951920	37520	106122	0	0	8161	769080	0	0
2024-04-20 17:24:32			0	33781	0	0	0	16896	15560	155726	27900	951920	37531	106120	0	0	8158	771242	0	0
2024-04-20 17:25:32			0	33774	0	0	0	16903	15540	155926	27414	951817	37530	106123	0	0	8158	771677	0	0
2024-04-20 17:26:32			0	33751	0	0	0	16893	15560	155982	27519	951894	37520	106119	0	0	8157	772753	0	0
2024-04-20 17:27:32			0	33715	0	0	0	16890	15550	156050	27590	951886	37520	106118	0	0	8155	774611	0	0
2024-04-20 17:28:32			0	33694	0	0	0	16888	15550	156190	27400	951878	37530	106117	0	0	8153	775672	0	0
2024-04-20 17:29:32			0	33674	0	0	0	16916	15560	156270	27312	951894	37531	106128	0	0	8152	776642	0	0
2024-04-20 17:30:32			0	33668	0	0	0	16914	15550	156346	27675	951799	37519	106127	0	0	8151	776988	0	0
2024-04-20 17:31:32			0	33654	0	0	0	16924	15550	156406	27412	951930	37530	106131	0	0	8150	777697	0	0
2024-04-20 17:32:32			0	33641	0	0	0	16940	15560	156386	27568	951947	37531	106137	0	0	8149	778314	0	0
2024-04-20 17:33:32			0	33641	0	0	0	16958	15560	156446	27490	951981	37532	106144	0	0	8149	778314	0	0
2024-04-20 17:34:32			0	33661	0	0	0	16945	15560	156382	27324	951955	37532	106139	0	0	8151	777300	0	0
2024-04-20 17:35:32			0	33666	0	0	0	16961	15560	156366	27362	951902	37521	106145	0	0	8151	777047	0	0
2024-04-20 17:36:32			0	33707	0	0	0	16971	15580	156238	27604	952058	37533	106149	0	0	8153	774890	0	0
2024-04-20 17:37:32			0	33709	0	0	0	16976	15590	156062	27473	952048	37545	106151	0	0	8153	774747	0	0
2024-04-20 17:38:32			0	33752	0	0	0	16979	15590	155946	27447	952022	37534	106152	0	0	8156	772578	0	0
2024-04-20 17:39:32			0	33769	0	0	0	16992	15580	155790	27720	952119	37544	106157	0	0	8156	771763	0	0
2024-04-20 17:40:32			0	33807	0	0	0	17002	15600	155638	27507	952162	37534	106161	0	0	8158	769769	0	0
2024-04-20 17:41:32			0	33829	0	0	0	17005	15610	155614	27260	952178	37524	106162	0	0	8160	768622	0	0
2024-04-20 17:42:32			0	33830	0	0	0	17020	15610	155530	27334	952212	37546	106168	0	0	8159	768572	0	0
2024-04-20 17:43:32			0	33861	0	0	0	17020	15610	155438	27371	952133	37546	106168	0	0	8161	767018	0	0
2024-04-20 17:44:32			0	33873	0	0	0	17025	15610	155286	27031	952151	37557	106170	0	0	8162	766417	0	0
2024-04-20 17:45:32			0	33907	0	0	0	17046	15620	155286	27514	952220	37547	106178	0	0	8164	764674	0	0
2024-04-20 17:46:32			0	33917	0	0	0	17049	15620	155166	27313	952281	37558	106179	0	0	8164	764175	0	0
2024-04-20 17:47:32			0	33939	0	0	0	17041	15640	154990	26918	952227	37549	106176	0	0	8166	762994	0	0
2024-04-20 17:48:32			0	33978	0	0	0	17070	15640	154850	27308	952306	37549	106187	0	0	8167	761050	0	0
2024-04-20 17:49:32			0	33989	0	0	0	17096	15640	154738	27447	952306	37528	106197	0	0	8168	760503	0	0
2024-04-20 17:50:32			0	34016	0	0	0	17083	15640	154658	27166	952367	37549	106192	0	0	8169	759160	0	0
2024-04-20 17:51:32			0	34057	0	0	0	17083	15650	154554	27280	952330	37550	106192	0	0	8172	757084	0	0
2024-04-20 17:52:32			0	34088	0	0	0	17090	15670	154374	27390	952415	37551	106195	0	0	8174	755466	0	0
2024-04-20 17:53:32			0	34113	0	0	0	17096	15670	154226	27260	952389	37551	106197	0	0	8175	754230	0	0
2024-04-20 17:54:32			0	34128	0	0	0	17101	15670	154050	27372	952433	37561	106199	0	0	8176	753488	0	0
2024-04-20 17:55:32			0	34156	0	0	0	17106	15680	154010	27310	952423	37552	106201	0	0	8177	752066	0	0
2024-04-20 17:56:32			0	34159	0	0	0	17111	15690	153942	27079	952492	37564	106203	0	0	8177	751877	0	0
2024-04-20 17:57:32			0	34170	0	0	0	17111	15680	153882	27265	952431	37564	106203	0	0	8178	751375	0	0
2024-04-20 17:58:32			0	34190	0	0	0	17109	15690	153794	27488	952421	37564	106202	0	0	8179	750350	0	0
2024-04-20 17:59:32			0	34194	0	0	0	17085	15700	153774	27038	952482	37543	106193	0	0	8180	750112	0	0
2024-04-20 18:00:32			0	34211	0	0	0	17096	15700	153734	27170	952508	37576	106197	0	0	8181	749276	0	0
2024-04-20 18:01:32			0	34204	0	0	0	17080	15700	153802	27812	952464	37555	106191	0	0	8181	749620	0	0
2024-04-20 18:02:32			0	34218	0	0	0	17077	15680	153778	27371	952431	37553	106190	0	0	8181	749012	0	0
2024-04-20 18:03:32			0	34177	0	0	0	17077	15700	153902	27263	952429	37565	106190	0	0	8179	750949	0	0
2024-04-20 18:04:32			0	34203	0	0	0	17085	15710	153746	27248	952472	37566	106193	0	0	8181	749629	0	0
2024-04-20 18:05:32			0	34177	0	0	0	17096	15700	153714	27559	952517	37543	106197	0	0	8179	750949	0	0
2024-04-20 18:06:32			0	34182	0	0	0	17083	15710	153698	27471	952446	37566	106192	0	0	8179	750663	0	0
2024-04-20 18:07:32			0	34182	0	0	0	17075	15710	153774	27474	952506	37566	106189	0	0	8179	750663	0	0
2024-04-20 18:08:32			0	34200	0	0	0	17085	15710	153650	27526	952498	37566	106193	0	0	8180	749776	0	0
2024-04-20 18:09:32			0	34202	0	0	0	17080	15700	153678	27486	952490	37555	106191	0	0	8181	749718	0	0
2024-04-20 18:10:32			0	34212	0	0	0	17075	15700	153618	27265	952464	37555	106189	0	0	8181	749226	0	0
2024-04-20 18:11:32			0	34228	0	0	0	17072	15710	153658	27313	952480	37555	106188	0	0	8182	748399	0	0
2024-04-20 18:12:32			0	34243	0	0	0	17077	15700	153514	27450	952429	37554	106190	0	0	8183	747703	0	0
2024-04-20 18:13:32			0	34225	0	0	0	17067	15700	153542	27450	952429	37554	106186	0	0	8182	748587	0	0
2024-04-20 18:14:32			0	34241	0	0	0	17059	15720	153426	27346	952515	37567	106183	0	0	8183	747721	0	0
2024-04-20 18:15:32			0	34239	0	0	0	17057	15710	153434	27386	952472	37543	106182	0	0	8183	747859	0	0
2024-04-20 18:16:32			0	34236	0	0	0	17057	15710	153418	27573	952446	37566	106182	0	0	8183	748006	0	0
2024-04-20 18:17:32			0	34268	0	0	0	17064	15720	153454	27703	952409	37567	106185	0	0	8185	746396	0	0
2024-04-20 18:18:32			0	34250	0	0	0	17064	15700	153398	27524	952403	37554	106185	0	0	8184	747359	0	0
2024-04-20 18:19:32			0	34258	0	0	0	17051	15700	153378	27708	952403	37554	106180	0	0	8184	746967	0	0
2024-04-20 18:20:32			0	34241	0	0	0	17062	15700	153394	27483	952517	37555	106184	0	0	8183	747801	0	0
2024-04-20 18:21:32			0	34252	0	0	0	17070	15710	153402	27599	952446	37555	106187	0	0	8184	747221	0	0
2024-04-20 18:22:32			0	34231	0	0	0	17077	15710	153446	27445	952498	37555	106190	0	0	8182	748252	0	0
2024-04-20 18:23:32			0	34248	0	0	0	17072	15700	153454	27341	952456	37554	106188	0	0	8183	747458	0	0
2024-04-20 18:24:32			0	34258	0	0	0	17062	15710	153478	27386	952454	37566	106184	0	0	8184	746927	0	0
2024-04-20 18:25:32			0	34248	0	0	0	17067	15700	153534	27241	952464	37566	106186	0	0	8183	747458	0	0
2024-04-20 18:26:32			0	34243	0	0	0	17059	15700	153462	27331	952490	37577	106183	0	0	8183	747703	0	0
2024-04-20 18:27:32			0	34239	0	0	0	17067	15710	153498	27294	952419	37566	106186	0	0	8183	747859	0	0
2024-04-20 18:28:32			0	34261	0	0	0	17067	15710	153502	27156	952427	37555	106186	0	0	8184	746779	0	0
2024-04-20 18:29:32			0	34245	0	0	0	17064	15710	153518	27336	952498	37543	106185	0	0	8183	747565	0	0
2024-04-20 18:30:32			0	34258	0	0	0	17064	15700	153514	27479	952429	37565	106185	0	0	8184	746967	0	0
2024-04-20 18:31:32			0	34237	0	0	0	17049	15700	153394	27755	952438	37555	106179	0	0	8183	747998	0	0
2024-04-20 18:32:32			0	34247	0	0	0	17044	15700	153498	27313	952438	37555	106177	0	0	8184	747507	0	0
2024-04-20 18:33:32			0	34255	0	0	0	17046	15700	153526	27249	952438	37555	106178	0	0	8184	747114	0	0
2024-04-20 18:34:32			0	34246	0	0	0	17046	15700	153466	27149	952377	37554	106178	0	0	8184	747556	0	0
2024-04-20 18:35:32			0	34239	0	0	0	17049	15690	153410	27329	952421	37553	106179	0	0	8183	747940	0	0
2024-04-20 18:36:32			0	34238	0	0	0	17046	15690	153506	27251	952413	37542	106178	0	0	8183	747989	0	0
2024-04-20 18:37:32			0	34255	0	0	0	17044	15690	153554	27319	952413	37542	106177	0	0	8184	747154	0	0
2024-04-20 18:38:32			0	34255	0	0	0	17057	15690	153454	27300	952448	37564	106182	0	0	8184	747154	0	0
2024-04-20 18:39:32			0	34244	0	0	0	17051	15700	153554	27416	952403	37576	106180	0	0	8183	747654	0	0
2024-04-20 18:40:32			0	34238	0	0	0	17033	15690	153486	27516	952395	37553	106173	0	0	8183	747989	0	0
2024-04-20 18:41:32			0	34240	0	0	0	17031	15690	153522	27516	952387	37564	106172	0	0	8183	747891	0	0
2024-04-20 18:42:32			0	34245	0	0	0	17044	15700	153522	27365	952429	37554	106177	0	0	8184	747605	0	0
2024-04-20 18:43:32			0	34229	0	0	0	17028	15700	153554	27331	952438	37566	106171	0	0	8183	748391	0	0
2024-04-20 18:44:32			0	34250	0	0	0	17028	15690	153566	27293	952387	37553	106171	0	0	8184	747400	0	0
2024-04-20 18:45:32			0	34241	0	0	0	17023	15680	153510	27289	952379	37542	106169	0	0	8184	747882	0	0
2024-04-20 18:46:32			0	34244	0	0	0	17036	15680	153514	27428	952379	37553	106174	0	0	8184	747734	0	0
2024-04-20 18:47:32			0	34241	0	0	0	17036	15680	153646	27362	952397	37541	106174	0	0	8183	747882	0	0
2024-04-20 18:48:32			0	34235	0	0	0	17036	15680	153530	27235	952371	37552	106174	0	0	8183	748176	0	0
2024-04-20 18:49:32			0	34239	0	0	0	17038	15680	153538	27433	952352	37564	106175	0	0	8183	747980	0	0
2024-04-20 18:50:32			0	34238	0	0	0	17064	15690	153666	27364	952413	37564	106185	0	0	8183	747989	0	0
2024-04-20 18:51:32			0	34236	0	0	0	17085	15700	153606	27483	952377	37565	106193	0	0	8182	748047	0	0
2024-04-20 18:52:32			0	34237	0	0	0	17098	15690	153606	27225	952413	37585	106198	0	0	8182	748038	0	0
2024-04-20 18:53:32			0	34242	0	0	0	17098	15680	153582	27379	952431	37553	106198	0	0	8182	747833	0	0
2024-04-20 18:54:32			0	34234	0	0	0	17114	15690	153622	27409	952466	37553	106204	0	0	8182	748185	0	0
2024-04-20 18:55:32			0	34244	0	0	0	17116	15690	153574	27079	952474	37564	106205	0	0	8182	747694	0	0
2024-04-20 18:56:32			0	34266	0	0	0	17119	15700	153566	27499	952517	37543	106206	0	0	8184	746574	0	0
2024-04-20 18:57:32			0	34260	0	0	0	17129	15710	153538	27315	952585	37566	106210	0	0	8183	746829	0	0
2024-04-20 18:58:32			0	34275	0	0	0	17122	15710	153514	27324	952585	37566	106207	0	0	8184	746093	0	0
2024-04-20 18:59:32			0	34278	0	0	0	17119	15720	153430	27462	952654	37567	106206	0	0	8184	745906	0	0
2024-04-20 19:00:32			0	34297	0	0	0	17127	15730	153242	27222	952583	37567	106209	0	0	8185	744935	0	0
2024-04-20 19:01:32			0	34292	0	0	0	17111	15740	153294	27438	952652	37568	106203	0	0	8185	745139	0	0
2024-04-20 19:02:32			0	34313	0	0	0	17116	15730	153250	27402	952618	37567	106205	0	0	8186	744152	0	0
2024-04-20 19:03:32			0	34314	0	0	0	17119	15730	153130	27497	952618	37567	106206	0	0	8186	744103	0	0
2024-04-20 19:04:32			0	34313	0	0	0	17122	15730	153270	27119	952618	37578	106207	0	0	8186	744152	0	0
2024-04-20 19:05:32			0	34279	0	0	0	17114	15740	153258	27573	952713	37569	106204	0	0	8185	745776	0	0
2024-04-20 19:06:32			0	34274	0	0	0	17111	15730	153382	27301	952697	37567	106203	0	0	8184	746062	0	0
2024-04-20 19:07:32			0	34241	0	0	0	17106	15730	153530	27204	952671	37556	106201	0	0	8182	747680	0	0
2024-04-20 19:08:32			0	34230	0	0	0	17109	15730	153566	27833	952618	37578	106202	0	0	8182	748221	0	0
2024-04-20 19:09:32			0	34205	0	0	0	17098	15740	153714	27395	952679	37568	106198	0	0	8181	749409	0	0
2024-04-20 19:10:32			0	34193	0	0	0	17103	15730	153666	27357	952671	37567	106200	0	0	8180	750040	0	0
2024-04-20 19:11:32			0	34173	0	0	0	17109	15740	153746	27147	952687	37569	106202	0	0	8179	750985	0	0
2024-04-20 19:12:32			0	34157	0	0	0	17103	15750	153810	27317	952616	37570	106200	0	0	8178	751733	0	0
2024-04-20 19:13:32			0	34171	0	0	0	17109	15740	153822	27348	952608	37569	106202	0	0	8178	751083	0	0
2024-04-20 19:14:32			0	34157	0	0	0	17106	15740	153866	27550	952608	37580	106201	0	0	8178	751773	0	0
2024-04-20 19:15:32			0	34128	0	0	0	17103	15740	153894	27592	952634	37569	106200	0	0	8176	753204	0	0
2024-04-20 19:16:32			0	34148	0	0	0	17109	15740	153898	27512	952739	37558	106202	0	0	8177	752217	0	0
2024-04-20 19:17:32			0	34136	0	0	0	17111	15740	153942	27656	952679	37557	106203	0	0	8176	752809	0	0
2024-04-20 19:18:32			0	34139	0	0	0	17109	15750	154002	27460	952695	37570	106202	0	0	8177	752621	0	0
2024-04-20 19:19:32			0	34140	0	0	0	17103	15750	153966	27367	952695	37581	106200	0	0	8177	752571	0	0
2024-04-20 19:20:32			0	34153	0	0	0	17101	15750	153970	27369	952642	37559	106199	0	0	8178	751930	0	0
2024-04-20 19:21:32			0	34132	0	0	0	17109	15740	154018	27486	952687	37558	106202	0	0	8176	753007	0	0
2024-04-20 19:22:32			0	34142	0	0	0	17098	15740	153902	27235	952581	37580	106198	0	0	8177	752513	0	0
2024-04-20 19:23:32			0	34151	0	0	0	17106	15750	153974	27142	952624	37570	106201	0	0	8177	752029	0	0
2024-04-20 19:24:32			0	34145	0	0	0	17111	15740	154046	27516	952634	37569	106203	0	0	8177	752365	0	0
2024-04-20 19:25:32			0	34129	0	0	0	17103	15750	153998	27178	952624	37559	106200	0	0	8176	753114	0	0
2024-04-20 19:26:32			0	34131	0	0	0	17106	15750	153934	27717	952756	37559	106201	0	0	8176	753016	0	0
2024-04-20 19:27:32			0	34148	0	0	0	17103	15740	153894	27317	952713	37569	106200	0	0	8177	752217	0	0
2024-04-20 19:28:32			0	34139	0	0	0	17106	15750	153882	27234	952624	37570	106201	0	0	8177	752621	0	0
2024-04-20 19:29:32			0	34128	0	0	0	17109	15740	153878	27383	952679	37568	106202	0	0	8176	753204	0	0
2024-04-20 19:30:32			0	34149	0	0	0	17103	15750	153858	27424	952695	37570	106200	0	0	8177	752127	0	0
2024-04-20 19:31:32			0	34132	0	0	0	17111	15740	153878	27480	952581	37558	106203	0	0	8176	753007	0	0
2024-04-20 19:32:32			0	34101	0	0	0	17109	15740	153958	27317	952634	37558	106202	0	0	8174	754538	0	0
2024-04-20 19:33:32			0	34114	0	0	0	17098	15750	153954	27135	952616	37581	106198	0	0	8175	753855	0	0
2024-04-20 19:34:32			0	34114	0	0	0	17109	15750	154054	27348	952642	37581	106202	0	0	8175	753855	0	0
2024-04-20 19:35:32			0	34130	0	0	0	17106	15730	154034	27621	952671	37578	106201	0	0	8176	753146	0	0
2024-04-20 19:36:32			0	34138	0	0	0	17109	15740	153978	27241	952660	37558	106202	0	0	8177	752710	0	0
2024-04-20 19:37:32			0	34137	0	0	0	17106	15740	153886	27708	952687	37558	106201	0	0	8177	752760	0	0
2024-04-20 19:38:32			0	34127	0	0	0	17103	15750	153874	27415	952642	37559	106200	0	0	8176	753213	0	0
2024-04-20 19:39:32			0	34122	0	0	0	17106	15730	153902	27419	952592	37578	106201	0	0	8176	753541	0	0
2024-04-20 19:40:32			0	34119	0	0	0	17106	15730	154046	27528	952671	37567	106201	0	0	8175	753689	0	0
2024-04-20 19:41:32			0	34108	0	0	0	17101	15750	154126	27628	952695	37570	106199	0	0	8175	754152	0	0
2024-04-20 19:42:32			0	34094	0	0	0	17103	15740	154146	27435	952687	37569	106200	0	0	8174	754885	0	0
2024-04-20 19:43:32			0	34086	0	0	0	17096	15750	154230	27343	952748	37570	106197	0	0	8174	755240	0	0
2024-04-20 19:44:32			0	34074	0	0	0	17098	15740	154210	27376	952687	37569	106198	0	0	8173	755875	0	0
2024-04-20 19:45:32			0	34066	0	0	0	17103	15750	154282	27199	952642	37559	106200	0	0	8172	756230	0	0
2024-04-20 19:46:32			0	34063	0	0	0	17093	15750	154406	27524	952624	37581	106196	0	0	8172	756379	0	0
2024-04-20 19:47:32			0	34049	0	0	0	17101	15740	154306	27557	952634	37558	106199	0	0	8171	757113	0	0
2024-04-20 19:48:32			0	34062	0	0	0	17103	15740	154398	27469	952660	37569	106200	0	0	8172	756469	0	0
2024-04-20 19:49:32			0	34052	0	0	0	17098	15750	154306	27355	952695	37581	106198	0	0	8172	756924	0	0
2024-04-20 19:50:32			0	34067	0	0	0	17096	15750	154398	27400	952616	37559	106197	0	0	8173	756181	0	0
2024-04-20 19:51:32			0	34061	0	0	0	17098	15740	154370	27826	952634	37569	106198	0	0	8172	756519	0	0
2024-04-20 19:52:32			0	34066	0	0	0	17098	15750	154258	27666	952590	37581	106198	0	0	8173	756230	0	0
2024-04-20 19:53:32			0	34074	0	0	0	17090	15740	154326	27575	952626	37568	106195	0	0	8173	755875	0	0
2024-04-20 19:54:32			0	34061	0	0	0	17096	15740	154226	27514	952687	37580	106197	0	0	8172	756519	0	0
2024-04-20 19:55:32			0	34075	0	0	0	17096	15740	154238	27502	952660	37569	106197	0	0	8173	755825	0	0
2024-04-20 19:56:32			0	34079	0	0	0	17096	15740	154270	27680	952634	37580	106197	0	0	8173	755627	0	0
2024-04-20 19:57:32			0	34088	0	0	0	17101	15750	154094	27312	952695	37581	106199	0	0	8174	755141	0	0
2024-04-20 19:58:32			0	34068	0	0	0	17096	15750	154206	27275	952642	37559	106197	0	0	8173	756131	0	0
2024-04-20 19:59:32			0	34075	0	0	0	17090	15750	154166	27296	952695	37570	106195	0	0	8173	755784	0	0
2024-04-20 20:00:32			0	34077	0	0	0	17096	15740	154182	27329	952713	37580	106197	0	0	8173	755726	0	0
2024-04-20 20:01:32			0	34076	0	0	0	17098	15740	154238	27455	952660	37580	106198	0	0	8173	755776	0	0
2024-04-20 20:02:32			0	34062	0	0	0	17090	15740	154214	27097	952573	37568	106195	0	0	8172	756469	0	0
2024-04-20 20:03:32			0	34063	0	0	0	17090	15740	154350	27345	952600	37579	106195	0	0	8172	756420	0	0
2024-04-20 20:04:32			0	34063	0	0	0	17103	15730	154274	27793	952618	37567	106200	0	0	8172	756460	0	0
2024-04-20 20:05:32			0	34045	0	0	0	17085	15740	154274	27329	952581	37569	106193	0	0	8172	757312	0	0
2024-04-20 20:06:32			0	34052	0	0	0	17090	15740	154366	27455	952626	37579	106195	0	0	8172	756965	0	0
2024-04-20 20:07:32			0	34063	0	0	0	17077	15730	154354	27426	952565	37556	106190	0	0	8173	756460	0	0
2024-04-20 20:08:32			0	34051	0	0	0	17075	15740	154354	27562	952600	37568	106189	0	0	8172	757014	0	0
2024-04-20 20:09:32			0	34055	0	0	0	17064	15720	154374	27253	952575	37556	106185	0	0	8172	756898	0	0
2024-04-20 20:10:32			0	34047	0	0	0	17064	15720	154322	27102	952602	37556	106185	0	0	8172	757294	0	0
2024-04-20 20:11:32			0	34041	0	0	0	17062	15730	154334	27144	952557	37567	106184	0	0	8172	757551	0	0
2024-04-20 20:12:32			0	34042	0	0	0	17054	15720	154342	26972	952549	37567	106181	0	0	8172	757542	0	0
2024-04-20 20:13:32			0	34032	0	0	0	17059	15710	154238	27384	952533	37566	106183	0	0	8171	758079	0	0
2024-04-20 20:14:32			0	34030	0	0	0	17051	15710	154390	27514	952506	37566	106180	0	0	8171	758179	0	0
2024-04-20 20:15:32			0	34025	0	0	0	17041	15710	154438	27275	952472	37555	106176	0	0	8171	758427	0	0
2024-04-20 20:16:32			0	34033	0	0	0	17031	15700	154398	27326	952490	37555	106172	0	0	8172	758070	0	0
2024-04-20 20:17:32			0	34016	0	0	0	17036	15710	154410	27364	952446	37566	106174	0	0	8171	758874	0	0
2024-04-20 20:18:32			0	34013	0	0	0	17018	15700	154458	27112	952411	37555	106167	0	0	8171	759064	0	0
2024-04-20 20:19:32			0	34014	0	0	0	17020	15690	154502	27789	952395	37553	106168	0	0	8171	759055	0	0
2024-04-20 20:20:32			0	33998	0	0	0	17010	15680	154578	27057	952352	37564	106164	0	0	8170	759891	0	0
2024-04-20 20:21:32			0	34005	0	0	0	16984	15680	154590	27187	952379	37553	106154	0	0	8171	759543	0	0
2024-04-20 20:22:32			0	34013	0	0	0	16971	15680	154614	27310	952352	37553	106149	0	0	8171	759145	0	0
2024-04-20 20:23:32			0	33995	0	0	0	16968	15660	154646	27261	952267	37550	106148	0	0	8170	760122	0	0
2024-04-20 20:24:32			0	33986	0	0	0	16966	15660	154686	27237	952259	37550	106147	0	0	8170	760570	0	0
2024-04-20 20:25:32			0	33994	0	0	0	16971	15650	154710	27248	952251	37528	106149	0	0	8170	760213	0	0
2024-04-20 20:26:32			0	33999	0	0	0	16989	15650	154566	27395	952243	37539	106156	0	0	8170	759964	0	0
2024-04-20 20:27:32			0	33988	0	0	0	16989	15660	154758	27523	952294	37550	106156	0	0	8169	760471	0	0
2024-04-20 20:28:32			0	33968	0	0	0	17005	15650	154706	27407	952296	37549	106162	0	0	8168	761507	0	0
2024-04-20 20:29:32			0	33983	0	0	0	16997	15650	154754	27393	952269	37560	106159	0	0	8169	760760	0	0
2024-04-20 20:30:32			0	33984	0	0	0	16994	15650	154738	27364	952269	37549	106158	0	0	8169	760710	0	0
2024-04-20 20:31:32			0	33966	0	0	0	16976	15640	154758	27131	952200	37560	106151	0	0	8168	761648	0	0
2024-04-20 20:32:32			0	33993	0	0	0	16963	15640	154794	27426	952279	37560	106146	0	0	8170	760304	0	0
2024-04-20 20:33:32			0	33975	0	0	0	16981	15630	154682	27459	952271	37570	106153	0	0	8169	761241	0	0
2024-04-20 20:34:32			0	33989	0	0	0	16992	15640	154650	27185	952279	37549	106157	0	0	8169	760503	0	0
2024-04-20 20:35:32			0	33964	0	0	0	16989	15650	154698	27543	952243	37549	106156	0	0	8168	761707	0	0
2024-04-20 20:36:32			0	33975	0	0	0	16997	15640	154658	27428	952200	37560	106159	0	0	8168	761200	0	0
2024-04-20 20:37:32			0	33972	0	0	0	16992	15630	154670	27270	952166	37559	106157	0	0	8168	761390	0	0
2024-04-20 20:38:32			0	33973	0	0	0	16974	15630	154734	27352	952237	37558	106150	0	0	8169	761340	0	0
2024-04-20 20:39:32			0	33991	0	0	0	16974	15620	154742	27505	952150	37558	106150	0	0	8170	760485	0	0
2024-04-20 20:40:32			0	33975	0	0	0	16971	15610	154702	27229	952160	37546	106149	0	0	8169	761323	0	0
2024-04-20 20:41:32			0	33982	0	0	0	16966	15620	154742	27464	952176	37558	106147	0	0	8169	760933	0	0
2024-04-20 20:42:32			0	33971	0	0	0	16955	15610	154810	27492	952160	37557	106143	0	0	8169	761522	0	0
2024-04-20 20:43:32			0	33969	0	0	0	16958	15620	154722	27280	952089	37558	106144	0	0	8169	761580	0	0
2024-04-20 20:44:32			0	33975	0	0	0	16950	15620	154858	27358	952194	37547	106141	0	0	8169	761282	0	0
2024-04-20 20:45:32			0	33949	0	0	0	16940	15610	154878	27222	952160	37546	106137	0	0	8168	762618	0	0
2024-04-20 20:46:32			0	33950	0	0	0	16942	15610	154802	27519	952046	37545	106138	0	0	8168	762569	0	0
2024-04-20 20:47:32			0	33969	0	0	0	16955	15610	154862	27644	952125	37557	106143	0	0	8169	761621	0	0
2024-04-20 20:48:32			0	33939	0	0	0	16976	15610	154854	27287	952151	37545	106151	0	0	8167	763117	0	0
2024-04-20 20:49:32			0	33953	0	0	0	16979	15610	154930	27717	952204	37545	106152	0	0	8167	762419	0	0
2024-04-20 20:50:32			0	33945	0	0	0	16968	15620	154882	27632	952220	37569	106148	0	0	8167	762777	0	0
2024-04-20 20:51:32			0	33936	0	0	0	16955	15620	154938	27345	952194	37558	106143	0	0	8167	763226	0	0
2024-04-20 20:52:32			0	33935	0	0	0	16961	15610	154986	27372	952160	37546	106145	0	0	8167	763317	0	0
2024-04-20 20:53:32			0	33936	0	0	0	16966	15610	155010	27327	952160	37546	106147	0	0	8167	763267	0	0
2024-04-20 20:54:32			0	33933	0	0	0	16971	15620	154894	27479	952168	37547	106149	0	0	8166	763376	0	0
2024-04-20 20:55:32			0	33941	0	0	0	16979	15610	155022	27492	952239	37557	106152	0	0	8167	763017	0	0
2024-04-20 20:56:32			0	33953	0	0	0	17015	15620	154898	27324	952220	37558	106166	0	0	8167	762378	0	0
2024-04-20 20:57:32			0	33948	0	0	0	17036	15630	154890	27639	952290	37537	106174	0	0	8166	762586	0	0
2024-04-20 20:58:32			0	33925	0	0	0	17036	15630	154858	27284	952316	37558	106174	0	0	8165	763734	0	0
2024-04-20 20:59:32			0	33946	0	0	0	17044	15640	154878	27376	952314	37560	106177	0	0	8166	762645	0	0
2024-04-20 21:00:32			0	33958	0	0	0	17051	15640	154926	27383	952340	37560	106180	0	0	8167	762047	0	0
2024-04-20 21:01:32			0	33963	0	0	0	17057	15650	154930	27190	952409	37561	106182	0	0	8167	761756	0	0
2024-04-20 21:02:32			0	33952	0	0	0	17054	15660	154774	27706	952425	37561	106181	0	0	8166	762264	0	0
2024-04-20 21:03:32			0	33973	0	0	0	17041	15660	154790	27403	952365	37561	106176	0	0	8168	761217	0	0
2024-04-20 21:04:32			0	33982	0	0	0	17025	15650	154662	27471	952330	37561	106170	0	0	8168	760810	0	0
2024-04-20 21:05:32			0	34004	0	0	0	16981	15650	154618	27524	952251	37550	106153	0	0	8170	759716	0	0
2024-04-20 21:06:32			0	34011	0	0	0	16940	15640	154590	27587	952174	37560	106137	0	0	8172	759408	0	0
2024-04-20 21:07:32			0	34033	0	0	0	16919	15620	154410	27450	952123	37547	106129	0	0	8173	758397	0	0
2024-04-20 21:08:32			0	34046	0	0	0	16906	15630	154358	27414	952132	37547	106124	0	0	8174	757711	0	0
2024-04-20 21:09:32			0	34068	0	0	0	16877	15620	154146	27331	952036	37547	106113	0	0	8176	756661	0	0
2024-04-20 21:10:32			0	34067	0	0	0	16883	15600	154250	27524	951985	37535	106115	0	0	8176	756792	0	0
2024-04-20 21:11:32			0	34052	0	0	0	16880	15600	154314	27374	951977	37534	106114	0	0	8175	757536	0	0
2024-04-20 21:12:32			0	34039	0	0	0	16880	15580	154446	27310	951953	37533	106114	0	0	8174	758262	0	0
2024-04-20 21:13:32			0	34030	0	0	0	16872	15570	154534	27258	951936	37533	106111	0	0	8173	758750	0	0
2024-04-20 21:14:32			0	34030	0	0	0	16885	15560	154534	27507	951928	37532	106116	0	0	8173	758791	0	0
2024-04-20 21:15:32			0	33987	0	0	0	16888	15570	154710	27388	951910	37543	106117	0	0	8171	760889	0	0
2024-04-20 21:16:32			0	34002	0	0	0	16885	15560	154778	27343	951902	37521	106116	0	0	8172	760183	0	0
2024-04-20 21:17:32			0	33977	0	0	0	16877	15560	154738	27447	951920	37531	106113	0	0	8170	761428	0	0
2024-04-20 21:18:32			0	33965	0	0	0	16880	15560	154866	27422	951894	37531	106114	0	0	8170	762026	0	0
2024-04-20 21:19:32			0	33978	0	0	0	16896	15550	154822	27244	951878	37541	106120	0	0	8170	761419	0	0
2024-04-20 21:20:32			0	33946	0	0	0	16896	15550	154886	27284	951930	37552	106120	0	0	8168	763015	0	0
2024-04-20 21:21:32			0	33948	0	0	0	16901	15550	154918	27637	951904	37552	106122	0	0	8168	762915	0	0
2024-04-20 21:22:32			0	33933	0	0	0	16929	15550	154970	27569	951991	37531	106133	0	0	8167	763664	0	0
2024-04-20 21:23:32			0	33946	0	0	0	16932	15550	155014	27379	951965	37541	106134	0	0	8167	763015	0	0
2024-04-20 21:24:32			0	33937	0	0	0	16932	15550	155026	27225	952009	37541	106134	0	0	8167	763464	0	0
2024-04-20 21:25:32			0	33938	0	0	0	16935	15550	154954	27377	951965	37531	106135	0	0	8167	763414	0	0
2024-04-20 21:26:32			0	33931	0	0	0	16945	15550	155042	27490	951983	37530	106139	0	0	8166	763763	0	0
2024-04-20 21:27:32			0	33944	0	0	0	16945	15560	154906	27175	951981	37542	106139	0	0	8167	763073	0	0
2024-04-20 21:28:32			0	33970	0	0	0	16937	15560	154790	27540	952007	37553	106136	0	0	8169	761777	0	0
2024-04-20 21:29:32			0	33992	0	0	0	16945	15560	154778	27246	952026	37552	106139	0	0	8170	760681	0	0
2024-04-20 21:30:32			0	34014	0	0	0	16955	15560	154694	27803	952034	37542	106143	0	0	8171	759586	0	0
2024-04-20 21:31:32			0	34041	0	0	0	16948	15560	154574	27379	952086	37564	106140	0	0	8173	758245	0	0
2024-04-20 21:32:32			0	34060	0	0	0	16945	15580	154398	27305	952058	37543	106139	0	0	8174	757220	0	0
2024-04-20 21:33:32			0	34060	0	0	0	16955	15570	154422	27364	952129	37543	106143	0	0	8174	757261	0	0
2024-04-20 21:34:32			0	34060	0	0	0	16961	15580	154438	27293	952111	37543	106145	0	0	8174	757220	0	0
2024-04-20 21:35:32			0	34087	0	0	0	16963	15590	154302	27511	952153	37556	106146	0	0	8175	755841	0	0
2024-04-20 21:36:32			0	34089	0	0	0	16958	15580	154266	27229	952145	37555	106144	0	0	8175	755783	0	0
2024-04-20 21:37:32			0	34115	0	0	0	16955	15590	154186	27267	952074	37556	106143	0	0	8177	754456	0	0
2024-04-20 21:38:32			0	34135	0	0	0	17002	15590	154082	27698	952206	37534	106161	0	0	8177	753467	0	0
2024-04-20 21:39:32			0	34162	0	0	0	17007	15600	153938	27767	952188	37556	106163	0	0	8179	752094	0	0
2024-04-20 21:40:32			0	34158	0	0	0	17007	15600	153962	27531	952196	37557	106163	0	0	8179	752291	0	0
2024-04-20 21:41:32			0	34194	0	0	0	16997	15610	153862	27265	952204	37557	106159	0	0	8181	750476	0	0
2024-04-20 21:42:32			0	34195	0	0	0	16999	15620	153722	27431	952247	37558	106160	0	0	8181	750386	0	0
2024-04-20 21:43:32			0	34217	0	0	0	16997	15610	153642	27315	952212	37546	106159	0	0	8182	749344	0	0
2024-04-20 21:44:32			0	34226	0	0	0	16994	15610	153546	27576	952239	37569	106158	0	0	8183	748901	0	0
2024-04-20 21:45:32			0	34249	0	0	0	16994	15620	153538	27450	952281	37558	106158	0	0	8184	747730	0	0
2024-04-20 21:46:32			0	34242	0	0	0	16997	15610	153574	27405	952291	37557	106159	0	0	8184	748115	0	0
2024-04-20 21:47:32			0	34278	0	0	0	16984	15620	153366	27369	952228	37558	106154	0	0	8186	746307	0	0
2024-04-20 21:48:32			0	34275	0	0	0	16976	15620	153374	27495	952228	37558	106151	0	0	8186	746455	0	0
2024-04-20 21:49:32			0	34300	0	0	0	16971	15620	153230	27595	952255	37558	106149	0	0	8188	745229	0	0
2024-04-20 21:50:32			0	34338	0	0	0	16979	15620	153122	27658	952194	37558	106152	0	0	8190	743370	0	0
2024-04-20 21:51:32			0	34354	0	0	0	16981	15610	153070	27528	952186	37557	106153	0	0	8191	742628	0	0
2024-04-20 21:52:32			0	34367	0	0	0	16968	15610	153139	27039	952178	37557	106148	0	0	8191	741993	0	0
2024-04-20 21:53:32			0	34370	0	0	0	16958	15620	152995	27421	952168	37569	106144	0	0	8192	741807	0	0
2024-04-20 21:54:32			0	34360	0	0	0	16942	15600	152867	27415	952143	37545	106138	0	0	8191	742375	0	0
2024-04-20 21:55:32			0	34363	0	0	0	16929	15610	152955	27701	952046	37557	106133	0	0	8192	742188	0	0
2024-04-20 21:56:32			0	34331	0	0	0	16916	15610	153034	27339	952099	37545	106128	0	0	8190	743752	0	0
2024-04-20 21:57:32			0	34294	0	0	0	16903	15600	153142	27237	952083	37556	106123	0	0	8188	745604	0	0
2024-04-20 21:58:32			0	34273	0	0	0	16898	15590	153378	27279	952048	37545	106121	0	0	8187	746673	0	0
2024-04-20 21:59:32			0	34225	0	0	0	16898	15580	153478	27478	952040	37544	106121	0	0	8184	749071	0	0
2024-04-20 22:00:32			0	34192	0	0	0	16893	15570	153554	27462	952024	37543	106119	0	0	8182	750736	0	0
2024-04-20 22:01:32			0	34159	0	0	0	16890	15570	153770	27377	951963	37533	106118	0	0	8181	752363	0	0
2024-04-20 22:02:32			0	34149	0	0	0	16883	15560	153938	27594	951999	37541	106115	0	0	8180	752897	0	0
2024-04-20 22:03:32			0	34124	0	0	0	16885	15550	153914	27665	951965	37552	106116	0	0	8179	754173	0	0
2024-04-20 22:04:32			0	34119	0	0	0	16880	15560	154014	27466	951947	37552	106114	0	0	8178	754380	0	0
2024-04-20 22:05:32			0	34093	0	0	0	16875	15550	153994	27608	951930	37541	106112	0	0	8177	755707	0	0
2024-04-20 22:06:32			0	34103	0	0	0	16862	15540	154110	27248	951843	37541	106107	0	0	8178	755252	0	0
2024-04-20 22:07:32			0	34086	0	0	0	16854	15540	154130	27715	951870	37541	106104	0	0	8177	756094	0	0
2024-04-20 22:08:32			0	34086	0	0	0	16862	15540	154158	27810	951888	37541	106107	0	0	8177	756094	0	0
2024-04-20 22:09:32			0	34098	0	0	0	16854	15540	154234	27649	951861	37541	106104	0	0	8178	755500	0	0
2024-04-20 22:10:32			0	34095	0	0	0	16854	15520	154198	27552	951837	37540	106104	0	0	8177	755730	0	0
2024-04-20 22:11:32			0	34101	0	0	0	16862	15530	154294	27540	951845	37540	106107	0	0	8178	755392	0	0
2024-04-20 22:12:32			0	34078	0	0	0	16857	15520	154238	27843	951811	37529	106105	0	0	8176	756572	0	0
2024-04-20 22:13:32			0	34082	0	0	0	16864	15530	154214	27448	951845	37540	106108	0	0	8176	756333	0	0
2024-04-20 22:14:32			0	34081	0	0	0	16859	15530	154214	27678	951827	37551	106106	0	0	8176	756383	0	0
2024-04-20 22:15:32			0	34084	0	0	0	16859	15520	154258	27441	951829	37539	106106	0	0	8177	756275	0	0
2024-04-20 22:16:32			0	34094	0	0	0	16857	15510	154290	27400	951768	37539	106105	0	0	8177	755820	0	0
2024-04-20 22:17:32			0	34102	0	0	0	16851	15510	154290	27473	951821	37539	106103	0	0	8178	755424	0	0
2024-04-20 22:18:32			0	34088	0	0	0	16851	15500	154182	27300	951796	37537	106103	0	0	8177	756158	0	0
2024-04-20 22:19:32			0	34085	0	0	0	16857	15520	154190	27765	951803	37539	106105	0	0	8177	756225	0	0
2024-04-20 22:20:32			0	34090	0	0	0	16859	15510	154250	27528	951847	37560	106106	0	0	8177	756018	0	0
2024-04-20 22:21:32			0	34097	0	0	0	16846	15520	154202	27540	951758	37550	106101	0	0	8178	755631	0	0
2024-04-20 22:22:32			0	34095	0	0	0	16841	15510	154166	27289	951760	37538	106099	0	0	8177	755770	0	0
2024-04-20 22:23:32			0	34092	0	0	0	16844	15510	154262	27514	951787	37527	106100	0	0	8177	755919	0	0
2024-04-20 22:24:32			0	34081	0	0	0	16846	15500	154294	27204	951726	37538	106101	0	0	8177	756505	0	0
2024-04-20 22:25:32			0	34104	0	0	0	16851	15500	154270	27659	951744	37537	106103	0	0	8178	755366	0	0
2024-04-20 22:26:32			0	34094	0	0	0	16838	15490	154310	27748	951736	37526	106098	0	0	8177	755901	0	0
2024-04-20 22:27:32			0	34088	0	0	0	16838	15500	154270	27417	951717	37526	106098	0	0	8177	756158	0	0
2024-04-20 22:28:32			0	34095	0	0	0	16838	15500	154306	27348	951744	37547	106098	0	0	8177	755811	0	0
2024-04-20 22:29:32			0	34088	0	0	0	16841	15490	154210	27355	951701	37525	106099	0	0	8177	756199	0	0
2024-04-20 22:30:32			0	34086	0	0	0	16838	15500	154126	27313	951770	37547	106098	0	0	8177	756257	0	0
2024-04-20 22:31:32			0	34095	0	0	0	16841	15490	154210	27531	951701	37536	106099	0	0	8177	755852	0	0
2024-04-20 22:32:32			0	34081	0	0	0	16825	15490	154306	27265	951754	37536	106093	0	0	8177	756546	0	0
2024-04-20 22:33:32			0	34084	0	0	0	16825	15490	154158	27417	951709	37537	106093	0	0	8177	756397	0	0
2024-04-20 22:34:32			0	34075	0	0	0	16833	15490	154282	27201	951727	37514	106096	0	0	8176	756843	0	0
2024-04-20 22:35:32			0	34085	0	0	0	16828	15480	154290	27467	951667	37536	106094	0	0	8177	756388	0	0
2024-04-20 22:36:32			0	34093	0	0	0	16823	15490	154298	27587	951736	37515	106092	0	0	8178	755951	0	0
2024-04-20 22:37:32			0	34088	0	0	0	16823	15480	154186	27602	951640	37536	106092	0	0	8177	756239	0	0
2024-04-20 22:38:32			0	34079	0	0	0	16823	15470	154218	27116	951703	37524	106092	0	0	8177	756726	0	0
2024-04-20 22:39:32			0	34087	0	0	0	16820	15470	154218	27319	951703	37524	106091	0	0	8177	756330	0	0
2024-04-20 22:40:32			0	34082	0	0	0	16823	15480	154294	27450	951719	37536	106092	0	0	8177	756537	0	0
2024-04-20 22:41:32			0	34086	0	0	0	16815	15480	154274	27173	951738	37536	106089	0	0	8177	756339	0	0
2024-04-20 22:42:32			0	34065	0	0	0	16812	15480	154166	27396	951685	37525	106088	0	0	8176	757380	0	0
2024-04-20 22:43:32			0	34074	0	0	0	16828	15480	154286	27130	951659	37536	106094	0	0	8176	756933	0	0
2024-04-20 22:44:32			0	34098	0	0	0	16820	15470	154262	27209	951651	37535	106091	0	0	8178	755785	0	0
2024-04-20 22:45:32			0	34088	0	0	0	16805	15480	154218	27436	951632	37525	106085	0	0	8178	756239	0	0
2024-04-20 22:46:32			0	34077	0	0	0	16807	15470	154202	27156	951624	37545	106086	0	0	8177	756825	0	0
2024-04-20 22:47:32			0	34086	0	0	0	16810	15470	154242	27599	951651	37535	106087	0	0	8177	756379	0	0
2024-04-20 22:48:32			0	34072	0	0	0	16792	15470	154198	27358	951616	37513	106080	0	0	8177	757073	0	0
2024-04-20 22:49:32			0	34087	0	0	0	16799	15460	154218	27246	951600	37523	106083	0	0	8177	756370	0	0
2024-04-20 22:50:32			0	34073	0	0	0	16792	15460	154242	27313	951555	37523	106080	0	0	8177	757064	0	0
2024-04-20 22:51:32			0	34075	0	0	0	16797	15460	154234	27583	951574	37544	106082	0	0	8177	756965	0	0
2024-04-20 22:52:32			0	34090	0	0	0	16787	15450	154294	27644	951592	37533	106078	0	0	8178	756262	0	0
2024-04-20 22:53:32			0	34086	0	0	0	16784	15460	154294	27289	951547	37534	106077	0	0	8178	756420	0	0
2024-04-20 22:54:32			0	34080	0	0	0	16787	15450	154338	27386	951584	37533	106078	0	0	8177	756758	0	0
2024-04-20 22:55:32			0	34071	0	0	0	16794	15450	154346	27291	951531	37533	106081	0	0	8177	757204	0	0
2024-04-20 22:56:32			0	34071	0	0	0	16802	15450	154310	27274	951557	37533	106084	0	0	8176	757204	0	0
2024-04-20 22:57:32			0	34084	0	0	0	16789	15450	154302	27275	951584	37522	106079	0	0	8177	756560	0	0
2024-04-20 22:58:32			0	34083	0	0	0	16784	15440	154286	27652	951567	37521	106077	0	0	8177	756650	0	0
2024-04-20 22:59:32			0	34092	0	0	0	16784	15450	154346	27659	951557	37522	106077	0	0	8178	756163	0	0
2024-04-20 23:00:32			0	34083	0	0	0	16781	15440	154294	27374	951523	37542	106076	0	0	8177	756650	0	0
2024-04-20 23:01:32			0	34078	0	0	0	16781	15440	154278	27260	951497	37532	106076	0	0	8177	756898	0	0
2024-04-20 23:02:32			0	34077	0	0	0	16779	15430	154286	27267	951428	37520	106075	0	0	8177	756988	0	0
2024-04-20 23:03:32			0	34080	0	0	0	16763	15440	154230	27291	951549	37532	106069	0	0	8178	756799	0	0
2024-04-20 23:04:32			0	34086	0	0	0	16768	15430	154246	27403	951507	37531	106071	0	0	8178	756542	0	0
2024-04-20 23:05:32			0	34088	0	0	0	16771	15430	154270	27407	951420	37520	106072	0	0	8178	756443	0	0
2024-04-20 23:06:32			0	34102	0	0	0	16766	15430	154198	27495	951393	37531	106070	0	0	8179	755749	0	0
2024-04-20 23:07:32			0	34105	0	0	0	16768	15440	154214	27178	951515	37510	106071	0	0	8179	755560	0	0
2024-04-20 23:08:32			0	34087	0	0	0	16768	15430	154150	27443	951472	37531	106071	0	0	8178	756492	0	0
2024-04-20 23:09:32			0	34100	0	0	0	16761	15430	154138	27476	951472	37531	106068	0	0	8179	755848	0	0
2024-04-20 23:10:32			0	34083	0	0	0	16763	15430	154082	27651	951480	37520	106069	0	0	8178	756691	0	0
2024-04-20 23:11:32			0	34104	0	0	0	16763	15420	154170	27370	951438	37508	106069	0	0	8179	755691	0	0
2024-04-20 23:12:32			0	34104	0	0	0	16761	15420	154166	27357	951412	37531	106068	0	0	8179	755691	0	0
2024-04-20 23:13:32			0	34116	0	0	0	16768	15430	154150	27078	951446	37531	106071	0	0	8180	755056	0	0
2024-04-20 23:14:32			0	34113	0	0	0	16768	15420	154074	27440	951464	37541	106071	0	0	8179	755245	0	0
2024-04-20 23:15:32			0	34121	0	0	0	16753	15410	154038	27562	951422	37508	106065	0	0	8180	754890	0	0
2024-04-20 23:16:32			0	34128	0	0	0	16761	15420	154126	27606	951430	37530	106068	0	0	8180	754503	0	0
2024-04-20 23:17:32			0	34142	0	0	0	16761	15410	154022	27388	951387	37541	106068	0	0	8181	753851	0	0
2024-04-20 23:18:32			0	34137	0	0	0	16753	15410	154030	27296	951343	37530	106065	0	0	8181	754098	0	0
2024-04-20 23:19:32			0	34141	0	0	0	16755	15410	154094	27478	951369	37530	106066	0	0	8181	753901	0	0
2024-04-20 23:20:32			0	34148	0	0	0	16750	15420	154070	27578	951412	37541	106064	0	0	8182	753514	0	0
2024-04-20 23:21:32			0	34151	0	0	0	16761	15410	153962	27498	951369	37530	106068	0	0	8182	753406	0	0
2024-04-20 23:22:32			0	34149	0	0	0	16755	15410	153998	27293	951422	37530	106066	0	0	8182	753505	0	0
2024-04-20 23:23:32			0	34147	0	0	0	16758	15410	154030	27474	951395	37530	106067	0	0	8181	753604	0	0
2024-04-20 23:24:32			0	34145	0	0	0	16758	15420	153986	27791	951403	37530	106067	0	0	8181	753662	0	0
2024-04-20 23:25:32			0	34159	0	0	0	16755	15410	154022	27320	951343	37530	106066	0	0	8182	753011	0	0
2024-04-20 23:26:32			0	34157	0	0	0	16755	15410	154010	27535	951387	37530	106066	0	0	8182	753110	0	0
2024-04-20 23:27:32			0	34163	0	0	0	16742	15410	153954	27163	951422	37530	106061	0	0	8183	752813	0	0
2024-04-20 23:28:32			0	34148	0	0	0	16750	15410	153930	27537	951369	37551	106064	0	0	8182	753554	0	0
2024-04-20 23:29:32			0	34156	0	0	0	16753	15410	153858	27450	951387	37530	106065	0	0	8182	753159	0	0
2024-04-20 23:30:32			0	34168	0	0	0	16753	15400	153834	27829	951432	37518	106065	0	0	8183	752607	0	0
2024-04-20 23:31:32			0	34155	0	0	0	16750	15410	153890	27296	951414	37530	106064	0	0	8182	753209	0	0
2024-04-20 23:32:32			0	34169	0	0	0	16753	15410	153870	27241	951395	37530	106065	0	0	8183	752517	0	0
2024-04-20 23:33:32			0	34174	0	0	0	16753	15410	153942	27291	951448	37519	106065	0	0	8183	752270	0	0
2024-04-20 23:34:32			0	34156	0	0	0	16742	15400	153922	27371	951379	37529	106061	0	0	8182	753200	0	0
2024-04-20 23:35:32			0	34173	0	0	0	16737	15410	153966	27237	951316	37530	106059	0	0	8183	752320	0	0
2024-04-20 23:36:32			0	34146	0	0	0	16742	15410	153978	27450	951414	37519	106061	0	0	8182	753653	0	0
2024-04-20 23:37:32			0	34156	0	0	0	16748	15400	153914	27502	951353	37507	106063	0	0	8182	753200	0	0
2024-04-20 23:38:32			0	34161	0	0	0	16742	15390	153790	27327	951337	37528	106061	0	0	8182	752993	0	0
2024-04-20 23:39:32			0	34171	0	0	0	16727	15390	153986	27242	951363	37539	106055	0	0	8183	752499	0	0
2024-04-20 23:40:32			0	34170	0	0	0	16737	15390	153982	27604	951328	37517	106059	0	0	8183	752549	0	0
2024-04-20 23:41:32			0	34174	0	0	0	16735	15390	153830	27118	951337	37506	106058	0	0	8183	752351	0	0
2024-04-20 23:42:32			0	34187	0	0	0	16735	15390	153838	27291	951284	37539	106058	0	0	8184	751710	0	0
2024-04-20 23:43:32			0	34208	0	0	0	16737	15390	153786	27383	951302	37517	106059	0	0	8185	750674	0	0
2024-04-20 23:44:32			0	34207	0	0	0	16732	15380	153686	27126	951347	37527	106057	0	0	8185	750764	0	0
2024-04-20 23:45:32			0	34242	0	0	0	16729	15400	153730	27124	951397	37528	106056	0	0	8187	748960	0	0
2024-04-20 23:46:32			0	34245	0	0	0	16735	15390	153598	27230	951328	37528	106058	0	0	8187	748853	0	0
2024-04-20 23:47:32			0	34259	0	0	0	16737	15390	153606	27391	951355	37517	106059	0	0	8188	748165	0	0
2024-04-20 23:48:32			0	34259	0	0	0	16740	15390	153622	27473	951355	37517	106060	0	0	8188	748165	0	0
2024-04-20 23:49:32			0	34284	0	0	0	16729	15390	153358	27445	951355	37517	106056	0	0	8190	746937	0	0
2024-04-20 23:50:32			0	34289	0	0	0	16740	15390	153294	27384	951310	37528	106060	0	0	8190	746692	0	0
2024-04-20 23:51:32			0	34321	0	0	0	16742	15390	153230	27332	951355	37528	106061	0	0	8192	745123	0	0
2024-04-20 23:52:32			0	34346	0	0	0	16737	15390	153090	27663	951389	37528	106059	0	0	8193	743899	0	0
2024-04-20 23:53:32			0	34377	0	0	0	16742	15390	153051	27502	951381	37528	106061	0	0	8195	742383	0	0
2024-04-20 23:54:32			0	34386	0	0	0	16737	15390	152867	27216	951310	37528	106059	0	0	8195	741944	0	0
2024-04-20 23:55:32			0	34412	0	0	0	16732	15390	152783	27696	951363	37517	106057	0	0	8197	740675	0	0
2024-04-20 23:56:32			0	34415	0	0	0	16727	15380	152683	27391	951320	37527	106055	0	0	8197	740569	0	0
2024-04-20 23:57:32			0	34444	0	0	0	16735	15390	152595	27199	951337	37528	106058	0	0	8199	739116	0	0
2024-04-20 23:58:32			0	34447	0	0	0	16737	15390	152639	27185	951381	37517	106059	0	0	8199	738970	0	0
2024-04-20 23:59:32			0	34452	0	0	0	16729	15380	152639	27237	951347	37538	106056	0	0	8199	738766	0	0
2024-04-21 00:00:32			0	34467	0	0	0	16722	15380	152527	27248	951320	37527	106053	0	0	8200	738037	0	0
2024-04-21 00:01:32			0	34465	0	0	0	16727	15380	152547	27364	951259	37515	106055	0	0	8200	738134	0	0
2024-04-21 00:02:32			0	34459	0	0	0	16722	15380	152527	27376	951286	37526	106053	0	0	8200	738426	0	0
2024-04-21 00:03:32			0	34472	0	0	0	16724	15380	152519	27511	951286	37515	106054	0	0	8201	737794	0	0
2024-04-21 00:04:32			0	34464	0	0	0	16709	15370	152527	27415	951304	37526	106048	0	0	8200	738222	0	0
2024-04-21 00:05:32			0	34466	0	0	0	16719	15390	152567	27383	951302	37506	106052	0	0	8200	738046	0	0
2024-04-21 00:06:32			0	34461	0	0	0	16724	15360	152491	27679	951253	37514	106054	0	0	8200	738408	0	0
2024-04-21 00:07:32			0	34482	0	0	0	16716	15370	152467	27274	951251	37515	106051	0	0	8201	737347	0	0
2024-04-21 00:08:32			0	34495	0	0	0	16719	15380	152479	27391	951286	37515	106052	0	0	8202	736676	0	0
2024-04-21 00:09:32			0	34454	0	0	0	16716	15370	152495	27268	951296	37526	106051	0	0	8200	738709	0	0
2024-04-21 00:10:32			0	34487	0	0	0	16711	15370	152443	27441	951251	37515	106049	0	0	8202	737104	0	0
2024-04-21 00:11:32			0	34488	0	0	0	16709	15370	152491	27215	951269	37515	106048	0	0	8202	737056	0	0
2024-04-21 00:12:32			0	34494	0	0	0	16714	15370	152447	27412	951296	37526	106050	0	0	8202	736764	0	0
2024-04-21 00:13:32			0	34483	0	0	0	16709	15370	152571	27524	951251	37504	106048	0	0	8201	737298	0	0
2024-04-21 00:14:32			0	34482	0	0	0	16706	15370	152527	27417	951269	37526	106047	0	0	8201	737347	0	0
2024-04-21 00:15:32			0	34478	0	0	0	16706	15360	152379	27287	951261	37537	106047	0	0	8201	737581	0	0
2024-04-21 00:16:32			0	34496	0	0	0	16706	15360	152443	27267	951209	37526	106047	0	0	8202	736707	0	0
2024-04-21 00:17:32			0	34486	0	0	0	16706	15370	152411	27287	951191	37515	106047	0	0	8202	737153	0	0
2024-04-21 00:18:32			0	34481	0	0	0	16701	15360	152459	27255	951261	37526	106045	0	0	8201	737435	0	0
2024-04-21 00:19:32			0	34505	0	0	0	16696	15360	152419	27275	951253	37525	106043	0	0	8203	736270	0	0
2024-04-21 00:20:32			0	34495	0	0	0	16696	15350	152495	27211	951211	37535	106043	0	0	8202	736795	0	0
2024-04-21 00:21:32			0	34492	0	0	0	16696	15360	152363	27268	951201	37536	106043	0	0	8202	736901	0	0
2024-04-21 00:22:32			0	34503	0	0	0	16690	15360	152407	27112	951227	37514	106041	0	0	8203	736367	0	0
2024-04-21 00:23:32			0	34487	0	0	0	16693	15340	152359	27301	951229	37535	106042	0	0	8202	737223	0	0
2024-04-21 00:24:32			0	34498	0	0	0	16693	15350	152431	26861	951166	37513	106042	0	0	8202	736649	0	0
2024-04-21 00:25:32			0	34495	0	0	0	16698	15340	152523	27201	951150	37513	106044	0	0	8202	736835	0	0
2024-04-21 00:26:32			0	34478	0	0	0	16690	15340	152455	27157	951116	37512	106041	0	0	8201	737661	0	0
2024-04-21 00:27:32			0	34489	0	0	0	16690	15350	152527	27213	951211	37524	106041	0	0	8202	737086	0	0
2024-04-21 00:28:32			0	34489	0	0	0	16690	15360	152519	27305	951227	37514	106041	0	0	8202	737047	0	0
2024-04-21 00:29:32			0	34485	0	0	0	16685	15350	152583	27307	951158	37513	106039	0	0	8202	737281	0	0
2024-04-21 00:30:32			0	34476	0	0	0	16670	15350	152575	27447	951132	37513	106033	0	0	8202	737718	0	0
2024-04-21 00:31:32			0	34461	0	0	0	16672	15340	152515	27090	951124	37524	106034	0	0	8201	738487	0	0
2024-04-21 00:32:32			0	34470	0	0	0	16677	15340	152555	27092	951124	37524	106036	0	0	8201	738049	0	0
2024-04-21 00:33:32			0	34449	0	0	0	16670	15330	152523	27312	951099	37511	106033	0	0	8200	739111	0	0
2024-04-21 00:34:32			0	34453	0	0	0	16680	15340	152655	27616	951142	37512	106037	0	0	8200	738877	0	0
2024-04-21 00:35:32			0	34462	0	0	0	16672	15340	152671	27039	951089	37534	106034	0	0	8201	738439	0	0
2024-04-21 00:36:32			0	34445	0	0	0	16659	15320	152699	27267	951091	37511	106029	0	0	8200	739346	0	0
2024-04-21 00:37:32			0	34449	0	0	0	16672	15330	152723	27123	951073	37522	106034	0	0	8200	739111	0	0
2024-04-21 00:38:32			0	34449	0	0	0	16667	15330	152663	27005	951134	37511	106032	0	0	8200	739111	0	0
2024-04-21 00:39:32			0	34459	0	0	0	16670	15320	152691	27294	951065	37522	106033	0	0	8200	738664	0	0
2024-04-21 00:40:32			0	34447	0	0	0	16664	15330	152735	27275	951073	37522	106031	0	0	8200	739208	0	0
2024-04-21 00:41:32			0	34452	0	0	0	16654	15320	152759	27346	951118	37500	106027	0	0	8200	739005	0	0
2024-04-21 00:42:32			0	34440	0	0	0	16664	15310	152771	27225	951075	37521	106031	0	0	8199	739629	0	0
2024-04-21 00:43:32			0	34429	0	0	0	16667	15320	152659	27272	951091	37522	106032	0	0	8199	740125	0	0
2024-04-21 00:44:32			0	34422	0	0	0	16667	15320	152787	27150	951065	37544	106032	0	0	8198	740466	0	0
2024-04-21 00:45:32			0	34433	0	0	0	16675	15320	152843	27194	951118	37511	106035	0	0	8199	739930	0	0
2024-04-21 00:46:32			0	34431	0	0	0	16659	15330	152619	27104	951152	37500	106029	0	0	8199	739988	0	0
2024-04-21 00:47:32			0	34422	0	0	0	16670	15310	152751	27225	951101	37510	106033	0	0	8198	740506	0	0
2024-04-21 00:48:32			0	34422	0	0	0	16664	15310	152671	27249	951067	37521	106031	0	0	8198	740506	0	0
2024-04-21 00:49:32			0	34414	0	0	0	16657	15310	152763	27086	951022	37510	106028	0	0	8198	740896	0	0
2024-04-21 00:50:32			0	34417	0	0	0	16657	15320	152811	27090	951170	37522	106028	0	0	8198	740710	0	0
2024-04-21 00:51:32			0	34417	0	0	0	16651	15310	152803	27007	951067	37510	106026	0	0	8198	740750	0	0
2024-04-21 00:52:32			0	34418	0	0	0	16649	15320	152683	27362	951057	37510	106025	0	0	8198	740661	0	0
2024-04-21 00:53:32			0	34416	0	0	0	16651	15310	152751	27481	950988	37532	106026	0	0	8198	740799	0	0
2024-04-21 00:54:32			0	34431	0	0	0	16649	15310	152655	27466	951022	37521	106025	0	0	8199	740067	0	0
2024-04-21 00:55:32			0	34436	0	0	0	16654	15310	152695	27369	951067	37510	106027	0	0	8199	739824	0	0
2024-04-21 00:56:32			0	34448	0	0	0	16651	15300	152687	27279	951059	37510	106026	0	0	8200	739279	0	0
2024-04-21 00:57:32			0	34440	0	0	0	16657	15310	152603	27300	951041	37510	106028	0	0	8200	739629	0	0
2024-04-21 00:58:32			0	34428	0	0	0	16651	15310	152591	27464	951022	37521	106026	0	0	8199	740213	0	0
2024-04-21 00:59:32			0	34446	0	0	0	16657	15300	152683	27407	951059	37521	106028	0	0	8200	739376	0	0
2024-04-21 01:00:32			0	34434	0	0	0	16659	15300	152571	27540	950980	37521	106029	0	0	8199	739961	0	0
2024-04-21 01:01:32			0	34448	0	0	0	16654	15300	152543	27434	951033	37521	106027	0	0	8200	739279	0	0
2024-04-21 01:02:32			0	34454	0	0	0	16646	15310	152583	27052	951014	37521	106024	0	0	8201	738947	0	0
2024-04-21 01:03:32			0	34440	0	0	0	16641	15280	152603	27557	950982	37507	106022	0	0	8200	739748	0	0
2024-04-21 01:04:32			0	34455	0	0	0	16636	15310	152631	27416	950988	37510	106020	0	0	8201	738898	0	0
2024-04-21 01:05:32			0	34434	0	0	0	16649	15300	152579	27668	950980	37521	106025	0	0	8199	739961	0	0
2024-04-21 01:06:32			0	34447	0	0	0	16638	15300	152599	27298	951006	37510	106021	0	0	8200	739328	0	0
2024-04-21 01:07:32			0	34445	0	0	0	16644	15300	152551	27350	951059	37521	106023	0	0	8200	739425	0	0
2024-04-21 01:08:32			0	34454	0	0	0	16646	15300	152615	27270	950998	37509	106024	0	0	8200	738987	0	0
2024-04-21 01:09:32			0	34461	0	0	0	16641	15300	152667	27306	950998	37509	106022	0	0	8201	738646	0	0
2024-04-21 01:10:32			0	34470	0	0	0	16641	15300	152523	27256	951051	37509	106022	0	0	8201	738208	0	0
2024-04-21 01:11:32			0	34466	0	0	0	16644	15300	152531	27516	951024	37520	106023	0	0	8201	738403	0	0
2024-04-21 01:12:32			0	34449	0	0	0	16636	15300	152531	27313	950972	37520	106020	0	0	8200	739230	0	0
2024-04-21 01:13:32			0	34467	0	0	0	16638	15310	152539	27135	951014	37521	106021	0	0	8201	738314	0	0
2024-04-21 01:14:32			0	34466	0	0	0	16644	15290	152439	27244	950990	37519	106023	0	0	8201	738442	0	0
2024-04-21 01:15:32			0	34462	0	0	0	16646	15290	152467	27452	950990	37508	106024	0	0	8201	738637	0	0
2024-04-21 01:16:32			0	34464	0	0	0	16649	15290	152571	27460	950964	37519	106025	0	0	8201	738540	0	0
2024-04-21 01:17:32			0	34460	0	0	0	16646	15290	152611	27552	950990	37519	106024	0	0	8201	738734	0	0
2024-04-21 01:18:32			0	34468	0	0	0	16638	15290	152435	27395	951016	37508	106021	0	0	8201	738345	0	0
2024-04-21 01:19:32			0	34450	0	0	0	16633	15290	152595	27263	950990	37508	106019	0	0	8200	739221	0	0
2024-04-21 01:20:32			0	34473	0	0	0	16641	15290	152483	27277	951016	37519	106022	0	0	8202	738102	0	0
2024-04-21 01:21:32			0	34471	0	0	0	16638	15290	152535	27218	950990	37508	106021	0	0	8202	738199	0	0
2024-04-21 01:22:32			0	34475	0	0	0	16641	15290	152567	27317	951016	37508	106022	0	0	8202	738005	0	0
2024-04-21 01:23:32			0	34471	0	0	0	16638	15290	152459	27370	951016	37508	106021	0	0	8202	738199	0	0
2024-04-21 01:24:32			0	34463	0	0	0	16631	15280	152463	27358	950956	37529	106018	0	0	8201	738628	0	0
2024-04-21 01:25:32			0	34467	0	0	0	16633	15290	152443	27457	950990	37530	106019	0	0	8201	738394	0	0
2024-04-21 01:26:32			0	34465	0	0	0	16636	15280	152487	27284	950956	37507	106020	0	0	8201	738531	0	0
2024-04-21 01:27:32			0	34459	0	0	0	16623	15280	152431	27763	951000	37507	106015	0	0	8201	738823	0	0
2024-04-21 01:28:32			0	34463	0	0	0	16628	15280	152375	27338	950956	37507	106017	0	0	8201	738628	0	0
2024-04-21 01:29:32			0	34491	0	0	0	16620	15280	152327	27410	951000	37507	106014	0	0	8203	737266	0	0
2024-04-21 01:30:32			0	34492	0	0	0	16625	15280	152291	27317	950982	37507	106016	0	0	8203	737218	0	0
2024-04-21 01:31:32			0	34502	0	0	0	16620	15280	152371	27493	950903	37507	106014	0	0	8204	736732	0	0
2024-04-21 01:32:32			0	34517	0	0	0	16623	15280	152255	27372	950956	37518	106015	0	0	8204	736004	0	0
2024-04-21 01:33:32			0	34518	0	0	0	16620	15280	152259	27431	950956	37507	106014	0	0	8204	735955	0	0
2024-04-21 01:34:32			0	34523	0	0	0	16623	15270	152379	27751	950931	37506	106015	0	0	8205	735752	0	0
2024-04-21 01:35:32			0	34522	0	0	0	16615	15270	152255	27260	950939	37507	106012	0	0	8205	735801	0	0
2024-04-21 01:36:32			0	34538	0	0	0	16623	15260	152247	27121	950889	37528	106015	0	0	8205	735064	0	0
2024-04-21 01:37:32			0	34516	0	0	0	16612	15270	152215	27348	950913	37518	106011	0	0	8204	736092	0	0
2024-04-21 01:38:32			0	34528	0	0	0	16615	15270	152187	27383	950913	37518	106012	0	0	8205	735510	0	0
2024-04-21 01:39:32			0	34535	0	0	0	16612	15260	152183	27604	950897	37505	106011	0	0	8205	735210	0	0
2024-04-21 01:40:32			0	34535	0	0	0	16620	15260	152175	27493	950915	37495	106014	0	0	8205	735210	0	0
2024-04-21 01:41:32			0	34545	0	0	0	16615	15260	152219	27357	950915	37516	106012	0	0	8206	734725	0	0
2024-04-21 01:42:32			0	34534	0	0	0	16615	15260	152115	27575	950915	37516	106012	0	0	8205	735258	0	0
2024-04-21 01:43:32			0	34533	0	0	0	16615	15270	152107	27286	950931	37506	106012	0	0	8205	735267	0	0
2024-04-21 01:44:32			0	34554	0	0	0	16615	15260	152123	27128	950915	37505	106012	0	0	8207	734289	0	0
2024-04-21 01:45:32			0	34549	0	0	0	16605	15260	152151	27204	950889	37516	106008	0	0	8206	734531	0	0
2024-04-21 01:46:32			0	34551	0	0	0	16615	15250	152047	27208	950899	37516	106012	0	0	8206	734474	0	0
2024-04-21 01:47:32			0	34555	0	0	0	16605	15260	152023	27296	950862	37505	106008	0	0	8207	734240	0	0
2024-04-21 01:48:32			0	34563	0	0	0	16605	15250	152135	27438	950933	37528	106008	0	0	8207	733892	0	0
2024-04-21 01:49:32			0	34567	0	0	0	16599	15250	152047	27362	950846	37505	106006	0	0	8207	733699	0	0
2024-04-21 01:50:32			0	34561	0	0	0	16607	15250	152019	27015	950846	37516	106009	0	0	8207	733989	0	0
2024-04-21 01:51:32			0	34567	0	0	0	16594	15250	151975	27157	950907	37505	106004	0	0	8208	733699	0	0
2024-04-21 01:52:32			0	34567	0	0	0	16586	15240	152015	27415	950830	37504	106001	0	0	8208	733738	0	0
2024-04-21 01:53:32			0	34582	0	0	0	16594	15240	151995	27012	950890	37515	106004	0	0	8208	733012	0	0
2024-04-21 01:54:32			0	34600	0	0	0	16584	15240	151971	27329	950803	37515	106000	0	0	8210	732142	0	0
2024-04-21 01:55:32			0	34585	0	0	0	16586	15240	152023	27654	950830	37504	106001	0	0	8209	732867	0	0
2024-04-21 01:56:32			0	34582	0	0	0	16592	15230	151947	27272	950795	37526	106003	0	0	8208	733051	0	0
2024-04-21 01:57:32			0	34608	0	0	0	16581	15240	151931	27685	950830	37515	105999	0	0	8210	731755	0	0
2024-04-21 01:58:32			0	34620	0	0	0	16586	15250	151891	27277	950872	37516	106001	0	0	8211	731136	0	0
2024-04-21 01:59:32			0	34598	0	0	0	16579	15240	151995	27241	950803	37504	105998	0	0	8210	732238	0	0
2024-04-21 02:00:32			0	34586	0	0	0	16584	15230	151963	27498	950769	37515	106000	0	0	8209	732858	0	0
2024-04-21 02:01:32			0	34593	0	0	0	16581	15230	151915	27284	950822	37494	105999	0	0	8209	732519	0	0
2024-04-21 02:02:32			0	34602	0	0	0	16579	15240	151923	27369	950830	37515	105998	0	0	8210	732045	0	0
2024-04-21 02:03:32			0	34590	0	0	0	16584	15220	151931	27476	950753	37513	106000	0	0	8209	732704	0	0
2024-04-21 02:04:32			0	34584	0	0	0	16576	15220	151903	27703	950779	37502	105997	0	0	8209	732994	0	0
2024-04-21 02:05:32			0	34602	0	0	0	16579	15230	151967	27578	950814	37514	105998	0	0	8210	732084	0	0
2024-04-21 02:06:32			0	34597	0	0	0	16571	15230	151939	27204	950735	37493	105995	0	0	8210	732326	0	0
2024-04-21 02:07:32			0	34575	0	0	0	16579	15220	151915	27277	950771	37501	105998	0	0	8208	733430	0	0
2024-04-21 02:08:32			0	34597	0	0	0	16571	15220	151887	27576	950727	37513	105995	0	0	8210	732365	0	0
2024-04-21 02:09:32			0	34591	0	0	0	16579	15230	151883	27514	950795	37526	105998	0	0	8209	732616	0	0
2024-04-21 02:10:32			0	34594	0	0	0	16568	15220	151991	27393	950745	37501	105994	0	0	8209	732510	0	0
2024-04-21 02:11:32			0	34585	0	0	0	16566	15230	151991	27483	950708	37503	105993	0	0	8209	732906	0	0
2024-04-21 02:12:32			0	34575	0	0	0	16568	15220	151963	27519	950727	37502	105994	0	0	8208	733430	0	0
2024-04-21 02:13:32			0	34575	0	0	0	16568	15210	151979	27436	950710	37501	105994	0	0	8208	733469	0	0
2024-04-21 02:14:32			0	34571	0	0	0	16563	15220	151987	27322	950753	37502	105992	0	0	8208	733623	0	0
2024-04-21 02:15:32			0	34559	0	0	0	16563	15220	152067	27514	950666	37491	105992	0	0	8207	734205	0	0
2024-04-21 02:16:32			0	34556	0	0	0	16550	15220	152059	27498	950666	37501	105987	0	0	8208	734350	0	0
2024-04-21 02:17:32			0	34549	0	0	0	16555	15220	152107	27443	950692	37501	105989	0	0	8207	734689	0	0
2024-04-21 02:18:32			0	34543	0	0	0	16555	15220	152067	27566	950692	37501	105989	0	0	8207	734980	0	0
2024-04-21 02:19:32			0	34545	0	0	0	16553	15200	152067	27524	950720	37490	105988	0	0	8207	734962	0	0
2024-04-21 02:20:32			0	34536	0	0	0	16545	15210	152151	27086	950710	37501	105985	0	0	8206	735359	0	0
2024-04-21 02:21:32			0	34537	0	0	0	16545	15200	152139	27705	950694	37512	105985	0	0	8206	735350	0	0
2024-04-21 02:22:32			0	34520	0	0	0	16553	15210	152135	27486	950710	37501	105988	0	0	8205	736135	0	0
2024-04-21 02:23:32			0	34532	0	0	0	16555	15210	152187	27705	950676	37491	105989	0	0	8206	735553	0	0
2024-04-21 02:24:32			0	34517	0	0	0	16553	15210	152251	27235	950676	37501	105988	0	0	8205	736281	0	0
2024-04-21 02:25:32			0	34526	0	0	0	16563	15200	152223	27543	950686	37500	105992	0	0	8206	735883	0	0
2024-04-21 02:26:32			0	34514	0	0	0	16566	15200	152183	27478	950720	37500	105993	0	0	8205	736466	0	0
2024-04-21 02:27:32			0	34516	0	0	0	16566	15200	152219	27675	950747	37500	105993	0	0	8205	736369	0	0
2024-04-21 02:28:32			0	34499	0	0	0	16558	15210	152135	27319	950702	37512	105990	0	0	8204	737155	0	0
2024-04-21 02:29:32			0	34496	0	0	0	16574	15200	152179	27483	950720	37500	105996	0	0	8204	737341	0	0
2024-04-21 02:30:32			0	34493	0	0	0	16558	15210	152195	27665	950676	37512	105990	0	0	8204	737447	0	0
2024-04-21 02:31:32			0	34503	0	0	0	16558	15210	152127	27395	950729	37501	105990	0	0	8204	736961	0	0
2024-04-21 02:32:32			0	34506	0	0	0	16558	15210	152175	27428	950605	37501	105990	0	0	8205	736815	0	0
2024-04-21 02:33:32			0	34495	0	0	0	16555	15200	152203	27258	950694	37500	105989	0	0	8204	737389	0	0
2024-04-21 02:34:32			0	34506	0	0	0	16563	15210	152211	27296	950729	37501	105992	0	0	8204	736815	0	0
2024-04-21 02:35:32			0	34494	0	0	0	16568	15210	152167	27345	950729	37512	105994	0	0	8204	737398	0	0
2024-04-21 02:36:32			0	34499	0	0	0	16566	15210	152207	27369	950763	37523	105993	0	0	8204	737155	0	0
2024-04-21 02:37:32			0	34500	0	0	0	16563	15220	152327	27300	950700	37513	105992	0	0	8204	737067	0	0
2024-04-21 02:38:32			0	34492	0	0	0	16571	15210	152371	27138	950650	37512	105995	0	0	8203	737495	0	0
2024-04-21 02:39:32			0	34483	0	0	0	16561	15210	152291	27319	950702	37501	105991	0	0	8203	737933	0	0
2024-04-21 02:40:32			0	34499	0	0	0	16561	15210	152239	27196	950676	37491	105991	0	0	8204	737155	0	0
2024-04-21 02:41:32			0	34482	0	0	0	16555	15200	152279	27611	950720	37512	105989	0	0	8203	738021	0	0
2024-04-21 02:42:32			0	34476	0	0	0	16558	15210	152411	27511	950702	37501	105990	0	0	8203	738273	0	0
2024-04-21 02:43:32			0	34469	0	0	0	16558	15200	152307	27386	950686	37490	105990	0	0	8202	738654	0	0
2024-04-21 02:44:32			0	34451	0	0	0	16563	15200	152363	27488	950694	37512	105992	0	0	8201	739530	0	0
2024-04-21 02:45:32			0	34447	0	0	0	16558	15190	152479	27393	950678	37511	105990	0	0	8201	739765	0	0
2024-04-21 02:46:32			0	34455	0	0	0	16553	15200	152527	27614	950668	37500	105988	0	0	8202	739335	0	0
2024-04-21 02:47:32			0	34466	0	0	0	16555	15200	152411	27635	950694	37500	105989	0	0	8202	738800	0	0
2024-04-21 02:48:32			0	34450	0	0	0	16553	15200	152395	27633	950747	37534	105988	0	0	8201	739579	0	0
2024-04-21 02:49:32			0	34451	0	0	0	16555	15200	152451	27261	950765	37522	105989	0	0	8201	739530	0	0
2024-04-21 02:50:32			0	34465	0	0	0	16550	15210	152439	27324	950702	37501	105987	0	0	8202	738809	0	0
2024-04-21 02:51:32			0	34467	0	0	0	16545	15210	152479	27455	950650	37535	105985	0	0	8203	738711	0	0
2024-04-21 02:52:32			0	34454	0	0	0	16550	15200	152551	27135	950668	37512	105987	0	0	8202	739384	0	0
2024-04-21 02:53:32			0	34454	0	0	0	16550	15190	152467	27521	950678	37500	105987	0	0	8202	739424	0	0
2024-04-21 02:54:32			0	34459	0	0	0	16545	15200	152407	27346	950686	37500	105985	0	0	8202	739140	0	0
2024-04-21 02:55:32			0	34462	0	0	0	16548	15200	152475	27705	950607	37511	105986	0	0	8202	738994	0	0
2024-04-21 02:56:32			0	34452	0	0	0	16540	15200	152503	27656	950686	37511	105983	0	0	8202	739481	0	0
2024-04-21 02:57:32			0	34438	0	0	0	16550	15180	152491	27235	950662	37510	105987	0	0	8201	740243	0	0
2024-04-21 02:58:32			0	34445	0	0	0	16545	15200	152595	27571	950712	37511	105985	0	0	8201	739822	0	0
2024-04-21 02:59:32			0	34442	0	0	0	16550	15200	152519	27486	950739	37511	105987	0	0	8201	739969	0	0
2024-04-21 03:00:32			0	34448	0	0	0	16548	15190	152467	27235	950591	37511	105986	0	0	8201	739716	0	0
2024-04-21 03:01:32			0	34445	0	0	0	16553	15200	152503	27161	950720	37523	105988	0	0	8201	739822	0	0
2024-04-21 03:02:32			0	34448	0	0	0	16553	15200	152519	27578	950660	37500	105988	0	0	8201	739676	0	0
2024-04-21 03:03:32			0	34433	0	0	0	16555	15190	152439	27159	950704	37511	105989	0	0	8200	740447	0	0
2024-04-21 03:04:32			0	34435	0	0	0	16555	15200	152487	27396	950686	37511	105989	0	0	8200	740310	0	0
2024-04-21 03:05:32			0	34431	0	0	0	16553	15190	152503	27479	950652	37500	105988	0	0	8200	740545	0	0
2024-04-21 03:06:32			0	34447	0	0	0	16542	15190	152555	27538	950599	37500	105984	0	0	8201	739765	0	0
2024-04-21 03:07:32			0	34422	0	0	0	16548	15190	152499	27263	950652	37511	105986	0	0	8200	740984	0	0
2024-04-21 03:08:32			0	34458	0	0	0	16553	15200	152539	27211	950739	37522	105988	0	0	8202	739189	0	0
2024-04-21 03:09:32			0	34422	0	0	0	16555	15200	152515	27130	950633	37500	105989	0	0	8200	740944	0	0
2024-04-21 03:10:32			0	34432	0	0	0	16550	15200	152543	27441	950765	37511	105987	0	0	8200	740456	0	0
2024-04-21 03:11:32			0	34435	0	0	0	16553	15200	152515	26989	950633	37511	105988	0	0	8200	740310	0	0
2024-04-21 03:12:32			0	34430	0	0	0	16553	15200	152455	27237	950720	37500	105988	0	0	8200	740554	0	0
2024-04-21 03:13:32			0	34428	0	0	0	16548	15190	152547	27329	950644	37511	105986	0	0	8200	740691	0	0
2024-04-21 03:14:32			0	34435	0	0	0	16535	15190	152563	27582	950625	37511	105981	0	0	8201	740350	0	0
2024-04-21 03:15:32			0	34448	0	0	0	16540	15190	152523	27322	950696	37500	105983	0	0	8201	739716	0	0
2024-04-21 03:16:32			0	34430	0	0	0	16540	15200	152507	27390	950686	37511	105983	0	0	8200	740554	0	0
2024-04-21 03:17:32			0	34439	0	0	0	16540	15190	152503	27154	950625	37490	105983	0	0	8201	740155	0	0
2024-04-21 03:18:32			0	34434	0	0	0	16529	15190	152439	27274	950696	37500	105979	0	0	8201	740398	0	0
2024-04-21 03:19:32			0	34445	0	0	0	16527	15190	152471	27488	950678	37511	105978	0	0	8201	739862	0	0
2024-04-21 03:20:32			0	34445	0	0	0	16535	15190	152527	27379	950625	37522	105981	0	0	8201	739862	0	0
2024-04-21 03:21:32			0	34441	0	0	0	16532	15180	152467	27518	950680	37499	105980	0	0	8201	740097	0	0
2024-04-21 03:22:32			0	34446	0	0	0	16529	15190	152439	27507	950625	37511	105979	0	0	8201	739813	0	0
2024-04-21 03:23:32			0	34439	0	0	0	16524	15190	152491	27467	950652	37522	105977	0	0	8201	740155	0	0
2024-04-21 03:24:32			0	34416	0	0	0	16519	15190	152551	27268	950617	37511	105975	0	0	8200	741276	0	0
2024-04-21 03:25:32			0	34431	0	0	0	16514	15180	152495	27322	950601	37499	105973	0	0	8201	740584	0	0
2024-04-21 03:26:32			0	34440	0	0	0	16509	15180	152559	27393	950583	37510	105971	0	0	8201	740146	0	0
2024-04-21 03:27:32			0	34438	0	0	0	16516	15170	152479	27531	950540	37488	105974	0	0	8201	740283	0	0
2024-04-21 03:28:32			0	34426	0	0	0	16516	15180	152575	27256	950583	37489	105974	0	0	8201	740828	0	0
2024-04-21 03:29:32			0	34432	0	0	0	16519	15180	152563	27331	950575	37499	105975	0	0	8201	740536	0	0
2024-04-21 03:30:32			0	34428	0	0	0	16522	15180	152503	27310	950627	37520	105976	0	0	8201	740731	0	0
2024-04-21 03:31:32			0	34435	0	0	0	16511	15170	152619	27412	950558	37499	105972	0	0	8201	740429	0	0
2024-04-21 03:32:32			0	34414	0	0	0	16509	15170	152555	27261	950567	37509	105971	0	0	8200	741454	0	0
2024-04-21 03:33:32			0	34422	0	0	0	16514	15170	152579	27493	950619	37499	105973	0	0	8200	741063	0	0
2024-04-21 03:34:32			0	34407	0	0	0	16514	15170	152675	27286	950567	37509	105973	0	0	8199	741795	0	0
2024-04-21 03:35:32			0	34410	0	0	0	16506	15170	152671	27291	950611	37509	105970	0	0	8200	741649	0	0
2024-04-21 03:36:32			0	34406	0	0	0	16511	15170	152691	27457	950567	37499	105972	0	0	8199	741844	0	0
2024-04-21 03:37:32			0	34413	0	0	0	16516	15170	152679	27178	950558	37520	105974	0	0	8200	741503	0	0
2024-04-21 03:38:32			0	34395	0	0	0	16514	15170	152739	27440	950558	37499	105973	0	0	8199	742382	0	0
2024-04-21 03:39:32			0	34408	0	0	0	16503	15170	152723	27279	950585	37509	105969	0	0	8200	741747	0	0
2024-04-21 03:40:32			0	34400	0	0	0	16519	15170	152707	27298	950558	37520	105975	0	0	8199	742137	0	0
2024-04-21 03:41:32			0	34393	0	0	0	16514	15170	152695	27353	950585	37509	105973	0	0	8199	742479	0	0
2024-04-21 03:42:32			0	34395	0	0	0	16511	15160	152847	27390	950524	37508	105972	0	0	8199	742421	0	0
2024-04-21 03:43:32			0	34388	0	0	0	16516	15160	152815	27320	950595	37507	105974	0	0	8198	742763	0	0
2024-04-21 03:44:32			0	34368	0	0	0	16519	15170	152811	27365	950611	37509	105975	0	0	8197	743702	0	0
2024-04-21 03:45:32			0	34377	0	0	0	16529	15160	152799	27486	950516	37518	105979	0	0	8197	743301	0	0
2024-04-21 03:46:32			0	34379	0	0	0	16522	15170	152783	27338	950637	37520	105976	0	0	8198	743164	0	0
2024-04-21 03:47:32			0	34362	0	0	0	16519	15160	152767	27246	950550	37487	105975	0	0	8197	744035	0	0
2024-04-21 03:48:32			0	34364	0	0	0	16498	15160	152767	27562	950629	37498	105967	0	0	8197	743938	0	0
2024-04-21 03:49:32			0	34362	0	0	0	16506	15160	152799	27201	950490	37530	105970	0	0	8197	744035	0	0
2024-04-21 03:50:32			0	34349	0	0	0	16519	15160	152795	27485	950550	37508	105975	0	0	8196	744672	0	0
2024-04-21 03:51:32			0	34352	0	0	0	16516	15160	152943	27360	950569	37507	105974	0	0	8196	744525	0	0
2024-04-21 03:52:32			0	34358	0	0	0	16519	15170	152819	27398	950532	37499	105975	0	0	8197	744191	0	0
2024-04-21 03:53:32			0	34356	0	0	0	16519	15170	152871	27481	950540	37520	105975	0	0	8196	744289	0	0
2024-04-21 03:54:32			0	34349	0	0	0	16522	15170	152958	27374	950540	37499	105976	0	0	8196	744632	0	0
2024-04-21 03:55:32			0	34342	0	0	0	16514	15170	152894	27476	950619	37499	105973	0	0	8196	744975	0	0
2024-04-21 03:56:32			0	34365	0	0	0	16514	15160	152903	27563	950550	37508	105973	0	0	8197	743888	0	0
2024-04-21 03:57:32			0	34347	0	0	0	16509	15160	152898	27222	950524	37498	105971	0	0	8196	744770	0	0
2024-04-21 03:58:32			0	34326	0	0	0	16509	15160	152986	27431	950542	37507	105971	0	0	8195	745799	0	0
2024-04-21 03:59:32			0	34345	0	0	0	16506	15170	152951	27230	950532	37499	105970	0	0	8196	744828	0	0
2024-04-21 04:00:32			0	34332	0	0	0	16501	15160	152950	27166	950550	37508	105968	0	0	8195	745505	0	0
2024-04-21 04:01:32			0	34329	0	0	0	16498	15160	152994	27339	950542	37497	105967	0	0	8195	745652	0	0
2024-04-21 04:02:32			0	34324	0	0	0	16496	15160	152982	27149	950498	37508	105966	0	0	8195	745897	0	0
2024-04-21 04:03:32			0	34319	0	0	0	16509	15160	153110	27403	950490	37507	105971	0	0	8194	746142	0	0
2024-04-21 04:04:32			0	34322	0	0	0	16506	15150	153150	27390	950500	37507	105970	0	0	8195	746035	0	0
2024-04-21 04:05:32			0	34308	0	0	0	16514	15160	153118	27516	950524	37508	105973	0	0	8194	746682	0	0
2024-04-21 04:06:32			0	34285	0	0	0	16509	15160	153162	27488	950577	37508	105971	0	0	8192	747812	0	0
2024-04-21 04:07:32			0	34295	0	0	0	16516	15160	153118	27424	950542	37507	105974	0	0	8193	747320	0	0
2024-04-21 04:08:32			0	34266	0	0	0	16516	15160	153294	27133	950569	37507	105974	0	0	8191	748746	0	0
2024-04-21 04:09:32			0	34281	0	0	0	16511	15160	153210	27447	950577	37508	105972	0	0	8192	748008	0	0
2024-04-21 04:10:32			0	34273	0	0	0	16506	15160	153226	27438	950524	37498	105970	0	0	8192	748401	0	0
2024-04-21 04:11:32			0	34266	0	0	0	16503	15170	153274	27497	950558	37499	105969	0	0	8191	748706	0	0
2024-04-21 04:12:32			0	34255	0	0	0	16506	15160	153222	27416	950577	37508	105970	0	0	8191	749287	0	0
2024-04-21 04:13:32			0	34261	0	0	0	16511	15160	153366	27033	950490	37507	105972	0	0	8191	748992	0	0
2024-04-21 04:14:32			0	34274	0	0	0	16506	15160	153266	27286	950542	37507	105970	0	0	8192	748352	0	0
2024-04-21 04:15:32			0	34265	0	0	0	16503	15150	153318	27182	950534	37507	105969	0	0	8191	748835	0	0
2024-04-21 04:16:32			0	34232	0	0	0	16514	15150	153274	27072	950534	37507	105973	0	0	8189	750460	0	0
2024-04-21 04:17:32			0	34250	0	0	0	16514	15150	153274	27199	950579	37496	105973	0	0	8190	749573	0	0
2024-04-21 04:18:32			0	34239	0	0	0	16506	15150	153326	27199	950561	37507	105970	0	0	8190	750115	0	0
2024-04-21 04:19:32			0	34243	0	0	0	16498	15150	153378	27630	950534	37518	105967	0	0	8190	749918	0	0
2024-04-21 04:20:32			0	34247	0	0	0	16511	15150	153362	27526	950587	37518	105972	0	0	8190	749721	0	0
2024-04-21 04:21:32			0	34241	0	0	0	16511	15150	153502	27277	950587	37507	105972	0	0	8190	750016	0	0
2024-04-21 04:22:32			0	34244	0	0	0	16506	15160	153498	27234	950516	37518	105970	0	0	8190	749828	0	0
2024-04-21 04:23:32			0	34217	0	0	0	16516	15160	153442	27445	950516	37530	105974	0	0	8188	751159	0	0
2024-04-21 04:24:32			0	34228	0	0	0	16514	15150	153506	27301	950534	37518	105973	0	0	8189	750657	0	0
2024-04-21 04:25:32			0	34224	0	0	0	16519	15160	153554	27039	950569	37518	105975	0	0	8189	750814	0	0
2024-04-21 04:26:32			0	34222	0	0	0	16519	15160	153542	27564	950569	37486	105975	0	0	8189	750912	0	0
2024-04-21 04:27:32			0	34220	0	0	0	16511	15160	153542	27229	950595	37507	105972	0	0	8189	751011	0	0
2024-04-21 04:28:32			0	34219	0	0	0	16511	15150	153518	27339	950482	37507	105972	0	0	8189	751101	0	0
2024-04-21 04:29:32			0	34217	0	0	0	16519	15160	153566	27307	950516	37507	105975	0	0	8188	751159	0	0
2024-04-21 04:30:32			0	34203	0	0	0	16519	15160	153638	27206	950524	37508	105975	0	0	8188	751850	0	0
2024-04-21 04:31:32			0	34217	0	0	0	16516	15170	153606	27384	950567	37509	105974	0	0	8188	751119	0	0
2024-04-21 04:32:32			0	34193	0	0	0	16511	15160	153542	27159	950524	37498	105972	0	0	8187	752343	0	0
2024-04-21 04:33:32			0	34208	0	0	0	16509	15160	153650	27220	950516	37497	105971	0	0	8188	751603	0	0
2024-04-21 04:34:32			0	34206	0	0	0	16509	15160	153594	27284	950577	37508	105971	0	0	8188	751701	0	0
2024-04-21 04:35:32			0	34204	0	0	0	16506	15170	153562	27371	950532	37509	105970	0	0	8188	751760	0	0
2024-04-21 04:36:32			0	34189	0	0	0	16509	15150	153630	27557	950534	37496	105971	0	0	8187	752581	0	0
2024-04-21 04:37:32			0	34198	0	0	0	16511	15160	153626	27291	950595	37518	105972	0	0	8187	752096	0	0
2024-04-21 04:38:32			0	34181	0	0	0	16522	15150	153666	27062	950534	37518	105976	0	0	8186	752976	0	0
2024-04-21 04:39:32			0	34192	0	0	0	16514	15160	153746	27533	950550	37508	105973	0	0	8187	752392	0	0
2024-04-21 04:40:32			0	34191	0	0	0	16514	15150	153698	27104	950587	37507	105973	0	0	8187	752482	0	0
2024-04-21 04:41:32			0	34182	0	0	0	16509	15160	153718	27279	950569	37497	105971	0	0	8187	752886	0	0
2024-04-21 04:42:32			0	34179	0	0	0	16522	15160	153746	27317	950550	37519	105976	0	0	8186	753035	0	0
2024-04-21 04:43:32			0	34186	0	0	0	16522	15160	153650	27429	950550	37508	105976	0	0	8187	752689	0	0
2024-04-21 04:44:32			0	34173	0	0	0	16519	15150	153826	27386	950561	37518	105975	0	0	8186	753372	0	0
2024-04-21 04:45:32			0	34177	0	0	0	16511	15150	153758	27758	950508	37507	105972	0	0	8186	753174	0	0
2024-04-21 04:46:32			0	34188	0	0	0	16516	15160	153762	27133	950577	37508	105974	0	0	8187	752590	0	0
2024-04-21 04:47:32			0	34174	0	0	0	16506	15160	153854	27263	950577	37508	105970	0	0	8186	753282	0	0
2024-04-21 04:48:32			0	34178	0	0	0	16522	15160	153774	27393	950542	37507	105976	0	0	8186	753084	0	0
2024-04-21 04:49:32			0	34155	0	0	0	16519	15170	153790	27150	950506	37509	105975	0	0	8185	754181	0	0
2024-04-21 04:50:32			0	34165	0	0	0	16511	15150	153714	27157	950534	37507	105972	0	0	8185	753767	0	0
2024-04-21 04:51:32			0	34169	0	0	0	16514	15160	153794	27445	950595	37507	105973	0	0	8186	753529	0	0
2024-04-21 04:52:32			0	34172	0	0	0	16511	15150	153694	27429	950579	37507	105972	0	0	8186	753421	0	0
2024-04-21 04:53:32			0	34161	0	0	0	16506	15160	153714	27060	950550	37498	105970	0	0	8185	753924	0	0
2024-04-21 04:54:32			0	34171	0	0	0	16501	15160	153782	27197	950542	37507	105968	0	0	8186	753430	0	0
2024-04-21 04:55:32			0	34151	0	0	0	16501	15150	153658	27227	950534	37496	105968	0	0	8185	754459	0	0
2024-04-21 04:56:32			0	34170	0	0	0	16501	15150	153706	27306	950508	37485	105968	0	0	8186	753520	0	0
2024-04-21 04:57:32			0	34155	0	0	0	16496	15160	153718	27041	950595	37518	105966	0	0	8185	754221	0	0
2024-04-21 04:58:32			0	34147	0	0	0	16506	15150	153658	27390	950473	37507	105970	0	0	8184	754658	0	0
2024-04-21 04:59:32			0	34161	0	0	0	16493	15160	153746	27282	950516	37507	105965	0	0	8186	753924	0	0
2024-04-21 05:00:32			0	34155	0	0	0	16506	15150	153726	27391	950508	37518	105970	0	0	8185	754262	0	0
2024-04-21 05:01:32			0	34166	0	0	0	16501	15150	153714	27334	950561	37507	105968	0	0	8186	753718	0	0
2024-04-21 05:02:32			0	34154	0	0	0	16493	15150	153742	27485	950482	37529	105965	0	0	8185	754311	0	0
2024-04-21 05:03:32			0	34156	0	0	0	16501	15150	153838	27235	950455	37496	105968	0	0	8185	754212	0	0
2024-04-21 05:04:32			0	34165	0	0	0	16506	15150	153818	27185	950500	37507	105970	0	0	8186	753767	0	0
2024-04-21 05:05:32			0	34153	0	0	0	16503	15160	153670	27358	950490	37507	105969	0	0	8185	754320	0	0
2024-04-21 05:06:32			0	34158	0	0	0	16498	15160	153754	27039	950569	37507	105967	0	0	8185	754073	0	0
2024-04-21 05:07:32			0	34141	0	0	0	16501	15150	153750	27263	950500	37507	105968	0	0	8184	754955	0	0
2024-04-21 05:08:32			0	34141	0	0	0	16509	15140	153754	27119	950571	37507	105971	0	0	8184	754995	0	0
2024-04-21 05:09:32			0	34142	0	0	0	16509	15160	153866	27300	950516	37518	105971	0	0	8184	754864	0	0
2024-04-21 05:10:32			0	34136	0	0	0	16509	15150	153850	27460	950561	37496	105971	0	0	8184	755202	0	0
2024-04-21 05:11:32			0	34160	0	0	0	16506	15140	153882	27246	950544	37518	105970	0	0	8185	754055	0	0
2024-04-21 05:12:32			0	34137	0	0	0	16516	15160	153902	27228	950516	37507	105974	0	0	8184	755112	0	0
2024-04-21 05:13:32			0	34137	0	0	0	16503	15150	153838	27360	950534	37496	105969	0	0	8184	755153	0	0
2024-04-21 05:14:32			0	34126	0	0	0	16503	15150	153862	27251	950534	37507	105969	0	0	8183	755697	0	0
2024-04-21 05:15:32			0	34135	0	0	0	16496	15160	153914	27175	950542	37497	105966	0	0	8184	755211	0	0
2024-04-21 05:16:32			0	34137	0	0	0	16509	15150	153874	27079	950534	37507	105971	0	0	8184	755153	0	0
2024-04-21 05:17:32			0	34122	0	0	0	16501	15160	154026	27124	950516	37507	105968	0	0	8183	755855	0	0
2024-04-21 05:18:32			0	34158	0	0	0	16509	15150	153822	27377	950526	37518	105971	0	0	8185	754113	0	0
2024-04-21 05:19:32			0	34129	0	0	0	16506	15160	153850	27147	950490	37497	105970	0	0	8183	755508	0	0
2024-04-21 05:20:32			0	34139	0	0	0	16503	15150	153882	27388	950500	37507	105969	0	0	8184	755053	0	0
2024-04-21 05:21:32			0	34144	0	0	0	16496	15140	153854	27076	950571	37507	105966	0	0	8184	754846	0	0
2024-04-21 05:22:32			0	34133	0	0	0	16493	15150	153886	27395	950447	37507	105965	0	0	8184	755351	0	0
2024-04-21 05:23:32			0	34134	0	0	0	16501	15140	153890	27431	950492	37507	105968	0	0	8184	755342	0	0
2024-04-21 05:24:32			0	34128	0	0	0	16498	15160	153894	27341	950516	37507	105967	0	0	8184	755558	0	0
2024-04-21 05:25:32			0	34150	0	0	0	16483	15150	153906	27524	950473	37507	105961	0	0	8185	754509	0	0
2024-04-21 05:26:32			0	34144	0	0	0	16483	15140	153846	27355	950492	37518	105961	0	0	8185	754846	0	0
2024-04-21 05:27:32			0	34150	0	0	0	16480	15150	153834	27421	950473	37507	105960	0	0	8185	754509	0	0
2024-04-21 05:28:32			0	34161	0	0	0	16485	15140	153798	27568	950465	37496	105962	0	0	8186	754005	0	0
2024-04-21 05:29:32			0	34170	0	0	0	16493	15140	153786	27216	950465	37518	105965	0	0	8186	753560	0	0
2024-04-21 05:30:32			0	34163	0	0	0	16483	15150	153762	27098	950500	37507	105961	0	0	8186	753866	0	0
2024-04-21 05:31:32			0	34164	0	0	0	16485	15130	153794	27308	950493	37527	105962	0	0	8186	753897	0	0
2024-04-21 05:32:32			0	34139	0	0	0	16490	15140	153790	27223	950465	37518	105964	0	0	8184	755094	0	0
2024-04-21 05:33:32			0	34173	0	0	0	16496	15130	153822	27031	950502	37505	105966	0	0	8186	753452	0	0
2024-04-21 05:34:32			0	34174	0	0	0	16488	15140	153770	27744	950492	37507	105963	0	0	8186	753363	0	0
2024-04-21 05:35:32			0	34171	0	0	0	16496	15140	153798	27187	950518	37507	105966	0	0	8186	753511	0	0
2024-04-21 05:36:32			0	34180	0	0	0	16509	15140	153778	27213	950518	37529	105971	0	0	8186	753066	0	0
2024-04-21 05:37:32			0	34161	0	0	0	16509	15140	153734	27100	950518	37507	105971	0	0	8185	754005	0	0
2024-04-21 05:38:32			0	34184	0	0	0	16503	15140	153754	27261	950536	37528	105969	0	0	8187	752869	0	0
2024-04-21 05:39:32			0	34159	0	0	0	16506	15150	153742	27341	950508	37507	105970	0	0	8185	754064	0	0
2024-04-21 05:40:32			0	34174	0	0	0	16506	15140	153706	27131	950518	37507	105970	0	0	8186	753363	0	0
2024-04-21 05:41:32			0	34167	0	0	0	16509	15150	153742	27523	950579	37507	105971	0	0	8186	753668	0	0
2024-04-21 05:42:32			0	34176	0	0	0	16514	15150	153794	27396	950526	37518	105973	0	0	8186	753223	0	0
2024-04-21 05:43:32			0	34161	0	0	0	16509	15150	153746	27374	950579	37518	105971	0	0	8185	753965	0	0
2024-04-21 05:44:32			0	34171	0	0	0	16516	15140	153746	27523	950571	37507	105974	0	0	8186	753511	0	0
2024-04-21 05:45:32			0	34161	0	0	0	16516	15150	153806	27402	950587	37518	105974	0	0	8185	753965	0	0
2024-04-21 05:46:32			0	34164	0	0	0	16522	15160	153782	27258	950595	37518	105976	0	0	8185	753776	0	0
2024-04-21 05:47:32			0	34154	0	0	0	16524	15160	153858	27267	950569	37507	105977	0	0	8185	754271	0	0
2024-04-21 05:48:32			0	34140	0	0	0	16532	15160	153846	27261	950550	37508	105980	0	0	8184	754963	0	0
2024-04-21 05:49:32			0	34152	0	0	0	16532	15150	153922	27216	950613	37518	105980	0	0	8184	754410	0	0
2024-04-21 05:50:32			0	34147	0	0	0	16529	15160	153902	27554	950595	37518	105979	0	0	8184	754617	0	0
2024-04-21 05:51:32			0	34145	0	0	0	16522	15170	153934	27263	950637	37509	105976	0	0	8184	754675	0	0
2024-04-21 05:52:32			0	34167	0	0	0	16522	15150	153806	27680	950587	37507	105976	0	0	8185	753668	0	0
2024-04-21 05:53:32			0	34126	0	0	0	16527	15170	153854	27443	950611	37509	105978	0	0	8183	755616	0	0
2024-04-21 05:54:32			0	34142	0	0	0	16532	15160	153918	27583	950603	37508	105980	0	0	8184	754864	0	0
2024-04-21 05:55:32			0	34133	0	0	0	16522	15170	153934	27416	950619	37520	105976	0	0	8183	755269	0	0
2024-04-21 05:56:32			0	34115	0	0	0	16527	15160	153974	27388	950621	37530	105978	0	0	8182	756202	0	0
2024-04-21 05:57:32			0	34121	0	0	0	16537	15160	153958	27062	950656	37508	105982	0	0	8182	755905	0	0
2024-04-21 05:58:32			0	34096	0	0	0	16532	15160	153922	27225	950629	37519	105980	0	0	8181	757144	0	0
2024-04-21 05:59:32			0	34101	0	0	0	16522	15170	153874	27166	950611	37509	105976	0	0	8182	756855	0	0
2024-04-21 06:00:32			0	34108	0	0	0	16519	15170	153942	27376	950585	37520	105975	0	0	8182	756508	0	0
2024-04-21 06:01:32			0	34105	0	0	0	16516	15160	153914	27029	950577	37519	105974	0	0	8182	756698	0	0
2024-04-21 06:02:32			0	34091	0	0	0	16511	15170	153970	27353	950619	37509	105972	0	0	8181	757352	0	0
2024-04-21 06:03:32			0	34111	0	0	0	16511	15160	153994	27440	950603	37508	105972	0	0	8182	756400	0	0
2024-04-21 06:04:32			0	34106	0	0	0	16522	15160	153938	27144	950629	37508	105976	0	0	8182	756648	0	0
2024-04-21 06:05:32			0	34103	0	0	0	16524	15170	153982	27306	950611	37520	105977	0	0	8182	756756	0	0
2024-04-21 06:06:32			0	34094	0	0	0	16522	15170	154094	27182	950593	37520	105976	0	0	8181	757203	0	0
2024-04-21 06:07:32			0	34096	0	0	0	16524	15160	154010	27263	950577	37508	105977	0	0	8181	757144	0	0
2024-04-21 06:08:32			0	34098	0	0	0	16527	15170	153978	27698	950690	37509	105978	0	0	8181	757004	0	0
2024-04-21 06:09:32			0	34102	0	0	0	16529	15160	153954	27547	950656	37519	105979	0	0	8182	756846	0	0
2024-04-21 06:10:32			0	34106	0	0	0	16527	15160	154050	27644	950603	37508	105978	0	0	8182	756648	0	0
2024-04-21 06:11:32			0	34106	0	0	0	16519	15170	154038	27267	950637	37520	105975	0	0	8182	756608	0	0
2024-04-21 06:12:32			0	34126	0	0	0	16527	15170	153978	27306	950611	37509	105978	0	0	8183	755616	0	0
2024-04-21 06:13:32			0	34104	0	0	0	16527	15170	153950	27206	950619	37520	105978	0	0	8182	756707	0	0
2024-04-21 06:14:32			0	34108	0	0	0	16516	15170	153974	27412	950585	37520	105974	0	0	8182	756508	0	0
2024-04-21 06:15:32			0	34105	0	0	0	16514	15170	153954	27268	950619	37509	105973	0	0	8182	756657	0	0
2024-04-21 06:16:32			0	34114	0	0	0	16522	15170	154006	27419	950698	37531	105976	0	0	8182	756211	0	0
2024-04-21 06:17:32			0	34133	0	0	0	16514	15160	154014	27218	950577	37519	105973	0	0	8184	755310	0	0
2024-04-21 06:18:32			0	34124	0	0	0	16516	15170	153910	27407	950619	37509	105974	0	0	8183	755715	0	0
2024-04-21 06:19:32			0	34127	0	0	0	16519	15160	153914	27651	950629	37508	105975	0	0	8183	755607	0	0
2024-04-21 06:20:32			0	34125	0	0	0	16524	15160	153938	27445	950603	37519	105977	0	0	8183	755706	0	0
2024-04-21 06:21:32			0	34123	0	0	0	16514	15160	153970	27293	950648	37530	105973	0	0	8183	755805	0	0
2024-04-21 06:22:32			0	34124	0	0	0	16511	15160	154070	27562	950595	37507	105972	0	0	8183	755756	0	0
2024-04-21 06:23:32			0	34119	0	0	0	16519	15160	153934	27459	950629	37530	105975	0	0	8183	756004	0	0
2024-04-21 06:24:32			0	34123	0	0	0	16519	15180	153870	27171	950601	37509	105975	0	0	8183	755724	0	0
2024-04-21 06:25:32			0	34127	0	0	0	16519	15160	153806	27301	950682	37508	105975	0	0	8183	755607	0	0
2024-04-21 06:26:32			0	34132	0	0	0	16527	15160	153990	27187	950656	37508	105978	0	0	8183	755360	0	0
2024-04-21 06:27:32			0	34132	0	0	0	16522	15170	153878	27180	950619	37531	105976	0	0	8183	755319	0	0
2024-04-21 06:28:32			0	34137	0	0	0	16524	15170	153914	27568	950646	37520	105977	0	0	8184	755071	0	0
2024-04-21 06:29:32			0	34142	0	0	0	16522	15170	153954	27609	950637	37520	105976	0	0	8184	754824	0	0
2024-04-21 06:30:32			0	34131	0	0	0	16532	15170	153966	27322	950611	37509	105980	0	0	8183	755369	0	0
2024-04-21 06:31:32			0	34128	0	0	0	16522	15170	154006	27410	950619	37531	105976	0	0	8183	755517	0	0
2024-04-21 06:32:32			0	34138	0	0	0	16529	15180	153882	27215	950627	37520	105979	0	0	8184	754981	0	0
2024-04-21 06:33:32			0	34115	0	0	0	16532	15170	153890	27223	950716	37531	105980	0	0	8182	756161	0	0
2024-04-21 06:34:32			0	34126	0	0	0	16537	15170	153930	27138	950646	37531	105982	0	0	8183	755616	0	0
2024-04-21 06:35:32			0	34128	0	0	0	16535	15170	153986	27346	950664	37520	105981	0	0	8183	755517	0	0
2024-04-21 06:36:32			0	34137	0	0	0	16535	15180	153938	27251	950680	37520	105981	0	0	8184	755031	0	0
2024-04-21 06:37:32			0	34149	0	0	0	16529	15170	153838	27491	950672	37520	105979	0	0	8184	754478	0	0
2024-04-21 06:38:32			0	34128	0	0	0	16524	15170	153946	27367	950646	37520	105977	0	0	8183	755517	0	0
2024-04-21 06:39:32			0	34142	0	0	0	16532	15160	153906	27326	950656	37530	105980	0	0	8184	754864	0	0
2024-04-21 06:40:32			0	34143	0	0	0	16527	15170	153838	27428	950672	37520	105978	0	0	8184	754774	0	0
2024-04-21 06:41:32			0	34149	0	0	0	16532	15170	153790	27019	950619	37520	105980	0	0	8184	754478	0	0
2024-04-21 06:42:32			0	34144	0	0	0	16527	15180	153790	27351	950609	37521	105978	0	0	8184	754684	0	0
2024-04-21 06:43:32			0	34154	0	0	0	16522	15180	153866	27549	950706	37520	105976	0	0	8185	754190	0	0
2024-04-21 06:44:32			0	34158	0	0	0	16514	15180	153858	27256	950680	37509	105973	0	0	8185	753992	0	0
2024-04-21 06:45:32			0	34149	0	0	0	16514	15170	153714	27235	950698	37520	105973	0	0	8185	754478	0	0
2024-04-21 06:46:32			0	34157	0	0	0	16522	15170	153782	27211	950698	37520	105976	0	0	8185	754082	0	0
2024-04-21 06:47:32			0	34159	0	0	0	16503	15170	153718	27362	950585	37520	105969	0	0	8185	753983	0	0
2024-04-21 06:48:32			0	34173	0	0	0	16509	15160	153722	27455	950603	37519	105971	0	0	8186	753331	0	0
2024-04-21 06:49:32			0	34169	0	0	0	16514	15160	153586	27281	950577	37519	105973	0	0	8186	753529	0	0
2024-04-21 06:50:32			0	34176	0	0	0	16511	15160	153662	27312	950682	37530	105972	0	0	8186	753183	0	0
2024-04-21 06:51:32			0	34172	0	0	0	16511	15160	153614	26953	950621	37507	105972	0	0	8186	753381	0	0
2024-04-21 06:52:32			0	34184	0	0	0	16522	15160	153594	27277	950577	37519	105976	0	0	8186	752788	0	0
2024-04-21 06:53:32			0	34203	0	0	0	16516	15170	153506	27305	950637	37520	105974	0	0	8188	751809	0	0
2024-04-21 06:54:32			0	34208	0	0	0	16514	15170	153554	27452	950585	37520	105973	0	0	8188	751562	0	0
2024-04-21 06:55:32			0	34213	0	0	0	16501	15170	153414	27637	950558	37520	105968	0	0	8188	751316	0	0
2024-04-21 06:56:32			0	34207	0	0	0	16506	15170	153558	27613	950637	37520	105970	0	0	8188	751612	0	0
2024-04-21 06:57:32			0	34208	0	0	0	16509	15170	153558	27248	950619	37509	105971	0	0	8188	751562	0	0
2024-04-21 06:58:32			0	34213	0	0	0	16503	15160	153530	27196	950603	37519	105969	0	0	8188	751356	0	0
2024-04-21 06:59:32			0	34218	0	0	0	16503	15170	153470	27725	950611	37520	105969	0	0	8189	751069	0	0
2024-04-21 07:00:32			0	34222	0	0	0	16509	15150	153482	27616	950561	37529	105971	0	0	8189	750953	0	0
2024-04-21 07:01:32			0	34236	0	0	0	16493	15160	153442	27426	950550	37508	105965	0	0	8190	750222	0	0
2024-04-21 07:02:32			0	34214	0	0	0	16488	15160	153374	27286	950542	37518	105963	0	0	8189	751307	0	0
2024-04-21 07:03:32			0	34220	0	0	0	16490	15160	153458	27464	950569	37518	105964	0	0	8189	751011	0	0
2024-04-21 07:04:32			0	34224	0	0	0	16501	15150	153450	27315	950613	37507	105968	0	0	8189	750854	0	0
2024-04-21 07:05:32			0	34213	0	0	0	16511	15140	153450	27339	950623	37518	105972	0	0	8188	751437	0	0
2024-04-21 07:06:32			0	34210	0	0	0	16511	15150	153482	27367	950561	37507	105972	0	0	8188	751545	0	0
2024-04-21 07:07:32			0	34210	0	0	0	16501	15150	153566	27348	950552	37518	105968	0	0	8188	751545	0	0
2024-04-21 07:08:32			0	34204	0	0	0	16511	15160	153466	27429	950595	37518	105972	0	0	8188	751800	0	0
2024-04-21 07:09:32			0	34216	0	0	0	16519	15140	153550	27549	950544	37529	105975	0	0	8188	751289	0	0
2024-04-21 07:10:32			0	34203	0	0	0	16516	15160	153510	27395	950621	37518	105974	0	0	8188	751850	0	0
2024-04-21 07:11:32			0	34216	0	0	0	16493	15150	153562	27293	950631	37507	105965	0	0	8189	751249	0	0
2024-04-21 07:12:32			0	34199	0	0	0	16501	15150	153578	27215	950587	37518	105968	0	0	8188	752087	0	0
2024-04-21 07:13:32			0	34199	0	0	0	16503	15150	153570	27642	950639	37518	105969	0	0	8188	752087	0	0
2024-04-21 07:14:32			0	34184	0	0	0	16514	15150	153590	27237	950613	37518	105973	0	0	8186	752828	0	0
2024-04-21 07:15:32			0	34180	0	0	0	16509	15160	153562	27550	950603	37519	105971	0	0	8186	752985	0	0
2024-04-21 07:16:32			0	34193	0	0	0	16514	15160	153566	27260	950569	37518	105973	0	0	8187	752343	0	0
2024-04-21 07:17:32			0	34180	0	0	0	16509	15150	153762	27308	950613	37518	105971	0	0	8186	753026	0	0
2024-04-21 07:18:32			0	34180	0	0	0	16511	15150	153706	27131	950587	37518	105972	0	0	8186	753026	0	0
2024-04-21 07:19:32			0	34177	0	0	0	16506	15160	153722	27223	950603	37519	105970	0	0	8186	753134	0	0
2024-04-21 07:20:32			0	34178	0	0	0	16503	15160	153718	27279	950569	37518	105969	0	0	8186	753084	0	0
2024-04-21 07:21:32			0	34164	0	0	0	16509	15160	153750	27464	950621	37530	105971	0	0	8185	753776	0	0
2024-04-21 07:22:32			0	34167	0	0	0	16506	15150	153670	27147	950587	37507	105970	0	0	8186	753668	0	0
2024-04-21 07:23:32			0	34170	0	0	0	16501	15160	153842	27296	950603	37508	105968	0	0	8186	753479	0	0
2024-04-21 07:24:32			0	34146	0	0	0	16506	15150	153690	27535	950639	37507	105970	0	0	8184	754707	0	0
2024-04-21 07:25:32			0	34153	0	0	0	16498	15160	153766	27079	950569	37518	105967	0	0	8185	754320	0	0
2024-04-21 07:26:32			0	34154	0	0	0	16488	15150	153690	27249	950552	37518	105963	0	0	8185	754311	0	0
2024-04-21 07:27:32			0	34145	0	0	0	16490	15160	153738	27486	950569	37507	105964	0	0	8185	754716	0	0
2024-04-21 07:28:32			0	34140	0	0	0	16488	15140	153762	27253	950492	37518	105963	0	0	8184	755044	0	0
2024-04-21 07:29:32			0	34140	0	0	0	16490	15150	153814	27374	950579	37507	105964	0	0	8184	755004	0	0
2024-04-21 07:30:32			0	34131	0	0	0	16498	15140	153802	27561	950518	37518	105967	0	0	8184	755490	0	0
2024-04-21 07:31:32			0	34132	0	0	0	16498	15140	153878	27215	950536	37528	105967	0	0	8184	755441	0	0
2024-04-21 07:32:32			0	34122	0	0	0	16496	15140	153902	27265	950518	37529	105966	0	0	8183	755936	0	0
2024-04-21 07:33:32			0	34147	0	0	0	16503	15140	153906	27460	950563	37506	105969	0	0	8184	754698	0	0
2024-04-21 07:34:32			0	34128	0	0	0	16496	15150	153838	27379	950534	37518	105966	0	0	8184	755598	0	0
2024-04-21 07:35:32			0	34118	0	0	0	16496	15140	153898	27303	950518	37507	105966	0	0	8183	756134	0	0
2024-04-21 07:36:32			0	34122	0	0	0	16496	15150	154022	27538	950579	37518	105966	0	0	8183	755895	0	0
2024-04-21 07:37:32			0	34138	0	0	0	16496	15150	153946	27350	950508	37529	105966	0	0	8184	755103	0	0
2024-04-21 07:38:32			0	34138	0	0	0	16485	15150	153882	27602	950552	37507	105962	0	0	8184	755103	0	0
2024-04-21 07:39:32			0	34141	0	0	0	16488	15130	153930	27447	950502	37527	105963	0	0	8184	755036	0	0
2024-04-21 07:40:32			0	34120	0	0	0	16490	15130	153902	27564	950520	37505	105964	0	0	8183	756076	0	0
2024-04-21 07:41:32			0	34134	0	0	0	16490	15130	153882	27760	950554	37495	105964	0	0	8184	755382	0	0
2024-04-21 07:42:32			0	34134	0	0	0	16483	15130	153870	27246	950528	37516	105961	0	0	8184	755382	0	0
2024-04-21 07:43:32			0	34123	0	0	0	16483	15140	153926	27531	950544	37518	105961	0	0	8183	755887	0	0
2024-04-21 07:44:32			0	34125	0	0	0	16488	15130	153830	27724	950475	37516	105963	0	0	8183	755828	0	0
2024-04-21 07:45:32			0	34124	0	0	0	16477	15140	153882	27315	950484	37528	105959	0	0	8184	755837	0	0
2024-04-21 07:46:32			0	34128	0	0	0	16467	15140	153898	27390	950484	37506	105955	0	0	8184	755639	0	0
2024-04-21 07:47:32			0	34112	0	0	0	16475	15140	153910	27287	950510	37517	105958	0	0	8183	756432	0	0
2024-04-21 07:48:32			0	34114	0	0	0	16467	15130	153966	27422	950449	37516	105955	0	0	8183	756373	0	0
2024-04-21 07:49:32			0	34136	0	0	0	16462	15130	153866	27476	950467	37516	105953	0	0	8184	755283	0	0
2024-04-21 07:50:32			0	34108	0	0	0	16462	15130	153882	27651	950397	37505	105953	0	0	8183	756671	0	0
2024-04-21 07:51:32			0	34109	0	0	0	16459	15120	153918	27448	950485	37505	105952	0	0	8183	756662	0	0
2024-04-21 07:52:32			0	34104	0	0	0	16464	15120	153966	27312	950451	37515	105954	0	0	8183	756910	0	0
2024-04-21 07:53:32			0	34114	0	0	0	16470	15130	153974	27680	950467	37505	105956	0	0	8183	756373	0	0
2024-04-21 07:54:32			0	34112	0	0	0	16472	15120	154018	27765	950504	37515	105957	0	0	8183	756513	0	0
2024-04-21 07:55:32			0	34110	0	0	0	16477	15120	153966	27358	950459	37516	105959	0	0	8183	756612	0	0
2024-04-21 07:56:32			0	34108	0	0	0	16477	15120	153970	27835	950504	37515	105959	0	0	8183	756711	0	0
2024-04-21 07:57:32			0	34109	0	0	0	16475	15120	154078	27675	950512	37505	105958	0	0	8183	756662	0	0
2024-04-21 07:58:32			0	34103	0	0	0	16483	15120	154146	27511	950398	37504	105961	0	0	8182	756959	0	0
2024-04-21 07:59:32			0	34095	0	0	0	16472	15130	154078	27585	950449	37516	105957	0	0	8182	757316	0	0
2024-04-21 08:00:32			0	34112	0	0	0	16475	15120	154086	27582	950485	37527	105958	0	0	8183	756513	0	0
2024-04-21 08:01:32			0	34108	0	0	0	16477	15130	154014	27748	950467	37527	105959	0	0	8183	756671	0	0
2024-04-21 08:02:32			0	34113	0	0	0	16480	15130	153950	27566	950502	37516	105960	0	0	8183	756423	0	0
2024-04-21 08:03:32			0	34117	0	0	0	16483	15120	154010	27518	950433	37516	105961	0	0	8183	756265	0	0
2024-04-21 08:04:32			0	34101	0	0	0	16480	15130	154026	27514	950502	37505	105960	0	0	8182	757018	0	0
2024-04-21 08:05:32			0	34125	0	0	0	16493	15140	154058	27729	950492	37518	105965	0	0	8183	755787	0	0
2024-04-21 08:06:32			0	34119	0	0	0	16477	15140	154086	27680	950536	37506	105959	0	0	8183	756085	0	0
2024-04-21 08:07:32			0	34119	0	0	0	16488	15130	154030	27497	950493	37505	105963	0	0	8183	756125	0	0
2024-04-21 08:08:32			0	34099	0	0	0	16490	15120	154098	27521	950485	37516	105964	0	0	8182	757158	0	0
2024-04-21 08:09:32			0	34120	0	0	0	16488	15130	153978	27564	950546	37516	105963	0	0	8183	756076	0	0
2024-04-21 08:10:32			0	34116	0	0	0	16498	15140	153926	27479	950571	37529	105967	0	0	8183	756233	0	0
2024-04-21 08:11:32			0	34119	0	0	0	16493	15130	153878	27459	950554	37516	105965	0	0	8183	756125	0	0
2024-04-21 08:12:32			0	34110	0	0	0	16493	15130	153966	27256	950493	37505	105965	0	0	8182	756572	0	0
2024-04-21 08:13:32			0	34101	0	0	0	16496	15130	153946	27658	950554	37527	105966	0	0	8182	757018	0	0
2024-04-21 08:14:32			0	34117	0	0	0	16496	15140	153954	27222	950484	37517	105966	0	0	8183	756184	0	0
2024-04-21 08:15:32			0	34102	0	0	0	16496	15140	153994	27357	950492	37518	105966	0	0	8182	756928	0	0
2024-04-21 08:16:32			0	34102	0	0	0	16506	15130	153930	27644	950554	37527	105970	0	0	8182	756968	0	0
2024-04-21 08:17:32			0	34114	0	0	0	16509	15140	153894	27817	950563	37517	105971	0	0	8182	756333	0	0
2024-04-21 08:18:32			0	34111	0	0	0	16511	15140	153906	27661	950563	37517	105972	0	0	8182	756481	0	0
2024-04-21 08:19:32			0	34121	0	0	0	16522	15150	153910	27526	950605	37507	105976	0	0	8183	755945	0	0
2024-04-21 08:20:32			0	34126	0	0	0	16537	15140	153846	27395	950650	37540	105982	0	0	8183	755738	0	0
2024-04-21 08:21:32			0	34120	0	0	0	16548	15160	153894	27519	950700	37518	105986	0	0	8182	755954	0	0
2024-04-21 08:22:32			0	34124	0	0	0	16550	15160	153934	27476	950735	37530	105987	0	0	8182	755756	0	0
2024-04-21 08:23:32			0	34110	0	0	0	16558	15170	153926	27587	950743	37520	105990	0	0	8182	756409	0	0
2024-04-21 08:24:32			0	34096	0	0	0	16561	15170	153958	27547	950716	37520	105991	0	0	8181	757104	0	0
2024-04-21 08:25:32			0	34105	0	0	0	16555	15170	153934	27469	950716	37520	105989	0	0	8181	756657	0	0
2024-04-21 08:26:32			0	34116	0	0	0	16566	15160	153914	27171	950708	37519	105993	0	0	8182	756152	0	0
2024-04-21 08:27:32			0	34120	0	0	0	16566	15180	153930	27395	950706	37541	105993	0	0	8182	755873	0	0
2024-04-21 08:28:32			0	34116	0	0	0	16561	15190	153854	27473	950775	37533	105991	0	0	8182	756030	0	0
2024-04-21 08:29:32			0	34113	0	0	0	16563	15180	153850	27305	950767	37532	105992	0	0	8182	756220	0	0
2024-04-21 08:30:32			0	34132	0	0	0	16568	15180	153942	27334	950793	37532	105994	0	0	8183	755278	0	0
2024-04-21 08:31:32			0	34099	0	0	0	16566	15200	153934	27398	950818	37533	105993	0	0	8181	756833	0	0
2024-04-21 08:32:32			0	34109	0	0	0	16576	15200	153918	27417	950799	37523	105997	0	0	8181	756337	0	0
2024-04-21 08:33:32			0	34104	0	0	0	16561	15190	153854	27831	950809	37533	105991	0	0	8181	756625	0	0
2024-04-21 08:34:32			0	34108	0	0	0	16561	15190	153886	27646	950775	37522	105991	0	0	8181	756427	0	0
2024-04-21 08:35:32			0	34112	0	0	0	16568	15200	153926	27353	950844	37533	105994	0	0	8182	756188	0	0
2024-04-21 08:36:32			0	34095	0	0	0	16563	15200	153906	27654	950791	37522	105992	0	0	8181	757031	0	0
2024-04-21 08:37:32			0	34108	0	0	0	16566	15190	153914	27689	950836	37533	105993	0	0	8181	756427	0	0
2024-04-21 08:38:32			0	34112	0	0	0	16563	15200	153918	27921	950878	37523	105992	0	0	8182	756188	0	0
2024-04-21 08:39:32			0	34109	0	0	0	16561	15200	153814	27142	950818	37533	105991	0	0	8182	756337	0	0
2024-04-21 08:40:32			0	34102	0	0	0	16558	15200	153910	27497	950799	37534	105990	0	0	8181	756684	0	0
2024-04-21 08:41:32			0	34091	0	0	0	16571	15200	153878	27339	950826	37534	105995	0	0	8180	757230	0	0
2024-04-21 08:42:32			0	34125	0	0	0	16553	15200	153798	27613	950826	37534	105988	0	0	8183	755544	0	0
2024-04-21 08:43:32			0	34108	0	0	0	16553	15200	153838	27383	950818	37533	105988	0	0	8182	756386	0	0
2024-04-21 08:44:32			0	34117	0	0	0	16548	15210	153766	27613	950834	37512	105986	0	0	8182	755900	0	0
2024-04-21 08:45:32			0	34120	0	0	0	16542	15200	153738	27578	950791	37511	105984	0	0	8183	755792	0	0
2024-04-21 08:46:32			0	34121	0	0	0	16553	15190	153754	27286	950836	37533	105988	0	0	8182	755783	0	0
2024-04-21 08:47:32			0	34116	0	0	0	16568	15190	153810	27640	950836	37533	105994	0	0	8182	756030	0	0
2024-04-21 08:48:32			0	34142	0	0	0	16574	15210	153838	27625	950868	37545	105996	0	0	8183	754662	0	0
2024-04-21 08:49:32			0	34126	0	0	0	16581	15200	153782	27407	950852	37534	105999	0	0	8182	755494	0	0
2024-04-21 08:50:32			0	34143	0	0	0	16581	15210	153802	27286	950868	37523	105999	0	0	8183	754612	0	0
2024-04-21 08:51:32			0	34140	0	0	0	16568	15210	153742	27784	950868	37535	105994	0	0	8183	754761	0	0
2024-04-21 08:52:32			0	34154	0	0	0	16571	15210	153694	27428	950895	37545	105995	0	0	8184	754068	0	0
2024-04-21 08:53:32			0	34163	0	0	0	16561	15210	153710	27306	950868	37523	105991	0	0	8185	753623	0	0
2024-04-21 08:54:32			0	34175	0	0	0	16568	15210	153590	27298	950807	37535	105994	0	0	8185	753030	0	0
2024-04-21 08:55:32			0	34162	0	0	0	16563	15200	153558	27757	950852	37523	105992	0	0	8185	753713	0	0
2024-04-21 08:56:32			0	34189	0	0	0	16558	15210	153594	27583	950868	37535	105990	0	0	8186	752339	0	0
2024-04-21 08:57:32			0	34172	0	0	0	16576	15200	153598	27400	950870	37533	105997	0	0	8185	753219	0	0
2024-04-21 08:58:32			0	34177	0	0	0	16568	15220	153466	27651	950876	37545	105994	0	0	8185	752891	0	0
2024-04-21 08:59:32			0	34189	0	0	0	16566	15210	153530	27334	950842	37545	105993	0	0	8186	752339	0	0
2024-04-21 09:00:32			0	34200	0	0	0	16574	15210	153450	27322	950868	37523	105996	0	0	8187	751796	0	0
2024-04-21 09:01:32			0	34204	0	0	0	16568	15210	153422	27260	950895	37535	105994	0	0	8187	751598	0	0
2024-04-21 09:02:32			0	34214	0	0	0	16581	15220	153378	27668	950929	37512	105999	0	0	8187	751065	0	0
2024-04-21 09:03:32			0	34202	0	0	0	16576	15220	153366	27536	950929	37535	105997	0	0	8187	751657	0	0
2024-04-21 09:04:32			0	34220	0	0	0	16579	15220	153442	27275	950929	37523	105998	0	0	8188	750769	0	0
2024-04-21 09:05:32			0	34210	0	0	0	16574	15210	153338	27658	950921	37535	105996	0	0	8187	751302	0	0
2024-04-21 09:06:32			0	34213	0	0	0	16579	15210	153366	27343	950913	37535	105998	0	0	8187	751154	0	0
2024-04-21 09:07:32			0	34232	0	0	0	16566	15200	153362	27536	950878	37534	105993	0	0	8189	750258	0	0
2024-04-21 09:08:32			0	34223	0	0	0	16568	15210	153326	27486	950895	37535	105994	0	0	8188	750662	0	0
2024-04-21 09:09:32			0	34225	0	0	0	16571	15210	153206	27384	950886	37523	105995	0	0	8188	750563	0	0
2024-04-21 09:10:32			0	34241	0	0	0	16568	15220	153290	27348	950911	37535	105994	0	0	8189	749734	0	0
2024-04-21 09:11:32			0	34237	0	0	0	16566	15220	153286	27445	950929	37535	105993	0	0	8189	749932	0	0
2024-04-21 09:12:32			0	34220	0	0	0	16563	15220	153310	27663	950955	37523	105992	0	0	8188	750769	0	0
2024-04-21 09:13:32			0	34222	0	0	0	16581	15220	153290	27388	950911	37535	105999	0	0	8188	750670	0	0
2024-04-21 09:14:32			0	34222	0	0	0	16574	15210	153330	27329	950895	37523	105996	0	0	8188	750711	0	0
2024-04-21 09:15:32			0	34227	0	0	0	16579	15220	153178	27640	950981	37523	105998	0	0	8188	750424	0	0
2024-04-21 09:16:32			0	34226	0	0	0	16592	15210	153322	27260	950939	37523	106003	0	0	8188	750514	0	0
2024-04-21 09:17:32			0	34231	0	0	0	16597	15210	153394	27358	950947	37535	106005	0	0	8188	750267	0	0
2024-04-21 09:18:32			0	34214	0	0	0	16607	15220	153302	27588	951016	37545	106009	0	0	8187	751065	0	0
2024-04-21 09:19:32			0	34230	0	0	0	16607	15220	153418	27618	950981	37556	106009	0	0	8188	750276	0	0
2024-04-21 09:20:32			0	34206	0	0	0	16618	15220	153334	27673	951042	37545	106013	0	0	8186	751459	0	0
2024-04-21 09:21:32			0	34204	0	0	0	16628	15240	153358	27395	951075	37537	106017	0	0	8186	751477	0	0
2024-04-21 09:22:32			0	34214	0	0	0	16631	15240	153390	27301	951075	37537	106018	0	0	8187	750984	0	0
2024-04-21 09:23:32			0	34190	0	0	0	16636	15250	153446	27519	951144	37549	106020	0	0	8185	752128	0	0
2024-04-21 09:24:32			0	34200	0	0	0	16659	15250	153438	27293	951091	37539	106029	0	0	8185	751634	0	0
2024-04-21 09:25:32			0	34196	0	0	0	16659	15250	153398	27371	951135	37538	106029	0	0	8185	751832	0	0
2024-04-21 09:26:32			0	34194	0	0	0	16662	15260	153518	27206	951160	37549	106030	0	0	8185	751890	0	0
2024-04-21 09:27:32			0	34199	0	0	0	16657	15280	153462	27609	951211	37540	106028	0	0	8186	751562	0	0
2024-04-21 09:28:32			0	34209	0	0	0	16662	15280	153402	27654	951245	37551	106030	0	0	8186	751069	0	0
2024-04-21 09:29:32			0	34184	0	0	0	16672	15290	153390	27665	951201	37541	106034	0	0	8184	752262	0	0
2024-04-21 09:30:32			0	34197	0	0	0	16664	15290	153366	27369	951122	37530	106031	0	0	8185	751621	0	0
2024-04-21 09:31:32			0	34188	0	0	0	16672	15290	153386	27267	951174	37551	106034	0	0	8185	752065	0	0
2024-04-21 09:32:32			0	34195	0	0	0	16664	15290	153402	27476	951253	37551	106031	0	0	8185	751719	0	0
2024-04-21 09:33:32			0	34197	0	0	0	16677	15280	153330	27440	951219	37551	106036	0	0	8185	751661	0	0
2024-04-21 09:34:32			0	34189	0	0	0	16677	15290	153306	27448	951227	37541	106036	0	0	8185	752015	0	0
2024-04-21 09:35:32			0	34217	0	0	0	16672	15300	153402	27531	951296	37553	106034	0	0	8186	750594	0	0
2024-04-21 09:36:32			0	34215	0	0	0	16672	15300	153302	27601	951269	37575	106034	0	0	8186	750693	0	0
2024-04-21 09:37:32			0	34236	0	0	0	16677	15310	153206	27866	951225	37564	106036	0	0	8187	749618	0	0
2024-04-21 09:38:32			0	34234	0	0	0	16683	15300	153218	27225	951296	37553	106038	0	0	8187	749757	0	0
2024-04-21 09:39:32			0	34262	0	0	0	16672	15310	153138	27526	951233	37542	106034	0	0	8189	748339	0	0
2024-04-21 09:40:32			0	34261	0	0	0	16672	15320	152914	27511	951294	37554	106034	0	0	8189	748348	0	0
2024-04-21 09:41:32			0	34289	0	0	0	16677	15310	152994	27367	951251	37553	106036	0	0	8191	747013	0	0
2024-04-21 09:42:32			0	34281	0	0	0	16672	15310	152874	27464	951207	37532	106034	0	0	8190	747406	0	0
2024-04-21 09:43:32			0	34314	0	0	0	16662	15310	152862	27241	951251	37532	106030	0	0	8192	745786	0	0
2024-04-21 09:44:32			0	34320	0	0	0	16654	15300	152858	27279	951217	37553	106027	0	0	8193	745532	0	0
2024-04-21 09:45:32			0	34319	0	0	0	16651	15310	152702	27777	951199	37553	106026	0	0	8193	745541	0	0
2024-04-21 09:46:32			0	34350	0	0	0	16662	15310	152563	27545	951199	37542	106030	0	0	8194	744023	0	0
2024-04-21 09:47:32			0	34353	0	0	0	16646	15310	152675	27402	951225	37542	106024	0	0	8195	743876	0	0
2024-04-21 09:48:32			0	34362	0	0	0	16646	15300	152539	27493	951209	37563	106024	0	0	8195	743476	0	0
2024-04-21 09:49:32			0	34378	0	0	0	16644	15300	152435	27595	951130	37552	106023	0	0	8196	742694	0	0
2024-04-21 09:50:32			0	34385	0	0	0	16638	15310	152503	27673	951207	37553	106021	0	0	8197	742312	0	0
2024-04-21 09:51:32			0	34392	0	0	0	16636	15300	152383	27357	951182	37574	106020	0	0	8197	742010	0	0
2024-04-21 09:52:32			0	34420	0	0	0	16636	15300	152339	27561	951156	37531	106020	0	0	8199	740643	0	0
2024-04-21 09:53:32			0	34402	0	0	0	16636	15290	152483	27535	951201	37551	106020	0	0	8198	741561	0	0
2024-04-21 09:54:32			0	34398	0	0	0	16644	15280	152307	27222	951166	37551	106023	0	0	8197	741797	0	0
2024-04-21 09:55:32			0	34404	0	0	0	16633	15300	152423	27781	951164	37542	106019	0	0	8198	741424	0	0
2024-04-21 09:56:32			0	34383	0	0	0	16636	15290	152431	27428	951174	37541	106020	0	0	8197	742489	0	0
2024-04-21 09:57:32			0	34374	0	0	0	16628	15290	152391	27498	951122	37541	106017	0	0	8196	742929	0	0
2024-04-21 09:58:32			0	34395	0	0	0	16623	15280	152411	27360	951166	37551	106015	0	0	8197	741943	0	0
2024-04-21 09:59:32			0	34374	0	0	0	16623	15280	152499	27913	951061	37540	106015	0	0	8196	742969	0	0
2024-04-21 10:00:32			0	34371	0	0	0	16628	15280	152439	27365	951192	37540	106017	0	0	8196	743116	0	0
2024-04-21 10:01:32			0	34359	0	0	0	16618	15280	152567	27573	951079	37551	106013	0	0	8195	743703	0	0
2024-04-21 10:02:32			0	34358	0	0	0	16618	15280	152567	27569	951132	37529	106013	0	0	8195	743751	0	0
2024-04-21 10:03:32			0	34356	0	0	0	16623	15280	152611	27448	951132	37562	106015	0	0	8195	743849	0	0
2024-04-21 10:04:32			0	34333	0	0	0	16620	15280	152602	27424	951079	37551	106014	0	0	8194	744975	0	0
2024-04-21 10:05:32			0	34368	0	0	0	16620	15260	152575	27715	951081	37539	106014	0	0	8196	743342	0	0
2024-04-21 10:06:32			0	34348	0	0	0	16620	15270	152555	27261	951071	37551	106014	0	0	8195	744281	0	0
2024-04-21 10:07:32			0	34334	0	0	0	16618	15280	152634	27374	951105	37562	106013	0	0	8194	744926	0	0
2024-04-21 10:08:32			0	34342	0	0	0	16623	15270	152746	27545	951071	37551	106015	0	0	8194	744575	0	0
2024-04-21 10:09:32			0	34336	0	0	0	16623	15270	152630	27609	951037	37540	106015	0	0	8194	744869	0	0
2024-04-21 10:10:32			0	34334	0	0	0	16620	15270	152658	27575	951142	37540	106014	0	0	8194	744966	0	0
2024-04-21 10:11:32			0	34329	0	0	0	16620	15270	152782	27251	951124	37540	106014	0	0	8194	745212	0	0
2024-04-21 10:12:32			0	34365	0	0	0	16618	15260	152683	27504	951099	37560	106013	0	0	8196	743489	0	0
2024-04-21 10:13:32			0	34331	0	0	0	16628	15270	152698	27531	951089	37550	106017	0	0	8194	745113	0	0
2024-04-21 10:14:32			0	34338	0	0	0	16633	15260	152654	27807	951126	37539	106019	0	0	8194	744810	0	0
2024-04-21 10:15:32			0	34343	0	0	0	16633	15280	152594	27476	951105	37540	106019	0	0	8194	744486	0	0
2024-04-21 10:16:32			0	34348	0	0	0	16638	15280	152607	28005	951105	37540	106021	0	0	8194	744241	0	0
2024-04-21 10:17:32			0	34370	0	0	0	16633	15270	152563	27789	951071	37540	106019	0	0	8196	743205	0	0
2024-04-21 10:18:32			0	34362	0	0	0	16641	15270	152439	27961	951142	37540	106022	0	0	8195	743596	0	0
2024-04-21 10:19:32			0	34373	0	0	0	16646	15280	152471	27502	951158	37551	106024	0	0	8196	743018	0	0
2024-04-21 10:20:32			0	34391	0	0	0	16644	15280	152483	27528	951158	37540	106023	0	0	8197	742138	0	0
2024-04-21 10:21:32			0	34388	0	0	0	16638	15280	152443	27467	951158	37551	106021	0	0	8197	742285	0	0
2024-04-21 10:22:32			0	34392	0	0	0	16651	15280	152287	27767	951132	37551	106026	0	0	8197	742090	0	0
2024-04-21 10:23:32			0	34405	0	0	0	16657	15290	152387	27346	951174	37562	106028	0	0	8197	741415	0	0
2024-04-21 10:24:32			0	34403	0	0	0	16644	15290	152327	27923	951227	37551	106023	0	0	8198	741513	0	0
2024-04-21 10:25:32			0	34438	0	0	0	16651	15280	152247	27459	951158	37540	106026	0	0	8199	739845	0	0
2024-04-21 10:26:32			0	34447	0	0	0	16651	15290	152223	27640	951174	37541	106026	0	0	8200	739367	0	0
2024-04-21 10:27:32			0	34448	0	0	0	16646	15280	152163	27388	951184	37573	106024	0	0	8200	739358	0	0
2024-04-21 10:28:32			0	34456	0	0	0	16657	15290	152211	27537	951253	37562	106028	0	0	8200	738929	0	0
2024-04-21 10:29:32			0	34472	0	0	0	16659	15290	152059	27348	951279	37541	106029	0	0	8201	738151	0	0
2024-04-21 10:30:32			0	34489	0	0	0	16662	15300	151963	27727	951209	37552	106030	0	0	8202	737285	0	0
2024-04-21 10:31:32			0	34485	0	0	0	16667	15300	151859	27602	951261	37552	106032	0	0	8202	737479	0	0
2024-04-21 10:32:32			0	34512	0	0	0	16662	15310	151935	27537	951225	37553	106030	0	0	8204	736128	0	0
2024-04-21 10:33:32			0	34523	0	0	0	16664	15300	151791	27443	951261	37552	106031	0	0	8204	735634	0	0
2024-04-21 10:34:32			0	34533	0	0	0	16667	15300	151827	27965	951288	37552	106032	0	0	8205	735149	0	0
2024-04-21 10:35:32			0	34546	0	0	0	16675	15310	151823	27772	951277	37542	106035	0	0	8205	734479	0	0
2024-04-21 10:36:32			0	34546	0	0	0	16685	15310	151755	27703	951356	37553	106039	0	0	8205	734479	0	0
2024-04-21 10:37:32			0	34557	0	0	0	16688	15330	151667	27979	951336	37555	106040	0	0	8206	733867	0	0
2024-04-21 10:38:32			0	34567	0	0	0	16690	15320	151551	27604	951346	37565	106041	0	0	8206	733423	0	0
2024-04-21 10:39:32			0	34582	0	0	0	16706	15320	151519	27757	951373	37554	106047	0	0	8207	732697	0	0
2024-04-21 10:40:32			0	34606	0	0	0	16709	15320	151471	27909	951373	37554	106048	0	0	8208	731537	0	0
2024-04-21 10:41:32			0	34601	0	0	0	16709	15320	151427	27609	951328	37544	106048	0	0	8208	731779	0	0
2024-04-21 10:42:32			0	34607	0	0	0	16706	15330	151519	27687	951389	37566	106047	0	0	8208	731450	0	0
2024-04-21 10:43:32			0	34621	0	0	0	16709	15330	151511	27395	951423	37555	106048	0	0	8209	730774	0	0
2024-04-21 10:44:32			0	34627	0	0	0	16711	15340	151467	27389	951379	37555	106049	0	0	8209	730445	0	0
2024-04-21 10:45:32			0	34606	0	0	0	16722	15340	151455	27663	951458	37555	106053	0	0	8208	731459	0	0
2024-04-21 10:46:32			0	34634	0	0	0	16727	15340	151311	27633	951439	37579	106055	0	0	8210	730107	0	0
2024-04-21 10:47:32			0	34638	0	0	0	16724	15340	151383	27890	951431	37555	106054	0	0	8210	729914	0	0
2024-04-21 10:48:32			0	34653	0	0	0	16737	15350	151359	27913	951500	37567	106059	0	0	8210	729152	0	0
2024-04-21 10:49:32			0	34636	0	0	0	16735	15350	151263	27750	951403	37567	106058	0	0	8210	729971	0	0
2024-04-21 10:50:32			0	34642	0	0	0	16745	15350	151283	28043	951535	37579	106062	0	0	8210	729682	0	0
2024-04-21 10:51:32			0	34673	0	0	0	16750	15360	151259	27705	951490	37568	106064	0	0	8211	728150	0	0
2024-04-21 10:52:32			0	34650	0	0	0	16753	15360	151227	27961	951472	37569	106065	0	0	8210	729257	0	0
2024-04-21 10:53:32			0	34647	0	0	0	16758	15360	151179	27602	951543	37568	106067	0	0	8210	729402	0	0
2024-04-21 10:54:32			0	34660	0	0	0	16755	15370	151187	27685	951585	37558	106066	0	0	8211	728736	0	0
2024-04-21 10:55:32			0	34658	0	0	0	16763	15380	151187	27621	951575	37581	106069	0	0	8210	728794	0	0
2024-04-21 10:56:32			0	34681	0	0	0	16763	15380	151191	27994	951610	37571	106069	0	0	8212	727687	0	0
2024-04-21 10:57:32			0	34653	0	0	0	16761	15380	151151	27426	951628	37559	106068	0	0	8210	729034	0	0
2024-04-21 10:58:32			0	34661	0	0	0	16768	15390	151187	27409	951644	37583	106071	0	0	8211	728610	0	0
2024-04-21 10:59:32			0	34678	0	0	0	16771	15390	151123	27685	951618	37583	106072	0	0	8212	727792	0	0
2024-04-21 11:00:32			0	34682	0	0	0	16776	15390	151099	27431	951618	37561	106074	0	0	8212	727599	0	0
2024-04-21 11:01:32			0	34690	0	0	0	16784	15400	151095	27649	951634	37561	106077	0	0	8212	727176	0	0
2024-04-21 11:02:32			0	34694	0	0	0	16799	15390	151051	27637	951705	37572	106083	0	0	8212	727022	0	0
2024-04-21 11:03:32			0	34698	0	0	0	16797	15390	151019	27890	951644	37572	106082	0	0	8212	726830	0	0
2024-04-21 11:04:32			0	34702	0	0	0	16805	15400	150995	27753	951739	37572	106085	0	0	8212	726599	0	0
2024-04-21 11:05:32			0	34731	0	0	0	16802	15420	150959	27845	951746	37573	106084	0	0	8214	725128	0	0
2024-04-21 11:06:32			0	34721	0	0	0	16805	15410	150955	27647	951756	37583	106085	0	0	8213	725647	0	0
2024-04-21 11:07:32			0	34716	0	0	0	16812	15410	150971	27327	951737	37573	106088	0	0	8213	725887	0	0
2024-04-21 11:08:32			0	34731	0	0	0	16812	15420	150963	27836	951746	37573	106088	0	0	8214	725128	0	0
2024-04-21 11:09:32			0	34749	0	0	0	16818	15420	150859	27795	951772	37573	106090	0	0	8215	724265	0	0
2024-04-21 11:10:32			0	34754	0	0	0	16820	15420	150795	27791	951806	37584	106091	0	0	8215	724026	0	0
2024-04-21 11:11:32			0	34767	0	0	0	16823	15420	150755	27672	951806	37574	106092	0	0	8216	723403	0	0
2024-04-21 11:12:32			0	34779	0	0	0	16828	15430	150619	27597	951814	37575	106094	0	0	8216	722790	0	0
2024-04-21 11:13:32			0	34786	0	0	0	16841	15440	150627	27791	951857	37576	106099	0	0	8217	722416	0	0
2024-04-21 11:14:32			0	34806	0	0	0	16838	15430	150519	27935	951849	37596	106098	0	0	8218	721499	0	0
2024-04-21 11:15:32			0	34811	0	0	0	16844	15440	150479	27885	951918	37576	106100	0	0	8218	721221	0	0
2024-04-21 11:16:32			0	34850	0	0	0	16859	15460	150379	27680	951916	37599	106106	0	0	8220	719282	0	0
2024-04-21 11:17:32			0	34851	0	0	0	16870	15450	150271	27897	951908	37587	106110	0	0	8220	719273	0	0
2024-04-21 11:18:32			0	34873	0	0	0	16870	15460	150231	28058	951976	37588	106110	0	0	8221	718186	0	0
2024-04-21 11:19:32			0	34888	0	0	0	16883	15470	150155	27720	952011	37599	106115	0	0	8222	717433	0	0
2024-04-21 11:20:32			0	34886	0	0	0	16883	15470	150151	28112	952045	37588	106115	0	0	8222	717529	0	0
2024-04-21 11:21:32			0	34894	0	0	0	16885	15480	150075	28207	952080	37589	106116	0	0	8222	717109	0	0
2024-04-21 11:22:32			0	34896	0	0	0	16883	15470	149999	27862	952072	37588	106115	0	0	8222	717053	0	0
2024-04-21 11:23:32			0	34886	0	0	0	16883	15490	150071	27803	952070	37590	106115	0	0	8222	717451	0	0
2024-04-21 11:24:32			0	34903	0	0	0	16877	15490	150099	28079	952104	37581	106113	0	0	8223	716643	0	0
2024-04-21 11:25:32			0	34879	0	0	0	16877	15500	150123	27774	952060	37591	106113	0	0	8222	717746	0	0
2024-04-21 11:26:32			0	34883	0	0	0	16880	15490	150079	27821	951999	37591	106114	0	0	8222	717594	0	0
2024-04-21 11:27:32			0	34914	0	0	0	16875	15490	149967	27661	952157	37602	106112	0	0	8224	716120	0	0
2024-04-21 11:28:32			0	34933	0	0	0	16883	15500	149875	27682	952086	37581	106115	0	0	8225	715179	0	0
2024-04-21 11:29:32			0	34941	0	0	0	16888	15500	149767	27895	952147	37603	106117	0	0	8225	714799	0	0
2024-04-21 11:30:32			0	34917	0	0	0	16880	15500	149867	27826	952094	37592	106114	0	0	8224	715939	0	0
2024-04-21 11:31:32			0	34942	0	0	0	16890	15500	149851	27784	952139	37591	106118	0	0	8225	714752	0	0
2024-04-21 11:32:32			0	34928	0	0	0	16906	15500	149919	27689	952112	37591	106124	0	0	8224	715417	0	0
2024-04-21 11:33:32			0	34920	0	0	0	16909	15510	149903	27595	952111	37604	106125	0	0	8223	715758	0	0
2024-04-21 11:34:32			0	34919	0	0	0	16919	15520	149963	27874	952206	37583	106129	0	0	8223	715767	0	0
2024-04-21 11:35:32			0	34927	0	0	0	16919	15520	149855	27819	952250	37592	106129	0	0	8224	715387	0	0
2024-04-21 11:36:32			0	34934	0	0	0	16914	15520	149855	27836	952206	37604	106127	0	0	8224	715055	0	0
2024-04-21 11:37:32			0	34931	0	0	0	16909	15530	149795	27800	952248	37616	106125	0	0	8224	715159	0	0
2024-04-21 11:38:32			0	34937	0	0	0	16898	15530	149859	28006	952240	37593	106121	0	0	8225	714874	0	0
2024-04-21 11:39:32			0	34947	0	0	0	16903	15530	149791	27842	952214	37583	106123	0	0	8225	714400	0	0
2024-04-21 11:40:32			0	34962	0	0	0	16898	15540	149807	27692	952230	37616	106121	0	0	8226	713650	0	0
2024-04-21 11:41:32			0	34950	0	0	0	16903	15530	149883	27994	952240	37593	106123	0	0	8225	714257	0	0
2024-04-21 11:42:32			0	34929	0	0	0	16927	15540	149975	27566	952230	37605	106132	0	0	8224	715215	0	0
2024-04-21 11:43:32			0	34936	0	0	0	16924	15530	149907	27831	952240	37593	106131	0	0	8224	714921	0	0
2024-04-21 11:44:32			0	34924	0	0	0	16929	15540	149823	27789	952238	37595	106133	0	0	8223	715453	0	0
2024-04-21 11:45:32			0	34933	0	0	0	16937	15540	149919	27595	952309	37594	106136	0	0	8224	715025	0	0
2024-04-21 11:46:32			0	34922	0	0	0	16935	15550	149819	27810	952333	37585	106135	0	0	8223	715509	0	0
2024-04-21 11:47:32			0	34917	0	0	0	16950	15550	149875	27887	952386	37607	106141	0	0	8223	715746	0	0
2024-04-21 11:48:32			0	34941	0	0	0	16940	15550	149859	27842	952352	37584	106137	0	0	8224	714607	0	0
2024-04-21 11:49:32			0	34933	0	0	0	16948	15550	149839	27864	952404	37595	106140	0	0	8224	714987	0	0
2024-04-21 11:50:32			0	34957	0	0	0	16955	15570	149803	27592	952410	37598	106143	0	0	8225	713772	0	0
2024-04-21 11:51:32			0	34949	0	0	0	16968	15570	149747	27833	952463	37620	106148	0	0	8224	714151	0	0
2024-04-21 11:52:32			0	34946	0	0	0	16950	15560	149835	27718	952341	37607	106141	0	0	8224	714332	0	0
2024-04-21 11:53:32			0	34951	0	0	0	16966	15580	149659	28001	952427	37586	106147	0	0	8224	714018	0	0
2024-04-21 11:54:32			0	34965	0	0	0	16958	15580	149723	27862	952461	37609	106144	0	0	8225	713354	0	0
2024-04-21 11:55:32			0	34965	0	0	0	16955	15590	149763	27956	952443	37599	106143	0	0	8225	713316	0	0
2024-04-21 11:56:32			0	34969	0	0	0	16953	15580	149707	28031	952487	37587	106142	0	0	8226	713165	0	0
2024-04-21 11:57:32			0	34956	0	0	0	16953	15590	149675	27505	952390	37588	106142	0	0	8225	713742	0	0
2024-04-21 11:58:32			0	34944	0	0	0	16963	15590	149631	27999	952443	37621	106146	0	0	8224	714311	0	0
2024-04-21 11:59:32			0	34964	0	0	0	16984	15590	149603	27800	952522	37610	106154	0	0	8225	713363	0	0
2024-04-21 12:00:32			0	34953	0	0	0	16992	15600	149623	27784	952459	37600	106157	0	0	8224	713846	0	0
2024-04-21 12:01:32			0	34982	0	0	0	16986	15590	149611	28223	952522	37599	106155	0	0	8226	712511	0	0
2024-04-21 12:02:32			0	34979	0	0	0	16986	15600	149547	27878	952557	37599	106155	0	0	8226	712615	0	0
2024-04-21 12:03:32			0	35008	0	0	0	16981	15610	149611	27701	952555	37623	106153	0	0	8228	711205	0	0
2024-04-21 12:04:32			0	34995	0	0	0	16997	15620	149567	28228	952597	37613	106159	0	0	8227	711781	0	0
2024-04-21 12:05:32			0	34993	0	0	0	16999	15620	149547	28060	952597	37613	106160	0	0	8226	711876	0	0
2024-04-21 12:06:32			0	35006	0	0	0	17005	15630	149531	27854	952632	37613	106162	0	0	8227	711223	0	0
2024-04-21 12:07:32			0	35014	0	0	0	17010	15620	149543	27921	952623	37602	106164	0	0	8227	710883	0	0
2024-04-21 12:08:32			0	35013	0	0	0	16999	15630	149439	27881	952614	37625	106160	0	0	8228	710892	0	0
2024-04-21 12:09:32			0	35026	0	0	0	16992	15640	149351	27911	952648	37603	106157	0	0	8229	710240	0	0
2024-04-21 12:10:32			0	35017	0	0	0	16999	15630	149339	27696	952640	37602	106160	0	0	8228	710703	0	0
2024-04-21 12:11:32			0	35017	0	0	0	17010	15640	149351	27887	952622	37636	106164	0	0	8228	710665	0	0
2024-04-21 12:12:32			0	35026	0	0	0	17005	15630	149379	28029	952693	37602	106162	0	0	8228	710278	0	0
2024-04-21 12:13:32			0	35032	0	0	0	17012	15640	149355	27926	952674	37614	106165	0	0	8229	709956	0	0
2024-04-21 12:14:32			0	35055	0	0	0	17025	15640	149255	27900	952735	37625	106170	0	0	8230	708871	0	0
2024-04-21 12:15:32			0	35070	0	0	0	17025	15640	149207	27809	952683	37614	106170	0	0	8230	708164	0	0
2024-04-21 12:16:32			0	35063	0	0	0	17023	15640	149171	27783	952674	37614	106169	0	0	8230	708494	0	0
2024-04-21 12:17:32			0	35083	0	0	0	17028	15650	149235	27868	952717	37614	106171	0	0	8231	707514	0	0
2024-04-21 12:18:32			0	35079	0	0	0	17044	15650	149051	27523	952770	37614	106177	0	0	8231	707703	0	0
2024-04-21 12:19:32			0	35097	0	0	0	17051	15660	149067	27869	952733	37626	106180	0	0	8232	706817	0	0
2024-04-21 12:20:32			0	35116	0	0	0	17051	15660	148984	27755	952812	37616	106180	0	0	8233	705924	0	0
2024-04-21 12:21:32			0	35133	0	0	0	17038	15660	148904	27902	952733	37616	106175	0	0	8234	705125	0	0
2024-04-21 12:22:32			0	35150	0	0	0	17041	15670	148852	27817	952776	37626	106176	0	0	8235	704289	0	0
2024-04-21 12:23:32			0	35117	0	0	0	17044	15670	148900	27781	952784	37606	106177	0	0	8233	705839	0	0
2024-04-21 12:24:32			0	35132	0	0	0	17028	15680	148724	27906	952792	37618	106171	0	0	8234	705096	0	0
2024-04-21 12:25:32			0	35133	0	0	0	17028	15670	148848	27729	952776	37626	106171	0	0	8234	705087	0	0
2024-04-21 12:26:32			0	35131	0	0	0	17031	15660	148848	28114	952794	37616	106172	0	0	8234	705219	0	0
2024-04-21 12:27:32			0	35126	0	0	0	17046	15670	148784	28041	952810	37606	106178	0	0	8233	705416	0	0
2024-04-21 12:28:32			0	35120	0	0	0	17067	15670	148956	27979	952828	37616	106186	0	0	8233	705698	0	0
2024-04-21 12:29:32			0	35140	0	0	0	17070	15680	148864	27831	952853	37607	106187	0	0	8234	704721	0	0
2024-04-21 12:30:32			0	35144	0	0	0	17072	15680	148748	28093	952879	37619	106188	0	0	8234	704533	0	0
2024-04-21 12:31:32			0	35164	0	0	0	17057	15690	148768	27777	952887	37619	106182	0	0	8235	703557	0	0
2024-04-21 12:32:32			0	35149	0	0	0	17070	15680	148816	28065	952905	37607	106187	0	0	8234	704299	0	0
2024-04-21 12:33:32			0	35159	0	0	0	17067	15690	148728	28220	952895	37619	106186	0	0	8235	703791	0	0
2024-04-21 12:34:32			0	35162	0	0	0	17075	15700	148732	28053	952903	37619	106189	0	0	8235	703613	0	0
2024-04-21 12:35:32			0	35192	0	0	0	17067	15690	148664	28213	952843	37619	106186	0	0	8237	702245	0	0
2024-04-21 12:36:32			0	35164	0	0	0	17090	15700	148760	27763	952885	37620	106195	0	0	8235	703519	0	0
2024-04-21 12:37:32			0	35175	0	0	0	17083	15700	148636	27835	952912	37630	106192	0	0	8236	703004	0	0
2024-04-21 12:38:32			0	35186	0	0	0	17090	15710	148668	27956	952920	37620	106195	0	0	8236	702451	0	0
2024-04-21 12:39:32			0	35195	0	0	0	17085	15700	148600	28053	952991	37630	106193	0	0	8237	702067	0	0
2024-04-21 12:40:32			0	35200	0	0	0	17085	15710	148608	28230	952954	37620	106193	0	0	8237	701795	0	0
2024-04-21 12:41:32			0	35205	0	0	0	17072	15710	148552	27956	952972	37630	106188	0	0	8237	701561	0	0
2024-04-21 12:42:32			0	35194	0	0	0	17088	15710	148564	27805	952954	37620	106194	0	0	8237	702076	0	0
2024-04-21 12:43:32			0	35211	0	0	0	17098	15710	148628	27951	952954	37630	106198	0	0	8237	701281	0	0
2024-04-21 12:44:32			0	35215	0	0	0	17103	15720	148500	28254	953015	37621	106200	0	0	8238	701056	0	0
2024-04-21 12:45:32			0	35215	0	0	0	17109	15720	148444	28065	953023	37622	106202	0	0	8237	701056	0	0
2024-04-21 12:46:32			0	35225	0	0	0	17106	15730	148436	27540	952978	37622	106201	0	0	8238	700551	0	0
2024-04-21 12:47:32			0	35226	0	0	0	17106	15740	148400	27462	953047	37623	106201	0	0	8238	700466	0	0
2024-04-21 12:48:32			0	35230	0	0	0	17101	15720	148384	27932	952997	37632	106199	0	0	8238	700355	0	0
2024-04-21 12:49:32			0	35228	0	0	0	17101	15720	148452	27822	953076	37632	106199	0	0	8238	700448	0	0
2024-04-21 12:50:32			0	35226	0	0	0	17109	15730	148424	27653	953031	37632	106202	0	0	8238	700504	0	0
2024-04-21 12:51:32			0	35223	0	0	0	17101	15730	148492	27907	952987	37632	106199	0	0	8238	700644	0	0
2024-04-21 12:52:32			0	35225	0	0	0	17098	15730	148452	27836	953057	37611	106198	0	0	8238	700551	0	0
2024-04-21 12:53:32			0	35200	0	0	0	17109	15730	148472	27992	953057	37622	106202	0	0	8237	701720	0	0
2024-04-21 12:54:32			0	35219	0	0	0	17137	15740	148540	27725	953108	37624	106213	0	0	8237	700793	0	0
2024-04-21 12:55:32			0	35252	0	0	0	17140	15730	148388	28022	953066	37643	106214	0	0	8239	699290	0	0
2024-04-21 12:56:32			0	35256	0	0	0	17124	15740	148316	27895	953074	37633	106208	0	0	8240	699066	0	0
2024-04-21 12:57:32			0	35244	0	0	0	17124	15740	148304	28161	953047	37633	106208	0	0	8239	699626	0	0
2024-04-21 12:58:32			0	35235	0	0	0	17124	15750	148348	27991	953151	37624	106208	0	0	8238	700008	0	0
2024-04-21 12:59:32			0	35230	0	0	0	17122	15760	148416	27878	953133	37646	106207	0	0	8238	700204	0	0
2024-04-21 13:00:32			0	35226	0	0	0	17114	15760	148404	28246	953133	37624	106204	0	0	8238	700391	0	0
2024-04-21 13:01:32			0	35220	0	0	0	17119	15750	148432	28341	953151	37624	106206	0	0	8238	700709	0	0
2024-04-21 13:02:32			0	35215	0	0	0	17119	15760	148404	27814	953080	37635	106206	0	0	8237	700905	0	0
2024-04-21 13:03:32			0	35213	0	0	0	17109	15750	148496	28188	953072	37624	106202	0	0	8237	701036	0	0
2024-04-21 13:04:32			0	35215	0	0	0	17122	15750	148480	28129	953151	37624	106207	0	0	8237	700943	0	0
2024-04-21 13:05:32			0	35196	0	0	0	17111	15750	148488	28081	953151	37635	106203	0	0	8236	701831	0	0
2024-04-21 13:06:32			0	35208	0	0	0	17109	15760	148512	28053	953133	37635	106202	0	0	8237	701232	0	0
2024-04-21 13:07:32			0	35198	0	0	0	17124	15760	148492	27926	953054	37624	106208	0	0	8236	701700	0	0
2024-04-21 13:08:32			0	35214	0	0	0	17135	15750	148488	27987	953177	37646	106212	0	0	8237	700989	0	0
2024-04-21 13:09:32			0	35222	0	0	0	17129	15760	148496	28060	953212	37624	106210	0	0	8238	700578	0	0
2024-04-21 13:10:32			0	35216	0	0	0	17137	15760	148504	28005	953212	37635	106213	0	0	8237	700858	0	0
2024-04-21 13:11:32			0	35236	0	0	0	17137	15760	148512	28003	953185	37635	106213	0	0	8238	699924	0	0
2024-04-21 13:12:32			0	35238	0	0	0	17145	15760	148420	27850	953220	37646	106216	0	0	8238	699831	0	0
2024-04-21 13:13:32			0	35244	0	0	0	17158	15770	148500	28024	953254	37625	106221	0	0	8238	699513	0	0
2024-04-21 13:14:32			0	35249	0	0	0	17155	15770	148328	27909	953289	37625	106220	0	0	8239	699279	0	0
2024-04-21 13:15:32			0	35271	0	0	0	17171	15770	148396	28043	953289	37625	106226	0	0	8240	698253	0	0
2024-04-21 13:16:32			0	35264	0	0	0	17166	15780	148356	27972	953279	37648	106224	0	0	8239	698542	0	0
2024-04-21 13:17:32			0	35276	0	0	0	17142	15770	148384	28025	953236	37636	106215	0	0	8240	698020	0	0
2024-04-21 13:18:32			0	35261	0	0	0	17163	15780	148352	28339	953252	37648	106223	0	0	8239	698682	0	0
2024-04-21 13:19:32			0	35262	0	0	0	17166	15780	148400	27881	953305	37626	106224	0	0	8239	698635	0	0
2024-04-21 13:20:32			0	35269	0	0	0	17205	15790	148296	28010	953348	37660	106239	0	0	8239	698271	0	0
2024-04-21 13:21:32			0	35297	0	0	0	17197	15800	148224	28395	953408	37649	106236	0	0	8241	696930	0	0
2024-04-21 13:22:32			0	35302	0	0	0	17207	15800	148256	27937	953435	37649	106240	0	0	8241	696697	0	0
2024-04-21 13:23:32			0	35319	0	0	0	17176	15800	148088	28079	953364	37650	106228	0	0	8242	695906	0	0
2024-04-21 13:24:32			0	35307	0	0	0	17194	15810	148200	28076	953406	37640	106235	0	0	8242	696427	0	0
2024-04-21 13:25:32			0	35299	0	0	0	17202	15810	148060	27972	953425	37662	106238	0	0	8241	696799	0	0
2024-04-21 13:26:32			0	35283	0	0	0	17189	15810	148124	28062	953346	37628	106233	0	0	8240	697544	0	0
2024-04-21 13:27:32			0	35288	0	0	0	17215	15820	148208	28164	953475	37652	106243	0	0	8240	697274	0	0
2024-04-21 13:28:32			0	35321	0	0	0	17218	15820	148176	28034	953415	37652	106244	0	0	8242	695738	0	0
2024-04-21 13:29:32			0	35317	0	0	0	17220	15830	148088	27816	953457	37652	106245	0	0	8242	695887	0	0
2024-04-21 13:30:32			0	35306	0	0	0	17225	15830	148184	27892	953510	37652	106247	0	0	8241	696398	0	0
2024-04-21 13:31:32			0	35321	0	0	0	17236	15830	148040	27885	953536	37674	106251	0	0	8242	695701	0	0
2024-04-21 13:32:32			0	35315	0	0	0	17238	15840	147980	27987	953526	37653	106252	0	0	8241	695942	0	0
2024-04-21 13:33:32			0	35312	0	0	0	17246	15850	148156	28057	953682	37655	106255	0	0	8241	696044	0	0
2024-04-21 13:34:32			0	35297	0	0	0	17233	15850	148144	27973	953603	37666	106250	0	0	8240	696742	0	0
2024-04-21 13:35:32			0	35289	0	0	0	17228	15860	148176	27838	953638	37655	106248	0	0	8240	697077	0	0
2024-04-21 13:36:32			0	35298	0	0	0	17254	15860	148140	27881	953585	37655	106258	0	0	8240	696658	0	0
2024-04-21 13:37:32			0	35300	0	0	0	17259	15860	148076	27918	953638	37655	106260	0	0	8240	696565	0	0
2024-04-21 13:38:32			0	35319	0	0	0	17267	15850	148048	28391	953648	37654	106263	0	0	8241	695719	0	0
2024-04-21 13:39:32			0	35312	0	0	0	17277	15860	148040	27696	953698	37655	106267	0	0	8241	696007	0	0
2024-04-21 13:40:32			0	35315	0	0	0	17280	15870	147964	27816	953680	37656	106268	0	0	8241	695830	0	0
2024-04-21 13:41:32			0	35323	0	0	0	17259	15890	148036	28037	953757	37667	106260	0	0	8242	695383	0	0
2024-04-21 13:42:32			0	35302	0	0	0	17251	15880	148096	27982	953723	37657	106257	0	0	8241	696397	0	0
2024-04-21 13:43:32			0	35298	0	0	0	17275	15880	148164	28320	953723	37657	106266	0	0	8240	696583	0	0
2024-04-21 13:44:32			0	35289	0	0	0	17293	15880	148140	27928	953749	37657	106273	0	0	8239	697001	0	0
2024-04-21 13:45:32			0	35317	0	0	0	17298	15900	148120	27796	953747	37668	106275	0	0	8241	695624	0	0
2024-04-21 13:46:32			0	35308	0	0	0	17288	15900	148124	27951	953808	37659	106271	0	0	8240	696043	0	0
2024-04-21 13:47:32			0	35320	0	0	0	17280	15900	148048	27994	953729	37648	106268	0	0	8241	695485	0	0
2024-04-21 13:48:32			0	35298	0	0	0	17283	15910	148128	27642	953816	37648	106269	0	0	8240	696470	0	0
2024-04-21 13:49:32			0	35291	0	0	0	17220	15910	148080	28062	953745	37659	106245	0	0	8241	696796	0	0
2024-04-21 13:50:32			0	35300	0	0	0	17251	15910	148152	27900	953790	37648	106257	0	0	8241	696377	0	0
2024-04-21 13:51:32			0	35289	0	0	0	17298	15920	148164	28136	953841	37671	106275	0	0	8239	696851	0	0
2024-04-21 13:52:32			0	35285	0	0	0	17329	15910	148132	27946	953843	37669	106287	0	0	8238	697075	0	0
2024-04-21 13:53:32			0	35312	0	0	0	17329	15930	147960	28143	953901	37671	106287	0	0	8240	695744	0	0
2024-04-21 13:54:32			0	35317	0	0	0	17322	15940	148036	28353	953944	37662	106284	0	0	8240	695474	0	0
2024-04-21 13:55:32			0	35309	0	0	0	17303	15940	148024	28213	953944	37650	106277	0	0	8240	695846	0	0
2024-04-21 13:56:32			0	35320	0	0	0	17259	15930	148092	28426	953901	37650	106260	0	0	8242	695372	0	0
2024-04-21 13:57:32			0	35297	0	0	0	17303	15940	148020	28218	953873	37662	106277	0	0	8240	696404	0	0
2024-04-21 13:58:32			0	35288	0	0	0	17311	15940	148056	27866	953900	37651	106280	0	0	8239	696823	0	0
2024-04-21 13:59:32			0	35305	0	0	0	17303	15940	148128	28303	953918	37662	106277	0	0	8240	696032	0	0
2024-04-21 14:00:32			0	35309	0	0	0	17322	15940	148080	28084	953900	37684	106284	0	0	8240	695846	0	0
2024-04-21 14:01:32			0	35303	0	0	0	17303	15950	148092	27926	953960	37662	106277	0	0	8240	696087	0	0
2024-04-21 14:02:32			0	35286	0	0	0	17280	15950	148064	28039	953934	37672	106268	0	0	8240	696878	0	0
2024-04-21 14:03:32			0	35266	0	0	0	17335	15950	148196	27750	953889	37663	106289	0	0	8237	697809	0	0
2024-04-21 14:04:32			0	35308	0	0	0	17296	15950	148168	27977	953968	37673	106274	0	0	8240	695855	0	0
2024-04-21 14:05:32			0	35275	0	0	0	17303	15970	148156	28230	953940	37674	106277	0	0	8239	697315	0	0
2024-04-21 14:06:32			0	35281	0	0	0	17301	15960	148104	28253	954090	37674	106276	0	0	8239	697073	0	0
2024-04-21 14:07:32			0	35288	0	0	0	17371	15970	148140	27949	954019	37674	106303	0	0	8238	696710	0	0
2024-04-21 14:08:32			0	35300	0	0	0	17322	15970	148048	28129	954054	37675	106284	0	0	8240	696152	0	0
2024-04-21 14:09:32			0	35277	0	0	0	17303	15970	148088	28192	954027	37675	106277	0	0	8239	697222	0	0
2024-04-21 14:10:32			0	35261	0	0	0	17298	15980	148200	27987	954043	37666	106275	0	0	8238	697929	0	0
2024-04-21 14:11:32			0	35261	0	0	0	17301	15980	148120	28207	954088	37654	106276	0	0	8238	697929	0	0
2024-04-21 14:12:32			0	35252	0	0	0	17350	15970	148176	28048	954001	37654	106295	0	0	8237	698386	0	0
2024-04-21 14:13:32			0	35264	0	0	0	17337	15980	148180	27883	954062	37665	106290	0	0	8237	697789	0	0
2024-04-21 14:14:32			0	35274	0	0	0	17309	15980	148164	28126	954035	37675	106279	0	0	8238	697324	0	0
2024-04-21 14:15:32			0	35252	0	0	0	17335	15990	148244	27979	954078	37666	106289	0	0	8237	698311	0	0
2024-04-21 14:16:32			0	35275	0	0	0	17272	15980	148180	28240	954149	37666	106265	0	0	8239	697277	0	0
2024-04-21 14:17:32			0	35226	0	0	0	17311	15970	148424	28098	954027	37665	106280	0	0	8236	699598	0	0
2024-04-21 14:18:32			0	35238	0	0	0	17342	15980	148364	28029	954043	37676	106292	0	0	8236	699001	0	0
2024-04-21 14:19:32			0	35254	0	0	0	17340	15990	148416	28083	954131	37677	106291	0	0	8237	698217	0	0
2024-04-21 14:20:32			0	35267	0	0	0	17389	15990	148244	28190	954210	37666	106310	0	0	8237	697612	0	0
2024-04-21 14:21:32			0	35288	0	0	0	17399	16010	148224	28194	954216	37667	106314	0	0	8238	696560	0	0
2024-04-21 14:22:32			0	35297	0	0	0	17384	16010	148180	28280	954242	37667	106308	0	0	8239	696141	0	0
2024-04-21 14:23:32			0	35304	0	0	0	17394	16010	148128	28353	954303	37678	106312	0	0	8239	695816	0	0
2024-04-21 14:24:32			0	35315	0	0	0	17402	16010	148056	28150	954224	37667	106315	0	0	8239	695305	0	0
2024-04-21 14:25:32			0	35312	0	0	0	17407	16020	147964	27904	954311	37679	106317	0	0	8239	695406	0	0
2024-04-21 14:26:32			0	35320	0	0	0	17394	16020	147988	27885	954285	37679	106312	0	0	8240	695035	0	0
2024-04-21 14:27:32			0	35311	0	0	0	17397	16010	147964	27758	954251	37667	106313	0	0	8239	695490	0	0
2024-04-21 14:28:32			0	35337	0	0	0	17405	16020	147988	27821	954259	37668	106316	0	0	8241	694246	0	0
2024-04-21 14:29:32			0	35324	0	0	0	17407	16030	147908	27966	954249	37680	106317	0	0	8240	694812	0	0
2024-04-21 14:30:32			0	35348	0	0	0	17438	16040	147848	28020	954370	37681	106329	0	0	8241	693661	0	0
2024-04-21 14:31:32			0	35330	0	0	0	17441	16040	147848	28079	954370	37681	106330	0	0	8240	694496	0	0
2024-04-21 14:32:32			0	35363	0	0	0	17431	16040	147812	27750	954397	37692	106326	0	0	8242	692966	0	0
2024-04-21 14:33:32			0	35379	0	0	0	17415	16050	147788	27932	954395	37670	106320	0	0	8243	692187	0	0
2024-04-21 14:34:32			0	35356	0	0	0	17425	16060	147772	27737	954376	37694	106324	0	0	8241	693215	0	0
2024-04-21 14:35:32			0	35377	0	0	0	17433	16050	147684	27942	954439	37682	106327	0	0	8242	692280	0	0
2024-04-21 14:36:32			0	35382	0	0	0	17438	16040	147692	28013	954431	37681	106329	0	0	8243	692085	0	0
2024-04-21 14:37:32			0	35366	0	0	0	17449	16040	147688	27874	954423	37681	106333	0	0	8241	692826	0	0
2024-04-21 14:38:32			0	35401	0	0	0	17459	16060	147612	28192	954455	37671	106337	0	0	8243	691132	0	0
2024-04-21 14:39:32			0	35408	0	0	0	17470	16060	147588	28360	954595	37682	106341	0	0	8244	690808	0	0
2024-04-21 14:40:32			0	35417	0	0	0	17457	16070	147480	28214	954472	37672	106336	0	0	8244	690355	0	0
2024-04-21 14:41:32			0	35398	0	0	0	17462	16060	147532	27913	954490	37682	106338	0	0	8243	691271	0	0
2024-04-21 14:42:32			0	35403	0	0	0	17459	16080	147620	28199	954541	37695	106337	0	0	8244	690965	0	0
2024-04-21 14:43:32			0	35419	0	0	0	17464	16080	147520	27982	954541	37673	106339	0	0	8244	690225	0	0
2024-04-21 14:44:32			0	35412	0	0	0	17477	16080	147416	27821	954496	37685	106344	0	0	8244	690549	0	0
2024-04-21 14:45:32			0	35425	0	0	0	17477	16080	147400	28053	954593	37684	106344	0	0	8244	689948	0	0
2024-04-21 14:46:32			0	35419	0	0	0	17441	16080	147448	28142	954601	37685	106330	0	0	8245	690225	0	0
2024-04-21 14:47:32			0	35420	0	0	0	17462	16090	147544	27996	954583	37685	106338	0	0	8244	690142	0	0
2024-04-21 14:48:32			0	35416	0	0	0	17472	16080	147488	27689	954514	37695	106342	0	0	8244	690364	0	0
2024-04-21 14:49:32			0	35420	0	0	0	17464	16090	147476	28166	954531	37685	106339	0	0	8244	690142	0	0
2024-04-21 14:50:32			0	35437	0	0	0	17472	16090	147452	28188	954618	37686	106342	0	0	8245	689357	0	0
2024-04-21 14:51:32			0	35428	0	0	0	17472	16100	147400	27578	954573	37686	106342	0	0	8245	689735	0	0
2024-04-21 14:52:32			0	35421	0	0	0	17483	16090	147420	27776	954583	37685	106346	0	0	8244	690096	0	0
2024-04-21 14:53:32			0	35436	0	0	0	17475	16100	147472	27878	954573	37686	106343	0	0	8245	689366	0	0
2024-04-21 14:54:32			0	35431	0	0	0	17485	16100	147440	28024	954634	37687	106347	0	0	8245	689597	0	0
2024-04-21 14:55:32			0	35435	0	0	0	17488	16110	147468	28017	954589	37676	106348	0	0	8245	689375	0	0
2024-04-21 14:56:32			0	35426	0	0	0	17470	16110	147388	27840	954642	37698	106341	0	0	8245	689790	0	0
2024-04-21 14:57:32			0	35422	0	0	0	17464	16100	147500	28096	954547	37697	106339	0	0	8245	690012	0	0
2024-04-21 14:58:32			0	35407	0	0	0	17472	16100	147424	27979	954608	37698	106342	0	0	8244	690705	0	0
2024-04-21 14:59:32			0	35426	0	0	0	17454	16100	147600	27982	954581	37687	106335	0	0	8245	689828	0	0
2024-04-21 15:00:32			0	35408	0	0	0	17464	16100	147488	28259	954581	37687	106339	0	0	8244	690659	0	0
2024-04-21 15:01:32			0	35408	0	0	0	17446	16100	147484	28397	954529	37708	106332	0	0	8244	690659	0	0
2024-04-21 15:02:32			0	35389	0	0	0	17449	16100	147668	27982	954573	37686	106333	0	0	8243	691538	0	0
2024-04-21 15:03:32			0	35374	0	0	0	17444	16110	147668	28256	954616	37687	106331	0	0	8242	692194	0	0
2024-04-21 15:04:32			0	35383	0	0	0	17462	16100	147600	28022	954547	37686	106338	0	0	8242	691815	0	0
2024-04-21 15:05:32			0	35391	0	0	0	17470	16100	147608	28511	954608	37676	106341	0	0	8243	691445	0	0
2024-04-21 15:06:32			0	35384	0	0	0	17459	16110	147552	28388	954616	37698	106337	0	0	8243	691732	0	0
2024-04-21 15:07:32			0	35353	0	0	0	17449	16110	147616	28258	954624	37687	106333	0	0	8241	693167	0	0
2024-04-21 15:08:32			0	35348	0	0	0	17483	16110	147668	28523	954616	37687	106346	0	0	8240	693399	0	0
2024-04-21 15:09:32			0	35371	0	0	0	17472	16110	147736	28273	954668	37698	106342	0	0	8242	692333	0	0
2024-04-21 15:10:32			0	35377	0	0	0	17498	16120	147716	27911	954711	37709	106352	0	0	8242	692018	0	0
2024-04-21 15:11:32			0	35389	0	0	0	17485	16120	147584	28083	954667	37688	106347	0	0	8242	691463	0	0
2024-04-21 15:12:32			0	35383	0	0	0	17503	16120	147696	27906	954720	37699	106354	0	0	8242	691741	0	0
2024-04-21 15:13:32			0	35394	0	0	0	17493	16130	147572	27703	954709	37689	106350	0	0	8243	691194	0	0
2024-04-21 15:14:32			0	35393	0	0	0	17506	16120	147560	27802	954711	37699	106355	0	0	8242	691278	0	0
2024-04-21 15:15:32			0	35386	0	0	0	17522	16130	147656	28249	954728	37699	106361	0	0	8242	691564	0	0
2024-04-21 15:16:32			0	35380	0	0	0	17519	16130	147604	28220	954709	37700	106360	0	0	8241	691842	0	0
2024-04-21 15:17:32			0	35394	0	0	0	17529	16130	147588	28032	954762	37710	106364	0	0	8242	691194	0	0
2024-04-21 15:18:32			0	35380	0	0	0	17519	16140	147544	27975	954805	37701	106360	0	0	8242	691805	0	0
2024-04-21 15:19:32			0	35402	0	0	0	17493	16140	147512	27998	954778	37690	106350	0	0	8243	690787	0	0
2024-04-21 15:20:32			0	35387	0	0	0	17501	16130	147604	28112	954709	37700	106353	0	0	8242	691518	0	0
2024-04-21 15:21:32			0	35399	0	0	0	17524	16140	147636	27970	954752	37701	106362	0	0	8242	690926	0	0
2024-04-21 15:22:32			0	35378	0	0	0	17514	16140	147528	27940	954805	37701	106358	0	0	8241	691897	0	0
2024-04-21 15:23:32			0	35386	0	0	0	17522	16140	147616	28044	954778	37690	106361	0	0	8242	691527	0	0
2024-04-21 15:24:32			0	35389	0	0	0	17511	16150	147684	27900	954742	37691	106357	0	0	8242	691351	0	0
2024-04-21 15:25:32			0	35359	0	0	0	17506	16140	147740	27874	954744	37710	106355	0	0	8241	692777	0	0
2024-04-21 15:26:32			0	35342	0	0	0	17514	16140	147752	28256	954778	37701	106358	0	0	8239	693565	0	0
2024-04-21 15:27:32			0	35368	0	0	0	17519	16150	147768	27895	954900	37702	106360	0	0	8241	692323	0	0
2024-04-21 15:28:32			0	35339	0	0	0	17522	16150	147688	27947	954874	37691	106361	0	0	8239	693666	0	0
2024-04-21 15:29:32			0	35329	0	0	0	17509	16150	147712	28298	954795	37702	106356	0	0	8239	694130	0	0
2024-04-21 15:30:32			0	35323	0	0	0	17503	16150	147848	28393	954734	37702	106354	0	0	8239	694408	0	0
2024-04-21 15:31:32			0	35310	0	0	0	17514	16160	148028	27864	954724	37691	106358	0	0	8238	694974	0	0
2024-04-21 15:32:32			0	35289	0	0	0	17503	16150	148060	28142	954847	37702	106354	0	0	8237	695987	0	0
2024-04-21 15:33:32			0	35259	0	0	0	17506	16150	148096	27876	954821	37702	106355	0	0	8235	697382	0	0
2024-04-21 15:34:32			0	35278	0	0	0	17509	16160	148140	27687	954803	37702	106356	0	0	8236	696461	0	0
2024-04-21 15:35:32			0	35234	0	0	0	17498	16150	148176	27932	954768	37691	106352	0	0	8234	698546	0	0
2024-04-21 15:36:32			0	35263	0	0	0	17501	16160	148192	28011	954803	37691	106353	0	0	8235	697158	0	0
2024-04-21 15:37:32			0	35248	0	0	0	17503	16150	148304	27920	954786	37691	106354	0	0	8235	697894	0	0
2024-04-21 15:38:32			0	35250	0	0	0	17514	16150	148248	27902	954813	37691	106358	0	0	8234	697801	0	0
2024-04-21 15:39:32			0	35238	0	0	0	17498	16150	148232	27781	954813	37702	106352	0	0	8234	698360	0	0
2024-04-21 15:40:32			0	35218	0	0	0	17501	16150	148292	27817	954795	37691	106353	0	0	8233	699292	0	0
2024-04-21 15:41:32			0	35215	0	0	0	17514	16150	148296	27805	954821	37702	106358	0	0	8232	699432	0	0
2024-04-21 15:42:32			0	35208	0	0	0	17519	16150	148448	28152	954847	37712	106360	0	0	8232	699759	0	0
2024-04-21 15:43:32			0	35210	0	0	0	17516	16170	148392	28039	954864	37703	106359	0	0	8232	699590	0	0
2024-04-21 15:44:32			0	35223	0	0	0	17535	16170	148428	27940	954845	37704	106366	0	0	8233	698984	0	0
2024-04-21 15:45:32			0	35229	0	0	0	17529	16160	148324	27913	954882	37702	106364	0	0	8233	698742	0	0
2024-04-21 15:46:32			0	35231	0	0	0	17529	16160	148388	28336	954882	37712	106364	0	0	8233	698649	0	0
2024-04-21 15:47:32			0	35224	0	0	0	17516	16170	148308	27864	954890	37692	106359	0	0	8233	698937	0	0
2024-04-21 15:48:32			0	35207	0	0	0	17540	16160	148336	28350	954829	37691	106368	0	0	8232	699768	0	0
2024-04-21 15:49:32			0	35234	0	0	0	17548	16170	148328	28051	954872	37692	106371	0	0	8233	698471	0	0
2024-04-21 15:50:32			0	35239	0	0	0	17542	16170	148316	28050	954924	37692	106369	0	0	8233	698238	0	0
2024-04-21 15:51:32			0	35252	0	0	0	17535	16180	148244	28098	954933	37714	106366	0	0	8234	697595	0	0
2024-04-21 15:52:32			0	35267	0	0	0	17540	16170	148248	28436	954924	37692	106368	0	0	8235	696935	0	0
2024-04-21 15:53:32			0	35242	0	0	0	17537	16180	148296	27673	954906	37704	106367	0	0	8234	698061	0	0
2024-04-21 15:54:32			0	35265	0	0	0	17537	16180	148268	28116	954967	37715	106367	0	0	8235	696990	0	0
2024-04-21 15:55:32			0	35261	0	0	0	17532	16180	148136	27918	954967	37704	106365	0	0	8235	697176	0	0
2024-04-21 15:56:32			0	35291	0	0	0	17542	16180	148148	27930	954941	37704	106369	0	0	8236	695781	0	0
2024-04-21 15:57:32			0	35267	0	0	0	17537	16180	148128	27355	954888	37704	106367	0	0	8235	696897	0	0
2024-04-21 15:58:32			0	35269	0	0	0	17548	16180	148168	27907	954914	37704	106371	0	0	8235	696804	0	0
2024-04-21 15:59:32			0	35254	0	0	0	17550	16190	148124	27743	954896	37726	106372	0	0	8234	697464	0	0
2024-04-21 16:00:32			0	35280	0	0	0	17563	16190	148124	27777	954949	37704	106377	0	0	8235	696255	0	0
2024-04-21 16:01:32			0	35278	0	0	0	17553	16180	148188	27805	954941	37715	106373	0	0	8235	696385	0	0
2024-04-21 16:02:32			0	35275	0	0	0	17555	16190	148176	27822	954975	37704	106374	0	0	8235	696487	0	0
2024-04-21 16:03:32			0	35285	0	0	0	17550	16200	148272	27824	955018	37695	106372	0	0	8236	695985	0	0
2024-04-21 16:04:32			0	35280	0	0	0	17553	16190	148192	27713	954957	37715	106373	0	0	8236	696255	0	0
2024-04-21 16:05:32			0	35282	0	0	0	17555	16180	148240	27343	954967	37715	106374	0	0	8236	696199	0	0
2024-04-21 16:06:32			0	35280	0	0	0	17561	16190	148200	27601	955010	37726	106376	0	0	8235	696255	0	0
2024-04-21 16:07:32			0	35275	0	0	0	17558	16200	148244	27845	955000	37706	106375	0	0	8235	696450	0	0
2024-04-21 16:08:32			0	35266	0	0	0	17550	16190	148160	27533	954957	37705	106372	0	0	8235	696906	0	0
2024-04-21 16:09:32			0	35272	0	0	0	17548	16200	148144	27854	955044	37706	106371	0	0	8235	696589	0	0
2024-04-21 16:10:32			0	35281	0	0	0	17548	16190	148200	27838	954957	37705	106371	0	0	8236	696208	0	0
2024-04-21 16:11:32			0	35265	0	0	0	17548	16190	148252	27708	954957	37705	106371	0	0	8235	696952	0	0
2024-04-21 16:12:32			0	35281	0	0	0	17550	16180	148172	27757	954941	37704	106372	0	0	8236	696246	0	0
2024-04-21 16:13:32			0	35255	0	0	0	17540	16200	148128	27639	955026	37695	106368	0	0	8235	697380	0	0
2024-04-21 16:14:32			0	35284	0	0	0	17553	16190	148160	27963	955002	37715	106373	0	0	8236	696069	0	0
2024-04-21 16:15:32			0	35267	0	0	0	17563	16200	148196	27807	954939	37716	106377	0	0	8235	696822	0	0
2024-04-21 16:16:32			0	35259	0	0	0	17555	16190	148148	27899	954983	37694	106374	0	0	8234	697232	0	0
2024-04-21 16:17:32			0	35270	0	0	0	17561	16190	148268	28015	955010	37715	106376	0	0	8235	696720	0	0
2024-04-21 16:18:32			0	35265	0	0	0	17550	16200	148348	28024	954973	37716	106372	0	0	8235	696915	0	0
2024-04-21 16:19:32			0	35261	0	0	0	17553	16190	148164	27810	955010	37694	106373	0	0	8235	697138	0	0
2024-04-21 16:20:32			0	35263	0	0	0	17558	16190	148216	27897	955010	37694	106375	0	0	8235	697045	0	0
2024-04-21 16:21:32			0	35256	0	0	0	17532	16190	148308	27876	954957	37694	106365	0	0	8235	697371	0	0
2024-04-21 16:22:32			0	35253	0	0	0	17542	16190	148248	27942	954957	37715	106369	0	0	8234	697511	0	0
2024-04-21 16:23:32			0	35261	0	0	0	17540	16190	148276	27843	954957	37715	106368	0	0	8235	697138	0	0
2024-04-21 16:24:32			0	35268	0	0	0	17540	16190	148248	28124	955010	37705	106368	0	0	8235	696813	0	0
2024-04-21 16:25:32			0	35268	0	0	0	17514	16200	148172	27890	954965	37706	106358	0	0	8236	696775	0	0
2024-04-21 16:26:32			0	35269	0	0	0	17509	16190	148264	27980	954957	37705	106356	0	0	8236	696766	0	0
2024-04-21 16:27:32			0	35240	0	0	0	17516	16190	148332	28006	954931	37694	106359	0	0	8234	698116	0	0
2024-04-21 16:28:32			0	35230	0	0	0	17501	16190	148432	28100	954931	37705	106353	0	0	8234	698582	0	0
2024-04-21 16:29:32			0	35209	0	0	0	17522	16190	148364	27942	954922	37726	106361	0	0	8232	699561	0	0
2024-04-21 16:30:32			0	35212	0	0	0	17529	16180	148476	28119	954888	37704	106364	0	0	8232	699459	0	0
2024-04-21 16:31:32			0	35213	0	0	0	17527	16180	148444	28095	954914	37704	106363	0	0	8232	699412	0	0
2024-04-21 16:32:32			0	35215	0	0	0	17514	16190	148480	27859	954922	37715	106358	0	0	8233	699281	0	0
2024-04-21 16:33:32			0	35188	0	0	0	17514	16190	148556	27715	954922	37704	106358	0	0	8231	700541	0	0
2024-04-21 16:34:32			0	35219	0	0	0	17524	16180	148516	27838	954914	37704	106362	0	0	8233	699132	0	0
2024-04-21 16:35:32			0	35198	0	0	0	17516	16180	148512	27807	954906	37704	106359	0	0	8232	700112	0	0
2024-04-21 16:36:32			0	35193	0	0	0	17522	16180	148464	27947	954880	37704	106361	0	0	8231	700345	0	0
2024-04-21 16:37:32			0	35207	0	0	0	17501	16170	148528	27632	954924	37704	106353	0	0	8232	699730	0	0
2024-04-21 16:38:32			0	35192	0	0	0	17516	16180	148508	27552	954880	37704	106359	0	0	8231	700392	0	0
2024-04-21 16:39:32			0	35215	0	0	0	17527	16180	148496	27845	954880	37704	106363	0	0	8232	699319	0	0
2024-04-21 16:40:32			0	35208	0	0	0	17529	16170	148472	28176	954898	37692	106364	0	0	8232	699683	0	0
2024-04-21 16:41:32			0	35198	0	0	0	17535	16180	148416	28292	954914	37693	106366	0	0	8231	700112	0	0
2024-04-21 16:42:32			0	35215	0	0	0	17503	16180	148412	27803	954941	37693	106354	0	0	8233	699319	0	0
2024-04-21 16:43:32			0	35213	0	0	0	17527	16180	148448	28037	954880	37692	106363	0	0	8232	699412	0	0
2024-04-21 16:44:32			0	35219	0	0	0	17545	16180	148488	27972	954914	37704	106370	0	0	8232	699132	0	0
2024-04-21 16:45:32			0	35211	0	0	0	17540	16190	148368	28086	954949	37704	106368	0	0	8232	699468	0	0
2024-04-21 16:46:32			0	35223	0	0	0	17540	16180	148424	28088	954967	37704	106368	0	0	8233	698946	0	0
2024-04-21 16:47:32			0	35224	0	0	0	17548	16180	148376	28180	954967	37704	106371	0	0	8233	698899	0	0
2024-04-21 16:48:32			0	35226	0	0	0	17535	16180	148384	28213	954906	37704	106366	0	0	8233	698806	0	0
2024-04-21 16:49:32			0	35236	0	0	0	17527	16180	148532	28114	954993	37704	106363	0	0	8234	698340	0	0
2024-04-21 16:50:32			0	35224	0	0	0	17535	16180	148576	28161	954914	37704	106366	0	0	8233	698899	0	0
2024-04-21 16:51:32			0	35224	0	0	0	17545	16190	148484	28305	954957	37705	106370	0	0	8233	698862	0	0
2024-04-21 16:52:32			0	35202	0	0	0	17542	16190	148500	27930	954922	37704	106369	0	0	8231	699888	0	0
2024-04-21 16:53:32			0	35214	0	0	0	17529	16180	148580	27951	954933	37704	106364	0	0	8232	699365	0	0
2024-04-21 16:54:32			0	35209	0	0	0	17527	16180	148608	27991	954933	37692	106363	0	0	8232	699599	0	0
2024-04-21 16:55:32			0	35198	0	0	0	17532	16180	148596	27991	954941	37704	106365	0	0	8231	700112	0	0
2024-04-21 16:56:32			0	35188	0	0	0	17537	16180	148632	27887	954933	37704	106367	0	0	8231	700579	0	0
2024-04-21 16:57:32			0	35198	0	0	0	17535	16180	148676	27814	954985	37692	106366	0	0	8231	700112	0	0
2024-04-21 16:58:32			0	35200	0	0	0	17558	16190	148652	28048	954896	37704	106375	0	0	8231	699981	0	0
2024-04-21 16:59:32			0	35232	0	0	0	17563	16190	148592	27897	954975	37693	106377	0	0	8233	698489	0	0
2024-04-21 17:00:32			0	35229	0	0	0	17574	16190	148424	28025	954983	37705	106381	0	0	8232	698629	0	0
2024-04-21 17:01:32			0	35259	0	0	0	17571	16200	148456	27885	955018	37716	106380	0	0	8234	697194	0	0
2024-04-21 17:02:32			0	35254	0	0	0	17558	16200	148348	27979	955044	37706	106375	0	0	8234	697426	0	0
2024-04-21 17:03:32			0	35247	0	0	0	17561	16190	148408	27959	955036	37705	106376	0	0	8234	697790	0	0
2024-04-21 17:04:32			0	35250	0	0	0	17555	16200	148416	27937	955044	37695	106374	0	0	8234	697613	0	0
2024-04-21 17:05:32			0	35229	0	0	0	17550	16200	148444	27920	955018	37716	106372	0	0	8233	698591	0	0
2024-04-21 17:06:32			0	35225	0	0	0	17545	16190	148360	28008	955010	37694	106370	0	0	8233	698815	0	0
2024-04-21 17:07:32			0	35217	0	0	0	17550	16200	148552	28407	955105	37716	106372	0	0	8232	699150	0	0
2024-04-21 17:08:32			0	35191	0	0	0	17548	16190	148692	28263	954983	37705	106371	0	0	8231	700401	0	0
2024-04-21 17:09:32			0	35193	0	0	0	17550	16200	148640	28018	954947	37716	106372	0	0	8231	700270	0	0
2024-04-21 17:10:32			0	35201	0	0	0	17553	16190	148624	27724	954983	37694	106373	0	0	8231	699934	0	0
2024-04-21 17:11:32			0	35187	0	0	0	17563	16190	148596	28017	955036	37705	106377	0	0	8230	700588	0	0
2024-04-21 17:12:32			0	35210	0	0	0	17566	16190	148528	27583	955002	37704	106378	0	0	8232	699514	0	0
2024-04-21 17:13:32			0	35232	0	0	0	17574	16200	148576	27966	955018	37695	106381	0	0	8233	698451	0	0
2024-04-21 17:14:32			0	35223	0	0	0	17571	16200	148468	27796	955071	37706	106380	0	0	8232	698870	0	0
2024-04-21 17:15:32			0	35229	0	0	0	17576	16200	148476	28011	955071	37716	106382	0	0	8232	698591	0	0
2024-04-21 17:16:32			0	35223	0	0	0	17579	16200	148504	28400	955097	37706	106383	0	0	8232	698870	0	0
2024-04-21 17:17:32			0	35228	0	0	0	17597	16210	148456	28032	955087	37706	106390	0	0	8232	698600	0	0
2024-04-21 17:18:32			0	35254	0	0	0	17584	16210	148368	27880	955121	37707	106385	0	0	8234	697389	0	0
2024-04-21 17:19:32			0	35251	0	0	0	17594	16220	148348	27836	955058	37718	106389	0	0	8233	697491	0	0
2024-04-21 17:20:32			0	35255	0	0	0	17594	16210	148380	28478	955095	37717	106389	0	0	8234	697342	0	0
2024-04-21 17:21:32			0	35239	0	0	0	17594	16210	148328	27753	955095	37728	106389	0	0	8233	698087	0	0
2024-04-21 17:22:32			0	35243	0	0	0	17594	16220	148332	27807	955111	37718	106389	0	0	8233	697863	0	0
2024-04-21 17:23:32			0	35254	0	0	0	17605	16210	148288	28036	955148	37717	106393	0	0	8233	697389	0	0
2024-04-21 17:24:32			0	35287	0	0	0	17612	16240	148200	27779	955162	37720	106396	0	0	8235	695742	0	0
2024-04-21 17:25:32			0	35279	0	0	0	17615	16240	148256	27741	955170	37720	106397	0	0	8235	696113	0	0
2024-04-21 17:26:32			0	35290	0	0	0	17615	16240	148188	27481	955188	37708	106397	0	0	8235	695602	0	0
2024-04-21 17:27:32			0	35282	0	0	0	17618	16240	148204	27772	955196	37731	106398	0	0	8235	695974	0	0
2024-04-21 17:28:32			0	35305	0	0	0	17623	16240	148220	27892	955249	37720	106400	0	0	8236	694906	0	0
2024-04-21 17:29:32			0	35305	0	0	0	17628	16240	148092	27590	955223	37731	106402	0	0	8236	694906	0	0
2024-04-21 17:30:32			0	35299	0	0	0	17633	16250	148168	28242	955266	37720	106404	0	0	8236	695147	0	0
2024-04-21 17:31:32			0	35306	0	0	0	17625	16250	148048	27873	955371	37709	106401	0	0	8236	694822	0	0
2024-04-21 17:32:32			0	35322	0	0	0	17641	16250	147968	27921	955284	37731	106407	0	0	8237	694080	0	0
2024-04-21 17:33:32			0	35335	0	0	0	17641	16260	148060	27564	955327	37721	106407	0	0	8237	693439	0	0
2024-04-21 17:34:32			0	35348	0	0	0	17636	16260	147796	27744	955327	37721	106405	0	0	8238	692837	0	0
2024-04-21 17:35:32			0	35372	0	0	0	17651	16260	147864	27750	955274	37732	106411	0	0	8239	691726	0	0
2024-04-21 17:36:32			0	35365	0	0	0	17651	16260	147788	27684	955361	37722	106411	0	0	8239	692050	0	0
2024-04-21 17:37:32			0	35356	0	0	0	17646	16270	147816	27992	955343	37733	106409	0	0	8239	692429	0	0
2024-04-21 17:38:32			0	35362	0	0	0	17651	16260	147792	27991	955387	37722	106411	0	0	8239	692189	0	0
2024-04-21 17:39:32			0	35369	0	0	0	17651	16270	147784	28022	955351	37722	106411	0	0	8239	691828	0	0
2024-04-21 17:40:32			0	35375	0	0	0	17651	16270	147812	27701	955369	37733	106411	0	0	8240	691550	0	0
2024-04-21 17:41:32			0	35376	0	0	0	17659	16260	147764	27784	955335	37722	106414	0	0	8239	691541	0	0
2024-04-21 17:42:32			0	35408	0	0	0	17667	16280	147688	27838	955359	37723	106417	0	0	8241	689988	0	0
2024-04-21 17:43:32			0	35406	0	0	0	17659	16280	147636	27400	955412	37734	106414	0	0	8241	690081	0	0
2024-04-21 17:44:32			0	35430	0	0	0	17670	16280	147696	27585	955446	37735	106418	0	0	8242	688973	0	0
2024-04-21 17:45:32			0	35418	0	0	0	17670	16290	147656	27835	955349	37724	106418	0	0	8242	689489	0	0
2024-04-21 17:46:32			0	35428	0	0	0	17670	16280	147484	27687	955420	37713	106418	0	0	8242	689065	0	0
2024-04-21 17:47:32			0	35413	0	0	0	17675	16290	147592	27751	955463	37713	106420	0	0	8241	689720	0	0
2024-04-21 17:48:32			0	35421	0	0	0	17680	16290	147616	27407	955436	37735	106422	0	0	8242	689351	0	0
2024-04-21 17:49:32			0	35425	0	0	0	17677	16290	147524	27687	955436	37724	106421	0	0	8242	689166	0	0
2024-04-21 17:50:32			0	35409	0	0	0	17688	16290	147492	27415	955402	37735	106425	0	0	8241	689905	0	0
2024-04-21 17:51:32			0	35435	0	0	0	17680	16300	147532	27632	955418	37725	106422	0	0	8243	688668	0	0
2024-04-21 17:52:32			0	35434	0	0	0	17677	16300	147516	27229	955444	37736	106421	0	0	8243	688714	0	0
2024-04-21 17:53:32			0	35434	0	0	0	17672	16300	147640	27637	955471	37725	106419	0	0	8243	688714	0	0
2024-04-21 17:54:32			0	35419	0	0	0	17662	16300	147580	27526	955452	37737	106415	0	0	8242	689406	0	0
2024-04-21 17:55:32			0	35396	0	0	0	17667	16310	147624	27305	955434	37737	106417	0	0	8241	690430	0	0
2024-04-21 17:56:32			0	35419	0	0	0	17659	16300	147608	27606	955373	37737	106414	0	0	8242	689406	0	0
2024-04-21 17:57:32			0	35404	0	0	0	17641	16300	147580	27500	955471	37713	106407	0	0	8241	690098	0	0
2024-04-21 17:58:32			0	35406	0	0	0	17636	16300	147696	27566	955373	37725	106405	0	0	8242	690006	0	0
2024-04-21 17:59:32			0	35383	0	0	0	17641	16300	147708	27400	955373	37725	106407	0	0	8240	691068	0	0
2024-04-21 18:00:32			0	35375	0	0	0	17628	16290	147808	27561	955304	37713	106402	0	0	8240	691476	0	0
2024-04-21 18:01:32			0	35355	0	0	0	17610	16280	147820	27523	955394	37724	106395	0	0	8239	692438	0	0
2024-04-21 18:02:32			0	35338	0	0	0	17576	16280	147864	27556	955288	37724	106382	0	0	8239	693225	0	0
2024-04-21 18:03:32			0	35250	0	0	0	17498	16260	148304	27569	955176	37711	106352	0	0	8235	697387	0	0
2024-04-21 18:04:32			0	35095	0	0	0	17511	16250	148875	27329	955108	37709	106357	0	0	8226	704665	0	0
2024-04-21 18:05:32			0	35004	0	0	0	17496	16240	149231	27876	955065	37708	106351	0	0	8221	708981	0	0
2024-04-21 18:06:32			0	34947	0	0	0	17490	16230	149607	27883	955014	37718	106349	0	0	8218	711709	0	0
2024-04-21 18:07:32			0	34879	0	0	0	17483	16220	149911	27708	955006	37697	106346	0	0	8215	714966	0	0
2024-04-21 18:08:32			0	34835	0	0	0	17470	16210	150095	27854	954910	37717	106341	0	0	8212	717093	0	0
2024-04-21 18:09:32			0	34772	0	0	0	17444	16210	150407	27989	954850	37706	106331	0	0	8209	720091	0	0
2024-04-21 18:10:32			0	34752	0	0	0	17438	16190	150579	27940	954825	37694	106329	0	0	8208	721123	0	0
2024-04-21 18:11:32			0	34698	0	0	0	17420	16180	150551	27852	954827	37692	106322	0	0	8205	723743	0	0
2024-04-21 18:12:32			0	34703	0	0	0	17418	16180	150655	27630	954801	37692	106321	0	0	8206	723503	0	0
2024-04-21 18:13:32			0	34688	0	0	0	17444	16150	150651	27673	954689	37702	106331	0	0	8204	724339	0	0
2024-04-21 18:14:32			0	34687	0	0	0	17412	16140	150775	27672	954699	37701	106319	0	0	8205	724426	0	0
2024-04-21 18:15:32			0	34667	0	0	0	17420	16140	150935	27753	954665	37700	106322	0	0	8203	725384	0	0
2024-04-21 18:16:32			0	34672	0	0	0	17381	16130	150779	27821	954649	37688	106307	0	0	8204	725183	0	0
2024-04-21 18:17:32			0	34646	0	0	0	17402	16120	150859	27840	954553	37687	106315	0	0	8202	726470	0	0
2024-04-21 18:18:32			0	34620	0	0	0	17389	16110	151147	27521	954589	37687	106310	0	0	8201	727758	0	0
2024-04-21 18:19:32			0	34604	0	0	0	17392	16100	151087	27836	954520	37697	106311	0	0	8200	728566	0	0
2024-04-21 18:20:32			0	34623	0	0	0	17397	16100	151303	27246	954520	37675	106313	0	0	8201	727653	0	0
2024-04-21 18:21:32			0	34594	0	0	0	17399	16090	151427	27616	954486	37686	106314	0	0	8199	729087	0	0
2024-04-21 18:22:32			0	34580	0	0	0	17397	16090	151343	27473	954504	37696	106313	0	0	8199	729761	0	0
2024-04-21 18:23:32			0	34575	0	0	0	17407	16080	151395	27452	954549	37696	106317	0	0	8198	730041	0	0
2024-04-21 18:24:32			0	34576	0	0	0	17415	16070	151327	27329	954480	37695	106320	0	0	8198	730032	0	0
2024-04-21 18:25:32			0	34575	0	0	0	17410	16090	151443	27488	954478	37685	106318	0	0	8198	730002	0	0
2024-04-21 18:26:32			0	34574	0	0	0	17415	16080	151455	27279	954541	37695	106320	0	0	8198	730089	0	0
2024-04-21 18:27:32			0	34565	0	0	0	17412	16070	151423	27547	954498	37694	106319	0	0	8197	730563	0	0
2024-04-21 18:28:32			0	34576	0	0	0	17420	16080	151387	27632	954514	37695	106322	0	0	8198	729993	0	0
2024-04-21 18:29:32			0	34568	0	0	0	17446	16080	151575	27590	954462	37695	106332	0	0	8197	730378	0	0
2024-04-21 18:30:32			0	34608	0	0	0	17459	16080	151351	27457	954514	37695	106337	0	0	8199	728453	0	0
2024-04-21 18:31:32			0	34632	0	0	0	17446	16070	151183	27393	954533	37695	106332	0	0	8201	727338	0	0
2024-04-21 18:32:32			0	34658	0	0	0	17449	16080	151023	27476	954549	37696	106333	0	0	8202	726051	0	0
2024-04-21 18:33:32			0	34702	0	0	0	17431	16090	150891	27504	954557	37685	106326	0	0	8205	723903	0	0
2024-04-21 18:34:32			0	34722	0	0	0	17428	16080	150879	27332	954549	37707	106325	0	0	8206	722985	0	0
2024-04-21 18:35:32			0	34733	0	0	0	17438	16080	150783	27815	954549	37685	106329	0	0	8206	722459	0	0
2024-04-21 18:36:32			0	34727	0	0	0	17420	16080	150627	27656	954601	37707	106322	0	0	8206	722746	0	0
2024-04-21 18:37:32			0	34733	0	0	0	17418	16080	150703	27279	954549	37707	106321	0	0	8207	722459	0	0
2024-04-21 18:38:32			0	34718	0	0	0	17392	16070	150755	27599	954472	37694	106311	0	0	8206	723215	0	0
2024-04-21 18:39:32			0	34728	0	0	0	17394	16070	150663	27260	954506	37695	106312	0	0	8207	722737	0	0
2024-04-21 18:40:32			0	34726	0	0	0	17394	16060	150751	27289	954490	37694	106312	0	0	8207	722872	0	0
2024-04-21 18:41:32			0	34740	0	0	0	17412	16060	150763	27253	954437	37705	106319	0	0	8207	722202	0	0
2024-04-21 18:42:32			0	34732	0	0	0	17376	16060	150731	27460	954403	37682	106305	0	0	8207	722585	0	0
2024-04-21 18:43:32			0	34735	0	0	0	17366	16050	150631	27419	954421	37682	106301	0	0	8208	722480	0	0
2024-04-21 18:44:32			0	34761	0	0	0	17368	16040	150575	27552	954352	37681	106302	0	0	8209	721277	0	0
2024-04-21 18:45:32			0	34755	0	0	0	17350	16050	150551	27405	954395	37682	106295	0	0	8209	721525	0	0
2024-04-21 18:46:32			0	34752	0	0	0	17361	16040	150515	27348	954326	37703	106299	0	0	8209	721707	0	0
2024-04-21 18:47:32			0	34776	0	0	0	17366	16030	150491	27360	954309	37702	106301	0	0	8210	720600	0	0
2024-04-21 18:48:32			0	34819	0	0	0	17361	16040	150427	27246	954318	37670	106299	0	0	8212	718513	0	0
2024-04-21 18:49:32			0	34824	0	0	0	17374	16030	150395	27533	954309	37691	106304	0	0	8212	718313	0	0
2024-04-21 18:50:32			0	34841	0	0	0	17363	16020	150163	27798	954267	37701	106300	0	0	8214	717543	0	0
2024-04-21 18:51:32			0	34855	0	0	0	17366	16030	150235	27175	954301	37680	106301	0	0	8214	716839	0	0
2024-04-21 18:52:32			0	34865	0	0	0	17368	16020	150127	27687	954346	37679	106302	0	0	8215	716403	0	0
2024-04-21 18:53:32			0	34891	0	0	0	17355	16010	150167	27585	954242	37689	106297	0	0	8216	715207	0	0
2024-04-21 18:54:32			0	34889	0	0	0	17361	16020	150067	27360	954311	37690	106299	0	0	8216	715263	0	0
2024-04-21 18:55:32			0	34895	0	0	0	17358	16020	150027	27614	954311	37679	106298	0	0	8217	714979	0	0
2024-04-21 18:56:32			0	34935	0	0	0	17366	16020	149983	27415	954259	37679	106301	0	0	8219	713084	0	0
2024-04-21 18:57:32			0	34918	0	0	0	17361	16010	150019	27466	954277	37678	106299	0	0	8218	713927	0	0
2024-04-21 18:58:32			0	34940	0	0	0	17358	16020	149875	27222	954320	37668	106298	0	0	8219	712847	0	0
2024-04-21 18:59:32			0	34933	0	0	0	17361	16020	149787	27692	954311	37679	106299	0	0	8219	713178	0	0
2024-04-21 19:00:32			0	34954	0	0	0	17361	16010	149807	27360	954251	37689	106299	0	0	8220	712223	0	0
2024-04-21 19:01:32			0	34977	0	0	0	17358	16000	149787	27680	954208	37677	106298	0	0	8221	711175	0	0
2024-04-21 19:02:32			0	34971	0	0	0	17358	16010	149751	27183	954251	37689	106298	0	0	8221	711420	0	0
2024-04-21 19:03:32			0	34983	0	0	0	17358	16000	149715	27810	954261	37677	106298	0	0	8222	710891	0	0
2024-04-21 19:04:32			0	34987	0	0	0	17355	16010	149723	27268	954224	37700	106297	0	0	8222	710664	0	0
2024-04-21 19:05:32			0	35001	0	0	0	17361	16010	149711	27490	954224	37700	106299	0	0	8223	710003	0	0
2024-04-21 19:06:32			0	35007	0	0	0	17355	16000	149591	27538	954287	37689	106297	0	0	8223	709759	0	0
2024-04-21 19:07:32			0	35024	0	0	0	17358	16010	149659	27142	954269	37678	106298	0	0	8224	708919	0	0
2024-04-21 19:08:32			0	35033	0	0	0	17363	16000	149563	27573	954261	37689	106300	0	0	8224	708533	0	0
2024-04-21 19:09:32			0	35030	0	0	0	17361	16010	149563	27751	954269	37689	106299	0	0	8224	708636	0	0
2024-04-21 19:10:32			0	35042	0	0	0	17363	16010	149519	27507	954295	37700	106300	0	0	8225	708071	0	0
2024-04-21 19:11:32			0	35048	0	0	0	17363	16000	149463	27668	954234	37677	106300	0	0	8225	707827	0	0
2024-04-21 19:12:32			0	35035	0	0	0	17366	16000	149479	27267	954287	37689	106301	0	0	8224	708439	0	0
2024-04-21 19:13:32			0	35057	0	0	0	17358	16010	149435	27281	954322	37689	106298	0	0	8226	707365	0	0
2024-04-21 19:14:32			0	35052	0	0	0	17350	15990	149495	27417	954270	37677	106295	0	0	8225	707677	0	0
2024-04-21 19:15:32			0	35051	0	0	0	17361	16000	149455	27512	954208	37677	106299	0	0	8225	707686	0	0
2024-04-21 19:16:32			0	35039	0	0	0	17348	16010	149467	27345	954269	37689	106294	0	0	8225	708212	0	0
2024-04-21 19:17:32			0	35062	0	0	0	17350	16010	149495	27478	954269	37689	106295	0	0	8226	707130	0	0
2024-04-21 19:18:32			0	35087	0	0	0	17358	15990	149431	27317	954218	37677	106298	0	0	8227	706031	0	0
2024-04-21 19:19:32			0	35068	0	0	0	17350	16010	149315	27313	954295	37689	106295	0	0	8226	706848	0	0
2024-04-21 19:20:32			0	35077	0	0	0	17361	16000	149331	27208	954252	37688	106299	0	0	8227	706463	0	0
2024-04-21 19:21:32			0	35085	0	0	0	17353	16000	149363	27310	954261	37689	106296	0	0	8227	706087	0	0
2024-04-21 19:22:32			0	35093	0	0	0	17358	16000	149299	27235	954200	37688	106298	0	0	8228	705711	0	0
2024-04-21 19:23:32			0	35093	0	0	0	17363	15980	149339	27232	954202	37687	106300	0	0	8227	705787	0	0
2024-04-21 19:24:32			0	35085	0	0	0	17355	16000	149255	27357	954252	37677	106297	0	0	8227	706087	0	0
2024-04-21 19:25:32			0	35108	0	0	0	17361	16010	149251	27343	954242	37689	106299	0	0	8229	704969	0	0
2024-04-21 19:26:32			0	35104	0	0	0	17353	15990	149212	27419	954244	37688	106296	0	0	8228	705233	0	0
2024-04-21 19:27:32			0	35121	0	0	0	17358	16000	149220	27293	954234	37700	106298	0	0	8229	704397	0	0
2024-04-21 19:28:32			0	35097	0	0	0	17355	16000	149215	27649	954313	37689	106297	0	0	8228	705523	0	0
2024-04-21 19:29:32			0	35132	0	0	0	17366	15990	149204	27274	954270	37699	106301	0	0	8230	703919	0	0
2024-04-21 19:30:32			0	35127	0	0	0	17363	15990	149176	27301	954262	37666	106300	0	0	8229	704154	0	0
2024-04-21 19:31:32			0	35109	0	0	0	17353	16000	149143	27398	954252	37688	106296	0	0	8229	704960	0	0
2024-04-21 19:32:32			0	35124	0	0	0	17348	15990	149248	27495	954262	37699	106294	0	0	8230	704294	0	0
2024-04-21 19:33:32			0	35112	0	0	0	17345	15990	149136	27627	954244	37666	106293	0	0	8229	704857	0	0
2024-04-21 19:34:32			0	35129	0	0	0	17350	15990	149212	27471	954236	37688	106295	0	0	8230	704060	0	0
2024-04-21 19:35:32			0	35115	0	0	0	17355	15990	149064	27757	954244	37677	106297	0	0	8229	704716	0	0
2024-04-21 19:36:32			0	35121	0	0	0	17348	15990	149216	27485	954210	37677	106294	0	0	8229	704435	0	0
2024-04-21 19:37:32			0	35112	0	0	0	17348	15990	149223	27171	954236	37677	106294	0	0	8229	704857	0	0
2024-04-21 19:38:32			0	35113	0	0	0	17342	16000	149148	27576	954226	37699	106292	0	0	8229	704772	0	0
2024-04-21 19:39:32			0	35115	0	0	0	17350	16000	149227	27722	954279	37677	106295	0	0	8229	704678	0	0
2024-04-21 19:40:32			0	35096	0	0	0	17342	15990	149143	27390	954191	37677	106292	0	0	8228	705608	0	0
2024-04-21 19:41:32			0	35097	0	0	0	17345	15990	149211	27542	954183	37688	106293	0	0	8228	705561	0	0
2024-04-21 19:42:32			0	35099	0	0	0	17345	15990	149211	27320	954236	37688	106293	0	0	8228	705467	0	0
2024-04-21 19:43:32			0	35100	0	0	0	17342	15990	149375	27196	954236	37688	106292	0	0	8228	705420	0	0
2024-04-21 19:44:32			0	35090	0	0	0	17350	15980	149191	27251	954228	37687	106295	0	0	8228	705928	0	0
2024-04-21 19:45:32			0	35089	0	0	0	17345	15980	149175	27291	954175	37687	106293	0	0	8228	705975	0	0
2024-04-21 19:46:32			0	35118	0	0	0	17332	15990	149264	27234	954270	37688	106288	0	0	8229	704576	0	0
2024-04-21 19:47:32			0	35087	0	0	0	17350	15980	149203	27536	954254	37698	106295	0	0	8227	706069	0	0
2024-04-21 19:48:32			0	35085	0	0	0	17342	15980	149295	27196	954202	37676	106292	0	0	8227	706163	0	0
2024-04-21 19:49:32			0	35099	0	0	0	17342	15990	149131	27497	954183	37688	106292	0	0	8228	705467	0	0
2024-04-21 19:50:32			0	35088	0	0	0	17345	15980	149127	27452	954167	37686	106293	0	0	8228	706022	0	0
2024-04-21 19:51:32			0	35102	0	0	0	17350	15980	149203	27812	954220	37675	106295	0	0	8228	705365	0	0
2024-04-21 19:52:32			0	35086	0	0	0	17342	15980	149303	27365	954193	37686	106292	0	0	8227	706116	0	0
2024-04-21 19:53:32			0	35101	0	0	0	17353	15990	149187	27428	954183	37688	106296	0	0	8228	705373	0	0
2024-04-21 19:54:32			0	35127	0	0	0	17337	15980	149240	27720	954202	37687	106290	0	0	8230	704192	0	0
2024-04-21 19:55:32			0	35122	0	0	0	17340	15990	149224	27592	954183	37688	106291	0	0	8230	704388	0	0
2024-04-21 19:56:32			0	35122	0	0	0	17342	15980	149192	27848	954193	37697	106292	0	0	8229	704426	0	0
2024-04-21 19:57:32			0	35113	0	0	0	17340	15980	149188	27982	954175	37687	106291	0	0	8229	704848	0	0
2024-04-21 19:58:32			0	35112	0	0	0	17348	15970	149268	27760	954159	37686	106294	0	0	8229	704933	0	0
2024-04-21 19:59:32			0	35127	0	0	0	17348	15970	149216	27488	954185	37686	106294	0	0	8230	704230	0	0
2024-04-21 20:00:32			0	35114	0	0	0	17329	15980	149188	27275	954175	37676	106287	0	0	8229	704801	0	0
2024-04-21 20:01:32			0	35115	0	0	0	17337	15980	149164	27585	954202	37676	106290	0	0	8229	704754	0	0
2024-04-21 20:02:32			0	35124	0	0	0	17324	15980	149204	27324	954167	37686	106285	0	0	8230	704332	0	0
2024-04-21 20:03:32			0	35129	0	0	0	17324	15980	149208	27275	954141	37686	106285	0	0	8230	704098	0	0
2024-04-21 20:04:32			0	35141	0	0	0	17316	15980	149088	27298	954193	37708	106282	0	0	8231	703535	0	0
2024-04-21 20:05:32			0	35124	0	0	0	17314	15970	149164	27438	954151	37696	106281	0	0	8230	704370	0	0
2024-04-21 20:06:32			0	35135	0	0	0	17314	15980	149192	27317	954062	37697	106281	0	0	8231	703817	0	0
2024-04-21 20:07:32			0	35134	0	0	0	17314	15970	149072	27409	954204	37674	106281	0	0	8231	703901	0	0
2024-04-21 20:08:32			0	35146	0	0	0	17309	15970	149072	27412	954125	37696	106279	0	0	8231	703339	0	0
2024-04-21 20:09:32			0	35137	0	0	0	17306	15960	149104	27185	954037	37685	106278	0	0	8231	703799	0	0
2024-04-21 20:10:32			0	35145	0	0	0	17298	15950	149128	27348	954021	37684	106275	0	0	8231	703462	0	0
2024-04-21 20:11:32			0	35127	0	0	0	17288	15960	149140	27372	954056	37673	106271	0	0	8231	704268	0	0
2024-04-21 20:12:32			0	35139	0	0	0	17296	15960	149136	27270	954090	37685	106274	0	0	8231	703705	0	0
2024-04-21 20:13:32			0	35145	0	0	0	17306	15960	149096	27294	954108	37696	106278	0	0	8231	703424	0	0
2024-04-21 20:14:32			0	35142	0	0	0	17298	15950	148996	27374	954126	37684	106275	0	0	8231	703602	0	0
2024-04-21 20:15:32			0	35155	0	0	0	17303	15950	149080	27467	954092	37672	106277	0	0	8232	702993	0	0
2024-04-21 20:16:32			0	35149	0	0	0	17309	15960	149108	27156	954003	37663	106279	0	0	8231	703236	0	0
2024-04-21 20:17:32			0	35143	0	0	0	17303	15950	149068	27652	953968	37673	106277	0	0	8231	703555	0	0
2024-04-21 20:18:32			0	35145	0	0	0	17309	15950	149112	27509	954100	37684	106279	0	0	8231	703462	0	0
2024-04-21 20:19:32			0	35161	0	0	0	17311	15950	149064	27831	954047	37696	106280	0	0	8232	702712	0	0
2024-04-21 20:20:32			0	35159	0	0	0	17314	15960	149088	27717	954108	37696	106281	0	0	8232	702768	0	0
2024-04-21 20:21:32			0	35175	0	0	0	17311	15950	149072	27187	954092	37684	106280	0	0	8233	702057	0	0
2024-04-21 20:22:32			0	35155	0	0	0	17316	15950	149048	27495	954092	37684	106282	0	0	8232	702993	0	0
2024-04-21 20:23:32			0	35160	0	0	0	17311	15950	149044	27433	954047	37696	106280	0	0	8232	702759	0	0
2024-04-21 20:24:32			0	35162	0	0	0	17306	15950	149020	27218	954126	37673	106278	0	0	8232	702665	0	0
2024-04-21 20:25:32			0	35182	0	0	0	17316	15960	149032	27440	954116	37674	106282	0	0	8233	701692	0	0
2024-04-21 20:26:32			0	35161	0	0	0	17319	15940	148964	27815	954084	37672	106283	0	0	8232	702750	0	0
2024-04-21 20:27:32			0	35185	0	0	0	17316	15950	148936	27015	954074	37684	106282	0	0	8233	701589	0	0
2024-04-21 20:28:32			0	35181	0	0	0	17311	15950	148996	27329	954118	37684	106280	0	0	8233	701776	0	0
2024-04-21 20:29:32			0	35188	0	0	0	17314	15950	149004	27559	954100	37673	106281	0	0	8233	701449	0	0
2024-04-21 20:30:32			0	35197	0	0	0	17322	15960	148960	27010	954135	37684	106284	0	0	8234	700991	0	0
2024-04-21 20:31:32			0	35214	0	0	0	17332	15950	148908	27102	954118	37672	106288	0	0	8235	700234	0	0
2024-04-21 20:32:32			0	35180	0	0	0	17337	15960	148928	27329	954161	37684	106290	0	0	8233	701785	0	0
2024-04-21 20:33:32			0	35193	0	0	0	17329	15960	148904	27415	954135	37684	106287	0	0	8234	701178	0	0
2024-04-21 20:34:32			0	35204	0	0	0	17322	15950	148836	27450	954100	37684	106284	0	0	8234	700701	0	0
2024-04-21 20:35:32			0	35190	0	0	0	17319	15960	148908	27628	954108	37696	106283	0	0	8234	701318	0	0
2024-04-21 20:36:32			0	35185	0	0	0	17309	15960	148912	27258	954135	37673	106279	0	0	8233	701551	0	0
2024-04-21 20:37:32			0	35201	0	0	0	17314	15960	148864	27611	954135	37684	106281	0	0	8234	700804	0	0
2024-04-21 20:38:32			0	35200	0	0	0	17322	15960	148840	27282	954161	37673	106284	0	0	8234	700850	0	0
2024-04-21 20:39:32			0	35215	0	0	0	17322	15950	148752	27270	954126	37673	106284	0	0	8235	700187	0	0
2024-04-21 20:40:32			0	35227	0	0	0	17332	15950	148868	27419	954153	37673	106288	0	0	8235	699627	0	0
2024-04-21 20:41:32			0	35240	0	0	0	17337	15960	148844	27253	954135	37673	106290	0	0	8236	698983	0	0
2024-04-21 20:42:32			0	35244	0	0	0	17327	15970	148744	27509	954204	37664	106286	0	0	8236	698759	0	0
2024-04-21 20:43:32			0	35237	0	0	0	17316	15970	148792	27557	954177	37696	106282	0	0	8236	699085	0	0
2024-04-21 20:44:32			0	35229	0	0	0	17322	15960	148800	27209	954108	37684	106284	0	0	8236	699496	0	0
2024-04-21 20:45:32			0	35246	0	0	0	17311	15960	148680	27334	954169	37664	106280	0	0	8237	698704	0	0
2024-04-21 20:46:32			0	35221	0	0	0	17309	15970	148636	27248	954098	37685	106279	0	0	8235	699832	0	0
2024-04-21 20:47:32			0	35226	0	0	0	17296	15960	148748	27505	954108	37663	106274	0	0	8236	699636	0	0
2024-04-21 20:48:32			0	35238	0	0	0	17288	15960	148664	27594	954011	37685	106271	0	0	8237	699076	0	0
2024-04-21 20:49:32			0	35230	0	0	0	17293	15950	148620	27142	954100	37684	106273	0	0	8236	699487	0	0
2024-04-21 20:50:32			0	35230	0	0	0	17275	15950	148760	27282	953987	37662	106266	0	0	8236	699487	0	0
2024-04-21 20:51:32			0	35235	0	0	0	17275	15940	148708	27434	954005	37684	106266	0	0	8237	699292	0	0
2024-04-21 20:52:32			0	35247	0	0	0	17257	15950	148648	27547	953968	37684	106259	0	0	8238	698694	0	0
2024-04-21 20:53:32			0	35261	0	0	0	17264	15950	148572	27706	953987	37684	106262	0	0	8238	698042	0	0
2024-04-21 20:54:32			0	35280	0	0	0	17270	15940	148620	27374	953970	37672	106264	0	0	8239	697195	0	0
2024-04-21 20:55:32			0	35247	0	0	0	17270	15940	148644	27396	953997	37683	106264	0	0	8237	698732	0	0
2024-04-21 20:56:32			0	35262	0	0	0	17257	15930	148716	27414	953901	37682	106259	0	0	8238	698071	0	0
2024-04-21 20:57:32			0	35275	0	0	0	17249	15910	148496	27255	953930	37680	106256	0	0	8239	697540	0	0
2024-04-21 20:58:32			0	35275	0	0	0	17228	15930	148616	27440	953928	37671	106248	0	0	8240	697465	0	0
2024-04-21 20:59:32			0	35278	0	0	0	17228	15910	148532	27608	953877	37669	106248	0	0	8240	697401	0	0
2024-04-21 21:00:32			0	35278	0	0	0	17223	15900	148604	27422	953782	37659	106246	0	0	8240	697438	0	0
2024-04-21 21:01:32			0	35264	0	0	0	17223	15900	148628	27379	953808	37669	106246	0	0	8239	698090	0	0
2024-04-21 21:02:32			0	35284	0	0	0	17228	15910	148608	27422	953790	37669	106248	0	0	8240	697121	0	0
2024-04-21 21:03:32			0	35270	0	0	0	17220	15900	148624	27253	953782	37669	106245	0	0	8239	697811	0	0
2024-04-21 21:04:32			0	35263	0	0	0	17223	15890	148612	27443	953784	37667	106246	0	0	8239	698175	0	0
2024-04-21 21:05:32			0	35271	0	0	0	17225	15890	148680	27170	953784	37667	106247	0	0	8239	697802	0	0
2024-04-21 21:06:32			0	35255	0	0	0	17223	15890	148596	27074	953818	37667	106246	0	0	8238	698547	0	0
2024-04-21 21:07:32			0	35266	0	0	0	17231	15890	148644	27173	953757	37679	106249	0	0	8239	698035	0	0
2024-04-21 21:08:32			0	35255	0	0	0	17225	15890	148756	27086	953784	37679	106247	0	0	8238	698547	0	0
2024-04-21 21:09:32			0	35245	0	0	0	17223	15880	148816	27332	953723	37679	106246	0	0	8238	699052	0	0
2024-04-21 21:10:32			0	35230	0	0	0	17223	15880	148696	27424	953794	37667	106246	0	0	8237	699751	0	0
2024-04-21 21:11:32			0	35222	0	0	0	17215	15870	148788	27137	953733	37656	106243	0	0	8237	700163	0	0
2024-04-21 21:12:32			0	35216	0	0	0	17223	15870	148876	27350	953759	37677	106246	0	0	8236	700443	0	0
2024-04-21 21:13:32			0	35226	0	0	0	17220	15860	148808	27203	953690	37676	106245	0	0	8237	700014	0	0
2024-04-21 21:14:32			0	35210	0	0	0	17220	15870	148860	27550	953733	37677	106245	0	0	8236	700723	0	0
2024-04-21 21:15:32			0	35204	0	0	0	17220	15870	148896	27124	953759	37666	106245	0	0	8236	701004	0	0
2024-04-21 21:16:32			0	35219	0	0	0	17220	15860	148852	27256	953751	37666	106245	0	0	8236	700340	0	0
2024-04-21 21:17:32			0	35216	0	0	0	17220	15870	148908	27443	953680	37666	106245	0	0	8236	700443	0	0
2024-04-21 21:18:32			0	35205	0	0	0	17220	15860	148872	26859	953743	37666	106245	0	0	8236	700995	0	0
2024-04-21 21:19:32			0	35206	0	0	0	17212	15860	148864	27173	953690	37687	106242	0	0	8236	700948	0	0
2024-04-21 21:20:32			0	35208	0	0	0	17228	15860	148860	27389	953690	37687	106248	0	0	8236	700854	0	0
2024-04-21 21:21:32			0	35215	0	0	0	17228	15850	148844	27010	953682	37676	106248	0	0	8236	700565	0	0
2024-04-21 21:22:32			0	35222	0	0	0	17228	15860	148840	27417	953777	37676	106248	0	0	8236	700200	0	0
2024-04-21 21:23:32			0	35225	0	0	0	17241	15860	148860	27242	953751	37676	106253	0	0	8236	700060	0	0
2024-04-21 21:24:32			0	35221	0	0	0	17259	15870	148852	27142	953785	37666	106260	0	0	8236	700209	0	0
2024-04-21 21:25:32			0	35217	0	0	0	17270	15880	148880	27149	953873	37678	106264	0	0	8236	700358	0	0
2024-04-21 21:26:32			0	35231	0	0	0	17283	15880	148924	27208	953828	37679	106269	0	0	8236	699705	0	0
2024-04-21 21:27:32			0	35237	0	0	0	17296	15900	148820	27277	953905	37679	106274	0	0	8236	699349	0	0
2024-04-21 21:28:32			0	35223	0	0	0	17296	15880	148868	27203	953881	37679	106274	0	0	8235	700078	0	0
2024-04-21 21:29:32			0	35214	0	0	0	17296	15900	148836	27609	953993	37691	106274	0	0	8235	700423	0	0
2024-04-21 21:30:32			0	35217	0	0	0	17301	15890	148868	27300	953968	37701	106276	0	0	8235	700321	0	0
2024-04-21 21:31:32			0	35202	0	0	0	17314	15890	148944	27244	954003	37679	106281	0	0	8234	701021	0	0
2024-04-21 21:32:32			0	35186	0	0	0	17303	15900	148988	27206	953879	37679	106277	0	0	8233	701732	0	0
2024-04-21 21:33:32			0	35206	0	0	0	17306	15900	148908	27554	954045	37680	106278	0	0	8234	700797	0	0
2024-04-21 21:34:32			0	35204	0	0	0	17303	15900	148864	27514	954072	37680	106277	0	0	8234	700890	0	0
2024-04-21 21:35:32			0	35248	0	0	0	17311	15920	148796	27580	954051	37693	106280	0	0	8237	698761	0	0
2024-04-21 21:36:32			0	35269	0	0	0	17309	15920	148580	27587	954043	37692	106279	0	0	8238	697782	0	0
2024-04-21 21:37:32			0	35279	0	0	0	17314	15920	148504	27467	954051	37693	106281	0	0	8238	697317	0	0
2024-04-21 21:38:32			0	35328	0	0	0	17316	15920	148364	27402	954078	37682	106282	0	0	8241	695038	0	0
2024-04-21 21:39:32			0	35335	0	0	0	17319	15930	148360	27293	954086	37682	106283	0	0	8241	694676	0	0
2024-04-21 21:40:32			0	35356	0	0	0	17316	15920	148324	27208	953999	37682	106282	0	0	8243	693739	0	0
2024-04-21 21:41:32			0	35361	0	0	0	17314	15930	148252	27235	954060	37704	106281	0	0	8243	693470	0	0
2024-04-21 21:42:32			0	35367	0	0	0	17319	15920	148216	27447	954104	37693	106283	0	0	8243	693229	0	0
2024-04-21 21:43:32			0	35389	0	0	0	17316	15940	148096	27613	954128	37694	106282	0	0	8245	692135	0	0
2024-04-21 21:44:32			0	35398	0	0	0	17327	15940	148024	27242	954023	37683	106286	0	0	8245	691718	0	0
2024-04-21 21:45:32			0	35379	0	0	0	17327	15950	148092	27479	954092	37684	106286	0	0	8244	692560	0	0
2024-04-21 21:46:32			0	35389	0	0	0	17337	15950	148136	27569	954126	37696	106290	0	0	8244	692098	0	0
2024-04-21 21:47:32			0	35368	0	0	0	17332	15940	148228	27421	954163	37695	106288	0	0	8243	693108	0	0
2024-04-21 21:48:32			0	35345	0	0	0	17337	15950	148332	27072	954197	37706	106290	0	0	8242	694137	0	0
2024-04-21 21:49:32			0	35328	0	0	0	17329	15960	148420	27225	954135	37696	106287	0	0	8241	694888	0	0
2024-04-21 21:50:32			0	35296	0	0	0	17345	15960	148460	27296	954161	37707	106293	0	0	8239	696375	0	0
2024-04-21 21:51:32			0	35280	0	0	0	17348	15960	148488	27512	954161	37696	106294	0	0	8238	697120	0	0
2024-04-21 21:52:32			0	35261	0	0	0	17348	15960	148484	27450	954214	37707	106294	0	0	8237	698004	0	0
2024-04-21 21:53:32			0	35271	0	0	0	17350	15970	148556	27317	954204	37696	106295	0	0	8238	697501	0	0
2024-04-21 21:54:32			0	35263	0	0	0	17332	15960	148576	27322	954222	37685	106288	0	0	8237	697911	0	0
2024-04-21 21:55:32			0	35242	0	0	0	17340	15960	148616	26958	954143	37696	106291	0	0	8236	698890	0	0
2024-04-21 21:56:32			0	35246	0	0	0	17340	15960	148652	27445	954090	37696	106291	0	0	8236	698704	0	0
2024-04-21 21:57:32			0	35218	0	0	0	17337	15960	148720	27222	954169	37696	106290	0	0	8235	700010	0	0
2024-04-21 21:58:32			0	35223	0	0	0	17345	15970	148680	27086	954177	37685	106293	0	0	8235	699739	0	0
2024-04-21 21:59:32			0	35215	0	0	0	17340	15960	148728	27294	954248	37685	106291	0	0	8235	700150	0	0
2024-04-21 22:00:32			0	35187	0	0	0	17353	15970	148848	27209	954256	37696	106296	0	0	8233	701420	0	0
2024-04-21 22:01:32			0	35161	0	0	0	17348	15980	148968	27286	954220	37686	106294	0	0	8232	702599	0	0
2024-04-21 22:02:32			0	35124	0	0	0	17340	15970	149196	27369	954212	37697	106291	0	0	8230	704370	0	0
2024-04-21 22:03:32			0	35097	0	0	0	17345	15980	149311	27270	954193	37708	106293	0	0	8228	705599	0	0
2024-04-21 22:04:32			0	35072	0	0	0	17350	15970	149367	27443	954238	37675	106295	0	0	8227	706812	0	0
2024-04-21 22:05:32			0	35028	0	0	0	17332	15960	149443	27364	954195	37674	106288	0	0	8224	708922	0	0
2024-04-21 22:06:32			0	34997	0	0	0	17298	15970	149563	27306	954177	37685	106275	0	0	8223	710345	0	0
2024-04-21 22:07:32			0	34977	0	0	0	17290	15960	149647	27464	954108	37684	106272	0	0	8222	711328	0	0
2024-04-21 22:08:32			0	34998	0	0	0	17283	15960	149611	27575	954108	37684	106269	0	0	8223	710336	0	0
2024-04-21 22:09:32			0	34971	0	0	0	17246	15940	149747	27592	954005	37672	106255	0	0	8222	711688	0	0
2024-04-21 22:10:32			0	34983	0	0	0	17228	15940	149719	27241	953944	37672	106248	0	0	8223	711121	0	0
2024-04-21 22:11:32			0	34966	0	0	0	17212	15920	149863	27320	953867	37682	106242	0	0	8223	712002	0	0
2024-04-21 22:12:32			0	34955	0	0	0	17223	15910	149759	27372	953877	37680	106246	0	0	8222	712560	0	0
2024-04-21 22:13:32			0	34987	0	0	0	17251	15900	149787	27256	953887	37680	106257	0	0	8223	711086	0	0
2024-04-21 22:14:32			0	34958	0	0	0	17257	15910	149755	27294	953869	37680	106259	0	0	8221	712418	0	0
2024-04-21 22:15:32			0	34961	0	0	0	17259	15900	149807	27310	953905	37679	106260	0	0	8222	712315	0	0
2024-04-21 22:16:32			0	34979	0	0	0	17246	15910	149815	27412	953922	37691	106255	0	0	8223	711425	0	0
2024-04-21 22:17:32			0	34973	0	0	0	17244	15900	149831	27433	953887	37680	106254	0	0	8222	711747	0	0
2024-04-21 22:18:32			0	34992	0	0	0	17218	15910	149763	27479	953895	37680	106244	0	0	8224	710811	0	0
2024-04-21 22:19:32			0	34980	0	0	0	17215	15900	149755	27263	953853	37668	106243	0	0	8223	711417	0	0
2024-04-21 22:20:32			0	34989	0	0	0	17215	15890	149799	27008	953897	37667	106243	0	0	8224	711030	0	0
2024-04-21 22:21:32			0	34986	0	0	0	17223	15890	149819	27124	953792	37679	106246	0	0	8223	711171	0	0
2024-04-21 22:22:32			0	35000	0	0	0	17207	15890	149755	27270	953836	37667	106240	0	0	8225	710510	0	0
2024-04-21 22:23:32			0	34995	0	0	0	17197	15880	149831	27433	953802	37667	106236	0	0	8224	710785	0	0
2024-04-21 22:24:32			0	34991	0	0	0	17205	15880	149887	27324	953794	37667	106239	0	0	8224	710973	0	0
2024-04-21 22:25:32			0	34968	0	0	0	17192	15880	149843	27301	953689	37689	106234	0	0	8223	712061	0	0
2024-04-21 22:26:32			0	34982	0	0	0	17194	15870	149759	27256	953733	37677	106235	0	0	8224	711437	0	0
2024-04-21 22:27:32			0	34965	0	0	0	17189	15860	149903	27360	953717	37676	106233	0	0	8223	712279	0	0
2024-04-21 22:28:32			0	34946	0	0	0	17187	15860	149891	27303	953646	37676	106232	0	0	8222	713178	0	0
2024-04-21 22:29:32			0	34954	0	0	0	17184	15850	150003	27223	953656	37676	106231	0	0	8222	712838	0	0
2024-04-21 22:30:32			0	34937	0	0	0	17184	15840	149947	27319	953587	37664	106231	0	0	8221	713681	0	0
2024-04-21 22:31:32			0	34937	0	0	0	17181	15830	150015	27644	953650	37674	106230	0	0	8221	713720	0	0
2024-04-21 22:32:32			0	34919	0	0	0	17171	15830	150035	27232	953650	37664	106226	0	0	8220	714573	0	0
2024-04-21 22:33:32			0	34930	0	0	0	17179	15830	150067	27334	953597	37674	106229	0	0	8221	714052	0	0
2024-04-21 22:34:32			0	34922	0	0	0	17163	15830	150123	27296	953615	37674	106223	0	0	8221	714431	0	0
2024-04-21 22:35:32			0	34914	0	0	0	17158	15820	150175	27718	953581	37673	106221	0	0	8220	714849	0	0
2024-04-21 22:36:32			0	34891	0	0	0	17163	15820	150227	27535	953607	37673	106223	0	0	8219	715940	0	0
2024-04-21 22:37:32			0	34876	0	0	0	17155	15820	150291	27727	953625	37673	106220	0	0	8218	716653	0	0
2024-04-21 22:38:32			0	34854	0	0	0	17155	15820	150419	27639	953573	37673	106220	0	0	8217	717699	0	0
2024-04-21 22:39:32			0	34842	0	0	0	17163	15820	150435	27732	953599	37652	106223	0	0	8216	718270	0	0
2024-04-21 22:40:32			0	34840	0	0	0	17155	15820	150459	27497	953599	37673	106220	0	0	8216	718365	0	0
2024-04-21 22:41:32			0	34843	0	0	0	17153	15810	150515	27339	953583	37672	106219	0	0	8216	718261	0	0
2024-04-21 22:42:32			0	34828	0	0	0	17155	15810	150519	27301	953564	37673	106220	0	0	8215	718975	0	0
2024-04-21 22:43:32			0	34818	0	0	0	17158	15810	150459	27369	953530	37672	106221	0	0	8215	719452	0	0
2024-04-21 22:44:32			0	34842	0	0	0	17145	15800	150455	27326	953548	37661	106216	0	0	8216	718347	0	0
2024-04-21 22:45:32			0	34845	0	0	0	17148	15800	150455	27504	953548	37671	106217	0	0	8216	718204	0	0
2024-04-21 22:46:32			0	34862	0	0	0	17145	15800	150315	27299	953417	37671	106216	0	0	8217	717396	0	0
2024-04-21 22:47:32			0	34880	0	0	0	17148	15810	150335	27459	953530	37672	106217	0	0	8218	716501	0	0
2024-04-21 22:48:32			0	34885	0	0	0	17145	15800	150227	27298	953514	37670	106216	0	0	8219	716302	0	0
2024-04-21 22:49:32			0	34906	0	0	0	17129	15800	150327	27244	953461	37670	106210	0	0	8220	715305	0	0
2024-04-21 22:50:32			0	34893	0	0	0	17145	15800	150171	27578	953469	37671	106216	0	0	8219	715922	0	0
2024-04-21 22:51:32			0	34901	0	0	0	17158	15800	150247	27609	953487	37681	106221	0	0	8219	715543	0	0
2024-04-21 22:52:32			0	34903	0	0	0	17155	15800	150239	27497	953522	37671	106220	0	0	8220	715448	0	0
2024-04-21 22:53:32			0	34905	0	0	0	17174	15790	150263	27357	953498	37670	106227	0	0	8219	715391	0	0
2024-04-21 22:54:32			0	34910	0	0	0	17197	15790	150295	27559	953479	37660	106236	0	0	8219	715154	0	0
2024-04-21 22:55:32			0	34905	0	0	0	17210	15790	150203	27229	953498	37660	106241	0	0	8219	715391	0	0
2024-04-21 22:56:32			0	34892	0	0	0	17174	15790	150211	27258	953498	37660	106227	0	0	8219	716009	0	0
2024-04-21 22:57:32			0	34907	0	0	0	17150	15790	150279	27355	953558	37670	106218	0	0	8220	715296	0	0
2024-04-21 22:58:32			0	34910	0	0	0	17174	15790	150279	27422	953445	37681	106227	0	0	8220	715154	0	0
2024-04-21 22:59:32			0	34905	0	0	0	17135	15790	150163	27377	953479	37670	106212	0	0	8220	715391	0	0
2024-04-21 23:00:32			0	34886	0	0	0	17184	15780	150247	27298	953516	37669	106231	0	0	8218	716332	0	0
2024-04-21 23:01:32			0	34890	0	0	0	17225	15780	150331	27542	953463	37681	106247	0	0	8218	716142	0	0
2024-04-21 23:02:32			0	34894	0	0	0	17246	15790	150383	27545	953558	37670	106255	0	0	8217	715913	0	0
2024-04-21 23:03:32			0	34892	0	0	0	17251	15800	150511	27235	953619	37670	106257	0	0	8217	715970	0	0
2024-04-21 23:04:32			0	34870	0	0	0	17267	15800	150451	27329	953645	37681	106263	0	0	8216	717015	0	0
2024-04-21 23:05:32			0	34866	0	0	0	17288	15800	150347	27616	953706	37682	106271	0	0	8215	717205	0	0
2024-04-21 23:06:32			0	34877	0	0	0	17283	15830	150363	27267	953747	37696	106269	0	0	8216	716567	0	0
2024-04-21 23:07:32			0	34853	0	0	0	17306	15830	150479	27450	953773	37696	106278	0	0	8214	717708	0	0
2024-04-21 23:08:32			0	34872	0	0	0	17311	15820	150295	27329	953844	37695	106280	0	0	8215	716843	0	0
2024-04-21 23:09:32			0	34842	0	0	0	17298	15840	150439	27317	953850	37697	106275	0	0	8214	718192	0	0
2024-04-21 23:10:32			0	34831	0	0	0	17285	15850	150587	27679	953866	37676	106270	0	0	8214	718677	0	0
2024-04-21 23:11:32			0	34822	0	0	0	17280	15850	150639	27218	953814	37687	106268	0	0	8213	719106	0	0
2024-04-21 23:12:32			0	34805	0	0	0	17288	15860	150619	27194	953848	37687	106271	0	0	8212	719878	0	0
2024-04-21 23:13:32			0	34785	0	0	0	17309	15850	150727	27208	953866	37676	106279	0	0	8211	720871	0	0
2024-04-21 23:14:32			0	34772	0	0	0	17322	15870	150807	27412	953996	37699	106284	0	0	8210	721414	0	0
2024-04-21 23:15:32			0	34755	0	0	0	17329	15880	150799	27175	954057	37689	106287	0	0	8209	722187	0	0
2024-04-21 23:16:32			0	34732	0	0	0	17348	15880	150891	27388	953986	37701	106294	0	0	8207	723287	0	0
2024-04-21 23:17:32			0	34705	0	0	0	17345	15900	151067	27376	954037	37691	106293	0	0	8206	724501	0	0
2024-04-21 23:18:32			0	34682	0	0	0	17348	15900	151143	27308	954098	37702	106294	0	0	8204	725604	0	0
2024-04-21 23:19:32			0	34681	0	0	0	17348	15910	151183	27386	954114	37702	106294	0	0	8204	725613	0	0
2024-04-21 23:20:32			0	34666	0	0	0	17348	15910	151203	27493	954193	37713	106294	0	0	8203	726333	0	0
2024-04-21 23:21:32			0	34677	0	0	0	17345	15930	151223	27275	954165	37693	106293	0	0	8204	725727	0	0
2024-04-21 23:22:32			0	34655	0	0	0	17355	15930	151199	27371	954139	37704	106297	0	0	8203	726782	0	0
2024-04-21 23:23:32			0	34647	0	0	0	17348	15940	151239	27119	954242	37706	106294	0	0	8203	727128	0	0
2024-04-21 23:24:32			0	34661	0	0	0	17350	15940	151335	27398	954242	37706	106295	0	0	8203	726455	0	0
2024-04-21 23:25:32			0	34653	0	0	0	17345	15930	151231	27436	954147	37704	106293	0	0	8203	726879	0	0
2024-04-21 23:26:32			0	34637	0	0	0	17345	15930	151215	27440	954199	37693	106293	0	0	8202	727647	0	0
2024-04-21 23:27:32			0	34651	0	0	0	17340	15950	151179	27410	954285	37707	106291	0	0	8203	726896	0	0
2024-04-21 23:28:32			0	34658	0	0	0	17340	15960	151215	27282	954274	37718	106291	0	0	8203	726521	0	0
2024-04-21 23:29:32			0	34678	0	0	0	17337	15960	151135	27260	954266	37707	106290	0	0	8205	725561	0	0
2024-04-21 23:30:32			0	34691	0	0	0	17340	15960	151075	27268	954222	37708	106291	0	0	8205	724938	0	0
2024-04-21 23:31:32			0	34696	0	0	0	17337	15960	150943	27147	954240	37707	106290	0	0	8206	724698	0	0
2024-04-21 23:32:32			0	34742	0	0	0	17342	15960	150907	27559	954266	37696	106292	0	0	8208	722497	0	0
2024-04-21 23:33:32			0	34727	0	0	0	17348	15960	150895	27421	954214	37707	106294	0	0	8207	723214	0	0
2024-04-21 23:34:32			0	34740	0	0	0	17348	15960	150719	27227	954240	37707	106294	0	0	8208	722592	0	0
2024-04-21 23:35:32			0	34765	0	0	0	17348	15970	150743	27562	954256	37696	106294	0	0	8209	721359	0	0
2024-04-21 23:36:32			0	34768	0	0	0	17358	15970	150743	27421	954309	37708	106298	0	0	8209	721216	0	0
2024-04-21 23:37:32			0	34772	0	0	0	17340	15960	150631	27267	954222	37696	106291	0	0	8210	721063	0	0
2024-04-21 23:38:32			0	34779	0	0	0	17342	15960	150663	27358	954248	37696	106292	0	0	8210	720729	0	0
2024-04-21 23:39:32			0	34775	0	0	0	17348	15970	150695	27362	954264	37708	106294	0	0	8210	720881	0	0
2024-04-21 23:40:32			0	34732	0	0	0	17353	15970	150735	27255	954264	37697	106296	0	0	8207	722936	0	0
2024-04-21 23:41:32			0	34726	0	0	0	17355	15970	150923	27390	954238	37697	106297	0	0	8207	723223	0	0
2024-04-21 23:42:32			0	34697	0	0	0	17342	15970	151047	27281	954238	37708	106292	0	0	8206	724611	0	0
2024-04-21 23:43:32			0	34658	0	0	0	17340	15960	151199	27618	954214	37696	106291	0	0	8203	726521	0	0
2024-04-21 23:44:32			0	34618	0	0	0	17345	15950	151295	27357	954197	37684	106293	0	0	8201	728482	0	0
2024-04-21 23:45:32			0	34584	0	0	0	17348	15960	151383	27209	954222	37696	106294	0	0	8199	730080	0	0
2024-04-21 23:46:32			0	34550	0	0	0	17342	15960	151491	27246	954222	37718	106292	0	0	8197	731720	0	0
2024-04-21 23:47:32			0	34544	0	0	0	17340	15970	151667	27588	954230	37708	106291	0	0	8197	731970	0	0
2024-04-21 23:48:32			0	34522	0	0	0	17322	15950	151727	27376	954145	37684	106284	0	0	8196	733112	0	0
2024-04-21 23:49:32			0	34517	0	0	0	17322	15950	151839	27312	954145	37695	106284	0	0	8196	733354	0	0
2024-04-21 23:50:32			0	34498	0	0	0	17309	15950	151891	27345	954092	37695	106279	0	0	8195	734273	0	0
2024-04-21 23:51:32			0	34475	0	0	0	17303	15950	151819	27400	954118	37684	106277	0	0	8194	735387	0	0
2024-04-21 23:52:32			0	34463	0	0	0	17301	15940	151947	27123	954102	37705	106276	0	0	8193	736008	0	0
2024-04-21 23:53:32			0	34454	0	0	0	17298	15930	152051	27246	953980	37682	106275	0	0	8192	736485	0	0
2024-04-21 23:54:32			0	34445	0	0	0	17298	15930	152167	27647	953954	37693	106275	0	0	8192	736921	0	0
2024-04-21 23:55:32			0	34417	0	0	0	17301	15930	152147	27300	953954	37693	106276	0	0	8190	738281	0	0
2024-04-21 23:56:32			0	34405	0	0	0	17298	15930	152235	27796	954060	37693	106275	0	0	8190	738865	0	0
2024-04-21 23:57:32			0	34394	0	0	0	17301	15920	152295	27422	954051	37693	106276	0	0	8189	739440	0	0
2024-04-21 23:58:32			0	34384	0	0	0	17303	15910	152311	27396	954009	37702	106277	0	0	8188	739967	0	0
2024-04-21 23:59:32			0	34393	0	0	0	17309	15920	152415	27289	954043	37692	106279	0	0	8189	739489	0	0
2024-04-22 00:00:32			0	34391	0	0	0	17303	15910	152435	27166	954061	37691	106277	0	0	8189	739626	0	0
2024-04-22 00:01:32			0	34384	0	0	0	17301	15910	152419	27476	954053	37691	106276	0	0	8188	739967	0	0
2024-04-22 00:02:32			0	34371	0	0	0	17311	15910	152479	27421	953956	37680	106280	0	0	8187	740600	0	0
2024-04-22 00:03:32			0	34380	0	0	0	17303	15910	152427	27507	954053	37691	106277	0	0	8188	740161	0	0
2024-04-22 00:04:32			0	34393	0	0	0	17311	15910	152367	27135	953974	37691	106280	0	0	8189	739528	0	0
2024-04-22 00:05:32			0	34379	0	0	0	17306	15910	152367	27064	953948	37691	106278	0	0	8188	740210	0	0
2024-04-22 00:06:32			0	34377	0	0	0	17303	15900	152479	27088	954019	37691	106277	0	0	8188	740348	0	0
2024-04-22 00:07:32			0	34374	0	0	0	17311	15910	152427	27395	954027	37702	106280	0	0	8187	740454	0	0
2024-04-22 00:08:32			0	34393	0	0	0	17306	15910	152347	27072	953974	37702	106278	0	0	8189	739528	0	0
2024-04-22 00:09:32			0	34393	0	0	0	17309	15910	152267	27402	954035	37702	106279	0	0	8189	739528	0	0
2024-04-22 00:10:32			0	34399	0	0	0	17314	15910	152267	27582	954080	37713	106281	0	0	8189	739237	0	0
2024-04-22 00:11:32			0	34416	0	0	0	17335	15920	152167	27601	954104	37714	106289	0	0	8189	738370	0	0
2024-04-22 00:12:32			0	34407	0	0	0	17340	15930	152287	26979	954147	37714	106291	0	0	8189	738767	0	0
2024-04-22 00:13:32			0	34418	0	0	0	17353	15940	152247	27180	954207	37715	106296	0	0	8189	738193	0	0
2024-04-22 00:14:32			0	34416	0	0	0	17350	15940	152203	26935	954155	37705	106295	0	0	8189	738290	0	0
2024-04-22 00:15:32			0	34413	0	0	0	17348	15940	152171	27027	954216	37716	106294	0	0	8189	738436	0	0
2024-04-22 00:16:32			0	34411	0	0	0	17345	15950	152131	27208	954197	37716	106293	0	0	8189	738493	0	0
2024-04-22 00:17:32			0	34422	0	0	0	17355	15960	152147	27488	954187	37707	106297	0	0	8190	737919	0	0
2024-04-22 00:18:32			0	34430	0	0	0	17350	15950	152115	27419	954206	37696	106295	0	0	8190	737570	0	0
2024-04-22 00:19:32			0	34458	0	0	0	17361	15960	152095	27422	954240	37707	106299	0	0	8192	736171	0	0
2024-04-22 00:20:32			0	34443	0	0	0	17353	15970	152135	27289	954283	37696	106296	0	0	8191	736859	0	0
2024-04-22 00:21:32			0	34456	0	0	0	17361	15960	151991	27341	954248	37708	106299	0	0	8192	736268	0	0
2024-04-22 00:22:32			0	34464	0	0	0	17355	15960	151919	27041	954319	37696	106297	0	0	8192	735880	0	0
2024-04-22 00:23:32			0	34480	0	0	0	17363	15960	151763	27421	954301	37685	106300	0	0	8193	735105	0	0
2024-04-22 00:24:32			0	34488	0	0	0	17355	15980	151743	27428	954351	37697	106297	0	0	8194	734638	0	0
2024-04-22 00:25:32			0	34510	0	0	0	17350	15970	151755	27138	954291	37708	106295	0	0	8195	733613	0	0
2024-04-22 00:26:32			0	34519	0	0	0	17348	15980	151695	27128	954325	37718	106294	0	0	8195	733139	0	0
2024-04-22 00:27:32			0	34505	0	0	0	17353	15980	151635	27479	954325	37718	106296	0	0	8195	733816	0	0
2024-04-22 00:28:32			0	34533	0	0	0	17350	15980	151643	27286	954333	37708	106295	0	0	8196	732462	0	0
2024-04-22 00:29:32			0	34554	0	0	0	17355	15980	151579	27488	954325	37697	106297	0	0	8197	731448	0	0
2024-04-22 00:30:32			0	34560	0	0	0	17355	15980	151571	27222	954299	37708	106297	0	0	8198	731159	0	0
2024-04-22 00:31:32			0	34575	0	0	0	17350	15980	151567	27663	954272	37708	106295	0	0	8199	730435	0	0
2024-04-22 00:32:32			0	34568	0	0	0	17345	15980	151535	27357	954325	37708	106293	0	0	8198	730773	0	0
2024-04-22 00:33:32			0	34588	0	0	0	17340	15980	151563	27566	954333	37719	106291	0	0	8199	729809	0	0
2024-04-22 00:34:32			0	34577	0	0	0	17345	15980	151547	27187	954272	37697	106293	0	0	8199	730339	0	0
2024-04-22 00:35:32			0	34565	0	0	0	17340	15980	151571	27216	954333	37708	106291	0	0	8198	730917	0	0
2024-04-22 00:36:32			0	34562	0	0	0	17348	15980	151575	27045	954299	37697	106294	0	0	8198	731062	0	0
2024-04-22 00:37:32			0	34548	0	0	0	17353	15980	151655	27105	954325	37708	106296	0	0	8197	731738	0	0
2024-04-22 00:38:32			0	34530	0	0	0	17348	15980	151659	27367	954360	37708	106294	0	0	8196	732607	0	0
2024-04-22 00:39:32			0	34521	0	0	0	17348	15980	151783	27189	954360	37708	106294	0	0	8196	733042	0	0
2024-04-22 00:40:32			0	34515	0	0	0	17350	15990	151831	27248	954341	37709	106295	0	0	8195	733292	0	0
2024-04-22 00:41:32			0	34509	0	0	0	17353	15980	151903	27287	954325	37697	106296	0	0	8195	733622	0	0
2024-04-22 00:42:32			0	34496	0	0	0	17353	15980	151947	27405	954351	37697	106296	0	0	8194	734251	0	0
2024-04-22 00:43:32			0	34491	0	0	0	17348	15990	151967	27197	954341	37709	106294	0	0	8194	734453	0	0
2024-04-22 00:44:32			0	34488	0	0	0	17348	15980	151919	27383	954281	37708	106294	0	0	8194	734638	0	0
2024-04-22 00:45:32			0	34484	0	0	0	17345	15980	151879	27246	954299	37708	106293	0	0	8193	734832	0	0
2024-04-22 00:46:32			0	34486	0	0	0	17340	15990	152019	27338	954315	37709	106291	0	0	8194	734696	0	0
2024-04-22 00:47:32			0	34468	0	0	0	17345	15980	151815	27303	954325	37697	106293	0	0	8193	735607	0	0
2024-04-22 00:48:32			0	34484	0	0	0	17350	15980	151915	27260	954351	37697	106295	0	0	8193	734832	0	0
2024-04-22 00:49:32			0	34487	0	0	0	17353	15980	151887	27209	954307	37708	106296	0	0	8194	734687	0	0
2024-04-22 00:50:32			0	34491	0	0	0	17348	15970	151899	27357	954238	37697	106294	0	0	8194	734533	0	0
2024-04-22 00:51:32			0	34483	0	0	0	17350	15980	151747	27194	954299	37718	106295	0	0	8193	734880	0	0
2024-04-22 00:52:32			0	34487	0	0	0	17342	15980	151835	27010	954386	37698	106292	0	0	8194	734687	0	0
2024-04-22 00:53:32			0	34493	0	0	0	17348	15980	151875	27251	954333	37698	106294	0	0	8194	734396	0	0
2024-04-22 00:54:32			0	34506	0	0	0	17337	15980	151767	27760	954272	37708	106290	0	0	8195	733767	0	0
2024-04-22 00:55:32			0	34517	0	0	0	17345	15980	151771	27388	954307	37698	106293	0	0	8195	733235	0	0
2024-04-22 00:56:32			0	34529	0	0	0	17337	15980	151731	27170	954325	37697	106290	0	0	8196	732655	0	0
2024-04-22 00:57:32			0	34534	0	0	0	17340	15980	151603	27211	954307	37698	106291	0	0	8196	732414	0	0
2024-04-22 00:58:32			0	34538	0	0	0	17345	15980	151599	27105	954272	37686	106293	0	0	8197	732221	0	0
2024-04-22 00:59:32			0	34544	0	0	0	17332	15980	151639	27512	954299	37708	106288	0	0	8197	731931	0	0
2024-04-22 01:00:32			0	34554	0	0	0	17340	15970	151591	27171	954317	37697	106291	0	0	8198	731487	0	0
2024-04-22 01:01:32			0	34554	0	0	0	17337	15970	151611	27412	954317	37708	106290	0	0	8198	731487	0	0
2024-04-22 01:02:32			0	34532	0	0	0	17327	15970	151531	27556	954256	37708	106286	0	0	8196	732550	0	0
2024-04-22 01:03:32			0	34555	0	0	0	17337	15980	151619	27229	954246	37708	106290	0	0	8198	731400	0	0
2024-04-22 01:04:32			0	34541	0	0	0	17342	15970	151535	27209	954204	37696	106292	0	0	8197	732115	0	0
2024-04-22 01:05:32			0	34541	0	0	0	17340	15980	151591	27519	954272	37697	106291	0	0	8197	732076	0	0
2024-04-22 01:06:32			0	34546	0	0	0	17342	15970	151595	27081	954264	37708	106292	0	0	8197	731874	0	0
2024-04-22 01:07:32			0	34511	0	0	0	17335	15970	151627	27287	954264	37697	106289	0	0	8195	733565	0	0
2024-04-22 01:08:32			0	34516	0	0	0	17337	15980	151699	27294	954325	37708	106290	0	0	8195	733284	0	0
2024-04-22 01:09:32			0	34518	0	0	0	17342	15970	151723	27296	954291	37697	106292	0	0	8195	733226	0	0
2024-04-22 01:10:32			0	34530	0	0	0	17340	15960	151571	27277	954319	37717	106291	0	0	8196	732686	0	0
2024-04-22 01:11:32			0	34522	0	0	0	17340	15970	151687	27095	954317	37708	106291	0	0	8196	733033	0	0
2024-04-22 01:12:32			0	34526	0	0	0	17345	15980	151767	27007	954325	37708	106293	0	0	8196	732800	0	0
2024-04-22 01:13:32			0	34534	0	0	0	17342	15980	151763	27471	954272	37697	106292	0	0	8196	732414	0	0
2024-04-22 01:14:32			0	34518	0	0	0	17335	15980	151719	27223	954333	37698	106289	0	0	8196	733187	0	0
2024-04-22 01:15:32			0	34527	0	0	0	17340	15980	151655	27222	954307	37708	106291	0	0	8196	732752	0	0
2024-04-22 01:16:32			0	34515	0	0	0	17335	15970	151711	27208	954317	37708	106289	0	0	8195	733372	0	0
2024-04-22 01:17:32			0	34526	0	0	0	17314	15980	151651	27339	954220	37697	106281	0	0	8196	732800	0	0
2024-04-22 01:18:32			0	34513	0	0	0	17270	15970	151659	27131	954177	37696	106264	0	0	8196	733468	0	0
2024-04-22 01:19:32			0	34519	0	0	0	17207	15940	151659	27168	954005	37684	106240	0	0	8198	733297	0	0
2024-04-22 01:20:32			0	34543	0	0	0	17161	15930	151715	27203	953954	37682	106222	0	0	8200	732177	0	0
2024-04-22 01:21:32			0	34506	0	0	0	17192	15900	151755	27313	953808	37659	106234	0	0	8197	734084	0	0
2024-04-22 01:22:32			0	34491	0	0	0	17187	15900	151795	26967	953782	37691	106232	0	0	8196	734810	0	0
2024-04-22 01:23:32			0	34478	0	0	0	17163	15880	151943	27029	953776	37690	106223	0	0	8196	735519	0	0
2024-04-22 01:24:32			0	34456	0	0	0	17067	15870	151939	27339	953706	37688	106186	0	0	8196	736626	0	0
2024-04-22 01:25:32			0	34466	0	0	0	17046	15850	152023	27244	953577	37655	106178	0	0	8197	736220	0	0
2024-04-22 01:26:32			0	34445	0	0	0	17051	15850	151987	27630	953542	37675	106180	0	0	8196	737239	0	0
2024-04-22 01:27:32			0	34442	0	0	0	17057	15820	152043	27448	953449	37673	106182	0	0	8195	737504	0	0
2024-04-22 01:28:32			0	34442	0	0	0	17038	15810	152139	27289	953433	37663	106175	0	0	8196	737544	0	0
2024-04-22 01:29:32			0	34426	0	0	0	17018	15800	152135	27246	953303	37670	106167	0	0	8195	738361	0	0
2024-04-22 01:30:32			0	34424	0	0	0	17028	15790	152319	27244	953348	37660	106171	0	0	8195	738498	0	0
2024-04-22 01:31:32			0	34401	0	0	0	17033	15780	152311	27511	953350	37658	106173	0	0	8193	739657	0	0
2024-04-22 01:32:32			0	34393	0	0	0	17031	15770	152295	27286	953281	37658	106172	0	0	8193	740087	0	0
2024-04-22 01:33:32			0	34391	0	0	0	17031	15760	152339	27197	953291	37667	106172	0	0	8192	740224	0	0
2024-04-22 01:34:32			0	34384	0	0	0	17015	15740	152383	27258	953240	37645	106166	0	0	8192	740645	0	0
2024-04-22 01:35:32			0	34386	0	0	0	17002	15730	152383	27303	953250	37665	106161	0	0	8193	740587	0	0
2024-04-22 01:36:32			0	34378	0	0	0	17002	15730	152491	27097	953189	37654	106161	0	0	8192	740977	0	0
2024-04-22 01:37:32			0	34366	0	0	0	17007	15720	152427	27587	953173	37653	106163	0	0	8191	741602	0	0
2024-04-22 01:38:32			0	34382	0	0	0	17002	15720	152579	27351	953155	37654	106161	0	0	8192	740822	0	0
2024-04-22 01:39:32			0	34374	0	0	0	17010	15710	152567	27152	953157	37653	106164	0	0	8192	741252	0	0
2024-04-22 01:40:32			0	34361	0	0	0	17031	15710	152615	27286	953157	37664	106172	0	0	8191	741887	0	0
2024-04-22 01:41:32			0	34343	0	0	0	17038	15710	152594	27543	953157	37664	106175	0	0	8189	742765	0	0
2024-04-22 01:42:32			0	34351	0	0	0	17031	15700	152610	27178	953122	37674	106172	0	0	8190	742415	0	0
2024-04-22 01:43:32			0	34333	0	0	0	17031	15700	152730	27050	953149	37653	106172	0	0	8189	743294	0	0
2024-04-22 01:44:32			0	34330	0	0	0	17020	15700	152682	27332	953096	37664	106168	0	0	8189	743441	0	0
2024-04-22 01:45:32			0	34322	0	0	0	17020	15700	152738	27284	953088	37652	106168	0	0	8188	743832	0	0
2024-04-22 01:46:32			0	34343	0	0	0	17018	15690	152818	27270	953080	37651	106167	0	0	8190	742845	0	0
2024-04-22 01:47:32			0	34317	0	0	0	17007	15690	152718	27263	953053	37662	106163	0	0	8188	744116	0	0
2024-04-22 01:48:32			0	34334	0	0	0	17005	15690	152846	27538	953098	37651	106162	0	0	8189	743285	0	0
2024-04-22 01:49:32			0	34317	0	0	0	16997	15690	152798	27483	953019	37651	106159	0	0	8188	744116	0	0
2024-04-22 01:50:32			0	34320	0	0	0	16981	15680	152758	27358	952976	37639	106153	0	0	8189	744010	0	0
2024-04-22 01:51:32			0	34303	0	0	0	16971	15680	152790	27332	953055	37639	106149	0	0	8188	744842	0	0
2024-04-22 01:52:32			0	34304	0	0	0	16963	15650	152946	27265	952962	37659	106146	0	0	8188	744913	0	0
2024-04-22 01:53:32			0	34317	0	0	0	16963	15660	152942	27251	952996	37660	106146	0	0	8189	744237	0	0
2024-04-22 01:54:32			0	34285	0	0	0	16968	15650	152934	27149	952954	37636	106148	0	0	8187	745844	0	0
2024-04-22 01:55:32			0	34290	0	0	0	16984	15650	152874	27379	952901	37647	106154	0	0	8187	745599	0	0
2024-04-22 01:56:32			0	34297	0	0	0	16976	15650	152990	27131	952901	37658	106151	0	0	8188	745256	0	0
2024-04-22 01:57:32			0	34298	0	0	0	16974	15650	152930	27466	952901	37658	106150	0	0	8188	745207	0	0
2024-04-22 01:58:32			0	34287	0	0	0	16961	15640	153094	27303	952919	37658	106145	0	0	8187	745786	0	0
2024-04-22 01:59:32			0	34301	0	0	0	16963	15640	152906	27410	952919	37647	106146	0	0	8188	745100	0	0
2024-04-22 02:00:32			0	34295	0	0	0	17002	15630	153018	27251	952869	37656	106161	0	0	8187	745434	0	0
2024-04-22 02:01:32			0	34305	0	0	0	16986	15640	152978	27076	952938	37658	106155	0	0	8188	744904	0	0
2024-04-22 02:02:32			0	34298	0	0	0	16961	15630	153078	27242	952851	37657	106145	0	0	8188	745287	0	0
2024-04-22 02:03:32			0	34304	0	0	0	16971	15630	152902	27043	952851	37657	106149	0	0	8188	744993	0	0
2024-04-22 02:04:32			0	34290	0	0	0	16981	15620	152950	27398	952860	37634	106153	0	0	8187	745719	0	0
2024-04-22 02:05:32			0	34304	0	0	0	17031	15620	152890	27396	952860	37645	106172	0	0	8187	745033	0	0
2024-04-22 02:06:32			0	34310	0	0	0	17059	15620	152898	27204	952860	37666	106183	0	0	8187	744740	0	0
2024-04-22 02:07:32			0	34313	0	0	0	17075	15630	152926	27201	952974	37656	106189	0	0	8187	744553	0	0
2024-04-22 02:08:32			0	34326	0	0	0	17103	15640	152838	27358	953043	37658	106200	0	0	8187	743877	0	0
2024-04-22 02:09:32			0	34337	0	0	0	17127	15640	152818	27215	953130	37679	106209	0	0	8187	743339	0	0
2024-04-22 02:10:32			0	34340	0	0	0	17135	15670	152878	27185	953197	37670	106212	0	0	8187	743072	0	0
2024-04-22 02:11:32			0	34336	0	0	0	17168	15670	152810	27248	953284	37682	106225	0	0	8187	743268	0	0
2024-04-22 02:12:32			0	34349	0	0	0	17176	15690	152722	27072	953290	37694	106228	0	0	8187	742552	0	0
2024-04-22 02:13:32			0	34352	0	0	0	17184	15710	152791	27324	953402	37696	106231	0	0	8187	742326	0	0
2024-04-22 02:14:32			0	34357	0	0	0	17187	15720	152715	27277	953444	37665	106232	0	0	8188	742042	0	0
2024-04-22 02:15:32			0	34365	0	0	0	17189	15730	152623	27606	953487	37687	106233	0	0	8188	741611	0	0
2024-04-22 02:16:32			0	34383	0	0	0	17187	15730	152575	27282	953487	37687	106232	0	0	8189	740734	0	0
2024-04-22 02:17:32			0	34363	0	0	0	17189	15740	152563	27282	953521	37687	106233	0	0	8188	741669	0	0
2024-04-22 02:18:32			0	34362	0	0	0	17187	15750	152535	27588	953538	37700	106232	0	0	8188	741678	0	0
2024-04-22 02:19:32			0	34385	0	0	0	17179	15760	152547	27341	953475	37689	106229	0	0	8190	740517	0	0
2024-04-22 02:20:32			0	34382	0	0	0	17067	15750	152639	27609	953353	37678	106186	0	0	8191	740702	0	0
2024-04-22 02:21:32			0	34400	0	0	0	16999	15740	152555	27211	953179	37666	106160	0	0	8193	739865	0	0
2024-04-22 02:22:32			0	34400	0	0	0	16927	15710	152267	27319	953104	37653	106132	0	0	8195	739985	0	0
2024-04-22 02:23:32			0	34422	0	0	0	16877	15690	152279	27621	952974	37651	106113	0	0	8197	738994	0	0
2024-04-22 02:24:32			0	34413	0	0	0	16859	15670	152255	27377	952810	37638	106106	0	0	8196	739511	0	0
2024-04-22 02:25:32			0	34423	0	0	0	16844	15650	152267	27435	952804	37648	106100	0	0	8197	739104	0	0
2024-04-22 02:26:32			0	34415	0	0	0	16851	15640	152319	27538	952674	37625	106103	0	0	8196	739533	0	0
2024-04-22 02:27:32			0	34409	0	0	0	16841	15620	152427	27341	952668	37634	106099	0	0	8196	739905	0	0
2024-04-22 02:28:32			0	34387	0	0	0	16838	15600	152463	27407	952670	37643	106098	0	0	8195	741057	0	0
2024-04-22 02:29:32			0	34374	0	0	0	16841	15590	152535	27235	952601	37643	106099	0	0	8194	741731	0	0
2024-04-22 02:30:32			0	34382	0	0	0	16838	15570	152635	27358	952542	37641	106098	0	0	8194	741421	0	0
2024-04-22 02:31:32			0	34369	0	0	0	16844	15580	152679	27241	952506	37652	106100	0	0	8194	742015	0	0
2024-04-22 02:32:32			0	34361	0	0	0	16851	15550	152639	27164	952518	37639	106103	0	0	8193	742526	0	0
2024-04-22 02:33:32			0	34357	0	0	0	16849	15560	152703	27341	952499	37639	106102	0	0	8193	742681	0	0
2024-04-22 02:34:32			0	34369	0	0	0	16846	15540	152687	27183	952449	37627	106101	0	0	8193	742175	0	0
2024-04-22 02:35:32			0	34364	0	0	0	16828	15540	152687	27512	952441	37649	106094	0	0	8193	742419	0	0
2024-04-22 02:36:32			0	34378	0	0	0	16818	15530	152767	27585	952433	37649	106090	0	0	8194	741776	0	0
2024-04-22 02:37:32			0	34349	0	0	0	16797	15520	152755	27298	952382	37647	106082	0	0	8193	743232	0	0
2024-04-22 02:38:32			0	34358	0	0	0	16794	15520	152787	26982	952356	37625	106081	0	0	8193	742792	0	0
2024-04-22 02:39:32			0	34347	0	0	0	16792	15520	152878	27256	952356	37636	106080	0	0	8193	743330	0	0
2024-04-22 02:40:32			0	34349	0	0	0	16794	15500	152827	27192	952323	37624	106081	0	0	8193	743312	0	0
2024-04-22 02:41:32			0	34322	0	0	0	16792	15500	152978	27225	952244	37634	106080	0	0	8191	744633	0	0
2024-04-22 02:42:32			0	34323	0	0	0	16807	15480	153030	27324	952211	37633	106086	0	0	8191	744664	0	0
2024-04-22 02:43:32			0	34305	0	0	0	16807	15490	153018	27471	952280	37633	106086	0	0	8190	745506	0	0
2024-04-22 02:44:32			0	34322	0	0	0	16799	15480	153046	27523	952325	37623	106083	0	0	8191	744713	0	0
2024-04-22 02:45:32			0	34309	0	0	0	16799	15480	153038	27369	952298	37623	106083	0	0	8190	745350	0	0
2024-04-22 02:46:32			0	34318	0	0	0	16794	15470	152978	27192	952203	37622	106081	0	0	8191	744949	0	0
2024-04-22 02:47:32			0	34342	0	0	0	16794	15470	153003	27287	952274	37622	106081	0	0	8192	743775	0	0
2024-04-22 02:48:32			0	34345	0	0	0	16774	15470	152942	27296	952274	37622	106073	0	0	8193	743628	0	0
2024-04-22 02:49:32			0	34331	0	0	0	16742	15460	152826	27242	952161	37621	106061	0	0	8193	744353	0	0
2024-04-22 02:50:32			0	34323	0	0	0	16729	15440	152986	27390	952076	37619	106056	0	0	8192	744824	0	0
2024-04-22 02:51:32			0	34343	0	0	0	16729	15430	152938	27211	952033	37607	106056	0	0	8193	743886	0	0
2024-04-22 02:52:32			0	34342	0	0	0	16727	15430	152950	27215	952086	37607	106055	0	0	8193	743935	0	0
2024-04-22 02:53:32			0	34334	0	0	0	16703	15420	152810	27265	952043	37617	106046	0	0	8193	744366	0	0
2024-04-22 02:54:32			0	34331	0	0	0	16690	15410	152958	27251	951914	37617	106041	0	0	8193	744553	0	0
2024-04-22 02:55:32			0	34314	0	0	0	16698	15410	153078	27711	951940	37617	106044	0	0	8192	745386	0	0
2024-04-22 02:56:32			0	34291	0	0	0	16696	15410	153162	27142	951887	37627	106043	0	0	8191	746513	0	0
2024-04-22 02:57:32			0	34292	0	0	0	16703	15400	153234	27270	951897	37615	106046	0	0	8191	746504	0	0
2024-04-22 02:58:32			0	34264	0	0	0	16690	15390	153222	27457	951907	37615	106041	0	0	8189	747919	0	0
2024-04-22 02:59:32			0	34271	0	0	0	16685	15390	153418	27270	951837	37604	106039	0	0	8190	747575	0	0
2024-04-22 03:00:32			0	34242	0	0	0	16677	15380	153278	27183	951847	37614	106036	0	0	8188	749041	0	0
2024-04-22 03:01:32			0	34284	0	0	0	16670	15380	153374	27608	951786	37613	106033	0	0	8191	746977	0	0
2024-04-22 03:02:32			0	34268	0	0	0	16667	15370	153338	27306	951778	37613	106032	0	0	8190	747803	0	0
2024-04-22 03:03:32			0	34259	0	0	0	16667	15360	153378	27170	951788	37601	106032	0	0	8189	748286	0	0
2024-04-22 03:04:32			0	34248	0	0	0	16685	15350	153486	27308	951771	37611	106039	0	0	8188	748867	0	0
2024-04-22 03:05:32			0	34245	0	0	0	16683	15350	153554	27403	951737	37611	106038	0	0	8188	749014	0	0
2024-04-22 03:06:32			0	34219	0	0	0	16690	15360	153566	27440	951832	37612	106041	0	0	8187	750254	0	0
2024-04-22 03:07:32			0	34222	0	0	0	16680	15340	153578	27488	951703	37589	106037	0	0	8187	750186	0	0
2024-04-22 03:08:32			0	34227	0	0	0	16667	15340	153462	27303	951729	37600	106032	0	0	8187	749940	0	0
2024-04-22 03:09:32			0	34251	0	0	0	16644	15340	153550	27635	951668	37599	106023	0	0	8189	748759	0	0
2024-04-22 03:10:32			0	34240	0	0	0	16649	15330	153502	27203	951713	37620	106025	0	0	8188	749341	0	0
2024-04-22 03:11:32			0	34251	0	0	0	16638	15330	153426	27301	951652	37598	106021	0	0	8189	748800	0	0
2024-04-22 03:12:32			0	34251	0	0	0	16631	15320	153402	27583	951688	37586	106018	0	0	8189	748840	0	0
2024-04-22 03:13:32			0	34245	0	0	0	16641	15310	153378	27154	951575	37596	106022	0	0	8189	749175	0	0
2024-04-22 03:14:32			0	34253	0	0	0	16631	15320	153374	27376	951591	37598	106018	0	0	8189	748742	0	0
2024-04-22 03:15:32			0	34267	0	0	0	16623	15310	153386	27452	951593	37596	106015	0	0	8190	748093	0	0
2024-04-22 03:16:32			0	34261	0	0	0	16628	15320	153426	27277	951609	37597	106017	0	0	8190	748348	0	0
2024-04-22 03:17:32			0	34227	0	0	0	16633	15300	153506	27371	951559	37619	106019	0	0	8188	750101	0	0
2024-04-22 03:18:32			0	34226	0	0	0	16631	15310	153578	27443	951593	37619	106018	0	0	8188	750110	0	0
2024-04-22 03:19:32			0	34213	0	0	0	16636	15310	153722	27415	951593	37607	106020	0	0	8187	750751	0	0
2024-04-22 03:20:32			0	34181	0	0	0	16633	15290	153922	27464	951543	37606	106019	0	0	8185	752410	0	0
2024-04-22 03:21:32			0	34179	0	0	0	16631	15300	153794	27145	951577	37607	106018	0	0	8185	752468	0	0
2024-04-22 03:22:32			0	34168	0	0	0	16649	15300	153918	27228	951551	37607	106025	0	0	8184	753012	0	0
2024-04-22 03:23:32			0	34149	0	0	0	16657	15290	153934	27234	951569	37584	106028	0	0	8183	753991	0	0
2024-04-22 03:24:32			0	34152	0	0	0	16748	15290	153982	27071	951622	37617	106063	0	0	8181	753843	0	0
2024-04-22 03:25:32			0	34131	0	0	0	16807	15300	154070	27225	951796	37619	106086	0	0	8179	754841	0	0
2024-04-22 03:26:32			0	34132	0	0	0	16857	15320	154062	27350	951873	37630	106105	0	0	8178	754710	0	0
2024-04-22 03:27:32			0	34159	0	0	0	16890	15330	153966	26955	951844	37630	106118	0	0	8180	753335	0	0
2024-04-22 03:28:32			0	34156	0	0	0	16890	15340	153978	27405	951879	37631	106118	0	0	8179	753443	0	0
2024-04-22 03:29:32			0	34189	0	0	0	16825	15350	153826	27196	951850	37632	106093	0	0	8182	751773	0	0
2024-04-22 03:30:32			0	34188	0	0	0	16719	15340	153842	27135	951808	37611	106052	0	0	8184	751863	0	0
2024-04-22 03:31:32			0	34192	0	0	0	16670	15340	153750	27324	951695	37621	106033	0	0	8185	751665	0	0
2024-04-22 03:32:32			0	34192	0	0	0	16623	15330	153722	27390	951626	37609	106015	0	0	8186	751706	0	0
2024-04-22 03:33:32			0	34161	0	0	0	16612	15320	153714	27372	951609	37608	106011	0	0	8184	753277	0	0
2024-04-22 03:34:32			0	34155	0	0	0	16625	15310	153810	27336	951541	37619	106016	0	0	8184	753614	0	0
2024-04-22 03:35:32			0	34158	0	0	0	16633	15310	153962	27190	951654	37607	106019	0	0	8184	753465	0	0
2024-04-22 03:36:32			0	34128	0	0	0	16631	15310	154018	27336	951541	37619	106018	0	0	8182	754949	0	0
2024-04-22 03:37:32			0	34114	0	0	0	16638	15310	154086	27599	951549	37607	106021	0	0	8181	755642	0	0
2024-04-22 03:38:32			0	34072	0	0	0	16631	15300	154234	27365	951506	37596	106018	0	0	8179	757766	0	0
2024-04-22 03:39:32			0	34076	0	0	0	16633	15300	154254	27507	951559	37607	106019	0	0	8179	757567	0	0
2024-04-22 03:40:32			0	34057	0	0	0	16636	15300	154290	27260	951585	37607	106020	0	0	8178	758511	0	0
2024-04-22 03:41:32			0	34070	0	0	0	16636	15300	154414	27329	951603	37618	106020	0	0	8179	757865	0	0
2024-04-22 03:42:32			0	34044	0	0	0	16636	15290	154462	27112	951569	37595	106020	0	0	8177	759198	0	0
2024-04-22 03:43:32			0	34039	0	0	0	16657	15300	154438	27213	951551	37596	106028	0	0	8176	759405	0	0
2024-04-22 03:44:32			0	34030	0	0	0	16657	15300	154450	27530	951577	37607	106028	0	0	8176	759853	0	0
2024-04-22 03:45:32			0	34034	0	0	0	16657	15300	154518	27507	951656	37618	106028	0	0	8176	759654	0	0
2024-04-22 03:46:32			0	34028	0	0	0	16667	15300	154490	27540	951664	37607	106032	0	0	8176	759952	0	0
2024-04-22 03:47:32			0	34034	0	0	0	16677	15290	154554	27230	951648	37606	106036	0	0	8176	759695	0	0
2024-04-22 03:48:32			0	34016	0	0	0	16683	15310	154478	27376	951698	37607	106038	0	0	8175	760509	0	0
2024-04-22 03:49:32			0	34037	0	0	0	16693	15310	154546	27300	951698	37607	106042	0	0	8176	759464	0	0
2024-04-22 03:50:32			0	34027	0	0	0	16690	15320	154566	27039	951662	37619	106041	0	0	8175	759920	0	0
2024-04-22 03:51:32			0	34024	0	0	0	16706	15320	154506	27466	951749	37620	106047	0	0	8175	760070	0	0
2024-04-22 03:52:32			0	34036	0	0	0	16719	15320	154526	27457	951723	37620	106052	0	0	8175	759473	0	0
2024-04-22 03:53:32			0	34043	0	0	0	16722	15330	154446	26984	951757	37620	106053	0	0	8176	759084	0	0
2024-04-22 03:54:32			0	34059	0	0	0	16729	15340	154450	27178	951800	37621	106056	0	0	8176	758248	0	0
2024-04-22 03:55:32			0	34061	0	0	0	16750	15330	154334	27379	951818	37630	106064	0	0	8176	758190	0	0
2024-04-22 03:56:32			0	34050	0	0	0	16761	15340	154346	27320	951861	37622	106068	0	0	8175	758695	0	0
2024-04-22 03:57:32			0	34081	0	0	0	16758	15340	154358	27274	951913	37622	106067	0	0	8177	757156	0	0
2024-04-22 03:58:32			0	34109	0	0	0	16763	15350	154082	27187	951824	37622	106069	0	0	8179	755727	0	0
2024-04-22 03:59:32			0	34161	0	0	0	16761	15360	153934	27409	951885	37623	106068	0	0	8182	753115	0	0
2024-04-22 04:00:32			0	34202	0	0	0	16761	15350	153774	27599	951824	37632	106068	0	0	8184	751132	0	0
2024-04-22 04:01:32			0	34283	0	0	0	16753	15350	153402	27046	951877	37611	106065	0	0	8189	747147	0	0
2024-04-22 04:02:32			0	34364	0	0	0	16755	15360	152963	27357	951893	37624	106066	0	0	8194	743138	0	0
2024-04-22 04:03:32			0	34450	0	0	0	16755	15370	152663	27171	951875	37624	106066	0	0	8199	738903	0	0
2024-04-22 04:04:32			0	34515	0	0	0	16753	15360	152355	27607	951893	37634	106065	0	0	8202	735785	0	0
2024-04-22 04:05:32			0	34575	0	0	0	16753	15370	152075	27230	951935	37624	106065	0	0	8206	732839	0	0
2024-04-22 04:06:32			0	34651	0	0	0	16748	15370	151863	27341	951909	37613	106063	0	0	8210	729170	0	0
2024-04-22 04:07:32			0	34673	0	0	0	16750	15370	151595	27478	951962	37624	106064	0	0	8211	728111	0	0
2024-04-22 04:08:32			0	34709	0	0	0	16761	15370	151411	27334	951988	37613	106068	0	0	8213	726380	0	0
2024-04-22 04:09:32			0	34728	0	0	0	16755	15380	151287	27306	951978	37625	106066	0	0	8215	725428	0	0
2024-04-22 04:10:32			0	34748	0	0	0	16755	15380	151159	27185	952031	37614	106066	0	0	8216	724469	0	0
2024-04-22 04:11:32			0	34769	0	0	0	16758	15390	151139	27303	952013	37636	106067	0	0	8217	723424	0	0
2024-04-22 04:12:32			0	34764	0	0	0	16766	15380	151139	27092	952005	37625	106070	0	0	8216	723702	0	0
2024-04-22 04:13:32			0	34776	0	0	0	16763	15390	151027	27124	951960	37625	106069	0	0	8217	723089	0	0
2024-04-22 04:14:32			0	34792	0	0	0	16755	15380	150963	27280	951970	37613	106066	0	0	8218	722362	0	0
2024-04-22 04:15:32			0	34786	0	0	0	16766	15380	150967	27492	951952	37625	106070	0	0	8218	722649	0	0
2024-04-22 04:16:32			0	34786	0	0	0	16755	15390	150963	27300	952021	37625	106066	0	0	8218	722610	0	0
2024-04-22 04:17:32			0	34799	0	0	0	16763	15390	150983	27267	951995	37625	106069	0	0	8218	721988	0	0
2024-04-22 04:18:32			0	34804	0	0	0	16766	15390	150943	27168	952021	37615	106070	0	0	8219	721749	0	0
2024-04-22 04:19:32			0	34802	0	0	0	16761	15390	150967	27227	952013	37625	106068	0	0	8219	721845	0	0
2024-04-22 04:20:32			0	34802	0	0	0	16755	15400	150827	27203	952003	37625	106066	0	0	8219	721806	0	0
2024-04-22 04:21:32			0	34830	0	0	0	16753	15390	150879	27234	951960	37625	106065	0	0	8220	720507	0	0
2024-04-22 04:22:32			0	34827	0	0	0	16753	15400	150807	27258	952003	37636	106065	0	0	8220	720612	0	0
2024-04-22 04:23:32			0	34842	0	0	0	16750	15390	150699	27078	951934	37625	106064	0	0	8221	719934	0	0
2024-04-22 04:24:32			0	34862	0	0	0	16750	15380	150675	27305	951978	37625	106064	0	0	8222	719019	0	0
2024-04-22 04:25:32			0	34884	0	0	0	16753	15380	150507	26975	951952	37625	106065	0	0	8223	717971	0	0
2024-04-22 04:26:32			0	34875	0	0	0	16750	15390	150547	27270	951934	37625	106064	0	0	8223	718361	0	0
2024-04-22 04:27:32			0	34907	0	0	0	16742	15390	150383	27190	951995	37625	106061	0	0	8225	716838	0	0
2024-04-22 04:28:32			0	34913	0	0	0	16745	15380	150327	27215	951899	37614	106062	0	0	8225	716592	0	0
2024-04-22 04:29:32			0	34921	0	0	0	16735	15400	150295	27251	951950	37615	106058	0	0	8226	716134	0	0
2024-04-22 04:30:32			0	34940	0	0	0	16735	15370	150331	27376	951909	37624	106058	0	0	8227	715347	0	0
2024-04-22 04:31:32			0	34946	0	0	0	16737	15380	150243	27123	951978	37614	106059	0	0	8227	715024	0	0
2024-04-22 04:32:32			0	34966	0	0	0	16742	15390	150199	27435	951934	37625	106061	0	0	8228	714036	0	0
2024-04-22 04:33:32			0	34978	0	0	0	16729	15380	150031	27230	951926	37625	106056	0	0	8229	713506	0	0
2024-04-22 04:34:32			0	34977	0	0	0	16729	15380	150091	27357	951944	37613	106056	0	0	8229	713553	0	0
2024-04-22 04:35:32			0	35010	0	0	0	16740	15380	149999	27409	951978	37625	106060	0	0	8231	711991	0	0
2024-04-22 04:36:32			0	35003	0	0	0	16740	15390	149999	27428	952013	37615	106060	0	0	8230	712284	0	0
2024-04-22 04:37:32			0	35030	0	0	0	16750	15380	149911	27319	951970	37624	106064	0	0	8232	711045	0	0
2024-04-22 04:38:32			0	35035	0	0	0	16761	15390	149863	27537	952021	37615	106068	0	0	8232	710770	0	0
2024-04-22 04:39:32			0	35038	0	0	0	16763	15390	149947	27440	952047	37636	106069	0	0	8232	710629	0	0
2024-04-22 04:40:32			0	35040	0	0	0	16768	15390	149667	27102	952065	37625	106071	0	0	8232	710534	0	0
2024-04-22 04:41:32			0	35053	0	0	0	16781	15390	149627	27185	952047	37625	106076	0	0	8232	709920	0	0
2024-04-22 04:42:32			0	35076	0	0	0	16787	15390	149599	27524	952065	37625	106078	0	0	8234	708835	0	0
2024-04-22 04:43:32			0	35091	0	0	0	16789	15410	149579	27237	952150	37649	106079	0	0	8235	708051	0	0
2024-04-22 04:44:32			0	35100	0	0	0	16789	15410	149575	27367	952150	37627	106079	0	0	8235	707628	0	0
2024-04-22 04:45:32			0	35123	0	0	0	16792	15410	149384	27374	952150	37617	106080	0	0	8236	706545	0	0
2024-04-22 04:46:32			0	35146	0	0	0	16792	15410	149352	27131	952211	37627	106080	0	0	8238	705463	0	0
2024-04-22 04:47:32			0	35161	0	0	0	16805	15420	149252	26842	952193	37627	106085	0	0	8238	704721	0	0
2024-04-22 04:48:32			0	35170	0	0	0	16794	15420	149272	27019	952175	37628	106081	0	0	8239	704299	0	0
2024-04-22 04:49:32			0	35186	0	0	0	16802	15420	149120	27263	952140	37617	106084	0	0	8240	703548	0	0
2024-04-22 04:50:32			0	35198	0	0	0	16797	15430	149140	27095	952209	37640	106082	0	0	8240	702947	0	0
2024-04-22 04:51:32			0	35209	0	0	0	16799	15420	148992	27145	952175	37628	106083	0	0	8241	702470	0	0
2024-04-22 04:52:32			0	35206	0	0	0	16799	15420	149036	27419	952122	37639	106083	0	0	8241	702610	0	0
2024-04-22 04:53:32			0	35212	0	0	0	16805	15420	149096	27232	952227	37639	106085	0	0	8241	702329	0	0
2024-04-22 04:54:32			0	35209	0	0	0	16812	15430	149092	27213	952183	37628	106088	0	0	8241	702432	0	0
2024-04-22 04:55:32			0	35193	0	0	0	16812	15430	149060	27007	952209	37640	106088	0	0	8240	703182	0	0
2024-04-22 04:56:32			0	35215	0	0	0	16823	15430	149068	27178	952262	37651	106092	0	0	8241	702151	0	0
2024-04-22 04:57:32			0	35195	0	0	0	16820	15440	149120	27241	952304	37640	106091	0	0	8240	703050	0	0
2024-04-22 04:58:32			0	35189	0	0	0	16833	15430	149028	27109	952270	37640	106096	0	0	8239	703369	0	0
2024-04-22 04:59:32			0	35184	0	0	0	16849	15440	149052	27353	952357	37629	106102	0	0	8239	703566	0	0
2024-04-22 05:00:32			0	35196	0	0	0	16857	15450	149032	27362	952381	37641	106105	0	0	8239	702966	0	0
2024-04-22 05:01:32			0	35198	0	0	0	16875	15460	149064	27220	952398	37642	106112	0	0	8239	702834	0	0
2024-04-22 05:02:32			0	35187	0	0	0	16885	15460	149092	27178	952424	37653	106116	0	0	8239	703350	0	0
2024-04-22 05:03:32			0	35206	0	0	0	16885	15470	149076	27072	952519	37643	106116	0	0	8240	702421	0	0
2024-04-22 05:04:32			0	35202	0	0	0	16909	15490	148988	27100	952517	37656	106125	0	0	8239	702533	0	0
2024-04-22 05:05:32			0	35223	0	0	0	16924	15490	148896	27367	952465	37645	106131	0	0	8240	701550	0	0
2024-04-22 05:06:32			0	35210	0	0	0	16927	15500	148944	27505	952586	37645	106132	0	0	8239	702121	0	0
2024-04-22 05:07:32			0	35191	0	0	0	16927	15500	149052	27422	952542	37657	106132	0	0	8238	703011	0	0
2024-04-22 05:08:32			0	35150	0	0	0	16927	15510	149160	27339	952584	37636	106132	0	0	8236	704896	0	0
2024-04-22 05:09:32			0	35108	0	0	0	16932	15520	149451	27213	952619	37647	106134	0	0	8234	706832	0	0
2024-04-22 05:10:32			0	35057	0	0	0	16935	15510	149487	27260	952637	37647	106135	0	0	8231	709273	0	0
2024-04-22 05:11:32			0	34992	0	0	0	16929	15530	149787	27274	952635	37648	106133	0	0	8227	712268	0	0
2024-04-22 05:12:32			0	34912	0	0	0	16948	15530	150083	27384	952635	37669	106140	0	0	8222	716061	0	0
2024-04-22 05:13:32			0	34836	0	0	0	16955	15530	150403	27249	952688	37659	106143	0	0	8218	719679	0	0
2024-04-22 05:14:32			0	34761	0	0	0	16955	15540	150767	27235	952678	37649	106143	0	0	8214	723223	0	0
2024-04-22 05:15:32			0	34697	0	0	0	16968	15540	151011	27130	952704	37649	106148	0	0	8210	726292	0	0
2024-04-22 05:16:32			0	34646	0	0	0	16971	15540	151355	27341	952765	37661	106149	0	0	8207	728744	0	0
2024-04-22 05:17:32			0	34556	0	0	0	16976	15540	151639	27178	952678	37660	106151	0	0	8202	733087	0	0
2024-04-22 05:18:32			0	34504	0	0	0	16968	15540	151911	27343	952712	37661	106148	0	0	8199	735606	0	0
2024-04-22 05:19:32			0	34453	0	0	0	16958	15540	152011	27150	952686	37650	106144	0	0	8196	738082	0	0
2024-04-22 05:20:32			0	34413	0	0	0	16940	15540	152295	27357	952686	37650	106137	0	0	8194	740029	0	0
2024-04-22 05:21:32			0	34369	0	0	0	16948	15540	152383	27320	952678	37660	106140	0	0	8192	742175	0	0
2024-04-22 05:22:32			0	34335	0	0	0	16945	15530	152522	27033	952643	37660	106139	0	0	8190	743877	0	0
2024-04-22 05:23:32			0	34319	0	0	0	16940	15540	152690	27230	952633	37650	106137	0	0	8189	744620	0	0
2024-04-22 05:24:32			0	34292	0	0	0	16932	15540	152894	27067	952659	37661	106134	0	0	8187	745942	0	0
2024-04-22 05:25:32			0	34263	0	0	0	16922	15540	152962	27031	952659	37650	106130	0	0	8186	747365	0	0
2024-04-22 05:26:32			0	34218	0	0	0	16924	15530	153146	27199	952643	37660	106131	0	0	8183	749617	0	0
2024-04-22 05:27:32			0	34204	0	0	0	16924	15540	153346	27093	952651	37660	106131	0	0	8183	750266	0	0
2024-04-22 05:28:32			0	34163	0	0	0	16940	15540	153358	27168	952659	37671	106137	0	0	8180	752287	0	0
2024-04-22 05:29:32			0	34138	0	0	0	16937	15540	153626	27241	952659	37661	106136	0	0	8178	753521	0	0
2024-04-22 05:30:32			0	34103	0	0	0	16937	15540	153730	26993	952580	37627	106136	0	0	8176	755252	0	0
2024-04-22 05:31:32			0	34083	0	0	0	16919	15540	153706	27254	952546	37649	106129	0	0	8176	756243	0	0
2024-04-22 05:32:32			0	34059	0	0	0	16906	15540	153854	27209	952599	37660	106124	0	0	8174	757433	0	0
2024-04-22 05:33:32			0	34018	0	0	0	16901	15520	154082	27267	952513	37658	106122	0	0	8172	759551	0	0
2024-04-22 05:34:32			0	34002	0	0	0	16906	15520	154194	27150	952522	37659	106124	0	0	8171	760347	0	0
2024-04-22 05:35:32			0	33978	0	0	0	16911	15520	154282	27187	952566	37636	106126	0	0	8170	761542	0	0
2024-04-22 05:36:32			0	33953	0	0	0	16919	15520	154394	27109	952592	37658	106129	0	0	8168	762788	0	0
2024-04-22 05:37:32			0	33953	0	0	0	16950	15520	154458	27159	952601	37648	106141	0	0	8167	762788	0	0
2024-04-22 05:38:32			0	33921	0	0	0	16950	15520	154598	27090	952680	37669	106141	0	0	8166	764386	0	0
2024-04-22 05:39:32			0	33918	0	0	0	16984	15520	154602	26991	952671	37668	106154	0	0	8165	764536	0	0
2024-04-22 05:40:32			0	33882	0	0	0	16989	15540	154678	27293	952730	37681	106156	0	0	8163	766255	0	0
2024-04-22 05:41:32			0	33891	0	0	0	17005	15540	154710	27473	952765	37671	106162	0	0	8163	765804	0	0
2024-04-22 05:42:32			0	33896	0	0	0	17023	15560	154710	27684	952823	37672	106169	0	0	8163	765472	0	0
2024-04-22 05:43:32			0	33892	0	0	0	17028	15580	154618	27409	952900	37684	106171	0	0	8163	765589	0	0
2024-04-22 05:44:32			0	33883	0	0	0	17031	15580	154678	27216	952988	37674	106172	0	0	8162	766040	0	0
2024-04-22 05:45:32			0	33899	0	0	0	17041	15600	154550	26861	952978	37686	106176	0	0	8163	765157	0	0
2024-04-22 05:46:32			0	33919	0	0	0	17046	15610	154434	27388	952994	37687	106178	0	0	8164	764116	0	0
2024-04-22 05:47:32			0	33917	0	0	0	17051	15620	154554	27182	953071	37666	106180	0	0	8164	764175	0	0
2024-04-22 05:48:32			0	33913	0	0	0	17049	15620	154574	27036	953045	37666	106179	0	0	8164	764375	0	0
2024-04-22 05:49:32			0	33896	0	0	0	17062	15630	154546	27535	953061	37678	106184	0	0	8163	765183	0	0
2024-04-22 05:50:32			0	33873	0	0	0	17064	15640	154582	27222	953130	37679	106185	0	0	8161	766293	0	0
2024-04-22 05:51:32			0	33856	0	0	0	17051	15640	154566	27171	953183	37679	106180	0	0	8161	767144	0	0
2024-04-22 05:52:32			0	33838	0	0	0	17064	15630	154766	27272	953140	37678	106185	0	0	8159	768088	0	0
2024-04-22 05:53:32			0	33815	0	0	0	17070	15660	154834	27455	953154	37681	106187	0	0	8158	769118	0	0
2024-04-22 05:54:32			0	33799	0	0	0	17064	15650	154866	27336	953146	37680	106185	0	0	8157	769963	0	0
2024-04-22 05:55:32			0	33786	0	0	0	17067	15670	155002	27234	953118	37681	106186	0	0	8156	770534	0	0
2024-04-22 05:56:32			0	33773	0	0	0	17062	15660	155034	27450	953215	37681	106184	0	0	8156	771230	0	0
2024-04-22 05:57:32			0	33761	0	0	0	17067	15660	155102	27592	953136	37681	106186	0	0	8155	771833	0	0
2024-04-22 05:58:32			0	33733	0	0	0	17070	15670	155126	27381	953223	37681	106187	0	0	8153	773203	0	0
2024-04-22 05:59:32			0	33743	0	0	0	17064	15670	155142	27244	953179	37670	106185	0	0	8154	772699	0	0
2024-04-22 06:00:32			0	33754	0	0	0	17064	15670	155158	27371	953231	37693	106185	0	0	8155	772144	0	0
2024-04-22 06:01:32			0	33752	0	0	0	17075	15680	155122	27232	953319	37682	106189	0	0	8154	772204	0	0
2024-04-22 06:02:32			0	33754	0	0	0	17072	15670	155090	27450	953231	37670	106188	0	0	8154	772144	0	0
2024-04-22 06:03:32			0	33755	0	0	0	17070	15700	155098	27549	953272	37684	106187	0	0	8155	771969	0	0
2024-04-22 06:04:32			0	33752	0	0	0	17070	15680	155030	27391	953274	37672	106187	0	0	8154	772204	0	0
2024-04-22 06:05:32			0	33787	0	0	0	17077	15690	154930	27358	953256	37672	106190	0	0	8156	770401	0	0
2024-04-22 06:06:32			0	33780	0	0	0	17067	15690	154902	27398	953282	37683	106186	0	0	8156	770753	0	0
2024-04-22 06:07:32			0	33795	0	0	0	17072	15690	154854	27365	953264	37672	106188	0	0	8157	769999	0	0
2024-04-22 06:08:32			0	33783	0	0	0	17064	15680	154778	27377	953274	37694	106185	0	0	8156	770643	0	0
2024-04-22 06:09:32			0	33814	0	0	0	17070	15690	154774	27230	953238	37683	106187	0	0	8158	769044	0	0
2024-04-22 06:10:32			0	33831	0	0	0	17072	15680	154718	27518	953274	37672	106188	0	0	8159	768232	0	0
2024-04-22 06:11:32			0	33854	0	0	0	17062	15700	154686	27326	953246	37684	106184	0	0	8161	766997	0	0
2024-04-22 06:12:32			0	33855	0	0	0	17064	15690	154614	27163	953256	37683	106185	0	0	8161	766988	0	0
2024-04-22 06:13:32			0	33869	0	0	0	17062	15690	154478	27640	953238	37672	106184	0	0	8161	766287	0	0
2024-04-22 06:14:32			0	33877	0	0	0	17070	15690	154494	27229	953229	37662	106187	0	0	8162	765886	0	0
2024-04-22 06:15:32			0	33893	0	0	0	17067	15690	154458	27524	953264	37683	106186	0	0	8163	765086	0	0
2024-04-22 06:16:32			0	33893	0	0	0	17062	15700	154394	27583	953272	37684	106184	0	0	8163	765045	0	0
2024-04-22 06:17:32			0	33898	0	0	0	17051	15700	154366	27114	953306	37696	106180	0	0	8163	764795	0	0
2024-04-22 06:18:32			0	33930	0	0	0	17062	15690	154286	27012	953238	37683	106184	0	0	8165	763238	0	0
2024-04-22 06:19:32			0	33913	0	0	0	17062	15700	154358	26953	953325	37673	106184	0	0	8164	764045	0	0
2024-04-22 06:20:32			0	33915	0	0	0	17062	15700	154126	27038	953272	37673	106184	0	0	8164	763945	0	0
2024-04-22 06:21:32			0	33950	0	0	0	17062	15700	154166	27372	953254	37685	106184	0	0	8166	762199	0	0
2024-04-22 06:22:32			0	33942	0	0	0	17064	15680	154086	27386	953248	37683	106185	0	0	8166	762680	0	0
2024-04-22 06:23:32			0	33954	0	0	0	17062	15700	154102	27161	953298	37663	106184	0	0	8166	762000	0	0
2024-04-22 06:24:32			0	33965	0	0	0	17057	15700	154086	27786	953272	37663	106182	0	0	8167	761452	0	0
2024-04-22 06:25:32			0	33989	0	0	0	17062	15700	153966	27497	953377	37684	106184	0	0	8168	760257	0	0
2024-04-22 06:26:32			0	33973	0	0	0	17064	15700	154038	27521	953298	37684	106185	0	0	8168	761053	0	0
2024-04-22 06:27:32			0	33995	0	0	0	17064	15700	153938	27454	953298	37684	106185	0	0	8169	759959	0	0
2024-04-22 06:28:32			0	34015	0	0	0	17064	15700	154038	27471	953246	37695	106185	0	0	8170	758964	0	0
2024-04-22 06:29:32			0	34024	0	0	0	17064	15700	153906	27150	953254	37685	106185	0	0	8170	758517	0	0
2024-04-22 06:30:32			0	34017	0	0	0	17062	15700	153746	27300	953298	37673	106184	0	0	8170	758865	0	0
2024-04-22 06:31:32			0	34034	0	0	0	17070	15700	153682	27436	953325	37684	106187	0	0	8171	758021	0	0
2024-04-22 06:32:32			0	34059	0	0	0	17054	15700	153658	27450	953306	37685	106181	0	0	8173	756781	0	0
2024-04-22 06:33:32			0	34052	0	0	0	17062	15690	153642	27552	953238	37683	106184	0	0	8172	757169	0	0
2024-04-22 06:34:32			0	34070	0	0	0	17057	15690	153518	27251	953264	37683	106182	0	0	8173	756276	0	0
2024-04-22 06:35:32			0	34090	0	0	0	17059	15700	153402	27298	953325	37673	106183	0	0	8174	755245	0	0
2024-04-22 06:36:32			0	34107	0	0	0	17054	15690	153342	27462	953290	37672	106181	0	0	8175	754445	0	0
2024-04-22 06:37:32			0	34121	0	0	0	17064	15700	153298	27287	953280	37685	106185	0	0	8176	753712	0	0
2024-04-22 06:38:32			0	34146	0	0	0	17059	15700	153206	27573	953306	37685	106183	0	0	8178	752478	0	0
2024-04-22 06:39:32			0	34168	0	0	0	17054	15700	153134	27521	953306	37685	106181	0	0	8179	751393	0	0
2024-04-22 06:40:32			0	34182	0	0	0	17057	15700	153066	27523	953298	37684	106182	0	0	8180	750703	0	0
2024-04-22 06:41:32			0	34191	0	0	0	17064	15700	152910	27312	953246	37673	106185	0	0	8180	750260	0	0
2024-04-22 06:42:32			0	34219	0	0	0	17062	15690	152802	27350	953290	37694	106184	0	0	8182	748923	0	0
2024-04-22 06:43:32			0	34247	0	0	0	17064	15700	152706	27687	953280	37685	106185	0	0	8183	747507	0	0
2024-04-22 06:44:32			0	34252	0	0	0	17062	15700	152550	27365	953351	37684	106184	0	0	8184	747261	0	0
2024-04-22 06:45:32			0	34292	0	0	0	17059	15700	152526	27514	953272	37673	106183	0	0	8186	745300	0	0
2024-04-22 06:46:32			0	34306	0	0	0	17051	15710	152438	27455	953288	37674	106180	0	0	8187	744574	0	0
2024-04-22 06:47:32			0	34328	0	0	0	17057	15710	152410	27261	953315	37685	106182	0	0	8188	743498	0	0
2024-04-22 06:48:32			0	34348	0	0	0	17057	15700	152315	27666	953333	37685	106182	0	0	8189	742561	0	0
2024-04-22 06:49:32			0	34353	0	0	0	17059	15700	152159	27436	953325	37684	106183	0	0	8190	742317	0	0
2024-04-22 06:50:32			0	34387	0	0	0	17059	15700	152151	27331	953298	37673	106183	0	0	8191	740658	0	0
2024-04-22 06:51:32			0	34388	0	0	0	17059	15700	152087	27128	953306	37674	106183	0	0	8192	740609	0	0
2024-04-22 06:52:32			0	34419	0	0	0	17057	15710	152019	27362	953315	37685	106182	0	0	8193	739060	0	0
2024-04-22 06:53:32			0	34413	0	0	0	17059	15710	151939	27416	953394	37696	106183	0	0	8193	739352	0	0
2024-04-22 06:54:32			0	34430	0	0	0	17064	15710	151847	27400	953288	37685	106185	0	0	8194	738525	0	0
2024-04-22 06:55:32			0	34464	0	0	0	17067	15700	151683	27074	953280	37674	106186	0	0	8196	736912	0	0
2024-04-22 06:56:32			0	34487	0	0	0	17064	15700	151807	27213	953325	37673	106185	0	0	8197	735796	0	0
2024-04-22 06:57:32			0	34500	0	0	0	17059	15700	151631	27282	953280	37696	106183	0	0	8198	735166	0	0
2024-04-22 06:58:32			0	34520	0	0	0	17064	15700	151627	27279	953298	37684	106185	0	0	8199	734197	0	0
2024-04-22 06:59:32			0	34523	0	0	0	17062	15700	151555	27178	953306	37685	106184	0	0	8199	734052	0	0
2024-04-22 07:00:32			0	34543	0	0	0	17064	15700	151407	27107	953298	37673	106185	0	0	8200	733085	0	0
2024-04-22 07:01:32			0	34567	0	0	0	17064	15690	151435	27478	953264	37683	106185	0	0	8202	731964	0	0
2024-04-22 07:02:32			0	34573	0	0	0	17057	15700	151339	27509	953272	37673	106182	0	0	8202	731635	0	0
2024-04-22 07:03:32			0	34578	0	0	0	17059	15700	151187	27299	953333	37685	106183	0	0	8202	731394	0	0
2024-04-22 07:04:32			0	34593	0	0	0	17044	15710	151043	27476	953288	37685	106177	0	0	8204	730630	0	0
2024-04-22 07:05:32			0	34628	0	0	0	17049	15690	151027	27161	953308	37683	106179	0	0	8205	729022	0	0
2024-04-22 07:06:32			0	34656	0	0	0	17046	15700	150879	27651	953280	37685	106178	0	0	8207	727636	0	0
2024-04-22 07:07:32			0	34667	0	0	0	17046	15710	150775	27098	953236	37664	106178	0	0	8208	727068	0	0
2024-04-22 07:08:32			0	34691	0	0	0	17041	15700	150619	27502	953272	37684	106176	0	0	8209	725954	0	0
2024-04-22 07:09:32			0	34726	0	0	0	17038	15700	150463	27362	953246	37673	106175	0	0	8211	724276	0	0
2024-04-22 07:10:32			0	34763	0	0	0	17038	15690	150331	27308	953282	37672	106175	0	0	8213	722544	0	0
2024-04-22 07:11:32			0	34774	0	0	0	17038	15690	150259	27192	953229	37672	106175	0	0	8214	722018	0	0
2024-04-22 07:12:32			0	34808	0	0	0	17033	15680	150083	27362	953221	37683	106173	0	0	8216	720433	0	0
2024-04-22 07:13:32			0	34828	0	0	0	17038	15690	149979	27587	953290	37683	106175	0	0	8217	719440	0	0
2024-04-22 07:14:32			0	34861	0	0	0	17031	15690	149943	27267	953238	37672	106172	0	0	8219	717868	0	0
2024-04-22 07:15:32			0	34881	0	0	0	17044	15690	149827	27602	953211	37672	106177	0	0	8220	716917	0	0
2024-04-22 07:16:32			0	34900	0	0	0	17046	15690	149687	27313	953256	37683	106178	0	0	8221	716014	0	0
2024-04-22 07:17:32			0	34944	0	0	0	17041	15690	149535	27408	953238	37683	106176	0	0	8223	713927	0	0
2024-04-22 07:18:32			0	34951	0	0	0	17054	15700	149559	27362	953246	37684	106181	0	0	8224	713557	0	0
2024-04-22 07:19:32			0	34974	0	0	0	17049	15690	149535	27282	953282	37662	106179	0	0	8225	712506	0	0
2024-04-22 07:20:32			0	34973	0	0	0	17051	15700	149459	27428	953325	37673	106180	0	0	8225	712515	0	0
2024-04-22 07:21:32			0	35008	0	0	0	17041	15690	149399	27274	953238	37683	106176	0	0	8227	710898	0	0
2024-04-22 07:22:32			0	34988	0	0	0	17051	15690	149235	27365	953203	37672	106180	0	0	8226	711844	0	0
2024-04-22 07:23:32			0	35001	0	0	0	17046	15690	149259	27189	953203	37672	106178	0	0	8226	711229	0	0
2024-04-22 07:24:32			0	35002	0	0	0	17049	15690	149415	27010	953238	37672	106179	0	0	8226	711182	0	0
2024-04-22 07:25:32			0	35032	0	0	0	17046	15690	149307	27597	953264	37683	106178	0	0	8228	709765	0	0
2024-04-22 07:26:32			0	35028	0	0	0	17044	15690	149167	27549	953203	37672	106177	0	0	8228	709954	0	0
2024-04-22 07:27:32			0	35005	0	0	0	17031	15680	149235	27289	953134	37671	106172	0	0	8227	711078	0	0
2024-04-22 07:28:32			0	35012	0	0	0	17025	15680	149247	27345	953142	37662	106170	0	0	8227	710748	0	0
2024-04-22 07:29:32			0	34996	0	0	0	16997	15670	149271	27417	953065	37660	106159	0	0	8227	711542	0	0
2024-04-22 07:30:32			0	34974	0	0	0	16989	15670	149403	27550	953065	37660	106156	0	0	8226	712583	0	0
2024-04-22 07:31:32			0	34986	0	0	0	16984	15660	149359	27815	953057	37660	106154	0	0	8226	712053	0	0
2024-04-22 07:32:32			0	34974	0	0	0	16986	15660	149399	27628	953075	37660	106155	0	0	8226	712621	0	0
2024-04-22 07:33:32			0	34921	0	0	0	16981	15660	149639	27569	953049	37670	106153	0	0	8223	715133	0	0
2024-04-22 07:34:32			0	34861	0	0	0	16971	15640	149935	27429	952990	37658	106149	0	0	8220	718062	0	0
2024-04-22 07:35:32			0	34759	0	0	0	16945	15630	150419	27483	952956	37657	106139	0	0	8214	722969	0	0
2024-04-22 07:36:32			0	34608	0	0	0	16932	15620	150943	27576	952879	37656	106134	0	0	8206	730261	0	0
2024-04-22 07:37:32			0	34477	0	0	0	16927	15610	151699	27346	952862	37666	106132	0	0	8198	736638	0	0
2024-04-22 07:38:32			0	34315	0	0	0	16929	15610	152322	27336	952844	37655	106133	0	0	8189	744535	0	0
2024-04-22 07:39:32			0	34214	0	0	0	16940	15610	152882	27604	952915	37676	106137	0	0	8183	749491	0	0
2024-04-22 07:40:32			0	34109	0	0	0	16948	15620	153282	27175	952879	37666	106140	0	0	8177	754630	0	0
2024-04-22 07:41:32			0	34019	0	0	0	16955	15620	153638	27492	952984	37666	106143	0	0	8172	759092	0	0
2024-04-22 07:42:32			0	33975	0	0	0	16958	15610	153950	27301	952862	37666	106144	0	0	8169	761323	0	0
2024-04-22 07:43:32			0	33923	0	0	0	16958	15610	154222	27557	952923	37677	106144	0	0	8166	763916	0	0
2024-04-22 07:44:32			0	33874	0	0	0	16974	15620	154354	27343	952984	37677	106150	0	0	8163	766325	0	0
2024-04-22 07:45:32			0	33843	0	0	0	16979	15620	154550	27556	953018	37656	106152	0	0	8161	767879	0	0
2024-04-22 07:46:32			0	33812	0	0	0	16968	15610	154738	27462	952862	37655	106148	0	0	8159	769476	0	0
2024-04-22 07:47:32			0	33787	0	0	0	16974	15620	154770	27303	952984	37677	106150	0	0	8158	770691	0	0
2024-04-22 07:48:32			0	33777	0	0	0	16979	15610	154946	27178	952976	37666	106152	0	0	8157	771236	0	0
2024-04-22 07:49:32			0	33754	0	0	0	16971	15620	154850	27353	952984	37677	106149	0	0	8156	772352	0	0
2024-04-22 07:50:32			0	33754	0	0	0	16968	15620	155002	27542	952931	37666	106148	0	0	8156	772352	0	0
2024-04-22 07:51:32			0	33730	0	0	0	16961	15610	155078	27310	952976	37655	106145	0	0	8155	773604	0	0
2024-04-22 07:52:32			0	33739	0	0	0	16953	15600	155074	27279	952933	37676	106142	0	0	8155	773192	0	0
2024-04-22 07:53:32			0	33737	0	0	0	16953	15600	155058	27144	952933	37666	106142	0	0	8155	773292	0	0
2024-04-22 07:54:32			0	33737	0	0	0	16940	15610	155058	27171	952941	37655	106137	0	0	8155	773251	0	0
2024-04-22 07:55:32			0	33740	0	0	0	16948	15600	155094	27360	952933	37655	106140	0	0	8155	773141	0	0
2024-04-22 07:56:32			0	33727	0	0	0	16953	15600	155090	27360	952872	37654	106142	0	0	8155	773797	0	0
2024-04-22 07:57:32			0	33729	0	0	0	16948	15600	155018	27331	952872	37665	106140	0	0	8155	773696	0	0
2024-04-22 07:58:32			0	33738	0	0	0	16945	15600	155106	27405	952872	37654	106139	0	0	8155	773242	0	0
2024-04-22 07:59:32			0	33743	0	0	0	16942	15590	155022	27450	952811	37675	106138	0	0	8156	773032	0	0
2024-04-22 08:00:32			0	33744	0	0	0	16940	15600	154994	27381	952899	37665	106137	0	0	8156	772940	0	0
2024-04-22 08:01:32			0	33756	0	0	0	16942	15590	154990	27384	952811	37675	106138	0	0	8156	772376	0	0
2024-04-22 08:02:32			0	33749	0	0	0	16929	15570	154954	27286	952753	37663	106133	0	0	8156	772812	0	0
2024-04-22 08:03:32			0	33747	0	0	0	16909	15580	154954	27213	952777	37642	106125	0	0	8156	772871	0	0
2024-04-22 08:04:32			0	33764	0	0	0	16880	15560	154990	27329	952718	37662	106114	0	0	8158	772098	0	0
2024-04-22 08:05:32			0	33751	0	0	0	16867	15560	154978	27211	952710	37650	106109	0	0	8157	772753	0	0
2024-04-22 08:06:32			0	33766	0	0	0	16857	15550	154926	27303	952623	37650	106105	0	0	8158	772039	0	0
2024-04-22 08:07:32			0	33766	0	0	0	16851	15550	154966	27608	952615	37650	106103	0	0	8158	772039	0	0
2024-04-22 08:08:32			0	33797	0	0	0	16849	15540	154934	27177	952599	37649	106102	0	0	8160	770520	0	0
2024-04-22 08:09:32			0	33799	0	0	0	16854	15540	154950	27362	952625	37638	106104	0	0	8160	770419	0	0
2024-04-22 08:10:32			0	33776	0	0	0	16862	15530	154938	27209	952617	37638	106107	0	0	8159	771618	0	0
2024-04-22 08:11:32			0	33805	0	0	0	16857	15530	154878	27204	952609	37659	106105	0	0	8160	770159	0	0
2024-04-22 08:12:32			0	33795	0	0	0	16867	15530	154798	27244	952609	37637	106109	0	0	8160	770662	0	0
2024-04-22 08:13:32			0	33809	0	0	0	16872	15530	154834	27448	952609	37648	106111	0	0	8160	769958	0	0
2024-04-22 08:14:32			0	33794	0	0	0	16864	15520	154698	27391	952619	37647	106108	0	0	8160	770754	0	0
2024-04-22 08:15:32			0	33823	0	0	0	16857	15520	154658	27272	952601	37659	106105	0	0	8161	769296	0	0
2024-04-22 08:16:32			0	33860	0	0	0	16870	15520	154658	27345	952574	37626	106110	0	0	8163	767439	0	0
2024-04-22 08:17:32			0	33862	0	0	0	16870	15510	154522	27575	952611	37658	106110	0	0	8163	767380	0	0
2024-04-22 08:18:32			0	33861	0	0	0	16872	15510	154450	27537	952558	37658	106111	0	0	8163	767431	0	0
2024-04-22 08:19:32			0	33868	0	0	0	16875	15510	154538	27357	952576	37646	106112	0	0	8164	767080	0	0
2024-04-22 08:20:32			0	33868	0	0	0	16888	15520	154382	27405	952645	37668	106117	0	0	8164	767039	0	0
2024-04-22 08:21:32			0	33892	0	0	0	16893	15510	154330	27384	952655	37657	106119	0	0	8165	765878	0	0
2024-04-22 08:22:32			0	33898	0	0	0	16898	15530	154350	27190	952661	37659	106121	0	0	8165	765495	0	0
2024-04-22 08:23:32			0	33917	0	0	0	16906	15530	154338	27249	952688	37669	106124	0	0	8166	764545	0	0
2024-04-22 08:24:32			0	33917	0	0	0	16909	15520	154186	27554	952671	37658	106125	0	0	8166	764586	0	0
2024-04-22 08:25:32			0	33928	0	0	0	16914	15530	154290	27268	952661	37659	106127	0	0	8167	763995	0	0
2024-04-22 08:26:32			0	33940	0	0	0	16924	15530	154218	27197	952722	37660	106131	0	0	8167	763396	0	0
2024-04-22 08:27:32			0	33938	0	0	0	16940	15530	154234	27479	952748	37660	106137	0	0	8167	763496	0	0
2024-04-22 08:28:32			0	33933	0	0	0	16953	15540	154070	27272	952730	37660	106142	0	0	8166	763705	0	0
2024-04-22 08:29:32			0	33967	0	0	0	16953	15550	154114	27433	952773	37661	106142	0	0	8168	761967	0	0
2024-04-22 08:30:32			0	33969	0	0	0	16953	15550	153982	27258	952799	37671	106142	0	0	8168	761867	0	0
2024-04-22 08:31:32			0	33969	0	0	0	16958	15560	154062	27426	952842	37661	106144	0	0	8168	761826	0	0
2024-04-22 08:32:32			0	33959	0	0	0	16958	15560	154026	27137	952842	37661	106144	0	0	8168	762325	0	0
2024-04-22 08:33:32			0	33969	0	0	0	16979	15570	153974	27078	952911	37673	106152	0	0	8168	761785	0	0
2024-04-22 08:34:32			0	33980	0	0	0	16992	15570	154062	27306	952937	37673	106157	0	0	8169	761237	0	0
2024-04-22 08:35:32			0	33991	0	0	0	16994	15580	154086	27689	952935	37685	106158	0	0	8169	760649	0	0
2024-04-22 08:36:32			0	33993	0	0	0	17005	15600	153954	27616	952951	37675	106162	0	0	8169	760467	0	0
2024-04-22 08:37:32			0	34005	0	0	0	16999	15590	153934	27578	952969	37675	106160	0	0	8170	759911	0	0
2024-04-22 08:38:32			0	33998	0	0	0	17002	15600	153838	27438	952986	37666	106161	0	0	8170	760218	0	0
2024-04-22 08:39:32			0	33997	0	0	0	17002	15600	153926	27528	953030	37675	106161	0	0	8169	760268	0	0
2024-04-22 08:40:32			0	33997	0	0	0	17018	15620	153954	27312	953037	37689	106167	0	0	8169	760186	0	0
2024-04-22 08:41:32			0	34008	0	0	0	17012	15610	153834	27724	953028	37677	106165	0	0	8170	759680	0	0
2024-04-22 08:42:32			0	34015	0	0	0	17028	15620	153838	27277	953097	37677	106171	0	0	8170	759291	0	0
2024-04-22 08:43:32			0	34020	0	0	0	17023	15620	153718	27543	953089	37677	106169	0	0	8171	759043	0	0
2024-04-22 08:44:32			0	34052	0	0	0	17020	15630	153690	27464	953061	37689	106168	0	0	8173	757413	0	0
2024-04-22 08:45:32			0	34028	0	0	0	17025	15640	153658	27190	953122	37690	106170	0	0	8171	758564	0	0
2024-04-22 08:46:32			0	34047	0	0	0	17023	15630	153562	27248	953132	37677	106169	0	0	8172	757661	0	0
2024-04-22 08:47:32			0	34076	0	0	0	17005	15630	153558	27239	953027	37656	106162	0	0	8174	756223	0	0
2024-04-22 08:48:32			0	34098	0	0	0	16999	15640	153510	27670	953043	37668	106160	0	0	8176	755094	0	0
2024-04-22 08:49:32			0	34103	0	0	0	16984	15630	153338	27490	953000	37666	106154	0	0	8176	754887	0	0
2024-04-22 08:50:32			0	34133	0	0	0	16968	15630	153158	27613	953027	37666	106148	0	0	8178	753404	0	0
2024-04-22 08:51:32			0	34143	0	0	0	16942	15630	153062	27587	952948	37656	106138	0	0	8179	752910	0	0
2024-04-22 08:52:32			0	34174	0	0	0	16945	15610	153054	27424	952870	37677	106139	0	0	8181	751461	0	0
2024-04-22 08:53:32			0	34188	0	0	0	16940	15610	152914	27485	952897	37666	106137	0	0	8182	750771	0	0
2024-04-22 08:54:32			0	34205	0	0	0	16935	15610	152826	27365	952889	37676	106135	0	0	8183	749934	0	0
2024-04-22 08:55:32			0	34232	0	0	0	16919	15600	152838	27310	952881	37655	106129	0	0	8184	748646	0	0
2024-04-22 08:56:32			0	34240	0	0	0	16893	15610	152738	27208	952757	37666	106119	0	0	8185	748213	0	0
2024-04-22 08:57:32			0	34240	0	0	0	16885	15570	152706	27159	952753	37652	106116	0	0	8185	748374	0	0
2024-04-22 08:58:32			0	34244	0	0	0	16901	15570	152586	27542	952779	37673	106122	0	0	8185	748177	0	0
2024-04-22 08:59:32			0	34265	0	0	0	16909	15580	152486	27422	952856	37664	106125	0	0	8186	747106	0	0
2024-04-22 09:00:32			0	34288	0	0	0	16914	15570	152458	27557	952779	37652	106127	0	0	8188	746018	0	0
2024-04-22 09:01:32			0	34285	0	0	0	16911	15570	152458	27379	952832	37673	106126	0	0	8188	746165	0	0
2024-04-22 09:02:32			0	34315	0	0	0	16919	15570	152402	27310	952832	37663	106129	0	0	8189	744695	0	0
2024-04-22 09:03:32			0	34318	0	0	0	16937	15570	152306	27124	952832	37663	106136	0	0	8189	744548	0	0
2024-04-22 09:04:32			0	34322	0	0	0	16945	15570	152290	27523	952892	37673	106139	0	0	8189	744353	0	0
2024-04-22 09:05:32			0	34350	0	0	0	16961	15580	152263	27298	952961	37674	106145	0	0	8190	742943	0	0
2024-04-22 09:06:32			0	34371	0	0	0	16981	15590	152219	27201	952943	37675	106153	0	0	8191	741878	0	0
2024-04-22 09:07:32			0	34347	0	0	0	16986	15600	152134	27260	953012	37676	106155	0	0	8190	743010	0	0
2024-04-22 09:08:32			0	34366	0	0	0	16981	15600	152123	27235	952986	37676	106153	0	0	8191	742082	0	0
2024-04-22 09:09:32			0	34370	0	0	0	16981	15600	152163	27267	952986	37655	106153	0	0	8191	741887	0	0
2024-04-22 09:10:32			0	34378	0	0	0	16986	15610	152187	27242	953002	37666	106155	0	0	8192	741456	0	0
2024-04-22 09:11:32			0	34361	0	0	0	17002	15600	152167	27538	952986	37676	106161	0	0	8191	742326	0	0
2024-04-22 09:12:32			0	34388	0	0	0	16997	15610	152071	27310	953028	37666	106159	0	0	8192	740968	0	0
2024-04-22 09:13:32			0	34400	0	0	0	16994	15610	152003	27249	953055	37688	106158	0	0	8193	740384	0	0
2024-04-22 09:14:32			0	34400	0	0	0	16997	15610	151943	27483	953002	37666	106159	0	0	8193	740384	0	0
2024-04-22 09:15:32			0	34390	0	0	0	17005	15630	151911	27390	953053	37689	106162	0	0	8192	740791	0	0
2024-04-22 09:16:32			0	34398	0	0	0	16999	15620	151923	27357	953071	37677	106160	0	0	8193	740441	0	0
2024-04-22 09:17:32			0	34418	0	0	0	17007	15620	151891	27621	953142	37689	106163	0	0	8194	739467	0	0
2024-04-22 09:18:32			0	34415	0	0	0	17015	15630	152031	27588	953079	37689	106166	0	0	8194	739573	0	0
2024-04-22 09:19:32			0	34407	0	0	0	17012	15630	151939	27717	953114	37678	106165	0	0	8193	739963	0	0
2024-04-22 09:20:32			0	34402	0	0	0	17007	15640	151839	27371	953096	37690	106163	0	0	8193	740167	0	0
2024-04-22 09:21:32			0	34411	0	0	0	17015	15640	151895	27452	953096	37668	106166	0	0	8193	739728	0	0
2024-04-22 09:22:32			0	34432	0	0	0	17031	15630	151867	27410	953088	37678	106172	0	0	8194	738746	0	0
2024-04-22 09:23:32			0	34414	0	0	0	17025	15640	151743	27626	953096	37668	106170	0	0	8193	739582	0	0
2024-04-22 09:24:32			0	34436	0	0	0	17031	15640	151731	27642	953148	37679	106172	0	0	8194	738511	0	0
2024-04-22 09:25:32			0	34438	0	0	0	17033	15640	151735	27364	953130	37690	106173	0	0	8195	738414	0	0
2024-04-22 09:26:32			0	34451	0	0	0	17036	15630	151639	27279	953193	37667	106174	0	0	8195	737822	0	0
2024-04-22 09:27:32			0	34488	0	0	0	17033	15640	151559	27268	953175	37690	106173	0	0	8197	735986	0	0
2024-04-22 09:28:32			0	34504	0	0	0	17028	15650	151399	27623	953165	37679	106171	0	0	8198	735170	0	0
2024-04-22 09:29:32			0	34536	0	0	0	17033	15650	151267	27407	953199	37691	106173	0	0	8200	733621	0	0
2024-04-22 09:30:32			0	34568	0	0	0	17038	15650	151111	27473	953173	37680	106175	0	0	8202	732074	0	0
2024-04-22 09:31:32			0	34601	0	0	0	17046	15650	150959	27630	953225	37691	106178	0	0	8204	730481	0	0
2024-04-22 09:32:32			0	34622	0	0	0	17054	15660	150843	27301	953294	37692	106181	0	0	8205	729429	0	0
2024-04-22 09:33:32			0	34662	0	0	0	17059	15670	150639	27498	953302	37692	106183	0	0	8207	727465	0	0
2024-04-22 09:34:32			0	34706	0	0	0	17075	15680	150463	27417	953274	37683	106189	0	0	8209	725313	0	0
2024-04-22 09:35:32			0	34762	0	0	0	17067	15680	150287	27786	953292	37694	106186	0	0	8213	722631	0	0
2024-04-22 09:36:32			0	34795	0	0	0	17067	15680	150127	27504	953345	37682	106186	0	0	8214	721054	0	0
2024-04-22 09:37:32			0	34835	0	0	0	17075	15680	149903	27545	953327	37683	106189	0	0	8217	719146	0	0
2024-04-22 09:38:32			0	34876	0	0	0	17072	15680	149663	27504	953319	37694	106188	0	0	8219	717194	0	0
2024-04-22 09:39:32			0	34896	0	0	0	17067	15690	149523	27154	953343	37683	106186	0	0	8220	716204	0	0
2024-04-22 09:40:32			0	34948	0	0	0	17067	15690	149439	27412	953369	37683	106186	0	0	8223	713737	0	0
2024-04-22 09:41:32			0	34954	0	0	0	17070	15700	149447	27722	953351	37695	106187	0	0	8223	713415	0	0
2024-04-22 09:42:32			0	34973	0	0	0	17064	15700	149291	27485	953359	37685	106185	0	0	8225	712515	0	0
2024-04-22 09:43:32			0	34972	0	0	0	17059	15690	149287	27675	953343	37683	106183	0	0	8225	712601	0	0
2024-04-22 09:44:32			0	34968	0	0	0	17072	15700	149287	27663	953377	37695	106188	0	0	8224	712752	0	0
2024-04-22 09:45:32			0	34963	0	0	0	17072	15710	149315	27507	953367	37685	106188	0	0	8224	712950	0	0
2024-04-22 09:46:32			0	34939	0	0	0	17075	15700	149419	27751	953385	37696	106189	0	0	8222	714125	0	0
2024-04-22 09:47:32			0	34944	0	0	0	17072	15710	149435	27741	953428	37685	106188	0	0	8223	713850	0	0
2024-04-22 09:48:32			0	34923	0	0	0	17075	15700	149511	27473	953412	37685	106189	0	0	8222	714884	0	0
2024-04-22 09:49:32			0	34920	0	0	0	17072	15710	149539	27384	953394	37696	106188	0	0	8222	714988	0	0
2024-04-22 09:50:32			0	34910	0	0	0	17070	15710	149639	27301	953473	37685	106187	0	0	8221	715462	0	0
2024-04-22 09:51:32			0	34891	0	0	0	17072	15710	149703	27284	953420	37674	106188	0	0	8220	716365	0	0
2024-04-22 09:52:32			0	34891	0	0	0	17064	15710	149807	27426	953481	37696	106185	0	0	8220	716365	0	0
2024-04-22 09:53:32			0	34855	0	0	0	17067	15710	149727	27203	953420	37707	106186	0	0	8218	718077	0	0
2024-04-22 09:54:32			0	34869	0	0	0	17062	15710	149739	27157	953428	37685	106184	0	0	8219	717411	0	0
2024-04-22 09:55:32			0	34849	0	0	0	17057	15710	149783	27206	953420	37685	106182	0	0	8218	718362	0	0
2024-04-22 09:56:32			0	34863	0	0	0	17072	15710	149791	27462	953367	37707	106188	0	0	8218	717696	0	0
2024-04-22 09:57:32			0	34861	0	0	0	17059	15710	149803	27467	953367	37685	106183	0	0	8218	717791	0	0
2024-04-22 09:58:32			0	34875	0	0	0	17057	15700	149811	27528	953385	37674	106182	0	0	8219	717164	0	0
2024-04-22 09:59:32			0	34867	0	0	0	17049	15700	149759	27362	953333	37685	106179	0	0	8219	717544	0	0
2024-04-22 10:00:32			0	34855	0	0	0	17044	15710	149715	27550	953402	37685	106177	0	0	8218	718077	0	0
2024-04-22 10:01:32			0	34876	0	0	0	17041	15700	149639	27338	953385	37685	106176	0	0	8220	717116	0	0
2024-04-22 10:02:32			0	34902	0	0	0	17046	15700	149651	27524	953385	37685	106178	0	0	8221	715881	0	0
2024-04-22 10:03:32			0	34899	0	0	0	17036	15700	149555	27249	953325	37684	106174	0	0	8221	716023	0	0
2024-04-22 10:04:32			0	34896	0	0	0	17046	15690	149623	27241	953317	37694	106178	0	0	8221	716204	0	0
2024-04-22 10:05:32			0	34911	0	0	0	17036	15690	149535	27329	953256	37683	106174	0	0	8222	715492	0	0
2024-04-22 10:06:32			0	34912	0	0	0	17028	15690	149419	27282	953308	37683	106171	0	0	8222	715445	0	0
2024-04-22 10:07:32			0	34914	0	0	0	17033	15690	149511	27209	953256	37683	106173	0	0	8222	715350	0	0
2024-04-22 10:08:32			0	34924	0	0	0	17031	15690	149491	27199	953308	37683	106172	0	0	8222	714875	0	0
2024-04-22 10:09:32			0	34924	0	0	0	17031	15690	149471	27419	953317	37672	106172	0	0	8222	714875	0	0
2024-04-22 10:10:32			0	34934	0	0	0	17025	15690	149483	27324	953256	37683	106170	0	0	8223	714401	0	0
2024-04-22 10:11:32			0	34923	0	0	0	17031	15690	149407	27197	953317	37683	106172	0	0	8222	714922	0	0
2024-04-22 10:12:32			0	34947	0	0	0	17028	15690	149351	27086	953256	37672	106171	0	0	8224	713785	0	0
2024-04-22 10:13:32			0	34962	0	0	0	17033	15680	149359	27355	953292	37682	106173	0	0	8224	713112	0	0
2024-04-22 10:14:32			0	34957	0	0	0	17033	15680	149299	27386	953327	37683	106173	0	0	8224	713349	0	0
2024-04-22 10:15:32			0	34954	0	0	0	17028	15690	149291	27294	953256	37662	106171	0	0	8224	713453	0	0
2024-04-22 10:16:32			0	34964	0	0	0	17033	15690	149379	27180	953335	37683	106173	0	0	8225	712979	0	0
2024-04-22 10:17:32			0	34968	0	0	0	17028	15680	149291	27305	953274	37672	106171	0	0	8225	712828	0	0
2024-04-22 10:18:32			0	34986	0	0	0	17033	15680	149275	27334	953274	37683	106173	0	0	8226	711977	0	0
2024-04-22 10:19:32			0	34987	0	0	0	17031	15670	149199	27696	953310	37682	106172	0	0	8226	711968	0	0
2024-04-22 10:20:32			0	34990	0	0	0	17036	15680	149183	27343	953319	37671	106174	0	0	8226	711787	0	0
2024-04-22 10:21:32			0	35005	0	0	0	17028	15680	149071	27518	953319	37694	106171	0	0	8227	711078	0	0
2024-04-22 10:22:32			0	35018	0	0	0	17041	15680	149131	27511	953300	37694	106176	0	0	8227	710464	0	0
2024-04-22 10:23:32			0	35020	0	0	0	17031	15680	149043	27192	953327	37683	106172	0	0	8228	710370	0	0
2024-04-22 10:24:32			0	35030	0	0	0	17031	15680	148987	27086	953327	37683	106172	0	0	8228	709898	0	0
2024-04-22 10:25:32			0	35038	0	0	0	17038	15680	148939	27066	953300	37683	106175	0	0	8229	709520	0	0
2024-04-22 10:26:32			0	35058	0	0	0	17041	15680	148923	27159	953240	37694	106176	0	0	8230	708577	0	0
2024-04-22 10:27:32			0	35052	0	0	0	17038	15670	148855	27338	953310	37682	106175	0	0	8229	708898	0	0
2024-04-22 10:28:32			0	35084	0	0	0	17028	15680	148847	27469	953266	37682	106171	0	0	8231	707353	0	0
2024-04-22 10:29:32			0	35078	0	0	0	17033	15680	148815	27256	953353	37683	106173	0	0	8231	707635	0	0
2024-04-22 10:30:32			0	35081	0	0	0	17031	15680	148811	27500	953266	37682	106172	0	0	8231	707494	0	0
2024-04-22 10:31:32			0	35101	0	0	0	17031	15690	148783	27242	953256	37683	106172	0	0	8232	706515	0	0
2024-04-22 10:32:32			0	35101	0	0	0	17041	15680	148699	27209	953266	37682	106176	0	0	8232	706553	0	0
2024-04-22 10:33:32			0	35112	0	0	0	17033	15680	148664	27138	953327	37683	106173	0	0	8233	706036	0	0
2024-04-22 10:34:32			0	35132	0	0	0	17028	15680	148516	27274	953292	37694	106171	0	0	8234	705096	0	0
2024-04-22 10:35:32			0	35149	0	0	0	17028	15670	148508	27327	953284	37682	106171	0	0	8235	704336	0	0
2024-04-22 10:36:32			0	35150	0	0	0	17031	15670	148444	27137	953284	37693	106172	0	0	8235	704289	0	0
2024-04-22 10:37:32			0	35163	0	0	0	17028	15680	148392	27017	953266	37694	106171	0	0	8236	703642	0	0
2024-04-22 10:38:32			0	35201	0	0	0	17028	15670	148352	26894	953223	37692	106171	0	0	8238	701900	0	0
2024-04-22 10:39:32			0	35188	0	0	0	17036	15670	148372	27130	953205	37682	106174	0	0	8237	702508	0	0
2024-04-22 10:40:32			0	35203	0	0	0	17038	15670	148240	27242	953310	37682	106175	0	0	8238	701806	0	0
2024-04-22 10:41:32			0	35210	0	0	0	17028	15680	148264	27386	953292	37682	106171	0	0	8238	701441	0	0
2024-04-22 10:42:32			0	35230	0	0	0	17036	15670	148200	27296	953258	37670	106174	0	0	8239	700544	0	0
2024-04-22 10:43:32			0	35225	0	0	0	17025	15670	148144	27457	953284	37714	106170	0	0	8239	700777	0	0
2024-04-22 10:44:32			0	35256	0	0	0	17041	15690	148120	27312	953335	37683	106176	0	0	8241	699254	0	0
2024-04-22 10:45:32			0	35256	0	0	0	17033	15670	148036	27293	953284	37693	106173	0	0	8241	699329	0	0
2024-04-22 10:46:32			0	35253	0	0	0	17033	15680	148132	27086	953266	37694	106173	0	0	8241	699432	0	0
2024-04-22 10:47:32			0	35247	0	0	0	17025	15670	147992	27443	953276	37681	106170	0	0	8240	699749	0	0
2024-04-22 10:48:32			0	35241	0	0	0	17023	15670	147996	27346	953258	37660	106169	0	0	8240	700030	0	0
2024-04-22 10:49:32			0	35240	0	0	0	17025	15670	147988	27339	953302	37681	106170	0	0	8240	700076	0	0
2024-04-22 10:50:32			0	35215	0	0	0	17007	15670	148052	27364	953223	37681	106163	0	0	8239	701245	0	0
2024-04-22 10:51:32			0	35217	0	0	0	17012	15670	148160	27286	953250	37681	106165	0	0	8239	701151	0	0
2024-04-22 10:52:32			0	35187	0	0	0	17002	15670	148192	27119	953276	37681	106161	0	0	8237	702555	0	0
2024-04-22 10:53:32			0	35207	0	0	0	16989	15660	148292	27433	953189	37681	106156	0	0	8239	701657	0	0
2024-04-22 10:54:32			0	35184	0	0	0	16986	15650	148312	27241	953225	37691	106155	0	0	8237	702771	0	0
2024-04-22 10:55:32			0	35163	0	0	0	16992	15650	148372	27272	953199	37702	106157	0	0	8236	703756	0	0
2024-04-22 10:56:32			0	35132	0	0	0	16984	15650	148468	27154	953173	37659	106154	0	0	8235	705210	0	0
2024-04-22 10:57:32			0	35098	0	0	0	16976	15660	148623	27201	953207	37692	106151	0	0	8233	706770	0	0
2024-04-22 10:58:32			0	35100	0	0	0	16979	15650	148651	27554	953225	37680	106152	0	0	8233	706714	0	0
2024-04-22 10:59:32			0	35073	0	0	0	16979	15650	148691	27390	953165	37668	106152	0	0	8231	707985	0	0
2024-04-22 11:00:32			0	35063	0	0	0	16979	15650	148791	27203	953138	37679	106152	0	0	8231	708456	0	0
2024-04-22 11:01:32			0	35068	0	0	0	16971	15640	148771	27424	953122	37679	106149	0	0	8231	708259	0	0
2024-04-22 11:02:32			0	35080	0	0	0	16968	15650	148891	27647	953146	37669	106148	0	0	8232	707655	0	0
2024-04-22 11:03:32			0	35091	0	0	0	16963	15640	148867	27682	953156	37668	106146	0	0	8233	707176	0	0
2024-04-22 11:04:32			0	35078	0	0	0	16974	15640	148699	27258	953096	37701	106150	0	0	8232	707788	0	0
2024-04-22 11:05:32			0	35102	0	0	0	16968	15630	148703	27694	953114	37678	106148	0	0	8233	706696	0	0
2024-04-22 11:06:32			0	35112	0	0	0	16976	15630	148651	27462	953114	37667	106151	0	0	8234	706226	0	0
2024-04-22 11:07:32			0	35086	0	0	0	16974	15630	148675	27530	953132	37677	106150	0	0	8232	707449	0	0
2024-04-22 11:08:32			0	35084	0	0	0	16968	15630	148711	27204	953132	37677	106148	0	0	8232	707543	0	0
2024-04-22 11:09:32			0	35051	0	0	0	16976	15630	148807	27345	953158	37689	106151	0	0	8230	709098	0	0
2024-04-22 11:10:32			0	35029	0	0	0	16961	15630	148975	27376	953027	37666	106145	0	0	8229	710136	0	0
2024-04-22 11:11:32			0	35017	0	0	0	16961	15640	149059	27685	953148	37679	106145	0	0	8229	710665	0	0
2024-04-22 11:12:32			0	34971	0	0	0	16961	15630	149207	27275	953079	37666	106145	0	0	8226	712878	0	0
2024-04-22 11:13:32			0	34949	0	0	0	16961	15630	149339	27452	953088	37667	106145	0	0	8225	713920	0	0
2024-04-22 11:14:32			0	34906	0	0	0	16953	15630	149479	27628	953114	37678	106142	0	0	8222	715961	0	0
2024-04-22 11:15:32			0	34893	0	0	0	16958	15620	149595	27795	953045	37677	106144	0	0	8222	716617	0	0
2024-04-22 11:16:32			0	34866	0	0	0	16958	15620	149795	27713	953063	37666	106144	0	0	8220	717901	0	0
2024-04-22 11:17:32			0	34829	0	0	0	16958	15620	149903	27585	953037	37689	106144	0	0	8218	719664	0	0
2024-04-22 11:18:32			0	34820	0	0	0	16958	15620	149919	27628	953045	37677	106144	0	0	8217	720093	0	0
2024-04-22 11:19:32			0	34775	0	0	0	16955	15620	150047	27585	953037	37677	106143	0	0	8215	722242	0	0
2024-04-22 11:20:32			0	34754	0	0	0	16953	15620	150107	27916	953045	37677	106142	0	0	8214	723247	0	0
2024-04-22 11:21:32			0	34731	0	0	0	16955	15610	150167	27466	953047	37676	106143	0	0	8212	724388	0	0
2024-04-22 11:22:32			0	34699	0	0	0	16961	15620	150283	27737	953063	37677	106145	0	0	8211	725883	0	0
2024-04-22 11:23:32			0	34705	0	0	0	16963	15620	150331	27594	953018	37677	106146	0	0	8211	725595	0	0
2024-04-22 11:24:32			0	34679	0	0	0	16974	15620	150331	27365	953089	37677	106150	0	0	8209	726844	0	0
2024-04-22 11:25:32			0	34688	0	0	0	16984	15610	150463	27625	953107	37688	106154	0	0	8209	726450	0	0
2024-04-22 11:26:32			0	34673	0	0	0	16976	15620	150531	27524	953089	37677	106151	0	0	8209	727132	0	0
2024-04-22 11:27:32			0	34649	0	0	0	16984	15620	150579	27524	953150	37689	106154	0	0	8207	728286	0	0
2024-04-22 11:28:32			0	34631	0	0	0	16994	15620	150607	27365	953116	37677	106158	0	0	8206	729153	0	0
2024-04-22 11:29:32			0	34648	0	0	0	16997	15630	150599	27514	953140	37678	106159	0	0	8207	728295	0	0
2024-04-22 11:30:32			0	34629	0	0	0	16999	15630	150543	27467	953132	37689	106160	0	0	8206	729210	0	0
2024-04-22 11:31:32			0	34638	0	0	0	17007	15620	150651	27524	953124	37689	106163	0	0	8206	728816	0	0
2024-04-22 11:32:32			0	34659	0	0	0	17010	15630	150575	27599	953193	37667	106164	0	0	8207	727766	0	0
2024-04-22 11:33:32			0	34658	0	0	0	17015	15640	150523	27538	953209	37679	106166	0	0	8207	727775	0	0
2024-04-22 11:34:32			0	34650	0	0	0	17012	15630	150543	27736	953132	37689	106165	0	0	8207	728199	0	0
2024-04-22 11:35:32			0	34636	0	0	0	17012	15650	150547	27729	953217	37668	106165	0	0	8206	728794	0	0
2024-04-22 11:36:32			0	34611	0	0	0	17023	15640	150667	27457	953209	37679	106169	0	0	8205	730038	0	0
2024-04-22 11:37:32			0	34583	0	0	0	17028	15650	150807	27213	953252	37691	106171	0	0	8203	731349	0	0
2024-04-22 11:38:32			0	34569	0	0	0	17025	15650	150907	27369	953225	37691	106170	0	0	8202	732025	0	0
2024-04-22 11:39:32			0	34556	0	0	0	17028	15660	150975	27289	953286	37703	106171	0	0	8201	732614	0	0
2024-04-22 11:40:32			0	34531	0	0	0	17033	15660	151087	27616	953321	37681	106173	0	0	8200	733823	0	0
2024-04-22 11:41:32			0	34496	0	0	0	17033	15660	151119	27594	953260	37681	106173	0	0	8198	735519	0	0
2024-04-22 11:42:32			0	34491	0	0	0	17023	15660	151239	27880	953286	37681	106169	0	0	8198	735761	0	0
2024-04-22 11:43:32			0	34478	0	0	0	17007	15660	151223	27575	953233	37681	106163	0	0	8197	736392	0	0
2024-04-22 11:44:32			0	34474	0	0	0	17005	15660	151303	27301	953233	37670	106162	0	0	8197	736586	0	0
2024-04-22 11:45:32			0	34469	0	0	0	16997	15650	151279	27677	953252	37691	106159	0	0	8197	736868	0	0
2024-04-22 11:46:32			0	34456	0	0	0	16999	15660	151383	27422	953260	37681	106160	0	0	8196	737460	0	0
2024-04-22 11:47:32			0	34455	0	0	0	16994	15660	151287	27403	953128	37670	106158	0	0	8196	737508	0	0
2024-04-22 11:48:32			0	34486	0	0	0	16992	15660	151287	27376	953207	37692	106157	0	0	8198	736003	0	0
2024-04-22 11:49:32			0	34482	0	0	0	16997	15650	151247	27651	953225	37680	106159	0	0	8198	736237	0	0
2024-04-22 11:50:32			0	34478	0	0	0	17002	15650	151303	27277	953165	37690	106161	0	0	8197	736431	0	0
2024-04-22 11:51:32			0	34501	0	0	0	16994	15650	151103	27320	953278	37680	106158	0	0	8199	735316	0	0
2024-04-22 11:52:32			0	34487	0	0	0	16999	15650	151207	27416	953217	37690	106160	0	0	8198	735995	0	0
2024-04-22 11:53:32			0	34505	0	0	0	17007	15650	151023	27241	953244	37690	106163	0	0	8199	735122	0	0
2024-04-22 11:54:32			0	34513	0	0	0	17007	15650	151091	27741	953165	37679	106163	0	0	8199	734734	0	0
2024-04-22 11:55:32			0	34513	0	0	0	16999	15660	151127	27320	953260	37692	106160	0	0	8200	734695	0	0
2024-04-22 11:56:32			0	34526	0	0	0	17007	15660	151107	27450	953207	37681	106163	0	0	8200	734065	0	0
2024-04-22 11:57:32			0	34548	0	0	0	16999	15640	151063	27464	953183	37679	106160	0	0	8201	733080	0	0
2024-04-22 11:58:32			0	34541	0	0	0	17002	15650	151151	27604	953165	37679	106161	0	0	8201	733379	0	0
2024-04-22 11:59:32			0	34523	0	0	0	16994	15660	150995	27609	953181	37692	106158	0	0	8200	734210	0	0
2024-04-22 12:00:32			0	34552	0	0	0	16994	15650	151023	27393	953244	37690	106158	0	0	8202	732847	0	0
2024-04-22 12:01:32			0	34545	0	0	0	16999	15650	150983	27464	953199	37691	106160	0	0	8201	733185	0	0
2024-04-22 12:02:32			0	34567	0	0	0	16994	15650	150927	27402	953173	37691	106158	0	0	8203	732122	0	0
2024-04-22 12:03:32			0	34544	0	0	0	16994	15650	150971	27338	953191	37668	106158	0	0	8201	733234	0	0
2024-04-22 12:04:32			0	34542	0	0	0	16997	15630	150951	27232	953219	37667	106159	0	0	8201	733409	0	0
2024-04-22 12:05:32			0	34558	0	0	0	17002	15650	150879	27338	953165	37690	106161	0	0	8202	732557	0	0
2024-04-22 12:06:32			0	34549	0	0	0	16999	15640	150863	27306	953235	37690	106160	0	0	8201	733031	0	0
2024-04-22 12:07:32			0	34584	0	0	0	17010	15650	150831	27457	953244	37679	106164	0	0	8203	731301	0	0
2024-04-22 12:08:32			0	34592	0	0	0	17002	15650	150707	27540	953217	37701	106161	0	0	8204	730915	0	0
2024-04-22 12:09:32			0	34589	0	0	0	17010	15650	150783	27364	953199	37691	106164	0	0	8204	731060	0	0
2024-04-22 12:10:32			0	34566	0	0	0	17010	15660	150787	27310	953207	37692	106164	0	0	8202	732131	0	0
2024-04-22 12:11:32			0	34585	0	0	0	17010	15650	150727	27154	953199	37691	106164	0	0	8203	731253	0	0
2024-04-22 12:12:32			0	34594	0	0	0	17007	15650	150759	27398	953244	37679	106163	0	0	8204	730818	0	0
2024-04-22 12:13:32			0	34581	0	0	0	16997	15650	150707	27301	953225	37680	106159	0	0	8203	731446	0	0
2024-04-22 12:14:32			0	34584	0	0	0	16994	15650	150767	27173	953199	37680	106158	0	0	8204	731301	0	0
2024-04-22 12:15:32			0	34594	0	0	0	16992	15640	150847	27270	953130	37679	106157	0	0	8204	730858	0	0
2024-04-22 12:16:32			0	34582	0	0	0	16974	15640	150851	27345	953175	37679	106150	0	0	8204	731437	0	0
2024-04-22 12:17:32			0	34570	0	0	0	16974	15640	150903	27060	953096	37690	106150	0	0	8203	732016	0	0
2024-04-22 12:18:32			0	34543	0	0	0	16979	15640	150911	27170	953156	37690	106152	0	0	8201	733322	0	0
2024-04-22 12:19:32			0	34548	0	0	0	16979	15630	150967	27249	953140	37667	106152	0	0	8202	733119	0	0
2024-04-22 12:20:32			0	34518	0	0	0	16971	15630	151015	27229	953167	37689	106149	0	0	8200	734571	0	0
2024-04-22 12:21:32			0	34505	0	0	0	16976	15630	151055	27027	953132	37689	106151	0	0	8199	735201	0	0
2024-04-22 12:22:32			0	34491	0	0	0	16974	15630	151227	27358	953106	37689	106150	0	0	8199	735880	0	0
2024-04-22 12:23:32			0	34462	0	0	0	16974	15620	151167	27282	953124	37666	106150	0	0	8197	737327	0	0
2024-04-22 12:24:32			0	34451	0	0	0	16979	15630	151307	27140	953088	37667	106152	0	0	8196	737822	0	0
2024-04-22 12:25:32			0	34426	0	0	0	16968	15620	151395	27410	953071	37677	106148	0	0	8195	739078	0	0
2024-04-22 12:26:32			0	34406	0	0	0	16966	15630	151447	27138	953027	37677	106147	0	0	8194	740012	0	0
2024-04-22 12:27:32			0	34392	0	0	0	16968	15630	151555	27100	953158	37677	106148	0	0	8193	740694	0	0
2024-04-22 12:28:32			0	34395	0	0	0	16974	15620	151643	27602	953176	37677	106150	0	0	8193	740587	0	0
2024-04-22 12:29:32			0	34364	0	0	0	16961	15630	151703	27251	953079	37666	106145	0	0	8192	742060	0	0
2024-04-22 12:30:32			0	34372	0	0	0	16966	15620	151771	27300	953045	37689	106147	0	0	8192	741709	0	0
2024-04-22 12:31:32			0	34361	0	0	0	16961	15620	151779	27654	953063	37689	106145	0	0	8191	742246	0	0
2024-04-22 12:32:32			0	34365	0	0	0	16958	15620	151863	27649	953045	37666	106144	0	0	8192	742051	0	0
2024-04-22 12:33:32			0	34349	0	0	0	16958	15610	151963	27504	953081	37688	106144	0	0	8191	742872	0	0
2024-04-22 12:34:32			0	34329	0	0	0	16945	15630	151914	27379	953079	37666	106139	0	0	8190	743770	0	0
2024-04-22 12:35:32			0	34325	0	0	0	16958	15630	152026	27682	953053	37689	106144	0	0	8189	743965	0	0
2024-04-22 12:36:32			0	34320	0	0	0	16955	15620	151958	27409	953089	37677	106143	0	0	8189	744250	0	0
2024-04-22 12:37:32			0	34329	0	0	0	16945	15610	151898	27668	953047	37676	106139	0	0	8190	743850	0	0
2024-04-22 12:38:32			0	34316	0	0	0	16955	15600	152074	27417	953065	37687	106143	0	0	8189	744526	0	0
2024-04-22 12:39:32			0	34315	0	0	0	16966	15610	152034	27602	953055	37699	106147	0	0	8189	744535	0	0
2024-04-22 12:40:32			0	34299	0	0	0	16966	15610	152058	27637	953081	37666	106147	0	0	8188	745318	0	0
2024-04-22 12:41:32			0	34293	0	0	0	16966	15620	152062	27530	953116	37689	106147	0	0	8187	745572	0	0
2024-04-22 12:42:32			0	34307	0	0	0	16961	15620	152074	27911	953037	37689	106145	0	0	8188	744886	0	0
2024-04-22 12:43:32			0	34295	0	0	0	16963	15610	152058	27909	953055	37688	106146	0	0	8187	745514	0	0
2024-04-22 12:44:32			0	34303	0	0	0	16963	15610	152038	27866	953055	37677	106146	0	0	8188	745122	0	0
2024-04-22 12:45:32			0	34287	0	0	0	16971	15610	152106	27729	953107	37677	106149	0	0	8187	745906	0	0
2024-04-22 12:46:32			0	34326	0	0	0	16974	15610	152018	27630	953073	37687	106150	0	0	8189	743997	0	0
2024-04-22 12:47:32			0	34320	0	0	0	16974	15600	152006	27345	953065	37676	106150	0	0	8189	744330	0	0
2024-04-22 12:48:32			0	34324	0	0	0	16966	15610	151898	27727	953126	37676	106147	0	0	8189	744094	0	0
2024-04-22 12:49:32			0	34301	0	0	0	16971	15600	151914	27313	953065	37676	106149	0	0	8188	745261	0	0
2024-04-22 12:50:32			0	34307	0	0	0	16971	15610	151950	27313	953099	37676	106149	0	0	8188	744927	0	0
2024-04-22 12:51:32			0	34313	0	0	0	16963	15610	151926	27476	953020	37687	106146	0	0	8188	744633	0	0
2024-04-22 12:52:32			0	34325	0	0	0	16974	15610	151934	27239	953099	37676	106150	0	0	8189	744046	0	0
2024-04-22 12:53:32			0	34336	0	0	0	16968	15610	151894	27170	953134	37677	106148	0	0	8190	743508	0	0
2024-04-22 12:54:32			0	34325	0	0	0	16971	15620	151874	27410	953089	37677	106149	0	0	8189	744005	0	0
2024-04-22 12:55:32			0	34332	0	0	0	16963	15620	151918	27450	953097	37677	106146	0	0	8190	743663	0	0
2024-04-22 12:56:32			0	34334	0	0	0	16963	15620	151870	27642	953089	37677	106146	0	0	8190	743565	0	0
2024-04-22 12:57:32			0	34340	0	0	0	16958	15620	151942	27241	953063	37666	106144	0	0	8190	743272	0	0
2024-04-22 12:58:32			0	34332	0	0	0	16955	15610	151866	27310	953055	37699	106143	0	0	8190	743703	0	0
2024-04-22 12:59:32			0	34332	0	0	0	16953	15610	151874	27293	953002	37677	106142	0	0	8190	743703	0	0
2024-04-22 13:00:32			0	34352	0	0	0	16940	15620	151779	27144	953097	37677	106137	0	0	8191	742686	0	0
2024-04-22 13:01:32			0	34360	0	0	0	16945	15610	151835	27286	953028	37677	106139	0	0	8191	742335	0	0
2024-04-22 13:02:32			0	34346	0	0	0	16942	15600	151882	27345	953012	37687	106138	0	0	8191	743059	0	0
2024-04-22 13:03:32			0	34350	0	0	0	16942	15600	151851	27362	953039	37676	106138	0	0	8191	742863	0	0
2024-04-22 13:04:32			0	34346	0	0	0	16948	15600	151830	27396	953012	37676	106140	0	0	8191	743059	0	0
2024-04-22 13:05:32			0	34366	0	0	0	16950	15610	151751	27523	952976	37677	106141	0	0	8192	742042	0	0
2024-04-22 13:06:32			0	34353	0	0	0	16940	15600	151719	27566	953057	37675	106137	0	0	8191	742717	0	0
2024-04-22 13:07:32			0	34380	0	0	0	16950	15610	151743	27684	953047	37687	106141	0	0	8193	741359	0	0
2024-04-22 13:08:32			0	34385	0	0	0	16942	15590	151739	27682	952943	37665	106138	0	0	8193	741195	0	0
2024-04-22 13:09:32			0	34382	0	0	0	16945	15600	151739	27383	953030	37665	106139	0	0	8193	741301	0	0
2024-04-22 13:10:32			0	34375	0	0	0	16940	15600	151699	27239	952978	37675	106137	0	0	8192	741643	0	0
2024-04-22 13:11:32			0	34399	0	0	0	16937	15600	151667	27467	952951	37675	106136	0	0	8194	740472	0	0
2024-04-22 13:12:32			0	34408	0	0	0	16940	15600	151679	27649	953057	37675	106137	0	0	8194	740034	0	0
2024-04-22 13:13:32			0	34414	0	0	0	16940	15590	151619	27377	952996	37686	106137	0	0	8195	739781	0	0
2024-04-22 13:14:32			0	34402	0	0	0	16937	15570	151631	27345	952945	37695	106136	0	0	8194	740446	0	0
2024-04-22 13:15:32			0	34409	0	0	0	16948	15590	151543	27757	953048	37675	106140	0	0	8194	740025	0	0
2024-04-22 13:16:32			0	34404	0	0	0	16932	15600	151539	27428	952960	37676	106134	0	0	8194	740229	0	0
2024-04-22 13:17:32			0	34420	0	0	0	16929	15580	151543	27495	952988	37685	106133	0	0	8195	739529	0	0
2024-04-22 13:18:32			0	34422	0	0	0	16932	15580	151575	27566	952935	37685	106134	0	0	8195	739431	0	0
2024-04-22 13:19:32			0	34433	0	0	0	16932	15570	151583	27424	952963	37695	106134	0	0	8196	738936	0	0
2024-04-22 13:20:32			0	34421	0	0	0	16927	15570	151483	27251	952911	37673	106132	0	0	8195	739520	0	0
2024-04-22 13:21:32			0	34409	0	0	0	16916	15580	151499	27279	952927	37673	106128	0	0	8195	740065	0	0
2024-04-22 13:22:32			0	34428	0	0	0	16922	15570	151539	27698	952911	37673	106130	0	0	8196	739179	0	0
2024-04-22 13:23:32			0	34444	0	0	0	16919	15580	151491	27545	952909	37674	106129	0	0	8197	738361	0	0
2024-04-22 13:24:32			0	34442	0	0	0	16911	15570	151495	27604	952911	37673	106126	0	0	8197	738498	0	0
2024-04-22 13:25:32			0	34427	0	0	0	16919	15570	151527	27258	952963	37673	106129	0	0	8196	739228	0	0
2024-04-22 13:26:32			0	34421	0	0	0	16924	15560	151511	27353	952947	37672	106131	0	0	8195	739560	0	0
2024-04-22 13:27:32			0	34452	0	0	0	16927	15560	151439	27317	952947	37683	106132	0	0	8197	738051	0	0
2024-04-22 13:28:32			0	34457	0	0	0	16922	15570	151343	27393	952963	37673	106130	0	0	8197	737769	0	0
2024-04-22 13:29:32			0	34460	0	0	0	16916	15580	151495	28062	952909	37696	106128	0	0	8198	737583	0	0
2024-04-22 13:30:32			0	34447	0	0	0	16916	15560	151367	27583	952876	37662	106128	0	0	8197	738295	0	0
2024-04-22 13:31:32			0	34450	0	0	0	16914	15560	151371	27547	952894	37672	106127	0	0	8197	738149	0	0
2024-04-22 13:32:32			0	34461	0	0	0	16924	15560	151303	27585	952955	37672	106131	0	0	8197	737614	0	0
2024-04-22 13:33:32			0	34463	0	0	0	16927	15580	151423	27305	952953	37673	106132	0	0	8198	737437	0	0
2024-04-22 13:34:32			0	34455	0	0	0	16929	15570	151499	27410	952911	37673	106133	0	0	8197	737866	0	0
2024-04-22 13:35:32			0	34467	0	0	0	16929	15560	151463	27737	952894	37672	106133	0	0	8198	737322	0	0
2024-04-22 13:36:32			0	34469	0	0	0	16922	15570	151431	27322	952884	37673	106130	0	0	8198	737185	0	0
2024-04-22 13:37:32			0	34466	0	0	0	16927	15560	151419	27173	952929	37672	106132	0	0	8198	737371	0	0
2024-04-22 13:38:32			0	34471	0	0	0	16924	15560	151363	27466	952929	37672	106131	0	0	8198	737128	0	0
2024-04-22 13:39:32			0	34478	0	0	0	16935	15570	151379	27876	952998	37673	106135	0	0	8198	736748	0	0
2024-04-22 13:40:32			0	34484	0	0	0	16942	15570	151327	27324	952963	37695	106138	0	0	8198	736457	0	0
2024-04-22 13:41:32			0	34487	0	0	0	16953	15560	151255	27246	952902	37684	106142	0	0	8198	736351	0	0
2024-04-22 13:42:32			0	34470	0	0	0	16940	15560	151339	27595	952981	37672	106137	0	0	8198	737177	0	0
2024-04-22 13:43:32			0	34498	0	0	0	16963	15590	151231	27237	953022	37697	106146	0	0	8199	735699	0	0
2024-04-22 13:44:32			0	34498	0	0	0	16961	15570	151247	27391	953077	37684	106145	0	0	8199	735778	0	0
2024-04-22 13:45:32			0	34499	0	0	0	16963	15580	151263	27350	953066	37685	106146	0	0	8199	735690	0	0
2024-04-22 13:46:32			0	34475	0	0	0	16974	15580	151227	27431	953014	37674	106150	0	0	8197	736855	0	0
2024-04-22 13:47:32			0	34493	0	0	0	16966	15590	151191	27478	953048	37675	106147	0	0	8199	735941	0	0
2024-04-22 13:48:32			0	34518	0	0	0	16976	15600	151163	27208	953030	37697	106151	0	0	8200	734690	0	0
2024-04-22 13:49:32			0	34511	0	0	0	16976	15590	151151	27199	953101	37686	106151	0	0	8199	735068	0	0
2024-04-22 13:50:32			0	34515	0	0	0	16981	15600	151163	27189	953039	37687	106153	0	0	8200	734835	0	0
2024-04-22 13:51:32			0	34521	0	0	0	16976	15610	151007	27339	953081	37688	106151	0	0	8200	734505	0	0
2024-04-22 13:52:32			0	34531	0	0	0	16979	15610	151199	27748	953134	37688	106152	0	0	8201	734021	0	0
2024-04-22 13:53:32			0	34542	0	0	0	16992	15610	151091	27498	953134	37677	106157	0	0	8201	733488	0	0
2024-04-22 13:54:32			0	34544	0	0	0	16984	15610	151091	27358	953134	37677	106154	0	0	8201	733392	0	0
2024-04-22 13:55:32			0	34550	0	0	0	16989	15610	151019	27923	953126	37676	106156	0	0	8202	733101	0	0
2024-04-22 13:56:32			0	34557	0	0	0	16989	15620	150899	27358	953168	37689	106156	0	0	8202	732723	0	0
2024-04-22 13:57:32			0	34557	0	0	0	16986	15630	150987	27414	953158	37689	106155	0	0	8202	732684	0	0
2024-04-22 13:58:32			0	34561	0	0	0	16986	15610	150835	27682	953107	37709	106155	0	0	8202	732569	0	0
2024-04-22 13:59:32			0	34578	0	0	0	16989	15610	150755	27637	953126	37676	106156	0	0	8203	731748	0	0
2024-04-22 14:00:32			0	34609	0	0	0	16992	15620	150607	27511	953124	37689	106157	0	0	8205	730213	0	0
2024-04-22 14:01:32			0	34631	0	0	0	16986	15620	150603	27161	953203	37689	106155	0	0	8206	729153	0	0
2024-04-22 14:02:32			0	34650	0	0	0	16992	15620	150551	27594	953142	37689	106157	0	0	8207	728238	0	0
2024-04-22 14:03:32			0	34661	0	0	0	16999	15620	150387	27628	953150	37677	106160	0	0	8208	727709	0	0
2024-04-22 14:04:32			0	34654	0	0	0	16997	15630	150395	27331	953185	37689	106159	0	0	8207	728006	0	0
2024-04-22 14:05:32			0	34695	0	0	0	17002	15620	150175	27777	953203	37689	106161	0	0	8210	726075	0	0
2024-04-22 14:06:32			0	34713	0	0	0	16986	15630	150163	27421	953237	37689	106155	0	0	8211	725172	0	0
2024-04-22 14:07:32			0	34754	0	0	0	16999	15620	150051	27415	953203	37689	106160	0	0	8213	723247	0	0
2024-04-22 14:08:32			0	34786	0	0	0	16999	15630	149903	27397	953158	37689	106160	0	0	8215	721678	0	0
2024-04-22 14:09:32			0	34827	0	0	0	17010	15630	149743	27582	953193	37689	106164	0	0	8217	719721	0	0
2024-04-22 14:10:32			0	34852	0	0	0	16999	15630	149535	27277	953272	37689	106160	0	0	8219	718529	0	0
2024-04-22 14:11:32			0	34894	0	0	0	17007	15620	149411	27732	953229	37689	106163	0	0	8221	716569	0	0
2024-04-22 14:12:32			0	34935	0	0	0	17010	15640	149291	27464	953227	37701	106164	0	0	8223	714546	0	0
2024-04-22 14:13:32			0	34966	0	0	0	17012	15640	149171	27795	953306	37679	106165	0	0	8225	713077	0	0
2024-04-22 14:14:32			0	34983	0	0	0	16999	15640	148987	27313	953201	37690	106160	0	0	8226	712272	0	0
2024-04-22 14:15:32			0	34987	0	0	0	17010	15640	148923	27291	953201	37690	106164	0	0	8226	712083	0	0
2024-04-22 14:16:32			0	35038	0	0	0	17005	15640	148799	27694	953175	37701	106162	0	0	8229	709673	0	0
2024-04-22 14:17:32			0	35028	0	0	0	17002	15630	148759	27679	953211	37700	106161	0	0	8228	710183	0	0
2024-04-22 14:18:32			0	35041	0	0	0	17005	15640	148607	27479	953227	37701	106162	0	0	8229	709532	0	0
2024-04-22 14:19:32			0	35068	0	0	0	17005	15640	148583	27505	953280	37690	106162	0	0	8231	708259	0	0
2024-04-22 14:20:32			0	35083	0	0	0	17007	15640	148523	27436	953254	37701	106163	0	0	8231	707552	0	0
2024-04-22 14:21:32			0	35091	0	0	0	17010	15640	148475	27571	953227	37690	106164	0	0	8232	707176	0	0
2024-04-22 14:22:32			0	35109	0	0	0	17005	15630	148436	27665	953219	37678	106162	0	0	8233	706367	0	0
2024-04-22 14:23:32			0	35116	0	0	0	17005	15640	148424	27528	953209	37701	106162	0	0	8233	706000	0	0
2024-04-22 14:24:32			0	35111	0	0	0	17007	15650	148419	27644	953296	37701	106163	0	0	8233	706197	0	0
2024-04-22 14:25:32			0	35117	0	0	0	17007	15650	148412	27431	953270	37679	106163	0	0	8233	705915	0	0
2024-04-22 14:26:32			0	35110	0	0	0	16999	15640	148487	27670	953209	37701	106160	0	0	8233	706282	0	0
2024-04-22 14:27:32			0	35126	0	0	0	17012	15640	148340	27414	953262	37701	106165	0	0	8234	705530	0	0
2024-04-22 14:28:32			0	35137	0	0	0	17005	15640	148320	27604	953209	37701	106162	0	0	8234	705013	0	0
2024-04-22 14:29:32			0	35133	0	0	0	17002	15640	148236	27554	953209	37679	106161	0	0	8234	705201	0	0
2024-04-22 14:30:32			0	35136	0	0	0	16999	15650	148204	27711	953225	37691	106160	0	0	8235	705022	0	0
2024-04-22 14:31:32			0	35177	0	0	0	16994	15650	148164	27682	953244	37690	106158	0	0	8237	703099	0	0
2024-04-22 14:32:32			0	35167	0	0	0	16994	15650	148048	27424	953225	37680	106158	0	0	8236	703568	0	0
2024-04-22 14:33:32			0	35176	0	0	0	16986	15640	148192	27234	953209	37701	106155	0	0	8237	703184	0	0
2024-04-22 14:34:32			0	35179	0	0	0	16979	15640	148104	27769	953175	37690	106152	0	0	8237	703043	0	0
2024-04-22 14:35:32			0	35198	0	0	0	16976	15630	148044	27587	953158	37666	106151	0	0	8238	702191	0	0
2024-04-22 14:36:32			0	35185	0	0	0	16986	15630	148012	27326	953193	37689	106155	0	0	8237	702800	0	0
2024-04-22 14:37:32			0	35208	0	0	0	16979	15630	147972	27422	953185	37677	106152	0	0	8239	701723	0	0
2024-04-22 14:38:32			0	35209	0	0	0	16981	15630	147928	27509	953237	37689	106153	0	0	8239	701677	0	0
2024-04-22 14:39:32			0	35204	0	0	0	16979	15630	147984	27405	953193	37678	106152	0	0	8239	701911	0	0
2024-04-22 14:40:32			0	35210	0	0	0	16974	15630	147936	27391	953140	37689	106150	0	0	8239	701630	0	0
2024-04-22 14:41:32			0	35206	0	0	0	16979	15630	148012	27625	953193	37678	106152	0	0	8239	701817	0	0
2024-04-22 14:42:32			0	35219	0	0	0	16981	15630	148056	27313	953132	37689	106153	0	0	8239	701209	0	0
2024-04-22 14:43:32			0	35209	0	0	0	16976	15630	148040	27528	953132	37689	106151	0	0	8239	701677	0	0
2024-04-22 14:44:32			0	35198	0	0	0	16963	15620	148036	27403	953097	37689	106146	0	0	8239	702229	0	0
2024-04-22 14:45:32			0	35215	0	0	0	16974	15630	148012	27270	953158	37689	106150	0	0	8239	701396	0	0
2024-04-22 14:46:32			0	35196	0	0	0	16955	15620	148048	27438	953097	37677	106143	0	0	8239	702323	0	0
2024-04-22 14:47:32			0	35193	0	0	0	16945	15620	148176	27557	953089	37689	106139	0	0	8239	702463	0	0
2024-04-22 14:48:32			0	35192	0	0	0	16945	15610	148064	27985	953002	37688	106139	0	0	8238	702548	0	0
2024-04-22 14:49:32			0	35179	0	0	0	16950	15610	148152	27412	953107	37677	106141	0	0	8238	703157	0	0
2024-04-22 14:50:32			0	35170	0	0	0	16948	15590	148196	27608	953075	37686	106140	0	0	8237	703655	0	0
2024-04-22 14:51:32			0	35173	0	0	0	16948	15600	148288	27386	953091	37676	106140	0	0	8237	703476	0	0
2024-04-22 14:52:32			0	35147	0	0	0	16937	15600	148244	27523	953065	37676	106136	0	0	8236	704696	0	0
2024-04-22 14:53:32			0	35168	0	0	0	16937	15610	148200	27308	953047	37676	106136	0	0	8237	703673	0	0
2024-04-22 14:54:32			0	35150	0	0	0	16940	15610	148232	27711	953020	37676	106137	0	0	8236	704517	0	0
2024-04-22 14:55:32			0	35141	0	0	0	16935	15610	148264	27467	953073	37676	106135	0	0	8236	704940	0	0
2024-04-22 14:56:32			0	35128	0	0	0	16942	15600	148308	27796	953004	37686	106138	0	0	8235	705588	0	0
2024-04-22 14:57:32			0	35124	0	0	0	16942	15580	148428	27751	953066	37685	106138	0	0	8235	705852	0	0
2024-04-22 14:58:32			0	35142	0	0	0	16950	15600	148440	27828	953039	37676	106141	0	0	8236	704931	0	0
2024-04-22 14:59:32			0	35111	0	0	0	16953	15600	148384	27332	953012	37676	106142	0	0	8234	706387	0	0
2024-04-22 15:00:32			0	35096	0	0	0	16948	15590	148459	27386	952996	37686	106140	0	0	8233	707131	0	0
2024-04-22 15:01:32			0	35110	0	0	0	16942	15600	148451	27189	953039	37687	106138	0	0	8234	706434	0	0
2024-04-22 15:02:32			0	35090	0	0	0	16948	15600	148571	27509	953012	37687	106140	0	0	8233	707375	0	0
2024-04-22 15:03:32			0	35080	0	0	0	16945	15600	148543	27692	953057	37675	106139	0	0	8232	707846	0	0
2024-04-22 15:04:32			0	35077	0	0	0	16940	15600	148603	27639	953030	37686	106137	0	0	8232	707987	0	0
2024-04-22 15:05:32			0	35072	0	0	0	16945	15590	148603	27307	952969	37675	106139	0	0	8232	708261	0	0
2024-04-22 15:06:32			0	35042	0	0	0	16937	15590	148651	27412	952969	37697	106136	0	0	8230	709675	0	0
2024-04-22 15:07:32			0	35047	0	0	0	16932	15600	148627	27291	953030	37686	106134	0	0	8231	709401	0	0
2024-04-22 15:08:32			0	35039	0	0	0	16940	15600	148651	27575	952978	37697	106137	0	0	8230	709779	0	0
2024-04-22 15:09:32			0	35045	0	0	0	16935	15580	148759	27530	953014	37674	106135	0	0	8230	709572	0	0
2024-04-22 15:10:32			0	35042	0	0	0	16924	15580	148767	27374	952979	37673	106131	0	0	8230	709714	0	0
2024-04-22 15:11:32			0	35034	0	0	0	16924	15580	148823	27365	952953	37673	106131	0	0	8230	710091	0	0
2024-04-22 15:12:32			0	35028	0	0	0	16916	15570	148815	27609	953016	37673	106128	0	0	8230	710413	0	0
2024-04-22 15:13:32			0	35024	0	0	0	16922	15580	148743	27563	952979	37684	106130	0	0	8229	710564	0	0
2024-04-22 15:14:32			0	35024	0	0	0	16916	15570	148927	27663	952998	37684	106128	0	0	8229	710602	0	0
2024-04-22 15:15:32			0	34999	0	0	0	16914	15580	148915	27549	953006	37695	106127	0	0	8228	711745	0	0
2024-04-22 15:16:32			0	35020	0	0	0	16919	15560	148859	27623	952929	37684	106129	0	0	8229	710829	0	0
2024-04-22 15:17:32			0	35002	0	0	0	16909	15570	148955	27549	952963	37684	106125	0	0	8228	711641	0	0
2024-04-22 15:18:32			0	34989	0	0	0	16906	15560	148931	27352	952929	37684	106124	0	0	8228	712295	0	0
2024-04-22 15:19:32			0	34986	0	0	0	16906	15570	149011	27512	952884	37673	106124	0	0	8227	712398	0	0
2024-04-22 15:20:32			0	34974	0	0	0	16909	15560	148975	27561	952955	37672	106125	0	0	8227	713005	0	0
2024-04-22 15:21:32			0	34979	0	0	0	16909	15560	149031	27183	952868	37683	106125	0	0	8227	712768	0	0
2024-04-22 15:22:32			0	34966	0	0	0	16903	15550	148995	27538	952913	37672	106123	0	0	8226	713422	0	0
2024-04-22 15:23:32			0	34941	0	0	0	16906	15550	149051	27694	952886	37683	106124	0	0	8225	714607	0	0
2024-04-22 15:24:32			0	34945	0	0	0	16901	15550	149083	27817	952860	37683	106122	0	0	8225	714418	0	0
2024-04-22 15:25:32			0	34943	0	0	0	16901	15540	149231	27618	952870	37682	106122	0	0	8225	714551	0	0
2024-04-22 15:26:32			0	34940	0	0	0	16898	15540	149231	27455	952862	37681	106121	0	0	8225	714693	0	0
2024-04-22 15:27:32			0	34925	0	0	0	16901	15540	149203	27590	952896	37682	106122	0	0	8224	715405	0	0
2024-04-22 15:28:32			0	34915	0	0	0	16893	15540	149155	27384	952844	37682	106119	0	0	8224	715880	0	0
2024-04-22 15:29:32			0	34923	0	0	0	16893	15540	149171	27614	952835	37681	106119	0	0	8224	715500	0	0
2024-04-22 15:30:32			0	34943	0	0	0	16890	15550	149227	27261	952825	37671	106118	0	0	8225	714512	0	0
2024-04-22 15:31:32			0	34917	0	0	0	16893	15540	149175	27308	952809	37660	106119	0	0	8224	715785	0	0
2024-04-22 15:32:32			0	34923	0	0	0	16888	15540	149331	27519	952791	37682	106117	0	0	8224	715500	0	0
2024-04-22 15:33:32			0	34928	0	0	0	16888	15530	149307	27540	952819	37669	106117	0	0	8224	715301	0	0
2024-04-22 15:34:32			0	34909	0	0	0	16888	15530	149255	27519	952801	37681	106117	0	0	8223	716204	0	0
2024-04-22 15:35:32			0	34916	0	0	0	16890	15530	149207	27642	952775	37670	106118	0	0	8224	715871	0	0
2024-04-22 15:36:32			0	34904	0	0	0	16893	15540	149271	27625	952835	37681	106119	0	0	8223	716403	0	0
2024-04-22 15:37:32			0	34901	0	0	0	16893	15540	149259	27711	952783	37670	106119	0	0	8223	716545	0	0
2024-04-22 15:38:32			0	34913	0	0	0	16888	15530	149311	27308	952827	37670	106117	0	0	8223	716014	0	0
2024-04-22 15:39:32			0	34900	0	0	0	16898	15540	149275	27618	952817	37693	106121	0	0	8223	716593	0	0
2024-04-22 15:40:32			0	34888	0	0	0	16898	15540	149239	27684	952844	37693	106121	0	0	8222	717163	0	0
2024-04-22 15:41:32			0	34913	0	0	0	16896	15530	149215	27795	952872	37669	106120	0	0	8223	716014	0	0
2024-04-22 15:42:32			0	34924	0	0	0	16893	15530	149299	28173	952801	37692	106119	0	0	8224	715491	0	0
2024-04-22 15:43:32			0	34923	0	0	0	16896	15540	149219	27640	952809	37681	106120	0	0	8224	715500	0	0
2024-04-22 15:44:32			0	34914	0	0	0	16896	15540	149195	27659	952835	37670	106120	0	0	8223	715927	0	0
2024-04-22 15:45:32			0	34925	0	0	0	16885	15540	149323	27419	952862	37660	106116	0	0	8224	715405	0	0
2024-04-22 15:46:32			0	34915	0	0	0	16890	15540	149235	27447	952757	37670	106118	0	0	8224	715880	0	0
2024-04-22 15:47:32			0	34936	0	0	0	16883	15530	149179	27443	952827	37660	106115	0	0	8225	714921	0	0
2024-04-22 15:48:32			0	34943	0	0	0	16880	15530	149263	27341	952827	37670	106114	0	0	8225	714589	0	0
2024-04-22 15:49:32			0	34931	0	0	0	16872	15530	149343	27258	952748	37681	106111	0	0	8225	715159	0	0
2024-04-22 15:50:32			0	34933	0	0	0	16864	15520	149243	27528	952785	37680	106108	0	0	8225	715102	0	0
2024-04-22 15:51:32			0	34937	0	0	0	16864	15520	149203	27526	952759	37669	106108	0	0	8225	714912	0	0
2024-04-22 15:52:32			0	34921	0	0	0	16854	15530	149143	27561	952767	37659	106104	0	0	8224	715633	0	0
2024-04-22 15:53:32			0	34953	0	0	0	16862	15510	149115	27291	952734	37690	106107	0	0	8226	714192	0	0
2024-04-22 15:54:32			0	34954	0	0	0	16864	15510	149127	27428	952734	37690	106108	0	0	8226	714145	0	0
2024-04-22 15:55:32			0	34971	0	0	0	16859	15510	149131	27543	952716	37679	106106	0	0	8227	713339	0	0
2024-04-22 15:56:32			0	34971	0	0	0	16854	15510	148967	27326	952742	37679	106104	0	0	8227	713339	0	0
2024-04-22 15:57:32			0	34979	0	0	0	16854	15500	149035	27277	952726	37667	106104	0	0	8228	712998	0	0
2024-04-22 15:58:32			0	34979	0	0	0	16851	15510	149035	27317	952708	37679	106103	0	0	8228	712960	0	0
2024-04-22 15:59:32			0	34979	0	0	0	16854	15510	148915	27279	952682	37679	106104	0	0	8228	712960	0	0
2024-04-22 16:00:32			0	34980	0	0	0	16851	15500	148963	27542	952700	37657	106103	0	0	8228	712951	0	0
2024-04-22 16:01:32			0	35008	0	0	0	16846	15510	148987	27333	952629	37667	106101	0	0	8229	711588	0	0
2024-04-22 16:02:32			0	35007	0	0	0	16851	15500	149007	27121	952700	37667	106103	0	0	8229	711673	0	0
2024-04-22 16:03:32			0	35014	0	0	0	16851	15500	149011	27357	952647	37667	106103	0	0	8230	711342	0	0
2024-04-22 16:04:32			0	35013	0	0	0	16851	15510	148947	27161	952708	37667	106103	0	0	8230	711351	0	0
2024-04-22 16:05:32			0	35023	0	0	0	16846	15500	148847	27192	952700	37657	106101	0	0	8230	710917	0	0
2024-04-22 16:06:32			0	35038	0	0	0	16851	15490	148875	27015	952657	37667	106103	0	0	8231	710246	0	0
2024-04-22 16:07:32			0	35046	0	0	0	16846	15500	148851	27029	952691	37667	106101	0	0	8231	709830	0	0
2024-04-22 16:08:32			0	35031	0	0	0	16854	15490	148927	27202	952736	37678	106104	0	0	8230	710577	0	0
2024-04-22 16:09:32			0	35047	0	0	0	16851	15490	148831	27206	952675	37677	106103	0	0	8231	709821	0	0
2024-04-22 16:10:32			0	35061	0	0	0	16851	15500	148739	27189	952665	37667	106103	0	0	8232	709123	0	0
2024-04-22 16:11:32			0	35062	0	0	0	16846	15490	148811	27658	952631	37689	106101	0	0	8232	709114	0	0
2024-04-22 16:12:32			0	35048	0	0	0	16836	15490	148859	27360	952622	37666	106097	0	0	8232	709774	0	0
2024-04-22 16:13:32			0	35070	0	0	0	16836	15490	148739	27332	952649	37677	106097	0	0	8233	708736	0	0
2024-04-22 16:14:32			0	35071	0	0	0	16820	15480	148727	27076	952633	37666	106091	0	0	8233	708727	0	0
2024-04-22 16:15:32			0	35062	0	0	0	16823	15480	148655	27053	952580	37676	106092	0	0	8233	709152	0	0
2024-04-22 16:16:32			0	35084	0	0	0	16812	15480	148635	27206	952562	37666	106088	0	0	8234	708115	0	0
2024-04-22 16:17:32			0	35081	0	0	0	16815	15480	148539	27566	952580	37676	106089	0	0	8234	708256	0	0
2024-04-22 16:18:32			0	35087	0	0	0	16812	15470	148535	27312	952572	37675	106088	0	0	8234	708011	0	0
2024-04-22 16:19:32			0	35087	0	0	0	16802	15470	148519	27372	952519	37665	106084	0	0	8234	708011	0	0
2024-04-22 16:20:32			0	35081	0	0	0	16807	15460	148583	27294	952529	37664	106086	0	0	8234	708332	0	0
2024-04-22 16:21:32			0	35096	0	0	0	16797	15460	148579	27081	952477	37664	106082	0	0	8235	707626	0	0
2024-04-22 16:22:32			0	35093	0	0	0	16792	15460	148487	27623	952503	37664	106080	0	0	8235	707767	0	0
2024-04-22 16:23:32			0	35099	0	0	0	16781	15460	148539	27071	952556	37653	106076	0	0	8235	707484	0	0
2024-04-22 16:24:32			0	35102	0	0	0	16781	15450	148591	27251	952434	37652	106076	0	0	8235	707381	0	0
2024-04-22 16:25:32			0	35093	0	0	0	16776	15450	148619	27218	952479	37663	106074	0	0	8235	707805	0	0
2024-04-22 16:26:32			0	35077	0	0	0	16779	15440	148635	27429	952418	37663	106075	0	0	8234	708597	0	0
2024-04-22 16:27:32			0	35088	0	0	0	16784	15450	148607	27332	952487	37674	106077	0	0	8235	708040	0	0
2024-04-22 16:28:32			0	35093	0	0	0	16779	15450	148579	27149	952426	37652	106075	0	0	8235	707805	0	0
2024-04-22 16:29:32			0	35091	0	0	0	16794	15440	148599	27414	952497	37652	106081	0	0	8235	707937	0	0
2024-04-22 16:30:32			0	35098	0	0	0	16797	15440	148587	27161	952515	37684	106082	0	0	8235	707608	0	0
2024-04-22 16:31:32			0	35106	0	0	0	16784	15440	148487	27171	952470	37652	106077	0	0	8236	707231	0	0
2024-04-22 16:32:32			0	35096	0	0	0	16787	15430	148539	27332	952428	37672	106078	0	0	8235	707740	0	0
2024-04-22 16:33:32			0	35109	0	0	0	16789	15440	148595	27088	952383	37673	106079	0	0	8236	707090	0	0
2024-04-22 16:34:32			0	35111	0	0	0	16789	15430	148520	27248	952454	37672	106079	0	0	8236	707033	0	0
2024-04-22 16:35:32			0	35100	0	0	0	16789	15440	148595	27478	952436	37673	106079	0	0	8235	707513	0	0
2024-04-22 16:36:32			0	35101	0	0	0	16789	15430	148583	27187	952420	37672	106079	0	0	8235	707504	0	0
2024-04-22 16:37:32			0	35101	0	0	0	16789	15440	148520	27312	952462	37652	106079	0	0	8235	707466	0	0
2024-04-22 16:38:32			0	35106	0	0	0	16792	15440	148576	27100	952470	37673	106080	0	0	8235	707231	0	0
2024-04-22 16:39:32			0	35104	0	0	0	16781	15430	148615	27313	952481	37662	106076	0	0	8236	707363	0	0
2024-04-22 16:40:32			0	35100	0	0	0	16787	15430	148527	27580	952393	37672	106078	0	0	8235	707551	0	0
2024-04-22 16:41:32			0	35093	0	0	0	16792	15430	148559	27145	952402	37683	106080	0	0	8235	707881	0	0
2024-04-22 16:42:32			0	35083	0	0	0	16789	15440	148715	27194	952436	37663	106079	0	0	8234	708314	0	0
2024-04-22 16:43:32			0	35079	0	0	0	16784	15430	148671	27147	952454	37672	106077	0	0	8234	708541	0	0
2024-04-22 16:44:32			0	35085	0	0	0	16781	15430	148707	27412	952375	37662	106076	0	0	8234	708258	0	0
2024-04-22 16:45:32			0	35062	0	0	0	16781	15430	148719	27187	952428	37672	106076	0	0	8233	709343	0	0
2024-04-22 16:46:32			0	35061	0	0	0	16784	15430	148663	27332	952454	37662	106077	0	0	8233	709390	0	0
2024-04-22 16:47:32			0	35054	0	0	0	16784	15430	148783	27286	952454	37672	106077	0	0	8233	709720	0	0
2024-04-22 16:48:32			0	35045	0	0	0	16784	15430	148715	27355	952481	37662	106077	0	0	8232	710145	0	0
2024-04-22 16:49:32			0	35034	0	0	0	16789	15430	148787	27369	952393	37672	106079	0	0	8231	710665	0	0
2024-04-22 16:50:32			0	35038	0	0	0	16792	15430	148795	27474	952420	37662	106080	0	0	8232	710476	0	0
2024-04-22 16:51:32			0	35039	0	0	0	16787	15430	148831	27516	952472	37662	106078	0	0	8232	710428	0	0
2024-04-22 16:52:32			0	35009	0	0	0	16784	15430	148823	27590	952446	37662	106077	0	0	8230	711847	0	0
2024-04-22 16:53:32			0	35016	0	0	0	16792	15440	148931	27267	952383	37673	106080	0	0	8230	711477	0	0
2024-04-22 16:54:32			0	35005	0	0	0	16787	15430	149067	27194	952481	37672	106078	0	0	8230	712036	0	0
2024-04-22 16:55:32			0	35004	0	0	0	16792	15430	148979	27521	952472	37651	106080	0	0	8230	712083	0	0
2024-04-22 16:56:32			0	34982	0	0	0	16789	15420	148979	27552	952438	37671	106079	0	0	8228	713163	0	0
2024-04-22 16:57:32			0	34987	0	0	0	16784	15420	149011	27317	952333	37661	106077	0	0	8229	712926	0	0
2024-04-22 16:58:32			0	34960	0	0	0	16789	15430	149119	27279	952454	37651	106079	0	0	8227	714167	0	0
2024-04-22 16:59:32			0	34952	0	0	0	16779	15430	149159	27481	952420	37662	106075	0	0	8227	714547	0	0
2024-04-22 17:00:32			0	34960	0	0	0	16766	15420	149211	27424	952404	37660	106070	0	0	8228	714206	0	0
2024-04-22 17:01:32			0	34926	0	0	0	16761	15430	149215	27225	952367	37662	106068	0	0	8226	715781	0	0
2024-04-22 17:02:32			0	34919	0	0	0	16758	15420	149327	27017	952385	37682	106067	0	0	8225	716152	0	0
2024-04-22 17:03:32			0	34897	0	0	0	16758	15420	149315	27291	952464	37661	106067	0	0	8224	717198	0	0
2024-04-22 17:04:32			0	34893	0	0	0	16755	15410	149419	27164	952369	37660	106066	0	0	8224	717427	0	0
2024-04-22 17:05:32			0	34856	0	0	0	16755	15420	149439	27282	952351	37681	106066	0	0	8222	719151	0	0
2024-04-22 17:06:32			0	34854	0	0	0	16753	15420	149531	27362	952359	37661	106065	0	0	8222	719246	0	0
2024-04-22 17:07:32			0	34856	0	0	0	16753	15410	149507	27549	952343	37649	106065	0	0	8222	719189	0	0
2024-04-22 17:08:32			0	34839	0	0	0	16753	15410	149655	27488	952335	37670	106065	0	0	8221	720000	0	0
2024-04-22 17:09:32			0	34833	0	0	0	16750	15410	149651	26989	952343	37660	106064	0	0	8221	720287	0	0
2024-04-22 17:10:32			0	34820	0	0	0	16750	15400	149819	27476	952300	37669	106064	0	0	8220	720946	0	0
2024-04-22 17:11:32			0	34804	0	0	0	16748	15400	149759	26932	952274	37659	106063	0	0	8219	721710	0	0
2024-04-22 17:12:32			0	34790	0	0	0	16748	15400	149839	27060	952300	37669	106063	0	0	8218	722380	0	0
2024-04-22 17:13:32			0	34767	0	0	0	16748	15400	149887	27192	952327	37680	106063	0	0	8217	723481	0	0
2024-04-22 17:14:32			0	34769	0	0	0	16732	15400	149923	27100	952292	37636	106057	0	0	8217	723385	0	0
2024-04-22 17:15:32			0	34758	0	0	0	16737	15400	149999	27436	952327	37659	106059	0	0	8217	723912	0	0
2024-04-22 17:16:32			0	34759	0	0	0	16740	15400	150083	27512	952266	37669	106060	0	0	8217	723864	0	0
2024-04-22 17:17:32			0	34724	0	0	0	16753	15390	150135	27561	952250	37658	106065	0	0	8214	725581	0	0
2024-04-22 17:18:32			0	34726	0	0	0	16742	15390	150095	27180	952284	37658	106061	0	0	8215	725485	0	0
2024-04-22 17:19:32			0	34715	0	0	0	16742	15400	150211	27452	952266	37658	106061	0	0	8214	725974	0	0
2024-04-22 17:20:32			0	34712	0	0	0	16748	15400	150203	27374	952318	37658	106063	0	0	8214	726118	0	0
2024-04-22 17:21:32			0	34711	0	0	0	16745	15400	150283	27502	952292	37658	106062	0	0	8214	726167	0	0
2024-04-22 17:22:32			0	34683	0	0	0	16748	15390	150247	27407	952337	37658	106063	0	0	8212	727551	0	0
2024-04-22 17:23:32			0	34674	0	0	0	16748	15390	150275	27244	952337	37669	106063	0	0	8212	727984	0	0
2024-04-22 17:24:32			0	34678	0	0	0	16750	15400	150363	27371	952345	37658	106064	0	0	8212	727753	0	0
2024-04-22 17:25:32			0	34683	0	0	0	16753	15400	150319	26987	952240	37658	106065	0	0	8212	727512	0	0
2024-04-22 17:26:32			0	34663	0	0	0	16758	15390	150443	27391	952302	37669	106067	0	0	8211	728514	0	0
2024-04-22 17:27:32			0	34657	0	0	0	16758	15400	150543	27317	952292	37658	106067	0	0	8211	728763	0	0
2024-04-22 17:28:32			0	34647	0	0	0	16745	15390	150543	27433	952276	37658	106062	0	0	8210	729284	0	0
2024-04-22 17:29:32			0	34632	0	0	0	16740	15390	150531	27455	952310	37647	106060	0	0	8209	730007	0	0
2024-04-22 17:30:32			0	34649	0	0	0	16742	15400	150591	27190	952327	37669	106061	0	0	8210	729149	0	0
2024-04-22 17:31:32			0	34622	0	0	0	16742	15390	150719	26955	952258	37669	106061	0	0	8209	730490	0	0
2024-04-22 17:32:32			0	34627	0	0	0	16740	15390	150727	26991	952302	37647	106060	0	0	8209	730248	0	0
2024-04-22 17:33:32			0	34597	0	0	0	16742	15390	150731	27409	952223	37658	106061	0	0	8207	731697	0	0
2024-04-22 17:34:32			0	34616	0	0	0	16748	15390	150747	27360	952231	37669	106063	0	0	8208	730779	0	0
2024-04-22 17:35:32			0	34592	0	0	0	16748	15400	150735	27083	952345	37658	106063	0	0	8207	731899	0	0
2024-04-22 17:36:32			0	34590	0	0	0	16758	15390	150815	27192	952284	37669	106067	0	0	8207	732035	0	0
2024-04-22 17:37:32			0	34576	0	0	0	16755	15380	150851	27331	952268	37668	106066	0	0	8206	732751	0	0
2024-04-22 17:38:32			0	34578	0	0	0	16745	15390	150887	27166	952310	37658	106062	0	0	8206	732615	0	0
2024-04-22 17:39:32			0	34554	0	0	0	16729	15390	150847	27012	952250	37647	106056	0	0	8205	733776	0	0
2024-04-22 17:40:32			0	34566	0	0	0	16727	15380	150895	27336	952268	37679	106055	0	0	8206	733235	0	0
2024-04-22 17:41:32			0	34566	0	0	0	16729	15380	150895	27222	952207	37657	106056	0	0	8206	733235	0	0
2024-04-22 17:42:32			0	34546	0	0	0	16716	15390	151011	27124	952223	37658	106051	0	0	8205	734163	0	0
2024-04-22 17:43:32			0	34526	0	0	0	16719	15380	151047	27317	952207	37678	106052	0	0	8204	735172	0	0
2024-04-22 17:44:32			0	34537	0	0	0	16722	15380	151131	27301	952215	37658	106053	0	0	8204	734639	0	0
2024-04-22 17:45:32			0	34511	0	0	0	16722	15380	151147	27274	952241	37679	106053	0	0	8203	735899	0	0
2024-04-22 17:46:32			0	34507	0	0	0	16724	15370	151311	27270	952225	37678	106054	0	0	8202	736133	0	0
2024-04-22 17:47:32			0	34501	0	0	0	16732	15380	151215	27479	952233	37657	106057	0	0	8202	736385	0	0
2024-04-22 17:48:32			0	34485	0	0	0	16724	15380	151267	27454	952259	37657	106054	0	0	8201	737162	0	0
2024-04-22 17:49:32			0	34482	0	0	0	16732	15370	151363	27144	952217	37666	106057	0	0	8201	737347	0	0
2024-04-22 17:50:32			0	34470	0	0	0	16716	15380	151367	27384	952207	37667	106051	0	0	8201	737891	0	0
2024-04-22 17:51:32			0	34462	0	0	0	16727	15380	151331	27504	952259	37646	106055	0	0	8200	738280	0	0
2024-04-22 17:52:32			0	34444	0	0	0	16724	15370	151483	27497	952225	37657	106054	0	0	8199	739195	0	0
2024-04-22 17:53:32			0	34430	0	0	0	16740	15380	151523	27409	952233	37657	106060	0	0	8198	739838	0	0
2024-04-22 17:54:32			0	34407	0	0	0	16732	15380	151571	27334	952233	37657	106057	0	0	8197	740959	0	0
2024-04-22 17:55:32			0	34397	0	0	0	16719	15370	151591	27241	952217	37645	106052	0	0	8196	741487	0	0
2024-04-22 17:56:32			0	34390	0	0	0	16706	15380	151651	27289	952189	37658	106047	0	0	8196	741788	0	0
2024-04-22 17:57:32			0	34382	0	0	0	16701	15360	151699	27232	952156	37656	106045	0	0	8196	742259	0	0
2024-04-22 17:58:32			0	34389	0	0	0	16709	15380	151699	27190	952154	37657	106048	0	0	8196	741837	0	0
2024-04-22 17:59:32			0	34379	0	0	0	16706	15360	151847	27251	952182	37656	106047	0	0	8195	742405	0	0
2024-04-22 18:00:32			0	34349	0	0	0	16690	15370	151803	27083	952138	37645	106041	0	0	8194	743832	0	0
2024-04-22 18:01:32			0	34345	0	0	0	16680	15350	151766	27569	952087	37643	106037	0	0	8194	744108	0	0
2024-04-22 18:02:32			0	34326	0	0	0	16680	15350	151898	27265	952114	37643	106037	0	0	8193	745038	0	0
2024-04-22 18:03:32			0	34306	0	0	0	16690	15350	152006	27196	952140	37654	106041	0	0	8191	746018	0	0
2024-04-22 18:04:32			0	34308	0	0	0	16698	15350	152158	27039	952114	37643	106044	0	0	8191	745920	0	0
2024-04-22 18:05:32			0	34278	0	0	0	16688	15350	152178	27124	952132	37654	106040	0	0	8190	747392	0	0
2024-04-22 18:06:32			0	34277	0	0	0	16693	15350	152222	27452	952114	37665	106042	0	0	8190	747441	0	0
2024-04-22 18:07:32			0	34258	0	0	0	16696	15340	152266	27173	952124	37665	106043	0	0	8189	748415	0	0
2024-04-22 18:08:32			0	34240	0	0	0	16706	15350	152314	27353	952132	37665	106047	0	0	8187	749260	0	0
2024-04-22 18:09:32			0	34231	0	0	0	16711	15350	152442	27152	952105	37654	106049	0	0	8187	749703	0	0
2024-04-22 18:10:32			0	34221	0	0	0	16696	15350	152454	27590	952114	37654	106043	0	0	8186	750195	0	0
2024-04-22 18:11:32			0	34216	0	0	0	16693	15350	152510	27241	952140	37654	106042	0	0	8186	750442	0	0
2024-04-22 18:12:32			0	34209	0	0	0	16698	15340	152546	27175	952097	37665	106044	0	0	8186	750827	0	0
2024-04-22 18:13:32			0	34217	0	0	0	16709	15340	152642	27251	952150	37676	106048	0	0	8186	750433	0	0
2024-04-22 18:14:32			0	34200	0	0	0	16698	15330	152526	27255	952055	37653	106044	0	0	8185	751311	0	0
2024-04-22 18:15:32			0	34194	0	0	0	16693	15340	152574	27312	952089	37675	106042	0	0	8185	751567	0	0
2024-04-22 18:16:32			0	34186	0	0	0	16690	15350	152622	27156	952087	37643	106041	0	0	8185	751921	0	0
2024-04-22 18:17:32			0	34161	0	0	0	16696	15350	152686	27576	952087	37643	106043	0	0	8183	753155	0	0
2024-04-22 18:18:32			0	34173	0	0	0	16701	15350	152730	27350	952079	37654	106045	0	0	8184	752562	0	0
2024-04-22 18:19:32			0	34159	0	0	0	16693	15340	152686	27131	952124	37654	106042	0	0	8183	753294	0	0
2024-04-22 18:20:32			0	34172	0	0	0	16719	15340	152666	27239	952124	37654	106052	0	0	8183	752652	0	0
2024-04-22 18:21:32			0	34148	0	0	0	16737	15350	152834	27197	952211	37654	106059	0	0	8182	753798	0	0
2024-04-22 18:22:32			0	34136	0	0	0	16745	15350	152802	27090	952245	37665	106062	0	0	8181	754391	0	0
2024-04-22 18:23:32			0	34126	0	0	0	16758	15360	152734	27286	952227	37655	106067	0	0	8180	754845	0	0
2024-04-22 18:24:32			0	34148	0	0	0	16740	15350	152758	27381	952263	37665	106060	0	0	8182	753798	0	0
2024-04-22 18:25:32			0	34142	0	0	0	16742	15360	152762	27100	952148	37666	106061	0	0	8181	754054	0	0
2024-04-22 18:26:32			0	34152	0	0	0	16722	15370	152802	26975	952251	37678	106053	0	0	8182	753519	0	0
2024-04-22 18:27:32			0	34161	0	0	0	16732	15360	152722	27228	952235	37666	106057	0	0	8182	753115	0	0
2024-04-22 18:28:32			0	34188	0	0	0	16755	15360	152582	27440	952235	37677	106066	0	0	8184	751782	0	0
2024-04-22 18:29:32			0	34225	0	0	0	16758	15360	152498	27142	952201	37666	106067	0	0	8186	749958	0	0
2024-04-22 18:30:32			0	34241	0	0	0	16766	15370	152326	27154	952251	37667	106070	0	0	8187	749130	0	0
2024-04-22 18:31:32			0	34264	0	0	0	16779	15370	152226	27124	952243	37656	106075	0	0	8188	748000	0	0
2024-04-22 18:32:32			0	34288	0	0	0	16771	15380	152102	27341	952365	37678	106072	0	0	8189	746781	0	0
2024-04-22 18:33:32			0	34284	0	0	0	16774	15390	152066	27239	952302	37680	106073	0	0	8189	746937	0	0
2024-04-22 18:34:32			0	34296	0	0	0	16779	15380	152030	27412	952365	37667	106075	0	0	8190	746388	0	0
2024-04-22 18:35:32			0	34319	0	0	0	16768	15380	152130	27403	952320	37668	106071	0	0	8191	745261	0	0
2024-04-22 18:36:32			0	34294	0	0	0	16768	15390	152098	27296	952329	37669	106071	0	0	8190	746446	0	0
2024-04-22 18:37:32			0	34303	0	0	0	16768	15390	152174	27090	952329	37669	106071	0	0	8190	746005	0	0
2024-04-22 18:38:32			0	34283	0	0	0	16763	15380	152074	26733	952294	37668	106069	0	0	8189	747026	0	0
2024-04-22 18:39:32			0	34277	0	0	0	16779	15380	152174	27260	952268	37668	106075	0	0	8188	747321	0	0
2024-04-22 18:40:32			0	34283	0	0	0	16792	15390	152182	27225	952276	37658	106080	0	0	8189	746986	0	0
2024-04-22 18:41:32			0	34272	0	0	0	16792	15390	152094	26989	952389	37669	106080	0	0	8188	747526	0	0
2024-04-22 18:42:32			0	34269	0	0	0	16792	15390	152170	27438	952381	37669	106080	0	0	8188	747673	0	0
2024-04-22 18:43:32			0	34271	0	0	0	16797	15400	152158	26970	952424	37669	106082	0	0	8188	747535	0	0
2024-04-22 18:44:32			0	34254	0	0	0	16789	15400	152186	27369	952397	37669	106079	0	0	8187	748370	0	0
2024-04-22 18:45:32			0	34240	0	0	0	16799	15400	152262	26968	952424	37669	106083	0	0	8186	749059	0	0
2024-04-22 18:46:32			0	34227	0	0	0	16797	15410	152278	27237	952387	37660	106082	0	0	8185	749658	0	0
2024-04-22 18:47:32			0	34244	0	0	0	16807	15400	152354	27253	952345	37669	106086	0	0	8186	748862	0	0
2024-04-22 18:48:32			0	34207	0	0	0	16810	15410	152442	27608	952440	37649	106087	0	0	8184	750643	0	0
2024-04-22 18:49:32			0	34199	0	0	0	16792	15410	152430	27483	952369	37670	106080	0	0	8184	751037	0	0
2024-04-22 18:50:32			0	34179	0	0	0	16776	15410	152514	27326	952395	37681	106074	0	0	8183	752023	0	0
2024-04-22 18:51:32			0	34191	0	0	0	16797	15400	152442	27284	952353	37680	106082	0	0	8183	751472	0	0
2024-04-22 18:52:32			0	34203	0	0	0	16812	15400	152594	27355	952379	37669	106088	0	0	8184	750881	0	0
2024-04-22 18:53:32			0	34187	0	0	0	16797	15410	152502	27410	952414	37670	106082	0	0	8183	751629	0	0
2024-04-22 18:54:32			0	34189	0	0	0	16779	15400	152466	27300	952406	37680	106075	0	0	8183	751571	0	0
2024-04-22 18:55:32			0	34187	0	0	0	16789	15410	152630	27074	952369	37670	106079	0	0	8183	751629	0	0
2024-04-22 18:56:32			0	34191	0	0	0	16794	15400	152494	27332	952432	37669	106081	0	0	8183	751472	0	0
2024-04-22 18:57:32			0	34190	0	0	0	16805	15410	152494	27168	952395	37681	106085	0	0	8183	751481	0	0
2024-04-22 18:58:32			0	34174	0	0	0	16779	15410	152550	27203	952448	37681	106075	0	0	8183	752270	0	0
2024-04-22 18:59:32			0	34158	0	0	0	16787	15410	152494	27124	952474	37681	106078	0	0	8182	753060	0	0
2024-04-22 19:00:32			0	34149	0	0	0	16805	15410	152598	27334	952395	37681	106085	0	0	8181	753505	0	0
2024-04-22 19:01:32			0	34161	0	0	0	16807	15420	152730	27229	952464	37671	106086	0	0	8181	752872	0	0
2024-04-22 19:02:32			0	34168	0	0	0	16807	15410	152714	27013	952422	37670	106086	0	0	8182	752566	0	0
2024-04-22 19:03:32			0	34164	0	0	0	16766	15410	152726	27294	952369	37681	106070	0	0	8182	752764	0	0
2024-04-22 19:04:32			0	34155	0	0	0	16774	15410	152714	27445	952387	37670	106073	0	0	8182	753209	0	0
2024-04-22 19:05:32			0	34153	0	0	0	16794	15410	152762	27293	952422	37670	106081	0	0	8181	753307	0	0
2024-04-22 19:06:32			0	34147	0	0	0	16664	15410	152770	27630	952256	37670	106031	0	0	8183	753604	0	0
2024-04-22 19:07:32			0	34134	0	0	0	16592	15390	152766	27284	952126	37658	106003	0	0	8183	754328	0	0
2024-04-22 19:08:32			0	34128	0	0	0	16509	15370	152666	27093	951988	37635	105971	0	0	8184	754706	0	0
2024-04-22 19:09:32			0	34118	0	0	0	16501	15340	152674	27289	951808	37643	105968	0	0	8184	755322	0	0
2024-04-22 19:10:32			0	34093	0	0	0	16485	15320	153038	27464	951741	37630	105962	0	0	8183	756642	0	0
2024-04-22 19:11:32			0	34062	0	0	0	16493	15300	153266	27346	951717	37640	105965	0	0	8180	758262	0	0
2024-04-22 19:12:32			0	34039	0	0	0	16480	15290	153378	27202	951595	37617	105960	0	0	8179	759446	0	0
2024-04-22 19:13:32			0	34020	0	0	0	16475	15260	153386	27268	951520	37625	105958	0	0	8178	760514	0	0
2024-04-22 19:14:32			0	34020	0	0	0	16470	15240	153446	27345	951522	37645	105956	0	0	8178	760596	0	0
2024-04-22 19:15:32			0	33995	0	0	0	16480	15230	153378	27140	951506	37634	105960	0	0	8176	761882	0	0
2024-04-22 19:16:32			0	34000	0	0	0	16488	15220	153570	27069	951481	37631	105963	0	0	8177	761674	0	0
2024-04-22 19:17:32			0	34014	0	0	0	16488	15210	153470	27095	951465	37631	105963	0	0	8177	761017	0	0
2024-04-22 19:18:32			0	34018	0	0	0	16475	15200	153486	27029	951404	37621	105958	0	0	8178	760859	0	0
2024-04-22 19:19:32			0	34022	0	0	0	16477	15200	153482	27229	951431	37621	105959	0	0	8178	760660	0	0
2024-04-22 19:20:32			0	34036	0	0	0	16462	15190	153462	27377	951433	37620	105953	0	0	8179	760004	0	0
2024-04-22 19:21:32			0	34037	0	0	0	16438	15180	153410	27256	951319	37619	105944	0	0	8179	759995	0	0
2024-04-22 19:22:32			0	34032	0	0	0	16433	15170	153410	26856	951321	37618	105942	0	0	8179	760284	0	0
2024-04-22 19:23:32			0	34045	0	0	0	16428	15170	153366	26804	951303	37628	105940	0	0	8180	759637	0	0
2024-04-22 19:24:32			0	34058	0	0	0	16425	15160	153430	27374	951313	37617	105939	0	0	8181	759032	0	0
2024-04-22 19:25:32			0	34068	0	0	0	16431	15140	153406	27102	951228	37616	105941	0	0	8181	758616	0	0
2024-04-22 19:26:32			0	34049	0	0	0	16436	15150	153374	27111	951263	37616	105943	0	0	8180	759520	0	0
2024-04-22 19:27:32			0	34057	0	0	0	16449	15130	153466	27138	951238	37614	105948	0	0	8180	759204	0	0
2024-04-22 19:28:32			0	34056	0	0	0	16444	15130	153370	27367	951238	37625	105946	0	0	8180	759253	0	0
2024-04-22 19:29:32			0	34052	0	0	0	16449	15130	153442	27171	951283	37614	105948	0	0	8180	759452	0	0
2024-04-22 19:30:32			0	34047	0	0	0	16438	15120	153434	27357	951222	37614	105944	0	0	8180	759742	0	0
2024-04-22 19:31:32			0	34042	0	0	0	16441	15110	153490	27478	951179	37633	105945	0	0	8179	760031	0	0
2024-04-22 19:32:32			0	34062	0	0	0	16441	15110	153426	27346	951206	37633	105945	0	0	8180	759036	0	0
2024-04-22 19:33:32			0	34044	0	0	0	16433	15100	153554	27241	951181	37611	105942	0	0	8180	759973	0	0
2024-04-22 19:34:32			0	34076	0	0	0	16431	15110	153478	27350	951145	37612	105941	0	0	8181	758341	0	0
2024-04-22 19:35:32			0	34049	0	0	0	16425	15100	153514	27150	951163	37633	105939	0	0	8180	759724	0	0
2024-04-22 19:36:32			0	34068	0	0	0	16418	15100	153390	27326	951155	37623	105936	0	0	8181	758779	0	0
2024-04-22 19:37:32			0	34067	0	0	0	16415	15090	153370	27178	951121	37622	105935	0	0	8181	758869	0	0
2024-04-22 19:38:32			0	34057	0	0	0	16423	15080	153358	27388	951104	37610	105938	0	0	8180	759407	0	0
2024-04-22 19:39:32			0	34061	0	0	0	16418	15080	153358	27367	951104	37631	105936	0	0	8181	759208	0	0
2024-04-22 19:40:32			0	34079	0	0	0	16412	15070	153418	27509	951036	37620	105934	0	0	8182	758355	0	0
2024-04-22 19:41:32			0	34060	0	0	0	16420	15080	153498	27524	951078	37621	105937	0	0	8181	759258	0	0
2024-04-22 19:42:32			0	34070	0	0	0	16407	15070	153506	27287	951027	37608	105932	0	0	8181	758802	0	0
2024-04-22 19:43:32			0	34067	0	0	0	16407	15070	153458	27213	951027	37629	105932	0	0	8181	758951	0	0
2024-04-22 19:44:32			0	34054	0	0	0	16412	15070	153490	27319	951054	37619	105934	0	0	8180	759597	0	0
2024-04-22 19:45:32			0	34072	0	0	0	16405	15070	153462	27329	951027	37608	105931	0	0	8181	758702	0	0
2024-04-22 19:46:32			0	34063	0	0	0	16405	15070	153454	27293	951001	37608	105931	0	0	8181	759150	0	0
2024-04-22 19:47:32			0	34085	0	0	0	16405	15070	153330	27218	951036	37609	105931	0	0	8182	758056	0	0
2024-04-22 19:48:32			0	34063	0	0	0	16418	15060	153466	27202	950993	37608	105936	0	0	8181	759191	0	0
2024-04-22 19:49:32			0	34093	0	0	0	16420	15060	153502	27310	951019	37619	105937	0	0	8182	757700	0	0
2024-04-22 19:50:32			0	34067	0	0	0	16415	15060	153470	27270	951011	37597	105935	0	0	8181	758992	0	0
2024-04-22 19:51:32			0	34068	0	0	0	16423	15060	153486	27085	951046	37629	105938	0	0	8181	758942	0	0
2024-04-22 19:52:32			0	34086	0	0	0	16423	15060	153470	27086	951098	37629	105938	0	0	8182	758047	0	0
2024-04-22 19:53:32			0	34063	0	0	0	16415	15060	153530	27414	951038	37619	105935	0	0	8181	759191	0	0
2024-04-22 19:54:32			0	34085	0	0	0	16410	15070	153474	27078	951054	37629	105933	0	0	8182	758056	0	0
2024-04-22 19:55:32			0	34072	0	0	0	16405	15060	153498	27249	950985	37608	105931	0	0	8181	758743	0	0
2024-04-22 19:56:32			0	34068	0	0	0	16418	15060	153554	27429	951019	37619	105936	0	0	8181	758942	0	0
2024-04-22 19:57:32			0	34061	0	0	0	16418	15060	153546	27121	951019	37608	105936	0	0	8181	759290	0	0
2024-04-22 19:58:32			0	34041	0	0	0	16420	15060	153558	27005	951038	37619	105937	0	0	8179	760285	0	0
2024-04-22 19:59:32			0	34047	0	0	0	16420	15050	153450	27046	951030	37618	105937	0	0	8180	760027	0	0
2024-04-22 20:00:32			0	34041	0	0	0	16441	15050	153506	27364	951021	37628	105945	0	0	8179	760326	0	0
2024-04-22 20:01:32			0	34046	0	0	0	16454	15070	153578	27149	951106	37608	105950	0	0	8179	759995	0	0
2024-04-22 20:02:32			0	34049	0	0	0	16444	15060	153518	27409	951046	37619	105946	0	0	8179	759887	0	0
2024-04-22 20:03:32			0	34047	0	0	0	16451	15060	153494	27260	951098	37608	105949	0	0	8179	759986	0	0
2024-04-22 20:04:32			0	34082	0	0	0	16446	15070	153410	27194	951115	37609	105947	0	0	8181	758205	0	0
2024-04-22 20:05:32			0	34095	0	0	0	16446	15060	153362	27258	951125	37619	105947	0	0	8182	757600	0	0
2024-04-22 20:06:32			0	34092	0	0	0	16446	15060	153454	27213	951072	37619	105947	0	0	8182	757749	0	0
2024-04-22 20:07:32			0	34119	0	0	0	16441	15070	153322	27201	951080	37608	105945	0	0	8184	756369	0	0
2024-04-22 20:08:32			0	34128	0	0	0	16451	15070	153290	27421	951088	37609	105949	0	0	8184	755923	0	0
2024-04-22 20:09:32			0	34137	0	0	0	16446	15070	153238	27554	951167	37620	105947	0	0	8185	755477	0	0
2024-04-22 20:10:32			0	34145	0	0	0	16457	15070	153198	27282	951115	37620	105951	0	0	8185	755081	0	0
2024-04-22 20:11:32			0	34119	0	0	0	16459	15080	153190	27258	951131	37631	105952	0	0	8183	756328	0	0
2024-04-22 20:12:32			0	34137	0	0	0	16462	15080	153254	27407	951202	37621	105953	0	0	8184	755436	0	0
2024-04-22 20:13:32			0	34155	0	0	0	16464	15080	153186	27154	951175	37621	105954	0	0	8185	754545	0	0
2024-04-22 20:14:32			0	34135	0	0	0	16464	15080	153274	27308	951157	37621	105954	0	0	8184	755535	0	0
2024-04-22 20:15:32			0	34140	0	0	0	16477	15080	153194	27270	951149	37621	105959	0	0	8184	755288	0	0
2024-04-22 20:16:32			0	34142	0	0	0	16483	15090	153282	27187	951173	37632	105961	0	0	8184	755148	0	0
2024-04-22 20:17:32			0	34127	0	0	0	16475	15080	153290	27072	951183	37610	105958	0	0	8184	755932	0	0
2024-04-22 20:18:32			0	34135	0	0	0	16509	15080	153274	27336	951210	37642	105971	0	0	8183	755535	0	0
2024-04-22 20:19:32			0	34133	0	0	0	16516	15090	153154	27398	951252	37622	105974	0	0	8183	755594	0	0
2024-04-22 20:20:32			0	34144	0	0	0	16529	15100	153202	27403	951234	37633	105979	0	0	8184	755008	0	0
2024-04-22 20:21:32			0	34134	0	0	0	16545	15110	153226	27263	951337	37623	105985	0	0	8183	755463	0	0
2024-04-22 20:22:32			0	34146	0	0	0	16550	15110	153210	26977	951363	37645	105987	0	0	8183	754869	0	0
2024-04-22 20:23:32			0	34135	0	0	0	16568	15120	153206	27190	951432	37646	105994	0	0	8183	755373	0	0
2024-04-22 20:24:32			0	34152	0	0	0	16579	15130	153238	27085	951449	37635	105998	0	0	8183	754491	0	0
2024-04-22 20:25:32			0	34134	0	0	0	16594	15130	153286	27426	951475	37635	106004	0	0	8182	755382	0	0
2024-04-22 20:26:32			0	34131	0	0	0	16610	15160	153226	27398	951542	37638	106010	0	0	8182	755409	0	0
2024-04-22 20:27:32			0	34110	0	0	0	16623	15160	153346	27358	951629	37650	106015	0	0	8180	756450	0	0
2024-04-22 20:28:32			0	34106	0	0	0	16620	15170	153374	27353	951645	37650	106014	0	0	8180	756608	0	0
2024-04-22 20:29:32			0	34091	0	0	0	16612	15180	153394	27263	951601	37639	106011	0	0	8180	757311	0	0
2024-04-22 20:30:32			0	34090	0	0	0	16631	15180	153478	27201	951609	37640	106018	0	0	8179	757361	0	0
2024-04-22 20:31:32			0	34072	0	0	0	16628	15200	153490	27190	951712	37630	106017	0	0	8178	758173	0	0
2024-04-22 20:32:32			0	34056	0	0	0	16638	15200	153390	27237	951686	37652	106021	0	0	8177	758968	0	0
2024-04-22 20:33:32			0	34055	0	0	0	16644	15210	153474	27466	951755	37654	106023	0	0	8177	758977	0	0
2024-04-22 20:34:32			0	34054	0	0	0	16654	15210	153410	27213	951763	37665	106027	0	0	8177	759027	0	0
2024-04-22 20:35:32			0	34072	0	0	0	16657	15220	153522	27260	951771	37654	106028	0	0	8178	758091	0	0
2024-04-22 20:36:32			0	34073	0	0	0	16644	15230	153382	27471	951787	37644	106023	0	0	8178	758001	0	0
2024-04-22 20:37:32			0	34075	0	0	0	16649	15220	153366	27694	951726	37643	106025	0	0	8178	757942	0	0
2024-04-22 20:38:32			0	34076	0	0	0	16646	15230	153346	27332	951769	37645	106024	0	0	8178	757852	0	0
2024-04-22 20:39:32			0	34074	0	0	0	16641	15230	153334	27218	951787	37655	106022	0	0	8178	757951	0	0
2024-04-22 20:40:32			0	34080	0	0	0	16646	15240	153306	27460	951882	37656	106024	0	0	8179	757613	0	0
2024-04-22 20:41:32			0	34080	0	0	0	16685	15250	153286	27511	951925	37667	106039	0	0	8178	757572	0	0
2024-04-22 20:42:32			0	34104	0	0	0	16685	15250	153230	27045	951925	37646	106039	0	0	8179	756382	0	0
2024-04-22 20:43:32			0	34107	0	0	0	16698	15260	153182	27459	951994	37658	106044	0	0	8179	756192	0	0
2024-04-22 20:44:32			0	34097	0	0	0	16711	15260	153194	27464	951923	37679	106049	0	0	8179	756688	0	0
2024-04-22 20:45:32			0	34100	0	0	0	16709	15280	153162	27410	952000	37648	106048	0	0	8179	756458	0	0
2024-04-22 20:46:32			0	34114	0	0	0	16693	15280	153178	27185	952061	37660	106042	0	0	8180	755764	0	0
2024-04-22 20:47:32			0	34100	0	0	0	16685	15290	153122	27222	952069	37660	106039	0	0	8179	756417	0	0
2024-04-22 20:48:32			0	34098	0	0	0	16685	15300	153146	27543	952077	37671	106039	0	0	8179	756476	0	0
2024-04-22 20:49:32			0	34084	0	0	0	16698	15290	153226	27601	952043	37660	106044	0	0	8178	757211	0	0
2024-04-22 20:50:32			0	34110	0	0	0	16698	15310	153230	27402	952093	37662	106044	0	0	8180	755840	0	0
2024-04-22 20:51:32			0	34093	0	0	0	16703	15300	153254	27557	952085	37662	106046	0	0	8179	756724	0	0
2024-04-22 20:52:32			0	34083	0	0	0	16696	15310	153294	27739	952041	37662	106043	0	0	8178	757179	0	0
2024-04-22 20:53:32			0	34080	0	0	0	16698	15300	153174	27479	952085	37662	106044	0	0	8178	757369	0	0
2024-04-22 20:54:32			0	34054	0	0	0	16701	15310	153274	27351	952101	37672	106045	0	0	8177	758619	0	0
2024-04-22 20:55:32			0	34060	0	0	0	16693	15310	153266	27452	952075	37651	106042	0	0	8177	758321	0	0
2024-04-22 20:56:32			0	34035	0	0	0	16701	15320	153378	27246	952083	37673	106045	0	0	8175	759522	0	0
2024-04-22 20:57:32			0	34049	0	0	0	16701	15310	153414	27109	952101	37672	106045	0	0	8176	758867	0	0
2024-04-22 20:58:32			0	34034	0	0	0	16703	15330	153490	27350	952047	37664	106046	0	0	8175	759531	0	0
2024-04-22 20:59:32			0	34032	0	0	0	16690	15320	153450	27298	952109	37673	106041	0	0	8175	759672	0	0
2024-04-22 21:00:32			0	34031	0	0	0	16703	15320	153458	27332	952083	37663	106046	0	0	8175	759722	0	0
2024-04-22 21:01:32			0	34029	0	0	0	16690	15310	153538	27022	952128	37672	106041	0	0	8175	759862	0	0
2024-04-22 21:02:32			0	34029	0	0	0	16696	15320	153562	26948	952083	37663	106043	0	0	8175	759821	0	0
2024-04-22 21:03:32			0	34016	0	0	0	16701	15320	153546	27258	952162	37652	106045	0	0	8174	760468	0	0
2024-04-22 21:04:32			0	34008	0	0	0	16714	15330	153542	27107	952152	37674	106050	0	0	8174	760825	0	0
2024-04-22 21:05:32			0	34022	0	0	0	16701	15320	153578	26993	952091	37664	106045	0	0	8175	760169	0	0
2024-04-22 21:06:32			0	34004	0	0	0	16701	15320	153502	27371	952083	37663	106045	0	0	8174	761065	0	0
2024-04-22 21:07:32			0	33999	0	0	0	16701	15330	153526	27480	952126	37664	106045	0	0	8173	761274	0	0
2024-04-22 21:08:32			0	34002	0	0	0	16711	15330	153546	27317	952126	37674	106049	0	0	8173	761124	0	0
2024-04-22 21:09:32			0	34001	0	0	0	16706	15330	153674	27067	952205	37664	106047	0	0	8173	761174	0	0
2024-04-22 21:10:32			0	33993	0	0	0	16703	15330	153574	27355	952178	37674	106046	0	0	8173	761573	0	0
2024-04-22 21:11:32			0	33995	0	0	0	16701	15330	153570	27353	952134	37653	106045	0	0	8173	761473	0	0
2024-04-22 21:12:32			0	33993	0	0	0	16651	15330	153550	27312	952107	37653	106026	0	0	8174	761573	0	0
2024-04-22 21:13:32			0	33988	0	0	0	16646	15320	153574	27286	952004	37663	106024	0	0	8174	761863	0	0
2024-04-22 21:14:32			0	33986	0	0	0	16654	15310	153622	27350	951970	37662	106027	0	0	8173	762003	0	0
2024-04-22 21:15:32			0	33973	0	0	0	16623	15310	153722	27498	951909	37640	106015	0	0	8173	762652	0	0
2024-04-22 21:16:32			0	33982	0	0	0	16592	15310	153730	27481	951830	37651	106003	0	0	8174	762203	0	0
2024-04-22 21:17:32			0	33950	0	0	0	16638	15290	153810	27211	951858	37627	106021	0	0	8171	763882	0	0
2024-04-22 21:18:32			0	33936	0	0	0	16599	15280	153950	27237	951842	37648	106006	0	0	8171	764623	0	0
2024-04-22 21:19:32			0	33933	0	0	0	16586	15280	154022	27097	951790	37637	106001	0	0	8171	764773	0	0
2024-04-22 21:20:32			0	33921	0	0	0	16550	15250	154106	27270	951749	37658	105987	0	0	8171	765497	0	0
2024-04-22 21:21:32			0	33890	0	0	0	16561	15250	154046	27196	951723	37647	105991	0	0	8169	767049	0	0
2024-04-22 21:22:32			0	33900	0	0	0	16522	15240	154138	27409	951680	37645	105976	0	0	8170	766589	0	0
2024-04-22 21:23:32			0	33884	0	0	0	16550	15240	154126	27130	951672	37645	105987	0	0	8169	767392	0	0
2024-04-22 21:24:32			0	33895	0	0	0	16540	15230	154134	27192	951629	37644	105983	0	0	8170	766881	0	0
2024-04-22 21:25:32			0	33889	0	0	0	16550	15230	154110	27436	951655	37633	105987	0	0	8169	767182	0	0
2024-04-22 21:26:32			0	33860	0	0	0	16550	15230	154210	27455	951682	37633	105987	0	0	8167	768637	0	0
2024-04-22 21:27:32			0	33856	0	0	0	16553	15210	154318	27081	951631	37654	105988	0	0	8167	768920	0	0
2024-04-22 21:28:32			0	33853	0	0	0	16548	15220	154306	27462	951639	37643	105986	0	0	8167	769030	0	0
2024-04-22 21:29:32			0	33865	0	0	0	16553	15210	154298	27308	951597	37631	105988	0	0	8168	768468	0	0
2024-04-22 21:30:32			0	33869	0	0	0	16563	15200	154314	27350	951641	37642	105992	0	0	8168	768309	0	0
2024-04-22 21:31:32			0	33872	0	0	0	16542	15210	154330	27332	951605	37631	105984	0	0	8168	768117	0	0
2024-04-22 21:32:32			0	33877	0	0	0	16535	15200	154310	27602	951554	37641	105981	0	0	8169	767908	0	0
2024-04-22 21:33:32			0	33858	0	0	0	16561	15190	154326	27338	951538	37641	105991	0	0	8167	768903	0	0
2024-04-22 21:34:32			0	33850	0	0	0	16527	15190	154402	27495	951520	37652	105978	0	0	8167	769305	0	0
2024-04-22 21:35:32			0	33858	0	0	0	16493	15190	154362	27270	951493	37652	105965	0	0	8168	768903	0	0
2024-04-22 21:36:32			0	33856	0	0	0	16475	15180	154338	27504	951477	37619	105958	0	0	8168	769044	0	0
2024-04-22 21:37:32			0	33843	0	0	0	16480	15180	154502	27310	951390	37618	105960	0	0	8167	769698	0	0
2024-04-22 21:38:32			0	33850	0	0	0	16501	15170	154498	27360	951461	37628	105968	0	0	8167	769387	0	0
2024-04-22 21:39:32			0	33831	0	0	0	16498	15170	154498	27239	951479	37628	105967	0	0	8166	770342	0	0
2024-04-22 21:40:32			0	33835	0	0	0	16493	15150	154554	27339	951429	37637	105965	0	0	8167	770224	0	0
2024-04-22 21:41:32			0	33841	0	0	0	16511	15160	154562	27046	951410	37626	105972	0	0	8167	769881	0	0
2024-04-22 21:42:32			0	33827	0	0	0	16490	15150	154590	27300	951376	37648	105964	0	0	8166	770626	0	0
2024-04-22 21:43:32			0	33836	0	0	0	16451	15140	154550	27388	951360	37626	105949	0	0	8167	770215	0	0
2024-04-22 21:44:32			0	33825	0	0	0	16477	15150	154494	27512	951289	37626	105959	0	0	8166	770727	0	0
2024-04-22 21:45:32			0	33826	0	0	0	16501	15140	154562	27209	951325	37625	105968	0	0	8166	770718	0	0
2024-04-22 21:46:32			0	33844	0	0	0	16467	15140	154502	27235	951360	37637	105955	0	0	8167	769813	0	0
2024-04-22 21:47:32			0	33841	0	0	0	16464	15140	154506	27443	951299	37647	105954	0	0	8167	769964	0	0
2024-04-22 21:48:32			0	33841	0	0	0	16475	15130	154614	27140	951309	37625	105958	0	0	8167	770005	0	0
2024-04-22 21:49:32			0	33824	0	0	0	16462	15130	154582	27431	951291	37635	105953	0	0	8166	770860	0	0
2024-04-22 21:50:32			0	33834	0	0	0	16470	15130	154598	27784	951335	37646	105956	0	0	8167	770357	0	0
2024-04-22 21:51:32			0	33848	0	0	0	16457	15120	154638	27462	951248	37635	105951	0	0	8168	769694	0	0
2024-04-22 21:52:32			0	33858	0	0	0	16433	15110	154614	27391	951285	37633	105942	0	0	8169	769233	0	0
2024-04-22 21:53:32			0	33845	0	0	0	16459	15120	154546	27381	951266	37634	105952	0	0	8168	769845	0	0
2024-04-22 21:54:32			0	33833	0	0	0	16425	15120	154646	27246	951161	37624	105939	0	0	8167	770449	0	0
2024-04-22 21:55:32			0	33832	0	0	0	16425	15090	154686	27170	951173	37599	105939	0	0	8167	770623	0	0
2024-04-22 21:56:32			0	33821	0	0	0	16441	15100	154650	27326	951155	37623	105945	0	0	8166	771135	0	0
2024-04-22 21:57:32			0	33808	0	0	0	16451	15100	154686	27720	951155	37623	105949	0	0	8165	771790	0	0
2024-04-22 21:58:32			0	33799	0	0	0	16449	15090	154750	27274	951200	37632	105948	0	0	8165	772285	0	0
2024-04-22 21:59:32			0	33786	0	0	0	16459	15090	154790	27218	951173	37632	105952	0	0	8164	772941	0	0
2024-04-22 22:00:32			0	33779	0	0	0	16451	15100	154826	27371	951189	37633	105949	0	0	8164	773252	0	0
2024-04-22 22:01:32			0	33793	0	0	0	16415	15090	154726	27573	951218	37631	105935	0	0	8165	772588	0	0
2024-04-22 22:02:32			0	33789	0	0	0	16420	15090	154806	27623	951139	37621	105937	0	0	8165	772789	0	0
2024-04-22 22:03:32			0	33804	0	0	0	16415	15080	154806	27371	951149	37621	105935	0	0	8166	772074	0	0
2024-04-22 22:04:32			0	33812	0	0	0	16402	15080	154682	27469	951131	37621	105930	0	0	8166	771671	0	0
2024-04-22 22:05:32			0	33801	0	0	0	16394	15080	154682	27473	951096	37621	105927	0	0	8166	772226	0	0
2024-04-22 22:06:32			0	33830	0	0	0	16394	15080	154642	27424	951123	37610	105927	0	0	8168	770765	0	0
2024-04-22 22:07:32			0	33830	0	0	0	16387	15060	154502	27332	951019	37629	105924	0	0	8168	770848	0	0
2024-04-22 22:08:32			0	33846	0	0	0	16384	15060	154558	27339	950993	37629	105923	0	0	8169	770043	0	0
2024-04-22 22:09:32			0	33850	0	0	0	16379	15060	154434	27485	950985	37619	105921	0	0	8169	769842	0	0
2024-04-22 22:10:32			0	33832	0	0	0	16384	15060	154502	27272	951046	37619	105923	0	0	8168	770747	0	0
2024-04-22 22:11:32			0	33839	0	0	0	16376	15050	154458	27550	951030	37628	105920	0	0	8168	770436	0	0
2024-04-22 22:12:32			0	33844	0	0	0	16371	15050	154586	27395	951003	37607	105918	0	0	8169	770185	0	0
2024-04-22 22:13:32			0	33830	0	0	0	16358	15050	154486	27358	950969	37617	105913	0	0	8168	770889	0	0
2024-04-22 22:14:32			0	33834	0	0	0	16358	15040	154694	27445	950934	37617	105913	0	0	8168	770729	0	0
2024-04-22 22:15:32			0	33825	0	0	0	16361	15030	154654	27225	950866	37617	105914	0	0	8168	771224	0	0
2024-04-22 22:16:32			0	33840	0	0	0	16350	15040	154566	27531	950953	37628	105910	0	0	8169	770427	0	0
2024-04-22 22:17:32			0	33848	0	0	0	16342	15030	154630	27244	950866	37617	105907	0	0	8169	770066	0	0
2024-04-22 22:18:32			0	33862	0	0	0	16340	15020	154550	27744	950894	37615	105906	0	0	8170	769404	0	0
2024-04-22 22:19:32			0	33868	0	0	0	16350	15020	154590	27402	950894	37615	105910	0	0	8170	769102	0	0
2024-04-22 22:20:32			0	33864	0	0	0	16348	15020	154598	27428	950876	37605	105909	0	0	8170	769303	0	0
2024-04-22 22:21:32			0	33868	0	0	0	16342	15010	154514	27416	950851	37603	105907	0	0	8170	769143	0	0
2024-04-22 22:22:32			0	33877	0	0	0	16337	15010	154510	27412	950859	37625	105905	0	0	8171	768691	0	0
2024-04-22 22:23:32			0	33873	0	0	0	16329	15000	154514	27225	950790	37614	105902	0	0	8171	768933	0	0
2024-04-22 22:24:32			0	33891	0	0	0	16327	15000	154398	27279	950817	37603	105901	0	0	8172	768030	0	0
2024-04-22 22:25:32			0	33878	0	0	0	16316	14990	154294	27308	950756	37613	105897	0	0	8171	768724	0	0
2024-04-22 22:26:32			0	33894	0	0	0	16319	14990	154310	27258	950782	37613	105898	0	0	8172	767920	0	0
2024-04-22 22:27:32			0	33888	0	0	0	16311	14980	154434	27301	950740	37612	105895	0	0	8172	768263	0	0
2024-04-22 22:28:32			0	33882	0	0	0	16298	14990	154458	27453	950722	37624	105890	0	0	8172	768523	0	0
2024-04-22 22:29:32			0	33893	0	0	0	16298	14970	154618	27079	950689	37611	105890	0	0	8172	768053	0	0
2024-04-22 22:30:32			0	33887	0	0	0	16303	14970	154498	27486	950671	37601	105892	0	0	8172	768354	0	0
2024-04-22 22:31:32			0	33891	0	0	0	16306	14970	154466	27216	950715	37611	105893	0	0	8172	768153	0	0
2024-04-22 22:32:32			0	33899	0	0	0	16296	14970	154470	27154	950663	37600	105889	0	0	8173	767752	0	0
2024-04-22 22:33:32			0	33899	0	0	0	16280	14960	154414	27376	950673	37610	105883	0	0	8173	767793	0	0
2024-04-22 22:34:32			0	33908	0	0	0	16262	14960	154334	27476	950594	37610	105876	0	0	8174	767341	0	0
2024-04-22 22:35:32			0	33903	0	0	0	16249	14950	154282	27429	950560	37599	105871	0	0	8174	767633	0	0
2024-04-22 22:36:32			0	33919	0	0	0	16251	14950	154314	27287	950578	37598	105872	0	0	8175	766831	0	0
2024-04-22 22:37:32			0	33920	0	0	0	16246	14940	154298	27209	950535	37608	105870	0	0	8175	766822	0	0
2024-04-22 22:38:32			0	33935	0	0	0	16238	14930	154282	27185	950501	37597	105867	0	0	8176	766111	0	0
2024-04-22 22:39:32			0	33931	0	0	0	16223	14930	154274	27504	950467	37607	105861	0	0	8176	766312	0	0
2024-04-22 22:40:32			0	33928	0	0	0	16228	14910	154214	26984	950408	37595	105863	0	0	8175	766544	0	0
2024-04-22 22:41:32			0	33920	0	0	0	16215	14910	154174	27429	950408	37595	105858	0	0	8175	766945	0	0
2024-04-22 22:42:32			0	33956	0	0	0	16220	14900	154310	27034	950400	37594	105860	0	0	8177	765183	0	0
2024-04-22 22:43:32			0	33931	0	0	0	16218	14900	154238	27391	950400	37594	105859	0	0	8176	766435	0	0
2024-04-22 22:44:32			0	33930	0	0	0	16212	14890	154274	27140	950331	37583	105857	0	0	8176	766526	0	0
2024-04-22 22:45:32			0	33939	0	0	0	16212	14890	154282	27034	950357	37605	105857	0	0	8176	766075	0	0
2024-04-22 22:46:32			0	33932	0	0	0	16210	14880	154350	27391	950394	37592	105856	0	0	8176	766467	0	0
2024-04-22 22:47:32			0	33928	0	0	0	16210	14890	154278	27464	950375	37593	105856	0	0	8176	766626	0	0
2024-04-22 22:48:32			0	33925	0	0	0	16215	14880	154342	27521	950367	37582	105858	0	0	8175	766818	0	0
2024-04-22 22:49:32			0	33926	0	0	0	16236	14870	154354	27509	950377	37581	105866	0	0	8175	766809	0	0
2024-04-22 22:50:32			0	33934	0	0	0	16228	14870	154378	27312	950298	37581	105863	0	0	8175	766408	0	0
2024-04-22 22:51:32			0	33922	0	0	0	16225	14860	154438	27230	950361	37591	105862	0	0	8175	767051	0	0
2024-04-22 22:52:32			0	33912	0	0	0	16228	14870	154474	27249	950395	37591	105863	0	0	8174	767511	0	0
2024-04-22 22:53:32			0	33926	0	0	0	16231	14880	154346	27230	950359	37614	105864	0	0	8175	766768	0	0
2024-04-22 22:54:32			0	33935	0	0	0	16236	14870	154442	27428	950369	37602	105866	0	0	8175	766358	0	0
2024-04-22 22:55:32			0	33914	0	0	0	16233	14870	154434	27367	950377	37614	105865	0	0	8174	767411	0	0
2024-04-22 22:56:32			0	33930	0	0	0	16238	14870	154314	27618	950343	37602	105867	0	0	8175	766608	0	0
2024-04-22 22:57:32			0	33937	0	0	0	16236	14880	154286	27433	950359	37614	105866	0	0	8176	766217	0	0
2024-04-22 22:58:32			0	33921	0	0	0	16241	14880	154418	27422	950411	37592	105868	0	0	8175	767018	0	0
2024-04-22 22:59:32			0	33929	0	0	0	16246	14880	154474	27379	950464	37603	105870	0	0	8175	766617	0	0
2024-04-22 23:00:32			0	33925	0	0	0	16241	14880	154366	27369	950333	37603	105868	0	0	8175	766818	0	0
2024-04-22 23:01:32			0	33929	0	0	0	16251	14870	154422	27717	950395	37591	105872	0	0	8175	766659	0	0
2024-04-22 23:02:32			0	33934	0	0	0	16241	14870	154482	27104	950395	37591	105868	0	0	8175	766408	0	0
2024-04-22 23:03:32			0	33904	0	0	0	16257	14880	154430	27388	950385	37603	105874	0	0	8173	767871	0	0
2024-04-22 23:04:32			0	33920	0	0	0	16259	14880	154402	27390	950411	37592	105875	0	0	8174	767069	0	0
2024-04-22 23:05:32			0	33926	0	0	0	16251	14880	154422	27298	950394	37603	105872	0	0	8175	766768	0	0
2024-04-22 23:06:32			0	33910	0	0	0	16257	14870	154402	27339	950377	37591	105874	0	0	8174	767611	0	0
2024-04-22 23:07:32			0	33916	0	0	0	16244	14880	154410	27281	950394	37603	105869	0	0	8174	767269	0	0
2024-04-22 23:08:32			0	33914	0	0	0	16236	14880	154414	27341	950359	37614	105866	0	0	8174	767369	0	0
2024-04-22 23:09:32			0	33936	0	0	0	16228	14870	154458	27312	950403	37591	105863	0	0	8176	766308	0	0
2024-04-22 23:10:32			0	33919	0	0	0	16233	14870	154358	27187	950351	37591	105865	0	0	8175	767160	0	0
2024-04-22 23:11:32			0	33906	0	0	0	16228	14870	154454	27518	950403	37581	105863	0	0	8174	767812	0	0
2024-04-22 23:12:32			0	33917	0	0	0	16233	14870	154506	26809	950369	37591	105865	0	0	8174	767260	0	0
2024-04-22 23:13:32			0	33890	0	0	0	16241	14870	154478	27168	950351	37602	105868	0	0	8173	768616	0	0
2024-04-22 23:14:32			0	33887	0	0	0	16241	14870	154482	27424	950395	37602	105868	0	0	8173	768766	0	0
2024-04-22 23:15:32			0	33882	0	0	0	16259	14880	154610	27130	950420	37603	105875	0	0	8172	768976	0	0
2024-04-22 23:16:32			0	33875	0	0	0	16280	14880	154682	27483	950411	37582	105883	0	0	8171	769328	0	0
2024-04-22 23:17:32			0	33865	0	0	0	16267	14880	154714	27036	950438	37603	105878	0	0	8171	769831	0	0
2024-04-22 23:18:32			0	33859	0	0	0	16272	14890	154742	27124	950454	37604	105880	0	0	8170	770091	0	0
2024-04-22 23:19:32			0	33848	0	0	0	16249	14890	154742	27460	950481	37593	105871	0	0	8170	770645	0	0
2024-04-22 23:20:32			0	33867	0	0	0	16236	14890	154642	27258	950436	37583	105866	0	0	8172	769689	0	0
2024-04-22 23:21:32			0	33876	0	0	0	16233	14880	154770	27223	950464	37603	105865	0	0	8172	769278	0	0
2024-04-22 23:22:32			0	33851	0	0	0	16233	14880	154734	27319	950367	37592	105865	0	0	8171	770535	0	0
2024-04-22 23:23:32			0	33860	0	0	0	16241	14880	154654	27445	950411	37603	105868	0	0	8171	770082	0	0
2024-04-22 23:24:32			0	33855	0	0	0	16233	14880	154682	27460	950341	37603	105865	0	0	8171	770334	0	0
2024-04-22 23:25:32			0	33862	0	0	0	16225	14870	154750	27336	950316	37602	105862	0	0	8171	770023	0	0
2024-04-22 23:26:32			0	33848	0	0	0	16210	14870	154710	26927	950369	37581	105856	0	0	8171	770727	0	0
2024-04-22 23:27:32			0	33853	0	0	0	16218	14870	154858	27097	950377	37581	105859	0	0	8171	770476	0	0
2024-04-22 23:28:32			0	33854	0	0	0	16220	14870	154802	27199	950343	37602	105860	0	0	8171	770425	0	0
2024-04-22 23:29:32			0	33844	0	0	0	16215	14860	154858	27355	950335	37602	105858	0	0	8170	770970	0	0
2024-04-22 23:30:32			0	33825	0	0	0	16231	14870	154846	27244	950343	37602	105864	0	0	8169	771886	0	0
2024-04-22 23:31:32			0	33835	0	0	0	16223	14870	154814	27324	950395	37591	105861	0	0	8170	771382	0	0
2024-04-22 23:32:32			0	33836	0	0	0	16225	14860	154838	27590	950335	37591	105862	0	0	8170	771373	0	0
2024-04-22 23:33:32			0	33822	0	0	0	16218	14870	154894	27739	950351	37602	105859	0	0	8169	772037	0	0
2024-04-22 23:34:32			0	33835	0	0	0	16207	14860	154894	27336	950335	37591	105855	0	0	8170	771424	0	0
2024-04-22 23:35:32			0	33822	0	0	0	16228	14870	154822	27358	950290	37591	105863	0	0	8169	772037	0	0
2024-04-22 23:36:32			0	33820	0	0	0	16220	14860	154862	27552	950308	37602	105860	0	0	8169	772179	0	0
2024-04-22 23:37:32			0	33817	0	0	0	16223	14870	155014	27324	950369	37591	105861	0	0	8169	772289	0	0
2024-04-22 23:38:32			0	33819	0	0	0	16236	14860	155014	27426	950361	37602	105866	0	0	8169	772230	0	0
2024-04-22 23:39:32			0	33811	0	0	0	16244	14860	154962	27353	950353	37591	105869	0	0	8168	772633	0	0
2024-04-22 23:40:32			0	33819	0	0	0	16262	14860	155058	27502	950413	37613	105876	0	0	8168	772230	0	0
2024-04-22 23:41:32			0	33820	0	0	0	16259	14870	154970	27287	950395	37625	105875	0	0	8168	772138	0	0
2024-04-22 23:42:32			0	33829	0	0	0	16264	14870	155022	27416	950395	37602	105877	0	0	8169	771684	0	0
2024-04-22 23:43:32			0	33811	0	0	0	16275	14880	154974	27679	950490	37603	105881	0	0	8168	772550	0	0
2024-04-22 23:44:32			0	33810	0	0	0	16280	14880	155026	27505	950473	37614	105883	0	0	8167	772601	0	0
2024-04-22 23:45:32			0	33824	0	0	0	16272	14870	154930	27460	950482	37602	105880	0	0	8168	771936	0	0
2024-04-22 23:46:32			0	33817	0	0	0	16259	14880	154958	27684	950525	37603	105875	0	0	8168	772248	0	0
2024-04-22 23:47:32			0	33839	0	0	0	16259	14890	154898	27722	950428	37604	105875	0	0	8169	771098	0	0
2024-04-22 23:48:32			0	33829	0	0	0	16267	14890	154846	27189	950481	37604	105878	0	0	8169	771602	0	0
2024-04-22 23:49:32			0	33836	0	0	0	16272	14880	154906	27324	950499	37603	105880	0	0	8169	771290	0	0
2024-04-22 23:50:32			0	33820	0	0	0	16262	14890	154886	27220	950507	37604	105876	0	0	8168	772055	0	0
2024-04-22 23:51:32			0	33826	0	0	0	16259	14890	154830	27319	950533	37604	105875	0	0	8169	771753	0	0
2024-04-22 23:52:32			0	33820	0	0	0	16259	14880	154850	27514	950438	37603	105875	0	0	8168	772097	0	0
2024-04-22 23:53:32			0	33813	0	0	0	16283	14870	154978	27512	950430	37614	105884	0	0	8167	772491	0	0
2024-04-22 23:54:32			0	33818	0	0	0	16275	14890	154754	27378	950410	37594	105881	0	0	8168	772156	0	0
2024-04-22 23:55:32			0	33820	0	0	0	16277	14900	154866	27467	950549	37605	105882	0	0	8168	772014	0	0
2024-04-22 23:56:32			0	33827	0	0	0	16285	14890	154834	27244	950533	37604	105885	0	0	8168	771702	0	0
2024-04-22 23:57:32			0	33833	0	0	0	16285	14890	154866	27625	950489	37594	105885	0	0	8169	771400	0	0
2024-04-22 23:58:32			0	33817	0	0	0	16280	14890	154854	27350	950515	37594	105883	0	0	8168	772206	0	0
2024-04-22 23:59:32			0	33800	0	0	0	16283	14890	154814	27225	950489	37616	105884	0	0	8167	773064	0	0
2024-04-23 00:00:32			0	33826	0	0	0	16272	14900	154874	27251	950558	37616	105880	0	0	8169	771711	0	0
2024-04-23 00:01:32			0	33828	0	0	0	16270	14890	154870	27303	950515	37594	105879	0	0	8169	771652	0	0
2024-04-23 00:02:32			0	33801	0	0	0	16257	14890	154950	27324	950462	37605	105874	0	0	8167	773013	0	0
2024-04-23 00:03:32			0	33790	0	0	0	16264	14890	155046	27552	950481	37615	105877	0	0	8167	773569	0	0
2024-04-23 00:04:32			0	33787	0	0	0	16270	14890	155058	27294	950489	37594	105879	0	0	8166	773720	0	0
2024-04-23 00:05:32			0	33799	0	0	0	16270	14890	155170	27530	950481	37615	105879	0	0	8167	773114	0	0
2024-04-23 00:06:32			0	33775	0	0	0	16290	14880	155190	27377	950473	37603	105887	0	0	8165	774368	0	0
2024-04-23 00:07:32			0	33760	0	0	0	16288	14890	155242	27649	950481	37615	105886	0	0	8164	775084	0	0
2024-04-23 00:08:32			0	33757	0	0	0	16332	14890	155334	27201	950481	37615	105903	0	0	8163	775236	0	0
2024-04-23 00:09:32			0	33737	0	0	0	16332	14890	155242	27310	950541	37616	105903	0	0	8162	776248	0	0
2024-04-23 00:10:32			0	33740	0	0	0	16322	14900	155322	27493	950584	37605	105899	0	0	8163	776054	0	0
2024-04-23 00:11:32			0	33723	0	0	0	16324	14910	155262	27455	950600	37607	105900	0	0	8162	776874	0	0
2024-04-23 00:12:32			0	33715	0	0	0	16319	14910	155238	27566	950618	37595	105898	0	0	8161	777279	0	0
2024-04-23 00:13:32			0	33734	0	0	0	16311	14910	155242	27119	950574	37607	105895	0	0	8163	776317	0	0
2024-04-23 00:14:32			0	33745	0	0	0	16345	14920	155174	27431	950634	37607	105908	0	0	8163	775718	0	0
2024-04-23 00:15:32			0	33757	0	0	0	16366	14930	155222	27199	950685	37619	105916	0	0	8163	775070	0	0
2024-04-23 00:16:32			0	33776	0	0	0	16374	14940	155162	27296	950693	37619	105919	0	0	8164	774068	0	0
2024-04-23 00:17:32			0	33766	0	0	0	16399	14950	155194	27124	950796	37621	105929	0	0	8163	774532	0	0
2024-04-23 00:18:32			0	33766	0	0	0	16418	14940	155130	27492	950859	37620	105936	0	0	8163	774573	0	0
2024-04-23 00:19:32			0	33770	0	0	0	16410	14960	155146	27691	950891	37632	105933	0	0	8163	774288	0	0
2024-04-23 00:20:32			0	33751	0	0	0	16423	14980	155154	27535	950950	37634	105938	0	0	8162	775165	0	0
2024-04-23 00:21:32			0	33771	0	0	0	16454	14980	155086	27185	950942	37633	105950	0	0	8163	774154	0	0
2024-04-23 00:22:32			0	33773	0	0	0	16433	14990	155054	27602	951037	37624	105942	0	0	8163	774012	0	0
2024-04-23 00:23:32			0	33798	0	0	0	16475	15000	154998	27504	951027	37625	105958	0	0	8164	772709	0	0
2024-04-23 00:24:32			0	33785	0	0	0	16475	15010	155014	27480	951122	37647	105958	0	0	8163	773323	0	0
2024-04-23 00:25:32			0	33793	0	0	0	16477	15030	154998	27116	951147	37637	105959	0	0	8164	772836	0	0
2024-04-23 00:26:32			0	33771	0	0	0	16485	15030	154918	27445	951120	37637	105962	0	0	8162	773947	0	0
2024-04-23 00:27:32			0	33775	0	0	0	16527	15030	155110	27306	951226	37637	105978	0	0	8162	773745	0	0
2024-04-23 00:28:32			0	33743	0	0	0	16522	15050	155118	27253	951187	37651	105976	0	0	8160	775278	0	0
2024-04-23 00:29:32			0	33739	0	0	0	16514	15050	155166	27213	951240	37639	105973	0	0	8160	775481	0	0
2024-04-23 00:30:32			0	33757	0	0	0	16514	15060	155246	27445	951327	37651	105973	0	0	8161	774529	0	0
2024-04-23 00:31:32			0	33731	0	0	0	16532	15070	155126	27209	951299	37641	105980	0	0	8159	775802	0	0
2024-04-23 00:32:32			0	33720	0	0	0	16524	15080	155218	27267	951341	37653	105977	0	0	8159	776317	0	0
2024-04-23 00:33:32			0	33697	0	0	0	16524	15080	155338	27403	951367	37642	105977	0	0	8158	777482	0	0
2024-04-23 00:34:32			0	33693	0	0	0	16522	15090	155366	27467	951402	37642	105976	0	0	8157	777643	0	0
2024-04-23 00:35:32			0	33692	0	0	0	16524	15090	155482	27452	951376	37631	105977	0	0	8157	777694	0	0
2024-04-23 00:36:32			0	33677	0	0	0	16522	15100	155438	27466	951365	37655	105976	0	0	8156	778413	0	0
2024-04-23 00:37:32			0	33675	0	0	0	16522	15100	155486	27133	951347	37656	105976	0	0	8156	778514	0	0
2024-04-23 00:38:32			0	33662	0	0	0	16522	15120	155458	27256	951398	37645	105976	0	0	8156	779090	0	0
2024-04-23 00:39:32			0	33669	0	0	0	16522	15120	155486	27462	951432	37657	105976	0	0	8156	778735	0	0
2024-04-23 00:40:32			0	33654	0	0	0	16535	15110	155562	27213	951434	37633	105981	0	0	8155	779538	0	0
2024-04-23 00:41:32			0	33656	0	0	0	16537	15120	155530	27279	951432	37646	105982	0	0	8155	779395	0	0
2024-04-23 00:42:32			0	33664	0	0	0	16558	15120	155550	27201	951485	37657	105990	0	0	8155	778989	0	0
2024-04-23 00:43:32			0	33662	0	0	0	16561	15130	155526	27279	951475	37646	105991	0	0	8155	779049	0	0
2024-04-23 00:44:32			0	33666	0	0	0	16571	15150	155490	27173	951552	37648	105995	0	0	8155	778762	0	0
2024-04-23 00:45:32			0	33663	0	0	0	16561	15150	155550	27538	951578	37648	105991	0	0	8155	778914	0	0
2024-04-23 00:46:32			0	33662	0	0	0	16548	15150	155458	27599	951552	37659	105986	0	0	8155	778965	0	0
2024-04-23 00:47:32			0	33648	0	0	0	16555	15150	155414	27244	951473	37637	105989	0	0	8154	779676	0	0
2024-04-23 00:48:32			0	33657	0	0	0	16558	15160	155446	27561	951542	37649	105990	0	0	8155	779177	0	0
2024-04-23 00:49:32			0	33656	0	0	0	16561	15150	155370	27270	951560	37669	105991	0	0	8155	779269	0	0
2024-04-23 00:50:32			0	33651	0	0	0	16568	15160	155458	27258	951568	37649	105994	0	0	8154	779481	0	0
2024-04-23 00:51:32			0	33660	0	0	0	16555	15160	155498	26870	951550	37661	105989	0	0	8155	779025	0	0
2024-04-23 00:52:32			0	33674	0	0	0	16542	15160	155518	27260	951576	37671	105984	0	0	8156	778314	0	0
2024-04-23 00:53:32			0	33674	0	0	0	16555	15160	155342	27595	951603	37650	105989	0	0	8156	778314	0	0
2024-04-23 00:54:32			0	33666	0	0	0	16566	15160	155418	27519	951568	37660	105993	0	0	8155	778720	0	0
2024-04-23 00:55:32			0	33662	0	0	0	16566	15170	155450	27531	951593	37672	105993	0	0	8155	778881	0	0
2024-04-23 00:56:32			0	33656	0	0	0	16558	15170	155386	27218	951637	37650	105990	0	0	8155	779186	0	0
2024-04-23 00:57:32			0	33657	0	0	0	16553	15160	155410	27407	951603	37650	105988	0	0	8155	779177	0	0
2024-04-23 00:58:32			0	33664	0	0	0	16555	15170	155502	26993	951593	37662	105989	0	0	8155	778780	0	0
2024-04-23 00:59:32			0	33654	0	0	0	16568	15170	155454	27317	951566	37662	105994	0	0	8155	779287	0	0
2024-04-23 01:00:32			0	33658	0	0	0	16563	15180	155486	27585	951601	37662	105992	0	0	8155	779042	0	0
2024-04-23 01:01:32			0	33666	0	0	0	16566	15180	155370	27128	951635	37662	105993	0	0	8155	778636	0	0
2024-04-23 01:02:32			0	33659	0	0	0	16561	15170	155378	27372	951637	37650	105991	0	0	8155	779033	0	0
2024-04-23 01:03:32			0	33664	0	0	0	16563	15180	155402	27013	951601	37650	105992	0	0	8155	778738	0	0
2024-04-23 01:04:32			0	33669	0	0	0	16558	15180	155474	27423	951635	37662	105990	0	0	8156	778484	0	0
2024-04-23 01:05:32			0	33677	0	0	0	16561	15180	155422	27239	951627	37662	105991	0	0	8156	778078	0	0
2024-04-23 01:06:32			0	33654	0	0	0	16558	15170	155482	27100	951645	37650	105990	0	0	8155	779287	0	0
2024-04-23 01:07:32			0	33652	0	0	0	16553	15180	155470	27149	951635	37662	105988	0	0	8155	779347	0	0
2024-04-23 01:08:32			0	33657	0	0	0	16568	15180	155534	27137	951635	37662	105994	0	0	8155	779093	0	0
2024-04-23 01:09:32			0	33636	0	0	0	16545	15180	155502	27483	951661	37662	105985	0	0	8154	780160	0	0
2024-04-23 01:10:32			0	33636	0	0	0	16550	15190	155502	27450	951643	37663	105987	0	0	8154	780118	0	0
2024-04-23 01:11:32			0	33634	0	0	0	16542	15180	155622	27213	951635	37651	105984	0	0	8154	780261	0	0
2024-04-23 01:12:32			0	33639	0	0	0	16545	15180	155574	27176	951574	37662	105985	0	0	8154	780007	0	0
2024-04-23 01:13:32			0	33629	0	0	0	16545	15180	155498	27367	951609	37662	105985	0	0	8154	780515	0	0
2024-04-23 01:14:32			0	33631	0	0	0	16540	15170	155618	27315	951593	37639	105983	0	0	8154	780456	0	0
2024-04-23 01:15:32			0	33610	0	0	0	16537	15170	155582	27445	951593	37650	105982	0	0	8153	781524	0	0
2024-04-23 01:16:32			0	33616	0	0	0	16550	15170	155542	27493	951593	37650	105987	0	0	8153	781218	0	0
2024-04-23 01:17:32			0	33623	0	0	0	16553	15170	155546	27417	951566	37650	105988	0	0	8153	780862	0	0
2024-04-23 01:18:32			0	33612	0	0	0	16550	15180	155586	27783	951601	37639	105987	0	0	8153	781380	0	0
2024-04-23 01:19:32			0	33605	0	0	0	16558	15170	155538	27258	951619	37650	105990	0	0	8152	781778	0	0
2024-04-23 01:20:32			0	33607	0	0	0	16555	15190	155614	27358	951643	37652	105989	0	0	8152	781592	0	0
2024-04-23 01:21:32			0	33606	0	0	0	16553	15180	155670	27296	951574	37662	105988	0	0	8152	781685	0	0
2024-04-23 01:22:32			0	33604	0	0	0	16545	15180	155682	27362	951609	37662	105985	0	0	8152	781787	0	0
2024-04-23 01:23:32			0	33594	0	0	0	16545	15180	155706	27481	951627	37650	105985	0	0	8152	782296	0	0
2024-04-23 01:24:32			0	33596	0	0	0	16553	15180	155722	27516	951583	37651	105988	0	0	8152	782194	0	0
2024-04-23 01:25:32			0	33605	0	0	0	16561	15180	155826	27298	951574	37650	105991	0	0	8152	781736	0	0
2024-04-23 01:26:32			0	33590	0	0	0	16553	15170	155734	27438	951593	37639	105988	0	0	8151	782542	0	0
2024-04-23 01:27:32			0	33598	0	0	0	16566	15170	155842	27450	951593	37662	105993	0	0	8151	782135	0	0
2024-04-23 01:28:32			0	33585	0	0	0	16568	15180	155690	27516	951627	37650	105994	0	0	8151	782755	0	0
2024-04-23 01:29:32			0	33596	0	0	0	16553	15180	155710	27248	951601	37672	105988	0	0	8152	782194	0	0
2024-04-23 01:30:32			0	33604	0	0	0	16545	15180	155762	27287	951601	37650	105985	0	0	8152	781787	0	0
2024-04-23 01:31:32			0	33582	0	0	0	16555	15180	155734	27512	951609	37651	105989	0	0	8151	782907	0	0
2024-04-23 01:32:32			0	33584	0	0	0	16563	15180	155770	27362	951635	37662	105992	0	0	8151	782806	0	0
2024-04-23 01:33:32			0	33576	0	0	0	16548	15180	155722	27391	951609	37662	105986	0	0	8150	783213	0	0
2024-04-23 01:34:32			0	33582	0	0	0	16548	15180	155650	27495	951653	37650	105986	0	0	8151	782907	0	0
2024-04-23 01:35:32			0	33568	0	0	0	16542	15180	155694	27599	951609	37662	105984	0	0	8150	783621	0	0
2024-04-23 01:36:32			0	33589	0	0	0	16545	15170	155642	27407	951619	37639	105985	0	0	8151	782593	0	0
2024-04-23 01:37:32			0	33575	0	0	0	16542	15170	155777	27481	951593	37662	105984	0	0	8150	783306	0	0
2024-04-23 01:38:32			0	33578	0	0	0	16545	15180	155786	27450	951583	37662	105985	0	0	8151	783111	0	0
2024-04-23 01:39:32			0	33574	0	0	0	16545	15170	155870	27239	951566	37650	105985	0	0	8150	783357	0	0
2024-04-23 01:40:32			0	33581	0	0	0	16519	15170	155850	27637	951566	37662	105975	0	0	8151	783000	0	0
2024-04-23 01:41:32			0	33568	0	0	0	16511	15170	155818	27633	951540	37650	105972	0	0	8151	783663	0	0
2024-04-23 01:42:32			0	33576	0	0	0	16470	15170	155830	27256	951540	37650	105956	0	0	8152	783255	0	0
2024-04-23 01:43:32			0	33607	0	0	0	16438	15140	155698	27454	951386	37648	105944	0	0	8154	781802	0	0
2024-04-23 01:44:32			0	33610	0	0	0	16444	15140	155650	27578	951360	37626	105946	0	0	8154	781650	0	0
2024-04-23 01:45:32			0	33612	0	0	0	16472	15140	155690	27627	951352	37636	105957	0	0	8154	781548	0	0
2024-04-23 01:46:32			0	33600	0	0	0	16490	15120	155774	27227	951372	37634	105964	0	0	8153	782243	0	0
2024-04-23 01:47:32			0	33580	0	0	0	16511	15120	155869	27339	951380	37635	105972	0	0	8151	783262	0	0
2024-04-23 01:48:32			0	33566	0	0	0	16522	15140	155873	27041	951483	37658	105976	0	0	8150	783891	0	0
2024-04-23 01:49:32			0	33594	0	0	0	16514	15130	155878	27412	951449	37646	105973	0	0	8152	782506	0	0
2024-04-23 01:50:32			0	33573	0	0	0	16532	15130	155861	27170	951475	37657	105980	0	0	8150	783576	0	0
2024-04-23 01:51:32			0	33597	0	0	0	16529	15130	155846	27324	951475	37657	105979	0	0	8152	782353	0	0
2024-04-23 01:52:32			0	33607	0	0	0	16535	15140	155718	27441	951518	37648	105981	0	0	8152	781802	0	0
2024-04-23 01:53:32			0	33623	0	0	0	16532	15150	155650	27634	951552	37659	105980	0	0	8153	780946	0	0
2024-04-23 01:54:32			0	33631	0	0	0	16540	15150	155586	26960	951526	37669	105983	0	0	8154	780539	0	0
2024-04-23 01:55:32			0	33645	0	0	0	16537	15150	155586	27505	951526	37648	105982	0	0	8155	779828	0	0
2024-04-23 01:56:32			0	33639	0	0	0	16537	15150	155526	27177	951552	37669	105982	0	0	8154	780133	0	0
2024-04-23 01:57:32			0	33637	0	0	0	16542	15150	155550	27720	951586	37669	105984	0	0	8154	780234	0	0
2024-04-23 01:58:32			0	33643	0	0	0	16545	15160	155466	27459	951568	37660	105985	0	0	8154	779888	0	0
2024-04-23 01:59:32			0	33651	0	0	0	16540	15150	155514	27320	951560	37659	105983	0	0	8155	779523	0	0
2024-04-23 02:00:32			0	33646	0	0	0	16540	15170	155534	27067	951611	37662	105983	0	0	8155	779694	0	0
2024-04-23 02:01:32			0	33634	0	0	0	16558	15170	155538	27720	951566	37662	105990	0	0	8154	780303	0	0
2024-04-23 02:02:32			0	33647	0	0	0	16550	15160	155606	27145	951629	37650	105987	0	0	8155	779685	0	0
2024-04-23 02:03:32			0	33631	0	0	0	16553	15160	155606	27623	951603	37661	105988	0	0	8154	780498	0	0
2024-04-23 02:04:32			0	33634	0	0	0	16550	15160	155530	27528	951576	37661	105987	0	0	8154	780345	0	0
2024-04-23 02:05:32			0	33631	0	0	0	16542	15170	155514	27308	951611	37639	105984	0	0	8154	780456	0	0
2024-04-23 02:06:32			0	33631	0	0	0	16532	15160	155606	27374	951576	37650	105980	0	0	8154	780498	0	0
2024-04-23 02:07:32			0	33630	0	0	0	16555	15170	155578	27331	951585	37650	105989	0	0	8153	780506	0	0
2024-04-23 02:08:32			0	33636	0	0	0	16550	15160	155626	27235	951603	37661	105987	0	0	8154	780243	0	0
2024-04-23 02:09:32			0	33622	0	0	0	16548	15170	155602	27111	951585	37650	105986	0	0	8153	780913	0	0
2024-04-23 02:10:32			0	33610	0	0	0	16550	15170	155742	27329	951637	37650	105987	0	0	8152	781524	0	0
2024-04-23 02:11:32			0	33629	0	0	0	16553	15170	155822	27255	951585	37650	105988	0	0	8153	780557	0	0
2024-04-23 02:12:32			0	33615	0	0	0	16561	15170	155778	27614	951637	37650	105991	0	0	8152	781269	0	0
2024-04-23 02:13:32			0	33614	0	0	0	16568	15170	155770	27229	951645	37662	105994	0	0	8152	781320	0	0
2024-04-23 02:14:32			0	33583	0	0	0	16561	15180	155714	27699	951653	37662	105991	0	0	8151	782857	0	0
2024-04-23 02:15:32			0	33596	0	0	0	16568	15170	155714	27445	951645	37650	105994	0	0	8151	782236	0	0
2024-04-23 02:16:32			0	33595	0	0	0	16561	15170	155810	27462	951619	37639	105991	0	0	8151	782287	0	0
2024-04-23 02:17:32			0	33583	0	0	0	16555	15190	155818	27286	951617	37673	105989	0	0	8151	782814	0	0
2024-04-23 02:18:32			0	33564	0	0	0	16555	15180	155813	27422	951601	37662	105989	0	0	8150	783825	0	0
2024-04-23 02:19:32			0	33563	0	0	0	16550	15180	155882	27438	951653	37672	105987	0	0	8150	783876	0	0
2024-04-23 02:20:32			0	33578	0	0	0	16550	15180	155906	27177	951714	37640	105987	0	0	8151	783111	0	0
2024-04-23 02:21:32			0	33559	0	0	0	16548	15180	155861	27367	951635	37662	105986	0	0	8149	784080	0	0
2024-04-23 02:22:32			0	33551	0	0	0	16542	15170	155977	27159	951619	37662	105984	0	0	8149	784531	0	0
2024-04-23 02:23:32			0	33555	0	0	0	16545	15180	155957	27455	951601	37662	105985	0	0	8149	784284	0	0
2024-04-23 02:24:32			0	33540	0	0	0	16535	15180	155929	27371	951574	37650	105981	0	0	8149	785050	0	0
2024-04-23 02:25:32			0	33553	0	0	0	16532	15170	155985	27649	951672	37662	105980	0	0	8149	784429	0	0
2024-04-23 02:26:32			0	33525	0	0	0	16529	15170	156101	27540	951593	37662	105979	0	0	8148	785859	0	0
2024-04-23 02:27:32			0	33526	0	0	0	16532	15180	156057	27516	951635	37662	105980	0	0	8148	785765	0	0
2024-04-23 02:28:32			0	33520	0	0	0	16550	15170	156117	27301	951611	37662	105987	0	0	8147	786114	0	0
2024-04-23 02:29:32			0	33516	0	0	0	16550	15170	156113	27526	951637	37672	105987	0	0	8147	786319	0	0
2024-04-23 02:30:32			0	33507	0	0	0	16542	15180	156101	27178	951609	37662	105984	0	0	8146	786737	0	0
2024-04-23 02:31:32			0	33494	0	0	0	16542	15170	156157	27341	951566	37662	105984	0	0	8146	787445	0	0
2024-04-23 02:32:32			0	33514	0	0	0	16545	15180	156181	27679	951653	37662	105985	0	0	8147	786379	0	0
2024-04-23 02:33:32			0	33507	0	0	0	16550	15180	156177	27332	951680	37672	105987	0	0	8146	786737	0	0
2024-04-23 02:34:32			0	33497	0	0	0	16540	15160	156129	27274	951629	37650	105983	0	0	8146	787333	0	0
2024-04-23 02:35:32			0	33521	0	0	0	16548	15160	156129	27428	951576	37638	105986	0	0	8147	786106	0	0
2024-04-23 02:36:32			0	33510	0	0	0	16553	15170	156129	27713	951637	37650	105988	0	0	8146	786626	0	0
2024-04-23 02:37:32			0	33505	0	0	0	16540	15170	156161	27343	951611	37650	105983	0	0	8146	786881	0	0
2024-04-23 02:38:32			0	33491	0	0	0	16550	15160	156153	27279	951629	37661	105987	0	0	8145	787640	0	0
2024-04-23 02:39:32			0	33485	0	0	0	16542	15180	156213	27282	951627	37662	105984	0	0	8145	787863	0	0
2024-04-23 02:40:32			0	33485	0	0	0	16553	15170	156121	27616	951672	37650	105988	0	0	8145	787905	0	0
2024-04-23 02:41:32			0	33491	0	0	0	16548	15180	156177	27358	951680	37639	105986	0	0	8145	787556	0	0
2024-04-23 02:42:32			0	33488	0	0	0	16550	15180	156249	27481	951627	37662	105987	0	0	8145	787710	0	0
2024-04-23 02:43:32			0	33491	0	0	0	16548	15180	156221	27490	951706	37662	105986	0	0	8145	787556	0	0
2024-04-23 02:44:32			0	33487	0	0	0	16553	15160	156249	27388	951603	37671	105988	0	0	8145	787845	0	0
2024-04-23 02:45:32			0	33475	0	0	0	16555	15170	156301	27393	951672	37662	105989	0	0	8144	788418	0	0
2024-04-23 02:46:32			0	33495	0	0	0	16553	15170	156249	27516	951672	37650	105988	0	0	8145	787393	0	0
2024-04-23 02:47:32			0	33489	0	0	0	16555	15180	156237	27277	951661	37662	105989	0	0	8145	787658	0	0
2024-04-23 02:48:32			0	33464	0	0	0	16553	15180	156301	27222	951680	37672	105988	0	0	8144	788939	0	0
2024-04-23 02:49:32			0	33483	0	0	0	16527	15180	156381	27293	951556	37662	105978	0	0	8145	787966	0	0
2024-04-23 02:50:32			0	33484	0	0	0	16527	15170	156265	27748	951566	37650	105978	0	0	8145	787957	0	0
2024-04-23 02:51:32			0	33473	0	0	0	16529	15170	156341	27357	951532	37639	105979	0	0	8145	788520	0	0
2024-04-23 02:52:32			0	33479	0	0	0	16542	15160	156465	27222	951603	37661	105984	0	0	8145	788255	0	0
2024-04-23 02:53:32			0	33454	0	0	0	16532	15160	156489	27282	951568	37660	105980	0	0	8143	789537	0	0
2024-04-23 02:54:32			0	33456	0	0	0	16540	15150	156505	27175	951499	37659	105983	0	0	8143	789477	0	0
2024-04-23 02:55:32			0	33450	0	0	0	16529	15150	156577	27112	951534	37659	105979	0	0	8143	789785	0	0
2024-04-23 02:56:32			0	33450	0	0	0	16529	15150	156521	27178	951526	37669	105979	0	0	8143	789785	0	0
2024-04-23 02:57:32			0	33430	0	0	0	16496	15160	156545	27222	951542	37638	105966	0	0	8143	790769	0	0
2024-04-23 02:58:32			0	33420	0	0	0	16506	15140	156597	27384	951386	37648	105970	0	0	8142	791368	0	0
2024-04-23 02:59:32			0	33416	0	0	0	16514	15150	156661	27168	951473	37648	105973	0	0	8141	791531	0	0
2024-04-23 03:00:32			0	33397	0	0	0	16527	15150	156753	27345	951560	37669	105978	0	0	8140	792509	0	0
2024-04-23 03:01:32			0	33383	0	0	0	16522	15150	156721	27623	951473	37659	105976	0	0	8139	793230	0	0
2024-04-23 03:02:32			0	33395	0	0	0	16524	15140	156753	27514	951483	37658	105977	0	0	8140	792654	0	0
2024-04-23 03:03:32			0	33377	0	0	0	16506	15140	156801	27582	951536	37658	105970	0	0	8139	793581	0	0
2024-04-23 03:04:32			0	33358	0	0	0	16519	15150	156849	27495	951552	37680	105975	0	0	8138	794518	0	0
2024-04-23 03:05:32			0	33358	0	0	0	16527	15150	156877	27441	951534	37659	105978	0	0	8138	794518	0	0
2024-04-23 03:06:32			0	33343	0	0	0	16524	15150	156917	27196	951560	37669	105977	0	0	8137	795292	0	0
2024-04-23 03:07:32			0	33361	0	0	0	16506	15150	156889	27677	951552	37659	105970	0	0	8138	794363	0	0
2024-04-23 03:08:32			0	33360	0	0	0	16493	15140	156893	27346	951457	37647	105965	0	0	8138	794458	0	0
2024-04-23 03:09:32			0	33352	0	0	0	16493	15140	156913	27367	951483	37647	105965	0	0	8138	794870	0	0
2024-04-23 03:10:32			0	33361	0	0	0	16477	15130	156909	27398	951423	37646	105959	0	0	8139	794449	0	0
2024-04-23 03:11:32			0	33361	0	0	0	16462	15130	156901	27528	951335	37646	105953	0	0	8139	794449	0	0
2024-04-23 03:12:32			0	33348	0	0	0	16415	15100	156857	27301	951234	37633	105935	0	0	8139	795247	0	0
2024-04-23 03:13:32			0	33362	0	0	0	16361	15100	156925	27395	951216	37612	105914	0	0	8140	794525	0	0
2024-04-23 03:14:32			0	33364	0	0	0	16348	15080	156889	27428	951096	37631	105909	0	0	8141	794507	0	0
2024-04-23 03:15:32			0	33359	0	0	0	16384	15060	156869	27717	951064	37629	105923	0	0	8140	794851	0	0
2024-04-23 03:16:32			0	33372	0	0	0	16355	15060	157009	27467	951011	37629	105912	0	0	8141	794180	0	0
2024-04-23 03:17:32			0	33355	0	0	0	16335	15040	156961	27322	951031	37628	105904	0	0	8140	795142	0	0
2024-04-23 03:18:32			0	33349	0	0	0	16296	15030	156913	27189	950936	37626	105889	0	0	8140	795495	0	0
2024-04-23 03:19:32			0	33344	0	0	0	16340	15020	156929	27398	950894	37636	105906	0	0	8139	795795	0	0
2024-04-23 03:20:32			0	33343	0	0	0	16322	15000	157029	27128	950843	37625	105899	0	0	8139	795933	0	0
2024-04-23 03:21:32			0	33344	0	0	0	16301	15000	157057	26979	950843	37625	105891	0	0	8140	795881	0	0
2024-04-23 03:22:32			0	33351	0	0	0	16277	14990	157085	27138	950756	37613	105882	0	0	8141	795562	0	0
2024-04-23 03:23:32			0	33359	0	0	0	16285	14980	157029	27509	950705	37623	105885	0	0	8141	795192	0	0
2024-04-23 03:24:32			0	33341	0	0	0	16298	14960	157105	27391	950760	37632	105890	0	0	8140	796207	0	0
2024-04-23 03:25:32			0	33326	0	0	0	16363	14970	157121	27201	950873	37643	105915	0	0	8138	796939	0	0
2024-04-23 03:26:32			0	33335	0	0	0	16379	14970	157249	27256	950881	37633	105921	0	0	8138	796474	0	0
2024-04-23 03:27:32			0	33325	0	0	0	16355	14980	157221	27293	950942	37644	105912	0	0	8138	796948	0	0
2024-04-23 03:28:32			0	33309	0	0	0	16316	14970	157241	27291	950855	37633	105897	0	0	8137	797819	0	0
2024-04-23 03:29:32			0	33317	0	0	0	16290	14970	157245	27395	950821	37632	105887	0	0	8138	797405	0	0
2024-04-23 03:30:32			0	33334	0	0	0	16348	14980	157173	27466	950784	37633	105909	0	0	8138	796483	0	0
2024-04-23 03:31:32			0	33329	0	0	0	16342	14960	157085	27327	950752	37631	105907	0	0	8138	796827	0	0
2024-04-23 03:32:32			0	33333	0	0	0	16420	14960	157225	27126	950831	37642	105937	0	0	8137	796620	0	0
2024-04-23 03:33:32			0	33329	0	0	0	16431	14970	157221	26967	950978	37643	105941	0	0	8137	796784	0	0
2024-04-23 03:34:32			0	33314	0	0	0	16451	14980	157325	27633	951029	37645	105949	0	0	8135	797517	0	0
2024-04-23 03:35:32			0	33324	0	0	0	16454	14980	157193	27594	951029	37645	105950	0	0	8136	797000	0	0
2024-04-23 03:36:32			0	33329	0	0	0	16446	15000	157229	27287	951106	37646	105947	0	0	8137	796656	0	0
2024-04-23 03:37:32			0	33335	0	0	0	16415	15010	157173	27576	951096	37647	105935	0	0	8137	796303	0	0
2024-04-23 03:38:32			0	33360	0	0	0	16415	15020	157109	27114	951052	37636	105935	0	0	8139	794970	0	0
2024-04-23 03:39:32			0	33362	0	0	0	16384	15010	157069	27038	951070	37636	105923	0	0	8140	794909	0	0
2024-04-23 03:40:32			0	33362	0	0	0	16376	15020	157037	27192	950999	37647	105920	0	0	8140	794866	0	0
2024-04-23 03:41:32			0	33382	0	0	0	16350	15010	156905	27400	950983	37635	105910	0	0	8141	793877	0	0
2024-04-23 03:42:32			0	33368	0	0	0	16371	15000	156925	27509	950922	37625	105918	0	0	8140	794642	0	0
2024-04-23 03:43:32			0	33394	0	0	0	16379	15000	156889	27725	950948	37646	105921	0	0	8142	793302	0	0
2024-04-23 03:44:32			0	33391	0	0	0	16387	15000	156989	27429	950974	37635	105924	0	0	8141	793456	0	0
2024-04-23 03:45:32			0	33384	0	0	0	16394	14990	156829	27476	951019	37646	105927	0	0	8141	793860	0	0
2024-04-23 03:46:32			0	33414	0	0	0	16381	14990	156825	27154	950906	37635	105922	0	0	8143	792314	0	0
2024-04-23 03:47:32			0	33419	0	0	0	16350	14980	156809	27201	950898	37634	105910	0	0	8143	792100	0	0
2024-04-23 03:48:32			0	33414	0	0	0	16376	14990	156797	27400	950958	37635	105920	0	0	8143	792314	0	0
2024-04-23 03:49:32			0	33424	0	0	0	16407	14990	156781	26909	951011	37646	105932	0	0	8143	791800	0	0
2024-04-23 03:50:32			0	33417	0	0	0	16402	14990	156781	27390	951019	37635	105930	0	0	8143	792160	0	0
2024-04-23 03:51:32			0	33408	0	0	0	16376	15000	156793	27419	951080	37635	105920	0	0	8142	792581	0	0
2024-04-23 03:52:32			0	33409	0	0	0	16397	15010	156737	27109	951017	37647	105928	0	0	8142	792487	0	0
2024-04-23 03:53:32			0	33425	0	0	0	16389	15000	156713	27291	950974	37635	105925	0	0	8143	791706	0	0
2024-04-23 03:54:32			0	33429	0	0	0	16394	15000	156701	27701	951001	37658	105927	0	0	8143	791500	0	0
2024-04-23 03:55:32			0	33434	0	0	0	16348	15000	156753	27554	950948	37635	105909	0	0	8144	791243	0	0
2024-04-23 03:56:32			0	33436	0	0	0	16355	14980	156545	27320	951003	37645	105912	0	0	8144	791225	0	0
2024-04-23 03:57:32			0	33428	0	0	0	16368	14990	156605	27358	950906	37624	105917	0	0	8144	791594	0	0
2024-04-23 03:58:32			0	33432	0	0	0	16389	14990	156669	27057	950966	37646	105925	0	0	8144	791389	0	0
2024-04-23 03:59:32			0	33432	0	0	0	16410	14990	156633	27053	951019	37646	105933	0	0	8143	791389	0	0
2024-04-23 04:00:32			0	33436	0	0	0	16423	15010	156737	27334	951088	37658	105938	0	0	8143	791098	0	0
2024-04-23 04:01:32			0	33429	0	0	0	16420	15010	156737	27464	951035	37646	105937	0	0	8143	791458	0	0
2024-04-23 04:02:32			0	33445	0	0	0	16412	15020	156769	27324	951060	37637	105934	0	0	8144	790593	0	0
2024-04-23 04:03:32			0	33430	0	0	0	16402	15010	156633	27267	951122	37636	105930	0	0	8143	791406	0	0
2024-04-23 04:04:32			0	33448	0	0	0	16412	15010	156693	27372	951088	37635	105934	0	0	8144	790481	0	0
2024-04-23 04:05:32			0	33420	0	0	0	16397	15030	156601	27140	951120	37637	105928	0	0	8143	791836	0	0
2024-04-23 04:06:32			0	33457	0	0	0	16384	15020	156617	27310	951078	37636	105923	0	0	8145	789977	0	0
2024-04-23 04:07:32			0	33445	0	0	0	16368	15010	156529	27102	951035	37635	105917	0	0	8145	790635	0	0
2024-04-23 04:08:32			0	33449	0	0	0	16340	15010	156545	27464	951035	37658	105906	0	0	8146	790430	0	0
2024-04-23 04:09:32			0	33451	0	0	0	16340	15010	156497	27270	950930	37635	105906	0	0	8146	790327	0	0
2024-04-23 04:10:32			0	33447	0	0	0	16332	15010	156585	27201	950983	37635	105903	0	0	8146	790533	0	0
2024-04-23 04:11:32			0	33439	0	0	0	16324	15000	156725	27244	950869	37646	105900	0	0	8145	790986	0	0
2024-04-23 04:12:32			0	33435	0	0	0	16337	14990	156665	27315	950853	37635	105905	0	0	8145	791234	0	0
2024-04-23 04:13:32			0	33436	0	0	0	16335	14990	156665	27242	950914	37635	105904	0	0	8145	791183	0	0
2024-04-23 04:14:32			0	33413	0	0	0	16353	14980	156725	27041	950863	37633	105911	0	0	8143	792409	0	0
2024-04-23 04:15:32			0	33423	0	0	0	16350	14990	156693	27201	950932	37646	105910	0	0	8144	791851	0	0
2024-04-23 04:16:32			0	33410	0	0	0	16340	14990	156841	27405	950879	37635	105906	0	0	8143	792520	0	0
2024-04-23 04:17:32			0	33414	0	0	0	16340	14980	156861	27104	950845	37645	105906	0	0	8143	792357	0	0
2024-04-23 04:18:32			0	33402	0	0	0	16348	14980	156877	27514	950889	37633	105909	0	0	8142	792975	0	0
2024-04-23 04:19:32			0	33408	0	0	0	16345	14980	156901	27421	950924	37624	105908	0	0	8143	792666	0	0
2024-04-23 04:20:32			0	33399	0	0	0	16306	14970	156793	27606	950881	37623	105893	0	0	8143	793172	0	0
2024-04-23 04:21:32			0	33402	0	0	0	16298	14980	156809	27190	950811	37644	105890	0	0	8143	792975	0	0
2024-04-23 04:22:32			0	33411	0	0	0	16293	14960	156805	27377	950813	37632	105888	0	0	8144	792596	0	0
2024-04-23 04:23:32			0	33427	0	0	0	16272	14970	156789	27397	950794	37622	105880	0	0	8145	791731	0	0
2024-04-23 04:24:32			0	33404	0	0	0	16280	14960	156973	27317	950778	37621	105883	0	0	8144	792957	0	0
2024-04-23 04:25:32			0	33400	0	0	0	16285	14950	156933	27147	950744	37631	105885	0	0	8143	793205	0	0
2024-04-23 04:26:32			0	33385	0	0	0	16285	14950	156961	27303	950770	37621	105885	0	0	8142	793979	0	0
2024-04-23 04:27:32			0	33390	0	0	0	16301	14940	157017	27718	950701	37630	105891	0	0	8142	793763	0	0
2024-04-23 04:28:32			0	33372	0	0	0	16322	14940	157033	27144	950728	37620	105899	0	0	8141	794691	0	0
2024-04-23 04:29:32			0	33372	0	0	0	16340	14940	157169	27419	950754	37630	105906	0	0	8141	794691	0	0
2024-04-23 04:30:32			0	33356	0	0	0	16329	14940	157113	27272	950806	37641	105902	0	0	8140	795517	0	0
2024-04-23 04:31:32			0	33354	0	0	0	16327	14960	157097	27303	950831	37621	105901	0	0	8140	795535	0	0
2024-04-23 04:32:32			0	33357	0	0	0	16319	14950	157109	27364	950867	37609	105898	0	0	8140	795423	0	0
2024-04-23 04:33:32			0	33356	0	0	0	16327	14960	157133	27478	950839	37622	105901	0	0	8140	795432	0	0
2024-04-23 04:34:32			0	33355	0	0	0	16327	14950	157121	27345	950823	37631	105901	0	0	8140	795526	0	0
2024-04-23 04:35:32			0	33353	0	0	0	16332	14960	157197	27372	950883	37642	105903	0	0	8140	795587	0	0
2024-04-23 04:36:32			0	33353	0	0	0	16337	14950	157137	27595	950796	37631	105905	0	0	8140	795630	0	0
2024-04-23 04:37:32			0	33349	0	0	0	16350	14950	157109	27561	950796	37642	105910	0	0	8139	795836	0	0
2024-04-23 04:38:32			0	33347	0	0	0	16376	14960	157157	27020	950839	37632	105920	0	0	8139	795897	0	0
2024-04-23 04:39:32			0	33369	0	0	0	16379	14960	157141	26963	950970	37643	105921	0	0	8140	794761	0	0
2024-04-23 04:40:32			0	33377	0	0	0	16379	14980	157137	27270	950968	37623	105921	0	0	8140	794263	0	0
2024-04-23 04:41:32			0	33353	0	0	0	16405	14970	157137	27203	950960	37644	105931	0	0	8139	795544	0	0
2024-04-23 04:42:32			0	33355	0	0	0	16418	14970	157113	27253	950986	37644	105936	0	0	8138	795441	0	0
2024-04-23 04:43:32			0	33363	0	0	0	16438	14990	157065	27213	951072	37657	105944	0	0	8139	794943	0	0
2024-04-23 04:44:32			0	33383	0	0	0	16399	14990	157041	27234	951011	37635	105929	0	0	8141	793911	0	0
2024-04-23 04:45:32			0	33368	0	0	0	16410	15000	157005	27481	951001	37646	105933	0	0	8139	794642	0	0
2024-04-23 04:46:32			0	33373	0	0	0	16387	15010	157029	27464	951035	37646	105924	0	0	8140	794342	0	0
2024-04-23 04:47:32			0	33385	0	0	0	16381	15000	156989	27161	951053	37646	105922	0	0	8141	793766	0	0
2024-04-23 04:48:32			0	33388	0	0	0	16384	15000	156957	27215	951001	37646	105923	0	0	8141	793611	0	0
2024-04-23 04:49:32			0	33414	0	0	0	16387	15010	156869	27426	951035	37635	105924	0	0	8143	792229	0	0
2024-04-23 04:50:32			0	33419	0	0	0	16402	15010	156837	27218	951035	37646	105930	0	0	8143	791972	0	0
2024-04-23 04:51:32			0	33410	0	0	0	16418	15010	156893	27637	951061	37658	105936	0	0	8142	792435	0	0
2024-04-23 04:52:32			0	33413	0	0	0	16436	15000	156901	26982	951053	37635	105943	0	0	8142	792323	0	0
2024-04-23 04:53:32			0	33418	0	0	0	16423	15020	156809	26946	951131	37658	105938	0	0	8142	791981	0	0
2024-04-23 04:54:32			0	33432	0	0	0	16412	15020	156833	27521	951139	37648	105934	0	0	8143	791261	0	0
2024-04-23 04:55:32			0	33437	0	0	0	16418	15020	156665	27119	951165	37648	105936	0	0	8144	791004	0	0
2024-04-23 04:56:32			0	33444	0	0	0	16410	15030	156765	27206	951155	37638	105933	0	0	8144	790602	0	0
2024-04-23 04:57:32			0	33450	0	0	0	16405	15030	156625	26984	951147	37637	105931	0	0	8145	790294	0	0
2024-04-23 04:58:32			0	33442	0	0	0	16410	15030	156665	27218	951129	37649	105933	0	0	8144	790705	0	0
2024-04-23 04:59:32			0	33436	0	0	0	16399	15030	156625	27072	951129	37649	105929	0	0	8144	791013	0	0
2024-04-23 05:00:32			0	33449	0	0	0	16410	15030	156609	27376	951155	37649	105933	0	0	8144	790345	0	0
2024-04-23 05:01:32			0	33454	0	0	0	16420	15030	156613	27370	951129	37638	105937	0	0	8145	790088	0	0
2024-04-23 05:02:32			0	33455	0	0	0	16418	15030	156613	27391	951120	37648	105936	0	0	8145	790037	0	0
2024-04-23 05:03:32			0	33460	0	0	0	16444	15030	156597	27473	951120	37648	105946	0	0	8145	789780	0	0
2024-04-23 05:04:32			0	33445	0	0	0	16457	15030	156513	27005	951234	37660	105951	0	0	8143	790551	0	0
2024-04-23 05:05:32			0	33467	0	0	0	16470	15040	156517	27197	951216	37650	105956	0	0	8145	789379	0	0
2024-04-23 05:06:32			0	33482	0	0	0	16446	15040	156589	27244	951250	37650	105947	0	0	8146	788609	0	0
2024-04-23 05:07:32			0	33466	0	0	0	16441	15040	156537	27409	951224	37650	105945	0	0	8145	789430	0	0
2024-04-23 05:08:32			0	33467	0	0	0	16438	15040	156529	27150	951250	37650	105944	0	0	8145	789379	0	0
2024-04-23 05:09:32			0	33473	0	0	0	16457	15040	156485	27447	951171	37650	105951	0	0	8145	789071	0	0
2024-04-23 05:10:32			0	33474	0	0	0	16472	15050	156469	27490	951266	37651	105957	0	0	8145	788977	0	0
2024-04-23 05:11:32			0	33481	0	0	0	16457	15070	156449	27168	951264	37640	105951	0	0	8146	788534	0	0
2024-04-23 05:12:32			0	33476	0	0	0	16459	15050	156537	27296	951179	37650	105952	0	0	8145	788875	0	0
2024-04-23 05:13:32			0	33467	0	0	0	16457	15050	156485	27149	951266	37639	105951	0	0	8145	789336	0	0
2024-04-23 05:14:32			0	33476	0	0	0	16433	15060	156445	27147	951222	37651	105942	0	0	8146	788832	0	0
2024-04-23 05:15:32			0	33489	0	0	0	16423	15070	156441	27602	951212	37640	105938	0	0	8147	788124	0	0
2024-04-23 05:16:32			0	33491	0	0	0	16428	15060	156481	27324	951256	37640	105940	0	0	8147	788063	0	0
2024-04-23 05:17:32			0	33476	0	0	0	16446	15060	156321	27149	951195	37629	105947	0	0	8146	788832	0	0
2024-04-23 05:18:32			0	33468	0	0	0	16464	15050	156473	27218	951214	37639	105954	0	0	8145	789285	0	0
2024-04-23 05:19:32			0	33471	0	0	0	16548	15060	156481	27473	951335	37640	105986	0	0	8144	789089	0	0
2024-04-23 05:20:32			0	33477	0	0	0	16579	15070	156457	27298	951430	37663	105998	0	0	8143	788739	0	0
2024-04-23 05:21:32			0	33479	0	0	0	16568	15080	156497	27416	951499	37664	105994	0	0	8144	788594	0	0
2024-04-23 05:22:32			0	33480	0	0	0	16545	15090	156377	27173	951436	37665	105985	0	0	8144	788500	0	0
2024-04-23 05:23:32			0	33487	0	0	0	16488	15090	156457	27163	951376	37664	105963	0	0	8146	788142	0	0
2024-04-23 05:24:32			0	33499	0	0	0	16457	15080	156333	27062	951367	37653	105951	0	0	8147	787569	0	0
2024-04-23 05:25:32			0	33501	0	0	0	16438	15090	156217	27027	951297	37653	105944	0	0	8147	787424	0	0
2024-04-23 05:26:32			0	33512	0	0	0	16483	15070	156241	27211	951272	37652	105961	0	0	8147	786946	0	0
2024-04-23 05:27:32			0	33508	0	0	0	16568	15080	156309	27209	951386	37653	105994	0	0	8146	787108	0	0
2024-04-23 05:28:32			0	33515	0	0	0	16607	15090	156405	27523	951507	37674	106009	0	0	8145	786708	0	0
2024-04-23 05:29:32			0	33494	0	0	0	16631	15110	156365	27130	951697	37656	106018	0	0	8144	787698	0	0
2024-04-23 05:30:32			0	33498	0	0	0	16644	15130	156337	27395	951712	37690	106023	0	0	8144	787409	0	0
2024-04-23 05:31:32			0	33496	0	0	0	16644	15140	156377	27381	951781	37691	106023	0	0	8144	787469	0	0
2024-04-23 05:32:32			0	33493	0	0	0	16631	15150	156221	27112	951771	37702	106018	0	0	8144	787580	0	0
2024-04-23 05:33:32			0	33531	0	0	0	16618	15160	156173	27187	951752	37670	106013	0	0	8146	785594	0	0
2024-04-23 05:34:32			0	33538	0	0	0	16599	15150	156145	27201	951744	37659	106006	0	0	8147	785279	0	0
2024-04-23 05:35:32			0	33548	0	0	0	16625	15160	156089	27448	951752	37660	106016	0	0	8147	784726	0	0
2024-04-23 05:36:32			0	33555	0	0	0	16612	15160	155977	27523	951761	37671	106011	0	0	8148	784369	0	0
2024-04-23 05:37:32			0	33567	0	0	0	16605	15170	156009	27583	951769	37694	106008	0	0	8149	783714	0	0
2024-04-23 05:38:32			0	33561	0	0	0	16574	15170	155953	27320	951777	37662	105996	0	0	8149	784020	0	0
2024-04-23 05:39:32			0	33585	0	0	0	16553	15160	155942	27685	951542	37681	105988	0	0	8151	782839	0	0
2024-04-23 05:40:32			0	33570	0	0	0	16563	15160	155858	27327	951542	37660	105992	0	0	8150	783603	0	0
2024-04-23 05:41:32			0	33579	0	0	0	16542	15150	155970	27332	951578	37669	105984	0	0	8151	783187	0	0
2024-04-23 05:42:32			0	33545	0	0	0	16524	15150	156025	27281	951578	37669	105977	0	0	8149	784921	0	0
2024-04-23 05:43:32			0	33560	0	0	0	16511	15140	155913	27320	951570	37659	105972	0	0	8150	784198	0	0
2024-04-23 05:44:32			0	33543	0	0	0	16493	15150	155997	27367	951578	37669	105965	0	0	8149	785023	0	0
2024-04-23 05:45:32			0	33550	0	0	0	16485	15140	156041	27381	951457	37658	105962	0	0	8150	784708	0	0
2024-04-23 05:46:32			0	33537	0	0	0	16490	15130	156169	27495	951423	37657	105964	0	0	8149	785414	0	0
2024-04-23 05:47:32			0	33531	0	0	0	16514	15120	156205	27048	951485	37690	105973	0	0	8148	785763	0	0
2024-04-23 05:48:32			0	33517	0	0	0	16537	15130	156317	27339	951554	37657	105982	0	0	8147	786437	0	0
2024-04-23 05:49:32			0	33467	0	0	0	16555	15140	156345	27325	951544	37669	105989	0	0	8144	788955	0	0
2024-04-23 05:50:32			0	33483	0	0	0	16548	15130	156445	26913	951625	37678	105986	0	0	8145	788177	0	0
2024-04-23 05:51:32			0	33462	0	0	0	16506	15140	156361	27027	951510	37679	105970	0	0	8144	789211	0	0
2024-04-23 05:52:32			0	33480	0	0	0	16529	15140	156457	27097	951588	37668	105979	0	0	8145	788289	0	0
2024-04-23 05:53:32			0	33478	0	0	0	16566	15130	156533	27092	951554	37678	105993	0	0	8144	788434	0	0
2024-04-23 05:54:32			0	33447	0	0	0	16563	15140	156445	27381	951562	37690	105992	0	0	8142	789981	0	0
2024-04-23 05:55:32			0	33479	0	0	0	16561	15150	156569	27137	951692	37669	105991	0	0	8144	788298	0	0
2024-04-23 05:56:32			0	33456	0	0	0	16555	15150	156385	27235	951665	37669	105989	0	0	8143	789477	0	0
2024-04-23 05:57:32			0	33470	0	0	0	16488	15150	156357	27204	951578	37680	105963	0	0	8145	788759	0	0
2024-04-23 05:58:32			0	33481	0	0	0	16428	15140	156429	27393	951518	37669	105940	0	0	8147	788237	0	0
2024-04-23 05:59:32			0	33472	0	0	0	16472	15140	156317	27552	951510	37658	105957	0	0	8145	788699	0	0
2024-04-23 06:00:32			0	33460	0	0	0	16493	15140	156425	27071	951457	37679	105965	0	0	8144	789314	0	0
2024-04-23 06:01:32			0	33466	0	0	0	16532	15140	156505	27492	951544	37669	105980	0	0	8144	789006	0	0
2024-04-23 06:02:32			0	33457	0	0	0	16475	15120	156557	27371	951485	37667	105958	0	0	8144	789553	0	0
2024-04-23 06:03:32			0	33451	0	0	0	16503	15130	156509	27350	951440	37667	105969	0	0	8144	789818	0	0
2024-04-23 06:04:32			0	33451	0	0	0	16485	15120	156561	27343	951424	37678	105962	0	0	8144	789861	0	0
2024-04-23 06:05:32			0	33457	0	0	0	16485	15120	156473	27222	951424	37656	105962	0	0	8144	789553	0	0
2024-04-23 06:06:32			0	33475	0	0	0	16498	15110	156537	27428	951461	37666	105967	0	0	8145	788672	0	0
2024-04-23 06:07:32			0	33458	0	0	0	16529	15120	156641	27242	951477	37656	105979	0	0	8143	789501	0	0
2024-04-23 06:08:32			0	33463	0	0	0	16535	15110	156609	27537	951461	37666	105981	0	0	8144	789287	0	0
2024-04-23 06:09:32			0	33436	0	0	0	16496	15130	156629	27604	951519	37657	105966	0	0	8143	790588	0	0
2024-04-23 06:10:32			0	33444	0	0	0	16498	15140	156549	27585	951536	37690	105967	0	0	8143	790135	0	0
2024-04-23 06:11:32			0	33446	0	0	0	16501	15120	156493	27620	951538	37690	105968	0	0	8143	790117	0	0
2024-04-23 06:12:32			0	33449	0	0	0	16475	15130	156637	27485	951467	37646	105958	0	0	8144	789921	0	0
2024-04-23 06:13:32			0	33445	0	0	0	16488	15120	156617	27149	951511	37657	105963	0	0	8143	790169	0	0
2024-04-23 06:14:32			0	33456	0	0	0	16477	15110	156693	27374	951495	37677	105959	0	0	8144	789646	0	0
2024-04-23 06:15:32			0	33441	0	0	0	16470	15100	156645	27376	951444	37655	105956	0	0	8143	790459	0	0
2024-04-23 06:16:32			0	33453	0	0	0	16454	15110	156569	27260	951408	37656	105950	0	0	8144	789801	0	0
2024-04-23 06:17:32			0	33453	0	0	0	16444	15100	156565	27268	951418	37644	105946	0	0	8144	789843	0	0
2024-04-23 06:18:32			0	33455	0	0	0	16467	15100	156585	27268	951313	37655	105955	0	0	8144	789740	0	0
2024-04-23 06:19:32			0	33438	0	0	0	16480	15090	156769	27362	951349	37653	105960	0	0	8143	790656	0	0
2024-04-23 06:20:32			0	33441	0	0	0	16493	15090	156589	27232	951410	37665	105965	0	0	8143	790501	0	0
2024-04-23 06:21:32			0	33476	0	0	0	16503	15100	156613	27523	951418	37666	105969	0	0	8145	788663	0	0
2024-04-23 06:22:32			0	33456	0	0	0	16501	15090	156677	27364	951384	37643	105968	0	0	8144	789731	0	0
2024-04-23 06:23:32			0	33453	0	0	0	16459	15100	156633	27393	951339	37666	105952	0	0	8144	789843	0	0
2024-04-23 06:24:32			0	33465	0	0	0	16470	15090	156585	27216	951349	37664	105956	0	0	8145	789270	0	0
2024-04-23 06:25:32			0	33450	0	0	0	16459	15090	156597	27474	951410	37654	105952	0	0	8144	790039	0	0
2024-04-23 06:26:32			0	33440	0	0	0	16493	15100	156581	27255	951471	37687	105965	0	0	8143	790511	0	0
2024-04-23 06:27:32			0	33448	0	0	0	16506	15090	156605	27658	951436	37665	105970	0	0	8143	790142	0	0
2024-04-23 06:28:32			0	33433	0	0	0	16506	15090	156649	27294	951463	37665	105970	0	0	8142	790912	0	0
2024-04-23 06:29:32			0	33438	0	0	0	16511	15090	156773	27390	951436	37665	105972	0	0	8142	790656	0	0
2024-04-23 06:30:32			0	33444	0	0	0	16548	15100	156669	27613	951523	37655	105986	0	0	8142	790305	0	0
2024-04-23 06:31:32			0	33452	0	0	0	16545	15110	156749	27338	951521	37688	105985	0	0	8143	789852	0	0
2024-04-23 06:32:32			0	33449	0	0	0	16537	15110	156749	27398	951495	37677	105982	0	0	8143	790006	0	0
2024-04-23 06:33:32			0	33455	0	0	0	16532	15110	156617	27462	951566	37677	105980	0	0	8143	789698	0	0
2024-04-23 06:34:32			0	33470	0	0	0	16545	15130	156605	27154	951554	37657	105985	0	0	8144	788843	0	0
2024-04-23 06:35:32			0	33475	0	0	0	16522	15130	156613	27481	951580	37667	105976	0	0	8145	788587	0	0
2024-04-23 06:36:32			0	33456	0	0	0	16545	15120	156597	27218	951511	37690	105985	0	0	8143	789604	0	0
2024-04-23 06:37:32			0	33473	0	0	0	16558	15130	156493	27452	951598	37690	105990	0	0	8144	788690	0	0
2024-04-23 06:38:32			0	33482	0	0	0	16553	15130	156513	27189	951580	37657	105988	0	0	8145	788229	0	0
2024-04-23 06:39:32			0	33487	0	0	0	16542	15130	156537	27206	951554	37690	105984	0	0	8145	787972	0	0
2024-04-23 06:40:32			0	33477	0	0	0	16563	15140	156633	27379	951588	37668	105992	0	0	8144	788442	0	0
2024-04-23 06:41:32			0	33471	0	0	0	16597	15140	156633	27249	951623	37669	106005	0	0	8143	788750	0	0
2024-04-23 06:42:32			0	33466	0	0	0	16620	15150	156573	27060	951692	37669	106014	0	0	8143	788964	0	0
2024-04-23 06:43:32			0	33472	0	0	0	16641	15160	156601	27208	951858	37681	106022	0	0	8143	788614	0	0
2024-04-23 06:44:32			0	33483	0	0	0	16651	15170	156557	27086	951900	37683	106026	0	0	8143	788008	0	0
2024-04-23 06:45:32			0	33479	0	0	0	16597	15170	156501	27138	951848	37705	106005	0	0	8144	788213	0	0
2024-04-23 06:46:32			0	33478	0	0	0	16602	15180	156497	27225	951811	37683	106007	0	0	8144	788222	0	0
2024-04-23 06:47:32			0	33492	0	0	0	16618	15180	156429	27319	951819	37695	106013	0	0	8144	787505	0	0
2024-04-23 06:48:32			0	33502	0	0	0	16628	15180	156429	27251	951872	37706	106017	0	0	8145	786993	0	0
2024-04-23 06:49:32			0	33503	0	0	0	16654	15190	156413	27284	951933	37695	106027	0	0	8144	786899	0	0
2024-04-23 06:50:32			0	33506	0	0	0	16667	15200	156425	26958	952036	37696	106032	0	0	8144	786704	0	0
2024-04-23 06:51:32			0	33522	0	0	0	16685	15210	156293	27466	952149	37697	106039	0	0	8145	785843	0	0
2024-04-23 06:52:32			0	33533	0	0	0	16693	15220	156281	27270	952016	37719	106042	0	0	8146	785239	0	0
2024-04-23 06:53:32			0	33525	0	0	0	16696	15240	156285	27223	952119	37721	106043	0	0	8145	785563	0	0
2024-04-23 06:54:32			0	33538	0	0	0	16693	15240	156201	27209	952093	37700	106042	0	0	8146	784899	0	0
2024-04-23 06:55:32			0	33550	0	0	0	16693	15250	156137	27376	952162	37711	106042	0	0	8147	784245	0	0
2024-04-23 06:56:32			0	33548	0	0	0	16701	15250	156093	27270	952196	37701	106045	0	0	8147	784347	0	0
2024-04-23 06:57:32			0	33557	0	0	0	16701	15270	156065	27274	952255	37703	106045	0	0	8147	783803	0	0
2024-04-23 06:58:32			0	33572	0	0	0	16703	15270	156029	27270	952221	37702	106046	0	0	8148	783039	0	0
2024-04-23 06:59:32			0	33564	0	0	0	16701	15270	155901	27029	952229	37703	106045	0	0	8148	783446	0	0
2024-04-23 07:00:32			0	33596	0	0	0	16709	15300	155990	27261	952340	37705	106048	0	0	8149	781690	0	0
2024-04-23 07:01:32			0	33582	0	0	0	16698	15300	155958	27618	952287	37705	106044	0	0	8149	782403	0	0
2024-04-23 07:02:32			0	33586	0	0	0	16703	15310	155910	27154	952304	37716	106046	0	0	8149	782157	0	0
2024-04-23 07:03:32			0	33589	0	0	0	16701	15300	155870	27445	952348	37716	106045	0	0	8149	782046	0	0
2024-04-23 07:04:32			0	33586	0	0	0	16706	15310	155710	27263	952312	37705	106047	0	0	8149	782157	0	0
2024-04-23 07:05:32			0	33595	0	0	0	16698	15300	155782	27071	952340	37705	106044	0	0	8150	781741	0	0
2024-04-23 07:06:32			0	33594	0	0	0	16711	15320	155766	27293	952373	37706	106049	0	0	8149	781708	0	0
2024-04-23 07:07:32			0	33625	0	0	0	16711	15320	155722	27017	952354	37717	106049	0	0	8151	780132	0	0
2024-04-23 07:08:32			0	33620	0	0	0	16706	15300	155794	27079	952322	37705	106047	0	0	8151	780470	0	0
2024-04-23 07:09:32			0	33619	0	0	0	16709	15320	155694	27371	952373	37716	106048	0	0	8151	780437	0	0
2024-04-23 07:10:32			0	33615	0	0	0	16706	15320	155706	27362	952354	37696	106047	0	0	8151	780640	0	0
2024-04-23 07:11:32			0	33634	0	0	0	16709	15330	155638	27360	952415	37707	106048	0	0	8152	779633	0	0
2024-04-23 07:12:32			0	33632	0	0	0	16698	15320	155590	27601	952381	37707	106044	0	0	8152	779776	0	0
2024-04-23 07:13:32			0	33627	0	0	0	16703	15330	155614	27121	952257	37707	106046	0	0	8152	779988	0	0
2024-04-23 07:14:32			0	33630	0	0	0	16701	15320	155634	27478	952328	37717	106045	0	0	8152	779878	0	0
2024-04-23 07:15:32			0	33642	0	0	0	16698	15320	155622	27457	952354	37707	106044	0	0	8152	779268	0	0
2024-04-23 07:16:32			0	33636	0	0	0	16703	15330	155606	27263	952397	37696	106046	0	0	8152	779531	0	0
2024-04-23 07:17:32			0	33641	0	0	0	16706	15330	155574	27476	952362	37707	106047	0	0	8152	779277	0	0
2024-04-23 07:18:32			0	33627	0	0	0	16698	15340	155538	27390	952405	37697	106044	0	0	8152	779946	0	0
2024-04-23 07:19:32			0	33655	0	0	0	16703	15330	155554	27156	952371	37685	106046	0	0	8153	778567	0	0
2024-04-23 07:20:32			0	33633	0	0	0	16690	15330	155450	27357	952389	37707	106041	0	0	8152	779683	0	0
2024-04-23 07:21:32			0	33654	0	0	0	16693	15330	155470	27137	952397	37707	106042	0	0	8153	778618	0	0
2024-04-23 07:22:32			0	33660	0	0	0	16693	15330	155586	27263	952362	37685	106042	0	0	8154	778313	0	0
2024-04-23 07:23:32			0	33658	0	0	0	16685	15330	155558	27211	952371	37696	106039	0	0	8154	778415	0	0
2024-04-23 07:24:32			0	33655	0	0	0	16693	15330	155374	27180	952344	37696	106042	0	0	8153	778567	0	0
2024-04-23 07:25:32			0	33644	0	0	0	16703	15330	155502	27157	952344	37707	106046	0	0	8153	779125	0	0
2024-04-23 07:26:32			0	33669	0	0	0	16690	15340	155382	27052	952360	37708	106041	0	0	8154	777815	0	0
2024-04-23 07:27:32			0	33644	0	0	0	16696	15330	155410	27531	952344	37707	106043	0	0	8153	779125	0	0
2024-04-23 07:28:32			0	33650	0	0	0	16706	15320	155406	26996	952320	37716	106047	0	0	8153	778862	0	0
2024-04-23 07:29:32			0	33661	0	0	0	16701	15330	155298	27400	952362	37707	106045	0	0	8154	778263	0	0
2024-04-23 07:30:32			0	33680	0	0	0	16696	15330	155350	27379	952336	37717	106043	0	0	8155	777300	0	0
2024-04-23 07:31:32			0	33676	0	0	0	16696	15330	155358	27218	952336	37717	106043	0	0	8155	777502	0	0
2024-04-23 07:32:32			0	33684	0	0	0	16693	15320	155290	27391	952373	37706	106042	0	0	8155	777139	0	0
2024-04-23 07:33:32			0	33678	0	0	0	16696	15320	155330	27170	952354	37696	106043	0	0	8155	777443	0	0
2024-04-23 07:34:32			0	33689	0	0	0	16698	15330	155278	27287	952336	37696	106044	0	0	8155	776844	0	0
2024-04-23 07:35:32			0	33684	0	0	0	16693	15340	155442	27303	952379	37708	106042	0	0	8155	777055	0	0
2024-04-23 07:36:32			0	33704	0	0	0	16696	15330	155438	27317	952336	37707	106043	0	0	8156	776085	0	0
2024-04-23 07:37:32			0	33685	0	0	0	16696	15330	155486	27140	952389	37717	106043	0	0	8155	777046	0	0
2024-04-23 07:38:32			0	33670	0	0	0	16696	15330	155322	27275	952310	37696	106043	0	0	8154	777806	0	0
2024-04-23 07:39:32			0	33687	0	0	0	16683	15330	155398	27206	952362	37707	106038	0	0	8155	776945	0	0
2024-04-23 07:40:32			0	33686	0	0	0	16680	15330	155334	27192	952284	37696	106037	0	0	8155	776996	0	0
2024-04-23 07:41:32			0	33678	0	0	0	16675	15330	155322	26970	952318	37707	106035	0	0	8155	777401	0	0
2024-04-23 07:42:32			0	33677	0	0	0	16654	15320	155502	27267	952328	37707	106027	0	0	8155	777493	0	0
2024-04-23 07:43:32			0	33674	0	0	0	16657	15320	155394	27308	952241	37706	106028	0	0	8155	777645	0	0
2024-04-23 07:44:32			0	33671	0	0	0	16657	15320	155478	27308	952241	37706	106028	0	0	8155	777797	0	0
2024-04-23 07:45:32			0	33685	0	0	0	16662	15300	155438	27092	952217	37694	106030	0	0	8156	777172	0	0
2024-04-23 07:46:32			0	33676	0	0	0	16659	15310	155430	27357	952233	37716	106029	0	0	8155	777586	0	0
2024-04-23 07:47:32			0	33667	0	0	0	16670	15310	155366	26979	952259	37705	106033	0	0	8154	778042	0	0
2024-04-23 07:48:32			0	33696	0	0	0	16662	15320	155322	27486	952294	37706	106030	0	0	8156	776531	0	0
2024-04-23 07:49:32			0	33703	0	0	0	16657	15310	155438	27260	952251	37716	106028	0	0	8157	776219	0	0
2024-04-23 07:50:32			0	33696	0	0	0	16651	15310	155310	27550	952251	37683	106026	0	0	8156	776573	0	0
2024-04-23 07:51:32			0	33693	0	0	0	16644	15310	155290	27261	952225	37694	106023	0	0	8156	776725	0	0
2024-04-23 07:52:32			0	33699	0	0	0	16649	15300	155390	27161	952182	37715	106025	0	0	8157	776463	0	0
2024-04-23 07:53:32			0	33704	0	0	0	16649	15290	155402	27454	952200	37704	106025	0	0	8157	776251	0	0
2024-04-23 07:54:32			0	33693	0	0	0	16644	15290	155478	27424	952253	37693	106023	0	0	8156	776808	0	0
2024-04-23 07:55:32			0	33710	0	0	0	16638	15300	155326	27239	952130	37682	106021	0	0	8157	775906	0	0
2024-04-23 07:56:32			0	33703	0	0	0	16633	15300	155394	27597	952182	37705	106019	0	0	8157	776260	0	0
2024-04-23 07:57:32			0	33689	0	0	0	16641	15280	155478	27374	952158	37703	106022	0	0	8156	777053	0	0
2024-04-23 07:58:32			0	33678	0	0	0	16631	15280	155414	27474	952113	37681	106018	0	0	8156	777610	0	0
2024-04-23 07:59:32			0	33679	0	0	0	16644	15290	155494	27381	952148	37682	106023	0	0	8155	777517	0	0
2024-04-23 08:00:32			0	33680	0	0	0	16644	15280	155374	27275	952140	37681	106023	0	0	8155	777508	0	0
2024-04-23 08:01:32			0	33679	0	0	0	16651	15280	155370	27322	952192	37703	106026	0	0	8155	777559	0	0
2024-04-23 08:02:32			0	33672	0	0	0	16605	15280	155494	27203	952105	37681	106008	0	0	8156	777914	0	0
2024-04-23 08:03:32			0	33687	0	0	0	16607	15260	155506	27317	952081	37701	106009	0	0	8156	777237	0	0
2024-04-23 08:04:32			0	33701	0	0	0	16610	15270	155426	27438	952097	37681	106010	0	0	8157	776487	0	0
2024-04-23 08:05:32			0	33675	0	0	0	16610	15260	155410	27315	952081	37690	106010	0	0	8156	777845	0	0
2024-04-23 08:06:32			0	33688	0	0	0	16636	15270	155482	27239	952045	37703	106020	0	0	8156	777145	0	0
2024-04-23 08:07:32			0	33678	0	0	0	16638	15260	155390	27601	952160	37690	106021	0	0	8155	777693	0	0
2024-04-23 08:08:32			0	33685	0	0	0	16638	15260	155486	27457	952134	37701	106021	0	0	8156	777339	0	0
2024-04-23 08:09:32			0	33679	0	0	0	16636	15270	155434	27357	952123	37692	106020	0	0	8155	777601	0	0
2024-04-23 08:10:32			0	33678	0	0	0	16623	15280	155470	27492	952132	37703	106015	0	0	8156	777610	0	0
2024-04-23 08:11:32			0	33715	0	0	0	16618	15270	155302	27431	952123	37703	106013	0	0	8158	775778	0	0
2024-04-23 08:12:32			0	33708	0	0	0	16618	15250	155342	27611	952083	37678	106013	0	0	8157	776216	0	0
2024-04-23 08:13:32			0	33714	0	0	0	16615	15270	155250	27306	952115	37691	106012	0	0	8158	775829	0	0
2024-04-23 08:14:32			0	33726	0	0	0	16607	15260	155186	27720	952073	37668	106009	0	0	8159	775264	0	0
2024-04-23 08:15:32			0	33727	0	0	0	16581	15250	155326	27334	952065	37679	105999	0	0	8159	775255	0	0
2024-04-23 08:16:32			0	33733	0	0	0	16574	15250	155266	27490	952004	37678	105996	0	0	8160	774951	0	0
2024-04-23 08:17:32			0	33723	0	0	0	16597	15250	155350	27315	952083	37678	106005	0	0	8159	775457	0	0
2024-04-23 08:18:32			0	33715	0	0	0	16589	15250	155322	27343	952004	37689	106002	0	0	8158	775862	0	0
2024-04-23 08:19:32			0	33715	0	0	0	16586	15230	155330	27263	952058	37700	106001	0	0	8158	775945	0	0
2024-04-23 08:20:32			0	33705	0	0	0	16576	15240	155318	27417	952014	37677	105997	0	0	8158	776409	0	0
2024-04-23 08:21:32			0	33692	0	0	0	16563	15230	155458	27152	951953	37689	105992	0	0	8157	777109	0	0
2024-04-23 08:22:32			0	33685	0	0	0	16568	15240	155466	27566	951961	37689	105994	0	0	8157	777422	0	0
2024-04-23 08:23:32			0	33671	0	0	0	16558	15230	155534	27265	951900	37677	105990	0	0	8156	778174	0	0
2024-04-23 08:24:32			0	33661	0	0	0	16524	15220	155594	27287	951858	37698	105977	0	0	8156	778723	0	0
2024-04-23 08:25:32			0	33636	0	0	0	16503	15220	155606	27350	951797	37675	105969	0	0	8155	779992	0	0
2024-04-23 08:26:32			0	33624	0	0	0	16485	15200	155722	27450	951799	37664	105962	0	0	8154	780686	0	0
2024-04-23 08:27:32			0	33608	0	0	0	16472	15190	155818	27467	951678	37673	105957	0	0	8154	781541	0	0
2024-04-23 08:28:32			0	33583	0	0	0	16462	15180	155886	27429	951627	37662	105953	0	0	8152	782857	0	0
2024-04-23 08:29:32			0	33572	0	0	0	16462	15180	155998	27274	951661	37662	105953	0	0	8152	783417	0	0
2024-04-23 08:30:32			0	33555	0	0	0	16475	15180	156157	27268	951574	37672	105958	0	0	8150	784284	0	0
2024-04-23 08:31:32			0	33549	0	0	0	16480	15160	156261	27315	951647	37670	105960	0	0	8150	784675	0	0
2024-04-23 08:32:32			0	33527	0	0	0	16480	15160	156261	27286	951603	37671	105960	0	0	8149	785799	0	0
2024-04-23 08:33:32			0	33523	0	0	0	16477	15160	156437	27537	951576	37671	105959	0	0	8148	786003	0	0
2024-04-23 08:34:32			0	33499	0	0	0	16488	15150	156337	27341	951578	37669	105963	0	0	8147	787273	0	0
2024-04-23 08:35:32			0	33490	0	0	0	16496	15160	156441	27279	951647	37692	105966	0	0	8146	787692	0	0
2024-04-23 08:36:32			0	33509	0	0	0	16498	15160	156457	27138	951621	37660	105967	0	0	8147	786719	0	0
2024-04-23 08:37:32			0	33504	0	0	0	16498	15150	156405	27270	951605	37669	105967	0	0	8147	787017	0	0
2024-04-23 08:38:32			0	33496	0	0	0	16498	15150	156293	27434	951605	37669	105967	0	0	8146	787427	0	0
2024-04-23 08:39:32			0	33488	0	0	0	16493	15150	156445	27396	951586	37669	105965	0	0	8146	787836	0	0
2024-04-23 08:40:32			0	33484	0	0	0	16490	15150	156465	27090	951639	37669	105964	0	0	8146	788041	0	0
2024-04-23 08:41:32			0	33478	0	0	0	16483	15150	156517	27102	951605	37669	105961	0	0	8146	788349	0	0
2024-04-23 08:42:32			0	33473	0	0	0	16485	15140	156525	27173	951544	37669	105962	0	0	8145	788648	0	0
2024-04-23 08:43:32			0	33481	0	0	0	16488	15130	156541	27124	951607	37667	105963	0	0	8146	788280	0	0
2024-04-23 08:44:32			0	33468	0	0	0	16485	15140	156645	27230	951623	37669	105962	0	0	8145	788904	0	0
2024-04-23 08:45:32			0	33465	0	0	0	16472	15150	156609	27239	951578	37659	105957	0	0	8145	789015	0	0
2024-04-23 08:46:32			0	33462	0	0	0	16464	15140	156661	27341	951588	37679	105954	0	0	8145	789211	0	0
2024-04-23 08:47:32			0	33463	0	0	0	16444	15140	156669	27429	951570	37680	105946	0	0	8145	789160	0	0
2024-04-23 08:48:32			0	33439	0	0	0	16444	15130	156717	27658	951519	37667	105946	0	0	8144	790434	0	0
2024-04-23 08:49:32			0	33430	0	0	0	16444	15120	156761	27587	951485	37667	105946	0	0	8143	790939	0	0
2024-04-23 08:50:32			0	33402	0	0	0	16451	15110	156781	27571	951442	37666	105949	0	0	8141	792422	0	0
2024-04-23 08:51:32			0	33415	0	0	0	16451	15110	156861	27157	951461	37666	105949	0	0	8142	791753	0	0
2024-04-23 08:52:32			0	33394	0	0	0	16446	15120	156885	27552	951503	37656	105947	0	0	8141	792791	0	0
2024-04-23 08:53:32			0	33397	0	0	0	16444	15110	156933	27371	951461	37656	105946	0	0	8141	792679	0	0
2024-04-23 08:54:32			0	33410	0	0	0	16441	15100	156857	27260	951444	37655	105945	0	0	8142	792053	0	0
2024-04-23 08:55:32			0	33418	0	0	0	16451	15110	156889	27625	951513	37677	105949	0	0	8142	791599	0	0
2024-04-23 08:56:32			0	33420	0	0	0	16451	15110	156773	27802	951461	37666	105949	0	0	8142	791496	0	0
2024-04-23 08:57:32			0	33434	0	0	0	16451	15110	156797	27483	951469	37666	105949	0	0	8143	790776	0	0
2024-04-23 08:58:32			0	33417	0	0	0	16459	15100	156833	27244	951471	37666	105952	0	0	8142	791692	0	0
2024-04-23 08:59:32			0	33435	0	0	0	16462	15100	156809	27699	951418	37666	105953	0	0	8143	790767	0	0
2024-04-23 09:00:32			0	33443	0	0	0	16472	15130	156857	27310	951519	37667	105957	0	0	8144	790229	0	0
2024-04-23 09:01:32			0	33447	0	0	0	16472	15100	156781	27331	951453	37666	105957	0	0	8144	790151	0	0
2024-04-23 09:02:32			0	33443	0	0	0	16472	15110	156593	27698	951487	37666	105957	0	0	8143	790314	0	0
2024-04-23 09:03:32			0	33463	0	0	0	16467	15110	156697	27474	951521	37666	105955	0	0	8145	789287	0	0
2024-04-23 09:04:32			0	33483	0	0	0	16462	15110	156625	27062	951469	37656	105953	0	0	8146	788262	0	0
2024-04-23 09:05:32			0	33474	0	0	0	16464	15100	156625	27353	951550	37666	105954	0	0	8145	788766	0	0
2024-04-23 09:06:32			0	33486	0	0	0	16457	15110	156597	27665	951461	37666	105951	0	0	8146	788108	0	0
2024-04-23 09:07:32			0	33474	0	0	0	16472	15100	156625	27438	951479	37656	105957	0	0	8145	788766	0	0
2024-04-23 09:08:32			0	33484	0	0	0	16483	15100	156625	27298	951531	37666	105961	0	0	8146	788253	0	0
2024-04-23 09:09:32			0	33468	0	0	0	16490	15110	156637	27755	951495	37688	105964	0	0	8145	789031	0	0
2024-04-23 09:10:32			0	33473	0	0	0	16498	15100	156593	27242	951531	37677	105967	0	0	8145	788817	0	0
2024-04-23 09:11:32			0	33497	0	0	0	16501	15120	156481	27279	951590	37678	105968	0	0	8146	787502	0	0
2024-04-23 09:12:32			0	33506	0	0	0	16498	15120	156417	27372	951582	37667	105967	0	0	8147	787042	0	0
2024-04-23 09:13:32			0	33523	0	0	0	16488	15130	156329	27149	951625	37678	105963	0	0	8148	786130	0	0
2024-04-23 09:14:32			0	33519	0	0	0	16496	15130	156397	27256	951703	37657	105966	0	0	8148	786334	0	0
2024-04-23 09:15:32			0	33545	0	0	0	16498	15120	156341	27246	951669	37678	105967	0	0	8149	785048	0	0
2024-04-23 09:16:32			0	33540	0	0	0	16498	15130	156285	27616	951598	37667	105967	0	0	8149	785261	0	0
2024-04-23 09:17:32			0	33546	0	0	0	16496	15130	156321	27317	951607	37690	105966	0	0	8149	784955	0	0
2024-04-23 09:18:32			0	33543	0	0	0	16498	15140	156285	27478	951588	37679	105967	0	0	8149	785066	0	0
2024-04-23 09:19:32			0	33538	0	0	0	16498	15120	156289	27473	951564	37690	105967	0	0	8149	785405	0	0
2024-04-23 09:20:32			0	33540	0	0	0	16496	15130	156301	27324	951607	37667	105966	0	0	8149	785261	0	0
2024-04-23 09:21:32			0	33544	0	0	0	16498	15120	156333	27293	951590	37667	105967	0	0	8149	785099	0	0
2024-04-23 09:22:32			0	33571	0	0	0	16493	15130	156253	27260	951607	37701	105965	0	0	8151	783679	0	0
2024-04-23 09:23:32			0	33563	0	0	0	16490	15130	156225	27265	951607	37657	105964	0	0	8150	784087	0	0
2024-04-23 09:24:32			0	33582	0	0	0	16503	15140	156218	27339	951588	37658	105969	0	0	8151	783076	0	0
2024-04-23 09:25:32			0	33568	0	0	0	16501	15140	156218	27410	951641	37690	105968	0	0	8151	783790	0	0
2024-04-23 09:26:32			0	33590	0	0	0	16503	15130	156174	27609	951633	37657	105969	0	0	8152	782710	0	0
2024-04-23 09:27:32			0	33596	0	0	0	16503	15130	156118	27235	951607	37690	105969	0	0	8152	782404	0	0
2024-04-23 09:28:32			0	33604	0	0	0	16503	15140	156106	27415	951615	37668	105969	0	0	8153	781955	0	0
2024-04-23 09:29:32			0	33595	0	0	0	16511	15130	156042	27270	951712	37667	105972	0	0	8152	782455	0	0
2024-04-23 09:30:32			0	33586	0	0	0	16506	15140	156130	27473	951597	37669	105970	0	0	8152	782872	0	0
2024-04-23 09:31:32			0	33608	0	0	0	16522	15150	156090	27748	951657	37691	105976	0	0	8153	781709	0	0
2024-04-23 09:32:32			0	33614	0	0	0	16514	15140	156038	27646	951623	37669	105973	0	0	8153	781446	0	0
2024-04-23 09:33:32			0	33615	0	0	0	16514	15140	156098	27270	951728	37691	105973	0	0	8153	781395	0	0
2024-04-23 09:34:32			0	33596	0	0	0	16516	15140	156106	27665	951649	37669	105974	0	0	8152	782362	0	0
2024-04-23 09:35:32			0	33629	0	0	0	16522	15150	155934	27476	951797	37669	105976	0	0	8154	780641	0	0
2024-04-23 09:36:32			0	33624	0	0	0	16506	15140	156054	27147	951649	37659	105970	0	0	8154	780937	0	0
2024-04-23 09:37:32			0	33627	0	0	0	16509	15140	156062	27654	951675	37659	105971	0	0	8154	780785	0	0
2024-04-23 09:38:32			0	33622	0	0	0	16514	15150	155958	27189	951797	37680	105973	0	0	8154	780997	0	0
2024-04-23 09:39:32			0	33647	0	0	0	16522	15150	155938	27791	951736	37669	105976	0	0	8155	779726	0	0
2024-04-23 09:40:32			0	33645	0	0	0	16527	15160	155786	27371	951726	37660	105978	0	0	8155	779786	0	0
2024-04-23 09:41:32			0	33651	0	0	0	16522	15150	155942	27175	951684	37659	105976	0	0	8155	779523	0	0
2024-04-23 09:42:32			0	33648	0	0	0	16524	15150	155842	27424	951763	37680	105977	0	0	8155	779676	0	0
2024-04-23 09:43:32			0	33648	0	0	0	16522	15160	155818	27351	951700	37670	105976	0	0	8155	779634	0	0
2024-04-23 09:44:32			0	33667	0	0	0	16519	15150	155918	27518	951744	37659	105975	0	0	8156	778711	0	0
2024-04-23 09:45:32			0	33648	0	0	0	16516	15160	155718	27197	951752	37670	105974	0	0	8155	779634	0	0
2024-04-23 09:46:32			0	33646	0	0	0	16522	15150	155766	27348	951789	37669	105976	0	0	8155	779777	0	0
2024-04-23 09:47:32			0	33679	0	0	0	16527	15150	155690	27443	951692	37669	105978	0	0	8157	778102	0	0
2024-04-23 09:48:32			0	33666	0	0	0	16527	15160	155726	27587	951787	37682	105978	0	0	8156	778720	0	0
2024-04-23 09:49:32			0	33670	0	0	0	16524	15160	155770	27580	951779	37681	105977	0	0	8156	778517	0	0
2024-04-23 09:50:32			0	33673	0	0	0	16514	15150	155726	27358	951692	37669	105973	0	0	8157	778407	0	0
2024-04-23 09:51:32			0	33675	0	0	0	16524	15160	155722	27483	951708	37671	105977	0	0	8157	778263	0	0
2024-04-23 09:52:32			0	33673	0	0	0	16529	15160	155666	27478	951761	37693	105979	0	0	8156	778365	0	0
2024-04-23 09:53:32			0	33681	0	0	0	16529	15160	155642	27628	951805	37670	105979	0	0	8157	777959	0	0
2024-04-23 09:54:32			0	33698	0	0	0	16527	15160	155630	27282	951682	37682	105978	0	0	8158	777098	0	0
2024-04-23 09:55:32			0	33690	0	0	0	16537	15170	155614	27460	951803	37672	105982	0	0	8157	777461	0	0
2024-04-23 09:56:32			0	33692	0	0	0	16535	15160	155602	27549	951787	37682	105981	0	0	8157	777401	0	0
2024-04-23 09:57:32			0	33705	0	0	0	16542	15170	155518	27429	951795	37683	105984	0	0	8158	776701	0	0
2024-04-23 09:58:32			0	33700	0	0	0	16540	15170	155594	27767	951795	37672	105983	0	0	8158	776955	0	0
2024-04-23 09:59:32			0	33716	0	0	0	16542	15160	155610	27357	951787	37693	105984	0	0	8159	776186	0	0
2024-04-23 10:00:32			0	33721	0	0	0	16540	15180	155514	27312	951811	37672	105983	0	0	8159	775850	0	0
2024-04-23 10:01:32			0	33710	0	0	0	16548	15170	155518	27725	951769	37672	105986	0	0	8158	776448	0	0
2024-04-23 10:02:32			0	33708	0	0	0	16548	15170	155558	27547	951848	37694	105986	0	0	8158	776549	0	0
2024-04-23 10:03:32			0	33736	0	0	0	16553	15170	155450	27566	951777	37672	105988	0	0	8160	775133	0	0
2024-04-23 10:04:32			0	33714	0	0	0	16550	15180	155474	27355	951890	37683	105987	0	0	8159	776204	0	0
2024-04-23 10:05:32			0	33715	0	0	0	16555	15170	155506	27524	951882	37683	105989	0	0	8158	776195	0	0
2024-04-23 10:06:32			0	33721	0	0	0	16548	15180	155490	27524	951864	37683	105986	0	0	8159	775850	0	0
2024-04-23 10:07:32			0	33732	0	0	0	16561	15180	155538	27407	951898	37684	105991	0	0	8159	775294	0	0
2024-04-23 10:08:32			0	33730	0	0	0	16553	15180	155498	27953	951916	37683	105988	0	0	8159	775395	0	0
2024-04-23 10:09:32			0	33733	0	0	0	16555	15180	155402	27393	951898	37695	105989	0	0	8160	775243	0	0
2024-04-23 10:10:32			0	33733	0	0	0	16566	15190	155474	27770	951827	37707	105993	0	0	8159	775201	0	0
2024-04-23 10:11:32			0	33736	0	0	0	16555	15180	155454	27737	951846	37672	105989	0	0	8160	775091	0	0
2024-04-23 10:12:32			0	33735	0	0	0	16568	15180	155374	27305	951951	37672	105994	0	0	8160	775142	0	0
2024-04-23 10:13:32			0	33729	0	0	0	16561	15180	155422	27334	951846	37684	105991	0	0	8159	775445	0	0
2024-04-23 10:14:32			0	33743	0	0	0	16563	15180	155406	27383	951916	37672	105992	0	0	8160	774738	0	0
2024-04-23 10:15:32			0	33732	0	0	0	16566	15190	155434	27831	951933	37684	105993	0	0	8159	775252	0	0
2024-04-23 10:16:32			0	33730	0	0	0	16571	15200	155474	27533	951896	37684	105995	0	0	8159	775312	0	0
2024-04-23 10:17:32			0	33723	0	0	0	16579	15190	155594	27371	951941	37673	105998	0	0	8159	775707	0	0
2024-04-23 10:18:32			0	33728	0	0	0	16574	15200	155578	27274	951931	37674	105996	0	0	8159	775413	0	0
2024-04-23 10:19:32			0	33711	0	0	0	16566	15200	155462	27242	951957	37696	105993	0	0	8158	776273	0	0
2024-04-23 10:20:32			0	33716	0	0	0	16568	15200	155526	27623	951957	37707	105994	0	0	8158	776020	0	0
2024-04-23 10:21:32			0	33707	0	0	0	16576	15200	155534	27519	951983	37685	105997	0	0	8158	776475	0	0
2024-04-23 10:22:32			0	33719	0	0	0	16568	15190	155502	27640	951914	37684	105994	0	0	8159	775909	0	0
2024-04-23 10:23:32			0	33716	0	0	0	16574	15200	155494	27576	952036	37685	105996	0	0	8158	776020	0	0
2024-04-23 10:24:32			0	33709	0	0	0	16574	15200	155470	27694	951957	37707	105996	0	0	8158	776374	0	0
2024-04-23 10:25:32			0	33725	0	0	0	16576	15210	155614	27450	952000	37697	105997	0	0	8159	775523	0	0
2024-04-23 10:26:32			0	33716	0	0	0	16571	15210	155538	27594	951973	37708	105995	0	0	8158	775978	0	0
2024-04-23 10:27:32			0	33710	0	0	0	16576	15210	155502	27835	951965	37675	105997	0	0	8158	776281	0	0
2024-04-23 10:28:32			0	33718	0	0	0	16579	15210	155558	27417	952052	37697	105998	0	0	8158	775877	0	0
2024-04-23 10:29:32			0	33723	0	0	0	16576	15210	155546	27343	951965	37675	105997	0	0	8159	775624	0	0
2024-04-23 10:30:32			0	33718	0	0	0	16576	15220	155622	27466	952008	37686	105997	0	0	8159	775835	0	0
2024-04-23 10:31:32			0	33709	0	0	0	16571	15210	155474	27308	952026	37675	105995	0	0	8158	776332	0	0
2024-04-23 10:32:32			0	33726	0	0	0	16576	15200	155466	27540	951931	37696	105997	0	0	8159	775514	0	0
2024-04-23 10:33:32			0	33712	0	0	0	16589	15210	155502	27627	952000	37697	106002	0	0	8158	776180	0	0
2024-04-23 10:34:32			0	33724	0	0	0	16579	15210	155438	27632	951973	37686	105998	0	0	8159	775573	0	0
2024-04-23 10:35:32			0	33713	0	0	0	16584	15230	155638	27784	952024	37699	106000	0	0	8158	776046	0	0
2024-04-23 10:36:32			0	33720	0	0	0	16586	15230	155514	27755	951998	37699	106001	0	0	8159	775692	0	0
2024-04-23 10:37:32			0	33729	0	0	0	16589	15210	155558	27807	952000	37686	106002	0	0	8159	775320	0	0
2024-04-23 10:38:32			0	33730	0	0	0	16589	15220	155562	27500	952008	37686	106002	0	0	8159	775228	0	0
2024-04-23 10:39:32			0	33708	0	0	0	16594	15210	155486	27350	952052	37697	106004	0	0	8158	776383	0	0
2024-04-23 10:40:32			0	33708	0	0	0	16589	15210	155486	27246	952026	37697	106002	0	0	8158	776383	0	0
2024-04-23 10:41:32			0	33718	0	0	0	16586	15220	155478	27438	952016	37708	106001	0	0	8158	775835	0	0
2024-04-23 10:42:32			0	33737	0	0	0	16579	15220	155466	27450	952042	37676	105998	0	0	8160	774874	0	0
2024-04-23 10:43:32			0	33724	0	0	0	16586	15220	155498	27296	952008	37697	106001	0	0	8159	775532	0	0
2024-04-23 10:44:32			0	33708	0	0	0	16586	15230	155478	27602	952076	37677	106001	0	0	8158	776299	0	0
2024-04-23 10:45:32			0	33733	0	0	0	16581	15220	155438	27684	952016	37676	105999	0	0	8159	775076	0	0
2024-04-23 10:46:32			0	33749	0	0	0	16589	15220	155418	27443	952068	37687	106002	0	0	8160	774268	0	0
2024-04-23 10:47:32			0	33763	0	0	0	16586	15220	155414	27312	951963	37687	106001	0	0	8161	773561	0	0
2024-04-23 10:48:32			0	33772	0	0	0	16584	15220	155418	27757	952060	37686	106000	0	0	8162	773107	0	0
2024-04-23 10:49:32			0	33767	0	0	0	16592	15220	155354	27391	952034	37697	106003	0	0	8161	773360	0	0
2024-04-23 10:50:32			0	33781	0	0	0	16586	15230	155334	27576	952050	37699	106001	0	0	8162	772612	0	0
2024-04-23 10:51:32			0	33776	0	0	0	16589	15220	155318	27460	952068	37698	106002	0	0	8162	772905	0	0
2024-04-23 10:52:32			0	33755	0	0	0	16592	15220	155286	27298	952008	37697	106003	0	0	8160	773965	0	0
2024-04-23 10:53:32			0	33769	0	0	0	16597	15230	155278	27582	952076	37699	106005	0	0	8161	773217	0	0
2024-04-23 10:54:32			0	33792	0	0	0	16594	15230	155198	27447	952032	37700	106004	0	0	8163	772057	0	0
2024-04-23 10:55:32			0	33783	0	0	0	16597	15220	155198	27414	952042	37698	106005	0	0	8162	772552	0	0
2024-04-23 10:56:32			0	33797	0	0	0	16594	15220	155222	27428	952060	37675	106004	0	0	8163	771847	0	0
2024-04-23 10:57:32			0	33796	0	0	0	16597	15230	155134	27601	952032	37689	106005	0	0	8163	771856	0	0
2024-04-23 10:58:32			0	33774	0	0	0	16599	15230	155130	27301	952058	37700	106006	0	0	8162	772965	0	0
2024-04-23 10:59:32			0	33794	0	0	0	16597	15220	155122	27409	952034	37697	106005	0	0	8163	771998	0	0
2024-04-23 11:00:32			0	33804	0	0	0	16597	15220	155138	27403	952095	37687	106005	0	0	8163	771494	0	0
2024-04-23 11:01:32			0	33802	0	0	0	16599	15220	155126	27443	952042	37708	106006	0	0	8163	771595	0	0
2024-04-23 11:02:32			0	33805	0	0	0	16586	15230	155174	27751	952032	37689	106001	0	0	8164	771402	0	0
2024-04-23 11:03:32			0	33792	0	0	0	16594	15220	155102	27543	952034	37675	106004	0	0	8163	772099	0	0
2024-04-23 11:04:32			0	33807	0	0	0	16592	15230	155054	27543	952085	37700	106003	0	0	8164	771302	0	0
2024-04-23 11:05:32			0	33821	0	0	0	16584	15230	155114	27878	952058	37700	106000	0	0	8165	770597	0	0
2024-04-23 11:06:32			0	33818	0	0	0	16589	15230	155030	27578	952058	37700	106002	0	0	8164	770748	0	0
2024-04-23 11:07:32			0	33825	0	0	0	16592	15230	155042	27241	952050	37709	106003	0	0	8165	770396	0	0
2024-04-23 11:08:32			0	33830	0	0	0	16586	15230	154962	27377	952076	37677	106001	0	0	8165	770144	0	0
2024-04-23 11:09:32			0	33813	0	0	0	16592	15230	154998	27355	952103	37677	106003	0	0	8164	771000	0	0
2024-04-23 11:10:32			0	33842	0	0	0	16594	15230	154906	27490	952050	37709	106004	0	0	8166	769541	0	0
2024-04-23 11:11:32			0	33850	0	0	0	16602	15230	154938	27371	952103	37709	106007	0	0	8166	769139	0	0
2024-04-23 11:12:32			0	33850	0	0	0	16602	15240	154870	27741	952093	37689	106007	0	0	8166	769098	0	0
2024-04-23 11:13:32			0	33830	0	0	0	16602	15240	154982	27633	952093	37700	106007	0	0	8165	770103	0	0
2024-04-23 11:14:32			0	33845	0	0	0	16602	15220	154874	27751	952042	37698	106007	0	0	8166	769432	0	0
2024-04-23 11:15:32			0	33836	0	0	0	16602	15230	155014	27298	952058	37700	106007	0	0	8165	769843	0	0
2024-04-23 11:16:32			0	33844	0	0	0	16597	15230	154970	27526	952085	37700	106005	0	0	8166	769441	0	0
2024-04-23 11:17:32			0	33848	0	0	0	16605	15220	155042	27713	952068	37698	106008	0	0	8166	769281	0	0
2024-04-23 11:18:32			0	33862	0	0	0	16599	15220	154910	27592	952042	37698	106006	0	0	8167	768578	0	0
2024-04-23 11:19:32			0	33846	0	0	0	16605	15230	155062	27303	952050	37699	106008	0	0	8166	769340	0	0
2024-04-23 11:20:32			0	33850	0	0	0	16599	15230	154962	27583	952085	37700	106006	0	0	8166	769139	0	0
2024-04-23 11:21:32			0	33863	0	0	0	16610	15230	154930	27717	952050	37699	106010	0	0	8167	768486	0	0
2024-04-23 11:22:32			0	33857	0	0	0	16605	15240	155014	27678	952093	37710	106008	0	0	8166	768746	0	0
2024-04-23 11:23:32			0	33861	0	0	0	16605	15230	154894	27653	952103	37709	106008	0	0	8167	768587	0	0
2024-04-23 11:24:32			0	33866	0	0	0	16607	15240	154938	27346	952093	37700	106009	0	0	8167	768294	0	0
2024-04-23 11:25:32			0	33864	0	0	0	16602	15230	154962	27979	952076	37699	106007	0	0	8167	768436	0	0
2024-04-23 11:26:32			0	33851	0	0	0	16610	15240	154994	27435	952093	37700	106010	0	0	8166	769048	0	0
2024-04-23 11:27:32			0	33879	0	0	0	16605	15240	155026	27426	952040	37700	106008	0	0	8168	767642	0	0
2024-04-23 11:28:32			0	33848	0	0	0	16607	15250	154930	27474	952162	37689	106009	0	0	8166	769157	0	0
2024-04-23 11:29:32			0	33872	0	0	0	16602	15240	154898	27668	952093	37677	106007	0	0	8167	767993	0	0
2024-04-23 11:30:32			0	33838	0	0	0	16610	15230	154938	27783	952076	37709	106010	0	0	8165	769742	0	0
2024-04-23 11:31:32			0	33875	0	0	0	16594	15240	154822	27633	952040	37700	106004	0	0	8168	767843	0	0
2024-04-23 11:32:32			0	33857	0	0	0	16605	15240	154802	27462	952153	37700	106008	0	0	8166	768746	0	0
2024-04-23 11:33:32			0	33876	0	0	0	16594	15250	154906	27367	952056	37711	106004	0	0	8168	767751	0	0
2024-04-23 11:34:32			0	33859	0	0	0	16599	15230	154866	27109	952085	37689	106006	0	0	8167	768687	0	0
2024-04-23 11:35:32			0	33849	0	0	0	16607	15220	154802	27196	952095	37698	106009	0	0	8166	769231	0	0
2024-04-23 11:36:32			0	33863	0	0	0	16594	15230	154782	27737	952058	37700	106004	0	0	8167	768486	0	0
2024-04-23 11:37:32			0	33849	0	0	0	16599	15240	154890	27367	952093	37700	106006	0	0	8166	769148	0	0
2024-04-23 11:38:32			0	33863	0	0	0	16599	15240	154806	27731	952040	37710	106006	0	0	8167	768445	0	0
2024-04-23 11:39:32			0	33859	0	0	0	16602	15240	154874	27568	952119	37700	106007	0	0	8167	768646	0	0
2024-04-23 11:40:32			0	33864	0	0	0	16597	15250	154806	27514	952135	37700	106005	0	0	8167	768354	0	0
2024-04-23 11:41:32			0	33861	0	0	0	16597	15250	154886	27765	952056	37711	106005	0	0	8167	768504	0	0
2024-04-23 11:42:32			0	33852	0	0	0	16615	15240	154862	27478	952127	37700	106012	0	0	8166	768997	0	0
2024-04-23 11:43:32			0	33860	0	0	0	16605	15250	154878	27585	952135	37700	106008	0	0	8167	768554	0	0
2024-04-23 11:44:32			0	33862	0	0	0	16605	15240	154906	27518	952101	37700	106008	0	0	8167	768495	0	0
2024-04-23 11:45:32			0	33858	0	0	0	16610	15240	154958	27538	952101	37700	106010	0	0	8166	768696	0	0
2024-04-23 11:46:32			0	33857	0	0	0	16607	15240	154922	27751	952048	37700	106009	0	0	8166	768746	0	0
2024-04-23 11:47:32			0	33862	0	0	0	16605	15240	154986	27703	952093	37700	106008	0	0	8167	768495	0	0
2024-04-23 11:48:32			0	33858	0	0	0	16610	15240	154910	27455	952119	37700	106010	0	0	8166	768696	0	0
2024-04-23 11:49:32			0	33857	0	0	0	16605	15240	154954	27628	952127	37700	106008	0	0	8166	768746	0	0
2024-04-23 11:50:32			0	33860	0	0	0	16607	15240	154842	27578	952153	37677	106009	0	0	8166	768596	0	0
2024-04-23 11:51:32			0	33859	0	0	0	16607	15250	154958	27753	952135	37711	106009	0	0	8166	768604	0	0
2024-04-23 11:52:32			0	33880	0	0	0	16599	15240	154954	27704	952119	37710	106006	0	0	8168	767592	0	0
2024-04-23 11:53:32			0	33863	0	0	0	16599	15240	154958	27871	952127	37677	106006	0	0	8167	768445	0	0
2024-04-23 11:54:32			0	33860	0	0	0	16607	15240	154950	27757	952153	37710	106009	0	0	8166	768596	0	0
2024-04-23 11:55:32			0	33858	0	0	0	16602	15230	154886	27625	952163	37710	106007	0	0	8166	768737	0	0
2024-04-23 11:56:32			0	33861	0	0	0	16610	15240	154878	27769	952066	37710	106010	0	0	8166	768545	0	0
2024-04-23 11:57:32			0	33862	0	0	0	16602	15240	154882	27717	952153	37689	106007	0	0	8167	768495	0	0
2024-04-23 11:58:32			0	33853	0	0	0	16605	15240	154982	27762	952074	37710	106008	0	0	8166	768947	0	0
2024-04-23 11:59:32			0	33852	0	0	0	16605	15240	155026	27651	952101	37700	106008	0	0	8166	768997	0	0
2024-04-23 12:00:32			0	33851	0	0	0	16594	15250	154942	27360	952170	37701	106004	0	0	8166	769006	0	0
2024-04-23 12:01:32			0	33843	0	0	0	16594	15240	154902	27414	952101	37700	106004	0	0	8166	769450	0	0
2024-04-23 12:02:32			0	33846	0	0	0	16589	15240	154850	27485	952066	37710	106002	0	0	8166	769299	0	0
2024-04-23 12:03:32			0	33866	0	0	0	16594	15240	154774	27518	952074	37710	106004	0	0	8167	768294	0	0
2024-04-23 12:04:32			0	33872	0	0	0	16594	15240	154994	27486	952119	37710	106004	0	0	8167	767993	0	0
2024-04-23 12:05:32			0	33861	0	0	0	16594	15240	154938	27388	952101	37710	106004	0	0	8167	768545	0	0
2024-04-23 12:06:32			0	33855	0	0	0	16592	15240	154846	27303	952127	37721	106003	0	0	8166	768847	0	0
2024-04-23 12:07:32			0	33852	0	0	0	16602	15240	154838	27350	952022	37700	106007	0	0	8166	768997	0	0
2024-04-23 12:08:32			0	33863	0	0	0	16592	15230	154846	27114	952032	37700	106003	0	0	8167	768486	0	0
2024-04-23 12:09:32			0	33870	0	0	0	16599	15240	154882	27377	952145	37700	106006	0	0	8167	768094	0	0
2024-04-23 12:10:32			0	33861	0	0	0	16594	15240	154834	27481	952101	37689	106004	0	0	8167	768545	0	0
2024-04-23 12:11:32			0	33871	0	0	0	16602	15250	154846	27326	952109	37700	106007	0	0	8167	768002	0	0
2024-04-23 12:12:32			0	33888	0	0	0	16599	15230	154802	27300	952058	37700	106006	0	0	8168	767232	0	0
2024-04-23 12:13:32			0	33860	0	0	0	16599	15230	154782	27230	952085	37700	106006	0	0	8167	768637	0	0
2024-04-23 12:14:32			0	33880	0	0	0	16594	15230	154802	27490	952058	37700	106004	0	0	8168	767633	0	0
2024-04-23 12:15:32			0	33861	0	0	0	16594	15240	154870	27289	952093	37700	106004	0	0	8167	768545	0	0
2024-04-23 12:16:32			0	33872	0	0	0	16597	15230	154874	27474	952111	37700	106005	0	0	8167	768035	0	0
2024-04-23 12:17:32			0	33866	0	0	0	16594	15230	154902	27310	952085	37700	106004	0	0	8167	768336	0	0
2024-04-23 12:18:32			0	33851	0	0	0	16599	15240	154834	27471	952093	37700	106006	0	0	8166	769048	0	0
2024-04-23 12:19:32			0	33873	0	0	0	16607	15240	154922	27234	952119	37700	106009	0	0	8167	767943	0	0
2024-04-23 12:20:32			0	33895	0	0	0	16599	15240	154950	27632	952074	37677	106006	0	0	8169	766840	0	0
2024-04-23 12:21:32			0	33880	0	0	0	16597	15240	154874	27462	952153	37689	106005	0	0	8168	767592	0	0
2024-04-23 12:22:32			0	33875	0	0	0	16597	15240	155018	27866	952127	37677	106005	0	0	8168	767843	0	0
2024-04-23 12:23:32			0	33868	0	0	0	16605	15240	154938	27694	952119	37700	106008	0	0	8167	768194	0	0
2024-04-23 12:24:32			0	33883	0	0	0	16602	15250	154906	27353	952056	37700	106007	0	0	8168	767400	0	0
2024-04-23 12:25:32			0	33868	0	0	0	16605	15240	154850	27533	952145	37689	106008	0	0	8167	768194	0	0
2024-04-23 12:26:32			0	33853	0	0	0	16605	15230	154918	27569	952085	37700	106008	0	0	8166	768988	0	0
2024-04-23 12:27:32			0	33871	0	0	0	16599	15240	154862	27668	952119	37710	106006	0	0	8167	768044	0	0
2024-04-23 12:28:32			0	33873	0	0	0	16610	15240	154862	27762	952127	37700	106010	0	0	8167	767943	0	0
2024-04-23 12:29:32			0	33867	0	0	0	16612	15240	154910	27675	952153	37710	106011	0	0	8167	768244	0	0
2024-04-23 12:30:32			0	33862	0	0	0	16612	15240	154958	27485	952145	37710	106011	0	0	8167	768495	0	0
2024-04-23 12:31:32			0	33872	0	0	0	16612	15240	154890	27528	952153	37689	106011	0	0	8167	767993	0	0
2024-04-23 12:32:32			0	33885	0	0	0	16610	15240	154918	27597	952153	37689	106010	0	0	8168	767341	0	0
2024-04-23 12:33:32			0	33865	0	0	0	16612	15250	154926	27277	952109	37689	106011	0	0	8167	768303	0	0
2024-04-23 12:34:32			0	33875	0	0	0	16623	15240	154854	27665	952127	37700	106015	0	0	8167	767843	0	0
2024-04-23 12:35:32			0	33851	0	0	0	16623	15250	154930	27732	952188	37700	106015	0	0	8166	769006	0	0
2024-04-23 12:36:32			0	33876	0	0	0	16610	15240	154870	27571	952145	37700	106010	0	0	8167	767793	0	0
2024-04-23 12:37:32			0	33870	0	0	0	16612	15250	154886	27635	952162	37700	106011	0	0	8167	768052	0	0
2024-04-23 12:38:32			0	33870	0	0	0	16610	15250	154842	27512	952135	37711	106010	0	0	8167	768052	0	0
2024-04-23 12:39:32			0	33883	0	0	0	16607	15250	154774	27391	952170	37711	106009	0	0	8168	767400	0	0
2024-04-23 12:40:32			0	33875	0	0	0	16610	15240	154830	27604	952127	37700	106010	0	0	8167	767843	0	0
2024-04-23 12:41:32			0	33879	0	0	0	16618	15250	154794	27848	952162	37700	106013	0	0	8167	767601	0	0
2024-04-23 12:42:32			0	33874	0	0	0	16610	15240	154870	27798	952206	37700	106010	0	0	8167	767893	0	0
2024-04-23 12:43:32			0	33859	0	0	0	16612	15250	154846	27965	952144	37711	106011	0	0	8166	768604	0	0
2024-04-23 12:44:32			0	33878	0	0	0	16610	15250	154802	27822	952162	37711	106010	0	0	8168	767651	0	0
2024-04-23 12:45:32			0	33881	0	0	0	16610	15240	154838	27383	952180	37710	106010	0	0	8168	767542	0	0
2024-04-23 12:46:32			0	33887	0	0	0	16620	15240	154958	27741	952153	37689	106014	0	0	8168	767241	0	0
2024-04-23 12:47:32			0	33865	0	0	0	16610	15250	154906	27715	952188	37700	106010	0	0	8167	768303	0	0
2024-04-23 12:48:32			0	33882	0	0	0	16605	15250	154886	27821	952135	37700	106008	0	0	8168	767451	0	0
2024-04-23 12:49:32			0	33870	0	0	0	16607	15250	154906	27767	952170	37723	106009	0	0	8167	768052	0	0
2024-04-23 12:50:32			0	33901	0	0	0	16607	15240	154890	27708	952153	37710	106009	0	0	8169	766539	0	0
2024-04-23 12:51:32			0	33873	0	0	0	16605	15240	154806	27921	952198	37700	106008	0	0	8167	767943	0	0
2024-04-23 12:52:32			0	33869	0	0	0	16605	15250	154906	27405	952162	37711	106008	0	0	8167	768103	0	0
2024-04-23 12:53:32			0	33894	0	0	0	16612	15250	154966	27175	952135	37700	106011	0	0	8168	766849	0	0
2024-04-23 12:54:32			0	33885	0	0	0	16594	15240	154902	27396	952180	37710	106004	0	0	8168	767341	0	0
2024-04-23 12:55:32			0	33886	0	0	0	16592	15250	154918	27696	952170	37701	106003	0	0	8168	767250	0	0
2024-04-23 12:56:32			0	33880	0	0	0	16597	15240	154830	27665	952127	37700	106005	0	0	8168	767592	0	0
2024-04-23 12:57:32			0	33879	0	0	0	16602	15240	154886	27275	952127	37710	106007	0	0	8168	767642	0	0
2024-04-23 12:58:32			0	33887	0	0	0	16607	15240	154862	27367	952153	37700	106009	0	0	8168	767241	0	0
2024-04-23 12:59:32			0	33896	0	0	0	16610	15240	154894	27410	952206	37710	106010	0	0	8169	766790	0	0
2024-04-23 13:00:32			0	33888	0	0	0	16620	15250	154834	27561	952162	37711	106014	0	0	8168	767150	0	0
2024-04-23 13:01:32			0	33872	0	0	0	16612	15250	154786	27369	952188	37700	106011	0	0	8167	767952	0	0
2024-04-23 13:02:32			0	33889	0	0	0	16618	15250	154830	27751	952162	37711	106013	0	0	8168	767099	0	0
2024-04-23 13:03:32			0	33893	0	0	0	16618	15250	154806	27353	952240	37722	106013	0	0	8168	766899	0	0
2024-04-23 13:04:32			0	33899	0	0	0	16618	15250	154810	27722	952196	37701	106013	0	0	8169	766598	0	0
2024-04-23 13:05:32			0	33886	0	0	0	16612	15250	154754	27296	952223	37711	106011	0	0	8168	767250	0	0
2024-04-23 13:06:32			0	33893	0	0	0	16612	15250	154794	27348	952188	37711	106011	0	0	8168	766899	0	0
2024-04-23 13:07:32			0	33896	0	0	0	16612	15260	154782	27485	952204	37701	106011	0	0	8169	766708	0	0
2024-04-23 13:08:32			0	33894	0	0	0	16615	15260	154778	27597	952186	37701	106012	0	0	8168	766808	0	0
2024-04-23 13:09:32			0	33880	0	0	0	16612	15250	154842	27481	952170	37701	106011	0	0	8168	767551	0	0
2024-04-23 13:10:32			0	33890	0	0	0	16612	15250	154810	27521	952144	37701	106011	0	0	8168	767049	0	0
2024-04-23 13:11:32			0	33914	0	0	0	16602	15240	154894	27514	952180	37710	106007	0	0	8170	765888	0	0
2024-04-23 13:12:32			0	33908	0	0	0	16602	15240	154826	27680	952232	37710	106007	0	0	8169	766189	0	0
2024-04-23 13:13:32			0	33902	0	0	0	16607	15250	154766	27544	952144	37701	106009	0	0	8169	766448	0	0
2024-04-23 13:14:32			0	33911	0	0	0	16607	15240	154718	27379	952127	37700	106009	0	0	8169	766039	0	0
2024-04-23 13:15:32			0	33903	0	0	0	16597	15250	154730	27497	952162	37700	106005	0	0	8169	766398	0	0
2024-04-23 13:16:32			0	33917	0	0	0	16599	15250	154850	27772	952188	37711	106006	0	0	8170	765697	0	0
2024-04-23 13:17:32			0	33895	0	0	0	16597	15250	154794	27424	952188	37711	106005	0	0	8169	766799	0	0
2024-04-23 13:18:32			0	33908	0	0	0	16599	15240	154718	27760	952127	37710	106006	0	0	8169	766189	0	0
2024-04-23 13:19:32			0	33909	0	0	0	16597	15240	154662	27583	952153	37700	106005	0	0	8170	766139	0	0
2024-04-23 13:20:32			0	33911	0	0	0	16605	15240	154722	27492	952127	37700	106008	0	0	8169	766039	0	0
2024-04-23 13:21:32			0	33912	0	0	0	16610	15240	154770	27315	952180	37700	106010	0	0	8169	765988	0	0
2024-04-23 13:22:32			0	33918	0	0	0	16618	15250	154762	27608	952188	37722	106013	0	0	8170	765647	0	0
2024-04-23 13:23:32			0	33931	0	0	0	16599	15240	154770	27479	952172	37700	106006	0	0	8171	765038	0	0
2024-04-23 13:24:32			0	33897	0	0	0	16597	15250	154766	27569	952162	37700	106005	0	0	8169	766699	0	0
2024-04-23 13:25:32			0	33926	0	0	0	16597	15240	154802	27424	952153	37710	106005	0	0	8171	765288	0	0
2024-04-23 13:26:32			0	33905	0	0	0	16599	15230	154790	27750	952111	37700	106006	0	0	8169	766380	0	0
2024-04-23 13:27:32			0	33915	0	0	0	16599	15230	154654	27604	952111	37700	106006	0	0	8170	765879	0	0
2024-04-23 13:28:32			0	33921	0	0	0	16607	15240	154714	27414	952172	37710	106009	0	0	8170	765538	0	0
2024-04-23 13:29:32			0	33901	0	0	0	16618	15250	154682	27748	952188	37700	106013	0	0	8169	766498	0	0
2024-04-23 13:30:32			0	33923	0	0	0	16607	15250	154622	27445	952188	37700	106009	0	0	8170	765397	0	0
2024-04-23 13:31:32			0	33905	0	0	0	16607	15240	154746	27403	952074	37710	106009	0	0	8169	766339	0	0
2024-04-23 13:32:32			0	33885	0	0	0	16615	15240	154702	27741	952127	37710	106012	0	0	8168	767341	0	0
2024-04-23 13:33:32			0	33913	0	0	0	16615	15240	154734	27656	952180	37700	106012	0	0	8169	765938	0	0
2024-04-23 13:34:32			0	33917	0	0	0	16610	15240	154666	27538	952180	37700	106010	0	0	8170	765738	0	0
2024-04-23 13:35:32			0	33928	0	0	0	16615	15240	154754	27592	952180	37710	106012	0	0	8170	765188	0	0
2024-04-23 13:36:32			0	33909	0	0	0	16623	15250	154758	27620	952249	37723	106015	0	0	8169	766097	0	0
2024-04-23 13:37:32			0	33928	0	0	0	16618	15260	154742	27448	952231	37690	106013	0	0	8170	765105	0	0
2024-04-23 13:38:32			0	33933	0	0	0	16620	15250	154726	27694	952188	37711	106014	0	0	8171	764896	0	0
2024-04-23 13:39:32			0	33914	0	0	0	16615	15250	154702	27333	952249	37701	106012	0	0	8170	765847	0	0
2024-04-23 13:40:32			0	33908	0	0	0	16615	15260	154734	27848	952257	37690	106012	0	0	8169	766106	0	0
2024-04-23 13:41:32			0	33927	0	0	0	16610	15250	154726	27319	952170	37711	106010	0	0	8170	765197	0	0
2024-04-23 13:42:32			0	33941	0	0	0	16615	15250	154774	27483	952223	37711	106012	0	0	8171	764496	0	0
2024-04-23 13:43:32			0	33939	0	0	0	16612	15250	154626	27890	952249	37701	106011	0	0	8171	764596	0	0
2024-04-23 13:44:32			0	33950	0	0	0	16615	15250	154642	27265	952109	37689	106012	0	0	8172	764046	0	0
2024-04-23 13:45:32			0	33939	0	0	0	16615	15250	154598	27448	952162	37722	106012	0	0	8171	764596	0	0
2024-04-23 13:46:32			0	33951	0	0	0	16618	15250	154586	27604	952249	37711	106013	0	0	8172	763996	0	0
2024-04-23 13:47:32			0	33957	0	0	0	16612	15260	154562	27315	952231	37701	106011	0	0	8172	763656	0	0
2024-04-23 13:48:32			0	33956	0	0	0	16618	15260	154506	27371	952231	37711	106013	0	0	8172	763706	0	0
2024-04-23 13:49:32			0	33987	0	0	0	16610	15250	154526	27614	952135	37711	106010	0	0	8174	762199	0	0
2024-04-23 13:50:32			0	33964	0	0	0	16615	15250	154554	27383	952223	37711	106012	0	0	8172	763347	0	0
2024-04-23 13:51:32			0	33955	0	0	0	16615	15250	154594	27365	952144	37701	106012	0	0	8172	763797	0	0
2024-04-23 13:52:32			0	33962	0	0	0	16615	15240	154526	27305	952127	37710	106012	0	0	8172	763488	0	0
2024-04-23 13:53:32			0	33954	0	0	0	16612	15250	154622	27267	952170	37701	106011	0	0	8172	763847	0	0
2024-04-23 13:54:32			0	33959	0	0	0	16612	15250	154526	27367	952188	37700	106011	0	0	8172	763597	0	0
2024-04-23 13:55:32			0	33965	0	0	0	16623	15250	154538	27781	952196	37701	106015	0	0	8172	763297	0	0
2024-04-23 13:56:32			0	33967	0	0	0	16620	15250	154498	27352	952170	37701	106014	0	0	8173	763197	0	0
2024-04-23 13:57:32			0	33976	0	0	0	16623	15250	154434	27562	952188	37711	106015	0	0	8173	762748	0	0
2024-04-23 13:58:32			0	33965	0	0	0	16618	15250	154378	27625	952249	37701	106013	0	0	8172	763297	0	0
2024-04-23 13:59:32			0	33974	0	0	0	16623	15250	154458	27493	952223	37723	106015	0	0	8173	762848	0	0
2024-04-23 14:00:32			0	33987	0	0	0	16620	15250	154510	27409	952162	37722	106014	0	0	8174	762199	0	0
2024-04-23 14:01:32			0	33973	0	0	0	16625	15250	154362	27554	952170	37711	106016	0	0	8173	762898	0	0
2024-04-23 14:02:32			0	33978	0	0	0	16618	15250	154446	27594	952188	37700	106013	0	0	8173	762648	0	0
2024-04-23 14:03:32			0	33976	0	0	0	16631	15250	154410	27947	952196	37711	106018	0	0	8173	762748	0	0
2024-04-23 14:04:32			0	33966	0	0	0	16618	15250	154362	27576	952223	37711	106013	0	0	8173	763247	0	0
2024-04-23 14:05:32			0	33975	0	0	0	16620	15250	154358	27334	952223	37723	106014	0	0	8173	762798	0	0
2024-04-23 14:06:32			0	33986	0	0	0	16618	15260	154406	27552	952231	37711	106013	0	0	8174	762208	0	0
2024-04-23 14:07:32			0	33973	0	0	0	16615	15250	154378	27445	952240	37700	106012	0	0	8173	762898	0	0
2024-04-23 14:08:32			0	33963	0	0	0	16618	15260	154338	27319	952204	37711	106013	0	0	8172	763356	0	0
2024-04-23 14:09:32			0	33983	0	0	0	16615	15250	154354	27545	952249	37701	106012	0	0	8174	762399	0	0
2024-04-23 14:10:32			0	33980	0	0	0	16623	15250	154354	27490	952223	37711	106015	0	0	8173	762549	0	0
2024-04-23 14:11:32			0	33968	0	0	0	16615	15260	154314	27535	952204	37711	106012	0	0	8173	763107	0	0
2024-04-23 14:12:32			0	33986	0	0	0	16615	15240	154458	27557	952127	37710	106012	0	0	8174	762290	0	0
2024-04-23 14:13:32			0	33994	0	0	0	16615	15250	154354	27433	952170	37711	106012	0	0	8174	761850	0	0
2024-04-23 14:14:32			0	33963	0	0	0	16625	15250	154386	27286	952223	37701	106016	0	0	8172	763397	0	0
2024-04-23 14:15:32			0	33973	0	0	0	16636	15250	154414	27526	952275	37723	106020	0	0	8173	762898	0	0
2024-04-23 14:16:32			0	33971	0	0	0	16638	15250	154498	27682	952223	37690	106021	0	0	8172	762998	0	0
2024-04-23 14:17:32			0	33963	0	0	0	16638	15250	154474	27282	952275	37723	106021	0	0	8172	763397	0	0
2024-04-23 14:18:32			0	33967	0	0	0	16638	15270	154498	27713	952300	37712	106021	0	0	8172	763115	0	0
2024-04-23 14:19:32			0	33965	0	0	0	16633	15260	154490	27537	952231	37711	106019	0	0	8172	763256	0	0
2024-04-23 14:20:32			0	33971	0	0	0	16646	15260	154442	27679	952291	37701	106024	0	0	8172	762957	0	0
2024-04-23 14:21:32			0	33962	0	0	0	16646	15260	154446	27156	952283	37711	106024	0	0	8172	763406	0	0
2024-04-23 14:22:32			0	33963	0	0	0	16641	15250	154482	27364	952223	37723	106022	0	0	8172	763397	0	0
2024-04-23 14:23:32			0	33955	0	0	0	16628	15270	154530	27604	952281	37724	106017	0	0	8172	763714	0	0
2024-04-23 14:24:32			0	33967	0	0	0	16636	15260	154494	27566	952283	37701	106020	0	0	8172	763156	0	0
2024-04-23 14:25:32			0	33972	0	0	0	16625	15260	154414	27644	952239	37701	106016	0	0	8173	762907	0	0
2024-04-23 14:26:32			0	33972	0	0	0	16615	15250	154434	27351	952275	37711	106012	0	0	8173	762948	0	0
2024-04-23 14:27:32			0	33980	0	0	0	16615	15260	154414	27485	952231	37711	106012	0	0	8173	762508	0	0
2024-04-23 14:28:32			0	33964	0	0	0	16628	15260	154474	27383	952204	37711	106017	0	0	8172	763306	0	0
2024-04-23 14:29:32			0	33973	0	0	0	16638	15250	154390	27805	952214	37722	106021	0	0	8173	762898	0	0
2024-04-23 14:30:32			0	33977	0	0	0	16641	15260	154510	27268	952239	37711	106022	0	0	8173	762657	0	0
2024-04-23 14:31:32			0	33960	0	0	0	16646	15250	154414	27573	952223	37711	106024	0	0	8172	763547	0	0
2024-04-23 14:32:32			0	33977	0	0	0	16644	15270	154434	27701	952247	37723	106023	0	0	8173	762616	0	0
2024-04-23 14:33:32			0	33955	0	0	0	16654	15260	154418	27545	952336	37723	106027	0	0	8171	763755	0	0
2024-04-23 14:34:32			0	33969	0	0	0	16659	15270	154418	27604	952247	37712	106029	0	0	8172	763015	0	0
2024-04-23 14:35:32			0	33960	0	0	0	16651	15270	154398	27692	952300	37723	106026	0	0	8172	763465	0	0
2024-04-23 14:36:32			0	33983	0	0	0	16649	15270	154382	27509	952281	37724	106025	0	0	8173	762317	0	0
2024-04-23 14:37:32			0	33981	0	0	0	16636	15270	154314	27568	952281	37724	106020	0	0	8173	762417	0	0
2024-04-23 14:38:32			0	33976	0	0	0	16636	15270	154426	27469	952326	37712	106020	0	0	8173	762666	0	0
2024-04-23 14:39:32			0	33959	0	0	0	16644	15270	154486	27552	952308	37703	106023	0	0	8172	763515	0	0
2024-04-23 14:40:32			0	33965	0	0	0	16649	15270	154426	27426	952229	37703	106025	0	0	8172	763215	0	0
2024-04-23 14:41:32			0	33977	0	0	0	16638	15280	154418	27497	952316	37724	106021	0	0	8173	762575	0	0
2024-04-23 14:42:32			0	33979	0	0	0	16638	15270	154358	27300	952281	37724	106021	0	0	8173	762517	0	0
2024-04-23 14:43:32			0	33983	0	0	0	16638	15270	154322	27396	952273	37712	106021	0	0	8173	762317	0	0
2024-04-23 14:44:32			0	33981	0	0	0	16644	15260	154326	27462	952283	37711	106023	0	0	8173	762458	0	0
2024-04-23 14:45:32			0	33987	0	0	0	16644	15280	154370	27563	952263	37703	106023	0	0	8173	762077	0	0
2024-04-23 14:46:32			0	33977	0	0	0	16649	15280	154446	27725	952289	37713	106025	0	0	8173	762575	0	0
2024-04-23 14:47:32			0	33977	0	0	0	16657	15270	154434	27419	952281	37713	106028	0	0	8173	762616	0	0
2024-04-23 14:48:32			0	33978	0	0	0	16672	15270	154362	27627	952387	37713	106034	0	0	8172	762566	0	0
2024-04-23 14:49:32			0	33990	0	0	0	16672	15280	154362	27538	952376	37724	106034	0	0	8173	761927	0	0
2024-04-23 14:50:32			0	33983	0	0	0	16677	15280	154306	27412	952447	37713	106036	0	0	8173	762276	0	0
2024-04-23 14:51:32			0	33996	0	0	0	16670	15280	154346	27796	952368	37724	106033	0	0	8174	761628	0	0
2024-04-23 14:52:32			0	33996	0	0	0	16664	15300	154362	27595	952393	37726	106031	0	0	8174	761546	0	0
2024-04-23 14:53:32			0	33994	0	0	0	16659	15290	154234	27675	952332	37704	106029	0	0	8174	761687	0	0
2024-04-23 14:54:32			0	33976	0	0	0	16675	15300	154306	27583	952366	37715	106035	0	0	8172	762543	0	0
2024-04-23 14:55:32			0	33995	0	0	0	16667	15290	154262	27722	952411	37725	106032	0	0	8174	761637	0	0
2024-04-23 14:56:32			0	33990	0	0	0	16664	15290	154302	27833	952411	37714	106031	0	0	8173	761886	0	0
2024-04-23 14:57:32			0	33982	0	0	0	16659	15300	154330	27914	952419	37715	106029	0	0	8173	762244	0	0
2024-04-23 14:58:32			0	33990	0	0	0	16662	15300	154354	27781	952393	37715	106030	0	0	8173	761845	0	0
2024-04-23 14:59:32			0	34001	0	0	0	16672	15300	154446	27405	952393	37726	106034	0	0	8174	761297	0	0
2024-04-23 15:00:32			0	33998	0	0	0	16667	15310	154330	27569	952383	37727	106032	0	0	8174	761405	0	0
2024-04-23 15:01:32			0	34007	0	0	0	16675	15300	154394	27550	952401	37716	106035	0	0	8174	760998	0	0
2024-04-23 15:02:32			0	33999	0	0	0	16659	15310	154258	27753	952435	37716	106029	0	0	8174	761355	0	0
2024-04-23 15:03:32			0	34009	0	0	0	16664	15300	154266	27490	952401	37727	106031	0	0	8174	760898	0	0
2024-04-23 15:04:32			0	34018	0	0	0	16659	15300	154218	27554	952401	37738	106029	0	0	8175	760450	0	0
2024-04-23 15:05:32			0	34020	0	0	0	16654	15300	154298	27403	952401	37716	106027	0	0	8175	760351	0	0
2024-04-23 15:06:32			0	34011	0	0	0	16662	15300	154126	27421	952366	37726	106030	0	0	8175	760799	0	0
2024-04-23 15:07:32			0	34020	0	0	0	16675	15300	154242	27800	952445	37715	106035	0	0	8175	760351	0	0
2024-04-23 15:08:32			0	34025	0	0	0	16675	15300	154194	27495	952427	37727	106035	0	0	8175	760102	0	0
2024-04-23 15:09:32			0	34019	0	0	0	16662	15300	154214	27346	952393	37726	106030	0	0	8175	760400	0	0
2024-04-23 15:10:32			0	34005	0	0	0	16662	15300	154142	27711	952419	37715	106030	0	0	8174	761097	0	0
2024-04-23 15:11:32			0	34022	0	0	0	16651	15310	154118	27618	952409	37716	106026	0	0	8176	760210	0	0
2024-04-23 15:12:32			0	34023	0	0	0	16657	15300	153994	27459	952453	37716	106028	0	0	8175	760201	0	0
2024-04-23 15:13:32			0	34025	0	0	0	16654	15310	154118	27620	952383	37727	106027	0	0	8176	760061	0	0
2024-04-23 15:14:32			0	34041	0	0	0	16641	15290	154042	27372	952385	37725	106022	0	0	8177	759347	0	0
2024-04-23 15:15:32			0	34045	0	0	0	16657	15300	154114	27564	952393	37726	106028	0	0	8177	759107	0	0
2024-04-23 15:16:32			0	34029	0	0	0	16659	15300	154102	27829	952375	37716	106029	0	0	8176	759903	0	0
2024-04-23 15:17:32			0	34032	0	0	0	16659	15300	154090	27744	952366	37726	106029	0	0	8176	759753	0	0
2024-04-23 15:18:32			0	34031	0	0	0	16667	15300	153994	27734	952427	37727	106032	0	0	8176	759803	0	0
2024-04-23 15:19:32			0	34025	0	0	0	16662	15300	154106	27390	952445	37705	106030	0	0	8175	760102	0	0
2024-04-23 15:20:32			0	34032	0	0	0	16670	15290	154126	27310	952437	37714	106033	0	0	8176	759794	0	0
2024-04-23 15:21:32			0	34030	0	0	0	16677	15300	154058	27549	952427	37716	106036	0	0	8175	759853	0	0
2024-04-23 15:22:32			0	34046	0	0	0	16683	15300	154006	27763	952480	37738	106038	0	0	8176	759057	0	0
2024-04-23 15:23:32			0	34039	0	0	0	16688	15320	154130	27942	952425	37739	106040	0	0	8176	759323	0	0
2024-04-23 15:24:32			0	34041	0	0	0	16688	15320	154042	27623	952486	37717	106040	0	0	8176	759224	0	0
2024-04-23 15:25:32			0	34057	0	0	0	16703	15310	154090	27647	952470	37705	106046	0	0	8177	758470	0	0
2024-04-23 15:26:32			0	34057	0	0	0	16690	15320	154058	27824	952539	37728	106041	0	0	8177	758429	0	0
2024-04-23 15:27:32			0	34073	0	0	0	16680	15320	153998	27443	952478	37716	106037	0	0	8178	757634	0	0
2024-04-23 15:28:32			0	34071	0	0	0	16688	15320	153966	27963	952504	37728	106040	0	0	8178	757734	0	0
2024-04-23 15:29:32			0	34070	0	0	0	16696	15330	153938	27701	952468	37717	106043	0	0	8178	757743	0	0
2024-04-23 15:30:32			0	34067	0	0	0	16688	15320	153978	27902	952539	37717	106040	0	0	8178	757932	0	0
2024-04-23 15:31:32			0	34072	0	0	0	16693	15320	153914	27545	952539	37728	106042	0	0	8178	757684	0	0
2024-04-23 15:32:32			0	34073	0	0	0	16693	15340	153906	27902	952537	37729	106042	0	0	8178	757553	0	0
2024-04-23 15:33:32			0	34068	0	0	0	16701	15330	153938	27783	952555	37707	106045	0	0	8177	757842	0	0
2024-04-23 15:34:32			0	34090	0	0	0	16706	15340	153926	27677	952589	37729	106047	0	0	8179	756710	0	0
2024-04-23 15:35:32			0	34082	0	0	0	16703	15330	153902	27892	952528	37717	106046	0	0	8178	757147	0	0
2024-04-23 15:36:32			0	34091	0	0	0	16706	15330	153734	28259	952555	37739	106047	0	0	8179	756701	0	0
2024-04-23 15:37:32			0	34088	0	0	0	16722	15350	153818	27928	952640	37730	106053	0	0	8178	756768	0	0
2024-04-23 15:38:32			0	34092	0	0	0	16719	15340	153850	28083	952571	37730	106052	0	0	8179	756611	0	0
2024-04-23 15:39:32			0	34092	0	0	0	16727	15340	153802	27595	952616	37708	106055	0	0	8178	756611	0	0
2024-04-23 15:40:32			0	34090	0	0	0	16722	15350	153814	27592	952640	37730	106053	0	0	8178	756669	0	0
2024-04-23 15:41:32			0	34103	0	0	0	16722	15350	153834	27549	952666	37708	106053	0	0	8179	756025	0	0
2024-04-23 15:42:32			0	34101	0	0	0	16732	15350	153798	27540	952719	37741	106057	0	0	8179	756124	0	0
2024-04-23 15:43:32			0	34110	0	0	0	16729	15350	153762	28084	952640	37730	106056	0	0	8179	755678	0	0
2024-04-23 15:44:32			0	34108	0	0	0	16740	15360	153686	27826	952656	37732	106060	0	0	8179	755736	0	0
2024-04-23 15:45:32			0	34112	0	0	0	16740	15360	153654	27793	952780	37731	106060	0	0	8179	755538	0	0
2024-04-23 15:46:32			0	34123	0	0	0	16745	15370	153690	27788	952699	37744	106062	0	0	8180	754953	0	0
2024-04-23 15:47:32			0	34123	0	0	0	16740	15370	153714	27855	952751	37732	106060	0	0	8180	754953	0	0
2024-04-23 15:48:32			0	34131	0	0	0	16742	15370	153790	27859	952770	37732	106061	0	0	8181	754557	0	0
2024-04-23 15:49:32			0	34103	0	0	0	16750	15370	153658	27402	952717	37743	106064	0	0	8179	755943	0	0
2024-04-23 15:50:32			0	34114	0	0	0	16745	15380	153610	27959	952759	37732	106062	0	0	8180	755358	0	0
2024-04-23 15:51:32			0	34134	0	0	0	16748	15380	153530	27718	952768	37722	106063	0	0	8181	754368	0	0
2024-04-23 15:52:32			0	34130	0	0	0	16750	15380	153650	27679	952768	37733	106064	0	0	8180	754566	0	0
2024-04-23 15:53:32			0	34137	0	0	0	16758	15380	153642	27760	952759	37732	106067	0	0	8181	754220	0	0
2024-04-23 15:54:32			0	34139	0	0	0	16763	15390	153542	27805	952802	37723	106069	0	0	8181	754080	0	0
2024-04-23 15:55:32			0	34149	0	0	0	16758	15390	153514	27654	952829	37734	106067	0	0	8181	753586	0	0
2024-04-23 15:56:32			0	34150	0	0	0	16761	15390	153574	27677	952802	37734	106068	0	0	8181	753536	0	0
2024-04-23 15:57:32			0	34145	0	0	0	16768	15390	153570	27504	952810	37734	106071	0	0	8181	753784	0	0
2024-04-23 15:58:32			0	34149	0	0	0	16763	15400	153530	27583	952871	37734	106069	0	0	8181	753546	0	0
2024-04-23 15:59:32			0	34170	0	0	0	16763	15390	153502	27621	952784	37734	106069	0	0	8183	752549	0	0
2024-04-23 16:00:32			0	34158	0	0	0	16763	15400	153394	27533	952871	37734	106069	0	0	8182	753101	0	0
2024-04-23 16:01:32			0	34161	0	0	0	16755	15400	153518	27592	952827	37746	106066	0	0	8182	752953	0	0
2024-04-23 16:02:32			0	34166	0	0	0	16766	15400	153406	27488	952792	37745	106070	0	0	8182	752706	0	0
2024-04-23 16:03:32			0	34175	0	0	0	16768	15400	153558	27571	952845	37745	106071	0	0	8183	752261	0	0
2024-04-23 16:04:32			0	34163	0	0	0	16755	15410	153482	27398	952835	37725	106066	0	0	8182	752813	0	0
2024-04-23 16:05:32			0	34171	0	0	0	16750	15400	153354	27616	952845	37734	106064	0	0	8183	752459	0	0
2024-04-23 16:06:32			0	34174	0	0	0	16758	15400	153394	27277	952800	37724	106067	0	0	8183	752311	0	0
2024-04-23 16:07:32			0	34169	0	0	0	16766	15400	153438	27933	952879	37735	106070	0	0	8183	752558	0	0
2024-04-23 16:08:32			0	34175	0	0	0	16774	15410	153354	27604	952861	37725	106073	0	0	8183	752221	0	0
2024-04-23 16:09:32			0	34195	0	0	0	16776	15410	153342	27895	952895	37747	106074	0	0	8184	751234	0	0
2024-04-23 16:10:32			0	34190	0	0	0	16779	15410	153358	27802	952887	37757	106075	0	0	8184	751481	0	0
2024-04-23 16:11:32			0	34182	0	0	0	16774	15420	153326	28018	952930	37747	106073	0	0	8183	751835	0	0
2024-04-23 16:12:32			0	34193	0	0	0	16776	15420	153326	28237	952938	37758	106074	0	0	8184	751293	0	0
2024-04-23 16:13:32			0	34193	0	0	0	16784	15420	153318	27965	952930	37757	106077	0	0	8184	751293	0	0
2024-04-23 16:14:32			0	34182	0	0	0	16774	15430	153298	27947	952954	37749	106073	0	0	8183	751795	0	0
2024-04-23 16:15:32			0	34194	0	0	0	16766	15430	153298	28044	952999	37759	106070	0	0	8184	751203	0	0
2024-04-23 16:16:32			0	34187	0	0	0	16774	15420	153302	28268	952991	37737	106073	0	0	8184	751588	0	0
2024-04-23 16:17:32			0	34216	0	0	0	16774	15430	153262	28008	952981	37726	106073	0	0	8185	750119	0	0
2024-04-23 16:18:32			0	34207	0	0	0	16774	15450	153250	28292	953005	37728	106073	0	0	8185	750482	0	0
2024-04-23 16:19:32			0	34180	0	0	0	16776	15440	153306	28214	953023	37727	106074	0	0	8183	751853	0	0
2024-04-23 16:20:32			0	34193	0	0	0	16779	15440	153218	28180	953015	37738	106075	0	0	8184	751212	0	0
2024-04-23 16:21:32			0	34203	0	0	0	16784	15440	153258	28266	953023	37749	106077	0	0	8184	750719	0	0
2024-04-23 16:22:32			0	34183	0	0	0	16787	15440	153266	27763	952971	37749	106078	0	0	8183	751705	0	0
2024-04-23 16:23:32			0	34211	0	0	0	16784	15450	153242	27996	953031	37739	106077	0	0	8185	750285	0	0
2024-04-23 16:24:32			0	34180	0	0	0	16789	15450	153338	27701	952979	37739	106079	0	0	8183	751812	0	0
2024-04-23 16:25:32			0	34200	0	0	0	16794	15450	153314	27944	953005	37750	106081	0	0	8184	750826	0	0
2024-04-23 16:26:32			0	34185	0	0	0	16805	15440	153298	27654	953023	37738	106085	0	0	8183	751606	0	0
2024-04-23 16:27:32			0	34202	0	0	0	16810	15450	153202	27750	953058	37739	106087	0	0	8184	750728	0	0
2024-04-23 16:28:32			0	34209	0	0	0	16815	15450	153166	27966	953084	37739	106089	0	0	8184	750383	0	0
2024-04-23 16:29:32			0	34203	0	0	0	16805	15450	153194	27537	953039	37750	106085	0	0	8184	750679	0	0
2024-04-23 16:30:32			0	34215	0	0	0	16825	15450	153266	27914	953058	37739	106093	0	0	8184	750088	0	0
2024-04-23 16:31:32			0	34227	0	0	0	16815	15450	153098	27958	953118	37739	106089	0	0	8185	749497	0	0
2024-04-23 16:32:32			0	34227	0	0	0	16823	15450	153138	27777	953092	37750	106092	0	0	8185	749497	0	0
2024-04-23 16:33:32			0	34211	0	0	0	16810	15460	153138	27737	953108	37740	106087	0	0	8184	750244	0	0
2024-04-23 16:34:32			0	34239	0	0	0	16818	15460	153166	27424	953074	37740	106090	0	0	8186	748866	0	0
2024-04-23 16:35:32			0	34233	0	0	0	16812	15460	153134	27623	953074	37729	106088	0	0	8186	749161	0	0
2024-04-23 16:36:32			0	34235	0	0	0	16799	15460	153130	27767	953074	37740	106083	0	0	8186	749063	0	0
2024-04-23 16:37:32			0	34236	0	0	0	16812	15460	153030	27431	953048	37729	106088	0	0	8186	749014	0	0
2024-04-23 16:38:32			0	34246	0	0	0	16797	15460	153086	27338	953048	37740	106082	0	0	8187	748522	0	0
2024-04-23 16:39:32			0	34238	0	0	0	16805	15450	153058	27255	953013	37750	106085	0	0	8186	748956	0	0
2024-04-23 16:40:32			0	34272	0	0	0	16802	15450	153030	27542	953013	37739	106084	0	0	8188	747285	0	0
2024-04-23 16:41:32			0	34269	0	0	0	16807	15460	153014	28077	953082	37740	106086	0	0	8188	747392	0	0
2024-04-23 16:42:32			0	34256	0	0	0	16820	15460	152914	27935	953126	37740	106091	0	0	8187	748031	0	0
2024-04-23 16:43:32			0	34255	0	0	0	16818	15460	152998	27732	953108	37761	106090	0	0	8187	748080	0	0
2024-04-23 16:44:32			0	34253	0	0	0	16833	15480	153002	28379	953133	37752	106096	0	0	8187	748098	0	0
2024-04-23 16:45:32			0	34261	0	0	0	16818	15460	152922	27923	953135	37750	106090	0	0	8187	747785	0	0
2024-04-23 16:46:32			0	34243	0	0	0	16825	15470	152954	28334	953177	37751	106093	0	0	8186	748629	0	0
2024-04-23 16:47:32			0	34262	0	0	0	16833	15480	152994	27892	953159	37752	106096	0	0	8187	747655	0	0
2024-04-23 16:48:32			0	34260	0	0	0	16833	15480	153014	28010	953185	37742	106096	0	0	8187	747754	0	0
2024-04-23 16:49:32			0	34253	0	0	0	16828	15470	152930	27807	953230	37741	106094	0	0	8187	748138	0	0
2024-04-23 16:50:32			0	34256	0	0	0	16825	15480	152826	27826	953220	37742	106093	0	0	8187	747950	0	0
2024-04-23 16:51:32			0	34265	0	0	0	16831	15480	153002	27583	953167	37731	106095	0	0	8187	747508	0	0
2024-04-23 16:52:32			0	34272	0	0	0	16831	15490	152886	27902	953183	37743	106095	0	0	8188	747124	0	0
2024-04-23 16:53:32			0	34264	0	0	0	16823	15470	152874	27601	953230	37741	106092	0	0	8187	747597	0	0
2024-04-23 16:54:32			0	34270	0	0	0	16823	15490	152918	27281	953202	37743	106092	0	0	8188	747222	0	0
2024-04-23 16:55:32			0	34265	0	0	0	16810	15480	152934	27357	953212	37731	106087	0	0	8188	747508	0	0
2024-04-23 16:56:32			0	34277	0	0	0	16807	15480	152866	28017	953159	37731	106086	0	0	8188	746919	0	0
2024-04-23 16:57:32			0	34280	0	0	0	16807	15480	152914	27878	953167	37731	106086	0	0	8189	746772	0	0
2024-04-23 16:58:32			0	34270	0	0	0	16797	15480	152858	27433	953133	37731	106082	0	0	8188	747263	0	0
2024-04-23 16:59:32			0	34276	0	0	0	16812	15480	152882	27618	953133	37731	106088	0	0	8188	746968	0	0
2024-04-23 17:00:32			0	34259	0	0	0	16807	15480	152898	27802	953185	37742	106086	0	0	8187	747803	0	0
2024-04-23 17:01:32			0	34283	0	0	0	16807	15470	152882	27601	953143	37741	106086	0	0	8189	746665	0	0
2024-04-23 17:02:32			0	34279	0	0	0	16818	15470	152898	27826	953046	37741	106090	0	0	8188	746861	0	0
2024-04-23 17:03:32			0	34271	0	0	0	16797	15480	152930	27663	953159	37742	106082	0	0	8188	747213	0	0
2024-04-23 17:04:32			0	34265	0	0	0	16805	15470	152914	27587	953125	37741	106085	0	0	8188	747548	0	0
2024-04-23 17:05:32			0	34262	0	0	0	16812	15470	152870	27835	953125	37741	106088	0	0	8187	747696	0	0
2024-04-23 17:06:32			0	34269	0	0	0	16812	15460	152914	27793	953135	37740	106088	0	0	8188	747392	0	0
2024-04-23 17:07:32			0	34261	0	0	0	16807	15470	152910	28072	953090	37741	106086	0	0	8187	747745	0	0
2024-04-23 17:08:32			0	34262	0	0	0	16825	15480	153010	28064	953238	37752	106093	0	0	8187	747655	0	0
2024-04-23 17:09:32			0	34255	0	0	0	16831	15490	152986	27843	953175	37731	106095	0	0	8187	747959	0	0
2024-04-23 17:10:32			0	34269	0	0	0	16823	15480	152970	27937	953159	37763	106092	0	0	8188	747312	0	0
2024-04-23 17:11:32			0	34256	0	0	0	16805	15480	152962	27725	953246	37752	106085	0	0	8187	747950	0	0
2024-04-23 17:12:32			0	34263	0	0	0	16807	15480	152894	27828	953185	37752	106086	0	0	8188	747606	0	0
2024-04-23 17:13:32			0	34269	0	0	0	16810	15480	152770	27557	953133	37742	106087	0	0	8188	747312	0	0
2024-04-23 17:14:32			0	34269	0	0	0	16794	15470	152930	27524	953143	37741	106081	0	0	8188	747352	0	0
2024-04-23 17:15:32			0	34264	0	0	0	16799	15470	152958	27900	953177	37741	106083	0	0	8188	747597	0	0
2024-04-23 17:16:32			0	34290	0	0	0	16805	15470	152866	27319	953169	37741	106085	0	0	8189	746321	0	0
2024-04-23 17:17:32			0	34285	0	0	0	16787	15460	152854	27390	953082	37740	106078	0	0	8189	746607	0	0
2024-04-23 17:18:32			0	34284	0	0	0	16781	15470	152838	27291	953064	37741	106076	0	0	8189	746616	0	0
2024-04-23 17:19:32			0	34274	0	0	0	16781	15470	152866	27490	953064	37751	106076	0	0	8189	747107	0	0
2024-04-23 17:20:32			0	34284	0	0	0	16779	15460	152854	27424	953021	37740	106075	0	0	8189	746656	0	0
2024-04-23 17:21:32			0	34279	0	0	0	16768	15450	152810	27350	952987	37728	106071	0	0	8189	746941	0	0
2024-04-23 17:22:32			0	34275	0	0	0	16768	15450	152950	27267	953031	37739	106071	0	0	8189	747138	0	0
2024-04-23 17:23:32			0	34252	0	0	0	16768	15450	152930	27317	953005	37739	106071	0	0	8188	748268	0	0
2024-04-23 17:24:32			0	34280	0	0	0	16763	15430	152846	27530	952902	37726	106069	0	0	8189	746973	0	0
2024-04-23 17:25:32			0	34251	0	0	0	16761	15440	152978	27154	952989	37727	106068	0	0	8188	748357	0	0
2024-04-23 17:26:32			0	34237	0	0	0	16755	15440	152950	27713	953015	37727	106066	0	0	8187	749045	0	0
2024-04-23 17:27:32			0	34234	0	0	0	16755	15430	153014	27783	952928	37738	106066	0	0	8187	749233	0	0
2024-04-23 17:28:32			0	34235	0	0	0	16748	15440	153182	27526	952962	37727	106063	0	0	8187	749144	0	0
2024-04-23 17:29:32			0	34240	0	0	0	16750	15430	153206	27291	952920	37738	106064	0	0	8187	748938	0	0
2024-04-23 17:30:32			0	34215	0	0	0	16750	15420	153326	27518	952938	37726	106064	0	0	8186	750209	0	0
2024-04-23 17:31:32			0	34231	0	0	0	16745	15420	153370	27315	952904	37725	106062	0	0	8187	749421	0	0
2024-04-23 17:32:32			0	34227	0	0	0	16750	15410	153390	27578	952895	37747	106064	0	0	8186	749658	0	0
2024-04-23 17:33:32			0	34221	0	0	0	16745	15400	153310	27350	952853	37735	106062	0	0	8186	749994	0	0
2024-04-23 17:34:32			0	34195	0	0	0	16748	15420	153278	27357	952904	37747	106063	0	0	8184	751194	0	0
2024-04-23 17:35:32			0	34206	0	0	0	16742	15420	153366	27336	952825	37714	106061	0	0	8185	750652	0	0
2024-04-23 17:36:32			0	34192	0	0	0	16753	15410	153338	27176	952861	37747	106065	0	0	8184	751382	0	0
2024-04-23 17:37:32			0	34178	0	0	0	16748	15410	153414	27060	952861	37725	106063	0	0	8183	752073	0	0
2024-04-23 17:38:32			0	34194	0	0	0	16740	15400	153442	27393	952853	37735	106060	0	0	8184	751324	0	0
2024-04-23 17:39:32			0	34167	0	0	0	16750	15400	153442	27346	952853	37735	106064	0	0	8183	752656	0	0
2024-04-23 17:40:32			0	34179	0	0	0	16742	15410	153442	27516	952843	37725	106061	0	0	8184	752023	0	0
2024-04-23 17:41:32			0	34170	0	0	0	16748	15400	153502	27625	952871	37734	106063	0	0	8183	752508	0	0
2024-04-23 17:42:32			0	34176	0	0	0	16742	15400	153522	27268	952853	37735	106061	0	0	8183	752212	0	0
2024-04-23 17:43:32			0	34155	0	0	0	16748	15400	153526	27296	952879	37735	106063	0	0	8182	753249	0	0
2024-04-23 17:44:32			0	34165	0	0	0	16755	15400	153366	27175	952871	37734	106066	0	0	8182	752755	0	0
2024-04-23 17:45:32			0	34162	0	0	0	16748	15400	153378	27265	952871	37734	106063	0	0	8182	752903	0	0
2024-04-23 17:46:32			0	34155	0	0	0	16745	15400	153526	27272	952853	37735	106062	0	0	8182	753249	0	0
2024-04-23 17:47:32			0	34164	0	0	0	16750	15390	153542	26967	952855	37745	106064	0	0	8182	752845	0	0
2024-04-23 17:48:32			0	34158	0	0	0	16750	15390	153446	27383	952863	37734	106064	0	0	8182	753141	0	0
2024-04-23 17:49:32			0	34163	0	0	0	16761	15390	153410	27234	952810	37734	106068	0	0	8182	752894	0	0
2024-04-23 17:50:32			0	34155	0	0	0	16758	15400	153502	27218	952906	37746	106067	0	0	8182	753249	0	0
2024-04-23 17:51:32			0	34158	0	0	0	16768	15400	153434	27376	952845	37734	106071	0	0	8182	753101	0	0
2024-04-23 17:52:32			0	34149	0	0	0	16755	15400	153462	27204	952871	37745	106066	0	0	8182	753546	0	0
2024-04-23 17:53:32			0	34162	0	0	0	16755	15410	153458	27400	952817	37747	106066	0	0	8182	752863	0	0
2024-04-23 17:54:32			0	34177	0	0	0	16755	15410	153466	27441	952887	37736	106066	0	0	8183	752122	0	0
2024-04-23 17:55:32			0	34163	0	0	0	16758	15400	153466	27391	952906	37746	106067	0	0	8182	752854	0	0
2024-04-23 17:56:32			0	34172	0	0	0	16763	15400	153474	27602	952906	37746	106069	0	0	8183	752409	0	0
2024-04-23 17:57:32			0	34171	0	0	0	16761	15400	153390	27604	952879	37735	106068	0	0	8183	752459	0	0
2024-04-23 17:58:32			0	34179	0	0	0	16755	15410	153406	27443	952914	37736	106066	0	0	8183	752023	0	0
2024-04-23 17:59:32			0	34157	0	0	0	16750	15400	153466	27092	952932	37746	106064	0	0	8182	753150	0	0
2024-04-23 18:00:32			0	34177	0	0	0	16753	15400	153450	27540	952871	37734	106065	0	0	8183	752163	0	0
2024-04-23 18:01:32			0	34180	0	0	0	16753	15400	153318	27428	952924	37734	106065	0	0	8183	752015	0	0
2024-04-23 18:02:32			0	34169	0	0	0	16758	15410	153414	27225	952887	37747	106067	0	0	8183	752517	0	0
2024-04-23 18:03:32			0	34186	0	0	0	16755	15400	153446	27317	952879	37735	106066	0	0	8184	751719	0	0
2024-04-23 18:04:32			0	34174	0	0	0	16763	15400	153482	27459	952897	37734	106069	0	0	8183	752311	0	0
2024-04-23 18:05:32			0	34161	0	0	0	16755	15400	153366	27327	952845	37734	106066	0	0	8182	752953	0	0
2024-04-23 18:06:32			0	34197	0	0	0	16753	15410	153398	27460	952861	37725	106065	0	0	8184	751136	0	0
2024-04-23 18:07:32			0	34190	0	0	0	16763	15400	153358	27481	952871	37755	106069	0	0	8184	751522	0	0
2024-04-23 18:08:32			0	34194	0	0	0	16753	15400	153282	27708	952871	37745	106065	0	0	8184	751324	0	0
2024-04-23 18:09:32			0	34208	0	0	0	16758	15400	153258	27637	952853	37735	106067	0	0	8185	750634	0	0
2024-04-23 18:10:32			0	34208	0	0	0	16753	15400	153150	27469	952845	37745	106065	0	0	8185	750634	0	0
2024-04-23 18:11:32			0	34206	0	0	0	16742	15400	153170	27320	952906	37746	106061	0	0	8185	750733	0	0
2024-04-23 18:12:32			0	34209	0	0	0	16753	15400	153190	27364	952819	37734	106065	0	0	8185	750585	0	0
2024-04-23 18:13:32			0	34226	0	0	0	16748	15400	153190	27258	952845	37745	106063	0	0	8186	749747	0	0
2024-04-23 18:14:32			0	34245	0	0	0	16755	15390	153202	27317	952802	37734	106066	0	0	8187	748853	0	0
2024-04-23 18:15:32			0	34228	0	0	0	16740	15400	153186	27355	952871	37734	106060	0	0	8186	749649	0	0
2024-04-23 18:16:32			0	34223	0	0	0	16745	15390	153166	27398	952863	37734	106062	0	0	8186	749936	0	0
2024-04-23 18:17:32			0	34214	0	0	0	16742	15390	153150	27086	952829	37734	106061	0	0	8185	750379	0	0
2024-04-23 18:18:32			0	34218	0	0	0	16750	15400	153210	27192	952871	37745	106064	0	0	8186	750142	0	0
2024-04-23 18:19:32			0	34213	0	0	0	16748	15400	153206	27249	952845	37723	106063	0	0	8185	750388	0	0
2024-04-23 18:20:32			0	34214	0	0	0	16750	15390	153318	27473	952810	37755	106064	0	0	8185	750379	0	0
2024-04-23 18:21:32			0	34197	0	0	0	16758	15400	153282	27435	952879	37746	106067	0	0	8184	751176	0	0
2024-04-23 18:22:32			0	34197	0	0	0	16748	15390	153246	27147	952837	37745	106063	0	0	8184	751217	0	0
2024-04-23 18:23:32			0	34213	0	0	0	16748	15390	153310	27421	952829	37745	106063	0	0	8185	750428	0	0
2024-04-23 18:24:32			0	34210	0	0	0	16753	15390	153230	27345	952855	37755	106065	0	0	8185	750576	0	0
2024-04-23 18:25:32			0	34191	0	0	0	16745	15400	153310	27182	952871	37734	106062	0	0	8184	751472	0	0
2024-04-23 18:26:32			0	34189	0	0	0	16753	15390	153366	27150	952863	37745	106065	0	0	8184	751611	0	0
2024-04-23 18:27:32			0	34174	0	0	0	16740	15400	153414	27504	952819	37745	106060	0	0	8183	752311	0	0
2024-04-23 18:28:32			0	34175	0	0	0	16753	15400	153322	27559	952819	37734	106065	0	0	8183	752261	0	0
2024-04-23 18:29:32			0	34191	0	0	0	16748	15390	153398	27654	952855	37734	106063	0	0	8184	751512	0	0
2024-04-23 18:30:32			0	34198	0	0	0	16742	15380	153306	27229	952820	37733	106061	0	0	8185	751208	0	0
2024-04-23 18:31:32			0	34189	0	0	0	16740	15390	153354	27114	952916	37734	106060	0	0	8184	751611	0	0
2024-04-23 18:32:32			0	34200	0	0	0	16737	15390	153326	27078	952863	37745	106059	0	0	8185	751069	0	0
2024-04-23 18:33:32			0	34200	0	0	0	16737	15400	153326	27114	952792	37745	106059	0	0	8185	751028	0	0
2024-04-23 18:34:32			0	34202	0	0	0	16748	15390	153306	27164	952855	37734	106063	0	0	8185	750970	0	0
2024-04-23 18:35:32			0	34188	0	0	0	16740	15390	153346	27405	952810	37745	106060	0	0	8184	751661	0	0
2024-04-23 18:36:32			0	34194	0	0	0	16745	15390	153290	27281	952776	37755	106062	0	0	8184	751365	0	0
2024-04-23 18:37:32			0	34207	0	0	0	16737	15390	153274	27502	952802	37734	106059	0	0	8185	750724	0	0
2024-04-23 18:38:32			0	34175	0	0	0	16748	15390	153250	27414	952784	37734	106063	0	0	8183	752302	0	0
2024-04-23 18:39:32			0	34201	0	0	0	16724	15390	153302	27476	952829	37745	106054	0	0	8185	751019	0	0
2024-04-23 18:40:32			0	34191	0	0	0	16732	15380	153342	27398	952794	37733	106057	0	0	8184	751553	0	0
2024-04-23 18:41:32			0	34200	0	0	0	16727	15390	153190	27166	952829	37734	106055	0	0	8185	751069	0	0
2024-04-23 18:42:32			0	34197	0	0	0	16724	15390	153294	27384	952855	37745	106054	0	0	8185	751217	0	0
2024-04-23 18:43:32			0	34198	0	0	0	16729	15380	153334	27388	952865	37744	106056	0	0	8185	751208	0	0
2024-04-23 18:44:32			0	34211	0	0	0	16727	15380	153330	27069	952794	37744	106055	0	0	8186	750567	0	0
2024-04-23 18:45:32			0	34214	0	0	0	16724	15390	153358	27327	952829	37734	106054	0	0	8186	750379	0	0
2024-04-23 18:46:32			0	34184	0	0	0	16735	15370	153382	27338	952804	37732	106058	0	0	8184	751939	0	0
2024-04-23 18:47:32			0	34208	0	0	0	16737	15380	153334	27384	952838	37744	106059	0	0	8185	750715	0	0
2024-04-23 18:48:32			0	34188	0	0	0	16735	15390	153386	27137	952855	37734	106058	0	0	8184	751661	0	0
2024-04-23 18:49:32			0	34207	0	0	0	16735	15380	153386	27223	952768	37744	106058	0	0	8185	750764	0	0
2024-04-23 18:50:32			0	34195	0	0	0	16727	15380	153250	27476	952820	37733	106055	0	0	8185	751356	0	0
2024-04-23 18:51:32			0	34212	0	0	0	16732	15380	153322	27147	952812	37744	106057	0	0	8185	750518	0	0
2024-04-23 18:52:32			0	34213	0	0	0	16719	15380	153294	27303	952759	37744	106052	0	0	8186	750468	0	0
2024-04-23 18:53:32			0	34207	0	0	0	16724	15380	153222	27260	952768	37733	106054	0	0	8185	750764	0	0
2024-04-23 18:54:32			0	34232	0	0	0	16716	15380	153170	27329	952741	37733	106051	0	0	8187	749533	0	0
2024-04-23 18:55:32			0	34224	0	0	0	16714	15380	153134	27386	952741	37744	106050	0	0	8186	749927	0	0
2024-04-23 18:56:32			0	34227	0	0	0	16701	15370	153210	27436	952751	37721	106045	0	0	8187	749819	0	0
2024-04-23 18:57:32			0	34221	0	0	0	16696	15380	153274	27717	952759	37721	106043	0	0	8187	750074	0	0
2024-04-23 18:58:32			0	34224	0	0	0	16690	15370	153202	27286	952699	37732	106041	0	0	8187	749967	0	0
2024-04-23 18:59:32			0	34221	0	0	0	16690	15360	153250	27725	952701	37742	106041	0	0	8187	750155	0	0
2024-04-23 19:00:32			0	34237	0	0	0	16690	15350	153186	27588	952640	37741	106041	0	0	8187	749408	0	0
2024-04-23 19:01:32			0	34218	0	0	0	16683	15350	153066	27421	952632	37741	106038	0	0	8187	750343	0	0
2024-04-23 19:02:32			0	34221	0	0	0	16696	15360	153114	27616	952648	37731	106043	0	0	8187	750155	0	0
2024-04-23 19:03:32			0	34233	0	0	0	16696	15350	153154	27599	952693	37741	106043	0	0	8187	749605	0	0
2024-04-23 19:04:32			0	34211	0	0	0	16698	15350	153174	27303	952684	37741	106044	0	0	8186	750688	0	0
2024-04-23 19:05:32			0	34203	0	0	0	16685	15360	153250	27564	952674	37731	106039	0	0	8186	751042	0	0
2024-04-23 19:06:32			0	34203	0	0	0	16683	15350	153450	27334	952587	37741	106038	0	0	8186	751082	0	0
2024-04-23 19:07:32			0	34197	0	0	0	16688	15340	153398	27511	952676	37741	106040	0	0	8185	751419	0	0
2024-04-23 19:08:32			0	34185	0	0	0	16672	15340	153406	27535	952650	37730	106034	0	0	8185	752010	0	0
2024-04-23 19:09:32			0	34174	0	0	0	16677	15340	153358	27263	952624	37730	106036	0	0	8184	752554	0	0
2024-04-23 19:10:32			0	34160	0	0	0	16670	15340	153542	27338	952597	37741	106033	0	0	8183	753245	0	0
2024-04-23 19:11:32			0	34159	0	0	0	16675	15340	153478	27521	952624	37719	106035	0	0	8183	753294	0	0
2024-04-23 19:12:32			0	34179	0	0	0	16670	15340	153498	27343	952616	37729	106033	0	0	8184	752307	0	0
2024-04-23 19:13:32			0	34157	0	0	0	16675	15330	153466	27568	952660	37728	106035	0	0	8183	753434	0	0
2024-04-23 19:14:32			0	34158	0	0	0	16672	15330	153534	27301	952555	37728	106034	0	0	8183	753384	0	0
2024-04-23 19:15:32			0	34156	0	0	0	16667	15340	153438	27419	952589	37740	106032	0	0	8183	753443	0	0
2024-04-23 19:16:32			0	34146	0	0	0	16664	15340	153514	27279	952616	37729	106031	0	0	8183	753937	0	0
2024-04-23 19:17:32			0	34151	0	0	0	16667	15330	153470	27043	952607	37728	106032	0	0	8183	753730	0	0
2024-04-23 19:18:32			0	34150	0	0	0	16672	15330	153554	27417	952626	37728	106034	0	0	8183	753780	0	0
2024-04-23 19:19:32			0	34147	0	0	0	16672	15330	153542	27237	952599	37717	106034	0	0	8183	753928	0	0
2024-04-23 19:20:32			0	34126	0	0	0	16672	15330	153598	27256	952599	37739	106034	0	0	8181	754967	0	0
2024-04-23 19:21:32			0	34151	0	0	0	16670	15320	153702	27436	952618	37728	106033	0	0	8183	753771	0	0
2024-04-23 19:22:32			0	34143	0	0	0	16657	15320	153614	27246	952591	37728	106028	0	0	8182	754166	0	0
2024-04-23 19:23:32			0	34136	0	0	0	16654	15310	153522	27332	952549	37738	106027	0	0	8182	754553	0	0
2024-04-23 19:24:32			0	34140	0	0	0	16662	15320	153562	27277	952539	37739	106030	0	0	8182	754315	0	0
2024-04-23 19:25:32			0	34118	0	0	0	16662	15320	153674	27352	952591	37717	106030	0	0	8181	755404	0	0
2024-04-23 19:26:32			0	34144	0	0	0	16662	15310	153590	27324	952541	37727	106030	0	0	8182	754157	0	0
2024-04-23 19:27:32			0	34135	0	0	0	16667	15320	153638	27635	952557	37739	106032	0	0	8182	754562	0	0
2024-04-23 19:28:32			0	34117	0	0	0	16659	15310	153622	27237	952575	37727	106029	0	0	8181	755494	0	0
2024-04-23 19:29:32			0	34118	0	0	0	16672	15330	153702	27222	952547	37739	106034	0	0	8181	755363	0	0
2024-04-23 19:30:32			0	34136	0	0	0	16670	15310	153638	27543	952549	37738	106033	0	0	8182	754553	0	0
2024-04-23 19:31:32			0	34132	0	0	0	16662	15310	153694	27255	952575	37738	106030	0	0	8182	754751	0	0
2024-04-23 19:32:32			0	34135	0	0	0	16657	15310	153662	27222	952549	37727	106028	0	0	8182	754603	0	0
2024-04-23 19:33:32			0	34147	0	0	0	16657	15310	153550	27537	952522	37727	106028	0	0	8183	754009	0	0
2024-04-23 19:34:32			0	34121	0	0	0	16659	15310	153442	27211	952522	37716	106029	0	0	8181	755296	0	0
2024-04-23 19:35:32			0	34141	0	0	0	16664	15310	153562	27000	952488	37716	106031	0	0	8182	754306	0	0
2024-04-23 19:36:32			0	34133	0	0	0	16664	15310	153554	27537	952488	37727	106031	0	0	8182	754702	0	0
2024-04-23 19:37:32			0	34140	0	0	0	16654	15320	153550	26831	952557	37728	106027	0	0	8182	754315	0	0
2024-04-23 19:38:32			0	34136	0	0	0	16649	15310	153530	27203	952522	37738	106025	0	0	8182	754553	0	0
2024-04-23 19:39:32			0	34137	0	0	0	16641	15320	153586	27445	952478	37739	106022	0	0	8182	754463	0	0
2024-04-23 19:40:32			0	34126	0	0	0	16633	15300	153546	27119	952472	37737	106019	0	0	8182	755089	0	0
2024-04-23 19:41:32			0	34146	0	0	0	16625	15290	153574	27445	952411	37736	106016	0	0	8183	754140	0	0
2024-04-23 19:42:32			0	34135	0	0	0	16615	15300	153490	27308	952480	37716	106012	0	0	8183	754643	0	0
2024-04-23 19:43:32			0	34122	0	0	0	16625	15300	153582	27701	952419	37726	106016	0	0	8182	755287	0	0
2024-04-23 19:44:32			0	34122	0	0	0	16628	15290	153598	27336	952437	37714	106017	0	0	8182	755327	0	0
2024-04-23 19:45:32			0	34131	0	0	0	16631	15280	153646	27481	952403	37724	106018	0	0	8182	754922	0	0
2024-04-23 19:46:32			0	34126	0	0	0	16633	15290	153594	27317	952411	37725	106019	0	0	8182	755129	0	0
2024-04-23 19:47:32			0	34101	0	0	0	16631	15280	153614	27436	952429	37735	106018	0	0	8180	756408	0	0
2024-04-23 19:48:32			0	34124	0	0	0	16636	15280	153766	27183	952421	37724	106020	0	0	8182	755269	0	0
2024-04-23 19:49:32			0	34118	0	0	0	16631	15290	153706	27514	952411	37714	106018	0	0	8181	755525	0	0
2024-04-23 19:50:32			0	34127	0	0	0	16641	15270	153770	27213	952466	37735	106022	0	0	8182	755161	0	0
2024-04-23 19:51:32			0	34123	0	0	0	16654	15280	153690	27152	952455	37713	106027	0	0	8181	755318	0	0
2024-04-23 19:52:32			0	34113	0	0	0	16649	15280	153758	27152	952482	37724	106025	0	0	8181	755814	0	0
2024-04-23 19:53:32			0	34109	0	0	0	16646	15290	153794	27377	952437	37736	106024	0	0	8181	755971	0	0
2024-04-23 19:54:32			0	34098	0	0	0	16646	15290	153698	27242	952411	37736	106024	0	0	8180	756516	0	0
2024-04-23 19:55:32			0	34125	0	0	0	16649	15270	153754	27263	952387	37724	106025	0	0	8181	755260	0	0
2024-04-23 19:56:32			0	34106	0	0	0	16646	15290	153786	27161	952516	37714	106024	0	0	8180	756120	0	0
2024-04-23 19:57:32			0	34102	0	0	0	16646	15300	153790	27133	952419	37726	106024	0	0	8180	756277	0	0
2024-04-23 19:58:32			0	34101	0	0	0	16651	15280	153794	27197	952403	37735	106026	0	0	8180	756408	0	0
2024-04-23 19:59:32			0	34105	0	0	0	16649	15280	153898	27187	952500	37724	106025	0	0	8180	756210	0	0
2024-04-23 20:00:32			0	34092	0	0	0	16644	15280	153786	27069	952455	37735	106023	0	0	8180	756855	0	0
2024-04-23 20:01:32			0	34104	0	0	0	16651	15280	153822	27227	952474	37724	106026	0	0	8180	756260	0	0
2024-04-23 20:02:32			0	34115	0	0	0	16633	15280	153746	27149	952482	37713	106019	0	0	8181	755715	0	0
2024-04-23 20:03:32			0	34110	0	0	0	16651	15290	153790	27251	952490	37725	106026	0	0	8181	755922	0	0
2024-04-23 20:04:32			0	34115	0	0	0	16649	15300	153678	27421	952472	37737	106025	0	0	8181	755633	0	0
2024-04-23 20:05:32			0	34110	0	0	0	16649	15280	153658	27421	952526	37735	106025	0	0	8181	755962	0	0
2024-04-23 20:06:32			0	34115	0	0	0	16649	15290	153714	27298	952464	37725	106025	0	0	8181	755674	0	0
2024-04-23 20:07:32			0	34116	0	0	0	16644	15280	153714	27464	952508	37724	106023	0	0	8181	755665	0	0
2024-04-23 20:08:32			0	34113	0	0	0	16649	15280	153646	27367	952474	37735	106025	0	0	8181	755814	0	0
2024-04-23 20:09:32			0	34131	0	0	0	16646	15290	153638	27222	952437	37725	106024	0	0	8182	754882	0	0
2024-04-23 20:10:32			0	34144	0	0	0	16638	15300	153574	27185	952498	37726	106021	0	0	8183	754198	0	0
2024-04-23 20:11:32			0	34150	0	0	0	16641	15290	153558	27074	952516	37725	106022	0	0	8183	753942	0	0
2024-04-23 20:12:32			0	34125	0	0	0	16644	15280	153522	27402	952482	37735	106023	0	0	8181	755219	0	0
2024-04-23 20:13:32			0	34152	0	0	0	16636	15280	153598	27258	952447	37713	106020	0	0	8183	753883	0	0
2024-04-23 20:14:32			0	34147	0	0	0	16633	15260	153546	27166	952370	37723	106019	0	0	8183	754212	0	0
2024-04-23 20:15:32			0	34154	0	0	0	16633	15280	153486	27183	952429	37735	106019	0	0	8183	753785	0	0
2024-04-23 20:16:32			0	34160	0	0	0	16628	15280	153570	27357	952508	37713	106017	0	0	8184	753488	0	0
2024-04-23 20:17:32			0	34159	0	0	0	16631	15280	153582	27281	952455	37724	106018	0	0	8184	753537	0	0
2024-04-23 20:18:32			0	34175	0	0	0	16628	15280	153546	27331	952447	37735	106017	0	0	8185	752747	0	0
2024-04-23 20:19:32			0	34163	0	0	0	16631	15280	153502	27301	952429	37713	106018	0	0	8184	753340	0	0
2024-04-23 20:20:32			0	34154	0	0	0	16625	15270	153518	27255	952405	37723	106016	0	0	8183	753825	0	0
2024-04-23 20:21:32			0	34164	0	0	0	16628	15280	153566	27523	952447	37735	106017	0	0	8184	753290	0	0
2024-04-23 20:22:32			0	34163	0	0	0	16636	15270	153478	26717	952466	37724	106020	0	0	8184	753380	0	0
2024-04-23 20:23:32			0	34160	0	0	0	16631	15270	153498	27254	952413	37735	106018	0	0	8184	753528	0	0
2024-04-23 20:24:32			0	34176	0	0	0	16625	15260	153550	27180	952397	37745	106016	0	0	8185	752778	0	0
2024-04-23 20:25:32			0	34156	0	0	0	16618	15270	153526	27098	952431	37723	106013	0	0	8184	753726	0	0
2024-04-23 20:26:32			0	34168	0	0	0	16615	15270	153602	27294	952431	37746	106012	0	0	8184	753133	0	0
2024-04-23 20:27:32			0	34149	0	0	0	16615	15260	153510	27029	952397	37734	106012	0	0	8183	754113	0	0
2024-04-23 20:28:32			0	34152	0	0	0	16612	15270	153502	27305	952405	37734	106011	0	0	8184	753924	0	0
2024-04-23 20:29:32			0	34157	0	0	0	16612	15270	153578	27116	952387	37724	106011	0	0	8184	753677	0	0
2024-04-23 20:30:32			0	34149	0	0	0	16612	15250	153614	27206	952380	37723	106011	0	0	8183	754153	0	0
2024-04-23 20:31:32			0	34159	0	0	0	16610	15260	153586	27246	952389	37734	106010	0	0	8184	753618	0	0
2024-04-23 20:32:32			0	34153	0	0	0	16605	15260	153518	27098	952389	37723	106008	0	0	8184	753915	0	0
2024-04-23 20:33:32			0	34169	0	0	0	16602	15260	153526	27301	952389	37723	106007	0	0	8185	753124	0	0
2024-04-23 20:34:32			0	34160	0	0	0	16607	15260	153534	27372	952336	37734	106009	0	0	8184	753569	0	0
2024-04-23 20:35:32			0	34148	0	0	0	16597	15250	153558	27270	952354	37723	106005	0	0	8183	754203	0	0
2024-04-23 20:36:32			0	34142	0	0	0	16597	15250	153586	27128	952346	37711	106005	0	0	8183	754500	0	0
2024-04-23 20:37:32			0	34156	0	0	0	16592	15250	153630	26977	952407	37734	106003	0	0	8184	753807	0	0
2024-04-23 20:38:32			0	34145	0	0	0	16597	15240	153614	27208	952311	37732	106005	0	0	8183	754392	0	0
2024-04-23 20:39:32			0	34159	0	0	0	16594	15240	153498	27235	952338	37732	106004	0	0	8184	753699	0	0
2024-04-23 20:40:32			0	34150	0	0	0	16594	15240	153462	27156	952311	37721	106004	0	0	8184	754144	0	0
2024-04-23 20:41:32			0	34145	0	0	0	16597	15240	153618	26963	952356	37710	106005	0	0	8183	754392	0	0
2024-04-23 20:42:32			0	34159	0	0	0	16586	15240	153470	27374	952303	37721	106001	0	0	8184	753699	0	0
2024-04-23 20:43:32			0	34152	0	0	0	16597	15240	153514	27474	952311	37732	106005	0	0	8184	754045	0	0
2024-04-23 20:44:32			0	34144	0	0	0	16602	15240	153446	27275	952338	37732	106007	0	0	8183	754441	0	0
2024-04-23 20:45:32			0	34148	0	0	0	16599	15240	153578	27124	952364	37721	106006	0	0	8183	754243	0	0
2024-04-23 20:46:32			0	34129	0	0	0	16592	15230	153582	27053	952295	37721	106003	0	0	8182	755224	0	0
2024-04-23 20:47:32			0	34148	0	0	0	16597	15240	153746	27365	952251	37710	106005	0	0	8183	754243	0	0
2024-04-23 20:48:32			0	34142	0	0	0	16586	15250	153654	27569	952293	37722	106001	0	0	8183	754500	0	0
2024-04-23 20:49:32			0	34115	0	0	0	16574	15230	153642	27324	952321	37710	105996	0	0	8182	755918	0	0
2024-04-23 20:50:32			0	34134	0	0	0	16574	15230	153714	27303	952269	37710	105996	0	0	8183	754977	0	0
2024-04-23 20:51:32			0	34124	0	0	0	16579	15230	153690	27315	952208	37720	105998	0	0	8182	755472	0	0
2024-04-23 20:52:32			0	34111	0	0	0	16574	15230	153806	27320	952208	37709	105996	0	0	8182	756116	0	0
2024-04-23 20:53:32			0	34119	0	0	0	16563	15220	153750	27104	952253	37719	105992	0	0	8182	755760	0	0
2024-04-23 20:54:32			0	34138	0	0	0	16579	15220	153830	27114	952253	37719	105998	0	0	8183	754819	0	0
2024-04-23 20:55:32			0	34102	0	0	0	16576	15220	153738	27296	952305	37708	105997	0	0	8181	756603	0	0
2024-04-23 20:56:32			0	34099	0	0	0	16579	15220	153930	26934	952226	37730	105998	0	0	8181	756751	0	0
2024-04-23 20:57:32			0	34090	0	0	0	16571	15220	153926	27299	952305	37719	105995	0	0	8180	757198	0	0
2024-04-23 20:58:32			0	34099	0	0	0	16566	15220	153910	26937	952226	37719	105993	0	0	8181	756751	0	0
2024-04-23 20:59:32			0	34086	0	0	0	16561	15220	153858	27182	952218	37708	105991	0	0	8180	757396	0	0
2024-04-23 21:00:32			0	34101	0	0	0	16555	15220	153910	27152	952218	37718	105989	0	0	8181	756652	0	0
2024-04-23 21:01:32			0	34078	0	0	0	16553	15210	153858	27386	952210	37718	105988	0	0	8180	757834	0	0
2024-04-23 21:02:32			0	34094	0	0	0	16558	15220	153906	27201	952218	37708	105990	0	0	8181	756999	0	0
2024-04-23 21:03:32			0	34087	0	0	0	16568	15210	153922	27059	952105	37718	105994	0	0	8180	757387	0	0
2024-04-23 21:04:32			0	34076	0	0	0	16568	15210	153954	27001	952236	37718	105994	0	0	8180	757933	0	0
2024-04-23 21:05:32			0	34077	0	0	0	16571	15210	153974	27046	952149	37708	105995	0	0	8180	757884	0	0
2024-04-23 21:06:32			0	34070	0	0	0	16568	15210	154010	27140	952210	37718	105994	0	0	8179	758231	0	0
2024-04-23 21:07:32			0	34083	0	0	0	16548	15210	153982	27268	952184	37718	105986	0	0	8180	757586	0	0
2024-04-23 21:08:32			0	34068	0	0	0	16553	15210	154214	27268	952176	37708	105988	0	0	8179	758331	0	0
2024-04-23 21:09:32			0	34059	0	0	0	16553	15210	154086	27384	952157	37718	105988	0	0	8179	758778	0	0
2024-04-23 21:10:32			0	34051	0	0	0	16540	15210	154090	27447	952149	37718	105983	0	0	8179	759176	0	0
2024-04-23 21:11:32			0	34060	0	0	0	16529	15210	154042	27331	952123	37718	105979	0	0	8179	758728	0	0
2024-04-23 21:12:32			0	34043	0	0	0	16532	15200	154138	27545	952141	37717	105980	0	0	8178	759614	0	0
2024-04-23 21:13:32			0	34059	0	0	0	16537	15200	154106	27350	952133	37717	105982	0	0	8179	758819	0	0
2024-04-23 21:14:32			0	34062	0	0	0	16537	15200	154202	27407	952133	37717	105982	0	0	8179	758670	0	0
2024-04-23 21:15:32			0	34037	0	0	0	16540	15200	154230	27524	952133	37717	105983	0	0	8178	759913	0	0
2024-04-23 21:16:32			0	34027	0	0	0	16542	15190	154214	27365	952125	37717	105984	0	0	8177	760451	0	0
2024-04-23 21:17:32			0	34036	0	0	0	16555	15190	154182	27592	952125	37717	105989	0	0	8177	760004	0	0
2024-04-23 21:18:32			0	34031	0	0	0	16548	15200	154262	27019	952107	37717	105986	0	0	8177	760212	0	0
2024-04-23 21:19:32			0	34040	0	0	0	16553	15190	154286	27384	952178	37728	105988	0	0	8178	759804	0	0
2024-04-23 21:20:32			0	34029	0	0	0	16550	15190	154330	27026	952125	37717	105987	0	0	8177	760352	0	0
2024-04-23 21:21:32			0	34029	0	0	0	16540	15200	154254	27204	952133	37717	105983	0	0	8177	760311	0	0
2024-04-23 21:22:32			0	34024	0	0	0	16527	15190	154346	27357	952099	37728	105978	0	0	8177	760601	0	0
2024-04-23 21:23:32			0	34006	0	0	0	16529	15190	154306	27088	952072	37717	105979	0	0	8176	761497	0	0
2024-04-23 21:24:32			0	34018	0	0	0	16527	15190	154318	27274	952090	37728	105978	0	0	8177	760900	0	0
2024-04-23 21:25:32			0	34022	0	0	0	16485	15190	154282	26968	952038	37707	105962	0	0	8178	760701	0	0
2024-04-23 21:26:32			0	34026	0	0	0	16490	15180	154294	27312	952030	37716	105964	0	0	8178	760542	0	0
2024-04-23 21:27:32			0	34004	0	0	0	16485	15170	154294	27450	952058	37715	105962	0	0	8177	761679	0	0
2024-04-23 21:28:32			0	34013	0	0	0	16503	15170	154282	27518	952066	37705	105969	0	0	8177	761231	0	0
2024-04-23 21:29:32			0	34014	0	0	0	16511	15160	154358	27121	951945	37704	105972	0	0	8177	761222	0	0
2024-04-23 21:30:32			0	34030	0	0	0	16522	15160	154258	27039	951997	37714	105976	0	0	8177	760425	0	0
2024-04-23 21:31:32			0	33996	0	0	0	16532	15170	154406	27253	952058	37715	105980	0	0	8175	762078	0	0
2024-04-23 21:32:32			0	34004	0	0	0	16529	15170	154462	27216	952032	37715	105979	0	0	8176	761679	0	0
2024-04-23 21:33:32			0	33988	0	0	0	16527	15170	154470	27097	952014	37726	105978	0	0	8175	762477	0	0
2024-04-23 21:34:32			0	33989	0	0	0	16535	15180	154498	27097	952048	37715	105981	0	0	8175	762386	0	0
2024-04-23 21:35:32			0	33997	0	0	0	16532	15170	154374	27261	952032	37715	105980	0	0	8175	762028	0	0
2024-04-23 21:36:32			0	33982	0	0	0	16509	15170	154458	27048	952014	37694	105971	0	0	8175	762777	0	0
2024-04-23 21:37:32			0	33979	0	0	0	16509	15160	154494	27239	951945	37704	105971	0	0	8175	762967	0	0
2024-04-23 21:38:32			0	33975	0	0	0	16511	15170	154522	27282	952014	37715	105972	0	0	8174	763126	0	0
2024-04-23 21:39:32			0	33977	0	0	0	16516	15160	154466	27206	952016	37724	105974	0	0	8174	763067	0	0
2024-04-23 21:40:32			0	34004	0	0	0	16501	15160	154574	26981	951945	37714	105968	0	0	8176	761720	0	0
2024-04-23 21:41:32			0	33963	0	0	0	16503	15160	154462	27008	951963	37724	105969	0	0	8174	763766	0	0
2024-04-23 21:42:32			0	33983	0	0	0	16503	15160	154482	27275	951989	37713	105969	0	0	8175	762767	0	0
2024-04-23 21:43:32			0	33978	0	0	0	16477	15160	154550	27038	952016	37724	105959	0	0	8175	763017	0	0
2024-04-23 21:44:32			0	33982	0	0	0	16451	15150	154510	26961	951902	37702	105949	0	0	8176	762858	0	0
2024-04-23 21:45:32			0	33969	0	0	0	16449	15150	154454	27350	951947	37702	105948	0	0	8175	763507	0	0
2024-04-23 21:46:32			0	33978	0	0	0	16459	15150	154530	27320	951955	37702	105952	0	0	8175	763058	0	0
2024-04-23 21:47:32			0	33959	0	0	0	16480	15140	154658	27391	951904	37712	105960	0	0	8174	764048	0	0
2024-04-23 21:48:32			0	33966	0	0	0	16488	15140	154554	27241	951878	37701	105963	0	0	8174	763698	0	0
2024-04-23 21:49:32			0	33955	0	0	0	16483	15150	154650	26892	951920	37712	105961	0	0	8174	764207	0	0
2024-04-23 21:50:32			0	33955	0	0	0	16483	15130	154578	27173	951922	37711	105961	0	0	8174	764289	0	0
2024-04-23 21:51:32			0	33960	0	0	0	16498	15140	154602	26987	951904	37712	105967	0	0	8174	763998	0	0
2024-04-23 21:52:32			0	33948	0	0	0	16501	15150	154614	27007	951868	37702	105968	0	0	8173	764557	0	0
2024-04-23 21:53:32			0	33952	0	0	0	16488	15140	154550	27060	951912	37702	105963	0	0	8173	764398	0	0
2024-04-23 21:54:32			0	33964	0	0	0	16501	15140	154622	27256	952018	37712	105968	0	0	8174	763798	0	0
2024-04-23 21:55:32			0	33957	0	0	0	16516	15140	154594	27000	951930	37712	105974	0	0	8173	764148	0	0
2024-04-23 21:56:32			0	33957	0	0	0	16506	15140	154590	27003	951965	37712	105970	0	0	8173	764148	0	0
2024-04-23 21:57:32			0	33950	0	0	0	16509	15130	154694	27215	951922	37711	105971	0	0	8173	764539	0	0
2024-04-23 21:58:32			0	33959	0	0	0	16485	15140	154690	27424	951991	37712	105962	0	0	8174	764048	0	0
2024-04-23 21:59:32			0	33953	0	0	0	16475	15140	154682	27066	951991	37702	105958	0	0	8174	764348	0	0
2024-04-23 22:00:32			0	33961	0	0	0	16446	15140	154646	27215	951878	37701	105947	0	0	8175	763948	0	0
2024-04-23 22:01:32			0	33931	0	0	0	16449	15130	154606	27159	951861	37711	105948	0	0	8173	765490	0	0
2024-04-23 22:02:32			0	33905	0	0	0	16485	15130	154730	27280	951888	37711	105962	0	0	8171	766792	0	0
2024-04-23 22:03:32			0	33900	0	0	0	16498	15130	154930	27391	951896	37711	105967	0	0	8170	767042	0	0
2024-04-23 22:04:32			0	33903	0	0	0	16493	15130	154942	27442	951835	37722	105965	0	0	8170	766892	0	0
2024-04-23 22:05:32			0	33916	0	0	0	16501	15140	154982	27159	951852	37712	105968	0	0	8171	766200	0	0
2024-04-23 22:06:32			0	33901	0	0	0	16488	15140	154878	27192	951957	37712	105963	0	0	8170	766951	0	0
2024-04-23 22:07:32			0	33905	0	0	0	16490	15130	154798	27457	951888	37711	105964	0	0	8171	766792	0	0
2024-04-23 22:08:32			0	33907	0	0	0	16485	15140	154886	27711	951930	37701	105962	0	0	8171	766650	0	0
2024-04-23 22:09:32			0	33882	0	0	0	16467	15140	154934	27027	951878	37701	105955	0	0	8170	767904	0	0
2024-04-23 22:10:32			0	33869	0	0	0	16451	15130	155006	27434	951843	37711	105949	0	0	8169	768598	0	0
2024-04-23 22:11:32			0	33854	0	0	0	16470	15140	155138	27164	951904	37701	105956	0	0	8168	769310	0	0
2024-04-23 22:12:32			0	33848	0	0	0	16483	15130	155086	27182	951888	37701	105961	0	0	8167	769653	0	0
2024-04-23 22:13:32			0	33851	0	0	0	16472	15130	155178	27215	951914	37701	105957	0	0	8168	769502	0	0
2024-04-23 22:14:32			0	33850	0	0	0	16485	15130	155078	27459	951888	37701	105962	0	0	8167	769553	0	0
2024-04-23 22:15:32			0	33852	0	0	0	16485	15130	155098	27410	951967	37722	105962	0	0	8168	769452	0	0
2024-04-23 22:16:32			0	33839	0	0	0	16480	15120	155186	27052	951906	37711	105960	0	0	8167	770147	0	0
2024-04-23 22:17:32			0	33829	0	0	0	16477	15130	155154	26967	951975	37701	105959	0	0	8166	770609	0	0
2024-04-23 22:18:32			0	33839	0	0	0	16475	15120	155198	27079	951898	37721	105958	0	0	8167	770147	0	0
2024-04-23 22:19:32			0	33836	0	0	0	16490	15120	155322	27313	951932	37711	105964	0	0	8166	770298	0	0
2024-04-23 22:20:32			0	33827	0	0	0	16490	15130	155214	27258	951940	37733	105964	0	0	8166	770709	0	0
2024-04-23 22:21:32			0	33830	0	0	0	16477	15120	155322	27189	951906	37711	105959	0	0	8166	770599	0	0
2024-04-23 22:22:32			0	33817	0	0	0	16477	15120	155246	27022	951906	37701	105959	0	0	8166	771254	0	0
2024-04-23 22:23:32			0	33808	0	0	0	16480	15120	155294	27027	951871	37710	105960	0	0	8165	771707	0	0
2024-04-23 22:24:32			0	33798	0	0	0	16485	15120	155430	26949	951853	37722	105962	0	0	8164	772211	0	0
2024-04-23 22:25:32			0	33782	0	0	0	16477	15120	155626	27208	951906	37701	105959	0	0	8164	773018	0	0
2024-04-23 22:26:32			0	33761	0	0	0	16475	15130	155494	27074	951896	37711	105958	0	0	8162	774036	0	0
2024-04-23 22:27:32			0	33747	0	0	0	16472	15120	155614	27185	951880	37701	105957	0	0	8162	774785	0	0
2024-04-23 22:28:32			0	33714	0	0	0	16477	15120	155734	26849	951853	37701	105959	0	0	8160	776454	0	0
2024-04-23 22:29:32			0	33715	0	0	0	16488	15120	155766	27130	951871	37710	105963	0	0	8159	776404	0	0
2024-04-23 22:30:32			0	33703	0	0	0	16493	15130	155874	26814	951922	37711	105965	0	0	8159	776970	0	0
2024-04-23 22:31:32			0	33702	0	0	0	16454	15110	155758	27066	951916	37709	105950	0	0	8159	777104	0	0
2024-04-23 22:32:32			0	33713	0	0	0	16444	15120	155806	27171	951853	37711	105946	0	0	8160	776505	0	0
2024-04-23 22:33:32			0	33719	0	0	0	16449	15130	155878	27346	951888	37701	105948	0	0	8160	776159	0	0
2024-04-23 22:34:32			0	33704	0	0	0	16475	15110	155786	27029	951750	37709	105958	0	0	8159	777002	0	0
2024-04-23 22:35:32			0	33712	0	0	0	16472	15110	155854	27345	951837	37699	105957	0	0	8159	776597	0	0
2024-04-23 22:36:32			0	33697	0	0	0	16449	15110	155798	27173	951855	37709	105948	0	0	8159	777357	0	0
2024-04-23 22:37:32			0	33709	0	0	0	16459	15110	155850	27171	951776	37688	105952	0	0	8159	776749	0	0
2024-04-23 22:38:32			0	33708	0	0	0	16457	15110	155790	27074	951855	37709	105951	0	0	8159	776800	0	0
2024-04-23 22:39:32			0	33696	0	0	0	16470	15100	155818	27576	951821	37699	105956	0	0	8158	777449	0	0
2024-04-23 22:40:32			0	33699	0	0	0	16480	15110	155890	27343	951855	37709	105960	0	0	8159	777256	0	0
2024-04-23 22:41:32			0	33687	0	0	0	16457	15120	155866	27177	951792	37700	105951	0	0	8158	777822	0	0
2024-04-23 22:42:32			0	33698	0	0	0	16454	15110	155926	27557	951776	37699	105950	0	0	8159	777306	0	0
2024-04-23 22:43:32			0	33702	0	0	0	16462	15100	155862	27604	951821	37699	105953	0	0	8159	777145	0	0
2024-04-23 22:44:32			0	33679	0	0	0	16464	15110	156010	27831	951837	37688	105954	0	0	8158	778270	0	0
2024-04-23 22:45:32			0	33645	0	0	0	16459	15100	156102	27303	951794	37699	105952	0	0	8156	780037	0	0
2024-04-23 22:46:32			0	33645	0	0	0	16467	15100	156174	27386	951900	37709	105955	0	0	8156	780037	0	0
2024-04-23 22:47:32			0	33621	0	0	0	16457	15100	156362	27229	951794	37699	105951	0	0	8154	781258	0	0
2024-04-23 22:48:32			0	33617	0	0	0	16459	15100	156278	26970	951821	37699	105952	0	0	8154	781461	0	0
2024-04-23 22:49:32			0	33593	0	0	0	16464	15090	156322	27410	951752	37708	105954	0	0	8152	782725	0	0
2024-04-23 22:50:32			0	33604	0	0	0	16459	15100	156442	27452	951794	37699	105952	0	0	8153	782123	0	0
2024-04-23 22:51:32			0	33594	0	0	0	16464	15100	156542	27090	951786	37708	105954	0	0	8153	782632	0	0
2024-04-23 22:52:32			0	33577	0	0	0	16470	15100	156482	27367	951794	37709	105956	0	0	8151	783499	0	0
2024-04-23 22:53:32			0	33576	0	0	0	16457	15090	156561	27081	951805	37719	105951	0	0	8152	783592	0	0
2024-04-23 22:54:32			0	33562	0	0	0	16449	15090	156481	27410	951778	37708	105948	0	0	8151	784306	0	0
2024-04-23 22:55:32			0	33585	0	0	0	16433	15100	156534	26958	951768	37709	105942	0	0	8153	783091	0	0
2024-04-23 22:56:32			0	33568	0	0	0	16431	15090	156522	27332	951691	37697	105941	0	0	8152	784000	0	0
2024-04-23 22:57:32			0	33543	0	0	0	16441	15090	156481	26930	951805	37697	105945	0	0	8150	785276	0	0
2024-04-23 22:58:32			0	33567	0	0	0	16449	15090	156638	27260	951778	37708	105948	0	0	8151	784051	0	0
2024-04-23 22:59:32			0	33553	0	0	0	16457	15090	156577	27241	951805	37708	105951	0	0	8150	784766	0	0
2024-04-23 23:00:32			0	33555	0	0	0	16449	15090	156573	27447	951752	37708	105948	0	0	8150	784663	0	0
2024-04-23 23:01:32			0	33548	0	0	0	16441	15100	156669	27459	951786	37708	105945	0	0	8150	784979	0	0
2024-04-23 23:02:32			0	33548	0	0	0	16431	15090	156585	27357	951744	37708	105941	0	0	8150	785021	0	0
2024-04-23 23:03:32			0	33557	0	0	0	16423	15100	156689	27504	951716	37688	105938	0	0	8151	784519	0	0
2024-04-23 23:04:32			0	33536	0	0	0	16431	15090	156721	27486	951770	37718	105941	0	0	8150	785634	0	0
2024-04-23 23:05:32			0	33508	0	0	0	16436	15080	156741	27043	951736	37708	105943	0	0	8148	787108	0	0
2024-04-23 23:06:32			0	33494	0	0	0	16441	15080	156905	27092	951736	37697	105945	0	0	8147	787825	0	0
2024-04-23 23:07:32			0	33479	0	0	0	16441	15080	156953	27336	951780	37697	105945	0	0	8146	788594	0	0
2024-04-23 23:08:32			0	33486	0	0	0	16436	15080	157017	27215	951736	37718	105943	0	0	8147	788235	0	0
2024-04-23 23:09:32			0	33482	0	0	0	16425	15080	157061	27595	951728	37708	105939	0	0	8146	788440	0	0
2024-04-23 23:10:32			0	33463	0	0	0	16444	15070	157173	27220	951693	37707	105946	0	0	8145	789457	0	0
2024-04-23 23:11:32			0	33458	0	0	0	16425	15080	157085	27268	951701	37685	105939	0	0	8145	789671	0	0
2024-04-23 23:12:32			0	33448	0	0	0	16428	15080	157145	27358	951728	37708	105940	0	0	8144	790184	0	0
2024-04-23 23:13:32			0	33439	0	0	0	16425	15070	157237	27350	951685	37695	105939	0	0	8144	790689	0	0
2024-04-23 23:14:32			0	33422	0	0	0	16418	15070	157305	27339	951746	37717	105936	0	0	8143	791563	0	0
2024-04-23 23:15:32			0	33413	0	0	0	16415	15070	157365	27367	951693	37696	105935	0	0	8142	792026	0	0
2024-04-23 23:16:32			0	33395	0	0	0	16423	15070	157461	26916	951659	37695	105938	0	0	8141	792952	0	0
2024-04-23 23:17:32			0	33383	0	0	0	16436	15070	157509	27168	951659	37684	105943	0	0	8140	793570	0	0
2024-04-23 23:18:32			0	33373	0	0	0	16444	15060	157533	27093	951651	37706	105946	0	0	8140	794128	0	0
2024-04-23 23:19:32			0	33381	0	0	0	16449	15070	157545	27019	951667	37717	105948	0	0	8140	793673	0	0
2024-04-23 23:20:32			0	33388	0	0	0	16454	15070	157605	27455	951719	37696	105950	0	0	8140	793313	0	0
2024-04-23 23:21:32			0	33398	0	0	0	16451	15070	157457	27142	951790	37706	105949	0	0	8141	792798	0	0
2024-04-23 23:22:32			0	33389	0	0	0	16418	15070	157465	27203	951719	37696	105936	0	0	8141	793261	0	0
2024-04-23 23:23:32			0	33370	0	0	0	16420	15070	157497	27265	951693	37707	105937	0	0	8140	794241	0	0
2024-04-23 23:24:32			0	33357	0	0	0	16425	15070	157569	27069	951693	37696	105939	0	0	8139	794911	0	0
2024-04-23 23:25:32			0	33358	0	0	0	16428	15070	157625	27267	951685	37695	105940	0	0	8139	794859	0	0
2024-04-23 23:26:32			0	33341	0	0	0	16428	15060	157613	27338	951703	37716	105940	0	0	8138	795780	0	0
2024-04-23 23:27:32			0	33331	0	0	0	16423	15070	157557	27357	951667	37707	105938	0	0	8137	796253	0	0
2024-04-23 23:28:32			0	33339	0	0	0	16410	15070	157665	27461	951659	37695	105933	0	0	8138	795840	0	0
2024-04-23 23:29:32			0	33318	0	0	0	16394	15070	157689	27542	951693	37707	105927	0	0	8137	796925	0	0
2024-04-23 23:30:32			0	33319	0	0	0	16392	15070	157733	27452	951659	37695	105926	0	0	8137	796874	0	0
2024-04-23 23:31:32			0	33304	0	0	0	16392	15060	157865	27530	951564	37695	105926	0	0	8136	797692	0	0
2024-04-23 23:32:32			0	33290	0	0	0	16399	15050	157857	27211	951582	37705	105929	0	0	8135	798460	0	0
2024-04-23 23:33:32			0	33289	0	0	0	16399	15050	157957	27424	951582	37694	105929	0	0	8135	798512	0	0
2024-04-23 23:34:32			0	33283	0	0	0	16387	15050	157893	27274	951582	37694	105924	0	0	8135	798822	0	0
2024-04-23 23:35:32			0	33275	0	0	0	16399	15050	157925	27187	951529	37694	105929	0	0	8134	799237	0	0
2024-04-23 23:36:32			0	33268	0	0	0	16392	15050	157853	27372	951574	37693	105926	0	0	8134	799600	0	0
2024-04-23 23:37:32			0	33287	0	0	0	16394	15050	157877	27353	951521	37693	105927	0	0	8135	798615	0	0
2024-04-23 23:38:32			0	33266	0	0	0	16402	15040	158001	27310	951584	37704	105930	0	0	8134	799747	0	0
2024-04-23 23:39:32			0	33281	0	0	0	16407	15050	157945	27345	951574	37693	105932	0	0	8135	798926	0	0
2024-04-23 23:40:32			0	33267	0	0	0	16399	15050	157985	27644	951600	37704	105929	0	0	8134	799652	0	0
2024-04-23 23:41:32			0	33273	0	0	0	16410	15050	158129	27279	951679	37693	105933	0	0	8134	799341	0	0
2024-04-23 23:42:32			0	33268	0	0	0	16418	15040	158013	27079	951645	37693	105936	0	0	8134	799643	0	0
2024-04-23 23:43:32			0	33291	0	0	0	16420	15050	158065	27081	951653	37704	105937	0	0	8135	798408	0	0
2024-04-23 23:44:32			0	33260	0	0	0	16415	15050	158009	27533	951634	37715	105935	0	0	8133	800015	0	0
2024-04-23 23:45:32			0	33268	0	0	0	16420	15050	158085	27100	951661	37715	105937	0	0	8134	799600	0	0
2024-04-23 23:46:32			0	33285	0	0	0	16405	15050	158009	27277	951626	37714	105931	0	0	8135	798719	0	0
2024-04-23 23:47:32			0	33275	0	0	0	16389	15050	158085	27206	951582	37705	105925	0	0	8135	799237	0	0
2024-04-23 23:48:32			0	33266	0	0	0	16407	15040	158085	27152	951584	37704	105932	0	0	8134	799747	0	0
2024-04-23 23:49:32			0	33270	0	0	0	16405	15050	158009	27341	951608	37705	105931	0	0	8134	799496	0	0
2024-04-23 23:50:32			0	33259	0	0	0	16394	15040	158153	27518	951645	37714	105927	0	0	8133	800110	0	0
2024-04-23 23:51:32			0	33245	0	0	0	16384	15040	158113	27287	951531	37704	105923	0	0	8133	800836	0	0
2024-04-23 23:52:32			0	33241	0	0	0	16399	15040	158361	27024	951566	37714	105929	0	0	8132	801044	0	0
2024-04-23 23:53:32			0	33231	0	0	0	16412	15040	158269	27008	951558	37704	105934	0	0	8131	801563	0	0
2024-04-23 23:54:32			0	33242	0	0	0	16415	15050	158269	27093	951653	37704	105935	0	0	8132	800949	0	0
2024-04-23 23:55:32			0	33255	0	0	0	16423	15040	158233	27008	951618	37714	105938	0	0	8133	800317	0	0
2024-04-23 23:56:32			0	33255	0	0	0	16428	15050	158181	27434	951705	37714	105940	0	0	8133	800274	0	0
2024-04-23 23:57:32			0	33250	0	0	0	16402	15050	158137	27360	951679	37693	105930	0	0	8133	800534	0	0
2024-04-23 23:58:32			0	33244	0	0	0	16418	15040	158221	27441	951592	37693	105936	0	0	8132	800888	0	0
2024-04-23 23:59:32			0	33239	0	0	0	16431	15060	158153	27395	951695	37716	105941	0	0	8132	801062	0	0
2024-04-24 00:00:32			0	33227	0	0	0	16407	15050	158165	27131	951687	37715	105932	0	0	8131	801728	0	0
2024-04-24 00:01:32			0	33247	0	0	0	16405	15050	158097	27270	951687	37694	105931	0	0	8133	800689	0	0
2024-04-24 00:02:32			0	33230	0	0	0	16405	15040	158237	27237	951645	37704	105931	0	0	8131	801615	0	0
2024-04-24 00:03:32			0	33208	0	0	0	16387	15040	158421	27017	951513	37704	105924	0	0	8130	802759	0	0
2024-04-24 00:04:32			0	33232	0	0	0	16415	15040	158349	27398	951592	37714	105935	0	0	8131	801511	0	0
2024-04-24 00:05:32			0	33228	0	0	0	16431	15050	158285	27066	951661	37694	105941	0	0	8131	801676	0	0
2024-04-24 00:06:32			0	33235	0	0	0	16397	15040	158193	27196	951636	37714	105928	0	0	8132	801356	0	0
2024-04-24 00:07:32			0	33208	0	0	0	16407	15050	158305	27218	951608	37715	105932	0	0	8130	802716	0	0
2024-04-24 00:08:32			0	33225	0	0	0	16407	15050	158317	26932	951634	37694	105932	0	0	8131	801832	0	0
2024-04-24 00:09:32			0	33217	0	0	0	16412	15040	158293	27232	951513	37693	105934	0	0	8131	802291	0	0
2024-04-24 00:10:32			0	33222	0	0	0	16433	15050	158213	27177	951661	37705	105942	0	0	8131	801988	0	0
2024-04-24 00:11:32			0	33220	0	0	0	16389	15050	158285	27365	951600	37714	105925	0	0	8131	802092	0	0
2024-04-24 00:12:32			0	33239	0	0	0	16418	15050	158237	27066	951600	37704	105936	0	0	8132	801105	0	0
2024-04-24 00:13:32			0	33232	0	0	0	16410	15050	158281	27173	951626	37714	105933	0	0	8132	801468	0	0
2024-04-24 00:14:32			0	33231	0	0	0	16405	15050	158301	27170	951626	37714	105931	0	0	8132	801520	0	0
2024-04-24 00:15:32			0	33242	0	0	0	16446	15050	158193	27137	951600	37704	105947	0	0	8132	800949	0	0
2024-04-24 00:16:32			0	33258	0	0	0	16441	15050	158129	27334	951661	37705	105945	0	0	8133	800119	0	0
2024-04-24 00:17:32			0	33266	0	0	0	16438	15050	158161	27351	951653	37704	105944	0	0	8133	799704	0	0
2024-04-24 00:18:32			0	33290	0	0	0	16428	15070	158041	27450	951711	37695	105940	0	0	8135	798374	0	0
2024-04-24 00:19:32			0	33276	0	0	0	16428	15060	158085	27204	951748	37695	105940	0	0	8134	799142	0	0
2024-04-24 00:20:32			0	33275	0	0	0	16428	15060	158053	27462	951624	37716	105940	0	0	8134	799194	0	0
2024-04-24 00:21:32			0	33271	0	0	0	16405	15060	158053	27331	951748	37706	105931	0	0	8134	799402	0	0
2024-04-24 00:22:32			0	33264	0	0	0	16410	15060	158157	27098	951651	37716	105933	0	0	8134	799765	0	0
2024-04-24 00:23:32			0	33260	0	0	0	16425	15050	158105	27173	951713	37705	105939	0	0	8133	800015	0	0
2024-04-24 00:24:32			0	33269	0	0	0	16449	15050	157945	27253	951687	37694	105948	0	0	8133	799548	0	0
2024-04-24 00:25:32			0	33292	0	0	0	16428	15050	157849	27213	951687	37715	105940	0	0	8135	798356	0	0
2024-04-24 00:26:32			0	33281	0	0	0	16420	15060	157885	27467	951703	37695	105937	0	0	8134	798883	0	0
2024-04-24 00:27:32			0	33301	0	0	0	16415	15060	157949	27293	951643	37706	105935	0	0	8136	797848	0	0
2024-04-24 00:28:32			0	33290	0	0	0	16423	15060	157977	27157	951703	37695	105938	0	0	8135	798417	0	0
2024-04-24 00:29:32			0	33289	0	0	0	16425	15050	157965	27445	951661	37715	105939	0	0	8135	798512	0	0
2024-04-24 00:30:32			0	33284	0	0	0	16444	15060	157949	27336	951669	37716	105946	0	0	8134	798728	0	0
2024-04-24 00:31:32			0	33310	0	0	0	16446	15060	157857	27182	951756	37716	105947	0	0	8136	797382	0	0
2024-04-24 00:32:32			0	33307	0	0	0	16438	15060	157757	27157	951748	37695	105944	0	0	8136	797537	0	0
2024-04-24 00:33:32			0	33320	0	0	0	16446	15060	157725	27137	951695	37706	105947	0	0	8136	796865	0	0
2024-04-24 00:34:32			0	33318	0	0	0	16420	15060	157765	27020	951756	37716	105937	0	0	8137	796968	0	0
2024-04-24 00:35:32			0	33307	0	0	0	16412	15060	157797	27334	951616	37716	105934	0	0	8136	797537	0	0
2024-04-24 00:36:32			0	33302	0	0	0	16405	15060	157941	27242	951624	37706	105931	0	0	8136	797796	0	0
2024-04-24 00:37:32			0	33294	0	0	0	16420	15060	157825	27281	951643	37706	105937	0	0	8135	798210	0	0
2024-04-24 00:38:32			0	33294	0	0	0	16405	15050	157897	27100	951634	37715	105931	0	0	8135	798253	0	0
2024-04-24 00:39:32			0	33300	0	0	0	16436	15060	157909	27436	951730	37716	105943	0	0	8135	797899	0	0
2024-04-24 00:40:32			0	33304	0	0	0	16441	15050	157925	27194	951687	37705	105945	0	0	8135	797735	0	0
2024-04-24 00:41:32			0	33315	0	0	0	16407	15060	157837	27338	951651	37706	105932	0	0	8137	797123	0	0
2024-04-24 00:42:32			0	33307	0	0	0	16402	15050	157937	27275	951634	37705	105930	0	0	8136	797580	0	0
2024-04-24 00:43:32			0	33311	0	0	0	16412	15060	157849	27178	951669	37716	105934	0	0	8136	797330	0	0
2024-04-24 00:44:32			0	33314	0	0	0	16428	15050	157765	27215	951626	37714	105940	0	0	8136	797218	0	0
2024-04-24 00:45:32			0	33306	0	0	0	16428	15060	157853	27012	951748	37716	105940	0	0	8136	797589	0	0
2024-04-24 00:46:32			0	33328	0	0	0	16420	15060	157833	27405	951624	37716	105937	0	0	8137	796451	0	0
2024-04-24 00:47:32			0	33318	0	0	0	16428	15060	157789	27500	951703	37706	105940	0	0	8136	796968	0	0
2024-04-24 00:48:32			0	33319	0	0	0	16405	15050	157845	27528	951653	37693	105931	0	0	8137	796959	0	0
2024-04-24 00:49:32			0	33315	0	0	0	16420	15060	157713	27698	951730	37706	105937	0	0	8136	797123	0	0
2024-04-24 00:50:32			0	33347	0	0	0	16423	15060	157793	27505	951695	37706	105938	0	0	8138	795470	0	0
2024-04-24 00:51:32			0	33330	0	0	0	16433	15060	157817	27334	951730	37727	105942	0	0	8137	796348	0	0
2024-04-24 00:52:32			0	33330	0	0	0	16412	15060	157785	26913	951643	37716	105934	0	0	8137	796348	0	0
2024-04-24 00:53:32			0	33327	0	0	0	16418	15060	157765	27098	951616	37716	105936	0	0	8137	796503	0	0
2024-04-24 00:54:32			0	33332	0	0	0	16425	15060	157769	27157	951590	37716	105939	0	0	8137	796245	0	0
2024-04-24 00:55:32			0	33337	0	0	0	16418	15060	157693	27237	951669	37695	105936	0	0	8138	795986	0	0
2024-04-24 00:56:32			0	33331	0	0	0	16412	15060	157757	27055	951695	37684	105934	0	0	8138	796296	0	0
2024-04-24 00:57:32			0	33340	0	0	0	16410	15050	157721	27376	951634	37705	105933	0	0	8138	795874	0	0
2024-04-24 00:58:32			0	33327	0	0	0	16415	15050	157765	27590	951634	37715	105935	0	0	8137	796546	0	0
2024-04-24 00:59:32			0	33330	0	0	0	16405	15050	157801	27284	951661	37694	105931	0	0	8138	796391	0	0
2024-04-24 01:00:32			0	33315	0	0	0	16410	15060	157777	27227	951695	37695	105933	0	0	8137	797123	0	0
2024-04-24 01:01:32			0	33331	0	0	0	16399	15040	157705	27357	951645	37693	105929	0	0	8138	796382	0	0
2024-04-24 01:02:32			0	33310	0	0	0	16399	15060	157793	27114	951677	37695	105929	0	0	8136	797382	0	0
2024-04-24 01:03:32			0	33316	0	0	0	16397	15040	157845	27013	951645	37704	105928	0	0	8137	797157	0	0
2024-04-24 01:04:32			0	33331	0	0	0	16394	15040	157833	26941	951592	37704	105927	0	0	8138	796382	0	0
2024-04-24 01:05:32			0	33328	0	0	0	16405	15040	157881	27177	951513	37714	105931	0	0	8137	796537	0	0
2024-04-24 01:06:32			0	33313	0	0	0	16412	15050	157805	27327	951600	37704	105934	0	0	8136	797270	0	0
2024-04-24 01:07:32			0	33340	0	0	0	16405	15040	157833	27493	951697	37682	105931	0	0	8138	795917	0	0
2024-04-24 01:08:32			0	33324	0	0	0	16397	15040	157833	27265	951592	37693	105928	0	0	8137	796744	0	0
2024-04-24 01:09:32			0	33335	0	0	0	16407	15050	157745	27189	951653	37693	105932	0	0	8138	796132	0	0
2024-04-24 01:10:32			0	33331	0	0	0	16405	15040	157741	27102	951566	37704	105931	0	0	8138	796382	0	0
2024-04-24 01:11:32			0	33321	0	0	0	16389	15030	157737	27176	951602	37703	105925	0	0	8137	796941	0	0
2024-04-24 01:12:32			0	33298	0	0	0	16366	15040	157817	27072	951592	37704	105916	0	0	8136	798089	0	0
2024-04-24 01:13:32			0	33282	0	0	0	16376	15040	157841	27052	951558	37704	105920	0	0	8135	798917	0	0
2024-04-24 01:14:32			0	33284	0	0	0	16374	15030	157877	27131	951628	37703	105919	0	0	8135	798857	0	0
2024-04-24 01:15:32			0	33295	0	0	0	16399	15040	157893	27338	951566	37714	105929	0	0	8135	798244	0	0
2024-04-24 01:16:32			0	33314	0	0	0	16397	15030	157853	27105	951568	37713	105928	0	0	8137	797303	0	0
2024-04-24 01:17:32			0	33318	0	0	0	16397	15030	157889	27118	951602	37714	105928	0	0	8137	797096	0	0
2024-04-24 01:18:32			0	33315	0	0	0	16381	15030	157897	27341	951576	37703	105922	0	0	8137	797252	0	0
2024-04-24 01:19:32			0	33312	0	0	0	16392	15030	157985	27220	951549	37703	105926	0	0	8137	797407	0	0
2024-04-24 01:20:32			0	33307	0	0	0	16384	15030	157821	27533	951594	37713	105923	0	0	8136	797666	0	0
2024-04-24 01:21:32			0	33312	0	0	0	16399	15020	157913	27142	951533	37713	105929	0	0	8136	797450	0	0
2024-04-24 01:22:32			0	33322	0	0	0	16402	15040	157785	27274	951610	37704	105930	0	0	8137	796847	0	0
2024-04-24 01:23:32			0	33312	0	0	0	16389	15030	157857	27078	951515	37703	105925	0	0	8137	797407	0	0
2024-04-24 01:24:32			0	33308	0	0	0	16379	15020	157857	26920	951533	37713	105921	0	0	8137	797657	0	0
2024-04-24 01:25:32			0	33312	0	0	0	16376	15040	157929	27149	951592	37704	105920	0	0	8137	797364	0	0
2024-04-24 01:26:32			0	33301	0	0	0	16392	15030	158077	26974	951541	37703	105926	0	0	8136	797976	0	0
2024-04-24 01:27:32			0	33302	0	0	0	16384	15030	158013	26972	951594	37692	105923	0	0	8136	797924	0	0
2024-04-24 01:28:32			0	33284	0	0	0	16366	15030	158001	27301	951497	37714	105916	0	0	8135	798857	0	0
2024-04-24 01:29:32			0	33274	0	0	0	16366	15020	158009	27171	951560	37703	105916	0	0	8135	799418	0	0
2024-04-24 01:30:32			0	33291	0	0	0	16366	15020	157985	27445	951533	37713	105916	0	0	8136	798537	0	0
2024-04-24 01:31:32			0	33289	0	0	0	16366	15020	157997	27081	951454	37703	105916	0	0	8136	798640	0	0
2024-04-24 01:32:32			0	33285	0	0	0	16381	15030	158009	27256	951594	37703	105922	0	0	8135	798805	0	0
2024-04-24 01:33:32			0	33301	0	0	0	16381	15020	157997	26937	951472	37712	105922	0	0	8136	798019	0	0
2024-04-24 01:34:32			0	33287	0	0	0	16368	15010	158057	26883	951491	37691	105917	0	0	8135	798787	0	0
2024-04-24 01:35:32			0	33277	0	0	0	16374	15020	158053	26963	951533	37703	105919	0	0	8135	799262	0	0
2024-04-24 01:36:32			0	33301	0	0	0	16379	15010	158025	26977	951438	37702	105921	0	0	8136	798062	0	0
2024-04-24 01:37:32			0	33296	0	0	0	16368	15020	158033	26979	951420	37712	105917	0	0	8136	798278	0	0
2024-04-24 01:38:32			0	33296	0	0	0	16363	15010	158105	27232	951456	37701	105915	0	0	8136	798321	0	0
2024-04-24 01:39:32			0	33292	0	0	0	16366	15010	158141	27206	951491	37702	105916	0	0	8136	798528	0	0
2024-04-24 01:40:32			0	33276	0	0	0	16363	15010	158173	27322	951430	37701	105915	0	0	8135	799357	0	0
2024-04-24 01:41:32			0	33256	0	0	0	16345	15010	158197	27163	951438	37691	105908	0	0	8134	800394	0	0
2024-04-24 01:42:32			0	33244	0	0	0	16361	15010	158313	27313	951517	37702	105914	0	0	8133	801017	0	0
2024-04-24 01:43:32			0	33256	0	0	0	16358	15010	158265	27286	951377	37701	105913	0	0	8134	800394	0	0
2024-04-24 01:44:32			0	33272	0	0	0	16355	15010	158189	27327	951403	37701	105912	0	0	8135	799564	0	0
2024-04-24 01:45:32			0	33255	0	0	0	16361	15000	158125	26928	951500	37711	105914	0	0	8134	800489	0	0
2024-04-24 01:46:32			0	33275	0	0	0	16355	15010	158125	26937	951509	37711	105912	0	0	8135	799409	0	0
2024-04-24 01:47:32			0	33276	0	0	0	16353	15000	158169	26934	951448	37701	105911	0	0	8135	799400	0	0
2024-04-24 01:48:32			0	33260	0	0	0	16363	14990	158221	27324	951387	37678	105915	0	0	8134	800273	0	0
2024-04-24 01:49:32			0	33275	0	0	0	16358	14990	158153	27421	951432	37700	105913	0	0	8135	799494	0	0
2024-04-24 01:50:32			0	33256	0	0	0	16350	14990	158109	26975	951413	37700	105910	0	0	8134	800480	0	0
2024-04-24 01:51:32			0	33256	0	0	0	16358	14990	158189	27071	951440	37710	105913	0	0	8134	800480	0	0
2024-04-24 01:52:32			0	33250	0	0	0	16355	14980	158145	27086	951371	37699	105912	0	0	8133	800834	0	0
2024-04-24 01:53:32			0	33262	0	0	0	16350	14980	158041	27090	951423	37688	105910	0	0	8134	800212	0	0
2024-04-24 01:54:32			0	33265	0	0	0	16350	14990	158205	27235	951440	37710	105910	0	0	8134	800013	0	0
2024-04-24 01:55:32			0	33265	0	0	0	16358	15010	158153	27111	951403	37711	105913	0	0	8134	799927	0	0
2024-04-24 01:56:32			0	33263	0	0	0	16348	14980	158209	27298	951415	37698	105909	0	0	8134	800160	0	0
2024-04-24 01:57:32			0	33268	0	0	0	16337	14980	158229	27216	951371	37699	105905	0	0	8135	799900	0	0
2024-04-24 01:58:32			0	33226	0	0	0	16361	14980	158273	27493	951397	37699	105914	0	0	8132	802081	0	0
2024-04-24 01:59:32			0	33248	0	0	0	16348	14980	158365	27241	951345	37709	105909	0	0	8133	800938	0	0
2024-04-24 02:00:32			0	33229	0	0	0	16350	14990	158321	27416	951432	37700	105910	0	0	8132	801882	0	0
2024-04-24 02:01:32			0	33248	0	0	0	16350	14980	158373	27519	951468	37698	105910	0	0	8133	800938	0	0
2024-04-24 02:02:32			0	33229	0	0	0	16337	14990	158425	27222	951379	37721	105905	0	0	8132	801882	0	0
2024-04-24 02:03:32			0	33240	0	0	0	16332	14980	158309	27324	951371	37709	105903	0	0	8133	801354	0	0
2024-04-24 02:04:32			0	33220	0	0	0	16345	14980	158421	27381	951336	37708	105908	0	0	8132	802393	0	0
2024-04-24 02:05:32			0	33209	0	0	0	16345	14980	158445	27138	951397	37699	105908	0	0	8131	802965	0	0
2024-04-24 02:06:32			0	33220	0	0	0	16335	14980	158449	27225	951371	37688	105904	0	0	8132	802393	0	0
2024-04-24 02:07:32			0	33203	0	0	0	16337	14980	158541	27438	951415	37708	105905	0	0	8131	803278	0	0
2024-04-24 02:08:32			0	33216	0	0	0	16337	14990	158437	27230	951353	37689	105905	0	0	8132	802558	0	0
2024-04-24 02:09:32			0	33202	0	0	0	16348	14980	158373	27447	951336	37708	105909	0	0	8130	803330	0	0
2024-04-24 02:10:32			0	33201	0	0	0	16340	14970	158457	27440	951328	37687	105906	0	0	8130	803425	0	0
2024-04-24 02:11:32			0	33203	0	0	0	16324	14980	158489	27725	951389	37698	105900	0	0	8131	803278	0	0
2024-04-24 02:12:32			0	33210	0	0	0	16329	14980	158549	27348	951371	37699	105902	0	0	8131	802914	0	0
2024-04-24 02:13:32			0	33174	0	0	0	16329	14970	158577	27239	951399	37686	105902	0	0	8129	804831	0	0
2024-04-24 02:14:32			0	33185	0	0	0	16335	14970	158561	27199	951328	37698	105904	0	0	8130	804258	0	0
2024-04-24 02:15:32			0	33193	0	0	0	16361	14970	158489	27289	951381	37708	105914	0	0	8130	803841	0	0
2024-04-24 02:16:32			0	33190	0	0	0	16348	14960	158497	27038	951365	37686	105909	0	0	8130	804041	0	0
2024-04-24 02:17:32			0	33213	0	0	0	16329	14970	158441	27509	951373	37686	105902	0	0	8131	802800	0	0
2024-04-24 02:18:32			0	33208	0	0	0	16327	14980	158409	27279	951363	37698	105901	0	0	8131	803018	0	0
2024-04-24 02:19:32			0	33203	0	0	0	16329	14980	158377	27268	951310	37708	105902	0	0	8131	803278	0	0
2024-04-24 02:20:32			0	33213	0	0	0	16337	14970	158369	27204	951328	37708	105905	0	0	8131	802800	0	0
2024-04-24 02:21:32			0	33200	0	0	0	16340	14970	158369	27300	951399	37698	105906	0	0	8130	803477	0	0
2024-04-24 02:22:32			0	33197	0	0	0	16337	14970	158353	27332	951381	37708	105905	0	0	8130	803633	0	0
2024-04-24 02:23:32			0	33195	0	0	0	16332	14970	158337	27114	951294	37698	105903	0	0	8130	803737	0	0
2024-04-24 02:24:32			0	33211	0	0	0	16332	14960	158425	27433	951391	37708	105903	0	0	8131	802948	0	0
2024-04-24 02:25:32			0	33190	0	0	0	16337	14970	158433	27256	951355	37687	105905	0	0	8130	803998	0	0
2024-04-24 02:26:32			0	33198	0	0	0	16335	14970	158641	27415	951373	37719	105904	0	0	8130	803581	0	0
2024-04-24 02:27:32			0	33187	0	0	0	16327	14970	158529	27263	951347	37698	105901	0	0	8130	804154	0	0
2024-04-24 02:28:32			0	33168	0	0	0	16319	14960	158569	27312	951304	37697	105898	0	0	8129	805188	0	0
2024-04-24 02:29:32			0	33159	0	0	0	16324	14960	158673	27097	951286	37698	105900	0	0	8128	805657	0	0
2024-04-24 02:30:32			0	33167	0	0	0	16329	14960	158697	27462	951304	37708	105902	0	0	8129	805240	0	0
2024-04-24 02:31:32			0	33163	0	0	0	16324	14970	158597	27334	951268	37698	105900	0	0	8128	805405	0	0
2024-04-24 02:32:32			0	33158	0	0	0	16329	14960	158681	27263	951330	37697	105902	0	0	8128	805709	0	0
2024-04-24 02:33:32			0	33158	0	0	0	16314	14960	158729	27192	951338	37686	105896	0	0	8128	805709	0	0
2024-04-24 02:34:32			0	33119	0	0	0	16314	14950	158721	27206	951270	37697	105896	0	0	8126	807790	0	0
2024-04-24 02:35:32			0	33122	0	0	0	16306	14960	158877	27286	951278	37686	105893	0	0	8126	807589	0	0
2024-04-24 02:36:32			0	33108	0	0	0	16306	14950	159009	27270	951270	37697	105893	0	0	8125	808365	0	0
2024-04-24 02:37:32			0	33111	0	0	0	16314	14960	158989	27248	951304	37708	105896	0	0	8125	808165	0	0
2024-04-24 02:38:32			0	33112	0	0	0	16329	14950	158897	27159	951340	37696	105902	0	0	8125	808156	0	0
2024-04-24 02:39:32			0	33131	0	0	0	16350	14960	158937	27602	951330	37697	105910	0	0	8126	807119	0	0
2024-04-24 02:40:32			0	33152	0	0	0	16337	14960	158809	27185	951278	37697	105905	0	0	8128	806022	0	0
2024-04-24 02:41:32			0	33156	0	0	0	16335	14950	158717	27260	951296	37697	105904	0	0	8128	805857	0	0
2024-04-24 02:42:32			0	33157	0	0	0	16337	14960	158553	27306	951357	37697	105905	0	0	8128	805761	0	0
2024-04-24 02:43:32			0	33182	0	0	0	16337	14960	158585	27081	951357	37697	105905	0	0	8129	804458	0	0
2024-04-24 02:44:32			0	33191	0	0	0	16348	14950	158593	27301	951296	37697	105909	0	0	8130	804032	0	0
2024-04-24 02:45:32			0	33195	0	0	0	16340	14960	158513	27588	951365	37686	105906	0	0	8130	803780	0	0
2024-04-24 02:46:32			0	33217	0	0	0	16337	14970	158453	27187	951373	37698	105905	0	0	8131	802592	0	0
2024-04-24 02:47:32			0	33202	0	0	0	16335	14970	158413	27182	951373	37708	105904	0	0	8131	803373	0	0
2024-04-24 02:48:32			0	33206	0	0	0	16329	14970	158513	27429	951355	37687	105902	0	0	8131	803165	0	0
2024-04-24 02:49:32			0	33191	0	0	0	16327	14970	158533	27327	951320	37708	105901	0	0	8130	803946	0	0
2024-04-24 02:50:32			0	33190	0	0	0	16327	14960	158553	27607	951330	37686	105901	0	0	8130	804041	0	0
2024-04-24 02:51:32			0	33188	0	0	0	16324	14950	158469	27826	951243	37697	105900	0	0	8130	804188	0	0
2024-04-24 02:52:32			0	33193	0	0	0	16316	14960	158525	27274	951330	37686	105897	0	0	8130	803885	0	0
2024-04-24 02:53:32			0	33189	0	0	0	16324	14960	158481	27027	951365	37698	105900	0	0	8130	804093	0	0
2024-04-24 02:54:32			0	33186	0	0	0	16316	14950	158545	27170	951296	37697	105897	0	0	8130	804292	0	0
2024-04-24 02:55:32			0	33176	0	0	0	16322	14960	158461	27232	951338	37719	105899	0	0	8129	804770	0	0
2024-04-24 02:56:32			0	33182	0	0	0	16306	14950	158585	27064	951322	37697	105893	0	0	8130	804501	0	0
2024-04-24 02:57:32			0	33163	0	0	0	16306	14960	158697	27403	951338	37708	105893	0	0	8129	805448	0	0
2024-04-24 02:58:32			0	33154	0	0	0	16314	14960	158685	27071	951278	37697	105896	0	0	8128	805918	0	0
2024-04-24 02:59:32			0	33149	0	0	0	16303	14950	158677	27246	951296	37697	105892	0	0	8128	806222	0	0
2024-04-24 03:00:32			0	33134	0	0	0	16298	14960	158757	27402	951278	37686	105890	0	0	8127	806962	0	0
2024-04-24 03:01:32			0	33128	0	0	0	16306	14950	158817	27528	951296	37697	105893	0	0	8127	807319	0	0
2024-04-24 03:02:32			0	33122	0	0	0	16309	14950	158865	27343	951262	37696	105894	0	0	8126	807633	0	0
2024-04-24 03:03:32			0	33145	0	0	0	16322	14950	158761	27239	951243	37686	105899	0	0	8127	806431	0	0
2024-04-24 03:04:32			0	33130	0	0	0	16311	14940	158885	27398	951253	37696	105895	0	0	8127	807258	0	0
2024-04-24 03:05:32			0	33129	0	0	0	16303	14940	158833	27580	951227	37685	105892	0	0	8127	807310	0	0
2024-04-24 03:06:32			0	33120	0	0	0	16303	14950	158941	27208	951340	37707	105892	0	0	8126	807737	0	0
2024-04-24 03:07:32			0	33121	0	0	0	16303	14950	158897	27533	951235	37696	105892	0	0	8126	807685	0	0
2024-04-24 03:08:32			0	33098	0	0	0	16293	14940	158969	27227	951245	37695	105888	0	0	8125	808932	0	0
2024-04-24 03:09:32			0	33089	0	0	0	16298	14940	159189	26965	951227	37685	105890	0	0	8124	809403	0	0
2024-04-24 03:10:32			0	33078	0	0	0	16309	14940	159233	27324	951253	37707	105894	0	0	8123	809979	0	0
2024-04-24 03:11:32			0	33074	0	0	0	16301	14940	159105	27114	951253	37696	105891	0	0	8123	810189	0	0
2024-04-24 03:12:32			0	33075	0	0	0	16309	14950	159213	26993	951262	37685	105894	0	0	8123	810093	0	0
2024-04-24 03:13:32			0	33066	0	0	0	16311	14940	159105	27279	951227	37696	105895	0	0	8123	810608	0	0
2024-04-24 03:14:32			0	33081	0	0	0	16316	14940	159161	27206	951253	37707	105897	0	0	8123	809822	0	0
2024-04-24 03:15:32			0	33089	0	0	0	16314	14940	159165	27192	951306	37674	105896	0	0	8124	809403	0	0
2024-04-24 03:16:32			0	33079	0	0	0	16319	14940	159093	27329	951219	37695	105898	0	0	8123	809927	0	0
2024-04-24 03:17:32			0	33071	0	0	0	16316	14950	159113	27326	951288	37685	105897	0	0	8123	810303	0	0
2024-04-24 03:18:32			0	33099	0	0	0	16314	14950	159021	27493	951209	37696	105896	0	0	8125	808836	0	0
2024-04-24 03:19:32			0	33110	0	0	0	16311	14940	158989	27566	951298	37684	105895	0	0	8125	808304	0	0
2024-04-24 03:20:32			0	33094	0	0	0	16309	14940	159033	27637	951306	37696	105894	0	0	8124	809141	0	0
2024-04-24 03:21:32			0	33080	0	0	0	16309	14940	159069	27275	951272	37706	105894	0	0	8124	809874	0	0
2024-04-24 03:22:32			0	33098	0	0	0	16301	14940	159029	27142	951227	37707	105891	0	0	8125	808932	0	0
2024-04-24 03:23:32			0	33086	0	0	0	16301	14940	159089	27171	951227	37696	105891	0	0	8124	809560	0	0
2024-04-24 03:24:32			0	33078	0	0	0	16306	14950	159021	27223	951164	37697	105893	0	0	8123	809936	0	0
2024-04-24 03:25:32			0	33071	0	0	0	16303	14940	159093	27348	951219	37695	105892	0	0	8123	810346	0	0
2024-04-24 03:26:32			0	33076	0	0	0	16303	14940	159149	27410	951245	37695	105892	0	0	8123	810084	0	0
2024-04-24 03:27:32			0	33086	0	0	0	16303	14940	159213	27559	951245	37706	105892	0	0	8124	809560	0	0
2024-04-24 03:28:32			0	33061	0	0	0	16301	14950	159169	27568	951235	37685	105891	0	0	8123	810827	0	0
2024-04-24 03:29:32			0	33062	0	0	0	16301	14940	159133	27253	951245	37695	105891	0	0	8123	810818	0	0
2024-04-24 03:30:32			0	33084	0	0	0	16309	14940	159173	27459	951253	37685	105894	0	0	8124	809665	0	0
2024-04-24 03:31:32			0	33062	0	0	0	16301	14940	159049	27438	951245	37695	105891	0	0	8123	810818	0	0
2024-04-24 03:32:32			0	33076	0	0	0	16290	14930	159061	27332	951237	37695	105887	0	0	8124	810128	0	0
2024-04-24 03:33:32			0	33085	0	0	0	16296	14940	159065	27419	951253	37707	105889	0	0	8124	809613	0	0
2024-04-24 03:34:32			0	33072	0	0	0	16283	14930	159113	27426	951211	37684	105884	0	0	8123	810337	0	0
2024-04-24 03:35:32			0	33088	0	0	0	16280	14940	159121	27471	951253	37685	105883	0	0	8124	809455	0	0
2024-04-24 03:36:32			0	33108	0	0	0	16293	14940	159053	27294	951219	37706	105888	0	0	8125	808408	0	0
2024-04-24 03:37:32			0	33107	0	0	0	16298	14930	158917	27263	951211	37706	105890	0	0	8125	808504	0	0
2024-04-24 03:38:32			0	33134	0	0	0	16296	14920	158889	27168	951213	37705	105889	0	0	8127	807135	0	0
2024-04-24 03:39:32			0	33129	0	0	0	16296	14930	158941	27201	951211	37706	105889	0	0	8127	807353	0	0
2024-04-24 03:40:32			0	33155	0	0	0	16290	14930	158781	27199	951203	37683	105887	0	0	8128	805996	0	0
2024-04-24 03:41:32			0	33156	0	0	0	16293	14930	158705	27234	951211	37706	105888	0	0	8128	805943	0	0
2024-04-24 03:42:32			0	33187	0	0	0	16293	14930	158517	27156	951211	37706	105888	0	0	8130	804327	0	0
2024-04-24 03:43:32			0	33232	0	0	0	16288	14930	158365	27320	951211	37684	105886	0	0	8133	801985	0	0
2024-04-24 03:44:32			0	33224	0	0	0	16290	14930	158417	27313	951211	37684	105887	0	0	8133	802401	0	0
2024-04-24 03:45:32			0	33248	0	0	0	16296	14920	158345	27178	951195	37694	105889	0	0	8134	801196	0	0
2024-04-24 03:46:32			0	33244	0	0	0	16285	14920	158365	27177	951187	37705	105885	0	0	8134	801404	0	0
2024-04-24 03:47:32			0	33256	0	0	0	16301	14940	158229	27319	951219	37695	105891	0	0	8134	800695	0	0
2024-04-24 03:48:32			0	33260	0	0	0	16290	14930	158237	27376	951203	37694	105887	0	0	8135	800530	0	0
2024-04-24 03:49:32			0	33265	0	0	0	16283	14930	158225	27395	951203	37694	105884	0	0	8135	800271	0	0
2024-04-24 03:50:32			0	33250	0	0	0	16288	14930	158353	27140	951282	37694	105886	0	0	8134	801049	0	0
2024-04-24 03:51:32			0	33250	0	0	0	16283	14930	158385	27498	951150	37683	105884	0	0	8134	801049	0	0
2024-04-24 03:52:32			0	33260	0	0	0	16296	14930	158265	27433	951229	37715	105889	0	0	8135	800530	0	0
2024-04-24 03:53:32			0	33272	0	0	0	16290	14920	158261	27357	951187	37693	105887	0	0	8135	799951	0	0
2024-04-24 03:54:32			0	33222	0	0	0	16288	14920	158377	27412	951213	37693	105886	0	0	8132	802548	0	0
2024-04-24 03:55:32			0	33220	0	0	0	16280	14920	158389	27502	951160	37705	105883	0	0	8132	802652	0	0
2024-04-24 03:56:32			0	33208	0	0	0	16280	14920	158385	27287	951213	37693	105883	0	0	8132	803276	0	0
2024-04-24 03:57:32			0	33225	0	0	0	16280	14920	158453	26996	951187	37671	105883	0	0	8133	802392	0	0
2024-04-24 03:58:32			0	33236	0	0	0	16280	14910	158341	27133	951205	37682	105883	0	0	8133	801863	0	0
2024-04-24 03:59:32			0	33245	0	0	0	16288	14930	158321	27142	951255	37683	105886	0	0	8134	801309	0	0
2024-04-24 04:00:32			0	33255	0	0	0	16288	14910	158217	27067	951179	37705	105886	0	0	8134	800876	0	0
2024-04-24 04:01:32			0	33263	0	0	0	16283	14920	158185	27149	951221	37705	105884	0	0	8135	800417	0	0
2024-04-24 04:02:32			0	33241	0	0	0	16288	14920	158213	27265	951160	37705	105886	0	0	8134	801560	0	0
2024-04-24 04:03:32			0	33236	0	0	0	16283	14910	158277	27180	951205	37682	105884	0	0	8133	801863	0	0
2024-04-24 04:04:32			0	33204	0	0	0	16280	14910	158497	27345	951179	37693	105883	0	0	8131	803527	0	0
2024-04-24 04:05:32			0	33202	0	0	0	16285	14920	158509	27300	951160	37693	105885	0	0	8131	803588	0	0
2024-04-24 04:06:32			0	33235	0	0	0	16262	14910	158317	27209	951197	37681	105876	0	0	8134	801915	0	0
2024-04-24 04:07:32			0	33197	0	0	0	16270	14910	158433	27053	951179	37693	105879	0	0	8131	803892	0	0
2024-04-24 04:08:32			0	33240	0	0	0	16270	14910	158265	27540	951152	37705	105879	0	0	8134	801655	0	0
2024-04-24 04:09:32			0	33278	0	0	0	16267	14910	158177	27300	951144	37693	105878	0	0	8136	799682	0	0
2024-04-24 04:10:32			0	33251	0	0	0	16277	14910	158253	27230	951144	37693	105882	0	0	8134	801083	0	0
2024-04-24 04:11:32			0	33285	0	0	0	16290	14910	158173	27417	951179	37682	105887	0	0	8136	799319	0	0
2024-04-24 04:12:32			0	33314	0	0	0	16277	14910	157961	27140	951205	37682	105882	0	0	8138	797817	0	0
2024-04-24 04:13:32			0	33358	0	0	0	16288	14920	157805	26913	951187	37693	105886	0	0	8141	795499	0	0
2024-04-24 04:14:32			0	33383	0	0	0	16285	14920	157705	27230	951213	37705	105885	0	0	8142	794209	0	0
2024-04-24 04:15:32			0	33378	0	0	0	16303	14910	157613	27260	951179	37705	105892	0	0	8141	794510	0	0
2024-04-24 04:16:32			0	33417	0	0	0	16288	14910	157569	27293	951170	37693	105886	0	0	8144	792500	0	0
2024-04-24 04:17:32			0	33431	0	0	0	16290	14910	157349	27228	951100	37682	105887	0	0	8145	791780	0	0
2024-04-24 04:18:32			0	33449	0	0	0	16288	14910	157485	27157	951179	37693	105886	0	0	8146	790854	0	0
2024-04-24 04:19:32			0	33451	0	0	0	16285	14920	157469	27286	951239	37693	105885	0	0	8146	790709	0	0
2024-04-24 04:20:32			0	33406	0	0	0	16277	14920	157569	27059	951160	37693	105882	0	0	8144	793024	0	0
2024-04-24 04:21:32			0	33370	0	0	0	16277	14920	157669	27203	951160	37693	105882	0	0	8141	794880	0	0
2024-04-24 04:22:32			0	33385	0	0	0	16285	14920	157605	27364	951187	37705	105885	0	0	8142	794106	0	0
2024-04-24 04:23:32			0	33392	0	0	0	16257	14910	157721	27464	951152	37693	105874	0	0	8143	793788	0	0
2024-04-24 04:24:32			0	33384	0	0	0	16283	14910	157669	27582	951118	37693	105884	0	0	8142	794200	0	0
2024-04-24 04:25:32			0	33414	0	0	0	16277	14910	157569	27227	951092	37704	105882	0	0	8144	792654	0	0
2024-04-24 04:26:32			0	33448	0	0	0	16288	14920	157369	27455	951187	37705	105886	0	0	8146	790863	0	0
2024-04-24 04:27:32			0	33476	0	0	0	16285	14910	157241	27517	951152	37693	105885	0	0	8148	789467	0	0
2024-04-24 04:28:32			0	33473	0	0	0	16272	14900	157189	27505	951162	37681	105880	0	0	8148	789664	0	0
2024-04-24 04:29:32			0	33489	0	0	0	16275	14920	157181	27208	951108	37705	105881	0	0	8149	788758	0	0
2024-04-24 04:30:32			0	33508	0	0	0	16283	14910	157141	27265	951126	37705	105884	0	0	8150	787827	0	0
2024-04-24 04:31:32			0	33499	0	0	0	16270	14910	157017	27305	951144	37693	105879	0	0	8149	788288	0	0
2024-04-24 04:32:32			0	33470	0	0	0	16267	14920	157205	27251	951187	37693	105878	0	0	8148	789733	0	0
2024-04-24 04:33:32			0	33461	0	0	0	16277	14900	157509	27371	951181	37703	105882	0	0	8147	790280	0	0
2024-04-24 04:34:32			0	33454	0	0	0	16267	14910	157437	27393	951152	37705	105878	0	0	8147	790597	0	0
2024-04-24 04:35:32			0	33462	0	0	0	16280	14910	157229	27308	951179	37705	105883	0	0	8147	790186	0	0
2024-04-24 04:36:32			0	33480	0	0	0	16270	14910	157277	27251	951152	37682	105879	0	0	8148	789262	0	0
2024-04-24 04:37:32			0	33490	0	0	0	16270	14910	157197	27350	951170	37704	105879	0	0	8149	788749	0	0
2024-04-24 04:38:32			0	33500	0	0	0	16285	14900	157145	27244	951136	37703	105885	0	0	8149	788279	0	0
2024-04-24 04:39:32			0	33529	0	0	0	16283	14910	157093	27164	951197	37693	105884	0	0	8151	786751	0	0
2024-04-24 04:40:32			0	33515	0	0	0	16283	14910	156925	27124	951205	37715	105884	0	0	8150	787468	0	0
2024-04-24 04:41:32			0	33516	0	0	0	16283	14910	156949	27428	951179	37715	105884	0	0	8150	787417	0	0
2024-04-24 04:42:32			0	33514	0	0	0	16288	14920	157005	27303	951213	37705	105886	0	0	8150	787477	0	0
2024-04-24 04:43:32			0	33529	0	0	0	16280	14910	156977	27336	951152	37693	105883	0	0	8151	786751	0	0
2024-04-24 04:44:32			0	33514	0	0	0	16285	14910	157073	27052	951197	37693	105885	0	0	8150	787519	0	0
2024-04-24 04:45:32			0	33522	0	0	0	16285	14910	157005	27076	951205	37705	105885	0	0	8150	787110	0	0
2024-04-24 04:46:32			0	33510	0	0	0	16280	14930	156993	27133	951203	37705	105883	0	0	8150	787640	0	0
2024-04-24 04:47:32			0	33517	0	0	0	16280	14900	157113	27294	951136	37681	105883	0	0	8150	787408	0	0
2024-04-24 04:48:32			0	33526	0	0	0	16280	14920	157153	27339	951213	37693	105883	0	0	8151	786863	0	0
2024-04-24 04:49:32			0	33496	0	0	0	16283	14910	157201	27039	951179	37693	105884	0	0	8149	788442	0	0
2024-04-24 04:50:32			0	33513	0	0	0	16272	14920	157169	27365	951160	37705	105880	0	0	8150	787528	0	0
2024-04-24 04:51:32			0	33503	0	0	0	16288	14900	157177	27625	951189	37703	105886	0	0	8149	788125	0	0
2024-04-24 04:52:32			0	33515	0	0	0	16280	14910	157217	27289	951205	37693	105883	0	0	8150	787468	0	0
2024-04-24 04:53:32			0	33499	0	0	0	16288	14910	157189	27263	951197	37704	105886	0	0	8149	788288	0	0
2024-04-24 04:54:32			0	33500	0	0	0	16290	14920	157145	27395	951266	37705	105887	0	0	8149	788194	0	0
2024-04-24 04:55:32			0	33517	0	0	0	16293	14920	157161	27324	951239	37705	105888	0	0	8150	787324	0	0
2024-04-24 04:56:32			0	33514	0	0	0	16283	14900	157053	27050	951215	37692	105884	0	0	8150	787562	0	0
2024-04-24 04:57:32			0	33528	0	0	0	16303	14930	157033	26981	951203	37694	105892	0	0	8151	786718	0	0
2024-04-24 04:58:32			0	33515	0	0	0	16303	14910	157021	27163	951205	37693	105892	0	0	8150	787468	0	0
2024-04-24 04:59:32			0	33542	0	0	0	16303	14920	157057	27131	951213	37705	105892	0	0	8151	786044	0	0
2024-04-24 05:00:32			0	33530	0	0	0	16298	14920	157105	27312	951239	37693	105890	0	0	8151	786658	0	0
2024-04-24 05:01:32			0	33531	0	0	0	16301	14910	157105	27066	951179	37705	105891	0	0	8151	786649	0	0
2024-04-24 05:02:32			0	33529	0	0	0	16301	14930	157005	27222	951203	37683	105891	0	0	8151	786667	0	0
2024-04-24 05:03:32			0	33541	0	0	0	16303	14940	156997	27128	951245	37706	105892	0	0	8151	786011	0	0
2024-04-24 05:04:32			0	33563	0	0	0	16298	14930	156933	27355	951237	37706	105890	0	0	8153	784929	0	0
2024-04-24 05:05:32			0	33551	0	0	0	16296	14930	156945	27013	951237	37706	105889	0	0	8152	785542	0	0
2024-04-24 05:06:32			0	33556	0	0	0	16301	14920	156917	27326	951247	37694	105891	0	0	8152	785328	0	0
2024-04-24 05:07:32			0	33562	0	0	0	16301	14920	156857	27338	951239	37705	105891	0	0	8153	785022	0	0
2024-04-24 05:08:32			0	33548	0	0	0	16303	14930	157009	27102	951255	37705	105892	0	0	8152	785695	0	0
2024-04-24 05:09:32			0	33543	0	0	0	16314	14930	156953	27130	951290	37706	105896	0	0	8151	785951	0	0
2024-04-24 05:10:32			0	33576	0	0	0	16306	14930	156950	27443	951316	37695	105893	0	0	8153	784265	0	0
2024-04-24 05:11:32			0	33570	0	0	0	16309	14930	156882	27133	951316	37695	105894	0	0	8153	784571	0	0
2024-04-24 05:12:32			0	33571	0	0	0	16314	14940	156861	27296	951245	37695	105896	0	0	8153	784478	0	0
2024-04-24 05:13:32			0	33573	0	0	0	16311	14930	156882	27093	951290	37706	105895	0	0	8153	784418	0	0
2024-04-24 05:14:32			0	33572	0	0	0	16319	14950	156878	27067	951314	37707	105898	0	0	8153	784385	0	0
2024-04-24 05:15:32			0	33571	0	0	0	16309	14940	156865	27222	951272	37695	105894	0	0	8153	784478	0	0
2024-04-24 05:16:32			0	33567	0	0	0	16314	14930	156981	27225	951316	37684	105896	0	0	8153	784724	0	0
2024-04-24 05:17:32			0	33577	0	0	0	16316	14930	156942	27374	951316	37706	105897	0	0	8153	784214	0	0
2024-04-24 05:18:32			0	33583	0	0	0	16314	14950	156894	27003	951296	37708	105896	0	0	8154	783824	0	0
2024-04-24 05:19:32			0	33598	0	0	0	16324	14940	156826	27085	951306	37685	105900	0	0	8154	783101	0	0
2024-04-24 05:20:32			0	33596	0	0	0	16309	14940	156710	27005	951272	37706	105894	0	0	8155	783203	0	0
2024-04-24 05:21:32			0	33617	0	0	0	16322	14940	156758	27183	951298	37706	105899	0	0	8156	782132	0	0
2024-04-24 05:22:32			0	33617	0	0	0	16327	14960	156722	27001	951304	37718	105901	0	0	8156	782049	0	0
2024-04-24 05:23:32			0	33598	0	0	0	16319	14950	156630	27471	951340	37707	105898	0	0	8155	783059	0	0
2024-04-24 05:24:32			0	33630	0	0	0	16327	14960	156610	27036	951330	37697	105901	0	0	8156	781387	0	0
2024-04-24 05:25:32			0	33629	0	0	0	16316	14950	156594	27334	951314	37707	105897	0	0	8156	781479	0	0
2024-04-24 05:26:32			0	33646	0	0	0	16324	14950	156534	27369	951367	37707	105900	0	0	8157	780615	0	0
2024-04-24 05:27:32			0	33638	0	0	0	16319	14950	156590	27414	951340	37707	105898	0	0	8157	781022	0	0
2024-04-24 05:28:32			0	33630	0	0	0	16314	14960	156586	27339	951330	37708	105896	0	0	8157	781387	0	0
2024-04-24 05:29:32			0	33621	0	0	0	16322	14950	156638	27341	951314	37717	105899	0	0	8156	781887	0	0
2024-04-24 05:30:32			0	33623	0	0	0	16327	14950	156678	27107	951314	37728	105901	0	0	8156	781785	0	0
2024-04-24 05:31:32			0	33631	0	0	0	16327	14950	156614	27327	951375	37697	105901	0	0	8156	781378	0	0
2024-04-24 05:32:32			0	33627	0	0	0	16322	14950	156514	27173	951427	37697	105899	0	0	8156	781581	0	0
2024-04-24 05:33:32			0	33624	0	0	0	16316	14960	156618	27258	951436	37697	105897	0	0	8156	781692	0	0
2024-04-24 05:34:32			0	33613	0	0	0	16329	14950	156618	27261	951419	37717	105902	0	0	8155	782294	0	0
2024-04-24 05:35:32			0	33620	0	0	0	16327	14960	156626	27053	951357	37718	105901	0	0	8156	781896	0	0
2024-04-24 05:36:32			0	33612	0	0	0	16324	14950	156558	27222	951349	37697	105900	0	0	8155	782345	0	0
2024-04-24 05:37:32			0	33606	0	0	0	16319	14950	156650	27405	951427	37718	105898	0	0	8155	782651	0	0
2024-04-24 05:38:32			0	33611	0	0	0	16319	14970	156658	27220	951478	37698	105898	0	0	8155	782312	0	0
2024-04-24 05:39:32			0	33603	0	0	0	16324	14960	156698	27369	951357	37708	105900	0	0	8155	782762	0	0
2024-04-24 05:40:32			0	33592	0	0	0	16319	14940	156682	27114	951332	37696	105898	0	0	8154	783407	0	0
2024-04-24 05:41:32			0	33620	0	0	0	16319	14960	156666	27339	951357	37697	105898	0	0	8156	781896	0	0
2024-04-24 05:42:32			0	33600	0	0	0	16329	14950	156578	27291	951375	37718	105902	0	0	8154	782957	0	0
2024-04-24 05:43:32			0	33637	0	0	0	16335	14960	156602	27315	951391	37698	105904	0	0	8157	781031	0	0
2024-04-24 05:44:32			0	33620	0	0	0	16327	14950	156602	27731	951367	37707	105901	0	0	8156	781938	0	0
2024-04-24 05:45:32			0	33621	0	0	0	16327	14960	156614	27421	951365	37708	105901	0	0	8156	781845	0	0
2024-04-24 05:46:32			0	33625	0	0	0	16335	14960	156710	27377	951444	37708	105904	0	0	8156	781641	0	0
2024-04-24 05:47:32			0	33627	0	0	0	16327	14960	156634	27164	951383	37718	105901	0	0	8156	781539	0	0
2024-04-24 05:48:32			0	33605	0	0	0	16332	14970	156706	27291	951425	37708	105903	0	0	8155	782618	0	0
2024-04-24 05:49:32			0	33597	0	0	0	16332	14960	156618	27204	951357	37697	105903	0	0	8154	783068	0	0
2024-04-24 05:50:32			0	33598	0	0	0	16327	14960	156802	27431	951383	37718	105901	0	0	8154	783017	0	0
2024-04-24 05:51:32			0	33598	0	0	0	16322	14960	156694	27291	951383	37708	105899	0	0	8155	783017	0	0
2024-04-24 05:52:32			0	33583	0	0	0	16319	14950	156778	27046	951349	37697	105898	0	0	8154	783824	0	0
2024-04-24 05:53:32			0	33599	0	0	0	16319	14950	156714	27237	951393	37707	105898	0	0	8155	783008	0	0
2024-04-24 05:54:32			0	33590	0	0	0	16329	14960	156794	27249	951391	37719	105902	0	0	8154	783425	0	0
2024-04-24 05:55:32			0	33587	0	0	0	16335	14960	156830	27244	951391	37719	105904	0	0	8154	783577	0	0
2024-04-24 05:56:32			0	33594	0	0	0	16353	14950	156714	27469	951427	37697	105911	0	0	8154	783262	0	0
2024-04-24 05:57:32			0	33594	0	0	0	16348	14970	156722	27412	951478	37708	105909	0	0	8154	783178	0	0
2024-04-24 05:58:32			0	33596	0	0	0	16348	14970	156718	27303	951478	37719	105909	0	0	8154	783077	0	0
2024-04-24 05:59:32			0	33627	0	0	0	16353	14970	156634	27256	951452	37708	105911	0	0	8156	781498	0	0
2024-04-24 06:00:32			0	33627	0	0	0	16350	14970	156706	27435	951512	37708	105910	0	0	8156	781498	0	0
2024-04-24 06:01:32			0	33638	0	0	0	16355	14970	156634	27261	951478	37708	105912	0	0	8156	780938	0	0
2024-04-24 06:02:32			0	33635	0	0	0	16345	14970	156482	27118	951381	37731	105908	0	0	8156	781091	0	0
2024-04-24 06:03:32			0	33624	0	0	0	16342	14970	156518	27256	951425	37719	105907	0	0	8156	781650	0	0
2024-04-24 06:04:32			0	33632	0	0	0	16340	14980	156490	27045	951476	37720	105906	0	0	8156	781201	0	0
2024-04-24 06:05:32			0	33635	0	0	0	16345	14970	156474	27300	951460	37708	105908	0	0	8156	781091	0	0
2024-04-24 06:06:32			0	33640	0	0	0	16345	14970	156518	27261	951381	37698	105908	0	0	8157	780836	0	0
2024-04-24 06:07:32			0	33653	0	0	0	16358	14970	156574	27319	951460	37708	105913	0	0	8157	780175	0	0
2024-04-24 06:08:32			0	33656	0	0	0	16355	14980	156450	27242	951476	37732	105912	0	0	8157	779981	0	0
2024-04-24 06:09:32			0	33663	0	0	0	16353	14970	156446	27443	951512	37720	105911	0	0	8158	779667	0	0
2024-04-24 06:10:32			0	33667	0	0	0	16363	14970	156478	27001	951460	37708	105915	0	0	8158	779464	0	0
2024-04-24 06:11:32			0	33660	0	0	0	16353	14970	156402	27100	951452	37698	105911	0	0	8158	779819	0	0
2024-04-24 06:12:32			0	33672	0	0	0	16355	14970	156482	27381	951486	37720	105912	0	0	8158	779210	0	0
2024-04-24 06:13:32			0	33662	0	0	0	16342	14970	156522	27348	951460	37708	105907	0	0	8158	779718	0	0
2024-04-24 06:14:32			0	33657	0	0	0	16340	14960	156418	27173	951365	37719	105906	0	0	8158	780014	0	0
2024-04-24 06:15:32			0	33673	0	0	0	16348	14970	156414	27391	951381	37708	105909	0	0	8159	779159	0	0
2024-04-24 06:16:32			0	33677	0	0	0	16355	14970	156446	27012	951452	37708	105912	0	0	8159	778956	0	0
2024-04-24 06:17:32			0	33679	0	0	0	16350	14970	156474	27287	951478	37708	105910	0	0	8159	778854	0	0
2024-04-24 06:18:32			0	33661	0	0	0	16329	14970	156442	27261	951452	37719	105902	0	0	8158	779769	0	0
2024-04-24 06:19:32			0	33653	0	0	0	16324	14960	156406	27357	951444	37708	105900	0	0	8158	780217	0	0
2024-04-24 06:20:32			0	33643	0	0	0	16327	14970	156486	27517	951381	37720	105901	0	0	8157	780683	0	0
2024-04-24 06:21:32			0	33633	0	0	0	16329	14970	156530	27473	951320	37719	105902	0	0	8157	781192	0	0
2024-04-24 06:22:32			0	33644	0	0	0	16335	14970	156474	27341	951460	37708	105904	0	0	8157	780633	0	0
2024-04-24 06:23:32			0	33643	0	0	0	16342	14970	156538	27183	951399	37708	105907	0	0	8157	780683	0	0
2024-04-24 06:24:32			0	33630	0	0	0	16335	14970	156534	27241	951460	37720	105904	0	0	8156	781345	0	0
2024-04-24 06:25:32			0	33629	0	0	0	16319	14960	156546	27409	951436	37708	105898	0	0	8156	781438	0	0
2024-04-24 06:26:32			0	33615	0	0	0	16311	14960	156646	26892	951338	37708	105895	0	0	8156	782150	0	0
2024-04-24 06:27:32			0	33589	0	0	0	16293	14960	156706	27424	951365	37698	105888	0	0	8154	783475	0	0
2024-04-24 06:28:32			0	33585	0	0	0	16303	14950	156846	27533	951322	37697	105892	0	0	8154	783722	0	0
2024-04-24 06:29:32			0	33568	0	0	0	16288	14950	156882	27222	951349	37697	105886	0	0	8153	784589	0	0
2024-04-24 06:30:32			0	33532	0	0	0	16244	14950	157045	27107	951288	37717	105869	0	0	8152	786429	0	0
2024-04-24 06:31:32			0	33453	0	0	0	16192	14930	157309	27365	951185	37684	105849	0	0	8148	790564	0	0
2024-04-24 06:32:32			0	33397	0	0	0	16189	14920	157625	27130	951134	37693	105848	0	0	8145	793488	0	0
2024-04-24 06:33:32			0	33349	0	0	0	16174	14910	157913	27265	951100	37682	105842	0	0	8142	796007	0	0
2024-04-24 06:34:32			0	33297	0	0	0	16174	14900	158021	27367	951057	37692	105842	0	0	8139	798740	0	0
2024-04-24 06:35:32			0	33284	0	0	0	16171	14890	158269	27307	950962	37692	105841	0	0	8138	799457	0	0
2024-04-24 06:36:32			0	33236	0	0	0	16168	14870	158569	27235	950903	37700	105840	0	0	8135	802035	0	0
2024-04-24 06:37:32			0	33197	0	0	0	16192	14870	158741	27208	950895	37689	105849	0	0	8132	804064	0	0
2024-04-24 06:38:32			0	33138	0	0	0	16176	14880	158849	27415	950990	37690	105843	0	0	8129	807099	0	0
2024-04-24 06:39:32			0	33118	0	0	0	16166	14860	158925	27505	950913	37688	105839	0	0	8128	808232	0	0
2024-04-24 06:40:32			0	33088	0	0	0	16166	14860	159205	27483	950905	37688	105839	0	0	8126	809803	0	0
2024-04-24 06:41:32			0	33069	0	0	0	16153	14850	159357	27440	950923	37699	105834	0	0	8125	810842	0	0
2024-04-24 06:42:32			0	33029	0	0	0	16140	14840	159609	27322	950854	37698	105829	0	0	8123	812987	0	0
2024-04-24 06:43:32			0	32950	0	0	0	16142	14830	159965	27197	950778	37686	105830	0	0	8118	817193	0	0
2024-04-24 06:44:32			0	32924	0	0	0	16140	14830	160005	27121	950830	37675	105829	0	0	8116	818566	0	0
2024-04-24 06:45:32			0	32899	0	0	0	16142	14820	160277	27305	950769	37674	105830	0	0	8115	819933	0	0
2024-04-24 06:46:32			0	32849	0	0	0	16127	14820	160509	27239	950743	37696	105824	0	0	8112	822584	0	0
2024-04-24 06:47:32			0	32811	0	0	0	16122	14810	160685	27150	950719	37673	105822	0	0	8110	824648	0	0
2024-04-24 06:48:32			0	32768	0	0	0	16132	14810	160912	27057	950719	37652	105826	0	0	8107	826938	0	0
2024-04-24 06:49:32			0	32728	0	0	0	16135	14800	161072	27227	950711	37683	105827	0	0	8104	829118	0	0
2024-04-24 06:50:32			0	32727	0	0	0	16148	14790	161052	27199	950721	37671	105832	0	0	8104	829216	0	0
2024-04-24 06:51:32			0	32733	0	0	0	16166	14800	161104	27322	950790	37683	105839	0	0	8104	828851	0	0
2024-04-24 06:52:32			0	32753	0	0	0	16161	14790	161008	27140	950792	37682	105837	0	0	8105	827828	0	0
2024-04-24 06:53:32			0	32743	0	0	0	16155	14810	160968	27260	950798	37684	105835	0	0	8105	828273	0	0
2024-04-24 06:54:32			0	32749	0	0	0	16168	14800	160992	27265	950781	37671	105840	0	0	8105	827997	0	0
2024-04-24 06:55:32			0	32776	0	0	0	16179	14810	160773	27419	950798	37706	105844	0	0	8106	826512	0	0
2024-04-24 06:56:32			0	32813	0	0	0	16176	14800	160665	27201	950781	37694	105843	0	0	8109	824586	0	0
2024-04-24 06:57:32			0	32828	0	0	0	16192	14800	160521	27107	950834	37683	105849	0	0	8109	823788	0	0
2024-04-24 06:58:32			0	32865	0	0	0	16186	14810	160385	27467	950903	37695	105847	0	0	8112	821779	0	0
2024-04-24 06:59:32			0	32906	0	0	0	16210	14820	160105	27066	950866	37684	105856	0	0	8114	819563	0	0
2024-04-24 07:00:32			0	32955	0	0	0	16205	14810	159825	27573	950832	37695	105854	0	0	8117	817016	0	0
2024-04-24 07:01:32			0	32992	0	0	0	16212	14830	159801	27254	950935	37675	105857	0	0	8119	814977	0	0
2024-04-24 07:02:32			0	33005	0	0	0	16220	14820	159717	27300	950953	37685	105860	0	0	8120	814336	0	0
2024-04-24 07:03:32			0	33015	0	0	0	16228	14820	159681	27345	950953	37696	105863	0	0	8120	813810	0	0
2024-04-24 07:04:32			0	33011	0	0	0	16212	14840	159697	27152	950951	37697	105857	0	0	8120	813933	0	0
2024-04-24 07:05:32			0	33001	0	0	0	16197	14840	159677	27485	950925	37686	105851	0	0	8120	814460	0	0
2024-04-24 07:06:32			0	32993	0	0	0	16231	14830	159701	27467	950962	37697	105864	0	0	8119	814925	0	0
2024-04-24 07:07:32			0	33030	0	0	0	16207	14840	159621	27353	950978	37686	105855	0	0	8122	812934	0	0
2024-04-24 07:08:32			0	33027	0	0	0	16212	14830	159505	27260	950943	37708	105857	0	0	8121	813135	0	0
2024-04-24 07:09:32			0	33029	0	0	0	16210	14830	159601	27324	950970	37686	105856	0	0	8122	813030	0	0
2024-04-24 07:10:32			0	33044	0	0	0	16218	14840	159525	27298	950951	37708	105859	0	0	8122	812198	0	0
2024-04-24 07:11:32			0	33048	0	0	0	16207	14830	159477	27046	950943	37686	105855	0	0	8123	812032	0	0
2024-04-24 07:12:32			0	33059	0	0	0	16199	14840	159573	27298	950925	37675	105852	0	0	8124	811411	0	0
2024-04-24 07:13:32			0	33034	0	0	0	16202	14840	159541	27123	950873	37686	105853	0	0	8122	812724	0	0
2024-04-24 07:14:32			0	33032	0	0	0	16215	14830	159613	27287	950962	37697	105858	0	0	8122	812872	0	0
2024-04-24 07:15:32			0	33044	0	0	0	16220	14840	159689	27255	951004	37697	105860	0	0	8122	812198	0	0
2024-04-24 07:16:32			0	33053	0	0	0	16202	14830	159441	27329	950996	37697	105853	0	0	8123	811769	0	0
2024-04-24 07:17:32			0	33048	0	0	0	16186	14840	159413	27478	950986	37687	105847	0	0	8123	811988	0	0
2024-04-24 07:18:32			0	33033	0	0	0	16161	14840	159697	27272	950899	37675	105837	0	0	8123	812776	0	0
2024-04-24 07:19:32			0	32968	0	0	0	16142	14830	159905	27064	950891	37675	105830	0	0	8119	816243	0	0
2024-04-24 07:20:32			0	32906	0	0	0	16129	14830	160193	27251	950751	37675	105825	0	0	8115	819519	0	0
2024-04-24 07:21:32			0	32872	0	0	0	16140	14810	160357	27057	950753	37684	105829	0	0	8113	821408	0	0
2024-04-24 07:22:32			0	32877	0	0	0	16174	14820	160341	27424	950788	37695	105842	0	0	8113	821099	0	0
2024-04-24 07:23:32			0	32886	0	0	0	16179	14820	160297	27140	950814	37684	105844	0	0	8113	820622	0	0
2024-04-24 07:24:32			0	32931	0	0	0	16186	14820	160037	27433	950866	37695	105847	0	0	8116	818240	0	0
2024-04-24 07:25:32			0	32951	0	0	0	16199	14820	159961	27345	950893	37695	105852	0	0	8117	817184	0	0
2024-04-24 07:26:32			0	32975	0	0	0	16202	14820	159805	27705	950866	37684	105853	0	0	8118	815917	0	0
2024-04-24 07:27:32			0	32992	0	0	0	16215	14830	159765	27294	950909	37686	105858	0	0	8119	814977	0	0
2024-04-24 07:28:32			0	33025	0	0	0	16207	14820	159501	27201	950893	37716	105855	0	0	8121	813284	0	0
2024-04-24 07:29:32			0	33043	0	0	0	16207	14820	159565	27038	950893	37695	105855	0	0	8122	812338	0	0
2024-04-24 07:30:32			0	33057	0	0	0	16215	14830	159505	27027	950935	37697	105858	0	0	8123	811559	0	0
2024-04-24 07:31:32			0	33072	0	0	0	16212	14830	159517	27239	950970	37686	105857	0	0	8124	810772	0	0
2024-04-24 07:32:32			0	33081	0	0	0	16207	14840	159325	27253	951004	37686	105855	0	0	8125	810256	0	0
2024-04-24 07:33:32			0	33082	0	0	0	16215	14840	159361	27289	950951	37686	105858	0	0	8125	810204	0	0
2024-04-24 07:34:32			0	33101	0	0	0	16210	14840	159289	27460	950960	37687	105856	0	0	8126	809208	0	0
2024-04-24 07:35:32			0	33111	0	0	0	16210	14850	159201	27556	950968	37688	105856	0	0	8127	808642	0	0
2024-04-24 07:36:32			0	33098	0	0	0	16197	14840	159241	27213	950951	37686	105851	0	0	8126	809366	0	0
2024-04-24 07:37:32			0	33093	0	0	0	16205	14840	159301	27665	950986	37698	105854	0	0	8126	809628	0	0
2024-04-24 07:38:32			0	33085	0	0	0	16199	14830	159341	27265	950917	37697	105852	0	0	8125	810090	0	0
2024-04-24 07:39:32			0	33078	0	0	0	16197	14840	159429	27308	950978	37697	105851	0	0	8125	810414	0	0
2024-04-24 07:40:32			0	33078	0	0	0	16207	14830	159361	27317	950943	37697	105855	0	0	8125	810457	0	0
2024-04-24 07:41:32			0	33075	0	0	0	16218	14850	159369	27450	950994	37699	105859	0	0	8124	810528	0	0
2024-04-24 07:42:32			0	33093	0	0	0	16233	14840	159345	27519	950951	37697	105865	0	0	8125	809628	0	0
2024-04-24 07:43:32			0	33096	0	0	0	16233	14850	159225	27549	950994	37688	105865	0	0	8125	809427	0	0
2024-04-24 07:44:32			0	33130	0	0	0	16236	14850	159121	27535	951020	37699	105866	0	0	8127	807648	0	0
2024-04-24 07:45:32			0	33172	0	0	0	16259	14850	159053	27381	951047	37699	105875	0	0	8129	805454	0	0
2024-04-24 07:46:32			0	33211	0	0	0	16257	14860	158741	27352	951097	37700	105874	0	0	8132	803378	0	0
2024-04-24 07:47:32			0	33235	0	0	0	16254	14860	158577	27274	951018	37688	105873	0	0	8133	802130	0	0
2024-04-24 07:48:32			0	33265	0	0	0	16262	14870	158389	27066	951113	37700	105876	0	0	8135	800528	0	0
2024-04-24 07:49:32			0	33295	0	0	0	16262	14870	158245	27312	951079	37710	105876	0	0	8137	798972	0	0
2024-04-24 07:50:32			0	33315	0	0	0	16254	14870	158249	27362	951079	37710	105873	0	0	8138	797936	0	0
2024-04-24 07:51:32			0	33317	0	0	0	16241	14870	158125	27204	951053	37689	105868	0	0	8139	797833	0	0
2024-04-24 07:52:32			0	33305	0	0	0	16241	14880	158201	27204	951121	37701	105868	0	0	8138	798411	0	0
2024-04-24 07:53:32			0	33267	0	0	0	16233	14860	158369	27331	951071	37688	105865	0	0	8136	800467	0	0
2024-04-24 07:54:32			0	33237	0	0	0	16212	14880	158409	27460	951095	37701	105857	0	0	8134	801940	0	0
2024-04-24 07:55:32			0	33218	0	0	0	16207	14860	158685	27531	951045	37700	105855	0	0	8133	803014	0	0
2024-04-24 07:56:32			0	33182	0	0	0	16199	14860	158869	27435	951071	37688	105852	0	0	8131	804889	0	0
2024-04-24 07:57:32			0	33136	0	0	0	16176	14860	158985	27147	950958	37688	105843	0	0	8129	807291	0	0
2024-04-24 07:58:32			0	33104	0	0	0	16168	14860	159113	27763	950984	37677	105840	0	0	8127	808965	0	0
2024-04-24 07:59:32			0	33067	0	0	0	16124	14850	159253	27322	950889	37676	105823	0	0	8125	810947	0	0
2024-04-24 08:00:32			0	32992	0	0	0	16122	14830	159697	27602	950830	37665	105822	0	0	8121	814977	0	0
2024-04-24 08:01:32			0	32932	0	0	0	16124	14830	160053	27611	950751	37675	105823	0	0	8117	818144	0	0
2024-04-24 08:02:32			0	32915	0	0	0	16129	14820	160189	27760	950822	37685	105825	0	0	8116	819086	0	0
2024-04-24 08:03:32			0	32874	0	0	0	16137	14810	160385	27616	950753	37673	105828	0	0	8113	821302	0	0
2024-04-24 08:04:32			0	32833	0	0	0	16135	14800	160501	27298	950763	37694	105827	0	0	8111	823522	0	0
2024-04-24 08:05:32			0	32814	0	0	0	16129	14800	160597	27789	950755	37683	105825	0	0	8110	824533	0	0
2024-04-24 08:06:32			0	32773	0	0	0	16127	14810	160764	27788	950745	37684	105824	0	0	8107	826672	0	0
2024-04-24 08:07:32			0	32771	0	0	0	16127	14790	160908	27320	950721	37671	105824	0	0	8107	826867	0	0
2024-04-24 08:08:32			0	32769	0	0	0	16140	14790	160844	27746	950739	37682	105829	0	0	8107	826974	0	0
2024-04-24 08:09:32			0	32757	0	0	0	16137	14790	160900	27310	950747	37683	105828	0	0	8106	827614	0	0
2024-04-24 08:10:32			0	32758	0	0	0	16137	14790	160912	27365	950747	37694	105828	0	0	8106	827561	0	0
2024-04-24 08:11:32			0	32759	0	0	0	16140	14790	160864	27409	950765	37693	105829	0	0	8106	827507	0	0
2024-04-24 08:12:32			0	32758	0	0	0	16137	14790	160980	27443	950747	37694	105828	0	0	8106	827561	0	0
2024-04-24 08:13:32			0	32749	0	0	0	16140	14790	160996	27433	950792	37693	105829	0	0	8105	828041	0	0
2024-04-24 08:14:32			0	32753	0	0	0	16148	14790	160856	27403	950739	37682	105832	0	0	8105	827828	0	0
2024-04-24 08:15:32			0	32775	0	0	0	16150	14780	160892	27488	950705	37682	105833	0	0	8107	826698	0	0
2024-04-24 08:16:32			0	32775	0	0	0	16148	14790	160873	27168	950660	37682	105832	0	0	8107	826654	0	0
2024-04-24 08:17:32			0	32773	0	0	0	16145	14780	160940	27452	950705	37693	105831	0	0	8107	826805	0	0
2024-04-24 08:18:32			0	32771	0	0	0	16153	14790	160936	27218	950739	37693	105834	0	0	8106	826867	0	0
2024-04-24 08:19:32			0	32782	0	0	0	16150	14790	160901	27258	950765	37693	105833	0	0	8107	826281	0	0
2024-04-24 08:20:32			0	32770	0	0	0	16142	14790	160964	27249	950739	37682	105830	0	0	8107	826920	0	0
2024-04-24 08:21:32			0	32784	0	0	0	16148	14790	160965	27564	950792	37682	105832	0	0	8107	826174	0	0
2024-04-24 08:22:32			0	32765	0	0	0	16132	14790	160836	27493	950686	37682	105826	0	0	8106	827187	0	0
2024-04-24 08:23:32			0	32770	0	0	0	16145	14790	160936	27403	950713	37682	105831	0	0	8106	826920	0	0
2024-04-24 08:24:32			0	32779	0	0	0	16148	14790	160905	27282	950818	37682	105832	0	0	8107	826441	0	0
2024-04-24 08:25:32			0	32764	0	0	0	16145	14780	160960	27445	950696	37670	105831	0	0	8106	827285	0	0
2024-04-24 08:26:32			0	32776	0	0	0	16142	14790	160957	27400	950747	37694	105830	0	0	8107	826600	0	0
2024-04-24 08:27:32			0	32792	0	0	0	16142	14790	160957	27220	950765	37693	105830	0	0	8108	825748	0	0
2024-04-24 08:28:32			0	32782	0	0	0	16137	14790	160837	27516	950739	37682	105828	0	0	8107	826281	0	0
2024-04-24 08:29:32			0	32796	0	0	0	16137	14790	160905	27779	950739	37682	105828	0	0	8108	825535	0	0
2024-04-24 08:30:32			0	32784	0	0	0	16140	14790	160809	27374	950792	37693	105829	0	0	8107	826174	0	0
2024-04-24 08:31:32			0	32802	0	0	0	16142	14770	160809	27409	950794	37680	105830	0	0	8108	825304	0	0
2024-04-24 08:32:32			0	32803	0	0	0	16150	14780	160749	27642	950749	37692	105833	0	0	8108	825206	0	0
2024-04-24 08:33:32			0	32818	0	0	0	16142	14780	160749	27194	950678	37682	105830	0	0	8109	824408	0	0
2024-04-24 08:34:32			0	32801	0	0	0	16132	14780	160721	27417	950696	37692	105826	0	0	8109	825313	0	0
2024-04-24 08:35:32			0	32820	0	0	0	16148	14780	160617	27575	950723	37681	105832	0	0	8109	824302	0	0
2024-04-24 08:36:32			0	32809	0	0	0	16145	14780	160733	27492	950783	37682	105831	0	0	8109	824887	0	0
2024-04-24 08:37:32			0	32830	0	0	0	16145	14780	160713	27478	950696	37692	105831	0	0	8110	823770	0	0
2024-04-24 08:38:32			0	32817	0	0	0	16155	14780	160729	27265	950775	37692	105835	0	0	8109	824461	0	0
2024-04-24 08:39:32			0	32831	0	0	0	16150	14780	160553	27507	950757	37693	105833	0	0	8110	823717	0	0
2024-04-24 08:40:32			0	32839	0	0	0	16155	14790	160497	27507	950739	37682	105835	0	0	8111	823248	0	0
2024-04-24 08:41:32			0	32845	0	0	0	16155	14780	160513	27183	950775	37692	105835	0	0	8111	822973	0	0
2024-04-24 08:42:32			0	32875	0	0	0	16155	14790	160429	27329	950826	37694	105835	0	0	8113	821337	0	0
2024-04-24 08:43:32			0	32873	0	0	0	16148	14780	160345	27306	950802	37703	105832	0	0	8113	821487	0	0
2024-04-24 08:44:32			0	32877	0	0	0	16148	14790	160293	26994	950792	37693	105832	0	0	8113	821231	0	0
2024-04-24 08:45:32			0	32883	0	0	0	16153	14780	160313	27362	950775	37692	105834	0	0	8113	820957	0	0
2024-04-24 08:46:32			0	32893	0	0	0	16158	14790	160257	27502	950747	37694	105836	0	0	8114	820383	0	0
2024-04-24 08:47:32			0	32906	0	0	0	16155	14790	160253	27277	950800	37705	105835	0	0	8115	819694	0	0
2024-04-24 08:48:32			0	32900	0	0	0	16148	14780	160133	27441	950696	37692	105832	0	0	8114	820056	0	0
2024-04-24 08:49:32			0	32909	0	0	0	16155	14790	160225	27339	950739	37661	105835	0	0	8115	819536	0	0
2024-04-24 08:50:32			0	32912	0	0	0	16163	14800	160213	27538	950729	37705	105838	0	0	8115	819333	0	0
2024-04-24 08:51:32			0	32895	0	0	0	16168	14780	160193	27177	950757	37693	105840	0	0	8114	820321	0	0
2024-04-24 08:52:32			0	32900	0	0	0	16176	14790	160225	27282	950792	37693	105843	0	0	8114	820012	0	0
2024-04-24 08:53:32			0	32920	0	0	0	16179	14790	160157	27409	950878	37694	105844	0	0	8115	818954	0	0
2024-04-24 08:54:32			0	32941	0	0	0	16199	14800	160077	27481	950860	37683	105852	0	0	8116	817799	0	0
2024-04-24 08:55:32			0	32957	0	0	0	16212	14800	159949	27500	950895	37694	105857	0	0	8117	816954	0	0
2024-04-24 08:56:32			0	32994	0	0	0	16207	14810	159785	27500	950903	37695	105855	0	0	8119	814960	0	0
2024-04-24 08:57:32			0	33013	0	0	0	16212	14800	159669	27694	950895	37694	105857	0	0	8120	814003	0	0
2024-04-24 08:58:32			0	33034	0	0	0	16176	14800	159633	27913	950887	37683	105843	0	0	8122	812898	0	0
2024-04-24 08:59:32			0	33014	0	0	0	16179	14800	159673	27654	950816	37683	105844	0	0	8121	813950	0	0
2024-04-24 09:00:32			0	33002	0	0	0	16171	14810	159669	27633	950824	37695	105841	0	0	8120	814538	0	0
2024-04-24 09:01:32			0	33004	0	0	0	16168	14810	159665	27807	950929	37695	105840	0	0	8121	814433	0	0
2024-04-24 09:02:32			0	32989	0	0	0	16171	14810	159701	27441	950877	37695	105841	0	0	8120	815223	0	0
2024-04-24 09:03:32			0	32988	0	0	0	16186	14810	159685	27561	950850	37695	105847	0	0	8119	815276	0	0
2024-04-24 09:04:32			0	33011	0	0	0	16181	14820	159669	27628	950919	37695	105845	0	0	8121	814021	0	0
2024-04-24 09:05:32			0	32991	0	0	0	16176	14810	159557	27457	950877	37695	105843	0	0	8120	815118	0	0
2024-04-24 09:06:32			0	33017	0	0	0	16181	14810	159621	27317	950877	37684	105845	0	0	8121	813749	0	0
2024-04-24 09:07:32			0	33018	0	0	0	16181	14810	159545	27592	950955	37695	105845	0	0	8121	813696	0	0
2024-04-24 09:08:32			0	33016	0	0	0	16192	14800	159657	27284	950921	37694	105849	0	0	8121	813845	0	0
2024-04-24 09:09:32			0	33030	0	0	0	16197	14810	159637	27284	950885	37695	105851	0	0	8122	813065	0	0
2024-04-24 09:10:32			0	33042	0	0	0	16192	14820	159581	27750	950901	37696	105849	0	0	8123	812390	0	0
2024-04-24 09:11:32			0	33050	0	0	0	16202	14800	159461	27433	950895	37694	105853	0	0	8123	812057	0	0
2024-04-24 09:12:32			0	33045	0	0	0	16197	14820	159473	27625	950893	37695	105851	0	0	8123	812233	0	0
2024-04-24 09:13:32			0	33052	0	0	0	16197	14820	159489	27331	950927	37685	105851	0	0	8123	811865	0	0
2024-04-24 09:14:32			0	33054	0	0	0	16202	14820	159393	27341	950998	37695	105853	0	0	8123	811760	0	0
2024-04-24 09:15:32			0	33068	0	0	0	16207	14840	159449	27319	950978	37686	105855	0	0	8124	810938	0	0
2024-04-24 09:16:32			0	33065	0	0	0	16199	14830	159517	27447	950883	37697	105852	0	0	8124	811139	0	0
2024-04-24 09:17:32			0	33055	0	0	0	16199	14830	159477	27698	950962	37697	105852	0	0	8123	811664	0	0
2024-04-24 09:18:32			0	33041	0	0	0	16210	14820	159469	27265	950980	37685	105856	0	0	8122	812443	0	0
2024-04-24 09:19:32			0	33048	0	0	0	16218	14830	159409	27407	950962	37697	105859	0	0	8123	812032	0	0
2024-04-24 09:20:32			0	33045	0	0	0	16220	14840	159385	27486	951030	37708	105860	0	0	8122	812146	0	0
2024-04-24 09:21:32			0	33058	0	0	0	16218	14830	159393	27601	951049	37697	105859	0	0	8123	811507	0	0
2024-04-24 09:22:32			0	33060	0	0	0	16223	14830	159413	27291	950988	37697	105861	0	0	8123	811402	0	0
2024-04-24 09:23:32			0	33048	0	0	0	16225	14840	159465	27563	951030	37697	105862	0	0	8122	811988	0	0
2024-04-24 09:24:32			0	33071	0	0	0	16236	14840	159357	27512	951091	37698	105866	0	0	8124	810781	0	0
2024-04-24 09:25:32			0	33078	0	0	0	16236	14840	159261	27294	951065	37698	105866	0	0	8124	810414	0	0
2024-04-24 09:26:32			0	33074	0	0	0	16244	14850	159289	27435	951107	37699	105869	0	0	8124	810580	0	0
2024-04-24 09:27:32			0	33093	0	0	0	16249	14840	159301	27554	951144	37708	105871	0	0	8125	809628	0	0
2024-04-24 09:28:32			0	33098	0	0	0	16251	14860	159301	27517	951097	37700	105872	0	0	8125	809279	0	0
2024-04-24 09:29:32			0	33095	0	0	0	16259	14860	159281	27642	951142	37721	105875	0	0	8125	809436	0	0
2024-04-24 09:30:32			0	33095	0	0	0	16257	14860	159205	27713	951097	37710	105874	0	0	8125	809436	0	0
2024-04-24 09:31:32			0	33104	0	0	0	16262	14880	159221	27479	951148	37711	105876	0	0	8125	808878	0	0
2024-04-24 09:32:32			0	33107	0	0	0	16249	14860	159241	27249	951123	37700	105871	0	0	8126	808808	0	0
2024-04-24 09:33:32			0	33105	0	0	0	16259	14870	159153	27762	951184	37710	105875	0	0	8126	808869	0	0
2024-04-24 09:34:32			0	33111	0	0	0	16259	14870	159109	27481	951140	37700	105875	0	0	8126	808555	0	0
2024-04-24 09:35:32			0	33113	0	0	0	16257	14880	159197	27559	951174	37711	105874	0	0	8126	808407	0	0
2024-04-24 09:36:32			0	33109	0	0	0	16267	14880	159225	27668	951156	37711	105878	0	0	8126	808616	0	0
2024-04-24 09:37:32			0	33105	0	0	0	16272	14880	159129	27135	951121	37711	105880	0	0	8125	808826	0	0
2024-04-24 09:38:32			0	33112	0	0	0	16259	14880	159117	27211	951200	37701	105875	0	0	8126	808459	0	0
2024-04-24 09:39:32			0	33105	0	0	0	16267	14880	159117	27464	951095	37701	105878	0	0	8125	808826	0	0
2024-04-24 09:40:32			0	33115	0	0	0	16259	14890	159045	27566	951172	37703	105875	0	0	8126	808259	0	0
2024-04-24 09:41:32			0	33126	0	0	0	16259	14880	159065	27360	951121	37711	105875	0	0	8127	807727	0	0
2024-04-24 09:42:32			0	33121	0	0	0	16251	14880	158885	27255	951156	37722	105872	0	0	8127	807988	0	0
2024-04-24 09:43:32			0	33150	0	0	0	16262	14880	158945	27530	951156	37701	105876	0	0	8128	806473	0	0
2024-04-24 09:44:32			0	33134	0	0	0	16262	14890	158989	27467	951225	37713	105876	0	0	8127	807265	0	0
2024-04-24 09:45:32			0	33157	0	0	0	16270	14880	158933	27426	951121	37701	105879	0	0	8129	806107	0	0
2024-04-24 09:46:32			0	33173	0	0	0	16280	14880	158885	27602	951261	37701	105883	0	0	8129	805272	0	0
2024-04-24 09:47:32			0	33179	0	0	0	16280	14890	158877	27345	951191	37712	105883	0	0	8130	804916	0	0
2024-04-24 09:48:32			0	33187	0	0	0	16277	14890	158825	27268	951243	37712	105882	0	0	8130	804499	0	0
2024-04-24 09:49:32			0	33193	0	0	0	16277	14900	158737	27358	951286	37713	105882	0	0	8131	804143	0	0
2024-04-24 09:50:32			0	33195	0	0	0	16275	14890	158721	27362	951243	37712	105881	0	0	8131	804082	0	0
2024-04-24 09:51:32			0	33208	0	0	0	16275	14890	158633	27152	951199	37703	105881	0	0	8132	803405	0	0
2024-04-24 09:52:32			0	33210	0	0	0	16264	14900	158621	27450	951233	37713	105877	0	0	8132	803258	0	0
2024-04-24 09:53:32			0	33229	0	0	0	16272	14890	158637	27324	951251	37713	105880	0	0	8133	802313	0	0
2024-04-24 09:54:32			0	33227	0	0	0	16275	14890	158469	27490	951251	37703	105881	0	0	8133	802417	0	0
2024-04-24 09:55:32			0	33240	0	0	0	16283	14890	158489	27543	951278	37703	105884	0	0	8133	801741	0	0
2024-04-24 09:56:32			0	33245	0	0	0	16280	14900	158369	27225	951259	37724	105883	0	0	8134	801438	0	0
2024-04-24 09:57:32			0	33241	0	0	0	16277	14900	158417	27388	951207	37703	105882	0	0	8134	801646	0	0
2024-04-24 09:58:32			0	33248	0	0	0	16280	14900	158433	27750	951207	37692	105883	0	0	8134	801282	0	0
2024-04-24 09:59:32			0	33257	0	0	0	16270	14890	158413	27485	951270	37712	105879	0	0	8135	800858	0	0
2024-04-24 10:00:32			0	33259	0	0	0	16275	14900	158477	27528	951181	37713	105881	0	0	8135	800711	0	0
2024-04-24 10:01:32			0	33242	0	0	0	16277	14900	158345	27261	951207	37713	105882	0	0	8134	801594	0	0
2024-04-24 10:02:32			0	33258	0	0	0	16272	14900	158397	27421	951268	37692	105880	0	0	8135	800763	0	0
2024-04-24 10:03:32			0	33277	0	0	0	16275	14900	158373	27495	951181	37703	105881	0	0	8136	799777	0	0
2024-04-24 10:04:32			0	33282	0	0	0	16285	14900	158321	27647	951259	37703	105885	0	0	8136	799517	0	0
2024-04-24 10:05:32			0	33280	0	0	0	16280	14900	158357	27345	951320	37713	105883	0	0	8136	799621	0	0
2024-04-24 10:06:32			0	33279	0	0	0	16272	14910	158389	27374	951302	37693	105880	0	0	8136	799630	0	0
2024-04-24 10:07:32			0	33294	0	0	0	16277	14900	158317	27426	951215	37703	105882	0	0	8137	798896	0	0
2024-04-24 10:08:32			0	33276	0	0	0	16272	14900	158253	27166	951207	37703	105880	0	0	8136	799829	0	0
2024-04-24 10:09:32			0	33299	0	0	0	16283	14900	158201	27371	951233	37703	105884	0	0	8137	798637	0	0
2024-04-24 10:10:32			0	33277	0	0	0	16288	14900	158201	27253	951365	37703	105886	0	0	8136	799777	0	0
2024-04-24 10:11:32			0	33305	0	0	0	16298	14910	158241	27244	951284	37726	105890	0	0	8137	798283	0	0
2024-04-24 10:12:32			0	33327	0	0	0	16290	14900	158165	27466	951241	37713	105887	0	0	8139	797187	0	0
2024-04-24 10:13:32			0	33339	0	0	0	16288	14900	158061	27409	951373	37713	105886	0	0	8139	796566	0	0
2024-04-24 10:14:32			0	33327	0	0	0	16283	14910	158073	27365	951310	37715	105884	0	0	8139	797144	0	0
2024-04-24 10:15:32			0	33326	0	0	0	16283	14910	158013	27352	951363	37705	105884	0	0	8139	797196	0	0
2024-04-24 10:16:32			0	33346	0	0	0	16285	14910	157953	27377	951257	37715	105885	0	0	8140	796162	0	0
2024-04-24 10:17:32			0	33360	0	0	0	16290	14910	158025	27436	951355	37714	105887	0	0	8141	795439	0	0
2024-04-24 10:18:32			0	33372	0	0	0	16288	14910	158005	27190	951276	37704	105886	0	0	8141	794819	0	0
2024-04-24 10:19:32			0	33382	0	0	0	16283	14920	157801	27478	951239	37715	105884	0	0	8142	794261	0	0
2024-04-24 10:20:32			0	33393	0	0	0	16285	14910	157793	27345	951389	37715	105885	0	0	8143	793736	0	0
2024-04-24 10:21:32			0	33411	0	0	0	16285	14910	157669	27327	951302	37714	105885	0	0	8144	792809	0	0
2024-04-24 10:22:32			0	33450	0	0	0	16290	14910	157425	27265	951284	37715	105887	0	0	8146	790803	0	0
2024-04-24 10:23:32			0	33463	0	0	0	16288	14910	157441	27426	951284	37715	105886	0	0	8147	790135	0	0
2024-04-24 10:24:32			0	33461	0	0	0	16301	14910	157417	27573	951336	37726	105891	0	0	8146	790238	0	0
2024-04-24 10:25:32			0	33479	0	0	0	16285	14930	157417	27490	951334	37705	105885	0	0	8148	789229	0	0
2024-04-24 10:26:32			0	33486	0	0	0	16290	14930	157345	27514	951334	37727	105887	0	0	8148	788870	0	0
2024-04-24 10:27:32			0	33476	0	0	0	16296	14910	157473	27526	951363	37715	105889	0	0	8147	789467	0	0
2024-04-24 10:28:32			0	33486	0	0	0	16309	14930	157405	27448	951387	37705	105894	0	0	8148	788870	0	0
2024-04-24 10:29:32			0	33476	0	0	0	16298	14930	157321	27509	951334	37705	105890	0	0	8148	789383	0	0
2024-04-24 10:30:32			0	33483	0	0	0	16303	14920	157281	27379	951397	37715	105892	0	0	8148	789066	0	0
2024-04-24 10:31:32			0	33490	0	0	0	16314	14930	157209	27362	951387	37715	105896	0	0	8148	788665	0	0
2024-04-24 10:32:32			0	33489	0	0	0	16311	14930	157289	27334	951413	37705	105895	0	0	8148	788716	0	0
2024-04-24 10:33:32			0	33510	0	0	0	16314	14940	157229	27512	951438	37707	105896	0	0	8149	787598	0	0
2024-04-24 10:34:32			0	33511	0	0	0	16314	14920	157181	27410	951431	37705	105896	0	0	8149	787631	0	0
2024-04-24 10:35:32			0	33511	0	0	0	16322	14940	157233	27358	951456	37716	105899	0	0	8149	787546	0	0
2024-04-24 10:36:32			0	33539	0	0	0	16327	14950	157065	27324	951472	37717	105901	0	0	8151	786071	0	0
2024-04-24 10:37:32			0	33567	0	0	0	16337	14940	156893	27365	951490	37717	105905	0	0	8152	784682	0	0
2024-04-24 10:38:32			0	33610	0	0	0	16340	14940	156782	27646	951464	37717	105906	0	0	8155	782489	0	0
2024-04-24 10:39:32			0	33612	0	0	0	16345	14950	156574	27312	951498	37728	105908	0	0	8155	782345	0	0
2024-04-24 10:40:32			0	33628	0	0	0	16337	14950	156574	27763	951506	37718	105905	0	0	8156	781530	0	0
2024-04-24 10:41:32			0	33651	0	0	0	16350	14950	156454	27537	951559	37718	105910	0	0	8157	780360	0	0
2024-04-24 10:42:32			0	33685	0	0	0	16366	14960	156346	27672	951567	37729	105916	0	0	8159	778592	0	0
2024-04-24 10:43:32			0	33741	0	0	0	16379	14960	156178	27633	951567	37729	105921	0	0	8162	775754	0	0
2024-04-24 10:44:32			0	33763	0	0	0	16387	14970	156022	27694	951644	37720	105924	0	0	8163	774600	0	0
2024-04-24 10:45:32			0	33779	0	0	0	16402	14980	155874	27770	951600	37752	105930	0	0	8164	773751	0	0
2024-04-24 10:46:32			0	33817	0	0	0	16392	14990	155842	27772	951721	37732	105926	0	0	8166	771792	0	0
2024-04-24 10:47:32			0	33844	0	0	0	16405	14990	155622	27663	951755	37721	105931	0	0	8168	770433	0	0
2024-04-24 10:48:32			0	33837	0	0	0	16418	14990	155726	27914	951729	37743	105936	0	0	8167	770785	0	0
2024-04-24 10:49:32			0	33839	0	0	0	16420	15010	155598	27732	951772	37722	105937	0	0	8167	770602	0	0
2024-04-24 10:50:32			0	33864	0	0	0	16425	15010	155442	27887	951754	37745	105939	0	0	8169	769344	0	0
2024-04-24 10:51:32			0	33877	0	0	0	16438	15030	155422	27812	951857	37735	105944	0	0	8169	768609	0	0
2024-04-24 10:52:32			0	33901	0	0	0	16446	15030	155382	27393	951857	37735	105947	0	0	8171	767404	0	0
2024-04-24 10:53:32			0	33902	0	0	0	16451	15030	155266	27789	951944	37757	105949	0	0	8171	767354	0	0
2024-04-24 10:54:32			0	33917	0	0	0	16454	15030	155242	27689	951839	37747	105950	0	0	8171	766602	0	0
2024-04-24 10:55:32			0	33917	0	0	0	16475	15040	155286	27507	951908	37748	105958	0	0	8171	766561	0	0
2024-04-24 10:56:32			0	33923	0	0	0	16459	15050	155314	27920	951976	37737	105952	0	0	8172	766219	0	0
2024-04-24 10:57:32			0	33928	0	0	0	16470	15060	155186	27765	951932	37759	105956	0	0	8172	765928	0	0
2024-04-24 10:58:32			0	33926	0	0	0	16477	15060	155278	27894	951940	37749	105959	0	0	8172	766028	0	0
2024-04-24 10:59:32			0	33935	0	0	0	16480	15060	155294	27897	952019	37727	105960	0	0	8172	765577	0	0
2024-04-24 11:00:32			0	33959	0	0	0	16498	15070	155174	27705	951974	37738	105967	0	0	8173	764335	0	0
2024-04-24 11:01:32			0	33954	0	0	0	16480	15070	155070	27736	952035	37739	105960	0	0	8173	764585	0	0
2024-04-24 11:02:32			0	33964	0	0	0	16493	15090	155146	27894	952086	37740	105965	0	0	8174	764003	0	0
2024-04-24 11:03:32			0	33946	0	0	0	16516	15090	155074	28017	952059	37761	105974	0	0	8172	764904	0	0
2024-04-24 11:04:32			0	33993	0	0	0	16527	15090	154970	27918	952086	37740	105978	0	0	8175	762555	0	0
2024-04-24 11:05:32			0	33996	0	0	0	16509	15100	154810	28067	952102	37752	105971	0	0	8175	762365	0	0
2024-04-24 11:06:32			0	33991	0	0	0	16514	15100	154938	28015	952163	37753	105973	0	0	8175	762614	0	0
2024-04-24 11:07:32			0	34021	0	0	0	16511	15110	154798	27848	952126	37753	105972	0	0	8177	761077	0	0
2024-04-24 11:08:32			0	34029	0	0	0	16522	15120	154766	27614	952195	37765	105976	0	0	8177	760638	0	0
2024-04-24 11:09:32			0	34008	0	0	0	16532	15120	154790	27698	952161	37753	105980	0	0	8176	761684	0	0
2024-04-24 11:10:32			0	34041	0	0	0	16548	15130	154746	27409	952185	37744	105986	0	0	8178	759999	0	0
2024-04-24 11:11:32			0	34036	0	0	0	16548	15130	154614	27696	952317	37765	105986	0	0	8177	760248	0	0
2024-04-24 11:12:32			0	34027	0	0	0	16535	15140	154674	27507	952307	37756	105981	0	0	8177	760656	0	0
2024-04-24 11:13:32			0	34048	0	0	0	16542	15150	154702	27803	952341	37746	105984	0	0	8178	759570	0	0
2024-04-24 11:14:32			0	34043	0	0	0	16548	15140	154670	27561	952351	37755	105986	0	0	8178	759859	0	0
2024-04-24 11:15:32			0	34079	0	0	0	16568	15140	154494	27847	952307	37756	105994	0	0	8179	758070	0	0
2024-04-24 11:16:32			0	34088	0	0	0	16581	15160	154362	27758	952384	37768	105999	0	0	8180	757541	0	0
2024-04-24 11:17:32			0	34104	0	0	0	16581	15160	154334	27854	952384	37768	105999	0	0	8181	756747	0	0
2024-04-24 11:18:32			0	34135	0	0	0	16576	15170	154150	27552	952434	37758	105997	0	0	8183	755170	0	0
2024-04-24 11:19:32			0	34160	0	0	0	16576	15180	154190	27866	952390	37769	105997	0	0	8184	753893	0	0
2024-04-24 11:20:32			0	34146	0	0	0	16548	15180	154066	27880	952416	37758	105986	0	0	8184	754585	0	0
2024-04-24 11:21:32			0	34175	0	0	0	16574	15180	154182	27822	952416	37758	105996	0	0	8185	753151	0	0
2024-04-24 11:22:32			0	34179	0	0	0	16584	15180	154026	27828	952443	37758	106000	0	0	8185	752954	0	0
2024-04-24 11:23:32			0	34181	0	0	0	16581	15180	154006	27431	952451	37759	105999	0	0	8185	752855	0	0
2024-04-24 11:24:32			0	34197	0	0	0	16574	15190	154058	27989	952485	37760	105996	0	0	8186	752025	0	0
2024-04-24 11:25:32			0	34195	0	0	0	16605	15200	153862	27873	952528	37771	106008	0	0	8186	752083	0	0
2024-04-24 11:26:32			0	34227	0	0	0	16610	15190	153854	27885	952520	37760	106010	0	0	8188	750545	0	0
2024-04-24 11:27:32			0	34259	0	0	0	16620	15210	153678	27485	952544	37762	106014	0	0	8189	748889	0	0
2024-04-24 11:28:32			0	34264	0	0	0	16636	15210	153506	27362	952623	37762	106020	0	0	8189	748643	0	0
2024-04-24 11:29:32			0	34273	0	0	0	16620	15210	153402	27736	952605	37762	106014	0	0	8190	748201	0	0
2024-04-24 11:30:32			0	34291	0	0	0	16592	15230	153498	27505	952603	37775	106003	0	0	8192	747236	0	0
2024-04-24 11:31:32			0	34288	0	0	0	16597	15220	153430	27583	952586	37751	106005	0	0	8191	747423	0	0
2024-04-24 11:32:32			0	34283	0	0	0	16576	15220	153450	27403	952586	37773	105997	0	0	8191	747669	0	0
2024-04-24 11:33:32			0	34263	0	0	0	16561	15220	153558	27578	952534	37762	105991	0	0	8191	748652	0	0
2024-04-24 11:34:32			0	34239	0	0	0	16568	15220	153694	27920	952481	37751	105994	0	0	8189	749833	0	0
2024-04-24 11:35:32			0	34243	0	0	0	16589	15210	153730	27582	952526	37773	106002	0	0	8189	749676	0	0
2024-04-24 11:36:32			0	34213	0	0	0	16584	15210	153790	27587	952552	37751	106000	0	0	8187	751154	0	0
2024-04-24 11:37:32			0	34243	0	0	0	16594	15220	153682	27434	952508	37751	106004	0	0	8189	749636	0	0
2024-04-24 11:38:32			0	34247	0	0	0	16571	15220	153606	27689	952560	37762	105995	0	0	8189	749439	0	0
2024-04-24 11:39:32			0	34243	0	0	0	16576	15220	153550	27673	952542	37774	105997	0	0	8189	749636	0	0
2024-04-24 11:40:32			0	34257	0	0	0	16586	15220	153606	27940	952586	37762	106001	0	0	8190	748947	0	0
2024-04-24 11:41:32			0	34273	0	0	0	16581	15220	153542	27665	952586	37751	105999	0	0	8191	748160	0	0
2024-04-24 11:42:32			0	34249	0	0	0	16574	15230	153522	27552	952576	37763	105996	0	0	8190	749300	0	0
2024-04-24 11:43:32			0	34242	0	0	0	16579	15210	153578	27672	952518	37762	105998	0	0	8189	749726	0	0
2024-04-24 11:44:32			0	34261	0	0	0	16576	15210	153590	27739	952499	37762	105997	0	0	8190	748790	0	0
2024-04-24 11:45:32			0	34262	0	0	0	16589	15210	153498	27800	952552	37762	106002	0	0	8190	748741	0	0
2024-04-24 11:46:32			0	34294	0	0	0	16597	15210	153398	27350	952578	37773	106005	0	0	8192	747169	0	0
2024-04-24 11:47:32			0	34308	0	0	0	16589	15220	153358	27443	952613	37784	106002	0	0	8193	746442	0	0
2024-04-24 11:48:32			0	34314	0	0	0	16586	15220	153166	27587	952595	37751	106001	0	0	8193	746147	0	0
2024-04-24 11:49:32			0	34326	0	0	0	16589	15230	153202	27261	952550	37752	106002	0	0	8194	745519	0	0
2024-04-24 11:50:32			0	34353	0	0	0	16599	15220	153067	27595	952595	37763	106006	0	0	8195	744236	0	0
2024-04-24 11:51:32			0	34364	0	0	0	16586	15220	153095	27445	952621	37785	106001	0	0	8196	743698	0	0
2024-04-24 11:52:32			0	34361	0	0	0	16553	15220	153015	27505	952463	37763	105988	0	0	8196	743845	0	0
2024-04-24 11:53:32			0	34355	0	0	0	16566	15220	153055	27847	952463	37763	105993	0	0	8196	744138	0	0
2024-04-24 11:54:32			0	34339	0	0	0	16550	15220	153218	27286	952410	37785	105987	0	0	8195	744922	0	0
2024-04-24 11:55:32			0	34317	0	0	0	16558	15220	153242	27493	952481	37751	105990	0	0	8194	746000	0	0
2024-04-24 11:56:32			0	34359	0	0	0	16563	15210	153135	27661	952491	37762	105992	0	0	8196	743982	0	0
2024-04-24 11:57:32			0	34340	0	0	0	16574	15200	153110	27476	952510	37772	105996	0	0	8195	744953	0	0
2024-04-24 11:58:32			0	34366	0	0	0	16581	15210	153175	27505	952544	37762	105999	0	0	8196	743640	0	0
2024-04-24 11:59:32			0	34387	0	0	0	16550	15200	153051	27613	952422	37760	105987	0	0	8198	742653	0	0
2024-04-24 12:00:32			0	34375	0	0	0	16540	15200	153059	27552	952422	37771	105983	0	0	8197	743240	0	0
2024-04-24 12:01:32			0	34342	0	0	0	16535	15210	153222	27547	952439	37773	105981	0	0	8196	744815	0	0
2024-04-24 12:02:32			0	34337	0	0	0	16545	15190	153302	27372	952388	37760	105985	0	0	8195	745140	0	0
2024-04-24 12:03:32			0	34346	0	0	0	16553	15200	153254	27711	952404	37772	105988	0	0	8195	744659	0	0
2024-04-24 12:04:32			0	34352	0	0	0	16540	15200	153255	27450	952475	37750	105983	0	0	8196	744365	0	0
2024-04-24 12:05:32			0	34357	0	0	0	16553	15200	153159	27388	952449	37750	105988	0	0	8196	744120	0	0
2024-04-24 12:06:32			0	34365	0	0	0	16535	15200	153111	27215	952396	37750	105981	0	0	8197	743729	0	0
2024-04-24 12:07:32			0	34348	0	0	0	16537	15190	153098	27563	952406	37750	105982	0	0	8196	744601	0	0
2024-04-24 12:08:32			0	34351	0	0	0	16535	15190	153135	27332	952459	37750	105981	0	0	8196	744454	0	0
2024-04-24 12:09:32			0	34351	0	0	0	16545	15190	153107	27346	952441	37750	105985	0	0	8196	744454	0	0
2024-04-24 12:10:32			0	34351	0	0	0	16545	15190	153191	27516	952380	37771	105985	0	0	8196	744454	0	0
2024-04-24 12:11:32			0	34360	0	0	0	16540	15190	153079	27331	952433	37771	105983	0	0	8196	744013	0	0
2024-04-24 12:12:32			0	34353	0	0	0	16532	15180	153087	27601	952372	37759	105980	0	0	8196	744396	0	0
2024-04-24 12:13:32			0	34380	0	0	0	16535	15180	153163	27313	952372	37759	105981	0	0	8198	743075	0	0
2024-04-24 12:14:32			0	34356	0	0	0	16527	15180	153163	27561	952345	37749	105978	0	0	8196	744249	0	0
2024-04-24 12:15:32			0	34363	0	0	0	16522	15180	153071	27779	952398	37749	105976	0	0	8197	743906	0	0
2024-04-24 12:16:32			0	34352	0	0	0	16527	15180	153207	27774	952398	37759	105978	0	0	8196	744445	0	0
2024-04-24 12:17:32			0	34381	0	0	0	16522	15170	153143	27547	952347	37748	105976	0	0	8198	743066	0	0
2024-04-24 12:18:32			0	34360	0	0	0	16529	15180	153087	27540	952337	37758	105979	0	0	8197	744053	0	0
2024-04-24 12:19:32			0	34364	0	0	0	16537	15180	153143	27500	952416	37769	105982	0	0	8197	743858	0	0
2024-04-24 12:20:32			0	34366	0	0	0	16535	15170	153119	27582	952408	37758	105981	0	0	8197	743800	0	0
2024-04-24 12:21:32			0	34363	0	0	0	16537	15180	153263	27892	952337	37748	105982	0	0	8197	743906	0	0
2024-04-24 12:22:32			0	34368	0	0	0	16553	15180	153175	27661	952345	37759	105988	0	0	8197	743662	0	0
2024-04-24 12:23:32			0	34365	0	0	0	16558	15180	153203	27549	952451	37759	105990	0	0	8196	743809	0	0
2024-04-24 12:24:32			0	34362	0	0	0	16545	15180	153211	27258	952364	37758	105985	0	0	8196	743955	0	0
2024-04-24 12:25:32			0	34364	0	0	0	16563	15190	153247	27111	952406	37760	105992	0	0	8196	743818	0	0
2024-04-24 12:26:32			0	34347	0	0	0	16553	15180	153371	27732	952416	37758	105988	0	0	8195	744690	0	0
2024-04-24 12:27:32			0	34332	0	0	0	16553	15190	153354	27854	952467	37760	105988	0	0	8195	745385	0	0
2024-04-24 12:28:32			0	34321	0	0	0	16542	15180	153354	28074	952424	37759	105984	0	0	8194	745964	0	0
2024-04-24 12:29:32			0	34321	0	0	0	16568	15180	153490	27731	952390	37748	105994	0	0	8194	745964	0	0
2024-04-24 12:30:32			0	34341	0	0	0	16584	15180	153362	27711	952372	37759	106000	0	0	8194	744984	0	0
2024-04-24 12:31:32			0	34363	0	0	0	16584	15180	153287	27592	952477	37759	106000	0	0	8196	743906	0	0
2024-04-24 12:32:32			0	34383	0	0	0	16594	15190	153203	27944	952572	37771	106004	0	0	8197	742888	0	0
2024-04-24 12:33:32			0	34397	0	0	0	16612	15190	153159	27718	952467	37760	106011	0	0	8197	742204	0	0
2024-04-24 12:34:32			0	34395	0	0	0	16581	15210	153015	27895	952570	37762	105999	0	0	8198	742222	0	0
2024-04-24 12:35:32			0	34379	0	0	0	16620	15220	153187	27859	952560	37751	106014	0	0	8196	742964	0	0
2024-04-24 12:36:32			0	34402	0	0	0	16636	15200	153047	27803	952607	37760	106020	0	0	8197	741920	0	0
2024-04-24 12:37:32			0	34429	0	0	0	16618	15220	152975	27635	952647	37785	106013	0	0	8199	740523	0	0
2024-04-24 12:38:32			0	34426	0	0	0	16625	15220	153059	27618	952613	37773	106016	0	0	8199	740669	0	0
2024-04-24 12:39:32			0	34444	0	0	0	16649	15230	152903	27454	952734	37775	106025	0	0	8200	739752	0	0
2024-04-24 12:40:32			0	34425	0	0	0	16625	15230	152807	27802	952637	37786	106016	0	0	8199	740678	0	0
2024-04-24 12:41:32			0	34410	0	0	0	16638	15230	152943	27715	952611	37775	106021	0	0	8198	741410	0	0
2024-04-24 12:42:32			0	34442	0	0	0	16646	15240	152891	27909	952680	37775	106024	0	0	8200	739809	0	0
2024-04-24 12:43:32			0	34451	0	0	0	16662	15250	152863	27881	952714	37776	106030	0	0	8200	739331	0	0
2024-04-24 12:44:32			0	34447	0	0	0	16667	15250	152827	28015	952740	37776	106032	0	0	8199	739526	0	0
2024-04-24 12:45:32			0	34437	0	0	0	16654	15250	152831	27757	952775	37777	106027	0	0	8199	740014	0	0
2024-04-24 12:46:32			0	34440	0	0	0	16696	15260	152839	27868	952757	37777	106043	0	0	8199	739828	0	0
2024-04-24 12:47:32			0	34459	0	0	0	16670	15260	152763	27802	952810	37788	106033	0	0	8200	738902	0	0
2024-04-24 12:48:32			0	34464	0	0	0	16662	15270	152791	27744	952808	37768	106030	0	0	8201	738619	0	0
2024-04-24 12:49:32			0	34451	0	0	0	16693	15270	152723	27989	952887	37790	106042	0	0	8199	739252	0	0
2024-04-24 12:50:32			0	34443	0	0	0	16680	15280	152751	27788	952895	37779	106037	0	0	8199	739602	0	0
2024-04-24 12:51:32			0	34458	0	0	0	16675	15280	152711	27672	952850	37768	106035	0	0	8200	738871	0	0
2024-04-24 12:52:32			0	34438	0	0	0	16646	15290	152771	27296	952858	37791	106024	0	0	8200	739806	0	0
2024-04-24 12:53:32			0	34427	0	0	0	16667	15290	152907	27422	952937	37791	106032	0	0	8199	740342	0	0
2024-04-24 12:54:32			0	34413	0	0	0	16667	15290	152847	28015	952858	37779	106032	0	0	8198	741025	0	0
2024-04-24 12:55:32			0	34413	0	0	0	16675	15290	152967	27653	952858	37779	106035	0	0	8198	741025	0	0
2024-04-24 12:56:32			0	34414	0	0	0	16685	15300	152979	27880	952927	37791	106039	0	0	8198	740936	0	0
2024-04-24 12:57:32			0	34423	0	0	0	16670	15300	152951	27758	952901	37781	106033	0	0	8198	740497	0	0
2024-04-24 12:58:32			0	34426	0	0	0	16701	15290	152907	27907	952937	37791	106045	0	0	8198	740391	0	0
2024-04-24 12:59:32			0	34429	0	0	0	16711	15300	152899	27831	952927	37791	106049	0	0	8198	740205	0	0
2024-04-24 13:00:32			0	34436	0	0	0	16714	15310	152775	27561	952943	37791	106050	0	0	8198	739824	0	0
2024-04-24 13:01:32			0	34448	0	0	0	16740	15320	152783	27991	953004	37782	106060	0	0	8199	739199	0	0
2024-04-24 13:02:32			0	34469	0	0	0	16701	15320	152651	27798	953091	37793	106045	0	0	8200	738177	0	0
2024-04-24 13:03:32			0	34463	0	0	0	16729	15320	152727	27718	953118	37793	106056	0	0	8200	738469	0	0
2024-04-24 13:04:32			0	34473	0	0	0	16714	15330	152603	28020	953028	37793	106050	0	0	8201	737943	0	0
2024-04-24 13:05:32			0	34464	0	0	0	16750	15340	152647	27466	953071	37785	106064	0	0	8199	738341	0	0
2024-04-24 13:06:32			0	34471	0	0	0	16701	15340	152643	27673	953116	37805	106045	0	0	8201	738001	0	0
2024-04-24 13:07:32			0	34451	0	0	0	16729	15340	152675	27982	953116	37794	106056	0	0	8199	738974	0	0
2024-04-24 13:08:32			0	34462	0	0	0	16685	15350	152647	27665	953105	37795	106039	0	0	8200	738399	0	0
2024-04-24 13:09:32			0	34446	0	0	0	16706	15340	152751	27829	953097	37785	106047	0	0	8199	739217	0	0
2024-04-24 13:10:32			0	34458	0	0	0	16701	15330	152791	27842	953081	37793	106045	0	0	8200	738673	0	0
2024-04-24 13:11:32			0	34436	0	0	0	16709	15340	152783	27739	953018	37785	106048	0	0	8199	739704	0	0
2024-04-24 13:12:32			0	34421	0	0	0	16729	15340	152823	27665	953097	37795	106056	0	0	8197	740435	0	0
2024-04-24 13:13:32			0	34428	0	0	0	16748	15340	152807	27802	953150	37795	106063	0	0	8197	740094	0	0
2024-04-24 13:14:32			0	34470	0	0	0	16755	15350	152791	28206	953219	37795	106066	0	0	8200	738010	0	0
2024-04-24 13:15:32			0	34465	0	0	0	16750	15360	152695	28114	953227	37807	106064	0	0	8200	738213	0	0
2024-04-24 13:16:32			0	34466	0	0	0	16779	15370	152547	27613	953243	37796	106075	0	0	8199	738125	0	0
2024-04-24 13:17:32			0	34485	0	0	0	16771	15370	152499	27706	953270	37796	106072	0	0	8200	737201	0	0
2024-04-24 13:18:32			0	34497	0	0	0	16787	15390	152427	27835	953381	37789	106078	0	0	8201	736539	0	0
2024-04-24 13:19:32			0	34525	0	0	0	16776	15380	152423	27734	953268	37798	106074	0	0	8203	735220	0	0
2024-04-24 13:20:32			0	34525	0	0	0	16766	15390	152303	27913	953329	37799	106070	0	0	8203	735181	0	0
2024-04-24 13:21:32			0	34511	0	0	0	16802	15400	152391	27926	953319	37799	106084	0	0	8202	735820	0	0
2024-04-24 13:22:32			0	34529	0	0	0	16799	15400	152367	27566	953398	37799	106083	0	0	8203	734948	0	0
2024-04-24 13:23:32			0	34524	0	0	0	16812	15400	152307	27777	953398	37799	106088	0	0	8202	735190	0	0
2024-04-24 13:24:32			0	34537	0	0	0	16792	15410	152335	27718	953361	37800	106080	0	0	8203	734520	0	0
2024-04-24 13:25:32			0	34548	0	0	0	16789	15400	152295	27767	953406	37811	106079	0	0	8204	734027	0	0
2024-04-24 13:26:32			0	34537	0	0	0	16807	15410	152267	27481	953422	37812	106086	0	0	8203	734520	0	0
2024-04-24 13:27:32			0	34527	0	0	0	16805	15410	152263	28065	953396	37800	106085	0	0	8202	735005	0	0
2024-04-24 13:28:32			0	34531	0	0	0	16805	15400	152263	27822	953406	37800	106085	0	0	8203	734851	0	0
2024-04-24 13:29:32			0	34523	0	0	0	16823	15420	152327	27994	953404	37800	106092	0	0	8202	735159	0	0
2024-04-24 13:30:32			0	34529	0	0	0	16810	15430	152295	27512	953454	37791	106087	0	0	8203	734829	0	0
2024-04-24 13:31:32			0	34540	0	0	0	16805	15430	152223	27710	953446	37813	106085	0	0	8203	734296	0	0
2024-04-24 13:32:32			0	34550	0	0	0	16784	15410	152247	27939	953448	37800	106077	0	0	8204	733891	0	0
2024-04-24 13:33:32			0	34533	0	0	0	16815	15420	152243	27814	953438	37801	106089	0	0	8203	734675	0	0
2024-04-24 13:34:32			0	34555	0	0	0	16831	15440	152127	27663	953515	37814	106095	0	0	8204	733530	0	0
2024-04-24 13:35:32			0	34544	0	0	0	16825	15430	152175	27812	953507	37802	106093	0	0	8203	734102	0	0
2024-04-24 13:36:32			0	34556	0	0	0	16818	15450	152123	27880	953531	37826	106090	0	0	8204	733442	0	0
2024-04-24 13:37:32			0	34540	0	0	0	16828	15440	152251	27965	953489	37814	106094	0	0	8203	734256	0	0
2024-04-24 13:38:32			0	34539	0	0	0	16807	15450	152247	27798	953531	37815	106086	0	0	8203	734265	0	0
2024-04-24 13:39:32			0	34527	0	0	0	16784	15450	152263	27973	953505	37815	106077	0	0	8203	734847	0	0
2024-04-24 13:40:32			0	34518	0	0	0	16846	15440	152367	28119	953489	37814	106101	0	0	8201	735322	0	0
2024-04-24 13:41:32			0	34511	0	0	0	16812	15440	152231	27800	953523	37814	106088	0	0	8202	735662	0	0
2024-04-24 13:42:32			0	34515	0	0	0	16789	15450	152283	27755	953505	37815	106079	0	0	8202	735429	0	0
2024-04-24 13:43:32			0	34493	0	0	0	16745	15440	152431	27746	953444	37803	106062	0	0	8202	736535	0	0
2024-04-24 13:44:32			0	34478	0	0	0	16807	15430	152407	27713	953454	37791	106086	0	0	8200	737304	0	0
2024-04-24 13:45:32			0	34520	0	0	0	16833	15430	152323	27557	953481	37813	106096	0	0	8202	735265	0	0
2024-04-24 13:46:32			0	34524	0	0	0	16846	15440	152167	27715	953568	37814	106101	0	0	8202	735032	0	0
2024-04-24 13:47:32			0	34546	0	0	0	16844	15440	152135	27499	953602	37814	106100	0	0	8203	733966	0	0
2024-04-24 13:48:32			0	34567	0	0	0	16844	15450	152111	27852	953566	37815	106100	0	0	8204	732910	0	0
2024-04-24 13:49:32			0	34560	0	0	0	16857	15450	152035	28020	953592	37804	106105	0	0	8204	733249	0	0
2024-04-24 13:50:32			0	34565	0	0	0	16864	15460	152023	27838	953661	37827	106108	0	0	8204	732968	0	0
2024-04-24 13:51:32			0	34569	0	0	0	16870	15460	151999	27731	953608	37816	106110	0	0	8204	732774	0	0
2024-04-24 13:52:32			0	34590	0	0	0	16828	15470	151999	27956	953590	37806	106094	0	0	8206	731720	0	0
2024-04-24 13:53:32			0	34574	0	0	0	16838	15460	152031	27892	953556	37794	106098	0	0	8205	732532	0	0
2024-04-24 13:54:32			0	34572	0	0	0	16841	15460	152087	27779	953582	37827	106099	0	0	8205	732629	0	0
2024-04-24 13:55:32			0	34562	0	0	0	16857	15460	152079	27803	953600	37816	106105	0	0	8204	733113	0	0
2024-04-24 13:56:32			0	34564	0	0	0	16851	15470	152051	28053	953590	37806	106103	0	0	8204	732977	0	0
2024-04-24 13:57:32			0	34563	0	0	0	16864	15480	152091	27384	953659	37817	106108	0	0	8204	732985	0	0
2024-04-24 13:58:32			0	34563	0	0	0	16836	15480	151999	27353	953685	37817	106097	0	0	8204	732985	0	0
2024-04-24 13:59:32			0	34561	0	0	0	16823	15480	152107	27402	953659	37806	106092	0	0	8204	733082	0	0
2024-04-24 14:00:32			0	34549	0	0	0	16851	15470	152019	27464	953625	37806	106103	0	0	8203	733702	0	0
2024-04-24 14:01:32			0	34577	0	0	0	16849	15470	152075	27736	953669	37794	106102	0	0	8205	732348	0	0
2024-04-24 14:02:32			0	34566	0	0	0	16851	15480	151971	27672	953659	37817	106103	0	0	8204	732840	0	0
2024-04-24 14:03:32			0	34568	0	0	0	16862	15480	151971	27900	953667	37806	106107	0	0	8204	732744	0	0
2024-04-24 14:04:32			0	34599	0	0	0	16867	15480	151979	27746	953685	37839	106109	0	0	8206	731246	0	0
2024-04-24 14:05:32			0	34574	0	0	0	16836	15480	152031	27798	953694	37795	106097	0	0	8205	732454	0	0
2024-04-24 14:06:32			0	34590	0	0	0	16885	15490	151975	27670	953702	37818	106116	0	0	8205	731641	0	0
2024-04-24 14:07:32			0	34615	0	0	0	16877	15480	151935	27531	953773	37829	106113	0	0	8207	730474	0	0
2024-04-24 14:08:32			0	34602	0	0	0	16914	15490	151935	27977	953736	37808	106127	0	0	8205	731062	0	0
2024-04-24 14:09:32			0	34616	0	0	0	16919	15510	151771	27953	953813	37820	106129	0	0	8206	730308	0	0
2024-04-24 14:10:32			0	34646	0	0	0	16906	15500	151755	27559	953779	37809	106124	0	0	8208	728901	0	0
2024-04-24 14:11:32			0	34638	0	0	0	16911	15510	151759	27627	953892	37809	106126	0	0	8207	729247	0	0
2024-04-24 14:12:32			0	34643	0	0	0	16859	15510	151707	27874	953874	37821	106106	0	0	8209	729006	0	0
2024-04-24 14:13:32			0	34644	0	0	0	16870	15500	151719	27935	953779	37809	106110	0	0	8208	728997	0	0
2024-04-24 14:14:32			0	34642	0	0	0	16893	15510	151859	27609	953787	37820	106119	0	0	8208	729055	0	0
2024-04-24 14:15:32			0	34636	0	0	0	16896	15510	151687	27633	953840	37831	106120	0	0	8208	729344	0	0
2024-04-24 14:16:32			0	34642	0	0	0	16885	15520	151659	27718	953864	37822	106116	0	0	8208	729015	0	0
2024-04-24 14:17:32			0	34643	0	0	0	16898	15520	151691	27701	953785	37811	106121	0	0	8208	728967	0	0
2024-04-24 14:18:32			0	34624	0	0	0	16890	15510	151671	27737	953874	37821	106118	0	0	8207	729922	0	0
2024-04-24 14:19:32			0	34636	0	0	0	16896	15520	151743	27677	953811	37833	106120	0	0	8208	729304	0	0
2024-04-24 14:20:32			0	34629	0	0	0	16898	15520	151639	27469	953838	37822	106121	0	0	8207	729641	0	0
2024-04-24 14:21:32			0	34639	0	0	0	16872	15510	151687	27869	953848	37832	106111	0	0	8208	729199	0	0
2024-04-24 14:22:32			0	34634	0	0	0	16903	15520	151643	27563	953856	37810	106123	0	0	8207	729401	0	0
2024-04-24 14:23:32			0	34653	0	0	0	16898	15520	151731	27847	953943	37833	106121	0	0	8209	728486	0	0
2024-04-24 14:24:32			0	34654	0	0	0	16932	15520	151683	27751	953890	37822	106134	0	0	8208	728438	0	0
2024-04-24 14:25:32			0	34671	0	0	0	16909	15530	151527	27554	953933	37833	106125	0	0	8209	727580	0	0
2024-04-24 14:26:32			0	34658	0	0	0	16893	15520	151643	27441	953996	37799	106119	0	0	8209	728245	0	0
2024-04-24 14:27:32			0	34630	0	0	0	16883	15530	151699	27317	953872	37822	106115	0	0	8208	729554	0	0
2024-04-24 14:28:32			0	34627	0	0	0	16911	15530	151751	27859	953872	37822	106126	0	0	8207	729699	0	0
2024-04-24 14:29:32			0	34635	0	0	0	16875	15540	151783	27861	953888	37833	106112	0	0	8208	729274	0	0
2024-04-24 14:30:32			0	34629	0	0	0	16883	15530	151755	27557	953872	37822	106115	0	0	8207	729602	0	0
2024-04-24 14:31:32			0	34623	0	0	0	16896	15530	151863	27973	953854	37811	106120	0	0	8207	729891	0	0
2024-04-24 14:32:32			0	34594	0	0	0	16893	15530	151871	27748	953872	37822	106119	0	0	8205	731290	0	0
2024-04-24 14:33:32			0	34603	0	0	0	16909	15530	151835	27803	953925	37822	106125	0	0	8206	730856	0	0
2024-04-24 14:34:32			0	34620	0	0	0	16922	15530	151799	27845	953933	37811	106130	0	0	8206	730036	0	0
2024-04-24 14:35:32			0	34620	0	0	0	16950	15540	151695	27810	953994	37823	106141	0	0	8206	729997	0	0
2024-04-24 14:36:32			0	34654	0	0	0	16958	15550	151591	28133	954045	37824	106144	0	0	8208	728320	0	0
2024-04-24 14:37:32			0	34688	0	0	0	16958	15550	151583	27587	954018	37824	106144	0	0	8210	726685	0	0
2024-04-24 14:38:32			0	34699	0	0	0	16979	15550	151459	27479	954010	37823	106152	0	0	8210	726157	0	0
2024-04-24 14:39:32			0	34696	0	0	0	16953	15560	151475	27644	954079	37834	106142	0	0	8210	726262	0	0
2024-04-24 14:40:32			0	34708	0	0	0	16994	15560	151435	27937	954140	37835	106158	0	0	8210	725686	0	0
2024-04-24 14:41:32			0	34696	0	0	0	16945	15570	151391	27959	954095	37836	106139	0	0	8210	726223	0	0
2024-04-24 14:42:32			0	34715	0	0	0	16971	15570	151455	27798	954051	37836	106149	0	0	8211	725311	0	0
2024-04-24 14:43:32			0	34718	0	0	0	16979	15580	151351	27632	954172	37837	106152	0	0	8211	725128	0	0
2024-04-24 14:44:32			0	34734	0	0	0	16992	15590	151363	27783	954207	37828	106157	0	0	8212	724322	0	0
2024-04-24 14:45:32			0	34735	0	0	0	16961	15610	151223	27772	954205	37828	106145	0	0	8213	724196	0	0
2024-04-24 14:46:32			0	34719	0	0	0	16929	15600	151247	28029	954144	37828	106133	0	0	8212	725002	0	0
2024-04-24 14:47:32			0	34711	0	0	0	16958	15600	151403	27755	954118	37817	106144	0	0	8211	725386	0	0
2024-04-24 14:48:32			0	34702	0	0	0	16986	15590	151315	28025	954154	37838	106155	0	0	8210	725857	0	0
2024-04-24 14:49:32			0	34736	0	0	0	17002	15600	151187	27390	954171	37839	106161	0	0	8212	724187	0	0
2024-04-24 14:50:32			0	34747	0	0	0	16981	15610	151243	27798	954240	37829	106153	0	0	8213	723621	0	0
2024-04-24 14:51:32			0	34746	0	0	0	17002	15620	151247	27786	954221	37830	106161	0	0	8213	723630	0	0
2024-04-24 14:52:32			0	34739	0	0	0	16981	15620	151187	27140	954221	37830	106153	0	0	8212	723965	0	0
2024-04-24 14:53:32			0	34740	0	0	0	16976	15620	151187	27847	954116	37840	106151	0	0	8213	723917	0	0
2024-04-24 14:54:32			0	34753	0	0	0	16961	15610	151211	27989	954213	37839	106145	0	0	8214	723334	0	0
2024-04-24 14:55:32			0	34726	0	0	0	16961	15610	151299	27646	954161	37818	106145	0	0	8212	724627	0	0
2024-04-24 14:56:32			0	34715	0	0	0	16992	15620	151167	28015	954221	37830	106157	0	0	8211	725116	0	0
2024-04-24 14:57:32			0	34731	0	0	0	16994	15620	151235	27391	954229	37840	106158	0	0	8212	724349	0	0
2024-04-24 14:58:32			0	34750	0	0	0	16981	15620	151203	27213	954282	37840	106153	0	0	8213	723438	0	0
2024-04-24 14:59:32			0	34734	0	0	0	17010	15620	151139	27796	954221	37830	106164	0	0	8212	724205	0	0
2024-04-24 15:00:32			0	34748	0	0	0	16997	15620	151131	27966	954282	37830	106159	0	0	8213	723534	0	0
2024-04-24 15:01:32			0	34753	0	0	0	17007	15630	150991	27524	954291	37830	106163	0	0	8213	723256	0	0
2024-04-24 15:02:32			0	34757	0	0	0	17018	15640	151083	27692	954307	37842	106167	0	0	8213	723026	0	0
2024-04-24 15:03:32			0	34756	0	0	0	16986	15630	151035	27946	954299	37831	106155	0	0	8213	723112	0	0
2024-04-24 15:04:32			0	34754	0	0	0	16994	15630	151087	27531	954272	37831	106158	0	0	8213	723208	0	0
2024-04-24 15:05:32			0	34749	0	0	0	17007	15640	151039	27767	954289	37842	106163	0	0	8213	723408	0	0
2024-04-24 15:06:32			0	34751	0	0	0	17007	15630	151095	27497	954317	37819	106163	0	0	8213	723352	0	0
2024-04-24 15:07:32			0	34756	0	0	0	16984	15640	151059	27786	954289	37832	106154	0	0	8213	723073	0	0
2024-04-24 15:08:32			0	34730	0	0	0	16994	15640	151095	27675	954315	37832	106158	0	0	8212	724318	0	0
2024-04-24 15:09:32			0	34738	0	0	0	16997	15640	151075	27744	954315	37842	106159	0	0	8212	723935	0	0
2024-04-24 15:10:32			0	34758	0	0	0	16979	15640	151211	27722	954254	37853	106152	0	0	8214	722978	0	0
2024-04-24 15:11:32			0	34740	0	0	0	16994	15640	151151	27659	954341	37842	106158	0	0	8212	723839	0	0
2024-04-24 15:12:32			0	34740	0	0	0	16974	15640	151227	28005	954262	37832	106150	0	0	8213	723839	0	0
2024-04-24 15:13:32			0	34741	0	0	0	17036	15650	151203	27538	954270	37842	106174	0	0	8212	723752	0	0
2024-04-24 15:14:32			0	34769	0	0	0	17023	15650	151151	27703	954349	37842	106169	0	0	8214	722413	0	0
2024-04-24 15:15:32			0	34774	0	0	0	17038	15650	151135	27953	954410	37843	106175	0	0	8214	722174	0	0
2024-04-24 15:16:32			0	34763	0	0	0	17012	15660	151047	27776	954418	37844	106165	0	0	8213	722661	0	0
2024-04-24 15:17:32			0	34763	0	0	0	16997	15670	151111	27793	954356	37844	106159	0	0	8214	722622	0	0
2024-04-24 15:18:32			0	34734	0	0	0	16999	15660	151079	27805	954313	37833	106160	0	0	8212	724049	0	0
2024-04-24 15:19:32			0	34778	0	0	0	17015	15650	151191	27876	954410	37833	106166	0	0	8214	721982	0	0
2024-04-24 15:20:32			0	34764	0	0	0	17062	15650	151079	27755	954428	37842	106184	0	0	8213	722652	0	0
2024-04-24 15:21:32			0	34768	0	0	0	17041	15660	151003	27699	954426	37844	106176	0	0	8213	722422	0	0
2024-04-24 15:22:32			0	34752	0	0	0	17025	15680	150971	27640	954503	37845	106170	0	0	8213	723109	0	0
2024-04-24 15:23:32			0	34757	0	0	0	16997	15670	151015	27909	954408	37844	106159	0	0	8213	722909	0	0
2024-04-24 15:24:32			0	34769	0	0	0	17005	15660	151015	27718	954392	37833	106162	0	0	8214	722374	0	0
2024-04-24 15:25:32			0	34754	0	0	0	17015	15670	151139	27684	954435	37844	106166	0	0	8213	723052	0	0
2024-04-24 15:26:32			0	34738	0	0	0	16992	15670	151063	28024	954356	37844	106157	0	0	8212	723818	0	0
2024-04-24 15:27:32			0	34728	0	0	0	17005	15650	151311	27538	954331	37833	106162	0	0	8212	724375	0	0
2024-04-24 15:28:32			0	34734	0	0	0	16997	15660	151215	27923	954313	37844	106159	0	0	8212	724049	0	0
2024-04-24 15:29:32			0	34725	0	0	0	16974	15650	151243	27550	954331	37833	106150	0	0	8212	724519	0	0
2024-04-24 15:30:32			0	34709	0	0	0	16984	15640	151335	28091	954183	37853	106154	0	0	8211	725325	0	0
2024-04-24 15:31:32			0	34727	0	0	0	17023	15650	151311	27859	954331	37843	106169	0	0	8211	724423	0	0
2024-04-24 15:32:32			0	34720	0	0	0	16992	15650	151307	27802	954323	37842	106157	0	0	8211	724759	0	0
2024-04-24 15:33:32			0	34721	0	0	0	17018	15650	151271	27646	954244	37853	106167	0	0	8211	724711	0	0
2024-04-24 15:34:32			0	34709	0	0	0	16981	15650	151235	27857	954252	37833	106153	0	0	8211	725286	0	0
2024-04-24 15:35:32			0	34700	0	0	0	16986	15650	151327	28001	954297	37842	106155	0	0	8210	725718	0	0
2024-04-24 15:36:32			0	34715	0	0	0	17041	15650	151351	28100	954358	37833	106176	0	0	8210	724998	0	0
2024-04-24 15:37:32			0	34714	0	0	0	17020	15650	151291	27694	954323	37842	106168	0	0	8211	725046	0	0
2024-04-24 15:38:32			0	34713	0	0	0	17038	15650	151375	27987	954402	37842	106175	0	0	8210	725094	0	0
2024-04-24 15:39:32			0	34742	0	0	0	17038	15660	151167	27975	954453	37855	106175	0	0	8212	723666	0	0
2024-04-24 15:40:32			0	34747	0	0	0	17007	15670	151139	27840	954435	37833	106163	0	0	8213	723387	0	0
2024-04-24 15:41:32			0	34728	0	0	0	17007	15670	151131	28154	954416	37833	106163	0	0	8212	724297	0	0
2024-04-24 15:42:32			0	34726	0	0	0	16999	15660	151291	27609	954392	37822	106160	0	0	8212	724432	0	0
2024-04-24 15:43:32			0	34715	0	0	0	16986	15650	151231	27933	954410	37833	106155	0	0	8211	724998	0	0
2024-04-24 15:44:32			0	34692	0	0	0	16999	15660	151267	28105	954339	37844	106160	0	0	8210	726063	0	0
2024-04-24 15:45:32			0	34710	0	0	0	17020	15650	151307	27583	954305	37821	106168	0	0	8210	725238	0	0
2024-04-24 15:46:32			0	34711	0	0	0	17012	15650	151255	28013	954358	37843	106165	0	0	8210	725190	0	0
2024-04-24 15:47:32			0	34710	0	0	0	17015	15660	151267	28109	954366	37833	106166	0	0	8210	725199	0	0
2024-04-24 15:48:32			0	34724	0	0	0	17002	15650	151283	28247	954331	37843	106161	0	0	8211	724567	0	0
2024-04-24 15:49:32			0	34707	0	0	0	16997	15660	151267	28173	954426	37833	106159	0	0	8211	725343	0	0
2024-04-24 15:50:32			0	34700	0	0	0	17002	15660	151379	27784	954400	37833	106161	0	0	8210	725679	0	0
2024-04-24 15:51:32			0	34695	0	0	0	17023	15650	151379	27729	954402	37842	106169	0	0	8209	725958	0	0
2024-04-24 15:52:32			0	34702	0	0	0	16997	15660	151299	28064	954374	37844	106159	0	0	8210	725583	0	0
2024-04-24 15:53:32			0	34699	0	0	0	17020	15670	151311	28034	954461	37844	106168	0	0	8210	725688	0	0
2024-04-24 15:54:32			0	34713	0	0	0	17010	15650	151327	27646	954410	37833	106164	0	0	8211	725094	0	0
2024-04-24 15:55:32			0	34705	0	0	0	17012	15670	151355	27802	954356	37833	106165	0	0	8210	725400	0	0
2024-04-24 15:56:32			0	34692	0	0	0	17002	15670	151411	27892	954408	37844	106161	0	0	8210	726024	0	0
2024-04-24 15:57:32			0	34695	0	0	0	17010	15660	151387	28183	954366	37844	106164	0	0	8210	725919	0	0
2024-04-24 15:58:32			0	34711	0	0	0	17010	15660	151375	27507	954392	37844	106164	0	0	8211	725151	0	0
2024-04-24 15:59:32			0	34702	0	0	0	17005	15660	151371	28039	954400	37822	106162	0	0	8210	725583	0	0
2024-04-24 16:00:32			0	34681	0	0	0	17007	15660	151363	27862	954418	37844	106163	0	0	8209	726591	0	0
2024-04-24 16:01:32			0	34690	0	0	0	17054	15670	151415	27869	954435	37844	106181	0	0	8209	726120	0	0
2024-04-24 16:02:32			0	34705	0	0	0	17023	15670	151299	27921	954435	37844	106169	0	0	8210	725400	0	0
2024-04-24 16:03:32			0	34708	0	0	0	17018	15670	151423	27852	954416	37823	106167	0	0	8210	725256	0	0
2024-04-24 16:04:32			0	34707	0	0	0	17025	15660	151319	28390	954400	37833	106170	0	0	8210	725343	0	0
2024-04-24 16:05:32			0	34703	0	0	0	17046	15680	151271	27852	954477	37834	106178	0	0	8210	725457	0	0
2024-04-24 16:06:32			0	34697	0	0	0	17028	15680	151371	28096	954512	37846	106171	0	0	8210	725745	0	0
2024-04-24 16:07:32			0	34697	0	0	0	17054	15680	151299	27847	954477	37845	106181	0	0	8209	725745	0	0
2024-04-24 16:08:32			0	34694	0	0	0	17038	15680	151299	27831	954451	37845	106175	0	0	8209	725889	0	0
2024-04-24 16:09:32			0	34706	0	0	0	17018	15680	151299	28322	954538	37846	106167	0	0	8210	725313	0	0
2024-04-24 16:10:32			0	34698	0	0	0	17057	15670	151279	28178	954469	37855	106182	0	0	8209	725736	0	0
2024-04-24 16:11:32			0	34737	0	0	0	17059	15680	151247	28122	954503	37834	106183	0	0	8211	723827	0	0
2024-04-24 16:12:32			0	34734	0	0	0	17054	15680	151199	28270	954538	37835	106181	0	0	8211	723971	0	0
2024-04-24 16:13:32			0	34744	0	0	0	17064	15690	151215	28027	954581	37835	106185	0	0	8212	723453	0	0
2024-04-24 16:14:32			0	34741	0	0	0	17098	15680	151211	27906	954564	37857	106198	0	0	8211	723636	0	0
2024-04-24 16:15:32			0	34756	0	0	0	17080	15700	151111	28468	954649	37859	106191	0	0	8212	722840	0	0
2024-04-24 16:16:32			0	34734	0	0	0	17062	15700	151095	28069	954597	37848	106184	0	0	8211	723893	0	0
2024-04-24 16:17:32			0	34745	0	0	0	17064	15700	151263	27942	954544	37859	106185	0	0	8212	723366	0	0
2024-04-24 16:18:32			0	34733	0	0	0	17098	15700	151155	28034	954570	37848	106198	0	0	8211	723941	0	0
2024-04-24 16:19:32			0	34734	0	0	0	17077	15710	151159	27734	954613	37848	106190	0	0	8211	723854	0	0
2024-04-24 16:20:32			0	34758	0	0	0	17041	15710	151071	28053	954666	37848	106176	0	0	8213	722705	0	0
2024-04-24 16:21:32			0	34729	0	0	0	17028	15710	151183	27852	954639	37837	106171	0	0	8212	724093	0	0
2024-04-24 16:22:32			0	34712	0	0	0	17020	15700	151251	27763	954536	37847	106168	0	0	8211	724947	0	0
2024-04-24 16:23:32			0	34714	0	0	0	17044	15700	151251	27954	954544	37848	106177	0	0	8210	724851	0	0
2024-04-24 16:24:32			0	34689	0	0	0	17031	15700	151363	28152	954562	37836	106172	0	0	8209	726051	0	0
2024-04-24 16:25:32			0	34720	0	0	0	17018	15700	151287	27897	954536	37847	106167	0	0	8211	724564	0	0
2024-04-24 16:26:32			0	34686	0	0	0	17036	15690	151483	28041	954501	37857	106174	0	0	8209	726234	0	0
2024-04-24 16:27:32			0	34684	0	0	0	17028	15690	151367	27788	954554	37835	106171	0	0	8209	726330	0	0
2024-04-24 16:28:32			0	34688	0	0	0	17046	15690	151479	27925	954475	37857	106178	0	0	8209	726138	0	0
2024-04-24 16:29:32			0	34698	0	0	0	17064	15680	151407	27930	954512	37846	106185	0	0	8209	725697	0	0
2024-04-24 16:30:32			0	34702	0	0	0	17075	15690	151283	27895	954581	37857	106189	0	0	8209	725466	0	0
2024-04-24 16:31:32			0	34710	0	0	0	17041	15700	151263	27999	954570	37859	106176	0	0	8210	725043	0	0
2024-04-24 16:32:32			0	34683	0	0	0	17049	15700	151327	27784	954589	37847	106179	0	0	8209	726339	0	0
2024-04-24 16:33:32			0	34710	0	0	0	17064	15700	151231	27602	954589	37858	106185	0	0	8210	725043	0	0
2024-04-24 16:34:32			0	34716	0	0	0	17051	15700	151283	27894	954544	37848	106180	0	0	8210	724755	0	0
2024-04-24 16:35:32			0	34696	0	0	0	17051	15710	151379	27625	954605	37848	106180	0	0	8209	725675	0	0
2024-04-24 16:36:32			0	34710	0	0	0	17057	15700	151343	27861	954597	37848	106182	0	0	8210	725043	0	0
2024-04-24 16:37:32			0	34704	0	0	0	17041	15710	151355	27994	954605	37848	106176	0	0	8210	725292	0	0
2024-04-24 16:38:32			0	34699	0	0	0	17031	15700	151399	27959	954589	37858	106172	0	0	8210	725570	0	0
2024-04-24 16:39:32			0	34680	0	0	0	17049	15700	151399	27888	954491	37848	106179	0	0	8208	726483	0	0
2024-04-24 16:40:32			0	34693	0	0	0	17033	15700	151275	28102	954597	37837	106173	0	0	8209	725858	0	0
2024-04-24 16:41:32			0	34688	0	0	0	17025	15700	151415	27838	954562	37847	106170	0	0	8209	726098	0	0
2024-04-24 16:42:32			0	34681	0	0	0	17062	15700	151327	28133	954570	37848	106184	0	0	8208	726435	0	0
2024-04-24 16:43:32			0	34676	0	0	0	17062	15710	151455	27857	954658	37859	106184	0	0	8208	726636	0	0
2024-04-24 16:44:32			0	34678	0	0	0	17046	15700	151411	27471	954562	37847	106178	0	0	8208	726579	0	0
2024-04-24 16:45:32			0	34688	0	0	0	17041	15700	151375	27566	954623	37848	106176	0	0	8209	726098	0	0
2024-04-24 16:46:32			0	34690	0	0	0	17054	15710	151275	27653	954605	37848	106181	0	0	8209	725963	0	0
2024-04-24 16:47:32			0	34677	0	0	0	17033	15700	151279	27798	954570	37859	106173	0	0	8208	726627	0	0
2024-04-24 16:48:32			0	34689	0	0	0	17064	15700	151339	27798	954649	37848	106185	0	0	8209	726051	0	0
2024-04-24 16:49:32			0	34692	0	0	0	17036	15700	151339	27930	954589	37836	106174	0	0	8209	725906	0	0
2024-04-24 16:50:32			0	34688	0	0	0	17044	15700	151411	27796	954597	37826	106177	0	0	8209	726098	0	0
2024-04-24 16:51:32			0	34707	0	0	0	17033	15700	151287	27438	954589	37836	106173	0	0	8210	725187	0	0
2024-04-24 16:52:32			0	34671	0	0	0	17051	15700	151363	27104	954597	37837	106180	0	0	8208	726915	0	0
2024-04-24 16:53:32			0	34690	0	0	0	17033	15710	151347	27128	954579	37848	106173	0	0	8209	725963	0	0
2024-04-24 16:54:32			0	34679	0	0	0	17049	15690	151299	26982	954501	37846	106179	0	0	8208	726570	0	0
2024-04-24 16:55:32			0	34682	0	0	0	17057	15690	151251	27339	954520	37857	106182	0	0	8208	726426	0	0
2024-04-24 16:56:32			0	34688	0	0	0	17041	15680	151287	27268	954512	37835	106176	0	0	8209	726177	0	0
2024-04-24 16:57:32			0	34692	0	0	0	17031	15690	151331	27374	954501	37846	106172	0	0	8209	725946	0	0
2024-04-24 16:58:32			0	34684	0	0	0	17038	15680	151263	27246	954477	37845	106175	0	0	8209	726369	0	0
2024-04-24 16:59:32			0	34674	0	0	0	17010	15700	151367	27248	954562	37847	106164	0	0	8209	726771	0	0
2024-04-24 17:00:32			0	34670	0	0	0	17010	15690	151435	27199	954501	37846	106164	0	0	8208	727002	0	0
2024-04-24 17:01:32			0	34666	0	0	0	17023	15680	151343	27123	954459	37846	106169	0	0	8208	727233	0	0
2024-04-24 17:02:32			0	34668	0	0	0	17036	15670	151439	27376	954495	37833	106174	0	0	8208	727177	0	0
2024-04-24 17:03:32			0	34670	0	0	0	17028	15670	151387	27852	954469	37844	106171	0	0	8208	727081	0	0
2024-04-24 17:04:32			0	34670	0	0	0	17025	15670	151359	27175	954495	37844	106170	0	0	8208	727081	0	0
2024-04-24 17:05:32			0	34658	0	0	0	17031	15670	151435	27008	954495	37844	106172	0	0	8207	727657	0	0
2024-04-24 17:06:32			0	34665	0	0	0	17023	15690	151483	26911	954467	37835	106169	0	0	8208	727242	0	0
2024-04-24 17:07:32			0	34671	0	0	0	17018	15670	151459	27272	954469	37844	106167	0	0	8208	727032	0	0
2024-04-24 17:08:32			0	34650	0	0	0	17002	15670	151443	27296	954469	37833	106161	0	0	8207	728042	0	0
2024-04-24 17:09:32			0	34654	0	0	0	17005	15670	151479	27443	954435	37833	106162	0	0	8207	727850	0	0
2024-04-24 17:10:32			0	34656	0	0	0	16989	15660	151507	26885	954453	37855	106156	0	0	8208	727793	0	0
2024-04-24 17:11:32			0	34639	0	0	0	16984	15660	151603	27396	954366	37844	106154	0	0	8207	728610	0	0
2024-04-24 17:12:32			0	34624	0	0	0	16984	15660	151603	27083	954339	37844	106154	0	0	8206	729333	0	0
2024-04-24 17:13:32			0	34606	0	0	0	16968	15650	151719	26920	954331	37843	106148	0	0	8205	730240	0	0
2024-04-24 17:14:32			0	34574	0	0	0	16966	15650	151743	26979	954305	37843	106147	0	0	8204	731784	0	0
2024-04-24 17:15:32			0	34580	0	0	0	16986	15650	151839	27301	954297	37842	106155	0	0	8204	731494	0	0
2024-04-24 17:16:32			0	34587	0	0	0	16984	15640	151911	27429	954315	37842	106154	0	0	8204	731195	0	0
2024-04-24 17:17:32			0	34579	0	0	0	16981	15630	151895	27083	954325	37841	106153	0	0	8203	731621	0	0
2024-04-24 17:18:32			0	34592	0	0	0	16976	15630	151895	27168	954299	37841	106151	0	0	8204	730994	0	0
2024-04-24 17:19:32			0	34568	0	0	0	16979	15640	151903	27102	954201	37853	106152	0	0	8203	732113	0	0
2024-04-24 17:20:32			0	34568	0	0	0	16979	15640	151947	27454	954315	37832	106152	0	0	8203	732113	0	0
2024-04-24 17:21:32			0	34540	0	0	0	16979	15630	152023	27093	954272	37831	106152	0	0	8201	733506	0	0
2024-04-24 17:22:32			0	34562	0	0	0	16966	15640	152011	27358	954280	37842	106147	0	0	8203	732403	0	0
2024-04-24 17:23:32			0	34564	0	0	0	16958	15620	151971	27261	954256	37819	106144	0	0	8203	732385	0	0
2024-04-24 17:24:32			0	34552	0	0	0	16966	15620	151979	27352	954229	37840	106147	0	0	8202	732965	0	0
2024-04-24 17:25:32			0	34550	0	0	0	16966	15620	152067	27415	954300	37851	106147	0	0	8202	733062	0	0
2024-04-24 17:26:32			0	34533	0	0	0	16955	15620	152115	26882	954282	37851	106143	0	0	8201	733884	0	0
2024-04-24 17:27:32			0	34536	0	0	0	16953	15620	152119	27336	954203	37840	106142	0	0	8201	733739	0	0
2024-04-24 17:28:32			0	34530	0	0	0	16953	15610	152155	26944	954187	37839	106142	0	0	8201	734069	0	0
2024-04-24 17:29:32			0	34524	0	0	0	16942	15610	152131	26953	954240	37839	106138	0	0	8201	734360	0	0
2024-04-24 17:30:32			0	34506	0	0	0	16932	15610	152163	27185	954179	37828	106134	0	0	8200	735232	0	0
2024-04-24 17:31:32			0	34475	0	0	0	16929	15590	152235	27008	954128	37838	106133	0	0	8198	736815	0	0
2024-04-24 17:32:32			0	34485	0	0	0	16945	15600	152331	27102	954136	37828	106139	0	0	8199	736290	0	0
2024-04-24 17:33:32			0	34503	0	0	0	16948	15600	152371	26719	954136	37828	106140	0	0	8200	735417	0	0
2024-04-24 17:34:32			0	34487	0	0	0	16942	15590	152255	26942	954180	37838	106138	0	0	8199	736232	0	0
2024-04-24 17:35:32			0	34505	0	0	0	16948	15600	152283	27265	954136	37828	106140	0	0	8200	735320	0	0
2024-04-24 17:36:32			0	34492	0	0	0	16940	15590	152259	27235	954154	37838	106137	0	0	8199	735990	0	0
2024-04-24 17:37:32			0	34482	0	0	0	16942	15600	152335	27020	954162	37828	106138	0	0	8198	736435	0	0
2024-04-24 17:38:32			0	34478	0	0	0	16929	15600	152331	27242	954083	37828	106133	0	0	8198	736630	0	0
2024-04-24 17:39:32			0	34473	0	0	0	16929	15590	152355	27144	954128	37828	106133	0	0	8198	736912	0	0
2024-04-24 17:40:32			0	34458	0	0	0	16916	15590	152379	27421	954101	37828	106128	0	0	8197	737641	0	0
2024-04-24 17:41:32			0	34457	0	0	0	16919	15580	152471	27364	954085	37836	106129	0	0	8197	737729	0	0
2024-04-24 17:42:32			0	34438	0	0	0	16914	15580	152547	26909	954041	37827	106127	0	0	8196	738653	0	0
2024-04-24 17:43:32			0	34440	0	0	0	16932	15570	152539	27159	954043	37826	106134	0	0	8196	738595	0	0
2024-04-24 17:44:32			0	34435	0	0	0	16932	15590	152567	27296	954075	37838	106134	0	0	8196	738759	0	0
2024-04-24 17:45:32			0	34439	0	0	0	16929	15570	152631	27159	954122	37836	106133	0	0	8196	738644	0	0
2024-04-24 17:46:32			0	34444	0	0	0	16927	15560	152539	27308	954061	37835	106132	0	0	8196	738440	0	0
2024-04-24 17:47:32			0	34435	0	0	0	16937	15580	152407	27268	954085	37836	106136	0	0	8196	738799	0	0
2024-04-24 17:48:32			0	34451	0	0	0	16929	15570	152539	27301	954095	37847	106133	0	0	8197	738060	0	0
2024-04-24 17:49:32			0	34446	0	0	0	16924	15560	152583	27538	954034	37835	106131	0	0	8197	738343	0	0
2024-04-24 17:50:32			0	34458	0	0	0	16929	15570	152595	27336	954095	37826	106133	0	0	8197	737720	0	0
2024-04-24 17:51:32			0	34437	0	0	0	16927	15560	152611	27433	954061	37825	106132	0	0	8196	738781	0	0
2024-04-24 17:52:32			0	34438	0	0	0	16929	15560	152555	27441	954113	37825	106133	0	0	8196	738732	0	0
2024-04-24 17:53:32			0	34409	0	0	0	16911	15570	152551	27448	954043	37836	106126	0	0	8195	740104	0	0
2024-04-24 17:54:32			0	34438	0	0	0	16896	15560	152615	27448	954053	37834	106120	0	0	8197	738732	0	0
2024-04-24 17:55:32			0	34398	0	0	0	16890	15550	152763	27556	954010	37833	106118	0	0	8194	740720	0	0
2024-04-24 17:56:32			0	34388	0	0	0	16867	15550	152735	27715	953984	37833	106109	0	0	8194	741208	0	0
2024-04-24 17:57:32			0	34363	0	0	0	16901	15550	152843	27512	953957	37823	106122	0	0	8192	742428	0	0
2024-04-24 17:58:32			0	34374	0	0	0	16906	15560	152907	27303	954000	37824	106124	0	0	8193	741851	0	0
2024-04-24 17:59:32			0	34355	0	0	0	16901	15550	152891	27237	954036	37833	106122	0	0	8192	742819	0	0
2024-04-24 18:00:32			0	34366	0	0	0	16898	15550	152851	27416	953992	37834	106121	0	0	8192	742282	0	0
2024-04-24 18:01:32			0	34378	0	0	0	16916	15550	152823	27632	954018	37824	106128	0	0	8193	741696	0	0
2024-04-24 18:02:32			0	34382	0	0	0	16914	15540	152875	27157	953949	37833	106127	0	0	8193	741540	0	0
2024-04-24 18:03:32			0	34378	0	0	0	16903	15540	152835	27653	954028	37833	106123	0	0	8193	741736	0	0
2024-04-24 18:04:32			0	34347	0	0	0	16901	15550	152814	27192	953984	37823	106122	0	0	8191	743210	0	0
2024-04-24 18:05:32			0	34365	0	0	0	16896	15540	152899	27428	953976	37823	106120	0	0	8192	742370	0	0
2024-04-24 18:06:32			0	34358	0	0	0	16906	15550	153011	27329	953957	37823	106124	0	0	8192	742672	0	0
2024-04-24 18:07:32			0	34342	0	0	0	16901	15550	152978	27272	954018	37813	106122	0	0	8191	743454	0	0
2024-04-24 18:08:32			0	34360	0	0	0	16906	15540	152855	27597	954028	37823	106124	0	0	8192	742615	0	0
2024-04-24 18:09:32			0	34375	0	0	0	16901	15540	153035	27474	953941	37833	106122	0	0	8193	741882	0	0
2024-04-24 18:10:32			0	34355	0	0	0	16896	15540	153011	27130	953994	37833	106120	0	0	8192	742859	0	0
2024-04-24 18:11:32			0	34358	0	0	0	16896	15550	152899	27393	953957	37823	106120	0	0	8192	742672	0	0
2024-04-24 18:12:32			0	34362	0	0	0	16893	15540	152983	27391	953949	37833	106119	0	0	8192	742517	0	0
2024-04-24 18:13:32			0	34349	0	0	0	16885	15540	152979	27547	953994	37823	106116	0	0	8192	743152	0	0
2024-04-24 18:14:32			0	34344	0	0	0	16877	15550	153046	27161	954010	37833	106113	0	0	8191	743357	0	0
2024-04-24 18:15:32			0	34345	0	0	0	16888	15540	153058	27277	953941	37823	106117	0	0	8191	743348	0	0
2024-04-24 18:16:32			0	34325	0	0	0	16890	15540	153026	27419	953994	37823	106118	0	0	8190	744326	0	0
2024-04-24 18:17:32			0	34351	0	0	0	16906	15530	153059	27504	953925	37833	106124	0	0	8191	743094	0	0
2024-04-24 18:18:32			0	34358	0	0	0	16898	15530	152895	27590	953933	37833	106121	0	0	8192	742752	0	0
2024-04-24 18:19:32			0	34362	0	0	0	16901	15540	152843	27828	953967	37833	106122	0	0	8192	742517	0	0
2024-04-24 18:20:32			0	34362	0	0	0	16898	15540	152987	27720	954046	37823	106121	0	0	8192	742517	0	0
2024-04-24 18:21:32			0	34359	0	0	0	16914	15540	152855	27658	954020	37823	106127	0	0	8192	742663	0	0
2024-04-24 18:22:32			0	34370	0	0	0	16901	15530	152923	27410	954038	37833	106122	0	0	8192	742166	0	0
2024-04-24 18:23:32			0	34363	0	0	0	16903	15530	152903	27320	954038	37823	106123	0	0	8192	742508	0	0
2024-04-24 18:24:32			0	34379	0	0	0	16906	15540	152931	27300	954055	37845	106124	0	0	8193	741687	0	0
2024-04-24 18:25:32			0	34371	0	0	0	16903	15530	152919	27355	954030	37822	106123	0	0	8192	742118	0	0
2024-04-24 18:26:32			0	34390	0	0	0	16911	15540	152771	27284	953967	37844	106126	0	0	8193	741150	0	0
2024-04-24 18:27:32			0	34365	0	0	0	16909	15540	152839	27466	953994	37833	106125	0	0	8192	742370	0	0
2024-04-24 18:28:32			0	34371	0	0	0	16901	15540	152951	27386	953994	37833	106122	0	0	8193	742078	0	0
2024-04-24 18:29:32			0	34379	0	0	0	16909	15530	152915	27769	954012	37823	106125	0	0	8193	741727	0	0
2024-04-24 18:30:32			0	34385	0	0	0	16896	15540	152763	27421	954107	37833	106120	0	0	8193	741394	0	0
2024-04-24 18:31:32			0	34386	0	0	0	16898	15530	152931	27462	953986	37844	106121	0	0	8193	741385	0	0
2024-04-24 18:32:32			0	34377	0	0	0	16896	15530	153023	27604	953959	37833	106120	0	0	8193	741825	0	0
2024-04-24 18:33:32			0	34365	0	0	0	16901	15530	153031	27222	953959	37823	106122	0	0	8192	742410	0	0
2024-04-24 18:34:32			0	34352	0	0	0	16893	15540	152911	27649	953941	37833	106119	0	0	8192	743005	0	0
2024-04-24 18:35:32			0	34350	0	0	0	16901	15540	153003	27486	954028	37823	106122	0	0	8191	743103	0	0
2024-04-24 18:36:32			0	34356	0	0	0	16906	15540	152999	27528	954020	37833	106124	0	0	8192	742810	0	0
2024-04-24 18:37:32			0	34360	0	0	0	16909	15530	152883	27164	953986	37833	106125	0	0	8192	742655	0	0
2024-04-24 18:38:32			0	34374	0	0	0	16909	15530	152807	27639	954004	37822	106125	0	0	8192	741971	0	0
2024-04-24 18:39:32			0	34368	0	0	0	16911	15540	152903	27466	954002	37833	106126	0	0	8192	742224	0	0
2024-04-24 18:40:32			0	34372	0	0	0	16911	15540	152939	27457	954002	37823	106126	0	0	8192	742028	0	0
2024-04-24 18:41:32			0	34361	0	0	0	16903	15540	152931	27381	953994	37833	106123	0	0	8192	742566	0	0
2024-04-24 18:42:32			0	34361	0	0	0	16906	15530	152843	27814	954038	37833	106124	0	0	8192	742606	0	0
2024-04-24 18:43:32			0	34361	0	0	0	16906	15530	152899	27734	953959	37833	106124	0	0	8192	742606	0	0
2024-04-24 18:44:32			0	34370	0	0	0	16909	15530	152859	27416	953959	37823	106125	0	0	8192	742166	0	0
2024-04-24 18:45:32			0	34365	0	0	0	16909	15550	152931	27614	954036	37833	106125	0	0	8192	742330	0	0
2024-04-24 18:46:32			0	34369	0	0	0	16903	15540	152919	27528	954020	37844	106123	0	0	8192	742175	0	0
2024-04-24 18:47:32			0	34351	0	0	0	16906	15530	152958	27346	953986	37823	106124	0	0	8191	743094	0	0
2024-04-24 18:48:32			0	34374	0	0	0	16898	15540	152855	27336	953994	37833	106121	0	0	8193	741931	0	0
2024-04-24 18:49:32			0	34369	0	0	0	16909	15540	152891	27246	954020	37833	106125	0	0	8192	742175	0	0
2024-04-24 18:50:32			0	34367	0	0	0	16909	15550	152899	27372	954115	37823	106125	0	0	8192	742233	0	0
2024-04-24 18:51:32			0	34355	0	0	0	16914	15530	152855	27654	954012	37833	106127	0	0	8191	742899	0	0
2024-04-24 18:52:32			0	34374	0	0	0	16916	15540	152895	27348	954020	37844	106128	0	0	8192	741931	0	0
2024-04-24 18:53:32			0	34370	0	0	0	16914	15540	152851	27313	954028	37833	106127	0	0	8192	742126	0	0
2024-04-24 18:54:32			0	34383	0	0	0	16901	15530	152843	27237	953986	37844	106122	0	0	8193	741532	0	0
2024-04-24 18:55:32			0	34387	0	0	0	16898	15540	153031	27246	954046	37844	106121	0	0	8193	741297	0	0
2024-04-24 18:56:32			0	34370	0	0	0	16901	15540	152931	27286	954028	37845	106122	0	0	8192	742126	0	0
2024-04-24 18:57:32			0	34367	0	0	0	16906	15540	152855	27164	954028	37845	106124	0	0	8192	742273	0	0
2024-04-24 18:58:32			0	34384	0	0	0	16909	15540	152959	27466	953967	37833	106125	0	0	8193	741443	0	0
2024-04-24 18:59:32			0	34380	0	0	0	16906	15540	152951	27123	954055	37823	106124	0	0	8193	741638	0	0
2024-04-24 19:00:32			0	34386	0	0	0	16898	15530	152843	27409	954012	37823	106121	0	0	8193	741385	0	0
2024-04-24 19:01:32			0	34367	0	0	0	16903	15540	152895	27282	953994	37823	106123	0	0	8192	742273	0	0
2024-04-24 19:02:32			0	34387	0	0	0	16906	15550	152843	27523	953966	37845	106124	0	0	8193	741257	0	0
2024-04-24 19:03:32			0	34362	0	0	0	16898	15530	152951	27222	954038	37844	106121	0	0	8192	742557	0	0
2024-04-24 19:04:32			0	34365	0	0	0	16890	15540	152911	27329	954002	37833	106118	0	0	8192	742370	0	0
2024-04-24 19:05:32			0	34362	0	0	0	16896	15540	153027	26970	953941	37833	106120	0	0	8192	742517	0	0
2024-04-24 19:06:32			0	34361	0	0	0	16877	15530	152927	27248	953907	37833	106113	0	0	8192	742606	0	0
2024-04-24 19:07:32			0	34359	0	0	0	16890	15530	153007	27180	953925	37843	106118	0	0	8192	742703	0	0
2024-04-24 19:08:32			0	34361	0	0	0	16885	15530	153067	27286	953925	37843	106116	0	0	8192	742606	0	0
2024-04-24 19:09:32			0	34347	0	0	0	16885	15520	153011	27377	953917	37833	106116	0	0	8191	743330	0	0
2024-04-24 19:10:32			0	34338	0	0	0	16885	15520	153098	27121	953890	37833	106116	0	0	8191	743770	0	0
2024-04-24 19:11:32			0	34333	0	0	0	16877	15530	153010	27199	953933	37833	106113	0	0	8191	743975	0	0
2024-04-24 19:12:32			0	34329	0	0	0	16875	15540	153118	27057	953941	37844	106112	0	0	8191	744130	0	0
2024-04-24 19:13:32			0	34313	0	0	0	16867	15520	153050	27142	953909	37821	106109	0	0	8190	744994	0	0
2024-04-24 19:14:32			0	34321	0	0	0	16867	15520	153226	27433	953943	37843	106109	0	0	8190	744602	0	0
2024-04-24 19:15:32			0	34325	0	0	0	16877	15520	153170	27232	953882	37832	106113	0	0	8190	744406	0	0
2024-04-24 19:16:32			0	34333	0	0	0	16885	15510	153226	27279	953953	37842	106116	0	0	8190	744055	0	0
2024-04-24 19:17:32			0	34322	0	0	0	16885	15530	153106	27407	954004	37833	106116	0	0	8190	744513	0	0
2024-04-24 19:18:32			0	34320	0	0	0	16885	15520	153130	27235	953909	37832	106116	0	0	8190	744651	0	0
2024-04-24 19:19:32			0	34335	0	0	0	16870	15510	153026	27069	953953	37832	106110	0	0	8191	743957	0	0
2024-04-24 19:20:32			0	34322	0	0	0	16872	15510	153074	27478	953927	37821	106111	0	0	8190	744593	0	0
2024-04-24 19:21:32			0	34304	0	0	0	16880	15520	153018	27497	953909	37832	106114	0	0	8189	745434	0	0
2024-04-24 19:22:32			0	34299	0	0	0	16862	15510	153178	27286	953901	37832	106107	0	0	8189	745720	0	0
2024-04-24 19:23:32			0	34285	0	0	0	16836	15510	153210	27261	953822	37832	106097	0	0	8189	746406	0	0
2024-04-24 19:24:32			0	34281	0	0	0	16849	15510	153290	27258	953901	37842	106102	0	0	8188	746602	0	0
2024-04-24 19:25:32			0	34271	0	0	0	16851	15510	153354	27159	953901	37821	106103	0	0	8187	747093	0	0
2024-04-24 19:26:32			0	34261	0	0	0	16859	15510	153346	27275	953848	37842	106106	0	0	8187	747584	0	0
2024-04-24 19:27:32			0	34269	0	0	0	16851	15510	153442	27450	953848	37842	106103	0	0	8187	747191	0	0
2024-04-24 19:28:32			0	34257	0	0	0	16862	15510	153454	27268	953866	37831	106107	0	0	8186	747780	0	0
2024-04-24 19:29:32			0	34275	0	0	0	16872	15500	153526	27093	953884	37831	106111	0	0	8187	746937	0	0
2024-04-24 19:30:32			0	34263	0	0	0	16854	15510	153434	27376	953840	37831	106104	0	0	8187	747486	0	0
2024-04-24 19:31:32			0	34249	0	0	0	16854	15500	153538	27279	953753	37820	106104	0	0	8186	748214	0	0
2024-04-24 19:32:32			0	34245	0	0	0	16854	15500	153454	27261	953797	37819	106104	0	0	8186	748410	0	0
2024-04-24 19:33:32			0	34228	0	0	0	16859	15500	153482	27289	953797	37851	106106	0	0	8185	749246	0	0
2024-04-24 19:34:32			0	34251	0	0	0	16872	15510	153518	27190	953840	37831	106111	0	0	8186	748075	0	0
2024-04-24 19:35:32			0	34252	0	0	0	16857	15500	153406	27441	953850	37830	106105	0	0	8186	748066	0	0
2024-04-24 19:36:32			0	34248	0	0	0	16851	15500	153442	27486	953823	37819	106103	0	0	8186	748263	0	0
2024-04-24 19:37:32			0	34233	0	0	0	16867	15500	153466	27267	953797	37830	106109	0	0	8185	749000	0	0
2024-04-24 19:38:32			0	34229	0	0	0	16851	15500	153550	27346	953771	37830	106103	0	0	8185	749197	0	0
2024-04-24 19:39:32			0	34214	0	0	0	16859	15500	153558	27339	953823	37840	106106	0	0	8184	749935	0	0
2024-04-24 19:40:32			0	34216	0	0	0	16857	15500	153546	27241	953823	37830	106105	0	0	8184	749837	0	0
2024-04-24 19:41:32			0	34198	0	0	0	16849	15500	153682	27140	953771	37840	106102	0	0	8183	750723	0	0
2024-04-24 19:42:32			0	34204	0	0	0	16857	15500	153638	27369	953797	37830	106105	0	0	8183	750428	0	0
2024-04-24 19:43:32			0	34207	0	0	0	16859	15490	153718	27493	953789	37830	106106	0	0	8184	750320	0	0
2024-04-24 19:44:32			0	34205	0	0	0	16859	15480	153738	27530	953799	37817	106106	0	0	8183	750459	0	0
2024-04-24 19:45:32			0	34214	0	0	0	16844	15500	153718	27135	953823	37830	106100	0	0	8184	749935	0	0
2024-04-24 19:46:32			0	34195	0	0	0	16846	15500	153826	27260	953850	37830	106101	0	0	8183	750871	0	0
2024-04-24 19:47:32			0	34193	0	0	0	16844	15500	153778	27208	953823	37840	106100	0	0	8183	750969	0	0
2024-04-24 19:48:32			0	34195	0	0	0	16844	15490	153822	27402	953762	37830	106100	0	0	8183	750911	0	0
2024-04-24 19:49:32			0	34169	0	0	0	16841	15480	153802	26975	953773	37829	106099	0	0	8182	752234	0	0
2024-04-24 19:50:32			0	34166	0	0	0	16841	15480	153750	26991	953791	37817	106099	0	0	8181	752382	0	0
2024-04-24 19:51:32			0	34189	0	0	0	16846	15480	153802	27029	953799	37829	106101	0	0	8183	751247	0	0
2024-04-24 19:52:32			0	34184	0	0	0	16851	15490	153766	27407	953728	37829	106103	0	0	8182	751454	0	0
2024-04-24 19:53:32			0	34179	0	0	0	16831	15490	153746	27098	953781	37839	106095	0	0	8182	751700	0	0
2024-04-24 19:54:32			0	34162	0	0	0	16841	15490	153734	27272	953807	37839	106099	0	0	8181	752539	0	0
2024-04-24 19:55:32			0	34174	0	0	0	16841	15470	153874	27265	953783	37817	106099	0	0	8182	752028	0	0
2024-04-24 19:56:32			0	34161	0	0	0	16836	15490	153814	27095	953781	37829	106097	0	0	8181	752588	0	0
2024-04-24 19:57:32			0	34164	0	0	0	16828	15480	153886	26961	953773	37817	106094	0	0	8182	752481	0	0
2024-04-24 19:58:32			0	34165	0	0	0	16838	15480	153918	27267	953764	37839	106098	0	0	8181	752431	0	0
2024-04-24 19:59:32			0	34153	0	0	0	16820	15480	153846	27156	953817	37817	106091	0	0	8181	753024	0	0
2024-04-24 20:00:32			0	34150	0	0	0	16823	15480	153930	27154	953746	37829	106092	0	0	8181	753172	0	0
2024-04-24 20:01:32			0	34141	0	0	0	16820	15480	153882	27239	953791	37829	106091	0	0	8180	753617	0	0
2024-04-24 20:02:32			0	34163	0	0	0	16815	15470	153946	26946	953783	37806	106089	0	0	8182	752571	0	0
2024-04-24 20:03:32			0	34143	0	0	0	16815	15470	153910	27123	953730	37817	106089	0	0	8181	753558	0	0
2024-04-24 20:04:32			0	34145	0	0	0	16810	15470	153926	27261	953730	37838	106087	0	0	8181	753459	0	0
2024-04-24 20:05:32			0	34144	0	0	0	16815	15460	153998	27509	953661	37816	106089	0	0	8181	753549	0	0
2024-04-24 20:06:32			0	34134	0	0	0	16818	15480	154002	26960	953685	37829	106090	0	0	8180	753963	0	0
2024-04-24 20:07:32			0	34145	0	0	0	16820	15470	154126	27469	953677	37828	106091	0	0	8181	753459	0	0
2024-04-24 20:08:32			0	34123	0	0	0	16812	15460	154002	27235	953635	37827	106088	0	0	8179	754588	0	0
2024-04-24 20:09:32			0	34130	0	0	0	16807	15450	154050	26819	953697	37826	106086	0	0	8180	754282	0	0
2024-04-24 20:10:32			0	34137	0	0	0	16810	15460	154042	27277	953635	37827	106087	0	0	8180	753895	0	0
2024-04-24 20:11:32			0	34128	0	0	0	16810	15460	154106	26977	953706	37827	106087	0	0	8180	754341	0	0
2024-04-24 20:12:32			0	34133	0	0	0	16799	15460	154062	26909	953653	37827	106083	0	0	8180	754093	0	0
2024-04-24 20:13:32			0	34136	0	0	0	16807	15450	154026	27020	953645	37826	106086	0	0	8180	753985	0	0
2024-04-24 20:14:32			0	34116	0	0	0	16789	15450	154054	27348	953618	37826	106079	0	0	8179	754975	0	0
2024-04-24 20:15:32			0	34122	0	0	0	16802	15460	154058	27128	953600	37816	106084	0	0	8179	754637	0	0
2024-04-24 20:16:32			0	34127	0	0	0	16794	15450	154010	27147	953671	37815	106081	0	0	8180	754430	0	0
2024-04-24 20:17:32			0	34130	0	0	0	16789	15450	154182	27372	953592	37826	106079	0	0	8180	754282	0	0
2024-04-24 20:18:32			0	34142	0	0	0	16784	15450	154094	27199	953584	37815	106077	0	0	8181	753689	0	0
2024-04-24 20:19:32			0	34113	0	0	0	16768	15440	154198	27149	953594	37814	106071	0	0	8179	755164	0	0
2024-04-24 20:20:32			0	34119	0	0	0	16766	15440	154142	27192	953541	37814	106070	0	0	8180	754867	0	0
2024-04-24 20:21:32			0	34103	0	0	0	16763	15430	154250	26928	953533	37824	106069	0	0	8179	755699	0	0
2024-04-24 20:22:32			0	34107	0	0	0	16779	15430	154306	27189	953586	37813	106075	0	0	8179	755502	0	0
2024-04-24 20:23:32			0	34106	0	0	0	16792	15440	154230	27031	953523	37814	106080	0	0	8179	755510	0	0
2024-04-24 20:24:32			0	34101	0	0	0	16776	15430	154250	27305	953525	37813	106074	0	0	8179	755798	0	0
2024-04-24 20:25:32			0	34089	0	0	0	16789	15430	154350	26939	953586	37813	106079	0	0	8178	756393	0	0
2024-04-24 20:26:32			0	34103	0	0	0	16779	15420	154302	27263	953517	37824	106075	0	0	8179	755740	0	0
2024-04-24 20:27:32			0	34090	0	0	0	16781	15430	154342	27170	953560	37824	106076	0	0	8178	756344	0	0
2024-04-24 20:28:32			0	34094	0	0	0	16779	15430	154190	26942	953533	37813	106075	0	0	8178	756145	0	0
2024-04-24 20:29:32			0	34103	0	0	0	16781	15420	154234	26944	953596	37824	106076	0	0	8179	755740	0	0
2024-04-24 20:30:32			0	34077	0	0	0	16771	15430	154122	27400	953604	37813	106072	0	0	8177	756988	0	0
2024-04-24 20:31:32			0	34085	0	0	0	16758	15420	154322	27272	953517	37824	106067	0	0	8178	756632	0	0
2024-04-24 20:32:32			0	34073	0	0	0	16763	15430	154286	26979	953507	37813	106069	0	0	8177	757187	0	0
2024-04-24 20:33:32			0	34067	0	0	0	16761	15430	154334	27246	953525	37813	106068	0	0	8177	757484	0	0
2024-04-24 20:34:32			0	34070	0	0	0	16763	15430	154414	27166	953525	37824	106069	0	0	8177	757335	0	0
2024-04-24 20:35:32			0	34043	0	0	0	16758	15420	154466	27039	953491	37812	106067	0	0	8175	758717	0	0
2024-04-24 20:36:32			0	34056	0	0	0	16784	15420	154390	27282	953483	37823	106077	0	0	8176	758071	0	0
2024-04-24 20:37:32			0	34057	0	0	0	16774	15420	154342	27052	953509	37823	106073	0	0	8176	758021	0	0
2024-04-24 20:38:32			0	34062	0	0	0	16787	15420	154354	27137	953483	37812	106078	0	0	8176	757773	0	0
2024-04-24 20:39:32			0	34076	0	0	0	16771	15420	154322	27312	953509	37812	106072	0	0	8177	757078	0	0
2024-04-24 20:40:32			0	34079	0	0	0	16779	15420	154254	27220	953517	37824	106075	0	0	8177	756930	0	0
2024-04-24 20:41:32			0	34092	0	0	0	16787	15420	154198	27357	953562	37812	106078	0	0	8178	756285	0	0
2024-04-24 20:42:32			0	34096	0	0	0	16784	15420	154226	27445	953543	37824	106077	0	0	8178	756087	0	0
2024-04-24 20:43:32			0	34104	0	0	0	16779	15420	154190	27175	953588	37812	106075	0	0	8179	755691	0	0
2024-04-24 20:44:32			0	34127	0	0	0	16792	15420	154130	27223	953570	37824	106080	0	0	8180	754552	0	0
2024-04-24 20:45:32			0	34096	0	0	0	16784	15420	154074	27275	953570	37824	106077	0	0	8178	756087	0	0
2024-04-24 20:46:32			0	34127	0	0	0	16787	15420	154198	27492	953509	37800	106078	0	0	8180	754552	0	0
2024-04-24 20:47:32			0	34126	0	0	0	16792	15410	154238	27033	953475	37823	106080	0	0	8180	754642	0	0
2024-04-24 20:48:32			0	34116	0	0	0	16776	15410	154210	27118	953606	37823	106074	0	0	8179	755137	0	0
2024-04-24 20:49:32			0	34108	0	0	0	16776	15430	154254	27379	953552	37824	106074	0	0	8179	755452	0	0
2024-04-24 20:50:32			0	34116	0	0	0	16774	15420	154262	27412	953535	37812	106073	0	0	8179	755096	0	0
2024-04-24 20:51:32			0	34094	0	0	0	16776	15430	154186	27005	953578	37824	106074	0	0	8178	756145	0	0
2024-04-24 20:52:32			0	34102	0	0	0	16771	15410	154218	27270	953527	37823	106072	0	0	8179	755830	0	0
2024-04-24 20:53:32			0	34094	0	0	0	16779	15420	154298	27180	953456	37823	106075	0	0	8178	756186	0	0
2024-04-24 20:54:32			0	34094	0	0	0	16771	15420	154318	27235	953570	37834	106072	0	0	8178	756186	0	0
2024-04-24 20:55:32			0	34102	0	0	0	16781	15420	154282	27606	953543	37812	106076	0	0	8178	755790	0	0
2024-04-24 20:56:32			0	34095	0	0	0	16774	15420	154294	27424	953570	37824	106073	0	0	8178	756136	0	0
2024-04-24 20:57:32			0	34102	0	0	0	16771	15420	154242	27225	953517	37824	106072	0	0	8179	755790	0	0
2024-04-24 20:58:32			0	34078	0	0	0	16771	15420	154334	27123	953562	37823	106072	0	0	8177	756979	0	0
2024-04-24 20:59:32			0	34086	0	0	0	16761	15410	154266	27422	953475	37823	106068	0	0	8178	756623	0	0
2024-04-24 21:00:32			0	34070	0	0	0	16763	15420	154358	27367	953509	37823	106069	0	0	8177	757376	0	0
2024-04-24 21:01:32			0	34042	0	0	0	16748	15410	154334	27306	953553	37812	106063	0	0	8176	758807	0	0
2024-04-24 21:02:32			0	34023	0	0	0	16748	15410	154622	27263	953475	37823	106063	0	0	8174	759752	0	0
2024-04-24 21:03:32			0	34013	0	0	0	16776	15410	154662	26925	953493	37812	106074	0	0	8173	760249	0	0
2024-04-24 21:04:32			0	34046	0	0	0	16779	15410	154514	27095	953493	37823	106075	0	0	8175	758608	0	0
2024-04-24 21:05:32			0	34058	0	0	0	16787	15410	154430	27189	953527	37823	106078	0	0	8176	758013	0	0
2024-04-24 21:06:32			0	34054	0	0	0	16789	15410	154362	27320	953545	37833	106079	0	0	8176	758211	0	0
2024-04-24 21:07:32			0	34067	0	0	0	16781	15420	154362	27154	953509	37823	106076	0	0	8176	757525	0	0
2024-04-24 21:08:32			0	34075	0	0	0	16789	15420	154378	27145	953535	37812	106079	0	0	8177	757128	0	0
2024-04-24 21:09:32			0	34074	0	0	0	16789	15410	154374	27201	953572	37833	106079	0	0	8177	757218	0	0
2024-04-24 21:10:32			0	34047	0	0	0	16784	15420	154374	26953	953588	37833	106077	0	0	8175	758518	0	0
2024-04-24 21:11:32			0	34068	0	0	0	16787	15420	154390	26981	953570	37824	106078	0	0	8176	757475	0	0
2024-04-24 21:12:32			0	34059	0	0	0	16771	15410	154342	27293	953475	37833	106072	0	0	8176	757963	0	0
2024-04-24 21:13:32			0	34067	0	0	0	16750	15420	154386	27505	953543	37812	106064	0	0	8177	757525	0	0
2024-04-24 21:14:32			0	34049	0	0	0	16761	15410	154470	27230	953466	37812	106068	0	0	8176	758459	0	0
2024-04-24 21:15:32			0	34041	0	0	0	16771	15400	154526	27398	953537	37822	106072	0	0	8175	758898	0	0
2024-04-24 21:16:32			0	34021	0	0	0	16750	15410	154498	27036	953466	37812	106064	0	0	8174	759851	0	0
2024-04-24 21:17:32			0	34014	0	0	0	16755	15410	154594	27130	953440	37800	106066	0	0	8174	760200	0	0
2024-04-24 21:18:32			0	34027	0	0	0	16758	15400	154574	27036	953476	37821	106067	0	0	8174	759594	0	0
2024-04-24 21:19:32			0	34018	0	0	0	16753	15400	154550	27241	953485	37811	106065	0	0	8174	760041	0	0
2024-04-24 21:20:32			0	34014	0	0	0	16766	15400	154662	27246	953511	37811	106070	0	0	8174	760240	0	0
2024-04-24 21:21:32			0	34021	0	0	0	16761	15400	154606	27204	953458	37833	106068	0	0	8174	759892	0	0
2024-04-24 21:22:32			0	34008	0	0	0	16771	15400	154606	27338	953458	37822	106072	0	0	8173	760539	0	0
2024-04-24 21:23:32			0	34029	0	0	0	16774	15410	154522	27083	953519	37812	106073	0	0	8174	759453	0	0
2024-04-24 21:24:32			0	34021	0	0	0	16768	15400	154606	27124	953485	37822	106071	0	0	8174	759892	0	0
2024-04-24 21:25:32			0	34032	0	0	0	16766	15400	154638	27428	953511	37811	106070	0	0	8175	759345	0	0
2024-04-24 21:26:32			0	34018	0	0	0	16714	15400	154614	27412	953511	37822	106050	0	0	8175	760041	0	0
2024-04-24 21:27:32			0	34012	0	0	0	16711	15400	154674	27287	953371	37832	106049	0	0	8174	760340	0	0
2024-04-24 21:28:32			0	33981	0	0	0	16709	15380	154762	27286	953294	37809	106048	0	0	8172	761966	0	0
2024-04-24 21:29:32			0	33968	0	0	0	16724	15380	154778	27218	953268	37820	106054	0	0	8171	762614	0	0
2024-04-24 21:30:32			0	33962	0	0	0	16748	15380	154786	27379	953312	37808	106063	0	0	8171	762914	0	0
2024-04-24 21:31:32			0	33969	0	0	0	16750	15370	154798	27329	953409	37808	106064	0	0	8171	762605	0	0
2024-04-24 21:32:32			0	33968	0	0	0	16768	15380	154862	27235	953400	37820	106071	0	0	8171	762614	0	0
2024-04-24 21:33:32			0	33978	0	0	0	16755	15370	154746	26911	953383	37808	106066	0	0	8171	762157	0	0
2024-04-24 21:34:32			0	33992	0	0	0	16742	15380	154778	26866	953426	37820	106061	0	0	8173	761418	0	0
2024-04-24 21:35:32			0	33991	0	0	0	16763	15390	154714	27286	953408	37821	106069	0	0	8172	761427	0	0
2024-04-24 21:36:32			0	34007	0	0	0	16766	15380	154642	27289	953417	37797	106070	0	0	8173	760671	0	0
2024-04-24 21:37:32			0	34031	0	0	0	16768	15380	154614	27424	953452	37820	106071	0	0	8174	759477	0	0
2024-04-24 21:38:32			0	34001	0	0	0	16774	15390	154598	27588	953513	37832	106073	0	0	8173	760929	0	0
2024-04-24 21:39:32			0	34033	0	0	0	16766	15390	154638	27405	953460	37810	106070	0	0	8175	759336	0	0
2024-04-24 21:40:32			0	34024	0	0	0	16776	15400	154570	27237	953511	37833	106074	0	0	8174	759743	0	0
2024-04-24 21:41:32			0	34025	0	0	0	16781	15390	154478	27447	953468	37821	106076	0	0	8174	759734	0	0
2024-04-24 21:42:32			0	34005	0	0	0	16771	15390	154542	27407	953495	37832	106072	0	0	8173	760729	0	0
2024-04-24 21:43:32			0	34016	0	0	0	16779	15400	154538	27554	953503	37810	106075	0	0	8173	760141	0	0
2024-04-24 21:44:32			0	34027	0	0	0	16771	15400	154638	27576	953476	37821	106072	0	0	8174	759594	0	0
2024-04-24 21:45:32			0	34020	0	0	0	16779	15390	154590	27353	953495	37821	106075	0	0	8174	759983	0	0
2024-04-24 21:46:32			0	34027	0	0	0	16781	15400	154534	27453	953503	37832	106076	0	0	8174	759594	0	0
2024-04-24 21:47:32			0	34040	0	0	0	16779	15390	154598	27391	953495	37832	106075	0	0	8175	758988	0	0
2024-04-24 21:48:32			0	34024	0	0	0	16774	15410	154526	27138	953553	37812	106073	0	0	8174	759702	0	0
2024-04-24 21:49:32			0	34055	0	0	0	16774	15410	154558	27176	953519	37812	106073	0	0	8176	758161	0	0
2024-04-24 21:50:32			0	34055	0	0	0	16766	15400	154570	27308	953511	37833	106070	0	0	8176	758202	0	0
2024-04-24 21:51:32			0	34036	0	0	0	16776	15400	154474	27350	953511	37811	106074	0	0	8175	759146	0	0
2024-04-24 21:52:32			0	34036	0	0	0	16781	15400	154514	27057	953503	37821	106076	0	0	8175	759146	0	0
2024-04-24 21:53:32			0	34055	0	0	0	16776	15400	154550	26856	953476	37832	106074	0	0	8176	758202	0	0
2024-04-24 21:54:32			0	34042	0	0	0	16776	15400	154502	26987	953476	37821	106074	0	0	8175	758848	0	0
2024-04-24 21:55:32			0	34058	0	0	0	16779	15400	154410	27350	953485	37822	106075	0	0	8176	758053	0	0
2024-04-24 21:56:32			0	34060	0	0	0	16776	15400	154486	27234	953564	37822	106074	0	0	8176	757954	0	0
2024-04-24 21:57:32			0	34064	0	0	0	16774	15410	154406	27211	953527	37833	106073	0	0	8176	757715	0	0
2024-04-24 21:58:32			0	34065	0	0	0	16787	15400	154458	27095	953503	37832	106078	0	0	8176	757706	0	0
2024-04-24 21:59:32			0	34063	0	0	0	16779	15410	154474	27346	953501	37823	106075	0	0	8176	757764	0	0
2024-04-24 22:00:32			0	34070	0	0	0	16784	15420	154342	27180	953535	37833	106077	0	0	8177	757376	0	0
2024-04-24 22:01:32			0	34064	0	0	0	16787	15410	154410	27438	953501	37823	106078	0	0	8176	757715	0	0
2024-04-24 22:02:32			0	34070	0	0	0	16787	15410	154446	27500	953475	37823	106078	0	0	8176	757417	0	0
2024-04-24 22:03:32			0	34059	0	0	0	16784	15410	154430	27353	953545	37823	106077	0	0	8176	757963	0	0
2024-04-24 22:04:32			0	34055	0	0	0	16779	15410	154534	27341	953545	37823	106075	0	0	8176	758161	0	0
2024-04-24 22:05:32			0	34064	0	0	0	16784	15410	154514	27133	953553	37833	106077	0	0	8176	757715	0	0
2024-04-24 22:06:32			0	34036	0	0	0	16792	15420	154638	27454	953535	37823	106080	0	0	8174	759065	0	0
2024-04-24 22:07:32			0	34049	0	0	0	16797	15410	154574	27355	953553	37823	106082	0	0	8175	758459	0	0
2024-04-24 22:08:32			0	34044	0	0	0	16789	15410	154442	27308	953527	37812	106079	0	0	8175	758708	0	0
2024-04-24 22:09:32			0	34058	0	0	0	16789	15410	154546	27326	953545	37823	106079	0	0	8176	758013	0	0
2024-04-24 22:10:32			0	34053	0	0	0	16776	15420	154474	27305	953535	37833	106074	0	0	8176	758220	0	0
2024-04-24 22:11:32			0	34067	0	0	0	16787	15410	154406	27450	953553	37823	106078	0	0	8176	757566	0	0
2024-04-24 22:12:32			0	34048	0	0	0	16787	15410	154498	26968	953545	37844	106078	0	0	8175	758509	0	0
2024-04-24 22:13:32			0	34073	0	0	0	16781	15420	154430	27445	953588	37823	106076	0	0	8177	757227	0	0
2024-04-24 22:14:32			0	34066	0	0	0	16781	15420	154402	27171	953596	37834	106076	0	0	8176	757574	0	0
2024-04-24 22:15:32			0	34078	0	0	0	16792	15420	154498	27168	953562	37833	106080	0	0	8177	756979	0	0
2024-04-24 22:16:32			0	34073	0	0	0	16792	15410	154358	27163	953527	37823	106080	0	0	8177	757268	0	0
2024-04-24 22:17:32			0	34072	0	0	0	16787	15420	154314	26989	953562	37823	106078	0	0	8177	757277	0	0
2024-04-24 22:18:32			0	34055	0	0	0	16779	15420	154402	27379	953588	37833	106075	0	0	8176	758121	0	0
2024-04-24 22:19:32			0	34067	0	0	0	16787	15420	154326	27140	953570	37812	106078	0	0	8176	757525	0	0
2024-04-24 22:20:32			0	34054	0	0	0	16781	15420	154338	27046	953509	37833	106076	0	0	8176	758170	0	0
2024-04-24 22:21:32			0	34075	0	0	0	16787	15420	154370	27100	953562	37833	106078	0	0	8177	757128	0	0
2024-04-24 22:22:32			0	34078	0	0	0	16787	15420	154370	27313	953509	37833	106078	0	0	8177	756979	0	0
2024-04-24 22:23:32			0	34075	0	0	0	16784	15410	154434	27102	953553	37812	106077	0	0	8177	757169	0	0
2024-04-24 22:24:32			0	34090	0	0	0	16794	15410	154330	27229	953545	37823	106081	0	0	8178	756425	0	0
2024-04-24 22:25:32			0	34076	0	0	0	16789	15410	154314	27229	953553	37823	106079	0	0	8177	757119	0	0
2024-04-24 22:26:32			0	34090	0	0	0	16792	15410	154330	27471	953527	37823	106080	0	0	8178	756425	0	0
2024-04-24 22:27:32			0	34081	0	0	0	16802	15420	154254	27334	953588	37823	106084	0	0	8177	756830	0	0
2024-04-24 22:28:32			0	34056	0	0	0	16787	15420	154314	27324	953535	37823	106078	0	0	8176	758071	0	0
2024-04-24 22:29:32			0	34065	0	0	0	16774	15420	154342	27379	953535	37812	106073	0	0	8176	757624	0	0
2024-04-24 22:30:32			0	34058	0	0	0	16774	15420	154430	27343	953543	37824	106073	0	0	8176	757972	0	0
2024-04-24 22:31:32			0	34067	0	0	0	16781	15420	154414	27005	953517	37834	106076	0	0	8176	757525	0	0
2024-04-24 22:32:32			0	34055	0	0	0	16787	15410	154450	27229	953519	37833	106078	0	0	8176	758161	0	0
2024-04-24 22:33:32			0	34041	0	0	0	16771	15420	154354	27265	953535	37823	106072	0	0	8175	758816	0	0
2024-04-24 22:34:32			0	34050	0	0	0	16789	15410	154450	27280	953553	37800	106079	0	0	8175	758410	0	0
2024-04-24 22:35:32			0	34041	0	0	0	16784	15420	154442	27130	953614	37823	106077	0	0	8175	758816	0	0
2024-04-24 22:36:32			0	34047	0	0	0	16789	15410	154446	27367	953598	37812	106079	0	0	8175	758559	0	0
2024-04-24 22:37:32			0	34029	0	0	0	16792	15410	154550	27526	953580	37833	106080	0	0	8174	759453	0	0
2024-04-24 22:38:32			0	34011	0	0	0	16787	15410	154558	27303	953545	37833	106078	0	0	8173	760349	0	0
2024-04-24 22:39:32			0	34008	0	0	0	16787	15420	154614	27216	953588	37812	106078	0	0	8173	760457	0	0
2024-04-24 22:40:32			0	33994	0	0	0	16787	15420	154682	27095	953562	37823	106078	0	0	8172	761154	0	0
2024-04-24 22:41:32			0	33989	0	0	0	16766	15420	154710	27078	953535	37833	106070	0	0	8172	761403	0	0
2024-04-24 22:42:32			0	33972	0	0	0	16774	15420	154662	27485	953562	37800	106073	0	0	8171	762251	0	0
2024-04-24 22:43:32			0	33982	0	0	0	16781	15410	154750	27255	953606	37823	106076	0	0	8171	761793	0	0
2024-04-24 22:44:32			0	33958	0	0	0	16787	15410	154850	27346	953580	37833	106078	0	0	8170	762990	0	0
2024-04-24 22:45:32			0	33937	0	0	0	16771	15410	154974	27201	953572	37823	106072	0	0	8169	764039	0	0
2024-04-24 22:46:32			0	33935	0	0	0	16787	15410	154990	27371	953527	37833	106078	0	0	8169	764139	0	0
2024-04-24 22:47:32			0	33933	0	0	0	16792	15410	154910	27239	953527	37823	106080	0	0	8168	764239	0	0
2024-04-24 22:48:32			0	33950	0	0	0	16771	15410	154874	27121	953553	37823	106072	0	0	8170	763390	0	0
2024-04-24 22:49:32			0	33941	0	0	0	16753	15410	154938	27114	953501	37812	106065	0	0	8170	763839	0	0
2024-04-24 22:50:32			0	33925	0	0	0	16766	15400	154970	27374	953424	37821	106070	0	0	8168	764680	0	0
2024-04-24 22:51:32			0	33911	0	0	0	16771	15400	155058	27227	953529	37810	106072	0	0	8167	765380	0	0
2024-04-24 22:52:32			0	33911	0	0	0	16781	15390	155034	27227	953468	37821	106076	0	0	8167	765421	0	0
2024-04-24 22:53:32			0	33929	0	0	0	16774	15410	155046	27119	953493	37823	106073	0	0	8168	764439	0	0
2024-04-24 22:54:32			0	33933	0	0	0	16766	15400	154986	27213	953511	37833	106070	0	0	8169	764280	0	0
2024-04-24 22:55:32			0	33931	0	0	0	16766	15390	155038	27208	953468	37810	106070	0	0	8169	764421	0	0
2024-04-24 22:56:32			0	33919	0	0	0	16761	15410	155026	27338	953493	37823	106068	0	0	8168	764939	0	0
2024-04-24 22:57:32			0	33925	0	0	0	16763	15400	155114	27431	953450	37821	106069	0	0	8168	764680	0	0
2024-04-24 22:58:32			0	33911	0	0	0	16774	15390	155138	27481	953468	37821	106073	0	0	8167	765421	0	0
2024-04-24 22:59:32			0	33902	0	0	0	16768	15390	155102	27398	953495	37799	106071	0	0	8167	765872	0	0
2024-04-24 23:00:32			0	33894	0	0	0	16774	15400	155222	27384	953450	37821	106073	0	0	8166	766231	0	0
2024-04-24 23:01:32			0	33929	0	0	0	16771	15390	155090	27462	953521	37821	106072	0	0	8168	764521	0	0
2024-04-24 23:02:32			0	33908	0	0	0	16763	15400	155178	27291	953529	37832	106069	0	0	8167	765530	0	0
2024-04-24 23:03:32			0	33910	0	0	0	16750	15400	155218	27358	953503	37821	106064	0	0	8168	765430	0	0
2024-04-24 23:04:32			0	33918	0	0	0	16753	15390	155266	27459	953468	37821	106065	0	0	8168	765071	0	0
2024-04-24 23:05:32			0	33904	0	0	0	16748	15390	155242	27445	953434	37821	106063	0	0	8167	765771	0	0
2024-04-24 23:06:32			0	33891	0	0	0	16722	15400	155182	27521	953476	37810	106053	0	0	8167	766381	0	0
2024-04-24 23:07:32			0	33882	0	0	0	16729	15380	155394	27222	953373	37831	106056	0	0	8166	766914	0	0
2024-04-24 23:08:32			0	33819	0	0	0	16703	15380	155438	27192	953347	37820	106046	0	0	8163	770077	0	0
2024-04-24 23:09:32			0	33819	0	0	0	16706	15370	155630	27507	953330	37819	106047	0	0	8163	770118	0	0
2024-04-24 23:10:32			0	33812	0	0	0	16729	15360	155706	27248	953367	37819	106056	0	0	8162	770512	0	0
2024-04-24 23:11:32			0	33811	0	0	0	16758	15370	155722	27571	953375	37807	106067	0	0	8162	770520	0	0
2024-04-24 23:12:32			0	33811	0	0	0	16732	15370	155630	27351	953401	37819	106057	0	0	8162	770520	0	0
2024-04-24 23:13:32			0	33775	0	0	0	16685	15370	155786	27279	953357	37831	106039	0	0	8161	772333	0	0
2024-04-24 23:14:32			0	33748	0	0	0	16685	15370	156062	27267	953296	37830	106039	0	0	8159	773695	0	0
2024-04-24 23:15:32			0	33724	0	0	0	16711	15370	156066	27156	953304	37808	106049	0	0	8157	774907	0	0
2024-04-24 23:16:32			0	33716	0	0	0	16706	15350	156018	27493	953245	37806	106047	0	0	8157	775394	0	0
2024-04-24 23:17:32			0	33721	0	0	0	16711	15360	156054	27452	953280	37818	106049	0	0	8157	775100	0	0
2024-04-24 23:18:32			0	33717	0	0	0	16685	15350	156098	27338	953298	37817	106039	0	0	8157	775344	0	0
2024-04-24 23:19:32			0	33707	0	0	0	16698	15350	156082	27083	953245	37817	106044	0	0	8156	775849	0	0
2024-04-24 23:20:32			0	33696	0	0	0	16688	15350	156174	27307	953298	37817	106040	0	0	8156	776406	0	0
2024-04-24 23:21:32			0	33680	0	0	0	16693	15350	156238	27327	953263	37806	106042	0	0	8155	777216	0	0
2024-04-24 23:22:32			0	33688	0	0	0	16714	15340	156182	27192	953308	37817	106050	0	0	8155	776853	0	0
2024-04-24 23:23:32			0	33680	0	0	0	16680	15340	156158	27225	953273	37816	106037	0	0	8155	777258	0	0
2024-04-24 23:24:32			0	33658	0	0	0	16672	15340	156394	27180	953247	37816	106034	0	0	8154	778373	0	0
2024-04-24 23:25:32			0	33626	0	0	0	16662	15340	156534	27140	953229	37817	106030	0	0	8152	779997	0	0
2024-04-24 23:26:32			0	33626	0	0	0	16670	15340	156518	27352	953229	37806	106033	0	0	8152	779997	0	0
2024-04-24 23:27:32			0	33603	0	0	0	16677	15330	156634	27589	953186	37826	106036	0	0	8151	781208	0	0
2024-04-24 23:28:32			0	33584	0	0	0	16680	15330	156630	27640	953152	37815	106037	0	0	8149	782175	0	0
2024-04-24 23:29:32			0	33591	0	0	0	16662	15320	156566	27265	953170	37804	106030	0	0	8150	781861	0	0
2024-04-24 23:30:32			0	33564	0	0	0	16657	15330	156765	27324	953239	37804	106028	0	0	8149	783194	0	0
2024-04-24 23:31:32			0	33545	0	0	0	16649	15320	156929	27126	953065	37815	106025	0	0	8148	784205	0	0
2024-04-24 23:32:32			0	33521	0	0	0	16654	15320	157061	27298	953170	37815	106027	0	0	8146	785430	0	0
2024-04-24 23:33:32			0	33516	0	0	0	16690	15310	157109	27118	953146	37814	106041	0	0	8145	785728	0	0
2024-04-24 23:34:32			0	33534	0	0	0	16701	15310	157085	26916	953146	37825	106045	0	0	8146	784808	0	0
2024-04-24 23:35:32			0	33536	0	0	0	16698	15320	156969	27336	953196	37826	106044	0	0	8146	784664	0	0
2024-04-24 23:36:32			0	33525	0	0	0	16677	15330	157037	27152	953205	37826	106036	0	0	8146	785183	0	0
2024-04-24 23:37:32			0	33529	0	0	0	16651	15310	157113	27301	953154	37814	106026	0	0	8147	785064	0	0
2024-04-24 23:38:32			0	33484	0	0	0	16654	15310	157205	27457	953154	37802	106027	0	0	8144	787364	0	0
2024-04-24 23:39:32			0	33464	0	0	0	16646	15300	157341	27604	953085	37802	106024	0	0	8143	788431	0	0
2024-04-24 23:40:32			0	33450	0	0	0	16662	15310	157389	27390	953119	37802	106030	0	0	8142	789106	0	0
2024-04-24 23:41:32			0	33468	0	0	0	16664	15310	157393	27469	953146	37814	106031	0	0	8143	788184	0	0
2024-04-24 23:42:32			0	33499	0	0	0	16672	15320	157233	27150	953215	37814	106034	0	0	8144	786554	0	0
2024-04-24 23:43:32			0	33485	0	0	0	16664	15300	157245	27280	953164	37814	106031	0	0	8144	787355	0	0
2024-04-24 23:44:32			0	33496	0	0	0	16680	15310	157193	27237	953146	37814	106037	0	0	8144	786750	0	0
2024-04-24 23:45:32			0	33471	0	0	0	16651	15310	157321	27675	953154	37814	106026	0	0	8143	788030	0	0
2024-04-24 23:46:32			0	33444	0	0	0	16649	15300	157417	27208	953024	37813	106025	0	0	8141	789456	0	0
2024-04-24 23:47:32			0	33427	0	0	0	16636	15300	157481	27334	953085	37814	106020	0	0	8141	790329	0	0
2024-04-24 23:48:32			0	33422	0	0	0	16662	15290	157521	27284	953121	37801	106030	0	0	8140	790628	0	0
2024-04-24 23:49:32			0	33444	0	0	0	16667	15300	157437	26975	953190	37814	106032	0	0	8141	789456	0	0
2024-04-24 23:50:32			0	33458	0	0	0	16688	15300	157401	27241	953138	37814	106040	0	0	8142	788738	0	0
2024-04-24 23:51:32			0	33471	0	0	0	16672	15310	157257	27272	953119	37802	106034	0	0	8143	788030	0	0
2024-04-24 23:52:32			0	33475	0	0	0	16670	15310	157313	27346	953119	37814	106033	0	0	8143	787825	0	0
2024-04-24 23:53:32			0	33462	0	0	0	16677	15300	157313	27163	953182	37802	106036	0	0	8142	788533	0	0
2024-04-24 23:54:32			0	33459	0	0	0	16657	15300	157269	27150	953111	37814	106028	0	0	8142	788687	0	0
2024-04-24 23:55:32			0	33446	0	0	0	16664	15300	157517	27388	953111	37802	106031	0	0	8141	789354	0	0
2024-04-24 23:56:32			0	33416	0	0	0	16638	15310	157433	27479	953101	37814	106021	0	0	8140	790851	0	0
2024-04-24 23:57:32			0	33404	0	0	0	16638	15300	157517	27293	953077	37802	106021	0	0	8139	791510	0	0
2024-04-24 23:58:32			0	33392	0	0	0	16636	15300	157617	27339	953032	37802	106020	0	0	8139	792128	0	0
2024-04-24 23:59:32			0	33364	0	0	0	16631	15300	157885	27296	952972	37802	106018	0	0	8137	793569	0	0
2024-04-25 00:00:32			0	33350	0	0	0	16628	15280	157905	27339	953000	37811	106017	0	0	8136	794376	0	0
2024-04-25 00:01:32			0	33328	0	0	0	16628	15290	157925	27339	952964	37801	106017	0	0	8135	795468	0	0
2024-04-25 00:02:32			0	33345	0	0	0	16646	15280	158017	27092	953034	37800	106024	0	0	8135	794634	0	0
2024-04-25 00:03:32			0	33359	0	0	0	16662	15280	158073	27357	953113	37811	106030	0	0	8136	793912	0	0
2024-04-25 00:04:32			0	33351	0	0	0	16664	15280	157945	27538	953166	37811	106031	0	0	8136	794324	0	0
2024-04-25 00:05:32			0	33350	0	0	0	16685	15290	157885	27225	953121	37812	106039	0	0	8135	794333	0	0
2024-04-25 00:06:32			0	33364	0	0	0	16672	15290	157889	26922	953148	37801	106034	0	0	8136	793612	0	0
2024-04-25 00:07:32			0	33372	0	0	0	16654	15300	157753	27336	953130	37813	106027	0	0	8137	793157	0	0
2024-04-25 00:08:32			0	33377	0	0	0	16667	15280	157745	27493	953113	37800	106032	0	0	8137	792985	0	0
2024-04-25 00:09:32			0	33366	0	0	0	16662	15290	157693	27350	953095	37812	106030	0	0	8137	793509	0	0
2024-04-25 00:10:32			0	33342	0	0	0	16657	15280	157821	27000	953053	37811	106028	0	0	8135	794789	0	0
2024-04-25 00:11:32			0	33333	0	0	0	16659	15280	157905	27135	953113	37811	106029	0	0	8135	795253	0	0
2024-04-25 00:12:32			0	33357	0	0	0	16662	15300	158033	27161	953103	37802	106030	0	0	8136	793930	0	0
2024-04-25 00:13:32			0	33324	0	0	0	16664	15290	157917	27260	953095	37812	106031	0	0	8134	795675	0	0
2024-04-25 00:14:32			0	33346	0	0	0	16651	15300	157961	27388	953130	37824	106026	0	0	8136	794497	0	0
2024-04-25 00:15:32			0	33335	0	0	0	16659	15290	157929	27062	953016	37812	106029	0	0	8135	795107	0	0
2024-04-25 00:16:32			0	33329	0	0	0	16636	15290	157985	27175	953095	37791	106020	0	0	8135	795417	0	0
2024-04-25 00:17:32			0	33303	0	0	0	16636	15280	157961	27421	953053	37811	106020	0	0	8133	796802	0	0
2024-04-25 00:18:32			0	33310	0	0	0	16641	15280	158033	27161	953087	37800	106022	0	0	8133	796440	0	0
2024-04-25 00:19:32			0	33295	0	0	0	16625	15290	158101	27312	953069	37812	106016	0	0	8133	797173	0	0
2024-04-25 00:20:32			0	33295	0	0	0	16625	15280	158109	27308	953053	37822	106016	0	0	8133	797216	0	0
2024-04-25 00:21:32			0	33279	0	0	0	16628	15280	158101	27225	953061	37800	106017	0	0	8132	798043	0	0
2024-04-25 00:22:32			0	33297	0	0	0	16620	15280	158117	27419	952974	37800	106014	0	0	8133	797112	0	0
2024-04-25 00:23:32			0	33302	0	0	0	16620	15280	158229	27421	953026	37800	106014	0	0	8133	796854	0	0
2024-04-25 00:24:32			0	33284	0	0	0	16623	15270	158033	27090	952939	37800	106015	0	0	8132	797828	0	0
2024-04-25 00:25:32			0	33316	0	0	0	16618	15280	158097	27369	953053	37800	106013	0	0	8134	796130	0	0
2024-04-25 00:26:32			0	33295	0	0	0	16628	15280	158217	26951	953026	37800	106017	0	0	8133	797216	0	0
2024-04-25 00:27:32			0	33304	0	0	0	16618	15270	158113	27421	953044	37811	106013	0	0	8133	796793	0	0
2024-04-25 00:28:32			0	33286	0	0	0	16623	15260	158125	27138	953028	37809	106015	0	0	8132	797767	0	0
2024-04-25 00:29:32			0	33284	0	0	0	16631	15270	158157	27041	952905	37799	106018	0	0	8132	797828	0	0
2024-04-25 00:30:32			0	33283	0	0	0	16631	15270	158157	27126	953063	37799	106018	0	0	8132	797879	0	0
2024-04-25 00:31:32			0	33293	0	0	0	16633	15270	158049	27312	952913	37800	106019	0	0	8133	797362	0	0
2024-04-25 00:32:32			0	33287	0	0	0	16633	15280	158137	27157	952921	37800	106019	0	0	8132	797630	0	0
2024-04-25 00:33:32			0	33310	0	0	0	16633	15270	158081	27062	953018	37800	106019	0	0	8134	796483	0	0
2024-04-25 00:34:32			0	33317	0	0	0	16633	15260	157981	27435	953020	37809	106019	0	0	8134	796164	0	0
2024-04-25 00:35:32			0	33329	0	0	0	16633	15260	158069	27085	953073	37798	106019	0	0	8135	795545	0	0
2024-04-25 00:36:32			0	33320	0	0	0	16633	15270	157945	27258	953010	37799	106019	0	0	8134	795967	0	0
2024-04-25 00:37:32			0	33319	0	0	0	16636	15260	157977	27367	953055	37809	106020	0	0	8134	796061	0	0
2024-04-25 00:38:32			0	33315	0	0	0	16641	15270	157969	27222	953018	37811	106022	0	0	8134	796225	0	0
2024-04-25 00:39:32			0	33333	0	0	0	16646	15280	157909	27170	953026	37811	106024	0	0	8135	795253	0	0
2024-04-25 00:40:32			0	33359	0	0	0	16638	15280	157893	27230	953105	37822	106021	0	0	8136	793912	0	0
2024-04-25 00:41:32			0	33371	0	0	0	16636	15280	157893	27379	953026	37811	106020	0	0	8137	793294	0	0
2024-04-25 00:42:32			0	33337	0	0	0	16633	15270	157877	27315	953044	37800	106019	0	0	8135	795089	0	0
2024-04-25 00:43:32			0	33373	0	0	0	16646	15260	157953	27261	953046	37809	106024	0	0	8137	793276	0	0
2024-04-25 00:44:32			0	33380	0	0	0	16662	15260	157733	27239	953028	37809	106030	0	0	8137	792915	0	0
2024-04-25 00:45:32			0	33394	0	0	0	16657	15290	157725	27098	953121	37812	106028	0	0	8138	792067	0	0
2024-04-25 00:46:32			0	33408	0	0	0	16654	15260	157681	27142	953046	37798	106027	0	0	8139	791475	0	0
2024-04-25 00:47:32			0	33408	0	0	0	16641	15280	157553	27419	953140	37800	106022	0	0	8139	791390	0	0
2024-04-25 00:48:32			0	33408	0	0	0	16638	15280	157645	27192	953079	37811	106021	0	0	8139	791390	0	0
2024-04-25 00:49:32			0	33391	0	0	0	16641	15280	157653	27150	953087	37811	106022	0	0	8138	792264	0	0
2024-04-25 00:50:32			0	33385	0	0	0	16646	15270	157625	27705	953123	37779	106024	0	0	8138	792616	0	0
2024-04-25 00:51:32			0	33420	0	0	0	16659	15280	157565	27372	953079	37811	106029	0	0	8140	790773	0	0
2024-04-25 00:52:32			0	33426	0	0	0	16680	15270	157513	27386	953044	37822	106037	0	0	8140	790508	0	0
2024-04-25 00:53:32			0	33456	0	0	0	16651	15280	157337	27072	953105	37800	106026	0	0	8142	788926	0	0
2024-04-25 00:54:32			0	33456	0	0	0	16664	15280	157353	27215	953113	37811	106031	0	0	8142	788926	0	0
2024-04-25 00:55:32			0	33440	0	0	0	16657	15300	157405	27500	953138	37802	106028	0	0	8141	789662	0	0
2024-04-25 00:56:32			0	33441	0	0	0	16654	15280	157397	27175	953113	37833	106027	0	0	8141	789695	0	0
2024-04-25 00:57:32			0	33449	0	0	0	16670	15290	157433	27251	953121	37823	106033	0	0	8141	789242	0	0
2024-04-25 00:58:32			0	33428	0	0	0	16672	15290	157301	27119	953121	37812	106034	0	0	8140	790320	0	0
2024-04-25 00:59:32			0	33450	0	0	0	16662	15290	157389	27152	953148	37812	106030	0	0	8142	789191	0	0
2024-04-25 01:00:32			0	33440	0	0	0	16675	15290	157269	27533	953174	37801	106035	0	0	8141	789704	0	0
2024-04-25 01:01:32			0	33475	0	0	0	16685	15300	157145	27237	953156	37824	106039	0	0	8143	787868	0	0
2024-04-25 01:02:32			0	33475	0	0	0	16677	15300	157265	27457	953190	37814	106036	0	0	8143	787868	0	0
2024-04-25 01:03:32			0	33507	0	0	0	16688	15300	157221	27618	953156	37813	106040	0	0	8145	786230	0	0
2024-04-25 01:04:32			0	33532	0	0	0	16680	15310	156969	27511	953154	37835	106037	0	0	8146	784910	0	0
2024-04-25 01:05:32			0	33533	0	0	0	16677	15310	157129	27152	953172	37825	106036	0	0	8146	784859	0	0
2024-04-25 01:06:32			0	33517	0	0	0	16667	15310	157121	27312	953172	37814	106032	0	0	8146	785677	0	0
2024-04-25 01:07:32			0	33494	0	0	0	16667	15300	157173	27381	953182	37824	106032	0	0	8144	786895	0	0
2024-04-25 01:08:32			0	33477	0	0	0	16654	15310	157217	27504	953146	37814	106027	0	0	8143	787723	0	0
2024-04-25 01:09:32			0	33461	0	0	0	16670	15310	157309	27206	953172	37825	106033	0	0	8142	788542	0	0
2024-04-25 01:10:32			0	33440	0	0	0	16662	15300	157417	27462	953077	37824	106030	0	0	8141	789662	0	0
2024-04-25 01:11:32			0	33446	0	0	0	16667	15310	157401	27267	953172	37802	106032	0	0	8141	789311	0	0
2024-04-25 01:12:32			0	33425	0	0	0	16667	15300	157433	27246	953138	37802	106032	0	0	8140	790432	0	0
2024-04-25 01:13:32			0	33429	0	0	0	16662	15300	157473	27369	953111	37814	106030	0	0	8140	790226	0	0
2024-04-25 01:14:32			0	33436	0	0	0	16667	15300	157481	27100	953103	37813	106032	0	0	8141	789867	0	0
2024-04-25 01:15:32			0	33432	0	0	0	16667	15300	157469	27171	953103	37802	106032	0	0	8140	790072	0	0
2024-04-25 01:16:32			0	33427	0	0	0	16670	15310	157517	27324	953172	37825	106033	0	0	8140	790286	0	0
2024-04-25 01:17:32			0	33422	0	0	0	16672	15290	157569	27124	953095	37812	106034	0	0	8140	790628	0	0
2024-04-25 01:18:32			0	33412	0	0	0	16664	15310	157617	27369	953146	37825	106031	0	0	8139	791057	0	0
2024-04-25 01:19:32			0	33397	0	0	0	16675	15300	157533	27395	953190	37814	106035	0	0	8138	791870	0	0
2024-04-25 01:20:32			0	33425	0	0	0	16675	15300	157585	27039	953164	37814	106035	0	0	8140	790432	0	0
2024-04-25 01:21:32			0	33412	0	0	0	16672	15300	157621	27402	953138	37802	106034	0	0	8139	791099	0	0
2024-04-25 01:22:32			0	33423	0	0	0	16670	15310	157513	27119	953180	37802	106033	0	0	8140	790492	0	0
2024-04-25 01:23:32			0	33435	0	0	0	16675	15310	157409	27507	953207	37802	106035	0	0	8141	789876	0	0
2024-04-25 01:24:32			0	33438	0	0	0	16675	15300	157465	27566	953217	37814	106035	0	0	8141	789764	0	0
2024-04-25 01:25:32			0	33441	0	0	0	16670	15310	157437	27353	953198	37825	106033	0	0	8141	789568	0	0
2024-04-25 01:26:32			0	33440	0	0	0	16675	15300	157417	27137	953077	37824	106035	0	0	8141	789662	0	0
2024-04-25 01:27:32			0	33432	0	0	0	16659	15300	157413	27329	953111	37825	106029	0	0	8141	790072	0	0
2024-04-25 01:28:32			0	33448	0	0	0	16664	15300	157445	27351	953190	37825	106031	0	0	8141	789251	0	0
2024-04-25 01:29:32			0	33443	0	0	0	16672	15310	157341	27232	953154	37825	106034	0	0	8141	789465	0	0
2024-04-25 01:30:32			0	33426	0	0	0	16675	15300	157349	27175	953130	37802	106035	0	0	8140	790380	0	0
2024-04-25 01:31:32			0	33451	0	0	0	16664	15310	157297	27675	953172	37835	106031	0	0	8142	789055	0	0
2024-04-25 01:32:32			0	33451	0	0	0	16672	15310	157313	27173	953119	37835	106034	0	0	8142	789055	0	0
2024-04-25 01:33:32			0	33468	0	0	0	16654	15300	157385	27348	953164	37814	106027	0	0	8143	788226	0	0
2024-04-25 01:34:32			0	33457	0	0	0	16670	15300	157421	27128	953130	37813	106033	0	0	8142	788790	0	0
2024-04-25 01:35:32			0	33427	0	0	0	16670	15310	157377	27334	953146	37825	106033	0	0	8140	790286	0	0
2024-04-25 01:36:32			0	33417	0	0	0	16649	15300	157453	27239	953077	37813	106025	0	0	8140	790842	0	0
2024-04-25 01:37:32			0	33410	0	0	0	16657	15300	157525	27263	953156	37824	106028	0	0	8139	791202	0	0
2024-04-25 01:38:32			0	33399	0	0	0	16657	15300	157581	27535	953130	37813	106028	0	0	8139	791768	0	0
2024-04-25 01:39:32			0	33401	0	0	0	16675	15300	157541	27474	953138	37825	106035	0	0	8138	791665	0	0
2024-04-25 01:40:32			0	33394	0	0	0	16662	15300	157441	27228	953156	37813	106030	0	0	8138	792025	0	0
2024-04-25 01:41:32			0	33394	0	0	0	16662	15290	157525	27208	953121	37812	106030	0	0	8138	792067	0	0
2024-04-25 01:42:32			0	33411	0	0	0	16675	15290	157569	27144	953148	37823	106035	0	0	8139	791193	0	0
2024-04-25 01:43:32			0	33415	0	0	0	16677	15300	157605	27367	953156	37824	106036	0	0	8139	790945	0	0
2024-04-25 01:44:32			0	33416	0	0	0	16662	15300	157517	27317	953156	37813	106030	0	0	8140	790894	0	0
2024-04-25 01:45:32			0	33406	0	0	0	16654	15300	157553	26994	953156	37824	106027	0	0	8139	791408	0	0
2024-04-25 01:46:32			0	33398	0	0	0	16672	15300	157677	27251	953156	37802	106034	0	0	8138	791819	0	0
2024-04-25 01:47:32			0	33399	0	0	0	16670	15310	157601	27173	953119	37814	106033	0	0	8138	791725	0	0
2024-04-25 01:48:32			0	33415	0	0	0	16685	15300	157597	27398	953156	37824	106039	0	0	8139	790945	0	0
2024-04-25 01:49:32			0	33429	0	0	0	16696	15300	157585	27355	953190	37835	106043	0	0	8140	790226	0	0
2024-04-25 01:50:32			0	33423	0	0	0	16672	15300	157533	27403	953156	37824	106034	0	0	8140	790534	0	0
2024-04-25 01:51:32			0	33439	0	0	0	16662	15290	157493	27154	953174	37812	106030	0	0	8141	789755	0	0
2024-04-25 01:52:32			0	33421	0	0	0	16651	15290	157541	27659	953121	37823	106026	0	0	8140	790679	0	0
2024-04-25 01:53:32			0	33398	0	0	0	16664	15290	157593	27422	953148	37812	106031	0	0	8138	791862	0	0
2024-04-25 01:54:32			0	33417	0	0	0	16667	15300	157617	27076	953130	37824	106032	0	0	8140	790842	0	0
2024-04-25 01:55:32			0	33426	0	0	0	16667	15300	157561	27180	953103	37824	106032	0	0	8140	790380	0	0
2024-04-25 01:56:32			0	33412	0	0	0	16664	15310	157629	27126	953146	37825	106031	0	0	8139	791057	0	0
2024-04-25 01:57:32			0	33405	0	0	0	16654	15300	157717	27388	953164	37814	106027	0	0	8139	791459	0	0
2024-04-25 01:58:32			0	33378	0	0	0	16649	15300	157761	27395	953130	37813	106025	0	0	8138	792848	0	0
2024-04-25 01:59:32			0	33386	0	0	0	16662	15300	157741	27731	953130	37813	106030	0	0	8138	792436	0	0
2024-04-25 02:00:32			0	33392	0	0	0	16677	15270	157769	27377	953097	37822	106036	0	0	8138	792255	0	0
2024-04-25 02:01:32			0	33406	0	0	0	16680	15290	157621	27402	953148	37812	106037	0	0	8139	791450	0	0
2024-04-25 02:02:32			0	33400	0	0	0	16667	15300	157649	27417	953182	37824	106032	0	0	8139	791716	0	0
2024-04-25 02:03:32			0	33399	0	0	0	16675	15300	157625	27100	953156	37824	106035	0	0	8138	791768	0	0
2024-04-25 02:04:32			0	33394	0	0	0	16667	15300	157533	27331	953269	37825	106032	0	0	8138	792025	0	0
2024-04-25 02:05:32			0	33417	0	0	0	16670	15290	157461	27145	953174	37812	106033	0	0	8139	790885	0	0
2024-04-25 02:06:32			0	33453	0	0	0	16667	15300	157349	27194	953208	37813	106032	0	0	8142	788995	0	0
2024-04-25 02:07:32			0	33439	0	0	0	16675	15300	157353	27145	953138	37814	106035	0	0	8141	789713	0	0
2024-04-25 02:08:32			0	33426	0	0	0	16680	15300	157469	27033	953164	37814	106037	0	0	8140	790380	0	0
2024-04-25 02:09:32			0	33443	0	0	0	16672	15300	157429	27213	953217	37825	106034	0	0	8141	789508	0	0
2024-04-25 02:10:32			0	33474	0	0	0	16662	15300	157349	27213	953190	37825	106030	0	0	8143	787919	0	0
2024-04-25 02:11:32			0	33447	0	0	0	16654	15300	157265	27286	953156	37802	106027	0	0	8142	789303	0	0
2024-04-25 02:12:32			0	33456	0	0	0	16651	15290	157333	27339	953121	37823	106026	0	0	8142	788883	0	0
2024-04-25 02:13:32			0	33461	0	0	0	16651	15300	157369	27246	953138	37814	106026	0	0	8142	788585	0	0
2024-04-25 02:14:32			0	33436	0	0	0	16654	15280	157337	27140	953131	37811	106027	0	0	8141	789952	0	0
2024-04-25 02:15:32			0	33477	0	0	0	16646	15300	157301	27512	953111	37814	106024	0	0	8143	787765	0	0
2024-04-25 02:16:32			0	33493	0	0	0	16641	15280	157233	27090	953061	37822	106022	0	0	8144	787031	0	0
2024-04-25 02:17:32			0	33489	0	0	0	16649	15300	157189	27317	953051	37813	106025	0	0	8144	787151	0	0
2024-04-25 02:18:32			0	33508	0	0	0	16638	15280	157085	27248	953079	37800	106021	0	0	8145	786263	0	0
2024-04-25 02:19:32			0	33515	0	0	0	16641	15280	157173	27027	953061	37822	106022	0	0	8146	785905	0	0
2024-04-25 02:20:32			0	33500	0	0	0	16641	15280	157153	27268	953087	37822	106022	0	0	8145	786673	0	0
2024-04-25 02:21:32			0	33509	0	0	0	16644	15280	157045	27206	953053	37811	106023	0	0	8145	786212	0	0
2024-04-25 02:22:32			0	33521	0	0	0	16649	15270	157005	27138	953123	37800	106025	0	0	8146	785641	0	0
2024-04-25 02:23:32			0	33531	0	0	0	16633	15280	156949	27093	953053	37811	106019	0	0	8147	785088	0	0
2024-04-25 02:24:32			0	33512	0	0	0	16631	15270	157017	27190	953097	37811	106018	0	0	8146	786101	0	0
2024-04-25 02:25:32			0	33517	0	0	0	16641	15280	157093	27396	953079	37800	106022	0	0	8146	785803	0	0
2024-04-25 02:26:32			0	33512	0	0	0	16638	15260	157069	27435	953046	37798	106021	0	0	8145	786143	0	0
2024-04-25 02:27:32			0	33510	0	0	0	16641	15270	157185	27289	953097	37811	106022	0	0	8145	786203	0	0
2024-04-25 02:28:32			0	33506	0	0	0	16646	15270	157169	27100	953097	37822	106024	0	0	8145	786408	0	0
2024-04-25 02:29:32			0	33505	0	0	0	16628	15260	157077	27197	953020	37798	106017	0	0	8145	786501	0	0
2024-04-25 02:30:32			0	33500	0	0	0	16644	15280	157157	27022	953008	37822	106023	0	0	8145	786673	0	0
2024-04-25 02:31:32			0	33487	0	0	0	16631	15270	157253	27294	952984	37810	106018	0	0	8144	787380	0	0
2024-04-25 02:32:32			0	33491	0	0	0	16628	15270	157301	27235	953089	37799	106017	0	0	8144	787175	0	0
2024-04-25 02:33:32			0	33476	0	0	0	16623	15270	157253	27128	953097	37811	106015	0	0	8144	787943	0	0
2024-04-25 02:34:32			0	33462	0	0	0	16618	15260	157401	26982	953020	37798	106013	0	0	8143	788703	0	0
2024-04-25 02:35:32			0	33451	0	0	0	16623	15270	157317	27351	952965	37800	106015	0	0	8142	789225	0	0
2024-04-25 02:36:32			0	33461	0	0	0	16636	15260	157333	27374	952994	37820	106020	0	0	8142	788754	0	0
2024-04-25 02:37:32			0	33476	0	0	0	16620	15250	157237	27199	952986	37820	106014	0	0	8144	788028	0	0
2024-04-25 02:38:32			0	33469	0	0	0	16618	15250	157249	27502	952959	37820	106013	0	0	8143	788387	0	0
2024-04-25 02:39:32			0	33460	0	0	0	16610	15250	157361	27206	953012	37809	106010	0	0	8143	788848	0	0
2024-04-25 02:40:32			0	33452	0	0	0	16594	15250	157445	27095	952977	37808	106004	0	0	8143	789258	0	0
2024-04-25 02:41:32			0	33438	0	0	0	16589	15240	157517	27441	952864	37808	106002	0	0	8142	790019	0	0
2024-04-25 02:42:32			0	33408	0	0	0	16607	15240	157537	27559	952856	37819	106009	0	0	8140	791560	0	0
2024-04-25 02:43:32			0	33413	0	0	0	16586	15240	157577	27124	952882	37808	106001	0	0	8140	791303	0	0
2024-04-25 02:44:32			0	33386	0	0	0	16599	15230	157737	27502	952953	37819	106006	0	0	8138	792734	0	0
2024-04-25 02:45:32			0	33380	0	0	0	16602	15230	157713	27585	952866	37818	106007	0	0	8138	793043	0	0
2024-04-25 02:46:32			0	33379	0	0	0	16602	15240	157741	27521	952864	37797	106007	0	0	8138	793052	0	0
2024-04-25 02:47:32			0	33382	0	0	0	16586	15230	157837	27209	952874	37808	106001	0	0	8138	792940	0	0
2024-04-25 02:48:32			0	33356	0	0	0	16581	15220	157865	27331	952797	37827	105999	0	0	8137	794323	0	0
2024-04-25 02:49:32			0	33338	0	0	0	16555	15210	157857	27114	952789	37805	105989	0	0	8136	795294	0	0
2024-04-25 02:50:32			0	33317	0	0	0	16574	15210	158069	27315	952754	37827	105996	0	0	8135	796378	0	0
2024-04-25 02:51:32			0	33332	0	0	0	16581	15210	158005	27135	952736	37805	105999	0	0	8135	795604	0	0
2024-04-25 02:52:32			0	33333	0	0	0	16602	15210	157981	27298	952841	37805	106007	0	0	8135	795552	0	0
2024-04-25 02:53:32			0	33308	0	0	0	16594	15220	158045	27284	952805	37795	106004	0	0	8134	796801	0	0
2024-04-25 02:54:32			0	33305	0	0	0	16589	15200	158061	27197	952825	37804	106002	0	0	8134	797041	0	0
2024-04-25 02:55:32			0	33312	0	0	0	16576	15210	158105	27263	952789	37805	105997	0	0	8134	796637	0	0
2024-04-25 02:56:32			0	33307	0	0	0	16566	15210	158153	27248	952789	37805	105993	0	0	8134	796895	0	0
2024-04-25 02:57:32			0	33298	0	0	0	16594	15210	158197	27310	952754	37816	106004	0	0	8133	797360	0	0
2024-04-25 02:58:32			0	33322	0	0	0	16607	15210	158033	27204	952815	37805	106009	0	0	8134	796120	0	0
2024-04-25 02:59:32			0	33327	0	0	0	16581	15220	158121	27239	952823	37816	105999	0	0	8135	795819	0	0
2024-04-25 03:00:32			0	33322	0	0	0	16574	15210	158077	27083	952815	37816	105996	0	0	8135	796120	0	0
2024-04-25 03:01:32			0	33290	0	0	0	16561	15210	158289	27345	952815	37805	105991	0	0	8133	797774	0	0
2024-04-25 03:02:32			0	33254	0	0	0	16545	15220	158233	27300	952823	37794	105985	0	0	8131	799596	0	0
2024-04-25 03:03:32			0	33240	0	0	0	16545	15210	158441	27343	952754	37816	105985	0	0	8131	800365	0	0
2024-04-25 03:04:32			0	33191	0	0	0	16524	15200	158569	27462	952746	37804	105977	0	0	8128	802953	0	0
2024-04-25 03:05:32			0	33158	0	0	0	16545	15200	158813	27524	952712	37803	105985	0	0	8126	804672	0	0
2024-04-25 03:06:32			0	33146	0	0	0	16571	15200	158845	27131	952720	37804	105995	0	0	8124	805297	0	0
2024-04-25 03:07:32			0	33162	0	0	0	16581	15190	158873	27490	952722	37792	105999	0	0	8125	804507	0	0
2024-04-25 03:08:32			0	33176	0	0	0	16581	15190	158697	27203	952756	37803	105999	0	0	8126	803777	0	0
2024-04-25 03:09:32			0	33198	0	0	0	16566	15200	158621	27474	952712	37826	105993	0	0	8128	802589	0	0
2024-04-25 03:10:32			0	33163	0	0	0	16555	15200	158709	27383	952791	37815	105989	0	0	8126	804411	0	0
2024-04-25 03:11:32			0	33154	0	0	0	16550	15200	158837	27055	952720	37804	105987	0	0	8125	804880	0	0
2024-04-25 03:12:32			0	33149	0	0	0	16558	15180	158853	27203	952714	37814	105990	0	0	8125	805227	0	0
2024-04-25 03:13:32			0	33154	0	0	0	16561	15200	158873	27194	952712	37782	105991	0	0	8125	804880	0	0
2024-04-25 03:14:32			0	33154	0	0	0	16566	15190	158813	27457	952783	37792	105993	0	0	8125	804924	0	0
2024-04-25 03:15:32			0	33134	0	0	0	16555	15190	158881	27124	952730	37803	105989	0	0	8124	805967	0	0
2024-04-25 03:16:32			0	33145	0	0	0	16545	15200	158957	27209	952746	37804	105985	0	0	8125	805350	0	0
2024-04-25 03:17:32			0	33146	0	0	0	16553	15200	159025	27547	952764	37803	105988	0	0	8125	805297	0	0
2024-04-25 03:18:32			0	33118	0	0	0	16550	15190	159169	27526	952704	37803	105987	0	0	8123	806802	0	0
2024-04-25 03:19:32			0	33124	0	0	0	16532	15190	159089	27149	952696	37803	105980	0	0	8124	806489	0	0
2024-04-25 03:20:32			0	33098	0	0	0	16522	15180	159189	27436	952661	37803	105976	0	0	8122	807890	0	0
2024-04-25 03:21:32			0	33068	0	0	0	16529	15180	159285	27124	952653	37802	105979	0	0	8120	809460	0	0
2024-04-25 03:22:32			0	33061	0	0	0	16524	15190	159345	27528	952704	37803	105977	0	0	8120	809783	0	0
2024-04-25 03:23:32			0	33049	0	0	0	16529	15180	159329	27066	952714	37803	105979	0	0	8119	810456	0	0
2024-04-25 03:24:32			0	33062	0	0	0	16529	15170	159333	27576	952698	37791	105979	0	0	8120	809818	0	0
2024-04-25 03:25:32			0	33081	0	0	0	16532	15170	159365	27326	952637	37802	105980	0	0	8121	808823	0	0
2024-04-25 03:26:32			0	33059	0	0	0	16535	15180	159413	27310	952714	37803	105981	0	0	8120	809932	0	0
2024-04-25 03:27:32			0	33045	0	0	0	16537	15170	159369	27260	952645	37813	105982	0	0	8119	810709	0	0
2024-04-25 03:28:32			0	33044	0	0	0	16535	15170	159345	27609	952698	37791	105981	0	0	8119	810761	0	0
2024-04-25 03:29:32			0	33066	0	0	0	16542	15170	159341	27237	952645	37813	105984	0	0	8120	809608	0	0
2024-04-25 03:30:32			0	33058	0	0	0	16545	15190	159369	27417	952722	37815	105985	0	0	8119	809941	0	0
2024-04-25 03:31:32			0	33078	0	0	0	16548	15180	159285	27327	952732	37791	105986	0	0	8121	808937	0	0
2024-04-25 03:32:32			0	33090	0	0	0	16558	15170	159237	27383	952724	37813	105990	0	0	8121	808352	0	0
2024-04-25 03:33:32			0	33092	0	0	0	16555	15180	159145	27105	952679	37791	105989	0	0	8121	808204	0	0
2024-04-25 03:34:32			0	33117	0	0	0	16571	15180	159129	27351	952740	37803	105995	0	0	8122	806897	0	0
2024-04-25 03:35:32			0	33116	0	0	0	16561	15190	159037	27502	952696	37803	105991	0	0	8123	806906	0	0
2024-04-25 03:36:32			0	33123	0	0	0	16566	15190	159021	27405	952775	37815	105993	0	0	8123	806541	0	0
2024-04-25 03:37:32			0	33122	0	0	0	16555	15180	159057	27607	952706	37813	105989	0	0	8123	806636	0	0
2024-04-25 03:38:32			0	33120	0	0	0	16553	15190	158973	27131	952730	37803	105988	0	0	8123	806698	0	0
2024-04-25 03:39:32			0	33138	0	0	0	16566	15180	158901	27251	952679	37791	105993	0	0	8124	805801	0	0
2024-04-25 03:40:32			0	33143	0	0	0	16568	15190	158989	27144	952748	37815	105994	0	0	8124	805497	0	0
2024-04-25 03:41:32			0	33167	0	0	0	16584	15180	158769	27497	952740	37814	106000	0	0	8125	804289	0	0
2024-04-25 03:42:32			0	33166	0	0	0	16574	15190	158813	27647	952756	37815	105996	0	0	8125	804298	0	0
2024-04-25 03:43:32			0	33174	0	0	0	16584	15180	158693	27483	952740	37814	106000	0	0	8126	803925	0	0
2024-04-25 03:44:32			0	33194	0	0	0	16540	15190	158585	27410	952783	37792	105983	0	0	8128	802841	0	0
2024-04-25 03:45:32			0	33196	0	0	0	16563	15190	158717	27168	952783	37815	105992	0	0	8127	802737	0	0
2024-04-25 03:46:32			0	33183	0	0	0	16545	15190	158809	27274	952669	37803	105985	0	0	8127	803413	0	0
2024-04-25 03:47:32			0	33156	0	0	0	16545	15190	158949	27659	952696	37803	105985	0	0	8125	804819	0	0
2024-04-25 03:48:32			0	33144	0	0	0	16535	15190	158981	27381	952748	37803	105981	0	0	8125	805445	0	0
2024-04-25 03:49:32			0	33123	0	0	0	16537	15190	159129	27403	952722	37803	105982	0	0	8123	806541	0	0
2024-04-25 03:50:32			0	33102	0	0	0	16529	15180	159101	27519	952687	37803	105979	0	0	8122	807681	0	0
2024-04-25 03:51:32			0	33080	0	0	0	16529	15190	159345	27341	952748	37792	105979	0	0	8121	808788	0	0
2024-04-25 03:52:32			0	33070	0	0	0	16535	15180	159293	27066	952609	37803	105981	0	0	8120	809355	0	0
2024-04-25 03:53:32			0	33069	0	0	0	16527	15170	159437	27229	952671	37791	105978	0	0	8120	809451	0	0
2024-04-25 03:54:32			0	33057	0	0	0	16527	15180	159413	27105	952653	37802	105978	0	0	8120	810036	0	0
2024-04-25 03:55:32			0	33021	0	0	0	16509	15170	159465	27405	952645	37802	105971	0	0	8118	811968	0	0
2024-04-25 03:56:32			0	33020	0	0	0	16509	15170	159505	27319	952592	37791	105971	0	0	8118	812021	0	0
2024-04-25 03:57:32			0	32985	0	0	0	16506	15160	159693	27680	952576	37791	105970	0	0	8115	813904	0	0
2024-04-25 03:58:32			0	32985	0	0	0	16490	15170	159781	27526	952584	37802	105964	0	0	8116	813860	0	0
2024-04-25 03:59:32			0	32970	0	0	0	16493	15160	159789	27542	952576	37801	105965	0	0	8115	814693	0	0
2024-04-25 04:00:32			0	32970	0	0	0	16480	15150	159821	27228	952604	37789	105960	0	0	8115	814737	0	0
2024-04-25 04:01:32			0	32970	0	0	0	16470	15150	159813	27280	952560	37799	105956	0	0	8115	814737	0	0
2024-04-25 04:02:32			0	32960	0	0	0	16472	15140	159813	27383	952465	37789	105957	0	0	8114	815308	0	0
2024-04-25 04:03:32			0	32946	0	0	0	16462	15140	160033	27189	952509	37810	105953	0	0	8114	816045	0	0
2024-04-25 04:04:32			0	32943	0	0	0	16449	15130	160025	27320	952448	37798	105948	0	0	8114	816247	0	0
2024-04-25 04:05:32			0	32910	0	0	0	16428	15130	160141	27400	952440	37776	105940	0	0	8112	817989	0	0
2024-04-25 04:06:32			0	32905	0	0	0	16444	15120	160273	27112	952371	37787	105946	0	0	8111	818297	0	0
2024-04-25 04:07:32			0	32876	0	0	0	16449	15110	160257	27256	952389	37786	105948	0	0	8109	819875	0	0
2024-04-25 04:08:32			0	32892	0	0	0	16459	15090	160317	26975	952304	37794	105952	0	0	8110	819117	0	0
2024-04-25 04:09:32			0	32851	0	0	0	16431	15100	160301	27036	952321	37796	105941	0	0	8108	821243	0	0
2024-04-25 04:10:32			0	32852	0	0	0	16425	15100	160429	27192	952373	37786	105939	0	0	8108	821190	0	0
2024-04-25 04:11:32			0	32857	0	0	0	16431	15100	160509	27190	952286	37806	105941	0	0	8109	820926	0	0
2024-04-25 04:12:32			0	32837	0	0	0	16412	15090	160569	27038	952331	37773	105934	0	0	8108	822030	0	0
2024-04-25 04:13:32			0	32846	0	0	0	16428	15080	160545	27102	952262	37793	105940	0	0	8108	821597	0	0
2024-04-25 04:14:32			0	32859	0	0	0	16423	15080	160553	27123	952288	37783	105938	0	0	8109	820908	0	0
2024-04-25 04:15:32			0	32846	0	0	0	16420	15090	160373	27263	952270	37772	105937	0	0	8108	821553	0	0
2024-04-25 04:16:32			0	32841	0	0	0	16423	15080	160421	27097	952254	37793	105938	0	0	8108	821862	0	0
2024-04-25 04:17:32			0	32838	0	0	0	16412	15080	160449	27320	952235	37793	105934	0	0	8108	822021	0	0
2024-04-25 04:18:32			0	32832	0	0	0	16420	15070	160521	27301	952298	37771	105937	0	0	8107	822384	0	0
2024-04-25 04:19:32			0	32839	0	0	0	16423	15060	160617	27230	952177	37782	105938	0	0	8107	822056	0	0
2024-04-25 04:20:32			0	32831	0	0	0	16431	15070	160557	27447	952298	37793	105941	0	0	8107	822437	0	0
2024-04-25 04:21:32			0	32841	0	0	0	16431	15070	160509	27429	952290	37803	105941	0	0	8107	821906	0	0
2024-04-25 04:22:32			0	32844	0	0	0	16441	15070	160521	27699	952298	37793	105945	0	0	8107	821747	0	0
2024-04-25 04:23:32			0	32863	0	0	0	16454	15070	160385	27395	952324	37793	105950	0	0	8108	820740	0	0
2024-04-25 04:24:32			0	32904	0	0	0	16454	15080	160269	27206	952385	37793	105950	0	0	8111	818526	0	0
2024-04-25 04:25:32			0	32969	0	0	0	16470	15070	160009	27300	952351	37804	105956	0	0	8115	815140	0	0
2024-04-25 04:26:32			0	32996	0	0	0	16480	15090	159901	27241	952401	37805	105960	0	0	8116	813631	0	0
2024-04-25 04:27:32			0	33030	0	0	0	16490	15090	159589	27588	952401	37793	105964	0	0	8118	811844	0	0
2024-04-25 04:28:32			0	33059	0	0	0	16472	15100	159505	27512	952444	37785	105957	0	0	8120	810280	0	0
2024-04-25 04:29:32			0	33091	0	0	0	16488	15090	159321	27251	952383	37794	105963	0	0	8122	808647	0	0
2024-04-25 04:30:32			0	33131	0	0	0	16480	15100	159189	27159	952497	37785	105960	0	0	8124	806513	0	0
2024-04-25 04:31:32			0	33130	0	0	0	16464	15090	159073	27203	952401	37783	105954	0	0	8125	806608	0	0
2024-04-25 04:32:32			0	33134	0	0	0	16472	15090	158989	27362	952401	37793	105957	0	0	8125	806400	0	0
2024-04-25 04:33:32			0	33186	0	0	0	16472	15100	158893	27255	952391	37774	105957	0	0	8128	803645	0	0
2024-04-25 04:34:32			0	33217	0	0	0	16459	15100	158705	27310	952399	37807	105952	0	0	8130	802033	0	0
2024-04-25 04:35:32			0	33223	0	0	0	16454	15100	158573	27336	952418	37785	105950	0	0	8131	801721	0	0
2024-04-25 04:36:32			0	33240	0	0	0	16441	15100	158601	27377	952418	37785	105945	0	0	8132	800838	0	0
2024-04-25 04:37:32			0	33252	0	0	0	16462	15090	158637	27488	952357	37805	105953	0	0	8132	800258	0	0
2024-04-25 04:38:32			0	33249	0	0	0	16457	15100	158541	27144	952373	37786	105951	0	0	8132	800371	0	0
2024-04-25 04:39:32			0	33270	0	0	0	16446	15100	158393	27182	952339	37795	105947	0	0	8133	799282	0	0
2024-04-25 04:40:32			0	33273	0	0	0	16438	15090	158237	27185	952296	37793	105944	0	0	8134	799169	0	0
2024-04-25 04:41:32			0	33309	0	0	0	16457	15090	158201	27253	952375	37783	105951	0	0	8136	797306	0	0
2024-04-25 04:42:32			0	33337	0	0	0	16459	15090	158245	27350	952383	37794	105952	0	0	8137	795858	0	0
2024-04-25 04:43:32			0	33358	0	0	0	16462	15080	158121	27486	952367	37793	105953	0	0	8138	794817	0	0
2024-04-25 04:44:32			0	33374	0	0	0	16441	15090	157913	27639	952383	37784	105945	0	0	8140	793949	0	0
2024-04-25 04:45:32			0	33415	0	0	0	16459	15100	157733	27599	952391	37795	105952	0	0	8142	791795	0	0
2024-04-25 04:46:32			0	33435	0	0	0	16480	15080	157649	27067	952446	37783	105960	0	0	8143	790852	0	0
2024-04-25 04:47:32			0	33480	0	0	0	16472	15090	157409	27376	952375	37793	105957	0	0	8146	788500	0	0
2024-04-25 04:48:32			0	33503	0	0	0	16496	15090	157381	27353	952436	37794	105966	0	0	8147	787322	0	0
2024-04-25 04:49:32			0	33537	0	0	0	16480	15090	157185	27428	952436	37794	105960	0	0	8149	785583	0	0
2024-04-25 04:50:32			0	33561	0	0	0	16472	15110	157161	27057	952434	37807	105957	0	0	8151	784273	0	0
2024-04-25 04:51:32			0	33560	0	0	0	16467	15100	157101	27161	952418	37774	105955	0	0	8150	784366	0	0
2024-04-25 04:52:32			0	33545	0	0	0	16467	15110	157081	27209	952460	37786	105955	0	0	8150	785090	0	0
2024-04-25 04:53:32			0	33556	0	0	0	16480	15100	157125	27166	952444	37806	105960	0	0	8150	784570	0	0
2024-04-25 04:54:32			0	33548	0	0	0	16496	15090	156997	27326	952436	37794	105966	0	0	8149	785021	0	0
2024-04-25 04:55:32			0	33589	0	0	0	16503	15090	156978	27341	952436	37784	105969	0	0	8152	782929	0	0
2024-04-25 04:56:32			0	33583	0	0	0	16511	15110	156850	27272	952486	37807	105972	0	0	8151	783151	0	0
2024-04-25 04:57:32			0	33630	0	0	0	16516	15100	156806	27355	952557	37796	105974	0	0	8154	780800	0	0
2024-04-25 04:58:32			0	33633	0	0	0	16514	15110	156726	27409	952592	37796	105973	0	0	8154	780605	0	0
2024-04-25 04:59:32			0	33651	0	0	0	16509	15130	156626	27107	952545	37798	105971	0	0	8155	779607	0	0
2024-04-25 05:00:32			0	33665	0	0	0	16506	15130	156610	27298	952527	37809	105970	0	0	8156	778896	0	0
2024-04-25 05:01:32			0	33672	0	0	0	16501	15130	156522	27081	952493	37787	105968	0	0	8157	778541	0	0
2024-04-25 05:02:32			0	33672	0	0	0	16514	15130	156522	27409	952606	37798	105973	0	0	8156	778541	0	0
2024-04-25 05:03:32			0	33695	0	0	0	16509	15140	156422	27183	952562	37788	105971	0	0	8158	777333	0	0
2024-04-25 05:04:32			0	33709	0	0	0	16509	15130	156370	27303	952554	37787	105971	0	0	8159	776666	0	0
2024-04-25 05:05:32			0	33699	0	0	0	16506	15130	156462	27573	952606	37787	105970	0	0	8158	777172	0	0
2024-04-25 05:06:32			0	33694	0	0	0	16493	15130	156386	27327	952554	37787	105965	0	0	8158	777425	0	0
2024-04-25 05:07:32			0	33702	0	0	0	16501	15130	156398	27393	952519	37798	105968	0	0	8158	777020	0	0
2024-04-25 05:08:32			0	33712	0	0	0	16506	15140	156382	27322	952509	37821	105970	0	0	8159	776472	0	0
2024-04-25 05:09:32			0	33733	0	0	0	16503	15140	156294	27331	952517	37810	105969	0	0	8160	775409	0	0
2024-04-25 05:10:32			0	33729	0	0	0	16527	15130	156262	27371	952606	37798	105978	0	0	8160	775654	0	0
2024-04-25 05:11:32			0	33743	0	0	0	16516	15140	156318	27258	952614	37810	105974	0	0	8161	774904	0	0
2024-04-25 05:12:32			0	33755	0	0	0	16524	15140	156322	27549	952649	37810	105977	0	0	8161	774298	0	0
2024-04-25 05:13:32			0	33756	0	0	0	16529	15140	156278	27229	952641	37810	105979	0	0	8161	774247	0	0
2024-04-25 05:14:32			0	33753	0	0	0	16529	15150	156090	27138	952657	37810	105979	0	0	8161	774357	0	0
2024-04-25 05:15:32			0	33771	0	0	0	16516	15160	156102	27317	952647	37811	105974	0	0	8162	773407	0	0
2024-04-25 05:16:32			0	33774	0	0	0	16537	15150	156166	27149	952613	37810	105982	0	0	8162	773297	0	0
2024-04-25 05:17:32			0	33790	0	0	0	16537	15160	155990	27152	952647	37800	105982	0	0	8163	772449	0	0
2024-04-25 05:18:32			0	33788	0	0	0	16537	15150	156030	27197	952631	37810	105982	0	0	8163	772591	0	0
2024-04-25 05:19:32			0	33808	0	0	0	16537	15160	155910	27419	952673	37800	105982	0	0	8164	771542	0	0
2024-04-25 05:20:32			0	33814	0	0	0	16535	15160	155918	27123	952621	37800	105981	0	0	8165	771239	0	0
2024-04-25 05:21:32			0	33804	0	0	0	16548	15150	155846	27305	952613	37799	105986	0	0	8164	771784	0	0
2024-04-25 05:22:32			0	33816	0	0	0	16550	15170	155890	27402	952698	37802	105987	0	0	8165	771097	0	0
2024-04-25 05:23:32			0	33816	0	0	0	16548	15150	155774	27364	952639	37810	105986	0	0	8164	771180	0	0
2024-04-25 05:24:32			0	33826	0	0	0	16548	15160	155774	27270	952568	37800	105986	0	0	8165	770635	0	0
2024-04-25 05:25:32			0	33847	0	0	0	16537	15160	155682	27282	952647	37811	105982	0	0	8167	769579	0	0
2024-04-25 05:26:32			0	33818	0	0	0	16540	15160	155822	27364	952673	37790	105983	0	0	8165	771038	0	0
2024-04-25 05:27:32			0	33840	0	0	0	16542	15160	155662	27388	952681	37823	105984	0	0	8166	769931	0	0
2024-04-25 05:28:32			0	33851	0	0	0	16542	15160	155678	27362	952681	37812	105984	0	0	8167	769378	0	0
2024-04-25 05:29:32			0	33848	0	0	0	16529	15160	155706	27516	952708	37801	105979	0	0	8167	769529	0	0
2024-04-25 05:30:32			0	33846	0	0	0	16527	15170	155750	27540	952689	37802	105978	0	0	8167	769588	0	0
2024-04-25 05:31:32			0	33862	0	0	0	16527	15160	155598	27156	952681	37823	105978	0	0	8168	768826	0	0
2024-04-25 05:32:32			0	33845	0	0	0	16527	15170	155686	27261	952689	37802	105978	0	0	8167	769638	0	0
2024-04-25 05:33:32			0	33848	0	0	0	16532	15160	155690	27455	952647	37811	105980	0	0	8167	769529	0	0
2024-04-25 05:34:32			0	33861	0	0	0	16540	15160	155694	27107	952629	37801	105983	0	0	8167	768876	0	0
2024-04-25 05:35:32			0	33857	0	0	0	16550	15160	155734	27128	952708	37812	105987	0	0	8167	769077	0	0
2024-04-25 05:36:32			0	33879	0	0	0	16545	15160	155718	27384	952647	37811	105985	0	0	8168	767972	0	0
2024-04-25 05:37:32			0	33857	0	0	0	16545	15160	155582	27533	952673	37800	105985	0	0	8167	769077	0	0
2024-04-25 05:38:32			0	33847	0	0	0	16542	15170	155658	27666	952716	37802	105984	0	0	8166	769538	0	0
2024-04-25 05:39:32			0	33862	0	0	0	16537	15160	155686	27376	952681	37791	105982	0	0	8167	768826	0	0
2024-04-25 05:40:32			0	33858	0	0	0	16537	15170	155654	27223	952689	37802	105982	0	0	8167	768985	0	0
2024-04-25 05:41:32			0	33862	0	0	0	16535	15180	155614	27405	952687	37814	105981	0	0	8168	768743	0	0
2024-04-25 05:42:32			0	33862	0	0	0	16535	15180	155690	27498	952706	37813	105981	0	0	8168	768743	0	0
2024-04-25 05:43:32			0	33848	0	0	0	16532	15170	155634	27336	952716	37813	105980	0	0	8167	769488	0	0
2024-04-25 05:44:32			0	33854	0	0	0	16540	15170	155698	27630	952689	37802	105983	0	0	8167	769186	0	0
2024-04-25 05:45:32			0	33864	0	0	0	16537	15160	155710	27398	952700	37822	105982	0	0	8168	768725	0	0
2024-04-25 05:46:32			0	33859	0	0	0	16545	15160	155618	27111	952681	37801	105985	0	0	8167	768976	0	0
2024-04-25 05:47:32			0	33863	0	0	0	16540	15180	155630	27540	952758	37813	105983	0	0	8168	768693	0	0
2024-04-25 05:48:32			0	33851	0	0	0	16529	15170	155726	27293	952698	37813	105979	0	0	8167	769337	0	0
2024-04-25 05:49:32			0	33849	0	0	0	16522	15170	155626	27267	952663	37824	105976	0	0	8167	769437	0	0
2024-04-25 05:50:32			0	33851	0	0	0	16522	15180	155710	27300	952687	37814	105976	0	0	8167	769295	0	0
2024-04-25 05:51:32			0	33842	0	0	0	16519	15160	155778	27450	952629	37801	105975	0	0	8167	769831	0	0
2024-04-25 05:52:32			0	33863	0	0	0	16529	15170	155750	27462	952750	37813	105979	0	0	8168	768734	0	0
2024-04-25 05:53:32			0	33863	0	0	0	16522	15170	155722	27376	952645	37802	105976	0	0	8168	768734	0	0
2024-04-25 05:54:32			0	33841	0	0	0	16511	15170	155658	27256	952663	37802	105972	0	0	8167	769840	0	0
2024-04-25 05:55:32			0	33855	0	0	0	16501	15160	155782	27275	952629	37812	105968	0	0	8168	769177	0	0
2024-04-25 05:56:32			0	33840	0	0	0	16493	15160	155890	27531	952621	37811	105965	0	0	8167	769931	0	0
2024-04-25 05:57:32			0	33813	0	0	0	16498	15160	155914	27422	952621	37800	105967	0	0	8165	771290	0	0
2024-04-25 05:58:32			0	33804	0	0	0	16488	15160	156006	27537	952621	37790	105963	0	0	8165	771743	0	0
2024-04-25 05:59:32			0	33803	0	0	0	16488	15150	155998	27258	952631	37810	105963	0	0	8165	771835	0	0
2024-04-25 06:00:32			0	33770	0	0	0	16488	15150	156014	27478	952552	37799	105963	0	0	8163	773499	0	0
2024-04-25 06:01:32			0	33769	0	0	0	16472	15150	156030	27531	952604	37789	105957	0	0	8163	773549	0	0
2024-04-25 06:02:32			0	33742	0	0	0	16472	15150	156150	27772	952525	37810	105957	0	0	8161	774913	0	0
2024-04-25 06:03:32			0	33771	0	0	0	16480	15140	156258	27364	952491	37810	105960	0	0	8163	773490	0	0
2024-04-25 06:04:32			0	33748	0	0	0	16483	15130	156218	27293	952554	37798	105961	0	0	8161	774693	0	0
2024-04-25 06:05:32			0	33745	0	0	0	16472	15130	156254	27545	952527	37798	105957	0	0	8161	774845	0	0
2024-04-25 06:06:32			0	33738	0	0	0	16477	15130	156274	27157	952475	37798	105959	0	0	8161	775198	0	0
2024-04-25 06:07:32			0	33737	0	0	0	16472	15130	156274	27284	952519	37798	105957	0	0	8161	775249	0	0
2024-04-25 06:08:32			0	33734	0	0	0	16470	15130	156370	27175	952519	37798	105956	0	0	8161	775401	0	0
2024-04-25 06:09:32			0	33712	0	0	0	16483	15140	156398	27519	952509	37798	105961	0	0	8159	776472	0	0
2024-04-25 06:10:32			0	33701	0	0	0	16470	15120	156382	27343	952511	37820	105956	0	0	8159	777113	0	0
2024-04-25 06:11:32			0	33704	0	0	0	16467	15120	156438	27204	952476	37819	105955	0	0	8159	776961	0	0
2024-04-25 06:12:32			0	33695	0	0	0	16464	15130	156330	27535	952493	37787	105954	0	0	8159	777375	0	0
2024-04-25 06:13:32			0	33704	0	0	0	16462	15100	156390	27267	952399	37796	105953	0	0	8159	777044	0	0
2024-04-25 06:14:32			0	33697	0	0	0	16459	15100	156510	27230	952452	37807	105952	0	0	8159	777399	0	0
2024-04-25 06:15:32			0	33681	0	0	0	16459	15120	156502	27339	952424	37797	105952	0	0	8158	778126	0	0
2024-04-25 06:16:32			0	33668	0	0	0	16441	15100	156630	27229	952391	37806	105945	0	0	8157	778869	0	0
2024-04-25 06:17:32			0	33653	0	0	0	16464	15100	156622	27114	952426	37786	105954	0	0	8156	779631	0	0
2024-04-25 06:18:32			0	33663	0	0	0	16459	15120	156538	27533	952398	37808	105952	0	0	8157	779040	0	0
2024-04-25 06:19:32			0	33640	0	0	0	16462	15100	156618	27144	952418	37785	105953	0	0	8155	780292	0	0
2024-04-25 06:20:32			0	33637	0	0	0	16467	15100	156782	27580	952478	37796	105955	0	0	8155	780444	0	0
2024-04-25 06:21:32			0	33665	0	0	0	16462	15100	156694	27258	952478	37796	105953	0	0	8157	779022	0	0
2024-04-25 06:22:32			0	33666	0	0	0	16472	15100	156554	27277	952478	37807	105957	0	0	8157	778971	0	0
2024-04-25 06:23:32			0	33680	0	0	0	16459	15100	156614	27561	952470	37795	105952	0	0	8158	778261	0	0
2024-04-25 06:24:32			0	33700	0	0	0	16454	15090	156462	27478	952436	37794	105950	0	0	8159	777288	0	0
2024-04-25 06:25:32			0	33690	0	0	0	16444	15090	156406	27192	952357	37794	105946	0	0	8159	777795	0	0
2024-04-25 06:26:32			0	33677	0	0	0	16428	15090	156466	27659	952436	37794	105940	0	0	8158	778455	0	0
2024-04-25 06:27:32			0	33680	0	0	0	16428	15100	156550	27256	952391	37795	105940	0	0	8158	778261	0	0
2024-04-25 06:28:32			0	33667	0	0	0	16441	15080	156482	27464	952393	37793	105945	0	0	8157	779004	0	0
2024-04-25 06:29:32			0	33666	0	0	0	16462	15090	156502	27291	952401	37816	105953	0	0	8157	779013	0	0
2024-04-25 06:30:32			0	33685	0	0	0	16467	15100	156578	27267	952470	37806	105955	0	0	8158	778007	0	0
2024-04-25 06:31:32			0	33693	0	0	0	16449	15100	156490	27609	952444	37795	105948	0	0	8159	777601	0	0
2024-04-25 06:32:32			0	33694	0	0	0	16457	15090	156494	27332	952436	37794	105951	0	0	8159	777592	0	0
2024-04-25 06:33:32			0	33689	0	0	0	16464	15090	156414	27602	952428	37805	105954	0	0	8158	777846	0	0
2024-04-25 06:34:32			0	33706	0	0	0	16470	15090	156470	27613	952507	37793	105956	0	0	8159	776984	0	0
2024-04-25 06:35:32			0	33737	0	0	0	16483	15090	156270	27277	952454	37793	105961	0	0	8161	775415	0	0
2024-04-25 06:36:32			0	33756	0	0	0	16488	15090	156214	27289	952488	37784	105963	0	0	8162	774455	0	0
2024-04-25 06:37:32			0	33780	0	0	0	16488	15100	156010	27209	952391	37795	105963	0	0	8163	773202	0	0
2024-04-25 06:38:32			0	33796	0	0	0	16475	15090	155978	27540	952515	37805	105958	0	0	8164	772436	0	0
2024-04-25 06:39:32			0	33789	0	0	0	16467	15100	155926	27225	952444	37795	105955	0	0	8164	772748	0	0
2024-04-25 06:40:32			0	33800	0	0	0	16467	15100	155934	27402	952505	37807	105955	0	0	8165	772193	0	0
2024-04-25 06:41:32			0	33799	0	0	0	16477	15100	156034	27396	952426	37796	105959	0	0	8164	772244	0	0
2024-04-25 06:42:32			0	33791	0	0	0	16475	15100	156026	27538	952497	37785	105958	0	0	8164	772647	0	0
2024-04-25 06:43:32			0	33807	0	0	0	16477	15110	155890	27338	952486	37807	105959	0	0	8165	771799	0	0
2024-04-25 06:44:32			0	33799	0	0	0	16490	15100	155918	27308	952444	37785	105964	0	0	8164	772244	0	0
2024-04-25 06:45:32			0	33809	0	0	0	16493	15100	155958	27369	952452	37807	105965	0	0	8165	771740	0	0
2024-04-25 06:46:32			0	33818	0	0	0	16501	15110	155890	27505	952547	37796	105968	0	0	8165	771245	0	0
2024-04-25 06:47:32			0	33810	0	0	0	16509	15100	155970	27253	952557	37807	105971	0	0	8165	771689	0	0
2024-04-25 06:48:32			0	33829	0	0	0	16498	15100	155778	27196	952557	37818	105967	0	0	8166	770733	0	0
2024-04-25 06:49:32			0	33830	0	0	0	16514	15120	155874	27251	952555	37819	105973	0	0	8166	770599	0	0
2024-04-25 06:50:32			0	33838	0	0	0	16498	15120	155838	27398	952555	37808	105967	0	0	8166	770197	0	0
2024-04-25 06:51:32			0	33836	0	0	0	16493	15120	155846	27715	952563	37809	105965	0	0	8166	770298	0	0
2024-04-25 06:52:32			0	33842	0	0	0	16483	15120	155814	27460	952537	37798	105961	0	0	8167	769996	0	0
2024-04-25 06:53:32			0	33832	0	0	0	16464	15130	155850	27692	952493	37809	105954	0	0	8167	770458	0	0
2024-04-25 06:54:32			0	33837	0	0	0	16433	15120	155894	27280	952450	37808	105942	0	0	8168	770247	0	0
2024-04-25 06:55:32			0	33812	0	0	0	16423	15110	155934	27447	952389	37786	105938	0	0	8166	771547	0	0
2024-04-25 06:56:32			0	33819	0	0	0	16368	15100	155974	27121	952373	37786	105917	0	0	8167	771236	0	0
2024-04-25 06:57:32			0	33816	0	0	0	16371	15100	155950	27409	952286	37785	105918	0	0	8167	771387	0	0
2024-04-25 06:58:32			0	33779	0	0	0	16384	15080	155982	27436	952254	37793	105923	0	0	8165	773335	0	0
2024-04-25 06:59:32			0	33764	0	0	0	16366	15070	156054	27462	952290	37782	105916	0	0	8164	774134	0	0
2024-04-25 07:00:32			0	33773	0	0	0	16394	15070	156138	27720	952185	37782	105927	0	0	8164	773680	0	0
2024-04-25 07:01:32			0	33734	0	0	0	16415	15070	156198	27296	952237	37782	105935	0	0	8162	775650	0	0
2024-04-25 07:02:32			0	33752	0	0	0	16384	15060	156358	27232	952229	37792	105923	0	0	8163	774782	0	0
2024-04-25 07:03:32			0	33727	0	0	0	16381	15070	156454	27374	952211	37782	105922	0	0	8162	776005	0	0
2024-04-25 07:04:32			0	33712	0	0	0	16376	15060	156422	27130	952221	37782	105920	0	0	8161	776806	0	0
2024-04-25 07:05:32			0	33694	0	0	0	16397	15060	156430	27286	952274	37782	105928	0	0	8159	777718	0	0
2024-04-25 07:06:32			0	33674	0	0	0	16350	15050	156470	27448	952161	37791	105910	0	0	8159	778774	0	0
2024-04-25 07:07:32			0	33651	0	0	0	16384	15040	156714	27372	952144	37791	105923	0	0	8157	779984	0	0
2024-04-25 07:08:32			0	33641	0	0	0	16379	15040	156818	27066	952162	37791	105921	0	0	8156	780492	0	0
2024-04-25 07:09:32			0	33618	0	0	0	16412	15040	156826	27053	952136	37791	105934	0	0	8155	781662	0	0
2024-04-25 07:10:32			0	33601	0	0	0	16423	15030	157062	27227	952207	37779	105938	0	0	8153	782570	0	0
2024-04-25 07:11:32			0	33594	0	0	0	16438	15030	157106	27341	952233	37779	105944	0	0	8153	782926	0	0
2024-04-25 07:12:32			0	33597	0	0	0	16449	15030	157090	27604	952260	37800	105948	0	0	8153	782774	0	0
2024-04-25 07:13:32			0	33603	0	0	0	16483	15040	157022	27358	952276	37791	105961	0	0	8152	782426	0	0
2024-04-25 07:14:32			0	33628	0	0	0	16475	15050	156914	27346	952318	37802	105958	0	0	8154	781111	0	0
2024-04-25 07:15:32			0	33623	0	0	0	16490	15060	156774	27305	952379	37803	105964	0	0	8154	781324	0	0
2024-04-25 07:16:32			0	33656	0	0	0	16493	15070	156718	27313	952369	37814	105965	0	0	8156	779604	0	0
2024-04-25 07:17:32			0	33666	0	0	0	16498	15070	156722	27452	952351	37804	105967	0	0	8156	779096	0	0
2024-04-25 07:18:32			0	33686	0	0	0	16493	15080	156678	27594	952438	37793	105965	0	0	8157	778040	0	0
2024-04-25 07:19:32			0	33697	0	0	0	16501	15090	156486	27189	952480	37805	105968	0	0	8158	777441	0	0
2024-04-25 07:20:32			0	33687	0	0	0	16503	15090	156390	27265	952507	37793	105969	0	0	8157	777947	0	0
2024-04-25 07:21:32			0	33688	0	0	0	16509	15090	156346	27483	952462	37805	105971	0	0	8157	777897	0	0
2024-04-25 07:22:32			0	33695	0	0	0	16496	15100	156414	27376	952549	37795	105966	0	0	8158	777500	0	0
2024-04-25 07:23:32			0	33692	0	0	0	16514	15100	156374	27255	952497	37795	105973	0	0	8157	777652	0	0
2024-04-25 07:24:32			0	33710	0	0	0	16516	15100	156278	27672	952497	37806	105974	0	0	8159	776740	0	0
2024-04-25 07:25:32			0	33700	0	0	0	16522	15100	156242	27223	952584	37829	105976	0	0	8158	777247	0	0
2024-04-25 07:26:32			0	33716	0	0	0	16519	15110	156430	27064	952565	37818	105975	0	0	8159	776395	0	0
2024-04-25 07:27:32			0	33722	0	0	0	16522	15120	156158	27277	952608	37808	105976	0	0	8159	776049	0	0
2024-04-25 07:28:32			0	33734	0	0	0	16511	15120	156362	27300	952582	37797	105972	0	0	8160	775442	0	0
2024-04-25 07:29:32			0	33715	0	0	0	16522	15130	156322	27492	952545	37820	105976	0	0	8159	776362	0	0
2024-04-25 07:30:32			0	33732	0	0	0	16519	15120	156294	27280	952616	37798	105975	0	0	8160	775544	0	0
2024-04-25 07:31:32			0	33734	0	0	0	16519	15130	156210	27152	952633	37820	105975	0	0	8160	775401	0	0
2024-04-25 07:32:32			0	33741	0	0	0	16514	15130	156218	27098	952580	37809	105973	0	0	8161	775047	0	0
2024-04-25 07:33:32			0	33726	0	0	0	16519	15140	156254	27575	952667	37810	105975	0	0	8160	775764	0	0
2024-04-25 07:34:32			0	33727	0	0	0	16529	15130	156242	27319	952633	37809	105979	0	0	8159	775755	0	0
2024-04-25 07:35:32			0	33731	0	0	0	16535	15140	156186	27268	952675	37810	105981	0	0	8160	775511	0	0
2024-04-25 07:36:32			0	33726	0	0	0	16548	15150	156178	27267	952657	37810	105986	0	0	8159	775722	0	0
2024-04-25 07:37:32			0	33740	0	0	0	16545	15150	156234	27462	952683	37810	105985	0	0	8160	775014	0	0
2024-04-25 07:38:32			0	33746	0	0	0	16548	15160	156166	27640	952673	37811	105986	0	0	8160	774669	0	0
2024-04-25 07:39:32			0	33756	0	0	0	16542	15150	156182	27526	952691	37810	105984	0	0	8161	774206	0	0
2024-04-25 07:40:32			0	33744	0	0	0	16545	15150	156074	27469	952744	37810	105985	0	0	8160	774812	0	0
2024-04-25 07:41:32			0	33753	0	0	0	16548	15160	156170	27416	952726	37833	105986	0	0	8161	774316	0	0
2024-04-25 07:42:32			0	33757	0	0	0	16555	15160	156158	27569	952708	37812	105989	0	0	8161	774114	0	0
2024-04-25 07:43:32			0	33753	0	0	0	16542	15160	156098	27457	952813	37823	105984	0	0	8161	774316	0	0
2024-04-25 07:44:32			0	33764	0	0	0	16553	15160	156262	27310	952752	37811	105988	0	0	8161	773760	0	0
2024-04-25 07:45:32			0	33751	0	0	0	16548	15160	156258	27602	952734	37812	105986	0	0	8161	774417	0	0
2024-04-25 07:46:32			0	33744	0	0	0	16542	15170	156242	27580	952742	37802	105984	0	0	8160	774729	0	0
2024-04-25 07:47:32			0	33749	0	0	0	16542	15170	156210	27332	952768	37813	105984	0	0	8161	774476	0	0
2024-04-25 07:48:32			0	33735	0	0	0	16548	15170	156222	27595	952716	37802	105986	0	0	8160	775183	0	0
2024-04-25 07:49:32			0	33739	0	0	0	16545	15160	156202	27313	952805	37822	105985	0	0	8160	775023	0	0
2024-04-25 07:50:32			0	33743	0	0	0	16535	15170	156242	27232	952803	37813	105981	0	0	8160	774779	0	0
2024-04-25 07:51:32			0	33729	0	0	0	16545	15180	156246	27282	952758	37824	105985	0	0	8160	775445	0	0
2024-04-25 07:52:32			0	33723	0	0	0	16545	15160	156270	27419	952760	37823	105985	0	0	8159	775832	0	0
2024-04-25 07:53:32			0	33709	0	0	0	16537	15170	156294	27326	952776	37813	105982	0	0	8158	776499	0	0
2024-04-25 07:54:32			0	33723	0	0	0	16545	15170	156310	27512	952776	37813	105985	0	0	8159	775790	0	0
2024-04-25 07:55:32			0	33712	0	0	0	16537	15180	156350	27341	952758	37813	105982	0	0	8159	776305	0	0
2024-04-25 07:56:32			0	33704	0	0	0	16529	15180	156394	27258	952758	37802	105979	0	0	8158	776710	0	0
2024-04-25 07:57:32			0	33674	0	0	0	16550	15180	156406	27519	952732	37834	105987	0	0	8156	778231	0	0
2024-04-25 07:58:32			0	33690	0	0	0	16545	15170	156418	27428	952768	37813	105985	0	0	8157	777461	0	0
2024-04-25 07:59:32			0	33689	0	0	0	16542	15170	156438	27435	952716	37813	105984	0	0	8157	777512	0	0
2024-04-25 08:00:32			0	33683	0	0	0	16540	15180	156438	27175	952785	37813	105983	0	0	8157	777774	0	0
2024-04-25 08:01:32			0	33651	0	0	0	16548	15160	156534	27208	952839	37812	105986	0	0	8155	779481	0	0
2024-04-25 08:02:32			0	33659	0	0	0	16540	15180	156662	27400	952758	37802	105983	0	0	8155	778991	0	0
2024-04-25 08:03:32			0	33650	0	0	0	16537	15180	156674	27253	952706	37824	105982	0	0	8155	779448	0	0
2024-04-25 08:04:32			0	33628	0	0	0	16540	15180	156706	27421	952785	37802	105983	0	0	8154	780566	0	0
2024-04-25 08:05:32			0	33643	0	0	0	16542	15180	156562	27457	952785	37802	105984	0	0	8155	779804	0	0
2024-04-25 08:06:32			0	33621	0	0	0	16542	15170	156678	27410	952750	37802	105984	0	0	8153	780964	0	0
2024-04-25 08:07:32			0	33614	0	0	0	16537	15170	156686	27535	952750	37813	105982	0	0	8153	781320	0	0
2024-04-25 08:08:32			0	33622	0	0	0	16545	15180	156678	27466	952811	37802	105985	0	0	8153	780871	0	0
2024-04-25 08:09:32			0	33614	0	0	0	16532	15170	156858	27668	952768	37824	105980	0	0	8153	781320	0	0
2024-04-25 08:10:32			0	33589	0	0	0	16545	15170	156798	27166	952768	37813	105985	0	0	8151	782593	0	0
2024-04-25 08:11:32			0	33580	0	0	0	16545	15170	156930	27395	952750	37802	105985	0	0	8151	783051	0	0
2024-04-25 08:12:32			0	33560	0	0	0	16548	15170	157017	27388	952716	37813	105986	0	0	8149	784071	0	0
2024-04-25 08:13:32			0	33564	0	0	0	16545	15170	156998	27168	952724	37791	105985	0	0	8150	783867	0	0
2024-04-25 08:14:32			0	33544	0	0	0	16563	15170	157113	27490	952829	37813	105992	0	0	8148	784888	0	0
2024-04-25 08:15:32			0	33542	0	0	0	16566	15180	157161	27537	952872	37814	105993	0	0	8148	784948	0	0
2024-04-25 08:16:32			0	33501	0	0	0	16571	15170	157249	27421	952829	37802	105995	0	0	8146	787086	0	0
2024-04-25 08:17:32			0	33497	0	0	0	16571	15170	157385	27391	952829	37813	105995	0	0	8145	787291	0	0
2024-04-25 08:18:32			0	33482	0	0	0	16574	15180	157469	27441	952845	37814	105996	0	0	8144	788017	0	0
2024-04-25 08:19:32			0	33470	0	0	0	16594	15180	157533	27339	952864	37813	106004	0	0	8143	788632	0	0
2024-04-25 08:20:32			0	33452	0	0	0	16602	15170	157489	27476	952882	37813	106007	0	0	8142	789597	0	0
2024-04-25 08:21:32			0	33429	0	0	0	16612	15190	157581	27601	952906	37826	106011	0	0	8141	790693	0	0
2024-04-25 08:22:32			0	33429	0	0	0	16615	15200	157629	27613	952957	37815	106012	0	0	8141	790651	0	0
2024-04-25 08:23:32			0	33415	0	0	0	16615	15210	157745	27301	952991	37816	106012	0	0	8140	791328	0	0
2024-04-25 08:24:32			0	33396	0	0	0	16615	15210	157857	27685	952939	37827	106012	0	0	8139	792305	0	0
2024-04-25 08:25:32			0	33392	0	0	0	16607	15200	157825	27604	952983	37815	106009	0	0	8139	792553	0	0
2024-04-25 08:26:32			0	33391	0	0	0	16612	15220	157829	27543	953007	37827	106011	0	0	8139	792520	0	0
2024-04-25 08:27:32			0	33373	0	0	0	16618	15220	157829	27435	953034	37827	106013	0	0	8137	793446	0	0
2024-04-25 08:28:32			0	33395	0	0	0	16607	15220	157829	27220	953016	37838	106009	0	0	8139	792314	0	0
2024-04-25 08:29:32			0	33394	0	0	0	16615	15220	157745	27376	953016	37828	106012	0	0	8139	792365	0	0
2024-04-25 08:30:32			0	33400	0	0	0	16615	15220	157973	27776	953060	37805	106012	0	0	8139	792057	0	0
2024-04-25 08:31:32			0	33390	0	0	0	16605	15220	157785	27317	953034	37849	106008	0	0	8139	792571	0	0
2024-04-25 08:32:32			0	33393	0	0	0	16618	15220	157833	27308	953042	37828	106013	0	0	8139	792417	0	0
2024-04-25 08:33:32			0	33416	0	0	0	16607	15220	157713	27609	953016	37795	106009	0	0	8140	791234	0	0
2024-04-25 08:34:32			0	33390	0	0	0	16612	15220	157749	27725	953034	37837	106011	0	0	8138	792571	0	0
2024-04-25 08:35:32			0	33403	0	0	0	16618	15230	157733	27374	953076	37818	106013	0	0	8139	791860	0	0
2024-04-25 08:36:32			0	33426	0	0	0	16602	15230	157745	27592	953050	37829	106007	0	0	8141	790678	0	0
2024-04-25 08:37:32			0	33420	0	0	0	16607	15230	157625	27351	953084	37830	106009	0	0	8140	790986	0	0
2024-04-25 08:38:32			0	33430	0	0	0	16623	15230	157665	27374	953076	37839	106015	0	0	8141	790472	0	0
2024-04-25 08:39:32			0	33440	0	0	0	16605	15230	157573	27443	953024	37818	106008	0	0	8142	789959	0	0
2024-04-25 08:40:32			0	33458	0	0	0	16615	15240	157505	27327	953093	37830	106012	0	0	8143	788993	0	0
2024-04-25 08:41:32			0	33480	0	0	0	16605	15230	157425	27507	953032	37819	106008	0	0	8144	787908	0	0
2024-04-25 08:42:32			0	33492	0	0	0	16607	15230	157353	27464	953032	37840	106009	0	0	8145	787293	0	0
2024-04-25 08:43:32			0	33499	0	0	0	16615	15240	157341	27450	953101	37830	106012	0	0	8145	786893	0	0
2024-04-25 08:44:32			0	33504	0	0	0	16607	15230	157233	27542	953050	37829	106009	0	0	8145	786679	0	0
2024-04-25 08:45:32			0	33513	0	0	0	16615	15240	157221	27313	953101	37819	106012	0	0	8146	786177	0	0
2024-04-25 08:46:32			0	33540	0	0	0	16605	15240	157197	27248	953074	37819	106008	0	0	8148	784797	0	0
2024-04-25 08:47:32			0	33540	0	0	0	16602	15230	157073	27701	953032	37830	106007	0	0	8148	784839	0	0
2024-04-25 08:48:32			0	33567	0	0	0	16605	15230	157046	27474	953032	37819	106008	0	0	8149	783462	0	0
2024-04-25 08:49:32			0	33556	0	0	0	16607	15230	157089	27237	953111	37830	106009	0	0	8148	784023	0	0
2024-04-25 08:50:32			0	33573	0	0	0	16618	15230	156953	27377	953084	37819	106013	0	0	8149	783156	0	0
2024-04-25 08:51:32			0	33569	0	0	0	16607	15230	156981	27241	953058	37819	106009	0	0	8149	783360	0	0
2024-04-25 08:52:32			0	33582	0	0	0	16597	15240	156926	27479	953101	37819	106005	0	0	8150	782655	0	0
2024-04-25 08:53:32			0	33602	0	0	0	16594	15240	156894	27293	953040	37819	106004	0	0	8151	781637	0	0
2024-04-25 08:54:32			0	33603	0	0	0	16602	15240	156770	27372	953040	37830	106007	0	0	8151	781586	0	0
2024-04-25 08:55:32			0	33604	0	0	0	16586	15240	156674	27583	953093	37819	106001	0	0	8152	781535	0	0
2024-04-25 08:56:32			0	33618	0	0	0	16592	15230	156642	27611	953058	37819	106003	0	0	8152	780865	0	0
2024-04-25 08:57:32			0	33622	0	0	0	16584	15240	156654	27445	953066	37819	106000	0	0	8153	780620	0	0
2024-04-25 08:58:32			0	33620	0	0	0	16594	15230	156690	27367	953005	37808	106004	0	0	8153	780763	0	0
2024-04-25 08:59:32			0	33624	0	0	0	16597	15230	156646	27367	953032	37819	106005	0	0	8153	780560	0	0
2024-04-25 09:00:32			0	33622	0	0	0	16586	15230	156654	27774	953032	37819	106001	0	0	8153	780662	0	0
2024-04-25 09:01:32			0	33635	0	0	0	16586	15230	156742	27448	952997	37818	106001	0	0	8154	780001	0	0
2024-04-25 09:02:32			0	33634	0	0	0	16586	15230	156686	27559	953058	37819	106001	0	0	8153	780052	0	0
2024-04-25 09:03:32			0	33635	0	0	0	16594	15240	156622	27270	953066	37830	106004	0	0	8153	779959	0	0
2024-04-25 09:04:32			0	33638	0	0	0	16576	15230	156618	27414	953032	37840	105997	0	0	8154	779848	0	0
2024-04-25 09:05:32			0	33638	0	0	0	16579	15220	156598	27272	953034	37827	105998	0	0	8154	779890	0	0
2024-04-25 09:06:32			0	33640	0	0	0	16579	15230	156646	27175	952971	37829	105998	0	0	8154	779747	0	0
2024-04-25 09:07:32			0	33628	0	0	0	16576	15210	156638	27545	952947	37816	105997	0	0	8153	780440	0	0
2024-04-25 09:08:32			0	33616	0	0	0	16581	15220	156646	27284	952928	37816	105999	0	0	8152	781009	0	0
2024-04-25 09:09:32			0	33605	0	0	0	16579	15220	156774	27149	952963	37817	105998	0	0	8152	781568	0	0
2024-04-25 09:10:32			0	33615	0	0	0	16594	15220	156794	27152	952937	37817	106004	0	0	8152	781059	0	0
2024-04-25 09:11:32			0	33608	0	0	0	16581	15220	156870	27208	953016	37828	105999	0	0	8152	781415	0	0
2024-04-25 09:12:32			0	33612	0	0	0	16584	15210	156790	27393	953026	37816	106000	0	0	8152	781254	0	0
2024-04-25 09:13:32			0	33618	0	0	0	16584	15220	156742	27118	953007	37827	106000	0	0	8153	780907	0	0
2024-04-25 09:14:32			0	33629	0	0	0	16592	15220	156738	27410	953016	37817	106003	0	0	8153	780348	0	0
2024-04-25 09:15:32			0	33614	0	0	0	16594	15220	156734	27621	953007	37816	106004	0	0	8152	781110	0	0
2024-04-25 09:16:32			0	33611	0	0	0	16589	15220	156698	27279	953016	37817	106002	0	0	8152	781263	0	0
2024-04-25 09:17:32			0	33618	0	0	0	16586	15220	156714	27301	952963	37817	106001	0	0	8152	780907	0	0
2024-04-25 09:18:32			0	33624	0	0	0	16586	15210	156714	27268	952973	37827	106001	0	0	8153	780644	0	0
2024-04-25 09:19:32			0	33627	0	0	0	16589	15220	156702	27196	952989	37828	106002	0	0	8153	780449	0	0
2024-04-25 09:20:32			0	33632	0	0	0	16584	15220	156718	27729	953034	37816	106000	0	0	8153	780195	0	0
2024-04-25 09:21:32			0	33634	0	0	0	16594	15200	156662	27419	952983	37826	106004	0	0	8153	780177	0	0
2024-04-25 09:22:32			0	33645	0	0	0	16592	15220	156558	27390	953034	37816	106003	0	0	8154	779535	0	0
2024-04-25 09:23:32			0	33644	0	0	0	16594	15220	156690	27332	952981	37805	106004	0	0	8154	779586	0	0
2024-04-25 09:24:32			0	33648	0	0	0	16584	15220	156566	27362	953007	37827	106000	0	0	8154	779383	0	0
2024-04-25 09:25:32			0	33626	0	0	0	16584	15220	156582	27287	953007	37805	106000	0	0	8153	780500	0	0
2024-04-25 09:26:32			0	33628	0	0	0	16589	15220	156646	27232	953007	37805	106002	0	0	8153	780399	0	0
2024-04-25 09:27:32			0	33646	0	0	0	16584	15230	156510	27260	952997	37818	106000	0	0	8154	779442	0	0
2024-04-25 09:28:32			0	33643	0	0	0	16584	15220	156642	27537	953007	37805	106000	0	0	8154	779636	0	0
2024-04-25 09:29:32			0	33630	0	0	0	16579	15220	156558	27646	953007	37837	105998	0	0	8153	780297	0	0
2024-04-25 09:30:32			0	33629	0	0	0	16586	15210	156634	27426	952999	37827	106001	0	0	8153	780390	0	0
2024-04-25 09:31:32			0	33618	0	0	0	16584	15220	156638	27457	952902	37816	106000	0	0	8153	780907	0	0
2024-04-25 09:32:32			0	33625	0	0	0	16581	15210	156734	27007	952991	37827	105999	0	0	8153	780593	0	0
2024-04-25 09:33:32			0	33631	0	0	0	16584	15220	156606	27374	952989	37838	106000	0	0	8153	780246	0	0
2024-04-25 09:34:32			0	33632	0	0	0	16581	15220	156618	27421	953034	37816	105999	0	0	8153	780195	0	0
2024-04-25 09:35:32			0	33630	0	0	0	16581	15220	156598	26953	953060	37827	105999	0	0	8153	780297	0	0
2024-04-25 09:36:32			0	33614	0	0	0	16574	15220	156702	27171	952981	37805	105996	0	0	8152	781110	0	0
2024-04-25 09:37:32			0	33621	0	0	0	16579	15220	156586	26899	952955	37827	105998	0	0	8153	780754	0	0
2024-04-25 09:38:32			0	33635	0	0	0	16576	15220	156594	27322	953016	37828	105997	0	0	8154	780043	0	0
2024-04-25 09:39:32			0	33627	0	0	0	16574	15220	156574	27416	953016	37817	105996	0	0	8153	780449	0	0
2024-04-25 09:40:32			0	33640	0	0	0	16568	15210	156578	27178	952991	37816	105994	0	0	8154	779831	0	0
2024-04-25 09:41:32			0	33629	0	0	0	16558	15220	156642	27279	952989	37817	105990	0	0	8154	780348	0	0
2024-04-25 09:42:32			0	33611	0	0	0	16558	15200	156758	27308	952930	37815	105990	0	0	8152	781347	0	0
2024-04-25 09:43:32			0	33612	0	0	0	16558	15220	156674	27428	952981	37837	105990	0	0	8153	781212	0	0
2024-04-25 09:44:32			0	33608	0	0	0	16548	15210	156630	27358	952965	37816	105986	0	0	8152	781457	0	0
2024-04-25 09:45:32			0	33606	0	0	0	16553	15210	156814	27454	952920	37827	105988	0	0	8152	781559	0	0
2024-04-25 09:46:32			0	33604	0	0	0	16561	15210	156674	26955	952973	37816	105991	0	0	8152	781661	0	0
2024-04-25 09:47:32			0	33615	0	0	0	16548	15210	156814	27194	952912	37816	105986	0	0	8153	781101	0	0
2024-04-25 09:48:32			0	33614	0	0	0	16545	15210	156758	27038	952939	37816	105985	0	0	8153	781152	0	0
2024-04-25 09:49:32			0	33610	0	0	0	16540	15200	156818	27516	952904	37826	105983	0	0	8153	781398	0	0
2024-04-25 09:50:32			0	33601	0	0	0	16535	15200	156810	27391	952957	37815	105981	0	0	8152	781856	0	0
2024-04-25 09:51:32			0	33597	0	0	0	16519	15200	156930	26974	952896	37826	105975	0	0	8152	782059	0	0
2024-04-25 09:52:32			0	33595	0	0	0	16519	15190	157006	27495	952783	37826	105975	0	0	8152	782203	0	0
2024-04-25 09:53:32			0	33597	0	0	0	16514	15190	156866	27393	952835	37826	105973	0	0	8152	782101	0	0
2024-04-25 09:54:32			0	33587	0	0	0	16511	15190	156926	27229	952862	37815	105972	0	0	8152	782611	0	0
2024-04-25 09:55:32			0	33572	0	0	0	16509	15190	156925	27246	952827	37815	105971	0	0	8151	783375	0	0
2024-04-25 09:56:32			0	33582	0	0	0	16506	15180	156910	27524	952766	37803	105970	0	0	8152	782907	0	0
2024-04-25 09:57:32			0	33570	0	0	0	16514	15180	157022	27533	952766	37814	105973	0	0	8151	783519	0	0
2024-04-25 09:58:32			0	33578	0	0	0	16524	15170	156970	27256	952724	37813	105977	0	0	8151	783154	0	0
2024-04-25 09:59:32			0	33564	0	0	0	16519	15180	157078	27691	952793	37814	105975	0	0	8150	783825	0	0
2024-04-25 10:00:32			0	33575	0	0	0	16511	15180	157022	27497	952872	37814	105972	0	0	8151	783264	0	0
2024-04-25 10:01:32			0	33583	0	0	0	16506	15170	156942	27352	952750	37802	105970	0	0	8152	782899	0	0
2024-04-25 10:02:32			0	33584	0	0	0	16509	15180	157082	27530	952766	37814	105971	0	0	8152	782806	0	0
2024-04-25 10:03:32			0	33564	0	0	0	16506	15170	156914	27498	952724	37802	105970	0	0	8150	783867	0	0
2024-04-25 10:04:32			0	33587	0	0	0	16511	15170	156998	27504	952724	37824	105972	0	0	8152	782695	0	0
2024-04-25 10:05:32			0	33577	0	0	0	16535	15170	156986	27672	952847	37813	105981	0	0	8151	783204	0	0
2024-04-25 10:06:32			0	33589	0	0	0	16542	15170	157014	27414	952829	37813	105984	0	0	8151	782593	0	0
2024-04-25 10:07:32			0	33586	0	0	0	16561	15180	156950	27543	952916	37813	105991	0	0	8151	782704	0	0
2024-04-25 10:08:32			0	33597	0	0	0	16535	15190	156982	27398	952880	37815	105981	0	0	8152	782101	0	0
2024-04-25 10:09:32			0	33604	0	0	0	16535	15180	156818	27869	952845	37814	105981	0	0	8152	781787	0	0
2024-04-25 10:10:32			0	33613	0	0	0	16563	15180	156790	27840	952872	37814	105992	0	0	8152	781329	0	0
2024-04-25 10:11:32			0	33620	0	0	0	16568	15200	156902	28011	952949	37815	105994	0	0	8153	780889	0	0
2024-04-25 10:12:32			0	33622	0	0	0	16581	15180	156766	27590	952924	37825	105999	0	0	8153	780871	0	0
2024-04-25 10:13:32			0	33632	0	0	0	16555	15190	156686	27322	952967	37815	105989	0	0	8154	780321	0	0
2024-04-25 10:14:32			0	33643	0	0	0	16555	15210	156698	27675	952939	37827	105989	0	0	8154	779678	0	0
2024-04-25 10:15:32			0	33661	0	0	0	16548	15190	156634	27422	952914	37815	105986	0	0	8156	778848	0	0
2024-04-25 10:16:32			0	33672	0	0	0	16555	15190	156606	27405	952827	37815	105989	0	0	8156	778290	0	0
2024-04-25 10:17:32			0	33663	0	0	0	16548	15190	156546	27145	952906	37826	105986	0	0	8156	778747	0	0
2024-04-25 10:18:32			0	33675	0	0	0	16558	15190	156566	27533	952888	37815	105990	0	0	8156	778138	0	0
2024-04-25 10:19:32			0	33660	0	0	0	16550	15190	156610	27557	952862	37792	105987	0	0	8155	778899	0	0
2024-04-25 10:20:32			0	33646	0	0	0	16545	15190	156574	27331	952914	37815	105985	0	0	8155	779610	0	0
2024-04-25 10:21:32			0	33654	0	0	0	16514	15190	156586	27511	952888	37803	105973	0	0	8156	779204	0	0
2024-04-25 10:22:32			0	33647	0	0	0	16501	15200	156702	27464	952791	37815	105968	0	0	8156	779517	0	0
2024-04-25 10:23:32			0	33629	0	0	0	16511	15190	156714	27265	952801	37815	105972	0	0	8154	780473	0	0
2024-04-25 10:24:32			0	33647	0	0	0	16511	15180	156734	27372	952793	37803	105972	0	0	8155	779601	0	0
2024-04-25 10:25:32			0	33625	0	0	0	16501	15190	156722	27350	952801	37815	105968	0	0	8154	780677	0	0
2024-04-25 10:26:32			0	33619	0	0	0	16503	15180	156722	27298	952819	37825	105969	0	0	8154	781024	0	0
2024-04-25 10:27:32			0	33626	0	0	0	16488	15180	156814	27305	952766	37814	105963	0	0	8154	780668	0	0
2024-04-25 10:28:32			0	33601	0	0	0	16496	15180	156846	27467	952811	37813	105966	0	0	8153	781940	0	0
2024-04-25 10:29:32			0	33620	0	0	0	16490	15170	156754	27379	952750	37824	105964	0	0	8154	781015	0	0
2024-04-25 10:30:32			0	33606	0	0	0	16532	15160	156830	27597	952839	37801	105980	0	0	8152	781769	0	0
2024-04-25 10:31:32			0	33621	0	0	0	16514	15180	156882	27523	952864	37824	105973	0	0	8154	780922	0	0
2024-04-25 10:32:32			0	33625	0	0	0	16493	15180	156798	27907	952845	37814	105965	0	0	8154	780719	0	0
2024-04-25 10:33:32			0	33629	0	0	0	16496	15180	156738	27561	952785	37813	105966	0	0	8154	780515	0	0
2024-04-25 10:34:32			0	33620	0	0	0	16488	15170	156810	27339	952724	37824	105963	0	0	8154	781015	0	0
2024-04-25 10:35:32			0	33622	0	0	0	16480	15170	156762	27505	952768	37791	105960	0	0	8154	780913	0	0
2024-04-25 10:36:32			0	33605	0	0	0	16488	15160	156826	27698	952681	37812	105963	0	0	8153	781820	0	0
2024-04-25 10:37:32			0	33588	0	0	0	16490	15160	156830	27509	952752	37811	105964	0	0	8152	782686	0	0
2024-04-25 10:38:32			0	33602	0	0	0	16488	15160	156870	27632	952700	37822	105963	0	0	8153	781973	0	0
2024-04-25 10:39:32			0	33593	0	0	0	16501	15160	156798	27398	952726	37822	105968	0	0	8152	782431	0	0
2024-04-25 10:40:32			0	33596	0	0	0	16501	15160	156826	27357	952726	37822	105968	0	0	8152	782278	0	0
2024-04-25 10:41:32			0	33613	0	0	0	16498	15170	156798	27711	952742	37802	105967	0	0	8153	781371	0	0
2024-04-25 10:42:32			0	33622	0	0	0	16511	15170	156830	27258	952803	37802	105972	0	0	8154	780913	0	0
2024-04-25 10:43:32			0	33606	0	0	0	16535	15160	156830	27450	952752	37811	105981	0	0	8152	781769	0	0
2024-04-25 10:44:32			0	33621	0	0	0	16535	15160	156750	27293	952865	37812	105981	0	0	8153	781006	0	0
2024-04-25 10:45:32			0	33660	0	0	0	16501	15170	156626	27436	952803	37813	105968	0	0	8156	778983	0	0
2024-04-25 10:46:32			0	33656	0	0	0	16498	15170	156606	27516	952855	37813	105967	0	0	8156	779186	0	0
2024-04-25 10:47:32			0	33656	0	0	0	16501	15160	156598	27170	952734	37812	105968	0	0	8156	779228	0	0
2024-04-25 10:48:32			0	33635	0	0	0	16501	15160	156658	27524	952760	37812	105968	0	0	8155	780294	0	0
2024-04-25 10:49:32			0	33662	0	0	0	16498	15160	156658	27528	952752	37811	105967	0	0	8156	778923	0	0
2024-04-25 10:50:32			0	33648	0	0	0	16496	15160	156638	27557	952726	37811	105966	0	0	8155	779634	0	0
2024-04-25 10:51:32			0	33659	0	0	0	16490	15150	156642	27545	952665	37821	105964	0	0	8156	779117	0	0
2024-04-25 10:52:32			0	33667	0	0	0	16493	15160	156646	27374	952700	37800	105965	0	0	8157	778669	0	0
2024-04-25 10:53:32			0	33644	0	0	0	16493	15150	156614	27410	952665	37821	105965	0	0	8155	779879	0	0
2024-04-25 10:54:32			0	33644	0	0	0	16477	15150	156578	27384	952639	37799	105959	0	0	8156	779879	0	0
2024-04-25 10:55:32			0	33650	0	0	0	16485	15150	156618	27417	952691	37799	105962	0	0	8156	779574	0	0
2024-04-25 10:56:32			0	33648	0	0	0	16485	15140	156586	27462	952701	37810	105962	0	0	8156	779718	0	0
2024-04-25 10:57:32			0	33644	0	0	0	16467	15150	156638	27244	952631	37810	105955	0	0	8156	779879	0	0
2024-04-25 10:58:32			0	33638	0	0	0	16470	15130	156702	27507	952633	37809	105956	0	0	8155	780267	0	0
2024-04-25 10:59:32			0	33652	0	0	0	16477	15140	156702	27580	952570	37799	105959	0	0	8156	779514	0	0
2024-04-25 11:00:32			0	33653	0	0	0	16470	15140	156654	27389	952614	37810	105956	0	0	8156	779464	0	0
2024-04-25 11:01:32			0	33629	0	0	0	16472	15140	156718	27396	952641	37810	105957	0	0	8155	780683	0	0
2024-04-25 11:02:32			0	33641	0	0	0	16467	15130	156694	27630	952572	37809	105955	0	0	8155	780115	0	0
2024-04-25 11:03:32			0	33639	0	0	0	16464	15130	156802	27467	952606	37820	105954	0	0	8155	780217	0	0
2024-04-25 11:04:32			0	33634	0	0	0	16467	15120	156670	27395	952563	37798	105955	0	0	8155	780513	0	0
2024-04-25 11:05:32			0	33631	0	0	0	16477	15130	156758	27365	952572	37798	105959	0	0	8155	780623	0	0
2024-04-25 11:06:32			0	33627	0	0	0	16470	15120	156690	27410	952537	37798	105956	0	0	8154	780869	0	0
2024-04-25 11:07:32			0	33634	0	0	0	16470	15130	156646	27464	952598	37809	105956	0	0	8155	780471	0	0
2024-04-25 11:08:32			0	33637	0	0	0	16470	15110	156690	27396	952495	37818	105956	0	0	8155	780402	0	0
2024-04-25 11:09:32			0	33642	0	0	0	16472	15110	156726	27469	952521	37807	105957	0	0	8155	780148	0	0
2024-04-25 11:10:32			0	33636	0	0	0	16467	15110	156686	27537	952513	37807	105955	0	0	8155	780453	0	0
2024-04-25 11:11:32			0	33627	0	0	0	16475	15120	156562	27556	952616	37820	105958	0	0	8154	780869	0	0
2024-04-25 11:12:32			0	33647	0	0	0	16464	15110	156630	27334	952495	37807	105954	0	0	8156	779894	0	0
2024-04-25 11:13:32			0	33640	0	0	0	16488	15130	156642	27270	952624	37809	105963	0	0	8155	780166	0	0
2024-04-25 11:14:32			0	33657	0	0	0	16480	15110	156698	27308	952539	37807	105960	0	0	8156	779386	0	0
2024-04-25 11:15:32			0	33639	0	0	0	16490	15120	156786	27633	952616	37820	105964	0	0	8155	780259	0	0
2024-04-25 11:16:32			0	33633	0	0	0	16488	15120	156734	27611	952616	37820	105963	0	0	8155	780564	0	0
2024-04-25 11:17:32			0	33640	0	0	0	16488	15120	156714	27428	952563	37809	105963	0	0	8155	780208	0	0
2024-04-25 11:18:32			0	33649	0	0	0	16480	15110	156714	27587	952547	37807	105960	0	0	8156	779792	0	0
2024-04-25 11:19:32			0	33631	0	0	0	16488	15130	156774	27338	952598	37809	105963	0	0	8154	780623	0	0
2024-04-25 11:20:32			0	33628	0	0	0	16477	15120	156658	27159	952563	37820	105959	0	0	8154	780818	0	0
2024-04-25 11:21:32			0	33655	0	0	0	16480	15110	156710	27755	952618	37818	105960	0	0	8156	779488	0	0
2024-04-25 11:22:32			0	33655	0	0	0	16490	15140	156702	27677	952641	37821	105964	0	0	8156	779362	0	0
2024-04-25 11:23:32			0	33657	0	0	0	16483	15130	156714	27691	952677	37809	105961	0	0	8156	779302	0	0
2024-04-25 11:24:32			0	33666	0	0	0	16493	15130	156718	27604	952685	37809	105965	0	0	8156	778845	0	0
2024-04-25 11:25:32			0	33654	0	0	0	16493	15120	156570	27696	952669	37820	105965	0	0	8156	779497	0	0
2024-04-25 11:26:32			0	33652	0	0	0	16506	15130	156614	27519	952677	37809	105970	0	0	8155	779556	0	0
2024-04-25 11:27:32			0	33667	0	0	0	16514	15130	156626	27666	952651	37809	105973	0	0	8156	778795	0	0
2024-04-25 11:28:32			0	33670	0	0	0	16519	15130	156574	27403	952685	37809	105975	0	0	8156	778643	0	0
2024-04-25 11:29:32			0	33663	0	0	0	16524	15140	156514	27774	952667	37810	105977	0	0	8156	778956	0	0
2024-04-25 11:30:32			0	33660	0	0	0	16532	15140	156590	27698	952720	37810	105980	0	0	8155	779108	0	0
2024-04-25 11:31:32			0	33670	0	0	0	16529	15150	156630	27710	952789	37821	105979	0	0	8156	778559	0	0
2024-04-25 11:32:32			0	33653	0	0	0	16529	15150	156666	27483	952762	37810	105979	0	0	8155	779422	0	0
2024-04-25 11:33:32			0	33662	0	0	0	16524	15140	156734	27755	952780	37799	105977	0	0	8156	779007	0	0
2024-04-25 11:34:32			0	33665	0	0	0	16519	15150	156710	27725	952849	37821	105975	0	0	8156	778813	0	0
2024-04-25 11:35:32			0	33650	0	0	0	16511	15150	156558	27521	952744	37821	105972	0	0	8155	779574	0	0
2024-04-25 11:36:32			0	33653	0	0	0	16496	15150	156478	27403	952691	37810	105966	0	0	8156	779422	0	0
2024-04-25 11:37:32			0	33690	0	0	0	16488	15140	156494	27460	952754	37821	105963	0	0	8158	777587	0	0
2024-04-25 11:38:32			0	33692	0	0	0	16490	15150	156498	27765	952718	37821	105964	0	0	8158	777443	0	0
2024-04-25 11:39:32			0	33694	0	0	0	16516	15150	156438	27452	952744	37810	105974	0	0	8158	777342	0	0
2024-04-25 11:40:32			0	33720	0	0	0	16509	15150	156254	27814	952691	37810	105971	0	0	8159	776026	0	0
2024-04-25 11:41:32			0	33715	0	0	0	16529	15150	156158	27731	952691	37810	105979	0	0	8159	776279	0	0
2024-04-25 11:42:32			0	33724	0	0	0	16529	15160	156286	27718	952805	37822	105979	0	0	8159	775782	0	0
2024-04-25 11:43:32			0	33761	0	0	0	16522	15150	156218	27992	952770	37821	105976	0	0	8162	773953	0	0
2024-04-25 11:44:32			0	33751	0	0	0	16522	15160	156122	27880	952760	37823	105976	0	0	8161	774417	0	0
2024-04-25 11:45:32			0	33739	0	0	0	16516	15160	156110	27602	952813	37812	105974	0	0	8161	775023	0	0
2024-04-25 11:46:32			0	33750	0	0	0	16496	15160	156062	27587	952726	37800	105966	0	0	8162	774467	0	0
2024-04-25 11:47:32			0	33772	0	0	0	16493	15150	156110	27701	952691	37810	105965	0	0	8163	773398	0	0
2024-04-25 11:48:32			0	33767	0	0	0	16485	15150	156078	27616	952770	37810	105962	0	0	8163	773650	0	0
2024-04-25 11:49:32			0	33782	0	0	0	16472	15140	156094	27713	952675	37821	105957	0	0	8164	772935	0	0
2024-04-25 11:50:32			0	33792	0	0	0	16477	15130	156114	27524	952685	37820	105959	0	0	8164	772472	0	0
2024-04-25 11:51:32			0	33816	0	0	0	16475	15140	155878	27369	952667	37810	105958	0	0	8166	771221	0	0
2024-04-25 11:52:32			0	33808	0	0	0	16470	15150	155950	27362	952683	37810	105956	0	0	8165	771583	0	0
2024-04-25 11:53:32			0	33829	0	0	0	16472	15130	155882	27517	952606	37809	105957	0	0	8166	770609	0	0
2024-04-25 11:54:32			0	33814	0	0	0	16467	15130	155962	27677	952624	37809	105955	0	0	8166	771364	0	0
2024-04-25 11:55:32			0	33836	0	0	0	16467	15130	155882	27880	952651	37809	105955	0	0	8167	770256	0	0
2024-04-25 11:56:32			0	33847	0	0	0	16475	15130	155766	27601	952651	37820	105958	0	0	8167	769703	0	0
2024-04-25 11:57:32			0	33826	0	0	0	16472	15140	155746	27838	952667	37810	105957	0	0	8166	770718	0	0
2024-04-25 11:58:32			0	33834	0	0	0	16477	15130	155778	27861	952651	37809	105959	0	0	8167	770357	0	0
2024-04-25 11:59:32			0	33827	0	0	0	16490	15120	155826	27873	952642	37809	105964	0	0	8166	770750	0	0
2024-04-25 12:00:32			0	33849	0	0	0	16496	15120	155742	27821	952642	37798	105966	0	0	8167	769644	0	0
2024-04-25 12:01:32			0	33858	0	0	0	16493	15130	155730	27365	952651	37809	105965	0	0	8168	769150	0	0
2024-04-25 12:02:32			0	33844	0	0	0	16498	15130	155726	27412	952633	37798	105967	0	0	8167	769854	0	0
2024-04-25 12:03:32			0	33852	0	0	0	16493	15140	155790	27590	952667	37821	105965	0	0	8167	769410	0	0
2024-04-25 12:04:32			0	33847	0	0	0	16496	15130	155878	27453	952764	37809	105966	0	0	8167	769703	0	0
2024-04-25 12:05:32			0	33845	0	0	0	16506	15140	155706	27809	952641	37821	105970	0	0	8167	769762	0	0
2024-04-25 12:06:32			0	33846	0	0	0	16506	15140	155698	27447	952641	37821	105970	0	0	8167	769712	0	0
2024-04-25 12:07:32			0	33844	0	0	0	16506	15140	155762	27415	952667	37821	105970	0	0	8167	769813	0	0
2024-04-25 12:08:32			0	33864	0	0	0	16501	15130	155818	27364	952738	37809	105968	0	0	8168	768849	0	0
2024-04-25 12:09:32			0	33844	0	0	0	16503	15130	155826	27783	952685	37831	105969	0	0	8167	769854	0	0
2024-04-25 12:10:32			0	33843	0	0	0	16511	15130	155814	27499	952712	37820	105972	0	0	8167	769904	0	0
2024-04-25 12:11:32			0	33854	0	0	0	16509	15140	155698	27493	952693	37810	105971	0	0	8167	769310	0	0
2024-04-25 12:12:32			0	33869	0	0	0	16509	15140	155674	27481	952720	37832	105971	0	0	8168	768557	0	0
2024-04-25 12:13:32			0	33849	0	0	0	16516	15140	155786	27703	952649	37821	105974	0	0	8167	769561	0	0
2024-04-25 12:14:32			0	33862	0	0	0	16503	15140	155746	27753	952720	37821	105969	0	0	8168	768908	0	0
2024-04-25 12:15:32			0	33863	0	0	0	16506	15150	155678	27329	952736	37810	105970	0	0	8168	768817	0	0
2024-04-25 12:16:32			0	33854	0	0	0	16506	15140	155702	27507	952780	37810	105970	0	0	8167	769310	0	0
2024-04-25 12:17:32			0	33850	0	0	0	16519	15150	155706	27505	952683	37821	105975	0	0	8167	769470	0	0
2024-04-25 12:18:32			0	33869	0	0	0	16516	15140	155802	27424	952728	37810	105974	0	0	8168	768557	0	0
2024-04-25 12:19:32			0	33857	0	0	0	16524	15140	155738	27829	952649	37810	105977	0	0	8167	769159	0	0
2024-04-25 12:20:32			0	33859	0	0	0	16529	15140	155730	27670	952649	37810	105979	0	0	8167	769059	0	0
2024-04-25 12:21:32			0	33858	0	0	0	16532	15140	155722	27319	952728	37821	105980	0	0	8167	769109	0	0
2024-04-25 12:22:32			0	33840	0	0	0	16537	15150	155774	27289	952797	37821	105982	0	0	8166	769972	0	0
2024-04-25 12:23:32			0	33846	0	0	0	16532	15150	155774	27562	952849	37833	105980	0	0	8166	769671	0	0
2024-04-25 12:24:32			0	33840	0	0	0	16537	15160	155834	27625	952805	37822	105982	0	0	8166	769931	0	0
2024-04-25 12:25:32			0	33854	0	0	0	16540	15160	155886	27490	952839	37812	105983	0	0	8167	769227	0	0
2024-04-25 12:26:32			0	33835	0	0	0	16537	15160	155778	27633	952813	37812	105982	0	0	8166	770183	0	0
2024-04-25 12:27:32			0	33866	0	0	0	16532	15160	155826	27561	952839	37823	105980	0	0	8168	768625	0	0
2024-04-25 12:28:32			0	33845	0	0	0	16537	15160	155782	27253	952831	37822	105982	0	0	8166	769680	0	0
2024-04-25 12:29:32			0	33841	0	0	0	16540	15160	155774	27590	952857	37822	105983	0	0	8166	769881	0	0
2024-04-25 12:30:32			0	33837	0	0	0	16542	15160	155850	27531	952839	37833	105984	0	0	8166	770082	0	0
2024-04-25 12:31:32			0	33861	0	0	0	16545	15170	155906	27390	952882	37813	105985	0	0	8167	768835	0	0
2024-04-25 12:32:32			0	33826	0	0	0	16542	15170	155822	27540	952900	37824	105984	0	0	8165	770594	0	0
2024-04-25 12:33:32			0	33840	0	0	0	16537	15160	155898	27651	952865	37823	105982	0	0	8166	769931	0	0
2024-04-25 12:34:32			0	33839	0	0	0	16542	15170	155858	27824	952795	37824	105984	0	0	8166	769940	0	0
2024-04-25 12:35:32			0	33834	0	0	0	16540	15170	155906	27564	952908	37834	105983	0	0	8166	770192	0	0
2024-04-25 12:36:32			0	33840	0	0	0	16540	15170	155882	27440	952900	37813	105983	0	0	8166	769890	0	0
2024-04-25 12:37:32			0	33822	0	0	0	16550	15170	155826	27604	952821	37813	105987	0	0	8165	770795	0	0
2024-04-25 12:38:32			0	33816	0	0	0	16548	15170	155886	27739	952900	37824	105986	0	0	8165	771097	0	0
2024-04-25 12:39:32			0	33818	0	0	0	16548	15170	155966	27138	952855	37824	105986	0	0	8165	770997	0	0
2024-04-25 12:40:32			0	33798	0	0	0	16540	15180	155974	27457	952977	37835	105983	0	0	8164	771962	0	0
2024-04-25 12:41:32			0	33824	0	0	0	16548	15180	155926	27665	952890	37813	105986	0	0	8165	770653	0	0
2024-04-25 12:42:32			0	33811	0	0	0	16561	15180	155978	27744	952864	37834	105991	0	0	8164	771307	0	0
2024-04-25 12:43:32			0	33822	0	0	0	16563	15170	155954	27306	952908	37813	105992	0	0	8165	770795	0	0
2024-04-25 12:44:32			0	33821	0	0	0	16555	15180	155942	27398	952951	37825	105989	0	0	8165	770804	0	0
2024-04-25 12:45:32			0	33806	0	0	0	16561	15180	155894	27836	952951	37835	105991	0	0	8164	771559	0	0
2024-04-25 12:46:32			0	33819	0	0	0	16558	15180	155854	27498	952890	37813	105990	0	0	8165	770905	0	0
2024-04-25 12:47:32			0	33820	0	0	0	16561	15180	155830	27372	952916	37824	105991	0	0	8165	770855	0	0
2024-04-25 12:48:32			0	33822	0	0	0	16566	15190	155786	27760	952993	37847	105993	0	0	8165	770713	0	0
2024-04-25 12:49:32			0	33831	0	0	0	16558	15190	155830	27652	952985	37826	105990	0	0	8165	770260	0	0
2024-04-25 12:50:32			0	33830	0	0	0	16550	15180	155734	27554	952951	37814	105987	0	0	8165	770351	0	0
2024-04-25 12:51:32			0	33850	0	0	0	16563	15190	155650	27479	952967	37836	105992	0	0	8166	769305	0	0
2024-04-25 12:52:32			0	33853	0	0	0	16555	15180	155734	27305	952898	37825	105989	0	0	8167	769195	0	0
2024-04-25 12:53:32			0	33874	0	0	0	16555	15190	155714	27519	952985	37826	105989	0	0	8168	768099	0	0
2024-04-25 12:54:32			0	33874	0	0	0	16555	15190	155710	27753	952932	37836	105989	0	0	8168	768099	0	0
2024-04-25 12:55:32			0	33883	0	0	0	16561	15200	155658	27443	952949	37826	105991	0	0	8168	767607	0	0
2024-04-25 12:56:32			0	33904	0	0	0	16553	15180	155526	27398	952977	37825	105988	0	0	8170	766636	0	0
2024-04-25 12:57:32			0	33910	0	0	0	16553	15190	155474	27530	952959	37836	105988	0	0	8170	766294	0	0
2024-04-25 12:58:32			0	33900	0	0	0	16571	15200	155430	27447	952975	37836	105995	0	0	8169	766754	0	0
2024-04-25 12:59:32			0	33907	0	0	0	16563	15190	155430	27502	953011	37836	105992	0	0	8170	766445	0	0
2024-04-25 13:00:32			0	33918	0	0	0	16540	15190	155342	27679	952932	37836	105983	0	0	8171	765894	0	0
2024-04-25 13:01:32			0	33913	0	0	0	16545	15190	155298	27511	952906	37815	105985	0	0	8170	766144	0	0
2024-04-25 13:02:32			0	33918	0	0	0	16561	15190	155470	27897	952967	37815	105991	0	0	8170	765894	0	0
2024-04-25 13:03:32			0	33902	0	0	0	16553	15190	155482	27547	952967	37815	105988	0	0	8170	766695	0	0
2024-04-25 13:04:32			0	33895	0	0	0	16550	15180	155562	27511	952924	37835	105987	0	0	8169	767087	0	0
2024-04-25 13:05:32			0	33889	0	0	0	16555	15180	155558	27372	952924	37825	105989	0	0	8169	767388	0	0
2024-04-25 13:06:32			0	33888	0	0	0	16555	15190	155486	27545	952967	37815	105989	0	0	8169	767397	0	0
2024-04-25 13:07:32			0	33909	0	0	0	16550	15190	155474	27310	952888	37826	105987	0	0	8170	766344	0	0
2024-04-25 13:08:32			0	33893	0	0	0	16553	15200	155498	27495	952949	37815	105988	0	0	8169	767105	0	0
2024-04-25 13:09:32			0	33885	0	0	0	16553	15190	155574	27298	952932	37826	105988	0	0	8169	767548	0	0
2024-04-25 13:10:32			0	33893	0	0	0	16553	15190	155534	27512	952906	37826	105988	0	0	8169	767146	0	0
2024-04-25 13:11:32			0	33897	0	0	0	16548	15190	155526	27500	952880	37826	105986	0	0	8169	766946	0	0
2024-04-25 13:12:32			0	33904	0	0	0	16553	15190	155522	27222	952959	37826	105988	0	0	8170	766595	0	0
2024-04-25 13:13:32			0	33892	0	0	0	16537	15180	155430	27353	952969	37824	105982	0	0	8169	767238	0	0
2024-04-25 13:14:32			0	33903	0	0	0	16542	15190	155458	27462	952880	37826	105984	0	0	8170	766645	0	0
2024-04-25 13:15:32			0	33914	0	0	0	16553	15190	155550	27403	952932	37826	105988	0	0	8170	766094	0	0
2024-04-25 13:16:32			0	33909	0	0	0	16553	15190	155466	27424	952906	37836	105988	0	0	8170	766344	0	0
2024-04-25 13:17:32			0	33904	0	0	0	16568	15190	155470	27692	952993	37836	105994	0	0	8169	766595	0	0
2024-04-25 13:18:32			0	33904	0	0	0	16584	15200	155522	27724	952975	37836	106000	0	0	8169	766554	0	0
2024-04-25 13:19:32			0	33901	0	0	0	16579	15200	155430	27455	953009	37837	105998	0	0	8169	766704	0	0
2024-04-25 13:20:32			0	33918	0	0	0	16589	15200	155398	27502	952983	37826	106002	0	0	8170	765853	0	0
2024-04-25 13:21:32			0	33922	0	0	0	16584	15200	155358	27703	953009	37826	106000	0	0	8170	765652	0	0
2024-04-25 13:22:32			0	33913	0	0	0	16589	15210	155438	27637	953044	37827	106002	0	0	8170	766062	0	0
2024-04-25 13:23:32			0	33912	0	0	0	16592	15210	155374	27854	953017	37827	106003	0	0	8170	766112	0	0
2024-04-25 13:24:32			0	33934	0	0	0	16592	15200	155530	27493	953036	37837	106003	0	0	8171	765052	0	0
2024-04-25 13:25:32			0	33915	0	0	0	16605	15210	155442	27984	953105	37827	106008	0	0	8170	765962	0	0
2024-04-25 13:26:32			0	33922	0	0	0	16610	15210	155490	27653	953078	37816	106010	0	0	8170	765611	0	0
2024-04-25 13:27:32			0	33910	0	0	0	16602	15210	155466	27895	952999	37837	106007	0	0	8169	766212	0	0
2024-04-25 13:28:32			0	33932	0	0	0	16607	15220	155542	27628	953121	37828	106009	0	0	8171	765070	0	0
2024-04-25 13:29:32			0	33920	0	0	0	16610	15220	155406	27807	953086	37837	106010	0	0	8170	765670	0	0
2024-04-25 13:30:32			0	33907	0	0	0	16599	15220	155406	27500	953139	37837	106006	0	0	8169	766321	0	0
2024-04-25 13:31:32			0	33917	0	0	0	16610	15220	155406	27835	953113	37827	106010	0	0	8170	765820	0	0
2024-04-25 13:32:32			0	33917	0	0	0	16605	15220	155382	27445	953121	37828	106008	0	0	8170	765820	0	0
2024-04-25 13:33:32			0	33931	0	0	0	16607	15230	155410	27557	953050	37839	106009	0	0	8171	765079	0	0
2024-04-25 13:34:32			0	33914	0	0	0	16618	15230	155390	27809	953111	37840	106013	0	0	8169	765929	0	0
2024-04-25 13:35:32			0	33924	0	0	0	16615	15240	155486	27848	953171	37830	106012	0	0	8170	765388	0	0
2024-04-25 13:36:32			0	33913	0	0	0	16612	15240	155474	27526	953198	37840	106011	0	0	8169	765938	0	0
2024-04-25 13:37:32			0	33907	0	0	0	16610	15220	155466	27840	953042	37828	106010	0	0	8169	766321	0	0
2024-04-25 13:38:32			0	33890	0	0	0	16620	15230	155638	27602	953084	37840	106014	0	0	8168	767132	0	0
2024-04-25 13:39:32			0	33898	0	0	0	16618	15240	155478	27393	953145	37840	106013	0	0	8169	766690	0	0
2024-04-25 13:40:32			0	33897	0	0	0	16618	15230	155526	27377	953111	37819	106013	0	0	8168	766781	0	0
2024-04-25 13:41:32			0	33905	0	0	0	16631	15240	155518	27403	953224	37830	106018	0	0	8169	766339	0	0
2024-04-25 13:42:32			0	33904	0	0	0	16602	15230	155438	27661	953137	37851	106007	0	0	8169	766430	0	0
2024-04-25 13:43:32			0	33920	0	0	0	16615	15240	155454	27666	953180	37851	106012	0	0	8170	765588	0	0
2024-04-25 13:44:32			0	33915	0	0	0	16602	15240	155334	27829	953180	37830	106007	0	0	8170	765838	0	0
2024-04-25 13:45:32			0	33932	0	0	0	16610	15240	155370	27478	953101	37840	106010	0	0	8171	764988	0	0
2024-04-25 13:46:32			0	33936	0	0	0	16597	15240	155270	28003	953127	37830	106005	0	0	8171	764787	0	0
2024-04-25 13:47:32			0	33926	0	0	0	16610	15240	155334	27694	953127	37851	106010	0	0	8170	765288	0	0
2024-04-25 13:48:32			0	33922	0	0	0	16602	15240	155438	27779	953145	37840	106007	0	0	8170	765488	0	0
2024-04-25 13:49:32			0	33915	0	0	0	16597	15240	155506	27826	953127	37830	106005	0	0	8170	765838	0	0
2024-04-25 13:50:32			0	33913	0	0	0	16594	15230	155366	27869	953137	37840	106004	0	0	8170	765980	0	0
2024-04-25 13:51:32			0	33905	0	0	0	16597	15240	155422	28161	953127	37840	106005	0	0	8169	766339	0	0
2024-04-25 13:52:32			0	33889	0	0	0	16605	15240	155486	28050	953093	37830	106008	0	0	8168	767141	0	0
2024-04-25 13:53:32			0	33905	0	0	0	16615	15240	155434	27864	953153	37840	106012	0	0	8169	766339	0	0
2024-04-25 13:54:32			0	33905	0	0	0	16594	15240	155438	28136	953127	37830	106004	0	0	8169	766339	0	0
2024-04-25 13:55:32			0	33911	0	0	0	16605	15240	155450	27935	953232	37830	106008	0	0	8169	766039	0	0
2024-04-25 13:56:32			0	33905	0	0	0	16602	15240	155422	27391	953180	37840	106007	0	0	8169	766339	0	0
2024-04-25 13:57:32			0	33890	0	0	0	16599	15240	155310	27602	953180	37840	106006	0	0	8168	767091	0	0
2024-04-25 13:58:32			0	33900	0	0	0	16599	15240	155430	27772	953145	37830	106006	0	0	8169	766589	0	0
2024-04-25 13:59:32			0	33916	0	0	0	16597	15230	155434	27977	953084	37840	106005	0	0	8170	765829	0	0
2024-04-25 14:00:32			0	33906	0	0	0	16599	15230	155394	28183	953137	37840	106006	0	0	8169	766330	0	0
2024-04-25 14:01:32			0	33903	0	0	0	16586	15240	155478	27809	953224	37819	106001	0	0	8169	766439	0	0
2024-04-25 14:02:32			0	33918	0	0	0	16599	15230	155482	27670	953058	37830	106006	0	0	8170	765729	0	0
2024-04-25 14:03:32			0	33907	0	0	0	16594	15230	155430	27826	953137	37851	106004	0	0	8169	766280	0	0
2024-04-25 14:04:32			0	33901	0	0	0	16605	15240	155506	27476	953171	37830	106008	0	0	8169	766539	0	0
2024-04-25 14:05:32			0	33881	0	0	0	16605	15240	155546	27464	953180	37830	106008	0	0	8168	767542	0	0
2024-04-25 14:06:32			0	33897	0	0	0	16594	15230	155566	27535	953137	37830	106004	0	0	8169	766781	0	0
2024-04-25 14:07:32			0	33893	0	0	0	16594	15240	155514	27852	953145	37840	106004	0	0	8169	766940	0	0
2024-04-25 14:08:32			0	33888	0	0	0	16610	15240	155446	27336	953127	37840	106010	0	0	8168	767191	0	0
2024-04-25 14:09:32			0	33886	0	0	0	16610	15240	155526	27498	953119	37830	106010	0	0	8168	767291	0	0
2024-04-25 14:10:32			0	33896	0	0	0	16605	15240	155530	27772	953206	37840	106008	0	0	8169	766790	0	0
2024-04-25 14:11:32			0	33901	0	0	0	16594	15240	155446	27654	953153	37830	106004	0	0	8169	766539	0	0
2024-04-25 14:12:32			0	33890	0	0	0	16597	15240	155458	27350	953153	37840	106005	0	0	8168	767091	0	0
2024-04-25 14:13:32			0	33905	0	0	0	16599	15230	155422	27315	953190	37830	106006	0	0	8169	766380	0	0
2024-04-25 14:14:32			0	33882	0	0	0	16597	15240	155466	27741	953232	37830	106005	0	0	8168	767492	0	0
2024-04-25 14:15:32			0	33896	0	0	0	16605	15250	155594	27831	953188	37841	106008	0	0	8169	766749	0	0
2024-04-25 14:16:32			0	33882	0	0	0	16612	15240	155558	27597	953206	37830	106011	0	0	8168	767492	0	0
2024-04-25 14:17:32			0	33881	0	0	0	16618	15240	155486	27450	953127	37840	106013	0	0	8168	767542	0	0
2024-04-25 14:18:32			0	33883	0	0	0	16612	15250	155522	27706	953188	37841	106011	0	0	8168	767400	0	0
2024-04-25 14:19:32			0	33892	0	0	0	16618	15250	155534	27499	953188	37841	106013	0	0	8168	766949	0	0
2024-04-25 14:20:32			0	33887	0	0	0	16615	15240	155478	27776	953224	37840	106012	0	0	8168	767241	0	0
2024-04-25 14:21:32			0	33892	0	0	0	16623	15250	155498	27710	953319	37841	106015	0	0	8168	766949	0	0
2024-04-25 14:22:32			0	33908	0	0	0	16628	15250	155494	27545	953240	37852	106017	0	0	8169	766147	0	0
2024-04-25 14:23:32			0	33886	0	0	0	16636	15240	155390	27424	953232	37840	106020	0	0	8168	767291	0	0
2024-04-25 14:24:32			0	33917	0	0	0	16636	15250	155402	27346	953170	37832	106020	0	0	8169	765697	0	0
2024-04-25 14:25:32			0	33909	0	0	0	16633	15250	155430	27763	953275	37842	106019	0	0	8169	766097	0	0
2024-04-25 14:26:32			0	33926	0	0	0	16641	15250	155398	27815	953328	37832	106022	0	0	8170	765247	0	0
2024-04-25 14:27:32			0	33945	0	0	0	16644	15260	155302	27679	953310	37842	106023	0	0	8171	764255	0	0
2024-04-25 14:28:32			0	33959	0	0	0	16644	15270	155310	27658	953299	37832	106023	0	0	8172	763515	0	0
2024-04-25 14:29:32			0	33948	0	0	0	16638	15250	155226	27691	953249	37842	106021	0	0	8171	764146	0	0
2024-04-25 14:30:32			0	33972	0	0	0	16646	15260	155190	27559	953283	37832	106024	0	0	8172	762907	0	0
2024-04-25 14:31:32			0	33965	0	0	0	16646	15260	155106	27495	953265	37842	106024	0	0	8172	763256	0	0
2024-04-25 14:32:32			0	33978	0	0	0	16641	15270	155102	27848	953308	37854	106022	0	0	8173	762566	0	0
2024-04-25 14:33:32			0	33991	0	0	0	16646	15270	154966	27777	953308	37843	106024	0	0	8174	761918	0	0
2024-04-25 14:34:32			0	33985	0	0	0	16644	15260	154914	27961	953283	37842	106023	0	0	8173	762258	0	0
2024-04-25 14:35:32			0	33986	0	0	0	16654	15270	155014	27850	953334	37843	106027	0	0	8173	762167	0	0
2024-04-25 14:36:32			0	34005	0	0	0	16649	15270	154934	27566	953352	37854	106025	0	0	8174	761220	0	0
2024-04-25 14:37:32			0	34020	0	0	0	16651	15280	154998	27400	953271	37843	106026	0	0	8175	760432	0	0
2024-04-25 14:38:32			0	34001	0	0	0	16670	15280	154954	27431	953342	37843	106033	0	0	8174	761379	0	0
2024-04-25 14:39:32			0	34006	0	0	0	16688	15290	154902	27557	953385	37844	106040	0	0	8174	761088	0	0
2024-04-25 14:40:32			0	34016	0	0	0	16690	15280	154982	27921	953376	37843	106041	0	0	8174	760631	0	0
2024-04-25 14:41:32			0	34006	0	0	0	16675	15300	154866	27642	953393	37845	106035	0	0	8174	761048	0	0
2024-04-25 14:42:32			0	34032	0	0	0	16688	15300	154922	27842	953419	37845	106040	0	0	8175	759753	0	0
2024-04-25 14:43:32			0	34029	0	0	0	16672	15300	154770	27786	953453	37835	106034	0	0	8176	759903	0	0
2024-04-25 14:44:32			0	34034	0	0	0	16667	15300	154826	27663	953453	37846	106032	0	0	8176	759654	0	0
2024-04-25 14:45:32			0	34056	0	0	0	16672	15310	154726	27734	953462	37857	106034	0	0	8177	758519	0	0
2024-04-25 14:46:32			0	34053	0	0	0	16693	15310	154754	27556	953443	37835	106042	0	0	8177	758669	0	0
2024-04-25 14:47:32			0	34053	0	0	0	16693	15310	154722	27798	953470	37857	106042	0	0	8177	758669	0	0
2024-04-25 14:48:32			0	34035	0	0	0	16698	15320	154738	28025	953478	37847	106044	0	0	8176	759522	0	0
2024-04-25 14:49:32			0	34076	0	0	0	16703	15320	154766	27998	953478	37847	106046	0	0	8178	757486	0	0
2024-04-25 14:50:32			0	34059	0	0	0	16706	15330	154694	27786	953555	37847	106047	0	0	8177	758289	0	0
2024-04-25 14:51:32			0	34067	0	0	0	16719	15320	154826	27635	953557	37847	106052	0	0	8177	757932	0	0
2024-04-25 14:52:32			0	34067	0	0	0	16703	15330	154762	27540	953555	37847	106046	0	0	8177	757892	0	0
2024-04-25 14:53:32			0	34072	0	0	0	16706	15340	154654	27649	953589	37848	106047	0	0	8178	757603	0	0
2024-04-25 14:54:32			0	34089	0	0	0	16701	15330	154690	27270	953555	37847	106045	0	0	8179	756800	0	0
2024-04-25 14:55:32			0	34067	0	0	0	16703	15340	154634	27448	953624	37849	106046	0	0	8177	757851	0	0
2024-04-25 14:56:32			0	34072	0	0	0	16722	15340	154602	27471	953676	37860	106053	0	0	8177	757603	0	0
2024-04-25 14:57:32			0	34096	0	0	0	16714	15340	154526	27511	953650	37849	106050	0	0	8179	756412	0	0
2024-04-25 14:58:32			0	34104	0	0	0	16722	15350	154562	27369	953632	37849	106053	0	0	8179	755975	0	0
2024-04-25 14:59:32			0	34111	0	0	0	16709	15350	154442	27225	953614	37860	106048	0	0	8180	755628	0	0
2024-04-25 15:00:32			0	34102	0	0	0	16724	15360	154374	27189	953682	37851	106054	0	0	8179	756034	0	0
2024-04-25 15:01:32			0	34122	0	0	0	16711	15360	154506	27312	953630	37862	106049	0	0	8181	755043	0	0
2024-04-25 15:02:32			0	34107	0	0	0	16693	15350	154406	27189	953614	37860	106042	0	0	8180	755827	0	0
2024-04-25 15:03:32			0	34114	0	0	0	16677	15360	154526	27386	953648	37861	106036	0	0	8181	755439	0	0
2024-04-25 15:04:32			0	34087	0	0	0	16685	15370	154642	27725	953533	37851	106039	0	0	8179	756736	0	0
2024-04-25 15:05:32			0	34077	0	0	0	16693	15350	154562	27772	953587	37860	106042	0	0	8178	757314	0	0
2024-04-25 15:06:32			0	34064	0	0	0	16693	15360	154562	27575	953604	37840	106042	0	0	8177	757918	0	0
2024-04-25 15:07:32			0	34084	0	0	0	16698	15360	154642	27391	953604	37851	106044	0	0	8179	756926	0	0
2024-04-25 15:08:32			0	34053	0	0	0	16701	15350	154634	27424	953632	37860	106045	0	0	8177	758505	0	0
2024-04-25 15:09:32			0	34066	0	0	0	16709	15360	154594	27557	953622	37850	106048	0	0	8177	757819	0	0
2024-04-25 15:10:32			0	34063	0	0	0	16711	15350	154570	27329	953614	37849	106049	0	0	8177	758009	0	0
2024-04-25 15:11:32			0	34065	0	0	0	16732	15360	154590	27523	953630	37840	106057	0	0	8177	757869	0	0
2024-04-25 15:12:32			0	34079	0	0	0	16750	15360	154522	27261	953595	37850	106064	0	0	8177	757174	0	0
2024-04-25 15:13:32			0	34065	0	0	0	16755	15370	154610	27258	953770	37840	106066	0	0	8177	757828	0	0
2024-04-25 15:14:32			0	34065	0	0	0	16758	15370	154574	27665	953751	37863	106067	0	0	8176	757828	0	0
2024-04-25 15:15:32			0	34090	0	0	0	16768	15380	154530	27547	953681	37841	106071	0	0	8178	756547	0	0
2024-04-25 15:16:32			0	34114	0	0	0	16784	15380	154490	27235	953794	37864	106077	0	0	8179	755358	0	0
2024-04-25 15:17:32			0	34128	0	0	0	16787	15380	154382	27705	953821	37864	106078	0	0	8180	754665	0	0
2024-04-25 15:18:32			0	34137	0	0	0	16779	15400	154234	27343	953845	37864	106075	0	0	8180	754139	0	0
2024-04-25 15:19:32			0	34164	0	0	0	16792	15400	154142	27495	953819	37864	106080	0	0	8182	752804	0	0
2024-04-25 15:20:32			0	34168	0	0	0	16805	15410	154206	27533	953940	37866	106085	0	0	8182	752566	0	0
2024-04-25 15:21:32			0	34190	0	0	0	16818	15410	154054	27809	953948	37866	106090	0	0	8183	751481	0	0
2024-04-25 15:22:32			0	34203	0	0	0	16833	15420	153958	27694	953956	37866	106096	0	0	8183	750800	0	0
2024-04-25 15:23:32			0	34239	0	0	0	16836	15430	153838	27326	953999	37878	106097	0	0	8186	748987	0	0
2024-04-25 15:24:32			0	34286	0	0	0	16833	15420	153518	27826	954017	37877	106096	0	0	8188	746718	0	0
2024-04-25 15:25:32			0	34324	0	0	0	16857	15430	153422	27505	954007	37868	106105	0	0	8190	744816	0	0
2024-04-25 15:26:32			0	34330	0	0	0	16875	15440	153354	27760	954094	37869	106112	0	0	8190	744482	0	0
2024-04-25 15:27:32			0	34385	0	0	0	16883	15450	153115	27928	954119	37880	106115	0	0	8193	741753	0	0
2024-04-25 15:28:32			0	34416	0	0	0	16883	15460	152863	27535	954127	37880	106115	0	0	8195	740201	0	0
2024-04-25 15:29:32			0	34458	0	0	0	16890	15470	152803	27706	954169	37871	106118	0	0	8197	738117	0	0
2024-04-25 15:30:32			0	34489	0	0	0	16890	15470	152587	27550	954196	37881	106118	0	0	8199	736611	0	0
2024-04-25 15:31:32			0	34516	0	0	0	16896	15480	152495	27403	954212	37893	106120	0	0	8201	735261	0	0
2024-04-25 15:32:32			0	34539	0	0	0	16901	15480	152379	27677	954212	37872	106122	0	0	8202	734147	0	0
2024-04-25 15:33:32			0	34565	0	0	0	16896	15490	152171	27758	954228	37883	106120	0	0	8203	732849	0	0
2024-04-25 15:34:32			0	34587	0	0	0	16896	15490	152147	27457	954289	37874	106120	0	0	8205	731786	0	0
2024-04-25 15:35:32			0	34607	0	0	0	16885	15490	152035	27348	954184	37874	106116	0	0	8206	730821	0	0
2024-04-25 15:36:32			0	34602	0	0	0	16898	15500	152007	27601	954271	37884	106121	0	0	8206	731022	0	0
2024-04-25 15:37:32			0	34602	0	0	0	16919	15500	152011	27386	954358	37875	106129	0	0	8205	731022	0	0
2024-04-25 15:38:32			0	34608	0	0	0	16906	15510	151999	27239	954287	37885	106124	0	0	8206	730693	0	0
2024-04-25 15:39:32			0	34593	0	0	0	16893	15510	152055	27566	954340	37885	106119	0	0	8205	731418	0	0
2024-04-25 15:40:32			0	34545	0	0	0	16883	15510	152263	27751	954295	37875	106115	0	0	8203	733738	0	0
2024-04-25 15:41:32			0	34498	0	0	0	16893	15510	152579	27815	954287	37875	106119	0	0	8200	736016	0	0
2024-04-25 15:42:32			0	34410	0	0	0	16883	15510	152755	27581	954287	37896	106115	0	0	8195	740295	0	0
2024-04-25 15:43:32			0	34358	0	0	0	16903	15510	153151	27317	954287	37863	106123	0	0	8192	742832	0	0
2024-04-25 15:44:32			0	34303	0	0	0	16880	15510	153302	27542	954287	37875	106114	0	0	8189	745523	0	0
2024-04-25 15:45:32			0	34293	0	0	0	16872	15520	153462	27488	954330	37853	106111	0	0	8188	745974	0	0
2024-04-25 15:46:32			0	34280	0	0	0	16890	15510	153422	27680	954269	37875	106118	0	0	8187	746651	0	0
2024-04-25 15:47:32			0	34249	0	0	0	16877	15520	153590	27538	954304	37875	106113	0	0	8186	748133	0	0
2024-04-25 15:48:32			0	34233	0	0	0	16883	15500	153674	27473	954174	37875	106115	0	0	8185	749000	0	0
2024-04-25 15:49:32			0	34227	0	0	0	16877	15510	153794	27319	954243	37885	106113	0	0	8184	749255	0	0
2024-04-25 15:50:32			0	34219	0	0	0	16890	15520	153790	27760	954251	37885	106118	0	0	8184	749608	0	0
2024-04-25 15:51:32			0	34227	0	0	0	16885	15510	153802	27497	954235	37885	106116	0	0	8184	749255	0	0
2024-04-25 15:52:32			0	34229	0	0	0	16872	15520	153638	27479	954312	37875	106111	0	0	8185	749116	0	0
2024-04-25 15:53:32			0	34244	0	0	0	16875	15510	153662	27507	954269	37875	106112	0	0	8186	748419	0	0
2024-04-25 15:54:32			0	34242	0	0	0	16867	15510	153666	27307	954261	37885	106109	0	0	8186	748517	0	0
2024-04-25 15:55:32			0	34244	0	0	0	16870	15520	153650	27324	954277	37885	106110	0	0	8186	748379	0	0
2024-04-25 15:56:32			0	34232	0	0	0	16880	15520	153662	27550	954225	37875	106114	0	0	8185	748969	0	0
2024-04-25 15:57:32			0	34253	0	0	0	16883	15510	153682	27443	954314	37885	106115	0	0	8186	747977	0	0
2024-04-25 15:58:32			0	34254	0	0	0	16893	15520	153482	27227	954277	37875	106119	0	0	8186	747887	0	0
2024-04-25 15:59:32			0	34296	0	0	0	16877	15510	153622	27334	954322	37875	106113	0	0	8188	745867	0	0
2024-04-25 16:00:32			0	34271	0	0	0	16870	15510	153406	27639	954269	37885	106110	0	0	8187	747093	0	0
2024-04-25 16:01:32			0	34252	0	0	0	16870	15520	153542	27594	954304	37875	106110	0	0	8186	747986	0	0
2024-04-25 16:02:32			0	34265	0	0	0	16854	15520	153478	27795	954304	37875	106104	0	0	8187	747347	0	0
2024-04-25 16:03:32			0	34227	0	0	0	16849	15510	153714	27770	954243	37864	106102	0	0	8185	749255	0	0
2024-04-25 16:04:32			0	34204	0	0	0	16859	15510	153754	27604	954235	37885	106106	0	0	8183	750387	0	0
2024-04-25 16:05:32			0	34175	0	0	0	16867	15510	153870	27781	954287	37875	106109	0	0	8182	751816	0	0
2024-04-25 16:06:32			0	34160	0	0	0	16875	15520	154122	27734	954259	37886	106112	0	0	8181	752516	0	0
2024-04-25 16:07:32			0	34140	0	0	0	16851	15510	154178	27708	954269	37875	106103	0	0	8180	753544	0	0
2024-04-25 16:08:32			0	34113	0	0	0	16851	15510	154282	27531	954269	37885	106103	0	0	8178	754880	0	0
2024-04-25 16:09:32			0	34098	0	0	0	16857	15510	154306	27479	954314	37863	106105	0	0	8177	755622	0	0
2024-04-25 16:10:32			0	34088	0	0	0	16859	15500	154334	27720	954253	37885	106106	0	0	8177	756158	0	0
2024-04-25 16:11:32			0	34082	0	0	0	16854	15500	154194	27724	954226	37885	106104	0	0	8176	756455	0	0
2024-04-25 16:12:32			0	34090	0	0	0	16851	15500	154350	27549	954253	37875	106103	0	0	8177	756059	0	0
2024-04-25 16:13:32			0	34109	0	0	0	16859	15500	154290	27403	954244	37874	106106	0	0	8178	755118	0	0
2024-04-25 16:14:32			0	34099	0	0	0	16862	15500	154370	27899	954218	37884	106107	0	0	8177	755613	0	0
2024-04-25 16:15:32			0	34110	0	0	0	16854	15500	154378	27718	954253	37885	106104	0	0	8178	755069	0	0
2024-04-25 16:16:32			0	34097	0	0	0	16875	15500	154314	27826	954226	37875	106112	0	0	8177	755712	0	0
2024-04-25 16:17:32			0	34091	0	0	0	16877	15500	154326	27526	954192	37884	106113	0	0	8177	756009	0	0
2024-04-25 16:18:32			0	34114	0	0	0	16864	15500	154270	27701	954244	37884	106108	0	0	8178	754871	0	0
2024-04-25 16:19:32			0	34122	0	0	0	16864	15510	154318	27894	954235	37875	106108	0	0	8179	754434	0	0
2024-04-25 16:20:32			0	34123	0	0	0	16854	15510	154302	27639	954287	37875	106104	0	0	8179	754385	0	0
2024-04-25 16:21:32			0	34102	0	0	0	16854	15510	154362	27715	954261	37875	106104	0	0	8178	755424	0	0
2024-04-25 16:22:32			0	34122	0	0	0	16859	15500	154314	27737	954218	37874	106106	0	0	8179	754475	0	0
2024-04-25 16:23:32			0	34116	0	0	0	16854	15500	154226	27542	954200	37875	106104	0	0	8178	754772	0	0
2024-04-25 16:24:32			0	34132	0	0	0	16841	15500	154250	27469	954253	37896	106099	0	0	8180	753980	0	0
2024-04-25 16:25:32			0	34123	0	0	0	16836	15500	154218	27528	954192	37884	106097	0	0	8179	754425	0	0
2024-04-25 16:26:32			0	34129	0	0	0	16831	15500	154254	27679	954139	37863	106095	0	0	8180	754129	0	0
2024-04-25 16:27:32			0	34131	0	0	0	16846	15500	154222	27829	954218	37884	106101	0	0	8179	754030	0	0
2024-04-25 16:28:32			0	34129	0	0	0	16846	15500	154194	27523	954165	37874	106101	0	0	8179	754129	0	0
2024-04-25 16:29:32			0	34139	0	0	0	16833	15490	154210	27587	954157	37874	106096	0	0	8180	753675	0	0
2024-04-25 16:30:32			0	34149	0	0	0	16825	15500	154086	27540	954192	37895	106093	0	0	8181	753140	0	0
2024-04-25 16:31:32			0	34145	0	0	0	16831	15500	154130	27547	954192	37884	106095	0	0	8180	753338	0	0
2024-04-25 16:32:32			0	34130	0	0	0	16831	15490	154154	27535	954202	37873	106095	0	0	8180	754120	0	0
2024-04-25 16:33:32			0	34161	0	0	0	16833	15480	154090	27549	954159	37861	106096	0	0	8181	752629	0	0
2024-04-25 16:34:32			0	34147	0	0	0	16828	15480	153986	27479	954141	37872	106094	0	0	8181	753320	0	0
2024-04-25 16:35:32			0	34150	0	0	0	16833	15480	154110	27559	954141	37893	106096	0	0	8181	753172	0	0
2024-04-25 16:36:32			0	34166	0	0	0	16831	15470	154090	27438	954151	37860	106095	0	0	8182	752422	0	0
2024-04-25 16:37:32			0	34157	0	0	0	16823	15480	153982	27445	954186	37872	106092	0	0	8181	752826	0	0
2024-04-25 16:38:32			0	34155	0	0	0	16812	15480	154010	27157	954080	37872	106088	0	0	8181	752925	0	0
2024-04-25 16:39:32			0	34151	0	0	0	16812	15480	153998	27478	954088	37882	106088	0	0	8181	753122	0	0
2024-04-25 16:40:32			0	34169	0	0	0	16802	15470	153974	27407	954143	37892	106084	0	0	8182	752274	0	0
2024-04-25 16:41:32			0	34169	0	0	0	16820	15480	153966	27445	954133	37893	106091	0	0	8182	752234	0	0
2024-04-25 16:42:32			0	34163	0	0	0	16828	15470	154078	27549	954143	37881	106094	0	0	8181	752571	0	0
2024-04-25 16:43:32			0	34183	0	0	0	16820	15480	153958	27859	954133	37872	106091	0	0	8183	751543	0	0
2024-04-25 16:44:32			0	34201	0	0	0	16799	15480	154030	27939	954133	37872	106083	0	0	8184	750656	0	0
2024-04-25 16:45:32			0	34183	0	0	0	16797	15470	154038	27524	954064	37881	106082	0	0	8183	751584	0	0
2024-04-25 16:46:32			0	34169	0	0	0	16802	15470	154158	27784	954098	37881	106084	0	0	8182	752274	0	0
2024-04-25 16:47:32			0	34145	0	0	0	16805	15480	154142	28043	954054	37893	106085	0	0	8181	753419	0	0
2024-04-25 16:48:32			0	34163	0	0	0	16818	15470	154110	27987	954098	37881	106090	0	0	8182	752571	0	0
2024-04-25 16:49:32			0	34143	0	0	0	16805	15460	154150	28324	954135	37880	106085	0	0	8181	753599	0	0
2024-04-25 16:50:32			0	34169	0	0	0	16812	15470	154142	28077	954151	37881	106088	0	0	8182	752274	0	0
2024-04-25 16:51:32			0	34132	0	0	0	16831	15470	154170	28358	954151	37871	106095	0	0	8180	754102	0	0
2024-04-25 16:52:32			0	34133	0	0	0	16851	15490	154190	27944	954202	37873	106103	0	0	8179	753971	0	0
2024-04-25 16:53:32			0	34131	0	0	0	16877	15480	154282	27985	954238	37882	106113	0	0	8179	754111	0	0
2024-04-25 16:54:32			0	34139	0	0	0	16864	15490	154206	27918	954228	37883	106108	0	0	8180	753675	0	0
2024-04-25 16:55:32			0	34129	0	0	0	16867	15500	154234	27630	954253	37885	106109	0	0	8179	754129	0	0
2024-04-25 16:56:32			0	34139	0	0	0	16864	15490	154202	27779	954289	37874	106108	0	0	8180	753675	0	0
2024-04-25 16:57:32			0	34131	0	0	0	16859	15500	154238	27691	954271	37874	106106	0	0	8179	754030	0	0
2024-04-25 16:58:32			0	34117	0	0	0	16844	15510	154262	27665	954235	37875	106100	0	0	8179	754681	0	0
2024-04-25 16:59:32			0	34125	0	0	0	16854	15500	154302	27855	954358	37875	106104	0	0	8179	754326	0	0
2024-04-25 17:00:32			0	34095	0	0	0	16872	15500	154358	28261	954297	37874	106111	0	0	8177	755811	0	0
2024-04-25 17:01:32			0	34097	0	0	0	16880	15510	154386	28166	954340	37885	106114	0	0	8177	755671	0	0
2024-04-25 17:02:32			0	34080	0	0	0	16888	15520	154434	27812	954330	37875	106117	0	0	8176	756473	0	0
2024-04-25 17:03:32			0	34101	0	0	0	16893	15520	154306	28216	954409	37875	106119	0	0	8177	755433	0	0
2024-04-25 17:04:32			0	34096	0	0	0	16885	15520	154314	28057	954330	37885	106116	0	0	8177	755680	0	0
2024-04-25 17:05:32			0	34127	0	0	0	16880	15530	154282	28055	954399	37886	106114	0	0	8179	754106	0	0
2024-04-25 17:06:32			0	34119	0	0	0	16867	15520	154442	28336	954391	37886	106109	0	0	8178	754542	0	0
2024-04-25 17:07:32			0	34114	0	0	0	16849	15520	154382	28069	954338	37886	106102	0	0	8178	754790	0	0
2024-04-25 17:08:32			0	34103	0	0	0	16846	15540	154342	28230	954336	37876	106101	0	0	8178	755252	0	0
2024-04-25 17:09:32			0	34085	0	0	0	16846	15520	154414	28197	954285	37886	106101	0	0	8177	756225	0	0
2024-04-25 17:10:32			0	34074	0	0	0	16859	15530	154450	27888	954346	37897	106106	0	0	8176	756730	0	0
2024-04-25 17:11:32			0	34063	0	0	0	16867	15520	154402	27873	954338	37875	106109	0	0	8175	757316	0	0
2024-04-25 17:12:32			0	34071	0	0	0	16870	15520	154374	28449	954285	37875	106110	0	0	8176	756919	0	0
2024-04-25 17:13:32			0	34081	0	0	0	16864	15510	154442	28010	954374	37875	106108	0	0	8176	756464	0	0
2024-04-25 17:14:32			0	34095	0	0	0	16867	15510	154374	28275	954243	37864	106109	0	0	8177	755770	0	0
2024-04-25 17:15:32			0	34098	0	0	0	16864	15520	154378	28317	954277	37875	106108	0	0	8177	755581	0	0
2024-04-25 17:16:32			0	34105	0	0	0	16857	15520	154266	28003	954251	37864	106105	0	0	8178	755235	0	0
2024-04-25 17:17:32			0	34109	0	0	0	16844	15510	154350	27947	954269	37885	106100	0	0	8178	755077	0	0
2024-04-25 17:18:32			0	34087	0	0	0	16854	15520	154322	27656	954312	37875	106104	0	0	8177	756126	0	0
2024-04-25 17:19:32			0	34092	0	0	0	16851	15510	154466	27791	954269	37897	106103	0	0	8177	755919	0	0
2024-04-25 17:20:32			0	34043	0	0	0	16844	15500	154538	27852	954279	37863	106100	0	0	8174	758390	0	0
2024-04-25 17:21:32			0	34039	0	0	0	16857	15510	154614	27763	954216	37885	106105	0	0	8174	758548	0	0
2024-04-25 17:22:32			0	34015	0	0	0	16859	15510	154662	27774	954235	37875	106106	0	0	8173	759741	0	0
2024-04-25 17:23:32			0	33992	0	0	0	16867	15510	154802	27592	954261	37885	106109	0	0	8171	760886	0	0
2024-04-25 17:24:32			0	34002	0	0	0	16864	15510	154762	27876	954261	37875	106108	0	0	8172	760388	0	0
2024-04-25 17:25:32			0	33989	0	0	0	16864	15510	154886	27835	954261	37896	106108	0	0	8171	761035	0	0
2024-04-25 17:26:32			0	34010	0	0	0	16877	15510	154846	27608	954322	37885	106113	0	0	8172	759990	0	0
2024-04-25 17:27:32			0	33994	0	0	0	16893	15510	154762	27881	954401	37885	106119	0	0	8171	760786	0	0
2024-04-25 17:28:32			0	34014	0	0	0	16911	15520	154758	27892	954383	37897	106126	0	0	8172	759750	0	0
2024-04-25 17:29:32			0	34008	0	0	0	16922	15520	154678	27947	954470	37886	106130	0	0	8171	760048	0	0
2024-04-25 17:30:32			0	34051	0	0	0	16942	15540	154490	27711	954520	37887	106138	0	0	8173	757830	0	0
2024-04-25 17:31:32			0	34061	0	0	0	16903	15550	154502	27838	954510	37888	106123	0	0	8175	757293	0	0
2024-04-25 17:32:32			0	34075	0	0	0	16870	15550	154466	27620	954510	37888	106110	0	0	8176	756599	0	0
2024-04-25 17:33:32			0	34102	0	0	0	16831	15550	154178	27991	954439	37878	106095	0	0	8178	755261	0	0
2024-04-25 17:34:32			0	34117	0	0	0	16815	15540	154130	27897	954362	37876	106089	0	0	8179	754560	0	0
2024-04-25 17:35:32			0	34118	0	0	0	16820	15530	154182	27926	954346	37886	106091	0	0	8179	754551	0	0
2024-04-25 17:36:32			0	34115	0	0	0	16818	15540	154038	27881	954318	37877	106090	0	0	8179	754659	0	0
2024-04-25 17:37:32			0	34110	0	0	0	16810	15540	154194	27963	954336	37866	106087	0	0	8179	754906	0	0
2024-04-25 17:38:32			0	34103	0	0	0	16797	15520	154302	27842	954285	37865	106082	0	0	8179	755334	0	0
2024-04-25 17:39:32			0	34103	0	0	0	16805	15510	154254	27708	954190	37864	106085	0	0	8179	755374	0	0
2024-04-25 17:40:32			0	34086	0	0	0	16810	15520	154346	27847	954251	37875	106087	0	0	8178	756176	0	0
2024-04-25 17:41:32			0	34099	0	0	0	16805	15510	154354	28263	954208	37875	106085	0	0	8178	755573	0	0
2024-04-25 17:42:32			0	34101	0	0	0	16812	15500	154394	27989	954200	37863	106088	0	0	8178	755514	0	0
2024-04-25 17:43:32			0	34097	0	0	0	16815	15500	154334	27601	954244	37863	106089	0	0	8178	755712	0	0
2024-04-25 17:44:32			0	34098	0	0	0	16812	15500	154386	27677	954218	37863	106088	0	0	8178	755663	0	0
2024-04-25 17:45:32			0	34111	0	0	0	16810	15500	154314	27895	954218	37874	106087	0	0	8179	755019	0	0
2024-04-25 17:46:32			0	34115	0	0	0	16802	15490	154230	28076	954228	37873	106084	0	0	8179	754862	0	0
2024-04-25 17:47:32			0	34132	0	0	0	16812	15500	154214	27769	954192	37874	106088	0	0	8180	753980	0	0
2024-04-25 17:48:32			0	34118	0	0	0	16820	15500	154214	27982	954165	37863	106091	0	0	8179	754673	0	0
2024-04-25 17:49:32			0	34122	0	0	0	16823	15490	154338	28195	954236	37863	106092	0	0	8179	754515	0	0
2024-04-25 17:50:32			0	34126	0	0	0	16823	15490	154282	28218	954228	37862	106092	0	0	8179	754318	0	0
2024-04-25 17:51:32			0	34144	0	0	0	16820	15500	154294	27876	954253	37863	106091	0	0	8181	753387	0	0
2024-04-25 17:52:32			0	34133	0	0	0	16812	15500	154234	27757	954218	37874	106088	0	0	8180	753931	0	0
2024-04-25 17:53:32			0	34123	0	0	0	16820	15490	154126	27656	954263	37874	106091	0	0	8179	754466	0	0
2024-04-25 17:54:32			0	34148	0	0	0	16818	15500	154158	27776	954165	37884	106090	0	0	8181	753190	0	0
2024-04-25 17:55:32			0	34116	0	0	0	16823	15480	154210	27998	954194	37861	106092	0	0	8179	754853	0	0
2024-04-25 17:56:32			0	34126	0	0	0	16825	15480	154154	27699	954159	37872	106093	0	0	8179	754358	0	0
2024-04-25 17:57:32			0	34115	0	0	0	16820	15500	154266	28088	954244	37874	106091	0	0	8179	754821	0	0
2024-04-25 17:58:32			0	34113	0	0	0	16815	15500	154142	27843	954192	37874	106089	0	0	8179	754920	0	0
2024-04-25 17:59:32			0	34120	0	0	0	16807	15490	154342	27892	954202	37873	106086	0	0	8179	754614	0	0
2024-04-25 18:00:32			0	34134	0	0	0	16802	15490	154354	27911	954175	37862	106084	0	0	8180	753922	0	0
2024-04-25 18:01:32			0	34114	0	0	0	16792	15480	154250	28310	954194	37861	106080	0	0	8179	754952	0	0
2024-04-25 18:02:32			0	34100	0	0	0	16787	15480	154298	28074	954115	37872	106078	0	0	8179	755645	0	0
2024-04-25 18:03:32			0	34085	0	0	0	16784	15480	154430	27923	954141	37872	106077	0	0	8178	756388	0	0
2024-04-25 18:04:32			0	34094	0	0	0	16779	15470	154410	28577	954098	37860	106075	0	0	8178	755983	0	0
2024-04-25 18:05:32			0	34071	0	0	0	16776	15480	154430	27920	954159	37872	106074	0	0	8177	757082	0	0
2024-04-25 18:06:32			0	34067	0	0	0	16787	15460	154474	27895	954030	37848	106078	0	0	8177	757362	0	0
2024-04-25 18:07:32			0	34062	0	0	0	16794	15460	154454	28024	954074	37870	106081	0	0	8176	757610	0	0
2024-04-25 18:08:32			0	34054	0	0	0	16815	15470	154398	27760	954117	37860	106089	0	0	8175	757966	0	0
2024-04-25 18:09:32			0	34056	0	0	0	16810	15460	154554	27906	954127	37870	106087	0	0	8176	757908	0	0
2024-04-25 18:10:32			0	34070	0	0	0	16810	15460	154594	28213	954082	37870	106087	0	0	8176	757213	0	0
2024-04-25 18:11:32			0	34067	0	0	0	16807	15470	154490	27734	954090	37881	106086	0	0	8176	757321	0	0
2024-04-25 18:12:32			0	34080	0	0	0	16810	15460	154506	27796	954082	37870	106087	0	0	8177	756717	0	0
2024-04-25 18:13:32			0	34088	0	0	0	16820	15460	154454	27675	954100	37870	106091	0	0	8177	756321	0	0
2024-04-25 18:14:32			0	34089	0	0	0	16870	15460	154514	28129	954100	37880	106110	0	0	8176	756271	0	0
2024-04-25 18:15:32			0	34098	0	0	0	16838	15460	154402	27812	954056	37880	106098	0	0	8177	755825	0	0
2024-04-25 18:16:32			0	34119	0	0	0	16787	15450	154386	27913	954145	37870	106078	0	0	8180	754826	0	0
2024-04-25 18:17:32			0	34112	0	0	0	16784	15450	154298	27731	954092	37891	106077	0	0	8179	755173	0	0
2024-04-25 18:18:32			0	34115	0	0	0	16789	15460	154258	27703	954100	37870	106079	0	0	8179	754984	0	0
2024-04-25 18:19:32			0	34113	0	0	0	16789	15460	154218	27906	954056	37880	106079	0	0	8179	755083	0	0
2024-04-25 18:20:32			0	34096	0	0	0	16779	15460	154282	27817	954135	37880	106075	0	0	8178	755924	0	0
2024-04-25 18:21:32			0	34105	0	0	0	16781	15460	154290	27741	954056	37870	106076	0	0	8179	755479	0	0
2024-04-25 18:22:32			0	34089	0	0	0	16797	15460	154418	27556	954074	37859	106082	0	0	8178	756271	0	0
2024-04-25 18:23:32			0	34081	0	0	0	16797	15450	154446	27947	954119	37858	106082	0	0	8177	756708	0	0
2024-04-25 18:24:32			0	34095	0	0	0	16812	15460	154378	27777	954161	37903	106088	0	0	8178	755974	0	0
2024-04-25 18:25:32			0	34078	0	0	0	16877	15470	154458	27789	954256	37871	106113	0	0	8176	756776	0	0
2024-04-25 18:26:32			0	34058	0	0	0	16888	15480	154470	27803	954343	37882	106117	0	0	8174	757727	0	0
2024-04-25 18:27:32			0	34056	0	0	0	16872	15500	154542	27755	954350	37895	106111	0	0	8175	757745	0	0
2024-04-25 18:28:32			0	34047	0	0	0	16880	15500	154618	27923	954376	37895	106114	0	0	8174	758192	0	0
2024-04-25 18:29:32			0	34056	0	0	0	16880	15510	154570	27847	954419	37896	106114	0	0	8175	757704	0	0
2024-04-25 18:30:32			0	34047	0	0	0	16890	15510	154590	27954	954471	37875	106118	0	0	8174	758151	0	0
2024-04-25 18:31:32			0	34029	0	0	0	16916	15520	154582	27705	954470	37897	106128	0	0	8172	759004	0	0
2024-04-25 18:32:32			0	34043	0	0	0	16948	15530	154546	27779	954538	37887	106140	0	0	8173	758268	0	0
2024-04-25 18:33:32			0	34026	0	0	0	16966	15530	154722	27966	954530	37897	106147	0	0	8171	759112	0	0
2024-04-25 18:34:32			0	34027	0	0	0	16971	15550	154602	27734	954537	37877	106149	0	0	8172	758981	0	0
2024-04-25 18:35:32			0	34027	0	0	0	16971	15550	154686	27634	954563	37899	106149	0	0	8172	758981	0	0
2024-04-25 18:36:32			0	34022	0	0	0	16958	15560	154626	27914	954553	37889	106144	0	0	8171	759189	0	0
2024-04-25 18:37:32			0	34014	0	0	0	16955	15560	154702	27706	954605	37889	106143	0	0	8171	759586	0	0
2024-04-25 18:38:32			0	33989	0	0	0	16955	15560	154754	27582	954614	37890	106143	0	0	8170	760830	0	0
2024-04-25 18:39:32			0	33975	0	0	0	16953	15560	154898	27656	954614	37912	106142	0	0	8169	761528	0	0
2024-04-25 18:40:32			0	33941	0	0	0	16955	15570	154914	27873	954595	37902	106143	0	0	8167	763182	0	0
2024-04-25 18:41:32			0	33917	0	0	0	16919	15580	155082	27580	954672	37902	106129	0	0	8166	764339	0	0
2024-04-25 18:42:32			0	33914	0	0	0	16911	15580	155130	27530	954672	37902	106126	0	0	8166	764489	0	0
2024-04-25 18:43:32			0	33908	0	0	0	16911	15590	155142	27364	954654	37892	106126	0	0	8166	764748	0	0
2024-04-25 18:44:32			0	33921	0	0	0	16906	15580	155018	27899	954691	37913	106124	0	0	8167	764139	0	0
2024-04-25 18:45:32			0	33947	0	0	0	16922	15600	155014	27786	954636	37903	106130	0	0	8168	762759	0	0
2024-04-25 18:46:32			0	33955	0	0	0	16942	15600	154838	27939	954689	37903	106138	0	0	8168	762360	0	0
2024-04-25 18:47:32			0	33970	0	0	0	16935	15600	154826	27623	954671	37904	106135	0	0	8169	761613	0	0
2024-04-25 18:48:32			0	33962	0	0	0	16914	15600	154962	27376	954636	37903	106127	0	0	8169	762011	0	0
2024-04-25 18:49:32			0	33985	0	0	0	16940	15590	154850	27386	954681	37903	106137	0	0	8170	760906	0	0
2024-04-25 18:50:32			0	33971	0	0	0	16929	15590	154734	27909	954628	37892	106133	0	0	8169	761604	0	0
2024-04-25 18:51:32			0	33980	0	0	0	16929	15590	154786	27883	954654	37892	106133	0	0	8170	761156	0	0
2024-04-25 18:52:32			0	33979	0	0	0	16924	15600	154718	27668	954689	37914	106131	0	0	8170	761164	0	0
2024-04-25 18:53:32			0	33983	0	0	0	16927	15600	154690	27793	954689	37903	106132	0	0	8170	760965	0	0
2024-04-25 18:54:32			0	34020	0	0	0	16937	15600	154522	27526	954697	37904	106136	0	0	8172	759125	0	0
2024-04-25 18:55:32			0	34028	0	0	0	16932	15590	154494	27623	954628	37881	106134	0	0	8172	758768	0	0
2024-04-25 18:56:32			0	34033	0	0	0	16919	15600	154638	27507	954645	37904	106129	0	0	8173	758479	0	0
2024-04-25 18:57:32			0	34019	0	0	0	16932	15590	154582	27909	954628	37903	106134	0	0	8172	759215	0	0
2024-04-25 18:58:32			0	34031	0	0	0	16932	15580	154542	27705	954620	37880	106134	0	0	8173	758660	0	0
2024-04-25 18:59:32			0	34042	0	0	0	16932	15600	154498	27672	954663	37903	106134	0	0	8173	758032	0	0
2024-04-25 19:00:32			0	34057	0	0	0	16927	15600	154378	27788	954610	37892	106132	0	0	8174	757288	0	0
2024-04-25 19:01:32			0	34072	0	0	0	16935	15580	154302	27807	954646	37891	106135	0	0	8175	756625	0	0
2024-04-25 19:02:32			0	34097	0	0	0	16940	15580	154278	27895	954593	37891	106137	0	0	8176	755387	0	0
2024-04-25 19:03:32			0	34096	0	0	0	16927	15600	154210	27618	954636	37892	106132	0	0	8177	755355	0	0
2024-04-25 19:04:32			0	34115	0	0	0	16937	15590	154078	27448	954654	37914	106136	0	0	8177	754456	0	0
2024-04-25 19:05:32			0	34100	0	0	0	16916	15600	154150	27497	954697	37893	106128	0	0	8177	755157	0	0
2024-04-25 19:06:32			0	34094	0	0	0	16922	15590	154158	27436	954549	37903	106130	0	0	8176	755495	0	0
2024-04-25 19:07:32			0	34098	0	0	0	16909	15580	154186	27701	954620	37902	106125	0	0	8177	755337	0	0
2024-04-25 19:08:32			0	34101	0	0	0	16909	15580	154146	27711	954593	37891	106125	0	0	8177	755189	0	0
2024-04-25 19:09:32			0	34107	0	0	0	16898	15570	154202	27447	954569	37879	106121	0	0	8177	754933	0	0
2024-04-25 19:10:32			0	34108	0	0	0	16896	15580	154138	27403	954567	37902	106120	0	0	8178	754842	0	0
2024-04-25 19:11:32			0	34123	0	0	0	16896	15580	154026	27381	954585	37891	106120	0	0	8179	754101	0	0
2024-04-25 19:12:32			0	34143	0	0	0	16898	15570	153986	27739	954577	37891	106121	0	0	8180	753153	0	0
2024-04-25 19:13:32			0	34188	0	0	0	16870	15560	153830	27296	954535	37890	106110	0	0	8183	750973	0	0
2024-04-25 19:14:32			0	34230	0	0	0	16875	15570	153642	27672	954569	37891	106112	0	0	8185	748866	0	0
2024-04-25 19:15:32			0	34265	0	0	0	16867	15580	153426	27710	954533	37913	106109	0	0	8187	747106	0	0
2024-04-25 19:16:32			0	34279	0	0	0	16877	15560	153314	27613	954500	37878	106113	0	0	8188	746499	0	0
2024-04-25 19:17:32			0	34322	0	0	0	16870	15550	153298	27410	954492	37889	106110	0	0	8190	744433	0	0
2024-04-25 19:18:32			0	34310	0	0	0	16888	15550	153314	27445	954492	37889	106117	0	0	8189	745020	0	0
2024-04-25 19:19:32			0	34307	0	0	0	16893	15550	153274	27438	954413	37900	106119	0	0	8189	745167	0	0
2024-04-25 19:20:32			0	34315	0	0	0	16893	15550	153322	27618	954466	37878	106119	0	0	8189	744776	0	0
2024-04-25 19:21:32			0	34306	0	0	0	16896	15550	153330	27365	954545	37889	106120	0	0	8189	745216	0	0
2024-04-25 19:22:32			0	34286	0	0	0	16932	15540	153454	27324	954555	37899	106134	0	0	8187	746237	0	0
2024-04-25 19:23:32			0	34291	0	0	0	16924	15550	153254	27260	954571	37889	106131	0	0	8188	745951	0	0
2024-04-25 19:24:32			0	34303	0	0	0	16916	15560	153274	27443	954553	37889	106128	0	0	8188	745323	0	0
2024-04-25 19:25:32			0	34310	0	0	0	16898	15560	153198	27393	954526	37889	106121	0	0	8189	744980	0	0
2024-04-25 19:26:32			0	34315	0	0	0	16893	15560	153134	27388	954482	37912	106119	0	0	8190	744735	0	0
2024-04-25 19:27:32			0	34311	0	0	0	16911	15560	153222	27653	954500	37889	106126	0	0	8189	744931	0	0
2024-04-25 19:28:32			0	34312	0	0	0	16898	15550	153318	27447	954510	37888	106121	0	0	8189	744922	0	0
2024-04-25 19:29:32			0	34307	0	0	0	16890	15550	153242	27687	954537	37877	106118	0	0	8189	745167	0	0
2024-04-25 19:30:32			0	34324	0	0	0	16888	15550	153174	27429	954510	37888	106117	0	0	8190	744335	0	0
2024-04-25 19:31:32			0	34307	0	0	0	16872	15550	153222	27286	954492	37900	106111	0	0	8189	745167	0	0
2024-04-25 19:32:32			0	34312	0	0	0	16864	15540	153218	27248	954476	37899	106108	0	0	8190	744962	0	0
2024-04-25 19:33:32			0	34300	0	0	0	16880	15540	153238	27277	954449	37899	106114	0	0	8189	745550	0	0
2024-04-25 19:34:32			0	34284	0	0	0	16880	15540	153310	27500	954502	37899	106114	0	0	8188	746335	0	0
2024-04-25 19:35:32			0	34292	0	0	0	16880	15550	153314	27443	954484	37888	106114	0	0	8188	745902	0	0
2024-04-25 19:36:32			0	34288	0	0	0	16898	15540	153470	27431	954449	37877	106121	0	0	8188	746139	0	0
2024-04-25 19:37:32			0	34281	0	0	0	16872	15530	153374	27656	954433	37887	106111	0	0	8188	746522	0	0
2024-04-25 19:38:32			0	34291	0	0	0	16864	15530	153246	27426	954399	37875	106108	0	0	8188	746031	0	0
2024-04-25 19:39:32			0	34300	0	0	0	16849	15530	153310	27602	954372	37886	106102	0	0	8189	745590	0	0
2024-04-25 19:40:32			0	34314	0	0	0	16828	15510	153210	27698	954322	37885	106094	0	0	8190	744985	0	0
2024-04-25 19:41:32			0	34337	0	0	0	16812	15510	153126	27597	954269	37875	106088	0	0	8192	743859	0	0
2024-04-25 19:42:32			0	34339	0	0	0	16807	15510	153122	27317	954243	37875	106086	0	0	8192	743761	0	0
2024-04-25 19:43:32			0	34348	0	0	0	16794	15500	153179	27371	954253	37863	106081	0	0	8193	743361	0	0
2024-04-25 19:44:32			0	34343	0	0	0	16784	15500	153115	27448	954244	37863	106077	0	0	8193	743606	0	0
2024-04-25 19:45:32			0	34336	0	0	0	16789	15490	153126	27705	954175	37873	106079	0	0	8192	743988	0	0
2024-04-25 19:46:32			0	34305	0	0	0	16776	15480	153266	27474	954141	37850	106074	0	0	8191	745546	0	0
2024-04-25 19:47:32			0	34289	0	0	0	16774	15480	153346	27400	954133	37850	106073	0	0	8190	746330	0	0
2024-04-25 19:48:32			0	34256	0	0	0	16768	15470	153414	27455	954098	37881	106071	0	0	8188	747990	0	0
2024-04-25 19:49:32			0	34238	0	0	0	16768	15460	153630	27248	954082	37859	106071	0	0	8187	748915	0	0
2024-04-25 19:50:32			0	34224	0	0	0	16776	15460	153774	27452	954082	37870	106074	0	0	8186	749604	0	0
2024-04-25 19:51:32			0	34203	0	0	0	16792	15460	153742	27530	954056	37859	106080	0	0	8184	750638	0	0
2024-04-25 19:52:32			0	34193	0	0	0	16779	15440	153818	27377	954015	37858	106075	0	0	8184	751212	0	0
2024-04-25 19:53:32			0	34187	0	0	0	16784	15440	153970	27454	953997	37890	106077	0	0	8183	751508	0	0
2024-04-25 19:54:32			0	34135	0	0	0	16797	15450	153962	27495	954066	37880	106082	0	0	8180	754035	0	0
2024-04-25 19:55:32			0	34146	0	0	0	16787	15440	153970	27229	953997	37869	106078	0	0	8181	753532	0	0
2024-04-25 19:56:32			0	34161	0	0	0	16771	15440	154038	27230	953989	37869	106072	0	0	8182	752791	0	0
2024-04-25 19:57:32			0	34144	0	0	0	16781	15430	154118	27263	954060	37868	106076	0	0	8181	753671	0	0
2024-04-25 19:58:32			0	34154	0	0	0	16781	15430	154006	27362	953999	37868	106076	0	0	8182	753177	0	0
2024-04-25 19:59:32			0	34165	0	0	0	16784	15440	154054	27315	954042	37869	106077	0	0	8182	752593	0	0
2024-04-25 20:00:32			0	34129	0	0	0	16776	15430	153950	27460	953981	37878	106074	0	0	8180	754413	0	0
2024-04-25 20:01:32			0	34140	0	0	0	16779	15430	154070	27291	954007	37868	106075	0	0	8181	753869	0	0
2024-04-25 20:02:32			0	34164	0	0	0	16776	15430	154138	27098	954007	37878	106074	0	0	8182	752683	0	0
2024-04-25 20:03:32			0	34143	0	0	0	16768	15430	154102	27305	953999	37878	106071	0	0	8181	753720	0	0
2024-04-25 20:04:32			0	34144	0	0	0	16781	15430	154130	27554	954007	37878	106076	0	0	8181	753671	0	0
2024-04-25 20:05:32			0	34160	0	0	0	16797	15420	154186	27144	953983	37876	106082	0	0	8182	752921	0	0
2024-04-25 20:06:32			0	34127	0	0	0	16787	15420	154170	27256	953956	37866	106078	0	0	8180	754552	0	0
2024-04-25 20:07:32			0	34118	0	0	0	16818	15420	154166	27412	954070	37856	106090	0	0	8179	754998	0	0
2024-04-25 20:08:32			0	34130	0	0	0	16802	15420	154222	27412	953956	37887	106084	0	0	8180	754404	0	0
2024-04-25 20:09:32			0	34117	0	0	0	16836	15420	154258	27343	954035	37876	106097	0	0	8178	755047	0	0
2024-04-25 20:10:32			0	34137	0	0	0	16859	15420	154106	27246	954043	37877	106106	0	0	8179	754058	0	0
2024-04-25 20:11:32			0	34168	0	0	0	16844	15430	154030	27332	954060	37878	106100	0	0	8181	752485	0	0
2024-04-25 20:12:32			0	34185	0	0	0	16857	15430	153838	27315	954025	37868	106105	0	0	8182	751647	0	0
2024-04-25 20:13:32			0	34223	0	0	0	16867	15430	153830	27066	954060	37889	106109	0	0	8184	749774	0	0
2024-04-25 20:14:32			0	34234	0	0	0	16867	15430	153674	27102	954052	37889	106109	0	0	8185	749233	0	0
2024-04-25 20:15:32			0	34265	0	0	0	16864	15430	153542	27202	954139	37878	106108	0	0	8187	747709	0	0
2024-04-25 20:16:32			0	34275	0	0	0	16883	15440	153454	27483	954129	37879	106115	0	0	8187	747178	0	0
2024-04-25 20:17:32			0	34308	0	0	0	16870	15440	153310	27194	954121	37869	106110	0	0	8189	745559	0	0
2024-04-25 20:18:32			0	34324	0	0	0	16877	15440	153190	27218	954076	37879	106113	0	0	8190	744775	0	0
2024-04-25 20:19:32			0	34368	0	0	0	16872	15450	153155	27005	954163	37891	106111	0	0	8192	742583	0	0
2024-04-25 20:20:32			0	34382	0	0	0	16851	15450	153039	27312	954110	37891	106103	0	0	8194	741900	0	0
2024-04-25 20:21:32			0	34408	0	0	0	16812	15450	152815	27298	954110	37870	106088	0	0	8196	740631	0	0
2024-04-25 20:22:32			0	34419	0	0	0	16849	15440	152727	27367	954068	37879	106102	0	0	8196	740135	0	0
2024-04-25 20:23:32			0	34425	0	0	0	16833	15440	152771	27637	954102	37901	106096	0	0	8196	739842	0	0
2024-04-25 20:24:32			0	34435	0	0	0	16838	15450	152707	27052	954058	37870	106098	0	0	8197	739316	0	0
2024-04-25 20:25:32			0	34436	0	0	0	16828	15440	152843	27397	954050	37901	106094	0	0	8197	739307	0	0
2024-04-25 20:26:32			0	34446	0	0	0	16818	15440	152919	27293	954050	37879	106090	0	0	8198	738820	0	0
2024-04-25 20:27:32			0	34425	0	0	0	16831	15440	152775	27472	954094	37879	106095	0	0	8196	739842	0	0
2024-04-25 20:28:32			0	34437	0	0	0	16823	15440	152731	27215	954094	37890	106092	0	0	8197	739258	0	0
2024-04-25 20:29:32			0	34423	0	0	0	16823	15450	152639	27296	954058	37891	106092	0	0	8196	739900	0	0
2024-04-25 20:30:32			0	34425	0	0	0	16820	15430	152599	27381	954060	37878	106091	0	0	8196	739882	0	0
2024-04-25 20:31:32			0	34420	0	0	0	16823	15440	152799	27173	954068	37879	106092	0	0	8196	740086	0	0
2024-04-25 20:32:32			0	34428	0	0	0	16807	15440	152711	27116	954015	37901	106086	0	0	8197	739696	0	0
2024-04-25 20:33:32			0	34434	0	0	0	16794	15440	152823	27225	954102	37879	106081	0	0	8197	739404	0	0
2024-04-25 20:34:32			0	34426	0	0	0	16789	15440	152759	27211	954050	37879	106079	0	0	8197	739794	0	0
2024-04-25 20:35:32			0	34434	0	0	0	16784	15430	152767	27374	954033	37889	106077	0	0	8198	739444	0	0
2024-04-25 20:36:32			0	34418	0	0	0	16794	15430	152887	27352	954025	37889	106081	0	0	8197	740223	0	0
2024-04-25 20:37:32			0	34410	0	0	0	16781	15440	152911	27280	954042	37869	106076	0	0	8196	740574	0	0
2024-04-25 20:38:32			0	34369	0	0	0	16789	15430	153023	27362	953999	37868	106079	0	0	8194	742614	0	0
2024-04-25 20:39:32			0	34355	0	0	0	16771	15420	153123	27177	954043	37888	106072	0	0	8193	743339	0	0
2024-04-25 20:40:32			0	34331	0	0	0	16750	15430	153114	27753	954007	37878	106064	0	0	8192	744473	0	0
2024-04-25 20:41:32			0	34303	0	0	0	16745	15430	153206	27086	953973	37889	106062	0	0	8191	745844	0	0
2024-04-25 20:42:32			0	34296	0	0	0	16722	15420	153234	27521	953938	37867	106053	0	0	8191	746228	0	0
2024-04-25 20:43:32			0	34271	0	0	0	16722	15420	153414	27485	953912	37867	106053	0	0	8189	747455	0	0
2024-04-25 20:44:32			0	34242	0	0	0	16722	15420	153438	27137	953983	37876	106053	0	0	8188	748880	0	0
2024-04-25 20:45:32			0	34219	0	0	0	16706	15410	153546	27201	953940	37866	106047	0	0	8186	750052	0	0
2024-04-25 20:46:32			0	34229	0	0	0	16693	15410	153670	27192	953861	37866	106042	0	0	8187	749560	0	0
2024-04-25 20:47:32			0	34204	0	0	0	16677	15400	153646	27203	953827	37865	106036	0	0	8186	750831	0	0
2024-04-25 20:48:32			0	34180	0	0	0	16672	15390	153746	27215	953810	37864	106034	0	0	8185	752055	0	0
2024-04-25 20:49:32			0	34177	0	0	0	16662	15380	153774	27062	953794	37853	106030	0	0	8185	752244	0	0
2024-04-25 20:50:32			0	34158	0	0	0	16664	15380	153910	27085	953742	37853	106031	0	0	8184	753182	0	0
2024-04-25 20:51:32			0	34155	0	0	0	16644	15380	153914	27204	953681	37863	106023	0	0	8184	753330	0	0
2024-04-25 20:52:32			0	34133	0	0	0	16638	15370	153970	27060	953725	37852	106021	0	0	8182	754458	0	0
2024-04-25 20:53:32			0	34121	0	0	0	16631	15360	154018	27204	953595	37872	106018	0	0	8182	755093	0	0
2024-04-25 20:54:32			0	34116	0	0	0	16628	15360	154058	27265	953656	37862	106017	0	0	8182	755340	0	0
2024-04-25 20:55:32			0	34140	0	0	0	16620	15350	153966	27298	953666	37871	106014	0	0	8183	754193	0	0
2024-04-25 20:56:32			0	34187	0	0	0	16618	15350	153822	27150	953587	37860	106013	0	0	8186	751871	0	0
2024-04-25 20:57:32			0	34209	0	0	0	16612	15340	153562	27249	953668	37871	106011	0	0	8187	750827	0	0
2024-04-25 20:58:32			0	34283	0	0	0	16610	15340	153426	27274	953563	37848	106010	0	0	8191	747187	0	0
2024-04-25 20:59:32			0	34331	0	0	0	16597	15330	153162	27549	953555	37859	106005	0	0	8194	744873	0	0
2024-04-25 21:00:32			0	34359	0	0	0	16599	15330	153139	27102	953547	37847	106006	0	0	8196	743503	0	0
2024-04-25 21:01:32			0	34359	0	0	0	16584	15330	153083	27362	953494	37847	106000	0	0	8196	743503	0	0
2024-04-25 21:02:32			0	34367	0	0	0	16581	15320	153003	26908	953451	37847	105999	0	0	8197	743152	0	0
2024-04-25 21:03:32			0	34392	0	0	0	16579	15310	152983	27156	953462	37846	105998	0	0	8198	741970	0	0
2024-04-25 21:04:32			0	34339	0	0	0	16592	15300	153182	27680	953419	37845	106003	0	0	8195	744601	0	0
2024-04-25 21:05:32			0	34344	0	0	0	16589	15290	153206	27202	953411	37855	106002	0	0	8195	744397	0	0
2024-04-25 21:06:32			0	34267	0	0	0	16581	15290	153422	27163	953411	37833	105999	0	0	8191	748174	0	0
2024-04-25 21:07:32			0	34232	0	0	0	16584	15290	153690	27111	953411	37844	106000	0	0	8189	749896	0	0
2024-04-25 21:08:32			0	34182	0	0	0	16586	15270	153922	27341	953360	37854	106001	0	0	8186	752442	0	0
2024-04-25 21:09:32			0	34147	0	0	0	16579	15270	154050	27185	953386	37843	105998	0	0	8184	754171	0	0
2024-04-25 21:10:32			0	34108	0	0	0	16576	15270	154210	27255	953334	37854	105997	0	0	8182	756102	0	0
2024-04-25 21:11:32			0	34083	0	0	0	16576	15270	154426	27332	953308	37866	105997	0	0	8180	757342	0	0
2024-04-25 21:12:32			0	34058	0	0	0	16568	15250	154542	27220	953354	37853	105994	0	0	8179	758665	0	0
2024-04-25 21:13:32			0	34036	0	0	0	16576	15250	154630	27336	953275	37853	105997	0	0	8177	759759	0	0
2024-04-25 21:14:32			0	34059	0	0	0	16576	15250	154666	27100	953319	37852	105997	0	0	8179	758615	0	0
2024-04-25 21:15:32			0	34016	0	0	0	16566	15240	154642	27267	953285	37851	105993	0	0	8176	760795	0	0
2024-04-25 21:16:32			0	34005	0	0	0	16579	15240	154774	27443	953285	37851	105998	0	0	8175	761343	0	0
2024-04-25 21:17:32			0	34007	0	0	0	16584	15240	154710	27118	953277	37840	106000	0	0	8175	761243	0	0
2024-04-25 21:18:32			0	34003	0	0	0	16576	15240	154842	27177	953311	37830	105997	0	0	8175	761443	0	0
2024-04-25 21:19:32			0	33977	0	0	0	16579	15230	154918	27306	953242	37862	105998	0	0	8174	762780	0	0
2024-04-25 21:20:32			0	33958	0	0	0	16574	15230	154898	27452	953269	37873	105996	0	0	8173	763729	0	0
2024-04-25 21:21:32			0	33966	0	0	0	16576	15230	155074	27665	953287	37850	105997	0	0	8173	763329	0	0
2024-04-25 21:22:32			0	33938	0	0	0	16579	15240	155014	27275	953329	37851	105998	0	0	8172	764687	0	0
2024-04-25 21:23:32			0	33932	0	0	0	16584	15230	155174	27795	953269	37840	106000	0	0	8171	765029	0	0
2024-04-25 21:24:32			0	33913	0	0	0	16584	15230	155170	27263	953216	37851	106000	0	0	8170	765980	0	0
2024-04-25 21:25:32			0	33889	0	0	0	16594	15230	155330	27371	953287	37839	106004	0	0	8168	767182	0	0
2024-04-25 21:26:32			0	33870	0	0	0	16574	15240	155366	27265	953356	37862	105996	0	0	8168	768094	0	0
2024-04-25 21:27:32			0	33853	0	0	0	16574	15230	155470	27395	953260	37861	105996	0	0	8167	768988	0	0
2024-04-25 21:28:32			0	33845	0	0	0	16568	15240	155462	27230	953303	37862	105994	0	0	8166	769349	0	0
2024-04-25 21:29:32			0	33848	0	0	0	16561	15230	155530	27180	953269	37851	105991	0	0	8167	769240	0	0
2024-04-25 21:30:32			0	33819	0	0	0	16558	15220	155586	27202	953226	37849	105990	0	0	8165	770739	0	0
2024-04-25 21:31:32			0	33816	0	0	0	16553	15230	155574	27182	953208	37839	105988	0	0	8165	770849	0	0
2024-04-25 21:32:32			0	33820	0	0	0	16542	15230	155626	27526	953234	37829	105984	0	0	8165	770648	0	0
2024-04-25 21:33:32			0	33845	0	0	0	16550	15220	155570	27211	953173	37838	105987	0	0	8166	769432	0	0
2024-04-25 21:34:32			0	33839	0	0	0	16537	15220	155538	27057	953165	37860	105982	0	0	8166	769733	0	0
2024-04-25 21:35:32			0	33856	0	0	0	16550	15210	155514	27272	953157	37837	105987	0	0	8167	768920	0	0
2024-04-25 21:36:32			0	33852	0	0	0	16540	15200	155454	27459	953141	37848	105983	0	0	8167	769163	0	0
2024-04-25 21:37:32			0	33862	0	0	0	16537	15200	155490	27223	953106	37847	105982	0	0	8168	768660	0	0
2024-04-25 21:38:32			0	33853	0	0	0	16540	15200	155450	27338	953115	37837	105983	0	0	8167	769112	0	0
2024-04-25 21:39:32			0	33852	0	0	0	16537	15210	155478	27371	953149	37837	105982	0	0	8167	769121	0	0
2024-04-25 21:40:32			0	33841	0	0	0	16529	15190	155462	27493	953098	37826	105979	0	0	8166	769757	0	0
2024-04-25 21:41:32			0	33825	0	0	0	16535	15200	155570	27218	953159	37847	105981	0	0	8165	770520	0	0
2024-04-25 21:42:32			0	33823	0	0	0	16532	15190	155714	27386	953072	37836	105980	0	0	8165	770662	0	0
2024-04-25 21:43:32			0	33810	0	0	0	16522	15190	155754	27215	953117	37826	105976	0	0	8165	771316	0	0
2024-04-25 21:44:32			0	33789	0	0	0	16514	15190	155726	27400	953117	37847	105973	0	0	8164	772374	0	0
2024-04-25 21:45:32			0	33794	0	0	0	16516	15180	155818	27282	953003	37835	105974	0	0	8164	772164	0	0
2024-04-25 21:46:32			0	33772	0	0	0	16514	15180	155746	27724	953100	37834	105973	0	0	8163	773273	0	0
2024-04-25 21:47:32			0	33781	0	0	0	16527	15170	155806	27336	953066	37834	105978	0	0	8163	772861	0	0
2024-04-25 21:48:32			0	33767	0	0	0	16527	15180	155930	27422	953048	37845	105978	0	0	8162	773526	0	0
2024-04-25 21:49:32			0	33764	0	0	0	16516	15170	155942	27170	953005	37834	105974	0	0	8162	773719	0	0
2024-04-25 21:50:32			0	33752	0	0	0	16511	15180	155926	27275	952969	37845	105972	0	0	8161	774283	0	0
2024-04-25 21:51:32			0	33760	0	0	0	16501	15160	155938	27379	953023	37823	105968	0	0	8162	773962	0	0
2024-04-25 21:52:32			0	33767	0	0	0	16501	15170	155978	27294	952961	37824	105968	0	0	8162	773567	0	0
2024-04-25 21:53:32			0	33756	0	0	0	16496	15170	155966	27459	952953	37824	105966	0	0	8162	774122	0	0
2024-04-25 21:54:32			0	33734	0	0	0	16488	15160	156026	27632	952910	37844	105963	0	0	8161	775276	0	0
2024-04-25 21:55:32			0	33743	0	0	0	16501	15160	156010	27170	952936	37844	105968	0	0	8161	774821	0	0
2024-04-25 21:56:32			0	33724	0	0	0	16490	15160	156082	27275	952944	37823	105964	0	0	8160	775782	0	0
2024-04-25 21:57:32			0	33752	0	0	0	16490	15150	156054	27301	952981	37843	105964	0	0	8162	774408	0	0
2024-04-25 21:58:32			0	33715	0	0	0	16485	15150	156122	27017	953007	37833	105962	0	0	8160	776279	0	0
2024-04-25 21:59:32			0	33727	0	0	0	16490	15150	156062	27189	952920	37843	105964	0	0	8160	775671	0	0
2024-04-25 22:00:32			0	33720	0	0	0	16483	15140	156150	27519	952912	37833	105961	0	0	8160	776067	0	0
2024-04-25 22:01:32			0	33720	0	0	0	16472	15140	156090	27239	952938	37843	105957	0	0	8160	776067	0	0
2024-04-25 22:02:32			0	33727	0	0	0	16480	15140	156094	27248	952878	37842	105960	0	0	8160	775713	0	0
2024-04-25 22:03:32			0	33709	0	0	0	16485	15140	156106	27460	952878	37832	105962	0	0	8159	776624	0	0
2024-04-25 22:04:32			0	33722	0	0	0	16485	15140	156170	27388	952878	37842	105962	0	0	8160	775966	0	0
2024-04-25 22:05:32			0	33717	0	0	0	16477	15130	156182	27312	952896	37831	105959	0	0	8160	776261	0	0
2024-04-25 22:06:32			0	33693	0	0	0	16477	15140	156246	27187	952799	37842	105959	0	0	8158	777434	0	0
2024-04-25 22:07:32			0	33672	0	0	0	16480	15130	156274	27353	952869	37831	105960	0	0	8157	778541	0	0
2024-04-25 22:08:32			0	33681	0	0	0	16472	15120	156250	27659	952800	37841	105957	0	0	8158	778126	0	0
2024-04-25 22:09:32			0	33674	0	0	0	16480	15130	156314	27149	952808	37831	105960	0	0	8157	778440	0	0
2024-04-25 22:10:32			0	33683	0	0	0	16483	15130	156302	27144	952861	37831	105961	0	0	8158	777983	0	0
2024-04-25 22:11:32			0	33669	0	0	0	16490	15140	156294	27133	952930	37832	105964	0	0	8157	778651	0	0
2024-04-25 22:12:32			0	33653	0	0	0	16490	15130	156374	27715	952948	37841	105964	0	0	8156	779505	0	0
2024-04-25 22:13:32			0	33661	0	0	0	16488	15130	156370	27272	952896	37831	105963	0	0	8156	779099	0	0
2024-04-25 22:14:32			0	33661	0	0	0	16480	15130	156378	27424	952817	37841	105960	0	0	8156	779099	0	0
2024-04-25 22:15:32			0	33641	0	0	0	16488	15120	156386	27332	952853	37852	105963	0	0	8155	780157	0	0
2024-04-25 22:16:32			0	33653	0	0	0	16475	15140	156418	27403	952851	37832	105958	0	0	8156	779464	0	0
2024-04-25 22:17:32			0	33653	0	0	0	16488	15130	156414	27203	952896	37831	105963	0	0	8156	779505	0	0
2024-04-25 22:18:32			0	33636	0	0	0	16485	15130	156470	27358	952887	37831	105962	0	0	8155	780369	0	0
2024-04-25 22:19:32			0	33641	0	0	0	16490	15130	156446	27578	952896	37841	105964	0	0	8155	780115	0	0
2024-04-25 22:20:32			0	33640	0	0	0	16485	15130	156538	27357	952887	37841	105962	0	0	8155	780166	0	0
2024-04-25 22:21:32			0	33630	0	0	0	16485	15130	156542	27391	952835	37852	105962	0	0	8154	780674	0	0
2024-04-25 22:22:32			0	33614	0	0	0	16483	15130	156546	27175	952887	37831	105961	0	0	8154	781488	0	0
2024-04-25 22:23:32			0	33608	0	0	0	16485	15120	156602	27339	952905	37841	105962	0	0	8153	781835	0	0
2024-04-25 22:24:32			0	33622	0	0	0	16488	15130	156522	26953	952861	37831	105963	0	0	8154	781081	0	0
2024-04-25 22:25:32			0	33625	0	0	0	16480	15130	156574	27229	952896	37831	105960	0	0	8154	780928	0	0
2024-04-25 22:26:32			0	33619	0	0	0	16477	15130	156606	27072	952869	37841	105959	0	0	8154	781234	0	0
2024-04-25 22:27:32			0	33627	0	0	0	16483	15130	156558	27417	952869	37831	105961	0	0	8154	780827	0	0
2024-04-25 22:28:32			0	33613	0	0	0	16480	15110	156558	27519	952863	37839	105960	0	0	8153	781623	0	0
2024-04-25 22:29:32			0	33612	0	0	0	16480	15130	156538	27190	952887	37831	105960	0	0	8153	781590	0	0
2024-04-25 22:30:32			0	33621	0	0	0	16475	15130	156478	27239	952896	37841	105958	0	0	8154	781132	0	0
2024-04-25 22:31:32			0	33628	0	0	0	16475	15120	156566	27469	952818	37830	105958	0	0	8154	780818	0	0
2024-04-25 22:32:32			0	33619	0	0	0	16477	15130	156446	27692	952861	37841	105959	0	0	8154	781234	0	0
2024-04-25 22:33:32			0	33626	0	0	0	16483	15120	156622	27013	952827	37841	105961	0	0	8154	780919	0	0
2024-04-25 22:34:32			0	33619	0	0	0	16477	15130	156474	27498	952817	37831	105959	0	0	8154	781234	0	0
2024-04-25 22:35:32			0	33619	0	0	0	16477	15130	156546	27569	952861	37831	105959	0	0	8154	781234	0	0
2024-04-25 22:36:32			0	33624	0	0	0	16477	15130	156562	27248	952887	37820	105959	0	0	8154	780979	0	0
2024-04-25 22:37:32			0	33612	0	0	0	16480	15130	156606	27261	952835	37841	105960	0	0	8153	781590	0	0
2024-04-25 22:38:32			0	33617	0	0	0	16480	15120	156594	27079	952871	37830	105960	0	0	8154	781377	0	0
2024-04-25 22:39:32			0	33610	0	0	0	16467	15120	156606	27265	952853	37831	105955	0	0	8154	781733	0	0
2024-04-25 22:40:32			0	33605	0	0	0	16472	15120	156606	27251	952827	37841	105957	0	0	8153	781988	0	0
2024-04-25 22:41:32			0	33597	0	0	0	16475	15120	156646	27284	952879	37831	105958	0	0	8153	782396	0	0
2024-04-25 22:42:32			0	33576	0	0	0	16472	15120	156669	27313	952792	37830	105957	0	0	8151	783466	0	0
2024-04-25 22:43:32			0	33589	0	0	0	16464	15120	156586	27199	952818	37830	105954	0	0	8152	782803	0	0
2024-04-25 22:44:32			0	33580	0	0	0	16475	15110	156714	27220	952855	37850	105958	0	0	8152	783304	0	0
2024-04-25 22:45:32			0	33566	0	0	0	16477	15120	156697	27093	952792	37840	105959	0	0	8151	783976	0	0
2024-04-25 22:46:32			0	33574	0	0	0	16470	15110	156834	27434	952802	37839	105956	0	0	8151	783610	0	0
2024-04-25 22:47:32			0	33568	0	0	0	16480	15120	156837	27585	952792	37840	105960	0	0	8151	783874	0	0
2024-04-25 22:48:32			0	33548	0	0	0	16472	15100	156893	26974	952899	37839	105957	0	0	8150	784979	0	0
2024-04-25 22:49:32			0	33547	0	0	0	16475	15110	156957	27230	952837	37829	105958	0	0	8150	784988	0	0
2024-04-25 22:50:32			0	33552	0	0	0	16483	15120	156885	27216	952792	37819	105961	0	0	8150	784690	0	0
2024-04-25 22:51:32			0	33552	0	0	0	16475	15110	156829	27296	952828	37829	105958	0	0	8150	784732	0	0
2024-04-25 22:52:32			0	33530	0	0	0	16475	15110	156901	27597	952863	37839	105958	0	0	8149	785856	0	0
2024-04-25 22:53:32			0	33559	0	0	0	16475	15100	156889	27223	952873	37829	105958	0	0	8150	784417	0	0
2024-04-25 22:54:32			0	33526	0	0	0	16464	15120	156877	27502	952827	37831	105954	0	0	8149	786019	0	0
2024-04-25 22:55:32			0	33544	0	0	0	16459	15120	156881	27339	952818	37819	105952	0	0	8150	785099	0	0
2024-04-25 22:56:32			0	33535	0	0	0	16472	15110	156937	27464	952784	37829	105957	0	0	8149	785601	0	0
2024-04-25 22:57:32			0	33519	0	0	0	16475	15110	156873	27289	952837	37829	105958	0	0	8148	786419	0	0
2024-04-25 22:58:32			0	33519	0	0	0	16464	15120	156897	27239	952845	37830	105954	0	0	8148	786377	0	0
2024-04-25 22:59:32			0	33526	0	0	0	16462	15120	156961	27109	952853	37841	105953	0	0	8149	786019	0	0
2024-04-25 23:00:32			0	33534	0	0	0	16470	15110	157001	27474	952802	37829	105956	0	0	8149	785652	0	0
2024-04-25 23:01:32			0	33504	0	0	0	16470	15120	156961	27381	952800	37831	105956	0	0	8147	787144	0	0
2024-04-25 23:02:32			0	33504	0	0	0	16462	15100	157121	27400	952768	37839	105953	0	0	8147	787229	0	0
2024-04-25 23:03:32			0	33496	0	0	0	16462	15100	157069	27552	952741	37862	105953	0	0	8147	787638	0	0
2024-04-25 23:04:32			0	33497	0	0	0	16457	15110	157101	27400	952784	37829	105951	0	0	8147	787545	0	0
2024-04-25 23:05:32			0	33479	0	0	0	16462	15110	157157	27095	952837	37829	105953	0	0	8146	788467	0	0
2024-04-25 23:06:32			0	33481	0	0	0	16449	15120	157241	27691	952792	37819	105948	0	0	8146	788322	0	0
2024-04-25 23:07:32			0	33486	0	0	0	16457	15100	157121	27490	952786	37828	105951	0	0	8146	788151	0	0
2024-04-25 23:08:32			0	33478	0	0	0	16444	15120	157281	27303	952792	37819	105946	0	0	8146	788476	0	0
2024-04-25 23:09:32			0	33473	0	0	0	16449	15100	157257	27751	952786	37828	105948	0	0	8146	788817	0	0
2024-04-25 23:10:32			0	33457	0	0	0	16454	15100	157165	27440	952733	37839	105950	0	0	8145	789638	0	0
2024-04-25 23:11:32			0	33472	0	0	0	16457	15090	157213	27519	952778	37838	105951	0	0	8145	788910	0	0
2024-04-25 23:12:32			0	33466	0	0	0	16457	15090	157173	27197	952804	37828	105951	0	0	8145	789218	0	0
2024-04-25 23:13:32			0	33469	0	0	0	16449	15100	157205	27019	952786	37839	105948	0	0	8145	789022	0	0
2024-04-25 23:14:32			0	33474	0	0	0	16457	15100	157245	27597	952820	37850	105951	0	0	8146	788766	0	0
2024-04-25 23:15:32			0	33463	0	0	0	16454	15100	157217	27270	952760	37828	105950	0	0	8145	789330	0	0
2024-04-25 23:16:32			0	33472	0	0	0	16457	15100	157241	27433	952812	37839	105951	0	0	8145	788868	0	0
2024-04-25 23:17:32			0	33464	0	0	0	16462	15100	157269	27390	952786	37850	105953	0	0	8145	789278	0	0
2024-04-25 23:18:32			0	33449	0	0	0	16454	15100	157401	27601	952786	37828	105950	0	0	8144	790048	0	0
2024-04-25 23:19:32			0	33456	0	0	0	16464	15110	157313	27474	952802	37839	105954	0	0	8144	789646	0	0
2024-04-25 23:20:32			0	33450	0	0	0	16496	15110	157433	27611	952881	37829	105966	0	0	8143	789954	0	0
2024-04-25 23:21:32			0	33440	0	0	0	16516	15120	157449	27543	952958	37831	105974	0	0	8143	790426	0	0
2024-04-25 23:22:32			0	33447	0	0	0	16506	15120	157381	27067	952905	37831	105970	0	0	8143	790066	0	0
2024-04-25 23:23:32			0	33426	0	0	0	16506	15130	157409	27242	952887	37831	105970	0	0	8142	791102	0	0
2024-04-25 23:24:32			0	33427	0	0	0	16514	15130	157421	27182	952940	37841	105973	0	0	8142	791051	0	0
2024-04-25 23:25:32			0	33421	0	0	0	16524	15140	157437	27204	953009	37842	105977	0	0	8141	791317	0	0
2024-04-25 23:26:32			0	33428	0	0	0	16501	15140	157393	27440	952956	37832	105968	0	0	8142	790957	0	0
2024-04-25 23:27:32			0	33429	0	0	0	16496	15130	157429	27249	952975	37852	105966	0	0	8142	790948	0	0
2024-04-25 23:28:32			0	33429	0	0	0	16501	15130	157521	27256	952948	37852	105968	0	0	8142	790948	0	0
2024-04-25 23:29:32			0	33428	0	0	0	16498	15140	157513	27433	952912	37843	105967	0	0	8142	790957	0	0
2024-04-25 23:30:32			0	33422	0	0	0	16501	15140	157425	27428	952983	37842	105968	0	0	8142	791265	0	0
2024-04-25 23:31:32			0	33440	0	0	0	16514	15140	157377	27170	952983	37832	105973	0	0	8143	790341	0	0
2024-04-25 23:32:32			0	33432	0	0	0	16514	15140	157545	27312	952991	37854	105973	0	0	8142	790752	0	0
2024-04-25 23:33:32			0	33418	0	0	0	16516	15150	157337	27256	952999	37843	105974	0	0	8141	791429	0	0
2024-04-25 23:34:32			0	33423	0	0	0	16522	15140	157441	27315	952991	37833	105976	0	0	8142	791214	0	0
2024-04-25 23:35:32			0	33450	0	0	0	16524	15150	157305	27301	952999	37843	105977	0	0	8143	789785	0	0
2024-04-25 23:36:32			0	33437	0	0	0	16524	15150	157289	27637	952999	37843	105977	0	0	8142	790452	0	0
2024-04-25 23:37:32			0	33450	0	0	0	16524	15140	157341	27481	952965	37821	105977	0	0	8143	789827	0	0
2024-04-25 23:38:32			0	33436	0	0	0	16527	15160	157337	27268	953015	37833	105978	0	0	8142	790461	0	0
2024-04-25 23:39:32			0	33442	0	0	0	16540	15150	157253	27575	952999	37843	105983	0	0	8142	790195	0	0
2024-04-25 23:40:32			0	33467	0	0	0	16522	15150	157181	27414	952973	37843	105976	0	0	8144	788913	0	0
2024-04-25 23:41:32			0	33498	0	0	0	16524	15150	157089	27357	952981	37833	105977	0	0	8146	787324	0	0
2024-04-25 23:42:32			0	33520	0	0	0	16516	15150	157005	27431	952955	37821	105974	0	0	8148	786199	0	0
2024-04-25 23:43:32			0	33539	0	0	0	16514	15150	156905	27372	952946	37843	105973	0	0	8149	785228	0	0
2024-04-25 23:44:32			0	33546	0	0	0	16511	15150	156841	27161	953007	37833	105972	0	0	8149	784870	0	0
2024-04-25 23:45:32			0	33560	0	0	0	16514	15150	156753	27157	952981	37843	105973	0	0	8150	784156	0	0
2024-04-25 23:46:32			0	33590	0	0	0	16501	15160	156662	27618	953015	37844	105968	0	0	8152	782584	0	0
2024-04-25 23:47:32			0	33584	0	0	0	16498	15150	156654	27597	952946	37843	105967	0	0	8152	782932	0	0
2024-04-25 23:48:32			0	33606	0	0	0	16503	15150	156562	27613	952955	37854	105969	0	0	8153	781811	0	0
2024-04-25 23:49:32			0	33624	0	0	0	16493	15150	156530	27274	952928	37821	105965	0	0	8154	780895	0	0
2024-04-25 23:50:32			0	33631	0	0	0	16488	15150	156358	27471	952946	37833	105963	0	0	8155	780539	0	0
2024-04-25 23:51:32			0	33644	0	0	0	16483	15150	156386	27277	952946	37843	105961	0	0	8155	779879	0	0
2024-04-25 23:52:32			0	33653	0	0	0	16475	15140	156290	27317	952904	37842	105958	0	0	8156	779464	0	0
2024-04-25 23:53:32			0	33657	0	0	0	16470	15130	156250	27144	952869	37841	105956	0	0	8156	779302	0	0
2024-04-25 23:54:32			0	33667	0	0	0	16467	15140	156386	27296	952851	37853	105955	0	0	8157	778753	0	0
2024-04-25 23:55:32			0	33647	0	0	0	16464	15140	156386	27386	952825	37832	105954	0	0	8156	779768	0	0
2024-04-25 23:56:32			0	33627	0	0	0	16451	15130	156470	27194	952835	37841	105949	0	0	8155	780827	0	0
2024-04-25 23:57:32			0	33637	0	0	0	16454	15130	156426	27237	952835	37841	105950	0	0	8155	780318	0	0
2024-04-25 23:58:32			0	33630	0	0	0	16459	15110	156522	27196	952776	37829	105952	0	0	8155	780758	0	0
2024-04-25 23:59:32			0	33592	0	0	0	16454	15100	156638	27473	952794	37839	105950	0	0	8153	782734	0	0
2024-04-26 00:00:32			0	33589	0	0	0	16459	15120	156698	27464	952845	37840	105952	0	0	8152	782803	0	0
2024-04-26 00:01:32			0	33587	0	0	0	16451	15110	156710	27495	952802	37829	105949	0	0	8152	782947	0	0
2024-04-26 00:02:32			0	33590	0	0	0	16438	15110	156738	27147	952802	37839	105944	0	0	8153	782794	0	0
2024-04-26 00:03:32			0	33559	0	0	0	16433	15100	156733	27305	952760	37828	105942	0	0	8151	784417	0	0
2024-04-26 00:04:32			0	33562	0	0	0	16438	15100	156857	27447	952707	37828	105944	0	0	8151	784264	0	0
2024-04-26 00:05:32			0	33536	0	0	0	16428	15090	156861	27595	952717	37827	105940	0	0	8150	785634	0	0
2024-04-26 00:06:32			0	33520	0	0	0	16431	15090	156869	27540	952717	37837	105941	0	0	8149	786452	0	0
2024-04-26 00:07:32			0	33507	0	0	0	16425	15090	156961	27249	952638	37827	105939	0	0	8148	787117	0	0
2024-04-26 00:08:32			0	33497	0	0	0	16425	15090	157093	27410	952717	37837	105939	0	0	8147	787629	0	0
2024-04-26 00:09:32			0	33500	0	0	0	16412	15070	157121	27604	952693	37836	105934	0	0	8148	787560	0	0
2024-04-26 00:10:32			0	33495	0	0	0	16412	15090	157177	27222	952638	37827	105934	0	0	8147	787732	0	0
2024-04-26 00:11:32			0	33488	0	0	0	16407	15070	157149	27461	952606	37825	105932	0	0	8147	788175	0	0
2024-04-26 00:12:32			0	33481	0	0	0	16415	15070	157157	27372	952614	37836	105935	0	0	8147	788534	0	0
2024-04-26 00:13:32			0	33492	0	0	0	16399	15070	157153	27374	952588	37826	105929	0	0	8147	787970	0	0
2024-04-26 00:14:32			0	33509	0	0	0	16387	15060	157161	27189	952545	37835	105924	0	0	8149	787142	0	0
2024-04-26 00:15:32			0	33495	0	0	0	16392	15070	157169	27464	952658	37825	105926	0	0	8148	787816	0	0
2024-04-26 00:16:32			0	33503	0	0	0	16392	15060	157089	27706	952537	37825	105926	0	0	8148	787449	0	0
2024-04-26 00:17:32			0	33492	0	0	0	16397	15050	157161	27450	952555	37824	105928	0	0	8147	788055	0	0
2024-04-26 00:18:32			0	33509	0	0	0	16394	15050	157133	27412	952555	37824	105927	0	0	8148	787184	0	0
2024-04-26 00:19:32			0	33498	0	0	0	16402	15050	157025	27275	952547	37812	105930	0	0	8148	787747	0	0
2024-04-26 00:20:32			0	33527	0	0	0	16415	15050	156961	27353	952547	37812	105935	0	0	8149	786263	0	0
2024-04-26 00:21:32			0	33544	0	0	0	16423	15050	156913	27180	952573	37823	105938	0	0	8150	785394	0	0
2024-04-26 00:22:32			0	33571	0	0	0	16423	15050	156910	27422	952626	37823	105938	0	0	8152	784015	0	0
2024-04-26 00:23:32			0	33577	0	0	0	16420	15050	156742	27426	952626	37823	105937	0	0	8152	783709	0	0
2024-04-26 00:24:32			0	33594	0	0	0	16410	15050	156850	27218	952547	37823	105933	0	0	8153	782842	0	0
2024-04-26 00:25:32			0	33594	0	0	0	16412	15060	156674	27164	952563	37825	105934	0	0	8153	782800	0	0
2024-04-26 00:26:32			0	33619	0	0	0	16420	15050	156582	27507	952652	37845	105937	0	0	8155	781569	0	0
2024-04-26 00:27:32			0	33647	0	0	0	16405	15050	156478	27249	952581	37834	105931	0	0	8156	780145	0	0
2024-04-26 00:28:32			0	33642	0	0	0	16399	15050	156434	27564	952600	37823	105929	0	0	8156	780399	0	0
2024-04-26 00:29:32			0	33637	0	0	0	16381	15040	156458	27428	952565	37833	105922	0	0	8156	780695	0	0
2024-04-26 00:30:32			0	33656	0	0	0	16392	15050	156450	27474	952547	37833	105926	0	0	8157	779688	0	0
2024-04-26 00:31:32			0	33650	0	0	0	16368	15040	156550	27490	952531	37833	105917	0	0	8157	780034	0	0
2024-04-26 00:32:32			0	33631	0	0	0	16374	15040	156462	27504	952486	37823	105919	0	0	8156	781000	0	0
2024-04-26 00:33:32			0	33632	0	0	0	16363	15030	156534	27578	952436	37822	105915	0	0	8156	780992	0	0
2024-04-26 00:34:32			0	33635	0	0	0	16371	15030	156586	27348	952444	37823	105918	0	0	8156	780839	0	0
2024-04-26 00:35:32			0	33620	0	0	0	16363	15020	156614	27329	952480	37811	105915	0	0	8155	781644	0	0
2024-04-26 00:36:32			0	33607	0	0	0	16368	15030	156638	27372	952383	37822	105917	0	0	8155	782264	0	0
2024-04-26 00:37:32			0	33631	0	0	0	16374	15020	156602	27369	952427	37833	105919	0	0	8156	781084	0	0
2024-04-26 00:38:32			0	33612	0	0	0	16366	15010	156574	27109	952385	37810	105916	0	0	8155	782093	0	0
2024-04-26 00:39:32			0	33631	0	0	0	16355	15010	156590	27441	952403	37820	105912	0	0	8156	781126	0	0
2024-04-26 00:40:32			0	33644	0	0	0	16345	15010	156542	27708	952350	37809	105908	0	0	8157	780465	0	0
2024-04-26 00:41:32			0	33631	0	0	0	16342	15020	156534	27300	952367	37832	105907	0	0	8156	781084	0	0
2024-04-26 00:42:32			0	33626	0	0	0	16332	15000	156554	27530	952316	37820	105903	0	0	8156	781423	0	0
2024-04-26 00:43:32			0	33637	0	0	0	16335	15000	156474	27476	952342	37820	105904	0	0	8157	780863	0	0
2024-04-26 00:44:32			0	33648	0	0	0	16329	15010	156542	27675	952219	37820	105902	0	0	8158	780262	0	0
2024-04-26 00:45:32			0	33649	0	0	0	16324	14990	156546	27426	952326	37819	105900	0	0	8158	780295	0	0
2024-04-26 00:46:32			0	33658	0	0	0	16327	14980	156502	27474	952291	37818	105901	0	0	8158	779879	0	0
2024-04-26 00:47:32			0	33670	0	0	0	16329	14980	156530	27798	952310	37829	105902	0	0	8159	779270	0	0
2024-04-26 00:48:32			0	33678	0	0	0	16337	14980	156390	27450	952265	37818	105905	0	0	8159	778863	0	0
2024-04-26 00:49:32			0	33711	0	0	0	16332	14970	156246	27531	952275	37817	105903	0	0	8161	777232	0	0
2024-04-26 00:50:32			0	33716	0	0	0	16337	14990	156130	27312	952300	37819	105905	0	0	8161	776895	0	0
2024-04-26 00:51:32			0	33746	0	0	0	16345	14970	156062	27313	952328	37829	105908	0	0	8163	775460	0	0
2024-04-26 00:52:32			0	33753	0	0	0	16342	14970	155982	27492	952275	37817	105907	0	0	8163	775106	0	0
2024-04-26 00:53:32			0	33781	0	0	0	16342	14970	156026	27457	952275	37817	105907	0	0	8165	773691	0	0
2024-04-26 00:54:32			0	33791	0	0	0	16368	14990	155930	27301	952352	37819	105917	0	0	8165	773103	0	0
2024-04-26 00:55:32			0	33798	0	0	0	16381	14970	155894	27187	952328	37829	105922	0	0	8165	772833	0	0
2024-04-26 00:56:32			0	33803	0	0	0	16384	14990	155822	27467	952378	37819	105923	0	0	8166	772498	0	0
2024-04-26 00:57:32			0	33815	0	0	0	16389	14990	155750	27371	952431	37819	105925	0	0	8166	771893	0	0
2024-04-26 00:58:32			0	33834	0	0	0	16394	14990	155750	27274	952413	37819	105927	0	0	8167	770936	0	0
2024-04-26 00:59:32			0	33881	0	0	0	16371	14990	155554	27410	952405	37819	105918	0	0	8171	768573	0	0
2024-04-26 01:00:32			0	33921	0	0	0	16379	14990	155322	27469	952484	37819	105921	0	0	8173	766566	0	0
2024-04-26 01:01:32			0	33953	0	0	0	16379	14990	155098	27711	952413	37819	105921	0	0	8175	764964	0	0
2024-04-26 01:02:32			0	33960	0	0	0	16405	15000	155182	27516	952421	37820	105931	0	0	8175	764573	0	0
2024-04-26 01:03:32			0	33944	0	0	0	16433	14990	155174	27225	952439	37830	105942	0	0	8173	765414	0	0
2024-04-26 01:04:32			0	33941	0	0	0	16441	15010	155190	27405	952508	37852	105945	0	0	8173	765482	0	0
2024-04-26 01:05:32			0	33938	0	0	0	16444	15020	155282	27580	952603	37842	105946	0	0	8173	765591	0	0
2024-04-26 01:06:32			0	33943	0	0	0	16436	15020	155154	27486	952612	37833	105943	0	0	8173	765341	0	0
2024-04-26 01:07:32			0	33939	0	0	0	16438	15030	155134	27646	952601	37844	105944	0	0	8173	765500	0	0
2024-04-26 01:08:32			0	33917	0	0	0	16418	15040	155230	27329	952662	37823	105936	0	0	8172	766561	0	0
2024-04-26 01:09:32			0	33922	0	0	0	16415	15030	155214	27511	952567	37833	105935	0	0	8172	766351	0	0
2024-04-26 01:10:32			0	33897	0	0	0	16405	15040	155310	27398	952565	37823	105931	0	0	8171	767564	0	0
2024-04-26 01:11:32			0	33890	0	0	0	16407	15040	155410	27632	952539	37833	105932	0	0	8171	767915	0	0
2024-04-26 01:12:32			0	33875	0	0	0	16407	15020	155406	27466	952559	37822	105932	0	0	8170	768750	0	0
2024-04-26 01:13:32			0	33882	0	0	0	16405	15030	155466	27334	952541	37833	105931	0	0	8170	768358	0	0
2024-04-26 01:14:32			0	33870	0	0	0	16402	15040	155514	27261	952504	37823	105930	0	0	8170	768919	0	0
2024-04-26 01:15:32			0	33864	0	0	0	16399	15030	155486	27490	952515	37822	105929	0	0	8169	769262	0	0
2024-04-26 01:16:32			0	33847	0	0	0	16402	15030	155626	27426	952523	37833	105930	0	0	8168	770117	0	0
2024-04-26 01:17:32			0	33847	0	0	0	16399	15030	155578	27504	952541	37822	105929	0	0	8168	770117	0	0
2024-04-26 01:18:32			0	33841	0	0	0	16407	15040	155434	27144	952557	37833	105932	0	0	8168	770377	0	0
2024-04-26 01:19:32			0	33834	0	0	0	16405	15030	155606	27154	952470	37833	105931	0	0	8167	770771	0	0
2024-04-26 01:20:32			0	33810	0	0	0	16405	15040	155666	27227	952557	37823	105931	0	0	8166	771938	0	0
2024-04-26 01:21:32			0	33805	0	0	0	16399	15030	155654	27379	952549	37833	105929	0	0	8166	772231	0	0
2024-04-26 01:22:32			0	33800	0	0	0	16405	15030	155670	27114	952549	37833	105931	0	0	8165	772484	0	0
2024-04-26 01:23:32			0	33793	0	0	0	16423	15040	155790	27360	952557	37823	105938	0	0	8165	772795	0	0
2024-04-26 01:24:32			0	33789	0	0	0	16433	15030	155838	27272	952601	37833	105942	0	0	8164	773038	0	0
2024-04-26 01:25:32			0	33764	0	0	0	16428	15040	155942	27488	952610	37833	105940	0	0	8163	774259	0	0
2024-04-26 01:26:32			0	33754	0	0	0	16425	15050	155942	27235	952678	37823	105939	0	0	8162	774722	0	0
2024-04-26 01:27:32			0	33739	0	0	0	16415	15040	156086	27339	952618	37833	105935	0	0	8162	775523	0	0
2024-04-26 01:28:32			0	33718	0	0	0	16407	15040	156206	27197	952591	37823	105932	0	0	8161	776585	0	0
2024-04-26 01:29:32			0	33684	0	0	0	16405	15040	156202	27381	952531	37823	105931	0	0	8159	778308	0	0
2024-04-26 01:30:32			0	33676	0	0	0	16407	15040	156358	27434	952644	37833	105932	0	0	8158	778714	0	0
2024-04-26 01:31:32			0	33680	0	0	0	16405	15040	156294	27549	952565	37823	105931	0	0	8158	778511	0	0
2024-04-26 01:32:32			0	33669	0	0	0	16410	15050	156298	27459	952678	37833	105933	0	0	8158	779028	0	0
2024-04-26 01:33:32			0	33670	0	0	0	16399	15040	156250	27112	952662	37833	105929	0	0	8158	779019	0	0
2024-04-26 01:34:32			0	33674	0	0	0	16407	15040	156326	27403	952513	37833	105932	0	0	8158	778816	0	0
2024-04-26 01:35:32			0	33684	0	0	0	16410	15050	156270	27409	952626	37823	105933	0	0	8159	778267	0	0
2024-04-26 01:36:32			0	33681	0	0	0	16415	15040	156330	26885	952531	37823	105935	0	0	8158	778461	0	0
2024-04-26 01:37:32			0	33673	0	0	0	16410	15030	156298	27235	952549	37823	105933	0	0	8158	778908	0	0
2024-04-26 01:38:32			0	33686	0	0	0	16399	15040	156206	27235	952644	37833	105929	0	0	8159	778207	0	0
2024-04-26 01:39:32			0	33684	0	0	0	16407	15040	156254	27410	952591	37833	105932	0	0	8159	778308	0	0
2024-04-26 01:40:32			0	33689	0	0	0	16405	15040	156230	27403	952618	37823	105931	0	0	8159	778055	0	0
2024-04-26 01:41:32			0	33670	0	0	0	16410	15040	156218	27377	952557	37833	105933	0	0	8158	779019	0	0
2024-04-26 01:42:32			0	33685	0	0	0	16418	15040	156314	27111	952618	37812	105936	0	0	8158	778258	0	0
2024-04-26 01:43:32			0	33705	0	0	0	16418	15030	156270	27069	952549	37833	105936	0	0	8160	777285	0	0
2024-04-26 01:44:32			0	33688	0	0	0	16410	15040	156242	27310	952662	37823	105933	0	0	8159	778105	0	0
2024-04-26 01:45:32			0	33692	0	0	0	16412	15040	156246	27530	952565	37833	105934	0	0	8159	777903	0	0
2024-04-26 01:46:32			0	33688	0	0	0	16418	15050	156178	27194	952573	37833	105936	0	0	8159	778064	0	0
2024-04-26 01:47:32			0	33691	0	0	0	16410	15040	156310	27300	952618	37823	105933	0	0	8159	777953	0	0
2024-04-26 01:48:32			0	33691	0	0	0	16415	15050	156178	27434	952626	37833	105935	0	0	8159	777911	0	0
2024-04-26 01:49:32			0	33690	0	0	0	16412	15040	156234	27644	952591	37833	105934	0	0	8159	778004	0	0
2024-04-26 01:50:32			0	33702	0	0	0	16412	15040	156230	27393	952636	37833	105934	0	0	8160	777396	0	0
2024-04-26 01:51:32			0	33677	0	0	0	16402	15050	156174	27381	952652	37833	105930	0	0	8158	778622	0	0
2024-04-26 01:52:32			0	33688	0	0	0	16412	15050	156266	27530	952652	37833	105934	0	0	8159	778064	0	0
2024-04-26 01:53:32			0	33720	0	0	0	16412	15050	156238	27490	952547	37833	105934	0	0	8161	776442	0	0
2024-04-26 01:54:32			0	33693	0	0	0	16423	15040	156182	27462	952557	37823	105938	0	0	8159	777852	0	0
2024-04-26 01:55:32			0	33700	0	0	0	16415	15040	156258	27305	952539	37845	105935	0	0	8159	777497	0	0
2024-04-26 01:56:32			0	33678	0	0	0	16407	15040	156366	27322	952591	37845	105932	0	0	8158	778613	0	0
2024-04-26 01:57:32			0	33687	0	0	0	16397	15040	156390	27421	952513	37833	105928	0	0	8159	778156	0	0
2024-04-26 01:58:32			0	33687	0	0	0	16410	15040	156234	27403	952565	37833	105933	0	0	8159	778156	0	0
2024-04-26 01:59:32			0	33680	0	0	0	16407	15040	156374	27455	952557	37833	105932	0	0	8158	778511	0	0
2024-04-26 02:00:32			0	33676	0	0	0	16405	15030	156322	27201	952523	37811	105931	0	0	8158	778756	0	0
2024-04-26 02:01:32			0	33676	0	0	0	16402	15040	156342	27352	952565	37845	105930	0	0	8158	778714	0	0
2024-04-26 02:02:32			0	33680	0	0	0	16405	15040	156302	27505	952557	37833	105931	0	0	8158	778511	0	0
2024-04-26 02:03:32			0	33648	0	0	0	16410	15030	156310	27448	952628	37844	105933	0	0	8156	780178	0	0
2024-04-26 02:04:32			0	33662	0	0	0	16423	15040	156262	27374	952644	37833	105938	0	0	8157	779425	0	0
2024-04-26 02:05:32			0	33686	0	0	0	16410	15040	156302	27438	952618	37845	105933	0	0	8159	778207	0	0
2024-04-26 02:06:32			0	33668	0	0	0	16415	15040	156318	27493	952662	37845	105935	0	0	8157	779120	0	0
2024-04-26 02:07:32			0	33668	0	0	0	16423	15040	156278	27460	952662	37833	105938	0	0	8157	779120	0	0
2024-04-26 02:08:32			0	33665	0	0	0	16423	15050	156330	27578	952652	37833	105938	0	0	8157	779231	0	0
2024-04-26 02:09:32			0	33669	0	0	0	16425	15050	156410	27479	952652	37833	105939	0	0	8157	779028	0	0
2024-04-26 02:10:32			0	33671	0	0	0	16425	15050	156422	27308	952626	37833	105939	0	0	8158	778926	0	0
2024-04-26 02:11:32			0	33674	0	0	0	16410	15050	156290	27471	952660	37845	105933	0	0	8158	778774	0	0
2024-04-26 02:12:32			0	33662	0	0	0	16425	15040	156402	27274	952670	37823	105939	0	0	8157	779425	0	0
2024-04-26 02:13:32			0	33662	0	0	0	16420	15060	156414	27209	952668	37835	105937	0	0	8157	779341	0	0
2024-04-26 02:14:32			0	33660	0	0	0	16418	15050	156418	27334	952626	37833	105936	0	0	8157	779485	0	0
2024-04-26 02:15:32			0	33650	0	0	0	16418	15050	156410	27379	952652	37845	105936	0	0	8156	779993	0	0
2024-04-26 02:16:32			0	33644	0	0	0	16420	15050	156442	27315	952573	37845	105937	0	0	8156	780298	0	0
2024-04-26 02:17:32			0	33650	0	0	0	16425	15060	156238	27358	952668	37835	105939	0	0	8156	779951	0	0
2024-04-26 02:18:32			0	33641	0	0	0	16425	15050	156398	27609	952573	37845	105939	0	0	8156	780450	0	0
2024-04-26 02:19:32			0	33632	0	0	0	16423	15040	156422	27495	952644	37833	105938	0	0	8155	780950	0	0
2024-04-26 02:20:32			0	33638	0	0	0	16415	15050	156398	27190	952687	37845	105935	0	0	8156	780603	0	0
2024-04-26 02:21:32			0	33630	0	0	0	16423	15050	156514	27220	952713	37824	105938	0	0	8155	781009	0	0
2024-04-26 02:22:32			0	33626	0	0	0	16412	15050	156434	27435	952660	37845	105934	0	0	8155	781213	0	0
2024-04-26 02:23:32			0	33603	0	0	0	16407	15050	156534	27209	952600	37845	105932	0	0	8154	782384	0	0
2024-04-26 02:24:32			0	33616	0	0	0	16412	15050	156622	27320	952687	37845	105934	0	0	8154	781722	0	0
2024-04-26 02:25:32			0	33605	0	0	0	16418	15040	156570	27360	952539	37845	105936	0	0	8154	782324	0	0
2024-04-26 02:26:32			0	33608	0	0	0	16418	15050	156586	27479	952687	37845	105936	0	0	8154	782129	0	0
2024-04-26 02:27:32			0	33608	0	0	0	16420	15040	156590	27462	952565	37833	105937	0	0	8154	782171	0	0
2024-04-26 02:28:32			0	33570	0	0	0	16410	15050	156634	27220	952608	37824	105933	0	0	8152	784066	0	0
2024-04-26 02:29:32			0	33584	0	0	0	16420	15050	156686	27326	952705	37833	105937	0	0	8152	783352	0	0
2024-04-26 02:30:32			0	33580	0	0	0	16418	15050	156770	27521	952626	37845	105936	0	0	8152	783556	0	0
2024-04-26 02:31:32			0	33562	0	0	0	16415	15060	156761	27294	952589	37835	105935	0	0	8151	784433	0	0
2024-04-26 02:32:32			0	33566	0	0	0	16420	15050	156729	27616	952660	37824	105937	0	0	8151	784270	0	0
2024-04-26 02:33:32			0	33552	0	0	0	16412	15040	156813	27201	952539	37833	105934	0	0	8151	785027	0	0
2024-04-26 02:34:32			0	33545	0	0	0	16399	15040	156865	27213	952670	37845	105929	0	0	8150	785385	0	0
2024-04-26 02:35:32			0	33544	0	0	0	16389	15040	156837	27279	952486	37833	105925	0	0	8151	785436	0	0
2024-04-26 02:36:32			0	33541	0	0	0	16389	15040	156905	27422	952565	37833	105925	0	0	8150	785589	0	0
2024-04-26 02:37:32			0	33531	0	0	0	16394	15040	156917	27180	952557	37833	105927	0	0	8150	786101	0	0
2024-04-26 02:38:32			0	33523	0	0	0	16405	15040	156973	27523	952591	37823	105931	0	0	8149	786510	0	0
2024-04-26 02:39:32			0	33527	0	0	0	16399	15020	156981	27296	952506	37833	105929	0	0	8149	786390	0	0
2024-04-26 02:40:32			0	33502	0	0	0	16399	15030	157029	27060	952549	37833	105929	0	0	8148	787627	0	0
2024-04-26 02:41:32			0	33497	0	0	0	16407	15040	156965	27293	952618	37833	105932	0	0	8147	787841	0	0
2024-04-26 02:42:32			0	33502	0	0	0	16407	15040	157049	27447	952636	37833	105932	0	0	8148	787585	0	0
2024-04-26 02:43:32			0	33528	0	0	0	16410	15030	156965	27338	952575	37833	105933	0	0	8149	786296	0	0
2024-04-26 02:44:32			0	33543	0	0	0	16407	15030	156933	27351	952541	37822	105932	0	0	8150	785529	0	0
2024-04-26 02:45:32			0	33546	0	0	0	16410	15030	156825	27568	952541	37822	105933	0	0	8150	785376	0	0
2024-04-26 02:46:32			0	33568	0	0	0	16405	15020	156761	27306	952533	37822	105931	0	0	8152	784295	0	0
2024-04-26 02:47:32			0	33602	0	0	0	16399	15030	156602	27322	952593	37843	105929	0	0	8154	782519	0	0
2024-04-26 02:48:32			0	33627	0	0	0	16397	15020	156558	27498	952480	37822	105928	0	0	8155	781288	0	0
2024-04-26 02:49:32			0	33626	0	0	0	16392	15030	156382	27421	952523	37833	105926	0	0	8155	781297	0	0
2024-04-26 02:50:32			0	33650	0	0	0	16389	15030	156338	27339	952515	37843	105925	0	0	8157	780076	0	0
2024-04-26 02:51:32			0	33664	0	0	0	16376	15030	156194	27286	952462	37822	105920	0	0	8158	779365	0	0
2024-04-26 02:52:32			0	33651	0	0	0	16350	15020	156174	27291	952498	37821	105910	0	0	8157	780067	0	0
2024-04-26 02:53:32			0	33655	0	0	0	16350	15020	156186	27189	952454	37833	105910	0	0	8158	779864	0	0
2024-04-26 02:54:32			0	33647	0	0	0	16342	15010	156362	27190	952429	37841	105907	0	0	8157	780313	0	0
2024-04-26 02:55:32			0	33639	0	0	0	16332	15000	156374	27431	952447	37831	105903	0	0	8157	780761	0	0
2024-04-26 02:56:32			0	33625	0	0	0	16327	14990	156450	27557	952413	37819	105901	0	0	8156	781515	0	0
2024-04-26 02:57:32			0	33592	0	0	0	16316	14980	156546	27322	952318	37839	105897	0	0	8154	783239	0	0
2024-04-26 02:58:32			0	33556	0	0	0	16314	14980	156685	27521	952291	37829	105896	0	0	8152	785076	0	0
2024-04-26 02:59:32			0	33544	0	0	0	16311	14980	156893	27360	952310	37829	105895	0	0	8152	785689	0	0
2024-04-26 03:00:32			0	33526	0	0	0	16319	14970	156885	27114	952267	37817	105898	0	0	8150	786652	0	0
2024-04-26 03:01:32			0	33488	0	0	0	16342	14970	157049	27211	952346	37828	105907	0	0	8148	788598	0	0
2024-04-26 03:02:32			0	33490	0	0	0	16340	14960	157145	27133	952285	37828	105906	0	0	8148	788538	0	0
2024-04-26 03:03:32			0	33461	0	0	0	16345	14970	157161	27178	952328	37829	105908	0	0	8146	789983	0	0
2024-04-26 03:04:32			0	33449	0	0	0	16363	14970	157341	27223	952320	37838	105915	0	0	8145	790600	0	0
2024-04-26 03:05:32			0	33424	0	0	0	16361	14980	157373	27452	952362	37817	105914	0	0	8144	791842	0	0
2024-04-26 03:06:32			0	33431	0	0	0	16358	14990	157433	27128	952352	37840	105913	0	0	8144	791440	0	0
2024-04-26 03:07:32			0	33424	0	0	0	16361	14980	157485	27192	952389	37839	105914	0	0	8144	791842	0	0
2024-04-26 03:08:32			0	33409	0	0	0	16353	14980	157421	27699	952389	37839	105911	0	0	8143	792614	0	0
2024-04-26 03:09:32			0	33398	0	0	0	16361	14980	157613	27362	952362	37829	105914	0	0	8142	793181	0	0
2024-04-26 03:10:32			0	33403	0	0	0	16361	14970	157537	27241	952380	37829	105914	0	0	8142	792966	0	0
2024-04-26 03:11:32			0	33397	0	0	0	16348	14980	157497	27128	952362	37829	105909	0	0	8142	793232	0	0
2024-04-26 03:12:32			0	33406	0	0	0	16348	14980	157625	27334	952310	37839	105909	0	0	8143	792769	0	0
2024-04-26 03:13:32			0	33403	0	0	0	16335	14970	157553	27348	952275	37829	105904	0	0	8143	792966	0	0
2024-04-26 03:14:32			0	33385	0	0	0	16298	14970	157541	27045	952267	37828	105890	0	0	8142	793893	0	0
2024-04-26 03:15:32			0	33387	0	0	0	16285	14950	157573	27383	952243	37816	105885	0	0	8143	793875	0	0
2024-04-26 03:16:32			0	33401	0	0	0	16280	14950	157481	27244	952182	37804	105883	0	0	8143	793154	0	0
2024-04-26 03:17:32			0	33415	0	0	0	16267	14940	157413	27310	952121	37815	105878	0	0	8144	792475	0	0
2024-04-26 03:18:32			0	33467	0	0	0	16264	14950	157293	27275	952156	37815	105877	0	0	8148	789760	0	0
2024-04-26 03:19:32			0	33500	0	0	0	16262	14930	157069	27230	952131	37814	105876	0	0	8150	788152	0	0
2024-04-26 03:20:32			0	33507	0	0	0	16264	14930	156989	27507	952131	37825	105877	0	0	8150	787793	0	0
2024-04-26 03:21:32			0	33508	0	0	0	16270	14940	157013	27329	952087	37803	105879	0	0	8150	787700	0	0
2024-04-26 03:22:32			0	33484	0	0	0	16264	14920	157069	27505	952081	37824	105877	0	0	8149	789015	0	0
2024-04-26 03:23:32			0	33468	0	0	0	16249	14930	157129	27282	952097	37813	105871	0	0	8148	789793	0	0
2024-04-26 03:24:32			0	33448	0	0	0	16246	14910	157241	27454	952012	37812	105870	0	0	8147	790905	0	0
2024-04-26 03:25:32			0	33430	0	0	0	16238	14910	157205	27455	951986	37812	105867	0	0	8146	791831	0	0
2024-04-26 03:26:32			0	33430	0	0	0	16238	14900	157485	27209	951951	37811	105867	0	0	8146	791874	0	0
2024-04-26 03:27:32			0	33389	0	0	0	16225	14900	157557	27241	951969	37811	105862	0	0	8143	793985	0	0
2024-04-26 03:28:32			0	33371	0	0	0	16231	14900	157613	27369	951969	37811	105864	0	0	8142	794914	0	0
2024-04-26 03:29:32			0	33335	0	0	0	16225	14890	157841	27341	951979	37799	105862	0	0	8140	796816	0	0
2024-04-26 03:30:32			0	33317	0	0	0	16236	14890	157841	27175	951979	37810	105866	0	0	8139	797747	0	0
2024-04-26 03:31:32			0	33303	0	0	0	16236	14880	158025	27249	951945	37809	105866	0	0	8138	798515	0	0
2024-04-26 03:32:32			0	33280	0	0	0	16231	14890	158101	27388	952006	37821	105864	0	0	8137	799664	0	0
2024-04-26 03:33:32			0	33261	0	0	0	16215	14880	158197	26963	951937	37809	105858	0	0	8136	800693	0	0
2024-04-26 03:34:32			0	33254	0	0	0	16215	14870	158237	27390	951929	37808	105858	0	0	8135	801099	0	0
2024-04-26 03:35:32			0	33262	0	0	0	16223	14880	158285	27209	951945	37831	105861	0	0	8136	800641	0	0
2024-04-26 03:36:32			0	33241	0	0	0	16220	14880	158393	26974	951937	37798	105860	0	0	8134	801732	0	0
2024-04-26 03:37:32			0	33228	0	0	0	16231	14870	158409	27079	951955	37819	105864	0	0	8133	802451	0	0
2024-04-26 03:38:32			0	33227	0	0	0	16233	14870	158453	27142	951920	37808	105865	0	0	8133	802503	0	0
2024-04-26 03:39:32			0	33232	0	0	0	16220	14860	158353	27064	951833	37807	105860	0	0	8134	802286	0	0
2024-04-26 03:40:32			0	33222	0	0	0	16220	14870	158421	27124	951920	37819	105860	0	0	8133	802763	0	0
2024-04-26 03:41:32			0	33225	0	0	0	16233	14870	158441	27242	951894	37808	105865	0	0	8133	802607	0	0
2024-04-26 03:42:32			0	33231	0	0	0	16228	14870	158513	27334	951947	37808	105863	0	0	8134	802295	0	0
2024-04-26 03:43:32			0	33206	0	0	0	16233	14860	158469	27287	951912	37819	105865	0	0	8132	803639	0	0
2024-04-26 03:44:32			0	33238	0	0	0	16231	14870	158401	27230	951929	37819	105864	0	0	8134	801931	0	0
2024-04-26 03:45:32			0	33215	0	0	0	16220	14860	158453	27466	951886	37819	105860	0	0	8133	803170	0	0
2024-04-26 03:46:32			0	33223	0	0	0	16220	14860	158469	27189	951878	37819	105860	0	0	8133	802754	0	0
2024-04-26 03:47:32			0	33245	0	0	0	16215	14860	158421	27549	951930	37819	105858	0	0	8135	801610	0	0
2024-04-26 03:48:32			0	33240	0	0	0	16210	14860	158389	27509	951825	37819	105856	0	0	8134	801870	0	0
2024-04-26 03:49:32			0	33222	0	0	0	16220	14860	158321	27201	951939	37819	105860	0	0	8133	802806	0	0
2024-04-26 03:50:32			0	33222	0	0	0	16218	14860	158389	27538	951886	37796	105859	0	0	8133	802806	0	0
2024-04-26 03:51:32			0	33226	0	0	0	16220	14860	158329	27725	951886	37807	105860	0	0	8133	802598	0	0
2024-04-26 03:52:32			0	33234	0	0	0	16205	14860	158429	27426	951878	37819	105854	0	0	8134	802182	0	0
2024-04-26 03:53:32			0	33222	0	0	0	16220	14840	158213	27588	951775	37806	105860	0	0	8133	802892	0	0
2024-04-26 03:54:32			0	33239	0	0	0	16212	14860	158345	27270	951904	37796	105857	0	0	8134	801922	0	0
2024-04-26 03:55:32			0	33236	0	0	0	16218	14850	158309	27171	951862	37807	105859	0	0	8134	802121	0	0
2024-04-26 03:56:32			0	33239	0	0	0	16220	14850	158345	27474	951809	37795	105860	0	0	8134	801965	0	0
2024-04-26 03:57:32			0	33236	0	0	0	16225	14840	158317	27251	951827	37806	105862	0	0	8134	802164	0	0
2024-04-26 03:58:32			0	33255	0	0	0	16215	14850	158353	27405	951843	37807	105858	0	0	8135	801133	0	0
2024-04-26 03:59:32			0	33232	0	0	0	16220	14850	158329	27208	951817	37807	105860	0	0	8134	802329	0	0
2024-04-26 04:00:32			0	33249	0	0	0	16223	14850	158365	27441	951862	37807	105861	0	0	8135	801445	0	0
2024-04-26 04:01:32			0	33248	0	0	0	16220	14860	158397	27322	951904	37830	105860	0	0	8135	801454	0	0
2024-04-26 04:02:32			0	33250	0	0	0	16215	14850	158257	27677	951843	37818	105858	0	0	8135	801393	0	0
2024-04-26 04:03:32			0	33257	0	0	0	16210	14860	158209	27398	951904	37807	105856	0	0	8136	800987	0	0
2024-04-26 04:04:32			0	33277	0	0	0	16223	14850	158181	27467	951862	37807	105861	0	0	8136	799991	0	0
2024-04-26 04:05:32			0	33286	0	0	0	16218	14860	158137	27284	951860	37819	105859	0	0	8137	799482	0	0
2024-04-26 04:06:32			0	33288	0	0	0	16220	14850	158097	27509	951809	37818	105860	0	0	8137	799421	0	0
2024-04-26 04:07:32			0	33283	0	0	0	16207	14850	158045	27588	951896	37807	105855	0	0	8137	799680	0	0
2024-04-26 04:08:32			0	33306	0	0	0	16199	14860	158037	27317	951852	37807	105852	0	0	8139	798445	0	0
2024-04-26 04:09:32			0	33308	0	0	0	16215	14850	158037	27388	951835	37807	105858	0	0	8138	798384	0	0
2024-04-26 04:10:32			0	33294	0	0	0	16212	14840	158009	27339	951827	37806	105857	0	0	8138	799153	0	0
2024-04-26 04:11:32			0	33281	0	0	0	16220	14850	158157	27310	951862	37818	105860	0	0	8137	799784	0	0
2024-04-26 04:12:32			0	33277	0	0	0	16215	14850	158137	27156	951843	37829	105858	0	0	8137	799991	0	0
2024-04-26 04:13:32			0	33288	0	0	0	16215	14850	158077	27640	951862	37795	105858	0	0	8137	799421	0	0
2024-04-26 04:14:32			0	33273	0	0	0	16223	14840	158113	27138	951854	37806	105861	0	0	8136	800242	0	0
2024-04-26 04:15:32			0	33275	0	0	0	16212	14850	158257	27464	951888	37807	105857	0	0	8137	800095	0	0
2024-04-26 04:16:32			0	33238	0	0	0	16210	14850	158301	27492	951843	37807	105856	0	0	8134	802017	0	0
2024-04-26 04:17:32			0	33237	0	0	0	16212	14850	158357	27545	951870	37818	105857	0	0	8134	802069	0	0
2024-04-26 04:18:32			0	33232	0	0	0	16207	14850	158361	27234	951835	37785	105855	0	0	8134	802329	0	0
2024-04-26 04:19:32			0	33221	0	0	0	16215	14840	158473	27267	951827	37817	105858	0	0	8133	802944	0	0
2024-04-26 04:20:32			0	33225	0	0	0	16210	14840	158473	27267	951801	37817	105856	0	0	8133	802736	0	0
2024-04-26 04:21:32			0	33226	0	0	0	16210	14830	158585	27409	951803	37816	105856	0	0	8133	802727	0	0
2024-04-26 04:22:32			0	33192	0	0	0	16205	14840	158517	27571	951801	37806	105854	0	0	8132	804454	0	0
2024-04-26 04:23:32			0	33186	0	0	0	16202	14850	158589	27249	951835	37807	105853	0	0	8131	804724	0	0
2024-04-26 04:24:32			0	33201	0	0	0	16205	14850	158557	27274	951862	37818	105854	0	0	8132	803942	0	0
2024-04-26 04:25:32			0	33194	0	0	0	16207	14840	158609	27355	951854	37795	105855	0	0	8132	804350	0	0
2024-04-26 04:26:32			0	33188	0	0	0	16199	14830	158581	27433	951785	37805	105852	0	0	8131	804706	0	0
2024-04-26 04:27:32			0	33161	0	0	0	16189	14830	158641	27126	951811	37816	105848	0	0	8130	806115	0	0
2024-04-26 04:28:32			0	33196	0	0	0	16192	14840	158641	27336	951793	37805	105849	0	0	8132	804246	0	0
2024-04-26 04:29:32			0	33186	0	0	0	16194	14830	158677	27218	951758	37794	105850	0	0	8131	804810	0	0
2024-04-26 04:30:32			0	33192	0	0	0	16179	14820	158585	27504	951769	37804	105844	0	0	8132	804540	0	0
2024-04-26 04:31:32			0	33202	0	0	0	16176	14830	158605	27294	951750	37816	105843	0	0	8133	803976	0	0
2024-04-26 04:32:32			0	33190	0	0	0	16184	14830	158509	27417	951758	37805	105846	0	0	8132	804602	0	0
2024-04-26 04:33:32			0	33197	0	0	0	16184	14830	158577	27052	951758	37816	105846	0	0	8132	804237	0	0
2024-04-26 04:34:32			0	33202	0	0	0	16184	14830	158589	27280	951750	37816	105846	0	0	8132	803976	0	0
2024-04-26 04:35:32			0	33213	0	0	0	16184	14830	158529	27504	951724	37805	105846	0	0	8133	803403	0	0
2024-04-26 04:36:32			0	33206	0	0	0	16181	14820	158545	27201	951742	37804	105845	0	0	8133	803811	0	0
2024-04-26 04:37:32			0	33210	0	0	0	16181	14820	158513	27072	951734	37803	105845	0	0	8133	803603	0	0
2024-04-26 04:38:32			0	33209	0	0	0	16176	14820	158573	27552	951742	37804	105843	0	0	8133	803655	0	0
2024-04-26 04:39:32			0	33228	0	0	0	16171	14820	158437	27386	951795	37793	105841	0	0	8134	802666	0	0
2024-04-26 04:40:32			0	33235	0	0	0	16176	14810	158457	27152	951673	37803	105843	0	0	8135	802345	0	0
2024-04-26 04:41:32			0	33226	0	0	0	16161	14820	158449	27225	951682	37814	105837	0	0	8134	802770	0	0
2024-04-26 04:42:32			0	33229	0	0	0	16168	14810	158417	27341	951726	37803	105840	0	0	8134	802657	0	0
2024-04-26 04:43:32			0	33232	0	0	0	16176	14820	158509	27376	951769	37804	105843	0	0	8134	802458	0	0
2024-04-26 04:44:32			0	33234	0	0	0	16168	14810	158505	27192	951726	37803	105840	0	0	8135	802397	0	0
2024-04-26 04:45:32			0	33248	0	0	0	16168	14810	158409	27124	951726	37792	105840	0	0	8135	801669	0	0
2024-04-26 04:46:32			0	33242	0	0	0	16171	14810	158397	27595	951744	37814	105841	0	0	8135	801981	0	0
2024-04-26 04:47:32			0	33259	0	0	0	16171	14810	158353	27351	951673	37814	105841	0	0	8136	801097	0	0
2024-04-26 04:48:32			0	33257	0	0	0	16176	14810	158313	27126	951673	37803	105843	0	0	8136	801201	0	0
2024-04-26 04:49:32			0	33267	0	0	0	16166	14810	158345	27322	951718	37814	105839	0	0	8137	800682	0	0
2024-04-26 04:50:32			0	33274	0	0	0	16161	14810	158133	27178	951665	37803	105837	0	0	8137	800319	0	0
2024-04-26 04:51:32			0	33288	0	0	0	16166	14810	158189	27163	951718	37792	105839	0	0	8138	799592	0	0
2024-04-26 04:52:32			0	33303	0	0	0	16171	14800	158129	27393	951683	37802	105841	0	0	8139	798857	0	0
2024-04-26 04:53:32			0	33294	0	0	0	16171	14800	158117	27466	951657	37802	105841	0	0	8138	799324	0	0
2024-04-26 04:54:32			0	33303	0	0	0	16171	14800	158185	27147	951710	37802	105841	0	0	8139	798857	0	0
2024-04-26 04:55:32			0	33334	0	0	0	16161	14800	158037	27580	951649	37791	105837	0	0	8141	797252	0	0
2024-04-26 04:56:32			0	33320	0	0	0	16161	14800	158045	27483	951657	37802	105837	0	0	8140	797977	0	0
2024-04-26 04:57:32			0	33318	0	0	0	16163	14810	157961	27206	951665	37814	105838	0	0	8140	798038	0	0
2024-04-26 04:58:32			0	33334	0	0	0	16171	14800	157973	27315	951762	37814	105841	0	0	8141	797252	0	0
2024-04-26 04:59:32			0	33329	0	0	0	16163	14800	158013	27350	951762	37802	105838	0	0	8140	797511	0	0
2024-04-26 05:00:32			0	33314	0	0	0	16163	14810	158089	27455	951718	37803	105838	0	0	8140	798245	0	0
2024-04-26 05:01:32			0	33324	0	0	0	16171	14800	158077	27274	951649	37802	105841	0	0	8140	797770	0	0
2024-04-26 05:02:32			0	33342	0	0	0	16171	14810	157929	27043	951692	37825	105841	0	0	8141	796796	0	0
2024-04-26 05:03:32			0	33318	0	0	0	16168	14800	158009	26994	951702	37802	105840	0	0	8140	798080	0	0
2024-04-26 05:04:32			0	33323	0	0	0	16166	14800	157997	27150	951728	37813	105839	0	0	8140	797821	0	0
2024-04-26 05:05:32			0	33326	0	0	0	16176	14790	157965	27377	951667	37802	105843	0	0	8140	797709	0	0
2024-04-26 05:06:32			0	33324	0	0	0	16168	14800	158105	27478	951702	37802	105840	0	0	8140	797770	0	0
2024-04-26 05:07:32			0	33338	0	0	0	16163	14800	158013	27326	951702	37802	105838	0	0	8141	797045	0	0
2024-04-26 05:08:32			0	33327	0	0	0	16163	14800	158057	27500	951710	37802	105838	0	0	8140	797615	0	0
2024-04-26 05:09:32			0	33312	0	0	0	16163	14800	158021	27274	951675	37813	105838	0	0	8139	798391	0	0
2024-04-26 05:10:32			0	33306	0	0	0	16163	14810	157973	27355	951718	37803	105838	0	0	8139	798659	0	0
2024-04-26 05:11:32			0	33292	0	0	0	16166	14810	158073	27341	951665	37814	105839	0	0	8138	799385	0	0
2024-04-26 05:12:32			0	33294	0	0	0	16161	14800	158217	27305	951596	37802	105837	0	0	8138	799324	0	0
2024-04-26 05:13:32			0	33270	0	0	0	16163	14800	158185	27177	951683	37814	105838	0	0	8137	800569	0	0
2024-04-26 05:14:32			0	33241	0	0	0	16158	14800	158293	27289	951649	37802	105836	0	0	8135	802076	0	0
2024-04-26 05:15:32			0	33225	0	0	0	16163	14800	158425	27393	951623	37824	105838	0	0	8134	802908	0	0
2024-04-26 05:16:32			0	33239	0	0	0	16166	14800	158473	27180	951702	37791	105839	0	0	8135	802180	0	0
2024-04-26 05:17:32			0	33200	0	0	0	16161	14790	158469	27402	951685	37801	105837	0	0	8133	804253	0	0
2024-04-26 05:18:32			0	33208	0	0	0	16153	14800	158505	27287	951649	37802	105834	0	0	8133	803793	0	0
2024-04-26 05:19:32			0	33185	0	0	0	16148	14780	158521	27124	951598	37801	105832	0	0	8132	805078	0	0
2024-04-26 05:20:32			0	33200	0	0	0	16158	14790	158613	27074	951694	37802	105836	0	0	8133	804253	0	0
2024-04-26 05:21:32			0	33187	0	0	0	16150	14790	158705	27196	951641	37802	105833	0	0	8132	804931	0	0
2024-04-26 05:22:32			0	33177	0	0	0	16142	14780	158705	27327	951590	37800	105830	0	0	8131	805495	0	0
2024-04-26 05:23:32			0	33176	0	0	0	16142	14790	158757	27222	951607	37812	105830	0	0	8131	805504	0	0
2024-04-26 05:24:32			0	33152	0	0	0	16140	14780	158733	27255	951598	37801	105829	0	0	8130	806801	0	0
2024-04-26 05:25:32			0	33168	0	0	0	16137	14780	158785	27322	951651	37801	105828	0	0	8131	805965	0	0
2024-04-26 05:26:32			0	33161	0	0	0	16142	14790	158789	27090	951588	37802	105830	0	0	8131	806287	0	0
2024-04-26 05:27:32			0	33159	0	0	0	16135	14780	158837	27093	951572	37801	105827	0	0	8130	806435	0	0
2024-04-26 05:28:32			0	33137	0	0	0	16135	14780	158829	27166	951625	37801	105827	0	0	8129	807585	0	0
2024-04-26 05:29:32			0	33135	0	0	0	16127	14780	158817	27133	951572	37801	105824	0	0	8129	807689	0	0
2024-04-26 05:30:32			0	33141	0	0	0	16129	14780	158793	27358	951564	37800	105825	0	0	8129	807376	0	0
2024-04-26 05:31:32			0	33156	0	0	0	16135	14770	158769	27327	951582	37799	105827	0	0	8130	806635	0	0
2024-04-26 05:32:32			0	33135	0	0	0	16127	14770	158917	27479	951582	37789	105824	0	0	8129	807733	0	0
2024-04-26 05:33:32			0	33138	0	0	0	16127	14770	158841	27348	951574	37799	105824	0	0	8129	807576	0	0
2024-04-26 05:34:32			0	33142	0	0	0	16127	14770	158761	27178	951635	37799	105824	0	0	8130	807367	0	0
2024-04-26 05:35:32			0	33161	0	0	0	16127	14770	158841	27550	951582	37799	105824	0	0	8131	806374	0	0
2024-04-26 05:36:32			0	33157	0	0	0	16132	14760	158829	27409	951540	37799	105826	0	0	8130	806626	0	0
2024-04-26 05:37:32			0	33156	0	0	0	16127	14760	158777	27377	951540	37799	105824	0	0	8130	806678	0	0
2024-04-26 05:38:32			0	33150	0	0	0	16127	14770	158753	27275	951556	37799	105824	0	0	8130	806948	0	0
2024-04-26 05:39:32			0	33166	0	0	0	16116	14760	158725	27419	951531	37798	105820	0	0	8131	806156	0	0
2024-04-26 05:40:32			0	33160	0	0	0	16106	14770	158773	27083	951522	37810	105816	0	0	8131	806426	0	0
2024-04-26 05:41:32			0	33166	0	0	0	16109	14770	158709	27421	951574	37799	105817	0	0	8131	806113	0	0
2024-04-26 05:42:32			0	33173	0	0	0	16114	14770	158729	27300	951574	37810	105819	0	0	8132	805747	0	0
2024-04-26 05:43:32			0	33182	0	0	0	16114	14760	158837	27052	951531	37788	105819	0	0	8132	805321	0	0
2024-04-26 05:44:32			0	33174	0	0	0	16116	14760	158749	27232	951513	37799	105820	0	0	8132	805738	0	0
2024-04-26 05:45:32			0	33173	0	0	0	16109	14750	158697	27272	951523	37787	105817	0	0	8132	805834	0	0
2024-04-26 05:46:32			0	33180	0	0	0	16109	14760	158669	27246	951505	37777	105817	0	0	8132	805425	0	0
2024-04-26 05:47:32			0	33195	0	0	0	16109	14750	158697	27267	951444	37787	105817	0	0	8133	804686	0	0
2024-04-26 05:48:32			0	33189	0	0	0	16106	14750	158629	27144	951497	37808	105816	0	0	8133	804999	0	0
2024-04-26 05:49:32			0	33184	0	0	0	16101	14750	158601	27201	951515	37797	105814	0	0	8132	805260	0	0
2024-04-26 05:50:32			0	33196	0	0	0	16098	14750	158661	27001	951497	37797	105813	0	0	8133	804634	0	0
2024-04-26 05:51:32			0	33189	0	0	0	16098	14750	158665	26850	951497	37787	105813	0	0	8133	804999	0	0
2024-04-26 05:52:32			0	33199	0	0	0	16103	14740	158685	27189	951454	37797	105815	0	0	8133	804520	0	0
2024-04-26 05:53:32			0	33211	0	0	0	16106	14750	158573	26994	951436	37797	105816	0	0	8134	803852	0	0
2024-04-26 05:54:32			0	33194	0	0	0	16116	14750	158641	27416	951463	37797	105820	0	0	8133	804738	0	0
2024-04-26 05:55:32			0	33181	0	0	0	16109	14750	158605	27526	951436	37787	105817	0	0	8132	805416	0	0
2024-04-26 05:56:32			0	33179	0	0	0	16109	14750	158761	27300	951489	37797	105817	0	0	8132	805520	0	0
2024-04-26 05:57:32			0	33175	0	0	0	16116	14740	158773	27263	951533	37787	105820	0	0	8132	805772	0	0
2024-04-26 05:58:32			0	33188	0	0	0	16116	14750	158837	27057	951489	37797	105820	0	0	8132	805051	0	0
2024-04-26 05:59:32			0	33170	0	0	0	16119	14750	158641	27154	951523	37808	105821	0	0	8131	805990	0	0
2024-04-26 06:00:32			0	33172	0	0	0	16111	14740	158737	27211	951507	37808	105818	0	0	8131	805929	0	0
2024-04-26 06:01:32			0	33168	0	0	0	16114	14750	158745	27159	951463	37787	105819	0	0	8131	806095	0	0
2024-04-26 06:02:32			0	33162	0	0	0	16122	14750	158777	27260	951463	37808	105822	0	0	8131	806408	0	0
2024-04-26 06:03:32			0	33167	0	0	0	16114	14750	158813	27357	951541	37808	105819	0	0	8131	806147	0	0
2024-04-26 06:04:32			0	33153	0	0	0	16114	14740	158805	27149	951481	37797	105819	0	0	8130	806921	0	0
2024-04-26 06:05:32			0	33151	0	0	0	16111	14750	158849	27263	951515	37787	105818	0	0	8130	806983	0	0
2024-04-26 06:06:32			0	33143	0	0	0	16109	14750	158949	27112	951602	37797	105817	0	0	8130	807401	0	0
2024-04-26 06:07:32			0	33139	0	0	0	16111	14740	158877	26873	951507	37797	105818	0	0	8129	807653	0	0
2024-04-26 06:08:32			0	33137	0	0	0	16101	14750	158905	27076	951489	37787	105814	0	0	8130	807714	0	0
2024-04-26 06:09:32			0	33145	0	0	0	16106	14750	158897	27017	951384	37797	105816	0	0	8130	807296	0	0
2024-04-26 06:10:32			0	33137	0	0	0	16106	14740	158893	27256	951454	37787	105816	0	0	8129	807758	0	0
2024-04-26 06:11:32			0	33119	0	0	0	16109	14750	158957	27435	951436	37797	105817	0	0	8128	808656	0	0
2024-04-26 06:12:32			0	33136	0	0	0	16101	14740	159041	27630	951446	37797	105814	0	0	8129	807810	0	0
2024-04-26 06:13:32			0	33145	0	0	0	16106	14750	158885	27315	951515	37787	105816	0	0	8130	807296	0	0
2024-04-26 06:14:32			0	33134	0	0	0	16103	14730	158925	26901	951438	37807	105815	0	0	8129	807958	0	0
2024-04-26 06:15:32			0	33116	0	0	0	16098	14750	158893	27182	951471	37787	105813	0	0	8128	808813	0	0
2024-04-26 06:16:32			0	33131	0	0	0	16098	14740	158861	27492	951428	37797	105813	0	0	8129	808072	0	0
2024-04-26 06:17:32			0	33124	0	0	0	16088	14740	158893	27133	951454	37797	105809	0	0	8129	808438	0	0
2024-04-26 06:18:32			0	33122	0	0	0	16093	14740	158897	27085	951420	37797	105811	0	0	8129	808542	0	0
2024-04-26 06:19:32			0	33126	0	0	0	16093	14740	158949	27486	951481	37797	105811	0	0	8129	808333	0	0
2024-04-26 06:20:32			0	33125	0	0	0	16098	14730	158981	27144	951438	37807	105813	0	0	8129	808429	0	0
2024-04-26 06:21:32			0	33097	0	0	0	16106	14740	158977	26859	951454	37808	105816	0	0	8127	809852	0	0
2024-04-26 06:22:32			0	33103	0	0	0	16098	14740	159077	27281	951428	37797	105813	0	0	8127	809538	0	0
2024-04-26 06:23:32			0	33087	0	0	0	16101	14740	159089	27204	951481	37808	105814	0	0	8126	810376	0	0
2024-04-26 06:24:32			0	33092	0	0	0	16098	14750	159037	27317	951471	37808	105813	0	0	8127	810071	0	0
2024-04-26 06:25:32			0	33089	0	0	0	16096	14740	159049	27235	951507	37787	105812	0	0	8127	810271	0	0
2024-04-26 06:26:32			0	33073	0	0	0	16098	14740	159081	26889	951454	37797	105813	0	0	8126	811111	0	0
2024-04-26 06:27:32			0	33076	0	0	0	16101	14750	159177	27189	951463	37787	105814	0	0	8126	810910	0	0
2024-04-26 06:28:32			0	33069	0	0	0	16098	14730	159153	27119	951404	37796	105813	0	0	8125	811364	0	0
2024-04-26 06:29:32			0	33065	0	0	0	16109	14750	159089	27277	951523	37797	105817	0	0	8125	811487	0	0
2024-04-26 06:30:32			0	33089	0	0	0	16106	14730	159077	27381	951464	37786	105816	0	0	8126	810315	0	0
2024-04-26 06:31:32			0	33092	0	0	0	16101	14730	159021	27109	951464	37796	105814	0	0	8127	810157	0	0
2024-04-26 06:32:32			0	33075	0	0	0	16103	14740	159045	27048	951481	37797	105815	0	0	8126	811006	0	0
2024-04-26 06:33:32			0	33057	0	0	0	16103	14740	159037	27400	951507	37797	105815	0	0	8125	811951	0	0
2024-04-26 06:34:32			0	33068	0	0	0	16106	14730	159089	27222	951404	37796	105816	0	0	8125	811416	0	0
2024-04-26 06:35:32			0	33061	0	0	0	16103	14750	159061	27177	951489	37787	105815	0	0	8125	811697	0	0
2024-04-26 06:36:32			0	33060	0	0	0	16096	14740	159085	27275	951473	37808	105812	0	0	8125	811793	0	0
2024-04-26 06:37:32			0	33079	0	0	0	16088	14740	159173	27251	951481	37797	105809	0	0	8126	810796	0	0
2024-04-26 06:38:32			0	33067	0	0	0	16096	14730	159013	27341	951412	37796	105812	0	0	8125	811469	0	0
2024-04-26 06:39:32			0	33045	0	0	0	16090	14740	159085	26968	951507	37797	105810	0	0	8124	812581	0	0
2024-04-26 06:40:32			0	33059	0	0	0	16093	14740	159077	27227	951454	37787	105811	0	0	8125	811846	0	0
2024-04-26 06:41:32			0	33048	0	0	0	16093	14740	159157	27138	951473	37797	105811	0	0	8124	812424	0	0
2024-04-26 06:42:32			0	33060	0	0	0	16085	14730	159193	27249	951491	37786	105808	0	0	8125	811837	0	0
2024-04-26 06:43:32			0	33074	0	0	0	16088	14740	159053	27353	951446	37797	105809	0	0	8126	811058	0	0
2024-04-26 06:44:32			0	33080	0	0	0	16090	14720	159001	27201	951396	37796	105810	0	0	8126	810830	0	0
2024-04-26 06:45:32			0	33096	0	0	0	16096	14740	158865	27483	951446	37797	105812	0	0	8127	809904	0	0
2024-04-26 06:46:32			0	33112	0	0	0	16090	14730	158885	27287	951386	37796	105810	0	0	8128	809110	0	0
2024-04-26 06:47:32			0	33127	0	0	0	16088	14740	158841	27239	951473	37797	105809	0	0	8129	808281	0	0
2024-04-26 06:48:32			0	33145	0	0	0	16085	14720	158885	27223	951396	37807	105808	0	0	8130	807426	0	0
2024-04-26 06:49:32			0	33171	0	0	0	16077	14730	158761	27173	951430	37807	105805	0	0	8132	806024	0	0
2024-04-26 06:50:32			0	33163	0	0	0	16088	14730	158621	27177	951430	37796	105809	0	0	8131	806442	0	0
2024-04-26 06:51:32			0	33168	0	0	0	16083	14720	158585	27164	951309	37795	105807	0	0	8132	806224	0	0
2024-04-26 06:52:32			0	33173	0	0	0	16080	14730	158521	27379	951404	37786	105806	0	0	8132	805920	0	0
2024-04-26 06:53:32			0	33187	0	0	0	16080	14720	158417	27438	951396	37796	105806	0	0	8133	805233	0	0
2024-04-26 06:54:32			0	33186	0	0	0	16083	14730	158521	27289	951404	37786	105807	0	0	8133	805242	0	0
2024-04-26 06:55:32			0	33203	0	0	0	16077	14730	158509	27263	951430	37796	105805	0	0	8134	804355	0	0
2024-04-26 06:56:32			0	33188	0	0	0	16070	14720	158433	27377	951396	37786	105802	0	0	8133	805180	0	0
2024-04-26 06:57:32			0	33195	0	0	0	16067	14720	158405	27326	951369	37796	105801	0	0	8134	804815	0	0
2024-04-26 06:58:32			0	33214	0	0	0	16077	14710	158397	27519	951379	37784	105805	0	0	8134	803868	0	0
2024-04-26 06:59:32			0	33215	0	0	0	16075	14720	158421	27232	951388	37785	105804	0	0	8135	803773	0	0
2024-04-26 07:00:32			0	33189	0	0	0	16077	14720	158457	27175	951422	37807	105805	0	0	8133	805128	0	0
2024-04-26 07:01:32			0	33192	0	0	0	16067	14720	158481	27467	951422	37796	105801	0	0	8133	804972	0	0
2024-04-26 07:02:32			0	33191	0	0	0	16075	14720	158513	27402	951414	37795	105804	0	0	8133	805024	0	0
2024-04-26 07:03:32			0	33160	0	0	0	16067	14720	158581	27327	951396	37807	105801	0	0	8131	806642	0	0
2024-04-26 07:04:32			0	33179	0	0	0	16072	14700	158437	27512	951390	37793	105803	0	0	8132	805736	0	0
2024-04-26 07:05:32			0	33183	0	0	0	16075	14710	158517	27253	951406	37794	105804	0	0	8133	805484	0	0
2024-04-26 07:06:32			0	33179	0	0	0	16070	14720	158405	27601	951361	37795	105802	0	0	8132	805650	0	0
2024-04-26 07:07:32			0	33189	0	0	0	16072	14710	158405	27156	951458	37794	105803	0	0	8133	805171	0	0
2024-04-26 07:08:32			0	33205	0	0	0	16075	14720	158393	27576	951414	37806	105804	0	0	8134	804294	0	0
2024-04-26 07:09:32			0	33225	0	0	0	16080	14710	158277	27393	951371	37793	105806	0	0	8135	803295	0	0
2024-04-26 07:10:32			0	33229	0	0	0	16077	14710	158161	27552	951398	37783	105805	0	0	8135	803087	0	0
2024-04-26 07:11:32			0	33255	0	0	0	16072	14710	158109	26906	951379	37794	105803	0	0	8137	801735	0	0
2024-04-26 07:12:32			0	33257	0	0	0	16062	14710	158073	27102	951406	37784	105799	0	0	8137	801631	0	0
2024-04-26 07:13:32			0	33279	0	0	0	16070	14710	158005	27180	951406	37794	105802	0	0	8138	800488	0	0
2024-04-26 07:14:32			0	33300	0	0	0	16075	14720	157881	27306	951414	37795	105804	0	0	8140	799356	0	0
2024-04-26 07:15:32			0	33317	0	0	0	16072	14710	157841	27216	951424	37793	105803	0	0	8141	798517	0	0
2024-04-26 07:16:32			0	33323	0	0	0	16077	14710	157729	27142	951371	37772	105805	0	0	8141	798206	0	0
2024-04-26 07:17:32			0	33354	0	0	0	16077	14710	157645	27107	951424	37793	105805	0	0	8143	796602	0	0
2024-04-26 07:18:32			0	33359	0	0	0	16085	14710	157697	27109	951345	37793	105808	0	0	8143	796344	0	0
2024-04-26 07:19:32			0	33360	0	0	0	16080	14720	157657	27124	951440	37795	105806	0	0	8143	796249	0	0
2024-04-26 07:20:32			0	33359	0	0	0	16088	14720	157557	27568	951440	37795	105809	0	0	8143	796301	0	0
2024-04-26 07:21:32			0	33346	0	0	0	16085	14720	157645	27495	951414	37806	105808	0	0	8142	796973	0	0
2024-04-26 07:22:32			0	33349	0	0	0	16090	14710	157649	27138	951406	37794	105810	0	0	8142	796861	0	0
2024-04-26 07:23:32			0	33350	0	0	0	16085	14720	157757	27428	951422	37807	105808	0	0	8143	796766	0	0
2024-04-26 07:24:32			0	33380	0	0	0	16083	14720	157581	27109	951448	37796	105807	0	0	8144	795216	0	0
2024-04-26 07:25:32			0	33354	0	0	0	16090	14720	157601	27485	951440	37795	105810	0	0	8143	796560	0	0
2024-04-26 07:26:32			0	33360	0	0	0	16080	14720	157621	27072	951466	37806	105806	0	0	8143	796249	0	0
2024-04-26 07:27:32			0	33363	0	0	0	16083	14720	157613	27223	951388	37817	105807	0	0	8143	796094	0	0
2024-04-26 07:28:32			0	33350	0	0	0	16080	14730	157645	27341	951456	37796	105806	0	0	8143	796724	0	0
2024-04-26 07:29:32			0	33358	0	0	0	16090	14720	157637	27578	951388	37795	105810	0	0	8143	796353	0	0
2024-04-26 07:30:32			0	33337	0	0	0	16088	14710	157653	27282	951353	37794	105809	0	0	8142	797482	0	0
2024-04-26 07:31:32			0	33326	0	0	0	16083	14720	157769	27388	951388	37806	105807	0	0	8141	798008	0	0
2024-04-26 07:32:32			0	33325	0	0	0	16075	14730	157797	27298	951378	37807	105804	0	0	8141	798017	0	0
2024-04-26 07:33:32			0	33302	0	0	0	16088	14720	157817	27355	951448	37807	105809	0	0	8140	799252	0	0
2024-04-26 07:34:32			0	33299	0	0	0	16085	14720	157921	27140	951466	37795	105808	0	0	8139	799407	0	0
2024-04-26 07:35:32			0	33299	0	0	0	16088	14730	157893	27128	951483	37807	105809	0	0	8139	799365	0	0
2024-04-26 07:36:32			0	33289	0	0	0	16096	14730	157929	27255	951412	37796	105812	0	0	8139	799883	0	0
2024-04-26 07:37:32			0	33283	0	0	0	16093	14730	158017	27345	951483	37786	105811	0	0	8138	800194	0	0
2024-04-26 07:38:32			0	33250	0	0	0	16090	14720	158033	27505	951422	37807	105810	0	0	8136	801952	0	0
2024-04-26 07:39:32			0	33250	0	0	0	16090	14710	158085	27395	951485	37805	105810	0	0	8136	801995	0	0
2024-04-26 07:40:32			0	33251	0	0	0	16085	14720	158117	27393	951466	37817	105808	0	0	8137	801900	0	0
2024-04-26 07:41:32			0	33246	0	0	0	16093	14730	158149	27338	951491	37796	105811	0	0	8136	802117	0	0
2024-04-26 07:42:32			0	33234	0	0	0	16085	14720	158297	27564	951448	37796	105808	0	0	8136	802784	0	0
2024-04-26 07:43:32			0	33213	0	0	0	16088	14730	158281	27293	951430	37807	105809	0	0	8134	803834	0	0
2024-04-26 07:44:32			0	33210	0	0	0	16088	14710	158229	27336	951379	37816	105809	0	0	8134	804077	0	0
2024-04-26 07:45:32			0	33175	0	0	0	16090	14730	158353	27168	951404	37786	105810	0	0	8132	805816	0	0
2024-04-26 07:46:32			0	33189	0	0	0	16093	14730	158381	27850	951430	37807	105811	0	0	8133	805085	0	0
2024-04-26 07:47:32			0	33172	0	0	0	16093	14730	158425	27331	951430	37807	105811	0	0	8132	805972	0	0
2024-04-26 07:48:32			0	33172	0	0	0	16093	14730	158505	27093	951430	37786	105811	0	0	8132	805972	0	0
2024-04-26 07:49:32			0	33157	0	0	0	16090	14730	158525	27185	951464	37807	105810	0	0	8131	806755	0	0
2024-04-26 07:50:32			0	33147	0	0	0	16093	14730	158565	27640	951483	37807	105811	0	0	8130	807278	0	0
2024-04-26 07:51:32			0	33154	0	0	0	16090	14730	158569	27460	951456	37807	105810	0	0	8131	806912	0	0
2024-04-26 07:52:32			0	33159	0	0	0	16090	14720	158569	27282	951466	37795	105810	0	0	8131	806694	0	0
2024-04-26 07:53:32			0	33134	0	0	0	16093	14730	158697	27653	951456	37786	105811	0	0	8129	807958	0	0
2024-04-26 07:54:32			0	33129	0	0	0	16093	14730	158665	27410	951438	37786	105811	0	0	8129	808220	0	0
2024-04-26 07:55:32			0	33138	0	0	0	16096	14730	158605	27909	951456	37775	105812	0	0	8130	807749	0	0
2024-04-26 07:56:32			0	33119	0	0	0	16098	14720	158625	27512	951475	37796	105813	0	0	8128	808786	0	0
2024-04-26 07:57:32			0	33118	0	0	0	16090	14730	158713	27687	951483	37807	105810	0	0	8128	808795	0	0
2024-04-26 07:58:32			0	33125	0	0	0	16093	14720	158661	27531	951448	37786	105811	0	0	8129	808472	0	0
2024-04-26 07:59:32			0	33115	0	0	0	16093	14740	158721	27587	951525	37797	105811	0	0	8128	808909	0	0
2024-04-26 08:00:32			0	33120	0	0	0	16096	14730	158773	27229	951517	37807	105812	0	0	8129	808691	0	0
2024-04-26 08:01:32			0	33104	0	0	0	16101	14730	158765	27305	951491	37796	105814	0	0	8127	809529	0	0
2024-04-26 08:02:32			0	33096	0	0	0	16101	14730	158821	27554	951491	37796	105814	0	0	8127	809948	0	0
2024-04-26 08:03:32			0	33103	0	0	0	16098	14730	158833	27329	951483	37818	105813	0	0	8127	809581	0	0
2024-04-26 08:04:32			0	33103	0	0	0	16093	14730	158737	27289	951543	37807	105811	0	0	8128	809581	0	0
2024-04-26 08:05:32			0	33088	0	0	0	16098	14740	158789	27100	951473	37808	105813	0	0	8127	810324	0	0
2024-04-26 08:06:32			0	33103	0	0	0	16098	14730	158729	27208	951412	37807	105813	0	0	8127	809581	0	0
2024-04-26 08:07:32			0	33103	0	0	0	16096	14740	158781	27074	951533	37808	105812	0	0	8128	809538	0	0
2024-04-26 08:08:32			0	33091	0	0	0	16098	14730	158825	27384	951430	37796	105813	0	0	8127	810210	0	0
2024-04-26 08:09:32			0	33109	0	0	0	16103	14730	158781	27447	951561	37796	105815	0	0	8128	809266	0	0
2024-04-26 08:10:32			0	33104	0	0	0	16103	14730	158841	27440	951491	37796	105815	0	0	8127	809529	0	0
2024-04-26 08:11:32			0	33104	0	0	0	16101	14730	158753	27123	951491	37796	105814	0	0	8127	809529	0	0
2024-04-26 08:12:32			0	33096	0	0	0	16096	14740	158761	27332	951473	37808	105812	0	0	8127	809904	0	0
2024-04-26 08:13:32			0	33111	0	0	0	16098	14740	158717	27479	951533	37808	105813	0	0	8128	809118	0	0
2024-04-26 08:14:32			0	33092	0	0	0	16096	14730	158713	27204	951491	37786	105812	0	0	8127	810157	0	0
2024-04-26 08:15:32			0	33104	0	0	0	16098	14730	158777	27517	951543	37818	105813	0	0	8128	809529	0	0
2024-04-26 08:16:32			0	33115	0	0	0	16098	14740	158729	27303	951551	37808	105813	0	0	8128	808909	0	0
2024-04-26 08:17:32			0	33121	0	0	0	16098	14740	158737	27478	951533	37808	105813	0	0	8129	808595	0	0
2024-04-26 08:18:32			0	33119	0	0	0	16109	14740	158673	27241	951499	37808	105817	0	0	8128	808700	0	0
2024-04-26 08:19:32			0	33133	0	0	0	16109	14740	158717	27434	951533	37808	105817	0	0	8129	807967	0	0
2024-04-26 08:20:32			0	33132	0	0	0	16103	14750	158701	27383	951515	37808	105815	0	0	8129	807976	0	0
2024-04-26 08:21:32			0	33131	0	0	0	16098	14740	158653	27441	951586	37797	105813	0	0	8129	808072	0	0
2024-04-26 08:22:32			0	33127	0	0	0	16103	14740	158541	27507	951507	37808	105815	0	0	8129	808281	0	0
2024-04-26 08:23:32			0	33132	0	0	0	16103	14740	158609	27185	951586	37820	105815	0	0	8129	808019	0	0
2024-04-26 08:24:32			0	33136	0	0	0	16106	14750	158605	27183	951550	37808	105816	0	0	8129	807767	0	0
2024-04-26 08:25:32			0	33139	0	0	0	16096	14740	158641	27386	951525	37808	105812	0	0	8130	807653	0	0
2024-04-26 08:26:32			0	33147	0	0	0	16096	14740	158661	27396	951525	37797	105812	0	0	8130	807235	0	0
2024-04-26 08:27:32			0	33131	0	0	0	16090	14750	158605	27220	951568	37820	105810	0	0	8129	808028	0	0
2024-04-26 08:28:32			0	33137	0	0	0	16103	14740	158557	27130	951578	37797	105815	0	0	8129	807758	0	0
2024-04-26 08:29:32			0	33144	0	0	0	16093	14740	158609	27514	951499	37808	105811	0	0	8130	807392	0	0
2024-04-26 08:30:32			0	33142	0	0	0	16096	14740	158677	27502	951551	37808	105812	0	0	8130	807496	0	0
2024-04-26 08:31:32			0	33137	0	0	0	16106	14740	158621	27183	951586	37808	105816	0	0	8129	807758	0	0
2024-04-26 08:32:32			0	33160	0	0	0	16098	14740	158565	27455	951507	37797	105813	0	0	8131	806556	0	0
2024-04-26 08:33:32			0	33145	0	0	0	16098	14740	158521	27258	951499	37808	105813	0	0	8130	807339	0	0
2024-04-26 08:34:32			0	33158	0	0	0	16101	14730	158477	27590	951570	37796	105814	0	0	8131	806703	0	0
2024-04-26 08:35:32			0	33155	0	0	0	16103	14740	158429	27478	951507	37797	105815	0	0	8131	806817	0	0
2024-04-26 08:36:32			0	33163	0	0	0	16109	14740	158465	27403	951525	37808	105817	0	0	8131	806399	0	0
2024-04-26 08:37:32			0	33160	0	0	0	16111	14740	158389	27270	951507	37808	105818	0	0	8131	806556	0	0
2024-04-26 08:38:32			0	33168	0	0	0	16106	14750	158601	27286	951594	37808	105816	0	0	8131	806095	0	0
2024-04-26 08:39:32			0	33182	0	0	0	16109	14750	158425	27208	951550	37808	105817	0	0	8132	805364	0	0
2024-04-26 08:40:32			0	33162	0	0	0	16106	14750	158469	27421	951568	37820	105816	0	0	8131	806408	0	0
2024-04-26 08:41:32			0	33166	0	0	0	16111	14740	158473	27296	951533	37797	105818	0	0	8131	806242	0	0
2024-04-26 08:42:32			0	33137	0	0	0	16124	14750	158457	27275	951576	37808	105823	0	0	8129	807714	0	0
2024-04-26 08:43:32			0	33145	0	0	0	16114	14750	158493	27531	951594	37808	105819	0	0	8130	807296	0	0
2024-04-26 08:44:32			0	33150	0	0	0	16111	14750	158537	27197	951576	37808	105818	0	0	8130	807035	0	0
2024-04-26 08:45:32			0	33146	0	0	0	16114	14760	158429	27440	951610	37798	105819	0	0	8130	807201	0	0
2024-04-26 08:46:32			0	33157	0	0	0	16116	14750	158489	27682	951550	37808	105820	0	0	8131	806669	0	0
2024-04-26 08:47:32			0	33161	0	0	0	16119	14750	158549	27377	951576	37797	105821	0	0	8131	806460	0	0
2024-04-26 08:48:32			0	33162	0	0	0	16116	14760	158401	27471	951558	37820	105820	0	0	8131	806365	0	0
2024-04-26 08:49:32			0	33169	0	0	0	16116	14760	158481	27547	951610	37809	105820	0	0	8131	805999	0	0
2024-04-26 08:50:32			0	33155	0	0	0	16119	14760	158425	27159	951592	37799	105821	0	0	8130	806730	0	0
2024-04-26 08:51:32			0	33173	0	0	0	16119	14770	158337	27282	951600	37821	105821	0	0	8132	805747	0	0
2024-04-26 08:52:32			0	33155	0	0	0	16127	14750	158305	27225	951602	37797	105824	0	0	8130	806774	0	0
2024-04-26 08:53:32			0	33189	0	0	0	16129	14760	158257	27549	951671	37821	105825	0	0	8132	804956	0	0
2024-04-26 08:54:32			0	33171	0	0	0	16124	14760	158361	27275	951645	37810	105823	0	0	8131	805895	0	0
2024-04-26 08:55:32			0	33198	0	0	0	16129	14760	158241	27583	951619	37810	105825	0	0	8133	804486	0	0
2024-04-26 08:56:32			0	33189	0	0	0	16127	14760	158249	27367	951645	37821	105824	0	0	8132	804956	0	0
2024-04-26 08:57:32			0	33204	0	0	0	16132	14760	158189	27692	951636	37820	105826	0	0	8133	804174	0	0
2024-04-26 08:58:32			0	33190	0	0	0	16122	14770	158173	27286	951653	37821	105822	0	0	8133	804861	0	0
2024-04-26 08:59:32			0	33208	0	0	0	16116	14760	158161	27779	951619	37810	105820	0	0	8134	803965	0	0
2024-04-26 09:00:32			0	33186	0	0	0	16129	14760	158261	27438	951645	37810	105825	0	0	8132	805112	0	0
2024-04-26 09:01:32			0	33188	0	0	0	16129	14770	158301	27741	951627	37810	105825	0	0	8132	804965	0	0
2024-04-26 09:02:32			0	33204	0	0	0	16142	14760	158153	27466	951663	37820	105830	0	0	8133	804174	0	0
2024-04-26 09:03:32			0	33206	0	0	0	16163	14760	158141	27332	951697	37821	105838	0	0	8133	804069	0	0
2024-04-26 09:04:32			0	33179	0	0	0	16171	14780	158185	27393	951774	37822	105841	0	0	8131	805391	0	0
2024-04-26 09:05:32			0	33185	0	0	0	16186	14770	158265	27588	951740	37821	105847	0	0	8131	805121	0	0
2024-04-26 09:06:32			0	33199	0	0	0	16202	14780	158181	27871	951783	37823	105853	0	0	8132	804348	0	0
2024-04-26 09:07:32			0	33194	0	0	0	16205	14790	158113	27710	951851	37824	105854	0	0	8131	804566	0	0
2024-04-26 09:08:32			0	33181	0	0	0	16212	14790	158173	27459	951851	37802	105857	0	0	8131	805243	0	0
2024-04-26 09:09:32			0	33198	0	0	0	16220	14800	158221	27606	951859	37813	105860	0	0	8131	804314	0	0
2024-04-26 09:10:32			0	33189	0	0	0	16218	14810	158253	27746	951928	37825	105859	0	0	8131	804740	0	0
2024-04-26 09:11:32			0	33185	0	0	0	16218	14810	158117	27855	951876	37825	105859	0	0	8131	804948	0	0
2024-04-26 09:12:32			0	33196	0	0	0	16210	14810	158133	27381	951857	37825	105856	0	0	8132	804375	0	0
2024-04-26 09:13:32			0	33218	0	0	0	16205	14810	158129	27647	951857	37825	105854	0	0	8133	803229	0	0
2024-04-26 09:14:32			0	33214	0	0	0	16205	14810	158097	27500	951884	37836	105854	0	0	8133	803437	0	0
2024-04-26 09:15:32			0	33209	0	0	0	16212	14810	158009	27776	951910	37825	105857	0	0	8132	803698	0	0
2024-04-26 09:16:32			0	33253	0	0	0	16218	14820	157797	27602	951866	37825	105859	0	0	8135	801366	0	0
2024-04-26 09:17:32			0	33272	0	0	0	16218	14820	157873	27445	951918	37825	105859	0	0	8136	800380	0	0
2024-04-26 09:18:32			0	33290	0	0	0	16218	14830	157737	27743	951934	37805	105859	0	0	8137	799403	0	0
2024-04-26 09:19:32			0	33313	0	0	0	16220	14830	157529	27796	951961	37816	105860	0	0	8139	798211	0	0
2024-04-26 09:20:32			0	33326	0	0	0	16231	14830	157505	27951	951908	37827	105864	0	0	8139	797538	0	0
2024-04-26 09:21:32			0	33351	0	0	0	16246	14840	157453	27428	951985	37828	105870	0	0	8140	796202	0	0
2024-04-26 09:22:32			0	33358	0	0	0	16241	14840	157341	27471	951959	37828	105868	0	0	8141	795841	0	0
2024-04-26 09:23:32			0	33403	0	0	0	16249	14840	157185	27407	952038	37828	105871	0	0	8144	793519	0	0
2024-04-26 09:24:32			0	33391	0	0	0	16259	14850	157177	27803	952054	37829	105875	0	0	8143	794095	0	0
2024-04-26 09:25:32			0	33408	0	0	0	16270	14850	157121	27701	952054	37829	105879	0	0	8144	793219	0	0
2024-04-26 09:26:32			0	33437	0	0	0	16272	14850	157013	27305	952125	37829	105880	0	0	8145	791726	0	0
2024-04-26 09:27:32			0	33443	0	0	0	16277	14860	156893	27362	952070	37830	105882	0	0	8146	791375	0	0
2024-04-26 09:28:32			0	33456	0	0	0	16277	14860	156873	27485	952096	37830	105882	0	0	8146	790706	0	0
2024-04-26 09:29:32			0	33485	0	0	0	16288	14860	156769	27757	952123	37840	105886	0	0	8148	789217	0	0
2024-04-26 09:30:32			0	33505	0	0	0	16285	14870	156617	27585	952183	37830	105885	0	0	8149	788149	0	0
2024-04-26 09:31:32			0	33544	0	0	0	16197	14870	156441	27817	952113	37830	105851	0	0	8153	786153	0	0
2024-04-26 09:32:32			0	33500	0	0	0	16254	14870	156577	27770	952086	37808	105873	0	0	8149	788406	0	0
2024-04-26 09:33:32			0	33507	0	0	0	16257	14880	156573	27711	952042	37841	105874	0	0	8150	788005	0	0
2024-04-26 09:34:32			0	33503	0	0	0	16262	14870	156645	27497	952113	37819	105876	0	0	8149	788252	0	0
2024-04-26 09:35:32			0	33497	0	0	0	16264	14880	156629	27502	952147	37841	105877	0	0	8149	788517	0	0
2024-04-26 09:36:32			0	33502	0	0	0	16257	14870	156505	27343	952078	37830	105874	0	0	8149	788303	0	0
2024-04-26 09:37:32			0	33502	0	0	0	16254	14870	156585	27672	952139	37819	105873	0	0	8150	788303	0	0
2024-04-26 09:38:32			0	33515	0	0	0	16251	14880	156653	27400	952121	37831	105872	0	0	8150	787595	0	0
2024-04-26 09:39:32			0	33483	0	0	0	16262	14870	156589	27659	952086	37830	105876	0	0	8148	789278	0	0
2024-04-26 09:40:32			0	33495	0	0	0	16264	14870	156605	27502	952139	37819	105877	0	0	8149	788662	0	0
2024-04-26 09:41:32			0	33497	0	0	0	16264	14880	156677	27523	952121	37841	105877	0	0	8149	788517	0	0
2024-04-26 09:42:32			0	33496	0	0	0	16257	14880	156645	27673	952155	37841	105874	0	0	8149	788569	0	0
2024-04-26 09:43:32			0	33502	0	0	0	16262	14880	156613	27046	952155	37820	105876	0	0	8149	788261	0	0
2024-04-26 09:44:32			0	33486	0	0	0	16262	14880	156717	27568	952094	37820	105876	0	0	8148	789081	0	0
2024-04-26 09:45:32			0	33485	0	0	0	16267	14880	156557	27483	952103	37841	105878	0	0	8148	789133	0	0
2024-04-26 09:46:32			0	33499	0	0	0	16259	14880	156741	27298	952155	37831	105875	0	0	8149	788415	0	0
2024-04-26 09:47:32			0	33490	0	0	0	16264	14890	156589	27157	952137	37842	105877	0	0	8149	788834	0	0
2024-04-26 09:48:32			0	33497	0	0	0	16264	14890	156637	27635	952111	37821	105877	0	0	8149	788475	0	0
2024-04-26 09:49:32			0	33513	0	0	0	16262	14880	156569	27720	952103	37831	105876	0	0	8150	787697	0	0
2024-04-26 09:50:32			0	33500	0	0	0	16272	14880	156569	27511	952182	37841	105880	0	0	8149	788363	0	0
2024-04-26 09:51:32			0	33515	0	0	0	16259	14890	156505	27829	952164	37832	105875	0	0	8150	787553	0	0
2024-04-26 09:52:32			0	33503	0	0	0	16262	14880	156497	27677	952147	37831	105876	0	0	8149	788210	0	0
2024-04-26 09:53:32			0	33527	0	0	0	16272	14880	156485	27609	952208	37831	105880	0	0	8151	786980	0	0
2024-04-26 09:54:32			0	33543	0	0	0	16275	14880	156453	27517	952129	37831	105881	0	0	8152	786162	0	0
2024-04-26 09:55:32			0	33559	0	0	0	16249	14900	156313	27457	952180	37833	105871	0	0	8153	785260	0	0
2024-04-26 09:56:32			0	33554	0	0	0	16249	14880	156325	27473	952155	37820	105871	0	0	8153	785599	0	0
2024-04-26 09:57:32			0	33508	0	0	0	16244	14880	156505	27815	952103	37820	105869	0	0	8150	787953	0	0
2024-04-26 09:58:32			0	33521	0	0	0	16228	14880	156533	27725	952155	37809	105863	0	0	8151	787288	0	0
2024-04-26 09:59:32			0	33505	0	0	0	16233	14890	156717	27679	952111	37832	105865	0	0	8150	788065	0	0
2024-04-26 10:00:32			0	33489	0	0	0	16233	14890	156821	27545	952085	37842	105865	0	0	8149	788885	0	0
2024-04-26 10:01:32			0	33475	0	0	0	16238	14880	156801	27717	952103	37820	105867	0	0	8148	789646	0	0
2024-04-26 10:02:32			0	33443	0	0	0	16241	14880	156885	27798	952121	37831	105868	0	0	8146	791290	0	0
2024-04-26 10:03:32			0	33446	0	0	0	16241	14880	156901	27407	952147	37831	105868	0	0	8146	791136	0	0
2024-04-26 10:04:32			0	33415	0	0	0	16241	14880	156957	27940	952121	37831	105868	0	0	8145	792730	0	0
2024-04-26 10:05:32			0	33426	0	0	0	16241	14870	156905	27658	952086	37830	105868	0	0	8145	792207	0	0
2024-04-26 10:06:32			0	33412	0	0	0	16244	14870	156909	27455	952139	37841	105869	0	0	8144	792928	0	0
2024-04-26 10:07:32			0	33421	0	0	0	16251	14870	157065	27736	952131	37841	105872	0	0	8145	792464	0	0
2024-04-26 10:08:32			0	33423	0	0	0	16244	14890	156981	27855	952198	37833	105869	0	0	8145	792276	0	0
2024-04-26 10:09:32			0	33415	0	0	0	16251	14880	157101	27711	952121	37831	105872	0	0	8144	792730	0	0
2024-04-26 10:10:32			0	33422	0	0	0	16257	14880	157065	27616	952121	37831	105874	0	0	8145	792370	0	0
2024-04-26 10:11:32			0	33409	0	0	0	16254	14890	157137	27699	952137	37832	105873	0	0	8144	792997	0	0
2024-04-26 10:12:32			0	33408	0	0	0	16259	14880	157137	27514	952094	37841	105875	0	0	8144	793091	0	0
2024-04-26 10:13:32			0	33415	0	0	0	16251	14880	157129	27353	952103	37841	105872	0	0	8144	792730	0	0
2024-04-26 10:14:32			0	33433	0	0	0	16259	14880	157097	27751	952103	37831	105875	0	0	8145	791804	0	0
2024-04-26 10:15:32			0	33432	0	0	0	16259	14890	156965	27602	952111	37832	105875	0	0	8145	791813	0	0
2024-04-26 10:16:32			0	33445	0	0	0	16257	14880	156869	27531	952121	37820	105874	0	0	8146	791187	0	0
2024-04-26 10:17:32			0	33480	0	0	0	16262	14880	156721	27848	952129	37831	105876	0	0	8148	789389	0	0
2024-04-26 10:18:32			0	33479	0	0	0	16262	14890	156789	27680	952164	37821	105876	0	0	8148	789398	0	0
2024-04-26 10:19:32			0	33522	0	0	0	16254	14880	156697	27433	952208	37841	105873	0	0	8151	787236	0	0
2024-04-26 10:20:32			0	33540	0	0	0	16267	14890	156565	27400	952172	37833	105878	0	0	8152	786273	0	0
2024-04-26 10:21:32			0	33540	0	0	0	16270	14890	156361	27448	952190	37842	105879	0	0	8152	786273	0	0
2024-04-26 10:22:32			0	33534	0	0	0	16277	14890	156453	27350	952190	37842	105882	0	0	8151	786580	0	0
2024-04-26 10:23:32			0	33541	0	0	0	16277	14890	156509	27789	952172	37843	105882	0	0	8152	786222	0	0
2024-04-26 10:24:32			0	33564	0	0	0	16290	14900	156462	27536	952180	37843	105887	0	0	8153	785004	0	0
2024-04-26 10:25:32			0	33557	0	0	0	16285	14900	156317	27685	952259	37843	105885	0	0	8152	785362	0	0
2024-04-26 10:26:32			0	33579	0	0	0	16296	14900	156306	27649	952206	37854	105889	0	0	8154	784238	0	0
2024-04-26 10:27:32			0	33593	0	0	0	16301	14910	156210	27680	952275	37844	105891	0	0	8154	783482	0	0
2024-04-26 10:28:32			0	33585	0	0	0	16309	14900	156254	27441	952259	37833	105894	0	0	8154	783932	0	0
2024-04-26 10:29:32			0	33577	0	0	0	16311	14910	156178	27564	952301	37833	105895	0	0	8153	784298	0	0
2024-04-26 10:30:32			0	33595	0	0	0	16314	14920	156162	27320	952317	37824	105896	0	0	8154	783338	0	0
2024-04-26 10:31:32			0	33612	0	0	0	16309	14930	156170	27604	952360	37846	105894	0	0	8155	782429	0	0
2024-04-26 10:32:32			0	33622	0	0	0	16306	14920	156110	27777	952317	37845	105893	0	0	8156	781962	0	0
2024-04-26 10:33:32			0	33608	0	0	0	16306	14930	156182	27460	952334	37834	105893	0	0	8155	782633	0	0
2024-04-26 10:34:32			0	33621	0	0	0	16311	14940	156042	27398	952271	37835	105895	0	0	8156	781929	0	0
2024-04-26 10:35:32			0	33635	0	0	0	16298	14920	156086	27481	952299	37834	105890	0	0	8157	781300	0	0
2024-04-26 10:36:32			0	33642	0	0	0	16314	14930	156010	27410	952342	37846	105896	0	0	8157	780902	0	0
2024-04-26 10:37:32			0	33670	0	0	0	16314	14940	155762	27414	952376	37846	105896	0	0	8159	779437	0	0
2024-04-26 10:38:32			0	33670	0	0	0	16311	14920	155794	27682	952317	37845	105895	0	0	8159	779521	0	0
2024-04-26 10:39:32			0	33681	0	0	0	16309	14930	155670	27355	952334	37834	105894	0	0	8160	778920	0	0
2024-04-26 10:40:32			0	33714	0	0	0	16303	14930	155546	27859	952386	37834	105892	0	0	8162	777246	0	0
2024-04-26 10:41:32			0	33735	0	0	0	16290	14930	155558	27353	952360	37857	105887	0	0	8163	776183	0	0
2024-04-26 10:42:32			0	33717	0	0	0	16301	14940	155498	27509	952402	37846	105891	0	0	8162	777053	0	0
2024-04-26 10:43:32			0	33742	0	0	0	16314	14940	155530	27440	952350	37835	105896	0	0	8163	775787	0	0
2024-04-26 10:44:32			0	33729	0	0	0	16309	14940	155550	27769	952384	37836	105894	0	0	8162	776445	0	0
2024-04-26 10:45:32			0	33705	0	0	0	16314	14940	155578	27583	952324	37846	105896	0	0	8161	777661	0	0
2024-04-26 10:46:32			0	33697	0	0	0	16314	14940	155626	27370	952402	37857	105896	0	0	8160	778067	0	0
2024-04-26 10:47:32			0	33691	0	0	0	16319	14940	155670	27659	952411	37847	105898	0	0	8160	778371	0	0
2024-04-26 10:48:32			0	33688	0	0	0	16324	14940	155682	27724	952402	37846	105900	0	0	8160	778523	0	0
2024-04-26 10:49:32			0	33696	0	0	0	16332	14940	155578	27685	952402	37846	105903	0	0	8160	778117	0	0
2024-04-26 10:50:32			0	33691	0	0	0	16324	14950	155534	27696	952419	37847	105900	0	0	8160	778329	0	0
2024-04-26 10:51:32			0	33744	0	0	0	16337	14950	155474	27831	952498	37836	105905	0	0	8163	775644	0	0
2024-04-26 10:52:32			0	33775	0	0	0	16337	14960	155278	27691	952435	37837	105905	0	0	8165	774035	0	0
2024-04-26 10:53:32			0	33767	0	0	0	16337	14960	155306	27855	952514	37848	105905	0	0	8164	774440	0	0
2024-04-26 10:54:32			0	33767	0	0	0	16340	14950	155270	27540	952479	37848	105906	0	0	8164	774481	0	0
2024-04-26 10:55:32			0	33763	0	0	0	16340	14960	155302	27786	952488	37837	105906	0	0	8164	774642	0	0
2024-04-26 10:56:32			0	33754	0	0	0	16332	14960	155414	27698	952435	37859	105903	0	0	8164	775097	0	0
2024-04-26 10:57:32			0	33745	0	0	0	16327	14970	155474	27395	952451	37849	105901	0	0	8163	775510	0	0
2024-04-26 10:58:32			0	33742	0	0	0	16324	14960	155402	27550	952461	37859	105900	0	0	8163	775704	0	0
2024-04-26 10:59:32			0	33747	0	0	0	16332	14960	155370	27395	952469	37849	105903	0	0	8163	775451	0	0
2024-04-26 11:00:32			0	33744	0	0	0	16327	14960	155466	27478	952443	37849	105901	0	0	8163	775602	0	0
2024-04-26 11:01:32			0	33734	0	0	0	16327	14960	155406	27218	952469	37849	105901	0	0	8162	776108	0	0
2024-04-26 11:02:32			0	33753	0	0	0	16335	14970	155466	27531	952459	37829	105904	0	0	8164	775106	0	0
2024-04-26 11:03:32			0	33747	0	0	0	16337	14960	155398	27369	952522	37849	105905	0	0	8163	775451	0	0
2024-04-26 11:04:32			0	33766	0	0	0	16332	14960	155410	27431	952540	37859	105903	0	0	8164	774490	0	0
2024-04-26 11:05:32			0	33772	0	0	0	16335	14960	155398	27635	952435	37848	105904	0	0	8165	774187	0	0
2024-04-26 11:06:32			0	33775	0	0	0	16335	14970	155338	27736	952556	37849	105904	0	0	8165	773994	0	0
2024-04-26 11:07:32			0	33781	0	0	0	16332	14960	155298	27583	952443	37860	105903	0	0	8165	773733	0	0
2024-04-26 11:08:32			0	33786	0	0	0	16345	14970	155386	27547	952530	37860	105908	0	0	8165	773439	0	0
2024-04-26 11:09:32			0	33767	0	0	0	16337	14970	155414	27601	952556	37849	105905	0	0	8164	774398	0	0
2024-04-26 11:10:32			0	33781	0	0	0	16324	14970	155410	27552	952459	37850	105900	0	0	8165	773691	0	0
2024-04-26 11:11:32			0	33763	0	0	0	16335	14970	155534	27665	952530	37849	105904	0	0	8164	774600	0	0
2024-04-26 11:12:32			0	33728	0	0	0	16332	14960	155578	27312	952540	37837	105903	0	0	8162	776412	0	0
2024-04-26 11:13:32			0	33726	0	0	0	16337	14960	155562	27673	952540	37848	105905	0	0	8162	776513	0	0
2024-04-26 11:14:32			0	33738	0	0	0	16329	14950	155570	27658	952506	37837	105902	0	0	8163	775948	0	0
2024-04-26 11:15:32			0	33740	0	0	0	16324	14970	155542	27724	952538	37850	105900	0	0	8163	775763	0	0
2024-04-26 11:16:32			0	33735	0	0	0	16327	14970	155434	27904	952556	37838	105901	0	0	8163	776016	0	0
2024-04-26 11:17:32			0	33738	0	0	0	16324	14970	155566	27760	952556	37849	105900	0	0	8163	775864	0	0
2024-04-26 11:18:32			0	33736	0	0	0	16332	14960	155574	27753	952514	37848	105903	0	0	8163	776007	0	0
2024-04-26 11:19:32			0	33735	0	0	0	16329	14970	155610	27876	952477	37849	105902	0	0	8163	776016	0	0
2024-04-26 11:20:32			0	33754	0	0	0	16324	14970	155486	27516	952556	37849	105900	0	0	8164	775055	0	0
2024-04-26 11:21:32			0	33764	0	0	0	16322	14960	155426	28270	952496	37838	105899	0	0	8164	774591	0	0
2024-04-26 11:22:32			0	33791	0	0	0	16327	14970	155310	27895	952538	37829	105901	0	0	8166	773186	0	0
2024-04-26 11:23:32			0	33784	0	0	0	16327	14960	155278	27582	952469	37849	105901	0	0	8165	773581	0	0
2024-04-26 11:24:32			0	33822	0	0	0	16337	14970	155230	27769	952538	37850	105905	0	0	8168	771623	0	0
2024-04-26 11:25:32			0	33820	0	0	0	16350	14980	155242	27871	952546	37850	105910	0	0	8167	771683	0	0
2024-04-26 11:26:32			0	33845	0	0	0	16350	14970	155070	27620	952538	37850	105910	0	0	8169	770465	0	0
2024-04-26 11:27:32			0	33845	0	0	0	16348	14980	155014	27973	952573	37839	105909	0	0	8169	770424	0	0
2024-04-26 11:28:32			0	33857	0	0	0	16342	14970	154966	27715	952556	37849	105907	0	0	8170	769862	0	0
2024-04-26 11:29:32			0	33854	0	0	0	16350	14980	154974	28187	952581	37851	105910	0	0	8169	769971	0	0
2024-04-26 11:30:32			0	33829	0	0	0	16342	14980	155010	27855	952625	37829	105907	0	0	8168	771229	0	0
2024-04-26 11:31:32			0	33812	0	0	0	16342	14970	155106	27713	952583	37838	105907	0	0	8167	772127	0	0
2024-04-26 11:32:32			0	33832	0	0	0	16348	14980	155186	27994	952573	37850	105909	0	0	8168	771078	0	0
2024-04-26 11:33:32			0	33823	0	0	0	16340	14980	155138	27800	952581	37839	105906	0	0	8168	771531	0	0
2024-04-26 11:34:32			0	33836	0	0	0	16345	14980	155106	27795	952607	37839	105908	0	0	8168	770877	0	0
2024-04-26 11:35:32			0	33832	0	0	0	16340	14980	155154	28173	952546	37839	105906	0	0	8168	771078	0	0
2024-04-26 11:36:32			0	33837	0	0	0	16335	14970	155086	27739	952512	37861	105904	0	0	8168	770868	0	0
2024-04-26 11:37:32			0	33844	0	0	0	16340	14980	155066	27933	952599	37850	105906	0	0	8169	770474	0	0
2024-04-26 11:38:32			0	33864	0	0	0	16340	14980	155018	27727	952528	37851	105906	0	0	8170	769468	0	0
2024-04-26 11:39:32			0	33877	0	0	0	16337	14980	154874	27966	952494	37850	105905	0	0	8171	768815	0	0
2024-04-26 11:40:32			0	33871	0	0	0	16348	14970	154878	27651	952512	37850	105909	0	0	8170	769158	0	0
2024-04-26 11:41:32			0	33888	0	0	0	16348	14980	154850	27885	952607	37851	105909	0	0	8171	768263	0	0
2024-04-26 11:42:32			0	33882	0	0	0	16345	14980	154882	27786	952546	37850	105908	0	0	8171	768564	0	0
2024-04-26 11:43:32			0	33883	0	0	0	16350	14980	154806	27680	952581	37851	105910	0	0	8171	768514	0	0
2024-04-26 11:44:32			0	33889	0	0	0	16345	14990	154846	28031	952615	37840	105908	0	0	8171	768171	0	0
2024-04-26 11:45:32			0	33899	0	0	0	16353	14980	154754	28027	952546	37839	105911	0	0	8172	767711	0	0
2024-04-26 11:46:32			0	33915	0	0	0	16353	14980	154642	27767	952573	37872	105911	0	0	8173	766908	0	0
2024-04-26 11:47:32			0	33902	0	0	0	16350	14980	154678	28292	952633	37862	105910	0	0	8172	767560	0	0
2024-04-26 11:48:32			0	33893	0	0	0	16368	14970	154758	27649	952617	37861	105917	0	0	8171	768053	0	0
2024-04-26 11:49:32			0	33889	0	0	0	16361	14980	154798	27493	952633	37851	105914	0	0	8171	768212	0	0
2024-04-26 11:50:32			0	33889	0	0	0	16363	14990	154742	27386	952641	37851	105915	0	0	8171	768171	0	0
2024-04-26 11:51:32			0	33881	0	0	0	16368	14980	154874	27320	952581	37851	105917	0	0	8171	768614	0	0
2024-04-26 11:52:32			0	33881	0	0	0	16366	14990	154862	27422	952668	37851	105916	0	0	8171	768573	0	0
2024-04-26 11:53:32			0	33881	0	0	0	16371	14990	154942	27424	952615	37863	105918	0	0	8171	768573	0	0
2024-04-26 11:54:32			0	33868	0	0	0	16374	14980	154938	27540	952625	37850	105919	0	0	8170	769267	0	0
2024-04-26 11:55:32			0	33870	0	0	0	16371	14990	154954	27842	952728	37874	105918	0	0	8170	769125	0	0
2024-04-26 11:56:32			0	33860	0	0	0	16376	14990	154866	27613	952668	37863	105920	0	0	8169	769628	0	0
2024-04-26 11:57:32			0	33871	0	0	0	16368	14990	154906	27559	952641	37863	105917	0	0	8170	769075	0	0
2024-04-26 11:58:32			0	33857	0	0	0	16374	15010	154894	27694	952692	37863	105919	0	0	8169	769696	0	0
2024-04-26 11:59:32			0	33856	0	0	0	16379	15010	154998	27682	952771	37863	105921	0	0	8169	769747	0	0
2024-04-26 12:00:32			0	33858	0	0	0	16381	14990	155102	27706	952650	37863	105922	0	0	8169	769729	0	0
2024-04-26 12:01:32			0	33847	0	0	0	16387	15000	155058	27582	952684	37852	105924	0	0	8168	770241	0	0
2024-04-26 12:02:32			0	33850	0	0	0	16392	15010	155014	27699	952692	37852	105926	0	0	8168	770048	0	0
2024-04-26 12:03:32			0	33850	0	0	0	16392	15020	155014	27904	952761	37853	105926	0	0	8168	770007	0	0
2024-04-26 12:04:32			0	33856	0	0	0	16392	15010	154822	27467	952727	37864	105926	0	0	8169	769747	0	0
2024-04-26 12:05:32			0	33885	0	0	0	16407	15010	154838	27715	952727	37853	105932	0	0	8170	768290	0	0
2024-04-26 12:06:32			0	33875	0	0	0	16394	15030	154726	27796	952804	37865	105927	0	0	8170	768709	0	0
2024-04-26 12:07:32			0	33890	0	0	0	16402	15020	154794	27848	952822	37865	105930	0	0	8171	767997	0	0
2024-04-26 12:08:32			0	33892	0	0	0	16420	15030	154682	27802	952786	37855	105937	0	0	8171	767856	0	0
2024-04-26 12:09:32			0	33895	0	0	0	16428	15030	154722	27635	952812	37866	105940	0	0	8171	767705	0	0
2024-04-26 12:10:32			0	33922	0	0	0	16436	15030	154762	27869	952812	37876	105943	0	0	8172	766351	0	0
2024-04-26 12:11:32			0	33889	0	0	0	16433	15040	154630	27703	952820	37867	105942	0	0	8170	767965	0	0
2024-04-26 12:12:32			0	33902	0	0	0	16431	15040	154778	27542	952899	37845	105941	0	0	8171	767313	0	0
2024-04-26 12:13:32			0	33897	0	0	0	16425	15050	154762	27661	952889	37856	105939	0	0	8171	767522	0	0
2024-04-26 12:14:32			0	33907	0	0	0	16423	15050	154762	27873	952889	37877	105938	0	0	8171	767021	0	0
2024-04-26 12:15:32			0	33917	0	0	0	16425	15050	154650	27833	952863	37856	105939	0	0	8172	766520	0	0
2024-04-26 12:16:32			0	33942	0	0	0	16425	15040	154550	27713	952854	37867	105939	0	0	8173	765309	0	0
2024-04-26 12:17:32			0	33955	0	0	0	16436	15050	154610	27900	952871	37878	105943	0	0	8174	764617	0	0
2024-04-26 12:18:32			0	33948	0	0	0	16431	15050	154554	27670	952871	37868	105941	0	0	8174	764967	0	0
2024-04-26 12:19:32			0	33945	0	0	0	16436	15050	154430	27607	952889	37856	105943	0	0	8173	765118	0	0
2024-04-26 12:20:32			0	33955	0	0	0	16438	15050	154410	27975	952941	37867	105944	0	0	8174	764617	0	0
2024-04-26 12:21:32			0	33955	0	0	0	16451	15060	154410	27822	952913	37878	105949	0	0	8174	764576	0	0
2024-04-26 12:22:32			0	33983	0	0	0	16441	15060	154366	27748	952913	37878	105945	0	0	8176	763177	0	0
2024-04-26 12:23:32			0	33969	0	0	0	16444	15070	154242	27812	952982	37869	105946	0	0	8175	763835	0	0
2024-04-26 12:24:32			0	33994	0	0	0	16449	15070	154154	27300	953008	37858	105948	0	0	8176	762587	0	0
2024-04-26 12:25:32			0	34007	0	0	0	16451	15070	154194	27736	952903	37858	105949	0	0	8177	761939	0	0
2024-04-26 12:26:32			0	34026	0	0	0	16454	15070	154214	27758	952956	37869	105950	0	0	8178	760991	0	0
2024-04-26 12:27:32			0	34057	0	0	0	16457	15080	154022	27538	952964	37880	105951	0	0	8180	759407	0	0
2024-04-26 12:28:32			0	34058	0	0	0	16470	15070	154022	27736	953008	37869	105956	0	0	8180	759398	0	0
2024-04-26 12:29:32			0	34078	0	0	0	16470	15080	153994	27651	953043	37870	105956	0	0	8181	758363	0	0
2024-04-26 12:30:32			0	34052	0	0	0	16470	15080	154006	27708	953077	37880	105956	0	0	8179	759656	0	0
2024-04-26 12:31:32			0	34057	0	0	0	16483	15090	153938	27757	953041	37881	105961	0	0	8179	759367	0	0
2024-04-26 12:32:32			0	34052	0	0	0	16485	15090	154026	27708	953059	37880	105962	0	0	8179	759615	0	0
2024-04-26 12:33:32			0	34029	0	0	0	16477	15100	154042	27395	953075	37861	105959	0	0	8178	760719	0	0
2024-04-26 12:34:32			0	34015	0	0	0	16485	15100	154070	27536	953128	37861	105962	0	0	8177	761417	0	0
2024-04-26 12:35:32			0	34020	0	0	0	16490	15120	154114	27479	953134	37873	105964	0	0	8177	761086	0	0
2024-04-26 12:36:32			0	34032	0	0	0	16485	15110	154110	27684	953144	37873	105962	0	0	8178	760529	0	0
2024-04-26 12:37:32			0	34030	0	0	0	16488	15110	154070	27715	953073	37873	105963	0	0	8178	760629	0	0
2024-04-26 12:38:32			0	34016	0	0	0	16488	15110	154118	27523	953092	37883	105963	0	0	8177	761326	0	0
2024-04-26 12:39:32			0	34024	0	0	0	16485	15110	154118	27460	953092	37883	105962	0	0	8178	760928	0	0
2024-04-26 12:40:32			0	33999	0	0	0	16496	15120	154266	27473	953160	37884	105966	0	0	8176	762133	0	0
2024-04-26 12:41:32			0	33997	0	0	0	16490	15130	154330	27720	953098	37874	105964	0	0	8176	762192	0	0
2024-04-26 12:42:32			0	33982	0	0	0	16493	15120	154370	27685	953195	37874	105965	0	0	8175	762981	0	0
2024-04-26 12:43:32			0	33984	0	0	0	16496	15120	154286	27341	953160	37884	105966	0	0	8175	762881	0	0
2024-04-26 12:44:32			0	33980	0	0	0	16498	15120	154302	27374	953195	37884	105967	0	0	8175	763081	0	0
2024-04-26 12:45:32			0	33966	0	0	0	16485	15130	154430	28005	953159	37874	105962	0	0	8174	763739	0	0
2024-04-26 12:46:32			0	33947	0	0	0	16493	15130	154458	27535	953211	37884	105965	0	0	8173	764689	0	0
2024-04-26 12:47:32			0	33958	0	0	0	16498	15140	154478	27864	953220	37875	105967	0	0	8174	764098	0	0
2024-04-26 12:48:32			0	33946	0	0	0	16506	15130	154550	27524	953177	37863	105970	0	0	8173	764739	0	0
2024-04-26 12:49:32			0	33921	0	0	0	16522	15130	154502	27753	953238	37874	105976	0	0	8171	765990	0	0
2024-04-26 12:50:32			0	33931	0	0	0	16527	15140	154510	27866	953272	37875	105978	0	0	8172	765449	0	0
2024-04-26 12:51:32			0	33940	0	0	0	16522	15140	154438	27803	953280	37875	105976	0	0	8172	764998	0	0
2024-04-26 12:52:32			0	33964	0	0	0	16506	15150	154450	27379	953262	37886	105970	0	0	8174	763757	0	0
2024-04-26 12:53:32			0	33943	0	0	0	16514	15150	154466	27590	953288	37886	105973	0	0	8172	764807	0	0
2024-04-26 12:54:32			0	33940	0	0	0	16509	15150	154422	27421	953315	37875	105971	0	0	8172	764957	0	0
2024-04-26 12:55:32			0	33940	0	0	0	16511	15150	154450	27789	953244	37875	105972	0	0	8172	764957	0	0
2024-04-26 12:56:32			0	33957	0	0	0	16522	15160	154390	27822	953252	37876	105976	0	0	8173	764066	0	0
2024-04-26 12:57:32			0	33959	0	0	0	16532	15150	154454	27696	953341	37886	105980	0	0	8173	764007	0	0
2024-04-26 12:58:32			0	33963	0	0	0	16535	15160	154454	28041	953331	37876	105981	0	0	8173	763766	0	0
2024-04-26 12:59:32			0	33947	0	0	0	16532	15150	154366	28029	953349	37886	105980	0	0	8172	764607	0	0
2024-04-26 13:00:32			0	33964	0	0	0	16532	15160	154370	27887	953305	37887	105980	0	0	8173	763716	0	0
2024-04-26 13:01:32			0	33996	0	0	0	16516	15160	154206	28178	953278	37887	105974	0	0	8176	762119	0	0
2024-04-26 13:02:32			0	34003	0	0	0	16519	15160	154214	27871	953305	37876	105975	0	0	8176	761770	0	0
2024-04-26 13:03:32			0	33968	0	0	0	16527	15150	154314	27892	953296	37875	105978	0	0	8174	763558	0	0
2024-04-26 13:04:32			0	33996	0	0	0	16529	15160	154306	27847	953313	37888	105979	0	0	8175	762119	0	0
2024-04-26 13:05:32			0	33966	0	0	0	16527	15170	154278	27765	953373	37889	105978	0	0	8174	763575	0	0
2024-04-26 13:06:32			0	33973	0	0	0	16524	15170	154290	27760	953295	37867	105977	0	0	8174	763226	0	0
2024-04-26 13:07:32			0	33971	0	0	0	16535	15170	154346	27751	953321	37877	105981	0	0	8174	763326	0	0
2024-04-26 13:08:32			0	33963	0	0	0	16553	15170	154310	27717	953382	37889	105988	0	0	8173	763725	0	0
2024-04-26 13:09:32			0	33975	0	0	0	16548	15170	154326	27765	953382	37877	105986	0	0	8174	763126	0	0
2024-04-26 13:10:32			0	33980	0	0	0	16540	15170	154262	27505	953408	37877	105983	0	0	8174	762876	0	0
2024-04-26 13:11:32			0	33992	0	0	0	16550	15180	154226	27414	953390	37889	105987	0	0	8175	762237	0	0
2024-04-26 13:12:32			0	33985	0	0	0	16555	15170	154278	27554	953355	37867	105989	0	0	8174	762627	0	0
2024-04-26 13:13:32			0	33989	0	0	0	16555	15170	154318	27680	953382	37877	105989	0	0	8175	762427	0	0
2024-04-26 13:14:32			0	33990	0	0	0	16571	15180	154346	27673	953372	37901	105995	0	0	8174	762336	0	0
2024-04-26 13:15:32			0	33997	0	0	0	16553	15190	154306	27512	953432	37890	105988	0	0	8175	761946	0	0
2024-04-26 13:16:32			0	33991	0	0	0	16558	15190	154206	27632	953459	37890	105990	0	0	8175	762245	0	0
2024-04-26 13:17:32			0	33993	0	0	0	16566	15190	154158	27706	953485	37890	105993	0	0	8175	762146	0	0
2024-04-26 13:18:32			0	33987	0	0	0	16561	15190	154214	27424	953440	37901	105991	0	0	8174	762445	0	0
2024-04-26 13:19:32			0	33991	0	0	0	16548	15180	154222	27729	953442	37900	105986	0	0	8175	762286	0	0
2024-04-26 13:20:32			0	33996	0	0	0	16568	15190	154034	27822	953380	37879	105994	0	0	8175	761996	0	0
2024-04-26 13:21:32			0	34009	0	0	0	16566	15200	154122	27857	953475	37890	105993	0	0	8176	761307	0	0
2024-04-26 13:22:32			0	33992	0	0	0	16561	15200	154006	27498	953483	37891	105991	0	0	8175	762155	0	0
2024-04-26 13:23:32			0	34002	0	0	0	16555	15190	154030	27564	953493	37890	105989	0	0	8175	761697	0	0
2024-04-26 13:24:32			0	34006	0	0	0	16568	15190	154110	27559	953467	37890	105994	0	0	8175	761497	0	0
2024-04-26 13:25:32			0	34007	0	0	0	16568	15200	153998	27954	953509	37880	105994	0	0	8176	761407	0	0
2024-04-26 13:26:32			0	34018	0	0	0	16566	15190	154114	27659	953519	37901	105993	0	0	8176	760900	0	0
2024-04-26 13:27:32			0	34004	0	0	0	16568	15190	154050	28050	953493	37890	105994	0	0	8175	761597	0	0
2024-04-26 13:28:32			0	34009	0	0	0	16558	15200	153986	27772	953509	37880	105990	0	0	8176	761307	0	0
2024-04-26 13:29:32			0	34022	0	0	0	16563	15200	153962	27682	953449	37879	105992	0	0	8176	760660	0	0
2024-04-26 13:30:32			0	33999	0	0	0	16561	15200	154054	27972	953562	37891	105991	0	0	8175	761806	0	0
2024-04-26 13:31:32			0	34011	0	0	0	16553	15200	154054	27658	953457	37891	105988	0	0	8176	761207	0	0
2024-04-26 13:32:32			0	33998	0	0	0	16558	15200	154054	27474	953475	37890	105990	0	0	8175	761855	0	0
2024-04-26 13:33:32			0	33989	0	0	0	16550	15200	154122	27358	953483	37891	105987	0	0	8175	762304	0	0
2024-04-26 13:34:32			0	33988	0	0	0	16558	15200	154118	28091	953509	37870	105990	0	0	8175	762354	0	0
2024-04-26 13:35:32			0	33997	0	0	0	16558	15200	154146	27592	953562	37880	105990	0	0	8175	761905	0	0
2024-04-26 13:36:32			0	33994	0	0	0	16561	15200	154138	27633	953509	37880	105991	0	0	8175	762055	0	0
2024-04-26 13:37:32			0	33984	0	0	0	16555	15200	154082	27566	953404	37891	105989	0	0	8174	762554	0	0
2024-04-26 13:38:32			0	33997	0	0	0	16555	15200	154082	27471	953509	37880	105989	0	0	8175	761905	0	0
2024-04-26 13:39:32			0	33999	0	0	0	16558	15200	154130	27460	953457	37880	105990	0	0	8175	761806	0	0
2024-04-26 13:40:32			0	33985	0	0	0	16563	15200	154082	27479	953501	37890	105992	0	0	8174	762504	0	0
2024-04-26 13:41:32			0	33999	0	0	0	16571	15200	154062	27810	953509	37880	105995	0	0	8175	761806	0	0
2024-04-26 13:42:32			0	34005	0	0	0	16579	15210	154014	27888	953544	37892	105998	0	0	8175	761466	0	0
2024-04-26 13:43:32			0	34011	0	0	0	16579	15200	154058	27869	953475	37890	105998	0	0	8176	761207	0	0
2024-04-26 13:44:32			0	34003	0	0	0	16592	15210	154034	27871	953526	37892	106003	0	0	8175	761565	0	0
2024-04-26 13:45:32			0	34020	0	0	0	16592	15220	153986	27647	953507	37892	106003	0	0	8176	760677	0	0
2024-04-26 13:46:32			0	34021	0	0	0	16581	15210	153990	27296	953552	37892	105999	0	0	8176	760668	0	0
2024-04-26 13:47:32			0	34043	0	0	0	16581	15210	153970	27469	953578	37881	105999	0	0	8177	759574	0	0
2024-04-26 13:48:32			0	34047	0	0	0	16594	15220	153894	27523	953586	37881	106004	0	0	8178	759334	0	0
2024-04-26 13:49:32			0	34058	0	0	0	16584	15220	154034	27783	953560	37892	106000	0	0	8178	758787	0	0
2024-04-26 13:50:32			0	34069	0	0	0	16584	15220	153870	27724	953594	37904	106000	0	0	8179	758240	0	0
2024-04-26 13:51:32			0	34054	0	0	0	16592	15210	153830	27842	953578	37903	106003	0	0	8178	759027	0	0
2024-04-26 13:52:32			0	34050	0	0	0	16597	15210	153774	27407	953604	37903	106005	0	0	8178	759226	0	0
2024-04-26 13:53:32			0	34043	0	0	0	16594	15210	153838	27763	953596	37892	106004	0	0	8177	759574	0	0
2024-04-26 13:54:32			0	34069	0	0	0	16589	15220	153838	27744	953594	37904	106002	0	0	8179	758240	0	0
2024-04-26 13:55:32			0	34077	0	0	0	16599	15220	153738	27765	953542	37882	106006	0	0	8179	757843	0	0
2024-04-26 13:56:32			0	34065	0	0	0	16592	15230	153746	27776	953603	37894	106003	0	0	8179	758399	0	0
2024-04-26 13:57:32			0	34079	0	0	0	16589	15220	153758	27866	953542	37882	106002	0	0	8179	757744	0	0
2024-04-26 13:58:32			0	34067	0	0	0	16594	15230	153886	27864	953558	37894	106004	0	0	8179	758299	0	0
2024-04-26 13:59:32			0	34075	0	0	0	16638	15230	153846	27642	953663	37894	106021	0	0	8178	757902	0	0
2024-04-26 14:00:32			0	34056	0	0	0	16597	15230	153786	27428	953655	37883	106005	0	0	8178	758846	0	0
2024-04-26 14:01:32			0	34047	0	0	0	16579	15230	153946	27739	953611	37894	105998	0	0	8178	759293	0	0
2024-04-26 14:02:32			0	34038	0	0	0	16610	15230	153958	27708	953629	37905	106010	0	0	8177	759741	0	0
2024-04-26 14:03:32			0	34021	0	0	0	16592	15220	154014	27869	953515	37893	106003	0	0	8176	760628	0	0
2024-04-26 14:04:32			0	34024	0	0	0	16553	15230	154022	28010	953611	37894	105988	0	0	8177	760437	0	0
2024-04-26 14:05:32			0	33997	0	0	0	16584	15230	154074	27729	953584	37883	106000	0	0	8175	761783	0	0
2024-04-26 14:06:32			0	34011	0	0	0	16563	15230	154026	27661	953603	37905	105992	0	0	8176	761085	0	0
2024-04-26 14:07:32			0	34001	0	0	0	16579	15230	154090	27661	953532	37906	105998	0	0	8175	761583	0	0
2024-04-26 14:08:32			0	33998	0	0	0	16581	15220	154106	27557	953515	37904	105999	0	0	8175	761774	0	0
2024-04-26 14:09:32			0	34005	0	0	0	16586	15230	154202	27691	953603	37905	106001	0	0	8175	761384	0	0
2024-04-26 14:10:32			0	34003	0	0	0	16584	15220	154146	27613	953594	37904	106000	0	0	8175	761525	0	0
2024-04-26 14:11:32			0	33990	0	0	0	16581	15230	154182	27888	953663	37906	105999	0	0	8174	762131	0	0
2024-04-26 14:12:32			0	33967	0	0	0	16586	15220	154194	27656	953568	37893	106001	0	0	8173	763320	0	0
2024-04-26 14:13:32			0	33998	0	0	0	16576	15230	154150	27727	953550	37905	105997	0	0	8175	761733	0	0
2024-04-26 14:14:32			0	33983	0	0	0	16568	15220	154170	27921	953534	37903	105994	0	0	8174	762522	0	0
2024-04-26 14:15:32			0	33987	0	0	0	16576	15230	154258	27897	953603	37894	105997	0	0	8174	762281	0	0
2024-04-26 14:16:32			0	33989	0	0	0	16581	15220	154310	27906	953568	37893	105999	0	0	8174	762222	0	0
2024-04-26 14:17:32			0	33978	0	0	0	16584	15220	154306	27918	953586	37892	106000	0	0	8174	762771	0	0
2024-04-26 14:18:32			0	33973	0	0	0	16599	15220	154266	27478	953560	37892	106006	0	0	8173	763021	0	0
2024-04-26 14:19:32			0	33975	0	0	0	16607	15220	154250	27537	953621	37893	106009	0	0	8173	762921	0	0
2024-04-26 14:20:32			0	33978	0	0	0	16599	15220	154330	27708	953639	37881	106006	0	0	8173	762771	0	0
2024-04-26 14:21:32			0	33989	0	0	0	16602	15230	154262	27518	953637	37894	106007	0	0	8174	762181	0	0
2024-04-26 14:22:32			0	33990	0	0	0	16605	15230	154230	27450	953663	37894	106008	0	0	8174	762131	0	0
2024-04-26 14:23:32			0	33984	0	0	0	16605	15240	154206	27731	953619	37894	106008	0	0	8174	762390	0	0
2024-04-26 14:24:32			0	33974	0	0	0	16607	15240	154362	27545	953698	37894	106009	0	0	8173	762889	0	0
2024-04-26 14:25:32			0	33986	0	0	0	16605	15240	154234	27737	953671	37894	106008	0	0	8174	762290	0	0
2024-04-26 14:26:32			0	33972	0	0	0	16607	15240	154350	28095	953706	37894	106009	0	0	8173	762989	0	0
2024-04-26 14:27:32			0	33964	0	0	0	16610	15240	154250	28062	953653	37883	106010	0	0	8173	763388	0	0
2024-04-26 14:28:32			0	33958	0	0	0	16599	15250	154310	27656	953688	37906	106006	0	0	8172	763647	0	0
2024-04-26 14:29:32			0	33979	0	0	0	16607	15240	154282	27772	953645	37894	106009	0	0	8173	762639	0	0
2024-04-26 14:30:32			0	33964	0	0	0	16638	15250	154270	27609	953696	37907	106021	0	0	8172	763347	0	0
2024-04-26 14:31:32			0	33971	0	0	0	16696	15250	154302	27658	953801	37907	106043	0	0	8171	762998	0	0
2024-04-26 14:32:32			0	33989	0	0	0	16701	15270	154158	27687	953886	37919	106045	0	0	8173	762018	0	0
2024-04-26 14:33:32			0	33989	0	0	0	16716	15270	154218	27687	953886	37909	106051	0	0	8172	762018	0	0
2024-04-26 14:34:32			0	33999	0	0	0	16709	15280	154214	27762	953955	37909	106048	0	0	8173	761478	0	0
2024-04-26 14:35:32			0	33984	0	0	0	16688	15300	154106	27575	953980	37911	106040	0	0	8173	762144	0	0
2024-04-26 14:36:32			0	34003	0	0	0	16698	15310	154082	27587	953962	37922	106044	0	0	8174	761156	0	0
2024-04-26 14:37:32			0	33995	0	0	0	16685	15320	154162	27537	953978	37912	106039	0	0	8173	761514	0	0
2024-04-26 14:38:32			0	34024	0	0	0	16662	15310	154098	27585	953996	37900	106030	0	0	8175	760111	0	0
2024-04-26 14:39:32			0	34006	0	0	0	16641	15300	154066	27289	953927	37922	106022	0	0	8175	761048	0	0
2024-04-26 14:40:32			0	34011	0	0	0	16628	15310	154062	27588	953943	37900	106017	0	0	8175	760758	0	0
2024-04-26 14:41:32			0	33986	0	0	0	16631	15300	154138	27557	953874	37900	106018	0	0	8174	762044	0	0
2024-04-26 14:42:32			0	33977	0	0	0	16623	15300	154102	27916	953848	37911	106015	0	0	8173	762493	0	0
2024-04-26 14:43:32			0	33980	0	0	0	16615	15290	154186	27940	953885	37910	106012	0	0	8174	762385	0	0
2024-04-26 14:44:32			0	33973	0	0	0	16615	15300	154174	27493	953840	37911	106012	0	0	8173	762693	0	0
2024-04-26 14:45:32			0	33966	0	0	0	16628	15290	154210	27462	953858	37920	106017	0	0	8173	763083	0	0
2024-04-26 14:46:32			0	33972	0	0	0	16618	15300	154206	27639	953761	37911	106013	0	0	8173	762743	0	0
2024-04-26 14:47:32			0	33982	0	0	0	16625	15280	154174	27708	953876	37909	106016	0	0	8173	762326	0	0
2024-04-26 14:48:32			0	33958	0	0	0	16618	15290	154274	27746	953806	37899	106013	0	0	8172	763483	0	0
2024-04-26 14:49:32			0	33960	0	0	0	16625	15300	154334	27467	953840	37900	106016	0	0	8172	763342	0	0
2024-04-26 14:50:32			0	33960	0	0	0	16618	15290	154354	27640	953832	37888	106013	0	0	8172	763383	0	0
2024-04-26 14:51:32			0	33959	0	0	0	16638	15290	154374	27758	953806	37899	106021	0	0	8172	763433	0	0
2024-04-26 14:52:32			0	33950	0	0	0	16703	15310	154386	27777	953962	37900	106046	0	0	8170	763800	0	0
2024-04-26 14:53:32			0	33942	0	0	0	16737	15310	154342	27731	953996	37933	106059	0	0	8169	764200	0	0
2024-04-26 14:54:32			0	33970	0	0	0	16735	15300	154266	27798	954032	37911	106058	0	0	8171	762843	0	0
2024-04-26 14:55:32			0	33983	0	0	0	16711	15330	154182	27656	954028	37934	106049	0	0	8172	762071	0	0
2024-04-26 14:56:32			0	33997	0	0	0	16703	15330	154270	27894	954134	37923	106046	0	0	8173	761373	0	0
2024-04-26 14:57:32			0	33979	0	0	0	16724	15340	154214	27757	954071	37925	106054	0	0	8172	762230	0	0
2024-04-26 14:58:32			0	33998	0	0	0	16737	15340	154246	27822	954142	37914	106059	0	0	8173	761282	0	0
2024-04-26 14:59:32			0	33975	0	0	0	16740	15350	154162	27625	954193	37925	106060	0	0	8171	762388	0	0
2024-04-26 15:00:32			0	34001	0	0	0	16719	15350	154194	27595	954140	37925	106052	0	0	8173	761092	0	0
2024-04-26 15:01:32			0	33984	0	0	0	16703	15360	154114	27798	954183	37916	106046	0	0	8173	761898	0	0
2024-04-26 15:02:32			0	33997	0	0	0	16696	15370	154106	27627	954164	37927	106043	0	0	8174	761210	0	0
2024-04-26 15:03:32			0	33989	0	0	0	16701	15370	154242	27490	954138	37894	106045	0	0	8173	761608	0	0
2024-04-26 15:04:32			0	33996	0	0	0	16714	15360	154234	27920	954183	37905	106050	0	0	8173	761300	0	0
2024-04-26 15:05:32			0	33987	0	0	0	16709	15360	154090	27755	954095	37916	106048	0	0	8173	761749	0	0
2024-04-26 15:06:32			0	33989	0	0	0	16693	15360	154106	27722	954122	37916	106042	0	0	8173	761649	0	0
2024-04-26 15:07:32			0	33993	0	0	0	16683	15360	154206	27845	954122	37916	106038	0	0	8174	761450	0	0
2024-04-26 15:08:32			0	33976	0	0	0	16696	15360	154142	27918	954095	37926	106043	0	0	8172	762297	0	0
2024-04-26 15:09:32			0	33992	0	0	0	16732	15360	154126	27741	954104	37916	106057	0	0	8173	761500	0	0
2024-04-26 15:10:32			0	33979	0	0	0	16732	15370	154078	28048	954164	37905	106057	0	0	8172	762107	0	0
2024-04-26 15:11:32			0	33981	0	0	0	16737	15370	154118	28067	954164	37916	106059	0	0	8172	762007	0	0
2024-04-26 15:12:32			0	33999	0	0	0	16742	15370	154110	28062	954243	37927	106061	0	0	8173	761110	0	0
2024-04-26 15:13:32			0	33986	0	0	0	16714	15370	154174	27888	954217	37927	106050	0	0	8173	761758	0	0
2024-04-26 15:14:32			0	33986	0	0	0	16716	15380	154150	27866	954242	37917	106051	0	0	8173	761717	0	0
2024-04-26 15:15:32			0	34002	0	0	0	16709	15400	154082	28001	954187	37918	106048	0	0	8174	760838	0	0
2024-04-26 15:16:32			0	34014	0	0	0	16706	15380	154170	27869	954286	37906	106047	0	0	8174	760322	0	0
2024-04-26 15:17:32			0	34004	0	0	0	16716	15380	154014	27930	954215	37917	106051	0	0	8174	760820	0	0
2024-04-26 15:18:32			0	33995	0	0	0	16716	15390	154010	27831	954250	37918	106051	0	0	8173	761227	0	0
2024-04-26 15:19:32			0	34011	0	0	0	16724	15400	154022	27842	954240	37918	106054	0	0	8174	760390	0	0
2024-04-26 15:20:32			0	33995	0	0	0	16732	15390	154070	27959	954223	37908	106057	0	0	8173	761227	0	0
2024-04-26 15:21:32			0	34026	0	0	0	16740	15390	153962	28272	954276	37908	106060	0	0	8175	759684	0	0
2024-04-26 15:22:32			0	34013	0	0	0	16742	15390	153906	28081	954311	37918	106061	0	0	8174	760331	0	0
2024-04-26 15:23:32			0	34021	0	0	0	16761	15400	153878	27930	954292	37908	106068	0	0	8174	759892	0	0
2024-04-26 15:24:32			0	34010	0	0	0	16763	15400	153810	27802	954292	37918	106069	0	0	8173	760440	0	0
2024-04-26 15:25:32			0	34029	0	0	0	16755	15410	153846	27864	954361	37942	106066	0	0	8175	759453	0	0
2024-04-26 15:26:32			0	34029	0	0	0	16750	15400	153778	27979	954327	37919	106064	0	0	8175	759494	0	0
2024-04-26 15:27:32			0	34042	0	0	0	16763	15400	153842	27926	954371	37918	106069	0	0	8175	758848	0	0
2024-04-26 15:28:32			0	34048	0	0	0	16750	15410	153858	27966	954369	37920	106064	0	0	8176	758509	0	0
2024-04-26 15:29:32			0	34043	0	0	0	16758	15410	153826	27580	954361	37931	106067	0	0	8175	758758	0	0
2024-04-26 15:30:32			0	34044	0	0	0	16776	15410	153890	28020	954369	37931	106074	0	0	8175	758708	0	0
2024-04-26 15:31:32			0	34036	0	0	0	16768	15420	153838	27900	954378	37920	106071	0	0	8175	759065	0	0
2024-04-26 15:32:32			0	34052	0	0	0	16787	15410	153778	28027	954361	37920	106078	0	0	8175	758311	0	0
2024-04-26 15:33:32			0	34038	0	0	0	16781	15420	153822	27885	954483	37931	106076	0	0	8175	758965	0	0
2024-04-26 15:34:32			0	34049	0	0	0	16779	15430	153834	28081	954394	37911	106075	0	0	8175	758378	0	0
2024-04-26 15:35:32			0	34054	0	0	0	16768	15430	153750	27720	954446	37911	106071	0	0	8176	758130	0	0
2024-04-26 15:36:32			0	34060	0	0	0	16776	15430	153710	27861	954455	37932	106074	0	0	8176	757832	0	0
2024-04-26 15:37:32			0	34061	0	0	0	16794	15440	153694	27847	954489	37933	106081	0	0	8176	757741	0	0
2024-04-26 15:38:32			0	34069	0	0	0	16810	15430	153630	27817	954473	37921	106087	0	0	8176	757385	0	0
2024-04-26 15:39:32			0	34055	0	0	0	16836	15440	153818	27987	954515	37922	106097	0	0	8175	758039	0	0
2024-04-26 15:40:32			0	34062	0	0	0	16831	15440	153738	27914	954576	37933	106095	0	0	8175	757692	0	0
2024-04-26 15:41:32			0	34062	0	0	0	16820	15450	153742	27783	954611	37934	106091	0	0	8176	757651	0	0
2024-04-26 15:42:32			0	34060	0	0	0	16807	15460	153822	27942	954600	37924	106086	0	0	8176	757709	0	0
2024-04-26 15:43:32			0	34067	0	0	0	16818	15460	153794	28214	954574	37935	106090	0	0	8176	757362	0	0
2024-04-26 15:44:32			0	34067	0	0	0	16807	15460	153782	28077	954574	37924	106086	0	0	8176	757362	0	0
2024-04-26 15:45:32			0	34069	0	0	0	16812	15460	153694	28051	954600	37924	106088	0	0	8176	757263	0	0
2024-04-26 15:46:32			0	34055	0	0	0	16825	15460	153698	28093	954627	37935	106093	0	0	8175	757958	0	0
2024-04-26 15:47:32			0	34047	0	0	0	16846	15480	153694	27972	954659	37937	106101	0	0	8174	758273	0	0
2024-04-26 15:48:32			0	34054	0	0	0	16846	15470	153730	27873	954643	37915	106101	0	0	8175	757966	0	0
2024-04-26 15:49:32			0	34064	0	0	0	16831	15470	153702	28190	954678	37936	106095	0	0	8176	757470	0	0
2024-04-26 15:50:32			0	34076	0	0	0	16846	15470	153614	27937	954678	37925	106101	0	0	8176	756875	0	0
2024-04-26 15:51:32			0	34074	0	0	0	16849	15480	153698	27959	954694	37937	106102	0	0	8176	756933	0	0
2024-04-26 15:52:32			0	34057	0	0	0	16844	15480	153678	28015	954667	37926	106100	0	0	8175	757777	0	0
2024-04-26 15:53:32			0	34068	0	0	0	16838	15490	153618	28233	954755	37926	106098	0	0	8176	757190	0	0
2024-04-26 15:54:32			0	34068	0	0	0	16851	15490	153682	28209	954755	37938	106103	0	0	8176	757190	0	0
2024-04-26 15:55:32			0	34057	0	0	0	16849	15490	153730	28327	954763	37927	106102	0	0	8175	757736	0	0
2024-04-26 15:56:32			0	34070	0	0	0	16836	15500	153670	27907	954718	37938	106097	0	0	8176	757050	0	0
2024-04-26 15:57:32			0	34090	0	0	0	16846	15510	153586	27904	954761	37939	106101	0	0	8177	756018	0	0
2024-04-26 15:58:32			0	34083	0	0	0	16844	15510	153578	27620	954814	37928	106100	0	0	8177	756365	0	0
2024-04-26 15:59:32			0	34099	0	0	0	16851	15510	153478	27691	954735	37939	106103	0	0	8178	755573	0	0
2024-04-26 16:00:32			0	34099	0	0	0	16851	15510	153454	28270	954787	37950	106103	0	0	8178	755573	0	0
2024-04-26 16:01:32			0	34095	0	0	0	16846	15510	153578	27847	954769	37918	106101	0	0	8177	755770	0	0
2024-04-26 16:02:32			0	34092	0	0	0	16883	15510	153506	27663	954787	37928	106115	0	0	8177	755919	0	0
2024-04-26 16:03:32			0	34103	0	0	0	16864	15520	153490	27998	954777	37929	106108	0	0	8178	755334	0	0
2024-04-26 16:04:32			0	34116	0	0	0	16883	15510	153402	28086	954796	37929	106115	0	0	8178	754731	0	0
2024-04-26 16:05:32			0	34101	0	0	0	16864	15510	153522	27731	954787	37950	106108	0	0	8177	755473	0	0
2024-04-26 16:06:32			0	34097	0	0	0	16844	15510	153454	27999	954822	37951	106100	0	0	8178	755671	0	0
2024-04-26 16:07:32			0	34123	0	0	0	16859	15510	153434	27994	954735	37917	106106	0	0	8179	754385	0	0
2024-04-26 16:08:32			0	34121	0	0	0	16857	15520	153530	27828	954830	37940	106105	0	0	8179	754443	0	0
2024-04-26 16:09:32			0	34114	0	0	0	16864	15520	153422	27911	954883	37940	106108	0	0	8178	754790	0	0
2024-04-26 16:10:32			0	34110	0	0	0	16859	15520	153566	28140	954812	37941	106106	0	0	8178	754987	0	0
2024-04-26 16:11:32			0	34107	0	0	0	16864	15530	153514	27828	954828	37953	106108	0	0	8178	755095	0	0
2024-04-26 16:12:32			0	34115	0	0	0	16859	15520	153558	27899	954812	37941	106106	0	0	8178	754740	0	0
2024-04-26 16:13:32			0	34117	0	0	0	16844	15520	153590	27894	954838	37941	106100	0	0	8179	754641	0	0
2024-04-26 16:14:32			0	34122	0	0	0	16838	15530	153478	27788	954854	37919	106098	0	0	8179	754353	0	0
2024-04-26 16:15:32			0	34126	0	0	0	16844	15520	153578	28046	954777	37929	106100	0	0	8179	754196	0	0
2024-04-26 16:16:32			0	34115	0	0	0	16862	15520	153502	28090	954786	37941	106107	0	0	8178	754740	0	0
2024-04-26 16:17:32			0	34129	0	0	0	16857	15520	153490	28058	954812	37941	106105	0	0	8179	754047	0	0
2024-04-26 16:18:32			0	34120	0	0	0	16846	15520	153454	27885	954812	37930	106101	0	0	8179	754493	0	0
2024-04-26 16:19:32			0	34135	0	0	0	16862	15520	153546	27803	954804	37929	106107	0	0	8179	753751	0	0
2024-04-26 16:20:32			0	34137	0	0	0	16864	15520	153478	27725	954856	37940	106108	0	0	8180	753652	0	0
2024-04-26 16:21:32			0	34120	0	0	0	16870	15520	153482	27992	954864	37941	106110	0	0	8178	754493	0	0
2024-04-26 16:22:32			0	34139	0	0	0	16890	15530	153502	27701	954846	37941	106118	0	0	8179	753513	0	0
2024-04-26 16:23:32			0	34130	0	0	0	16820	15530	153514	27852	954794	37941	106091	0	0	8180	753957	0	0
2024-04-26 16:24:32			0	34120	0	0	0	16807	15530	153494	27319	954794	37909	106086	0	0	8180	754452	0	0
2024-04-26 16:25:32			0	34104	0	0	0	16792	15520	153574	27692	954680	37930	106080	0	0	8179	755284	0	0
2024-04-26 16:26:32			0	34098	0	0	0	16820	15520	153622	27531	954751	37929	106091	0	0	8178	755581	0	0
2024-04-26 16:27:32			0	34094	0	0	0	16820	15510	153630	28088	954682	37928	106091	0	0	8178	755820	0	0
2024-04-26 16:28:32			0	34078	0	0	0	16831	15500	153642	27679	954727	37928	106095	0	0	8177	756654	0	0
2024-04-26 16:29:32			0	34093	0	0	0	16836	15500	153658	27847	954779	37928	106097	0	0	8177	755910	0	0
2024-04-26 16:30:32			0	34088	0	0	0	16880	15510	153702	27913	954761	37907	106114	0	0	8176	756117	0	0
2024-04-26 16:31:32			0	34093	0	0	0	16877	15510	153658	27925	954796	37940	106113	0	0	8177	755870	0	0
2024-04-26 16:32:32			0	34094	0	0	0	16890	15510	153678	27497	954769	37940	106118	0	0	8177	755820	0	0
2024-04-26 16:33:32			0	34108	0	0	0	16870	15520	153698	27540	954777	37940	106110	0	0	8178	755086	0	0
2024-04-26 16:34:32			0	34086	0	0	0	16870	15520	153622	27746	954804	37929	106110	0	0	8177	756176	0	0
2024-04-26 16:35:32			0	34113	0	0	0	16867	15510	153606	27838	954796	37940	106109	0	0	8178	754880	0	0
2024-04-26 16:36:32			0	34095	0	0	0	16807	15520	153594	27947	954830	37940	106086	0	0	8178	755730	0	0
2024-04-26 16:37:32			0	34085	0	0	0	16867	15510	153674	27932	954735	37928	106109	0	0	8176	756266	0	0
2024-04-26 16:38:32			0	34090	0	0	0	16867	15500	153690	27972	954727	37928	106109	0	0	8177	756059	0	0
2024-04-26 16:39:32			0	34094	0	0	0	16864	15510	153602	27847	954796	37940	106108	0	0	8177	755820	0	0
2024-04-26 16:40:32			0	34078	0	0	0	16846	15510	153630	27696	954787	37939	106101	0	0	8176	756613	0	0
2024-04-26 16:41:32			0	34082	0	0	0	16854	15510	153622	27737	954717	37940	106104	0	0	8177	756415	0	0
2024-04-26 16:42:32			0	34091	0	0	0	16854	15510	153682	27767	954769	37929	106104	0	0	8177	755969	0	0
2024-04-26 16:43:32			0	34091	0	0	0	16844	15510	153590	27386	954735	37939	106100	0	0	8177	755969	0	0
2024-04-26 16:44:32			0	34100	0	0	0	16851	15520	153542	27450	954777	37940	106103	0	0	8178	755482	0	0
2024-04-26 16:45:32			0	34083	0	0	0	16846	15520	153570	27722	954804	37951	106101	0	0	8177	756324	0	0
2024-04-26 16:46:32			0	34088	0	0	0	16857	15510	153702	28310	954822	37929	106105	0	0	8177	756117	0	0
2024-04-26 16:47:32			0	34115	0	0	0	16851	15510	153610	27614	954875	37940	106103	0	0	8178	754780	0	0
2024-04-26 16:48:32			0	34094	0	0	0	16864	15520	153642	27275	954812	37919	106108	0	0	8177	755779	0	0
2024-04-26 16:49:32			0	34103	0	0	0	16849	15520	153606	27377	954830	37940	106102	0	0	8178	755334	0	0
2024-04-26 16:50:32			0	34076	0	0	0	16854	15510	153690	27711	954796	37929	106104	0	0	8176	756712	0	0
2024-04-26 16:51:32			0	34079	0	0	0	16862	15510	153722	27516	954814	37939	106107	0	0	8176	756563	0	0
2024-04-26 16:52:32			0	34095	0	0	0	16862	15520	153690	27843	954830	37940	106107	0	0	8177	755730	0	0
2024-04-26 16:53:32			0	34096	0	0	0	16862	15520	153638	27537	954804	37940	106107	0	0	8177	755680	0	0
2024-04-26 16:54:32			0	34071	0	0	0	16864	15520	153622	27909	954804	37929	106108	0	0	8176	756919	0	0
2024-04-26 16:55:32			0	34076	0	0	0	16875	15520	153774	27682	954856	37929	106112	0	0	8176	756671	0	0
2024-04-26 16:56:32			0	34097	0	0	0	16885	15520	153742	27594	954830	37951	106116	0	0	8177	755631	0	0
2024-04-26 16:57:32			0	34098	0	0	0	16893	15530	153606	27563	954846	37952	106119	0	0	8177	755541	0	0
2024-04-26 16:58:32			0	34093	0	0	0	16898	15530	153610	27890	954846	37952	106121	0	0	8176	755788	0	0
2024-04-26 16:59:32			0	34098	0	0	0	16903	15530	153598	27708	954933	37942	106123	0	0	8177	755541	0	0
2024-04-26 17:00:32			0	34091	0	0	0	16898	15540	153658	27975	954942	37931	106121	0	0	8176	755847	0	0
2024-04-26 17:01:32			0	34097	0	0	0	16901	15530	153542	27441	954933	37953	106122	0	0	8177	755590	0	0
2024-04-26 17:02:32			0	34088	0	0	0	16893	15530	153610	28209	954881	37942	106119	0	0	8176	756036	0	0
2024-04-26 17:03:32			0	34102	0	0	0	16896	15540	153678	28091	954976	37943	106120	0	0	8177	755302	0	0
2024-04-26 17:04:32			0	34089	0	0	0	16893	15530	153698	27703	954986	37931	106119	0	0	8176	755986	0	0
2024-04-26 17:05:32			0	34104	0	0	0	16896	15540	153538	27710	954950	37943	106120	0	0	8177	755203	0	0
2024-04-26 17:06:32			0	34124	0	0	0	16901	15550	153510	27744	954958	37954	106122	0	0	8178	754173	0	0
2024-04-26 17:07:32			0	34109	0	0	0	16906	15540	153554	27930	954950	37954	106124	0	0	8177	754955	0	0
2024-04-26 17:08:32			0	34097	0	0	0	16914	15540	153494	27781	954976	37931	106127	0	0	8177	755550	0	0
2024-04-26 17:09:32			0	34110	0	0	0	16937	15540	153558	28083	954976	37964	106136	0	0	8177	754906	0	0
2024-04-26 17:10:32			0	34113	0	0	0	16929	15560	153418	27512	955053	37965	106133	0	0	8177	754676	0	0
2024-04-26 17:11:32			0	34119	0	0	0	16916	15560	153518	27474	955035	37944	106128	0	0	8178	754380	0	0
2024-04-26 17:12:32			0	34110	0	0	0	16935	15560	153498	27770	955035	37944	106135	0	0	8177	754825	0	0
2024-04-26 17:13:32			0	34115	0	0	0	16911	15560	153346	27717	955008	37944	106126	0	0	8178	754577	0	0
2024-04-26 17:14:32			0	34118	0	0	0	16911	15580	153486	27514	955033	37956	106126	0	0	8178	754348	0	0
2024-04-26 17:15:32			0	34118	0	0	0	16909	15560	153478	27937	955035	37944	106125	0	0	8178	754429	0	0
2024-04-26 17:16:32			0	34123	0	0	0	16922	15570	153478	27663	955043	37945	106130	0	0	8178	754141	0	0
2024-04-26 17:17:32			0	34133	0	0	0	16929	15570	153434	27763	955017	37934	106133	0	0	8178	753647	0	0
2024-04-26 17:18:32			0	34135	0	0	0	16932	15580	153474	27530	955059	37956	106134	0	0	8179	753508	0	0
2024-04-26 17:19:32			0	34120	0	0	0	16927	15580	153406	27538	955086	37956	106132	0	0	8178	754249	0	0
2024-04-26 17:20:32			0	34125	0	0	0	16942	15580	153454	27308	955094	37967	106138	0	0	8178	754002	0	0
2024-04-26 17:21:32			0	34120	0	0	0	16940	15580	153458	27715	955173	37946	106137	0	0	8178	754249	0	0
2024-04-26 17:22:32			0	34121	0	0	0	16919	15590	153350	28006	955155	37958	106129	0	0	8178	754159	0	0
2024-04-26 17:23:32			0	34120	0	0	0	16922	15590	153366	27874	955076	37936	106130	0	0	8178	754208	0	0
2024-04-26 17:24:32			0	34115	0	0	0	16906	15580	153330	27770	955112	37956	106124	0	0	8178	754496	0	0
2024-04-26 17:25:32			0	34139	0	0	0	16906	15600	153382	27677	955084	37958	106124	0	0	8179	753229	0	0
2024-04-26 17:26:32			0	34126	0	0	0	16906	15580	153390	28022	955059	37956	106124	0	0	8179	753952	0	0
2024-04-26 17:27:32			0	34120	0	0	0	16911	15590	153450	27611	955128	37958	106126	0	0	8178	754208	0	0
2024-04-26 17:28:32			0	34120	0	0	0	16919	15590	153426	27426	955128	37947	106129	0	0	8178	754208	0	0
2024-04-26 17:29:32			0	34122	0	0	0	16919	15590	153450	27613	955076	37958	106129	0	0	8178	754109	0	0
2024-04-26 17:30:32			0	34119	0	0	0	16914	15580	153434	27388	955120	37935	106127	0	0	8178	754298	0	0
2024-04-26 17:31:32			0	34127	0	0	0	16914	15580	153454	28003	955120	37946	106127	0	0	8178	753903	0	0
2024-04-26 17:32:32			0	34134	0	0	0	16903	15590	153386	27951	955049	37947	106123	0	0	8179	753516	0	0
2024-04-26 17:33:32			0	34147	0	0	0	16898	15590	153434	27724	955102	37947	106121	0	0	8180	752874	0	0
2024-04-26 17:34:32			0	34123	0	0	0	16896	15580	153470	28173	955086	37945	106120	0	0	8179	754101	0	0
2024-04-26 17:35:32			0	34122	0	0	0	16885	15580	153462	27980	955007	37945	106116	0	0	8179	754150	0	0
2024-04-26 17:36:32			0	34118	0	0	0	16898	15580	153434	27850	955041	37935	106121	0	0	8178	754348	0	0
2024-04-26 17:37:32			0	34117	0	0	0	16885	15570	153382	27914	954990	37945	106116	0	0	8178	754438	0	0
2024-04-26 17:38:32			0	34117	0	0	0	16890	15570	153526	27609	954964	37945	106118	0	0	8178	754438	0	0
2024-04-26 17:39:32			0	34112	0	0	0	16893	15570	153518	27498	955017	37945	106119	0	0	8178	754685	0	0
2024-04-26 17:40:32			0	34118	0	0	0	16898	15560	153382	27725	954930	37933	106121	0	0	8178	754429	0	0
2024-04-26 17:41:32			0	34125	0	0	0	16903	15560	153486	27838	955035	37944	106123	0	0	8178	754083	0	0
2024-04-26 17:42:32			0	34113	0	0	0	16893	15560	153478	28119	955000	37932	106119	0	0	8178	754676	0	0
2024-04-26 17:43:32			0	34108	0	0	0	16885	15560	153458	27550	955000	37955	106116	0	0	8178	754924	0	0
2024-04-26 17:44:32			0	34108	0	0	0	16877	15560	153510	28098	954921	37943	106113	0	0	8178	754924	0	0
2024-04-26 17:45:32			0	34118	0	0	0	16890	15550	153522	28084	954966	37955	106118	0	0	8178	754470	0	0
2024-04-26 17:46:32			0	34102	0	0	0	16890	15560	153462	27814	954930	37955	106118	0	0	8177	755221	0	0
2024-04-26 17:47:32			0	34107	0	0	0	16880	15550	153558	27568	954966	37932	106114	0	0	8178	755014	0	0
2024-04-26 17:48:32			0	34105	0	0	0	16888	15540	153522	27809	954976	37943	106117	0	0	8177	755154	0	0
2024-04-26 17:49:32			0	34109	0	0	0	16896	15560	153594	27568	955000	37943	106120	0	0	8178	754874	0	0
2024-04-26 17:50:32			0	34097	0	0	0	16883	15550	153498	27585	954940	37943	106115	0	0	8177	755509	0	0
2024-04-26 17:51:32			0	34107	0	0	0	16893	15560	153618	27519	955000	37955	106119	0	0	8178	754973	0	0
2024-04-26 17:52:32			0	34101	0	0	0	16883	15560	153542	27866	954974	37943	106115	0	0	8177	755270	0	0
2024-04-26 17:53:32			0	34106	0	0	0	16885	15550	153494	28018	954992	37943	106116	0	0	8178	755063	0	0
2024-04-26 17:54:32			0	34092	0	0	0	16867	15550	153526	27947	954940	37932	106109	0	0	8177	755756	0	0
2024-04-26 17:55:32			0	34100	0	0	0	16877	15550	153626	27757	954913	37943	106113	0	0	8177	755360	0	0
2024-04-26 17:56:32			0	34092	0	0	0	16867	15560	153474	27803	955000	37955	106109	0	0	8177	755716	0	0
2024-04-26 17:57:32			0	34087	0	0	0	16875	15560	153558	27727	954948	37943	106112	0	0	8177	755963	0	0
2024-04-26 17:58:32			0	34086	0	0	0	16877	15550	153602	27517	954966	37955	106113	0	0	8177	756054	0	0
2024-04-26 17:59:32			0	34070	0	0	0	16872	15540	153598	27881	954923	37931	106111	0	0	8176	756887	0	0
2024-04-26 18:00:32			0	34097	0	0	0	16872	15550	153682	27374	954931	37931	106111	0	0	8177	755509	0	0
2024-04-26 18:01:32			0	34074	0	0	0	16877	15540	153682	27774	954915	37942	106113	0	0	8176	756689	0	0
2024-04-26 18:02:32			0	34078	0	0	0	16875	15540	153678	27947	954923	37954	106112	0	0	8176	756491	0	0
2024-04-26 18:03:32			0	34084	0	0	0	16877	15540	153614	27512	954863	37931	106113	0	0	8176	756193	0	0
2024-04-26 18:04:32			0	34074	0	0	0	16877	15540	153658	27419	954942	37942	106113	0	0	8176	756689	0	0
2024-04-26 18:05:32			0	34081	0	0	0	16875	15540	153698	27609	954950	37931	106112	0	0	8176	756342	0	0
2024-04-26 18:06:32			0	34069	0	0	0	16864	15550	153754	27682	954879	37943	106108	0	0	8176	756896	0	0
2024-04-26 18:07:32			0	34046	0	0	0	16870	15540	153754	27540	954897	37943	106110	0	0	8174	758078	0	0
2024-04-26 18:08:32			0	34048	0	0	0	16872	15540	153798	27694	954897	37931	106111	0	0	8174	757979	0	0
2024-04-26 18:09:32			0	34054	0	0	0	16901	15530	153842	27842	954933	37931	106122	0	0	8174	757722	0	0
2024-04-26 18:10:32			0	34072	0	0	0	16885	15530	153930	27810	954986	37942	106116	0	0	8175	756829	0	0
2024-04-26 18:11:32			0	34064	0	0	0	16880	15540	153854	28098	955002	37954	106114	0	0	8175	757185	0	0
2024-04-26 18:12:32			0	34063	0	0	0	16885	15540	153718	27481	954950	37954	106116	0	0	8175	757235	0	0
2024-04-26 18:13:32			0	34058	0	0	0	16885	15550	153702	27322	954905	37943	106116	0	0	8175	757442	0	0
2024-04-26 18:14:32			0	34068	0	0	0	16870	15540	153754	27786	954923	37931	106110	0	0	8176	756986	0	0
2024-04-26 18:15:32			0	34044	0	0	0	16870	15540	153722	27493	954915	37931	106110	0	0	8174	758177	0	0
2024-04-26 18:16:32			0	34053	0	0	0	16883	15540	153794	27550	954871	37931	106115	0	0	8174	757731	0	0
2024-04-26 18:17:32			0	34062	0	0	0	16883	15530	153822	27770	954881	37942	106115	0	0	8175	757325	0	0
2024-04-26 18:18:32			0	34065	0	0	0	16883	15540	153850	27890	954976	37954	106115	0	0	8175	757135	0	0
2024-04-26 18:19:32			0	34062	0	0	0	16883	15540	153826	27928	954942	37942	106115	0	0	8175	757284	0	0
2024-04-26 18:20:32			0	34060	0	0	0	16867	15540	153802	27694	954942	37942	106109	0	0	8175	757383	0	0
2024-04-26 18:21:32			0	34062	0	0	0	16880	15540	153814	27514	954968	37942	106114	0	0	8175	757284	0	0
2024-04-26 18:22:32			0	34059	0	0	0	16870	15530	153886	27497	954854	37942	106110	0	0	8175	757474	0	0
2024-04-26 18:23:32			0	34058	0	0	0	16862	15540	153874	27637	954923	37943	106107	0	0	8175	757483	0	0
2024-04-26 18:24:32			0	34051	0	0	0	16857	15530	153838	27550	954828	37953	106105	0	0	8175	757871	0	0
2024-04-26 18:25:32			0	34048	0	0	0	16857	15530	153918	27677	954846	37941	106105	0	0	8175	758020	0	0
2024-04-26 18:26:32			0	34047	0	0	0	16864	15530	153950	27694	954925	37941	106108	0	0	8174	758069	0	0
2024-04-26 18:27:32			0	34043	0	0	0	16906	15530	153874	27698	954899	37962	106124	0	0	8173	758268	0	0
2024-04-26 18:28:32			0	34048	0	0	0	16906	15530	153866	27706	954952	37941	106124	0	0	8174	758020	0	0
2024-04-26 18:29:32			0	34067	0	0	0	16898	15540	153862	27737	954994	37953	106121	0	0	8175	757036	0	0
2024-04-26 18:30:32			0	34066	0	0	0	16898	15530	153790	27609	954986	37963	106121	0	0	8175	757126	0	0
2024-04-26 18:31:32			0	34082	0	0	0	16909	15540	153734	27407	954968	37942	106125	0	0	8176	756292	0	0
2024-04-26 18:32:32			0	34091	0	0	0	16911	15540	153726	27358	954950	37954	106126	0	0	8176	755847	0	0
2024-04-26 18:33:32			0	34088	0	0	0	16896	15550	153754	27462	954958	37954	106120	0	0	8176	755955	0	0
2024-04-26 18:34:32			0	34067	0	0	0	16885	15540	153786	27417	954994	37942	106116	0	0	8175	757036	0	0
2024-04-26 18:35:32			0	34075	0	0	0	16890	15540	153670	27390	954923	37943	106118	0	0	8176	756639	0	0
2024-04-26 18:36:32			0	34061	0	0	0	16888	15540	153830	27661	954968	37953	106117	0	0	8175	757334	0	0
2024-04-26 18:37:32			0	34066	0	0	0	16854	15540	153866	27549	954889	37942	106104	0	0	8176	757086	0	0
2024-04-26 18:38:32			0	34039	0	0	0	16849	15540	153850	27377	954871	37943	106102	0	0	8174	758426	0	0
2024-04-26 18:39:32			0	34035	0	0	0	16883	15530	153902	27286	954881	37942	106115	0	0	8173	758665	0	0
2024-04-26 18:40:32			0	34033	0	0	0	16875	15530	153998	27869	954846	37941	106112	0	0	8173	758764	0	0
2024-04-26 18:41:32			0	34050	0	0	0	16896	15530	153890	27732	954933	37942	106120	0	0	8174	757920	0	0
2024-04-26 18:42:32			0	34049	0	0	0	16890	15540	153802	27613	954915	37931	106118	0	0	8174	757929	0	0
2024-04-26 18:43:32			0	34053	0	0	0	16896	15530	153898	27569	954881	37953	106120	0	0	8174	757771	0	0
2024-04-26 18:44:32			0	34048	0	0	0	16893	15540	153834	27229	954950	37943	106119	0	0	8174	757979	0	0
2024-04-26 18:45:32			0	34080	0	0	0	16911	15530	153830	27279	955039	37942	106126	0	0	8176	756432	0	0
2024-04-26 18:46:32			0	34072	0	0	0	16888	15530	153830	27329	954952	37952	106117	0	0	8175	756829	0	0
2024-04-26 18:47:32			0	34068	0	0	0	16880	15540	153830	27298	954968	37953	106114	0	0	8175	756986	0	0
2024-04-26 18:48:32			0	34053	0	0	0	16870	15540	153870	27649	954968	37953	106110	0	0	8175	757731	0	0
2024-04-26 18:49:32			0	34058	0	0	0	16875	15540	153894	27326	954994	37931	106112	0	0	8175	757483	0	0
2024-04-26 18:50:32			0	34051	0	0	0	16890	15540	153882	27606	954950	37954	106118	0	0	8174	757830	0	0
2024-04-26 18:51:32			0	34034	0	0	0	16890	15530	153850	27554	954907	37963	106118	0	0	8173	758715	0	0
2024-04-26 18:52:32			0	34053	0	0	0	16859	15540	153822	27492	954863	37963	106106	0	0	8175	757731	0	0
2024-04-26 18:53:32			0	34024	0	0	0	16857	15540	153782	27341	954915	37953	106105	0	0	8173	759171	0	0
2024-04-26 18:54:32			0	34054	0	0	0	16857	15530	153854	27274	954854	37942	106105	0	0	8175	757722	0	0
2024-04-26 18:55:32			0	34044	0	0	0	16872	15530	153826	27478	954933	37942	106111	0	0	8174	758218	0	0
2024-04-26 18:56:32			0	34044	0	0	0	16867	15530	153878	27293	954899	37941	106109	0	0	8174	758218	0	0
2024-04-26 18:57:32			0	34033	0	0	0	16867	15530	153850	27211	954846	37962	106109	0	0	8174	758764	0	0
2024-04-26 18:58:32			0	34038	0	0	0	16864	15520	153950	27530	954891	37941	106108	0	0	8174	758557	0	0
2024-04-26 18:59:32			0	34026	0	0	0	16875	15540	153970	27509	954968	37942	106112	0	0	8173	759072	0	0
2024-04-26 19:00:32			0	34015	0	0	0	16867	15520	153946	27557	954917	37952	106109	0	0	8172	759700	0	0
2024-04-26 19:01:32			0	34022	0	0	0	16864	15520	153950	27348	954891	37941	106108	0	0	8173	759352	0	0
2024-04-26 19:02:32			0	34020	0	0	0	16867	15530	154058	27149	954873	37952	106109	0	0	8173	759411	0	0
2024-04-26 19:03:32			0	34016	0	0	0	16872	15520	154046	27286	954883	37940	106111	0	0	8172	759650	0	0
2024-04-26 19:04:32			0	34025	0	0	0	16857	15520	154022	27486	954856	37940	106105	0	0	8173	759203	0	0
2024-04-26 19:05:32			0	34026	0	0	0	16844	15520	154106	27531	954856	37940	106100	0	0	8173	759153	0	0
2024-04-26 19:06:32			0	34016	0	0	0	16831	15510	154090	27353	954814	37950	106095	0	0	8173	759691	0	0
2024-04-26 19:07:32			0	33982	0	0	0	16820	15520	154118	27377	954777	37961	106091	0	0	8171	761343	0	0
2024-04-26 19:08:32			0	33988	0	0	0	16828	15510	154214	27512	954708	37939	106094	0	0	8171	761085	0	0
2024-04-26 19:09:32			0	33978	0	0	0	16831	15500	154346	27531	954806	37939	106095	0	0	8171	761624	0	0
2024-04-26 19:10:32			0	33963	0	0	0	16825	15500	154206	27315	954718	37938	106093	0	0	8170	762372	0	0
2024-04-26 19:11:32			0	33954	0	0	0	16831	15490	154286	27642	954657	37938	106095	0	0	8169	762862	0	0
2024-04-26 19:12:32			0	33955	0	0	0	16849	15500	154334	27440	954745	37949	106102	0	0	8169	762771	0	0
2024-04-26 19:13:32			0	33974	0	0	0	16841	15490	154222	27357	954763	37960	106099	0	0	8170	761864	0	0
2024-04-26 19:14:32			0	33958	0	0	0	16831	15500	154218	27807	954745	37960	106095	0	0	8170	762621	0	0
2024-04-26 19:15:32			0	33960	0	0	0	16833	15500	154178	27450	954745	37949	106096	0	0	8170	762521	0	0
2024-04-26 19:16:32			0	33955	0	0	0	16838	15500	154246	27540	954753	37950	106098	0	0	8169	762771	0	0
2024-04-26 19:17:32			0	33964	0	0	0	16831	15500	154230	27339	954771	37949	106095	0	0	8170	762322	0	0
2024-04-26 19:18:32			0	33960	0	0	0	16838	15490	154182	27654	954728	37938	106098	0	0	8170	762562	0	0
2024-04-26 19:19:32			0	33970	0	0	0	16833	15490	154262	27677	954684	37938	106096	0	0	8170	762064	0	0
2024-04-26 19:20:32			0	33958	0	0	0	16828	15490	154182	27441	954728	37938	106094	0	0	8170	762662	0	0
2024-04-26 19:21:32			0	33971	0	0	0	16828	15490	154270	27346	954676	37949	106094	0	0	8170	762014	0	0
2024-04-26 19:22:32			0	33942	0	0	0	16820	15480	154426	27345	954746	37937	106091	0	0	8169	763502	0	0
2024-04-26 19:23:32			0	33957	0	0	0	16820	15470	154430	27578	954678	37925	106091	0	0	8170	762794	0	0
2024-04-26 19:24:32			0	33965	0	0	0	16828	15480	154398	27227	954686	37926	106094	0	0	8170	762354	0	0
2024-04-26 19:25:32			0	33942	0	0	0	16825	15470	154450	27015	954696	37958	106093	0	0	8169	763543	0	0
2024-04-26 19:26:32			0	33941	0	0	0	16818	15480	154358	27786	954720	37937	106090	0	0	8169	763551	0	0
2024-04-26 19:27:32			0	33938	0	0	0	16812	15480	154406	27112	954659	37937	106088	0	0	8169	763701	0	0
2024-04-26 19:28:32			0	33931	0	0	0	16818	15470	154446	27223	954651	37936	106090	0	0	8168	764092	0	0
2024-04-26 19:29:32			0	33924	0	0	0	16825	15470	154450	27403	954625	37936	106093	0	0	8168	764442	0	0
2024-04-26 19:30:32			0	33926	0	0	0	16831	15470	154486	27549	954678	37936	106095	0	0	8168	764342	0	0
2024-04-26 19:31:32			0	33936	0	0	0	16828	15470	154430	27192	954617	37958	106094	0	0	8168	763842	0	0
2024-04-26 19:32:32			0	33947	0	0	0	16812	15470	154422	27407	954643	37947	106088	0	0	8169	763293	0	0
2024-04-26 19:33:32			0	33926	0	0	0	16802	15460	154398	27310	954635	37924	106084	0	0	8168	764383	0	0
2024-04-26 19:34:32			0	33930	0	0	0	16802	15460	154550	27692	954609	37924	106084	0	0	8168	764183	0	0
2024-04-26 19:35:32			0	33917	0	0	0	16805	15470	154578	27545	954617	37936	106085	0	0	8168	764792	0	0
2024-04-26 19:36:32			0	33915	0	0	0	16812	15460	154466	27329	954556	37924	106088	0	0	8167	764933	0	0
2024-04-26 19:37:32			0	33906	0	0	0	16823	15450	154530	27381	954566	37945	106092	0	0	8167	765424	0	0
2024-04-26 19:38:32			0	33914	0	0	0	16823	15450	154554	27360	954584	37934	106092	0	0	8167	765024	0	0
2024-04-26 19:39:32			0	33923	0	0	0	16815	15460	154498	27341	954627	37957	106089	0	0	8168	764533	0	0
2024-04-26 19:40:32			0	33926	0	0	0	16820	15460	154522	27414	954627	37946	106091	0	0	8168	764383	0	0
2024-04-26 19:41:32			0	33927	0	0	0	16823	15460	154474	27281	954627	37946	106092	0	0	8168	764333	0	0
2024-04-26 19:42:32			0	33930	0	0	0	16825	15460	154522	27540	954635	37935	106093	0	0	8168	764183	0	0
2024-04-26 19:43:32			0	33930	0	0	0	16825	15450	154466	27419	954619	37923	106093	0	0	8168	764224	0	0
2024-04-26 19:44:32			0	33920	0	0	0	16825	15460	154438	27390	954556	37946	106093	0	0	8167	764683	0	0
2024-04-26 19:45:32			0	33934	0	0	0	16823	15460	154446	27460	954653	37935	106092	0	0	8168	763983	0	0
2024-04-26 19:46:32			0	33932	0	0	0	16831	15460	154474	27310	954661	37957	106095	0	0	8168	764083	0	0
2024-04-26 19:47:32			0	33951	0	0	0	16828	15460	154450	27345	954688	37935	106094	0	0	8169	763134	0	0
2024-04-26 19:48:32			0	33940	0	0	0	16823	15460	154322	27350	954653	37946	106092	0	0	8169	763684	0	0
2024-04-26 19:49:32			0	33949	0	0	0	16820	15470	154394	27315	954696	37947	106091	0	0	8169	763193	0	0
2024-04-26 19:50:32			0	33944	0	0	0	16825	15460	154410	27346	954661	37946	106093	0	0	8169	763484	0	0
2024-04-26 19:51:32			0	33935	0	0	0	16831	15470	154454	27604	954617	37947	106095	0	0	8168	763892	0	0
2024-04-26 19:52:32			0	33940	0	0	0	16818	15460	154514	27360	954688	37946	106090	0	0	8169	763684	0	0
2024-04-26 19:53:32			0	33928	0	0	0	16825	15460	154494	27630	954635	37935	106093	0	0	8168	764283	0	0
2024-04-26 19:54:32			0	33925	0	0	0	16828	15460	154462	27215	954679	37946	106094	0	0	8168	764433	0	0
2024-04-26 19:55:32			0	33933	0	0	0	16836	15460	154386	27296	954635	37935	106097	0	0	8168	764033	0	0
2024-04-26 19:56:32			0	33970	0	0	0	16825	15450	154386	27185	954671	37945	106093	0	0	8170	762228	0	0
2024-04-26 19:57:32			0	33964	0	0	0	16825	15460	154398	27402	954653	37957	106093	0	0	8170	762486	0	0
2024-04-26 19:58:32			0	33972	0	0	0	16825	15460	154350	27486	954627	37935	106093	0	0	8170	762087	0	0
2024-04-26 19:59:32			0	33981	0	0	0	16823	15460	154334	27651	954627	37946	106092	0	0	8171	761638	0	0
2024-04-26 20:00:32			0	33970	0	0	0	16820	15460	154346	27305	954627	37946	106091	0	0	8170	762187	0	0
2024-04-26 20:01:32			0	33970	0	0	0	16828	15460	154342	27230	954609	37935	106094	0	0	8170	762187	0	0
2024-04-26 20:02:32			0	33985	0	0	0	16825	15460	154198	27137	954688	37935	106093	0	0	8171	761439	0	0
2024-04-26 20:03:32			0	33982	0	0	0	16825	15460	154286	27256	954635	37946	106093	0	0	8171	761589	0	0
2024-04-26 20:04:32			0	33983	0	0	0	16825	15460	154266	27332	954653	37957	106093	0	0	8171	761539	0	0
2024-04-26 20:05:32			0	33988	0	0	0	16836	15460	154158	27769	954600	37946	106097	0	0	8171	761290	0	0
2024-04-26 20:06:32			0	33968	0	0	0	16844	15460	154282	27345	954627	37946	106100	0	0	8170	762286	0	0
2024-04-26 20:07:32			0	33980	0	0	0	16828	15460	154330	27305	954653	37946	106094	0	0	8171	761688	0	0
2024-04-26 20:08:32			0	33980	0	0	0	16831	15460	154262	27607	954627	37935	106095	0	0	8171	761688	0	0
2024-04-26 20:09:32			0	33975	0	0	0	16825	15470	154346	27521	954590	37936	106093	0	0	8171	761896	0	0
2024-04-26 20:10:32			0	33984	0	0	0	16828	15460	154326	27471	954653	37935	106094	0	0	8171	761489	0	0
2024-04-26 20:11:32			0	33970	0	0	0	16831	15460	154322	27322	954627	37957	106095	0	0	8170	762187	0	0
2024-04-26 20:12:32			0	33964	0	0	0	16838	15450	154282	27298	954619	37945	106098	0	0	8170	762527	0	0
2024-04-26 20:13:32			0	33986	0	0	0	16838	15450	154250	27518	954619	37945	106098	0	0	8171	761430	0	0
2024-04-26 20:14:32			0	33984	0	0	0	16838	15460	154314	27711	954714	37946	106098	0	0	8171	761489	0	0
2024-04-26 20:15:32			0	33967	0	0	0	16846	15460	154318	27639	954679	37946	106101	0	0	8170	762336	0	0
2024-04-26 20:16:32			0	33976	0	0	0	16844	15470	154218	27460	954696	37947	106100	0	0	8170	761846	0	0
2024-04-26 20:17:32			0	33987	0	0	0	16854	15480	154354	27391	954712	37969	106104	0	0	8171	761258	0	0
2024-04-26 20:18:32			0	33985	0	0	0	16846	15470	154262	27431	954730	37958	106101	0	0	8171	761398	0	0
2024-04-26 20:19:32			0	34012	0	0	0	16846	15460	154174	27757	954627	37946	106101	0	0	8172	760095	0	0
2024-04-26 20:20:32			0	34006	0	0	0	16838	15470	154190	27362	954704	37947	106098	0	0	8172	760352	0	0
2024-04-26 20:21:32			0	34016	0	0	0	16846	15470	154266	27705	954730	37936	106101	0	0	8173	759855	0	0
2024-04-26 20:22:32			0	33989	0	0	0	16844	15480	154194	27495	954712	37969	106100	0	0	8171	761158	0	0
2024-04-26 20:23:32			0	33986	0	0	0	16849	15460	154186	27533	954688	37935	106102	0	0	8171	761389	0	0
2024-04-26 20:24:32			0	33995	0	0	0	16849	15460	154166	27448	954714	37957	106102	0	0	8171	760941	0	0
2024-04-26 20:25:32			0	33974	0	0	0	16854	15480	154210	27549	954738	37948	106104	0	0	8170	761905	0	0
2024-04-26 20:26:32			0	33987	0	0	0	16844	15470	154306	27256	954730	37947	106100	0	0	8171	761298	0	0
2024-04-26 20:27:32			0	34002	0	0	0	16838	15470	154254	27223	954730	37958	106098	0	0	8172	760551	0	0
2024-04-26 20:28:32			0	33991	0	0	0	16849	15480	154186	27374	954686	37948	106102	0	0	8171	761058	0	0
2024-04-26 20:29:32			0	33995	0	0	0	16849	15480	154250	27227	954738	37948	106102	0	0	8171	760859	0	0
2024-04-26 20:30:32			0	33988	0	0	0	16854	15480	154230	27640	954738	37948	106104	0	0	8171	761208	0	0
2024-04-26 20:31:32			0	33986	0	0	0	16851	15480	154266	27012	954791	37948	106103	0	0	8171	761307	0	0
2024-04-26 20:32:32			0	33997	0	0	0	16838	15480	154154	27317	954694	37958	106098	0	0	8172	760759	0	0
2024-04-26 20:33:32			0	34006	0	0	0	16854	15470	154198	27445	954696	37947	106104	0	0	8172	760352	0	0
2024-04-26 20:34:32			0	34003	0	0	0	16846	15480	154138	27218	954773	37948	106101	0	0	8172	760461	0	0
2024-04-26 20:35:32			0	33992	0	0	0	16833	15490	154170	27628	954728	37949	106096	0	0	8172	760967	0	0
2024-04-26 20:36:32			0	33981	0	0	0	16838	15470	154198	27137	954669	37947	106098	0	0	8171	761597	0	0
2024-04-26 20:37:32			0	33964	0	0	0	16838	15470	154322	27336	954704	37958	106098	0	0	8170	762445	0	0
2024-04-26 20:38:32			0	33972	0	0	0	16838	15470	154326	27246	954730	37936	106098	0	0	8170	762046	0	0
2024-04-26 20:39:32			0	33980	0	0	0	16841	15470	154238	27493	954704	37958	106099	0	0	8171	761647	0	0
2024-04-26 20:40:32			0	33972	0	0	0	16846	15470	154226	27135	954748	37936	106101	0	0	8170	762046	0	0
2024-04-26 20:41:32			0	33961	0	0	0	16833	15480	154346	27374	954712	37948	106096	0	0	8170	762553	0	0
2024-04-26 20:42:32			0	33966	0	0	0	16828	15470	154330	27478	954669	37958	106094	0	0	8170	762345	0	0
2024-04-26 20:43:32			0	33950	0	0	0	16820	15470	154462	27072	954722	37958	106091	0	0	8169	763143	0	0
2024-04-26 20:44:32			0	33944	0	0	0	16823	15470	154526	27048	954643	37947	106092	0	0	8169	763443	0	0
2024-04-26 20:45:32			0	33961	0	0	0	16810	15480	154402	27118	954686	37937	106087	0	0	8170	762553	0	0
2024-04-26 20:46:32			0	33936	0	0	0	16807	15470	154438	27300	954651	37947	106086	0	0	8169	763842	0	0
2024-04-26 20:47:32			0	33937	0	0	0	16818	15470	154582	27557	954643	37936	106090	0	0	8168	763792	0	0
2024-04-26 20:48:32			0	33926	0	0	0	16831	15450	154558	27481	954592	37945	106095	0	0	8168	764424	0	0
2024-04-26 20:49:32			0	33917	0	0	0	16831	15470	154586	27343	954643	37947	106095	0	0	8167	764792	0	0
2024-04-26 20:50:32			0	33921	0	0	0	16831	15470	154498	27177	954617	37947	106095	0	0	8167	764592	0	0
2024-04-26 20:51:32			0	33929	0	0	0	16823	15460	154506	27429	954653	37946	106092	0	0	8168	764233	0	0
2024-04-26 20:52:32			0	33935	0	0	0	16828	15460	154466	27687	954609	37946	106094	0	0	8168	763933	0	0
2024-04-26 20:53:32			0	33933	0	0	0	16833	15460	154426	27244	954635	37946	106096	0	0	8168	764033	0	0
2024-04-26 20:54:32			0	33942	0	0	0	16828	15460	154434	27204	954635	37946	106094	0	0	8169	763584	0	0
2024-04-26 20:55:32			0	33931	0	0	0	16831	15460	154442	27313	954706	37946	106095	0	0	8168	764133	0	0
2024-04-26 20:56:32			0	33929	0	0	0	16831	15460	154578	27294	954679	37957	106095	0	0	8168	764233	0	0
2024-04-26 20:57:32			0	33935	0	0	0	16825	15460	154550	27466	954653	37935	106093	0	0	8168	763933	0	0
2024-04-26 20:58:32			0	33931	0	0	0	16831	15460	154434	27521	954661	37946	106095	0	0	8168	764133	0	0
2024-04-26 20:59:32			0	33930	0	0	0	16825	15470	154458	27770	954669	37947	106093	0	0	8168	764142	0	0
2024-04-26 21:00:32			0	33920	0	0	0	16833	15460	154526	27334	954688	37957	106096	0	0	8167	764683	0	0
2024-04-26 21:01:32			0	33933	0	0	0	16831	15460	154538	27537	954627	37957	106095	0	0	8168	764033	0	0
2024-04-26 21:02:32			0	33944	0	0	0	16818	15470	154582	27367	954669	37947	106090	0	0	8169	763443	0	0
2024-04-26 21:03:32			0	33940	0	0	0	16833	15470	154550	27135	954696	37958	106096	0	0	8168	763643	0	0
2024-04-26 21:04:32			0	33923	0	0	0	16836	15460	154474	27402	954653	37946	106097	0	0	8167	764533	0	0
2024-04-26 21:05:32			0	33937	0	0	0	16820	15460	154418	27289	954635	37957	106091	0	0	8168	763833	0	0
2024-04-26 21:06:32			0	33922	0	0	0	16833	15460	154490	27308	954653	37946	106096	0	0	8167	764583	0	0
2024-04-26 21:07:32			0	33924	0	0	0	16828	15460	154602	27590	954653	37946	106094	0	0	8168	764483	0	0
2024-04-26 21:08:32			0	33936	0	0	0	16818	15460	154470	27540	954679	37946	106090	0	0	8168	763883	0	0
2024-04-26 21:09:32			0	33922	0	0	0	16818	15470	154438	27320	954643	37958	106090	0	0	8168	764542	0	0
2024-04-26 21:10:32			0	33941	0	0	0	16815	15450	154394	27428	954645	37945	106089	0	0	8169	763675	0	0
2024-04-26 21:11:32			0	33933	0	0	0	16823	15460	154570	27407	954600	37935	106092	0	0	8168	764033	0	0
2024-04-26 21:12:32			0	33926	0	0	0	16823	15470	154490	27339	954617	37947	106092	0	0	8168	764342	0	0
2024-04-26 21:13:32			0	33933	0	0	0	16807	15460	154538	27296	954661	37946	106086	0	0	8168	764033	0	0
2024-04-26 21:14:32			0	33911	0	0	0	16794	15460	154594	27421	954600	37935	106081	0	0	8167	765133	0	0
2024-04-26 21:15:32			0	33910	0	0	0	16802	15450	154630	27029	954619	37945	106084	0	0	8167	765224	0	0
2024-04-26 21:16:32			0	33914	0	0	0	16805	15450	154666	27599	954592	37945	106085	0	0	8167	765024	0	0
2024-04-26 21:17:32			0	33916	0	0	0	16810	15460	154570	27438	954627	37935	106087	0	0	8167	764883	0	0
2024-04-26 21:18:32			0	33915	0	0	0	16810	15460	154654	27466	954600	37946	106087	0	0	8167	764933	0	0
2024-04-26 21:19:32			0	33918	0	0	0	16810	15440	154650	27310	954594	37944	106087	0	0	8167	764865	0	0
2024-04-26 21:20:32			0	33907	0	0	0	16810	15450	154522	27286	954611	37945	106087	0	0	8167	765374	0	0
2024-04-26 21:21:32			0	33910	0	0	0	16805	15450	154670	27258	954584	37956	106085	0	0	8167	765224	0	0
2024-04-26 21:22:32			0	33896	0	0	0	16805	15460	154682	27372	954653	37935	106085	0	0	8166	765884	0	0
2024-04-26 21:23:32			0	33910	0	0	0	16805	15450	154618	27126	954584	37934	106085	0	0	8167	765224	0	0
2024-04-26 21:24:32			0	33896	0	0	0	16799	15450	154726	27384	954592	37956	106083	0	0	8166	765925	0	0
2024-04-26 21:25:32			0	33894	0	0	0	16797	15450	154730	27116	954558	37956	106082	0	0	8166	766025	0	0
2024-04-26 21:26:32			0	33878	0	0	0	16794	15440	154682	27682	954568	37933	106081	0	0	8165	766868	0	0
2024-04-26 21:27:32			0	33869	0	0	0	16802	15440	154722	27656	954594	37944	106084	0	0	8165	767319	0	0
2024-04-26 21:28:32			0	33877	0	0	0	16799	15450	154834	27414	954611	37945	106083	0	0	8165	766876	0	0
2024-04-26 21:29:32			0	33877	0	0	0	16789	15430	154954	27346	954560	37965	106079	0	0	8165	766959	0	0
2024-04-26 21:30:32			0	33863	0	0	0	16787	15440	155022	27293	954542	37955	106078	0	0	8165	767619	0	0
2024-04-26 21:31:32			0	33864	0	0	0	16792	15440	154842	27524	954542	37955	106080	0	0	8165	767569	0	0
2024-04-26 21:32:32			0	33854	0	0	0	16784	15430	154970	27282	954507	37944	106077	0	0	8164	768112	0	0
2024-04-26 21:33:32			0	33867	0	0	0	16784	15430	154958	27242	954534	37955	106077	0	0	8165	767460	0	0
2024-04-26 21:34:32			0	33859	0	0	0	16797	15430	154974	27123	954586	37944	106082	0	0	8164	767861	0	0
2024-04-26 21:35:32			0	33860	0	0	0	16792	15430	154862	27403	954525	37944	106080	0	0	8164	767811	0	0
2024-04-26 21:36:32			0	33840	0	0	0	16792	15430	154906	27142	954481	37944	106080	0	0	8163	768815	0	0
2024-04-26 21:37:32			0	33858	0	0	0	16789	15420	154854	27083	954491	37921	106079	0	0	8164	767953	0	0
2024-04-26 21:38:32			0	33846	0	0	0	16784	15420	154994	27573	954491	37943	106077	0	0	8164	768555	0	0
2024-04-26 21:39:32			0	33857	0	0	0	16779	15420	155034	27651	954517	37943	106075	0	0	8164	768003	0	0
2024-04-26 21:40:32			0	33855	0	0	0	16776	15430	154954	27246	954499	37944	106074	0	0	8164	768062	0	0
2024-04-26 21:41:32			0	33876	0	0	0	16787	15420	154854	27490	954483	37942	106078	0	0	8165	767050	0	0
2024-04-26 21:42:32			0	33873	0	0	0	16779	15410	154854	26956	954527	37953	106075	0	0	8165	767242	0	0
2024-04-26 21:43:32			0	33859	0	0	0	16774	15420	154818	27268	954483	37953	106073	0	0	8164	767902	0	0
2024-04-26 21:44:32			0	33858	0	0	0	16779	15420	154870	27213	954491	37943	106075	0	0	8164	767953	0	0
2024-04-26 21:45:32			0	33855	0	0	0	16781	15420	154914	27429	954509	37942	106076	0	0	8164	768103	0	0
2024-04-26 21:46:32			0	33853	0	0	0	16771	15420	154894	27412	954544	37954	106072	0	0	8164	768204	0	0
2024-04-26 21:47:32			0	33853	0	0	0	16771	15420	154938	27550	954491	37943	106072	0	0	8164	768204	0	0
2024-04-26 21:48:32			0	33846	0	0	0	16768	15420	154958	26948	954430	37931	106071	0	0	8164	768555	0	0
2024-04-26 21:49:32			0	33851	0	0	0	16771	15410	154970	27412	954467	37942	106072	0	0	8164	768345	0	0
2024-04-26 21:50:32			0	33845	0	0	0	16763	15420	155082	27471	954404	37942	106069	0	0	8164	768605	0	0
2024-04-26 21:51:32			0	33858	0	0	0	16774	15410	155078	27251	954475	37942	106073	0	0	8164	767994	0	0
2024-04-26 21:52:32			0	33840	0	0	0	16774	15410	155010	27434	954519	37942	106073	0	0	8163	768897	0	0
2024-04-26 21:53:32			0	33828	0	0	0	16776	15410	155058	27421	954422	37920	106074	0	0	8163	769500	0	0
2024-04-26 21:54:32			0	33815	0	0	0	16766	15420	155134	27265	954517	37954	106070	0	0	8162	770112	0	0
2024-04-26 21:55:32			0	33785	0	0	0	16766	15410	155262	27244	954493	37963	106070	0	0	8160	771663	0	0
2024-04-26 21:56:32			0	33785	0	0	0	16758	15410	155234	27124	954440	37942	106067	0	0	8160	771663	0	0
2024-04-26 21:57:32			0	33767	0	0	0	16761	15410	155418	27086	954414	37931	106068	0	0	8159	772570	0	0
2024-04-26 21:58:32			0	33767	0	0	0	16755	15400	155298	27261	954432	37952	106066	0	0	8159	772612	0	0
2024-04-26 21:59:32			0	33750	0	0	0	16755	15400	155378	27124	954353	37941	106066	0	0	8158	773469	0	0
2024-04-26 22:00:32			0	33766	0	0	0	16763	15410	155358	27457	954440	37963	106069	0	0	8159	772620	0	0
2024-04-26 22:01:32			0	33769	0	0	0	16763	15400	155362	27102	954458	37962	106069	0	0	8159	772511	0	0
2024-04-26 22:02:32			0	33767	0	0	0	16755	15390	155406	27367	954390	37940	106066	0	0	8159	772653	0	0
2024-04-26 22:03:32			0	33753	0	0	0	16761	15410	155342	27222	954440	37931	106068	0	0	8158	773276	0	0
2024-04-26 22:04:32			0	33781	0	0	0	16761	15400	155330	27251	954424	37929	106068	0	0	8160	771906	0	0
2024-04-26 22:05:32			0	33782	0	0	0	16753	15390	155262	27154	954416	37951	106065	0	0	8160	771897	0	0
2024-04-26 22:06:32			0	33757	0	0	0	16750	15400	155346	27440	954398	37940	106064	0	0	8159	773116	0	0
2024-04-26 22:07:32			0	33750	0	0	0	16745	15390	155506	27211	954442	37940	106062	0	0	8158	773510	0	0
2024-04-26 22:08:32			0	33755	0	0	0	16742	15390	155538	27069	954337	37940	106061	0	0	8159	773258	0	0
2024-04-26 22:09:32			0	33747	0	0	0	16745	15390	155390	27362	954337	37951	106062	0	0	8158	773662	0	0
2024-04-26 22:10:32			0	33768	0	0	0	16750	15400	155442	27220	954398	37940	106064	0	0	8159	772561	0	0
2024-04-26 22:11:32			0	33766	0	0	0	16755	15400	155422	27142	954450	37951	106066	0	0	8159	772662	0	0
2024-04-26 22:12:32			0	33763	0	0	0	16745	15390	155414	27568	954337	37951	106062	0	0	8159	772855	0	0
2024-04-26 22:13:32			0	33748	0	0	0	16745	15390	155422	27453	954390	37940	106062	0	0	8158	773611	0	0
2024-04-26 22:14:32			0	33752	0	0	0	16755	15390	155406	27390	954390	37940	106066	0	0	8158	773410	0	0
2024-04-26 22:15:32			0	33754	0	0	0	16758	15390	155390	27398	954355	37940	106067	0	0	8158	773309	0	0
2024-04-26 22:16:32			0	33781	0	0	0	16755	15390	155410	27381	954355	37951	106066	0	0	8160	771948	0	0
2024-04-26 22:17:32			0	33764	0	0	0	16761	15390	155434	27381	954408	37951	106068	0	0	8159	772804	0	0
2024-04-26 22:18:32			0	33776	0	0	0	16761	15380	155270	27203	954400	37939	106068	0	0	8160	772241	0	0
2024-04-26 22:19:32			0	33793	0	0	0	16755	15390	155230	26965	954416	37951	106066	0	0	8161	771343	0	0
2024-04-26 22:20:32			0	33794	0	0	0	16750	15390	155250	27199	954381	37940	106064	0	0	8161	771293	0	0
2024-04-26 22:21:32			0	33780	0	0	0	16750	15390	155254	27098	954416	37940	106064	0	0	8160	771998	0	0
2024-04-26 22:22:32			0	33789	0	0	0	16753	15380	155286	27078	954400	37928	106065	0	0	8161	771586	0	0
2024-04-26 22:23:32			0	33778	0	0	0	16745	15390	155330	27455	954442	37951	106062	0	0	8160	772099	0	0
2024-04-26 22:24:32			0	33791	0	0	0	16753	15390	155282	27305	954355	37951	106065	0	0	8161	771444	0	0
2024-04-26 22:25:32			0	33780	0	0	0	16748	15390	155390	27514	954355	37940	106063	0	0	8160	771998	0	0
2024-04-26 22:26:32			0	33796	0	0	0	16761	15390	155386	27486	954329	37940	106068	0	0	8161	771192	0	0
2024-04-26 22:27:32			0	33786	0	0	0	16755	15380	155418	27248	954347	37950	106066	0	0	8160	771737	0	0
2024-04-26 22:28:32			0	33786	0	0	0	16755	15390	155198	27332	954408	37940	106066	0	0	8160	771696	0	0
2024-04-26 22:29:32			0	33770	0	0	0	16750	15390	155378	26967	954355	37940	106064	0	0	8159	772502	0	0
2024-04-26 22:30:32			0	33770	0	0	0	16761	15400	155374	27438	954424	37929	106068	0	0	8159	772460	0	0
2024-04-26 22:31:32			0	33782	0	0	0	16758	15390	155334	27150	954381	37940	106067	0	0	8160	771897	0	0
2024-04-26 22:32:32			0	33760	0	0	0	16745	15380	155418	26922	954347	37939	106062	0	0	8159	773048	0	0
2024-04-26 22:33:32			0	33776	0	0	0	16748	15390	155422	27182	954408	37940	106063	0	0	8160	772199	0	0
2024-04-26 22:34:32			0	33766	0	0	0	16742	15380	155350	27144	954426	37939	106061	0	0	8159	772745	0	0
2024-04-26 22:35:32			0	33759	0	0	0	16740	15390	155422	27331	954416	37951	106060	0	0	8159	773057	0	0
2024-04-26 22:36:32			0	33762	0	0	0	16737	15390	155510	27381	954434	37940	106059	0	0	8159	772905	0	0
2024-04-26 22:37:32			0	33755	0	0	0	16742	15380	155554	27180	954268	37939	106061	0	0	8159	773300	0	0
2024-04-26 22:38:32			0	33730	0	0	0	16745	15380	155558	27211	954321	37928	106062	0	0	8157	774562	0	0
2024-04-26 22:39:32			0	33718	0	0	0	16740	15380	155590	27277	954347	37928	106060	0	0	8157	775168	0	0
2024-04-26 22:40:32			0	33721	0	0	0	16737	15390	155722	27168	954329	37929	106059	0	0	8157	774975	0	0
2024-04-26 22:41:32			0	33717	0	0	0	16732	15380	155686	27355	954268	37939	106057	0	0	8157	775219	0	0
2024-04-26 22:42:32			0	33692	0	0	0	16737	15380	155794	27538	954321	37928	106059	0	0	8155	776483	0	0
2024-04-26 22:43:32			0	33682	0	0	0	16735	15380	155890	27263	954391	37939	106058	0	0	8155	776989	0	0
2024-04-26 22:44:32			0	33684	0	0	0	16742	15370	155834	27043	954304	37939	106061	0	0	8154	776930	0	0
2024-04-26 22:45:32			0	33652	0	0	0	16735	15380	155978	27168	954391	37939	106058	0	0	8153	778510	0	0
2024-04-26 22:46:32			0	33676	0	0	0	16727	15380	156018	27275	954339	37927	106055	0	0	8154	777293	0	0
2024-04-26 22:47:32			0	33669	0	0	0	16735	15380	155950	27166	954321	37939	106058	0	0	8154	777648	0	0
2024-04-26 22:48:32			0	33668	0	0	0	16724	15360	155922	27131	954288	37938	106054	0	0	8154	777782	0	0
2024-04-26 22:49:32			0	33689	0	0	0	16719	15370	155886	27305	954251	37939	106052	0	0	8155	776677	0	0
2024-04-26 22:50:32			0	33678	0	0	0	16711	15370	155794	27261	954322	37938	106049	0	0	8155	777234	0	0
2024-04-26 22:51:32			0	33682	0	0	0	16722	15360	155754	27001	954261	37949	106053	0	0	8155	777073	0	0
2024-04-26 22:52:32			0	33684	0	0	0	16709	15370	155814	27279	954278	37927	106048	0	0	8155	776930	0	0
2024-04-26 22:53:32			0	33689	0	0	0	16716	15370	155870	27152	954243	37949	106051	0	0	8155	776677	0	0
2024-04-26 22:54:32			0	33683	0	0	0	16711	15360	155866	27519	954227	37926	106049	0	0	8155	777022	0	0
2024-04-26 22:55:32			0	33654	0	0	0	16719	15370	155806	27370	954243	37938	106052	0	0	8153	778450	0	0
2024-04-26 22:56:32			0	33673	0	0	0	16709	15370	155894	27119	954270	37938	106048	0	0	8154	777487	0	0
2024-04-26 22:57:32			0	33661	0	0	0	16716	15360	155906	27190	954280	37937	106051	0	0	8153	778137	0	0
2024-04-26 22:58:32			0	33627	0	0	0	16711	15380	155962	27093	954312	37939	106049	0	0	8152	779779	0	0
2024-04-26 22:59:32			0	33657	0	0	0	16716	15360	155934	26915	954209	37938	106051	0	0	8153	778340	0	0
2024-04-26 23:00:32			0	33668	0	0	0	16714	15350	155982	27448	954219	37947	106050	0	0	8154	777824	0	0
2024-04-26 23:01:32			0	33660	0	0	0	16706	15360	155922	27190	954235	37916	106047	0	0	8154	778188	0	0
2024-04-26 23:02:32			0	33636	0	0	0	16693	15350	155950	27441	954219	37936	106042	0	0	8152	779447	0	0
2024-04-26 23:03:32			0	33653	0	0	0	16701	15350	155966	27187	954219	37936	106045	0	0	8153	778585	0	0
2024-04-26 23:04:32			0	33649	0	0	0	16706	15360	155986	27409	954235	37938	106047	0	0	8153	778746	0	0
2024-04-26 23:05:32			0	33642	0	0	0	16690	15340	155926	27393	954229	37925	106041	0	0	8153	779185	0	0
2024-04-26 23:06:32			0	33642	0	0	0	16693	15350	155998	27156	954211	37936	106042	0	0	8153	779143	0	0
2024-04-26 23:07:32			0	33622	0	0	0	16706	15350	156062	27398	954245	37925	106047	0	0	8151	780158	0	0
2024-04-26 23:08:32			0	33642	0	0	0	16701	15350	156110	27237	954263	37925	106045	0	0	8153	779143	0	0
2024-04-26 23:09:32			0	33634	0	0	0	16688	15350	156006	27111	954211	37915	106040	0	0	8152	779549	0	0
2024-04-26 23:10:32			0	33631	0	0	0	16690	15350	156066	27267	954184	37947	106041	0	0	8152	779701	0	0
2024-04-26 23:11:32			0	33636	0	0	0	16683	15340	155970	27069	954168	37924	106038	0	0	8152	779489	0	0
2024-04-26 23:12:32			0	33638	0	0	0	16683	15340	156054	27509	954195	37935	106038	0	0	8153	779388	0	0
2024-04-26 23:13:32			0	33622	0	0	0	16680	15340	156082	27114	954142	37924	106037	0	0	8152	780200	0	0
2024-04-26 23:14:32			0	33645	0	0	0	16685	15340	156018	27358	954089	37935	106039	0	0	8153	779032	0	0
2024-04-26 23:15:32			0	33645	0	0	0	16698	15340	156106	27140	954203	37936	106044	0	0	8153	779032	0	0
2024-04-26 23:16:32			0	33640	0	0	0	16688	15330	156102	27396	954134	37934	106040	0	0	8153	779328	0	0
2024-04-26 23:17:32			0	33634	0	0	0	16693	15330	156002	27460	954160	37934	106042	0	0	8152	779633	0	0
2024-04-26 23:18:32			0	33635	0	0	0	16696	15320	156022	27410	954117	37934	106043	0	0	8152	779624	0	0
2024-04-26 23:19:32			0	33635	0	0	0	16696	15330	156062	27211	954126	37934	106043	0	0	8152	779582	0	0
2024-04-26 23:20:32			0	33621	0	0	0	16698	15330	156190	27105	954186	37945	106044	0	0	8151	780293	0	0
2024-04-26 23:21:32			0	33615	0	0	0	16701	15330	156358	27232	954081	37934	106045	0	0	8151	780598	0	0
2024-04-26 23:22:32			0	33589	0	0	0	16688	15330	156334	27114	954152	37934	106040	0	0	8150	781920	0	0
2024-04-26 23:23:32			0	33558	0	0	0	16688	15340	156361	27159	954168	37924	106040	0	0	8148	783457	0	0
2024-04-26 23:24:32			0	33576	0	0	0	16688	15340	156490	27433	954142	37935	106040	0	0	8149	782540	0	0
2024-04-26 23:25:32			0	33578	0	0	0	16683	15330	156334	27467	954107	37934	106038	0	0	8149	782481	0	0
2024-04-26 23:26:32			0	33569	0	0	0	16685	15330	156378	27201	954099	37934	106039	0	0	8148	782939	0	0
2024-04-26 23:27:32			0	33556	0	0	0	16677	15330	156405	27220	954152	37923	106036	0	0	8148	783601	0	0
2024-04-26 23:28:32			0	33547	0	0	0	16670	15320	156329	27293	954170	37913	106033	0	0	8147	784103	0	0
2024-04-26 23:29:32			0	33561	0	0	0	16677	15330	156289	27190	954178	37934	106036	0	0	8148	783347	0	0
2024-04-26 23:30:32			0	33576	0	0	0	16667	15330	156354	27320	954099	37934	106032	0	0	8149	782582	0	0
2024-04-26 23:31:32			0	33564	0	0	0	16670	15320	156337	26882	954144	37923	106033	0	0	8148	783236	0	0
2024-04-26 23:32:32			0	33554	0	0	0	16672	15320	156329	26901	954144	37923	106034	0	0	8148	783746	0	0
2024-04-26 23:33:32			0	33566	0	0	0	16677	15330	156389	27381	954107	37934	106036	0	0	8148	783092	0	0
2024-04-26 23:34:32			0	33564	0	0	0	16667	15320	156442	27109	954109	37922	106032	0	0	8148	783236	0	0
2024-04-26 23:35:32			0	33565	0	0	0	16667	15310	156382	27156	954040	37933	106032	0	0	8148	783227	0	0
2024-04-26 23:36:32			0	33553	0	0	0	16680	15320	156381	27185	954030	37922	106037	0	0	8148	783797	0	0
2024-04-26 23:37:32			0	33529	0	0	0	16672	15310	156489	27492	954049	37922	106034	0	0	8146	785064	0	0
2024-04-26 23:38:32			0	33530	0	0	0	16672	15320	156533	27692	954109	37933	106034	0	0	8146	784970	0	0
2024-04-26 23:39:32			0	33530	0	0	0	16670	15310	156557	27623	954040	37933	106033	0	0	8146	785013	0	0
2024-04-26 23:40:32			0	33524	0	0	0	16667	15320	156649	27000	954083	37933	106032	0	0	8146	785277	0	0
2024-04-26 23:41:32			0	33514	0	0	0	16662	15310	156533	27319	954040	37922	106030	0	0	8145	785830	0	0
2024-04-26 23:42:32			0	33515	0	0	0	16662	15310	156617	27575	954128	37933	106030	0	0	8146	785779	0	0
2024-04-26 23:43:32			0	33494	0	0	0	16664	15310	156693	27377	954067	37933	106031	0	0	8144	786853	0	0
2024-04-26 23:44:32			0	33505	0	0	0	16646	15310	156681	27473	954049	37933	106024	0	0	8145	786290	0	0
2024-04-26 23:45:32			0	33518	0	0	0	16651	15300	156633	27190	954032	37933	106026	0	0	8146	785668	0	0
2024-04-26 23:46:32			0	33529	0	0	0	16654	15300	156665	27225	954085	37922	106027	0	0	8146	785106	0	0
2024-04-26 23:47:32			0	33524	0	0	0	16654	15310	156549	27412	954014	37933	106027	0	0	8146	785319	0	0
2024-04-26 23:48:32			0	33514	0	0	0	16659	15300	156661	27183	953998	37932	106029	0	0	8145	785872	0	0
2024-04-26 23:49:32			0	33518	0	0	0	16651	15290	156673	27029	954016	37920	106026	0	0	8146	785710	0	0
2024-04-26 23:50:32			0	33515	0	0	0	16646	15300	156605	27225	953972	37911	106024	0	0	8146	785821	0	0
2024-04-26 23:51:32			0	33515	0	0	0	16644	15300	156689	27426	953998	37921	106023	0	0	8146	785821	0	0
2024-04-26 23:52:32			0	33504	0	0	0	16636	15300	156669	27410	953980	37933	106020	0	0	8145	786383	0	0
2024-04-26 23:53:32			0	33521	0	0	0	16631	15280	156625	27524	954008	37909	106018	0	0	8146	785599	0	0
2024-04-26 23:54:32			0	33521	0	0	0	16636	15280	156781	27142	953982	37930	106020	0	0	8146	785599	0	0
2024-04-26 23:55:32			0	33519	0	0	0	16628	15280	156757	27157	953955	37919	106017	0	0	8146	785701	0	0
2024-04-26 23:56:32			0	33501	0	0	0	16638	15280	156769	27189	954008	37930	106021	0	0	8145	786621	0	0
2024-04-26 23:57:32			0	33491	0	0	0	16638	15290	156757	27350	953990	37931	106021	0	0	8144	787091	0	0
2024-04-26 23:58:32			0	33498	0	0	0	16636	15280	156821	27282	953955	37919	106020	0	0	8145	786775	0	0
2024-04-26 23:59:32			0	33499	0	0	0	16631	15280	156729	27519	953947	37941	106018	0	0	8145	786724	0	0
2024-04-27 00:00:32			0	33491	0	0	0	16641	15270	156765	27362	953965	37919	106022	0	0	8144	787175	0	0
2024-04-27 00:01:32			0	33490	0	0	0	16628	15280	156857	27507	954000	37919	106017	0	0	8144	787184	0	0
2024-04-27 00:02:32			0	33499	0	0	0	16631	15270	156729	27393	953939	37930	106018	0	0	8145	786766	0	0
2024-04-27 00:03:32			0	33481	0	0	0	16615	15270	156853	27481	953965	37930	106012	0	0	8144	787687	0	0
2024-04-27 00:04:32			0	33491	0	0	0	16636	15280	156773	27319	953921	37909	106020	0	0	8144	787133	0	0
2024-04-27 00:05:32			0	33492	0	0	0	16641	15270	156805	27079	953939	37919	106022	0	0	8144	787124	0	0
2024-04-27 00:06:32			0	33490	0	0	0	16641	15280	156749	27211	953947	37930	106022	0	0	8144	787184	0	0
2024-04-27 00:07:32			0	33488	0	0	0	16638	15260	156753	27623	953941	37917	106021	0	0	8144	787371	0	0
2024-04-27 00:08:32			0	33486	0	0	0	16638	15270	156785	27540	954010	37929	106021	0	0	8144	787431	0	0
2024-04-27 00:09:32			0	33475	0	0	0	16628	15260	156905	27421	953967	37940	106017	0	0	8143	788037	0	0
2024-04-27 00:10:32			0	33484	0	0	0	16638	15270	156849	27367	953905	37918	106021	0	0	8144	787534	0	0
2024-04-27 00:11:32			0	33494	0	0	0	16636	15270	156909	27488	953913	37919	106020	0	0	8145	787022	0	0
2024-04-27 00:12:32			0	33474	0	0	0	16638	15260	156933	27272	953941	37907	106021	0	0	8143	788088	0	0
2024-04-27 00:13:32			0	33482	0	0	0	16636	15270	156845	27149	953913	37930	106020	0	0	8144	787636	0	0
2024-04-27 00:14:32			0	33487	0	0	0	16641	15270	156873	27255	953939	37919	106022	0	0	8144	787380	0	0
2024-04-27 00:15:32			0	33475	0	0	0	16638	15270	156825	27665	953992	37941	106021	0	0	8143	787995	0	0
2024-04-27 00:16:32			0	33477	0	0	0	16636	15270	156837	27715	953992	37919	106020	0	0	8143	787892	0	0
2024-04-27 00:17:32			0	33462	0	0	0	16644	15280	156917	27706	953921	37930	106023	0	0	8143	788618	0	0
2024-04-27 00:18:32			0	33484	0	0	0	16644	15270	156885	27168	953931	37929	106023	0	0	8144	787534	0	0
2024-04-27 00:19:32			0	33461	0	0	0	16636	15270	156937	27568	953984	37929	106020	0	0	8143	788712	0	0
2024-04-27 00:20:32			0	33454	0	0	0	16641	15270	156961	27279	953913	37930	106022	0	0	8142	789071	0	0
2024-04-27 00:21:32			0	33461	0	0	0	16633	15270	156945	27258	953939	37930	106019	0	0	8143	788712	0	0
2024-04-27 00:22:32			0	33455	0	0	0	16631	15260	156861	27192	953941	37928	106018	0	0	8142	789062	0	0
2024-04-27 00:23:32			0	33449	0	0	0	16631	15260	156957	27393	953949	37917	106018	0	0	8142	789370	0	0
2024-04-27 00:24:32			0	33459	0	0	0	16636	15260	156949	27194	953941	37917	106020	0	0	8142	788857	0	0
2024-04-27 00:25:32			0	33443	0	0	0	16633	15270	157049	27357	954018	37941	106019	0	0	8142	789635	0	0
2024-04-27 00:26:32			0	33445	0	0	0	16633	15260	157025	27258	953923	37917	106019	0	0	8142	789575	0	0
2024-04-27 00:27:32			0	33429	0	0	0	16625	15270	156961	27272	953965	37930	106016	0	0	8141	790353	0	0
2024-04-27 00:28:32			0	33443	0	0	0	16636	15260	157065	27305	953967	37917	106020	0	0	8141	789677	0	0
2024-04-27 00:29:32			0	33435	0	0	0	16618	15260	157117	27289	953923	37917	106013	0	0	8141	790088	0	0
2024-04-27 00:30:32			0	33415	0	0	0	16625	15260	157109	27379	953896	37928	106016	0	0	8140	791115	0	0
2024-04-27 00:31:32			0	33414	0	0	0	16625	15260	157133	27426	953896	37928	106016	0	0	8140	791167	0	0
2024-04-27 00:32:32			0	33401	0	0	0	16638	15270	157245	27239	953931	37918	106021	0	0	8139	791792	0	0
2024-04-27 00:33:32			0	33389	0	0	0	16625	15260	157237	27403	953862	37928	106016	0	0	8138	792452	0	0
2024-04-27 00:34:32			0	33387	0	0	0	16628	15260	157253	27209	953888	37928	106017	0	0	8138	792555	0	0
2024-04-27 00:35:32			0	33394	0	0	0	16628	15260	157261	27606	953888	37940	106017	0	0	8139	792195	0	0
2024-04-27 00:36:32			0	33392	0	0	0	16628	15260	157233	27575	953949	37907	106017	0	0	8139	792298	0	0
2024-04-27 00:37:32			0	33377	0	0	0	16610	15260	157241	27232	953888	37917	106010	0	0	8138	793070	0	0
2024-04-27 00:38:32			0	33386	0	0	0	16615	15250	157277	27300	953977	37916	106012	0	0	8138	792649	0	0
2024-04-27 00:39:32			0	33380	0	0	0	16649	15260	157305	27208	953967	37907	106025	0	0	8137	792915	0	0
2024-04-27 00:40:32			0	33377	0	0	0	16641	15250	157357	27384	953880	37917	106022	0	0	8137	793113	0	0
2024-04-27 00:41:32			0	33372	0	0	0	16633	15250	157469	27488	953924	37928	106019	0	0	8137	793370	0	0
2024-04-27 00:42:32			0	33363	0	0	0	16623	15260	157461	27502	953915	37940	106015	0	0	8137	793791	0	0
2024-04-27 00:43:32			0	33372	0	0	0	16636	15250	157373	27341	953959	37917	106020	0	0	8137	793370	0	0
2024-04-27 00:44:32			0	33342	0	0	0	16633	15250	157509	27199	953959	37928	106019	0	0	8135	794917	0	0
2024-04-27 00:45:32			0	33346	0	0	0	16641	15260	157437	27684	954002	37917	106022	0	0	8136	794667	0	0
2024-04-27 00:46:32			0	33352	0	0	0	16641	15260	157513	27315	953949	37917	106022	0	0	8136	794358	0	0
2024-04-27 00:47:32			0	33347	0	0	0	16644	15250	157493	27355	953907	37928	106023	0	0	8135	794659	0	0
2024-04-27 00:48:32			0	33350	0	0	0	16638	15270	157505	27367	953984	37918	106021	0	0	8136	794419	0	0
2024-04-27 00:49:32			0	33329	0	0	0	16638	15270	157489	27144	953965	37930	106021	0	0	8135	795502	0	0
2024-04-27 00:50:32			0	33349	0	0	0	16636	15260	157529	27230	953941	37928	106020	0	0	8136	794513	0	0
2024-04-27 00:51:32			0	33324	0	0	0	16636	15270	157601	27550	953957	37908	106020	0	0	8134	795760	0	0
2024-04-27 00:52:32			0	33342	0	0	0	16633	15260	157637	27043	953915	37928	106019	0	0	8135	794874	0	0
2024-04-27 00:53:32			0	33322	0	0	0	16631	15260	157709	27137	954020	37928	106018	0	0	8134	795906	0	0
2024-04-27 00:54:32			0	33311	0	0	0	16633	15270	157625	27357	953965	37930	106019	0	0	8134	796432	0	0
2024-04-27 00:55:32			0	33309	0	0	0	16638	15270	157705	27464	953957	37929	106021	0	0	8133	796535	0	0
2024-04-27 00:56:32			0	33314	0	0	0	16638	15270	157725	27459	953886	37919	106021	0	0	8134	796277	0	0
2024-04-27 00:57:32			0	33284	0	0	0	16646	15270	157853	27505	953965	37930	106024	0	0	8132	797828	0	0
2024-04-27 00:58:32			0	33291	0	0	0	16636	15260	157805	27345	953949	37928	106020	0	0	8132	797508	0	0
2024-04-27 00:59:32			0	33284	0	0	0	16651	15270	157837	27218	953965	37941	106026	0	0	8132	797828	0	0
2024-04-27 01:00:32			0	33289	0	0	0	16646	15270	157841	27308	953957	37918	106024	0	0	8132	797569	0	0
2024-04-27 01:01:32			0	33279	0	0	0	16649	15260	157793	27360	954002	37917	106025	0	0	8131	798129	0	0
2024-04-27 01:02:32			0	33282	0	0	0	16644	15270	157821	27691	953992	37930	106023	0	0	8132	797931	0	0
2024-04-27 01:03:32			0	33282	0	0	0	16631	15280	157877	27208	954026	37930	106018	0	0	8132	797888	0	0
2024-04-27 01:04:32			0	33269	0	0	0	16625	15270	157793	27206	953992	37930	106016	0	0	8131	798604	0	0
2024-04-27 01:05:32			0	33276	0	0	0	16636	15260	157777	27348	953941	37928	106020	0	0	8131	798285	0	0
2024-04-27 01:06:32			0	33282	0	0	0	16618	15250	157801	27048	953933	37940	106013	0	0	8132	798017	0	0
2024-04-27 01:07:32			0	33282	0	0	0	16618	15270	157781	27045	953939	37930	106013	0	0	8132	797931	0	0
2024-04-27 01:08:32			0	33272	0	0	0	16631	15250	157829	27312	953880	37928	106018	0	0	8131	798535	0	0
2024-04-27 01:09:32			0	33262	0	0	0	16641	15270	157857	27201	953905	37929	106022	0	0	8131	798967	0	0
2024-04-27 01:10:32			0	33266	0	0	0	16638	15260	157821	27159	953967	37928	106021	0	0	8131	798802	0	0
2024-04-27 01:11:32			0	33272	0	0	0	16633	15250	157853	27282	953907	37928	106019	0	0	8131	798535	0	0
2024-04-27 01:12:32			0	33253	0	0	0	16636	15250	157841	26963	953933	37928	106020	0	0	8130	799519	0	0
2024-04-27 01:13:32			0	33253	0	0	0	16628	15270	157873	27223	953957	37929	106017	0	0	8130	799433	0	0
2024-04-27 01:14:32			0	33229	0	0	0	16633	15270	158017	27138	953957	37918	106019	0	0	8129	800678	0	0
2024-04-27 01:15:32			0	33238	0	0	0	16638	15270	157973	27135	953984	37929	106021	0	0	8129	800211	0	0
2024-04-27 01:16:32			0	33236	0	0	0	16623	15270	158025	27281	953931	37918	106015	0	0	8129	800314	0	0
2024-04-27 01:17:32			0	33238	0	0	0	16633	15270	157977	27138	953905	37940	106019	0	0	8129	800211	0	0
2024-04-27 01:18:32			0	33227	0	0	0	16633	15260	158005	27093	953949	37917	106019	0	0	8129	800824	0	0
2024-04-27 01:19:32			0	33232	0	0	0	16623	15270	157985	27154	953957	37918	106015	0	0	8129	800522	0	0
2024-04-27 01:20:32			0	33244	0	0	0	16625	15260	157965	27433	953967	37928	106016	0	0	8130	799943	0	0
2024-04-27 01:21:32			0	33226	0	0	0	16618	15260	158121	27576	953915	37917	106013	0	0	8129	800876	0	0
2024-04-27 01:22:32			0	33226	0	0	0	16615	15260	158133	27272	953941	37917	106012	0	0	8129	800876	0	0
2024-04-27 01:23:32			0	33215	0	0	0	16612	15260	158137	27376	953915	37928	106011	0	0	8128	801448	0	0
2024-04-27 01:24:32			0	33212	0	0	0	16610	15260	158129	27355	953941	37940	106010	0	0	8128	801603	0	0
2024-04-27 01:25:32			0	33189	0	0	0	16612	15260	158189	27107	953915	37928	106011	0	0	8127	802799	0	0
2024-04-27 01:26:32			0	33191	0	0	0	16602	15250	158249	27216	953907	37928	106007	0	0	8127	802738	0	0
2024-04-27 01:27:32			0	33201	0	0	0	16607	15240	158297	27583	953890	37938	106009	0	0	8127	802261	0	0
2024-04-27 01:28:32			0	33184	0	0	0	16605	15250	158277	26972	953898	37916	106008	0	0	8126	803102	0	0
2024-04-27 01:29:32			0	33181	0	0	0	16612	15250	158361	27379	953846	37928	106011	0	0	8126	803258	0	0
2024-04-27 01:30:32			0	33161	0	0	0	16599	15240	158357	27159	953890	37906	106006	0	0	8125	804343	0	0
2024-04-27 01:31:32			0	33172	0	0	0	16605	15240	158341	27282	953837	37906	106008	0	0	8126	803770	0	0
2024-04-27 01:32:32			0	33173	0	0	0	16602	15240	158389	27303	953890	37927	106007	0	0	8126	803718	0	0
2024-04-27 01:33:32			0	33181	0	0	0	16599	15240	158329	27303	953856	37927	106006	0	0	8126	803301	0	0
2024-04-27 01:34:32			0	33170	0	0	0	16586	15240	158313	27114	953785	37916	106001	0	0	8126	803874	0	0
2024-04-27 01:35:32			0	33175	0	0	0	16571	15240	158341	27459	953829	37938	105995	0	0	8126	803614	0	0
2024-04-27 01:36:32			0	33176	0	0	0	16581	15240	158293	27069	953803	37916	105999	0	0	8126	803562	0	0
2024-04-27 01:37:32			0	33156	0	0	0	16584	15230	158309	27424	953760	37916	106000	0	0	8125	804646	0	0
2024-04-27 01:38:32			0	33168	0	0	0	16576	15230	158373	27317	953734	37916	105997	0	0	8126	804021	0	0
2024-04-27 01:39:32			0	33168	0	0	0	16579	15230	158357	27088	953795	37916	105998	0	0	8126	804021	0	0
2024-04-27 01:40:32			0	33178	0	0	0	16576	15220	158333	27542	953858	37925	105997	0	0	8126	803544	0	0
2024-04-27 01:41:32			0	33162	0	0	0	16574	15230	158225	27383	953839	37926	105996	0	0	8125	804334	0	0
2024-04-27 01:42:32			0	33169	0	0	0	16579	15220	158329	27313	953805	37915	105998	0	0	8126	804012	0	0
2024-04-27 01:43:32			0	33191	0	0	0	16571	15210	158289	27170	953736	37924	105995	0	0	8127	802910	0	0
2024-04-27 01:44:32			0	33187	0	0	0	16576	15220	158297	27074	953831	37925	105997	0	0	8127	803075	0	0
2024-04-27 01:45:32			0	33204	0	0	0	16579	15220	158337	26928	953770	37903	105998	0	0	8128	802192	0	0
2024-04-27 01:46:32			0	33223	0	0	0	16579	15210	158209	27308	953762	37924	105998	0	0	8129	801247	0	0
2024-04-27 01:47:32			0	33222	0	0	0	16571	15210	158149	27358	953789	37924	105995	0	0	8129	801299	0	0
2024-04-27 01:48:32			0	33241	0	0	0	16589	15220	158041	27274	953770	37914	106002	0	0	8130	800270	0	0
2024-04-27 01:49:32			0	33260	0	0	0	16594	15220	157997	27419	953797	37924	106004	0	0	8131	799285	0	0
2024-04-27 01:50:32			0	33273	0	0	0	16579	15210	157889	27481	953736	37924	105998	0	0	8132	798654	0	0
2024-04-27 01:51:32			0	33291	0	0	0	16574	15210	157737	27384	953762	37914	105996	0	0	8133	797723	0	0
2024-04-27 01:52:32			0	33312	0	0	0	16574	15220	157645	27279	953744	37935	105996	0	0	8134	796594	0	0
2024-04-27 01:53:32			0	33316	0	0	0	16568	15210	157681	27279	953710	37914	105994	0	0	8135	796430	0	0
2024-04-27 01:54:32			0	33290	0	0	0	16571	15220	157725	26713	953718	37924	105995	0	0	8133	797731	0	0
2024-04-27 01:55:32			0	33295	0	0	0	16568	15210	157729	27469	953736	37924	105994	0	0	8133	797516	0	0
2024-04-27 01:56:32			0	33267	0	0	0	16568	15210	157929	27039	953702	37924	105994	0	0	8132	798965	0	0
2024-04-27 01:57:32			0	33281	0	0	0	16558	15210	157865	27121	953781	37935	105990	0	0	8133	798240	0	0
2024-04-27 01:58:32			0	33272	0	0	0	16563	15200	157873	27242	953693	37913	105992	0	0	8132	798749	0	0
2024-04-27 01:59:32			0	33245	0	0	0	16574	15210	158033	27469	953762	37924	105996	0	0	8130	800106	0	0
2024-04-27 02:00:32			0	33233	0	0	0	16594	15200	158021	27459	953746	37923	106004	0	0	8129	800771	0	0
2024-04-27 02:01:32			0	33251	0	0	0	16599	15210	158005	27253	953702	37924	106006	0	0	8130	799794	0	0
2024-04-27 02:02:32			0	33275	0	0	0	16597	15210	158005	27440	953781	37924	106005	0	0	8132	798551	0	0
2024-04-27 02:03:32			0	33303	0	0	0	16602	15210	157813	27476	953789	37935	106007	0	0	8133	797102	0	0
2024-04-27 02:04:32			0	33329	0	0	0	16594	15200	157805	27547	953772	37923	106004	0	0	8135	795801	0	0
2024-04-27 02:05:32			0	33354	0	0	0	16584	15210	157557	26986	953781	37924	106000	0	0	8137	794468	0	0
2024-04-27 02:06:32			0	33366	0	0	0	16592	15220	157433	27166	953823	37914	106003	0	0	8137	793807	0	0
2024-04-27 02:07:32			0	33387	0	0	0	16592	15220	157341	27521	953744	37914	106003	0	0	8139	792725	0	0
2024-04-27 02:08:32			0	33390	0	0	0	16599	15210	157409	27251	953833	37924	106006	0	0	8139	792614	0	0
2024-04-27 02:09:32			0	33402	0	0	0	16599	15210	157309	27255	953841	37914	106006	0	0	8139	791996	0	0
2024-04-27 02:10:32			0	33403	0	0	0	16615	15210	157245	27046	953841	37924	106012	0	0	8139	791945	0	0
2024-04-27 02:11:32			0	33393	0	0	0	16607	15220	157293	27204	953779	37936	106009	0	0	8139	792417	0	0
2024-04-27 02:12:32			0	33419	0	0	0	16605	15230	157217	27530	953813	37926	106008	0	0	8140	791037	0	0
2024-04-27 02:13:32			0	33450	0	0	0	16607	15230	157041	27190	953847	37927	106009	0	0	8142	789445	0	0
2024-04-27 02:14:32			0	33439	0	0	0	16602	15230	157069	27348	953866	37926	106007	0	0	8142	790010	0	0
2024-04-27 02:15:32			0	33446	0	0	0	16602	15230	157065	27334	953866	37926	106007	0	0	8142	789651	0	0
2024-04-27 02:16:32			0	33484	0	0	0	16605	15240	156769	27145	953908	37927	106008	0	0	8144	787661	0	0
2024-04-27 02:17:32			0	33495	0	0	0	16599	15230	156957	27052	953874	37927	106006	0	0	8145	787140	0	0
2024-04-27 02:18:32			0	33479	0	0	0	16599	15220	156873	27239	953805	37915	106006	0	0	8144	788001	0	0
2024-04-27 02:19:32			0	33506	0	0	0	16599	15230	156989	27303	953866	37937	106006	0	0	8146	786577	0	0
2024-04-27 02:20:32			0	33487	0	0	0	16592	15230	156945	26996	953866	37926	106003	0	0	8145	787549	0	0
2024-04-27 02:21:32			0	33447	0	0	0	16612	15230	156941	27232	953839	37926	106011	0	0	8142	789599	0	0
2024-04-27 02:22:32			0	33451	0	0	0	16589	15230	157113	27116	953866	37937	106002	0	0	8143	789394	0	0
2024-04-27 02:23:32			0	33443	0	0	0	16599	15230	157093	27156	953839	37926	106006	0	0	8142	789805	0	0
2024-04-27 02:24:32			0	33435	0	0	0	16581	15220	157093	27469	953805	37925	105999	0	0	8142	790258	0	0
2024-04-27 02:25:32			0	33426	0	0	0	16594	15220	157137	27234	953831	37915	106004	0	0	8141	790720	0	0
2024-04-27 02:26:32			0	33422	0	0	0	16589	15230	157253	27464	953866	37916	106002	0	0	8141	790883	0	0
2024-04-27 02:27:32			0	33399	0	0	0	16597	15220	157237	27196	953805	37915	106005	0	0	8139	792108	0	0
2024-04-27 02:28:32			0	33411	0	0	0	16589	15230	157281	27426	953813	37916	106002	0	0	8140	791448	0	0
2024-04-27 02:29:32			0	33405	0	0	0	16586	15230	157197	27216	953813	37937	106001	0	0	8140	791757	0	0
2024-04-27 02:30:32			0	33407	0	0	0	16579	15230	157261	27365	953839	37937	105998	0	0	8140	791654	0	0
2024-04-27 02:31:32			0	33418	0	0	0	16576	15230	157389	27350	953787	37916	105997	0	0	8141	791089	0	0
2024-04-27 02:32:32			0	33368	0	0	0	16581	15220	157377	27241	953752	37915	105999	0	0	8138	793704	0	0
2024-04-27 02:33:32			0	33373	0	0	0	16574	15230	157465	27457	953787	37916	105996	0	0	8138	793404	0	0
2024-04-27 02:34:32			0	33357	0	0	0	16568	15220	157465	27289	953805	37925	105994	0	0	8137	794271	0	0
2024-04-27 02:35:32			0	33342	0	0	0	16574	15220	157565	27020	953823	37924	105996	0	0	8136	795045	0	0
2024-04-27 02:36:32			0	33340	0	0	0	16584	15220	157533	27281	953744	37924	106000	0	0	8136	795148	0	0
2024-04-27 02:37:32			0	33352	0	0	0	16584	15210	157513	27301	953762	37935	106000	0	0	8137	794571	0	0
2024-04-27 02:38:32			0	33341	0	0	0	16576	15210	157545	27672	953736	37924	105997	0	0	8136	795139	0	0
2024-04-27 02:39:32			0	33346	0	0	0	16579	15220	157553	27582	953779	37925	105998	0	0	8136	794838	0	0
2024-04-27 02:40:32			0	33333	0	0	0	16579	15220	157529	27381	953797	37924	105998	0	0	8136	795509	0	0
2024-04-27 02:41:32			0	33356	0	0	0	16581	15220	157633	27196	953744	37924	105999	0	0	8137	794323	0	0
2024-04-27 02:42:32			0	33332	0	0	0	16563	15210	157553	27433	953710	37935	105992	0	0	8136	795604	0	0
2024-04-27 02:43:32			0	33341	0	0	0	16558	15210	157553	27192	953728	37924	105990	0	0	8136	795139	0	0
2024-04-27 02:44:32			0	33340	0	0	0	16566	15220	157721	27248	953779	37915	105993	0	0	8136	795148	0	0
2024-04-27 02:45:32			0	33295	0	0	0	16566	15210	157621	27386	953728	37935	105993	0	0	8133	797516	0	0
2024-04-27 02:46:32			0	33317	0	0	0	16563	15210	157721	27180	953781	37914	105992	0	0	8135	796378	0	0
2024-04-27 02:47:32			0	33308	0	0	0	16566	15210	157769	27171	953754	37914	105993	0	0	8134	796843	0	0
2024-04-27 02:48:32			0	33306	0	0	0	16571	15210	157705	27078	953728	37924	105995	0	0	8134	796947	0	0
2024-04-27 02:49:32			0	33308	0	0	0	16571	15210	157789	27490	953675	37935	105995	0	0	8134	796843	0	0
2024-04-27 02:50:32			0	33298	0	0	0	16574	15200	157773	27223	953685	37923	105996	0	0	8133	797403	0	0
2024-04-27 02:51:32			0	33288	0	0	0	16563	15210	157797	27324	953815	37914	105992	0	0	8133	797878	0	0
2024-04-27 02:52:32			0	33278	0	0	0	16563	15210	157829	27220	953702	37924	105992	0	0	8133	798395	0	0
2024-04-27 02:53:32			0	33282	0	0	0	16566	15210	157917	27462	953754	37924	105993	0	0	8133	798188	0	0
2024-04-27 02:54:32			0	33275	0	0	0	16568	15200	157865	27128	953799	37913	105994	0	0	8132	798594	0	0
2024-04-27 02:55:32			0	33284	0	0	0	16576	15200	157905	27201	953746	37923	105997	0	0	8133	798128	0	0
2024-04-27 02:56:32			0	33283	0	0	0	16594	15200	157909	27345	953772	37923	106004	0	0	8132	798179	0	0
2024-04-27 02:57:32			0	33267	0	0	0	16594	15200	157993	27228	953799	37935	106004	0	0	8131	799008	0	0
2024-04-27 02:58:32			0	33253	0	0	0	16615	15210	158057	27473	953781	37914	106012	0	0	8130	799691	0	0
2024-04-27 02:59:32			0	33267	0	0	0	16597	15210	157965	27145	953841	37935	106005	0	0	8131	798965	0	0
2024-04-27 03:00:32			0	33294	0	0	0	16592	15210	157853	27371	953781	37935	106003	0	0	8133	797567	0	0
2024-04-27 03:01:32			0	33265	0	0	0	16574	15220	157881	27530	953805	37925	105996	0	0	8132	799026	0	0
2024-04-27 03:02:32			0	33257	0	0	0	16584	15210	157841	27317	953781	37935	106000	0	0	8131	799483	0	0
2024-04-27 03:03:32			0	33261	0	0	0	16607	15220	157969	27562	953770	37924	106009	0	0	8131	799233	0	0
2024-04-27 03:04:32			0	33262	0	0	0	16615	15210	158005	27536	953807	37935	106012	0	0	8131	799224	0	0
2024-04-27 03:05:32			0	33282	0	0	0	16612	15230	157789	27145	953839	37937	106011	0	0	8132	798103	0	0
2024-04-27 03:06:32			0	33266	0	0	0	16612	15220	157865	27350	953831	37936	106011	0	0	8131	798974	0	0
2024-04-27 03:07:32			0	33279	0	0	0	16610	15220	157765	27066	953805	37925	106010	0	0	8132	798301	0	0
2024-04-27 03:08:32			0	33295	0	0	0	16610	15230	157801	27039	953839	37926	106010	0	0	8133	797430	0	0
2024-04-27 03:09:32			0	33259	0	0	0	16610	15220	157901	27116	953805	37925	106010	0	0	8131	799337	0	0
2024-04-27 03:10:32			0	33271	0	0	0	16615	15220	157889	27287	953805	37936	106012	0	0	8131	798715	0	0
2024-04-27 03:11:32			0	33248	0	0	0	16610	15230	157777	27313	953892	37926	106010	0	0	8130	799864	0	0
2024-04-27 03:12:32			0	33264	0	0	0	16607	15230	157801	27658	953839	37916	106009	0	0	8131	799035	0	0
2024-04-27 03:13:32			0	33283	0	0	0	16599	15230	157909	27646	953839	37926	106006	0	0	8132	798051	0	0
2024-04-27 03:14:32			0	33278	0	0	0	16589	15230	157889	27270	953839	37926	106002	0	0	8132	798310	0	0
2024-04-27 03:15:32			0	33261	0	0	0	16599	15230	157893	27208	953847	37938	106006	0	0	8131	799190	0	0
2024-04-27 03:16:32			0	33260	0	0	0	16605	15230	157937	27083	953813	37916	106008	0	0	8131	799242	0	0
2024-04-27 03:17:32			0	33268	0	0	0	16607	15220	158029	27320	953805	37936	106009	0	0	8131	798870	0	0
2024-04-27 03:18:32			0	33270	0	0	0	16607	15220	157949	27293	953805	37936	106009	0	0	8131	798767	0	0
2024-04-27 03:19:32			0	33253	0	0	0	16607	15220	157997	27376	953805	37947	106009	0	0	8130	799648	0	0
2024-04-27 03:20:32			0	33250	0	0	0	16599	15230	157893	27253	953839	37926	106006	0	0	8130	799760	0	0
2024-04-27 03:21:32			0	33251	0	0	0	16597	15230	157989	27630	953866	37926	106005	0	0	8130	799709	0	0
2024-04-27 03:22:32			0	33262	0	0	0	16589	15220	157989	27331	953779	37925	106002	0	0	8131	799181	0	0
2024-04-27 03:23:32			0	33233	0	0	0	16594	15220	158009	27431	953805	37925	106004	0	0	8129	800685	0	0
2024-04-27 03:24:32			0	33218	0	0	0	16605	15230	158081	27109	953734	37926	106008	0	0	8128	801421	0	0
2024-04-27 03:25:32			0	33233	0	0	0	16612	15230	158141	27140	953866	37916	106011	0	0	8129	800642	0	0
2024-04-27 03:26:32			0	33236	0	0	0	16607	15230	158045	27144	953866	37916	106009	0	0	8129	800486	0	0
2024-04-27 03:27:32			0	33241	0	0	0	16599	15220	158037	27450	953858	37925	106006	0	0	8130	800270	0	0
2024-04-27 03:28:32			0	33231	0	0	0	16618	15230	157989	27229	953900	37938	106013	0	0	8129	800746	0	0
2024-04-27 03:29:32			0	33256	0	0	0	16607	15230	157981	27365	953866	37916	106009	0	0	8131	799449	0	0
2024-04-27 03:30:32			0	33254	0	0	0	16610	15230	158061	27147	953874	37938	106010	0	0	8130	799553	0	0
2024-04-27 03:31:32			0	33237	0	0	0	16599	15230	158053	27346	953847	37927	106006	0	0	8130	800435	0	0
2024-04-27 03:32:32			0	33257	0	0	0	16605	15230	158069	27157	953866	37937	106008	0	0	8131	799398	0	0
2024-04-27 03:33:32			0	33236	0	0	0	16610	15230	157997	27237	953795	37949	106010	0	0	8129	800486	0	0
2024-04-27 03:34:32			0	33252	0	0	0	16602	15230	158033	27559	953768	37938	106007	0	0	8130	799657	0	0
2024-04-27 03:35:32			0	33247	0	0	0	16602	15230	158065	27248	953874	37927	106007	0	0	8130	799916	0	0
2024-04-27 03:36:32			0	33242	0	0	0	16597	15220	158005	27602	953884	37915	106005	0	0	8130	800218	0	0
2024-04-27 03:37:32			0	33248	0	0	0	16586	15230	158061	27448	953866	37937	106001	0	0	8130	799864	0	0
2024-04-27 03:38:32			0	33249	0	0	0	16584	15230	158149	27041	953866	37916	106000	0	0	8131	799812	0	0
2024-04-27 03:39:32			0	33242	0	0	0	16576	15220	158085	27611	953797	37924	105997	0	0	8130	800218	0	0
2024-04-27 03:40:32			0	33209	0	0	0	16589	15220	158177	27185	953805	37925	106002	0	0	8128	801932	0	0
2024-04-27 03:41:32			0	33215	0	0	0	16584	15220	158157	27095	953823	37935	106000	0	0	8128	801620	0	0
2024-04-27 03:42:32			0	33204	0	0	0	16592	15220	158225	27327	953797	37935	106003	0	0	8128	802192	0	0
2024-04-27 03:43:32			0	33200	0	0	0	16592	15220	158261	27253	953797	37924	106003	0	0	8127	802399	0	0
2024-04-27 03:44:32			0	33214	0	0	0	16586	15220	158217	27365	953823	37935	106001	0	0	8128	801672	0	0
2024-04-27 03:45:32			0	33209	0	0	0	16584	15210	158273	27331	953841	37903	106000	0	0	8128	801975	0	0
2024-04-27 03:46:32			0	33216	0	0	0	16581	15210	158201	27315	953841	37935	105999	0	0	8128	801611	0	0
2024-04-27 03:47:32			0	33209	0	0	0	16576	15210	158249	27329	953807	37924	105997	0	0	8128	801975	0	0
2024-04-27 03:48:32			0	33211	0	0	0	16568	15220	158253	27291	953797	37914	105994	0	0	8128	801828	0	0
2024-04-27 03:49:32			0	33209	0	0	0	16563	15210	158213	26941	953789	37924	105992	0	0	8128	801975	0	0
2024-04-27 03:50:32			0	33178	0	0	0	16566	15210	158365	27060	953762	37914	105993	0	0	8126	803587	0	0
2024-04-27 03:51:32			0	33185	0	0	0	16579	15210	158337	27281	953781	37914	105998	0	0	8127	803223	0	0
2024-04-27 03:52:32			0	33172	0	0	0	16592	15210	158385	27507	953815	37924	106003	0	0	8126	803899	0	0
2024-04-27 03:53:32			0	33180	0	0	0	16584	15200	158465	27345	953825	37935	106000	0	0	8126	803526	0	0
2024-04-27 03:54:32			0	33164	0	0	0	16594	15210	158429	26965	953807	37924	106004	0	0	8125	804316	0	0
2024-04-27 03:55:32			0	33159	0	0	0	16597	15210	158393	27119	953789	37935	106005	0	0	8125	804576	0	0
2024-04-27 03:56:32			0	33187	0	0	0	16594	15200	158365	27046	953825	37923	106004	0	0	8126	803162	0	0
2024-04-27 03:57:32			0	33191	0	0	0	16602	15210	158281	27426	953815	37935	106007	0	0	8127	802910	0	0
2024-04-27 03:58:32			0	33183	0	0	0	16594	15220	158281	27576	953823	37935	106004	0	0	8126	803284	0	0
2024-04-27 03:59:32			0	33169	0	0	0	16602	15210	158365	27239	953868	37935	106007	0	0	8125	804056	0	0
2024-04-27 04:00:32			0	33187	0	0	0	16602	15210	158253	27111	953868	37914	106007	0	0	8126	803119	0	0
2024-04-27 04:01:32			0	33199	0	0	0	16597	15210	158233	27312	953841	37924	106005	0	0	8127	802494	0	0
2024-04-27 04:02:32			0	33210	0	0	0	16599	15220	158221	27114	953823	37924	106006	0	0	8128	801880	0	0
2024-04-27 04:03:32			0	33198	0	0	0	16592	15220	158245	27197	953744	37924	106003	0	0	8127	802503	0	0
2024-04-27 04:04:32			0	33222	0	0	0	16584	15210	158125	27270	953841	37924	106000	0	0	8129	801299	0	0
2024-04-27 04:05:32			0	33187	0	0	0	16574	15210	158269	27454	953789	37924	105996	0	0	8127	803119	0	0
2024-04-27 04:06:32			0	33171	0	0	0	16563	15210	158265	27097	953781	37924	105992	0	0	8126	803951	0	0
2024-04-27 04:07:32			0	33192	0	0	0	16566	15210	158273	27422	953789	37924	105993	0	0	8127	802858	0	0
2024-04-27 04:08:32			0	33186	0	0	0	16568	15210	158389	27230	953754	37924	105994	0	0	8127	803171	0	0
2024-04-27 04:09:32			0	33179	0	0	0	16568	15200	158341	27118	953738	37912	105994	0	0	8126	803578	0	0
2024-04-27 04:10:32			0	33159	0	0	0	16566	15210	158373	27531	953781	37924	105993	0	0	8125	804576	0	0
2024-04-27 04:11:32			0	33168	0	0	0	16566	15210	158449	27183	953728	37924	105993	0	0	8126	804108	0	0
2024-04-27 04:12:32			0	33160	0	0	0	16563	15200	158341	27398	953693	37913	105992	0	0	8125	804568	0	0
2024-04-27 04:13:32			0	33149	0	0	0	16558	15190	158397	27183	953756	37923	105990	0	0	8125	805184	0	0
2024-04-27 04:14:32			0	33151	0	0	0	16566	15200	158481	27388	953685	37923	105993	0	0	8125	805037	0	0
2024-04-27 04:15:32			0	33161	0	0	0	16550	15180	158545	27222	953687	37922	105987	0	0	8126	804602	0	0
2024-04-27 04:16:32			0	33131	0	0	0	16555	15190	158525	27270	953730	37923	105989	0	0	8124	806123	0	0
2024-04-27 04:17:32			0	33141	0	0	0	16561	15180	158597	27388	953740	37922	105991	0	0	8124	805645	0	0
2024-04-27 04:18:32			0	33134	0	0	0	16558	15180	158613	27422	953714	37933	105990	0	0	8124	806010	0	0
2024-04-27 04:19:32			0	33141	0	0	0	16545	15190	158597	27350	953643	37934	105985	0	0	8124	805601	0	0
2024-04-27 04:20:32			0	33141	0	0	0	16537	15190	158529	27376	953651	37923	105982	0	0	8125	805601	0	0
2024-04-27 04:21:32			0	33132	0	0	0	16542	15180	158605	27251	953635	37922	105984	0	0	8124	806114	0	0
2024-04-27 04:22:32			0	33121	0	0	0	16524	15190	158629	27417	953748	37923	105977	0	0	8124	806645	0	0
2024-04-27 04:23:32			0	33126	0	0	0	16553	15180	158581	27540	953653	37921	105988	0	0	8123	806428	0	0
2024-04-27 04:24:32			0	33123	0	0	0	16553	15170	158685	27331	953671	37921	105988	0	0	8123	806627	0	0
2024-04-27 04:25:32			0	33098	0	0	0	16555	15170	158653	27519	953592	37932	105989	0	0	8122	807934	0	0
2024-04-27 04:26:32			0	33106	0	0	0	16553	15170	158693	27298	953645	37932	105988	0	0	8122	807515	0	0
2024-04-27 04:27:32			0	33117	0	0	0	16558	15180	158713	27074	953626	37911	105990	0	0	8123	806897	0	0
2024-04-27 04:28:32			0	33106	0	0	0	16563	15180	158705	26759	953687	37922	105992	0	0	8122	807472	0	0
2024-04-27 04:29:32			0	33108	0	0	0	16558	15200	158685	27307	953685	37923	105990	0	0	8122	807281	0	0
2024-04-27 04:30:32			0	33101	0	0	0	16561	15180	158809	27097	953679	37921	105991	0	0	8122	807733	0	0
2024-04-27 04:31:32			0	33111	0	0	0	16566	15180	158745	27166	953687	37922	105993	0	0	8122	807211	0	0
2024-04-27 04:32:32			0	33113	0	0	0	16561	15180	158633	27145	953714	37933	105991	0	0	8122	807106	0	0
2024-04-27 04:33:32			0	33124	0	0	0	16561	15180	158601	27152	953687	37922	105991	0	0	8123	806532	0	0
2024-04-27 04:34:32			0	33096	0	0	0	16571	15180	158677	27327	953732	37921	105995	0	0	8121	807995	0	0
2024-04-27 04:35:32			0	33108	0	0	0	16568	15190	158733	26996	953730	37923	105994	0	0	8122	807324	0	0
2024-04-27 04:36:32			0	33084	0	0	0	16566	15190	158801	27310	953722	37923	105993	0	0	8121	808579	0	0
2024-04-27 04:37:32			0	33104	0	0	0	16563	15180	158717	27138	953714	37922	105992	0	0	8122	807577	0	0
2024-04-27 04:38:32			0	33085	0	0	0	16566	15190	158825	27336	953704	37934	105993	0	0	8121	808527	0	0
2024-04-27 04:39:32			0	33084	0	0	0	16561	15190	158865	27133	953651	37934	105991	0	0	8121	808579	0	0
2024-04-27 04:40:32			0	33080	0	0	0	16558	15190	158845	27046	953695	37923	105990	0	0	8121	808788	0	0
2024-04-27 04:41:32			0	33049	0	0	0	16555	15190	158873	27149	953722	37912	105989	0	0	8119	810412	0	0
2024-04-27 04:42:32			0	33074	0	0	0	16548	15190	158965	27376	953695	37934	105986	0	0	8120	809102	0	0
2024-04-27 04:43:32			0	33053	0	0	0	16542	15190	158969	27244	953695	37923	105984	0	0	8119	810202	0	0
2024-04-27 04:44:32			0	33034	0	0	0	16535	15190	159077	27230	953669	37934	105981	0	0	8118	811199	0	0
2024-04-27 04:45:32			0	33021	0	0	0	16527	15190	159121	27170	953643	37934	105978	0	0	8117	811881	0	0
2024-04-27 04:46:32			0	33010	0	0	0	16527	15180	159261	27279	953626	37921	105978	0	0	8117	812502	0	0
2024-04-27 04:47:32			0	32990	0	0	0	16522	15180	159249	27178	953653	37921	105976	0	0	8116	813553	0	0
2024-04-27 04:48:32			0	32973	0	0	0	16509	15180	159325	27426	953600	37932	105971	0	0	8115	814448	0	0
2024-04-27 04:49:32			0	32965	0	0	0	16509	15160	159461	27183	953602	37920	105971	0	0	8114	814957	0	0
2024-04-27 04:50:32			0	32937	0	0	0	16503	15170	159489	27203	953566	37911	105969	0	0	8113	816389	0	0
2024-04-27 04:51:32			0	32919	0	0	0	16498	15170	159673	27128	953566	37921	105967	0	0	8112	817338	0	0
2024-04-27 04:52:32			0	32908	0	0	0	16496	15150	159709	27483	953551	37918	105966	0	0	8111	818007	0	0
2024-04-27 04:53:32			0	32898	0	0	0	16493	15170	159765	27720	953505	37921	105965	0	0	8110	818448	0	0
2024-04-27 04:54:32			0	32876	0	0	0	16496	15160	159825	27168	953541	37919	105966	0	0	8109	819655	0	0
2024-04-27 04:55:32			0	32890	0	0	0	16485	15150	160025	27057	953560	37918	105962	0	0	8110	818959	0	0
2024-04-27 04:56:32			0	32883	0	0	0	16488	15150	159885	27241	953533	37929	105963	0	0	8109	819329	0	0
2024-04-27 04:57:32			0	32874	0	0	0	16496	15160	160029	27150	953515	37930	105966	0	0	8109	819761	0	0
2024-04-27 04:58:32			0	32869	0	0	0	16488	15150	160041	27306	953525	37908	105963	0	0	8109	820070	0	0
2024-04-27 04:59:32			0	32863	0	0	0	16493	15140	160017	27409	953517	37908	105965	0	0	8108	820432	0	0
2024-04-27 05:00:32			0	32832	0	0	0	16485	15150	160069	27661	953473	37929	105962	0	0	8106	822030	0	0
2024-04-27 05:01:32			0	32829	0	0	0	16480	15140	160233	27228	953456	37907	105960	0	0	8106	822234	0	0
2024-04-27 05:02:32			0	32830	0	0	0	16483	15140	160177	27255	953430	37907	105961	0	0	8106	822181	0	0
2024-04-27 05:03:32			0	32806	0	0	0	16477	15130	160261	27518	953474	37907	105959	0	0	8105	823499	0	0
2024-04-27 05:04:32			0	32779	0	0	0	16485	15130	160377	27327	953474	37917	105962	0	0	8103	824935	0	0
2024-04-27 05:05:32			0	32793	0	0	0	16490	15140	160305	27211	953509	37940	105964	0	0	8104	824146	0	0
2024-04-27 05:06:32			0	32792	0	0	0	16480	15140	160281	27526	953483	37918	105960	0	0	8104	824199	0	0
2024-04-27 05:07:32			0	32792	0	0	0	16480	15130	160301	27190	953422	37917	105960	0	0	8104	824243	0	0
2024-04-27 05:08:32			0	32787	0	0	0	16496	15130	160353	27305	953448	37907	105966	0	0	8103	824509	0	0
2024-04-27 05:09:32			0	32788	0	0	0	16475	15130	160301	27218	953466	37917	105958	0	0	8104	824456	0	0
2024-04-27 05:10:32			0	32776	0	0	0	16480	15130	160277	27088	953440	37917	105960	0	0	8103	825094	0	0
2024-04-27 05:11:32			0	32791	0	0	0	16493	15120	160357	27348	953484	37907	105965	0	0	8104	824341	0	0
2024-04-27 05:12:32			0	32779	0	0	0	16496	15120	160365	27549	953476	37906	105966	0	0	8103	824979	0	0
2024-04-27 05:13:32			0	32780	0	0	0	16483	15120	160292	27405	953405	37907	105961	0	0	8103	824926	0	0
2024-04-27 05:14:32			0	32792	0	0	0	16480	15120	160341	27279	953432	37907	105960	0	0	8104	824287	0	0
2024-04-27 05:15:32			0	32789	0	0	0	16485	15130	160401	27433	953440	37917	105962	0	0	8104	824403	0	0
2024-04-27 05:16:32			0	32779	0	0	0	16496	15120	160449	27291	953458	37928	105966	0	0	8103	824979	0	0
2024-04-27 05:17:32			0	32780	0	0	0	16496	15120	160389	27559	953432	37907	105966	0	0	8103	824926	0	0
2024-04-27 05:18:32			0	32791	0	0	0	16490	15130	160345	27383	953466	37907	105964	0	0	8104	824296	0	0
2024-04-27 05:19:32			0	32804	0	0	0	16483	15120	160353	27326	953423	37916	105961	0	0	8105	823650	0	0
2024-04-27 05:20:32			0	32797	0	0	0	16470	15130	160285	27516	953422	37917	105956	0	0	8104	823977	0	0
2024-04-27 05:21:32			0	32803	0	0	0	16472	15130	160377	26915	953466	37917	105957	0	0	8105	823658	0	0
2024-04-27 05:22:32			0	32765	0	0	0	16467	15130	160400	27298	953440	37917	105955	0	0	8102	825680	0	0
2024-04-27 05:23:32			0	32769	0	0	0	16475	15110	160432	27535	953407	37916	105958	0	0	8102	825555	0	0
2024-04-27 05:24:32			0	32759	0	0	0	16472	15110	160460	27388	953434	37916	105957	0	0	8102	826088	0	0
2024-04-27 05:25:32			0	32756	0	0	0	16493	15120	160484	27183	953397	37906	105965	0	0	8101	826203	0	0
2024-04-27 05:26:32			0	32759	0	0	0	16483	15120	160528	27223	953432	37928	105961	0	0	8102	826044	0	0
2024-04-27 05:27:32			0	32777	0	0	0	16467	15110	160465	27128	953442	37937	105955	0	0	8103	825130	0	0
2024-04-27 05:28:32			0	32784	0	0	0	16472	15120	160469	27372	953405	37907	105957	0	0	8103	824713	0	0
2024-04-27 05:29:32			0	32756	0	0	0	16483	15100	160592	27147	953452	37916	105961	0	0	8101	826292	0	0
2024-04-27 05:30:32			0	32761	0	0	0	16488	15110	160616	26982	953468	37905	105963	0	0	8102	825981	0	0
2024-04-27 05:31:32			0	32748	0	0	0	16488	15120	160576	26965	953458	37917	105963	0	0	8101	826630	0	0
2024-04-27 05:32:32			0	32759	0	0	0	16477	15120	160580	27043	953423	37938	105959	0	0	8102	826044	0	0
2024-04-27 05:33:32			0	32774	0	0	0	16480	15130	160536	27147	953466	37928	105960	0	0	8103	825201	0	0
2024-04-27 05:34:32			0	32760	0	0	0	16467	15110	160508	26835	953407	37916	105955	0	0	8102	826035	0	0
2024-04-27 05:35:32			0	32752	0	0	0	16485	15110	160580	27405	953407	37926	105962	0	0	8101	826461	0	0
2024-04-27 05:36:32			0	32753	0	0	0	16490	15110	160660	27524	953434	37916	105964	0	0	8101	826408	0	0
2024-04-27 05:37:32			0	32757	0	0	0	16475	15120	160612	27171	953423	37916	105958	0	0	8102	826150	0	0
2024-04-27 05:38:32			0	32765	0	0	0	16451	15110	160600	27071	953460	37916	105949	0	0	8103	825768	0	0
2024-04-27 05:39:32			0	32745	0	0	0	16464	15120	160712	27326	953405	37907	105954	0	0	8101	826790	0	0
2024-04-27 05:40:32			0	32727	0	0	0	16446	15110	160848	27564	953389	37905	105947	0	0	8100	827794	0	0
2024-04-27 05:41:32			0	32703	0	0	0	16462	15110	160936	27374	953407	37916	105953	0	0	8099	829076	0	0
2024-04-27 05:42:32			0	32684	0	0	0	16457	15090	160980	27443	953330	37924	105951	0	0	8097	830181	0	0
2024-04-27 05:43:32			0	32704	0	0	0	16464	15110	160888	27182	953381	37916	105954	0	0	8099	829022	0	0
2024-04-27 05:44:32			0	32699	0	0	0	16470	15110	160960	27112	953355	37916	105956	0	0	8098	829289	0	0
2024-04-27 05:45:32			0	32734	0	0	0	16472	15100	160840	27234	953373	37926	105957	0	0	8100	827465	0	0
2024-04-27 05:46:32			0	32712	0	0	0	16480	15100	160812	26977	953399	37905	105960	0	0	8099	828639	0	0
2024-04-27 05:47:32			0	32729	0	0	0	16485	15100	160700	27291	953417	37915	105962	0	0	8100	827732	0	0
2024-04-27 05:48:32			0	32746	0	0	0	16485	15100	160628	27447	953391	37915	105962	0	0	8101	826825	0	0
2024-04-27 05:49:32			0	32754	0	0	0	16485	15100	160512	27505	953444	37915	105962	0	0	8101	826399	0	0
2024-04-27 05:50:32			0	32760	0	0	0	16488	15100	160560	27260	953425	37916	105963	0	0	8102	826079	0	0
2024-04-27 05:51:32			0	32765	0	0	0	16475	15100	160456	27256	953338	37915	105958	0	0	8102	825813	0	0
2024-04-27 05:52:32			0	32784	0	0	0	16488	15110	160389	27116	953407	37905	105963	0	0	8103	824757	0	0
2024-04-27 05:53:32			0	32776	0	0	0	16475	15100	160484	27549	953425	37916	105958	0	0	8103	825227	0	0
2024-04-27 05:54:32			0	32792	0	0	0	16485	15100	160469	27286	953425	37916	105962	0	0	8104	824376	0	0
2024-04-27 05:55:32			0	32795	0	0	0	16477	15120	160537	27358	953450	37916	105959	0	0	8104	824128	0	0
2024-04-27 05:56:32			0	32796	0	0	0	16462	15110	160433	27163	953460	37926	105953	0	0	8104	824119	0	0
2024-04-27 05:57:32			0	32758	0	0	0	16451	15120	160556	27471	953423	37916	105949	0	0	8102	826097	0	0
2024-04-27 05:58:32			0	32755	0	0	0	16462	15120	160660	27545	953371	37916	105953	0	0	8102	826257	0	0
2024-04-27 05:59:32			0	32727	0	0	0	16464	15100	160808	27640	953373	37916	105954	0	0	8100	827838	0	0
2024-04-27 06:00:32			0	32726	0	0	0	16480	15110	160808	27197	953389	37916	105960	0	0	8100	827847	0	0
2024-04-27 06:01:32			0	32734	0	0	0	16483	15100	160788	27718	953425	37916	105961	0	0	8100	827465	0	0
2024-04-27 06:02:32			0	32758	0	0	0	16483	15100	160704	27490	953399	37905	105961	0	0	8102	826186	0	0
2024-04-27 06:03:32			0	32765	0	0	0	16501	15110	160580	27208	953460	37937	105968	0	0	8102	825768	0	0
2024-04-27 06:04:32			0	32787	0	0	0	16490	15110	160549	27293	953389	37916	105964	0	0	8103	824598	0	0
2024-04-27 06:05:32			0	32810	0	0	0	16498	15110	160357	27390	953434	37916	105967	0	0	8105	823375	0	0
2024-04-27 06:06:32			0	32810	0	0	0	16488	15120	160345	27284	953476	37916	105963	0	0	8105	823331	0	0
2024-04-27 06:07:32			0	32813	0	0	0	16496	15110	160165	27409	953442	37926	105966	0	0	8105	823216	0	0
2024-04-27 06:08:32			0	32844	0	0	0	16490	15110	160137	27414	953468	37916	105964	0	0	8107	821570	0	0
2024-04-27 06:09:32			0	32820	0	0	0	16488	15110	160189	27516	953460	37905	105963	0	0	8105	822844	0	0
2024-04-27 06:10:32			0	32834	0	0	0	16488	15120	160157	27514	953423	37916	105963	0	0	8106	822057	0	0
2024-04-27 06:11:32			0	32835	0	0	0	16496	15130	160229	27443	953519	37917	105966	0	0	8106	821960	0	0
2024-04-27 06:12:32			0	32856	0	0	0	16485	15130	160109	27281	953527	37928	105962	0	0	8108	820846	0	0
2024-04-27 06:13:32			0	32853	0	0	0	16496	15130	160017	27291	953501	37907	105966	0	0	8107	821005	0	0
2024-04-27 06:14:32			0	32867	0	0	0	16498	15120	160029	27422	953458	37928	105967	0	0	8108	820308	0	0
2024-04-27 06:15:32			0	32880	0	0	0	16498	15120	159981	27332	953537	37917	105967	0	0	8109	819620	0	0
2024-04-27 06:16:32			0	32887	0	0	0	16496	15120	160005	27244	953563	37907	105966	0	0	8109	819249	0	0
2024-04-27 06:17:32			0	32900	0	0	0	16488	15130	159793	27329	953492	37917	105963	0	0	8110	818518	0	0
2024-04-27 06:18:32			0	32907	0	0	0	16475	15130	159829	27211	953519	37917	105958	0	0	8111	818148	0	0
2024-04-27 06:19:32			0	32889	0	0	0	16485	15130	159877	27319	953466	37917	105962	0	0	8110	819099	0	0
2024-04-27 06:20:32			0	32910	0	0	0	16477	15120	159853	27312	953484	37917	105959	0	0	8111	818033	0	0
2024-04-27 06:21:32			0	32887	0	0	0	16483	15130	159937	27203	953466	37917	105961	0	0	8110	819205	0	0
2024-04-27 06:22:32			0	32866	0	0	0	16480	15120	159997	27319	953458	37907	105960	0	0	8108	820361	0	0
2024-04-27 06:23:32			0	32878	0	0	0	16485	15120	159949	27345	953511	37917	105962	0	0	8109	819725	0	0
2024-04-27 06:24:32			0	32875	0	0	0	16485	15110	159985	27251	953442	37916	105962	0	0	8109	819928	0	0
2024-04-27 06:25:32			0	32857	0	0	0	16472	15120	160041	27436	953432	37907	105957	0	0	8108	820838	0	0
2024-04-27 06:26:32			0	32848	0	0	0	16477	15120	160057	27208	953476	37916	105959	0	0	8107	821314	0	0
2024-04-27 06:27:32			0	32858	0	0	0	16488	15120	159937	27327	953458	37917	105963	0	0	8108	820784	0	0
2024-04-27 06:28:32			0	32865	0	0	0	16475	15110	160013	27281	953407	37916	105958	0	0	8108	820458	0	0
2024-04-27 06:29:32			0	32869	0	0	0	16483	15110	159909	27239	953460	37916	105961	0	0	8108	820246	0	0
2024-04-27 06:30:32			0	32884	0	0	0	16477	15110	159837	27294	953468	37916	105959	0	0	8110	819452	0	0
2024-04-27 06:31:32			0	32879	0	0	0	16477	15120	159909	27582	953502	37906	105959	0	0	8109	819672	0	0
2024-04-27 06:32:32			0	32897	0	0	0	16496	15110	159953	27168	953521	37916	105966	0	0	8110	818764	0	0
2024-04-27 06:33:32			0	32870	0	0	0	16485	15110	159969	27235	953381	37905	105962	0	0	8109	820193	0	0
2024-04-27 06:34:32			0	32887	0	0	0	16483	15110	159929	27131	953512	37937	105961	0	0	8110	819293	0	0
2024-04-27 06:35:32			0	32904	0	0	0	16488	15120	159941	26984	953476	37916	105963	0	0	8111	818350	0	0
2024-04-27 06:36:32			0	32910	0	0	0	16477	15100	159841	27358	953425	37916	105959	0	0	8111	818121	0	0
2024-04-27 06:37:32			0	32915	0	0	0	16475	15120	159757	27364	953423	37916	105958	0	0	8112	817769	0	0
2024-04-27 06:38:32			0	32920	0	0	0	16467	15130	159729	27620	953413	37917	105955	0	0	8112	817461	0	0
2024-04-27 06:39:32			0	32923	0	0	0	16470	15120	159673	27352	953450	37916	105956	0	0	8112	817347	0	0
2024-04-27 06:40:32			0	32907	0	0	0	16472	15120	159725	27338	953450	37927	105957	0	0	8111	818192	0	0
2024-04-27 06:41:32			0	32903	0	0	0	16477	15120	159797	27393	953423	37895	105959	0	0	8111	818403	0	0
2024-04-27 06:42:32			0	32904	0	0	0	16477	15100	159741	27523	953373	37926	105959	0	0	8111	818438	0	0
2024-04-27 06:43:32			0	32895	0	0	0	16480	15120	159801	27402	953450	37927	105960	0	0	8110	818826	0	0
2024-04-27 06:44:32			0	32903	0	0	0	16480	15120	159809	27192	953423	37927	105960	0	0	8111	818403	0	0
2024-04-27 06:45:32			0	32913	0	0	0	16477	15110	159789	27511	953468	37916	105959	0	0	8111	817919	0	0
2024-04-27 06:46:32			0	32894	0	0	0	16483	15110	159845	27282	953381	37926	105961	0	0	8110	818923	0	0
2024-04-27 06:47:32			0	32924	0	0	0	16475	15120	159765	27291	953450	37927	105958	0	0	8112	817294	0	0
2024-04-27 06:48:32			0	32927	0	0	0	16488	15100	159785	27505	953425	37905	105963	0	0	8112	817223	0	0
2024-04-27 06:49:32			0	32935	0	0	0	16480	15120	159729	27668	953450	37906	105960	0	0	8113	816713	0	0
2024-04-27 06:50:32			0	32917	0	0	0	16475	15110	159761	27137	953442	37894	105958	0	0	8112	817707	0	0
2024-04-27 06:51:32			0	32918	0	0	0	16485	15110	159745	27170	953468	37916	105962	0	0	8111	817655	0	0
2024-04-27 06:52:32			0	32940	0	0	0	16488	15110	159753	27639	953415	37916	105963	0	0	8113	816493	0	0
2024-04-27 06:53:32			0	32949	0	0	0	16477	15110	159637	27454	953460	37916	105959	0	0	8114	816019	0	0
2024-04-27 06:54:32			0	32965	0	0	0	16485	15120	159401	27607	953484	37907	105962	0	0	8114	815132	0	0
2024-04-27 06:55:32			0	32973	0	0	0	16480	15120	159465	27814	953458	37928	105960	0	0	8115	814710	0	0
2024-04-27 06:56:32			0	32979	0	0	0	16485	15100	159349	27441	953444	37925	105962	0	0	8115	814482	0	0
2024-04-27 06:57:32			0	32993	0	0	0	16480	15120	159441	27798	953476	37906	105960	0	0	8116	813658	0	0
2024-04-27 06:58:32			0	33014	0	0	0	16477	15100	159289	27407	953425	37926	105959	0	0	8117	812641	0	0
2024-04-27 06:59:32			0	32975	0	0	0	16480	15110	159369	27521	953512	37916	105960	0	0	8115	814649	0	0
2024-04-27 07:00:32			0	32976	0	0	0	16475	15120	159349	27410	953450	37916	105958	0	0	8115	814552	0	0
2024-04-27 07:01:32			0	32991	0	0	0	16477	15120	159393	27569	953529	37927	105959	0	0	8116	813763	0	0
2024-04-27 07:02:32			0	32962	0	0	0	16480	15120	159437	27649	953458	37917	105960	0	0	8114	815290	0	0
2024-04-27 07:03:32			0	32962	0	0	0	16488	15100	159393	27317	953425	37926	105963	0	0	8114	815377	0	0
2024-04-27 07:04:32			0	32966	0	0	0	16488	15120	159409	27621	953432	37907	105963	0	0	8114	815079	0	0
2024-04-27 07:05:32			0	32990	0	0	0	16483	15110	159449	27315	953442	37926	105961	0	0	8116	813859	0	0
2024-04-27 07:06:32			0	32958	0	0	0	16480	15110	159369	27286	953494	37926	105960	0	0	8114	815544	0	0
2024-04-27 07:07:32			0	32970	0	0	0	16490	15120	159445	27524	953511	37907	105964	0	0	8115	814868	0	0
2024-04-27 07:08:32			0	32978	0	0	0	16485	15120	159469	27684	953484	37917	105962	0	0	8115	814447	0	0
2024-04-27 07:09:32			0	32985	0	0	0	16490	15130	159365	27300	953519	37939	105964	0	0	8116	814035	0	0
2024-04-27 07:10:32			0	33008	0	0	0	16490	15130	159457	27486	953492	37928	105964	0	0	8117	812826	0	0
2024-04-27 07:11:32			0	32991	0	0	0	16493	15120	159429	27939	953537	37917	105965	0	0	8116	813763	0	0
2024-04-27 07:12:32			0	32994	0	0	0	16490	15120	159297	27680	953502	37916	105964	0	0	8116	813605	0	0
2024-04-27 07:13:32			0	33008	0	0	0	16501	15130	159261	27679	953519	37917	105968	0	0	8117	812826	0	0
2024-04-27 07:14:32			0	33008	0	0	0	16490	15130	159249	27538	953501	37917	105964	0	0	8117	812826	0	0
2024-04-27 07:15:32			0	33014	0	0	0	16493	15130	159105	27675	953571	37917	105965	0	0	8117	812510	0	0
2024-04-27 07:16:32			0	33019	0	0	0	16485	15120	159237	27371	953484	37928	105962	0	0	8118	812291	0	0
2024-04-27 07:17:32			0	33034	0	0	0	16496	15130	159277	27789	953553	37928	105966	0	0	8118	811460	0	0
2024-04-27 07:18:32			0	33021	0	0	0	16485	15110	159285	27450	953494	37926	105962	0	0	8118	812230	0	0
2024-04-27 07:19:32			0	33024	0	0	0	16485	15120	159161	27554	953537	37917	105962	0	0	8118	812029	0	0
2024-04-27 07:20:32			0	33023	0	0	0	16496	15130	159237	27732	953501	37928	105966	0	0	8118	812038	0	0
2024-04-27 07:21:32			0	33033	0	0	0	16488	15130	159177	27293	953553	37917	105963	0	0	8119	811513	0	0
2024-04-27 07:22:32			0	33011	0	0	0	16485	15130	159161	27713	953492	37917	105962	0	0	8117	812668	0	0
2024-04-27 07:23:32			0	33019	0	0	0	16485	15120	159277	27608	953563	37928	105962	0	0	8118	812291	0	0
2024-04-27 07:24:32			0	33025	0	0	0	16485	15130	159161	27796	953492	37928	105962	0	0	8118	811932	0	0
2024-04-27 07:25:32			0	33035	0	0	0	16488	15120	159245	27897	953458	37917	105963	0	0	8119	811451	0	0
2024-04-27 07:26:32			0	33023	0	0	0	16493	15130	159241	27682	953492	37928	105965	0	0	8118	812038	0	0
2024-04-27 07:27:32			0	33012	0	0	0	16493	15130	159205	27620	953519	37928	105965	0	0	8117	812615	0	0
2024-04-27 07:28:32			0	33014	0	0	0	16488	15130	159197	27653	953571	37917	105963	0	0	8117	812510	0	0
2024-04-27 07:29:32			0	33015	0	0	0	16488	15130	159165	27722	953527	37917	105963	0	0	8117	812458	0	0
2024-04-27 07:30:32			0	33018	0	0	0	16493	15120	159253	27632	953484	37928	105965	0	0	8117	812344	0	0
2024-04-27 07:31:32			0	32998	0	0	0	16498	15130	159185	27691	953492	37939	105967	0	0	8116	813351	0	0
2024-04-27 07:32:32			0	33034	0	0	0	16488	15130	159081	27571	953501	37917	105963	0	0	8119	811460	0	0
2024-04-27 07:33:32			0	33035	0	0	0	16485	15130	158969	27859	953519	37928	105962	0	0	8119	811408	0	0
2024-04-27 07:34:32			0	33034	0	0	0	16483	15130	159109	27932	953519	37917	105961	0	0	8119	811460	0	0
2024-04-27 07:35:32			0	33041	0	0	0	16488	15130	159081	27573	953501	37928	105963	0	0	8119	811093	0	0
2024-04-27 07:36:32			0	33040	0	0	0	16483	15130	159021	27621	953519	37917	105961	0	0	8119	811145	0	0
2024-04-27 07:37:32			0	33040	0	0	0	16490	15130	159061	27890	953519	37928	105964	0	0	8119	811145	0	0
2024-04-27 07:38:32			0	33039	0	0	0	16480	15130	159129	27668	953545	37917	105960	0	0	8119	811198	0	0
2024-04-27 07:39:32			0	33042	0	0	0	16477	15130	159129	27717	953501	37917	105959	0	0	8119	811040	0	0
2024-04-27 07:40:32			0	33027	0	0	0	16483	15130	159101	27639	953492	37917	105961	0	0	8118	811828	0	0
2024-04-27 07:41:32			0	33024	0	0	0	16485	15130	159137	27732	953492	37917	105962	0	0	8118	811985	0	0
2024-04-27 07:42:32			0	33020	0	0	0	16493	15130	159161	27802	953492	37917	105965	0	0	8118	812195	0	0
2024-04-27 07:43:32			0	33022	0	0	0	16488	15130	159161	27521	953519	37917	105963	0	0	8118	812090	0	0
2024-04-27 07:44:32			0	33019	0	0	0	16488	15120	159173	27970	953589	37928	105963	0	0	8118	812291	0	0
2024-04-27 07:45:32			0	33022	0	0	0	16496	15120	159173	27505	953484	37928	105966	0	0	8118	812134	0	0
2024-04-27 07:46:32			0	33035	0	0	0	16490	15130	159165	27933	953492	37928	105964	0	0	8119	811408	0	0
2024-04-27 07:47:32			0	33023	0	0	0	16493	15120	159161	27916	953537	37917	105965	0	0	8118	812081	0	0
2024-04-27 07:48:32			0	33013	0	0	0	16493	15130	159097	27784	953501	37928	105965	0	0	8117	812563	0	0
2024-04-27 07:49:32			0	33028	0	0	0	16490	15130	159225	27523	953519	37928	105964	0	0	8118	811775	0	0
2024-04-27 07:50:32			0	33009	0	0	0	16496	15130	159261	27831	953553	37917	105966	0	0	8117	812773	0	0
2024-04-27 07:51:32			0	33015	0	0	0	16498	15130	159165	27431	953553	37917	105967	0	0	8117	812458	0	0
2024-04-27 07:52:32			0	33006	0	0	0	16493	15140	159289	27613	953562	37918	105965	0	0	8117	812887	0	0
2024-04-27 07:53:32			0	33016	0	0	0	16501	15140	159301	27699	953614	37929	105968	0	0	8117	812362	0	0
2024-04-27 07:54:32			0	33006	0	0	0	16498	15130	159249	27498	953580	37917	105967	0	0	8117	812931	0	0
2024-04-27 07:55:32			0	32995	0	0	0	16506	15140	159253	27599	953543	37941	105970	0	0	8116	813465	0	0
2024-04-27 07:56:32			0	33016	0	0	0	16516	15140	159101	27405	953562	37929	105974	0	0	8117	812362	0	0
2024-04-27 07:57:32			0	33021	0	0	0	16514	15130	159049	27822	953545	37928	105973	0	0	8117	812143	0	0
2024-04-27 07:58:32			0	33032	0	0	0	16509	15130	159117	27587	953632	37928	105971	0	0	8118	811565	0	0
2024-04-27 07:59:32			0	33039	0	0	0	16511	15140	159049	27661	953543	37941	105972	0	0	8119	811154	0	0
2024-04-27 08:00:32			0	33043	0	0	0	16514	15140	159189	27914	953622	37929	105973	0	0	8119	810944	0	0
2024-04-27 08:01:32			0	33031	0	0	0	16509	15140	159105	27469	953649	37929	105971	0	0	8118	811574	0	0
2024-04-27 08:02:32			0	33039	0	0	0	16519	15140	159069	27746	953640	37929	105975	0	0	8118	811154	0	0
2024-04-27 08:03:32			0	33034	0	0	0	16514	15140	159113	27516	953596	37929	105973	0	0	8118	811417	0	0
2024-04-27 08:04:32			0	33031	0	0	0	16522	15150	159037	27972	953630	37929	105976	0	0	8118	811531	0	0
2024-04-27 08:05:32			0	33013	0	0	0	16511	15150	159097	27421	953604	37929	105972	0	0	8117	812476	0	0
2024-04-27 08:06:32			0	33037	0	0	0	16527	15140	159117	27545	953640	37907	105978	0	0	8118	811259	0	0
2024-04-27 08:07:32			0	33023	0	0	0	16519	15150	159241	27829	953657	37929	105975	0	0	8118	811950	0	0
2024-04-27 08:08:32			0	33022	0	0	0	16527	15130	159289	27403	953606	37917	105978	0	0	8117	812090	0	0
2024-04-27 08:09:32			0	33009	0	0	0	16519	15140	159309	27854	953649	37918	105975	0	0	8117	812730	0	0
2024-04-27 08:10:32			0	33002	0	0	0	16529	15150	159429	27758	953638	37918	105979	0	0	8116	813054	0	0
2024-04-27 08:11:32			0	33007	0	0	0	16529	15150	159325	27746	953630	37918	105979	0	0	8116	812791	0	0
2024-04-27 08:12:32			0	33000	0	0	0	16522	15150	159285	28223	953665	37918	105976	0	0	8116	813159	0	0
2024-04-27 08:13:32			0	33004	0	0	0	16519	15140	159325	27481	953649	37918	105975	0	0	8116	812992	0	0
2024-04-27 08:14:32			0	33007	0	0	0	16524	15150	159309	27706	953612	37918	105977	0	0	8116	812791	0	0
2024-04-27 08:15:32			0	32992	0	0	0	16524	15150	159249	27699	953612	37918	105977	0	0	8116	813579	0	0
2024-04-27 08:16:32			0	32996	0	0	0	16524	15150	159265	27692	953638	37941	105977	0	0	8116	813369	0	0
2024-04-27 08:17:32			0	33001	0	0	0	16529	15150	159285	28060	953744	37941	105979	0	0	8116	813106	0	0
2024-04-27 08:18:32			0	33013	0	0	0	16519	15160	159305	27696	953647	37930	105975	0	0	8117	812432	0	0
2024-04-27 08:19:32			0	32995	0	0	0	16511	15160	159357	27840	953594	37919	105972	0	0	8116	813378	0	0
2024-04-27 08:20:32			0	33006	0	0	0	16509	15160	159409	27647	953647	37919	105971	0	0	8117	812800	0	0
2024-04-27 08:21:32			0	33017	0	0	0	16509	15150	159349	27345	953604	37929	105971	0	0	8117	812266	0	0
2024-04-27 08:22:32			0	33030	0	0	0	16509	15150	159241	27595	953709	37929	105971	0	0	8118	811583	0	0
2024-04-27 08:23:32			0	33045	0	0	0	16511	15160	159169	27583	953568	37930	105972	0	0	8119	810753	0	0
2024-04-27 08:24:32			0	33057	0	0	0	16509	15150	159005	27826	953665	37918	105971	0	0	8120	810167	0	0
2024-04-27 08:25:32			0	33069	0	0	0	16503	15150	158997	27469	953638	37929	105969	0	0	8121	809538	0	0
2024-04-27 08:26:32			0	33080	0	0	0	16503	15140	158949	27654	953675	37918	105969	0	0	8121	809006	0	0
2024-04-27 08:27:32			0	33102	0	0	0	16519	15140	158825	27492	953649	37929	105975	0	0	8122	807855	0	0
2024-04-27 08:28:32			0	33117	0	0	0	16511	15150	158733	27623	953683	37929	105972	0	0	8123	807027	0	0
2024-04-27 08:29:32			0	33151	0	0	0	16519	15150	158673	27784	953630	37929	105975	0	0	8125	805253	0	0
2024-04-27 08:30:32			0	33128	0	0	0	16516	15150	158677	27485	953638	37908	105974	0	0	8124	806453	0	0
2024-04-27 08:31:32			0	33153	0	0	0	16522	15140	158625	27291	953622	37929	105976	0	0	8125	805192	0	0
2024-04-27 08:32:32			0	33148	0	0	0	16511	15150	158681	27805	953657	37941	105972	0	0	8125	805409	0	0
2024-04-27 08:33:32			0	33140	0	0	0	16516	15160	158673	27360	953699	37941	105974	0	0	8125	805783	0	0
2024-04-27 08:34:32			0	33154	0	0	0	16522	15150	158597	27864	953691	37929	105976	0	0	8125	805096	0	0
2024-04-27 08:35:32			0	33165	0	0	0	16516	15150	158545	27467	953638	37929	105974	0	0	8126	804523	0	0
2024-04-27 08:36:32			0	33156	0	0	0	16524	15150	158553	27443	953691	37941	105977	0	0	8126	804992	0	0
2024-04-27 08:37:32			0	33155	0	0	0	16524	15160	158521	27381	953673	37919	105977	0	0	8126	805001	0	0
2024-04-27 08:38:32			0	33161	0	0	0	16529	15150	158561	27488	953630	37929	105979	0	0	8126	804732	0	0
2024-04-27 08:39:32			0	33167	0	0	0	16529	15160	158521	27684	953620	37930	105979	0	0	8126	804376	0	0
2024-04-27 08:40:32			0	33180	0	0	0	16527	15160	158661	27495	953647	37930	105978	0	0	8127	803699	0	0
2024-04-27 08:41:32			0	33157	0	0	0	16529	15150	158609	27699	953691	37929	105979	0	0	8125	804940	0	0
2024-04-27 08:42:32			0	33159	0	0	0	16527	15160	158513	27666	953699	37919	105978	0	0	8126	804793	0	0
2024-04-27 08:43:32			0	33172	0	0	0	16532	15160	158529	27554	953647	37930	105980	0	0	8126	804115	0	0
2024-04-27 08:44:32			0	33178	0	0	0	16537	15170	158477	27803	953689	37932	105982	0	0	8127	803760	0	0
2024-04-27 08:45:32			0	33170	0	0	0	16527	15160	158537	27391	953726	37930	105978	0	0	8126	804220	0	0
2024-04-27 08:46:32			0	33181	0	0	0	16537	15160	158613	27748	953707	37920	105982	0	0	8127	803647	0	0
2024-04-27 08:47:32			0	33162	0	0	0	16532	15160	158557	27524	953752	37919	105980	0	0	8126	804636	0	0
2024-04-27 08:48:32			0	33165	0	0	0	16540	15170	158545	27620	953750	37932	105983	0	0	8126	804437	0	0
2024-04-27 08:49:32			0	33165	0	0	0	16542	15170	158589	27251	953742	37943	105984	0	0	8126	804437	0	0
2024-04-27 08:50:32			0	33158	0	0	0	16545	15160	158661	27731	953673	37919	105985	0	0	8125	804845	0	0
2024-04-27 08:51:32			0	33152	0	0	0	16532	15160	158685	27509	953734	37931	105980	0	0	8125	805157	0	0
2024-04-27 08:52:32			0	33143	0	0	0	16532	15170	158545	27289	953768	37921	105980	0	0	8125	805584	0	0
2024-04-27 08:53:32			0	33139	0	0	0	16540	15160	158593	27410	953734	37931	105983	0	0	8124	805835	0	0
2024-04-27 08:54:32			0	33152	0	0	0	16535	15170	158545	27479	953768	37932	105981	0	0	8125	805114	0	0
2024-04-27 08:55:32			0	33152	0	0	0	16548	15180	158449	27443	953732	37943	105986	0	0	8125	805071	0	0
2024-04-27 08:56:32			0	33167	0	0	0	16542	15170	158669	27859	953750	37921	105984	0	0	8126	804333	0	0
2024-04-27 08:57:32			0	33163	0	0	0	16535	15170	158581	27547	953724	37932	105981	0	0	8126	804541	0	0
2024-04-27 08:58:32			0	33149	0	0	0	16537	15170	158617	27653	953742	37921	105982	0	0	8125	805271	0	0
2024-04-27 08:59:32			0	33134	0	0	0	16537	15160	158629	27616	953734	37920	105982	0	0	8124	806097	0	0
2024-04-27 09:00:32			0	33125	0	0	0	16537	15170	158581	27793	953750	37932	105982	0	0	8124	806523	0	0
2024-04-27 09:01:32			0	33148	0	0	0	16550	15170	158669	27587	953750	37932	105987	0	0	8125	805323	0	0
2024-04-27 09:02:32			0	33139	0	0	0	16550	15170	158681	27842	953750	37932	105987	0	0	8124	805792	0	0
2024-04-27 09:03:32			0	33133	0	0	0	16545	15170	158677	27481	953776	37943	105985	0	0	8124	806105	0	0
2024-04-27 09:04:32			0	33128	0	0	0	16550	15170	158801	27410	953768	37943	105987	0	0	8123	806366	0	0
2024-04-27 09:05:32			0	33137	0	0	0	16540	15170	158781	27351	953750	37932	105983	0	0	8124	805897	0	0
2024-04-27 09:06:32			0	33120	0	0	0	16527	15180	158753	27843	953732	37932	105978	0	0	8123	806741	0	0
2024-04-27 09:07:32			0	33123	0	0	0	16537	15180	158609	27583	953784	37932	105982	0	0	8123	806584	0	0
2024-04-27 09:08:32			0	33142	0	0	0	16535	15180	158705	27736	953758	37921	105981	0	0	8125	805593	0	0
2024-04-27 09:09:32			0	33146	0	0	0	16535	15180	158685	27767	953732	37943	105981	0	0	8125	805384	0	0
2024-04-27 09:10:32			0	33151	0	0	0	16535	15160	158665	27466	953681	37931	105981	0	0	8125	805210	0	0
2024-04-27 09:11:32			0	33162	0	0	0	16540	15170	158621	27469	953724	37921	105983	0	0	8126	804593	0	0
2024-04-27 09:12:32			0	33166	0	0	0	16542	15170	158593	27542	953724	37932	105984	0	0	8126	804385	0	0
2024-04-27 09:13:32			0	33172	0	0	0	16537	15170	158561	27838	953724	37932	105982	0	0	8126	804072	0	0
2024-04-27 09:14:32			0	33174	0	0	0	16545	15170	158517	27685	953724	37943	105985	0	0	8126	803968	0	0
2024-04-27 09:15:32			0	33187	0	0	0	16545	15180	158581	27601	953766	37922	105985	0	0	8127	803248	0	0
2024-04-27 09:16:32			0	33172	0	0	0	16542	15170	158409	27627	953803	37932	105984	0	0	8126	804072	0	0
2024-04-27 09:17:32			0	33176	0	0	0	16537	15180	158357	27417	953758	37932	105982	0	0	8127	803821	0	0
2024-04-27 09:18:32			0	33195	0	0	0	16542	15170	158433	27383	953724	37932	105984	0	0	8128	802875	0	0
2024-04-27 09:19:32			0	33185	0	0	0	16542	15170	158385	27322	953750	37943	105984	0	0	8127	803395	0	0
2024-04-27 09:20:32			0	33198	0	0	0	16527	15170	158337	27516	953742	37932	105978	0	0	8128	802719	0	0
2024-04-27 09:21:32			0	33194	0	0	0	16519	15170	158325	27625	953715	37932	105975	0	0	8128	802927	0	0
2024-04-27 09:22:32			0	33244	0	0	0	16529	15170	158197	27547	953671	37921	105979	0	0	8131	800329	0	0
2024-04-27 09:23:32			0	33267	0	0	0	16519	15170	158045	27559	953671	37943	105975	0	0	8132	799137	0	0
2024-04-27 09:24:32			0	33258	0	0	0	16514	15160	157965	27351	953681	37942	105973	0	0	8132	799646	0	0
2024-04-27 09:25:32			0	33265	0	0	0	16514	15170	158073	27443	953663	37921	105973	0	0	8132	799241	0	0
2024-04-27 09:26:32			0	33275	0	0	0	16519	15160	158021	27514	953673	37919	105975	0	0	8133	798765	0	0
2024-04-27 09:27:32			0	33267	0	0	0	16509	15160	158009	27376	953726	37919	105971	0	0	8133	799180	0	0
2024-04-27 09:28:32			0	33300	0	0	0	16511	15160	157905	27892	953699	37930	105972	0	0	8134	797471	0	0
2024-04-27 09:29:32			0	33323	0	0	0	16514	15160	157853	27713	953726	37930	105973	0	0	8136	796282	0	0
2024-04-27 09:30:32			0	33324	0	0	0	16511	15170	157685	27739	953663	37943	105972	0	0	8136	796188	0	0
2024-04-27 09:31:32			0	33358	0	0	0	16506	15160	157665	27795	953647	37941	105970	0	0	8138	794475	0	0
2024-04-27 09:32:32			0	33345	0	0	0	16514	15160	157581	27592	953628	37931	105973	0	0	8137	795146	0	0
2024-04-27 09:33:32			0	33347	0	0	0	16522	15160	157561	27467	953699	37919	105976	0	0	8137	795043	0	0
2024-04-27 09:34:32			0	33332	0	0	0	16524	15160	157689	27685	953681	37920	105977	0	0	8136	795817	0	0
2024-04-27 09:35:32			0	33331	0	0	0	16529	15150	157681	27906	953604	37929	105979	0	0	8136	795912	0	0
2024-04-27 09:36:32			0	33339	0	0	0	16516	15150	157669	27564	953691	37929	105974	0	0	8137	795498	0	0
2024-04-27 09:37:32			0	33322	0	0	0	16516	15160	157741	27743	953673	37919	105974	0	0	8136	796334	0	0
2024-04-27 09:38:32			0	33339	0	0	0	16516	15150	157789	27398	953691	37918	105974	0	0	8137	795498	0	0
2024-04-27 09:39:32			0	33316	0	0	0	16527	15160	157825	27571	953647	37930	105978	0	0	8135	796644	0	0
2024-04-27 09:40:32			0	33304	0	0	0	16532	15160	157773	27540	953647	37941	105980	0	0	8134	797264	0	0
2024-04-27 09:41:32			0	33299	0	0	0	16527	15150	157945	27421	953638	37929	105978	0	0	8134	797566	0	0
2024-04-27 09:42:32			0	33288	0	0	0	16532	15160	157973	27452	953778	37930	105980	0	0	8133	798092	0	0
2024-04-27 09:43:32			0	33284	0	0	0	16537	15160	158033	27786	953673	37930	105982	0	0	8133	798299	0	0
2024-04-27 09:44:32			0	33277	0	0	0	16532	15160	157989	27625	953699	37941	105980	0	0	8133	798662	0	0
2024-04-27 09:45:32			0	33258	0	0	0	16548	15150	158101	27445	953691	37941	105986	0	0	8131	799689	0	0
2024-04-27 09:46:32			0	33262	0	0	0	16576	15170	158093	27705	953742	37943	105997	0	0	8131	799396	0	0
2024-04-27 09:47:32			0	33257	0	0	0	16568	15170	158109	27429	953794	37943	105994	0	0	8131	799655	0	0
2024-04-27 09:48:32			0	33259	0	0	0	16563	15160	158149	27424	953813	37953	105992	0	0	8131	799594	0	0
2024-04-27 09:49:32			0	33253	0	0	0	16584	15170	158133	27371	953803	37921	106000	0	0	8130	799863	0	0
2024-04-27 09:50:32			0	33266	0	0	0	16574	15180	158081	27400	953898	37955	105996	0	0	8131	799146	0	0
2024-04-27 09:51:32			0	33268	0	0	0	16566	15180	158081	27545	953793	37944	105993	0	0	8132	799042	0	0
2024-04-27 09:52:32			0	33291	0	0	0	16574	15180	157933	27847	953819	37933	105996	0	0	8133	797851	0	0
2024-04-27 09:53:32			0	33294	0	0	0	16561	15190	157885	27779	953801	37934	105991	0	0	8133	797653	0	0
2024-04-27 09:54:32			0	33297	0	0	0	16563	15190	157845	27739	953827	37945	105992	0	0	8134	797498	0	0
2024-04-27 09:55:32			0	33304	0	0	0	16566	15180	157753	27492	953845	37944	105993	0	0	8134	797179	0	0
2024-04-27 09:56:32			0	33327	0	0	0	16571	15190	157889	27540	953853	37945	105995	0	0	8135	795947	0	0
2024-04-27 09:57:32			0	33314	0	0	0	16550	15190	157821	27377	953888	37923	105987	0	0	8135	796619	0	0
2024-04-27 09:58:32			0	33339	0	0	0	16550	15190	157757	27852	953827	37956	105987	0	0	8136	795328	0	0
2024-04-27 09:59:32			0	33354	0	0	0	16542	15190	157697	27478	953835	37934	105984	0	0	8137	794554	0	0
2024-04-27 10:00:32			0	33385	0	0	0	16542	15190	157553	27843	953801	37934	105984	0	0	8139	792956	0	0
2024-04-27 10:01:32			0	33395	0	0	0	16542	15190	157477	27479	953774	37945	105984	0	0	8140	792441	0	0
2024-04-27 10:02:32			0	33401	0	0	0	16542	15180	157269	27855	953793	37944	105984	0	0	8140	792175	0	0
2024-04-27 10:03:32			0	33410	0	0	0	16540	15180	157281	27569	953784	37932	105983	0	0	8141	791712	0	0
2024-04-27 10:04:32			0	33427	0	0	0	16537	15180	157349	27698	953845	37922	105982	0	0	8142	790839	0	0
2024-04-27 10:05:32			0	33427	0	0	0	16540	15180	157285	27523	953793	37944	105983	0	0	8142	790839	0	0
2024-04-27 10:06:32			0	33436	0	0	0	16548	15180	157281	27743	953811	37932	105986	0	0	8142	790376	0	0
2024-04-27 10:07:32			0	33469	0	0	0	16558	15180	157197	27635	953766	37922	105990	0	0	8144	788683	0	0
2024-04-27 10:08:32			0	33461	0	0	0	16548	15180	157261	27734	953811	37932	105986	0	0	8144	789093	0	0
2024-04-27 10:09:32			0	33450	0	0	0	16540	15190	157213	27284	953774	37945	105983	0	0	8143	789615	0	0
2024-04-27 10:10:32			0	33467	0	0	0	16537	15180	157221	27540	953793	37933	105982	0	0	8144	788786	0	0
2024-04-27 10:11:32			0	33466	0	0	0	16553	15180	157133	27791	953793	37933	105988	0	0	8144	788837	0	0
2024-04-27 10:12:32			0	33465	0	0	0	16548	15180	157069	27326	953732	37932	105986	0	0	8144	788888	0	0
2024-04-27 10:13:32			0	33486	0	0	0	16545	15190	157093	27592	953827	37934	105985	0	0	8145	787770	0	0
2024-04-27 10:14:32			0	33493	0	0	0	16550	15190	157089	27696	953827	37934	105987	0	0	8146	787411	0	0
2024-04-27 10:15:32			0	33485	0	0	0	16550	15180	157105	27521	953793	37922	105987	0	0	8145	787863	0	0
2024-04-27 10:16:32			0	33484	0	0	0	16561	15190	157029	27862	953774	37945	105991	0	0	8145	787872	0	0
2024-04-27 10:17:32			0	33503	0	0	0	16548	15190	157013	27377	953835	37945	105986	0	0	8146	786899	0	0
2024-04-27 10:18:32			0	33512	0	0	0	16561	15180	157037	27538	953819	37933	105991	0	0	8146	786481	0	0
2024-04-27 10:19:32			0	33519	0	0	0	16555	15190	156985	27424	953835	37945	105989	0	0	8147	786081	0	0
2024-04-27 10:20:32			0	33499	0	0	0	16571	15190	157001	27550	953880	37934	105995	0	0	8146	787104	0	0
2024-04-27 10:21:32			0	33502	0	0	0	16561	15180	156929	27757	953819	37944	105991	0	0	8146	786993	0	0
2024-04-27 10:22:32			0	33516	0	0	0	16568	15200	156985	27509	953843	37934	105994	0	0	8147	786192	0	0
2024-04-27 10:23:32			0	33531	0	0	0	16566	15180	156901	27904	953819	37944	105993	0	0	8147	785510	0	0
2024-04-27 10:24:32			0	33514	0	0	0	16561	15190	156933	28003	953835	37945	105991	0	0	8147	786337	0	0
2024-04-27 10:25:32			0	33519	0	0	0	16563	15180	156821	27625	953845	37933	105992	0	0	8147	786123	0	0
2024-04-27 10:26:32			0	33521	0	0	0	16605	15180	156893	27476	953845	37955	106008	0	0	8146	786021	0	0
2024-04-27 10:27:32			0	33528	0	0	0	16636	15190	156901	28122	953940	37945	106020	0	0	8146	785621	0	0
2024-04-27 10:28:32			0	33535	0	0	0	16623	15200	156909	27779	953957	37935	106015	0	0	8147	785221	0	0
2024-04-27 10:29:32			0	33514	0	0	0	16576	15220	156957	27457	953955	37946	105997	0	0	8146	786210	0	0
2024-04-27 10:30:32			0	33532	0	0	0	16568	15220	156801	27540	953936	37947	105994	0	0	8148	785290	0	0
2024-04-27 10:31:32			0	33549	0	0	0	16568	15210	156677	27973	953894	37935	105994	0	0	8149	784464	0	0
2024-04-27 10:32:32			0	33576	0	0	0	16568	15210	156677	27500	953859	37935	105994	0	0	8150	783087	0	0
2024-04-27 10:33:32			0	33575	0	0	0	16568	15210	156658	27750	953912	37935	105994	0	0	8150	783138	0	0
2024-04-27 10:34:32			0	33595	0	0	0	16574	15220	156602	27646	953955	37935	105996	0	0	8151	782077	0	0
2024-04-27 10:35:32			0	33592	0	0	0	16571	15210	156506	27880	953894	37935	105995	0	0	8151	782272	0	0
2024-04-27 10:36:32			0	33600	0	0	0	16579	15210	156478	27923	953938	37935	105998	0	0	8151	781865	0	0
2024-04-27 10:37:32			0	33592	0	0	0	16566	15210	156482	27885	953886	37946	105993	0	0	8151	782272	0	0
2024-04-27 10:38:32			0	33611	0	0	0	16571	15210	156506	27665	953938	37958	105995	0	0	8152	781305	0	0
2024-04-27 10:39:32			0	33611	0	0	0	16574	15200	156394	27537	953904	37946	105996	0	0	8152	781347	0	0
2024-04-27 10:40:32			0	33633	0	0	0	16574	15210	156354	27833	953894	37946	105996	0	0	8154	780186	0	0
2024-04-27 10:41:32			0	33614	0	0	0	16574	15210	156394	27800	953886	37946	105996	0	0	8152	781152	0	0
2024-04-27 10:42:32			0	33624	0	0	0	16579	15210	156322	27751	953973	37958	105998	0	0	8153	780644	0	0
2024-04-27 10:43:32			0	33629	0	0	0	16574	15210	156426	27696	953965	37935	105996	0	0	8153	780390	0	0
2024-04-27 10:44:32			0	33640	0	0	0	16568	15210	156414	27504	953868	37935	105994	0	0	8154	779831	0	0
2024-04-27 10:45:32			0	33643	0	0	0	16574	15220	156246	27864	953955	37946	105996	0	0	8154	779636	0	0
2024-04-27 10:46:32			0	33648	0	0	0	16576	15210	156278	27708	953912	37935	105997	0	0	8154	779425	0	0
2024-04-27 10:47:32			0	33641	0	0	0	16574	15200	156310	27431	953930	37935	105996	0	0	8154	779822	0	0
2024-04-27 10:48:32			0	33669	0	0	0	16579	15200	156258	27953	953957	37946	105998	0	0	8156	778401	0	0
2024-04-27 10:49:32			0	33663	0	0	0	16592	15210	156258	27894	953920	37946	106003	0	0	8155	778663	0	0
2024-04-27 10:50:32			0	33662	0	0	0	16597	15220	156266	27932	953981	37946	106005	0	0	8155	778672	0	0
2024-04-27 10:51:32			0	33652	0	0	0	16584	15220	156246	27402	953989	37947	106000	0	0	8155	779179	0	0
2024-04-27 10:52:32			0	33654	0	0	0	16576	15210	156270	27802	953912	37946	105997	0	0	8155	779120	0	0
2024-04-27 10:53:32			0	33653	0	0	0	16581	15210	156334	27571	953946	37935	105999	0	0	8155	779171	0	0
2024-04-27 10:54:32			0	33643	0	0	0	16576	15220	156238	27673	953928	37924	105997	0	0	8154	779636	0	0
2024-04-27 10:55:32			0	33642	0	0	0	16594	15210	156206	27767	953912	37935	106004	0	0	8154	779729	0	0
2024-04-27 10:56:32			0	33651	0	0	0	16605	15220	156178	27940	953989	37936	106008	0	0	8154	779230	0	0
2024-04-27 10:57:32			0	33663	0	0	0	16605	15220	156170	27961	953981	37958	106008	0	0	8155	778621	0	0
2024-04-27 10:58:32			0	33667	0	0	0	16612	15240	156202	27737	954040	37949	106011	0	0	8155	778335	0	0
2024-04-27 10:59:32			0	33675	0	0	0	16597	15220	156178	28013	954068	37925	106005	0	0	8156	778013	0	0
2024-04-27 11:00:32			0	33668	0	0	0	16584	15240	156102	27585	954013	37949	106000	0	0	8156	778284	0	0
2024-04-27 11:01:32			0	33680	0	0	0	16574	15230	156082	27571	953997	37937	105996	0	0	8156	777717	0	0
2024-04-27 11:02:32			0	33695	0	0	0	16576	15230	156202	27391	953971	37948	105997	0	0	8157	776957	0	0
2024-04-27 11:03:32			0	33676	0	0	0	16589	15220	156146	27743	953963	37947	106002	0	0	8156	777962	0	0
2024-04-27 11:04:32			0	33684	0	0	0	16579	15220	156034	27646	953963	37958	105998	0	0	8157	777557	0	0
2024-04-27 11:05:32			0	33686	0	0	0	16599	15220	156118	27703	953963	37958	106006	0	0	8156	777455	0	0
2024-04-27 11:06:32			0	33681	0	0	0	16610	15220	156082	27913	953963	37936	106010	0	0	8156	777709	0	0
2024-04-27 11:07:32			0	33699	0	0	0	16605	15240	156054	27554	954066	37938	106008	0	0	8157	776713	0	0
2024-04-27 11:08:32			0	33689	0	0	0	16602	15230	156034	27848	954024	37948	106007	0	0	8156	777261	0	0
2024-04-27 11:09:32			0	33701	0	0	0	16612	15220	156078	27559	954015	37947	106011	0	0	8157	776695	0	0
2024-04-27 11:10:32			0	33713	0	0	0	16625	15240	155958	27376	954040	37959	106016	0	0	8158	776004	0	0
2024-04-27 11:11:32			0	33705	0	0	0	16628	15240	155954	27725	954092	37949	106017	0	0	8157	776409	0	0
2024-04-27 11:12:32			0	33713	0	0	0	16641	15240	156038	27422	954153	37959	106022	0	0	8157	776004	0	0
2024-04-27 11:13:32			0	33686	0	0	0	16638	15250	156046	27838	954135	37950	106021	0	0	8156	777330	0	0
2024-04-27 11:14:32			0	33709	0	0	0	16628	15240	155906	27855	954127	37938	106017	0	0	8157	776207	0	0
2024-04-27 11:15:32			0	33682	0	0	0	16633	15250	155918	27868	954109	37950	106019	0	0	8156	777532	0	0
2024-04-27 11:16:32			0	33687	0	0	0	16628	15250	155902	27646	954091	37940	106017	0	0	8156	777279	0	0
2024-04-27 11:17:32			0	33683	0	0	0	16638	15270	155958	28272	954168	37940	106021	0	0	8156	777398	0	0
2024-04-27 11:18:32			0	33689	0	0	0	16618	15260	155970	27874	954152	37951	106013	0	0	8156	777136	0	0
2024-04-27 11:19:32			0	33698	0	0	0	16618	15250	156014	27946	954188	37939	106013	0	0	8157	776722	0	0
2024-04-27 11:20:32			0	33710	0	0	0	16646	15260	156034	27625	954099	37940	106024	0	0	8157	776073	0	0
2024-04-27 11:21:32			0	33715	0	0	0	16636	15270	155934	27537	954220	37940	106020	0	0	8158	775778	0	0
2024-04-27 11:22:32			0	33716	0	0	0	16625	15260	155930	27784	954178	37951	106016	0	0	8158	775770	0	0
2024-04-27 11:23:32			0	33732	0	0	0	16623	15270	155802	28011	954194	37951	106015	0	0	8159	774919	0	0
2024-04-27 11:24:32			0	33739	0	0	0	16631	15270	155786	28055	954255	37974	106018	0	0	8159	774565	0	0
2024-04-27 11:25:32			0	33726	0	0	0	16618	15250	155854	27783	954170	37961	106013	0	0	8158	775305	0	0
2024-04-27 11:26:32			0	33755	0	0	0	16628	15270	155742	27847	954150	37952	106017	0	0	8160	773757	0	0
2024-04-27 11:27:32			0	33741	0	0	0	16633	15270	155762	27478	954115	37940	106019	0	0	8159	774464	0	0
2024-04-27 11:28:32			0	33761	0	0	0	16641	15270	155726	27899	954202	37952	106022	0	0	8160	773454	0	0
2024-04-27 11:29:32			0	33765	0	0	0	16636	15270	155670	27902	954229	37941	106020	0	0	8161	773253	0	0
2024-04-27 11:30:32			0	33770	0	0	0	16628	15270	155754	27670	954168	37951	106017	0	0	8161	773000	0	0
2024-04-27 11:31:32			0	33788	0	0	0	16618	15270	155574	27658	954115	37951	106013	0	0	8162	772093	0	0
2024-04-27 11:32:32			0	33790	0	0	0	16631	15280	155590	27897	954158	37952	106018	0	0	8162	771951	0	0
2024-04-27 11:33:32			0	33799	0	0	0	16618	15270	155562	27526	954141	37940	106013	0	0	8163	771539	0	0
2024-04-27 11:34:32			0	33803	0	0	0	16620	15260	155530	27649	954152	37940	106014	0	0	8163	771379	0	0
2024-04-27 11:35:32			0	33795	0	0	0	16636	15270	155494	27817	954202	37962	106020	0	0	8162	771740	0	0
2024-04-27 11:36:32			0	33814	0	0	0	16633	15270	155458	27843	954176	37952	106019	0	0	8163	770784	0	0
2024-04-27 11:37:32			0	33807	0	0	0	16623	15270	155450	27589	954168	37951	106015	0	0	8163	771136	0	0
2024-04-27 11:38:32			0	33811	0	0	0	16623	15270	155510	27977	954168	37951	106015	0	0	8163	770935	0	0
2024-04-27 11:39:32			0	33808	0	0	0	16620	15280	155426	27871	954131	37952	106014	0	0	8163	771044	0	0
2024-04-27 11:40:32			0	33787	0	0	0	16620	15270	155434	27933	954123	37952	106014	0	0	8162	772143	0	0
2024-04-27 11:41:32			0	33816	0	0	0	16620	15270	155530	27673	954089	37940	106014	0	0	8164	770683	0	0
2024-04-27 11:42:32			0	33808	0	0	0	16625	15250	155454	28039	954143	37940	106016	0	0	8163	771169	0	0
2024-04-27 11:43:32			0	33815	0	0	0	16633	15270	155394	27774	954176	37952	106019	0	0	8164	770733	0	0
2024-04-27 11:44:32			0	33818	0	0	0	16633	15280	155498	28048	954184	37952	106019	0	0	8164	770541	0	0
2024-04-27 11:45:32			0	33806	0	0	0	16638	15260	155514	27573	954160	37940	106021	0	0	8163	771228	0	0
2024-04-27 11:46:32			0	33822	0	0	0	16662	15270	155534	27668	954194	37951	106030	0	0	8163	770381	0	0
2024-04-27 11:47:32			0	33826	0	0	0	16664	15280	155402	27817	954289	37952	106031	0	0	8164	770139	0	0
2024-04-27 11:48:32			0	33831	0	0	0	16667	15280	155418	27462	954210	37952	106032	0	0	8164	769887	0	0
2024-04-27 11:49:32			0	33829	0	0	0	16675	15290	155434	27547	954332	37953	106035	0	0	8164	769946	0	0
2024-04-27 11:50:32			0	33836	0	0	0	16670	15300	155306	28032	954348	37965	106033	0	0	8164	769553	0	0
2024-04-27 11:51:32			0	33834	0	0	0	16683	15300	155406	28086	954393	37954	106038	0	0	8164	769654	0	0
2024-04-27 11:52:32			0	33833	0	0	0	16672	15300	155434	27774	954314	37964	106034	0	0	8164	769704	0	0
2024-04-27 11:53:32			0	33828	0	0	0	16680	15310	155446	28181	954383	37944	106037	0	0	8164	769914	0	0
2024-04-27 11:54:32			0	33846	0	0	0	16688	15310	155274	27422	954330	37976	106040	0	0	8165	769009	0	0
2024-04-27 11:55:32			0	33848	0	0	0	16664	15310	155310	28183	954304	37965	106031	0	0	8165	768909	0	0
2024-04-27 11:56:32			0	33846	0	0	0	16667	15320	155314	27838	954294	37956	106032	0	0	8165	768968	0	0
2024-04-27 11:57:32			0	33847	0	0	0	16683	15300	155310	27781	954374	37955	106038	0	0	8165	769001	0	0
2024-04-27 11:58:32			0	33853	0	0	0	16662	15310	155330	27755	954364	37965	106030	0	0	8165	768658	0	0
2024-04-27 11:59:32			0	33828	0	0	0	16706	15310	155362	27840	954364	37965	106047	0	0	8163	769914	0	0
2024-04-27 12:00:32			0	33845	0	0	0	16693	15320	155286	27928	954407	37957	106042	0	0	8165	769018	0	0
2024-04-27 12:01:32			0	33854	0	0	0	16690	15320	155258	27758	954433	37945	106041	0	0	8165	768566	0	0
2024-04-27 12:02:32			0	33866	0	0	0	16672	15320	155294	27793	954373	37945	106034	0	0	8166	767964	0	0
2024-04-27 12:03:32			0	33849	0	0	0	16693	15320	155326	27873	954407	37967	106042	0	0	8165	768818	0	0
2024-04-27 12:04:32			0	33868	0	0	0	16693	15320	155258	27736	954399	37956	106042	0	0	8166	767864	0	0
2024-04-27 12:05:32			0	33870	0	0	0	16716	15330	155258	27854	954468	37957	106051	0	0	8166	767722	0	0
2024-04-27 12:06:32			0	33873	0	0	0	16711	15330	155158	28244	954441	37967	106049	0	0	8166	767572	0	0
2024-04-27 12:07:32			0	33865	0	0	0	16685	15320	155138	27562	954399	37966	106039	0	0	8166	768014	0	0
2024-04-27 12:08:32			0	33881	0	0	0	16693	15330	155170	27750	954441	37978	106042	0	0	8167	767171	0	0
2024-04-27 12:09:32			0	33881	0	0	0	16696	15330	155166	27899	954450	37957	106043	0	0	8167	767171	0	0
2024-04-27 12:10:32			0	33876	0	0	0	16706	15330	155174	27692	954450	37945	106047	0	0	8166	767422	0	0
2024-04-27 12:11:32			0	33889	0	0	0	16724	15340	155214	27758	954466	37958	106054	0	0	8167	766729	0	0
2024-04-27 12:12:32			0	33888	0	0	0	16745	15340	155206	27684	954518	37968	106062	0	0	8166	766779	0	0
2024-04-27 12:13:32			0	33887	0	0	0	16742	15340	155206	27944	954510	37968	106061	0	0	8166	766829	0	0
2024-04-27 12:14:32			0	33885	0	0	0	16735	15360	155202	27956	954569	37969	106058	0	0	8166	766847	0	0
2024-04-27 12:15:32			0	33896	0	0	0	16727	15360	155130	27805	954604	37970	106055	0	0	8167	766296	0	0
2024-04-27 12:16:32			0	33895	0	0	0	16729	15370	155070	27816	954585	37970	106056	0	0	8167	766304	0	0
2024-04-27 12:17:32			0	33894	0	0	0	16727	15370	155214	28010	954585	37959	106055	0	0	8167	766354	0	0
2024-04-27 12:18:32			0	33903	0	0	0	16724	15360	155150	27805	954604	37970	106054	0	0	8168	765945	0	0
2024-04-27 12:19:32			0	33893	0	0	0	16742	15380	155110	27448	954636	37972	106061	0	0	8167	766363	0	0
2024-04-27 12:20:32			0	33915	0	0	0	16750	15370	155106	27805	954612	37970	106064	0	0	8168	765303	0	0
2024-04-27 12:21:32			0	33924	0	0	0	16737	15370	155118	27977	954594	37971	106059	0	0	8169	764853	0	0
2024-04-27 12:22:32			0	33927	0	0	0	16766	15370	155118	27817	954594	37971	106070	0	0	8168	764703	0	0
2024-04-27 12:23:32			0	33947	0	0	0	16771	15380	155026	27940	954628	37971	106072	0	0	8169	763663	0	0
2024-04-27 12:24:32			0	33936	0	0	0	16768	15380	154982	27947	954663	37972	106071	0	0	8169	764212	0	0
2024-04-27 12:25:32			0	33936	0	0	0	16774	15380	154986	27973	954715	37972	106073	0	0	8169	764212	0	0
2024-04-27 12:26:32			0	33942	0	0	0	16763	15390	154938	27750	954732	37973	106069	0	0	8169	763871	0	0
2024-04-27 12:27:32			0	33947	0	0	0	16781	15380	154890	27585	954681	37971	106076	0	0	8169	763663	0	0
2024-04-27 12:28:32			0	33939	0	0	0	16799	15400	154966	27982	954748	37973	106083	0	0	8169	763980	0	0
2024-04-27 12:29:32			0	33945	0	0	0	16781	15400	154878	27914	954774	37973	106076	0	0	8169	763680	0	0
2024-04-27 12:30:32			0	33956	0	0	0	16766	15410	154790	27623	954782	37974	106070	0	0	8170	763090	0	0
2024-04-27 12:31:32			0	33950	0	0	0	16766	15410	154854	28181	954791	37963	106070	0	0	8170	763390	0	0
2024-04-27 12:32:32			0	33960	0	0	0	16784	15410	154822	27772	954756	37974	106077	0	0	8170	762891	0	0
2024-04-27 12:33:32			0	33957	0	0	0	16812	15410	154766	27744	954817	37963	106088	0	0	8169	763040	0	0
2024-04-27 12:34:32			0	33954	0	0	0	16823	15420	154770	27731	954878	37985	106092	0	0	8169	763149	0	0
2024-04-27 12:35:32			0	33963	0	0	0	16805	15420	154702	28121	954859	37986	106085	0	0	8170	762700	0	0
2024-04-27 12:36:32			0	33989	0	0	0	16794	15440	154722	27906	954831	37966	106081	0	0	8172	761322	0	0
2024-04-27 12:37:32			0	33971	0	0	0	16810	15420	154634	27748	954859	37954	106087	0	0	8170	762301	0	0
2024-04-27 12:38:32			0	33964	0	0	0	16818	15430	154586	27457	954876	37998	106090	0	0	8170	762609	0	0
2024-04-27 12:39:32			0	33979	0	0	0	16838	15440	154662	27464	954910	37988	106098	0	0	8170	761820	0	0
2024-04-27 12:40:32			0	33971	0	0	0	16875	15430	154674	27499	954955	37976	106112	0	0	8169	762260	0	0
2024-04-27 12:41:32			0	33978	0	0	0	16893	15440	154710	27379	954997	37988	106119	0	0	8169	761870	0	0
2024-04-27 12:42:32			0	33988	0	0	0	16831	15450	154638	27627	955066	37989	106095	0	0	8171	761331	0	0
2024-04-27 12:43:32			0	33975	0	0	0	16807	15450	154622	27616	954961	37978	106086	0	0	8171	761978	0	0
2024-04-27 12:44:32			0	33973	0	0	0	16802	15460	154666	27377	954977	37990	106084	0	0	8171	762037	0	0
2024-04-27 12:45:32			0	33985	0	0	0	16851	15460	154678	27343	954925	37978	106103	0	0	8171	761439	0	0
2024-04-27 12:46:32			0	33980	0	0	0	16838	15460	154694	27575	954969	37990	106098	0	0	8171	761688	0	0
2024-04-27 12:47:32			0	33965	0	0	0	16815	15460	154534	27260	955022	37978	106089	0	0	8170	762436	0	0
2024-04-27 12:48:32			0	33983	0	0	0	16820	15460	154638	27718	954943	37967	106091	0	0	8171	761539	0	0
2024-04-27 12:49:32			0	33988	0	0	0	16805	15470	154694	27590	954985	37990	106085	0	0	8172	761249	0	0
2024-04-27 12:50:32			0	33976	0	0	0	16815	15460	154690	27547	954995	37990	106089	0	0	8171	761887	0	0
2024-04-27 12:51:32			0	33969	0	0	0	16833	15460	154702	27372	954951	37990	106096	0	0	8170	762236	0	0
2024-04-27 12:52:32			0	33980	0	0	0	16846	15470	154706	27319	955012	38001	106101	0	0	8171	761647	0	0
2024-04-27 12:53:32			0	33965	0	0	0	16831	15460	154682	27476	954969	37978	106095	0	0	8170	762436	0	0
2024-04-27 12:54:32			0	33988	0	0	0	16872	15460	154654	27436	955056	37978	106111	0	0	8171	761290	0	0
2024-04-27 12:55:32			0	33963	0	0	0	16885	15480	154722	27334	955054	37991	106116	0	0	8169	762454	0	0
2024-04-27 12:56:32			0	33974	0	0	0	16896	15490	154690	27517	955070	37992	106120	0	0	8169	761864	0	0
2024-04-27 12:57:32			0	33978	0	0	0	16877	15480	154710	27972	955089	37991	106113	0	0	8170	761706	0	0
2024-04-27 12:58:32			0	33988	0	0	0	16896	15490	154678	27594	955184	37982	106120	0	0	8170	761167	0	0
2024-04-27 12:59:32			0	33981	0	0	0	16870	15500	154550	27554	955121	37994	106110	0	0	8170	761474	0	0
2024-04-27 13:00:32			0	33984	0	0	0	16849	15490	154450	27699	955105	37993	106102	0	0	8171	761366	0	0
2024-04-27 13:01:32			0	34008	0	0	0	16836	15500	154586	27623	955087	37993	106097	0	0	8172	760130	0	0
2024-04-27 13:02:32			0	33989	0	0	0	16836	15500	154554	27694	955060	37982	106097	0	0	8171	761076	0	0
2024-04-27 13:03:32			0	33981	0	0	0	16841	15500	154622	27511	955060	37971	106099	0	0	8171	761474	0	0
2024-04-27 13:04:32			0	33985	0	0	0	16846	15480	154494	27748	955115	37980	106101	0	0	8171	761357	0	0
2024-04-27 13:05:32			0	34005	0	0	0	16838	15500	154482	27888	955095	38004	106098	0	0	8172	760279	0	0
2024-04-27 13:06:32			0	34016	0	0	0	16872	15490	154474	27514	955105	37993	106111	0	0	8172	759773	0	0
2024-04-27 13:07:32			0	34007	0	0	0	16883	15490	154534	27684	955131	37993	106115	0	0	8172	760221	0	0
2024-04-27 13:08:32			0	34004	0	0	0	16877	15490	154462	27881	955105	37993	106113	0	0	8171	760370	0	0
2024-04-27 13:09:32			0	33995	0	0	0	16864	15500	154570	27505	955148	37983	106108	0	0	8171	760777	0	0
2024-04-27 13:10:32			0	34002	0	0	0	16859	15510	154570	27376	955182	37994	106106	0	0	8172	760388	0	0
2024-04-27 13:11:32			0	34000	0	0	0	16867	15510	154630	27552	955235	37983	106109	0	0	8172	760487	0	0
2024-04-27 13:12:32			0	34004	0	0	0	16901	15510	154482	27296	955209	37983	106122	0	0	8171	760288	0	0
2024-04-27 13:13:32			0	34000	0	0	0	16885	15510	154506	27755	955190	37995	106116	0	0	8171	760487	0	0
2024-04-27 13:14:32			0	33980	0	0	0	16880	15520	154494	27833	955278	38005	106114	0	0	8170	761442	0	0
2024-04-27 13:15:32			0	33986	0	0	0	16885	15510	154502	27542	955190	37995	106116	0	0	8170	761184	0	0
2024-04-27 13:16:32			0	33985	0	0	0	16885	15520	154678	27417	955251	37995	106116	0	0	8170	761193	0	0
2024-04-27 13:17:32			0	33982	0	0	0	16883	15510	154554	27516	955209	37983	106115	0	0	8170	761384	0	0
2024-04-27 13:18:32			0	33977	0	0	0	16867	15510	154630	27774	955217	37983	106109	0	0	8170	761633	0	0
2024-04-27 13:19:32			0	33964	0	0	0	16870	15520	154582	27623	955180	37984	106110	0	0	8169	762240	0	0
2024-04-27 13:20:32			0	33980	0	0	0	16870	15510	154654	27488	955182	37994	106110	0	0	8170	761483	0	0
2024-04-27 13:21:32			0	33978	0	0	0	16877	15520	154574	27512	955199	37972	106113	0	0	8170	761542	0	0
2024-04-27 13:22:32			0	33976	0	0	0	16880	15520	154634	27890	955233	37995	106114	0	0	8170	761641	0	0
2024-04-27 13:23:32			0	33967	0	0	0	16919	15520	154590	27871	955207	37995	106129	0	0	8169	762090	0	0
2024-04-27 13:24:32			0	33993	0	0	0	16927	15530	154526	27743	955189	37995	106132	0	0	8170	760754	0	0
2024-04-27 13:25:32			0	33987	0	0	0	16924	15520	154618	27840	955286	38006	106131	0	0	8170	761094	0	0
2024-04-27 13:26:32			0	33992	0	0	0	16898	15540	154606	27573	955336	38017	106121	0	0	8171	760763	0	0
2024-04-27 13:27:32			0	33996	0	0	0	16877	15540	154558	27540	955310	38006	106113	0	0	8171	760564	0	0
2024-04-27 13:28:32			0	34003	0	0	0	16867	15530	154690	27765	955241	37984	106109	0	0	8172	760256	0	0
2024-04-27 13:29:32			0	33984	0	0	0	16883	15530	154518	27644	955241	37995	106115	0	0	8170	761202	0	0
2024-04-27 13:30:32			0	34002	0	0	0	16867	15540	154546	27620	955310	37985	106109	0	0	8172	760265	0	0
2024-04-27 13:31:32			0	34004	0	0	0	16870	15540	154550	27753	955257	37996	106110	0	0	8172	760165	0	0
2024-04-27 13:32:32			0	33996	0	0	0	16883	15540	154534	27757	955310	38006	106115	0	0	8171	760564	0	0
2024-04-27 13:33:32			0	34001	0	0	0	16880	15530	154626	27885	955249	37985	106114	0	0	8171	760356	0	0
2024-04-27 13:34:32			0	34006	0	0	0	16867	15540	154430	27705	955231	37985	106109	0	0	8172	760066	0	0
2024-04-27 13:35:32			0	34008	0	0	0	16885	15540	154614	27400	955239	37986	106116	0	0	8172	759967	0	0
2024-04-27 13:36:32			0	34001	0	0	0	16893	15540	154606	27550	955257	37996	106119	0	0	8171	760315	0	0
2024-04-27 13:37:32			0	34017	0	0	0	16880	15540	154598	27760	955310	37974	106114	0	0	8172	759519	0	0
2024-04-27 13:38:32			0	34010	0	0	0	16851	15540	154394	27481	955231	37996	106103	0	0	8173	759867	0	0
2024-04-27 13:39:32			0	34005	0	0	0	16854	15530	154438	27892	955223	37996	106104	0	0	8172	760157	0	0
2024-04-27 13:40:32			0	34009	0	0	0	16880	15530	154534	27833	955223	37985	106114	0	0	8172	759958	0	0
2024-04-27 13:41:32			0	34005	0	0	0	16901	15530	154506	27848	955189	37995	106122	0	0	8171	760157	0	0
2024-04-27 13:42:32			0	34025	0	0	0	16898	15530	154426	27881	955268	37995	106121	0	0	8173	759162	0	0
2024-04-27 13:43:32			0	34017	0	0	0	16896	15530	154482	27881	955355	37996	106120	0	0	8172	759560	0	0
2024-04-27 13:44:32			0	34027	0	0	0	16896	15520	154490	27554	955251	37995	106120	0	0	8173	759104	0	0
2024-04-27 13:45:32			0	34040	0	0	0	16914	15540	154402	27334	955310	37996	106127	0	0	8173	758376	0	0
2024-04-27 13:46:32			0	34022	0	0	0	16893	15530	154426	27776	955328	38006	106119	0	0	8172	759311	0	0
2024-04-27 13:47:32			0	34026	0	0	0	16885	15540	154294	27428	955318	37997	106116	0	0	8173	759072	0	0
2024-04-27 13:48:32			0	34044	0	0	0	16916	15540	154450	27248	955310	37996	106128	0	0	8173	758177	0	0
2024-04-27 13:49:32			0	34031	0	0	0	16914	15540	154434	27673	955389	37996	106127	0	0	8173	758823	0	0
2024-04-27 13:50:32			0	34022	0	0	0	16950	15540	154430	27384	955389	37996	106141	0	0	8172	759270	0	0
2024-04-27 13:51:32			0	34041	0	0	0	16927	15550	154342	27319	955432	38018	106132	0	0	8173	758285	0	0
2024-04-27 13:52:32			0	34035	0	0	0	16916	15560	154302	27102	955395	37987	106128	0	0	8173	758543	0	0
2024-04-27 13:53:32			0	34046	0	0	0	16906	15560	154342	27533	955448	37998	106124	0	0	8174	757996	0	0
2024-04-27 13:54:32			0	34062	0	0	0	16914	15550	154310	27357	955466	38008	106127	0	0	8175	757243	0	0
2024-04-27 13:55:32			0	34061	0	0	0	16909	15560	154218	27391	955422	37998	106125	0	0	8175	757252	0	0
2024-04-27 13:56:32			0	34060	0	0	0	16883	15550	154174	27358	955335	37998	106115	0	0	8175	757342	0	0
2024-04-27 13:57:32			0	34063	0	0	0	16935	15570	154266	27133	955420	38000	106135	0	0	8174	757112	0	0
2024-04-27 13:58:32			0	34063	0	0	0	16927	15560	154294	27620	955395	37987	106132	0	0	8174	757153	0	0
2024-04-27 13:59:32			0	34043	0	0	0	16870	15550	154278	27336	955282	37998	106110	0	0	8174	758186	0	0
2024-04-27 14:00:32			0	34035	0	0	0	16851	15550	154346	27469	955300	37986	106103	0	0	8174	758584	0	0
2024-04-27 14:01:32			0	34006	0	0	0	16857	15540	154378	27166	955318	37997	106105	0	0	8172	760066	0	0
2024-04-27 14:02:32			0	34005	0	0	0	16872	15530	154458	27237	955276	37996	106111	0	0	8172	760157	0	0
2024-04-27 14:03:32			0	34006	0	0	0	16890	15530	154558	27223	955302	37985	106118	0	0	8172	760107	0	0
2024-04-27 14:04:32			0	33992	0	0	0	16901	15530	154482	27395	955302	37985	106122	0	0	8171	760804	0	0
2024-04-27 14:05:32			0	34011	0	0	0	16888	15520	154514	27324	955207	37995	106117	0	0	8172	759899	0	0
2024-04-27 14:06:32			0	34013	0	0	0	16872	15530	154546	27651	955241	37995	106111	0	0	8172	759759	0	0
2024-04-27 14:07:32			0	33999	0	0	0	16922	15540	154554	27940	955284	37996	106130	0	0	8171	760414	0	0
2024-04-27 14:08:32			0	34014	0	0	0	16927	15530	154570	27478	955241	38017	106132	0	0	8171	759709	0	0
2024-04-27 14:09:32			0	34019	0	0	0	16919	15530	154530	27809	955276	37996	106129	0	0	8172	759460	0	0
2024-04-27 14:10:32			0	34012	0	0	0	16937	15540	154582	27781	955292	37997	106136	0	0	8171	759768	0	0
2024-04-27 14:11:32			0	34017	0	0	0	16942	15540	154562	27840	955397	38007	106138	0	0	8171	759519	0	0
2024-04-27 14:12:32			0	34029	0	0	0	16958	15550	154374	27412	955405	38007	106144	0	0	8172	758882	0	0
2024-04-27 14:13:32			0	34033	0	0	0	16916	15550	154370	27452	955353	37997	106128	0	0	8173	758683	0	0
2024-04-27 14:14:32			0	34040	0	0	0	16916	15550	154382	27301	955458	38007	106128	0	0	8173	758335	0	0
2024-04-27 14:15:32			0	34036	0	0	0	16911	15550	154430	27634	955387	37998	106126	0	0	8173	758534	0	0
2024-04-27 14:16:32			0	34042	0	0	0	16919	15550	154390	27767	955440	37998	106129	0	0	8173	758236	0	0
2024-04-27 14:17:32			0	34014	0	0	0	16916	15550	154426	27781	955379	38007	106128	0	0	8172	759627	0	0
2024-04-27 14:18:32			0	34021	0	0	0	16919	15550	154418	27755	955387	37998	106129	0	0	8172	759279	0	0
2024-04-27 14:19:32			0	34017	0	0	0	16919	15550	154414	27795	955387	37998	106129	0	0	8172	759478	0	0
2024-04-27 14:20:32			0	34007	0	0	0	16898	15550	154434	27888	955353	37997	106121	0	0	8172	759975	0	0
2024-04-27 14:21:32			0	33996	0	0	0	16916	15550	154482	27594	955387	37998	106128	0	0	8171	760523	0	0
2024-04-27 14:22:32			0	34020	0	0	0	16916	15560	154494	27476	955422	37998	106128	0	0	8172	759288	0	0
2024-04-27 14:23:32			0	34003	0	0	0	16911	15550	154550	27383	955308	37998	106126	0	0	8171	760174	0	0
2024-04-27 14:24:32			0	33997	0	0	0	16916	15550	154538	27481	955361	38019	106128	0	0	8171	760473	0	0
2024-04-27 14:25:32			0	34005	0	0	0	16914	15550	154526	27814	955440	37998	106127	0	0	8171	760075	0	0
2024-04-27 14:26:32			0	33982	0	0	0	16927	15550	154530	27821	955326	38018	106132	0	0	8170	761220	0	0
2024-04-27 14:27:32			0	33982	0	0	0	16927	15560	154538	27977	955395	37998	106132	0	0	8170	761179	0	0
2024-04-27 14:28:32			0	33994	0	0	0	16940	15550	154590	28124	955405	38018	106137	0	0	8170	760622	0	0
2024-04-27 14:29:32			0	33994	0	0	0	16948	15550	154562	27869	955432	38007	106140	0	0	8170	760622	0	0
2024-04-27 14:30:32			0	34000	0	0	0	16958	15560	154570	27736	955456	37999	106144	0	0	8170	760283	0	0
2024-04-27 14:31:32			0	33992	0	0	0	16958	15580	154530	27471	955559	38032	106144	0	0	8170	760599	0	0
2024-04-27 14:32:32			0	33996	0	0	0	16942	15570	154522	27942	955543	38010	106138	0	0	8170	760441	0	0
2024-04-27 14:33:32			0	33990	0	0	0	16948	15570	154462	27852	955464	38000	106140	0	0	8170	760739	0	0
2024-04-27 14:34:32			0	34005	0	0	0	16945	15560	154526	27878	955456	38009	106139	0	0	8171	760034	0	0
2024-04-27 14:35:32			0	34017	0	0	0	16953	15570	154594	27729	955517	38010	106142	0	0	8171	759396	0	0
2024-04-27 14:36:32			0	34014	0	0	0	16974	15570	154534	27460	955517	38000	106150	0	0	8171	759545	0	0
2024-04-27 14:37:32			0	34010	0	0	0	16971	15580	154506	27809	955515	37989	106149	0	0	8171	759704	0	0
2024-04-27 14:38:32			0	34002	0	0	0	16979	15580	154526	27614	955568	38000	106152	0	0	8170	760101	0	0
2024-04-27 14:39:32			0	34010	0	0	0	16997	15590	154598	27509	955602	38011	106159	0	0	8170	759663	0	0
2024-04-27 14:40:32			0	34019	0	0	0	16986	15600	154582	27956	955592	38012	106155	0	0	8171	759174	0	0
2024-04-27 14:41:32			0	34008	0	0	0	16992	15590	154558	27625	955602	38011	106157	0	0	8170	759762	0	0
2024-04-27 14:42:32			0	34009	0	0	0	16994	15610	154478	27720	955661	38024	106158	0	0	8170	759631	0	0
2024-04-27 14:43:32			0	34020	0	0	0	16994	15600	154482	27637	955619	38034	106158	0	0	8171	759125	0	0
2024-04-27 14:44:32			0	34024	0	0	0	17010	15610	154478	27800	955714	38002	106164	0	0	8171	758885	0	0
2024-04-27 14:45:32			0	34026	0	0	0	17010	15620	154526	27663	955748	38003	106164	0	0	8171	758745	0	0
2024-04-27 14:46:32			0	34034	0	0	0	17005	15620	154434	27634	955730	38003	106162	0	0	8172	758347	0	0
2024-04-27 14:47:32			0	34028	0	0	0	16999	15630	154322	28152	955686	37993	106160	0	0	8171	758605	0	0
2024-04-27 14:48:32			0	34031	0	0	0	16997	15630	154278	27819	955739	38003	106159	0	0	8172	758456	0	0
2024-04-27 14:49:32			0	34040	0	0	0	16986	15640	154290	27909	955755	38027	106155	0	0	8172	757968	0	0
2024-04-27 14:50:32			0	34048	0	0	0	16963	15630	154242	27744	955668	38015	106146	0	0	8173	757612	0	0
2024-04-27 14:51:32			0	34045	0	0	0	16976	15640	154306	27852	955763	38005	106151	0	0	8173	757720	0	0
2024-04-27 14:52:32			0	34051	0	0	0	16958	15620	154382	27786	955643	38036	106144	0	0	8173	757504	0	0
2024-04-27 14:53:32			0	34044	0	0	0	16989	15640	154242	28044	955702	38005	106156	0	0	8173	757770	0	0
2024-04-27 14:54:32			0	34033	0	0	0	16989	15650	154222	27670	955745	38016	106156	0	0	8172	758275	0	0
2024-04-27 14:55:32			0	34049	0	0	0	16981	15640	154270	27842	955763	38016	106153	0	0	8173	757521	0	0
2024-04-27 14:56:32			0	34056	0	0	0	17005	15650	154154	27923	955727	38005	106162	0	0	8173	757133	0	0
2024-04-27 14:57:32			0	34062	0	0	0	17005	15650	154114	27979	955806	38005	106162	0	0	8173	756836	0	0
2024-04-27 14:58:32			0	34060	0	0	0	17023	15650	154106	27568	955832	38016	106169	0	0	8173	756935	0	0
2024-04-27 14:59:32			0	34072	0	0	0	17041	15660	154122	28055	955875	38017	106176	0	0	8173	756300	0	0
2024-04-27 15:00:32			0	34069	0	0	0	17015	15650	154190	27717	955911	38005	106166	0	0	8174	756489	0	0
2024-04-27 15:01:32			0	34069	0	0	0	17015	15660	154142	27916	955875	38017	106166	0	0	8174	756448	0	0
2024-04-27 15:02:32			0	34068	0	0	0	17031	15680	154082	27490	955907	38031	106172	0	0	8173	756416	0	0
2024-04-27 15:03:32			0	34072	0	0	0	17015	15680	154058	27724	955907	38041	106166	0	0	8174	756218	0	0
2024-04-27 15:04:32			0	34097	0	0	0	16992	15670	153994	27400	955944	38029	106157	0	0	8176	755021	0	0
2024-04-27 15:05:32			0	34087	0	0	0	16999	15680	154070	27637	955820	38008	106160	0	0	8175	755475	0	0
2024-04-27 15:06:32			0	34087	0	0	0	16999	15670	153910	27460	955786	38007	106160	0	0	8175	755516	0	0
2024-04-27 15:07:32			0	34089	0	0	0	16999	15670	153906	27293	955725	38017	106160	0	0	8175	755417	0	0
2024-04-27 15:08:32			0	34090	0	0	0	17002	15670	153902	27658	955865	38029	106161	0	0	8175	755367	0	0
2024-04-27 15:09:32			0	34096	0	0	0	17015	15670	153914	27814	955838	38018	106166	0	0	8175	755070	0	0
2024-04-27 15:10:32			0	34118	0	0	0	17018	15670	153862	27533	955891	38018	106167	0	0	8177	753982	0	0
2024-04-27 15:11:32			0	34106	0	0	0	17072	15670	153842	27540	955865	38018	106188	0	0	8175	754576	0	0
2024-04-27 15:12:32			0	34142	0	0	0	17088	15680	153766	27940	955986	38020	106194	0	0	8177	752756	0	0
2024-04-27 15:13:32			0	34123	0	0	0	17088	15700	153714	27812	956063	38010	106194	0	0	8176	753614	0	0
2024-04-27 15:14:32			0	34147	0	0	0	17051	15700	153706	27630	956011	38021	106180	0	0	8178	752429	0	0
2024-04-27 15:15:32			0	34144	0	0	0	17044	15710	153730	27928	956053	38033	106177	0	0	8178	752536	0	0
2024-04-27 15:16:32			0	34120	0	0	0	17044	15710	153686	27687	956027	38043	106177	0	0	8176	753721	0	0
2024-04-27 15:17:32			0	34155	0	0	0	17077	15700	153670	27947	956045	38010	106190	0	0	8178	752034	0	0
2024-04-27 15:18:32			0	34132	0	0	0	17083	15710	153730	27819	956140	38033	106192	0	0	8176	753128	0	0
2024-04-27 15:19:32			0	34161	0	0	0	17096	15710	153734	27966	956132	38022	106197	0	0	8178	751698	0	0
2024-04-27 15:20:32			0	34163	0	0	0	17111	15720	153682	27600	956122	38033	106203	0	0	8178	751558	0	0
2024-04-27 15:21:32			0	34158	0	0	0	17103	15730	153650	27625	956217	38023	106200	0	0	8178	751764	0	0
2024-04-27 15:22:32			0	34160	0	0	0	17085	15730	153714	28043	956252	38034	106193	0	0	8178	751666	0	0
2024-04-27 15:23:32			0	34183	0	0	0	17064	15740	153586	27663	956216	38046	106185	0	0	8180	750492	0	0
2024-04-27 15:24:32			0	34155	0	0	0	17059	15730	153614	27838	956147	38012	106183	0	0	8178	751912	0	0
2024-04-27 15:25:32			0	34169	0	0	0	17077	15740	153590	27672	956181	38035	106190	0	0	8179	751182	0	0
2024-04-27 15:26:32			0	34174	0	0	0	17111	15740	153598	27916	956155	38035	106203	0	0	8179	750935	0	0
2024-04-27 15:27:32			0	34175	0	0	0	17109	15740	153462	27680	956189	38046	106202	0	0	8179	750886	0	0
2024-04-27 15:28:32			0	34197	0	0	0	17114	15750	153594	27554	956180	38015	106204	0	0	8180	749763	0	0
2024-04-27 15:29:32			0	34201	0	0	0	17093	15740	153462	27845	956242	38025	106196	0	0	8180	749606	0	0
2024-04-27 15:30:32			0	34211	0	0	0	17124	15740	153414	27864	956242	38036	106208	0	0	8180	749114	0	0
2024-04-27 15:31:32			0	34207	0	0	0	17132	15750	153434	27930	956311	38037	106211	0	0	8180	749271	0	0
2024-04-27 15:32:32			0	34207	0	0	0	17140	15740	153470	27588	956242	38025	106214	0	0	8180	749311	0	0
2024-04-27 15:33:32			0	34202	0	0	0	17158	15770	153426	27469	956309	38016	106221	0	0	8180	749436	0	0
2024-04-27 15:34:32			0	34211	0	0	0	17161	15770	153302	27835	956344	38039	106222	0	0	8180	748993	0	0
2024-04-27 15:35:32			0	34228	0	0	0	17171	15770	153342	27440	956388	38039	106226	0	0	8181	748158	0	0
2024-04-27 15:36:32			0	34234	0	0	0	17184	15780	153366	27670	956431	38039	106231	0	0	8181	747823	0	0
2024-04-27 15:37:32			0	34253	0	0	0	17189	15780	153322	27403	956405	38049	106233	0	0	8182	746890	0	0
2024-04-27 15:38:32			0	34254	0	0	0	17212	15790	153134	27821	956508	38050	106242	0	0	8182	746801	0	0
2024-04-27 15:39:32			0	34247	0	0	0	17194	15790	153074	27958	956561	38040	106235	0	0	8182	747144	0	0
2024-04-27 15:40:32			0	34254	0	0	0	17202	15810	153050	27987	956532	38063	106238	0	0	8182	746720	0	0
2024-04-27 15:41:32			0	34279	0	0	0	17199	15810	153106	27920	956585	38052	106237	0	0	8183	745495	0	0
2024-04-27 15:42:32			0	34279	0	0	0	17189	15820	153086	27685	956628	38042	106233	0	0	8184	745455	0	0
2024-04-27 15:43:32			0	34268	0	0	0	17181	15830	153150	27812	956565	38065	106230	0	0	8183	745954	0	0
2024-04-27 15:44:32			0	34264	0	0	0	17171	15820	153042	28020	956575	38042	106226	0	0	8183	746190	0	0
2024-04-27 15:45:32			0	34244	0	0	0	17181	15820	153174	27845	956557	38053	106230	0	0	8182	747171	0	0
2024-04-27 15:46:32			0	34260	0	0	0	17192	15830	153074	27634	956565	38032	106234	0	0	8183	746346	0	0
2024-04-27 15:47:32			0	34270	0	0	0	17197	15840	153038	27668	956634	38055	106236	0	0	8183	745815	0	0
2024-04-27 15:48:32			0	34250	0	0	0	17199	15830	153106	27725	956652	38055	106237	0	0	8182	746836	0	0
2024-04-27 15:49:32			0	34258	0	0	0	17212	15840	153074	28025	956687	38055	106242	0	0	8182	746404	0	0
2024-04-27 15:50:32			0	34267	0	0	0	17205	15840	153026	27661	956660	38033	106239	0	0	8183	745962	0	0
2024-04-27 15:51:32			0	34274	0	0	0	17199	15840	153014	28065	956616	38055	106237	0	0	8183	745620	0	0
2024-04-27 15:52:32			0	34276	0	0	0	17199	15850	153022	27848	956598	38055	106237	0	0	8183	745481	0	0
2024-04-27 15:53:32			0	34260	0	0	0	17212	15850	153066	27739	956632	38045	106242	0	0	8182	746265	0	0
2024-04-27 15:54:32			0	34254	0	0	0	17220	15850	153026	27711	956677	38044	106245	0	0	8182	746559	0	0
2024-04-27 15:55:32			0	34257	0	0	0	17205	15860	153066	27864	956667	38056	106239	0	0	8182	746372	0	0
2024-04-27 15:56:32			0	34279	0	0	0	17197	15870	152918	28081	956683	38046	106236	0	0	8184	745254	0	0
2024-04-27 15:57:32			0	34274	0	0	0	17166	15870	152950	27505	956630	38046	106224	0	0	8184	745499	0	0
2024-04-27 15:58:32			0	34285	0	0	0	17119	15850	152890	27982	956624	38023	106206	0	0	8185	745041	0	0
2024-04-27 15:59:32			0	34250	0	0	0	17077	15850	152986	27625	956579	38045	106190	0	0	8184	746756	0	0
2024-04-27 16:00:32			0	34271	0	0	0	17093	15840	153034	27923	956450	38011	106196	0	0	8185	745766	0	0
2024-04-27 16:01:32			0	34258	0	0	0	17119	15840	153050	27588	956529	38033	106206	0	0	8184	746404	0	0
2024-04-27 16:02:32			0	34255	0	0	0	17122	15830	153022	27963	956486	38054	106207	0	0	8183	746591	0	0
2024-04-27 16:03:32			0	34258	0	0	0	17090	15830	152974	27677	956460	38032	106195	0	0	8184	746444	0	0
2024-04-27 16:04:32			0	34254	0	0	0	17093	15820	153102	27725	956399	38032	106196	0	0	8184	746680	0	0
2024-04-27 16:05:32			0	34243	0	0	0	17098	15820	153130	27940	956391	38020	106198	0	0	8183	747220	0	0
2024-04-27 16:06:32			0	34256	0	0	0	17083	15800	153218	27942	956366	38030	106192	0	0	8184	746663	0	0
2024-04-27 16:07:32			0	34246	0	0	0	17093	15800	153158	27717	956419	38008	106196	0	0	8183	747153	0	0
2024-04-27 16:08:32			0	34249	0	0	0	17090	15810	153070	27737	956401	38031	106195	0	0	8184	746966	0	0
2024-04-27 16:09:32			0	34238	0	0	0	17124	15810	153150	27972	956506	38031	106208	0	0	8182	747505	0	0
2024-04-27 16:10:32			0	34246	0	0	0	17132	15820	153194	27535	956425	38042	106211	0	0	8183	747073	0	0
2024-04-27 16:11:32			0	34258	0	0	0	17145	15810	153122	27881	956462	38032	106216	0	0	8183	746524	0	0
2024-04-27 16:12:32			0	34257	0	0	0	17109	15810	153070	27817	956514	38032	106202	0	0	8184	746573	0	0
2024-04-27 16:13:32			0	34270	0	0	0	17090	15810	152994	27576	956409	38042	106195	0	0	8185	745936	0	0
2024-04-27 16:14:32			0	34267	0	0	0	17067	15810	152938	27881	956383	38020	106186	0	0	8185	746083	0	0
2024-04-27 16:15:32			0	34282	0	0	0	17070	15790	153026	27850	956297	38029	106187	0	0	8186	745428	0	0
2024-04-27 16:16:32			0	34254	0	0	0	17077	15800	153042	28164	956305	38029	106190	0	0	8184	746761	0	0
2024-04-27 16:17:32			0	34258	0	0	0	17088	15790	153014	28044	956245	38029	106194	0	0	8184	746605	0	0
2024-04-27 16:18:32			0	34257	0	0	0	17098	15780	153082	27720	956281	38017	106198	0	0	8184	746694	0	0
2024-04-27 16:19:32			0	34247	0	0	0	17111	15790	152970	27734	956342	38040	106203	0	0	8183	747144	0	0
2024-04-27 16:20:32			0	34264	0	0	0	17124	15790	153098	28173	956342	38018	106208	0	0	8184	746311	0	0
2024-04-27 16:21:32			0	34260	0	0	0	17122	15790	153010	28124	956421	38050	106207	0	0	8184	746507	0	0
2024-04-27 16:22:32			0	34247	0	0	0	17124	15790	153010	27904	956315	38029	106208	0	0	8183	747144	0	0
2024-04-27 16:23:32			0	34271	0	0	0	17111	15790	153102	28017	956395	38029	106203	0	0	8184	745967	0	0
2024-04-27 16:24:32			0	34276	0	0	0	17114	15790	153014	27852	956342	38040	106204	0	0	8185	745722	0	0
2024-04-27 16:25:32			0	34269	0	0	0	17119	15790	153002	27874	956315	38040	106206	0	0	8184	746065	0	0
2024-04-27 16:26:32			0	34270	0	0	0	17114	15790	152986	28088	956376	38007	106204	0	0	8184	746016	0	0
2024-04-27 16:27:32			0	34247	0	0	0	17116	15790	153062	27904	956342	38029	106205	0	0	8183	747144	0	0
2024-04-27 16:28:32			0	34263	0	0	0	17132	15790	153006	27788	956403	38040	106211	0	0	8184	746360	0	0
2024-04-27 16:29:32			0	34254	0	0	0	17140	15790	153022	28140	956368	38018	106214	0	0	8183	746801	0	0
2024-04-27 16:30:32			0	34264	0	0	0	17140	15790	153050	27951	956421	38040	106214	0	0	8183	746311	0	0
2024-04-27 16:31:32			0	34272	0	0	0	17137	15790	153054	28015	956376	38040	106213	0	0	8184	745918	0	0
2024-04-27 16:32:32			0	34260	0	0	0	17158	15800	152990	27864	956463	38040	106221	0	0	8183	746467	0	0
2024-04-27 16:33:32			0	34271	0	0	0	17171	15810	153006	28175	956462	38032	106226	0	0	8183	745887	0	0
2024-04-27 16:34:32			0	34286	0	0	0	17161	15810	152878	27599	956532	38052	106222	0	0	8184	745152	0	0
2024-04-27 16:35:32			0	34303	0	0	0	17220	15810	152954	27982	956532	38041	106245	0	0	8184	744320	0	0
2024-04-27 16:36:32			0	34302	0	0	0	17220	15820	152850	28277	956636	38042	106245	0	0	8184	744329	0	0
2024-04-27 16:37:32			0	34313	0	0	0	17171	15830	152642	27661	956644	38043	106226	0	0	8186	743751	0	0
2024-04-27 16:38:32			0	34314	0	0	0	17251	15840	152842	28031	956660	38055	106257	0	0	8185	743662	0	0
2024-04-27 16:39:32			0	34308	0	0	0	17264	15840	152766	27647	956774	38055	106262	0	0	8184	743955	0	0
2024-04-27 16:40:32			0	34318	0	0	0	17309	15850	152798	28055	956843	38045	106279	0	0	8184	743426	0	0
2024-04-27 16:41:32			0	34316	0	0	0	17324	15870	152846	28055	956894	38057	106285	0	0	8184	743444	0	0
2024-04-27 16:42:32			0	34322	0	0	0	17345	15890	152834	27640	956945	38070	106293	0	0	8184	743071	0	0
2024-04-27 16:43:32			0	34327	0	0	0	17345	15900	152670	27793	956995	38060	106293	0	0	8184	742786	0	0
2024-04-27 16:44:32			0	34348	0	0	0	17337	15910	152651	28011	957056	38060	106290	0	0	8186	741721	0	0
2024-04-27 16:45:32			0	34354	0	0	0	17316	15930	152631	28027	957063	38062	106282	0	0	8186	741349	0	0
2024-04-27 16:46:32			0	34347	0	0	0	17309	15920	152603	28122	957046	38072	106279	0	0	8186	741730	0	0
2024-04-27 16:47:32			0	34354	0	0	0	17324	15940	152747	27933	957105	38052	106285	0	0	8186	741309	0	0
2024-04-27 16:48:32			0	34347	0	0	0	17322	15940	152647	28058	957061	38075	106284	0	0	8186	741650	0	0
2024-04-27 16:49:32			0	34320	0	0	0	17322	15940	152746	28483	957113	38053	106284	0	0	8184	742968	0	0
2024-04-27 16:50:32			0	34316	0	0	0	17322	15950	152698	27859	957095	38075	106284	0	0	8184	743123	0	0
2024-04-27 16:51:32			0	34323	0	0	0	17332	15950	152766	27888	957051	38076	106288	0	0	8184	742781	0	0
2024-04-27 16:52:32			0	34305	0	0	0	17335	15960	152754	27918	957093	38054	106289	0	0	8183	743621	0	0
2024-04-27 16:53:32			0	34298	0	0	0	17337	15960	152746	28031	957067	38065	106290	0	0	8183	743963	0	0
2024-04-27 16:54:32			0	34294	0	0	0	17342	15960	152826	28164	957120	38077	106292	0	0	8183	744159	0	0
2024-04-27 16:55:32			0	34276	0	0	0	17350	15970	152870	28006	957154	38065	106295	0	0	8181	744999	0	0
2024-04-27 16:56:32			0	34276	0	0	0	17353	15970	152934	28069	957162	38077	106296	0	0	8181	744999	0	0
2024-04-27 16:57:32			0	34262	0	0	0	17350	15970	152906	27642	957154	38065	106295	0	0	8181	745685	0	0
2024-04-27 16:58:32			0	34265	0	0	0	17358	15980	152790	28081	957223	38088	106298	0	0	8181	745497	0	0
2024-04-27 16:59:32			0	34273	0	0	0	17368	15990	152882	27959	957195	38068	106302	0	0	8181	745066	0	0
2024-04-27 17:00:32			0	34287	0	0	0	17368	15980	152818	27512	957258	38088	106302	0	0	8182	744421	0	0
2024-04-27 17:01:32			0	34311	0	0	0	17371	15990	152730	27973	957248	38089	106303	0	0	8183	743207	0	0
2024-04-27 17:02:32			0	34312	0	0	0	17355	16000	152690	27894	957256	38079	106297	0	0	8184	743118	0	0
2024-04-27 17:03:32			0	34329	0	0	0	17342	16000	152646	28062	957256	38068	106292	0	0	8185	742288	0	0
2024-04-27 17:04:32			0	34329	0	0	0	17350	16010	152566	28263	957246	38070	106295	0	0	8185	742248	0	0
2024-04-27 17:05:32			0	34350	0	0	0	17350	16000	152447	28377	957203	38068	106295	0	0	8186	741264	0	0
2024-04-27 17:06:32			0	34346	0	0	0	17342	16000	152486	27890	957211	38069	106292	0	0	8186	741459	0	0
2024-04-27 17:07:32			0	34349	0	0	0	17345	16000	152458	28168	957238	38080	106293	0	0	8186	741313	0	0
2024-04-27 17:08:32			0	34353	0	0	0	17345	16010	152486	28497	957272	38081	106293	0	0	8186	741078	0	0
2024-04-27 17:09:32			0	34345	0	0	0	17337	16020	152458	28289	957315	38071	106290	0	0	8186	741427	0	0
2024-04-27 17:10:32			0	34325	0	0	0	17348	16000	152646	28454	957211	38080	106294	0	0	8184	742483	0	0
2024-04-27 17:11:32			0	34334	0	0	0	17342	16010	152542	27861	957272	38081	106292	0	0	8185	742004	0	0
2024-04-27 17:12:32			0	34312	0	0	0	17363	16010	152618	27939	957325	38091	106300	0	0	8183	743078	0	0
2024-04-27 17:13:32			0	34300	0	0	0	17358	16010	152570	27805	957307	38070	106298	0	0	8183	743665	0	0
2024-04-27 17:14:32			0	34285	0	0	0	17371	16010	152670	28046	957272	38070	106303	0	0	8182	744398	0	0
2024-04-27 17:15:32			0	34299	0	0	0	17374	16000	152634	27989	957317	38069	106304	0	0	8183	743754	0	0
2024-04-27 17:16:32			0	34308	0	0	0	17374	16020	152634	28036	957341	38071	106304	0	0	8183	743234	0	0
2024-04-27 17:17:32			0	34302	0	0	0	17376	16030	152626	28062	957410	38071	106305	0	0	8183	743487	0	0
2024-04-27 17:18:32			0	34326	0	0	0	17392	16020	152546	28175	957349	38082	106311	0	0	8184	742355	0	0
2024-04-27 17:19:32			0	34330	0	0	0	17384	16030	152634	28152	957392	38082	106308	0	0	8184	742119	0	0
2024-04-27 17:20:32			0	34314	0	0	0	17384	16030	152590	28107	957392	38071	106308	0	0	8183	742900	0	0
2024-04-27 17:21:32			0	34316	0	0	0	17397	16040	152558	27895	957374	38083	106313	0	0	8183	742763	0	0
2024-04-27 17:22:32			0	34330	0	0	0	17405	16030	152442	27845	957437	38082	106316	0	0	8184	742119	0	0
2024-04-27 17:23:32			0	34329	0	0	0	17405	16040	152466	27727	957479	38083	106316	0	0	8184	742128	0	0
2024-04-27 17:24:32			0	34336	0	0	0	17397	16050	152378	28168	957477	38083	106313	0	0	8184	741747	0	0
2024-04-27 17:25:32			0	34353	0	0	0	17405	16060	152351	27836	957512	38084	106316	0	0	8185	740878	0	0
2024-04-27 17:26:32			0	34351	0	0	0	17410	16050	152311	27708	957451	38083	106318	0	0	8185	741015	0	0
2024-04-27 17:27:32			0	34365	0	0	0	17402	16060	152363	27933	957512	38095	106315	0	0	8186	740293	0	0
2024-04-27 17:28:32			0	34377	0	0	0	17386	16060	152239	28280	957459	38084	106309	0	0	8187	739709	0	0
2024-04-27 17:29:32			0	34414	0	0	0	17381	16060	152163	28057	957486	38084	106307	0	0	8189	737910	0	0
2024-04-27 17:30:32			0	34421	0	0	0	17394	16050	151975	28022	957425	38083	106312	0	0	8189	737609	0	0
2024-04-27 17:31:32			0	34420	0	0	0	17394	16050	152067	27947	957451	38073	106312	0	0	8189	737658	0	0
2024-04-27 17:32:32			0	34430	0	0	0	17386	16050	152039	27552	957425	38083	106309	0	0	8190	737172	0	0
2024-04-27 17:33:32			0	34436	0	0	0	17392	16050	151987	27907	957443	38083	106311	0	0	8190	736881	0	0
2024-04-27 17:34:32			0	34439	0	0	0	17425	16050	151955	27760	957530	38094	106324	0	0	8190	736736	0	0
2024-04-27 17:35:32			0	34446	0	0	0	17410	16060	151923	27802	957520	38074	106318	0	0	8191	736356	0	0
2024-04-27 17:36:32			0	34448	0	0	0	17415	16070	151955	27635	957528	38075	106320	0	0	8191	736219	0	0
2024-04-27 17:37:32			0	34479	0	0	0	17423	16070	151919	27959	957563	38076	106323	0	0	8192	734717	0	0
2024-04-27 17:38:32			0	34469	0	0	0	17423	16070	151827	27589	957563	38086	106323	0	0	8192	735202	0	0
2024-04-27 17:39:32			0	34449	0	0	0	17412	16070	151799	27866	957510	38086	106319	0	0	8191	736171	0	0
2024-04-27 17:40:32			0	34443	0	0	0	17420	16070	151887	27537	957484	38086	106322	0	0	8190	736462	0	0
2024-04-27 17:41:32			0	34430	0	0	0	17420	16070	152039	27533	957528	38096	106322	0	0	8190	737093	0	0
2024-04-27 17:42:32			0	34419	0	0	0	17420	16070	152119	27391	957536	38086	106322	0	0	8189	737627	0	0
2024-04-27 17:43:32			0	34441	0	0	0	17415	16070	151947	27883	957563	38086	106320	0	0	8190	736559	0	0
2024-04-27 17:44:32			0	34448	0	0	0	17418	16080	151827	27973	957571	38086	106321	0	0	8191	736180	0	0
2024-04-27 17:45:32			0	34454	0	0	0	17431	16080	151919	28376	957597	38064	106326	0	0	8191	735889	0	0
2024-04-27 17:46:32			0	34452	0	0	0	17412	16080	151919	28034	957526	38098	106319	0	0	8191	735986	0	0
2024-04-27 17:47:32			0	34457	0	0	0	17420	16070	151951	28102	957589	38086	106322	0	0	8191	735783	0	0
2024-04-27 17:48:32			0	34443	0	0	0	17431	16080	151963	27817	957571	38076	106326	0	0	8190	736422	0	0
2024-04-27 17:49:32			0	34434	0	0	0	17436	16080	152003	27763	957624	38097	106328	0	0	8190	736859	0	0
2024-04-27 17:50:32			0	34441	0	0	0	17431	16080	151899	27965	957605	38076	106326	0	0	8190	736519	0	0
2024-04-27 17:51:32			0	34438	0	0	0	17449	16080	151971	28201	957605	38098	106333	0	0	8190	736665	0	0
2024-04-27 17:52:32			0	34433	0	0	0	17449	16090	151995	28010	957587	38098	106333	0	0	8189	736868	0	0
2024-04-27 17:53:32			0	34456	0	0	0	17444	16090	151919	27959	957693	38086	106331	0	0	8191	735752	0	0
2024-04-27 17:54:32			0	34462	0	0	0	17428	16090	151915	27942	957595	38099	106325	0	0	8191	735461	0	0
2024-04-27 17:55:32			0	34477	0	0	0	17425	16080	151787	28011	957571	38086	106324	0	0	8192	734775	0	0
2024-04-27 17:56:32			0	34481	0	0	0	17402	16080	151875	27757	957597	38076	106315	0	0	8193	734581	0	0
2024-04-27 17:57:32			0	34467	0	0	0	17397	16090	151803	28022	957534	38076	106313	0	0	8192	735219	0	0
2024-04-27 17:58:32			0	34489	0	0	0	17410	16080	151779	27847	957571	38076	106318	0	0	8193	734194	0	0
2024-04-27 17:59:32			0	34478	0	0	0	17418	16090	151771	27850	957587	38076	106321	0	0	8192	734687	0	0
2024-04-27 18:00:32			0	34490	0	0	0	17423	16080	151763	27717	957579	38086	106323	0	0	8193	734145	0	0
2024-04-27 18:01:32			0	34492	0	0	0	17412	16080	151791	27578	957579	38076	106319	0	0	8193	734049	0	0
2024-04-27 18:02:32			0	34507	0	0	0	17402	16080	151771	27715	957553	38086	106315	0	0	8194	733323	0	0
2024-04-27 18:03:32			0	34512	0	0	0	17397	16070	151595	27538	957484	38076	106313	0	0	8195	733121	0	0
2024-04-27 18:04:32			0	34543	0	0	0	17374	16070	151627	27881	957484	38076	106304	0	0	8197	731624	0	0
2024-04-27 18:05:32			0	34509	0	0	0	17363	16070	151607	27946	957475	38075	106300	0	0	8195	733266	0	0
2024-04-27 18:06:32			0	34506	0	0	0	17366	16060	151663	27682	957467	38063	106301	0	0	8195	733451	0	0
2024-04-27 18:07:32			0	34531	0	0	0	17392	16060	151639	27569	957441	38084	106311	0	0	8196	732243	0	0
2024-04-27 18:08:32			0	34513	0	0	0	17374	16060	151563	27305	957467	38074	106304	0	0	8195	733112	0	0
2024-04-27 18:09:32			0	34525	0	0	0	17371	16060	151599	27578	957467	38074	106303	0	0	8196	732532	0	0
2024-04-27 18:10:32			0	34529	0	0	0	17355	16060	151607	27500	957433	38074	106297	0	0	8196	732339	0	0
2024-04-27 18:11:32			0	34500	0	0	0	17353	16050	151651	27445	957398	38073	106296	0	0	8195	733780	0	0
2024-04-27 18:12:32			0	34520	0	0	0	17355	16030	151643	28029	957313	38060	106297	0	0	8196	732892	0	0
2024-04-27 18:13:32			0	34523	0	0	0	17340	16030	151623	27644	957366	38071	106291	0	0	8196	732748	0	0
2024-04-27 18:14:32			0	34510	0	0	0	17358	16040	151615	27961	957321	38093	106298	0	0	8195	733336	0	0
2024-04-27 18:15:32			0	34544	0	0	0	17358	16040	151543	27878	957382	38072	106298	0	0	8197	731694	0	0
2024-04-27 18:16:32			0	34520	0	0	0	17355	16040	151579	27883	957374	38083	106297	0	0	8196	732853	0	0
2024-04-27 18:17:32			0	34517	0	0	0	17348	16030	151599	27902	957366	38082	106294	0	0	8196	733038	0	0
2024-04-27 18:18:32			0	34509	0	0	0	17342	16030	151639	27677	957313	38071	106292	0	0	8195	733424	0	0
2024-04-27 18:19:32			0	34514	0	0	0	17340	16030	151639	27897	957279	38082	106291	0	0	8196	733183	0	0
2024-04-27 18:20:32			0	34497	0	0	0	17345	16030	151615	27685	957331	38082	106293	0	0	8194	734005	0	0
2024-04-27 18:21:32			0	34525	0	0	0	17348	16020	151607	27350	957297	38071	106294	0	0	8196	732690	0	0
2024-04-27 18:22:32			0	34514	0	0	0	17327	16020	151643	27607	957289	38071	106286	0	0	8196	733222	0	0
2024-04-27 18:23:32			0	34511	0	0	0	17329	16020	151611	27336	957218	38071	106287	0	0	8195	733367	0	0
2024-04-27 18:24:32			0	34501	0	0	0	17355	16010	151731	27334	957246	38070	106297	0	0	8194	733890	0	0
2024-04-27 18:25:32			0	34490	0	0	0	17389	16020	151859	27173	957315	38071	106310	0	0	8193	734383	0	0
2024-04-27 18:26:32			0	34492	0	0	0	17355	16010	151811	27374	957307	38081	106297	0	0	8194	734326	0	0
2024-04-27 18:27:32			0	34506	0	0	0	17355	16010	151755	27118	957280	38091	106297	0	0	8195	733648	0	0
2024-04-27 18:28:32			0	34491	0	0	0	17350	16010	151779	27445	957280	38081	106295	0	0	8194	734374	0	0
2024-04-27 18:29:32			0	34507	0	0	0	17350	16010	151671	27244	957272	38070	106295	0	0	8195	733600	0	0
2024-04-27 18:30:32			0	34498	0	0	0	17355	16010	151655	27289	957280	38081	106297	0	0	8194	734035	0	0
2024-04-27 18:31:32			0	34510	0	0	0	17358	16010	151655	27377	957254	38070	106298	0	0	8195	733455	0	0
2024-04-27 18:32:32			0	34532	0	0	0	17371	16010	151715	27327	957333	38081	106303	0	0	8196	732392	0	0
2024-04-27 18:33:32			0	34519	0	0	0	17371	16010	151631	27505	957333	38070	106303	0	0	8195	733020	0	0
2024-04-27 18:34:32			0	34534	0	0	0	17368	16020	151579	27326	957341	38071	106302	0	0	8196	732256	0	0
2024-04-27 18:35:32			0	34548	0	0	0	17386	16000	151439	27538	957264	38080	106309	0	0	8197	731659	0	0
2024-04-27 18:36:32			0	34568	0	0	0	17384	16020	151463	27717	957349	38082	106308	0	0	8198	730615	0	0
2024-04-27 18:37:32			0	34557	0	0	0	17386	16020	151407	27663	957262	38082	106309	0	0	8197	731146	0	0
2024-04-27 18:38:32			0	34563	0	0	0	17399	16020	151323	27549	957376	38092	106314	0	0	8197	730856	0	0
2024-04-27 18:39:32			0	34591	0	0	0	17405	16020	151351	27450	957315	38092	106316	0	0	8199	729507	0	0
2024-04-27 18:40:32			0	34579	0	0	0	17407	16030	151315	27592	957358	38093	106317	0	0	8198	730045	0	0
2024-04-27 18:41:32			0	34601	0	0	0	17410	16020	151327	27306	957376	38092	106318	0	0	8199	729025	0	0
2024-04-27 18:42:32			0	34592	0	0	0	17410	16030	151223	27261	957418	38071	106318	0	0	8199	729419	0	0
2024-04-27 18:43:32			0	34607	0	0	0	17407	16030	151355	27592	957410	38071	106317	0	0	8200	728697	0	0
2024-04-27 18:44:32			0	34619	0	0	0	17431	16030	151091	27727	957445	38093	106326	0	0	8200	728120	0	0
2024-04-27 18:45:32			0	34643	0	0	0	17467	16040	151079	27405	957514	38083	106340	0	0	8201	726927	0	0
2024-04-27 18:46:32			0	34647	0	0	0	17472	16050	151011	27130	957522	38094	106342	0	0	8201	726696	0	0
2024-04-27 18:47:32			0	34641	0	0	0	17483	16060	151075	27163	957644	38095	106346	0	0	8200	726945	0	0
2024-04-27 18:48:32			0	34650	0	0	0	17496	16060	151035	27454	957591	38095	106351	0	0	8201	726513	0	0
2024-04-27 18:49:32			0	34640	0	0	0	17485	16060	150975	27531	957678	38095	106347	0	0	8200	726993	0	0
2024-04-27 18:50:32			0	34685	0	0	0	17480	16070	150859	27260	957660	38096	106345	0	0	8203	724795	0	0
2024-04-27 18:51:32			0	34691	0	0	0	17477	16070	150791	27281	957581	38096	106344	0	0	8203	724508	0	0
2024-04-27 18:52:32			0	34700	0	0	0	17464	16080	150759	27133	957597	38097	106339	0	0	8204	724038	0	0
2024-04-27 18:53:32			0	34718	0	0	0	17467	16070	150623	27701	957615	38086	106340	0	0	8205	723215	0	0
2024-04-27 18:54:32			0	34724	0	0	0	17467	16080	150631	27402	957703	38108	106340	0	0	8205	722889	0	0
2024-04-27 18:55:32			0	34729	0	0	0	17472	16080	150627	27500	957658	38098	106342	0	0	8206	722650	0	0
2024-04-27 18:56:32			0	34697	0	0	0	17480	16080	150655	27685	957676	38097	106345	0	0	8204	724181	0	0
2024-04-27 18:57:32			0	34722	0	0	0	17488	16090	150539	27630	957693	38086	106348	0	0	8205	722946	0	0
2024-04-27 18:58:32			0	34717	0	0	0	17496	16090	150619	27287	957745	38098	106351	0	0	8205	723185	0	0
2024-04-27 18:59:32			0	34730	0	0	0	17493	16090	150643	27367	957614	38086	106350	0	0	8205	722564	0	0
2024-04-27 19:00:32			0	34738	0	0	0	17501	16090	150639	27789	957753	38110	106353	0	0	8206	722181	0	0
2024-04-27 19:01:32			0	34758	0	0	0	17498	16100	150491	27114	957691	38110	106352	0	0	8207	721187	0	0
2024-04-27 19:02:32			0	34771	0	0	0	17498	16100	150439	27300	957770	38099	106352	0	0	8208	720567	0	0
2024-04-27 19:03:32			0	34778	0	0	0	17509	16100	150407	27563	957762	38099	106356	0	0	8208	720233	0	0
2024-04-27 19:04:32			0	34784	0	0	0	17509	16100	150347	27391	957743	38099	106356	0	0	8208	719947	0	0
2024-04-27 19:05:32			0	34802	0	0	0	17511	16110	150295	27403	957831	38122	106357	0	0	8209	719051	0	0
2024-04-27 19:06:32			0	34818	0	0	0	17506	16120	150239	27265	957855	38101	106355	0	0	8210	718250	0	0
2024-04-27 19:07:32			0	34794	0	0	0	17501	16120	150351	27757	957768	38089	106353	0	0	8209	719393	0	0
2024-04-27 19:08:32			0	34777	0	0	0	17522	16120	150379	27469	957794	38100	106361	0	0	8208	720203	0	0
2024-04-27 19:09:32			0	34786	0	0	0	17511	16110	150439	27441	957760	38111	106357	0	0	8208	719813	0	0
2024-04-27 19:10:32			0	34772	0	0	0	17511	16120	150327	27447	957741	38100	106357	0	0	8208	720441	0	0
2024-04-27 19:11:32			0	34787	0	0	0	17511	16120	150335	27315	957829	38112	106357	0	0	8208	719726	0	0
2024-04-27 19:12:32			0	34790	0	0	0	17506	16130	150347	27235	957837	38101	106355	0	0	8209	719544	0	0
2024-04-27 19:13:32			0	34811	0	0	0	17511	16120	150219	27336	957821	38111	106357	0	0	8210	718583	0	0
2024-04-27 19:14:32			0	34828	0	0	0	17516	16110	150231	27272	957865	38089	106359	0	0	8211	717813	0	0
2024-04-27 19:15:32			0	34803	0	0	0	17514	16120	150143	27422	957803	38101	106358	0	0	8209	718964	0	0
2024-04-27 19:16:32			0	34796	0	0	0	17514	16120	150179	27341	957821	38089	106358	0	0	8209	719297	0	0
2024-04-27 19:17:32			0	34797	0	0	0	17509	16130	150307	27272	957845	38102	106356	0	0	8209	719211	0	0
2024-04-27 19:18:32			0	34794	0	0	0	17516	16130	150223	27507	957890	38112	106359	0	0	8209	719354	0	0
2024-04-27 19:19:32			0	34800	0	0	0	17514	16130	150235	27364	957872	38102	106358	0	0	8209	719068	0	0
2024-04-27 19:20:32			0	34806	0	0	0	17522	16140	150263	27493	957880	38124	106361	0	0	8209	718743	0	0
2024-04-27 19:21:32			0	34806	0	0	0	17522	16130	150203	27829	957898	38102	106361	0	0	8209	718782	0	0
2024-04-27 19:22:32			0	34803	0	0	0	17516	16130	150123	27770	957863	38101	106359	0	0	8209	718925	0	0
2024-04-27 19:23:32			0	34825	0	0	0	17511	16130	150091	27320	957863	38101	106357	0	0	8211	717878	0	0
2024-04-27 19:24:32			0	34853	0	0	0	17524	16130	149963	27479	957784	38112	106362	0	0	8212	716547	0	0
2024-04-27 19:25:32			0	34883	0	0	0	17516	16140	149979	27443	957853	38102	106359	0	0	8214	715085	0	0
2024-04-27 19:26:32			0	34872	0	0	0	17516	16140	149975	27197	957862	38114	106359	0	0	8213	715607	0	0
2024-04-27 19:27:32			0	34881	0	0	0	17514	16140	149919	27545	957853	38113	106358	0	0	8214	715180	0	0
2024-04-27 19:28:32			0	34884	0	0	0	17516	16130	149879	27246	957924	38113	106359	0	0	8214	715076	0	0
2024-04-27 19:29:32			0	34891	0	0	0	17519	16140	149911	27408	957880	38102	106360	0	0	8214	714706	0	0
2024-04-27 19:30:32			0	34881	0	0	0	17524	16130	149955	27381	957872	38113	106362	0	0	8214	715218	0	0
2024-04-27 19:31:32			0	34844	0	0	0	17519	16130	150119	27606	957863	38112	106360	0	0	8212	716975	0	0
2024-04-27 19:32:32			0	34825	0	0	0	17511	16130	150107	27531	957863	38090	106357	0	0	8211	717878	0	0
2024-04-27 19:33:32			0	34783	0	0	0	17514	16130	150303	27578	957898	38113	106358	0	0	8208	719878	0	0
2024-04-27 19:34:32			0	34772	0	0	0	17511	16140	150411	27301	957853	38113	106357	0	0	8208	720363	0	0
2024-04-27 19:35:32			0	34756	0	0	0	17519	16130	150347	27260	957811	38101	106360	0	0	8207	721166	0	0
2024-04-27 19:36:32			0	34759	0	0	0	17503	16120	150363	27319	957829	38112	106354	0	0	8207	721062	0	0
2024-04-27 19:37:32			0	34761	0	0	0	17509	16130	150327	26955	957845	38102	106356	0	0	8207	720927	0	0
2024-04-27 19:38:32			0	34759	0	0	0	17503	16120	150235	27478	957821	38100	106354	0	0	8207	721062	0	0
2024-04-27 19:39:32			0	34750	0	0	0	17511	16130	150343	27260	957819	38102	106357	0	0	8206	721452	0	0
2024-04-27 19:40:32			0	34757	0	0	0	17511	16120	150343	27289	957803	38112	106357	0	0	8207	721157	0	0
2024-04-27 19:41:32			0	34749	0	0	0	17506	16130	150347	27248	957863	38112	106355	0	0	8206	721500	0	0
2024-04-27 19:42:32			0	34741	0	0	0	17509	16130	150371	27467	957819	38091	106356	0	0	8206	721882	0	0
2024-04-27 19:43:32			0	34766	0	0	0	17509	16120	150287	27251	957908	38112	106356	0	0	8207	720727	0	0
2024-04-27 19:44:32			0	34775	0	0	0	17511	16120	150243	27374	957776	38123	106357	0	0	8208	720298	0	0
2024-04-27 19:45:32			0	34768	0	0	0	17506	16120	150227	27319	957855	38112	106355	0	0	8207	720632	0	0
2024-04-27 19:46:32			0	34791	0	0	0	17511	16130	150235	27253	957811	38112	106357	0	0	8209	719497	0	0
2024-04-27 19:47:32			0	34804	0	0	0	17498	16130	150131	27170	957863	38123	106352	0	0	8210	718877	0	0
2024-04-27 19:48:32			0	34809	0	0	0	17498	16120	150095	27045	957847	38100	106352	0	0	8210	718678	0	0
2024-04-27 19:49:32			0	34803	0	0	0	17498	16120	150167	27474	957768	38111	106352	0	0	8210	718964	0	0
2024-04-27 19:50:32			0	34825	0	0	0	17490	16130	150107	27350	957819	38102	106349	0	0	8211	717878	0	0
2024-04-27 19:51:32			0	34825	0	0	0	17485	16120	150171	27516	957821	38100	106347	0	0	8211	717917	0	0
2024-04-27 19:52:32			0	34793	0	0	0	17480	16110	150135	27523	957786	38111	106345	0	0	8209	719479	0	0
2024-04-27 19:53:32			0	34782	0	0	0	17477	16110	150223	27327	957812	38100	106344	0	0	8209	720003	0	0
2024-04-27 19:54:32			0	34765	0	0	0	17472	16120	150347	27213	957829	38101	106342	0	0	8208	720775	0	0
2024-04-27 19:55:32			0	34726	0	0	0	17470	16120	150547	27350	957847	38100	106341	0	0	8206	722638	0	0
2024-04-27 19:56:32			0	34663	0	0	0	17477	16110	150771	27485	957760	38122	106344	0	0	8202	725693	0	0
2024-04-27 19:57:32			0	34627	0	0	0	17470	16110	150935	27296	957752	38099	106341	0	0	8200	727421	0	0
2024-04-27 19:58:32			0	34607	0	0	0	17472	16110	151011	27476	957778	38099	106342	0	0	8199	728383	0	0
2024-04-27 19:59:32			0	34584	0	0	0	17472	16110	151083	27550	957786	38100	106342	0	0	8198	729490	0	0
2024-04-27 20:00:32			0	34584	0	0	0	17472	16120	151147	27300	957768	38100	106342	0	0	8198	729450	0	0
2024-04-27 20:01:32			0	34581	0	0	0	17483	16110	151095	27270	957760	38100	106346	0	0	8197	729634	0	0
2024-04-27 20:02:32			0	34602	0	0	0	17485	16110	151015	27111	957725	38099	106347	0	0	8198	728623	0	0
2024-04-27 20:03:32			0	34617	0	0	0	17488	16100	150995	27407	957743	38110	106348	0	0	8199	727941	0	0
2024-04-27 20:04:32			0	34643	0	0	0	17488	16110	150863	27390	957778	38099	106348	0	0	8201	726653	0	0
2024-04-27 20:05:32			0	34646	0	0	0	17483	16100	150859	27105	957717	38088	106346	0	0	8201	726548	0	0
2024-04-27 20:06:32			0	34637	0	0	0	17480	16100	150783	27287	957735	38087	106345	0	0	8200	726980	0	0
2024-04-27 20:07:32			0	34668	0	0	0	17480	16110	150795	27261	957646	38110	106345	0	0	8202	725454	0	0
2024-04-27 20:08:32			0	34673	0	0	0	17485	16110	150675	27438	957804	38099	106347	0	0	8202	725214	0	0
2024-04-27 20:09:32			0	34686	0	0	0	17490	16100	150555	27620	957788	38099	106349	0	0	8203	724630	0	0
2024-04-27 20:10:32			0	34705	0	0	0	17488	16110	150631	27403	957778	38110	106348	0	0	8204	723681	0	0
2024-04-27 20:11:32			0	34726	0	0	0	17493	16100	150451	27336	957709	38099	106350	0	0	8205	722716	0	0
2024-04-27 20:12:32			0	34766	0	0	0	17493	16100	150415	26982	957762	38121	106350	0	0	8208	720805	0	0
2024-04-27 20:13:32			0	34763	0	0	0	17490	16100	150347	27177	957770	38110	106349	0	0	8207	720948	0	0
2024-04-27 20:14:32			0	34790	0	0	0	17488	16110	150343	27034	957804	38110	106348	0	0	8209	719622	0	0
2024-04-27 20:15:32			0	34813	0	0	0	17509	16100	150099	27616	957717	38099	106356	0	0	8210	718565	0	0
2024-04-27 20:16:32			0	34844	0	0	0	17483	16110	150003	27310	957752	38099	106346	0	0	8212	717052	0	0
2024-04-27 20:17:32			0	34865	0	0	0	17480	16100	149883	27175	957709	38099	106345	0	0	8213	716093	0	0
2024-04-27 20:18:32			0	34861	0	0	0	17490	16110	149795	27189	957760	38100	106349	0	0	8213	716245	0	0
2024-04-27 20:19:32			0	34851	0	0	0	17490	16100	149915	27220	957770	38099	106349	0	0	8212	716758	0	0
2024-04-27 20:20:32			0	34855	0	0	0	17496	16110	149947	27267	957804	38110	106351	0	0	8213	716530	0	0
2024-04-27 20:21:32			0	34861	0	0	0	17480	16110	149843	27566	957786	38100	106345	0	0	8213	716245	0	0
2024-04-27 20:22:32			0	34878	0	0	0	17488	16110	149831	27533	957786	38111	106348	0	0	8214	715438	0	0
2024-04-27 20:23:32			0	34877	0	0	0	17475	16110	149843	27265	957831	38110	106343	0	0	8214	715485	0	0
2024-04-27 20:24:32			0	34865	0	0	0	17449	16110	149939	27466	957804	38110	106333	0	0	8214	716055	0	0
2024-04-27 20:25:32			0	34845	0	0	0	17459	16110	149835	27507	957804	38088	106337	0	0	8213	717005	0	0
2024-04-27 20:26:32			0	34840	0	0	0	17475	16110	149879	27381	957839	38111	106343	0	0	8212	717242	0	0
2024-04-27 20:27:32			0	34867	0	0	0	17470	16110	149779	27454	957778	38099	106341	0	0	8214	715960	0	0
2024-04-27 20:28:32			0	34880	0	0	0	17446	16110	149707	27519	957839	38111	106332	0	0	8215	715343	0	0
2024-04-27 20:29:32			0	34876	0	0	0	17444	16110	149587	27564	957778	38099	106331	0	0	8215	715533	0	0
2024-04-27 20:30:32			0	34874	0	0	0	17441	16110	149647	27478	957786	38100	106330	0	0	8215	715628	0	0
2024-04-27 20:31:32			0	34878	0	0	0	17410	16100	149647	27244	957717	38078	106318	0	0	8215	715477	0	0
2024-04-27 20:32:32			0	34858	0	0	0	17399	16100	149791	27377	957709	38099	106314	0	0	8214	716426	0	0
2024-04-27 20:33:32			0	34857	0	0	0	17386	16100	149719	27180	957585	38099	106309	0	0	8214	716473	0	0
2024-04-27 20:34:32			0	34864	0	0	0	17384	16080	149715	27315	957658	38109	106308	0	0	8215	716218	0	0
2024-04-27 20:35:32			0	34852	0	0	0	17371	16090	149707	27435	957561	38098	106303	0	0	8214	716750	0	0
2024-04-27 20:36:32			0	34813	0	0	0	17358	16080	149903	27393	957571	38108	106298	0	0	8212	718643	0	0
2024-04-27 20:37:32			0	34793	0	0	0	17340	16080	150095	27223	957545	38086	106291	0	0	8212	719596	0	0
2024-04-27 20:38:32			0	34768	0	0	0	17335	16080	150211	27568	957474	38098	106289	0	0	8210	720788	0	0
2024-04-27 20:39:32			0	34747	0	0	0	17332	16070	150295	27824	957555	38085	106288	0	0	8209	721829	0	0
2024-04-27 20:40:32			0	34716	0	0	0	17327	16060	150447	27365	957467	38095	106286	0	0	8207	723350	0	0
2024-04-27 20:41:32			0	34709	0	0	0	17332	16070	150531	27410	957475	38085	106288	0	0	8207	723646	0	0
2024-04-27 20:42:32			0	34675	0	0	0	17319	16060	150711	27215	957494	38084	106283	0	0	8205	725314	0	0
2024-04-27 20:43:32			0	34663	0	0	0	17327	16060	150651	27426	957486	38106	106286	0	0	8204	725889	0	0
2024-04-27 20:44:32			0	34662	0	0	0	17324	16060	150739	27547	957486	38095	106285	0	0	8204	725937	0	0
2024-04-27 20:45:32			0	34681	0	0	0	17340	16060	150739	27495	957494	38084	106291	0	0	8205	725026	0	0
2024-04-27 20:46:32			0	34683	0	0	0	17345	16050	150675	27621	957530	38073	106293	0	0	8205	724969	0	0
2024-04-27 20:47:32			0	34681	0	0	0	17355	16050	150759	27566	957504	38094	106297	0	0	8205	725065	0	0
2024-04-27 20:48:32			0	34661	0	0	0	17345	16060	150739	27538	957459	38084	106293	0	0	8204	725985	0	0
2024-04-27 20:49:32			0	34638	0	0	0	17332	16050	150791	27164	957504	38094	106288	0	0	8203	727128	0	0
2024-04-27 20:50:32			0	34631	0	0	0	17342	16050	150963	27152	957504	38083	106292	0	0	8202	727465	0	0
2024-04-27 20:51:32			0	34630	0	0	0	17337	16040	150923	27511	957461	38083	106290	0	0	8202	727552	0	0
2024-04-27 20:52:32			0	34652	0	0	0	17337	16050	150799	27353	957451	38094	106290	0	0	8203	726456	0	0
2024-04-27 20:53:32			0	34645	0	0	0	17319	16050	150711	27300	957443	38083	106283	0	0	8203	726792	0	0
2024-04-27 20:54:32			0	34654	0	0	0	17324	16040	150715	27393	957453	38061	106285	0	0	8204	726399	0	0
2024-04-27 20:55:32			0	34645	0	0	0	17306	16030	150759	27182	957339	38082	106278	0	0	8204	726871	0	0
2024-04-27 20:56:32			0	34629	0	0	0	17296	16040	150911	27381	957348	38072	106274	0	0	8203	727600	0	0
2024-04-27 20:57:32			0	34632	0	0	0	17285	16020	150807	27450	957315	38059	106270	0	0	8203	727534	0	0
2024-04-27 20:58:32			0	34645	0	0	0	17272	16010	150787	27414	957175	38081	106265	0	0	8204	726949	0	0
2024-04-27 20:59:32			0	34683	0	0	0	17249	16000	150715	27708	957211	38069	106256	0	0	8206	725165	0	0
2024-04-27 21:00:32			0	34685	0	0	0	17244	16000	150555	27403	957124	38068	106254	0	0	8207	725069	0	0
2024-04-27 21:01:32			0	34725	0	0	0	17236	15980	150583	27559	957065	38077	106251	0	0	8209	723232	0	0
2024-04-27 21:02:32			0	34704	0	0	0	17244	15980	150635	27436	957012	38055	106254	0	0	8208	724237	0	0
2024-04-27 21:03:32			0	34703	0	0	0	17241	15960	150555	27486	957014	38065	106253	0	0	8208	724363	0	0
2024-04-27 21:04:32			0	34699	0	0	0	17233	15960	150547	27308	957085	38065	106250	0	0	8207	724554	0	0
2024-04-27 21:05:32			0	34694	0	0	0	17238	15950	150659	27312	956998	38054	106252	0	0	8207	724833	0	0
2024-04-27 21:06:32			0	34693	0	0	0	17249	15950	150787	27289	956998	38065	106256	0	0	8207	724881	0	0
2024-04-27 21:07:32			0	34659	0	0	0	17244	15940	150843	27502	956955	38075	106254	0	0	8205	726551	0	0
2024-04-27 21:08:32			0	34631	0	0	0	17225	15930	150983	27502	956965	38051	106247	0	0	8204	727936	0	0
2024-04-27 21:09:32			0	34604	0	0	0	17233	15930	151043	27457	956931	38062	106250	0	0	8202	729235	0	0
2024-04-27 21:10:32			0	34586	0	0	0	17233	15910	151091	27521	956846	38049	106250	0	0	8201	730181	0	0
2024-04-27 21:11:32			0	34570	0	0	0	17241	15920	151203	27549	956888	38050	106253	0	0	8200	730913	0	0
2024-04-27 21:12:32			0	34574	0	0	0	17225	15910	151119	27421	956846	38060	106247	0	0	8200	730759	0	0
2024-04-27 21:13:32			0	34568	0	0	0	17223	15910	151259	27229	956880	38060	106246	0	0	8200	731049	0	0
2024-04-27 21:14:32			0	34554	0	0	0	17220	15900	151275	27464	956803	38060	106245	0	0	8199	731764	0	0
2024-04-27 21:15:32			0	34540	0	0	0	17218	15900	151283	27218	956803	38060	106244	0	0	8198	732440	0	0
2024-04-27 21:16:32			0	34532	0	0	0	17210	15900	151371	27429	956837	38060	106241	0	0	8198	732826	0	0
2024-04-27 21:17:32			0	34508	0	0	0	17220	15880	151483	27060	956831	38059	106245	0	0	8197	734066	0	0
2024-04-27 21:18:32			0	34491	0	0	0	17218	15890	151563	27362	956734	38059	106244	0	0	8196	734850	0	0
2024-04-27 21:19:32			0	34461	0	0	0	17210	15880	151775	27407	956805	38048	106241	0	0	8194	736344	0	0
2024-04-27 21:20:32			0	34464	0	0	0	17207	15870	151959	27208	956709	38057	106240	0	0	8194	736238	0	0
2024-04-27 21:21:32			0	34420	0	0	0	17207	15880	151991	27329	956752	38081	106240	0	0	8192	738335	0	0
2024-04-27 21:22:32			0	34387	0	0	0	17207	15870	152083	27383	956709	38068	106240	0	0	8190	739980	0	0
2024-04-27 21:23:32			0	34372	0	0	0	17207	15860	152143	27310	956746	38067	106240	0	0	8189	740751	0	0
2024-04-27 21:24:32			0	34354	0	0	0	17202	15860	152243	27315	956727	38078	106238	0	0	8188	741628	0	0
2024-04-27 21:25:32			0	34336	0	0	0	17187	15850	152290	27291	956711	38078	106232	0	0	8187	742547	0	0
2024-04-27 21:26:32			0	34338	0	0	0	17197	15860	152198	27400	956727	38067	106236	0	0	8187	742409	0	0
2024-04-27 21:27:32			0	34349	0	0	0	17197	15850	152167	27196	956624	38055	106236	0	0	8188	741912	0	0
2024-04-27 21:28:32			0	34357	0	0	0	17197	15850	152183	27822	956677	38066	106236	0	0	8188	741522	0	0
2024-04-27 21:29:32			0	34357	0	0	0	17189	15850	152098	27291	956624	38055	106233	0	0	8188	741522	0	0
2024-04-27 21:30:32			0	34351	0	0	0	17192	15840	152195	27242	956642	38066	106234	0	0	8188	741855	0	0
2024-04-27 21:31:32			0	34351	0	0	0	17187	15840	152199	27260	956687	38066	106232	0	0	8188	741855	0	0
2024-04-27 21:32:32			0	34331	0	0	0	17184	15830	152250	27434	956679	38055	106231	0	0	8187	742871	0	0
2024-04-27 21:33:32			0	34318	0	0	0	17187	15830	152390	27377	956573	38055	106232	0	0	8186	743506	0	0
2024-04-27 21:34:32			0	34301	0	0	0	17184	15830	152494	27379	956626	38077	106231	0	0	8185	744338	0	0
2024-04-27 21:35:32			0	34273	0	0	0	17189	15830	152582	26989	956600	38043	106233	0	0	8183	745709	0	0
2024-04-27 21:36:32			0	34260	0	0	0	17187	15820	152674	27185	956636	38064	106232	0	0	8183	746386	0	0
2024-04-27 21:37:32			0	34257	0	0	0	17184	15830	152682	27251	956652	38077	106231	0	0	8183	746493	0	0
2024-04-27 21:38:32			0	34245	0	0	0	17194	15830	152710	27196	956644	38054	106235	0	0	8182	747081	0	0
2024-04-27 21:39:32			0	34231	0	0	0	17184	15830	152802	27300	956652	38066	106231	0	0	8181	747769	0	0
2024-04-27 21:40:32			0	34242	0	0	0	17187	15820	152702	27220	956583	38053	106232	0	0	8182	747269	0	0
2024-04-27 21:41:32			0	34236	0	0	0	17197	15830	152642	27348	956644	38065	106236	0	0	8181	747523	0	0
2024-04-27 21:42:32			0	34247	0	0	0	17202	15820	152658	27305	956610	38064	106238	0	0	8182	747023	0	0
2024-04-27 21:43:32			0	34270	0	0	0	17194	15820	152662	27286	956662	38064	106235	0	0	8183	745896	0	0
2024-04-27 21:44:32			0	34273	0	0	0	17202	15830	152570	27371	956600	38066	106238	0	0	8183	745709	0	0
2024-04-27 21:45:32			0	34273	0	0	0	17199	15830	152566	27218	956652	38066	106237	0	0	8183	745709	0	0
2024-04-27 21:46:32			0	34287	0	0	0	17202	15820	152550	27331	956610	38075	106238	0	0	8184	745063	0	0
2024-04-27 21:47:32			0	34278	0	0	0	17207	15830	152578	27457	956670	38054	106240	0	0	8183	745464	0	0
2024-04-27 21:48:32			0	34281	0	0	0	17202	15820	152654	27777	956662	38053	106238	0	0	8184	745357	0	0
2024-04-27 21:49:32			0	34272	0	0	0	17212	15830	152594	27445	956618	38065	106242	0	0	8183	745758	0	0
2024-04-27 21:50:32			0	34250	0	0	0	17202	15820	152666	27001	956654	38064	106238	0	0	8182	746876	0	0
2024-04-27 21:51:32			0	34263	0	0	0	17205	15830	152626	27343	956618	38065	106239	0	0	8183	746199	0	0
2024-04-27 21:52:32			0	34257	0	0	0	17215	15830	152702	27225	956697	38065	106243	0	0	8182	746493	0	0
2024-04-27 21:53:32			0	34270	0	0	0	17218	15830	152690	27443	956626	38066	106244	0	0	8183	745856	0	0
2024-04-27 21:54:32			0	34279	0	0	0	17207	15830	152598	26939	956670	38065	106240	0	0	8183	745415	0	0
2024-04-27 21:55:32			0	34273	0	0	0	17212	15830	152622	27164	956697	38076	106242	0	0	8183	745709	0	0
2024-04-27 21:56:32			0	34310	0	0	0	17207	15840	152482	27215	956660	38066	106240	0	0	8185	743857	0	0
2024-04-27 21:57:32			0	34306	0	0	0	17215	15830	152394	27516	956705	38055	106243	0	0	8185	744093	0	0
2024-04-27 21:58:32			0	34316	0	0	0	17223	15820	152450	27270	956707	38053	106246	0	0	8185	743644	0	0
2024-04-27 21:59:32			0	34320	0	0	0	17207	15830	152402	27345	956697	38065	106240	0	0	8186	743409	0	0
2024-04-27 22:00:32			0	34347	0	0	0	17212	15830	152331	27415	956679	38055	106242	0	0	8187	742090	0	0
2024-04-27 22:01:32			0	34361	0	0	0	17210	15830	152159	27130	956731	38055	106241	0	0	8188	741407	0	0
2024-04-27 22:02:32			0	34388	0	0	0	17212	15830	152023	27107	956679	38066	106242	0	0	8190	740091	0	0
2024-04-27 22:03:32			0	34400	0	0	0	17205	15830	152003	27450	956644	38076	106239	0	0	8190	739507	0	0
2024-04-27 22:04:32			0	34389	0	0	0	17197	15820	152035	27313	956662	38053	106236	0	0	8190	740082	0	0
2024-04-27 22:05:32			0	34377	0	0	0	17202	15830	152111	27364	956670	38076	106238	0	0	8189	740627	0	0
2024-04-27 22:06:32			0	34383	0	0	0	17210	15830	152159	27157	956697	38054	106241	0	0	8189	740335	0	0
2024-04-27 22:07:32			0	34351	0	0	0	17207	15820	152183	27296	956662	38064	106240	0	0	8187	741935	0	0
2024-04-27 22:08:32			0	34357	0	0	0	17205	15830	152151	27204	956679	38043	106239	0	0	8188	741602	0	0
2024-04-27 22:09:32			0	34337	0	0	0	17210	15820	152166	27300	956654	38064	106241	0	0	8187	742618	0	0
2024-04-27 22:10:32			0	34349	0	0	0	17207	15830	152207	27154	956679	38066	106240	0	0	8187	741992	0	0
2024-04-27 22:11:32			0	34342	0	0	0	17207	15820	152186	27064	956636	38064	106240	0	0	8187	742374	0	0
2024-04-27 22:12:32			0	34337	0	0	0	17210	15820	152334	27472	956610	38064	106241	0	0	8187	742618	0	0
2024-04-27 22:13:32			0	34324	0	0	0	17207	15820	152346	27027	956636	38064	106240	0	0	8186	743253	0	0
2024-04-27 22:14:32			0	34306	0	0	0	17212	15840	152374	27109	956695	38055	106242	0	0	8185	744053	0	0
2024-04-27 22:15:32			0	34304	0	0	0	17207	15830	152442	27377	956652	38077	106240	0	0	8185	744191	0	0
2024-04-27 22:16:32			0	34314	0	0	0	17199	15830	152478	27464	956670	38054	106237	0	0	8186	743702	0	0
2024-04-27 22:17:32			0	34274	0	0	0	17212	15840	152426	27479	956634	38066	106242	0	0	8183	745620	0	0
2024-04-27 22:18:32			0	34286	0	0	0	17199	15830	152486	27149	956652	38066	106237	0	0	8184	745072	0	0
2024-04-27 22:19:32			0	34271	0	0	0	17192	15840	152558	27034	956687	38055	106234	0	0	8183	745766	0	0
2024-04-27 22:20:32			0	34231	0	0	0	17199	15830	152710	27521	956670	38065	106237	0	0	8181	747769	0	0
2024-04-27 22:21:32			0	34221	0	0	0	17189	15820	152694	27339	956636	38064	106233	0	0	8180	748300	0	0
2024-04-27 22:22:32			0	34213	0	0	0	17197	15830	152914	27126	956670	38065	106236	0	0	8180	748653	0	0
2024-04-27 22:23:32			0	34191	0	0	0	17189	15820	152954	27433	956610	38064	106233	0	0	8179	749775	0	0
2024-04-27 22:24:32			0	34171	0	0	0	17187	15820	153054	27209	956654	38064	106232	0	0	8177	750759	0	0
2024-04-27 22:25:32			0	34155	0	0	0	17189	15820	153086	27421	956610	38053	106233	0	0	8177	751548	0	0
2024-04-27 22:26:32			0	34137	0	0	0	17189	15820	153186	27270	956628	38053	106233	0	0	8175	752435	0	0
2024-04-27 22:27:32			0	34125	0	0	0	17184	15820	153330	27015	956689	38064	106231	0	0	8175	753028	0	0
2024-04-27 22:28:32			0	34119	0	0	0	17184	15820	153386	27459	956601	38064	106231	0	0	8175	753324	0	0
2024-04-27 22:29:32			0	34093	0	0	0	17192	15820	153402	27457	956601	38064	106234	0	0	8173	754609	0	0
2024-04-27 22:30:32			0	34083	0	0	0	17194	15820	153370	27479	956575	38064	106235	0	0	8172	755104	0	0
2024-04-27 22:31:32			0	34080	0	0	0	17194	15820	153426	27357	956601	38042	106235	0	0	8172	755252	0	0
2024-04-27 22:32:32			0	34094	0	0	0	17192	15800	153318	27455	956577	38062	106234	0	0	8173	754641	0	0
2024-04-27 22:33:32			0	34109	0	0	0	17187	15820	153266	27578	956654	38075	106232	0	0	8174	753818	0	0
2024-04-27 22:34:32			0	34136	0	0	0	17176	15810	153198	27230	956593	38064	106228	0	0	8176	752525	0	0
2024-04-27 22:35:32			0	34142	0	0	0	17189	15800	153190	27267	956577	38062	106233	0	0	8176	752270	0	0
2024-04-27 22:36:32			0	34132	0	0	0	17179	15810	153206	27566	956559	38063	106229	0	0	8175	752723	0	0
2024-04-27 22:37:32			0	34141	0	0	0	17189	15820	153094	27116	956628	38064	106233	0	0	8176	752238	0	0
2024-04-27 22:38:32			0	34148	0	0	0	17187	15810	153090	27194	956672	38064	106232	0	0	8176	751933	0	0
2024-04-27 22:39:32			0	34153	0	0	0	17192	15810	153018	27450	956585	38063	106234	0	0	8176	751687	0	0
2024-04-27 22:40:32			0	34163	0	0	0	17189	15820	153022	27514	956549	38064	106233	0	0	8177	751154	0	0
2024-04-27 22:41:32			0	34187	0	0	0	17189	15820	152862	27367	956654	38075	106233	0	0	8178	749972	0	0
2024-04-27 22:42:32			0	34176	0	0	0	17184	15810	153038	27687	956585	38052	106231	0	0	8178	750554	0	0
2024-04-27 22:43:32			0	34186	0	0	0	17176	15810	153002	27554	956593	38064	106228	0	0	8178	750061	0	0
2024-04-27 22:44:32			0	34180	0	0	0	17179	15810	152922	27533	956593	38064	106229	0	0	8178	750357	0	0
2024-04-27 22:45:32			0	34167	0	0	0	17174	15810	152910	27189	956611	38063	106227	0	0	8177	750997	0	0
2024-04-27 22:46:32			0	34158	0	0	0	17179	15810	153050	27445	956620	38075	106229	0	0	8177	751440	0	0
2024-04-27 22:47:32			0	34170	0	0	0	17184	15800	153014	27345	956516	38061	106231	0	0	8177	750890	0	0
2024-04-27 22:48:32			0	34132	0	0	0	17168	15810	153110	27249	956611	38063	106225	0	0	8175	752723	0	0
2024-04-27 22:49:32			0	34133	0	0	0	17176	15810	153262	27300	956559	38063	106228	0	0	8175	752673	0	0
2024-04-27 22:50:32			0	34122	0	0	0	17179	15810	153286	27102	956559	38063	106229	0	0	8175	753216	0	0
2024-04-27 22:51:32			0	34100	0	0	0	17184	15810	153322	27613	956567	38053	106231	0	0	8173	754303	0	0
2024-04-27 22:52:32			0	34077	0	0	0	17174	15810	153318	27459	956585	38063	106227	0	0	8172	755441	0	0
2024-04-27 22:53:32			0	34082	0	0	0	17174	15800	153526	27178	956551	38062	106227	0	0	8172	755234	0	0
2024-04-27 22:54:32			0	34079	0	0	0	17179	15810	153438	27460	956559	38063	106229	0	0	8172	755342	0	0
2024-04-27 22:55:32			0	34080	0	0	0	17171	15800	153434	27769	956577	38051	106226	0	0	8172	755333	0	0
2024-04-27 22:56:32			0	34086	0	0	0	17168	15800	153346	27514	956524	38062	106225	0	0	8173	755037	0	0
2024-04-27 22:57:32			0	34079	0	0	0	17142	15800	153326	27284	956569	38073	106215	0	0	8173	755383	0	0
2024-04-27 22:58:32			0	34103	0	0	0	17137	15800	153254	27755	956577	38062	106213	0	0	8174	754196	0	0
2024-04-27 22:59:32			0	34084	0	0	0	17135	15800	153294	27417	956490	38061	106212	0	0	8173	755135	0	0
2024-04-27 23:00:32			0	34092	0	0	0	17135	15800	153330	27374	956516	38061	106212	0	0	8174	754740	0	0
2024-04-27 23:01:32			0	34067	0	0	0	17137	15800	153274	27483	956490	38040	106213	0	0	8172	755977	0	0
2024-04-27 23:02:32			0	34083	0	0	0	17140	15780	153470	27294	956465	38049	106214	0	0	8173	755266	0	0
2024-04-27 23:03:32			0	34074	0	0	0	17124	15790	153442	27576	956447	38050	106208	0	0	8173	755671	0	0
2024-04-27 23:04:32			0	34087	0	0	0	17124	15790	153382	27552	956508	38050	106208	0	0	8174	755028	0	0
2024-04-27 23:05:32			0	34077	0	0	0	17114	15780	153362	27140	956413	38061	106204	0	0	8173	755563	0	0
2024-04-27 23:06:32			0	34097	0	0	0	17109	15770	153238	27088	956467	38049	106202	0	0	8174	754614	0	0
2024-04-27 23:07:32			0	34131	0	0	0	17109	15780	153182	27398	956405	38060	106202	0	0	8176	752894	0	0
2024-04-27 23:08:32			0	34123	0	0	0	17103	15760	153130	27296	956380	38059	106200	0	0	8176	753370	0	0
2024-04-27 23:09:32			0	34132	0	0	0	17098	15770	153154	26981	956362	38049	106198	0	0	8176	752885	0	0
2024-04-27 23:10:32			0	34109	0	0	0	17085	15760	153182	26993	956346	38047	106193	0	0	8175	754062	0	0
2024-04-27 23:11:32			0	34088	0	0	0	17088	15760	153306	27322	956293	38047	106194	0	0	8174	755100	0	0
2024-04-27 23:12:32			0	34074	0	0	0	17080	15760	153378	27388	956319	38069	106191	0	0	8173	755793	0	0
2024-04-27 23:13:32			0	34052	0	0	0	17085	15750	153442	27237	956224	38058	106193	0	0	8172	756924	0	0
2024-04-27 23:14:32			0	34050	0	0	0	17072	15750	153594	27154	956250	38058	106188	0	0	8172	757023	0	0
2024-04-27 23:15:32			0	34026	0	0	0	17067	15740	153654	27471	956295	38036	106186	0	0	8171	758255	0	0
2024-04-27 23:16:32			0	34021	0	0	0	17067	15740	153734	27282	956234	38035	106186	0	0	8170	758503	0	0
2024-04-27 23:17:32			0	33998	0	0	0	17064	15730	153814	27322	956252	38044	106185	0	0	8169	759686	0	0
2024-04-27 23:18:32			0	33999	0	0	0	17057	15730	153850	27320	956226	38055	106182	0	0	8169	759637	0	0
2024-04-27 23:19:32			0	33984	0	0	0	17059	15730	153826	27086	956217	38044	106183	0	0	8168	760383	0	0
2024-04-27 23:20:32			0	33991	0	0	0	17054	15720	153854	27190	956122	38044	106181	0	0	8169	760076	0	0
2024-04-27 23:21:32			0	33989	0	0	0	17044	15720	153922	27220	956175	38055	106177	0	0	8169	760175	0	0
2024-04-27 23:22:32			0	34009	0	0	0	17051	15720	153846	27338	956175	38033	106180	0	0	8170	759181	0	0
2024-04-27 23:23:32			0	33983	0	0	0	17057	15720	153854	27003	956149	38055	106182	0	0	8168	760474	0	0
2024-04-27 23:24:32			0	34006	0	0	0	17044	15710	153826	27168	956167	38043	106177	0	0	8170	759371	0	0
2024-04-27 23:25:32			0	33998	0	0	0	17049	15710	153810	27093	956140	38043	106179	0	0	8169	759768	0	0
2024-04-27 23:26:32			0	34012	0	0	0	17038	15700	153770	27072	956124	38043	106175	0	0	8170	759113	0	0
2024-04-27 23:27:32			0	33973	0	0	0	17041	15700	153882	27303	956090	38042	106176	0	0	8168	761053	0	0
2024-04-27 23:28:32			0	33983	0	0	0	17046	15690	153878	27223	956073	38052	106178	0	0	8168	760596	0	0
2024-04-27 23:29:32			0	33984	0	0	0	17036	15700	153902	27130	956090	38042	106174	0	0	8169	760506	0	0
2024-04-27 23:30:32			0	33984	0	0	0	17036	15690	153910	27313	956029	38052	106174	0	0	8169	760547	0	0
2024-04-27 23:31:32			0	33976	0	0	0	17033	15700	153862	27199	956116	38042	106173	0	0	8168	760904	0	0
2024-04-27 23:32:32			0	33985	0	0	0	17031	15690	153966	27606	956100	38041	106172	0	0	8169	760497	0	0
2024-04-27 23:33:32			0	33977	0	0	0	17036	15690	153794	27398	956021	38041	106174	0	0	8168	760895	0	0
2024-04-27 23:34:32			0	34004	0	0	0	17033	15680	153790	27204	956013	38052	106173	0	0	8170	759593	0	0
2024-04-27 23:35:32			0	34027	0	0	0	17033	15680	153654	27206	956065	38041	106173	0	0	8171	758450	0	0
2024-04-27 23:36:32			0	34023	0	0	0	17031	15670	153630	27261	955970	38029	106172	0	0	8171	758690	0	0
2024-04-27 23:37:32			0	34058	0	0	0	17023	15680	153502	27313	956065	38052	106169	0	0	8173	756912	0	0
2024-04-27 23:38:32			0	34065	0	0	0	17025	15680	153450	27435	956004	38041	106170	0	0	8173	756565	0	0
2024-04-27 23:39:32			0	34070	0	0	0	17028	15670	153546	27130	955970	38040	106171	0	0	8174	756358	0	0
2024-04-27 23:40:32			0	34099	0	0	0	17020	15670	153406	27142	956067	38050	106168	0	0	8175	754922	0	0
2024-04-27 23:41:32			0	34081	0	0	0	17018	15670	153478	27293	956023	38050	106167	0	0	8174	755813	0	0
2024-04-27 23:42:32			0	34085	0	0	0	17020	15660	153518	26965	955980	38050	106168	0	0	8175	755656	0	0
2024-04-27 23:43:32			0	34082	0	0	0	17031	15670	153530	27033	956049	38062	106172	0	0	8174	755763	0	0
2024-04-27 23:44:32			0	34082	0	0	0	17025	15660	153546	27166	955946	38040	106170	0	0	8174	755804	0	0
2024-04-27 23:45:32			0	34072	0	0	0	17023	15660	153294	27059	956006	38028	106169	0	0	8174	756300	0	0
2024-04-27 23:46:32			0	34111	0	0	0	17015	15660	153282	27234	956006	38040	106166	0	0	8176	754369	0	0
2024-04-27 23:47:32			0	34142	0	0	0	17025	15670	153214	27196	956041	38040	106170	0	0	8178	752797	0	0
2024-04-27 23:48:32			0	34169	0	0	0	17025	15660	152994	27462	955972	38028	106170	0	0	8179	751506	0	0
2024-04-27 23:49:32			0	34191	0	0	0	17010	15660	152970	27102	956006	38040	106164	0	0	8181	750421	0	0
2024-04-27 23:50:32			0	34199	0	0	0	17015	15660	152994	27275	955972	38040	106166	0	0	8181	750028	0	0
2024-04-27 23:51:32			0	34231	0	0	0	17018	15650	152774	27175	955990	38049	106167	0	0	8183	748494	0	0
2024-04-27 23:52:32			0	34246	0	0	0	17015	15650	152738	27265	955964	38039	106166	0	0	8184	747757	0	0
2024-04-27 23:53:32			0	34270	0	0	0	17015	15660	152574	27223	955919	38040	106166	0	0	8185	746539	0	0
2024-04-27 23:54:32			0	34288	0	0	0	17015	15650	152562	27504	955964	38039	106166	0	0	8186	745697	0	0
2024-04-27 23:55:32			0	34293	0	0	0	17020	15650	152510	27583	955937	38039	106168	0	0	8187	745452	0	0
2024-04-27 23:56:32			0	34299	0	0	0	17023	15650	152490	27800	955982	38038	106169	0	0	8187	745158	0	0
2024-04-27 23:57:32			0	34292	0	0	0	17018	15660	152382	27377	955998	38028	106167	0	0	8187	745461	0	0
2024-04-27 23:58:32			0	34304	0	0	0	17012	15660	152398	27248	955972	38040	106165	0	0	8187	744873	0	0
2024-04-27 23:59:32			0	34300	0	0	0	17010	15660	152366	27209	955919	38050	106164	0	0	8187	745069	0	0
2024-04-28 00:00:32			0	34290	0	0	0	17010	15650	152406	27083	955956	38038	106164	0	0	8187	745599	0	0
2024-04-28 00:01:32			0	34265	0	0	0	17007	15650	152558	27281	955937	38039	106163	0	0	8185	746824	0	0
2024-04-28 00:02:32			0	34271	0	0	0	17005	15650	152546	27336	955982	38038	106162	0	0	8186	746530	0	0
2024-04-28 00:03:32			0	34307	0	0	0	17005	15640	152454	27542	955974	38048	106162	0	0	8188	744806	0	0
2024-04-28 00:04:32			0	34314	0	0	0	17002	15650	152414	27524	955903	38038	106161	0	0	8188	744424	0	0
2024-04-28 00:05:32			0	34355	0	0	0	17012	15650	152239	27152	955964	38049	106165	0	0	8190	742419	0	0
2024-04-28 00:06:32			0	34381	0	0	0	17018	15640	152055	27227	955947	38038	106167	0	0	8192	741190	0	0
2024-04-28 00:07:32			0	34377	0	0	0	17002	15640	152127	27414	955842	38038	106161	0	0	8192	741385	0	0
2024-04-28 00:08:32			0	34385	0	0	0	17005	15640	152091	27537	955842	38048	106162	0	0	8192	740995	0	0
2024-04-28 00:09:32			0	34373	0	0	0	16997	15640	152063	27319	955895	38038	106159	0	0	8191	741580	0	0
2024-04-28 00:10:32			0	34371	0	0	0	16989	15630	152155	27190	955878	38047	106156	0	0	8191	741718	0	0
2024-04-28 00:11:32			0	34357	0	0	0	16984	15650	152075	27102	955903	38048	106154	0	0	8191	742322	0	0
2024-04-28 00:12:32			0	34344	0	0	0	16981	15630	152366	27545	955870	38057	106153	0	0	8190	743036	0	0
2024-04-28 00:13:32			0	34340	0	0	0	16979	15630	152262	27502	955818	38036	106152	0	0	8190	743232	0	0
2024-04-28 00:14:32			0	34308	0	0	0	16979	15630	152466	27334	955905	38026	106152	0	0	8188	744797	0	0
2024-04-28 00:15:32			0	34295	0	0	0	16981	15640	152358	27301	955834	38048	106153	0	0	8187	745394	0	0
2024-04-28 00:16:32			0	34271	0	0	0	16976	15630	152482	27445	955818	38046	106151	0	0	8186	746610	0	0
2024-04-28 00:17:32			0	34265	0	0	0	16979	15630	152534	27595	955870	38046	106152	0	0	8186	746905	0	0
2024-04-28 00:18:32			0	34274	0	0	0	16989	15630	152450	27215	955818	38046	106156	0	0	8186	746464	0	0
2024-04-28 00:19:32			0	34265	0	0	0	16981	15620	152446	27415	955809	38025	106153	0	0	8185	746945	0	0
2024-04-28 00:20:32			0	34279	0	0	0	16992	15630	152450	27109	955897	38036	106157	0	0	8186	746218	0	0
2024-04-28 00:21:32			0	34274	0	0	0	16984	15630	152570	27455	955897	38046	106154	0	0	8186	746464	0	0
2024-04-28 00:22:32			0	34267	0	0	0	16986	15620	152410	27367	955801	38025	106155	0	0	8185	746847	0	0
2024-04-28 00:23:32			0	34249	0	0	0	16986	15620	152478	27531	955888	38025	106155	0	0	8184	747730	0	0
2024-04-28 00:24:32			0	34247	0	0	0	16981	15620	152566	27341	955854	38025	106153	0	0	8184	747829	0	0
2024-04-28 00:25:32			0	34240	0	0	0	16984	15620	152678	27569	955906	38046	106154	0	0	8184	748173	0	0
2024-04-28 00:26:32			0	34236	0	0	0	16989	15620	152646	27138	955888	38046	106156	0	0	8184	748369	0	0
2024-04-28 00:27:32			0	34245	0	0	0	16976	15610	152658	27357	955846	38045	106151	0	0	8184	747967	0	0
2024-04-28 00:28:32			0	34246	0	0	0	16984	15620	152526	27509	955809	38036	106154	0	0	8184	747878	0	0
2024-04-28 00:29:32			0	34256	0	0	0	16981	15620	152638	27230	955862	38046	106153	0	0	8185	747387	0	0
2024-04-28 00:30:32			0	34273	0	0	0	16986	15620	152570	27374	955862	38036	106155	0	0	8186	746553	0	0
2024-04-28 00:31:32			0	34276	0	0	0	16986	15620	152450	27175	955801	38025	106155	0	0	8186	746405	0	0
2024-04-28 00:32:32			0	34271	0	0	0	16989	15620	152494	27450	955862	38036	106156	0	0	8186	746651	0	0
2024-04-28 00:33:32			0	34270	0	0	0	16979	15620	152538	26939	955854	38036	106152	0	0	8186	746700	0	0
2024-04-28 00:34:32			0	34247	0	0	0	16986	15620	152626	27116	955862	38025	106155	0	0	8184	747829	0	0
2024-04-28 00:35:32			0	34224	0	0	0	16974	15610	152718	27092	955793	38035	106150	0	0	8183	748999	0	0
2024-04-28 00:36:32			0	34220	0	0	0	16981	15620	152782	27168	955809	38025	106153	0	0	8183	749156	0	0
2024-04-28 00:37:32			0	34224	0	0	0	16976	15620	152634	27171	955801	38046	106151	0	0	8183	748959	0	0
2024-04-28 00:38:32			0	34241	0	0	0	16974	15620	152630	26928	955783	38046	106150	0	0	8184	748123	0	0
2024-04-28 00:39:32			0	34249	0	0	0	16971	15620	152694	27227	955888	38036	106149	0	0	8185	747730	0	0
2024-04-28 00:40:32			0	34240	0	0	0	16976	15610	152638	27104	955740	38035	106151	0	0	8184	748213	0	0
2024-04-28 00:41:32			0	34216	0	0	0	16976	15620	152642	27137	955801	38036	106151	0	0	8183	749352	0	0
2024-04-28 00:42:32			0	34204	0	0	0	16979	15610	152790	27298	955740	38035	106152	0	0	8182	749983	0	0
2024-04-28 00:43:32			0	34192	0	0	0	16968	15610	152786	27395	955767	38024	106148	0	0	8181	750574	0	0
2024-04-28 00:44:32			0	34174	0	0	0	16968	15600	152826	27313	955777	38023	106148	0	0	8180	751502	0	0
2024-04-28 00:45:32			0	34167	0	0	0	16971	15610	152998	27343	955793	38024	106149	0	0	8180	751806	0	0
2024-04-28 00:46:32			0	34148	0	0	0	16966	15610	152950	27092	955758	38034	106147	0	0	8179	752744	0	0
2024-04-28 00:47:32			0	34152	0	0	0	16971	15600	152966	27326	955777	38034	106149	0	0	8179	752587	0	0
2024-04-28 00:48:32			0	34156	0	0	0	16971	15620	152922	27142	955722	38046	106149	0	0	8179	752309	0	0
2024-04-28 00:49:32			0	34190	0	0	0	16966	15610	152918	27090	955793	38035	106147	0	0	8181	750673	0	0
2024-04-28 00:50:32			0	34207	0	0	0	16974	15600	152774	27078	955750	38034	106150	0	0	8182	749876	0	0
2024-04-28 00:51:32			0	34217	0	0	0	16966	15610	152778	27192	955793	38024	106147	0	0	8183	749344	0	0
2024-04-28 00:52:32			0	34246	0	0	0	16974	15600	152634	27100	955724	38034	106150	0	0	8184	747958	0	0
2024-04-28 00:53:32			0	34267	0	0	0	16963	15600	152578	27509	955724	38023	106146	0	0	8186	746927	0	0
2024-04-28 00:54:32			0	34268	0	0	0	16963	15600	152322	27074	955742	38034	106146	0	0	8186	746878	0	0
2024-04-28 00:55:32			0	34282	0	0	0	16963	15610	152302	27223	955785	38045	106146	0	0	8187	746151	0	0
2024-04-28 00:56:32			0	34332	0	0	0	16968	15600	152286	27254	955769	38044	106148	0	0	8189	743743	0	0
2024-04-28 00:57:32			0	34320	0	0	0	16966	15590	152178	27135	955734	38034	106147	0	0	8189	744370	0	0
2024-04-28 00:58:32			0	34304	0	0	0	16961	15600	152234	27436	955750	38034	106145	0	0	8188	745113	0	0
2024-04-28 00:59:32			0	34305	0	0	0	16958	15600	152254	27177	955750	38034	106144	0	0	8188	745065	0	0
2024-04-28 01:00:32			0	34288	0	0	0	16958	15600	152466	27059	955716	38023	106144	0	0	8187	745898	0	0
2024-04-28 01:01:32			0	34284	0	0	0	16961	15600	152426	27348	955698	38023	106145	0	0	8187	746094	0	0
2024-04-28 01:02:32			0	34240	0	0	0	16958	15610	152502	26949	955732	38034	106144	0	0	8184	748213	0	0
2024-04-28 01:03:32			0	34215	0	0	0	16966	15600	152670	27258	955777	38034	106147	0	0	8183	749482	0	0
2024-04-28 01:04:32			0	34208	0	0	0	16961	15580	152702	27339	955699	38043	106145	0	0	8182	749908	0	0
2024-04-28 01:05:32			0	34198	0	0	0	16966	15590	152842	27119	955734	38044	106147	0	0	8182	750359	0	0
2024-04-28 01:06:32			0	34189	0	0	0	16971	15590	152934	27448	955707	38034	106149	0	0	8181	750803	0	0
2024-04-28 01:07:32			0	34192	0	0	0	16953	15580	152850	26956	955673	38033	106142	0	0	8182	750695	0	0
2024-04-28 01:08:32			0	34196	0	0	0	16955	15600	152970	27163	955663	38044	106143	0	0	8182	750418	0	0
2024-04-28 01:09:32			0	34204	0	0	0	16966	15590	152834	27355	955734	38034	106147	0	0	8182	750064	0	0
2024-04-28 01:10:32			0	34204	0	0	0	16958	15590	152866	27144	955734	38034	106144	0	0	8182	750064	0	0
2024-04-28 01:11:32			0	34192	0	0	0	16955	15590	152814	27182	955681	38034	106143	0	0	8182	750655	0	0
2024-04-28 01:12:32			0	34203	0	0	0	16953	15580	152734	27374	955699	38043	106142	0	0	8182	750154	0	0
2024-04-28 01:13:32			0	34209	0	0	0	16953	15580	152754	27194	955699	38022	106142	0	0	8183	749858	0	0
2024-04-28 01:14:32			0	34228	0	0	0	16948	15580	152682	27225	955726	38043	106140	0	0	8184	748924	0	0
2024-04-28 01:15:32			0	34223	0	0	0	16948	15600	152594	27203	955769	38044	106140	0	0	8183	749089	0	0
2024-04-28 01:16:32			0	34257	0	0	0	16948	15600	152570	27448	955742	38034	106140	0	0	8185	747418	0	0
2024-04-28 01:17:32			0	34273	0	0	0	16953	15590	152442	27015	955734	38023	106142	0	0	8186	746673	0	0
2024-04-28 01:18:32			0	34306	0	0	0	16945	15580	152338	27078	955699	38022	106139	0	0	8188	745096	0	0
2024-04-28 01:19:32			0	34306	0	0	0	16953	15580	152254	27499	955673	38033	106142	0	0	8188	745096	0	0
2024-04-28 01:20:32			0	34356	0	0	0	16948	15590	152203	27341	955707	38044	106140	0	0	8191	742610	0	0
2024-04-28 01:21:32			0	34361	0	0	0	16950	15590	152067	27203	955681	38044	106141	0	0	8191	742366	0	0
2024-04-28 01:22:32			0	34369	0	0	0	16945	15580	152075	27050	955717	38042	106139	0	0	8192	742015	0	0
2024-04-28 01:23:32			0	34364	0	0	0	16935	15580	152123	27220	955726	38033	106135	0	0	8192	742260	0	0
2024-04-28 01:24:32			0	34368	0	0	0	16935	15580	152139	27144	955638	38032	106135	0	0	8192	742064	0	0
2024-04-28 01:25:32			0	34334	0	0	0	16942	15580	152222	27190	955612	38042	106138	0	0	8190	743726	0	0
2024-04-28 01:26:32			0	34322	0	0	0	16940	15580	152338	27072	955717	38032	106137	0	0	8189	744313	0	0
2024-04-28 01:27:32			0	34292	0	0	0	16945	15580	152374	27008	955638	38021	106139	0	0	8187	745782	0	0
2024-04-28 01:28:32			0	34282	0	0	0	16937	15570	152434	27114	955630	38042	106136	0	0	8187	746312	0	0
2024-04-28 01:29:32			0	34266	0	0	0	16945	15570	152498	26977	955675	38021	106139	0	0	8186	747097	0	0
2024-04-28 01:30:32			0	34258	0	0	0	16937	15560	152526	27086	955693	38031	106136	0	0	8186	747530	0	0
2024-04-28 01:31:32			0	34244	0	0	0	16948	15570	152622	27135	955622	38021	106140	0	0	8185	748177	0	0
2024-04-28 01:32:32			0	34220	0	0	0	16935	15570	152734	27199	955675	38032	106135	0	0	8183	749357	0	0
2024-04-28 01:33:32			0	34209	0	0	0	16945	15560	152746	27119	955632	38041	106139	0	0	8183	749939	0	0
2024-04-28 01:34:32			0	34193	0	0	0	16940	15570	152870	27187	955648	38032	106137	0	0	8182	750687	0	0
2024-04-28 01:35:32			0	34181	0	0	0	16927	15580	152966	27199	955673	38033	106132	0	0	8181	751237	0	0
2024-04-28 01:36:32			0	34169	0	0	0	16927	15560	152966	27287	955667	38020	106132	0	0	8181	751910	0	0
2024-04-28 01:37:32			0	34154	0	0	0	16935	15560	153026	27474	955614	38041	106135	0	0	8180	752650	0	0
2024-04-28 01:38:32			0	34150	0	0	0	16935	15560	153066	26911	955640	38031	106135	0	0	8179	752848	0	0
2024-04-28 01:39:32			0	34173	0	0	0	16942	15560	152970	27177	955632	38030	106138	0	0	8181	751713	0	0
2024-04-28 01:40:32			0	34182	0	0	0	16932	15560	152942	27100	955606	38030	106134	0	0	8181	751269	0	0
2024-04-28 01:41:32			0	34197	0	0	0	16932	15560	152854	27078	955614	38020	106134	0	0	8182	750530	0	0
2024-04-28 01:42:32			0	34208	0	0	0	16935	15570	152654	27157	955604	38021	106135	0	0	8183	749948	0	0
2024-04-28 01:43:32			0	34235	0	0	0	16929	15560	152650	27410	955614	38031	106133	0	0	8184	748660	0	0
2024-04-28 01:44:32			0	34275	0	0	0	16929	15560	152478	27081	955640	38041	106133	0	0	8187	746696	0	0
2024-04-28 01:45:32			0	34281	0	0	0	16924	15560	152346	27274	955640	38031	106131	0	0	8187	746401	0	0
2024-04-28 01:46:32			0	34314	0	0	0	16927	15560	152274	27244	955606	38030	106132	0	0	8189	744784	0	0
2024-04-28 01:47:32			0	34314	0	0	0	16932	15550	152230	27324	955571	38030	106134	0	0	8189	744824	0	0
2024-04-28 01:48:32			0	34362	0	0	0	16932	15560	152067	27204	955685	38030	106134	0	0	8192	742437	0	0
2024-04-28 01:49:32			0	34362	0	0	0	16932	15560	151999	27331	955588	38031	106134	0	0	8192	742437	0	0
2024-04-28 01:50:32			0	34388	0	0	0	16927	15560	151975	27149	955606	38019	106132	0	0	8193	741168	0	0
2024-04-28 01:51:32			0	34384	0	0	0	16940	15550	152015	27189	955545	38030	106137	0	0	8193	741403	0	0
2024-04-28 01:52:32			0	34393	0	0	0	16924	15550	151979	27211	955650	38041	106131	0	0	8193	740964	0	0
2024-04-28 01:53:32			0	34387	0	0	0	16919	15550	151879	27213	955563	38029	106129	0	0	8193	741257	0	0
2024-04-28 01:54:32			0	34384	0	0	0	16927	15560	151931	27419	955606	38041	106132	0	0	8193	741363	0	0
2024-04-28 01:55:32			0	34339	0	0	0	16922	15550	151922	27524	955598	38030	106130	0	0	8190	743601	0	0
2024-04-28 01:56:32			0	34327	0	0	0	16927	15560	152270	27076	955606	38019	106132	0	0	8190	744148	0	0
2024-04-28 01:57:32			0	34297	0	0	0	16927	15550	152326	27338	955590	38018	106132	0	0	8188	745657	0	0
2024-04-28 01:58:32			0	34262	0	0	0	16922	15540	152418	27175	955600	38040	106130	0	0	8186	747414	0	0
2024-04-28 01:59:32			0	34257	0	0	0	16922	15550	152538	27159	955571	38030	106130	0	0	8186	747619	0	0
2024-04-28 02:00:32			0	34227	0	0	0	16924	15550	152630	27256	955598	38041	106131	0	0	8184	749094	0	0
2024-04-28 02:01:32			0	34214	0	0	0	16919	15550	152606	27542	955563	38040	106129	0	0	8183	749733	0	0
2024-04-28 02:02:32			0	34219	0	0	0	16927	15550	152558	27034	955616	38029	106132	0	0	8183	749487	0	0
2024-04-28 02:03:32			0	34218	0	0	0	16929	15550	152642	27310	955537	38040	106133	0	0	8183	749537	0	0
2024-04-28 02:04:32			0	34186	0	0	0	16927	15550	152782	27435	955590	38018	106132	0	0	8181	751112	0	0
2024-04-28 02:05:32			0	34171	0	0	0	16922	15550	152886	27244	955590	38040	106130	0	0	8181	751852	0	0
2024-04-28 02:06:32			0	34133	0	0	0	16929	15550	152982	27192	955598	38030	106133	0	0	8178	753728	0	0
2024-04-28 02:07:32			0	34101	0	0	0	16924	15540	153078	27249	955581	38018	106131	0	0	8177	755351	0	0
2024-04-28 02:08:32			0	34077	0	0	0	16916	15550	153302	26991	955598	38019	106128	0	0	8175	756500	0	0
2024-04-28 02:09:32			0	34065	0	0	0	16922	15550	153314	27274	955563	38029	106130	0	0	8175	757095	0	0
2024-04-28 02:10:32			0	34086	0	0	0	16919	15550	153418	27246	955563	38040	106129	0	0	8176	756054	0	0
2024-04-28 02:11:32			0	34076	0	0	0	16916	15550	153298	27627	955624	38030	106128	0	0	8175	756549	0	0
2024-04-28 02:12:32			0	34073	0	0	0	16916	15550	153250	27415	955590	38040	106128	0	0	8175	756698	0	0
2024-04-28 02:13:32			0	34070	0	0	0	16927	15550	153258	27315	955624	38030	106132	0	0	8175	756847	0	0
2024-04-28 02:14:32			0	34062	0	0	0	16919	15550	153366	27241	955669	38040	106129	0	0	8174	757243	0	0
2024-04-28 02:15:32			0	34044	0	0	0	16916	15550	153398	27428	955590	38040	106128	0	0	8173	758137	0	0
2024-04-28 02:16:32			0	34016	0	0	0	16916	15550	153554	27254	955590	38040	106128	0	0	8172	759528	0	0
2024-04-28 02:17:32			0	33995	0	0	0	16911	15540	153634	27358	955555	38051	106126	0	0	8171	760613	0	0
2024-04-28 02:18:32			0	33987	0	0	0	16911	15540	153602	27319	955573	38029	106126	0	0	8170	761012	0	0
2024-04-28 02:19:32			0	33961	0	0	0	16906	15550	153666	27293	955598	38041	106124	0	0	8169	762266	0	0
2024-04-28 02:20:32			0	33970	0	0	0	16906	15530	153726	26958	955592	38017	106124	0	0	8169	761900	0	0
2024-04-28 02:21:32			0	33970	0	0	0	16909	15540	153602	27187	955521	38029	106125	0	0	8169	761859	0	0
2024-04-28 02:22:32			0	33978	0	0	0	16914	15530	153602	27336	955539	38029	106127	0	0	8170	761501	0	0
2024-04-28 02:23:32			0	33984	0	0	0	16906	15550	153622	27346	955563	38029	106124	0	0	8170	761120	0	0
2024-04-28 02:24:32			0	33993	0	0	0	16901	15530	153662	27300	955557	38028	106122	0	0	8171	760754	0	0
2024-04-28 02:25:32			0	33974	0	0	0	16909	15550	153750	27260	955590	38040	106125	0	0	8169	761618	0	0
2024-04-28 02:26:32			0	33963	0	0	0	16911	15540	153674	27170	955529	38018	106126	0	0	8169	762207	0	0
2024-04-28 02:27:32			0	33946	0	0	0	16914	15550	153746	27338	955563	38029	106127	0	0	8168	763015	0	0
2024-04-28 02:28:32			0	33942	0	0	0	16898	15540	153794	27542	955573	38029	106121	0	0	8168	763255	0	0
2024-04-28 02:29:32			0	33920	0	0	0	16903	15540	153834	27300	955494	38029	106123	0	0	8166	764354	0	0
2024-04-28 02:30:32			0	33890	0	0	0	16896	15540	154010	27085	955468	38029	106120	0	0	8165	765854	0	0
2024-04-28 02:31:32			0	33879	0	0	0	16906	15530	154170	27118	955531	38039	106124	0	0	8164	766446	0	0
2024-04-28 02:32:32			0	33851	0	0	0	16901	15540	154222	27434	955547	38029	106122	0	0	8162	767808	0	0
2024-04-28 02:33:32			0	33835	0	0	0	16898	15530	154282	27253	955539	38017	106121	0	0	8161	768652	0	0
2024-04-28 02:34:32			0	33837	0	0	0	16901	15540	154342	27216	955521	38029	106122	0	0	8162	768510	0	0
2024-04-28 02:35:32			0	33829	0	0	0	16898	15540	154342	27779	955600	38029	106121	0	0	8161	768912	0	0
2024-04-28 02:36:32			0	33834	0	0	0	16883	15530	154426	27128	955531	38039	106115	0	0	8162	768702	0	0
2024-04-28 02:37:32			0	33817	0	0	0	16890	15530	154406	27152	955531	38028	106118	0	0	8161	769556	0	0
2024-04-28 02:38:32			0	33808	0	0	0	16896	15530	154394	27086	955504	38028	106120	0	0	8160	770009	0	0
2024-04-28 02:39:32			0	33795	0	0	0	16893	15530	154466	27199	955504	38028	106119	0	0	8159	770662	0	0
2024-04-28 02:40:32			0	33787	0	0	0	16893	15530	154418	26920	955565	38050	106119	0	0	8159	771065	0	0
2024-04-28 02:41:32			0	33805	0	0	0	16890	15530	154430	27144	955504	38028	106118	0	0	8160	770159	0	0
2024-04-28 02:42:32			0	33784	0	0	0	16901	15530	154578	26956	955504	38028	106122	0	0	8158	771216	0	0
2024-04-28 02:43:32			0	33773	0	0	0	16890	15530	154618	27029	955504	38017	106118	0	0	8158	771769	0	0
2024-04-28 02:44:32			0	33755	0	0	0	16888	15530	154598	27100	955531	38017	106117	0	0	8157	772676	0	0
2024-04-28 02:45:32			0	33746	0	0	0	16885	15530	154678	27414	955513	38029	106116	0	0	8156	773130	0	0
2024-04-28 02:46:32			0	33746	0	0	0	16885	15520	154714	27313	955488	38027	106116	0	0	8156	773172	0	0
2024-04-28 02:47:32			0	33715	0	0	0	16883	15520	154866	27478	955444	38028	106115	0	0	8155	774736	0	0
2024-04-28 02:48:32			0	33684	0	0	0	16890	15510	154926	27216	955480	38027	106118	0	0	8153	776345	0	0
2024-04-28 02:49:32			0	33669	0	0	0	16883	15520	155082	27104	955488	38038	106115	0	0	8152	777063	0	0
2024-04-28 02:50:32			0	33664	0	0	0	16880	15520	155066	27435	955496	38017	106114	0	0	8152	777316	0	0
2024-04-28 02:51:32			0	33659	0	0	0	16877	15520	155118	27334	955496	38017	106113	0	0	8151	777569	0	0
2024-04-28 02:52:32			0	33647	0	0	0	16877	15510	155166	27206	955480	38027	106113	0	0	8151	778219	0	0
2024-04-28 02:53:32			0	33632	0	0	0	16875	15510	155262	27256	955480	38048	106112	0	0	8150	778980	0	0
2024-04-28 02:54:32			0	33609	0	0	0	16844	15510	155306	27313	955480	38038	106100	0	0	8149	780147	0	0
2024-04-28 02:55:32			0	33587	0	0	0	16841	15510	155302	27659	955419	38015	106099	0	0	8148	781266	0	0
2024-04-28 02:56:32			0	33581	0	0	0	16844	15500	155430	27258	955358	38015	106100	0	0	8147	781613	0	0
2024-04-28 02:57:32			0	33567	0	0	0	16838	15500	155498	27026	955358	38026	106098	0	0	8147	782325	0	0
2024-04-28 02:58:32			0	33556	0	0	0	16836	15500	155561	27171	955297	38014	106097	0	0	8146	782885	0	0
2024-04-28 02:59:32			0	33541	0	0	0	16825	15500	155649	27377	955385	38026	106093	0	0	8145	783650	0	0
2024-04-28 03:00:32			0	33522	0	0	0	16836	15490	155649	27130	955334	38013	106097	0	0	8144	784661	0	0
2024-04-28 03:01:32			0	33522	0	0	0	16828	15490	155593	27326	955281	38013	106094	0	0	8144	784661	0	0
2024-04-28 03:02:32			0	33534	0	0	0	16828	15490	155673	27433	955281	38013	106094	0	0	8145	784049	0	0
2024-04-28 03:03:32			0	33535	0	0	0	16831	15480	155589	27317	955273	38024	106095	0	0	8145	784040	0	0
2024-04-28 03:04:32			0	33531	0	0	0	16828	15480	155641	27419	955238	38024	106094	0	0	8144	784244	0	0
2024-04-28 03:05:32			0	33542	0	0	0	16825	15490	155625	27405	955228	38013	106093	0	0	8145	783641	0	0
2024-04-28 03:06:32			0	33563	0	0	0	16825	15470	155565	27360	955230	38034	106093	0	0	8146	782655	0	0
2024-04-28 03:07:32			0	33548	0	0	0	16828	15480	155533	27156	955291	38024	106094	0	0	8145	783377	0	0
2024-04-28 03:08:32			0	33601	0	0	0	16828	15480	155478	27249	955299	38035	106094	0	0	8149	780680	0	0
2024-04-28 03:09:32			0	33590	0	0	0	16831	15480	155506	27268	955238	38024	106095	0	0	8148	781239	0	0
2024-04-28 03:10:32			0	33588	0	0	0	16836	15480	155394	27026	955326	38001	106097	0	0	8148	781341	0	0
2024-04-28 03:11:32			0	33599	0	0	0	16833	15470	155366	26998	955230	38023	106096	0	0	8148	780824	0	0
2024-04-28 03:12:32			0	33597	0	0	0	16838	15480	155242	26783	955291	38024	106098	0	0	8148	780883	0	0
2024-04-28 03:13:32			0	33610	0	0	0	16836	15470	155362	27008	955248	38023	106097	0	0	8149	780264	0	0
2024-04-28 03:14:32			0	33620	0	0	0	16841	15480	155262	27346	955344	38035	106099	0	0	8150	779715	0	0
2024-04-28 03:15:32			0	33613	0	0	0	16838	15470	155218	27230	955283	38023	106098	0	0	8149	780112	0	0
2024-04-28 03:16:32			0	33612	0	0	0	16841	15470	155338	27289	955301	38012	106099	0	0	8149	780163	0	0
2024-04-28 03:17:32			0	33628	0	0	0	16838	15480	155254	27369	955317	38024	106098	0	0	8150	779309	0	0
2024-04-28 03:18:32			0	33627	0	0	0	16825	15470	155206	27289	955275	38034	106093	0	0	8150	779401	0	0
2024-04-28 03:19:32			0	33634	0	0	0	16833	15470	155226	27156	955336	38023	106096	0	0	8150	779046	0	0
2024-04-28 03:20:32			0	33623	0	0	0	16825	15460	155178	27182	955214	38011	106093	0	0	8150	779646	0	0
2024-04-28 03:21:32			0	33618	0	0	0	16825	15470	155386	27196	955283	38023	106093	0	0	8150	779858	0	0
2024-04-28 03:22:32			0	33604	0	0	0	16812	15480	155314	27554	955238	38024	106088	0	0	8149	780527	0	0
2024-04-28 03:23:32			0	33642	0	0	0	16820	15460	155374	27166	955214	38022	106091	0	0	8151	778682	0	0
2024-04-28 03:24:32			0	33611	0	0	0	16823	15460	155238	27412	955206	38022	106092	0	0	8149	780256	0	0
2024-04-28 03:25:32			0	33618	0	0	0	16831	15460	155246	27133	955240	38022	106095	0	0	8149	779900	0	0
2024-04-28 03:26:32			0	33650	0	0	0	16820	15470	155286	27289	955248	38023	106091	0	0	8152	778234	0	0
2024-04-28 03:27:32			0	33631	0	0	0	16820	15460	155194	27282	955188	38022	106091	0	0	8150	779240	0	0
2024-04-28 03:28:32			0	33637	0	0	0	16823	15460	155218	27076	955240	38022	106092	0	0	8151	778936	0	0
2024-04-28 03:29:32			0	33631	0	0	0	16815	15460	155254	27322	955206	38033	106089	0	0	8151	779240	0	0
2024-04-28 03:30:32			0	33615	0	0	0	16799	15450	155274	27138	955171	38021	106083	0	0	8150	780094	0	0
2024-04-28 03:31:32			0	33633	0	0	0	16812	15460	155250	27150	955153	38000	106088	0	0	8151	779139	0	0
2024-04-28 03:32:32			0	33629	0	0	0	16815	15460	155234	27211	955232	38022	106089	0	0	8150	779341	0	0
2024-04-28 03:33:32			0	33604	0	0	0	16815	15460	155234	27228	955188	38033	106089	0	0	8149	780611	0	0
2024-04-28 03:34:32			0	33618	0	0	0	16810	15450	155310	27007	955171	38021	106087	0	0	8150	779942	0	0
2024-04-28 03:35:32			0	33598	0	0	0	16812	15450	155282	27218	955242	38010	106088	0	0	8149	780958	0	0
2024-04-28 03:36:32			0	33615	0	0	0	16818	15460	155334	27578	955180	38000	106090	0	0	8150	780052	0	0
2024-04-28 03:37:32			0	33624	0	0	0	16815	15450	155334	27483	955242	38021	106089	0	0	8150	779637	0	0
2024-04-28 03:38:32			0	33624	0	0	0	16812	15460	155190	27261	955153	38033	106088	0	0	8150	779595	0	0
2024-04-28 03:39:32			0	33655	0	0	0	16812	15440	155186	27646	955234	38009	106088	0	0	8152	778107	0	0
2024-04-28 03:40:32			0	33662	0	0	0	16812	15450	155190	27377	955163	38010	106088	0	0	8152	777710	0	0
2024-04-28 03:41:32			0	33692	0	0	0	16810	15440	154982	27362	955208	38020	106087	0	0	8154	776233	0	0
2024-04-28 03:42:32			0	33699	0	0	0	16815	15450	154894	27464	955171	38021	106089	0	0	8154	775837	0	0
2024-04-28 03:43:32			0	33723	0	0	0	16812	15460	154814	27407	955180	38011	106088	0	0	8156	774582	0	0
2024-04-28 03:44:32			0	33742	0	0	0	16805	15440	154786	27616	955155	38009	106085	0	0	8157	773706	0	0
2024-04-28 03:45:32			0	33746	0	0	0	16810	15440	154786	27601	955155	38020	106087	0	0	8157	773504	0	0
2024-04-28 03:46:32			0	33755	0	0	0	16807	15460	154622	27521	955127	38033	106086	0	0	8158	772967	0	0
2024-04-28 03:47:32			0	33780	0	0	0	16807	15440	154618	27635	955076	38020	106086	0	0	8159	771790	0	0
2024-04-28 03:48:32			0	33767	0	0	0	16802	15440	154542	27391	955155	38009	106084	0	0	8159	772446	0	0
2024-04-28 03:49:32			0	33773	0	0	0	16805	15450	154542	27545	955137	38010	106085	0	0	8159	772102	0	0
2024-04-28 03:50:32			0	33780	0	0	0	16807	15440	154538	27481	955129	38020	106086	0	0	8159	771790	0	0
2024-04-28 03:51:32			0	33791	0	0	0	16802	15440	154490	27479	955121	38020	106084	0	0	8160	771237	0	0
2024-04-28 03:52:32			0	33797	0	0	0	16794	15440	154518	27795	955129	38020	106081	0	0	8161	770935	0	0
2024-04-28 03:53:32			0	33827	0	0	0	16802	15430	154398	27613	955113	38019	106084	0	0	8162	769468	0	0
2024-04-28 03:54:32			0	33823	0	0	0	16799	15440	154214	27798	955094	38020	106083	0	0	8162	769627	0	0
2024-04-28 03:55:32			0	33858	0	0	0	16797	15430	154242	27481	955113	38030	106082	0	0	8164	767911	0	0
2024-04-28 03:56:32			0	33882	0	0	0	16792	15430	154010	27336	955165	37998	106080	0	0	8166	766708	0	0
2024-04-28 03:57:32			0	33883	0	0	0	16802	15430	153930	27255	955086	38019	106084	0	0	8165	766658	0	0
2024-04-28 03:58:32			0	33925	0	0	0	16794	15430	153878	27564	955113	38008	106081	0	0	8168	764557	0	0
2024-04-28 03:59:32			0	33917	0	0	0	16792	15430	153850	27589	955060	38019	106080	0	0	8168	764956	0	0
2024-04-28 04:00:32			0	33928	0	0	0	16792	15430	153778	27689	955086	38019	106080	0	0	8168	764406	0	0
2024-04-28 04:01:32			0	33932	0	0	0	16794	15430	153786	27855	955078	38019	106081	0	0	8168	764207	0	0
2024-04-28 04:02:32			0	33949	0	0	0	16794	15430	153698	27528	955078	38019	106081	0	0	8169	763357	0	0
2024-04-28 04:03:32			0	33960	0	0	0	16789	15420	153714	27303	955070	38018	106079	0	0	8170	762850	0	0
2024-04-28 04:04:32			0	33961	0	0	0	16784	15430	153726	27346	955078	37998	106077	0	0	8170	762759	0	0
2024-04-28 04:05:32			0	33957	0	0	0	16792	15430	153722	27365	955052	37998	106080	0	0	8170	762958	0	0
2024-04-28 04:06:32			0	33960	0	0	0	16787	15420	153718	27559	955070	37997	106078	0	0	8170	762850	0	0
2024-04-28 04:07:32			0	33983	0	0	0	16792	15430	153586	27557	955131	38019	106080	0	0	8171	761661	0	0
2024-04-28 04:08:32			0	34003	0	0	0	16787	15420	153446	27597	955044	38007	106078	0	0	8173	760706	0	0
2024-04-28 04:09:32			0	34010	0	0	0	16779	15430	153454	27237	955078	38008	106075	0	0	8173	760317	0	0
2024-04-28 04:10:32			0	34011	0	0	0	16797	15420	153410	27473	955044	38018	106082	0	0	8173	760308	0	0
2024-04-28 04:11:32			0	34022	0	0	0	16792	15420	153362	27268	955062	38018	106080	0	0	8174	759761	0	0
2024-04-28 04:12:32			0	34040	0	0	0	16792	15420	153358	27189	955070	38018	106080	0	0	8175	758866	0	0
2024-04-28 04:13:32			0	34019	0	0	0	16787	15420	153374	27552	955036	38018	106078	0	0	8174	759910	0	0
2024-04-28 04:14:32			0	34038	0	0	0	16781	15420	153382	27400	955062	38018	106076	0	0	8175	758965	0	0
2024-04-28 04:15:32			0	34032	0	0	0	16789	15420	153350	27481	955017	38041	106079	0	0	8174	759263	0	0
2024-04-28 04:16:32			0	34041	0	0	0	16789	15420	153358	27684	955036	38018	106079	0	0	8175	758816	0	0
2024-04-28 04:17:32			0	34047	0	0	0	16789	15420	153258	27621	955096	38007	106079	0	0	8175	758518	0	0
2024-04-28 04:18:32			0	34072	0	0	0	16781	15410	153194	27500	955080	38018	106076	0	0	8177	757318	0	0
2024-04-28 04:19:32			0	34083	0	0	0	16781	15420	153106	27320	955062	38018	106076	0	0	8177	756731	0	0
2024-04-28 04:20:32			0	34096	0	0	0	16787	15410	153078	27281	955054	38029	106078	0	0	8178	756128	0	0
2024-04-28 04:21:32			0	34105	0	0	0	16779	15420	152950	27341	955088	38007	106075	0	0	8179	755641	0	0
2024-04-28 04:22:32			0	34119	0	0	0	16776	15420	152946	27388	955009	38018	106074	0	0	8180	754948	0	0
2024-04-28 04:23:32			0	34160	0	0	0	16781	15420	152846	27294	955009	38018	106076	0	0	8182	752921	0	0
2024-04-28 04:24:32			0	34161	0	0	0	16784	15410	152722	27526	955080	38018	106077	0	0	8182	752912	0	0
2024-04-28 04:25:32			0	34162	0	0	0	16779	15410	152734	27301	955080	38029	106075	0	0	8182	752863	0	0
2024-04-28 04:26:32			0	34189	0	0	0	16779	15410	152662	27414	955027	38007	106075	0	0	8183	751530	0	0
2024-04-28 04:27:32			0	34175	0	0	0	16787	15410	152674	27479	955046	38018	106078	0	0	8183	752221	0	0
2024-04-28 04:28:32			0	34193	0	0	0	16768	15420	152694	27416	955036	38029	106071	0	0	8184	751293	0	0
2024-04-28 04:29:32			0	34195	0	0	0	16774	15410	152626	27698	955019	37996	106073	0	0	8184	751234	0	0
2024-04-28 04:30:32			0	34219	0	0	0	16774	15410	152606	27637	954967	38018	106073	0	0	8185	750052	0	0
2024-04-28 04:31:32			0	34204	0	0	0	16761	15400	152538	27358	954958	38006	106068	0	0	8185	750831	0	0
2024-04-28 04:32:32			0	34198	0	0	0	16766	15410	152486	27246	954940	38018	106070	0	0	8184	751086	0	0
2024-04-28 04:33:32			0	34201	0	0	0	16766	15400	152554	27421	955090	38006	106070	0	0	8184	750979	0	0
2024-04-28 04:34:32			0	34179	0	0	0	16761	15410	152674	27348	955027	38018	106068	0	0	8183	752023	0	0
2024-04-28 04:35:32			0	34178	0	0	0	16758	15410	152678	27557	955046	38018	106067	0	0	8183	752073	0	0
2024-04-28 04:36:32			0	34186	0	0	0	16761	15410	152630	27490	954993	38018	106068	0	0	8184	751678	0	0
2024-04-28 04:37:32			0	34186	0	0	0	16766	15410	152662	27130	954940	38018	106070	0	0	8184	751678	0	0
2024-04-28 04:38:32			0	34175	0	0	0	16758	15400	152722	27319	954985	38017	106067	0	0	8183	752261	0	0
2024-04-28 04:39:32			0	34208	0	0	0	16761	15400	152538	27601	954977	38027	106068	0	0	8185	750634	0	0
2024-04-28 04:40:32			0	34223	0	0	0	16763	15410	152450	27460	954993	38029	106069	0	0	8186	749855	0	0
2024-04-28 04:41:32			0	34244	0	0	0	16766	15400	152378	27492	954977	38005	106070	0	0	8187	748862	0	0
2024-04-28 04:42:32			0	34223	0	0	0	16750	15400	152522	27352	954985	38028	106064	0	0	8186	749895	0	0
2024-04-28 04:43:32			0	34216	0	0	0	16755	15390	152502	27512	955048	38016	106066	0	0	8185	750280	0	0
2024-04-28 04:44:32			0	34172	0	0	0	16763	15400	152658	27209	954958	38017	106069	0	0	8183	752409	0	0
2024-04-28 04:45:32			0	34131	0	0	0	16761	15400	152910	27537	954977	38016	106068	0	0	8180	754435	0	0
2024-04-28 04:46:32			0	34113	0	0	0	16755	15390	152842	27492	954916	37995	106066	0	0	8179	755367	0	0
2024-04-28 04:47:32			0	34093	0	0	0	16750	15400	153014	27381	955003	38016	106064	0	0	8178	756317	0	0
2024-04-28 04:48:32			0	34095	0	0	0	16753	15400	152950	27329	955003	38005	106065	0	0	8178	756218	0	0
2024-04-28 04:49:32			0	34104	0	0	0	16758	15400	153058	27559	954932	38017	106067	0	0	8179	755772	0	0
2024-04-28 04:50:32			0	34076	0	0	0	16755	15390	153174	27369	954942	38016	106066	0	0	8177	757201	0	0
2024-04-28 04:51:32			0	34055	0	0	0	16755	15400	153198	27445	954977	38016	106066	0	0	8176	758202	0	0
2024-04-28 04:52:32			0	34013	0	0	0	16755	15400	153370	27274	954985	38006	106066	0	0	8174	760290	0	0
2024-04-28 04:53:32			0	33972	0	0	0	16753	15400	153630	27305	954950	38005	106065	0	0	8171	762333	0	0
2024-04-28 04:54:32			0	33942	0	0	0	16753	15390	153746	27412	954934	38016	106065	0	0	8170	763871	0	0
2024-04-28 04:55:32			0	33911	0	0	0	16748	15390	153798	27599	954995	38005	106063	0	0	8168	765421	0	0
2024-04-28 04:56:32			0	33888	0	0	0	16745	15390	153930	27460	954942	38027	106062	0	0	8166	766573	0	0
2024-04-28 04:57:32			0	33887	0	0	0	16750	15390	154006	27277	954969	38016	106064	0	0	8166	766623	0	0
2024-04-28 04:58:32			0	33862	0	0	0	16748	15390	154026	27310	954942	38016	106063	0	0	8165	767876	0	0
2024-04-28 04:59:32			0	33844	0	0	0	16748	15390	154258	27230	954908	38005	106063	0	0	8164	768779	0	0
2024-04-28 05:00:32			0	33816	0	0	0	16761	15390	154294	27272	954942	38005	106068	0	0	8162	770186	0	0
2024-04-28 05:01:32			0	33814	0	0	0	16748	15380	154298	27588	954952	38004	106063	0	0	8162	770328	0	0
2024-04-28 05:02:32			0	33800	0	0	0	16753	15390	154354	27052	954908	38027	106065	0	0	8161	770991	0	0
2024-04-28 05:03:32			0	33817	0	0	0	16750	15380	154314	27242	954970	38014	106064	0	0	8162	770177	0	0
2024-04-28 05:04:32			0	33817	0	0	0	16750	15390	154262	27485	954960	38016	106064	0	0	8162	770136	0	0
2024-04-28 05:05:32			0	33862	0	0	0	16755	15400	154102	27400	954924	38005	106066	0	0	8165	767835	0	0
2024-04-28 05:06:32			0	33878	0	0	0	16755	15390	154038	27308	954942	38016	106066	0	0	8166	767074	0	0
2024-04-28 05:07:32			0	33898	0	0	0	16763	15400	153914	27433	954977	38016	106069	0	0	8167	766031	0	0
2024-04-28 05:08:32			0	33884	0	0	0	16750	15390	153990	27215	954908	38016	106064	0	0	8166	766773	0	0
2024-04-28 05:09:32			0	33903	0	0	0	16758	15390	153918	27370	954960	38016	106067	0	0	8167	765822	0	0
2024-04-28 05:10:32			0	33918	0	0	0	16753	15390	153854	27180	954916	38005	106065	0	0	8168	765071	0	0
2024-04-28 05:11:32			0	33925	0	0	0	16755	15390	153830	27398	954969	38016	106066	0	0	8168	764721	0	0
2024-04-28 05:12:32			0	33921	0	0	0	16750	15390	153742	27554	954934	38005	106064	0	0	8168	764921	0	0
2024-04-28 05:13:32			0	33933	0	0	0	16748	15380	153698	27443	954891	38014	106063	0	0	8169	764362	0	0
2024-04-28 05:14:32			0	33960	0	0	0	16742	15390	153594	27447	954960	38016	106061	0	0	8171	762973	0	0
2024-04-28 05:15:32			0	33992	0	0	0	16737	15400	153558	27659	954924	37995	106059	0	0	8173	761336	0	0
2024-04-28 05:16:32			0	34004	0	0	0	16742	15380	153374	27301	954952	38004	106061	0	0	8173	760820	0	0
2024-04-28 05:17:32			0	34032	0	0	0	16740	15390	153242	27105	954908	38005	106060	0	0	8175	759386	0	0
2024-04-28 05:18:32			0	34043	0	0	0	16737	15380	153214	27310	954952	38015	106059	0	0	8176	758880	0	0
2024-04-28 05:19:32			0	34054	0	0	0	16740	15390	153146	27379	954908	38016	106060	0	0	8176	758293	0	0
2024-04-28 05:20:32			0	34072	0	0	0	16732	15380	153046	27248	954979	38015	106057	0	0	8177	757440	0	0
2024-04-28 05:21:32			0	34114	0	0	0	16732	15380	152966	27124	954891	38003	106057	0	0	8180	755358	0	0
2024-04-28 05:22:32			0	34121	0	0	0	16742	15370	152934	27588	954936	38003	106061	0	0	8180	755052	0	0
2024-04-28 05:23:32			0	34133	0	0	0	16742	15370	152946	27473	954962	38014	106061	0	0	8181	754458	0	0
2024-04-28 05:24:32			0	34117	0	0	0	16737	15380	152850	27692	954891	38014	106059	0	0	8180	755209	0	0
2024-04-28 05:25:32			0	34121	0	0	0	16742	15380	152982	27443	954873	38026	106061	0	0	8180	755011	0	0
2024-04-28 05:26:32			0	34102	0	0	0	16740	15380	152938	27537	954891	37993	106060	0	0	8179	755952	0	0
2024-04-28 05:27:32			0	34099	0	0	0	16740	15380	153026	27492	954926	38026	106060	0	0	8179	756101	0	0
2024-04-28 05:28:32			0	34088	0	0	0	16742	15370	153114	27275	954909	38014	106061	0	0	8178	756687	0	0
2024-04-28 05:29:32			0	34077	0	0	0	16745	15370	153214	27261	954909	38003	106062	0	0	8177	757232	0	0
2024-04-28 05:30:32			0	34036	0	0	0	16745	15370	153150	27835	954883	38003	106062	0	0	8175	759269	0	0
2024-04-28 05:31:32			0	34026	0	0	0	16737	15380	153230	27414	954900	38015	106059	0	0	8175	759725	0	0
2024-04-28 05:32:32			0	34025	0	0	0	16735	15390	153298	27419	954855	38016	106058	0	0	8175	759734	0	0
2024-04-28 05:33:32			0	34028	0	0	0	16732	15380	153314	27215	954891	38014	106057	0	0	8175	759626	0	0
2024-04-28 05:34:32			0	34006	0	0	0	16732	15370	153302	27717	954883	38014	106057	0	0	8173	760761	0	0
2024-04-28 05:35:32			0	34002	0	0	0	16729	15370	153338	27692	954909	38025	106056	0	0	8173	760961	0	0
2024-04-28 05:36:32			0	33998	0	0	0	16732	15380	153370	27885	954891	37993	106057	0	0	8173	761119	0	0
2024-04-28 05:37:32			0	33980	0	0	0	16724	15370	153482	27365	954822	38013	106054	0	0	8172	762057	0	0
2024-04-28 05:38:32			0	33969	0	0	0	16724	15370	153530	27587	954849	37992	106054	0	0	8171	762605	0	0
2024-04-28 05:39:32			0	33945	0	0	0	16727	15370	153630	27390	954883	38003	106055	0	0	8170	763804	0	0
2024-04-28 05:40:32			0	33941	0	0	0	16727	15370	153714	27422	954875	38013	106055	0	0	8170	764003	0	0
2024-04-28 05:41:32			0	33917	0	0	0	16724	15370	153722	27407	954901	38013	106054	0	0	8168	765203	0	0
2024-04-28 05:42:32			0	33943	0	0	0	16716	15370	153718	27448	954830	38003	106051	0	0	8170	763903	0	0
2024-04-28 05:43:32			0	33965	0	0	0	16716	15360	153626	27568	954832	38001	106051	0	0	8171	762846	0	0
2024-04-28 05:44:32			0	33938	0	0	0	16714	15370	153710	27312	954849	38002	106050	0	0	8170	764153	0	0
2024-04-28 05:45:32			0	33955	0	0	0	16706	15370	153634	27145	954875	38002	106047	0	0	8171	763304	0	0
2024-04-28 05:46:32			0	33943	0	0	0	16711	15360	153578	27639	954840	37992	106049	0	0	8170	763944	0	0
2024-04-28 05:47:32			0	33952	0	0	0	16711	15360	153706	27294	954885	38001	106049	0	0	8171	763495	0	0
2024-04-28 05:48:32			0	33946	0	0	0	16706	15360	153622	27424	954806	38001	106047	0	0	8170	763795	0	0
2024-04-28 05:49:32			0	33932	0	0	0	16703	15360	153650	27241	954806	38001	106046	0	0	8170	764494	0	0
2024-04-28 05:50:32			0	33921	0	0	0	16709	15370	153706	27310	954875	38013	106048	0	0	8169	765003	0	0
2024-04-28 05:51:32			0	33916	0	0	0	16709	15350	153750	27519	954745	37991	106048	0	0	8169	765336	0	0
2024-04-28 05:52:32			0	33924	0	0	0	16714	15350	153682	27287	954851	38001	106050	0	0	8169	764935	0	0
2024-04-28 05:53:32			0	33910	0	0	0	16714	15350	153786	27308	954745	38023	106050	0	0	8168	765636	0	0
2024-04-28 05:54:32			0	33907	0	0	0	16709	15360	153802	27270	954780	38013	106048	0	0	8168	765745	0	0
2024-04-28 05:55:32			0	33889	0	0	0	16706	15360	153910	27357	954806	38013	106047	0	0	8167	766646	0	0
2024-04-28 05:56:32			0	33861	0	0	0	16709	15360	153898	27486	954780	38001	106048	0	0	8165	768050	0	0
2024-04-28 05:57:32			0	33879	0	0	0	16709	15350	153982	27012	954790	38012	106048	0	0	8166	767188	0	0
2024-04-28 05:58:32			0	33877	0	0	0	16711	15350	153950	27597	954824	38012	106049	0	0	8166	767289	0	0
2024-04-28 05:59:32			0	33885	0	0	0	16716	15350	153878	27398	954790	38001	106051	0	0	8167	766888	0	0
2024-04-28 06:00:32			0	33891	0	0	0	16714	15340	153994	27348	954755	38012	106050	0	0	8167	766628	0	0
2024-04-28 06:01:32			0	33889	0	0	0	16709	15350	153894	27350	954798	38023	106048	0	0	8167	766687	0	0
2024-04-28 06:02:32			0	33882	0	0	0	16709	15350	153974	27395	954772	38001	106048	0	0	8167	767038	0	0
2024-04-28 06:03:32			0	33898	0	0	0	16706	15350	153910	27467	954816	37991	106047	0	0	8168	766237	0	0
2024-04-28 06:04:32			0	33913	0	0	0	16696	15340	153874	27229	954808	38023	106043	0	0	8169	765527	0	0
2024-04-28 06:05:32			0	33916	0	0	0	16709	15350	153878	27076	954816	38023	106048	0	0	8169	765336	0	0
2024-04-28 06:06:32			0	33895	0	0	0	16706	15350	153838	27573	954816	38001	106047	0	0	8167	766387	0	0
2024-04-28 06:07:32			0	33905	0	0	0	16703	15340	153738	27229	954773	38011	106046	0	0	8168	765927	0	0
2024-04-28 06:08:32			0	33911	0	0	0	16698	15340	153762	27381	954782	37991	106044	0	0	8168	765627	0	0
2024-04-28 06:09:32			0	33909	0	0	0	16701	15340	153842	27419	954747	38000	106045	0	0	8168	765727	0	0
2024-04-28 06:10:32			0	33891	0	0	0	16701	15340	153978	27324	954773	38022	106045	0	0	8167	766628	0	0
2024-04-28 06:11:32			0	33871	0	0	0	16701	15350	154094	27422	954763	38001	106045	0	0	8166	767590	0	0
2024-04-28 06:12:32			0	33844	0	0	0	16701	15340	154210	27072	954782	38012	106045	0	0	8164	768986	0	0
2024-04-28 06:13:32			0	33809	0	0	0	16701	15340	154270	27121	954852	38000	106045	0	0	8162	770745	0	0
2024-04-28 06:14:32			0	33838	0	0	0	16706	15340	154318	27060	954773	38011	106047	0	0	8164	769287	0	0
2024-04-28 06:15:32			0	33824	0	0	0	16698	15340	154294	27604	954782	37991	106044	0	0	8163	769991	0	0
2024-04-28 06:16:32			0	33835	0	0	0	16698	15340	154198	27315	954755	38012	106044	0	0	8164	769438	0	0
2024-04-28 06:17:32			0	33876	0	0	0	16701	15340	153982	27372	954773	38000	106045	0	0	8166	767380	0	0
2024-04-28 06:18:32			0	33906	0	0	0	16698	15340	153898	27479	954800	38011	106044	0	0	8168	765877	0	0
2024-04-28 06:19:32			0	33934	0	0	0	16698	15340	153774	27218	954808	38012	106044	0	0	8170	764477	0	0
2024-04-28 06:20:32			0	33975	0	0	0	16698	15340	153646	27490	954747	38011	106044	0	0	8172	762429	0	0
2024-04-28 06:21:32			0	33982	0	0	0	16701	15340	153462	27190	954800	38000	106045	0	0	8172	762080	0	0
2024-04-28 06:22:32			0	33998	0	0	0	16698	15320	153362	27424	954775	38010	106044	0	0	8173	761364	0	0
2024-04-28 06:23:32			0	34009	0	0	0	16696	15330	153370	27350	954731	38021	106043	0	0	8174	760776	0	0
2024-04-28 06:24:32			0	34025	0	0	0	16698	15330	153410	27263	954739	38010	106044	0	0	8175	759979	0	0
2024-04-28 06:25:32			0	33977	0	0	0	16693	15330	153546	27521	954713	38000	106042	0	0	8172	762370	0	0
2024-04-28 06:26:32			0	33918	0	0	0	16698	15330	153706	27737	954739	38000	106044	0	0	8169	765318	0	0
2024-04-28 06:27:32			0	33869	0	0	0	16698	15330	153906	27512	954713	38010	106044	0	0	8166	767773	0	0
2024-04-28 06:28:32			0	33839	0	0	0	16701	15330	154050	27748	954713	38010	106045	0	0	8164	769278	0	0
2024-04-28 06:29:32			0	33799	0	0	0	16703	15340	154382	27436	954747	38000	106046	0	0	8162	771249	0	0
2024-04-28 06:30:32			0	33770	0	0	0	16698	15330	154586	27609	954765	38000	106044	0	0	8160	772751	0	0
2024-04-28 06:31:32			0	33739	0	0	0	16693	15340	154554	27289	954755	38001	106042	0	0	8158	774274	0	0
2024-04-28 06:32:32			0	33737	0	0	0	16701	15330	154726	27762	954739	38010	106045	0	0	8158	774416	0	0
2024-04-28 06:33:32			0	33711	0	0	0	16698	15330	154722	27590	954792	38010	106044	0	0	8157	775731	0	0
2024-04-28 06:34:32			0	33723	0	0	0	16696	15330	154686	27471	954713	38000	106043	0	0	8157	775124	0	0
2024-04-28 06:35:32			0	33734	0	0	0	16693	15330	154750	27293	954739	38010	106042	0	0	8158	774568	0	0
2024-04-28 06:36:32			0	33764	0	0	0	16696	15340	154570	27355	954729	38001	106043	0	0	8160	773012	0	0
2024-04-28 06:37:32			0	33768	0	0	0	16693	15340	154550	27734	954755	38012	106042	0	0	8160	772810	0	0
2024-04-28 06:38:32			0	33779	0	0	0	16693	15340	154470	27467	954755	38012	106042	0	0	8161	772256	0	0
2024-04-28 06:39:32			0	33774	0	0	0	16693	15330	154414	27576	954713	38010	106042	0	0	8160	772550	0	0
2024-04-28 06:40:32			0	33757	0	0	0	16690	15330	154578	27561	954739	37989	106041	0	0	8159	773407	0	0
2024-04-28 06:41:32			0	33736	0	0	0	16688	15320	154642	27568	954775	38010	106040	0	0	8158	774509	0	0
2024-04-28 06:42:32			0	33726	0	0	0	16696	15330	154646	27476	954739	38010	106043	0	0	8158	774972	0	0
2024-04-28 06:43:32			0	33719	0	0	0	16690	15330	154658	27545	954731	38010	106041	0	0	8157	775326	0	0
2024-04-28 06:44:32			0	33724	0	0	0	16685	15330	154718	27348	954757	38000	106039	0	0	8158	775073	0	0
2024-04-28 06:45:32			0	33728	0	0	0	16688	15330	154622	27241	954757	38010	106040	0	0	8158	774871	0	0
2024-04-28 06:46:32			0	33746	0	0	0	16685	15340	154498	27253	954773	38000	106039	0	0	8159	773920	0	0
2024-04-28 06:47:32			0	33754	0	0	0	16683	15320	154566	27561	954688	37999	106038	0	0	8159	773600	0	0
2024-04-28 06:48:32			0	33755	0	0	0	16685	15330	154530	27315	954705	38000	106039	0	0	8159	773508	0	0
2024-04-28 06:49:32			0	33711	0	0	0	16685	15320	154610	27232	954749	38000	106039	0	0	8157	775772	0	0
2024-04-28 06:50:32			0	33711	0	0	0	16685	15330	154854	27523	954757	38010	106039	0	0	8157	775731	0	0
2024-04-28 06:51:32			0	33676	0	0	0	16685	15330	155014	27519	954686	38000	106039	0	0	8155	777502	0	0
2024-04-28 06:52:32			0	33632	0	0	0	16688	15330	155038	27376	954731	38000	106040	0	0	8152	779734	0	0
2024-04-28 06:53:32			0	33609	0	0	0	16683	15320	155294	27332	954696	38010	106038	0	0	8151	780945	0	0
2024-04-28 06:54:32			0	33582	0	0	0	16680	15330	155342	27530	954739	38010	106037	0	0	8149	782277	0	0
2024-04-28 06:55:32			0	33565	0	0	0	16688	15330	155481	27499	954731	38000	106040	0	0	8148	783143	0	0
2024-04-28 06:56:32			0	33525	0	0	0	16690	15330	155625	27319	954705	38021	106041	0	0	8146	785183	0	0
2024-04-28 06:57:32			0	33499	0	0	0	16680	15330	155557	27552	954757	37989	106037	0	0	8144	786512	0	0
2024-04-28 06:58:32			0	33505	0	0	0	16693	15320	155661	27696	954723	38000	106042	0	0	8144	786248	0	0
2024-04-28 06:59:32			0	33496	0	0	0	16693	15330	155765	27493	954713	38000	106042	0	0	8144	786666	0	0
2024-04-28 07:00:32			0	33503	0	0	0	16693	15330	155661	27384	954765	38010	106042	0	0	8144	786308	0	0
2024-04-28 07:01:32			0	33515	0	0	0	16688	15320	155665	27298	954749	38021	106040	0	0	8145	785737	0	0
2024-04-28 07:02:32			0	33552	0	0	0	16693	15320	155525	27350	954741	38009	106042	0	0	8147	783848	0	0
2024-04-28 07:03:32			0	33580	0	0	0	16690	15330	155354	27298	954705	38010	106041	0	0	8149	782379	0	0
2024-04-28 07:04:32			0	33591	0	0	0	16688	15330	155270	27552	954705	38000	106040	0	0	8150	781819	0	0
2024-04-28 07:05:32			0	33591	0	0	0	16685	15330	155142	27429	954739	38010	106039	0	0	8150	781819	0	0
2024-04-28 07:06:32			0	33596	0	0	0	16683	15320	155186	27371	954749	38010	106038	0	0	8150	781606	0	0
2024-04-28 07:07:32			0	33595	0	0	0	16690	15330	155206	27587	954765	38021	106041	0	0	8150	781615	0	0
2024-04-28 07:08:32			0	33590	0	0	0	16693	15330	155306	27277	954705	38010	106042	0	0	8150	781870	0	0
2024-04-28 07:09:32			0	33557	0	0	0	16696	15330	155337	27353	954705	38021	106043	0	0	8148	783551	0	0
2024-04-28 07:10:32			0	33553	0	0	0	16693	15330	155457	27336	954731	38000	106042	0	0	8147	783754	0	0
2024-04-28 07:11:32			0	33513	0	0	0	16693	15330	155521	27310	954705	38000	106042	0	0	8145	785796	0	0
2024-04-28 07:12:32			0	33503	0	0	0	16698	15340	155617	27819	954747	38011	106044	0	0	8144	786265	0	0
2024-04-28 07:13:32			0	33509	0	0	0	16690	15330	155661	27388	954705	38000	106041	0	0	8145	786001	0	0
2024-04-28 07:14:32			0	33529	0	0	0	16690	15340	155625	27306	954721	38011	106041	0	0	8146	784937	0	0
2024-04-28 07:15:32			0	33552	0	0	0	16701	15330	155373	27545	954678	38010	106045	0	0	8147	783806	0	0
2024-04-28 07:16:32			0	33558	0	0	0	16701	15330	155393	27441	954765	38000	106045	0	0	8148	783500	0	0
2024-04-28 07:17:32			0	33573	0	0	0	16698	15330	155266	27699	954731	38010	106044	0	0	8148	782735	0	0
2024-04-28 07:18:32			0	33604	0	0	0	16698	15330	155186	27038	954757	38000	106044	0	0	8150	781157	0	0
2024-04-28 07:19:32			0	33602	0	0	0	16701	15340	155094	27679	954721	38011	106045	0	0	8150	781217	0	0
2024-04-28 07:20:32			0	33625	0	0	0	16685	15330	155018	27552	954731	38000	106039	0	0	8152	780090	0	0
2024-04-28 07:21:32			0	33639	0	0	0	16690	15330	154982	27312	954731	38010	106041	0	0	8152	779379	0	0
2024-04-28 07:22:32			0	33619	0	0	0	16688	15320	155006	27580	954767	38009	106040	0	0	8151	780437	0	0
2024-04-28 07:23:32			0	33620	0	0	0	16690	15330	155074	27317	954678	38000	106041	0	0	8151	780344	0	0
2024-04-28 07:24:32			0	33605	0	0	0	16690	15330	155158	27313	954765	38010	106041	0	0	8150	781106	0	0
2024-04-28 07:25:32			0	33583	0	0	0	16693	15320	155218	27431	954749	38000	106042	0	0	8149	782268	0	0
2024-04-28 07:26:32			0	33572	0	0	0	16685	15320	155326	27481	954775	38000	106039	0	0	8149	782828	0	0
2024-04-28 07:27:32			0	33547	0	0	0	16690	15330	155417	27289	954731	38010	106041	0	0	8147	784061	0	0
2024-04-28 07:28:32			0	33542	0	0	0	16696	15320	155437	27277	954723	38010	106043	0	0	8147	784358	0	0
2024-04-28 07:29:32			0	33505	0	0	0	16696	15330	155509	27107	954731	37989	106043	0	0	8144	786205	0	0
2024-04-28 07:30:32			0	33497	0	0	0	16693	15330	155725	27556	954757	38000	106042	0	0	8144	786614	0	0
2024-04-28 07:31:32			0	33484	0	0	0	16690	15320	155769	27462	954749	38010	106041	0	0	8143	787322	0	0
2024-04-28 07:32:32			0	33510	0	0	0	16693	15330	155545	27260	954739	38000	106042	0	0	8145	785950	0	0
2024-04-28 07:33:32			0	33555	0	0	0	16698	15330	155337	27294	954757	38000	106044	0	0	8147	783653	0	0
2024-04-28 07:34:32			0	33586	0	0	0	16701	15340	155202	27668	954800	38011	106045	0	0	8149	782031	0	0
2024-04-28 07:35:32			0	33659	0	0	0	16701	15330	154894	27628	954731	38010	106045	0	0	8153	778364	0	0
2024-04-28 07:36:32			0	33693	0	0	0	16703	15330	154730	27492	954713	38000	106046	0	0	8155	776641	0	0
2024-04-28 07:37:32			0	33718	0	0	0	16701	15330	154586	27249	954765	38010	106045	0	0	8157	775377	0	0
2024-04-28 07:38:32			0	33741	0	0	0	16693	15330	154474	27274	954739	38010	106042	0	0	8158	774214	0	0
2024-04-28 07:39:32			0	33753	0	0	0	16698	15320	154434	27291	954802	38010	106044	0	0	8159	773650	0	0
2024-04-28 07:40:32			0	33745	0	0	0	16693	15320	154474	27642	954775	38010	106042	0	0	8159	774054	0	0
2024-04-28 07:41:32			0	33719	0	0	0	16693	15330	154662	27357	954810	38010	106042	0	0	8157	775326	0	0
2024-04-28 07:42:32			0	33684	0	0	0	16690	15320	154702	27675	954715	37999	106041	0	0	8155	777139	0	0
2024-04-28 07:43:32			0	33655	0	0	0	16693	15330	154806	27672	954757	38010	106042	0	0	8153	778567	0	0
2024-04-28 07:44:32			0	33660	0	0	0	16696	15340	154950	27607	954800	38011	106043	0	0	8154	778271	0	0
2024-04-28 07:45:32			0	33623	0	0	0	16690	15330	154982	27256	954705	38000	106041	0	0	8152	780191	0	0
2024-04-28 07:46:32			0	33624	0	0	0	16690	15330	155018	27459	954739	38010	106041	0	0	8152	780140	0	0
2024-04-28 07:47:32			0	33623	0	0	0	16696	15340	155082	27602	954747	38011	106043	0	0	8151	780149	0	0
2024-04-28 07:48:32			0	33621	0	0	0	16693	15340	155006	27473	954747	38022	106042	0	0	8151	780251	0	0
2024-04-28 07:49:32			0	33621	0	0	0	16696	15330	155018	27581	954739	38010	106043	0	0	8151	780293	0	0
2024-04-28 07:50:32			0	33593	0	0	0	16701	15330	155014	27251	954765	38010	106045	0	0	8150	781717	0	0
2024-04-28 07:51:32			0	33615	0	0	0	16688	15330	155146	27346	954713	38010	106040	0	0	8151	780598	0	0
2024-04-28 07:52:32			0	33613	0	0	0	16688	15320	155134	27543	954775	38000	106040	0	0	8151	780742	0	0
2024-04-28 07:53:32			0	33614	0	0	0	16693	15330	155094	27414	954836	38010	106042	0	0	8151	780649	0	0
2024-04-28 07:54:32			0	33611	0	0	0	16709	15330	155102	27422	954731	38021	106048	0	0	8151	780801	0	0
2024-04-28 07:55:32			0	33639	0	0	0	16696	15330	155106	27519	954765	38000	106043	0	0	8152	779379	0	0
2024-04-28 07:56:32			0	33652	0	0	0	16701	15320	155010	27367	954715	37999	106045	0	0	8153	778761	0	0
2024-04-28 07:57:32			0	33669	0	0	0	16698	15330	154910	27632	954731	38021	106044	0	0	8154	777857	0	0
2024-04-28 07:58:32			0	33682	0	0	0	16703	15340	154834	27533	954773	38011	106046	0	0	8155	777157	0	0
2024-04-28 07:59:32			0	33680	0	0	0	16703	15340	154822	27447	954773	38022	106046	0	0	8155	777258	0	0
2024-04-28 08:00:32			0	33690	0	0	0	16696	15340	154718	27568	954782	38012	106043	0	0	8155	776751	0	0
2024-04-28 08:01:32			0	33682	0	0	0	16701	15330	154682	27571	954731	38010	106045	0	0	8155	777198	0	0
2024-04-28 08:02:32			0	33710	0	0	0	16693	15340	154658	27758	954747	38011	106042	0	0	8157	775739	0	0
2024-04-28 08:03:32			0	33742	0	0	0	16703	15340	154570	27284	954826	38011	106046	0	0	8158	774122	0	0
2024-04-28 08:04:32			0	33759	0	0	0	16703	15330	154382	27538	954818	38021	106046	0	0	8159	773306	0	0
2024-04-28 08:05:32			0	33782	0	0	0	16706	15330	154130	27410	954818	38000	106047	0	0	8161	772146	0	0
2024-04-28 08:06:32			0	33808	0	0	0	16706	15320	154034	27421	954802	38010	106047	0	0	8162	770879	0	0
2024-04-28 08:07:32			0	33853	0	0	0	16709	15330	153954	27300	954792	38010	106048	0	0	8165	768575	0	0
2024-04-28 08:08:32			0	33867	0	0	0	16703	15340	153850	27196	954773	38022	106046	0	0	8166	767831	0	0
2024-04-28 08:09:32			0	33874	0	0	0	16703	15340	153886	27807	954800	38022	106046	0	0	8166	767480	0	0
2024-04-28 08:10:32			0	33846	0	0	0	16703	15350	153938	27765	954790	37991	106046	0	0	8165	768844	0	0
2024-04-28 08:11:32			0	33851	0	0	0	16706	15340	153914	27376	954782	38001	106047	0	0	8165	768634	0	0
2024-04-28 08:12:32			0	33868	0	0	0	16701	15340	153818	27360	954861	38001	106045	0	0	8166	767781	0	0
2024-04-28 08:13:32			0	33857	0	0	0	16696	15350	153882	27112	954895	38023	106043	0	0	8165	768292	0	0
2024-04-28 08:14:32			0	33876	0	0	0	16706	15340	153702	27727	954800	38033	106047	0	0	8166	767380	0	0
2024-04-28 08:15:32			0	33909	0	0	0	16711	15330	153826	27422	954792	38000	106049	0	0	8168	765768	0	0
2024-04-28 08:16:32			0	33907	0	0	0	16709	15340	153698	27516	954773	38011	106048	0	0	8168	765827	0	0
2024-04-28 08:17:32			0	33900	0	0	0	16711	15340	153682	27800	954808	38012	106049	0	0	8168	766178	0	0
2024-04-28 08:18:32			0	33896	0	0	0	16716	15330	153702	27713	954871	38000	106051	0	0	8167	766419	0	0
2024-04-28 08:19:32			0	33870	0	0	0	16716	15350	153758	27587	954851	38012	106051	0	0	8166	767640	0	0
2024-04-28 08:20:32			0	33878	0	0	0	16719	15350	153766	27164	954869	38001	106052	0	0	8166	767239	0	0
2024-04-28 08:21:32			0	33882	0	0	0	16714	15340	153838	27445	954887	38012	106050	0	0	8166	767079	0	0
2024-04-28 08:22:32			0	33887	0	0	0	16714	15350	153870	27611	954869	38023	106050	0	0	8167	766788	0	0
2024-04-28 08:23:32			0	33866	0	0	0	16711	15350	153810	27395	954842	38023	106049	0	0	8166	767840	0	0
2024-04-28 08:24:32			0	33880	0	0	0	16711	15350	153818	27163	954903	38012	106049	0	0	8166	767138	0	0
2024-04-28 08:25:32			0	33860	0	0	0	16709	15350	153838	27353	954816	38012	106048	0	0	8165	768141	0	0
2024-04-28 08:26:32			0	33877	0	0	0	16716	15350	153922	27379	954895	38023	106051	0	0	8166	767289	0	0
2024-04-28 08:27:32			0	33866	0	0	0	16722	15350	153946	27474	954869	38012	106053	0	0	8165	767840	0	0
2024-04-28 08:28:32			0	33850	0	0	0	16722	15340	154006	27450	954940	38012	106053	0	0	8164	768685	0	0
2024-04-28 08:29:32			0	33844	0	0	0	16711	15350	153902	27422	954869	38001	106049	0	0	8164	768944	0	0
2024-04-28 08:30:32			0	33864	0	0	0	16719	15340	153798	27531	954861	38001	106052	0	0	8165	767982	0	0
2024-04-28 08:31:32			0	33879	0	0	0	16727	15350	153782	27440	954921	38012	106055	0	0	8166	767188	0	0
2024-04-28 08:32:32			0	33905	0	0	0	16727	15370	153738	27633	954901	38013	106055	0	0	8168	765804	0	0
2024-04-28 08:33:32			0	33912	0	0	0	16724	15350	153698	27440	954895	38023	106054	0	0	8168	765536	0	0
2024-04-28 08:34:32			0	33913	0	0	0	16735	15360	153794	27585	954859	38013	106058	0	0	8168	765445	0	0
2024-04-28 08:35:32			0	33909	0	0	0	16724	15350	153738	27803	954851	38001	106054	0	0	8168	765686	0	0
2024-04-28 08:36:32			0	33859	0	0	0	16732	15360	153726	27765	954938	38013	106057	0	0	8165	768150	0	0
2024-04-28 08:37:32			0	33837	0	0	0	16729	15360	153878	27447	954938	38013	106056	0	0	8164	769255	0	0
2024-04-28 08:38:32			0	33798	0	0	0	16727	15350	154178	27203	954903	38034	106055	0	0	8161	771258	0	0
2024-04-28 08:39:32			0	33738	0	0	0	16737	15350	154330	27554	954903	38012	106059	0	0	8158	774283	0	0
2024-04-28 08:40:32			0	33699	0	0	0	16732	15370	154590	27715	954875	38013	106057	0	0	8156	776171	0	0
2024-04-28 08:41:32			0	33676	0	0	0	16729	15360	154710	27760	954893	38013	106056	0	0	8154	777377	0	0
2024-04-28 08:42:32			0	33648	0	0	0	16732	15360	154746	27433	954946	38024	106057	0	0	8152	778796	0	0
2024-04-28 08:43:32			0	33647	0	0	0	16740	15360	154858	27687	954919	38024	106060	0	0	8152	778847	0	0
2024-04-28 08:44:32			0	33681	0	0	0	16735	15370	154742	27623	954954	38024	106058	0	0	8154	777082	0	0
2024-04-28 08:45:32			0	33678	0	0	0	16732	15360	154626	27495	954938	38001	106057	0	0	8154	777275	0	0
2024-04-28 08:46:32			0	33721	0	0	0	16732	15370	154538	27502	954928	38013	106057	0	0	8157	775058	0	0
2024-04-28 08:47:32			0	33739	0	0	0	16742	15380	154358	27504	954944	38014	106061	0	0	8158	774107	0	0
2024-04-28 08:48:32			0	33767	0	0	0	16735	15370	154434	27272	954928	38002	106058	0	0	8159	772736	0	0
2024-04-28 08:49:32			0	33746	0	0	0	16740	15370	154414	27607	954909	38036	106060	0	0	8158	773796	0	0
2024-04-28 08:50:32			0	33743	0	0	0	16732	15370	154366	27237	954954	38024	106057	0	0	8158	773947	0	0
2024-04-28 08:51:32			0	33732	0	0	0	16737	15360	154382	27374	954919	38002	106059	0	0	8157	774544	0	0
2024-04-28 08:52:32			0	33730	0	0	0	16735	15380	154490	27571	954944	38014	106058	0	0	8157	774562	0	0
2024-04-28 08:53:32			0	33720	0	0	0	16735	15380	154418	27606	954944	38014	106058	0	0	8157	775067	0	0
2024-04-28 08:54:32			0	33714	0	0	0	16745	15370	154486	27642	954936	38014	106062	0	0	8156	775412	0	0
2024-04-28 08:55:32			0	33730	0	0	0	16737	15370	154574	27595	954988	38025	106059	0	0	8157	774604	0	0
2024-04-28 08:56:32			0	33745	0	0	0	16737	15380	154462	27507	954944	38014	106059	0	0	8158	773804	0	0
2024-04-28 08:57:32			0	33772	0	0	0	16735	15380	154346	27575	954996	38014	106058	0	0	8160	772443	0	0
2024-04-28 08:58:32			0	33784	0	0	0	16742	15370	154250	27873	954988	38014	106061	0	0	8160	771880	0	0
2024-04-28 08:59:32			0	33832	0	0	0	16742	15390	153990	27454	955013	38027	106061	0	0	8163	769382	0	0
2024-04-28 09:00:32			0	33842	0	0	0	16750	15370	153750	27500	954980	38013	106064	0	0	8164	768962	0	0
2024-04-28 09:01:32			0	33891	0	0	0	16748	15380	153762	27402	955075	38014	106063	0	0	8167	766464	0	0
2024-04-28 09:02:32			0	33894	0	0	0	16758	15380	153574	27814	955005	38015	106067	0	0	8167	766313	0	0
2024-04-28 09:03:32			0	33911	0	0	0	16742	15380	153586	27329	954944	38014	106061	0	0	8168	765462	0	0
2024-04-28 09:04:32			0	33828	0	0	0	16748	15390	154054	27481	954960	38016	106063	0	0	8163	769583	0	0
2024-04-28 09:05:32			0	33752	0	0	0	16750	15380	154262	27443	955005	38015	106064	0	0	8158	773451	0	0
2024-04-28 09:06:32			0	33706	0	0	0	16766	15390	154566	27322	955066	38016	106070	0	0	8155	775733	0	0
2024-04-28 09:07:32			0	33649	0	0	0	16763	15390	154826	27386	954995	38016	106069	0	0	8152	778620	0	0
2024-04-28 09:08:32			0	33625	0	0	0	16758	15380	154826	27357	955031	38026	106067	0	0	8151	779880	0	0
2024-04-28 09:09:32			0	33595	0	0	0	16761	15380	155082	27230	955084	38015	106068	0	0	8149	781405	0	0
2024-04-28 09:10:32			0	33604	0	0	0	16763	15400	154962	27440	955029	38016	106069	0	0	8150	780863	0	0
2024-04-28 09:11:32			0	33612	0	0	0	16768	15380	155090	27284	955005	38026	106071	0	0	8150	780541	0	0
2024-04-28 09:12:32			0	33611	0	0	0	16761	15390	155050	27421	955048	38038	106068	0	0	8150	780549	0	0
2024-04-28 09:13:32			0	33604	0	0	0	16766	15400	155022	27345	955056	38027	106070	0	0	8149	780863	0	0
2024-04-28 09:14:32			0	33612	0	0	0	16763	15390	155002	27357	955100	38038	106069	0	0	8150	780499	0	0
2024-04-28 09:15:32			0	33621	0	0	0	16766	15400	155098	27216	955064	38028	106070	0	0	8150	780000	0	0
2024-04-28 09:16:32			0	33633	0	0	0	16763	15400	154934	27495	955029	38027	106069	0	0	8151	779390	0	0
2024-04-28 09:17:32			0	33647	0	0	0	16761	15400	154758	27211	955090	38028	106068	0	0	8152	778680	0	0
2024-04-28 09:18:32			0	33676	0	0	0	16761	15390	154718	27194	955048	38027	106068	0	0	8154	777252	0	0
2024-04-28 09:19:32			0	33682	0	0	0	16755	15410	154770	27588	955072	38029	106066	0	0	8154	776864	0	0
2024-04-28 09:20:32			0	33691	0	0	0	16753	15400	154554	27249	955056	38027	106065	0	0	8155	776450	0	0
2024-04-28 09:21:32			0	33701	0	0	0	16755	15400	154530	27606	955056	38016	106066	0	0	8155	775944	0	0
2024-04-28 09:22:32			0	33703	0	0	0	16761	15380	154510	27530	955058	38026	106068	0	0	8155	775927	0	0
2024-04-28 09:23:32			0	33724	0	0	0	16750	15400	154502	27575	955056	38016	106064	0	0	8157	774782	0	0
2024-04-28 09:24:32			0	33710	0	0	0	16748	15390	154390	27371	955021	38027	106063	0	0	8156	775531	0	0
2024-04-28 09:25:32			0	33715	0	0	0	16748	15400	154514	27505	955037	38006	106063	0	0	8156	775236	0	0
2024-04-28 09:26:32			0	33722	0	0	0	16758	15390	154422	27213	955074	38016	106067	0	0	8157	774924	0	0
2024-04-28 09:27:32			0	33734	0	0	0	16761	15390	154490	27031	954987	38038	106068	0	0	8157	774318	0	0
2024-04-28 09:28:32			0	33738	0	0	0	16755	15400	154434	27003	955056	38016	106066	0	0	8158	774075	0	0
2024-04-28 09:29:32			0	33757	0	0	0	16750	15400	154422	27358	955056	38016	106064	0	0	8159	773116	0	0
2024-04-28 09:30:32			0	33767	0	0	0	16758	15390	154330	27057	955021	38038	106067	0	0	8159	772653	0	0
2024-04-28 09:31:32			0	33763	0	0	0	16755	15390	154262	27367	955048	38016	106066	0	0	8159	772855	0	0
2024-04-28 09:32:32			0	33780	0	0	0	16753	15400	154294	27319	955029	38027	106065	0	0	8160	771957	0	0
2024-04-28 09:33:32			0	33778	0	0	0	16763	15400	154218	27235	955056	38016	106069	0	0	8160	772057	0	0
2024-04-28 09:34:32			0	33782	0	0	0	16755	15390	154202	27395	955074	38016	106066	0	0	8160	771897	0	0
2024-04-28 09:35:32			0	33773	0	0	0	16755	15400	154166	27211	955082	38016	106066	0	0	8160	772309	0	0
2024-04-28 09:36:32			0	33773	0	0	0	16758	15400	154250	27017	955108	38027	106067	0	0	8160	772309	0	0
2024-04-28 09:37:32			0	33762	0	0	0	16755	15400	154218	27410	955056	38027	106066	0	0	8159	772864	0	0
2024-04-28 09:38:32			0	33771	0	0	0	16755	15390	154254	27552	955048	38038	106066	0	0	8159	772452	0	0
2024-04-28 09:39:32			0	33762	0	0	0	16755	15390	154226	27112	955021	38016	106066	0	0	8159	772905	0	0
2024-04-28 09:40:32			0	33792	0	0	0	16753	15400	154158	27144	955056	38016	106065	0	0	8161	771352	0	0
2024-04-28 09:41:32			0	33779	0	0	0	16758	15390	154154	27374	955013	38027	106067	0	0	8160	772048	0	0
2024-04-28 09:42:32			0	33791	0	0	0	16766	15390	154130	27043	955074	38005	106070	0	0	8160	771444	0	0
2024-04-28 09:43:32			0	33786	0	0	0	16771	15390	154014	27100	955048	38016	106072	0	0	8160	771696	0	0
2024-04-28 09:44:32			0	33811	0	0	0	16768	15400	154110	27105	955037	38017	106071	0	0	8162	770396	0	0
2024-04-28 09:45:32			0	33798	0	0	0	16771	15400	154174	27557	955090	38039	106072	0	0	8161	771050	0	0
2024-04-28 09:46:32			0	33807	0	0	0	16771	15400	154058	27438	955037	38028	106072	0	0	8161	770597	0	0
2024-04-28 09:47:32			0	33801	0	0	0	16774	15400	154150	27410	955029	38016	106073	0	0	8161	770899	0	0
2024-04-28 09:48:32			0	33785	0	0	0	16768	15400	154150	27341	955064	38028	106071	0	0	8160	771705	0	0
2024-04-28 09:49:32			0	33783	0	0	0	16763	15390	154202	27260	955048	38027	106069	0	0	8160	771847	0	0
2024-04-28 09:50:32			0	33783	0	0	0	16766	15400	154246	27606	955143	38017	106070	0	0	8160	771805	0	0
2024-04-28 09:51:32			0	33802	0	0	0	16766	15410	154162	27315	955072	38029	106070	0	0	8161	770807	0	0
2024-04-28 09:52:32			0	33788	0	0	0	16781	15400	154078	26977	955116	38017	106076	0	0	8160	771554	0	0
2024-04-28 09:53:32			0	33815	0	0	0	16781	15410	154106	27331	955159	38029	106076	0	0	8162	770154	0	0
2024-04-28 09:54:32			0	33821	0	0	0	16784	15400	154086	27203	955195	38017	106077	0	0	8162	769893	0	0
2024-04-28 09:55:32			0	33819	0	0	0	16776	15410	154078	27452	955133	38018	106074	0	0	8162	769952	0	0
2024-04-28 09:56:32			0	33820	0	0	0	16771	15420	154094	27348	955193	38018	106072	0	0	8162	769861	0	0
2024-04-28 09:57:32			0	33820	0	0	0	16776	15410	154202	27381	955125	38018	106074	0	0	8162	769902	0	0
2024-04-28 09:58:32			0	33824	0	0	0	16779	15420	154142	27090	955123	38041	106075	0	0	8162	769660	0	0
2024-04-28 09:59:32			0	33833	0	0	0	16774	15410	154034	27144	955204	38029	106073	0	0	8163	769249	0	0
2024-04-28 10:00:32			0	33835	0	0	0	16784	15420	154054	27258	955115	38040	106077	0	0	8163	769107	0	0
2024-04-28 10:01:32			0	33819	0	0	0	16789	15410	153982	27180	955151	38029	106079	0	0	8162	769952	0	0
2024-04-28 10:02:32			0	33834	0	0	0	16784	15420	153946	26923	955167	38029	106077	0	0	8163	769157	0	0
2024-04-28 10:03:32			0	33867	0	0	0	16787	15420	153802	27045	955123	38030	106078	0	0	8165	767501	0	0
2024-04-28 10:04:32			0	33908	0	0	0	16794	15420	153710	27105	955228	38018	106081	0	0	8167	765448	0	0
2024-04-28 10:05:32			0	33906	0	0	0	16794	15430	153514	27171	955210	38030	106081	0	0	8167	765507	0	0
2024-04-28 10:06:32			0	33938	0	0	0	16797	15420	153446	26755	955254	38030	106082	0	0	8169	763948	0	0
2024-04-28 10:07:32			0	33936	0	0	0	16797	15430	153442	27227	955289	38030	106082	0	0	8169	764007	0	0
2024-04-28 10:08:32			0	33959	0	0	0	16792	15440	153330	27069	955279	38041	106080	0	0	8170	762817	0	0
2024-04-28 10:09:32			0	33978	0	0	0	16810	15430	153298	27256	955244	38030	106087	0	0	8171	761911	0	0
2024-04-28 10:10:32			0	33985	0	0	0	16805	15440	153330	27466	955305	38031	106085	0	0	8171	761521	0	0
2024-04-28 10:11:32			0	34013	0	0	0	16807	15440	153054	27324	955358	38031	106086	0	0	8173	760127	0	0
2024-04-28 10:12:32			0	34036	0	0	0	16820	15440	153154	27606	955313	38041	106091	0	0	8174	758983	0	0
2024-04-28 10:13:32			0	34035	0	0	0	16820	15450	153014	27391	955374	38042	106091	0	0	8174	758992	0	0
2024-04-28 10:14:32			0	34042	0	0	0	16831	15450	153038	27324	955348	38042	106095	0	0	8174	758644	0	0
2024-04-28 10:15:32			0	34059	0	0	0	16833	15450	152886	27248	955374	38032	106096	0	0	8175	757800	0	0
2024-04-28 10:16:32			0	34067	0	0	0	16825	15460	152910	27479	955390	38043	106093	0	0	8176	757362	0	0
2024-04-28 10:17:32			0	34069	0	0	0	16825	15450	152886	27575	955356	38021	106093	0	0	8176	757304	0	0
2024-04-28 10:18:32			0	34065	0	0	0	16831	15450	152766	27324	955382	38032	106095	0	0	8176	757502	0	0
2024-04-28 10:19:32			0	34075	0	0	0	16828	15460	152774	27450	955390	38043	106094	0	0	8176	756965	0	0
2024-04-28 10:20:32			0	34095	0	0	0	16836	15470	152690	27485	955406	38044	106097	0	0	8177	755933	0	0
2024-04-28 10:21:32			0	34120	0	0	0	16836	15470	152646	27072	955415	38034	106097	0	0	8179	754696	0	0
2024-04-28 10:22:32			0	34118	0	0	0	16828	15460	152526	27514	955372	38033	106094	0	0	8179	754835	0	0
2024-04-28 10:23:32			0	34116	0	0	0	16838	15470	152538	27440	955354	38023	106098	0	0	8179	754893	0	0
2024-04-28 10:24:32			0	34100	0	0	0	16831	15470	152610	27415	955380	38055	106095	0	0	8178	755686	0	0
2024-04-28 10:25:32			0	34082	0	0	0	16844	15460	152782	27239	955364	38033	106100	0	0	8176	756618	0	0
2024-04-28 10:26:32			0	34068	0	0	0	16841	15470	152914	27431	955406	38034	106099	0	0	8176	757272	0	0
2024-04-28 10:27:32			0	34036	0	0	0	16857	15470	152990	27248	955467	38023	106105	0	0	8174	758861	0	0
2024-04-28 10:28:32			0	34008	0	0	0	16857	15470	153086	27244	955388	38055	106105	0	0	8172	760253	0	0
2024-04-28 10:29:32			0	34005	0	0	0	16857	15470	153178	27602	955441	38023	106105	0	0	8172	760402	0	0
2024-04-28 10:30:32			0	33999	0	0	0	16864	15470	153066	27403	955433	38044	106108	0	0	8171	760701	0	0
2024-04-28 10:31:32			0	33995	0	0	0	16857	15480	153210	27679	955449	38035	106105	0	0	8171	760859	0	0
2024-04-28 10:32:32			0	33985	0	0	0	16864	15490	153154	27822	955544	38046	106108	0	0	8171	761316	0	0
2024-04-28 10:33:32			0	33997	0	0	0	16854	15480	153094	27256	955484	38035	106104	0	0	8171	760759	0	0
2024-04-28 10:34:32			0	33989	0	0	0	16867	15480	153226	27736	955457	38045	106109	0	0	8171	761158	0	0
2024-04-28 10:35:32			0	33981	0	0	0	16862	15480	153334	27751	955457	38035	106107	0	0	8170	761556	0	0
2024-04-28 10:36:32			0	33953	0	0	0	16862	15480	153206	27403	955502	38024	106107	0	0	8169	762953	0	0
2024-04-28 10:37:32			0	33930	0	0	0	16862	15490	153422	27277	955544	38024	106107	0	0	8167	764060	0	0
2024-04-28 10:38:32			0	33901	0	0	0	16864	15490	153618	27658	955465	38035	106108	0	0	8166	765510	0	0
2024-04-28 10:39:32			0	33887	0	0	0	16864	15490	153714	27270	955518	38046	106108	0	0	8165	766210	0	0
2024-04-28 10:40:32			0	33873	0	0	0	16872	15490	153698	27535	955473	38046	106111	0	0	8164	766912	0	0
2024-04-28 10:41:32			0	33873	0	0	0	16872	15490	153698	27800	955526	38046	106111	0	0	8164	766912	0	0
2024-04-28 10:42:32			0	33874	0	0	0	16880	15500	153694	27514	955516	38047	106114	0	0	8164	766820	0	0
2024-04-28 10:43:32			0	33886	0	0	0	16885	15490	153694	27779	955526	38036	106116	0	0	8164	766260	0	0
2024-04-28 10:44:32			0	33887	0	0	0	16880	15490	153718	27511	955492	38046	106114	0	0	8165	766210	0	0
2024-04-28 10:45:32			0	33922	0	0	0	16875	15490	153534	27485	955500	38036	106112	0	0	8167	764460	0	0
2024-04-28 10:46:32			0	33898	0	0	0	16877	15490	153402	27343	955552	38058	106113	0	0	8165	765660	0	0
2024-04-28 10:47:32			0	33918	0	0	0	16885	15500	153510	27802	955534	38046	106116	0	0	8166	764618	0	0
2024-04-28 10:48:32			0	33920	0	0	0	16888	15500	153442	27606	955561	38058	106117	0	0	8166	764519	0	0
2024-04-28 10:49:32			0	33924	0	0	0	16885	15500	153494	27796	955595	38047	106116	0	0	8167	764319	0	0
2024-04-28 10:50:32			0	33918	0	0	0	16885	15490	153458	27379	955526	38036	106116	0	0	8166	764660	0	0
2024-04-28 10:51:32			0	33919	0	0	0	16896	15510	153486	27611	955551	38037	106120	0	0	8166	764527	0	0
2024-04-28 10:52:32			0	33922	0	0	0	16885	15500	153442	27569	955543	38047	106116	0	0	8167	764418	0	0
2024-04-28 10:53:32			0	33919	0	0	0	16888	15510	153518	27301	955577	38037	106117	0	0	8166	764527	0	0
2024-04-28 10:54:32			0	33910	0	0	0	16896	15510	153550	27414	955691	38048	106120	0	0	8166	764977	0	0
2024-04-28 10:55:32			0	33892	0	0	0	16896	15510	153606	27601	955630	38047	106120	0	0	8165	765878	0	0
2024-04-28 10:56:32			0	33886	0	0	0	16903	15520	153530	27545	955646	38048	106123	0	0	8164	766137	0	0
2024-04-28 10:57:32			0	33912	0	0	0	16903	15510	153562	27557	955638	38038	106123	0	0	8166	764877	0	0
2024-04-28 10:58:32			0	33900	0	0	0	16901	15520	153602	27405	955628	38039	106122	0	0	8165	765436	0	0
2024-04-28 10:59:32			0	33915	0	0	0	16903	15520	153486	27601	955707	38039	106123	0	0	8166	764686	0	0
2024-04-28 11:00:32			0	33902	0	0	0	16909	15520	153462	27322	955733	38049	106125	0	0	8165	765336	0	0
2024-04-28 11:01:32			0	33912	0	0	0	16911	15540	153410	27663	955758	38061	106126	0	0	8166	764754	0	0
2024-04-28 11:02:32			0	33920	0	0	0	16919	15540	153442	27557	955810	38050	106129	0	0	8166	764354	0	0
2024-04-28 11:03:32			0	33943	0	0	0	16929	15540	153330	27294	955818	38051	106133	0	0	8167	763205	0	0
2024-04-28 11:04:32			0	33982	0	0	0	16942	15550	153198	27183	955887	38063	106138	0	0	8169	761220	0	0
2024-04-28 11:05:32			0	34017	0	0	0	16953	15560	153062	27400	955869	38063	106142	0	0	8171	759437	0	0
2024-04-28 11:06:32			0	34036	0	0	0	16961	15570	152906	27566	955938	38064	106145	0	0	8172	758452	0	0
2024-04-28 11:07:32			0	34029	0	0	0	16968	15570	152842	27802	955973	38053	106148	0	0	8172	758800	0	0
2024-04-28 11:08:32			0	34029	0	0	0	16974	15580	152862	27692	955989	38043	106150	0	0	8172	758759	0	0
2024-04-28 11:09:32			0	34026	0	0	0	16992	15600	152926	27706	956014	38078	106157	0	0	8171	758826	0	0
2024-04-28 11:10:32			0	34019	0	0	0	17023	15610	153018	27781	956056	38057	106169	0	0	8170	759133	0	0
2024-04-28 11:11:32			0	34006	0	0	0	17033	15620	153054	27384	956117	38080	106173	0	0	8170	759739	0	0
2024-04-28 11:12:32			0	33977	0	0	0	17041	15620	153110	27583	956125	38069	106176	0	0	8168	761182	0	0
2024-04-28 11:13:32			0	33964	0	0	0	17064	15640	153246	27395	956255	38059	106185	0	0	8167	761748	0	0
2024-04-28 11:14:32			0	33977	0	0	0	17070	15650	153098	27616	956219	38070	106187	0	0	8167	761059	0	0
2024-04-28 11:15:32			0	33992	0	0	0	17103	15650	153042	27509	956332	38060	106200	0	0	8168	760312	0	0
2024-04-28 11:16:32			0	33982	0	0	0	17122	15650	153026	27623	956332	38071	106207	0	0	8167	760810	0	0
2024-04-28 11:17:32			0	33994	0	0	0	17132	15670	153126	27535	956383	38072	106211	0	0	8167	760131	0	0
2024-04-28 11:18:32			0	33957	0	0	0	17137	15690	153166	27562	956442	38074	106213	0	0	8165	761891	0	0
2024-04-28 11:19:32			0	33932	0	0	0	17140	15690	153302	27312	956424	38085	106214	0	0	8164	763138	0	0
2024-04-28 11:20:32			0	33888	0	0	0	17140	15700	153414	27502	956537	38064	106214	0	0	8161	765295	0	0
2024-04-28 11:21:32			0	33866	0	0	0	17137	15710	153642	27251	956535	38076	106213	0	0	8160	766354	0	0
2024-04-28 11:22:32			0	33849	0	0	0	17135	15710	153706	27187	956483	38076	106212	0	0	8159	767206	0	0
2024-04-28 11:23:32			0	33851	0	0	0	17137	15710	153866	27556	956535	38076	106213	0	0	8159	767106	0	0
2024-04-28 11:24:32			0	33840	0	0	0	17142	15730	153794	27322	956507	38088	106215	0	0	8159	767574	0	0
2024-04-28 11:25:32			0	33851	0	0	0	17140	15730	153666	27618	956594	38067	106214	0	0	8159	767023	0	0
2024-04-28 11:26:32			0	33808	0	0	0	17166	15720	153766	27431	956525	38067	106224	0	0	8156	769221	0	0
2024-04-28 11:27:32			0	33817	0	0	0	17166	15740	153794	27748	956629	38089	106224	0	0	8157	768687	0	0
2024-04-28 11:28:32			0	33795	0	0	0	17174	15760	153850	27471	956635	38069	106227	0	0	8156	769708	0	0
2024-04-28 11:29:32			0	33807	0	0	0	17174	15750	153950	27633	956654	38102	106227	0	0	8156	769147	0	0
2024-04-28 11:30:32			0	33779	0	0	0	17179	15760	153870	27486	956723	38102	106229	0	0	8155	770512	0	0
2024-04-28 11:31:32			0	33782	0	0	0	17174	15770	153894	27371	956704	38092	106227	0	0	8155	770320	0	0
2024-04-28 11:32:32			0	33779	0	0	0	17163	15770	153986	27398	956712	38092	106223	0	0	8155	770471	0	0
2024-04-28 11:33:32			0	33775	0	0	0	17163	15760	154074	27595	956670	38081	106223	0	0	8155	770713	0	0
2024-04-28 11:34:32			0	33764	0	0	0	17153	15770	154002	27589	956660	38092	106219	0	0	8154	771225	0	0
2024-04-28 11:35:32			0	33761	0	0	0	17145	15760	153938	27817	956670	38070	106216	0	0	8154	771418	0	0
2024-04-28 11:36:32			0	33800	0	0	0	17153	15770	153858	27796	956652	38060	106219	0	0	8156	769416	0	0
2024-04-28 11:37:32			0	33765	0	0	0	17153	15770	153802	27372	956678	38082	106219	0	0	8154	771175	0	0
2024-04-28 11:38:32			0	33801	0	0	0	17142	15770	153786	27478	956652	38071	106215	0	0	8156	769366	0	0
2024-04-28 11:39:32			0	33794	0	0	0	17132	15770	153782	27365	956678	38071	106211	0	0	8156	769717	0	0
2024-04-28 11:40:32			0	33791	0	0	0	17132	15770	153854	27479	956607	38082	106211	0	0	8156	769868	0	0
2024-04-28 11:41:32			0	33790	0	0	0	17137	15770	153842	27763	956678	38092	106213	0	0	8156	769918	0	0
2024-04-28 11:42:32			0	33794	0	0	0	17155	15760	153918	27504	956644	38070	106220	0	0	8156	769758	0	0
2024-04-28 11:43:32			0	33803	0	0	0	17155	15770	153890	27649	956633	38092	106220	0	0	8156	769265	0	0
2024-04-28 11:44:32			0	33790	0	0	0	17150	15780	153874	27588	956694	38082	106218	0	0	8156	769877	0	0
2024-04-28 11:45:32			0	33784	0	0	0	17161	15780	153918	27360	956702	38093	106222	0	0	8155	770178	0	0
2024-04-28 11:46:32			0	33784	0	0	0	17176	15760	153874	27409	956749	38091	106228	0	0	8155	770261	0	0
2024-04-28 11:47:32			0	33793	0	0	0	17171	15780	153810	27118	956755	38093	106226	0	0	8156	769726	0	0
2024-04-28 11:48:32			0	33818	0	0	0	17189	15780	153758	27421	956650	38104	106233	0	0	8157	768471	0	0
2024-04-28 11:49:32			0	33803	0	0	0	17194	15790	153706	27642	956816	38094	106235	0	0	8156	769182	0	0
2024-04-28 11:50:32			0	33811	0	0	0	17212	15800	153738	27204	956806	38094	106242	0	0	8156	768739	0	0
2024-04-28 11:51:32			0	33811	0	0	0	17220	15800	153810	27488	956832	38094	106245	0	0	8156	768739	0	0
2024-04-28 11:52:32			0	33810	0	0	0	17218	15800	153774	27500	956840	38084	106244	0	0	8156	768789	0	0
2024-04-28 11:53:32			0	33824	0	0	0	17223	15810	153642	27715	956909	38107	106246	0	0	8157	768045	0	0
2024-04-28 11:54:32			0	33846	0	0	0	17231	15810	153638	27473	956822	38095	106249	0	0	8158	766943	0	0
2024-04-28 11:55:32			0	33859	0	0	0	17215	15810	153522	27384	956875	38095	106243	0	0	8159	766292	0	0
2024-04-28 11:56:32			0	33879	0	0	0	17106	15820	153410	27777	956865	38085	106201	0	0	8162	765250	0	0
2024-04-28 11:57:32			0	33821	0	0	0	17148	15820	153614	27329	956812	38085	106217	0	0	8158	768155	0	0
2024-04-28 11:58:32			0	33774	0	0	0	17187	15810	153878	27627	956796	38107	106232	0	0	8154	770556	0	0
2024-04-28 11:59:32			0	33731	0	0	0	17189	15810	154022	27543	956849	38095	106233	0	0	8152	772721	0	0
2024-04-28 12:00:32			0	33718	0	0	0	17192	15810	154258	27467	956849	38107	106234	0	0	8151	773376	0	0
2024-04-28 12:01:32			0	33684	0	0	0	17187	15800	154246	27699	956840	38084	106232	0	0	8149	775134	0	0
2024-04-28 12:02:32			0	33710	0	0	0	17199	15800	154318	27279	956788	38095	106237	0	0	8150	773821	0	0
2024-04-28 12:03:32			0	33707	0	0	0	17228	15820	154194	27828	956917	38119	106248	0	0	8150	773889	0	0
2024-04-28 12:04:32			0	33739	0	0	0	17272	15810	154106	27507	956988	38107	106265	0	0	8151	772318	0	0
2024-04-28 12:05:32			0	33743	0	0	0	17264	15830	154066	27381	957092	38097	106262	0	0	8151	772033	0	0
2024-04-28 12:06:32			0	33757	0	0	0	17249	15840	154006	27415	956985	38098	106256	0	0	8152	771287	0	0
2024-04-28 12:07:32			0	33739	0	0	0	17280	15850	154026	27414	957133	38100	106268	0	0	8151	772151	0	0
2024-04-28 12:08:32			0	33742	0	0	0	17275	15860	153998	27566	957114	38111	106266	0	0	8151	771958	0	0
2024-04-28 12:09:32			0	33739	0	0	0	17241	15850	154038	27550	957159	38100	106253	0	0	8152	772151	0	0
2024-04-28 12:10:32			0	33724	0	0	0	17231	15880	154038	27566	957165	38101	106249	0	0	8151	772782	0	0
2024-04-28 12:11:32			0	33734	0	0	0	17194	15870	154074	27606	957052	38101	106235	0	0	8152	772320	0	0
2024-04-28 12:12:32			0	33728	0	0	0	17212	15860	154118	27512	957043	38089	106242	0	0	8151	772664	0	0
2024-04-28 12:13:32			0	33722	0	0	0	17194	15860	154054	27845	957017	38111	106235	0	0	8151	772966	0	0
2024-04-28 12:14:32			0	33732	0	0	0	17205	15860	154118	27424	957009	38111	106239	0	0	8152	772462	0	0
2024-04-28 12:15:32			0	33726	0	0	0	17218	15860	154106	27512	957035	38100	106244	0	0	8151	772764	0	0
2024-04-28 12:16:32			0	33718	0	0	0	17212	15860	154110	27540	957035	38100	106242	0	0	8151	773168	0	0
2024-04-28 12:17:32			0	33742	0	0	0	17225	15860	154058	27571	957062	38100	106247	0	0	8152	771958	0	0
2024-04-28 12:18:32			0	33741	0	0	0	17231	15860	154034	27305	957043	38111	106249	0	0	8152	772009	0	0
2024-04-28 12:19:32			0	33767	0	0	0	17233	15870	153994	27500	957025	38101	106250	0	0	8153	770659	0	0
2024-04-28 12:20:32			0	33759	0	0	0	17241	15880	154018	27703	957113	38090	106253	0	0	8153	771020	0	0
2024-04-28 12:21:32			0	33769	0	0	0	17246	15860	153934	27497	957070	38111	106255	0	0	8153	770600	0	0
2024-04-28 12:22:32			0	33752	0	0	0	17259	15880	153982	27371	957113	38101	106260	0	0	8152	771372	0	0
2024-04-28 12:23:32			0	33782	0	0	0	17264	15890	154010	27694	957208	38091	106262	0	0	8154	769822	0	0
2024-04-28 12:24:32			0	33755	0	0	0	17270	15890	153898	27653	957182	38113	106264	0	0	8152	771179	0	0
2024-04-28 12:25:32			0	33781	0	0	0	17270	15880	153850	27561	957253	38113	106264	0	0	8154	769914	0	0
2024-04-28 12:26:32			0	33805	0	0	0	17303	15900	153806	27345	957224	38114	106277	0	0	8155	768626	0	0
2024-04-28 12:27:32			0	33799	0	0	0	17355	15890	153766	27281	957295	38113	106297	0	0	8153	768968	0	0
2024-04-28 12:28:32			0	33839	0	0	0	17329	15930	153778	27441	957431	38106	106287	0	0	8156	766797	0	0
2024-04-28 12:29:32			0	33799	0	0	0	17303	15930	153742	27713	957352	38117	106277	0	0	8154	768803	0	0
2024-04-28 12:30:32			0	33811	0	0	0	17303	15930	153842	27519	957352	38094	106277	0	0	8155	768200	0	0
2024-04-28 12:31:32			0	33818	0	0	0	17348	15920	153718	27355	957397	38127	106294	0	0	8155	767891	0	0
2024-04-28 12:32:32			0	33806	0	0	0	17332	15930	153882	27616	957431	38117	106288	0	0	8154	768451	0	0
2024-04-28 12:33:32			0	33802	0	0	0	17329	15940	153698	27640	957369	38117	106287	0	0	8154	768611	0	0
2024-04-28 12:34:32			0	33797	0	0	0	17319	15940	153710	27241	957377	38118	106283	0	0	8154	768861	0	0
2024-04-28 12:35:32			0	33807	0	0	0	17322	15940	153686	27625	957482	38118	106284	0	0	8155	768360	0	0
2024-04-28 12:36:32			0	33820	0	0	0	17332	15950	153730	27338	957411	38107	106288	0	0	8155	767667	0	0
2024-04-28 12:37:32			0	33820	0	0	0	17324	15940	153614	27523	957430	38107	106285	0	0	8155	767708	0	0
2024-04-28 12:38:32			0	33829	0	0	0	17309	15950	153546	27086	957393	38108	106279	0	0	8156	767216	0	0
2024-04-28 12:39:32			0	33843	0	0	0	17296	15950	153578	27549	957385	38096	106274	0	0	8157	766515	0	0
2024-04-28 12:40:32			0	33853	0	0	0	17309	15950	153438	27440	957385	38107	106279	0	0	8158	766014	0	0
2024-04-28 12:41:32			0	33870	0	0	0	17324	15950	153522	27447	957446	38108	106285	0	0	8158	765164	0	0
2024-04-28 12:42:32			0	33881	0	0	0	17329	15950	153406	27509	957438	38118	106287	0	0	8159	764614	0	0
2024-04-28 12:43:32			0	33889	0	0	0	17324	15960	153374	27481	957462	38109	106285	0	0	8159	764173	0	0
2024-04-28 12:44:32			0	33911	0	0	0	17316	15970	153270	27684	957523	38120	106282	0	0	8161	763034	0	0
2024-04-28 12:45:32			0	33910	0	0	0	17314	15970	153298	27694	957418	38109	106281	0	0	8161	763084	0	0
2024-04-28 12:46:32			0	33915	0	0	0	17316	15960	153234	27661	957428	38129	106282	0	0	8161	762876	0	0
2024-04-28 12:47:32			0	33886	0	0	0	17314	15960	153298	27353	957480	38129	106281	0	0	8159	764323	0	0
2024-04-28 12:48:32			0	33921	0	0	0	17324	15960	153162	27422	957488	38120	106285	0	0	8161	762576	0	0
2024-04-28 12:49:32			0	33948	0	0	0	17337	15960	153098	27469	957515	38120	106290	0	0	8163	761231	0	0
2024-04-28 12:50:32			0	33958	0	0	0	17355	15970	152846	27398	957584	38110	106297	0	0	8163	760693	0	0
2024-04-28 12:51:32			0	33958	0	0	0	17353	15990	153022	27339	957635	38123	106296	0	0	8163	760611	0	0
2024-04-28 12:52:32			0	33952	0	0	0	17350	15990	152974	27454	957582	38111	106295	0	0	8163	760909	0	0
2024-04-28 12:53:32			0	33943	0	0	0	17337	15990	153082	27320	957582	38111	106290	0	0	8163	761357	0	0
2024-04-28 12:54:32			0	33949	0	0	0	17340	15990	153034	27348	957564	38111	106291	0	0	8163	761058	0	0
2024-04-28 12:55:32			0	33925	0	0	0	17353	15980	153098	27504	957574	38132	106296	0	0	8161	762295	0	0
2024-04-28 12:56:32			0	33907	0	0	0	17348	15980	153154	27748	957547	38111	106294	0	0	8160	763192	0	0
2024-04-28 12:57:32			0	33901	0	0	0	17353	15990	153198	27583	957503	38111	106296	0	0	8160	763451	0	0
2024-04-28 12:58:32			0	33909	0	0	0	17345	15990	153246	27847	957556	38133	106293	0	0	8160	763051	0	0
2024-04-28 12:59:32			0	33911	0	0	0	17340	15980	153170	27822	957566	38110	106291	0	0	8161	762993	0	0
2024-04-28 13:00:32			0	33909	0	0	0	17332	15980	153174	27779	957521	38122	106288	0	0	8161	763093	0	0
2024-04-28 13:01:32			0	33933	0	0	0	17350	15990	153162	27696	957529	38123	106295	0	0	8162	761855	0	0
2024-04-28 13:02:32			0	33921	0	0	0	17342	15980	153062	27504	957574	38122	106292	0	0	8161	762494	0	0
2024-04-28 13:03:32			0	33949	0	0	0	17350	15990	153058	27374	957590	38111	106295	0	0	8163	761058	0	0
2024-04-28 13:04:32			0	33972	0	0	0	17335	15980	152902	27647	957521	38122	106289	0	0	8164	759955	0	0
2024-04-28 13:05:32			0	33997	0	0	0	17337	15980	152846	27597	957513	38110	106290	0	0	8166	758713	0	0
2024-04-28 13:06:32			0	34007	0	0	0	17348	15990	152718	27640	957590	38100	106294	0	0	8166	758176	0	0
2024-04-28 13:07:32			0	34016	0	0	0	17348	15990	152694	27824	957450	38123	106294	0	0	8167	757729	0	0
2024-04-28 13:08:32			0	34013	0	0	0	17337	15990	152702	27358	957503	38133	106290	0	0	8167	757878	0	0
2024-04-28 13:09:32			0	34008	0	0	0	17342	15980	152674	27569	957626	38122	106292	0	0	8166	758167	0	0
2024-04-28 13:10:32			0	34014	0	0	0	17340	15990	152734	27828	957556	38133	106291	0	0	8167	757828	0	0
2024-04-28 13:11:32			0	34024	0	0	0	17345	15980	152706	27628	957495	38122	106293	0	0	8167	757373	0	0
2024-04-28 13:12:32			0	34017	0	0	0	17345	15980	152738	27364	957539	38110	106293	0	0	8167	757721	0	0
2024-04-28 13:13:32			0	34024	0	0	0	17350	15980	152646	27595	957547	38122	106295	0	0	8167	757373	0	0
2024-04-28 13:14:32			0	34022	0	0	0	17340	15980	152558	27549	957521	38122	106291	0	0	8167	757473	0	0
2024-04-28 13:15:32			0	34052	0	0	0	17353	15980	152554	27550	957592	38110	106296	0	0	8169	755986	0	0
2024-04-28 13:16:32			0	34067	0	0	0	17355	15990	152518	27932	957616	38123	106297	0	0	8169	755203	0	0
2024-04-28 13:17:32			0	34074	0	0	0	17358	15980	152454	27776	957539	38121	106298	0	0	8170	754897	0	0
2024-04-28 13:18:32			0	34067	0	0	0	17335	15980	152354	27781	957566	38121	106289	0	0	8170	755244	0	0
2024-04-28 13:19:32			0	34058	0	0	0	17348	15990	152286	27426	957556	38111	106294	0	0	8169	755648	0	0
2024-04-28 13:20:32			0	34062	0	0	0	17350	15990	152454	27609	957590	38111	106295	0	0	8169	755450	0	0
2024-04-28 13:21:32			0	34056	0	0	0	17361	15990	152426	27883	957608	38123	106299	0	0	8169	755747	0	0
2024-04-28 13:22:32			0	34051	0	0	0	17366	15990	152418	27604	957608	38123	106301	0	0	8168	755995	0	0
2024-04-28 13:23:32			0	34066	0	0	0	17371	15980	152366	27796	957626	38111	106303	0	0	8169	755293	0	0
2024-04-28 13:24:32			0	34073	0	0	0	17371	16000	152362	27415	957651	38111	106303	0	0	8170	754865	0	0
2024-04-28 13:25:32			0	34094	0	0	0	17381	15990	152350	27445	957616	38133	106307	0	0	8171	753868	0	0
2024-04-28 13:26:32			0	34075	0	0	0	17381	16000	152426	27284	957651	38133	106307	0	0	8169	754766	0	0
2024-04-28 13:27:32			0	34052	0	0	0	17384	16000	152378	27736	957704	38111	106308	0	0	8168	755905	0	0
2024-04-28 13:28:32			0	34054	0	0	0	17386	16000	152386	27395	957712	38123	106309	0	0	8168	755805	0	0
2024-04-28 13:29:32			0	34059	0	0	0	17397	16010	152386	27505	957668	38124	106313	0	0	8168	755517	0	0
2024-04-28 13:30:32			0	34022	0	0	0	17384	16000	152406	27670	957686	38134	106308	0	0	8166	757391	0	0
2024-04-28 13:31:32			0	34032	0	0	0	17379	16020	152470	27703	957710	38125	106306	0	0	8167	756813	0	0
2024-04-28 13:32:32			0	34049	0	0	0	17384	16010	152526	27511	957649	38146	106308	0	0	8168	756012	0	0
2024-04-28 13:33:32			0	34044	0	0	0	17386	16020	152454	27407	957763	38114	106309	0	0	8168	756219	0	0
2024-04-28 13:34:32			0	34032	0	0	0	17379	16020	152474	27377	957763	38135	106306	0	0	8167	756813	0	0
2024-04-28 13:35:32			0	34023	0	0	0	17379	16020	152550	27505	957710	38135	106306	0	0	8167	757260	0	0
2024-04-28 13:36:32			0	34032	0	0	0	17379	16020	152490	27682	957710	38125	106306	0	0	8167	756813	0	0
2024-04-28 13:37:32			0	34030	0	0	0	17386	16010	152566	27791	957702	38113	106309	0	0	8167	756954	0	0
2024-04-28 13:38:32			0	34011	0	0	0	17374	16020	152650	27573	957718	38125	106304	0	0	8166	757855	0	0
2024-04-28 13:39:32			0	34022	0	0	0	17376	16010	152666	27649	957676	38124	106305	0	0	8167	757350	0	0
2024-04-28 13:40:32			0	34006	0	0	0	17374	16010	152710	27640	957694	38146	106304	0	0	8166	758144	0	0
2024-04-28 13:41:32			0	34015	0	0	0	17379	16010	152826	27762	957668	38134	106306	0	0	8166	757697	0	0
2024-04-28 13:42:32			0	33987	0	0	0	17386	16010	152674	27374	957702	38124	106309	0	0	8164	759087	0	0
2024-04-28 13:43:32			0	33961	0	0	0	17376	16020	152826	27469	957657	38125	106305	0	0	8163	760338	0	0
2024-04-28 13:44:32			0	33979	0	0	0	17386	16010	152914	27708	957676	38113	106309	0	0	8164	759484	0	0
2024-04-28 13:45:32			0	33965	0	0	0	17384	16020	152794	27471	957710	38125	106308	0	0	8163	760139	0	0
2024-04-28 13:46:32			0	33976	0	0	0	17392	16010	152774	27748	957720	38113	106311	0	0	8164	759633	0	0
2024-04-28 13:47:32			0	33984	0	0	0	17392	16020	152838	27412	957692	38114	106311	0	0	8164	759195	0	0
2024-04-28 13:48:32			0	33962	0	0	0	17386	16020	152810	27611	957797	38125	106309	0	0	8163	760288	0	0
2024-04-28 13:49:32			0	33978	0	0	0	17384	16020	152762	27965	957718	38125	106308	0	0	8164	759493	0	0
2024-04-28 13:50:32			0	33997	0	0	0	17389	16020	152690	27706	957657	38135	106310	0	0	8165	758549	0	0
2024-04-28 13:51:32			0	34005	0	0	0	17399	16020	152622	27625	957631	38135	106314	0	0	8165	758152	0	0
2024-04-28 13:52:32			0	34022	0	0	0	17394	16020	152546	27718	957710	38114	106312	0	0	8166	757309	0	0
2024-04-28 13:53:32			0	34024	0	0	0	17410	16020	152610	27395	957718	38125	106318	0	0	8166	757210	0	0
2024-04-28 13:54:32			0	34038	0	0	0	17412	16020	152578	27659	957736	38135	106319	0	0	8167	756516	0	0
2024-04-28 13:55:32			0	34001	0	0	0	17423	16020	152662	27614	957771	38135	106323	0	0	8165	758351	0	0
2024-04-28 13:56:32			0	34014	0	0	0	17428	16040	152606	27447	957822	38126	106325	0	0	8165	757624	0	0
2024-04-28 13:57:32			0	33997	0	0	0	17438	16040	152618	27744	957883	38126	106329	0	0	8164	758467	0	0
2024-04-28 13:58:32			0	34005	0	0	0	17446	16040	152774	27268	957822	38126	106332	0	0	8165	758071	0	0
2024-04-28 13:59:32			0	33988	0	0	0	17457	16050	152718	27017	957944	38138	106336	0	0	8163	758873	0	0
2024-04-28 14:00:32			0	33986	0	0	0	17454	16050	152798	27287	957925	38138	106335	0	0	8163	758973	0	0
2024-04-28 14:01:32			0	33966	0	0	0	17470	16060	152774	27355	957986	38139	106341	0	0	8162	759926	0	0
2024-04-28 14:02:32			0	33968	0	0	0	17475	16060	152906	27256	957986	38139	106343	0	0	8162	759826	0	0
2024-04-28 14:03:32			0	33955	0	0	0	17475	16070	152846	27459	958029	38128	106343	0	0	8161	760431	0	0
2024-04-28 14:04:32			0	33944	0	0	0	17464	16070	152886	27088	957984	38140	106339	0	0	8161	760979	0	0
2024-04-28 14:05:32			0	33947	0	0	0	17467	16080	152842	27684	957974	38130	106340	0	0	8161	760788	0	0
2024-04-28 14:06:32			0	33950	0	0	0	17459	16080	152810	27509	958019	38151	106337	0	0	8161	760639	0	0
2024-04-28 14:07:32			0	33958	0	0	0	17457	16070	152982	27215	958003	38151	106336	0	0	8162	760282	0	0
2024-04-28 14:08:32			0	33931	0	0	0	17462	16090	153002	27327	958061	38141	106338	0	0	8160	761544	0	0
2024-04-28 14:09:32			0	33930	0	0	0	17454	16080	152878	27398	958027	38141	106335	0	0	8160	761635	0	0
2024-04-28 14:10:32			0	33942	0	0	0	17457	16090	152922	27633	958043	38131	106336	0	0	8161	760996	0	0
2024-04-28 14:11:32			0	33932	0	0	0	17444	16080	152906	27251	958027	38141	106331	0	0	8160	761535	0	0
2024-04-28 14:12:32			0	33943	0	0	0	17446	16090	152978	27384	958017	38153	106332	0	0	8161	760946	0	0
2024-04-28 14:13:32			0	33941	0	0	0	17451	16080	152958	27684	958027	38130	106334	0	0	8161	761087	0	0
2024-04-28 14:14:32			0	33954	0	0	0	17451	16080	152814	27263	957940	38129	106334	0	0	8162	760440	0	0
2024-04-28 14:15:32			0	33955	0	0	0	17459	16100	152890	27194	957972	38121	106337	0	0	8162	760308	0	0
2024-04-28 14:16:32			0	33968	0	0	0	17472	16080	152758	27237	957974	38141	106342	0	0	8162	759744	0	0
2024-04-28 14:17:32			0	33973	0	0	0	17472	16100	152734	27183	958078	38153	106342	0	0	8162	759414	0	0
2024-04-28 14:18:32			0	33976	0	0	0	17477	16090	152638	27222	958114	38141	106344	0	0	8163	759306	0	0
2024-04-28 14:19:32			0	33971	0	0	0	17493	16100	152798	27341	958051	38142	106350	0	0	8162	759513	0	0
2024-04-28 14:20:32			0	33957	0	0	0	17511	16090	152734	27602	958070	38153	106357	0	0	8161	760250	0	0
2024-04-28 14:21:32			0	33936	0	0	0	17503	16110	152986	27310	958173	38143	106354	0	0	8160	761213	0	0
2024-04-28 14:22:32			0	33967	0	0	0	17503	16100	152846	27502	958139	38143	106354	0	0	8162	759712	0	0
2024-04-28 14:23:32			0	33975	0	0	0	17509	16110	152822	27130	958147	38143	106356	0	0	8162	759273	0	0
2024-04-28 14:24:32			0	33978	0	0	0	17522	16120	152798	27438	958216	38133	106361	0	0	8162	759083	0	0
2024-04-28 14:25:32			0	33987	0	0	0	17535	16120	152682	27405	958198	38156	106366	0	0	8162	758637	0	0
2024-04-28 14:26:32			0	33997	0	0	0	17561	16130	152682	27355	958241	38145	106376	0	0	8163	758099	0	0
2024-04-28 14:27:32			0	34003	0	0	0	17566	16140	152642	27443	958249	38145	106378	0	0	8163	757761	0	0
2024-04-28 14:28:32			0	34014	0	0	0	17584	16140	152578	27334	958381	38145	106385	0	0	8163	757215	0	0
2024-04-28 14:29:32			0	34026	0	0	0	17589	16160	152554	27346	958360	38168	106387	0	0	8164	756539	0	0
2024-04-28 14:30:32			0	34056	0	0	0	17589	16160	152390	27852	958387	38179	106387	0	0	8166	755054	0	0
2024-04-28 14:31:32			0	34082	0	0	0	17597	16180	152250	27939	958438	38160	106390	0	0	8167	753688	0	0
2024-04-28 14:32:32			0	34142	0	0	0	17594	16190	151982	27878	958515	38162	106389	0	0	8171	750689	0	0
2024-04-28 14:33:32			0	34155	0	0	0	17589	16190	151894	27815	958488	38172	106387	0	0	8171	750049	0	0
2024-04-28 14:34:32			0	34166	0	0	0	17553	16200	151898	27455	958470	38162	106373	0	0	8173	749468	0	0
2024-04-28 14:35:32			0	34146	0	0	0	17561	16200	151954	27739	958497	38151	106376	0	0	8171	750451	0	0
2024-04-28 14:36:32			0	34159	0	0	0	17602	16200	151858	27308	958531	38162	106392	0	0	8172	749812	0	0
2024-04-28 14:37:32			0	34170	0	0	0	17667	16210	151842	27145	958679	38173	106417	0	0	8171	749231	0	0
2024-04-28 14:38:32			0	34169	0	0	0	17641	16240	151746	27339	958746	38176	106407	0	0	8172	749158	0	0
2024-04-28 14:39:32			0	34187	0	0	0	17636	16240	151758	27454	958728	38166	106405	0	0	8173	748274	0	0
2024-04-28 14:40:32			0	34179	0	0	0	17641	16250	151778	27479	958605	38166	106407	0	0	8172	748626	0	0
2024-04-28 14:41:32			0	34175	0	0	0	17636	16270	151770	27644	958769	38157	106405	0	0	8172	748742	0	0
2024-04-28 14:42:32			0	34178	0	0	0	17638	16270	151758	27552	958743	38167	106406	0	0	8172	748595	0	0
2024-04-28 14:43:32			0	34183	0	0	0	17620	16270	151686	27355	958777	38167	106399	0	0	8173	748349	0	0
2024-04-28 14:44:32			0	34191	0	0	0	17618	16260	151714	27737	958761	38167	106398	0	0	8173	747997	0	0
2024-04-28 14:45:32			0	34184	0	0	0	17623	16270	151610	27616	958743	38167	106400	0	0	8173	748300	0	0
2024-04-28 14:46:32			0	34187	0	0	0	17625	16270	151646	27319	958777	38167	106401	0	0	8173	748153	0	0
2024-04-28 14:47:32			0	34186	0	0	0	17623	16280	151618	27564	958759	38168	106400	0	0	8173	748161	0	0
2024-04-28 14:48:32			0	34173	0	0	0	17646	16280	151710	27670	958838	38168	106409	0	0	8172	748800	0	0
2024-04-28 14:49:32			0	34161	0	0	0	17631	16290	151798	27526	958916	38159	106403	0	0	8172	749349	0	0
2024-04-28 14:50:32			0	34136	0	0	0	17628	16290	151838	27566	958916	38159	106402	0	0	8170	750579	0	0
2024-04-28 14:51:32			0	34107	0	0	0	17628	16300	152058	27535	958906	38171	106402	0	0	8169	751967	0	0
2024-04-28 14:52:32			0	34096	0	0	0	17644	16310	152034	27744	958940	38171	106408	0	0	8168	752468	0	0
2024-04-28 14:53:32			0	34105	0	0	0	17651	16310	152082	27526	958966	38182	106411	0	0	8168	752024	0	0
2024-04-28 14:54:32			0	34079	0	0	0	17662	16310	152250	27365	958993	38182	106415	0	0	8166	753307	0	0
2024-04-28 14:55:32			0	34073	0	0	0	17657	16320	152142	27518	958965	38172	106413	0	0	8166	753562	0	0
2024-04-28 14:56:32			0	34084	0	0	0	17657	16330	152206	27493	959007	38173	106413	0	0	8167	752979	0	0
2024-04-28 14:57:32			0	34071	0	0	0	17631	16320	152138	27824	958912	38172	106403	0	0	8167	753661	0	0
2024-04-28 14:58:32			0	34089	0	0	0	17646	16330	152078	27786	958973	38163	106409	0	0	8167	752732	0	0
2024-04-28 14:59:32			0	34099	0	0	0	17654	16340	152118	27757	959076	38174	106412	0	0	8168	752198	0	0
2024-04-28 15:00:32			0	34081	0	0	0	17636	16330	152090	27606	959060	38163	106405	0	0	8167	753127	0	0
2024-04-28 15:01:32			0	34055	0	0	0	17646	16340	152198	27729	958989	38152	106409	0	0	8165	754370	0	0
2024-04-28 15:02:32			0	34046	0	0	0	17664	16350	152254	27488	959058	38165	106416	0	0	8165	754774	0	0
2024-04-28 15:03:32			0	34027	0	0	0	17677	16350	152178	27819	959093	38175	106421	0	0	8163	755713	0	0
2024-04-28 15:04:32			0	34047	0	0	0	17670	16370	152298	27651	959143	38177	106418	0	0	8165	754643	0	0
2024-04-28 15:05:32			0	34033	0	0	0	17685	16360	152346	27822	959162	38176	106424	0	0	8164	755376	0	0
2024-04-28 15:06:32			0	34024	0	0	0	17690	16370	152350	27670	959257	38166	106426	0	0	8163	755780	0	0
2024-04-28 15:07:32			0	34018	0	0	0	17696	16370	152274	27968	959223	38177	106428	0	0	8163	756077	0	0
2024-04-28 15:08:32			0	34017	0	0	0	17716	16390	152322	27665	959282	38167	106436	0	0	8162	756045	0	0
2024-04-28 15:09:32			0	34022	0	0	0	17753	16390	152298	27776	959282	38178	106450	0	0	8162	755797	0	0
2024-04-28 15:10:32			0	34007	0	0	0	17750	16390	152354	27639	959316	38190	106449	0	0	8161	756540	0	0
2024-04-28 15:11:32			0	34000	0	0	0	17786	16410	152346	27606	959428	38181	106463	0	0	8160	756805	0	0
2024-04-28 15:12:32			0	34019	0	0	0	17789	16420	152318	27906	959410	38181	106464	0	0	8161	755823	0	0
2024-04-28 15:13:32			0	34004	0	0	0	17812	16430	152402	27705	959434	38171	106473	0	0	8160	756525	0	0
2024-04-28 15:14:32			0	34012	0	0	0	17836	16440	152230	27594	959601	38194	106482	0	0	8160	756088	0	0
2024-04-28 15:15:32			0	34011	0	0	0	17851	16450	152322	27588	959652	38195	106488	0	0	8160	756096	0	0
2024-04-28 15:16:32			0	34022	0	0	0	17864	16470	152366	27620	959703	38196	106493	0	0	8160	755471	0	0
2024-04-28 15:17:32			0	34019	0	0	0	17875	16490	152342	27914	959753	38198	106497	0	0	8160	755537	0	0
2024-04-28 15:18:32			0	34005	0	0	0	17888	16500	152358	27421	959752	38188	106502	0	0	8159	756189	0	0
2024-04-28 15:19:32			0	34020	0	0	0	17893	16510	152334	27464	959866	38210	106504	0	0	8160	755406	0	0
2024-04-28 15:20:32			0	34019	0	0	0	17896	16520	152234	27476	959785	38201	106505	0	0	8160	755414	0	0
2024-04-28 15:21:32			0	34002	0	0	0	17888	16520	152350	27647	959837	38190	106502	0	0	8159	756256	0	0
2024-04-28 15:22:32			0	34015	0	0	0	17883	16530	152274	27835	959880	38202	106500	0	0	8160	755572	0	0
2024-04-28 15:23:32			0	34013	0	0	0	17932	16530	152230	27533	959906	38212	106519	0	0	8159	755670	0	0
2024-04-28 15:24:32			0	34010	0	0	0	17953	16540	152282	27367	959975	38203	106527	0	0	8159	755778	0	0
2024-04-28 15:25:32			0	33991	0	0	0	17953	16560	152390	27445	959982	38205	106527	0	0	8158	756636	0	0
2024-04-28 15:26:32			0	33989	0	0	0	17979	16560	152430	27485	960008	38193	106537	0	0	8157	756735	0	0
2024-04-28 15:27:32			0	33943	0	0	0	18054	16590	152522	27843	960128	38228	106566	0	0	8153	758893	0	0
2024-04-28 15:28:32			0	33915	0	0	0	18098	16590	152726	27954	960268	38217	106583	0	0	8151	760283	0	0
2024-04-28 15:29:32			0	33893	0	0	0	18137	16630	152846	27842	960405	38232	106598	0	0	8149	761213	0	0
2024-04-28 15:30:32			0	33860	0	0	0	18132	16650	152946	27888	960464	38245	106596	0	0	8147	762773	0	0
2024-04-28 15:31:32			0	33822	0	0	0	18132	16680	152990	27798	960645	38236	106596	0	0	8145	764544	0	0
2024-04-28 15:32:32			0	33833	0	0	0	18116	16700	153106	27951	960704	38238	106590	0	0	8146	763913	0	0
2024-04-28 15:33:32			0	33811	0	0	0	18101	16710	153070	27828	960747	38228	106584	0	0	8145	764969	0	0
2024-04-28 15:34:32			0	33796	0	0	0	18161	16720	153118	28043	960798	38240	106607	0	0	8143	765677	0	0
2024-04-28 15:35:32			0	33804	0	0	0	18181	16750	153122	27755	960892	38253	106615	0	0	8144	765153	0	0
2024-04-28 15:36:32			0	33775	0	0	0	18228	16780	153110	27932	960985	38245	106633	0	0	8141	766478	0	0
2024-04-28 15:37:32			0	33790	0	0	0	18197	16790	153218	27958	961028	38245	106621	0	0	8143	765687	0	0
2024-04-28 15:38:32			0	33791	0	0	0	18145	16800	153070	27822	961018	38247	106601	0	0	8144	765595	0	0
2024-04-28 15:39:32			0	33821	0	0	0	18166	16810	152966	27954	961061	38247	106609	0	0	8145	764056	0	0
2024-04-28 15:40:32			0	33811	0	0	0	18225	16830	152906	27630	961094	38249	106632	0	0	8144	764472	0	0
2024-04-28 15:41:32			0	33821	0	0	0	18228	16830	152970	27942	961128	38238	106633	0	0	8144	763973	0	0
2024-04-28 15:42:32			0	33833	0	0	0	18257	16850	153034	27855	961240	38240	106644	0	0	8145	763292	0	0
2024-04-28 15:43:32			0	33820	0	0	0	18249	16860	152862	27810	961335	38252	106641	0	0	8144	763899	0	0
2024-04-28 15:44:32			0	33842	0	0	0	18241	16870	152802	28114	961326	38263	106638	0	0	8146	762761	0	0
2024-04-28 15:45:32			0	33830	0	0	0	18257	16880	152870	27633	961334	38264	106644	0	0	8145	763317	0	0
2024-04-28 15:46:32			0	33817	0	0	0	18277	16890	152902	27744	961385	38265	106652	0	0	8144	763924	0	0
2024-04-28 15:47:32			0	33812	0	0	0	18288	16910	152890	27618	961497	38256	106656	0	0	8143	764091	0	0
2024-04-28 15:48:32			0	33810	0	0	0	18303	16920	152894	27859	961566	38257	106662	0	0	8143	764149	0	0
2024-04-28 15:49:32			0	33804	0	0	0	18309	16930	152878	27991	961503	38258	106664	0	0	8142	764407	0	0
2024-04-28 15:50:32			0	33833	0	0	0	18319	16950	152822	27544	961589	38259	106668	0	0	8144	762879	0	0
2024-04-28 15:51:32			0	33813	0	0	0	18319	16950	152878	27826	961633	38259	106668	0	0	8143	763875	0	0
2024-04-28 15:52:32			0	33810	0	0	0	18340	16960	152778	27680	961684	38271	106676	0	0	8142	763983	0	0
2024-04-28 15:53:32			0	33846	0	0	0	18332	16970	152814	28029	961674	38251	106673	0	0	8145	762148	0	0
2024-04-28 15:54:32			0	33837	0	0	0	18327	16970	152798	27710	961727	38262	106671	0	0	8144	762596	0	0
2024-04-28 15:55:32			0	33845	0	0	0	18303	16990	152738	27696	961672	38252	106662	0	0	8145	762115	0	0
2024-04-28 15:56:32			0	33834	0	0	0	18319	16980	152730	28048	961743	38262	106668	0	0	8144	762705	0	0
2024-04-28 15:57:32			0	33841	0	0	0	18275	16990	152666	28103	961699	38241	106651	0	0	8145	762315	0	0
2024-04-28 15:58:32			0	33821	0	0	0	18236	16990	152734	27996	961593	38252	106636	0	0	8145	763311	0	0
2024-04-28 15:59:32			0	33835	0	0	0	18241	16990	152706	27994	961619	38252	106638	0	0	8146	762614	0	0
2024-04-28 16:00:32			0	33817	0	0	0	18280	16980	152810	27668	961611	38251	106653	0	0	8144	763552	0	0
2024-04-28 16:01:32			0	33822	0	0	0	18290	16980	152746	27987	961577	38251	106657	0	0	8144	763302	0	0
2024-04-28 16:02:32			0	33837	0	0	0	18298	16980	152614	27975	961611	38241	106660	0	0	8145	762555	0	0
2024-04-28 16:03:32			0	33836	0	0	0	18293	16990	152550	28072	961567	38252	106658	0	0	8145	762564	0	0
2024-04-28 16:04:32			0	33869	0	0	0	18270	16970	152666	28235	961568	38251	106649	0	0	8147	761004	0	0
2024-04-28 16:05:32			0	33858	0	0	0	18202	16970	152502	27869	961489	38251	106623	0	0	8148	761551	0	0
2024-04-28 16:06:32			0	33846	0	0	0	18119	16980	152590	28022	961532	38251	106591	0	0	8148	762107	0	0
2024-04-28 16:07:32			0	33832	0	0	0	18072	16980	152538	27982	961418	38251	106573	0	0	8148	762804	0	0
2024-04-28 16:08:32			0	33828	0	0	0	18153	16970	152662	28240	961481	38229	106604	0	0	8147	763045	0	0
2024-04-28 16:09:32			0	33818	0	0	0	18192	16950	152718	27857	961404	38249	106619	0	0	8145	763626	0	0
2024-04-28 16:10:32			0	33820	0	0	0	18231	16950	152614	28013	961483	38249	106634	0	0	8145	763526	0	0
2024-04-28 16:11:32			0	33810	0	0	0	18129	16960	152682	28129	961420	38250	106595	0	0	8146	763983	0	0
2024-04-28 16:12:32			0	33831	0	0	0	18085	16940	152618	27807	961414	38237	106578	0	0	8148	763019	0	0
2024-04-28 16:13:32			0	33828	0	0	0	18140	16950	152478	28116	961422	38238	106599	0	0	8147	763128	0	0
2024-04-28 16:14:32			0	33842	0	0	0	18046	16960	152546	27946	961465	38249	106563	0	0	8149	762389	0	0
2024-04-28 16:15:32			0	33875	0	0	0	18054	16940	152422	28048	961387	38259	106566	0	0	8151	760830	0	0
2024-04-28 16:16:32			0	33874	0	0	0	18075	16940	152326	27994	961300	38236	106574	0	0	8151	760879	0	0
2024-04-28 16:17:32			0	33911	0	0	0	18210	16940	152286	27951	961379	38236	106626	0	0	8150	759042	0	0
2024-04-28 16:18:32			0	33916	0	0	0	18264	16940	152218	28566	961406	38225	106647	0	0	8150	758794	0	0
2024-04-28 16:19:32			0	33944	0	0	0	18332	16930	152330	28015	961450	38258	106673	0	0	8150	757447	0	0
2024-04-28 16:20:32			0	33932	0	0	0	18384	16940	152338	28032	961625	38259	106693	0	0	8149	758000	0	0
2024-04-28 16:21:32			0	33912	0	0	0	18392	16960	152518	28244	961658	38260	106696	0	0	8147	758910	0	0
2024-04-28 16:22:32			0	33865	0	0	0	18386	16980	152518	27966	961770	38251	106694	0	0	8145	761162	0	0
2024-04-28 16:23:32			0	33876	0	0	0	18358	16980	152654	27812	961735	38262	106683	0	0	8146	760615	0	0
2024-04-28 16:24:32			0	33849	0	0	0	18322	16990	152562	27840	961707	38264	106669	0	0	8145	761916	0	0
2024-04-28 16:25:32			0	33831	0	0	0	18314	16990	152674	27646	961681	38242	106666	0	0	8144	762813	0	0
2024-04-28 16:26:32			0	33829	0	0	0	18314	16990	152702	27963	961681	38253	106666	0	0	8144	762912	0	0
2024-04-28 16:27:32			0	33820	0	0	0	18368	16990	152774	28024	961707	38253	106687	0	0	8143	763361	0	0
2024-04-28 16:28:32			0	33820	0	0	0	18405	16990	152742	28090	961751	38274	106701	0	0	8142	763361	0	0
2024-04-28 16:29:32			0	33830	0	0	0	18418	17000	152782	28064	961829	38253	106706	0	0	8142	762821	0	0
2024-04-28 16:30:32			0	33813	0	0	0	18451	17010	152762	28220	961864	38276	106719	0	0	8141	763627	0	0
2024-04-28 16:31:32			0	33812	0	0	0	18464	17030	152938	27894	961949	38277	106724	0	0	8141	763594	0	0
2024-04-28 16:32:32			0	33816	0	0	0	18472	17030	152830	27724	962010	38278	106727	0	0	8141	763394	0	0
2024-04-28 16:33:32			0	33802	0	0	0	18485	17060	152846	27717	962077	38281	106732	0	0	8140	763968	0	0
2024-04-28 16:34:32			0	33814	0	0	0	18470	17060	152758	27923	962148	38280	106726	0	0	8141	763370	0	0
2024-04-28 16:35:32			0	33808	0	0	0	18459	17080	152806	27937	962102	38270	106722	0	0	8141	763586	0	0
2024-04-28 16:36:32			0	33820	0	0	0	18329	17080	152678	28005	962110	38282	106672	0	0	8144	762988	0	0
2024-04-28 16:37:32			0	33834	0	0	0	18412	17080	152622	27765	962057	38282	106704	0	0	8143	762291	0	0
2024-04-28 16:38:32			0	33840	0	0	0	18444	17090	152574	27921	962074	38271	106716	0	0	8143	761951	0	0
2024-04-28 16:39:32			0	33800	0	0	0	18459	17090	152638	27947	962179	38271	106722	0	0	8140	763944	0	0
2024-04-28 16:40:32			0	33833	0	0	0	18470	17110	152594	27982	962177	38294	106726	0	0	8142	762217	0	0
2024-04-28 16:41:32			0	33831	0	0	0	18475	17110	152486	27907	962204	38284	106728	0	0	8142	762316	0	0
2024-04-28 16:42:32			0	33845	0	0	0	18477	17110	152482	28058	962186	38295	106729	0	0	8143	761619	0	0
2024-04-28 16:43:32			0	33865	0	0	0	18464	17110	152470	28025	962151	38284	106724	0	0	8144	760625	0	0
2024-04-28 16:44:32			0	33851	0	0	0	18436	17110	152406	28121	962186	38306	106713	0	0	8144	761321	0	0
2024-04-28 16:45:32			0	33880	0	0	0	18444	17110	152306	28011	962159	38285	106716	0	0	8145	759880	0	0
2024-04-28 16:46:32			0	33881	0	0	0	18441	17110	152274	27604	962151	38284	106715	0	0	8146	759830	0	0
2024-04-28 16:47:32			0	33896	0	0	0	18428	17110	152174	27821	962133	38285	106710	0	0	8147	759086	0	0
2024-04-28 16:48:32			0	33894	0	0	0	18428	17110	152166	28036	962151	38284	106710	0	0	8147	759185	0	0
2024-04-28 16:49:32			0	33909	0	0	0	18420	17100	152250	28133	962143	38273	106707	0	0	8147	758482	0	0
2024-04-28 16:50:32			0	33909	0	0	0	18425	17110	152222	28155	962098	38284	106709	0	0	8147	758441	0	0
2024-04-28 16:51:32			0	33911	0	0	0	18420	17100	152254	27835	962064	38284	106707	0	0	8148	758383	0	0
2024-04-28 16:52:32			0	33888	0	0	0	18405	17100	152202	27488	962082	38283	106701	0	0	8147	759524	0	0
2024-04-28 16:53:32			0	33907	0	0	0	18407	17100	152286	27862	962090	38284	106702	0	0	8148	758582	0	0
2024-04-28 16:54:32			0	33909	0	0	0	18415	17100	152246	27376	962082	38283	106705	0	0	8148	758482	0	0
2024-04-28 16:55:32			0	33916	0	0	0	18399	17100	152298	27673	962116	38294	106699	0	0	8148	758135	0	0
2024-04-28 16:56:32			0	33914	0	0	0	18410	17080	152286	27973	962084	38282	106703	0	0	8148	758317	0	0
2024-04-28 16:57:32			0	33899	0	0	0	18405	17090	152322	27909	962074	38282	106701	0	0	8147	759020	0	0
2024-04-28 16:58:32			0	33915	0	0	0	18386	17100	152154	27926	962055	38283	106694	0	0	8148	758185	0	0
2024-04-28 16:59:32			0	33895	0	0	0	18368	17090	152314	27842	961933	38282	106687	0	0	8147	759218	0	0
2024-04-28 17:00:32			0	33902	0	0	0	18309	17090	152358	27585	962021	38260	106664	0	0	8149	758871	0	0
2024-04-28 17:01:32			0	33889	0	0	0	18254	17090	152382	27763	961994	38260	106643	0	0	8149	759516	0	0
2024-04-28 17:02:32			0	33886	0	0	0	18233	17080	152238	27980	961838	38270	106635	0	0	8149	759706	0	0
2024-04-28 17:03:32			0	33909	0	0	0	18270	17070	152222	27698	961901	38258	106649	0	0	8150	758606	0	0
2024-04-28 17:04:32			0	33925	0	0	0	18236	17060	152094	27868	961884	38258	106636	0	0	8151	757854	0	0
2024-04-28 17:05:32			0	33940	0	0	0	18215	17050	152198	28478	961797	38257	106628	0	0	8153	757152	0	0
2024-04-28 17:06:32			0	33938	0	0	0	18272	17050	152086	27486	961762	38279	106650	0	0	8151	757251	0	0
2024-04-28 17:07:32			0	33955	0	0	0	18296	17030	152154	27682	961764	38255	106659	0	0	8152	756492	0	0
2024-04-28 17:08:32			0	33965	0	0	0	18285	17030	152038	27421	961773	38256	106655	0	0	8153	755997	0	0
2024-04-28 17:09:32			0	33965	0	0	0	18231	17020	152154	28190	961695	38288	106634	0	0	8154	756038	0	0
2024-04-28 17:10:32			0	33950	0	0	0	18064	17020	152066	27916	961651	38254	106570	0	0	8156	756780	0	0
2024-04-28 17:11:32			0	33952	0	0	0	17903	17000	152006	27944	961565	38253	106508	0	0	8158	756763	0	0
2024-04-28 17:12:32			0	33946	0	0	0	17844	16990	151966	28613	961496	38253	106485	0	0	8159	757102	0	0
2024-04-28 17:13:32			0	33960	0	0	0	17958	16970	151886	27824	961357	38241	106529	0	0	8158	756491	0	0
2024-04-28 17:14:32			0	33976	0	0	0	18049	16970	151978	27691	961402	38240	106564	0	0	8157	755699	0	0
2024-04-28 17:15:32			0	34001	0	0	0	18122	16960	152014	27518	961412	38238	106592	0	0	8157	754505	0	0
2024-04-28 17:16:32			0	34018	0	0	0	18212	16940	151850	27585	961414	38249	106627	0	0	8157	753747	0	0
2024-04-28 17:17:32			0	34056	0	0	0	18257	16950	151830	27847	961448	38259	106644	0	0	8158	751833	0	0
2024-04-28 17:18:32			0	34110	0	0	0	18285	16960	151586	27606	961544	38249	106655	0	0	8161	749137	0	0
2024-04-28 17:19:32			0	34136	0	0	0	18293	16960	151410	27637	961518	38249	106658	0	0	8162	747861	0	0
2024-04-28 17:20:32			0	34136	0	0	0	18298	16960	151330	27601	961597	38259	106660	0	0	8162	747861	0	0
2024-04-28 17:21:32			0	34166	0	0	0	18280	16950	151334	27958	961562	38259	106653	0	0	8164	746432	0	0
2024-04-28 17:22:32			0	34171	0	0	0	18275	16960	151230	27965	961526	38250	106651	0	0	8164	746147	0	0
2024-04-28 17:23:32			0	34162	0	0	0	18270	16950	151358	27402	961509	38249	106649	0	0	8164	746628	0	0
2024-04-28 17:24:32			0	34142	0	0	0	18270	16950	151294	27452	961536	38259	106649	0	0	8163	747608	0	0
2024-04-28 17:25:32			0	34136	0	0	0	18267	16960	151474	27880	961570	38238	106648	0	0	8163	747861	0	0
2024-04-28 17:26:32			0	34111	0	0	0	18257	16950	151418	27871	961509	38259	106644	0	0	8161	749129	0	0
2024-04-28 17:27:32			0	34119	0	0	0	18210	16960	151318	27741	961526	38250	106626	0	0	8163	748696	0	0
2024-04-28 17:28:32			0	34130	0	0	0	18150	16950	151366	27840	961536	38227	106603	0	0	8164	748196	0	0
2024-04-28 17:29:32			0	34158	0	0	0	18093	16950	151330	27795	961377	38249	106581	0	0	8167	746824	0	0
2024-04-28 17:30:32			0	34169	0	0	0	18023	16940	151206	27533	961282	38237	106554	0	0	8168	746326	0	0
2024-04-28 17:31:32			0	34197	0	0	0	18051	16920	151074	27523	961188	38224	106565	0	0	8169	745037	0	0
2024-04-28 17:32:32			0	34212	0	0	0	18072	16910	151086	27694	961198	38235	106573	0	0	8170	744344	0	0
2024-04-28 17:33:32			0	34222	0	0	0	18033	16910	150854	27599	961198	38246	106558	0	0	8171	743855	0	0
2024-04-28 17:34:32			0	34238	0	0	0	17929	16900	150858	27744	961103	38233	106518	0	0	8174	743114	0	0
2024-04-28 17:35:32			0	34268	0	0	0	17883	16900	150622	27462	961103	38211	106500	0	0	8176	741652	0	0
2024-04-28 17:36:32			0	34283	0	0	0	17812	16860	150574	27478	960879	38219	106473	0	0	8178	741082	0	0
2024-04-28 17:37:32			0	34310	0	0	0	17680	16840	150434	27907	960609	38184	106422	0	0	8182	739848	0	0
2024-04-28 17:38:32			0	34377	0	0	0	17646	16810	150175	27994	960401	38170	106409	0	0	8186	736715	0	0
2024-04-28 17:39:32			0	34414	0	0	0	17532	16770	150087	27566	960238	38179	106365	0	0	8190	735082	0	0
2024-04-28 17:40:32			0	34446	0	0	0	17535	16720	149791	27587	960059	38174	106366	0	0	8192	733734	0	0
2024-04-28 17:41:32			0	34487	0	0	0	17462	16700	149715	27640	960018	38172	106338	0	0	8195	731833	0	0
2024-04-28 17:42:32			0	34504	0	0	0	17483	16670	149659	27625	959898	38149	106346	0	0	8195	731132	0	0
2024-04-28 17:43:32			0	34532	0	0	0	17462	16650	149511	27963	959804	38146	106338	0	0	8197	729863	0	0
2024-04-28 17:44:32			0	34557	0	0	0	17420	16620	149511	27982	959658	38144	106322	0	0	8199	728779	0	0
2024-04-28 17:45:32			0	34601	0	0	0	17407	16590	149295	27640	959442	38130	106317	0	0	8202	726783	0	0
2024-04-28 17:46:32			0	34628	0	0	0	17361	16540	149247	27881	959263	38116	106299	0	0	8204	725685	0	0
2024-04-28 17:47:32			0	34662	0	0	0	17329	16510	149019	27448	959135	38112	106287	0	0	8206	724174	0	0
2024-04-28 17:48:32			0	34691	0	0	0	17322	16470	148975	27701	958938	38098	106284	0	0	8208	722944	0	0
2024-04-28 17:49:32			0	34721	0	0	0	17298	16410	148963	27658	958716	38094	106275	0	0	8210	721745	0	0
2024-04-28 17:50:32			0	34752	0	0	0	17264	16380	148891	27220	958554	38090	106262	0	0	8212	720383	0	0
2024-04-28 17:51:32			0	34763	0	0	0	17257	16330	148903	27913	958472	38086	106259	0	0	8212	720053	0	0
2024-04-28 17:52:32			0	34790	0	0	0	17251	16300	148739	27580	958405	38084	106257	0	0	8214	718884	0	0
2024-04-28 17:53:32			0	34800	0	0	0	17246	16260	148695	27788	958313	38081	106255	0	0	8214	718563	0	0
2024-04-28 17:54:32			0	34836	0	0	0	17259	16250	148663	27483	958289	38079	106260	0	0	8216	716890	0	0
2024-04-28 17:55:32			0	34852	0	0	0	17257	16230	148647	27803	958256	38098	106259	0	0	8217	716208	0	0
2024-04-28 17:56:32			0	34853	0	0	0	17262	16210	148667	27606	958223	38108	106261	0	0	8217	716238	0	0
2024-04-28 17:57:32			0	34842	0	0	0	17270	16200	148587	27675	958233	38108	106264	0	0	8216	716799	0	0
2024-04-28 17:58:32			0	34839	0	0	0	17267	16200	148679	27900	958207	38097	106263	0	0	8216	716941	0	0
2024-04-28 17:59:32			0	34847	0	0	0	17257	16180	148803	27457	958121	38094	106259	0	0	8216	716639	0	0
2024-04-28 18:00:32			0	34815	0	0	0	17270	16160	148683	27703	958150	38104	106264	0	0	8214	718238	0	0
2024-04-28 18:01:32			0	34806	0	0	0	17280	16160	148787	27414	958202	38092	106268	0	0	8214	718666	0	0
2024-04-28 18:02:32			0	34806	0	0	0	17290	16160	148887	27888	958176	38092	106272	0	0	8213	718666	0	0
2024-04-28 18:03:32			0	34816	0	0	0	17298	16140	148871	27409	958231	38103	106275	0	0	8214	718267	0	0
2024-04-28 18:04:32			0	34812	0	0	0	17322	16140	148963	27390	958231	38092	106284	0	0	8213	718458	0	0
2024-04-28 18:05:32			0	34829	0	0	0	17342	16140	148895	27599	958204	38103	106292	0	0	8214	717649	0	0
2024-04-28 18:06:32			0	34853	0	0	0	17353	16130	148967	27450	958162	38102	106296	0	0	8215	716547	0	0
2024-04-28 18:07:32			0	34841	0	0	0	17363	16120	148851	27504	958084	38100	106300	0	0	8214	717156	0	0
2024-04-28 18:08:32			0	34841	0	0	0	17368	16120	148887	27724	958110	38100	106302	0	0	8214	717156	0	0
2024-04-28 18:09:32			0	34849	0	0	0	17368	16120	148867	27453	958110	38111	106302	0	0	8214	716776	0	0
2024-04-28 18:10:32			0	34869	0	0	0	17348	16120	148795	27644	958137	38089	106294	0	0	8216	715826	0	0
2024-04-28 18:11:32			0	34854	0	0	0	17350	16110	148699	27597	958050	38100	106295	0	0	8215	716577	0	0
2024-04-28 18:12:32			0	34839	0	0	0	17335	16120	148715	27464	958031	38111	106289	0	0	8214	717251	0	0
2024-04-28 18:13:32			0	34870	0	0	0	17335	16110	148735	27486	958120	38099	106289	0	0	8216	715818	0	0
2024-04-28 18:14:32			0	34851	0	0	0	17342	16100	148795	27568	958060	38099	106292	0	0	8215	716758	0	0
2024-04-28 18:15:32			0	34869	0	0	0	17332	16100	148855	27630	958051	38099	106288	0	0	8216	715904	0	0
2024-04-28 18:16:32			0	34849	0	0	0	17335	16090	148771	27663	958070	38110	106289	0	0	8215	716892	0	0
2024-04-28 18:17:32			0	34855	0	0	0	17342	16100	148799	27926	958078	38110	106292	0	0	8215	716568	0	0
2024-04-28 18:18:32			0	34862	0	0	0	17332	16100	148687	27498	958086	38099	106288	0	0	8216	716236	0	0
2024-04-28 18:19:32			0	34863	0	0	0	17340	16110	148755	27505	958120	38110	106291	0	0	8216	716150	0	0
2024-04-28 18:20:32			0	34873	0	0	0	17337	16110	148711	27569	958147	38122	106290	0	0	8216	715675	0	0
2024-04-28 18:21:32			0	34873	0	0	0	17371	16120	148787	27365	958216	38122	106303	0	0	8216	715636	0	0
2024-04-28 18:22:32			0	34879	0	0	0	17361	16130	148675	27647	958206	38123	106299	0	0	8216	715313	0	0
2024-04-28 18:23:32			0	34880	0	0	0	17366	16120	148675	27770	958189	38111	106301	0	0	8216	715304	0	0
2024-04-28 18:24:32			0	34861	0	0	0	17350	16110	148695	27320	958120	38110	106295	0	0	8215	716245	0	0
2024-04-28 18:25:32			0	34869	0	0	0	17285	16120	148759	27595	958031	38111	106270	0	0	8217	715826	0	0
2024-04-28 18:26:32			0	34876	0	0	0	17290	16110	148523	27182	958068	38088	106272	0	0	8217	715533	0	0
2024-04-28 18:27:32			0	34912	0	0	0	17285	16090	148455	27531	957991	38110	106270	0	0	8219	713903	0	0
2024-04-28 18:28:32			0	34934	0	0	0	17280	16090	148315	27499	958017	38099	106268	0	0	8221	712862	0	0
2024-04-28 18:29:32			0	34924	0	0	0	17285	16080	148391	27362	958001	38109	106270	0	0	8220	713373	0	0
2024-04-28 18:30:32			0	34929	0	0	0	17283	16070	148483	27377	957958	38086	106269	0	0	8220	713175	0	0
2024-04-28 18:31:32			0	34889	0	0	0	17285	16080	148575	27661	957974	38098	106270	0	0	8218	715032	0	0
2024-04-28 18:32:32			0	34908	0	0	0	17283	16090	148487	27739	958061	38109	106269	0	0	8219	714093	0	0
2024-04-28 18:33:32			0	34899	0	0	0	17342	16080	148567	27300	958124	38108	106292	0	0	8217	714558	0	0
2024-04-28 18:34:32			0	34894	0	0	0	17428	16100	148591	27282	958210	38110	106325	0	0	8216	714718	0	0
2024-04-28 18:35:32			0	34913	0	0	0	17446	16110	148591	27279	958339	38133	106332	0	0	8217	713779	0	0
2024-04-28 18:36:32			0	34932	0	0	0	17459	16120	148455	27547	958374	38133	106337	0	0	8218	712841	0	0
2024-04-28 18:37:32			0	34927	0	0	0	17519	16140	148415	27242	958407	38124	106360	0	0	8216	713001	0	0
2024-04-28 18:38:32			0	34952	0	0	0	17563	16150	148411	27455	958458	38125	106377	0	0	8217	711780	0	0
2024-04-28 18:39:32			0	34963	0	0	0	17602	16160	148311	27661	958545	38136	106392	0	0	8217	711222	0	0
2024-04-28 18:40:32			0	34963	0	0	0	17618	16180	148307	27445	958683	38127	106398	0	0	8217	711145	0	0
2024-04-28 18:41:32			0	34967	0	0	0	17612	16200	148227	27372	958681	38140	106396	0	0	8217	710879	0	0
2024-04-28 18:42:32			0	34970	0	0	0	17602	16210	148251	27720	958724	38140	106392	0	0	8218	710699	0	0
2024-04-28 18:43:32			0	34984	0	0	0	17612	16230	148207	27339	958870	38143	106396	0	0	8218	709962	0	0
2024-04-28 18:44:32			0	34947	0	0	0	17610	16240	148259	27731	958852	38144	106395	0	0	8216	711670	0	0
2024-04-28 18:45:32			0	34959	0	0	0	17649	16250	148263	27537	958929	38166	106410	0	0	8216	711065	0	0
2024-04-28 18:46:32			0	34959	0	0	0	17677	16270	148279	27098	959033	38157	106421	0	0	8216	710988	0	0
2024-04-28 18:47:32			0	34978	0	0	0	17693	16290	148147	27369	959039	38159	106427	0	0	8217	710015	0	0
2024-04-28 18:48:32			0	34996	0	0	0	17693	16290	147975	27178	959153	38159	106427	0	0	8218	709166	0	0
2024-04-28 18:49:32			0	35008	0	0	0	17657	16300	147855	27393	959090	38161	106413	0	0	8219	708563	0	0
2024-04-28 18:50:32			0	35034	0	0	0	17646	16320	147783	27334	959062	38150	106409	0	0	8221	707263	0	0
2024-04-28 18:51:32			0	35051	0	0	0	17654	16320	147771	27672	959115	38161	106412	0	0	8222	706464	0	0
2024-04-28 18:52:32			0	35024	0	0	0	17649	16320	147695	27729	959096	38151	106410	0	0	8220	707733	0	0
2024-04-28 18:53:32			0	35047	0	0	0	17638	16320	147739	27395	959070	38140	106406	0	0	8222	706652	0	0
2024-04-28 18:54:32			0	35009	0	0	0	17670	16330	147775	27381	959139	38184	106418	0	0	8219	708401	0	0
2024-04-28 18:55:32			0	35024	0	0	0	17688	16350	147919	27443	959216	38165	106425	0	0	8220	707619	0	0
2024-04-28 18:56:32			0	35023	0	0	0	17698	16360	147911	27460	959267	38154	106429	0	0	8220	707627	0	0
2024-04-28 18:57:32			0	34992	0	0	0	17735	16370	147955	27331	959302	38177	106443	0	0	8217	709048	0	0
2024-04-28 18:58:32			0	34999	0	0	0	17761	16380	147955	27332	959397	38188	106453	0	0	8217	708680	0	0
2024-04-28 18:59:32			0	35011	0	0	0	17742	16380	147823	27540	959326	38177	106446	0	0	8218	708115	0	0
2024-04-28 19:00:32			0	35025	0	0	0	17771	16390	147855	27580	959361	38178	106457	0	0	8219	707418	0	0
2024-04-28 19:01:32			0	35000	0	0	0	17779	16390	147955	27739	959422	38168	106460	0	0	8217	708595	0	0
2024-04-28 19:02:32			0	34995	0	0	0	17781	16400	148003	27154	959412	38179	106461	0	0	8217	708792	0	0
2024-04-28 19:03:32			0	34983	0	0	0	17768	16400	148027	27583	959412	38179	106456	0	0	8216	709357	0	0
2024-04-28 19:04:32			0	34947	0	0	0	17797	16410	148071	27313	959507	38170	106467	0	0	8214	711017	0	0
2024-04-28 19:05:32			0	34945	0	0	0	17805	16420	148159	27658	959576	38181	106470	0	0	8214	711073	0	0
2024-04-28 19:06:32			0	34913	0	0	0	17820	16430	148231	27621	959540	38182	106476	0	0	8212	712546	0	0
2024-04-28 19:07:32			0	34912	0	0	0	17831	16440	148251	27633	959609	38194	106480	0	0	8212	712555	0	0
2024-04-28 19:08:32			0	34907	0	0	0	17838	16460	148291	27320	959660	38184	106483	0	0	8211	712714	0	0
2024-04-28 19:09:32			0	34882	0	0	0	17833	16470	148367	27371	959676	38174	106481	0	0	8210	713858	0	0
2024-04-28 19:10:32			0	34883	0	0	0	17828	16470	148411	27261	959623	38196	106479	0	0	8210	713811	0	0
2024-04-28 19:11:32			0	34890	0	0	0	17812	16470	148375	27300	959676	38185	106473	0	0	8211	713480	0	0
2024-04-28 19:12:32			0	34871	0	0	0	17768	16470	148379	27524	959536	38196	106456	0	0	8210	714379	0	0
2024-04-28 19:13:32			0	34841	0	0	0	17740	16450	148439	27521	959546	38184	106445	0	0	8209	715879	0	0
2024-04-28 19:14:32			0	34841	0	0	0	17714	16450	148611	27232	959441	38173	106435	0	0	8210	715879	0	0
2024-04-28 19:15:32			0	34807	0	0	0	17711	16450	148595	27568	959538	38172	106434	0	0	8208	717493	0	0
2024-04-28 19:16:32			0	34779	0	0	0	17706	16440	148731	27833	959345	38182	106432	0	0	8206	718864	0	0
2024-04-28 19:17:32			0	34762	0	0	0	17696	16440	148783	27533	959337	38171	106428	0	0	8205	719673	0	0
2024-04-28 19:18:32			0	34729	0	0	0	17651	16420	148783	27312	959305	38170	106411	0	0	8204	721324	0	0
2024-04-28 19:19:32			0	34752	0	0	0	17597	16400	148903	27602	959201	38158	106390	0	0	8206	720305	0	0
2024-04-28 19:20:32			0	34743	0	0	0	17584	16380	148931	27538	959089	38156	106385	0	0	8206	720812	0	0
2024-04-28 19:21:32			0	34715	0	0	0	17553	16390	148911	27440	958992	38146	106373	0	0	8205	722110	0	0
2024-04-28 19:22:32			0	34745	0	0	0	17545	16360	148851	27346	958916	38142	106370	0	0	8207	720795	0	0
2024-04-28 19:23:32			0	34741	0	0	0	17522	16350	148931	27383	958768	38142	106361	0	0	8207	721025	0	0
2024-04-28 19:24:32			0	34736	0	0	0	17509	16320	148979	27467	958693	38128	106356	0	0	8207	721380	0	0
2024-04-28 19:25:32			0	34735	0	0	0	17488	16310	148919	27261	958676	38138	106348	0	0	8207	721467	0	0
2024-04-28 19:26:32			0	34745	0	0	0	17470	16280	148979	27274	958601	38136	106341	0	0	8208	721106	0	0
2024-04-28 19:27:32			0	34742	0	0	0	17449	16270	148995	27336	958479	38135	106333	0	0	8208	721289	0	0
2024-04-28 19:28:32			0	34765	0	0	0	17425	16240	148955	27689	958456	38144	106324	0	0	8209	720308	0	0
2024-04-28 19:29:32			0	34770	0	0	0	17418	16220	148879	27490	958353	38121	106321	0	0	8210	720148	0	0
2024-04-28 19:30:32			0	34783	0	0	0	17418	16200	148791	27511	958320	38129	106321	0	0	8210	719606	0	0
2024-04-28 19:31:32			0	34798	0	0	0	17405	16190	148823	27371	958243	38127	106316	0	0	8211	718930	0	0
2024-04-28 19:32:32			0	34799	0	0	0	17405	16180	148719	27448	958235	38150	106316	0	0	8211	718921	0	0
2024-04-28 19:33:32			0	34832	0	0	0	17402	16170	148575	27142	958211	38126	106315	0	0	8213	717390	0	0
2024-04-28 19:34:32			0	34830	0	0	0	17397	16150	148687	27428	958160	38125	106313	0	0	8213	717563	0	0
2024-04-28 19:35:32			0	34847	0	0	0	17386	16140	148631	27403	958117	38124	106309	0	0	8214	716794	0	0
2024-04-28 19:36:32			0	34871	0	0	0	17384	16120	148631	27396	958040	38123	106308	0	0	8215	715731	0	0
2024-04-28 19:37:32			0	34865	0	0	0	17368	16110	148563	27225	958050	38122	106302	0	0	8215	716055	0	0
2024-04-28 19:38:32			0	34890	0	0	0	17361	16110	148475	27388	958015	38110	106299	0	0	8217	714869	0	0
2024-04-28 19:39:32			0	34908	0	0	0	17345	16100	148415	27248	957946	38110	106293	0	0	8218	714054	0	0
2024-04-28 19:40:32			0	34904	0	0	0	17327	16070	148451	27197	957879	38119	106286	0	0	8218	714359	0	0
2024-04-28 19:41:32			0	34923	0	0	0	17329	16080	148351	27407	957861	38108	106287	0	0	8219	713421	0	0
2024-04-28 19:42:32			0	34941	0	0	0	17314	16060	148375	27293	957802	38117	106281	0	0	8220	712646	0	0
2024-04-28 19:43:32			0	34926	0	0	0	17303	16060	148347	27261	957757	38139	106277	0	0	8220	713356	0	0
2024-04-28 19:44:32			0	34942	0	0	0	17316	16040	148231	27563	957769	38116	106282	0	0	8220	712675	0	0
2024-04-28 19:45:32			0	34922	0	0	0	17309	16030	148367	27469	957779	38115	106279	0	0	8219	713661	0	0
2024-04-28 19:46:32			0	34947	0	0	0	17306	16030	148299	27448	957726	38104	106278	0	0	8221	712478	0	0
2024-04-28 19:47:32			0	34954	0	0	0	17319	16010	148427	27677	957702	38102	106283	0	0	8221	712223	0	0
2024-04-28 19:48:32			0	34941	0	0	0	17301	16020	148331	27852	957710	38125	106276	0	0	8220	712800	0	0
2024-04-28 19:49:32			0	34960	0	0	0	17303	16010	148231	27209	957649	38113	106277	0	0	8221	711940	0	0
2024-04-28 19:50:32			0	34978	0	0	0	17288	16010	148275	27717	957694	38124	106271	0	0	8222	711089	0	0
2024-04-28 19:51:32			0	34968	0	0	0	17296	16000	148219	27523	957625	38123	106274	0	0	8222	711600	0	0
2024-04-28 19:52:32			0	34979	0	0	0	17283	16000	148247	27556	957651	38123	106269	0	0	8223	711080	0	0
2024-04-28 19:53:32			0	34972	0	0	0	17283	16000	148271	27211	957598	38133	106269	0	0	8222	711411	0	0
2024-04-28 19:54:32			0	34952	0	0	0	17267	15980	148315	27175	957618	38121	106263	0	0	8221	712433	0	0
2024-04-28 19:55:32			0	34913	0	0	0	17283	15980	148411	27499	957618	38110	106269	0	0	8219	714280	0	0
2024-04-28 19:56:32			0	34902	0	0	0	17288	15980	148523	27157	957645	38110	106271	0	0	8218	714801	0	0
2024-04-28 19:57:32			0	34894	0	0	0	17277	15970	148575	27469	957584	38121	106267	0	0	8218	715219	0	0
2024-04-28 19:58:32			0	34895	0	0	0	17275	15970	148639	26989	957576	38109	106266	0	0	8218	715172	0	0
2024-04-28 19:59:32			0	34901	0	0	0	17262	15960	148599	27131	957515	38109	106261	0	0	8218	714926	0	0
2024-04-28 20:00:32			0	34906	0	0	0	17267	15950	148511	27464	957551	38119	106263	0	0	8219	714727	0	0
2024-04-28 20:01:32			0	34915	0	0	0	17264	15960	148487	27613	957488	38098	106262	0	0	8219	714262	0	0
2024-04-28 20:02:32			0	34917	0	0	0	17267	15960	148447	27478	957559	38108	106263	0	0	8219	714167	0	0
2024-04-28 20:03:32			0	34911	0	0	0	17264	15950	148443	27428	957525	38119	106262	0	0	8219	714490	0	0
2024-04-28 20:04:32			0	34931	0	0	0	17257	15940	148443	27562	957430	38118	106259	0	0	8220	713581	0	0
2024-04-28 20:05:32			0	34914	0	0	0	17270	15940	148467	27332	957535	38128	106264	0	0	8219	714386	0	0
2024-04-28 20:06:32			0	34917	0	0	0	17264	15940	148503	27261	957509	38118	106262	0	0	8219	714244	0	0
2024-04-28 20:07:32			0	34901	0	0	0	17280	15940	148551	27538	957482	38128	106268	0	0	8218	715003	0	0
2024-04-28 20:08:32			0	34899	0	0	0	17283	15930	148583	27559	957519	38106	106269	0	0	8218	715136	0	0
2024-04-28 20:09:32			0	34896	0	0	0	17316	15950	148603	27083	957596	38118	106282	0	0	8217	715201	0	0
2024-04-28 20:10:32			0	34909	0	0	0	17322	15950	148507	27447	957683	38119	106284	0	0	8218	714585	0	0
2024-04-28 20:11:32			0	34911	0	0	0	17314	15960	148499	27227	957612	38119	106281	0	0	8218	714452	0	0
2024-04-28 20:12:32			0	34914	0	0	0	17314	15960	148383	27900	957646	38130	106281	0	0	8218	714309	0	0
2024-04-28 20:13:32			0	34963	0	0	0	17332	15960	148363	27474	957646	38109	106288	0	0	8221	711990	0	0
2024-04-28 20:14:32			0	35000	0	0	0	17342	15960	148111	27559	957673	38109	106292	0	0	8223	710242	0	0
2024-04-28 20:15:32			0	34997	0	0	0	17353	15970	148063	27196	957716	38131	106296	0	0	8222	710345	0	0
2024-04-28 20:16:32			0	35021	0	0	0	17350	15980	148019	27350	957697	38121	106295	0	0	8224	709175	0	0
2024-04-28 20:17:32			0	35045	0	0	0	17366	15990	147871	27281	957793	38123	106301	0	0	8225	708006	0	0
2024-04-28 20:18:32			0	35068	0	0	0	17379	15990	147819	27561	957793	38133	106306	0	0	8226	706924	0	0
2024-04-28 20:19:32			0	35062	0	0	0	17386	15990	147891	27590	957827	38133	106309	0	0	8225	707206	0	0
2024-04-28 20:20:32			0	35080	0	0	0	17389	16000	147863	27421	957817	38134	106310	0	0	8226	706322	0	0
2024-04-28 20:21:32			0	35107	0	0	0	17397	16010	147751	27350	957905	38134	106313	0	0	8228	705016	0	0
2024-04-28 20:22:32			0	35110	0	0	0	17389	16020	147580	27495	957895	38135	106310	0	0	8228	704837	0	0
2024-04-28 20:23:32			0	35111	0	0	0	17376	16030	147567	27352	957990	38147	106305	0	0	8229	704752	0	0
2024-04-28 20:24:32			0	35122	0	0	0	17384	16040	147568	27479	958033	38126	106308	0	0	8229	704198	0	0
2024-04-28 20:25:32			0	35096	0	0	0	17353	16030	147563	27232	957919	38125	106296	0	0	8228	705456	0	0
2024-04-28 20:26:32			0	35082	0	0	0	17358	16040	147583	27229	957962	38137	106298	0	0	8227	706075	0	0
2024-04-28 20:27:32			0	35066	0	0	0	17368	16050	147707	27725	957891	38138	106302	0	0	8226	706789	0	0
2024-04-28 20:28:32			0	35075	0	0	0	17361	16050	147695	27256	957996	38127	106299	0	0	8227	706366	0	0
2024-04-28 20:29:32			0	35062	0	0	0	17358	16050	147703	27433	957970	38138	106298	0	0	8226	706977	0	0
2024-04-28 20:30:32			0	35069	0	0	0	17350	16050	147623	27402	957891	38138	106295	0	0	8227	706648	0	0
2024-04-28 20:31:32			0	35081	0	0	0	17327	16040	147683	27332	957830	38116	106286	0	0	8228	706122	0	0
2024-04-28 20:32:32			0	35061	0	0	0	17303	16040	147603	27479	957804	38116	106277	0	0	8227	707062	0	0
2024-04-28 20:33:32			0	35047	0	0	0	17303	16020	147747	27086	957797	38125	106277	0	0	8226	707797	0	0
2024-04-28 20:34:32			0	35042	0	0	0	17311	16020	147763	27414	957771	38114	106280	0	0	8226	708033	0	0
2024-04-28 20:35:32			0	35048	0	0	0	17296	16020	147787	27161	957745	38114	106274	0	0	8226	707750	0	0
2024-04-28 20:36:32			0	35034	0	0	0	17298	16030	147799	27189	957832	38125	106275	0	0	8226	708371	0	0
2024-04-28 20:37:32			0	35018	0	0	0	17316	16020	147887	27265	957797	38125	106282	0	0	8224	709163	0	0
2024-04-28 20:38:32			0	35027	0	0	0	17337	16020	147903	27177	957789	38125	106290	0	0	8224	708739	0	0
2024-04-28 20:39:32			0	35014	0	0	0	17340	16020	147963	27379	957824	38125	106291	0	0	8224	709352	0	0
2024-04-28 20:40:32			0	35012	0	0	0	17355	16020	147999	27519	957868	38114	106297	0	0	8223	709446	0	0
2024-04-28 20:41:32			0	34992	0	0	0	17353	16020	148151	27358	957789	38125	106296	0	0	8222	710390	0	0
2024-04-28 20:42:32			0	34997	0	0	0	17371	16020	148115	27405	957842	38135	106303	0	0	8222	710154	0	0
2024-04-28 20:43:32			0	34984	0	0	0	17374	16020	148195	27218	957876	38125	106304	0	0	8221	710767	0	0
2024-04-28 20:44:32			0	34979	0	0	0	17384	16020	148227	27055	957842	38135	106308	0	0	8221	711003	0	0
2024-04-28 20:45:32			0	34968	0	0	0	17386	16020	148227	27263	957868	38125	106309	0	0	8220	711523	0	0
2024-04-28 20:46:32			0	34967	0	0	0	17407	16030	148159	27659	957911	38115	106317	0	0	8220	711532	0	0
2024-04-28 20:47:32			0	34986	0	0	0	17399	16030	148219	27287	957919	38136	106314	0	0	8221	710635	0	0
2024-04-28 20:48:32			0	34986	0	0	0	17399	16030	148155	27260	957893	38125	106314	0	0	8221	710635	0	0
2024-04-28 20:49:32			0	35002	0	0	0	17402	16030	148287	27270	957858	38136	106315	0	0	8222	709880	0	0
2024-04-28 20:50:32			0	34999	0	0	0	17407	16030	148051	27580	957893	38147	106317	0	0	8222	710021	0	0
2024-04-28 20:51:32			0	35014	0	0	0	17386	16030	147991	27623	957911	38125	106309	0	0	8223	709314	0	0
2024-04-28 20:52:32			0	35039	0	0	0	17399	16020	147891	27571	957903	38125	106314	0	0	8224	708174	0	0
2024-04-28 20:53:32			0	35044	0	0	0	17389	16030	147839	27353	957885	38125	106310	0	0	8225	707901	0	0
2024-04-28 20:54:32			0	35048	0	0	0	17381	16040	147855	27315	957875	38116	106307	0	0	8225	707674	0	0
2024-04-28 20:55:32			0	35032	0	0	0	17384	16030	147915	27554	957937	38125	106308	0	0	8224	708465	0	0
2024-04-28 20:56:32			0	34992	0	0	0	17384	16030	148071	27261	957840	38125	106308	0	0	8222	710351	0	0
2024-04-28 20:57:32			0	34960	0	0	0	17392	16020	148223	27613	957850	38114	106311	0	0	8220	711901	0	0
2024-04-28 20:58:32			0	34945	0	0	0	17397	16030	148299	27843	957885	38125	106313	0	0	8219	712572	0	0
2024-04-28 20:59:32			0	34910	0	0	0	17386	16030	148527	27265	957885	38147	106309	0	0	8217	714229	0	0
2024-04-28 21:00:32			0	34902	0	0	0	17381	16020	148543	27426	957850	38125	106307	0	0	8217	714647	0	0
2024-04-28 21:01:32			0	34880	0	0	0	17374	16020	148567	27381	957842	38135	106304	0	0	8216	715690	0	0
2024-04-28 21:02:32			0	34879	0	0	0	17361	16030	148611	27476	957840	38136	106299	0	0	8216	715699	0	0
2024-04-28 21:03:32			0	34855	0	0	0	17355	16020	148719	27398	957824	38125	106297	0	0	8214	716878	0	0
2024-04-28 21:04:32			0	34855	0	0	0	17350	16020	148783	27244	957816	38135	106295	0	0	8215	716878	0	0
2024-04-28 21:05:32			0	34838	0	0	0	17348	16020	148767	27282	957789	38114	106294	0	0	8214	717686	0	0
2024-04-28 21:06:32			0	34826	0	0	0	17353	16020	148763	27523	957789	38135	106296	0	0	8213	718257	0	0
2024-04-28 21:07:32			0	34818	0	0	0	17348	16010	148819	27587	957747	38124	106294	0	0	8212	718676	0	0
2024-04-28 21:08:32			0	34819	0	0	0	17350	16000	148751	27183	957738	38134	106295	0	0	8212	718668	0	0
2024-04-28 21:09:32			0	34811	0	0	0	17340	15990	148831	27209	957714	38133	106291	0	0	8212	719087	0	0
2024-04-28 21:10:32			0	34826	0	0	0	17340	16000	148735	27412	957765	38123	106291	0	0	8213	718334	0	0
2024-04-28 21:11:32			0	34831	0	0	0	17337	16000	148691	27814	957730	38133	106290	0	0	8213	718096	0	0
2024-04-28 21:12:32			0	34853	0	0	0	17332	15990	148711	27357	957687	38133	106288	0	0	8215	717089	0	0
2024-04-28 21:13:32			0	34852	0	0	0	17324	15990	148751	27381	957722	38123	106285	0	0	8215	717136	0	0
2024-04-28 21:14:32			0	34832	0	0	0	17327	16000	148743	27241	957704	38123	106286	0	0	8214	718049	0	0
2024-04-28 21:15:32			0	34856	0	0	0	17303	15990	148687	27307	957687	38111	106277	0	0	8215	716946	0	0
2024-04-28 21:16:32			0	34856	0	0	0	17293	15980	148647	27150	957653	38132	106273	0	0	8215	716985	0	0
2024-04-28 21:17:32			0	34860	0	0	0	17293	15970	148587	27535	957584	38121	106273	0	0	8216	716834	0	0
2024-04-28 21:18:32			0	34862	0	0	0	17296	15980	148611	27379	957592	38110	106274	0	0	8216	716700	0	0
2024-04-28 21:19:32			0	34898	0	0	0	17290	15980	148631	27689	957592	38121	106272	0	0	8218	714991	0	0
2024-04-28 21:20:32			0	34891	0	0	0	17293	15960	148615	27329	957541	38120	106273	0	0	8217	715400	0	0
2024-04-28 21:21:32			0	34890	0	0	0	17290	15980	148591	27388	957592	38131	106272	0	0	8217	715370	0	0
2024-04-28 21:22:32			0	34879	0	0	0	17290	15960	148451	27133	957594	38120	106272	0	0	8217	715970	0	0
2024-04-28 21:23:32			0	34893	0	0	0	17301	15970	148567	27126	957602	38130	106276	0	0	8217	715267	0	0
2024-04-28 21:24:32			0	34867	0	0	0	17298	15960	148607	27431	957568	38120	106275	0	0	8216	716539	0	0
2024-04-28 21:25:32			0	34876	0	0	0	17296	15960	148719	27123	957533	38119	106274	0	0	8216	716112	0	0
2024-04-28 21:26:32			0	34846	0	0	0	17288	15950	148787	27100	957578	38129	106271	0	0	8215	717576	0	0
2024-04-28 21:27:32			0	34841	0	0	0	17288	15950	148819	27388	957543	38118	106271	0	0	8215	717814	0	0
2024-04-28 21:28:32			0	34819	0	0	0	17290	15960	148819	27371	957533	38119	106272	0	0	8213	718823	0	0
2024-04-28 21:29:32			0	34807	0	0	0	17285	15950	149031	26986	957517	38128	106270	0	0	8213	719433	0	0
2024-04-28 21:30:32			0	34787	0	0	0	17293	15940	149123	27121	957561	38118	106273	0	0	8211	720426	0	0
2024-04-28 21:31:32			0	34773	0	0	0	17298	15940	149127	27504	957561	38118	106275	0	0	8210	721094	0	0
2024-04-28 21:32:32			0	34768	0	0	0	17301	15950	149171	27279	957551	38119	106276	0	0	8210	721293	0	0
2024-04-28 21:33:32			0	34763	0	0	0	17306	15950	149127	27149	957596	38118	106278	0	0	8210	721532	0	0
2024-04-28 21:34:32			0	34750	0	0	0	17309	15950	149171	27130	957578	38129	106279	0	0	8209	722153	0	0
2024-04-28 21:35:32			0	34735	0	0	0	17311	15950	149207	27196	957578	38129	106280	0	0	8208	722870	0	0
2024-04-28 21:36:32			0	34767	0	0	0	17322	15950	149179	27315	957604	38140	106284	0	0	8210	721341	0	0
2024-04-28 21:37:32			0	34787	0	0	0	17322	15950	149255	27119	957578	38129	106284	0	0	8211	720387	0	0
2024-04-28 21:38:32			0	34775	0	0	0	17322	15960	149087	27154	957673	38130	106284	0	0	8210	720920	0	0
2024-04-28 21:39:32			0	34784	0	0	0	17327	15950	149027	27445	957657	38119	106286	0	0	8211	720530	0	0
2024-04-28 21:40:32			0	34778	0	0	0	17329	15970	149015	27305	957663	38131	106287	0	0	8210	720738	0	0
2024-04-28 21:41:32			0	34787	0	0	0	17327	15970	149083	27228	957628	38109	106286	0	0	8211	720309	0	0
2024-04-28 21:42:32			0	34757	0	0	0	17324	15960	149131	27258	957612	38140	106285	0	0	8209	721780	0	0
2024-04-28 21:43:32			0	34740	0	0	0	17324	15970	149207	27310	957628	38120	106285	0	0	8208	722553	0	0
2024-04-28 21:44:32			0	34758	0	0	0	17327	15960	149247	27414	957620	38130	106286	0	0	8209	721732	0	0
2024-04-28 21:45:32			0	34761	0	0	0	17324	15960	149327	27367	957541	38141	106285	0	0	8209	721589	0	0
2024-04-28 21:46:32			0	34747	0	0	0	17322	15960	149247	27138	957586	38129	106284	0	0	8209	722258	0	0
2024-04-28 21:47:32			0	34733	0	0	0	17314	15970	149239	27203	957602	38141	106281	0	0	8208	722888	0	0
2024-04-28 21:48:32			0	34746	0	0	0	17327	15970	149207	27232	957610	38121	106286	0	0	8209	722267	0	0
2024-04-28 21:49:32			0	34722	0	0	0	17316	15970	149247	27183	957628	38130	106282	0	0	8207	723414	0	0
2024-04-28 21:50:32			0	34725	0	0	0	17327	15980	149323	27369	957671	38121	106286	0	0	8207	723232	0	0
2024-04-28 21:51:32			0	34713	0	0	0	17324	15970	149347	27319	957628	38130	106285	0	0	8207	723845	0	0
2024-04-28 21:52:32			0	34722	0	0	0	17316	15970	149363	26930	957655	38152	106282	0	0	8207	723414	0	0
2024-04-28 21:53:32			0	34714	0	0	0	17329	15970	149447	27237	957734	38130	106287	0	0	8207	723797	0	0
2024-04-28 21:54:32			0	34696	0	0	0	17332	15960	149439	27357	957673	38120	106288	0	0	8206	724698	0	0
2024-04-28 21:55:32			0	34697	0	0	0	17324	15970	149451	27007	957689	38110	106285	0	0	8206	724611	0	0
2024-04-28 21:56:32			0	34677	0	0	0	17311	15980	149395	27286	957645	38131	106280	0	0	8205	725531	0	0
2024-04-28 21:57:32			0	34696	0	0	0	17327	15970	149515	27208	957655	38120	106286	0	0	8206	724659	0	0
2024-04-28 21:58:32			0	34675	0	0	0	17324	15970	149539	27199	957681	38130	106285	0	0	8205	725666	0	0
2024-04-28 21:59:32			0	34660	0	0	0	17314	15970	149531	27105	957628	38130	106281	0	0	8204	726386	0	0
2024-04-28 22:00:32			0	34671	0	0	0	17319	15980	149559	27059	957679	38122	106283	0	0	8205	725819	0	0
2024-04-28 22:01:32			0	34652	0	0	0	17319	15980	149531	27209	957724	38131	106283	0	0	8203	726731	0	0
2024-04-28 22:02:32			0	34651	0	0	0	17324	15980	149787	27204	957671	38131	106285	0	0	8203	726778	0	0
2024-04-28 22:03:32			0	34665	0	0	0	17322	15980	149751	27055	957679	38122	106284	0	0	8204	726107	0	0
2024-04-28 22:04:32			0	34630	0	0	0	17314	15980	149651	27194	957724	38131	106281	0	0	8202	727788	0	0
2024-04-28 22:05:32			0	34634	0	0	0	17322	15980	149731	27253	957671	38121	106284	0	0	8202	727595	0	0
2024-04-28 22:06:32			0	34627	0	0	0	17322	15980	149855	27237	957732	38132	106284	0	0	8202	727932	0	0
2024-04-28 22:07:32			0	34602	0	0	0	17348	15990	149811	26967	957714	38133	106294	0	0	8200	729095	0	0
2024-04-28 22:08:32			0	34595	0	0	0	17353	15990	149847	27336	957819	38133	106296	0	0	8200	729432	0	0
2024-04-28 22:09:32			0	34588	0	0	0	17366	15990	149899	26835	957819	38155	106301	0	0	8199	729769	0	0
2024-04-28 22:10:32			0	34579	0	0	0	17361	16000	149947	27576	957870	38123	106299	0	0	8199	730164	0	0
2024-04-28 22:11:32			0	34578	0	0	0	17366	16020	149855	27422	957816	38146	106301	0	0	8199	730133	0	0
2024-04-28 22:12:32			0	34559	0	0	0	17366	16010	149911	26920	957826	38134	106301	0	0	8198	731089	0	0
2024-04-28 22:13:32			0	34578	0	0	0	17384	16020	149791	27022	957903	38135	106308	0	0	8198	730133	0	0
2024-04-28 22:14:32			0	34585	0	0	0	17392	16030	149779	27057	957937	38125	106311	0	0	8199	729756	0	0
2024-04-28 22:15:32			0	34595	0	0	0	17397	16030	149823	27315	957998	38147	106313	0	0	8199	729275	0	0
2024-04-28 22:16:32			0	34586	0	0	0	17405	16030	149743	27256	957937	38136	106316	0	0	8198	729708	0	0
2024-04-28 22:17:32			0	34588	0	0	0	17389	16040	149767	27441	957935	38126	106310	0	0	8199	729572	0	0
2024-04-28 22:18:32			0	34622	0	0	0	17405	16030	149783	27246	958024	38125	106316	0	0	8201	727976	0	0
2024-04-28 22:19:32			0	34613	0	0	0	17405	16040	149843	27443	957954	38126	106316	0	0	8200	728369	0	0
2024-04-28 22:20:32			0	34587	0	0	0	17418	16040	149791	27244	957988	38126	106321	0	0	8198	729621	0	0
2024-04-28 22:21:32			0	34594	0	0	0	17425	16050	149767	27452	957996	38149	106324	0	0	8199	729244	0	0
2024-04-28 22:22:32			0	34582	0	0	0	17444	16050	149859	27353	958075	38149	106331	0	0	8198	729822	0	0
2024-04-28 22:23:32			0	34603	0	0	0	17464	16060	149883	27046	958092	38150	106339	0	0	8199	728772	0	0
2024-04-28 22:24:32			0	34581	0	0	0	17462	16060	149783	27166	958065	38150	106338	0	0	8197	729831	0	0
2024-04-28 22:25:32			0	34597	0	0	0	17464	16060	149799	27154	958100	38150	106339	0	0	8198	729061	0	0
2024-04-28 22:26:32			0	34630	0	0	0	17457	16060	149615	27046	958171	38150	106336	0	0	8200	727473	0	0
2024-04-28 22:27:32			0	34656	0	0	0	17459	16080	149559	27111	958159	38141	106337	0	0	8202	726147	0	0
2024-04-28 22:28:32			0	34689	0	0	0	17472	16080	149407	27124	958151	38140	106342	0	0	8203	724565	0	0
2024-04-28 22:29:32			0	34729	0	0	0	17462	16080	149267	27260	958151	38151	106338	0	0	8206	722650	0	0
2024-04-28 22:30:32			0	34750	0	0	0	17464	16080	149063	27521	958211	38152	106339	0	0	8207	721647	0	0
2024-04-28 22:31:32			0	34778	0	0	0	17472	16090	149055	27296	958167	38152	106342	0	0	8208	720272	0	0
2024-04-28 22:32:32			0	34767	0	0	0	17475	16090	149027	27533	958246	38152	106343	0	0	8208	720797	0	0
2024-04-28 22:33:32			0	34771	0	0	0	17467	16090	149027	26994	958201	38153	106340	0	0	8208	720606	0	0
2024-04-28 22:34:32			0	34762	0	0	0	17464	16090	149043	27313	958193	38152	106339	0	0	8208	721035	0	0
2024-04-28 22:35:32			0	34767	0	0	0	17472	16100	149047	27388	958262	38142	106342	0	0	8208	720758	0	0
2024-04-28 22:36:32			0	34737	0	0	0	17475	16090	149043	27043	958149	38153	106343	0	0	8206	722229	0	0
2024-04-28 22:37:32			0	34744	0	0	0	17480	16100	149123	27241	958183	38153	106345	0	0	8206	721856	0	0
2024-04-28 22:38:32			0	34724	0	0	0	17467	16090	149167	27355	958193	38163	106340	0	0	8206	722850	0	0
2024-04-28 22:39:32			0	34729	0	0	0	17470	16100	149163	27509	958130	38164	106341	0	0	8206	722572	0	0
2024-04-28 22:40:32			0	34706	0	0	0	17470	16100	149155	27481	958157	38153	106341	0	0	8205	723672	0	0
2024-04-28 22:41:32			0	34739	0	0	0	17464	16090	149207	27045	958193	38152	106339	0	0	8206	722133	0	0
2024-04-28 22:42:32			0	34726	0	0	0	17454	16090	149235	27216	958228	38142	106335	0	0	8206	722755	0	0
2024-04-28 22:43:32			0	34727	0	0	0	17454	16090	149075	27312	958167	38141	106335	0	0	8206	722707	0	0
2024-04-28 22:44:32			0	34718	0	0	0	17451	16090	149183	27441	958167	38152	106334	0	0	8205	723137	0	0
2024-04-28 22:45:32			0	34712	0	0	0	17451	16100	149219	27111	958183	38153	106334	0	0	8205	723385	0	0
2024-04-28 22:46:32			0	34678	0	0	0	17446	16090	149287	27225	958149	38164	106332	0	0	8203	725052	0	0
2024-04-28 22:47:32			0	34668	0	0	0	17449	16090	149435	27137	958149	38153	106333	0	0	8203	725532	0	0
2024-04-28 22:48:32			0	34660	0	0	0	17441	16080	149543	27020	958132	38152	106330	0	0	8202	725955	0	0
2024-04-28 22:49:32			0	34621	0	0	0	17431	16080	149535	27452	958080	38152	106326	0	0	8200	727828	0	0
2024-04-28 22:50:32			0	34639	0	0	0	17425	16080	149555	27441	958072	38151	106324	0	0	8201	726963	0	0
2024-04-28 22:51:32			0	34637	0	0	0	17418	16080	149571	27485	958072	38151	106321	0	0	8201	727059	0	0
2024-04-28 22:52:32			0	34637	0	0	0	17407	16080	149623	27144	958019	38140	106317	0	0	8202	727059	0	0
2024-04-28 22:53:32			0	34639	0	0	0	17412	16070	149491	27504	958090	38140	106319	0	0	8202	727002	0	0
2024-04-28 22:54:32			0	34653	0	0	0	17407	16070	149475	27376	958063	38140	106317	0	0	8202	726330	0	0
2024-04-28 22:55:32			0	34656	0	0	0	17412	16070	149439	27388	957976	38151	106319	0	0	8203	726186	0	0
2024-04-28 22:56:32			0	34679	0	0	0	17407	16070	149319	27268	958029	38172	106317	0	0	8204	725083	0	0
2024-04-28 22:57:32			0	34695	0	0	0	17412	16070	149319	27008	958029	38172	106319	0	0	8205	724316	0	0
2024-04-28 22:58:32			0	34691	0	0	0	17410	16060	149439	27175	957994	38139	106318	0	0	8204	724547	0	0
2024-04-28 22:59:32			0	34691	0	0	0	17407	16060	149379	27412	957960	38139	106317	0	0	8205	724547	0	0
2024-04-28 23:00:32			0	34700	0	0	0	17407	16060	149219	27343	958013	38150	106317	0	0	8205	724116	0	0
2024-04-28 23:01:32			0	34706	0	0	0	17405	16050	149283	27159	957978	38149	106316	0	0	8205	723868	0	0
2024-04-28 23:02:32			0	34697	0	0	0	17399	16040	149315	27178	957909	38148	106314	0	0	8205	724338	0	0
2024-04-28 23:03:32			0	34693	0	0	0	17384	16050	149355	27225	957978	38138	106308	0	0	8205	724490	0	0
2024-04-28 23:04:32			0	34684	0	0	0	17386	16040	149295	27763	957901	38148	106309	0	0	8204	724961	0	0
2024-04-28 23:05:32			0	34692	0	0	0	17384	16040	149327	27384	957927	38126	106308	0	0	8205	724577	0	0
2024-04-28 23:06:32			0	34677	0	0	0	17374	16040	149411	27324	957909	38126	106304	0	0	8204	725296	0	0
2024-04-28 23:07:32			0	34653	0	0	0	17366	16030	149475	27145	957885	38136	106301	0	0	8203	726487	0	0
2024-04-28 23:08:32			0	34646	0	0	0	17363	16040	149451	27159	957962	38159	106300	0	0	8203	726783	0	0
2024-04-28 23:09:32			0	34627	0	0	0	17350	16030	149575	27464	957866	38147	106295	0	0	8202	727735	0	0
2024-04-28 23:10:32			0	34653	0	0	0	17353	16030	149587	27495	957893	38136	106296	0	0	8203	726487	0	0
2024-04-28 23:11:32			0	34631	0	0	0	17348	16020	149607	27625	957876	38135	106294	0	0	8202	727582	0	0
2024-04-28 23:12:32			0	34638	0	0	0	17358	16020	149551	27192	957842	38135	106298	0	0	8202	727246	0	0
2024-04-28 23:13:32			0	34641	0	0	0	17350	16030	149571	27166	957885	38125	106295	0	0	8203	727063	0	0
2024-04-28 23:14:32			0	34643	0	0	0	17355	16030	149647	27119	957885	38147	106297	0	0	8203	726967	0	0
2024-04-28 23:15:32			0	34649	0	0	0	17368	16020	149547	27350	957895	38146	106302	0	0	8203	726718	0	0
2024-04-28 23:16:32			0	34655	0	0	0	17366	16020	149559	27467	957868	38146	106301	0	0	8203	726430	0	0
2024-04-28 23:17:32			0	34626	0	0	0	17366	16020	149531	27180	957824	38135	106301	0	0	8201	727823	0	0
2024-04-28 23:18:32			0	34646	0	0	0	17371	16000	149671	27429	957844	38156	106303	0	0	8202	726940	0	0
2024-04-28 23:19:32			0	34647	0	0	0	17361	16020	149567	27421	957824	38135	106299	0	0	8203	726814	0	0
2024-04-28 23:20:32			0	34637	0	0	0	17358	16010	149679	27274	957860	38146	106298	0	0	8202	727333	0	0
2024-04-28 23:21:32			0	34637	0	0	0	17345	16030	149719	27319	957832	38136	106293	0	0	8202	727255	0	0
2024-04-28 23:22:32			0	34631	0	0	0	17332	16020	149587	27296	957816	38135	106288	0	0	8202	727582	0	0
2024-04-28 23:23:32			0	34624	0	0	0	17329	16010	149579	27107	957799	38146	106287	0	0	8202	727958	0	0
2024-04-28 23:24:32			0	34618	0	0	0	17322	16010	149751	27294	957773	38157	106284	0	0	8202	728247	0	0
2024-04-28 23:25:32			0	34617	0	0	0	17327	15990	149659	26960	957827	38144	106286	0	0	8201	728373	0	0
2024-04-28 23:26:32			0	34639	0	0	0	17316	16000	149723	27206	957756	38144	106282	0	0	8203	727277	0	0
2024-04-28 23:27:32			0	34603	0	0	0	17319	15990	149635	27060	957722	38133	106283	0	0	8201	729047	0	0
2024-04-28 23:28:32			0	34619	0	0	0	17319	15990	149775	27348	957695	38133	106283	0	0	8202	728277	0	0
2024-04-28 23:29:32			0	34596	0	0	0	17327	15990	149875	27074	957714	38133	106286	0	0	8200	729384	0	0
2024-04-28 23:30:32			0	34617	0	0	0	17301	15990	149855	27279	957722	38133	106276	0	0	8202	728373	0	0
2024-04-28 23:31:32			0	34599	0	0	0	17306	15990	149755	27234	957661	38144	106278	0	0	8201	729240	0	0
2024-04-28 23:32:32			0	34600	0	0	0	17311	15980	149739	27289	957645	38142	106280	0	0	8201	729231	0	0
2024-04-28 23:33:32			0	34613	0	0	0	17322	15980	149727	27114	957671	38110	106284	0	0	8201	728605	0	0
2024-04-28 23:34:32			0	34601	0	0	0	17314	15980	149727	27104	957705	38132	106281	0	0	8201	729183	0	0
2024-04-28 23:35:32			0	34618	0	0	0	17324	15980	149751	27164	957679	38154	106285	0	0	8201	728365	0	0
2024-04-28 23:36:32			0	34637	0	0	0	17327	15970	149731	27012	957689	38142	106286	0	0	8202	727490	0	0
2024-04-28 23:37:32			0	34607	0	0	0	17329	15980	149667	27303	957645	38131	106287	0	0	8201	728894	0	0
2024-04-28 23:38:32			0	34628	0	0	0	17316	15980	149691	27282	957671	38131	106282	0	0	8202	727884	0	0
2024-04-28 23:39:32			0	34625	0	0	0	17306	15970	149731	27067	957681	38141	106278	0	0	8202	728067	0	0
2024-04-28 23:40:32			0	34615	0	0	0	17316	15970	149803	27048	957602	38130	106282	0	0	8201	728548	0	0
2024-04-28 23:41:32			0	34606	0	0	0	17303	15970	149823	27074	957636	38121	106277	0	0	8201	728981	0	0
2024-04-28 23:42:32			0	34606	0	0	0	17293	15960	149795	27213	957612	38129	106273	0	0	8201	729021	0	0
2024-04-28 23:43:32			0	34600	0	0	0	17296	15960	149807	27015	957638	38129	106274	0	0	8201	729310	0	0
2024-04-28 23:44:32			0	34602	0	0	0	17296	15960	149875	27109	957638	38129	106274	0	0	8201	729213	0	0
2024-04-28 23:45:32			0	34581	0	0	0	17298	15950	149903	27171	957569	38140	106275	0	0	8200	730264	0	0
2024-04-28 23:46:32			0	34558	0	0	0	17293	15950	149995	27376	957578	38129	106273	0	0	8198	731374	0	0
2024-04-28 23:47:32			0	34525	0	0	0	17303	15950	150027	27476	957578	38140	106277	0	0	8196	732967	0	0
2024-04-28 23:48:32			0	34537	0	0	0	17301	15960	150007	27372	957638	38129	106276	0	0	8197	732348	0	0
2024-04-28 23:49:32			0	34515	0	0	0	17311	15950	150235	27255	957675	38128	106280	0	0	8196	733451	0	0
2024-04-28 23:50:32			0	34508	0	0	0	17314	15950	150231	27535	957630	38129	106281	0	0	8195	733789	0	0
2024-04-28 23:51:32			0	34492	0	0	0	17311	15950	150267	27398	957630	38129	106280	0	0	8194	734564	0	0
2024-04-28 23:52:32			0	34481	0	0	0	17316	15940	150271	27646	957588	38128	106282	0	0	8194	735136	0	0
2024-04-28 23:53:32			0	34478	0	0	0	17311	15950	150255	27183	957596	38128	106280	0	0	8194	735242	0	0
2024-04-28 23:54:32			0	34459	0	0	0	17314	15950	150363	27313	957657	38129	106281	0	0	8192	736163	0	0
2024-04-28 23:55:32			0	34472	0	0	0	17316	15950	150431	27239	957604	38129	106282	0	0	8193	735532	0	0
2024-04-28 23:56:32			0	34450	0	0	0	17319	15950	150451	27267	957596	38128	106283	0	0	8192	736599	0	0
2024-04-28 23:57:32			0	34455	0	0	0	17314	15950	150463	27353	957578	38140	106281	0	0	8192	736357	0	0
2024-04-28 23:58:32			0	34454	0	0	0	17311	15950	150491	27564	957596	38128	106280	0	0	8192	736405	0	0
2024-04-28 23:59:32			0	34452	0	0	0	17309	15950	150427	27154	957604	38129	106279	0	0	8192	736502	0	0
2024-04-29 00:00:32			0	34457	0	0	0	17306	15940	150543	27105	957606	38128	106278	0	0	8192	736299	0	0
2024-04-29 00:01:32			0	34435	0	0	0	17298	15950	150523	27279	957490	38128	106275	0	0	8191	737327	0	0
2024-04-29 00:02:32			0	34419	0	0	0	17298	15950	150503	27462	957543	38128	106275	0	0	8190	738105	0	0
2024-04-29 00:03:32			0	34416	0	0	0	17306	15940	150623	27471	957509	38128	106278	0	0	8190	738290	0	0
2024-04-29 00:04:32			0	34413	0	0	0	17298	15940	150563	27511	957509	38128	106275	0	0	8190	738436	0	0
2024-04-29 00:05:32			0	34392	0	0	0	17293	15950	150731	27286	957569	38151	106273	0	0	8189	739418	0	0
2024-04-29 00:06:32			0	34395	0	0	0	17293	15940	150783	27166	957588	38128	106273	0	0	8189	739311	0	0
2024-04-29 00:07:32			0	34368	0	0	0	17288	15940	150767	27410	957579	38150	106271	0	0	8188	740626	0	0
2024-04-29 00:08:32			0	34367	0	0	0	17283	15940	150835	27445	957561	38151	106269	0	0	8188	740675	0	0
2024-04-29 00:09:32			0	34378	0	0	0	17293	15940	150819	27289	957579	38128	106273	0	0	8188	740139	0	0
2024-04-29 00:10:32			0	34362	0	0	0	17293	15940	150791	27036	957579	38128	106273	0	0	8187	740919	0	0
2024-04-29 00:11:32			0	34368	0	0	0	17293	15940	150799	27490	957535	38140	106273	0	0	8188	740626	0	0
2024-04-29 00:12:32			0	34385	0	0	0	17290	15940	150723	27472	957482	38128	106272	0	0	8189	739798	0	0
2024-04-29 00:13:32			0	34373	0	0	0	17285	15940	150783	27225	957553	38117	106270	0	0	8188	740383	0	0
2024-04-29 00:14:32			0	34370	0	0	0	17288	15930	150831	27562	957571	38138	106271	0	0	8188	740569	0	0
2024-04-29 00:15:32			0	34364	0	0	0	17272	15940	150807	27428	957606	38128	106265	0	0	8188	740821	0	0
2024-04-29 00:16:32			0	34355	0	0	0	17275	15940	150815	27358	957500	38128	106266	0	0	8187	741260	0	0
2024-04-29 00:17:32			0	34343	0	0	0	17277	15930	150918	27379	957510	38138	106267	0	0	8186	741885	0	0
2024-04-29 00:18:32			0	34362	0	0	0	17280	15930	150851	27249	957563	38127	106268	0	0	8187	740959	0	0
2024-04-29 00:19:32			0	34343	0	0	0	17267	15930	150910	27102	957484	38138	106263	0	0	8187	741885	0	0
2024-04-29 00:20:32			0	34342	0	0	0	17275	15930	150842	27265	957510	38127	106266	0	0	8186	741934	0	0
2024-04-29 00:21:32			0	34350	0	0	0	17275	15930	150918	27523	957484	38127	106266	0	0	8187	741544	0	0
2024-04-29 00:22:32			0	34357	0	0	0	17262	15930	150971	27218	957484	38127	106261	0	0	8187	741202	0	0
2024-04-29 00:23:32			0	34355	0	0	0	17264	15930	150847	27379	957466	38138	106262	0	0	8187	741300	0	0
2024-04-29 00:24:32			0	34377	0	0	0	17262	15930	150835	27216	957484	38117	106261	0	0	8189	740228	0	0
2024-04-29 00:25:32			0	34367	0	0	0	17267	15930	150847	27495	957510	38117	106263	0	0	8188	740715	0	0
2024-04-29 00:26:32			0	34363	0	0	0	17254	15910	150839	27448	957460	38136	106258	0	0	8188	740990	0	0
2024-04-29 00:27:32			0	34376	0	0	0	17254	15910	150767	27640	957451	38136	106258	0	0	8189	740356	0	0
2024-04-29 00:28:32			0	34386	0	0	0	17259	15910	150783	27286	957433	38125	106260	0	0	8189	739869	0	0
2024-04-29 00:29:32			0	34383	0	0	0	17241	15900	150915	27313	957382	38114	106253	0	0	8189	740055	0	0
2024-04-29 00:30:32			0	34383	0	0	0	17249	15900	150743	27234	957435	38125	106256	0	0	8189	740055	0	0
2024-04-29 00:31:32			0	34376	0	0	0	17246	15910	150819	27223	957372	38136	106255	0	0	8189	740356	0	0
2024-04-29 00:32:32			0	34382	0	0	0	17254	15900	150751	27511	957382	38125	106258	0	0	8189	740104	0	0
2024-04-29 00:33:32			0	34365	0	0	0	17251	15900	150843	27291	957391	38115	106257	0	0	8188	740932	0	0
2024-04-29 00:34:32			0	34357	0	0	0	17264	15900	150871	27317	957391	38125	106262	0	0	8187	741322	0	0
2024-04-29 00:35:32			0	34344	0	0	0	17257	15900	150938	27369	957382	38114	106259	0	0	8187	741956	0	0
2024-04-29 00:36:32			0	34314	0	0	0	17257	15900	151062	27079	957382	38125	106259	0	0	8185	743421	0	0
2024-04-29 00:37:32			0	34318	0	0	0	17254	15900	151094	27511	957382	38125	106258	0	0	8185	743226	0	0
2024-04-29 00:38:32			0	34291	0	0	0	17264	15900	151170	27209	957461	38125	106262	0	0	8183	744546	0	0
2024-04-29 00:39:32			0	34273	0	0	0	17254	15890	151350	27345	957374	38146	106258	0	0	8183	745467	0	0
2024-04-29 00:40:32			0	34250	0	0	0	17257	15890	151358	27178	957393	38124	106259	0	0	8181	746595	0	0
2024-04-29 00:41:32			0	34226	0	0	0	17259	15880	151418	27156	957376	38124	106260	0	0	8180	747812	0	0
2024-04-29 00:42:32			0	34219	0	0	0	17262	15890	151586	27161	957427	38124	106261	0	0	8179	748116	0	0
2024-04-29 00:43:32			0	34189	0	0	0	17257	15900	151550	27391	957417	38136	106259	0	0	8178	749550	0	0
2024-04-29 00:44:32			0	34182	0	0	0	17270	15890	151614	27067	957374	38124	106264	0	0	8177	749935	0	0
2024-04-29 00:45:32			0	34161	0	0	0	17270	15890	151838	27154	957393	38135	106264	0	0	8176	750969	0	0
2024-04-29 00:46:32			0	34140	0	0	0	17270	15890	151906	27644	957427	38124	106264	0	0	8175	752004	0	0
2024-04-29 00:47:32			0	34144	0	0	0	17264	15890	151914	27208	957393	38135	106262	0	0	8175	751806	0	0
2024-04-29 00:48:32			0	34128	0	0	0	17259	15890	151882	27159	957401	38124	106260	0	0	8174	752596	0	0
2024-04-29 00:49:32			0	34123	0	0	0	17264	15890	151918	27230	957366	38124	106262	0	0	8174	752842	0	0
2024-04-29 00:50:32			0	34096	0	0	0	17264	15890	151998	27209	957393	38124	106262	0	0	8172	754176	0	0
2024-04-29 00:51:32			0	34099	0	0	0	17264	15890	152098	27284	957401	38124	106262	0	0	8172	754028	0	0
2024-04-29 00:52:32			0	34075	0	0	0	17267	15900	152178	27170	957417	38125	106263	0	0	8171	755174	0	0
2024-04-29 00:53:32			0	34076	0	0	0	17264	15890	152142	27478	957393	38124	106262	0	0	8171	755165	0	0
2024-04-29 00:54:32			0	34061	0	0	0	17257	15900	152306	27267	957409	38125	106259	0	0	8170	755867	0	0
2024-04-29 00:55:32			0	34064	0	0	0	17259	15900	152194	27291	957417	38125	106260	0	0	8170	755718	0	0
2024-04-29 00:56:32			0	34036	0	0	0	17262	15890	152270	27339	957366	38124	106261	0	0	8169	757146	0	0
2024-04-29 00:57:32			0	34033	0	0	0	17264	15890	152334	27100	957393	38135	106262	0	0	8169	757295	0	0
2024-04-29 00:58:32			0	34023	0	0	0	17251	15890	152362	27338	957401	38124	106257	0	0	8168	757791	0	0
2024-04-29 00:59:32			0	34008	0	0	0	17262	15900	152454	27454	957409	38135	106261	0	0	8167	758494	0	0
2024-04-29 01:00:32			0	33986	0	0	0	17254	15890	152410	27272	957374	38124	106258	0	0	8166	759628	0	0
2024-04-29 01:01:32			0	33985	0	0	0	17257	15880	152566	27270	957358	38124	106259	0	0	8166	759719	0	0
2024-04-29 01:02:32			0	33990	0	0	0	17254	15880	152510	27180	957384	38135	106258	0	0	8166	759470	0	0
2024-04-29 01:03:32			0	33982	0	0	0	17249	15880	152646	27282	957376	38134	106256	0	0	8166	759868	0	0
2024-04-29 01:04:32			0	33991	0	0	0	17228	15890	152586	27384	957340	38135	106248	0	0	8167	759380	0	0
2024-04-29 01:05:32			0	33983	0	0	0	17212	15890	152522	27379	957393	38135	106242	0	0	8166	759777	0	0
2024-04-29 01:06:32			0	33980	0	0	0	17207	15870	152554	27209	957368	38123	106240	0	0	8166	760008	0	0
2024-04-29 01:07:32			0	33968	0	0	0	17212	15860	152554	27237	957254	38132	106242	0	0	8165	760646	0	0
2024-04-29 01:08:32			0	33981	0	0	0	17194	15860	152598	27303	957228	38122	106235	0	0	8167	760000	0	0
2024-04-29 01:09:32			0	34009	0	0	0	17187	15860	152478	27118	957281	38089	106232	0	0	8168	758608	0	0
2024-04-29 01:10:32			0	34007	0	0	0	17194	15860	152390	27227	957228	38122	106235	0	0	8168	758708	0	0
2024-04-29 01:11:32			0	34029	0	0	0	17181	15860	152390	27286	957228	38132	106230	0	0	8170	757616	0	0
2024-04-29 01:12:32			0	34031	0	0	0	17179	15860	152330	27462	957167	38122	106229	0	0	8170	757516	0	0
2024-04-29 01:13:32			0	34048	0	0	0	17171	15840	152246	27500	957143	38120	106226	0	0	8171	756755	0	0
2024-04-29 01:14:32			0	34082	0	0	0	17166	15840	152170	27569	957116	38120	106224	0	0	8173	755071	0	0
2024-04-29 01:15:32			0	34081	0	0	0	17150	15840	152090	27216	957090	38120	106218	0	0	8173	755121	0	0
2024-04-29 01:16:32			0	34120	0	0	0	17142	15830	152046	27587	957021	38098	106215	0	0	8175	753234	0	0
2024-04-29 01:17:32			0	34128	0	0	0	17122	15820	151918	27301	956996	38119	106207	0	0	8176	752880	0	0
2024-04-29 01:18:32			0	34132	0	0	0	17129	15810	151798	27838	957015	38119	106210	0	0	8176	752723	0	0
2024-04-29 01:19:32			0	34158	0	0	0	17119	15810	151818	27819	956988	38119	106206	0	0	8178	751440	0	0
2024-04-29 01:20:32			0	34193	0	0	0	17109	15800	151670	27334	956972	38117	106202	0	0	8180	749757	0	0
2024-04-29 01:21:32			0	34204	0	0	0	17111	15800	151546	27253	956946	38106	106203	0	0	8181	749216	0	0
2024-04-29 01:22:32			0	34247	0	0	0	17103	15800	151470	27263	956938	38094	106200	0	0	8183	747104	0	0
2024-04-29 01:23:32			0	34268	0	0	0	17098	15790	151374	27301	956824	38105	106198	0	0	8184	746114	0	0
2024-04-29 01:24:32			0	34303	0	0	0	17096	15780	151154	27131	956826	38114	106197	0	0	8186	744440	0	0
2024-04-29 01:25:32			0	34325	0	0	0	17083	15790	151070	27386	956842	38116	106192	0	0	8188	743325	0	0
2024-04-29 01:26:32			0	34384	0	0	0	17070	15780	150943	27291	956887	38115	106187	0	0	8192	740485	0	0
2024-04-29 01:27:32			0	34386	0	0	0	17059	15770	150747	27554	956757	38103	106183	0	0	8192	740428	0	0
2024-04-29 01:28:32			0	34431	0	0	0	17062	15760	150615	27260	956749	38113	106184	0	0	8194	738277	0	0
2024-04-29 01:29:32			0	34476	0	0	0	17046	15750	150535	27582	956759	38090	106178	0	0	8197	736132	0	0
2024-04-29 01:30:32			0	34483	0	0	0	17041	15760	150351	27142	956741	38102	106176	0	0	8198	735752	0	0
2024-04-29 01:31:32			0	34511	0	0	0	17033	15740	150199	27504	956663	38090	106173	0	0	8199	734475	0	0
2024-04-29 01:32:32			0	34533	0	0	0	17031	15740	150239	27433	956690	38101	106172	0	0	8200	733410	0	0
2024-04-29 01:33:32			0	34556	0	0	0	17018	15730	150071	27270	956613	38099	106167	0	0	8202	732338	0	0
2024-04-29 01:34:32			0	34552	0	0	0	17018	15740	150059	27341	956576	38111	106167	0	0	8202	732492	0	0
2024-04-29 01:35:32			0	34562	0	0	0	17007	15730	150007	27341	956613	38099	106163	0	0	8202	732048	0	0
2024-04-29 01:36:32			0	34575	0	0	0	17010	15720	150075	27376	956570	38098	106164	0	0	8203	731460	0	0
2024-04-29 01:37:32			0	34577	0	0	0	17005	15720	150159	27372	956604	38099	106162	0	0	8203	731363	0	0
2024-04-29 01:38:32			0	34561	0	0	0	16989	15700	150023	27190	956519	38086	106156	0	0	8203	732214	0	0
2024-04-29 01:39:32			0	34555	0	0	0	16986	15700	150055	27142	956511	38096	106155	0	0	8202	732504	0	0
2024-04-29 01:40:32			0	34558	0	0	0	16971	15690	150063	27324	956416	38085	106149	0	0	8203	732399	0	0
2024-04-29 01:41:32			0	34568	0	0	0	16968	15690	150127	27530	956442	38096	106148	0	0	8203	731916	0	0
2024-04-29 01:42:32			0	34546	0	0	0	16971	15680	150075	27121	956426	38095	106149	0	0	8202	733018	0	0
2024-04-29 01:43:32			0	34546	0	0	0	16958	15680	150195	27329	956426	38106	106144	0	0	8202	733018	0	0
2024-04-29 01:44:32			0	34522	0	0	0	16953	15660	150227	27211	956375	38083	106142	0	0	8201	734259	0	0
2024-04-29 01:45:32			0	34520	0	0	0	16940	15660	150427	27267	956322	38083	106137	0	0	8201	734356	0	0
2024-04-29 01:46:32			0	34517	0	0	0	16940	15640	150419	27126	956290	38091	106137	0	0	8201	734580	0	0
2024-04-29 01:47:32			0	34501	0	0	0	16942	15640	150515	27443	956342	38081	106138	0	0	8200	735355	0	0
2024-04-29 01:48:32			0	34479	0	0	0	16945	15630	150427	27497	956247	38091	106139	0	0	8198	736462	0	0
2024-04-29 01:49:32			0	34430	0	0	0	16929	15640	150611	27185	956282	38102	106133	0	0	8196	738803	0	0
2024-04-29 01:50:32			0	34424	0	0	0	16922	15620	150763	27590	956257	38090	106130	0	0	8196	739175	0	0
2024-04-29 01:51:32			0	34414	0	0	0	16911	15620	150779	27357	956257	38080	106126	0	0	8195	739662	0	0
2024-04-29 01:52:32			0	34384	0	0	0	16922	15620	150983	27260	956230	38101	106130	0	0	8193	741124	0	0
2024-04-29 01:53:32			0	34359	0	0	0	16914	15620	151039	27582	956178	38090	106127	0	0	8192	742344	0	0
2024-04-29 01:54:32			0	34328	0	0	0	16911	15610	151118	27479	956180	38078	106126	0	0	8190	743899	0	0
2024-04-29 01:55:32			0	34309	0	0	0	16906	15600	151134	27275	956145	38088	106124	0	0	8189	744869	0	0
2024-04-29 01:56:32			0	34283	0	0	0	16909	15600	151318	27364	956137	38066	106125	0	0	8188	746143	0	0
2024-04-29 01:57:32			0	34267	0	0	0	16903	15600	151494	27244	956137	38087	106123	0	0	8187	746927	0	0
2024-04-29 01:58:32			0	34214	0	0	0	16901	15600	151726	27156	956111	38077	106122	0	0	8184	749531	0	0
2024-04-29 01:59:32			0	34189	0	0	0	16893	15590	151802	27533	956102	38087	106119	0	0	8182	750803	0	0
2024-04-29 02:00:32			0	34161	0	0	0	16901	15590	151954	27192	956102	38066	106122	0	0	8181	752183	0	0
2024-04-29 02:01:32			0	34109	0	0	0	16898	15570	152174	27157	956096	38075	106121	0	0	8178	754834	0	0
2024-04-29 02:02:32			0	34076	0	0	0	16898	15570	152262	27533	956070	38075	106121	0	0	8176	756468	0	0
2024-04-29 02:03:32			0	34046	0	0	0	16898	15570	152442	27535	956052	38086	106121	0	0	8174	757956	0	0
2024-04-29 02:04:32			0	34019	0	0	0	16885	15560	152574	27402	956053	38084	106116	0	0	8173	759338	0	0
2024-04-29 02:05:32			0	33992	0	0	0	16877	15550	152670	27078	956045	38074	106113	0	0	8171	760722	0	0
2024-04-29 02:06:32			0	33944	0	0	0	16870	15560	152786	27559	956062	38063	106110	0	0	8168	763073	0	0
2024-04-29 02:07:32			0	33944	0	0	0	16875	15550	152934	27498	956045	38063	106112	0	0	8168	763114	0	0
2024-04-29 02:08:32			0	33927	0	0	0	16872	15540	152934	27045	955976	38073	106111	0	0	8167	764004	0	0
2024-04-29 02:09:32			0	33907	0	0	0	16875	15530	153002	27416	955934	38061	106112	0	0	8166	765045	0	0
2024-04-29 02:10:32			0	33881	0	0	0	16870	15540	153142	27093	955942	38083	106110	0	0	8165	766305	0	0
2024-04-29 02:11:32			0	33885	0	0	0	16870	15530	153186	27263	955907	38072	106110	0	0	8165	766146	0	0
2024-04-29 02:12:32			0	33878	0	0	0	16859	15530	153214	27588	955926	38071	106106	0	0	8165	766496	0	0
2024-04-29 02:13:32			0	33842	0	0	0	16867	15530	153262	27189	955926	38071	106109	0	0	8162	768301	0	0
2024-04-29 02:14:32			0	33854	0	0	0	16862	15520	153398	27216	955865	38071	106107	0	0	8163	767740	0	0
2024-04-29 02:15:32			0	33854	0	0	0	16859	15520	153446	27048	955857	38059	106106	0	0	8163	767740	0	0
2024-04-29 02:16:32			0	33853	0	0	0	16851	15530	153422	27313	955873	38071	106103	0	0	8163	767749	0	0
2024-04-29 02:17:32			0	33844	0	0	0	16849	15520	153482	27412	955909	38059	106102	0	0	8163	768242	0	0
2024-04-29 02:18:32			0	33852	0	0	0	16838	15520	153398	27850	955883	38070	106098	0	0	8163	767840	0	0
2024-04-29 02:19:32			0	33838	0	0	0	16849	15520	153442	27511	955909	38070	106102	0	0	8162	768543	0	0
2024-04-29 02:20:32			0	33837	0	0	0	16849	15510	153346	27332	955849	38059	106102	0	0	8162	768634	0	0
2024-04-29 02:21:32			0	33835	0	0	0	16841	15490	153370	27602	955789	38069	106099	0	0	8162	768818	0	0
2024-04-29 02:22:32			0	33833	0	0	0	16838	15510	153434	27391	955875	38070	106098	0	0	8162	768835	0	0
2024-04-29 02:23:32			0	33842	0	0	0	16833	15500	153442	27190	955885	38058	106096	0	0	8163	768425	0	0
2024-04-29 02:24:32			0	33815	0	0	0	16825	15500	153470	27039	955824	38069	106093	0	0	8161	769781	0	0
2024-04-29 02:25:32			0	33869	0	0	0	16828	15500	153462	27301	955798	38069	106094	0	0	8164	767071	0	0
2024-04-29 02:26:32			0	33832	0	0	0	16820	15490	153406	27260	955729	38079	106091	0	0	8162	768968	0	0
2024-04-29 02:27:32			0	33825	0	0	0	16810	15500	153474	27239	955771	38080	106087	0	0	8162	769278	0	0
2024-04-29 02:28:32			0	33826	0	0	0	16818	15480	153486	27483	955747	38067	106090	0	0	8162	769311	0	0
2024-04-29 02:29:32			0	33826	0	0	0	16805	15490	153470	27405	955755	38068	106085	0	0	8162	769270	0	0
2024-04-29 02:30:32			0	33827	0	0	0	16812	15490	153434	27156	955702	38068	106088	0	0	8162	769219	0	0
2024-04-29 02:31:32			0	33818	0	0	0	16807	15480	153594	27218	955712	38067	106086	0	0	8162	769713	0	0
2024-04-29 02:32:32			0	33830	0	0	0	16797	15470	153450	27213	955643	38077	106082	0	0	8163	769151	0	0
2024-04-29 02:33:32			0	33800	0	0	0	16807	15470	153570	27481	955678	38077	106086	0	0	8161	770659	0	0
2024-04-29 02:34:32			0	33804	0	0	0	16799	15470	153606	27135	955704	38077	106083	0	0	8161	770458	0	0
2024-04-29 02:35:32			0	33799	0	0	0	16789	15470	153566	27156	955643	38044	106079	0	0	8161	770710	0	0
2024-04-29 02:36:32			0	33784	0	0	0	16792	15460	153622	27362	955609	38065	106080	0	0	8160	771506	0	0
2024-04-29 02:37:32			0	33780	0	0	0	16784	15480	153702	27403	955712	38067	106077	0	0	8160	771624	0	0
2024-04-29 02:38:32			0	33802	0	0	0	16787	15460	153650	27564	955662	38054	106078	0	0	8161	770600	0	0
2024-04-29 02:39:32			0	33779	0	0	0	16787	15460	153682	27277	955680	38065	106078	0	0	8160	771758	0	0
2024-04-29 02:40:32			0	33763	0	0	0	16792	15460	153766	27666	955627	38076	106080	0	0	8159	772564	0	0
2024-04-29 02:41:32			0	33758	0	0	0	16794	15460	153850	27346	955548	38043	106081	0	0	8158	772816	0	0
2024-04-29 02:42:32			0	33754	0	0	0	16789	15450	153890	27421	955645	38053	106079	0	0	8158	773059	0	0
2024-04-29 02:43:32			0	33737	0	0	0	16789	15450	153870	27263	955532	38042	106079	0	0	8157	773917	0	0
2024-04-29 02:44:32			0	33715	0	0	0	16781	15450	153958	27537	955584	38064	106076	0	0	8156	775028	0	0
2024-04-29 02:45:32			0	33719	0	0	0	16768	15450	154046	27163	955611	38076	106071	0	0	8156	774826	0	0
2024-04-29 02:46:32			0	33701	0	0	0	16768	15450	154078	27192	955611	38064	106071	0	0	8155	775736	0	0
2024-04-29 02:47:32			0	33679	0	0	0	16763	15430	154166	27229	955586	38063	106069	0	0	8154	776932	0	0
2024-04-29 02:48:32			0	33671	0	0	0	16753	15440	154262	27287	955489	38064	106065	0	0	8154	777296	0	0
2024-04-29 02:49:32			0	33673	0	0	0	16729	15440	154274	27326	955516	38064	106056	0	0	8154	777194	0	0
2024-04-29 02:50:32			0	33651	0	0	0	16729	15440	154458	27277	955463	38041	106056	0	0	8153	778309	0	0
2024-04-29 02:51:32			0	33642	0	0	0	16724	15430	154422	27416	955447	38052	106054	0	0	8153	778808	0	0
2024-04-29 02:52:32			0	33623	0	0	0	16724	15420	154522	27566	955438	38051	106054	0	0	8151	779814	0	0
2024-04-29 02:53:32			0	33601	0	0	0	16724	15410	154478	27614	955361	38061	106054	0	0	8150	780974	0	0
2024-04-29 02:54:32			0	33601	0	0	0	16724	15400	154550	27398	955371	38038	106054	0	0	8150	781016	0	0
2024-04-29 02:55:32			0	33595	0	0	0	16732	15410	154630	27433	955343	38040	106057	0	0	8150	781279	0	0
2024-04-29 02:56:32			0	33575	0	0	0	16737	15400	154666	27511	955353	38039	106059	0	0	8148	782339	0	0
2024-04-29 02:57:32			0	33579	0	0	0	16735	15410	154634	27381	955440	38061	106058	0	0	8149	782093	0	0
2024-04-29 02:58:32			0	33598	0	0	0	16732	15400	154558	27398	955398	38048	106057	0	0	8150	781168	0	0
2024-04-29 02:59:32			0	33582	0	0	0	16719	15400	154698	27419	955459	38039	106052	0	0	8149	781982	0	0
2024-04-29 03:00:32			0	33568	0	0	0	16727	15400	154745	27814	955371	38059	106055	0	0	8148	782695	0	0
2024-04-29 03:01:32			0	33582	0	0	0	16722	15400	154702	27573	955353	38049	106053	0	0	8149	781982	0	0
2024-04-29 03:02:32			0	33558	0	0	0	16729	15400	154641	27242	955353	38082	106056	0	0	8147	783205	0	0
2024-04-29 03:03:32			0	33567	0	0	0	16716	15400	154693	27395	955319	38059	106051	0	0	8148	782746	0	0
2024-04-29 03:04:32			0	33576	0	0	0	16709	15400	154654	27670	955319	38059	106048	0	0	8149	782288	0	0
2024-04-29 03:05:32			0	33570	0	0	0	16709	15390	154785	27414	955303	38059	106048	0	0	8148	782636	0	0
2024-04-29 03:06:32			0	33604	0	0	0	16706	15380	154762	27410	955286	38036	106047	0	0	8150	780947	0	0
2024-04-29 03:07:32			0	33579	0	0	0	16703	15370	154710	27345	955270	38046	106046	0	0	8149	782261	0	0
2024-04-29 03:08:32			0	33584	0	0	0	16696	15380	154654	27715	955260	38047	106043	0	0	8149	781965	0	0
2024-04-29 03:09:32			0	33582	0	0	0	16696	15380	154742	27386	955286	38047	106043	0	0	8149	782067	0	0
2024-04-29 03:10:32			0	33597	0	0	0	16696	15360	154750	27428	955253	38056	106043	0	0	8150	781387	0	0
2024-04-29 03:11:32			0	33588	0	0	0	16698	15370	154750	27654	955243	38036	106044	0	0	8150	781803	0	0
2024-04-29 03:12:32			0	33594	0	0	0	16698	15350	154678	27403	955245	38066	106044	0	0	8150	781582	0	0
2024-04-29 03:13:32			0	33601	0	0	0	16696	15370	154698	27498	955270	38057	106043	0	0	8150	781142	0	0
2024-04-29 03:14:32			0	33590	0	0	0	16698	15360	154718	27616	955209	38057	106044	0	0	8150	781743	0	0
2024-04-29 03:15:32			0	33607	0	0	0	16693	15370	154666	27393	955243	38046	106042	0	0	8151	780837	0	0
2024-04-29 03:16:32			0	33593	0	0	0	16696	15360	154682	27312	955235	38046	106043	0	0	8150	781591	0	0
2024-04-29 03:17:32			0	33613	0	0	0	16688	15360	154726	27457	955227	38056	106040	0	0	8151	780574	0	0
2024-04-29 03:18:32			0	33614	0	0	0	16693	15360	154602	27564	955235	38046	106042	0	0	8151	780523	0	0
2024-04-29 03:19:32			0	33625	0	0	0	16698	15350	154562	27486	955140	38066	106044	0	0	8152	780006	0	0
2024-04-29 03:20:32			0	33618	0	0	0	16690	15340	154502	27630	955203	38044	106041	0	0	8151	780403	0	0
2024-04-29 03:21:32			0	33635	0	0	0	16690	15350	154586	27583	955140	38023	106041	0	0	8152	779498	0	0
2024-04-29 03:22:32			0	33639	0	0	0	16685	15340	154562	27576	955168	38043	106039	0	0	8153	779337	0	0
2024-04-29 03:23:32			0	33623	0	0	0	16688	15350	154478	27474	955219	38055	106040	0	0	8152	780107	0	0
2024-04-29 03:24:32			0	33649	0	0	0	16685	15350	154358	27627	955185	38044	106039	0	0	8153	778788	0	0
2024-04-29 03:25:32			0	33654	0	0	0	16680	15350	154422	27486	955132	38055	106037	0	0	8154	778534	0	0
2024-04-29 03:26:32			0	33656	0	0	0	16685	15340	154446	27795	955168	38033	106039	0	0	8154	778474	0	0
2024-04-29 03:27:32			0	33647	0	0	0	16685	15340	154314	27284	955150	38044	106039	0	0	8153	778931	0	0
2024-04-29 03:28:32			0	33665	0	0	0	16690	15330	154370	27400	955160	38054	106041	0	0	8154	778060	0	0
2024-04-29 03:29:32			0	33657	0	0	0	16683	15330	154414	27724	955213	38065	106038	0	0	8154	778465	0	0
2024-04-29 03:30:32			0	33672	0	0	0	16688	15330	154350	27706	955126	38042	106040	0	0	8154	777705	0	0
2024-04-29 03:31:32			0	33663	0	0	0	16685	15340	154378	27301	955176	38055	106039	0	0	8154	778119	0	0
2024-04-29 03:32:32			0	33682	0	0	0	16701	15340	154474	27734	955221	38043	106045	0	0	8155	777157	0	0
2024-04-29 03:33:32			0	33676	0	0	0	16698	15340	154410	27419	955116	38043	106044	0	0	8155	777460	0	0
2024-04-29 03:34:32			0	33684	0	0	0	16693	15330	154398	27488	955134	38054	106042	0	0	8155	777097	0	0
2024-04-29 03:35:32			0	33662	0	0	0	16696	15340	154358	27431	955176	38044	106043	0	0	8154	778170	0	0
2024-04-29 03:36:32			0	33663	0	0	0	16693	15350	154318	27308	955158	38055	106042	0	0	8154	778078	0	0
2024-04-29 03:37:32			0	33655	0	0	0	16696	15340	154390	27732	955229	38044	106043	0	0	8153	778525	0	0
2024-04-29 03:38:32			0	33669	0	0	0	16690	15340	154298	27235	955195	38054	106041	0	0	8154	777815	0	0
2024-04-29 03:39:32			0	33641	0	0	0	16706	15340	154342	27478	955229	38066	106047	0	0	8152	779235	0	0
2024-04-29 03:40:32			0	33665	0	0	0	16696	15340	154326	27403	955221	38054	106043	0	0	8154	778018	0	0
2024-04-29 03:41:32			0	33662	0	0	0	16690	15340	154230	27448	955195	38054	106041	0	0	8154	778170	0	0
2024-04-29 03:42:32			0	33680	0	0	0	16701	15340	154262	27396	955176	38044	106045	0	0	8155	777258	0	0
2024-04-29 03:43:32			0	33684	0	0	0	16698	15340	154338	27460	955221	38054	106044	0	0	8155	777055	0	0
2024-04-29 03:44:32			0	33697	0	0	0	16693	15350	154290	27194	955237	38044	106042	0	0	8156	776355	0	0
2024-04-29 03:45:32			0	33682	0	0	0	16696	15330	154290	27505	955213	38054	106043	0	0	8155	777198	0	0
2024-04-29 03:46:32			0	33676	0	0	0	16693	15350	154278	27242	955132	38034	106042	0	0	8155	777419	0	0
2024-04-29 03:47:32			0	33674	0	0	0	16690	15350	154270	27647	955237	38044	106041	0	0	8155	777520	0	0
2024-04-29 03:48:32			0	33667	0	0	0	16709	15340	154402	27346	955255	38066	106048	0	0	8154	777916	0	0
2024-04-29 03:49:32			0	33667	0	0	0	16701	15340	154414	27378	955176	38055	106045	0	0	8154	777916	0	0
2024-04-29 03:50:32			0	33650	0	0	0	16703	15340	154566	27857	955203	38034	106046	0	0	8153	778779	0	0
2024-04-29 03:51:32			0	33646	0	0	0	16696	15340	154542	27398	955203	38044	106043	0	0	8153	778982	0	0
2024-04-29 03:52:32			0	33636	0	0	0	16703	15340	154550	27713	955221	38054	106046	0	0	8152	779489	0	0
2024-04-29 03:53:32			0	33610	0	0	0	16706	15340	154566	27486	955116	38043	106047	0	0	8151	780810	0	0
2024-04-29 03:54:32			0	33614	0	0	0	16706	15350	154638	27507	955211	38044	106047	0	0	8151	780565	0	0
2024-04-29 03:55:32			0	33615	0	0	0	16696	15350	154554	27161	955211	38055	106043	0	0	8151	780514	0	0
2024-04-29 03:56:32			0	33603	0	0	0	16709	15350	154598	27576	955185	38044	106048	0	0	8150	781124	0	0
2024-04-29 03:57:32			0	33611	0	0	0	16698	15340	154586	27315	955229	38034	106044	0	0	8151	780759	0	0
2024-04-29 03:58:32			0	33597	0	0	0	16685	15350	154702	27566	955237	38055	106039	0	0	8150	781429	0	0
2024-04-29 03:59:32			0	33600	0	0	0	16701	15350	154634	27625	955237	38055	106045	0	0	8150	781277	0	0
2024-04-29 04:00:32			0	33575	0	0	0	16698	15350	154706	27620	955211	38044	106044	0	0	8149	782549	0	0
2024-04-29 04:01:32			0	33573	0	0	0	16701	15350	154790	27691	955245	38066	106045	0	0	8148	782651	0	0
2024-04-29 04:02:32			0	33576	0	0	0	16706	15350	154794	27412	955245	38044	106047	0	0	8149	782498	0	0
2024-04-29 04:03:32			0	33575	0	0	0	16740	15360	154790	27199	955306	38056	106060	0	0	8148	782507	0	0
2024-04-29 04:04:32			0	33584	0	0	0	16761	15350	154790	27204	955298	38055	106068	0	0	8148	782091	0	0
2024-04-29 04:05:32			0	33595	0	0	0	16763	15360	154786	27185	955306	38056	106069	0	0	8149	781489	0	0
2024-04-29 04:06:32			0	33621	0	0	0	16771	15370	154646	27303	955322	38057	106072	0	0	8150	780125	0	0
2024-04-29 04:07:32			0	33638	0	0	0	16779	15380	154582	27535	955391	38058	106075	0	0	8151	779220	0	0
2024-04-29 04:08:32			0	33669	0	0	0	16771	15370	154314	27383	955375	38057	106072	0	0	8153	777690	0	0
2024-04-29 04:09:32			0	33695	0	0	0	16779	15390	154202	27383	955408	38071	106075	0	0	8155	776290	0	0
2024-04-29 04:10:32			0	33699	0	0	0	16784	15380	154182	27379	955347	38059	106077	0	0	8155	776129	0	0
2024-04-29 04:11:32			0	33742	0	0	0	16776	15390	154038	27550	955416	38059	106074	0	0	8157	773914	0	0
2024-04-29 04:12:32			0	33748	0	0	0	16784	15390	153922	27241	955434	38048	106077	0	0	8158	773611	0	0
2024-04-29 04:13:32			0	33795	0	0	0	16774	15400	153806	27305	955503	38082	106073	0	0	8161	771201	0	0
2024-04-29 04:14:32			0	33805	0	0	0	16776	15400	153662	27267	955450	38059	106074	0	0	8161	770698	0	0
2024-04-29 04:15:32			0	33810	0	0	0	16776	15390	153562	27308	955390	38059	106074	0	0	8161	770488	0	0
2024-04-29 04:16:32			0	33805	0	0	0	16781	15390	153650	27190	955416	38059	106076	0	0	8161	770739	0	0
2024-04-29 04:17:32			0	33784	0	0	0	16787	15400	153742	27107	955503	38059	106078	0	0	8160	771755	0	0
2024-04-29 04:18:32			0	33756	0	0	0	16779	15400	153818	27407	955450	38038	106075	0	0	8158	773166	0	0
2024-04-29 04:19:32			0	33761	0	0	0	16779	15400	153934	27256	955459	38060	106075	0	0	8159	772914	0	0
2024-04-29 04:20:32			0	33728	0	0	0	16774	15400	153974	27298	955424	38048	106073	0	0	8157	774580	0	0
2024-04-29 04:21:32			0	33720	0	0	0	16784	15400	154050	27272	955450	38048	106077	0	0	8156	774984	0	0
2024-04-29 04:22:32			0	33689	0	0	0	16779	15400	154154	27287	955450	38059	106075	0	0	8154	776552	0	0
2024-04-29 04:23:32			0	33677	0	0	0	16787	15400	154250	27057	955538	38060	106078	0	0	8153	777159	0	0
2024-04-29 04:24:32			0	33652	0	0	0	16779	15400	154270	27507	955450	38071	106075	0	0	8152	778426	0	0
2024-04-29 04:25:32			0	33632	0	0	0	16779	15390	154446	27274	955495	38071	106075	0	0	8151	779483	0	0
2024-04-29 04:26:32			0	33609	0	0	0	16774	15410	154530	27199	955467	38040	106073	0	0	8150	780567	0	0
2024-04-29 04:27:32			0	33604	0	0	0	16776	15410	154610	27459	955467	38061	106074	0	0	8149	780821	0	0
2024-04-29 04:28:32			0	33607	0	0	0	16779	15400	154634	27230	955503	38071	106075	0	0	8149	780711	0	0
2024-04-29 04:29:32			0	33583	0	0	0	16776	15410	154786	27455	955440	38072	106074	0	0	8148	781889	0	0
2024-04-29 04:30:32			0	33564	0	0	0	16766	15400	154822	27279	955432	38060	106070	0	0	8147	782899	0	0
2024-04-29 04:31:32			0	33554	0	0	0	16774	15400	154929	27157	955371	38059	106073	0	0	8146	783409	0	0
2024-04-29 04:32:32			0	33533	0	0	0	16763	15400	154913	27336	955380	38060	106069	0	0	8145	784480	0	0
2024-04-29 04:33:32			0	33543	0	0	0	16763	15390	154965	27343	955390	38071	106069	0	0	8146	784012	0	0
2024-04-29 04:34:32			0	33520	0	0	0	16766	15400	154909	27298	955398	38071	106070	0	0	8144	785143	0	0
2024-04-29 04:35:32			0	33503	0	0	0	16766	15400	155053	27390	955459	38071	106070	0	0	8143	786012	0	0
2024-04-29 04:36:32			0	33506	0	0	0	16763	15390	155105	27346	955337	38059	106069	0	0	8144	785901	0	0
2024-04-29 04:37:32			0	33484	0	0	0	16763	15390	155109	27232	955416	38048	106069	0	0	8142	787026	0	0
2024-04-29 04:38:32			0	33476	0	0	0	16758	15400	155069	27218	955371	38071	106067	0	0	8142	787393	0	0
2024-04-29 04:39:32			0	33478	0	0	0	16761	15390	155001	27111	955442	38059	106068	0	0	8142	787333	0	0
2024-04-29 04:40:32			0	33493	0	0	0	16753	15390	155073	27352	955416	38048	106065	0	0	8143	786565	0	0
2024-04-29 04:41:32			0	33482	0	0	0	16758	15400	155181	27353	955398	38071	106067	0	0	8142	787086	0	0
2024-04-29 04:42:32			0	33467	0	0	0	16753	15390	155165	27053	955390	38048	106065	0	0	8141	787896	0	0
2024-04-29 04:43:32			0	33444	0	0	0	16753	15400	155277	27329	955398	38071	106065	0	0	8140	789032	0	0
2024-04-29 04:44:32			0	33422	0	0	0	16758	15390	155461	27315	955416	38059	106067	0	0	8139	790203	0	0
2024-04-29 04:45:32			0	33430	0	0	0	16745	15390	155489	27183	955416	38059	106062	0	0	8139	789793	0	0
2024-04-29 04:46:32			0	33406	0	0	0	16755	15380	155573	27348	955400	38059	106066	0	0	8138	791067	0	0
2024-04-29 04:47:32			0	33378	0	0	0	16748	15390	155653	27313	955329	38059	106063	0	0	8136	792465	0	0
2024-04-29 04:48:32			0	33359	0	0	0	16745	15380	155661	27107	955347	38070	106062	0	0	8135	793485	0	0
2024-04-29 04:49:32			0	33352	0	0	0	16750	15380	155933	27400	955373	38059	106064	0	0	8135	793846	0	0
2024-04-29 04:50:32			0	33342	0	0	0	16735	15390	155937	27396	955355	38059	106058	0	0	8134	794319	0	0
2024-04-29 04:51:32			0	33330	0	0	0	16750	15390	155909	27350	955408	38048	106064	0	0	8133	794937	0	0
2024-04-29 04:52:32			0	33297	0	0	0	16735	15390	155965	27114	955363	38071	106058	0	0	8132	796641	0	0
2024-04-29 04:53:32			0	33291	0	0	0	16737	15380	156105	27441	955286	38058	106059	0	0	8131	796994	0	0
2024-04-29 04:54:32			0	33294	0	0	0	16724	15380	156177	27220	955365	38047	106054	0	0	8132	796839	0	0
2024-04-29 04:55:32			0	33290	0	0	0	16727	15380	156041	26920	955339	38047	106055	0	0	8131	797046	0	0
2024-04-29 04:56:32			0	33283	0	0	0	16732	15380	156161	27029	955339	38058	106057	0	0	8131	797408	0	0
2024-04-29 04:57:32			0	33275	0	0	0	16732	15370	156313	27526	955304	38069	106057	0	0	8130	797864	0	0
2024-04-29 04:58:32			0	33266	0	0	0	16727	15370	156153	27178	955278	38058	106055	0	0	8130	798330	0	0
2024-04-29 04:59:32			0	33290	0	0	0	16727	15380	156105	27371	955233	38069	106055	0	0	8131	797046	0	0
2024-04-29 05:00:32			0	33312	0	0	0	16724	15370	155997	27104	955357	38058	106054	0	0	8133	795952	0	0
2024-04-29 05:01:32			0	33326	0	0	0	16729	15370	155929	27277	955278	38058	106056	0	0	8133	795229	0	0
2024-04-29 05:02:32			0	33346	0	0	0	16727	15380	155865	27331	955312	38047	106055	0	0	8135	794155	0	0
2024-04-29 05:03:32			0	33353	0	0	0	16727	15370	155873	27150	955243	38068	106055	0	0	8135	793837	0	0
2024-04-29 05:04:32			0	33361	0	0	0	16714	15370	155745	27376	955322	38046	106050	0	0	8136	793425	0	0
2024-04-29 05:05:32			0	33344	0	0	0	16701	15370	155777	27057	955243	38057	106045	0	0	8135	794301	0	0
2024-04-29 05:06:32			0	33351	0	0	0	16703	15360	155717	27157	955227	38045	106046	0	0	8135	793983	0	0
2024-04-29 05:07:32			0	33326	0	0	0	16701	15360	155965	27225	955235	38046	106045	0	0	8134	795272	0	0
2024-04-29 05:08:32			0	33327	0	0	0	16703	15360	155997	27098	955227	38056	106046	0	0	8134	795220	0	0
2024-04-29 05:09:32			0	33302	0	0	0	16698	15350	155977	27388	955272	38055	106044	0	0	8132	796554	0	0
2024-04-29 05:10:32			0	33303	0	0	0	16696	15360	156145	27263	955174	38045	106043	0	0	8133	796460	0	0
2024-04-29 05:11:32			0	33284	0	0	0	16701	15340	156161	27154	955229	38066	106045	0	0	8131	797528	0	0
2024-04-29 05:12:32			0	33276	0	0	0	16706	15340	156153	27249	955229	38055	106047	0	0	8131	797941	0	0
2024-04-29 05:13:32			0	33291	0	0	0	16696	15350	156121	27355	955245	38055	106043	0	0	8132	797123	0	0
2024-04-29 05:14:32			0	33321	0	0	0	16701	15350	156005	27341	955211	38055	106045	0	0	8133	795573	0	0
2024-04-29 05:15:32			0	33344	0	0	0	16693	15340	155845	27133	955221	38054	106042	0	0	8135	794429	0	0
2024-04-29 05:16:32			0	33357	0	0	0	16706	15350	155749	27050	955193	38055	106047	0	0	8136	793716	0	0
2024-04-29 05:17:32			0	33374	0	0	0	16698	15350	155657	27301	955211	38055	106044	0	0	8137	792841	0	0
2024-04-29 05:18:32			0	33368	0	0	0	16703	15340	155709	27255	955229	38044	106046	0	0	8136	793192	0	0
2024-04-29 05:19:32			0	33392	0	0	0	16698	15340	155705	27097	955282	38055	106044	0	0	8138	791957	0	0
2024-04-29 05:20:32			0	33366	0	0	0	16696	15330	155713	27242	955160	38054	106043	0	0	8136	793338	0	0
2024-04-29 05:21:32			0	33369	0	0	0	16688	15340	155773	27229	955221	38054	106040	0	0	8137	793141	0	0
2024-04-29 05:22:32			0	33346	0	0	0	16698	15340	155813	27329	955221	38043	106044	0	0	8135	794326	0	0
2024-04-29 05:23:32			0	33334	0	0	0	16696	15330	155885	27244	955213	38054	106043	0	0	8134	794988	0	0
2024-04-29 05:24:32			0	33322	0	0	0	16698	15330	155965	27074	955160	38054	106044	0	0	8133	795607	0	0
2024-04-29 05:25:32			0	33300	0	0	0	16693	15330	156161	27514	955186	38054	106042	0	0	8132	796743	0	0
2024-04-29 05:26:32			0	33291	0	0	0	16685	15330	156209	27166	955213	38054	106039	0	0	8132	797208	0	0
2024-04-29 05:27:32			0	33268	0	0	0	16690	15330	156241	27140	955231	38054	106041	0	0	8130	798398	0	0
2024-04-29 05:28:32			0	33249	0	0	0	16696	15340	156253	27320	955195	38065	106043	0	0	8129	799340	0	0
2024-04-29 05:29:32			0	33239	0	0	0	16683	15330	156321	27046	955213	38054	106038	0	0	8129	799901	0	0
2024-04-29 05:30:32			0	33222	0	0	0	16683	15330	156457	27298	955152	38054	106038	0	0	8128	800783	0	0
2024-04-29 05:31:32			0	33201	0	0	0	16685	15330	156405	27050	955134	38054	106039	0	0	8126	801873	0	0
2024-04-29 05:32:32			0	33210	0	0	0	16680	15330	156505	27352	955152	38032	106037	0	0	8127	801406	0	0
2024-04-29 05:33:32			0	33208	0	0	0	16675	15320	156577	27467	955083	38064	106035	0	0	8127	801553	0	0
2024-04-29 05:34:32			0	33203	0	0	0	16677	15330	156621	27180	955178	38042	106036	0	0	8127	801769	0	0
2024-04-29 05:35:32			0	33210	0	0	0	16670	15320	156525	27415	955136	38064	106033	0	0	8127	801449	0	0
2024-04-29 05:36:32			0	33214	0	0	0	16667	15330	156417	27559	955099	38042	106032	0	0	8127	801198	0	0
2024-04-29 05:37:32			0	33233	0	0	0	16672	15320	156421	27576	955109	38053	106034	0	0	8129	800255	0	0
2024-04-29 05:38:32			0	33241	0	0	0	16677	15320	156425	27310	955170	38054	106036	0	0	8129	799840	0	0
2024-04-29 05:39:32			0	33243	0	0	0	16677	15320	156477	27424	955083	38053	106036	0	0	8129	799737	0	0
2024-04-29 05:40:32			0	33235	0	0	0	16670	15320	156477	27531	955083	38064	106033	0	0	8129	800151	0	0
2024-04-29 05:41:32			0	33240	0	0	0	16675	15320	156441	27339	955136	38042	106035	0	0	8129	799892	0	0
2024-04-29 05:42:32			0	33220	0	0	0	16670	15310	156537	27296	955075	38052	106033	0	0	8128	800973	0	0
2024-04-29 05:43:32			0	33221	0	0	0	16672	15300	156465	27433	955059	38052	106034	0	0	8128	800964	0	0
2024-04-29 05:44:32			0	33214	0	0	0	16664	15320	156489	27282	955057	38042	106031	0	0	8127	801241	0	0
2024-04-29 05:45:32			0	33204	0	0	0	16662	15310	156561	27163	955022	38041	106030	0	0	8127	801804	0	0
2024-04-29 05:46:32			0	33209	0	0	0	16659	15300	156529	27332	955051	38041	106029	0	0	8127	801587	0	0
2024-04-29 05:47:32			0	33210	0	0	0	16644	15300	156409	27592	955006	38052	106023	0	0	8127	801535	0	0
2024-04-29 05:48:32			0	33220	0	0	0	16657	15310	156497	27396	954988	38052	106028	0	0	8128	800973	0	0
2024-04-29 05:49:32			0	33221	0	0	0	16649	15290	156425	27566	955042	38050	106025	0	0	8128	801007	0	0
2024-04-29 05:50:32			0	33223	0	0	0	16657	15300	156469	27441	955032	38041	106028	0	0	8128	800860	0	0
2024-04-29 05:51:32			0	33211	0	0	0	16646	15290	156485	27223	954990	38050	106024	0	0	8127	801526	0	0
2024-04-29 05:52:32			0	33231	0	0	0	16641	15300	156365	27717	955051	38051	106022	0	0	8129	800445	0	0
2024-04-29 05:53:32			0	33240	0	0	0	16644	15290	156397	27511	955042	38040	106023	0	0	8129	800021	0	0
2024-04-29 05:54:32			0	33235	0	0	0	16638	15280	156405	27397	954929	38039	106021	0	0	8129	800323	0	0
2024-04-29 05:55:32			0	33243	0	0	0	16641	15280	156353	27556	954982	38049	106022	0	0	8129	799908	0	0
2024-04-29 05:56:32			0	33241	0	0	0	16633	15280	156421	27580	955052	38049	106019	0	0	8129	800012	0	0
2024-04-29 05:57:32			0	33233	0	0	0	16644	15280	156409	27268	955008	38049	106023	0	0	8129	800427	0	0
2024-04-29 05:58:32			0	33237	0	0	0	16633	15280	156353	27471	954982	38049	106019	0	0	8129	800220	0	0
2024-04-29 05:59:32			0	33243	0	0	0	16641	15290	156337	27306	954990	38040	106022	0	0	8129	799865	0	0
2024-04-29 06:00:32			0	33248	0	0	0	16646	15270	156285	27246	954965	38039	106024	0	0	8130	799692	0	0
2024-04-29 06:01:32			0	33240	0	0	0	16638	15280	156413	27140	954947	38049	106021	0	0	8129	800064	0	0
2024-04-29 06:02:32			0	33246	0	0	0	16633	15280	156373	27324	954982	38049	106019	0	0	8130	799753	0	0
2024-04-29 06:03:32			0	33234	0	0	0	16644	15280	156377	27466	954929	38039	106023	0	0	8129	800375	0	0
2024-04-29 06:04:32			0	33229	0	0	0	16641	15280	156521	27523	954947	38039	106022	0	0	8129	800635	0	0
2024-04-29 06:05:32			0	33203	0	0	0	16638	15290	156457	27524	954937	38061	106021	0	0	8127	801942	0	0
2024-04-29 06:06:32			0	33205	0	0	0	16638	15290	156573	27447	955042	38050	106021	0	0	8127	801838	0	0
2024-04-29 06:07:32			0	33189	0	0	0	16638	15280	156665	27196	955008	38049	106021	0	0	8126	802713	0	0
2024-04-29 06:08:32			0	33178	0	0	0	16644	15270	156733	27187	955018	38060	106023	0	0	8125	803328	0	0
2024-04-29 06:09:32			0	33160	0	0	0	16638	15280	156781	27499	954921	38049	106021	0	0	8124	804222	0	0
2024-04-29 06:10:32			0	33156	0	0	0	16644	15270	156769	27227	954992	38049	106023	0	0	8124	804473	0	0
2024-04-29 06:11:32			0	33130	0	0	0	16651	15280	156809	27232	954955	38039	106026	0	0	8122	805786	0	0
2024-04-29 06:12:32			0	33127	0	0	0	16651	15270	156913	27133	955010	38048	106026	0	0	8122	805985	0	0
2024-04-29 06:13:32			0	33126	0	0	0	16646	15280	156997	27419	955008	38060	106024	0	0	8122	805994	0	0
2024-04-29 06:14:32			0	33103	0	0	0	16649	15280	157025	27232	955026	38039	106025	0	0	8121	807195	0	0
2024-04-29 06:15:32			0	33081	0	0	0	16654	15280	157129	27222	955000	38049	106027	0	0	8119	808345	0	0
2024-04-29 06:16:32			0	33095	0	0	0	16638	15280	157169	27192	955000	38060	106021	0	0	8121	807613	0	0
2024-04-29 06:17:32			0	33058	0	0	0	16646	15260	157269	27625	954949	38059	106024	0	0	8118	809636	0	0
2024-04-29 06:18:32			0	33066	0	0	0	16638	15270	157309	27410	955018	38049	106021	0	0	8119	809173	0	0
2024-04-29 06:19:32			0	33036	0	0	0	16644	15280	157417	27261	954973	38039	106023	0	0	8117	810702	0	0
2024-04-29 06:20:32			0	33047	0	0	0	16638	15290	157389	27550	955042	38050	106021	0	0	8118	810082	0	0
2024-04-29 06:21:32			0	33006	0	0	0	16636	15270	157513	27467	954965	38039	106020	0	0	8115	812319	0	0
2024-04-29 06:22:32			0	33026	0	0	0	16628	15280	157593	27209	954973	38060	106017	0	0	8116	811226	0	0
2024-04-29 06:23:32			0	32999	0	0	0	16636	15280	157621	27086	954947	38060	106020	0	0	8115	812644	0	0
2024-04-29 06:24:32			0	32991	0	0	0	16633	15270	157617	27353	955018	38060	106019	0	0	8114	813108	0	0
2024-04-29 06:25:32			0	32984	0	0	0	16628	15260	157589	27319	954941	38059	106017	0	0	8114	813519	0	0
2024-04-29 06:26:32			0	32993	0	0	0	16628	15260	157537	27296	954967	38048	106017	0	0	8114	813046	0	0
2024-04-29 06:27:32			0	33012	0	0	0	16618	15270	157605	27374	954957	38060	106013	0	0	8116	812004	0	0
2024-04-29 06:28:32			0	32985	0	0	0	16631	15270	157629	27493	954826	38038	106018	0	0	8114	813423	0	0
2024-04-29 06:29:32			0	32998	0	0	0	16623	15260	157581	27324	954949	38037	106015	0	0	8115	812783	0	0
2024-04-29 06:30:32			0	33013	0	0	0	16623	15260	157481	27310	954896	38048	106015	0	0	8116	811996	0	0
2024-04-29 06:31:32			0	33007	0	0	0	16631	15270	157541	27450	954878	38048	106018	0	0	8115	812267	0	0
2024-04-29 06:32:32			0	33013	0	0	0	16618	15280	157565	27194	954895	38049	106013	0	0	8116	811908	0	0
2024-04-29 06:33:32			0	33011	0	0	0	16628	15260	157533	27249	954923	38059	106017	0	0	8115	812101	0	0
2024-04-29 06:34:32			0	33002	0	0	0	16620	15260	157561	27315	954862	38048	106014	0	0	8115	812573	0	0
2024-04-29 06:35:32			0	33004	0	0	0	16623	15260	157513	27339	954915	38048	106015	0	0	8115	812468	0	0
2024-04-29 06:36:32			0	33005	0	0	0	16620	15250	157457	27409	954854	38048	106014	0	0	8115	812459	0	0
2024-04-29 06:37:32			0	33013	0	0	0	16618	15260	157525	27443	954923	38048	106013	0	0	8116	811996	0	0
2024-04-29 06:38:32			0	33007	0	0	0	16628	15260	157521	27512	954862	38048	106017	0	0	8115	812311	0	0
2024-04-29 06:39:32			0	33008	0	0	0	16631	15260	157625	27583	954941	38048	106018	0	0	8115	812258	0	0
2024-04-29 06:40:32			0	32988	0	0	0	16638	15250	157517	27398	954959	38037	106021	0	0	8114	813353	0	0
2024-04-29 06:41:32			0	33022	0	0	0	16625	15260	157485	27352	954923	38037	106016	0	0	8116	811523	0	0
2024-04-29 06:42:32			0	33006	0	0	0	16628	15260	157525	27277	954888	38048	106017	0	0	8115	812363	0	0
2024-04-29 06:43:32			0	33004	0	0	0	16628	15260	157437	27455	954975	38048	106017	0	0	8115	812468	0	0
2024-04-29 06:44:32			0	32999	0	0	0	16625	15250	157557	27417	954872	38058	106016	0	0	8115	812775	0	0
2024-04-29 06:45:32			0	33006	0	0	0	16628	15250	157601	27126	954880	38037	106017	0	0	8115	812407	0	0
2024-04-29 06:46:32			0	33008	0	0	0	16623	15250	157505	27658	954880	38037	106015	0	0	8115	812302	0	0
2024-04-29 06:47:32			0	32997	0	0	0	16628	15250	157557	27616	954906	38048	106017	0	0	8115	812880	0	0
2024-04-29 06:48:32			0	33010	0	0	0	16625	15250	157605	27362	954933	38048	106016	0	0	8115	812197	0	0
2024-04-29 06:49:32			0	32998	0	0	0	16625	15260	157585	27372	954888	38037	106016	0	0	8115	812783	0	0
2024-04-29 06:50:32			0	32993	0	0	0	16618	15250	157665	27682	954959	38059	106013	0	0	8114	813090	0	0
2024-04-29 06:51:32			0	32993	0	0	0	16623	15250	157625	27369	954924	38037	106015	0	0	8114	813090	0	0
2024-04-29 06:52:32			0	32995	0	0	0	16625	15250	157593	27713	954959	38048	106016	0	0	8115	812985	0	0
2024-04-29 06:53:32			0	33002	0	0	0	16620	15250	157537	27696	954924	38047	106014	0	0	8115	812617	0	0
2024-04-29 06:54:32			0	32989	0	0	0	16625	15260	157589	27358	954941	38059	106016	0	0	8114	813257	0	0
2024-04-29 06:55:32			0	32997	0	0	0	16623	15250	157637	27272	954959	38037	106015	0	0	8115	812880	0	0
2024-04-29 06:56:32			0	32982	0	0	0	16623	15250	157581	27550	954828	38037	106015	0	0	8114	813668	0	0
2024-04-29 06:57:32			0	32984	0	0	0	16623	15250	157661	27171	954898	38058	106015	0	0	8114	813563	0	0
2024-04-29 06:58:32			0	32988	0	0	0	16623	15250	157597	27684	954845	38058	106015	0	0	8114	813353	0	0
2024-04-29 06:59:32			0	32971	0	0	0	16623	15260	157709	27685	954941	38059	106015	0	0	8113	814203	0	0
2024-04-29 07:00:32			0	32974	0	0	0	16625	15270	157697	27443	954905	38048	106016	0	0	8113	814002	0	0
2024-04-29 07:01:32			0	32958	0	0	0	16623	15250	157801	27248	954906	38059	106015	0	0	8112	814931	0	0
2024-04-29 07:02:32			0	32981	0	0	0	16628	15250	157685	27490	954906	38048	106017	0	0	8114	813721	0	0
2024-04-29 07:03:32			0	32975	0	0	0	16631	15250	157637	27358	954933	38048	106018	0	0	8113	814037	0	0
2024-04-29 07:04:32			0	32981	0	0	0	16620	15240	157681	27305	954916	38046	106014	0	0	8114	813765	0	0
2024-04-29 07:05:32			0	32951	0	0	0	16625	15250	157709	27133	954880	38048	106016	0	0	8112	815300	0	0
2024-04-29 07:06:32			0	32982	0	0	0	16633	15250	157669	27223	954906	38048	106019	0	0	8114	813668	0	0
2024-04-29 07:07:32			0	32987	0	0	0	16625	15250	157625	27163	954898	38058	106016	0	0	8114	813405	0	0
2024-04-29 07:08:32			0	32985	0	0	0	16623	15250	157677	27455	954906	38037	106015	0	0	8114	813511	0	0
2024-04-29 07:09:32			0	32990	0	0	0	16631	15260	157605	27263	954941	38026	106018	0	0	8114	813204	0	0
2024-04-29 07:10:32			0	32984	0	0	0	16623	15250	157465	27409	954985	38026	106015	0	0	8114	813563	0	0
2024-04-29 07:11:32			0	33003	0	0	0	16620	15250	157457	27322	954959	38048	106014	0	0	8115	812565	0	0
2024-04-29 07:12:32			0	33008	0	0	0	16623	15250	157393	27334	954880	38048	106015	0	0	8115	812302	0	0
2024-04-29 07:13:32			0	33015	0	0	0	16618	15250	157493	27698	954933	38048	106013	0	0	8116	811934	0	0
2024-04-29 07:14:32			0	33034	0	0	0	16623	15250	157553	27452	954933	38048	106015	0	0	8117	810937	0	0
2024-04-29 07:15:32			0	33039	0	0	0	16631	15250	157521	27239	954951	38037	106018	0	0	8117	810675	0	0
2024-04-29 07:16:32			0	33040	0	0	0	16628	15250	157345	27383	954906	38048	106017	0	0	8117	810623	0	0
2024-04-29 07:17:32			0	33048	0	0	0	16620	15250	157217	27398	954933	38037	106014	0	0	8118	810203	0	0
2024-04-29 07:18:32			0	33063	0	0	0	16625	15270	157229	27926	954992	38039	106016	0	0	8119	809331	0	0
2024-04-29 07:19:32			0	33087	0	0	0	16623	15250	157229	27426	954959	38037	106015	0	0	8120	808162	0	0
2024-04-29 07:20:32			0	33070	0	0	0	16618	15260	157273	27505	954941	38059	106013	0	0	8119	809008	0	0
2024-04-29 07:21:32			0	33081	0	0	0	16618	15260	157185	27789	954862	38037	106013	0	0	8120	808432	0	0
2024-04-29 07:22:32			0	33084	0	0	0	16623	15250	157181	27732	954880	38037	106015	0	0	8120	808319	0	0
2024-04-29 07:23:32			0	33089	0	0	0	16615	15250	157013	27371	954854	38048	106012	0	0	8120	808057	0	0
2024-04-29 07:24:32			0	33107	0	0	0	16610	15240	157117	27326	954908	38046	106010	0	0	8122	807160	0	0
2024-04-29 07:25:32			0	33119	0	0	0	16615	15250	157057	27633	954872	38058	106012	0	0	8122	806490	0	0
2024-04-29 07:26:32			0	33120	0	0	0	16612	15240	157037	27651	954969	38036	106011	0	0	8122	806481	0	0
2024-04-29 07:27:32			0	33112	0	0	0	16623	15250	157053	27293	954985	38037	106015	0	0	8122	806855	0	0
2024-04-29 07:28:32			0	33112	0	0	0	16623	15250	157033	27386	955012	38048	106015	0	0	8122	806855	0	0
2024-04-29 07:29:32			0	33094	0	0	0	16618	15250	156977	27433	954985	38048	106013	0	0	8121	807796	0	0
2024-04-29 07:30:32			0	33099	0	0	0	16612	15250	156977	27462	954924	38047	106011	0	0	8121	807534	0	0
2024-04-29 07:31:32			0	33103	0	0	0	16628	15250	156997	27777	955012	38048	106017	0	0	8121	807325	0	0
2024-04-29 07:32:32			0	33122	0	0	0	16633	15250	157025	27724	955012	38037	106019	0	0	8122	806333	0	0
2024-04-29 07:33:32			0	33132	0	0	0	16623	15250	156893	27708	954906	38037	106015	0	0	8123	805811	0	0
2024-04-29 07:34:32			0	33142	0	0	0	16620	15250	156905	27438	954854	38048	106014	0	0	8124	805290	0	0
2024-04-29 07:35:32			0	33163	0	0	0	16623	15250	156825	28098	954933	38059	106015	0	0	8125	804195	0	0
2024-04-29 07:36:32			0	33164	0	0	0	16623	15250	156781	27498	954977	38047	106015	0	0	8125	804143	0	0
2024-04-29 07:37:32			0	33174	0	0	0	16625	15250	156753	27888	954959	38070	106016	0	0	8125	803622	0	0
2024-04-29 07:38:32			0	33185	0	0	0	16625	15250	156685	27296	954933	38048	106016	0	0	8126	803050	0	0
2024-04-29 07:39:32			0	33185	0	0	0	16631	15270	156597	27911	954965	38049	106018	0	0	8126	802964	0	0
2024-04-29 07:40:32			0	33184	0	0	0	16636	15250	156493	27880	954906	38048	106020	0	0	8126	803102	0	0
2024-04-29 07:41:32			0	33200	0	0	0	16644	15260	156553	27569	954967	38048	106023	0	0	8127	802227	0	0
2024-04-29 07:42:32			0	33220	0	0	0	16638	15260	156577	27807	954941	38037	106021	0	0	8128	801188	0	0
2024-04-29 07:43:32			0	33215	0	0	0	16641	15250	156461	27859	954985	38059	106022	0	0	8128	801491	0	0
2024-04-29 07:44:32			0	33223	0	0	0	16638	15270	156469	27770	954957	38048	106021	0	0	8128	800989	0	0
2024-04-29 07:45:32			0	33246	0	0	0	16636	15260	156273	27659	954994	38059	106020	0	0	8130	799839	0	0
2024-04-29 07:46:32			0	33249	0	0	0	16636	15270	156345	27691	954913	38049	106020	0	0	8130	799640	0	0
2024-04-29 07:47:32			0	33242	0	0	0	16646	15270	156237	28105	955044	38049	106024	0	0	8129	800003	0	0
2024-04-29 07:48:32			0	33257	0	0	0	16638	15270	156309	27604	955044	38049	106021	0	0	8130	799226	0	0
2024-04-29 07:49:32			0	33264	0	0	0	16641	15280	156301	27595	954973	38049	106022	0	0	8131	798820	0	0
2024-04-29 07:50:32			0	33249	0	0	0	16638	15280	156321	27701	954947	38039	106021	0	0	8130	799597	0	0
2024-04-29 07:51:32			0	33252	0	0	0	16651	15270	156409	27951	954965	38060	106026	0	0	8130	799485	0	0
2024-04-29 07:52:32			0	33234	0	0	0	16631	15280	156513	27821	955087	38049	106018	0	0	8129	800375	0	0
2024-04-29 07:53:32			0	33243	0	0	0	16636	15260	156437	27857	955002	38048	106020	0	0	8129	799994	0	0
2024-04-29 07:54:32			0	33226	0	0	0	16638	15270	156401	27880	955018	38049	106021	0	0	8128	800833	0	0
2024-04-29 07:55:32			0	33224	0	0	0	16638	15270	156541	27755	955044	38049	106021	0	0	8128	800937	0	0
2024-04-29 07:56:32			0	33224	0	0	0	16641	15280	156541	27987	955061	38060	106022	0	0	8128	800894	0	0
2024-04-29 07:57:32			0	33206	0	0	0	16646	15270	156525	27946	954992	38060	106024	0	0	8127	801872	0	0
2024-04-29 07:58:32			0	33204	0	0	0	16641	15280	156521	27516	955061	38060	106022	0	0	8127	801933	0	0
2024-04-29 07:59:32			0	33230	0	0	0	16646	15280	156525	27968	955079	38049	106024	0	0	8129	800583	0	0
2024-04-29 08:00:32			0	33209	0	0	0	16646	15270	156581	27540	954939	38049	106024	0	0	8127	801716	0	0
2024-04-29 08:01:32			0	33170	0	0	0	16649	15280	156661	27855	955008	38049	106025	0	0	8125	803701	0	0
2024-04-29 08:02:32			0	33195	0	0	0	16654	15290	156681	27620	954963	38061	106027	0	0	8126	802357	0	0
2024-04-29 08:03:32			0	33176	0	0	0	16659	15280	156745	27727	955061	38049	106029	0	0	8125	803389	0	0
2024-04-29 08:04:32			0	33175	0	0	0	16662	15280	156745	27966	955034	38049	106030	0	0	8125	803441	0	0
2024-04-29 08:05:32			0	33171	0	0	0	16659	15290	156701	27985	955095	38072	106029	0	0	8125	803606	0	0
2024-04-29 08:06:32			0	33151	0	0	0	16662	15280	156813	27985	955113	38049	106030	0	0	8124	804691	0	0
2024-04-29 08:07:32			0	33160	0	0	0	16649	15280	156793	28065	955061	38071	106025	0	0	8124	804222	0	0
2024-04-29 08:08:32			0	33138	0	0	0	16664	15300	156821	27970	955077	38041	106031	0	0	8123	805282	0	0
2024-04-29 08:09:32			0	33147	0	0	0	16664	15300	156925	27928	955077	38062	106031	0	0	8123	804813	0	0
2024-04-29 08:10:32			0	33145	0	0	0	16667	15300	156789	28018	955077	38062	106032	0	0	8123	804917	0	0
2024-04-29 08:11:32			0	33207	0	0	0	16664	15290	156749	27965	955121	38050	106031	0	0	8127	801734	0	0
2024-04-29 08:12:32			0	33237	0	0	0	16662	15300	156477	28124	955111	38063	106030	0	0	8129	800134	0	0
2024-04-29 08:13:32			0	33244	0	0	0	16662	15300	156381	27958	955103	38051	106030	0	0	8129	799771	0	0
2024-04-29 08:14:32			0	33281	0	0	0	16664	15290	156221	28178	955121	38050	106031	0	0	8131	797897	0	0
2024-04-29 08:15:32			0	33330	0	0	0	16670	15300	155977	27868	955129	38062	106033	0	0	8134	795322	0	0
2024-04-29 08:16:32			0	33349	0	0	0	16667	15320	155997	28036	955109	38042	106032	0	0	8136	794257	0	0
2024-04-29 08:17:32			0	33386	0	0	0	16670	15300	155869	27873	955138	38052	106033	0	0	8138	792436	0	0
2024-04-29 08:18:32			0	33375	0	0	0	16677	15310	155825	27621	955172	38052	106036	0	0	8137	792960	0	0
2024-04-29 08:19:32			0	33380	0	0	0	16672	15310	155741	28067	955128	38063	106034	0	0	8137	792702	0	0
2024-04-29 08:20:32			0	33398	0	0	0	16675	15310	155645	27514	955180	38074	106035	0	0	8138	791776	0	0
2024-04-29 08:21:32			0	33394	0	0	0	16677	15310	155601	27678	955146	38063	106036	0	0	8138	791982	0	0
2024-04-29 08:22:32			0	33385	0	0	0	16680	15320	155641	27822	955196	38065	106037	0	0	8137	792403	0	0
2024-04-29 08:23:32			0	33409	0	0	0	16680	15310	155637	27868	955119	38052	106037	0	0	8139	791211	0	0
2024-04-29 08:24:32			0	33394	0	0	0	16680	15310	155585	27743	955128	38052	106037	0	0	8138	791982	0	0
2024-04-29 08:25:32			0	33414	0	0	0	16680	15310	155721	27687	955180	38052	106037	0	0	8139	790954	0	0
2024-04-29 08:26:32			0	33405	0	0	0	16683	15310	155577	27926	955180	38041	106038	0	0	8139	791417	0	0
2024-04-29 08:27:32			0	33414	0	0	0	16680	15300	155629	28022	955164	38052	106037	0	0	8139	790997	0	0
2024-04-29 08:28:32			0	33416	0	0	0	16683	15320	155541	28018	955162	38053	106038	0	0	8139	790809	0	0
2024-04-29 08:29:32			0	33449	0	0	0	16683	15310	155477	27651	955180	38063	106038	0	0	8141	789157	0	0
2024-04-29 08:30:32			0	33456	0	0	0	16680	15310	155357	27613	955233	38052	106037	0	0	8142	788798	0	0
2024-04-29 08:31:32			0	33476	0	0	0	16675	15310	155233	27393	955206	38041	106035	0	0	8143	787774	0	0
2024-04-29 08:32:32			0	33502	0	0	0	16672	15320	155173	27701	955188	38042	106034	0	0	8145	786401	0	0
2024-04-29 08:33:32			0	33535	0	0	0	16672	15310	155161	27277	955101	38052	106034	0	0	8147	784757	0	0
2024-04-29 08:34:32			0	33543	0	0	0	16670	15320	154913	27301	955136	38064	106033	0	0	8147	784307	0	0
2024-04-29 08:35:32			0	33561	0	0	0	16672	15310	154885	27703	955180	38063	106034	0	0	8148	783431	0	0
2024-04-29 08:36:32			0	33582	0	0	0	16675	15320	154950	27407	955136	38064	106035	0	0	8149	782319	0	0
2024-04-29 08:37:32			0	33600	0	0	0	16675	15310	154774	27324	955180	38052	106035	0	0	8150	781445	0	0
2024-04-29 08:38:32			0	33599	0	0	0	16670	15320	154662	27497	955162	38064	106033	0	0	8150	781454	0	0
2024-04-29 08:39:32			0	33620	0	0	0	16672	15320	154610	27497	955144	38065	106034	0	0	8152	780386	0	0
2024-04-29 08:40:32			0	33624	0	0	0	16675	15320	154434	27713	955162	38064	106035	0	0	8152	780182	0	0
2024-04-29 08:41:32			0	33637	0	0	0	16662	15320	154466	27507	955162	38064	106030	0	0	8153	779522	0	0
2024-04-29 08:42:32			0	33642	0	0	0	16659	15320	154538	27798	955109	38064	106029	0	0	8153	779268	0	0
2024-04-29 08:43:32			0	33656	0	0	0	16670	15320	154550	27623	955162	38075	106033	0	0	8154	778558	0	0
2024-04-29 08:44:32			0	33628	0	0	0	16670	15310	154558	27542	955119	38052	106033	0	0	8152	780021	0	0
2024-04-29 08:45:32			0	33644	0	0	0	16672	15310	154458	27369	955172	38041	106034	0	0	8153	779209	0	0
2024-04-29 08:46:32			0	33640	0	0	0	16667	15310	154490	27374	955093	38041	106032	0	0	8153	779412	0	0
2024-04-29 08:47:32			0	33636	0	0	0	16667	15310	154486	27447	955128	38052	106032	0	0	8153	779615	0	0
2024-04-29 08:48:32			0	33635	0	0	0	16659	15310	154454	27869	955154	38041	106029	0	0	8153	779666	0	0
2024-04-29 08:49:32			0	33647	0	0	0	16659	15320	154450	27836	955109	38064	106029	0	0	8153	779015	0	0
2024-04-29 08:50:32			0	33691	0	0	0	16667	15320	154278	27426	955196	38054	106032	0	0	8156	776784	0	0
2024-04-29 08:51:32			0	33724	0	0	0	16685	15310	154106	27403	955119	38063	106039	0	0	8157	775157	0	0
2024-04-29 08:52:32			0	33779	0	0	0	16675	15310	153846	27469	955093	38052	106035	0	0	8161	772381	0	0
2024-04-29 08:53:32			0	33836	0	0	0	16677	15320	153590	27272	955188	38053	106036	0	0	8164	769471	0	0
2024-04-29 08:54:32			0	33863	0	0	0	16680	15310	153482	27512	955146	38074	106037	0	0	8166	768156	0	0
2024-04-29 08:55:32			0	33881	0	0	0	16677	15320	153502	27431	955136	38075	106036	0	0	8167	767212	0	0
2024-04-29 08:56:32			0	33871	0	0	0	16677	15310	153510	27409	955172	38052	106036	0	0	8166	767755	0	0
2024-04-29 08:57:32			0	33852	0	0	0	16675	15320	153670	27286	955215	38064	106035	0	0	8165	768667	0	0
2024-04-29 08:58:32			0	33821	0	0	0	16667	15320	153826	27287	955144	38054	106032	0	0	8164	770225	0	0
2024-04-29 08:59:32			0	33782	0	0	0	16683	15320	153826	27512	955196	38065	106038	0	0	8161	772188	0	0
2024-04-29 09:00:32			0	33752	0	0	0	16683	15310	154062	27653	955206	38063	106038	0	0	8159	773742	0	0
2024-04-29 09:01:32			0	33738	0	0	0	16685	15320	154206	27417	955188	38064	106039	0	0	8158	774408	0	0
2024-04-29 09:02:32			0	33697	0	0	0	16701	15330	154242	27687	955205	38065	106045	0	0	8156	776439	0	0
2024-04-29 09:03:32			0	33711	0	0	0	16711	15330	154186	27441	955257	38076	106049	0	0	8156	775731	0	0
2024-04-29 09:04:32			0	33721	0	0	0	16696	15330	154206	27364	955178	38065	106043	0	0	8157	775225	0	0
2024-04-29 09:05:32			0	33737	0	0	0	16703	15330	154070	27308	955213	38065	106046	0	0	8158	774416	0	0
2024-04-29 09:06:32			0	33741	0	0	0	16703	15330	153946	27523	955213	38065	106046	0	0	8158	774214	0	0
2024-04-29 09:07:32			0	33745	0	0	0	16706	15330	153962	27270	955318	38065	106047	0	0	8158	774012	0	0
2024-04-29 09:08:32			0	33775	0	0	0	16698	15340	153814	27376	955247	38077	106044	0	0	8160	772457	0	0
2024-04-29 09:09:32			0	33764	0	0	0	16688	15340	153778	27391	955221	38077	106040	0	0	8160	773012	0	0
2024-04-29 09:10:32			0	33777	0	0	0	16693	15340	153814	27249	955255	38077	106042	0	0	8161	772357	0	0
2024-04-29 09:11:32			0	33775	0	0	0	16693	15330	153782	27602	955265	38065	106042	0	0	8160	772499	0	0
2024-04-29 09:12:32			0	33746	0	0	0	16690	15340	153802	27632	955255	38055	106041	0	0	8159	773920	0	0
2024-04-29 09:13:32			0	33757	0	0	0	16696	15340	153870	27251	955247	38065	106043	0	0	8159	773365	0	0
2024-04-29 09:14:32			0	33749	0	0	0	16701	15340	153938	27281	955247	38065	106045	0	0	8159	773769	0	0
2024-04-29 09:15:32			0	33741	0	0	0	16693	15340	153906	27460	955282	38066	106042	0	0	8159	774173	0	0
2024-04-29 09:16:32			0	33751	0	0	0	16701	15350	153894	27390	955290	38077	106045	0	0	8159	773626	0	0
2024-04-29 09:17:32			0	33764	0	0	0	16698	15330	153990	27777	955239	38054	106044	0	0	8160	773054	0	0
2024-04-29 09:18:32			0	33765	0	0	0	16709	15350	153894	27242	955237	38055	106048	0	0	8160	772920	0	0
2024-04-29 09:19:32			0	33778	0	0	0	16727	15340	153798	27201	955255	38077	106055	0	0	8160	772306	0	0
2024-04-29 09:20:32			0	33781	0	0	0	16719	15350	153730	27208	955342	38066	106052	0	0	8160	772114	0	0
2024-04-29 09:21:32			0	33792	0	0	0	16711	15340	153754	27838	955308	38055	106049	0	0	8161	771601	0	0
2024-04-29 09:22:32			0	33787	0	0	0	16711	15350	153694	27635	955324	38066	106049	0	0	8161	771811	0	0
2024-04-29 09:23:32			0	33797	0	0	0	16714	15350	153718	27656	955342	38044	106050	0	0	8161	771308	0	0
2024-04-29 09:24:32			0	33810	0	0	0	16709	15360	153626	27575	955332	38067	106048	0	0	8162	770612	0	0
2024-04-29 09:25:32			0	33833	0	0	0	16711	15360	153702	27616	955359	38067	106049	0	0	8164	769456	0	0
2024-04-29 09:26:32			0	33811	0	0	0	16703	15350	153654	27668	955342	38077	106046	0	0	8163	770603	0	0
2024-04-29 09:27:32			0	33806	0	0	0	16716	15360	153738	27452	955332	38056	106051	0	0	8162	770814	0	0
2024-04-29 09:28:32			0	33782	0	0	0	16714	15360	153726	27640	955280	38056	106050	0	0	8161	772022	0	0
2024-04-29 09:29:32			0	33786	0	0	0	16716	15350	153698	27390	955324	38066	106051	0	0	8161	771862	0	0
2024-04-29 09:30:32			0	33802	0	0	0	16727	15360	153782	27272	955359	38067	106055	0	0	8162	771015	0	0
2024-04-29 09:31:32			0	33798	0	0	0	16727	15360	153646	27339	955446	38068	106055	0	0	8161	771216	0	0
2024-04-29 09:32:32			0	33797	0	0	0	16779	15370	153750	27175	955515	38069	106075	0	0	8160	771225	0	0
2024-04-29 09:33:32			0	33809	0	0	0	16805	15370	153698	27447	955567	38080	106085	0	0	8161	770621	0	0
2024-04-29 09:34:32			0	33813	0	0	0	16818	15380	153666	27209	955575	38080	106090	0	0	8161	770378	0	0
2024-04-29 09:35:32			0	33785	0	0	0	16849	15400	153830	27443	955661	38071	106102	0	0	8159	771705	0	0
2024-04-29 09:36:32			0	33758	0	0	0	16833	15410	153934	27543	955738	38104	106096	0	0	8157	773024	0	0
2024-04-29 09:37:32			0	33701	0	0	0	16846	15410	154162	27585	955712	38104	106101	0	0	8154	775903	0	0
2024-04-29 09:38:32			0	33697	0	0	0	16851	15420	154334	27213	955728	38083	106103	0	0	8154	776063	0	0
2024-04-29 09:39:32			0	33634	0	0	0	16846	15440	154466	27279	955805	38085	106101	0	0	8150	779172	0	0
2024-04-29 09:40:32			0	33596	0	0	0	16857	15450	154630	27352	955848	38086	106105	0	0	8148	781060	0	0
2024-04-29 09:41:32			0	33551	0	0	0	16867	15450	154857	27488	955856	38086	106109	0	0	8145	783351	0	0
2024-04-29 09:42:32			0	33518	0	0	0	16864	15460	154937	27505	955838	38098	106108	0	0	8143	784992	0	0
2024-04-29 09:43:32			0	33493	0	0	0	16880	15460	155101	27547	955838	38076	106114	0	0	8141	786269	0	0
2024-04-29 09:44:32			0	33485	0	0	0	16877	15460	155117	27873	955872	38086	106113	0	0	8141	786678	0	0
2024-04-29 09:45:32			0	33478	0	0	0	16883	15460	155185	27921	955951	38086	106115	0	0	8140	787036	0	0
2024-04-29 09:46:32			0	33465	0	0	0	16877	15470	155201	27416	956020	38087	106113	0	0	8140	787659	0	0
2024-04-29 09:47:32			0	33477	0	0	0	16877	15490	155181	27388	955947	38090	106113	0	0	8140	786961	0	0
2024-04-29 09:48:32			0	33482	0	0	0	16885	15490	155161	27566	955965	38089	106116	0	0	8141	786705	0	0
2024-04-29 09:49:32			0	33500	0	0	0	16888	15480	154985	27294	955905	38088	106117	0	0	8142	785827	0	0
2024-04-29 09:50:32			0	33523	0	0	0	16898	15500	154853	27374	955990	38091	106121	0	0	8143	784568	0	0
2024-04-29 09:51:32			0	33528	0	0	0	16901	15500	154897	27779	955982	38090	106122	0	0	8143	784313	0	0
2024-04-29 09:52:32			0	33522	0	0	0	16906	15510	154889	27416	956025	38102	106124	0	0	8143	784577	0	0
2024-04-29 09:53:32			0	33529	0	0	0	16916	15500	154957	27831	956069	38102	106128	0	0	8143	784262	0	0
2024-04-29 09:54:32			0	33517	0	0	0	16919	15510	154921	27724	956059	38092	106129	0	0	8142	784832	0	0
2024-04-29 09:55:32			0	33502	0	0	0	16919	15510	155069	27357	956051	38091	106129	0	0	8141	785598	0	0
2024-04-29 09:56:32			0	33473	0	0	0	16919	15510	155201	27291	956085	38092	106129	0	0	8140	787081	0	0
2024-04-29 09:57:32			0	33453	0	0	0	16922	15520	155125	27498	956128	38092	106130	0	0	8138	788062	0	0
2024-04-29 09:58:32			0	33454	0	0	0	16919	15520	155169	27588	956173	38103	106129	0	0	8139	788011	0	0
2024-04-29 09:59:32			0	33466	0	0	0	16924	15520	155109	27668	956094	38103	106131	0	0	8139	787396	0	0
2024-04-29 10:00:32			0	33474	0	0	0	16919	15520	155173	27339	956154	38092	106129	0	0	8140	786987	0	0
2024-04-29 10:01:32			0	33464	0	0	0	16927	15530	155153	27604	956118	38093	106132	0	0	8139	787456	0	0
2024-04-29 10:02:32			0	33470	0	0	0	16937	15530	155073	27543	956197	38115	106136	0	0	8139	787149	0	0
2024-04-29 10:03:32			0	33504	0	0	0	16937	15530	154993	27265	956110	38103	106136	0	0	8141	785411	0	0
2024-04-29 10:04:32			0	33479	0	0	0	16950	15540	154921	27268	956153	38126	106141	0	0	8140	786647	0	0
2024-04-29 10:05:32			0	33500	0	0	0	16961	15550	154929	27403	956221	38105	106145	0	0	8141	785531	0	0
2024-04-29 10:06:32			0	33488	0	0	0	16966	15550	154929	27251	956274	38105	106147	0	0	8140	786144	0	0
2024-04-29 10:07:32			0	33499	0	0	0	16976	15550	154969	27287	956221	38094	106151	0	0	8140	785582	0	0
2024-04-29 10:08:32			0	33508	0	0	0	16984	15560	154909	27410	956272	38107	106154	0	0	8141	785080	0	0
2024-04-29 10:09:32			0	33523	0	0	0	16979	15560	154805	27627	956351	38107	106152	0	0	8142	784315	0	0
2024-04-29 10:10:32			0	33519	0	0	0	17020	15570	154861	27429	956315	38108	106168	0	0	8141	784477	0	0
2024-04-29 10:11:32			0	33500	0	0	0	17005	15570	155021	27403	956333	38108	106162	0	0	8140	785447	0	0
2024-04-29 10:12:32			0	33481	0	0	0	17005	15590	155069	27126	956418	38098	106162	0	0	8139	786333	0	0
2024-04-29 10:13:32			0	33456	0	0	0	17005	15600	155089	27462	956374	38109	106162	0	0	8138	787569	0	0
2024-04-29 10:14:32			0	33436	0	0	0	17007	15610	155325	27372	956469	38121	106163	0	0	8136	788551	0	0
2024-04-29 10:15:32			0	33423	0	0	0	17007	15610	155337	27409	956443	38110	106163	0	0	8136	789217	0	0
2024-04-29 10:16:32			0	33391	0	0	0	17010	15600	155389	27618	956461	38110	106164	0	0	8134	790902	0	0
2024-04-29 10:17:32			0	33424	0	0	0	17015	15620	155297	27410	956459	38112	106166	0	0	8136	789123	0	0
2024-04-29 10:18:32			0	33456	0	0	0	17012	15610	155185	27542	956451	38122	106165	0	0	8138	787527	0	0
2024-04-29 10:19:32			0	33454	0	0	0	17020	15620	155137	27312	956520	38112	106168	0	0	8137	787587	0	0
2024-04-29 10:20:32			0	33460	0	0	0	17036	15620	155109	27762	956546	38112	106174	0	0	8137	787280	0	0
2024-04-29 10:21:32			0	33476	0	0	0	17098	15620	155065	27651	956573	38123	106198	0	0	8137	786461	0	0
2024-04-29 10:22:32			0	33453	0	0	0	17184	15650	155297	27218	956719	38135	106231	0	0	8135	787511	0	0
2024-04-29 10:23:32			0	33395	0	0	0	17171	15650	155501	27301	956833	38136	106226	0	0	8131	790484	0	0
2024-04-29 10:24:32			0	33329	0	0	0	17116	15680	155729	27339	956952	38138	106205	0	0	8129	793749	0	0
2024-04-29 10:25:32			0	33291	0	0	0	17103	15700	155897	27443	956914	38141	106200	0	0	8127	795623	0	0
2024-04-29 10:26:32			0	33274	0	0	0	17116	15710	155901	27339	956870	38141	106205	0	0	8125	796458	0	0
2024-04-29 10:27:32			0	33315	0	0	0	17109	15710	155821	27398	956975	38130	106202	0	0	8128	794342	0	0
2024-04-29 10:28:32			0	33352	0	0	0	17137	15720	155593	27154	956973	38142	106213	0	0	8130	792395	0	0
2024-04-29 10:29:32			0	33370	0	0	0	17153	15720	155501	27275	956999	38142	106219	0	0	8131	791469	0	0
2024-04-29 10:30:32			0	33383	0	0	0	17150	15740	155397	27364	957076	38143	106218	0	0	8131	790716	0	0
2024-04-29 10:31:32			0	33377	0	0	0	17244	15760	155385	27275	957241	38145	106254	0	0	8130	790939	0	0
2024-04-29 10:32:32			0	33379	0	0	0	17280	15760	155361	27329	957355	38157	106268	0	0	8129	790836	0	0
2024-04-29 10:33:32			0	33364	0	0	0	17327	15780	155493	27469	957361	38148	106286	0	0	8128	791522	0	0
2024-04-29 10:34:32			0	33333	0	0	0	17374	15800	155737	27345	957499	38170	106304	0	0	8125	793030	0	0
2024-04-29 10:35:32			0	33288	0	0	0	17407	15820	155893	27362	957610	38162	106317	0	0	8122	795263	0	0
2024-04-29 10:36:32			0	33269	0	0	0	17415	15850	155993	27777	957704	38175	106320	0	0	8121	796115	0	0
2024-04-29 10:37:32			0	33253	0	0	0	17389	15860	155933	27661	957781	38176	106310	0	0	8120	796899	0	0
2024-04-29 10:38:32			0	33252	0	0	0	17392	15890	156009	27346	957761	38167	106311	0	0	8120	796821	0	0
2024-04-29 10:39:32			0	33264	0	0	0	17405	15910	155933	27523	957873	38158	106316	0	0	8121	796116	0	0
2024-04-29 10:40:32			0	33271	0	0	0	17397	15920	155937	27450	957871	38170	106313	0	0	8121	795711	0	0
2024-04-29 10:41:32			0	33280	0	0	0	17415	15930	155837	27614	957887	38181	106320	0	0	8122	795204	0	0
2024-04-29 10:42:32			0	33312	0	0	0	17423	15940	155729	27604	957983	38172	106323	0	0	8124	793513	0	0
2024-04-29 10:43:32			0	33360	0	0	0	17425	15960	155665	27502	957928	38173	106324	0	0	8126	790959	0	0
2024-04-29 10:44:32			0	33385	0	0	0	17428	15960	155309	27352	957963	38196	106325	0	0	8128	789677	0	0
2024-04-29 10:45:32			0	33413	0	0	0	17436	15970	155157	27400	958076	38185	106328	0	0	8130	788200	0	0
2024-04-29 10:46:32			0	33472	0	0	0	17436	15970	154917	27639	958005	38186	106328	0	0	8133	785183	0	0
2024-04-29 10:47:32			0	33514	0	0	0	17428	15980	154769	27417	958040	38175	106325	0	0	8136	783000	0	0
2024-04-29 10:48:32			0	33525	0	0	0	17436	16000	154637	27736	958125	38166	106328	0	0	8136	782356	0	0
2024-04-29 10:49:32			0	33572	0	0	0	17454	15990	154417	27381	958143	38176	106335	0	0	8139	780009	0	0
2024-04-29 10:50:32			0	33587	0	0	0	17428	16000	154266	27474	958151	38187	106325	0	0	8140	779206	0	0
2024-04-29 10:51:32			0	33600	0	0	0	17436	16010	154298	27935	958168	38167	106328	0	0	8141	778505	0	0
2024-04-29 10:52:32			0	33604	0	0	0	17415	16020	154166	27422	958132	38168	106320	0	0	8141	778260	0	0
2024-04-29 10:53:32			0	33637	0	0	0	17428	16030	154130	27866	958183	38191	106325	0	0	8143	776547	0	0
2024-04-29 10:54:32			0	33639	0	0	0	17412	16020	154038	27542	958140	38168	106319	0	0	8144	776488	0	0
2024-04-29 10:55:32			0	33661	0	0	0	17420	16020	153974	27573	958193	38179	106322	0	0	8145	775376	0	0
2024-04-29 10:56:32			0	33666	0	0	0	17420	16030	153914	27390	958130	38168	106322	0	0	8145	775082	0	0
2024-04-29 10:57:32			0	33689	0	0	0	17431	16020	153710	27561	958061	38168	106326	0	0	8146	773963	0	0
2024-04-29 10:58:32			0	33714	0	0	0	17423	16030	153642	27412	958095	38168	106323	0	0	8148	772660	0	0
2024-04-29 10:59:32			0	33716	0	0	0	17431	16030	153570	27395	958130	38180	106326	0	0	8148	772560	0	0
2024-04-29 11:00:32			0	33732	0	0	0	17446	16030	153518	27679	958183	38168	106332	0	0	8149	771754	0	0
2024-04-29 11:01:32			0	33744	0	0	0	17423	16040	153546	27447	958252	38169	106323	0	0	8150	771109	0	0
2024-04-29 11:02:32			0	33742	0	0	0	17433	16040	153606	27505	958217	38192	106327	0	0	8149	771209	0	0
2024-04-29 11:03:32			0	33771	0	0	0	17441	16030	153558	27848	958183	38168	106330	0	0	8151	769793	0	0
2024-04-29 11:04:32			0	33758	0	0	0	17433	16050	153470	27395	958260	38181	106327	0	0	8150	770363	0	0
2024-04-29 11:05:32			0	33764	0	0	0	17444	16040	153454	27789	958199	38180	106331	0	0	8150	770103	0	0
2024-04-29 11:06:32			0	33764	0	0	0	17446	16040	153434	27659	958225	38180	106332	0	0	8150	770103	0	0
2024-04-29 11:07:32			0	33763	0	0	0	17449	16060	153450	27639	958223	38182	106333	0	0	8150	770071	0	0
2024-04-29 11:08:32			0	33768	0	0	0	17438	16050	153414	27279	958242	38181	106329	0	0	8151	769861	0	0
2024-04-29 11:09:32			0	33762	0	0	0	17433	16040	153350	27416	958217	38192	106327	0	0	8151	770204	0	0
2024-04-29 11:10:32			0	33782	0	0	0	17444	16040	153306	27684	958225	38180	106331	0	0	8152	769199	0	0
2024-04-29 11:11:32			0	33783	0	0	0	17457	16060	153254	27637	958276	38182	106336	0	0	8151	769066	0	0
2024-04-29 11:12:32			0	33781	0	0	0	17425	16060	153226	27796	958276	38193	106324	0	0	8152	769167	0	0
2024-04-29 11:13:32			0	33780	0	0	0	17433	16060	153286	27331	958250	38193	106327	0	0	8152	769217	0	0
2024-04-29 11:14:32			0	33766	0	0	0	17423	16060	153474	27660	958250	38182	106323	0	0	8151	769920	0	0
2024-04-29 11:15:32			0	33731	0	0	0	17431	16050	153462	27393	958242	38192	106326	0	0	8149	771721	0	0
2024-04-29 11:16:32			0	33725	0	0	0	17425	16060	153570	27687	958223	38161	106324	0	0	8149	771982	0	0
2024-04-29 11:17:32			0	33726	0	0	0	17423	16060	153530	27338	958223	38182	106323	0	0	8149	771931	0	0
2024-04-29 11:18:32			0	33730	0	0	0	17451	16060	153494	27601	958258	38182	106334	0	0	8148	771730	0	0
2024-04-29 11:19:32			0	33701	0	0	0	17438	16060	153602	27488	958179	38214	106329	0	0	8147	773190	0	0
2024-04-29 11:20:32			0	33708	0	0	0	17431	16060	153626	27419	958302	38193	106326	0	0	8148	772838	0	0
2024-04-29 11:21:32			0	33715	0	0	0	17436	16050	153658	27604	958189	38170	106328	0	0	8148	772527	0	0
2024-04-29 11:22:32			0	33718	0	0	0	17438	16060	153582	27507	958205	38182	106329	0	0	8148	772334	0	0
2024-04-29 11:23:32			0	33718	0	0	0	17436	16050	153530	27836	958242	38181	106328	0	0	8148	772376	0	0
2024-04-29 11:24:32			0	33713	0	0	0	17446	16060	153550	27531	958258	38182	106332	0	0	8148	772586	0	0
2024-04-29 11:25:32			0	33718	0	0	0	17446	16060	153522	28091	958223	38193	106332	0	0	8148	772334	0	0
2024-04-29 11:26:32			0	33733	0	0	0	17451	16070	153570	27524	958292	38172	106334	0	0	8149	771537	0	0
2024-04-29 11:27:32			0	33727	0	0	0	17451	16070	153530	27632	958292	38194	106334	0	0	8148	771839	0	0
2024-04-29 11:28:32			0	33740	0	0	0	17457	16060	153506	27708	958311	38182	106336	0	0	8149	771227	0	0
2024-04-29 11:29:32			0	33736	0	0	0	17454	16060	153454	27758	958337	38182	106335	0	0	8149	771428	0	0
2024-04-29 11:30:32			0	33751	0	0	0	17444	16070	153386	27660	958292	38172	106331	0	0	8150	770632	0	0
2024-04-29 11:31:32			0	33778	0	0	0	17459	16060	153374	27802	958276	38182	106337	0	0	8151	769317	0	0
2024-04-29 11:32:32			0	33769	0	0	0	17462	16080	153298	27819	958335	38184	106338	0	0	8151	769686	0	0
2024-04-29 11:33:32			0	33776	0	0	0	17467	16070	153278	27713	958266	38183	106340	0	0	8151	769376	0	0
2024-04-29 11:34:32			0	33764	0	0	0	17470	16080	153274	27518	958309	38173	106341	0	0	8150	769937	0	0
2024-04-29 11:35:32			0	33806	0	0	0	17483	16080	153270	27623	958343	38185	106346	0	0	8152	767830	0	0
2024-04-29 11:36:32			0	33790	0	0	0	17483	16080	153182	27984	958335	38195	106346	0	0	8152	768632	0	0
2024-04-29 11:37:32			0	33799	0	0	0	17480	16080	153206	27601	958343	38185	106345	0	0	8152	768181	0	0
2024-04-29 11:38:32			0	33786	0	0	0	17496	16070	153134	27770	958380	38195	106351	0	0	8151	768874	0	0
2024-04-29 11:39:32			0	33810	0	0	0	17483	16090	153106	27822	958351	38185	106346	0	0	8153	767588	0	0
2024-04-29 11:40:32			0	33836	0	0	0	17470	16100	153054	27466	958394	38186	106341	0	0	8155	766245	0	0
2024-04-29 11:41:32			0	33842	0	0	0	17462	16090	152974	27393	958439	38197	106338	0	0	8155	765986	0	0
2024-04-29 11:42:32			0	33840	0	0	0	17438	16090	152930	27680	958386	38186	106329	0	0	8155	766086	0	0
2024-04-29 11:43:32			0	33855	0	0	0	17428	16090	152922	27921	958386	38208	106325	0	0	8156	765336	0	0
2024-04-29 11:44:32			0	33878	0	0	0	17425	16090	152834	27644	958386	38186	106324	0	0	8158	764187	0	0
2024-04-29 11:45:32			0	33872	0	0	0	17418	16090	152790	27724	958333	38174	106321	0	0	8157	764486	0	0
2024-04-29 11:46:32			0	33875	0	0	0	17425	16080	152834	27545	958317	38196	106324	0	0	8157	764378	0	0
2024-04-29 11:47:32			0	33883	0	0	0	17415	16080	152886	27705	958309	38184	106320	0	0	8158	763978	0	0
2024-04-29 11:48:32			0	33869	0	0	0	17423	16070	152914	27959	958292	38172	106323	0	0	8157	764719	0	0
2024-04-29 11:49:32			0	33861	0	0	0	17438	16080	152954	27569	958370	38196	106329	0	0	8156	765077	0	0
2024-04-29 11:50:32			0	33859	0	0	0	17428	16080	152978	27805	958335	38195	106325	0	0	8157	765177	0	0
2024-04-29 11:51:32			0	33864	0	0	0	17428	16080	152978	27835	958335	38173	106325	0	0	8157	764927	0	0
2024-04-29 11:52:32			0	33855	0	0	0	17425	16080	153010	27750	958256	38184	106324	0	0	8156	765377	0	0
2024-04-29 11:53:32			0	33849	0	0	0	17438	16080	152918	28008	958309	38184	106329	0	0	8156	765677	0	0
2024-04-29 11:54:32			0	33843	0	0	0	17444	16080	152978	27805	958343	38173	106331	0	0	8155	765977	0	0
2024-04-29 11:55:32			0	33843	0	0	0	17433	16070	153078	27783	958327	38195	106327	0	0	8155	766018	0	0
2024-04-29 11:56:32			0	33826	0	0	0	17433	16070	153098	27857	958301	38184	106327	0	0	8154	766869	0	0
2024-04-29 11:57:32			0	33811	0	0	0	17444	16070	153218	27968	958274	38173	106331	0	0	8153	767620	0	0
2024-04-29 11:58:32			0	33824	0	0	0	17433	16070	153098	27866	958319	38183	106327	0	0	8154	766969	0	0
2024-04-29 11:59:32			0	33827	0	0	0	17449	16080	153130	27724	958335	38173	106333	0	0	8154	766778	0	0
2024-04-29 12:00:32			0	33833	0	0	0	17441	16060	153142	27876	958337	38182	106330	0	0	8155	766560	0	0
2024-04-29 12:01:32			0	33823	0	0	0	17436	16070	153122	27627	958301	38206	106328	0	0	8154	767019	0	0
2024-04-29 12:02:32			0	33834	0	0	0	17438	16070	153138	27594	958345	38194	106329	0	0	8155	766469	0	0
2024-04-29 12:03:32			0	33821	0	0	0	17444	16080	153110	27809	958335	38184	106331	0	0	8154	767078	0	0
2024-04-29 12:04:32			0	33847	0	0	0	17436	16070	153114	27585	958319	38194	106328	0	0	8156	765818	0	0
2024-04-29 12:05:32			0	33843	0	0	0	17441	16080	153114	27866	958309	38173	106330	0	0	8155	765977	0	0
2024-04-29 12:06:32			0	33825	0	0	0	17561	16070	153250	27573	958345	38172	106376	0	0	8152	766919	0	0
2024-04-29 12:07:32			0	33811	0	0	0	17490	16090	153406	27985	958491	38197	106349	0	0	8153	767538	0	0
2024-04-29 12:08:32			0	33759	0	0	0	17451	16080	153322	27762	958414	38173	106334	0	0	8150	770188	0	0
2024-04-29 12:09:32			0	33752	0	0	0	17446	16080	153550	27282	958343	38185	106332	0	0	8150	770540	0	0
2024-04-29 12:10:32			0	33765	0	0	0	17441	16100	153418	27609	958368	38197	106330	0	0	8151	769804	0	0
2024-04-29 12:11:32			0	33762	0	0	0	17449	16090	153510	27751	958280	38186	106333	0	0	8151	769996	0	0
2024-04-29 12:12:32			0	33771	0	0	0	17451	16080	153386	27748	958335	38195	106334	0	0	8151	769586	0	0
2024-04-29 12:13:32			0	33774	0	0	0	17462	16080	153302	27621	958396	38196	106338	0	0	8151	769435	0	0
2024-04-29 12:14:32			0	33786	0	0	0	17454	16090	153334	27291	958351	38185	106335	0	0	8152	768791	0	0
2024-04-29 12:15:32			0	33809	0	0	0	17454	16080	153154	27694	958370	38185	106335	0	0	8153	767679	0	0
2024-04-29 12:16:32			0	33824	0	0	0	17457	16080	153018	27623	958335	38184	106336	0	0	8154	766928	0	0
2024-04-29 12:17:32			0	33858	0	0	0	17462	16090	152994	27540	958404	38196	106338	0	0	8156	765186	0	0
2024-04-29 12:18:32			0	33862	0	0	0	17464	16090	152910	27944	958351	38173	106339	0	0	8156	764986	0	0
2024-04-29 12:19:32			0	33887	0	0	0	17454	16080	152874	27521	958343	38185	106335	0	0	8158	763778	0	0
2024-04-29 12:20:32			0	33905	0	0	0	17451	16080	152730	27826	958256	38184	106334	0	0	8159	762880	0	0
2024-04-29 12:21:32			0	33925	0	0	0	17446	16080	152670	27946	958317	38185	106332	0	0	8160	761884	0	0
2024-04-29 12:22:32			0	33938	0	0	0	17444	16070	152622	27810	958266	38172	106331	0	0	8161	761277	0	0
2024-04-29 12:23:32			0	33935	0	0	0	17438	16070	152630	27718	958353	38195	106329	0	0	8161	761427	0	0
2024-04-29 12:24:32			0	33941	0	0	0	17446	16080	152594	27765	958282	38195	106332	0	0	8161	761087	0	0
2024-04-29 12:25:32			0	33933	0	0	0	17451	16070	152722	27892	958274	38195	106334	0	0	8160	761526	0	0
2024-04-29 12:26:32			0	33913	0	0	0	17462	16070	152822	27767	958327	38184	106338	0	0	8159	762523	0	0
2024-04-29 12:27:32			0	33901	0	0	0	17475	16070	152770	27590	958353	38184	106343	0	0	8158	763121	0	0
2024-04-29 12:28:32			0	33877	0	0	0	17464	16080	152822	27566	958414	38206	106339	0	0	8157	764278	0	0
2024-04-29 12:29:32			0	33912	0	0	0	17467	16080	152994	27618	958317	38196	106340	0	0	8159	762531	0	0
2024-04-29 12:30:32			0	33904	0	0	0	17470	16090	152798	27653	958404	38185	106341	0	0	8158	762889	0	0
2024-04-29 12:31:32			0	33935	0	0	0	17464	16090	152690	27991	958351	38185	106339	0	0	8160	761345	0	0
2024-04-29 12:32:32			0	33941	0	0	0	17467	16080	152502	27793	958317	38196	106340	0	0	8161	761087	0	0
2024-04-29 12:33:32			0	33954	0	0	0	17470	16090	152550	27848	958360	38186	106341	0	0	8161	760399	0	0
2024-04-29 12:34:32			0	33975	0	0	0	17472	16090	152426	27951	958404	38207	106342	0	0	8163	759355	0	0
2024-04-29 12:35:32			0	34007	0	0	0	17470	16090	152342	27731	958378	38185	106341	0	0	8164	757767	0	0
2024-04-29 12:36:32			0	34010	0	0	0	17485	16090	152314	27833	958439	38186	106347	0	0	8164	757618	0	0
2024-04-29 12:37:32			0	34020	0	0	0	17483	16100	152226	27613	958420	38186	106346	0	0	8165	757081	0	0
2024-04-29 12:38:32			0	34020	0	0	0	17470	16100	152238	27684	958420	38186	106341	0	0	8165	757081	0	0
2024-04-29 12:39:32			0	34032	0	0	0	17467	16100	152222	27935	958368	38208	106340	0	0	8166	756487	0	0
2024-04-29 12:40:32			0	34047	0	0	0	17457	16090	152186	27888	958412	38186	106336	0	0	8167	755785	0	0
2024-04-29 12:41:32			0	34046	0	0	0	17462	16090	152054	27611	958360	38174	106338	0	0	8167	755834	0	0
2024-04-29 12:42:32			0	34064	0	0	0	17464	16090	151990	27569	958430	38173	106339	0	0	8168	754944	0	0
2024-04-29 12:43:32			0	34067	0	0	0	17462	16090	151982	27959	958404	38185	106338	0	0	8168	754795	0	0
2024-04-29 12:44:32			0	34062	0	0	0	17454	16090	151926	27521	958412	38186	106335	0	0	8168	755043	0	0
2024-04-29 12:45:32			0	34075	0	0	0	17464	16090	151990	27438	958386	38197	106339	0	0	8168	754400	0	0
2024-04-29 12:46:32			0	34068	0	0	0	17470	16090	151906	27703	958404	38173	106341	0	0	8168	754746	0	0
2024-04-29 12:47:32			0	34083	0	0	0	17475	16100	151878	27614	958394	38186	106343	0	0	8169	753964	0	0
2024-04-29 12:48:32			0	34086	0	0	0	17496	16100	152026	27760	958429	38197	106351	0	0	8169	753816	0	0
2024-04-29 12:49:32			0	34099	0	0	0	17509	16100	151950	27639	958455	38197	106356	0	0	8169	753174	0	0
2024-04-29 12:50:32			0	34101	0	0	0	17527	16110	151974	27447	958516	38208	106363	0	0	8169	753034	0	0
2024-04-29 12:51:32			0	34085	0	0	0	17498	16110	152002	27443	958498	38198	106352	0	0	8169	753825	0	0
2024-04-29 12:52:32			0	34060	0	0	0	17462	16120	151978	27568	958514	38209	106338	0	0	8168	755019	0	0
2024-04-29 12:53:32			0	34069	0	0	0	17451	16110	152126	27647	958550	38208	106334	0	0	8168	754615	0	0
2024-04-29 12:54:32			0	34035	0	0	0	17425	16110	152074	27653	958445	38187	106324	0	0	8167	756297	0	0
2024-04-29 12:55:32			0	34044	0	0	0	17412	16110	152130	27554	958445	38187	106319	0	0	8168	755852	0	0
2024-04-29 12:56:32			0	34042	0	0	0	17423	16110	152138	27412	958384	38197	106323	0	0	8167	755951	0	0
2024-04-29 12:57:32			0	34031	0	0	0	17420	16090	152146	27450	958333	38197	106322	0	0	8167	756577	0	0
2024-04-29 12:58:32			0	34018	0	0	0	17418	16090	152282	27384	958351	38185	106321	0	0	8166	757221	0	0
2024-04-29 12:59:32			0	33997	0	0	0	17415	16090	152322	27435	958360	38186	106320	0	0	8165	758263	0	0
2024-04-29 13:00:32			0	33974	0	0	0	17412	16080	152306	27783	958335	38184	106319	0	0	8163	759446	0	0
2024-04-29 13:01:32			0	33972	0	0	0	17412	16080	152470	27776	958309	38173	106319	0	0	8163	759545	0	0
2024-04-29 13:02:32			0	33943	0	0	0	17425	16080	152526	27815	958309	38195	106324	0	0	8161	760987	0	0
2024-04-29 13:03:32			0	33944	0	0	0	17451	16080	152454	27895	958361	38184	106334	0	0	8161	760938	0	0
2024-04-29 13:04:32			0	33933	0	0	0	17459	16090	152510	27407	958412	38186	106337	0	0	8160	761444	0	0
2024-04-29 13:05:32			0	33918	0	0	0	17488	16090	152562	27559	958483	38196	106348	0	0	8159	762191	0	0
2024-04-29 13:06:32			0	33941	0	0	0	17535	16110	152646	27628	958542	38208	106366	0	0	8160	760964	0	0
2024-04-29 13:07:32			0	33931	0	0	0	17555	16110	152682	27379	958568	38197	106374	0	0	8159	761462	0	0
2024-04-29 13:08:32			0	33934	0	0	0	17563	16120	152602	27661	958611	38198	106377	0	0	8159	761271	0	0
2024-04-29 13:09:32			0	33940	0	0	0	17553	16120	152614	27864	958637	38208	106373	0	0	8159	760972	0	0
2024-04-29 13:10:32			0	33940	0	0	0	17545	16130	152566	27675	958654	38209	106370	0	0	8159	760931	0	0
2024-04-29 13:11:32			0	33963	0	0	0	17540	16130	152638	27540	958636	38200	106368	0	0	8161	759787	0	0
2024-04-29 13:12:32			0	33971	0	0	0	17522	16150	152434	27595	958660	38191	106361	0	0	8162	759308	0	0
2024-04-29 13:13:32			0	33946	0	0	0	17511	16140	152450	27644	958591	38210	106357	0	0	8160	760592	0	0
2024-04-29 13:14:32			0	33975	0	0	0	17498	16140	152330	27516	958618	38189	106352	0	0	8162	759150	0	0
2024-04-29 13:15:32			0	33981	0	0	0	17509	16150	152382	27658	958687	38202	106356	0	0	8163	758811	0	0
2024-04-29 13:16:32			0	33993	0	0	0	17506	16150	152134	27628	958642	38191	106355	0	0	8163	758216	0	0
2024-04-29 13:17:32			0	34014	0	0	0	17501	16140	152286	27585	958618	38200	106353	0	0	8165	757215	0	0
2024-04-29 13:18:32			0	34000	0	0	0	17506	16140	152314	27486	958626	38201	106355	0	0	8164	757909	0	0
2024-04-29 13:19:32			0	34013	0	0	0	17496	16150	152190	27511	958555	38202	106351	0	0	8165	757224	0	0
2024-04-29 13:20:32			0	34010	0	0	0	17506	16140	152258	27604	958705	38179	106355	0	0	8164	757414	0	0
2024-04-29 13:21:32			0	34007	0	0	0	17511	16150	152234	27448	958660	38191	106357	0	0	8164	757521	0	0
2024-04-29 13:22:32			0	33999	0	0	0	17509	16150	152290	27493	958660	38191	106356	0	0	8164	757918	0	0
2024-04-29 13:23:32			0	34016	0	0	0	17516	16150	152258	27448	958695	38202	106359	0	0	8164	757075	0	0
2024-04-29 13:24:32			0	34014	0	0	0	17527	16150	152262	27568	958660	38202	106363	0	0	8164	757174	0	0
2024-04-29 13:25:32			0	34008	0	0	0	17524	16170	152234	27686	958711	38191	106362	0	0	8164	757390	0	0
2024-04-29 13:26:32			0	34023	0	0	0	17542	16170	152182	27737	958764	38202	106369	0	0	8165	756647	0	0
2024-04-29 13:27:32			0	34017	0	0	0	17592	16170	152258	27280	958843	38213	106388	0	0	8163	756944	0	0
2024-04-29 13:28:32			0	34010	0	0	0	17535	16180	152218	27918	958859	38213	106366	0	0	8164	757250	0	0
2024-04-29 13:29:32			0	34015	0	0	0	17519	16180	152094	27535	958815	38193	106360	0	0	8165	757002	0	0
2024-04-29 13:30:32			0	34027	0	0	0	17514	16200	152222	27639	958813	38206	106358	0	0	8165	756326	0	0
2024-04-29 13:31:32			0	34022	0	0	0	17462	16170	152050	27621	958667	38192	106338	0	0	8166	756696	0	0
2024-04-29 13:32:32			0	34009	0	0	0	17467	16170	152070	27923	958693	38192	106340	0	0	8165	757341	0	0
2024-04-29 13:33:32			0	34001	0	0	0	17472	16160	152042	27748	958571	38191	106342	0	0	8164	757778	0	0
2024-04-29 13:34:32			0	34002	0	0	0	17488	16160	152154	27682	958624	38191	106348	0	0	8164	757728	0	0
2024-04-29 13:35:32			0	33993	0	0	0	17553	16160	152178	27364	958756	38191	106373	0	0	8163	758175	0	0
2024-04-29 13:36:32			0	33971	0	0	0	17524	16170	152370	27734	958869	38213	106362	0	0	8162	759226	0	0
2024-04-29 13:37:32			0	33959	0	0	0	17532	16190	152338	27405	958849	38214	106365	0	0	8161	759740	0	0
2024-04-29 13:38:32			0	33952	0	0	0	17566	16190	152318	27355	958823	38193	106378	0	0	8160	760088	0	0
2024-04-29 13:39:32			0	33948	0	0	0	17599	16200	152450	27653	958900	38195	106391	0	0	8159	760246	0	0
2024-04-29 13:40:32			0	33941	0	0	0	17574	16210	152482	27459	958961	38216	106381	0	0	8159	760553	0	0
2024-04-29 13:41:32			0	33969	0	0	0	17571	16210	152382	27777	958969	38207	106380	0	0	8161	759161	0	0
2024-04-29 13:42:32			0	33979	0	0	0	17574	16220	152254	27883	958959	38196	106381	0	0	8162	758624	0	0
2024-04-29 13:43:32			0	33983	0	0	0	17563	16220	152266	27379	958933	38208	106377	0	0	8162	758425	0	0
2024-04-29 13:44:32			0	33989	0	0	0	17581	16220	152218	27540	958959	38229	106384	0	0	8162	758128	0	0
2024-04-29 13:45:32			0	34010	0	0	0	17584	16230	152234	27666	959028	38208	106385	0	0	8163	757046	0	0
2024-04-29 13:46:32			0	33992	0	0	0	17579	16230	152194	27647	958967	38208	106383	0	0	8162	757938	0	0
2024-04-29 13:47:32			0	34014	0	0	0	17589	16240	152094	27627	958992	38198	106387	0	0	8164	756806	0	0
2024-04-29 13:48:32			0	33991	0	0	0	17610	16240	152198	27855	959063	38208	106395	0	0	8162	757947	0	0
2024-04-29 13:49:32			0	34021	0	0	0	17612	16240	152094	27419	959018	38208	106396	0	0	8164	756460	0	0
2024-04-29 13:50:32			0	34014	0	0	0	17587	16250	152122	27871	959106	38219	106386	0	0	8164	756766	0	0
2024-04-29 13:51:32			0	34036	0	0	0	17631	16260	152270	27485	959069	38210	106403	0	0	8164	755636	0	0
2024-04-29 13:52:32			0	34024	0	0	0	17610	16250	152134	27878	959061	38209	106395	0	0	8164	756270	0	0
2024-04-29 13:53:32			0	34023	0	0	0	17589	16250	152130	27569	959088	38199	106387	0	0	8164	756320	0	0
2024-04-29 13:54:32			0	34029	0	0	0	17615	16270	151982	27497	959165	38233	106397	0	0	8164	755941	0	0
2024-04-29 13:55:32			0	34026	0	0	0	17612	16270	152054	27433	959173	38211	106396	0	0	8164	756090	0	0
2024-04-29 13:56:32			0	34027	0	0	0	17625	16260	152082	27774	959157	38222	106401	0	0	8164	756081	0	0
2024-04-29 13:57:32			0	34059	0	0	0	17628	16270	151986	27718	959112	38211	106402	0	0	8166	754458	0	0
2024-04-29 13:58:32			0	34046	0	0	0	17623	16280	151966	27711	959207	38223	106400	0	0	8165	755059	0	0
2024-04-29 13:59:32			0	34050	0	0	0	17644	16280	151898	27673	959216	38224	106408	0	0	8165	754862	0	0
2024-04-29 14:00:32			0	34063	0	0	0	17631	16290	151874	28008	959276	38212	106403	0	0	8166	754178	0	0
2024-04-29 14:01:32			0	34060	0	0	0	17623	16290	151886	27710	959258	38212	106400	0	0	8166	754326	0	0
2024-04-29 14:02:32			0	34080	0	0	0	17628	16290	151902	27421	959232	38212	106402	0	0	8167	753339	0	0
2024-04-29 14:03:32			0	34083	0	0	0	17625	16290	151858	27809	959285	38235	106401	0	0	8167	753191	0	0
2024-04-29 14:04:32			0	34085	0	0	0	17654	16300	151710	27751	959372	38224	106412	0	0	8167	753051	0	0
2024-04-29 14:05:32			0	34087	0	0	0	17672	16300	151826	27796	959398	38224	106419	0	0	8167	752953	0	0
2024-04-29 14:06:32			0	34096	0	0	0	17696	16310	151742	27699	959388	38248	106428	0	0	8167	752468	0	0
2024-04-29 14:07:32			0	34121	0	0	0	17789	16320	151754	27705	959518	38238	106464	0	0	8167	751196	0	0
2024-04-29 14:08:32			0	34122	0	0	0	17820	16340	151734	27602	959551	38229	106476	0	0	8166	751065	0	0
2024-04-29 14:09:32			0	34145	0	0	0	17836	16360	151634	27968	959654	38241	106482	0	0	8168	749852	0	0
2024-04-29 14:10:32			0	34158	0	0	0	17854	16370	151478	27659	959758	38252	106489	0	0	8168	749173	0	0
2024-04-29 14:11:32			0	34186	0	0	0	17880	16390	151458	27696	959756	38233	106499	0	0	8169	747717	0	0
2024-04-29 14:12:32			0	34196	0	0	0	17877	16390	151322	27537	959870	38266	106498	0	0	8170	747226	0	0
2024-04-29 14:13:32			0	34245	0	0	0	17872	16400	151226	27932	959834	38234	106496	0	0	8173	744786	0	0
2024-04-29 14:14:32			0	34239	0	0	0	17864	16420	151214	27583	959805	38235	106493	0	0	8173	744999	0	0
2024-04-29 14:15:32			0	34225	0	0	0	17849	16420	151074	27685	959805	38247	106487	0	0	8172	745684	0	0
2024-04-29 14:16:32			0	34188	0	0	0	17870	16430	151346	27815	959909	38270	106495	0	0	8170	747457	0	0
2024-04-29 14:17:32			0	34149	0	0	0	17859	16440	151562	27869	959917	38258	106491	0	0	8168	749331	0	0
2024-04-29 14:18:32			0	34129	0	0	0	17857	16440	151642	27550	959952	38258	106490	0	0	8167	750315	0	0
2024-04-29 14:19:32			0	34103	0	0	0	17854	16440	151646	27668	959952	38248	106489	0	0	8165	751595	0	0
2024-04-29 14:20:32			0	34105	0	0	0	17846	16450	151666	27819	959968	38250	106486	0	0	8165	751455	0	0
2024-04-29 14:21:32			0	34093	0	0	0	17831	16450	151618	27602	959889	38239	106480	0	0	8165	752047	0	0
2024-04-29 14:22:32			0	34084	0	0	0	17844	16450	151758	27611	959907	38259	106485	0	0	8164	752490	0	0
2024-04-29 14:23:32			0	34078	0	0	0	17841	16470	151714	27472	959879	38250	106484	0	0	8164	752705	0	0
2024-04-29 14:24:32			0	34072	0	0	0	17841	16470	151802	27854	959932	38250	106484	0	0	8164	753001	0	0
2024-04-29 14:25:32			0	34075	0	0	0	17836	16480	151842	27613	959922	38241	106482	0	0	8164	752812	0	0
2024-04-29 14:26:32			0	34053	0	0	0	17849	16470	152042	27606	959861	38250	106487	0	0	8162	753938	0	0
2024-04-29 14:27:32			0	34042	0	0	0	17841	16480	151974	27784	960001	38251	106484	0	0	8162	754441	0	0
2024-04-29 14:28:32			0	34012	0	0	0	17836	16470	152146	27835	959940	38240	106482	0	0	8160	755965	0	0
2024-04-29 14:29:32			0	33986	0	0	0	17825	16470	152206	27944	959914	38250	106478	0	0	8159	757253	0	0
2024-04-29 14:30:32			0	33967	0	0	0	17825	16470	152226	27746	959905	38229	106478	0	0	8158	758195	0	0
2024-04-29 14:31:32			0	33945	0	0	0	17838	16470	152298	27708	959958	38250	106483	0	0	8156	759286	0	0
2024-04-29 14:32:32			0	33928	0	0	0	17838	16480	152510	27855	959922	38251	106483	0	0	8155	760090	0	0
2024-04-29 14:33:32			0	33914	0	0	0	17825	16470	152562	27999	959914	38240	106478	0	0	8155	760827	0	0
2024-04-29 14:34:32			0	33900	0	0	0	17836	16480	152522	27753	959956	38251	106482	0	0	8154	761482	0	0
2024-04-29 14:35:32			0	33905	0	0	0	17823	16470	152494	27894	960019	38250	106477	0	0	8154	761275	0	0
2024-04-29 14:36:32			0	33881	0	0	0	17818	16480	152578	27793	959956	38251	106475	0	0	8153	762428	0	0
2024-04-29 14:37:32			0	33895	0	0	0	17836	16470	152554	27909	959966	38229	106482	0	0	8154	761772	0	0
2024-04-29 14:38:32			0	33897	0	0	0	17854	16480	152514	27781	960035	38274	106489	0	0	8153	761632	0	0
2024-04-29 14:39:32			0	33877	0	0	0	17888	16480	152554	27991	960062	38251	106502	0	0	8152	762628	0	0
2024-04-29 14:40:32			0	33878	0	0	0	17898	16500	152650	27961	960139	38252	106506	0	0	8152	762496	0	0
2024-04-29 14:41:32			0	33886	0	0	0	17872	16500	152598	27699	960147	38253	106496	0	0	8153	762097	0	0
2024-04-29 14:42:32			0	33858	0	0	0	17846	16510	152690	27737	960103	38243	106486	0	0	8151	763451	0	0
2024-04-29 14:43:32			0	33850	0	0	0	17716	16510	152750	27668	960076	38243	106436	0	0	8153	763850	0	0
2024-04-29 14:44:32			0	33831	0	0	0	17812	16510	152782	27842	960058	38243	106473	0	0	8150	764798	0	0
2024-04-29 14:45:32			0	33846	0	0	0	17836	16510	152882	27627	960103	38232	106482	0	0	8151	764050	0	0
2024-04-29 14:46:32			0	33873	0	0	0	17838	16500	152754	27741	960060	38264	106483	0	0	8152	762744	0	0
2024-04-29 14:47:32			0	33867	0	0	0	17875	16500	152654	27821	960068	38253	106497	0	0	8151	763044	0	0
2024-04-29 14:48:32			0	33879	0	0	0	17854	16510	152694	27913	960129	38264	106489	0	0	8153	762404	0	0
2024-04-29 14:49:32			0	33890	0	0	0	17851	16510	152734	27916	960076	38264	106488	0	0	8153	761857	0	0
2024-04-29 14:50:32			0	33866	0	0	0	17766	16500	152622	27571	960095	38243	106455	0	0	8153	763093	0	0
2024-04-29 14:51:32			0	33872	0	0	0	17755	16510	152686	27920	959971	38243	106451	0	0	8154	762753	0	0
2024-04-29 14:52:32			0	33859	0	0	0	17740	16490	152726	27727	959946	38241	106445	0	0	8153	763484	0	0
2024-04-29 14:53:32			0	33866	0	0	0	17719	16480	152738	27549	959851	38230	106437	0	0	8154	763176	0	0
2024-04-29 14:54:32			0	33870	0	0	0	17722	16490	152698	27696	959806	38230	106438	0	0	8154	762935	0	0
2024-04-29 14:55:32			0	33872	0	0	0	17709	16470	152774	27523	959800	38217	106433	0	0	8154	762918	0	0
2024-04-29 14:56:32			0	33892	0	0	0	17690	16460	152602	27666	959739	38206	106426	0	0	8156	761963	0	0
2024-04-29 14:57:32			0	33913	0	0	0	17698	16450	152510	28093	959696	38206	106429	0	0	8157	760959	0	0
2024-04-29 14:58:32			0	33928	0	0	0	17693	16440	152430	27892	959714	38226	106427	0	0	8158	760254	0	0
2024-04-29 14:59:32			0	33953	0	0	0	17688	16440	152330	27977	959706	38237	106425	0	0	8159	759012	0	0
2024-04-29 15:00:32			0	33967	0	0	0	17672	16440	152210	27930	959680	38226	106419	0	0	8160	758318	0	0
2024-04-29 15:01:32			0	33994	0	0	0	17667	16430	152146	27568	959743	38236	106417	0	0	8162	757020	0	0
2024-04-29 15:02:32			0	34000	0	0	0	17659	16430	152094	27798	959664	38247	106414	0	0	8162	756723	0	0
2024-04-29 15:03:32			0	34009	0	0	0	17636	16430	152050	27590	959637	38236	106405	0	0	8163	756277	0	0
2024-04-29 15:04:32			0	34039	0	0	0	17644	16420	151970	27627	959515	38224	106408	0	0	8165	754834	0	0
2024-04-29 15:05:32			0	34054	0	0	0	17651	16410	151942	27549	959578	38223	106411	0	0	8166	754134	0	0
2024-04-29 15:06:32			0	34038	0	0	0	17670	16400	151970	27731	959588	38223	106418	0	0	8164	754965	0	0
2024-04-29 15:07:32			0	34056	0	0	0	17667	16400	151886	27757	959641	38245	106417	0	0	8165	754076	0	0
2024-04-29 15:08:32			0	34055	0	0	0	17667	16410	151854	27435	959552	38212	106417	0	0	8165	754084	0	0
2024-04-29 15:09:32			0	34067	0	0	0	17677	16410	151954	27857	959605	38223	106421	0	0	8166	753492	0	0
2024-04-29 15:10:32			0	34060	0	0	0	17696	16400	151910	27805	959649	38223	106428	0	0	8165	753878	0	0
2024-04-29 15:11:32			0	34055	0	0	0	17724	16400	151854	28018	959675	38211	106439	0	0	8164	754125	0	0
2024-04-29 15:12:32			0	34054	0	0	0	17766	16410	151926	27864	959710	38235	106455	0	0	8164	754134	0	0
2024-04-29 15:13:32			0	34060	0	0	0	17763	16420	151970	27692	959832	38224	106454	0	0	8164	753797	0	0
2024-04-29 15:14:32			0	34069	0	0	0	17729	16430	151942	27580	959848	38258	106441	0	0	8165	753312	0	0
2024-04-29 15:15:32			0	34056	0	0	0	17714	16430	151898	27803	959830	38237	106435	0	0	8165	753953	0	0
2024-04-29 15:16:32			0	34063	0	0	0	17709	16430	151906	27826	959822	38236	106433	0	0	8165	753608	0	0
2024-04-29 15:17:32			0	34062	0	0	0	17727	16440	151870	27855	959785	38226	106440	0	0	8165	753616	0	0
2024-04-29 15:18:32			0	34054	0	0	0	17732	16440	151910	27651	959846	38226	106442	0	0	8164	754011	0	0
2024-04-29 15:19:32			0	34060	0	0	0	17742	16440	151914	27862	959812	38237	106446	0	0	8165	753715	0	0
2024-04-29 15:20:32			0	34051	0	0	0	17755	16450	151958	27897	959960	38238	106451	0	0	8164	754119	0	0
2024-04-29 15:21:32			0	34023	0	0	0	17768	16460	152042	27490	959950	38239	106456	0	0	8162	755462	0	0
2024-04-29 15:22:32			0	34036	0	0	0	17758	16470	152086	27904	959984	38240	106452	0	0	8163	754778	0	0
2024-04-29 15:23:32			0	34047	0	0	0	17729	16460	152030	27894	959844	38228	106441	0	0	8164	754276	0	0
2024-04-29 15:24:32			0	34049	0	0	0	17706	16470	151842	27528	959861	38240	106432	0	0	8165	754136	0	0
2024-04-29 15:25:32			0	34063	0	0	0	17703	16450	151906	27812	959802	38216	106431	0	0	8165	753526	0	0
2024-04-29 15:26:32			0	34102	0	0	0	17683	16440	151898	27763	959767	38226	106423	0	0	8168	751644	0	0
2024-04-29 15:27:32			0	34094	0	0	0	17685	16440	151790	27388	959706	38215	106424	0	0	8168	752038	0	0
2024-04-29 15:28:32			0	34097	0	0	0	17688	16430	151682	27535	959698	38226	106425	0	0	8168	751931	0	0
2024-04-29 15:29:32			0	34106	0	0	0	17703	16440	151778	27407	959838	38226	106431	0	0	8168	751447	0	0
2024-04-29 15:30:32			0	34094	0	0	0	17729	16430	151750	27763	959777	38215	106441	0	0	8167	752079	0	0
2024-04-29 15:31:32			0	34084	0	0	0	17748	16440	151730	27497	959899	38226	106448	0	0	8166	752531	0	0
2024-04-29 15:32:32			0	34085	0	0	0	17722	16450	151718	27680	959934	38238	106438	0	0	8166	752441	0	0
2024-04-29 15:33:32			0	34098	0	0	0	17729	16470	151814	27763	960011	38229	106441	0	0	8167	751719	0	0
2024-04-29 15:34:32			0	34095	0	0	0	17758	16460	151774	27819	959924	38228	106452	0	0	8166	751907	0	0
2024-04-29 15:35:32			0	34098	0	0	0	17753	16480	151742	27845	960001	38241	106450	0	0	8167	751678	0	0
2024-04-29 15:36:32			0	34103	0	0	0	17745	16470	151670	27762	959993	38229	106447	0	0	8167	751473	0	0
2024-04-29 15:37:32			0	34111	0	0	0	17711	16470	151658	27486	959887	38217	106434	0	0	8168	751079	0	0
2024-04-29 15:38:32			0	34130	0	0	0	17698	16460	151526	27457	959792	38217	106429	0	0	8169	750184	0	0
2024-04-29 15:39:32			0	34129	0	0	0	17698	16450	151506	27419	959810	38206	106429	0	0	8169	750274	0	0
2024-04-29 15:40:32			0	34134	0	0	0	17677	16450	151550	27512	959802	38227	106421	0	0	8170	750028	0	0
2024-04-29 15:41:32			0	34138	0	0	0	17675	16440	151518	27781	959741	38226	106420	0	0	8170	749872	0	0
2024-04-29 15:42:32			0	34152	0	0	0	17662	16430	151502	27973	959698	38215	106415	0	0	8171	749224	0	0
2024-04-29 15:43:32			0	34112	0	0	0	17675	16420	151506	27840	959682	38224	106420	0	0	8169	751233	0	0
2024-04-29 15:44:32			0	34132	0	0	0	17672	16420	151530	28124	959655	38213	106419	0	0	8170	750248	0	0
2024-04-29 15:45:32			0	34146	0	0	0	17664	16410	151586	27750	959665	38224	106416	0	0	8171	749600	0	0
2024-04-29 15:46:32			0	34119	0	0	0	17670	16410	151582	27682	959631	38212	106418	0	0	8169	750929	0	0
2024-04-29 15:47:32			0	34134	0	0	0	17675	16410	151514	27746	959605	38223	106420	0	0	8170	750191	0	0
2024-04-29 15:48:32			0	34132	0	0	0	17677	16400	151470	27724	959615	38211	106421	0	0	8170	750329	0	0
2024-04-29 15:49:32			0	34115	0	0	0	17683	16390	151578	27531	959633	38211	106423	0	0	8169	751207	0	0
2024-04-29 15:50:32			0	34096	0	0	0	17690	16390	151602	27991	959651	38211	106426	0	0	8167	752143	0	0
2024-04-29 15:51:32			0	34108	0	0	0	17696	16400	151646	27672	959641	38211	106428	0	0	8168	751511	0	0
2024-04-29 15:52:32			0	34104	0	0	0	17701	16390	151722	27998	959598	38201	106430	0	0	8168	751749	0	0
2024-04-29 15:53:32			0	34093	0	0	0	17698	16400	151750	27994	959675	38234	106429	0	0	8167	752250	0	0
2024-04-29 15:54:32			0	34096	0	0	0	17714	16390	151738	28015	959633	38234	106435	0	0	8167	752143	0	0
2024-04-29 15:55:32			0	34093	0	0	0	17714	16390	151810	27784	959625	38211	106435	0	0	8167	752291	0	0
2024-04-29 15:56:32			0	34083	0	0	0	17724	16400	151806	27751	959702	38211	106439	0	0	8166	752743	0	0
2024-04-29 15:57:32			0	34074	0	0	0	17714	16390	151814	27842	959633	38223	106435	0	0	8166	753228	0	0
2024-04-29 15:58:32			0	34078	0	0	0	17716	16400	151814	28350	959728	38211	106436	0	0	8166	752990	0	0
2024-04-29 15:59:32			0	34093	0	0	0	17722	16400	151886	27589	959667	38223	106438	0	0	8167	752250	0	0
2024-04-29 16:00:32			0	34088	0	0	0	17714	16390	151730	27390	959712	38211	106435	0	0	8166	752537	0	0
2024-04-29 16:01:32			0	34078	0	0	0	17709	16400	151826	27479	959649	38245	106433	0	0	8166	752990	0	0
2024-04-29 16:02:32			0	34068	0	0	0	17709	16400	151790	27668	959667	38223	106433	0	0	8165	753483	0	0
2024-04-29 16:03:32			0	34088	0	0	0	17706	16400	151814	27703	959728	38223	106432	0	0	8167	752497	0	0
2024-04-29 16:04:32			0	34082	0	0	0	17714	16400	151794	27467	959667	38234	106435	0	0	8166	752792	0	0
2024-04-29 16:05:32			0	34087	0	0	0	17722	16400	151826	27646	959694	38211	106438	0	0	8166	752546	0	0
2024-04-29 16:06:32			0	34114	0	0	0	17722	16400	151634	27876	959641	38234	106438	0	0	8168	751215	0	0
2024-04-29 16:07:32			0	34112	0	0	0	17742	16410	151642	27454	959789	38235	106446	0	0	8167	751273	0	0
2024-04-29 16:08:32			0	34122	0	0	0	17748	16400	151558	27923	959807	38234	106448	0	0	8168	750821	0	0
2024-04-29 16:09:32			0	34112	0	0	0	17748	16420	151670	27805	959832	38247	106448	0	0	8167	751233	0	0
2024-04-29 16:10:32			0	34097	0	0	0	17761	16430	151710	27613	959795	38214	106453	0	0	8166	751931	0	0
2024-04-29 16:11:32			0	34092	0	0	0	17753	16440	151694	27454	959865	38226	106450	0	0	8166	752137	0	0
2024-04-29 16:12:32			0	34108	0	0	0	17742	16440	151718	27679	959873	38215	106446	0	0	8167	751348	0	0
2024-04-29 16:13:32			0	34128	0	0	0	17745	16440	151670	27793	959812	38226	106447	0	0	8168	750364	0	0
2024-04-29 16:14:32			0	34113	0	0	0	17740	16430	151534	27786	959848	38225	106445	0	0	8168	751143	0	0
2024-04-29 16:15:32			0	34137	0	0	0	17729	16430	151522	27817	959804	38215	106441	0	0	8169	749962	0	0
2024-04-29 16:16:32			0	34132	0	0	0	17750	16430	151630	27627	959856	38226	106449	0	0	8169	750208	0	0
2024-04-29 16:17:32			0	34129	0	0	0	17735	16430	151598	27424	959795	38225	106443	0	0	8169	750355	0	0
2024-04-29 16:18:32			0	34124	0	0	0	17742	16440	151666	28268	959838	38215	106446	0	0	8168	750561	0	0
2024-04-29 16:19:32			0	34127	0	0	0	17742	16430	151614	27381	959804	38226	106446	0	0	8168	750454	0	0
2024-04-29 16:20:32			0	34116	0	0	0	17753	16420	151630	27710	959787	38235	106450	0	0	8168	751036	0	0
2024-04-29 16:21:32			0	34112	0	0	0	17755	16430	151690	27890	959856	38248	106451	0	0	8167	751192	0	0
2024-04-29 16:22:32			0	34093	0	0	0	17745	16440	151890	27666	959846	38237	106447	0	0	8166	752087	0	0
2024-04-29 16:23:32			0	34099	0	0	0	17755	16450	151826	27705	959934	38227	106451	0	0	8167	751751	0	0
2024-04-29 16:24:32			0	34087	0	0	0	17758	16450	151810	27460	959942	38239	106452	0	0	8166	752342	0	0
2024-04-29 16:25:32			0	34106	0	0	0	17771	16450	151810	27963	959968	38239	106457	0	0	8167	751406	0	0
2024-04-29 16:26:32			0	34114	0	0	0	17766	16450	151790	27755	959995	38217	106455	0	0	8167	751012	0	0
2024-04-29 16:27:32			0	34086	0	0	0	17753	16450	151898	27831	959942	38228	106450	0	0	8166	752392	0	0
2024-04-29 16:28:32			0	34095	0	0	0	17745	16450	151790	28213	959854	38216	106447	0	0	8167	751948	0	0
2024-04-29 16:29:32			0	34123	0	0	0	17745	16450	151650	27937	959863	38228	106447	0	0	8168	750569	0	0
2024-04-29 16:30:32			0	34133	0	0	0	17742	16450	151594	27582	959889	38239	106446	0	0	8169	750077	0	0
2024-04-29 16:31:32			0	34149	0	0	0	17755	16450	151678	27737	959881	38227	106451	0	0	8170	749291	0	0
2024-04-29 16:32:32			0	34180	0	0	0	17776	16450	151522	27862	959907	38227	106459	0	0	8171	747769	0	0
2024-04-29 16:33:32			0	34181	0	0	0	17763	16460	151450	28117	959950	38239	106454	0	0	8171	747679	0	0
2024-04-29 16:34:32			0	34155	0	0	0	17742	16470	151286	28025	959905	38229	106446	0	0	8170	748915	0	0
2024-04-29 16:35:32			0	34179	0	0	0	17719	16460	151350	27597	959871	38239	106437	0	0	8172	747777	0	0
2024-04-29 16:36:32			0	34163	0	0	0	17727	16460	151358	27946	959924	38228	106440	0	0	8171	748563	0	0
2024-04-29 16:37:32			0	34180	0	0	0	17737	16460	151302	28221	959924	38217	106444	0	0	8172	747728	0	0
2024-04-29 16:38:32			0	34175	0	0	0	17748	16470	151338	28093	959905	38240	106448	0	0	8171	747933	0	0
2024-04-29 16:39:32			0	34187	0	0	0	17763	16460	151306	27944	959924	38206	106454	0	0	8172	747385	0	0
2024-04-29 16:40:32			0	34179	0	0	0	17779	16450	151422	27864	959995	38239	106460	0	0	8171	747818	0	0
2024-04-29 16:41:32			0	34165	0	0	0	17784	16480	151390	27857	960009	38241	106462	0	0	8170	748383	0	0
2024-04-29 16:42:32			0	34180	0	0	0	17779	16470	151398	27500	959993	38250	106460	0	0	8171	747688	0	0
2024-04-29 16:43:32			0	34179	0	0	0	17776	16480	151418	27703	960054	38218	106459	0	0	8171	747696	0	0
2024-04-29 16:44:32			0	34181	0	0	0	17799	16480	151382	27684	960009	38230	106468	0	0	8171	747598	0	0
2024-04-29 16:45:32			0	34183	0	0	0	17792	16480	151294	27345	960114	38241	106465	0	0	8171	747500	0	0
2024-04-29 16:46:32			0	34198	0	0	0	17776	16490	151210	27731	960104	38241	106459	0	0	8172	746724	0	0
2024-04-29 16:47:32			0	34197	0	0	0	17774	16490	151222	27680	960025	38219	106458	0	0	8172	746773	0	0
2024-04-29 16:48:32			0	34212	0	0	0	17766	16480	151134	28230	960009	38230	106455	0	0	8173	746079	0	0
2024-04-29 16:49:32			0	34219	0	0	0	17768	16490	151094	27975	960017	38241	106456	0	0	8174	745696	0	0
2024-04-29 16:50:32			0	34214	0	0	0	17753	16490	151058	28357	960017	38230	106450	0	0	8174	745941	0	0
2024-04-29 16:51:32			0	34222	0	0	0	17774	16490	150950	27679	960070	38230	106458	0	0	8174	745549	0	0
2024-04-29 16:52:32			0	34228	0	0	0	17779	16500	151090	27703	960007	38231	106460	0	0	8174	745215	0	0
2024-04-29 16:53:32			0	34247	0	0	0	17784	16490	150974	27672	960025	38241	106462	0	0	8175	744326	0	0
2024-04-29 16:54:32			0	34254	0	0	0	17774	16490	150974	27810	960202	38230	106458	0	0	8175	743984	0	0
2024-04-29 16:55:32			0	34248	0	0	0	17774	16500	150942	27573	960121	38221	106458	0	0	8175	744237	0	0
2024-04-29 16:56:32			0	34244	0	0	0	17784	16490	150926	27677	960052	38230	106462	0	0	8175	744473	0	0
2024-04-29 16:57:32			0	34251	0	0	0	17810	16490	151038	27937	960052	38230	106472	0	0	8175	744131	0	0
2024-04-29 16:58:32			0	34269	0	0	0	17799	16500	151042	27923	960060	38242	106468	0	0	8176	743211	0	0
2024-04-29 16:59:32			0	34257	0	0	0	17797	16500	151010	28017	960087	38220	106467	0	0	8175	743797	0	0
2024-04-29 17:00:32			0	34244	0	0	0	17781	16510	151010	28171	960050	38232	106461	0	0	8175	744392	0	0
2024-04-29 17:01:32			0	34262	0	0	0	17768	16500	150898	27944	960034	38220	106456	0	0	8176	743553	0	0
2024-04-29 17:02:32			0	34260	0	0	0	17771	16490	150898	27883	960078	38219	106457	0	0	8176	743691	0	0
2024-04-29 17:03:32			0	34265	0	0	0	17755	16490	150742	27743	959999	38219	106451	0	0	8176	743447	0	0
2024-04-29 17:04:32			0	34276	0	0	0	17740	16480	150830	27982	959956	38219	106445	0	0	8177	742950	0	0
2024-04-29 17:05:32			0	34261	0	0	0	17732	16490	150822	27907	959946	38208	106442	0	0	8177	743642	0	0
2024-04-29 17:06:32			0	34232	0	0	0	17714	16480	150834	27913	959895	38229	106435	0	0	8175	745100	0	0
2024-04-29 17:07:32			0	34266	0	0	0	17714	16470	151038	28018	959887	38217	106435	0	0	8177	743478	0	0
2024-04-29 17:08:32			0	34230	0	0	0	17724	16460	150986	27554	959871	38217	106439	0	0	8175	745278	0	0
2024-04-29 17:09:32			0	34252	0	0	0	17706	16450	150970	27634	959863	38217	106432	0	0	8176	744243	0	0
2024-04-29 17:10:32			0	34253	0	0	0	17722	16450	150918	27855	959810	38217	106438	0	0	8176	744194	0	0
2024-04-29 17:11:32			0	34244	0	0	0	17724	16450	150950	27698	959828	38216	106439	0	0	8176	744634	0	0
2024-04-29 17:12:32			0	34241	0	0	0	17714	16440	151010	28091	959846	38226	106435	0	0	8175	744821	0	0
2024-04-29 17:13:32			0	34215	0	0	0	17722	16440	151122	28032	959785	38226	106438	0	0	8174	746093	0	0
2024-04-29 17:14:32			0	34229	0	0	0	17719	16430	151042	27973	959751	38215	106437	0	0	8175	745448	0	0
2024-04-29 17:15:32			0	34210	0	0	0	17722	16440	151098	27944	959785	38215	106438	0	0	8174	746338	0	0
2024-04-29 17:16:32			0	34219	0	0	0	17714	16440	151078	28084	959785	38226	106435	0	0	8174	745897	0	0
2024-04-29 17:17:32			0	34217	0	0	0	17724	16430	151114	27935	959769	38214	106439	0	0	8174	746036	0	0
2024-04-29 17:18:32			0	34207	0	0	0	17724	16410	151130	28109	959771	38224	106439	0	0	8173	746606	0	0
2024-04-29 17:19:32			0	34233	0	0	0	17724	16430	151110	28034	959769	38214	106439	0	0	8175	745252	0	0
2024-04-29 17:20:32			0	34229	0	0	0	17711	16420	151102	27786	959787	38224	106434	0	0	8175	745489	0	0
2024-04-29 17:21:32			0	34214	0	0	0	17719	16410	151122	28081	959718	38224	106437	0	0	8174	746263	0	0
2024-04-29 17:22:32			0	34235	0	0	0	17727	16410	151202	27715	959718	38213	106440	0	0	8175	745235	0	0
2024-04-29 17:23:32			0	34204	0	0	0	17716	16410	151222	28048	959736	38223	106436	0	0	8173	746753	0	0
2024-04-29 17:24:32			0	34197	0	0	0	17727	16410	151262	27992	959745	38213	106440	0	0	8173	747097	0	0
2024-04-29 17:25:32			0	34185	0	0	0	17719	16420	151242	28194	959700	38224	106437	0	0	8172	747645	0	0
2024-04-29 17:26:32			0	34181	0	0	0	17719	16400	151338	27679	959728	38234	106437	0	0	8172	747922	0	0
2024-04-29 17:27:32			0	34173	0	0	0	17711	16400	151406	28044	959746	38223	106434	0	0	8171	748314	0	0
2024-04-29 17:28:32			0	34184	0	0	0	17714	16410	151426	27900	959718	38224	106435	0	0	8172	747734	0	0
2024-04-29 17:29:32			0	34171	0	0	0	17716	16410	151358	27588	959710	38223	106436	0	0	8171	748372	0	0
2024-04-29 17:30:32			0	34171	0	0	0	17716	16400	151438	27746	959720	38201	106436	0	0	8171	748413	0	0
2024-04-29 17:31:32			0	34160	0	0	0	17722	16410	151406	28190	959736	38202	106438	0	0	8171	748912	0	0
2024-04-29 17:32:32			0	34187	0	0	0	17711	16410	151422	28027	959710	38212	106434	0	0	8172	747587	0	0
2024-04-29 17:33:32			0	34177	0	0	0	17703	16400	151330	27953	959702	38223	106431	0	0	8172	748118	0	0
2024-04-29 17:34:32			0	34184	0	0	0	17711	16400	151306	27836	959641	38211	106434	0	0	8172	747775	0	0
2024-04-29 17:35:32			0	34192	0	0	0	17716	16400	151358	27763	959728	38211	106436	0	0	8172	747382	0	0
2024-04-29 17:36:32			0	34185	0	0	0	17724	16400	151302	28091	959720	38211	106439	0	0	8172	747725	0	0
2024-04-29 17:37:32			0	34176	0	0	0	17727	16400	151406	28292	959702	38223	106440	0	0	8171	748167	0	0
2024-04-29 17:38:32			0	34182	0	0	0	17727	16400	151422	27251	959702	38245	106440	0	0	8172	747873	0	0
2024-04-29 17:39:32			0	34203	0	0	0	17722	16400	151454	27933	959720	38234	106438	0	0	8173	746843	0	0
2024-04-29 17:40:32			0	34168	0	0	0	17727	16390	151570	27923	959633	38245	106440	0	0	8171	748600	0	0
2024-04-29 17:41:32			0	34161	0	0	0	17719	16390	151434	28251	959712	38223	106437	0	0	8171	748944	0	0
2024-04-29 17:42:32			0	34161	0	0	0	17719	16400	151570	27890	959746	38223	106437	0	0	8171	748904	0	0
2024-04-29 17:43:32			0	34166	0	0	0	17732	16390	151494	27965	959659	38211	106442	0	0	8171	748699	0	0
2024-04-29 17:44:32			0	34138	0	0	0	17714	16390	151562	28055	959659	38234	106435	0	0	8169	750075	0	0
2024-04-29 17:45:32			0	34150	0	0	0	17714	16400	151562	28145	959720	38234	106435	0	0	8170	749444	0	0
2024-04-29 17:46:32			0	34153	0	0	0	17716	16400	151438	27899	959720	38211	106436	0	0	8170	749297	0	0
2024-04-29 17:47:32			0	34159	0	0	0	17709	16390	151550	27663	959659	38234	106433	0	0	8171	749042	0	0
2024-04-29 17:48:32			0	34150	0	0	0	17701	16400	151546	27814	959694	38223	106430	0	0	8170	749444	0	0
2024-04-29 17:49:32			0	34162	0	0	0	17698	16390	151502	28006	959659	38211	106429	0	0	8171	748895	0	0
2024-04-29 17:50:32			0	34154	0	0	0	17703	16380	151586	27914	959643	38221	106431	0	0	8170	749329	0	0
2024-04-29 17:51:32			0	34139	0	0	0	17706	16390	151650	27642	959633	38223	106432	0	0	8170	750026	0	0
2024-04-29 17:52:32			0	34144	0	0	0	17698	16380	151558	27345	959669	38221	106429	0	0	8170	749820	0	0
2024-04-29 17:53:32			0	34126	0	0	0	17698	16380	151626	27566	959643	38221	106429	0	0	8169	750706	0	0
2024-04-29 17:54:32			0	34124	0	0	0	17703	16380	151642	27677	959608	38220	106431	0	0	8169	750804	0	0
2024-04-29 17:55:32			0	34120	0	0	0	17683	16370	151614	27729	959574	38220	106423	0	0	8169	751042	0	0
2024-04-29 17:56:32			0	34135	0	0	0	17675	16370	151710	27495	959600	38209	106420	0	0	8170	750304	0	0
2024-04-29 17:57:32			0	34116	0	0	0	17680	16380	151838	27810	959556	38220	106422	0	0	8169	751198	0	0
2024-04-29 17:58:32			0	34114	0	0	0	17690	16370	151706	27670	959574	38209	106426	0	0	8168	751337	0	0
2024-04-29 17:59:32			0	34148	0	0	0	17672	16370	151598	27478	959574	38231	106419	0	0	8171	749664	0	0
2024-04-29 18:00:32			0	34147	0	0	0	17675	16360	151522	27403	959557	38230	106420	0	0	8170	749754	0	0
2024-04-29 18:01:32			0	34158	0	0	0	17664	16370	151542	27592	959592	38231	106416	0	0	8171	749173	0	0
2024-04-29 18:02:32			0	34145	0	0	0	17672	16360	151514	28015	959549	38218	106419	0	0	8170	749852	0	0
2024-04-29 18:03:32			0	34158	0	0	0	17675	16350	151546	27897	959514	38230	106420	0	0	8171	749253	0	0
2024-04-29 18:04:32			0	34145	0	0	0	17667	16370	151530	27847	959565	38220	106417	0	0	8170	749812	0	0
2024-04-29 18:05:32			0	34150	0	0	0	17667	16360	151538	27627	959470	38218	106417	0	0	8171	749606	0	0
2024-04-29 18:06:32			0	34145	0	0	0	17670	16360	151606	27332	959523	38218	106418	0	0	8170	749852	0	0
2024-04-29 18:07:32			0	34157	0	0	0	17670	16360	151538	27824	959504	38230	106418	0	0	8171	749262	0	0
2024-04-29 18:08:32			0	34167	0	0	0	17659	16350	151406	27460	959567	38208	106414	0	0	8172	748811	0	0
2024-04-29 18:09:32			0	34185	0	0	0	17636	16360	151474	27531	959470	38218	106405	0	0	8173	747887	0	0
2024-04-29 18:10:32			0	34213	0	0	0	17638	16350	151290	27364	959427	38230	106406	0	0	8175	746554	0	0
2024-04-29 18:11:32			0	34239	0	0	0	17631	16350	151246	27561	959480	38218	106403	0	0	8176	745281	0	0
2024-04-29 18:12:32			0	34239	0	0	0	17633	16340	151214	27677	959464	38207	106404	0	0	8176	745322	0	0
2024-04-29 18:13:32			0	34248	0	0	0	17636	16340	151090	27696	959393	38229	106405	0	0	8177	744881	0	0
2024-04-29 18:14:32			0	34257	0	0	0	17625	16330	150970	27614	959429	38217	106401	0	0	8177	744481	0	0
2024-04-29 18:15:32			0	34264	0	0	0	17625	16350	151014	27518	959427	38208	106401	0	0	8178	744058	0	0
2024-04-29 18:16:32			0	34298	0	0	0	17662	16330	150874	27685	959508	38217	106415	0	0	8179	742478	0	0
2024-04-29 18:17:32			0	34310	0	0	0	17706	16340	150890	27549	959595	38250	106432	0	0	8179	741853	0	0
2024-04-29 18:18:32			0	34327	0	0	0	17716	16360	150726	28157	959602	38241	106436	0	0	8180	740944	0	0
2024-04-29 18:19:32			0	34352	0	0	0	17719	16370	150642	27313	959671	38242	106437	0	0	8181	739687	0	0
2024-04-29 18:20:32			0	34347	0	0	0	17698	16380	150658	27642	959669	38243	106429	0	0	8182	739890	0	0
2024-04-29 18:21:32			0	34338	0	0	0	17685	16370	150762	27561	959644	38242	106424	0	0	8181	740368	0	0
2024-04-29 18:22:32			0	34331	0	0	0	17690	16380	150690	27559	959661	38220	106426	0	0	8181	740669	0	0
2024-04-29 18:23:32			0	34311	0	0	0	17680	16380	150718	27809	959714	38231	106422	0	0	8180	741644	0	0
2024-04-29 18:24:32			0	34332	0	0	0	17667	16380	150642	27684	959661	38242	106417	0	0	8181	740620	0	0
2024-04-29 18:25:32			0	34316	0	0	0	17664	16370	150790	28058	959600	38231	106416	0	0	8180	741440	0	0
2024-04-29 18:26:32			0	34310	0	0	0	17670	16380	150850	27597	959635	38231	106418	0	0	8180	741692	0	0
2024-04-29 18:27:32			0	34312	0	0	0	17670	16380	150814	27732	959669	38232	106418	0	0	8180	741595	0	0
2024-04-29 18:28:32			0	34298	0	0	0	17657	16390	150858	27614	959598	38222	106413	0	0	8179	742237	0	0
2024-04-29 18:29:32			0	34294	0	0	0	17646	16380	150878	27601	959608	38231	106409	0	0	8179	742473	0	0
2024-04-29 18:30:32			0	34286	0	0	0	17657	16380	150926	27562	959564	38232	106413	0	0	8179	742863	0	0
2024-04-29 18:31:32			0	34268	0	0	0	17654	16360	150962	27348	959610	38219	106412	0	0	8178	743823	0	0
2024-04-29 18:32:32			0	34277	0	0	0	17667	16370	150946	27608	959574	38231	106417	0	0	8178	743343	0	0
2024-04-29 18:33:32			0	34246	0	0	0	17716	16370	151058	27310	959600	38220	106436	0	0	8175	744858	0	0
2024-04-29 18:34:32			0	34270	0	0	0	17729	16380	151114	27312	959635	38209	106441	0	0	8177	743645	0	0
2024-04-29 18:35:32			0	34245	0	0	0	17706	16380	151138	27313	959722	38232	106432	0	0	8176	744867	0	0
2024-04-29 18:36:32			0	34226	0	0	0	17683	16380	151010	27178	959669	38221	106423	0	0	8175	745797	0	0
2024-04-29 18:37:32			0	34252	0	0	0	17646	16390	151090	27635	959625	38222	106409	0	0	8177	744484	0	0
2024-04-29 18:38:32			0	34238	0	0	0	17638	16380	151158	27326	959582	38209	106406	0	0	8176	745209	0	0
2024-04-29 18:39:32			0	34204	0	0	0	17646	16370	151194	27429	959539	38231	106409	0	0	8174	746915	0	0
2024-04-29 18:40:32			0	34200	0	0	0	17625	16370	151174	27433	959539	38209	106401	0	0	8174	747111	0	0
2024-04-29 18:41:32			0	34195	0	0	0	17631	16360	151302	27358	959470	38218	106403	0	0	8174	747397	0	0
2024-04-29 18:42:32			0	34197	0	0	0	17654	16350	151186	27331	959533	38230	106412	0	0	8174	747339	0	0
2024-04-29 18:43:32			0	34177	0	0	0	17670	16360	151346	27559	959549	38241	106418	0	0	8172	748280	0	0
2024-04-29 18:44:32			0	34185	0	0	0	17670	16360	151354	27400	959531	38241	106418	0	0	8173	747887	0	0
2024-04-29 18:45:32			0	34167	0	0	0	17615	16360	151390	27211	959504	38208	106397	0	0	8173	748771	0	0
2024-04-29 18:46:32			0	34172	0	0	0	17540	16360	151366	27559	959496	38230	106368	0	0	8174	748525	0	0
2024-04-29 18:47:32			0	34168	0	0	0	17493	16340	151426	27748	959279	38207	106350	0	0	8175	748803	0	0
2024-04-29 18:48:32			0	34160	0	0	0	17498	16320	151354	27607	959228	38195	106352	0	0	8174	749277	0	0
2024-04-29 18:49:32			0	34164	0	0	0	17566	16310	151350	27684	959256	38193	106378	0	0	8173	749121	0	0
2024-04-29 18:50:32			0	34218	0	0	0	17574	16300	151286	27552	959240	38213	106381	0	0	8176	746511	0	0
2024-04-29 18:51:32			0	34241	0	0	0	17592	16290	151218	27403	959258	38212	106388	0	0	8177	745425	0	0
2024-04-29 18:52:32			0	34249	0	0	0	17594	16290	150970	27925	959258	38212	106389	0	0	8177	745033	0	0
2024-04-29 18:53:32			0	34290	0	0	0	17620	16300	150898	27533	959319	38203	106399	0	0	8179	742989	0	0
2024-04-29 18:54:32			0	34296	0	0	0	17615	16290	150910	27486	959337	38224	106397	0	0	8180	742736	0	0
2024-04-29 18:55:32			0	34318	0	0	0	17594	16300	150798	27609	959266	38213	106389	0	0	8181	741623	0	0
2024-04-29 18:56:32			0	34336	0	0	0	17574	16290	150750	27658	959232	38202	106381	0	0	8183	740786	0	0
2024-04-29 18:57:32			0	34325	0	0	0	17542	16280	150722	27679	959163	38212	106369	0	0	8182	741362	0	0
2024-04-29 18:58:32			0	34377	0	0	0	17537	16270	150611	27854	959147	38201	106367	0	0	8185	738871	0	0
2024-04-29 18:59:32			0	34390	0	0	0	17540	16270	150419	27324	959120	38211	106368	0	0	8186	738239	0	0
2024-04-29 19:00:32			0	34428	0	0	0	17511	16260	150343	27708	959096	38210	106357	0	0	8189	736434	0	0
2024-04-29 19:01:32			0	34439	0	0	0	17581	16260	150267	27559	959104	38201	106384	0	0	8188	735901	0	0
2024-04-29 19:02:32			0	34459	0	0	0	17587	16260	150255	27887	959130	38211	106386	0	0	8189	734932	0	0
2024-04-29 19:03:32			0	34471	0	0	0	17615	16260	150171	27665	959183	38222	106397	0	0	8189	734351	0	0
2024-04-29 19:04:32			0	34453	0	0	0	17605	16260	150167	27665	959201	38210	106393	0	0	8189	735222	0	0
2024-04-29 19:05:32			0	34438	0	0	0	17594	16260	150187	27583	959201	38221	106389	0	0	8188	735949	0	0
2024-04-29 19:06:32			0	34418	0	0	0	17597	16260	150363	27402	959236	38211	106390	0	0	8187	736919	0	0
2024-04-29 19:07:32			0	34406	0	0	0	17605	16260	150447	27611	959175	38200	106393	0	0	8186	737501	0	0
2024-04-29 19:08:32			0	34392	0	0	0	17625	16250	150615	27530	959193	38209	106401	0	0	8185	738221	0	0
2024-04-29 19:09:32			0	34371	0	0	0	17628	16260	150643	27274	959262	38222	106402	0	0	8184	739202	0	0
2024-04-29 19:10:32			0	34346	0	0	0	17636	16260	150622	27462	959183	38211	106405	0	0	8182	740419	0	0
2024-04-29 19:11:32			0	34341	0	0	0	17649	16260	150762	27694	959209	38222	106410	0	0	8181	740662	0	0
2024-04-29 19:12:32			0	34338	0	0	0	17641	16270	150786	27623	959244	38233	106407	0	0	8181	740768	0	0
2024-04-29 19:13:32			0	34317	0	0	0	17651	16270	150818	27396	959278	38222	106411	0	0	8180	741792	0	0
2024-04-29 19:14:32			0	34293	0	0	0	17672	16280	150854	27371	959286	38223	106419	0	0	8178	742923	0	0
2024-04-29 19:15:32			0	34301	0	0	0	17672	16270	150994	27722	959252	38211	106419	0	0	8179	742573	0	0
2024-04-29 19:16:32			0	34282	0	0	0	17644	16280	151114	27215	959268	38212	106408	0	0	8178	743460	0	0
2024-04-29 19:17:32			0	34274	0	0	0	17649	16280	151030	27685	959339	38234	106410	0	0	8178	743851	0	0
2024-04-29 19:18:32			0	34262	0	0	0	17623	16280	151110	27369	959295	38235	106400	0	0	8177	744438	0	0
2024-04-29 19:19:32			0	34273	0	0	0	17605	16280	151050	27580	959321	38212	106393	0	0	8178	743900	0	0
2024-04-29 19:20:32			0	34259	0	0	0	17592	16280	151110	27280	959216	38212	106388	0	0	8178	744584	0	0
2024-04-29 19:21:32			0	34263	0	0	0	17581	16270	151138	27698	959199	38222	106384	0	0	8178	744429	0	0
2024-04-29 19:22:32			0	34280	0	0	0	17602	16280	151066	27519	959216	38224	106392	0	0	8179	743558	0	0
2024-04-29 19:23:32			0	34282	0	0	0	17599	16270	151066	27805	959252	38222	106391	0	0	8179	743500	0	0
2024-04-29 19:24:32			0	34311	0	0	0	17594	16270	151030	27308	959278	38211	106389	0	0	8181	742085	0	0
2024-04-29 19:25:32			0	34326	0	0	0	17574	16270	150830	27668	959217	38233	106381	0	0	8182	741353	0	0
2024-04-29 19:26:32			0	34359	0	0	0	17576	16270	150723	27429	959120	38222	106382	0	0	8184	739746	0	0
2024-04-29 19:27:32			0	34371	0	0	0	17584	16260	150651	27493	959157	38222	106385	0	0	8184	739202	0	0
2024-04-29 19:28:32			0	34392	0	0	0	17584	16270	150451	27358	959165	38222	106385	0	0	8186	738142	0	0
2024-04-29 19:29:32			0	34429	0	0	0	17537	16260	150567	27168	959104	38222	106367	0	0	8188	736386	0	0
2024-04-29 19:30:32			0	34431	0	0	0	17553	16250	150447	27270	959061	38209	106373	0	0	8188	736328	0	0
2024-04-29 19:31:32			0	34427	0	0	0	17561	16260	150411	27324	959069	38210	106376	0	0	8188	736483	0	0
2024-04-29 19:32:32			0	34445	0	0	0	17566	16250	150375	27244	959079	38208	106378	0	0	8189	735650	0	0
2024-04-29 19:33:32			0	34450	0	0	0	17555	16240	150371	27523	959097	38208	106374	0	0	8189	735447	0	0
2024-04-29 19:34:32			0	34457	0	0	0	17550	16250	150275	27374	959088	38209	106372	0	0	8190	735068	0	0
2024-04-29 19:35:32			0	34471	0	0	0	17535	16250	150247	27353	959079	38219	106366	0	0	8191	734391	0	0
2024-04-29 19:36:32			0	34486	0	0	0	17540	16240	150299	27687	959010	38208	106368	0	0	8191	733705	0	0
2024-04-29 19:37:32			0	34502	0	0	0	17555	16230	150215	27616	959046	38208	106374	0	0	8192	732971	0	0
2024-04-29 19:38:32			0	34493	0	0	0	17558	16220	150155	27625	958951	38196	106375	0	0	8191	733446	0	0
2024-04-29 19:39:32			0	34507	0	0	0	17529	16210	150119	27831	958969	38217	106364	0	0	8193	732809	0	0
2024-04-29 19:40:32			0	34506	0	0	0	17501	16220	150135	27417	958925	38208	106353	0	0	8193	732817	0	0
2024-04-29 19:41:32			0	34520	0	0	0	17493	16220	149959	27894	958925	38208	106350	0	0	8194	732141	0	0
2024-04-29 19:42:32			0	34519	0	0	0	17511	16210	150023	27540	958961	38195	106357	0	0	8194	732229	0	0
2024-04-29 19:43:32			0	34532	0	0	0	17519	16210	150099	27630	958890	38207	106360	0	0	8194	731601	0	0
2024-04-29 19:44:32			0	34525	0	0	0	17516	16200	149971	27376	958900	38206	106359	0	0	8194	731979	0	0
2024-04-29 19:45:32			0	34535	0	0	0	17511	16200	149955	27838	958839	38216	106357	0	0	8195	731496	0	0
2024-04-29 19:46:32			0	34543	0	0	0	17506	16190	149975	27377	958857	38194	106355	0	0	8195	731150	0	0
2024-04-29 19:47:32			0	34563	0	0	0	17509	16180	149863	27253	958841	38214	106356	0	0	8196	730225	0	0
2024-04-29 19:48:32			0	34581	0	0	0	17501	16180	149767	27519	958867	38204	106353	0	0	8197	729358	0	0
2024-04-29 19:49:32			0	34615	0	0	0	17501	16180	149759	27692	958780	38213	106353	0	0	8199	727723	0	0
2024-04-29 19:50:32			0	34621	0	0	0	17506	16190	149695	27267	958823	38204	106355	0	0	8200	727396	0	0
2024-04-29 19:51:32			0	34620	0	0	0	17506	16190	149715	27821	958797	38193	106355	0	0	8199	727443	0	0
2024-04-29 19:52:32			0	34628	0	0	0	17498	16180	149631	27509	958841	38204	106352	0	0	8200	727099	0	0
2024-04-29 19:53:32			0	34617	0	0	0	17511	16180	149683	27457	958754	38203	106357	0	0	8199	727627	0	0
2024-04-29 19:54:32			0	34612	0	0	0	17509	16180	149635	27329	958833	38203	106356	0	0	8199	727867	0	0
2024-04-29 19:55:32			0	34637	0	0	0	17490	16170	149599	27433	958825	38203	106349	0	0	8201	726705	0	0
2024-04-29 19:56:32			0	34630	0	0	0	17480	16170	149575	27569	958798	38225	106345	0	0	8200	727042	0	0
2024-04-29 19:57:32			0	34636	0	0	0	17462	16190	149599	27505	958823	38193	106338	0	0	8201	726675	0	0
2024-04-29 19:58:32			0	34643	0	0	0	17464	16180	149579	27739	958833	38203	106339	0	0	8201	726378	0	0
2024-04-29 19:59:32			0	34617	0	0	0	17475	16170	149615	27724	958772	38203	106343	0	0	8200	727666	0	0
2024-04-29 20:00:32			0	34603	0	0	0	17480	16170	149731	27348	958772	38213	106345	0	0	8199	728339	0	0
2024-04-29 20:01:32			0	34600	0	0	0	17516	16170	149815	27414	958772	38203	106359	0	0	8198	728483	0	0
2024-04-29 20:02:32			0	34579	0	0	0	17566	16160	149931	27630	958861	38223	106378	0	0	8196	729533	0	0
2024-04-29 20:03:32			0	34556	0	0	0	17527	16170	149923	27703	958851	38213	106363	0	0	8195	730602	0	0
2024-04-29 20:04:32			0	34575	0	0	0	17532	16190	149939	27550	958876	38204	106365	0	0	8196	729608	0	0
2024-04-29 20:05:32			0	34544	0	0	0	17509	16180	150031	27831	958867	38214	106356	0	0	8195	731141	0	0
2024-04-29 20:06:32			0	34553	0	0	0	17488	16180	150031	27376	958807	38203	106348	0	0	8196	730707	0	0
2024-04-29 20:07:32			0	34524	0	0	0	17490	16180	150123	27646	958807	38203	106349	0	0	8194	732106	0	0
2024-04-29 20:08:32			0	34505	0	0	0	17503	16180	150035	27426	958807	38203	106354	0	0	8193	733024	0	0
2024-04-29 20:09:32			0	34500	0	0	0	17522	16170	150167	27407	958851	38192	106361	0	0	8192	733305	0	0
2024-04-29 20:10:32			0	34479	0	0	0	17553	16180	150331	27414	958912	38203	106373	0	0	8191	734281	0	0
2024-04-29 20:11:32			0	34481	0	0	0	17558	16180	150291	27821	958894	38204	106375	0	0	8191	734184	0	0
2024-04-29 20:12:32			0	34485	0	0	0	17545	16180	150339	27575	958912	38213	106370	0	0	8191	733991	0	0
2024-04-29 20:13:32			0	34455	0	0	0	17558	16180	150299	27703	958920	38204	106375	0	0	8189	735443	0	0
2024-04-29 20:14:32			0	34484	0	0	0	17574	16180	150363	27706	958920	38204	106381	0	0	8191	734039	0	0
2024-04-29 20:15:32			0	34465	0	0	0	17563	16180	150467	27369	958920	38225	106377	0	0	8190	734959	0	0
2024-04-29 20:16:32			0	34478	0	0	0	17558	16190	150395	27637	958937	38194	106375	0	0	8191	734290	0	0
2024-04-29 20:17:32			0	34469	0	0	0	17561	16200	150415	27412	958945	38216	106376	0	0	8190	734686	0	0
2024-04-29 20:18:32			0	34442	0	0	0	17537	16190	150419	27533	958876	38225	106367	0	0	8189	736033	0	0
2024-04-29 20:19:32			0	34424	0	0	0	17542	16190	150447	27357	958910	38205	106369	0	0	8188	736907	0	0
2024-04-29 20:20:32			0	34424	0	0	0	17532	16190	150539	27324	958876	38204	106365	0	0	8188	736907	0	0
2024-04-29 20:21:32			0	34417	0	0	0	17537	16190	150627	27576	958910	38226	106367	0	0	8187	737246	0	0
2024-04-29 20:22:32			0	34423	0	0	0	17542	16180	150735	27371	958894	38204	106369	0	0	8188	736995	0	0
2024-04-29 20:23:32			0	34398	0	0	0	17532	16180	150655	27313	958841	38214	106365	0	0	8186	738209	0	0
2024-04-29 20:24:32			0	34396	0	0	0	17532	16180	150643	27559	958807	38213	106365	0	0	8186	738306	0	0
2024-04-29 20:25:32			0	34389	0	0	0	17519	16180	150723	27627	958867	38214	106360	0	0	8186	738646	0	0
2024-04-29 20:26:32			0	34380	0	0	0	17511	16180	150727	27564	958841	38204	106357	0	0	8186	739084	0	0
2024-04-29 20:27:32			0	34387	0	0	0	17516	16180	150771	27618	958867	38204	106359	0	0	8186	738743	0	0
2024-04-29 20:28:32			0	34366	0	0	0	17524	16180	150815	27734	958859	38213	106362	0	0	8185	739765	0	0
2024-04-29 20:29:32			0	34372	0	0	0	17584	16170	150847	27613	958904	38203	106385	0	0	8184	739513	0	0
2024-04-29 20:30:32			0	34356	0	0	0	17610	16180	150919	27611	958973	38214	106395	0	0	8183	740252	0	0
2024-04-29 20:31:32			0	34346	0	0	0	17612	16190	150942	27623	958989	38226	106396	0	0	8182	740699	0	0
2024-04-29 20:32:32			0	34335	0	0	0	17615	16200	150954	27505	959024	38216	106397	0	0	8181	741195	0	0
2024-04-29 20:33:32			0	34336	0	0	0	17615	16200	151026	27585	959006	38227	106397	0	0	8181	741146	0	0
2024-04-29 20:34:32			0	34319	0	0	0	17615	16210	151030	27348	959022	38217	106397	0	0	8181	741935	0	0
2024-04-29 20:35:32			0	34321	0	0	0	17612	16210	150998	27348	959048	38207	106396	0	0	8181	741837	0	0
2024-04-29 20:36:32			0	34310	0	0	0	17612	16210	151054	27772	958996	38228	106396	0	0	8180	742374	0	0
2024-04-29 20:37:32			0	34311	0	0	0	17597	16210	151038	27809	959014	38227	106390	0	0	8180	742325	0	0
2024-04-29 20:38:32			0	34320	0	0	0	17589	16210	150954	27545	959075	38228	106387	0	0	8181	741886	0	0
2024-04-29 20:39:32			0	34315	0	0	0	17576	16220	151058	27419	959004	38229	106382	0	0	8181	742090	0	0
2024-04-29 20:40:32			0	34318	0	0	0	17568	16210	151058	27306	959022	38217	106379	0	0	8181	741984	0	0
2024-04-29 20:41:32			0	34301	0	0	0	17561	16200	151094	27393	958945	38216	106376	0	0	8180	742854	0	0
2024-04-29 20:42:32			0	34302	0	0	0	17550	16210	151034	27409	958908	38206	106372	0	0	8181	742765	0	0
2024-04-29 20:43:32			0	34311	0	0	0	17558	16200	150994	27727	958953	38227	106375	0	0	8181	742365	0	0
2024-04-29 20:44:32			0	34291	0	0	0	17527	16190	151130	27668	958937	38205	106363	0	0	8180	743382	0	0
2024-04-29 20:45:32			0	34308	0	0	0	17524	16200	151154	27800	958900	38206	106362	0	0	8181	742512	0	0
2024-04-29 20:46:32			0	34284	0	0	0	17506	16190	151162	27739	958857	38205	106355	0	0	8180	743724	0	0
2024-04-29 20:47:32			0	34296	0	0	0	17493	16180	151062	27409	958867	38204	106350	0	0	8181	743178	0	0
2024-04-29 20:48:32			0	34304	0	0	0	17511	16170	151114	27367	958798	38213	106357	0	0	8181	742827	0	0
2024-04-29 20:49:32			0	34292	0	0	0	17488	16180	151198	27784	958780	38225	106348	0	0	8181	743373	0	0
2024-04-29 20:50:32			0	34297	0	0	0	17501	16170	151182	27497	958817	38224	106353	0	0	8181	743169	0	0
2024-04-29 20:51:32			0	34277	0	0	0	17490	16170	151206	27585	958772	38213	106349	0	0	8180	744147	0	0
2024-04-29 20:52:32			0	34290	0	0	0	17480	16170	151206	27473	958817	38202	106345	0	0	8181	743511	0	0
2024-04-29 20:53:32			0	34293	0	0	0	17472	16170	151182	27616	958738	38224	106342	0	0	8181	743365	0	0
2024-04-29 20:54:32			0	34288	0	0	0	17470	16160	151162	27935	958729	38212	106341	0	0	8181	743649	0	0
2024-04-29 20:55:32			0	34283	0	0	0	17488	16150	151254	27308	958739	38191	106348	0	0	8180	743934	0	0
2024-04-29 20:56:32			0	34283	0	0	0	17493	16140	151226	27374	958731	38211	106350	0	0	8180	743974	0	0
2024-04-29 20:57:32			0	34258	0	0	0	17485	16140	151254	27291	958784	38211	106347	0	0	8179	745197	0	0
2024-04-29 20:58:32			0	34266	0	0	0	17477	16140	151294	27312	958758	38211	106344	0	0	8180	744805	0	0
2024-04-29 20:59:32			0	34248	0	0	0	17462	16150	151330	27407	958721	38202	106338	0	0	8179	745646	0	0
2024-04-29 21:00:32			0	34255	0	0	0	17449	16140	151290	27265	958731	38211	106333	0	0	8179	745343	0	0
2024-04-29 21:01:32			0	34226	0	0	0	17449	16140	151346	27746	958618	38200	106333	0	0	8178	746764	0	0
2024-04-29 21:02:32			0	34236	0	0	0	17454	16130	151342	27360	958610	38189	106335	0	0	8178	746314	0	0
2024-04-29 21:03:32			0	34236	0	0	0	17438	16130	151394	27239	958610	38210	106329	0	0	8178	746314	0	0
2024-04-29 21:04:32			0	34212	0	0	0	17451	16120	151498	27267	958593	38209	106334	0	0	8177	747531	0	0
2024-04-29 21:05:32			0	34210	0	0	0	17446	16130	151558	27235	958549	38199	106332	0	0	8177	747589	0	0
2024-04-29 21:06:32			0	34200	0	0	0	17431	16110	151542	27566	958550	38198	106326	0	0	8176	748161	0	0
2024-04-29 21:07:32			0	34203	0	0	0	17428	16100	151578	27460	958534	38208	106325	0	0	8177	748054	0	0
2024-04-29 21:08:32			0	34198	0	0	0	17423	16100	151582	27298	958534	38186	106323	0	0	8176	748300	0	0
2024-04-29 21:09:32			0	34173	0	0	0	17410	16090	151698	27260	958412	38208	106318	0	0	8175	749569	0	0
2024-04-29 21:10:32			0	34184	0	0	0	17405	16100	151670	27315	958534	38208	106316	0	0	8176	748988	0	0
2024-04-29 21:11:32			0	34165	0	0	0	17402	16080	151702	27324	958396	38196	106315	0	0	8175	750003	0	0
2024-04-29 21:12:32			0	34157	0	0	0	17412	16070	151738	27504	958432	38195	106319	0	0	8174	750437	0	0
2024-04-29 21:13:32			0	34153	0	0	0	17407	16070	151722	27614	958371	38205	106317	0	0	8174	750634	0	0
2024-04-29 21:14:32			0	34148	0	0	0	17399	16070	151874	27493	958353	38195	106314	0	0	8174	750880	0	0
2024-04-29 21:15:32			0	34148	0	0	0	17384	16060	151942	27312	958363	38182	106308	0	0	8174	750920	0	0
2024-04-29 21:16:32			0	34131	0	0	0	17386	16050	151934	27369	958286	38192	106309	0	0	8173	751799	0	0
2024-04-29 21:17:32			0	34117	0	0	0	17379	16060	151938	27121	958302	38193	106306	0	0	8172	752448	0	0
2024-04-29 21:18:32			0	34092	0	0	0	17381	16050	152090	27372	958321	38192	106307	0	0	8171	753723	0	0
2024-04-29 21:19:32			0	34092	0	0	0	17379	16050	152190	27543	958260	38203	106306	0	0	8171	753723	0	0
2024-04-29 21:20:32			0	34079	0	0	0	17381	16040	152270	27691	958278	38213	106307	0	0	8170	754406	0	0
2024-04-29 21:21:32			0	34073	0	0	0	17379	16040	152242	27440	958225	38192	106306	0	0	8170	754702	0	0
2024-04-29 21:22:32			0	34044	0	0	0	17366	16040	152278	27407	958252	38180	106301	0	0	8168	756138	0	0
2024-04-29 21:23:32			0	34054	0	0	0	17371	16020	152170	27743	958272	38201	106303	0	0	8169	755724	0	0
2024-04-29 21:24:32			0	34071	0	0	0	17374	16020	152262	27215	958245	38190	106304	0	0	8169	754883	0	0
2024-04-29 21:25:32			0	34041	0	0	0	17374	16030	152326	27505	958253	38191	106304	0	0	8168	756327	0	0
2024-04-29 21:26:32			0	34044	0	0	0	17366	16020	152354	27644	958184	38190	106301	0	0	8168	756219	0	0
2024-04-29 21:27:32			0	34036	0	0	0	17358	16030	152454	27796	958174	38191	106298	0	0	8168	756575	0	0
2024-04-29 21:28:32			0	34029	0	0	0	17361	16010	152542	27400	958203	38178	106299	0	0	8167	757003	0	0
2024-04-29 21:29:32			0	34023	0	0	0	17345	16010	152466	27327	958176	38178	106293	0	0	8167	757300	0	0
2024-04-29 21:30:32			0	34017	0	0	0	17348	16010	152498	27673	958168	38200	106294	0	0	8167	757598	0	0
2024-04-29 21:31:32			0	33994	0	0	0	17350	16020	152514	27542	958193	38179	106295	0	0	8165	758698	0	0
2024-04-29 21:32:32			0	34003	0	0	0	17345	16010	152622	27659	958142	38178	106293	0	0	8166	758293	0	0
2024-04-29 21:33:32			0	33994	0	0	0	17342	16000	152654	27765	958160	38199	106292	0	0	8165	758780	0	0
2024-04-29 21:34:32			0	33997	0	0	0	17345	16010	152590	27398	958142	38200	106293	0	0	8166	758590	0	0
2024-04-29 21:35:32			0	33992	0	0	0	17345	16000	152634	27473	958046	38209	106293	0	0	8165	758879	0	0
2024-04-29 21:36:32			0	33982	0	0	0	17335	16000	152666	27497	958107	38188	106289	0	0	8165	759376	0	0
2024-04-29 21:37:32			0	33975	0	0	0	17337	16000	152774	27485	958020	38198	106290	0	0	8164	759724	0	0
2024-04-29 21:38:32			0	33976	0	0	0	17342	15990	152714	27621	958083	38187	106292	0	0	8164	759715	0	0
2024-04-29 21:39:32			0	33979	0	0	0	17345	16000	152662	27384	958099	38187	106293	0	0	8165	759525	0	0
2024-04-29 21:40:32			0	33964	0	0	0	17350	15980	152614	27448	958101	38175	106295	0	0	8163	760353	0	0
2024-04-29 21:41:32			0	33977	0	0	0	17337	15990	152806	27763	958117	38187	106290	0	0	8164	759666	0	0
2024-04-29 21:42:32			0	33973	0	0	0	17335	15990	152834	27426	958030	38187	106289	0	0	8164	759865	0	0
2024-04-29 21:43:32			0	33964	0	0	0	17332	15990	152766	27280	958109	38176	106288	0	0	8164	760312	0	0
2024-04-29 21:44:32			0	33956	0	0	0	17322	15990	152754	27331	958091	38187	106284	0	0	8164	760710	0	0
2024-04-29 21:45:32			0	33978	0	0	0	17327	15980	152774	27528	958066	38175	106286	0	0	8165	759657	0	0
2024-04-29 21:46:32			0	33962	0	0	0	17324	15980	152866	27614	958040	38197	106285	0	0	8164	760452	0	0
2024-04-29 21:47:32			0	33962	0	0	0	17329	15980	152826	27398	958074	38187	106287	0	0	8164	760452	0	0
2024-04-29 21:48:32			0	33955	0	0	0	17340	15980	152778	27666	958074	38198	106291	0	0	8163	760801	0	0
2024-04-29 21:49:32			0	33977	0	0	0	17381	15980	152770	27416	958119	38186	106307	0	0	8164	759707	0	0
2024-04-29 21:50:32			0	33957	0	0	0	17745	15990	152730	27326	958380	38220	106447	0	0	8156	760660	0	0
2024-04-29 21:51:32			0	33973	0	0	0	17812	16040	153058	27329	958823	38246	106473	0	0	8156	759660	0	0
2024-04-29 21:52:32			0	33974	0	0	0	17535	16100	152906	27755	959087	38251	106366	0	0	8161	759364	0	0
2024-04-29 21:53:32			0	34003	0	0	0	17493	16130	152782	27350	959031	38243	106350	0	0	8164	757802	0	0
2024-04-29 21:54:32			0	34002	0	0	0	17659	16150	152642	27421	959056	38223	106414	0	0	8161	757769	0	0
2024-04-29 21:55:32			0	33990	0	0	0	17755	16170	152750	27821	959159	38235	106451	0	0	8159	758283	0	0
2024-04-29 21:56:32			0	33977	0	0	0	17854	16190	152734	27621	959376	38248	106489	0	0	8157	758846	0	0
2024-04-29 21:57:32			0	33987	0	0	0	17844	16230	152726	27715	959521	38250	106485	0	0	8158	758186	0	0
2024-04-29 21:58:32			0	34003	0	0	0	17818	16260	152782	27492	959578	38265	106475	0	0	8159	757270	0	0
2024-04-29 21:59:32			0	33988	0	0	0	17719	16280	152642	27590	959637	38256	106437	0	0	8160	757932	0	0
2024-04-29 22:00:32			0	34019	0	0	0	17641	16300	152546	27604	959538	38236	106407	0	0	8163	756314	0	0
2024-04-29 22:01:32			0	34010	0	0	0	17727	16300	152570	27951	959538	38236	106440	0	0	8161	756759	0	0
2024-04-29 22:02:32			0	33982	0	0	0	17774	16300	152534	27561	959617	38214	106458	0	0	8159	758147	0	0
2024-04-29 22:03:32			0	33988	0	0	0	17638	16310	152630	27646	959652	38258	106406	0	0	8162	757809	0	0
2024-04-29 22:04:32			0	34003	0	0	0	17493	16320	152454	27569	959510	38226	106350	0	0	8165	757024	0	0
2024-04-29 22:05:32			0	34006	0	0	0	17454	16300	152366	27275	959240	38213	106335	0	0	8166	756957	0	0
2024-04-29 22:06:32			0	33987	0	0	0	17423	16280	152338	27523	959102	38202	106323	0	0	8165	757981	0	0
2024-04-29 22:07:32			0	34000	0	0	0	17420	16260	152386	27334	959017	38178	106322	0	0	8166	757418	0	0
2024-04-29 22:08:32			0	33987	0	0	0	17394	16240	152474	27249	958913	38198	106312	0	0	8165	758145	0	0
2024-04-29 22:09:32			0	34000	0	0	0	17394	16220	152418	27272	958827	38218	106312	0	0	8166	757582	0	0
2024-04-29 22:10:32			0	34004	0	0	0	17381	16200	152410	27222	958795	38206	106307	0	0	8166	757466	0	0
2024-04-29 22:11:32			0	34009	0	0	0	17350	16180	152326	27313	958622	38192	106295	0	0	8167	757300	0	0
2024-04-29 22:12:32			0	33999	0	0	0	17329	16170	152462	27364	958527	38191	106287	0	0	8167	757836	0	0
2024-04-29 22:13:32			0	33987	0	0	0	17327	16140	152542	27412	958520	38190	106286	0	0	8166	758555	0	0
2024-04-29 22:14:32			0	33983	0	0	0	17348	16130	152390	27244	958504	38200	106294	0	0	8165	758794	0	0
2024-04-29 22:15:32			0	33980	0	0	0	17363	16120	152554	27464	958461	38188	106300	0	0	8165	758984	0	0
2024-04-29 22:16:32			0	33998	0	0	0	17374	16120	152618	27258	958506	38176	106304	0	0	8166	758090	0	0
2024-04-29 22:17:32			0	34002	0	0	0	17384	16110	152626	27509	958498	38187	106308	0	0	8166	757933	0	0
2024-04-29 22:18:32			0	33987	0	0	0	17353	16100	152610	27460	958473	38186	106296	0	0	8165	758718	0	0
2024-04-29 22:19:32			0	33987	0	0	0	17340	16100	152518	27614	958420	38197	106291	0	0	8166	758718	0	0
2024-04-29 22:20:32			0	33994	0	0	0	17342	16080	152606	27306	958335	38195	106292	0	0	8166	758453	0	0
2024-04-29 22:21:32			0	33989	0	0	0	17376	16080	152690	27639	958414	38184	106305	0	0	8165	758701	0	0
2024-04-29 22:22:32			0	33983	0	0	0	17418	16080	152722	27194	958449	38185	106321	0	0	8164	758999	0	0
2024-04-29 22:23:32			0	33988	0	0	0	17428	16080	152578	27348	958440	38216	106325	0	0	8164	758751	0	0
2024-04-29 22:24:32			0	33982	0	0	0	17428	16080	152646	27237	958493	38184	106325	0	0	8164	759049	0	0
2024-04-29 22:25:32			0	33981	0	0	0	17402	16080	152670	27467	958467	38195	106315	0	0	8164	759098	0	0
2024-04-29 22:26:32			0	33990	0	0	0	17392	16080	152594	27504	958467	38184	106311	0	0	8165	758651	0	0
2024-04-29 22:27:32			0	33971	0	0	0	17397	16070	152674	27410	958424	38172	106313	0	0	8164	759636	0	0
2024-04-29 22:28:32			0	33972	0	0	0	17399	16070	152750	27364	958424	38183	106314	0	0	8164	759586	0	0
2024-04-29 22:29:32			0	33971	0	0	0	17399	16070	152682	27383	958398	38183	106314	0	0	8163	759636	0	0
2024-04-29 22:30:32			0	33969	0	0	0	17389	16060	152702	27540	958329	38193	106310	0	0	8163	759776	0	0
2024-04-29 22:31:32			0	33966	0	0	0	17386	16060	152650	27256	958363	38204	106309	0	0	8163	759926	0	0
2024-04-29 22:32:32			0	33971	0	0	0	17379	16060	152710	27161	958329	38193	106306	0	0	8164	759677	0	0
2024-04-29 22:33:32			0	33962	0	0	0	17374	16060	152838	27298	958381	38204	106304	0	0	8163	760124	0	0
2024-04-29 22:34:32			0	33943	0	0	0	17374	16050	152802	27469	958365	38192	106304	0	0	8162	761111	0	0
2024-04-29 22:35:32			0	33947	0	0	0	17358	16050	152874	27372	958347	38181	106298	0	0	8163	760912	0	0
2024-04-29 22:36:32			0	33920	0	0	0	17355	16050	152978	27502	958347	38203	106297	0	0	8161	762256	0	0
2024-04-29 22:37:32			0	33927	0	0	0	17353	16040	152914	27258	958322	38180	106296	0	0	8162	761949	0	0
2024-04-29 22:38:32			0	33924	0	0	0	17342	16030	152858	27383	958174	38180	106292	0	0	8162	762139	0	0
2024-04-29 22:39:32			0	33906	0	0	0	17329	16030	152978	27718	958280	38202	106287	0	0	8161	763037	0	0
2024-04-29 22:40:32			0	33895	0	0	0	17314	16020	152902	27362	958166	38190	106281	0	0	8160	763626	0	0
2024-04-29 22:41:32			0	33910	0	0	0	17311	16020	152866	27661	958184	38190	106280	0	0	8161	762878	0	0
2024-04-29 22:42:32			0	33924	0	0	0	17309	16010	152894	27369	958124	38189	106279	0	0	8162	762221	0	0
2024-04-29 22:43:32			0	33899	0	0	0	17311	16020	152986	27374	958184	38168	106280	0	0	8161	763427	0	0
2024-04-29 22:44:32			0	33900	0	0	0	17319	16000	153162	27331	958186	38177	106283	0	0	8160	763459	0	0
2024-04-29 22:45:32			0	33915	0	0	0	17345	16000	153062	27507	958213	38188	106293	0	0	8161	762711	0	0
2024-04-29 22:46:32			0	33910	0	0	0	17368	16010	153198	27606	958142	38189	106302	0	0	8160	762919	0	0
2024-04-29 22:47:32			0	33904	0	0	0	17361	16000	153138	27737	958239	38199	106299	0	0	8160	763260	0	0
2024-04-29 22:48:32			0	33906	0	0	0	17371	16010	153078	27563	958274	38189	106303	0	0	8160	763119	0	0
2024-04-29 22:49:32			0	33919	0	0	0	17381	16010	153114	27426	958255	38200	106307	0	0	8160	762471	0	0
2024-04-29 22:50:32			0	33925	0	0	0	17415	16030	153014	27327	958385	38191	106320	0	0	8160	762089	0	0
2024-04-29 22:51:32			0	33926	0	0	0	17418	16040	152930	27369	958410	38213	106321	0	0	8160	761998	0	0
2024-04-29 22:52:32			0	33941	0	0	0	17433	16030	152802	27353	958393	38212	106327	0	0	8161	761292	0	0
2024-04-29 22:53:32			0	33956	0	0	0	17433	16050	152818	27383	958426	38203	106327	0	0	8162	760464	0	0
2024-04-29 22:54:32			0	33971	0	0	0	17441	16050	152694	27521	958452	38203	106330	0	0	8163	759718	0	0
2024-04-29 22:55:32			0	33994	0	0	0	17498	16050	152710	27324	958505	38203	106352	0	0	8163	758576	0	0
2024-04-29 22:56:32			0	34040	0	0	0	17506	16070	152614	27367	958582	38205	106355	0	0	8166	756213	0	0
2024-04-29 22:57:32			0	34059	0	0	0	17522	16080	152434	27679	958572	38195	106361	0	0	8167	755232	0	0
2024-04-29 22:58:32			0	34073	0	0	0	17498	16090	152302	27379	958562	38207	106352	0	0	8168	754499	0	0
2024-04-29 22:59:32			0	34075	0	0	0	17496	16080	152278	27426	958633	38196	106351	0	0	8168	754441	0	0
2024-04-29 23:00:32			0	34077	0	0	0	17467	16090	152230	27355	958623	38218	106340	0	0	8169	754301	0	0
2024-04-29 23:01:32			0	34086	0	0	0	17454	16090	152290	27580	958615	38207	106335	0	0	8169	753857	0	0
2024-04-29 23:02:32			0	34078	0	0	0	17444	16090	152218	27535	958570	38208	106331	0	0	8169	754252	0	0
2024-04-29 23:03:32			0	34064	0	0	0	17405	16090	152218	27395	958668	38207	106316	0	0	8169	754944	0	0
2024-04-29 23:04:32			0	34045	0	0	0	17428	16090	152266	27620	958597	38197	106325	0	0	8167	755884	0	0
2024-04-29 23:05:32			0	34066	0	0	0	17446	16100	152270	27518	958631	38197	106332	0	0	8168	754804	0	0
2024-04-29 23:06:32			0	34040	0	0	0	17410	16100	152218	27372	958613	38208	106318	0	0	8167	756091	0	0
2024-04-29 23:07:32			0	34040	0	0	0	17371	16090	152302	27488	958544	38197	106303	0	0	8168	756131	0	0
2024-04-29 23:08:32			0	34055	0	0	0	17355	16090	152306	27374	958465	38197	106297	0	0	8169	755389	0	0
2024-04-29 23:09:32			0	34041	0	0	0	17340	16080	152370	27421	958388	38184	106291	0	0	8169	756123	0	0
2024-04-29 23:10:32			0	34034	0	0	0	17311	16070	152386	27592	958380	38206	106280	0	0	8169	756510	0	0
2024-04-29 23:11:32			0	34008	0	0	0	17301	16060	152386	27062	958363	38171	106276	0	0	8167	757840	0	0
2024-04-29 23:12:32			0	33992	0	0	0	17301	16050	152458	27346	958233	38192	106276	0	0	8166	758675	0	0
2024-04-29 23:13:32			0	34013	0	0	0	17306	16050	152518	27571	958286	38192	106278	0	0	8167	757633	0	0
2024-04-29 23:14:32			0	33996	0	0	0	17311	16040	152530	27540	958270	38180	106280	0	0	8166	758517	0	0
2024-04-29 23:15:32			0	33999	0	0	0	17322	16030	152622	27675	958235	38191	106284	0	0	8166	758409	0	0
2024-04-29 23:16:32			0	33995	0	0	0	17322	16030	152530	27315	958253	38202	106284	0	0	8166	758608	0	0
2024-04-29 23:17:32			0	34001	0	0	0	17316	16020	152622	27871	958245	38190	106282	0	0	8166	758351	0	0
2024-04-29 23:18:32			0	33984	0	0	0	17319	16020	152558	27417	958237	38190	106283	0	0	8165	759195	0	0
2024-04-29 23:19:32			0	33986	0	0	0	17298	16010	152586	27381	958124	38178	106275	0	0	8166	759137	0	0
2024-04-29 23:20:32			0	33990	0	0	0	17314	16010	152646	27573	958124	38189	106281	0	0	8166	758938	0	0
2024-04-29 23:21:32			0	33966	0	0	0	17319	16000	152606	27289	958160	38188	106283	0	0	8164	760172	0	0
2024-04-29 23:22:32			0	33995	0	0	0	17329	16000	152706	27396	958160	38177	106287	0	0	8166	758731	0	0
2024-04-29 23:23:32			0	33972	0	0	0	17329	16000	152666	27395	958186	38177	106287	0	0	8164	759873	0	0
2024-04-29 23:24:32			0	33974	0	0	0	17335	16000	152526	27265	958160	38188	106289	0	0	8164	759774	0	0
2024-04-29 23:25:32			0	33996	0	0	0	17348	16010	152706	27536	958221	38200	106294	0	0	8166	758640	0	0
2024-04-29 23:26:32			0	33977	0	0	0	17340	16000	152622	27651	958213	38188	106291	0	0	8164	759625	0	0
2024-04-29 23:27:32			0	33959	0	0	0	17342	16000	152698	27620	958204	38187	106292	0	0	8163	760520	0	0
2024-04-29 23:28:32			0	33954	0	0	0	17342	16000	152730	27454	958213	38199	106292	0	0	8163	760769	0	0
2024-04-29 23:29:32			0	33963	0	0	0	17340	15990	152698	27393	958170	38209	106291	0	0	8164	760362	0	0
2024-04-29 23:30:32			0	33943	0	0	0	17324	15990	152746	27291	958135	38187	106285	0	0	8163	761357	0	0
2024-04-29 23:31:32			0	33964	0	0	0	17311	16000	152766	27507	958151	38166	106280	0	0	8164	760271	0	0
2024-04-29 23:32:32			0	33973	0	0	0	17319	15990	152670	27601	958170	38187	106283	0	0	8165	759865	0	0
2024-04-29 23:33:32			0	33951	0	0	0	17303	16000	152674	27611	958151	38176	106277	0	0	8164	760918	0	0
2024-04-29 23:34:32			0	33952	0	0	0	17298	15990	152758	27504	958083	38176	106275	0	0	8164	760909	0	0
2024-04-29 23:35:32			0	33959	0	0	0	17293	15980	152706	27519	958074	38187	106273	0	0	8164	760602	0	0
2024-04-29 23:36:32			0	33952	0	0	0	17283	15980	152786	27485	958074	38175	106269	0	0	8164	760950	0	0
2024-04-29 23:37:32			0	33944	0	0	0	17280	15970	152842	27812	958032	38164	106268	0	0	8163	761389	0	0
2024-04-29 23:38:32			0	33936	0	0	0	17283	15970	152898	27479	958032	38175	106269	0	0	8163	761788	0	0
2024-04-29 23:39:32			0	33922	0	0	0	17280	15970	152922	27608	958050	38174	106268	0	0	8162	762485	0	0
2024-04-29 23:40:32			0	33934	0	0	0	17293	15960	152882	27737	958007	38184	106273	0	0	8163	761929	0	0
2024-04-29 23:41:32			0	33931	0	0	0	17314	15970	152866	27457	958050	38185	106281	0	0	8162	762037	0	0
2024-04-29 23:42:32			0	33929	0	0	0	17309	15970	152938	27320	958076	38185	106279	0	0	8162	762137	0	0
2024-04-29 23:43:32			0	33939	0	0	0	17296	15980	153034	27647	958093	38175	106274	0	0	8163	761597	0	0
2024-04-29 23:44:32			0	33927	0	0	0	17285	15970	152974	27289	958050	38174	106270	0	0	8162	762236	0	0
2024-04-29 23:45:32			0	33933	0	0	0	17290	15950	152886	27547	958025	38173	106272	0	0	8163	762020	0	0
2024-04-29 23:46:32			0	33910	0	0	0	17280	15960	153086	27455	957989	38185	106268	0	0	8161	763125	0	0
2024-04-29 23:47:32			0	33918	0	0	0	17262	15970	152938	27511	958050	38174	106261	0	0	8162	762685	0	0
2024-04-29 23:48:32			0	33916	0	0	0	17270	15960	153010	27249	957981	38184	106264	0	0	8162	762826	0	0
2024-04-29 23:49:32			0	33928	0	0	0	17262	15950	152986	27805	957920	38173	106261	0	0	8163	762269	0	0
2024-04-29 23:50:32			0	33933	0	0	0	17241	15930	152926	27279	957887	38170	106253	0	0	8163	762102	0	0
2024-04-29 23:51:32			0	33925	0	0	0	17244	15930	152830	27268	957861	38160	106254	0	0	8163	762501	0	0
2024-04-29 23:52:32			0	33957	0	0	0	17241	15930	152898	27526	957887	38170	106253	0	0	8165	760906	0	0
2024-04-29 23:53:32			0	33948	0	0	0	17233	15920	152878	27531	957845	38181	106250	0	0	8164	761395	0	0
2024-04-29 23:54:32			0	33976	0	0	0	17236	15920	152838	27488	957792	38170	106251	0	0	8166	760002	0	0
2024-04-29 23:55:32			0	33988	0	0	0	17228	15920	152702	27384	957818	38181	106248	0	0	8167	759406	0	0
2024-04-29 23:56:32			0	34002	0	0	0	17223	15910	152566	27126	957881	38169	106246	0	0	8168	758751	0	0
2024-04-29 23:57:32			0	34016	0	0	0	17215	15900	152674	27569	957786	38169	106243	0	0	8168	758097	0	0
2024-04-29 23:58:32			0	34013	0	0	0	17223	15900	152514	27717	957786	38169	106246	0	0	8168	758246	0	0
2024-04-29 23:59:32			0	34028	0	0	0	17220	15900	152466	27372	957786	38169	106245	0	0	8169	757502	0	0
2024-04-30 00:00:32			0	34038	0	0	0	17223	15900	152530	27734	957804	38168	106246	0	0	8170	757006	0	0
2024-04-30 00:01:32			0	34046	0	0	0	17228	15900	152442	27282	957786	38169	106248	0	0	8170	756609	0	0
2024-04-30 00:02:32			0	34058	0	0	0	17231	15890	152350	27235	957796	38167	106249	0	0	8171	756056	0	0
2024-04-30 00:03:32			0	34061	0	0	0	17238	15900	152382	27469	957725	38168	106252	0	0	8171	755867	0	0
2024-04-30 00:04:32			0	34058	0	0	0	17212	15880	152406	27436	957700	38178	106242	0	0	8171	756097	0	0
2024-04-30 00:05:32			0	34056	0	0	0	17218	15890	152406	27485	957709	38167	106244	0	0	8171	756155	0	0
2024-04-30 00:06:32			0	34065	0	0	0	17215	15880	152430	27582	957700	38167	106243	0	0	8171	755750	0	0
2024-04-30 00:07:32			0	34056	0	0	0	17199	15880	152350	27524	957700	38167	106237	0	0	8171	756196	0	0
2024-04-30 00:08:32			0	34055	0	0	0	17197	15880	152498	27246	957745	38177	106236	0	0	8171	756245	0	0
2024-04-30 00:09:32			0	34048	0	0	0	17187	15870	152434	28096	957684	38166	106232	0	0	8171	756633	0	0
2024-04-30 00:10:32			0	34050	0	0	0	17161	15860	152358	27840	957676	38154	106222	0	0	8171	756575	0	0
2024-04-30 00:11:32			0	34043	0	0	0	17161	15870	152382	27530	957605	38155	106222	0	0	8171	756881	0	0
2024-04-30 00:12:32			0	34055	0	0	0	17168	15860	152406	27339	957570	38154	106225	0	0	8171	756327	0	0
2024-04-30 00:13:32			0	34057	0	0	0	17145	15860	152458	27635	957615	38165	106216	0	0	8172	756228	0	0
2024-04-30 00:14:32			0	34067	0	0	0	17129	15840	152350	27364	957511	38153	106210	0	0	8173	755814	0	0
2024-04-30 00:15:32			0	34085	0	0	0	17124	15840	152258	27521	957590	38164	106208	0	0	8174	754923	0	0
2024-04-30 00:16:32			0	34106	0	0	0	17101	15840	152366	27512	957503	38164	106199	0	0	8175	753885	0	0
2024-04-30 00:17:32			0	34106	0	0	0	17109	15840	152190	27419	957477	38153	106202	0	0	8175	753885	0	0
2024-04-30 00:18:32			0	34111	0	0	0	17101	15830	152322	27739	957513	38163	106199	0	0	8176	753678	0	0
2024-04-30 00:19:32			0	34102	0	0	0	17098	15820	152314	27689	957505	38162	106198	0	0	8175	754164	0	0
2024-04-30 00:20:32			0	34111	0	0	0	17103	15820	152222	27848	957418	38151	106200	0	0	8175	753719	0	0
2024-04-30 00:21:32			0	34099	0	0	0	17093	15820	152134	27493	957479	38151	106196	0	0	8175	754312	0	0
2024-04-30 00:22:32			0	34103	0	0	0	17077	15820	152198	27518	957418	38140	106190	0	0	8175	754114	0	0
2024-04-30 00:23:32			0	34092	0	0	0	17064	15810	152138	27497	957436	38151	106185	0	0	8175	754699	0	0
2024-04-30 00:24:32			0	34103	0	0	0	17044	15800	152214	27301	957393	38149	106177	0	0	8176	754196	0	0
2024-04-30 00:25:32			0	34082	0	0	0	17057	15800	152222	27767	957359	38148	106182	0	0	8174	755234	0	0
2024-04-30 00:26:32			0	34094	0	0	0	17059	15790	152338	27286	957343	38137	106183	0	0	8175	754681	0	0
2024-04-30 00:27:32			0	34080	0	0	0	17051	15790	152294	27298	957325	38159	106180	0	0	8174	755374	0	0
2024-04-30 00:28:32			0	34052	0	0	0	17059	15790	152382	27307	957298	38170	106183	0	0	8173	756761	0	0
2024-04-30 00:29:32			0	34039	0	0	0	17088	15780	152590	27481	957256	38136	106194	0	0	8171	757446	0	0
2024-04-30 00:30:32			0	34013	0	0	0	17083	15780	152790	27324	957335	38148	106192	0	0	8170	758737	0	0
2024-04-30 00:31:32			0	33971	0	0	0	17080	15780	152770	27457	957282	38136	106191	0	0	8168	760825	0	0
2024-04-30 00:32:32			0	33944	0	0	0	17059	15780	152878	27431	957274	38158	106183	0	0	8166	762170	0	0
2024-04-30 00:33:32			0	33935	0	0	0	17041	15770	153034	27471	957178	38158	106176	0	0	8166	762659	0	0
2024-04-30 00:34:32			0	33927	0	0	0	17036	15760	153122	27627	957223	38146	106174	0	0	8166	763100	0	0
2024-04-30 00:35:32			0	33919	0	0	0	17020	15760	153230	27350	957144	38157	106168	0	0	8165	763499	0	0
2024-04-30 00:36:32			0	33897	0	0	0	17007	15760	153206	27315	957241	38134	106163	0	0	8164	764598	0	0
2024-04-30 00:37:32			0	33887	0	0	0	17010	15750	153194	27357	957172	38156	106164	0	0	8164	765139	0	0
2024-04-30 00:38:32			0	33887	0	0	0	17025	15750	153298	27708	957172	38156	106170	0	0	8163	765139	0	0
2024-04-30 00:39:32			0	33875	0	0	0	17028	15750	153358	27350	957145	38156	106171	0	0	8163	765739	0	0
2024-04-30 00:40:32			0	33887	0	0	0	17010	15740	153306	27377	957182	38143	106164	0	0	8164	765180	0	0
2024-04-30 00:41:32			0	33860	0	0	0	17010	15740	153190	27364	957137	38144	106164	0	0	8162	766531	0	0
2024-04-30 00:42:32			0	33886	0	0	0	16999	15720	153226	27526	957105	38131	106160	0	0	8164	765312	0	0
2024-04-30 00:43:32			0	33886	0	0	0	17007	15720	153294	27585	956999	38142	106163	0	0	8164	765312	0	0
2024-04-30 00:44:32			0	33891	0	0	0	17005	15730	153330	27390	957034	38142	106162	0	0	8164	765021	0	0
2024-04-30 00:45:32			0	33896	0	0	0	17020	15730	153282	27374	957034	38142	106168	0	0	8164	764771	0	0
2024-04-30 00:46:32			0	33909	0	0	0	17005	15720	153282	27646	956991	38142	106162	0	0	8165	764163	0	0
2024-04-30 00:47:32			0	33888	0	0	0	16999	15710	153178	27307	957001	38141	106160	0	0	8164	765254	0	0
2024-04-30 00:48:32			0	33904	0	0	0	17005	15720	153170	27445	956991	38131	106162	0	0	8165	764413	0	0
2024-04-30 00:49:32			0	33900	0	0	0	17002	15710	153254	27625	956949	38141	106161	0	0	8164	764654	0	0
2024-04-30 00:50:32			0	33904	0	0	0	16999	15710	153238	27571	956949	38141	106160	0	0	8165	764454	0	0
2024-04-30 00:51:32			0	33928	0	0	0	17018	15710	153234	27298	956922	38130	106167	0	0	8166	763255	0	0
2024-04-30 00:52:32			0	33928	0	0	0	17007	15710	153082	27391	956949	38141	106163	0	0	8166	763255	0	0
2024-04-30 00:53:32			0	33930	0	0	0	17005	15700	153094	27497	956967	38130	106162	0	0	8166	763197	0	0
2024-04-30 00:54:32			0	33939	0	0	0	17007	15690	153122	27332	956977	38150	106163	0	0	8166	762789	0	0
2024-04-30 00:55:32			0	33948	0	0	0	17012	15700	153066	27098	956940	38141	106165	0	0	8167	762299	0	0
2024-04-30 00:56:32			0	33938	0	0	0	17012	15700	153110	27152	957038	38140	106165	0	0	8166	762798	0	0
2024-04-30 00:57:32			0	33907	0	0	0	17007	15700	153122	27279	956932	38140	106163	0	0	8165	764345	0	0
2024-04-30 00:58:32			0	33904	0	0	0	16997	15690	153258	27237	957021	38128	106159	0	0	8165	764536	0	0
2024-04-30 00:59:32			0	33902	0	0	0	16997	15700	153162	27105	956940	38141	106159	0	0	8165	764595	0	0
2024-04-30 01:00:32			0	33891	0	0	0	17005	15700	153338	27183	956959	38129	106162	0	0	8164	765145	0	0
2024-04-30 01:01:32			0	33882	0	0	0	17002	15690	153306	27317	956969	38128	106161	0	0	8163	765636	0	0
2024-04-30 01:02:32			0	33861	0	0	0	16997	15680	153374	27201	956961	38139	106159	0	0	8162	766729	0	0
2024-04-30 01:03:32			0	33850	0	0	0	16994	15690	153382	27559	956950	38139	106158	0	0	8161	767238	0	0
2024-04-30 01:04:32			0	33858	0	0	0	16984	15680	153434	27090	956908	38150	106154	0	0	8162	766879	0	0
2024-04-30 01:05:32			0	33835	0	0	0	16981	15670	153578	27303	956892	38137	106153	0	0	8161	768073	0	0
2024-04-30 01:06:32			0	33809	0	0	0	16981	15670	153646	27452	956839	38116	106153	0	0	8159	769378	0	0
2024-04-30 01:07:32			0	33793	0	0	0	16966	15660	153746	27234	956823	38137	106147	0	0	8158	770224	0	0
2024-04-30 01:08:32			0	33794	0	0	0	16950	15670	153790	27362	956831	38137	106141	0	0	8159	770132	0	0
2024-04-30 01:09:32			0	33757	0	0	0	16953	15660	153830	27183	956823	38125	106142	0	0	8157	772035	0	0
2024-04-30 01:10:32			0	33754	0	0	0	16953	15670	153926	27424	956831	38125	106142	0	0	8156	772144	0	0
2024-04-30 01:11:32			0	33743	0	0	0	16958	15660	153954	27417	956735	38148	106144	0	0	8156	772740	0	0
2024-04-30 01:12:32			0	33744	0	0	0	16953	15650	153970	27255	956727	38136	106142	0	0	8156	772732	0	0
2024-04-30 01:13:32			0	33745	0	0	0	16963	15650	153986	27428	956719	38125	106146	0	0	8156	772681	0	0
2024-04-30 01:14:32			0	33723	0	0	0	16948	15650	153982	27201	956745	38135	106140	0	0	8155	773791	0	0
2024-04-30 01:15:32			0	33718	0	0	0	16932	15650	154066	27364	956719	38125	106134	0	0	8155	774043	0	0
2024-04-30 01:16:32			0	33722	0	0	0	16942	15630	154078	27267	956695	38134	106138	0	0	8155	773924	0	0
2024-04-30 01:17:32			0	33712	0	0	0	16948	15630	154078	27147	956668	38134	106140	0	0	8154	774429	0	0
2024-04-30 01:18:32			0	33703	0	0	0	16955	15630	154122	27109	956642	38134	106143	0	0	8153	774884	0	0
2024-04-30 01:19:32			0	33726	0	0	0	16953	15630	154074	27383	956687	38133	106142	0	0	8155	773722	0	0
2024-04-30 01:20:32			0	33709	0	0	0	16953	15620	154058	27381	956696	38123	106142	0	0	8154	774622	0	0
2024-04-30 01:21:32			0	33729	0	0	0	16945	15620	153970	27469	956678	38144	106139	0	0	8155	773613	0	0
2024-04-30 01:22:32			0	33735	0	0	0	16950	15620	153978	27137	956749	38133	106141	0	0	8155	773310	0	0
2024-04-30 01:23:32			0	33743	0	0	0	16955	15620	153958	27416	956644	38133	106143	0	0	8156	772907	0	0
2024-04-30 01:24:32			0	33744	0	0	0	16948	15620	153882	27429	956757	38144	106140	0	0	8156	772856	0	0
2024-04-30 01:25:32			0	33774	0	0	0	16953	15620	153810	27005	956670	38133	106142	0	0	8157	771345	0	0
2024-04-30 01:26:32			0	33794	0	0	0	16958	15610	153750	27350	956662	38143	106144	0	0	8158	770381	0	0
2024-04-30 01:27:32			0	33800	0	0	0	16968	15610	153722	27227	956662	38122	106148	0	0	8159	770079	0	0
2024-04-30 01:28:32			0	33807	0	0	0	16979	15630	153718	27530	956747	38145	106152	0	0	8159	769644	0	0
2024-04-30 01:29:32			0	33832	0	0	0	16976	15620	153594	27395	956704	38133	106151	0	0	8160	768430	0	0
2024-04-30 01:30:32			0	33845	0	0	0	16989	15630	153486	27067	956739	38123	106156	0	0	8161	767737	0	0
2024-04-30 01:31:32			0	33871	0	0	0	16992	15630	153442	27034	956792	38144	106157	0	0	8162	766434	0	0
2024-04-30 01:32:32			0	33870	0	0	0	16997	15630	153414	27355	956739	38133	106159	0	0	8162	766484	0	0
2024-04-30 01:33:32			0	33881	0	0	0	16997	15630	153178	27606	956774	38134	106159	0	0	8163	765934	0	0
2024-04-30 01:34:32			0	33910	0	0	0	16989	15630	153206	27246	956774	38134	106156	0	0	8165	764483	0	0
2024-04-30 01:35:32			0	33921	0	0	0	16997	15630	153138	27478	956774	38134	106159	0	0	8165	763934	0	0
2024-04-30 01:36:32			0	33947	0	0	0	16989	15640	152942	27699	956835	38135	106156	0	0	8167	762595	0	0
2024-04-30 01:37:32			0	33967	0	0	0	17010	15640	152886	27379	956816	38146	106164	0	0	8168	761598	0	0
2024-04-30 01:38:32			0	34006	0	0	0	17012	15650	152690	27253	956798	38146	106165	0	0	8170	759616	0	0
2024-04-30 01:39:32			0	34021	0	0	0	17010	15640	152746	27248	956835	38146	106164	0	0	8171	758911	0	0
2024-04-30 01:40:32			0	34041	0	0	0	17028	15650	152494	27369	956877	38135	106171	0	0	8172	757877	0	0
2024-04-30 01:41:32			0	34051	0	0	0	17018	15650	152410	27355	956798	38146	106167	0	0	8173	757381	0	0
2024-04-30 01:42:32			0	34075	0	0	0	17015	15640	152414	27331	956843	38146	106166	0	0	8174	756232	0	0
2024-04-30 01:43:32			0	34079	0	0	0	17002	15650	152382	27618	956885	38147	106161	0	0	8174	755994	0	0
2024-04-30 01:44:32			0	34088	0	0	0	16989	15650	152350	27298	956833	38147	106156	0	0	8175	755548	0	0
2024-04-30 01:45:32			0	34072	0	0	0	16953	15640	152422	27476	956790	38135	106142	0	0	8175	756381	0	0
2024-04-30 01:46:32			0	34053	0	0	0	16919	15650	152382	27438	956727	38125	106129	0	0	8174	757282	0	0
2024-04-30 01:47:32			0	34041	0	0	0	16903	15640	152602	27104	956624	38125	106123	0	0	8174	757918	0	0
2024-04-30 01:48:32			0	34010	0	0	0	16880	15630	152654	27332	956660	38133	106114	0	0	8172	759499	0	0
2024-04-30 01:49:32			0	34004	0	0	0	16877	15620	152738	27307	956599	38123	106113	0	0	8172	759838	0	0
2024-04-30 01:50:32			0	33997	0	0	0	16867	15610	152690	27429	956575	38121	106109	0	0	8172	760227	0	0
2024-04-30 01:51:32			0	33986	0	0	0	16859	15610	152638	27346	956530	38111	106106	0	0	8171	760775	0	0
2024-04-30 01:52:32			0	33985	0	0	0	16854	15590	152762	27346	956445	38121	106104	0	0	8171	760906	0	0
2024-04-30 01:53:32			0	33996	0	0	0	16859	15580	152722	27253	956376	38119	106106	0	0	8172	760400	0	0
2024-04-30 01:54:32			0	34014	0	0	0	16857	15570	152678	27486	956438	38119	106105	0	0	8173	759545	0	0
2024-04-30 01:55:32			0	34000	0	0	0	16864	15560	152678	27677	956378	38128	106108	0	0	8172	760283	0	0
2024-04-30 01:56:32			0	34007	0	0	0	16857	15550	152738	27677	956335	38117	106105	0	0	8172	759975	0	0
2024-04-30 01:57:32			0	33996	0	0	0	16841	15550	152598	27514	956327	38126	106099	0	0	8172	760523	0	0
2024-04-30 01:58:32			0	33995	0	0	0	16851	15540	152742	27618	956292	38116	106103	0	0	8172	760613	0	0
2024-04-30 01:59:32			0	34011	0	0	0	16844	15540	152714	27460	956319	38116	106100	0	0	8173	759817	0	0
2024-04-30 02:00:32			0	34015	0	0	0	16846	15540	152734	27422	956337	38126	106101	0	0	8173	759618	0	0
2024-04-30 02:01:32			0	34000	0	0	0	16825	15540	152798	27410	956284	38137	106093	0	0	8172	760365	0	0
2024-04-30 02:02:32			0	34003	0	0	0	16818	15530	152722	27644	956294	38125	106090	0	0	8173	760256	0	0
2024-04-30 02:03:32			0	34015	0	0	0	16799	15520	152746	27732	956286	38115	106083	0	0	8174	759700	0	0
2024-04-30 02:04:32			0	34005	0	0	0	16794	15530	152814	27386	956215	38115	106081	0	0	8173	760157	0	0
2024-04-30 02:05:32			0	33983	0	0	0	16792	15520	152774	27571	956199	38114	106080	0	0	8172	761293	0	0
2024-04-30 02:06:32			0	33986	0	0	0	16776	15510	152754	27433	956138	38092	106074	0	0	8172	761184	0	0
2024-04-30 02:07:32			0	33982	0	0	0	16771	15510	152818	27687	956077	38113	106072	0	0	8172	761384	0	0
2024-04-30 02:08:32			0	33980	0	0	0	16774	15500	152834	27627	956061	38101	106073	0	0	8172	761524	0	0
2024-04-30 02:09:32			0	33990	0	0	0	16768	15470	152842	27684	956046	38098	106071	0	0	8172	761149	0	0
2024-04-30 02:10:32			0	34000	0	0	0	16768	15490	152942	27582	956123	38100	106071	0	0	8173	760569	0	0
2024-04-30 02:11:32			0	33995	0	0	0	16763	15480	152774	27528	956036	38110	106069	0	0	8173	760859	0	0
2024-04-30 02:12:32			0	34010	0	0	0	16763	15480	152722	27403	956028	38099	106069	0	0	8174	760112	0	0
2024-04-30 02:13:32			0	34032	0	0	0	16779	15480	152614	27268	956115	38110	106075	0	0	8175	759018	0	0
2024-04-30 02:14:32			0	34021	0	0	0	16789	15470	152650	27241	956065	38098	106079	0	0	8174	759606	0	0
2024-04-30 02:15:32			0	34030	0	0	0	16794	15470	152702	27762	956091	38098	106081	0	0	8174	759159	0	0
2024-04-30 02:16:32			0	34045	0	0	0	16794	15460	152734	27516	956109	38109	106081	0	0	8175	758454	0	0
2024-04-30 02:17:32			0	34033	0	0	0	16799	15470	152798	27776	956091	38121	106083	0	0	8174	759009	0	0
2024-04-30 02:18:32			0	34044	0	0	0	16799	15460	152634	27364	956127	38109	106083	0	0	8175	758504	0	0
2024-04-30 02:19:32			0	34053	0	0	0	16818	15460	152634	27258	956056	38141	106090	0	0	8175	758057	0	0
2024-04-30 02:20:32			0	34034	0	0	0	16818	15470	152698	27701	956099	38110	106090	0	0	8174	758960	0	0
2024-04-30 02:21:32			0	34014	0	0	0	16831	15470	152886	27659	956178	38110	106095	0	0	8173	759954	0	0
2024-04-30 02:22:32			0	34005	0	0	0	16838	15470	152826	27364	956125	38121	106098	0	0	8172	760402	0	0
2024-04-30 02:23:32			0	33965	0	0	0	16846	15480	152914	27661	956133	38132	106101	0	0	8170	762354	0	0
2024-04-30 02:24:32			0	33990	0	0	0	16844	15490	153046	27511	956202	38122	106100	0	0	8171	761067	0	0
2024-04-30 02:25:32			0	33961	0	0	0	16844	15490	153098	27592	956263	38133	106100	0	0	8170	762512	0	0
2024-04-30 02:26:32			0	33971	0	0	0	16851	15490	153078	27653	956211	38123	106103	0	0	8170	762014	0	0
2024-04-30 02:27:32			0	33937	0	0	0	16857	15500	153146	27521	956245	38112	106105	0	0	8168	763669	0	0
2024-04-30 02:28:32			0	33928	0	0	0	16862	15500	153070	27289	956245	38133	106107	0	0	8167	764119	0	0
2024-04-30 02:29:32			0	33935	0	0	0	16864	15500	153154	27422	956253	38124	106108	0	0	8168	763769	0	0
2024-04-30 02:30:32			0	33925	0	0	0	16854	15490	153070	27227	956237	38112	106104	0	0	8167	764310	0	0
2024-04-30 02:31:32			0	33931	0	0	0	16854	15500	153126	27320	956219	38112	106104	0	0	8168	763969	0	0
2024-04-30 02:32:32			0	33940	0	0	0	16854	15500	153134	27852	956201	38113	106104	0	0	8168	763519	0	0
2024-04-30 02:33:32			0	33946	0	0	0	16859	15500	152998	27479	956245	38112	106106	0	0	8168	763220	0	0
2024-04-30 02:34:32			0	33948	0	0	0	16846	15500	153030	27222	956245	38112	106101	0	0	8169	763120	0	0
2024-04-30 02:35:32			0	33961	0	0	0	16836	15500	152930	27486	956166	38123	106097	0	0	8170	762471	0	0
2024-04-30 02:36:32			0	33976	0	0	0	16836	15490	152938	27625	956176	38111	106097	0	0	8171	761764	0	0
2024-04-30 02:37:32			0	33986	0	0	0	16825	15500	152870	27180	956175	38124	106093	0	0	8171	761225	0	0
2024-04-30 02:38:32			0	33990	0	0	0	16815	15490	152806	27428	956211	38112	106089	0	0	8172	761067	0	0
2024-04-30 02:39:32			0	33993	0	0	0	16812	15490	152702	27242	956123	38111	106088	0	0	8172	760918	0	0
2024-04-30 02:40:32			0	34002	0	0	0	16810	15490	152754	27441	956184	38112	106087	0	0	8173	760470	0	0
2024-04-30 02:41:32			0	34001	0	0	0	16807	15480	152866	27467	956089	38099	106086	0	0	8172	760560	0	0
2024-04-30 02:42:32			0	34004	0	0	0	16792	15470	152646	27209	956099	38121	106080	0	0	8173	760452	0	0
2024-04-30 02:43:32			0	34002	0	0	0	16789	15480	152726	27758	956054	38110	106079	0	0	8173	760511	0	0
2024-04-30 02:44:32			0	33984	0	0	0	16781	15470	152742	27131	956065	38110	106076	0	0	8172	761448	0	0
2024-04-30 02:45:32			0	34016	0	0	0	16792	15480	152738	27476	956089	38122	106080	0	0	8174	759814	0	0
2024-04-30 02:46:32			0	34012	0	0	0	16787	15470	152642	27460	956091	38098	106078	0	0	8173	760054	0	0
2024-04-30 02:47:32			0	34014	0	0	0	16797	15470	152674	27357	956091	38110	106082	0	0	8173	759954	0	0
2024-04-30 02:48:32			0	34037	0	0	0	16802	15470	152610	27209	956091	38110	106084	0	0	8175	758811	0	0
2024-04-30 02:49:32			0	34024	0	0	0	16812	15470	152586	27128	956125	38110	106088	0	0	8174	759457	0	0
2024-04-30 02:50:32			0	34039	0	0	0	16815	15480	152530	27653	956115	38110	106089	0	0	8175	758670	0	0
2024-04-30 02:51:32			0	34066	0	0	0	16807	15480	152542	27310	956133	38132	106086	0	0	8176	757330	0	0
2024-04-30 02:52:32			0	34046	0	0	0	16818	15470	152638	27242	956125	38110	106090	0	0	8175	758364	0	0
2024-04-30 02:53:32			0	34041	0	0	0	16805	15460	152546	27583	956109	38109	106085	0	0	8175	758653	0	0
2024-04-30 02:54:32			0	34048	0	0	0	16815	15470	152538	27218	956099	38131	106089	0	0	8175	758264	0	0
2024-04-30 02:55:32			0	34052	0	0	0	16805	15460	152466	27543	956083	38109	106085	0	0	8175	758107	0	0
2024-04-30 02:56:32			0	34045	0	0	0	16799	15470	152470	27490	956143	38110	106083	0	0	8175	758413	0	0
2024-04-30 02:57:32			0	34025	0	0	0	16805	15480	152562	27861	956160	38122	106085	0	0	8174	759366	0	0
2024-04-30 02:58:32			0	34022	0	0	0	16799	15480	152694	27360	956186	38099	106083	0	0	8174	759516	0	0
2024-04-30 02:59:32			0	34015	0	0	0	16805	15470	152782	27531	956204	38098	106085	0	0	8173	759905	0	0
2024-04-30 03:00:32			0	33991	0	0	0	16807	15490	152770	27715	956229	38111	106086	0	0	8172	761017	0	0
2024-04-30 03:01:32			0	33988	0	0	0	16815	15490	152882	27384	956211	38112	106089	0	0	8172	761167	0	0
2024-04-30 03:02:32			0	34007	0	0	0	16815	15490	152846	27440	956229	38111	106089	0	0	8173	760221	0	0
2024-04-30 03:03:32			0	33983	0	0	0	16810	15500	152886	27419	956271	38101	106087	0	0	8171	761375	0	0
2024-04-30 03:04:32			0	33972	0	0	0	16818	15490	152938	27402	956263	38101	106090	0	0	8171	761964	0	0
2024-04-30 03:05:32			0	33982	0	0	0	16823	15510	152926	27564	956288	38124	106092	0	0	8171	761384	0	0
2024-04-30 03:06:32			0	33978	0	0	0	16818	15510	152722	27296	956314	38113	106090	0	0	8171	761583	0	0
2024-04-30 03:07:32			0	33999	0	0	0	16812	15510	152674	27696	956270	38114	106088	0	0	8172	760537	0	0
2024-04-30 03:08:32			0	34036	0	0	0	16802	15500	152670	27320	956219	38112	106084	0	0	8175	758738	0	0
2024-04-30 03:09:32			0	34074	0	0	0	16787	15490	152398	27374	956123	38111	106078	0	0	8177	756893	0	0
2024-04-30 03:10:32			0	34088	0	0	0	16774	15490	152234	27322	956123	38089	106073	0	0	8178	756199	0	0
2024-04-30 03:11:32			0	34114	0	0	0	16774	15480	152182	27691	956081	38099	106073	0	0	8180	754952	0	0
2024-04-30 03:12:32			0	34130	0	0	0	16774	15480	152158	27317	956089	38110	106073	0	0	8181	754160	0	0
2024-04-30 03:13:32			0	34117	0	0	0	16768	15460	152182	27743	956056	38109	106071	0	0	8180	754885	0	0
2024-04-30 03:14:32			0	34108	0	0	0	16763	15470	152302	27319	956065	38110	106069	0	0	8179	755289	0	0
2024-04-30 03:15:32			0	34085	0	0	0	16774	15470	152274	27372	956091	38110	106073	0	0	8178	756429	0	0
2024-04-30 03:16:32			0	34072	0	0	0	16768	15450	152326	27595	956066	38097	106071	0	0	8177	757155	0	0
2024-04-30 03:17:32			0	34053	0	0	0	16761	15460	152334	27781	956056	38109	106068	0	0	8176	758057	0	0
2024-04-30 03:18:32			0	34030	0	0	0	16776	15450	152482	27665	956040	38097	106074	0	0	8175	759240	0	0
2024-04-30 03:19:32			0	34046	0	0	0	16774	15450	152618	27703	956006	38108	106073	0	0	8175	758445	0	0
2024-04-30 03:20:32			0	34034	0	0	0	16766	15440	152590	27530	955997	38118	106070	0	0	8175	759082	0	0
2024-04-30 03:21:32			0	34012	0	0	0	16771	15450	152654	27377	956014	38108	106072	0	0	8174	760136	0	0
2024-04-30 03:22:32			0	34024	0	0	0	16776	15460	152546	27455	955969	38109	106074	0	0	8174	759498	0	0
2024-04-30 03:23:32			0	34024	0	0	0	16774	15440	152674	27355	956024	38107	106073	0	0	8174	759580	0	0
2024-04-30 03:24:32			0	34010	0	0	0	16771	15460	152710	27485	956022	38120	106072	0	0	8173	760194	0	0
2024-04-30 03:25:32			0	34003	0	0	0	16748	15430	152750	27313	955981	38106	106063	0	0	8173	760665	0	0
2024-04-30 03:26:32			0	33990	0	0	0	16755	15440	152818	27713	955997	38107	106066	0	0	8173	761272	0	0
2024-04-30 03:27:32			0	33970	0	0	0	16758	15450	152870	27183	956006	38119	106067	0	0	8171	762228	0	0
2024-04-30 03:28:32			0	33943	0	0	0	16761	15440	153082	27514	955919	38107	106068	0	0	8170	763616	0	0
2024-04-30 03:29:32			0	33922	0	0	0	16753	15440	153030	27313	955910	38107	106065	0	0	8169	764665	0	0
2024-04-30 03:30:32			0	33911	0	0	0	16758	15440	153182	27133	955937	38118	106067	0	0	8168	765215	0	0
2024-04-30 03:31:32			0	33896	0	0	0	16750	15440	153322	27265	955963	38096	106064	0	0	8167	765966	0	0
2024-04-30 03:32:32			0	33883	0	0	0	16755	15430	153306	27313	955947	38106	106066	0	0	8166	766658	0	0
2024-04-30 03:33:32			0	33860	0	0	0	16763	15430	153386	27556	955981	38106	106069	0	0	8165	767811	0	0
2024-04-30 03:34:32			0	33862	0	0	0	16768	15440	153506	27495	956095	38107	106071	0	0	8165	767669	0	0
2024-04-30 03:35:32			0	33845	0	0	0	16768	15440	153518	27796	956076	38118	106071	0	0	8164	768522	0	0
2024-04-30 03:36:32			0	33855	0	0	0	16787	15450	153466	27237	956085	38129	106078	0	0	8164	767979	0	0
2024-04-30 03:37:32			0	33826	0	0	0	16805	15450	153614	27223	956137	38108	106085	0	0	8162	769435	0	0
2024-04-30 03:38:32			0	33834	0	0	0	16823	15450	153558	27116	956119	38108	106092	0	0	8162	769033	0	0
2024-04-30 03:39:32			0	33845	0	0	0	16833	15470	153406	27220	956257	38121	106096	0	0	8163	768398	0	0
2024-04-30 03:40:32			0	33886	0	0	0	16833	15490	153242	27326	956229	38122	106096	0	0	8165	766260	0	0
2024-04-30 03:41:32			0	33948	0	0	0	16828	15480	152962	27048	956221	38122	106094	0	0	8169	763202	0	0
2024-04-30 03:42:32			0	34004	0	0	0	16831	15490	152758	27412	956255	38111	106095	0	0	8172	760370	0	0
2024-04-30 03:43:32			0	34028	0	0	0	16825	15480	152554	27093	956221	38122	106093	0	0	8174	759217	0	0
2024-04-30 03:44:32			0	34022	0	0	0	16812	15490	152602	27310	956150	38111	106088	0	0	8174	759475	0	0
2024-04-30 03:45:32			0	33986	0	0	0	16797	15480	152682	27516	956160	38122	106082	0	0	8172	761307	0	0
2024-04-30 03:46:32			0	33951	0	0	0	16805	15480	152966	27204	956212	38110	106085	0	0	8170	763052	0	0
2024-04-30 03:47:32			0	33909	0	0	0	16792	15480	153118	27499	956107	38110	106080	0	0	8167	765151	0	0
2024-04-30 03:48:32			0	33882	0	0	0	16797	15470	153278	27201	956099	38087	106082	0	0	8166	766543	0	0
2024-04-30 03:49:32			0	33843	0	0	0	16797	15470	153438	27663	956125	38110	106082	0	0	8163	768499	0	0
2024-04-30 03:50:32			0	33854	0	0	0	16781	15470	153490	27171	956152	38098	106076	0	0	8164	767947	0	0
2024-04-30 03:51:32			0	33817	0	0	0	16781	15470	153566	27428	956125	38121	106076	0	0	8162	769805	0	0
2024-04-30 03:52:32			0	33818	0	0	0	16789	15470	153470	27310	956091	38110	106079	0	0	8162	769754	0	0
2024-04-30 03:53:32			0	33814	0	0	0	16774	15470	153606	27507	956065	38110	106073	0	0	8162	769955	0	0
2024-04-30 03:54:32			0	33813	0	0	0	16761	15470	153690	27182	956091	38110	106068	0	0	8162	770006	0	0
2024-04-30 03:55:32			0	33804	0	0	0	16753	15450	153598	27523	956014	38108	106065	0	0	8162	770541	0	0
2024-04-30 03:56:32			0	33810	0	0	0	16745	15450	153738	27320	956014	38097	106062	0	0	8162	770239	0	0
2024-04-30 03:57:32			0	33782	0	0	0	16737	15450	153678	27261	955987	38097	106059	0	0	8161	771648	0	0
2024-04-30 03:58:32			0	33776	0	0	0	16745	15450	153710	27232	956006	38119	106062	0	0	8160	771950	0	0
2024-04-30 03:59:32			0	33751	0	0	0	16729	15440	153830	27376	955963	38107	106056	0	0	8159	773252	0	0
2024-04-30 04:00:32			0	33761	0	0	0	16737	15440	153830	27244	955884	38107	106059	0	0	8159	772748	0	0
2024-04-30 04:01:32			0	33738	0	0	0	16742	15440	153946	27580	955945	38107	106061	0	0	8158	773908	0	0
2024-04-30 04:02:32			0	33723	0	0	0	16758	15440	154006	27237	955945	38107	106067	0	0	8157	774665	0	0
2024-04-30 04:03:32			0	33720	0	0	0	16742	15430	154038	27578	955929	38106	106061	0	0	8157	774859	0	0
2024-04-30 04:04:32			0	33702	0	0	0	16722	15430	154150	27284	955929	38095	106053	0	0	8156	775768	0	0
2024-04-30 04:05:32			0	33679	0	0	0	16724	15420	154286	27112	955860	38094	106054	0	0	8155	776974	0	0
2024-04-30 04:06:32			0	33652	0	0	0	16711	15420	154342	27448	955833	38083	106049	0	0	8153	778342	0	0
2024-04-30 04:07:32			0	33630	0	0	0	16714	15420	154502	27492	955799	38104	106050	0	0	8152	779458	0	0
2024-04-30 04:08:32			0	33613	0	0	0	16693	15420	154614	27462	955825	38104	106042	0	0	8151	780322	0	0
2024-04-30 04:09:32			0	33583	0	0	0	16690	15410	154722	27434	955764	38093	106041	0	0	8150	781889	0	0
2024-04-30 04:10:32			0	33574	0	0	0	16690	15400	154750	27111	955748	38093	106041	0	0	8149	782390	0	0
2024-04-30 04:11:32			0	33550	0	0	0	16685	15390	154897	27320	955732	38114	106039	0	0	8148	783655	0	0
2024-04-30 04:12:32			0	33536	0	0	0	16677	15390	154913	27260	955705	38082	106036	0	0	8147	784369	0	0
2024-04-30 04:13:32			0	33513	0	0	0	16670	15400	155085	27170	955740	38103	106033	0	0	8146	785501	0	0
2024-04-30 04:14:32			0	33501	0	0	0	16677	15380	155101	27476	955689	38102	106036	0	0	8145	786199	0	0
2024-04-30 04:15:32			0	33488	0	0	0	16672	15380	155057	27519	955742	38113	106034	0	0	8144	786863	0	0
2024-04-30 04:16:32			0	33484	0	0	0	16677	15370	155105	27604	955725	38101	106036	0	0	8144	787110	0	0
2024-04-30 04:17:32			0	33475	0	0	0	16693	15370	155229	27194	955691	38089	106042	0	0	8143	787571	0	0
2024-04-30 04:18:32			0	33464	0	0	0	16685	15380	155305	27284	955681	38112	106039	0	0	8142	788092	0	0
2024-04-30 04:19:32			0	33469	0	0	0	16688	15380	155237	27329	955707	38101	106040	0	0	8143	787836	0	0
2024-04-30 04:20:32			0	33456	0	0	0	16714	15380	155301	27215	955786	38101	106050	0	0	8141	788502	0	0
2024-04-30 04:21:32			0	33452	0	0	0	16724	15380	155277	27360	955847	38091	106054	0	0	8141	788707	0	0
2024-04-30 04:22:32			0	33462	0	0	0	16742	15380	155221	27346	955900	38113	106061	0	0	8141	788194	0	0
2024-04-30 04:23:32			0	33457	0	0	0	16776	15390	155185	27272	955890	38092	106074	0	0	8141	788408	0	0
2024-04-30 04:24:32			0	33466	0	0	0	16748	15400	155209	27377	955959	38115	106063	0	0	8142	787905	0	0
2024-04-30 04:25:32			0	33496	0	0	0	16732	15410	155105	27324	955888	38104	106057	0	0	8144	786327	0	0
2024-04-30 04:26:32			0	33503	0	0	0	16737	15410	155105	27189	955922	38104	106059	0	0	8144	785970	0	0
2024-04-30 04:27:32			0	33503	0	0	0	16779	15420	155057	27509	956018	38116	106075	0	0	8143	785927	0	0
2024-04-30 04:28:32			0	33526	0	0	0	16771	15420	155045	27350	956018	38116	106072	0	0	8145	784752	0	0
2024-04-30 04:29:32			0	33559	0	0	0	16789	15440	154869	27409	956016	38118	106079	0	0	8147	782985	0	0
2024-04-30 04:30:32			0	33604	0	0	0	16815	15440	154546	27535	956076	38128	106089	0	0	8149	780695	0	0
2024-04-30 04:31:32			0	33647	0	0	0	16854	15450	154362	27656	956145	38119	106104	0	0	8151	778470	0	0
2024-04-30 04:32:32			0	33691	0	0	0	16857	15460	154326	27319	956135	38098	106105	0	0	8153	776200	0	0
2024-04-30 04:33:32			0	33707	0	0	0	16872	15460	154054	27156	956135	38130	106111	0	0	8154	775391	0	0
2024-04-30 04:34:32			0	33745	0	0	0	16888	15470	153898	27246	956283	38121	106117	0	0	8156	773430	0	0
2024-04-30 04:35:32			0	33793	0	0	0	16877	15470	153730	27201	956204	38121	106113	0	0	8159	771012	0	0
2024-04-30 04:36:32			0	33833	0	0	0	16870	15470	153514	27583	956257	38131	106110	0	0	8162	769001	0	0
2024-04-30 04:37:32			0	33880	0	0	0	16870	15480	153218	27277	956239	38132	106110	0	0	8164	766602	0	0
2024-04-30 04:38:32			0	33927	0	0	0	16880	15480	152966	27261	956212	38110	106114	0	0	8167	764251	0	0
2024-04-30 04:39:32			0	33985	0	0	0	16862	15490	152810	27400	956150	38122	106107	0	0	8171	761316	0	0
2024-04-30 04:40:32			0	34003	0	0	0	16867	15490	152586	27478	956229	38122	106109	0	0	8172	760420	0	0
2024-04-30 04:41:32			0	34011	0	0	0	16870	15480	152562	27350	956186	38132	106110	0	0	8172	760063	0	0
2024-04-30 04:42:32			0	34025	0	0	0	16859	15480	152486	27665	956194	38132	106106	0	0	8173	759366	0	0
2024-04-30 04:43:32			0	34010	0	0	0	16854	15480	152542	27253	956194	38122	106104	0	0	8172	760112	0	0
2024-04-30 04:44:32			0	34006	0	0	0	16838	15480	152662	27267	956133	38110	106098	0	0	8172	760311	0	0
2024-04-30 04:45:32			0	33985	0	0	0	16836	15480	152702	27208	956081	38132	106097	0	0	8171	761357	0	0
2024-04-30 04:46:32			0	33958	0	0	0	16836	15480	152890	27512	956186	38110	106097	0	0	8169	762703	0	0
2024-04-30 04:47:32			0	33934	0	0	0	16838	15480	152970	27462	956142	38132	106098	0	0	8168	763901	0	0
2024-04-30 04:48:32			0	33894	0	0	0	16831	15480	153018	27154	956133	38122	106095	0	0	8166	765901	0	0
2024-04-30 04:49:32			0	33911	0	0	0	16833	15470	153222	27255	956143	38121	106096	0	0	8167	765092	0	0
2024-04-30 04:50:32			0	33876	0	0	0	16831	15480	153254	27164	956221	38122	106095	0	0	8165	766803	0	0
2024-04-30 04:51:32			0	33861	0	0	0	16836	15480	153310	27144	956186	38122	106097	0	0	8164	767554	0	0
2024-04-30 04:52:32			0	33853	0	0	0	16828	15470	153318	27460	956099	38121	106094	0	0	8163	767997	0	0
2024-04-30 04:53:32			0	33836	0	0	0	16825	15480	153354	27466	956107	38110	106093	0	0	8163	768809	0	0
2024-04-30 04:54:32			0	33834	0	0	0	16807	15470	153410	27140	956143	38121	106086	0	0	8163	768951	0	0
2024-04-30 04:55:32			0	33817	0	0	0	16818	15470	153426	27209	956117	38121	106090	0	0	8161	769805	0	0
2024-04-30 04:56:32			0	33834	0	0	0	16810	15460	153462	27500	955977	38109	106087	0	0	8163	768992	0	0
2024-04-30 04:57:32			0	33795	0	0	0	16807	15460	153490	27272	956048	38120	106086	0	0	8160	770952	0	0
2024-04-30 04:58:32			0	33783	0	0	0	16802	15450	153550	27249	955979	38108	106084	0	0	8160	771598	0	0
2024-04-30 04:59:32			0	33776	0	0	0	16802	15460	153682	27350	955996	38109	106084	0	0	8159	771909	0	0
2024-04-30 05:00:32			0	33783	0	0	0	16789	15450	153738	27398	956014	38119	106079	0	0	8160	771598	0	0
2024-04-30 05:01:32			0	33758	0	0	0	16789	15450	153694	27474	955979	38108	106079	0	0	8158	772858	0	0
2024-04-30 05:02:32			0	33775	0	0	0	16789	15440	153766	27452	955937	38107	106079	0	0	8159	772042	0	0
2024-04-30 05:03:32			0	33743	0	0	0	16781	15440	153782	27511	955997	38118	106076	0	0	8158	773656	0	0
2024-04-30 05:04:32			0	33730	0	0	0	16766	15440	153766	27407	955971	38107	106070	0	0	8157	774312	0	0
2024-04-30 05:05:32			0	33736	0	0	0	16761	15430	153926	27393	955929	38117	106068	0	0	8157	774051	0	0
2024-04-30 05:06:32			0	33734	0	0	0	16763	15430	153894	27322	955894	38106	106069	0	0	8157	774152	0	0
2024-04-30 05:07:32			0	33732	0	0	0	16758	15420	153958	27488	955912	38116	106067	0	0	8157	774294	0	0
2024-04-30 05:08:32			0	33722	0	0	0	16758	15430	154030	27440	955920	38117	106067	0	0	8157	774758	0	0
2024-04-30 05:09:32			0	33714	0	0	0	16745	15420	154014	27170	955860	38127	106062	0	0	8156	775204	0	0
2024-04-30 05:10:32			0	33702	0	0	0	16753	15410	153970	27260	955791	38104	106065	0	0	8156	775852	0	0
2024-04-30 05:11:32			0	33717	0	0	0	16742	15410	154002	27239	955888	38116	106061	0	0	8157	775094	0	0
2024-04-30 05:12:32			0	33714	0	0	0	16742	15410	154066	27319	955843	38093	106061	0	0	8156	775245	0	0
2024-04-30 05:13:32			0	33704	0	0	0	16745	15400	153994	27372	955853	38104	106062	0	0	8156	775793	0	0
2024-04-30 05:14:32			0	33723	0	0	0	16735	15400	154018	27367	955872	38092	106058	0	0	8157	774832	0	0
2024-04-30 05:15:32			0	33691	0	0	0	16742	15390	154106	27294	955784	38114	106061	0	0	8155	776492	0	0
2024-04-30 05:16:32			0	33720	0	0	0	16742	15390	154010	27495	955784	38114	106061	0	0	8157	775025	0	0
2024-04-30 05:17:32			0	33721	0	0	0	16740	15400	154030	27204	955801	38115	106060	0	0	8157	774933	0	0
2024-04-30 05:18:32			0	33715	0	0	0	16729	15400	153978	27331	955872	38114	106056	0	0	8157	775236	0	0
2024-04-30 05:19:32			0	33720	0	0	0	16729	15390	154022	27428	955750	38103	106056	0	0	8157	775025	0	0
2024-04-30 05:20:32			0	33711	0	0	0	16740	15390	154042	27350	955829	38103	106060	0	0	8156	775480	0	0
2024-04-30 05:21:32			0	33710	0	0	0	16732	15390	153998	27358	955803	38114	106057	0	0	8156	775531	0	0
2024-04-30 05:22:32			0	33722	0	0	0	16729	15380	154046	27261	955733	38112	106056	0	0	8157	774966	0	0
2024-04-30 05:23:32			0	33731	0	0	0	16732	15390	153978	27433	955750	38114	106057	0	0	8157	774470	0	0
2024-04-30 05:24:32			0	33754	0	0	0	16735	15390	153870	27275	955697	38092	106058	0	0	8159	773309	0	0
2024-04-30 05:25:32			0	33763	0	0	0	16722	15380	153858	27351	955716	38102	106053	0	0	8160	772896	0	0
2024-04-30 05:26:32			0	33783	0	0	0	16722	15380	153722	27566	955760	38101	106053	0	0	8161	771888	0	0
2024-04-30 05:27:32			0	33791	0	0	0	16722	15380	153654	27390	955681	38112	106053	0	0	8161	771485	0	0
2024-04-30 05:28:32			0	33828	0	0	0	16719	15380	153582	27305	955760	38101	106052	0	0	8163	769624	0	0
2024-04-30 05:29:32			0	33806	0	0	0	16727	15380	153474	27357	955760	38112	106055	0	0	8162	770731	0	0
2024-04-30 05:30:32			0	33841	0	0	0	16716	15370	153438	27223	955691	38100	106051	0	0	8164	769013	0	0
2024-04-30 05:31:32			0	33866	0	0	0	16719	15370	153286	27242	955699	38112	106052	0	0	8166	767758	0	0
2024-04-30 05:32:32			0	33872	0	0	0	16719	15370	153210	27289	955691	38111	106052	0	0	8166	767457	0	0
2024-04-30 05:33:32			0	33884	0	0	0	16711	15360	153138	27514	955675	38110	106049	0	0	8167	766897	0	0
2024-04-30 05:34:32			0	33912	0	0	0	16722	15370	152998	27194	955691	38111	106053	0	0	8168	765453	0	0
2024-04-30 05:35:32			0	33916	0	0	0	16714	15350	152990	27595	955693	38110	106050	0	0	8168	765336	0	0
2024-04-30 05:36:32			0	33939	0	0	0	16714	15360	152910	27261	955701	38099	106050	0	0	8170	764144	0	0
2024-04-30 05:37:32			0	33957	0	0	0	16709	15350	152846	27362	955693	38110	106048	0	0	8171	763286	0	0
2024-04-30 05:38:32			0	33979	0	0	0	16709	15360	152754	27372	955648	38099	106048	0	0	8172	762148	0	0
2024-04-30 05:39:32			0	33976	0	0	0	16719	15350	152766	27441	955640	38121	106052	0	0	8172	762338	0	0
2024-04-30 05:40:32			0	33968	0	0	0	16703	15350	152794	27388	955640	38110	106046	0	0	8172	762737	0	0
2024-04-30 05:41:32			0	33985	0	0	0	16698	15350	152766	27282	955666	38087	106044	0	0	8173	761889	0	0
2024-04-30 05:42:32			0	33996	0	0	0	16701	15340	152562	27478	955642	38087	106045	0	0	8173	761382	0	0
2024-04-30 05:43:32			0	34020	0	0	0	16696	15350	152602	27410	955632	38121	106043	0	0	8175	760146	0	0
2024-04-30 05:44:32			0	34019	0	0	0	16698	15340	152514	27569	955624	38087	106044	0	0	8175	760237	0	0
2024-04-30 05:45:32			0	34026	0	0	0	16703	15340	152630	27455	955597	38099	106046	0	0	8175	759889	0	0
2024-04-30 05:46:32			0	34024	0	0	0	16696	15350	152538	27046	955632	38121	106043	0	0	8175	759947	0	0
2024-04-30 05:47:32			0	34040	0	0	0	16703	15340	152466	27315	955650	38110	106046	0	0	8176	759192	0	0
2024-04-30 05:48:32			0	34026	0	0	0	16698	15350	152446	27639	955632	38099	106044	0	0	8175	759848	0	0
2024-04-30 05:49:32			0	34048	0	0	0	16696	15330	152510	27460	955581	38108	106043	0	0	8176	758835	0	0
2024-04-30 05:50:32			0	34043	0	0	0	16701	15340	152538	27258	955642	38098	106045	0	0	8176	759043	0	0
2024-04-30 05:51:32			0	34009	0	0	0	16685	15330	152498	27260	955607	38108	106039	0	0	8174	760776	0	0
2024-04-30 05:52:32			0	34025	0	0	0	16688	15330	152534	27229	955555	38119	106040	0	0	8175	759979	0	0
2024-04-30 05:53:32			0	34024	0	0	0	16690	15340	152514	27757	955616	38109	106041	0	0	8175	759988	0	0
2024-04-30 05:54:32			0	34022	0	0	0	16698	15340	152638	27599	955597	38121	106044	0	0	8175	760088	0	0
2024-04-30 05:55:32			0	34028	0	0	0	16688	15330	152514	27455	955573	38097	106040	0	0	8175	759830	0	0
2024-04-30 05:56:32			0	34022	0	0	0	16690	15340	152522	27492	955563	38087	106041	0	0	8175	760088	0	0
2024-04-30 05:57:32			0	34041	0	0	0	16690	15330	152454	27566	955626	38097	106041	0	0	8176	759183	0	0
2024-04-30 05:58:32			0	34031	0	0	0	16688	15340	152514	27554	955597	38110	106040	0	0	8176	759640	0	0
2024-04-30 05:59:32			0	34042	0	0	0	16696	15330	152494	27443	955626	38097	106043	0	0	8176	759134	0	0
2024-04-30 06:00:32			0	34026	0	0	0	16685	15330	152610	27241	955555	38119	106039	0	0	8175	759929	0	0
2024-04-30 06:01:32			0	34030	0	0	0	16685	15330	152610	27211	955573	38097	106039	0	0	8176	759730	0	0
2024-04-30 06:02:32			0	34014	0	0	0	16688	15330	152586	26974	955599	38097	106040	0	0	8175	760527	0	0
2024-04-30 06:03:32			0	34028	0	0	0	16685	15320	152626	27364	955530	38096	106039	0	0	8175	759871	0	0
2024-04-30 06:04:32			0	34006	0	0	0	16685	15330	152534	27319	955547	38108	106039	0	0	8174	760925	0	0
2024-04-30 06:05:32			0	33991	0	0	0	16683	15320	152718	27417	955539	38108	106038	0	0	8173	761713	0	0
2024-04-30 06:06:32			0	34001	0	0	0	16677	15330	152746	27488	955573	38097	106036	0	0	8174	761174	0	0
2024-04-30 06:07:32			0	33987	0	0	0	16675	15310	152654	27486	955575	38106	106035	0	0	8173	761954	0	0
2024-04-30 06:08:32			0	33995	0	0	0	16677	15320	152702	27490	955565	38108	106036	0	0	8174	761514	0	0
2024-04-30 06:09:32			0	34000	0	0	0	16675	15320	152754	27587	955530	38107	106035	0	0	8174	761265	0	0
2024-04-30 06:10:32			0	33980	0	0	0	16685	15320	152734	27286	955539	38108	106039	0	0	8173	762262	0	0
2024-04-30 06:11:32			0	33996	0	0	0	16677	15330	152814	27000	955547	38108	106036	0	0	8174	761423	0	0
2024-04-30 06:12:32			0	33980	0	0	0	16677	15320	152770	27298	955512	38097	106036	0	0	8173	762262	0	0
2024-04-30 06:13:32			0	33970	0	0	0	16683	15320	152598	27403	955504	38096	106038	0	0	8172	762761	0	0
2024-04-30 06:14:32			0	33994	0	0	0	16685	15310	152758	27274	955549	38106	106039	0	0	8173	761605	0	0
2024-04-30 06:15:32			0	33986	0	0	0	16683	15320	152770	27098	955539	38108	106038	0	0	8173	761963	0	0
2024-04-30 06:16:32			0	33982	0	0	0	16683	15320	152706	27216	955557	38096	106038	0	0	8173	762162	0	0
2024-04-30 06:17:32			0	34017	0	0	0	16680	15310	152722	27281	955549	38095	106037	0	0	8175	760459	0	0
2024-04-30 06:18:32			0	33990	0	0	0	16688	15320	152654	26963	955591	38108	106040	0	0	8173	761763	0	0
2024-04-30 06:19:32			0	33996	0	0	0	16693	15320	152526	27365	955644	38108	106042	0	0	8173	761464	0	0
2024-04-30 06:20:32			0	33993	0	0	0	16690	15320	152594	27251	955591	38108	106041	0	0	8173	761614	0	0
2024-04-30 06:21:32			0	34009	0	0	0	16683	15330	152542	27538	955573	38108	106038	0	0	8174	760776	0	0
2024-04-30 06:22:32			0	34009	0	0	0	16683	15320	152462	27635	955591	38108	106038	0	0	8174	760817	0	0
2024-04-30 06:23:32			0	34008	0	0	0	16688	15320	152462	27517	955565	38108	106040	0	0	8174	760866	0	0
2024-04-30 06:24:32			0	34033	0	0	0	16688	15320	152518	27691	955539	38097	106040	0	0	8176	759622	0	0
2024-04-30 06:25:32			0	34028	0	0	0	16680	15330	152546	27533	955607	38108	106037	0	0	8175	759830	0	0
2024-04-30 06:26:32			0	34042	0	0	0	16675	15330	152586	27114	955652	38108	106035	0	0	8176	759134	0	0
2024-04-30 06:27:32			0	34021	0	0	0	16680	15320	152582	27391	955565	38108	106037	0	0	8175	760219	0	0
2024-04-30 06:28:32			0	34013	0	0	0	16685	15320	152686	27367	955583	38085	106039	0	0	8174	760617	0	0
2024-04-30 06:29:32			0	34010	0	0	0	16685	15330	152546	27452	955555	38119	106039	0	0	8174	760726	0	0
2024-04-30 06:30:32			0	33999	0	0	0	16677	15320	152654	27445	955591	38108	106036	0	0	8174	761315	0	0
2024-04-30 06:31:32			0	33984	0	0	0	16677	15320	152686	27554	955591	38119	106036	0	0	8173	762062	0	0
2024-04-30 06:32:32			0	33974	0	0	0	16688	15320	152746	27348	955557	38107	106040	0	0	8172	762561	0	0
2024-04-30 06:33:32			0	33982	0	0	0	16688	15320	152778	27175	955565	38108	106040	0	0	8173	762162	0	0
2024-04-30 06:34:32			0	33967	0	0	0	16688	15320	152838	27557	955530	38118	106040	0	0	8172	762910	0	0
2024-04-30 06:35:32			0	33952	0	0	0	16690	15320	152878	27627	955557	38107	106041	0	0	8171	763659	0	0
2024-04-30 06:36:32			0	33948	0	0	0	16690	15320	152854	27166	955557	38107	106041	0	0	8171	763859	0	0
2024-04-30 06:37:32			0	33934	0	0	0	16690	15320	152874	27345	955583	38118	106041	0	0	8170	764559	0	0
2024-04-30 06:38:32			0	33938	0	0	0	16690	15310	152798	27358	955549	38117	106041	0	0	8170	764400	0	0
2024-04-30 06:39:32			0	33935	0	0	0	16680	15320	152870	27272	955591	38119	106037	0	0	8170	764509	0	0
2024-04-30 06:40:32			0	33957	0	0	0	16683	15330	152886	27307	955547	38108	106038	0	0	8171	763368	0	0
2024-04-30 06:41:32			0	33930	0	0	0	16685	15320	152898	27353	955591	38097	106039	0	0	8170	764759	0	0
2024-04-30 06:42:32			0	33954	0	0	0	16680	15320	152802	27537	955583	38107	106037	0	0	8171	763559	0	0
2024-04-30 06:43:32			0	33945	0	0	0	16683	15320	152802	27293	955565	38086	106038	0	0	8171	764009	0	0
2024-04-30 06:44:32			0	33962	0	0	0	16683	15330	152830	27334	955626	38108	106038	0	0	8172	763119	0	0
2024-04-30 06:45:32			0	33941	0	0	0	16688	15320	152862	27469	955512	38108	106040	0	0	8170	764209	0	0
2024-04-30 06:46:32			0	33966	0	0	0	16675	15320	152818	27796	955504	38107	106035	0	0	8172	762960	0	0
2024-04-30 06:47:32			0	33955	0	0	0	16677	15320	152790	27677	955557	38107	106036	0	0	8171	763509	0	0
2024-04-30 06:48:32			0	33958	0	0	0	16677	15310	152786	27672	955488	38106	106036	0	0	8171	763401	0	0
2024-04-30 06:49:32			0	33948	0	0	0	16675	15310	152990	27296	955575	38106	106035	0	0	8171	763900	0	0
2024-04-30 06:50:32			0	33934	0	0	0	16680	15310	152994	27672	955488	38095	106037	0	0	8170	764600	0	0
2024-04-30 06:51:32			0	33918	0	0	0	16688	15300	153110	27431	955585	38095	106040	0	0	8169	765441	0	0
2024-04-30 06:52:32			0	33901	0	0	0	16675	15320	153026	27670	955530	38107	106035	0	0	8168	766210	0	0
2024-04-30 06:53:32			0	33896	0	0	0	16677	15320	153190	27711	955609	38096	106036	0	0	8168	766460	0	0
2024-04-30 06:54:32			0	33885	0	0	0	16672	15320	153194	27718	955557	38096	106034	0	0	8167	767012	0	0
2024-04-30 06:55:32			0	33868	0	0	0	16683	15310	153242	27659	955514	38106	106038	0	0	8166	767905	0	0
2024-04-30 06:56:32			0	33873	0	0	0	16675	15310	153250	27758	955462	38106	106035	0	0	8166	767654	0	0
2024-04-30 06:57:32			0	33861	0	0	0	16677	15320	153374	27435	955539	38119	106036	0	0	8166	768215	0	0
2024-04-30 06:58:32			0	33838	0	0	0	16677	15300	153462	27684	955453	38106	106036	0	0	8164	769453	0	0
2024-04-30 06:59:32			0	33816	0	0	0	16680	15320	153618	27519	955530	38096	106037	0	0	8163	770476	0	0
2024-04-30 07:00:32			0	33788	0	0	0	16675	15320	153526	27575	955530	38107	106035	0	0	8161	771886	0	0
2024-04-30 07:01:32			0	33793	0	0	0	16670	15310	153586	27536	955522	38117	106033	0	0	8162	771675	0	0
2024-04-30 07:02:32			0	33785	0	0	0	16667	15310	153678	27575	955514	38095	106032	0	0	8161	772078	0	0
2024-04-30 07:03:32			0	33757	0	0	0	16670	15310	153686	27703	955575	38095	106033	0	0	8160	773490	0	0
2024-04-30 07:04:32			0	33764	0	0	0	16670	15300	153874	27781	955506	38106	106033	0	0	8160	773178	0	0
2024-04-30 07:05:32			0	33755	0	0	0	16677	15310	153822	27545	955540	38106	106036	0	0	8159	773591	0	0
2024-04-30 07:06:32			0	33745	0	0	0	16672	15310	153730	27488	955567	38106	106034	0	0	8159	774096	0	0
2024-04-30 07:07:32			0	33761	0	0	0	16672	15310	153818	27602	955470	38117	106034	0	0	8160	773288	0	0
2024-04-30 07:08:32			0	33743	0	0	0	16662	15310	153778	27486	955488	38117	106030	0	0	8159	774197	0	0
2024-04-30 07:09:32			0	33757	0	0	0	16664	15310	153770	27478	955514	38095	106031	0	0	8160	773490	0	0
2024-04-30 07:10:32			0	33748	0	0	0	16667	15310	153854	27279	955514	38106	106032	0	0	8159	773944	0	0
2024-04-30 07:11:32			0	33750	0	0	0	16670	15300	153934	27213	955506	38095	106033	0	0	8159	773885	0	0
2024-04-30 07:12:32			0	33726	0	0	0	16667	15320	153910	27741	955504	38096	106032	0	0	8158	775014	0	0
2024-04-30 07:13:32			0	33711	0	0	0	16670	15310	153882	27550	955567	38095	106033	0	0	8157	775814	0	0
2024-04-30 07:14:32			0	33709	0	0	0	16672	15310	153974	27376	955462	38106	106034	0	0	8157	775915	0	0
2024-04-30 07:15:32			0	33719	0	0	0	16670	15310	153958	27306	955514	38095	106033	0	0	8157	775409	0	0
2024-04-30 07:16:32			0	33701	0	0	0	16662	15310	154062	27665	955470	38106	106030	0	0	8157	776320	0	0
2024-04-30 07:17:32			0	33703	0	0	0	16667	15300	154182	27750	955532	38095	106032	0	0	8157	776260	0	0
2024-04-30 07:18:32			0	33669	0	0	0	16672	15300	154086	27416	955498	38105	106034	0	0	8154	777982	0	0
2024-04-30 07:19:32			0	33665	0	0	0	16662	15310	154210	27421	955522	38106	106030	0	0	8154	778143	0	0
2024-04-30 07:20:32			0	33658	0	0	0	16662	15310	154246	27833	955470	38095	106030	0	0	8154	778498	0	0
2024-04-30 07:21:32			0	33644	0	0	0	16662	15300	154250	27464	955453	38117	106030	0	0	8153	779251	0	0
2024-04-30 07:22:32			0	33640	0	0	0	16672	15300	154354	27606	955419	38105	106034	0	0	8153	779454	0	0
2024-04-30 07:23:32			0	33639	0	0	0	16667	15310	154326	27429	955522	38106	106032	0	0	8153	779463	0	0
2024-04-30 07:24:32			0	33623	0	0	0	16657	15300	154454	27483	955524	38117	106028	0	0	8152	780317	0	0
2024-04-30 07:25:32			0	33609	0	0	0	16659	15310	154454	27517	955540	38117	106029	0	0	8151	780987	0	0
2024-04-30 07:26:32			0	33609	0	0	0	16662	15300	154446	27275	955445	38105	106030	0	0	8151	781029	0	0
2024-04-30 07:27:32			0	33601	0	0	0	16667	15300	154410	27388	955532	38095	106032	0	0	8150	781436	0	0
2024-04-30 07:28:32			0	33592	0	0	0	16667	15300	154554	27670	955532	38106	106032	0	0	8150	781894	0	0
2024-04-30 07:29:32			0	33582	0	0	0	16667	15300	154486	27528	955480	38117	106032	0	0	8149	782403	0	0
2024-04-30 07:30:32			0	33588	0	0	0	16667	15310	154566	27923	955488	38117	106032	0	0	8150	782055	0	0
2024-04-30 07:31:32			0	33583	0	0	0	16662	15310	154662	27840	955496	38106	106030	0	0	8150	782310	0	0
2024-04-30 07:32:32			0	33571	0	0	0	16664	15310	154710	27829	955540	38106	106031	0	0	8149	782921	0	0
2024-04-30 07:33:32			0	33587	0	0	0	16670	15310	154674	27500	955514	38106	106033	0	0	8150	782106	0	0
2024-04-30 07:34:32			0	33568	0	0	0	16664	15300	154653	27776	955445	38094	106031	0	0	8149	783116	0	0
2024-04-30 07:35:32			0	33556	0	0	0	16675	15300	154713	27918	955453	38117	106035	0	0	8148	783728	0	0
2024-04-30 07:36:32			0	33566	0	0	0	16664	15300	154725	27900	955480	38106	106031	0	0	8148	783218	0	0
2024-04-30 07:37:32			0	33547	0	0	0	16667	15310	154661	27684	955593	38106	106032	0	0	8147	784145	0	0
2024-04-30 07:38:32			0	33538	0	0	0	16670	15310	154825	27847	955567	38095	106033	0	0	8147	784604	0	0
2024-04-30 07:39:32			0	33548	0	0	0	16670	15300	154749	27741	955585	38117	106033	0	0	8147	784136	0	0
2024-04-30 07:40:32			0	33554	0	0	0	16670	15310	154705	27694	955593	38106	106033	0	0	8148	783788	0	0
2024-04-30 07:41:32			0	33535	0	0	0	16667	15310	154733	27479	955514	38106	106032	0	0	8147	784757	0	0
2024-04-30 07:42:32			0	33559	0	0	0	16670	15310	154809	27715	955549	38106	106033	0	0	8148	783533	0	0
2024-04-30 07:43:32			0	33556	0	0	0	16662	15310	154729	27557	955514	38117	106030	0	0	8148	783686	0	0
2024-04-30 07:44:32			0	33566	0	0	0	16664	15310	154689	27419	955540	38106	106031	0	0	8149	783176	0	0
2024-04-30 07:45:32			0	33534	0	0	0	16667	15300	154805	27459	955506	38106	106032	0	0	8147	784850	0	0
2024-04-30 07:46:32			0	33539	0	0	0	16662	15310	154741	27512	955567	38106	106030	0	0	8147	784553	0	0
2024-04-30 07:47:32			0	33549	0	0	0	16667	15310	154717	27706	955567	38106	106032	0	0	8147	784043	0	0
2024-04-30 07:48:32			0	33561	0	0	0	16662	15300	154718	27665	955506	38106	106030	0	0	8148	783473	0	0
2024-04-30 07:49:32			0	33554	0	0	0	16670	15310	154689	27517	955470	38106	106033	0	0	8148	783788	0	0
2024-04-30 07:50:32			0	33578	0	0	0	16662	15310	154702	27583	955567	38106	106030	0	0	8149	782565	0	0
2024-04-30 07:51:32			0	33568	0	0	0	16664	15310	154697	27680	955514	38095	106031	0	0	8149	783074	0	0
2024-04-30 07:52:32			0	33582	0	0	0	16670	15300	154613	27809	955559	38095	106033	0	0	8149	782403	0	0
2024-04-30 07:53:32			0	33591	0	0	0	16670	15300	154546	27772	955506	38106	106033	0	0	8150	781945	0	0
2024-04-30 07:54:32			0	33599	0	0	0	16672	15310	154606	27713	955575	38106	106034	0	0	8150	781496	0	0
2024-04-30 07:55:32			0	33601	0	0	0	16675	15310	154510	27798	955496	38117	106035	0	0	8150	781394	0	0
2024-04-30 07:56:32			0	33608	0	0	0	16677	15310	154590	27897	955540	38106	106036	0	0	8151	781038	0	0
2024-04-30 07:57:32			0	33587	0	0	0	16672	15320	154526	27845	955609	38107	106034	0	0	8150	782064	0	0
2024-04-30 07:58:32			0	33614	0	0	0	16680	15310	154482	27578	955514	38095	106037	0	0	8151	780733	0	0
2024-04-30 07:59:32			0	33627	0	0	0	16675	15310	154562	27810	955601	38106	106035	0	0	8152	780072	0	0
2024-04-30 08:00:32			0	33627	0	0	0	16675	15310	154522	27576	955567	38106	106035	0	0	8152	780072	0	0
2024-04-30 08:01:32			0	33630	0	0	0	16685	15310	154414	27876	955567	38117	106039	0	0	8152	779920	0	0
2024-04-30 08:02:32			0	33623	0	0	0	16675	15320	154482	27966	955609	38096	106035	0	0	8152	780233	0	0
2024-04-30 08:03:32			0	33631	0	0	0	16685	15320	154406	28039	955565	38108	106039	0	0	8152	779827	0	0
2024-04-30 08:04:32			0	33636	0	0	0	16685	15310	154386	27939	955601	38117	106039	0	0	8152	779615	0	0
2024-04-30 08:05:32			0	33635	0	0	0	16683	15320	154338	27659	955557	38107	106038	0	0	8152	779624	0	0
2024-04-30 08:06:32			0	33618	0	0	0	16683	15300	154298	27798	955585	38106	106038	0	0	8151	780571	0	0
2024-04-30 08:07:32			0	33649	0	0	0	16683	15320	154322	27812	955644	38097	106038	0	0	8153	778913	0	0
2024-04-30 08:08:32			0	33653	0	0	0	16683	15320	154294	27760	955636	38096	106038	0	0	8153	778710	0	0
2024-04-30 08:09:32			0	33666	0	0	0	16685	15330	154282	27651	955573	38119	106039	0	0	8154	778009	0	0
2024-04-30 08:10:32			0	33666	0	0	0	16685	15320	154214	27640	955662	38107	106039	0	0	8154	778051	0	0
2024-04-30 08:11:32			0	33699	0	0	0	16688	15310	154078	27906	955619	38106	106040	0	0	8156	776421	0	0
2024-04-30 08:12:32			0	33722	0	0	0	16680	15320	153866	27708	955609	38107	106037	0	0	8158	775216	0	0
2024-04-30 08:13:32			0	33776	0	0	0	16685	15320	153846	27447	955609	38107	106039	0	0	8161	772490	0	0
2024-04-30 08:14:32			0	33805	0	0	0	16685	15310	153622	27535	955654	38106	106039	0	0	8162	771071	0	0
2024-04-30 08:15:32			0	33822	0	0	0	16677	15320	153518	27805	955636	38107	106036	0	0	8163	770174	0	0
2024-04-30 08:16:32			0	33853	0	0	0	16683	15330	153394	27895	955573	38108	106038	0	0	8165	768575	0	0
2024-04-30 08:17:32			0	33841	0	0	0	16688	15330	153382	27913	955626	38108	106040	0	0	8164	769178	0	0
2024-04-30 08:18:32			0	33862	0	0	0	16690	15330	153302	27895	955652	38108	106041	0	0	8166	768124	0	0
2024-04-30 08:19:32			0	33844	0	0	0	16683	15320	153342	27831	955618	38108	106038	0	0	8165	769069	0	0
2024-04-30 08:20:32			0	33857	0	0	0	16685	15330	153294	27715	955626	38097	106039	0	0	8165	768375	0	0
2024-04-30 08:21:32			0	33838	0	0	0	16698	15330	153470	27665	955652	38108	106044	0	0	8164	769329	0	0
2024-04-30 08:22:32			0	33833	0	0	0	16693	15320	153550	27788	955609	38107	106042	0	0	8164	769621	0	0
2024-04-30 08:23:32			0	33825	0	0	0	16698	15340	153602	27862	955721	38141	106044	0	0	8163	769941	0	0
2024-04-30 08:24:32			0	33818	0	0	0	16693	15330	153574	27549	955626	38108	106042	0	0	8163	770334	0	0
2024-04-30 08:25:32			0	33810	0	0	0	16698	15330	153638	27812	955599	38119	106044	0	0	8162	770736	0	0
2024-04-30 08:26:32			0	33798	0	0	0	16696	15330	153642	27885	955626	38108	106043	0	0	8162	771340	0	0
2024-04-30 08:27:32			0	33815	0	0	0	16693	15330	153590	27722	955660	38108	106042	0	0	8163	770485	0	0
2024-04-30 08:28:32			0	33821	0	0	0	16685	15330	153570	27395	955660	38119	106039	0	0	8163	770183	0	0
2024-04-30 08:29:32			0	33830	0	0	0	16683	15320	153578	27460	955539	38119	106038	0	0	8164	769772	0	0
2024-04-30 08:30:32			0	33831	0	0	0	16688	15330	153450	27731	955547	38119	106040	0	0	8164	769680	0	0
2024-04-30 08:31:32			0	33844	0	0	0	16696	15340	153418	27526	955616	38120	106043	0	0	8165	768986	0	0
2024-04-30 08:32:32			0	33817	0	0	0	16696	15330	153426	27977	955652	38108	106043	0	0	8163	770384	0	0
2024-04-30 08:33:32			0	33830	0	0	0	16698	15340	153518	27696	955616	38109	106044	0	0	8164	769689	0	0
2024-04-30 08:34:32			0	33823	0	0	0	16701	15330	153582	27561	955678	38119	106045	0	0	8163	770083	0	0
2024-04-30 08:35:32			0	33824	0	0	0	16701	15340	153562	27599	955616	38109	106045	0	0	8163	769991	0	0
2024-04-30 08:36:32			0	33824	0	0	0	16709	15330	153574	27585	955713	38119	106048	0	0	8163	770032	0	0
2024-04-30 08:37:32			0	33797	0	0	0	16714	15350	153578	27744	955685	38131	106050	0	0	8161	771308	0	0
2024-04-30 08:38:32			0	33801	0	0	0	16716	15340	153590	27412	955729	38131	106051	0	0	8162	771148	0	0
2024-04-30 08:39:32			0	33803	0	0	0	16722	15350	153602	27431	955719	38110	106053	0	0	8162	771006	0	0
2024-04-30 08:40:32			0	33804	0	0	0	16724	15350	153666	27715	955711	38121	106054	0	0	8162	770955	0	0
2024-04-30 08:41:32			0	33802	0	0	0	16732	15340	153626	27722	955729	38110	106057	0	0	8161	771098	0	0
2024-04-30 08:42:32			0	33790	0	0	0	16732	15350	153662	27687	955790	38131	106057	0	0	8161	771660	0	0
2024-04-30 08:43:32			0	33798	0	0	0	16737	15350	153622	27711	955790	38121	106059	0	0	8161	771258	0	0
2024-04-30 08:44:32			0	33779	0	0	0	16750	15360	153698	27367	955753	38110	106064	0	0	8160	772173	0	0
2024-04-30 08:45:32			0	33784	0	0	0	16748	15360	153698	27445	955780	38110	106063	0	0	8160	771921	0	0
2024-04-30 08:46:32			0	33778	0	0	0	16753	15360	153694	27313	955806	38122	106065	0	0	8160	772223	0	0
2024-04-30 08:47:32			0	33783	0	0	0	16755	15370	153654	27646	955849	38133	106066	0	0	8160	771930	0	0
2024-04-30 08:48:32			0	33794	0	0	0	16761	15370	153738	27376	955849	38122	106068	0	0	8161	771376	0	0
2024-04-30 08:49:32			0	33790	0	0	0	16761	15380	153686	27196	955847	38113	106068	0	0	8160	771536	0	0
2024-04-30 08:50:32			0	33781	0	0	0	16761	15380	153570	27767	955839	38123	106068	0	0	8160	771989	0	0
2024-04-30 08:51:32			0	33803	0	0	0	16758	15380	153606	27495	955873	38124	106067	0	0	8161	770881	0	0
2024-04-30 08:52:32			0	33793	0	0	0	16761	15380	153674	27234	955821	38124	106068	0	0	8161	771385	0	0
2024-04-30 08:53:32			0	33779	0	0	0	16755	15380	153618	27663	955839	38123	106066	0	0	8160	772090	0	0
2024-04-30 08:54:32			0	33774	0	0	0	16755	15380	153638	27462	955900	38124	106066	0	0	8160	772342	0	0
2024-04-30 08:55:32			0	33766	0	0	0	16753	15390	153670	27542	955863	38135	106065	0	0	8159	772704	0	0
2024-04-30 08:56:32			0	33762	0	0	0	16768	15390	153770	27795	955890	38135	106071	0	0	8159	772905	0	0
2024-04-30 08:57:32			0	33765	0	0	0	16763	15380	153758	27996	955926	38134	106069	0	0	8159	772796	0	0
2024-04-30 08:58:32			0	33793	0	0	0	16766	15390	153622	27452	955908	38114	106070	0	0	8161	771343	0	0
2024-04-30 08:59:32			0	33801	0	0	0	16774	15390	153606	27640	955934	38125	106073	0	0	8161	770941	0	0
2024-04-30 09:00:32			0	33820	0	0	0	16771	15390	153458	27862	955942	38125	106072	0	0	8162	769985	0	0
2024-04-30 09:01:32			0	33853	0	0	0	16768	15400	153382	27651	955898	38125	106071	0	0	8164	768286	0	0
2024-04-30 09:02:32			0	33866	0	0	0	16781	15400	153262	27625	955977	38125	106076	0	0	8165	767634	0	0
2024-04-30 09:03:32			0	33871	0	0	0	16774	15400	153262	27679	955959	38136	106073	0	0	8165	767383	0	0
2024-04-30 09:04:32			0	33881	0	0	0	16779	15400	153206	27535	955951	38125	106075	0	0	8166	766882	0	0
2024-04-30 09:05:32			0	33902	0	0	0	16789	15400	153238	27367	955977	38125	106079	0	0	8167	765830	0	0
2024-04-30 09:06:32			0	33882	0	0	0	16789	15400	153102	27171	955951	38114	106079	0	0	8165	766832	0	0
2024-04-30 09:07:32			0	33902	0	0	0	16789	15400	153086	27500	956011	38115	106079	0	0	8167	765830	0	0
2024-04-30 09:08:32			0	33899	0	0	0	16792	15420	153030	27443	956009	38137	106080	0	0	8166	765898	0	0
2024-04-30 09:09:32			0	33909	0	0	0	16794	15420	153082	27277	956018	38127	106081	0	0	8167	765398	0	0
2024-04-30 09:10:32			0	33888	0	0	0	16794	15420	153074	27405	956018	38127	106081	0	0	8166	766449	0	0
2024-04-30 09:11:32			0	33888	0	0	0	16802	15420	152994	27360	956070	38127	106084	0	0	8166	766449	0	0
2024-04-30 09:12:32			0	33883	0	0	0	16799	15420	153162	27199	956062	38126	106083	0	0	8165	766699	0	0
2024-04-30 09:13:32			0	33864	0	0	0	16812	15420	153238	27563	956070	38116	106088	0	0	8164	767652	0	0
2024-04-30 09:14:32			0	33890	0	0	0	16812	15420	153218	27357	956044	38138	106088	0	0	8166	766349	0	0
2024-04-30 09:15:32			0	33910	0	0	0	16807	15420	153170	27445	956070	38138	106086	0	0	8167	765348	0	0
2024-04-30 09:16:32			0	33940	0	0	0	16818	15430	152986	27286	956131	38117	106090	0	0	8168	763807	0	0
2024-04-30 09:17:32			0	33936	0	0	0	16823	15440	152798	27663	956147	38128	106092	0	0	8168	763966	0	0
2024-04-30 09:18:32			0	33978	0	0	0	16820	15440	152682	27649	956042	38139	106091	0	0	8171	761870	0	0
2024-04-30 09:19:32			0	34019	0	0	0	16825	15440	152542	27237	956129	38150	106093	0	0	8173	759828	0	0
2024-04-30 09:20:32			0	34024	0	0	0	16828	15450	152494	27197	956164	38140	106094	0	0	8173	759539	0	0
2024-04-30 09:21:32			0	34040	0	0	0	16825	15450	152418	27078	956216	38129	106093	0	0	8174	758743	0	0
2024-04-30 09:22:32			0	34038	0	0	0	16820	15450	152362	27358	956111	38129	106091	0	0	8174	758843	0	0
2024-04-30 09:23:32			0	34044	0	0	0	16825	15440	152282	27348	956129	38139	106093	0	0	8174	758586	0	0
2024-04-30 09:24:32			0	34052	0	0	0	16828	15440	152350	27561	956155	38128	106094	0	0	8175	758188	0	0
2024-04-30 09:25:32			0	34039	0	0	0	16836	15450	152406	27623	956164	38129	106097	0	0	8174	758793	0	0
2024-04-30 09:26:32			0	34028	0	0	0	16823	15440	152498	27355	956103	38150	106092	0	0	8174	759381	0	0
2024-04-30 09:27:32			0	34028	0	0	0	16825	15450	152490	27222	956111	38140	106093	0	0	8174	759340	0	0
2024-04-30 09:28:32			0	34012	0	0	0	16818	15460	152626	27156	956206	38120	106090	0	0	8173	760095	0	0
2024-04-30 09:29:32			0	33994	0	0	0	16818	15450	152622	27440	956164	38129	106090	0	0	8172	761032	0	0
2024-04-30 09:30:32			0	33975	0	0	0	16815	15460	152802	27135	956180	38130	106089	0	0	8171	761937	0	0
2024-04-30 09:31:32			0	33938	0	0	0	16818	15450	152786	27479	956145	38119	106090	0	0	8168	763825	0	0
2024-04-30 09:32:32			0	33946	0	0	0	16802	15440	152814	27270	956103	38128	106084	0	0	8169	763466	0	0
2024-04-30 09:33:32			0	33921	0	0	0	16802	15450	152926	27306	956119	38129	106084	0	0	8168	764674	0	0
2024-04-30 09:34:32			0	33905	0	0	0	16802	15450	153034	27263	956137	38119	106084	0	0	8167	765474	0	0
2024-04-30 09:35:32			0	33891	0	0	0	16794	15450	153202	27405	956085	38119	106081	0	0	8166	766175	0	0
2024-04-30 09:36:32			0	33880	0	0	0	16794	15450	153138	27282	956093	38129	106081	0	0	8165	766726	0	0
2024-04-30 09:37:32			0	33865	0	0	0	16794	15440	153222	27306	956129	38118	106081	0	0	8165	767519	0	0
2024-04-30 09:38:32			0	33863	0	0	0	16799	15450	153122	27265	956085	38140	106083	0	0	8164	767578	0	0
2024-04-30 09:39:32			0	33879	0	0	0	16802	15440	153274	27367	956147	38118	106084	0	0	8165	766817	0	0
2024-04-30 09:40:32			0	33857	0	0	0	16794	15450	153210	27379	956111	38140	106081	0	0	8164	767879	0	0
2024-04-30 09:41:32			0	33873	0	0	0	16799	15440	153266	27249	956103	38139	106083	0	0	8165	767118	0	0
2024-04-30 09:42:32			0	33870	0	0	0	16805	15450	153146	27369	956111	38140	106085	0	0	8165	767227	0	0
2024-04-30 09:43:32			0	33866	0	0	0	16802	15450	153234	27561	956137	38129	106084	0	0	8165	767428	0	0
2024-04-30 09:44:32			0	33857	0	0	0	16802	15450	153278	27274	956085	38129	106084	0	0	8164	767879	0	0
2024-04-30 09:45:32			0	33846	0	0	0	16805	15450	153326	27731	956111	38129	106085	0	0	8163	768431	0	0
2024-04-30 09:46:32			0	33838	0	0	0	16805	15450	153350	27343	956058	38119	106085	0	0	8163	768832	0	0
2024-04-30 09:47:32			0	33851	0	0	0	16810	15440	153338	27235	956121	38139	106087	0	0	8163	768221	0	0
2024-04-30 09:48:32			0	33842	0	0	0	16805	15440	153422	27208	956129	38139	106085	0	0	8163	768673	0	0
2024-04-30 09:49:32			0	33841	0	0	0	16812	15450	153282	27476	956040	38140	106088	0	0	8163	768682	0	0
2024-04-30 09:50:32			0	33838	0	0	0	16818	15450	153310	27646	956137	38140	106090	0	0	8163	768832	0	0
2024-04-30 09:51:32			0	33818	0	0	0	16810	15440	153342	27474	956103	38128	106087	0	0	8162	769879	0	0
2024-04-30 09:52:32			0	33845	0	0	0	16823	15440	153470	27611	956121	38150	106092	0	0	8163	768522	0	0
2024-04-30 09:53:32			0	33827	0	0	0	16825	15450	153430	27144	956119	38129	106093	0	0	8162	769385	0	0
2024-04-30 09:54:32			0	33833	0	0	0	16844	15450	153450	27428	956190	38140	106100	0	0	8162	769084	0	0
2024-04-30 09:55:32			0	33846	0	0	0	16846	15450	153406	27609	956172	38129	106101	0	0	8163	768431	0	0
2024-04-30 09:56:32			0	33846	0	0	0	16844	15450	153430	27395	956216	38140	106100	0	0	8163	768431	0	0
2024-04-30 09:57:32			0	33873	0	0	0	16836	15460	153366	27345	956154	38141	106097	0	0	8164	767035	0	0
2024-04-30 09:58:32			0	33912	0	0	0	16851	15450	153026	27338	956277	38151	106103	0	0	8166	765124	0	0
2024-04-30 09:59:32			0	33961	0	0	0	16857	15460	152774	27409	956241	38130	106105	0	0	8169	762636	0	0
2024-04-30 10:00:32			0	34060	0	0	0	16857	15470	152442	27519	956310	38142	106105	0	0	8175	757669	0	0
2024-04-30 10:01:32			0	34144	0	0	0	16862	15470	152058	27644	956283	38131	106107	0	0	8180	753509	0	0
2024-04-30 10:02:32			0	34201	0	0	0	16877	15470	151718	27507	956249	38142	106113	0	0	8183	750696	0	0
2024-04-30 10:03:32			0	34252	0	0	0	16877	15480	151474	27400	956291	38132	106113	0	0	8186	748147	0	0
2024-04-30 10:04:32			0	34290	0	0	0	16872	15480	151226	27554	956352	38154	106111	0	0	8188	746281	0	0
2024-04-30 10:05:32			0	34323	0	0	0	16880	15490	151182	27209	956308	38144	106114	0	0	8190	744624	0	0
2024-04-30 10:06:32			0	34332	0	0	0	16872	15490	151182	27628	956368	38156	106111	0	0	8191	744184	0	0
2024-04-30 10:07:32			0	34314	0	0	0	16877	15500	151226	27523	956403	38133	106113	0	0	8189	745025	0	0
2024-04-30 10:08:32			0	34265	0	0	0	16877	15490	151402	27750	956334	38144	106113	0	0	8187	747468	0	0
2024-04-30 10:09:32			0	34228	0	0	0	16888	15510	151594	27526	956341	38145	106117	0	0	8184	749206	0	0
2024-04-30 10:10:32			0	34160	0	0	0	16885	15490	151854	27625	956395	38156	106116	0	0	8180	752638	0	0
2024-04-30 10:11:32			0	34095	0	0	0	16885	15500	152054	27364	956403	38144	106116	0	0	8177	755811	0	0
2024-04-30 10:12:32			0	34066	0	0	0	16898	15500	152258	27428	956385	38134	106121	0	0	8175	757249	0	0
2024-04-30 10:13:32			0	34029	0	0	0	16896	15510	152338	27552	956393	38134	106120	0	0	8173	759045	0	0
2024-04-30 10:14:32			0	33986	0	0	0	16903	15510	152650	27498	956480	38135	106123	0	0	8170	761184	0	0
2024-04-30 10:15:32			0	33962	0	0	0	16914	15520	152726	27760	956462	38157	106127	0	0	8169	762339	0	0
2024-04-30 10:16:32			0	33939	0	0	0	16922	15510	152890	27698	956454	38146	106130	0	0	8167	763528	0	0
2024-04-30 10:17:32			0	33922	0	0	0	16932	15520	152946	27386	956549	38147	106134	0	0	8166	764336	0	0
2024-04-30 10:18:32			0	33891	0	0	0	16937	15520	153026	27364	956549	38158	106136	0	0	8164	765887	0	0
2024-04-30 10:19:32			0	33882	0	0	0	16948	15530	153046	27474	956584	38136	106140	0	0	8163	766296	0	0
2024-04-30 10:20:32			0	33867	0	0	0	16945	15540	153082	27315	956574	38148	106139	0	0	8163	767006	0	0
2024-04-30 10:21:32			0	33898	0	0	0	16935	15540	153086	27665	956574	38148	106135	0	0	8165	765454	0	0
2024-04-30 10:22:32			0	33902	0	0	0	16914	15540	152882	27445	956529	38138	106127	0	0	8165	765254	0	0
2024-04-30 10:23:32			0	33938	0	0	0	16922	15540	152858	27788	956503	38160	106130	0	0	8167	763455	0	0
2024-04-30 10:24:32			0	33925	0	0	0	16924	15530	152878	27410	956460	38148	106131	0	0	8166	764145	0	0
2024-04-30 10:25:32			0	33930	0	0	0	16922	15540	152774	27571	956529	38160	106130	0	0	8167	763854	0	0
2024-04-30 10:26:32			0	33909	0	0	0	16932	15540	152998	27722	956521	38137	106134	0	0	8165	764904	0	0
2024-04-30 10:27:32			0	33892	0	0	0	16948	15540	153058	27419	956582	38160	106140	0	0	8164	765754	0	0
2024-04-30 10:28:32			0	33867	0	0	0	16948	15550	153082	27788	956643	38170	106140	0	0	8163	766965	0	0
2024-04-30 10:29:32			0	33870	0	0	0	16948	15550	153250	27303	956677	38171	106140	0	0	8163	766814	0	0
2024-04-30 10:30:32			0	33828	0	0	0	16950	15550	153238	28096	956625	38161	106141	0	0	8160	768921	0	0
2024-04-30 10:31:32			0	33806	0	0	0	16963	15560	153406	27246	956667	38161	106146	0	0	8159	769985	0	0
2024-04-30 10:32:32			0	33819	0	0	0	16971	15570	153414	27573	956657	38162	106149	0	0	8159	769290	0	0
2024-04-30 10:33:32			0	33797	0	0	0	17005	15570	153486	27517	956781	38151	106162	0	0	8158	770396	0	0
2024-04-30 10:34:32			0	33796	0	0	0	17023	15580	153554	27421	956823	38162	106169	0	0	8157	770404	0	0
2024-04-30 10:35:32			0	33790	0	0	0	17023	15600	153438	27495	956927	38164	106169	0	0	8157	770623	0	0
2024-04-30 10:36:32			0	33803	0	0	0	17075	15590	153594	27718	956866	38164	106189	0	0	8157	770011	0	0
2024-04-30 10:37:32			0	33812	0	0	0	17077	15610	153514	27984	957049	38165	106190	0	0	8157	769476	0	0
2024-04-30 10:38:32			0	33819	0	0	0	17090	15620	153390	27293	957099	38166	106195	0	0	8158	769083	0	0
2024-04-30 10:39:32			0	33825	0	0	0	17088	15640	153442	27334	957080	38178	106194	0	0	8158	768699	0	0
2024-04-30 10:40:32			0	33830	0	0	0	17080	15650	153350	27588	957070	38179	106191	0	0	8159	768407	0	0
2024-04-30 10:41:32			0	33845	0	0	0	17093	15650	153306	27850	957175	38179	106196	0	0	8159	767654	0	0
2024-04-30 10:42:32			0	33829	0	0	0	17116	15670	153326	27542	957226	38191	106205	0	0	8158	768374	0	0
2024-04-30 10:43:32			0	33833	0	0	0	17140	15670	153234	27403	957181	38192	106214	0	0	8158	768173	0	0
2024-04-30 10:44:32			0	33876	0	0	0	17179	15690	153162	27680	957319	38194	106229	0	0	8160	765936	0	0
2024-04-30 10:45:32			0	33870	0	0	0	17179	15710	153070	27533	957344	38195	106229	0	0	8160	766154	0	0
2024-04-30 10:46:32			0	33846	0	0	0	17171	15710	153222	27840	957299	38195	106226	0	0	8158	767356	0	0
2024-04-30 10:47:32			0	33806	0	0	0	17155	15720	153378	27679	957394	38186	106220	0	0	8156	769322	0	0
2024-04-30 10:48:32			0	33771	0	0	0	17098	15740	153494	27656	957393	38198	106198	0	0	8155	770998	0	0
2024-04-30 10:49:32			0	33763	0	0	0	17096	15720	153522	27585	957342	38197	106197	0	0	8155	771483	0	0
2024-04-30 10:50:32			0	33778	0	0	0	17098	15720	153462	27530	957315	38175	106198	0	0	8156	770729	0	0
2024-04-30 10:51:32			0	33791	0	0	0	17109	15730	153366	27810	957411	38186	106202	0	0	8156	770034	0	0
2024-04-30 10:52:32			0	33799	0	0	0	17122	15730	153290	27874	957350	38186	106207	0	0	8157	769632	0	0
2024-04-30 10:53:32			0	33805	0	0	0	17124	15740	153286	27720	957374	38188	106208	0	0	8157	769289	0	0
2024-04-30 10:54:32			0	33801	0	0	0	17137	15740	153334	28010	957419	38187	106213	0	0	8156	769490	0	0
2024-04-30 10:55:32			0	33811	0	0	0	17145	15740	153230	27845	957427	38199	106216	0	0	8157	768988	0	0
2024-04-30 10:56:32			0	33804	0	0	0	17174	15750	153174	27597	957488	38188	106227	0	0	8156	769298	0	0
2024-04-30 10:57:32			0	33824	0	0	0	17174	15760	153174	27734	957513	38189	106227	0	0	8157	768252	0	0
2024-04-30 10:58:32			0	33828	0	0	0	17205	15750	153186	27466	957523	38210	106239	0	0	8157	768093	0	0
2024-04-30 10:59:32			0	33813	0	0	0	17194	15770	153034	27533	957573	38179	106235	0	0	8156	768763	0	0
2024-04-30 11:00:32			0	33850	0	0	0	17223	15780	152950	27576	957677	38202	106246	0	0	8158	766867	0	0
2024-04-30 11:01:32			0	33857	0	0	0	17241	15790	152998	27802	957693	38203	106253	0	0	8158	766475	0	0
2024-04-30 11:02:32			0	33868	0	0	0	17270	15800	152982	27873	957736	38204	106264	0	0	8158	765883	0	0
2024-04-30 11:03:32			0	33868	0	0	0	17298	15810	152978	28008	957858	38216	106275	0	0	8158	765842	0	0
2024-04-30 11:04:32			0	33837	0	0	0	17353	15830	153178	27828	957856	38216	106296	0	0	8155	767311	0	0
2024-04-30 11:05:32			0	33788	0	0	0	17386	15840	153490	27947	957951	38217	106309	0	0	8152	769728	0	0
2024-04-30 11:06:32			0	33706	0	0	0	17389	15860	153766	27902	958097	38219	106310	0	0	8147	773773	0	0
2024-04-30 11:07:32			0	33627	0	0	0	17379	15890	154078	27417	958138	38233	106306	0	0	8143	777640	0	0
2024-04-30 11:08:32			0	33600	0	0	0	17399	15900	154246	27789	958146	38211	106314	0	0	8141	778967	0	0
2024-04-30 11:09:32			0	33562	0	0	0	17389	15900	154361	27755	958155	38223	106310	0	0	8139	780896	0	0
2024-04-30 11:10:32			0	33552	0	0	0	17384	15920	154513	27653	958179	38235	106308	0	0	8138	781320	0	0
2024-04-30 11:11:32			0	33524	0	0	0	17381	15940	154513	27744	958212	38215	106307	0	0	8137	782660	0	0
2024-04-30 11:12:32			0	33519	0	0	0	17371	15930	154545	27554	958248	38214	106303	0	0	8137	782957	0	0
2024-04-30 11:13:32			0	33513	0	0	0	17345	15930	154613	27855	958195	38225	106293	0	0	8137	783262	0	0
2024-04-30 11:14:32			0	33505	0	0	0	17332	15930	154625	27578	958116	38214	106288	0	0	8137	783670	0	0
2024-04-30 11:15:32			0	33486	0	0	0	17311	15940	154573	27578	958133	38215	106280	0	0	8136	784596	0	0
2024-04-30 11:16:32			0	33489	0	0	0	17285	15930	154617	27904	958090	38204	106270	0	0	8136	784486	0	0
2024-04-30 11:17:32			0	33474	0	0	0	17283	15930	154681	27514	958037	38204	106269	0	0	8136	785251	0	0
2024-04-30 11:18:32			0	33504	0	0	0	17280	15910	154597	27415	958013	38212	106268	0	0	8137	783805	0	0
2024-04-30 11:19:32			0	33484	0	0	0	17275	15930	154541	27443	958037	38204	106266	0	0	8136	784741	0	0
2024-04-30 11:20:32			0	33505	0	0	0	17272	15910	154537	27479	958057	38191	106265	0	0	8137	783754	0	0
2024-04-30 11:21:32			0	33516	0	0	0	17277	15910	154485	27493	958031	38212	106267	0	0	8138	783194	0	0
2024-04-30 11:22:32			0	33534	0	0	0	17301	15910	154473	27904	958039	38212	106276	0	0	8139	782277	0	0
2024-04-30 11:23:32			0	33546	0	0	0	17311	15930	154253	27757	958064	38204	106280	0	0	8139	781583	0	0
2024-04-30 11:24:32			0	33578	0	0	0	17298	15920	154190	27633	958082	38225	106275	0	0	8141	779999	0	0
2024-04-30 11:25:32			0	33596	0	0	0	17280	15910	154122	28086	958031	38212	106268	0	0	8143	779127	0	0
2024-04-30 11:26:32			0	33576	0	0	0	17270	15910	154177	27843	958013	38212	106264	0	0	8142	780143	0	0
2024-04-30 11:27:32			0	33607	0	0	0	17285	15910	154114	27892	958005	38234	106270	0	0	8143	778570	0	0
2024-04-30 11:28:32			0	33621	0	0	0	17259	15920	154038	27739	958021	38203	106260	0	0	8145	777818	0	0
2024-04-30 11:29:32			0	33625	0	0	0	17277	15900	154010	27424	957944	38212	106267	0	0	8144	777700	0	0
2024-04-30 11:30:32			0	33616	0	0	0	17257	15910	154066	27765	957978	38212	106259	0	0	8144	778114	0	0
2024-04-30 11:31:32			0	33615	0	0	0	17254	15900	153930	27424	957988	38201	106258	0	0	8144	778206	0	0
2024-04-30 11:32:32			0	33599	0	0	0	17275	15900	153990	27602	957996	38202	106266	0	0	8143	779017	0	0
2024-04-30 11:33:32			0	33594	0	0	0	17296	15900	154134	27524	957996	38202	106274	0	0	8142	779271	0	0
2024-04-30 11:34:32			0	33568	0	0	0	17322	15910	154341	27770	958110	38223	106284	0	0	8140	780549	0	0
2024-04-30 11:35:32			0	33544	0	0	0	17327	15920	154505	27666	958047	38213	106286	0	0	8139	781727	0	0
2024-04-30 11:36:32			0	33513	0	0	0	17350	15910	154521	27646	958092	38223	106295	0	0	8137	783347	0	0
2024-04-30 11:37:32			0	33503	0	0	0	17340	15940	154717	27614	958185	38226	106291	0	0	8136	783730	0	0
2024-04-30 11:38:32			0	33473	0	0	0	17348	15940	154873	27840	958185	38226	106294	0	0	8134	785260	0	0
2024-04-30 11:39:32			0	33467	0	0	0	17363	15950	154925	27582	958202	38215	106300	0	0	8134	785524	0	0
2024-04-30 11:40:32			0	33447	0	0	0	17379	15950	154889	27462	958228	38227	106306	0	0	8132	786545	0	0
2024-04-30 11:41:32			0	33433	0	0	0	17399	15970	154933	27364	958340	38239	106314	0	0	8131	787176	0	0
2024-04-30 11:42:32			0	33447	0	0	0	17420	15970	154845	27601	958392	38228	106322	0	0	8132	786460	0	0
2024-04-30 11:43:32			0	33446	0	0	0	17407	15970	154945	27405	958374	38240	106317	0	0	8132	786512	0	0
2024-04-30 11:44:32			0	33447	0	0	0	17433	15990	154893	27530	958425	38231	106327	0	0	8132	786375	0	0
2024-04-30 11:45:32			0	33459	0	0	0	17431	16000	154765	27538	958441	38231	106326	0	0	8132	785720	0	0
2024-04-30 11:46:32			0	33457	0	0	0	17431	15990	154757	27395	958486	38231	106326	0	0	8132	785865	0	0
2024-04-30 11:47:32			0	33498	0	0	0	17425	16000	154693	27758	958502	38232	106324	0	0	8135	783731	0	0
2024-04-30 11:48:32			0	33505	0	0	0	17415	16010	154593	27694	958466	38244	106320	0	0	8136	783332	0	0
2024-04-30 11:49:32			0	33530	0	0	0	17412	16010	154481	27535	958484	38221	106319	0	0	8137	782059	0	0
2024-04-30 11:50:32			0	33535	0	0	0	17420	16010	154369	27666	958405	38233	106322	0	0	8137	781805	0	0
2024-04-30 11:51:32			0	33544	0	0	0	17415	16030	154281	27320	958525	38223	106320	0	0	8138	781263	0	0
2024-04-30 11:52:32			0	33557	0	0	0	17420	16020	154249	27512	958509	38233	106322	0	0	8139	780644	0	0
2024-04-30 11:53:32			0	33596	0	0	0	17433	16010	154082	27407	958519	38233	106327	0	0	8141	778707	0	0
2024-04-30 11:54:32			0	33605	0	0	0	17423	16020	153990	27583	958482	38222	106323	0	0	8141	778209	0	0
2024-04-30 11:55:32			0	33623	0	0	0	17431	16030	153826	27545	958578	38234	106326	0	0	8142	777256	0	0
2024-04-30 11:56:32			0	33646	0	0	0	17436	16030	153882	27958	958525	38245	106328	0	0	8144	776092	0	0
2024-04-30 11:57:32			0	33668	0	0	0	17428	16040	153686	27602	958586	38235	106325	0	0	8145	774939	0	0
2024-04-30 11:58:32			0	33703	0	0	0	17425	16040	153586	27647	958560	38235	106324	0	0	8147	773173	0	0
2024-04-30 11:59:32			0	33739	0	0	0	17433	16040	153442	27874	958541	38235	106327	0	0	8149	771360	0	0
2024-04-30 12:00:32			0	33789	0	0	0	17436	16040	153254	27464	958586	38224	106328	0	0	8152	768848	0	0
2024-04-30 12:01:32			0	33805	0	0	0	17431	16040	153102	27800	958620	38246	106326	0	0	8153	768046	0	0
2024-04-30 12:02:32			0	33811	0	0	0	17464	16040	152966	27904	958586	38246	106339	0	0	8153	767745	0	0
2024-04-30 12:03:32			0	33819	0	0	0	17472	16040	153050	27762	958639	38235	106342	0	0	8153	767344	0	0
2024-04-30 12:04:32			0	33822	0	0	0	17462	16050	152922	27512	958663	38247	106338	0	0	8154	767152	0	0
2024-04-30 12:05:32			0	33824	0	0	0	17467	16050	152858	27654	958689	38247	106340	0	0	8154	767052	0	0
2024-04-30 12:06:32			0	33838	0	0	0	17477	16060	152946	27445	958671	38237	106344	0	0	8154	766310	0	0
2024-04-30 12:07:32			0	33839	0	0	0	17498	16060	153006	27635	958724	38237	106352	0	0	8154	766260	0	0
2024-04-30 12:08:32			0	33839	0	0	0	17496	16060	153030	27786	958758	38237	106351	0	0	8154	766260	0	0
2024-04-30 12:09:32			0	33836	0	0	0	17509	16070	152950	27504	958801	38238	106356	0	0	8154	766369	0	0
2024-04-30 12:10:32			0	33839	0	0	0	17529	16090	152918	27552	958852	38239	106364	0	0	8154	766136	0	0
2024-04-30 12:11:32			0	33850	0	0	0	17527	16090	152790	27630	958905	38250	106363	0	0	8154	765586	0	0
2024-04-30 12:12:32			0	33872	0	0	0	17514	16100	152734	27859	958850	38241	106358	0	0	8156	764445	0	0
2024-04-30 12:13:32			0	33881	0	0	0	17529	16100	152574	27523	958842	38250	106364	0	0	8156	763995	0	0
2024-04-30 12:14:32			0	33929	0	0	0	17532	16100	152518	27606	958903	38251	106365	0	0	8159	761602	0	0
2024-04-30 12:15:32			0	33947	0	0	0	17540	16110	152398	27897	958946	38242	106368	0	0	8160	760665	0	0
2024-04-30 12:16:32			0	33971	0	0	0	17542	16120	152242	27516	958927	38252	106369	0	0	8161	759431	0	0
2024-04-30 12:17:32			0	33988	0	0	0	17542	16130	152206	27850	958997	38253	106369	0	0	8162	758546	0	0
2024-04-30 12:18:32			0	34006	0	0	0	17542	16120	152102	27817	959015	38253	106369	0	0	8163	757694	0	0
2024-04-30 12:19:32			0	34017	0	0	0	17537	16130	152074	27779	959005	38243	106367	0	0	8164	757108	0	0
2024-04-30 12:20:32			0	34011	0	0	0	17542	16130	152098	27499	958970	38264	106369	0	0	8164	757405	0	0
2024-04-30 12:21:32			0	34028	0	0	0	17542	16130	152094	27774	959058	38254	106369	0	0	8165	756563	0	0
2024-04-30 12:22:32			0	33995	0	0	0	17548	16140	152014	28218	959066	38243	106371	0	0	8163	758158	0	0
2024-04-30 12:23:32			0	33997	0	0	0	17553	16140	151994	27826	959013	38254	106373	0	0	8163	758058	0	0
2024-04-30 12:24:32			0	34014	0	0	0	17563	16150	152050	27845	959082	38255	106377	0	0	8164	757174	0	0
2024-04-30 12:25:32			0	34011	0	0	0	17561	16160	152162	27975	959072	38255	106376	0	0	8163	757282	0	0
2024-04-30 12:26:32			0	33967	0	0	0	17553	16150	152158	27994	959038	38255	106373	0	0	8161	759507	0	0
2024-04-30 12:27:32			0	33984	0	0	0	17542	16160	152278	27873	959151	38255	106369	0	0	8162	758621	0	0
2024-04-30 12:28:32			0	33946	0	0	0	17545	16170	152334	27770	959054	38256	106370	0	0	8160	760469	0	0
2024-04-30 12:29:32			0	33938	0	0	0	17550	16160	152410	27538	959072	38255	106372	0	0	8159	760908	0	0
2024-04-30 12:30:32			0	33923	0	0	0	17561	16170	152482	27921	959027	38256	106376	0	0	8158	761613	0	0
2024-04-30 12:31:32			0	33888	0	0	0	17553	16160	152634	27524	959072	38245	106373	0	0	8156	763399	0	0
2024-04-30 12:32:32			0	33874	0	0	0	17574	16160	152614	27616	959098	38255	106381	0	0	8155	764097	0	0
2024-04-30 12:33:32			0	33882	0	0	0	17563	16160	152666	27991	959098	38255	106377	0	0	8156	763698	0	0
2024-04-30 12:34:32			0	33884	0	0	0	17579	16170	152706	27920	959133	38256	106383	0	0	8156	763557	0	0
2024-04-30 12:35:32			0	33890	0	0	0	17592	16190	152642	27744	959192	38258	106388	0	0	8156	763175	0	0
2024-04-30 12:36:32			0	33909	0	0	0	17589	16190	152430	27312	959200	38259	106387	0	0	8157	762228	0	0
2024-04-30 12:37:32			0	33940	0	0	0	17594	16190	152310	27552	959200	38259	106389	0	0	8159	760685	0	0
2024-04-30 12:38:32			0	33975	0	0	0	17602	16190	152258	27682	959226	38259	106392	0	0	8161	758946	0	0
2024-04-30 12:39:32			0	33986	0	0	0	17607	16200	152114	27985	959295	38260	106394	0	0	8161	758358	0	0
2024-04-30 12:40:32			0	34009	0	0	0	17615	16200	152178	27699	959295	38260	106397	0	0	8163	757218	0	0
2024-04-30 12:41:32			0	34002	0	0	0	17623	16210	152118	27672	959356	38260	106400	0	0	8162	757524	0	0
2024-04-30 12:42:32			0	34011	0	0	0	17644	16210	151990	27829	959356	38249	106408	0	0	8162	757078	0	0
2024-04-30 12:43:32			0	34001	0	0	0	17670	16230	152102	27760	959363	38272	106418	0	0	8161	757492	0	0
2024-04-30 12:44:32			0	34009	0	0	0	17659	16220	152110	27685	959407	38272	106414	0	0	8162	757136	0	0
2024-04-30 12:45:32			0	34019	0	0	0	17670	16240	152082	27694	959484	38274	106418	0	0	8162	756559	0	0
2024-04-30 12:46:32			0	33989	0	0	0	17675	16230	152154	27838	959442	38261	106420	0	0	8161	758087	0	0
2024-04-30 12:47:32			0	33965	0	0	0	17677	16250	152218	27814	959509	38275	106421	0	0	8159	759196	0	0
2024-04-30 12:48:32			0	33970	0	0	0	17683	16260	152218	27587	959517	38276	106423	0	0	8160	758907	0	0
2024-04-30 12:49:32			0	33967	0	0	0	17693	16260	152278	27651	959596	38287	106427	0	0	8159	759056	0	0
2024-04-30 12:50:32			0	33951	0	0	0	17685	16270	152198	27772	959568	38288	106424	0	0	8158	759809	0	0
2024-04-30 12:51:32			0	33974	0	0	0	17696	16280	152206	27575	959629	38277	106428	0	0	8160	758626	0	0
2024-04-30 12:52:32			0	33967	0	0	0	17696	16280	152274	27833	959682	38277	106428	0	0	8159	758974	0	0
2024-04-30 12:53:32			0	33962	0	0	0	17709	16290	152278	27911	959627	38267	106433	0	0	8159	759181	0	0
2024-04-30 12:54:32			0	33970	0	0	0	17719	16300	152174	27907	959723	38258	106437	0	0	8159	758743	0	0
2024-04-30 12:55:32			0	33973	0	0	0	17740	16310	152126	27661	959818	38291	106445	0	0	8159	758553	0	0
2024-04-30 12:56:32			0	33984	0	0	0	17753	16310	152122	27900	959871	38280	106450	0	0	8159	758007	0	0
2024-04-30 12:57:32			0	33983	0	0	0	17789	16340	152126	27744	959912	38282	106464	0	0	8159	757934	0	0
2024-04-30 12:58:32			0	33988	0	0	0	17779	16340	152054	27979	959946	38283	106460	0	0	8159	757686	0	0
2024-04-30 12:59:32			0	34012	0	0	0	17781	16360	151854	27618	959997	38305	106461	0	0	8161	756415	0	0
2024-04-30 13:00:32			0	34011	0	0	0	17776	16370	151882	28065	959961	38296	106459	0	0	8161	756423	0	0
2024-04-30 13:01:32			0	34038	0	0	0	17784	16370	151838	27609	960022	38286	106462	0	0	8162	755088	0	0
2024-04-30 13:02:32			0	34041	0	0	0	17786	16380	151754	27774	960004	38286	106463	0	0	8162	754898	0	0
2024-04-30 13:03:32			0	34066	0	0	0	17784	16380	151546	27899	960030	38296	106462	0	0	8164	753663	0	0
2024-04-30 13:04:32			0	34079	0	0	0	17792	16380	151518	28036	960056	38275	106465	0	0	8165	753022	0	0
2024-04-30 13:05:32			0	34113	0	0	0	17810	16380	151346	27711	960065	38297	106472	0	0	8166	751346	0	0
2024-04-30 13:06:32			0	34135	0	0	0	17812	16390	151350	27663	960073	38309	106473	0	0	8167	750222	0	0
2024-04-30 13:07:32			0	34184	0	0	0	17846	16400	151214	27791	960097	38299	106486	0	0	8170	747775	0	0
2024-04-30 13:08:32			0	34210	0	0	0	17862	16400	150978	27633	960150	38288	106492	0	0	8171	746500	0	0
2024-04-30 13:09:32			0	34249	0	0	0	17872	16430	150914	27902	960217	38301	106496	0	0	8173	744470	0	0
2024-04-30 13:10:32			0	34303	0	0	0	17883	16420	150634	27703	960288	38311	106500	0	0	8176	741873	0	0
2024-04-30 13:11:32			0	34343	0	0	0	17898	16440	150406	27595	960321	38302	106506	0	0	8178	739845	0	0
2024-04-30 13:12:32			0	34383	0	0	0	17906	16440	150191	27479	960347	38313	106509	0	0	8180	737901	0	0
2024-04-30 13:13:32			0	34454	0	0	0	17950	16450	149927	28062	960443	38315	106526	0	0	8184	734419	0	0
2024-04-30 13:14:32			0	34530	0	0	0	17942	16470	149571	27786	960415	38304	106523	0	0	8188	730671	0	0
2024-04-30 13:15:32			0	34485	0	0	0	17927	16490	149763	27625	960465	38306	106517	0	0	8186	732762	0	0
2024-04-30 13:16:32			0	34387	0	0	0	17903	16500	150095	27769	960508	38296	106508	0	0	8181	737467	0	0
2024-04-30 13:17:32			0	34299	0	0	0	17888	16490	150658	27663	960447	38317	106502	0	0	8176	741788	0	0
2024-04-30 13:18:32			0	34217	0	0	0	17914	16490	150962	27659	960447	38295	106512	0	0	8171	745794	0	0
2024-04-30 13:19:32			0	34162	0	0	0	17914	16490	151162	28051	960447	38306	106512	0	0	8168	748490	0	0
2024-04-30 13:20:32			0	34113	0	0	0	17937	16500	151346	28031	960482	38307	106521	0	0	8165	750858	0	0
2024-04-30 13:21:32			0	34068	0	0	0	17963	16500	151614	27899	960543	38308	106531	0	0	8162	753076	0	0
2024-04-30 13:22:32			0	34029	0	0	0	17911	16500	151798	27975	960543	38308	106511	0	0	8160	755002	0	0
2024-04-30 13:23:32			0	34012	0	0	0	17924	16530	151842	27746	960689	38321	106516	0	0	8159	755720	0	0
2024-04-30 13:24:32			0	33989	0	0	0	17940	16520	151906	27930	960628	38310	106522	0	0	8157	756899	0	0
2024-04-30 13:25:32			0	33976	0	0	0	17940	16530	151974	27479	960645	38322	106522	0	0	8157	757502	0	0
2024-04-30 13:26:32			0	33983	0	0	0	17916	16530	151922	27817	960610	38310	106513	0	0	8158	757155	0	0
2024-04-30 13:27:32			0	33996	0	0	0	17909	16530	151894	27459	960566	38310	106510	0	0	8158	756512	0	0
2024-04-30 13:28:32			0	34021	0	0	0	17909	16530	151730	27666	960592	38322	106510	0	0	8160	755275	0	0
2024-04-30 13:29:32			0	34025	0	0	0	17893	16530	151690	27746	960557	38310	106504	0	0	8160	755077	0	0
2024-04-30 13:30:32			0	34060	0	0	0	17867	16540	151522	27462	960600	38299	106494	0	0	8163	753307	0	0
2024-04-30 13:31:32			0	34065	0	0	0	17898	16540	151382	27440	960574	38310	106506	0	0	8163	753061	0	0
2024-04-30 13:32:32			0	34085	0	0	0	17929	16540	151398	27590	960600	38299	106518	0	0	8163	752075	0	0
2024-04-30 13:33:32			0	34093	0	0	0	17935	16550	151390	27815	960643	38311	106520	0	0	8164	751640	0	0
2024-04-30 13:34:32			0	34082	0	0	0	17958	16550	151274	27345	960643	38311	106529	0	0	8163	752182	0	0
2024-04-30 13:35:32			0	34079	0	0	0	17955	16560	151382	27715	960738	38301	106528	0	0	8163	752289	0	0
2024-04-30 13:36:32			0	34066	0	0	0	17955	16550	151582	27493	960677	38312	106528	0	0	8162	752971	0	0
2024-04-30 13:37:32			0	34046	0	0	0	17955	16560	151498	27937	960712	38312	106528	0	0	8161	753917	0	0
2024-04-30 13:38:32			0	34033	0	0	0	17958	16560	151554	27843	960659	38312	106529	0	0	8160	754559	0	0
2024-04-30 13:39:32			0	34040	0	0	0	17968	16570	151682	27445	960710	38314	106533	0	0	8160	754172	0	0
2024-04-30 13:40:32			0	34015	0	0	0	17942	16560	151738	27639	960765	38312	106523	0	0	8159	755449	0	0
2024-04-30 13:41:32			0	34002	0	0	0	17935	16570	151742	27907	960728	38325	106520	0	0	8159	756051	0	0
2024-04-30 13:42:32			0	33986	0	0	0	17924	16560	151810	27594	960633	38323	106516	0	0	8158	756884	0	0
2024-04-30 13:43:32			0	33999	0	0	0	17901	16560	151750	27552	960633	38312	106507	0	0	8159	756240	0	0
2024-04-30 13:44:32			0	33997	0	0	0	17922	16560	151758	27393	960694	38313	106515	0	0	8158	756339	0	0
2024-04-30 13:45:32			0	34000	0	0	0	17953	16570	151702	27718	960710	38325	106527	0	0	8158	756150	0	0
2024-04-30 13:46:32			0	34012	0	0	0	17955	16580	151622	27533	960745	38314	106528	0	0	8159	755515	0	0
2024-04-30 13:47:32			0	34038	0	0	0	17958	16590	151606	27809	960787	38327	106529	0	0	8160	754190	0	0
2024-04-30 13:48:32			0	34044	0	0	0	17971	16590	151670	27944	960867	38327	106534	0	0	8160	753893	0	0
2024-04-30 13:49:32			0	34036	0	0	0	17992	16590	151610	27845	960848	38315	106542	0	0	8160	754289	0	0
2024-04-30 13:50:32			0	34029	0	0	0	18015	16600	151518	27791	960936	38316	106551	0	0	8159	754593	0	0
2024-04-30 13:51:32			0	34065	0	0	0	18033	16610	151458	27774	960926	38317	106558	0	0	8161	752776	0	0
2024-04-30 13:52:32			0	34049	0	0	0	18041	16620	151498	27566	961047	38329	106561	0	0	8160	753524	0	0
2024-04-30 13:53:32			0	34062	0	0	0	18067	16630	151458	27763	961091	38330	106571	0	0	8160	752842	0	0
2024-04-30 13:54:32			0	34099	0	0	0	18080	16650	151198	27862	961123	38332	106576	0	0	8162	750938	0	0
2024-04-30 13:55:32			0	34162	0	0	0	18101	16660	150902	27663	961219	38333	106584	0	0	8165	747802	0	0
2024-04-30 13:56:32			0	34187	0	0	0	18257	16680	150866	27829	961463	38356	106644	0	0	8164	746496	0	0
2024-04-30 13:57:32			0	34149	0	0	0	18290	16700	150926	27783	961601	38357	106657	0	0	8162	748278	0	0
2024-04-30 13:58:32			0	34131	0	0	0	18545	16750	151138	27757	961939	38394	106755	0	0	8157	748959	0	0
2024-04-30 13:59:32			0	34132	0	0	0	18657	16790	151082	27798	962242	38397	106798	0	0	8155	748747	0	0
2024-04-30 14:00:32			0	34130	0	0	0	18703	16850	151106	28145	962577	38414	106816	0	0	8154	748602	0	0
2024-04-30 14:01:32			0	34105	0	0	0	18714	16900	151190	28011	962773	38418	106820	0	0	8153	749627	0	0
2024-04-30 14:02:32			0	34086	0	0	0	18753	16970	151206	27933	962985	38424	106835	0	0	8151	750276	0	0
2024-04-30 14:03:32			0	34047	0	0	0	18846	17010	151338	28065	963183	38439	106871	0	0	8148	752032	0	0
2024-04-30 14:04:32			0	34034	0	0	0	18872	17060	151310	27812	963389	38432	106881	0	0	8147	752468	0	0
2024-04-30 14:05:32			0	34013	0	0	0	18909	17110	151486	27871	963558	38437	106895	0	0	8145	753299	0	0
2024-04-30 14:06:32			0	33981	0	0	0	18950	17140	151526	27595	963740	38440	106911	0	0	8143	754756	0	0
2024-04-30 14:07:32			0	33957	0	0	0	18948	17190	151510	27767	963893	38465	106910	0	0	8142	755736	0	0
2024-04-30 14:08:32			0	33965	0	0	0	18963	17230	151614	27753	963993	38458	106916	0	0	8142	755177	0	0
2024-04-30 14:09:32			0	33954	0	0	0	18963	17260	151602	27583	964113	38450	106916	0	0	8142	755597	0	0
2024-04-30 14:10:32			0	33946	0	0	0	18974	17280	151490	27809	964146	38429	106920	0	0	8141	755911	0	0
2024-04-30 14:11:32			0	33921	0	0	0	18958	17310	151386	27640	964177	38455	106914	0	0	8140	757024	0	0
2024-04-30 14:12:32			0	33944	0	0	0	18955	17330	151382	27791	964281	38445	106913	0	0	8142	755804	0	0
2024-04-30 14:13:32			0	33936	0	0	0	18966	17360	151394	27585	964357	38458	106917	0	0	8141	756076	0	0
2024-04-30 14:14:32			0	33928	0	0	0	18968	17380	151374	27630	964337	38460	106918	0	0	8141	756390	0	0
2024-04-30 14:15:32			0	33924	0	0	0	18961	17400	151390	27992	964467	38461	106915	0	0	8141	756505	0	0
2024-04-30 14:16:32			0	33961	0	0	0	18963	17420	151326	27840	964500	38453	106916	0	0	8143	754595	0	0
2024-04-30 14:17:32			0	33953	0	0	0	18963	17430	151218	28008	964551	38464	106916	0	0	8142	754949	0	0
2024-04-30 14:18:32			0	33955	0	0	0	18966	17450	151222	28292	964549	38456	106917	0	0	8143	754768	0	0
2024-04-30 14:19:32			0	33944	0	0	0	18958	17450	151230	27781	964584	38466	106914	0	0	8142	755311	0	0
2024-04-30 14:20:32			0	33979	0	0	0	18953	17460	151138	27720	964600	38457	106912	0	0	8144	753543	0	0
2024-04-30 14:21:32			0	33971	0	0	0	18963	17470	151146	28032	964582	38467	106916	0	0	8144	753897	0	0
2024-04-30 14:22:32			0	33978	0	0	0	18987	17490	151102	27921	964668	38481	106925	0	0	8144	753469	0	0
2024-04-30 14:23:32			0	33988	0	0	0	19015	17510	151086	27710	964788	38460	106936	0	0	8144	752895	0	0
2024-04-30 14:24:32			0	33986	0	0	0	19012	17520	150914	27994	964876	38472	106935	0	0	8144	752952	0	0
2024-04-30 14:25:32			0	34004	0	0	0	19018	17540	150934	27746	964908	38473	106937	0	0	8145	751984	0	0
2024-04-30 14:26:32			0	34023	0	0	0	19015	17540	150822	28093	964890	38463	106936	0	0	8146	751049	0	0
2024-04-30 14:27:32			0	34017	0	0	0	19018	17550	150766	27906	964819	38454	106937	0	0	8146	751304	0	0
2024-04-30 14:28:32			0	34025	0	0	0	19020	17550	150654	27937	964933	38465	106938	0	0	8146	750910	0	0
2024-04-30 14:29:32			0	34055	0	0	0	19005	17570	150626	28011	965037	38466	106932	0	0	8148	749355	0	0
2024-04-30 14:30:32			0	34095	0	0	0	19007	17570	150446	27996	964913	38466	106933	0	0	8150	747394	0	0
2024-04-30 14:31:32			0	34113	0	0	0	18966	17590	150270	27937	964964	38467	106917	0	0	8152	746431	0	0
2024-04-30 14:32:32			0	34152	0	0	0	18937	17580	150150	27951	964982	38456	106906	0	0	8155	744565	0	0
2024-04-30 14:33:32			0	34185	0	0	0	18948	17580	149926	27878	964895	38456	106910	0	0	8157	742955	0	0
2024-04-30 14:34:32			0	34195	0	0	0	18953	17580	149942	27843	964850	38456	106912	0	0	8157	742468	0	0
2024-04-30 14:35:32			0	34207	0	0	0	18950	17590	149886	27899	964964	38457	106911	0	0	8158	741843	0	0
2024-04-30 14:36:32			0	34211	0	0	0	18966	17590	149842	27734	964946	38458	106917	0	0	8158	741648	0	0
2024-04-30 14:37:32			0	34199	0	0	0	18955	17590	149914	27803	964990	38478	106913	0	0	8157	742233	0	0
2024-04-30 14:38:32			0	34194	0	0	0	18922	17600	149874	27692	964954	38447	106900	0	0	8158	742436	0	0
2024-04-30 14:39:32			0	34191	0	0	0	18935	17590	149890	27874	964972	38479	106905	0	0	8157	742622	0	0
2024-04-30 14:40:32			0	34186	0	0	0	18914	17600	149854	27776	964928	38458	106897	0	0	8157	742826	0	0
2024-04-30 14:41:32			0	34206	0	0	0	18877	17590	149790	27784	964911	38457	106883	0	0	8159	741892	0	0
2024-04-30 14:42:32			0	34201	0	0	0	18786	17590	149746	27687	964840	38458	106848	0	0	8160	742135	0	0
2024-04-30 14:43:32			0	34219	0	0	0	18454	17580	149798	27505	964710	38445	106720	0	0	8167	741299	0	0
2024-04-30 14:44:32			0	34229	0	0	0	18488	17580	149762	27847	964718	38434	106733	0	0	8167	740813	0	0
2024-04-30 14:45:32			0	34214	0	0	0	18254	17560	149570	27907	964439	38443	106643	0	0	8170	741623	0	0
2024-04-30 14:46:32			0	34232	0	0	0	18389	17540	149474	27422	964468	38409	106695	0	0	8169	740828	0	0
2024-04-30 14:47:32			0	34194	0	0	0	18363	17530	149554	27588	964443	38430	106685	0	0	8167	742719	0	0
2024-04-30 14:48:32			0	34188	0	0	0	18623	17520	149710	27998	964329	38418	106785	0	0	8162	743052	0	0
2024-04-30 14:49:32			0	34093	0	0	0	18137	17510	150458	27831	964410	38417	106598	0	0	8165	747736	0	0
2024-04-30 14:50:32			0	34053	0	0	0	18197	17500	150378	27331	964288	38416	106621	0	0	8162	749738	0	0
2024-04-30 14:51:32			0	34033	0	0	0	18181	17470	150422	27698	964062	38402	106615	0	0	8160	750844	0	0
2024-04-30 14:52:32			0	34014	0	0	0	18241	17460	150478	27566	963984	38390	106638	0	0	8158	751819	0	0
2024-04-30 14:53:32			0	34001	0	0	0	18161	17450	150526	27838	963897	38378	106607	0	0	8159	752500	0	0
2024-04-30 14:54:32			0	33979	0	0	0	18077	17410	150634	27647	963726	38365	106575	0	0	8159	753748	0	0
2024-04-30 14:55:32			0	33978	0	0	0	18088	17390	150654	27668	963667	38363	106579	0	0	8159	753879	0	0
2024-04-30 14:56:32			0	33978	0	0	0	18145	17380	150602	27815	963695	38362	106601	0	0	8157	753920	0	0
2024-04-30 14:57:32			0	33978	0	0	0	18150	17370	150750	27500	963731	38382	106603	0	0	8157	753961	0	0
2024-04-30 14:58:32			0	33993	0	0	0	18241	17360	150698	27509	963828	38372	106638	0	0	8157	753262	0	0
2024-04-30 14:59:32			0	33976	0	0	0	18374	17370	150630	27554	963898	38383	106689	0	0	8153	754060	0	0
2024-04-30 15:00:32			0	33979	0	0	0	18503	17380	150770	27604	964020	38384	106739	0	0	8151	753871	0	0
2024-04-30 15:01:32			0	33966	0	0	0	18566	17390	150950	27594	964134	38395	106763	0	0	8150	754471	0	0
2024-04-30 15:02:32			0	33967	0	0	0	18610	17410	150958	27654	964167	38396	106780	0	0	8149	754340	0	0
2024-04-30 15:03:32			0	33985	0	0	0	18615	17410	150962	27965	964280	38386	106782	0	0	8150	753452	0	0
2024-04-30 15:04:32			0	33985	0	0	0	18581	17430	150818	27590	964305	38399	106769	0	0	8151	753370	0	0
2024-04-30 15:05:32			0	34016	0	0	0	18532	17420	150778	27672	964183	38387	106750	0	0	8153	751884	0	0
2024-04-30 15:06:32			0	34029	0	0	0	18446	17430	150606	27732	964252	38399	106717	0	0	8156	751204	0	0
2024-04-30 15:07:32			0	34041	0	0	0	18280	17430	150538	27580	964120	38388	106653	0	0	8159	750614	0	0
2024-04-30 15:08:32			0	34079	0	0	0	18088	17420	150270	27897	964006	38377	106579	0	0	8164	748788	0	0
2024-04-30 15:09:32			0	34145	0	0	0	18023	17400	149946	27703	963841	38353	106554	0	0	8169	745637	0	0
2024-04-30 15:10:32			0	34201	0	0	0	18153	17370	149718	27961	963819	38350	106604	0	0	8170	743024	0	0
2024-04-30 15:11:32			0	34240	0	0	0	18272	17380	149438	27642	963827	38362	106650	0	0	8170	741083	0	0
2024-04-30 15:12:32			0	34284	0	0	0	18254	17370	149186	27720	963837	38361	106643	0	0	8173	738985	0	0
2024-04-30 15:13:32			0	34343	0	0	0	18161	17370	149074	27789	963811	38361	106607	0	0	8178	736124	0	0
2024-04-30 15:14:32			0	34385	0	0	0	18106	17350	148947	27542	963725	38359	106586	0	0	8181	734173	0	0
2024-04-30 15:15:32			0	34425	0	0	0	18179	17330	148719	27850	963621	38369	106614	0	0	8182	732322	0	0
2024-04-30 15:16:32			0	34474	0	0	0	18376	17330	148579	27897	963647	38358	106690	0	0	8182	729962	0	0
2024-04-30 15:17:32			0	34491	0	0	0	18548	17330	148391	27744	963700	38369	106756	0	0	8180	729144	0	0
2024-04-30 15:18:32			0	34539	0	0	0	18651	17320	148459	27675	963771	38357	106796	0	0	8181	726880	0	0
2024-04-30 15:19:32			0	34562	0	0	0	18670	17330	148403	27786	963858	38379	106803	0	0	8182	725738	0	0
2024-04-30 15:20:32			0	34572	0	0	0	18709	17330	148359	27734	963893	38379	106818	0	0	8182	725260	0	0
2024-04-30 15:21:32			0	34567	0	0	0	18722	17340	148335	27659	963954	38391	106823	0	0	8181	725459	0	0
2024-04-30 15:22:32			0	34543	0	0	0	18742	17350	148519	28013	963970	38392	106831	0	0	8179	726570	0	0
2024-04-30 15:23:32			0	34515	0	0	0	18748	17360	148775	27694	964005	38393	106833	0	0	8178	727873	0	0
2024-04-30 15:24:32			0	34432	0	0	0	18745	17360	149039	27426	964040	38393	106832	0	0	8173	731865	0	0
2024-04-30 15:25:32			0	34376	0	0	0	18742	17360	149383	27751	964066	38393	106831	0	0	8170	734568	0	0
2024-04-30 15:26:32			0	34297	0	0	0	18737	17370	149578	27542	964048	38393	106829	0	0	8166	738354	0	0
2024-04-30 15:27:32			0	34232	0	0	0	18706	17380	149998	27770	964099	38395	106817	0	0	8163	741473	0	0
2024-04-30 15:28:32			0	34169	0	0	0	18698	17370	150166	27835	964109	38405	106814	0	0	8159	744586	0	0
2024-04-30 15:29:32			0	34119	0	0	0	18722	17380	150434	27753	964065	38395	106823	0	0	8156	746990	0	0
2024-04-30 15:30:32			0	34075	0	0	0	18727	17370	150558	27992	964030	38405	106825	0	0	8153	749188	0	0
2024-04-30 15:31:32			0	34047	0	0	0	18722	17370	150678	27838	964083	38394	106823	0	0	8152	750564	0	0
2024-04-30 15:32:32			0	34033	0	0	0	18714	17380	150778	27857	964046	38406	106820	0	0	8151	751211	0	0
2024-04-30 15:33:32			0	34017	0	0	0	18727	17380	150982	27400	964046	38395	106825	0	0	8150	751999	0	0
2024-04-30 15:34:32			0	34011	0	0	0	18722	17380	150830	27755	964065	38406	106823	0	0	8150	752294	0	0
2024-04-30 15:35:32			0	33999	0	0	0	18729	17390	150862	27672	964107	38406	106826	0	0	8149	752844	0	0
2024-04-30 15:36:32			0	33978	0	0	0	18714	17390	151018	27371	964116	38407	106820	0	0	8148	753879	0	0
2024-04-30 15:37:32			0	33996	0	0	0	18649	17400	150930	27457	964132	38429	106795	0	0	8150	752951	0	0
2024-04-30 15:38:32			0	34010	0	0	0	18633	17400	150834	27412	964150	38418	106789	0	0	8151	752261	0	0
2024-04-30 15:39:32			0	34024	0	0	0	18618	17390	150802	27687	964116	38407	106783	0	0	8152	751613	0	0
2024-04-30 15:40:32			0	34034	0	0	0	18641	17400	150702	27963	964071	38408	106792	0	0	8152	751080	0	0
2024-04-30 15:41:32			0	34062	0	0	0	18607	17390	150610	27526	964055	38395	106779	0	0	8155	749745	0	0
2024-04-30 15:42:32			0	34092	0	0	0	18688	17390	150498	27462	964089	38407	106810	0	0	8155	748273	0	0
2024-04-30 15:43:32			0	34075	0	0	0	18685	17390	150518	27677	964063	38396	106809	0	0	8154	749107	0	0
2024-04-30 15:44:32			0	34076	0	0	0	18683	17390	150498	27831	964055	38395	106808	0	0	8154	749058	0	0
2024-04-30 15:45:32			0	34101	0	0	0	18696	17390	150418	27381	964028	38395	106813	0	0	8155	747831	0	0
2024-04-30 15:46:32			0	34111	0	0	0	18696	17380	150398	27689	964073	38406	106813	0	0	8156	747382	0	0
2024-04-30 15:47:32			0	34122	0	0	0	18638	17380	150422	27698	964065	38416	106791	0	0	8157	746843	0	0
2024-04-30 15:48:32			0	34110	0	0	0	18392	17390	150394	27562	964002	38406	106696	0	0	8161	747391	0	0
2024-04-30 15:49:32			0	34120	0	0	0	18223	17380	150202	27677	963888	38406	106631	0	0	8164	746941	0	0
2024-04-30 15:50:32			0	34117	0	0	0	18176	17370	150226	27789	963740	38394	106613	0	0	8165	747129	0	0
2024-04-30 15:51:32			0	34095	0	0	0	18540	17360	150438	27854	963794	38393	106753	0	0	8157	748248	0	0
2024-04-30 15:52:32			0	34066	0	0	0	18399	17360	150594	27710	963847	38404	106699	0	0	8158	749671	0	0
2024-04-30 15:53:32			0	34037	0	0	0	17927	17340	150654	27831	963743	38391	106517	0	0	8164	751178	0	0
2024-04-30 15:54:32			0	34056	0	0	0	18083	17330	150538	27685	963629	38379	106577	0	0	8163	750284	0	0
2024-04-30 15:55:32			0	34056	0	0	0	18498	17320	150558	27746	963639	38379	106737	0	0	8156	750325	0	0
2024-04-30 15:56:32			0	34060	0	0	0	18597	17320	150534	27940	963736	38389	106775	0	0	8154	750128	0	0
2024-04-30 15:57:32			0	34062	0	0	0	18594	17310	150638	27497	963826	38389	106774	0	0	8154	750071	0	0
2024-04-30 15:58:32			0	34065	0	0	0	18644	17320	150630	27902	963930	38390	106793	0	0	8154	749883	0	0
2024-04-30 15:59:32			0	34071	0	0	0	18680	17330	150658	27876	963946	38379	106807	0	0	8154	749548	0	0
2024-04-30 16:00:32			0	34084	0	0	0	18625	17340	150642	28081	963954	38403	106786	0	0	8155	748869	0	0
2024-04-30 16:01:32			0	34087	0	0	0	18612	17360	150618	27438	963979	38404	106781	0	0	8156	748640	0	0
2024-04-30 16:02:32			0	34103	0	0	0	18623	17360	150474	27718	963979	38404	106785	0	0	8156	747855	0	0
2024-04-30 16:03:32			0	34108	0	0	0	18374	17360	150486	27673	963979	38372	106689	0	0	8161	747610	0	0
2024-04-30 16:04:32			0	34102	0	0	0	18324	17360	150422	27476	963855	38382	106670	0	0	8161	747904	0	0
2024-04-30 16:05:32			0	34098	0	0	0	18368	17350	150398	27935	963865	38381	106687	0	0	8160	748141	0	0
2024-04-30 16:06:32			0	34097	0	0	0	18062	17330	150326	27847	963708	38369	106569	0	0	8166	748272	0	0
2024-04-30 16:07:32			0	34098	0	0	0	18293	17330	150310	27372	963594	38358	106658	0	0	8162	748223	0	0
2024-04-30 16:08:32			0	34090	0	0	0	18142	17310	150358	27549	963570	38356	106600	0	0	8164	748696	0	0
2024-04-30 16:09:32			0	34101	0	0	0	18275	17300	150298	27985	963659	38367	106651	0	0	8162	748197	0	0
2024-04-30 16:10:32			0	34118	0	0	0	18506	17310	150326	27488	963694	38368	106740	0	0	8159	747324	0	0
2024-04-30 16:11:32			0	34128	0	0	0	18579	17300	150306	27980	963791	38377	106768	0	0	8158	746874	0	0
2024-04-30 16:12:32			0	34126	0	0	0	18579	17320	150366	27499	963869	38378	106768	0	0	8158	746891	0	0
2024-04-30 16:13:32			0	34119	0	0	0	18618	17320	150406	27812	963930	38379	106783	0	0	8157	747234	0	0
2024-04-30 16:14:32			0	34125	0	0	0	18664	17330	150426	27854	963999	38379	106801	0	0	8157	746899	0	0
2024-04-30 16:15:32			0	34141	0	0	0	18714	17350	150410	27848	964076	38392	106820	0	0	8157	746035	0	0
2024-04-30 16:16:32			0	34134	0	0	0	18599	17370	150346	27633	964101	38404	106776	0	0	8159	746297	0	0
2024-04-30 16:17:32			0	34180	0	0	0	18636	17370	150066	27621	964022	38393	106790	0	0	8161	744048	0	0
2024-04-30 16:18:32			0	34196	0	0	0	18615	17390	149990	27999	964081	38395	106782	0	0	8162	743187	0	0
2024-04-30 16:19:32			0	34220	0	0	0	18597	17380	150026	27907	964073	38395	106775	0	0	8164	742057	0	0
2024-04-30 16:20:32			0	34199	0	0	0	18641	17380	150050	27646	964126	38395	106792	0	0	8162	743081	0	0
2024-04-30 16:21:32			0	34171	0	0	0	18625	17390	150130	27975	964195	38396	106786	0	0	8160	744407	0	0
2024-04-30 16:22:32			0	34136	0	0	0	18605	17400	150274	27942	964158	38385	106778	0	0	8159	746077	0	0
2024-04-30 16:23:32			0	34123	0	0	0	18597	17390	150438	27833	964089	38396	106775	0	0	8158	746754	0	0
2024-04-30 16:24:32			0	34097	0	0	0	18607	17400	150494	27857	964106	38385	106779	0	0	8157	747987	0	0
2024-04-30 16:25:32			0	34077	0	0	0	18563	17390	150562	27649	964063	38385	106762	0	0	8156	749009	0	0
2024-04-30 16:26:32			0	34065	0	0	0	18553	17390	150562	27758	964063	38385	106758	0	0	8156	749598	0	0
2024-04-30 16:27:32			0	34045	0	0	0	18576	17400	150606	27751	964097	38385	106767	0	0	8154	750540	0	0
2024-04-30 16:28:32			0	34047	0	0	0	18283	17380	150630	27781	964012	38384	106654	0	0	8159	750523	0	0
2024-04-30 16:29:32			0	34043	0	0	0	18316	17380	150578	27770	963941	38373	106667	0	0	8158	750719	0	0
2024-04-30 16:30:32			0	34034	0	0	0	18418	17380	150642	27492	963959	38373	106706	0	0	8156	751162	0	0
2024-04-30 16:31:32			0	34035	0	0	0	18462	17370	150634	27980	963863	38372	106723	0	0	8155	751154	0	0
2024-04-30 16:32:32			0	34076	0	0	0	18438	17360	150490	27594	963802	38393	106714	0	0	8158	749180	0	0
2024-04-30 16:33:32			0	34108	0	0	0	18314	17350	150222	27563	963706	38360	106666	0	0	8162	747651	0	0
2024-04-30 16:34:32			0	34143	0	0	0	18251	17340	150206	27479	963743	38370	106642	0	0	8165	745978	0	0
2024-04-30 16:35:32			0	34161	0	0	0	18186	17310	150022	27836	963491	38356	106617	0	0	8167	745219	0	0
2024-04-30 16:36:32			0	34201	0	0	0	18249	17280	149822	27895	963309	38343	106641	0	0	8168	743387	0	0
2024-04-30 16:37:32			0	34239	0	0	0	18244	17260	149694	27828	963250	38352	106639	0	0	8170	741616	0	0
2024-04-30 16:38:32			0	34275	0	0	0	18262	17240	149654	27803	963270	38351	106646	0	0	8172	739944	0	0
2024-04-30 16:39:32			0	34287	0	0	0	18176	17230	149542	27980	963166	38349	106613	0	0	8174	739401	0	0
2024-04-30 16:40:32			0	34291	0	0	0	18207	17200	149442	27590	963099	38357	106625	0	0	8174	739327	0	0
2024-04-30 16:41:32			0	34294	0	0	0	18202	17210	149474	27717	963213	38358	106623	0	0	8174	739142	0	0
2024-04-30 16:42:32			0	34299	0	0	0	18135	17200	149550	27847	963231	38357	106597	0	0	8175	738939	0	0
2024-04-30 16:43:32			0	34277	0	0	0	18527	17190	149562	27885	963259	38345	106748	0	0	8167	740048	0	0
2024-04-30 16:44:32			0	34288	0	0	0	18418	17190	149810	27864	963074	38334	106706	0	0	8170	739513	0	0
2024-04-30 16:45:32			0	34303	0	0	0	18402	17180	149734	27736	963084	38345	106700	0	0	8171	738825	0	0
2024-04-30 16:46:32			0	34292	0	0	0	18361	17150	149786	27826	963017	38332	106684	0	0	8171	739479	0	0
2024-04-30 16:47:32			0	34275	0	0	0	18350	17150	149738	27578	963017	38332	106680	0	0	8170	740306	0	0
2024-04-30 16:48:32			0	34276	0	0	0	18340	17140	149818	27826	963027	38341	106676	0	0	8170	740297	0	0
2024-04-30 16:49:32			0	34283	0	0	0	18301	17130	149822	27850	962931	38340	106661	0	0	8171	739997	0	0
2024-04-30 16:50:32			0	34273	0	0	0	18316	17130	149874	28032	962950	38351	106667	0	0	8170	740484	0	0
2024-04-30 16:51:32			0	34254	0	0	0	18363	17120	149986	27466	962836	38351	106685	0	0	8168	741449	0	0
2024-04-30 16:52:32			0	34250	0	0	0	18303	17120	149974	28088	962801	38339	106662	0	0	8169	741644	0	0
2024-04-30 16:53:32			0	34244	0	0	0	18166	17100	150058	28077	962742	38348	106609	0	0	8171	742016	0	0
2024-04-30 16:54:32			0	34236	0	0	0	18199	17080	150082	27961	962585	38347	106622	0	0	8170	742487	0	0
2024-04-30 16:55:32			0	34229	0	0	0	18163	17070	150030	27698	962640	38334	106608	0	0	8170	742869	0	0
2024-04-30 16:56:32			0	34254	0	0	0	18161	17070	149990	27765	962666	38334	106607	0	0	8172	741650	0	0
2024-04-30 16:57:32			0	34235	0	0	0	18225	17050	150002	28011	962528	38333	106632	0	0	8169	742656	0	0
2024-04-30 16:58:32			0	34281	0	0	0	18090	17030	149806	27920	962432	38333	106580	0	0	8174	740496	0	0
2024-04-30 16:59:32			0	34303	0	0	0	18002	17000	149582	28251	962198	38296	106546	0	0	8177	739547	0	0
2024-04-30 17:00:32			0	34340	0	0	0	18062	16990	149598	27751	962226	38318	106569	0	0	8178	737790	0	0
2024-04-30 17:01:32			0	34331	0	0	0	18051	16960	149570	28091	962133	38315	106565	0	0	8177	738347	0	0
2024-04-30 17:02:32			0	34354	0	0	0	18135	16970	149519	27779	962167	38316	106597	0	0	8177	737191	0	0
2024-04-30 17:03:32			0	34382	0	0	0	18174	16940	149555	27755	962153	38324	106612	0	0	8178	735954	0	0
2024-04-30 17:04:32			0	34378	0	0	0	18192	16940	149595	28037	962179	38335	106619	0	0	8178	736148	0	0
2024-04-30 17:05:32			0	34396	0	0	0	18207	16940	149487	27763	962179	38335	106625	0	0	8178	735276	0	0
2024-04-30 17:06:32			0	34433	0	0	0	18210	16940	149247	27722	962171	38345	106626	0	0	8180	733487	0	0
2024-04-30 17:07:32			0	34446	0	0	0	18205	16940	149279	27873	962145	38324	106624	0	0	8181	732859	0	0
2024-04-30 17:08:32			0	34421	0	0	0	18207	16940	149439	28088	962197	38324	106625	0	0	8180	734067	0	0
2024-04-30 17:09:32			0	34403	0	0	0	18231	16940	149491	28275	962224	38345	106634	0	0	8178	734937	0	0
2024-04-30 17:10:32			0	34391	0	0	0	18236	16930	149567	27871	962287	38345	106636	0	0	8177	735558	0	0
2024-04-30 17:11:32			0	34354	0	0	0	18267	16930	149611	28053	962268	38334	106648	0	0	8175	737351	0	0
2024-04-30 17:12:32			0	34349	0	0	0	18283	16930	149823	27757	962348	38356	106654	0	0	8174	737593	0	0
2024-04-30 17:13:32			0	34332	0	0	0	18337	16940	149818	27805	962496	38346	106675	0	0	8172	738378	0	0
2024-04-30 17:14:32			0	34349	0	0	0	18389	16960	149775	27746	962555	38359	106695	0	0	8173	737473	0	0
2024-04-30 17:15:32			0	34357	0	0	0	18402	16980	149683	27923	962588	38349	106700	0	0	8173	737005	0	0
2024-04-30 17:16:32			0	34374	0	0	0	18412	16990	149787	27824	962728	38350	106704	0	0	8174	736142	0	0
2024-04-30 17:17:32			0	34316	0	0	0	18428	17000	149726	27873	962779	38362	106710	0	0	8170	738915	0	0
2024-04-30 17:18:32			0	34308	0	0	0	18433	17020	149958	27861	962804	38364	106712	0	0	8170	739224	0	0
2024-04-30 17:19:32			0	34263	0	0	0	18449	17020	150210	28037	962865	38353	106718	0	0	8167	741413	0	0
2024-04-30 17:20:32			0	34224	0	0	0	18446	17040	150366	27913	962863	38376	106717	0	0	8165	743233	0	0
2024-04-30 17:21:32			0	34197	0	0	0	18464	17050	150490	27708	962950	38376	106724	0	0	8163	744511	0	0
2024-04-30 17:22:32			0	34152	0	0	0	18475	17060	150502	27848	962967	38367	106728	0	0	8160	746672	0	0
2024-04-30 17:23:32			0	34172	0	0	0	18493	17070	150626	27762	963018	38368	106735	0	0	8161	745653	0	0
2024-04-30 17:24:32			0	34151	0	0	0	18488	17090	150590	27711	962963	38380	106733	0	0	8160	746600	0	0
2024-04-30 17:25:32			0	34143	0	0	0	18483	17100	150630	28129	963059	38381	106731	0	0	8160	746951	0	0
2024-04-30 17:26:32			0	34158	0	0	0	18488	17100	150674	27592	963085	38370	106733	0	0	8161	746216	0	0
2024-04-30 17:27:32			0	34145	0	0	0	18493	17100	150586	27783	963059	38381	106735	0	0	8160	746853	0	0
2024-04-30 17:28:32			0	34149	0	0	0	18496	17110	150542	28086	963083	38393	106736	0	0	8160	746617	0	0
2024-04-30 17:29:32			0	34149	0	0	0	18498	17110	150586	27862	963101	38381	106737	0	0	8160	746617	0	0
2024-04-30 17:30:32			0	34119	0	0	0	18501	17110	150594	27800	963162	38382	106738	0	0	8158	748087	0	0
2024-04-30 17:31:32			0	34108	0	0	0	18496	17110	150646	27732	963110	38372	106736	0	0	8158	748626	0	0
2024-04-30 17:32:32			0	34104	0	0	0	18514	17130	150638	27888	963161	38373	106743	0	0	8157	748741	0	0
2024-04-30 17:33:32			0	34109	0	0	0	18496	17130	150770	27751	963195	38374	106736	0	0	8158	748496	0	0
2024-04-30 17:34:32			0	34098	0	0	0	18501	17140	150834	27625	963256	38374	106738	0	0	8157	748995	0	0
2024-04-30 17:35:32			0	34095	0	0	0	18490	17140	150838	27731	963185	38385	106734	0	0	8157	749142	0	0
2024-04-30 17:36:32			0	34102	0	0	0	18246	17130	150798	27935	963063	38374	106640	0	0	8162	748839	0	0
2024-04-30 17:37:32			0	34092	0	0	0	18251	17130	150750	27819	962950	38351	106642	0	0	8161	749330	0	0
2024-04-30 17:38:32			0	34116	0	0	0	18280	17100	150650	27843	962803	38360	106653	0	0	8162	748274	0	0
2024-04-30 17:39:32			0	34137	0	0	0	18254	17090	150578	27956	962725	38347	106643	0	0	8163	747285	0	0
2024-04-30 17:40:32			0	34185	0	0	0	18135	17070	150442	27628	962508	38334	106597	0	0	8168	745017	0	0
2024-04-30 17:41:32			0	34245	0	0	0	18015	17020	150238	27814	962258	38331	106551	0	0	8173	742290	0	0
2024-04-30 17:42:32			0	34308	0	0	0	18077	17010	149966	27923	962154	38319	106575	0	0	8176	739264	0	0
2024-04-30 17:43:32			0	34398	0	0	0	18135	16980	149555	27770	962165	38328	106597	0	0	8180	735020	0	0
2024-04-30 17:44:32			0	34512	0	0	0	18137	16970	148927	27587	962141	38337	106598	0	0	8186	729560	0	0
2024-04-30 17:45:32			0	34620	0	0	0	18101	16950	148575	27595	962135	38347	106584	0	0	8193	724458	0	0
2024-04-30 17:46:32			0	34719	0	0	0	18036	16930	148103	27836	961970	38312	106559	0	0	8199	719811	0	0
2024-04-30 17:47:32			0	34758	0	0	0	18033	16910	147887	27795	961893	38311	106558	0	0	8202	718034	0	0
2024-04-30 17:48:32			0	34777	0	0	0	18020	16900	147875	27840	961868	38331	106553	0	0	8203	717170	0	0
2024-04-30 17:49:32			0	34773	0	0	0	18025	16880	148035	27673	961783	38319	106555	0	0	8202	717438	0	0
2024-04-30 17:50:32			0	34711	0	0	0	18031	16870	148115	27913	961774	38329	106557	0	0	8199	720426	0	0
2024-04-30 17:51:32			0	34672	0	0	0	18062	16850	148439	27814	961812	38327	106569	0	0	8196	722365	0	0
2024-04-30 17:52:32			0	34622	0	0	0	18072	16850	148691	27637	961794	38337	106573	0	0	8193	724755	0	0
2024-04-30 17:53:32			0	34573	0	0	0	18072	16840	148839	27708	961725	38316	106573	0	0	8190	727143	0	0
2024-04-30 17:54:32			0	34537	0	0	0	18083	16840	149051	27887	961830	38316	106577	0	0	8188	728872	0	0
2024-04-30 17:55:32			0	34519	0	0	0	18161	16840	149055	27623	961857	38337	106607	0	0	8186	729738	0	0
2024-04-30 17:56:32			0	34510	0	0	0	18194	16850	149279	27540	961891	38348	106620	0	0	8185	730131	0	0
2024-04-30 17:57:32			0	34512	0	0	0	18205	16850	149291	27571	961997	38316	106624	0	0	8185	730035	0	0
2024-04-30 17:58:32			0	34545	0	0	0	18192	16860	149083	27514	961987	38338	106619	0	0	8187	728408	0	0
2024-04-30 17:59:32			0	34549	0	0	0	18174	16860	148931	27488	961961	38338	106612	0	0	8187	728216	0	0
2024-04-30 18:00:32			0	34570	0	0	0	18132	16860	148871	27809	961961	38317	106596	0	0	8189	727208	0	0
2024-04-30 18:01:32			0	34589	0	0	0	18142	16860	148831	27781	961969	38339	106600	0	0	8190	726297	0	0
2024-04-30 18:02:32			0	34556	0	0	0	18189	16850	148971	27614	962005	38337	106618	0	0	8187	727919	0	0
2024-04-30 18:03:32			0	34535	0	0	0	18194	16860	149139	27762	962040	38338	106620	0	0	8186	728889	0	0
2024-04-30 18:04:32			0	34488	0	0	0	18215	16870	149307	27913	962117	38339	106628	0	0	8183	731112	0	0
2024-04-30 18:05:32			0	34468	0	0	0	18241	16870	149387	27698	962091	38339	106638	0	0	8182	732076	0	0
2024-04-30 18:06:32			0	34412	0	0	0	18259	16880	149583	27878	962186	38352	106645	0	0	8178	734741	0	0
2024-04-30 18:07:32			0	34383	0	0	0	18233	16880	149783	27672	962160	38331	106635	0	0	8177	736145	0	0
2024-04-30 18:08:32			0	34347	0	0	0	18202	16890	149954	27729	962176	38341	106623	0	0	8175	737850	0	0
2024-04-30 18:09:32			0	34324	0	0	0	18207	16900	150050	27703	962166	38354	106625	0	0	8174	738927	0	0
2024-04-30 18:10:32			0	34322	0	0	0	18202	16900	150066	27724	962158	38341	106623	0	0	8174	739024	0	0
2024-04-30 18:11:32			0	34294	0	0	0	18207	16900	150158	27824	962166	38342	106625	0	0	8172	740386	0	0
2024-04-30 18:12:32			0	34266	0	0	0	18179	16900	150278	27556	962061	38342	106614	0	0	8171	741749	0	0
2024-04-30 18:13:32			0	34265	0	0	0	18150	16890	150274	27588	962045	38331	106603	0	0	8172	741838	0	0
2024-04-30 18:14:32			0	34260	0	0	0	18153	16870	150262	27798	962004	38339	106604	0	0	8171	742162	0	0
2024-04-30 18:15:32			0	34258	0	0	0	18161	16870	150238	27930	961951	38318	106607	0	0	8171	742260	0	0
2024-04-30 18:16:32			0	34264	0	0	0	18166	16860	150238	28051	961916	38339	106609	0	0	8171	742007	0	0
2024-04-30 18:17:32			0	34248	0	0	0	18186	16860	150278	27900	961987	38328	106617	0	0	8170	742788	0	0
2024-04-30 18:18:32			0	34258	0	0	0	18215	16860	150370	27601	961995	38339	106628	0	0	8170	742300	0	0
2024-04-30 18:19:32			0	34249	0	0	0	18233	16860	150418	27331	962021	38350	106635	0	0	8169	742739	0	0
2024-04-30 18:20:32			0	34278	0	0	0	18257	16870	150158	27538	962083	38350	106644	0	0	8170	741285	0	0
2024-04-30 18:21:32			0	34283	0	0	0	18272	16870	150238	27904	962091	38350	106650	0	0	8170	741042	0	0
2024-04-30 18:22:32			0	34282	0	0	0	18283	16900	150266	27408	962185	38353	106654	0	0	8170	740970	0	0
2024-04-30 18:23:32			0	34250	0	0	0	18306	16900	150318	27660	962264	38341	106663	0	0	8168	742529	0	0
2024-04-30 18:24:32			0	34223	0	0	0	18314	16890	150546	27531	962168	38352	106666	0	0	8166	743887	0	0
2024-04-30 18:25:32			0	34202	0	0	0	18332	16910	150654	27445	962315	38354	106673	0	0	8165	744832	0	0
2024-04-30 18:26:32			0	34176	0	0	0	18337	16910	150594	27571	962368	38365	106675	0	0	8163	746104	0	0
2024-04-30 18:27:32			0	34143	0	0	0	18353	16920	150802	27789	962331	38366	106681	0	0	8161	747680	0	0
2024-04-30 18:28:32			0	34131	0	0	0	18366	16930	150958	27545	962479	38367	106686	0	0	8160	748229	0	0
2024-04-30 18:29:32			0	34107	0	0	0	18355	16950	150954	27537	962478	38369	106682	0	0	8159	749325	0	0
2024-04-30 18:30:32			0	34089	0	0	0	18350	16970	151146	27594	962563	38371	106680	0	0	8158	750128	0	0
2024-04-30 18:31:32			0	34048	0	0	0	18358	16960	151210	27845	962555	38370	106683	0	0	8156	752187	0	0
2024-04-30 18:32:32			0	34040	0	0	0	18366	16970	151282	27602	962563	38371	106686	0	0	8155	752540	0	0
2024-04-30 18:33:32			0	34026	0	0	0	18368	16970	151218	27521	962616	38359	106687	0	0	8155	753230	0	0
2024-04-30 18:34:32			0	34021	0	0	0	18350	16970	151210	27729	962545	38360	106680	0	0	8155	753477	0	0
2024-04-30 18:35:32			0	34008	0	0	0	18335	16970	151354	27424	962571	38382	106674	0	0	8154	754118	0	0
2024-04-30 18:36:32			0	33997	0	0	0	18335	16980	151402	27279	962561	38360	106674	0	0	8153	754620	0	0
2024-04-30 18:37:32			0	33963	0	0	0	18342	16980	151378	27395	962553	38360	106677	0	0	8151	756301	0	0
2024-04-30 18:38:32			0	33953	0	0	0	18329	16970	151566	27647	962519	38371	106672	0	0	8151	756837	0	0
2024-04-30 18:39:32			0	33929	0	0	0	18335	16990	151602	27554	962490	38372	106674	0	0	8150	757944	0	0
2024-04-30 18:40:32			0	33921	0	0	0	18324	16980	151642	27358	962606	38360	106670	0	0	8149	758381	0	0
2024-04-30 18:41:32			0	33925	0	0	0	18311	16970	151706	27587	962545	38360	106665	0	0	8150	758224	0	0
2024-04-30 18:42:32			0	33914	0	0	0	18309	16980	151782	27386	962448	38360	106664	0	0	8149	758728	0	0
2024-04-30 18:43:32			0	33917	0	0	0	18306	16980	151782	27417	962421	38349	106663	0	0	8149	758580	0	0
2024-04-30 18:44:32			0	33924	0	0	0	18301	16970	151718	27885	962431	38359	106661	0	0	8150	758274	0	0
2024-04-30 18:45:32			0	33920	0	0	0	18293	16970	151698	27817	962387	38360	106658	0	0	8150	758472	0	0
2024-04-30 18:46:32			0	33935	0	0	0	18288	16970	151622	27498	962387	38371	106656	0	0	8151	757728	0	0
2024-04-30 18:47:32			0	33947	0	0	0	18280	16960	151590	27621	962370	38359	106653	0	0	8151	757175	0	0
2024-04-30 18:48:32			0	33958	0	0	0	18257	16960	151506	27524	962336	38358	106644	0	0	8152	756631	0	0
2024-04-30 18:49:32			0	33973	0	0	0	18174	16940	151450	27659	962258	38357	106612	0	0	8155	755970	0	0
2024-04-30 18:50:32			0	34011	0	0	0	18135	16940	151414	27729	962153	38346	106597	0	0	8157	754093	0	0
2024-04-30 18:51:32			0	34032	0	0	0	18028	16920	151290	27679	961980	38343	106556	0	0	8160	753139	0	0
2024-04-30 18:52:32			0	34052	0	0	0	18028	16910	151162	27874	961945	38333	106556	0	0	8161	752194	0	0
2024-04-30 18:53:32			0	34086	0	0	0	18072	16880	150966	27708	961941	38340	106573	0	0	8163	750642	0	0
2024-04-30 18:54:32			0	34127	0	0	0	18111	16870	150766	27497	961959	38339	106588	0	0	8164	748668	0	0
2024-04-30 18:55:32			0	34164	0	0	0	18124	16880	150646	27388	961967	38330	106593	0	0	8166	746813	0	0
2024-04-30 18:56:32			0	34187	0	0	0	18129	16880	150610	27632	961967	38340	106595	0	0	8167	745687	0	0
2024-04-30 18:57:32			0	34238	0	0	0	18142	16860	150382	27320	961969	38339	106600	0	0	8170	743276	0	0
2024-04-30 18:58:32			0	34238	0	0	0	18140	16860	150282	27396	962013	38338	106599	0	0	8170	743276	0	0
2024-04-30 18:59:32			0	34284	0	0	0	18142	16870	150098	27698	962012	38329	106600	0	0	8173	740993	0	0
2024-04-30 19:00:32			0	34312	0	0	0	18168	16870	150102	27424	962091	38350	106610	0	0	8174	739630	0	0
2024-04-30 19:01:32			0	34341	0	0	0	18132	16870	149870	27734	962030	38339	106596	0	0	8176	738222	0	0
2024-04-30 19:02:32			0	34373	0	0	0	18077	16860	149839	27422	961916	38339	106575	0	0	8179	736709	0	0
2024-04-30 19:03:32			0	34402	0	0	0	18041	16880	149731	27679	961888	38351	106561	0	0	8181	735225	0	0
2024-04-30 19:04:32			0	34431	0	0	0	18072	16850	149547	27601	961820	38327	106573	0	0	8182	733942	0	0
2024-04-30 19:05:32			0	34476	0	0	0	18085	16850	149335	27232	961865	38337	106578	0	0	8185	731769	0	0
2024-04-30 19:06:32			0	34517	0	0	0	18033	16840	149115	27452	961717	38326	106558	0	0	8188	729834	0	0
2024-04-30 19:07:32			0	34537	0	0	0	18031	16820	149031	27571	961613	38313	106557	0	0	8189	728951	0	0
2024-04-30 19:08:32			0	34579	0	0	0	18010	16810	148991	27445	961509	38323	106549	0	0	8191	726973	0	0
2024-04-30 19:09:32			0	34616	0	0	0	17999	16780	148819	27481	961442	38310	106545	0	0	8194	725317	0	0
2024-04-30 19:10:32			0	34644	0	0	0	18033	16770	148667	27634	961558	38332	106558	0	0	8195	724016	0	0
2024-04-30 19:11:32			0	34668	0	0	0	18077	16780	148579	27348	961627	38332	106575	0	0	8195	722830	0	0
2024-04-30 19:12:32			0	34678	0	0	0	18140	16780	148451	27646	961706	38332	106599	0	0	8195	722352	0	0
2024-04-30 19:13:32			0	34710	0	0	0	18186	16800	148439	27459	961862	38344	106617	0	0	8196	720748	0	0
2024-04-30 19:14:32			0	34724	0	0	0	18197	16800	148387	27526	961818	38333	106621	0	0	8196	720080	0	0
2024-04-30 19:15:32			0	34717	0	0	0	18199	16810	148259	27390	961887	38345	106622	0	0	8196	720375	0	0
2024-04-30 19:16:32			0	34730	0	0	0	18202	16820	148247	27509	961956	38357	106623	0	0	8197	719717	0	0
2024-04-30 19:17:32			0	34767	0	0	0	18246	16820	148167	27628	961982	38346	106640	0	0	8198	717957	0	0
2024-04-30 19:18:32			0	34772	0	0	0	18275	16830	148119	27391	962078	38347	106651	0	0	8198	717680	0	0
2024-04-30 19:19:32			0	34799	0	0	0	18296	16850	148035	27448	962111	38348	106659	0	0	8199	716320	0	0
2024-04-30 19:20:32			0	34810	0	0	0	18301	16860	147991	27528	962233	38361	106661	0	0	8200	715760	0	0
2024-04-30 19:21:32			0	34842	0	0	0	18319	16880	147823	27711	962239	38352	106668	0	0	8201	714167	0	0
2024-04-30 19:22:32			0	34862	0	0	0	18348	16900	147679	27306	962422	38353	106679	0	0	8202	713143	0	0
2024-04-30 19:23:32			0	34860	0	0	0	18384	16920	147691	27621	962516	38377	106693	0	0	8201	713160	0	0
2024-04-30 19:24:32			0	34831	0	0	0	18392	16940	147815	27857	962540	38377	106696	0	0	8200	714455	0	0
2024-04-30 19:25:32			0	34809	0	0	0	18399	16950	147895	27428	962662	38369	106699	0	0	8198	715458	0	0
2024-04-30 19:26:32			0	34757	0	0	0	18399	16960	148055	27474	962679	38369	106699	0	0	8196	717887	0	0
2024-04-30 19:27:32			0	34752	0	0	0	18397	16980	148163	27843	962640	38382	106698	0	0	8195	718047	0	0
2024-04-30 19:28:32			0	34721	0	0	0	18379	16980	148119	27519	962588	38371	106691	0	0	8194	719521	0	0
2024-04-30 19:29:32			0	34713	0	0	0	18363	16980	148151	27575	962553	38371	106685	0	0	8194	719902	0	0
2024-04-30 19:30:32			0	34706	0	0	0	18309	16980	148175	27306	962588	38360	106664	0	0	8194	720235	0	0
2024-04-30 19:31:32			0	34695	0	0	0	18293	16960	148311	27464	962397	38370	106658	0	0	8194	720837	0	0
2024-04-30 19:32:32			0	34673	0	0	0	18288	16970	148351	27705	962519	38360	106656	0	0	8193	721847	0	0
2024-04-30 19:33:32			0	34660	0	0	0	18283	16980	148487	27880	962421	38371	106654	0	0	8192	722428	0	0
2024-04-30 19:34:32			0	34649	0	0	0	18277	16970	148595	27739	962431	38359	106652	0	0	8192	722993	0	0
2024-04-30 19:35:32			0	34631	0	0	0	18293	16970	148639	27523	962492	38371	106658	0	0	8190	723853	0	0
2024-04-30 19:36:32			0	34608	0	0	0	18301	16970	148735	27691	962405	38359	106661	0	0	8189	724954	0	0
2024-04-30 19:37:32			0	34568	0	0	0	18283	16970	148683	27639	962458	38359	106654	0	0	8187	726870	0	0
2024-04-30 19:38:32			0	34582	0	0	0	18280	16960	148843	27476	962397	38370	106653	0	0	8188	726238	0	0
2024-04-30 19:39:32			0	34567	0	0	0	18225	16960	148931	27753	962309	38358	106632	0	0	8188	726958	0	0
2024-04-30 19:40:32			0	34539	0	0	0	18223	16950	148891	27654	962275	38358	106631	0	0	8186	728341	0	0
2024-04-30 19:41:32			0	34561	0	0	0	18218	16950	148895	27467	962266	38369	106629	0	0	8188	727285	0	0
2024-04-30 19:42:32			0	34550	0	0	0	18189	16940	148895	27414	962224	38356	106618	0	0	8187	727852	0	0
2024-04-30 19:43:32			0	34554	0	0	0	18181	16920	148887	28050	962112	38354	106615	0	0	8188	727739	0	0
2024-04-30 19:44:32			0	34578	0	0	0	18155	16910	148867	27543	962104	38343	106605	0	0	8189	726627	0	0
2024-04-30 19:45:32			0	34584	0	0	0	18135	16910	148799	27642	961990	38354	106597	0	0	8190	726339	0	0
2024-04-30 19:46:32			0	34607	0	0	0	18145	16900	148787	27362	962087	38342	106601	0	0	8191	725277	0	0
2024-04-30 19:47:32			0	34602	0	0	0	18161	16890	148623	27781	962036	38341	106607	0	0	8191	725555	0	0
2024-04-30 19:48:32			0	34605	0	0	0	18166	16890	148679	27230	962071	38341	106609	0	0	8191	725412	0	0
2024-04-30 19:49:32			0	34611	0	0	0	18179	16890	148643	27429	961984	38352	106614	0	0	8191	725124	0	0
2024-04-30 19:50:32			0	34641	0	0	0	18176	16880	148583	27516	962020	38351	106613	0	0	8192	723728	0	0
2024-04-30 19:51:32			0	34650	0	0	0	18171	16890	148459	27521	961957	38352	106611	0	0	8193	723259	0	0
2024-04-30 19:52:32			0	34655	0	0	0	18174	16850	148411	27698	961979	38327	106612	0	0	8193	723177	0	0
2024-04-30 19:53:32			0	34669	0	0	0	18148	16860	148419	27393	961934	38349	106602	0	0	8194	722469	0	0
2024-04-30 19:54:32			0	34699	0	0	0	18098	16850	148339	27556	961847	38348	106583	0	0	8197	721076	0	0
2024-04-30 19:55:32			0	34697	0	0	0	18101	16830	148215	27381	961814	38347	106584	0	0	8197	721250	0	0
2024-04-30 19:56:32			0	34720	0	0	0	18116	16830	148171	27601	961840	38336	106590	0	0	8198	720154	0	0
2024-04-30 19:57:32			0	34736	0	0	0	18137	16840	148155	27526	961875	38359	106598	0	0	8198	719353	0	0
2024-04-30 19:58:32			0	34749	0	0	0	18161	16840	148123	27284	961936	38348	106607	0	0	8199	718734	0	0
2024-04-30 19:59:32			0	34739	0	0	0	18186	16850	148147	27263	961891	38337	106617	0	0	8198	719171	0	0
2024-04-30 20:00:32			0	34742	0	0	0	18197	16840	148119	27519	961989	38360	106621	0	0	8198	719067	0	0
2024-04-30 20:01:32			0	34720	0	0	0	18212	16840	148131	27376	961962	38348	106627	0	0	8196	720115	0	0
2024-04-30 20:02:32			0	34755	0	0	0	18225	16860	148155	27339	962066	38349	106632	0	0	8198	718371	0	0
2024-04-30 20:03:32			0	34759	0	0	0	18233	16860	148135	27007	962048	38361	106635	0	0	8198	718181	0	0
2024-04-30 20:04:32			0	34773	0	0	0	18236	16860	148047	27343	962048	38361	106636	0	0	8199	717516	0	0
2024-04-30 20:05:32			0	34763	0	0	0	18236	16860	148147	27164	962013	38360	106636	0	0	8198	717991	0	0
2024-04-30 20:06:32			0	34761	0	0	0	18244	16860	148067	27345	962040	38349	106639	0	0	8198	718086	0	0
2024-04-30 20:07:32			0	34781	0	0	0	18246	16870	148083	26970	962083	38350	106640	0	0	8199	717097	0	0
2024-04-30 20:08:32			0	34772	0	0	0	18267	16870	147987	27275	962083	38361	106648	0	0	8198	717524	0	0
2024-04-30 20:09:32			0	34808	0	0	0	18267	16870	147983	27372	962144	38361	106648	0	0	8200	715816	0	0
2024-04-30 20:10:32			0	34824	0	0	0	18280	16870	147759	27135	962144	38361	106653	0	0	8201	715058	0	0
2024-04-30 20:11:32			0	34849	0	0	0	18283	16880	147775	27424	962152	38362	106654	0	0	8202	713835	0	0
2024-04-30 20:12:32			0	34820	0	0	0	18290	16890	147799	27386	962176	38374	106657	0	0	8201	715170	0	0
2024-04-30 20:13:32			0	34792	0	0	0	18288	16890	147959	27346	962203	38352	106656	0	0	8199	716497	0	0
2024-04-30 20:14:32			0	34753	0	0	0	18293	16890	147951	26965	962203	38363	106658	0	0	8197	718350	0	0
2024-04-30 20:15:32			0	34706	0	0	0	18285	16890	148207	27509	962229	38352	106655	0	0	8194	720587	0	0
2024-04-30 20:16:32			0	34658	0	0	0	18285	16910	148427	27312	962236	38354	106655	0	0	8192	722798	0	0
2024-04-30 20:17:32			0	34606	0	0	0	18296	16910	148659	27559	962359	38365	106659	0	0	8189	725285	0	0
2024-04-30 20:18:32			0	34551	0	0	0	18309	16910	148871	27279	962254	38365	106664	0	0	8185	727923	0	0
2024-04-30 20:19:32			0	34508	0	0	0	18316	16910	149027	27286	962288	38376	106667	0	0	8183	729990	0	0
2024-04-30 20:20:32			0	34475	0	0	0	18314	16930	149211	27454	962348	38367	106666	0	0	8181	731500	0	0
2024-04-30 20:21:32			0	34448	0	0	0	18301	16940	149231	27616	962356	38367	106661	0	0	8180	732763	0	0
2024-04-30 20:22:32			0	34438	0	0	0	18277	16930	149411	27246	962321	38377	106652	0	0	8179	733285	0	0
2024-04-30 20:23:32			0	34407	0	0	0	18254	16930	149535	27384	962295	38367	106643	0	0	8178	734784	0	0
2024-04-30 20:24:32			0	34400	0	0	0	18223	16920	149563	27126	962252	38355	106631	0	0	8178	735162	0	0
2024-04-30 20:25:32			0	34389	0	0	0	18199	16920	149583	27324	962244	38343	106622	0	0	8178	735695	0	0
2024-04-30 20:26:32			0	34397	0	0	0	18192	16900	149443	27308	962087	38354	106619	0	0	8178	735387	0	0
2024-04-30 20:27:32			0	34421	0	0	0	18179	16890	149435	27348	962018	38363	106614	0	0	8180	734266	0	0
2024-04-30 20:28:32			0	34428	0	0	0	18158	16890	149367	27164	962045	38341	106606	0	0	8181	733928	0	0
2024-04-30 20:29:32			0	34440	0	0	0	18145	16880	149255	27280	961967	38340	106601	0	0	8182	733388	0	0
2024-04-30 20:30:32			0	34479	0	0	0	18129	16870	149187	27338	961924	38339	106595	0	0	8184	731545	0	0
2024-04-30 20:31:32			0	34479	0	0	0	18109	16860	149147	27196	961829	38338	106587	0	0	8184	731585	0	0
2024-04-30 20:32:32			0	34483	0	0	0	18106	16850	149059	27521	961794	38327	106586	0	0	8185	731432	0	0
2024-04-30 20:33:32			0	34511	0	0	0	18096	16830	149071	27092	961709	38347	106582	0	0	8186	730162	0	0
2024-04-30 20:34:32			0	34519	0	0	0	18088	16820	148943	27092	961719	38335	106579	0	0	8187	729817	0	0
2024-04-30 20:35:32			0	34530	0	0	0	18080	16810	148831	27438	961649	38324	106576	0	0	8187	729327	0	0
2024-04-30 20:36:32			0	34570	0	0	0	18075	16790	148799	27300	961617	38343	106574	0	0	8190	727484	0	0
2024-04-30 20:37:32			0	34590	0	0	0	18070	16790	148715	27613	961617	38333	106572	0	0	8191	726524	0	0
2024-04-30 20:38:32			0	34614	0	0	0	18064	16780	148551	27312	961566	38332	106570	0	0	8192	725413	0	0
2024-04-30 20:39:32			0	34639	0	0	0	18067	16770	148547	27447	961584	38353	106571	0	0	8194	724255	0	0
2024-04-30 20:40:32			0	34668	0	0	0	18070	16770	148395	27277	961576	38331	106572	0	0	8195	722869	0	0
2024-04-30 20:41:32			0	34706	0	0	0	18075	16770	148215	27310	961549	38331	106574	0	0	8197	721055	0	0
2024-04-30 20:42:32			0	34710	0	0	0	18072	16760	148139	27235	961541	38341	106573	0	0	8198	720904	0	0
2024-04-30 20:43:32			0	34782	0	0	0	18072	16760	148039	27462	961480	38340	106573	0	0	8202	717477	0	0
2024-04-30 20:44:32			0	34804	0	0	0	18083	16750	147887	27310	961551	38340	106577	0	0	8203	716471	0	0
2024-04-30 20:45:32			0	34848	0	0	0	18075	16750	147755	27492	961578	38330	106574	0	0	8205	714386	0	0
2024-04-30 20:46:32			0	34877	0	0	0	18067	16750	147523	27338	961490	38339	106571	0	0	8207	713014	0	0
2024-04-30 20:47:32			0	34917	0	0	0	18054	16730	147311	27208	961421	38338	106566	0	0	8209	711201	0	0
2024-04-30 20:48:32			0	34940	0	0	0	18044	16720	147123	27296	961457	38337	106562	0	0	8211	710155	0	0
2024-04-30 20:49:32			0	34986	0	0	0	18038	16720	147123	27367	961457	38337	106560	0	0	8213	707989	0	0
2024-04-30 20:50:32			0	35009	0	0	0	18025	16720	146987	27168	961370	38326	106555	0	0	8215	706908	0	0
2024-04-30 20:51:32			0	35035	0	0	0	18012	16710	146803	27199	961441	38326	106550	0	0	8217	705725	0	0
2024-04-30 20:52:32			0	35051	0	0	0	18005	16710	146899	27348	961327	38337	106547	0	0	8218	704975	0	0
2024-04-30 20:53:32			0	35066	0	0	0	18002	16700	146831	27504	961337	38335	106546	0	0	8218	704310	0	0
2024-04-30 20:54:32			0	35069	0	0	0	17999	16680	146775	27466	961234	38334	106545	0	0	8219	704246	0	0
2024-04-30 20:55:32			0	35067	0	0	0	18002	16680	146695	27334	961260	38324	106546	0	0	8218	704339	0	0
2024-04-30 20:56:32			0	35098	0	0	0	17997	16680	146615	27308	961234	38324	106544	0	0	8220	702888	0	0
2024-04-30 20:57:32			0	35085	0	0	0	17999	16670	146643	27170	961217	38323	106545	0	0	8219	703535	0	0
2024-04-30 20:58:32			0	35107	0	0	0	17999	16670	146656	27419	961156	38322	106545	0	0	8221	702505	0	0
2024-04-30 20:59:32			0	35092	0	0	0	17984	16670	146723	27386	961130	38343	106539	0	0	8220	703207	0	0
2024-04-30 21:00:32			0	35106	0	0	0	17989	16660	146711	27234	961148	38322	106541	0	0	8221	702590	0	0
2024-04-30 21:01:32			0	35092	0	0	0	17979	16650	146551	27421	961202	38342	106537	0	0	8220	703283	0	0
2024-04-30 21:02:32			0	35115	0	0	0	17984	16660	146608	27471	961148	38311	106539	0	0	8221	702169	0	0
2024-04-30 21:03:32			0	35108	0	0	0	17974	16650	146587	27190	961211	38342	106535	0	0	8221	702535	0	0
2024-04-30 21:04:32			0	35130	0	0	0	17976	16640	146624	27277	961107	38309	106536	0	0	8222	701544	0	0
2024-04-30 21:05:32			0	35119	0	0	0	17976	16640	146516	27497	961115	38331	106536	0	0	8222	702058	0	0
2024-04-30 21:06:32			0	35123	0	0	0	17981	16650	146452	27409	961097	38342	106538	0	0	8222	701833	0	0
2024-04-30 21:07:32			0	35146	0	0	0	17984	16640	146568	27213	961194	38341	106539	0	0	8223	700797	0	0
2024-04-30 21:08:32			0	35136	0	0	0	17989	16640	146476	27405	961107	38331	106541	0	0	8222	701264	0	0
2024-04-30 21:09:32			0	35156	0	0	0	17997	16640	146360	27453	961107	38341	106544	0	0	8223	700331	0	0
2024-04-30 21:10:32			0	35146	0	0	0	17999	16640	146452	27338	961141	38331	106545	0	0	8223	700797	0	0
2024-04-30 21:11:32			0	35160	0	0	0	18005	16630	146440	27400	961091	38330	106547	0	0	8223	700182	0	0
2024-04-30 21:12:32			0	35164	0	0	0	18010	16640	146420	27495	961194	38331	106549	0	0	8223	699957	0	0
2024-04-30 21:13:32			0	35163	0	0	0	18010	16640	146352	27109	961133	38331	106549	0	0	8223	700004	0	0
2024-04-30 21:14:32			0	35157	0	0	0	18015	16640	146360	27235	961141	38320	106551	0	0	8223	700284	0	0
2024-04-30 21:15:32			0	35182	0	0	0	18018	16640	146288	27469	961212	38341	106552	0	0	8224	699118	0	0
2024-04-30 21:16:32			0	35189	0	0	0	18025	16640	146400	27267	961160	38341	106555	0	0	8225	698792	0	0
2024-04-30 21:17:32			0	35206	0	0	0	18023	16640	146368	27253	961168	38320	106554	0	0	8226	698001	0	0
2024-04-30 21:18:32			0	35212	0	0	0	18025	16650	146240	27229	961211	38332	106555	0	0	8226	697683	0	0
2024-04-30 21:19:32			0	35208	0	0	0	18031	16640	146248	27549	961194	38341	106557	0	0	8226	697907	0	0
2024-04-30 21:20:32			0	35197	0	0	0	18041	16650	146212	27173	961229	38342	106561	0	0	8225	698382	0	0
2024-04-30 21:21:32			0	35200	0	0	0	18044	16660	146252	27412	961271	38354	106562	0	0	8225	698204	0	0
2024-04-30 21:22:32			0	35233	0	0	0	18044	16660	146184	27371	961227	38355	106562	0	0	8227	696669	0	0
2024-04-30 21:23:32			0	35235	0	0	0	18054	16660	146168	27305	961245	38354	106566	0	0	8227	696576	0	0
2024-04-30 21:24:32			0	35232	0	0	0	18054	16650	146184	27175	961211	38353	106566	0	0	8227	696754	0	0
2024-04-30 21:25:32			0	35238	0	0	0	18057	16660	146228	27464	961271	38343	106567	0	0	8227	696437	0	0
2024-04-30 21:26:32			0	35236	0	0	0	18067	16670	146128	27462	961296	38333	106571	0	0	8227	696492	0	0
2024-04-30 21:27:32			0	35239	0	0	0	18062	16680	146156	27786	961357	38344	106569	0	0	8227	696315	0	0
2024-04-30 21:28:32			0	35215	0	0	0	18062	16680	146156	27665	961392	38345	106569	0	0	8226	697431	0	0
2024-04-30 21:29:32			0	35219	0	0	0	18062	16680	146164	27476	961331	38323	106569	0	0	8226	697245	0	0
2024-04-30 21:30:32			0	35215	0	0	0	18046	16680	146216	27345	961365	38345	106563	0	0	8226	697431	0	0
2024-04-30 21:31:32			0	35205	0	0	0	18062	16680	146276	27370	961313	38345	106569	0	0	8225	697896	0	0
2024-04-30 21:32:32			0	35172	0	0	0	18062	16690	146380	27779	961408	38335	106569	0	0	8223	699395	0	0
2024-04-30 21:33:32			0	35132	0	0	0	18062	16690	146596	27753	961400	38345	106569	0	0	8221	701261	0	0
2024-04-30 21:34:32			0	35082	0	0	0	18059	16700	146759	27414	961416	38335	106568	0	0	8218	703561	0	0
2024-04-30 21:35:32			0	35022	0	0	0	18062	16690	147015	27405	961382	38346	106569	0	0	8215	706412	0	0
2024-04-30 21:36:32			0	34977	0	0	0	18064	16700	147163	27407	961451	38326	106570	0	0	8212	708489	0	0
2024-04-30 21:37:32			0	34937	0	0	0	18062	16700	147271	27414	961416	38335	106569	0	0	8210	710373	0	0
2024-04-30 21:38:32			0	34892	0	0	0	18062	16700	147547	27338	961416	38325	106569	0	0	8208	712498	0	0
2024-04-30 21:39:32			0	34861	0	0	0	18072	16700	147683	27357	961390	38346	106573	0	0	8206	713964	0	0
2024-04-30 21:40:32			0	34797	0	0	0	18072	16700	147935	27402	961398	38336	106573	0	0	8202	716998	0	0
2024-04-30 21:41:32			0	34759	0	0	0	18072	16700	148075	27488	961398	38347	106573	0	0	8200	718804	0	0
2024-04-30 21:42:32			0	34728	0	0	0	18083	16710	148203	27450	961441	38348	106577	0	0	8198	720241	0	0
2024-04-30 21:43:32			0	34693	0	0	0	18088	16700	148315	27511	961398	38336	106579	0	0	8196	721949	0	0
2024-04-30 21:44:32			0	34655	0	0	0	18096	16710	148483	27421	961467	38359	106582	0	0	8194	723725	0	0
2024-04-30 21:45:32			0	34636	0	0	0	18109	16720	148599	27777	961502	38348	106587	0	0	8193	724595	0	0
2024-04-30 21:46:32			0	34622	0	0	0	18116	16720	148699	27492	961536	38349	106590	0	0	8192	725266	0	0
2024-04-30 21:47:32			0	34571	0	0	0	18122	16720	148899	27900	961555	38348	106592	0	0	8189	727712	0	0
2024-04-30 21:48:32			0	34555	0	0	0	18132	16730	148971	27576	961571	38349	106596	0	0	8188	728441	0	0
2024-04-30 21:49:32			0	34534	0	0	0	18148	16740	149023	27310	961587	38361	106602	0	0	8186	729411	0	0
2024-04-30 21:50:32			0	34507	0	0	0	18140	16740	149239	27509	961561	38349	106599	0	0	8185	730711	0	0
2024-04-30 21:51:32			0	34467	0	0	0	18140	16750	149367	27405	961649	38350	106599	0	0	8183	732600	0	0
2024-04-30 21:52:32			0	34451	0	0	0	18114	16750	149431	27398	961569	38339	106589	0	0	8182	733373	0	0
2024-04-30 21:53:32			0	34426	0	0	0	18103	16750	149459	27498	961649	38350	106585	0	0	8181	734581	0	0
2024-04-30 21:54:32			0	34389	0	0	0	18093	16730	149735	27913	961553	38349	106581	0	0	8179	736452	0	0
2024-04-30 21:55:32			0	34376	0	0	0	18077	16740	149771	27774	961508	38338	106575	0	0	8178	737043	0	0
2024-04-30 21:56:32			0	34372	0	0	0	18044	16730	149691	27372	961492	38338	106562	0	0	8179	737277	0	0
2024-04-30 21:57:32			0	34360	0	0	0	18036	16740	149755	27140	961482	38328	106559	0	0	8178	737819	0	0
2024-04-30 21:58:32			0	34354	0	0	0	18031	16730	149739	27322	961447	38338	106557	0	0	8178	738150	0	0
2024-04-30 21:59:32			0	34375	0	0	0	17986	16730	149767	27531	961386	38338	106540	0	0	8180	737131	0	0
2024-04-30 22:00:32			0	34357	0	0	0	17968	16710	149711	27694	961335	38326	106533	0	0	8179	738085	0	0
2024-04-30 22:01:32			0	34362	0	0	0	17935	16710	149759	27535	961283	38337	106520	0	0	8180	737842	0	0
2024-04-30 22:02:32			0	34376	0	0	0	17919	16700	149715	27611	961205	38335	106514	0	0	8181	737203	0	0
2024-04-30 22:03:32			0	34382	0	0	0	17893	16680	149615	27642	961128	38334	106504	0	0	8182	736991	0	0
2024-04-30 22:04:32			0	34399	0	0	0	17909	16670	149567	27407	961112	38312	106510	0	0	8182	736207	0	0
2024-04-30 22:05:32			0	34433	0	0	0	17906	16660	149507	27729	961113	38310	106509	0	0	8184	734601	0	0
2024-04-30 22:06:32			0	34443	0	0	0	17919	16660	149403	27253	961087	38321	106514	0	0	8185	734117	0	0
2024-04-30 22:07:32			0	34486	0	0	0	17922	16650	149251	27549	961044	38332	106515	0	0	8187	732080	0	0
2024-04-30 22:08:32			0	34487	0	0	0	17948	16650	149195	27576	961071	38332	106525	0	0	8187	732032	0	0
2024-04-30 22:09:32			0	34519	0	0	0	17955	16640	149123	27843	961081	38331	106528	0	0	8188	730529	0	0
2024-04-30 22:10:32			0	34506	0	0	0	17981	16640	149019	27479	961107	38320	106538	0	0	8187	731155	0	0
2024-04-30 22:11:32			0	34552	0	0	0	18005	16640	149067	27537	961133	38331	106547	0	0	8189	728940	0	0
2024-04-30 22:12:32			0	34560	0	0	0	18023	16650	148951	27609	961176	38332	106554	0	0	8189	728516	0	0
2024-04-30 22:13:32			0	34562	0	0	0	18033	16650	148971	27512	961150	38332	106558	0	0	8189	728420	0	0
2024-04-30 22:14:32			0	34588	0	0	0	18064	16660	148971	27336	961245	38333	106570	0	0	8190	727132	0	0
2024-04-30 22:15:32			0	34570	0	0	0	18090	16660	148879	27601	961332	38343	106580	0	0	8189	727996	0	0
2024-04-30 22:16:32			0	34562	0	0	0	18111	16670	148867	27698	961375	38344	106588	0	0	8188	728341	0	0
2024-04-30 22:17:32			0	34593	0	0	0	18135	16690	148875	27490	961453	38356	106597	0	0	8190	726774	0	0
2024-04-30 22:18:32			0	34589	0	0	0	18148	16700	148875	27251	961496	38346	106602	0	0	8189	726926	0	0
2024-04-30 22:19:32			0	34588	0	0	0	18158	16700	148903	27466	961504	38347	106606	0	0	8189	726974	0	0
2024-04-30 22:20:32			0	34584	0	0	0	18166	16710	148855	27473	961573	38348	106609	0	0	8189	727127	0	0
2024-04-30 22:21:32			0	34601	0	0	0	18179	16730	148803	27372	961650	38349	106614	0	0	8189	726233	0	0
2024-04-30 22:22:32			0	34589	0	0	0	18186	16730	148823	27428	961650	38361	106617	0	0	8189	726808	0	0
2024-04-30 22:23:32			0	34590	0	0	0	18184	16740	148771	27166	961666	38361	106616	0	0	8189	726721	0	0
2024-04-30 22:24:32			0	34587	0	0	0	18192	16760	148791	27355	961718	38351	106619	0	0	8189	726786	0	0
2024-04-30 22:25:32			0	34607	0	0	0	18194	16750	148727	27362	961710	38362	106620	0	0	8190	725867	0	0
2024-04-30 22:26:32			0	34614	0	0	0	18192	16770	148755	27412	961787	38363	106619	0	0	8190	725452	0	0
2024-04-30 22:27:32			0	34601	0	0	0	18197	16770	148651	27620	961769	38364	106621	0	0	8189	726075	0	0
2024-04-30 22:28:32			0	34627	0	0	0	18192	16780	148523	27412	961811	38365	106619	0	0	8191	724791	0	0
2024-04-30 22:29:32			0	34645	0	0	0	18181	16780	148551	27300	961830	38354	106615	0	0	8192	723929	0	0
2024-04-30 22:30:32			0	34646	0	0	0	18179	16790	148487	27286	961828	38355	106614	0	0	8192	723842	0	0
2024-04-30 22:31:32			0	34639	0	0	0	18166	16790	148455	27739	961767	38354	106609	0	0	8192	724177	0	0
2024-04-30 22:32:32			0	34653	0	0	0	18168	16780	148379	27355	961759	38354	106610	0	0	8193	723547	0	0
2024-04-30 22:33:32			0	34651	0	0	0	18161	16780	148359	27277	961698	38342	106607	0	0	8193	723642	0	0
2024-04-30 22:34:32			0	34672	0	0	0	18142	16780	148399	27345	961759	38354	106600	0	0	8194	722639	0	0
2024-04-30 22:35:32			0	34667	0	0	0	18148	16800	148415	27277	961783	38366	106602	0	0	8194	722799	0	0
2024-04-30 22:36:32			0	34661	0	0	0	18140	16780	148411	27699	961698	38354	106599	0	0	8194	723164	0	0
2024-04-30 22:37:32			0	34639	0	0	0	18124	16780	148431	27535	961671	38354	106593	0	0	8193	724216	0	0
2024-04-30 22:38:32			0	34628	0	0	0	18122	16770	148483	27573	961690	38353	106592	0	0	8192	724782	0	0
2024-04-30 22:39:32			0	34634	0	0	0	18132	16770	148523	27417	961681	38352	106596	0	0	8192	724495	0	0
2024-04-30 22:40:32			0	34611	0	0	0	18127	16760	148471	27601	961594	38352	106594	0	0	8191	725635	0	0
2024-04-30 22:41:32			0	34631	0	0	0	18129	16760	148523	27554	961647	38352	106595	0	0	8192	724678	0	0
2024-04-30 22:42:32			0	34605	0	0	0	18132	16760	148527	27293	961673	38352	106596	0	0	8191	725923	0	0
2024-04-30 22:43:32			0	34613	0	0	0	18129	16770	148651	27639	961708	38352	106595	0	0	8191	725500	0	0
2024-04-30 22:44:32			0	34624	0	0	0	18129	16770	148615	27528	961663	38364	106595	0	0	8192	724973	0	0
2024-04-30 22:45:32			0	34619	0	0	0	18129	16760	148623	27232	961594	38352	106595	0	0	8191	725252	0	0
2024-04-30 22:46:32			0	34615	0	0	0	18142	16760	148651	27194	961620	38341	106600	0	0	8191	725444	0	0
2024-04-30 22:47:32			0	34610	0	0	0	18135	16760	148579	27402	961647	38363	106597	0	0	8191	725683	0	0
2024-04-30 22:48:32			0	34613	0	0	0	18124	16770	148603	27498	961663	38364	106593	0	0	8191	725500	0	0
2024-04-30 22:49:32			0	34621	0	0	0	18122	16770	148695	27189	961663	38353	106592	0	0	8192	725117	0	0
2024-04-30 22:50:32			0	34638	0	0	0	18114	16760	148527	27388	961620	38363	106589	0	0	8193	724343	0	0
2024-04-30 22:51:32			0	34636	0	0	0	18096	16770	148511	27232	961629	38352	106582	0	0	8193	724399	0	0
2024-04-30 22:52:32			0	34621	0	0	0	18101	16760	148503	27090	961612	38351	106584	0	0	8192	725156	0	0
2024-04-30 22:53:32			0	34636	0	0	0	18077	16760	148427	27248	961586	38330	106575	0	0	8193	724438	0	0
2024-04-30 22:54:32			0	34632	0	0	0	18067	16760	148367	27275	961533	38351	106571	0	0	8193	724630	0	0
2024-04-30 22:55:32			0	34645	0	0	0	18036	16740	148287	27462	961482	38328	106559	0	0	8194	724086	0	0
2024-04-30 22:56:32			0	34671	0	0	0	18041	16730	148339	27194	961413	38338	106561	0	0	8196	722882	0	0
2024-04-30 22:57:32			0	34697	0	0	0	18012	16720	148219	27251	961317	38337	106550	0	0	8198	721680	0	0
2024-04-30 22:58:32			0	34718	0	0	0	17994	16720	148111	27324	961299	38337	106543	0	0	8199	720678	0	0
2024-04-30 22:59:32			0	34730	0	0	0	17981	16700	147991	27308	961311	38325	106538	0	0	8200	720185	0	0
2024-04-30 23:00:32			0	34773	0	0	0	17968	16680	147839	27440	961207	38334	106533	0	0	8203	718216	0	0
2024-04-30 23:01:32			0	34793	0	0	0	17922	16660	147819	27163	961087	38321	106515	0	0	8204	717343	0	0
2024-04-30 23:02:32			0	34841	0	0	0	17893	16660	147539	27128	961034	38333	106504	0	0	8208	715066	0	0
2024-04-30 23:03:32			0	34868	0	0	0	17862	16650	147439	27241	960939	38321	106492	0	0	8210	713826	0	0
2024-04-30 23:04:32			0	34906	0	0	0	17849	16620	147259	27398	960792	38307	106487	0	0	8212	712145	0	0
2024-04-30 23:05:32			0	34948	0	0	0	17841	16610	147075	27034	960802	38306	106484	0	0	8214	710201	0	0
2024-04-30 23:06:32			0	34986	0	0	0	17841	16590	146983	27204	960716	38315	106484	0	0	8216	708487	0	0
2024-04-30 23:07:32			0	35028	0	0	0	17864	16590	146895	27206	960787	38327	106493	0	0	8218	706513	0	0
2024-04-30 23:08:32			0	35022	0	0	0	17885	16580	146819	27557	960779	38326	106501	0	0	8217	706833	0	0
2024-04-30 23:09:32			0	35057	0	0	0	17906	16570	146675	27293	960868	38325	106509	0	0	8219	705228	0	0
2024-04-30 23:10:32			0	35064	0	0	0	17914	16580	146667	27443	960824	38325	106512	0	0	8219	704862	0	0
2024-04-30 23:11:32			0	35086	0	0	0	17901	16580	146759	27291	960877	38325	106507	0	0	8221	703831	0	0
2024-04-30 23:12:32			0	35093	0	0	0	17901	16570	146699	27481	960842	38325	106507	0	0	8221	703541	0	0
2024-04-30 23:13:32			0	35095	0	0	0	17893	16570	146739	27287	960807	38303	106504	0	0	8221	703447	0	0
2024-04-30 23:14:32			0	35096	0	0	0	17885	16560	146535	27353	960765	38312	106501	0	0	8221	703439	0	0
2024-04-30 23:15:32			0	35085	0	0	0	17833	16560	146619	27312	960686	38323	106481	0	0	8222	703954	0	0
2024-04-30 23:16:32			0	35105	0	0	0	17815	16540	146519	27550	960635	38311	106474	0	0	8223	703093	0	0
2024-04-30 23:17:32			0	35115	0	0	0	17802	16540	146548	27248	960627	38310	106469	0	0	8224	702625	0	0
2024-04-30 23:18:32			0	35117	0	0	0	17781	16520	146540	27334	960576	38298	106461	0	0	8224	702608	0	0
2024-04-30 23:19:32			0	35101	0	0	0	17771	16520	146471	27241	960515	38309	106457	0	0	8223	703357	0	0
2024-04-30 23:20:32			0	35119	0	0	0	17740	16510	146420	27272	960419	38308	106445	0	0	8225	702552	0	0
2024-04-30 23:21:32			0	35115	0	0	0	17709	16490	146587	27573	960315	38295	106433	0	0	8225	702816	0	0
2024-04-30 23:22:32			0	35136	0	0	0	17670	16480	146448	27246	960185	38284	106418	0	0	8227	701871	0	0
2024-04-30 23:23:32			0	35155	0	0	0	17638	16440	146420	27036	960057	38281	106406	0	0	8228	701136	0	0
2024-04-30 23:24:32			0	35146	0	0	0	17610	16430	146392	27507	959954	38269	106395	0	0	8228	701594	0	0
2024-04-30 23:25:32			0	35180	0	0	0	17571	16380	146360	27324	959906	38287	106380	0	0	8231	700196	0	0
2024-04-30 23:26:32			0	35180	0	0	0	17571	16380	146276	27282	959898	38286	106380	0	0	8231	700196	0	0
2024-04-30 23:27:32			0	35186	0	0	0	17576	16370	146252	27081	959943	38296	106382	0	0	8231	699953	0	0
2024-04-30 23:28:32			0	35213	0	0	0	17649	16370	146112	27417	960066	38296	106410	0	0	8231	698695	0	0
2024-04-30 23:29:32			0	35204	0	0	0	17670	16380	146152	27220	960083	38296	106418	0	0	8230	699076	0	0
2024-04-30 23:30:32			0	35233	0	0	0	17701	16370	146136	27237	960093	38296	106430	0	0	8231	697763	0	0
2024-04-30 23:31:32			0	35221	0	0	0	17742	16380	146144	27497	960162	38296	106446	0	0	8230	698284	0	0
2024-04-30 23:32:32			0	35244	0	0	0	17763	16380	146124	27348	960196	38297	106454	0	0	8231	697214	0	0
2024-04-30 23:33:32			0	35251	0	0	0	17779	16390	146180	27229	960160	38310	106460	0	0	8231	696850	0	0
2024-04-30 23:34:32			0	35253	0	0	0	17784	16390	146128	27633	960213	38299	106462	0	0	8231	696757	0	0
2024-04-30 23:35:32			0	35236	0	0	0	17797	16400	146072	27358	960229	38299	106467	0	0	8230	697511	0	0
2024-04-30 23:36:32			0	35247	0	0	0	17812	16400	146004	27229	960308	38310	106473	0	0	8230	696999	0	0
2024-04-30 23:37:32			0	35256	0	0	0	17820	16420	146000	27124	960367	38311	106476	0	0	8231	696505	0	0
2024-04-30 23:38:32			0	35268	0	0	0	17810	16420	146064	27346	960359	38322	106472	0	0	8232	695947	0	0
2024-04-30 23:39:32			0	35281	0	0	0	17774	16420	146012	27242	960341	38311	106458	0	0	8233	695344	0	0
2024-04-30 23:40:32			0	35299	0	0	0	17766	16430	145992	27041	960305	38313	106455	0	0	8234	694471	0	0
2024-04-30 23:41:32			0	35290	0	0	0	17755	16430	145872	27213	960278	38302	106451	0	0	8234	694888	0	0
2024-04-30 23:42:32			0	35299	0	0	0	17724	16410	145748	26996	960237	38310	106439	0	0	8235	694546	0	0
2024-04-30 23:43:32			0	35317	0	0	0	17706	16410	145784	27538	960237	38310	106432	0	0	8236	693711	0	0
2024-04-30 23:44:32			0	35344	0	0	0	17693	16410	145700	27507	960166	38300	106427	0	0	8238	692461	0	0
2024-04-30 23:45:32			0	35336	0	0	0	17667	16400	145676	27343	960116	38299	106417	0	0	8238	692869	0	0
2024-04-30 23:46:32			0	35356	0	0	0	17631	16390	145660	27332	960046	38288	106403	0	0	8239	691981	0	0
2024-04-30 23:47:32			0	35355	0	0	0	17646	16380	145628	27381	960038	38297	106409	0	0	8239	692064	0	0
2024-04-30 23:48:32			0	35364	0	0	0	17649	16370	145620	27384	959996	38275	106410	0	0	8239	691685	0	0
2024-04-30 23:49:32			0	35363	0	0	0	17657	16360	145668	27225	959979	38295	106413	0	0	8239	691769	0	0
2024-04-30 23:50:32			0	35374	0	0	0	17649	16360	145676	27116	959953	38274	106410	0	0	8240	691260	0	0
2024-04-30 23:51:32			0	35384	0	0	0	17654	16350	145568	27171	959910	38284	106412	0	0	8240	690835	0	0
2024-04-30 23:52:32			0	35360	0	0	0	17646	16330	145728	27029	959851	38282	106409	0	0	8239	692020	0	0
2024-04-30 23:53:32			0	35361	0	0	0	17636	16340	145692	26916	959894	38283	106405	0	0	8239	691936	0	0
2024-04-30 23:54:32			0	35346	0	0	0	17628	16330	145600	27166	959824	38282	106402	0	0	8239	692668	0	0
2024-04-30 23:55:32			0	35363	0	0	0	17628	16320	145688	27246	959835	38282	106402	0	0	8240	691919	0	0
2024-04-30 23:56:32			0	35343	0	0	0	17636	16320	145676	27400	959782	38303	106405	0	0	8238	692844	0	0
2024-04-30 23:57:32			0	35317	0	0	0	17623	16320	145764	27123	959774	38291	106400	0	0	8237	694049	0	0
2024-04-30 23:58:32			0	35316	0	0	0	17610	16300	145796	26998	959767	38279	106395	0	0	8237	694170	0	0
2024-04-30 23:59:32			0	35305	0	0	0	17610	16300	145864	27137	959670	38301	106395	0	0	8237	694681	0	0
2024-05-01 00:00:32			0	35296	0	0	0	17602	16290	145896	27431	959759	38289	106392	0	0	8236	695136	0	0
2024-05-01 00:01:32			0	35271	0	0	0	17589	16300	146000	27178	959688	38268	106387	0	0	8235	696260	0	0
2024-05-01 00:02:32			0	35261	0	0	0	17592	16280	146124	27187	959682	38289	106388	0	0	8234	696800	0	0
2024-05-01 00:03:32			0	35247	0	0	0	17587	16270	146212	27377	959613	38277	106386	0	0	8234	697488	0	0
2024-05-01 00:04:32			0	35223	0	0	0	17587	16270	146188	27362	959647	38288	106386	0	0	8232	698606	0	0
2024-05-01 00:05:32			0	35196	0	0	0	17579	16260	146316	27345	959657	38277	106383	0	0	8231	699903	0	0
2024-05-01 00:06:32			0	35191	0	0	0	17581	16260	146440	27466	959596	38287	106384	0	0	8231	700136	0	0
2024-05-01 00:07:32			0	35170	0	0	0	17571	16260	146540	27329	959552	38277	106380	0	0	8230	701117	0	0
2024-05-01 00:08:32			0	35135	0	0	0	17561	16240	146616	27440	959519	38285	106376	0	0	8228	702830	0	0
2024-05-01 00:09:32			0	35145	0	0	0	17535	16240	146676	27466	959511	38263	106366	0	0	8229	702361	0	0
2024-05-01 00:10:32			0	35118	0	0	0	17498	16240	146808	27223	959432	38263	106352	0	0	8228	703625	0	0
2024-05-01 00:11:32			0	35097	0	0	0	17493	16230	146763	27237	959468	38261	106350	0	0	8227	704648	0	0
2024-05-01 00:12:32			0	35097	0	0	0	17464	16210	146843	27644	959356	38260	106339	0	0	8227	704724	0	0
2024-05-01 00:13:32			0	35103	0	0	0	17472	16210	146807	27659	959356	38260	106342	0	0	8227	704442	0	0
2024-05-01 00:14:32			0	35089	0	0	0	17436	16200	146851	27822	959295	38260	106328	0	0	8227	705137	0	0
2024-05-01 00:15:32			0	35091	0	0	0	17412	16190	146899	27469	959166	38258	106319	0	0	8228	705081	0	0
2024-05-01 00:16:32			0	35101	0	0	0	17386	16170	146903	27490	959141	38247	106309	0	0	8228	704688	0	0
2024-05-01 00:17:32			0	35107	0	0	0	17366	16160	146888	27448	959046	38245	106301	0	0	8229	704445	0	0
2024-05-01 00:18:32			0	35118	0	0	0	17350	16140	146804	27498	958960	38243	106295	0	0	8230	704006	0	0
2024-05-01 00:19:32			0	35136	0	0	0	17350	16120	146700	27121	958883	38243	106295	0	0	8231	703238	0	0
2024-05-01 00:20:32			0	35140	0	0	0	17345	16110	146700	27473	958866	38242	106293	0	0	8231	703089	0	0
2024-05-01 00:21:32			0	35128	0	0	0	17309	16100	146704	27237	958816	38250	106279	0	0	8231	703689	0	0
2024-05-01 00:22:32			0	35137	0	0	0	17316	16080	146748	27611	958765	38228	106282	0	0	8231	703343	0	0
2024-05-01 00:23:32			0	35143	0	0	0	17303	16070	146764	27379	958635	38249	106277	0	0	8232	703100	0	0
2024-05-01 00:24:32			0	35147	0	0	0	17301	16060	146768	27157	958645	38237	106276	0	0	8232	702951	0	0
2024-05-01 00:25:32			0	35158	0	0	0	17298	16050	146724	27260	958602	38236	106275	0	0	8233	702474	0	0
2024-05-01 00:26:32			0	35154	0	0	0	17296	16040	146756	27725	958541	38235	106274	0	0	8232	702699	0	0
2024-05-01 00:27:32			0	35163	0	0	0	17285	16030	146804	27234	958543	38234	106270	0	0	8233	702316	0	0
2024-05-01 00:28:32			0	35149	0	0	0	17303	16010	146856	27150	958519	38221	106277	0	0	8232	703047	0	0
2024-05-01 00:29:32			0	35141	0	0	0	17296	16010	146908	27521	958537	38221	106274	0	0	8231	703422	0	0
2024-05-01 00:30:32			0	35131	0	0	0	17283	16000	146912	27497	958468	38231	106269	0	0	8231	703928	0	0
2024-05-01 00:31:32			0	35130	0	0	0	17285	16000	146928	27713	958441	38231	106270	0	0	8231	703975	0	0
2024-05-01 00:32:32			0	35108	0	0	0	17272	15990	147024	27597	958451	38231	106265	0	0	8230	705045	0	0
2024-05-01 00:33:32			0	35108	0	0	0	17275	15980	146931	27656	958390	38230	106266	0	0	8230	705083	0	0
2024-05-01 00:34:32			0	35111	0	0	0	17272	15980	146923	27310	958382	38218	106265	0	0	8230	704942	0	0
2024-05-01 00:35:32			0	35095	0	0	0	17264	15960	147103	27722	958358	38228	106262	0	0	8229	705769	0	0
2024-05-01 00:36:32			0	35099	0	0	0	17254	15970	147011	27242	958340	38250	106258	0	0	8230	705543	0	0
2024-05-01 00:37:32			0	35113	0	0	0	17262	15950	147143	27175	958315	38227	106261	0	0	8230	704962	0	0
2024-05-01 00:38:32			0	35078	0	0	0	17267	15950	147115	27178	958368	38216	106263	0	0	8228	706606	0	0
2024-05-01 00:39:32			0	35084	0	0	0	17285	15950	147079	27272	958394	38227	106270	0	0	8228	706324	0	0
2024-05-01 00:40:32			0	35070	0	0	0	17394	15960	147151	27478	958534	38227	106312	0	0	8226	706944	0	0
2024-05-01 00:41:32			0	35069	0	0	0	17423	15980	147283	27466	958698	38250	106323	0	0	8225	706915	0	0
2024-05-01 00:42:32			0	35072	0	0	0	17428	16000	147247	27509	958757	38242	106325	0	0	8225	706698	0	0
2024-05-01 00:43:32			0	35051	0	0	0	17449	16010	147287	27409	958835	38265	106333	0	0	8224	707647	0	0
2024-05-01 00:44:32			0	35028	0	0	0	17462	16030	147267	27665	958886	38255	106338	0	0	8222	708654	0	0
2024-05-01 00:45:32			0	35049	0	0	0	17467	16030	147239	27646	958920	38245	106340	0	0	8224	707665	0	0
2024-05-01 00:46:32			0	35033	0	0	0	17457	16050	147179	27481	958892	38268	106336	0	0	8223	708342	0	0
2024-05-01 00:47:32			0	35050	0	0	0	17467	16050	147283	27767	958953	38247	106340	0	0	8224	707542	0	0
2024-05-01 00:48:32			0	35055	0	0	0	17462	16060	147159	27298	958935	38269	106338	0	0	8224	707268	0	0
2024-05-01 00:49:32			0	35059	0	0	0	17457	16060	147107	27440	958961	38248	106336	0	0	8224	707080	0	0
2024-05-01 00:50:32			0	35081	0	0	0	17451	16060	147131	27308	958856	38248	106334	0	0	8226	706046	0	0
2024-05-01 00:51:32			0	35073	0	0	0	17444	16060	147135	27175	958917	38248	106331	0	0	8225	706422	0	0
2024-05-01 00:52:32			0	35081	0	0	0	17418	16060	147099	27315	958838	38248	106321	0	0	8226	706046	0	0
2024-05-01 00:53:32			0	35095	0	0	0	17389	16070	146975	27277	958819	38249	106310	0	0	8228	705351	0	0
2024-05-01 00:54:32			0	35114	0	0	0	17345	16050	146996	27445	958734	38247	106293	0	0	8229	704535	0	0
2024-05-01 00:55:32			0	35114	0	0	0	17322	16050	146863	27320	958689	38236	106284	0	0	8230	704535	0	0
2024-05-01 00:56:32			0	35116	0	0	0	17306	16030	146860	27438	958578	38245	106278	0	0	8230	704517	0	0
2024-05-01 00:57:32			0	35128	0	0	0	17298	16030	146816	27315	958543	38234	106275	0	0	8231	703955	0	0
2024-05-01 00:58:32			0	35129	0	0	0	17277	16010	146792	27550	958545	38233	106267	0	0	8231	703984	0	0
2024-05-01 00:59:32			0	35130	0	0	0	17264	16000	146868	27589	958494	38231	106262	0	0	8231	703975	0	0
2024-05-01 01:00:32			0	35112	0	0	0	17254	15990	146979	27637	958460	38231	106258	0	0	8230	704857	0	0
2024-05-01 01:01:32			0	35099	0	0	0	17257	15990	146939	27630	958425	38209	106259	0	0	8230	705467	0	0
2024-05-01 01:02:32			0	35075	0	0	0	17257	15990	147027	27616	958425	38231	106259	0	0	8228	706595	0	0
2024-05-01 01:03:32			0	35079	0	0	0	17262	15980	147139	27741	958382	38240	106261	0	0	8228	706445	0	0
2024-05-01 01:04:32			0	35053	0	0	0	17267	15970	147203	27343	958401	38229	106263	0	0	8227	707706	0	0
2024-05-01 01:05:32			0	35030	0	0	0	17301	15980	147203	27588	958461	38229	106276	0	0	8225	708751	0	0
2024-05-01 01:06:32			0	35024	0	0	0	17324	15970	147367	27445	958498	38228	106285	0	0	8224	709072	0	0
2024-05-01 01:07:32			0	34987	0	0	0	17350	15980	147407	27474	958522	38241	106295	0	0	8222	710779	0	0
2024-05-01 01:08:32			0	34973	0	0	0	17363	15980	147443	27660	958514	38240	106300	0	0	8221	711440	0	0
2024-05-01 01:09:32			0	34949	0	0	0	17361	15980	147571	27182	958575	38251	106299	0	0	8219	712575	0	0
2024-05-01 01:10:32			0	34936	0	0	0	17363	15990	147619	27410	958618	38242	106300	0	0	8219	713152	0	0
2024-05-01 01:11:32			0	34921	0	0	0	17379	15990	147667	27229	958591	38252	106306	0	0	8218	713862	0	0
2024-05-01 01:12:32			0	34901	0	0	0	17376	15990	147663	27336	958591	38242	106305	0	0	8217	714810	0	0
2024-05-01 01:13:32			0	34886	0	0	0	17376	15990	147847	27379	958618	38242	106305	0	0	8216	715521	0	0
2024-05-01 01:14:32			0	34868	0	0	0	17374	16000	147831	27523	958599	38252	106304	0	0	8215	716337	0	0
2024-05-01 01:15:32			0	34853	0	0	0	17368	16000	147951	27267	958626	38242	106302	0	0	8214	717050	0	0
2024-05-01 01:16:32			0	34850	0	0	0	17355	16000	148051	27258	958626	38242	106297	0	0	8214	717193	0	0
2024-05-01 01:17:32			0	34835	0	0	0	17384	16000	148075	27232	958705	38252	106308	0	0	8213	717906	0	0
2024-05-01 01:18:32			0	34802	0	0	0	17462	16010	148235	27225	958853	38244	106338	0	0	8210	719439	0	0
2024-05-01 01:19:32			0	34796	0	0	0	17527	16030	148311	27409	958939	38267	106363	0	0	8208	719647	0	0
2024-05-01 01:20:32			0	34753	0	0	0	17540	16050	148363	27715	959085	38268	106368	0	0	8206	721621	0	0
2024-05-01 01:21:32			0	34740	0	0	0	17511	16070	148539	27583	959057	38259	106357	0	0	8206	722163	0	0
2024-05-01 01:22:32			0	34731	0	0	0	17477	16080	148483	27580	959002	38261	106344	0	0	8206	722555	0	0
2024-05-01 01:23:32			0	34730	0	0	0	17436	16080	148627	27744	958949	38250	106328	0	0	8206	722603	0	0
2024-05-01 01:24:32			0	34730	0	0	0	17436	16080	148535	27736	958941	38238	106328	0	0	8206	722603	0	0
2024-05-01 01:25:32			0	34716	0	0	0	17436	16070	148551	27770	958898	38238	106328	0	0	8206	723311	0	0
2024-05-01 01:26:32			0	34709	0	0	0	17441	16070	148627	27464	958959	38260	106330	0	0	8205	723646	0	0
2024-05-01 01:27:32			0	34678	0	0	0	17438	16070	148583	27331	958959	38249	106329	0	0	8203	725131	0	0
2024-05-01 01:28:32			0	34655	0	0	0	17420	16080	148707	27447	959020	38260	106322	0	0	8202	726195	0	0
2024-05-01 01:29:32			0	34627	0	0	0	17394	16080	148815	27625	958967	38249	106312	0	0	8201	727539	0	0
2024-05-01 01:30:32			0	34612	0	0	0	17371	16070	149043	27260	958898	38238	106303	0	0	8201	728299	0	0
2024-05-01 01:31:32			0	34593	0	0	0	17371	16070	149051	27538	958854	38249	106303	0	0	8200	729214	0	0
2024-05-01 01:32:32			0	34574	0	0	0	17355	16070	149179	27633	958880	38249	106297	0	0	8199	730129	0	0
2024-05-01 01:33:32			0	34560	0	0	0	17355	16080	149103	27339	958836	38249	106297	0	0	8198	730764	0	0
2024-05-01 01:34:32			0	34528	0	0	0	17361	16070	149295	27360	958907	38249	106299	0	0	8196	732348	0	0
2024-05-01 01:35:32			0	34507	0	0	0	17423	16070	149459	27326	958898	38259	106323	0	0	8194	733363	0	0
2024-05-01 01:36:32			0	34477	0	0	0	17449	16080	149619	27609	959073	38260	106333	0	0	8192	734775	0	0
2024-05-01 01:37:32			0	34456	0	0	0	17441	16080	149663	27289	959055	38261	106330	0	0	8191	735792	0	0
2024-05-01 01:38:32			0	34430	0	0	0	17423	16100	149747	27249	959053	38240	106323	0	0	8190	736974	0	0
2024-05-01 01:39:32			0	34423	0	0	0	17423	16090	149839	27203	959010	38250	106323	0	0	8189	737353	0	0
2024-05-01 01:40:32			0	34402	0	0	0	17420	16090	149847	27211	958957	38261	106322	0	0	8188	738373	0	0
2024-05-01 01:41:32			0	34405	0	0	0	17425	16080	149855	27345	958923	38239	106324	0	0	8188	738267	0	0
2024-05-01 01:42:32			0	34380	0	0	0	17425	16080	149975	27547	958888	38249	106324	0	0	8187	739483	0	0
2024-05-01 01:43:32			0	34355	0	0	0	17433	16080	150098	27504	958941	38260	106327	0	0	8185	740700	0	0
2024-05-01 01:44:32			0	34356	0	0	0	17444	16080	150135	27562	959028	38239	106331	0	0	8185	740652	0	0
2024-05-01 01:45:32			0	34337	0	0	0	17470	16100	150102	27324	959053	38261	106341	0	0	8184	741497	0	0
2024-05-01 01:46:32			0	34351	0	0	0	17485	16120	150107	27343	959191	38285	106347	0	0	8184	740735	0	0
2024-05-01 01:47:32			0	34331	0	0	0	17485	16110	150118	27737	959156	38274	106347	0	0	8183	741750	0	0
2024-05-01 01:48:32			0	34322	0	0	0	17483	16120	150254	27677	959173	38275	106346	0	0	8183	742149	0	0
2024-05-01 01:49:32			0	34311	0	0	0	17477	16120	150230	27249	959199	38264	106344	0	0	8182	742686	0	0
2024-05-01 01:50:32			0	34293	0	0	0	17464	16120	150314	27526	959173	38253	106339	0	0	8181	743565	0	0
2024-05-01 01:51:32			0	34292	0	0	0	17462	16130	150274	27260	959208	38253	106338	0	0	8181	743574	0	0
2024-05-01 01:52:32			0	34284	0	0	0	17459	16120	150306	27595	959120	38264	106337	0	0	8181	744005	0	0
2024-05-01 01:53:32			0	34299	0	0	0	17485	16130	150226	27627	959155	38264	106347	0	0	8181	743232	0	0
2024-05-01 01:54:32			0	34270	0	0	0	17527	16130	150314	27627	959208	38275	106363	0	0	8179	744650	0	0
2024-05-01 01:55:32			0	34271	0	0	0	17548	16130	150438	27291	959295	38254	106371	0	0	8179	744601	0	0
2024-05-01 01:56:32			0	34268	0	0	0	17568	16150	150438	27369	959380	38278	106379	0	0	8178	744667	0	0
2024-05-01 01:57:32			0	34261	0	0	0	17599	16160	150386	27050	959494	38278	106391	0	0	8177	744969	0	0
2024-05-01 01:58:32			0	34244	0	0	0	17620	16180	150502	27390	959518	38279	106399	0	0	8176	745721	0	0
2024-05-01 01:59:32			0	34244	0	0	0	17607	16190	150458	27687	959429	38280	106394	0	0	8176	745681	0	0
2024-05-01 02:00:32			0	34268	0	0	0	17628	16180	150366	27282	959553	38280	106402	0	0	8177	744546	0	0
2024-05-01 02:01:32			0	34304	0	0	0	17641	16200	150186	27303	959612	38260	106407	0	0	8179	742707	0	0
2024-05-01 02:02:32			0	34373	0	0	0	17605	16210	149983	27213	959628	38283	106393	0	0	8184	739305	0	0
2024-05-01 02:03:32			0	34372	0	0	0	17599	16210	149907	27547	959496	38260	106391	0	0	8184	739353	0	0
2024-05-01 02:04:32			0	34351	0	0	0	17542	16210	149986	27488	959488	38271	106369	0	0	8184	740375	0	0
2024-05-01 02:05:32			0	34306	0	0	0	17514	16200	150126	27135	959401	38260	106358	0	0	8181	742609	0	0
2024-05-01 02:06:32			0	34259	0	0	0	17503	16200	150462	26864	959393	38260	106354	0	0	8179	744906	0	0
2024-05-01 02:07:32			0	34217	0	0	0	17527	16200	150478	27102	959393	38271	106363	0	0	8176	746964	0	0
2024-05-01 02:08:32			0	34162	0	0	0	17519	16210	150674	27412	959462	38260	106360	0	0	8173	749624	0	0
2024-05-01 02:09:32			0	34153	0	0	0	17470	16190	150806	27390	959437	38249	106341	0	0	8173	750148	0	0
2024-05-01 02:10:32			0	34122	0	0	0	17420	16180	150930	26925	959263	38248	106322	0	0	8172	751714	0	0
2024-05-01 02:11:32			0	34109	0	0	0	17433	16180	150990	27509	959210	38258	106327	0	0	8171	752355	0	0
2024-05-01 02:12:32			0	34092	0	0	0	17480	16180	151006	27097	959307	38257	106345	0	0	8170	753194	0	0
2024-05-01 02:13:32			0	34092	0	0	0	17522	16170	151098	27246	959370	38267	106361	0	0	8169	753235	0	0
2024-05-01 02:14:32			0	34071	0	0	0	17535	16180	151150	27705	959334	38268	106366	0	0	8167	754231	0	0
2024-05-01 02:15:32			0	34057	0	0	0	17529	16180	151222	27556	959368	38269	106364	0	0	8167	754923	0	0
2024-05-01 02:16:32			0	34046	0	0	0	17527	16180	151270	27282	959368	38269	106363	0	0	8166	755467	0	0
2024-05-01 02:17:32			0	34047	0	0	0	17529	16180	151294	27498	959360	38257	106364	0	0	8166	755418	0	0
2024-05-01 02:18:32			0	34038	0	0	0	17514	16180	151222	27216	959368	38258	106358	0	0	8166	755863	0	0
2024-05-01 02:19:32			0	34059	0	0	0	17511	16170	151338	27441	959299	38268	106357	0	0	8167	754865	0	0
2024-05-01 02:20:32			0	34038	0	0	0	17498	16170	151258	27438	959265	38267	106352	0	0	8166	755904	0	0
2024-05-01 02:21:32			0	34053	0	0	0	17509	16170	151286	27718	959291	38267	106356	0	0	8167	755162	0	0
2024-05-01 02:22:32			0	34054	0	0	0	17509	16170	151250	27713	959273	38268	106356	0	0	8167	755112	0	0
2024-05-01 02:23:32			0	34069	0	0	0	17509	16160	151274	27341	959257	38255	106356	0	0	8168	754411	0	0
2024-05-01 02:24:32			0	34045	0	0	0	17511	16160	151226	27334	959204	38278	106357	0	0	8166	755598	0	0
2024-05-01 02:25:32			0	34056	0	0	0	17496	16150	151146	27379	959293	38278	106351	0	0	8167	755095	0	0
2024-05-01 02:26:32			0	34068	0	0	0	17459	16150	151106	27842	959187	38255	106337	0	0	8168	754502	0	0
2024-05-01 02:27:32			0	34091	0	0	0	17454	16150	151182	27829	959161	38255	106335	0	0	8170	753366	0	0
2024-05-01 02:28:32			0	34094	0	0	0	17501	16140	151054	27836	959179	38254	106353	0	0	8169	753258	0	0
2024-05-01 02:29:32			0	34106	0	0	0	17498	16140	151102	27649	959250	38254	106352	0	0	8170	752666	0	0
2024-05-01 02:30:32			0	34094	0	0	0	17514	16140	151054	27703	959198	38265	106358	0	0	8169	753258	0	0
2024-05-01 02:31:32			0	34106	0	0	0	17493	16150	151094	27384	959293	38255	106350	0	0	8170	752625	0	0
2024-05-01 02:32:32			0	34107	0	0	0	17511	16140	151054	27426	959198	38265	106357	0	0	8170	752617	0	0
2024-05-01 02:33:32			0	34104	0	0	0	17511	16140	151082	27604	959179	38277	106357	0	0	8170	752765	0	0
2024-05-01 02:34:32			0	34104	0	0	0	17535	16150	151114	27390	959240	38266	106366	0	0	8169	752724	0	0
2024-05-01 02:35:32			0	34098	0	0	0	17542	16150	151078	27573	959267	38278	106369	0	0	8169	753020	0	0
2024-05-01 02:36:32			0	34090	0	0	0	17542	16150	151158	27383	959240	38278	106369	0	0	8168	753415	0	0
2024-05-01 02:37:32			0	34113	0	0	0	17537	16160	151130	27261	959283	38278	106367	0	0	8170	752239	0	0
2024-05-01 02:38:32			0	34087	0	0	0	17519	16150	151134	27485	959187	38266	106360	0	0	8169	753563	0	0
2024-05-01 02:39:32			0	34055	0	0	0	17483	16130	151162	27194	959102	38253	106346	0	0	8167	755226	0	0
2024-05-01 02:40:32			0	34057	0	0	0	17431	16130	151210	27334	959005	38254	106326	0	0	8168	755127	0	0
2024-05-01 02:41:32			0	34064	0	0	0	17389	16110	151206	27720	958911	38241	106310	0	0	8169	754862	0	0
2024-05-01 02:42:32			0	34040	0	0	0	17353	16090	151290	27692	958860	38250	106296	0	0	8168	756131	0	0
2024-05-01 02:43:32			0	34010	0	0	0	17322	16080	151502	27542	958704	38238	106284	0	0	8167	757659	0	0
2024-05-01 02:44:32			0	34010	0	0	0	17296	16060	151534	27237	958645	38237	106274	0	0	8167	757741	0	0
2024-05-01 02:45:32			0	33992	0	0	0	17257	16030	151706	27692	958446	38234	106259	0	0	8167	758757	0	0
2024-05-01 02:46:32			0	33973	0	0	0	17218	16020	151638	27564	958395	38222	106244	0	0	8166	759742	0	0
2024-05-01 02:47:32			0	33949	0	0	0	17202	16010	151778	27569	958353	38233	106238	0	0	8165	760976	0	0
2024-05-01 02:48:32			0	33970	0	0	0	17179	15980	151726	27429	958277	38208	106229	0	0	8167	760055	0	0
2024-05-01 02:49:32			0	33958	0	0	0	17158	15960	151706	27372	958192	38206	106221	0	0	8166	760734	0	0
2024-05-01 02:50:32			0	33952	0	0	0	17137	15940	151686	27599	958114	38215	106213	0	0	8166	761114	0	0
2024-05-01 02:51:32			0	33958	0	0	0	17122	15910	151718	27293	958039	38202	106207	0	0	8167	760939	0	0
2024-05-01 02:52:32			0	33977	0	0	0	17119	15900	151678	27873	957996	38223	106206	0	0	8168	760035	0	0
2024-05-01 02:53:32			0	33997	0	0	0	17098	15890	151694	27485	958025	38200	106198	0	0	8169	759081	0	0
2024-05-01 02:54:32			0	34006	0	0	0	17106	15870	151746	27543	957921	38199	106201	0	0	8170	758716	0	0
2024-05-01 02:55:32			0	33998	0	0	0	17119	15860	151646	27561	957913	38219	106206	0	0	8169	759154	0	0
2024-05-01 02:56:32			0	33997	0	0	0	17116	15850	151590	27755	957896	38219	106205	0	0	8169	759245	0	0
2024-05-01 02:57:32			0	34016	0	0	0	17106	15840	151646	27523	957906	38196	106201	0	0	8170	758342	0	0
2024-05-01 02:58:32			0	34017	0	0	0	17124	15840	151646	27810	957898	38228	106208	0	0	8170	758293	0	0
2024-05-01 02:59:32			0	34022	0	0	0	17116	15820	151598	27651	957848	38227	106205	0	0	8170	758126	0	0
2024-05-01 03:00:32			0	34026	0	0	0	17111	15820	151578	27842	957813	38194	106203	0	0	8170	757928	0	0
2024-05-01 03:01:32			0	34040	0	0	0	17114	15810	151578	27500	957823	38194	106204	0	0	8171	757274	0	0
2024-05-01 03:02:32			0	34044	0	0	0	17111	15810	151506	27365	957770	38194	106203	0	0	8171	757076	0	0
2024-05-01 03:03:32			0	34053	0	0	0	17114	15800	151502	27429	957833	38213	106204	0	0	8172	756670	0	0
2024-05-01 03:04:32			0	34055	0	0	0	17127	15800	151502	27353	957841	38214	106209	0	0	8172	756571	0	0
2024-05-01 03:05:32			0	34080	0	0	0	17127	15800	151394	27744	957807	38213	106209	0	0	8173	755333	0	0
2024-05-01 03:06:32			0	34073	0	0	0	17129	15800	151394	27400	957841	38214	106210	0	0	8173	755680	0	0
2024-05-01 03:07:32			0	34100	0	0	0	17137	15790	151430	27763	957746	38203	106213	0	0	8174	754385	0	0
2024-05-01 03:08:32			0	34082	0	0	0	17140	15800	151374	27478	957841	38214	106214	0	0	8173	755234	0	0
2024-05-01 03:09:32			0	34118	0	0	0	17161	15810	151330	27360	957902	38215	106222	0	0	8175	753414	0	0
2024-05-01 03:10:32			0	34122	0	0	0	17223	15800	151206	27725	957999	38236	106246	0	0	8174	753257	0	0
2024-05-01 03:11:32			0	34133	0	0	0	17303	15830	151298	27336	958172	38228	106277	0	0	8173	752592	0	0
2024-05-01 03:12:32			0	34146	0	0	0	17384	15840	151206	27338	958275	38250	106308	0	0	8173	751910	0	0
2024-05-01 03:13:32			0	34152	0	0	0	17407	15870	151142	27346	958342	38252	106317	0	0	8173	751493	0	0
2024-05-01 03:14:32			0	34154	0	0	0	17415	15890	151146	27682	958446	38254	106320	0	0	8173	751314	0	0
2024-05-01 03:15:32			0	34167	0	0	0	17444	15910	150974	27902	958566	38256	106331	0	0	8173	750592	0	0
2024-05-01 03:16:32			0	34172	0	0	0	17470	15930	151042	27218	958599	38257	106341	0	0	8173	750265	0	0
2024-05-01 03:17:32			0	34175	0	0	0	17457	15940	150922	27557	958694	38259	106336	0	0	8174	750077	0	0
2024-05-01 03:18:32			0	34192	0	0	0	17480	15970	150930	27868	958743	38273	106345	0	0	8174	749120	0	0
2024-05-01 03:19:32			0	34186	0	0	0	17496	15980	150818	27611	958838	38251	106351	0	0	8174	749374	0	0
2024-05-01 03:20:32			0	34197	0	0	0	17509	15990	150822	27277	958828	38263	106356	0	0	8174	748793	0	0
2024-05-01 03:21:32			0	34208	0	0	0	17509	16010	150766	27493	958861	38265	106356	0	0	8175	748172	0	0
2024-05-01 03:22:32			0	34234	0	0	0	17509	16030	150786	27784	958947	38255	106356	0	0	8177	746815	0	0
2024-05-01 03:23:32			0	34234	0	0	0	17490	16030	150562	27557	958947	38267	106349	0	0	8177	746815	0	0
2024-05-01 03:24:32			0	34254	0	0	0	17493	16040	150530	27293	958981	38279	106350	0	0	8178	745795	0	0
2024-05-01 03:25:32			0	34264	0	0	0	17498	16050	150482	27547	958945	38268	106352	0	0	8179	745265	0	0
2024-05-01 03:26:32			0	34271	0	0	0	17501	16050	150402	27427	959006	38268	106353	0	0	8179	744922	0	0
2024-05-01 03:27:32			0	34277	0	0	0	17514	16060	150230	27124	959040	38258	106358	0	0	8179	744589	0	0
2024-05-01 03:28:32			0	34313	0	0	0	17509	16060	150142	27384	959048	38269	106356	0	0	8181	742829	0	0
2024-05-01 03:29:32			0	34309	0	0	0	17522	16080	150146	27701	959073	38271	106361	0	0	8181	742944	0	0
2024-05-01 03:30:32			0	34321	0	0	0	17516	16070	150058	27209	959065	38271	106359	0	0	8182	742398	0	0
2024-05-01 03:31:32			0	34322	0	0	0	17506	16080	150062	27868	959081	38261	106355	0	0	8182	742309	0	0
2024-05-01 03:32:32			0	34331	0	0	0	17519	16080	150130	27447	959081	38261	106360	0	0	8182	741870	0	0
2024-05-01 03:33:32			0	34342	0	0	0	17509	16090	150102	27407	959097	38261	106356	0	0	8183	741294	0	0
2024-05-01 03:34:32			0	34321	0	0	0	17509	16090	150142	27201	959063	38272	106356	0	0	8182	742318	0	0
2024-05-01 03:35:32			0	34309	0	0	0	17503	16100	150214	27327	959079	38272	106354	0	0	8181	742864	0	0
2024-05-01 03:36:32			0	34280	0	0	0	17501	16090	150294	27850	959036	38261	106353	0	0	8180	744321	0	0
2024-05-01 03:37:32			0	34255	0	0	0	17490	16100	150390	27493	959140	38262	106349	0	0	8178	745504	0	0
2024-05-01 03:38:32			0	34240	0	0	0	17488	16090	150510	27455	959063	38261	106348	0	0	8178	746279	0	0
2024-05-01 03:39:32			0	34208	0	0	0	17493	16100	150646	27859	959061	38251	106350	0	0	8176	747809	0	0
2024-05-01 03:40:32			0	34228	0	0	0	17493	16100	150582	27357	959087	38262	106350	0	0	8177	746827	0	0
2024-05-01 03:41:32			0	34225	0	0	0	17493	16100	150546	27433	959106	38250	106350	0	0	8177	746975	0	0
2024-05-01 03:42:32			0	34201	0	0	0	17485	16100	150622	27332	959106	38272	106347	0	0	8175	748152	0	0
2024-05-01 03:43:32			0	34162	0	0	0	17485	16100	150778	27433	959106	38261	106347	0	0	8173	750069	0	0
2024-05-01 03:44:32			0	34098	0	0	0	17493	16090	150886	27293	959063	38272	106350	0	0	8169	753264	0	0
2024-05-01 03:45:32			0	34099	0	0	0	17488	16100	151042	27602	959000	38272	106348	0	0	8170	753174	0	0
2024-05-01 03:46:32			0	34052	0	0	0	17483	16100	151258	27388	959106	38250	106346	0	0	8167	755497	0	0
2024-05-01 03:47:32			0	34036	0	0	0	17490	16090	151366	27743	959071	38284	106349	0	0	8166	756330	0	0
2024-05-01 03:48:32			0	33999	0	0	0	17475	16090	151382	27765	959097	38261	106343	0	0	8164	758164	0	0
2024-05-01 03:49:32			0	33982	0	0	0	17472	16100	151458	27661	959026	38261	106342	0	0	8163	758967	0	0
2024-05-01 03:50:32			0	33965	0	0	0	17475	16090	151658	27253	959036	38283	106343	0	0	8162	759852	0	0
2024-05-01 03:51:32			0	33933	0	0	0	17467	16100	151754	27397	959087	38262	106340	0	0	8160	761403	0	0
2024-05-01 03:52:32			0	33914	0	0	0	17472	16110	151874	27620	959016	38273	106342	0	0	8159	762308	0	0
2024-05-01 03:53:32			0	33895	0	0	0	17451	16100	151918	27502	959053	38272	106334	0	0	8158	763297	0	0
2024-05-01 03:54:32			0	33873	0	0	0	17423	16100	152038	27345	959000	38250	106323	0	0	8158	764395	0	0
2024-05-01 03:55:32			0	33813	0	0	0	17399	16090	152326	27568	958966	38250	106314	0	0	8154	767437	0	0
2024-05-01 03:56:32			0	33800	0	0	0	17363	16080	152418	27417	958791	38250	106300	0	0	8154	768131	0	0
2024-05-01 03:57:32			0	33773	0	0	0	17314	16060	152390	27384	958758	38248	106281	0	0	8153	769568	0	0
2024-05-01 03:58:32			0	33764	0	0	0	17296	16060	152490	27587	958698	38258	106274	0	0	8153	770020	0	0
2024-05-01 03:59:32			0	33758	0	0	0	17288	16040	152538	27154	958726	38256	106271	0	0	8153	770405	0	0
2024-05-01 04:00:32			0	33759	0	0	0	17277	16030	152642	27479	958683	38255	106267	0	0	8153	770396	0	0
2024-05-01 04:01:32			0	33771	0	0	0	17272	16020	152530	27293	958588	38233	106265	0	0	8154	769835	0	0
2024-05-01 04:02:32			0	33776	0	0	0	17246	16010	152530	27183	958440	38233	106255	0	0	8154	769625	0	0
2024-05-01 04:03:32			0	33797	0	0	0	17225	16000	152430	27857	958468	38231	106247	0	0	8156	768613	0	0
2024-05-01 04:04:32			0	33788	0	0	0	17218	15990	152398	27303	958399	38231	106244	0	0	8155	769106	0	0
2024-05-01 04:05:32			0	33818	0	0	0	17228	15970	152398	27448	958401	38240	106248	0	0	8157	767684	0	0
2024-05-01 04:06:32			0	33826	0	0	0	17205	15970	152334	27590	958427	38229	106239	0	0	8158	767283	0	0
2024-05-01 04:07:32			0	33850	0	0	0	17199	15970	152170	27694	958366	38239	106237	0	0	8159	766081	0	0
2024-05-01 04:08:32			0	33862	0	0	0	17174	15950	152186	27504	958263	38227	106227	0	0	8160	765564	0	0
2024-05-01 04:09:32			0	33882	0	0	0	17174	15940	151986	27800	958185	38226	106227	0	0	8161	764605	0	0
2024-05-01 04:10:32			0	33905	0	0	0	17135	15910	151986	27531	958092	38212	106212	0	0	8163	763580	0	0
2024-05-01 04:11:32			0	33938	0	0	0	17137	15900	151766	27389	958102	38212	106213	0	0	8165	761976	0	0
2024-05-01 04:12:32			0	33959	0	0	0	17124	15900	151730	27810	957988	38211	106208	0	0	8167	760930	0	0
2024-05-01 04:13:32			0	33982	0	0	0	17106	15860	151578	27543	957965	38208	106201	0	0	8168	759950	0	0
2024-05-01 04:14:32			0	34006	0	0	0	17090	15840	151462	27616	957906	38196	106195	0	0	8170	758839	0	0
2024-05-01 04:15:32			0	34045	0	0	0	17072	15850	151338	27538	957862	38208	106188	0	0	8172	756863	0	0
2024-05-01 04:16:32			0	34078	0	0	0	17072	15830	151162	27559	957777	38195	106188	0	0	8174	755310	0	0
2024-05-01 04:17:32			0	34104	0	0	0	17064	15820	151106	27656	957760	38216	106185	0	0	8176	754065	0	0
2024-05-01 04:18:32			0	34118	0	0	0	17051	15800	150966	27769	957736	38225	106180	0	0	8177	753455	0	0
2024-05-01 04:19:32			0	34152	0	0	0	17028	15790	150914	27450	957641	38203	106171	0	0	8179	751817	0	0
2024-05-01 04:20:32			0	34190	0	0	0	17036	15780	150718	27466	957624	38202	106174	0	0	8181	749986	0	0
2024-05-01 04:21:32			0	34210	0	0	0	17020	15780	150702	27357	957651	38202	106168	0	0	8182	749002	0	0
2024-05-01 04:22:32			0	34252	0	0	0	17020	15760	150506	27554	957504	38200	106168	0	0	8185	747020	0	0
2024-05-01 04:23:32			0	34296	0	0	0	17005	15750	150486	27331	957496	38210	106162	0	0	8187	744903	0	0
2024-05-01 04:24:32			0	34307	0	0	0	16992	15750	150402	27545	957435	38200	106157	0	0	8188	744365	0	0
2024-05-01 04:25:32			0	34307	0	0	0	16997	15720	150298	27670	957394	38197	106159	0	0	8188	744485	0	0
2024-05-01 04:26:32			0	34337	0	0	0	16989	15720	150186	27438	957368	38208	106156	0	0	8190	743018	0	0
2024-05-01 04:27:32			0	34351	0	0	0	16981	15710	150179	27355	957396	38206	106153	0	0	8191	742375	0	0
2024-05-01 04:28:32			0	34349	0	0	0	16979	15700	150159	27381	957335	38195	106152	0	0	8191	742512	0	0
2024-05-01 04:29:32			0	34366	0	0	0	16966	15680	150131	27478	957329	38205	106147	0	0	8192	741762	0	0
2024-05-01 04:30:32			0	34383	0	0	0	16971	15680	149947	27607	957303	38183	106149	0	0	8193	740933	0	0
2024-05-01 04:31:32			0	34391	0	0	0	16971	15670	149875	27505	957313	38181	106149	0	0	8193	740583	0	0
2024-05-01 04:32:32			0	34420	0	0	0	16961	15670	149931	27457	957287	38203	106145	0	0	8195	739171	0	0
2024-05-01 04:33:32			0	34444	0	0	0	16961	15660	149875	27651	957191	38191	106145	0	0	8196	738043	0	0
2024-05-01 04:34:32			0	34443	0	0	0	16961	15650	149831	27433	957228	38190	106145	0	0	8196	738131	0	0
2024-05-01 04:35:32			0	34479	0	0	0	16958	15650	149751	27561	957140	38189	106144	0	0	8198	736383	0	0
2024-05-01 04:36:32			0	34474	0	0	0	16950	15640	149807	27817	957098	38189	106141	0	0	8198	736665	0	0
2024-05-01 04:37:32			0	34479	0	0	0	16953	15640	149643	27602	957106	38189	106142	0	0	8198	736422	0	0
2024-05-01 04:38:32			0	34505	0	0	0	16950	15630	149631	27542	957116	38177	106141	0	0	8200	735201	0	0
2024-05-01 04:39:32			0	34515	0	0	0	16948	15630	149607	27519	957116	38177	106140	0	0	8200	734717	0	0
2024-05-01 04:40:32			0	34513	0	0	0	16940	15620	149579	27822	957099	38188	106137	0	0	8200	734853	0	0
2024-05-01 04:41:32			0	34503	0	0	0	16942	15610	149523	27533	957004	38187	106138	0	0	8200	735377	0	0
2024-05-01 04:42:32			0	34529	0	0	0	16945	15620	149431	27835	957065	38188	106139	0	0	8201	734078	0	0
2024-05-01 04:43:32			0	34533	0	0	0	16958	15610	149447	27594	957128	38186	106144	0	0	8201	733924	0	0
2024-05-01 04:44:32			0	34537	0	0	0	16966	15610	149351	27448	957188	38187	106147	0	0	8201	733730	0	0
2024-05-01 04:45:32			0	34552	0	0	0	16981	15610	149343	27431	957109	38198	106153	0	0	8202	733005	0	0
2024-05-01 04:46:32			0	34556	0	0	0	16981	15610	149415	27112	957083	38187	106153	0	0	8202	732811	0	0
2024-05-01 04:47:32			0	34577	0	0	0	16992	15610	149415	27462	957162	38198	106157	0	0	8203	731796	0	0
2024-05-01 04:48:32			0	34559	0	0	0	16984	15620	149299	27388	957152	38209	106154	0	0	8202	732627	0	0
2024-05-01 04:49:32			0	34581	0	0	0	16984	15620	149339	27279	957170	38188	106154	0	0	8203	731564	0	0
2024-05-01 04:50:32			0	34564	0	0	0	16979	15620	149271	27268	957170	38188	106152	0	0	8203	732385	0	0
2024-05-01 04:51:32			0	34595	0	0	0	16971	15610	149183	27633	957128	38175	106149	0	0	8204	730927	0	0
2024-05-01 04:52:32			0	34600	0	0	0	16950	15610	149103	27623	957101	38186	106141	0	0	8205	730686	0	0
2024-05-01 04:53:32			0	34607	0	0	0	16955	15610	149183	27319	957083	38187	106143	0	0	8205	730349	0	0
2024-05-01 04:54:32			0	34599	0	0	0	16955	15620	149135	27746	957178	38199	106143	0	0	8205	730695	0	0
2024-05-01 04:55:32			0	34594	0	0	0	16940	15610	149167	27388	957075	38186	106137	0	0	8205	730976	0	0
2024-05-01 04:56:32			0	34627	0	0	0	16942	15600	149123	27173	956988	38197	106138	0	0	8207	729424	0	0
2024-05-01 04:57:32			0	34609	0	0	0	16942	15600	149119	27178	957006	38196	106138	0	0	8206	730291	0	0
2024-05-01 04:58:32			0	34635	0	0	0	16961	15600	149039	27621	957067	38208	106145	0	0	8207	729039	0	0
2024-05-01 04:59:32			0	34616	0	0	0	17093	15610	149095	27583	957233	38229	106196	0	0	8204	729915	0	0
2024-05-01 05:00:32			0	34618	0	0	0	17181	15640	149135	27353	957466	38233	106230	0	0	8202	729700	0	0
2024-05-01 05:01:32			0	34619	0	0	0	17153	15650	149183	27400	957570	38245	106219	0	0	8203	729613	0	0
2024-05-01 05:02:32			0	34613	0	0	0	17129	15680	149083	27762	957566	38226	106210	0	0	8203	729784	0	0
2024-05-01 05:03:32			0	34638	0	0	0	17132	15690	149155	27530	957574	38205	106211	0	0	8205	728541	0	0
2024-05-01 05:04:32			0	34631	0	0	0	17142	15700	149007	27751	957704	38206	106215	0	0	8204	728839	0	0
2024-05-01 05:05:32			0	34622	0	0	0	17176	15720	149051	27836	957763	38218	106228	0	0	8203	729193	0	0
2024-05-01 05:06:32			0	34644	0	0	0	17171	15740	148947	27524	957735	38219	106226	0	0	8204	728056	0	0
2024-05-01 05:07:32			0	34652	0	0	0	17150	15740	148875	27388	957769	38231	106218	0	0	8205	727671	0	0
2024-05-01 05:08:32			0	34651	0	0	0	17148	15760	148895	27422	957741	38210	106217	0	0	8205	727641	0	0
2024-05-01 05:09:32			0	34671	0	0	0	17181	15750	148811	27336	957778	38210	106230	0	0	8206	726719	0	0
2024-05-01 05:10:32			0	34661	0	0	0	17199	15760	148795	27374	957829	38222	106237	0	0	8205	727160	0	0
2024-05-01 05:11:32			0	34654	0	0	0	17184	15770	148863	27267	957863	38245	106231	0	0	8205	727458	0	0
2024-05-01 05:12:32			0	34645	0	0	0	17207	15770	148871	27338	957890	38211	106240	0	0	8204	727890	0	0
2024-05-01 05:13:32			0	34638	0	0	0	17280	15790	148879	27654	958001	38224	106268	0	0	8202	728149	0	0
2024-05-01 05:14:32			0	34624	0	0	0	17314	15810	148899	27739	958086	38226	106281	0	0	8201	728744	0	0
2024-05-01 05:15:32			0	34610	0	0	0	17322	15820	149099	27502	958129	38238	106284	0	0	8200	729378	0	0
2024-05-01 05:16:32			0	34586	0	0	0	17329	15830	149175	27627	958172	38239	106287	0	0	8199	730496	0	0
2024-05-01 05:17:32			0	34592	0	0	0	17340	15850	149063	27352	958283	38240	106291	0	0	8199	730128	0	0
2024-05-01 05:18:32			0	34597	0	0	0	17337	15850	149075	27326	958265	38262	106290	0	0	8199	729887	0	0
2024-05-01 05:19:32			0	34572	0	0	0	17342	15860	149147	27353	958221	38251	106292	0	0	8198	731053	0	0
2024-05-01 05:20:32			0	34500	0	0	0	17345	15870	149411	27507	958342	38231	106293	0	0	8194	734493	0	0
2024-05-01 05:21:32			0	34387	0	0	0	17350	15890	149911	27291	958349	38233	106295	0	0	8187	739900	0	0
2024-05-01 05:22:32			0	34328	0	0	0	17353	15900	150386	27383	958444	38256	106296	0	0	8184	742738	0	0
2024-05-01 05:23:32			0	34233	0	0	0	17355	15910	150850	27713	958400	38245	106297	0	0	8179	747348	0	0
2024-05-01 05:24:32			0	34160	0	0	0	17363	15900	151106	27531	958444	38256	106300	0	0	8174	750977	0	0
2024-05-01 05:25:32			0	34071	0	0	0	17363	15910	151406	27635	958434	38245	106300	0	0	8169	755331	0	0
2024-05-01 05:26:32			0	34026	0	0	0	17340	15930	151562	27448	958432	38257	106291	0	0	8167	757478	0	0
2024-05-01 05:27:32			0	33962	0	0	0	17319	15930	151890	27769	958441	38247	106283	0	0	8164	760658	0	0
2024-05-01 05:28:32			0	33943	0	0	0	17322	15920	151958	27594	958451	38247	106284	0	0	8162	761645	0	0
2024-05-01 05:29:32			0	33894	0	0	0	17327	15940	152166	27668	958449	38248	106286	0	0	8160	764006	0	0
2024-05-01 05:30:32			0	33879	0	0	0	17335	15940	152262	27358	958449	38269	106289	0	0	8159	764755	0	0
2024-05-01 05:31:32			0	33850	0	0	0	17340	15940	152334	27362	958475	38258	106291	0	0	8157	766205	0	0
2024-05-01 05:32:32			0	33813	0	0	0	17345	15940	152346	27365	958510	38259	106293	0	0	8155	768059	0	0
2024-05-01 05:33:32			0	33812	0	0	0	17345	15930	152474	27218	958467	38257	106293	0	0	8154	768150	0	0
2024-05-01 05:34:32			0	33818	0	0	0	17342	15950	152494	27298	958473	38250	106292	0	0	8155	767767	0	0
2024-05-01 05:35:32			0	33791	0	0	0	17353	15940	152478	27433	958483	38249	106296	0	0	8153	769163	0	0
2024-05-01 05:36:32			0	33804	0	0	0	17355	15950	152554	27353	958491	38259	106297	0	0	8154	768469	0	0
2024-05-01 05:37:32			0	33783	0	0	0	17348	15950	152666	27543	958491	38249	106294	0	0	8153	769523	0	0
2024-05-01 05:38:32			0	33790	0	0	0	17353	15960	152614	27287	958534	38260	106296	0	0	8153	769130	0	0
2024-05-01 05:39:32			0	33822	0	0	0	17345	15950	152598	27284	958473	38250	106293	0	0	8155	767566	0	0
2024-05-01 05:40:32			0	33780	0	0	0	17355	15960	152598	27642	958569	38261	106297	0	0	8153	769632	0	0
2024-05-01 05:41:32			0	33785	0	0	0	17348	15960	152502	27419	958534	38250	106294	0	0	8153	769381	0	0
2024-05-01 05:42:32			0	33803	0	0	0	17353	15970	152550	27516	958550	38250	106296	0	0	8154	768436	0	0
2024-05-01 05:43:32			0	33814	0	0	0	17353	15970	152402	27166	958532	38250	106296	0	0	8155	767885	0	0
2024-05-01 05:44:32			0	33804	0	0	0	17353	15970	152622	27348	958506	38240	106296	0	0	8154	768386	0	0
2024-05-01 05:45:32			0	33804	0	0	0	17342	15960	152566	27353	958569	38261	106292	0	0	8154	768427	0	0
2024-05-01 05:46:32			0	33819	0	0	0	17353	15970	152546	27412	958524	38250	106296	0	0	8155	767634	0	0
2024-05-01 05:47:32			0	33796	0	0	0	17355	15970	152534	27402	958550	38250	106297	0	0	8154	768787	0	0
2024-05-01 05:48:32			0	33815	0	0	0	17358	15970	152530	27471	958611	38240	106298	0	0	8155	767834	0	0
2024-05-01 05:49:32			0	33805	0	0	0	17361	15970	152486	27441	958577	38250	106299	0	0	8154	768336	0	0
2024-05-01 05:50:32			0	33787	0	0	0	17355	15960	152498	27473	958490	38261	106297	0	0	8153	769281	0	0
2024-05-01 05:51:32			0	33809	0	0	0	17350	15970	152410	27270	958524	38239	106295	0	0	8154	768135	0	0
2024-05-01 05:52:32			0	33815	0	0	0	17358	15970	152530	27498	958532	38250	106298	0	0	8155	767834	0	0
2024-05-01 05:53:32			0	33815	0	0	0	17350	15980	152358	27112	958567	38250	106295	0	0	8155	767793	0	0
2024-05-01 05:54:32			0	33834	0	0	0	17355	15960	152342	27185	958542	38250	106297	0	0	8156	766924	0	0
2024-05-01 05:55:32			0	33829	0	0	0	17355	15970	152378	27305	958532	38261	106297	0	0	8155	767133	0	0
2024-05-01 05:56:32			0	33840	0	0	0	17337	15970	152330	27543	958480	38261	106290	0	0	8156	766582	0	0
2024-05-01 05:57:32			0	33863	0	0	0	17342	15970	152210	27426	958585	38240	106292	0	0	8158	765431	0	0
2024-05-01 05:58:32			0	33876	0	0	0	17348	15980	152130	27476	958540	38250	106294	0	0	8158	764740	0	0
2024-05-01 05:59:32			0	33889	0	0	0	17348	15970	152126	27511	958559	38250	106294	0	0	8159	764132	0	0
2024-05-01 06:00:32			0	33906	0	0	0	17342	15960	152002	27479	958560	38250	106292	0	0	8160	763325	0	0
2024-05-01 06:01:32			0	33907	0	0	0	17345	15970	151966	27298	958498	38228	106293	0	0	8160	763234	0	0
2024-05-01 06:02:32			0	33923	0	0	0	17340	15970	151966	27507	958498	38239	106291	0	0	8161	762436	0	0
2024-05-01 06:03:32			0	33947	0	0	0	17332	15970	151970	27147	958498	38250	106288	0	0	8163	761240	0	0
2024-05-01 06:04:32			0	33950	0	0	0	17322	15970	151898	27495	958550	38250	106284	0	0	8163	761091	0	0
2024-05-01 06:05:32			0	33942	0	0	0	17316	15970	151810	27060	958498	38261	106282	0	0	8163	761489	0	0
2024-05-01 06:06:32			0	33965	0	0	0	17314	15960	151862	27189	958481	38250	106281	0	0	8164	760385	0	0
2024-05-01 06:07:32			0	33967	0	0	0	17319	15970	151690	27284	958524	38250	106283	0	0	8164	760245	0	0
2024-05-01 06:08:32			0	33977	0	0	0	17316	15960	151618	27498	958481	38239	106282	0	0	8165	759789	0	0
2024-05-01 06:09:32			0	33979	0	0	0	17316	15960	151654	27263	958455	38260	106282	0	0	8165	759689	0	0
2024-05-01 06:10:32			0	33978	0	0	0	17316	15960	151466	27509	958490	38250	106282	0	0	8165	759739	0	0
2024-05-01 06:11:32			0	34010	0	0	0	17316	15950	151534	27485	958412	38270	106282	0	0	8167	758191	0	0
2024-05-01 06:12:32			0	34004	0	0	0	17303	15960	151514	27301	958429	38250	106277	0	0	8166	758447	0	0
2024-05-01 06:13:32			0	34008	0	0	0	17306	15950	151498	27248	958447	38250	106278	0	0	8167	758290	0	0
2024-05-01 06:14:32			0	34000	0	0	0	17316	15950	151594	27450	958412	38249	106282	0	0	8166	758687	0	0
2024-05-01 06:15:32			0	33968	0	0	0	17314	15940	151582	27357	958404	38249	106281	0	0	8164	760318	0	0
2024-05-01 06:16:32			0	33972	0	0	0	17311	15950	151630	27495	958439	38270	106280	0	0	8164	760078	0	0
2024-05-01 06:17:32			0	33973	0	0	0	17311	15940	151638	27783	958404	38249	106280	0	0	8164	760069	0	0
2024-05-01 06:18:32			0	33967	0	0	0	17311	15950	151678	27557	958439	38259	106280	0	0	8164	760327	0	0
2024-05-01 06:19:32			0	33963	0	0	0	17296	15940	151694	27419	958370	38258	106274	0	0	8164	760567	0	0
2024-05-01 06:20:32			0	33969	0	0	0	17285	15940	151702	27608	958396	38237	106270	0	0	8165	760268	0	0
2024-05-01 06:21:32			0	33963	0	0	0	17298	15950	151654	27552	958465	38249	106275	0	0	8164	760526	0	0
2024-05-01 06:22:32			0	33972	0	0	0	17285	15940	151746	27668	958370	38248	106270	0	0	8165	760119	0	0
2024-05-01 06:23:32			0	33979	0	0	0	17267	15940	151738	27812	958370	38237	106263	0	0	8166	759771	0	0
2024-05-01 06:24:32			0	33969	0	0	0	17259	15930	151646	27350	958301	38236	106260	0	0	8165	760309	0	0
2024-05-01 06:25:32			0	33985	0	0	0	17249	15920	151654	27587	958284	38235	106256	0	0	8166	759555	0	0
2024-05-01 06:26:32			0	33993	0	0	0	17225	15910	151562	27500	958189	38223	106247	0	0	8167	759198	0	0
2024-05-01 06:27:32			0	33995	0	0	0	17228	15910	151582	27265	958250	38234	106248	0	0	8167	759099	0	0
2024-05-01 06:28:32			0	34029	0	0	0	17207	15900	151474	27651	958207	38245	106240	0	0	8169	757452	0	0
2024-05-01 06:29:32			0	34042	0	0	0	17210	15910	151490	27166	958224	38245	106241	0	0	8170	756767	0	0
2024-05-01 06:30:32			0	34060	0	0	0	17199	15900	151394	27428	958207	38212	106237	0	0	8171	755916	0	0
2024-05-01 06:31:32			0	34061	0	0	0	17171	15890	151298	27478	958104	38233	106226	0	0	8172	755907	0	0
2024-05-01 06:32:32			0	34072	0	0	0	17168	15880	151234	27320	958148	38222	106225	0	0	8172	755404	0	0
2024-05-01 06:33:32			0	34067	0	0	0	17187	15880	151194	27123	958175	38233	106232	0	0	8172	755651	0	0
2024-05-01 06:34:32			0	34101	0	0	0	17194	15870	151182	27199	958105	38231	106235	0	0	8174	754010	0	0
2024-05-01 06:35:32			0	34108	0	0	0	17199	15860	151094	27308	958123	38241	106237	0	0	8174	753705	0	0
2024-05-01 06:36:32			0	34119	0	0	0	17176	15880	150978	27216	958166	38232	106228	0	0	8175	753080	0	0
2024-05-01 06:37:32			0	34137	0	0	0	17179	15860	151002	27261	958097	38241	106229	0	0	8176	752273	0	0
2024-05-01 06:38:32			0	34147	0	0	0	17155	15860	150778	27350	958115	38230	106220	0	0	8177	751780	0	0
2024-05-01 06:39:32			0	34151	0	0	0	17137	15850	150874	27672	958002	38219	106213	0	0	8177	751623	0	0
2024-05-01 06:40:32			0	34164	0	0	0	17129	15840	150794	27970	957959	38228	106210	0	0	8178	751023	0	0
2024-05-01 06:41:32			0	34190	0	0	0	17135	15830	150758	27488	957943	38207	106212	0	0	8179	749784	0	0
2024-05-01 06:42:32			0	34212	0	0	0	17137	15830	150686	27190	957969	38228	106213	0	0	8181	748702	0	0
2024-05-01 06:43:32			0	34203	0	0	0	17127	15820	150646	27327	957953	38216	106209	0	0	8180	749185	0	0
2024-05-01 06:44:32			0	34205	0	0	0	17119	15820	150582	27651	957900	38227	106206	0	0	8181	749086	0	0
2024-05-01 06:45:32			0	34212	0	0	0	17116	15810	150578	27604	957858	38227	106205	0	0	8181	748782	0	0
2024-05-01 06:46:32			0	34257	0	0	0	17106	15810	150506	27396	957902	38226	106201	0	0	8184	746573	0	0
2024-05-01 06:47:32			0	34256	0	0	0	17098	15800	150546	27230	957833	38224	106198	0	0	8184	746663	0	0
2024-05-01 06:48:32			0	34256	0	0	0	17083	15800	150458	27237	957833	38224	106192	0	0	8184	746663	0	0
2024-05-01 06:49:32			0	34288	0	0	0	17083	15790	150378	27315	957799	38224	106192	0	0	8186	745135	0	0
2024-05-01 06:50:32			0	34298	0	0	0	17080	15790	150318	27486	957764	38213	106191	0	0	8186	744645	0	0
2024-05-01 06:51:32			0	34304	0	0	0	17080	15770	150274	27493	957687	38222	106191	0	0	8187	744432	0	0
2024-05-01 06:52:32			0	34336	0	0	0	17067	15770	150198	27663	957687	38211	106186	0	0	8189	742867	0	0
2024-05-01 06:53:32			0	34334	0	0	0	17057	15760	150098	27272	957671	38210	106182	0	0	8189	743005	0	0
2024-05-01 06:54:32			0	34352	0	0	0	17054	15760	149999	27319	957671	38200	106181	0	0	8190	742126	0	0
2024-05-01 06:55:32			0	34385	0	0	0	17036	15750	149887	27665	957654	38200	106174	0	0	8192	740556	0	0
2024-05-01 06:56:32			0	34392	0	0	0	17036	15740	149899	27357	957585	38188	106174	0	0	8192	740255	0	0
2024-05-01 06:57:32			0	34404	0	0	0	17023	15740	149799	27554	957524	38198	106169	0	0	8193	739671	0	0
2024-05-01 06:58:32			0	34409	0	0	0	17018	15730	149787	27267	957516	38218	106167	0	0	8194	739467	0	0
2024-05-01 06:59:32			0	34468	0	0	0	17033	15720	149655	27507	957526	38208	106173	0	0	8197	736639	0	0
2024-05-01 07:00:32			0	34453	0	0	0	17041	15730	149579	27798	957613	38208	106176	0	0	8196	737328	0	0
2024-05-01 07:01:32			0	34470	0	0	0	17057	15720	149503	27206	957552	38218	106182	0	0	8196	736542	0	0
2024-05-01 07:02:32			0	34510	0	0	0	17057	15730	149467	27320	957640	38208	106182	0	0	8199	734563	0	0
2024-05-01 07:03:32			0	34509	0	0	0	17049	15720	149439	27156	957579	38208	106179	0	0	8199	734651	0	0
2024-05-01 07:04:32			0	34531	0	0	0	17057	15720	149223	27642	957605	38197	106182	0	0	8200	733586	0	0
2024-05-01 07:05:32			0	34545	0	0	0	17049	15730	149151	27317	957648	38208	106179	0	0	8201	732870	0	0
2024-05-01 07:06:32			0	34560	0	0	0	17046	15730	149207	27466	957561	38197	106178	0	0	8202	732145	0	0
2024-05-01 07:07:32			0	34575	0	0	0	17044	15720	149079	27576	957518	38217	106177	0	0	8203	731460	0	0
2024-05-01 07:08:32			0	34590	0	0	0	17046	15720	149119	27571	957518	38207	106178	0	0	8203	730736	0	0
2024-05-01 07:09:32			0	34604	0	0	0	17041	15720	149075	27613	957492	38207	106176	0	0	8204	730061	0	0
2024-05-01 07:10:32			0	34619	0	0	0	17033	15710	148931	27762	957562	38206	106173	0	0	8205	729377	0	0
2024-05-01 07:11:32			0	34617	0	0	0	17049	15720	148923	27402	957605	38208	106179	0	0	8205	729434	0	0
2024-05-01 07:12:32			0	34654	0	0	0	17049	15720	148763	27755	957597	38207	106179	0	0	8207	727654	0	0
2024-05-01 07:13:32			0	34677	0	0	0	17046	15710	148871	27284	957562	38195	106178	0	0	8208	726588	0	0
2024-05-01 07:14:32			0	34683	0	0	0	17049	15710	148703	27336	957502	38206	106179	0	0	8209	726300	0	0
2024-05-01 07:15:32			0	34684	0	0	0	17064	15710	148771	27467	957589	38206	106185	0	0	8208	726251	0	0
2024-05-01 07:16:32			0	34702	0	0	0	17106	15720	148615	27592	957684	38218	106201	0	0	8209	725349	0	0
2024-05-01 07:17:32			0	34722	0	0	0	17111	15730	148583	27807	957666	38229	106203	0	0	8210	724351	0	0
2024-05-01 07:18:32			0	34721	0	0	0	17129	15730	148567	27685	957666	38218	106210	0	0	8209	724399	0	0
2024-05-01 07:19:32			0	34739	0	0	0	17140	15740	148567	27692	957769	38220	106214	0	0	8210	723498	0	0
2024-05-01 07:20:32			0	34736	0	0	0	17145	15750	148527	27625	957804	38221	106216	0	0	8210	723602	0	0
2024-05-01 07:21:32			0	34771	0	0	0	17161	15750	148435	27395	957812	38221	106222	0	0	8212	721928	0	0
2024-05-01 07:22:32			0	34774	0	0	0	17184	15760	148347	27417	957873	38232	106231	0	0	8212	721746	0	0
2024-05-01 07:23:32			0	34786	0	0	0	17205	15770	148259	27300	957871	38222	106239	0	0	8212	721134	0	0
2024-05-01 07:24:32			0	34798	0	0	0	17212	15770	148283	27457	957950	38222	106242	0	0	8213	720561	0	0
2024-05-01 07:25:32			0	34802	0	0	0	17212	15780	148151	27578	957967	38234	106242	0	0	8213	720331	0	0
2024-05-01 07:26:32			0	34823	0	0	0	17212	15780	148235	27715	957967	38223	106242	0	0	8214	719330	0	0
2024-05-01 07:27:32			0	34826	0	0	0	17218	15800	148139	27467	958026	38225	106244	0	0	8214	719109	0	0
2024-05-01 07:28:32			0	34821	0	0	0	17223	15790	148087	27883	958009	38224	106246	0	0	8214	719386	0	0
2024-05-01 07:29:32			0	34821	0	0	0	17207	15810	148071	27469	957981	38226	106240	0	0	8214	719309	0	0
2024-05-01 07:30:32			0	34838	0	0	0	17210	15810	148019	27748	958042	38238	106241	0	0	8215	718499	0	0
2024-05-01 07:31:32			0	34806	0	0	0	17212	15820	148035	27698	958024	38227	106242	0	0	8213	719985	0	0
2024-05-01 07:32:32			0	34851	0	0	0	17199	15810	148031	27819	958042	38227	106237	0	0	8216	717880	0	0
2024-05-01 07:33:32			0	34863	0	0	0	17192	15810	148015	27842	958016	38227	106234	0	0	8217	717310	0	0
2024-05-01 07:34:32			0	34841	0	0	0	17202	15810	147943	27762	958016	38216	106238	0	0	8215	718356	0	0
2024-05-01 07:35:32			0	34846	0	0	0	17223	15820	147927	27618	958076	38216	106246	0	0	8215	718080	0	0
2024-05-01 07:36:32			0	34846	0	0	0	17212	15820	148027	27838	958032	38238	106242	0	0	8215	718080	0	0
2024-05-01 07:37:32			0	34832	0	0	0	17220	15820	147951	27757	958032	38238	106245	0	0	8215	718746	0	0
2024-05-01 07:38:32			0	34834	0	0	0	17218	15830	147983	27996	958075	38240	106244	0	0	8215	718612	0	0
2024-05-01 07:39:32			0	34826	0	0	0	17215	15840	148003	27431	958135	38240	106243	0	0	8214	718954	0	0
2024-05-01 07:40:32			0	34832	0	0	0	17218	15830	148119	27352	958075	38240	106244	0	0	8215	718707	0	0
2024-05-01 07:41:32			0	34799	0	0	0	17223	15840	148155	27396	958056	38228	106246	0	0	8213	720241	0	0
2024-05-01 07:42:32			0	34804	0	0	0	17218	15840	148083	27708	958083	38228	106244	0	0	8213	720003	0	0
2024-05-01 07:43:32			0	34796	0	0	0	17220	15840	148143	27720	958109	38250	106245	0	0	8213	720384	0	0
2024-05-01 07:44:32			0	34784	0	0	0	17225	15840	148211	27298	958083	38240	106247	0	0	8212	720957	0	0
2024-05-01 07:45:32			0	34760	0	0	0	17212	15840	148251	27627	958065	38240	106242	0	0	8211	722104	0	0
2024-05-01 07:46:32			0	34755	0	0	0	17220	15850	148331	27817	958125	38240	106245	0	0	8210	722304	0	0
2024-05-01 07:47:32			0	34729	0	0	0	17223	15840	148475	27876	958109	38240	106246	0	0	8209	723586	0	0
2024-05-01 07:48:32			0	34711	0	0	0	17223	15830	148531	27457	958101	38240	106246	0	0	8208	724487	0	0
2024-05-01 07:49:32			0	34686	0	0	0	17228	15850	148667	27661	958133	38230	106248	0	0	8206	725608	0	0
2024-05-01 07:50:32			0	34672	0	0	0	17228	15850	148599	28005	958152	38240	106248	0	0	8206	726280	0	0
2024-05-01 07:51:32			0	34643	0	0	0	17231	15850	148751	27656	958099	38240	106249	0	0	8204	727673	0	0
2024-05-01 07:52:32			0	34642	0	0	0	17228	15850	148911	27597	958152	38240	106248	0	0	8204	727721	0	0
2024-05-01 07:53:32			0	34599	0	0	0	17231	15840	148879	27712	958144	38240	106249	0	0	8201	729830	0	0
2024-05-01 07:54:32			0	34588	0	0	0	17233	15850	149003	27531	958160	38241	106250	0	0	8201	730320	0	0
2024-05-01 07:55:32			0	34568	0	0	0	17238	15850	149159	27864	958186	38230	106252	0	0	8199	731285	0	0
2024-05-01 07:56:32			0	34549	0	0	0	17249	15850	149319	27675	958186	38241	106256	0	0	8198	732202	0	0
2024-05-01 07:57:32			0	34540	0	0	0	17246	15850	149299	27509	958160	38241	106255	0	0	8198	732637	0	0
2024-05-01 07:58:32			0	34494	0	0	0	17246	15860	149327	27659	958168	38241	106255	0	0	8195	734823	0	0
2024-05-01 07:59:32			0	34495	0	0	0	17241	15860	149471	27428	958176	38230	106253	0	0	8195	734775	0	0
2024-05-01 08:00:32			0	34469	0	0	0	17257	15860	149547	27753	958176	38241	106259	0	0	8194	736035	0	0
2024-05-01 08:01:32			0	34474	0	0	0	17254	15860	149635	27757	958194	38241	106258	0	0	8194	735792	0	0
2024-05-01 08:02:32			0	34452	0	0	0	17264	15880	149703	27668	958219	38243	106262	0	0	8193	736780	0	0
2024-05-01 08:03:32			0	34449	0	0	0	17254	15870	149711	27504	958237	38242	106258	0	0	8193	736966	0	0
2024-05-01 08:04:32			0	34425	0	0	0	17246	15880	149811	27651	958201	38233	106255	0	0	8191	738092	0	0
2024-05-01 08:05:32			0	34398	0	0	0	17254	15880	149803	27499	958254	38244	106258	0	0	8190	739405	0	0
2024-05-01 08:06:32			0	34394	0	0	0	17262	15870	149799	27647	958237	38231	106261	0	0	8189	739639	0	0
2024-05-01 08:07:32			0	34396	0	0	0	17259	15880	149915	27528	958298	38253	106260	0	0	8189	739502	0	0
2024-05-01 08:08:32			0	34389	0	0	0	17259	15890	149911	27599	958235	38244	106260	0	0	8189	739803	0	0
2024-05-01 08:09:32			0	34369	0	0	0	17257	15880	150027	27569	958325	38221	106259	0	0	8188	740817	0	0
2024-05-01 08:10:32			0	34352	0	0	0	17270	15890	150123	27788	958288	38244	106264	0	0	8187	741606	0	0
2024-05-01 08:11:32			0	34330	0	0	0	17264	15880	150126	27582	958272	38232	106262	0	0	8186	742720	0	0
2024-05-01 08:12:32			0	34320	0	0	0	17270	15890	150258	27966	958296	38254	106264	0	0	8185	743168	0	0
2024-05-01 08:13:32			0	34331	0	0	0	17272	15890	150170	27824	958323	38254	106265	0	0	8186	742631	0	0
2024-05-01 08:14:32			0	34311	0	0	0	17280	15890	150198	27845	958296	38244	106268	0	0	8184	743608	0	0
2024-05-01 08:15:32			0	34305	0	0	0	17264	15890	150246	27524	958244	38233	106262	0	0	8184	743901	0	0
2024-05-01 08:16:32			0	34306	0	0	0	17277	15900	150318	27568	958304	38233	106267	0	0	8184	743812	0	0
2024-05-01 08:17:32			0	34278	0	0	0	17270	15900	150342	27855	958304	38245	106264	0	0	8183	745182	0	0
2024-05-01 08:18:32			0	34290	0	0	0	17280	15900	150406	27606	958286	38245	106268	0	0	8183	744595	0	0
2024-05-01 08:19:32			0	34255	0	0	0	17280	15900	150346	27921	958365	38256	106268	0	0	8181	746309	0	0
2024-05-01 08:20:32			0	34255	0	0	0	17277	15900	150466	27732	958304	38245	106267	0	0	8181	746309	0	0
2024-05-01 08:21:32			0	34278	0	0	0	17283	15900	150450	27767	958365	38234	106269	0	0	8182	745182	0	0
2024-05-01 08:22:32			0	34239	0	0	0	17288	15900	150462	27807	958357	38245	106271	0	0	8180	747094	0	0
2024-05-01 08:23:32			0	34240	0	0	0	17275	15900	150486	28037	958392	38245	106266	0	0	8180	747045	0	0
2024-05-01 08:24:32			0	34248	0	0	0	17280	15890	150510	27809	958296	38244	106268	0	0	8181	746693	0	0
2024-05-01 08:25:32			0	34251	0	0	0	17280	15900	150462	27557	958331	38245	106268	0	0	8181	746505	0	0
2024-05-01 08:26:32			0	34252	0	0	0	17277	15910	150530	27762	958347	38256	106267	0	0	8181	746416	0	0
2024-05-01 08:27:32			0	34227	0	0	0	17275	15900	150574	27819	958365	38245	106266	0	0	8180	747683	0	0
2024-05-01 08:28:32			0	34234	0	0	0	17267	15900	150462	27684	958365	38256	106263	0	0	8180	747339	0	0
2024-05-01 08:29:32			0	34204	0	0	0	17272	15900	150542	27563	958304	38255	106265	0	0	8178	748813	0	0
2024-05-01 08:30:32			0	34225	0	0	0	17267	15900	150610	27868	958365	38256	106263	0	0	8180	747781	0	0
2024-05-01 08:31:32			0	34208	0	0	0	17257	15900	150582	27935	958313	38234	106259	0	0	8179	748616	0	0
2024-05-01 08:32:32			0	34215	0	0	0	17233	15900	150574	27687	958313	38256	106250	0	0	8180	748272	0	0
2024-05-01 08:33:32			0	34223	0	0	0	17236	15890	150630	27537	958270	38233	106251	0	0	8180	747920	0	0
2024-05-01 08:34:32			0	34234	0	0	0	17225	15900	150598	27838	958252	38233	106247	0	0	8181	747339	0	0
2024-05-01 08:35:32			0	34216	0	0	0	17228	15890	150542	27675	958262	38233	106248	0	0	8180	748263	0	0
2024-05-01 08:36:32			0	34224	0	0	0	17238	15900	150494	27656	958252	38255	106252	0	0	8180	747830	0	0
2024-05-01 08:37:32			0	34231	0	0	0	17251	15890	150554	27452	958270	38254	106257	0	0	8180	747527	0	0
2024-05-01 08:38:32			0	34243	0	0	0	17254	15890	150522	27614	958262	38254	106258	0	0	8181	746938	0	0
2024-05-01 08:39:32			0	34220	0	0	0	17246	15880	150550	27620	958280	38233	106255	0	0	8180	748107	0	0
2024-05-01 08:40:32			0	34248	0	0	0	17259	15900	150554	27933	958339	38234	106260	0	0	8181	746652	0	0
2024-05-01 08:41:32			0	34249	0	0	0	17262	15900	150534	27473	958304	38245	106261	0	0	8181	746603	0	0
2024-05-01 08:42:32			0	34249	0	0	0	17270	15890	150510	27310	958296	38233	106264	0	0	8181	746644	0	0
2024-05-01 08:43:32			0	34234	0	0	0	17272	15890	150514	27473	958296	38233	106265	0	0	8180	747379	0	0
2024-05-01 08:44:32			0	34249	0	0	0	17270	15890	150550	27659	958270	38233	106264	0	0	8181	746644	0	0
2024-05-01 08:45:32			0	34258	0	0	0	17277	15890	150454	27736	958296	38244	106267	0	0	8181	746202	0	0
2024-05-01 08:46:32			0	34265	0	0	0	17275	15890	150446	27677	958349	38233	106266	0	0	8182	745859	0	0
2024-05-01 08:47:32			0	34292	0	0	0	17277	15890	150386	27743	958296	38244	106267	0	0	8183	744537	0	0
2024-05-01 08:48:32			0	34274	0	0	0	17290	15900	150330	27341	958304	38255	106272	0	0	8182	745378	0	0
2024-05-01 08:49:32			0	34291	0	0	0	17283	15900	150366	27479	958357	38245	106269	0	0	8183	744546	0	0
2024-05-01 08:50:32			0	34293	0	0	0	17275	15900	150346	27682	958392	38256	106266	0	0	8183	744448	0	0
2024-05-01 08:51:32			0	34316	0	0	0	17272	15900	150294	27736	958357	38233	106265	0	0	8185	743324	0	0
2024-05-01 08:52:32			0	34329	0	0	0	17283	15910	150246	27523	958347	38256	106269	0	0	8185	742649	0	0
2024-05-01 08:53:32			0	34315	0	0	0	17275	15910	150238	27222	958347	38256	106266	0	0	8185	743333	0	0
2024-05-01 08:54:32			0	34327	0	0	0	17275	15900	150142	27360	958365	38245	106266	0	0	8185	742786	0	0
2024-05-01 08:55:32			0	34328	0	0	0	17267	15900	150134	27642	958357	38255	106263	0	0	8186	742738	0	0
2024-05-01 08:56:32			0	34337	0	0	0	17264	15900	150102	27485	958304	38233	106262	0	0	8186	742298	0	0
2024-05-01 08:57:32			0	34324	0	0	0	17262	15900	150186	27573	958313	38256	106261	0	0	8185	742933	0	0
2024-05-01 08:58:32			0	34353	0	0	0	17270	15890	149991	27467	958323	38254	106264	0	0	8187	741557	0	0
2024-05-01 08:59:32			0	34342	0	0	0	17270	15900	150026	27701	958365	38245	106264	0	0	8186	742054	0	0
2024-05-01 09:00:32			0	34372	0	0	0	17264	15890	149935	27517	958288	38244	106262	0	0	8188	740631	0	0
2024-05-01 09:01:32			0	34377	0	0	0	17251	15900	149935	27972	958278	38255	106257	0	0	8189	740348	0	0
2024-05-01 09:02:32			0	34401	0	0	0	17246	15890	149891	27779	958244	38254	106255	0	0	8190	739219	0	0
2024-05-01 09:03:32			0	34396	0	0	0	17246	15890	149779	27511	958262	38244	106255	0	0	8190	739462	0	0
2024-05-01 09:04:32			0	34403	0	0	0	17233	15890	149723	27682	958209	38254	106250	0	0	8190	739122	0	0
2024-05-01 09:05:32			0	34430	0	0	0	17233	15880	149671	27769	958166	38243	106250	0	0	8192	737849	0	0
2024-05-01 09:06:32			0	34438	0	0	0	17228	15880	149575	27438	958140	38232	106248	0	0	8192	737460	0	0
2024-05-01 09:07:32			0	34465	0	0	0	17218	15880	149507	27459	958114	38232	106244	0	0	8194	736150	0	0
2024-05-01 09:08:32			0	34492	0	0	0	17197	15860	149443	27616	958142	38241	106236	0	0	8196	734920	0	0
2024-05-01 09:09:32			0	34490	0	0	0	17194	15850	149407	27582	958099	38229	106235	0	0	8196	735057	0	0
2024-05-01 09:10:32			0	34522	0	0	0	17197	15850	149351	27374	958107	38230	106236	0	0	8198	733508	0	0
2024-05-01 09:11:32			0	34517	0	0	0	17192	15850	149255	27795	958133	38230	106234	0	0	8197	733749	0	0
2024-05-01 09:12:32			0	34544	0	0	0	17187	15850	149139	27706	958099	38240	106232	0	0	8199	732444	0	0
2024-05-01 09:13:32			0	34578	0	0	0	17171	15840	149015	27732	957977	38217	106226	0	0	8201	730842	0	0
2024-05-01 09:14:32			0	34576	0	0	0	17161	15830	148923	27795	957996	38240	106222	0	0	8201	730978	0	0
2024-05-01 09:15:32			0	34608	0	0	0	17158	15830	148911	27614	957987	38228	106221	0	0	8203	729435	0	0
2024-05-01 09:16:32			0	34629	0	0	0	17161	15830	148931	27888	957935	38228	106222	0	0	8204	728424	0	0
2024-05-01 09:17:32			0	34633	0	0	0	17140	15810	148719	27376	957910	38227	106214	0	0	8205	728311	0	0
2024-05-01 09:18:32			0	34665	0	0	0	17140	15810	148795	27402	957858	38227	106214	0	0	8206	726772	0	0
2024-05-01 09:19:32			0	34671	0	0	0	17124	15800	148651	27308	957868	38214	106208	0	0	8207	726523	0	0
2024-05-01 09:20:32			0	34705	0	0	0	17119	15800	148499	27493	957841	38214	106206	0	0	8209	724892	0	0
2024-05-01 09:21:32			0	34718	0	0	0	17114	15790	148515	27492	957799	38224	106204	0	0	8210	724308	0	0
2024-05-01 09:22:32			0	34726	0	0	0	17111	15780	148355	27587	957809	38212	106203	0	0	8210	723964	0	0
2024-05-01 09:23:32			0	34757	0	0	0	17111	15780	148343	27595	957782	38223	106203	0	0	8212	722481	0	0
2024-05-01 09:24:32			0	34777	0	0	0	17101	15770	148295	27431	957740	38222	106199	0	0	8213	721563	0	0
2024-05-01 09:25:32			0	34806	0	0	0	17101	15760	148175	27384	957715	38221	106199	0	0	8215	720218	0	0
2024-05-01 09:26:32			0	34810	0	0	0	17096	15770	147999	27620	957705	38211	106197	0	0	8215	719988	0	0
2024-05-01 09:27:32			0	34838	0	0	0	17093	15760	147983	27926	957723	38233	106196	0	0	8217	718693	0	0
2024-05-01 09:28:32			0	34839	0	0	0	17090	15760	147851	27535	957644	38222	106195	0	0	8217	718645	0	0
2024-05-01 09:29:32			0	34864	0	0	0	17085	15750	147875	27381	957751	38221	106193	0	0	8218	717494	0	0
2024-05-01 09:30:32			0	34869	0	0	0	17090	15750	147791	27557	957672	38210	106195	0	0	8219	717256	0	0
2024-05-01 09:31:32			0	34914	0	0	0	17096	15740	147679	27327	957664	38231	106197	0	0	8221	715157	0	0
2024-05-01 09:32:32			0	34928	0	0	0	17088	15740	147619	27552	957638	38220	106194	0	0	8222	714493	0	0
2024-05-01 09:33:32			0	34947	0	0	0	17098	15730	147507	27481	957648	38229	106198	0	0	8223	713631	0	0
2024-05-01 09:34:32			0	34973	0	0	0	17088	15740	147375	27620	957682	38219	106194	0	0	8224	712361	0	0
2024-05-01 09:35:32			0	34966	0	0	0	17085	15730	147259	27445	957621	38208	106193	0	0	8224	712731	0	0
2024-05-01 09:36:32			0	34995	0	0	0	17090	15740	147211	27748	957656	38219	106195	0	0	8226	711321	0	0
2024-05-01 09:37:32			0	35008	0	0	0	17093	15740	147223	27743	957690	38220	106196	0	0	8226	710707	0	0
2024-05-01 09:38:32			0	35027	0	0	0	17093	15730	147103	27424	957569	38218	106196	0	0	8227	709848	0	0
2024-05-01 09:39:32			0	35040	0	0	0	17080	15730	147119	27448	957727	38218	106191	0	0	8228	709235	0	0
2024-05-01 09:40:32			0	35066	0	0	0	17096	15730	147039	27776	957640	38229	106197	0	0	8229	708010	0	0
2024-05-01 09:41:32			0	35065	0	0	0	17093	15730	146979	27815	957666	38229	106196	0	0	8229	708057	0	0
2024-05-01 09:42:32			0	35127	0	0	0	17090	15730	146796	27320	957674	38229	106195	0	0	8233	705141	0	0
2024-05-01 09:43:32			0	35128	0	0	0	17101	15730	146748	27817	957648	38218	106199	0	0	8233	705094	0	0
2024-05-01 09:44:32			0	35128	0	0	0	17093	15730	146688	27265	957674	38229	106196	0	0	8233	705094	0	0
2024-05-01 09:45:32			0	35146	0	0	0	17093	15730	146684	27566	957666	38218	106196	0	0	8234	704249	0	0
2024-05-01 09:46:32			0	35167	0	0	0	17098	15720	146616	27177	957658	38208	106198	0	0	8235	703303	0	0
2024-05-01 09:47:32			0	35190	0	0	0	17093	15730	146496	27339	957666	38218	106196	0	0	8236	702188	0	0
2024-05-01 09:48:32			0	35229	0	0	0	17098	15740	146372	27743	957743	38209	106198	0	0	8238	700326	0	0
2024-05-01 09:49:32			0	35219	0	0	0	17101	15730	146268	27696	957640	38229	106199	0	0	8238	700831	0	0
2024-05-01 09:50:32			0	35255	0	0	0	17098	15730	146216	27800	957648	38218	106198	0	0	8240	699150	0	0
2024-05-01 09:51:32			0	35250	0	0	0	17103	15730	146240	27388	957648	38208	106200	0	0	8240	699383	0	0
2024-05-01 09:52:32			0	35278	0	0	0	17101	15730	146060	27263	957753	38229	106199	0	0	8241	698078	0	0
2024-05-01 09:53:32			0	35288	0	0	0	17103	15740	146048	27409	957735	38230	106200	0	0	8242	697574	0	0
2024-05-01 09:54:32			0	35304	0	0	0	17101	15740	145940	27587	957709	38219	106199	0	0	8243	696829	0	0
2024-05-01 09:55:32			0	35324	0	0	0	17109	15730	145872	27741	957727	38218	106202	0	0	8244	695936	0	0
2024-05-01 09:56:32			0	35346	0	0	0	17114	15740	145792	27410	957709	38219	106204	0	0	8245	694876	0	0
2024-05-01 09:57:32			0	35368	0	0	0	17111	15740	145656	27691	957761	38230	106203	0	0	8246	693855	0	0
2024-05-01 09:58:32			0	35372	0	0	0	17109	15740	145732	27765	957743	38220	106202	0	0	8246	693670	0	0
2024-05-01 09:59:32			0	35394	0	0	0	17109	15740	145628	27632	957709	38241	106202	0	0	8247	692650	0	0
2024-05-01 10:00:32			0	35389	0	0	0	17111	15730	145496	27351	957700	38229	106203	0	0	8247	692919	0	0
2024-05-01 10:01:32			0	35428	0	0	0	17114	15740	145516	27718	957743	38231	106204	0	0	8249	691075	0	0
2024-05-01 10:02:32			0	35456	0	0	0	17111	15740	145400	27298	957735	38241	106203	0	0	8251	689781	0	0
2024-05-01 10:03:32			0	35460	0	0	0	17109	15730	145400	27731	957674	38218	106202	0	0	8251	689634	0	0
2024-05-01 10:04:32			0	35481	0	0	0	17116	15750	145252	27661	957725	38232	106205	0	0	8252	688590	0	0
2024-05-01 10:05:32			0	35503	0	0	0	17114	15750	145172	27426	957725	38243	106204	0	0	8253	687575	0	0
2024-05-01 10:06:32			0	35518	0	0	0	17109	15740	145048	27265	957682	38208	106202	0	0	8254	686921	0	0
2024-05-01 10:07:32			0	35527	0	0	0	17111	15730	144984	27131	957727	38229	106203	0	0	8255	686544	0	0
2024-05-01 10:08:32			0	35560	0	0	0	17111	15740	144928	27216	957788	38219	106203	0	0	8257	684989	0	0
2024-05-01 10:09:32			0	35574	0	0	0	17111	15730	144808	27400	957753	38208	106203	0	0	8257	684383	0	0
2024-05-01 10:10:32			0	35578	0	0	0	17103	15740	144788	27639	957735	38230	106200	0	0	8258	684162	0	0
2024-05-01 10:11:32			0	35613	0	0	0	17111	15740	144752	27843	957717	38220	106203	0	0	8259	682556	0	0
2024-05-01 10:12:32			0	35632	0	0	0	17106	15740	144568	27346	957735	38241	106201	0	0	8261	681686	0	0
2024-05-01 10:13:32			0	35636	0	0	0	17106	15750	144500	27369	957725	38221	106201	0	0	8261	681466	0	0
2024-05-01 10:14:32			0	35669	0	0	0	17103	15740	144480	27649	957638	38231	106200	0	0	8263	679993	0	0
2024-05-01 10:15:32			0	35699	0	0	0	17103	15730	144388	27388	957727	38218	106200	0	0	8264	678659	0	0
2024-05-01 10:16:32			0	35720	0	0	0	17101	15740	144336	27303	957709	38208	106199	0	0	8266	677664	0	0
2024-05-01 10:17:32			0	35740	0	0	0	17106	15730	144272	27254	957727	38229	106201	0	0	8267	676789	0	0
2024-05-01 10:18:32			0	35768	0	0	0	17098	15740	144232	27281	957709	38219	106198	0	0	8268	675477	0	0
2024-05-01 10:19:32			0	35756	0	0	0	17096	15740	144032	27478	957735	38208	106197	0	0	8268	676024	0	0
2024-05-01 10:20:32			0	35804	0	0	0	17103	15740	144084	27547	957656	38219	106200	0	0	8270	673841	0	0
2024-05-01 10:21:32			0	35817	0	0	0	17096	15730	144084	27376	957700	38218	106197	0	0	8271	673287	0	0
2024-05-01 10:22:32			0	35793	0	0	0	17096	15730	143992	27462	957692	38241	106197	0	0	8270	674377	0	0
2024-05-01 10:23:32			0	35822	0	0	0	17093	15740	143856	27364	957743	38220	106196	0	0	8271	673024	0	0
2024-05-01 10:24:32			0	35840	0	0	0	17106	15730	143776	27367	957700	38218	106201	0	0	8272	672244	0	0
2024-05-01 10:25:32			0	35869	0	0	0	17093	15730	143733	27201	957700	38229	106196	0	0	8274	670929	0	0
2024-05-01 10:26:32			0	35854	0	0	0	17098	15730	143748	27230	957666	38229	106198	0	0	8273	671609	0	0
2024-05-01 10:27:32			0	35880	0	0	0	17103	15730	143613	27230	957700	38218	106200	0	0	8274	670431	0	0
2024-05-01 10:28:32			0	35911	0	0	0	17114	15730	143513	27277	957666	38218	106204	0	0	8276	669030	0	0
2024-05-01 10:29:32			0	35910	0	0	0	17103	15730	143577	27417	957719	38218	106200	0	0	8276	669075	0	0
2024-05-01 10:30:32			0	35920	0	0	0	17106	15740	143521	27388	957735	38230	106201	0	0	8276	668587	0	0
2024-05-01 10:31:32			0	35929	0	0	0	17109	15750	143449	27535	957751	38232	106202	0	0	8277	668145	0	0
2024-05-01 10:32:32			0	35934	0	0	0	17114	15730	143337	27341	957727	38229	106204	0	0	8277	667991	0	0
2024-05-01 10:33:32			0	35950	0	0	0	17114	15740	143317	27237	957717	38220	106204	0	0	8278	667233	0	0
2024-05-01 10:34:32			0	35951	0	0	0	17109	15740	143277	27516	957769	38220	106202	0	0	8278	667188	0	0
2024-05-01 10:35:32			0	35979	0	0	0	17116	15750	143269	27493	957725	38221	106205	0	0	8279	665890	0	0
2024-05-01 10:36:32			0	35997	0	0	0	17103	15740	143153	27685	957717	38231	106200	0	0	8281	665116	0	0
2024-05-01 10:37:32			0	36002	0	0	0	17111	15740	143169	27409	957743	38231	106203	0	0	8281	664891	0	0
2024-05-01 10:38:32			0	36026	0	0	0	17101	15730	143065	27561	957727	38218	106199	0	0	8282	663847	0	0
2024-05-01 10:39:32			0	36034	0	0	0	17101	15740	142981	27587	957709	38219	106199	0	0	8283	663452	0	0
2024-05-01 10:40:32			0	36022	0	0	0	17098	15740	143125	27249	957682	38219	106198	0	0	8282	663992	0	0
2024-05-01 10:41:32			0	36045	0	0	0	17109	15740	143073	27556	957682	38230	106202	0	0	8283	662958	0	0
2024-05-01 10:42:32			0	36056	0	0	0	17103	15730	142921	27557	957700	38218	106200	0	0	8284	662500	0	0
2024-05-01 10:43:32			0	36086	0	0	0	17111	15740	142917	27416	957682	38230	106203	0	0	8285	661120	0	0
2024-05-01 10:44:32			0	36073	0	0	0	17103	15740	142865	27663	957709	38230	106200	0	0	8285	661702	0	0
2024-05-01 10:45:32			0	36080	0	0	0	17103	15740	142853	27880	957743	38231	106200	0	0	8285	661388	0	0
2024-05-01 10:46:32			0	36110	0	0	0	17111	15730	142801	27781	957727	38218	106203	0	0	8287	660080	0	0
2024-05-01 10:47:32			0	36120	0	0	0	17109	15730	142733	27326	957753	38218	106202	0	0	8287	659633	0	0
2024-05-01 10:48:32			0	36106	0	0	0	17103	15740	142765	27331	957717	38220	106200	0	0	8287	660224	0	0
2024-05-01 10:49:32			0	36129	0	0	0	17109	15740	142741	27621	957682	38208	106202	0	0	8288	659195	0	0
2024-05-01 10:50:32			0	36140	0	0	0	17101	15730	142621	27493	957771	38218	106199	0	0	8288	658739	0	0
2024-05-01 10:51:32			0	36152	0	0	0	17106	15740	142537	27578	957761	38219	106201	0	0	8289	658167	0	0
2024-05-01 10:52:32			0	36167	0	0	0	17109	15740	142577	27770	957761	38208	106202	0	0	8290	657497	0	0
2024-05-01 10:53:32			0	36178	0	0	0	17116	15740	142433	27580	957769	38220	106205	0	0	8290	657006	0	0
2024-05-01 10:54:32			0	36200	0	0	0	17111	15740	142409	27571	957788	38241	106203	0	0	8292	656025	0	0
2024-05-01 10:55:32			0	36198	0	0	0	17109	15740	142505	27594	957690	38220	106202	0	0	8291	656114	0	0
2024-05-01 10:56:32			0	36209	0	0	0	17103	15740	142341	27793	957743	38220	106200	0	0	8292	655624	0	0
2024-05-01 10:57:32			0	36228	0	0	0	17114	15740	142369	27713	957743	38220	106204	0	0	8293	654779	0	0
2024-05-01 10:58:32			0	36235	0	0	0	17098	15740	142281	27878	957735	38230	106198	0	0	8294	654467	0	0
2024-05-01 10:59:32			0	36238	0	0	0	17098	15730	142209	27682	957621	38218	106198	0	0	8294	654369	0	0
2024-05-01 11:00:32			0	36243	0	0	0	17090	15730	142261	27630	957648	38229	106195	0	0	8294	654146	0	0
2024-05-01 11:01:32			0	36257	0	0	0	17093	15740	142165	27448	957664	38231	106196	0	0	8295	653489	0	0
2024-05-01 11:02:32			0	36270	0	0	0	17075	15740	142189	27588	957656	38219	106189	0	0	8296	652911	0	0
2024-05-01 11:03:32			0	36280	0	0	0	17077	15730	142061	27746	957666	38229	106190	0	0	8296	652502	0	0
2024-05-01 11:04:32			0	36276	0	0	0	17083	15740	142029	27992	957656	38219	106192	0	0	8296	652645	0	0
2024-05-01 11:05:32			0	36301	0	0	0	17077	15720	141953	27852	957684	38208	106190	0	0	8297	651606	0	0
2024-05-01 11:06:32			0	36321	0	0	0	17064	15730	141993	27708	957719	38229	106185	0	0	8299	650684	0	0
2024-05-01 11:07:32			0	36320	0	0	0	17054	15710	141949	27362	957615	38217	106181	0	0	8299	650798	0	0
2024-05-01 11:08:32			0	36327	0	0	0	17049	15720	141841	27609	957631	38208	106179	0	0	8299	650453	0	0
2024-05-01 11:09:32			0	36334	0	0	0	17038	15710	141869	27663	957589	38217	106175	0	0	8300	650178	0	0
2024-05-01 11:10:32			0	36357	0	0	0	17044	15710	141753	27424	957581	38206	106177	0	0	8301	649160	0	0
2024-05-01 11:11:32			0	36372	0	0	0	17020	15710	141749	27692	957528	38217	106168	0	0	8302	648497	0	0
2024-05-01 11:12:32			0	36374	0	0	0	17028	15710	141753	27829	957554	38217	106171	0	0	8302	648408	0	0
2024-05-01 11:13:32			0	36379	0	0	0	17033	15710	141617	27963	957536	38206	106173	0	0	8302	648187	0	0
2024-05-01 11:14:32			0	36414	0	0	0	17031	15690	141581	27770	957477	38215	106172	0	0	8304	646711	0	0
2024-05-01 11:15:32			0	36420	0	0	0	17041	15690	141577	27871	957530	38215	106176	0	0	8304	646447	0	0
2024-05-01 11:16:32			0	36435	0	0	0	17038	15690	141505	27953	957556	38215	106175	0	0	8305	645785	0	0
2024-05-01 11:17:32			0	36439	0	0	0	17044	15700	141445	27632	957546	38217	106177	0	0	8305	645574	0	0
2024-05-01 11:18:32			0	36447	0	0	0	17044	15700	141449	27817	957546	38217	106177	0	0	8306	645222	0	0
2024-05-01 11:19:32			0	36442	0	0	0	17044	15690	141377	27505	957556	38226	106177	0	0	8306	645477	0	0
2024-05-01 11:20:32			0	36466	0	0	0	17044	15700	141413	27755	957591	38227	106177	0	0	8307	644385	0	0
2024-05-01 11:21:32			0	36467	0	0	0	17041	15690	141397	27564	957548	38205	106176	0	0	8307	644376	0	0
2024-05-01 11:22:32			0	36472	0	0	0	17051	15700	141405	27211	957564	38227	106180	0	0	8307	644121	0	0
2024-05-01 11:23:32			0	36486	0	0	0	17054	15700	141389	27528	957572	38239	106181	0	0	8308	643505	0	0
2024-05-01 11:24:32			0	36453	0	0	0	17051	15700	141417	27685	957546	38228	106180	0	0	8306	644958	0	0
2024-05-01 11:25:32			0	36451	0	0	0	17070	15690	141373	27625	957582	38226	106187	0	0	8306	645080	0	0
2024-05-01 11:26:32			0	36453	0	0	0	17067	15690	141469	27431	957574	38215	106186	0	0	8306	644992	0	0
2024-05-01 11:27:32			0	36422	0	0	0	17064	15700	141553	27386	957591	38238	106185	0	0	8304	646324	0	0
2024-05-01 11:28:32			0	36408	0	0	0	17062	15700	141669	27481	957599	38217	106184	0	0	8303	646941	0	0
2024-05-01 11:29:32			0	36386	0	0	0	17057	15700	141737	27571	957546	38228	106182	0	0	8302	647913	0	0
2024-05-01 11:30:32			0	36351	0	0	0	17057	15700	141813	27403	957599	38228	106182	0	0	8300	649460	0	0
2024-05-01 11:31:32			0	36325	0	0	0	17046	15690	142045	27689	957556	38226	106178	0	0	8299	650647	0	0
2024-05-01 11:32:32			0	36271	0	0	0	17057	15700	142109	27467	957538	38216	106182	0	0	8296	653008	0	0
2024-05-01 11:33:32			0	36242	0	0	0	17038	15700	142297	27353	957564	38227	106175	0	0	8295	654297	0	0
2024-05-01 11:34:32			0	36194	0	0	0	17038	15700	142453	27656	957591	38216	106175	0	0	8292	656434	0	0
2024-05-01 11:35:32			0	36159	0	0	0	17046	15700	142537	27336	957538	38227	106178	0	0	8290	657996	0	0
2024-05-01 11:36:32			0	36089	0	0	0	17046	15700	142825	27741	957572	38228	106178	0	0	8286	661127	0	0
2024-05-01 11:37:32			0	36033	0	0	0	17031	15710	143073	27757	957581	38217	106172	0	0	8284	663604	0	0
2024-05-01 11:38:32			0	36010	0	0	0	17025	15690	143265	27447	957503	38226	106170	0	0	8282	664710	0	0
2024-05-01 11:39:32			0	35964	0	0	0	17033	15680	143457	27588	957487	38215	106173	0	0	8280	666817	0	0
2024-05-01 11:40:32			0	35918	0	0	0	17041	15700	143541	27460	957512	38216	106176	0	0	8277	668821	0	0
2024-05-01 11:41:32			0	35868	0	0	0	17041	15680	143693	27623	957514	38205	106176	0	0	8274	671155	0	0
2024-05-01 11:42:32			0	35837	0	0	0	17041	15680	143800	27672	957514	38205	106176	0	0	8273	672561	0	0
2024-05-01 11:43:32			0	35797	0	0	0	17038	15690	144008	27455	957530	38215	106175	0	0	8271	674341	0	0
2024-05-01 11:44:32			0	35762	0	0	0	17049	15680	144224	27634	957566	38237	106179	0	0	8268	675969	0	0
2024-05-01 11:45:32			0	35705	0	0	0	17044	15690	144280	27881	957548	38226	106177	0	0	8265	678531	0	0
2024-05-01 11:46:32			0	35667	0	0	0	17054	15690	144484	27786	957556	38226	106181	0	0	8263	680267	0	0
2024-05-01 11:47:32			0	35632	0	0	0	17051	15690	144588	27633	957556	38215	106180	0	0	8261	681869	0	0
2024-05-01 11:48:32			0	35589	0	0	0	17054	15700	144880	27689	957625	38217	106181	0	0	8259	683804	0	0
2024-05-01 11:49:32			0	35555	0	0	0	17049	15700	144820	27659	957617	38227	106179	0	0	8257	685367	0	0
2024-05-01 11:50:32			0	35510	0	0	0	17070	15700	145036	27656	957564	38238	106187	0	0	8254	687438	0	0
2024-05-01 11:51:32			0	35484	0	0	0	17059	15700	145192	27876	957651	38217	106183	0	0	8253	688637	0	0
2024-05-01 11:52:32			0	35446	0	0	0	17072	15700	145372	27899	957564	38227	106188	0	0	8251	690392	0	0
2024-05-01 11:53:32			0	35424	0	0	0	17075	15700	145368	27817	957564	38227	106189	0	0	8250	691410	0	0
2024-05-01 11:54:32			0	35388	0	0	0	17064	15710	145640	27538	957633	38239	106185	0	0	8248	693040	0	0
2024-05-01 11:55:32			0	35366	0	0	0	17059	15710	145700	27729	957554	38228	106183	0	0	8247	694060	0	0
2024-05-01 11:56:32			0	35338	0	0	0	17064	15700	145832	27476	957617	38227	106185	0	0	8245	695398	0	0
2024-05-01 11:57:32			0	35301	0	0	0	17064	15700	145916	27464	957617	38227	106185	0	0	8243	697119	0	0
2024-05-01 11:58:32			0	35292	0	0	0	17059	15700	145996	27800	957564	38227	106183	0	0	8242	697538	0	0
2024-05-01 11:59:32			0	35259	0	0	0	17059	15700	146128	27729	957625	38228	106183	0	0	8241	699077	0	0
2024-05-01 12:00:32			0	35247	0	0	0	17062	15700	146232	27576	957599	38239	106184	0	0	8240	699636	0	0
2024-05-01 12:01:32			0	35219	0	0	0	17059	15700	146348	27618	957599	38250	106183	0	0	8238	700944	0	0
2024-05-01 12:02:32			0	35185	0	0	0	17062	15700	146412	27431	957599	38239	106184	0	0	8236	702535	0	0
2024-05-01 12:03:32			0	35170	0	0	0	17072	15710	146552	27594	957581	38228	106188	0	0	8236	703200	0	0
2024-05-01 12:04:32			0	35147	0	0	0	17070	15700	146676	27616	957643	38216	106187	0	0	8234	704316	0	0
2024-05-01 12:05:32			0	35113	0	0	0	17057	15710	146748	27493	957686	38217	106182	0	0	8233	705875	0	0
2024-05-01 12:06:32			0	35120	0	0	0	17059	15700	146784	27530	957599	38228	106183	0	0	8233	705584	0	0
2024-05-01 12:07:32			0	35091	0	0	0	17067	15720	146883	27791	957623	38207	106186	0	0	8231	706871	0	0
2024-05-01 12:08:32			0	35062	0	0	0	17072	15710	146923	27798	957668	38250	106188	0	0	8229	708274	0	0
2024-05-01 12:09:32			0	35062	0	0	0	17070	15710	146959	27618	957686	38239	106187	0	0	8230	708274	0	0
2024-05-01 12:10:32			0	35045	0	0	0	17077	15700	147019	27722	957591	38227	106190	0	0	8228	709114	0	0
2024-05-01 12:11:32			0	35026	0	0	0	17077	15710	147087	27556	957660	38217	106190	0	0	8227	709972	0	0
2024-05-01 12:12:32			0	35003	0	0	0	17077	15710	147135	27466	957668	38228	106190	0	0	8226	711058	0	0
2024-05-01 12:13:32			0	35015	0	0	0	17088	15710	147235	27618	957720	38217	106194	0	0	8227	710491	0	0
2024-05-01 12:14:32			0	34974	0	0	0	17088	15710	147279	27339	957641	38228	106194	0	0	8224	712429	0	0
2024-05-01 12:15:32			0	34964	0	0	0	17088	15720	147387	27642	957650	38217	106194	0	0	8224	712864	0	0
2024-05-01 12:16:32			0	34944	0	0	0	17080	15730	147399	27654	957666	38241	106191	0	0	8223	713773	0	0
2024-05-01 12:17:32			0	34932	0	0	0	17080	15720	147435	27410	957684	38218	106191	0	0	8222	714380	0	0
2024-05-01 12:18:32			0	34923	0	0	0	17083	15720	147531	27308	957658	38218	106192	0	0	8222	714807	0	0
2024-05-01 12:19:32			0	34916	0	0	0	17072	15720	147667	27613	957623	38207	106188	0	0	8221	715139	0	0
2024-05-01 12:20:32			0	34896	0	0	0	17083	15710	147763	27921	957660	38217	106192	0	0	8220	716127	0	0
2024-05-01 12:21:32			0	34893	0	0	0	17067	15720	147703	27722	957650	38229	106186	0	0	8220	716231	0	0
2024-05-01 12:22:32			0	34857	0	0	0	17059	15710	147771	27763	957615	38228	106183	0	0	8218	717982	0	0
2024-05-01 12:23:32			0	34849	0	0	0	17062	15720	147835	27862	957631	38229	106184	0	0	8218	718324	0	0
2024-05-01 12:24:32			0	34838	0	0	0	17057	15720	147907	27843	957597	38217	106182	0	0	8217	718847	0	0
2024-05-01 12:25:32			0	34826	0	0	0	17062	15720	147983	28022	957684	38229	106184	0	0	8216	719419	0	0
2024-05-01 12:26:32			0	34815	0	0	0	17072	15720	148007	27573	957658	38229	106188	0	0	8216	719944	0	0
2024-05-01 12:27:32			0	34814	0	0	0	17080	15720	148151	27531	957676	38217	106191	0	0	8215	719992	0	0
2024-05-01 12:28:32			0	34792	0	0	0	17090	15720	148107	27561	957755	38229	106195	0	0	8214	721041	0	0
2024-05-01 12:29:32			0	34776	0	0	0	17090	15720	148235	27854	957684	38218	106195	0	0	8213	721806	0	0
2024-05-01 12:30:32			0	34767	0	0	0	17098	15720	148247	27805	957658	38229	106198	0	0	8213	722236	0	0
2024-05-01 12:31:32			0	34748	0	0	0	17098	15730	148307	27786	957745	38229	106198	0	0	8211	723106	0	0
2024-05-01 12:32:32			0	34744	0	0	0	17106	15730	148335	27357	957745	38229	106201	0	0	8211	723297	0	0
2024-05-01 12:33:32			0	34754	0	0	0	17096	15720	148259	27469	957710	38218	106197	0	0	8212	722858	0	0
2024-05-01 12:34:32			0	34733	0	0	0	17093	15730	148307	27563	957753	38229	106196	0	0	8211	723824	0	0
2024-05-01 12:35:32			0	34720	0	0	0	17096	15730	148339	27618	957727	38229	106197	0	0	8210	724446	0	0
2024-05-01 12:36:32			0	34724	0	0	0	17090	15740	148287	27817	957761	38219	106195	0	0	8210	724216	0	0
2024-05-01 12:37:32			0	34734	0	0	0	17098	15730	148427	27980	957779	38218	106198	0	0	8211	723776	0	0
2024-05-01 12:38:32			0	34723	0	0	0	17088	15740	148431	27963	957664	38231	106194	0	0	8210	724264	0	0
2024-05-01 12:39:32			0	34722	0	0	0	17072	15740	148551	27485	957735	38230	106188	0	0	8211	724312	0	0
2024-05-01 12:40:32			0	34725	0	0	0	17072	15730	148427	27594	957727	38229	106188	0	0	8211	724207	0	0
2024-05-01 12:41:32			0	34729	0	0	0	17075	15730	148459	27762	957700	38229	106189	0	0	8211	724015	0	0
2024-05-01 12:42:32			0	34737	0	0	0	17070	15740	148507	27424	957690	38231	106187	0	0	8211	723593	0	0
2024-05-01 12:43:32			0	34715	0	0	0	17075	15740	148435	27644	957761	38230	106189	0	0	8210	724647	0	0
2024-05-01 12:44:32			0	34736	0	0	0	17072	15730	148499	27590	957692	38229	106188	0	0	8211	723680	0	0
2024-05-01 12:45:32			0	34732	0	0	0	17064	15740	148443	27859	957796	38231	106185	0	0	8211	723833	0	0
2024-05-01 12:46:32			0	34728	0	0	0	17072	15740	148431	27710	957690	38231	106188	0	0	8211	724024	0	0
2024-05-01 12:47:32			0	34762	0	0	0	17070	15740	148295	27809	957735	38219	106187	0	0	8213	722397	0	0
2024-05-01 12:48:32			0	34738	0	0	0	17080	15730	148243	27916	957700	38229	106191	0	0	8211	723584	0	0
2024-05-01 12:49:32			0	34754	0	0	0	17057	15740	148235	27784	957717	38220	106182	0	0	8213	722780	0	0
2024-05-01 12:50:32			0	34786	0	0	0	17049	15730	148195	27724	957674	38229	106179	0	0	8214	721289	0	0
2024-05-01 12:51:32			0	34768	0	0	0	17033	15720	148143	27486	957684	38218	106173	0	0	8214	722188	0	0
2024-05-01 12:52:32			0	34787	0	0	0	17028	15730	148067	28154	957700	38218	106171	0	0	8215	721241	0	0
2024-05-01 12:53:32			0	34792	0	0	0	17020	15730	148155	27840	957666	38229	106168	0	0	8215	721003	0	0
2024-05-01 12:54:32			0	34802	0	0	0	17031	15720	148099	27564	957658	38208	106172	0	0	8216	720564	0	0
2024-05-01 12:55:32			0	34806	0	0	0	17033	15720	148063	27426	957605	38208	106173	0	0	8216	720373	0	0
2024-05-01 12:56:32			0	34784	0	0	0	17018	15720	148119	27850	957597	38217	106167	0	0	8215	721424	0	0
2024-05-01 12:57:32			0	34797	0	0	0	17028	15710	148151	27652	957641	38217	106171	0	0	8215	720842	0	0
2024-05-01 12:58:32			0	34786	0	0	0	17031	15720	148191	27582	957597	38217	106172	0	0	8215	721328	0	0
2024-05-01 12:59:32			0	34775	0	0	0	17025	15710	148223	27826	957641	38195	106170	0	0	8214	721892	0	0
2024-05-01 13:00:32			0	34762	0	0	0	17020	15710	148247	27933	957581	38228	106168	0	0	8214	722514	0	0
2024-05-01 13:01:32			0	34751	0	0	0	17025	15700	148339	27675	957538	38216	106170	0	0	8213	723079	0	0
2024-05-01 13:02:32			0	34732	0	0	0	17002	15700	148331	27507	957564	38216	106161	0	0	8212	723989	0	0
2024-05-01 13:03:32			0	34711	0	0	0	16999	15700	148415	27992	957564	38227	106160	0	0	8211	724995	0	0
2024-05-01 13:04:32			0	34708	0	0	0	16999	15690	148547	27575	957530	38215	106160	0	0	8211	725178	0	0
2024-05-01 13:05:32			0	34701	0	0	0	16992	15690	148527	28083	957469	38215	106157	0	0	8210	725514	0	0
2024-05-01 13:06:32			0	34657	0	0	0	16999	15680	148695	27706	957461	38215	106160	0	0	8208	727666	0	0
2024-05-01 13:07:32			0	34650	0	0	0	16997	15680	148771	27571	957453	38214	106159	0	0	8207	728003	0	0
2024-05-01 13:08:32			0	34620	0	0	0	16997	15670	148743	27751	957463	38223	106159	0	0	8206	729486	0	0
2024-05-01 13:09:32			0	34601	0	0	0	16999	15680	148855	27594	957479	38204	106160	0	0	8205	730363	0	0
2024-05-01 13:10:32			0	34573	0	0	0	16999	15660	149043	27568	957446	38202	106160	0	0	8203	731793	0	0
2024-05-01 13:11:32			0	34558	0	0	0	17002	15680	149175	27791	957505	38214	106161	0	0	8202	732439	0	0
2024-05-01 13:12:32			0	34551	0	0	0	16994	15670	149107	27731	957471	38203	106158	0	0	8202	732816	0	0
2024-05-01 13:13:32			0	34550	0	0	0	16994	15670	149215	27713	957436	38212	106158	0	0	8202	732865	0	0
2024-05-01 13:14:32			0	34524	0	0	0	16997	15670	149287	27909	957410	38212	106159	0	0	8200	734122	0	0
2024-05-01 13:15:32			0	34506	0	0	0	16997	15670	149403	28100	957436	38223	106159	0	0	8199	734994	0	0
2024-05-01 13:16:32			0	34492	0	0	0	17002	15670	149391	27500	957436	38212	106161	0	0	8198	735673	0	0
2024-05-01 13:17:32			0	34472	0	0	0	16999	15660	149479	27902	957376	38202	106160	0	0	8197	736683	0	0
2024-05-01 13:18:32			0	34480	0	0	0	17002	15650	149547	27829	957438	38211	106161	0	0	8198	736334	0	0
2024-05-01 13:19:32			0	34467	0	0	0	16992	15650	149563	27573	957386	38211	106157	0	0	8197	736965	0	0
2024-05-01 13:20:32			0	34454	0	0	0	16997	15660	149659	27569	957394	38223	106159	0	0	8196	737557	0	0
2024-05-01 13:21:32			0	34445	0	0	0	16999	15660	149623	27737	957428	38223	106160	0	0	8196	737994	0	0
2024-05-01 13:22:32			0	34419	0	0	0	17005	15660	149767	27821	957402	38212	106162	0	0	8194	739259	0	0
2024-05-01 13:23:32			0	34419	0	0	0	16999	15660	149827	27668	957428	38212	106160	0	0	8194	739259	0	0
2024-05-01 13:24:32			0	34410	0	0	0	17002	15650	149831	27895	957351	38222	106161	0	0	8194	739737	0	0
2024-05-01 13:25:32			0	34392	0	0	0	16997	15650	149939	27956	957386	38223	106159	0	0	8193	740614	0	0
2024-05-01 13:26:32			0	34380	0	0	0	16997	15650	149963	27753	957430	38233	106159	0	0	8192	741199	0	0
2024-05-01 13:27:32			0	34364	0	0	0	17002	15650	149987	27933	957430	38211	106161	0	0	8191	741980	0	0
2024-05-01 13:28:32			0	34355	0	0	0	16999	15650	149983	27711	957438	38211	106160	0	0	8190	742419	0	0
2024-05-01 13:29:32			0	34345	0	0	0	17005	15650	150102	27464	957465	38211	106162	0	0	8190	742908	0	0
2024-05-01 13:30:32			0	34352	0	0	0	17015	15650	150014	28025	957386	38223	106166	0	0	8190	742566	0	0
2024-05-01 13:31:32			0	34351	0	0	0	17010	15640	150103	27835	957396	38201	106164	0	0	8190	742654	0	0
2024-05-01 13:32:32			0	34353	0	0	0	17012	15660	150159	28110	957473	38212	106165	0	0	8190	742477	0	0
2024-05-01 13:33:32			0	34327	0	0	0	17010	15650	150242	27984	957412	38223	106164	0	0	8189	743788	0	0
2024-05-01 13:34:32			0	34313	0	0	0	17007	15660	150254	27809	957525	38212	106163	0	0	8188	744432	0	0
2024-05-01 13:35:32			0	34340	0	0	0	17025	15660	150210	28011	957446	38212	106170	0	0	8189	743112	0	0
2024-05-01 13:36:32			0	34313	0	0	0	17015	15650	150142	27562	957438	38211	106166	0	0	8188	744472	0	0
2024-05-01 13:37:32			0	34295	0	0	0	17020	15660	150246	27762	957394	38212	106168	0	0	8187	745314	0	0
2024-05-01 13:38:32			0	34334	0	0	0	17031	15660	150190	27502	957446	38223	106172	0	0	8189	743405	0	0
2024-05-01 13:39:32			0	34302	0	0	0	17038	15670	150382	28005	957489	38212	106175	0	0	8187	744931	0	0
2024-05-01 13:40:32			0	34293	0	0	0	17064	15670	150378	27831	957568	38235	106185	0	0	8186	745372	0	0
2024-05-01 13:41:32			0	34299	0	0	0	17148	15680	150398	27838	957690	38236	106217	0	0	8185	745038	0	0
2024-05-01 13:42:32			0	34288	0	0	0	17194	15690	150450	28029	957740	38248	106235	0	0	8183	745536	0	0
2024-05-01 13:43:32			0	34290	0	0	0	17212	15720	150450	27564	957913	38240	106242	0	0	8183	745318	0	0
2024-05-01 13:44:32			0	34303	0	0	0	17223	15720	150426	27535	957947	38251	106246	0	0	8184	744681	0	0
2024-05-01 13:45:32			0	34303	0	0	0	17210	15750	150290	27871	957997	38253	106241	0	0	8184	744561	0	0
2024-05-01 13:46:32			0	34296	0	0	0	17212	15770	150282	28098	958048	38255	106242	0	0	8184	744823	0	0
2024-05-01 13:47:32			0	34303	0	0	0	17270	15780	150270	27789	958098	38246	106264	0	0	8183	744440	0	0
2024-05-01 13:48:32			0	34311	0	0	0	17262	15790	150322	27597	958159	38256	106261	0	0	8184	744009	0	0
2024-05-01 13:49:32			0	34290	0	0	0	17275	15800	150326	27791	958184	38247	106266	0	0	8183	744996	0	0
2024-05-01 13:50:32			0	34288	0	0	0	17277	15820	150318	27680	958261	38259	106267	0	0	8183	745014	0	0
2024-05-01 13:51:32			0	34306	0	0	0	17296	15830	150294	27762	958303	38260	106274	0	0	8183	744093	0	0
2024-05-01 13:52:32			0	34304	0	0	0	17332	15830	150194	27673	958338	38261	106288	0	0	8183	744191	0	0
2024-05-01 13:53:32			0	34329	0	0	0	17340	15850	150150	27777	958397	38274	106291	0	0	8184	742889	0	0
2024-05-01 13:54:32			0	34314	0	0	0	17322	15860	150098	27502	958484	38274	106284	0	0	8184	743582	0	0
2024-05-01 13:55:32			0	34321	0	0	0	17322	15880	150046	27497	958456	38264	106284	0	0	8184	743160	0	0
2024-05-01 13:56:32			0	34334	0	0	0	17306	15880	150046	27623	958464	38265	106278	0	0	8185	742525	0	0
2024-05-01 13:57:32			0	34338	0	0	0	17324	15880	149926	27826	958491	38265	106285	0	0	8185	742329	0	0
2024-05-01 13:58:32			0	34364	0	0	0	17329	15900	149959	27547	958515	38245	106287	0	0	8187	740981	0	0
2024-05-01 13:59:32			0	34353	0	0	0	17332	15900	149911	27575	958515	38266	106288	0	0	8186	741517	0	0
2024-05-01 14:00:32			0	34342	0	0	0	17329	15910	149970	27854	958532	38256	106287	0	0	8185	742014	0	0
2024-05-01 14:01:32			0	34333	0	0	0	17316	15910	150022	27448	958558	38256	106282	0	0	8185	742453	0	0
2024-05-01 14:02:32			0	34313	0	0	0	17329	15930	150146	27426	958564	38247	106287	0	0	8184	743350	0	0
2024-05-01 14:03:32			0	34304	0	0	0	17316	15920	150142	27512	958635	38268	106282	0	0	8183	743830	0	0
2024-05-01 14:04:32			0	34280	0	0	0	17290	15920	150210	27497	958503	38257	106272	0	0	8182	745004	0	0
2024-05-01 14:05:32			0	34277	0	0	0	17290	15930	150398	27913	958538	38257	106272	0	0	8182	745111	0	0
2024-05-01 14:06:32			0	34243	0	0	0	17288	15930	150394	27455	958538	38268	106271	0	0	8180	746777	0	0
2024-05-01 14:07:32			0	34242	0	0	0	17277	15930	150430	27890	958520	38247	106267	0	0	8181	746826	0	0
2024-05-01 14:08:32			0	34222	0	0	0	17293	15930	150526	27788	958511	38257	106273	0	0	8179	747807	0	0
2024-05-01 14:09:32			0	34242	0	0	0	17298	15910	150542	27421	958513	38256	106275	0	0	8180	746906	0	0
2024-05-01 14:10:32			0	34220	0	0	0	17288	15940	150410	27592	958501	38258	106271	0	0	8179	747865	0	0
2024-05-01 14:11:32			0	34249	0	0	0	17301	15940	150466	27490	958580	38269	106276	0	0	8181	746442	0	0
2024-05-01 14:12:32			0	34249	0	0	0	17303	15930	150462	27575	958511	38257	106277	0	0	8181	746483	0	0
2024-05-01 14:13:32			0	34248	0	0	0	17309	15930	150478	27488	958572	38257	106279	0	0	8180	746532	0	0
2024-05-01 14:14:32			0	34232	0	0	0	17311	15940	150470	27270	958580	38258	106280	0	0	8179	747276	0	0
2024-05-01 14:15:32			0	34232	0	0	0	17306	15940	150478	27381	958580	38280	106278	0	0	8180	747276	0	0
2024-05-01 14:16:32			0	34232	0	0	0	17316	15940	150414	27507	958562	38259	106282	0	0	8179	747276	0	0
2024-05-01 14:17:32			0	34226	0	0	0	17319	15950	150498	27417	958650	38259	106283	0	0	8179	747530	0	0
2024-05-01 14:18:32			0	34223	0	0	0	17319	15950	150522	27614	958597	38249	106283	0	0	8179	747678	0	0
2024-05-01 14:19:32			0	34206	0	0	0	17311	15950	150574	27822	958544	38270	106280	0	0	8178	748512	0	0
2024-05-01 14:20:32			0	34198	0	0	0	17306	15950	150482	27400	958650	38259	106278	0	0	8178	748905	0	0
2024-05-01 14:21:32			0	34203	0	0	0	17303	15960	150642	27696	958560	38271	106277	0	0	8178	748619	0	0
2024-05-01 14:22:32			0	34200	0	0	0	17306	15950	150554	27796	958650	38259	106278	0	0	8178	748807	0	0
2024-05-01 14:23:32			0	34206	0	0	0	17324	15950	150570	27512	958544	38270	106285	0	0	8178	748512	0	0
2024-05-01 14:24:32			0	34192	0	0	0	17314	15950	150682	27653	958605	38250	106281	0	0	8177	749200	0	0
2024-05-01 14:25:32			0	34188	0	0	0	17311	15950	150602	27343	958579	38271	106280	0	0	8177	749397	0	0
2024-05-01 14:26:32			0	34193	0	0	0	17311	15950	150682	27568	958570	38249	106280	0	0	8177	749151	0	0
2024-05-01 14:27:32			0	34178	0	0	0	17319	15950	150706	27665	958597	38270	106283	0	0	8176	749889	0	0
2024-05-01 14:28:32			0	34178	0	0	0	17324	15950	150658	27357	958597	38259	106285	0	0	8176	749889	0	0
2024-05-01 14:29:32			0	34213	0	0	0	17316	15950	150590	27419	958658	38239	106282	0	0	8178	748168	0	0
2024-05-01 14:30:32			0	34210	0	0	0	17311	15950	150574	27620	958631	38260	106280	0	0	8178	748316	0	0
2024-05-01 14:31:32			0	34214	0	0	0	17322	15950	150550	27403	958631	38250	106284	0	0	8178	748119	0	0
2024-05-01 14:32:32			0	34216	0	0	0	17316	15950	150606	27594	958623	38238	106282	0	0	8178	748021	0	0
2024-05-01 14:33:32			0	34238	0	0	0	17327	15960	150494	27760	958666	38271	106286	0	0	8180	746901	0	0
2024-05-01 14:34:32			0	34237	0	0	0	17319	15960	150378	27305	958569	38272	106283	0	0	8180	746950	0	0
2024-05-01 14:35:32			0	34256	0	0	0	17316	15970	150330	27320	958629	38261	106282	0	0	8181	745979	0	0
2024-05-01 14:36:32			0	34275	0	0	0	17329	15950	150230	27400	958676	38270	106287	0	0	8182	745128	0	0
2024-05-01 14:37:32			0	34290	0	0	0	17322	15960	150222	27711	958692	38260	106284	0	0	8183	744354	0	0
2024-05-01 14:38:32			0	34303	0	0	0	17322	15970	150142	27580	958656	38250	106284	0	0	8183	743678	0	0
2024-05-01 14:39:32			0	34313	0	0	0	17337	15970	150034	27488	958638	38261	106290	0	0	8184	743190	0	0
2024-05-01 14:40:32			0	34329	0	0	0	17327	15970	149922	27703	958743	38261	106286	0	0	8185	742408	0	0
2024-05-01 14:41:32			0	34338	0	0	0	17332	15980	149958	27332	958725	38273	106288	0	0	8185	741929	0	0
2024-05-01 14:42:32			0	34338	0	0	0	17337	15970	149902	27578	958761	38272	106290	0	0	8185	741969	0	0
2024-05-01 14:43:32			0	34336	0	0	0	17332	15960	149862	27932	958700	38261	106288	0	0	8185	742107	0	0
2024-05-01 14:44:32			0	34375	0	0	0	17337	15970	149887	27575	958743	38261	106290	0	0	8187	740165	0	0
2024-05-01 14:45:32			0	34362	0	0	0	17332	15970	149811	27746	958717	38273	106288	0	0	8187	740799	0	0
2024-05-01 14:46:32			0	34371	0	0	0	17335	15970	149811	27471	958743	38284	106289	0	0	8187	740360	0	0
2024-05-01 14:47:32			0	34359	0	0	0	17319	15970	149899	27599	958743	38261	106283	0	0	8187	740945	0	0
2024-05-01 14:48:32			0	34371	0	0	0	17322	15980	149787	27576	958751	38261	106284	0	0	8187	740320	0	0
2024-05-01 14:49:32			0	34369	0	0	0	17327	15980	149871	27628	958707	38262	106286	0	0	8187	740418	0	0
2024-05-01 14:50:32			0	34371	0	0	0	17319	15970	149843	27371	958743	38261	106283	0	0	8187	740360	0	0
2024-05-01 14:51:32			0	34353	0	0	0	17324	15970	149791	27706	958717	38261	106285	0	0	8186	741237	0	0
2024-05-01 14:52:32			0	34360	0	0	0	17319	15970	149827	27478	958717	38250	106283	0	0	8187	740896	0	0
2024-05-01 14:53:32			0	34366	0	0	0	17324	15980	149895	27665	958646	38273	106285	0	0	8187	740564	0	0
2024-05-01 14:54:32			0	34346	0	0	0	17324	15980	149851	27429	958759	38273	106285	0	0	8186	741539	0	0
2024-05-01 14:55:32			0	34341	0	0	0	17335	15970	149966	27524	958690	38273	106289	0	0	8185	741823	0	0
2024-05-01 14:56:32			0	34335	0	0	0	17329	15980	150038	27360	958778	38261	106287	0	0	8185	742075	0	0
2024-05-01 14:57:32			0	34343	0	0	0	17340	15980	150026	27488	958733	38273	106291	0	0	8186	741685	0	0
2024-05-01 14:58:32			0	34338	0	0	0	17348	15970	149938	27313	958796	38273	106294	0	0	8185	741969	0	0
2024-05-01 14:59:32			0	34353	0	0	0	17342	15970	149967	27538	958743	38261	106292	0	0	8186	741237	0	0
2024-05-01 15:00:32			0	34340	0	0	0	17327	15990	149858	27599	958688	38263	106286	0	0	8186	741791	0	0
2024-05-01 15:01:32			0	34351	0	0	0	17329	15980	149871	27614	958759	38273	106287	0	0	8186	741295	0	0
2024-05-01 15:02:32			0	34342	0	0	0	17337	15980	149922	27124	958751	38273	106290	0	0	8186	741734	0	0
2024-05-01 15:03:32			0	34345	0	0	0	17319	15970	149794	27320	958717	38261	106283	0	0	8186	741627	0	0
2024-05-01 15:04:32			0	34325	0	0	0	17327	15970	149902	27353	958717	38273	106286	0	0	8185	742604	0	0
2024-05-01 15:05:32			0	34352	0	0	0	17303	15970	149851	27852	958690	38261	106277	0	0	8187	741286	0	0
2024-05-01 15:06:32			0	34357	0	0	0	17319	15960	149787	27838	958595	38272	106283	0	0	8187	741082	0	0
2024-05-01 15:07:32			0	34365	0	0	0	17309	15980	149835	27621	958646	38261	106279	0	0	8187	740613	0	0
2024-05-01 15:08:32			0	34349	0	0	0	17316	15970	149854	27651	958717	38261	106282	0	0	8186	741433	0	0
2024-05-01 15:09:32			0	34356	0	0	0	17316	15970	149855	27843	958611	38261	106282	0	0	8187	741091	0	0
2024-05-01 15:10:32			0	34361	0	0	0	17303	15960	149831	27627	958648	38261	106277	0	0	8187	740887	0	0
2024-05-01 15:11:32			0	34344	0	0	0	17306	15970	149806	27689	958690	38261	106278	0	0	8186	741676	0	0
2024-05-01 15:12:32			0	34355	0	0	0	17306	15970	149847	27954	958656	38250	106278	0	0	8187	741140	0	0
2024-05-01 15:13:32			0	34363	0	0	0	17293	15960	149863	27706	958621	38261	106273	0	0	8187	740790	0	0
2024-05-01 15:14:32			0	34351	0	0	0	17296	15960	149851	27904	958639	38271	106274	0	0	8187	741375	0	0
2024-05-01 15:15:32			0	34360	0	0	0	17288	15950	149999	27642	958658	38260	106271	0	0	8187	740976	0	0
2024-05-01 15:16:32			0	34343	0	0	0	17296	15960	149786	27362	958613	38271	106274	0	0	8186	741765	0	0
2024-05-01 15:17:32			0	34354	0	0	0	17290	15960	149927	27338	958613	38260	106272	0	0	8187	741229	0	0
2024-05-01 15:18:32			0	34342	0	0	0	17298	15950	150070	27518	958579	38260	106275	0	0	8186	741854	0	0
2024-05-01 15:19:32			0	34320	0	0	0	17277	15960	150030	27585	958613	38250	106267	0	0	8185	742888	0	0
2024-05-01 15:20:32			0	34326	0	0	0	17296	15950	149974	27538	958623	38259	106274	0	0	8185	742635	0	0
2024-05-01 15:21:32			0	34314	0	0	0	17296	15950	149986	27942	958570	38259	106274	0	0	8184	743221	0	0
2024-05-01 15:22:32			0	34319	0	0	0	17288	15950	150030	27784	958650	38259	106271	0	0	8185	742977	0	0
2024-05-01 15:23:32			0	34309	0	0	0	17293	15950	150018	27741	958597	38259	106273	0	0	8184	743465	0	0
2024-05-01 15:24:32			0	34308	0	0	0	17293	15960	149994	27928	958613	38271	106273	0	0	8184	743474	0	0
2024-05-01 15:25:32			0	34297	0	0	0	17293	15940	150066	27696	958633	38258	106273	0	0	8183	744092	0	0
2024-05-01 15:26:32			0	34289	0	0	0	17290	15960	150066	27985	958700	38261	106272	0	0	8183	744403	0	0
2024-05-01 15:27:32			0	34275	0	0	0	17290	15940	150122	27750	958641	38270	106272	0	0	8182	745169	0	0
2024-05-01 15:28:32			0	34276	0	0	0	17293	15950	150146	27873	958605	38260	106273	0	0	8182	745079	0	0
2024-05-01 15:29:32			0	34257	0	0	0	17283	15950	150194	27729	958650	38270	106269	0	0	8181	746010	0	0
2024-05-01 15:30:32			0	34249	0	0	0	17285	15950	150274	27542	958650	38249	106270	0	0	8181	746402	0	0
2024-05-01 15:31:32			0	34263	0	0	0	17293	15940	150394	27826	958589	38259	106273	0	0	8182	745756	0	0
2024-05-01 15:32:32			0	34228	0	0	0	17296	15940	150338	27609	958554	38258	106274	0	0	8179	747472	0	0
2024-05-01 15:33:32			0	34214	0	0	0	17298	15940	150382	27473	958580	38269	106275	0	0	8179	748160	0	0
2024-05-01 15:34:32			0	34210	0	0	0	17296	15940	150534	27350	958589	38249	106274	0	0	8178	748356	0	0
2024-05-01 15:35:32			0	34171	0	0	0	17285	15940	150522	27814	958562	38270	106270	0	0	8176	750274	0	0
2024-05-01 15:36:32			0	34179	0	0	0	17288	15940	150698	27939	958580	38258	106271	0	0	8177	749880	0	0
2024-05-01 15:37:32			0	34145	0	0	0	17296	15940	150726	27374	958528	38248	106274	0	0	8175	751554	0	0
2024-05-01 15:38:32			0	34141	0	0	0	17290	15930	150718	27609	958546	38247	106272	0	0	8175	751792	0	0
2024-05-01 15:39:32			0	34138	0	0	0	17280	15940	150754	27689	958580	38248	106268	0	0	8175	751900	0	0
2024-05-01 15:40:32			0	34129	0	0	0	17285	15930	150802	27550	958520	38257	106270	0	0	8174	752384	0	0
2024-05-01 15:41:32			0	34126	0	0	0	17267	15930	150842	27862	958485	38257	106263	0	0	8174	752532	0	0
2024-05-01 15:42:32			0	34131	0	0	0	17259	15930	150750	27812	958493	38257	106260	0	0	8174	752285	0	0
2024-05-01 15:43:32			0	34122	0	0	0	17249	15920	150782	27907	958503	38247	106256	0	0	8174	752770	0	0
2024-05-01 15:44:32			0	34132	0	0	0	17251	15920	150826	27762	958451	38247	106257	0	0	8175	752277	0	0
2024-05-01 15:45:32			0	34125	0	0	0	17244	15910	150814	27895	958461	38245	106254	0	0	8174	752662	0	0
2024-05-01 15:46:32			0	34120	0	0	0	17241	15910	150794	27381	958453	38256	106253	0	0	8174	752909	0	0
2024-05-01 15:47:32			0	34122	0	0	0	17251	15910	150734	27440	958487	38256	106257	0	0	8174	752810	0	0
2024-05-01 15:48:32			0	34126	0	0	0	17246	15910	150818	27462	958400	38256	106255	0	0	8174	752613	0	0
2024-05-01 15:49:32			0	34120	0	0	0	17241	15900	150910	27537	958410	38255	106253	0	0	8174	752950	0	0
2024-05-01 15:50:32			0	34133	0	0	0	17246	15900	150862	27746	958383	38255	106255	0	0	8175	752308	0	0
2024-05-01 15:51:32			0	34117	0	0	0	17251	15900	150806	27433	958410	38245	106257	0	0	8174	753098	0	0
2024-05-01 15:52:32			0	34125	0	0	0	17254	15890	150786	27426	958402	38265	106258	0	0	8174	752744	0	0
2024-05-01 15:53:32			0	34094	0	0	0	17259	15900	150950	27731	958392	38267	106260	0	0	8172	754234	0	0
2024-05-01 15:54:32			0	34107	0	0	0	17259	15900	150906	27568	958392	38256	106260	0	0	8173	753592	0	0
2024-05-01 15:55:32			0	34098	0	0	0	17249	15890	150950	27670	958393	38254	106256	0	0	8173	754077	0	0
2024-05-01 15:56:32			0	34115	0	0	0	17244	15900	150822	27479	958436	38255	106254	0	0	8174	753197	0	0
2024-05-01 15:57:32			0	34107	0	0	0	17241	15900	150854	27352	958357	38255	106253	0	0	8173	753592	0	0
2024-05-01 15:58:32			0	34108	0	0	0	17254	15890	150890	27814	958375	38254	106258	0	0	8173	753583	0	0
2024-05-01 15:59:32			0	34121	0	0	0	17259	15890	150978	27779	958402	38265	106260	0	0	8174	752941	0	0
2024-05-01 16:00:32			0	34106	0	0	0	17259	15890	150878	27409	958375	38265	106260	0	0	8173	753682	0	0
2024-05-01 16:01:32			0	34117	0	0	0	17249	15890	150878	27402	958393	38254	106256	0	0	8174	753138	0	0
2024-05-01 16:02:32			0	34095	0	0	0	17244	15890	150922	27673	958420	38265	106254	0	0	8172	754225	0	0
2024-05-01 16:03:32			0	34117	0	0	0	17249	15880	150838	27653	958385	38254	106256	0	0	8174	753179	0	0
2024-05-01 16:04:32			0	34122	0	0	0	17249	15880	150838	27739	958351	38243	106256	0	0	8174	752932	0	0
2024-05-01 16:05:32			0	34126	0	0	0	17254	15890	150898	27360	958393	38254	106258	0	0	8174	752694	0	0
2024-05-01 16:06:32			0	34110	0	0	0	17254	15880	150938	27623	958385	38254	106258	0	0	8173	753525	0	0
2024-05-01 16:07:32			0	34121	0	0	0	17249	15880	150926	27199	958412	38265	106256	0	0	8174	752982	0	0
2024-05-01 16:08:32			0	34115	0	0	0	17249	15890	150882	27540	958446	38265	106256	0	0	8174	753237	0	0
2024-05-01 16:09:32			0	34119	0	0	0	17254	15880	150850	27331	958333	38254	106258	0	0	8174	753080	0	0
2024-05-01 16:10:32			0	34125	0	0	0	17259	15890	150754	27554	958367	38265	106260	0	0	8174	752744	0	0
2024-05-01 16:11:32			0	34152	0	0	0	17259	15880	150838	27479	958359	38265	106260	0	0	8175	751453	0	0
2024-05-01 16:12:32			0	34139	0	0	0	17270	15880	150866	27454	958333	38265	106264	0	0	8174	752094	0	0
2024-05-01 16:13:32			0	34141	0	0	0	17259	15890	150830	27689	958420	38265	106260	0	0	8175	751954	0	0
2024-05-01 16:14:32			0	34140	0	0	0	17254	15880	150806	27783	958333	38265	106258	0	0	8175	752044	0	0
2024-05-01 16:15:32			0	34158	0	0	0	17270	15900	150742	27256	958410	38255	106264	0	0	8176	751076	0	0
2024-05-01 16:16:32			0	34152	0	0	0	17267	15880	150674	27282	958333	38276	106263	0	0	8175	751453	0	0
2024-05-01 16:17:32			0	34155	0	0	0	17246	15890	150794	27564	958341	38233	106255	0	0	8176	751264	0	0
2024-05-01 16:18:32			0	34166	0	0	0	17267	15890	150674	27514	958393	38265	106263	0	0	8176	750722	0	0
2024-05-01 16:19:32			0	34155	0	0	0	17264	15880	150778	27459	958385	38254	106262	0	0	8176	751305	0	0
2024-05-01 16:20:32			0	34154	0	0	0	17259	15880	150718	27659	958306	38254	106260	0	0	8176	751354	0	0
2024-05-01 16:21:32			0	34152	0	0	0	17249	15890	150714	27274	958341	38265	106256	0	0	8176	751412	0	0
2024-05-01 16:22:32			0	34163	0	0	0	17246	15880	150762	27275	958385	38265	106255	0	0	8176	750911	0	0
2024-05-01 16:23:32			0	34133	0	0	0	17244	15880	150834	27249	958377	38264	106254	0	0	8175	752389	0	0
2024-05-01 16:24:32			0	34143	0	0	0	17236	15880	150830	27232	958333	38265	106251	0	0	8175	751896	0	0
2024-05-01 16:25:32			0	34144	0	0	0	17233	15880	150802	27625	958351	38264	106250	0	0	8175	751847	0	0
2024-05-01 16:26:32			0	34128	0	0	0	17220	15880	150822	27635	958377	38253	106245	0	0	8175	752636	0	0
2024-05-01 16:27:32			0	34117	0	0	0	17228	15860	150894	27457	958282	38251	106248	0	0	8174	753260	0	0
2024-05-01 16:28:32			0	34133	0	0	0	17238	15880	150954	27582	958351	38275	106252	0	0	8175	752389	0	0
2024-05-01 16:29:32			0	34109	0	0	0	17218	15860	151010	27372	958352	38251	106244	0	0	8174	753655	0	0
2024-05-01 16:30:32			0	34100	0	0	0	17233	15860	150998	27682	958273	38262	106250	0	0	8173	754100	0	0
2024-05-01 16:31:32			0	34105	0	0	0	17225	15870	151062	27365	958316	38252	106247	0	0	8173	753812	0	0
2024-05-01 16:32:32			0	34089	0	0	0	17228	15870	150986	27578	958290	38252	106248	0	0	8172	754603	0	0
2024-05-01 16:33:32			0	34086	0	0	0	17223	15860	151090	27376	958300	38262	106246	0	0	8172	754792	0	0
2024-05-01 16:34:32			0	34075	0	0	0	17223	15860	151086	27327	958282	38251	106246	0	0	8171	755336	0	0
2024-05-01 16:35:32			0	34067	0	0	0	17246	15880	151074	27441	958377	38275	106255	0	0	8171	755651	0	0
2024-05-01 16:36:32			0	34067	0	0	0	17233	15860	151038	27592	958247	38251	106250	0	0	8171	755732	0	0
2024-05-01 16:37:32			0	34074	0	0	0	17225	15860	151202	27284	958361	38251	106247	0	0	8171	755386	0	0
2024-05-01 16:38:32			0	34058	0	0	0	17238	15860	151202	27277	958334	38251	106252	0	0	8170	756178	0	0
2024-05-01 16:39:32			0	34067	0	0	0	17233	15870	151182	27684	958237	38263	106250	0	0	8171	755692	0	0
2024-05-01 16:40:32			0	34076	0	0	0	17244	15860	151194	27227	958308	38262	106254	0	0	8171	755287	0	0
2024-05-01 16:41:32			0	34058	0	0	0	17257	15880	151286	27258	958351	38253	106259	0	0	8170	756097	0	0
2024-05-01 16:42:32			0	34055	0	0	0	17275	15870	151230	27511	958395	38263	106266	0	0	8170	756286	0	0
2024-05-01 16:43:32			0	34047	0	0	0	17267	15880	151202	27462	958404	38264	106263	0	0	8169	756642	0	0
2024-05-01 16:44:32			0	34046	0	0	0	17257	15870	151286	27642	958395	38263	106259	0	0	8169	756732	0	0
2024-05-01 16:45:32			0	34046	0	0	0	17264	15880	151238	27229	958385	38276	106262	0	0	8169	756691	0	0
2024-05-01 16:46:32			0	34060	0	0	0	17257	15890	151370	27230	958393	38254	106259	0	0	8170	755957	0	0
2024-05-01 16:47:32			0	34060	0	0	0	17257	15880	151266	27481	958385	38265	106259	0	0	8170	755998	0	0
2024-05-01 16:48:32			0	34065	0	0	0	17264	15880	151246	27227	958306	38254	106262	0	0	8170	755750	0	0
2024-05-01 16:49:32			0	34058	0	0	0	17259	15880	151258	27460	958412	38254	106260	0	0	8170	756097	0	0
2024-05-01 16:50:32			0	34051	0	0	0	17262	15880	151178	27255	958412	38233	106261	0	0	8170	756443	0	0
2024-05-01 16:51:32			0	34060	0	0	0	17259	15880	151270	27398	958412	38276	106260	0	0	8170	755998	0	0
2024-05-01 16:52:32			0	34076	0	0	0	17251	15880	151266	27379	958412	38265	106257	0	0	8171	755206	0	0
2024-05-01 16:53:32			0	34076	0	0	0	17262	15880	151270	27365	958438	38244	106261	0	0	8171	755206	0	0
2024-05-01 16:54:32			0	34067	0	0	0	17262	15880	151186	27251	958333	38254	106261	0	0	8170	755651	0	0
2024-05-01 16:55:32			0	34077	0	0	0	17259	15880	151166	27119	958377	38264	106260	0	0	8171	755156	0	0
2024-05-01 16:56:32			0	34062	0	0	0	17262	15880	151290	27066	958333	38276	106261	0	0	8170	755899	0	0
2024-05-01 16:57:32			0	34068	0	0	0	17259	15890	151182	27516	958393	38254	106260	0	0	8171	755561	0	0
2024-05-01 16:58:32			0	34068	0	0	0	17264	15880	151182	27485	958385	38265	106262	0	0	8170	755601	0	0
2024-05-01 16:59:32			0	34059	0	0	0	17254	15890	151226	27398	958375	38254	106258	0	0	8170	756006	0	0
2024-05-01 17:00:32			0	34075	0	0	0	17262	15880	151262	27315	958359	38254	106261	0	0	8171	755255	0	0
2024-05-01 17:01:32			0	34052	0	0	0	17275	15880	151282	27663	958412	38254	106266	0	0	8169	756394	0	0
2024-05-01 17:02:32			0	34067	0	0	0	17277	15890	151250	27272	958428	38265	106267	0	0	8170	755610	0	0
2024-05-01 17:03:32			0	34056	0	0	0	17290	15890	151298	27171	958473	38265	106272	0	0	8169	756155	0	0
2024-05-01 17:04:32			0	34041	0	0	0	17296	15900	151334	27229	958523	38256	106274	0	0	8168	756857	0	0
2024-05-01 17:05:32			0	34043	0	0	0	17296	15900	151266	27371	958568	38266	106274	0	0	8169	756758	0	0
2024-05-01 17:06:32			0	34034	0	0	0	17293	15910	151314	27199	958505	38267	106273	0	0	8168	757163	0	0
2024-05-01 17:07:32			0	34053	0	0	0	17303	15910	151286	27159	958479	38278	106277	0	0	8169	756222	0	0
2024-05-01 17:08:32			0	34036	0	0	0	17301	15920	151322	27272	958582	38280	106276	0	0	8168	757024	0	0
2024-05-01 17:09:32			0	34045	0	0	0	17301	15910	151314	27504	958566	38267	106276	0	0	8169	756618	0	0
2024-05-01 17:10:32			0	34053	0	0	0	17303	15920	151290	27268	958530	38268	106277	0	0	8169	756181	0	0
2024-05-01 17:11:32			0	34045	0	0	0	17288	15930	151194	27409	958538	38257	106271	0	0	8169	756537	0	0
2024-05-01 17:12:32			0	34046	0	0	0	17283	15930	151286	27757	958538	38268	106269	0	0	8169	756487	0	0
2024-05-01 17:13:32			0	34038	0	0	0	17285	15920	151278	27415	958495	38268	106270	0	0	8169	756924	0	0
2024-05-01 17:14:32			0	34054	0	0	0	17290	15920	151358	27357	958548	38268	106272	0	0	8169	756132	0	0
2024-05-01 17:15:32			0	34051	0	0	0	17293	15910	151238	27126	958566	38256	106273	0	0	8169	756321	0	0
2024-05-01 17:16:32			0	34054	0	0	0	17290	15910	151342	27067	958461	38256	106272	0	0	8169	756172	0	0
2024-05-01 17:17:32			0	34050	0	0	0	17306	15920	151286	27303	958582	38268	106278	0	0	8169	756330	0	0
2024-05-01 17:18:32			0	34043	0	0	0	17298	15930	151274	27580	958546	38268	106275	0	0	8169	756636	0	0
2024-05-01 17:19:32			0	34043	0	0	0	17301	15920	151402	27248	958521	38279	106276	0	0	8169	756677	0	0
2024-05-01 17:20:32			0	34031	0	0	0	17293	15920	151374	27241	958530	38280	106273	0	0	8168	757271	0	0
2024-05-01 17:21:32			0	34041	0	0	0	17306	15930	151314	27128	958564	38268	106278	0	0	8168	756735	0	0
2024-05-01 17:22:32			0	34022	0	0	0	17329	15910	151426	27197	958566	38256	106287	0	0	8167	757759	0	0
2024-05-01 17:23:32			0	34011	0	0	0	17353	15930	151398	27131	958643	38280	106296	0	0	8166	758223	0	0
2024-05-01 17:24:32			0	34021	0	0	0	17345	15920	151382	27289	958680	38279	106293	0	0	8167	757767	0	0
2024-05-01 17:25:32			0	34005	0	0	0	17322	15940	151358	27123	958686	38258	106284	0	0	8166	758480	0	0
2024-05-01 17:26:32			0	34019	0	0	0	17314	15930	151402	27164	958678	38268	106281	0	0	8167	757826	0	0
2024-05-01 17:27:32			0	34005	0	0	0	17316	15940	151422	27154	958641	38259	106282	0	0	8166	758480	0	0
2024-05-01 17:28:32			0	33999	0	0	0	17329	15940	151554	27275	958668	38281	106287	0	0	8166	758777	0	0
2024-05-01 17:29:32			0	33988	0	0	0	17353	15950	151546	27064	958676	38291	106296	0	0	8165	759283	0	0
2024-05-01 17:30:32			0	33989	0	0	0	17332	15940	151466	27052	958660	38280	106288	0	0	8165	759274	0	0
2024-05-01 17:31:32			0	33963	0	0	0	17322	15960	151546	27315	958700	38283	106284	0	0	8164	760485	0	0
2024-05-01 17:32:32			0	33982	0	0	0	17340	15950	151462	27192	958729	38270	106291	0	0	8165	759581	0	0
2024-05-01 17:33:32			0	33985	0	0	0	17342	15950	151538	27237	958729	38281	106292	0	0	8165	759432	0	0
2024-05-01 17:34:32			0	33972	0	0	0	17329	15960	151558	27409	958666	38282	106287	0	0	8164	760037	0	0
2024-05-01 17:35:32			0	33976	0	0	0	17361	15950	151710	27088	958684	38282	106299	0	0	8164	759879	0	0
2024-05-01 17:36:32			0	33971	0	0	0	17374	15960	151714	27010	958753	38293	106304	0	0	8163	760087	0	0
2024-05-01 17:37:32			0	33971	0	0	0	17376	15960	151650	27196	958779	38283	106305	0	0	8163	760087	0	0
2024-05-01 17:38:32			0	33973	0	0	0	17381	15960	151658	27209	958806	38283	106307	0	0	8163	759988	0	0
2024-05-01 17:39:32			0	33967	0	0	0	17355	15970	151566	27057	958796	38284	106297	0	0	8164	760245	0	0
2024-05-01 17:40:32			0	33983	0	0	0	17350	15970	151658	27310	958735	38283	106295	0	0	8165	759449	0	0
2024-05-01 17:41:32			0	33974	0	0	0	17358	15970	151566	27164	958788	38283	106298	0	0	8164	759897	0	0
2024-05-01 17:42:32			0	33989	0	0	0	17350	15980	151542	27405	958830	38284	106295	0	0	8165	759110	0	0
2024-05-01 17:43:32			0	33989	0	0	0	17368	15980	151626	27395	958830	38273	106302	0	0	8165	759110	0	0
2024-05-01 17:44:32			0	33979	0	0	0	17371	15970	151530	27109	958796	38284	106303	0	0	8164	759648	0	0
2024-05-01 17:45:32			0	33971	0	0	0	17379	15980	151678	27119	958830	38294	106306	0	0	8163	760005	0	0
2024-05-01 17:46:32			0	33974	0	0	0	17363	15980	151590	27332	958812	38273	106300	0	0	8164	759856	0	0
2024-05-01 17:47:32			0	33962	0	0	0	17368	15980	151642	27246	958804	38284	106302	0	0	8163	760452	0	0
2024-05-01 17:48:32			0	33971	0	0	0	17384	15990	151630	27412	958768	38285	106308	0	0	8163	759964	0	0
2024-05-01 17:49:32			0	33960	0	0	0	17368	15980	151650	27234	958812	38295	106302	0	0	8163	760552	0	0
2024-05-01 17:50:32			0	33962	0	0	0	17363	15980	151554	27317	958865	38273	106300	0	0	8163	760452	0	0
2024-05-01 17:51:32			0	33967	0	0	0	17376	15980	151598	27267	958778	38261	106305	0	0	8163	760204	0	0
2024-05-01 17:52:32			0	33959	0	0	0	17353	15980	151766	27414	958865	38285	106296	0	0	8163	760602	0	0
2024-05-01 17:53:32			0	33954	0	0	0	17366	15980	151642	27483	958786	38273	106301	0	0	8163	760851	0	0
2024-05-01 17:54:32			0	33943	0	0	0	17361	15980	151618	27229	958865	38285	106299	0	0	8162	761398	0	0
2024-05-01 17:55:32			0	33947	0	0	0	17358	15980	151742	27166	958786	38273	106298	0	0	8162	761199	0	0
2024-05-01 17:56:32			0	33938	0	0	0	17350	15980	151750	27490	958838	38273	106295	0	0	8162	761647	0	0
2024-05-01 17:57:32			0	33956	0	0	0	17353	15990	151782	27533	958820	38285	106296	0	0	8163	760710	0	0
2024-05-01 17:58:32			0	33953	0	0	0	17389	15990	151698	27180	958802	38307	106310	0	0	8162	760859	0	0
2024-05-01 17:59:32			0	33937	0	0	0	17418	16000	151782	27436	958916	38285	106321	0	0	8161	761615	0	0
2024-05-01 18:00:32			0	33947	0	0	0	17410	15990	151758	27293	958899	38285	106318	0	0	8162	761158	0	0
2024-05-01 18:01:32			0	33954	0	0	0	17410	16000	151842	27253	958942	38285	106318	0	0	8162	760769	0	0
2024-05-01 18:02:32			0	33940	0	0	0	17397	16010	151738	27326	959011	38287	106313	0	0	8161	761424	0	0
2024-05-01 18:03:32			0	33943	0	0	0	17384	15990	151698	27173	958934	38285	106308	0	0	8162	761357	0	0
2024-05-01 18:04:32			0	33948	0	0	0	17386	16010	151718	27319	958940	38287	106309	0	0	8162	761026	0	0
2024-05-01 18:05:32			0	33944	0	0	0	17402	16000	151658	27223	958977	38286	106315	0	0	8162	761266	0	0
2024-05-01 18:06:32			0	33953	0	0	0	17392	16010	151658	27545	958914	38287	106311	0	0	8162	760777	0	0
2024-05-01 18:07:32			0	33948	0	0	0	17384	16010	151634	27170	958959	38287	106308	0	0	8162	761026	0	0
2024-05-01 18:08:32			0	33928	0	0	0	17392	16010	151718	27279	958967	38297	106311	0	0	8161	762022	0	0
2024-05-01 18:09:32			0	33941	0	0	0	17386	16010	151778	27045	958906	38276	106309	0	0	8162	761374	0	0
2024-05-01 18:10:32			0	33927	0	0	0	17379	16020	151798	27441	958949	38288	106306	0	0	8161	762031	0	0
2024-05-01 18:11:32			0	33923	0	0	0	17376	16020	151778	27067	958949	38298	106305	0	0	8161	762230	0	0
2024-05-01 18:12:32			0	33929	0	0	0	17384	16010	151826	27517	958914	38297	106308	0	0	8161	761972	0	0
2024-05-01 18:13:32			0	33925	0	0	0	17399	16010	151854	27436	958967	38297	106314	0	0	8161	762172	0	0
2024-05-01 18:14:32			0	33921	0	0	0	17363	16020	151818	27665	958957	38277	106300	0	0	8161	762330	0	0
2024-05-01 18:15:32			0	33908	0	0	0	17379	16010	151746	27263	958932	38297	106306	0	0	8160	763019	0	0
2024-05-01 18:16:32			0	33927	0	0	0	17368	16020	151834	27474	958896	38288	106302	0	0	8161	762031	0	0
2024-05-01 18:17:32			0	33908	0	0	0	17379	16000	151838	27561	958898	38275	106306	0	0	8160	763060	0	0
2024-05-01 18:18:32			0	33928	0	0	0	17345	15990	151762	27327	958881	38274	106293	0	0	8162	762104	0	0
2024-05-01 18:19:32			0	33915	0	0	0	17335	16000	151770	27431	958863	38285	106289	0	0	8161	762711	0	0
2024-05-01 18:20:32			0	33914	0	0	0	17314	16000	151678	27459	958810	38274	106281	0	0	8161	762761	0	0
2024-05-01 18:21:32			0	33925	0	0	0	17327	15990	151786	27970	958776	38274	106286	0	0	8162	762254	0	0
2024-05-01 18:22:32			0	33905	0	0	0	17335	15990	151750	27545	958847	38274	106289	0	0	8160	763251	0	0
2024-05-01 18:23:32			0	33894	0	0	0	17363	15980	151794	27725	958812	38273	106300	0	0	8159	763841	0	0
2024-05-01 18:24:32			0	33897	0	0	0	17371	15990	151798	27428	958847	38285	106303	0	0	8159	763650	0	0
2024-05-01 18:25:32			0	33886	0	0	0	17374	15990	151878	27345	958926	38285	106304	0	0	8159	764199	0	0
2024-05-01 18:26:32			0	33893	0	0	0	17402	16000	151878	27620	958863	38285	106315	0	0	8159	763809	0	0
2024-05-01 18:27:32			0	33897	0	0	0	17410	16000	151938	27093	958898	38286	106318	0	0	8159	763609	0	0
2024-05-01 18:28:32			0	33908	0	0	0	17405	16000	151978	27511	959003	38286	106316	0	0	8159	763060	0	0
2024-05-01 18:29:32			0	33883	0	0	0	17399	16000	151946	27450	958898	38296	106314	0	0	8158	764308	0	0
2024-05-01 18:30:32			0	33891	0	0	0	17379	16010	151998	27386	958932	38276	106306	0	0	8159	763867	0	0
2024-05-01 18:31:32			0	33873	0	0	0	17376	16010	151962	27308	958932	38297	106305	0	0	8158	764766	0	0
2024-05-01 18:32:32			0	33878	0	0	0	17376	16010	151982	27275	958959	38297	106305	0	0	8158	764517	0	0
2024-05-01 18:33:32			0	33885	0	0	0	17342	16000	151886	27440	958950	38264	106292	0	0	8159	764208	0	0
2024-05-01 18:34:32			0	33875	0	0	0	17368	16010	151874	27493	958906	38287	106302	0	0	8158	764666	0	0
2024-05-01 18:35:32			0	33874	0	0	0	17342	16000	151934	27485	958863	38285	106292	0	0	8158	764758	0	0
2024-05-01 18:36:32			0	33876	0	0	0	17327	16000	151998	27348	958810	38285	106286	0	0	8159	764658	0	0
2024-05-01 18:37:32			0	33885	0	0	0	17353	16000	151958	27545	958810	38263	106296	0	0	8159	764208	0	0
2024-05-01 18:38:32			0	33864	0	0	0	17353	15990	151954	27341	958820	38274	106296	0	0	8158	765299	0	0
2024-05-01 18:39:32			0	33852	0	0	0	17345	15990	152034	27377	958820	38285	106293	0	0	8157	765899	0	0
2024-05-01 18:40:32			0	33860	0	0	0	17342	15980	152026	27293	958812	38273	106292	0	0	8158	765540	0	0
2024-05-01 18:41:32			0	33858	0	0	0	17332	15980	152130	27530	958857	38284	106288	0	0	8158	765640	0	0
2024-05-01 18:42:32			0	33868	0	0	0	17314	15980	152074	27481	958786	38273	106281	0	0	8158	765140	0	0
2024-05-01 18:43:32			0	33855	0	0	0	17311	15970	152094	27400	958769	38284	106280	0	0	8158	765831	0	0
2024-05-01 18:44:32			0	33851	0	0	0	17311	15980	152058	27187	958751	38284	106280	0	0	8158	765990	0	0
2024-05-01 18:45:32			0	33845	0	0	0	17311	15970	152170	27270	958769	38250	106280	0	0	8157	766332	0	0
2024-05-01 18:46:32			0	33847	0	0	0	17322	15970	152226	27253	958735	38283	106284	0	0	8157	766232	0	0
2024-05-01 18:47:32			0	33849	0	0	0	17316	15970	152202	27649	958708	38283	106282	0	0	8157	766132	0	0
2024-05-01 18:48:32			0	33835	0	0	0	17311	15960	152198	27227	958727	38272	106280	0	0	8157	766874	0	0
2024-05-01 18:49:32			0	33848	0	0	0	17311	15960	152274	27393	958692	38271	106280	0	0	8157	766223	0	0
2024-05-01 18:50:32			0	33822	0	0	0	17311	15960	152242	27518	958753	38272	106280	0	0	8156	767525	0	0
2024-05-01 18:51:32			0	33831	0	0	0	17322	15960	152314	27689	958700	38293	106284	0	0	8156	767074	0	0
2024-05-01 18:52:32			0	33836	0	0	0	17316	15970	152298	27336	958682	38283	106282	0	0	8157	766782	0	0
2024-05-01 18:53:32			0	33832	0	0	0	17293	15950	152226	27521	958710	38282	106273	0	0	8157	767065	0	0
2024-05-01 18:54:32			0	33835	0	0	0	17288	15950	152306	27583	958605	38271	106271	0	0	8157	766915	0	0
2024-05-01 18:55:32			0	33824	0	0	0	17309	15940	152262	27393	958641	38281	106279	0	0	8156	767507	0	0
2024-05-01 18:56:32			0	33852	0	0	0	17311	15940	152242	27357	958615	38281	106280	0	0	8157	766105	0	0
2024-05-01 18:57:32			0	33844	0	0	0	17314	15950	152338	27381	958650	38270	106281	0	0	8157	766464	0	0
2024-05-01 18:58:32			0	33836	0	0	0	17311	15950	152258	27320	958597	38270	106280	0	0	8157	766865	0	0
2024-05-01 18:59:32			0	33820	0	0	0	17301	15950	152322	27680	958631	38282	106276	0	0	8156	767667	0	0
2024-05-01 19:00:32			0	33840	0	0	0	17324	15950	152306	27689	958650	38270	106285	0	0	8157	766665	0	0
2024-05-01 19:01:32			0	33817	0	0	0	17335	15950	152366	27672	958650	38259	106289	0	0	8155	767817	0	0
2024-05-01 19:02:32			0	33814	0	0	0	17337	15940	152418	27280	958720	38281	106290	0	0	8155	768009	0	0
2024-05-01 19:03:32			0	33802	0	0	0	17342	15950	152402	27678	958702	38281	106292	0	0	8154	768569	0	0
2024-05-01 19:04:32			0	33815	0	0	0	17337	15950	152406	27561	958676	38259	106290	0	0	8155	767917	0	0
2024-05-01 19:05:32			0	33816	0	0	0	17319	15950	152390	27450	958684	38271	106283	0	0	8155	767867	0	0
2024-05-01 19:06:32			0	33803	0	0	0	17324	15960	152498	27403	958745	38271	106285	0	0	8154	768477	0	0
2024-05-01 19:07:32			0	33821	0	0	0	17322	15960	152390	27448	958719	38292	106284	0	0	8156	767575	0	0
2024-05-01 19:08:32			0	33789	0	0	0	17322	15950	152490	27640	958676	38270	106284	0	0	8154	769221	0	0
2024-05-01 19:09:32			0	33788	0	0	0	17340	15950	152446	27433	958755	38281	106291	0	0	8153	769272	0	0
2024-05-01 19:10:32			0	33797	0	0	0	17335	15950	152486	27305	958763	38271	106289	0	0	8154	768820	0	0
2024-05-01 19:11:32			0	33794	0	0	0	17327	15960	152446	27348	958771	38282	106286	0	0	8154	768929	0	0
2024-05-01 19:12:32			0	33801	0	0	0	17319	15950	152442	27332	958737	38271	106283	0	0	8154	768619	0	0
2024-05-01 19:13:32			0	33783	0	0	0	17329	15960	152422	27685	958719	38282	106287	0	0	8153	769481	0	0
2024-05-01 19:14:32			0	33781	0	0	0	17329	15960	152430	27550	958771	38282	106287	0	0	8153	769582	0	0
2024-05-01 19:15:32			0	33803	0	0	0	17355	15960	152550	27388	958798	38282	106297	0	0	8154	768477	0	0
2024-05-01 19:16:32			0	33773	0	0	0	17342	15960	152562	27538	958798	38282	106292	0	0	8152	769984	0	0
2024-05-01 19:17:32			0	33779	0	0	0	17337	15960	152550	27332	958692	38282	106290	0	0	8153	769682	0	0
2024-05-01 19:18:32			0	33774	0	0	0	17355	15960	152498	27545	958745	38271	106297	0	0	8152	769933	0	0
2024-05-01 19:19:32			0	33784	0	0	0	17332	15960	152518	27447	958771	38282	106288	0	0	8153	769431	0	0
2024-05-01 19:20:32			0	33775	0	0	0	17322	15960	152566	27545	958727	38293	106284	0	0	8153	769883	0	0
2024-05-01 19:21:32			0	33777	0	0	0	17324	15960	152498	27391	958719	38282	106285	0	0	8153	769783	0	0
2024-05-01 19:22:32			0	33779	0	0	0	17337	15960	152574	27234	958745	38282	106290	0	0	8153	769682	0	0
2024-05-01 19:23:32			0	33745	0	0	0	17337	15960	152574	27561	958719	38271	106290	0	0	8151	771391	0	0
2024-05-01 19:24:32			0	33752	0	0	0	17316	15950	152482	27331	958763	38282	106282	0	0	8152	771081	0	0
2024-05-01 19:25:32			0	33772	0	0	0	17329	15950	152594	27388	958763	38292	106287	0	0	8152	770075	0	0
2024-05-01 19:26:32			0	33771	0	0	0	17329	15960	152558	27279	958719	38271	106287	0	0	8152	770084	0	0
2024-05-01 19:27:32			0	33780	0	0	0	17345	15960	152590	27365	958771	38282	106293	0	0	8153	769632	0	0
2024-05-01 19:28:32			0	33758	0	0	0	17316	15960	152750	27358	958745	38282	106282	0	0	8152	770737	0	0
2024-05-01 19:29:32			0	33767	0	0	0	17316	15960	152686	27303	958771	38282	106282	0	0	8152	770285	0	0
2024-05-01 19:30:32			0	33734	0	0	0	17314	15950	152742	27341	958710	38271	106281	0	0	8150	771987	0	0
2024-05-01 19:31:32			0	33732	0	0	0	17298	15960	152806	27706	958648	38272	106275	0	0	8151	772046	0	0
2024-05-01 19:32:32			0	33745	0	0	0	17296	15950	152810	27178	958631	38271	106274	0	0	8151	771433	0	0
2024-05-01 19:33:32			0	33732	0	0	0	17303	15940	152818	27626	958633	38269	106277	0	0	8151	772129	0	0
2024-05-01 19:34:32			0	33722	0	0	0	17303	15950	152750	27281	958710	38271	106277	0	0	8150	772591	0	0
2024-05-01 19:35:32			0	33723	0	0	0	17306	15950	152822	27289	958710	38271	106278	0	0	8150	772541	0	0
2024-05-01 19:36:32			0	33747	0	0	0	17303	15950	152874	27535	958702	38270	106277	0	0	8151	771332	0	0
2024-05-01 19:37:32			0	33744	0	0	0	17298	15930	152718	27517	958599	38268	106275	0	0	8151	771566	0	0
2024-05-01 19:38:32			0	33758	0	0	0	17314	15940	152746	27360	958615	38281	106281	0	0	8152	770821	0	0
2024-05-01 19:39:32			0	33759	0	0	0	17319	15940	152678	27374	958633	38280	106283	0	0	8152	770770	0	0
2024-05-01 19:40:32			0	33749	0	0	0	17324	15950	152646	27630	958729	38270	106285	0	0	8151	771232	0	0
2024-05-01 19:41:32			0	33749	0	0	0	17316	15950	152698	27734	958623	38259	106282	0	0	8151	771232	0	0
2024-05-01 19:42:32			0	33747	0	0	0	17322	15950	152710	27334	958676	38291	106284	0	0	8151	771332	0	0
2024-05-01 19:43:32			0	33743	0	0	0	17329	15940	152730	27633	958720	38281	106287	0	0	8151	771575	0	0
2024-05-01 19:44:32			0	33726	0	0	0	17337	15940	152802	27509	958720	38281	106290	0	0	8150	772431	0	0
2024-05-01 19:45:32			0	33719	0	0	0	17350	15940	152886	27440	958720	38270	106295	0	0	8149	772784	0	0
2024-05-01 19:46:32			0	33718	0	0	0	17350	15950	152930	27398	958755	38270	106295	0	0	8149	772792	0	0
2024-05-01 19:47:32			0	33703	0	0	0	17353	15960	152998	27339	958753	38272	106296	0	0	8148	773507	0	0
2024-05-01 19:48:32			0	33689	0	0	0	17348	15950	152986	27576	958755	38281	106294	0	0	8147	774255	0	0
2024-05-01 19:49:32			0	33693	0	0	0	17335	15960	152978	27504	958771	38282	106289	0	0	8148	774011	0	0
2024-05-01 19:50:32			0	33673	0	0	0	17335	15960	152970	27320	958745	38271	106289	0	0	8147	775021	0	0
2024-05-01 19:51:32			0	33670	0	0	0	17342	15950	153062	27371	958737	38282	106292	0	0	8146	775214	0	0
2024-05-01 19:52:32			0	33686	0	0	0	17332	15950	153086	27729	958729	38270	106288	0	0	8147	774406	0	0
2024-05-01 19:53:32			0	33684	0	0	0	17342	15950	153018	27485	958763	38292	106292	0	0	8147	774507	0	0
2024-05-01 19:54:32			0	33670	0	0	0	17342	15960	153118	27530	958779	38283	106292	0	0	8146	775172	0	0
2024-05-01 19:55:32			0	33665	0	0	0	17345	15950	153102	27706	958816	38282	106293	0	0	8146	775467	0	0
2024-05-01 19:56:32			0	33655	0	0	0	17329	15960	153098	27795	958824	38292	106287	0	0	8146	775930	0	0
2024-05-01 19:57:32			0	33658	0	0	0	17340	15970	153154	27523	958814	38283	106291	0	0	8146	775737	0	0
2024-05-01 19:58:32			0	33668	0	0	0	17332	15970	153178	27710	958761	38272	106288	0	0	8146	775232	0	0
2024-05-01 19:59:32			0	33678	0	0	0	17324	15960	153054	27796	958779	38272	106285	0	0	8147	774768	0	0
2024-05-01 20:00:32			0	33688	0	0	0	17337	15960	153126	27744	958771	38282	106290	0	0	8147	774263	0	0
2024-05-01 20:01:32			0	33690	0	0	0	17335	15960	152982	27291	958753	38272	106289	0	0	8148	774163	0	0
2024-05-01 20:02:32			0	33689	0	0	0	17335	15960	153030	27478	958719	38271	106289	0	0	8148	774213	0	0
2024-05-01 20:03:32			0	33690	0	0	0	17327	15950	152986	27751	958737	38271	106286	0	0	8148	774204	0	0
2024-05-01 20:04:32			0	33704	0	0	0	17316	15960	152926	27720	958692	38282	106282	0	0	8149	773456	0	0
2024-05-01 20:05:32			0	33709	0	0	0	17329	15960	152878	27566	958779	38272	106287	0	0	8149	773204	0	0
2024-05-01 20:06:32			0	33703	0	0	0	17332	15960	152830	27611	958727	38293	106288	0	0	8148	773507	0	0
2024-05-01 20:07:32			0	33721	0	0	0	17319	15950	152770	27455	958737	38260	106283	0	0	8150	772641	0	0
2024-05-01 20:08:32			0	33723	0	0	0	17329	15950	152866	27687	958789	38282	106287	0	0	8150	772541	0	0
2024-05-01 20:09:32			0	33730	0	0	0	17327	15950	152826	27441	958710	38292	106286	0	0	8150	772188	0	0
2024-05-01 20:10:32			0	33736	0	0	0	17332	15960	152802	27396	958779	38283	106288	0	0	8150	771844	0	0
2024-05-01 20:11:32			0	33728	0	0	0	17322	15950	152714	27505	958729	38281	106284	0	0	8150	772289	0	0
2024-05-01 20:12:32			0	33735	0	0	0	17322	15950	152802	27710	958763	38271	106284	0	0	8150	771936	0	0
2024-05-01 20:13:32			0	33718	0	0	0	17322	15950	152918	27500	958755	38281	106284	0	0	8149	772792	0	0
2024-05-01 20:14:32			0	33725	0	0	0	17324	15950	152874	27937	958755	38270	106285	0	0	8150	772440	0	0
2024-05-01 20:15:32			0	33735	0	0	0	17316	15950	152766	27564	958702	38270	106282	0	0	8151	771936	0	0
2024-05-01 20:16:32			0	33733	0	0	0	17322	15950	152846	27604	958702	38281	106284	0	0	8150	772037	0	0
2024-05-01 20:17:32			0	33748	0	0	0	17327	15950	152798	27433	958710	38282	106286	0	0	8151	771282	0	0
2024-05-01 20:18:32			0	33725	0	0	0	17327	15950	152850	27518	958737	38271	106286	0	0	8150	772440	0	0
2024-05-01 20:19:32			0	33738	0	0	0	17329	15950	152806	27668	958702	38270	106287	0	0	8150	771785	0	0
2024-05-01 20:20:32			0	33748	0	0	0	17324	15960	152826	27937	958692	38260	106285	0	0	8151	771240	0	0
2024-05-01 20:21:32			0	33747	0	0	0	17314	15940	152726	27656	958720	38302	106281	0	0	8151	771374	0	0
2024-05-01 20:22:32			0	33732	0	0	0	17319	15950	152722	28079	958789	38271	106283	0	0	8150	772087	0	0
2024-05-01 20:23:32			0	33734	0	0	0	17319	15950	152762	27571	958631	38282	106283	0	0	8150	771987	0	0
2024-05-01 20:24:32			0	33745	0	0	0	17314	15950	152834	27514	958789	38292	106281	0	0	8151	771433	0	0
2024-05-01 20:25:32			0	33745	0	0	0	17319	15940	152794	27384	958641	38281	106283	0	0	8151	771475	0	0
2024-05-01 20:26:32			0	33740	0	0	0	17316	15950	152894	27502	958789	38282	106282	0	0	8151	771684	0	0
2024-05-01 20:27:32			0	33732	0	0	0	17327	15950	152806	27838	958763	38271	106286	0	0	8150	772087	0	0
2024-05-01 20:28:32			0	33747	0	0	0	17324	15940	152746	27769	958720	38270	106285	0	0	8151	771374	0	0
2024-05-01 20:29:32			0	33736	0	0	0	17322	15950	152738	27538	958737	38282	106284	0	0	8150	771886	0	0
2024-05-01 20:30:32			0	33767	0	0	0	17324	15950	152674	27675	958755	38259	106285	0	0	8152	770327	0	0
2024-05-01 20:31:32			0	33780	0	0	0	17332	15950	152718	27921	958702	38291	106288	0	0	8153	769673	0	0
2024-05-01 20:32:32			0	33769	0	0	0	17337	15950	152738	27384	958755	38281	106290	0	0	8152	770226	0	0
2024-05-01 20:33:32			0	33754	0	0	0	17329	15950	152718	27772	958816	38292	106287	0	0	8151	770980	0	0
2024-05-01 20:34:32			0	33756	0	0	0	17324	15960	152770	27736	958745	38282	106285	0	0	8152	770838	0	0
2024-05-01 20:35:32			0	33749	0	0	0	17335	15960	152858	27386	958719	38282	106289	0	0	8151	771190	0	0
2024-05-01 20:36:32			0	33741	0	0	0	17335	15950	152958	27518	958789	38271	106289	0	0	8151	771634	0	0
2024-05-01 20:37:32			0	33725	0	0	0	17337	15950	152914	27734	958755	38291	106290	0	0	8150	772440	0	0
2024-05-01 20:38:32			0	33733	0	0	0	17324	15950	152902	27755	958710	38282	106285	0	0	8150	772037	0	0
2024-05-01 20:39:32			0	33725	0	0	0	17332	15960	152938	27611	958719	38271	106288	0	0	8150	772398	0	0
2024-05-01 20:40:32			0	33726	0	0	0	17324	15950	152970	27390	958737	38260	106285	0	0	8150	772389	0	0
2024-05-01 20:41:32			0	33734	0	0	0	17322	15950	152854	27478	958684	38292	106284	0	0	8150	771987	0	0
2024-05-01 20:42:32			0	33750	0	0	0	17327	15940	152814	27345	958747	38259	106286	0	0	8151	771223	0	0
2024-05-01 20:43:32			0	33740	0	0	0	17324	15950	152778	27493	958676	38281	106285	0	0	8151	771684	0	0
2024-05-01 20:44:32			0	33744	0	0	0	17332	15950	152790	27398	958737	38292	106288	0	0	8151	771483	0	0
2024-05-01 20:45:32			0	33740	0	0	0	17335	15950	152902	27533	958702	38281	106289	0	0	8150	771684	0	0
2024-05-01 20:46:32			0	33758	0	0	0	17329	15950	152866	27526	958702	38270	106287	0	0	8152	770779	0	0
2024-05-01 20:47:32			0	33738	0	0	0	17324	15950	152790	27887	958702	38270	106285	0	0	8151	771785	0	0
2024-05-01 20:48:32			0	33748	0	0	0	17337	15950	152738	27395	958763	38292	106290	0	0	8151	771282	0	0
2024-05-01 20:49:32			0	33772	0	0	0	17332	15950	152778	27462	958729	38281	106288	0	0	8152	770075	0	0
2024-05-01 20:50:32			0	33747	0	0	0	17327	15950	152766	27729	958755	38291	106286	0	0	8151	771332	0	0
2024-05-01 20:51:32			0	33756	0	0	0	17329	15950	152778	27467	958729	38281	106287	0	0	8152	770880	0	0
2024-05-01 20:52:32			0	33767	0	0	0	17319	15950	152826	27793	958702	38270	106283	0	0	8152	770327	0	0
2024-05-01 20:53:32			0	33766	0	0	0	17324	15940	152738	27578	958773	38291	106285	0	0	8152	770418	0	0
2024-05-01 20:54:32			0	33768	0	0	0	17329	15950	152702	27800	958729	38291	106287	0	0	8152	770276	0	0
2024-05-01 20:55:32			0	33760	0	0	0	17319	15960	152666	28032	958745	38282	106283	0	0	8152	770637	0	0
2024-05-01 20:56:32			0	33763	0	0	0	17319	15940	152718	27784	958712	38269	106283	0	0	8152	770569	0	0
2024-05-01 20:57:32			0	33775	0	0	0	17322	15950	152674	27504	958658	38282	106284	0	0	8153	769924	0	0
2024-05-01 20:58:32			0	33765	0	0	0	17324	15950	152758	27651	958729	38270	106285	0	0	8152	770427	0	0
2024-05-01 20:59:32			0	33772	0	0	0	17319	15950	152730	27578	958676	38270	106283	0	0	8153	770075	0	0
2024-05-01 21:00:32			0	33766	0	0	0	17311	15950	152662	27357	958755	38281	106280	0	0	8152	770377	0	0
2024-05-01 21:01:32			0	33775	0	0	0	17316	15950	152646	27670	958763	38282	106282	0	0	8153	769924	0	0
2024-05-01 21:02:32			0	33760	0	0	0	17314	15950	152646	27642	958676	38281	106281	0	0	8152	770679	0	0
2024-05-01 21:03:32			0	33760	0	0	0	17322	15950	152678	27372	958676	38291	106284	0	0	8152	770679	0	0
2024-05-01 21:04:32			0	33759	0	0	0	17329	15950	152730	27566	958676	38281	106287	0	0	8152	770729	0	0
2024-05-01 21:05:32			0	33755	0	0	0	17319	15930	152734	27633	958704	38280	106283	0	0	8152	771013	0	0
2024-05-01 21:06:32			0	33742	0	0	0	17322	15950	152734	27585	958676	38281	106284	0	0	8151	771584	0	0
2024-05-01 21:07:32			0	33749	0	0	0	17324	15950	152790	27511	958676	38291	106285	0	0	8151	771232	0	0
2024-05-01 21:08:32			0	33738	0	0	0	17309	15940	152810	27684	958694	38291	106279	0	0	8151	771827	0	0
2024-05-01 21:09:32			0	33745	0	0	0	17314	15940	152830	27843	958720	38281	106281	0	0	8151	771475	0	0
2024-05-01 21:10:32			0	33756	0	0	0	17309	15940	152830	27517	958747	38270	106279	0	0	8152	770921	0	0
2024-05-01 21:11:32			0	33744	0	0	0	17319	15940	152786	27526	958712	38269	106283	0	0	8151	771525	0	0
2024-05-01 21:12:32			0	33741	0	0	0	17324	15940	152766	27524	958694	38281	106285	0	0	8151	771676	0	0
2024-05-01 21:13:32			0	33742	0	0	0	17316	15950	152850	27732	958763	38292	106282	0	0	8151	771584	0	0
2024-05-01 21:14:32			0	33745	0	0	0	17324	15940	152902	27407	958686	38280	106285	0	0	8151	771475	0	0
2024-05-01 21:15:32			0	33756	0	0	0	17319	15950	152810	27384	958702	38281	106283	0	0	8152	770880	0	0
2024-05-01 21:16:32			0	33745	0	0	0	17314	15950	152910	27464	958729	38270	106281	0	0	8151	771433	0	0
2024-05-01 21:17:32			0	33751	0	0	0	17309	15950	152914	27542	958729	38281	106279	0	0	8152	771131	0	0
2024-05-01 21:18:32			0	33737	0	0	0	17314	15940	152914	27634	958694	38281	106281	0	0	8151	771877	0	0
2024-05-01 21:19:32			0	33736	0	0	0	17319	15940	152910	27696	958686	38280	106283	0	0	8150	771928	0	0
2024-05-01 21:20:32			0	33733	0	0	0	17309	15940	152946	27433	958668	38291	106279	0	0	8150	772078	0	0
2024-05-01 21:21:32			0	33729	0	0	0	17322	15950	152934	27483	958737	38271	106284	0	0	8150	772238	0	0
2024-05-01 21:22:32			0	33729	0	0	0	17322	15940	152978	27378	958694	38291	106284	0	0	8150	772280	0	0
2024-05-01 21:23:32			0	33737	0	0	0	17324	15940	152862	27621	958686	38280	106285	0	0	8150	771877	0	0
2024-05-01 21:24:32			0	33729	0	0	0	17319	15940	152914	27390	958720	38291	106283	0	0	8150	772280	0	0
2024-05-01 21:25:32			0	33752	0	0	0	17314	15940	152846	27447	958694	38281	106281	0	0	8152	771122	0	0
2024-05-01 21:26:32			0	33755	0	0	0	17322	15940	152850	27680	958720	38281	106284	0	0	8152	770971	0	0
2024-05-01 21:27:32			0	33743	0	0	0	17319	15940	152810	27502	958694	38270	106283	0	0	8151	771575	0	0
2024-05-01 21:28:32			0	33743	0	0	0	17319	15940	152806	27341	958720	38281	106283	0	0	8151	771575	0	0
2024-05-01 21:29:32			0	33745	0	0	0	17319	15940	152870	27594	958686	38280	106283	0	0	8151	771475	0	0
2024-05-01 21:30:32			0	33736	0	0	0	17322	15950	152762	27528	958729	38302	106284	0	0	8150	771886	0	0
2024-05-01 21:31:32			0	33770	0	0	0	17324	15940	152742	27611	958720	38302	106285	0	0	8152	770217	0	0
2024-05-01 21:32:32			0	33746	0	0	0	17316	15940	152806	27831	958712	38280	106282	0	0	8151	771424	0	0
2024-05-01 21:33:32			0	33749	0	0	0	17319	15930	152818	27651	958670	38280	106283	0	0	8151	771315	0	0
2024-05-01 21:34:32			0	33776	0	0	0	17322	15940	152910	27545	958739	38280	106284	0	0	8153	769916	0	0
2024-05-01 21:35:32			0	33750	0	0	0	17324	15940	152762	27317	958712	38269	106285	0	0	8151	771223	0	0
2024-05-01 21:36:32			0	33750	0	0	0	17319	15940	152786	27381	958739	38280	106283	0	0	8151	771223	0	0
2024-05-01 21:37:32			0	33758	0	0	0	17319	15940	152802	27599	958747	38281	106283	0	0	8152	770821	0	0
2024-05-01 21:38:32			0	33748	0	0	0	17319	15930	152758	27483	958704	38280	106283	0	0	8151	771365	0	0
2024-05-01 21:39:32			0	33748	0	0	0	17316	15940	152806	27440	958739	38269	106282	0	0	8151	771323	0	0
2024-05-01 21:40:32			0	33751	0	0	0	17309	15940	152842	27504	958747	38291	106279	0	0	8152	771173	0	0
2024-05-01 21:41:32			0	33741	0	0	0	17322	15940	152886	27502	958660	38280	106284	0	0	8151	771676	0	0
2024-05-01 21:42:32			0	33746	0	0	0	17319	15950	152902	27471	958729	38281	106283	0	0	8151	771383	0	0
2024-05-01 21:43:32			0	33750	0	0	0	17319	15940	152834	27597	958660	38280	106283	0	0	8151	771223	0	0
2024-05-01 21:44:32			0	33744	0	0	0	17309	15950	152954	27402	958755	38281	106279	0	0	8151	771483	0	0
2024-05-01 21:45:32			0	33743	0	0	0	17303	15940	153026	27685	958668	38270	106277	0	0	8151	771575	0	0
2024-05-01 21:46:32			0	33719	0	0	0	17309	15940	153090	27594	958668	38270	106279	0	0	8150	772784	0	0
2024-05-01 21:47:32			0	33721	0	0	0	17316	15940	152974	27913	958694	38270	106282	0	0	8150	772683	0	0
2024-05-01 21:48:32			0	33716	0	0	0	17309	15930	152994	27467	958730	38280	106279	0	0	8149	772977	0	0
2024-05-01 21:49:32			0	33715	0	0	0	17316	15930	152934	27557	958643	38268	106282	0	0	8149	773027	0	0
2024-05-01 21:50:32			0	33741	0	0	0	17311	15940	152906	27390	958694	38291	106280	0	0	8151	771676	0	0
2024-05-01 21:51:32			0	33734	0	0	0	17303	15930	152970	27575	958704	38291	106277	0	0	8151	772070	0	0
2024-05-01 21:52:32			0	33732	0	0	0	17309	15940	152866	27306	958712	38291	106279	0	0	8150	772129	0	0
2024-05-01 21:53:32			0	33738	0	0	0	17309	15920	153030	27829	958582	38280	106279	0	0	8151	771910	0	0
2024-05-01 21:54:32			0	33737	0	0	0	17309	15930	152854	27737	958670	38291	106279	0	0	8151	771919	0	0
2024-05-01 21:55:32			0	33724	0	0	0	17309	15930	152982	27448	958670	38280	106279	0	0	8150	772574	0	0
2024-05-01 21:56:32			0	33731	0	0	0	17319	15930	152982	27545	958678	38280	106283	0	0	8150	772221	0	0
2024-05-01 21:57:32			0	33737	0	0	0	17306	15930	152994	27500	958678	38280	106278	0	0	8151	771919	0	0
2024-05-01 21:58:32			0	33731	0	0	0	17311	15940	153054	27416	958633	38280	106280	0	0	8150	772179	0	0
2024-05-01 21:59:32			0	33720	0	0	0	17306	15930	153142	27400	958704	38268	106278	0	0	8150	772775	0	0
2024-05-01 22:00:32			0	33712	0	0	0	17303	15930	153102	27436	958670	38280	106277	0	0	8149	773178	0	0
2024-05-01 22:01:32			0	33699	0	0	0	17301	15930	153246	27402	958651	38268	106276	0	0	8149	773834	0	0
2024-05-01 22:02:32			0	33686	0	0	0	17303	15930	153142	27453	958696	38280	106277	0	0	8148	774490	0	0
2024-05-01 22:03:32			0	33682	0	0	0	17306	15920	153194	27537	958688	38291	106278	0	0	8147	774733	0	0
2024-05-01 22:04:32			0	33675	0	0	0	17306	15930	153170	27554	958670	38280	106278	0	0	8147	775045	0	0
2024-05-01 22:05:32			0	33683	0	0	0	17306	15930	153302	27765	958704	38280	106278	0	0	8148	774641	0	0
2024-05-01 22:06:32			0	33674	0	0	0	17309	15920	153226	27339	958609	38280	106279	0	0	8147	775137	0	0
2024-05-01 22:07:32			0	33672	0	0	0	17296	15930	153242	27357	958704	38268	106274	0	0	8147	775197	0	0
2024-05-01 22:08:32			0	33696	0	0	0	17301	15930	153194	27479	958564	38291	106276	0	0	8148	773985	0	0
2024-05-01 22:09:32			0	33695	0	0	0	17309	15930	153286	27336	958678	38291	106279	0	0	8148	774036	0	0
2024-05-01 22:10:32			0	33681	0	0	0	17301	15920	153222	27447	958680	38290	106276	0	0	8147	774784	0	0
2024-05-01 22:11:32			0	33689	0	0	0	17301	15920	153174	27486	958688	38268	106276	0	0	8148	774380	0	0
2024-05-01 22:12:32			0	33686	0	0	0	17303	15920	153158	27495	958582	38291	106277	0	0	8148	774531	0	0
2024-05-01 22:13:32			0	33693	0	0	0	17298	15920	153254	27443	958635	38280	106275	0	0	8148	774178	0	0
2024-05-01 22:14:32			0	33698	0	0	0	17303	15920	153122	27566	958635	38291	106277	0	0	8148	773926	0	0
2024-05-01 22:15:32			0	33699	0	0	0	17303	15930	153130	27618	958670	38280	106277	0	0	8149	773834	0	0
2024-05-01 22:16:32			0	33693	0	0	0	17303	15910	153174	27492	958592	38278	106277	0	0	8148	774220	0	0
2024-05-01 22:17:32			0	33683	0	0	0	17301	15910	153346	27757	958645	38267	106276	0	0	8148	774725	0	0
2024-05-01 22:18:32			0	33685	0	0	0	17306	15930	153254	27426	958643	38280	106278	0	0	8148	774540	0	0
2024-05-01 22:19:32			0	33668	0	0	0	17301	15920	153282	27724	958635	38280	106276	0	0	8147	775441	0	0
2024-05-01 22:20:32			0	33669	0	0	0	17303	15920	153314	27438	958661	38280	106277	0	0	8147	775390	0	0
2024-05-01 22:21:32			0	33646	0	0	0	17311	15930	153426	27407	958704	38280	106280	0	0	8145	776511	0	0
2024-05-01 22:22:32			0	33645	0	0	0	17309	15920	153414	27601	958732	38279	106279	0	0	8145	776603	0	0
2024-05-01 22:23:32			0	33633	0	0	0	17298	15920	153434	27313	958653	38290	106275	0	0	8145	777211	0	0
2024-05-01 22:24:32			0	33631	0	0	0	17296	15930	153518	27455	958696	38280	106274	0	0	8145	777270	0	0
2024-05-01 22:25:32			0	33633	0	0	0	17298	15920	153518	27313	958609	38280	106275	0	0	8145	777211	0	0
2024-05-01 22:26:32			0	33629	0	0	0	17293	15930	153594	27289	958617	38280	106273	0	0	8145	777371	0	0
2024-05-01 22:27:32			0	33616	0	0	0	17301	15930	153586	27298	958643	38280	106276	0	0	8144	778030	0	0
2024-05-01 22:28:32			0	33589	0	0	0	17293	15930	153578	27710	958643	38280	106273	0	0	8142	779398	0	0
2024-05-01 22:29:32			0	33601	0	0	0	17303	15920	153698	27601	958661	38280	106277	0	0	8143	778832	0	0
2024-05-01 22:30:32			0	33590	0	0	0	17306	15920	153726	27486	958661	38291	106278	0	0	8142	779390	0	0
2024-05-01 22:31:32			0	33594	0	0	0	17306	15910	153766	27317	958645	38278	106278	0	0	8142	779229	0	0
2024-05-01 22:32:32			0	33583	0	0	0	17301	15910	153698	27604	958645	38289	106276	0	0	8142	779787	0	0
2024-05-01 22:33:32			0	33571	0	0	0	17301	15920	153914	27507	958635	38280	106276	0	0	8141	780354	0	0
2024-05-01 22:34:32			0	33556	0	0	0	17306	15920	153837	27433	958627	38290	106278	0	0	8140	781116	0	0
2024-05-01 22:35:32			0	33557	0	0	0	17296	15920	153853	27627	958582	38280	106274	0	0	8140	781066	0	0
2024-05-01 22:36:32			0	33565	0	0	0	17301	15930	153933	27339	958617	38268	106276	0	0	8141	780617	0	0
2024-05-01 22:37:32			0	33571	0	0	0	17290	15910	153805	27611	958671	38267	106272	0	0	8141	780396	0	0
2024-05-01 22:38:32			0	33561	0	0	0	17303	15920	153901	27642	958609	38280	106277	0	0	8140	780862	0	0
2024-05-01 22:39:32			0	33559	0	0	0	17296	15930	153941	27580	958617	38268	106274	0	0	8140	780922	0	0
2024-05-01 22:40:32			0	33530	0	0	0	17293	15930	153945	27246	958696	38268	106273	0	0	8139	782397	0	0
2024-05-01 22:41:32			0	33538	0	0	0	17298	15910	154029	27372	958645	38278	106275	0	0	8139	782074	0	0
2024-05-01 22:42:32			0	33536	0	0	0	17298	15930	154141	27438	958625	38268	106275	0	0	8139	782091	0	0
2024-05-01 22:43:32			0	33522	0	0	0	17301	15910	154093	27457	958619	38278	106276	0	0	8138	782888	0	0
2024-05-01 22:44:32			0	33517	0	0	0	17298	15910	154157	27260	958645	38278	106275	0	0	8138	783143	0	0
2024-05-01 22:45:32			0	33503	0	0	0	17309	15930	154253	27232	958670	38280	106279	0	0	8137	783772	0	0
2024-05-01 22:46:32			0	33502	0	0	0	17303	15930	154285	27469	958643	38280	106277	0	0	8137	783823	0	0
2024-05-01 22:47:32			0	33471	0	0	0	17298	15930	154245	27646	958696	38291	106275	0	0	8135	785404	0	0
2024-05-01 22:48:32			0	33488	0	0	0	17293	15920	154277	27521	958653	38268	106273	0	0	8136	784579	0	0
2024-05-01 22:49:32			0	33483	0	0	0	17303	15930	154241	27633	958670	38280	106277	0	0	8136	784791	0	0
2024-05-01 22:50:32			0	33477	0	0	0	17301	15920	154377	27476	958653	38268	106276	0	0	8135	785140	0	0
2024-05-01 22:51:32			0	33485	0	0	0	17303	15930	154345	27580	958670	38291	106277	0	0	8136	784689	0	0
2024-05-01 22:52:32			0	33443	0	0	0	17293	15930	154429	27315	958651	38291	106273	0	0	8134	786835	0	0
2024-05-01 22:53:32			0	33446	0	0	0	17293	15930	154345	27395	958696	38291	106273	0	0	8134	786681	0	0
2024-05-01 22:54:32			0	33449	0	0	0	17298	15920	154429	27222	958653	38290	106275	0	0	8134	786570	0	0
2024-05-01 22:55:32			0	33440	0	0	0	17298	15910	154469	27159	958671	38278	106275	0	0	8133	787073	0	0
2024-05-01 22:56:32			0	33442	0	0	0	17301	15920	154533	27308	958548	38290	106276	0	0	8133	786928	0	0
2024-05-01 22:57:32			0	33445	0	0	0	17301	15930	154617	27230	958617	38291	106276	0	0	8134	786732	0	0
2024-05-01 22:58:32			0	33443	0	0	0	17293	15930	154569	27436	958670	38280	106273	0	0	8134	786835	0	0
2024-05-01 22:59:32			0	33436	0	0	0	17293	15920	154569	27569	958627	38268	106273	0	0	8133	787235	0	0
2024-05-01 23:00:32			0	33432	0	0	0	17293	15920	154589	27331	958688	38291	106273	0	0	8133	787440	0	0
2024-05-01 23:01:32			0	33422	0	0	0	17301	15910	154669	27502	958592	38289	106276	0	0	8132	787994	0	0
2024-05-01 23:02:32			0	33400	0	0	0	17298	15930	154581	27241	958696	38280	106275	0	0	8131	789035	0	0
2024-05-01 23:03:32			0	33403	0	0	0	17293	15910	154537	27223	958645	38299	106273	0	0	8131	788967	0	0
2024-05-01 23:04:32			0	33411	0	0	0	17296	15910	154617	27802	958645	38278	106274	0	0	8131	788557	0	0
2024-05-01 23:05:32			0	33422	0	0	0	17303	15920	154597	27581	958609	38280	106277	0	0	8132	787951	0	0
2024-05-01 23:06:32			0	33418	0	0	0	17290	15910	154661	27618	958663	38267	106272	0	0	8132	788199	0	0
2024-05-01 23:07:32			0	33411	0	0	0	17290	15920	154565	27336	958653	38279	106272	0	0	8132	788515	0	0
2024-05-01 23:08:32			0	33423	0	0	0	17290	15910	154593	27300	958698	38278	106272	0	0	8132	787943	0	0
2024-05-01 23:09:32			0	33407	0	0	0	17293	15910	154629	27308	958645	38289	106273	0	0	8131	788762	0	0
2024-05-01 23:10:32			0	33392	0	0	0	17296	15920	154645	27630	958635	38280	106274	0	0	8130	789488	0	0
2024-05-01 23:11:32			0	33392	0	0	0	17301	15910	154785	27878	958619	38267	106276	0	0	8130	789531	0	0
2024-05-01 23:12:32			0	33378	0	0	0	17290	15910	154661	27670	958645	38278	106272	0	0	8130	790249	0	0
2024-05-01 23:13:32			0	33399	0	0	0	17296	15910	154717	27618	958671	38267	106274	0	0	8131	789172	0	0
2024-05-01 23:14:32			0	33398	0	0	0	17298	15920	154693	27550	958582	38280	106275	0	0	8131	789181	0	0
2024-05-01 23:15:32			0	33399	0	0	0	17293	15910	154717	27744	958637	38278	106273	0	0	8131	789172	0	0
2024-05-01 23:16:32			0	33403	0	0	0	17298	15910	154709	27815	958619	38267	106275	0	0	8131	788967	0	0
2024-05-01 23:17:32			0	33401	0	0	0	17296	15910	154673	27542	958558	38289	106274	0	0	8131	789069	0	0
2024-05-01 23:18:32			0	33401	0	0	0	17298	15910	154765	27326	958645	38278	106275	0	0	8131	789069	0	0
2024-05-01 23:19:32			0	33406	0	0	0	17296	15910	154613	27222	958690	38278	106274	0	0	8131	788813	0	0
2024-05-01 23:20:32			0	33395	0	0	0	17296	15920	154681	27367	958627	38290	106274	0	0	8131	789334	0	0
2024-05-01 23:21:32			0	33396	0	0	0	17293	15910	154665	27691	958698	38267	106273	0	0	8131	789326	0	0
2024-05-01 23:22:32			0	33394	0	0	0	17296	15920	154685	27642	958714	38280	106274	0	0	8131	789385	0	0
2024-05-01 23:23:32			0	33432	0	0	0	17290	15910	154681	27178	958619	38299	106272	0	0	8133	787482	0	0
2024-05-01 23:24:32			0	33430	0	0	0	17298	15910	154637	27630	958592	38267	106275	0	0	8133	787584	0	0
2024-05-01 23:25:32			0	33429	0	0	0	17301	15920	154573	27530	958653	38279	106276	0	0	8133	787593	0	0
2024-05-01 23:26:32			0	33421	0	0	0	17290	15920	154617	27426	958661	38291	106272	0	0	8132	788002	0	0
2024-05-01 23:27:32			0	33414	0	0	0	17298	15910	154625	27319	958645	38278	106275	0	0	8132	788403	0	0
2024-05-01 23:28:32			0	33423	0	0	0	17290	15910	154661	27718	958637	38278	106272	0	0	8132	787943	0	0
2024-05-01 23:29:32			0	33421	0	0	0	17298	15910	154637	27575	958690	38278	106275	0	0	8132	788045	0	0
2024-05-01 23:30:32			0	33428	0	0	0	17290	15910	154657	27666	958645	38278	106272	0	0	8133	787687	0	0
2024-05-01 23:31:32			0	33416	0	0	0	17296	15920	154561	27864	958627	38279	106274	0	0	8132	788258	0	0
2024-05-01 23:32:32			0	33414	0	0	0	17296	15920	154573	27459	958653	38279	106274	0	0	8132	788361	0	0
2024-05-01 23:33:32			0	33426	0	0	0	17293	15910	154553	27466	958611	38289	106273	0	0	8132	787789	0	0
2024-05-01 23:34:32			0	33411	0	0	0	17288	15920	154633	27426	958661	38291	106271	0	0	8132	788515	0	0
2024-05-01 23:35:32			0	33418	0	0	0	17296	15920	154705	27502	958627	38290	106274	0	0	8132	788156	0	0
2024-05-01 23:36:32			0	33419	0	0	0	17290	15910	154621	27228	958671	38278	106272	0	0	8132	788147	0	0
2024-05-01 23:37:32			0	33397	0	0	0	17290	15930	154773	27358	958696	38280	106272	0	0	8131	789189	0	0
2024-05-01 23:38:32			0	33389	0	0	0	17290	15930	154701	27549	958617	38291	106272	0	0	8130	789599	0	0
2024-05-01 23:39:32			0	33395	0	0	0	17285	15910	154685	27379	958645	38278	106270	0	0	8131	789377	0	0
2024-05-01 23:40:32			0	33380	0	0	0	17298	15910	154753	27557	958566	38278	106275	0	0	8130	790146	0	0
2024-05-01 23:41:32			0	33383	0	0	0	17293	15910	154729	27559	958619	38289	106273	0	0	8130	789992	0	0
2024-05-01 23:42:32			0	33389	0	0	0	17296	15910	154681	27621	958619	38289	106274	0	0	8130	789685	0	0
2024-05-01 23:43:32			0	33390	0	0	0	17298	15910	154721	27326	958645	38278	106275	0	0	8130	789633	0	0
2024-05-01 23:44:32			0	33378	0	0	0	17285	15910	154805	27336	958637	38299	106270	0	0	8130	790249	0	0
2024-05-01 23:45:32			0	33394	0	0	0	17288	15910	154745	27630	958671	38278	106271	0	0	8131	789428	0	0
2024-05-01 23:46:32			0	33361	0	0	0	17288	15910	154769	27732	958671	38278	106271	0	0	8129	791121	0	0
2024-05-01 23:47:32			0	33381	0	0	0	17290	15900	154761	27421	958647	38277	106272	0	0	8130	790137	0	0
2024-05-01 23:48:32			0	33357	0	0	0	17290	15910	154865	27338	958663	38289	106272	0	0	8128	791327	0	0
2024-05-01 23:49:32			0	33363	0	0	0	17290	15920	154909	27492	958653	38268	106272	0	0	8129	790976	0	0
2024-05-01 23:50:32			0	33376	0	0	0	17288	15910	154809	27507	958637	38267	106271	0	0	8130	790351	0	0
2024-05-01 23:51:32			0	33361	0	0	0	17285	15910	154965	27580	958611	38278	106270	0	0	8129	791121	0	0
2024-05-01 23:52:32			0	33357	0	0	0	17296	15910	154869	27933	958619	38278	106274	0	0	8128	791327	0	0
2024-05-01 23:53:32			0	33365	0	0	0	17285	15910	154941	27627	958663	38278	106270	0	0	8129	790916	0	0
2024-05-01 23:54:32			0	33342	0	0	0	17288	15910	154889	27885	958698	38289	106271	0	0	8128	792098	0	0
2024-05-01 23:55:32			0	33339	0	0	0	17285	15910	154881	27405	958645	38278	106270	0	0	8127	792252	0	0
2024-05-01 23:56:32			0	33349	0	0	0	17290	15910	154985	27819	958645	38278	106272	0	0	8128	791738	0	0
2024-05-01 23:57:32			0	33319	0	0	0	17293	15910	155021	27374	958592	38289	106273	0	0	8126	793281	0	0
2024-05-01 23:58:32			0	33312	0	0	0	17288	15910	155025	27533	958592	38289	106271	0	0	8126	793641	0	0
2024-05-01 23:59:32			0	33301	0	0	0	17288	15910	155097	27701	958637	38278	106271	0	0	8125	794208	0	0
2024-05-02 00:00:32			0	33310	0	0	0	17290	15910	155137	27538	958611	38289	106272	0	0	8126	793744	0	0
2024-05-02 00:01:32			0	33297	0	0	0	17293	15910	155193	27627	958558	38278	106273	0	0	8125	794414	0	0
2024-05-02 00:02:32			0	33300	0	0	0	17283	15910	155301	27454	958645	38278	106269	0	0	8125	794259	0	0
2024-05-02 00:03:32			0	33298	0	0	0	17288	15910	155309	27717	958637	38278	106271	0	0	8125	794362	0	0
2024-05-02 00:04:32			0	33263	0	0	0	17285	15900	155261	27542	958673	38277	106270	0	0	8123	796210	0	0
2024-05-02 00:05:32			0	33267	0	0	0	17288	15910	155261	27602	958584	38278	106271	0	0	8123	795961	0	0
2024-05-02 00:06:32			0	33279	0	0	0	17290	15900	155297	27504	958708	38256	106272	0	0	8124	795385	0	0
2024-05-02 00:07:32			0	33259	0	0	0	17288	15910	155377	27755	958698	38289	106271	0	0	8123	796374	0	0
2024-05-02 00:08:32			0	33262	0	0	0	17288	15910	155401	27573	958637	38256	106271	0	0	8123	796219	0	0
2024-05-02 00:09:32			0	33268	0	0	0	17280	15910	155377	27698	958671	38278	106268	0	0	8123	795909	0	0
2024-05-02 00:10:32			0	33250	0	0	0	17285	15900	155329	27175	958629	38289	106270	0	0	8122	796882	0	0
2024-05-02 00:11:32			0	33251	0	0	0	17280	15900	155437	27474	958594	38288	106268	0	0	8122	796830	0	0
2024-05-02 00:12:32			0	33281	0	0	0	17285	15910	155253	27630	958637	38278	106270	0	0	8124	795239	0	0
2024-05-02 00:13:32			0	33253	0	0	0	17285	15910	155309	27564	958637	38289	106270	0	0	8122	796684	0	0
2024-05-02 00:14:32			0	33259	0	0	0	17285	15910	155273	27379	958716	38289	106270	0	0	8123	796374	0	0
2024-05-02 00:15:32			0	33276	0	0	0	17277	15910	155241	27625	958611	38289	106267	0	0	8124	795496	0	0
2024-05-02 00:16:32			0	33273	0	0	0	17283	15900	155293	27275	958576	38278	106269	0	0	8123	795694	0	0
2024-05-02 00:17:32			0	33271	0	0	0	17285	15900	155337	27601	958602	38278	106270	0	0	8123	795797	0	0
2024-05-02 00:18:32			0	33260	0	0	0	17283	15900	155301	27445	958576	38278	106269	0	0	8123	796365	0	0
2024-05-02 00:19:32			0	33275	0	0	0	17280	15900	155329	27327	958576	38267	106268	0	0	8124	795591	0	0
2024-05-02 00:20:32			0	33260	0	0	0	17285	15910	155241	27476	958637	38289	106270	0	0	8123	796322	0	0
2024-05-02 00:21:32			0	33251	0	0	0	17285	15910	155309	27478	958637	38278	106270	0	0	8122	796787	0	0
2024-05-02 00:22:32			0	33265	0	0	0	17285	15900	155353	27722	958647	38277	106270	0	0	8123	796107	0	0
2024-05-02 00:23:32			0	33273	0	0	0	17280	15910	155301	27613	958619	38289	106268	0	0	8124	795651	0	0
2024-05-02 00:24:32			0	33262	0	0	0	17275	15910	155309	27842	958584	38267	106266	0	0	8123	796219	0	0
2024-05-02 00:25:32			0	33273	0	0	0	17277	15910	155421	27833	958637	38278	106267	0	0	8124	795651	0	0
2024-05-02 00:26:32			0	33277	0	0	0	17272	15890	155357	27542	958612	38276	106265	0	0	8124	795531	0	0
2024-05-02 00:27:32			0	33265	0	0	0	17275	15910	155309	27601	958584	38278	106266	0	0	8123	796064	0	0
2024-05-02 00:28:32			0	33273	0	0	0	17283	15900	155293	27421	958602	38278	106269	0	0	8123	795694	0	0
2024-05-02 00:29:32			0	33289	0	0	0	17272	15910	155257	27428	958663	38289	106265	0	0	8125	794826	0	0
2024-05-02 00:30:32			0	33292	0	0	0	17277	15900	155181	27526	958550	38267	106267	0	0	8125	794714	0	0
2024-05-02 00:31:32			0	33274	0	0	0	17275	15910	155173	27405	958558	38267	106266	0	0	8124	795600	0	0
2024-05-02 00:32:32			0	33295	0	0	0	17272	15900	155169	27305	958602	38278	106265	0	0	8125	794560	0	0
2024-05-02 00:33:32			0	33285	0	0	0	17270	15890	155109	27109	958586	38276	106264	0	0	8124	795118	0	0
2024-05-02 00:34:32			0	33305	0	0	0	17272	15890	155257	27156	958560	38265	106265	0	0	8125	794087	0	0
2024-05-02 00:35:32			0	33296	0	0	0	17267	15900	155137	27327	958647	38288	106263	0	0	8125	794508	0	0
2024-05-02 00:36:32			0	33295	0	0	0	17262	15890	155065	27306	958507	38276	106261	0	0	8125	794602	0	0
2024-05-02 00:37:32			0	33302	0	0	0	17270	15900	155173	27467	958594	38266	106264	0	0	8125	794199	0	0
2024-05-02 00:38:32			0	33315	0	0	0	17272	15890	155165	27215	958560	38287	106265	0	0	8126	793572	0	0
2024-05-02 00:39:32			0	33313	0	0	0	17267	15900	155165	27244	958621	38277	106263	0	0	8126	793632	0	0
2024-05-02 00:40:32			0	33305	0	0	0	17267	15900	155105	27339	958576	38278	106263	0	0	8126	794044	0	0
2024-05-02 00:41:32			0	33324	0	0	0	17272	15890	155061	27118	958578	38287	106265	0	0	8127	793109	0	0
2024-05-02 00:42:32			0	33309	0	0	0	17270	15890	155105	27517	958533	38276	106264	0	0	8126	793881	0	0
2024-05-02 00:43:32			0	33326	0	0	0	17262	15890	155049	27459	958560	38276	106261	0	0	8127	793006	0	0
2024-05-02 00:44:32			0	33334	0	0	0	17267	15890	155041	27466	958612	38265	106263	0	0	8127	792595	0	0
2024-05-02 00:45:32			0	33322	0	0	0	17267	15900	155041	27564	958621	38277	106263	0	0	8127	793169	0	0
2024-05-02 00:46:32			0	33333	0	0	0	17262	15890	154945	27324	958578	38287	106261	0	0	8127	792646	0	0
2024-05-02 00:47:32			0	33327	0	0	0	17267	15890	154997	27469	958612	38287	106263	0	0	8127	792955	0	0
2024-05-02 00:48:32			0	33307	0	0	0	17270	15890	155149	27386	958604	38265	106264	0	0	8126	793984	0	0
2024-05-02 00:49:32			0	33318	0	0	0	17264	15900	155113	27658	958594	38288	106262	0	0	8126	793375	0	0
2024-05-02 00:50:32			0	33315	0	0	0	17270	15890	155073	27459	958552	38276	106264	0	0	8126	793572	0	0
2024-05-02 00:51:32			0	33311	0	0	0	17267	15890	155145	27422	958586	38265	106263	0	0	8126	793778	0	0
2024-05-02 00:52:32			0	33313	0	0	0	17270	15890	155149	27637	958586	38276	106264	0	0	8126	793675	0	0
2024-05-02 00:53:32			0	33305	0	0	0	17264	15890	155221	27569	958586	38265	106262	0	0	8126	794087	0	0
2024-05-02 00:54:32			0	33317	0	0	0	17262	15900	155161	27654	958542	38288	106261	0	0	8126	793426	0	0
2024-05-02 00:55:32			0	33307	0	0	0	17277	15890	155189	27578	958552	38276	106267	0	0	8125	793984	0	0
2024-05-02 00:56:32			0	33319	0	0	0	17264	15890	155169	27762	958525	38287	106262	0	0	8126	793366	0	0
2024-05-02 00:57:32			0	33319	0	0	0	17264	15890	155165	27481	958639	38287	106262	0	0	8126	793366	0	0
2024-05-02 00:58:32			0	33308	0	0	0	17254	15890	155109	27398	958560	38287	106258	0	0	8126	793933	0	0
2024-05-02 00:59:32			0	33315	0	0	0	17259	15890	155181	27530	958525	38287	106260	0	0	8126	793572	0	0
2024-05-02 01:00:32			0	33335	0	0	0	17257	15900	155133	27448	958621	38266	106259	0	0	8128	792500	0	0
2024-05-02 01:01:32			0	33334	0	0	0	17270	15890	155105	27580	958499	38287	106264	0	0	8127	792595	0	0
2024-05-02 01:02:32			0	33335	0	0	0	17257	15880	155205	27412	958491	38265	106259	0	0	8127	792586	0	0
2024-05-02 01:03:32			0	33331	0	0	0	17254	15880	155145	27438	958562	38275	106258	0	0	8127	792791	0	0
2024-05-02 01:04:32			0	33325	0	0	0	17264	15890	155089	27197	958533	38276	106262	0	0	8127	793057	0	0
2024-05-02 01:05:32			0	33315	0	0	0	17262	15890	155165	27294	958604	38276	106261	0	0	8126	793572	0	0
2024-05-02 01:06:32			0	33304	0	0	0	17267	15880	155217	27530	958464	38287	106263	0	0	8125	794181	0	0
2024-05-02 01:07:32			0	33305	0	0	0	17264	15890	155233	27265	958578	38276	106262	0	0	8126	794087	0	0
2024-05-02 01:08:32			0	33287	0	0	0	17259	15890	155277	27639	958507	38276	106260	0	0	8125	795015	0	0
2024-05-02 01:09:32			0	33295	0	0	0	17267	15890	155361	27526	958552	38276	106263	0	0	8125	794602	0	0
2024-05-02 01:10:32			0	33293	0	0	0	17262	15890	155217	27711	958604	38276	106261	0	0	8125	794706	0	0
2024-05-02 01:11:32			0	33287	0	0	0	17267	15880	155189	27294	958535	38264	106263	0	0	8124	795058	0	0
2024-05-02 01:12:32			0	33280	0	0	0	17259	15880	155217	27549	958535	38275	106260	0	0	8124	795419	0	0
2024-05-02 01:13:32			0	33288	0	0	0	17262	15880	155205	27880	958509	38286	106261	0	0	8125	795006	0	0
2024-05-02 01:14:32			0	33304	0	0	0	17264	15890	155217	27743	958604	38276	106262	0	0	8126	794139	0	0
2024-05-02 01:15:32			0	33278	0	0	0	17254	15880	155301	27422	958535	38275	106258	0	0	8124	795522	0	0
2024-05-02 01:16:32			0	33258	0	0	0	17262	15880	155281	27403	958570	38287	106261	0	0	8123	796554	0	0
2024-05-02 01:17:32			0	33275	0	0	0	17262	15880	155301	27268	958509	38296	106261	0	0	8124	795677	0	0
2024-05-02 01:18:32			0	33254	0	0	0	17270	15880	155317	27332	958562	38275	106264	0	0	8122	796761	0	0
2024-05-02 01:19:32			0	33272	0	0	0	17257	15880	155381	27320	958562	38264	106259	0	0	8124	795832	0	0
2024-05-02 01:20:32			0	33270	0	0	0	17267	15880	155469	27578	958562	38286	106263	0	0	8123	795935	0	0
2024-05-02 01:21:32			0	33262	0	0	0	17264	15880	155365	27402	958570	38287	106262	0	0	8123	796348	0	0
2024-05-02 01:22:32			0	33254	0	0	0	17262	15880	155441	27258	958491	38287	106261	0	0	8123	796761	0	0
2024-05-02 01:23:32			0	33263	0	0	0	17275	15890	155465	27384	958552	38265	106266	0	0	8123	796253	0	0
2024-05-02 01:24:32			0	33269	0	0	0	17264	15880	155377	27395	958596	38276	106262	0	0	8123	795986	0	0
2024-05-02 01:25:32			0	33259	0	0	0	17270	15880	155385	27438	958535	38264	106264	0	0	8123	796503	0	0
2024-05-02 01:26:32			0	33248	0	0	0	17267	15880	155357	27234	958596	38276	106263	0	0	8122	797071	0	0
2024-05-02 01:27:32			0	33265	0	0	0	17264	15890	155497	27369	958552	38287	106262	0	0	8123	796150	0	0
2024-05-02 01:28:32			0	33264	0	0	0	17264	15880	155429	27614	958588	38264	106262	0	0	8123	796245	0	0
2024-05-02 01:29:32			0	33239	0	0	0	17275	15890	155445	27253	958604	38287	106266	0	0	8121	797493	0	0
2024-05-02 01:30:32			0	33260	0	0	0	17272	15890	155465	27419	958578	38287	106265	0	0	8123	796408	0	0
2024-05-02 01:31:32			0	33260	0	0	0	17264	15890	155365	27556	958604	38276	106262	0	0	8123	796408	0	0
2024-05-02 01:32:32			0	33254	0	0	0	17272	15890	155377	27352	958586	38287	106265	0	0	8122	796718	0	0
2024-05-02 01:33:32			0	33262	0	0	0	17267	15890	155365	27713	958604	38276	106263	0	0	8123	796305	0	0
2024-05-02 01:34:32			0	33253	0	0	0	17272	15900	155385	27317	958594	38277	106265	0	0	8122	796727	0	0
2024-05-02 01:35:32			0	33246	0	0	0	17267	15890	155349	27412	958560	38276	106263	0	0	8122	797131	0	0
2024-05-02 01:36:32			0	33256	0	0	0	17280	15900	155361	27407	958594	38277	106268	0	0	8122	796572	0	0
2024-05-02 01:37:32			0	33247	0	0	0	17277	15890	155377	27566	958586	38265	106267	0	0	8122	797079	0	0
2024-05-02 01:38:32			0	33240	0	0	0	17267	15900	155509	27294	958568	38288	106263	0	0	8122	797398	0	0
2024-05-02 01:39:32			0	33243	0	0	0	17277	15890	155449	27317	958578	38287	106267	0	0	8122	797286	0	0
2024-05-02 01:40:32			0	33236	0	0	0	17270	15900	155525	27235	958647	38277	106264	0	0	8121	797605	0	0
2024-05-02 01:41:32			0	33220	0	0	0	17272	15900	155533	27331	958568	38288	106265	0	0	8120	798433	0	0
2024-05-02 01:42:32			0	33227	0	0	0	17275	15880	155653	27519	958562	38264	106266	0	0	8121	798157	0	0
2024-05-02 01:43:32			0	33218	0	0	0	17267	15900	155621	27552	958647	38277	106263	0	0	8120	798536	0	0
2024-05-02 01:44:32			0	33221	0	0	0	17270	15900	155645	27547	958568	38277	106264	0	0	8120	798381	0	0
2024-05-02 01:45:32			0	33223	0	0	0	17270	15890	155645	27751	958612	38265	106264	0	0	8121	798321	0	0
2024-05-02 01:46:32			0	33210	0	0	0	17272	15890	155613	27324	958586	38297	106265	0	0	8120	798993	0	0
2024-05-02 01:47:32			0	33198	0	0	0	17275	15890	155613	27692	958631	38276	106266	0	0	8119	799615	0	0
2024-05-02 01:48:32			0	33205	0	0	0	17275	15890	155633	27320	958560	38276	106266	0	0	8119	799252	0	0
2024-05-02 01:49:32			0	33194	0	0	0	17270	15890	155701	27464	958604	38287	106264	0	0	8119	799822	0	0
2024-05-02 01:50:32			0	33194	0	0	0	17275	15890	155753	27395	958604	38297	106266	0	0	8119	799822	0	0
2024-05-02 01:51:32			0	33203	0	0	0	17277	15890	155697	27469	958604	38276	106267	0	0	8119	799356	0	0
2024-05-02 01:52:32			0	33199	0	0	0	17275	15890	155653	27312	958604	38276	106266	0	0	8119	799563	0	0
2024-05-02 01:53:32			0	33210	0	0	0	17277	15900	155609	27583	958542	38298	106267	0	0	8120	798950	0	0
2024-05-02 01:54:32			0	33211	0	0	0	17275	15910	155661	27400	958637	38278	106266	0	0	8120	798856	0	0
2024-05-02 01:55:32			0	33214	0	0	0	17270	15890	155601	27431	958604	38265	106264	0	0	8120	798786	0	0
2024-05-02 01:56:32			0	33224	0	0	0	17272	15890	155557	27694	958612	38265	106265	0	0	8121	798269	0	0
2024-05-02 01:57:32			0	33244	0	0	0	17264	15890	155501	27736	958560	38265	106262	0	0	8122	797235	0	0
2024-05-02 01:58:32			0	33239	0	0	0	17267	15910	155509	27424	958637	38278	106263	0	0	8122	797407	0	0
2024-05-02 01:59:32			0	33235	0	0	0	17267	15890	155477	27618	958604	38287	106263	0	0	8121	797700	0	0
2024-05-02 02:00:32			0	33243	0	0	0	17264	15890	155477	27197	958552	38276	106262	0	0	8122	797286	0	0
2024-05-02 02:01:32			0	33245	0	0	0	17280	15890	155525	27478	958612	38276	106268	0	0	8122	797183	0	0
2024-05-02 02:02:32			0	33239	0	0	0	17275	15900	155573	27640	958621	38288	106266	0	0	8121	797450	0	0
2024-05-02 02:03:32			0	33231	0	0	0	17270	15880	155613	27159	958570	38276	106264	0	0	8121	797950	0	0
2024-05-02 02:04:32			0	33224	0	0	0	17275	15890	155609	27585	958657	38276	106266	0	0	8121	798269	0	0
2024-05-02 02:05:32			0	33226	0	0	0	17272	15890	155681	27758	958586	38276	106265	0	0	8121	798165	0	0
2024-05-02 02:06:32			0	33217	0	0	0	17267	15890	155617	27625	958604	38287	106263	0	0	8120	798631	0	0
2024-05-02 02:07:32			0	33220	0	0	0	17270	15890	155681	27229	958604	38276	106264	0	0	8120	798476	0	0
2024-05-02 02:08:32			0	33204	0	0	0	17264	15890	155737	27376	958604	38287	106262	0	0	8120	799304	0	0
2024-05-02 02:09:32			0	33191	0	0	0	17272	15890	155693	27516	958552	38276	106265	0	0	8119	799977	0	0
2024-05-02 02:10:32			0	33179	0	0	0	17267	15890	155729	27090	958631	38276	106263	0	0	8118	800600	0	0
2024-05-02 02:11:32			0	33184	0	0	0	17262	15890	155873	27355	958612	38287	106261	0	0	8118	800341	0	0
2024-05-02 02:12:32			0	33168	0	0	0	17270	15890	155905	27509	958612	38287	106264	0	0	8117	801170	0	0
2024-05-02 02:13:32			0	33158	0	0	0	17262	15890	155873	27722	958552	38287	106261	0	0	8117	801689	0	0
2024-05-02 02:14:32			0	33152	0	0	0	17267	15890	156001	27407	958665	38276	106263	0	0	8116	802001	0	0
2024-05-02 02:15:32			0	33158	0	0	0	17262	15890	156065	27327	958631	38287	106261	0	0	8117	801689	0	0
2024-05-02 02:16:32			0	33134	0	0	0	17270	15890	156113	27154	958578	38276	106264	0	0	8115	802936	0	0
2024-05-02 02:17:32			0	33139	0	0	0	17264	15880	156081	27835	958570	38276	106262	0	0	8116	802720	0	0
2024-05-02 02:18:32			0	33119	0	0	0	17267	15890	156061	27317	958604	38276	106263	0	0	8114	803716	0	0
2024-05-02 02:19:32			0	33122	0	0	0	17270	15890	156029	27393	958507	38297	106264	0	0	8114	803560	0	0
2024-05-02 02:20:32			0	33104	0	0	0	17262	15890	156201	27447	958578	38287	106261	0	0	8114	804497	0	0
2024-05-02 02:21:32			0	33109	0	0	0	17267	15890	156073	27493	958552	38287	106263	0	0	8114	804237	0	0
2024-05-02 02:22:32			0	33111	0	0	0	17264	15880	156117	27351	958570	38287	106262	0	0	8114	804176	0	0
2024-05-02 02:23:32			0	33102	0	0	0	17264	15880	156225	27286	958543	38287	106262	0	0	8113	804645	0	0
2024-05-02 02:24:32			0	33104	0	0	0	17264	15880	156161	27332	958517	38276	106262	0	0	8113	804540	0	0
2024-05-02 02:25:32			0	33101	0	0	0	17254	15890	156185	27232	958578	38297	106258	0	0	8113	804653	0	0
2024-05-02 02:26:32			0	33106	0	0	0	17262	15890	156137	27034	958552	38276	106261	0	0	8114	804393	0	0
2024-05-02 02:27:32			0	33093	0	0	0	17259	15890	156221	27216	958552	38276	106260	0	0	8113	805070	0	0
2024-05-02 02:28:32			0	33105	0	0	0	17259	15890	156149	27149	958604	38287	106260	0	0	8114	804445	0	0
2024-05-02 02:29:32			0	33098	0	0	0	17264	15890	156209	27213	958639	38276	106262	0	0	8113	804809	0	0
2024-05-02 02:30:32			0	33105	0	0	0	17267	15890	156261	27509	958604	38287	106263	0	0	8113	804445	0	0
2024-05-02 02:31:32			0	33102	0	0	0	17259	15890	156293	27149	958578	38276	106260	0	0	8113	804601	0	0
2024-05-02 02:32:32			0	33104	0	0	0	17259	15880	156233	27372	958535	38286	106260	0	0	8114	804540	0	0
2024-05-02 02:33:32			0	33098	0	0	0	17257	15880	156293	27478	958543	38287	106259	0	0	8113	804853	0	0
2024-05-02 02:34:32			0	33101	0	0	0	17254	15880	156169	27346	958562	38275	106258	0	0	8113	804697	0	0
2024-05-02 02:35:32			0	33093	0	0	0	17262	15880	156233	27447	958588	38264	106261	0	0	8113	805114	0	0
2024-05-02 02:36:32			0	33103	0	0	0	17264	15890	156241	27144	958586	38276	106262	0	0	8113	804549	0	0
2024-05-02 02:37:32			0	33107	0	0	0	17251	15870	156161	27341	958553	38263	106257	0	0	8114	804428	0	0
2024-05-02 02:38:32			0	33104	0	0	0	17246	15880	156265	27277	958562	38275	106255	0	0	8114	804540	0	0
2024-05-02 02:39:32			0	33105	0	0	0	17259	15880	156153	27360	958517	38287	106260	0	0	8114	804488	0	0
2024-05-02 02:40:32			0	33101	0	0	0	17262	15870	156261	27327	958579	38274	106261	0	0	8113	804740	0	0
2024-05-02 02:41:32			0	33107	0	0	0	17249	15880	156237	27343	958596	38287	106256	0	0	8114	804384	0	0
2024-05-02 02:42:32			0	33096	0	0	0	17259	15870	156305	27222	958500	38274	106260	0	0	8113	805000	0	0
2024-05-02 02:43:32			0	33088	0	0	0	17262	15890	156205	27396	958552	38297	106261	0	0	8113	805330	0	0
2024-05-02 02:44:32			0	33097	0	0	0	17249	15890	156337	27138	958525	38287	106256	0	0	8113	804862	0	0
2024-05-02 02:45:32			0	33081	0	0	0	17244	15880	156309	27296	958509	38275	106254	0	0	8112	805739	0	0
2024-05-02 02:46:32			0	33087	0	0	0	17257	15870	156293	27523	958527	38274	106259	0	0	8112	805469	0	0
2024-05-02 02:47:32			0	33069	0	0	0	17249	15880	156265	27355	958588	38296	106256	0	0	8112	806365	0	0
2024-05-02 02:48:32			0	33083	0	0	0	17262	15860	156301	27343	958545	38274	106261	0	0	8112	805721	0	0
2024-05-02 02:49:32			0	33075	0	0	0	17259	15880	156425	27443	958483	38275	106260	0	0	8112	806052	0	0
2024-05-02 02:50:32			0	33078	0	0	0	17249	15870	156425	27556	958579	38274	106256	0	0	8112	805939	0	0
2024-05-02 02:51:32			0	33076	0	0	0	17251	15860	156381	27587	958563	38262	106257	0	0	8112	806086	0	0
2024-05-02 02:52:32			0	33080	0	0	0	17254	15860	156301	27632	958484	38274	106258	0	0	8112	805878	0	0
2024-05-02 02:53:32			0	33062	0	0	0	17251	15880	156373	27562	958641	38286	106257	0	0	8111	806730	0	0
2024-05-02 02:54:32			0	33075	0	0	0	17249	15860	156433	27286	958571	38274	106256	0	0	8112	806139	0	0
2024-05-02 02:55:32			0	33069	0	0	0	17251	15870	156389	27085	958579	38274	106257	0	0	8111	806408	0	0
2024-05-02 02:56:32			0	33068	0	0	0	17249	15860	156441	27403	958492	38285	106256	0	0	8111	806504	0	0
2024-05-02 02:57:32			0	33059	0	0	0	17246	15880	156445	27405	958509	38275	106255	0	0	8111	806887	0	0
2024-05-02 02:58:32			0	33046	0	0	0	17254	15870	156497	27486	958553	38274	106258	0	0	8110	807609	0	0
2024-05-02 02:59:32			0	33057	0	0	0	17251	15880	156485	27410	958535	38275	106257	0	0	8111	806991	0	0
2024-05-02 03:00:32			0	33034	0	0	0	17251	15860	156437	27313	958537	38285	106257	0	0	8109	808279	0	0
2024-05-02 03:01:32			0	33056	0	0	0	17249	15870	156557	27362	958500	38274	106256	0	0	8111	807087	0	0
2024-05-02 03:02:32			0	33059	0	0	0	17249	15860	156477	27377	958519	38274	106256	0	0	8111	806974	0	0
2024-05-02 03:03:32			0	33057	0	0	0	17241	15870	156425	27274	958527	38274	106253	0	0	8111	807034	0	0
2024-05-02 03:04:32			0	33058	0	0	0	17244	15870	156529	27329	958527	38274	106254	0	0	8111	806982	0	0
2024-05-02 03:05:32			0	33063	0	0	0	17244	15850	156401	27481	958450	38274	106254	0	0	8111	806808	0	0
2024-05-02 03:06:32			0	33058	0	0	0	17244	15860	156493	27329	958492	38285	106254	0	0	8111	807026	0	0
2024-05-02 03:07:32			0	33050	0	0	0	17241	15860	156461	27350	958492	38274	106253	0	0	8110	807444	0	0
2024-05-02 03:08:32			0	33054	0	0	0	17244	15870	156549	27275	958474	38286	106254	0	0	8111	807191	0	0
2024-05-02 03:09:32			0	33069	0	0	0	17241	15870	156441	27369	958500	38263	106253	0	0	8112	806408	0	0
2024-05-02 03:10:32			0	33067	0	0	0	17236	15850	156401	27497	958502	38274	106251	0	0	8112	806599	0	0
2024-05-02 03:11:32			0	33065	0	0	0	17238	15860	156513	27175	958545	38285	106252	0	0	8111	806660	0	0
2024-05-02 03:12:32			0	33061	0	0	0	17241	15860	156517	27242	958458	38285	106253	0	0	8111	806869	0	0
2024-05-02 03:13:32			0	33046	0	0	0	17233	15860	156441	27746	958458	38285	106250	0	0	8110	807652	0	0
2024-05-02 03:14:32			0	33042	0	0	0	17236	15860	156581	27436	958545	38274	106251	0	0	8110	807861	0	0
2024-05-02 03:15:32			0	33048	0	0	0	17241	15860	156601	27265	958458	38274	106253	0	0	8110	807548	0	0
2024-05-02 03:16:32			0	33031	0	0	0	17238	15860	156545	27457	958466	38274	106252	0	0	8109	808436	0	0
2024-05-02 03:17:32			0	33038	0	0	0	17236	15860	156629	27046	958563	38274	106251	0	0	8110	808070	0	0
2024-05-02 03:18:32			0	33043	0	0	0	17241	15870	156605	27502	958553	38274	106253	0	0	8110	807766	0	0
2024-05-02 03:19:32			0	33022	0	0	0	17236	15850	156529	27369	958476	38274	106251	0	0	8109	808951	0	0
2024-05-02 03:20:32			0	33030	0	0	0	17231	15860	156601	27530	958537	38285	106249	0	0	8109	808489	0	0
2024-05-02 03:21:32			0	33019	0	0	0	17236	15850	156633	27533	958529	38274	106251	0	0	8109	809107	0	0
2024-05-02 03:22:32			0	33022	0	0	0	17236	15850	156597	27308	958397	38285	106251	0	0	8109	808951	0	0
2024-05-02 03:23:32			0	33004	0	0	0	17228	15850	156677	27421	958502	38274	106248	0	0	8108	809892	0	0
2024-05-02 03:24:32			0	33012	0	0	0	17241	15860	156553	27384	958484	38285	106253	0	0	8108	809430	0	0
2024-05-02 03:25:32			0	33035	0	0	0	17236	15860	156573	27481	958466	38285	106251	0	0	8110	808227	0	0
2024-05-02 03:26:32			0	33021	0	0	0	17231	15860	156597	27578	958458	38285	106249	0	0	8109	808959	0	0
2024-05-02 03:27:32			0	33008	0	0	0	17231	15850	156601	27459	958450	38285	106249	0	0	8108	809683	0	0
2024-05-02 03:28:32			0	33012	0	0	0	17231	15840	156709	27286	958486	38272	106249	0	0	8108	809517	0	0
2024-05-02 03:29:32			0	33014	0	0	0	17233	15850	156625	27460	958502	38274	106250	0	0	8108	809369	0	0
2024-05-02 03:30:32			0	33025	0	0	0	17225	15850	156645	27277	958450	38285	106247	0	0	8109	808794	0	0
2024-05-02 03:31:32			0	33032	0	0	0	17231	15850	156537	27557	958468	38284	106249	0	0	8109	808428	0	0
2024-05-02 03:32:32			0	33022	0	0	0	17223	15840	156585	27275	958433	38272	106246	0	0	8109	808994	0	0
2024-05-02 03:33:32			0	33014	0	0	0	17228	15840	156593	27585	958451	38283	106248	0	0	8108	809413	0	0
2024-05-02 03:34:32			0	33038	0	0	0	17225	15850	156605	27253	958441	38273	106247	0	0	8110	808114	0	0
2024-05-02 03:35:32			0	33027	0	0	0	17212	15840	156521	27698	958433	38283	106242	0	0	8109	808733	0	0
2024-05-02 03:36:32			0	33021	0	0	0	17225	15840	156501	27500	958433	38272	106247	0	0	8109	809046	0	0
2024-05-02 03:37:32			0	33015	0	0	0	17218	15840	156565	27341	958407	38283	106244	0	0	8109	809360	0	0
2024-05-02 03:38:32			0	33020	0	0	0	17228	15840	156653	27365	958381	38283	106248	0	0	8109	809099	0	0
2024-05-02 03:39:32			0	33016	0	0	0	17225	15830	156737	27298	958417	38283	106247	0	0	8109	809352	0	0
2024-05-02 03:40:32			0	33012	0	0	0	17225	15850	156769	27642	958468	38273	106247	0	0	8108	809474	0	0
2024-05-02 03:41:32			0	33005	0	0	0	17231	15830	156625	27232	958417	38272	106249	0	0	8108	809927	0	0
2024-05-02 03:42:32			0	33025	0	0	0	17223	15840	156677	27817	958433	38261	106246	0	0	8109	808837	0	0
2024-05-02 03:43:32			0	33017	0	0	0	17223	15850	156825	27727	958415	38294	106246	0	0	8109	809212	0	0
2024-05-02 03:44:32			0	33029	0	0	0	17220	15840	156809	27710	958425	38293	106245	0	0	8109	808628	0	0
2024-05-02 03:45:32			0	33017	0	0	0	17218	15840	156681	27507	958433	38272	106244	0	0	8109	809256	0	0
2024-05-02 03:46:32			0	33009	0	0	0	17215	15850	156701	27680	958441	38273	106243	0	0	8108	809631	0	0
2024-05-02 03:47:32			0	33017	0	0	0	17223	15840	156765	27724	958451	38272	106246	0	0	8109	809256	0	0
2024-05-02 03:48:32			0	33008	0	0	0	17231	15830	156777	27511	958417	38283	106249	0	0	8108	809770	0	0
2024-05-02 03:49:32			0	32973	0	0	0	17220	15850	156813	27365	958362	38273	106245	0	0	8106	811517	0	0
2024-05-02 03:50:32			0	32980	0	0	0	17220	15830	156817	27358	958391	38293	106245	0	0	8106	811238	0	0
2024-05-02 03:51:32			0	32975	0	0	0	17218	15840	156805	27412	958399	38261	106244	0	0	8106	811456	0	0
2024-05-02 03:52:32			0	32964	0	0	0	17215	15840	156873	27428	958433	38272	106243	0	0	8106	812033	0	0
2024-05-02 03:53:32			0	32964	0	0	0	17210	15830	156905	27616	958409	38282	106241	0	0	8106	812077	0	0
2024-05-02 03:54:32			0	32947	0	0	0	17218	15830	157053	27338	958364	38283	106244	0	0	8104	812969	0	0
2024-05-02 03:55:32			0	32933	0	0	0	17212	15840	157081	27523	958399	38261	106242	0	0	8104	813661	0	0
2024-05-02 03:56:32			0	32932	0	0	0	17212	15840	157089	27422	958425	38261	106242	0	0	8104	813714	0	0
2024-05-02 03:57:32			0	32915	0	0	0	17220	15840	157081	27628	958425	38293	106245	0	0	8102	814608	0	0
2024-05-02 03:58:32			0	32909	0	0	0	17212	15830	157141	27331	958382	38271	106242	0	0	8102	814967	0	0
2024-05-02 03:59:32			0	32919	0	0	0	17220	15840	157217	27265	958433	38283	106245	0	0	8103	814397	0	0
2024-05-02 04:00:32			0	32924	0	0	0	17220	15840	157213	27282	958399	38272	106245	0	0	8103	814134	0	0
2024-05-02 04:01:32			0	32934	0	0	0	17218	15840	157197	27478	958346	38272	106244	0	0	8104	813609	0	0
2024-05-02 04:02:32			0	32933	0	0	0	17215	15830	157177	27493	958312	38272	106243	0	0	8104	813705	0	0
2024-05-02 04:03:32			0	32912	0	0	0	17215	15830	157097	27350	958417	38283	106243	0	0	8102	814810	0	0
2024-05-02 04:04:32			0	32930	0	0	0	17218	15840	157193	27473	958425	38283	106244	0	0	8103	813819	0	0
2024-05-02 04:05:32			0	32929	0	0	0	17223	15840	157149	27357	958372	38283	106246	0	0	8103	813871	0	0
2024-05-02 04:06:32			0	32937	0	0	0	17218	15840	157237	27345	958354	38283	106244	0	0	8104	813451	0	0
2024-05-02 04:07:32			0	32933	0	0	0	17220	15840	157069	27308	958451	38283	106245	0	0	8104	813661	0	0
2024-05-02 04:08:32			0	32954	0	0	0	17220	15830	157001	27261	958409	38282	106245	0	0	8105	812602	0	0
2024-05-02 04:09:32			0	32952	0	0	0	17220	15840	157045	27199	958399	38272	106245	0	0	8105	812663	0	0
2024-05-02 04:10:32			0	32948	0	0	0	17220	15840	157045	27324	958425	38283	106245	0	0	8104	812873	0	0
2024-05-02 04:11:32			0	32963	0	0	0	17215	15830	157057	27407	958409	38260	106243	0	0	8105	812129	0	0
2024-05-02 04:12:32			0	32962	0	0	0	17218	15830	156969	27618	958417	38283	106244	0	0	8105	812182	0	0
2024-05-02 04:13:32			0	32961	0	0	0	17218	15830	157013	27490	958364	38283	106244	0	0	8105	812234	0	0
2024-05-02 04:14:32			0	32972	0	0	0	17218	15840	156913	27422	958451	38272	106244	0	0	8106	811613	0	0
2024-05-02 04:15:32			0	32976	0	0	0	17220	15840	156941	27486	958425	38283	106245	0	0	8106	811403	0	0
2024-05-02 04:16:32			0	32986	0	0	0	17215	15840	156921	27710	958433	38283	106243	0	0	8107	810879	0	0
2024-05-02 04:17:32			0	32980	0	0	0	17210	15830	156917	27618	958391	38283	106241	0	0	8107	811238	0	0
2024-05-02 04:18:32			0	32986	0	0	0	17212	15820	156861	27554	958401	38270	106242	0	0	8107	810967	0	0
2024-05-02 04:19:32			0	32970	0	0	0	17212	15830	156985	27443	958382	38271	106242	0	0	8106	811762	0	0
2024-05-02 04:20:32			0	32975	0	0	0	17210	15820	156921	27642	958348	38270	106241	0	0	8106	811544	0	0
2024-05-02 04:21:32			0	32984	0	0	0	17207	15840	156921	27426	958425	38272	106240	0	0	8107	810984	0	0
2024-05-02 04:22:32			0	32969	0	0	0	17192	15830	157109	27218	958409	38282	106234	0	0	8106	811814	0	0
2024-05-02 04:23:32			0	32964	0	0	0	17207	15830	157033	27164	958356	38271	106240	0	0	8106	812077	0	0
2024-05-02 04:24:32			0	32966	0	0	0	17207	15820	156917	27393	958427	38281	106240	0	0	8106	812016	0	0
2024-05-02 04:25:32			0	32974	0	0	0	17199	15830	157017	27150	958409	38282	106237	0	0	8106	811552	0	0
2024-05-02 04:26:32			0	32987	0	0	0	17189	15820	156937	27718	958313	38270	106233	0	0	8107	810914	0	0
2024-05-02 04:27:32			0	32975	0	0	0	17179	15820	157009	27441	958322	38281	106229	0	0	8107	811544	0	0
2024-05-02 04:28:32			0	32968	0	0	0	17176	15820	157037	27239	958374	38259	106228	0	0	8106	811911	0	0
2024-05-02 04:29:32			0	32992	0	0	0	17163	15810	156961	27679	958305	38270	106223	0	0	8108	810696	0	0
2024-05-02 04:30:32			0	32988	0	0	0	17187	15820	156917	27332	958287	38270	106232	0	0	8107	810862	0	0
2024-05-02 04:31:32			0	33014	0	0	0	17176	15810	156761	27230	958332	38281	106228	0	0	8109	809544	0	0
2024-05-02 04:32:32			0	33038	0	0	0	17179	15820	156701	27597	958287	38270	106229	0	0	8111	808245	0	0
2024-05-02 04:33:32			0	33095	0	0	0	17205	15810	156545	27192	958350	38269	106239	0	0	8114	805313	0	0
2024-05-02 04:34:32			0	33099	0	0	0	17231	15810	156393	27616	958350	38280	106249	0	0	8113	805105	0	0
2024-05-02 04:35:32			0	33121	0	0	0	17254	15810	156409	27672	958358	38281	106258	0	0	8114	803959	0	0
2024-05-02 04:36:32			0	33145	0	0	0	17249	15810	156181	27338	958463	38270	106256	0	0	8116	802711	0	0
2024-05-02 04:37:32			0	33167	0	0	0	17244	15820	156137	27486	958480	38270	106254	0	0	8117	801525	0	0
2024-05-02 04:38:32			0	33191	0	0	0	17231	15820	155961	27464	958480	38270	106249	0	0	8119	800279	0	0
2024-05-02 04:39:32			0	33202	0	0	0	17246	15840	155909	27654	958460	38283	106255	0	0	8119	799623	0	0
2024-05-02 04:40:32			0	33217	0	0	0	17238	15840	155813	27452	958451	38283	106252	0	0	8120	798846	0	0
2024-05-02 04:41:32			0	33243	0	0	0	17225	15840	155853	27751	958486	38293	106247	0	0	8122	797501	0	0
2024-05-02 04:42:32			0	33256	0	0	0	17220	15830	155849	27734	958488	38282	106245	0	0	8123	796872	0	0
2024-05-02 04:43:32			0	33251	0	0	0	17223	15820	155685	27651	958427	38281	106246	0	0	8123	797174	0	0
2024-05-02 04:44:32			0	33249	0	0	0	17212	15840	155833	27201	958451	38272	106242	0	0	8123	797191	0	0
2024-05-02 04:45:32			0	33241	0	0	0	17225	15830	155801	27336	958417	38283	106247	0	0	8122	797648	0	0
2024-05-02 04:46:32			0	33227	0	0	0	17212	15830	155845	27621	958417	38272	106242	0	0	8121	798372	0	0
2024-05-02 04:47:32			0	33227	0	0	0	17218	15830	155821	27509	958409	38282	106244	0	0	8121	798372	0	0
2024-05-02 04:48:32			0	33228	0	0	0	17215	15830	155813	27438	958443	38272	106243	0	0	8122	798320	0	0
2024-05-02 04:49:32			0	33232	0	0	0	17218	15830	155853	27661	958461	38282	106244	0	0	8122	798113	0	0
2024-05-02 04:50:32			0	33217	0	0	0	17218	15830	155845	27751	958417	38283	106244	0	0	8121	798889	0	0
2024-05-02 04:51:32			0	33226	0	0	0	17220	15830	155829	27554	958470	38283	106245	0	0	8121	798423	0	0
2024-05-02 04:52:32			0	33227	0	0	0	17212	15830	155889	27334	958409	38282	106242	0	0	8121	798372	0	0
2024-05-02 04:53:32			0	33230	0	0	0	17215	15830	155801	27093	958470	38283	106243	0	0	8122	798217	0	0
2024-05-02 04:54:32			0	33217	0	0	0	17212	15840	155861	27537	958451	38283	106242	0	0	8121	798846	0	0
2024-05-02 04:55:32			0	33230	0	0	0	17228	15830	155853	27621	958417	38272	106248	0	0	8121	798217	0	0
2024-05-02 04:56:32			0	33209	0	0	0	17233	15840	155889	27554	958425	38283	106250	0	0	8120	799261	0	0
2024-05-02 04:57:32			0	33207	0	0	0	17223	15830	155877	27878	958364	38283	106246	0	0	8120	799407	0	0
2024-05-02 04:58:32			0	33199	0	0	0	17223	15840	155921	27353	958433	38283	106246	0	0	8120	799778	0	0
2024-05-02 04:59:32			0	33179	0	0	0	17225	15840	155857	27604	958425	38261	106247	0	0	8118	800815	0	0
2024-05-02 05:00:32			0	33188	0	0	0	17220	15830	155989	27291	958417	38272	106245	0	0	8119	800392	0	0
2024-05-02 05:01:32			0	33189	0	0	0	17223	15840	155897	27351	958460	38293	106246	0	0	8119	800297	0	0
2024-05-02 05:02:32			0	33195	0	0	0	17228	15830	156013	27659	958443	38272	106248	0	0	8119	800029	0	0
2024-05-02 05:03:32			0	33200	0	0	0	17228	15830	156077	27320	958417	38283	106248	0	0	8120	799770	0	0
2024-05-02 05:04:32			0	33182	0	0	0	17228	15840	155977	27414	958451	38283	106248	0	0	8119	800660	0	0
2024-05-02 05:05:32			0	33185	0	0	0	17231	15840	156049	27524	958460	38283	106249	0	0	8119	800504	0	0
2024-05-02 05:06:32			0	33179	0	0	0	17225	15840	156013	27604	958451	38272	106247	0	0	8118	800815	0	0
2024-05-02 05:07:32			0	33191	0	0	0	17233	15840	156037	27609	958504	38283	106250	0	0	8119	800193	0	0
2024-05-02 05:08:32			0	33193	0	0	0	17241	15840	156057	27802	958512	38283	106253	0	0	8119	800090	0	0
2024-05-02 05:09:32			0	33184	0	0	0	17238	15840	156033	27488	958486	38272	106252	0	0	8119	800556	0	0
2024-05-02 05:10:32			0	33204	0	0	0	17233	15850	155989	27523	958450	38285	106250	0	0	8120	799477	0	0
2024-05-02 05:11:32			0	33205	0	0	0	17238	15850	155937	27445	958520	38284	106252	0	0	8120	799425	0	0
2024-05-02 05:12:32			0	33210	0	0	0	17238	15830	155945	27229	958417	38283	106252	0	0	8120	799252	0	0
2024-05-02 05:13:32			0	33226	0	0	0	17246	15840	155785	27183	958486	38293	106255	0	0	8121	798380	0	0
2024-05-02 05:14:32			0	33224	0	0	0	17236	15850	155889	27405	958555	38274	106251	0	0	8121	798441	0	0
2024-05-02 05:15:32			0	33224	0	0	0	17241	15850	155857	27614	958520	38284	106253	0	0	8121	798441	0	0
2024-05-02 05:16:32			0	33224	0	0	0	17233	15850	155737	27287	958573	38284	106250	0	0	8121	798441	0	0
2024-05-02 05:17:32			0	33232	0	0	0	17241	15850	155733	27426	958494	38273	106253	0	0	8121	798027	0	0
2024-05-02 05:18:32			0	33238	0	0	0	17249	15860	155797	27578	958590	38285	106256	0	0	8122	797674	0	0
2024-05-02 05:19:32			0	33227	0	0	0	17241	15850	155805	27367	958547	38294	106253	0	0	8121	798286	0	0
2024-05-02 05:20:32			0	33249	0	0	0	17241	15850	155853	27374	958547	38284	106253	0	0	8122	797148	0	0
2024-05-02 05:21:32			0	33226	0	0	0	17244	15850	155781	27569	958547	38273	106254	0	0	8121	798337	0	0
2024-05-02 05:22:32			0	33233	0	0	0	17233	15860	155801	27576	958563	38285	106250	0	0	8122	797932	0	0
2024-05-02 05:23:32			0	33222	0	0	0	17236	15850	155805	27310	958502	38285	106251	0	0	8121	798544	0	0
2024-05-02 05:24:32			0	33224	0	0	0	17249	15840	155709	27767	958478	38272	106256	0	0	8121	798484	0	0
2024-05-02 05:25:32			0	33233	0	0	0	17238	15840	155769	27455	958512	38293	106252	0	0	8121	798018	0	0
2024-05-02 05:26:32			0	33225	0	0	0	17246	15850	155761	27831	958520	38273	106255	0	0	8121	798389	0	0
2024-05-02 05:27:32			0	33248	0	0	0	17249	15860	155689	27547	958458	38285	106256	0	0	8122	797157	0	0
2024-05-02 05:28:32			0	33228	0	0	0	17244	15860	155757	27590	958571	38295	106254	0	0	8121	798191	0	0
2024-05-02 05:29:32			0	33233	0	0	0	17241	15840	155685	27538	958565	38272	106253	0	0	8121	798018	0	0
2024-05-02 05:30:32			0	33227	0	0	0	17246	15860	155797	27685	958537	38285	106255	0	0	8121	798243	0	0
2024-05-02 05:31:32			0	33236	0	0	0	17238	15860	155793	27866	958545	38285	106252	0	0	8122	797777	0	0
2024-05-02 05:32:32			0	33231	0	0	0	17238	15860	155801	27518	958563	38285	106252	0	0	8121	798036	0	0
2024-05-02 05:33:32			0	33240	0	0	0	17236	15840	155801	27362	958512	38283	106251	0	0	8122	797656	0	0
2024-05-02 05:34:32			0	33243	0	0	0	17236	15850	155773	27377	958529	38285	106251	0	0	8122	797458	0	0
2024-05-02 05:35:32			0	33229	0	0	0	17236	15850	155781	27829	958573	38273	106251	0	0	8121	798182	0	0
2024-05-02 05:36:32			0	33230	0	0	0	17246	15850	155877	27441	958555	38285	106255	0	0	8121	798131	0	0
2024-05-02 05:37:32			0	33223	0	0	0	17254	15860	155933	27452	958563	38285	106258	0	0	8121	798450	0	0
2024-05-02 05:38:32			0	33205	0	0	0	17236	15850	155961	27306	958608	38285	106251	0	0	8120	799425	0	0
2024-05-02 05:39:32			0	33216	0	0	0	17233	15840	155857	27390	958565	38283	106250	0	0	8121	798898	0	0
2024-05-02 05:40:32			0	33229	0	0	0	17233	15860	155777	27453	958563	38285	106250	0	0	8121	798139	0	0
2024-05-02 05:41:32			0	33252	0	0	0	17241	15850	155869	27511	958494	38294	106253	0	0	8123	796993	0	0
2024-05-02 05:42:32			0	33225	0	0	0	17241	15860	155977	27758	958537	38295	106253	0	0	8121	798346	0	0
2024-05-02 05:43:32			0	33231	0	0	0	17244	15860	155945	27504	958563	38285	106254	0	0	8121	798036	0	0
2024-05-02 05:44:32			0	33218	0	0	0	17249	15860	155877	27291	958563	38285	106256	0	0	8120	798709	0	0
2024-05-02 05:45:32			0	33236	0	0	0	17241	15840	155761	27331	958486	38283	106253	0	0	8122	797863	0	0
2024-05-02 05:46:32			0	33230	0	0	0	17251	15860	155769	27514	958563	38274	106257	0	0	8121	798088	0	0
2024-05-02 05:47:32			0	33238	0	0	0	17249	15860	155689	27840	958492	38295	106256	0	0	8122	797674	0	0
2024-05-02 05:48:32			0	33250	0	0	0	17236	15840	155697	27410	958565	38283	106251	0	0	8123	797139	0	0
2024-05-02 05:49:32			0	33261	0	0	0	17241	15860	155597	27798	958510	38274	106253	0	0	8123	796485	0	0
2024-05-02 05:50:32			0	33281	0	0	0	17241	15850	155605	27762	958555	38274	106253	0	0	8124	795496	0	0
2024-05-02 05:51:32			0	33273	0	0	0	17241	15850	155613	27177	958581	38295	106253	0	0	8124	795909	0	0
2024-05-02 05:52:32			0	33260	0	0	0	17244	15850	155537	27227	958555	38274	106254	0	0	8123	796580	0	0
2024-05-02 05:53:32			0	33258	0	0	0	17251	15860	155605	27760	958590	38285	106257	0	0	8123	796640	0	0
2024-05-02 05:54:32			0	33275	0	0	0	17241	15860	155537	27575	958598	38274	106253	0	0	8124	795762	0	0
2024-05-02 05:55:32			0	33266	0	0	0	17249	15860	155509	27675	958590	38285	106256	0	0	8123	796227	0	0
2024-05-02 05:56:32			0	33262	0	0	0	17249	15850	155649	27367	958581	38285	106256	0	0	8123	796477	0	0
2024-05-02 05:57:32			0	33277	0	0	0	17244	15860	155645	27428	958537	38274	106254	0	0	8124	795659	0	0
2024-05-02 05:58:32			0	33289	0	0	0	17244	15860	155513	27518	958590	38285	106254	0	0	8125	795040	0	0
2024-05-02 05:59:32			0	33271	0	0	0	17251	15850	155605	27345	958634	38285	106257	0	0	8124	796012	0	0
2024-05-02 06:00:32			0	33259	0	0	0	17236	15870	155577	27701	958606	38296	106251	0	0	8123	796546	0	0
2024-05-02 06:01:32			0	33276	0	0	0	17246	15860	155645	27364	958545	38295	106255	0	0	8124	795711	0	0
2024-05-02 06:02:32			0	33281	0	0	0	17254	15870	155521	27490	958606	38286	106258	0	0	8124	795410	0	0
2024-05-02 06:03:32			0	33282	0	0	0	17249	15860	155445	27731	958590	38274	106256	0	0	8124	795401	0	0
2024-05-02 06:04:32			0	33271	0	0	0	17244	15860	155521	27353	958563	38285	106254	0	0	8124	795969	0	0
2024-05-02 06:05:32			0	33298	0	0	0	17244	15850	155637	27497	958555	38295	106254	0	0	8125	794619	0	0
2024-05-02 06:06:32			0	33291	0	0	0	17241	15870	155501	27441	958553	38274	106253	0	0	8125	794894	0	0
2024-05-02 06:07:32			0	33297	0	0	0	17259	15850	155417	27000	958581	38295	106260	0	0	8125	794671	0	0
2024-05-02 06:08:32			0	33312	0	0	0	17249	15870	155509	27412	958658	38286	106256	0	0	8126	793812	0	0
2024-05-02 06:09:32			0	33308	0	0	0	17254	15870	155417	27488	958553	38286	106258	0	0	8126	794018	0	0
2024-05-02 06:10:32			0	33318	0	0	0	17241	15870	155557	27242	958527	38286	106253	0	0	8127	793503	0	0
2024-05-02 06:11:32			0	33315	0	0	0	17257	15850	155509	27481	958555	38285	106259	0	0	8126	793743	0	0
2024-05-02 06:12:32			0	33328	0	0	0	17254	15860	155485	27438	958571	38274	106258	0	0	8127	793031	0	0
2024-05-02 06:13:32			0	33319	0	0	0	17251	15870	155509	27422	958658	38274	106257	0	0	8127	793452	0	0
2024-05-02 06:14:32			0	33323	0	0	0	17246	15860	155525	27433	958563	38285	106255	0	0	8127	793289	0	0
2024-05-02 06:15:32			0	33302	0	0	0	17249	15860	155485	27369	958571	38295	106256	0	0	8126	794370	0	0
2024-05-02 06:16:32			0	33310	0	0	0	17249	15870	155381	27428	958579	38296	106256	0	0	8126	793915	0	0
2024-05-02 06:17:32			0	33306	0	0	0	17246	15880	155441	27279	958614	38286	106255	0	0	8126	794078	0	0
2024-05-02 06:18:32			0	33295	0	0	0	17246	15870	155553	27422	958579	38296	106255	0	0	8125	794688	0	0
2024-05-02 06:19:32			0	33293	0	0	0	17238	15870	155561	27720	958527	38274	106252	0	0	8125	794791	0	0
2024-05-02 06:20:32			0	33293	0	0	0	17231	15860	155541	27504	958624	38285	106249	0	0	8125	794834	0	0
2024-05-02 06:21:32			0	33299	0	0	0	17241	15870	155565	27346	958579	38296	106253	0	0	8126	794482	0	0
2024-05-02 06:22:32			0	33294	0	0	0	17241	15860	155553	27372	958616	38285	106253	0	0	8125	794783	0	0
2024-05-02 06:23:32			0	33312	0	0	0	17246	15860	155441	27355	958545	38274	106255	0	0	8126	793855	0	0
2024-05-02 06:24:32			0	33324	0	0	0	17244	15860	155465	27580	958598	38285	106254	0	0	8127	793237	0	0
2024-05-02 06:25:32			0	33341	0	0	0	17246	15860	155289	27371	958590	38285	106255	0	0	8128	792363	0	0
2024-05-02 06:26:32			0	33347	0	0	0	17236	15860	155461	27651	958510	38285	106251	0	0	8128	792054	0	0
2024-05-02 06:27:32			0	33364	0	0	0	17249	15870	155317	27346	958553	38286	106256	0	0	8129	791138	0	0
2024-05-02 06:28:32			0	33355	0	0	0	17238	15860	155273	27490	958537	38295	106252	0	0	8129	791643	0	0
2024-05-02 06:29:32			0	33360	0	0	0	17241	15850	155165	27530	958529	38285	106253	0	0	8129	791429	0	0
2024-05-02 06:30:32			0	33361	0	0	0	17236	15870	155297	27436	958632	38286	106251	0	0	8129	791292	0	0
2024-05-02 06:31:32			0	33365	0	0	0	17238	15850	155257	27187	958476	38285	106252	0	0	8129	791172	0	0
2024-05-02 06:32:32			0	33380	0	0	0	17241	15850	155173	27303	958502	38285	106253	0	0	8130	790402	0	0
2024-05-02 06:33:32			0	33387	0	0	0	17238	15850	155121	27402	958529	38306	106252	0	0	8131	790043	0	0
2024-05-02 06:34:32			0	33401	0	0	0	17236	15860	155157	27583	958537	38285	106251	0	0	8132	789282	0	0
2024-05-02 06:35:32			0	33400	0	0	0	17241	15860	155101	27367	958563	38285	106253	0	0	8132	789333	0	0
2024-05-02 06:36:32			0	33398	0	0	0	17244	15860	155101	27502	958537	38295	106254	0	0	8131	789436	0	0
2024-05-02 06:37:32			0	33405	0	0	0	17238	15850	155001	27374	958581	38285	106252	0	0	8132	789120	0	0
2024-05-02 06:38:32			0	33390	0	0	0	17241	15850	155089	27563	958547	38273	106253	0	0	8131	789889	0	0
2024-05-02 06:39:32			0	33406	0	0	0	17241	15860	155069	27334	958563	38274	106253	0	0	8132	789026	0	0
2024-05-02 06:40:32			0	33398	0	0	0	17236	15850	155105	27516	958520	38305	106251	0	0	8131	789478	0	0
2024-05-02 06:41:32			0	33381	0	0	0	17249	15850	155021	27310	958581	38285	106256	0	0	8130	790350	0	0
2024-05-02 06:42:32			0	33390	0	0	0	17249	15860	154977	27345	958537	38295	106256	0	0	8131	789846	0	0
2024-05-02 06:43:32			0	33389	0	0	0	17254	15860	155033	27710	958590	38285	106258	0	0	8131	789897	0	0
2024-05-02 06:44:32			0	33395	0	0	0	17241	15860	155101	27796	958537	38274	106253	0	0	8131	789590	0	0
2024-05-02 06:45:32			0	33377	0	0	0	17246	15860	155145	27625	958545	38285	106255	0	0	8130	790513	0	0
2024-05-02 06:46:32			0	33383	0	0	0	17251	15860	155125	27386	958616	38295	106257	0	0	8130	790205	0	0
2024-05-02 06:47:32			0	33377	0	0	0	17238	15850	155217	27265	958608	38295	106252	0	0	8130	790556	0	0
2024-05-02 06:48:32			0	33400	0	0	0	17259	15850	155093	27431	958581	38274	106260	0	0	8131	789376	0	0
2024-05-02 06:49:32			0	33400	0	0	0	17249	15860	155029	27234	958563	38285	106256	0	0	8131	789333	0	0
2024-05-02 06:50:32			0	33383	0	0	0	17246	15860	155077	27223	958590	38285	106255	0	0	8130	790205	0	0
2024-05-02 06:51:32			0	33394	0	0	0	17246	15850	155077	27729	958634	38274	106255	0	0	8131	789683	0	0
2024-05-02 06:52:32			0	33404	0	0	0	17246	15860	155053	27320	958590	38295	106255	0	0	8132	789128	0	0
2024-05-02 06:53:32			0	33393	0	0	0	17246	15850	155209	27524	958634	38274	106255	0	0	8131	789735	0	0
2024-05-02 06:54:32			0	33364	0	0	0	17246	15850	155245	27698	958608	38274	106255	0	0	8129	791223	0	0
2024-05-02 06:55:32			0	33360	0	0	0	17246	15850	155321	27384	958547	38284	106255	0	0	8129	791429	0	0
2024-05-02 06:56:32			0	33332	0	0	0	17251	15860	155369	27440	958571	38285	106257	0	0	8127	792826	0	0
2024-05-02 06:57:32			0	33328	0	0	0	17249	15860	155489	27724	958650	38285	106256	0	0	8127	793031	0	0
2024-05-02 06:58:32			0	33334	0	0	0	17244	15860	155425	27562	958650	38285	106254	0	0	8128	792723	0	0
2024-05-02 06:59:32			0	33334	0	0	0	17254	15860	155457	27448	958590	38285	106258	0	0	8127	792723	0	0
2024-05-02 07:00:32			0	33331	0	0	0	17251	15870	155485	27407	958579	38296	106257	0	0	8127	792834	0	0
2024-05-02 07:01:32			0	33328	0	0	0	17251	15860	155405	27576	958537	38285	106257	0	0	8127	793031	0	0
2024-05-02 07:02:32			0	33332	0	0	0	17249	15860	155461	27341	958590	38274	106256	0	0	8127	792826	0	0
2024-05-02 07:03:32			0	33315	0	0	0	17251	15870	155429	27289	958553	38286	106257	0	0	8126	793658	0	0
2024-05-02 07:04:32			0	33333	0	0	0	17249	15860	155597	27582	958642	38295	106256	0	0	8127	792774	0	0
2024-05-02 07:05:32			0	33304	0	0	0	17241	15860	155549	27485	958598	38285	106253	0	0	8126	794267	0	0
2024-05-02 07:06:32			0	33308	0	0	0	17246	15860	155665	27502	958571	38285	106255	0	0	8126	794061	0	0
2024-05-02 07:07:32			0	33307	0	0	0	17251	15860	155601	27291	958624	38295	106257	0	0	8126	794113	0	0
2024-05-02 07:08:32			0	33295	0	0	0	17246	15860	155585	27459	958650	38285	106255	0	0	8125	794731	0	0
2024-05-02 07:09:32			0	33291	0	0	0	17257	15860	155677	27287	958650	38285	106259	0	0	8125	794937	0	0
2024-05-02 07:10:32			0	33292	0	0	0	17264	15860	155693	27270	958563	38295	106262	0	0	8125	794886	0	0
2024-05-02 07:11:32			0	33266	0	0	0	17246	15860	155761	27524	958598	38285	106255	0	0	8123	796227	0	0
2024-05-02 07:12:32			0	33260	0	0	0	17257	15860	155809	27379	958598	38295	106259	0	0	8123	796537	0	0
2024-05-02 07:13:32			0	33252	0	0	0	17251	15880	155901	27694	958614	38275	106257	0	0	8123	796864	0	0
2024-05-02 07:14:32			0	33222	0	0	0	17254	15870	155925	27587	958606	38286	106258	0	0	8121	798458	0	0
2024-05-02 07:15:32			0	33226	0	0	0	17259	15860	155957	27433	958563	38295	106260	0	0	8121	798294	0	0
2024-05-02 07:16:32			0	33214	0	0	0	17254	15870	155993	27944	958579	38286	106258	0	0	8120	798872	0	0
2024-05-02 07:17:32			0	33181	0	0	0	17249	15860	156093	27334	958598	38285	106256	0	0	8118	800625	0	0
2024-05-02 07:18:32			0	33194	0	0	0	17259	15880	156085	27680	958667	38296	106260	0	0	8119	799865	0	0
2024-05-02 07:19:32			0	33202	0	0	0	17249	15860	156049	27407	958677	38285	106256	0	0	8120	799537	0	0
2024-05-02 07:20:32			0	33190	0	0	0	17259	15870	156097	27694	958632	38296	106260	0	0	8119	800116	0	0
2024-05-02 07:21:32			0	33208	0	0	0	17257	15860	156109	27357	958624	38285	106259	0	0	8120	799226	0	0
2024-05-02 07:22:32			0	33196	0	0	0	17254	15870	156077	27692	958606	38296	106258	0	0	8119	799805	0	0
2024-05-02 07:23:32			0	33194	0	0	0	17249	15870	156093	27499	958606	38296	106256	0	0	8119	799908	0	0
2024-05-02 07:24:32			0	33179	0	0	0	17251	15880	156061	27433	958641	38286	106257	0	0	8118	800643	0	0
2024-05-02 07:25:32			0	33171	0	0	0	17262	15870	156297	27713	958685	38296	106261	0	0	8117	801101	0	0
2024-05-02 07:26:32			0	33161	0	0	0	17259	15860	156297	27585	958677	38274	106260	0	0	8117	801663	0	0
2024-05-02 07:27:32			0	33137	0	0	0	17264	15890	156281	27414	958683	38287	106262	0	0	8115	802780	0	0
2024-05-02 07:28:32			0	33141	0	0	0	17262	15880	156389	27398	958649	38297	106261	0	0	8116	802616	0	0
2024-05-02 07:29:32			0	33141	0	0	0	17259	15860	156353	27469	958598	38274	106260	0	0	8116	802702	0	0
2024-05-02 07:30:32			0	33156	0	0	0	17251	15880	156201	27646	958667	38286	106257	0	0	8117	801837	0	0
2024-05-02 07:31:32			0	33169	0	0	0	17257	15880	156229	27343	958641	38286	106259	0	0	8117	801162	0	0
2024-05-02 07:32:32			0	33186	0	0	0	17257	15860	156109	27694	958616	38285	106259	0	0	8118	800366	0	0
2024-05-02 07:33:32			0	33194	0	0	0	17251	15880	156117	27540	958614	38296	106257	0	0	8119	799865	0	0
2024-05-02 07:34:32			0	33189	0	0	0	17259	15870	156101	27717	958658	38296	106260	0	0	8119	800168	0	0
2024-05-02 07:35:32			0	33194	0	0	0	17251	15870	156069	27672	958711	38286	106257	0	0	8119	799908	0	0
2024-05-02 07:36:32			0	33158	0	0	0	17257	15880	156149	27469	958667	38286	106259	0	0	8117	801733	0	0
2024-05-02 07:37:32			0	33151	0	0	0	17267	15880	156273	27670	958667	38286	106263	0	0	8116	802096	0	0
2024-05-02 07:38:32			0	33141	0	0	0	17259	15870	156341	27672	958685	38307	106260	0	0	8116	802659	0	0
2024-05-02 07:39:32			0	33133	0	0	0	17257	15870	156333	27505	958658	38286	106259	0	0	8115	803075	0	0
2024-05-02 07:40:32			0	33107	0	0	0	17267	15880	156457	27751	958588	38308	106263	0	0	8114	804384	0	0
2024-05-02 07:41:32			0	33122	0	0	0	17259	15890	156425	27621	958657	38287	106260	0	0	8115	803560	0	0
2024-05-02 07:42:32			0	33082	0	0	0	17267	15890	156509	27850	958683	38297	106263	0	0	8112	805643	0	0
2024-05-02 07:43:32			0	33093	0	0	0	17262	15870	156657	27635	958658	38286	106261	0	0	8113	805157	0	0
2024-05-02 07:44:32			0	33068	0	0	0	17264	15880	156485	27438	958728	38297	106262	0	0	8111	806417	0	0
2024-05-02 07:45:32			0	33075	0	0	0	17259	15890	156621	27504	958736	38297	106260	0	0	8112	806008	0	0
2024-05-02 07:46:32			0	33075	0	0	0	17259	15880	156609	27783	958667	38286	106260	0	0	8112	806052	0	0
2024-05-02 07:47:32			0	33082	0	0	0	17257	15880	156553	27542	958641	38286	106259	0	0	8112	805687	0	0
2024-05-02 07:48:32			0	33087	0	0	0	17257	15880	156505	27946	958667	38286	106259	0	0	8113	805426	0	0
2024-05-02 07:49:32			0	33089	0	0	0	17257	15880	156637	27850	958649	38287	106259	0	0	8113	805322	0	0
2024-05-02 07:50:32			0	33084	0	0	0	17259	15880	156513	27476	958622	38297	106260	0	0	8112	805582	0	0
2024-05-02 07:51:32			0	33098	0	0	0	17259	15890	156601	27504	958631	38287	106260	0	0	8113	804809	0	0
2024-05-02 07:52:32			0	33086	0	0	0	17264	15880	156561	27708	958649	38308	106262	0	0	8112	805478	0	0
2024-05-02 07:53:32			0	33081	0	0	0	17262	15880	156537	27753	958649	38276	106261	0	0	8112	805739	0	0
2024-05-02 07:54:32			0	33102	0	0	0	17262	15880	156517	27395	958667	38296	106261	0	0	8113	804645	0	0
2024-05-02 07:55:32			0	33086	0	0	0	17264	15890	156569	27604	958657	38297	106262	0	0	8112	805435	0	0
2024-05-02 07:56:32			0	33088	0	0	0	17259	15880	156565	27343	958754	38287	106260	0	0	8113	805374	0	0
2024-05-02 07:57:32			0	33083	0	0	0	17264	15890	156573	27812	958683	38308	106262	0	0	8112	805591	0	0
2024-05-02 07:58:32			0	33096	0	0	0	17275	15890	156589	27930	958762	38297	106266	0	0	8113	804914	0	0
2024-05-02 07:59:32			0	33075	0	0	0	17277	15890	156597	27862	958710	38287	106267	0	0	8112	806008	0	0
2024-05-02 08:00:32			0	33076	0	0	0	17267	15890	156493	27478	958710	38287	106263	0	0	8112	805956	0	0
2024-05-02 08:01:32			0	33093	0	0	0	17270	15890	156529	27717	958770	38276	106264	0	0	8113	805070	0	0
2024-05-02 08:02:32			0	33095	0	0	0	17275	15890	156517	27711	958762	38287	106266	0	0	8113	804966	0	0
2024-05-02 08:03:32			0	33103	0	0	0	17270	15890	156593	27869	958744	38297	106264	0	0	8113	804549	0	0
2024-05-02 08:04:32			0	33094	0	0	0	17270	15880	156485	27618	958728	38297	106264	0	0	8113	805061	0	0
2024-05-02 08:05:32			0	33100	0	0	0	17272	15890	156461	27554	958744	38297	106265	0	0	8113	804705	0	0
2024-05-02 08:06:32			0	33092	0	0	0	17280	15880	156561	27736	958720	38286	106268	0	0	8112	805166	0	0
2024-05-02 08:07:32			0	33103	0	0	0	17277	15890	156621	27897	958770	38297	106267	0	0	8113	804549	0	0
2024-05-02 08:08:32			0	33107	0	0	0	17280	15890	156529	27514	958691	38308	106268	0	0	8113	804341	0	0
2024-05-02 08:09:32			0	33108	0	0	0	17272	15890	156549	27569	958710	38297	106265	0	0	8114	804289	0	0
2024-05-02 08:10:32			0	33106	0	0	0	17270	15900	156469	27900	958752	38298	106264	0	0	8114	804350	0	0
2024-05-02 08:11:32			0	33092	0	0	0	17285	15890	156509	27861	958770	38287	106270	0	0	8112	805122	0	0
2024-05-02 08:12:32			0	33096	0	0	0	17283	15890	156585	27649	958770	38297	106269	0	0	8113	804914	0	0
2024-05-02 08:13:32			0	33095	0	0	0	17275	15900	156497	27595	958779	38298	106266	0	0	8113	804922	0	0
2024-05-02 08:14:32			0	33096	0	0	0	17277	15900	156533	27758	958805	38298	106267	0	0	8113	804870	0	0
2024-05-02 08:15:32			0	33102	0	0	0	17290	15900	156629	28043	958752	38298	106272	0	0	8113	804558	0	0
2024-05-02 08:16:32			0	33100	0	0	0	17275	15910	156433	27854	958795	38289	106266	0	0	8113	804619	0	0
2024-05-02 08:17:32			0	33118	0	0	0	17283	15890	156449	27590	958691	38287	106269	0	0	8114	803768	0	0
2024-05-02 08:18:32			0	33129	0	0	0	17270	15900	156385	27848	958752	38298	106264	0	0	8115	803153	0	0
2024-05-02 08:19:32			0	33117	0	0	0	17272	15900	156425	27462	958779	38298	106265	0	0	8114	803777	0	0
2024-05-02 08:20:32			0	33108	0	0	0	17275	15900	156501	27281	958726	38288	106266	0	0	8114	804245	0	0
2024-05-02 08:21:32			0	33105	0	0	0	17272	15880	156637	27492	958701	38287	106265	0	0	8113	804488	0	0
2024-05-02 08:22:32			0	33098	0	0	0	17275	15900	156501	27670	958726	38298	106266	0	0	8113	804766	0	0
2024-05-02 08:23:32			0	33097	0	0	0	17283	15900	156581	27859	958760	38299	106269	0	0	8113	804818	0	0
2024-05-02 08:24:32			0	33073	0	0	0	17283	15900	156721	27772	958779	38298	106269	0	0	8111	806069	0	0
2024-05-02 08:25:32			0	33102	0	0	0	17277	15900	156677	27659	958752	38298	106267	0	0	8113	804558	0	0
2024-05-02 08:26:32			0	33090	0	0	0	17277	15900	156545	27680	958805	38298	106267	0	0	8112	805183	0	0
2024-05-02 08:27:32			0	33117	0	0	0	17272	15900	156561	27371	958805	38288	106265	0	0	8114	803777	0	0
2024-05-02 08:28:32			0	33121	0	0	0	17272	15890	156513	27847	958797	38297	106265	0	0	8114	803612	0	0
2024-05-02 08:29:32			0	33128	0	0	0	17277	15900	156545	27658	958752	38298	106267	0	0	8115	803205	0	0
2024-05-02 08:30:32			0	33143	0	0	0	17277	15900	156501	27329	958805	38298	106267	0	0	8116	802425	0	0
2024-05-02 08:31:32			0	33120	0	0	0	17285	15900	156485	27675	958866	38310	106270	0	0	8114	803621	0	0
2024-05-02 08:32:32			0	33114	0	0	0	17283	15900	156481	27793	958734	38289	106269	0	0	8114	803933	0	0
2024-05-02 08:33:32			0	33127	0	0	0	17283	15900	156561	27727	958760	38299	106269	0	0	8115	803257	0	0
2024-05-02 08:34:32			0	33119	0	0	0	17296	15900	156493	27772	958840	38289	106274	0	0	8114	803673	0	0
2024-05-02 08:35:32			0	33115	0	0	0	17296	15900	156529	27514	958760	38310	106274	0	0	8114	803881	0	0
2024-05-02 08:36:32			0	33103	0	0	0	17298	15910	156553	27859	958821	38299	106275	0	0	8113	804462	0	0
2024-05-02 08:37:32			0	33110	0	0	0	17296	15900	156565	27338	958760	38299	106274	0	0	8113	804141	0	0
2024-05-02 08:38:32			0	33119	0	0	0	17301	15920	156549	27665	958838	38290	106276	0	0	8114	803586	0	0
2024-05-02 08:39:32			0	33116	0	0	0	17296	15930	156629	27611	958880	38301	106274	0	0	8114	803699	0	0
2024-05-02 08:40:32			0	33102	0	0	0	17303	15930	156609	27379	958854	38301	106277	0	0	8113	804428	0	0
2024-05-02 08:41:32			0	33123	0	0	0	17309	15910	156521	27616	958882	38310	106279	0	0	8114	803422	0	0
2024-05-02 08:42:32			0	33111	0	0	0	17309	15910	156569	27249	958882	38289	106279	0	0	8113	804046	0	0
2024-05-02 08:43:32			0	33126	0	0	0	17301	15920	156513	27576	958838	38290	106276	0	0	8114	803222	0	0
2024-05-02 08:44:32			0	33116	0	0	0	17303	15930	156577	27543	958836	38301	106277	0	0	8114	803699	0	0
2024-05-02 08:45:32			0	33130	0	0	0	17296	15930	156449	27500	958907	38301	106274	0	0	8115	802971	0	0
2024-05-02 08:46:32			0	33123	0	0	0	17314	15920	156529	27336	958819	38312	106281	0	0	8114	803378	0	0
2024-05-02 08:47:32			0	33129	0	0	0	17309	15940	156397	27436	958897	38291	106279	0	0	8114	802980	0	0
2024-05-02 08:48:32			0	33134	0	0	0	17316	15930	156389	27607	958907	38301	106282	0	0	8115	802763	0	0
2024-05-02 08:49:32			0	33143	0	0	0	17316	15930	156397	27597	958959	38312	106282	0	0	8115	802295	0	0
2024-05-02 08:50:32			0	33152	0	0	0	17296	15940	156369	27696	958870	38313	106274	0	0	8116	801785	0	0
2024-05-02 08:51:32			0	33157	0	0	0	17301	15930	156261	27227	958862	38301	106276	0	0	8116	801568	0	0
2024-05-02 08:52:32			0	33161	0	0	0	17306	15930	156261	27530	958828	38301	106278	0	0	8116	801361	0	0
2024-05-02 08:53:32			0	33174	0	0	0	17309	15940	156217	27592	958923	38313	106279	0	0	8117	800643	0	0
2024-05-02 08:54:32			0	33175	0	0	0	17311	15930	156173	27479	958854	38312	106280	0	0	8117	800635	0	0
2024-05-02 08:55:32			0	33188	0	0	0	17311	15930	156157	27348	958941	38301	106280	0	0	8118	799961	0	0
2024-05-02 08:56:32			0	33197	0	0	0	17316	15950	156133	27405	958913	38314	106282	0	0	8119	799408	0	0
2024-05-02 08:57:32			0	33202	0	0	0	17306	15950	156085	27355	958966	38291	106278	0	0	8119	799149	0	0
2024-05-02 08:58:32			0	33223	0	0	0	17311	15950	156089	27415	958887	38302	106280	0	0	8120	798062	0	0
2024-05-02 08:59:32			0	33227	0	0	0	17309	15940	156009	27774	958897	38302	106279	0	0	8120	797898	0	0
2024-05-02 09:00:32			0	33232	0	0	0	17316	15950	155989	27575	958939	38302	106282	0	0	8121	797597	0	0
2024-05-02 09:01:32			0	33237	0	0	0	17316	15930	155909	27483	958915	38301	106282	0	0	8121	797425	0	0
2024-05-02 09:02:32			0	33246	0	0	0	17316	15940	155849	27474	958923	38291	106282	0	0	8121	796916	0	0
2024-05-02 09:03:32			0	33249	0	0	0	17319	15940	155953	27874	958905	38302	106283	0	0	8122	796761	0	0
2024-05-02 09:04:32			0	33269	0	0	0	17371	15940	155913	27573	958984	38302	106303	0	0	8122	795729	0	0
2024-05-02 09:05:32			0	33263	0	0	0	17392	15950	155809	27519	959027	38326	106311	0	0	8121	795996	0	0
2024-05-02 09:06:32			0	33264	0	0	0	17394	15960	155857	27673	959096	38315	106312	0	0	8121	795901	0	0
2024-05-02 09:07:32			0	33249	0	0	0	17397	15970	155873	27713	959156	38315	106313	0	0	8120	796632	0	0
2024-05-02 09:08:32			0	33239	0	0	0	17355	15970	155805	27729	959086	38305	106297	0	0	8120	797149	0	0
2024-05-02 09:09:32			0	33252	0	0	0	17355	15970	155877	27784	959130	38315	106297	0	0	8121	796478	0	0
2024-05-02 09:10:32			0	33273	0	0	0	17371	15980	155809	27613	959146	38294	106303	0	0	8122	795351	0	0
2024-05-02 09:11:32			0	33272	0	0	0	17366	15980	155785	27556	959067	38316	106301	0	0	8122	795403	0	0
2024-05-02 09:12:32			0	33274	0	0	0	17348	15970	155741	27866	959165	38305	106294	0	0	8123	795342	0	0
2024-05-02 09:13:32			0	33274	0	0	0	17340	15980	155677	27880	959146	38305	106291	0	0	8123	795299	0	0
2024-05-02 09:14:32			0	33279	0	0	0	17329	15970	155597	27724	959104	38304	106287	0	0	8123	795084	0	0
2024-05-02 09:15:32			0	33304	0	0	0	17363	15980	155633	27530	959076	38306	106300	0	0	8124	793753	0	0
2024-05-02 09:16:32			0	33300	0	0	0	17368	15980	155605	27795	959128	38306	106302	0	0	8124	793959	0	0
2024-05-02 09:17:32			0	33319	0	0	0	17361	15980	155529	27812	959120	38316	106299	0	0	8125	792981	0	0
2024-05-02 09:18:32			0	33323	0	0	0	17379	15990	155489	27954	959136	38307	106306	0	0	8125	792733	0	0
2024-05-02 09:19:32			0	33315	0	0	0	17355	15990	155453	27682	959189	38295	106297	0	0	8125	793144	0	0
2024-05-02 09:20:32			0	33311	0	0	0	17340	15990	155493	27543	959136	38307	106291	0	0	8125	793350	0	0
2024-05-02 09:21:32			0	33313	0	0	0	17376	15990	155401	27892	959110	38318	106305	0	0	8125	793247	0	0
2024-05-02 09:22:32			0	33335	0	0	0	17345	15990	155405	27656	959110	38318	106293	0	0	8127	792116	0	0
2024-05-02 09:23:32			0	33333	0	0	0	17348	15990	155377	27651	959136	38307	106294	0	0	8126	792218	0	0
2024-05-02 09:24:32			0	33333	0	0	0	17355	15990	155369	27514	959171	38307	106297	0	0	8126	792218	0	0
2024-05-02 09:25:32			0	33345	0	0	0	17371	15990	155369	27455	959171	38318	106303	0	0	8127	791602	0	0
2024-05-02 09:26:32			0	33340	0	0	0	17350	15990	155361	27249	959197	38318	106295	0	0	8127	791859	0	0
2024-05-02 09:27:32			0	33350	0	0	0	17345	15990	155281	27909	959092	38307	106293	0	0	8127	791345	0	0
2024-05-02 09:28:32			0	33356	0	0	0	17358	16000	155241	27365	959161	38307	106298	0	0	8128	790994	0	0
2024-05-02 09:29:32			0	33379	0	0	0	17405	16000	155329	27486	959179	38295	106316	0	0	8128	789814	0	0
2024-05-02 09:30:32			0	33378	0	0	0	17368	16000	155285	27519	959161	38330	106302	0	0	8129	789865	0	0
2024-05-02 09:31:32			0	33391	0	0	0	17412	16000	155245	27398	959267	38330	106319	0	0	8129	789199	0	0
2024-05-02 09:32:32			0	33393	0	0	0	17374	16000	155217	27248	959240	38319	106304	0	0	8130	789096	0	0
2024-05-02 09:33:32			0	33397	0	0	0	17384	16020	155157	27493	959265	38309	106308	0	0	8130	788806	0	0
2024-05-02 09:34:32			0	33377	0	0	0	17381	16020	155157	27767	959238	38309	106307	0	0	8129	789831	0	0
2024-05-02 09:35:32			0	33398	0	0	0	17381	16010	155137	27537	959222	38319	106307	0	0	8130	788798	0	0
2024-05-02 09:36:32			0	33390	0	0	0	17363	16010	155125	27438	959222	38308	106300	0	0	8130	789207	0	0
2024-05-02 09:37:32			0	33392	0	0	0	17350	16000	155053	27355	959214	38307	106295	0	0	8130	789148	0	0
2024-05-02 09:38:32			0	33403	0	0	0	17366	16010	155081	27251	959248	38308	106301	0	0	8130	788541	0	0
2024-05-02 09:39:32			0	33413	0	0	0	17376	16010	155073	27306	959230	38308	106305	0	0	8131	788030	0	0
2024-05-02 09:40:32			0	33403	0	0	0	17389	16010	155045	27182	959169	38308	106310	0	0	8130	788541	0	0
2024-05-02 09:41:32			0	33417	0	0	0	17374	16020	155121	27381	959238	38320	106304	0	0	8131	787782	0	0
2024-05-02 09:42:32			0	33427	0	0	0	17353	16020	154921	27800	959238	38320	106296	0	0	8132	787271	0	0
2024-05-02 09:43:32			0	33440	0	0	0	17366	16020	154989	27343	959220	38320	106301	0	0	8133	786606	0	0
2024-05-02 09:44:32			0	33427	0	0	0	17353	16010	154897	27329	959230	38308	106296	0	0	8132	787313	0	0
2024-05-02 09:45:32			0	33431	0	0	0	17386	16000	154853	27393	959188	38307	106309	0	0	8132	787151	0	0
2024-05-02 09:46:32			0	33460	0	0	0	17355	16020	154881	27698	959238	38309	106297	0	0	8134	785584	0	0
2024-05-02 09:47:32			0	33468	0	0	0	17345	16000	154901	27396	959188	38307	106293	0	0	8134	785261	0	0
2024-05-02 09:48:32			0	33454	0	0	0	17433	16010	154941	27386	959283	38319	106327	0	0	8132	785933	0	0
2024-05-02 09:49:32			0	33447	0	0	0	17399	16020	154961	27987	959326	38320	106314	0	0	8132	786248	0	0
2024-05-02 09:50:32			0	33456	0	0	0	17394	16020	154861	27776	959291	38298	106312	0	0	8133	785788	0	0
2024-05-02 09:51:32			0	33452	0	0	0	17425	16020	154789	27758	959317	38331	106324	0	0	8132	785993	0	0
2024-05-02 09:52:32			0	33453	0	0	0	17425	16020	154721	27597	959352	38320	106324	0	0	8132	785942	0	0
2024-05-02 09:53:32			0	33462	0	0	0	17418	16030	154801	27486	959316	38310	106321	0	0	8133	785440	0	0
2024-05-02 09:54:32			0	33475	0	0	0	17410	16030	154789	27597	959334	38321	106318	0	0	8134	784776	0	0
2024-05-02 09:55:32			0	33471	0	0	0	17381	16040	154765	27647	959350	38311	106307	0	0	8134	784938	0	0
2024-05-02 09:56:32			0	33477	0	0	0	17386	16040	154753	27635	959350	38311	106309	0	0	8135	784632	0	0
2024-05-02 09:57:32			0	33468	0	0	0	17386	16030	154657	27802	959342	38310	106309	0	0	8134	785134	0	0
2024-05-02 09:58:32			0	33472	0	0	0	17410	16040	154609	27466	959324	38322	106318	0	0	8134	784887	0	0
2024-05-02 09:59:32			0	33483	0	0	0	17418	16040	154605	27677	959376	38300	106321	0	0	8134	784326	0	0
2024-05-02 10:00:32			0	33467	0	0	0	17415	16030	154725	27618	959316	38321	106320	0	0	8133	785185	0	0
2024-05-02 10:01:32			0	33482	0	0	0	17407	16040	154617	27666	959385	38322	106317	0	0	8134	784377	0	0
2024-05-02 10:02:32			0	33490	0	0	0	17379	16040	154629	27940	959350	38311	106306	0	0	8135	783969	0	0
2024-05-02 10:03:32			0	33492	0	0	0	17405	16030	154617	27743	959289	38310	106316	0	0	8135	783910	0	0
2024-05-02 10:04:32			0	33484	0	0	0	17405	16040	154629	27440	959332	38300	106316	0	0	8135	784275	0	0
2024-05-02 10:05:32			0	33486	0	0	0	17451	16040	154677	27564	959350	38311	106334	0	0	8134	784173	0	0
2024-05-02 10:06:32			0	33500	0	0	0	17436	16040	154581	27561	959306	38300	106328	0	0	8135	783460	0	0
2024-05-02 10:07:32			0	33496	0	0	0	17446	16050	154629	27376	959419	38323	106332	0	0	8135	783621	0	0
2024-05-02 10:08:32			0	33507	0	0	0	17425	16050	154617	27616	959375	38312	106324	0	0	8136	783061	0	0
2024-05-02 10:09:32			0	33497	0	0	0	17405	16050	154621	27653	959366	38323	106316	0	0	8135	783570	0	0
2024-05-02 10:10:32			0	33505	0	0	0	17394	16040	154545	27450	959306	38311	106312	0	0	8136	783205	0	0
2024-05-02 10:11:32			0	33509	0	0	0	17381	16040	154629	27383	959297	38322	106307	0	0	8137	783001	0	0
2024-05-02 10:12:32			0	33503	0	0	0	17389	16050	154593	27822	959366	38323	106310	0	0	8136	783265	0	0
2024-05-02 10:13:32			0	33494	0	0	0	17394	16050	154581	27473	959393	38312	106312	0	0	8135	783723	0	0
2024-05-02 10:14:32			0	33498	0	0	0	17410	16050	154641	27393	959393	38333	106318	0	0	8135	783519	0	0
2024-05-02 10:15:32			0	33514	0	0	0	17433	16050	154469	27537	959366	38312	106327	0	0	8136	782704	0	0
2024-05-02 10:16:32			0	33520	0	0	0	17446	16050	154561	27845	959427	38323	106332	0	0	8136	782399	0	0
2024-05-02 10:17:32			0	33536	0	0	0	17470	16060	154713	27386	959515	38324	106341	0	0	8137	781543	0	0
2024-05-02 10:18:32			0	33512	0	0	0	17493	16060	154621	27447	959549	38334	106350	0	0	8135	782764	0	0
2024-05-02 10:19:32			0	33527	0	0	0	17483	16060	154493	27656	959549	38324	106346	0	0	8136	782001	0	0
2024-05-02 10:20:32			0	33551	0	0	0	17488	16050	154537	27620	959480	38323	106348	0	0	8137	780823	0	0
2024-05-02 10:21:32			0	33543	0	0	0	17485	16070	154477	27611	959513	38325	106347	0	0	8137	781145	0	0
2024-05-02 10:22:32			0	33557	0	0	0	17498	16080	154413	27644	959547	38325	106352	0	0	8138	780392	0	0
2024-05-02 10:23:32			0	33549	0	0	0	17506	16090	154437	27755	959590	38315	106355	0	0	8137	780756	0	0
2024-05-02 10:24:32			0	33547	0	0	0	17511	16090	154385	27225	959616	38336	106357	0	0	8137	780857	0	0
2024-05-02 10:25:32			0	33575	0	0	0	17501	16090	154389	27511	959651	38316	106353	0	0	8139	779436	0	0
2024-05-02 10:26:32			0	33577	0	0	0	17519	16100	154305	27377	959659	38337	106360	0	0	8138	779293	0	0
2024-05-02 10:27:32			0	33566	0	0	0	17493	16100	154238	27668	959633	38327	106350	0	0	8138	779851	0	0
2024-05-02 10:28:32			0	33580	0	0	0	17498	16100	154266	27699	959667	38328	106352	0	0	8139	779140	0	0
2024-05-02 10:29:32			0	33565	0	0	0	17501	16100	154341	27814	959641	38338	106353	0	0	8138	779901	0	0
2024-05-02 10:30:32			0	33600	0	0	0	17477	16120	154182	27379	959692	38339	106344	0	0	8141	778043	0	0
2024-05-02 10:31:32			0	33574	0	0	0	17493	16110	154166	27644	959683	38329	106350	0	0	8139	779403	0	0
2024-05-02 10:32:32			0	33576	0	0	0	17503	16110	154186	27746	959631	38329	106354	0	0	8139	779301	0	0
2024-05-02 10:33:32			0	33563	0	0	0	17516	16110	154257	27251	959710	38318	106359	0	0	8138	779961	0	0
2024-05-02 10:34:32			0	33583	0	0	0	17514	16110	154286	27566	959683	38329	106358	0	0	8139	778946	0	0
2024-05-02 10:35:32			0	33570	0	0	0	17532	16120	154253	27369	959718	38339	106365	0	0	8138	779564	0	0
2024-05-02 10:36:32			0	33598	0	0	0	17553	16110	154194	27485	959736	38339	106373	0	0	8139	778186	0	0
2024-05-02 10:37:32			0	33588	0	0	0	17555	16130	154058	27848	959814	38330	106374	0	0	8139	778609	0	0
2024-05-02 10:38:32			0	33601	0	0	0	17555	16140	154114	27836	959804	38341	106374	0	0	8139	777908	0	0
2024-05-02 10:39:32			0	33630	0	0	0	17558	16140	154094	27755	959804	38341	106375	0	0	8141	776440	0	0
2024-05-02 10:40:32			0	33615	0	0	0	17540	16140	153978	27495	959838	38320	106368	0	0	8141	777199	0	0
2024-05-02 10:41:32			0	33637	0	0	0	17537	16150	153866	27810	959846	38332	106367	0	0	8142	776044	0	0
2024-05-02 10:42:32			0	33639	0	0	0	17516	16150	153974	27604	959873	38321	106359	0	0	8142	775943	0	0
2024-05-02 10:43:32			0	33634	0	0	0	17519	16150	153990	27734	959881	38332	106360	0	0	8142	776196	0	0
2024-05-02 10:44:32			0	33628	0	0	0	17524	16140	154026	27486	959838	38331	106362	0	0	8142	776542	0	0
2024-05-02 10:45:32			0	33634	0	0	0	17563	16150	154086	27421	959855	38332	106377	0	0	8141	776196	0	0
2024-05-02 10:46:32			0	33617	0	0	0	17553	16160	154022	27536	959836	38342	106373	0	0	8141	777014	0	0
2024-05-02 10:47:32			0	33628	0	0	0	17555	16160	153986	27542	959889	38342	106374	0	0	8141	776458	0	0
2024-05-02 10:48:32			0	33620	0	0	0	17574	16170	154110	27665	959897	38333	106381	0	0	8140	776820	0	0
2024-05-02 10:49:32			0	33628	0	0	0	17584	16170	153950	27634	959897	38354	106385	0	0	8141	776416	0	0
2024-05-02 10:50:32			0	33646	0	0	0	17579	16180	153914	27300	959940	38344	106383	0	0	8142	775464	0	0
2024-05-02 10:51:32			0	33653	0	0	0	17589	16180	153858	27173	959966	38344	106387	0	0	8142	775111	0	0
2024-05-02 10:52:32			0	33649	0	0	0	17599	16190	153878	27300	960035	38345	106391	0	0	8142	775271	0	0
2024-05-02 10:53:32			0	33649	0	0	0	17561	16190	153842	27448	959991	38335	106376	0	0	8142	775271	0	0
2024-05-02 10:54:32			0	33668	0	0	0	17618	16190	153850	27634	960017	38346	106398	0	0	8143	774312	0	0
2024-05-02 10:55:32			0	33663	0	0	0	17561	16200	153782	27649	960025	38335	106376	0	0	8143	774522	0	0
2024-05-02 10:56:32			0	33660	0	0	0	17584	16200	153706	27590	960025	38347	106385	0	0	8143	774673	0	0
2024-05-02 10:57:32			0	33665	0	0	0	17574	16190	153766	27360	959964	38335	106381	0	0	8143	774463	0	0
2024-05-02 10:58:32			0	33657	0	0	0	17571	16190	153738	27691	959991	38346	106380	0	0	8143	774867	0	0
2024-05-02 10:59:32			0	33677	0	0	0	17579	16200	153718	27625	960007	38335	106383	0	0	8144	773816	0	0
2024-05-02 11:00:32			0	33669	0	0	0	17587	16200	153686	27549	960060	38347	106386	0	0	8143	774219	0	0
2024-05-02 11:01:32			0	33667	0	0	0	17599	16210	153714	27424	960015	38358	106391	0	0	8143	774278	0	0
2024-05-02 11:02:32			0	33686	0	0	0	17581	16210	153606	27611	960068	38347	106384	0	0	8144	773320	0	0
2024-05-02 11:03:32			0	33680	0	0	0	17594	16210	153610	27433	960042	38347	106389	0	0	8144	773623	0	0
2024-05-02 11:04:32			0	33688	0	0	0	17589	16210	153678	27476	960173	38347	106387	0	0	8144	773220	0	0
2024-05-02 11:05:32			0	33711	0	0	0	17605	16210	153526	27559	960103	38347	106393	0	0	8145	772061	0	0
2024-05-02 11:06:32			0	33723	0	0	0	17620	16220	153546	27504	960119	38359	106399	0	0	8146	771416	0	0
2024-05-02 11:07:32			0	33724	0	0	0	17563	16210	153502	27538	960103	38358	106377	0	0	8147	771407	0	0
2024-05-02 11:08:32			0	33727	0	0	0	17566	16220	153426	27670	960032	38348	106378	0	0	8147	771214	0	0
2024-05-02 11:09:32			0	33711	0	0	0	17589	16210	153518	27791	960015	38335	106387	0	0	8146	772061	0	0
2024-05-02 11:10:32			0	33727	0	0	0	17571	16210	153514	27635	960023	38336	106380	0	0	8147	771256	0	0
2024-05-02 11:11:32			0	33730	0	0	0	17610	16210	153458	27509	960094	38347	106395	0	0	8146	771105	0	0
2024-05-02 11:12:32			0	33738	0	0	0	17615	16210	153522	27757	960076	38336	106397	0	0	8147	770703	0	0
2024-05-02 11:13:32			0	33750	0	0	0	17618	16240	153374	27379	960091	38361	106398	0	0	8148	769975	0	0
2024-05-02 11:14:32			0	33746	0	0	0	17587	16230	153326	27668	960135	38338	106386	0	0	8148	770218	0	0
2024-05-02 11:15:32			0	33770	0	0	0	17589	16220	153326	27727	960145	38337	106387	0	0	8149	769054	0	0
2024-05-02 11:16:32			0	33769	0	0	0	17612	16240	153262	27675	960143	38350	106396	0	0	8149	769021	0	0
2024-05-02 11:17:32			0	33781	0	0	0	17636	16230	153266	27862	960109	38338	106405	0	0	8149	768461	0	0
2024-05-02 11:18:32			0	33775	0	0	0	17646	16240	153210	27897	960152	38361	106409	0	0	8149	768720	0	0
2024-05-02 11:19:32			0	33810	0	0	0	17623	16240	153178	27836	960257	38350	106400	0	0	8151	766966	0	0
2024-05-02 11:20:32			0	33807	0	0	0	17618	16250	153154	27888	960186	38350	106398	0	0	8151	767075	0	0
2024-05-02 11:21:32			0	33819	0	0	0	17599	16240	153094	27497	960257	38361	106391	0	0	8152	766516	0	0
2024-05-02 11:22:32			0	33814	0	0	0	17638	16250	153102	27810	960292	38339	106406	0	0	8151	766725	0	0
2024-05-02 11:23:32			0	33805	0	0	0	17602	16240	153050	27850	960178	38361	106392	0	0	8151	767217	0	0
2024-05-02 11:24:32			0	33808	0	0	0	17589	16240	153050	27758	960170	38339	106387	0	0	8152	767067	0	0
2024-05-02 11:25:32			0	33811	0	0	0	17605	16240	153070	27805	960178	38350	106393	0	0	8151	766916	0	0
2024-05-02 11:26:32			0	33823	0	0	0	17649	16240	153038	27516	960143	38350	106410	0	0	8151	766316	0	0
2024-05-02 11:27:32			0	33815	0	0	0	17610	16250	153002	27779	960300	38351	106395	0	0	8152	766675	0	0
2024-05-02 11:28:32			0	33821	0	0	0	17607	16250	153098	27914	960107	38361	106394	0	0	8152	766374	0	0
2024-05-02 11:29:32			0	33862	0	0	0	17597	16250	152958	27609	960186	38361	106390	0	0	8155	764325	0	0
2024-05-02 11:30:32			0	33829	0	0	0	17615	16260	153142	27783	960203	38352	106397	0	0	8152	765933	0	0
2024-05-02 11:31:32			0	33842	0	0	0	17597	16260	152982	27985	960203	38352	106390	0	0	8154	765283	0	0
2024-05-02 11:32:32			0	33831	0	0	0	17651	16240	153046	28112	960125	38350	106411	0	0	8152	765916	0	0
2024-05-02 11:33:32			0	33834	0	0	0	17625	16260	152974	28029	960343	38364	106401	0	0	8153	765683	0	0
2024-05-02 11:34:32			0	33848	0	0	0	17677	16260	152986	27616	960343	38352	106421	0	0	8152	764983	0	0
2024-05-02 11:35:32			0	33854	0	0	0	17605	16260	152850	27554	960290	38364	106393	0	0	8154	764683	0	0
2024-05-02 11:36:32			0	33867	0	0	0	17636	16270	152926	27488	960280	38352	106405	0	0	8154	763993	0	0
2024-05-02 11:37:32			0	33852	0	0	0	17638	16260	152842	27947	960343	38364	106406	0	0	8153	764783	0	0
2024-05-02 11:38:32			0	33873	0	0	0	17646	16260	152918	27828	960290	38352	106409	0	0	8154	763735	0	0
2024-05-02 11:39:32			0	33857	0	0	0	17646	16260	152770	27887	960335	38352	106409	0	0	8154	764534	0	0
2024-05-02 11:40:32			0	33893	0	0	0	17644	16280	152710	27878	960315	38353	106408	0	0	8156	762655	0	0
2024-05-02 11:41:32			0	33875	0	0	0	17664	16270	152786	28077	960333	38364	106416	0	0	8154	763594	0	0
2024-05-02 11:42:32			0	33858	0	0	0	17659	16260	152862	27588	960369	38352	106414	0	0	8153	764483	0	0
2024-05-02 11:43:32			0	33864	0	0	0	17683	16270	152838	27959	960385	38364	106423	0	0	8153	764143	0	0
2024-05-02 11:44:32			0	33872	0	0	0	17683	16280	152794	27618	960420	38364	106423	0	0	8154	763702	0	0
2024-05-02 11:45:32			0	33866	0	0	0	17659	16280	152858	28037	960394	38364	106414	0	0	8154	764002	0	0
2024-05-02 11:46:32			0	33876	0	0	0	17696	16280	152826	27528	960428	38365	106428	0	0	8154	763503	0	0
2024-05-02 11:47:32			0	33882	0	0	0	17719	16290	152682	27977	960471	38365	106437	0	0	8154	763162	0	0
2024-05-02 11:48:32			0	33873	0	0	0	17716	16300	152738	27989	960558	38355	106436	0	0	8153	763570	0	0
2024-05-02 11:49:32			0	33901	0	0	0	17709	16300	152598	27627	960505	38355	106433	0	0	8155	762174	0	0
2024-05-02 11:50:32			0	33908	0	0	0	17698	16300	152578	27452	960540	38367	106429	0	0	8156	761825	0	0
2024-05-02 11:51:32			0	33899	0	0	0	17716	16310	152622	27421	960583	38356	106436	0	0	8155	762232	0	0
2024-05-02 11:52:32			0	33924	0	0	0	17709	16310	152486	28006	960522	38367	106433	0	0	8157	760988	0	0
2024-05-02 11:53:32			0	33931	0	0	0	17714	16310	152398	27443	960556	38367	106435	0	0	8157	760640	0	0
2024-05-02 11:54:32			0	33933	0	0	0	17703	16310	152514	27710	960601	38367	106431	0	0	8157	760540	0	0
2024-05-02 11:55:32			0	33919	0	0	0	17729	16320	152618	27805	960625	38379	106441	0	0	8156	761195	0	0
2024-05-02 11:56:32			0	33933	0	0	0	17719	16320	152550	27942	960678	38369	106437	0	0	8157	760499	0	0
2024-05-02 11:57:32			0	33945	0	0	0	17729	16320	152418	28008	960625	38369	106441	0	0	8158	759902	0	0
2024-05-02 11:58:32			0	33929	0	0	0	17714	16330	152442	28419	960642	38358	106435	0	0	8157	760657	0	0
2024-05-02 11:59:32			0	33944	0	0	0	17753	16340	152454	27781	960624	38358	106450	0	0	8157	759870	0	0
2024-05-02 12:00:32			0	33962	0	0	0	17776	16350	152482	27953	960745	38371	106459	0	0	8158	758935	0	0
2024-05-02 12:01:32			0	33966	0	0	0	17781	16340	152326	27724	960737	38380	106461	0	0	8158	758777	0	0
2024-05-02 12:02:32			0	33969	0	0	0	17740	16360	152290	27996	960735	38381	106445	0	0	8159	758546	0	0
2024-05-02 12:03:32			0	33990	0	0	0	17750	16360	152314	28065	960743	38382	106449	0	0	8160	757505	0	0
2024-05-02 12:04:32			0	33996	0	0	0	17755	16360	152250	27706	960762	38381	106451	0	0	8160	757208	0	0
2024-05-02 12:05:32			0	34014	0	0	0	17797	16360	152270	27500	960796	38372	106467	0	0	8161	756316	0	0
2024-05-02 12:06:32			0	33992	0	0	0	17784	16360	152222	27537	960875	38382	106462	0	0	8160	757406	0	0
2024-05-02 12:07:32			0	34009	0	0	0	17735	16370	152110	27549	960760	38383	106443	0	0	8161	756523	0	0
2024-05-02 12:08:32			0	33976	0	0	0	17771	16380	152230	27412	960776	38363	106457	0	0	8159	758117	0	0
2024-05-02 12:09:32			0	33995	0	0	0	17802	16380	152206	27814	960829	38363	106469	0	0	8160	757175	0	0
2024-05-02 12:10:32			0	34012	0	0	0	17776	16390	152206	27346	960898	38375	106459	0	0	8161	756292	0	0
2024-05-02 12:11:32			0	34025	0	0	0	17799	16380	152126	27953	960856	38374	106468	0	0	8161	755690	0	0
2024-05-02 12:12:32			0	34046	0	0	0	17794	16390	152046	27578	960872	38375	106466	0	0	8163	754611	0	0
2024-05-02 12:13:32			0	34036	0	0	0	17742	16390	152026	27923	960872	38375	106446	0	0	8163	755105	0	0
2024-05-02 12:14:32			0	34036	0	0	0	17792	16390	151962	27789	960925	38375	106465	0	0	8162	755105	0	0
2024-05-02 12:15:32			0	34055	0	0	0	17818	16410	152006	28015	960976	38386	106475	0	0	8163	754084	0	0
2024-05-02 12:16:32			0	34042	0	0	0	17766	16400	151926	27706	960994	38386	106455	0	0	8163	754767	0	0
2024-05-02 12:17:32			0	34053	0	0	0	17784	16400	151974	27902	960854	38386	106462	0	0	8163	754224	0	0
2024-05-02 12:18:32			0	34060	0	0	0	17851	16410	151914	27360	960984	38376	106488	0	0	8163	753837	0	0
2024-05-02 12:19:32			0	34070	0	0	0	17828	16410	151850	27640	960984	38376	106479	0	0	8164	753344	0	0
2024-05-02 12:20:32			0	34105	0	0	0	17753	16430	151742	27524	960964	38389	106450	0	0	8167	751537	0	0
2024-05-02 12:21:32			0	34071	0	0	0	17755	16420	151710	27338	960939	38366	106451	0	0	8165	753254	0	0
2024-05-02 12:22:32			0	34070	0	0	0	17867	16420	151906	27512	960939	38376	106494	0	0	8163	753303	0	0
2024-05-02 12:23:32			0	34080	0	0	0	17854	16430	151778	27966	960990	38378	106489	0	0	8164	752769	0	0
2024-05-02 12:24:32			0	34107	0	0	0	17825	16440	151658	27772	961104	38389	106478	0	0	8166	751398	0	0
2024-05-02 12:25:32			0	34114	0	0	0	17828	16440	151622	27942	961059	38411	106479	0	0	8166	751053	0	0
2024-05-02 12:26:32			0	34123	0	0	0	17849	16450	151602	27914	961067	38379	106487	0	0	8166	750569	0	0
2024-05-02 12:27:32			0	34119	0	0	0	17872	16450	151598	27913	961146	38379	106496	0	0	8166	750766	0	0
2024-05-02 12:28:32			0	34124	0	0	0	17859	16450	151602	28029	961181	38402	106491	0	0	8166	750520	0	0
2024-05-02 12:29:32			0	34148	0	0	0	17825	16470	151522	27620	961145	38392	106478	0	0	8168	749259	0	0
2024-05-02 12:30:32			0	34158	0	0	0	17844	16470	151454	27689	961197	38392	106485	0	0	8169	748768	0	0
2024-05-02 12:31:32			0	34151	0	0	0	17854	16470	151402	27741	961179	38392	106489	0	0	8168	749111	0	0
2024-05-02 12:32:32			0	34147	0	0	0	17877	16460	151494	27507	961163	38391	106498	0	0	8167	749349	0	0
2024-05-02 12:33:32			0	34142	0	0	0	17862	16470	151538	27391	961179	38403	106492	0	0	8167	749554	0	0
2024-05-02 12:34:32			0	34149	0	0	0	17877	16480	151410	27666	961214	38392	106498	0	0	8168	749169	0	0
2024-05-02 12:35:32			0	34160	0	0	0	17896	16480	151458	27836	961267	38403	106505	0	0	8168	748629	0	0
2024-05-02 12:36:32			0	34152	0	0	0	17932	16490	151402	27715	961283	38393	106519	0	0	8167	748981	0	0
2024-05-02 12:37:32			0	34182	0	0	0	17927	16490	151386	27353	961317	38393	106517	0	0	8169	747509	0	0
2024-05-02 12:38:32			0	34162	0	0	0	17906	16500	151294	27854	961334	38395	106509	0	0	8168	748450	0	0
2024-05-02 12:39:32			0	34187	0	0	0	17870	16510	151202	27543	961290	38406	106495	0	0	8170	747183	0	0
2024-05-02 12:40:32			0	34191	0	0	0	17901	16520	151270	27364	961332	38396	106507	0	0	8170	746946	0	0
2024-05-02 12:41:32			0	34214	0	0	0	17849	16500	151186	27367	961308	38384	106487	0	0	8172	745900	0	0
2024-05-02 12:42:32			0	34198	0	0	0	17828	16510	151170	27767	961237	38406	106479	0	0	8171	746644	0	0
2024-05-02 12:43:32			0	34188	0	0	0	17880	16500	151246	27505	961229	38395	106499	0	0	8170	747174	0	0
2024-05-02 12:44:32			0	34170	0	0	0	17888	16500	151262	27639	961281	38384	106502	0	0	8169	748057	0	0
2024-05-02 12:45:32			0	34205	0	0	0	17844	16500	151170	27507	961308	38395	106485	0	0	8171	746341	0	0
2024-05-02 12:46:32			0	34207	0	0	0	17862	16500	151110	27490	961220	38405	106492	0	0	8171	746243	0	0
2024-05-02 12:47:32			0	34190	0	0	0	17828	16510	151258	27582	961184	38384	106479	0	0	8171	747036	0	0
2024-05-02 12:48:32			0	34182	0	0	0	17844	16500	151174	27769	961229	38395	106485	0	0	8170	747468	0	0
2024-05-02 12:49:32			0	34185	0	0	0	17844	16500	151278	27843	961194	38394	106485	0	0	8170	747321	0	0
2024-05-02 12:50:32			0	34194	0	0	0	17833	16490	151290	27604	961133	38393	106481	0	0	8171	746920	0	0
2024-05-02 12:51:32			0	34161	0	0	0	17864	16490	151310	27592	961212	38415	106493	0	0	8169	748539	0	0
2024-05-02 12:52:32			0	34178	0	0	0	17872	16490	151278	27476	961186	38382	106496	0	0	8169	747705	0	0
2024-05-02 12:53:32			0	34196	0	0	0	17883	16490	151370	27566	961230	38393	106500	0	0	8170	746822	0	0
2024-05-02 12:54:32			0	34179	0	0	0	17901	16500	151346	27737	961273	38405	106507	0	0	8169	747615	0	0
2024-05-02 12:55:32			0	34166	0	0	0	17903	16500	151278	27736	961308	38406	106508	0	0	8168	748253	0	0
2024-05-02 12:56:32			0	34197	0	0	0	17877	16510	151150	27486	961342	38395	106498	0	0	8171	746693	0	0
2024-05-02 12:57:32			0	34219	0	0	0	17831	16510	151198	27478	961290	38384	106480	0	0	8173	745615	0	0
2024-05-02 12:58:32			0	34223	0	0	0	17786	16500	151110	27859	961255	38395	106463	0	0	8174	745460	0	0
2024-05-02 12:59:32			0	34186	0	0	0	17784	16500	151262	27913	961141	38383	106462	0	0	8171	747272	0	0
2024-05-02 13:00:32			0	34147	0	0	0	17846	16480	151414	27767	961143	38372	106486	0	0	8168	749268	0	0
2024-05-02 13:01:32			0	34159	0	0	0	17885	16480	151498	27654	961169	38382	106501	0	0	8168	748678	0	0
2024-05-02 13:02:32			0	34160	0	0	0	17859	16480	151474	27829	961275	38404	106491	0	0	8169	748629	0	0
2024-05-02 13:03:32			0	34195	0	0	0	17836	16490	151274	27845	961238	38372	106482	0	0	8171	746871	0	0
2024-05-02 13:04:32			0	34180	0	0	0	17828	16490	151254	27937	961186	38393	106479	0	0	8170	747607	0	0
2024-05-02 13:05:32			0	34173	0	0	0	17797	16480	151270	27972	961143	38393	106467	0	0	8170	747991	0	0
2024-05-02 13:06:32			0	34171	0	0	0	17794	16480	151286	27414	961082	38392	106466	0	0	8170	748089	0	0
2024-05-02 13:07:32			0	34146	0	0	0	17789	16470	151466	27672	961100	38380	106464	0	0	8169	749357	0	0
2024-05-02 13:08:32			0	34138	0	0	0	17729	16470	151446	27772	961092	38392	106441	0	0	8169	749750	0	0
2024-05-02 13:09:32			0	34114	0	0	0	17807	16470	151526	27854	961074	38380	106471	0	0	8167	750931	0	0
2024-05-02 13:10:32			0	34141	0	0	0	17805	16470	151670	27881	961126	38392	106470	0	0	8168	749603	0	0
2024-05-02 13:11:32			0	34146	0	0	0	17802	16470	151434	27770	961145	38403	106469	0	0	8169	749357	0	0
2024-05-02 13:12:32			0	34139	0	0	0	17898	16480	151438	27471	961187	38403	106506	0	0	8167	749661	0	0
2024-05-02 13:13:32			0	34159	0	0	0	17799	16470	151290	27409	961126	38380	106468	0	0	8169	748719	0	0
2024-05-02 13:14:32			0	34172	0	0	0	17948	16470	151358	27928	961197	38392	106525	0	0	8168	748080	0	0
2024-05-02 13:15:32			0	34215	0	0	0	17932	16490	151194	27718	961362	38393	106519	0	0	8171	745892	0	0
2024-05-02 13:16:32			0	34244	0	0	0	17948	16490	151074	27696	961397	38393	106525	0	0	8172	744473	0	0
2024-05-02 13:17:32			0	34252	0	0	0	17950	16500	150874	27462	961360	38395	106526	0	0	8172	744042	0	0
2024-05-02 13:18:32			0	34266	0	0	0	17864	16520	150890	27587	961420	38397	106493	0	0	8175	743277	0	0
2024-05-02 13:19:32			0	34256	0	0	0	17841	16520	150926	27767	961359	38407	106484	0	0	8175	743766	0	0
2024-05-02 13:20:32			0	34257	0	0	0	17885	16500	150974	27812	961360	38406	106501	0	0	8174	743797	0	0
2024-05-02 13:21:32			0	34244	0	0	0	17927	16500	150950	27613	961413	38406	106517	0	0	8172	744432	0	0
2024-05-02 13:22:32			0	34275	0	0	0	17953	16520	150838	27751	961490	38407	106527	0	0	8174	742838	0	0
2024-05-02 13:23:32			0	34297	0	0	0	17872	16530	150686	27459	961428	38408	106496	0	0	8176	741724	0	0
2024-05-02 13:24:32			0	34292	0	0	0	17922	16530	150850	27687	961489	38386	106515	0	0	8175	741968	0	0
2024-05-02 13:25:32			0	34305	0	0	0	17922	16530	150750	27575	961410	38409	106515	0	0	8176	741335	0	0
2024-05-02 13:26:32			0	34290	0	0	0	17836	16540	150678	27457	961479	38398	106482	0	0	8177	742026	0	0
2024-05-02 13:27:32			0	34292	0	0	0	17836	16530	150722	27616	961428	38408	106482	0	0	8177	741968	0	0
2024-05-02 13:28:32			0	34270	0	0	0	17825	16520	150890	27350	961227	38385	106478	0	0	8176	743082	0	0
2024-05-02 13:29:32			0	34240	0	0	0	17823	16510	151030	27729	961237	38374	106477	0	0	8174	744588	0	0
2024-05-02 13:30:32			0	34196	0	0	0	17818	16510	151090	27419	961184	38395	106475	0	0	8171	746742	0	0
2024-05-02 13:31:32			0	34202	0	0	0	17851	16500	151230	27452	961194	38394	106488	0	0	8171	746488	0	0
2024-05-02 13:32:32			0	34192	0	0	0	17815	16490	151106	27256	961238	38382	106474	0	0	8171	747018	0	0
2024-05-02 13:33:32			0	34186	0	0	0	17883	16500	151222	27777	961247	38394	106500	0	0	8170	747272	0	0
2024-05-02 13:34:32			0	34178	0	0	0	17797	16490	151250	27628	961204	38393	106467	0	0	8171	747705	0	0
2024-05-02 13:35:32			0	34158	0	0	0	17805	16480	151230	27324	961169	38382	106470	0	0	8169	748727	0	0
2024-05-02 13:36:32			0	34147	0	0	0	17792	16490	151334	27746	961177	38372	106465	0	0	8169	749227	0	0
2024-05-02 13:37:32			0	34161	0	0	0	17812	16480	151366	27296	961161	38392	106473	0	0	8169	748580	0	0
2024-05-02 13:38:32			0	34156	0	0	0	17836	16490	151338	27715	961204	38393	106482	0	0	8169	748785	0	0
2024-05-02 13:39:32			0	34153	0	0	0	17820	16480	151398	27545	961161	38381	106476	0	0	8169	748973	0	0
2024-05-02 13:40:32			0	34145	0	0	0	17810	16490	151450	27556	961151	38382	106472	0	0	8169	749325	0	0
2024-05-02 13:41:32			0	34135	0	0	0	17758	16470	151506	27781	961100	38380	106452	0	0	8169	749898	0	0
2024-05-02 13:42:32			0	34116	0	0	0	17766	16470	151602	27772	961074	38380	106455	0	0	8168	750833	0	0
2024-05-02 13:43:32			0	34099	0	0	0	17727	16440	151746	27500	960980	38368	106440	0	0	8167	751792	0	0
2024-05-02 13:44:32			0	34083	0	0	0	17781	16450	151790	27873	961041	38390	106461	0	0	8165	752540	0	0
2024-05-02 13:45:32			0	34070	0	0	0	17805	16450	151790	27720	960988	38379	106470	0	0	8164	753181	0	0
2024-05-02 13:46:32			0	34095	0	0	0	17857	16440	151726	27710	961077	38378	106490	0	0	8165	751989	0	0
2024-05-02 13:47:32			0	34121	0	0	0	17838	16450	151534	27876	961102	38391	106483	0	0	8167	750668	0	0
2024-05-02 13:48:32			0	34132	0	0	0	17786	16450	151418	27982	961094	38390	106463	0	0	8168	750127	0	0
2024-05-02 13:49:32			0	34109	0	0	0	17748	16450	151478	27640	961049	38379	106448	0	0	8167	751258	0	0
2024-05-02 13:50:32			0	34098	0	0	0	17789	16440	151714	27597	960946	38378	106464	0	0	8166	751841	0	0
2024-05-02 13:51:32			0	34099	0	0	0	17823	16440	151710	27625	961059	38368	106477	0	0	8165	751792	0	0
2024-05-02 13:52:32			0	34105	0	0	0	17805	16450	151726	27706	961094	38379	106470	0	0	8166	751455	0	0
2024-05-02 13:53:32			0	34100	0	0	0	17805	16440	151874	27535	961033	38389	106470	0	0	8166	751742	0	0
2024-05-02 13:54:32			0	34108	0	0	0	17771	16440	151774	27234	961033	38378	106457	0	0	8167	751348	0	0
2024-05-02 13:55:32			0	34084	0	0	0	17786	16440	151838	27512	961033	38378	106463	0	0	8165	752531	0	0
2024-05-02 13:56:32			0	34095	0	0	0	17774	16440	151770	27454	961025	38389	106458	0	0	8166	751989	0	0
2024-05-02 13:57:32			0	34099	0	0	0	17786	16430	151758	27613	961016	38378	106463	0	0	8166	751832	0	0
2024-05-02 13:58:32			0	34094	0	0	0	17786	16440	151806	27659	960972	38378	106463	0	0	8166	752038	0	0
2024-05-02 13:59:32			0	34091	0	0	0	17784	16440	151770	27403	961033	38378	106462	0	0	8166	752186	0	0
2024-05-02 14:00:32			0	34085	0	0	0	17768	16430	151854	27441	961016	38368	106456	0	0	8166	752523	0	0
2024-05-02 14:01:32			0	34073	0	0	0	17799	16430	151742	27486	960990	38368	106468	0	0	8164	753114	0	0
2024-05-02 14:02:32			0	34104	0	0	0	17802	16430	151674	27559	961016	38389	106469	0	0	8166	751586	0	0
2024-05-02 14:03:32			0	34093	0	0	0	17786	16430	151814	27358	961016	38389	106463	0	0	8166	752128	0	0
2024-05-02 14:04:32			0	34068	0	0	0	17792	16430	151786	27381	961008	38367	106465	0	0	8164	753361	0	0
2024-05-02 14:05:32			0	34077	0	0	0	17789	16430	151742	27666	960964	38389	106464	0	0	8165	752917	0	0
2024-05-02 14:06:32			0	34091	0	0	0	17776	16440	151766	27345	960998	38378	106459	0	0	8166	752186	0	0
2024-05-02 14:07:32			0	34074	0	0	0	17761	16440	151718	27438	960972	38389	106453	0	0	8165	753024	0	0
2024-05-02 14:08:32			0	34088	0	0	0	17797	16440	151718	27493	960998	38378	106467	0	0	8165	752334	0	0
2024-05-02 14:09:32			0	34074	0	0	0	17784	16430	151782	27298	961008	38388	106462	0	0	8165	753065	0	0
2024-05-02 14:10:32			0	34091	0	0	0	17753	16420	151862	27543	960921	38387	106450	0	0	8166	752267	0	0
2024-05-02 14:11:32			0	34096	0	0	0	17799	16410	151850	27312	960949	38386	106468	0	0	8166	752062	0	0
2024-05-02 14:12:32			0	34080	0	0	0	17774	16420	151874	27852	960974	38376	106458	0	0	8165	752810	0	0
2024-05-02 14:13:32			0	34095	0	0	0	17797	16430	151802	27545	961008	38377	106467	0	0	8166	752029	0	0
2024-05-02 14:14:32			0	34093	0	0	0	17786	16420	151874	27698	960947	38376	106463	0	0	8166	752169	0	0
2024-05-02 14:15:32			0	34087	0	0	0	17792	16430	151950	27601	961035	38388	106465	0	0	8165	752424	0	0
2024-05-02 14:16:32			0	34078	0	0	0	17786	16430	151842	27379	960982	38377	106463	0	0	8165	752868	0	0
2024-05-02 14:17:32			0	34078	0	0	0	17797	16410	151926	27469	960957	38376	106467	0	0	8165	752949	0	0
2024-05-02 14:18:32			0	34090	0	0	0	17805	16430	151890	27230	960982	38388	106470	0	0	8165	752276	0	0
2024-05-02 14:19:32			0	34109	0	0	0	17810	16440	151818	27677	961051	38368	106472	0	0	8166	751299	0	0
2024-05-02 14:20:32			0	34086	0	0	0	17786	16430	151914	27637	960982	38388	106463	0	0	8165	752473	0	0
2024-05-02 14:21:32			0	34085	0	0	0	17805	16430	151886	27341	961069	38389	106470	0	0	8165	752523	0	0
2024-05-02 14:22:32			0	34098	0	0	0	17818	16420	151914	27386	960992	38376	106475	0	0	8165	751922	0	0
2024-05-02 14:23:32			0	34091	0	0	0	17797	16430	151822	27296	961035	38388	106467	0	0	8165	752227	0	0
2024-05-02 14:24:32			0	34082	0	0	0	17802	16430	151846	27353	961016	38400	106469	0	0	8165	752670	0	0
2024-05-02 14:25:32			0	34082	0	0	0	17792	16430	151898	27692	961069	38378	106465	0	0	8165	752670	0	0
2024-05-02 14:26:32			0	34087	0	0	0	17776	16420	151830	27405	960992	38387	106459	0	0	8165	752464	0	0
2024-05-02 14:27:32			0	34062	0	0	0	17789	16430	152042	27377	961043	38389	106464	0	0	8164	753657	0	0
2024-05-02 14:28:32			0	34053	0	0	0	17779	16420	152074	27422	960974	38387	106460	0	0	8163	754142	0	0
2024-05-02 14:29:32			0	34048	0	0	0	17786	16410	152146	27170	960931	38387	106463	0	0	8163	754430	0	0
2024-05-02 14:30:32			0	34043	0	0	0	17768	16400	152082	27163	960941	38386	106456	0	0	8163	754718	0	0
2024-05-02 14:31:32			0	34023	0	0	0	17792	16410	152118	27322	960923	38375	106465	0	0	8161	755666	0	0
2024-05-02 14:32:32			0	34048	0	0	0	17799	16410	152154	27391	960957	38398	106468	0	0	8163	754430	0	0
2024-05-02 14:33:32			0	34055	0	0	0	17789	16410	152142	27343	960984	38376	106464	0	0	8163	754084	0	0
2024-05-02 14:34:32			0	34045	0	0	0	17786	16410	152098	27353	960957	38387	106463	0	0	8163	754578	0	0
2024-05-02 14:35:32			0	34030	0	0	0	17768	16410	152082	27511	960923	38398	106456	0	0	8162	755320	0	0
2024-05-02 14:36:32			0	34019	0	0	0	17779	16410	152214	27528	960878	38398	106460	0	0	8161	755864	0	0
2024-05-02 14:37:32			0	34017	0	0	0	17758	16410	152306	27469	960923	38375	106452	0	0	8162	755963	0	0
2024-05-02 14:38:32			0	33994	0	0	0	17755	16410	152238	27651	960878	38366	106451	0	0	8160	757102	0	0
2024-05-02 14:39:32			0	33991	0	0	0	17768	16400	152310	27253	960915	38375	106456	0	0	8160	757291	0	0
2024-05-02 14:40:32			0	33987	0	0	0	17737	16400	152294	27358	960862	38386	106444	0	0	8160	757490	0	0
2024-05-02 14:41:32			0	33961	0	0	0	17735	16400	152450	27457	960854	38364	106443	0	0	8159	758779	0	0
2024-05-02 14:42:32			0	33954	0	0	0	17740	16380	152410	27689	960829	38374	106445	0	0	8158	759209	0	0
2024-05-02 14:43:32			0	33945	0	0	0	17735	16400	152518	27599	960827	38375	106443	0	0	8158	759574	0	0
2024-05-02 14:44:32			0	33963	0	0	0	17722	16390	152526	27562	960837	38375	106438	0	0	8159	758721	0	0
2024-05-02 14:45:32			0	33937	0	0	0	17729	16380	152614	27398	960821	38373	106441	0	0	8157	760053	0	0
2024-05-02 14:46:32			0	33939	0	0	0	17745	16370	152694	27374	960804	38373	106447	0	0	8157	759995	0	0
2024-05-02 14:47:32			0	33941	0	0	0	17742	16380	152582	27289	960795	38362	106446	0	0	8157	759855	0	0
2024-05-02 14:48:32			0	33920	0	0	0	17732	16380	152554	27647	960856	38374	106442	0	0	8156	760899	0	0
2024-05-02 14:49:32			0	33931	0	0	0	17732	16370	152554	27455	960804	38373	106442	0	0	8157	760393	0	0
2024-05-02 14:50:32			0	33919	0	0	0	17737	16370	152638	27431	960734	38383	106444	0	0	8156	760990	0	0
2024-05-02 14:51:32			0	33929	0	0	0	17742	16370	152642	27611	960813	38383	106446	0	0	8157	760492	0	0
2024-05-02 14:52:32			0	33937	0	0	0	17735	16370	152558	27639	960787	38362	106443	0	0	8157	760095	0	0
2024-05-02 14:53:32			0	33915	0	0	0	17732	16370	152642	27757	960866	38351	106442	0	0	8156	761189	0	0
2024-05-02 14:54:32			0	33915	0	0	0	17753	16370	152730	27365	960813	38373	106450	0	0	8156	761189	0	0
2024-05-02 14:55:32			0	33915	0	0	0	17758	16370	152682	27448	960831	38373	106452	0	0	8156	761189	0	0
2024-05-02 14:56:32			0	33922	0	0	0	17750	16370	152594	27659	960804	38373	106449	0	0	8156	760840	0	0
2024-05-02 14:57:32			0	33946	0	0	0	17753	16370	152582	27433	960787	38373	106450	0	0	8157	759647	0	0
2024-05-02 14:58:32			0	33947	0	0	0	17748	16370	152514	27623	960813	38373	106448	0	0	8158	759598	0	0
2024-05-02 14:59:32			0	33928	0	0	0	17789	16370	152586	27514	960787	38394	106464	0	0	8156	760542	0	0
2024-05-02 15:00:32			0	33946	0	0	0	17742	16370	152550	27732	960839	38394	106446	0	0	8158	759647	0	0
2024-05-02 15:01:32			0	33917	0	0	0	17724	16380	152562	27415	960795	38373	106439	0	0	8156	761048	0	0
2024-05-02 15:02:32			0	33907	0	0	0	17729	16360	152630	27540	960735	38371	106441	0	0	8156	761628	0	0
2024-05-02 15:03:32			0	33927	0	0	0	17745	16370	152682	27530	960752	38373	106447	0	0	8156	760592	0	0
2024-05-02 15:04:32			0	33917	0	0	0	17748	16360	152730	27542	960814	38360	106448	0	0	8156	761130	0	0
2024-05-02 15:05:32			0	33924	0	0	0	17742	16370	152698	27379	960752	38362	106446	0	0	8156	760741	0	0
2024-05-02 15:06:32			0	33893	0	0	0	17711	16370	152726	27488	960831	38373	106434	0	0	8155	762284	0	0
2024-05-02 15:07:32			0	33882	0	0	0	17706	16370	152710	27592	960760	38362	106432	0	0	8155	762832	0	0
2024-05-02 15:08:32			0	33872	0	0	0	17703	16360	152854	27514	960691	38361	106431	0	0	8154	763372	0	0
2024-05-02 15:09:32			0	33882	0	0	0	17735	16350	152846	27313	960727	38371	106443	0	0	8154	762915	0	0
2024-05-02 15:10:32			0	33875	0	0	0	17727	16350	152898	27654	960745	38381	106440	0	0	8154	763264	0	0
2024-05-02 15:11:32			0	33890	0	0	0	17711	16360	152842	27386	960709	38371	106434	0	0	8155	762475	0	0
2024-05-02 15:12:32			0	33851	0	0	0	17735	16360	152830	27569	960717	38361	106443	0	0	8152	764420	0	0
2024-05-02 15:13:32			0	33882	0	0	0	17729	16340	152862	27670	960684	38380	106441	0	0	8154	762956	0	0
2024-05-02 15:14:32			0	33883	0	0	0	17729	16350	152866	27812	960727	38381	106441	0	0	8154	762865	0	0
2024-05-02 15:15:32			0	33875	0	0	0	17716	16360	152850	27453	960796	38361	106436	0	0	8154	763222	0	0
2024-05-02 15:16:32			0	33865	0	0	0	17719	16360	152830	27606	960691	38372	106437	0	0	8153	763721	0	0
2024-05-02 15:17:32			0	33867	0	0	0	17706	16360	152938	27178	960743	38382	106432	0	0	8154	763621	0	0
2024-05-02 15:18:32			0	33861	0	0	0	17688	16350	152922	27692	960648	38371	106425	0	0	8154	763962	0	0
2024-05-02 15:19:32			0	33844	0	0	0	17729	16340	152986	27275	960658	38359	106441	0	0	8152	764852	0	0
2024-05-02 15:20:32			0	33851	0	0	0	17701	16340	152986	27196	960676	38370	106430	0	0	8153	764503	0	0
2024-05-02 15:21:32			0	33846	0	0	0	17745	16350	153022	27421	960674	38371	106447	0	0	8152	764711	0	0
2024-05-02 15:22:32			0	33873	0	0	0	17724	16350	152962	27364	960693	38381	106439	0	0	8154	763363	0	0
2024-05-02 15:23:32			0	33836	0	0	0	17711	16340	153098	27445	960703	38370	106434	0	0	8152	765252	0	0
2024-05-02 15:24:32			0	33843	0	0	0	17683	16350	153094	27296	960693	38381	106423	0	0	8153	764861	0	0
2024-05-02 15:25:32			0	33828	0	0	0	17722	16330	153062	27346	960694	38370	106438	0	0	8151	765693	0	0
2024-05-02 15:26:32			0	33852	0	0	0	17732	16340	153082	27611	960737	38370	106442	0	0	8152	764453	0	0
2024-05-02 15:27:32			0	33845	0	0	0	17703	16350	153134	27601	960719	38381	106431	0	0	8152	764761	0	0
2024-05-02 15:28:32			0	33842	0	0	0	17714	16350	153134	27518	960693	38381	106435	0	0	8152	764911	0	0
2024-05-02 15:29:32			0	33844	0	0	0	17735	16350	153138	27708	960666	38381	106443	0	0	8152	764811	0	0
2024-05-02 15:30:32			0	33835	0	0	0	17727	16340	152950	27388	960658	38370	106440	0	0	8151	765302	0	0
2024-05-02 15:31:32			0	33839	0	0	0	17711	16340	153110	27757	960737	38392	106434	0	0	8152	765102	0	0
2024-05-02 15:32:32			0	33827	0	0	0	17703	16330	153042	27535	960694	38370	106431	0	0	8151	765743	0	0
2024-05-02 15:33:32			0	33831	0	0	0	17696	16340	153174	27545	960711	38359	106428	0	0	8152	765502	0	0
2024-05-02 15:34:32			0	33814	0	0	0	17703	16340	153158	27393	960684	38392	106431	0	0	8150	766352	0	0
2024-05-02 15:35:32			0	33819	0	0	0	17690	16330	153250	27573	960581	38370	106426	0	0	8151	766143	0	0
2024-05-02 15:36:32			0	33812	0	0	0	17722	16340	153178	27376	960676	38380	106438	0	0	8150	766452	0	0
2024-05-02 15:37:32			0	33821	0	0	0	17729	16330	153202	27298	960660	38380	106441	0	0	8150	766043	0	0
2024-05-02 15:38:32			0	33818	0	0	0	17706	16340	153258	27618	960676	38380	106432	0	0	8151	766152	0	0
2024-05-02 15:39:32			0	33810	0	0	0	17696	16330	153346	27547	960694	38370	106428	0	0	8150	766593	0	0
2024-05-02 15:40:32			0	33791	0	0	0	17688	16340	153318	27467	960624	38380	106425	0	0	8149	767503	0	0
2024-05-02 15:41:32			0	33782	0	0	0	17688	16330	153298	27947	960686	38370	106425	0	0	8149	767996	0	0
2024-05-02 15:42:32			0	33787	0	0	0	17714	16340	153310	27656	960632	38380	106435	0	0	8149	767704	0	0
2024-05-02 15:43:32			0	33782	0	0	0	17716	16330	153438	27374	960634	38380	106436	0	0	8148	767996	0	0
2024-05-02 15:44:32			0	33787	0	0	0	17722	16330	153342	27557	960615	38370	106438	0	0	8149	767745	0	0
2024-05-02 15:45:32			0	33777	0	0	0	17719	16330	153442	27613	960721	38391	106437	0	0	8148	768246	0	0
2024-05-02 15:46:32			0	33759	0	0	0	17690	16340	153422	27757	960658	38370	106426	0	0	8147	769108	0	0
2024-05-02 15:47:32			0	33763	0	0	0	17685	16330	153502	27576	960589	38380	106424	0	0	8148	768948	0	0
2024-05-02 15:48:32			0	33758	0	0	0	17693	16330	153486	27377	960554	38370	106427	0	0	8147	769199	0	0
2024-05-02 15:49:32			0	33762	0	0	0	17693	16330	153514	27621	960668	38370	106427	0	0	8148	768999	0	0
2024-05-02 15:50:32			0	33746	0	0	0	17696	16320	153570	27374	960599	38369	106428	0	0	8146	769843	0	0
2024-05-02 15:51:32			0	33750	0	0	0	17698	16340	153558	27336	960650	38380	106429	0	0	8147	769559	0	0
2024-05-02 15:52:32			0	33751	0	0	0	17722	16320	153550	27381	960678	38379	106438	0	0	8146	769592	0	0
2024-05-02 15:53:32			0	33762	0	0	0	17727	16330	153402	27452	960642	38370	106440	0	0	8147	768999	0	0
2024-05-02 15:54:32			0	33751	0	0	0	17683	16330	153490	27310	960607	38391	106423	0	0	8147	769551	0	0
2024-05-02 15:55:32			0	33742	0	0	0	17701	16320	153574	27694	960573	38379	106430	0	0	8146	770044	0	0
2024-05-02 15:56:32			0	33750	0	0	0	17714	16330	153658	27611	960660	38380	106435	0	0	8146	769601	0	0
2024-05-02 15:57:32			0	33744	0	0	0	17714	16330	153654	27815	960634	38380	106435	0	0	8146	769902	0	0
2024-05-02 15:58:32			0	33723	0	0	0	17709	16330	153598	27357	960686	38380	106433	0	0	8145	770957	0	0
2024-05-02 15:59:32			0	33732	0	0	0	17703	16330	153502	27751	960660	38370	106431	0	0	8146	770505	0	0
2024-05-02 16:00:32			0	33723	0	0	0	17701	16330	153594	27613	960686	38370	106430	0	0	8145	770957	0	0
2024-05-02 16:01:32			0	33710	0	0	0	17714	16340	153638	27843	960676	38370	106435	0	0	8144	771569	0	0
2024-05-02 16:02:32			0	33733	0	0	0	17690	16330	153658	27426	960607	38380	106426	0	0	8146	770455	0	0
2024-05-02 16:03:32			0	33726	0	0	0	17688	16330	153654	27426	960660	38370	106425	0	0	8146	770806	0	0
2024-05-02 16:04:32			0	33718	0	0	0	17675	16330	153678	27630	960660	38370	106420	0	0	8145	771209	0	0
2024-05-02 16:05:32			0	33720	0	0	0	17683	16320	153754	27859	960564	38357	106423	0	0	8145	771150	0	0
2024-05-02 16:06:32			0	33701	0	0	0	17662	16320	153682	27618	960512	38357	106415	0	0	8144	772106	0	0
2024-05-02 16:07:32			0	33717	0	0	0	17716	16330	153710	27613	960634	38370	106436	0	0	8145	771259	0	0
2024-05-02 16:08:32			0	33719	0	0	0	17696	16320	153678	27807	960591	38368	106428	0	0	8145	771200	0	0
2024-05-02 16:09:32			0	33716	0	0	0	17698	16320	153682	27504	960625	38369	106429	0	0	8145	771351	0	0
2024-05-02 16:10:32			0	33714	0	0	0	17729	16320	153718	27462	960625	38369	106441	0	0	8144	771452	0	0
2024-05-02 16:11:32			0	33731	0	0	0	17716	16330	153654	27647	960713	38380	106436	0	0	8145	770555	0	0
2024-05-02 16:12:32			0	33725	0	0	0	17729	16330	153610	27585	960713	38380	106441	0	0	8145	770857	0	0
2024-05-02 16:13:32			0	33733	0	0	0	17719	16330	153570	27720	960660	38370	106437	0	0	8145	770455	0	0
2024-05-02 16:14:32			0	33732	0	0	0	17701	16330	153626	27516	960660	38380	106430	0	0	8146	770505	0	0
2024-05-02 16:15:32			0	33734	0	0	0	17719	16330	153654	27594	960660	38380	106437	0	0	8145	770404	0	0
2024-05-02 16:16:32			0	33732	0	0	0	17729	16320	153682	27784	960625	38379	106441	0	0	8145	770547	0	0
2024-05-02 16:17:32			0	33744	0	0	0	17703	16330	153642	27578	960713	38391	106431	0	0	8146	769902	0	0
2024-05-02 16:18:32			0	33727	0	0	0	17709	16340	153682	27431	960703	38358	106433	0	0	8145	770714	0	0
2024-05-02 16:19:32			0	33735	0	0	0	17714	16340	153742	27623	960737	38380	106435	0	0	8146	770312	0	0
2024-05-02 16:20:32			0	33741	0	0	0	17714	16330	153698	27609	960721	38370	106435	0	0	8146	770053	0	0
2024-05-02 16:21:32			0	33739	0	0	0	17693	16320	153826	27606	960731	38369	106427	0	0	8146	770195	0	0
2024-05-02 16:22:32			0	33731	0	0	0	17703	16330	153630	27639	960634	38380	106431	0	0	8146	770555	0	0
2024-05-02 16:23:32			0	33754	0	0	0	17716	16340	153746	27500	960624	38370	106436	0	0	8147	769358	0	0
2024-05-02 16:24:32			0	33721	0	0	0	17722	16330	153678	27627	960694	38380	106438	0	0	8145	771058	0	0
2024-05-02 16:25:32			0	33741	0	0	0	17698	16320	153690	27362	960678	38379	106429	0	0	8146	770094	0	0
2024-05-02 16:26:32			0	33733	0	0	0	17706	16330	153770	28011	960668	38358	106432	0	0	8146	770455	0	0
2024-05-02 16:27:32			0	33709	0	0	0	17680	16330	153678	27940	960607	38370	106422	0	0	8145	771661	0	0
2024-05-02 16:28:32			0	33729	0	0	0	17703	16320	153778	27450	960564	38368	106431	0	0	8145	770697	0	0
2024-05-02 16:29:32			0	33726	0	0	0	17719	16330	153746	27658	960694	38380	106437	0	0	8145	770806	0	0
2024-05-02 16:30:32			0	33725	0	0	0	17714	16330	153754	27599	960668	38380	106435	0	0	8145	770857	0	0
2024-05-02 16:31:32			0	33714	0	0	0	17706	16330	153738	27646	960721	38380	106432	0	0	8144	771410	0	0
2024-05-02 16:32:32			0	33738	0	0	0	17729	16320	153714	27488	960644	38368	106441	0	0	8145	770245	0	0
2024-05-02 16:33:32			0	33761	0	0	0	17727	16340	153714	27850	960764	38370	106440	0	0	8147	769007	0	0
2024-05-02 16:34:32			0	33728	0	0	0	17722	16330	153718	27473	960694	38380	106438	0	0	8145	770706	0	0
2024-05-02 16:35:32			0	33739	0	0	0	17727	16340	153658	27961	960703	38380	106440	0	0	8146	770112	0	0
2024-05-02 16:36:32			0	33738	0	0	0	17703	16340	153678	27611	960737	38359	106431	0	0	8146	770162	0	0
2024-05-02 16:37:32			0	33730	0	0	0	17690	16330	153734	27633	960642	38380	106426	0	0	8146	770605	0	0
2024-05-02 16:38:32			0	33747	0	0	0	17703	16340	153562	27907	960676	38380	106431	0	0	8147	769710	0	0
2024-05-02 16:39:32			0	33728	0	0	0	17675	16320	153642	27900	960678	38369	106420	0	0	8146	770748	0	0
2024-05-02 16:40:32			0	33722	0	0	0	17664	16330	153742	27606	960581	38391	106416	0	0	8146	771008	0	0
2024-05-02 16:41:32			0	33732	0	0	0	17659	16320	153794	27542	960599	38369	106414	0	0	8146	770547	0	0
2024-05-02 16:42:32			0	33723	0	0	0	17685	16320	153794	27691	960599	38369	106424	0	0	8145	770999	0	0
2024-05-02 16:43:32			0	33722	0	0	0	17683	16320	153750	27805	960644	38400	106423	0	0	8145	771049	0	0
2024-05-02 16:44:32			0	33702	0	0	0	17675	16320	153754	27680	960599	38379	106420	0	0	8144	772055	0	0
2024-05-02 16:45:32			0	33696	0	0	0	17688	16310	153826	27715	960583	38377	106425	0	0	8144	772399	0	0
2024-05-02 16:46:32			0	33711	0	0	0	17698	16300	153914	27443	960593	38377	106429	0	0	8144	771686	0	0
2024-05-02 16:47:32			0	33715	0	0	0	17688	16300	153806	27538	960619	38367	106425	0	0	8145	771485	0	0
2024-05-02 16:48:32			0	33705	0	0	0	17685	16310	153802	27428	960609	38388	106424	0	0	8144	771946	0	0
2024-05-02 16:49:32			0	33701	0	0	0	17677	16310	153786	27685	960627	38367	106421	0	0	8144	772147	0	0
2024-05-02 16:50:32			0	33719	0	0	0	17680	16310	153802	27724	960654	38367	106422	0	0	8145	771242	0	0
2024-05-02 16:51:32			0	33718	0	0	0	17703	16310	153778	27815	960574	38377	106431	0	0	8145	771292	0	0
2024-05-02 16:52:32			0	33710	0	0	0	17711	16310	153782	27649	960601	38356	106434	0	0	8144	771694	0	0
2024-05-02 16:53:32			0	33698	0	0	0	17716	16310	153826	27241	960627	38377	106436	0	0	8143	772298	0	0
2024-05-02 16:54:32			0	33732	0	0	0	17698	16310	153750	27578	960654	38377	106429	0	0	8146	770588	0	0
2024-05-02 16:55:32			0	33720	0	0	0	17690	16320	153678	27450	960696	38368	106426	0	0	8145	771150	0	0
2024-05-02 16:56:32			0	33724	0	0	0	17693	16320	153738	27260	960644	38389	106427	0	0	8145	770949	0	0
2024-05-02 16:57:32			0	33721	0	0	0	17670	16310	153822	27734	960601	38367	106418	0	0	8145	771141	0	0
2024-05-02 16:58:32			0	33730	0	0	0	17711	16310	153810	27327	960601	38377	106434	0	0	8145	770689	0	0
2024-05-02 16:59:32			0	33737	0	0	0	17714	16310	153750	27618	960635	38367	106435	0	0	8146	770337	0	0
2024-05-02 17:00:32			0	33734	0	0	0	17727	16320	153762	27744	960704	38379	106440	0	0	8145	770446	0	0
2024-05-02 17:01:32			0	33738	0	0	0	17724	16320	153770	27412	960704	38390	106439	0	0	8146	770245	0	0
2024-05-02 17:02:32			0	33731	0	0	0	17719	16320	153746	27578	960731	38379	106437	0	0	8145	770597	0	0
2024-05-02 17:03:32			0	33740	0	0	0	17698	16330	153790	27234	960721	38370	106429	0	0	8146	770103	0	0
2024-05-02 17:04:32			0	33729	0	0	0	17693	16330	153766	27703	960739	38370	106427	0	0	8146	770656	0	0
2024-05-02 17:05:32			0	33722	0	0	0	17696	16330	153786	27421	960634	38380	106428	0	0	8145	771008	0	0
2024-05-02 17:06:32			0	33721	0	0	0	17698	16330	153778	27656	960607	38380	106429	0	0	8145	771058	0	0
2024-05-02 17:07:32			0	33699	0	0	0	17696	16320	153802	27189	960625	38379	106428	0	0	8144	772206	0	0
2024-05-02 17:08:32			0	33712	0	0	0	17703	16320	153854	27348	960617	38368	106431	0	0	8144	771552	0	0
2024-05-02 17:09:32			0	33724	0	0	0	17714	16320	153802	27402	960678	38390	106435	0	0	8145	770949	0	0
2024-05-02 17:10:32			0	33709	0	0	0	17719	16320	153918	27623	960678	38379	106437	0	0	8144	771703	0	0
2024-05-02 17:11:32			0	33734	0	0	0	17727	16330	153778	27848	960721	38391	106440	0	0	8145	770404	0	0
2024-05-02 17:12:32			0	33728	0	0	0	17722	16330	153702	27416	960721	38391	106438	0	0	8145	770706	0	0
2024-05-02 17:13:32			0	33721	0	0	0	17716	16340	153762	27362	960729	38380	106436	0	0	8145	771016	0	0
2024-05-02 17:14:32			0	33706	0	0	0	17722	16330	153778	27640	960713	38380	106438	0	0	8144	771812	0	0
2024-05-02 17:15:32			0	33731	0	0	0	17719	16330	153838	27545	960792	38380	106437	0	0	8145	770555	0	0
2024-05-02 17:16:32			0	33730	0	0	0	17719	16330	153754	27436	960721	38380	106437	0	0	8145	770605	0	0
2024-05-02 17:17:32			0	33717	0	0	0	17727	16340	153738	27319	960676	38380	106440	0	0	8144	771217	0	0
2024-05-02 17:18:32			0	33721	0	0	0	17716	16330	153838	27414	960713	38370	106436	0	0	8145	771058	0	0
2024-05-02 17:19:32			0	33714	0	0	0	17716	16340	153794	27334	960658	38392	106436	0	0	8144	771368	0	0
2024-05-02 17:20:32			0	33711	0	0	0	17709	16330	153774	27500	960721	38380	106433	0	0	8144	771561	0	0
2024-05-02 17:21:32			0	33719	0	0	0	17719	16320	153846	27564	960678	38369	106437	0	0	8145	771200	0	0
2024-05-02 17:22:32			0	33712	0	0	0	17711	16320	153790	27457	960704	38379	106434	0	0	8144	771552	0	0
2024-05-02 17:23:32			0	33724	0	0	0	17709	16340	153798	27419	960729	38380	106433	0	0	8145	770865	0	0
2024-05-02 17:24:32			0	33705	0	0	0	17706	16330	153786	27557	960713	38370	106432	0	0	8144	771862	0	0
2024-05-02 17:25:32			0	33721	0	0	0	17706	16320	153818	27535	960652	38379	106432	0	0	8145	771099	0	0
2024-05-02 17:26:32			0	33709	0	0	0	17711	16340	153826	27213	960676	38380	106434	0	0	8144	771620	0	0
2024-05-02 17:27:32			0	33709	0	0	0	17698	16340	153894	27594	960632	38380	106429	0	0	8144	771620	0	0
2024-05-02 17:28:32			0	33709	0	0	0	17706	16320	153870	27251	960678	38379	106432	0	0	8144	771703	0	0
2024-05-02 17:29:32			0	33683	0	0	0	17709	16340	153838	27305	960703	38370	106433	0	0	8143	772928	0	0
2024-05-02 17:30:32			0	33705	0	0	0	17698	16330	153874	27275	960686	38380	106429	0	0	8144	771862	0	0
2024-05-02 17:31:32			0	33701	0	0	0	17706	16330	153882	27492	960660	38391	106432	0	0	8144	772064	0	0
2024-05-02 17:32:32			0	33697	0	0	0	17716	16330	153838	27393	960615	38370	106436	0	0	8143	772265	0	0
2024-05-02 17:33:32			0	33702	0	0	0	17722	16330	153846	27372	960694	38391	106438	0	0	8144	772014	0	0
2024-05-02 17:34:32			0	33698	0	0	0	17711	16330	153886	27452	960713	38380	106434	0	0	8143	772215	0	0
2024-05-02 17:35:32			0	33678	0	0	0	17714	16330	153826	27635	960694	38370	106435	0	0	8142	773222	0	0
2024-05-02 17:36:32			0	33694	0	0	0	17709	16330	153894	27267	960668	38391	106433	0	0	8143	772416	0	0
2024-05-02 17:37:32			0	33701	0	0	0	17714	16340	153878	27743	960684	38392	106435	0	0	8144	772022	0	0
2024-05-02 17:38:32			0	33701	0	0	0	17716	16330	153994	27803	960694	38380	106436	0	0	8144	772064	0	0
2024-05-02 17:39:32			0	33695	0	0	0	17709	16340	153910	27602	960755	38380	106433	0	0	8143	772324	0	0
2024-05-02 17:40:32			0	33704	0	0	0	17711	16330	153910	27607	960660	38380	106434	0	0	8144	771913	0	0
2024-05-02 17:41:32			0	33688	0	0	0	17714	16320	153914	27718	960625	38390	106435	0	0	8143	772760	0	0
2024-05-02 17:42:32			0	33673	0	0	0	17709	16320	153906	27698	960678	38369	106433	0	0	8142	773516	0	0
2024-05-02 17:43:32			0	33688	0	0	0	17709	16330	153958	27509	960668	38391	106433	0	0	8143	772718	0	0
2024-05-02 17:44:32			0	33687	0	0	0	17714	16330	153974	27535	960686	38380	106435	0	0	8143	772769	0	0
2024-05-02 17:45:32			0	33684	0	0	0	17706	16320	154042	27618	960678	38379	106432	0	0	8143	772962	0	0
2024-05-02 17:46:32			0	33675	0	0	0	17714	16320	154026	27706	960678	38369	106435	0	0	8142	773415	0	0
2024-05-02 17:47:32			0	33686	0	0	0	17714	16330	154002	27345	960721	38380	106435	0	0	8143	772819	0	0
2024-05-02 17:48:32			0	33684	0	0	0	17711	16330	153950	27509	960721	38370	106434	0	0	8143	772920	0	0
2024-05-02 17:49:32			0	33675	0	0	0	17714	16330	153978	27443	960739	38380	106435	0	0	8142	773373	0	0
2024-05-02 17:50:32			0	33690	0	0	0	17709	16320	153950	27729	960723	38368	106433	0	0	8143	772659	0	0
2024-05-02 17:51:32			0	33684	0	0	0	17711	16330	154014	27587	960642	38380	106434	0	0	8143	772920	0	0
2024-05-02 17:52:32			0	33682	0	0	0	17714	16320	154002	27393	960704	38379	106435	0	0	8142	773062	0	0
2024-05-02 17:53:32			0	33685	0	0	0	17709	16330	153938	27554	960686	38380	106433	0	0	8143	772869	0	0
2024-05-02 17:54:32			0	33687	0	0	0	17711	16330	153990	27831	960686	38380	106434	0	0	8143	772769	0	0
2024-05-02 17:55:32			0	33696	0	0	0	17722	16340	153998	27421	960703	38370	106438	0	0	8143	772274	0	0
2024-05-02 17:56:32			0	33687	0	0	0	17714	16330	153954	27724	960747	38380	106435	0	0	8143	772769	0	0
2024-05-02 17:57:32			0	33681	0	0	0	17714	16340	153926	27369	960729	38370	106435	0	0	8142	773029	0	0
2024-05-02 17:58:32			0	33689	0	0	0	17711	16340	153930	27301	960729	38391	106434	0	0	8143	772626	0	0
2024-05-02 17:59:32			0	33671	0	0	0	17703	16340	153946	27599	960676	38391	106431	0	0	8142	773533	0	0
2024-05-02 18:00:32			0	33682	0	0	0	17719	16330	154018	27528	960660	38391	106437	0	0	8142	773021	0	0
2024-05-02 18:01:32			0	33698	0	0	0	17716	16340	154006	27497	960729	38380	106436	0	0	8143	772173	0	0
2024-05-02 18:02:32			0	33678	0	0	0	17716	16330	154042	27400	960721	38380	106436	0	0	8142	773222	0	0
2024-05-02 18:03:32			0	33694	0	0	0	17716	16320	154082	27339	960678	38358	106436	0	0	8143	772458	0	0
2024-05-02 18:04:32			0	33680	0	0	0	17719	16350	154074	27663	960745	38371	106437	0	0	8142	773038	0	0
2024-05-02 18:05:32			0	33686	0	0	0	17719	16330	153922	27717	960694	38380	106437	0	0	8143	772819	0	0
2024-05-02 18:06:32			0	33670	0	0	0	17724	16330	153954	27635	960774	38391	106439	0	0	8142	773625	0	0
2024-05-02 18:07:32			0	33690	0	0	0	17727	16330	154074	27673	960774	38370	106440	0	0	8143	772618	0	0
2024-05-02 18:08:32			0	33684	0	0	0	17719	16340	154090	27274	960729	38370	106437	0	0	8143	772878	0	0
2024-05-02 18:09:32			0	33692	0	0	0	17727	16330	154026	27647	960739	38380	106440	0	0	8143	772517	0	0
2024-05-02 18:10:32			0	33681	0	0	0	17724	16340	153954	27459	960703	38370	106439	0	0	8142	773029	0	0
2024-05-02 18:11:32			0	33709	0	0	0	17716	16330	153930	27275	960739	38380	106436	0	0	8144	771661	0	0
2024-05-02 18:12:32			0	33695	0	0	0	17727	16340	154030	27634	960782	38370	106440	0	0	8143	772324	0	0
2024-05-02 18:13:32			0	33694	0	0	0	17727	16330	153970	27352	960747	38391	106440	0	0	8143	772416	0	0
2024-05-02 18:14:32			0	33720	0	0	0	17724	16340	153902	27646	960755	38380	106439	0	0	8145	771066	0	0
2024-05-02 18:15:32			0	33695	0	0	0	17719	16340	153946	27364	960782	38380	106437	0	0	8143	772324	0	0
2024-05-02 18:16:32			0	33691	0	0	0	17722	16340	153854	27412	960782	38370	106438	0	0	8143	772525	0	0
2024-05-02 18:17:32			0	33714	0	0	0	17714	16340	153862	27549	960790	38380	106435	0	0	8144	771368	0	0
2024-05-02 18:18:32			0	33696	0	0	0	17711	16340	153950	27547	960782	38380	106434	0	0	8143	772274	0	0
2024-05-02 18:19:32			0	33677	0	0	0	17714	16340	153850	27326	960755	38391	106435	0	0	8142	773231	0	0
2024-05-02 18:20:32			0	33693	0	0	0	17719	16330	153838	27711	960694	38391	106437	0	0	8143	772467	0	0
2024-05-02 18:21:32			0	33689	0	0	0	17724	16330	153914	27582	960668	38380	106439	0	0	8143	772668	0	0
2024-05-02 18:22:32			0	33689	0	0	0	17719	16340	153830	27673	960711	38380	106437	0	0	8143	772626	0	0
2024-05-02 18:23:32			0	33707	0	0	0	17724	16340	153898	27267	960703	38380	106439	0	0	8144	771720	0	0
2024-05-02 18:24:32			0	33687	0	0	0	17727	16340	153926	27229	960737	38392	106440	0	0	8143	772727	0	0
2024-05-02 18:25:32			0	33714	0	0	0	17727	16340	154018	27585	960755	38380	106440	0	0	8144	771368	0	0
2024-05-02 18:26:32			0	33699	0	0	0	17722	16340	153986	27452	960782	38391	106438	0	0	8143	772123	0	0
2024-05-02 18:27:32			0	33714	0	0	0	17722	16340	153874	27424	960703	38370	106438	0	0	8144	771368	0	0
2024-05-02 18:28:32			0	33700	0	0	0	17724	16340	153870	27467	960703	38370	106439	0	0	8143	772072	0	0
2024-05-02 18:29:32			0	33682	0	0	0	17714	16330	153862	27540	960721	38380	106435	0	0	8142	773021	0	0
2024-05-02 18:30:32			0	33697	0	0	0	17709	16330	153934	27633	960747	38391	106433	0	0	8143	772265	0	0
2024-05-02 18:31:32			0	33714	0	0	0	17711	16320	153894	27457	960678	38379	106434	0	0	8144	771452	0	0
2024-05-02 18:32:32			0	33690	0	0	0	17711	16330	153950	27249	960694	38380	106434	0	0	8143	772618	0	0
2024-05-02 18:33:32			0	33695	0	0	0	17711	16330	153966	27710	960747	38358	106434	0	0	8143	772366	0	0
2024-05-02 18:34:32			0	33695	0	0	0	17706	16330	153922	27677	960721	38380	106432	0	0	8143	772366	0	0
2024-05-02 18:35:32			0	33690	0	0	0	17709	16330	153918	27550	960694	38380	106433	0	0	8143	772618	0	0
2024-05-02 18:36:32			0	33690	0	0	0	17709	16330	154010	27416	960765	38380	106433	0	0	8143	772618	0	0
2024-05-02 18:37:32			0	33681	0	0	0	17701	16330	153982	27390	960694	38380	106430	0	0	8143	773071	0	0
2024-05-02 18:38:32			0	33673	0	0	0	17703	16340	153938	27583	960764	38370	106431	0	0	8142	773432	0	0
2024-05-02 18:39:32			0	33694	0	0	0	17706	16330	154054	27433	960660	38380	106432	0	0	8143	772416	0	0
2024-05-02 18:40:32			0	33672	0	0	0	17703	16330	154030	27352	960765	38380	106431	0	0	8142	773524	0	0
2024-05-02 18:41:32			0	33679	0	0	0	17709	16320	154022	27710	960670	38378	106433	0	0	8142	773214	0	0
2024-05-02 18:42:32			0	33693	0	0	0	17703	16320	154074	27353	960704	38379	106431	0	0	8143	772508	0	0
2024-05-02 18:43:32			0	33683	0	0	0	17709	16330	154002	27800	960694	38391	106433	0	0	8143	772970	0	0
2024-05-02 18:44:32			0	33671	0	0	0	17701	16320	154058	27460	960704	38379	106430	0	0	8142	773617	0	0
2024-05-02 18:45:32			0	33692	0	0	0	17696	16320	154114	27301	960704	38390	106428	0	0	8143	772559	0	0
2024-05-02 18:46:32			0	33676	0	0	0	17701	16330	154058	27658	960686	38380	106430	0	0	8142	773323	0	0
2024-05-02 18:47:32			0	33672	0	0	0	17701	16320	154046	27540	960678	38379	106430	0	0	8142	773566	0	0
2024-05-02 18:48:32			0	33666	0	0	0	17701	16320	154074	27237	960678	38379	106430	0	0	8142	773869	0	0
2024-05-02 18:49:32			0	33661	0	0	0	17696	16320	154074	27370	960704	38379	106428	0	0	8142	774121	0	0
2024-05-02 18:50:32			0	33654	0	0	0	17698	16320	154114	27402	960678	38379	106429	0	0	8141	774474	0	0
2024-05-02 18:51:32			0	33669	0	0	0	17701	16330	154174	27684	960713	38380	106430	0	0	8142	773676	0	0
2024-05-02 18:52:32			0	33651	0	0	0	17696	16300	154142	27824	960672	38377	106428	0	0	8141	774709	0	0
2024-05-02 18:53:32			0	33649	0	0	0	17690	16320	154082	27595	960678	38369	106426	0	0	8141	774727	0	0
2024-05-02 18:54:32			0	33666	0	0	0	17683	16320	154254	27331	960696	38368	106423	0	0	8142	773869	0	0
2024-05-02 18:55:32			0	33643	0	0	0	17688	16310	154226	27479	960688	38367	106425	0	0	8141	775071	0	0
2024-05-02 18:56:32			0	33638	0	0	0	17693	16320	154206	27352	960644	38378	106427	0	0	8140	775282	0	0
2024-05-02 18:57:32			0	33634	0	0	0	17688	16310	154366	27585	960635	38388	106425	0	0	8140	775526	0	0
2024-05-02 18:58:32			0	33631	0	0	0	17683	16320	154386	27512	960670	38389	106423	0	0	8140	775635	0	0
2024-05-02 18:59:32			0	33618	0	0	0	17680	16310	154338	27388	960609	38388	106422	0	0	8139	776334	0	0
2024-05-02 19:00:32			0	33612	0	0	0	17685	16310	154418	27407	960706	38377	106424	0	0	8139	776638	0	0
2024-05-02 19:01:32			0	33611	0	0	0	17677	16310	154330	27327	960583	38367	106421	0	0	8139	776688	0	0
2024-05-02 19:02:32			0	33614	0	0	0	17672	16300	154438	27334	960619	38377	106419	0	0	8139	776579	0	0
2024-05-02 19:03:32			0	33601	0	0	0	17685	16300	154474	27383	960593	38377	106424	0	0	8138	777236	0	0
2024-05-02 19:04:32			0	33613	0	0	0	17677	16300	154438	27590	960584	38387	106421	0	0	8139	776629	0	0
2024-05-02 19:05:32			0	33609	0	0	0	17677	16300	154426	27677	960566	38367	106421	0	0	8139	776831	0	0
2024-05-02 19:06:32			0	33591	0	0	0	17677	16310	154474	27531	960627	38367	106421	0	0	8138	777700	0	0
2024-05-02 19:07:32			0	33591	0	0	0	17664	16300	154502	27786	960593	38377	106416	0	0	8138	777742	0	0
2024-05-02 19:08:32			0	33576	0	0	0	17667	16300	154537	27467	960584	38376	106417	0	0	8137	778502	0	0
2024-05-02 19:09:32			0	33589	0	0	0	17675	16300	154566	27842	960584	38376	106420	0	0	8138	777843	0	0
2024-05-02 19:10:32			0	33562	0	0	0	17664	16290	154453	27675	960603	38375	106416	0	0	8136	779254	0	0
2024-05-02 19:11:32			0	33559	0	0	0	17667	16300	154553	27710	960558	38366	106417	0	0	8136	779364	0	0
2024-05-02 19:12:32			0	33568	0	0	0	17664	16300	154561	27672	960566	38377	106416	0	0	8136	778907	0	0
2024-05-02 19:13:32			0	33570	0	0	0	17659	16300	154617	27531	960566	38367	106414	0	0	8137	778806	0	0
2024-05-02 19:14:32			0	33564	0	0	0	17664	16290	154549	27422	960497	38365	106416	0	0	8136	779152	0	0
2024-05-02 19:15:32			0	33559	0	0	0	17667	16300	154625	27457	960566	38388	106417	0	0	8136	779364	0	0
2024-05-02 19:16:32			0	33546	0	0	0	17662	16290	154721	27668	960515	38365	106415	0	0	8135	780065	0	0
2024-05-02 19:17:32			0	33557	0	0	0	17659	16290	154749	27282	960489	38375	106414	0	0	8136	779507	0	0
2024-05-02 19:18:32			0	33541	0	0	0	17667	16290	154681	27512	960568	38387	106417	0	0	8135	780319	0	0
2024-05-02 19:19:32			0	33527	0	0	0	17664	16290	154793	27206	960568	38375	106416	0	0	8134	781030	0	0
2024-05-02 19:20:32			0	33530	0	0	0	17670	16290	154873	27457	960568	38375	106418	0	0	8134	780878	0	0
2024-05-02 19:21:32			0	33558	0	0	0	17651	16280	154833	27744	960525	38375	106411	0	0	8136	779499	0	0
2024-05-02 19:22:32			0	33528	0	0	0	17654	16290	154869	27701	960568	38365	106412	0	0	8134	780979	0	0
2024-05-02 19:23:32			0	33532	0	0	0	17651	16290	154805	27718	960594	38365	106411	0	0	8135	780776	0	0
2024-05-02 19:24:32			0	33516	0	0	0	17654	16280	154773	27486	960560	38375	106412	0	0	8133	781631	0	0
2024-05-02 19:25:32			0	33502	0	0	0	17657	16280	154897	27699	960507	38365	106413	0	0	8133	782343	0	0
2024-05-02 19:26:32			0	33499	0	0	0	17654	16290	154921	27218	960524	38365	106412	0	0	8133	782454	0	0
2024-05-02 19:27:32			0	33522	0	0	0	17651	16280	154873	27659	960499	38375	106411	0	0	8134	781326	0	0
2024-05-02 19:28:32			0	33527	0	0	0	17646	16280	154797	27583	960586	38387	106409	0	0	8134	781072	0	0
2024-05-02 19:29:32			0	33510	0	0	0	17649	16280	154877	27282	960499	38364	106410	0	0	8133	781937	0	0
2024-05-02 19:30:32			0	33503	0	0	0	17649	16270	154909	27447	960517	38375	106410	0	0	8133	782335	0	0
2024-05-02 19:31:32			0	33519	0	0	0	17646	16280	154837	27791	960507	38365	106409	0	0	8134	781479	0	0
2024-05-02 19:32:32			0	33481	0	0	0	17654	16280	154921	27152	960499	38375	106412	0	0	8131	783412	0	0
2024-05-02 19:33:32			0	33502	0	0	0	17654	16280	154917	27159	960499	38375	106412	0	0	8133	782343	0	0
2024-05-02 19:34:32			0	33493	0	0	0	17644	16280	154917	27434	960499	38375	106408	0	0	8132	782801	0	0
2024-05-02 19:35:32			0	33482	0	0	0	17644	16280	154977	27673	960534	38375	106408	0	0	8132	783361	0	0
2024-05-02 19:36:32			0	33485	0	0	0	17651	16270	154925	27433	960491	38375	106411	0	0	8132	783251	0	0
2024-05-02 19:37:32			0	33493	0	0	0	17641	16270	154993	27670	960456	38385	106407	0	0	8132	782844	0	0
2024-05-02 19:38:32			0	33493	0	0	0	17654	16260	154993	27625	960448	38375	106412	0	0	8132	782886	0	0
2024-05-02 19:39:32			0	33491	0	0	0	17649	16270	154925	27466	960456	38364	106410	0	0	8132	782945	0	0
2024-05-02 19:40:32			0	33493	0	0	0	17644	16270	154961	27601	960517	38375	106408	0	0	8132	782844	0	0
2024-05-02 19:41:32			0	33482	0	0	0	17644	16260	155077	27597	960501	38385	106408	0	0	8132	783446	0	0
2024-05-02 19:42:32			0	33479	0	0	0	17646	16270	155001	27274	960509	38364	106409	0	0	8131	783556	0	0
2024-05-02 19:43:32			0	33465	0	0	0	17641	16270	155069	27398	960491	38375	106407	0	0	8131	784270	0	0
2024-05-02 19:44:32			0	33472	0	0	0	17636	16270	155077	27564	960456	38375	106405	0	0	8131	783913	0	0
2024-05-02 19:45:32			0	33464	0	0	0	17638	16270	155165	27675	960377	38364	106406	0	0	8131	784321	0	0
2024-05-02 19:46:32			0	33458	0	0	0	17644	16260	155181	27466	960466	38374	106408	0	0	8130	784669	0	0
2024-05-02 19:47:32			0	33466	0	0	0	17633	16260	155157	27365	960387	38363	106404	0	0	8131	784261	0	0
2024-05-02 19:48:32			0	33448	0	0	0	17644	16260	155157	27339	960422	38385	106408	0	0	8129	785179	0	0
2024-05-02 19:49:32			0	33463	0	0	0	17638	16260	155181	27265	960440	38374	106406	0	0	8130	784414	0	0
2024-05-02 19:50:32			0	33444	0	0	0	17638	16260	155205	27478	960387	38363	106406	0	0	8129	785383	0	0
2024-05-02 19:51:32			0	33446	0	0	0	17633	16250	155233	27552	960397	38361	106404	0	0	8130	785324	0	0
2024-05-02 19:52:32			0	33449	0	0	0	17636	16260	155193	27287	960493	38374	106405	0	0	8130	785128	0	0
2024-05-02 19:53:32			0	33449	0	0	0	17638	16260	155177	27552	960422	38375	106406	0	0	8130	785128	0	0
2024-05-02 19:54:32			0	33447	0	0	0	17625	16270	155237	27583	960385	38375	106401	0	0	8130	785188	0	0
2024-05-02 19:55:32			0	33406	0	0	0	17636	16260	155333	27595	960387	38384	106405	0	0	8127	787325	0	0
2024-05-02 19:56:32			0	33437	0	0	0	17633	16250	155349	27159	960379	38362	106404	0	0	8129	785783	0	0
2024-05-02 19:57:32			0	33423	0	0	0	17628	16260	155309	27315	960387	38374	106402	0	0	8128	786455	0	0
2024-05-02 19:58:32			0	33404	0	0	0	17641	16250	155349	27374	960405	38373	106407	0	0	8127	787469	0	0
2024-05-02 19:59:32			0	33439	0	0	0	17633	16260	155321	27332	960501	38375	106404	0	0	8129	785638	0	0
2024-05-02 20:00:32			0	33424	0	0	0	17644	16260	155353	27395	960422	38375	106408	0	0	8128	786404	0	0
2024-05-02 20:01:32			0	33427	0	0	0	17641	16260	155281	27497	960414	38363	106407	0	0	8128	786251	0	0
2024-05-02 20:02:32			0	33438	0	0	0	17644	16260	155245	27479	960440	38352	106408	0	0	8129	785690	0	0
2024-05-02 20:03:32			0	33437	0	0	0	17636	16260	155249	27460	960414	38374	106405	0	0	8129	785740	0	0
2024-05-02 20:04:32			0	33422	0	0	0	17631	16260	155301	27197	960475	38364	106403	0	0	8128	786507	0	0
2024-05-02 20:05:32			0	33424	0	0	0	17628	16250	155321	27274	960353	38373	106402	0	0	8128	786447	0	0
2024-05-02 20:06:32			0	33415	0	0	0	17623	16270	155445	27507	960483	38385	106400	0	0	8128	786822	0	0
2024-05-02 20:07:32			0	33408	0	0	0	17631	16250	155481	27511	960379	38373	106403	0	0	8127	787265	0	0
2024-05-02 20:08:32			0	33395	0	0	0	17631	16250	155493	27192	960424	38372	106403	0	0	8127	787930	0	0
2024-05-02 20:09:32			0	33397	0	0	0	17631	16250	155461	27324	960353	38383	106403	0	0	8127	787827	0	0
2024-05-02 20:10:32			0	33418	0	0	0	17631	16250	155481	27618	960379	38362	106403	0	0	8128	786754	0	0
2024-05-02 20:11:32			0	33385	0	0	0	17638	16240	155545	27331	960389	38372	106406	0	0	8126	788484	0	0
2024-05-02 20:12:32			0	33379	0	0	0	17631	16250	155481	27334	960371	38382	106403	0	0	8126	788749	0	0
2024-05-02 20:13:32			0	33398	0	0	0	17625	16250	155469	27197	960424	38361	106401	0	0	8127	787776	0	0
2024-05-02 20:14:32			0	33384	0	0	0	17618	16250	155561	27637	960397	38372	106398	0	0	8126	788493	0	0
2024-05-02 20:15:32			0	33372	0	0	0	17620	16260	155597	27095	960387	38363	106399	0	0	8125	789065	0	0
2024-05-02 20:16:32			0	33355	0	0	0	17625	16250	155785	27036	960432	38373	106401	0	0	8124	789979	0	0
2024-05-02 20:17:32			0	33361	0	0	0	17628	16250	155761	27306	960345	38361	106402	0	0	8125	789671	0	0
2024-05-02 20:18:32			0	33372	0	0	0	17620	16250	155681	27462	960345	38361	106399	0	0	8125	789107	0	0
2024-05-02 20:19:32			0	33367	0	0	0	17628	16250	155749	27666	960432	38362	106402	0	0	8125	789363	0	0
2024-05-02 20:20:32			0	33337	0	0	0	17628	16250	155689	27296	960371	38361	106402	0	0	8123	790902	0	0
2024-05-02 20:21:32			0	33357	0	0	0	17628	16250	155733	27128	960345	38372	106402	0	0	8124	789876	0	0
2024-05-02 20:22:32			0	33348	0	0	0	17623	16260	155713	27556	960466	38374	106400	0	0	8124	790295	0	0
2024-05-02 20:23:32			0	33348	0	0	0	17620	16250	155721	27053	960405	38383	106399	0	0	8124	790338	0	0
2024-05-02 20:24:32			0	33338	0	0	0	17625	16230	155697	27336	960364	38370	106401	0	0	8123	790936	0	0
2024-05-02 20:25:32			0	33345	0	0	0	17631	16250	155757	27249	960397	38372	106403	0	0	8124	790491	0	0
2024-05-02 20:26:32			0	33341	0	0	0	17625	16240	155797	27587	960389	38361	106401	0	0	8123	790740	0	0
2024-05-02 20:27:32			0	33356	0	0	0	17631	16250	155717	27481	960450	38372	106403	0	0	8124	789927	0	0
2024-05-02 20:28:32			0	33379	0	0	0	17633	16250	155697	27511	960432	38373	106404	0	0	8126	788749	0	0
2024-05-02 20:29:32			0	33380	0	0	0	17636	16250	155521	27383	960424	38382	106405	0	0	8126	788697	0	0
2024-05-02 20:30:32			0	33392	0	0	0	17628	16250	155545	27358	960397	38372	106402	0	0	8126	788083	0	0
2024-05-02 20:31:32			0	33393	0	0	0	17615	16250	155493	27514	960397	38372	106397	0	0	8127	788032	0	0
2024-05-02 20:32:32			0	33365	0	0	0	17618	16250	155621	27296	960405	38373	106398	0	0	8125	789466	0	0
2024-05-02 20:33:32			0	33345	0	0	0	17623	16240	155701	27419	960389	38382	106400	0	0	8124	790534	0	0
2024-05-02 20:34:32			0	33361	0	0	0	17623	16240	155609	27512	960328	38361	106400	0	0	8125	789714	0	0
2024-05-02 20:35:32			0	33336	0	0	0	17620	16230	155745	27498	960372	38360	106399	0	0	8123	791039	0	0
2024-05-02 20:36:32			0	33359	0	0	0	17620	16240	155669	27606	960389	38393	106399	0	0	8125	789816	0	0
2024-05-02 20:37:32			0	33357	0	0	0	17623	16240	155665	27296	960336	38382	106400	0	0	8124	789919	0	0
2024-05-02 20:38:32			0	33345	0	0	0	17625	16240	155697	27407	960415	38361	106401	0	0	8124	790534	0	0
2024-05-02 20:39:32			0	33376	0	0	0	17625	16250	155649	27358	960371	38372	106401	0	0	8125	788902	0	0
2024-05-02 20:40:32			0	33363	0	0	0	17623	16240	155513	27137	960389	38372	106400	0	0	8125	789611	0	0
2024-05-02 20:41:32			0	33374	0	0	0	17625	16230	155541	27305	960364	38370	106401	0	0	8125	789090	0	0
2024-05-02 20:42:32			0	33366	0	0	0	17623	16240	155517	27441	960415	38372	106400	0	0	8125	789457	0	0
2024-05-02 20:43:32			0	33393	0	0	0	17628	16240	155529	27727	960362	38393	106402	0	0	8126	788075	0	0
2024-05-02 20:44:32			0	33373	0	0	0	17610	16250	155501	27505	960345	38372	106395	0	0	8126	789056	0	0
2024-05-02 20:45:32			0	33358	0	0	0	17618	16250	155545	27618	960397	38372	106398	0	0	8125	789825	0	0
2024-05-02 20:46:32			0	33346	0	0	0	17620	16240	155613	27454	960389	38361	106399	0	0	8124	790483	0	0
2024-05-02 20:47:32			0	33368	0	0	0	17625	16240	155593	27436	960415	38372	106401	0	0	8125	789355	0	0
2024-05-02 20:48:32			0	33362	0	0	0	17623	16250	155605	27360	960397	38361	106400	0	0	8125	789620	0	0
2024-05-02 20:49:32			0	33375	0	0	0	17623	16230	155709	27353	960372	38371	106400	0	0	8125	789039	0	0
2024-05-02 20:50:32			0	33354	0	0	0	17620	16230	155677	27737	960399	38371	106399	0	0	8124	790115	0	0
2024-05-02 20:51:32			0	33344	0	0	0	17615	16240	155777	27706	960362	38361	106397	0	0	8124	790585	0	0
2024-05-02 20:52:32			0	33351	0	0	0	17612	16240	155665	27543	960415	38361	106396	0	0	8124	790226	0	0
2024-05-02 20:53:32			0	33334	0	0	0	17610	16240	155757	27576	960362	38361	106395	0	0	8123	791099	0	0
2024-05-02 20:54:32			0	33336	0	0	0	17612	16240	155773	27381	960415	38382	106396	0	0	8123	790996	0	0
2024-05-02 20:55:32			0	33342	0	0	0	17615	16250	155733	27372	960397	38372	106397	0	0	8124	790646	0	0
2024-05-02 20:56:32			0	33328	0	0	0	17620	16220	155785	27457	960382	38359	106399	0	0	8123	791492	0	0
2024-05-02 20:57:32			0	33338	0	0	0	17618	16250	155697	27663	960371	38372	106398	0	0	8123	790851	0	0
2024-05-02 20:58:32			0	33340	0	0	0	17620	16230	155905	27583	960364	38370	106399	0	0	8123	790834	0	0
2024-05-02 20:59:32			0	33343	0	0	0	17618	16240	155797	27495	960302	38372	106398	0	0	8124	790637	0	0
2024-05-02 21:00:32			0	33335	0	0	0	17615	16240	155701	27216	960381	38382	106397	0	0	8123	791047	0	0
2024-05-02 21:01:32			0	33357	0	0	0	17620	16230	155873	27343	960346	38360	106399	0	0	8124	789961	0	0
2024-05-02 21:02:32			0	33334	0	0	0	17623	16230	155785	27256	960338	38359	106400	0	0	8123	791142	0	0
2024-05-02 21:03:32			0	33346	0	0	0	17620	16240	155813	27305	960328	38372	106399	0	0	8124	790483	0	0
2024-05-02 21:04:32			0	33355	0	0	0	17618	16240	155709	27791	960362	38361	106398	0	0	8124	790021	0	0
2024-05-02 21:05:32			0	33349	0	0	0	17615	16240	155701	27521	960354	38350	106397	0	0	8124	790329	0	0
2024-05-02 21:06:32			0	33354	0	0	0	17623	16230	155685	27547	960346	38360	106400	0	0	8124	790115	0	0
2024-05-02 21:07:32			0	33339	0	0	0	17618	16240	155705	27447	960389	38361	106398	0	0	8123	790842	0	0
2024-05-02 21:08:32			0	33349	0	0	0	17612	16230	155701	27601	960338	38370	106396	0	0	8124	790372	0	0
2024-05-02 21:09:32			0	33372	0	0	0	17620	16230	155733	27471	960346	38371	106399	0	0	8125	789192	0	0
2024-05-02 21:10:32			0	33367	0	0	0	17623	16240	155773	27471	960433	38361	106400	0	0	8125	789406	0	0
2024-05-02 21:11:32			0	33373	0	0	0	17610	16240	155669	27388	960328	38372	106395	0	0	8126	789099	0	0
2024-05-02 21:12:32			0	33344	0	0	0	17618	16240	155757	27616	960354	38372	106398	0	0	8124	790585	0	0
2024-05-02 21:13:32			0	33354	0	0	0	17607	16240	155845	27343	960389	38382	106394	0	0	8124	790073	0	0
2024-05-02 21:14:32			0	33356	0	0	0	17610	16240	155793	27471	960381	38372	106395	0	0	8124	789970	0	0
2024-05-02 21:15:32			0	33359	0	0	0	17605	16240	155889	27581	960389	38361	106393	0	0	8125	789816	0	0
2024-05-02 21:16:32			0	33327	0	0	0	17597	16220	155809	27628	960277	38370	106390	0	0	8123	791544	0	0
2024-05-02 21:17:32			0	33328	0	0	0	17599	16230	155949	27625	960346	38371	106391	0	0	8123	791450	0	0
2024-05-02 21:18:32			0	33308	0	0	0	17602	16210	155937	27460	960313	38358	106392	0	0	8122	792563	0	0
2024-05-02 21:19:32			0	33312	0	0	0	17594	16220	155965	27187	960277	38359	106389	0	0	8122	792314	0	0
2024-05-02 21:20:32			0	33328	0	0	0	17599	16210	155865	27817	960287	38380	106391	0	0	8123	791535	0	0
2024-05-02 21:21:32			0	33338	0	0	0	17589	16220	155925	27433	960356	38370	106387	0	0	8124	790979	0	0
2024-05-02 21:22:32			0	33335	0	0	0	17592	16220	155973	27332	960269	38370	106388	0	0	8123	791133	0	0
2024-05-02 21:23:32			0	33334	0	0	0	17592	16220	155865	27281	960216	38370	106388	0	0	8123	791184	0	0
2024-05-02 21:24:32			0	33328	0	0	0	17599	16220	155829	27346	960322	38381	106391	0	0	8123	791492	0	0
2024-05-02 21:25:32			0	33299	0	0	0	17597	16210	156045	27355	960287	38370	106390	0	0	8121	793026	0	0
2024-05-02 21:26:32			0	33303	0	0	0	17599	16210	155977	27390	960253	38379	106391	0	0	8121	792820	0	0
2024-05-02 21:27:32			0	33308	0	0	0	17597	16210	156065	27448	960313	38358	106390	0	0	8122	792563	0	0
2024-05-02 21:28:32			0	33289	0	0	0	17599	16230	156069	27268	960285	38381	106391	0	0	8121	793455	0	0
2024-05-02 21:29:32			0	33281	0	0	0	17589	16220	156081	27497	960303	38370	106387	0	0	8120	793909	0	0
2024-05-02 21:30:32			0	33255	0	0	0	17592	16220	156085	27267	960243	38359	106388	0	0	8119	795249	0	0
2024-05-02 21:31:32			0	33257	0	0	0	17587	16210	156125	27519	960226	38358	106386	0	0	8119	795189	0	0
2024-05-02 21:32:32			0	33258	0	0	0	17592	16210	156113	27377	960253	38369	106388	0	0	8119	795137	0	0
2024-05-02 21:33:32			0	33246	0	0	0	17605	16200	156145	27585	960218	38369	106393	0	0	8118	795799	0	0
2024-05-02 21:34:32			0	33253	0	0	0	17599	16210	156245	27592	960287	38380	106391	0	0	8118	795395	0	0
2024-05-02 21:35:32			0	33253	0	0	0	17594	16210	156277	27499	960287	38358	106389	0	0	8118	795395	0	0
2024-05-02 21:36:32			0	33242	0	0	0	17597	16220	156205	27196	960295	38370	106390	0	0	8118	795919	0	0
2024-05-02 21:37:32			0	33246	0	0	0	17597	16220	156237	27183	960269	38381	106390	0	0	8118	795713	0	0
2024-05-02 21:38:32			0	33262	0	0	0	17599	16210	156237	27384	960261	38380	106391	0	0	8119	794931	0	0
2024-05-02 21:39:32			0	33252	0	0	0	17592	16210	156153	27374	960313	38370	106388	0	0	8118	795447	0	0
2024-05-02 21:40:32			0	33267	0	0	0	17605	16210	156081	27490	960261	38358	106393	0	0	8119	794673	0	0
2024-05-02 21:41:32			0	33259	0	0	0	17592	16210	156141	27241	960340	38358	106388	0	0	8119	795086	0	0
2024-05-02 21:42:32			0	33279	0	0	0	17594	16210	156109	27433	960253	38379	106389	0	0	8120	794055	0	0
2024-05-02 21:43:32			0	33271	0	0	0	17592	16210	156185	27409	960279	38358	106388	0	0	8120	794467	0	0
2024-05-02 21:44:32			0	33275	0	0	0	17620	16200	156077	27383	960297	38369	106399	0	0	8119	794304	0	0
2024-05-02 21:45:32			0	33283	0	0	0	17618	16210	156097	27582	960279	38379	106398	0	0	8120	793849	0	0
2024-05-02 21:46:32			0	33293	0	0	0	17618	16210	156001	27429	960305	38379	106398	0	0	8120	793334	0	0
2024-05-02 21:47:32			0	33289	0	0	0	17599	16220	156045	27396	960348	38381	106391	0	0	8121	793497	0	0
2024-05-02 21:48:32			0	33290	0	0	0	17612	16210	156017	27656	960313	38380	106396	0	0	8120	793489	0	0
2024-05-02 21:49:32			0	33302	0	0	0	17610	16220	155997	27384	960356	38370	106395	0	0	8121	792829	0	0
2024-05-02 21:50:32			0	33309	0	0	0	17607	16210	156017	27682	960287	38370	106394	0	0	8122	792512	0	0
2024-05-02 21:51:32			0	33309	0	0	0	17599	16210	155969	27630	960261	38380	106391	0	0	8122	792512	0	0
2024-05-02 21:52:32			0	33299	0	0	0	17592	16220	156013	27616	960303	38359	106388	0	0	8121	792983	0	0
2024-05-02 21:53:32			0	33288	0	0	0	17597	16220	156165	27573	960295	38370	106390	0	0	8121	793549	0	0
2024-05-02 21:54:32			0	33274	0	0	0	17597	16210	156177	27814	960226	38369	106390	0	0	8120	794313	0	0
2024-05-02 21:55:32			0	33269	0	0	0	17602	16210	156133	27232	960261	38358	106392	0	0	8119	794570	0	0
2024-05-02 21:56:32			0	33260	0	0	0	17599	16210	156237	27585	960261	38358	106391	0	0	8119	795034	0	0
2024-05-02 21:57:32			0	33266	0	0	0	17589	16210	156145	27261	960313	38370	106387	0	0	8119	794725	0	0
2024-05-02 21:58:32			0	33257	0	0	0	17599	16220	156241	27286	960277	38381	106391	0	0	8119	795146	0	0
2024-05-02 21:59:32			0	33255	0	0	0	17605	16210	156269	27239	960305	38358	106393	0	0	8118	795292	0	0
2024-05-02 22:00:32			0	33257	0	0	0	17602	16210	156209	27604	960305	38369	106392	0	0	8119	795189	0	0
2024-05-02 22:01:32			0	33267	0	0	0	17605	16210	156193	27571	960200	38369	106393	0	0	8119	794673	0	0
2024-05-02 22:02:32			0	33256	0	0	0	17597	16210	156145	27440	960287	38370	106390	0	0	8119	795240	0	0
2024-05-02 22:03:32			0	33271	0	0	0	17605	16210	156293	27279	960305	38358	106393	0	0	8119	794467	0	0
2024-05-02 22:04:32			0	33267	0	0	0	17607	16210	156145	27490	960332	38369	106394	0	0	8119	794673	0	0
2024-05-02 22:05:32			0	33263	0	0	0	17610	16220	156117	27228	960216	38370	106395	0	0	8119	794836	0	0
2024-05-02 22:06:32			0	33269	0	0	0	17607	16210	156173	27395	960313	38370	106394	0	0	8119	794570	0	0
2024-05-02 22:07:32			0	33271	0	0	0	17594	16220	156225	27409	960295	38370	106389	0	0	8120	794424	0	0
2024-05-02 22:08:32			0	33294	0	0	0	17602	16220	156177	27467	960269	38381	106392	0	0	8121	793240	0	0
2024-05-02 22:09:32			0	33266	0	0	0	17607	16210	156157	27230	960253	38369	106394	0	0	8119	794725	0	0
2024-05-02 22:10:32			0	33283	0	0	0	17612	16210	156221	27275	960287	38370	106396	0	0	8120	793849	0	0
2024-05-02 22:11:32			0	33287	0	0	0	17610	16220	156237	27308	960269	38370	106395	0	0	8120	793600	0	0
2024-05-02 22:12:32			0	33266	0	0	0	17610	16220	156233	27216	960243	38359	106395	0	0	8119	794682	0	0
2024-05-02 22:13:32			0	33290	0	0	0	17602	16220	156205	27421	960251	38370	106392	0	0	8121	793446	0	0
2024-05-02 22:14:32			0	33300	0	0	0	17599	16200	156177	27353	960244	38379	106391	0	0	8121	793017	0	0
2024-05-02 22:15:32			0	33254	0	0	0	17597	16220	156261	27471	960295	38370	106390	0	0	8119	795300	0	0
2024-05-02 22:16:32			0	33248	0	0	0	17612	16210	156273	27270	960261	38370	106396	0	0	8118	795653	0	0
2024-05-02 22:17:32			0	33251	0	0	0	17607	16210	156289	27481	960313	38380	106394	0	0	8118	795498	0	0
2024-05-02 22:18:32			0	33243	0	0	0	17610	16210	156329	27353	960313	38370	106395	0	0	8118	795911	0	0
2024-05-02 22:19:32			0	33247	0	0	0	17610	16220	156297	27241	960295	38370	106395	0	0	8118	795661	0	0
2024-05-02 22:20:32			0	33241	0	0	0	17620	16210	156361	27440	960340	38370	106399	0	0	8117	796014	0	0
2024-05-02 22:21:32			0	33242	0	0	0	17618	16220	156361	27497	960348	38381	106398	0	0	8117	795919	0	0
2024-05-02 22:22:32			0	33246	0	0	0	17618	16210	156329	27209	960287	38370	106398	0	0	8118	795756	0	0
2024-05-02 22:23:32			0	33266	0	0	0	17620	16220	156229	27663	960322	38359	106399	0	0	8119	794682	0	0
2024-05-02 22:24:32			0	33260	0	0	0	17612	16210	156205	27569	960366	38380	106396	0	0	8119	795034	0	0
2024-05-02 22:25:32			0	33274	0	0	0	17618	16220	156197	27376	960356	38370	106398	0	0	8119	794270	0	0
2024-05-02 22:26:32			0	33272	0	0	0	17615	16220	156205	27284	960374	38359	106397	0	0	8119	794373	0	0
2024-05-02 22:27:32			0	33275	0	0	0	17615	16220	156089	27479	960303	38359	106397	0	0	8119	794218	0	0
2024-05-02 22:28:32			0	33267	0	0	0	17620	16220	156121	27300	960303	38381	106399	0	0	8119	794630	0	0
2024-05-02 22:29:32			0	33261	0	0	0	17602	16220	156173	27744	960374	38370	106392	0	0	8119	794939	0	0
2024-05-02 22:30:32			0	33243	0	0	0	17607	16220	156145	27533	960348	38370	106394	0	0	8118	795868	0	0
2024-05-02 22:31:32			0	33259	0	0	0	17612	16220	156293	27359	960330	38370	106396	0	0	8119	795043	0	0
2024-05-02 22:32:32			0	33274	0	0	0	17615	16210	156337	27426	960313	38358	106397	0	0	8119	794313	0	0
2024-05-02 22:33:32			0	33272	0	0	0	17628	16220	156277	27407	960322	38370	106402	0	0	8119	794373	0	0
2024-05-02 22:34:32			0	33276	0	0	0	17623	16210	156137	27559	960340	38380	106400	0	0	8119	794210	0	0
2024-05-02 22:35:32			0	33301	0	0	0	17628	16220	156145	27307	960330	38359	106402	0	0	8121	792880	0	0
2024-05-02 22:36:32			0	33302	0	0	0	17625	16230	156081	27293	960391	38370	106401	0	0	8121	792786	0	0
2024-05-02 22:37:32			0	33300	0	0	0	17615	16230	156105	27384	960417	38370	106397	0	0	8121	792889	0	0
2024-05-02 22:38:32			0	33304	0	0	0	17628	16220	156085	27189	960409	38370	106402	0	0	8121	792726	0	0
2024-05-02 22:39:32			0	33322	0	0	0	17638	16230	156033	27053	960338	38370	106406	0	0	8122	791758	0	0
2024-05-02 22:40:32			0	33326	0	0	0	17628	16220	155997	27362	960330	38359	106402	0	0	8122	791595	0	0
2024-05-02 22:41:32			0	33328	0	0	0	17641	16240	156001	27300	960442	38382	106407	0	0	8122	791407	0	0
2024-05-02 22:42:32			0	33356	0	0	0	17633	16220	155893	27462	960382	38381	106404	0	0	8124	790055	0	0
2024-05-02 22:43:32			0	33369	0	0	0	17628	16240	155845	27441	960381	38393	106402	0	0	8125	789304	0	0
2024-05-02 22:44:32			0	33359	0	0	0	17628	16240	155889	27346	960433	38382	106402	0	0	8124	789816	0	0
2024-05-02 22:45:32			0	33357	0	0	0	17628	16230	155817	27168	960425	38381	106402	0	0	8124	789961	0	0
2024-05-02 22:46:32			0	33361	0	0	0	17628	16230	155809	27315	960391	38370	106402	0	0	8124	789756	0	0
2024-05-02 22:47:32			0	33352	0	0	0	17633	16240	155765	27343	960381	38372	106404	0	0	8124	790175	0	0
2024-05-02 22:48:32			0	33364	0	0	0	17636	16240	155845	27230	960328	38372	106405	0	0	8125	789560	0	0
2024-05-02 22:49:32			0	33358	0	0	0	17625	16230	155877	27255	960372	38381	106401	0	0	8124	789910	0	0
2024-05-02 22:50:32			0	33377	0	0	0	17631	16240	155805	27556	960389	38382	106403	0	0	8125	788894	0	0
2024-05-02 22:51:32			0	33383	0	0	0	17636	16240	155737	27263	960415	38372	106405	0	0	8126	788587	0	0
2024-05-02 22:52:32			0	33370	0	0	0	17631	16240	155693	27229	960389	38372	106403	0	0	8125	789252	0	0
2024-05-02 22:53:32			0	33358	0	0	0	17641	16250	155789	27353	960397	38372	106407	0	0	8124	789825	0	0
2024-05-02 22:54:32			0	33348	0	0	0	17638	16240	155773	27249	960354	38382	106406	0	0	8124	790380	0	0
2024-05-02 22:55:32			0	33354	0	0	0	17633	16250	155733	27476	960450	38361	106404	0	0	8124	790030	0	0
2024-05-02 22:56:32			0	33361	0	0	0	17636	16250	155945	27460	960485	38383	106405	0	0	8124	789671	0	0
2024-05-02 22:57:32			0	33366	0	0	0	17633	16250	155865	27393	960405	38383	106404	0	0	8125	789415	0	0
2024-05-02 22:58:32			0	33376	0	0	0	17628	16250	155845	27289	960485	38383	106402	0	0	8125	788902	0	0
2024-05-02 22:59:32			0	33369	0	0	0	17636	16250	155833	27095	960405	38383	106405	0	0	8125	789261	0	0
2024-05-02 23:00:32			0	33385	0	0	0	17638	16250	155761	27180	960424	38372	106406	0	0	8126	788442	0	0
2024-05-02 23:01:32			0	33367	0	0	0	17646	16240	155813	27156	960460	38372	106409	0	0	8125	789406	0	0
2024-05-02 23:02:32			0	33358	0	0	0	17633	16250	155765	27189	960424	38361	106404	0	0	8124	789825	0	0
2024-05-02 23:03:32			0	33369	0	0	0	17638	16250	155693	27242	960424	38372	106406	0	0	8125	789261	0	0
2024-05-02 23:04:32			0	33395	0	0	0	17644	16250	155669	27274	960476	38382	106408	0	0	8126	787930	0	0
2024-05-02 23:05:32			0	33395	0	0	0	17636	16250	155653	27133	960397	38382	106405	0	0	8126	787930	0	0
2024-05-02 23:06:32			0	33399	0	0	0	17628	16240	155709	27495	960442	38372	106402	0	0	8127	787768	0	0
2024-05-02 23:07:32			0	33389	0	0	0	17636	16250	155777	27339	960458	38383	106405	0	0	8126	788237	0	0
2024-05-02 23:08:32			0	33380	0	0	0	17636	16240	155733	27460	960494	38372	106405	0	0	8125	788740	0	0
2024-05-02 23:09:32			0	33383	0	0	0	17636	16250	155821	26939	960476	38382	106405	0	0	8126	788544	0	0
2024-05-02 23:10:32			0	33368	0	0	0	17633	16250	155713	27405	960450	38382	106404	0	0	8125	789312	0	0
2024-05-02 23:11:32			0	33387	0	0	0	17631	16260	155717	27282	960387	38374	106403	0	0	8126	788296	0	0
2024-05-02 23:12:32			0	33389	0	0	0	17631	16260	155645	27074	960466	38395	106403	0	0	8126	788194	0	0
2024-05-02 23:13:32			0	33392	0	0	0	17638	16250	155605	27218	960458	38373	106406	0	0	8126	788083	0	0
2024-05-02 23:14:32			0	33403	0	0	0	17631	16250	155621	27260	960405	38394	106403	0	0	8127	787520	0	0
2024-05-02 23:15:32			0	33403	0	0	0	17628	16250	155629	27301	960511	38373	106402	0	0	8127	787520	0	0
2024-05-02 23:16:32			0	33411	0	0	0	17625	16240	155589	27187	960468	38372	106401	0	0	8128	787154	0	0
2024-05-02 23:17:32			0	33387	0	0	0	17631	16250	155581	27576	960458	38383	106403	0	0	8126	788339	0	0
2024-05-02 23:18:32			0	33392	0	0	0	17633	16240	155693	27684	960442	38372	106404	0	0	8126	788126	0	0
2024-05-02 23:19:32			0	33379	0	0	0	17633	16250	155649	27431	960450	38372	106404	0	0	8126	788749	0	0
2024-05-02 23:20:32			0	33406	0	0	0	17628	16250	155689	27258	960450	38372	106402	0	0	8127	787367	0	0
2024-05-02 23:21:32			0	33399	0	0	0	17631	16250	155681	27367	960424	38382	106403	0	0	8127	787725	0	0
2024-05-02 23:22:32			0	33402	0	0	0	17623	16250	155637	27689	960503	38372	106400	0	0	8127	787571	0	0
2024-05-02 23:23:32			0	33399	0	0	0	17631	16240	155597	27161	960415	38361	106403	0	0	8127	787768	0	0
2024-05-02 23:24:32			0	33383	0	0	0	17633	16250	155721	27223	960424	38382	106404	0	0	8126	788544	0	0
2024-05-02 23:25:32			0	33389	0	0	0	17631	16250	155725	27275	960450	38393	106403	0	0	8126	788237	0	0
2024-05-02 23:26:32			0	33388	0	0	0	17623	16250	155753	27495	960424	38372	106400	0	0	8126	788288	0	0
2024-05-02 23:27:32			0	33403	0	0	0	17625	16250	155717	27540	960397	38361	106401	0	0	8127	787520	0	0
2024-05-02 23:28:32			0	33371	0	0	0	17623	16240	155829	27575	960468	38382	106400	0	0	8125	789201	0	0
2024-05-02 23:29:32			0	33359	0	0	0	17620	16250	155777	27289	960424	38382	106399	0	0	8125	789774	0	0
2024-05-02 23:30:32			0	33375	0	0	0	17618	16240	155769	27566	960415	38393	106398	0	0	8125	788996	0	0
2024-05-02 23:31:32			0	33389	0	0	0	17615	16250	155693	27310	960397	38382	106397	0	0	8126	788237	0	0
2024-05-02 23:32:32			0	33354	0	0	0	17612	16240	155681	27495	960389	38382	106396	0	0	8124	790073	0	0
2024-05-02 23:33:32			0	33366	0	0	0	17615	16250	155773	27516	960458	38373	106397	0	0	8125	789415	0	0
2024-05-02 23:34:32			0	33353	0	0	0	17615	16240	155817	27228	960415	38372	106397	0	0	8124	790124	0	0
2024-05-02 23:35:32			0	33356	0	0	0	17612	16250	155837	27235	960432	38373	106396	0	0	8125	789927	0	0
2024-05-02 23:36:32			0	33354	0	0	0	17610	16250	155753	27130	960397	38382	106395	0	0	8124	790030	0	0
2024-05-02 23:37:32			0	33353	0	0	0	17615	16220	155881	27447	960382	38381	106397	0	0	8124	790209	0	0
2024-05-02 23:38:32			0	33362	0	0	0	17610	16240	155889	26986	960381	38372	106395	0	0	8125	789662	0	0
2024-05-02 23:39:32			0	33328	0	0	0	17615	16230	155877	27100	960425	38381	106397	0	0	8123	791450	0	0
2024-05-02 23:40:32			0	33331	0	0	0	17612	16240	155961	27131	960354	38372	106396	0	0	8123	791253	0	0
2024-05-02 23:41:32			0	33328	0	0	0	17618	16240	155961	27315	960381	38372	106398	0	0	8123	791407	0	0
2024-05-02 23:42:32			0	33327	0	0	0	17615	16220	156009	27447	960356	38381	106397	0	0	8123	791544	0	0
2024-05-02 23:43:32			0	33333	0	0	0	17602	16230	156029	27114	960372	38381	106392	0	0	8123	791193	0	0
2024-05-02 23:44:32			0	33339	0	0	0	17612	16230	156073	27202	960372	38371	106396	0	0	8123	790885	0	0
2024-05-02 23:45:32			0	33340	0	0	0	17607	16220	156033	27241	960330	38381	106394	0	0	8123	790876	0	0
2024-05-02 23:46:32			0	33318	0	0	0	17618	16240	156033	27185	960362	38372	106398	0	0	8122	791920	0	0
2024-05-02 23:47:32			0	33312	0	0	0	17605	16220	156037	27476	960356	38381	106393	0	0	8122	792314	0	0
2024-05-02 23:48:32			0	33325	0	0	0	17605	16220	156149	27272	960330	38370	106393	0	0	8123	791646	0	0
2024-05-02 23:49:32			0	33306	0	0	0	17594	16220	156089	27537	960322	38370	106389	0	0	8122	792623	0	0
2024-05-02 23:50:32			0	33301	0	0	0	17599	16220	156017	27668	960382	38370	106391	0	0	8121	792880	0	0
2024-05-02 23:51:32			0	33293	0	0	0	17592	16220	156145	27402	960382	38381	106388	0	0	8121	793292	0	0
2024-05-02 23:52:32			0	33311	0	0	0	17592	16230	156069	27232	960364	38381	106388	0	0	8122	792323	0	0
2024-05-02 23:53:32			0	33318	0	0	0	17594	16220	156057	27157	960295	38370	106389	0	0	8122	792006	0	0
2024-05-02 23:54:32			0	33314	0	0	0	17587	16220	156025	27149	960356	38381	106386	0	0	8122	792212	0	0
2024-05-02 23:55:32			0	33295	0	0	0	17592	16220	155993	27393	960322	38381	106388	0	0	8121	793189	0	0
2024-05-02 23:56:32			0	33308	0	0	0	17594	16220	156109	27192	960330	38359	106389	0	0	8122	792520	0	0
2024-05-02 23:57:32			0	33302	0	0	0	17587	16220	156133	26993	960356	38359	106386	0	0	8122	792829	0	0
2024-05-02 23:58:32			0	33304	0	0	0	17589	16210	156205	27208	960287	38380	106387	0	0	8122	792769	0	0
2024-05-02 23:59:32			0	33314	0	0	0	17589	16210	156049	27248	960287	38358	106387	0	0	8122	792254	0	0
2024-05-03 00:00:32			0	33297	0	0	0	17594	16210	156117	27447	960332	38379	106389	0	0	8121	793129	0	0
2024-05-03 00:01:32			0	33289	0	0	0	17587	16220	156265	27178	960269	38370	106386	0	0	8121	793497	0	0
2024-05-03 00:02:32			0	33277	0	0	0	17584	16220	156205	27253	960277	38370	106385	0	0	8120	794115	0	0
2024-05-03 00:03:32			0	33281	0	0	0	17589	16210	156225	27410	960340	38370	106387	0	0	8120	793952	0	0
2024-05-03 00:04:32			0	33273	0	0	0	17584	16210	156269	27173	960313	38380	106385	0	0	8120	794364	0	0
2024-05-03 00:05:32			0	33265	0	0	0	17579	16200	156381	27452	960289	38379	106383	0	0	8119	794819	0	0
2024-05-03 00:06:32			0	33246	0	0	0	17571	16210	156377	27317	960279	38369	106380	0	0	8118	795756	0	0
2024-05-03 00:07:32			0	33229	0	0	0	17576	16200	156429	27263	960271	38369	106382	0	0	8117	796676	0	0
2024-05-03 00:08:32			0	33207	0	0	0	17584	16210	156613	27175	960305	38369	106385	0	0	8116	797770	0	0
2024-05-03 00:09:32			0	33214	0	0	0	17571	16200	156601	27180	960236	38369	106380	0	0	8116	797451	0	0
2024-05-03 00:10:32			0	33194	0	0	0	17576	16190	156525	27407	960254	38378	106382	0	0	8115	798528	0	0
2024-05-03 00:11:32			0	33206	0	0	0	17579	16200	156525	27060	960218	38369	106383	0	0	8116	797865	0	0
2024-05-03 00:12:32			0	33188	0	0	0	17571	16190	156577	27090	960202	38368	106380	0	0	8115	798839	0	0
2024-05-03 00:13:32			0	33157	0	0	0	17571	16190	156825	26981	960246	38377	106380	0	0	8113	800444	0	0
2024-05-03 00:14:32			0	33181	0	0	0	17566	16200	156769	27426	960210	38358	106378	0	0	8115	799158	0	0
2024-05-03 00:15:32			0	33171	0	0	0	17576	16200	156661	27412	960236	38358	106382	0	0	8114	799676	0	0
2024-05-03 00:16:32			0	33182	0	0	0	17566	16190	156673	27383	960228	38368	106378	0	0	8115	799149	0	0
2024-05-03 00:17:32			0	33173	0	0	0	17571	16190	156701	27256	960246	38356	106380	0	0	8114	799615	0	0
2024-05-03 00:18:32			0	33185	0	0	0	17566	16190	156693	27260	960202	38357	106378	0	0	8115	798994	0	0
2024-05-03 00:19:32			0	33164	0	0	0	17568	16180	156861	27280	960185	38367	106379	0	0	8113	800125	0	0
2024-05-03 00:20:32			0	33155	0	0	0	17558	16180	156805	27097	960159	38367	106375	0	0	8113	800592	0	0
2024-05-03 00:21:32			0	33139	0	0	0	17558	16180	156961	27350	960238	38356	106375	0	0	8112	801421	0	0
2024-05-03 00:22:32			0	33121	0	0	0	17555	16170	157033	27206	960222	38376	106374	0	0	8111	802399	0	0
2024-05-03 00:23:32			0	33108	0	0	0	17553	16180	157097	27613	960133	38367	106373	0	0	8110	803031	0	0
2024-05-03 00:24:32			0	33063	0	0	0	17545	16180	157201	27545	960256	38355	106370	0	0	8108	805373	0	0
2024-05-03 00:25:32			0	33039	0	0	0	17545	16180	157309	27436	960151	38366	106370	0	0	8106	806624	0	0
2024-05-03 00:26:32			0	33034	0	0	0	17535	16180	157333	27303	960098	38366	106366	0	0	8106	806885	0	0
2024-05-03 00:27:32			0	32997	0	0	0	17540	16180	157529	27500	960151	38366	106368	0	0	8104	808818	0	0
2024-05-03 00:28:32			0	32956	0	0	0	17522	16180	157757	27183	960072	38366	106361	0	0	8102	810964	0	0
2024-05-03 00:29:32			0	32921	0	0	0	17519	16170	157905	27003	960055	38365	106360	0	0	8099	812844	0	0
2024-05-03 00:30:32			0	32877	0	0	0	17506	16160	158101	27133	959994	38353	106355	0	0	8097	815201	0	0
2024-05-03 00:31:32			0	32834	0	0	0	17514	16150	158381	27310	960039	38353	106358	0	0	8094	817511	0	0
2024-05-03 00:32:32			0	32809	0	0	0	17516	16150	158525	27190	960013	38365	106359	0	0	8093	818831	0	0
2024-05-03 00:33:32			0	32772	0	0	0	17488	16160	158564	27367	960074	38342	106348	0	0	8091	820743	0	0
2024-05-03 00:34:32			0	32744	0	0	0	17493	16150	158748	27317	959978	38365	106350	0	0	8089	822270	0	0
2024-05-03 00:35:32			0	32729	0	0	0	17498	16140	158944	27322	959996	38353	106352	0	0	8088	823110	0	0
2024-05-03 00:36:32			0	32705	0	0	0	17496	16140	159016	27104	959988	38352	106351	0	0	8086	824384	0	0
2024-05-03 00:37:32			0	32696	0	0	0	17498	16130	159136	27353	959980	38374	106352	0	0	8086	824907	0	0
2024-05-03 00:38:32			0	32680	0	0	0	17493	16130	159160	27228	959972	38351	106350	0	0	8085	825758	0	0
2024-05-03 00:39:32			0	32692	0	0	0	17498	16130	159200	27428	959945	38351	106352	0	0	8086	825120	0	0
2024-05-03 00:40:32			0	32669	0	0	0	17503	16140	159296	27267	959935	38363	106354	0	0	8084	826299	0	0
2024-05-03 00:41:32			0	32681	0	0	0	17501	16130	159284	27036	959927	38363	106353	0	0	8085	825705	0	0
2024-05-03 00:42:32			0	32669	0	0	0	17509	16130	159196	27173	959945	38362	106356	0	0	8084	826344	0	0
2024-05-03 00:43:32			0	32676	0	0	0	17498	16130	159176	27206	959945	38362	106352	0	0	8085	825971	0	0
2024-05-03 00:44:32			0	32667	0	0	0	17506	16130	159212	27351	959945	38351	106355	0	0	8084	826450	0	0
2024-05-03 00:45:32			0	32675	0	0	0	17506	16120	159228	27668	959885	38362	106355	0	0	8084	826069	0	0
2024-05-03 00:46:32			0	32670	0	0	0	17498	16130	159212	27324	959945	38362	106352	0	0	8084	826291	0	0
2024-05-03 00:47:32			0	32669	0	0	0	17493	16120	159276	26991	959885	38351	106350	0	0	8084	826388	0	0
2024-05-03 00:48:32			0	32645	0	0	0	17493	16120	159408	27275	959937	38340	106350	0	0	8083	827667	0	0
2024-05-03 00:49:32			0	32632	0	0	0	17490	16120	159464	26975	959955	38361	106349	0	0	8082	828360	0	0
2024-05-03 00:50:32			0	32640	0	0	0	17490	16120	159556	27308	959929	38350	106349	0	0	8082	827934	0	0
2024-05-03 00:51:32			0	32607	0	0	0	17483	16110	159580	27156	959947	38361	106346	0	0	8080	829740	0	0
2024-05-03 00:52:32			0	32600	0	0	0	17496	16120	159640	27320	959902	38339	106351	0	0	8080	830069	0	0
2024-05-03 00:53:32			0	32597	0	0	0	17501	16110	159568	27481	959860	38349	106353	0	0	8079	830274	0	0
2024-05-03 00:54:32			0	32577	0	0	0	17490	16110	159692	27272	959842	38361	106349	0	0	8078	831344	0	0
2024-05-03 00:55:32			0	32591	0	0	0	17477	16110	159816	27274	959868	38372	106344	0	0	8079	830595	0	0
2024-05-03 00:56:32			0	32581	0	0	0	17480	16100	159744	27071	959852	38382	106345	0	0	8079	831174	0	0
2024-05-03 00:57:32			0	32568	0	0	0	17475	16110	159784	27393	959860	38349	106343	0	0	8078	831825	0	0
2024-05-03 00:58:32			0	32560	0	0	0	17477	16100	159796	27498	959799	38371	106344	0	0	8078	832299	0	0
2024-05-03 00:59:32			0	32563	0	0	0	17490	16100	159764	27248	959843	38348	106349	0	0	8077	832138	0	0
2024-05-03 01:00:32			0	32551	0	0	0	17477	16110	159740	27313	959912	38371	106344	0	0	8077	832736	0	0
2024-05-03 01:01:32			0	32561	0	0	0	17493	16100	159784	27348	959852	38371	106350	0	0	8077	832245	0	0
2024-05-03 01:02:32			0	32569	0	0	0	17485	16100	159824	27242	959843	38348	106347	0	0	8078	831817	0	0
2024-05-03 01:03:32			0	32548	0	0	0	17490	16110	159820	27135	959912	38360	106349	0	0	8077	832897	0	0
2024-05-03 01:04:32			0	32559	0	0	0	17472	16100	159880	27279	959896	38359	106342	0	0	8078	832352	0	0
2024-05-03 01:05:32			0	32548	0	0	0	17475	16100	159944	27499	959825	38360	106343	0	0	8077	832942	0	0
2024-05-03 01:06:32			0	32545	0	0	0	17451	16100	159948	27265	959817	38359	106334	0	0	8077	833103	0	0
2024-05-03 01:07:32			0	32514	0	0	0	17444	16090	159976	26987	959783	38359	106331	0	0	8075	834811	0	0
2024-05-03 01:08:32			0	32480	0	0	0	17425	16100	160188	27286	959712	38337	106324	0	0	8073	836593	0	0
2024-05-03 01:09:32			0	32461	0	0	0	17415	16080	160328	27163	959705	38347	106320	0	0	8072	837706	0	0
2024-05-03 01:10:32			0	32416	0	0	0	17420	16070	160516	27119	959723	38335	106322	0	0	8069	840178	0	0
2024-05-03 01:11:32			0	32394	0	0	0	17420	16070	160528	27587	959663	38346	106322	0	0	8068	841367	0	0
2024-05-03 01:12:32			0	32406	0	0	0	17420	16070	160740	26861	959663	38335	106322	0	0	8069	840718	0	0
2024-05-03 01:13:32			0	32400	0	0	0	17418	16070	160780	27227	959723	38347	106321	0	0	8068	841042	0	0
2024-05-03 01:14:32			0	32389	0	0	0	17412	16070	160748	27216	959584	38357	106319	0	0	8068	841637	0	0
2024-05-03 01:15:32			0	32360	0	0	0	17412	16070	160808	27433	959636	38357	106319	0	0	8066	843207	0	0
2024-05-03 01:16:32			0	32370	0	0	0	17415	16050	160808	27377	959630	38344	106320	0	0	8066	842756	0	0
2024-05-03 01:17:32			0	32360	0	0	0	17415	16060	160876	27268	959681	38345	106320	0	0	8066	843252	0	0
2024-05-03 01:18:32			0	32335	0	0	0	17418	16060	160976	27088	959594	38356	106321	0	0	8064	844607	0	0
2024-05-03 01:19:32			0	32336	0	0	0	17412	16050	160920	27367	959604	38355	106319	0	0	8064	844599	0	0
2024-05-03 01:20:32			0	32332	0	0	0	17412	16050	160964	27647	959612	38333	106319	0	0	8064	844816	0	0
2024-05-03 01:21:32			0	32323	0	0	0	17420	16050	161096	27130	959630	38355	106322	0	0	8063	845304	0	0
2024-05-03 01:22:32			0	32322	0	0	0	17407	16050	161112	27137	959612	38355	106317	0	0	8064	845358	0	0
2024-05-03 01:23:32			0	32318	0	0	0	17394	16040	161080	27459	959595	38343	106312	0	0	8063	845621	0	0
2024-05-03 01:24:32			0	32297	0	0	0	17389	16040	161128	27578	959595	38333	106310	0	0	8062	846762	0	0
2024-05-03 01:25:32			0	32318	0	0	0	17394	16040	161120	27319	959595	38333	106312	0	0	8063	845621	0	0
2024-05-03 01:26:32			0	32299	0	0	0	17392	16030	161076	27265	959605	38342	106311	0	0	8062	846699	0	0
2024-05-03 01:27:32			0	32304	0	0	0	17397	16030	161148	27317	959553	38354	106313	0	0	8062	846427	0	0
2024-05-03 01:28:32			0	32305	0	0	0	17397	16020	161108	27538	959536	38331	106313	0	0	8062	846419	0	0
2024-05-03 01:29:32			0	32289	0	0	0	17389	16030	161216	27170	959545	38332	106310	0	0	8062	847243	0	0
2024-05-03 01:30:32			0	32291	0	0	0	17384	16020	161136	27557	959510	38342	106308	0	0	8062	847180	0	0
2024-05-03 01:31:32			0	32307	0	0	0	17379	16020	161252	27512	959457	38342	106306	0	0	8063	846310	0	0
2024-05-03 01:32:32			0	32291	0	0	0	17381	16010	161228	27294	959486	38341	106307	0	0	8062	847225	0	0
2024-05-03 01:33:32			0	32293	0	0	0	17366	16010	161248	27300	959467	38341	106301	0	0	8062	847117	0	0
2024-05-03 01:34:32			0	32312	0	0	0	17379	16010	161216	27287	959467	38331	106306	0	0	8063	846084	0	0
2024-05-03 01:35:32			0	32282	0	0	0	17384	16010	161184	27211	959441	38341	106308	0	0	8061	847715	0	0
2024-05-03 01:36:32			0	32282	0	0	0	17402	16010	161336	27130	959486	38352	106315	0	0	8061	847715	0	0
2024-05-03 01:37:32			0	32297	0	0	0	17397	16020	161212	27175	959563	38342	106313	0	0	8062	846853	0	0
2024-05-03 01:38:32			0	32322	0	0	0	17397	16010	161172	27173	959441	38341	106313	0	0	8063	845541	0	0
2024-05-03 01:39:32			0	32326	0	0	0	17402	16020	161048	27067	959502	38342	106315	0	0	8064	845278	0	0
2024-05-03 01:40:32			0	32335	0	0	0	17397	16010	161140	27452	959520	38331	106313	0	0	8064	844835	0	0
2024-05-03 01:41:32			0	32332	0	0	0	17386	16010	161020	27436	959441	38363	106309	0	0	8064	844998	0	0
2024-05-03 01:42:32			0	32334	0	0	0	17389	16020	160992	27261	959528	38342	106310	0	0	8064	844844	0	0
2024-05-03 01:43:32			0	32327	0	0	0	17392	16010	161036	27343	959546	38341	106311	0	0	8064	845269	0	0
2024-05-03 01:44:32			0	32327	0	0	0	17384	16020	161188	27415	959449	38342	106308	0	0	8064	845224	0	0
2024-05-03 01:45:32			0	32333	0	0	0	17368	16000	161140	27422	959425	38340	106302	0	0	8065	844989	0	0
2024-05-03 01:46:32			0	32309	0	0	0	17376	16010	161224	27322	959415	38331	106305	0	0	8063	846247	0	0
2024-05-03 01:47:32			0	32309	0	0	0	17384	16010	161216	27253	959486	38352	106308	0	0	8063	846247	0	0
2024-05-03 01:48:32			0	32303	0	0	0	17386	16010	161260	27620	959486	38352	106309	0	0	8062	846573	0	0
2024-05-03 01:49:32			0	32319	0	0	0	17389	16010	161240	27538	959486	38341	106310	0	0	8063	845704	0	0
2024-05-03 01:50:32			0	32308	0	0	0	17389	16000	161308	27443	959477	38330	106310	0	0	8063	846347	0	0
2024-05-03 01:51:32			0	32302	0	0	0	17381	16000	161252	27350	959416	38339	106307	0	0	8062	846673	0	0
2024-05-03 01:52:32			0	32306	0	0	0	17366	16010	161204	27230	959486	38341	106301	0	0	8063	846410	0	0
2024-05-03 01:53:32			0	32281	0	0	0	17366	15990	161384	27301	959461	38350	106301	0	0	8061	847861	0	0
2024-05-03 01:54:32			0	32288	0	0	0	17361	15990	161452	27007	959434	38339	106299	0	0	8062	847480	0	0
2024-05-03 01:55:32			0	32257	0	0	0	17361	16000	161488	27272	959443	38361	106299	0	0	8060	849122	0	0
2024-05-03 01:56:32			0	32242	0	0	0	17355	16000	161484	27235	959390	38339	106297	0	0	8059	849940	0	0
2024-05-03 01:57:32			0	32234	0	0	0	17363	15990	161496	27253	959434	38339	106300	0	0	8058	850422	0	0
2024-05-03 01:58:32			0	32214	0	0	0	17368	15990	161652	27216	959400	38339	106302	0	0	8057	851514	0	0
2024-05-03 01:59:32			0	32216	0	0	0	17366	15990	161580	27196	959400	38339	106301	0	0	8057	851405	0	0
2024-05-03 02:00:32			0	32234	0	0	0	17361	15990	161560	27383	959400	38339	106299	0	0	8058	850422	0	0
2024-05-03 02:01:32			0	32225	0	0	0	17371	15990	161744	27287	959426	38339	106303	0	0	8058	850913	0	0
2024-05-03 02:02:32			0	32219	0	0	0	17368	15990	161656	27256	959373	38339	106302	0	0	8057	851241	0	0
2024-05-03 02:03:32			0	32233	0	0	0	17376	15980	161688	27409	959410	38337	106305	0	0	8058	850523	0	0
2024-05-03 02:04:32			0	32241	0	0	0	17361	15990	161608	27580	959400	38339	106299	0	0	8059	850040	0	0
2024-05-03 02:05:32			0	32200	0	0	0	17353	15990	161716	27646	959453	38339	106296	0	0	8056	852279	0	0
2024-05-03 02:06:32			0	32198	0	0	0	17353	15990	161868	27339	959408	38350	106296	0	0	8056	852388	0	0
2024-05-03 02:07:32			0	32218	0	0	0	17355	15980	161792	27289	959365	38349	106297	0	0	8057	851342	0	0
2024-05-03 02:08:32			0	32203	0	0	0	17353	15990	161708	27431	959382	38350	106296	0	0	8057	852115	0	0
2024-05-03 02:09:32			0	32211	0	0	0	17350	15980	161812	27138	959418	38349	106295	0	0	8057	851724	0	0
2024-05-03 02:10:32			0	32184	0	0	0	17355	15970	161796	27246	959402	38337	106297	0	0	8055	853246	0	0
2024-05-03 02:11:32			0	32207	0	0	0	17355	15980	161832	27102	959357	38327	106297	0	0	8057	851942	0	0
2024-05-03 02:12:32			0	32186	0	0	0	17361	15980	161908	27216	959357	38327	106299	0	0	8055	853091	0	0
2024-05-03 02:13:32			0	32204	0	0	0	17348	15980	161856	27194	959357	38327	106294	0	0	8057	852107	0	0
2024-05-03 02:14:32			0	32211	0	0	0	17337	15980	161880	27029	959339	38349	106290	0	0	8057	851724	0	0
2024-05-03 02:15:32			0	32203	0	0	0	17342	15980	161812	27053	959357	38327	106292	0	0	8057	852161	0	0
2024-05-03 02:16:32			0	32197	0	0	0	17358	15970	161816	27150	959375	38337	106298	0	0	8056	852535	0	0
2024-05-03 02:17:32			0	32198	0	0	0	17366	15980	161872	27398	959331	38337	106301	0	0	8056	852434	0	0
2024-05-03 02:18:32			0	32200	0	0	0	17355	15980	161964	27253	959339	38338	106297	0	0	8056	852325	0	0
2024-05-03 02:19:32			0	32194	0	0	0	17350	15980	161864	27281	959331	38337	106295	0	0	8056	852653	0	0
2024-05-03 02:20:32			0	32187	0	0	0	17337	15970	161828	27424	959323	38348	106290	0	0	8056	853082	0	0
2024-05-03 02:21:32			0	32187	0	0	0	17329	15970	161868	27152	959375	38337	106287	0	0	8056	853082	0	0
2024-05-03 02:22:32			0	32177	0	0	0	17324	15980	161892	27242	959339	38338	106285	0	0	8055	853583	0	0
2024-05-03 02:23:32			0	32172	0	0	0	17335	15960	161884	27320	959280	38326	106289	0	0	8055	853949	0	0
2024-05-03 02:24:32			0	32164	0	0	0	17327	15950	161988	27409	959264	38336	106286	0	0	8054	854433	0	0
2024-05-03 02:25:32			0	32156	0	0	0	17319	15950	161948	27190	959264	38336	106283	0	0	8054	854872	0	0
2024-05-03 02:26:32			0	32177	0	0	0	17335	15960	161936	27213	959333	38336	106289	0	0	8055	853676	0	0
2024-05-03 02:27:32			0	32166	0	0	0	17345	15960	161888	27045	959359	38348	106293	0	0	8054	854278	0	0
2024-05-03 02:28:32			0	32178	0	0	0	17332	15960	161832	27293	959298	38347	106288	0	0	8055	853621	0	0
2024-05-03 02:29:32			0	32174	0	0	0	17324	15960	161924	27360	959280	38336	106285	0	0	8055	853840	0	0
2024-05-03 02:30:32			0	32165	0	0	0	17322	15960	162020	27414	959280	38326	106284	0	0	8055	854333	0	0
2024-05-03 02:31:32			0	32169	0	0	0	17322	15950	162012	27526	959255	38335	106284	0	0	8055	854160	0	0
2024-05-03 02:32:32			0	32184	0	0	0	17319	15950	161944	27379	959264	38336	106283	0	0	8056	853338	0	0
2024-05-03 02:33:32			0	32167	0	0	0	17314	15950	161912	27490	959185	38326	106281	0	0	8055	854269	0	0
2024-05-03 02:34:32			0	32185	0	0	0	17309	15950	161876	27455	959290	38326	106279	0	0	8056	853283	0	0
2024-05-03 02:35:32			0	32187	0	0	0	17322	15960	161804	27038	959298	38326	106284	0	0	8056	853128	0	0
2024-05-03 02:36:32			0	32201	0	0	0	17316	15950	161820	27319	959264	38347	106282	0	0	8057	852408	0	0
2024-05-03 02:37:32			0	32225	0	0	0	17324	15940	161692	27329	959221	38346	106285	0	0	8058	851143	0	0
2024-05-03 02:38:32			0	32286	0	0	0	17324	15950	161452	26896	959255	38335	106285	0	0	8062	847772	0	0
2024-05-03 02:39:32			0	32289	0	0	0	17324	15940	161476	27079	959274	38335	106285	0	0	8062	847654	0	0
2024-05-03 02:40:32			0	32277	0	0	0	17303	15960	161552	27301	959298	38347	106277	0	0	8062	848216	0	0
2024-05-03 02:41:32			0	32248	0	0	0	17311	15940	161616	27156	959239	38345	106280	0	0	8060	849888	0	0
2024-05-03 02:42:32			0	32254	0	0	0	17309	15940	161748	27277	959221	38335	106279	0	0	8060	849561	0	0
2024-05-03 02:43:32			0	32251	0	0	0	17306	15940	161748	26989	959239	38334	106278	0	0	8060	849724	0	0
2024-05-03 02:44:32			0	32258	0	0	0	17306	15940	161696	27102	959247	38335	106278	0	0	8061	849342	0	0
2024-05-03 02:45:32			0	32247	0	0	0	17301	15950	161640	27170	959255	38325	106276	0	0	8060	849896	0	0
2024-05-03 02:46:32			0	32249	0	0	0	17311	15920	161668	27105	959136	38323	106280	0	0	8060	849925	0	0
2024-05-03 02:47:32			0	32246	0	0	0	17306	15940	161604	27230	959186	38324	106278	0	0	8060	849997	0	0
2024-05-03 02:48:32			0	32248	0	0	0	17314	15930	161756	27222	959231	38344	106281	0	0	8060	849933	0	0
2024-05-03 02:49:32			0	32241	0	0	0	17319	15930	161716	27111	959257	38333	106283	0	0	8059	850315	0	0
2024-05-03 02:50:32			0	32234	0	0	0	17332	15940	161636	27005	959247	38335	106288	0	0	8059	850651	0	0
2024-05-03 02:51:32			0	32258	0	0	0	17324	15940	161520	27041	959274	38335	106285	0	0	8060	849342	0	0
2024-05-03 02:52:32			0	32303	0	0	0	17329	15940	161236	27104	959213	38345	106287	0	0	8063	846893	0	0
2024-05-03 02:53:32			0	32419	0	0	0	17319	15940	160784	27220	959221	38335	106283	0	0	8071	840606	0	0
2024-05-03 02:54:32			0	32430	0	0	0	17306	15940	160672	27303	959274	38335	106278	0	0	8071	840012	0	0
2024-05-03 02:55:32			0	32392	0	0	0	17309	15930	160868	27410	959178	38333	106279	0	0	8069	842111	0	0
2024-05-03 02:56:32			0	32376	0	0	0	17309	15940	160988	27189	959292	38334	106279	0	0	8068	842932	0	0
2024-05-03 02:57:32			0	32368	0	0	0	17306	15940	161100	26927	959195	38346	106278	0	0	8068	843365	0	0
2024-05-03 02:58:32			0	32337	0	0	0	17298	15940	161180	27053	959213	38345	106275	0	0	8066	845046	0	0
2024-05-03 02:59:32			0	32319	0	0	0	17298	15930	161252	27448	959170	38333	106275	0	0	8065	846069	0	0
2024-05-03 03:00:32			0	32331	0	0	0	17314	15940	161188	26998	959186	38345	106281	0	0	8065	845371	0	0
2024-05-03 03:01:32			0	32359	0	0	0	17311	15940	161236	27123	959186	38345	106280	0	0	8067	843852	0	0
2024-05-03 03:02:32			0	32375	0	0	0	17319	15940	160928	27419	959274	38346	106283	0	0	8068	842986	0	0
2024-05-03 03:03:32			0	32412	0	0	0	17306	15940	160912	26934	959247	38335	106278	0	0	8070	840984	0	0
2024-05-03 03:04:32			0	32434	0	0	0	17322	15930	160788	27336	959249	38344	106284	0	0	8071	839841	0	0
2024-05-03 03:05:32			0	32468	0	0	0	17324	15940	160552	27041	959265	38334	106285	0	0	8074	837962	0	0
2024-05-03 03:06:32			0	32493	0	0	0	17324	15940	160440	27012	959265	38345	106285	0	0	8075	836616	0	0
2024-05-03 03:07:32			0	32521	0	0	0	17316	15940	160392	27360	959265	38345	106282	0	0	8077	835110	0	0
2024-05-03 03:08:32			0	32550	0	0	0	17316	15940	160312	27289	959239	38334	106282	0	0	8079	833554	0	0
2024-05-03 03:09:32			0	32570	0	0	0	17316	15940	160108	27145	959274	38357	106282	0	0	8080	832481	0	0
2024-05-03 03:10:32			0	32604	0	0	0	17311	15930	159936	26882	959257	38333	106280	0	0	8082	830706	0	0
2024-05-03 03:11:32			0	32644	0	0	0	17311	15930	159748	27038	959205	38323	106280	0	0	8085	828569	0	0
2024-05-03 03:12:32			0	32641	0	0	0	17311	15930	159808	27268	959257	38323	106280	0	0	8085	828729	0	0
2024-05-03 03:13:32			0	32614	0	0	0	17309	15940	159876	27282	959239	38345	106279	0	0	8083	830127	0	0
2024-05-03 03:14:32			0	32594	0	0	0	17311	15930	159992	27150	959205	38333	106280	0	0	8082	831241	0	0
2024-05-03 03:15:32			0	32580	0	0	0	17311	15940	160100	27093	959265	38334	106280	0	0	8081	831946	0	0
2024-05-03 03:16:32			0	32539	0	0	0	17316	15940	160116	27426	959213	38334	106282	0	0	8078	834144	0	0
2024-05-03 03:17:32			0	32551	0	0	0	17316	15930	160144	27390	959249	38323	106282	0	0	8079	833545	0	0
2024-05-03 03:18:32			0	32559	0	0	0	17306	15930	160164	27282	959257	38323	106278	0	0	8079	833116	0	0
2024-05-03 03:19:32			0	32569	0	0	0	17314	15930	160088	27199	959205	38344	106281	0	0	8080	832580	0	0
2024-05-03 03:20:32			0	32574	0	0	0	17311	15940	160088	27364	959186	38334	106280	0	0	8080	832267	0	0
2024-05-03 03:21:32			0	32588	0	0	0	17316	15940	160080	27223	959239	38334	106282	0	0	8081	831517	0	0
2024-05-03 03:22:32			0	32612	0	0	0	17311	15930	159980	27426	959196	38333	106280	0	0	8083	830278	0	0
2024-05-03 03:23:32			0	32627	0	0	0	17311	15940	159764	27222	959213	38334	106280	0	0	8084	829432	0	0
2024-05-03 03:24:32			0	32679	0	0	0	17314	15930	159624	27272	959257	38333	106281	0	0	8087	826703	0	0
2024-05-03 03:25:32			0	32706	0	0	0	17319	15940	159424	27416	959239	38345	106283	0	0	8088	825221	0	0
2024-05-03 03:26:32			0	32730	0	0	0	17322	15940	159268	27163	959213	38345	106284	0	0	8090	823946	0	0
2024-05-03 03:27:32			0	32721	0	0	0	17327	15930	159332	27630	959205	38333	106286	0	0	8089	824468	0	0
2024-05-03 03:28:32			0	32734	0	0	0	17311	15940	159348	27140	959195	38335	106280	0	0	8090	823733	0	0
2024-05-03 03:29:32			0	32721	0	0	0	17309	15940	159248	27105	959292	38334	106279	0	0	8090	824424	0	0
2024-05-03 03:30:32			0	32707	0	0	0	17306	15930	159408	27293	959223	38323	106278	0	0	8089	825213	0	0
2024-05-03 03:31:32			0	32718	0	0	0	17314	15940	159380	27258	959239	38334	106281	0	0	8089	824584	0	0
2024-05-03 03:32:32			0	32715	0	0	0	17311	15930	159260	27386	959205	38333	106280	0	0	8089	824787	0	0
2024-05-03 03:33:32			0	32702	0	0	0	17303	15940	159448	27201	959213	38345	106277	0	0	8088	825434	0	0
2024-05-03 03:34:32			0	32700	0	0	0	17306	15930	159456	27078	959205	38333	106278	0	0	8088	825585	0	0
2024-05-03 03:35:32			0	32722	0	0	0	17314	15940	159340	27530	959160	38345	106281	0	0	8090	824371	0	0
2024-05-03 03:36:32			0	32717	0	0	0	17293	15930	159408	27133	959223	38323	106273	0	0	8090	824681	0	0
2024-05-03 03:37:32			0	32678	0	0	0	17306	15930	159580	27509	959144	38344	106278	0	0	8087	826756	0	0
2024-05-03 03:38:32			0	32633	0	0	0	17296	15930	159836	27327	959231	38333	106274	0	0	8084	829156	0	0
2024-05-03 03:39:32			0	32621	0	0	0	17303	15930	159844	27454	959170	38344	106277	0	0	8083	829797	0	0
2024-05-03 03:40:32			0	32596	0	0	0	17309	15930	159984	27327	959196	38333	106279	0	0	8082	831134	0	0
2024-05-03 03:41:32			0	32608	0	0	0	17301	15930	159984	27310	959223	38344	106276	0	0	8083	830492	0	0
2024-05-03 03:42:32			0	32626	0	0	0	17309	15940	159920	27365	959213	38334	106279	0	0	8084	829486	0	0
2024-05-03 03:43:32			0	32619	0	0	0	17301	15930	159956	27102	959223	38333	106276	0	0	8083	829904	0	0
2024-05-03 03:44:32			0	32609	0	0	0	17303	15930	159808	27227	959223	38333	106277	0	0	8083	830439	0	0
2024-05-03 03:45:32			0	32621	0	0	0	17311	15930	159928	27039	959257	38344	106280	0	0	8083	829797	0	0
2024-05-03 03:46:32			0	32588	0	0	0	17303	15940	159992	26996	959213	38334	106277	0	0	8081	831517	0	0
2024-05-03 03:47:32			0	32609	0	0	0	17311	15930	159948	27178	959275	38344	106280	0	0	8083	830439	0	0
2024-05-03 03:48:32			0	32645	0	0	0	17314	15930	159756	27322	959275	38333	106281	0	0	8085	828516	0	0
2024-05-03 03:49:32			0	32702	0	0	0	17316	15920	159640	27476	959154	38333	106282	0	0	8088	825523	0	0
2024-05-03 03:50:32			0	32724	0	0	0	17314	15940	159392	26970	959239	38334	106281	0	0	8090	824265	0	0
2024-05-03 03:51:32			0	32739	0	0	0	17311	15930	159264	27334	959257	38344	106280	0	0	8091	823512	0	0
2024-05-03 03:52:32			0	32775	0	0	0	17316	15930	159184	27557	959205	38333	106282	0	0	8093	821603	0	0
2024-05-03 03:53:32			0	32776	0	0	0	17316	15930	159049	27379	959205	38333	106282	0	0	8093	821550	0	0
2024-05-03 03:54:32			0	32820	0	0	0	17314	15930	158929	27282	959284	38333	106281	0	0	8096	819221	0	0
2024-05-03 03:55:32			0	32833	0	0	0	17311	15930	158885	27471	959257	38333	106280	0	0	8096	818534	0	0
2024-05-03 03:56:32			0	32791	0	0	0	17301	15930	158913	27235	959231	38323	106276	0	0	8094	820755	0	0
2024-05-03 03:57:32			0	32787	0	0	0	17293	15930	158965	27142	959205	38333	106273	0	0	8094	820967	0	0
2024-05-03 03:58:32			0	32774	0	0	0	17306	15930	159180	27156	959231	38333	106278	0	0	8093	821656	0	0
2024-05-03 03:59:32			0	32759	0	0	0	17290	15940	159244	27310	959239	38334	106272	0	0	8092	822407	0	0
2024-05-03 04:00:32			0	32729	0	0	0	17306	15930	159256	27260	959196	38333	106278	0	0	8090	824043	0	0
2024-05-03 04:01:32			0	32764	0	0	0	17296	15930	159140	27357	959223	38323	106274	0	0	8092	822186	0	0
2024-05-03 04:02:32			0	32756	0	0	0	17293	15930	159192	27111	959178	38333	106273	0	0	8092	822610	0	0
2024-05-03 04:03:32			0	32745	0	0	0	17303	15930	159352	27265	959223	38344	106277	0	0	8091	823194	0	0
2024-05-03 04:04:32			0	32715	0	0	0	17303	15910	159388	27474	959198	38342	106277	0	0	8089	824876	0	0
2024-05-03 04:05:32			0	32724	0	0	0	17301	15920	159408	27351	959188	38344	106276	0	0	8090	824354	0	0
2024-05-03 04:06:32			0	32724	0	0	0	17311	15920	159312	27286	959206	38322	106280	0	0	8090	824354	0	0
2024-05-03 04:07:32			0	32739	0	0	0	17296	15920	159236	27327	959267	38344	106274	0	0	8091	823557	0	0
2024-05-03 04:08:32			0	32765	0	0	0	17303	15930	159212	27133	959223	38333	106277	0	0	8092	822133	0	0
2024-05-03 04:09:32			0	32765	0	0	0	17303	15930	159108	26974	959223	38333	106277	0	0	8092	822133	0	0
2024-05-03 04:10:32			0	32768	0	0	0	17290	15910	159160	27360	959190	38342	106272	0	0	8093	822062	0	0
2024-05-03 04:11:32			0	32768	0	0	0	17298	15920	159136	27511	959215	38333	106275	0	0	8093	822018	0	0
2024-05-03 04:12:32			0	32766	0	0	0	17298	15930	159200	27485	959196	38344	106275	0	0	8092	822080	0	0
2024-05-03 04:13:32			0	32764	0	0	0	17298	15910	159128	27338	959198	38332	106275	0	0	8092	822275	0	0
2024-05-03 04:14:32			0	32785	0	0	0	17298	15930	159029	27201	959196	38344	106275	0	0	8094	821073	0	0
2024-05-03 04:15:32			0	32795	0	0	0	17296	15920	159093	27499	959188	38333	106274	0	0	8094	820588	0	0
2024-05-03 04:16:32			0	32768	0	0	0	17298	15930	159152	27229	959196	38333	106275	0	0	8093	821974	0	0
2024-05-03 04:17:32			0	32789	0	0	0	17298	15930	159185	27374	959223	38333	106275	0	0	8094	820861	0	0
2024-05-03 04:18:32			0	32788	0	0	0	17296	15930	159149	27305	959223	38344	106274	0	0	8094	820914	0	0
2024-05-03 04:19:32			0	32784	0	0	0	17293	15910	159121	27164	959146	38332	106273	0	0	8094	821215	0	0
2024-05-03 04:20:32			0	32783	0	0	0	17303	15910	159025	27029	959216	38321	106277	0	0	8093	821268	0	0
2024-05-03 04:21:32			0	32798	0	0	0	17301	15910	159069	27156	959172	38342	106276	0	0	8094	820473	0	0
2024-05-03 04:22:32			0	32784	0	0	0	17290	15910	159085	27384	959146	38332	106272	0	0	8094	821215	0	0
2024-05-03 04:23:32			0	32790	0	0	0	17290	15930	158941	27388	959231	38323	106272	0	0	8094	820808	0	0
2024-05-03 04:24:32			0	32805	0	0	0	17288	15910	158985	27341	959164	38342	106271	0	0	8095	820103	0	0
2024-05-03 04:25:32			0	32808	0	0	0	17298	15910	159061	27218	959198	38332	106275	0	0	8095	819944	0	0
2024-05-03 04:26:32			0	32816	0	0	0	17283	15910	158969	27630	959137	38332	106269	0	0	8096	819521	0	0
2024-05-03 04:27:32			0	32808	0	0	0	17296	15910	158965	27202	959198	38332	106274	0	0	8095	819944	0	0
2024-05-03 04:28:32			0	32831	0	0	0	17280	15910	158885	27215	959146	38332	106268	0	0	8097	818728	0	0
2024-05-03 04:29:32			0	32843	0	0	0	17280	15910	158869	27537	959146	38332	106268	0	0	8097	818095	0	0
2024-05-03 04:30:32			0	32829	0	0	0	17277	15910	158913	27699	959137	38332	106267	0	0	8097	818834	0	0
2024-05-03 04:31:32			0	32839	0	0	0	17272	15910	158813	27324	959164	38321	106265	0	0	8097	818306	0	0
2024-05-03 04:32:32			0	32854	0	0	0	17272	15910	158665	27564	959085	38332	106265	0	0	8098	817514	0	0
2024-05-03 04:33:32			0	32865	0	0	0	17277	15910	158713	27327	959111	38332	106267	0	0	8099	816934	0	0
2024-05-03 04:34:32			0	32860	0	0	0	17270	15900	158641	27374	959129	38332	106264	0	0	8099	817241	0	0
2024-05-03 04:35:32			0	32879	0	0	0	17257	15910	158637	27248	959137	38321	106259	0	0	8100	816196	0	0
2024-05-03 04:36:32			0	32889	0	0	0	17259	15890	158549	27637	959060	38352	106260	0	0	8100	815757	0	0
2024-05-03 04:37:32			0	32905	0	0	0	17254	15900	158441	27237	959121	38332	106258	0	0	8102	814870	0	0
2024-05-03 04:38:32			0	32903	0	0	0	17251	15900	158529	27319	959042	38332	106257	0	0	8102	814976	0	0
2024-05-03 04:39:32			0	32891	0	0	0	17257	15880	158509	27303	958991	38331	106259	0	0	8101	815695	0	0
2024-05-03 04:40:32			0	32919	0	0	0	17238	15890	158525	27559	958999	38331	106252	0	0	8103	814178	0	0
2024-05-03 04:41:32			0	32924	0	0	0	17251	15880	158409	27409	959062	38330	106257	0	0	8103	813959	0	0
2024-05-03 04:42:32			0	32897	0	0	0	17241	15870	158449	27218	959001	38318	106253	0	0	8101	815423	0	0
2024-05-03 04:43:32			0	32911	0	0	0	17238	15880	158453	27267	959018	38331	106252	0	0	8102	814643	0	0
2024-05-03 04:44:32			0	32887	0	0	0	17244	15880	158621	27159	959062	38330	106254	0	0	8101	815906	0	0
2024-05-03 04:45:32			0	32901	0	0	0	17254	15870	158617	27260	959001	38329	106258	0	0	8101	815213	0	0
2024-05-03 04:46:32			0	32897	0	0	0	17249	15870	158577	27095	959027	38329	106256	0	0	8101	815423	0	0
2024-05-03 04:47:32			0	32908	0	0	0	17238	15870	158593	27473	959027	38318	106252	0	0	8102	814844	0	0
2024-05-03 04:48:32			0	32907	0	0	0	17236	15880	158549	27493	958983	38330	106251	0	0	8102	814853	0	0
2024-05-03 04:49:32			0	32908	0	0	0	17238	15860	158613	27353	958966	38328	106252	0	0	8102	814888	0	0
2024-05-03 04:50:32			0	32896	0	0	0	17246	15870	158597	27443	958975	38329	106255	0	0	8101	815476	0	0
2024-05-03 04:51:32			0	32909	0	0	0	17220	15860	158641	27263	958940	38317	106245	0	0	8102	814836	0	0
2024-05-03 04:52:32			0	32882	0	0	0	17225	15860	158617	27111	958993	38317	106247	0	0	8100	816258	0	0
2024-05-03 04:53:32			0	32881	0	0	0	17223	15850	158697	27105	958924	38317	106246	0	0	8100	816354	0	0
2024-05-03 04:54:32			0	32871	0	0	0	17212	15860	158645	27173	958940	38328	106242	0	0	8100	816838	0	0
2024-05-03 04:55:32			0	32874	0	0	0	17223	15850	158737	27060	958924	38328	106246	0	0	8100	816723	0	0
2024-05-03 04:56:32			0	32877	0	0	0	17220	15860	158745	27270	958932	38328	106245	0	0	8100	816521	0	0
2024-05-03 04:57:32			0	32853	0	0	0	17238	15850	158837	27336	958871	38328	106252	0	0	8098	817831	0	0
2024-05-03 04:58:32			0	32856	0	0	0	17233	15850	158857	27312	958942	38337	106250	0	0	8099	817673	0	0
2024-05-03 04:59:32			0	32867	0	0	0	17231	15850	158825	27230	958916	38327	106249	0	0	8099	817092	0	0
2024-05-03 05:00:32			0	32849	0	0	0	17236	15850	158853	27466	958916	38327	106251	0	0	8098	818042	0	0
2024-05-03 05:01:32			0	32867	0	0	0	17223	15850	158741	27353	958950	38328	106246	0	0	8100	817092	0	0
2024-05-03 05:02:32			0	32864	0	0	0	17225	15840	158697	27069	958907	38315	106247	0	0	8099	817295	0	0
2024-05-03 05:03:32			0	32883	0	0	0	17225	15840	158749	27357	958873	38326	106247	0	0	8100	816293	0	0
2024-05-03 05:04:32			0	32873	0	0	0	17231	15850	158685	27426	958897	38328	106249	0	0	8100	816776	0	0
2024-05-03 05:05:32			0	32859	0	0	0	17223	15840	158685	27457	958934	38337	106246	0	0	8099	817559	0	0
2024-05-03 05:06:32			0	32869	0	0	0	17236	15840	158741	27530	958934	38315	106251	0	0	8099	817031	0	0
2024-05-03 05:07:32			0	32877	0	0	0	17220	15840	158701	27182	958873	38326	106245	0	0	8100	816609	0	0
2024-05-03 05:08:32			0	32878	0	0	0	17228	15850	158653	27294	958942	38316	106248	0	0	8100	816512	0	0
2024-05-03 05:09:32			0	32872	0	0	0	17215	15840	158709	27114	958899	38326	106243	0	0	8100	816873	0	0
2024-05-03 05:10:32			0	32869	0	0	0	17228	15840	158641	27251	958899	38326	106248	0	0	8100	817031	0	0
2024-05-03 05:11:32			0	32887	0	0	0	17225	15830	158657	27197	958909	38336	106247	0	0	8101	816126	0	0
2024-05-03 05:12:32			0	32884	0	0	0	17225	15840	158729	27253	958934	38326	106247	0	0	8100	816240	0	0
2024-05-03 05:13:32			0	32886	0	0	0	17228	15840	158721	27301	958873	38326	106248	0	0	8101	816135	0	0
2024-05-03 05:14:32			0	32879	0	0	0	17231	15850	158697	27339	958942	38316	106249	0	0	8100	816460	0	0
2024-05-03 05:15:32			0	32901	0	0	0	17225	15840	158661	27053	958899	38326	106247	0	0	8102	815344	0	0
2024-05-03 05:16:32			0	32891	0	0	0	17210	15840	158669	27144	958934	38326	106241	0	0	8101	815871	0	0
2024-05-03 05:17:32			0	32883	0	0	0	17212	15840	158769	27324	958926	38326	106242	0	0	8101	816293	0	0
2024-05-03 05:18:32			0	32869	0	0	0	17228	15840	158897	27230	958828	38326	106248	0	0	8100	817031	0	0
2024-05-03 05:19:32			0	32854	0	0	0	17228	15830	158909	27364	958883	38326	106248	0	0	8099	817867	0	0
2024-05-03 05:20:32			0	32864	0	0	0	17220	15840	158817	27351	958847	38348	106245	0	0	8099	817295	0	0
2024-05-03 05:21:32			0	32871	0	0	0	17225	15840	158813	27024	958820	38304	106247	0	0	8100	816926	0	0
2024-05-03 05:22:32			0	32859	0	0	0	17223	15840	158845	26814	958907	38326	106246	0	0	8099	817559	0	0
2024-05-03 05:23:32			0	32863	0	0	0	17223	15830	158773	27260	958883	38314	106246	0	0	8099	817392	0	0
2024-05-03 05:24:32			0	32850	0	0	0	17215	15840	158857	27098	958899	38337	106243	0	0	8099	818034	0	0
2024-05-03 05:25:32			0	32852	0	0	0	17223	15840	158869	27220	958907	38326	106246	0	0	8099	817928	0	0
2024-05-03 05:26:32			0	32864	0	0	0	17212	15830	158889	27450	958917	38326	106242	0	0	8099	817339	0	0
2024-05-03 05:27:32			0	32851	0	0	0	17228	15850	158877	27003	958889	38316	106248	0	0	8098	817937	0	0
2024-05-03 05:28:32			0	32843	0	0	0	17218	15840	158813	27159	958881	38315	106244	0	0	8098	818403	0	0
2024-05-03 05:29:32			0	32854	0	0	0	17228	15840	158985	27197	958820	38326	106248	0	0	8099	817822	0	0
2024-05-03 05:30:32			0	32843	0	0	0	17225	15830	158917	26956	958883	38336	106247	0	0	8098	818448	0	0
2024-05-03 05:31:32			0	32858	0	0	0	17231	15840	158877	27119	958899	38326	106249	0	0	8099	817611	0	0
2024-05-03 05:32:32			0	32842	0	0	0	17228	15840	158917	27185	958934	38315	106248	0	0	8098	818456	0	0
2024-05-03 05:33:32			0	32865	0	0	0	17236	15840	158909	27060	958960	38326	106251	0	0	8099	817242	0	0
2024-05-03 05:34:32			0	32825	0	0	0	17231	15840	158877	27263	958952	38326	106249	0	0	8097	819354	0	0
2024-05-03 05:35:32			0	32842	0	0	0	17218	15830	158853	27258	958917	38337	106244	0	0	8098	818500	0	0
2024-05-03 05:36:32			0	32830	0	0	0	17233	15840	158925	27190	958847	38326	106250	0	0	8097	819090	0	0
2024-05-03 05:37:32			0	32829	0	0	0	17238	15850	158949	27109	958916	38316	106252	0	0	8097	819099	0	0
2024-05-03 05:38:32			0	32830	0	0	0	17241	15840	159037	27176	958934	38326	106253	0	0	8097	819090	0	0
2024-05-03 05:39:32			0	32820	0	0	0	17244	15840	158973	27119	958952	38326	106254	0	0	8096	819619	0	0
2024-05-03 05:40:32			0	32858	0	0	0	17249	15850	158909	27464	958950	38317	106256	0	0	8099	817567	0	0
2024-05-03 05:41:32			0	32855	0	0	0	17246	15850	158913	27173	958995	38337	106255	0	0	8098	817726	0	0
2024-05-03 05:42:32			0	32858	0	0	0	17257	15850	158849	27130	958950	38338	106259	0	0	8098	817567	0	0
2024-05-03 05:43:32			0	32862	0	0	0	17254	15860	158777	27346	958985	38328	106258	0	0	8099	817312	0	0
2024-05-03 05:44:32			0	32881	0	0	0	17249	15850	158801	27000	959074	38316	106256	0	0	8100	816354	0	0
2024-05-03 05:45:32			0	32857	0	0	0	17257	15860	158877	27161	959037	38338	106259	0	0	8098	817576	0	0
2024-05-03 05:46:32			0	32878	0	0	0	17267	15860	158709	27206	959064	38328	106263	0	0	8100	816468	0	0
2024-05-03 05:47:32			0	32874	0	0	0	17264	15860	158681	27357	959045	38328	106262	0	0	8099	816679	0	0
2024-05-03 05:48:32			0	32878	0	0	0	17251	15850	158805	27019	959029	38328	106257	0	0	8100	816512	0	0
2024-05-03 05:49:32			0	32857	0	0	0	17254	15850	158761	26972	959029	38317	106258	0	0	8098	817620	0	0
2024-05-03 05:50:32			0	32856	0	0	0	17249	15860	158793	27218	958958	38328	106256	0	0	8098	817629	0	0
2024-05-03 05:51:32			0	32858	0	0	0	17270	15860	158865	27412	959037	38328	106264	0	0	8098	817523	0	0
2024-05-03 05:52:32			0	32853	0	0	0	17267	15860	158917	27019	959072	38338	106263	0	0	8098	817787	0	0
2024-05-03 05:53:32			0	32835	0	0	0	17267	15870	158905	27057	959054	38329	106263	0	0	8097	818694	0	0
2024-05-03 05:54:32			0	32858	0	0	0	17277	15870	158981	26927	959054	38339	106267	0	0	8098	817479	0	0
2024-05-03 05:55:32			0	32842	0	0	0	17285	15860	158849	27144	959098	38328	106270	0	0	8097	818368	0	0
2024-05-03 05:56:32			0	32867	0	0	0	17272	15860	158909	27492	959045	38317	106265	0	0	8099	817048	0	0
2024-05-03 05:57:32			0	32850	0	0	0	17267	15870	158909	27140	959027	38329	106263	0	0	8098	817901	0	0
2024-05-03 05:58:32			0	32831	0	0	0	17270	15880	158901	27443	959097	38320	106264	0	0	8097	818861	0	0
2024-05-03 05:59:32			0	32841	0	0	0	17267	15880	158913	27336	959044	38331	106263	0	0	8097	818333	0	0
2024-05-03 06:00:32			0	32833	0	0	0	17277	15890	159009	27280	959078	38341	106267	0	0	8097	818711	0	0
2024-05-03 06:01:32			0	32825	0	0	0	17272	15880	158981	27331	959088	38330	106265	0	0	8096	819178	0	0
2024-05-03 06:02:32			0	32831	0	0	0	17275	15880	158933	27263	959070	38331	106266	0	0	8097	818861	0	0
2024-05-03 06:03:32			0	32843	0	0	0	17285	15890	158869	27410	959157	38331	106270	0	0	8097	818183	0	0
2024-05-03 06:04:32			0	32853	0	0	0	17283	15890	158825	27137	959131	38320	106269	0	0	8098	817655	0	0
2024-05-03 06:05:32			0	32855	0	0	0	17275	15890	158837	27192	959157	38341	106266	0	0	8098	817549	0	0
2024-05-03 06:06:32			0	32863	0	0	0	17290	15880	158821	27272	959097	38331	106272	0	0	8098	817171	0	0
2024-05-03 06:07:32			0	32863	0	0	0	17280	15890	158753	27397	959139	38341	106268	0	0	8099	817127	0	0
2024-05-03 06:08:32			0	32850	0	0	0	17283	15880	158833	27007	959097	38331	106269	0	0	8098	817857	0	0
2024-05-03 06:09:32			0	32866	0	0	0	17275	15880	158693	27138	959097	38341	106266	0	0	8099	817013	0	0
2024-05-03 06:10:32			0	32847	0	0	0	17272	15890	158813	27436	959060	38331	106265	0	0	8098	817972	0	0
2024-05-03 06:11:32			0	32835	0	0	0	17277	15890	158849	27419	959087	38341	106267	0	0	8097	818605	0	0
2024-05-03 06:12:32			0	32860	0	0	0	17290	15890	158801	27357	959105	38331	106272	0	0	8098	817285	0	0
2024-05-03 06:13:32			0	32847	0	0	0	17280	15890	158637	27060	959166	38352	106268	0	0	8098	817972	0	0
2024-05-03 06:14:32			0	32882	0	0	0	17275	15890	158685	26934	959166	38341	106266	0	0	8100	816126	0	0
2024-05-03 06:15:32			0	32877	0	0	0	17277	15900	158657	27327	959174	38342	106267	0	0	8099	816345	0	0
2024-05-03 06:16:32			0	32893	0	0	0	17275	15900	158645	27322	959103	38332	106266	0	0	8100	815502	0	0
2024-05-03 06:17:32			0	32916	0	0	0	17288	15890	158657	27088	959139	38331	106271	0	0	8102	814336	0	0
2024-05-03 06:18:32			0	32918	0	0	0	17280	15890	158593	26968	959078	38341	106268	0	0	8102	814230	0	0
2024-05-03 06:19:32			0	32909	0	0	0	17280	15890	158545	27270	959060	38341	106268	0	0	8101	814704	0	0
2024-05-03 06:20:32			0	32941	0	0	0	17275	15890	158509	26977	959139	38341	106266	0	0	8103	813021	0	0
2024-05-03 06:21:32			0	32927	0	0	0	17259	15890	158429	27145	959052	38341	106260	0	0	8103	813757	0	0
2024-05-03 06:22:32			0	32923	0	0	0	17272	15890	158537	27124	959078	38331	106265	0	0	8102	813968	0	0
2024-05-03 06:23:32			0	32921	0	0	0	17267	15880	158445	27350	959062	38330	106263	0	0	8102	814117	0	0
2024-05-03 06:24:32			0	32930	0	0	0	17272	15890	158417	27405	959078	38331	106265	0	0	8103	813599	0	0
2024-05-03 06:25:32			0	32924	0	0	0	17272	15890	158449	27291	959105	38320	106265	0	0	8102	813915	0	0
2024-05-03 06:26:32			0	32916	0	0	0	17264	15890	158473	27383	959105	38341	106262	0	0	8102	814336	0	0
2024-05-03 06:27:32			0	32915	0	0	0	17262	15880	158557	27072	959097	38331	106261	0	0	8102	814432	0	0
2024-05-03 06:28:32			0	32920	0	0	0	17275	15880	158501	27362	959097	38352	106266	0	0	8102	814169	0	0
2024-05-03 06:29:32			0	32915	0	0	0	17270	15890	158469	27254	959060	38341	106264	0	0	8102	814388	0	0
2024-05-03 06:30:32			0	32926	0	0	0	17270	15900	158449	27116	959147	38332	106264	0	0	8103	813766	0	0
2024-05-03 06:31:32			0	32927	0	0	0	17264	15890	158401	27379	959078	38320	106262	0	0	8103	813757	0	0
2024-05-03 06:32:32			0	32921	0	0	0	17264	15890	158521	27381	959078	38341	106262	0	0	8102	814073	0	0
2024-05-03 06:33:32			0	32926	0	0	0	17275	15880	158361	27241	959070	38331	106266	0	0	8102	813854	0	0
2024-05-03 06:34:32			0	32935	0	0	0	17267	15880	158533	27079	959018	38341	106263	0	0	8103	813381	0	0
2024-05-03 06:35:32			0	32950	0	0	0	17264	15890	158409	27450	959078	38341	106262	0	0	8104	812549	0	0
2024-05-03 06:36:32			0	32936	0	0	0	17275	15890	158489	27116	959131	38331	106266	0	0	8103	813284	0	0
2024-05-03 06:37:32			0	32968	0	0	0	17275	15890	158329	27466	959078	38331	106266	0	0	8105	811604	0	0
2024-05-03 06:38:32			0	32968	0	0	0	17267	15880	158317	27284	959070	38331	106263	0	0	8105	811648	0	0
2024-05-03 06:39:32			0	32934	0	0	0	17264	15880	158409	27326	959097	38331	106262	0	0	8103	813433	0	0
2024-05-03 06:40:32			0	32938	0	0	0	17270	15890	158365	27180	959105	38331	106264	0	0	8103	813179	0	0
2024-05-03 06:41:32			0	32953	0	0	0	17275	15890	158365	27185	959078	38331	106266	0	0	8104	812391	0	0
2024-05-03 06:42:32			0	32969	0	0	0	17277	15890	158345	26986	959078	38331	106267	0	0	8105	811552	0	0
2024-05-03 06:43:32			0	32971	0	0	0	17277	15880	158277	27140	959070	38331	106267	0	0	8105	811491	0	0
2024-05-03 06:44:32			0	32967	0	0	0	17262	15890	158273	27057	959078	38341	106261	0	0	8105	811657	0	0
2024-05-03 06:45:32			0	32964	0	0	0	17275	15890	158173	27097	959078	38320	106266	0	0	8105	811814	0	0
2024-05-03 06:46:32			0	32964	0	0	0	17270	15880	158209	27036	959123	38341	106264	0	0	8105	811858	0	0
2024-05-03 06:47:32			0	32970	0	0	0	17270	15890	158225	27426	959105	38341	106264	0	0	8105	811499	0	0
2024-05-03 06:48:32			0	32975	0	0	0	17280	15880	158189	27088	959097	38341	106268	0	0	8105	811281	0	0
2024-05-03 06:49:32			0	32959	0	0	0	17288	15890	158153	27436	959131	38341	106271	0	0	8104	812077	0	0
2024-05-03 06:50:32			0	32987	0	0	0	17285	15880	158053	27426	959123	38341	106270	0	0	8106	810652	0	0
2024-05-03 06:51:32			0	32992	0	0	0	17277	15890	158313	27168	959078	38331	106267	0	0	8106	810346	0	0
2024-05-03 06:52:32			0	32997	0	0	0	17275	15890	158249	27381	959139	38341	106266	0	0	8107	810084	0	0
2024-05-03 06:53:32			0	32986	0	0	0	17277	15890	158213	27281	959078	38331	106267	0	0	8106	810661	0	0
2024-05-03 06:54:32			0	32995	0	0	0	17275	15900	158177	27201	959121	38332	106266	0	0	8107	810146	0	0
2024-05-03 06:55:32			0	32981	0	0	0	17280	15890	158149	27027	959131	38331	106268	0	0	8106	810923	0	0
2024-05-03 06:56:32			0	32995	0	0	0	17275	15890	158149	27395	959157	38331	106266	0	0	8107	810189	0	0
2024-05-03 06:57:32			0	32993	0	0	0	17283	15890	158165	27218	959105	38341	106269	0	0	8106	810294	0	0
2024-05-03 06:58:32			0	32984	0	0	0	17280	15890	158173	27431	959131	38341	106268	0	0	8106	810765	0	0
2024-05-03 06:59:32			0	32986	0	0	0	17288	15890	158217	27658	959166	38331	106271	0	0	8106	810661	0	0
2024-05-03 07:00:32			0	33012	0	0	0	17285	15900	158129	27604	959129	38342	106270	0	0	8108	809256	0	0
2024-05-03 07:01:32			0	32998	0	0	0	17277	15890	158077	27377	959218	38320	106267	0	0	8107	810032	0	0
2024-05-03 07:02:32			0	32999	0	0	0	17288	15900	158141	27788	959208	38332	106271	0	0	8107	809936	0	0
2024-05-03 07:03:32			0	32993	0	0	0	17301	15900	158005	27338	959156	38342	106276	0	0	8106	810250	0	0
2024-05-03 07:04:32			0	33017	0	0	0	17283	15900	158221	27443	959147	38342	106269	0	0	8108	808994	0	0
2024-05-03 07:05:32			0	33006	0	0	0	17298	15900	158025	27511	959174	38342	106275	0	0	8107	809570	0	0
2024-05-03 07:06:32			0	33013	0	0	0	17290	15900	158081	27852	959182	38342	106272	0	0	8108	809203	0	0
2024-05-03 07:07:32			0	33004	0	0	0	17285	15900	158129	27760	959174	38342	106270	0	0	8107	809674	0	0
2024-05-03 07:08:32			0	33012	0	0	0	17285	15900	157981	27499	959208	38342	106270	0	0	8108	809256	0	0
2024-05-03 07:09:32			0	32996	0	0	0	17293	15900	158129	27402	959182	38342	106273	0	0	8106	810093	0	0
2024-05-03 07:10:32			0	33024	0	0	0	17288	15910	157917	27845	959164	38332	106271	0	0	8108	808584	0	0
2024-05-03 07:11:32			0	33008	0	0	0	17290	15910	158033	27440	959216	38342	106272	0	0	8107	809421	0	0
2024-05-03 07:12:32			0	33005	0	0	0	17285	15910	158085	27573	959190	38332	106270	0	0	8107	809578	0	0
2024-05-03 07:13:32			0	32998	0	0	0	17290	15900	158069	27561	959226	38332	106272	0	0	8107	809988	0	0
2024-05-03 07:14:32			0	33014	0	0	0	17301	15910	158045	27706	959216	38342	106276	0	0	8107	809107	0	0
2024-05-03 07:15:32			0	33000	0	0	0	17288	15900	158009	27722	959174	38342	106271	0	0	8107	809884	0	0
2024-05-03 07:16:32			0	33029	0	0	0	17298	15910	158049	27861	959198	38365	106275	0	0	8108	808323	0	0
2024-05-03 07:17:32			0	33024	0	0	0	17296	15900	158029	27954	959208	38342	106274	0	0	8108	808628	0	0
2024-05-03 07:18:32			0	33024	0	0	0	17314	15900	158069	27665	959182	38332	106281	0	0	8108	808628	0	0
2024-05-03 07:19:32			0	33027	0	0	0	17306	15900	157993	27810	959208	38342	106278	0	0	8108	808471	0	0
2024-05-03 07:20:32			0	33038	0	0	0	17306	15910	157917	27604	959225	38342	106278	0	0	8109	807853	0	0
2024-05-03 07:21:32			0	33020	0	0	0	17303	15920	158001	27744	959215	38344	106277	0	0	8108	808750	0	0
2024-05-03 07:22:32			0	33037	0	0	0	17311	15910	157833	27602	959277	38342	106280	0	0	8109	807905	0	0
2024-05-03 07:23:32			0	33039	0	0	0	17319	15910	157921	28117	959225	38342	106283	0	0	8109	807800	0	0
2024-05-03 07:24:32			0	33031	0	0	0	17303	15910	157957	27523	959225	38342	106277	0	0	8108	808219	0	0
2024-05-03 07:25:32			0	33038	0	0	0	17303	15920	157905	27956	959233	38333	106277	0	0	8109	807809	0	0
2024-05-03 07:26:32			0	33056	0	0	0	17319	15920	157917	27954	959259	38343	106283	0	0	8110	806869	0	0
2024-05-03 07:27:32			0	33054	0	0	0	17309	15910	157845	28020	959251	38354	106279	0	0	8110	807017	0	0
2024-05-03 07:28:32			0	33023	0	0	0	17309	15910	157845	27514	959198	38332	106279	0	0	8108	808637	0	0
2024-05-03 07:29:32			0	33035	0	0	0	17306	15920	157921	27748	959267	38344	106278	0	0	8109	807966	0	0
2024-05-03 07:30:32			0	33051	0	0	0	17314	15920	157873	27739	959188	38333	106281	0	0	8110	807130	0	0
2024-05-03 07:31:32			0	33055	0	0	0	17314	15920	157817	27731	959320	38333	106281	0	0	8110	806921	0	0
2024-05-03 07:32:32			0	33047	0	0	0	17316	15930	157805	27966	959249	38344	106282	0	0	8109	807295	0	0
2024-05-03 07:33:32			0	33053	0	0	0	17314	15930	157797	27939	959275	38333	106281	0	0	8110	806982	0	0
2024-05-03 07:34:32			0	33053	0	0	0	17306	15930	157817	27559	959249	38323	106278	0	0	8110	806982	0	0
2024-05-03 07:35:32			0	33025	0	0	0	17306	15930	157865	27680	959284	38355	106278	0	0	8108	808445	0	0
2024-05-03 07:36:32			0	33055	0	0	0	17314	15930	157793	28147	959336	38344	106281	0	0	8110	806878	0	0
2024-05-03 07:37:32			0	33061	0	0	0	17314	15930	157857	28220	959257	38344	106281	0	0	8110	806565	0	0
2024-05-03 07:38:32			0	33057	0	0	0	17316	15940	157741	28157	959318	38334	106282	0	0	8110	806730	0	0
2024-05-03 07:39:32			0	33070	0	0	0	17309	15930	157705	27977	959302	38344	106279	0	0	8111	806095	0	0
2024-05-03 07:40:32			0	33060	0	0	0	17319	15940	157705	27725	959318	38345	106283	0	0	8110	806573	0	0
2024-05-03 07:41:32			0	33089	0	0	0	17322	15930	157665	27871	959275	38333	106284	0	0	8112	805105	0	0
2024-05-03 07:42:32			0	33094	0	0	0	17309	15940	157629	27793	959318	38345	106279	0	0	8112	804801	0	0
2024-05-03 07:43:32			0	33086	0	0	0	17324	15930	157629	27758	959275	38355	106285	0	0	8112	805261	0	0
2024-05-03 07:44:32			0	33100	0	0	0	17327	15930	157557	27635	959310	38333	106286	0	0	8112	804532	0	0
2024-05-03 07:45:32			0	33111	0	0	0	17319	15940	157493	28093	959345	38345	106283	0	0	8113	803916	0	0
2024-05-03 07:46:32			0	33114	0	0	0	17316	15930	157545	27968	959310	38344	106282	0	0	8113	803803	0	0
2024-05-03 07:47:32			0	33107	0	0	0	17324	15940	157445	27970	959345	38356	106285	0	0	8113	804124	0	0
2024-05-03 07:48:32			0	33120	0	0	0	17327	15940	157505	28022	959371	38334	106286	0	0	8114	803448	0	0
2024-05-03 07:49:32			0	33118	0	0	0	17337	15940	157449	28242	959292	38356	106290	0	0	8113	803552	0	0
2024-05-03 07:50:32			0	33134	0	0	0	17327	15940	157433	28263	959326	38335	106286	0	0	8114	802720	0	0
2024-05-03 07:51:32			0	33139	0	0	0	17327	15930	157365	27899	959336	38333	106286	0	0	8115	802503	0	0
2024-05-03 07:52:32			0	33125	0	0	0	17327	15940	157421	28015	959397	38345	106286	0	0	8114	803188	0	0
2024-05-03 07:53:32			0	33147	0	0	0	17324	15950	157429	27954	959387	38346	106285	0	0	8115	802001	0	0
2024-05-03 07:54:32			0	33145	0	0	0	17332	15950	157385	27855	959282	38346	106288	0	0	8115	802105	0	0
2024-05-03 07:55:32			0	33142	0	0	0	17335	15940	157337	27836	959379	38357	106289	0	0	8115	802304	0	0
2024-05-03 07:56:32			0	33150	0	0	0	17337	15950	157345	27774	959361	38346	106290	0	0	8115	801845	0	0
2024-05-03 07:57:32			0	33158	0	0	0	17340	15950	157301	27883	959343	38347	106291	0	0	8116	801430	0	0
2024-05-03 07:58:32			0	33175	0	0	0	17332	15950	157233	27975	959343	38347	106288	0	0	8117	800548	0	0
2024-05-03 07:59:32			0	33172	0	0	0	17340	15950	157113	27713	959361	38357	106291	0	0	8117	800704	0	0
2024-05-03 08:00:32			0	33187	0	0	0	17332	15940	157149	27985	959371	38356	106288	0	0	8118	799969	0	0
2024-05-03 08:01:32			0	33195	0	0	0	17337	15950	157189	28497	959361	38346	106290	0	0	8118	799512	0	0
2024-05-03 08:02:32			0	33177	0	0	0	17335	15940	157229	27991	959484	38346	106289	0	0	8117	800488	0	0
2024-05-03 08:03:32			0	33201	0	0	0	17332	15940	157073	27722	959353	38346	106288	0	0	8118	799244	0	0
2024-05-03 08:04:32			0	33207	0	0	0	17342	15950	157149	28175	959335	38346	106292	0	0	8119	798890	0	0
2024-05-03 08:05:32			0	33213	0	0	0	17342	15960	157057	27774	959430	38347	106292	0	0	8119	798537	0	0
2024-05-03 08:06:32			0	33222	0	0	0	17337	15960	157005	28239	959351	38347	106290	0	0	8120	798071	0	0
2024-05-03 08:07:32			0	33224	0	0	0	17353	15960	156981	27866	959377	38347	106296	0	0	8120	797968	0	0
2024-05-03 08:08:32			0	33224	0	0	0	17353	15960	156989	27706	959464	38336	106296	0	0	8120	797968	0	0
2024-05-03 08:09:32			0	33228	0	0	0	17350	15960	157021	27398	959456	38347	106295	0	0	8120	797761	0	0
2024-05-03 08:10:32			0	33235	0	0	0	17353	15960	156949	27500	959456	38358	106296	0	0	8120	797399	0	0
2024-05-03 08:11:32			0	33245	0	0	0	17361	15960	156825	27701	959412	38336	106299	0	0	8121	796882	0	0
2024-05-03 08:12:32			0	33233	0	0	0	17358	15960	156905	27822	959456	38358	106298	0	0	8120	797502	0	0
2024-05-03 08:13:32			0	33259	0	0	0	17358	15960	156881	28020	959385	38348	106298	0	0	8122	796159	0	0
2024-05-03 08:14:32			0	33255	0	0	0	17363	15960	156789	27810	959464	38359	106300	0	0	8121	796366	0	0
2024-05-03 08:15:32			0	33254	0	0	0	17363	15970	156733	27840	959481	38348	106300	0	0	8121	796374	0	0
2024-05-03 08:16:32			0	33262	0	0	0	17366	15970	156665	28103	959454	38360	106301	0	0	8122	795961	0	0
2024-05-03 08:17:32			0	33267	0	0	0	17363	15970	156745	27632	959446	38370	106300	0	0	8122	795703	0	0
2024-05-03 08:18:32			0	33256	0	0	0	17358	15980	156661	27928	959497	38349	106298	0	0	8122	796228	0	0
2024-05-03 08:19:32			0	33275	0	0	0	17368	15970	156713	27765	959481	38348	106302	0	0	8122	795291	0	0
2024-05-03 08:20:32			0	33268	0	0	0	17379	15970	156713	27504	959507	38360	106306	0	0	8122	795652	0	0
2024-05-03 08:21:32			0	33272	0	0	0	17376	15980	156697	27918	959471	38360	106305	0	0	8122	795403	0	0
2024-05-03 08:22:32			0	33273	0	0	0	17371	15970	156709	27980	959578	38348	106303	0	0	8122	795394	0	0
2024-05-03 08:23:32			0	33291	0	0	0	17384	15990	156641	27625	959505	38372	106308	0	0	8123	794380	0	0
2024-05-03 08:24:32			0	33282	0	0	0	17371	15980	156633	28011	959550	38360	106303	0	0	8123	794887	0	0
2024-05-03 08:25:32			0	33298	0	0	0	17384	15980	156661	28037	959568	38371	106308	0	0	8124	794062	0	0
2024-05-03 08:26:32			0	33293	0	0	0	17381	15980	156653	27597	959576	38360	106307	0	0	8123	794320	0	0
2024-05-03 08:27:32			0	33315	0	0	0	17389	15990	156629	28011	959566	38361	106310	0	0	8125	793144	0	0
2024-05-03 08:28:32			0	33307	0	0	0	17386	15990	156633	27717	959558	38361	106309	0	0	8124	793556	0	0
2024-05-03 08:29:32			0	33328	0	0	0	17397	15990	156609	27736	959540	38361	106313	0	0	8125	792476	0	0
2024-05-03 08:30:32			0	33328	0	0	0	17394	15990	156525	27822	959592	38361	106312	0	0	8125	792476	0	0
2024-05-03 08:31:32			0	33321	0	0	0	17392	16000	156489	28093	959601	38350	106311	0	0	8125	792793	0	0
2024-05-03 08:32:32			0	33338	0	0	0	17392	15990	156505	27628	959584	38350	106311	0	0	8126	791961	0	0
2024-05-03 08:33:32			0	33324	0	0	0	17397	16000	156481	27973	959601	38350	106313	0	0	8125	792639	0	0
2024-05-03 08:34:32			0	33342	0	0	0	17397	15990	156437	27836	959645	38350	106313	0	0	8126	791756	0	0
2024-05-03 08:35:32			0	33340	0	0	0	17405	16010	156465	27595	959644	38363	106316	0	0	8126	791773	0	0
2024-05-03 08:36:32			0	33349	0	0	0	17410	16000	156413	28074	959653	38361	106318	0	0	8126	791354	0	0
2024-05-03 08:37:32			0	33345	0	0	0	17410	16000	156477	27855	959688	38362	106318	0	0	8126	791559	0	0
2024-05-03 08:38:32			0	33359	0	0	0	17402	16020	156457	27691	959686	38353	106315	0	0	8127	790755	0	0
2024-05-03 08:39:32			0	33340	0	0	0	17412	16020	156437	27994	959686	38364	106319	0	0	8126	791731	0	0
2024-05-03 08:40:32			0	33352	0	0	0	17418	16010	156445	27843	959670	38374	106321	0	0	8126	791157	0	0
2024-05-03 08:41:32			0	33372	0	0	0	17415	16010	156353	27788	959678	38363	106320	0	0	8128	790130	0	0
2024-05-03 08:42:32			0	33365	0	0	0	17415	16010	156305	27835	959644	38352	106320	0	0	8127	790489	0	0
2024-05-03 08:43:32			0	33385	0	0	0	17418	16010	156237	27845	959705	38374	106321	0	0	8128	789464	0	0
2024-05-03 08:44:32			0	33381	0	0	0	17407	16020	156201	27855	959695	38364	106317	0	0	8128	789626	0	0
2024-05-03 08:45:32			0	33350	0	0	0	17423	16020	156249	27798	959668	38364	106323	0	0	8126	791217	0	0
2024-05-03 08:46:32			0	33372	0	0	0	17425	16030	156229	27647	959703	38342	106324	0	0	8128	790045	0	0
2024-05-03 08:47:32			0	33378	0	0	0	17428	16020	156245	27862	959721	38353	106325	0	0	8128	789780	0	0
2024-05-03 08:48:32			0	33380	0	0	0	17423	16030	156261	27692	959737	38365	106323	0	0	8128	789635	0	0
2024-05-03 08:49:32			0	33406	0	0	0	17431	16030	156109	28005	959711	38365	106326	0	0	8129	788303	0	0
2024-05-03 08:50:32			0	33393	0	0	0	17425	16030	156137	27552	959790	38365	106324	0	0	8129	788968	0	0
2024-05-03 08:51:32			0	33396	0	0	0	17436	16030	156153	27628	959737	38365	106328	0	0	8129	788815	0	0
2024-05-03 08:52:32			0	33416	0	0	0	17436	16040	156209	27684	959772	38365	106328	0	0	8130	787748	0	0
2024-05-03 08:53:32			0	33410	0	0	0	17436	16040	156285	27606	959719	38376	106328	0	0	8130	788056	0	0
2024-05-03 08:54:32			0	33404	0	0	0	17433	16040	156113	27803	959754	38365	106327	0	0	8129	788363	0	0
2024-05-03 08:55:32			0	33400	0	0	0	17444	16040	156097	27419	959798	38365	106331	0	0	8129	788567	0	0
2024-05-03 08:56:32			0	33402	0	0	0	17446	16040	156085	27583	959780	38376	106332	0	0	8129	788465	0	0
2024-05-03 08:57:32			0	33410	0	0	0	17438	16050	155957	27895	959841	38366	106329	0	0	8130	788013	0	0
2024-05-03 08:58:32			0	33419	0	0	0	17444	16040	156097	27940	959806	38365	106331	0	0	8130	787595	0	0
2024-05-03 08:59:32			0	33435	0	0	0	17449	16050	156077	27514	959788	38366	106333	0	0	8131	786734	0	0
2024-05-03 09:00:32			0	33437	0	0	0	17446	16050	156061	27607	959796	38355	106332	0	0	8131	786632	0	0
2024-05-03 09:01:32			0	33447	0	0	0	17451	16050	156009	27776	959788	38366	106334	0	0	8132	786121	0	0
2024-05-03 09:02:32			0	33431	0	0	0	17446	16050	156021	27888	959823	38366	106332	0	0	8131	786939	0	0
2024-05-03 09:03:32			0	33437	0	0	0	17457	16050	155965	27999	959875	38355	106336	0	0	8131	786632	0	0
2024-05-03 09:04:32			0	33452	0	0	0	17459	16060	156005	27564	959831	38367	106337	0	0	8132	785823	0	0
2024-05-03 09:05:32			0	33437	0	0	0	17451	16060	155957	27696	959831	38367	106334	0	0	8131	786589	0	0
2024-05-03 09:06:32			0	33431	0	0	0	17459	16060	155929	27977	959831	38377	106337	0	0	8131	786896	0	0
2024-05-03 09:07:32			0	33437	0	0	0	17451	16070	155873	27530	959768	38368	106334	0	0	8131	786547	0	0
2024-05-03 09:08:32			0	33459	0	0	0	17459	16050	155869	27899	959875	38366	106337	0	0	8132	785508	0	0
2024-05-03 09:09:32			0	33459	0	0	0	17464	16060	155865	27490	959865	38367	106339	0	0	8132	785466	0	0
2024-05-03 09:10:32			0	33452	0	0	0	17459	16070	155861	27637	959873	38368	106337	0	0	8132	785781	0	0
2024-05-03 09:11:32			0	33471	0	0	0	17467	16070	155885	27485	959873	38368	106340	0	0	8133	784811	0	0
2024-05-03 09:12:32			0	33475	0	0	0	17477	16070	155797	27665	959952	38378	106344	0	0	8133	784607	0	0
2024-05-03 09:13:32			0	33456	0	0	0	17464	16080	155841	27440	959951	38370	106339	0	0	8132	785534	0	0
2024-05-03 09:14:32			0	33475	0	0	0	17464	16070	155761	27998	959882	38369	106339	0	0	8133	784607	0	0
2024-05-03 09:15:32			0	33465	0	0	0	17467	16070	155757	27614	959873	38368	106340	0	0	8133	785117	0	0
2024-05-03 09:16:32			0	33471	0	0	0	17462	16080	155797	27705	959916	38358	106338	0	0	8133	784769	0	0
2024-05-03 09:17:32			0	33465	0	0	0	17464	16060	155725	27282	959839	38367	106339	0	0	8133	785160	0	0
2024-05-03 09:18:32			0	33466	0	0	0	17472	16070	155681	27663	959961	38369	106342	0	0	8133	785066	0	0
2024-05-03 09:19:32			0	33471	0	0	0	17470	16080	155709	27831	959969	38379	106341	0	0	8133	784769	0	0
2024-05-03 09:20:32			0	33487	0	0	0	17462	16080	155677	27656	959898	38359	106338	0	0	8134	783953	0	0
2024-05-03 09:21:32			0	33499	0	0	0	17472	16080	155705	27528	959969	38379	106342	0	0	8135	783341	0	0
2024-05-03 09:22:32			0	33478	0	0	0	17467	16080	155669	27405	959845	38370	106340	0	0	8133	784412	0	0
2024-05-03 09:23:32			0	33487	0	0	0	17472	16080	155677	27543	960003	38370	106342	0	0	8134	783953	0	0
2024-05-03 09:24:32			0	33479	0	0	0	17472	16080	155677	27284	959863	38379	106342	0	0	8133	784361	0	0
2024-05-03 09:25:32			0	33489	0	0	0	17472	16080	155709	27498	959924	38359	106342	0	0	8134	783851	0	0
2024-05-03 09:26:32			0	33499	0	0	0	17472	16080	155649	27265	959977	38370	106342	0	0	8135	783341	0	0
2024-05-03 09:27:32			0	33508	0	0	0	17470	16080	155677	27628	959942	38379	106341	0	0	8135	782883	0	0
2024-05-03 09:28:32			0	33486	0	0	0	17483	16080	155553	27315	960030	38359	106346	0	0	8134	784004	0	0
2024-05-03 09:29:32			0	33511	0	0	0	17483	16080	155549	27424	960030	38380	106346	0	0	8135	782730	0	0
2024-05-03 09:30:32			0	33506	0	0	0	17477	16080	155433	27736	959977	38380	106344	0	0	8135	782985	0	0
2024-05-03 09:31:32			0	33514	0	0	0	17480	16090	155533	27781	959993	38381	106345	0	0	8135	782535	0	0
2024-05-03 09:32:32			0	33541	0	0	0	17490	16090	155493	27575	959932	38370	106349	0	0	8137	781162	0	0
2024-05-03 09:33:32			0	33506	0	0	0	17483	16080	155465	27473	960003	38359	106346	0	0	8135	782985	0	0
2024-05-03 09:34:32			0	33517	0	0	0	17485	16080	155533	27173	959951	38370	106347	0	0	8135	782425	0	0
2024-05-03 09:35:32			0	33523	0	0	0	17493	16080	155609	27751	960030	38380	106350	0	0	8136	782120	0	0
2024-05-03 09:36:32			0	33531	0	0	0	17488	16090	155453	27807	960011	38380	106348	0	0	8136	781671	0	0
2024-05-03 09:37:32			0	33546	0	0	0	17483	16100	155405	27679	960028	38371	106346	0	0	8137	780866	0	0
2024-05-03 09:38:32			0	33533	0	0	0	17488	16090	155425	27417	959932	38370	106348	0	0	8136	781569	0	0
2024-05-03 09:39:32			0	33534	0	0	0	17477	16090	155409	27713	959967	38371	106344	0	0	8137	781518	0	0
2024-05-03 09:40:32			0	33538	0	0	0	17485	16090	155393	27644	959985	38359	106347	0	0	8137	781315	0	0
2024-05-03 09:41:32			0	33546	0	0	0	17480	16100	155325	27607	960028	38381	106345	0	0	8137	780866	0	0
2024-05-03 09:42:32			0	33532	0	0	0	17493	16100	155377	27445	960036	38371	106350	0	0	8136	781578	0	0
2024-05-03 09:43:32			0	33547	0	0	0	17490	16100	155453	27445	960001	38381	106349	0	0	8137	780815	0	0
2024-05-03 09:44:32			0	33542	0	0	0	17488	16090	155353	27279	960072	38371	106348	0	0	8137	781112	0	0
2024-05-03 09:45:32			0	33532	0	0	0	17488	16100	155349	27469	960081	38359	106348	0	0	8136	781578	0	0
2024-05-03 09:46:32			0	33550	0	0	0	17501	16100	155373	27431	960028	38381	106353	0	0	8137	780663	0	0
2024-05-03 09:47:32			0	33548	0	0	0	17490	16100	155353	27571	960054	38381	106349	0	0	8137	780764	0	0
2024-05-03 09:48:32			0	33559	0	0	0	17503	16110	155349	27803	960071	38393	106354	0	0	8138	780164	0	0
2024-05-03 09:49:32			0	33552	0	0	0	17498	16110	155365	27424	960105	38372	106352	0	0	8137	780519	0	0
2024-05-03 09:50:32			0	33554	0	0	0	17509	16110	155397	27698	960123	38371	106356	0	0	8137	780418	0	0
2024-05-03 09:51:32			0	33549	0	0	0	17509	16110	155393	27784	960123	38382	106356	0	0	8137	780672	0	0
2024-05-03 09:52:32			0	33560	0	0	0	17511	16100	155381	27661	960081	38381	106357	0	0	8138	780155	0	0
2024-05-03 09:53:32			0	33547	0	0	0	17511	16110	155317	27718	960079	38394	106357	0	0	8137	780773	0	0
2024-05-03 09:54:32			0	33556	0	0	0	17503	16110	155337	27426	960105	38382	106354	0	0	8138	780316	0	0
2024-05-03 09:55:32			0	33574	0	0	0	17516	16120	155342	27852	960113	38372	106359	0	0	8138	779361	0	0
2024-05-03 09:56:32			0	33591	0	0	0	17532	16120	155378	27824	960122	38373	106365	0	0	8139	778499	0	0
2024-05-03 09:57:32			0	33575	0	0	0	17519	16120	155262	27949	960140	38372	106360	0	0	8138	779310	0	0
2024-05-03 09:58:32			0	33571	0	0	0	17524	16120	155218	27694	960148	38383	106362	0	0	8138	779513	0	0
2024-05-03 09:59:32			0	33585	0	0	0	17527	16120	155170	27963	960140	38382	106363	0	0	8139	778803	0	0
2024-05-03 10:00:32			0	33609	0	0	0	17529	16130	155170	27424	960183	38383	106364	0	0	8140	777545	0	0
2024-05-03 10:01:32			0	33602	0	0	0	17524	16130	155158	27699	960191	38395	106362	0	0	8140	777899	0	0
2024-05-03 10:02:32			0	33612	0	0	0	17527	16130	155166	27587	960183	38373	106363	0	0	8141	777393	0	0
2024-05-03 10:03:32			0	33602	0	0	0	17537	16130	155206	27462	960183	38383	106367	0	0	8140	777899	0	0
2024-05-03 10:04:32			0	33616	0	0	0	17542	16140	155046	27575	960225	38374	106369	0	0	8141	777149	0	0
2024-05-03 10:05:32			0	33616	0	0	0	17548	16130	154998	27438	960217	38384	106371	0	0	8140	777190	0	0
2024-05-03 10:06:32			0	33606	0	0	0	17553	16140	154962	27770	960233	38375	106373	0	0	8140	777655	0	0
2024-05-03 10:07:32			0	33627	0	0	0	17561	16140	154938	27620	960278	38395	106376	0	0	8141	776592	0	0
2024-05-03 10:08:32			0	33626	0	0	0	17555	16140	154978	27345	960313	38385	106374	0	0	8141	776643	0	0
2024-05-03 10:09:32			0	33663	0	0	0	17568	16150	154894	27711	960294	38375	106379	0	0	8143	774731	0	0
2024-05-03 10:10:32			0	33654	0	0	0	17566	16150	154850	27874	960250	38408	106378	0	0	8142	775186	0	0
2024-05-03 10:11:32			0	33677	0	0	0	17566	16150	154930	27736	960303	38397	106378	0	0	8144	774025	0	0
2024-05-03 10:12:32			0	33663	0	0	0	17581	16160	154878	27604	960284	38386	106384	0	0	8143	774689	0	0
2024-05-03 10:13:32			0	33676	0	0	0	17574	16150	154818	27774	960329	38375	106381	0	0	8144	774075	0	0
2024-05-03 10:14:32			0	33677	0	0	0	17574	16160	154782	27582	960284	38397	106381	0	0	8144	773983	0	0
2024-05-03 10:15:32			0	33678	0	0	0	17574	16170	154778	28055	960345	38376	106381	0	0	8144	773891	0	0
2024-05-03 10:16:32			0	33667	0	0	0	17576	16170	154806	27512	960353	38376	106382	0	0	8143	774446	0	0
2024-05-03 10:17:32			0	33675	0	0	0	17576	16180	154770	27575	960370	38388	106382	0	0	8144	774000	0	0
2024-05-03 10:18:32			0	33682	0	0	0	17589	16170	154750	27362	960353	38399	106387	0	0	8144	773689	0	0
2024-05-03 10:19:32			0	33686	0	0	0	17587	16170	154654	27455	960432	38387	106386	0	0	8144	773487	0	0
2024-05-03 10:20:32			0	33682	0	0	0	17594	16170	154606	27763	960432	38410	106389	0	0	8144	773689	0	0
2024-05-03 10:21:32			0	33684	0	0	0	17602	16180	154646	27346	960449	38388	106392	0	0	8144	773546	0	0
2024-05-03 10:22:32			0	33706	0	0	0	17612	16190	154706	27511	960457	38388	106396	0	0	8145	772396	0	0
2024-05-03 10:23:32			0	33714	0	0	0	17618	16190	154594	27672	960457	38388	106398	0	0	8145	771993	0	0
2024-05-03 10:24:32			0	33721	0	0	0	17610	16180	154498	27479	960449	38399	106395	0	0	8146	771683	0	0
2024-05-03 10:25:32			0	33725	0	0	0	17612	16200	154586	27386	960473	38401	106396	0	0	8146	771398	0	0
2024-05-03 10:26:32			0	33727	0	0	0	17618	16200	154438	27519	960455	38401	106398	0	0	8146	771298	0	0
2024-05-03 10:27:32			0	33725	0	0	0	17612	16200	154518	27561	960552	38401	106396	0	0	8146	771398	0	0
2024-05-03 10:28:32			0	33734	0	0	0	17618	16210	154538	27332	960516	38390	106398	0	0	8147	770904	0	0
2024-05-03 10:29:32			0	33742	0	0	0	17607	16210	154478	27646	960516	38390	106394	0	0	8147	770502	0	0
2024-05-03 10:30:32			0	33735	0	0	0	17628	16210	154574	27447	960516	38401	106402	0	0	8146	770854	0	0
2024-05-03 10:31:32			0	33749	0	0	0	17628	16220	154534	27798	960559	38392	106402	0	0	8147	770109	0	0
2024-05-03 10:32:32			0	33741	0	0	0	17628	16210	154514	27682	960498	38391	106402	0	0	8147	770552	0	0
2024-05-03 10:33:32			0	33734	0	0	0	17620	16220	154566	27345	960567	38403	106399	0	0	8147	770862	0	0
2024-05-03 10:34:32			0	33743	0	0	0	17623	16220	154546	27300	960532	38403	106400	0	0	8147	770410	0	0
2024-05-03 10:35:32			0	33747	0	0	0	17625	16220	154506	27383	960585	38414	106401	0	0	8147	770209	0	0
2024-05-03 10:36:32			0	33755	0	0	0	17641	16220	154342	27481	960541	38403	106407	0	0	8147	769807	0	0
2024-05-03 10:37:32			0	33745	0	0	0	17623	16230	154406	27590	960549	38403	106400	0	0	8147	770268	0	0
2024-05-03 10:38:32			0	33749	0	0	0	17618	16220	154402	27578	960567	38403	106398	0	0	8148	770109	0	0
2024-05-03 10:39:32			0	33747	0	0	0	17631	16250	154430	27490	960608	38405	106403	0	0	8147	770084	0	0
2024-05-03 10:40:32			0	33736	0	0	0	17612	16230	154482	27812	960583	38404	106396	0	0	8147	770720	0	0
2024-05-03 10:41:32			0	33737	0	0	0	17618	16230	154398	27459	960557	38393	106398	0	0	8147	770670	0	0
2024-05-03 10:42:32			0	33725	0	0	0	17633	16240	154318	27471	960679	38416	106404	0	0	8146	771232	0	0
2024-05-03 10:43:32			0	33746	0	0	0	17641	16240	154314	27419	960618	38405	106407	0	0	8147	770176	0	0
2024-05-03 10:44:32			0	33744	0	0	0	17644	16240	154414	27885	960626	38393	106408	0	0	8147	770277	0	0
2024-05-03 10:45:32			0	33750	0	0	0	17646	16250	154282	28005	960714	38405	106409	0	0	8147	769934	0	0
2024-05-03 10:46:32			0	33732	0	0	0	17638	16250	154394	27703	960740	38393	106406	0	0	8146	770838	0	0
2024-05-03 10:47:32			0	33752	0	0	0	17657	16250	154358	27663	960661	38393	106413	0	0	8147	769833	0	0
2024-05-03 10:48:32			0	33762	0	0	0	17659	16250	154250	27711	960669	38405	106414	0	0	8148	769331	0	0
2024-05-03 10:49:32			0	33781	0	0	0	17670	16250	154346	28039	960748	38405	106418	0	0	8149	768378	0	0
2024-05-03 10:50:32			0	33759	0	0	0	17667	16250	154254	27822	960714	38393	106417	0	0	8147	769482	0	0
2024-05-03 10:51:32			0	33785	0	0	0	17675	16250	154250	27592	960748	38394	106420	0	0	8149	768177	0	0
2024-05-03 10:52:32			0	33793	0	0	0	17670	16260	154194	27743	960791	38407	106418	0	0	8149	767735	0	0
2024-05-03 10:53:32			0	33776	0	0	0	17677	16250	154266	27573	960722	38416	106421	0	0	8148	768629	0	0
2024-05-03 10:54:32			0	33808	0	0	0	17693	16260	154210	27958	960738	38407	106427	0	0	8150	766984	0	0
2024-05-03 10:55:32			0	33801	0	0	0	17693	16280	154126	27869	960797	38398	106427	0	0	8150	767251	0	0
2024-05-03 10:56:32			0	33806	0	0	0	17698	16280	154066	27717	960789	38418	106429	0	0	8150	767001	0	0
2024-05-03 10:57:32			0	33826	0	0	0	17703	16280	153962	27360	960850	38398	106431	0	0	8151	766000	0	0
2024-05-03 10:58:32			0	33811	0	0	0	17701	16280	154026	27878	960850	38419	106430	0	0	8150	766751	0	0
2024-05-03 10:59:32			0	33848	0	0	0	17706	16280	153922	27848	960850	38398	106432	0	0	8152	764900	0	0
2024-05-03 11:00:32			0	33844	0	0	0	17709	16290	153974	27310	960840	38419	106433	0	0	8152	765059	0	0
2024-05-03 11:01:32			0	33837	0	0	0	17703	16300	153938	27608	960874	38399	106431	0	0	8152	765367	0	0
2024-05-03 11:02:32			0	33841	0	0	0	17701	16300	153918	27590	960901	38420	106430	0	0	8152	765168	0	0
2024-05-03 11:03:32			0	33852	0	0	0	17714	16310	153934	27907	960917	38421	106435	0	0	8152	764577	0	0
2024-05-03 11:04:32			0	33855	0	0	0	17722	16290	153886	27680	960919	38409	106438	0	0	8152	764509	0	0
2024-05-03 11:05:32			0	33864	0	0	0	17727	16320	153866	27571	960994	38412	106440	0	0	8153	763936	0	0
2024-05-03 11:06:32			0	33883	0	0	0	17729	16320	153866	27904	960960	38433	106441	0	0	8154	762989	0	0
2024-05-03 11:07:32			0	33878	0	0	0	17735	16320	153746	28067	961021	38422	106443	0	0	8154	763238	0	0
2024-05-03 11:08:32			0	33893	0	0	0	17745	16320	153746	27696	961013	38421	106447	0	0	8154	762490	0	0
2024-05-03 11:09:32			0	33902	0	0	0	17766	16320	153678	28008	961039	38411	106455	0	0	8154	762042	0	0
2024-05-03 11:10:32			0	33898	0	0	0	17771	16330	153690	28031	961116	38434	106457	0	0	8154	762200	0	0
2024-05-03 11:11:32			0	33920	0	0	0	17771	16340	153666	28022	961080	38414	106457	0	0	8155	761063	0	0
2024-05-03 11:12:32			0	33902	0	0	0	17761	16340	153582	27639	961177	38423	106453	0	0	8155	761959	0	0
2024-05-03 11:13:32			0	33904	0	0	0	17761	16360	153630	27644	961157	38415	106453	0	0	8155	761777	0	0
2024-05-03 11:14:32			0	33920	0	0	0	17755	16350	153546	27907	961114	38415	106451	0	0	8156	761022	0	0
2024-05-03 11:15:32			0	33923	0	0	0	17761	16340	153538	27757	961027	38403	106453	0	0	8156	760914	0	0
2024-05-03 11:16:32			0	33910	0	0	0	17763	16350	153570	28077	961149	38425	106454	0	0	8155	761520	0	0
2024-05-03 11:17:32			0	33894	0	0	0	17768	16350	153542	28067	961149	38415	106456	0	0	8154	762317	0	0
2024-05-03 11:18:32			0	33905	0	0	0	17781	16360	153530	28044	961139	38426	106461	0	0	8155	761728	0	0
2024-05-03 11:19:32			0	33899	0	0	0	17789	16360	153626	27763	961210	38425	106464	0	0	8154	762026	0	0
2024-05-03 11:20:32			0	33913	0	0	0	17797	16370	153538	28057	961226	38427	106467	0	0	8155	761288	0	0
2024-05-03 11:21:32			0	33903	0	0	0	17812	16360	153518	27845	961192	38426	106473	0	0	8154	761827	0	0
2024-05-03 11:22:32			0	33919	0	0	0	17794	16380	153566	27852	961269	38438	106466	0	0	8155	760949	0	0
2024-05-03 11:23:32			0	33921	0	0	0	17805	16380	153482	27828	961217	38427	106470	0	0	8155	760849	0	0
2024-05-03 11:24:32			0	33924	0	0	0	17815	16390	153602	27604	961259	38428	106474	0	0	8155	760659	0	0
2024-05-03 11:25:32			0	33917	0	0	0	17818	16380	153506	27902	961383	38439	106475	0	0	8155	761048	0	0
2024-05-03 11:26:32			0	33921	0	0	0	17807	16390	153514	27410	961286	38428	106471	0	0	8155	760808	0	0
2024-05-03 11:27:32			0	33930	0	0	0	17799	16390	153550	27372	961320	38429	106468	0	0	8156	760360	0	0
2024-05-03 11:28:32			0	33917	0	0	0	17802	16400	153606	27488	961381	38429	106469	0	0	8155	760966	0	0
2024-05-03 11:29:32			0	33893	0	0	0	17799	16390	153498	27561	961347	38418	106468	0	0	8154	762202	0	0
2024-05-03 11:30:32			0	33894	0	0	0	17802	16400	153590	27713	961328	38418	106469	0	0	8154	762111	0	0
2024-05-03 11:31:32			0	33889	0	0	0	17810	16400	153550	27944	961328	38418	106472	0	0	8153	762360	0	0
2024-05-03 11:32:32			0	33887	0	0	0	17810	16410	153650	27911	961345	38430	106472	0	0	8153	762418	0	0
2024-05-03 11:33:32			0	33894	0	0	0	17828	16410	153702	28110	961406	38431	106479	0	0	8153	762069	0	0
2024-05-03 11:34:32			0	33907	0	0	0	17851	16420	153630	28053	961467	38431	106488	0	0	8154	761381	0	0
2024-05-03 11:35:32			0	33905	0	0	0	17844	16430	153606	27668	961404	38421	106485	0	0	8154	761439	0	0
2024-05-03 11:36:32			0	33914	0	0	0	17849	16430	153542	27871	961404	38443	106487	0	0	8154	760991	0	0
2024-05-03 11:37:32			0	33926	0	0	0	17857	16430	153646	28018	961438	38444	106490	0	0	8155	760395	0	0
2024-05-03 11:38:32			0	33924	0	0	0	17851	16440	153554	27994	961447	38433	106488	0	0	8155	760453	0	0
2024-05-03 11:39:32			0	33915	0	0	0	17849	16440	153562	27932	961473	38433	106487	0	0	8154	760901	0	0
2024-05-03 11:40:32			0	33910	0	0	0	17857	16440	153458	27658	961481	38433	106490	0	0	8154	761149	0	0
2024-05-03 11:41:32			0	33937	0	0	0	17851	16430	153418	27991	961465	38433	106488	0	0	8156	759848	0	0
2024-05-03 11:42:32			0	33903	0	0	0	17846	16450	153450	27779	961542	38422	106486	0	0	8154	761457	0	0
2024-05-03 11:43:32			0	33923	0	0	0	17841	16450	153458	27921	961542	38444	106484	0	0	8155	760462	0	0
2024-05-03 11:44:32			0	33933	0	0	0	17851	16450	153538	27857	961497	38423	106488	0	0	8155	759965	0	0
2024-05-03 11:45:32			0	33927	0	0	0	17859	16450	153538	27852	961550	38434	106491	0	0	8155	760263	0	0
2024-05-03 11:46:32			0	33938	0	0	0	17870	16470	153326	27885	961593	38446	106495	0	0	8155	759634	0	0
2024-05-03 11:47:32			0	33933	0	0	0	17883	16460	153406	28150	961638	38434	106500	0	0	8155	759924	0	0
2024-05-03 11:48:32			0	33949	0	0	0	17875	16480	153334	27802	961670	38437	106497	0	0	8156	759047	0	0
2024-05-03 11:49:32			0	33957	0	0	0	17885	16470	153338	27826	961575	38424	106501	0	0	8156	758691	0	0
2024-05-03 11:50:32			0	33953	0	0	0	17875	16470	153282	27954	961601	38446	106497	0	0	8156	758889	0	0
2024-05-03 11:51:32			0	33959	0	0	0	17890	16480	153238	27930	961688	38436	106503	0	0	8156	758550	0	0
2024-05-03 11:52:32			0	33959	0	0	0	17883	16480	153322	27848	961609	38447	106500	0	0	8157	758550	0	0
2024-05-03 11:53:32			0	33948	0	0	0	17890	16490	153282	27972	961678	38448	106503	0	0	8156	759055	0	0
2024-05-03 11:54:32			0	33956	0	0	0	17890	16490	153234	27907	961705	38437	106503	0	0	8156	758658	0	0
2024-05-03 11:55:32			0	33959	0	0	0	17898	16490	153198	27613	961705	38437	106506	0	0	8156	758509	0	0
2024-05-03 11:56:32			0	33964	0	0	0	17898	16480	153294	27743	961723	38426	106506	0	0	8157	758302	0	0
2024-05-03 11:57:32			0	33953	0	0	0	17906	16500	153182	27613	961721	38459	106509	0	0	8156	758766	0	0
2024-05-03 11:58:32			0	33953	0	0	0	17896	16500	153266	27469	961774	38449	106505	0	0	8156	758766	0	0
2024-05-03 11:59:32			0	33936	0	0	0	17872	16500	153338	27670	961748	38438	106496	0	0	8155	759610	0	0
2024-05-03 12:00:32			0	33929	0	0	0	17875	16500	153370	27587	961703	38438	106497	0	0	8155	759958	0	0
2024-05-03 12:01:32			0	33922	0	0	0	17893	16500	153366	27888	961669	38449	106504	0	0	8154	760306	0	0
2024-05-03 12:02:32			0	33918	0	0	0	17885	16510	153458	27944	961659	38450	106501	0	0	8154	760464	0	0
2024-05-03 12:03:32			0	33918	0	0	0	17890	16500	153562	28006	961756	38438	106503	0	0	8154	760505	0	0
2024-05-03 12:04:32			0	33920	0	0	0	17922	16500	153454	27906	961809	38450	106515	0	0	8154	760405	0	0
2024-05-03 12:05:32			0	33948	0	0	0	17919	16500	153358	27590	961862	38450	106514	0	0	8155	759014	0	0
2024-05-03 12:06:32			0	33944	0	0	0	17927	16520	153370	27992	961807	38439	106517	0	0	8155	759131	0	0
2024-05-03 12:07:32			0	33936	0	0	0	17932	16520	153370	27942	961833	38439	106519	0	0	8155	759528	0	0
2024-05-03 12:08:32			0	33965	0	0	0	17924	16520	153178	27788	961886	38450	106516	0	0	8156	758089	0	0
2024-05-03 12:09:32			0	33961	0	0	0	17932	16520	153342	27985	961833	38439	106519	0	0	8156	758287	0	0
2024-05-03 12:10:32			0	33972	0	0	0	17916	16530	153206	27762	961884	38441	106513	0	0	8157	757701	0	0
2024-05-03 12:11:32			0	33961	0	0	0	17909	16520	153242	27770	961868	38440	106510	0	0	8156	758287	0	0
2024-05-03 12:12:32			0	33970	0	0	0	17916	16520	153294	27828	961789	38440	106513	0	0	8157	757841	0	0
2024-05-03 12:13:32			0	33958	0	0	0	17935	16520	153222	27824	961868	38440	106520	0	0	8156	758436	0	0
2024-05-03 12:14:32			0	33973	0	0	0	17909	16520	153234	28029	961842	38440	106510	0	0	8157	757692	0	0
2024-05-03 12:15:32			0	33948	0	0	0	17927	16530	153214	27748	961876	38440	106517	0	0	8155	758891	0	0
2024-05-03 12:16:32			0	33969	0	0	0	17929	16520	153286	28128	961868	38440	106518	0	0	8157	757890	0	0
2024-05-03 12:17:32			0	33962	0	0	0	17935	16530	153230	28343	961876	38451	106520	0	0	8156	758196	0	0
2024-05-03 12:18:32			0	33961	0	0	0	17932	16530	153234	28423	961858	38452	106519	0	0	8156	758246	0	0
2024-05-03 12:19:32			0	33972	0	0	0	17916	16540	153242	27753	961892	38441	106513	0	0	8157	757660	0	0
2024-05-03 12:20:32			0	33960	0	0	0	17955	16530	153374	28041	961858	38462	106528	0	0	8156	758296	0	0
2024-05-03 12:21:32			0	33964	0	0	0	17955	16540	153270	28397	961901	38442	106528	0	0	8156	758056	0	0
2024-05-03 12:22:32			0	33975	0	0	0	17979	16540	153258	28256	962006	38453	106537	0	0	8156	757511	0	0
2024-05-03 12:23:32			0	33971	0	0	0	17971	16560	153094	28334	961978	38464	106534	0	0	8156	757627	0	0
2024-05-03 12:24:32			0	33984	0	0	0	17958	16560	153086	28064	962057	38454	106529	0	0	8157	756983	0	0
2024-05-03 12:25:32			0	33994	0	0	0	17981	16560	153174	27796	962065	38465	106538	0	0	8157	756488	0	0
2024-05-03 12:26:32			0	33962	0	0	0	17961	16560	153102	27852	962004	38464	106530	0	0	8156	758073	0	0
2024-05-03 12:27:32			0	33948	0	0	0	17961	16570	153142	27545	962055	38456	106530	0	0	8155	758727	0	0
2024-05-03 12:28:32			0	33970	0	0	0	17979	16560	153134	27975	962039	38444	106537	0	0	8156	757677	0	0
2024-05-03 12:29:32			0	33982	0	0	0	17979	16560	153294	28344	962012	38444	106537	0	0	8157	757082	0	0
2024-05-03 12:30:32			0	33966	0	0	0	17963	16580	153170	28039	962072	38456	106531	0	0	8156	757793	0	0
2024-05-03 12:31:32			0	33978	0	0	0	18002	16590	153178	27824	962106	38457	106546	0	0	8156	757157	0	0
2024-05-03 12:32:32			0	33989	0	0	0	18025	16590	153158	27973	962133	38457	106555	0	0	8156	756613	0	0
2024-05-03 12:33:32			0	33997	0	0	0	18018	16590	152982	28195	962167	38457	106552	0	0	8157	756217	0	0
2024-05-03 12:34:32			0	33995	0	0	0	17981	16600	152898	27561	962149	38468	106538	0	0	8158	756275	0	0
2024-05-03 12:35:32			0	34007	0	0	0	17984	16600	152890	28048	962183	38458	106539	0	0	8158	755681	0	0
2024-05-03 12:36:32			0	34006	0	0	0	17984	16600	152958	27999	962131	38468	106539	0	0	8158	755730	0	0
2024-05-03 12:37:32			0	34003	0	0	0	18002	16610	152918	27597	962165	38458	106546	0	0	8158	755838	0	0
2024-05-03 12:38:32			0	34013	0	0	0	18002	16610	152906	28242	962244	38469	106546	0	0	8158	755343	0	0
2024-05-03 12:39:32			0	33996	0	0	0	17994	16600	152918	27649	962096	38447	106543	0	0	8157	756225	0	0
2024-05-03 12:40:32			0	34013	0	0	0	17986	16610	152866	28020	962192	38458	106540	0	0	8159	755343	0	0
2024-05-03 12:41:32			0	33999	0	0	0	17994	16610	152918	27857	962173	38448	106543	0	0	8158	756036	0	0
2024-05-03 12:42:32			0	34013	0	0	0	17997	16610	152942	28145	962147	38458	106544	0	0	8158	755343	0	0
2024-05-03 12:43:32			0	34017	0	0	0	18018	16610	152898	28294	962200	38469	106552	0	0	8158	755146	0	0
2024-05-03 12:44:32			0	34020	0	0	0	18072	16610	152974	27897	962305	38458	106573	0	0	8157	754997	0	0
2024-05-03 12:45:32			0	34035	0	0	0	18033	16610	152866	28065	962332	38469	106558	0	0	8159	754256	0	0
2024-05-03 12:46:32			0	34040	0	0	0	18025	16620	152798	27890	962217	38459	106555	0	0	8159	753968	0	0
2024-05-03 12:47:32			0	34034	0	0	0	18033	16620	152766	27975	962269	38459	106558	0	0	8159	754265	0	0
2024-05-03 12:48:32			0	34036	0	0	0	18044	16640	152702	27852	962328	38450	106562	0	0	8159	754084	0	0
2024-05-03 12:49:32			0	34064	0	0	0	18031	16640	152758	27959	962320	38472	106557	0	0	8161	752703	0	0
2024-05-03 12:50:32			0	34050	0	0	0	18064	16640	152750	27916	962320	38460	106570	0	0	8159	753393	0	0
2024-05-03 12:51:32			0	34068	0	0	0	18041	16640	152586	27966	962408	38460	106561	0	0	8161	752506	0	0
2024-05-03 12:52:32			0	34076	0	0	0	18064	16640	152698	28067	962355	38460	106570	0	0	8161	752111	0	0
2024-05-03 12:53:32			0	34065	0	0	0	18077	16650	152654	27480	962398	38472	106575	0	0	8160	752613	0	0
2024-05-03 12:54:32			0	34071	0	0	0	18080	16660	152538	27833	962432	38462	106576	0	0	8161	752276	0	0
2024-05-03 12:55:32			0	34089	0	0	0	18070	16670	152562	28041	962422	38474	106572	0	0	8162	751349	0	0
2024-05-03 12:56:32			0	34098	0	0	0	18064	16670	152478	27878	962422	38474	106570	0	0	8162	750906	0	0
2024-05-03 12:57:32			0	34090	0	0	0	18067	16670	152494	27857	962457	38475	106571	0	0	8162	751300	0	0
2024-05-03 12:58:32			0	34095	0	0	0	18067	16660	152406	27973	962432	38462	106571	0	0	8162	751094	0	0
2024-05-03 12:59:32			0	34094	0	0	0	18057	16670	152486	27954	962457	38464	106567	0	0	8162	751103	0	0
2024-05-03 13:00:32			0	34113	0	0	0	18059	16670	152486	27897	962431	38475	106568	0	0	8163	750168	0	0
2024-05-03 13:01:32			0	34092	0	0	0	18070	16680	152482	27774	962473	38476	106572	0	0	8162	751160	0	0
2024-05-03 13:02:32			0	34109	0	0	0	18085	16680	152494	27982	962500	38465	106578	0	0	8163	750324	0	0
2024-05-03 13:03:32			0	34109	0	0	0	18077	16680	152554	27916	962492	38475	106575	0	0	8163	750324	0	0
2024-05-03 13:04:32			0	34103	0	0	0	18067	16670	152418	27883	962431	38475	106571	0	0	8163	750660	0	0
2024-05-03 13:05:32			0	34108	0	0	0	18077	16690	152422	27963	962482	38476	106575	0	0	8163	750333	0	0
2024-05-03 13:06:32			0	34103	0	0	0	18059	16680	152310	28176	962412	38464	106568	0	0	8163	750619	0	0
2024-05-03 13:07:32			0	34087	0	0	0	18075	16680	152518	27694	962447	38476	106574	0	0	8162	751407	0	0
2024-05-03 13:08:32			0	34088	0	0	0	18127	16690	152450	27769	962508	38465	106594	0	0	8161	751317	0	0
2024-05-03 13:09:32			0	34103	0	0	0	18101	16680	152342	27550	962526	38487	106584	0	0	8162	750619	0	0
2024-05-03 13:10:32			0	34113	0	0	0	18096	16700	152338	27989	962551	38466	106582	0	0	8163	750046	0	0
2024-05-03 13:11:32			0	34124	0	0	0	18093	16700	152290	27720	962585	38478	106581	0	0	8164	749505	0	0
2024-05-03 13:12:32			0	34107	0	0	0	18101	16700	152354	28011	962585	38478	106584	0	0	8162	750341	0	0
2024-05-03 13:13:32			0	34123	0	0	0	18103	16710	152370	28055	962593	38467	106585	0	0	8163	749514	0	0
2024-05-03 13:14:32			0	34129	0	0	0	18103	16710	152390	27533	962620	38478	106585	0	0	8164	749219	0	0
2024-05-03 13:15:32			0	34123	0	0	0	18132	16710	152218	28055	962654	38478	106596	0	0	8163	749514	0	0
2024-05-03 13:16:32			0	34129	0	0	0	18171	16720	152254	27760	962715	38490	106611	0	0	8163	749179	0	0
2024-05-03 13:17:32			0	34156	0	0	0	18137	16730	152198	27949	962714	38469	106598	0	0	8165	747813	0	0
2024-05-03 13:18:32			0	34146	0	0	0	18148	16730	152102	28223	962758	38480	106602	0	0	8164	748303	0	0
2024-05-03 13:19:32			0	34149	0	0	0	18142	16740	152166	27925	962722	38491	106600	0	0	8164	748116	0	0
2024-05-03 13:20:32			0	34141	0	0	0	18103	16730	152138	27968	962732	38469	106585	0	0	8164	748549	0	0
2024-05-03 13:21:32			0	34151	0	0	0	18145	16750	152214	28216	962791	38482	106601	0	0	8164	747977	0	0
2024-05-03 13:22:32			0	34133	0	0	0	18150	16740	152190	27850	962775	38491	106603	0	0	8163	748901	0	0
2024-05-03 13:23:32			0	34125	0	0	0	18140	16750	152094	27814	962765	38493	106599	0	0	8163	749253	0	0
2024-05-03 13:24:32			0	34153	0	0	0	18174	16750	152238	27545	962809	38481	106612	0	0	8164	747879	0	0
2024-05-03 13:25:32			0	34137	0	0	0	18153	16760	152158	27855	962755	38504	106604	0	0	8164	748624	0	0
2024-05-03 13:26:32			0	34146	0	0	0	18119	16760	152150	27897	962808	38472	106591	0	0	8165	748182	0	0
2024-05-03 13:27:32			0	34129	0	0	0	18142	16760	152190	27855	962720	38471	106600	0	0	8163	749016	0	0
2024-05-03 13:28:32			0	34146	0	0	0	18199	16760	152218	27998	962860	38472	106622	0	0	8163	748182	0	0
2024-05-03 13:29:32			0	34173	0	0	0	18233	16770	152170	27944	962921	38494	106635	0	0	8164	746818	0	0
2024-05-03 13:30:32			0	34187	0	0	0	18212	16780	151990	27791	962972	38496	106627	0	0	8166	746091	0	0
2024-05-03 13:31:32			0	34200	0	0	0	18207	16790	152018	27618	962980	38496	106625	0	0	8166	745415	0	0
2024-05-03 13:32:32			0	34199	0	0	0	18176	16800	152034	27595	963058	38497	106613	0	0	8167	745423	0	0
2024-05-03 13:33:32			0	34183	0	0	0	18155	16800	152026	27414	962918	38486	106605	0	0	8166	746206	0	0
2024-05-03 13:34:32			0	34189	0	0	0	18205	16790	152078	27616	962883	38496	106624	0	0	8166	745953	0	0
2024-05-03 13:35:32			0	34180	0	0	0	18184	16790	152014	27613	962936	38506	106616	0	0	8166	746394	0	0
2024-05-03 13:36:32			0	34195	0	0	0	18153	16790	151962	27528	962928	38484	106604	0	0	8167	745659	0	0
2024-05-03 13:37:32			0	34163	0	0	0	18163	16790	152142	27711	962910	38485	106608	0	0	8165	747227	0	0
2024-05-03 13:38:32			0	34150	0	0	0	18171	16790	152134	27504	962936	38496	106611	0	0	8164	747864	0	0
2024-05-03 13:39:32			0	34157	0	0	0	18158	16790	152082	27680	963015	38485	106606	0	0	8165	747521	0	0
2024-05-03 13:40:32			0	34162	0	0	0	18163	16790	152186	27859	962928	38484	106608	0	0	8165	747276	0	0
2024-05-03 13:41:32			0	34146	0	0	0	18161	16790	152142	27602	962989	38485	106607	0	0	8164	748060	0	0
2024-05-03 13:42:32			0	34144	0	0	0	18179	16800	152246	27576	962891	38486	106614	0	0	8164	748118	0	0
2024-05-03 13:43:32			0	34135	0	0	0	18163	16800	152106	27524	962944	38475	106608	0	0	8163	748560	0	0
2024-05-03 13:44:32			0	34133	0	0	0	18129	16800	152094	27666	962891	38486	106595	0	0	8164	748658	0	0
2024-05-03 13:45:32			0	34130	0	0	0	18184	16790	152242	27913	962875	38484	106616	0	0	8163	748845	0	0
2024-05-03 13:46:32			0	34130	0	0	0	18168	16800	152230	27776	962944	38497	106610	0	0	8163	748805	0	0
2024-05-03 13:47:32			0	34139	0	0	0	18168	16790	152270	27611	962954	38484	106610	0	0	8164	748404	0	0
2024-05-03 13:48:32			0	34138	0	0	0	18155	16800	152250	27926	962944	38486	106605	0	0	8164	748412	0	0
2024-05-03 13:49:32			0	34125	0	0	0	18202	16800	152278	27751	962997	38497	106623	0	0	8162	749050	0	0
2024-05-03 13:50:32			0	34149	0	0	0	18199	16800	152178	27620	963005	38486	106622	0	0	8164	747873	0	0
2024-05-03 13:51:32			0	34138	0	0	0	18174	16800	152174	27810	963023	38486	106612	0	0	8163	748412	0	0
2024-05-03 13:52:32			0	34127	0	0	0	18127	16810	152178	27504	962987	38475	106594	0	0	8164	748912	0	0
2024-05-03 13:53:32			0	34123	0	0	0	18129	16800	152222	27537	962952	38475	106595	0	0	8163	749149	0	0
2024-05-03 13:54:32			0	34098	0	0	0	18124	16790	152382	27845	962822	38484	106593	0	0	8162	750418	0	0
2024-05-03 13:55:32			0	34103	0	0	0	18215	16780	152414	27786	962920	38484	106628	0	0	8161	750213	0	0
2024-05-03 13:56:32			0	34113	0	0	0	18199	16800	152182	27447	963005	38486	106622	0	0	8162	749640	0	0
2024-05-03 13:57:32			0	34135	0	0	0	18194	16790	152182	27433	962936	38485	106620	0	0	8163	748600	0	0
2024-05-03 13:58:32			0	34139	0	0	0	18161	16800	152182	27459	962944	38486	106607	0	0	8164	748363	0	0
2024-05-03 13:59:32			0	34113	0	0	0	18132	16810	152226	27644	962934	38475	106596	0	0	8163	749599	0	0
2024-05-03 14:00:32			0	34116	0	0	0	18129	16790	152398	27682	962910	38485	106595	0	0	8163	749533	0	0
2024-05-03 14:01:32			0	34115	0	0	0	18168	16790	152226	27835	962928	38484	106610	0	0	8162	749582	0	0
2024-05-03 14:02:32			0	34126	0	0	0	18194	16790	152238	27668	962936	38485	106620	0	0	8162	749042	0	0
2024-05-03 14:03:32			0	34118	0	0	0	18171	16800	152234	27331	963005	38486	106611	0	0	8162	749394	0	0
2024-05-03 14:04:32			0	34137	0	0	0	18127	16800	152138	27630	962952	38486	106594	0	0	8164	748461	0	0
2024-05-03 14:05:32			0	34140	0	0	0	18202	16790	152262	27814	962910	38496	106623	0	0	8163	748355	0	0
2024-05-03 14:06:32			0	34128	0	0	0	18168	16800	152166	27996	963023	38497	106610	0	0	8163	748903	0	0
2024-05-03 14:07:32			0	34143	0	0	0	18155	16810	152190	27639	963013	38486	106605	0	0	8164	748126	0	0
2024-05-03 14:08:32			0	34143	0	0	0	18119	16800	152182	27762	962970	38464	106591	0	0	8165	748167	0	0
2024-05-03 14:09:32			0	34141	0	0	0	18197	16790	152274	27691	962962	38474	106621	0	0	8163	748306	0	0
2024-05-03 14:10:32			0	34175	0	0	0	18215	16800	152154	27454	963050	38486	106628	0	0	8165	746598	0	0
2024-05-03 14:11:32			0	34196	0	0	0	18212	16800	152030	27795	963031	38497	106627	0	0	8166	745570	0	0
2024-05-03 14:12:32			0	34196	0	0	0	18124	16810	151902	27654	963048	38487	106593	0	0	8168	745530	0	0
2024-05-03 14:13:32			0	34174	0	0	0	18186	16810	151982	27665	962995	38476	106617	0	0	8165	746607	0	0
2024-05-03 14:14:32			0	34185	0	0	0	18205	16800	152006	27460	963005	38486	106624	0	0	8166	746108	0	0
2024-05-03 14:15:32			0	34205	0	0	0	18218	16810	151930	27580	963066	38486	106629	0	0	8167	745089	0	0
2024-05-03 14:16:32			0	34219	0	0	0	18254	16820	151830	27261	963109	38499	106643	0	0	8167	744365	0	0
2024-05-03 14:17:32			0	34233	0	0	0	18231	16820	151818	27352	963109	38488	106634	0	0	8168	743681	0	0
2024-05-03 14:18:32			0	34249	0	0	0	18199	16810	151670	27348	963101	38487	106622	0	0	8169	742940	0	0
2024-05-03 14:19:32			0	34264	0	0	0	18244	16820	151790	27563	963170	38499	106639	0	0	8170	742168	0	0
2024-05-03 14:20:32			0	34268	0	0	0	18251	16820	151578	27547	963117	38488	106642	0	0	8170	741973	0	0
2024-05-03 14:21:32			0	34274	0	0	0	18251	16830	151562	27358	963186	38510	106642	0	0	8170	741641	0	0
2024-05-03 14:22:32			0	34283	0	0	0	18223	16840	151506	27402	963115	38489	106631	0	0	8171	741162	0	0
2024-05-03 14:23:32			0	34289	0	0	0	18210	16840	151530	27263	963115	38500	106626	0	0	8172	740870	0	0
2024-05-03 14:24:32			0	34287	0	0	0	18231	16830	151534	27573	963081	38489	106634	0	0	8171	741007	0	0
2024-05-03 14:25:32			0	34279	0	0	0	18223	16840	151566	27569	963150	38500	106631	0	0	8171	741357	0	0
2024-05-03 14:26:32			0	34273	0	0	0	18199	16830	151622	27428	963160	38510	106622	0	0	8171	741689	0	0
2024-05-03 14:27:32			0	34286	0	0	0	18225	16840	151730	27639	963115	38478	106632	0	0	8171	741016	0	0
2024-05-03 14:28:32			0	34274	0	0	0	18236	16840	151562	27329	963123	38500	106636	0	0	8170	741601	0	0
2024-05-03 14:29:32			0	34287	0	0	0	18244	16840	151506	27526	963203	38500	106639	0	0	8171	740967	0	0
2024-05-03 14:30:32			0	34278	0	0	0	18220	16840	151502	27649	963176	38512	106630	0	0	8171	741406	0	0
2024-05-03 14:31:32			0	34283	0	0	0	18246	16850	151498	27343	963184	38490	106640	0	0	8171	741122	0	0
2024-05-03 14:32:32			0	34304	0	0	0	18254	16850	151486	27658	963132	38500	106643	0	0	8172	740100	0	0
2024-05-03 14:33:32			0	34301	0	0	0	18246	16850	151486	27607	963219	38500	106640	0	0	8172	740246	0	0
2024-05-03 14:34:32			0	34284	0	0	0	18244	16850	151478	27296	963245	38490	106639	0	0	8171	741073	0	0
2024-05-03 14:35:32			0	34289	0	0	0	18246	16850	151482	27365	963193	38500	106640	0	0	8171	740830	0	0
2024-05-03 14:36:32			0	34295	0	0	0	18264	16850	151478	27251	963219	38500	106647	0	0	8171	740538	0	0
2024-05-03 14:37:32			0	34319	0	0	0	18262	16850	151482	27763	963166	38490	106646	0	0	8173	739370	0	0
2024-05-03 14:38:32			0	34313	0	0	0	18267	16850	151374	27308	963219	38500	106648	0	0	8172	739662	0	0
2024-05-03 14:39:32			0	34297	0	0	0	18251	16860	151430	27767	963314	38492	106642	0	0	8172	740400	0	0
2024-05-03 14:40:32			0	34304	0	0	0	18251	16860	151466	27419	963262	38492	106642	0	0	8172	740060	0	0
2024-05-03 14:41:32			0	34316	0	0	0	18246	16860	151442	27725	963314	38492	106640	0	0	8173	739476	0	0
2024-05-03 14:42:32			0	34306	0	0	0	18267	16860	151406	27611	963235	38502	106648	0	0	8172	739962	0	0
2024-05-03 14:43:32			0	34295	0	0	0	18267	16860	151490	27557	963314	38492	106648	0	0	8171	740498	0	0
2024-05-03 14:44:32			0	34295	0	0	0	18267	16860	151470	27246	963262	38513	106648	0	0	8171	740498	0	0
2024-05-03 14:45:32			0	34301	0	0	0	18254	16870	151382	27495	963270	38492	106643	0	0	8172	740166	0	0
2024-05-03 14:46:32			0	34311	0	0	0	18275	16870	151374	27639	963297	38481	106651	0	0	8172	739679	0	0
2024-05-03 14:47:32			0	34307	0	0	0	18272	16870	151450	27753	963252	38502	106650	0	0	8172	739874	0	0
2024-05-03 14:48:32			0	34315	0	0	0	18277	16870	151350	27395	963305	38492	106652	0	0	8172	739485	0	0
2024-05-03 14:49:32			0	34322	0	0	0	18272	16880	151318	27800	963366	38493	106650	0	0	8173	739104	0	0
2024-05-03 14:50:32			0	34311	0	0	0	18283	16890	151422	27334	963356	38504	106654	0	0	8172	739599	0	0
2024-05-03 14:51:32			0	34296	0	0	0	18277	16870	151398	27428	963358	38492	106652	0	0	8171	740409	0	0
2024-05-03 14:52:32			0	34304	0	0	0	18283	16880	151422	27398	963366	38503	106654	0	0	8171	739979	0	0
2024-05-03 14:53:32			0	34309	0	0	0	18283	16880	151358	27502	963400	38504	106654	0	0	8172	739736	0	0
2024-05-03 14:54:32			0	34297	0	0	0	18288	16880	151414	27538	963313	38514	106656	0	0	8171	740320	0	0
2024-05-03 14:55:32			0	34316	0	0	0	18293	16890	151494	27319	963409	38504	106658	0	0	8172	739356	0	0
2024-05-03 14:56:32			0	34310	0	0	0	18293	16900	151390	27580	963372	38505	106658	0	0	8172	739607	0	0
2024-05-03 14:57:32			0	34310	0	0	0	18296	16890	151418	27170	963382	38504	106659	0	0	8172	739648	0	0
2024-05-03 14:58:32			0	34300	0	0	0	18301	16900	151510	27753	963425	38516	106661	0	0	8171	740094	0	0
2024-05-03 14:59:32			0	34274	0	0	0	18311	16890	151554	27670	963443	38504	106665	0	0	8169	741400	0	0
2024-05-03 15:00:32			0	34264	0	0	0	18309	16900	151518	27627	963433	38506	106664	0	0	8169	741847	0	0
2024-05-03 15:01:32			0	34301	0	0	0	18309	16900	151502	27386	963459	38506	106664	0	0	8171	740045	0	0
2024-05-03 15:02:32			0	34252	0	0	0	18316	16900	151610	27606	963407	38506	106667	0	0	8168	742432	0	0
2024-05-03 15:03:32			0	34266	0	0	0	18319	16910	151662	27561	963441	38506	106668	0	0	8169	741709	0	0
2024-05-03 15:04:32			0	34276	0	0	0	18316	16920	151610	27620	963484	38496	106667	0	0	8170	741182	0	0
2024-05-03 15:05:32			0	34276	0	0	0	18322	16910	151602	27403	963494	38496	106669	0	0	8169	741222	0	0
2024-05-03 15:06:32			0	34249	0	0	0	18327	16910	151666	27852	963529	38506	106671	0	0	8168	742538	0	0
2024-05-03 15:07:32			0	34252	0	0	0	18332	16920	151614	27514	963510	38518	106673	0	0	8168	742351	0	0
2024-05-03 15:08:32			0	34247	0	0	0	18327	16930	151726	27932	963535	38508	106671	0	0	8168	742554	0	0
2024-05-03 15:09:32			0	34266	0	0	0	18332	16930	151698	27398	963553	38519	106673	0	0	8169	741629	0	0
2024-05-03 15:10:32			0	34240	0	0	0	18342	16930	151794	27677	963588	38519	106677	0	0	8167	742896	0	0
2024-05-03 15:11:32			0	34212	0	0	0	18348	16930	151878	27339	963580	38519	106679	0	0	8165	744263	0	0
2024-05-03 15:12:32			0	34191	0	0	0	18350	16930	151914	27421	963659	38519	106680	0	0	8164	745289	0	0
2024-05-03 15:13:32			0	34170	0	0	0	18358	16940	151946	27538	963683	38520	106683	0	0	8163	746277	0	0
2024-05-03 15:14:32			0	34163	0	0	0	18353	16940	151962	27282	963631	38520	106681	0	0	8163	746620	0	0
2024-05-03 15:15:32			0	34174	0	0	0	18358	16950	151926	27576	963665	38510	106683	0	0	8163	746040	0	0
2024-05-03 15:16:32			0	34169	0	0	0	18358	16950	151934	27812	963639	38510	106683	0	0	8163	746285	0	0
2024-05-03 15:17:32			0	34144	0	0	0	18361	16950	152130	27698	963673	38521	106684	0	0	8161	747510	0	0
2024-05-03 15:18:32			0	34137	0	0	0	18363	16960	152174	27403	963708	38521	106685	0	0	8161	747812	0	0
2024-05-03 15:19:32			0	34138	0	0	0	18363	16960	152134	27322	963708	38510	106685	0	0	8161	747763	0	0
2024-05-03 15:20:32			0	34116	0	0	0	18384	16960	152214	27416	963682	38510	106693	0	0	8159	748843	0	0
2024-05-03 15:21:32			0	34093	0	0	0	18366	16970	152214	27486	963759	38512	106686	0	0	8158	749932	0	0
2024-05-03 15:22:32			0	34085	0	0	0	18374	16970	152358	27454	963777	38511	106689	0	0	8158	750325	0	0
2024-05-03 15:23:32			0	34119	0	0	0	18371	16970	152294	27606	963812	38512	106688	0	0	8160	748655	0	0
2024-05-03 15:24:32			0	34100	0	0	0	18381	16970	152342	27777	963804	38511	106692	0	0	8159	749588	0	0
2024-05-03 15:25:32			0	34100	0	0	0	18376	16980	152350	27450	963749	38535	106690	0	0	8159	749547	0	0
2024-05-03 15:26:32			0	34086	0	0	0	18376	16970	152354	27542	963733	38512	106690	0	0	8158	750276	0	0
2024-05-03 15:27:32			0	34061	0	0	0	18376	16980	152374	27339	963767	38523	106690	0	0	8156	751465	0	0
2024-05-03 15:28:32			0	34076	0	0	0	18379	16970	152394	27336	963759	38523	106691	0	0	8157	750768	0	0
2024-05-03 15:29:32			0	34066	0	0	0	18379	16990	152434	27576	963863	38524	106691	0	0	8157	751178	0	0
2024-05-03 15:30:32			0	34044	0	0	0	18386	16960	152654	27419	963769	38533	106694	0	0	8155	752384	0	0
2024-05-03 15:31:32			0	34025	0	0	0	18386	16990	152674	27464	963810	38513	106694	0	0	8154	753198	0	0
2024-05-03 15:32:32			0	34005	0	0	0	18392	16980	152714	27720	963802	38523	106696	0	0	8153	754225	0	0
2024-05-03 15:33:32			0	33996	0	0	0	18394	16990	152742	27573	963810	38546	106697	0	0	8152	754629	0	0
2024-05-03 15:34:32			0	33992	0	0	0	18392	16990	152758	27396	963792	38525	106696	0	0	8152	754826	0	0
2024-05-03 15:35:32			0	33973	0	0	0	18389	17000	152826	27239	963853	38525	106695	0	0	8151	755725	0	0
2024-05-03 15:36:32			0	34013	0	0	0	18394	17000	152734	27362	963835	38525	106697	0	0	8153	753749	0	0
2024-05-03 15:37:32			0	33987	0	0	0	18392	17000	152746	27485	963835	38525	106696	0	0	8152	755033	0	0
2024-05-03 15:38:32			0	34007	0	0	0	18394	16990	152694	27483	963818	38525	106697	0	0	8153	754086	0	0
2024-05-03 15:39:32			0	33999	0	0	0	18399	17010	152734	27317	963896	38515	106699	0	0	8153	754399	0	0
2024-05-03 15:40:32			0	34006	0	0	0	18397	17000	152630	27601	963888	38525	106698	0	0	8153	754094	0	0
2024-05-03 15:41:32			0	34040	0	0	0	18394	17000	152622	27680	963906	38514	106697	0	0	8155	752418	0	0
2024-05-03 15:42:32			0	34057	0	0	0	18399	17010	152450	27703	963904	38516	106699	0	0	8156	751540	0	0
2024-05-03 15:43:32			0	34094	0	0	0	18397	17000	152306	27208	963914	38503	106698	0	0	8158	749761	0	0
2024-05-03 15:44:32			0	34103	0	0	0	18397	17000	152366	27545	963861	38525	106698	0	0	8159	749319	0	0
2024-05-03 15:45:32			0	34086	0	0	0	18371	17010	152318	27661	963869	38526	106688	0	0	8158	750113	0	0
2024-05-03 15:46:32			0	34101	0	0	0	18361	17010	152226	27436	963869	38515	106684	0	0	8159	749376	0	0
2024-05-03 15:47:32			0	34086	0	0	0	18381	17010	152238	27789	963817	38515	106692	0	0	8158	750113	0	0
2024-05-03 15:48:32			0	34091	0	0	0	18407	17010	152374	27530	963869	38526	106702	0	0	8158	749867	0	0
2024-05-03 15:49:32			0	34086	0	0	0	18389	17010	152394	27509	963869	38526	106695	0	0	8158	750113	0	0
2024-05-03 15:50:32			0	34064	0	0	0	18368	17000	152406	27436	963835	38514	106687	0	0	8157	751236	0	0
2024-05-03 15:51:32			0	34042	0	0	0	18402	17000	152558	27516	963800	38514	106700	0	0	8155	752319	0	0
2024-05-03 15:52:32			0	33993	0	0	0	18363	17000	152610	27661	963861	38525	106685	0	0	8153	754736	0	0
2024-05-03 15:53:32			0	34009	0	0	0	18397	17010	152702	27554	963922	38526	106698	0	0	8153	753905	0	0
2024-05-03 15:54:32			0	34027	0	0	0	18410	17000	152730	27443	963914	38514	106703	0	0	8154	753058	0	0
2024-05-03 15:55:32			0	34014	0	0	0	18392	17020	152598	27485	963939	38516	106696	0	0	8154	753618	0	0
2024-05-03 15:56:32			0	34031	0	0	0	18358	17020	152714	27229	963939	38516	106683	0	0	8155	752780	0	0
2024-05-03 15:57:32			0	34014	0	0	0	18332	17000	152666	27409	963879	38514	106673	0	0	8155	753700	0	0
2024-05-03 15:58:32			0	34013	0	0	0	18342	17000	152710	27111	963808	38525	106677	0	0	8154	753749	0	0
2024-05-03 15:59:32			0	34033	0	0	0	18350	17000	152670	27440	963808	38514	106680	0	0	8155	752763	0	0
2024-05-03 16:00:32			0	34007	0	0	0	18345	16990	152738	27279	963766	38514	106678	0	0	8154	754086	0	0
2024-05-03 16:01:32			0	33983	0	0	0	18324	16990	152838	27699	963713	38525	106670	0	0	8153	755271	0	0
2024-05-03 16:02:32			0	33954	0	0	0	18275	16990	152866	27339	963678	38513	106651	0	0	8152	756706	0	0
2024-05-03 16:03:32			0	33937	0	0	0	18277	16970	153030	27448	963653	38501	106652	0	0	8151	757629	0	0
2024-05-03 16:04:32			0	33940	0	0	0	18353	16970	153066	27632	963592	38500	106681	0	0	8150	757481	0	0
2024-05-03 16:05:32			0	33936	0	0	0	18353	16970	153034	27353	963627	38512	106681	0	0	8150	757679	0	0
2024-05-03 16:06:32			0	33942	0	0	0	18225	16970	153014	27438	963619	38511	106632	0	0	8152	757382	0	0
2024-05-03 16:07:32			0	33931	0	0	0	18301	16960	153130	27528	963523	38510	106661	0	0	8150	757968	0	0
2024-05-03 16:08:32			0	33929	0	0	0	18272	16950	153106	27284	963541	38500	106650	0	0	8150	758108	0	0
2024-05-03 16:09:32			0	33930	0	0	0	18192	16950	153014	27287	963515	38500	106619	0	0	8152	758058	0	0
2024-05-03 16:10:32			0	33916	0	0	0	18228	16920	152978	27239	963413	38497	106633	0	0	8150	758876	0	0
2024-05-03 16:11:32			0	33919	0	0	0	18212	16920	153014	27673	963439	38507	106627	0	0	8151	758727	0	0
2024-05-03 16:12:32			0	33923	0	0	0	18254	16920	152978	27116	963492	38497	106643	0	0	8150	758529	0	0
2024-05-03 16:13:32			0	33934	0	0	0	18210	16920	153014	27334	963413	38507	106626	0	0	8152	757984	0	0
2024-05-03 16:14:32			0	33926	0	0	0	18264	16920	153110	27518	963379	38496	106647	0	0	8150	758380	0	0
2024-05-03 16:15:32			0	33932	0	0	0	18202	16920	153134	27757	963405	38496	106623	0	0	8152	758083	0	0
2024-05-03 16:16:32			0	33888	0	0	0	18225	16900	153250	27459	963354	38506	106632	0	0	8149	760349	0	0
2024-05-03 16:17:32			0	33896	0	0	0	18283	16900	153346	27274	963407	38495	106654	0	0	8148	759951	0	0
2024-05-03 16:18:32			0	33854	0	0	0	18324	16910	153498	27417	963494	38506	106670	0	0	8145	761998	0	0
2024-05-03 16:19:32			0	33846	0	0	0	18298	16900	153386	27353	963486	38506	106660	0	0	8145	762438	0	0
2024-05-03 16:20:32			0	33835	0	0	0	18288	16910	153426	27419	963494	38506	106656	0	0	8144	762944	0	0
2024-05-03 16:21:32			0	33841	0	0	0	18285	16910	153578	27348	963449	38506	106655	0	0	8145	762645	0	0
2024-05-03 16:22:32			0	33838	0	0	0	18311	16910	153674	27307	963502	38506	106665	0	0	8144	762795	0	0
2024-05-03 16:23:32			0	33817	0	0	0	18311	16920	153598	27557	963519	38518	106665	0	0	8143	763800	0	0
2024-05-03 16:24:32			0	33824	0	0	0	18322	16920	153534	27524	963510	38518	106669	0	0	8143	763451	0	0
2024-05-03 16:25:32			0	33819	0	0	0	18322	16920	153614	27474	963545	38518	106669	0	0	8143	763700	0	0
2024-05-03 16:26:32			0	33821	0	0	0	18329	16930	153686	27384	963588	38508	106672	0	0	8143	763559	0	0
2024-05-03 16:27:32			0	33807	0	0	0	18353	16930	153746	27611	963606	38519	106681	0	0	8142	764257	0	0
2024-05-03 16:28:32			0	33813	0	0	0	18345	16940	153762	27428	963649	38508	106678	0	0	8142	763917	0	0
2024-05-03 16:29:32			0	33806	0	0	0	18324	16940	153734	27703	963649	38519	106670	0	0	8142	764266	0	0
2024-05-03 16:30:32			0	33794	0	0	0	18345	16940	153754	27395	963657	38509	106678	0	0	8141	764865	0	0
2024-05-03 16:31:32			0	33777	0	0	0	18329	16940	153866	27699	963657	38509	106672	0	0	8141	765714	0	0
2024-05-03 16:32:32			0	33763	0	0	0	18335	16940	153826	27376	963649	38519	106674	0	0	8140	766414	0	0
2024-05-03 16:33:32			0	33749	0	0	0	18337	16940	153982	27258	963578	38509	106675	0	0	8139	767114	0	0
2024-05-03 16:34:32			0	33744	0	0	0	18345	16950	153966	27036	963673	38532	106678	0	0	8138	767322	0	0
2024-05-03 16:35:32			0	33719	0	0	0	18348	16950	154006	27355	963586	38521	106679	0	0	8137	768574	0	0
2024-05-03 16:36:32			0	33722	0	0	0	18342	16950	154042	27900	963753	38500	106677	0	0	8137	768424	0	0
2024-05-03 16:37:32			0	33713	0	0	0	18355	16950	154206	27637	963673	38500	106682	0	0	8136	768875	0	0
2024-05-03 16:38:32			0	33676	0	0	0	18355	16950	154342	27203	963726	38521	106682	0	0	8134	770732	0	0
2024-05-03 16:39:32			0	33673	0	0	0	18376	16960	154394	27400	963734	38510	106690	0	0	8134	770841	0	0
2024-05-03 16:40:32			0	33646	0	0	0	18397	16960	154402	27704	963716	38522	106698	0	0	8132	772198	0	0
2024-05-03 16:41:32			0	33636	0	0	0	18405	16970	154566	27523	963838	38523	106701	0	0	8131	772659	0	0
2024-05-03 16:42:32			0	33618	0	0	0	18407	16980	154614	27595	963873	38523	106702	0	0	8130	773523	0	0
2024-05-03 16:43:32			0	33596	0	0	0	18415	16980	154726	27300	963846	38535	106705	0	0	8129	774632	0	0
2024-05-03 16:44:32			0	33585	0	0	0	18405	16980	154774	27289	963855	38523	106701	0	0	8128	775187	0	0
2024-05-03 16:45:32			0	33600	0	0	0	18412	16990	154730	27270	963924	38525	106704	0	0	8129	774389	0	0
2024-05-03 16:46:32			0	33578	0	0	0	18441	16990	154638	27495	963924	38525	106715	0	0	8127	775498	0	0
2024-05-03 16:47:32			0	33574	0	0	0	18418	17000	154706	27734	963993	38546	106706	0	0	8127	775658	0	0
2024-05-03 16:48:32			0	33567	0	0	0	18420	17020	154717	27287	963991	38527	106707	0	0	8127	775927	0	0
2024-05-03 16:49:32			0	33549	0	0	0	18438	17010	154865	27377	963983	38538	106714	0	0	8126	776879	0	0
2024-05-03 16:50:32			0	33532	0	0	0	18444	17010	154953	27351	964010	38548	106716	0	0	8125	777739	0	0
2024-05-03 16:51:32			0	33495	0	0	0	18459	17030	155217	27457	964008	38528	106722	0	0	8122	779528	0	0
2024-05-03 16:52:32			0	33462	0	0	0	18467	17020	155125	27568	964052	38538	106725	0	0	8120	781244	0	0
2024-05-03 16:53:32			0	33480	0	0	0	18454	17030	155385	27377	964122	38540	106720	0	0	8121	780288	0	0
2024-05-03 16:54:32			0	33438	0	0	0	18454	17050	155365	27124	964014	38551	106720	0	0	8119	782336	0	0
2024-05-03 16:55:32			0	33458	0	0	0	18446	17050	155329	27540	964173	38529	106717	0	0	8120	781320	0	0
2024-05-03 16:56:32			0	33452	0	0	0	18470	17030	155317	27479	964042	38540	106726	0	0	8119	781710	0	0
2024-05-03 16:57:32			0	33432	0	0	0	18467	17050	155417	27161	964112	38529	106725	0	0	8118	782641	0	0
2024-05-03 16:58:32			0	33420	0	0	0	18457	17050	155477	27156	964067	38541	106721	0	0	8118	783252	0	0
2024-05-03 16:59:32			0	33405	0	0	0	18451	17060	155485	27216	964128	38519	106719	0	0	8117	783973	0	0
2024-05-03 17:00:32			0	33420	0	0	0	18451	17060	155373	27204	964110	38520	106719	0	0	8118	783209	0	0
2024-05-03 17:01:32			0	33453	0	0	0	18433	17060	155265	27398	964083	38531	106712	0	0	8120	781532	0	0
2024-05-03 17:02:32			0	33479	0	0	0	18418	17060	155097	27147	964022	38508	106706	0	0	8122	780212	0	0
2024-05-03 17:03:32			0	33479	0	0	0	18433	17050	155201	27027	964173	38541	106712	0	0	8122	780254	0	0
2024-05-03 17:04:32			0	33474	0	0	0	18436	17050	155273	27386	964085	38529	106713	0	0	8121	780508	0	0
2024-05-03 17:05:32			0	33466	0	0	0	18374	17060	155177	27448	964128	38541	106689	0	0	8122	780872	0	0
2024-05-03 17:06:32			0	33489	0	0	0	18363	17050	155149	27307	964093	38518	106685	0	0	8124	779747	0	0
2024-05-03 17:07:32			0	33476	0	0	0	18389	17050	155045	27514	964059	38518	106695	0	0	8122	780407	0	0
2024-05-03 17:08:32			0	33496	0	0	0	18386	17040	155025	27485	964051	38518	106694	0	0	8124	779435	0	0
2024-05-03 17:09:32			0	33522	0	0	0	18327	17040	154917	27383	963971	38518	106671	0	0	8126	778118	0	0
2024-05-03 17:10:32			0	33514	0	0	0	18405	17030	155073	27429	963963	38529	106701	0	0	8124	778565	0	0
2024-05-03 17:11:32			0	33493	0	0	0	18405	17030	155113	27293	963990	38517	106701	0	0	8123	779629	0	0
2024-05-03 17:12:32			0	33487	0	0	0	18433	17050	155181	27260	964032	38518	106712	0	0	8122	779849	0	0
2024-05-03 17:13:32			0	33473	0	0	0	18462	17040	155245	27485	964103	38529	106723	0	0	8121	780601	0	0
2024-05-03 17:14:32			0	33466	0	0	0	18467	17060	155353	27130	964075	38541	106725	0	0	8121	780872	0	0
2024-05-03 17:15:32			0	33434	0	0	0	18459	17060	155333	27360	964154	38508	106722	0	0	8119	782497	0	0
2024-05-03 17:16:32			0	33429	0	0	0	18464	17060	155445	27026	964102	38519	106724	0	0	8118	782751	0	0
2024-05-03 17:17:32			0	33427	0	0	0	18467	17070	155549	27435	964171	38541	106725	0	0	8118	782811	0	0
2024-05-03 17:18:32			0	33400	0	0	0	18480	17060	155501	27329	964163	38531	106730	0	0	8116	784227	0	0
2024-05-03 17:19:32			0	33391	0	0	0	18464	17060	155609	27123	964242	38541	106724	0	0	8116	784686	0	0
2024-05-03 17:20:32			0	33405	0	0	0	18451	17070	155445	27377	964224	38520	106719	0	0	8117	783930	0	0
2024-05-03 17:21:32			0	33435	0	0	0	18431	17070	155345	27071	964126	38531	106711	0	0	8119	782404	0	0
2024-05-03 17:22:32			0	33451	0	0	0	18368	17070	155285	27325	964144	38531	106687	0	0	8121	781591	0	0
2024-05-03 17:23:32			0	33469	0	0	0	18363	17070	155161	27518	964118	38531	106685	0	0	8123	780677	0	0
2024-05-03 17:24:32			0	33497	0	0	0	18348	17060	155117	27462	964031	38520	106679	0	0	8124	779299	0	0
2024-05-03 17:25:32			0	33513	0	0	0	18350	17060	155013	27365	964004	38520	106680	0	0	8125	778489	0	0
2024-05-03 17:26:32			0	33537	0	0	0	18189	17040	154845	27428	963866	38518	106618	0	0	8129	777359	0	0
2024-05-03 17:27:32			0	33580	0	0	0	18166	17020	154666	27447	963780	38505	106609	0	0	8132	775271	0	0
2024-05-03 17:28:32			0	33587	0	0	0	18161	17000	154578	27282	963563	38503	106607	0	0	8133	775002	0	0
2024-05-03 17:29:32			0	33616	0	0	0	18148	16980	154462	27100	963556	38491	106602	0	0	8134	773624	0	0
2024-05-03 17:30:32			0	33632	0	0	0	18145	16960	154426	27540	963470	38488	106601	0	0	8135	772902	0	0
2024-05-03 17:31:32			0	33670	0	0	0	18127	16940	154446	27447	963393	38488	106594	0	0	8138	771075	0	0
2024-05-03 17:32:32			0	33671	0	0	0	18103	16930	154218	27124	963316	38487	106585	0	0	8138	771067	0	0
2024-05-03 17:33:32			0	33663	0	0	0	18186	16910	154254	27277	963212	38474	106617	0	0	8136	771552	0	0
2024-05-03 17:34:32			0	33713	0	0	0	18114	16890	154110	27251	963206	38494	106589	0	0	8140	769125	0	0
2024-05-03 17:35:32			0	33706	0	0	0	18088	16870	154078	27618	963120	38470	106579	0	0	8140	769560	0	0
2024-05-03 17:36:32			0	33727	0	0	0	18059	16860	154018	27640	962998	38492	106568	0	0	8142	768548	0	0
2024-05-03 17:37:32			0	33736	0	0	0	18051	16840	153942	27317	962983	38467	106565	0	0	8142	768181	0	0
2024-05-03 17:38:32			0	33781	0	0	0	18046	16830	153782	27369	962922	38466	106563	0	0	8145	765971	0	0
2024-05-03 17:39:32			0	33786	0	0	0	18059	16810	153838	27360	962890	38487	106568	0	0	8145	765804	0	0
2024-05-03 17:40:32			0	33817	0	0	0	18051	16800	153694	27383	962865	38464	106565	0	0	8147	764297	0	0
2024-05-03 17:41:32			0	33813	0	0	0	18033	16800	153762	27795	962839	38486	106558	0	0	8147	764497	0	0
2024-05-03 17:42:32			0	33813	0	0	0	18062	16780	153822	27305	962779	38484	106569	0	0	8146	764579	0	0
2024-05-03 17:43:32			0	33819	0	0	0	18085	16770	153738	27537	962824	38461	106578	0	0	8146	764321	0	0
2024-05-03 17:44:32			0	33792	0	0	0	18077	16770	153730	27545	962771	38472	106575	0	0	8145	765670	0	0
2024-05-03 17:45:32			0	33817	0	0	0	18137	16760	153786	27514	962834	38483	106598	0	0	8145	764463	0	0
2024-05-03 17:46:32			0	33838	0	0	0	18186	16770	153726	27353	962982	38495	106617	0	0	8146	763374	0	0
2024-05-03 17:47:32			0	33855	0	0	0	18259	16790	153698	27526	963112	38517	106645	0	0	8146	762444	0	0
2024-05-03 17:48:32			0	33907	0	0	0	18189	16800	153370	27327	963190	38518	106618	0	0	8150	759817	0	0
2024-05-03 17:49:32			0	33935	0	0	0	18225	16810	153274	27386	963206	38508	106632	0	0	8151	758386	0	0
2024-05-03 17:50:32			0	33963	0	0	0	18220	16820	153142	27447	963196	38499	106630	0	0	8153	756957	0	0
2024-05-03 17:51:32			0	33967	0	0	0	18223	16830	152958	27391	963204	38499	106631	0	0	8153	756718	0	0
2024-05-03 17:52:32			0	34014	0	0	0	18207	16830	152842	27398	963265	38500	106625	0	0	8156	754394	0	0
2024-05-03 17:53:32			0	34008	0	0	0	18212	16840	152910	27346	963326	38500	106627	0	0	8155	754650	0	0
2024-05-03 17:54:32			0	34000	0	0	0	18215	16840	152810	27256	963247	38500	106628	0	0	8155	755045	0	0
2024-05-03 17:55:32			0	34020	0	0	0	18197	16850	152666	27426	963290	38490	106621	0	0	8156	754017	0	0
2024-05-03 17:56:32			0	34025	0	0	0	18215	16850	152754	27277	963290	38500	106628	0	0	8156	753770	0	0
2024-05-03 17:57:32			0	34019	0	0	0	18262	16850	152794	27519	963263	38500	106646	0	0	8155	754066	0	0
2024-05-03 17:58:32			0	34056	0	0	0	18241	16840	152726	27170	963326	38500	106638	0	0	8158	752282	0	0
2024-05-03 17:59:32			0	34021	0	0	0	18275	16860	152826	27095	963359	38512	106651	0	0	8155	753926	0	0
2024-05-03 18:00:32			0	34029	0	0	0	18272	16860	152754	27095	963385	38501	106650	0	0	8156	753532	0	0
2024-05-03 18:01:32			0	33938	0	0	0	18358	16890	153030	27152	963567	38504	106683	0	0	8149	757908	0	0
2024-05-03 18:02:32			0	33863	0	0	0	18293	16900	153530	27277	963530	38516	106658	0	0	8146	761592	0	0
2024-05-03 18:03:32			0	33854	0	0	0	18301	16890	153470	27225	963488	38515	106661	0	0	8145	762081	0	0
2024-05-03 18:04:32			0	33853	0	0	0	18298	16900	153594	27402	963512	38506	106660	0	0	8145	762089	0	0
2024-05-03 18:05:32			0	33841	0	0	0	18254	16900	153590	27369	963539	38517	106643	0	0	8145	762687	0	0
2024-05-03 18:06:32			0	33797	0	0	0	18309	16900	153698	27069	963512	38506	106664	0	0	8142	764881	0	0
2024-05-03 18:07:32			0	33832	0	0	0	18212	16910	153602	27173	963520	38496	106627	0	0	8146	763094	0	0
2024-05-03 18:08:32			0	33834	0	0	0	18231	16910	153638	27230	963520	38496	106634	0	0	8145	762994	0	0
2024-05-03 18:09:32			0	33763	0	0	0	18259	16900	153882	27090	963512	38495	106645	0	0	8141	766580	0	0
2024-05-03 18:10:32			0	33791	0	0	0	18233	16910	153842	27429	963529	38496	106635	0	0	8143	765139	0	0
2024-05-03 18:11:32			0	33790	0	0	0	18199	16910	153942	27500	963494	38485	106622	0	0	8143	765189	0	0
2024-05-03 18:12:32			0	33798	0	0	0	18194	16900	153802	27345	963407	38495	106620	0	0	8144	764831	0	0
2024-05-03 18:13:32			0	33770	0	0	0	18275	16890	153950	27255	963469	38494	106651	0	0	8141	766271	0	0
2024-05-03 18:14:32			0	33721	0	0	0	18244	16910	154082	27441	963520	38506	106639	0	0	8139	768641	0	0
2024-05-03 18:15:32			0	33704	0	0	0	18246	16910	154174	27027	963468	38518	106640	0	0	8138	769493	0	0
2024-05-03 18:16:32			0	33709	0	0	0	18228	16910	154130	27348	963468	38496	106633	0	0	8138	769243	0	0
2024-05-03 18:17:32			0	33705	0	0	0	18225	16910	154314	27495	963423	38496	106632	0	0	8138	769443	0	0
2024-05-03 18:18:32			0	33690	0	0	0	18259	16900	154338	27145	963486	38517	106645	0	0	8136	770238	0	0
2024-05-03 18:19:32			0	33669	0	0	0	18272	16920	154466	27268	963537	38496	106650	0	0	8135	771209	0	0
2024-05-03 18:20:32			0	33715	0	0	0	18171	16910	154314	27244	963494	38506	106611	0	0	8139	768942	0	0
2024-05-03 18:21:32			0	33732	0	0	0	18197	16900	153986	27102	963433	38517	106621	0	0	8140	768132	0	0
2024-05-03 18:22:32			0	33742	0	0	0	18212	16900	154030	27251	963372	38483	106627	0	0	8140	767631	0	0
2024-05-03 18:23:32			0	33743	0	0	0	18197	16910	154058	27637	963441	38485	106621	0	0	8141	767539	0	0
2024-05-03 18:24:32			0	33734	0	0	0	18158	16900	153942	27286	963425	38483	106606	0	0	8141	768031	0	0
2024-05-03 18:25:32			0	33788	0	0	0	18153	16900	153766	27218	963399	38505	106604	0	0	8144	765330	0	0
2024-05-03 18:26:32			0	33792	0	0	0	18176	16890	153802	27462	963285	38483	106613	0	0	8144	765172	0	0
2024-05-03 18:27:32			0	33811	0	0	0	18184	16870	153674	27234	963323	38492	106616	0	0	8145	764306	0	0
2024-05-03 18:28:32			0	33850	0	0	0	18186	16860	153618	27022	963367	38492	106617	0	0	8147	762404	0	0
2024-05-03 18:29:32			0	33896	0	0	0	18155	16880	153370	27371	963260	38482	106605	0	0	8150	760034	0	0
2024-05-03 18:30:32			0	33859	0	0	0	18249	16870	153490	27322	963297	38470	106641	0	0	8146	761914	0	0
2024-05-03 18:31:32			0	33774	0	0	0	18264	16870	153866	27263	963270	38492	106647	0	0	8141	766154	0	0
2024-05-03 18:32:32			0	33718	0	0	0	18244	16870	154098	27211	963376	38492	106639	0	0	8138	768958	0	0
2024-05-03 18:33:32			0	33707	0	0	0	18225	16870	154126	27190	963358	38502	106632	0	0	8138	769510	0	0
2024-05-03 18:34:32			0	33701	0	0	0	18244	16880	154322	27244	963339	38493	106639	0	0	8137	769769	0	0
2024-05-03 18:35:32			0	33671	0	0	0	18212	16870	154402	27611	963358	38492	106627	0	0	8136	771317	0	0
2024-05-03 18:36:32			0	33708	0	0	0	18199	16880	154094	27345	963313	38493	106622	0	0	8138	769418	0	0
2024-05-03 18:37:32			0	33761	0	0	0	18246	16870	154010	27524	963297	38492	106640	0	0	8141	766804	0	0
2024-05-03 18:38:32			0	33698	0	0	0	18236	16860	154314	27732	963341	38492	106636	0	0	8137	770003	0	0
2024-05-03 18:39:32			0	33645	0	0	0	18249	16870	154426	27324	963358	38492	106641	0	0	8134	772625	0	0
2024-05-03 18:40:32			0	33610	0	0	0	18251	16870	154706	27514	963358	38481	106642	0	0	8132	774388	0	0
2024-05-03 18:41:32			0	33617	0	0	0	18228	16870	154762	27715	963402	38470	106633	0	0	8133	774035	0	0
2024-05-03 18:42:32			0	33591	0	0	0	18241	16870	154922	27275	963305	38481	106638	0	0	8131	775347	0	0
2024-05-03 18:43:32			0	33573	0	0	0	18241	16870	154901	27364	963358	38492	106638	0	0	8130	776256	0	0
2024-05-03 18:44:32			0	33562	0	0	0	18238	16860	154921	27725	963314	38502	106637	0	0	8129	776854	0	0
2024-05-03 18:45:32			0	33555	0	0	0	18228	16860	154885	27274	963314	38502	106633	0	0	8129	777208	0	0
2024-05-03 18:46:32			0	33576	0	0	0	18205	16870	154862	27282	963270	38502	106624	0	0	8131	776104	0	0
2024-05-03 18:47:32			0	33563	0	0	0	18218	16860	154845	27291	963235	38502	106629	0	0	8129	776803	0	0
2024-05-03 18:48:32			0	33592	0	0	0	18140	16860	154790	27687	963235	38492	106599	0	0	8133	775338	0	0
2024-05-03 18:49:32			0	33596	0	0	0	18197	16850	154866	27253	963245	38490	106621	0	0	8132	775178	0	0
2024-05-03 18:50:32			0	33571	0	0	0	18181	16850	154738	27644	963219	38490	106615	0	0	8131	776441	0	0
2024-05-03 18:51:32			0	33607	0	0	0	18145	16850	154706	27071	963211	38490	106601	0	0	8133	774623	0	0
2024-05-03 18:52:32			0	33619	0	0	0	18181	16830	154686	27294	963160	38500	106615	0	0	8133	774102	0	0
2024-05-03 18:53:32			0	33608	0	0	0	18168	16840	154766	27138	963203	38500	106610	0	0	8133	774615	0	0
2024-05-03 18:54:32			0	33624	0	0	0	18122	16830	154678	27419	963160	38500	106592	0	0	8135	773850	0	0
2024-05-03 18:55:32			0	33663	0	0	0	18116	16830	154518	27474	963081	38489	106590	0	0	8137	771887	0	0
2024-05-03 18:56:32			0	33688	0	0	0	18109	16820	154242	27059	963064	38509	106587	0	0	8139	770672	0	0
2024-05-03 18:57:32			0	33710	0	0	0	18080	16830	154218	27074	963046	38477	106576	0	0	8140	769526	0	0
2024-05-03 18:58:32			0	33728	0	0	0	18080	16800	154106	27376	962979	38475	106576	0	0	8141	768748	0	0
2024-05-03 18:59:32			0	33775	0	0	0	18101	16800	154046	27507	962926	38486	106584	0	0	8144	766395	0	0
2024-05-03 19:00:32			0	33798	0	0	0	18096	16800	153858	27367	962944	38486	106582	0	0	8145	765246	0	0
2024-05-03 19:01:32			0	33804	0	0	0	18098	16790	153862	27138	962883	38496	106583	0	0	8145	764987	0	0
2024-05-03 19:02:32			0	33802	0	0	0	18067	16800	153834	27199	962918	38497	106571	0	0	8146	765046	0	0
2024-05-03 19:03:32			0	33823	0	0	0	18070	16780	153766	27017	962814	38462	106572	0	0	8147	764080	0	0
2024-05-03 19:04:32			0	33828	0	0	0	18077	16780	153798	27189	962779	38484	106575	0	0	8147	763831	0	0
2024-05-03 19:05:32			0	33842	0	0	0	18070	16760	153630	27190	962826	38471	106572	0	0	8148	763216	0	0
2024-05-03 19:06:32			0	33850	0	0	0	18059	16750	153538	27215	962818	38482	106568	0	0	8148	762858	0	0
2024-05-03 19:07:32			0	33862	0	0	0	18054	16750	153470	27488	962757	38481	106566	0	0	8149	762261	0	0
2024-05-03 19:08:32			0	33864	0	0	0	18038	16730	153402	27421	962766	38480	106560	0	0	8150	762244	0	0
2024-05-03 19:09:32			0	33860	0	0	0	18049	16730	153474	27500	962705	38480	106564	0	0	8149	762443	0	0
2024-05-03 19:10:32			0	33884	0	0	0	18049	16720	153426	27402	962671	38468	106564	0	0	8150	761290	0	0
2024-05-03 19:11:32			0	33881	0	0	0	18046	16720	153474	27419	962644	38458	106563	0	0	8150	761439	0	0
2024-05-03 19:12:32			0	33864	0	0	0	18044	16710	153538	27590	962620	38467	106562	0	0	8149	762326	0	0
2024-05-03 19:13:32			0	33863	0	0	0	18051	16710	153658	27530	962593	38478	106565	0	0	8149	762376	0	0
2024-05-03 19:14:32			0	33860	0	0	0	18051	16700	153686	27331	962612	38478	106565	0	0	8149	762567	0	0
2024-05-03 19:15:32			0	33845	0	0	0	18036	16710	153694	27244	962593	38467	106559	0	0	8148	763273	0	0
2024-05-03 19:16:32			0	33821	0	0	0	18057	16690	153738	27313	962595	38488	106567	0	0	8147	764553	0	0
2024-05-03 19:17:32			0	33825	0	0	0	18051	16700	153946	27519	962603	38466	106565	0	0	8147	764312	0	0
2024-05-03 19:18:32			0	33797	0	0	0	18059	16700	154090	27246	962630	38488	106568	0	0	8145	765710	0	0
2024-05-03 19:19:32			0	33777	0	0	0	18051	16700	154114	27239	962603	38455	106565	0	0	8144	766710	0	0
2024-05-03 19:20:32			0	33764	0	0	0	18049	16680	154306	27428	962605	38476	106564	0	0	8143	767444	0	0
2024-05-03 19:21:32			0	33734	0	0	0	18038	16690	154298	27467	962561	38465	106560	0	0	8142	768905	0	0
2024-05-03 19:22:32			0	33733	0	0	0	18036	16680	154310	27580	962526	38476	106559	0	0	8142	768997	0	0
2024-05-03 19:23:32			0	33723	0	0	0	18051	16680	154258	27254	962579	38476	106565	0	0	8141	769499	0	0
2024-05-03 19:24:32			0	33723	0	0	0	18049	16690	154390	27485	962587	38455	106564	0	0	8141	769457	0	0
2024-05-03 19:25:32			0	33698	0	0	0	18041	16690	154514	27538	962648	38466	106561	0	0	8140	770712	0	0
2024-05-03 19:26:32			0	33677	0	0	0	18033	16680	154530	27351	962553	38476	106558	0	0	8138	771810	0	0
2024-05-03 19:27:32			0	33673	0	0	0	18033	16680	154446	27519	962544	38464	106558	0	0	8138	772011	0	0
2024-05-03 19:28:32			0	33665	0	0	0	18033	16680	154550	27242	962544	38464	106558	0	0	8138	772414	0	0
2024-05-03 19:29:32			0	33656	0	0	0	18025	16680	154566	26930	962544	38464	106555	0	0	8137	772867	0	0
2024-05-03 19:30:32			0	33664	0	0	0	18020	16670	154626	27277	962528	38474	106553	0	0	8138	772506	0	0
2024-05-03 19:31:32			0	33647	0	0	0	18031	16660	154630	27374	962546	38453	106557	0	0	8137	773404	0	0
2024-05-03 19:32:32			0	33624	0	0	0	18010	16660	154734	27353	962493	38485	106549	0	0	8136	774563	0	0
2024-05-03 19:33:32			0	33621	0	0	0	18023	16660	154762	27443	962493	38463	106554	0	0	8135	774715	0	0
2024-05-03 19:34:32			0	33630	0	0	0	18007	16660	154766	27159	962485	38473	106548	0	0	8136	774261	0	0
2024-05-03 19:35:32			0	33630	0	0	0	18002	16660	154810	27332	962406	38462	106546	0	0	8136	774261	0	0
2024-05-03 19:36:32			0	33606	0	0	0	18007	16650	154906	27270	962450	38461	106548	0	0	8135	775514	0	0
2024-05-03 19:37:32			0	33622	0	0	0	17999	16650	154966	27362	962389	38461	106545	0	0	8136	774706	0	0
2024-05-03 19:38:32			0	33594	0	0	0	18010	16650	154862	27341	962442	38472	106549	0	0	8134	776120	0	0
2024-05-03 19:39:32			0	33597	0	0	0	18007	16640	154894	27265	962381	38460	106548	0	0	8134	776010	0	0
2024-05-03 19:40:32			0	33590	0	0	0	18005	16650	154950	27445	962442	38472	106547	0	0	8134	776322	0	0
2024-05-03 19:41:32			0	33603	0	0	0	17999	16650	155054	27358	962389	38484	106545	0	0	8135	775665	0	0
2024-05-03 19:42:32			0	33604	0	0	0	17999	16640	155018	27485	962373	38483	106545	0	0	8135	775657	0	0
2024-05-03 19:43:32			0	33587	0	0	0	17994	16650	155070	27658	962468	38472	106543	0	0	8134	776473	0	0
2024-05-03 19:44:32			0	33579	0	0	0	17999	16640	155026	27194	962347	38460	106545	0	0	8133	776920	0	0
2024-05-03 19:45:32			0	33577	0	0	0	18002	16640	155018	27405	962399	38472	106546	0	0	8133	777021	0	0
2024-05-03 19:46:32			0	33584	0	0	0	18002	16630	154974	27279	962365	38460	106546	0	0	8133	776709	0	0
2024-05-03 19:47:32			0	33581	0	0	0	18002	16630	154974	27611	962391	38471	106546	0	0	8133	776861	0	0
2024-05-03 19:48:32			0	33592	0	0	0	17999	16630	154946	27552	962357	38460	106545	0	0	8134	776305	0	0
2024-05-03 19:49:32			0	33578	0	0	0	18002	16630	155013	27315	962409	38471	106546	0	0	8133	777013	0	0
2024-05-03 19:50:32			0	33556	0	0	0	17999	16620	155117	27358	962348	38459	106545	0	0	8132	778168	0	0
2024-05-03 19:51:32			0	33561	0	0	0	17989	16620	155049	27319	962348	38481	106541	0	0	8132	777915	0	0
2024-05-03 19:52:32			0	33554	0	0	0	18007	16620	155113	27322	962348	38459	106548	0	0	8131	778269	0	0
2024-05-03 19:53:32			0	33558	0	0	0	18010	16630	155181	27308	962338	38482	106549	0	0	8132	778025	0	0
2024-05-03 19:54:32			0	33555	0	0	0	17994	16630	155121	27346	962357	38482	106543	0	0	8132	778176	0	0
2024-05-03 19:55:32			0	33573	0	0	0	18005	16630	155154	27376	962383	38460	106547	0	0	8133	777265	0	0
2024-05-03 19:56:32			0	33571	0	0	0	18023	16630	155117	27803	962409	38471	106554	0	0	8132	777367	0	0
2024-05-03 19:57:32			0	33574	0	0	0	18015	16630	155114	27170	962436	38471	106551	0	0	8132	777215	0	0
2024-05-03 19:58:32			0	33586	0	0	0	18018	16630	155038	27241	962409	38460	106552	0	0	8133	776608	0	0
2024-05-03 19:59:32			0	33583	0	0	0	18018	16640	154934	27234	962373	38472	106552	0	0	8133	776718	0	0
2024-05-03 20:00:32			0	33600	0	0	0	18036	16630	154950	27647	962444	38471	106559	0	0	8134	775901	0	0
2024-05-03 20:01:32			0	33602	0	0	0	18028	16630	154922	27422	962444	38471	106556	0	0	8134	775799	0	0
2024-05-03 20:02:32			0	33614	0	0	0	18031	16640	154922	27371	962399	38483	106557	0	0	8135	775152	0	0
2024-05-03 20:03:32			0	33633	0	0	0	18023	16640	154998	27180	962487	38472	106554	0	0	8136	774193	0	0
2024-05-03 20:04:32			0	33621	0	0	0	18023	16640	154970	27284	962399	38472	106554	0	0	8135	774799	0	0
2024-05-03 20:05:32			0	33612	0	0	0	18031	16640	154954	27395	962381	38460	106557	0	0	8134	775253	0	0
2024-05-03 20:06:32			0	33614	0	0	0	18028	16640	154878	27518	962487	38472	106556	0	0	8135	775152	0	0
2024-05-03 20:07:32			0	33620	0	0	0	18025	16630	154898	27509	962391	38482	106555	0	0	8135	774891	0	0
2024-05-03 20:08:32			0	33622	0	0	0	18023	16630	154914	27474	962418	38482	106554	0	0	8135	774790	0	0
2024-05-03 20:09:32			0	33632	0	0	0	18028	16640	154854	27336	962408	38472	106556	0	0	8136	774244	0	0
2024-05-03 20:10:32			0	33627	0	0	0	18025	16640	154910	27614	962460	38483	106555	0	0	8135	774496	0	0
2024-05-03 20:11:32			0	33625	0	0	0	18018	16650	154970	27296	962442	38461	106552	0	0	8136	774555	0	0
2024-05-03 20:12:32			0	33631	0	0	0	18023	16640	154946	27647	962434	38472	106554	0	0	8136	774294	0	0
2024-05-03 20:13:32			0	33622	0	0	0	18023	16640	154906	27372	962487	38460	106554	0	0	8135	774748	0	0
2024-05-03 20:14:32			0	33631	0	0	0	18020	16640	154814	27599	962505	38472	106553	0	0	8136	774294	0	0
2024-05-03 20:15:32			0	33628	0	0	0	18025	16650	154894	27630	962442	38484	106555	0	0	8136	774403	0	0
2024-05-03 20:16:32			0	33601	0	0	0	18018	16650	154842	27338	962416	38461	106552	0	0	8134	775766	0	0
2024-05-03 20:17:32			0	33609	0	0	0	18020	16640	154862	27531	962408	38460	106553	0	0	8134	775404	0	0
2024-05-03 20:18:32			0	33617	0	0	0	18005	16640	154866	27258	962426	38472	106547	0	0	8135	775000	0	0
2024-05-03 20:19:32			0	33601	0	0	0	18015	16640	154914	27673	962381	38472	106551	0	0	8134	775808	0	0
2024-05-03 20:20:32			0	33589	0	0	0	18018	16630	154970	27178	962391	38471	106552	0	0	8133	776456	0	0
2024-05-03 20:21:32			0	33588	0	0	0	18012	16640	154854	27348	962426	38472	106550	0	0	8133	776465	0	0
2024-05-03 20:22:32			0	33579	0	0	0	18005	16650	155041	27339	962416	38484	106547	0	0	8133	776878	0	0
2024-05-03 20:23:32			0	33583	0	0	0	18005	16630	155010	27661	962391	38460	106547	0	0	8133	776760	0	0
2024-05-03 20:24:32			0	33578	0	0	0	17997	16640	155089	27346	962399	38472	106544	0	0	8133	776971	0	0
2024-05-03 20:25:32			0	33562	0	0	0	17994	16630	155189	27386	962391	38482	106543	0	0	8132	777822	0	0
2024-05-03 20:26:32			0	33557	0	0	0	17999	16620	155057	27599	962322	38470	106545	0	0	8132	778117	0	0
2024-05-03 20:27:32			0	33553	0	0	0	18002	16630	155225	27656	962330	38460	106546	0	0	8131	778278	0	0
2024-05-03 20:28:32			0	33535	0	0	0	17994	16630	155165	27315	962330	38471	106543	0	0	8131	779190	0	0
2024-05-03 20:29:32			0	33549	0	0	0	17994	16620	155161	26970	962322	38481	106543	0	0	8131	778522	0	0
2024-05-03 20:30:32			0	33536	0	0	0	17992	16630	155197	27390	962383	38471	106542	0	0	8131	779139	0	0
2024-05-03 20:31:32			0	33520	0	0	0	17981	16630	155297	27563	962338	38460	106538	0	0	8130	779950	0	0
2024-05-03 20:32:32			0	33513	0	0	0	17986	16620	155349	27568	962393	38470	106540	0	0	8129	780348	0	0
2024-05-03 20:33:32			0	33500	0	0	0	17989	16630	155385	27417	962409	38471	106541	0	0	8129	780965	0	0
2024-05-03 20:34:32			0	33510	0	0	0	17992	16620	155277	27377	962287	38470	106542	0	0	8129	780500	0	0
2024-05-03 20:35:32			0	33492	0	0	0	17992	16620	155469	27256	962314	38459	106542	0	0	8128	781414	0	0
2024-05-03 20:36:32			0	33488	0	0	0	17986	16620	155477	27274	962287	38459	106540	0	0	8128	781617	0	0
2024-05-03 20:37:32			0	33480	0	0	0	17984	16620	155525	27282	962340	38470	106539	0	0	8127	782024	0	0
2024-05-03 20:38:32			0	33469	0	0	0	17981	16610	155569	27421	962305	38480	106538	0	0	8127	782626	0	0
2024-05-03 20:39:32			0	33442	0	0	0	17976	16610	155573	27445	962305	38480	106536	0	0	8125	784000	0	0
2024-05-03 20:40:32			0	33450	0	0	0	17986	16610	155525	27481	962324	38480	106540	0	0	8126	783593	0	0
2024-05-03 20:41:32			0	33442	0	0	0	17976	16620	155621	27293	962287	38470	106536	0	0	8125	783958	0	0
2024-05-03 20:42:32			0	33435	0	0	0	17981	16610	155637	27455	962324	38480	106538	0	0	8125	784357	0	0
2024-05-03 20:43:32			0	33438	0	0	0	17979	16610	155685	27589	962297	38469	106537	0	0	8125	784204	0	0
2024-05-03 20:44:32			0	33437	0	0	0	17976	16610	155745	27277	962279	38458	106536	0	0	8125	784255	0	0
2024-05-03 20:45:32			0	33429	0	0	0	17971	16610	155849	27067	962279	38480	106534	0	0	8125	784663	0	0
2024-05-03 20:46:32			0	33423	0	0	0	17968	16610	155853	27204	962271	38458	106533	0	0	8124	784968	0	0
2024-05-03 20:47:32			0	33433	0	0	0	17976	16600	155801	27246	962263	38468	106536	0	0	8125	784501	0	0
2024-05-03 20:48:32			0	33409	0	0	0	17971	16610	155749	27301	962244	38491	106534	0	0	8123	785683	0	0
2024-05-03 20:49:32			0	33419	0	0	0	17971	16610	155777	27057	962271	38469	106534	0	0	8124	785173	0	0
2024-05-03 20:50:32			0	33420	0	0	0	17971	16600	155761	27279	962263	38458	106534	0	0	8124	785164	0	0
2024-05-03 20:51:32			0	33406	0	0	0	17966	16600	155833	27053	962281	38468	106532	0	0	8123	785878	0	0
2024-05-03 20:52:32			0	33399	0	0	0	17968	16600	155849	27573	962228	38468	106533	0	0	8123	786236	0	0
2024-05-03 20:53:32			0	33414	0	0	0	17968	16600	155829	26984	962281	38479	106533	0	0	8124	785470	0	0
2024-05-03 20:54:32			0	33412	0	0	0	17971	16590	155777	27524	962246	38467	106534	0	0	8123	785615	0	0
2024-05-03 20:55:32			0	33429	0	0	0	17971	16600	155865	27310	962236	38479	106534	0	0	8124	784705	0	0
2024-05-03 20:56:32			0	33392	0	0	0	17961	16590	155877	27180	962246	38467	106530	0	0	8122	786636	0	0
2024-05-03 20:57:32			0	33409	0	0	0	17966	16600	155845	27173	962228	38479	106532	0	0	8123	785725	0	0
2024-05-03 20:58:32			0	33401	0	0	0	17966	16600	155953	27436	962236	38458	106532	0	0	8123	786134	0	0
2024-05-03 20:59:32			0	33400	0	0	0	17968	16600	155913	27074	962254	38479	106533	0	0	8123	786185	0	0
2024-05-03 21:00:32			0	33402	0	0	0	17966	16590	156017	27476	962238	38467	106532	0	0	8123	786125	0	0
2024-05-03 21:01:32			0	33404	0	0	0	17968	16590	155961	27365	962246	38467	106533	0	0	8123	786023	0	0
2024-05-03 21:02:32			0	33391	0	0	0	17968	16600	155953	27384	962289	38479	106533	0	0	8122	786644	0	0
2024-05-03 21:03:32			0	33411	0	0	0	17974	16590	155861	27215	962238	38457	106535	0	0	8123	785666	0	0
2024-05-03 21:04:32			0	33419	0	0	0	17971	16600	155901	27528	962210	38458	106534	0	0	8124	785215	0	0
2024-05-03 21:05:32			0	33423	0	0	0	17968	16590	155833	27319	962299	38479	106533	0	0	8124	785053	0	0
2024-05-03 21:06:32			0	33426	0	0	0	17971	16590	155781	27415	962264	38457	106534	0	0	8124	784901	0	0
2024-05-03 21:07:32			0	33445	0	0	0	17963	16600	155801	27391	962210	38468	106531	0	0	8126	783890	0	0
2024-05-03 21:08:32			0	33430	0	0	0	17974	16590	155749	27454	962264	38467	106535	0	0	8124	784697	0	0
2024-05-03 21:09:32			0	33439	0	0	0	17971	16590	155709	27239	962299	38479	106534	0	0	8125	784238	0	0
2024-05-03 21:10:32			0	33452	0	0	0	17971	16600	155713	27216	962254	38468	106534	0	0	8126	783533	0	0
2024-05-03 21:11:32			0	33449	0	0	0	17968	16610	155769	27263	962271	38458	106533	0	0	8126	783644	0	0
2024-05-03 21:12:32			0	33458	0	0	0	17963	16600	155717	27265	962289	38458	106531	0	0	8126	783228	0	0
2024-05-03 21:13:32			0	33442	0	0	0	17966	16590	155717	27391	962273	38467	106532	0	0	8125	784085	0	0
2024-05-03 21:14:32			0	33448	0	0	0	17968	16590	155697	26958	962246	38467	106533	0	0	8126	783779	0	0
2024-05-03 21:15:32			0	33451	0	0	0	17971	16580	155665	27196	962177	38466	106534	0	0	8126	783669	0	0
2024-05-03 21:16:32			0	33458	0	0	0	17963	16600	155805	26913	962228	38468	106531	0	0	8126	783228	0	0
2024-05-03 21:17:32			0	33428	0	0	0	17974	16590	155829	27319	962193	38457	106535	0	0	8124	784798	0	0
2024-05-03 21:18:32			0	33438	0	0	0	17974	16590	155773	27275	962273	38479	106535	0	0	8125	784289	0	0
2024-05-03 21:19:32			0	33442	0	0	0	17966	16590	155725	26974	962264	38467	106532	0	0	8125	784085	0	0
2024-05-03 21:20:32			0	33444	0	0	0	17971	16590	155721	27339	962220	38479	106534	0	0	8125	783983	0	0
2024-05-03 21:21:32			0	33433	0	0	0	17966	16590	155805	27180	962317	38467	106532	0	0	8125	784544	0	0
2024-05-03 21:22:32			0	33442	0	0	0	17968	16590	155909	27447	962264	38467	106533	0	0	8125	784085	0	0
2024-05-03 21:23:32			0	33431	0	0	0	17961	16590	155869	27123	962264	38479	106530	0	0	8125	784646	0	0
2024-05-03 21:24:32			0	33414	0	0	0	17966	16590	155729	27020	962238	38479	106532	0	0	8124	785513	0	0
2024-05-03 21:25:32			0	33433	0	0	0	17963	16590	155809	27341	962264	38490	106531	0	0	8125	784544	0	0
2024-05-03 21:26:32			0	33438	0	0	0	17968	16580	155757	27526	962256	38456	106533	0	0	8125	784331	0	0
2024-05-03 21:27:32			0	33425	0	0	0	17966	16590	155693	27156	962185	38467	106532	0	0	8124	784951	0	0
2024-05-03 21:28:32			0	33428	0	0	0	17968	16580	155777	27268	962248	38488	106533	0	0	8124	784841	0	0
2024-05-03 21:29:32			0	33436	0	0	0	17963	16600	155705	27152	962254	38468	106531	0	0	8125	784348	0	0
2024-05-03 21:30:32			0	33442	0	0	0	17968	16580	155777	27312	962230	38466	106533	0	0	8125	784127	0	0
2024-05-03 21:31:32			0	33419	0	0	0	17968	16590	155805	27348	962291	38490	106533	0	0	8124	785258	0	0
2024-05-03 21:32:32			0	33425	0	0	0	17971	16590	155793	27265	962238	38467	106534	0	0	8124	784951	0	0
2024-05-03 21:33:32			0	33420	0	0	0	17968	16590	155797	27348	962238	38479	106533	0	0	8124	785207	0	0
2024-05-03 21:34:32			0	33431	0	0	0	17966	16590	155773	27128	962212	38479	106532	0	0	8125	784646	0	0
2024-05-03 21:35:32			0	33423	0	0	0	17968	16580	155797	27163	962203	38478	106533	0	0	8124	785096	0	0
2024-05-03 21:36:32			0	33428	0	0	0	17968	16590	155785	27500	962246	38457	106533	0	0	8124	784798	0	0
2024-05-03 21:37:32			0	33410	0	0	0	17968	16590	155905	27305	962246	38479	106533	0	0	8123	785717	0	0
2024-05-03 21:38:32			0	33407	0	0	0	17971	16590	155913	27275	962220	38467	106534	0	0	8123	785870	0	0
2024-05-03 21:39:32			0	33406	0	0	0	17963	16590	155857	27504	962238	38467	106531	0	0	8123	785921	0	0
2024-05-03 21:40:32			0	33419	0	0	0	17966	16590	155877	27492	962238	38479	106532	0	0	8124	785258	0	0
2024-05-03 21:41:32			0	33420	0	0	0	17963	16590	155909	27163	962291	38479	106531	0	0	8124	785207	0	0
2024-05-03 21:42:32			0	33411	0	0	0	17950	16590	155897	27201	962238	38467	106526	0	0	8124	785666	0	0
2024-05-03 21:43:32			0	33418	0	0	0	17968	16590	155897	27498	962238	38467	106533	0	0	8124	785309	0	0
2024-05-03 21:44:32			0	33408	0	0	0	17968	16580	155913	27608	962256	38466	106533	0	0	8123	785861	0	0
2024-05-03 21:45:32			0	33410	0	0	0	17966	16590	156045	27524	962246	38467	106532	0	0	8123	785717	0	0
2024-05-03 21:46:32			0	33394	0	0	0	17963	16580	155973	27672	962283	38466	106531	0	0	8122	786576	0	0
2024-05-03 21:47:32			0	33402	0	0	0	17966	16580	156045	27386	962274	38477	106532	0	0	8123	786168	0	0
2024-05-03 21:48:32			0	33407	0	0	0	17961	16580	155957	27523	962256	38456	106530	0	0	8123	785912	0	0
2024-05-03 21:49:32			0	33408	0	0	0	17974	16590	155949	27518	962185	38479	106535	0	0	8123	785819	0	0
2024-05-03 21:50:32			0	33412	0	0	0	17968	16580	155945	27353	962203	38466	106533	0	0	8123	785657	0	0
2024-05-03 21:51:32			0	33425	0	0	0	17968	16590	155909	27263	962264	38457	106533	0	0	8124	784951	0	0
2024-05-03 21:52:32			0	33416	0	0	0	17966	16590	155869	27338	962246	38457	106532	0	0	8124	785411	0	0
2024-05-03 21:53:32			0	33438	0	0	0	17968	16600	155877	27395	962228	38468	106533	0	0	8125	784246	0	0
2024-05-03 21:54:32			0	33408	0	0	0	17971	16600	155853	27469	962228	38468	106534	0	0	8123	785776	0	0
2024-05-03 21:55:32			0	33414	0	0	0	17971	16590	155905	27369	962238	38457	106534	0	0	8124	785513	0	0
2024-05-03 21:56:32			0	33410	0	0	0	17963	16590	155985	27312	962193	38467	106531	0	0	8123	785717	0	0
2024-05-03 21:57:32			0	33401	0	0	0	17971	16590	155989	27563	962185	38467	106534	0	0	8123	786176	0	0
2024-05-03 21:58:32			0	33394	0	0	0	17968	16590	156017	27566	962212	38467	106533	0	0	8122	786534	0	0
2024-05-03 21:59:32			0	33383	0	0	0	17958	16580	156045	27571	962230	38456	106529	0	0	8122	787138	0	0
2024-05-03 22:00:32			0	33372	0	0	0	17958	16580	156029	27478	962256	38456	106529	0	0	8121	787700	0	0
2024-05-03 22:01:32			0	33380	0	0	0	17955	16590	156097	27490	962212	38467	106528	0	0	8122	787249	0	0
2024-05-03 22:02:32			0	33391	0	0	0	17958	16590	156009	27345	962238	38467	106529	0	0	8122	786687	0	0
2024-05-03 22:03:32			0	33373	0	0	0	17963	16590	155997	27114	962238	38467	106531	0	0	8121	787607	0	0
2024-05-03 22:04:32			0	33409	0	0	0	17961	16590	156069	27365	962212	38467	106530	0	0	8123	785768	0	0
2024-05-03 22:05:32			0	33380	0	0	0	17958	16590	156057	27303	962185	38467	106529	0	0	8122	787249	0	0
2024-05-03 22:06:32			0	33369	0	0	0	17961	16590	156117	27287	962264	38467	106530	0	0	8121	787811	0	0
2024-05-03 22:07:32			0	33390	0	0	0	17961	16590	156089	27322	962273	38467	106530	0	0	8122	786738	0	0
2024-05-03 22:08:32			0	33381	0	0	0	17958	16580	156077	27303	962230	38466	106529	0	0	8122	787240	0	0
2024-05-03 22:09:32			0	33407	0	0	0	17968	16590	155977	27260	962220	38457	106533	0	0	8123	785870	0	0
2024-05-03 22:10:32			0	33400	0	0	0	17961	16580	156097	27308	962283	38466	106530	0	0	8123	786270	0	0
2024-05-03 22:11:32			0	33402	0	0	0	17966	16590	156081	27256	962264	38457	106532	0	0	8123	786125	0	0
2024-05-03 22:12:32			0	33411	0	0	0	17958	16590	156009	27369	962238	38479	106529	0	0	8124	785666	0	0
2024-05-03 22:13:32			0	33406	0	0	0	17961	16590	155953	27351	962273	38457	106530	0	0	8123	785921	0	0
2024-05-03 22:14:32			0	33390	0	0	0	17953	16580	155953	27580	962230	38456	106527	0	0	8122	786781	0	0
2024-05-03 22:15:32			0	33392	0	0	0	17961	16590	156017	27452	962264	38467	106530	0	0	8122	786636	0	0
2024-05-03 22:16:32			0	33400	0	0	0	17958	16580	156085	27229	962195	38466	106529	0	0	8123	786270	0	0
2024-05-03 22:17:32			0	33393	0	0	0	17961	16580	156057	27639	962309	38456	106530	0	0	8122	786627	0	0
2024-05-03 22:18:32			0	33407	0	0	0	17953	16590	155993	27433	962264	38467	106527	0	0	8123	785870	0	0
2024-05-03 22:19:32			0	33388	0	0	0	17961	16580	156089	27497	962195	38456	106530	0	0	8122	786883	0	0
2024-05-03 22:20:32			0	33385	0	0	0	17961	16590	156073	27455	962238	38467	106530	0	0	8122	786994	0	0
2024-05-03 22:21:32			0	33372	0	0	0	17963	16580	156089	27201	962203	38466	106531	0	0	8121	787700	0	0
2024-05-03 22:22:32			0	33381	0	0	0	17958	16590	155973	27412	962264	38467	106529	0	0	8122	787198	0	0
2024-05-03 22:23:32			0	33375	0	0	0	17955	16580	156041	27478	962203	38466	106528	0	0	8121	787547	0	0
2024-05-03 22:24:32			0	33384	0	0	0	17958	16580	156089	27486	962230	38466	106529	0	0	8122	787087	0	0
2024-05-03 22:25:32			0	33388	0	0	0	17958	16590	156077	27537	962212	38479	106529	0	0	8122	786840	0	0
2024-05-03 22:26:32			0	33364	0	0	0	17953	16580	156069	27512	962222	38466	106527	0	0	8121	788110	0	0
2024-05-03 22:27:32			0	33373	0	0	0	17958	16590	156137	27355	962264	38467	106529	0	0	8121	787607	0	0
2024-05-03 22:28:32			0	33374	0	0	0	17953	16580	156129	27535	962222	38477	106527	0	0	8121	787598	0	0
2024-05-03 22:29:32			0	33378	0	0	0	17961	16590	156173	27412	962212	38467	106530	0	0	8122	787351	0	0
2024-05-03 22:30:32			0	33397	0	0	0	17948	16580	155953	27322	962195	38466	106525	0	0	8123	786423	0	0
2024-05-03 22:31:32			0	33393	0	0	0	17945	16580	156017	27355	962230	38478	106524	0	0	8123	786627	0	0
2024-05-03 22:32:32			0	33420	0	0	0	17919	16580	155909	27267	962169	38466	106514	0	0	8125	785249	0	0
2024-05-03 22:33:32			0	33429	0	0	0	17924	16580	155937	27608	962195	38456	106516	0	0	8125	784790	0	0
2024-05-03 22:34:32			0	33411	0	0	0	17922	16570	155957	27398	962134	38499	106515	0	0	8124	785751	0	0
2024-05-03 22:35:32			0	33414	0	0	0	17924	16560	155821	27286	962092	38455	106516	0	0	8124	785640	0	0
2024-05-03 22:36:32			0	33430	0	0	0	17932	16560	155813	27523	962163	38464	106519	0	0	8125	784824	0	0
2024-05-03 22:37:32			0	33419	0	0	0	17932	16560	155909	27294	962110	38475	106519	0	0	8124	785385	0	0
2024-05-03 22:38:32			0	33409	0	0	0	17924	16550	155897	27192	962102	38454	106516	0	0	8124	785938	0	0
2024-05-03 22:39:32			0	33407	0	0	0	17932	16550	155901	27261	962128	38464	106519	0	0	8124	786040	0	0
2024-05-03 22:40:32			0	33412	0	0	0	17916	16550	155873	27424	962102	38464	106513	0	0	8124	785785	0	0
2024-05-03 22:41:32			0	33436	0	0	0	17922	16550	155781	27253	962102	38464	106515	0	0	8125	784560	0	0
2024-05-03 22:42:32			0	33446	0	0	0	17927	16560	155821	27003	962136	38464	106517	0	0	8126	784009	0	0
2024-05-03 22:43:32			0	33446	0	0	0	17924	16550	155729	27452	962120	38463	106516	0	0	8126	784051	0	0
2024-05-03 22:44:32			0	33461	0	0	0	17927	16560	155773	27616	962136	38464	106517	0	0	8127	783245	0	0
2024-05-03 22:45:32			0	33456	0	0	0	17914	16540	155705	27642	962051	38473	106512	0	0	8127	783584	0	0
2024-05-03 22:46:32			0	33465	0	0	0	17924	16550	155689	27552	962067	38474	106516	0	0	8127	783083	0	0
2024-05-03 22:47:32			0	33483	0	0	0	17919	16550	155561	27665	962093	38453	106514	0	0	8128	782168	0	0
2024-05-03 22:48:32			0	33502	0	0	0	17919	16540	155461	27659	962112	38453	106514	0	0	8129	781244	0	0
2024-05-03 22:49:32			0	33492	0	0	0	17916	16540	155417	27462	962085	38463	106513	0	0	8129	781752	0	0
2024-05-03 22:50:32			0	33514	0	0	0	17924	16540	155401	27242	962077	38452	106516	0	0	8130	780635	0	0
2024-05-03 22:51:32			0	33511	0	0	0	17924	16550	155545	27199	962067	38453	106516	0	0	8130	780745	0	0
2024-05-03 22:52:32			0	33496	0	0	0	17929	16540	155413	27816	962085	38463	106518	0	0	8129	781549	0	0
2024-05-03 22:53:32			0	33504	0	0	0	17922	16540	155377	27324	962077	38462	106515	0	0	8129	781143	0	0
2024-05-03 22:54:32			0	33521	0	0	0	17914	16530	155389	27150	962095	38462	106512	0	0	8131	780322	0	0
2024-05-03 22:55:32			0	33503	0	0	0	17922	16530	155441	27429	962069	38473	106515	0	0	8129	781236	0	0
2024-05-03 22:56:32			0	33521	0	0	0	17916	16550	155589	27306	962093	38474	106513	0	0	8131	780237	0	0
2024-05-03 22:57:32			0	33491	0	0	0	17932	16530	155501	27473	962122	38462	106519	0	0	8128	781845	0	0
2024-05-03 22:58:32			0	33482	0	0	0	17922	16530	155481	27072	962043	38473	106515	0	0	8128	782303	0	0
2024-05-03 22:59:32			0	33511	0	0	0	17922	16540	155441	27081	962085	38463	106515	0	0	8130	780787	0	0
2024-05-03 23:00:32			0	33513	0	0	0	17922	16540	155529	27157	962103	38441	106515	0	0	8130	780686	0	0
2024-05-03 23:01:32			0	33501	0	0	0	17911	16540	155529	27150	962051	38462	106511	0	0	8129	781295	0	0
2024-05-03 23:02:32			0	33485	0	0	0	17922	16540	155581	27150	962085	38453	106515	0	0	8128	782108	0	0
2024-05-03 23:03:32			0	33492	0	0	0	17914	16540	155561	27206	962059	38453	106512	0	0	8129	781752	0	0
2024-05-03 23:04:32			0	33470	0	0	0	17909	16540	155545	27244	962051	38462	106510	0	0	8128	782871	0	0
2024-05-03 23:05:32			0	33458	0	0	0	17914	16530	155617	27326	962122	38473	106512	0	0	8127	783524	0	0
2024-05-03 23:06:32			0	33481	0	0	0	17914	16540	155565	27724	962077	38452	106512	0	0	8128	782312	0	0
2024-05-03 23:07:32			0	33485	0	0	0	17901	16530	155541	27322	962061	38472	106507	0	0	8129	782151	0	0
2024-05-03 23:08:32			0	33490	0	0	0	17901	16540	155561	27490	962059	38453	106507	0	0	8129	781854	0	0
2024-05-03 23:09:32			0	33488	0	0	0	17890	16540	155521	27161	962051	38473	106503	0	0	8129	781956	0	0
2024-05-03 23:10:32			0	33509	0	0	0	17890	16520	155465	27454	962026	38472	106503	0	0	8130	780973	0	0
2024-05-03 23:11:32			0	33495	0	0	0	17888	16520	155461	27111	961973	38472	106502	0	0	8129	781685	0	0
2024-05-03 23:12:32			0	33485	0	0	0	17890	16520	155489	27248	961965	38461	106503	0	0	8129	782193	0	0
2024-05-03 23:13:32			0	33459	0	0	0	17875	16530	155461	27208	962008	38451	106497	0	0	8128	783474	0	0
2024-05-03 23:14:32			0	33479	0	0	0	17877	16520	155637	27601	961912	38472	106498	0	0	8129	782498	0	0
2024-05-03 23:15:32			0	33467	0	0	0	17877	16520	155517	26960	962044	38450	106498	0	0	8128	783109	0	0
2024-05-03 23:16:32			0	33472	0	0	0	17877	16520	155577	27357	961939	38461	106498	0	0	8128	782854	0	0
2024-05-03 23:17:32			0	33467	0	0	0	17883	16520	155569	27422	961939	38461	106500	0	0	8128	783109	0	0
2024-05-03 23:18:32			0	33458	0	0	0	17883	16510	155585	27556	961957	38450	106500	0	0	8127	783609	0	0
2024-05-03 23:19:32			0	33498	0	0	0	17883	16510	155477	27190	961957	38450	106500	0	0	8130	781574	0	0
2024-05-03 23:20:32			0	33485	0	0	0	17888	16510	155517	27187	961878	38460	106502	0	0	8129	782235	0	0
2024-05-03 23:21:32			0	33495	0	0	0	17885	16510	155449	27313	961931	38460	106501	0	0	8129	781727	0	0
2024-05-03 23:22:32			0	33490	0	0	0	17888	16510	155629	27152	961922	38460	106502	0	0	8129	781981	0	0
2024-05-03 23:23:32			0	33500	0	0	0	17893	16510	155465	27386	961922	38460	106504	0	0	8130	781473	0	0
2024-05-03 23:24:32			0	33520	0	0	0	17893	16510	155385	27628	961983	38460	106504	0	0	8131	780457	0	0
2024-05-03 23:25:32			0	33532	0	0	0	17890	16510	155329	27223	961975	38460	106503	0	0	8132	779848	0	0
2024-05-03 23:26:32			0	33549	0	0	0	17901	16500	155273	27336	962020	38482	106507	0	0	8132	779028	0	0
2024-05-03 23:27:32			0	33547	0	0	0	17901	16510	155181	27312	962002	38450	106507	0	0	8132	779087	0	0
2024-05-03 23:28:32			0	33541	0	0	0	17893	16510	155285	27275	961949	38460	106504	0	0	8132	779392	0	0
2024-05-03 23:29:32			0	33546	0	0	0	17898	16510	155285	27327	961975	38471	106506	0	0	8132	779138	0	0
2024-05-03 23:30:32			0	33542	0	0	0	17896	16510	155349	27538	961975	38438	106505	0	0	8132	779341	0	0
2024-05-03 23:31:32			0	33544	0	0	0	17890	16500	155269	27261	961967	38460	106503	0	0	8132	779282	0	0
2024-05-03 23:32:32			0	33532	0	0	0	17893	16510	155341	27516	961931	38460	106504	0	0	8131	779848	0	0
2024-05-03 23:33:32			0	33543	0	0	0	17903	16510	155265	27457	961957	38471	106508	0	0	8132	779290	0	0
2024-05-03 23:34:32			0	33547	0	0	0	17893	16510	155265	27246	962036	38460	106504	0	0	8132	779087	0	0
2024-05-03 23:35:32			0	33540	0	0	0	17888	16520	155285	27211	961965	38472	106502	0	0	8132	779400	0	0
2024-05-03 23:36:32			0	33530	0	0	0	17888	16510	155265	27436	961949	38471	106502	0	0	8131	779950	0	0
2024-05-03 23:37:32			0	33531	0	0	0	17890	16510	155249	27135	961975	38460	106503	0	0	8131	779899	0	0
2024-05-03 23:38:32			0	33556	0	0	0	17898	16510	155253	27045	961949	38460	106506	0	0	8133	778631	0	0
2024-05-03 23:39:32			0	33571	0	0	0	17896	16510	155210	27391	962002	38471	106505	0	0	8134	777872	0	0
2024-05-03 23:40:32			0	33579	0	0	0	17896	16510	155134	27277	961983	38471	106505	0	0	8134	777467	0	0
2024-05-03 23:41:32			0	33598	0	0	0	17898	16510	154998	27178	961949	38450	106506	0	0	8135	776506	0	0
2024-05-03 23:42:32			0	33594	0	0	0	17896	16510	154950	27403	961957	38450	106505	0	0	8135	776708	0	0
2024-05-03 23:43:32			0	33630	0	0	0	17898	16510	154790	27352	962010	38460	106506	0	0	8137	774889	0	0
2024-05-03 23:44:32			0	33641	0	0	0	17890	16520	154750	27498	961992	38472	106503	0	0	8138	774293	0	0
2024-05-03 23:45:32			0	33621	0	0	0	17888	16510	154886	27421	961957	38471	106502	0	0	8137	775344	0	0
2024-05-03 23:46:32			0	33626	0	0	0	17890	16510	154938	27543	961957	38460	106503	0	0	8137	775091	0	0
2024-05-03 23:47:32			0	33607	0	0	0	17888	16500	155022	27459	961941	38471	106502	0	0	8136	776093	0	0
2024-05-03 23:48:32			0	33592	0	0	0	17888	16500	154902	27279	962020	38460	106502	0	0	8135	776851	0	0
2024-05-03 23:49:32			0	33583	0	0	0	17888	16510	155094	27400	961949	38482	106502	0	0	8135	777264	0	0
2024-05-03 23:50:32			0	33567	0	0	0	17896	16510	155065	27263	961975	38450	106505	0	0	8133	778074	0	0
2024-05-03 23:51:32			0	33561	0	0	0	17885	16500	155162	27343	961993	38450	106501	0	0	8133	778420	0	0
2024-05-03 23:52:32			0	33565	0	0	0	17896	16500	155077	27178	961941	38471	106505	0	0	8133	778218	0	0
2024-05-03 23:53:32			0	33596	0	0	0	17888	16510	155114	27441	961949	38460	106502	0	0	8135	776607	0	0
2024-05-03 23:54:32			0	33577	0	0	0	17896	16510	154998	27424	961957	38450	106505	0	0	8134	777568	0	0
2024-05-03 23:55:32			0	33610	0	0	0	17888	16500	154954	27561	961967	38460	106502	0	0	8136	775941	0	0
2024-05-03 23:56:32			0	33610	0	0	0	17888	16510	154950	27561	962036	38471	106502	0	0	8136	775899	0	0
2024-05-03 23:57:32			0	33611	0	0	0	17883	16500	154938	27393	961993	38460	106500	0	0	8136	775891	0	0
2024-05-03 23:58:32			0	33642	0	0	0	17898	16510	154762	27274	961931	38482	106506	0	0	8138	774284	0	0
2024-05-03 23:59:32			0	33654	0	0	0	17890	16510	154670	27178	961949	38471	106503	0	0	8139	773679	0	0
2024-05-04 00:00:32			0	33691	0	0	0	17883	16510	154510	27767	961896	38450	106500	0	0	8141	771816	0	0
2024-05-04 00:01:32			0	33701	0	0	0	17888	16500	154486	27371	961941	38460	106502	0	0	8141	771355	0	0
2024-05-04 00:02:32			0	33723	0	0	0	17885	16500	154398	27201	961967	38460	106501	0	0	8143	770249	0	0
2024-05-04 00:03:32			0	33717	0	0	0	17890	16510	154394	27504	961949	38460	106503	0	0	8142	770509	0	0
2024-05-04 00:04:32			0	33681	0	0	0	17893	16500	154630	26977	961967	38460	106504	0	0	8140	772361	0	0
2024-05-04 00:05:32			0	33697	0	0	0	17893	16510	154526	27177	961983	38460	106504	0	0	8141	771514	0	0
2024-05-04 00:06:32			0	33687	0	0	0	17885	16510	154410	27270	961983	38450	106501	0	0	8141	772017	0	0
2024-05-04 00:07:32			0	33673	0	0	0	17898	16510	154574	26953	961949	38450	106506	0	0	8140	772722	0	0
2024-05-04 00:08:32			0	33678	0	0	0	17888	16510	154618	27322	961975	38460	106502	0	0	8140	772470	0	0
2024-05-04 00:09:32			0	33660	0	0	0	17885	16500	154670	27130	961967	38450	106501	0	0	8139	773418	0	0
2024-05-04 00:10:32			0	33651	0	0	0	17893	16510	154570	27422	962036	38460	106504	0	0	8138	773830	0	0
2024-05-04 00:11:32			0	33666	0	0	0	17883	16510	154658	27274	961957	38482	106500	0	0	8140	773074	0	0
2024-05-04 00:12:32			0	33642	0	0	0	17893	16510	154682	27379	961949	38482	106504	0	0	8138	774284	0	0
2024-05-04 00:13:32			0	33642	0	0	0	17890	16510	154814	27192	961957	38471	106503	0	0	8138	774284	0	0
2024-05-04 00:14:32			0	33637	0	0	0	17888	16510	154766	27100	961949	38471	106502	0	0	8138	774536	0	0
2024-05-04 00:15:32			0	33653	0	0	0	17877	16510	154690	27421	961949	38460	106498	0	0	8139	773729	0	0
2024-05-04 00:16:32			0	33650	0	0	0	17870	16510	154694	27587	961983	38471	106495	0	0	8139	773881	0	0
2024-05-04 00:17:32			0	33680	0	0	0	17870	16510	154674	27317	962002	38450	106495	0	0	8141	772369	0	0
2024-05-04 00:18:32			0	33685	0	0	0	17875	16500	154522	27038	961967	38460	106497	0	0	8141	772159	0	0
2024-05-04 00:19:32			0	33677	0	0	0	17857	16510	154586	27144	962002	38460	106490	0	0	8141	772520	0	0
2024-05-04 00:20:32			0	33679	0	0	0	17857	16500	154618	27471	961967	38471	106490	0	0	8141	772461	0	0
2024-05-04 00:21:32			0	33728	0	0	0	17857	16500	154422	27452	961959	38470	106490	0	0	8144	769998	0	0
2024-05-04 00:22:32			0	33738	0	0	0	17846	16510	154286	27173	961983	38471	106486	0	0	8144	769454	0	0
2024-05-04 00:23:32			0	33767	0	0	0	17846	16500	154174	27367	961985	38470	106486	0	0	8146	768042	0	0
2024-05-04 00:24:32			0	33758	0	0	0	17831	16490	154262	27478	961924	38448	106480	0	0	8146	768534	0	0
2024-05-04 00:25:32			0	33716	0	0	0	17833	16500	154386	27557	961932	38438	106481	0	0	8143	770601	0	0
2024-05-04 00:26:32			0	33707	0	0	0	17828	16490	154466	27440	961845	38448	106479	0	0	8143	771095	0	0
2024-05-04 00:27:32			0	33682	0	0	0	17833	16490	154458	27350	961898	38448	106481	0	0	8141	772352	0	0
2024-05-04 00:28:32			0	33683	0	0	0	17825	16480	154502	27644	961855	38448	106478	0	0	8141	772344	0	0
2024-05-04 00:29:32			0	33693	0	0	0	17810	16480	154530	27341	961828	38448	106472	0	0	8142	771840	0	0
2024-05-04 00:30:32			0	33711	0	0	0	17807	16480	154490	27471	961855	38448	106471	0	0	8143	770935	0	0
2024-05-04 00:31:32			0	33712	0	0	0	17812	16480	154346	27403	961873	38458	106473	0	0	8143	770885	0	0
2024-05-04 00:32:32			0	33731	0	0	0	17815	16480	154414	27568	961847	38458	106474	0	0	8144	769931	0	0
2024-05-04 00:33:32			0	33715	0	0	0	17815	16480	154270	27410	961847	38447	106474	0	0	8143	770734	0	0
2024-05-04 00:34:32			0	33741	0	0	0	17828	16480	154154	27428	961802	38458	106479	0	0	8145	769429	0	0
2024-05-04 00:35:32			0	33777	0	0	0	17823	16480	154114	27332	961794	38458	106477	0	0	8147	767624	0	0
2024-05-04 00:36:32			0	33800	0	0	0	17825	16470	153974	27485	961778	38457	106478	0	0	8148	766514	0	0
2024-05-04 00:37:32			0	33823	0	0	0	17818	16460	153838	27203	961769	38445	106475	0	0	8150	765405	0	0
2024-05-04 00:38:32			0	33819	0	0	0	17810	16470	153874	27220	961680	38457	106472	0	0	8150	765564	0	0
2024-05-04 00:39:32			0	33802	0	0	0	17815	16450	154054	27360	961761	38456	106474	0	0	8148	766497	0	0
2024-05-04 00:40:32			0	33763	0	0	0	17815	16460	154198	27267	961769	38467	106474	0	0	8146	768408	0	0
2024-05-04 00:41:32			0	33736	0	0	0	17807	16460	154338	27434	961717	38445	106471	0	0	8145	769763	0	0
2024-05-04 00:42:32			0	33719	0	0	0	17807	16450	154314	27163	961735	38445	106471	0	0	8144	770658	0	0
2024-05-04 00:43:32			0	33677	0	0	0	17807	16440	154466	27317	961692	38455	106471	0	0	8141	772813	0	0
2024-05-04 00:44:32			0	33684	0	0	0	17802	16450	154598	27819	961727	38444	106469	0	0	8142	772419	0	0
2024-05-04 00:45:32			0	33655	0	0	0	17810	16450	154778	27512	961700	38444	106472	0	0	8140	773880	0	0
2024-05-04 00:46:32			0	33684	0	0	0	17810	16450	154574	27542	961735	38445	106472	0	0	8142	772419	0	0
2024-05-04 00:47:32			0	33671	0	0	0	17802	16440	154542	27452	961692	38455	106469	0	0	8141	773115	0	0
2024-05-04 00:48:32			0	33673	0	0	0	17802	16440	154618	27189	961710	38465	106469	0	0	8141	773014	0	0
2024-05-04 00:49:32			0	33678	0	0	0	17810	16440	154610	27279	961658	38455	106472	0	0	8141	772762	0	0
2024-05-04 00:50:32			0	33643	0	0	0	17797	16440	154686	27576	961718	38433	106467	0	0	8139	774527	0	0
2024-05-04 00:51:32			0	33609	0	0	0	17799	16440	154854	27003	961658	38455	106468	0	0	8137	776244	0	0
2024-05-04 00:52:32			0	33605	0	0	0	17797	16440	154954	27294	961710	38444	106467	0	0	8137	776446	0	0
2024-05-04 00:53:32			0	33616	0	0	0	17794	16430	154898	27462	961649	38455	106466	0	0	8138	775932	0	0
2024-05-04 00:54:32			0	33606	0	0	0	17807	16430	154850	27220	961649	38465	106471	0	0	8137	776437	0	0
2024-05-04 00:55:32			0	33635	0	0	0	17805	16420	154854	27248	961607	38453	106470	0	0	8139	775014	0	0
2024-05-04 00:56:32			0	33582	0	0	0	17799	16440	154922	27163	961605	38455	106468	0	0	8136	777609	0	0
2024-05-04 00:57:32			0	33586	0	0	0	17810	16420	154990	27493	961659	38442	106472	0	0	8136	777491	0	0
2024-05-04 00:58:32			0	33587	0	0	0	17815	16430	155034	27462	961702	38444	106474	0	0	8136	777398	0	0
2024-05-04 00:59:32			0	33575	0	0	0	17812	16440	155090	27473	961718	38455	106473	0	0	8135	777964	0	0
2024-05-04 01:00:32			0	33593	0	0	0	17823	16440	154926	27275	961771	38455	106477	0	0	8136	777053	0	0
2024-05-04 01:01:32			0	33604	0	0	0	17831	16440	154914	27336	961763	38455	106480	0	0	8136	776496	0	0
2024-05-04 01:02:32			0	33630	0	0	0	17831	16440	154798	27234	961771	38455	106480	0	0	8138	775183	0	0
2024-05-04 01:03:32			0	33614	0	0	0	17851	16450	154834	27164	961727	38466	106488	0	0	8137	775949	0	0
2024-05-04 01:04:32			0	33612	0	0	0	17851	16450	154886	27441	961788	38445	106488	0	0	8137	776050	0	0
2024-05-04 01:05:32			0	33588	0	0	0	17851	16450	154902	27550	961840	38467	106488	0	0	8135	777263	0	0
2024-05-04 01:06:32			0	33584	0	0	0	17846	16450	154962	27448	961779	38456	106486	0	0	8135	777466	0	0
2024-05-04 01:07:32			0	33585	0	0	0	17833	16450	154942	27536	961840	38456	106481	0	0	8135	777415	0	0
2024-05-04 01:08:32			0	33566	0	0	0	17846	16470	154973	27559	961804	38446	106486	0	0	8134	778293	0	0
2024-05-04 01:09:32			0	33552	0	0	0	17844	16470	155005	27287	961830	38446	106485	0	0	8133	779003	0	0
2024-05-04 01:10:32			0	33548	0	0	0	17841	16450	155089	27130	961788	38456	106484	0	0	8133	779289	0	0
2024-05-04 01:11:32			0	33571	0	0	0	17838	16460	154962	27372	961848	38456	106483	0	0	8134	778082	0	0
2024-05-04 01:12:32			0	33579	0	0	0	17838	16470	154926	27639	961812	38446	106483	0	0	8135	777635	0	0
2024-05-04 01:13:32			0	33582	0	0	0	17841	16460	154874	27675	961769	38467	106484	0	0	8135	777525	0	0
2024-05-04 01:14:32			0	33564	0	0	0	17833	16460	155037	27282	961769	38467	106481	0	0	8134	778437	0	0
2024-05-04 01:15:32			0	33568	0	0	0	17836	16460	154970	27582	961769	38456	106482	0	0	8134	778234	0	0
2024-05-04 01:16:32			0	33534	0	0	0	17823	16470	155057	27118	961838	38467	106477	0	0	8133	779915	0	0
2024-05-04 01:17:32			0	33517	0	0	0	17818	16450	155181	27329	961761	38456	106475	0	0	8132	780863	0	0
2024-05-04 01:18:32			0	33521	0	0	0	17820	16450	155077	27076	961761	38445	106476	0	0	8132	780660	0	0
2024-05-04 01:19:32			0	33549	0	0	0	17818	16450	155101	27353	961735	38445	106475	0	0	8133	779239	0	0
2024-05-04 01:20:32			0	33528	0	0	0	17818	16460	155101	27294	961822	38456	106475	0	0	8132	780262	0	0
2024-05-04 01:21:32			0	33517	0	0	0	17815	16440	155133	27201	961771	38455	106474	0	0	8132	780905	0	0
2024-05-04 01:22:32			0	33531	0	0	0	17815	16450	155061	27092	961735	38445	106474	0	0	8132	780152	0	0
2024-05-04 01:23:32			0	33499	0	0	0	17812	16450	155369	27616	961761	38456	106473	0	0	8131	781777	0	0
2024-05-04 01:24:32			0	33478	0	0	0	17805	16440	155365	27244	961718	38444	106470	0	0	8129	782888	0	0
2024-05-04 01:25:32			0	33489	0	0	0	17799	16440	155353	27317	961718	38444	106468	0	0	8130	782328	0	0
2024-05-04 01:26:32			0	33482	0	0	0	17797	16440	155329	27163	961692	38455	106467	0	0	8130	782684	0	0
2024-05-04 01:27:32			0	33468	0	0	0	17794	16440	155357	27403	961684	38433	106466	0	0	8129	783397	0	0
2024-05-04 01:28:32			0	33472	0	0	0	17792	16420	155397	27327	961678	38453	106465	0	0	8129	783278	0	0
2024-05-04 01:29:32			0	33475	0	0	0	17781	16430	155337	27180	961676	38465	106461	0	0	8130	783083	0	0
2024-05-04 01:30:32			0	33464	0	0	0	17784	16430	155433	27455	961747	38443	106462	0	0	8129	783643	0	0
2024-05-04 01:31:32			0	33481	0	0	0	17774	16410	155341	27260	961590	38453	106458	0	0	8130	782862	0	0
2024-05-04 01:32:32			0	33511	0	0	0	17761	16410	155241	27185	961643	38453	106453	0	0	8132	781336	0	0
2024-05-04 01:33:32			0	33537	0	0	0	17758	16430	155101	27703	961649	38444	106452	0	0	8134	779932	0	0
2024-05-04 01:34:32			0	33541	0	0	0	17761	16410	155129	27244	961432	38453	106453	0	0	8134	779813	0	0
2024-05-04 01:35:32			0	33524	0	0	0	17771	16400	155169	27270	961539	38451	106457	0	0	8133	780718	0	0
2024-05-04 01:36:32			0	33530	0	0	0	17781	16410	155233	27492	961582	38452	106461	0	0	8133	780371	0	0
2024-05-04 01:37:32			0	33498	0	0	0	17786	16410	155353	27512	961608	38441	106463	0	0	8131	781997	0	0
2024-05-04 01:38:32			0	33489	0	0	0	17779	16400	155333	27192	961566	38451	106460	0	0	8130	782497	0	0
2024-05-04 01:39:32			0	33487	0	0	0	17766	16400	155397	27518	961600	38451	106455	0	0	8130	782599	0	0
2024-05-04 01:40:32			0	33514	0	0	0	17755	16400	155257	27332	961547	38451	106451	0	0	8132	781226	0	0
2024-05-04 01:41:32			0	33510	0	0	0	17755	16400	155169	27455	961460	38451	106451	0	0	8132	781430	0	0
2024-05-04 01:42:32			0	33563	0	0	0	17748	16390	155009	27313	961531	38440	106448	0	0	8135	778782	0	0
2024-05-04 01:43:32			0	33548	0	0	0	17750	16390	155025	27640	961470	38450	106449	0	0	8134	779542	0	0
2024-05-04 01:44:32			0	33560	0	0	0	17750	16390	154929	27452	961531	38451	106449	0	0	8135	778934	0	0
2024-05-04 01:45:32			0	33578	0	0	0	17740	16390	154942	27383	961444	38450	106445	0	0	8136	778022	0	0
2024-05-04 01:46:32			0	33612	0	0	0	17737	16380	154922	27206	961462	38450	106444	0	0	8138	776344	0	0
2024-05-04 01:47:32			0	33638	0	0	0	17748	16380	154690	27142	961541	38450	106448	0	0	8140	775030	0	0
2024-05-04 01:48:32			0	33644	0	0	0	17737	16390	154582	27509	961444	38450	106444	0	0	8140	774686	0	0
2024-05-04 01:49:32			0	33666	0	0	0	17742	16380	154458	27405	961462	38427	106446	0	0	8141	773618	0	0
2024-05-04 01:50:32			0	33666	0	0	0	17732	16370	154430	27332	961446	38427	106442	0	0	8141	773660	0	0
2024-05-04 01:51:32			0	33665	0	0	0	17735	16380	154570	27291	961454	38438	106443	0	0	8141	773668	0	0
2024-05-04 01:52:32			0	33652	0	0	0	17737	16370	154482	27222	961393	38449	106444	0	0	8141	774366	0	0
2024-05-04 01:53:32			0	33658	0	0	0	17735	16380	154442	27467	961454	38438	106443	0	0	8141	774021	0	0
2024-05-04 01:54:32			0	33681	0	0	0	17735	16380	154474	27260	961454	38459	106443	0	0	8142	772862	0	0
2024-05-04 01:55:32			0	33695	0	0	0	17742	16370	154422	27647	961437	38438	106446	0	0	8143	772199	0	0
2024-05-04 01:56:32			0	33708	0	0	0	17735	16350	154362	27341	961360	38447	106443	0	0	8144	771628	0	0
2024-05-04 01:57:32			0	33694	0	0	0	17735	16360	154390	27261	961368	38447	106443	0	0	8143	772291	0	0
2024-05-04 01:58:32			0	33720	0	0	0	17735	16370	154226	27163	961411	38449	106443	0	0	8145	770941	0	0
2024-05-04 01:59:32			0	33716	0	0	0	17737	16370	154230	27301	961411	38449	106444	0	0	8144	771143	0	0
2024-05-04 02:00:32			0	33735	0	0	0	17740	16350	154202	27386	961360	38425	106445	0	0	8145	770271	0	0
2024-05-04 02:01:32			0	33731	0	0	0	17735	16360	154102	27390	961403	38437	106443	0	0	8145	770430	0	0
2024-05-04 02:02:32			0	33729	0	0	0	17729	16360	154090	27502	961368	38436	106441	0	0	8145	770531	0	0
2024-05-04 02:03:32			0	33741	0	0	0	17727	16360	154198	27362	961394	38436	106440	0	0	8146	769928	0	0
2024-05-04 02:04:32			0	33725	0	0	0	17724	16360	154314	27422	961394	38436	106439	0	0	8145	770732	0	0
2024-05-04 02:05:32			0	33711	0	0	0	17722	16350	154250	27343	961307	38436	106438	0	0	8144	771477	0	0
2024-05-04 02:06:32			0	33692	0	0	0	17719	16350	154190	27315	961334	38458	106437	0	0	8143	772433	0	0
2024-05-04 02:07:32			0	33692	0	0	0	17716	16350	154310	27476	961325	38436	106436	0	0	8143	772433	0	0
2024-05-04 02:08:32			0	33657	0	0	0	17716	16350	154602	27384	961325	38447	106436	0	0	8141	774197	0	0
2024-05-04 02:09:32			0	33636	0	0	0	17714	16350	154602	27897	961325	38447	106435	0	0	8140	775257	0	0
2024-05-04 02:10:32			0	33596	0	0	0	17709	16350	154826	27613	961378	38458	106433	0	0	8138	777279	0	0
2024-05-04 02:11:32			0	33612	0	0	0	17724	16340	154834	27431	961317	38446	106439	0	0	8138	776512	0	0
2024-05-04 02:12:32			0	33594	0	0	0	17716	16350	154862	27679	961299	38436	106436	0	0	8137	777380	0	0
2024-05-04 02:13:32			0	33604	0	0	0	17719	16340	154738	27687	961370	38446	106437	0	0	8138	776916	0	0
2024-05-04 02:14:32			0	33614	0	0	0	17724	16350	154842	27355	961360	38436	106439	0	0	8138	776369	0	0
2024-05-04 02:15:32			0	33586	0	0	0	17722	16340	154818	27725	961344	38435	106438	0	0	8137	777827	0	0
2024-05-04 02:16:32			0	33608	0	0	0	17716	16350	154694	27523	961246	38447	106436	0	0	8138	776672	0	0
2024-05-04 02:17:32			0	33576	0	0	0	17729	16350	154926	27627	961352	38436	106441	0	0	8136	778292	0	0
2024-05-04 02:18:32			0	33500	0	0	0	17727	16340	155309	27402	961396	38435	106440	0	0	8132	782191	0	0
2024-05-04 02:19:32			0	33443	0	0	0	17729	16350	155669	27310	961325	38436	106441	0	0	8128	785052	0	0
2024-05-04 02:20:32			0	33374	0	0	0	17732	16350	155829	27621	961352	38436	106442	0	0	8124	788579	0	0
2024-05-04 02:21:32			0	33304	0	0	0	17740	16350	156217	27459	961325	38447	106445	0	0	8120	792169	0	0
2024-05-04 02:22:32			0	33216	0	0	0	17735	16350	156561	27433	961404	38436	106443	0	0	8115	796702	0	0
2024-05-04 02:23:32			0	33126	0	0	0	17727	16340	157133	27563	961317	38446	106440	0	0	8109	801403	0	0
2024-05-04 02:24:32			0	33002	0	0	0	17732	16350	157633	27642	961334	38436	106442	0	0	8102	807814	0	0
2024-05-04 02:25:32			0	32936	0	0	0	17711	16350	157969	27384	961325	38425	106434	0	0	8098	811267	0	0
2024-05-04 02:26:32			0	32881	0	0	0	17714	16340	158157	27327	961344	38435	106435	0	0	8095	814198	0	0
2024-05-04 02:27:32			0	32869	0	0	0	17701	16340	158301	27400	961264	38435	106430	0	0	8094	814829	0	0
2024-05-04 02:28:32			0	32847	0	0	0	17714	16340	158349	27713	961238	38446	106435	0	0	8092	815987	0	0
2024-05-04 02:29:32			0	32838	0	0	0	17701	16330	158413	27395	961274	38445	106430	0	0	8092	816505	0	0
2024-05-04 02:30:32			0	32828	0	0	0	17701	16330	158445	27647	961222	38457	106430	0	0	8091	817032	0	0
2024-05-04 02:31:32			0	32846	0	0	0	17703	16330	158421	27301	961240	38445	106431	0	0	8093	816084	0	0
2024-05-04 02:32:32			0	32818	0	0	0	17690	16330	158349	27270	961187	38434	106426	0	0	8091	817560	0	0
2024-05-04 02:33:32			0	32853	0	0	0	17703	16330	158265	27457	961274	38434	106431	0	0	8093	815715	0	0
2024-05-04 02:34:32			0	32858	0	0	0	17693	16330	158293	27633	961222	38434	106427	0	0	8093	815452	0	0
2024-05-04 02:35:32			0	32865	0	0	0	17701	16320	158149	27149	961232	38445	106430	0	0	8094	815128	0	0
2024-05-04 02:36:32			0	32876	0	0	0	17685	16320	158257	27495	961258	38433	106424	0	0	8095	814549	0	0
2024-05-04 02:37:32			0	32884	0	0	0	17693	16320	158273	27407	961179	38433	106427	0	0	8095	814128	0	0
2024-05-04 02:38:32			0	32857	0	0	0	17693	16310	158285	27585	961189	38443	106427	0	0	8093	815593	0	0
2024-05-04 02:39:32			0	32869	0	0	0	17696	16310	158369	27547	961215	38454	106428	0	0	8094	814961	0	0
2024-05-04 02:40:32			0	32883	0	0	0	17703	16320	158329	27197	961205	38433	106431	0	0	8095	814181	0	0
2024-05-04 02:41:32			0	32900	0	0	0	17698	16320	158205	27561	961250	38433	106429	0	0	8096	813288	0	0
2024-05-04 02:42:32			0	32889	0	0	0	17701	16320	158213	27634	961224	38444	106430	0	0	8095	813866	0	0
2024-05-04 02:43:32			0	32875	0	0	0	17698	16320	158253	27590	961258	38433	106429	0	0	8094	814602	0	0
2024-05-04 02:44:32			0	32875	0	0	0	17696	16320	158369	27403	961250	38421	106428	0	0	8094	814602	0	0
2024-05-04 02:45:32			0	32895	0	0	0	17703	16320	158213	27559	961250	38433	106431	0	0	8095	813550	0	0
2024-05-04 02:46:32			0	32899	0	0	0	17719	16320	158189	27611	961250	38444	106437	0	0	8095	813340	0	0
2024-05-04 02:47:32			0	32903	0	0	0	17716	16310	158153	27298	961181	38432	106436	0	0	8096	813174	0	0
2024-05-04 02:48:32			0	32893	0	0	0	17711	16320	158277	27355	961284	38445	106434	0	0	8095	813655	0	0
2024-05-04 02:49:32			0	32868	0	0	0	17722	16320	158261	27308	961232	38466	106438	0	0	8093	814970	0	0
2024-05-04 02:50:32			0	32866	0	0	0	17727	16300	158305	27597	961252	38432	106440	0	0	8093	815163	0	0
2024-05-04 02:51:32			0	32857	0	0	0	17722	16320	158349	27885	961224	38433	106438	0	0	8093	815549	0	0
2024-05-04 02:52:32			0	32879	0	0	0	17722	16320	158329	27229	961224	38444	106438	0	0	8094	814391	0	0
2024-05-04 02:53:32			0	32865	0	0	0	17716	16310	158349	27609	961286	38432	106436	0	0	8093	815172	0	0
2024-05-04 02:54:32			0	32887	0	0	0	17719	16320	158325	27729	961224	38444	106437	0	0	8095	813971	0	0
2024-05-04 02:55:32			0	32880	0	0	0	17703	16320	158341	27331	961284	38456	106431	0	0	8095	814339	0	0
2024-05-04 02:56:32			0	32886	0	0	0	17703	16310	158261	27718	961268	38432	106431	0	0	8095	814067	0	0
2024-05-04 02:57:32			0	32893	0	0	0	17706	16320	158393	27524	961258	38445	106432	0	0	8095	813655	0	0
2024-05-04 02:58:32			0	32876	0	0	0	17706	16320	158429	27507	961311	38433	106432	0	0	8094	814549	0	0
2024-05-04 02:59:32			0	32857	0	0	0	17696	16320	158401	27524	961258	38445	106428	0	0	8093	815549	0	0
2024-05-04 03:00:32			0	32871	0	0	0	17706	16320	158401	27388	961258	38445	106432	0	0	8094	814812	0	0
2024-05-04 03:01:32			0	32879	0	0	0	17706	16330	158437	27216	961274	38434	106432	0	0	8094	814347	0	0
2024-05-04 03:02:32			0	32899	0	0	0	17701	16320	158349	27434	961258	38433	106430	0	0	8096	813340	0	0
2024-05-04 03:03:32			0	32877	0	0	0	17701	16320	158393	27466	961232	38433	106430	0	0	8094	814496	0	0
2024-05-04 03:04:32			0	32872	0	0	0	17703	16310	158313	27166	961215	38432	106431	0	0	8094	814803	0	0
2024-05-04 03:05:32			0	32871	0	0	0	17693	16320	158393	27542	961179	38433	106427	0	0	8094	814812	0	0
2024-05-04 03:06:32			0	32888	0	0	0	17706	16320	158365	27561	961258	38433	106432	0	0	8095	813918	0	0
2024-05-04 03:07:32			0	32886	0	0	0	17688	16320	158373	27680	961224	38455	106425	0	0	8095	814023	0	0
2024-05-04 03:08:32			0	32876	0	0	0	17690	16320	158413	27346	961224	38433	106426	0	0	8095	814549	0	0
2024-05-04 03:09:32			0	32887	0	0	0	17696	16310	158337	27244	961189	38443	106428	0	0	8095	814015	0	0
2024-05-04 03:10:32			0	32886	0	0	0	17690	16310	158329	27476	961242	38443	106426	0	0	8095	814067	0	0
2024-05-04 03:11:32			0	32868	0	0	0	17698	16300	158381	27274	961173	38432	106429	0	0	8094	815058	0	0
2024-05-04 03:12:32			0	32852	0	0	0	17698	16310	158361	27599	961181	38454	106429	0	0	8093	815856	0	0
2024-05-04 03:13:32			0	32869	0	0	0	17693	16300	158561	27530	961225	38432	106427	0	0	8094	815005	0	0
2024-05-04 03:14:32			0	32858	0	0	0	17693	16310	158509	27376	961215	38432	106427	0	0	8093	815540	0	0
2024-05-04 03:15:32			0	32859	0	0	0	17685	16310	158513	27455	961189	38443	106424	0	0	8094	815487	0	0
2024-05-04 03:16:32			0	32846	0	0	0	17690	16310	158501	27331	961242	38421	106426	0	0	8093	816172	0	0
2024-05-04 03:17:32			0	32850	0	0	0	17670	16310	158605	27436	961234	38443	106418	0	0	8093	815961	0	0
2024-05-04 03:18:32			0	32852	0	0	0	17683	16310	158477	27325	961189	38432	106423	0	0	8093	815856	0	0
2024-05-04 03:19:32			0	32862	0	0	0	17675	16290	158453	27443	961235	38430	106420	0	0	8094	815418	0	0
2024-05-04 03:20:32			0	32852	0	0	0	17683	16300	158513	27547	961225	38443	106423	0	0	8093	815900	0	0
2024-05-04 03:21:32			0	32878	0	0	0	17683	16300	158501	27666	961191	38431	106423	0	0	8095	814532	0	0
2024-05-04 03:22:32			0	32839	0	0	0	17677	16300	158553	27471	961164	38431	106421	0	0	8092	816585	0	0
2024-05-04 03:23:32			0	32844	0	0	0	17683	16300	158517	27594	961164	38442	106423	0	0	8093	816321	0	0
2024-05-04 03:24:32			0	32852	0	0	0	17690	16300	158565	27471	961164	38442	106426	0	0	8093	815900	0	0
2024-05-04 03:25:32			0	32847	0	0	0	17677	16300	158601	27483	961146	38443	106421	0	0	8093	816164	0	0
2024-05-04 03:26:32			0	32835	0	0	0	17664	16300	158669	27788	961164	38431	106416	0	0	8092	816796	0	0
2024-05-04 03:27:32			0	32837	0	0	0	17675	16300	158701	27336	961199	38432	106420	0	0	8092	816690	0	0
2024-05-04 03:28:32			0	32849	0	0	0	17675	16300	158541	27144	961138	38442	106420	0	0	8093	816058	0	0
2024-05-04 03:29:32			0	32876	0	0	0	17677	16290	158465	27396	961130	38419	106421	0	0	8095	814681	0	0
2024-05-04 03:30:32			0	32880	0	0	0	17677	16290	158393	27003	961148	38441	106421	0	0	8095	814471	0	0
2024-05-04 03:31:32			0	32881	0	0	0	17683	16290	158377	27081	961122	38430	106423	0	0	8095	814418	0	0
2024-05-04 03:32:32			0	32863	0	0	0	17677	16300	158397	27168	961164	38442	106421	0	0	8094	815321	0	0
2024-05-04 03:33:32			0	32885	0	0	0	17685	16300	158505	27045	961164	38431	106424	0	0	8095	814164	0	0
2024-05-04 03:34:32			0	32871	0	0	0	17685	16300	158561	27090	961173	38443	106424	0	0	8094	814900	0	0
2024-05-04 03:35:32			0	32866	0	0	0	17680	16290	158509	27293	961156	38419	106422	0	0	8094	815207	0	0
2024-05-04 03:36:32			0	32847	0	0	0	17683	16300	158565	27357	961173	38443	106423	0	0	8093	816164	0	0
2024-05-04 03:37:32			0	32831	0	0	0	17677	16290	158641	27130	961183	38430	106421	0	0	8092	817051	0	0
2024-05-04 03:38:32			0	32821	0	0	0	17677	16300	158661	27336	961164	38442	106421	0	0	8091	817534	0	0
2024-05-04 03:39:32			0	32816	0	0	0	17675	16290	158677	27448	961130	38441	106420	0	0	8091	817842	0	0
2024-05-04 03:40:32			0	32804	0	0	0	17677	16300	158733	27421	961217	38442	106421	0	0	8090	818431	0	0
2024-05-04 03:41:32			0	32823	0	0	0	17683	16300	158697	27450	961112	38431	106423	0	0	8091	817429	0	0
2024-05-04 03:42:32			0	32815	0	0	0	17675	16290	158721	27455	961130	38430	106420	0	0	8091	817895	0	0
2024-05-04 03:43:32			0	32816	0	0	0	17670	16300	158681	27348	961120	38443	106418	0	0	8091	817798	0	0
2024-05-04 03:44:32			0	32820	0	0	0	17675	16290	158741	27448	961069	38452	106420	0	0	8091	817631	0	0
2024-05-04 03:45:32			0	32799	0	0	0	17670	16290	158709	27417	961104	38430	106418	0	0	8090	818740	0	0
2024-05-04 03:46:32			0	32818	0	0	0	17670	16290	158709	27230	961156	38430	106418	0	0	8091	817736	0	0
2024-05-04 03:47:32			0	32836	0	0	0	17657	16290	158833	27258	961104	38441	106413	0	0	8092	816787	0	0
2024-05-04 03:48:32			0	32804	0	0	0	17672	16290	158785	27296	961122	38419	106419	0	0	8090	818475	0	0
2024-05-04 03:49:32			0	32834	0	0	0	17667	16280	158785	27213	961140	38430	106417	0	0	8092	816937	0	0
2024-05-04 03:50:32			0	32834	0	0	0	17659	16290	158681	27133	961156	38441	106414	0	0	8092	816893	0	0
2024-05-04 03:51:32			0	32846	0	0	0	17651	16280	158617	27504	961105	38418	106411	0	0	8093	816304	0	0
2024-05-04 03:52:32			0	32843	0	0	0	17646	16280	158577	27294	961105	38440	106409	0	0	8093	816462	0	0
2024-05-04 03:53:32			0	32869	0	0	0	17612	16280	158513	27557	961053	38429	106396	0	0	8095	815093	0	0
2024-05-04 03:54:32			0	32866	0	0	0	17602	16270	158477	27189	961044	38439	106392	0	0	8095	815295	0	0
2024-05-04 03:55:32			0	32907	0	0	0	17594	16260	158341	27166	960941	38427	106389	0	0	8098	813184	0	0
2024-05-04 03:56:32			0	32946	0	0	0	17584	16260	158109	27415	960967	38416	106385	0	0	8100	811138	0	0
2024-05-04 03:57:32			0	32989	0	0	0	17579	16250	157993	27345	960898	38426	106383	0	0	8103	808930	0	0
2024-05-04 03:58:32			0	33037	0	0	0	17584	16240	157709	27100	960863	38437	106385	0	0	8106	806467	0	0
2024-05-04 03:59:32			0	33074	0	0	0	17584	16240	157577	27090	960863	38426	106385	0	0	8108	804539	0	0
2024-05-04 04:00:32			0	33076	0	0	0	17576	16220	157449	27346	960831	38424	106382	0	0	8108	804522	0	0
2024-05-04 04:01:32			0	33106	0	0	0	17561	16230	157401	27429	960786	38414	106376	0	0	8110	802918	0	0
2024-05-04 04:02:32			0	33114	0	0	0	17561	16220	157309	27322	960796	38424	106376	0	0	8111	802546	0	0
2024-05-04 04:03:32			0	33113	0	0	0	17561	16230	157341	27327	960760	38424	106376	0	0	8111	802555	0	0
2024-05-04 04:04:32			0	33104	0	0	0	17561	16220	157333	27291	960743	38424	106376	0	0	8110	803066	0	0
2024-05-04 04:05:32			0	33147	0	0	0	17550	16210	157337	27183	960735	38423	106372	0	0	8113	800877	0	0
2024-05-04 04:06:32			0	33157	0	0	0	17555	16210	157249	27289	960727	38412	106374	0	0	8113	800358	0	0
2024-05-04 04:07:32			0	33128	0	0	0	17542	16200	157261	27315	960719	38422	106369	0	0	8112	801906	0	0
2024-05-04 04:08:32			0	33126	0	0	0	17537	16200	157413	27313	960711	38422	106367	0	0	8112	802010	0	0
2024-05-04 04:09:32			0	33104	0	0	0	17537	16200	157393	27024	960632	38412	106367	0	0	8110	803153	0	0
2024-05-04 04:10:32			0	33102	0	0	0	17527	16180	157437	26986	960660	38421	106363	0	0	8110	803343	0	0
2024-05-04 04:11:32			0	33103	0	0	0	17529	16180	157477	27265	960633	38421	106364	0	0	8110	803291	0	0
2024-05-04 04:12:32			0	33074	0	0	0	17532	16180	157513	27116	960678	38420	106365	0	0	8109	804800	0	0
2024-05-04 04:13:32			0	33095	0	0	0	17532	16170	157525	27324	960696	38410	106365	0	0	8110	803751	0	0
2024-05-04 04:14:32			0	33078	0	0	0	17548	16180	157569	27568	960625	38410	106371	0	0	8109	804592	0	0
2024-05-04 04:15:32			0	33080	0	0	0	17540	16170	157461	27478	960617	38420	106368	0	0	8109	804531	0	0
2024-05-04 04:16:32			0	33101	0	0	0	17545	16170	157545	27528	960670	38431	106370	0	0	8110	803438	0	0
2024-05-04 04:17:32			0	33100	0	0	0	17550	16160	157473	27500	960601	38418	106372	0	0	8110	803534	0	0
2024-05-04 04:18:32			0	33092	0	0	0	17550	16170	157349	27332	960688	38419	106372	0	0	8109	803907	0	0
2024-05-04 04:19:32			0	33110	0	0	0	17545	16170	157385	27521	960662	38419	106370	0	0	8110	802971	0	0
2024-05-04 04:20:32			0	33115	0	0	0	17553	16170	157373	27312	960591	38431	106373	0	0	8111	802711	0	0
2024-05-04 04:21:32			0	33123	0	0	0	17545	16170	157377	27112	960643	38410	106370	0	0	8111	802295	0	0
2024-05-04 04:22:32			0	33120	0	0	0	17548	16170	157369	27253	960688	38419	106371	0	0	8111	802451	0	0
2024-05-04 04:23:32			0	33134	0	0	0	17550	16160	157301	27192	960601	38397	106372	0	0	8112	801768	0	0
2024-05-04 04:24:32			0	33121	0	0	0	17548	16170	157261	27562	960662	38409	106371	0	0	8111	802399	0	0
2024-05-04 04:25:32			0	33106	0	0	0	17548	16150	157405	27533	960584	38429	106371	0	0	8110	803265	0	0
2024-05-04 04:26:32			0	33106	0	0	0	17545	16170	157365	27485	960609	38419	106370	0	0	8110	803179	0	0
2024-05-04 04:27:32			0	33123	0	0	0	17550	16170	157381	27609	960688	38430	106372	0	0	8111	802295	0	0
2024-05-04 04:28:32			0	33127	0	0	0	17540	16160	157417	27395	960601	38418	106368	0	0	8112	802131	0	0
2024-05-04 04:29:32			0	33132	0	0	0	17553	16160	157357	27459	960627	38429	106373	0	0	8112	801871	0	0
2024-05-04 04:30:32			0	33132	0	0	0	17555	16170	157437	27194	960662	38409	106374	0	0	8112	801828	0	0
2024-05-04 04:31:32			0	33120	0	0	0	17550	16170	157285	27384	960609	38430	106372	0	0	8111	802451	0	0
2024-05-04 04:32:32			0	33138	0	0	0	17550	16170	157265	27215	960582	38419	106372	0	0	8112	801517	0	0
2024-05-04 04:33:32			0	33155	0	0	0	17553	16160	157253	27369	960601	38429	106373	0	0	8113	800678	0	0
2024-05-04 04:34:32			0	33132	0	0	0	17555	16160	157361	27488	960653	38418	106374	0	0	8112	801871	0	0
2024-05-04 04:35:32			0	33128	0	0	0	17558	16170	157405	27639	960609	38419	106375	0	0	8111	802036	0	0
2024-05-04 04:36:32			0	33143	0	0	0	17558	16170	157193	27492	960609	38430	106375	0	0	8112	801257	0	0
2024-05-04 04:37:32			0	33138	0	0	0	17555	16160	157261	27916	960627	38429	106374	0	0	8112	801560	0	0
2024-05-04 04:38:32			0	33155	0	0	0	17555	16160	157217	27704	960653	38418	106374	0	0	8113	800678	0	0
2024-05-04 04:39:32			0	33176	0	0	0	17548	16170	157153	27175	960670	38420	106371	0	0	8114	799547	0	0
2024-05-04 04:40:32			0	33168	0	0	0	17545	16170	157129	27218	960617	38420	106370	0	0	8114	799961	0	0
2024-05-04 04:41:32			0	33168	0	0	0	17535	16170	157069	27744	960609	38409	106366	0	0	8114	799961	0	0
2024-05-04 04:42:32			0	33166	0	0	0	17537	16170	157101	27393	960635	38419	106367	0	0	8114	800064	0	0
2024-05-04 04:43:32			0	33150	0	0	0	17540	16160	157141	27530	960601	38429	106368	0	0	8113	800937	0	0
2024-05-04 04:44:32			0	33122	0	0	0	17542	16170	157225	27481	960609	38430	106369	0	0	8111	802347	0	0
2024-05-04 04:45:32			0	33117	0	0	0	17548	16160	157341	27312	960574	38418	106371	0	0	8111	802650	0	0
2024-05-04 04:46:32			0	33090	0	0	0	17550	16160	157401	27369	960680	38429	106372	0	0	8109	804054	0	0
2024-05-04 04:47:32			0	33095	0	0	0	17542	16150	157465	27459	960619	38429	106369	0	0	8110	803837	0	0
2024-05-04 04:48:32			0	33124	0	0	0	17537	16170	157277	27422	960609	38419	106367	0	0	8111	802243	0	0
2024-05-04 04:49:32			0	33107	0	0	0	17550	16160	157353	27312	960627	38429	106372	0	0	8110	803170	0	0
2024-05-04 04:50:32			0	33106	0	0	0	17550	16160	157397	27809	960601	38429	106372	0	0	8110	803222	0	0
2024-05-04 04:51:32			0	33087	0	0	0	17553	16170	157549	27234	960617	38431	106373	0	0	8109	804167	0	0
2024-05-04 04:52:32			0	33095	0	0	0	17561	16150	157401	27706	960611	38418	106376	0	0	8109	803837	0	0
2024-05-04 04:53:32			0	33094	0	0	0	17553	16150	157409	27543	960672	38418	106373	0	0	8109	803889	0	0
2024-05-04 04:54:32			0	33108	0	0	0	17553	16160	157365	27774	960653	38418	106373	0	0	8110	803118	0	0
2024-05-04 04:55:32			0	33124	0	0	0	17558	16170	157297	27300	960591	38420	106375	0	0	8111	802243	0	0
2024-05-04 04:56:32			0	33131	0	0	0	17537	16170	157225	27483	960643	38420	106367	0	0	8112	801880	0	0
2024-05-04 04:57:32			0	33132	0	0	0	17550	16170	157165	27660	960662	38419	106372	0	0	8112	801828	0	0
2024-05-04 04:58:32			0	33142	0	0	0	17555	16160	157093	27457	960574	38440	106374	0	0	8112	801352	0	0
2024-05-04 04:59:32			0	33162	0	0	0	17553	16150	157145	27652	960619	38418	106373	0	0	8113	800358	0	0
2024-05-04 05:00:32			0	33141	0	0	0	17548	16170	157093	27528	960662	38430	106371	0	0	8112	801361	0	0
2024-05-04 05:01:32			0	33159	0	0	0	17548	16170	157173	27511	960688	38419	106371	0	0	8113	800427	0	0
2024-05-04 05:02:32			0	33150	0	0	0	17537	16160	157097	27353	960627	38418	106367	0	0	8113	800937	0	0
2024-05-04 05:03:32			0	33154	0	0	0	17535	16160	157117	27748	960653	38408	106366	0	0	8113	800730	0	0
2024-05-04 05:04:32			0	33138	0	0	0	17540	16180	157149	27625	960652	38420	106368	0	0	8112	801473	0	0
2024-05-04 05:05:32			0	33114	0	0	0	17535	16160	157293	27216	960653	38418	106366	0	0	8111	802806	0	0
2024-05-04 05:06:32			0	33116	0	0	0	17540	16160	157397	27746	960601	38418	106368	0	0	8111	802702	0	0
2024-05-04 05:07:32			0	33126	0	0	0	17542	16160	157317	27630	960680	38418	106369	0	0	8111	802183	0	0
2024-05-04 05:08:32			0	33113	0	0	0	17542	16150	157341	27492	960592	38429	106369	0	0	8111	802902	0	0
2024-05-04 05:09:32			0	33098	0	0	0	17545	16150	157357	27533	960619	38429	106370	0	0	8110	803681	0	0
2024-05-04 05:10:32			0	33090	0	0	0	17532	16160	157529	27395	960548	38418	106365	0	0	8109	804054	0	0
2024-05-04 05:11:32			0	33102	0	0	0	17542	16150	157425	27829	960645	38408	106369	0	0	8110	803473	0	0
2024-05-04 05:12:32			0	33110	0	0	0	17540	16150	157485	27386	960566	38418	106368	0	0	8110	803057	0	0
2024-05-04 05:13:32			0	33081	0	0	0	17540	16170	157469	27531	960662	38409	106368	0	0	8109	804479	0	0
2024-05-04 05:14:32			0	33078	0	0	0	17540	16150	157533	27478	960619	38418	106368	0	0	8109	804722	0	0
2024-05-04 05:15:32			0	33071	0	0	0	17542	16150	157533	27336	960611	38429	106369	0	0	8108	805087	0	0
2024-05-04 05:16:32			0	33074	0	0	0	17535	16160	157549	27701	960680	38418	106366	0	0	8108	804887	0	0
2024-05-04 05:17:32			0	33065	0	0	0	17535	16150	157489	27592	960698	38418	106366	0	0	8108	805399	0	0
2024-05-04 05:18:32			0	33065	0	0	0	17537	16150	157601	27547	960592	38429	106367	0	0	8108	805399	0	0
2024-05-04 05:19:32			0	33064	0	0	0	17550	16160	157617	27457	960601	38429	106372	0	0	8108	805408	0	0
2024-05-04 05:20:32			0	33058	0	0	0	17545	16160	157625	27654	960601	38418	106370	0	0	8107	805721	0	0
2024-05-04 05:21:32			0	33058	0	0	0	17535	16150	157589	27237	960532	38408	106366	0	0	8107	805764	0	0
2024-05-04 05:22:32			0	33035	0	0	0	17540	16150	157589	27481	960566	38429	106368	0	0	8106	806964	0	0
2024-05-04 05:23:32			0	33030	0	0	0	17548	16160	157641	27516	960574	38429	106371	0	0	8106	807181	0	0
2024-05-04 05:24:32			0	33048	0	0	0	17542	16150	157689	27367	960637	38429	106369	0	0	8107	806285	0	0
2024-05-04 05:25:32			0	33046	0	0	0	17537	16150	157793	27760	960645	38418	106367	0	0	8107	806390	0	0
2024-05-04 05:26:32			0	33028	0	0	0	17537	16150	157665	27518	960645	38429	106367	0	0	8106	807329	0	0
2024-05-04 05:27:32			0	33042	0	0	0	17550	16160	157681	27419	960627	38429	106372	0	0	8106	806555	0	0
2024-05-04 05:28:32			0	33044	0	0	0	17555	16150	157717	27341	960584	38418	106374	0	0	8106	806494	0	0
2024-05-04 05:29:32			0	33035	0	0	0	17555	16150	157677	27329	960566	38429	106374	0	0	8106	806964	0	0
2024-05-04 05:30:32			0	33031	0	0	0	17587	16150	157725	27512	960672	38429	106386	0	0	8105	807173	0	0
2024-05-04 05:31:32			0	33027	0	0	0	17597	16150	157849	27452	960645	38418	106390	0	0	8104	807381	0	0
2024-05-04 05:32:32			0	33010	0	0	0	17592	16170	157765	27488	960714	38419	106388	0	0	8104	808182	0	0
2024-05-04 05:33:32			0	33003	0	0	0	17581	16150	157833	27279	960645	38429	106384	0	0	8103	808635	0	0
2024-05-04 05:34:32			0	33035	0	0	0	17592	16170	157689	27284	960722	38420	106388	0	0	8105	806877	0	0
2024-05-04 05:35:32			0	33065	0	0	0	17592	16170	157513	27419	960741	38409	106388	0	0	8107	805312	0	0
2024-05-04 05:36:32			0	33101	0	0	0	17592	16180	157489	27509	960810	38442	106388	0	0	8109	803395	0	0
2024-05-04 05:37:32			0	33116	0	0	0	17592	16170	157365	27415	960749	38442	106388	0	0	8110	802659	0	0
2024-05-04 05:38:32			0	33111	0	0	0	17605	16180	157273	27350	960739	38432	106393	0	0	8110	802875	0	0
2024-05-04 05:39:32			0	33092	0	0	0	17599	16180	157325	27274	960791	38443	106391	0	0	8109	803863	0	0
2024-05-04 05:40:32			0	33107	0	0	0	17602	16170	157381	27109	960775	38431	106392	0	0	8109	803127	0	0
2024-05-04 05:41:32			0	33106	0	0	0	17607	16200	157293	27528	960790	38434	106394	0	0	8109	803049	0	0
2024-05-04 05:42:32			0	33114	0	0	0	17605	16190	157205	27260	960773	38421	106393	0	0	8110	802676	0	0
2024-05-04 05:43:32			0	33119	0	0	0	17605	16190	157245	27789	960808	38422	106393	0	0	8110	802416	0	0
2024-05-04 05:44:32			0	33085	0	0	0	17607	16190	157445	27317	960781	38422	106394	0	0	8108	804184	0	0
2024-05-04 05:45:32			0	33107	0	0	0	17605	16190	157409	27265	960834	38444	106393	0	0	8109	803040	0	0
2024-05-04 05:46:32			0	33105	0	0	0	17610	16190	157369	27353	960755	38433	106395	0	0	8109	803144	0	0
2024-05-04 05:47:32			0	33102	0	0	0	17623	16210	157321	27488	960867	38445	106400	0	0	8109	803213	0	0
2024-05-04 05:48:32			0	33107	0	0	0	17625	16200	157225	27324	960903	38422	106401	0	0	8109	802997	0	0
2024-05-04 05:49:32			0	33119	0	0	0	17623	16200	157225	27758	960851	38445	106400	0	0	8110	802373	0	0
2024-05-04 05:50:32			0	33100	0	0	0	17623	16200	157369	27647	960824	38422	106400	0	0	8109	803360	0	0
2024-05-04 05:51:32			0	33075	0	0	0	17631	16200	157469	27249	960842	38445	106403	0	0	8107	804661	0	0
2024-05-04 05:52:32			0	33077	0	0	0	17628	16210	157537	27611	960938	38445	106402	0	0	8107	804514	0	0
2024-05-04 05:53:32			0	33062	0	0	0	17615	16210	157433	27409	960885	38434	106397	0	0	8107	805295	0	0
2024-05-04 05:54:32			0	33072	0	0	0	17594	16220	157469	27376	960901	38424	106389	0	0	8108	804730	0	0
2024-05-04 05:55:32			0	33060	0	0	0	17602	16210	157569	27414	960832	38434	106392	0	0	8107	805399	0	0
2024-05-04 05:56:32			0	33055	0	0	0	17592	16220	157569	27729	960883	38424	106388	0	0	8107	805616	0	0
2024-05-04 05:57:32			0	33048	0	0	0	17599	16210	157589	27765	960867	38445	106391	0	0	8106	806024	0	0
2024-05-04 05:58:32			0	33057	0	0	0	17584	16220	157465	27435	960822	38435	106385	0	0	8107	805512	0	0
2024-05-04 05:59:32			0	33063	0	0	0	17584	16200	157465	27333	960824	38422	106385	0	0	8107	805286	0	0
2024-05-04 06:00:32			0	33091	0	0	0	17579	16200	157417	27234	960842	38422	106383	0	0	8109	803829	0	0
2024-05-04 06:01:32			0	33091	0	0	0	17579	16200	157233	27542	960824	38422	106383	0	0	8109	803829	0	0
2024-05-04 06:02:32			0	33107	0	0	0	17581	16210	157233	27776	960806	38434	106384	0	0	8110	802953	0	0
2024-05-04 06:03:32			0	33117	0	0	0	17587	16200	157061	27417	960737	38422	106386	0	0	8110	802477	0	0
2024-05-04 06:04:32			0	33134	0	0	0	17581	16190	157197	27310	960808	38422	106384	0	0	8111	801638	0	0
2024-05-04 06:05:32			0	33127	0	0	0	17587	16200	157109	27421	960851	38434	106386	0	0	8111	801958	0	0
2024-05-04 06:06:32			0	33150	0	0	0	17561	16190	157061	27457	960702	38444	106376	0	0	8113	800807	0	0
2024-05-04 06:07:32			0	33165	0	0	0	17553	16200	156969	27353	960745	38412	106373	0	0	8114	799987	0	0
2024-05-04 06:08:32			0	33146	0	0	0	17553	16190	157053	27412	960755	38433	106373	0	0	8113	801015	0	0
2024-05-04 06:09:32			0	33137	0	0	0	17550	16180	157077	27443	960686	38421	106372	0	0	8112	801525	0	0
2024-05-04 06:10:32			0	33173	0	0	0	17548	16190	156957	27755	960694	38432	106371	0	0	8114	799615	0	0
2024-05-04 06:11:32			0	33199	0	0	0	17550	16180	156897	27518	960731	38431	106372	0	0	8116	798313	0	0
2024-05-04 06:12:32			0	33220	0	0	0	17553	16170	156837	27559	960670	38410	106373	0	0	8117	797270	0	0
2024-05-04 06:13:32			0	33226	0	0	0	17558	16180	156629	27313	960652	38420	106375	0	0	8117	796917	0	0
2024-05-04 06:14:32			0	33261	0	0	0	17558	16180	156441	27187	960678	38420	106375	0	0	8119	795111	0	0
2024-05-04 06:15:32			0	33273	0	0	0	17561	16170	156425	27459	960696	38431	106376	0	0	8120	794536	0	0
2024-05-04 06:16:32			0	33263	0	0	0	17561	16180	156461	27661	960652	38420	106376	0	0	8119	795008	0	0
2024-05-04 06:17:32			0	33242	0	0	0	17568	16170	156485	27388	960722	38420	106379	0	0	8118	796134	0	0
2024-05-04 06:18:32			0	33257	0	0	0	17558	16180	156429	27428	960731	38431	106375	0	0	8119	795318	0	0
2024-05-04 06:19:32			0	33266	0	0	0	17566	16180	156565	27421	960704	38431	106378	0	0	8120	794854	0	0
2024-05-04 06:20:32			0	33269	0	0	0	17563	16180	156541	27376	960791	38411	106377	0	0	8120	794699	0	0
2024-05-04 06:21:32			0	33268	0	0	0	17558	16170	156481	27429	960722	38410	106375	0	0	8120	794793	0	0
2024-05-04 06:22:32			0	33277	0	0	0	17555	16180	156389	27680	960731	38420	106374	0	0	8120	794287	0	0
2024-05-04 06:23:32			0	33282	0	0	0	17553	16170	156381	27334	960722	38420	106373	0	0	8121	794072	0	0
2024-05-04 06:24:32			0	33263	0	0	0	17548	16170	156433	27246	960696	38431	106371	0	0	8120	795051	0	0
2024-05-04 06:25:32			0	33244	0	0	0	17542	16170	156545	27364	960688	38430	106369	0	0	8119	796031	0	0
2024-05-04 06:26:32			0	33246	0	0	0	17548	16170	156661	27362	960670	38431	106371	0	0	8119	795928	0	0
2024-05-04 06:27:32			0	33231	0	0	0	17542	16170	156709	27440	960749	38420	106369	0	0	8118	796702	0	0
2024-05-04 06:28:32			0	33207	0	0	0	17540	16170	156705	27272	960643	38431	106368	0	0	8116	797942	0	0
2024-05-04 06:29:32			0	33197	0	0	0	17545	16170	156789	27248	960662	38419	106370	0	0	8116	798460	0	0
2024-05-04 06:30:32			0	33212	0	0	0	17548	16170	156769	27585	960696	38420	106371	0	0	8117	797684	0	0
2024-05-04 06:31:32			0	33228	0	0	0	17542	16170	156573	27537	960741	38419	106369	0	0	8118	796857	0	0
2024-05-04 06:32:32			0	33272	0	0	0	17548	16160	156513	27526	960653	38418	106371	0	0	8120	794630	0	0
2024-05-04 06:33:32			0	33305	0	0	0	17553	16160	156341	27552	960653	38429	106373	0	0	8122	792931	0	0
2024-05-04 06:34:32			0	33305	0	0	0	17548	16160	156217	27736	960680	38418	106371	0	0	8122	792931	0	0
2024-05-04 06:35:32			0	33338	0	0	0	17545	16170	156197	27500	960662	38430	106370	0	0	8124	791192	0	0
2024-05-04 06:36:32			0	33353	0	0	0	17550	16170	156057	27517	960662	38430	106372	0	0	8125	790423	0	0
2024-05-04 06:37:32			0	33388	0	0	0	17550	16170	155949	27523	960696	38431	106372	0	0	8127	788629	0	0
2024-05-04 06:38:32			0	33442	0	0	0	17555	16170	155813	27272	960741	38419	106374	0	0	8130	785867	0	0
2024-05-04 06:39:32			0	33480	0	0	0	17558	16170	155517	27585	960688	38419	106375	0	0	8132	783929	0	0
2024-05-04 06:40:32			0	33473	0	0	0	17558	16160	155453	27732	960653	38429	106375	0	0	8132	784328	0	0
2024-05-04 06:41:32			0	33473	0	0	0	17561	16150	155473	27175	960637	38429	106376	0	0	8132	784370	0	0
2024-05-04 06:42:32			0	33451	0	0	0	17563	16170	155625	27355	960670	38431	106377	0	0	8131	785408	0	0
2024-05-04 06:43:32			0	33476	0	0	0	17558	16170	155561	27397	960662	38419	106375	0	0	8132	784133	0	0
2024-05-04 06:44:32			0	33483	0	0	0	17566	16170	155473	27296	960741	38419	106378	0	0	8132	783776	0	0
2024-05-04 06:45:32			0	33498	0	0	0	17558	16160	155605	27417	960653	38418	106375	0	0	8133	783054	0	0
2024-05-04 06:46:32			0	33504	0	0	0	17566	16170	155377	27279	960714	38419	106378	0	0	8134	782706	0	0
2024-05-04 06:47:32			0	33520	0	0	0	17555	16180	155269	27590	960757	38431	106374	0	0	8135	781850	0	0
2024-05-04 06:48:32			0	33513	0	0	0	17550	16160	155369	27497	960732	38418	106372	0	0	8134	782291	0	0
2024-05-04 06:49:32			0	33505	0	0	0	17540	16170	155285	27628	960662	38430	106368	0	0	8134	782655	0	0
2024-05-04 06:50:32			0	33498	0	0	0	17527	16170	155409	27407	960643	38420	106363	0	0	8134	783012	0	0
2024-05-04 06:51:32			0	33482	0	0	0	17519	16170	155429	27533	960635	38419	106360	0	0	8133	783827	0	0
2024-05-04 06:52:32			0	33500	0	0	0	17516	16150	155401	27606	960619	38418	106359	0	0	8134	782995	0	0
2024-05-04 06:53:32			0	33496	0	0	0	17511	16150	155317	27647	960611	38429	106357	0	0	8134	783198	0	0
2024-05-04 06:54:32			0	33479	0	0	0	17516	16150	155445	27365	960592	38429	106359	0	0	8133	784064	0	0
2024-05-04 06:55:32			0	33478	0	0	0	17514	16150	155573	27613	960558	38429	106358	0	0	8133	784115	0	0
2024-05-04 06:56:32			0	33474	0	0	0	17511	16150	155501	27582	960611	38429	106357	0	0	8133	784319	0	0
2024-05-04 06:57:32			0	33456	0	0	0	17524	16130	155545	27443	960586	38428	106362	0	0	8131	785322	0	0
2024-05-04 06:58:32			0	33447	0	0	0	17516	16140	155641	27533	960594	38406	106359	0	0	8131	785739	0	0
2024-05-04 06:59:32			0	33417	0	0	0	17516	16140	155745	27372	960568	38428	106359	0	0	8129	787272	0	0
2024-05-04 07:00:32			0	33409	0	0	0	17519	16140	155781	27757	960550	38440	106360	0	0	8129	787681	0	0
2024-05-04 07:01:32			0	33386	0	0	0	17514	16140	155941	27445	960550	38417	106358	0	0	8127	788859	0	0
2024-05-04 07:02:32			0	33375	0	0	0	17514	16140	155917	27431	960594	38416	106358	0	0	8127	789422	0	0
2024-05-04 07:03:32			0	33357	0	0	0	17516	16140	155985	27435	960542	38416	106359	0	0	8126	790345	0	0
2024-05-04 07:04:32			0	33378	0	0	0	17519	16140	155845	27341	960594	38428	106360	0	0	8127	789269	0	0
2024-05-04 07:05:32			0	33402	0	0	0	17527	16140	155821	27623	960568	38416	106363	0	0	8128	788039	0	0
2024-05-04 07:06:32			0	33401	0	0	0	17529	16140	155809	27434	960602	38428	106364	0	0	8128	788091	0	0
2024-05-04 07:07:32			0	33428	0	0	0	17519	16140	155785	27241	960594	38428	106360	0	0	8130	786710	0	0
2024-05-04 07:08:32			0	33434	0	0	0	17535	16140	155681	27488	960655	38428	106366	0	0	8130	786403	0	0
2024-05-04 07:09:32			0	33423	0	0	0	17540	16140	155713	27296	960682	38428	106368	0	0	8129	786965	0	0
2024-05-04 07:10:32			0	33455	0	0	0	17535	16150	155645	27402	960611	38452	106366	0	0	8131	785288	0	0
2024-05-04 07:11:32			0	33468	0	0	0	17535	16150	155533	27479	960663	38429	106366	0	0	8132	784625	0	0
2024-05-04 07:12:32			0	33466	0	0	0	17540	16140	155569	27490	960629	38428	106368	0	0	8132	784770	0	0
2024-05-04 07:13:32			0	33464	0	0	0	17529	16150	155525	27369	960637	38418	106364	0	0	8132	784829	0	0
2024-05-04 07:14:32			0	33485	0	0	0	17529	16150	155325	27698	960611	38429	106364	0	0	8133	783759	0	0
2024-05-04 07:15:32			0	33455	0	0	0	17519	16150	155509	27620	960637	38418	106360	0	0	8131	785288	0	0
2024-05-04 07:16:32			0	33425	0	0	0	17501	16140	155617	27495	960602	38428	106353	0	0	8130	786863	0	0
2024-05-04 07:17:32			0	33429	0	0	0	17501	16140	155685	27357	960673	38428	106353	0	0	8130	786659	0	0
2024-05-04 07:18:32			0	33436	0	0	0	17506	16130	155749	27445	960552	38427	106355	0	0	8130	786343	0	0
2024-05-04 07:19:32			0	33425	0	0	0	17501	16140	155721	27753	960542	38428	106353	0	0	8130	786863	0	0
2024-05-04 07:20:32			0	33479	0	0	0	17498	16130	155417	27530	960560	38416	106352	0	0	8133	784149	0	0
2024-05-04 07:21:32			0	33519	0	0	0	17506	16130	155297	27750	960533	38416	106355	0	0	8135	782112	0	0
2024-05-04 07:22:32			0	33580	0	0	0	17506	16130	154970	27774	960499	38416	106355	0	0	8139	779014	0	0
2024-05-04 07:23:32			0	33635	0	0	0	17501	16140	154762	27838	960542	38406	106353	0	0	8142	776188	0	0
2024-05-04 07:24:32			0	33688	0	0	0	17503	16120	154594	27476	960509	38405	106354	0	0	8145	773595	0	0
2024-05-04 07:25:32			0	33779	0	0	0	17506	16120	154102	27798	960543	38427	106355	0	0	8151	769018	0	0
2024-05-04 07:26:32			0	33819	0	0	0	17506	16130	153758	27805	960552	38416	106355	0	0	8153	766971	0	0
2024-05-04 07:27:32			0	33901	0	0	0	17503	16120	153394	27514	960482	38426	106354	0	0	8158	762915	0	0
2024-05-04 07:28:32			0	33918	0	0	0	17509	16130	153206	27620	960481	38428	106356	0	0	8159	762027	0	0
2024-05-04 07:29:32			0	33977	0	0	0	17506	16130	153102	27255	960473	38427	106355	0	0	8162	759092	0	0
2024-05-04 07:30:32			0	33992	0	0	0	17516	16130	153030	27249	960560	38428	106359	0	0	8163	758347	0	0
2024-05-04 07:31:32			0	34027	0	0	0	17514	16130	152902	27518	960525	38427	106358	0	0	8165	756612	0	0
2024-05-04 07:32:32			0	34015	0	0	0	17514	16130	152946	27454	960560	38428	106358	0	0	8164	757207	0	0
2024-05-04 07:33:32			0	34010	0	0	0	17509	16130	152870	27229	960552	38427	106356	0	0	8164	757454	0	0
2024-05-04 07:34:32			0	33996	0	0	0	17503	16130	153014	27580	960560	38406	106354	0	0	8163	758149	0	0
2024-05-04 07:35:32			0	33991	0	0	0	17498	16130	153102	27416	960586	38406	106352	0	0	8163	758397	0	0
2024-05-04 07:36:32			0	33968	0	0	0	17490	16130	153122	27268	960525	38416	106349	0	0	8162	759539	0	0
2024-05-04 07:37:32			0	33911	0	0	0	17501	16130	153242	27509	960552	38427	106353	0	0	8159	762376	0	0
2024-05-04 07:38:32			0	33892	0	0	0	17496	16130	153450	27329	960507	38416	106351	0	0	8158	763323	0	0
2024-05-04 07:39:32			0	33854	0	0	0	17493	16140	153578	27093	960568	38416	106350	0	0	8155	765179	0	0
2024-05-04 07:40:32			0	33865	0	0	0	17493	16130	153562	27286	960586	38416	106350	0	0	8156	764671	0	0
2024-05-04 07:41:32			0	33874	0	0	0	17485	16130	153378	27486	960507	38406	106347	0	0	8157	764221	0	0
2024-05-04 07:42:32			0	33869	0	0	0	17477	16130	153542	27317	960525	38438	106344	0	0	8156	764471	0	0
2024-05-04 07:43:32			0	33898	0	0	0	17475	16130	153474	27556	960525	38405	106343	0	0	8158	763024	0	0
2024-05-04 07:44:32			0	33911	0	0	0	17472	16130	153342	27230	960499	38416	106342	0	0	8159	762376	0	0
2024-05-04 07:45:32			0	33937	0	0	0	17464	16140	153274	27253	960568	38439	106339	0	0	8161	761040	0	0
2024-05-04 07:46:32			0	33938	0	0	0	17470	16140	153226	27642	960515	38406	106341	0	0	8161	760990	0	0
2024-05-04 07:47:32			0	33956	0	0	0	17472	16130	153094	27474	960533	38416	106342	0	0	8162	760136	0	0
2024-05-04 07:48:32			0	34003	0	0	0	17462	16120	153030	27320	960464	38405	106338	0	0	8165	757843	0	0
2024-05-04 07:49:32			0	33996	0	0	0	17467	16120	152882	27772	960491	38405	106340	0	0	8164	758190	0	0
2024-05-04 07:50:32			0	34031	0	0	0	17472	16120	152890	27635	960403	38416	106342	0	0	8166	756455	0	0
2024-05-04 07:51:32			0	34017	0	0	0	17457	16110	153030	27788	960448	38416	106336	0	0	8165	757189	0	0
2024-05-04 07:52:32			0	33979	0	0	0	17459	16100	153006	27454	960379	38415	106337	0	0	8163	759116	0	0
2024-05-04 07:53:32			0	33988	0	0	0	17459	16110	153026	27102	960440	38425	106337	0	0	8164	758628	0	0
2024-05-04 07:54:32			0	33984	0	0	0	17472	16110	153110	27554	960440	38415	106342	0	0	8163	758826	0	0
2024-05-04 07:55:32			0	33979	0	0	0	17454	16100	153082	27814	960431	38404	106335	0	0	8163	759116	0	0
2024-05-04 07:56:32			0	33976	0	0	0	17457	16110	153126	27691	960474	38416	106336	0	0	8163	759224	0	0
2024-05-04 07:57:32			0	33957	0	0	0	17457	16110	153146	27530	960413	38415	106336	0	0	8162	760168	0	0
2024-05-04 07:58:32			0	33972	0	0	0	17446	16100	153126	27587	960431	38404	106332	0	0	8163	759463	0	0
2024-05-04 07:59:32			0	33967	0	0	0	17444	16100	153134	27543	960397	38414	106331	0	0	8163	759712	0	0
2024-05-04 08:00:32			0	33938	0	0	0	17446	16100	153154	27783	960397	38414	106332	0	0	8161	761154	0	0
2024-05-04 08:01:32			0	33927	0	0	0	17444	16100	153226	27479	960370	38403	106331	0	0	8160	761702	0	0
2024-05-04 08:02:32			0	33916	0	0	0	17444	16090	153386	27305	960380	38413	106331	0	0	8160	762291	0	0
2024-05-04 08:03:32			0	33904	0	0	0	17444	16090	153286	27601	960380	38402	106331	0	0	8159	762889	0	0
2024-05-04 08:04:32			0	33930	0	0	0	17433	16080	153270	27509	960372	38413	106327	0	0	8161	761635	0	0
2024-05-04 08:05:32			0	33916	0	0	0	17438	16080	153354	27568	960285	38422	106329	0	0	8160	762332	0	0
2024-05-04 08:06:32			0	33897	0	0	0	17446	16080	153402	27611	960285	38412	106332	0	0	8158	763279	0	0
2024-05-04 08:07:32			0	33905	0	0	0	17431	16080	153426	27542	960285	38401	106326	0	0	8159	762880	0	0
2024-05-04 08:08:32			0	33890	0	0	0	17431	16070	153486	27114	960321	38422	106326	0	0	8158	763670	0	0
2024-05-04 08:09:32			0	33886	0	0	0	17446	16070	153482	27391	960321	38411	106332	0	0	8158	763870	0	0
2024-05-04 08:10:32			0	33887	0	0	0	17444	16080	153642	27384	960346	38413	106331	0	0	8158	763778	0	0
2024-05-04 08:11:32			0	33897	0	0	0	17436	16080	153374	27635	960364	38422	106328	0	0	8159	763279	0	0
2024-05-04 08:12:32			0	33934	0	0	0	17436	16070	153094	27332	960330	38422	106328	0	0	8161	761477	0	0
2024-05-04 08:13:32			0	33957	0	0	0	17431	16070	153066	27478	960277	38412	106326	0	0	8162	760332	0	0
2024-05-04 08:14:32			0	33983	0	0	0	17431	16070	153038	27640	960330	38422	106326	0	0	8164	759040	0	0
2024-05-04 08:15:32			0	33984	0	0	0	17436	16080	152966	27213	960346	38413	106328	0	0	8164	758949	0	0
2024-05-04 08:16:32			0	34027	0	0	0	17436	16070	152734	27530	960330	38401	106328	0	0	8166	756857	0	0
2024-05-04 08:17:32			0	34067	0	0	0	17449	16070	152582	27573	960269	38411	106333	0	0	8168	754877	0	0
2024-05-04 08:18:32			0	34098	0	0	0	17436	16070	152494	27343	960303	38401	106328	0	0	8170	753345	0	0
2024-05-04 08:19:32			0	34129	0	0	0	17431	16080	152410	27422	960311	38412	106326	0	0	8172	751775	0	0
2024-05-04 08:20:32			0	34122	0	0	0	17428	16070	152330	27383	960321	38411	106325	0	0	8172	752161	0	0
2024-05-04 08:21:32			0	34095	0	0	0	17433	16070	152366	27469	960321	38411	106327	0	0	8170	753493	0	0
2024-05-04 08:22:32			0	34041	0	0	0	17446	16060	152614	27485	960287	38400	106332	0	0	8167	756204	0	0
2024-05-04 08:23:32			0	33986	0	0	0	17451	16060	152930	27556	960261	38411	106334	0	0	8163	758932	0	0
2024-05-04 08:24:32			0	33952	0	0	0	17446	16070	153102	27741	960374	38411	106332	0	0	8162	760581	0	0
2024-05-04 08:25:32			0	33930	0	0	0	17446	16070	153386	27441	960356	38434	106332	0	0	8160	761676	0	0
2024-05-04 08:26:32			0	33884	0	0	0	17444	16070	153502	27840	960295	38400	106331	0	0	8158	763970	0	0
2024-05-04 08:27:32			0	33856	0	0	0	17444	16080	153566	27658	960364	38412	106331	0	0	8156	765327	0	0
2024-05-04 08:28:32			0	33856	0	0	0	17438	16070	153678	27355	960348	38422	106329	0	0	8156	765368	0	0
2024-05-04 08:29:32			0	33861	0	0	0	17444	16070	153638	27448	960356	38422	106331	0	0	8156	765118	0	0
2024-05-04 08:30:32			0	33847	0	0	0	17444	16070	153562	27535	960269	38411	106331	0	0	8155	765818	0	0
2024-05-04 08:31:32			0	33854	0	0	0	17436	16080	153602	27713	960285	38412	106328	0	0	8156	765427	0	0
2024-05-04 08:32:32			0	33867	0	0	0	17446	16070	153394	27421	960303	38412	106332	0	0	8157	764818	0	0
2024-05-04 08:33:32			0	33864	0	0	0	17454	16080	153562	27611	960417	38401	106335	0	0	8156	764927	0	0
2024-05-04 08:34:32			0	33855	0	0	0	17451	16080	153478	27625	960372	38423	106334	0	0	8156	765377	0	0
2024-05-04 08:35:32			0	33849	0	0	0	17451	16070	153546	27646	960356	38422	106334	0	0	8155	765718	0	0
2024-05-04 08:36:32			0	33856	0	0	0	17449	16080	153442	27796	960311	38412	106333	0	0	8156	765327	0	0
2024-05-04 08:37:32			0	33836	0	0	0	17446	16070	153678	27300	960330	38422	106332	0	0	8155	766369	0	0
2024-05-04 08:38:32			0	33819	0	0	0	17441	16090	153546	27542	960407	38413	106330	0	0	8154	767137	0	0
2024-05-04 08:39:32			0	33838	0	0	0	17441	16080	153714	27557	960346	38413	106330	0	0	8155	766227	0	0
2024-05-04 08:40:32			0	33863	0	0	0	17438	16070	153610	27854	960330	38412	106329	0	0	8157	765018	0	0
2024-05-04 08:41:32			0	33888	0	0	0	17436	16070	153402	27457	960374	38411	106328	0	0	8158	763770	0	0
2024-05-04 08:42:32			0	33899	0	0	0	17431	16070	153334	27607	960321	38400	106326	0	0	8159	763221	0	0
2024-05-04 08:43:32			0	33941	0	0	0	17441	16070	153290	27561	960382	38401	106330	0	0	8161	761128	0	0
2024-05-04 08:44:32			0	33973	0	0	0	17436	16070	153038	27607	960303	38412	106328	0	0	8163	759537	0	0
2024-05-04 08:45:32			0	34001	0	0	0	17438	16070	152874	27364	960330	38422	106329	0	0	8165	758146	0	0
2024-05-04 08:46:32			0	34049	0	0	0	17449	16080	152618	27868	960372	38413	106333	0	0	8167	755727	0	0
2024-05-04 08:47:32			0	34084	0	0	0	17444	16070	152490	27736	960356	38401	106331	0	0	8169	754037	0	0
2024-05-04 08:48:32			0	34107	0	0	0	17438	16070	152374	27611	960374	38411	106329	0	0	8171	752901	0	0
2024-05-04 08:49:32			0	34094	0	0	0	17436	16070	152422	27488	960321	38422	106328	0	0	8170	753543	0	0
2024-05-04 08:50:32			0	34066	0	0	0	17470	16070	152662	27545	960330	38422	106341	0	0	8168	754926	0	0
2024-05-04 08:51:32			0	34016	0	0	0	17446	16070	152774	27767	960409	38412	106332	0	0	8165	757402	0	0
2024-05-04 08:52:32			0	33989	0	0	0	17436	16080	153034	27717	960390	38401	106328	0	0	8164	758701	0	0
2024-05-04 08:53:32			0	33937	0	0	0	17441	16080	153126	27703	960364	38422	106330	0	0	8161	761286	0	0
2024-05-04 08:54:32			0	33917	0	0	0	17441	16070	153238	27679	960295	38411	106330	0	0	8160	762323	0	0
2024-05-04 08:55:32			0	33900	0	0	0	17431	16070	153302	27649	960321	38400	106326	0	0	8159	763171	0	0
2024-05-04 08:56:32			0	33929	0	0	0	17431	16070	153206	27429	960330	38412	106326	0	0	8160	761726	0	0
2024-05-04 08:57:32			0	33947	0	0	0	17433	16070	153150	27575	960374	38400	106327	0	0	8162	760830	0	0
2024-05-04 08:58:32			0	33974	0	0	0	17436	16070	152914	27599	960295	38400	106328	0	0	8163	759487	0	0
2024-05-04 08:59:32			0	34045	0	0	0	17436	16070	152622	27315	960295	38422	106328	0	0	8167	755966	0	0
2024-05-04 09:00:32			0	34083	0	0	0	17431	16070	152422	27471	960348	38400	106326	0	0	8169	754086	0	0
2024-05-04 09:01:32			0	34110	0	0	0	17431	16060	152282	27661	960252	38411	106326	0	0	8171	752794	0	0
2024-05-04 09:02:32			0	34146	0	0	0	17428	16070	152178	27665	960348	38411	106325	0	0	8173	750978	0	0
2024-05-04 09:03:32			0	34178	0	0	0	17438	16060	151958	27462	960313	38400	106329	0	0	8175	749444	0	0
2024-05-04 09:04:32			0	34260	0	0	0	17436	16060	151726	27684	960305	38400	106328	0	0	8179	745421	0	0
2024-05-04 09:05:32			0	34294	0	0	0	17438	16060	151522	27502	960261	38421	106329	0	0	8181	743757	0	0
2024-05-04 09:06:32			0	34314	0	0	0	17444	16080	151390	27429	960364	38422	106331	0	0	8183	742700	0	0
2024-05-04 09:07:32			0	34343	0	0	0	17444	16070	151282	27447	960303	38412	106331	0	0	8184	741325	0	0
2024-05-04 09:08:32			0	34349	0	0	0	17438	16060	151339	27308	960279	38400	106329	0	0	8185	741073	0	0
2024-05-04 09:09:32			0	34354	0	0	0	17444	16070	151151	27588	960321	38411	106331	0	0	8185	740789	0	0
2024-05-04 09:10:32			0	34346	0	0	0	17438	16070	151342	27331	960330	38422	106329	0	0	8184	741179	0	0
2024-05-04 09:11:32			0	34377	0	0	0	17436	16070	151203	27377	960348	38411	106328	0	0	8186	739669	0	0
2024-05-04 09:12:32			0	34416	0	0	0	17441	16070	151047	27557	960295	38422	106330	0	0	8188	737773	0	0
2024-05-04 09:13:32			0	34452	0	0	0	17446	16060	150931	27486	960340	38411	106332	0	0	8190	736065	0	0
2024-05-04 09:14:32			0	34434	0	0	0	17441	16070	150915	27346	960321	38411	106330	0	0	8189	736899	0	0
2024-05-04 09:15:32			0	34437	0	0	0	17433	16070	150923	27602	960295	38400	106327	0	0	8190	736753	0	0
2024-05-04 09:16:32			0	34456	0	0	0	17438	16070	150907	27620	960348	38411	106329	0	0	8191	735832	0	0
2024-05-04 09:17:32			0	34475	0	0	0	17428	16060	150751	27661	960340	38411	106325	0	0	8192	734951	0	0
2024-05-04 09:18:32			0	34485	0	0	0	17444	16070	150627	27531	960321	38422	106331	0	0	8192	734427	0	0
2024-05-04 09:19:32			0	34510	0	0	0	17446	16070	150467	27395	960348	38400	106332	0	0	8194	733218	0	0
2024-05-04 09:20:32			0	34500	0	0	0	17436	16070	150575	27492	960348	38411	106328	0	0	8193	733701	0	0
2024-05-04 09:21:32			0	34477	0	0	0	17436	16070	150795	27599	960356	38412	106328	0	0	8192	734814	0	0
2024-05-04 09:22:32			0	34477	0	0	0	17438	16070	150699	27215	960321	38411	106329	0	0	8192	734814	0	0
2024-05-04 09:23:32			0	34483	0	0	0	17441	16070	150615	27800	960321	38411	106330	0	0	8192	734524	0	0
2024-05-04 09:24:32			0	34492	0	0	0	17446	16070	150759	27218	960321	38422	106332	0	0	8193	734088	0	0
2024-05-04 09:25:32			0	34474	0	0	0	17436	16070	150659	27249	960295	38400	106328	0	0	8192	734960	0	0
2024-05-04 09:26:32			0	34458	0	0	0	17438	16070	150707	27289	960356	38412	106329	0	0	8191	735735	0	0
2024-05-04 09:27:32			0	34459	0	0	0	17444	16070	150759	27535	960321	38400	106331	0	0	8191	735686	0	0
2024-05-04 09:28:32			0	34460	0	0	0	17446	16070	150803	27227	960356	38412	106332	0	0	8191	735638	0	0
2024-05-04 09:29:32			0	34462	0	0	0	17444	16070	150715	27606	960356	38412	106331	0	0	8191	735541	0	0
2024-05-04 09:30:32			0	34468	0	0	0	17446	16080	150803	27351	960311	38412	106332	0	0	8191	735211	0	0
2024-05-04 09:31:32			0	34456	0	0	0	17451	16070	150771	27383	960348	38400	106334	0	0	8191	735832	0	0
2024-05-04 09:32:32			0	34465	0	0	0	17444	16070	150723	27374	960295	38422	106331	0	0	8191	735395	0	0
2024-05-04 09:33:32			0	34479	0	0	0	17454	16080	150699	27339	960443	38412	106335	0	0	8192	734678	0	0
2024-05-04 09:34:32			0	34444	0	0	0	17464	16080	150759	27403	960338	38422	106339	0	0	8190	736374	0	0
2024-05-04 09:35:32			0	34415	0	0	0	17459	16080	150879	27163	960390	38412	106337	0	0	8188	737781	0	0
2024-05-04 09:36:32			0	34389	0	0	0	17475	16090	151051	27376	960407	38434	106343	0	0	8186	739005	0	0
2024-05-04 09:37:32			0	34349	0	0	0	17472	16090	151131	27540	960441	38424	106342	0	0	8184	740953	0	0
2024-05-04 09:38:32			0	34342	0	0	0	17496	16080	151154	27234	960425	38413	106351	0	0	8183	741334	0	0
2024-05-04 09:39:32			0	34379	0	0	0	17493	16100	151087	27414	960476	38424	106350	0	0	8186	739452	0	0
2024-05-04 09:40:32			0	34402	0	0	0	17493	16100	150923	27211	960563	38415	106350	0	0	8187	738333	0	0
2024-05-04 09:41:32			0	34447	0	0	0	17506	16110	150751	27230	960571	38425	106355	0	0	8189	736109	0	0
2024-05-04 09:42:32			0	34473	0	0	0	17511	16110	150727	27826	960598	38415	106357	0	0	8191	734849	0	0
2024-05-04 09:43:32			0	34487	0	0	0	17514	16110	150475	27556	960553	38416	106358	0	0	8191	734172	0	0
2024-05-04 09:44:32			0	34483	0	0	0	17509	16120	150595	27498	960588	38416	106356	0	0	8191	734325	0	0
2024-05-04 09:45:32			0	34456	0	0	0	17529	16120	150703	27156	960649	38427	106364	0	0	8189	735633	0	0
2024-05-04 09:46:32			0	34454	0	0	0	17537	16130	150675	27130	960683	38427	106367	0	0	8189	735690	0	0
2024-05-04 09:47:32			0	34459	0	0	0	17550	16140	150647	27557	960700	38416	106372	0	0	8189	735408	0	0
2024-05-04 09:48:32			0	34449	0	0	0	17568	16130	150679	27206	960639	38428	106379	0	0	8188	735933	0	0
2024-05-04 09:49:32			0	34414	0	0	0	17579	16140	150867	27502	960752	38416	106383	0	0	8186	737591	0	0
2024-05-04 09:50:32			0	34325	0	0	0	17576	16150	151198	27419	960663	38440	106382	0	0	8181	741883	0	0
2024-05-04 09:51:32			0	34326	0	0	0	17579	16170	151370	27637	960741	38430	106383	0	0	8181	741754	0	0
2024-05-04 09:52:32			0	34306	0	0	0	17594	16160	151322	27199	960838	38429	106389	0	0	8180	742770	0	0
2024-05-04 09:53:32			0	34306	0	0	0	17597	16160	151270	26925	960785	38440	106390	0	0	8180	742770	0	0
2024-05-04 09:54:32			0	34316	0	0	0	17592	16170	151238	27331	960820	38430	106388	0	0	8181	742242	0	0
2024-05-04 09:55:32			0	34310	0	0	0	17589	16160	151402	27512	960838	38429	106387	0	0	8180	742574	0	0
2024-05-04 09:56:32			0	34308	0	0	0	17594	16170	151350	27569	960881	38442	106389	0	0	8180	742632	0	0
2024-05-04 09:57:32			0	34288	0	0	0	17599	16180	151454	27223	960836	38431	106391	0	0	8179	743569	0	0
2024-05-04 09:58:32			0	34240	0	0	0	17599	16190	151630	27511	960879	38443	106391	0	0	8176	745877	0	0
2024-05-04 09:59:32			0	34187	0	0	0	17594	16190	151910	27441	960852	38411	106389	0	0	8173	748476	0	0
2024-05-04 10:00:32			0	34179	0	0	0	17594	16190	151890	27308	960887	38444	106389	0	0	8173	748869	0	0
2024-05-04 10:01:32			0	34143	0	0	0	17592	16190	152026	27524	960879	38432	106388	0	0	8171	750640	0	0
2024-05-04 10:02:32			0	34145	0	0	0	17584	16180	151910	27329	960844	38432	106385	0	0	8171	750582	0	0
2024-05-04 10:03:32			0	34157	0	0	0	17581	16190	152030	27277	960852	38432	106384	0	0	8172	749951	0	0
2024-05-04 10:04:32			0	34134	0	0	0	17579	16190	152018	27300	960879	38432	106383	0	0	8170	751083	0	0
2024-05-04 10:05:32			0	34138	0	0	0	17579	16190	152078	27568	960852	38432	106383	0	0	8171	750886	0	0
2024-05-04 10:06:32			0	34109	0	0	0	17581	16190	152070	27213	960861	38444	106384	0	0	8169	752315	0	0
2024-05-04 10:07:32			0	34110	0	0	0	17584	16190	152110	27227	960879	38432	106385	0	0	8169	752265	0	0
2024-05-04 10:08:32			0	34100	0	0	0	17581	16200	152234	27426	960869	38445	106384	0	0	8168	752718	0	0
2024-05-04 10:09:32			0	34056	0	0	0	17587	16200	152406	27397	960842	38445	106386	0	0	8166	754891	0	0
2024-05-04 10:10:32			0	34039	0	0	0	17584	16200	152434	27362	960895	38445	106385	0	0	8165	755732	0	0
2024-05-04 10:11:32			0	34062	0	0	0	17579	16200	152358	27942	960869	38445	106383	0	0	8166	754594	0	0
2024-05-04 10:12:32			0	34084	0	0	0	17576	16200	152174	27483	960930	38445	106382	0	0	8168	753508	0	0
2024-05-04 10:13:32			0	34098	0	0	0	17592	16190	152134	27543	960879	38421	106388	0	0	8168	752857	0	0
2024-05-04 10:14:32			0	34073	0	0	0	17589	16190	152310	27812	960861	38433	106387	0	0	8167	754092	0	0
2024-05-04 10:15:32			0	34076	0	0	0	17592	16200	152322	27457	960869	38445	106388	0	0	8167	753903	0	0
2024-05-04 10:16:32			0	34081	0	0	0	17597	16200	152186	27263	960869	38434	106390	0	0	8167	753656	0	0
2024-05-04 10:17:32			0	34119	0	0	0	17597	16210	152058	27654	960911	38445	106390	0	0	8169	751741	0	0
2024-05-04 10:18:32			0	34155	0	0	0	17592	16200	152042	27590	960895	38434	106388	0	0	8171	750009	0	0
2024-05-04 10:19:32			0	34152	0	0	0	17594	16190	151982	27343	960834	38444	106389	0	0	8171	750197	0	0
2024-05-04 10:20:32			0	34122	0	0	0	17592	16190	151986	27327	960913	38444	106388	0	0	8170	751674	0	0
2024-05-04 10:21:32			0	34084	0	0	0	17597	16210	152070	27609	960911	38434	106390	0	0	8167	753467	0	0
2024-05-04 10:22:32			0	34071	0	0	0	17605	16210	152258	27670	960920	38457	106393	0	0	8166	754109	0	0
2024-05-04 10:23:32			0	34077	0	0	0	17597	16210	152322	27581	960972	38445	106390	0	0	8167	753813	0	0
2024-05-04 10:24:32			0	34087	0	0	0	17605	16200	152174	27237	960948	38445	106393	0	0	8167	753359	0	0
2024-05-04 10:25:32			0	34072	0	0	0	17615	16200	152202	27327	960930	38445	106397	0	0	8166	754100	0	0
2024-05-04 10:26:32			0	34081	0	0	0	17607	16200	152266	28074	960956	38445	106394	0	0	8167	753656	0	0
2024-05-04 10:27:32			0	34021	0	0	0	17612	16220	152346	27502	960981	38435	106396	0	0	8163	756541	0	0
2024-05-04 10:28:32			0	34000	0	0	0	17612	16210	152602	27542	960964	38456	106396	0	0	8162	757623	0	0
2024-05-04 10:29:32			0	33904	0	0	0	17615	16210	152998	27637	960946	38445	106397	0	0	8157	762395	0	0
2024-05-04 10:30:32			0	33891	0	0	0	17612	16220	153182	27383	960962	38446	106396	0	0	8156	763002	0	0
2024-05-04 10:31:32			0	33899	0	0	0	17610	16220	153074	27713	960981	38435	106395	0	0	8156	762603	0	0
2024-05-04 10:32:32			0	33890	0	0	0	17618	16230	153114	27492	961023	38435	106398	0	0	8156	763011	0	0
2024-05-04 10:33:32			0	33898	0	0	0	17618	16220	153158	27611	960989	38435	106398	0	0	8156	762653	0	0
2024-05-04 10:34:32			0	33843	0	0	0	17623	16220	153354	27751	961007	38457	106400	0	0	8153	765398	0	0
2024-05-04 10:35:32			0	33807	0	0	0	17620	16210	153514	27701	960999	38434	106399	0	0	8151	767241	0	0
2024-05-04 10:36:32			0	33734	0	0	0	17612	16220	153782	27583	961007	38435	106396	0	0	8147	770862	0	0
2024-05-04 10:37:32			0	33661	0	0	0	17618	16220	154146	27538	961033	38435	106398	0	0	8142	774539	0	0
2024-05-04 10:38:32			0	33592	0	0	0	17615	16220	154490	27492	961041	38435	106397	0	0	8138	778028	0	0
2024-05-04 10:39:32			0	33553	0	0	0	17618	16230	154633	27810	961058	38447	106398	0	0	8136	779963	0	0
2024-05-04 10:40:32			0	33528	0	0	0	17618	16210	154753	27907	960999	38445	106398	0	0	8134	781317	0	0
2024-05-04 10:41:32			0	33514	0	0	0	17618	16230	154849	27874	961023	38435	106398	0	0	8134	781944	0	0
2024-05-04 10:42:32			0	33474	0	0	0	17618	16210	155013	27362	960972	38445	106398	0	0	8131	784065	0	0
2024-05-04 10:43:32			0	33434	0	0	0	17620	16220	155329	27765	961015	38457	106399	0	0	8129	786064	0	0
2024-05-04 10:44:32			0	33444	0	0	0	17623	16210	155317	27455	960946	38445	106400	0	0	8129	785595	0	0
2024-05-04 10:45:32			0	33422	0	0	0	17620	16220	155293	27659	961068	38435	106399	0	0	8128	786677	0	0
2024-05-04 10:46:32			0	33439	0	0	0	17612	16220	155241	27566	960962	38446	106396	0	0	8129	785808	0	0
2024-05-04 10:47:32			0	33438	0	0	0	17625	16220	155265	27590	961015	38446	106401	0	0	8129	785859	0	0
2024-05-04 10:48:32			0	33428	0	0	0	17615	16230	155349	27765	961023	38457	106397	0	0	8129	786327	0	0
2024-05-04 10:49:32			0	33418	0	0	0	17610	16230	155457	27717	960997	38435	106395	0	0	8128	786839	0	0
2024-05-04 10:50:32			0	33385	0	0	0	17607	16230	155481	27798	961031	38436	106394	0	0	8126	788527	0	0
2024-05-04 10:51:32			0	33416	0	0	0	17612	16230	155409	27847	960997	38446	106396	0	0	8128	786941	0	0
2024-05-04 10:52:32			0	33427	0	0	0	17612	16240	155281	27880	961100	38437	106396	0	0	8129	786336	0	0
2024-05-04 10:53:32			0	33433	0	0	0	17615	16220	155269	27854	961041	38446	106397	0	0	8129	786115	0	0
2024-05-04 10:54:32			0	33445	0	0	0	17618	16230	155289	27739	961050	38446	106398	0	0	8130	785459	0	0
2024-05-04 10:55:32			0	33445	0	0	0	17620	16230	155153	27890	961023	38457	106399	0	0	8130	785459	0	0
2024-05-04 10:56:32			0	33408	0	0	0	17620	16230	155429	27459	961050	38446	106399	0	0	8127	787350	0	0
2024-05-04 10:57:32			0	33376	0	0	0	17623	16220	155537	27360	961041	38435	106400	0	0	8125	789030	0	0
2024-05-04 10:58:32			0	33338	0	0	0	17620	16240	155665	27497	961040	38437	106399	0	0	8123	790893	0	0
2024-05-04 10:59:32			0	33290	0	0	0	17618	16240	155893	27897	961074	38448	106398	0	0	8120	793360	0	0
2024-05-04 11:00:32			0	33239	0	0	0	17623	16240	156197	27887	961100	38448	106400	0	0	8117	795988	0	0
2024-05-04 11:01:32			0	33215	0	0	0	17631	16250	156245	27627	961083	38437	106403	0	0	8116	797184	0	0
2024-05-04 11:02:32			0	33193	0	0	0	17623	16240	156389	27708	961021	38448	106400	0	0	8115	798364	0	0
2024-05-04 11:03:32			0	33165	0	0	0	17631	16240	156397	27788	961092	38448	106403	0	0	8113	799814	0	0
2024-05-04 11:04:32			0	33198	0	0	0	17623	16240	156409	27473	961021	38448	106400	0	0	8115	798106	0	0
2024-05-04 11:05:32			0	33217	0	0	0	17631	16240	156353	27767	961127	38437	106403	0	0	8116	797124	0	0
2024-05-04 11:06:32			0	33211	0	0	0	17625	16240	156241	27668	961074	38448	106401	0	0	8116	797434	0	0
2024-05-04 11:07:32			0	33226	0	0	0	17610	16250	156305	28017	961188	38458	106395	0	0	8117	796616	0	0
2024-05-04 11:08:32			0	33214	0	0	0	17607	16240	156301	27758	961100	38458	106394	0	0	8116	797279	0	0
2024-05-04 11:09:32			0	33198	0	0	0	17615	16250	156337	27871	961135	38448	106397	0	0	8115	798063	0	0
2024-05-04 11:10:32			0	33176	0	0	0	17628	16250	156417	27975	961109	38448	106402	0	0	8113	799201	0	0
2024-05-04 11:11:32			0	33186	0	0	0	17625	16250	156465	27682	961162	38437	106401	0	0	8114	798684	0	0
2024-05-04 11:12:32			0	33164	0	0	0	17631	16240	156441	27944	961127	38448	106403	0	0	8113	799866	0	0
2024-05-04 11:13:32			0	33173	0	0	0	17631	16240	156393	27732	961171	38448	106403	0	0	8113	799400	0	0
2024-05-04 11:14:32			0	33164	0	0	0	17605	16250	156585	27703	961109	38448	106393	0	0	8113	799822	0	0
2024-05-04 11:15:32			0	33154	0	0	0	17620	16240	156597	27689	961127	38448	106399	0	0	8112	800384	0	0
2024-05-04 11:16:32			0	33140	0	0	0	17631	16240	156681	27557	961074	38437	106403	0	0	8111	801110	0	0
2024-05-04 11:17:32			0	33134	0	0	0	17638	16240	156733	27887	961119	38458	106406	0	0	8111	801421	0	0
2024-05-04 11:18:32			0	33100	0	0	0	17644	16250	156749	28062	961162	38458	106408	0	0	8109	803144	0	0
2024-05-04 11:19:32			0	33085	0	0	0	17628	16250	156901	27673	961144	38449	106402	0	0	8108	803924	0	0
2024-05-04 11:20:32			0	33066	0	0	0	17638	16250	156929	27909	961117	38438	106406	0	0	8107	804912	0	0
2024-05-04 11:21:32			0	33082	0	0	0	17633	16260	156985	27696	961160	38461	106404	0	0	8108	804036	0	0
2024-05-04 11:22:32			0	33077	0	0	0	17646	16250	156917	27963	961196	38449	106409	0	0	8107	804340	0	0
2024-05-04 11:23:32			0	33084	0	0	0	17654	16260	157069	27935	961134	38461	106412	0	0	8107	803932	0	0
2024-05-04 11:24:32			0	33065	0	0	0	17670	16260	156989	27604	961239	38461	106418	0	0	8106	804921	0	0
2024-05-04 11:25:32			0	33037	0	0	0	17677	16260	157117	27783	961239	38461	106421	0	0	8104	806380	0	0
2024-05-04 11:26:32			0	33021	0	0	0	17688	16270	157277	27717	961229	38451	106425	0	0	8103	807171	0	0
2024-05-04 11:27:32			0	32998	0	0	0	17685	16260	157341	27706	961239	38461	106424	0	0	8102	808416	0	0
2024-05-04 11:28:32			0	33013	0	0	0	17683	16280	157353	27755	961264	38473	106423	0	0	8103	807545	0	0
2024-05-04 11:29:32			0	33003	0	0	0	17677	16280	157269	27963	961290	38451	106421	0	0	8102	808068	0	0
2024-05-04 11:30:32			0	33027	0	0	0	17670	16280	157217	27646	961272	38452	106418	0	0	8104	806815	0	0
2024-05-04 11:31:32			0	33018	0	0	0	17670	16280	157157	27711	961272	38462	106418	0	0	8103	807284	0	0
2024-05-04 11:32:32			0	33027	0	0	0	17680	16280	157289	27883	961245	38462	106422	0	0	8104	806815	0	0
2024-05-04 11:33:32			0	33024	0	0	0	17677	16290	157261	27798	961280	38452	106421	0	0	8104	806928	0	0
2024-05-04 11:34:32			0	33026	0	0	0	17685	16280	157217	27673	961245	38441	106424	0	0	8104	806867	0	0
2024-05-04 11:35:32			0	33018	0	0	0	17672	16290	157189	27916	961306	38452	106419	0	0	8103	807241	0	0
2024-05-04 11:36:32			0	33019	0	0	0	17675	16290	157237	28043	961306	38462	106420	0	0	8103	807188	0	0
2024-05-04 11:37:32			0	33006	0	0	0	17685	16290	157265	27989	961394	38452	106424	0	0	8102	807867	0	0
2024-05-04 11:38:32			0	33006	0	0	0	17693	16290	157285	27595	961420	38441	106427	0	0	8102	807867	0	0
2024-05-04 11:39:32			0	33004	0	0	0	17696	16290	157293	27890	961314	38452	106428	0	0	8102	807972	0	0
2024-05-04 11:40:32			0	32986	0	0	0	17696	16300	157417	27682	961402	38463	106428	0	0	8101	808869	0	0
2024-05-04 11:41:32			0	32988	0	0	0	17703	16300	157341	27696	961402	38453	106431	0	0	8101	808764	0	0
2024-05-04 11:42:32			0	32994	0	0	0	17714	16300	157437	27926	961436	38454	106435	0	0	8101	808451	0	0
2024-05-04 11:43:32			0	32970	0	0	0	17722	16310	157489	27786	961471	38464	106438	0	0	8100	809662	0	0
2024-05-04 11:44:32			0	32979	0	0	0	17729	16310	157509	28206	961479	38464	106441	0	0	8100	809191	0	0
2024-05-04 11:45:32			0	32964	0	0	0	17742	16320	157537	27970	961469	38466	106446	0	0	8099	809932	0	0
2024-05-04 11:46:32			0	32973	0	0	0	17748	16320	157613	27819	961487	38455	106448	0	0	8099	809461	0	0
2024-05-04 11:47:32			0	32951	0	0	0	17761	16330	157481	27926	961556	38457	106453	0	0	8098	810569	0	0
2024-05-04 11:48:32			0	32936	0	0	0	17763	16330	157617	27679	961591	38467	106454	0	0	8097	811355	0	0
2024-05-04 11:49:32			0	32927	0	0	0	17771	16340	157609	27748	961528	38490	106457	0	0	8096	811783	0	0
2024-05-04 11:50:32			0	32911	0	0	0	17774	16340	157817	27973	961652	38478	106458	0	0	8095	812622	0	0
2024-05-04 11:51:32			0	32912	0	0	0	17784	16340	157733	27817	961607	38457	106462	0	0	8095	812570	0	0
2024-05-04 11:52:32			0	32899	0	0	0	17797	16360	157813	27698	961658	38458	106467	0	0	8094	813164	0	0
2024-05-04 11:53:32			0	32898	0	0	0	17812	16360	157741	27734	961719	38448	106473	0	0	8094	813217	0	0
2024-05-04 11:54:32			0	32923	0	0	0	17831	16360	157777	27810	961772	38491	106480	0	0	8095	811905	0	0
2024-05-04 11:55:32			0	32927	0	0	0	17786	16380	157617	27833	961691	38481	106463	0	0	8096	811607	0	0
2024-05-04 11:56:32			0	32941	0	0	0	17755	16380	157565	27511	961744	38449	106451	0	0	8098	810874	0	0
2024-05-04 11:57:32			0	32963	0	0	0	17742	16380	157461	27954	961665	38459	106446	0	0	8099	809722	0	0
2024-05-04 11:58:32			0	32952	0	0	0	17729	16380	157405	28162	961647	38460	106441	0	0	8099	810298	0	0
2024-05-04 11:59:32			0	32931	0	0	0	17732	16370	157469	27935	961648	38459	106442	0	0	8097	811442	0	0
2024-05-04 12:00:32			0	32963	0	0	0	17758	16370	157397	28124	961657	38459	106452	0	0	8099	809765	0	0
2024-05-04 12:01:32			0	32971	0	0	0	17766	16360	157585	27862	961666	38458	106455	0	0	8099	809391	0	0
2024-05-04 12:02:32			0	32937	0	0	0	17763	16370	157577	27890	961657	38470	106454	0	0	8097	811127	0	0
2024-05-04 12:03:32			0	32935	0	0	0	17786	16390	157693	28207	961760	38461	106463	0	0	8097	811144	0	0
2024-05-04 12:04:32			0	32926	0	0	0	17781	16390	157513	28317	961655	38472	106461	0	0	8096	811616	0	0
2024-05-04 12:05:32			0	32928	0	0	0	17781	16380	157549	27887	961691	38470	106461	0	0	8096	811555	0	0
2024-05-04 12:06:32			0	32922	0	0	0	17784	16380	157689	28029	961718	38481	106462	0	0	8096	811869	0	0
2024-05-04 12:07:32			0	32920	0	0	0	17807	16380	157745	28084	961778	38471	106471	0	0	8096	811975	0	0
2024-05-04 12:08:32			0	32916	0	0	0	17802	16400	157741	27770	961829	38484	106469	0	0	8095	812096	0	0
2024-05-04 12:09:32			0	32900	0	0	0	17815	16400	157869	27966	961829	38473	106474	0	0	8094	812936	0	0
2024-05-04 12:10:32			0	32887	0	0	0	17823	16400	157745	27968	961856	38462	106477	0	0	8093	813619	0	0
2024-05-04 12:11:32			0	32906	0	0	0	17880	16410	157889	27895	961907	38485	106499	0	0	8094	812577	0	0
2024-05-04 12:12:32			0	32882	0	0	0	17877	16430	157893	27946	961958	38497	106498	0	0	8092	813750	0	0
2024-05-04 12:13:32			0	32882	0	0	0	17922	16430	157961	27576	962045	38487	106515	0	0	8092	813750	0	0
2024-05-04 12:14:32			0	32873	0	0	0	17898	16450	157949	28084	962069	38488	106506	0	0	8091	814134	0	0
2024-05-04 12:15:32			0	32891	0	0	0	17922	16470	157941	27946	962147	38500	106515	0	0	8092	813101	0	0
2024-05-04 12:16:32			0	32878	0	0	0	17888	16470	157977	28161	962155	38490	106502	0	0	8092	813784	0	0
2024-05-04 12:17:32			0	32869	0	0	0	17906	16480	157905	27725	962163	38501	106509	0	0	8091	814213	0	0
2024-05-04 12:18:32			0	32882	0	0	0	17924	16480	157785	27963	962189	38512	106516	0	0	8092	813530	0	0
2024-05-04 12:19:32			0	32880	0	0	0	17922	16490	157797	28277	962214	38502	106515	0	0	8092	813591	0	0
2024-05-04 12:20:32			0	32895	0	0	0	17906	16500	157805	27930	962196	38492	106509	0	0	8093	812759	0	0
2024-05-04 12:21:32			0	32889	0	0	0	17898	16500	157745	28331	962275	38492	106506	0	0	8093	813074	0	0
2024-05-04 12:22:32			0	32893	0	0	0	17898	16510	157817	27452	962239	38482	106506	0	0	8093	812820	0	0
2024-05-04 12:23:32			0	32869	0	0	0	17903	16510	157877	27492	962194	38482	106508	0	0	8091	814080	0	0
2024-05-04 12:24:32			0	32862	0	0	0	17893	16510	157861	27658	962160	38503	106504	0	0	8091	814448	0	0
2024-05-04 12:25:32			0	32846	0	0	0	17898	16510	157913	27320	962239	38493	106506	0	0	8090	815290	0	0
2024-05-04 12:26:32			0	32847	0	0	0	17927	16510	157965	27627	962247	38493	106517	0	0	8090	815237	0	0
2024-05-04 12:27:32			0	32839	0	0	0	17935	16520	157997	27441	962282	38472	106520	0	0	8089	815614	0	0
2024-05-04 12:28:32			0	32804	0	0	0	17942	16520	157977	27554	962308	38504	106523	0	0	8087	817458	0	0
2024-05-04 12:29:32			0	32797	0	0	0	17963	16530	158085	27836	962377	38505	106531	0	0	8086	817783	0	0
2024-05-04 12:30:32			0	32807	0	0	0	17961	16530	158117	28020	962359	38517	106530	0	0	8087	817256	0	0
2024-05-04 12:31:32			0	32769	0	0	0	17974	16540	158220	27840	962375	38485	106535	0	0	8084	819217	0	0
2024-05-04 12:32:32			0	32764	0	0	0	17979	16540	158184	27713	962428	38507	106537	0	0	8084	819481	0	0
2024-05-04 12:33:32			0	32781	0	0	0	17981	16540	158208	27687	962402	38507	106538	0	0	8085	818584	0	0
2024-05-04 12:34:32			0	32776	0	0	0	17997	16550	158260	27812	962515	38485	106544	0	0	8084	818803	0	0
2024-05-04 12:35:32			0	32794	0	0	0	17999	16560	158253	27822	962514	38531	106545	0	0	8085	817809	0	0
2024-05-04 12:36:32			0	32810	0	0	0	17999	16560	158221	27668	962487	38508	106545	0	0	8086	816965	0	0
2024-05-04 12:37:32			0	32826	0	0	0	18010	16580	158057	27665	962565	38509	106549	0	0	8087	816034	0	0
2024-05-04 12:38:32			0	32807	0	0	0	17984	16580	158089	27559	962565	38499	106539	0	0	8087	817035	0	0
2024-05-04 12:39:32			0	32814	0	0	0	17997	16590	158133	27653	962581	38511	106544	0	0	8087	816622	0	0
2024-05-04 12:40:32			0	32811	0	0	0	17979	16580	158053	27824	962565	38509	106537	0	0	8087	816824	0	0
2024-05-04 12:41:32			0	32850	0	0	0	17997	16590	157957	27746	962555	38522	106544	0	0	8089	814727	0	0
2024-05-04 12:42:32			0	32845	0	0	0	17976	16590	157849	27604	962615	38511	106536	0	0	8089	814990	0	0
2024-05-04 12:43:32			0	32887	0	0	0	17994	16600	157645	27633	962545	38512	106543	0	0	8091	812739	0	0
2024-05-04 12:44:32			0	32942	0	0	0	17945	16600	157425	27466	962553	38512	106524	0	0	8096	809857	0	0
2024-05-04 12:45:32			0	32991	0	0	0	18007	16600	157101	27544	962571	38512	106548	0	0	8098	807297	0	0
2024-05-04 12:46:32			0	33010	0	0	0	18020	16590	157081	27786	962615	38511	106553	0	0	8098	806349	0	0
2024-05-04 12:47:32			0	33007	0	0	0	17994	16610	157149	27897	962693	38513	106543	0	0	8099	806418	0	0
2024-05-04 12:48:32			0	33021	0	0	0	17976	16610	157009	27476	962648	38524	106536	0	0	8100	805689	0	0
2024-05-04 12:49:32			0	33028	0	0	0	17909	16610	156833	27897	962569	38491	106510	0	0	8102	805324	0	0
2024-05-04 12:50:32			0	33081	0	0	0	17940	16610	156741	27682	962587	38501	106522	0	0	8104	802568	0	0
2024-05-04 12:51:32			0	33090	0	0	0	17950	16600	156737	27710	962500	38490	106526	0	0	8105	802144	0	0
2024-05-04 12:52:32			0	33059	0	0	0	17948	16600	157025	27274	962545	38501	106525	0	0	8103	803754	0	0
2024-05-04 12:53:32			0	33013	0	0	0	17945	16600	157097	27495	962518	38501	106524	0	0	8100	806149	0	0
2024-05-04 12:54:32			0	32987	0	0	0	17927	16600	157165	27415	962526	38490	106517	0	0	8099	807505	0	0
2024-05-04 12:55:32			0	33003	0	0	0	17916	16590	157249	27774	962475	38490	106513	0	0	8100	806714	0	0
2024-05-04 12:56:32			0	32981	0	0	0	17914	16590	157293	27493	962502	38511	106512	0	0	8098	807862	0	0
2024-05-04 12:57:32			0	33011	0	0	0	17862	16580	157133	27441	962406	38499	106492	0	0	8101	806341	0	0
2024-05-04 12:58:32			0	33037	0	0	0	17844	16580	157029	27369	962441	38510	106485	0	0	8103	804986	0	0
2024-05-04 12:59:32			0	33048	0	0	0	17932	16560	156781	27483	962382	38498	106519	0	0	8102	804501	0	0
2024-05-04 13:00:32			0	33028	0	0	0	17942	16570	157049	27514	962424	38488	106523	0	0	8101	805498	0	0
2024-05-04 13:01:32			0	32977	0	0	0	17937	16580	157309	27211	962459	38509	106521	0	0	8098	808115	0	0
2024-05-04 13:02:32			0	32962	0	0	0	17937	16570	157441	27634	962451	38509	106521	0	0	8097	808942	0	0
2024-05-04 13:03:32			0	32996	0	0	0	17875	16570	157261	27417	962451	38509	106497	0	0	8100	807167	0	0
2024-05-04 13:04:32			0	33057	0	0	0	17958	16560	157037	27267	962434	38498	106529	0	0	8102	804032	0	0
2024-05-04 13:05:32			0	33056	0	0	0	17945	16570	156977	27776	962477	38488	106524	0	0	8102	804041	0	0
2024-05-04 13:06:32			0	33052	0	0	0	18015	16580	157045	27554	962520	38510	106551	0	0	8101	804206	0	0
2024-05-04 13:07:32			0	32998	0	0	0	18028	16590	157125	27632	962642	38511	106556	0	0	8098	806975	0	0
2024-05-04 13:08:32			0	33000	0	0	0	18064	16610	157325	27313	962640	38524	106570	0	0	8097	806783	0	0
2024-05-04 13:09:32			0	32971	0	0	0	18067	16610	157357	27630	962746	38524	106571	0	0	8095	808297	0	0
2024-05-04 13:10:32			0	32957	0	0	0	18044	16620	157305	27329	962797	38525	106562	0	0	8095	808985	0	0
2024-05-04 13:11:32			0	32956	0	0	0	17955	16620	157333	27428	962630	38513	106528	0	0	8096	809037	0	0
2024-05-04 13:12:32			0	32918	0	0	0	17953	16620	157429	27533	962577	38513	106527	0	0	8094	811026	0	0
2024-05-04 13:13:32			0	32889	0	0	0	17963	16610	157529	27606	962595	38501	106531	0	0	8092	812590	0	0
2024-05-04 13:14:32			0	32880	0	0	0	17924	16610	157617	27455	962595	38491	106516	0	0	8092	813062	0	0
2024-05-04 13:15:32			0	32891	0	0	0	17937	16600	157701	27646	962492	38523	106521	0	0	8093	812529	0	0
2024-05-04 13:16:32			0	32876	0	0	0	17950	16600	157845	27575	962526	38512	106526	0	0	8092	813316	0	0
2024-05-04 13:17:32			0	32842	0	0	0	17935	16590	157937	27547	962484	38490	106520	0	0	8090	815148	0	0
2024-05-04 13:18:32			0	32857	0	0	0	17976	16590	157801	27376	962563	38522	106536	0	0	8090	814359	0	0
2024-05-04 13:19:32			0	32858	0	0	0	17942	16600	157833	27514	962571	38523	106523	0	0	8091	814262	0	0
2024-05-04 13:20:32			0	32902	0	0	0	17968	16590	157717	27512	962510	38500	106533	0	0	8093	811996	0	0
2024-05-04 13:21:32			0	32877	0	0	0	17955	16600	157673	27770	962597	38501	106528	0	0	8092	813264	0	0
2024-05-04 13:22:32			0	32919	0	0	0	17966	16600	157653	27282	962632	38512	106532	0	0	8094	811061	0	0
2024-05-04 13:23:32			0	32939	0	0	0	17966	16600	157537	27353	962579	38512	106532	0	0	8095	810014	0	0
2024-05-04 13:24:32			0	32973	0	0	0	17911	16610	157209	27549	962614	38513	106511	0	0	8098	808193	0	0
2024-05-04 13:25:32			0	33037	0	0	0	17909	16610	156909	27379	962675	38513	106510	0	0	8102	804856	0	0
2024-05-04 13:26:32			0	33105	0	0	0	17914	16620	156645	27315	962665	38502	106512	0	0	8106	801279	0	0
2024-05-04 13:27:32			0	33159	0	0	0	17989	16620	156437	27336	962665	38502	106541	0	0	8108	798482	0	0
2024-05-04 13:28:32			0	33149	0	0	0	17927	16630	156381	27338	962726	38514	106517	0	0	8109	798956	0	0
2024-05-04 13:29:32			0	33217	0	0	0	17880	16630	156065	27578	962647	38503	106499	0	0	8114	795445	0	0
2024-05-04 13:30:32			0	33267	0	0	0	17922	16650	155925	27654	962767	38516	106515	0	0	8116	792785	0	0
2024-05-04 13:31:32			0	33243	0	0	0	17953	16620	155969	27616	962665	38502	106527	0	0	8114	794148	0	0
2024-05-04 13:32:32			0	33239	0	0	0	17883	16640	155981	27826	962690	38504	106500	0	0	8115	794268	0	0
2024-05-04 13:33:32			0	33280	0	0	0	17818	16630	155885	27471	962602	38493	106475	0	0	8118	792203	0	0
2024-05-04 13:34:32			0	33316	0	0	0	17831	16620	155757	27642	962630	38502	106480	0	0	8120	790398	0	0
2024-05-04 13:35:32			0	33355	0	0	0	17844	16610	155461	27293	962516	38513	106485	0	0	8122	788442	0	0
2024-05-04 13:36:32			0	33362	0	0	0	17935	16620	155421	27396	962630	38481	106520	0	0	8121	788042	0	0
2024-05-04 13:37:32			0	33300	0	0	0	17833	16610	155721	27357	962569	38501	106481	0	0	8119	791261	0	0
2024-05-04 13:38:32			0	33336	0	0	0	17802	16600	155557	27386	962447	38479	106469	0	0	8122	789458	0	0
2024-05-04 13:39:32			0	33367	0	0	0	17935	16600	155561	27658	962492	38512	106520	0	0	8121	787871	0	0
2024-05-04 13:40:32			0	33312	0	0	0	17820	16580	155713	27261	962494	38478	106476	0	0	8120	790774	0	0
2024-05-04 13:41:32			0	33391	0	0	0	17877	16590	155381	27346	962484	38500	106498	0	0	8124	786687	0	0
2024-05-04 13:42:32			0	33387	0	0	0	17971	16590	155433	27431	962484	38490	106534	0	0	8122	786891	0	0
2024-05-04 13:43:32			0	33299	0	0	0	17971	16590	155833	27471	962502	38490	106534	0	0	8117	791398	0	0
2024-05-04 13:44:32			0	33236	0	0	0	17997	16600	156289	27431	962571	38512	106544	0	0	8113	794595	0	0
2024-05-04 13:45:32			0	33187	0	0	0	17893	16590	156513	27152	962536	38490	106504	0	0	8111	797165	0	0
2024-05-04 13:46:32			0	33183	0	0	0	17929	16590	156345	27452	962536	38511	106518	0	0	8110	797372	0	0
2024-05-04 13:47:32			0	33176	0	0	0	17916	16600	156409	27327	962571	38490	106513	0	0	8110	797690	0	0
2024-05-04 13:48:32			0	33192	0	0	0	17919	16600	156273	27308	962526	38490	106514	0	0	8111	796864	0	0
2024-05-04 13:49:32			0	33214	0	0	0	17781	16590	156185	27384	962423	38500	106461	0	0	8115	795772	0	0
2024-05-04 13:50:32			0	33332	0	0	0	17940	16580	155653	27357	962414	38489	106522	0	0	8119	789748	0	0
2024-05-04 13:51:32			0	33322	0	0	0	17781	16570	155549	27381	962337	38488	106461	0	0	8121	790304	0	0
2024-05-04 13:52:32			0	33422	0	0	0	17781	16580	155301	27547	962380	38488	106461	0	0	8127	785147	0	0
2024-05-04 13:53:32			0	33444	0	0	0	17802	16550	155101	27521	962339	38507	106469	0	0	8128	784153	0	0
2024-05-04 13:54:32			0	33370	0	0	0	17932	16570	155557	27319	962364	38488	106519	0	0	8121	787846	0	0
2024-05-04 13:55:32			0	33260	0	0	0	17898	16540	156053	27689	962323	38474	106506	0	0	8115	793617	0	0
2024-05-04 13:56:32			0	33203	0	0	0	17877	16550	156305	27511	962339	38475	106498	0	0	8112	796511	0	0
2024-05-04 13:57:32			0	33160	0	0	0	17906	16550	156477	27803	962365	38507	106509	0	0	8109	798733	0	0
2024-05-04 13:58:32			0	33124	0	0	0	17935	16560	156685	27802	962374	38486	106520	0	0	8107	800554	0	0
2024-05-04 13:59:32			0	33087	0	0	0	17955	16550	157033	27490	962365	38486	106528	0	0	8104	802517	0	0
2024-05-04 14:00:32			0	33023	0	0	0	17867	16560	157237	27346	962400	38475	106494	0	0	8102	805803	0	0
2024-05-04 14:01:32			0	32982	0	0	0	17820	16540	157397	27582	962296	38485	106476	0	0	8100	808029	0	0
2024-05-04 14:02:32			0	33011	0	0	0	17849	16540	157277	27364	962217	38485	106487	0	0	8101	806515	0	0
2024-05-04 14:03:32			0	33014	0	0	0	17841	16530	157257	27220	962219	38472	106484	0	0	8101	806402	0	0
2024-05-04 14:04:32			0	33039	0	0	0	17833	16530	157093	27336	962253	38473	106481	0	0	8103	805100	0	0
2024-05-04 14:05:32			0	33068	0	0	0	17849	16520	156989	27654	962211	38505	106487	0	0	8105	803634	0	0
2024-05-04 14:06:32			0	33077	0	0	0	17786	16530	156925	27374	962272	38484	106463	0	0	8106	803123	0	0
2024-05-04 14:07:32			0	33101	0	0	0	17792	16530	156733	27509	962227	38485	106465	0	0	8108	801877	0	0
2024-05-04 14:08:32			0	33164	0	0	0	17781	16530	156521	27492	962253	38496	106461	0	0	8112	798613	0	0
2024-05-04 14:09:32			0	33233	0	0	0	17740	16520	156153	27571	962123	38472	106445	0	0	8116	795093	0	0
2024-05-04 14:10:32			0	33295	0	0	0	17735	16510	155773	27293	962089	38460	106443	0	0	8120	791946	0	0
2024-05-04 14:11:32			0	33384	0	0	0	17716	16500	155489	27590	962038	38459	106436	0	0	8126	787428	0	0
2024-05-04 14:12:32			0	33463	0	0	0	17719	16490	155061	27734	961950	38469	106437	0	0	8130	783439	0	0
2024-05-04 14:13:32			0	33496	0	0	0	17719	16480	154869	27779	961881	38480	106437	0	0	8132	781803	0	0
2024-05-04 14:14:32			0	33541	0	0	0	17706	16460	154685	27682	961928	38445	106432	0	0	8135	779602	0	0
2024-05-04 14:15:32			0	33585	0	0	0	17709	16450	154490	27965	961832	38456	106433	0	0	8137	777415	0	0
2024-05-04 14:16:32			0	33642	0	0	0	17719	16440	154306	27885	961877	38465	106437	0	0	8141	774577	0	0
2024-05-04 14:17:32			0	33663	0	0	0	17703	16440	154174	27833	961816	38465	106431	0	0	8142	773518	0	0
2024-05-04 14:18:32			0	33683	0	0	0	17714	16430	154226	27744	961720	38464	106435	0	0	8143	772552	0	0
2024-05-04 14:19:32			0	33681	0	0	0	17706	16420	154010	27814	961765	38453	106432	0	0	8143	772695	0	0
2024-05-04 14:20:32			0	33717	0	0	0	17701	16400	153986	27486	961679	38462	106430	0	0	8145	770967	0	0
2024-05-04 14:21:32			0	33740	0	0	0	17703	16390	153898	28060	961716	38451	106431	0	0	8146	769853	0	0
2024-05-04 14:22:32			0	33756	0	0	0	17706	16400	153874	27987	961671	38451	106432	0	0	8147	769009	0	0
2024-05-04 14:23:32			0	33769	0	0	0	17711	16390	153870	27909	961655	38450	106434	0	0	8148	768398	0	0
2024-05-04 14:24:32			0	33752	0	0	0	17735	16380	153994	27744	961718	38449	106443	0	0	8146	769293	0	0
2024-05-04 14:25:32			0	33762	0	0	0	17729	16390	153822	27751	961742	38451	106441	0	0	8147	768749	0	0
2024-05-04 14:26:32			0	33768	0	0	0	17714	16390	153698	27933	961716	38462	106435	0	0	8148	768448	0	0
2024-05-04 14:27:32			0	33793	0	0	0	17714	16390	153650	27621	961708	38461	106435	0	0	8149	767196	0	0
2024-05-04 14:28:32			0	33803	0	0	0	17724	16380	153614	27786	961726	38450	106439	0	0	8150	766737	0	0
2024-05-04 14:29:32			0	33810	0	0	0	17716	16380	153522	27715	961665	38459	106436	0	0	8150	766386	0	0
2024-05-04 14:30:32			0	33806	0	0	0	17722	16370	153558	27769	961683	38459	106438	0	0	8150	766628	0	0
2024-05-04 14:31:32			0	33834	0	0	0	17719	16380	153610	27963	961665	38449	106437	0	0	8152	765186	0	0
2024-05-04 14:32:32			0	33817	0	0	0	17711	16360	153506	27656	961640	38448	106434	0	0	8151	766119	0	0
2024-05-04 14:33:32			0	33843	0	0	0	17716	16380	153482	28397	961691	38459	106436	0	0	8152	764737	0	0
2024-05-04 14:34:32			0	33852	0	0	0	17714	16360	153566	27991	961640	38458	106435	0	0	8153	764370	0	0
2024-05-04 14:35:32			0	33844	0	0	0	17709	16360	153526	28081	961640	38458	106433	0	0	8152	764769	0	0
2024-05-04 14:36:32			0	33819	0	0	0	17714	16360	153554	27968	961605	38447	106435	0	0	8151	766019	0	0
2024-05-04 14:37:32			0	33832	0	0	0	17709	16360	153454	27895	961658	38468	106433	0	0	8152	765369	0	0
2024-05-04 14:38:32			0	33839	0	0	0	17709	16360	153546	28211	961632	38447	106433	0	0	8152	765019	0	0
2024-05-04 14:39:32			0	33825	0	0	0	17716	16340	153534	27663	961554	38457	106436	0	0	8151	765802	0	0
2024-05-04 14:40:32			0	33833	0	0	0	17711	16350	153490	28117	961597	38468	106434	0	0	8151	765361	0	0
2024-05-04 14:41:32			0	33848	0	0	0	17714	16350	153534	27729	961615	38458	106435	0	0	8152	764611	0	0
2024-05-04 14:42:32			0	33848	0	0	0	17706	16340	153530	28058	961581	38457	106432	0	0	8152	764652	0	0
2024-05-04 14:43:32			0	33841	0	0	0	17714	16350	153486	27765	961589	38458	106435	0	0	8152	764961	0	0
2024-05-04 14:44:32			0	33869	0	0	0	17719	16340	153430	27734	961554	38457	106437	0	0	8153	763604	0	0
2024-05-04 14:45:32			0	33864	0	0	0	17719	16340	153478	28060	961581	38457	106437	0	0	8153	763854	0	0
2024-05-04 14:46:32			0	33868	0	0	0	17722	16350	153434	28239	961563	38458	106438	0	0	8153	763613	0	0
2024-05-04 14:47:32			0	33878	0	0	0	17711	16350	153454	28003	961563	38458	106434	0	0	8154	763114	0	0
2024-05-04 14:48:32			0	33874	0	0	0	17716	16340	153406	27939	961573	38457	106436	0	0	8154	763355	0	0
2024-05-04 14:49:32			0	33869	0	0	0	17727	16350	153354	27554	961615	38480	106440	0	0	8153	763563	0	0
2024-05-04 14:50:32			0	33872	0	0	0	17724	16340	153322	27471	961546	38467	106439	0	0	8153	763455	0	0
2024-05-04 14:51:32			0	33885	0	0	0	17735	16340	153322	27689	961660	38457	106443	0	0	8154	762806	0	0
2024-05-04 14:52:32			0	33893	0	0	0	17727	16360	153186	27684	961605	38458	106440	0	0	8155	762325	0	0
2024-05-04 14:53:32			0	33918	0	0	0	17745	16350	153242	27684	961650	38468	106447	0	0	8156	761122	0	0
2024-05-04 14:54:32			0	33930	0	0	0	17763	16350	153210	27699	961650	38468	106454	0	0	8156	760525	0	0
2024-05-04 14:55:32			0	33952	0	0	0	17771	16360	153150	27907	961737	38468	106457	0	0	8157	759390	0	0
2024-05-04 14:56:32			0	33951	0	0	0	17758	16360	152962	27753	961719	38469	106452	0	0	8158	759440	0	0
2024-05-04 14:57:32			0	33969	0	0	0	17750	16370	152910	28258	961701	38459	106449	0	0	8159	758505	0	0
2024-05-04 14:58:32			0	33981	0	0	0	17748	16370	152898	27587	961674	38470	106448	0	0	8160	757910	0	0
2024-05-04 14:59:32			0	33970	0	0	0	17735	16360	152894	27847	961666	38491	106443	0	0	8159	758497	0	0
2024-05-04 15:00:32			0	33975	0	0	0	17740	16360	152914	27862	961666	38458	106445	0	0	8159	758249	0	0
2024-05-04 15:01:32			0	33981	0	0	0	17735	16360	152826	28024	961658	38468	106443	0	0	8160	757951	0	0
2024-05-04 15:02:32			0	33971	0	0	0	17722	16370	152834	27899	961683	38470	106438	0	0	8159	758406	0	0
2024-05-04 15:03:32			0	33956	0	0	0	17724	16370	152826	27880	961657	38470	106439	0	0	8159	759151	0	0
2024-05-04 15:04:32			0	33943	0	0	0	17742	16370	152950	27751	961683	38459	106446	0	0	8157	759796	0	0
2024-05-04 15:05:32			0	33963	0	0	0	17748	16370	152954	28461	961683	38470	106448	0	0	8159	758803	0	0
2024-05-04 15:06:32			0	33965	0	0	0	17745	16360	152926	28015	961684	38468	106447	0	0	8159	758745	0	0
2024-05-04 15:07:32			0	33963	0	0	0	17735	16370	152942	28188	961674	38470	106443	0	0	8159	758803	0	0
2024-05-04 15:08:32			0	33985	0	0	0	17735	16370	152946	28072	961701	38470	106443	0	0	8160	757712	0	0
2024-05-04 15:09:32			0	33957	0	0	0	17748	16370	153002	28065	961762	38470	106448	0	0	8158	759101	0	0
2024-05-04 15:10:32			0	33953	0	0	0	17737	16380	152926	27880	961744	38470	106444	0	0	8158	759259	0	0
2024-05-04 15:11:32			0	33971	0	0	0	17735	16370	152858	27982	961736	38449	106443	0	0	8159	758406	0	0
2024-05-04 15:12:32			0	33972	0	0	0	17737	16370	152878	27895	961736	38459	106444	0	0	8159	758357	0	0
2024-05-04 15:13:32			0	33958	0	0	0	17737	16370	152842	27854	961709	38492	106444	0	0	8158	759051	0	0
2024-05-04 15:14:32			0	33962	0	0	0	17745	16370	152906	27866	961736	38459	106447	0	0	8159	758853	0	0
2024-05-04 15:15:32			0	33951	0	0	0	17745	16380	152946	27942	961770	38470	106447	0	0	8158	759358	0	0
2024-05-04 15:16:32			0	33967	0	0	0	17758	16380	152914	28218	961770	38481	106452	0	0	8159	758564	0	0
2024-05-04 15:17:32			0	33973	0	0	0	17792	16370	152822	28069	961788	38470	106465	0	0	8158	758307	0	0
2024-05-04 15:18:32			0	33978	0	0	0	17823	16400	152834	28579	961829	38473	106477	0	0	8158	757936	0	0
2024-05-04 15:19:32			0	33999	0	0	0	17820	16390	152814	28091	961927	38484	106476	0	0	8159	756936	0	0
2024-05-04 15:20:32			0	34024	0	0	0	17836	16420	152806	28024	962055	38507	106482	0	0	8161	755576	0	0
2024-05-04 15:21:32			0	34017	0	0	0	17903	16450	152706	28227	962201	38509	106508	0	0	8159	755800	0	0
2024-05-04 15:22:32			0	34021	0	0	0	17867	16480	152606	28055	962348	38501	106494	0	0	8160	755479	0	0
2024-05-04 15:23:32			0	34050	0	0	0	17927	16480	152594	28081	962356	38502	106517	0	0	8161	754046	0	0
2024-05-04 15:24:32			0	34064	0	0	0	17968	16510	152606	27460	962582	38514	106533	0	0	8161	753233	0	0
2024-05-04 15:25:32			0	34047	0	0	0	17999	16530	152482	28001	962588	38516	106545	0	0	8160	753990	0	0
2024-05-04 15:26:32			0	33975	0	0	0	18018	16560	152914	27939	962795	38507	106552	0	0	8156	757429	0	0
2024-05-04 15:27:32			0	33926	0	0	0	18025	16580	153166	28088	962863	38521	106555	0	0	8153	759778	0	0
2024-05-04 15:28:32			0	33898	0	0	0	18031	16600	153250	28256	962922	38534	106557	0	0	8151	761088	0	0
2024-05-04 15:29:32			0	33838	0	0	0	18083	16620	153426	27970	962981	38536	106577	0	0	8147	763994	0	0
2024-05-04 15:30:32			0	33749	0	0	0	18116	16650	153750	28096	963075	38516	106590	0	0	8141	768320	0	0
2024-05-04 15:31:32			0	33685	0	0	0	18135	16660	154142	28027	963100	38529	106597	0	0	8137	771491	0	0
2024-05-04 15:32:32			0	33634	0	0	0	18145	16680	154302	27705	963151	38530	106601	0	0	8134	773975	0	0
2024-05-04 15:33:32			0	33576	0	0	0	18174	16700	154694	28013	963263	38531	106612	0	0	8130	776819	0	0
2024-05-04 15:34:32			0	33517	0	0	0	18124	16710	154829	27890	963314	38533	106593	0	0	8128	779765	0	0
2024-05-04 15:35:32			0	33495	0	0	0	18122	16730	154893	28069	963391	38535	106592	0	0	8126	780797	0	0
2024-05-04 15:36:32			0	33469	0	0	0	18145	16730	155077	27942	963320	38545	106601	0	0	8125	782117	0	0
2024-05-04 15:37:32			0	33401	0	0	0	18127	16740	155421	28140	963355	38535	106594	0	0	8121	785538	0	0
2024-05-04 15:38:32			0	33360	0	0	0	18098	16760	155425	27900	963512	38536	106583	0	0	8119	787547	0	0
2024-05-04 15:39:32			0	33334	0	0	0	17971	16760	155565	28072	963388	38547	106534	0	0	8120	788877	0	0
2024-05-04 15:40:32			0	33355	0	0	0	18059	16770	155321	27977	963457	38527	106568	0	0	8119	787760	0	0
2024-05-04 15:41:32			0	33394	0	0	0	17966	16770	155313	28138	963396	38504	106532	0	0	8123	785767	0	0
2024-05-04 15:42:32			0	33427	0	0	0	17999	16770	155189	27914	963325	38538	106545	0	0	8125	784085	0	0
2024-05-04 15:43:32			0	33446	0	0	0	17924	16790	155073	27822	963429	38539	106516	0	0	8127	783033	0	0
2024-05-04 15:44:32			0	33513	0	0	0	17909	16790	154681	28022	963490	38518	106510	0	0	8131	779630	0	0
2024-05-04 15:45:32			0	33576	0	0	0	17979	16790	154422	28187	963455	38539	106537	0	0	8134	776441	0	0
2024-05-04 15:46:32			0	33622	0	0	0	17914	16790	154234	28027	963358	38540	106512	0	0	8138	774119	0	0
2024-05-04 15:47:32			0	33647	0	0	0	18049	16800	154246	28216	963498	38541	106564	0	0	8137	772818	0	0
2024-05-04 15:48:32			0	33636	0	0	0	17966	16800	154110	28469	963445	38541	106532	0	0	8138	773371	0	0
2024-05-04 15:49:32			0	33651	0	0	0	18036	16800	154090	28067	963506	38518	106559	0	0	8137	772616	0	0
2024-05-04 15:50:32			0	33671	0	0	0	18059	16820	154106	28259	963531	38520	106568	0	0	8138	771526	0	0
2024-05-04 15:51:32			0	33660	0	0	0	18101	16830	154142	28003	963600	38509	106584	0	0	8137	772038	0	0
2024-05-04 15:52:32			0	33654	0	0	0	18114	16820	154082	27876	963671	38520	106589	0	0	8136	772382	0	0
2024-05-04 15:53:32			0	33681	0	0	0	18096	16840	153818	28008	963704	38534	106582	0	0	8138	770940	0	0
2024-05-04 15:54:32			0	33703	0	0	0	18129	16850	153734	28077	963738	38512	106595	0	0	8139	769794	0	0
2024-05-04 15:55:32			0	33679	0	0	0	18163	16850	153858	27881	963773	38534	106608	0	0	8137	770999	0	0
2024-05-04 15:56:32			0	33664	0	0	0	18158	16870	153950	28124	963798	38546	106606	0	0	8137	771669	0	0
2024-05-04 15:57:32			0	33685	0	0	0	18090	16870	153830	28232	963859	38557	106580	0	0	8139	770614	0	0
2024-05-04 15:58:32			0	33695	0	0	0	18036	16890	153762	28013	963831	38547	106559	0	0	8140	770028	0	0
2024-05-04 15:59:32			0	33685	0	0	0	18166	16900	153682	28455	963900	38538	106609	0	0	8138	770489	0	0
2024-05-04 16:00:32			0	33657	0	0	0	18023	16900	153974	28357	963874	38538	106554	0	0	8139	771896	0	0
2024-05-04 16:01:32			0	33693	0	0	0	18036	16900	153782	27968	963821	38548	106559	0	0	8140	770087	0	0
2024-05-04 16:02:32			0	33746	0	0	0	17932	16910	153486	28211	963898	38550	106519	0	0	8145	767389	0	0
2024-05-04 16:03:32			0	33780	0	0	0	18038	16910	153346	28299	963872	38550	106560	0	0	8146	765688	0	0
2024-05-04 16:04:32			0	33734	0	0	0	17994	16910	153438	27888	963793	38518	106543	0	0	8144	767990	0	0
2024-05-04 16:05:32			0	33764	0	0	0	18036	16910	153514	27807	963845	38518	106559	0	0	8145	766488	0	0
2024-05-04 16:06:32			0	33806	0	0	0	18005	16910	153222	28145	963766	38518	106547	0	0	8148	764390	0	0
2024-05-04 16:07:32			0	33850	0	0	0	17974	16900	152878	28084	963794	38505	106535	0	0	8151	762239	0	0
2024-05-04 16:08:32			0	33919	0	0	0	17968	16890	152626	28580	963654	38515	106533	0	0	8155	758851	0	0
2024-05-04 16:09:32			0	33972	0	0	0	17945	16870	152434	28246	963542	38513	106524	0	0	8158	756307	0	0
2024-05-04 16:10:32			0	34006	0	0	0	17906	16870	152310	28197	963402	38492	106509	0	0	8161	754626	0	0
2024-05-04 16:11:32			0	34038	0	0	0	17890	16840	152190	27840	963334	38490	106503	0	0	8163	753169	0	0
2024-05-04 16:12:32			0	34049	0	0	0	17883	16820	152046	28558	963196	38477	106500	0	0	8163	752708	0	0
2024-05-04 16:13:32			0	34065	0	0	0	17867	16810	152178	27907	963048	38476	106494	0	0	8165	751961	0	0
2024-05-04 16:14:32			0	34081	0	0	0	17851	16780	151958	27959	963051	38473	106488	0	0	8166	751295	0	0
2024-05-04 16:15:32			0	34080	0	0	0	17984	16770	152114	28192	963027	38472	106539	0	0	8163	751385	0	0
2024-05-04 16:16:32			0	34033	0	0	0	17989	16760	152318	27665	962984	38471	106541	0	0	8160	753742	0	0
2024-05-04 16:17:32			0	33956	0	0	0	17976	16740	152762	28455	962986	38469	106536	0	0	8156	757632	0	0
2024-05-04 16:18:32			0	33887	0	0	0	17966	16730	153038	28020	962969	38469	106532	0	0	8152	761099	0	0
2024-05-04 16:19:32			0	33834	0	0	0	17966	16710	153362	27973	962918	38478	106532	0	0	8149	763821	0	0
2024-05-04 16:20:32			0	33790	0	0	0	17971	16710	153462	28034	962910	38478	106534	0	0	8146	766019	0	0
2024-05-04 16:21:32			0	33805	0	0	0	17963	16690	153534	27866	962833	38477	106531	0	0	8147	765352	0	0
2024-05-04 16:22:32			0	33773	0	0	0	17963	16690	153566	28072	962859	38466	106531	0	0	8145	766952	0	0
2024-05-04 16:23:32			0	33768	0	0	0	17968	16680	153598	28032	962843	38487	106533	0	0	8145	767244	0	0
2024-05-04 16:24:32			0	33751	0	0	0	17968	16680	153778	28105	962834	38486	106533	0	0	8144	768095	0	0
2024-05-04 16:25:32			0	33724	0	0	0	17963	16670	153746	28374	962853	38475	106531	0	0	8142	769491	0	0
2024-05-04 16:26:32			0	33697	0	0	0	17963	16670	153886	28006	962791	38496	106531	0	0	8141	770846	0	0
2024-05-04 16:27:32			0	33677	0	0	0	17961	16660	154074	28031	962801	38484	106530	0	0	8140	771894	0	0
2024-05-04 16:28:32			0	33651	0	0	0	17958	16660	154062	28025	962810	38496	106529	0	0	8138	773202	0	0
2024-05-04 16:29:32			0	33650	0	0	0	17953	16660	154258	28053	962757	38485	106527	0	0	8138	773253	0	0
2024-05-04 16:30:32			0	33638	0	0	0	17942	16650	154218	28570	962740	38484	106523	0	0	8138	773899	0	0
2024-05-04 16:31:32			0	33621	0	0	0	17950	16650	154370	28076	962732	38484	106526	0	0	8136	774757	0	0
2024-05-04 16:32:32			0	33612	0	0	0	17955	16640	154414	28077	962777	38483	106528	0	0	8136	775253	0	0
2024-05-04 16:33:32			0	33593	0	0	0	17955	16650	154558	27921	962759	38484	106528	0	0	8135	776170	0	0
2024-05-04 16:34:32			0	33577	0	0	0	17958	16640	154614	28353	962724	38504	106529	0	0	8134	777021	0	0
2024-05-04 16:35:32			0	33588	0	0	0	17953	16640	154530	27984	962698	38494	106527	0	0	8134	776465	0	0
2024-05-04 16:36:32			0	33563	0	0	0	17961	16640	154593	27859	962777	38483	106530	0	0	8133	777729	0	0
2024-05-04 16:37:32			0	33579	0	0	0	17963	16650	154666	27864	962811	38495	106531	0	0	8134	776878	0	0
2024-05-04 16:38:32			0	33584	0	0	0	17958	16640	154598	28006	962750	38494	106529	0	0	8134	776667	0	0
2024-05-04 16:39:32			0	33575	0	0	0	17950	16640	154518	27845	962742	38483	106526	0	0	8134	777122	0	0
2024-05-04 16:40:32			0	33579	0	0	0	17953	16630	154630	27871	962734	38482	106527	0	0	8134	776962	0	0
2024-05-04 16:41:32			0	33582	0	0	0	17950	16630	154578	27932	962760	38493	106526	0	0	8134	776810	0	0
2024-05-04 16:42:32			0	33581	0	0	0	17950	16630	154614	27954	962726	38482	106526	0	0	8134	776861	0	0
2024-05-04 16:43:32			0	33575	0	0	0	17945	16630	154610	27982	962708	38493	106524	0	0	8134	777164	0	0
2024-05-04 16:44:32			0	33566	0	0	0	17950	16630	154657	27699	962726	38482	106526	0	0	8133	777620	0	0
2024-05-04 16:45:32			0	33557	0	0	0	17945	16630	154673	27523	962726	38503	106524	0	0	8133	778075	0	0
2024-05-04 16:46:32			0	33554	0	0	0	17955	16630	154653	28369	962647	38514	106528	0	0	8132	778227	0	0
2024-05-04 16:47:32			0	33558	0	0	0	17953	16620	154709	28003	962718	38481	106527	0	0	8133	778067	0	0
2024-05-04 16:48:32			0	33547	0	0	0	17953	16640	154693	27881	962769	38504	106527	0	0	8132	778539	0	0
2024-05-04 16:49:32			0	33564	0	0	0	17950	16630	154625	28169	962752	38514	106526	0	0	8133	777721	0	0
2024-05-04 16:50:32			0	33564	0	0	0	17953	16630	154617	28171	962700	38514	106527	0	0	8133	777721	0	0
2024-05-04 16:51:32			0	33581	0	0	0	17950	16630	154562	28145	962734	38493	106526	0	0	8134	776861	0	0
2024-05-04 16:52:32			0	33584	0	0	0	17942	16620	154606	27940	962691	38481	106523	0	0	8134	776751	0	0
2024-05-04 16:53:32			0	33590	0	0	0	17955	16630	154634	27953	962700	38514	106528	0	0	8134	776406	0	0
2024-05-04 16:54:32			0	33579	0	0	0	17958	16620	154590	28017	962762	38513	106529	0	0	8134	777004	0	0
2024-05-04 16:55:32			0	33577	0	0	0	17966	16630	154585	27880	962752	38493	106532	0	0	8133	777063	0	0
2024-05-04 16:56:32			0	33606	0	0	0	17963	16620	154574	27894	962718	38513	106531	0	0	8135	775640	0	0
2024-05-04 16:57:32			0	33601	0	0	0	17974	16640	154510	27926	962750	38494	106535	0	0	8135	775808	0	0
2024-05-04 16:58:32			0	33607	0	0	0	17981	16630	154402	27913	962734	38514	106538	0	0	8135	775547	0	0
2024-05-04 16:59:32			0	33643	0	0	0	17976	16640	154366	27982	962769	38515	106536	0	0	8137	773689	0	0
2024-05-04 17:00:32			0	33653	0	0	0	17992	16640	154290	27909	962769	38504	106542	0	0	8138	773185	0	0
2024-05-04 17:01:32			0	33674	0	0	0	17997	16640	154122	27817	962750	38504	106544	0	0	8139	772128	0	0
2024-05-04 17:02:32			0	33702	0	0	0	17997	16650	154022	27855	962811	38516	106544	0	0	8140	770678	0	0
2024-05-04 17:03:32			0	33701	0	0	0	17994	16640	153998	27855	962830	38494	106543	0	0	8140	770770	0	0
2024-05-04 17:04:32			0	33728	0	0	0	17994	16650	153814	28435	962872	38495	106543	0	0	8142	769373	0	0
2024-05-04 17:05:32			0	33733	0	0	0	17997	16650	153806	27874	962891	38495	106544	0	0	8142	769122	0	0
2024-05-04 17:06:32			0	33763	0	0	0	17992	16640	153650	27894	962909	38494	106542	0	0	8144	767660	0	0
2024-05-04 17:07:32			0	33760	0	0	0	17992	16650	153646	28154	962872	38495	106542	0	0	8144	767769	0	0
2024-05-04 17:08:32			0	33773	0	0	0	17992	16650	153686	28103	962846	38505	106542	0	0	8145	767118	0	0
2024-05-04 17:09:32			0	33767	0	0	0	17989	16650	153562	28036	962864	38516	106541	0	0	8144	767419	0	0
2024-05-04 17:10:32			0	33775	0	0	0	17989	16660	153614	27828	962862	38518	106541	0	0	8145	766976	0	0
2024-05-04 17:11:32			0	33806	0	0	0	17981	16650	153518	28216	962838	38495	106538	0	0	8147	765468	0	0
2024-05-04 17:12:32			0	33779	0	0	0	17966	16650	153414	28230	962846	38516	106532	0	0	8145	766818	0	0
2024-05-04 17:13:32			0	33755	0	0	0	17976	16650	153754	28161	962785	38516	106536	0	0	8144	768019	0	0
2024-05-04 17:14:32			0	33736	0	0	0	17968	16650	153706	28114	962838	38516	106533	0	0	8143	768972	0	0
2024-05-04 17:15:32			0	33723	0	0	0	17976	16640	153806	27985	962777	38483	106536	0	0	8142	769666	0	0
2024-05-04 17:16:32			0	33717	0	0	0	17974	16640	153746	27996	962777	38504	106535	0	0	8142	769967	0	0
2024-05-04 17:17:32			0	33716	0	0	0	17953	16650	153982	27862	962785	38516	106527	0	0	8142	769975	0	0
2024-05-04 17:18:32			0	33699	0	0	0	17971	16640	153914	27795	962769	38494	106534	0	0	8141	770871	0	0
2024-05-04 17:19:32			0	33710	0	0	0	17966	16630	153994	28195	962787	38503	106532	0	0	8141	770360	0	0
2024-05-04 17:20:32			0	33696	0	0	0	17971	16650	153950	27920	962811	38495	106534	0	0	8140	770980	0	0
2024-05-04 17:21:32			0	33714	0	0	0	17976	16640	153942	27810	962856	38515	106536	0	0	8141	770117	0	0
2024-05-04 17:22:32			0	33697	0	0	0	17981	16640	154022	27909	962795	38504	106538	0	0	8140	770972	0	0
2024-05-04 17:23:32			0	33700	0	0	0	17981	16640	153950	28070	962777	38494	106538	0	0	8141	770821	0	0
2024-05-04 17:24:32			0	33713	0	0	0	17976	16640	154018	28204	962777	38483	106536	0	0	8141	770168	0	0
2024-05-04 17:25:32			0	33711	0	0	0	17976	16640	153930	27672	962777	38515	106536	0	0	8141	770268	0	0
2024-05-04 17:26:32			0	33730	0	0	0	17968	16640	153858	28154	962803	38515	106533	0	0	8142	769314	0	0
2024-05-04 17:27:32			0	33719	0	0	0	17986	16650	153766	27753	962864	38505	106540	0	0	8142	769825	0	0
2024-05-04 17:28:32			0	33733	0	0	0	17992	16650	153750	27947	962811	38516	106542	0	0	8142	769122	0	0
2024-05-04 17:29:32			0	33731	0	0	0	17984	16650	153802	28064	962838	38527	106539	0	0	8142	769223	0	0
2024-05-04 17:30:32			0	33750	0	0	0	17976	16650	153686	28154	962793	38516	106536	0	0	8144	768270	0	0
2024-05-04 17:31:32			0	33771	0	0	0	17981	16640	153682	28185	962856	38494	106538	0	0	8145	767260	0	0
2024-05-04 17:32:32			0	33768	0	0	0	17986	16640	153622	27744	962777	38494	106540	0	0	8144	767410	0	0
2024-05-04 17:33:32			0	33766	0	0	0	17992	16640	153690	28124	962724	38504	106542	0	0	8144	767510	0	0
2024-05-04 17:34:32			0	33774	0	0	0	17984	16650	153614	27606	962838	38495	106539	0	0	8145	767068	0	0
2024-05-04 17:35:32			0	33771	0	0	0	17976	16640	153562	28457	962777	38504	106536	0	0	8145	767260	0	0
2024-05-04 17:36:32			0	33777	0	0	0	17986	16640	153502	28324	962769	38515	106540	0	0	8145	766959	0	0
2024-05-04 17:37:32			0	33772	0	0	0	17979	16650	153506	27743	962785	38495	106537	0	0	8145	767168	0	0
2024-05-04 17:38:32			0	33786	0	0	0	17986	16640	153534	27864	962803	38515	106540	0	0	8145	766509	0	0
2024-05-04 17:39:32			0	33787	0	0	0	17986	16640	153642	27935	962769	38494	106540	0	0	8146	766459	0	0
2024-05-04 17:40:32			0	33774	0	0	0	17979	16640	153594	27900	962769	38504	106537	0	0	8145	767110	0	0
2024-05-04 17:41:32			0	33756	0	0	0	17979	16640	153578	27580	962795	38494	106537	0	0	8144	768011	0	0
2024-05-04 17:42:32			0	33754	0	0	0	17992	16630	153698	27637	962787	38503	106542	0	0	8143	768153	0	0
2024-05-04 17:43:32			0	33749	0	0	0	17986	16630	153686	27833	962813	38493	106540	0	0	8143	768403	0	0
2024-05-04 17:44:32			0	33749	0	0	0	17986	16650	153758	27623	962785	38495	106540	0	0	8143	768320	0	0
2024-05-04 17:45:32			0	33759	0	0	0	17984	16640	153742	27791	962750	38494	106539	0	0	8144	767861	0	0
2024-05-04 17:46:32			0	33763	0	0	0	17984	16640	153730	27595	962777	38515	106539	0	0	8144	767660	0	0
2024-05-04 17:47:32			0	33752	0	0	0	17986	16630	153630	27935	962734	38493	106540	0	0	8143	768253	0	0
2024-05-04 17:48:32			0	33764	0	0	0	17979	16640	153670	27569	962742	38515	106537	0	0	8144	767610	0	0
2024-05-04 17:49:32			0	33744	0	0	0	17974	16620	153702	27926	962797	38502	106535	0	0	8143	768696	0	0
2024-05-04 17:50:32			0	33745	0	0	0	17981	16630	153738	27469	962779	38503	106538	0	0	8143	768604	0	0
2024-05-04 17:51:32			0	33744	0	0	0	17981	16630	153674	27998	962787	38503	106538	0	0	8143	768654	0	0
2024-05-04 17:52:32			0	33772	0	0	0	17984	16630	153622	27913	962760	38493	106539	0	0	8145	767251	0	0
2024-05-04 17:53:32			0	33759	0	0	0	17986	16630	153610	27776	962752	38514	106540	0	0	8144	767902	0	0
2024-05-04 17:54:32			0	33769	0	0	0	17992	16630	153658	27365	962779	38525	106542	0	0	8144	767401	0	0
2024-05-04 17:55:32			0	33779	0	0	0	18010	16630	153558	27809	962779	38503	106549	0	0	8145	766901	0	0
2024-05-04 17:56:32			0	33807	0	0	0	18012	16630	153458	28005	962840	38514	106550	0	0	8146	765501	0	0
2024-05-04 17:57:32			0	33814	0	0	0	18020	16640	153422	27500	962821	38515	106553	0	0	8147	765110	0	0
2024-05-04 17:58:32			0	33864	0	0	0	18015	16640	153298	27332	962821	38526	106551	0	0	8150	762615	0	0
2024-05-04 17:59:32			0	33866	0	0	0	18012	16640	153142	27580	962856	38515	106550	0	0	8150	762516	0	0
2024-05-04 18:00:32			0	33880	0	0	0	18028	16650	153054	27835	962872	38516	106556	0	0	8150	761777	0	0
2024-05-04 18:01:32			0	33894	0	0	0	18025	16640	153026	27538	962821	38515	106555	0	0	8151	761122	0	0
2024-05-04 18:02:32			0	33931	0	0	0	18023	16650	152934	27466	962943	38516	106554	0	0	8153	759242	0	0
2024-05-04 18:03:32			0	33943	0	0	0	18044	16650	152858	27793	962891	38516	106562	0	0	8154	758646	0	0
2024-05-04 18:04:32			0	33968	0	0	0	18046	16650	152818	27829	962943	38527	106563	0	0	8155	757407	0	0
2024-05-04 18:05:32			0	33988	0	0	0	18046	16660	152606	27805	962915	38518	106563	0	0	8156	756376	0	0
2024-05-04 18:06:32			0	34017	0	0	0	18023	16660	152610	27474	962881	38539	106554	0	0	8158	754941	0	0
2024-05-04 18:07:32			0	34019	0	0	0	18028	16670	152462	27836	962950	38518	106556	0	0	8158	754801	0	0
2024-05-04 18:08:32			0	34034	0	0	0	18038	16660	152542	27459	962915	38518	106560	0	0	8159	754101	0	0
2024-05-04 18:09:32			0	34023	0	0	0	18023	16660	152490	27521	962915	38529	106554	0	0	8159	754645	0	0
2024-05-04 18:10:32			0	34040	0	0	0	18023	16660	152318	27533	962889	38529	106554	0	0	8160	753805	0	0
2024-05-04 18:11:32			0	34035	0	0	0	18044	16660	152382	27516	963012	38517	106562	0	0	8159	754052	0	0
2024-05-04 18:12:32			0	34023	0	0	0	18031	16660	152458	27583	962915	38529	106557	0	0	8159	754645	0	0
2024-05-04 18:13:32			0	34038	0	0	0	18031	16650	152382	27417	962891	38516	106557	0	0	8159	753945	0	0
2024-05-04 18:14:32			0	34028	0	0	0	18025	16670	152338	27788	962923	38518	106555	0	0	8159	754357	0	0
2024-05-04 18:15:32			0	34047	0	0	0	18031	16670	152334	27871	962871	38529	106557	0	0	8160	753419	0	0
2024-05-04 18:16:32			0	34071	0	0	0	18036	16660	152330	27815	962862	38518	106559	0	0	8161	752276	0	0
2024-05-04 18:17:32			0	34082	0	0	0	18036	16660	152202	27220	962915	38540	106559	0	0	8162	751734	0	0
2024-05-04 18:18:32			0	34074	0	0	0	18020	16660	152214	27246	962915	38518	106553	0	0	8162	752128	0	0
2024-05-04 18:19:32			0	34069	0	0	0	18044	16660	152286	27446	962862	38529	106562	0	0	8161	752375	0	0
2024-05-04 18:20:32			0	34065	0	0	0	18028	16660	152162	27731	962889	38518	106556	0	0	8161	752572	0	0
2024-05-04 18:21:32			0	34094	0	0	0	18028	16660	152114	27473	962915	38529	106556	0	0	8163	751143	0	0
2024-05-04 18:22:32			0	34116	0	0	0	18023	16650	152118	27504	962846	38516	106554	0	0	8164	750102	0	0
2024-05-04 18:23:32			0	34114	0	0	0	18025	16660	152094	27581	962862	38518	106555	0	0	8164	750160	0	0
2024-05-04 18:24:32			0	34092	0	0	0	18033	16660	152110	27592	962941	38518	106558	0	0	8163	751242	0	0
2024-05-04 18:25:32			0	34105	0	0	0	18015	16660	152178	27256	962889	38518	106551	0	0	8164	750602	0	0
2024-05-04 18:26:32			0	34105	0	0	0	18018	16660	152078	27353	962836	38518	106552	0	0	8164	750602	0	0
2024-05-04 18:27:32			0	34124	0	0	0	18012	16660	152050	27393	962907	38528	106550	0	0	8165	749668	0	0
2024-05-04 18:28:32			0	34119	0	0	0	18023	16650	152058	27587	962864	38527	106554	0	0	8164	749954	0	0
2024-05-04 18:29:32			0	34114	0	0	0	18020	16650	152066	27194	962846	38527	106553	0	0	8164	750200	0	0
2024-05-04 18:30:32			0	34109	0	0	0	18010	16660	151938	27561	962854	38539	106549	0	0	8164	750405	0	0
2024-05-04 18:31:32			0	34119	0	0	0	18002	16650	152026	27305	962820	38527	106546	0	0	8165	749954	0	0
2024-05-04 18:32:32			0	34109	0	0	0	18005	16650	151966	27168	962793	38516	106547	0	0	8164	750446	0	0
2024-05-04 18:33:32			0	34117	0	0	0	17999	16650	152066	27282	962767	38516	106545	0	0	8164	750052	0	0
2024-05-04 18:34:32			0	34114	0	0	0	17997	16640	152142	27168	962803	38526	106544	0	0	8164	750241	0	0
2024-05-04 18:35:32			0	34107	0	0	0	17994	16640	152062	27665	962769	38515	106543	0	0	8164	750585	0	0
2024-05-04 18:36:32			0	34132	0	0	0	17992	16640	152026	27618	962777	38515	106542	0	0	8165	749356	0	0
2024-05-04 18:37:32			0	34151	0	0	0	17968	16640	152022	27453	962795	38515	106533	0	0	8167	748423	0	0
2024-05-04 18:38:32			0	34142	0	0	0	17971	16630	151934	27374	962700	38493	106534	0	0	8166	748905	0	0
2024-05-04 18:39:32			0	34117	0	0	0	17961	16640	151934	27550	962742	38515	106530	0	0	8165	750093	0	0
2024-05-04 18:40:32			0	34150	0	0	0	17961	16620	151854	27557	962639	38525	106530	0	0	8167	748553	0	0
2024-05-04 18:41:32			0	34141	0	0	0	17942	16620	152038	27377	962665	38513	106523	0	0	8167	748995	0	0
2024-05-04 18:42:32			0	34137	0	0	0	17942	16620	151986	27793	962656	38513	106523	0	0	8166	749191	0	0
2024-05-04 18:43:32			0	34128	0	0	0	17945	16610	151986	27906	962622	38524	106524	0	0	8166	749674	0	0
2024-05-04 18:44:32			0	34134	0	0	0	17945	16610	151946	27377	962666	38513	106524	0	0	8166	749379	0	0
2024-05-04 18:45:32			0	34136	0	0	0	17940	16590	151934	27857	962563	38511	106522	0	0	8166	749362	0	0
2024-05-04 18:46:32			0	34125	0	0	0	17942	16600	152154	27627	962518	38512	106523	0	0	8166	749862	0	0
2024-05-04 18:47:32			0	34125	0	0	0	17932	16600	152142	27326	962571	38512	106519	0	0	8166	749862	0	0
2024-05-04 18:48:32			0	34098	0	0	0	17924	16590	152110	27630	962555	38511	106516	0	0	8164	751231	0	0
2024-05-04 18:49:32			0	34104	0	0	0	17929	16590	152226	27431	962502	38522	106518	0	0	8165	750936	0	0
2024-05-04 18:50:32			0	34111	0	0	0	17919	16590	152162	27272	962475	38511	106514	0	0	8165	750591	0	0
2024-05-04 18:51:32			0	34116	0	0	0	17937	16580	152298	27474	962546	38510	106521	0	0	8165	750386	0	0
2024-05-04 18:52:32			0	34104	0	0	0	17932	16570	152242	27230	962530	38499	106519	0	0	8165	751017	0	0
2024-05-04 18:53:32			0	34129	0	0	0	17935	16570	152210	27556	962495	38520	106520	0	0	8166	749787	0	0
2024-05-04 18:54:32			0	34122	0	0	0	17932	16560	152078	27307	962426	38519	106519	0	0	8165	750172	0	0
2024-05-04 18:55:32			0	34131	0	0	0	17922	16560	152098	27505	962461	38508	106515	0	0	8166	749730	0	0
2024-05-04 18:56:32			0	34148	0	0	0	17929	16560	152054	27206	962505	38497	106518	0	0	8167	748894	0	0
2024-05-04 18:57:32			0	34164	0	0	0	17909	16560	151946	27360	962479	38519	106510	0	0	8168	748109	0	0
2024-05-04 18:58:32			0	34184	0	0	0	17916	16550	151922	27348	962471	38519	106513	0	0	8169	747168	0	0
2024-05-04 18:59:32			0	34191	0	0	0	17903	16550	151878	27235	962418	38519	106508	0	0	8170	746825	0	0
2024-05-04 19:00:32			0	34183	0	0	0	17906	16540	151874	27313	962428	38507	106509	0	0	8169	747258	0	0
2024-05-04 19:01:32			0	34193	0	0	0	17909	16550	151858	27556	962436	38485	106510	0	0	8170	746727	0	0
2024-05-04 19:02:32			0	34197	0	0	0	17896	16550	151710	27272	962471	38519	106505	0	0	8170	746531	0	0
2024-05-04 19:03:32			0	34204	0	0	0	17890	16550	151774	27800	962444	38519	106503	0	0	8171	746188	0	0
2024-05-04 19:04:32			0	34201	0	0	0	17896	16540	151770	27454	962402	38518	106505	0	0	8171	746375	0	0
2024-05-04 19:05:32			0	34193	0	0	0	17888	16540	151846	27417	962481	38529	106502	0	0	8170	746767	0	0
2024-05-04 19:06:32			0	34177	0	0	0	17888	16540	151878	27476	962420	38506	106502	0	0	8169	747552	0	0
2024-05-04 19:07:32			0	34180	0	0	0	17898	16530	151970	27364	962359	38528	106506	0	0	8169	747445	0	0
2024-05-04 19:08:32			0	34188	0	0	0	17896	16540	151862	27438	962428	38518	106505	0	0	8170	747013	0	0
2024-05-04 19:09:32			0	34184	0	0	0	17877	16530	151938	27410	962359	38528	106498	0	0	8170	747249	0	0
2024-05-04 19:10:32			0	34189	0	0	0	17844	16530	151862	27563	962333	38506	106485	0	0	8171	747004	0	0
2024-05-04 19:11:32			0	34188	0	0	0	17844	16540	151790	27346	962367	38517	106485	0	0	8171	747013	0	0
2024-05-04 19:12:32			0	34181	0	0	0	17836	16520	151942	27443	962290	38505	106482	0	0	8170	747437	0	0
2024-05-04 19:13:32			0	34176	0	0	0	17833	16510	151990	27194	962300	38514	106481	0	0	8170	747722	0	0
2024-05-04 19:14:32			0	34188	0	0	0	17844	16510	151838	27415	962326	38503	106485	0	0	8171	747134	0	0
2024-05-04 19:15:32			0	34170	0	0	0	17831	16520	151902	27685	962255	38494	106480	0	0	8170	747976	0	0
2024-05-04 19:16:32			0	34170	0	0	0	17820	16510	152066	27218	962221	38514	106476	0	0	8170	748017	0	0
2024-05-04 19:17:32			0	34137	0	0	0	17805	16510	152078	27213	962247	38503	106470	0	0	8168	749637	0	0
2024-05-04 19:18:32			0	34153	0	0	0	17792	16510	152006	27379	962273	38514	106465	0	0	8169	748851	0	0
2024-05-04 19:19:32			0	34145	0	0	0	17797	16500	152130	27376	962257	38503	106467	0	0	8169	749285	0	0
2024-05-04 19:20:32			0	34154	0	0	0	17805	16490	152066	27486	962206	38513	106470	0	0	8169	748883	0	0
2024-05-04 19:21:32			0	34149	0	0	0	17815	16500	152106	27486	962170	38492	106474	0	0	8169	749088	0	0
2024-05-04 19:22:32			0	34113	0	0	0	17820	16490	152186	27531	962214	38491	106476	0	0	8167	750899	0	0
2024-05-04 19:23:32			0	34140	0	0	0	17825	16490	152142	27440	962214	38491	106478	0	0	8168	749571	0	0
2024-05-04 19:24:32			0	34118	0	0	0	17815	16490	152186	27457	962232	38513	106474	0	0	8167	750653	0	0
2024-05-04 19:25:32			0	34107	0	0	0	17815	16490	152198	27497	962214	38502	106474	0	0	8166	751195	0	0
2024-05-04 19:26:32			0	34124	0	0	0	17799	16490	152122	27677	962188	38502	106468	0	0	8168	750358	0	0
2024-05-04 19:27:32			0	34104	0	0	0	17786	16490	152226	27339	962232	38502	106463	0	0	8167	751342	0	0
2024-05-04 19:28:32			0	34135	0	0	0	17802	16490	152138	27521	962153	38480	106469	0	0	8168	749817	0	0
2024-05-04 19:29:32			0	34109	0	0	0	17823	16490	152218	27395	962153	38502	106477	0	0	8166	751096	0	0
2024-05-04 19:30:32			0	34110	0	0	0	17836	16470	152346	27763	962155	38500	106482	0	0	8166	751128	0	0
2024-05-04 19:31:32			0	34110	0	0	0	17805	16480	152186	27485	962198	38513	106470	0	0	8167	751087	0	0
2024-05-04 19:32:32			0	34110	0	0	0	17807	16490	152218	27208	962232	38480	106471	0	0	8167	751047	0	0
2024-05-04 19:33:32			0	34112	0	0	0	17823	16480	152142	27973	962224	38480	106477	0	0	8166	750989	0	0
2024-05-04 19:34:32			0	34137	0	0	0	17818	16470	152118	27516	962208	38479	106475	0	0	8168	749800	0	0
2024-05-04 19:35:32			0	34148	0	0	0	17828	16480	152114	27518	962171	38513	106479	0	0	8168	749218	0	0
2024-05-04 19:36:32			0	34127	0	0	0	17820	16490	152094	27242	962232	38513	106476	0	0	8167	750210	0	0
2024-05-04 19:37:32			0	34119	0	0	0	17810	16480	152142	27249	962163	38512	106472	0	0	8167	750644	0	0
2024-05-04 19:38:32			0	34136	0	0	0	17815	16480	152126	27301	962163	38491	106474	0	0	8168	749808	0	0
2024-05-04 19:39:32			0	34130	0	0	0	17833	16480	152178	27225	962216	38501	106481	0	0	8167	750103	0	0
2024-05-04 19:40:32			0	34134	0	0	0	17849	16480	152078	27443	962189	38501	106487	0	0	8167	749907	0	0
2024-05-04 19:41:32			0	34121	0	0	0	17838	16480	152114	27282	962224	38502	106483	0	0	8167	750546	0	0
2024-05-04 19:42:32			0	34130	0	0	0	17844	16480	152094	27407	962224	38502	106485	0	0	8167	750103	0	0
2024-05-04 19:43:32			0	34135	0	0	0	17846	16490	152118	27367	962179	38502	106486	0	0	8167	749817	0	0
2024-05-04 19:44:32			0	34119	0	0	0	17838	16480	152118	27293	962189	38501	106483	0	0	8167	750644	0	0
2024-05-04 19:45:32			0	34125	0	0	0	17831	16480	152078	27609	962163	38512	106480	0	0	8167	750349	0	0
2024-05-04 19:46:32			0	34152	0	0	0	17838	16480	152086	27899	962137	38491	106483	0	0	8168	749022	0	0
2024-05-04 19:47:32			0	34144	0	0	0	17831	16480	152074	27632	962189	38501	106480	0	0	8168	749415	0	0
2024-05-04 19:48:32			0	34140	0	0	0	17825	16480	152118	27390	962189	38479	106478	0	0	8168	749612	0	0
2024-05-04 19:49:32			0	34126	0	0	0	17825	16470	152170	27313	962181	38511	106478	0	0	8167	750341	0	0
2024-05-04 19:50:32			0	34109	0	0	0	17831	16470	152154	27576	962129	38479	106480	0	0	8166	751177	0	0
2024-05-04 19:51:32			0	34119	0	0	0	17831	16470	152214	27765	962155	38479	106480	0	0	8167	750685	0	0
2024-05-04 19:52:32			0	34118	0	0	0	17820	16470	152186	27469	962129	38511	106476	0	0	8167	750734	0	0
2024-05-04 19:53:32			0	34093	0	0	0	17820	16460	152350	27549	962112	38489	106476	0	0	8165	752006	0	0
2024-05-04 19:54:32			0	34103	0	0	0	17828	16460	152322	27492	962191	38510	106479	0	0	8166	751513	0	0
2024-05-04 19:55:32			0	34093	0	0	0	17825	16470	152286	27244	962120	38500	106478	0	0	8165	751965	0	0
2024-05-04 19:56:32			0	34094	0	0	0	17831	16480	152338	27235	962137	38501	106480	0	0	8165	751875	0	0
2024-05-04 19:57:32			0	34110	0	0	0	17802	16460	152330	27466	962086	38489	106469	0	0	8167	751169	0	0
2024-05-04 19:58:32			0	34098	0	0	0	17794	16450	152326	27319	962078	38500	106466	0	0	8166	751800	0	0
2024-05-04 19:59:32			0	34100	0	0	0	17776	16450	152258	27256	962051	38500	106459	0	0	8166	751702	0	0
2024-05-04 20:00:32			0	34114	0	0	0	17758	16450	152314	27562	962078	38478	106452	0	0	8167	751012	0	0
2024-05-04 20:01:32			0	34072	0	0	0	17753	16450	152454	27251	961998	38500	106450	0	0	8165	753082	0	0
2024-05-04 20:02:32			0	34048	0	0	0	17737	16440	152490	27497	962008	38476	106444	0	0	8164	754308	0	0
2024-05-04 20:03:32			0	34026	0	0	0	17727	16430	152662	27253	961931	38464	106440	0	0	8163	755436	0	0
2024-05-04 20:04:32			0	34024	0	0	0	17714	16430	152690	27526	961913	38476	106435	0	0	8163	755535	0	0
2024-05-04 20:05:32			0	34008	0	0	0	17706	16420	152774	27588	961862	38474	106432	0	0	8162	756368	0	0
2024-05-04 20:06:32			0	33990	0	0	0	17719	16410	152774	27282	961846	38485	106437	0	0	8161	757300	0	0
2024-05-04 20:07:32			0	33959	0	0	0	17714	16400	152934	27457	961811	38484	106435	0	0	8159	758879	0	0
2024-05-04 20:08:32			0	33955	0	0	0	17688	16400	153046	27531	961785	38495	106425	0	0	8159	759077	0	0
2024-05-04 20:09:32			0	33929	0	0	0	17690	16390	152986	27466	961742	38473	106426	0	0	8158	760410	0	0
2024-05-04 20:10:32			0	33922	0	0	0	17680	16390	153114	27499	961795	38495	106422	0	0	8157	760758	0	0
2024-05-04 20:11:32			0	33916	0	0	0	17670	16380	153202	27694	961744	38470	106418	0	0	8157	761098	0	0
2024-05-04 20:12:32			0	33886	0	0	0	17664	16380	153262	27175	961691	38481	106416	0	0	8156	762592	0	0
2024-05-04 20:13:32			0	33883	0	0	0	17644	16370	153306	27263	961648	38470	106408	0	0	8156	762782	0	0
2024-05-04 20:14:32			0	33887	0	0	0	17636	16360	153390	27270	961632	38458	106405	0	0	8156	762624	0	0
2024-05-04 20:15:32			0	33871	0	0	0	17638	16350	153386	27315	961624	38468	106406	0	0	8155	763463	0	0
2024-05-04 20:16:32			0	33864	0	0	0	17628	16340	153406	27550	961581	38468	106402	0	0	8155	763854	0	0
2024-05-04 20:17:32			0	33866	0	0	0	17623	16330	153490	27647	961556	38467	106400	0	0	8155	763795	0	0
2024-05-04 20:18:32			0	33821	0	0	0	17623	16340	153574	27521	961494	38467	106400	0	0	8152	766002	0	0
2024-05-04 20:19:32			0	33833	0	0	0	17615	16320	153514	27178	961434	38465	106397	0	0	8153	765485	0	0
2024-05-04 20:20:32			0	33803	0	0	0	17615	16320	153594	27301	961461	38465	106397	0	0	8151	766985	0	0
2024-05-04 20:21:32			0	33807	0	0	0	17607	16320	153666	27017	961434	38455	106394	0	0	8152	766785	0	0
2024-05-04 20:22:32			0	33810	0	0	0	17610	16300	153702	26984	961331	38454	106395	0	0	8152	766718	0	0
2024-05-04 20:23:32			0	33789	0	0	0	17605	16290	153702	27554	961438	38462	106393	0	0	8150	767811	0	0
2024-05-04 20:24:32			0	33802	0	0	0	17607	16300	153774	27294	961349	38453	106394	0	0	8151	767118	0	0
2024-05-04 20:25:32			0	33793	0	0	0	17597	16290	153834	27332	961314	38462	106390	0	0	8151	767611	0	0
2024-05-04 20:26:32			0	33809	0	0	0	17599	16280	153794	27409	961369	38462	106391	0	0	8152	766851	0	0
2024-05-04 20:27:32			0	33787	0	0	0	17597	16270	153818	27455	961326	38472	106390	0	0	8150	767994	0	0
2024-05-04 20:28:32			0	33789	0	0	0	17594	16280	153886	27687	961290	38462	106389	0	0	8151	767852	0	0
2024-05-04 20:29:32			0	33793	0	0	0	17589	16270	153910	27398	961282	38451	106387	0	0	8151	767694	0	0
2024-05-04 20:30:32			0	33772	0	0	0	17597	16270	153862	27211	961247	38461	106390	0	0	8149	768746	0	0
2024-05-04 20:31:32			0	33781	0	0	0	17587	16260	153926	27454	961292	38461	106386	0	0	8150	768337	0	0
2024-05-04 20:32:32			0	33795	0	0	0	17594	16260	153890	27511	961239	38461	106389	0	0	8151	767635	0	0
2024-05-04 20:33:32			0	33809	0	0	0	17597	16240	153802	27452	961232	38458	106390	0	0	8151	767017	0	0
2024-05-04 20:34:32			0	33829	0	0	0	17589	16250	153718	27367	961214	38458	106387	0	0	8153	765974	0	0
2024-05-04 20:35:32			0	33815	0	0	0	17589	16240	153690	27566	961232	38437	106387	0	0	8152	766716	0	0
2024-05-04 20:36:32			0	33855	0	0	0	17589	16240	153670	27575	961180	38469	106387	0	0	8154	764716	0	0
2024-05-04 20:37:32			0	33845	0	0	0	17597	16240	153598	27647	961171	38458	106390	0	0	8154	765216	0	0
2024-05-04 20:38:32			0	33849	0	0	0	17579	16220	153466	27329	961200	38479	106383	0	0	8154	765098	0	0
2024-05-04 20:39:32			0	33867	0	0	0	17589	16230	153462	27384	961129	38457	106387	0	0	8155	764158	0	0
2024-05-04 20:40:32			0	33847	0	0	0	17574	16220	153526	27639	961165	38457	106381	0	0	8154	765198	0	0
2024-05-04 20:41:32			0	33841	0	0	0	17579	16230	153634	27507	961129	38446	106383	0	0	8154	765457	0	0
2024-05-04 20:42:32			0	33843	0	0	0	17566	16210	153566	27317	961078	38467	106378	0	0	8154	765440	0	0
2024-05-04 20:43:32			0	33842	0	0	0	17558	16220	153622	27189	961060	38457	106375	0	0	8154	765448	0	0
2024-05-04 20:44:32			0	33866	0	0	0	17563	16210	153618	27178	961078	38445	106377	0	0	8155	764290	0	0
2024-05-04 20:45:32			0	33849	0	0	0	17566	16210	153570	27402	961122	38466	106378	0	0	8154	765140	0	0
2024-05-04 20:46:32			0	33855	0	0	0	17555	16200	153610	27516	961114	38445	106374	0	0	8155	764881	0	0
2024-05-04 20:47:32			0	33827	0	0	0	17558	16200	153678	27422	961035	38466	106375	0	0	8153	766281	0	0
2024-05-04 20:48:32			0	33828	0	0	0	17568	16200	153814	27464	961053	38477	106379	0	0	8153	766231	0	0
2024-05-04 20:49:32			0	33786	0	0	0	17587	16210	153922	27128	961149	38456	106386	0	0	8150	768293	0	0
2024-05-04 20:50:32			0	33780	0	0	0	17607	16210	154018	27680	961183	38445	106394	0	0	8149	768594	0	0
2024-05-04 20:51:32			0	33758	0	0	0	17628	16220	153978	27384	961252	38479	106402	0	0	8148	769657	0	0
2024-05-04 20:52:32			0	33780	0	0	0	17576	16230	153954	27530	961242	38480	106382	0	0	8150	768511	0	0
2024-05-04 20:53:32			0	33791	0	0	0	17574	16220	153910	27282	961147	38468	106381	0	0	8151	768001	0	0
2024-05-04 20:54:32			0	33790	0	0	0	17566	16220	153830	27336	961120	38468	106378	0	0	8151	768051	0	0
2024-05-04 20:55:32			0	33790	0	0	0	17553	16220	153734	27390	961086	38457	106373	0	0	8151	768051	0	0
2024-05-04 20:56:32			0	33814	0	0	0	17548	16210	153606	27293	961078	38445	106371	0	0	8152	766891	0	0
2024-05-04 20:57:32			0	33822	0	0	0	17555	16200	153754	27777	961035	38445	106374	0	0	8153	766531	0	0
2024-05-04 20:58:32			0	33810	0	0	0	17550	16200	153766	27426	961061	38456	106372	0	0	8152	767132	0	0
2024-05-04 20:59:32			0	33767	0	0	0	17581	16200	153970	27696	961080	38466	106384	0	0	8149	769288	0	0
2024-05-04 21:00:32			0	33770	0	0	0	17566	16210	154110	27460	961122	38466	106378	0	0	8150	769096	0	0
2024-05-04 21:01:32			0	33728	0	0	0	17555	16210	154118	27263	961130	38457	106374	0	0	8147	771206	0	0
2024-05-04 21:02:32			0	33738	0	0	0	17545	16210	154042	27296	961017	38466	106370	0	0	8148	770703	0	0
2024-05-04 21:03:32			0	33727	0	0	0	17558	16200	154158	27429	961027	38466	106375	0	0	8147	771298	0	0
2024-05-04 21:04:32			0	33713	0	0	0	17576	16200	154190	27445	961106	38477	106382	0	0	8146	772002	0	0
2024-05-04 21:05:32			0	33701	0	0	0	17574	16200	154342	27675	961053	38477	106381	0	0	8145	772606	0	0
2024-05-04 21:06:32			0	33691	0	0	0	17581	16220	154314	27320	961173	38468	106384	0	0	8145	773027	0	0
2024-05-04 21:07:32			0	33678	0	0	0	17574	16210	154354	27459	961183	38478	106381	0	0	8144	773724	0	0
2024-05-04 21:08:32			0	33682	0	0	0	17561	16220	154310	27291	961165	38468	106376	0	0	8145	773480	0	0
2024-05-04 21:09:32			0	33684	0	0	0	17550	16220	154350	27287	961139	38446	106372	0	0	8145	773379	0	0
2024-05-04 21:10:32			0	33691	0	0	0	17535	16210	154434	27493	961078	38445	106366	0	0	8145	773068	0	0
2024-05-04 21:11:32			0	33672	0	0	0	17537	16210	154382	27272	961051	38445	106367	0	0	8144	774026	0	0
2024-05-04 21:12:32			0	33660	0	0	0	17535	16200	154538	27582	961035	38456	106366	0	0	8144	774673	0	0
2024-05-04 21:13:32			0	33666	0	0	0	17555	16210	154550	27370	960964	38445	106374	0	0	8144	774329	0	0
2024-05-04 21:14:32			0	33656	0	0	0	17555	16200	154486	27261	961035	38445	106374	0	0	8143	774875	0	0
2024-05-04 21:15:32			0	33663	0	0	0	17561	16200	154478	27585	961061	38456	106376	0	0	8143	774522	0	0
2024-05-04 21:16:32			0	33645	0	0	0	17568	16200	154590	27473	961061	38456	106379	0	0	8142	775431	0	0
2024-05-04 21:17:32			0	33644	0	0	0	17553	16210	154654	27473	961130	38445	106373	0	0	8142	775439	0	0
2024-05-04 21:18:32			0	33649	0	0	0	17548	16210	154574	27305	961070	38456	106371	0	0	8143	775187	0	0
2024-05-04 21:19:32			0	33659	0	0	0	17540	16210	154530	27396	961017	38456	106368	0	0	8144	774682	0	0
2024-05-04 21:20:32			0	33634	0	0	0	17527	16200	154634	27178	961035	38445	106363	0	0	8142	775987	0	0
2024-05-04 21:21:32			0	33630	0	0	0	17537	16190	154658	27229	960958	38454	106367	0	0	8142	776231	0	0
2024-05-04 21:22:32			0	33633	0	0	0	17527	16190	154702	27512	960992	38444	106363	0	0	8142	776079	0	0
2024-05-04 21:23:32			0	33627	0	0	0	17540	16180	154698	27573	960976	38464	106368	0	0	8141	776424	0	0
2024-05-04 21:24:32			0	33631	0	0	0	17532	16180	154630	27216	960941	38442	106365	0	0	8142	776222	0	0
2024-05-04 21:25:32			0	33634	0	0	0	17524	16170	154702	27378	960925	38463	106362	0	0	8142	776112	0	0
2024-05-04 21:26:32			0	33624	0	0	0	17529	16180	154762	27346	960941	38453	106364	0	0	8141	776576	0	0
2024-05-04 21:27:32			0	33611	0	0	0	17537	16170	154762	27691	961004	38452	106367	0	0	8141	777276	0	0
2024-05-04 21:28:32			0	33629	0	0	0	17535	16170	154718	27178	960986	38453	106366	0	0	8142	776365	0	0
2024-05-04 21:29:32			0	33621	0	0	0	17574	16170	154762	27168	960907	38474	106381	0	0	8140	776770	0	0
2024-05-04 21:30:32			0	33585	0	0	0	17612	16170	154746	27360	961091	38453	106396	0	0	8138	778593	0	0
2024-05-04 21:31:32			0	33602	0	0	0	17625	16190	154802	27653	961090	38475	106401	0	0	8139	777647	0	0
2024-05-04 21:32:32			0	33599	0	0	0	17623	16190	154810	27391	961098	38487	106400	0	0	8138	777799	0	0
2024-05-04 21:33:32			0	33590	0	0	0	17638	16200	154846	27211	961140	38456	106406	0	0	8138	778213	0	0
2024-05-04 21:34:32			0	33592	0	0	0	17649	16210	154790	27220	961183	38467	106410	0	0	8138	778070	0	0
2024-05-04 21:35:32			0	33612	0	0	0	17664	16220	154874	27384	961331	38500	106416	0	0	8139	777015	0	0
2024-05-04 21:36:32			0	33607	0	0	0	17688	16220	154778	27319	961331	38479	106425	0	0	8138	777268	0	0
2024-05-04 21:37:32			0	33599	0	0	0	17719	16240	154782	27409	961382	38480	106437	0	0	8137	777589	0	0
2024-05-04 21:38:32			0	33589	0	0	0	17742	16250	154758	27805	961486	38481	106446	0	0	8136	778053	0	0
2024-05-04 21:39:32			0	33614	0	0	0	17758	16260	154758	27602	961555	38483	106452	0	0	8137	776746	0	0
2024-05-04 21:40:32			0	33601	0	0	0	17761	16270	154802	27220	961598	38483	106453	0	0	8137	777362	0	0
2024-05-04 21:41:32			0	33599	0	0	0	17768	16290	154850	27549	961604	38485	106456	0	0	8136	777379	0	0
2024-05-04 21:42:32			0	33577	0	0	0	17776	16280	155013	27646	961641	38496	106459	0	0	8135	778535	0	0
2024-05-04 21:43:32			0	33526	0	0	0	17774	16310	155157	27711	961743	38497	106458	0	0	8132	780996	0	0
2024-05-04 21:44:32			0	33505	0	0	0	17779	16310	155225	27227	961716	38508	106460	0	0	8131	782064	0	0
2024-05-04 21:45:32			0	33465	0	0	0	17779	16330	155345	27396	961741	38489	106460	0	0	8129	784016	0	0
2024-05-04 21:46:32			0	33428	0	0	0	17768	16320	155497	27222	961759	38499	106456	0	0	8126	785945	0	0
2024-05-04 21:47:32			0	33390	0	0	0	17779	16330	155717	27440	961723	38510	106460	0	0	8124	787845	0	0
2024-05-04 21:48:32			0	33370	0	0	0	17771	16330	155853	27223	961696	38489	106457	0	0	8123	788869	0	0
2024-05-04 21:49:32			0	33360	0	0	0	17766	16330	155873	27606	961775	38500	106455	0	0	8123	789381	0	0
2024-05-04 21:50:32			0	33335	0	0	0	17768	16350	155969	27466	961721	38491	106456	0	0	8121	790577	0	0
2024-05-04 21:51:32			0	33326	0	0	0	17768	16350	156045	27635	961834	38491	106456	0	0	8121	791039	0	0
2024-05-04 21:52:32			0	33338	0	0	0	17766	16350	155969	27635	961729	38491	106455	0	0	8121	790423	0	0
2024-05-04 21:53:32			0	33311	0	0	0	17761	16350	156061	27668	961800	38491	106453	0	0	8120	791809	0	0
2024-05-04 21:54:32			0	33309	0	0	0	17766	16360	155993	27338	961816	38491	106455	0	0	8120	791870	0	0
2024-05-04 21:55:32			0	33319	0	0	0	17761	16350	156057	27568	961703	38491	106453	0	0	8120	791399	0	0
2024-05-04 21:56:32			0	33317	0	0	0	17763	16360	155937	27403	961764	38480	106454	0	0	8120	791458	0	0
2024-05-04 21:57:32			0	33334	0	0	0	17758	16360	156105	27426	961798	38491	106452	0	0	8121	790586	0	0
2024-05-04 21:58:32			0	33336	0	0	0	17755	16370	156045	27796	961788	38481	106451	0	0	8121	790441	0	0
2024-05-04 21:59:32			0	33330	0	0	0	17758	16370	156093	27303	961780	38492	106452	0	0	8121	790748	0	0
2024-05-04 22:00:32			0	33345	0	0	0	17753	16350	155965	27447	961782	38501	106450	0	0	8122	790064	0	0
2024-05-04 22:01:32			0	33348	0	0	0	17768	16370	155993	27438	961806	38503	106456	0	0	8122	789825	0	0
2024-05-04 22:02:32			0	33350	0	0	0	17750	16360	155813	27675	961824	38491	106449	0	0	8122	789766	0	0
2024-05-04 22:03:32			0	33364	0	0	0	17763	16360	155817	27237	961798	38491	106454	0	0	8123	789048	0	0
2024-05-04 22:04:32			0	33356	0	0	0	17763	16360	155933	27313	961737	38501	106454	0	0	8122	789458	0	0
2024-05-04 22:05:32			0	33352	0	0	0	17748	16360	155949	27507	961798	38502	106448	0	0	8123	789663	0	0
2024-05-04 22:06:32			0	33340	0	0	0	17750	16370	155973	27248	961859	38492	106449	0	0	8122	790235	0	0
2024-05-04 22:07:32			0	33319	0	0	0	17755	16350	155981	27866	961782	38501	106451	0	0	8120	791399	0	0
2024-05-04 22:08:32			0	33328	0	0	0	17758	16360	155977	27196	961798	38491	106452	0	0	8121	790894	0	0
2024-05-04 22:09:32			0	33329	0	0	0	17755	16360	156041	27609	961772	38502	106451	0	0	8121	790843	0	0
2024-05-04 22:10:32			0	33342	0	0	0	17758	16370	155961	27507	961806	38503	106452	0	0	8122	790133	0	0
2024-05-04 22:11:32			0	33337	0	0	0	17755	16360	155977	27336	961745	38502	106451	0	0	8121	790432	0	0
2024-05-04 22:12:32			0	33303	0	0	0	17753	16370	155985	27395	961833	38492	106450	0	0	8120	792135	0	0
2024-05-04 22:13:32			0	33324	0	0	0	17753	16360	156009	27414	961824	38480	106450	0	0	8121	791099	0	0
2024-05-04 22:14:32			0	33319	0	0	0	17758	16370	156013	27431	961788	38514	106452	0	0	8120	791313	0	0
2024-05-04 22:15:32			0	33309	0	0	0	17753	16370	156085	27505	961841	38503	106450	0	0	8120	791827	0	0
2024-05-04 22:16:32			0	33313	0	0	0	17753	16370	156109	27713	961806	38492	106450	0	0	8120	791621	0	0
2024-05-04 22:17:32			0	33311	0	0	0	17771	16360	156021	27476	961772	38491	106457	0	0	8120	791767	0	0
2024-05-04 22:18:32			0	33323	0	0	0	17758	16370	155981	27393	961806	38503	106452	0	0	8121	791108	0	0
2024-05-04 22:19:32			0	33353	0	0	0	17761	16360	155817	27713	961790	38501	106453	0	0	8122	789612	0	0
2024-05-04 22:20:32			0	33347	0	0	0	17761	16370	155897	27485	961833	38492	106453	0	0	8122	789876	0	0
2024-05-04 22:21:32			0	33344	0	0	0	17761	16360	155913	27523	961851	38491	106453	0	0	8122	790073	0	0
2024-05-04 22:22:32			0	33375	0	0	0	17766	16370	155717	27256	961894	38514	106455	0	0	8124	788442	0	0
2024-05-04 22:23:32			0	33394	0	0	0	17761	16380	155669	27388	961849	38503	106453	0	0	8125	787427	0	0
2024-05-04 22:24:32			0	33390	0	0	0	17755	16370	155701	27791	961833	38492	106451	0	0	8125	787675	0	0
2024-05-04 22:25:32			0	33372	0	0	0	17753	16370	155677	27407	961815	38492	106450	0	0	8124	788596	0	0
2024-05-04 22:26:32			0	33356	0	0	0	17745	16370	155821	27383	961788	38503	106447	0	0	8123	789415	0	0
2024-05-04 22:27:32			0	33360	0	0	0	17732	16370	155877	27421	961806	38492	106442	0	0	8123	789210	0	0
2024-05-04 22:28:32			0	33341	0	0	0	17742	16370	155849	27391	961841	38503	106446	0	0	8122	790184	0	0
2024-05-04 22:29:32			0	33343	0	0	0	17727	16370	155893	27391	961762	38492	106440	0	0	8122	790082	0	0
2024-05-04 22:30:32			0	33348	0	0	0	17729	16370	155829	27126	961762	38481	106441	0	0	8123	789825	0	0
2024-05-04 22:31:32			0	33359	0	0	0	17729	16360	155993	27267	961824	38491	106441	0	0	8123	789304	0	0
2024-05-04 22:32:32			0	33348	0	0	0	17729	16360	155901	27562	961737	38491	106441	0	0	8123	789868	0	0
2024-05-04 22:33:32			0	33330	0	0	0	17727	16370	155905	27450	961736	38503	106440	0	0	8122	790748	0	0
2024-05-04 22:34:32			0	33353	0	0	0	17719	16350	155929	27376	961755	38501	106437	0	0	8123	789654	0	0
2024-05-04 22:35:32			0	33346	0	0	0	17724	16350	155921	27630	961694	38501	106439	0	0	8123	790013	0	0
2024-05-04 22:36:32			0	33351	0	0	0	17727	16360	155857	27554	961737	38491	106440	0	0	8123	789714	0	0
2024-05-04 22:37:32			0	33357	0	0	0	17729	16360	155821	27469	961711	38480	106441	0	0	8123	789407	0	0
2024-05-04 22:38:32			0	33367	0	0	0	17732	16350	155761	27303	961721	38468	106442	0	0	8124	788937	0	0
2024-05-04 22:39:32			0	33411	0	0	0	17724	16350	155633	27326	961703	38501	106439	0	0	8126	786686	0	0
2024-05-04 22:40:32			0	33443	0	0	0	17711	16350	155485	27312	961668	38501	106434	0	0	8129	785052	0	0
2024-05-04 22:41:32			0	33477	0	0	0	17716	16350	155349	27263	961703	38491	106436	0	0	8130	783319	0	0
2024-05-04 22:42:32			0	33489	0	0	0	17722	16340	155185	27258	961713	38490	106438	0	0	8131	782751	0	0
2024-05-04 22:43:32			0	33521	0	0	0	17711	16350	155105	27590	961729	38491	106434	0	0	8133	781082	0	0
2024-05-04 22:44:32			0	33532	0	0	0	17706	16340	155101	27374	961678	38478	106432	0	0	8134	780565	0	0
2024-05-04 22:45:32			0	33550	0	0	0	17706	16340	154913	27431	961660	38500	106432	0	0	8135	779652	0	0
2024-05-04 22:46:32			0	33553	0	0	0	17698	16330	154901	27072	961670	38467	106429	0	0	8135	779542	0	0
2024-05-04 22:47:32			0	33584	0	0	0	17711	16340	154722	27684	961713	38500	106434	0	0	8137	777929	0	0
2024-05-04 22:48:32			0	33619	0	0	0	17709	16340	154774	27345	961652	38489	106433	0	0	8139	776158	0	0
2024-05-04 22:49:32			0	33632	0	0	0	17703	16340	154694	27462	961686	38479	106431	0	0	8140	775501	0	0
2024-05-04 22:50:32			0	33650	0	0	0	17706	16330	154574	27609	961670	38489	106432	0	0	8141	774634	0	0
2024-05-04 22:51:32			0	33666	0	0	0	17711	16340	154502	27272	961704	38467	106434	0	0	8142	773785	0	0
2024-05-04 22:52:32			0	33680	0	0	0	17701	16330	154350	27480	961670	38500	106430	0	0	8143	773121	0	0
2024-05-04 22:53:32			0	33706	0	0	0	17703	16330	154262	27490	961688	38500	106431	0	0	8144	771812	0	0
2024-05-04 22:54:32			0	33710	0	0	0	17706	16340	154262	27438	961625	38489	106432	0	0	8144	771569	0	0
2024-05-04 22:55:32			0	33738	0	0	0	17698	16330	154082	27329	961670	38478	106429	0	0	8146	770204	0	0
2024-05-04 22:56:32			0	33745	0	0	0	17688	16330	154066	27500	961644	38489	106425	0	0	8147	769852	0	0
2024-05-04 22:57:32			0	33765	0	0	0	17688	16320	154018	27563	961654	38466	106425	0	0	8148	768890	0	0
2024-05-04 22:58:32			0	33748	0	0	0	17683	16330	154010	27348	961635	38478	106423	0	0	8147	769701	0	0
2024-05-04 22:59:32			0	33779	0	0	0	17690	16330	153970	27357	961635	38478	106426	0	0	8149	768146	0	0
2024-05-04 23:00:32			0	33772	0	0	0	17680	16330	153838	27578	961662	38489	106422	0	0	8148	768497	0	0
2024-05-04 23:01:32			0	33774	0	0	0	17675	16320	153846	27422	961601	38477	106420	0	0	8148	768438	0	0
2024-05-04 23:02:32			0	33794	0	0	0	17672	16310	153870	27521	961558	38486	106419	0	0	8150	767478	0	0
2024-05-04 23:03:32			0	33800	0	0	0	17670	16300	153882	27999	961515	38497	106418	0	0	8150	767219	0	0
2024-05-04 23:04:32			0	33805	0	0	0	17670	16320	153906	27665	961540	38487	106418	0	0	8150	766885	0	0
2024-05-04 23:05:32			0	33788	0	0	0	17667	16310	153770	27409	961524	38464	106417	0	0	8149	767778	0	0
2024-05-04 23:06:32			0	33795	0	0	0	17667	16300	153902	27793	961507	38463	106417	0	0	8150	767469	0	0
2024-05-04 23:07:32			0	33797	0	0	0	17651	16300	153894	27637	961594	38497	106411	0	0	8150	767369	0	0
2024-05-04 23:08:32			0	33778	0	0	0	17659	16300	153850	27364	961542	38464	106414	0	0	8149	768321	0	0
2024-05-04 23:09:32			0	33792	0	0	0	17651	16290	153842	27682	961525	38474	106411	0	0	8150	767661	0	0
2024-05-04 23:10:32			0	33790	0	0	0	17646	16280	153878	27556	961483	38496	106409	0	0	8150	767802	0	0
2024-05-04 23:11:32			0	33803	0	0	0	17646	16290	153774	27431	961525	38496	106409	0	0	8151	767110	0	0
2024-05-04 23:12:32			0	33794	0	0	0	17651	16290	153762	27486	961517	38485	106411	0	0	8150	767560	0	0
2024-05-04 23:13:32			0	33820	0	0	0	17646	16290	153714	27543	961464	38462	106409	0	0	8152	766259	0	0
2024-05-04 23:14:32			0	33830	0	0	0	17633	16290	153690	27241	961499	38485	106404	0	0	8152	765759	0	0
2024-05-04 23:15:32			0	33835	0	0	0	17641	16280	153742	27428	961422	38484	106407	0	0	8152	765550	0	0
2024-05-04 23:16:32			0	33823	0	0	0	17633	16280	153814	27419	961430	38485	106404	0	0	8152	766150	0	0
2024-05-04 23:17:32			0	33852	0	0	0	17623	16270	153662	27625	961387	38472	106400	0	0	8154	764742	0	0
2024-05-04 23:18:32			0	33844	0	0	0	17620	16260	153626	27204	961371	38472	106399	0	0	8153	765183	0	0
2024-05-04 23:19:32			0	33854	0	0	0	17615	16270	153654	27781	961440	38483	106397	0	0	8154	764642	0	0
2024-05-04 23:20:32			0	33835	0	0	0	17628	16270	153746	27310	961405	38494	106402	0	0	8153	765592	0	0
2024-05-04 23:21:32			0	33822	0	0	0	17618	16260	153734	27111	961344	38483	106398	0	0	8152	766283	0	0
2024-05-04 23:22:32			0	33836	0	0	0	17612	16270	153690	27578	961379	38483	106396	0	0	8153	765542	0	0
2024-05-04 23:23:32			0	33821	0	0	0	17628	16250	153726	27324	961354	38481	106402	0	0	8152	766374	0	0
2024-05-04 23:24:32			0	33816	0	0	0	17631	16260	153798	27211	961363	38493	106403	0	0	8151	766583	0	0
2024-05-04 23:25:32			0	33804	0	0	0	17636	16250	153950	27521	961381	38481	106405	0	0	8151	767225	0	0
2024-05-04 23:26:32			0	33776	0	0	0	17625	16260	153950	27260	961336	38482	106401	0	0	8149	768587	0	0
2024-05-04 23:27:32			0	33766	0	0	0	17628	16270	154018	27512	961353	38483	106402	0	0	8149	769047	0	0
2024-05-04 23:28:32			0	33764	0	0	0	17623	16250	154022	27620	961354	38470	106400	0	0	8148	769231	0	0
2024-05-04 23:29:32			0	33762	0	0	0	17623	16250	154010	27672	961381	38481	106400	0	0	8148	769331	0	0
2024-05-04 23:30:32			0	33752	0	0	0	17618	16250	154130	27601	961354	38470	106398	0	0	8148	769833	0	0
2024-05-04 23:31:32			0	33750	0	0	0	17620	16270	154122	27462	961405	38483	106399	0	0	8148	769850	0	0
2024-05-04 23:32:32			0	33759	0	0	0	17615	16260	154062	27286	961257	38460	106397	0	0	8148	769440	0	0
2024-05-04 23:33:32			0	33747	0	0	0	17610	16250	154210	27410	961328	38481	106395	0	0	8148	770084	0	0
2024-05-04 23:34:32			0	33737	0	0	0	17615	16250	154158	27592	961275	38481	106397	0	0	8147	770587	0	0
2024-05-04 23:35:32			0	33735	0	0	0	17625	16250	154162	27578	961328	38481	106401	0	0	8147	770687	0	0
2024-05-04 23:36:32			0	33724	0	0	0	17618	16240	154338	27213	961250	38480	106398	0	0	8146	771282	0	0
2024-05-04 23:37:32			0	33716	0	0	0	17607	16240	154378	27573	961311	38492	106394	0	0	8146	771684	0	0
2024-05-04 23:38:32			0	33748	0	0	0	17618	16240	154202	27346	961232	38492	106398	0	0	8148	770076	0	0
2024-05-04 23:39:32			0	33771	0	0	0	17610	16230	154102	27189	961321	38480	106395	0	0	8149	768963	0	0
2024-05-04 23:40:32			0	33795	0	0	0	17620	16240	153914	27197	961311	38492	106399	0	0	8150	767718	0	0
2024-05-04 23:41:32			0	33819	0	0	0	17618	16240	153770	27222	961338	38469	106398	0	0	8152	766516	0	0
2024-05-04 23:42:32			0	33827	0	0	0	17615	16240	153758	27261	961364	38492	106397	0	0	8152	766116	0	0
2024-05-04 23:43:32			0	33827	0	0	0	17620	16250	153642	27256	961373	38469	106399	0	0	8152	766074	0	0
2024-05-04 23:44:32			0	33828	0	0	0	17625	16240	153798	27223	961303	38469	106401	0	0	8152	766066	0	0
2024-05-04 23:45:32			0	33860	0	0	0	17618	16230	153670	26871	961269	38468	106398	0	0	8154	764508	0	0
2024-05-04 23:46:32			0	33860	0	0	0	17620	16250	153666	27518	961294	38480	106399	0	0	8154	764425	0	0
2024-05-04 23:47:32			0	33870	0	0	0	17618	16240	153642	27341	961338	38480	106398	0	0	8155	763967	0	0
2024-05-04 23:48:32			0	33895	0	0	0	17618	16240	153342	27305	961330	38492	106398	0	0	8156	762720	0	0
2024-05-04 23:49:32			0	33941	0	0	0	17618	16230	153314	27497	961269	38491	106398	0	0	8159	760471	0	0
2024-05-04 23:50:32			0	33952	0	0	0	17612	16230	153194	27218	961348	38468	106396	0	0	8160	759924	0	0
2024-05-04 23:51:32			0	33973	0	0	0	17612	16230	153126	27209	961321	38468	106396	0	0	8161	758881	0	0
2024-05-04 23:52:32			0	33993	0	0	0	17605	16240	153034	27635	961303	38480	106393	0	0	8162	757847	0	0
2024-05-04 23:53:32			0	34012	0	0	0	17599	16240	152922	27242	961277	38480	106391	0	0	8163	756906	0	0
2024-05-04 23:54:32			0	34022	0	0	0	17607	16230	152870	27078	961208	38479	106394	0	0	8164	756451	0	0
2024-05-04 23:55:32			0	34033	0	0	0	17605	16240	152874	27339	961224	38492	106393	0	0	8164	755866	0	0
2024-05-04 23:56:32			0	34058	0	0	0	17594	16230	152786	27545	961208	38479	106389	0	0	8166	754670	0	0
2024-05-04 23:57:32			0	34038	0	0	0	17599	16230	152686	27317	961287	38468	106391	0	0	8165	755659	0	0
2024-05-04 23:58:32			0	34038	0	0	0	17592	16220	152798	27364	961200	38479	106388	0	0	8165	755700	0	0
2024-05-04 23:59:32			0	34031	0	0	0	17597	16230	152794	27540	961234	38490	106390	0	0	8164	756006	0	0
2024-05-05 00:00:32			0	34047	0	0	0	17597	16220	152742	27440	961200	38479	106390	0	0	8165	755255	0	0
2024-05-05 00:01:32			0	34074	0	0	0	17605	16220	152594	27303	961191	38500	106393	0	0	8167	753920	0	0
2024-05-05 00:02:32			0	34091	0	0	0	17597	16210	152530	27391	961183	38478	106390	0	0	8168	753121	0	0
2024-05-05 00:03:32			0	34112	0	0	0	17605	16220	152498	27428	961218	38479	106393	0	0	8169	752045	0	0
2024-05-05 00:04:32			0	34092	0	0	0	17605	16220	152442	27248	961173	38490	106393	0	0	8168	753031	0	0
2024-05-05 00:05:32			0	34088	0	0	0	17599	16220	152514	27639	961200	38479	106391	0	0	8168	753229	0	0
2024-05-05 00:06:32			0	34093	0	0	0	17597	16210	152498	27388	961307	38477	106390	0	0	8168	753023	0	0
2024-05-05 00:07:32			0	34105	0	0	0	17594	16210	152510	27488	961280	38477	106389	0	0	8169	752431	0	0
2024-05-05 00:08:32			0	34129	0	0	0	17587	16210	152362	27395	961130	38478	106386	0	0	8170	751248	0	0
2024-05-05 00:09:32			0	34151	0	0	0	17592	16220	152294	27358	961165	38468	106388	0	0	8171	750124	0	0
2024-05-05 00:10:32			0	34189	0	0	0	17594	16220	152134	27109	961165	38490	106389	0	0	8173	748257	0	0
2024-05-05 00:11:32			0	34219	0	0	0	17592	16220	151978	27353	961218	38479	106388	0	0	8175	746785	0	0
2024-05-05 00:12:32			0	34210	0	0	0	17587	16210	151954	27230	961210	38457	106386	0	0	8175	747267	0	0
2024-05-05 00:13:32			0	34226	0	0	0	17594	16210	151958	27481	961183	38489	106389	0	0	8176	746482	0	0
2024-05-05 00:14:32			0	34244	0	0	0	17592	16220	151890	27769	961139	38490	106388	0	0	8177	745560	0	0
2024-05-05 00:15:32			0	34243	0	0	0	17581	16210	151890	27222	961157	38478	106384	0	0	8177	745649	0	0
2024-05-05 00:16:32			0	34221	0	0	0	17587	16200	151838	27305	961167	38477	106386	0	0	8175	746767	0	0
2024-05-05 00:17:32			0	34222	0	0	0	17584	16210	151878	27131	961104	38478	106385	0	0	8176	746678	0	0
2024-05-05 00:18:32			0	34205	0	0	0	17581	16210	151950	27398	961130	38478	106384	0	0	8175	747512	0	0
2024-05-05 00:19:32			0	34200	0	0	0	17581	16210	151954	27412	961122	38477	106384	0	0	8174	747757	0	0
2024-05-05 00:20:32			0	34210	0	0	0	17587	16210	151874	27170	961070	38477	106386	0	0	8175	747267	0	0
2024-05-05 00:21:32			0	34237	0	0	0	17581	16200	151830	27317	961080	38477	106384	0	0	8176	745983	0	0
2024-05-05 00:22:32			0	34231	0	0	0	17576	16200	151834	27360	961159	38477	106382	0	0	8176	746277	0	0
2024-05-05 00:23:32			0	34232	0	0	0	17587	16200	151758	27419	961167	38477	106386	0	0	8176	746228	0	0
2024-05-05 00:24:32			0	34229	0	0	0	17579	16210	151738	27204	961096	38456	106383	0	0	8176	746335	0	0
2024-05-05 00:25:32			0	34237	0	0	0	17581	16200	151770	27310	961167	38477	106384	0	0	8176	745983	0	0
2024-05-05 00:26:32			0	34215	0	0	0	17581	16200	151826	27149	961080	38477	106384	0	0	8175	747062	0	0
2024-05-05 00:27:32			0	34211	0	0	0	17584	16200	151902	27121	961167	38477	106385	0	0	8175	747258	0	0
2024-05-05 00:28:32			0	34207	0	0	0	17581	16200	151898	27215	961140	38477	106384	0	0	8175	747454	0	0
2024-05-05 00:29:32			0	34194	0	0	0	17579	16200	151934	27537	961106	38488	106383	0	0	8174	748092	0	0
2024-05-05 00:30:32			0	34178	0	0	0	17579	16190	152050	27384	961098	38487	106383	0	0	8173	748918	0	0
2024-05-05 00:31:32			0	34165	0	0	0	17558	16190	152106	27230	961098	38476	106375	0	0	8173	749557	0	0
2024-05-05 00:32:32			0	34125	0	0	0	17563	16190	152242	27497	961116	38475	106377	0	0	8170	751526	0	0
2024-05-05 00:33:32			0	34098	0	0	0	17566	16180	152366	27412	961047	38474	106378	0	0	8169	752898	0	0
2024-05-05 00:34:32			0	34053	0	0	0	17553	16190	152578	27104	961037	38454	106373	0	0	8166	755080	0	0
2024-05-05 00:35:32			0	34058	0	0	0	17545	16190	152542	27123	961090	38475	106370	0	0	8167	754833	0	0
2024-05-05 00:36:32			0	34061	0	0	0	17548	16180	152598	27383	961055	38475	106371	0	0	8167	754725	0	0
2024-05-05 00:37:32			0	34029	0	0	0	17535	16180	152674	27152	961029	38454	106366	0	0	8165	756309	0	0
2024-05-05 00:38:32			0	34019	0	0	0	17540	16170	152730	27630	960933	38453	106368	0	0	8164	756845	0	0
2024-05-05 00:39:32			0	34034	0	0	0	17532	16180	152738	27246	960994	38486	106365	0	0	8165	756061	0	0
2024-05-05 00:40:32			0	34040	0	0	0	17535	16180	152658	27055	960941	38486	106366	0	0	8166	755764	0	0
2024-05-05 00:41:32			0	34048	0	0	0	17537	16170	152626	27171	961012	38453	106367	0	0	8166	755409	0	0
2024-05-05 00:42:32			0	34063	0	0	0	17532	16150	152630	27180	960935	38484	106365	0	0	8167	754749	0	0
2024-05-05 00:43:32			0	34052	0	0	0	17529	16150	152646	27376	960882	38484	106364	0	0	8166	755293	0	0
2024-05-05 00:44:32			0	34029	0	0	0	17537	16150	152630	26989	960953	38473	106367	0	0	8165	756431	0	0
2024-05-05 00:45:32			0	34002	0	0	0	17529	16170	152758	27242	960925	38463	106364	0	0	8164	757688	0	0
2024-05-05 00:46:32			0	34009	0	0	0	17535	16150	152810	27358	960909	38473	106366	0	0	8164	757422	0	0
2024-05-05 00:47:32			0	33993	0	0	0	17535	16150	152854	27417	960874	38484	106366	0	0	8163	758216	0	0
2024-05-05 00:48:32			0	33977	0	0	0	17527	16160	152902	27145	960943	38462	106363	0	0	8162	758969	0	0
2024-05-05 00:49:32			0	33995	0	0	0	17535	16140	152878	27170	960919	38472	106366	0	0	8163	758158	0	0
2024-05-05 00:50:32			0	34000	0	0	0	17524	16150	152918	27384	960961	38462	106362	0	0	8163	757869	0	0
2024-05-05 00:51:32			0	33960	0	0	0	17529	16150	153034	27232	960953	38484	106364	0	0	8161	759855	0	0
2024-05-05 00:52:32			0	33933	0	0	0	17519	16140	153218	27022	960892	38472	106360	0	0	8160	761239	0	0
2024-05-05 00:53:32			0	33914	0	0	0	17524	16140	153206	27287	960911	38482	106362	0	0	8158	762185	0	0
2024-05-05 00:54:32			0	33909	0	0	0	17529	16140	153366	27079	960945	38472	106364	0	0	8158	762434	0	0
2024-05-05 00:55:32			0	33891	0	0	0	17522	16150	153390	27253	960927	38473	106361	0	0	8157	763290	0	0
2024-05-05 00:56:32			0	33874	0	0	0	17527	16140	153294	27524	960911	38482	106363	0	0	8156	764180	0	0
2024-05-05 00:57:32			0	33860	0	0	0	17524	16150	153502	27308	960901	38452	106362	0	0	8155	764838	0	0
2024-05-05 00:58:32			0	33838	0	0	0	17522	16140	153510	27424	960884	38471	106361	0	0	8154	765979	0	0
2024-05-05 00:59:32			0	33822	0	0	0	17524	16140	153714	27438	960858	38482	106362	0	0	8153	766780	0	0
2024-05-05 01:00:32			0	33805	0	0	0	17527	16140	153686	27182	960892	38483	106363	0	0	8152	767631	0	0
2024-05-05 01:01:32			0	33798	0	0	0	17522	16140	153762	27317	960892	38483	106361	0	0	8152	767982	0	0
2024-05-05 01:02:32			0	33782	0	0	0	17522	16140	153802	27008	960919	38472	106361	0	0	8151	768784	0	0
2024-05-05 01:03:32			0	33768	0	0	0	17527	16130	153850	27105	960868	38470	106363	0	0	8150	769528	0	0
2024-05-05 01:04:32			0	33759	0	0	0	17522	16130	153918	27166	960850	38460	106361	0	0	8149	769981	0	0
2024-05-05 01:05:32			0	33753	0	0	0	17522	16140	154034	26934	960884	38482	106361	0	0	8149	770240	0	0
2024-05-05 01:06:32			0	33753	0	0	0	17519	16130	153958	27128	960902	38482	106360	0	0	8149	770282	0	0
2024-05-05 01:07:32			0	33771	0	0	0	17516	16130	153914	27319	960876	38450	106359	0	0	8150	769378	0	0
2024-05-05 01:08:32			0	33760	0	0	0	17524	16130	153938	27485	960876	38471	106362	0	0	8149	769930	0	0
2024-05-05 01:09:32			0	33767	0	0	0	17524	16140	154034	27542	960884	38460	106362	0	0	8150	769537	0	0
2024-05-05 01:10:32			0	33732	0	0	0	17522	16140	154146	27519	960858	38471	106361	0	0	8148	771296	0	0
2024-05-05 01:11:32			0	33702	0	0	0	17532	16130	154134	27364	960868	38492	106365	0	0	8146	772848	0	0
2024-05-05 01:12:32			0	33695	0	0	0	17535	16130	154254	27509	960876	38471	106366	0	0	8145	773201	0	0
2024-05-05 01:13:32			0	33675	0	0	0	17542	16130	154386	27332	960850	38471	106369	0	0	8144	774209	0	0
2024-05-05 01:14:32			0	33665	0	0	0	17537	16130	154382	27234	960876	38482	106367	0	0	8144	774714	0	0
2024-05-05 01:15:32			0	33652	0	0	0	17527	16130	154550	27237	960902	38471	106363	0	0	8143	775370	0	0
2024-05-05 01:16:32			0	33599	0	0	0	17545	16140	154654	27434	960937	38471	106370	0	0	8140	778009	0	0
2024-05-05 01:17:32			0	33586	0	0	0	17555	16140	154566	27440	960937	38482	106374	0	0	8139	778668	0	0
2024-05-05 01:18:32			0	33591	0	0	0	17550	16150	154622	27296	960980	38484	106372	0	0	8139	778373	0	0
2024-05-05 01:19:32			0	33584	0	0	0	17545	16140	154658	27307	960971	38461	106370	0	0	8139	778769	0	0
2024-05-05 01:20:32			0	33559	0	0	0	17545	16130	154769	27580	960981	38482	106370	0	0	8137	780080	0	0
2024-05-05 01:21:32			0	33540	0	0	0	17548	16150	155001	27093	960961	38473	106371	0	0	8136	780960	0	0
2024-05-05 01:22:32			0	33514	0	0	0	17553	16140	155101	27381	960971	38461	106373	0	0	8134	782324	0	0
2024-05-05 01:23:32			0	33500	0	0	0	17555	16140	155169	27190	960945	38472	106374	0	0	8134	783037	0	0
2024-05-05 01:24:32			0	33529	0	0	0	17561	16150	155053	27251	960988	38473	106376	0	0	8135	781519	0	0
2024-05-05 01:25:32			0	33519	0	0	0	17550	16150	155089	27175	961032	38473	106372	0	0	8135	782028	0	0
2024-05-05 01:26:32			0	33533	0	0	0	17537	16150	155101	27277	961006	38473	106367	0	0	8136	781316	0	0
2024-05-05 01:27:32			0	33537	0	0	0	17545	16140	154825	27050	960919	38472	106370	0	0	8136	781155	0	0
2024-05-05 01:28:32			0	33575	0	0	0	17542	16150	154697	27455	961006	38484	106369	0	0	8138	779184	0	0
2024-05-05 01:29:32			0	33623	0	0	0	17545	16150	154514	27261	960935	38473	106370	0	0	8141	776752	0	0
2024-05-05 01:30:32			0	33676	0	0	0	17542	16150	154346	27511	960988	38473	106369	0	0	8144	774075	0	0
2024-05-05 01:31:32			0	33712	0	0	0	17550	16150	154102	27126	960953	38484	106372	0	0	8146	772261	0	0
2024-05-05 01:32:32			0	33716	0	0	0	17542	16150	154050	27334	960935	38484	106369	0	0	8147	772060	0	0
2024-05-05 01:33:32			0	33722	0	0	0	17542	16140	153994	27159	960971	38472	106369	0	0	8147	771799	0	0
2024-05-05 01:34:32			0	33733	0	0	0	17558	16150	153974	27416	960961	38484	106375	0	0	8147	771204	0	0
2024-05-05 01:35:32			0	33736	0	0	0	17555	16160	153982	27547	960996	38484	106374	0	0	8148	771012	0	0
2024-05-05 01:36:32			0	33750	0	0	0	17550	16150	153870	27180	960980	38473	106372	0	0	8148	770350	0	0
2024-05-05 01:37:32			0	33765	0	0	0	17555	16160	153870	27135	960970	38462	106374	0	0	8149	769555	0	0
2024-05-05 01:38:32			0	33745	0	0	0	17553	16160	153870	27194	961022	38495	106373	0	0	8148	770559	0	0
2024-05-05 01:39:32			0	33764	0	0	0	17555	16160	153878	27402	960970	38484	106374	0	0	8149	769605	0	0
2024-05-05 01:40:32			0	33762	0	0	0	17550	16170	153762	27486	961031	38463	106372	0	0	8149	769663	0	0
2024-05-05 01:41:32			0	33753	0	0	0	17540	16160	153810	27272	960996	38473	106368	0	0	8149	770157	0	0
2024-05-05 01:42:32			0	33775	0	0	0	17542	16150	153926	27351	960988	38484	106369	0	0	8150	769094	0	0
2024-05-05 01:43:32			0	33812	0	0	0	17548	16160	153758	27206	960970	38473	106371	0	0	8152	767198	0	0
2024-05-05 01:44:32			0	33824	0	0	0	17550	16160	153566	27166	960970	38473	106372	0	0	8153	766597	0	0
2024-05-05 01:45:32			0	33818	0	0	0	17542	16160	153458	27348	960943	38484	106369	0	0	8153	766897	0	0
2024-05-05 01:46:32			0	33859	0	0	0	17537	16160	153350	27353	960996	38473	106367	0	0	8155	764846	0	0
2024-05-05 01:47:32			0	33869	0	0	0	17540	16150	153254	27208	960961	38473	106368	0	0	8156	764388	0	0
2024-05-05 01:48:32			0	33892	0	0	0	17532	16150	153162	27255	960961	38473	106365	0	0	8157	763241	0	0
2024-05-05 01:49:32			0	33907	0	0	0	17537	16160	153154	27431	960943	38473	106367	0	0	8158	762451	0	0
2024-05-05 01:50:32			0	33928	0	0	0	17535	16150	153022	27428	960935	38473	106366	0	0	8159	761446	0	0
2024-05-05 01:51:32			0	33934	0	0	0	17535	16140	153042	27362	960919	38472	106366	0	0	8159	761189	0	0
2024-05-05 01:52:32			0	33924	0	0	0	17524	16150	152974	27473	960909	38462	106362	0	0	8159	761646	0	0
2024-05-05 01:53:32			0	33926	0	0	0	17529	16150	152942	27312	960901	38495	106364	0	0	8159	761546	0	0
2024-05-05 01:54:32			0	33949	0	0	0	17535	16150	152950	27274	960935	38484	106366	0	0	8160	760401	0	0
2024-05-05 01:55:32			0	33946	0	0	0	17529	16150	152894	27313	960909	38473	106364	0	0	8160	760551	0	0
2024-05-05 01:56:32			0	33958	0	0	0	17537	16150	152850	27426	960953	38484	106367	0	0	8161	759954	0	0
2024-05-05 01:57:32			0	33962	0	0	0	17540	16140	152766	27371	960963	38471	106368	0	0	8161	759796	0	0
2024-05-05 01:58:32			0	33955	0	0	0	17532	16150	152866	27367	960961	38473	106365	0	0	8161	760103	0	0
2024-05-05 01:59:32			0	33939	0	0	0	17529	16140	152918	27282	960919	38483	106364	0	0	8160	760940	0	0
2024-05-05 02:00:32			0	33933	0	0	0	17529	16150	152930	26986	960882	38473	106364	0	0	8159	761198	0	0
2024-05-05 02:01:32			0	33930	0	0	0	17522	16150	153002	27453	960901	38495	106361	0	0	8159	761347	0	0
2024-05-05 02:02:32			0	33943	0	0	0	17532	16140	152922	27360	960884	38471	106365	0	0	8160	760741	0	0
2024-05-05 02:03:32			0	33933	0	0	0	17529	16140	152966	27263	960858	38482	106364	0	0	8159	761239	0	0
2024-05-05 02:04:32			0	33912	0	0	0	17532	16140	153042	27585	960919	38472	106365	0	0	8158	762285	0	0
2024-05-05 02:05:32			0	33916	0	0	0	17524	16140	153006	27621	960971	38483	106362	0	0	8158	762085	0	0
2024-05-05 02:06:32			0	33935	0	0	0	17524	16150	152946	27251	960927	38484	106362	0	0	8160	761098	0	0
2024-05-05 02:07:32			0	33951	0	0	0	17524	16140	152910	27519	960919	38472	106362	0	0	8161	760343	0	0
2024-05-05 02:08:32			0	33953	0	0	0	17524	16140	152962	27426	960911	38482	106362	0	0	8161	760244	0	0
2024-05-05 02:09:32			0	33971	0	0	0	17527	16130	152834	27265	960902	38482	106363	0	0	8162	759390	0	0
2024-05-05 02:10:32			0	33974	0	0	0	17524	16140	152766	27398	960884	38471	106362	0	0	8162	759200	0	0
2024-05-05 02:11:32			0	33984	0	0	0	17519	16140	152782	27550	960911	38471	106360	0	0	8163	758703	0	0
2024-05-05 02:12:32			0	33968	0	0	0	17516	16130	152722	27358	960876	38482	106359	0	0	8162	759539	0	0
2024-05-05 02:13:32			0	33976	0	0	0	17511	16140	152850	27640	960884	38471	106357	0	0	8162	759101	0	0
2024-05-05 02:14:32			0	33967	0	0	0	17506	16130	152918	27597	960876	38471	106355	0	0	8162	759589	0	0
2024-05-05 02:15:32			0	33911	0	0	0	17509	16130	152866	27402	960876	38482	106356	0	0	8158	762376	0	0
2024-05-05 02:16:32			0	33957	0	0	0	17503	16120	152906	27175	960860	38470	106354	0	0	8161	760127	0	0
2024-05-05 02:17:32			0	33941	0	0	0	17516	16130	152942	27222	960876	38471	106359	0	0	8160	760882	0	0
2024-05-05 02:18:32			0	33949	0	0	0	17514	16130	152938	27294	960894	38481	106358	0	0	8161	760484	0	0
2024-05-05 02:19:32			0	33962	0	0	0	17522	16130	152890	27666	960823	38482	106361	0	0	8161	759837	0	0
2024-05-05 02:20:32			0	33970	0	0	0	17522	16140	152830	27428	960858	38482	106361	0	0	8162	759399	0	0
2024-05-05 02:21:32			0	33977	0	0	0	17511	16130	152858	27339	960868	38481	106357	0	0	8162	759092	0	0
2024-05-05 02:22:32			0	33983	0	0	0	17506	16130	152806	27519	960841	38481	106355	0	0	8163	758794	0	0
2024-05-05 02:23:32			0	33939	0	0	0	17503	16140	152862	27569	960840	38472	106354	0	0	8160	760940	0	0
2024-05-05 02:24:32			0	33938	0	0	0	17511	16130	152890	27533	960868	38470	106357	0	0	8160	761031	0	0
2024-05-05 02:25:32			0	33906	0	0	0	17506	16120	152990	27416	960860	38470	106355	0	0	8158	762666	0	0
2024-05-05 02:26:32			0	33926	0	0	0	17501	16120	153090	27694	960833	38470	106353	0	0	8159	761669	0	0
2024-05-05 02:27:32			0	33922	0	0	0	17490	16120	153038	27429	960886	38481	106349	0	0	8159	761869	0	0
2024-05-05 02:28:32			0	33896	0	0	0	17493	16120	152986	27578	960833	38481	106350	0	0	8158	763165	0	0
2024-05-05 02:29:32			0	33872	0	0	0	17493	16110	153130	27218	960790	38469	106350	0	0	8156	764404	0	0
2024-05-05 02:30:32			0	33846	0	0	0	17493	16120	153346	27469	960772	38458	106350	0	0	8155	765662	0	0
2024-05-05 02:31:32			0	33812	0	0	0	17498	16130	153470	27355	960789	38470	106352	0	0	8153	767322	0	0
2024-05-05 02:32:32			0	33773	0	0	0	17488	16120	153682	27220	960833	38481	106348	0	0	8151	769319	0	0
2024-05-05 02:33:32			0	33769	0	0	0	17477	16110	153806	27255	960817	38480	106344	0	0	8151	769561	0	0
2024-05-05 02:34:32			0	33749	0	0	0	17475	16100	153882	27521	960774	38480	106343	0	0	8149	770608	0	0
2024-05-05 02:35:32			0	33775	0	0	0	17480	16110	153766	27258	960729	38469	106345	0	0	8151	769260	0	0
2024-05-05 02:36:32			0	33759	0	0	0	17480	16110	153746	27566	960729	38480	106345	0	0	8150	770064	0	0
2024-05-05 02:37:32			0	33738	0	0	0	17472	16110	153826	27402	960738	38492	106342	0	0	8149	771119	0	0
2024-05-05 02:38:32			0	33735	0	0	0	17477	16100	153902	27274	960792	38458	106344	0	0	8149	771312	0	0
2024-05-05 02:39:32			0	33735	0	0	0	17470	16100	153906	27595	960713	38468	106341	0	0	8149	771312	0	0
2024-05-05 02:40:32			0	33736	0	0	0	17470	16100	154062	27435	960739	38458	106341	0	0	8149	771261	0	0
2024-05-05 02:41:32			0	33719	0	0	0	17464	16100	154074	27364	960660	38468	106339	0	0	8148	772117	0	0
2024-05-05 02:42:32			0	33709	0	0	0	17457	16100	154070	27575	960713	38468	106336	0	0	8147	772621	0	0
2024-05-05 02:43:32			0	33708	0	0	0	17464	16080	153910	27429	960688	38457	106339	0	0	8147	772754	0	0
2024-05-05 02:44:32			0	33691	0	0	0	17470	16090	154178	27391	960731	38479	106341	0	0	8146	773569	0	0
2024-05-05 02:45:32			0	33668	0	0	0	17475	16090	154306	27587	960697	38478	106343	0	0	8145	774730	0	0
2024-05-05 02:46:32			0	33636	0	0	0	17477	16090	154498	27329	960705	38468	106344	0	0	8143	776346	0	0
2024-05-05 02:47:32			0	33619	0	0	0	17475	16100	154602	27488	960713	38468	106343	0	0	8142	777165	0	0
2024-05-05 02:48:32			0	33578	0	0	0	17477	16090	154626	27104	960705	38468	106344	0	0	8139	779284	0	0
2024-05-05 02:49:32			0	33559	0	0	0	17464	16090	154825	27305	960758	38468	106339	0	0	8138	780248	0	0
2024-05-05 02:50:32			0	33553	0	0	0	17467	16090	154801	27216	960723	38489	106340	0	0	8138	780553	0	0
2024-05-05 02:51:32			0	33541	0	0	0	17459	16090	154841	27369	960670	38478	106337	0	0	8137	781162	0	0
2024-05-05 02:52:32			0	33547	0	0	0	17459	16100	154893	27178	960660	38468	106337	0	0	8138	780815	0	0
2024-05-05 02:53:32			0	33546	0	0	0	17451	16080	155009	27341	960715	38467	106334	0	0	8138	780950	0	0
2024-05-05 02:54:32			0	33537	0	0	0	17457	16080	154953	27275	960688	38478	106336	0	0	8137	781408	0	0
2024-05-05 02:55:32			0	33517	0	0	0	17462	16080	155029	27275	960715	38467	106338	0	0	8136	782425	0	0
2024-05-05 02:56:32			0	33498	0	0	0	17459	16080	154993	27426	960654	38466	106337	0	0	8135	783392	0	0
2024-05-05 02:57:32			0	33487	0	0	0	17464	16080	155185	27364	960680	38466	106339	0	0	8134	783953	0	0
2024-05-05 02:58:32			0	33476	0	0	0	17464	16080	155157	27531	960662	38478	106339	0	0	8133	784514	0	0
2024-05-05 02:59:32			0	33499	0	0	0	17462	16080	155165	27305	960636	38467	106338	0	0	8135	783341	0	0
2024-05-05 03:00:32			0	33491	0	0	0	17467	16080	155145	27306	960680	38477	106340	0	0	8134	783749	0	0
2024-05-05 03:01:32			0	33475	0	0	0	17462	16070	155173	27495	960672	38477	106338	0	0	8133	784607	0	0
2024-05-05 03:02:32			0	33471	0	0	0	17464	16070	155157	27253	960559	38444	106339	0	0	8133	784811	0	0
2024-05-05 03:03:32			0	33481	0	0	0	17467	16070	155089	27533	960672	38477	106340	0	0	8134	784301	0	0
2024-05-05 03:04:32			0	33484	0	0	0	17454	16090	155185	27329	960697	38467	106335	0	0	8134	784063	0	0
2024-05-05 03:05:32			0	33483	0	0	0	17457	16080	155233	27573	960680	38466	106336	0	0	8134	784157	0	0
2024-05-05 03:06:32			0	33480	0	0	0	17451	16080	155177	27428	960628	38477	106334	0	0	8134	784310	0	0
2024-05-05 03:07:32			0	33487	0	0	0	17459	16070	155133	27504	960646	38456	106337	0	0	8134	783995	0	0
2024-05-05 03:08:32			0	33487	0	0	0	17459	16070	155201	27535	960698	38466	106337	0	0	8134	783995	0	0
2024-05-05 03:09:32			0	33488	0	0	0	17457	16080	155197	27407	960654	38445	106336	0	0	8134	783902	0	0
2024-05-05 03:10:32			0	33506	0	0	0	17459	16070	155201	27197	960638	38476	106337	0	0	8135	783027	0	0
2024-05-05 03:11:32			0	33505	0	0	0	17446	16070	155017	27248	960593	38466	106332	0	0	8135	783078	0	0
2024-05-05 03:12:32			0	33526	0	0	0	17446	16060	155025	27286	960656	38464	106332	0	0	8137	782051	0	0
2024-05-05 03:13:32			0	33533	0	0	0	17451	16070	155005	27486	960638	38476	106334	0	0	8137	781653	0	0
2024-05-05 03:14:32			0	33525	0	0	0	17444	16070	154977	27537	960611	38465	106331	0	0	8137	782060	0	0
2024-05-05 03:15:32			0	33544	0	0	0	17441	16070	154885	27218	960611	38455	106330	0	0	8138	781094	0	0
2024-05-05 03:16:32			0	33528	0	0	0	17433	16070	154889	27216	960585	38476	106327	0	0	8137	781908	0	0
2024-05-05 03:17:32			0	33529	0	0	0	17431	16060	154945	27313	960577	38475	106326	0	0	8137	781899	0	0
2024-05-05 03:18:32			0	33528	0	0	0	17433	16070	154893	27270	960585	38465	106327	0	0	8137	781908	0	0
2024-05-05 03:19:32			0	33531	0	0	0	17438	16060	155001	27666	960577	38475	106329	0	0	8137	781797	0	0
2024-05-05 03:20:32			0	33536	0	0	0	17441	16060	154849	27395	960629	38454	106330	0	0	8137	781543	0	0
2024-05-05 03:21:32			0	33541	0	0	0	17438	16050	154889	27388	960587	38463	106329	0	0	8137	781331	0	0
2024-05-05 03:22:32			0	33575	0	0	0	17438	16070	154838	27571	960638	38465	106329	0	0	8140	779520	0	0
2024-05-05 03:23:32			0	33607	0	0	0	17436	16060	154614	27320	960595	38475	106328	0	0	8141	777940	0	0
2024-05-05 03:24:32			0	33652	0	0	0	17441	16060	154282	27751	960569	38475	106330	0	0	8144	775663	0	0
2024-05-05 03:25:32			0	33709	0	0	0	17431	16060	154014	27665	960577	38454	106326	0	0	8148	772787	0	0
2024-05-05 03:26:32			0	33757	0	0	0	17433	16050	153922	27343	960534	38463	106327	0	0	8150	770414	0	0
2024-05-05 03:27:32			0	33781	0	0	0	17431	16060	153718	27511	960516	38475	106326	0	0	8152	769167	0	0
2024-05-05 03:28:32			0	33822	0	0	0	17438	16060	153550	27362	960569	38464	106329	0	0	8154	767111	0	0
2024-05-05 03:29:32			0	33826	0	0	0	17423	16060	153526	27303	960595	38454	106323	0	0	8155	766911	0	0
2024-05-05 03:30:32			0	33844	0	0	0	17444	16050	153578	27878	960534	38475	106331	0	0	8155	766051	0	0
2024-05-05 03:31:32			0	33815	0	0	0	17425	16050	153626	27569	960579	38463	106324	0	0	8154	767503	0	0
2024-05-05 03:32:32			0	33801	0	0	0	17438	16050	153738	27374	960579	38463	106329	0	0	8153	768205	0	0
2024-05-05 03:33:32			0	33791	0	0	0	17428	16050	153642	27685	960587	38475	106325	0	0	8152	768706	0	0
2024-05-05 03:34:32			0	33795	0	0	0	17436	16050	153798	27291	960587	38453	106328	0	0	8152	768506	0	0
2024-05-05 03:35:32			0	33784	0	0	0	17433	16050	153722	27414	960605	38463	106327	0	0	8152	769058	0	0
2024-05-05 03:36:32			0	33789	0	0	0	17423	16040	153714	27630	960570	38441	106323	0	0	8152	768848	0	0
2024-05-05 03:37:32			0	33794	0	0	0	17428	16050	153674	27287	960605	38463	106325	0	0	8153	768556	0	0
2024-05-05 03:38:32			0	33794	0	0	0	17415	16050	153598	27526	960579	38475	106320	0	0	8153	768556	0	0
2024-05-05 03:39:32			0	33803	0	0	0	17418	16040	153714	27694	960491	38463	106321	0	0	8153	768146	0	0
2024-05-05 03:40:32			0	33794	0	0	0	17420	16050	153670	27713	960500	38453	106322	0	0	8153	768556	0	0
2024-05-05 03:41:32			0	33772	0	0	0	17415	16040	153718	27495	960544	38463	106320	0	0	8151	769702	0	0
2024-05-05 03:42:32			0	33790	0	0	0	17418	16060	153758	27223	960542	38487	106321	0	0	8153	768715	0	0
2024-05-05 03:43:32			0	33802	0	0	0	17410	16030	153662	27602	960501	38462	106318	0	0	8153	768238	0	0
2024-05-05 03:44:32			0	33814	0	0	0	17402	16050	153610	27718	960579	38463	106315	0	0	8154	767553	0	0
2024-05-05 03:45:32			0	33872	0	0	0	17412	16040	153338	27246	960483	38463	106319	0	0	8157	764692	0	0
2024-05-05 03:46:32			0	33918	0	0	0	17407	16040	153134	27256	960536	38474	106317	0	0	8160	762397	0	0
2024-05-05 03:47:32			0	33964	0	0	0	17402	16040	152898	27218	960570	38463	106315	0	0	8163	760107	0	0
2024-05-05 03:48:32			0	34017	0	0	0	17407	16030	152622	27391	960554	38462	106317	0	0	8166	757516	0	0
2024-05-05 03:49:32			0	34061	0	0	0	17402	16030	152522	27407	960528	38462	106315	0	0	8168	755337	0	0
2024-05-05 03:50:32			0	34099	0	0	0	17410	16040	152310	27270	960483	38452	106318	0	0	8171	753418	0	0
2024-05-05 03:51:32			0	34116	0	0	0	17405	16030	152122	27537	960440	38462	106316	0	0	8172	752619	0	0
2024-05-05 03:52:32			0	34126	0	0	0	17402	16040	152114	27090	960510	38463	106315	0	0	8172	752086	0	0
2024-05-05 03:53:32			0	34115	0	0	0	17410	16030	152166	27248	960467	38462	106318	0	0	8171	752669	0	0
2024-05-05 03:54:32			0	34089	0	0	0	17402	16030	152378	27300	960422	38462	106315	0	0	8170	753952	0	0
2024-05-05 03:55:32			0	34064	0	0	0	17405	16030	152526	27395	960501	38484	106316	0	0	8169	755188	0	0
2024-05-05 03:56:32			0	34005	0	0	0	17402	16030	152674	27718	960493	38462	106315	0	0	8165	758111	0	0
2024-05-05 03:57:32			0	33958	0	0	0	17407	16030	152826	27542	960467	38462	106317	0	0	8162	760446	0	0
2024-05-05 03:58:32			0	33931	0	0	0	17399	16020	153030	27691	960503	38472	106314	0	0	8161	761831	0	0
2024-05-05 03:59:32			0	33887	0	0	0	17402	16030	153194	27244	960467	38462	106315	0	0	8158	763984	0	0
2024-05-05 04:00:32			0	33861	0	0	0	17399	16030	153374	27208	960440	38462	106314	0	0	8157	765283	0	0
2024-05-05 04:01:32			0	33796	0	0	0	17405	16020	153522	27345	960432	38461	106316	0	0	8153	768580	0	0
2024-05-05 04:02:32			0	33794	0	0	0	17402	16030	153714	27552	960414	38484	106315	0	0	8153	768639	0	0
2024-05-05 04:03:32			0	33763	0	0	0	17415	16020	153702	27611	960459	38461	106320	0	0	8151	770237	0	0
2024-05-05 04:04:32			0	33753	0	0	0	17410	16020	153966	27360	960432	38472	106318	0	0	8150	770739	0	0
2024-05-05 04:05:32			0	33719	0	0	0	17423	16020	153954	27381	960432	38472	106323	0	0	8148	772450	0	0
2024-05-05 04:06:32			0	33722	0	0	0	17415	16020	154002	27053	960459	38440	106320	0	0	8148	772299	0	0
2024-05-05 04:07:32			0	33724	0	0	0	17428	16030	154074	27395	960440	38473	106325	0	0	8148	772157	0	0
2024-05-05 04:08:32			0	33733	0	0	0	17412	16020	153970	27516	960345	38461	106319	0	0	8149	771745	0	0
2024-05-05 04:09:32			0	33768	0	0	0	17415	16020	153774	27614	960406	38461	106320	0	0	8151	769985	0	0
2024-05-05 04:10:32			0	33782	0	0	0	17405	16030	153614	27561	960475	38441	106316	0	0	8152	769241	0	0
2024-05-05 04:11:32			0	33822	0	0	0	17402	16010	153446	27367	960442	38460	106315	0	0	8154	767318	0	0
2024-05-05 04:12:32			0	33859	0	0	0	17399	16020	153350	27345	960450	38451	106314	0	0	8157	765425	0	0
2024-05-05 04:13:32			0	33877	0	0	0	17394	16020	153154	27377	960424	38461	106312	0	0	8158	764525	0	0
2024-05-05 04:14:32			0	33908	0	0	0	17394	16020	153110	27698	960450	38472	106312	0	0	8160	762978	0	0
2024-05-05 04:15:32			0	33936	0	0	0	17397	16020	152926	27372	960450	38461	106313	0	0	8161	761582	0	0
2024-05-05 04:16:32			0	33979	0	0	0	17405	16010	152718	27692	960460	38460	106316	0	0	8164	759484	0	0
2024-05-05 04:17:32			0	33995	0	0	0	17399	16020	152638	27239	960432	38451	106314	0	0	8165	758649	0	0
2024-05-05 04:18:32			0	34034	0	0	0	17397	16020	152450	27208	960477	38461	106313	0	0	8167	756714	0	0
2024-05-05 04:19:32			0	34056	0	0	0	17397	16020	152406	27114	960450	38461	106313	0	0	8168	755625	0	0
2024-05-05 04:20:32			0	34081	0	0	0	17397	16010	152346	27267	960442	38439	106313	0	0	8170	754429	0	0
2024-05-05 04:21:32			0	34101	0	0	0	17397	16020	152174	27152	960432	38461	106313	0	0	8171	753400	0	0
2024-05-05 04:22:32			0	34131	0	0	0	17402	16020	152014	27287	960424	38461	106315	0	0	8172	751920	0	0
2024-05-05 04:23:32			0	34166	0	0	0	17399	16020	151962	27319	960459	38461	106314	0	0	8175	750196	0	0
2024-05-05 04:24:32			0	34165	0	0	0	17402	16020	151902	27466	960432	38451	106315	0	0	8174	750245	0	0
2024-05-05 04:25:32			0	34188	0	0	0	17399	16020	151850	27352	960459	38461	106314	0	0	8176	749114	0	0
2024-05-05 04:26:32			0	34213	0	0	0	17405	16020	151590	27175	960432	38461	106316	0	0	8177	747886	0	0
2024-05-05 04:27:32			0	34244	0	0	0	17402	16010	151654	27296	960469	38460	106315	0	0	8179	746406	0	0
2024-05-05 04:28:32			0	34242	0	0	0	17399	16020	151546	27256	960424	38461	106314	0	0	8179	746463	0	0
2024-05-05 04:29:32			0	34232	0	0	0	17397	16020	151602	27170	960459	38451	106313	0	0	8178	746954	0	0
2024-05-05 04:30:32			0	34211	0	0	0	17397	16020	151554	27274	960459	38483	106313	0	0	8177	747984	0	0
2024-05-05 04:31:32			0	34210	0	0	0	17399	16020	151626	27305	960450	38461	106314	0	0	8177	748033	0	0
2024-05-05 04:32:32			0	34186	0	0	0	17392	16010	151846	27595	960495	38460	106311	0	0	8176	749253	0	0
2024-05-05 04:33:32			0	34133	0	0	0	17405	16010	152106	27175	960416	38460	106316	0	0	8172	751862	0	0
2024-05-05 04:34:32			0	34109	0	0	0	17399	16020	152210	27332	960450	38461	106314	0	0	8171	753005	0	0
2024-05-05 04:35:32			0	34066	0	0	0	17405	16010	152286	27241	960390	38471	106316	0	0	8169	755171	0	0
2024-05-05 04:36:32			0	34030	0	0	0	17394	16020	152530	27391	960424	38440	106312	0	0	8167	756913	0	0
2024-05-05 04:37:32			0	34005	0	0	0	17386	16010	152578	27568	960416	38460	106309	0	0	8165	758193	0	0
2024-05-05 04:38:32			0	33967	0	0	0	17399	16010	152842	27611	960442	38471	106314	0	0	8163	760081	0	0
2024-05-05 04:39:32			0	33935	0	0	0	17386	16020	152866	27175	960398	38472	106309	0	0	8161	761632	0	0
2024-05-05 04:40:32			0	33919	0	0	0	17389	16010	153018	27573	960416	38450	106310	0	0	8160	762471	0	0
2024-05-05 04:41:32			0	33911	0	0	0	17384	16020	153034	27454	960450	38440	106308	0	0	8160	762828	0	0
2024-05-05 04:42:32			0	33888	0	0	0	17392	16010	153014	27197	960416	38460	106311	0	0	8158	764017	0	0
2024-05-05 04:43:32			0	33877	0	0	0	17394	16000	153094	27253	960347	38459	106312	0	0	8158	764608	0	0
2024-05-05 04:44:32			0	33894	0	0	0	17386	16010	153090	27255	960381	38450	106309	0	0	8159	763717	0	0
2024-05-05 04:45:32			0	33870	0	0	0	17386	16020	153146	27403	960450	38483	106309	0	0	8158	764875	0	0
2024-05-05 04:46:32			0	33871	0	0	0	17397	16020	153106	27362	960477	38461	106313	0	0	8157	764825	0	0
2024-05-05 04:47:32			0	33879	0	0	0	17394	16010	153074	27232	960416	38482	106312	0	0	8158	764466	0	0
2024-05-05 04:48:32			0	33878	0	0	0	17394	16010	153146	27222	960355	38471	106312	0	0	8158	764517	0	0
2024-05-05 04:49:32			0	33856	0	0	0	17399	16000	153234	27332	960365	38448	106314	0	0	8156	765657	0	0
2024-05-05 04:50:32			0	33841	0	0	0	17381	16010	153286	27246	960434	38460	106307	0	0	8156	766367	0	0
2024-05-05 04:51:32			0	33836	0	0	0	17392	16000	153262	27459	960452	38449	106311	0	0	8155	766658	0	0
2024-05-05 04:52:32			0	33843	0	0	0	17392	16010	153270	27313	960408	38471	106311	0	0	8156	766267	0	0
2024-05-05 04:53:32			0	33825	0	0	0	17394	16010	153282	27213	960363	38471	106312	0	0	8155	767168	0	0
2024-05-05 04:54:32			0	33822	0	0	0	17386	16000	153202	27095	960417	38448	106309	0	0	8155	767359	0	0
2024-05-05 04:55:32			0	33826	0	0	0	17384	16000	153402	27450	960479	38449	106308	0	0	8155	767159	0	0
2024-05-05 04:56:32			0	33842	0	0	0	17381	16010	153262	27357	960434	38471	106307	0	0	8156	766316	0	0
2024-05-05 04:57:32			0	33860	0	0	0	17379	16000	153198	26998	960391	38458	106306	0	0	8157	765457	0	0
2024-05-05 04:58:32			0	33854	0	0	0	17376	16000	153202	27048	960365	38458	106305	0	0	8157	765757	0	0
2024-05-05 04:59:32			0	33873	0	0	0	17379	16000	153130	27008	960391	38458	106306	0	0	8158	764807	0	0
2024-05-05 05:00:32			0	33874	0	0	0	17381	16000	153130	27062	960373	38459	106307	0	0	8158	764758	0	0
2024-05-05 05:01:32			0	33870	0	0	0	17374	16000	153042	27223	960338	38458	106304	0	0	8158	764957	0	0
2024-05-05 05:02:32			0	33881	0	0	0	17355	15980	153066	27209	960314	38469	106297	0	0	8159	764490	0	0
2024-05-05 05:03:32			0	33903	0	0	0	17353	15990	153054	27298	960269	38458	106296	0	0	8160	763351	0	0
2024-05-05 05:04:32			0	33912	0	0	0	17353	15980	153014	27554	960261	38458	106296	0	0	8160	762943	0	0
2024-05-05 05:05:32			0	33924	0	0	0	17348	15990	152826	27618	960243	38458	106294	0	0	8161	762304	0	0
2024-05-05 05:06:32			0	33949	0	0	0	17358	15970	152870	27357	960245	38458	106298	0	0	8162	761140	0	0
2024-05-05 05:07:32			0	33952	0	0	0	17355	15980	152914	27372	960314	38469	106297	0	0	8163	760950	0	0
2024-05-05 05:08:32			0	33926	0	0	0	17355	15970	152878	27459	960263	38457	106297	0	0	8161	762286	0	0
2024-05-05 05:09:32			0	33926	0	0	0	17353	15980	152946	27313	960253	38458	106296	0	0	8161	762245	0	0
2024-05-05 05:10:32			0	33935	0	0	0	17353	15970	152842	27258	960245	38458	106296	0	0	8162	761838	0	0
2024-05-05 05:11:32			0	33936	0	0	0	17327	15970	152926	27334	960263	38457	106286	0	0	8162	761788	0	0
2024-05-05 05:12:32			0	33919	0	0	0	17329	15970	152954	27701	960210	38457	106287	0	0	8161	762635	0	0
2024-05-05 05:13:32			0	33904	0	0	0	17319	15960	153062	27651	960149	38467	106283	0	0	8160	763424	0	0
2024-05-05 05:14:32			0	33870	0	0	0	17316	15960	153122	27357	960202	38434	106282	0	0	8158	765123	0	0
2024-05-05 05:15:32			0	33827	0	0	0	17309	15960	153362	27324	960149	38467	106279	0	0	8156	767274	0	0
2024-05-05 05:16:32			0	33792	0	0	0	17306	15960	153558	27213	960141	38456	106278	0	0	8154	769030	0	0
2024-05-05 05:17:32			0	33756	0	0	0	17311	15950	153618	27500	960151	38455	106280	0	0	8152	770880	0	0
2024-05-05 05:18:32			0	33706	0	0	0	17301	15950	153938	27209	960159	38456	106276	0	0	8149	773397	0	0
2024-05-05 05:19:32			0	33637	0	0	0	17293	15940	154254	27287	960143	38444	106273	0	0	8145	776924	0	0
2024-05-05 05:20:32			0	33575	0	0	0	17293	15940	154562	27133	960109	38432	106273	0	0	8141	780067	0	0
2024-05-05 05:21:32			0	33520	0	0	0	17296	15940	154769	27400	960090	38455	106274	0	0	8138	782863	0	0
2024-05-05 05:22:32			0	33493	0	0	0	17296	15930	154993	27391	960040	38453	106274	0	0	8136	784281	0	0
2024-05-05 05:23:32			0	33466	0	0	0	17290	15940	155105	27602	960117	38444	106272	0	0	8135	785617	0	0
2024-05-05 05:24:32			0	33420	0	0	0	17290	15930	155277	27438	960100	38464	106272	0	0	8132	788011	0	0
2024-05-05 05:25:32			0	33376	0	0	0	17288	15930	155493	27438	960100	38431	106271	0	0	8130	790266	0	0
2024-05-05 05:26:32			0	33338	0	0	0	17298	15930	155637	27512	960066	38453	106275	0	0	8127	792218	0	0
2024-05-05 05:27:32			0	33302	0	0	0	17296	15940	155821	27203	960090	38455	106274	0	0	8125	794028	0	0
2024-05-05 05:28:32			0	33266	0	0	0	17301	15930	156073	27291	960092	38464	106276	0	0	8123	795927	0	0
2024-05-05 05:29:32			0	33219	0	0	0	17303	15910	156145	27055	960094	38452	106277	0	0	8120	798441	0	0
2024-05-05 05:30:32			0	33192	0	0	0	17290	15930	156321	27244	960119	38453	106272	0	0	8119	799753	0	0
2024-05-05 05:31:32			0	33179	0	0	0	17296	15920	156569	27753	959997	38441	106274	0	0	8118	800470	0	0
2024-05-05 05:32:32			0	33146	0	0	0	17296	15930	156497	27336	960092	38453	106274	0	0	8116	802140	0	0
2024-05-05 05:33:32			0	33155	0	0	0	17303	15910	156461	27166	960068	38452	106277	0	0	8116	801759	0	0
2024-05-05 05:34:32			0	33166	0	0	0	17290	15930	156505	27260	960092	38453	106272	0	0	8117	801101	0	0
2024-05-05 05:35:32			0	33179	0	0	0	17301	15930	156441	27597	960145	38442	106276	0	0	8118	800427	0	0
2024-05-05 05:36:32			0	33186	0	0	0	17293	15910	156405	27241	960068	38462	106273	0	0	8118	800150	0	0
2024-05-05 05:37:32			0	33217	0	0	0	17301	15930	156253	27390	960066	38453	106276	0	0	8120	798459	0	0
2024-05-05 05:38:32			0	33242	0	0	0	17303	15910	156161	27313	960068	38462	106277	0	0	8121	797252	0	0
2024-05-05 05:39:32			0	33227	0	0	0	17298	15920	156089	27767	960031	38464	106275	0	0	8120	797984	0	0
2024-05-05 05:40:32			0	33241	0	0	0	17296	15910	156061	27138	959989	38441	106274	0	0	8121	797304	0	0
2024-05-05 05:41:32			0	33274	0	0	0	17290	15910	155925	27260	960068	38452	106272	0	0	8123	795600	0	0
2024-05-05 05:42:32			0	33288	0	0	0	17303	15910	155985	27490	960060	38462	106277	0	0	8124	794878	0	0
2024-05-05 05:43:32			0	33274	0	0	0	17316	15920	155857	27521	960084	38464	106282	0	0	8123	795557	0	0
2024-05-05 05:44:32			0	33267	0	0	0	17306	15910	155933	27550	960041	38462	106278	0	0	8123	795961	0	0
2024-05-05 05:45:32			0	33261	0	0	0	17303	15930	156081	27339	960074	38464	106277	0	0	8122	796185	0	0
2024-05-05 05:46:32			0	33239	0	0	0	17301	15920	156001	27215	960058	38453	106276	0	0	8121	797364	0	0
2024-05-05 05:47:32			0	33231	0	0	0	17293	15920	156173	27414	960076	38453	106273	0	0	8121	797778	0	0
2024-05-05 05:48:32			0	33208	0	0	0	17290	15910	156225	27377	960068	38462	106272	0	0	8119	799011	0	0
2024-05-05 05:49:32			0	33201	0	0	0	17283	15910	156253	27114	960041	38429	106269	0	0	8119	799373	0	0
2024-05-05 05:50:32			0	33205	0	0	0	17290	15910	156341	27627	960060	38441	106272	0	0	8119	799166	0	0
2024-05-05 05:51:32			0	33243	0	0	0	17298	15910	156241	27514	960007	38452	106275	0	0	8121	797200	0	0
2024-05-05 05:52:32			0	33243	0	0	0	17306	15910	156117	27488	960041	38452	106278	0	0	8121	797200	0	0
2024-05-05 05:53:32			0	33255	0	0	0	17290	15910	156049	27286	960068	38452	106272	0	0	8122	796580	0	0
2024-05-05 05:54:32			0	33267	0	0	0	17298	15920	155977	27476	960050	38430	106275	0	0	8123	795918	0	0
2024-05-05 05:55:32			0	33277	0	0	0	17298	15910	155913	27168	960007	38452	106275	0	0	8123	795445	0	0
2024-05-05 05:56:32			0	33297	0	0	0	17298	15910	155929	27545	960007	38441	106275	0	0	8125	794414	0	0
2024-05-05 05:57:32			0	33304	0	0	0	17288	15900	155893	27353	960078	38452	106271	0	0	8125	794096	0	0
2024-05-05 05:58:32			0	33313	0	0	0	17285	15910	155865	27343	960041	38441	106270	0	0	8126	793590	0	0
2024-05-05 05:59:32			0	33316	0	0	0	17285	15900	155677	27286	960017	38451	106270	0	0	8126	793478	0	0
2024-05-05 06:00:32			0	33347	0	0	0	17298	15910	155729	27445	960060	38441	106275	0	0	8128	791841	0	0
2024-05-05 06:01:32			0	33326	0	0	0	17285	15910	155469	27187	960060	38441	106270	0	0	8127	792920	0	0
2024-05-05 06:02:32			0	33347	0	0	0	17277	15910	155477	27282	960007	38462	106267	0	0	8128	791841	0	0
2024-05-05 06:03:32			0	33357	0	0	0	17283	15900	155573	27280	959990	38429	106269	0	0	8128	791370	0	0
2024-05-05 06:04:32			0	33350	0	0	0	17290	15900	155497	27307	960051	38452	106272	0	0	8128	791729	0	0
2024-05-05 06:05:32			0	33371	0	0	0	17275	15910	155553	27313	960033	38452	106266	0	0	8129	790608	0	0
2024-05-05 06:06:32			0	33383	0	0	0	17280	15900	155461	27350	960017	38451	106268	0	0	8130	790035	0	0
2024-05-05 06:07:32			0	33396	0	0	0	17280	15900	155401	27507	960051	38452	106268	0	0	8131	789368	0	0
2024-05-05 06:08:32			0	33399	0	0	0	17280	15910	155349	27015	960033	38452	106268	0	0	8131	789172	0	0
2024-05-05 06:09:32			0	33419	0	0	0	17283	15900	155137	27540	960043	38451	106269	0	0	8132	788190	0	0
2024-05-05 06:10:32			0	33433	0	0	0	17275	15900	155209	27720	959999	38441	106266	0	0	8133	787473	0	0
2024-05-05 06:11:32			0	33441	0	0	0	17275	15890	155053	27383	960009	38460	106266	0	0	8134	787106	0	0
2024-05-05 06:12:32			0	33451	0	0	0	17275	15900	155061	27685	959964	38451	106266	0	0	8134	786553	0	0
2024-05-05 06:13:32			0	33469	0	0	0	17283	15900	155021	27400	960051	38429	106269	0	0	8135	785633	0	0
2024-05-05 06:14:32			0	33452	0	0	0	17275	15900	155089	27786	960025	38462	106266	0	0	8134	786502	0	0
2024-05-05 06:15:32			0	33430	0	0	0	17275	15890	155165	27824	960009	38450	106266	0	0	8133	787669	0	0
2024-05-05 06:16:32			0	33444	0	0	0	17275	15900	155165	27460	960017	38440	106266	0	0	8134	786911	0	0
2024-05-05 06:17:32			0	33436	0	0	0	17272	15890	155181	27490	960009	38439	106265	0	0	8133	787362	0	0
2024-05-05 06:18:32			0	33436	0	0	0	17270	15890	155093	27407	960009	38471	106264	0	0	8133	787362	0	0
2024-05-05 06:19:32			0	33431	0	0	0	17267	15890	155029	27838	960009	38450	106263	0	0	8133	787618	0	0
2024-05-05 06:20:32			0	33458	0	0	0	17283	15900	155005	27374	959938	38451	106269	0	0	8134	786195	0	0
2024-05-05 06:21:32			0	33487	0	0	0	17277	15890	155033	27561	960009	38450	106267	0	0	8136	784757	0	0
2024-05-05 06:22:32			0	33512	0	0	0	17275	15900	154829	27251	959990	38440	106266	0	0	8138	783440	0	0
2024-05-05 06:23:32			0	33514	0	0	0	17277	15900	154809	27502	959999	38452	106267	0	0	8138	783338	0	0
2024-05-05 06:24:32			0	33528	0	0	0	17280	15880	154657	27215	959992	38450	106268	0	0	8139	782709	0	0
2024-05-05 06:25:32			0	33565	0	0	0	17275	15900	154578	27559	959990	38451	106266	0	0	8141	780743	0	0
2024-05-05 06:26:32			0	33595	0	0	0	17270	15890	154450	27407	959948	38450	106264	0	0	8143	779262	0	0
2024-05-05 06:27:32			0	33619	0	0	0	17275	15890	154274	27601	959974	38450	106266	0	0	8144	778046	0	0
2024-05-05 06:28:32			0	33658	0	0	0	17280	15890	154110	27454	959982	38450	106268	0	0	8146	776071	0	0
2024-05-05 06:29:32			0	33696	0	0	0	17277	15890	154022	27450	959956	38460	106267	0	0	8149	774152	0	0
2024-05-05 06:30:32			0	33712	0	0	0	17280	15900	153866	27270	960017	38440	106268	0	0	8150	773303	0	0
2024-05-05 06:31:32			0	33746	0	0	0	17275	15890	153774	27724	960035	38450	106266	0	0	8152	771632	0	0
2024-05-05 06:32:32			0	33749	0	0	0	17275	15880	153634	27495	959966	38439	106266	0	0	8152	771523	0	0
2024-05-05 06:33:32			0	33762	0	0	0	17267	15890	153626	27748	959948	38450	106263	0	0	8153	770827	0	0
2024-05-05 06:34:32			0	33793	0	0	0	17262	15890	153482	27528	960009	38428	106261	0	0	8155	769270	0	0
2024-05-05 06:35:32			0	33797	0	0	0	17267	15890	153482	27173	959921	38439	106263	0	0	8155	769069	0	0
2024-05-05 06:36:32			0	33834	0	0	0	17275	15890	153318	27396	960035	38428	106266	0	0	8157	767213	0	0
2024-05-05 06:37:32			0	33833	0	0	0	17270	15890	153202	27620	960009	38460	106264	0	0	8157	767263	0	0
2024-05-05 06:38:32			0	33849	0	0	0	17272	15890	153170	27711	959974	38450	106265	0	0	8158	766462	0	0
2024-05-05 06:39:32			0	33882	0	0	0	17272	15890	153058	27524	959974	38450	106265	0	0	8160	764811	0	0
2024-05-05 06:40:32			0	33908	0	0	0	17272	15890	152906	27722	959974	38460	106265	0	0	8161	763513	0	0
2024-05-05 06:41:32			0	33935	0	0	0	17264	15890	152846	27369	960000	38450	106262	0	0	8163	762166	0	0
2024-05-05 06:42:32			0	33954	0	0	0	17262	15890	152702	27507	959974	38428	106261	0	0	8164	761220	0	0
2024-05-05 06:43:32			0	33989	0	0	0	17259	15880	152610	27772	960019	38450	106260	0	0	8166	759520	0	0
2024-05-05 06:44:32			0	34011	0	0	0	17259	15890	152550	27476	959921	38450	106260	0	0	8167	758386	0	0
2024-05-05 06:45:32			0	34038	0	0	0	17262	15880	152478	27907	959958	38449	106261	0	0	8169	757088	0	0
2024-05-05 06:46:32			0	34033	0	0	0	17264	15890	152394	27635	959974	38450	106262	0	0	8169	757295	0	0
2024-05-05 06:47:32			0	34049	0	0	0	17267	15880	152298	27743	959992	38450	106263	0	0	8169	756542	0	0
2024-05-05 06:48:32			0	34058	0	0	0	17264	15880	152242	27514	959913	38450	106262	0	0	8170	756097	0	0
2024-05-05 06:49:32			0	34093	0	0	0	17267	15880	152206	27428	959984	38427	106263	0	0	8172	754365	0	0
2024-05-05 06:50:32			0	34099	0	0	0	17262	15880	152074	27620	959940	38450	106261	0	0	8172	754068	0	0
2024-05-05 06:51:32			0	34098	0	0	0	17257	15880	152134	27348	959966	38439	106259	0	0	8172	754118	0	0
2024-05-05 06:52:32			0	34107	0	0	0	17270	15890	152018	27433	959982	38460	106264	0	0	8173	753632	0	0
2024-05-05 06:53:32			0	34147	0	0	0	17277	15890	151870	27400	959982	38450	106267	0	0	8175	751659	0	0
2024-05-05 06:54:32			0	34166	0	0	0	17275	15880	151866	27632	959984	38459	106266	0	0	8176	750763	0	0
2024-05-05 06:55:32			0	34171	0	0	0	17275	15890	151814	27476	959974	38439	106266	0	0	8176	750476	0	0
2024-05-05 06:56:32			0	34172	0	0	0	17267	15890	151734	27521	959982	38460	106263	0	0	8176	750427	0	0
2024-05-05 06:57:32			0	34178	0	0	0	17264	15890	151766	27486	960000	38450	106262	0	0	8177	750132	0	0
2024-05-05 06:58:32			0	34186	0	0	0	17270	15890	151762	27459	959956	38450	106264	0	0	8177	749738	0	0
2024-05-05 06:59:32			0	34190	0	0	0	17267	15890	151698	27815	960009	38450	106263	0	0	8178	749541	0	0
2024-05-05 07:00:32			0	34175	0	0	0	17272	15890	151714	27516	959974	38460	106265	0	0	8177	750279	0	0
2024-05-05 07:01:32			0	34190	0	0	0	17277	15900	151694	27767	960017	38451	106267	0	0	8177	749501	0	0
2024-05-05 07:02:32			0	34190	0	0	0	17285	15900	151738	27724	960096	38451	106270	0	0	8177	749501	0	0
2024-05-05 07:03:32			0	34162	0	0	0	17285	15890	151750	27452	959974	38460	106270	0	0	8176	750919	0	0
2024-05-05 07:04:32			0	34168	0	0	0	17280	15890	151818	27429	960009	38460	106268	0	0	8176	750624	0	0
2024-05-05 07:05:32			0	34164	0	0	0	17288	15900	151818	27628	959999	38441	106271	0	0	8176	750780	0	0
2024-05-05 07:06:32			0	34166	0	0	0	17277	15900	151886	27845	960043	38461	106267	0	0	8176	750682	0	0
2024-05-05 07:07:32			0	34144	0	0	0	17288	15900	151938	27751	960043	38451	106271	0	0	8175	751766	0	0
2024-05-05 07:08:32			0	34139	0	0	0	17283	15900	151990	27871	960043	38451	106269	0	0	8174	752012	0	0
2024-05-05 07:09:32			0	34146	0	0	0	17283	15900	151794	27428	960051	38473	106269	0	0	8175	751667	0	0
2024-05-05 07:10:32			0	34156	0	0	0	17285	15900	151794	27424	960051	38452	106270	0	0	8175	751175	0	0
2024-05-05 07:11:32			0	34143	0	0	0	17293	15900	151950	27595	960078	38441	106273	0	0	8174	751815	0	0
2024-05-05 07:12:32			0	34133	0	0	0	17283	15900	151974	27679	960096	38461	106269	0	0	8174	752308	0	0
2024-05-05 07:13:32			0	34137	0	0	0	17288	15900	151974	27350	960070	38440	106271	0	0	8174	752111	0	0
2024-05-05 07:14:32			0	34155	0	0	0	17285	15890	151890	27670	960061	38450	106270	0	0	8175	751264	0	0
2024-05-05 07:15:32			0	34125	0	0	0	17280	15900	151898	27814	960051	38441	106268	0	0	8174	752703	0	0
2024-05-05 07:16:32			0	34149	0	0	0	17280	15900	151786	27692	960017	38451	106268	0	0	8175	751520	0	0
2024-05-05 07:17:32			0	34158	0	0	0	17277	15900	151770	27677	960017	38451	106267	0	0	8176	751076	0	0
2024-05-05 07:18:32			0	34176	0	0	0	17280	15910	151694	27549	960033	38462	106268	0	0	8177	750149	0	0
2024-05-05 07:19:32			0	34181	0	0	0	17272	15910	151674	27500	960068	38462	106265	0	0	8177	749903	0	0
2024-05-05 07:20:32			0	34210	0	0	0	17275	15900	151622	27386	960078	38452	106266	0	0	8179	748518	0	0
2024-05-05 07:21:32			0	34180	0	0	0	17272	15900	151686	27486	960025	38462	106265	0	0	8177	749993	0	0
2024-05-05 07:22:32			0	34174	0	0	0	17285	15900	151706	27739	960070	38451	106270	0	0	8176	750288	0	0
2024-05-05 07:23:32			0	34170	0	0	0	17280	15900	151746	27504	960051	38452	106268	0	0	8176	750485	0	0
2024-05-05 07:24:32			0	34159	0	0	0	17283	15900	151794	27561	960051	38441	106269	0	0	8176	751027	0	0
2024-05-05 07:25:32			0	34151	0	0	0	17272	15910	151754	27923	959980	38452	106265	0	0	8175	751380	0	0
2024-05-05 07:26:32			0	34159	0	0	0	17280	15890	151762	27547	960035	38450	106268	0	0	8176	751067	0	0
2024-05-05 07:27:32			0	34179	0	0	0	17272	15890	151690	27696	960035	38460	106265	0	0	8177	750082	0	0
2024-05-05 07:28:32			0	34188	0	0	0	17275	15900	151642	27890	960017	38461	106266	0	0	8177	749599	0	0
2024-05-05 07:29:32			0	34180	0	0	0	17270	15890	151722	27800	960035	38471	106264	0	0	8177	750033	0	0
2024-05-05 07:30:32			0	34173	0	0	0	17264	15890	151694	27933	960009	38450	106262	0	0	8177	750378	0	0
2024-05-05 07:31:32			0	34162	0	0	0	17267	15900	151758	27639	960043	38451	106263	0	0	8176	750879	0	0
2024-05-05 07:32:32			0	34164	0	0	0	17257	15900	151722	27784	959964	38451	106259	0	0	8176	750780	0	0
2024-05-05 07:33:32			0	34152	0	0	0	17262	15890	151822	27414	959982	38460	106261	0	0	8175	751412	0	0
2024-05-05 07:34:32			0	34155	0	0	0	17249	15890	151782	27377	959956	38450	106256	0	0	8176	751264	0	0
2024-05-05 07:35:32			0	34166	0	0	0	17257	15890	151682	27845	959956	38460	106259	0	0	8176	750722	0	0
2024-05-05 07:36:32			0	34180	0	0	0	17257	15900	151814	27640	959990	38451	106259	0	0	8177	749993	0	0
2024-05-05 07:37:32			0	34174	0	0	0	17262	15890	151790	27819	959974	38450	106261	0	0	8177	750329	0	0
2024-05-05 07:38:32			0	34165	0	0	0	17267	15900	151678	27724	959990	38461	106263	0	0	8176	750731	0	0
2024-05-05 07:39:32			0	34182	0	0	0	17267	15890	151702	27400	960027	38460	106263	0	0	8177	749935	0	0
2024-05-05 07:40:32			0	34169	0	0	0	17283	15890	151586	27748	960009	38471	106269	0	0	8176	750575	0	0
2024-05-05 07:41:32			0	34170	0	0	0	17285	15900	151638	27590	960070	38451	106270	0	0	8176	750485	0	0
2024-05-05 07:42:32			0	34171	0	0	0	17283	15900	151674	27450	960025	38452	106269	0	0	8176	750436	0	0
2024-05-05 07:43:32			0	34191	0	0	0	17283	15900	151602	27878	959990	38451	106269	0	0	8177	749452	0	0
2024-05-05 07:44:32			0	34203	0	0	0	17285	15900	151526	27569	960070	38451	106270	0	0	8178	748862	0	0
2024-05-05 07:45:32			0	34220	0	0	0	17290	15900	151650	27824	960051	38462	106272	0	0	8179	748026	0	0
2024-05-05 07:46:32			0	34202	0	0	0	17285	15900	151558	27890	960122	38451	106270	0	0	8178	748911	0	0
2024-05-05 07:47:32			0	34202	0	0	0	17296	15900	151638	27718	959999	38452	106274	0	0	8178	748911	0	0
2024-05-05 07:48:32			0	34206	0	0	0	17288	15890	151594	27459	960061	38439	106271	0	0	8178	748754	0	0
2024-05-05 07:49:32			0	34196	0	0	0	17293	15900	151550	27563	960078	38462	106273	0	0	8177	749206	0	0
2024-05-05 07:50:32			0	34230	0	0	0	17296	15900	151590	27713	960104	38462	106274	0	0	8179	747536	0	0
2024-05-05 07:51:32			0	34239	0	0	0	17290	15900	151498	28003	960025	38429	106272	0	0	8180	747094	0	0
2024-05-05 07:52:32			0	34252	0	0	0	17298	15900	151326	27573	960104	38441	106275	0	0	8181	746456	0	0
2024-05-05 07:53:32			0	34269	0	0	0	17296	15910	151234	27946	960033	38462	106274	0	0	8182	745583	0	0
2024-05-05 07:54:32			0	34298	0	0	0	17298	15910	151174	27815	960033	38473	106275	0	0	8183	744164	0	0
2024-05-05 07:55:32			0	34294	0	0	0	17298	15900	151058	27873	960078	38441	106275	0	0	8183	744399	0	0
2024-05-05 07:56:32			0	34324	0	0	0	17296	15910	150998	27755	960068	38462	106274	0	0	8185	742893	0	0
2024-05-05 07:57:32			0	34342	0	0	0	17290	15910	150906	27777	960094	38462	106272	0	0	8186	742014	0	0
2024-05-05 07:58:32			0	34356	0	0	0	17301	15900	150883	27744	960051	38452	106276	0	0	8187	741371	0	0
2024-05-05 07:59:32			0	34361	0	0	0	17296	15900	150807	27345	960104	38462	106274	0	0	8187	741127	0	0
2024-05-05 08:00:32			0	34363	0	0	0	17298	15920	150771	27445	960076	38463	106275	0	0	8187	740950	0	0
2024-05-05 08:01:32			0	34367	0	0	0	17293	15910	150743	27488	960094	38462	106273	0	0	8187	740795	0	0
2024-05-05 08:02:32			0	34364	0	0	0	17290	15910	150823	27376	960112	38452	106272	0	0	8187	740941	0	0
2024-05-05 08:03:32			0	34358	0	0	0	17290	15910	150907	27585	960094	38462	106272	0	0	8187	741233	0	0
2024-05-05 08:04:32			0	34345	0	0	0	17290	15910	150827	27543	960147	38452	106272	0	0	8186	741867	0	0
2024-05-05 08:05:32			0	34342	0	0	0	17293	15900	150986	27659	960104	38452	106273	0	0	8186	742054	0	0
2024-05-05 08:06:32			0	34343	0	0	0	17293	15900	150827	27396	960025	38452	106273	0	0	8186	742005	0	0
2024-05-05 08:07:32			0	34311	0	0	0	17288	15910	151086	27471	960041	38462	106271	0	0	8184	743528	0	0
2024-05-05 08:08:32			0	34298	0	0	0	17293	15900	151102	27642	960130	38452	106273	0	0	8183	744204	0	0
2024-05-05 08:09:32			0	34271	0	0	0	17285	15900	151122	27658	960104	38452	106270	0	0	8182	745525	0	0
2024-05-05 08:10:32			0	34250	0	0	0	17296	15900	151226	27505	960051	38452	106274	0	0	8181	746554	0	0
2024-05-05 08:11:32			0	34255	0	0	0	17296	15910	151290	27402	960094	38462	106274	0	0	8181	746269	0	0
2024-05-05 08:12:32			0	34243	0	0	0	17290	15910	151374	27409	960086	38462	106272	0	0	8180	746857	0	0
2024-05-05 08:13:32			0	34271	0	0	0	17293	15900	151338	27810	960078	38462	106273	0	0	8182	745525	0	0
2024-05-05 08:14:32			0	34233	0	0	0	17301	15910	151370	27443	960112	38452	106276	0	0	8180	747348	0	0
2024-05-05 08:15:32			0	34211	0	0	0	17293	15910	151514	27357	960094	38452	106273	0	0	8178	748428	0	0
2024-05-05 08:16:32			0	34166	0	0	0	17296	15910	151730	27569	960033	38473	106274	0	0	8176	750642	0	0
2024-05-05 08:17:32			0	34120	0	0	0	17296	15910	151882	27824	960094	38462	106274	0	0	8173	752909	0	0
2024-05-05 08:18:32			0	34094	0	0	0	17301	15910	151998	27991	960060	38484	106276	0	0	8172	754193	0	0
2024-05-05 08:19:32			0	34060	0	0	0	17301	15910	152094	28003	960147	38462	106276	0	0	8170	755875	0	0
2024-05-05 08:20:32			0	34027	0	0	0	17298	15910	152118	27916	960086	38462	106275	0	0	8168	757511	0	0
2024-05-05 08:21:32			0	34016	0	0	0	17306	15920	152350	27376	960137	38464	106278	0	0	8167	758015	0	0
2024-05-05 08:22:32			0	33968	0	0	0	17309	15930	152426	27781	960171	38464	106279	0	0	8164	760359	0	0
2024-05-05 08:23:32			0	33963	0	0	0	17319	15920	152494	27639	960110	38453	106283	0	0	8164	760649	0	0
2024-05-05 08:24:32			0	33979	0	0	0	17306	15920	152402	27840	960163	38453	106278	0	0	8165	759853	0	0
2024-05-05 08:25:32			0	33993	0	0	0	17311	15930	152406	27476	960224	38453	106280	0	0	8166	759116	0	0
2024-05-05 08:26:32			0	34008	0	0	0	17319	15930	152338	27448	960145	38475	106283	0	0	8166	758372	0	0
2024-05-05 08:27:32			0	34051	0	0	0	17311	15930	152114	27573	960153	38464	106280	0	0	8169	756239	0	0
2024-05-05 08:28:32			0	34087	0	0	0	17319	15930	151994	27711	960119	38464	106283	0	0	8171	754458	0	0
2024-05-05 08:29:32			0	34127	0	0	0	17316	15930	151818	27803	960153	38453	106282	0	0	8173	752483	0	0
2024-05-05 08:30:32			0	34170	0	0	0	17316	15920	151530	27758	960137	38464	106282	0	0	8176	750404	0	0
2024-05-05 08:31:32			0	34173	0	0	0	17316	15930	151494	27717	960119	38453	106282	0	0	8176	750216	0	0
2024-05-05 08:32:32			0	34154	0	0	0	17324	15920	151574	27718	960242	38475	106285	0	0	8175	751192	0	0
2024-05-05 08:33:32			0	34130	0	0	0	17324	15940	151738	27684	960214	38475	106285	0	0	8173	752294	0	0
2024-05-05 08:34:32			0	34118	0	0	0	17329	15930	151830	28022	960206	38453	106287	0	0	8173	752927	0	0
2024-05-05 08:35:32			0	34081	0	0	0	17324	15940	151850	27868	960222	38455	106285	0	0	8171	754714	0	0
2024-05-05 08:36:32			0	34077	0	0	0	17327	15940	152050	27457	960214	38464	106286	0	0	8170	754912	0	0
2024-05-05 08:37:32			0	34065	0	0	0	17340	15940	152026	27890	960222	38455	106291	0	0	8169	755506	0	0
2024-05-05 08:38:32			0	34043	0	0	0	17337	15940	152066	27419	960248	38455	106290	0	0	8168	756595	0	0
2024-05-05 08:39:32			0	34051	0	0	0	17335	15950	152026	27798	960257	38465	106289	0	0	8169	756158	0	0
2024-05-05 08:40:32			0	34071	0	0	0	17329	15930	151906	27481	960179	38475	106287	0	0	8170	755249	0	0
2024-05-05 08:41:32			0	34089	0	0	0	17329	15940	151830	27343	960188	38454	106287	0	0	8171	754319	0	0
2024-05-05 08:42:32			0	34106	0	0	0	17329	15950	151838	27597	960257	38455	106287	0	0	8172	753438	0	0
2024-05-05 08:43:32			0	34106	0	0	0	17327	15940	151822	27748	960214	38464	106286	0	0	8172	753479	0	0
2024-05-05 08:44:32			0	34090	0	0	0	17324	15950	151870	27495	960230	38465	106285	0	0	8171	754228	0	0
2024-05-05 08:45:32			0	34075	0	0	0	17327	15950	151882	27372	960230	38465	106286	0	0	8170	754970	0	0
2024-05-05 08:46:32			0	34054	0	0	0	17324	15940	152002	27821	960188	38475	106285	0	0	8169	756050	0	0
2024-05-05 08:47:32			0	34028	0	0	0	17322	15960	152230	27599	960220	38456	106284	0	0	8168	757257	0	0
2024-05-05 08:48:32			0	34011	0	0	0	17335	15940	152274	27708	960222	38455	106289	0	0	8166	758182	0	0
2024-05-05 08:49:32			0	33981	0	0	0	17332	15950	152170	27661	960257	38465	106288	0	0	8165	759631	0	0
2024-05-05 08:50:32			0	33989	0	0	0	17348	15940	152354	27637	960275	38476	106294	0	0	8165	759274	0	0
2024-05-05 08:51:32			0	33984	0	0	0	17350	15960	152382	27987	960273	38466	106295	0	0	8165	759441	0	0
2024-05-05 08:52:32			0	33988	0	0	0	17348	15950	152266	27562	960265	38466	106294	0	0	8165	759283	0	0
2024-05-05 08:53:32			0	34010	0	0	0	17340	15950	152158	27677	960309	38476	106291	0	0	8166	758191	0	0
2024-05-05 08:54:32			0	34040	0	0	0	17340	15950	152050	27999	960344	38477	106291	0	0	8168	756703	0	0
2024-05-05 08:55:32			0	34066	0	0	0	17345	15960	151758	27507	960247	38466	106293	0	0	8169	755374	0	0
2024-05-05 08:56:32			0	34137	0	0	0	17345	15950	151614	27826	960238	38466	106293	0	0	8173	751908	0	0
2024-05-05 08:57:32			0	34175	0	0	0	17342	15950	151426	27920	960265	38456	106292	0	0	8176	750037	0	0
2024-05-05 08:58:32			0	34191	0	0	0	17348	15960	151442	27568	960308	38478	106294	0	0	8177	749209	0	0
2024-05-05 08:59:32			0	34159	0	0	0	17342	15960	151598	27769	960273	38466	106292	0	0	8175	750784	0	0
2024-05-05 09:00:32			0	34120	0	0	0	17350	15960	151714	27788	960247	38488	106295	0	0	8172	752706	0	0
2024-05-05 09:01:32			0	34098	0	0	0	17355	15960	151790	27685	960299	38477	106297	0	0	8171	753793	0	0
2024-05-05 09:02:32			0	34073	0	0	0	17363	15960	151738	27722	960326	38466	106300	0	0	8169	755028	0	0
2024-05-05 09:03:32			0	34030	0	0	0	17371	15950	151966	27421	960257	38476	106303	0	0	8167	757199	0	0
2024-05-05 09:04:32			0	33996	0	0	0	17358	15970	152182	27490	960368	38467	106298	0	0	8165	758804	0	0
2024-05-05 09:05:32			0	33967	0	0	0	17361	15970	152350	27419	960350	38468	106299	0	0	8163	760245	0	0
2024-05-05 09:06:32			0	33932	0	0	0	17355	15970	152474	27781	960368	38457	106297	0	0	8161	761987	0	0
2024-05-05 09:07:32			0	33913	0	0	0	17358	15960	152526	27438	960326	38466	106298	0	0	8160	762975	0	0
2024-05-05 09:08:32			0	33897	0	0	0	17353	15960	152646	27602	960308	38467	106296	0	0	8159	763774	0	0
2024-05-05 09:09:32			0	33883	0	0	0	17345	15970	152618	27466	960342	38467	106293	0	0	8159	764432	0	0
2024-05-05 09:10:32			0	33895	0	0	0	17350	15970	152670	27654	960316	38467	106295	0	0	8159	763832	0	0
2024-05-05 09:11:32			0	33895	0	0	0	17350	15970	152598	27317	960324	38479	106295	0	0	8159	763832	0	0
2024-05-05 09:12:32			0	33936	0	0	0	17345	15950	152562	27564	960238	38466	106293	0	0	8162	761870	0	0
2024-05-05 09:13:32			0	33935	0	0	0	17340	15970	152430	27175	960263	38467	106291	0	0	8162	761838	0	0
2024-05-05 09:14:32			0	34003	0	0	0	17350	15960	152286	27327	960281	38467	106295	0	0	8166	758497	0	0
2024-05-05 09:15:32			0	34001	0	0	0	17348	15950	152170	27547	960318	38466	106294	0	0	8166	758637	0	0
2024-05-05 09:16:32			0	34022	0	0	0	17350	15950	152046	27400	960265	38466	106295	0	0	8167	757595	0	0
2024-05-05 09:17:32			0	34051	0	0	0	17353	15970	152014	27241	960316	38467	106296	0	0	8168	756076	0	0
2024-05-05 09:18:32			0	34080	0	0	0	17345	15970	151922	27692	960289	38457	106293	0	0	8170	754641	0	0
2024-05-05 09:19:32			0	34067	0	0	0	17345	15960	151982	27486	960299	38477	106293	0	0	8169	755325	0	0
2024-05-05 09:20:32			0	34048	0	0	0	17345	15960	151974	27433	960308	38478	106293	0	0	8168	756266	0	0
2024-05-05 09:21:32			0	34037	0	0	0	17342	15960	151994	27459	960299	38466	106292	0	0	8168	756811	0	0
2024-05-05 09:22:32			0	34001	0	0	0	17350	15970	152158	27805	960289	38467	106295	0	0	8166	758556	0	0
2024-05-05 09:23:32			0	33995	0	0	0	17350	15960	152242	27538	960360	38478	106295	0	0	8165	758894	0	0
2024-05-05 09:24:32			0	33961	0	0	0	17355	15970	152382	27419	960350	38468	106297	0	0	8163	760543	0	0
2024-05-05 09:25:32			0	33936	0	0	0	17358	15970	152486	27788	960368	38467	106298	0	0	8162	761788	0	0
2024-05-05 09:26:32			0	33922	0	0	0	17355	15980	152614	27535	960385	38479	106297	0	0	8161	762444	0	0
2024-05-05 09:27:32			0	33875	0	0	0	17355	15970	152598	27599	960368	38467	106297	0	0	8158	764831	0	0
2024-05-05 09:28:32			0	33870	0	0	0	17350	15980	152682	27554	960385	38468	106295	0	0	8158	765040	0	0
2024-05-05 09:29:32			0	33840	0	0	0	17358	15960	152906	27405	960334	38467	106298	0	0	8156	766623	0	0
2024-05-05 09:30:32			0	33842	0	0	0	17355	15970	152946	27457	960342	38467	106297	0	0	8156	766482	0	0
2024-05-05 09:31:32			0	33793	0	0	0	17345	15970	153050	27329	960342	38478	106293	0	0	8154	768938	0	0
2024-05-05 09:32:32			0	33790	0	0	0	17342	15960	153250	27774	960308	38478	106292	0	0	8153	769130	0	0
2024-05-05 09:33:32			0	33763	0	0	0	17345	15960	153350	27575	960281	38467	106293	0	0	8152	770486	0	0
2024-05-05 09:34:32			0	33756	0	0	0	17350	15960	153366	27405	960360	38478	106295	0	0	8151	770838	0	0
2024-05-05 09:35:32			0	33719	0	0	0	17342	15970	153482	27679	960342	38489	106292	0	0	8149	772659	0	0
2024-05-05 09:36:32			0	33726	0	0	0	17345	15980	153378	27831	960332	38468	106293	0	0	8150	772264	0	0
2024-05-05 09:37:32			0	33726	0	0	0	17355	15970	153406	27398	960342	38478	106297	0	0	8149	772306	0	0
2024-05-05 09:38:32			0	33753	0	0	0	17345	15970	153346	27776	960368	38467	106293	0	0	8151	770947	0	0
2024-05-05 09:39:32			0	33784	0	0	0	17350	15970	153166	27741	960377	38458	106295	0	0	8153	769390	0	0
2024-05-05 09:40:32			0	33853	0	0	0	17361	15970	152786	27419	960368	38467	106299	0	0	8157	765931	0	0
2024-05-05 09:41:32			0	33947	0	0	0	17355	15970	152434	27412	960324	38468	106297	0	0	8162	761240	0	0
2024-05-05 09:42:32			0	34022	0	0	0	17353	15970	152050	27485	960289	38489	106296	0	0	8167	757513	0	0
2024-05-05 09:43:32			0	34115	0	0	0	17350	15980	151722	27512	960332	38468	106295	0	0	8172	752872	0	0
2024-05-05 09:44:32			0	34179	0	0	0	17353	15980	151474	27665	960332	38458	106296	0	0	8176	749718	0	0
2024-05-05 09:45:32			0	34224	0	0	0	17342	15970	151210	27481	960342	38478	106292	0	0	8179	747548	0	0
2024-05-05 09:46:32			0	34208	0	0	0	17340	15970	151226	27597	960316	38467	106291	0	0	8178	748333	0	0
2024-05-05 09:47:32			0	34203	0	0	0	17342	15970	151314	27542	960342	38478	106292	0	0	8177	748579	0	0
2024-05-05 09:48:32			0	34158	0	0	0	17342	15970	151526	27334	960316	38478	106292	0	0	8175	750792	0	0
2024-05-05 09:49:32			0	34107	0	0	0	17335	15970	151606	27471	960342	38467	106289	0	0	8172	753307	0	0
2024-05-05 09:50:32			0	34087	0	0	0	17337	15980	151862	27246	960367	38480	106290	0	0	8171	754255	0	0
2024-05-05 09:51:32			0	34031	0	0	0	17332	15970	152038	27229	960298	38479	106288	0	0	8168	757067	0	0
2024-05-05 09:52:32			0	33988	0	0	0	17314	15970	152262	27885	960263	38478	106281	0	0	8165	759201	0	0
2024-05-05 09:53:32			0	33983	0	0	0	17322	15970	152286	27696	960298	38479	106284	0	0	8165	759449	0	0
2024-05-05 09:54:32			0	33970	0	0	0	17314	15960	152294	27476	960308	38478	106281	0	0	8164	760137	0	0
2024-05-05 09:55:32			0	33948	0	0	0	17324	15960	152398	27469	960281	38478	106285	0	0	8163	761231	0	0
2024-05-05 09:56:32			0	33948	0	0	0	17314	15960	152474	27422	960255	38467	106281	0	0	8163	761231	0	0
2024-05-05 09:57:32			0	33931	0	0	0	17316	15960	152458	27762	960228	38467	106282	0	0	8162	762078	0	0
2024-05-05 09:58:32			0	33954	0	0	0	17316	15950	152426	27691	960212	38477	106282	0	0	8163	760974	0	0
2024-05-05 09:59:32			0	33962	0	0	0	17322	15950	152402	27763	960238	38456	106284	0	0	8164	760576	0	0
2024-05-05 10:00:32			0	34003	0	0	0	17311	15960	152178	27415	960299	38466	106280	0	0	8166	758497	0	0
2024-05-05 10:01:32			0	34042	0	0	0	17316	15960	152002	27587	960247	38466	106282	0	0	8168	756563	0	0
2024-05-05 10:02:32			0	34066	0	0	0	17314	15950	151926	27711	960212	38466	106281	0	0	8170	755415	0	0
2024-05-05 10:03:32			0	34076	0	0	0	17322	15960	151846	27817	960202	38467	106284	0	0	8170	754880	0	0
2024-05-05 10:04:32			0	34075	0	0	0	17322	15960	151890	27348	960352	38466	106284	0	0	8170	754929	0	0
2024-05-05 10:05:32			0	34068	0	0	0	17316	15960	151938	27460	960247	38466	106282	0	0	8170	755276	0	0
2024-05-05 10:06:32			0	34056	0	0	0	17311	15960	151966	27381	960273	38477	106280	0	0	8169	755870	0	0
2024-05-05 10:07:32			0	34034	0	0	0	17306	15960	152026	27791	960273	38456	106278	0	0	8168	756959	0	0
2024-05-05 10:08:32			0	34009	0	0	0	17311	15960	152086	27718	960247	38477	106280	0	0	8167	758199	0	0
2024-05-05 10:09:32			0	34027	0	0	0	17319	15950	152134	27595	960265	38477	106283	0	0	8168	757347	0	0
2024-05-05 10:10:32			0	34004	0	0	0	17322	15950	152110	27561	960257	38455	106284	0	0	8166	758488	0	0
2024-05-05 10:11:32			0	34013	0	0	0	17342	15960	152154	27455	960273	38477	106292	0	0	8166	758001	0	0
2024-05-05 10:12:32			0	34020	0	0	0	17337	15940	152082	27890	960275	38455	106290	0	0	8167	757735	0	0
2024-05-05 10:13:32			0	34029	0	0	0	17337	15940	151938	27727	960275	38487	106290	0	0	8167	757289	0	0
2024-05-05 10:14:32			0	34050	0	0	0	17340	15960	151838	27892	960326	38466	106291	0	0	8169	756167	0	0
2024-05-05 10:15:32			0	34064	0	0	0	17329	15960	151854	27507	960299	38456	106287	0	0	8170	755474	0	0
2024-05-05 10:16:32			0	34090	0	0	0	17337	15950	151850	27505	960265	38466	106290	0	0	8171	754228	0	0
2024-05-05 10:17:32			0	34108	0	0	0	17340	15960	151750	27814	960308	38478	106291	0	0	8172	753298	0	0
2024-05-05 10:18:32			0	34110	0	0	0	17342	15950	151686	27590	960336	38476	106292	0	0	8172	753240	0	0
2024-05-05 10:19:32			0	34077	0	0	0	17332	15960	151710	27554	960247	38477	106288	0	0	8170	754830	0	0
2024-05-05 10:20:32			0	34084	0	0	0	17340	15960	151750	27692	960334	38478	106291	0	0	8171	754484	0	0
2024-05-05 10:21:32			0	34095	0	0	0	17353	15960	151794	27498	960360	38467	106296	0	0	8171	753941	0	0
2024-05-05 10:22:32			0	34116	0	0	0	17342	15960	151582	27436	960352	38466	106292	0	0	8172	752904	0	0
2024-05-05 10:23:32			0	34146	0	0	0	17340	15970	151594	27535	960316	38467	106291	0	0	8174	751384	0	0
2024-05-05 10:24:32			0	34154	0	0	0	17348	15970	151518	27672	960368	38478	106294	0	0	8174	750989	0	0
2024-05-05 10:25:32			0	34155	0	0	0	17348	15960	151454	27873	960334	38467	106294	0	0	8174	750981	0	0
2024-05-05 10:26:32			0	34170	0	0	0	17350	15970	151434	27708	960342	38457	106295	0	0	8175	750202	0	0
2024-05-05 10:27:32			0	34166	0	0	0	17355	15970	151510	27343	960350	38490	106297	0	0	8175	750399	0	0
2024-05-05 10:28:32			0	34161	0	0	0	17363	15960	151474	27843	960360	38467	106300	0	0	8175	750685	0	0
2024-05-05 10:29:32			0	34175	0	0	0	17376	15970	151446	27902	960395	38478	106305	0	0	8175	749956	0	0
2024-05-05 10:30:32			0	34187	0	0	0	17389	15980	151374	27864	960446	38491	106310	0	0	8176	749325	0	0
2024-05-05 10:31:32			0	34241	0	0	0	17386	15980	151170	27932	960472	38480	106309	0	0	8179	746673	0	0
2024-05-05 10:32:32			0	34276	0	0	0	17368	15990	150986	27524	960401	38481	106302	0	0	8181	744919	0	0
2024-05-05 10:33:32			0	34305	0	0	0	17381	15990	150806	27466	960462	38458	106307	0	0	8183	743500	0	0
2024-05-05 10:34:32			0	34339	0	0	0	17392	15990	150510	27812	960462	38492	106311	0	0	8184	741840	0	0
2024-05-05 10:35:32			0	34370	0	0	0	17384	16000	150519	27878	960470	38481	106308	0	0	8186	740289	0	0
2024-05-05 10:36:32			0	34389	0	0	0	17374	15990	150359	27769	960462	38492	106304	0	0	8188	739404	0	0
2024-05-05 10:37:32			0	34387	0	0	0	17355	15990	150391	27708	960462	38458	106297	0	0	8188	739501	0	0
2024-05-05 10:38:32			0	34378	0	0	0	17366	15990	150375	27483	960462	38492	106301	0	0	8187	739940	0	0
2024-05-05 10:39:32			0	34354	0	0	0	17376	16000	150519	27659	960523	38469	106305	0	0	8186	741069	0	0
2024-05-05 10:40:32			0	34333	0	0	0	17384	15990	150694	27666	960462	38481	106308	0	0	8184	742133	0	0
2024-05-05 10:41:32			0	34312	0	0	0	17386	16000	150814	27720	960470	38481	106309	0	0	8183	743118	0	0
2024-05-05 10:42:32			0	34289	0	0	0	17389	15990	150822	27531	960454	38469	106310	0	0	8182	744283	0	0
2024-05-05 10:43:32			0	34267	0	0	0	17397	15990	150946	27805	960488	38492	106313	0	0	8180	745359	0	0
2024-05-05 10:44:32			0	34258	0	0	0	17412	16000	150898	27431	960531	38459	106319	0	0	8180	745760	0	0
2024-05-05 10:45:32			0	34254	0	0	0	17433	16000	150898	27576	960558	38470	106327	0	0	8179	745956	0	0
2024-05-05 10:46:32			0	34259	0	0	0	17451	16010	150902	27575	960627	38493	106334	0	0	8179	745671	0	0
2024-05-05 10:47:32			0	34245	0	0	0	17462	16030	151074	27457	960686	38484	106338	0	0	8178	746276	0	0
2024-05-05 10:48:32			0	34227	0	0	0	17480	16030	150926	27611	960738	38473	106345	0	0	8177	747159	0	0
2024-05-05 10:49:32			0	34263	0	0	0	17477	16040	150986	27550	960694	38485	106344	0	0	8179	745354	0	0
2024-05-05 10:50:32			0	34303	0	0	0	17477	16040	150798	27760	960702	38485	106344	0	0	8181	743398	0	0
2024-05-05 10:51:32			0	34386	0	0	0	17462	16050	150427	27355	960710	38486	106338	0	0	8186	739311	0	0
2024-05-05 10:52:32			0	34429	0	0	0	17462	16040	150111	27687	960728	38485	106338	0	0	8189	737261	0	0
2024-05-05 10:53:32			0	34469	0	0	0	17449	16050	149971	27746	960737	38486	106333	0	0	8191	735281	0	0
2024-05-05 10:54:32			0	34468	0	0	0	17438	16060	149931	27315	960727	38508	106329	0	0	8191	735290	0	0
2024-05-05 10:55:32			0	34483	0	0	0	17438	16060	149879	27913	960727	38498	106329	0	0	8192	734563	0	0
2024-05-05 10:56:32			0	34454	0	0	0	17431	16050	150067	27770	960718	38475	106326	0	0	8191	736008	0	0
2024-05-05 10:57:32			0	34407	0	0	0	17415	16050	150343	27710	960718	38486	106320	0	0	8188	738289	0	0
2024-05-05 10:58:32			0	34401	0	0	0	17423	16050	150383	27684	960710	38475	106323	0	0	8188	738581	0	0
2024-05-05 10:59:32			0	34383	0	0	0	17420	16050	150411	27448	960684	38486	106322	0	0	8187	739457	0	0
2024-05-05 11:00:32			0	34371	0	0	0	17436	16060	150307	27535	960753	38475	106328	0	0	8186	740001	0	0
2024-05-05 11:01:32			0	34362	0	0	0	17423	16060	150383	27454	960753	38498	106323	0	0	8186	740439	0	0
2024-05-05 11:02:32			0	34358	0	0	0	17420	16050	150507	27422	960718	38497	106322	0	0	8185	740674	0	0
2024-05-05 11:03:32			0	34329	0	0	0	17418	16050	150486	27646	960771	38486	106321	0	0	8184	742088	0	0
2024-05-05 11:04:32			0	34316	0	0	0	17428	16050	150550	27447	960718	38475	106325	0	0	8183	742722	0	0
2024-05-05 11:05:32			0	34315	0	0	0	17436	16050	150706	27282	960692	38497	106328	0	0	8183	742771	0	0
2024-05-05 11:06:32			0	34308	0	0	0	17441	16050	150722	27637	960798	38497	106330	0	0	8182	743113	0	0
2024-05-05 11:07:32			0	34271	0	0	0	17451	16060	150842	27692	960753	38487	106334	0	0	8180	744882	0	0
2024-05-05 11:08:32			0	34268	0	0	0	17459	16060	150870	27763	960735	38498	106337	0	0	8180	745029	0	0
2024-05-05 11:09:32			0	34265	0	0	0	17441	16060	150834	27595	960761	38498	106330	0	0	8180	745176	0	0
2024-05-05 11:10:32			0	34284	0	0	0	17449	16060	150778	27613	960735	38498	106333	0	0	8181	744246	0	0
2024-05-05 11:11:32			0	34293	0	0	0	17454	16070	150646	27376	960822	38487	106335	0	0	8181	743766	0	0
2024-05-05 11:12:32			0	34262	0	0	0	17444	16060	150738	27722	960788	38487	106331	0	0	8179	745323	0	0
2024-05-05 11:13:32			0	34219	0	0	0	17467	16070	150950	27874	960769	38498	106340	0	0	8177	747390	0	0
2024-05-05 11:14:32			0	34208	0	0	0	17467	16070	151178	27656	960822	38476	106340	0	0	8176	747930	0	0
2024-05-05 11:15:32			0	34167	0	0	0	17490	16080	151218	27812	960838	38499	106349	0	0	8173	749904	0	0
2024-05-05 11:16:32			0	34159	0	0	0	17493	16080	151386	27743	960847	38489	106350	0	0	8173	750298	0	0
2024-05-05 11:17:32			0	34128	0	0	0	17490	16090	151494	27492	960802	38500	106349	0	0	8171	751784	0	0
2024-05-05 11:18:32			0	34110	0	0	0	17493	16090	151486	27876	960881	38510	106350	0	0	8170	752672	0	0
2024-05-05 11:19:32			0	34122	0	0	0	17509	16090	151606	27639	960916	38511	106356	0	0	8170	752080	0	0
2024-05-05 11:20:32			0	34117	0	0	0	17522	16090	151598	27684	960968	38511	106361	0	0	8170	752326	0	0
2024-05-05 11:21:32			0	34103	0	0	0	17527	16100	151626	27644	960985	38512	106363	0	0	8169	752976	0	0
2024-05-05 11:22:32			0	34121	0	0	0	17532	16100	151622	27635	960985	38491	106365	0	0	8170	752089	0	0
2024-05-05 11:23:32			0	34128	0	0	0	17540	16100	151586	27467	961064	38501	106368	0	0	8170	751744	0	0
2024-05-05 11:24:32			0	34120	0	0	0	17555	16110	151402	27606	961019	38501	106374	0	0	8170	752097	0	0
2024-05-05 11:25:32			0	34134	0	0	0	17555	16120	151478	27900	961115	38492	106374	0	0	8171	751367	0	0
2024-05-05 11:26:32			0	34117	0	0	0	17568	16130	151454	27895	961131	38503	106379	0	0	8169	752164	0	0
2024-05-05 11:27:32			0	34126	0	0	0	17581	16130	151602	27509	961166	38503	106384	0	0	8170	751720	0	0
2024-05-05 11:28:32			0	34094	0	0	0	17592	16140	151546	27661	961209	38494	106388	0	0	8168	753258	0	0
2024-05-05 11:29:32			0	34098	0	0	0	17605	16140	151650	27620	961235	38515	106393	0	0	8168	753061	0	0
2024-05-05 11:30:32			0	34102	0	0	0	17623	16160	151554	27497	961312	38516	106400	0	0	8168	752782	0	0
2024-05-05 11:31:32			0	34099	0	0	0	17641	16170	151594	27871	961329	38507	106407	0	0	8167	752889	0	0
2024-05-05 11:32:32			0	34110	0	0	0	17646	16180	151566	27985	961363	38507	106409	0	0	8168	752306	0	0
2024-05-05 11:33:32			0	34118	0	0	0	17664	16190	151402	27845	961406	38530	106416	0	0	8168	751871	0	0
2024-05-05 11:34:32			0	34116	0	0	0	17677	16200	151462	27888	961457	38509	106421	0	0	8168	751929	0	0
2024-05-05 11:35:32			0	34117	0	0	0	17688	16200	151466	27815	961483	38521	106425	0	0	8168	751880	0	0
2024-05-05 11:36:32			0	34115	0	0	0	17696	16220	151430	27953	961569	38522	106428	0	0	8167	751897	0	0
2024-05-05 11:37:32			0	34114	0	0	0	17711	16230	151558	27706	961603	38533	106434	0	0	8167	751906	0	0
2024-05-05 11:38:32			0	34119	0	0	0	17714	16240	151506	27805	961654	38535	106435	0	0	8168	751619	0	0
2024-05-05 11:39:32			0	34113	0	0	0	17719	16250	151418	27694	961663	38535	106437	0	0	8167	751874	0	0
2024-05-05 11:40:32			0	34112	0	0	0	17727	16260	151390	27909	961705	38526	106440	0	0	8167	751883	0	0
2024-05-05 11:41:32			0	34108	0	0	0	17742	16280	151438	27651	961712	38527	106446	0	0	8167	751998	0	0
2024-05-05 11:42:32			0	34119	0	0	0	17750	16280	151442	27913	961817	38538	106449	0	0	8167	751456	0	0
2024-05-05 11:43:32			0	34117	0	0	0	17763	16290	151386	27542	961833	38539	106454	0	0	8167	751514	0	0
2024-05-05 11:44:32			0	34109	0	0	0	17774	16310	151430	27540	961893	38551	106458	0	0	8166	751827	0	0
2024-05-05 11:45:32			0	34098	0	0	0	17789	16300	151442	27722	961937	38530	106464	0	0	8165	752410	0	0
2024-05-05 11:46:32			0	34128	0	0	0	17799	16320	151462	27895	961962	38552	106468	0	0	8167	750851	0	0
2024-05-05 11:47:32			0	34125	0	0	0	17815	16340	151410	27429	962021	38554	106474	0	0	8167	750917	0	0
2024-05-05 11:48:32			0	34103	0	0	0	17825	16340	151566	27906	962082	38555	106478	0	0	8165	752001	0	0
2024-05-05 11:49:32			0	34141	0	0	0	17885	16360	151386	27607	962106	38544	106501	0	0	8166	750049	0	0
2024-05-05 11:50:32			0	34138	0	0	0	17875	16370	151226	27682	962202	38546	106497	0	0	8166	750156	0	0
2024-05-05 11:51:32			0	34159	0	0	0	17862	16370	151178	27611	962184	38557	106492	0	0	8168	749123	0	0
2024-05-05 11:52:32			0	34172	0	0	0	17807	16390	151150	27708	962182	38548	106471	0	0	8170	748404	0	0
2024-05-05 11:53:32			0	34156	0	0	0	17857	16400	151098	27628	962251	38549	106490	0	0	8168	749149	0	0
2024-05-05 11:54:32			0	34147	0	0	0	17851	16400	151118	27717	962330	38549	106488	0	0	8168	749592	0	0
2024-05-05 11:55:32			0	34161	0	0	0	17885	16400	151022	27810	962365	38538	106501	0	0	8168	748904	0	0
2024-05-05 11:56:32			0	34201	0	0	0	17888	16410	150914	27563	962320	38561	106502	0	0	8170	746900	0	0
2024-05-05 11:57:32			0	34191	0	0	0	17896	16440	150878	27606	962422	38563	106505	0	0	8170	747269	0	0
2024-05-05 11:58:32			0	34199	0	0	0	17901	16440	150930	27713	962422	38563	106507	0	0	8170	746877	0	0
2024-05-05 11:59:32			0	34200	0	0	0	17888	16440	150970	27737	962457	38552	106502	0	0	8170	746828	0	0
2024-05-05 12:00:32			0	34182	0	0	0	17880	16450	150926	27602	962447	38565	106499	0	0	8169	747671	0	0
2024-05-05 12:01:32			0	34202	0	0	0	17877	16470	150926	27649	962419	38566	106498	0	0	8171	746609	0	0
2024-05-05 12:02:32			0	34185	0	0	0	17872	16470	150858	27774	962471	38555	106496	0	0	8170	747442	0	0
2024-05-05 12:03:32			0	34174	0	0	0	17880	16480	150970	27362	962506	38544	106499	0	0	8169	747942	0	0
2024-05-05 12:04:32			0	34194	0	0	0	17883	16470	151038	27576	962524	38566	106500	0	0	8170	747001	0	0
2024-05-05 12:05:32			0	34173	0	0	0	17901	16480	150990	27776	962480	38555	106507	0	0	8169	747991	0	0
2024-05-05 12:06:32			0	34209	0	0	0	17906	16480	150866	28107	962506	38566	106509	0	0	8171	746226	0	0
2024-05-05 12:07:32			0	34216	0	0	0	17911	16490	150818	27640	962530	38556	106511	0	0	8171	745843	0	0
2024-05-05 12:08:32			0	34204	0	0	0	17906	16490	150874	27847	962575	38578	106509	0	0	8170	746430	0	0
2024-05-05 12:09:32			0	34172	0	0	0	17901	16500	151034	27793	962565	38557	106507	0	0	8169	747959	0	0
2024-05-05 12:10:32			0	34153	0	0	0	17896	16510	151170	27592	962661	38569	106505	0	0	8168	748851	0	0
2024-05-05 12:11:32			0	34098	0	0	0	17883	16510	151198	27658	962661	38569	106500	0	0	8165	751556	0	0
2024-05-05 12:12:32			0	34079	0	0	0	17896	16510	151338	27902	962590	38569	106505	0	0	8163	752493	0	0
2024-05-05 12:13:32			0	34051	0	0	0	17914	16510	151434	27666	962590	38558	106512	0	0	8161	753874	0	0
2024-05-05 12:14:32			0	34041	0	0	0	17932	16510	151414	27874	962616	38558	106519	0	0	8161	754368	0	0
2024-05-05 12:15:32			0	34068	0	0	0	17942	16520	151330	27490	962651	38570	106523	0	0	8162	752994	0	0
2024-05-05 12:16:32			0	34094	0	0	0	17940	16520	151274	27543	962712	38582	106522	0	0	8164	751713	0	0
2024-05-05 12:17:32			0	34083	0	0	0	17927	16530	151306	27711	962720	38571	106517	0	0	8163	752214	0	0
2024-05-05 12:18:32			0	34057	0	0	0	17901	16530	151342	27991	962675	38560	106507	0	0	8162	753496	0	0
2024-05-05 12:19:32			0	34039	0	0	0	17909	16520	151558	27817	962704	38570	106510	0	0	8161	754426	0	0
2024-05-05 12:20:32			0	33980	0	0	0	17924	16520	151598	27651	962572	38559	106516	0	0	8157	757345	0	0
2024-05-05 12:21:32			0	33984	0	0	0	17922	16530	151670	27850	962694	38571	106515	0	0	8158	757106	0	0
2024-05-05 12:22:32			0	33991	0	0	0	17932	16520	151846	27705	962712	38582	106519	0	0	8158	756800	0	0
2024-05-05 12:23:32			0	33976	0	0	0	17945	16540	151846	27831	962763	38572	106524	0	0	8157	757461	0	0
2024-05-05 12:24:32			0	33963	0	0	0	17937	16540	151742	27435	962745	38572	106521	0	0	8156	758106	0	0
2024-05-05 12:25:32			0	33984	0	0	0	17940	16540	151826	27511	962797	38572	106522	0	0	8157	757065	0	0
2024-05-05 12:26:32			0	33992	0	0	0	17958	16550	151686	27890	962805	38583	106529	0	0	8157	756628	0	0
2024-05-05 12:27:32			0	33995	0	0	0	17953	16560	151630	27796	962769	38573	106527	0	0	8158	756439	0	0
2024-05-05 12:28:32			0	33976	0	0	0	17961	16540	151746	27989	962797	38572	106530	0	0	8156	757461	0	0
2024-05-05 12:29:32			0	33969	0	0	0	17979	16560	151822	27750	962875	38573	106537	0	0	8156	757726	0	0
2024-05-05 12:30:32			0	33978	0	0	0	17974	16560	151838	27531	962901	38573	106535	0	0	8156	757280	0	0
2024-05-05 12:31:32			0	33984	0	0	0	17971	16580	151742	27509	962960	38575	106534	0	0	8157	756901	0	0
2024-05-05 12:32:32			0	34017	0	0	0	17963	16580	151782	27462	962942	38576	106531	0	0	8159	755268	0	0
2024-05-05 12:33:32			0	34029	0	0	0	17971	16590	151638	27620	962897	38577	106534	0	0	8160	754634	0	0
2024-05-05 12:34:32			0	34035	0	0	0	17981	16590	151550	27670	962950	38577	106538	0	0	8160	754338	0	0
2024-05-05 12:35:32			0	34045	0	0	0	17986	16580	151522	27618	962881	38575	106540	0	0	8160	753885	0	0
2024-05-05 12:36:32			0	34055	0	0	0	17963	16590	151466	27935	962985	38577	106531	0	0	8161	753351	0	0
2024-05-05 12:37:32			0	34053	0	0	0	17950	16590	151406	27639	962932	38577	106526	0	0	8161	753449	0	0
2024-05-05 12:38:32			0	34053	0	0	0	17948	16590	151370	27942	962924	38577	106525	0	0	8161	753449	0	0
2024-05-05 12:39:32			0	34040	0	0	0	17942	16600	151418	27762	962967	38578	106523	0	0	8161	754050	0	0
2024-05-05 12:40:32			0	34043	0	0	0	17971	16590	151406	27961	962985	38577	106534	0	0	8160	753943	0	0
2024-05-05 12:41:32			0	34050	0	0	0	17992	16600	151418	27859	963046	38578	106542	0	0	8161	753556	0	0
2024-05-05 12:42:32			0	34061	0	0	0	17986	16610	151326	27708	963036	38578	106540	0	0	8161	752973	0	0
2024-05-05 12:43:32			0	34072	0	0	0	17966	16610	151250	27789	963097	38578	106532	0	0	8162	752431	0	0
2024-05-05 12:44:32			0	34081	0	0	0	18007	16610	151302	27675	963062	38578	106548	0	0	8162	751987	0	0
2024-05-05 12:45:32			0	34092	0	0	0	18012	16630	151330	27862	963174	38580	106550	0	0	8163	751364	0	0
2024-05-05 12:46:32			0	34091	0	0	0	18023	16640	151326	27965	963164	38581	106554	0	0	8163	751372	0	0
2024-05-05 12:47:32			0	34070	0	0	0	18023	16630	151322	27729	963209	38590	106554	0	0	8161	752448	0	0
2024-05-05 12:48:32			0	34069	0	0	0	18033	16650	151386	27597	963215	38571	106558	0	0	8161	752416	0	0
2024-05-05 12:49:32			0	34067	0	0	0	18036	16660	151330	27637	963197	38583	106559	0	0	8161	752473	0	0
2024-05-05 12:50:32			0	34068	0	0	0	18054	16660	151286	27422	963223	38583	106566	0	0	8161	752424	0	0
2024-05-05 12:51:32			0	34067	0	0	0	18067	16660	151318	27659	963258	38605	106571	0	0	8161	752473	0	0
2024-05-05 12:52:32			0	34086	0	0	0	18070	16670	151262	27478	963345	38583	106572	0	0	8162	751497	0	0
2024-05-05 12:53:32			0	34111	0	0	0	18098	16680	151166	27734	963397	38584	106583	0	0	8163	750226	0	0
2024-05-05 12:54:32			0	34185	0	0	0	18127	16690	150818	27431	963431	38595	106594	0	0	8166	746553	0	0
2024-05-05 12:55:32			0	34232	0	0	0	18135	16690	150566	27592	963458	38595	106597	0	0	8169	744254	0	0
2024-05-05 12:56:32			0	34254	0	0	0	18142	16700	150490	27918	963474	38596	106600	0	0	8170	743139	0	0
2024-05-05 12:57:32			0	34246	0	0	0	18145	16710	150554	27488	963525	38598	106601	0	0	8170	743489	0	0
2024-05-05 12:58:32			0	34255	0	0	0	18137	16710	150558	27412	963604	38598	106598	0	0	8170	743050	0	0
2024-05-05 12:59:32			0	34258	0	0	0	18166	16730	150470	27460	963576	38600	106609	0	0	8170	742823	0	0
2024-05-05 13:00:32			0	34237	0	0	0	18163	16740	150514	27800	963592	38600	106608	0	0	8169	743808	0	0
2024-05-05 13:01:32			0	34211	0	0	0	18171	16740	150630	27881	963619	38611	106611	0	0	8167	745079	0	0
2024-05-05 13:02:32			0	34192	0	0	0	18220	16750	150758	27585	963741	38601	106630	0	0	8166	745968	0	0
2024-05-05 13:03:32			0	34170	0	0	0	18264	16790	150734	27779	963957	38615	106647	0	0	8164	746884	0	0
2024-05-05 13:04:32			0	34188	0	0	0	18301	16800	150762	27904	964052	38617	106661	0	0	8164	745962	0	0
2024-05-05 13:05:32			0	34216	0	0	0	18368	16820	150690	27353	964138	38629	106687	0	0	8165	744511	0	0
2024-05-05 13:06:32			0	34197	0	0	0	18412	16840	150782	27613	964355	38630	106704	0	0	8163	745360	0	0
2024-05-05 13:07:32			0	34209	0	0	0	18412	16870	150670	27750	964405	38623	106704	0	0	8164	744652	0	0
2024-05-05 13:08:32			0	34212	0	0	0	18407	16900	150702	27428	964507	38635	106702	0	0	8164	744384	0	0
2024-05-05 13:09:32			0	34202	0	0	0	18415	16920	150686	27774	964540	38637	106705	0	0	8164	744792	0	0
2024-05-05 13:10:32			0	34193	0	0	0	18467	16930	150678	27890	964635	38639	106725	0	0	8162	745192	0	0
2024-05-05 13:11:32			0	34196	0	0	0	18475	16950	150678	27479	964676	38652	106728	0	0	8162	744964	0	0
2024-05-05 13:12:32			0	34196	0	0	0	18475	16970	150490	27585	964735	38665	106728	0	0	8162	744883	0	0
2024-05-05 13:13:32			0	34228	0	0	0	18498	16990	150438	27298	964892	38676	106737	0	0	8164	743240	0	0
2024-05-05 13:14:32			0	34213	0	0	0	18509	17010	150446	27649	964960	38679	106741	0	0	8163	743891	0	0
2024-05-05 13:15:32			0	34203	0	0	0	18524	17020	150490	27580	964950	38658	106747	0	0	8162	744339	0	0
2024-05-05 13:16:32			0	34214	0	0	0	18540	17040	150562	27670	965027	38660	106753	0	0	8163	743721	0	0
2024-05-05 13:17:32			0	34191	0	0	0	18516	17050	150434	27524	965070	38660	106744	0	0	8162	744805	0	0
2024-05-05 13:18:32			0	34200	0	0	0	18511	17060	150438	27526	965105	38661	106742	0	0	8163	744324	0	0
2024-05-05 13:19:32			0	34220	0	0	0	18532	17080	150366	27675	965172	38652	106750	0	0	8163	743267	0	0
2024-05-05 13:20:32			0	34220	0	0	0	18537	17090	150418	27609	965180	38652	106752	0	0	8163	743227	0	0
2024-05-05 13:21:32			0	34217	0	0	0	18584	17100	150354	27833	965250	38664	106770	0	0	8162	743333	0	0
2024-05-05 13:22:32			0	34220	0	0	0	18587	17110	150362	27680	965266	38675	106771	0	0	8163	743146	0	0
2024-05-05 13:23:32			0	34253	0	0	0	18542	17120	150262	27698	965291	38677	106754	0	0	8165	741497	0	0
2024-05-05 13:24:32			0	34270	0	0	0	18527	17120	150266	27575	965256	38655	106748	0	0	8167	740670	0	0
2024-05-05 13:25:32			0	34258	0	0	0	18558	17120	150146	27485	965238	38666	106760	0	0	8165	741254	0	0
2024-05-05 13:26:32			0	34251	0	0	0	18589	17130	150198	27713	965466	38667	106772	0	0	8164	741555	0	0
2024-05-05 13:27:32			0	34257	0	0	0	18610	17140	150290	27656	965403	38668	106780	0	0	8164	741222	0	0
2024-05-05 13:28:32			0	34273	0	0	0	18615	17160	150118	27829	965428	38669	106782	0	0	8165	740363	0	0
2024-05-05 13:29:32			0	34305	0	0	0	18631	17160	150050	27779	965436	38669	106788	0	0	8167	738808	0	0
2024-05-05 13:30:32			0	34316	0	0	0	18636	17170	149842	27613	965505	38670	106790	0	0	8168	738234	0	0
2024-05-05 13:31:32			0	34321	0	0	0	18623	17180	149914	27788	965540	38671	106785	0	0	8168	737951	0	0
2024-05-05 13:32:32			0	34322	0	0	0	18675	17200	149898	27597	965599	38684	106805	0	0	8167	737822	0	0
2024-05-05 13:33:32			0	34333	0	0	0	18698	17210	150022	27791	965642	38685	106814	0	0	8168	737249	0	0
2024-05-05 13:34:32			0	34347	0	0	0	18701	17220	149919	27677	965790	38674	106815	0	0	8168	736530	0	0
2024-05-05 13:35:32			0	34381	0	0	0	18709	17230	149751	27737	965815	38687	106818	0	0	8170	734845	0	0
2024-05-05 13:36:32			0	34421	0	0	0	18714	17250	149543	27298	965813	38677	106820	0	0	8173	732833	0	0
2024-05-05 13:37:32			0	34464	0	0	0	18732	17260	149291	27819	965883	38689	106827	0	0	8175	730721	0	0
2024-05-05 13:38:32			0	34489	0	0	0	18706	17270	149043	27692	965873	38690	106817	0	0	8177	729478	0	0
2024-05-05 13:39:32			0	34539	0	0	0	18714	17270	148855	27479	965899	38701	106820	0	0	8179	727077	0	0
2024-05-05 13:40:32			0	34554	0	0	0	18722	17280	148819	27587	965915	38691	106823	0	0	8180	726319	0	0
2024-05-05 13:41:32			0	34593	0	0	0	18753	17290	148679	27533	965966	38692	106835	0	0	8182	724413	0	0
2024-05-05 13:42:32			0	34593	0	0	0	18750	17290	148631	27493	965966	38692	106834	0	0	8182	724413	0	0
2024-05-05 13:43:32			0	34610	0	0	0	18748	17310	148499	27540	966018	38694	106833	0	0	8183	723521	0	0
2024-05-05 13:44:32			0	34627	0	0	0	18758	17310	148375	27666	966044	38694	106837	0	0	8184	722710	0	0
2024-05-05 13:45:32			0	34624	0	0	0	18745	17320	148227	27407	966016	38684	106832	0	0	8184	722813	0	0
2024-05-05 13:46:32			0	34668	0	0	0	18763	17320	148259	27595	966034	38694	106839	0	0	8186	720715	0	0
2024-05-05 13:47:32			0	34698	0	0	0	18758	17320	148127	27705	966121	38695	106837	0	0	8188	719287	0	0
2024-05-05 13:48:32			0	34718	0	0	0	18748	17330	148027	27654	966103	38696	106833	0	0	8189	718298	0	0
2024-05-05 13:49:32			0	34717	0	0	0	18758	17330	148099	27918	966130	38685	106837	0	0	8189	718345	0	0
2024-05-05 13:50:32			0	34749	0	0	0	18771	17340	147971	27718	966172	38686	106842	0	0	8191	716787	0	0
2024-05-05 13:51:32			0	34736	0	0	0	18774	17350	148059	27568	966162	38698	106843	0	0	8190	717365	0	0
2024-05-05 13:52:32			0	34719	0	0	0	18784	17350	147999	27485	966242	38686	106847	0	0	8189	718172	0	0
2024-05-05 13:53:32			0	34716	0	0	0	18784	17360	147939	27762	966205	38698	106847	0	0	8189	718276	0	0
2024-05-05 13:54:32			0	34743	0	0	0	18779	17360	147979	27750	966205	38698	106845	0	0	8190	716994	0	0
2024-05-05 13:55:32			0	34726	0	0	0	18774	17370	147947	27878	966196	38699	106843	0	0	8189	717761	0	0
2024-05-05 13:56:32			0	34725	0	0	0	18789	17370	147975	27907	966248	38688	106849	0	0	8189	717809	0	0
2024-05-05 13:57:32			0	34743	0	0	0	18820	17380	147899	27680	966283	38689	106861	0	0	8190	716916	0	0
2024-05-05 13:58:32			0	34745	0	0	0	18825	17380	147883	27783	966371	38710	106863	0	0	8190	716821	0	0
2024-05-05 13:59:32			0	34795	0	0	0	18820	17380	147655	27765	966291	38700	106861	0	0	8193	714452	0	0
2024-05-05 14:00:32			0	34794	0	0	0	18810	17400	147567	27517	966395	38712	106857	0	0	8193	714422	0	0
2024-05-05 14:01:32			0	34837	0	0	0	18812	17400	147535	27873	966403	38712	106858	0	0	8195	712390	0	0
2024-05-05 14:02:32			0	34859	0	0	0	18823	17410	147415	28018	966306	38723	106862	0	0	8196	711313	0	0
2024-05-05 14:03:32			0	34858	0	0	0	18812	17420	147391	27526	966402	38692	106858	0	0	8196	711321	0	0
2024-05-05 14:04:32			0	34882	0	0	0	18815	17410	147215	27703	966420	38692	106859	0	0	8198	710229	0	0
2024-05-05 14:05:32			0	34877	0	0	0	18825	17410	147239	27946	966438	38702	106863	0	0	8197	710465	0	0
2024-05-05 14:06:32			0	34897	0	0	0	18836	17410	147159	27509	966412	38691	106867	0	0	8198	709523	0	0
2024-05-05 14:07:32			0	34913	0	0	0	18833	17420	147191	27770	966410	38704	106866	0	0	8199	708732	0	0
2024-05-05 14:08:32			0	34929	0	0	0	18841	17430	147007	27894	966497	38715	106869	0	0	8200	707941	0	0
2024-05-05 14:09:32			0	34963	0	0	0	18841	17430	146975	27772	966497	38704	106869	0	0	8202	706345	0	0
2024-05-05 14:10:32			0	34952	0	0	0	18836	17430	146963	27722	966497	38704	106867	0	0	8201	706861	0	0
2024-05-05 14:11:32			0	34954	0	0	0	18864	17440	146979	27894	966461	38715	106878	0	0	8201	706729	0	0
2024-05-05 14:12:32			0	34955	0	0	0	18838	17440	146955	27918	966540	38705	106868	0	0	8201	706682	0	0
2024-05-05 14:13:32			0	34956	0	0	0	18851	17440	147055	27985	966514	38694	106873	0	0	8201	706635	0	0
2024-05-05 14:14:32			0	34935	0	0	0	18862	17440	147063	28031	966540	38683	106877	0	0	8200	707620	0	0
2024-05-05 14:15:32			0	34946	0	0	0	18864	17450	147059	28058	966618	38706	106878	0	0	8201	707066	0	0
2024-05-05 14:16:32			0	34922	0	0	0	18888	17450	147071	27850	966583	38706	106887	0	0	8199	708193	0	0
2024-05-05 14:17:32			0	34932	0	0	0	18893	17450	147047	27944	966644	38706	106889	0	0	8199	707723	0	0
2024-05-05 14:18:32			0	34911	0	0	0	18896	17470	147095	27932	966722	38708	106890	0	0	8198	708633	0	0
2024-05-05 14:19:32			0	34924	0	0	0	18903	17470	147095	27859	966695	38718	106893	0	0	8199	708022	0	0
2024-05-05 14:20:32			0	34950	0	0	0	18922	17480	147039	27805	966791	38719	106900	0	0	8200	706763	0	0
2024-05-05 14:21:32			0	34979	0	0	0	18919	17490	146895	27824	966728	38709	106899	0	0	8202	705364	0	0
2024-05-05 14:22:32			0	34977	0	0	0	18935	17490	146819	27647	966781	38721	106905	0	0	8201	705458	0	0
2024-05-05 14:23:32			0	35006	0	0	0	18935	17490	146671	27783	966842	38721	106905	0	0	8203	704100	0	0
2024-05-05 14:24:32			0	34989	0	0	0	18940	17510	146719	27677	966893	38722	106907	0	0	8202	704819	0	0
2024-05-05 14:25:32			0	34945	0	0	0	18929	17510	146991	27713	966920	38722	106903	0	0	8200	706882	0	0
2024-05-05 14:26:32			0	34888	0	0	0	18919	17510	147271	27706	966893	38722	106899	0	0	8197	709560	0	0
2024-05-05 14:27:32			0	34861	0	0	0	18927	17510	147455	27614	966928	38701	106902	0	0	8195	710832	0	0
2024-05-05 14:28:32			0	34810	0	0	0	18896	17530	147559	27890	966979	38713	106890	0	0	8193	713161	0	0
2024-05-05 14:29:32			0	34808	0	0	0	18909	17530	147575	27485	966900	38713	106895	0	0	8192	713255	0	0
2024-05-05 14:30:32			0	34803	0	0	0	18890	17520	147671	27718	966944	38712	106888	0	0	8192	713530	0	0
2024-05-05 14:31:32			0	34831	0	0	0	18872	17530	147515	27951	966900	38713	106881	0	0	8194	712169	0	0
2024-05-05 14:32:32			0	34835	0	0	0	18916	17540	147547	27490	966951	38725	106898	0	0	8194	711942	0	0
2024-05-05 14:33:32			0	34879	0	0	0	18807	17540	147243	27835	966951	38714	106856	0	0	8198	709868	0	0
2024-05-05 14:34:32			0	34893	0	0	0	18864	17540	147203	27760	966863	38713	106878	0	0	8198	709209	0	0
2024-05-05 14:35:32			0	34876	0	0	0	18875	17530	147247	27926	966847	38703	106882	0	0	8197	710048	0	0
2024-05-05 14:36:32			0	34898	0	0	0	18890	17520	147159	27888	966865	38712	106888	0	0	8198	709051	0	0
2024-05-05 14:37:32			0	34909	0	0	0	18755	17530	147043	27504	966926	38713	106836	0	0	8201	708496	0	0
2024-05-05 14:38:32			0	34899	0	0	0	18748	17540	147143	27699	966872	38714	106833	0	0	8200	708927	0	0
2024-05-05 14:39:32			0	34887	0	0	0	18709	17530	147247	27791	966749	38691	106818	0	0	8200	709530	0	0
2024-05-05 14:40:32			0	34848	0	0	0	18703	17520	147299	27928	966672	38711	106816	0	0	8198	711406	0	0
2024-05-05 14:41:32			0	34843	0	0	0	18792	17500	147359	28096	966727	38710	106850	0	0	8196	711719	0	0
2024-05-05 14:42:32			0	34876	0	0	0	18766	17490	147271	27973	966763	38709	106840	0	0	8198	710203	0	0
2024-05-05 14:43:32			0	34863	0	0	0	18766	17510	147319	28095	966788	38711	106840	0	0	8198	710738	0	0
2024-05-05 14:44:32			0	34845	0	0	0	18612	17510	147267	27762	966550	38690	106781	0	0	8199	711586	0	0
2024-05-05 14:45:32			0	34790	0	0	0	18607	17480	147527	27881	966376	38676	106779	0	0	8196	714300	0	0
2024-05-05 14:46:32			0	34756	0	0	0	18574	17450	147683	27812	966248	38684	106766	0	0	8195	716027	0	0
2024-05-05 14:47:32			0	34732	0	0	0	18579	17440	147883	27765	966179	38663	106768	0	0	8193	717204	0	0
2024-05-05 14:48:32			0	34719	0	0	0	18532	17420	147935	27828	966093	38661	106750	0	0	8193	717899	0	0
2024-05-05 14:49:32			0	34685	0	0	0	18561	17390	148027	27762	965964	38657	106761	0	0	8191	719632	0	0
2024-05-05 14:50:32			0	34667	0	0	0	18589	17380	148195	27888	966027	38657	106772	0	0	8189	720528	0	0
2024-05-05 14:51:32			0	34676	0	0	0	18553	17370	148151	27666	966037	38666	106758	0	0	8190	720139	0	0
2024-05-05 14:52:32			0	34656	0	0	0	18563	17370	148235	27803	966003	38655	106762	0	0	8189	721091	0	0
2024-05-05 14:53:32			0	34632	0	0	0	18548	17350	148295	27597	966004	38654	106756	0	0	8188	722314	0	0
2024-05-05 14:54:32			0	34619	0	0	0	18529	17350	148319	27817	965864	38664	106749	0	0	8187	722934	0	0
2024-05-05 14:55:32			0	34630	0	0	0	18537	17330	148411	27594	965821	38663	106752	0	0	8188	722488	0	0
2024-05-05 14:56:32			0	34610	0	0	0	18542	17310	148419	27670	965814	38651	106754	0	0	8186	723521	0	0
2024-05-05 14:57:32			0	34625	0	0	0	18571	17320	148395	27864	965910	38673	106765	0	0	8187	722766	0	0
2024-05-05 14:58:32			0	34651	0	0	0	18558	17310	148335	27750	965867	38672	106760	0	0	8189	721564	0	0
2024-05-05 14:59:32			0	34641	0	0	0	18584	17320	148351	27772	965928	38651	106770	0	0	8188	722002	0	0
2024-05-05 15:00:32			0	34636	0	0	0	18602	17300	148435	27682	965798	38661	106777	0	0	8187	722319	0	0
2024-05-05 15:01:32			0	34652	0	0	0	18574	17300	148403	27606	965790	38649	106766	0	0	8188	721556	0	0
2024-05-05 15:02:32			0	34654	0	0	0	18566	17300	148459	27954	965763	38649	106763	0	0	8189	721461	0	0
2024-05-05 15:03:32			0	34645	0	0	0	18597	17300	148367	27828	965895	38670	106775	0	0	8187	721890	0	0
2024-05-05 15:04:32			0	34663	0	0	0	18566	17290	148335	28039	965905	38681	106763	0	0	8189	721071	0	0
2024-05-05 15:05:32			0	34658	0	0	0	18519	17290	148259	28036	965782	38670	106745	0	0	8189	721309	0	0
2024-05-05 15:06:32			0	34657	0	0	0	18553	17290	148419	27464	965747	38660	106758	0	0	8189	721357	0	0
2024-05-05 15:07:32			0	34646	0	0	0	18589	17280	148347	27628	965739	38659	106772	0	0	8188	721921	0	0
2024-05-05 15:08:32			0	34625	0	0	0	18620	17280	148463	27940	965818	38669	106784	0	0	8186	722923	0	0
2024-05-05 15:09:32			0	34657	0	0	0	18651	17280	148455	28090	965942	38680	106796	0	0	8187	721396	0	0
2024-05-05 15:10:32			0	34701	0	0	0	18599	17290	148291	27668	965966	38681	106776	0	0	8191	719262	0	0
2024-05-05 15:11:32			0	34681	0	0	0	18732	17300	148351	27663	966089	38671	106827	0	0	8187	720174	0	0
2024-05-05 15:12:32			0	34718	0	0	0	18584	17320	148107	27935	966060	38694	106770	0	0	8192	718337	0	0
2024-05-05 15:13:32			0	34695	0	0	0	18542	17310	148151	27604	965947	38662	106754	0	0	8191	719469	0	0
2024-05-05 15:14:32			0	34683	0	0	0	18657	17310	148379	27987	965973	38662	106798	0	0	8189	720040	0	0
2024-05-05 15:15:32			0	34683	0	0	0	18706	17310	148339	27705	966044	38683	106817	0	0	8188	720040	0	0
2024-05-05 15:16:32			0	34666	0	0	0	18786	17320	148347	27892	966148	38684	106848	0	0	8186	720810	0	0
2024-05-05 15:17:32			0	34687	0	0	0	18844	17350	148271	28017	966339	38697	106870	0	0	8186	719693	0	0
2024-05-05 15:18:32			0	34707	0	0	0	18890	17380	148219	27507	966521	38700	106888	0	0	8186	718625	0	0
2024-05-05 15:19:32			0	34745	0	0	0	18893	17390	148147	27685	966625	38722	106889	0	0	8189	716782	0	0
2024-05-05 15:20:32			0	34753	0	0	0	18945	17410	147935	27581	966631	38703	106909	0	0	8188	716325	0	0
2024-05-05 15:21:32			0	34814	0	0	0	18950	17430	147751	27970	966796	38704	106911	0	0	8192	713360	0	0
2024-05-05 15:22:32			0	34839	0	0	0	18929	17450	147635	27706	966803	38706	106903	0	0	8193	712102	0	0
2024-05-05 15:23:32			0	34862	0	0	0	18927	17460	147571	27989	966784	38696	106902	0	0	8195	710978	0	0
2024-05-05 15:24:32			0	34882	0	0	0	18922	17480	147451	27991	966773	38709	106900	0	0	8196	709959	0	0
2024-05-05 15:25:32			0	34895	0	0	0	18838	17480	147387	27800	966773	38709	106868	0	0	8198	709347	0	0
2024-05-05 15:26:32			0	34887	0	0	0	18667	17480	147155	27999	966720	38698	106802	0	0	8201	709723	0	0
2024-05-05 15:27:32			0	34856	0	0	0	18820	17470	147439	27441	966677	38686	106861	0	0	8196	711222	0	0
2024-05-05 15:28:32			0	34836	0	0	0	18906	17480	147527	27554	966738	38708	106894	0	0	8194	712127	0	0
2024-05-05 15:29:32			0	34847	0	0	0	18893	17470	147499	27498	966835	38697	106889	0	0	8195	711647	0	0
2024-05-05 15:30:32			0	34868	0	0	0	18810	17490	147351	27573	966816	38721	106857	0	0	8197	710579	0	0
2024-05-05 15:31:32			0	34856	0	0	0	18846	17490	147451	27724	966816	38721	106871	0	0	8196	711145	0	0
2024-05-05 15:32:32			0	34860	0	0	0	18872	17510	147479	27699	966893	38690	106881	0	0	8196	710879	0	0
2024-05-05 15:33:32			0	34844	0	0	0	18872	17500	147487	27812	966911	38710	106881	0	0	8195	711672	0	0
2024-05-05 15:34:32			0	34856	0	0	0	18898	17510	147467	27498	966920	38701	106891	0	0	8195	711068	0	0
2024-05-05 15:35:32			0	34855	0	0	0	18940	17520	147447	27637	966963	38722	106907	0	0	8194	711076	0	0
2024-05-05 15:36:32			0	34875	0	0	0	18935	17520	147331	27665	966944	38712	106905	0	0	8196	710134	0	0
2024-05-05 15:37:32			0	34877	0	0	0	18820	17520	147399	27452	966883	38711	106861	0	0	8198	710040	0	0
2024-05-05 15:38:32			0	34837	0	0	0	18893	17530	147451	28216	966900	38691	106889	0	0	8194	711886	0	0
2024-05-05 15:39:32			0	34842	0	0	0	18833	17540	147519	27509	966943	38703	106866	0	0	8196	711612	0	0
2024-05-05 15:40:32			0	34813	0	0	0	18867	17530	147563	27815	966900	38713	106879	0	0	8193	713019	0	0
2024-05-05 15:41:32			0	34813	0	0	0	18836	17530	147655	27505	966900	38703	106867	0	0	8194	713019	0	0
2024-05-05 15:42:32			0	34801	0	0	0	18906	17530	147723	27767	966821	38713	106894	0	0	8192	713586	0	0
2024-05-05 15:43:32			0	34798	0	0	0	18870	17530	147675	27409	966900	38703	106880	0	0	8193	713728	0	0
2024-05-05 15:44:32			0	34804	0	0	0	18854	17520	147595	27973	966839	38691	106874	0	0	8193	713483	0	0
2024-05-05 15:45:32			0	34781	0	0	0	18857	17520	147659	27751	966918	38702	106875	0	0	8192	714571	0	0
2024-05-05 15:46:32			0	34780	0	0	0	18859	17510	147675	27852	966901	38701	106876	0	0	8192	714657	0	0
2024-05-05 15:47:32			0	34775	0	0	0	18885	17540	147731	27711	966924	38714	106886	0	0	8191	714777	0	0
2024-05-05 15:48:32			0	34768	0	0	0	18896	17530	147735	27557	966926	38713	106890	0	0	8190	715147	0	0
2024-05-05 15:49:32			0	34778	0	0	0	18909	17530	147795	27403	966979	38713	106895	0	0	8191	714674	0	0
2024-05-05 15:50:32			0	34763	0	0	0	18916	17540	147819	27783	967004	38704	106898	0	0	8190	715345	0	0
2024-05-05 15:51:32			0	34766	0	0	0	18898	17530	147879	27597	966926	38713	106891	0	0	8190	715242	0	0
2024-05-05 15:52:32			0	34762	0	0	0	18898	17540	147863	27909	966977	38714	106891	0	0	8190	715392	0	0
2024-05-05 15:53:32			0	34783	0	0	0	18903	17540	147775	27843	966924	38704	106893	0	0	8191	714398	0	0
2024-05-05 15:54:32			0	34755	0	0	0	18898	17550	147727	27727	966985	38704	106891	0	0	8190	715685	0	0
2024-05-05 15:55:32			0	34765	0	0	0	18922	17540	147827	27920	967004	38714	106900	0	0	8190	715250	0	0
2024-05-05 15:56:32			0	34772	0	0	0	18942	17550	147855	27757	967012	38693	106908	0	0	8190	714880	0	0
2024-05-05 15:57:32			0	34792	0	0	0	18859	17550	147671	27561	967073	38705	106876	0	0	8192	713934	0	0
2024-05-05 15:58:32			0	34793	0	0	0	18893	17550	147755	27753	967012	38726	106889	0	0	8192	713887	0	0
2024-05-05 15:59:32			0	34749	0	0	0	18916	17560	147875	27802	967081	38705	106898	0	0	8189	715930	0	0
2024-05-05 16:00:32			0	34755	0	0	0	18935	17560	147927	27847	967063	38705	106905	0	0	8189	715646	0	0
2024-05-05 16:01:32			0	34753	0	0	0	18888	17560	147839	27845	967055	38715	106887	0	0	8190	715741	0	0
2024-05-05 16:02:32			0	34751	0	0	0	18818	17570	147815	27992	966992	38727	106860	0	0	8191	715796	0	0
2024-05-05 16:03:32			0	34726	0	0	0	18758	17560	147827	27632	966949	38683	106837	0	0	8191	717020	0	0
2024-05-05 16:04:32			0	34715	0	0	0	18789	17560	147835	27653	966949	38715	106849	0	0	8189	717542	0	0
2024-05-05 16:05:32			0	34746	0	0	0	18729	17550	147891	27815	966888	38694	106826	0	0	8192	716111	0	0
2024-05-05 16:06:32			0	34711	0	0	0	18779	17540	147915	27594	966845	38681	106845	0	0	8189	717810	0	0
2024-05-05 16:07:32			0	34746	0	0	0	18662	17530	147859	27289	966662	38680	106800	0	0	8193	716189	0	0
2024-05-05 16:08:32			0	34716	0	0	0	18664	17500	147963	27518	966515	38689	106801	0	0	8191	717729	0	0
2024-05-05 16:09:32			0	34684	0	0	0	18690	17480	148103	27665	966456	38687	106811	0	0	8189	719328	0	0
2024-05-05 16:10:32			0	34679	0	0	0	18654	17480	148167	27796	966508	38676	106797	0	0	8189	719565	0	0
2024-05-05 16:11:32			0	34656	0	0	0	18633	17450	148299	27445	966433	38651	106789	0	0	8188	720778	0	0
2024-05-05 16:12:32			0	34632	0	0	0	18662	17440	148399	27689	966337	38673	106800	0	0	8186	721961	0	0
2024-05-05 16:13:32			0	34612	0	0	0	18677	17440	148443	27550	966390	38663	106806	0	0	8185	722915	0	0
2024-05-05 16:14:32			0	34613	0	0	0	18703	17430	148475	27602	966347	38682	106816	0	0	8184	722906	0	0
2024-05-05 16:15:32			0	34606	0	0	0	18688	17430	148395	27668	966373	38682	106810	0	0	8184	723241	0	0
2024-05-05 16:16:32			0	34610	0	0	0	18649	17420	148455	27483	966304	38682	106795	0	0	8185	723089	0	0
2024-05-05 16:17:32			0	34591	0	0	0	18667	17420	148527	27677	966270	38681	106802	0	0	8184	723997	0	0
2024-05-05 16:18:32			0	34581	0	0	0	18662	17420	148535	27632	966243	38681	106800	0	0	8183	724475	0	0
2024-05-05 16:19:32			0	34591	0	0	0	18683	17410	148607	28032	966280	38691	106808	0	0	8183	724036	0	0
2024-05-05 16:20:32			0	34609	0	0	0	18646	17410	148591	27680	966253	38691	106794	0	0	8185	723176	0	0
2024-05-05 16:21:32			0	34574	0	0	0	18696	17400	148671	27739	966263	38680	106813	0	0	8182	724888	0	0
2024-05-05 16:22:32			0	34584	0	0	0	18651	17400	148715	27890	966271	38668	106796	0	0	8184	724410	0	0
2024-05-05 16:23:32			0	34581	0	0	0	18670	17390	148731	27396	966202	38657	106803	0	0	8183	724593	0	0
2024-05-05 16:24:32			0	34554	0	0	0	18709	17390	148719	27505	966194	38657	106818	0	0	8181	725885	0	0
2024-05-05 16:25:32			0	34569	0	0	0	18628	17380	148615	27618	966151	38667	106787	0	0	8183	725206	0	0
2024-05-05 16:26:32			0	34563	0	0	0	18633	17370	148807	27646	966108	38666	106789	0	0	8183	725533	0	0
2024-05-05 16:27:32			0	34543	0	0	0	18620	17360	148851	27452	966039	38655	106784	0	0	8182	726530	0	0
2024-05-05 16:28:32			0	34531	0	0	0	18610	17340	148991	27459	965988	38686	106780	0	0	8181	727185	0	0
2024-05-05 16:29:32			0	34500	0	0	0	18618	17320	148959	27562	965884	38673	106783	0	0	8179	728752	0	0
2024-05-05 16:30:32			0	34490	0	0	0	18620	17330	149195	27578	965900	38652	106784	0	0	8178	729192	0	0
2024-05-05 16:31:32			0	34463	0	0	0	18612	17320	149275	27920	965902	38662	106781	0	0	8177	730531	0	0
2024-05-05 16:32:32			0	34450	0	0	0	18615	17310	149411	27533	965885	38662	106782	0	0	8176	731196	0	0
2024-05-05 16:33:32			0	34401	0	0	0	18605	17310	149563	27920	965938	38672	106778	0	0	8174	733559	0	0
2024-05-05 16:34:32			0	34345	0	0	0	18623	17310	149662	27925	965859	38662	106785	0	0	8170	736267	0	0
2024-05-05 16:35:32			0	34326	0	0	0	18618	17300	149794	27696	965843	38660	106783	0	0	8169	737228	0	0
2024-05-05 16:36:32			0	34297	0	0	0	18607	17280	149954	27987	965871	38681	106779	0	0	8167	738715	0	0
2024-05-05 16:37:32			0	34279	0	0	0	18607	17290	150118	27521	965834	38670	106779	0	0	8166	739549	0	0
2024-05-05 16:38:32			0	34228	0	0	0	18605	17270	150254	27814	965828	38668	106778	0	0	8164	742111	0	0
2024-05-05 16:39:32			0	34201	0	0	0	18602	17290	150474	27384	965800	38670	106777	0	0	8162	743347	0	0
2024-05-05 16:40:32			0	34158	0	0	0	18597	17280	150582	27472	965844	38648	106775	0	0	8160	745487	0	0
2024-05-05 16:41:32			0	34123	0	0	0	18599	17280	150842	27767	965731	38680	106776	0	0	8158	747200	0	0
2024-05-05 16:42:32			0	34101	0	0	0	18605	17270	150922	27319	965802	38668	106778	0	0	8156	748319	0	0
2024-05-05 16:43:32			0	34073	0	0	0	18607	17270	151026	27502	965775	38668	106779	0	0	8155	749693	0	0
2024-05-05 16:44:32			0	34066	0	0	0	18615	17270	151122	27542	965828	38668	106782	0	0	8154	750037	0	0
2024-05-05 16:45:32			0	34075	0	0	0	18628	17280	150970	27713	965863	38668	106787	0	0	8154	749555	0	0
2024-05-05 16:46:32			0	34100	0	0	0	18636	17270	150946	27569	965793	38668	106790	0	0	8156	748368	0	0
2024-05-05 16:47:32			0	34122	0	0	0	18618	17270	150774	27781	965846	38690	106783	0	0	8157	747290	0	0
2024-05-05 16:48:32			0	34122	0	0	0	18602	17270	150834	27274	965793	38668	106777	0	0	8157	747290	0	0
2024-05-05 16:49:32			0	34129	0	0	0	18605	17270	150774	27436	965802	38680	106778	0	0	8158	746947	0	0
2024-05-05 16:50:32			0	34132	0	0	0	18599	17260	150778	27854	965732	38679	106776	0	0	8158	746841	0	0
2024-05-05 16:51:32			0	34140	0	0	0	18605	17260	150694	27331	965759	38668	106778	0	0	8158	746449	0	0
2024-05-05 16:52:32			0	34102	0	0	0	18641	17260	150894	27540	965838	38668	106792	0	0	8156	748311	0	0
2024-05-05 16:53:32			0	34146	0	0	0	18651	17270	150826	28022	965899	38679	106796	0	0	8158	746115	0	0
2024-05-05 16:54:32			0	34177	0	0	0	18662	17280	150622	27902	965915	38680	106800	0	0	8160	744559	0	0
2024-05-05 16:55:32			0	34209	0	0	0	18675	17290	150490	27869	966011	38692	106805	0	0	8161	742957	0	0
2024-05-05 16:56:32			0	34208	0	0	0	18662	17290	150450	28060	966011	38681	106800	0	0	8162	743005	0	0
2024-05-05 16:57:32			0	34222	0	0	0	18654	17290	150430	27474	966037	38670	106797	0	0	8162	742323	0	0
2024-05-05 16:58:32			0	34193	0	0	0	18664	17300	150578	27566	966001	38692	106801	0	0	8161	743697	0	0
2024-05-05 16:59:32			0	34184	0	0	0	18729	17300	150610	27670	966054	38681	106826	0	0	8159	744136	0	0
2024-05-05 17:00:32			0	34199	0	0	0	18675	17300	150370	27469	966089	38682	106805	0	0	8161	743404	0	0
2024-05-05 17:01:32			0	34249	0	0	0	18649	17300	150378	27538	966036	38693	106795	0	0	8164	740968	0	0
2024-05-05 17:02:32			0	34242	0	0	0	18685	17320	150238	27618	966087	38683	106809	0	0	8163	741228	0	0
2024-05-05 17:03:32			0	34269	0	0	0	18729	17320	150250	27445	966166	38683	106826	0	0	8164	739914	0	0
2024-05-05 17:04:32			0	34288	0	0	0	18735	17330	150158	27590	966182	38685	106828	0	0	8165	738951	0	0
2024-05-05 17:05:32			0	34314	0	0	0	18807	17350	149978	27718	966286	38697	106856	0	0	8165	737609	0	0
2024-05-05 17:06:32			0	34334	0	0	0	18779	17360	149942	27353	966364	38698	106845	0	0	8167	736600	0	0
2024-05-05 17:07:32			0	34374	0	0	0	18761	17380	149735	27338	966529	38700	106838	0	0	8170	734585	0	0
2024-05-05 17:08:32			0	34392	0	0	0	18883	17380	149795	27758	966608	38710	106885	0	0	8169	733715	0	0
2024-05-05 17:09:32			0	34447	0	0	0	18857	17410	149503	27353	966737	38713	106875	0	0	8172	730944	0	0
2024-05-05 17:10:32			0	34472	0	0	0	18729	17440	149223	27535	966751	38715	106826	0	0	8176	729622	0	0
2024-05-05 17:11:32			0	34457	0	0	0	18854	17440	149275	27606	966707	38706	106874	0	0	8173	730343	0	0
2024-05-05 17:12:32			0	34483	0	0	0	18872	17450	149187	27556	966715	38706	106881	0	0	8174	729053	0	0
2024-05-05 17:13:32			0	34517	0	0	0	18935	17450	148975	27906	966776	38716	106905	0	0	8175	727421	0	0
2024-05-05 17:14:32			0	34546	0	0	0	18942	17460	148847	27920	966872	38718	106908	0	0	8177	725992	0	0
2024-05-05 17:15:32			0	34597	0	0	0	18924	17480	148719	27784	966984	38720	106901	0	0	8180	723474	0	0
2024-05-05 17:16:32			0	34626	0	0	0	18906	17480	148631	27673	966931	38720	106894	0	0	8182	722090	0	0
2024-05-05 17:17:32			0	34655	0	0	0	18805	17480	148375	27854	966825	38698	106855	0	0	8185	720708	0	0
2024-05-05 17:18:32			0	34619	0	0	0	18818	17490	148503	27711	966755	38709	106860	0	0	8183	722384	0	0
2024-05-05 17:19:32			0	34607	0	0	0	18794	17480	148563	27441	966659	38698	106851	0	0	8183	722996	0	0
2024-05-05 17:20:32			0	34553	0	0	0	18815	17470	148727	27549	966571	38708	106859	0	0	8179	725617	0	0
2024-05-05 17:21:32			0	34551	0	0	0	18797	17470	148863	27767	966624	38708	106852	0	0	8180	725713	0	0
2024-05-05 17:22:32			0	34464	0	0	0	18802	17460	149199	27557	966573	38685	106854	0	0	8175	729927	0	0
2024-05-05 17:23:32			0	34429	0	0	0	18789	17450	149431	27970	966565	38684	106849	0	0	8173	731652	0	0
2024-05-05 17:24:32			0	34385	0	0	0	18820	17460	149687	27680	966573	38696	106861	0	0	8170	733734	0	0
2024-05-05 17:25:32			0	34367	0	0	0	18815	17460	149843	27864	966687	38708	106859	0	0	8169	734603	0	0
2024-05-05 17:26:32			0	34399	0	0	0	18831	17450	149639	27828	966644	38695	106865	0	0	8170	733098	0	0
2024-05-05 17:27:32			0	34404	0	0	0	18810	17450	149583	27635	966644	38716	106857	0	0	8171	732857	0	0
2024-05-05 17:28:32			0	34423	0	0	0	18820	17450	149427	27509	966670	38695	106861	0	0	8172	731941	0	0
2024-05-05 17:29:32			0	34457	0	0	0	18799	17460	149347	27467	966679	38707	106853	0	0	8174	730264	0	0
2024-05-05 17:30:32			0	34479	0	0	0	18812	17450	149227	27859	966644	38695	106858	0	0	8175	729246	0	0
2024-05-05 17:31:32			0	34500	0	0	0	18828	17460	149103	27894	966652	38707	106864	0	0	8176	728197	0	0
2024-05-05 17:32:32			0	34506	0	0	0	18877	17460	149051	27537	966705	38696	106883	0	0	8176	727909	0	0
2024-05-05 17:33:32			0	34540	0	0	0	18794	17460	148995	27677	966740	38718	106851	0	0	8179	726279	0	0
2024-05-05 17:34:32			0	34552	0	0	0	18823	17470	148955	28043	966695	38697	106862	0	0	8179	725665	0	0
2024-05-05 17:35:32			0	34561	0	0	0	18766	17470	148887	27412	966748	38708	106840	0	0	8181	725234	0	0
2024-05-05 17:36:32			0	34567	0	0	0	18794	17470	148783	27833	966669	38697	106851	0	0	8181	724947	0	0
2024-05-05 17:37:32			0	34573	0	0	0	18750	17460	148703	27343	966547	38707	106834	0	0	8182	724700	0	0
2024-05-05 17:38:32			0	34591	0	0	0	18750	17460	148563	27779	966528	38697	106834	0	0	8183	723839	0	0
2024-05-05 17:39:32			0	34598	0	0	0	18740	17450	148627	27606	966538	38684	106830	0	0	8183	723544	0	0
2024-05-05 17:40:32			0	34592	0	0	0	18761	17440	148711	27492	966487	38705	106838	0	0	8182	723870	0	0
2024-05-05 17:41:32			0	34592	0	0	0	18784	17440	148691	27717	966540	38705	106847	0	0	8182	723870	0	0
2024-05-05 17:42:32			0	34579	0	0	0	18802	17440	148891	27595	966548	38706	106854	0	0	8181	724491	0	0
2024-05-05 17:43:32			0	34561	0	0	0	18755	17440	148987	27589	966548	38695	106836	0	0	8181	725352	0	0
2024-05-05 17:44:32			0	34541	0	0	0	18735	17440	149003	27574	966487	38705	106828	0	0	8180	726310	0	0
2024-05-05 17:45:32			0	34509	0	0	0	18735	17440	149103	27351	966443	38706	106828	0	0	8178	727845	0	0
2024-05-05 17:46:32			0	34488	0	0	0	18719	17430	149135	27717	966392	38682	106822	0	0	8177	728892	0	0
2024-05-05 17:47:32			0	34476	0	0	0	18698	17420	149303	27699	966402	38692	106814	0	0	8177	729509	0	0
2024-05-05 17:48:32			0	34429	0	0	0	18683	17410	149375	27614	966359	38680	106808	0	0	8174	731811	0	0
2024-05-05 17:49:32			0	34417	0	0	0	18680	17400	149475	27185	966290	38691	106807	0	0	8174	732429	0	0
2024-05-05 17:50:32			0	34400	0	0	0	18685	17390	149663	27052	966255	38679	106809	0	0	8173	733289	0	0
2024-05-05 17:51:32			0	34394	0	0	0	18672	17390	149699	27144	966247	38689	106804	0	0	8172	733579	0	0
2024-05-05 17:52:32			0	34389	0	0	0	18664	17370	149807	27253	966169	38699	106801	0	0	8172	733900	0	0
2024-05-05 17:53:32			0	34369	0	0	0	18664	17370	149863	27409	966135	38666	106801	0	0	8171	734866	0	0
2024-05-05 17:54:32			0	34347	0	0	0	18675	17360	149887	27535	966065	38676	106805	0	0	8170	735970	0	0
2024-05-05 17:55:32			0	34351	0	0	0	18675	17360	149871	27550	966118	38676	106805	0	0	8170	735777	0	0
2024-05-05 17:56:32			0	34352	0	0	0	18680	17350	149967	27308	966049	38697	106807	0	0	8170	735768	0	0
2024-05-05 17:57:32			0	34361	0	0	0	18677	17340	149891	27183	966067	38674	106806	0	0	8170	735373	0	0
2024-05-05 17:58:32			0	34353	0	0	0	18683	17350	149958	27334	966154	38686	106808	0	0	8170	735720	0	0
2024-05-05 17:59:32			0	34359	0	0	0	18672	17350	149851	27324	966101	38686	106804	0	0	8170	735430	0	0
2024-05-05 18:00:32			0	34366	0	0	0	18667	17350	149859	27531	966128	38686	106802	0	0	8171	735091	0	0
2024-05-05 18:01:32			0	34376	0	0	0	18683	17330	149891	27672	966103	38674	106808	0	0	8171	734688	0	0
2024-05-05 18:02:32			0	34365	0	0	0	18688	17330	149823	27433	966059	38685	106810	0	0	8170	735219	0	0
2024-05-05 18:03:32			0	34382	0	0	0	18654	17330	149859	27649	966103	38696	106797	0	0	8172	734397	0	0
2024-05-05 18:04:32			0	34379	0	0	0	18646	17330	149887	27568	966111	38685	106794	0	0	8172	734542	0	0
2024-05-05 18:05:32			0	34330	0	0	0	18662	17320	149878	27265	965989	38684	106800	0	0	8169	736954	0	0
2024-05-05 18:06:32			0	34348	0	0	0	18683	17320	149923	27457	966113	38683	106808	0	0	8169	736082	0	0
2024-05-05 18:07:32			0	34338	0	0	0	18683	17310	149986	27828	966052	38683	106808	0	0	8169	736606	0	0
2024-05-05 18:08:32			0	34334	0	0	0	18683	17330	149898	27341	965998	38685	106808	0	0	8169	736720	0	0
2024-05-05 18:09:32			0	34366	0	0	0	18662	17320	149915	27692	966042	38695	106800	0	0	8171	735211	0	0
2024-05-05 18:10:32			0	34357	0	0	0	18649	17320	150007	27421	966034	38694	106795	0	0	8170	735646	0	0
2024-05-05 18:11:32			0	34355	0	0	0	18641	17320	149930	27026	965981	38694	106792	0	0	8170	735743	0	0
2024-05-05 18:12:32			0	34336	0	0	0	18641	17320	150014	27443	965981	38683	106792	0	0	8169	736663	0	0
2024-05-05 18:13:32			0	34332	0	0	0	18620	17300	149974	27339	965904	38693	106784	0	0	8169	736937	0	0
2024-05-05 18:14:32			0	34299	0	0	0	18649	17290	150242	27445	965966	38681	106795	0	0	8167	738578	0	0
2024-05-05 18:15:32			0	34300	0	0	0	18698	17300	150402	27471	965975	38692	106814	0	0	8166	738489	0	0
2024-05-05 18:16:32			0	34319	0	0	0	18703	17300	150274	27334	966009	38693	106816	0	0	8167	737567	0	0
2024-05-05 18:17:32			0	34321	0	0	0	18690	17310	150254	27284	966026	38694	106811	0	0	8168	737430	0	0
2024-05-05 18:18:32			0	34302	0	0	0	18703	17310	150158	27436	966018	38694	106816	0	0	8166	738352	0	0
2024-05-05 18:19:32			0	34318	0	0	0	18696	17320	150158	27424	966087	38694	106813	0	0	8167	737536	0	0
2024-05-05 18:20:32			0	34330	0	0	0	18722	17320	150194	27433	966140	38683	106823	0	0	8168	736954	0	0
2024-05-05 18:21:32			0	34311	0	0	0	18716	17320	150086	27711	966087	38705	106821	0	0	8167	737875	0	0
2024-05-05 18:22:32			0	34309	0	0	0	18719	17320	150166	27601	966148	38706	106822	0	0	8166	737972	0	0
2024-05-05 18:23:32			0	34311	0	0	0	18711	17330	150238	27542	966156	38696	106819	0	0	8167	737835	0	0
2024-05-05 18:24:32			0	34295	0	0	0	18709	17320	150310	27878	966121	38684	106818	0	0	8166	738651	0	0
2024-05-05 18:25:32			0	34275	0	0	0	18716	17330	150322	28031	966130	38685	106821	0	0	8165	739583	0	0
2024-05-05 18:26:32			0	34292	0	0	0	18716	17340	150278	27440	966146	38697	106821	0	0	8166	738717	0	0
2024-05-05 18:27:32			0	34295	0	0	0	18685	17330	150294	27836	966138	38707	106809	0	0	8166	738611	0	0
2024-05-05 18:28:32			0	34274	0	0	0	18706	17330	150330	27694	966138	38685	106817	0	0	8165	739631	0	0
2024-05-05 18:29:32			0	34281	0	0	0	18709	17330	150254	27505	966138	38696	106818	0	0	8165	739291	0	0
2024-05-05 18:30:32			0	34269	0	0	0	18709	17340	150278	27436	966146	38686	106818	0	0	8164	739834	0	0
2024-05-05 18:31:32			0	34288	0	0	0	18701	17340	150302	27355	966172	38697	106815	0	0	8166	738911	0	0
2024-05-05 18:32:32			0	34274	0	0	0	18693	17330	150194	27737	966138	38707	106812	0	0	8165	739631	0	0
2024-05-05 18:33:32			0	34283	0	0	0	18680	17330	150270	27720	966111	38685	106807	0	0	8166	739194	0	0
2024-05-05 18:34:32			0	34292	0	0	0	18696	17330	150234	27623	966138	38674	106813	0	0	8166	738757	0	0
2024-05-05 18:35:32			0	34299	0	0	0	18690	17330	150206	27687	966130	38685	106811	0	0	8166	738417	0	0
2024-05-05 18:36:32			0	34297	0	0	0	18680	17330	150238	27365	966059	38696	106807	0	0	8166	738514	0	0
2024-05-05 18:37:32			0	34303	0	0	0	18675	17330	150162	27402	966050	38685	106805	0	0	8167	738223	0	0
2024-05-05 18:38:32			0	34304	0	0	0	18672	17330	150306	27654	966130	38696	106804	0	0	8167	738174	0	0
2024-05-05 18:39:32			0	34306	0	0	0	18672	17320	150098	27559	966087	38672	106804	0	0	8167	738118	0	0
2024-05-05 18:40:32			0	34289	0	0	0	18654	17320	150194	27692	966060	38672	106797	0	0	8166	738943	0	0
2024-05-05 18:41:32			0	34291	0	0	0	18657	17320	150298	27516	966008	38683	106798	0	0	8166	738846	0	0
2024-05-05 18:42:32			0	34256	0	0	0	18631	17320	150386	27234	966008	38694	106788	0	0	8165	740547	0	0
2024-05-05 18:43:32			0	34250	0	0	0	18615	17310	150606	27587	966018	38683	106782	0	0	8165	740879	0	0
2024-05-05 18:44:32			0	34228	0	0	0	18612	17300	150606	27590	965956	38671	106781	0	0	8164	741990	0	0
2024-05-05 18:45:32			0	34205	0	0	0	18602	17300	150630	27324	965895	38681	106777	0	0	8162	743111	0	0
2024-05-05 18:46:32			0	34170	0	0	0	18615	17300	150670	27777	965948	38681	106782	0	0	8160	744820	0	0
2024-05-05 18:47:32			0	34150	0	0	0	18597	17290	150946	27881	965826	38670	106775	0	0	8159	745838	0	0
2024-05-05 18:48:32			0	34146	0	0	0	18592	17280	150958	27769	965863	38668	106773	0	0	8159	746074	0	0
2024-05-05 18:49:32			0	34133	0	0	0	18597	17270	151022	27737	965828	38680	106775	0	0	8158	746751	0	0
2024-05-05 18:50:32			0	34138	0	0	0	18587	17280	150882	27523	965783	38668	106771	0	0	8159	746466	0	0
2024-05-05 18:51:32			0	34138	0	0	0	18599	17250	150930	27640	965769	38689	106776	0	0	8158	746587	0	0
2024-05-05 18:52:32			0	34165	0	0	0	18605	17260	150950	27528	965812	38679	106778	0	0	8160	745226	0	0
2024-05-05 18:53:32			0	34152	0	0	0	18594	17260	150910	27942	965777	38678	106774	0	0	8159	745862	0	0
2024-05-05 18:54:32			0	34155	0	0	0	18594	17260	150870	27744	965724	38667	106774	0	0	8159	745715	0	0
2024-05-05 18:55:32			0	34170	0	0	0	18579	17250	150870	27545	965734	38677	106768	0	0	8161	745022	0	0
2024-05-05 18:56:32			0	34155	0	0	0	18574	17250	150914	27597	965761	38677	106766	0	0	8160	745756	0	0
2024-05-05 18:57:32			0	34161	0	0	0	18579	17240	151018	27644	965700	38688	106768	0	0	8160	745503	0	0
2024-05-05 18:58:32			0	34149	0	0	0	18587	17240	150994	27431	965700	38688	106771	0	0	8159	746090	0	0
2024-05-05 18:59:32			0	34163	0	0	0	18599	17250	150938	27803	965734	38677	106776	0	0	8160	745365	0	0
2024-05-05 19:00:32			0	34154	0	0	0	18599	17240	150918	27743	965700	38688	106776	0	0	8159	745845	0	0
2024-05-05 19:01:32			0	34168	0	0	0	18584	17240	150890	27542	965638	38676	106770	0	0	8160	745160	0	0
2024-05-05 19:02:32			0	34153	0	0	0	18566	17240	150938	27757	965744	38698	106763	0	0	8160	745894	0	0
2024-05-05 19:03:32			0	34185	0	0	0	18571	17230	150850	27639	965648	38665	106765	0	0	8161	744370	0	0
2024-05-05 19:04:32			0	34158	0	0	0	18576	17230	150866	27939	965648	38687	106767	0	0	8160	745690	0	0
2024-05-05 19:05:32			0	34167	0	0	0	18581	17230	150870	27524	965648	38687	106769	0	0	8160	745250	0	0
2024-05-05 19:06:32			0	34164	0	0	0	18579	17230	150742	27355	965656	38665	106768	0	0	8160	745396	0	0
2024-05-05 19:07:32			0	34178	0	0	0	18579	17220	150942	27647	965632	38686	106768	0	0	8161	744753	0	0
2024-05-05 19:08:32			0	34168	0	0	0	18571	17210	150826	27367	965668	38685	106765	0	0	8160	745282	0	0
2024-05-05 19:09:32			0	34182	0	0	0	18568	17210	150798	27263	965650	38685	106764	0	0	8161	744598	0	0
2024-05-05 19:10:32			0	34176	0	0	0	18571	17210	150834	27255	965597	38685	106765	0	0	8161	744891	0	0
2024-05-05 19:11:32			0	34184	0	0	0	18568	17200	150798	27168	965572	38651	106764	0	0	8161	744540	0	0
2024-05-05 19:12:32			0	34189	0	0	0	18576	17200	150738	27253	965607	38673	106767	0	0	8161	744296	0	0
2024-05-05 19:13:32			0	34199	0	0	0	18571	17200	150722	27499	965607	38663	106765	0	0	8162	743808	0	0
2024-05-05 19:14:32			0	34205	0	0	0	18584	17210	150658	27471	965668	38674	106770	0	0	8162	743475	0	0
2024-05-05 19:15:32			0	34205	0	0	0	18581	17210	150738	27684	965562	38685	106769	0	0	8162	743475	0	0
2024-05-05 19:16:32			0	34226	0	0	0	18571	17200	150610	27357	965572	38684	106765	0	0	8164	742491	0	0
2024-05-05 19:17:32			0	34216	0	0	0	18579	17200	150646	27263	965554	38684	106768	0	0	8163	742978	0	0
2024-05-05 19:18:32			0	34216	0	0	0	18576	17200	150626	27685	965581	38673	106767	0	0	8163	742978	0	0
2024-05-05 19:19:32			0	34240	0	0	0	18571	17200	150622	27554	965652	38684	106765	0	0	8164	741808	0	0
2024-05-05 19:20:32			0	34230	0	0	0	18579	17200	150606	27422	965572	38673	106768	0	0	8164	742296	0	0
2024-05-05 19:21:32			0	34204	0	0	0	18581	17200	150698	27417	965572	38673	106769	0	0	8162	743564	0	0
2024-05-05 19:22:32			0	34214	0	0	0	18579	17200	150778	27433	965660	38684	106768	0	0	8163	743076	0	0
2024-05-05 19:23:32			0	34178	0	0	0	18615	17200	150838	27656	965581	38684	106782	0	0	8160	744834	0	0
2024-05-05 19:24:32			0	34194	0	0	0	18646	17210	150782	27429	965668	38696	106794	0	0	8161	744012	0	0
2024-05-05 19:25:32			0	34192	0	0	0	18664	17210	150830	27639	965756	38696	106801	0	0	8160	744109	0	0
2024-05-05 19:26:32			0	34216	0	0	0	18657	17230	150722	27331	965833	38708	106798	0	0	8162	742857	0	0
2024-05-05 19:27:32			0	34248	0	0	0	18620	17240	150542	27583	965744	38687	106784	0	0	8164	741258	0	0
2024-05-05 19:28:32			0	34254	0	0	0	18587	17240	150530	27540	965797	38687	106771	0	0	8165	740966	0	0
2024-05-05 19:29:32			0	34258	0	0	0	18579	17230	150474	27412	965762	38687	106768	0	0	8165	740811	0	0
2024-05-05 19:30:32			0	34254	0	0	0	18579	17220	150454	27483	965693	38674	106768	0	0	8165	741046	0	0
2024-05-05 19:31:32			0	34257	0	0	0	18561	17210	150498	27578	965676	38664	106761	0	0	8166	740940	0	0
2024-05-05 19:32:32			0	34249	0	0	0	18550	17220	150514	27514	965614	38674	106757	0	0	8165	741290	0	0
2024-05-05 19:33:32			0	34261	0	0	0	18558	17200	150518	27689	965572	38684	106760	0	0	8166	740786	0	0
2024-05-05 19:34:32			0	34259	0	0	0	18550	17200	150486	27526	965581	38695	106757	0	0	8166	740883	0	0
2024-05-05 19:35:32			0	34235	0	0	0	18550	17190	150510	27656	965591	38672	106757	0	0	8164	742092	0	0
2024-05-05 19:36:32			0	34228	0	0	0	18558	17200	150562	27549	965546	38673	106760	0	0	8164	742393	0	0
2024-05-05 19:37:32			0	34235	0	0	0	18553	17200	150546	27701	965520	38663	106758	0	0	8164	742052	0	0
2024-05-05 19:38:32			0	34214	0	0	0	18545	17190	150670	27310	965503	38683	106755	0	0	8163	743116	0	0
2024-05-05 19:39:32			0	34213	0	0	0	18550	17170	150718	27573	965479	38670	106757	0	0	8163	743246	0	0
2024-05-05 19:40:32			0	34217	0	0	0	18545	17180	150762	27369	965469	38671	106755	0	0	8163	743010	0	0
2024-05-05 19:41:32			0	34206	0	0	0	18527	17180	150870	27409	965487	38661	106748	0	0	8163	743547	0	0
2024-05-05 19:42:32			0	34202	0	0	0	18535	17180	150830	27583	965434	38671	106751	0	0	8163	743742	0	0
2024-05-05 19:43:32			0	34217	0	0	0	18514	17170	150698	27452	965452	38681	106743	0	0	8164	743051	0	0
2024-05-05 19:44:32			0	34205	0	0	0	18511	17170	150730	27861	965505	38670	106742	0	0	8163	743636	0	0
2024-05-05 19:45:32			0	34194	0	0	0	18503	17170	150806	27433	965470	38670	106739	0	0	8163	744173	0	0
2024-05-05 19:46:32			0	34195	0	0	0	18503	17160	150838	27552	965383	38669	106739	0	0	8163	744165	0	0
2024-05-05 19:47:32			0	34185	0	0	0	18514	17160	150774	27377	965375	38658	106743	0	0	8162	744653	0	0
2024-05-05 19:48:32			0	34182	0	0	0	18516	17150	150810	27467	965393	38691	106744	0	0	8162	744840	0	0
2024-05-05 19:49:32			0	34188	0	0	0	18511	17150	150850	27265	965393	38647	106742	0	0	8162	744547	0	0
2024-05-05 19:50:32			0	34181	0	0	0	18511	17140	150830	27138	965377	38658	106742	0	0	8162	744930	0	0
2024-05-05 19:51:32			0	34177	0	0	0	18514	17150	150870	27310	965358	38658	106743	0	0	8162	745085	0	0
2024-05-05 19:52:32			0	34217	0	0	0	18511	17150	150882	27381	965332	38680	106742	0	0	8164	743131	0	0
2024-05-05 19:53:32			0	34191	0	0	0	18506	17140	150818	27319	965377	38668	106740	0	0	8162	744441	0	0
2024-05-05 19:54:32			0	34187	0	0	0	18503	17140	150930	27405	965316	38667	106739	0	0	8162	744636	0	0
2024-05-05 19:55:32			0	34175	0	0	0	18503	17140	150914	27585	965297	38690	106739	0	0	8162	745223	0	0
2024-05-05 19:56:32			0	34156	0	0	0	18501	17130	151010	27573	965334	38667	106738	0	0	8160	746193	0	0
2024-05-05 19:57:32			0	34155	0	0	0	18490	17140	151086	27576	965289	38667	106734	0	0	8161	746201	0	0
2024-05-05 19:58:32			0	34137	0	0	0	18498	17140	151098	27156	965289	38657	106737	0	0	8160	747083	0	0
2024-05-05 19:59:32			0	34113	0	0	0	18493	17130	151106	27575	965299	38666	106735	0	0	8158	748300	0	0
2024-05-05 20:00:32			0	34101	0	0	0	18493	17130	151206	27272	965273	38677	106735	0	0	8157	748888	0	0
2024-05-05 20:01:32			0	34121	0	0	0	18485	17130	151222	27140	965326	38677	106732	0	0	8159	747907	0	0
2024-05-05 20:02:32			0	34104	0	0	0	18483	17130	151266	27377	965220	38677	106731	0	0	8158	748741	0	0
2024-05-05 20:03:32			0	34103	0	0	0	18490	17120	151178	27519	965256	38666	106734	0	0	8158	748831	0	0
2024-05-05 20:04:32			0	34110	0	0	0	18490	17110	151310	27376	965274	38666	106734	0	0	8158	748528	0	0
2024-05-05 20:05:32			0	34100	0	0	0	18490	17120	151370	27225	965256	38666	106734	0	0	8157	748978	0	0
2024-05-05 20:06:32			0	34092	0	0	0	18496	17120	151334	27607	965238	38677	106736	0	0	8157	749371	0	0
2024-05-05 20:07:32			0	34098	0	0	0	18480	17110	151354	27464	965240	38687	106730	0	0	8157	749117	0	0
2024-05-05 20:08:32			0	34094	0	0	0	18485	17120	151394	27239	965256	38676	106732	0	0	8157	749273	0	0
2024-05-05 20:09:32			0	34086	0	0	0	18493	17110	151306	27545	965195	38655	106735	0	0	8157	749706	0	0
2024-05-05 20:10:32			0	34088	0	0	0	18511	17110	151290	27286	965195	38676	106742	0	0	8156	749608	0	0
2024-05-05 20:11:32			0	34128	0	0	0	18506	17110	151306	27391	965327	38676	106740	0	0	8159	747645	0	0
2024-05-05 20:12:32			0	34113	0	0	0	18503	17120	151282	27286	965317	38677	106739	0	0	8158	748340	0	0
2024-05-05 20:13:32			0	34106	0	0	0	18519	17110	151310	27313	965266	38675	106745	0	0	8157	748724	0	0
2024-05-05 20:14:32			0	34084	0	0	0	18516	17120	151434	27353	965309	38676	106744	0	0	8156	749764	0	0
2024-05-05 20:15:32			0	34085	0	0	0	18514	17120	151338	27206	965362	38687	106743	0	0	8156	749715	0	0
2024-05-05 20:16:32			0	34057	0	0	0	18529	17120	151446	27131	965344	38677	106749	0	0	8154	751091	0	0
2024-05-05 20:17:32			0	34059	0	0	0	18527	17130	151542	27538	965352	38666	106748	0	0	8154	750952	0	0
2024-05-05 20:18:32			0	34052	0	0	0	18516	17130	151442	27329	965387	38678	106744	0	0	8154	751297	0	0
2024-05-05 20:19:32			0	34037	0	0	0	18519	17130	151474	27469	965326	38666	106745	0	0	8153	752035	0	0
2024-05-05 20:20:32			0	34060	0	0	0	18527	17130	151510	27409	965360	38678	106748	0	0	8155	750903	0	0
2024-05-05 20:21:32			0	34067	0	0	0	18506	17120	151486	27298	965309	38666	106740	0	0	8155	750599	0	0
2024-05-05 20:22:32			0	34064	0	0	0	18532	17120	151530	27235	965370	38666	106750	0	0	8155	750747	0	0
2024-05-05 20:23:32			0	34052	0	0	0	18532	17130	151554	27417	965387	38667	106750	0	0	8154	751297	0	0
2024-05-05 20:24:32			0	34033	0	0	0	18524	17140	151534	27280	965395	38678	106747	0	0	8153	752191	0	0
2024-05-05 20:25:32			0	34026	0	0	0	18516	17130	151610	27483	965413	38667	106744	0	0	8153	752577	0	0
2024-05-05 20:26:32			0	34057	0	0	0	18529	17130	151546	27012	965413	38678	106749	0	0	8154	751050	0	0
2024-05-05 20:27:32			0	34051	0	0	0	18527	17140	151486	27371	965395	38678	106748	0	0	8154	751305	0	0
2024-05-05 20:28:32			0	34036	0	0	0	18537	17140	151562	27251	965421	38667	106752	0	0	8153	752043	0	0
2024-05-05 20:29:32			0	34029	0	0	0	18516	17140	151722	27140	965368	38689	106744	0	0	8153	752388	0	0
2024-05-05 20:30:32			0	34017	0	0	0	18511	17150	151706	27431	965411	38669	106742	0	0	8152	752939	0	0
2024-05-05 20:31:32			0	34030	0	0	0	18501	17140	151638	27454	965368	38689	106738	0	0	8153	752339	0	0
2024-05-05 20:32:32			0	34009	0	0	0	18490	17130	151602	27395	965360	38678	106734	0	0	8152	753415	0	0
2024-05-05 20:33:32			0	34018	0	0	0	18459	17140	151686	27329	965368	38678	106722	0	0	8153	752930	0	0
2024-05-05 20:34:32			0	34029	0	0	0	18449	17130	151590	27251	965299	38677	106718	0	0	8154	752429	0	0
2024-05-05 20:35:32			0	34030	0	0	0	18444	17130	151642	27203	965246	38656	106716	0	0	8154	752380	0	0
2024-05-05 20:36:32			0	34017	0	0	0	18451	17120	151638	27421	965265	38645	106719	0	0	8153	753061	0	0
2024-05-05 20:37:32			0	34020	0	0	0	18415	17110	151570	27227	965169	38676	106705	0	0	8154	752954	0	0
2024-05-05 20:38:32			0	34049	0	0	0	18451	17100	151482	27523	965152	38654	106719	0	0	8155	751566	0	0
2024-05-05 20:39:32			0	34035	0	0	0	18444	17110	151674	27192	965134	38675	106716	0	0	8154	752215	0	0
2024-05-05 20:40:32			0	34053	0	0	0	18428	17100	151538	27355	965170	38675	106710	0	0	8156	751370	0	0
2024-05-05 20:41:32			0	34054	0	0	0	18425	17090	151482	27102	965109	38664	106709	0	0	8156	751361	0	0
2024-05-05 20:42:32			0	34065	0	0	0	18418	17090	151406	27244	965057	38664	106706	0	0	8156	750820	0	0
2024-05-05 20:43:32			0	34079	0	0	0	18420	17090	151398	27331	965109	38664	106707	0	0	8157	750132	0	0
2024-05-05 20:44:32			0	34063	0	0	0	18431	17080	151358	27031	965058	38663	106711	0	0	8156	750959	0	0
2024-05-05 20:45:32			0	34066	0	0	0	18420	17070	151426	27301	965076	38651	106707	0	0	8156	750852	0	0
2024-05-05 20:46:32			0	34063	0	0	0	18410	17070	151390	27384	965016	38662	106703	0	0	8156	751000	0	0
2024-05-05 20:47:32			0	34051	0	0	0	18415	17070	151498	27204	965042	38662	106705	0	0	8156	751590	0	0
2024-05-05 20:48:32			0	34041	0	0	0	18407	17060	151506	27287	965060	38662	106702	0	0	8155	752123	0	0
2024-05-05 20:49:32			0	34037	0	0	0	18399	17060	151578	27339	965007	38672	106699	0	0	8155	752321	0	0
2024-05-05 20:50:32			0	34038	0	0	0	18394	17050	151586	27036	965017	38649	106697	0	0	8155	752312	0	0
2024-05-05 20:51:32			0	33988	0	0	0	18389	17040	151690	27055	964895	38649	106695	0	0	8152	754819	0	0
2024-05-05 20:52:32			0	33983	0	0	0	18379	17050	151854	27085	964877	38649	106691	0	0	8152	755025	0	0
2024-05-05 20:53:32			0	33965	0	0	0	18381	17050	151986	27194	964983	38649	106692	0	0	8151	755915	0	0
2024-05-05 20:54:32			0	33931	0	0	0	18392	17040	152070	27454	964869	38660	106696	0	0	8149	757639	0	0
2024-05-05 20:55:32			0	33909	0	0	0	18386	17030	152142	27326	964879	38647	106694	0	0	8148	758771	0	0
2024-05-05 20:56:32			0	33902	0	0	0	18379	17040	152254	27263	964843	38660	106691	0	0	8147	759077	0	0
2024-05-05 20:57:32			0	33878	0	0	0	18384	17030	152274	27345	964932	38647	106693	0	0	8146	760309	0	0
2024-05-05 20:58:32			0	33867	0	0	0	18368	17030	152422	27507	964747	38647	106687	0	0	8146	760856	0	0
2024-05-05 20:59:32			0	33866	0	0	0	18361	17020	152326	27352	964889	38635	106684	0	0	8146	760947	0	0
2024-05-05 21:00:32			0	33855	0	0	0	18361	17010	152442	27180	964854	38658	106684	0	0	8145	761535	0	0
2024-05-05 21:01:32			0	33861	0	0	0	18366	17010	152454	27145	964749	38646	106686	0	0	8145	761237	0	0
2024-05-05 21:02:32			0	33846	0	0	0	18350	17000	152414	27339	964759	38656	106680	0	0	8145	762024	0	0
2024-05-05 21:03:32			0	33846	0	0	0	18350	17000	152550	27270	964732	38656	106680	0	0	8145	762024	0	0
2024-05-05 21:04:32			0	33835	0	0	0	18348	17000	152574	27374	964864	38656	106679	0	0	8144	762572	0	0
2024-05-05 21:05:32			0	33854	0	0	0	18353	16990	152530	27182	964760	38644	106681	0	0	8145	761668	0	0
2024-05-05 21:06:32			0	33838	0	0	0	18350	17000	152526	26932	964679	38656	106680	0	0	8144	762423	0	0
2024-05-05 21:07:32			0	33831	0	0	0	18350	16990	152666	27372	964707	38655	106680	0	0	8144	762813	0	0
2024-05-05 21:08:32			0	33826	0	0	0	18397	16990	152586	27218	964769	38645	106698	0	0	8143	763062	0	0
2024-05-05 21:09:32			0	33841	0	0	0	18420	17000	152666	27183	964759	38666	106707	0	0	8143	762273	0	0
2024-05-05 21:10:32			0	33849	0	0	0	18397	17000	152574	27614	964856	38666	106698	0	0	8144	761875	0	0
2024-05-05 21:11:32			0	33843	0	0	0	18405	17010	152602	27305	964820	38667	106701	0	0	8143	762133	0	0
2024-05-05 21:12:32			0	33838	0	0	0	18384	17000	152586	27386	964856	38666	106693	0	0	8143	762423	0	0
2024-05-05 21:13:32			0	33826	0	0	0	18436	17010	152626	27284	964899	38678	106713	0	0	8142	762979	0	0
2024-05-05 21:14:32			0	33834	0	0	0	18459	17020	152562	27407	964968	38658	106722	0	0	8142	762539	0	0
2024-05-05 21:15:32			0	33824	0	0	0	18451	17020	152734	27552	964976	38679	106719	0	0	8142	763037	0	0
2024-05-05 21:16:32			0	33839	0	0	0	18459	17020	152602	27402	965003	38668	106722	0	0	8142	762290	0	0
2024-05-05 21:17:32			0	33838	0	0	0	18457	17040	152594	27490	965027	38670	106721	0	0	8142	762257	0	0
2024-05-05 21:18:32			0	33829	0	0	0	18454	17030	152586	27476	965072	38669	106720	0	0	8142	762747	0	0
2024-05-05 21:19:32			0	33822	0	0	0	18454	17050	152706	27479	965035	38670	106720	0	0	8142	763013	0	0
2024-05-05 21:20:32			0	33819	0	0	0	18454	17040	152614	27215	965080	38660	106720	0	0	8141	763203	0	0
2024-05-05 21:21:32			0	33819	0	0	0	18444	17050	152626	27282	965009	38649	106716	0	0	8142	763162	0	0
2024-05-05 21:22:32			0	33825	0	0	0	18451	17050	152614	27317	965062	38670	106719	0	0	8142	762863	0	0
2024-05-05 21:23:32			0	33833	0	0	0	18449	17050	152638	27377	965062	38660	106718	0	0	8142	762465	0	0
2024-05-05 21:24:32			0	33824	0	0	0	18441	17060	152630	27607	965025	38671	106715	0	0	8142	762872	0	0
2024-05-05 21:25:32			0	33821	0	0	0	18449	17050	152646	27566	965035	38670	106718	0	0	8142	763062	0	0
2024-05-05 21:26:32			0	33839	0	0	0	18446	17060	152522	27362	965052	38671	106717	0	0	8143	762125	0	0
2024-05-05 21:27:32			0	33848	0	0	0	18438	17050	152490	27241	965044	38660	106714	0	0	8143	761718	0	0
2024-05-05 21:28:32			0	33864	0	0	0	18446	17060	152486	27293	965078	38671	106717	0	0	8144	760881	0	0
2024-05-05 21:29:32			0	33864	0	0	0	18444	17060	152546	27412	965025	38671	106716	0	0	8144	760881	0	0
2024-05-05 21:30:32			0	33843	0	0	0	18436	17050	152502	27750	965009	38681	106713	0	0	8143	761967	0	0
2024-05-05 21:31:32			0	33824	0	0	0	18446	17050	152602	27481	965035	38670	106717	0	0	8142	762913	0	0
2024-05-05 21:32:32			0	33846	0	0	0	18454	17050	152602	27242	965096	38670	106720	0	0	8143	761818	0	0
2024-05-05 21:33:32			0	33845	0	0	0	18446	17050	152702	27149	965035	38649	106717	0	0	8143	761867	0	0
2024-05-05 21:34:32			0	33850	0	0	0	18449	17050	152542	27509	965096	38670	106718	0	0	8143	761619	0	0
2024-05-05 21:35:32			0	33862	0	0	0	18454	17060	152566	27315	965052	38661	106720	0	0	8144	760981	0	0
2024-05-05 21:36:32			0	33860	0	0	0	18457	17070	152514	27310	965121	38662	106721	0	0	8144	761039	0	0
2024-05-05 21:37:32			0	33857	0	0	0	18462	17060	152502	27263	965052	38682	106723	0	0	8144	761229	0	0
2024-05-05 21:38:32			0	33838	0	0	0	18454	17050	152586	27433	965096	38670	106720	0	0	8143	762216	0	0
2024-05-05 21:39:32			0	33845	0	0	0	18464	17060	152530	27391	965052	38682	106724	0	0	8143	761826	0	0
2024-05-05 21:40:32			0	33859	0	0	0	18464	17060	152530	27414	965086	38662	106724	0	0	8144	761130	0	0
2024-05-05 21:41:32			0	33861	0	0	0	18464	17080	152538	27419	965138	38673	106724	0	0	8144	760948	0	0
2024-05-05 21:42:32			0	33849	0	0	0	18462	17060	152450	27616	965052	38671	106723	0	0	8143	761627	0	0
2024-05-05 21:43:32			0	33853	0	0	0	18470	17070	152394	27351	965095	38683	106726	0	0	8143	761387	0	0
2024-05-05 21:44:32			0	33852	0	0	0	18467	17070	152470	27422	965095	38662	106725	0	0	8143	761436	0	0
2024-05-05 21:45:32			0	33860	0	0	0	18472	17070	152574	27360	965174	38672	106727	0	0	8144	761039	0	0
2024-05-05 21:46:32			0	33852	0	0	0	18472	17080	152614	27516	965190	38684	106727	0	0	8143	761395	0	0
2024-05-05 21:47:32			0	33863	0	0	0	18472	17070	152550	27562	965174	38672	106727	0	0	8144	760890	0	0
2024-05-05 21:48:32			0	33863	0	0	0	18483	17080	152462	27441	965199	38674	106731	0	0	8144	760848	0	0
2024-05-05 21:49:32			0	33872	0	0	0	18472	17080	152470	27578	965172	38664	106727	0	0	8144	760401	0	0
2024-05-05 21:50:32			0	33857	0	0	0	18477	17080	152446	27365	965138	38673	106729	0	0	8143	761147	0	0
2024-05-05 21:51:32			0	33851	0	0	0	18480	17080	152386	27177	965199	38664	106730	0	0	8143	761445	0	0
2024-05-05 21:52:32			0	33856	0	0	0	18485	17070	152402	27519	965182	38672	106732	0	0	8143	761238	0	0
2024-05-05 21:53:32			0	33876	0	0	0	18477	17080	152430	27187	965146	38674	106729	0	0	8144	760203	0	0
2024-05-05 21:54:32			0	33864	0	0	0	18467	17080	152482	27277	965190	38684	106725	0	0	8144	760799	0	0
2024-05-05 21:55:32			0	33844	0	0	0	18485	17080	152418	27654	965217	38673	106732	0	0	8142	761793	0	0
2024-05-05 21:56:32			0	33842	0	0	0	18477	17090	152434	27481	965207	38674	106729	0	0	8143	761851	0	0
2024-05-05 21:57:32			0	33856	0	0	0	18475	17080	152478	27559	965199	38674	106728	0	0	8143	761196	0	0
2024-05-05 21:58:32			0	33862	0	0	0	18480	17070	152314	27568	965156	38672	106730	0	0	8144	760939	0	0
2024-05-05 21:59:32			0	33865	0	0	0	18480	17080	152478	27438	965190	38673	106730	0	0	8144	760749	0	0
2024-05-05 22:00:32			0	33859	0	0	0	18485	17080	152490	27507	965172	38674	106732	0	0	8143	761047	0	0
2024-05-05 22:01:32			0	33851	0	0	0	18490	17090	152350	27137	965207	38674	106734	0	0	8143	761404	0	0
2024-05-05 22:02:32			0	33844	0	0	0	18485	17090	152490	27088	965207	38674	106732	0	0	8143	761752	0	0
2024-05-05 22:03:32			0	33856	0	0	0	18501	17090	152578	27244	965215	38674	106738	0	0	8143	761155	0	0
2024-05-05 22:04:32			0	33849	0	0	0	18483	17090	152554	27549	965260	38674	106731	0	0	8143	761503	0	0
2024-05-05 22:05:32			0	33836	0	0	0	18506	17090	152566	27322	965233	38685	106740	0	0	8142	762150	0	0
2024-05-05 22:06:32			0	33823	0	0	0	18496	17090	152642	27448	965215	38674	106736	0	0	8141	762797	0	0
2024-05-05 22:07:32			0	33817	0	0	0	18498	17100	152642	27371	965250	38675	106737	0	0	8141	763055	0	0
2024-05-05 22:08:32			0	33833	0	0	0	18496	17090	152646	27253	965233	38674	106736	0	0	8142	762299	0	0
2024-05-05 22:09:32			0	33812	0	0	0	18498	17100	152706	27244	965250	38675	106737	0	0	8141	763304	0	0
2024-05-05 22:10:32			0	33821	0	0	0	18506	17090	152678	27095	965215	38685	106740	0	0	8141	762897	0	0
2024-05-05 22:11:32			0	33811	0	0	0	18506	17100	152638	27436	965284	38675	106740	0	0	8140	763354	0	0
2024-05-05 22:12:32			0	33827	0	0	0	18503	17110	152670	27208	965266	38675	106739	0	0	8141	762515	0	0
2024-05-05 22:13:32			0	33817	0	0	0	18496	17100	152686	27334	965302	38675	106736	0	0	8141	763055	0	0
2024-05-05 22:14:32			0	33821	0	0	0	18511	17100	152618	27517	965284	38675	106742	0	0	8141	762855	0	0
2024-05-05 22:15:32			0	33823	0	0	0	18496	17110	152670	27244	965266	38665	106736	0	0	8141	762714	0	0
2024-05-05 22:16:32			0	33794	0	0	0	18498	17100	152658	27100	965284	38687	106737	0	0	8139	764201	0	0
2024-05-05 22:17:32			0	33793	0	0	0	18496	17100	152730	27274	965231	38675	106736	0	0	8139	764251	0	0
2024-05-05 22:18:32			0	33786	0	0	0	18490	17100	152694	27268	965337	38675	106734	0	0	8139	764600	0	0
2024-05-05 22:19:32			0	33799	0	0	0	18496	17100	152738	26944	965197	38675	106736	0	0	8140	763952	0	0
2024-05-05 22:20:32			0	33758	0	0	0	18483	17090	152802	27242	965321	38685	106731	0	0	8138	766040	0	0
2024-05-05 22:21:32			0	33763	0	0	0	18480	17100	152814	27013	965231	38665	106730	0	0	8138	765749	0	0
2024-05-05 22:22:32			0	33779	0	0	0	18488	17100	152798	27324	965276	38675	106733	0	0	8139	764950	0	0
2024-05-05 22:23:32			0	33768	0	0	0	18488	17110	152762	27310	965240	38687	106733	0	0	8138	765457	0	0
2024-05-05 22:24:32			0	33772	0	0	0	18477	17090	152750	27216	965268	38674	106729	0	0	8138	765341	0	0
2024-05-05 22:25:32			0	33784	0	0	0	18485	17100	152862	27306	965231	38675	106732	0	0	8139	764700	0	0
2024-05-05 22:26:32			0	33784	0	0	0	18475	17100	152782	27303	965179	38675	106728	0	0	8139	764700	0	0
2024-05-05 22:27:32			0	33761	0	0	0	18475	17100	152778	27479	965250	38664	106728	0	0	8138	765848	0	0
2024-05-05 22:28:32			0	33765	0	0	0	18477	17100	152838	27289	965223	38675	106729	0	0	8138	765649	0	0
2024-05-05 22:29:32			0	33766	0	0	0	18472	17100	152810	27194	965197	38686	106727	0	0	8138	765599	0	0
2024-05-05 22:30:32			0	33765	0	0	0	18475	17090	152794	27194	965233	38674	106728	0	0	8138	765690	0	0
2024-05-05 22:31:32			0	33770	0	0	0	18472	17090	152894	27573	965233	38674	106727	0	0	8138	765440	0	0
2024-05-05 22:32:32			0	33751	0	0	0	18470	17090	152758	27701	965215	38685	106726	0	0	8137	766390	0	0
2024-05-05 22:33:32			0	33763	0	0	0	18470	17090	152814	27241	965189	38685	106726	0	0	8138	765790	0	0
2024-05-05 22:34:32			0	33761	0	0	0	18462	17090	152938	27441	965136	38674	106723	0	0	8138	765890	0	0
2024-05-05 22:35:32			0	33751	0	0	0	18459	17090	152966	27473	965215	38685	106722	0	0	8138	766390	0	0
2024-05-05 22:36:32			0	33726	0	0	0	18462	17080	152982	27421	965138	38673	106723	0	0	8136	767682	0	0
2024-05-05 22:37:32			0	33745	0	0	0	18462	17090	152974	27303	965180	38674	106723	0	0	8137	766690	0	0
2024-05-05 22:38:32			0	33745	0	0	0	18464	17080	153010	27109	965172	38664	106724	0	0	8137	766732	0	0
2024-05-05 22:39:32			0	33728	0	0	0	18462	17090	153066	27415	965101	38674	106723	0	0	8136	767540	0	0
2024-05-05 22:40:32			0	33735	0	0	0	18462	17080	153002	27692	965146	38685	106723	0	0	8137	767232	0	0
2024-05-05 22:41:32			0	33733	0	0	0	18459	17080	153082	27381	965172	38664	106722	0	0	8136	767332	0	0
2024-05-05 22:42:32			0	33736	0	0	0	18454	17080	153090	27481	965138	38673	106720	0	0	8137	767182	0	0
2024-05-05 22:43:32			0	33719	0	0	0	18451	17080	153174	27163	965172	38674	106719	0	0	8136	768033	0	0
2024-05-05 22:44:32			0	33726	0	0	0	18449	17080	153110	27232	965164	38673	106718	0	0	8136	767682	0	0
2024-05-05 22:45:32			0	33720	0	0	0	18467	17070	153098	27350	965076	38672	106725	0	0	8136	768024	0	0
2024-05-05 22:46:32			0	33732	0	0	0	18451	17080	153050	27623	965119	38674	106719	0	0	8137	767382	0	0
2024-05-05 22:47:32			0	33701	0	0	0	18454	17080	153110	27544	965085	38673	106720	0	0	8135	768935	0	0
2024-05-05 22:48:32			0	33736	0	0	0	18454	17070	153006	27284	965095	38662	106720	0	0	8137	767223	0	0
2024-05-05 22:49:32			0	33718	0	0	0	18449	17080	153118	27230	965164	38673	106718	0	0	8136	768083	0	0
2024-05-05 22:50:32			0	33729	0	0	0	18459	17080	153110	27776	965190	38673	106722	0	0	8136	767532	0	0
2024-05-05 22:51:32			0	33720	0	0	0	18451	17060	153058	27220	965060	38651	106719	0	0	8136	768066	0	0
2024-05-05 22:52:32			0	33720	0	0	0	18454	17070	153102	27914	965208	38662	106720	0	0	8136	768024	0	0
2024-05-05 22:53:32			0	33703	0	0	0	18449	17070	153210	27360	965068	38683	106718	0	0	8135	768876	0	0
2024-05-05 22:54:32			0	33707	0	0	0	18449	17070	153198	27800	965121	38672	106718	0	0	8135	768675	0	0
2024-05-05 22:55:32			0	33692	0	0	0	18438	17070	153222	27556	965095	38672	106714	0	0	8134	769427	0	0
2024-05-05 22:56:32			0	33679	0	0	0	18446	17070	153174	27384	965095	38683	106717	0	0	8133	770080	0	0
2024-05-05 22:57:32			0	33695	0	0	0	18444	17070	153186	27237	965095	38683	106716	0	0	8134	769277	0	0
2024-05-05 22:58:32			0	33700	0	0	0	18444	17070	153210	27275	965076	38683	106716	0	0	8135	769026	0	0
2024-05-05 22:59:32			0	33686	0	0	0	18441	17060	153198	27400	965086	38662	106715	0	0	8134	769770	0	0
2024-05-05 23:00:32			0	33691	0	0	0	18444	17060	153282	27481	965086	38683	106716	0	0	8134	769519	0	0
2024-05-05 23:01:32			0	33646	0	0	0	18436	17060	153358	27611	965078	38661	106713	0	0	8132	771779	0	0
2024-05-05 23:02:32			0	33665	0	0	0	18436	17060	153430	27445	965034	38672	106713	0	0	8133	770824	0	0
2024-05-05 23:03:32			0	33644	0	0	0	18438	17060	153434	27512	965078	38661	106714	0	0	8131	771880	0	0
2024-05-05 23:04:32			0	33626	0	0	0	18428	17060	153558	27576	965078	38671	106710	0	0	8131	772785	0	0
2024-05-05 23:05:32			0	33630	0	0	0	18428	17050	153554	27263	965070	38660	106710	0	0	8131	772626	0	0
2024-05-05 23:06:32			0	33618	0	0	0	18415	17050	153566	27235	965044	38660	106705	0	0	8130	773230	0	0
2024-05-05 23:07:32			0	33614	0	0	0	18423	17050	153614	27384	965070	38670	106708	0	0	8130	773431	0	0
2024-05-05 23:08:32			0	33605	0	0	0	18412	17050	153626	27241	965009	38660	106704	0	0	8130	773885	0	0
2024-05-05 23:09:32			0	33589	0	0	0	18415	17030	153662	27443	965045	38669	106705	0	0	8129	774775	0	0
2024-05-05 23:10:32			0	33574	0	0	0	18420	17050	153794	27393	965009	38670	106707	0	0	8128	775448	0	0
2024-05-05 23:11:32			0	33566	0	0	0	18415	17050	153878	27371	965009	38681	106705	0	0	8127	775852	0	0
2024-05-05 23:12:32			0	33566	0	0	0	18410	17040	153906	27687	965027	38660	106703	0	0	8127	775894	0	0
2024-05-05 23:13:32			0	33545	0	0	0	18410	17040	153993	27421	965054	38670	106703	0	0	8126	776955	0	0
2024-05-05 23:14:32			0	33556	0	0	0	18407	17040	153885	27111	965001	38670	106702	0	0	8127	776399	0	0
2024-05-05 23:15:32			0	33543	0	0	0	18412	17050	153777	27393	964983	38670	106704	0	0	8126	777014	0	0
2024-05-05 23:16:32			0	33566	0	0	0	18407	17030	153841	27512	965011	38680	106702	0	0	8127	775936	0	0
2024-05-05 23:17:32			0	33555	0	0	0	18405	17040	153853	27346	964948	38660	106701	0	0	8127	776449	0	0
2024-05-05 23:18:32			0	33565	0	0	0	18415	17040	153809	27384	964974	38681	106705	0	0	8127	775944	0	0
2024-05-05 23:19:32			0	33546	0	0	0	18415	17030	153881	27274	964984	38680	106705	0	0	8126	776946	0	0
2024-05-05 23:20:32			0	33524	0	0	0	18407	17020	154081	27419	964923	38658	106702	0	0	8125	778101	0	0
2024-05-05 23:21:32			0	33519	0	0	0	18407	17020	154053	27197	964968	38668	106702	0	0	8124	778354	0	0
2024-05-05 23:22:32			0	33502	0	0	0	18412	17020	154197	27409	964950	38668	106704	0	0	8123	779215	0	0
2024-05-05 23:23:32			0	33483	0	0	0	18418	17040	154149	27450	964974	38670	106706	0	0	8122	780094	0	0
2024-05-05 23:24:32			0	33494	0	0	0	18412	17030	154193	27322	964932	38669	106704	0	0	8123	779579	0	0
2024-05-05 23:25:32			0	33451	0	0	0	18405	17020	154357	27668	964976	38679	106701	0	0	8120	781803	0	0
2024-05-05 23:26:32			0	33439	0	0	0	18407	17020	154409	27391	964923	38668	106702	0	0	8120	782413	0	0
2024-05-05 23:27:32			0	33442	0	0	0	18397	17020	154481	27339	965003	38668	106698	0	0	8120	782260	0	0
2024-05-05 23:28:32			0	33428	0	0	0	18399	17020	154529	27568	964915	38658	106699	0	0	8119	782972	0	0
2024-05-05 23:29:32			0	33391	0	0	0	18394	17030	154629	27286	964966	38669	106697	0	0	8117	784814	0	0
2024-05-05 23:30:32			0	33393	0	0	0	18399	17020	154689	27287	964915	38668	106699	0	0	8117	784754	0	0
2024-05-05 23:31:32			0	33384	0	0	0	18405	17020	154781	27324	964942	38668	106701	0	0	8117	785213	0	0
2024-05-05 23:32:32			0	33377	0	0	0	18397	17020	154593	27017	964950	38679	106698	0	0	8116	785570	0	0
2024-05-05 23:33:32			0	33390	0	0	0	18399	17020	154729	27241	964915	38668	106699	0	0	8117	784907	0	0
2024-05-05 23:34:32			0	33370	0	0	0	18394	17020	154773	27440	964950	38668	106697	0	0	8116	785927	0	0
2024-05-05 23:35:32			0	33367	0	0	0	18405	17020	154817	27575	964976	38668	106701	0	0	8115	786080	0	0
2024-05-05 23:36:32			0	33359	0	0	0	18394	17020	154773	27431	964968	38668	106697	0	0	8115	786488	0	0
2024-05-05 23:37:32			0	33382	0	0	0	18399	17020	154729	27175	964915	38679	106699	0	0	8116	785315	0	0
2024-05-05 23:38:32			0	33350	0	0	0	18402	17020	154817	27308	964968	38658	106700	0	0	8115	786948	0	0
2024-05-05 23:39:32			0	33350	0	0	0	18397	17020	154813	27154	964915	38658	106698	0	0	8115	786948	0	0
2024-05-05 23:40:32			0	33340	0	0	0	18397	17010	154809	27462	964907	38668	106698	0	0	8114	787502	0	0
2024-05-05 23:41:32			0	33328	0	0	0	18402	17000	154885	27255	964864	38677	106700	0	0	8113	788158	0	0
2024-05-05 23:42:32			0	33344	0	0	0	18415	17010	154893	27010	964907	38658	106705	0	0	8114	787297	0	0
2024-05-05 23:43:32			0	33375	0	0	0	18407	17010	154805	27222	964960	38679	106702	0	0	8116	785715	0	0
2024-05-05 23:44:32			0	33373	0	0	0	18412	17010	154737	27395	964854	38668	106704	0	0	8116	785817	0	0
2024-05-05 23:45:32			0	33381	0	0	0	18410	17020	154725	27211	964915	38668	106703	0	0	8116	785366	0	0
2024-05-05 23:46:32			0	33384	0	0	0	18418	17020	154681	27220	964942	38658	106706	0	0	8116	785213	0	0
2024-05-05 23:47:32			0	33410	0	0	0	18410	17010	154405	27315	964925	38667	106703	0	0	8118	783931	0	0
2024-05-05 23:48:32			0	33425	0	0	0	18412	17010	154473	27377	965039	38679	106704	0	0	8119	783167	0	0
2024-05-05 23:49:32			0	33431	0	0	0	18399	17010	154497	27395	964872	38667	106699	0	0	8119	782862	0	0
2024-05-05 23:50:32			0	33414	0	0	0	18410	17010	154549	27180	964933	38679	106703	0	0	8118	783727	0	0
2024-05-05 23:51:32			0	33399	0	0	0	18415	17000	154669	27332	964917	38666	106705	0	0	8117	784534	0	0
2024-05-05 23:52:32			0	33406	0	0	0	18415	17010	154665	27176	964952	38667	106705	0	0	8118	784134	0	0
2024-05-05 23:53:32			0	33409	0	0	0	18407	17010	154601	27355	964933	38658	106702	0	0	8118	783982	0	0
2024-05-05 23:54:32			0	33418	0	0	0	18405	17020	154481	27046	964950	38668	106701	0	0	8119	783481	0	0
2024-05-05 23:55:32			0	33424	0	0	0	18420	17020	154469	27166	964923	38679	106707	0	0	8119	783176	0	0
2024-05-05 23:56:32			0	33434	0	0	0	18410	17020	154505	27194	964942	38668	106703	0	0	8119	782667	0	0
2024-05-05 23:57:32			0	33443	0	0	0	18407	17020	154405	27218	964915	38679	106702	0	0	8120	782209	0	0
2024-05-05 23:58:32			0	33442	0	0	0	18410	17020	154281	27246	964968	38668	106703	0	0	8120	782260	0	0
2024-05-05 23:59:32			0	33450	0	0	0	18418	17020	154341	27180	964994	38679	106706	0	0	8120	781854	0	0
2024-05-06 00:00:32			0	33451	0	0	0	18410	17020	154277	27476	964915	38679	106703	0	0	8120	781803	0	0
2024-05-06 00:01:32			0	33450	0	0	0	18397	17010	154317	27055	964907	38668	106698	0	0	8121	781896	0	0
2024-05-06 00:02:32			0	33467	0	0	0	18410	17020	154437	27296	964976	38668	106703	0	0	8121	780990	0	0
2024-05-06 00:03:32			0	33464	0	0	0	18402	17020	154381	27353	964950	38658	106700	0	0	8121	781143	0	0
2024-05-06 00:04:32			0	33468	0	0	0	18402	17010	154353	27562	964960	38668	106700	0	0	8121	780982	0	0
2024-05-06 00:05:32			0	33452	0	0	0	18407	17010	154497	27185	964881	38679	106702	0	0	8120	781795	0	0
2024-05-06 00:06:32			0	33442	0	0	0	18407	17020	154417	27341	964968	38668	106702	0	0	8120	782260	0	0
2024-05-06 00:07:32			0	33440	0	0	0	18405	17020	154461	27284	964976	38668	106701	0	0	8120	782362	0	0
2024-05-06 00:08:32			0	33431	0	0	0	18394	17010	154501	27531	964952	38667	106697	0	0	8119	782862	0	0
2024-05-06 00:09:32			0	33432	0	0	0	18399	17020	154605	27357	964976	38679	106699	0	0	8119	782769	0	0
2024-05-06 00:10:32			0	33416	0	0	0	18397	17010	154545	27237	964881	38679	106698	0	0	8118	783625	0	0
2024-05-06 00:11:32			0	33400	0	0	0	18399	17010	154709	27367	964925	38667	106699	0	0	8118	784440	0	0
2024-05-06 00:12:32			0	33390	0	0	0	18399	17010	154801	27611	964933	38658	106699	0	0	8117	784950	0	0
2024-05-06 00:13:32			0	33375	0	0	0	18399	17020	154769	27523	964968	38679	106699	0	0	8116	785672	0	0
2024-05-06 00:14:32			0	33384	0	0	0	18399	17010	154821	27287	964933	38668	106699	0	0	8117	785256	0	0
2024-05-06 00:15:32			0	33384	0	0	0	18397	17010	154769	27400	964881	38679	106698	0	0	8117	785256	0	0
2024-05-06 00:16:32			0	33386	0	0	0	18392	17020	154753	27289	964942	38668	106696	0	0	8117	785111	0	0
2024-05-06 00:17:32			0	33393	0	0	0	18397	17010	154685	27267	964986	38658	106698	0	0	8117	784797	0	0
2024-05-06 00:18:32			0	33399	0	0	0	18402	17010	154685	27388	965004	38667	106700	0	0	8117	784491	0	0
2024-05-06 00:19:32			0	33400	0	0	0	18397	17010	154597	27225	964899	38667	106698	0	0	8118	784440	0	0
2024-05-06 00:20:32			0	33408	0	0	0	18394	17000	154593	27111	964917	38666	106697	0	0	8118	784075	0	0
2024-05-06 00:21:32			0	33401	0	0	0	18397	17010	154593	27218	964925	38667	106698	0	0	8118	784389	0	0
2024-05-06 00:22:32			0	33422	0	0	0	18397	17010	154589	27144	964907	38658	106698	0	0	8119	783320	0	0
2024-05-06 00:23:32			0	33418	0	0	0	18397	17000	154637	27336	964917	38677	106698	0	0	8119	783566	0	0
2024-05-06 00:24:32			0	33432	0	0	0	18394	17010	154549	27351	964907	38668	106697	0	0	8119	782811	0	0
2024-05-06 00:25:32			0	33448	0	0	0	18397	17010	154529	27168	964925	38678	106698	0	0	8120	781998	0	0
2024-05-06 00:26:32			0	33449	0	0	0	18397	17010	154493	27097	964960	38668	106698	0	0	8120	781947	0	0
2024-05-06 00:27:32			0	33435	0	0	0	18397	17020	154465	27152	964942	38679	106698	0	0	8120	782616	0	0
2024-05-06 00:28:32			0	33433	0	0	0	18397	17010	154385	27152	964899	38678	106698	0	0	8119	782760	0	0
2024-05-06 00:29:32			0	33451	0	0	0	18402	17010	154473	27455	964986	38679	106700	0	0	8120	781845	0	0
2024-05-06 00:30:32			0	33450	0	0	0	18394	17010	154405	27216	964925	38667	106697	0	0	8121	781896	0	0
2024-05-06 00:31:32			0	33444	0	0	0	18399	17010	154409	27253	964925	38678	106699	0	0	8120	782201	0	0
2024-05-06 00:32:32			0	33465	0	0	0	18394	17010	154281	27338	965004	38667	106697	0	0	8121	781134	0	0
2024-05-06 00:33:32			0	33464	0	0	0	18402	17010	154329	27263	964925	38667	106700	0	0	8121	781185	0	0
2024-05-06 00:34:32			0	33448	0	0	0	18394	17010	154437	27391	964899	38689	106697	0	0	8120	781998	0	0
2024-05-06 00:35:32			0	33460	0	0	0	18397	17000	154445	27022	964864	38656	106698	0	0	8121	781431	0	0
2024-05-06 00:36:32			0	33462	0	0	0	18397	17010	154425	27448	964978	38678	106698	0	0	8121	781286	0	0
2024-05-06 00:37:32			0	33426	0	0	0	18394	17010	154457	27460	964899	38667	106697	0	0	8119	783116	0	0
2024-05-06 00:38:32			0	33446	0	0	0	18402	17010	154569	27417	964952	38667	106700	0	0	8120	782099	0	0
2024-05-06 00:39:32			0	33462	0	0	0	18399	17000	154461	27511	964935	38666	106699	0	0	8121	781329	0	0
2024-05-06 00:40:32			0	33447	0	0	0	18394	17010	154457	27424	964899	38657	106697	0	0	8120	782049	0	0
2024-05-06 00:41:32			0	33450	0	0	0	18394	17010	154629	27234	964952	38657	106697	0	0	8121	781896	0	0
2024-05-06 00:42:32			0	33437	0	0	0	18394	17000	154405	27197	964935	38666	106697	0	0	8120	782599	0	0
2024-05-06 00:43:32			0	33416	0	0	0	18397	17000	154461	27154	964917	38666	106698	0	0	8118	783668	0	0
2024-05-06 00:44:32			0	33456	0	0	0	18394	17000	154533	27374	964943	38656	106697	0	0	8121	781634	0	0
2024-05-06 00:45:32			0	33433	0	0	0	18389	17000	154409	27516	964864	38666	106695	0	0	8120	782803	0	0
2024-05-06 00:46:32			0	33433	0	0	0	18379	17000	154473	27355	964909	38677	106691	0	0	8120	782803	0	0
2024-05-06 00:47:32			0	33441	0	0	0	18392	17000	154497	27601	964909	38677	106696	0	0	8120	782396	0	0
2024-05-06 00:48:32			0	33428	0	0	0	18397	17010	154525	27585	964933	38658	106698	0	0	8119	783015	0	0
2024-05-06 00:49:32			0	33435	0	0	0	18381	17000	154629	27531	964935	38666	106692	0	0	8120	782701	0	0
2024-05-06 00:50:32			0	33429	0	0	0	18386	16990	154569	27587	964901	38666	106694	0	0	8119	783049	0	0
2024-05-06 00:51:32			0	33430	0	0	0	18389	17010	154565	27519	964933	38668	106695	0	0	8119	782913	0	0
2024-05-06 00:52:32			0	33430	0	0	0	18392	17000	154621	27369	964943	38666	106696	0	0	8119	782955	0	0
2024-05-06 00:53:32			0	33435	0	0	0	18386	17000	154537	27114	964917	38677	106694	0	0	8120	782701	0	0
2024-05-06 00:54:32			0	33439	0	0	0	18376	17010	154545	27152	964933	38679	106690	0	0	8120	782455	0	0
2024-05-06 00:55:32			0	33430	0	0	0	18386	17010	154617	26961	964881	38690	106694	0	0	8120	782913	0	0
2024-05-06 00:56:32			0	33444	0	0	0	18389	16990	154589	27166	964901	38666	106695	0	0	8120	782286	0	0
2024-05-06 00:57:32			0	33413	0	0	0	18389	17000	154585	27312	964864	38677	106695	0	0	8118	783821	0	0
2024-05-06 00:58:32			0	33433	0	0	0	18384	17010	154609	27293	964872	38667	106693	0	0	8120	782760	0	0
2024-05-06 00:59:32			0	33416	0	0	0	18389	17000	154629	27351	964935	38666	106695	0	0	8119	783668	0	0
2024-05-06 01:00:32			0	33399	0	0	0	18384	17000	154769	26937	964917	38677	106693	0	0	8118	784534	0	0
2024-05-06 01:01:32			0	33392	0	0	0	18381	17000	154641	27561	964838	38677	106692	0	0	8117	784890	0	0
2024-05-06 01:02:32			0	33407	0	0	0	18366	17000	154645	27433	964891	38688	106686	0	0	8118	784126	0	0
2024-05-06 01:03:32			0	33384	0	0	0	18376	17000	154753	27293	964856	38666	106690	0	0	8117	785298	0	0
2024-05-06 01:04:32			0	33389	0	0	0	18379	16990	154793	27547	964821	38677	106691	0	0	8117	785086	0	0
2024-05-06 01:05:32			0	33370	0	0	0	18371	16990	154837	27248	964769	38666	106688	0	0	8116	786055	0	0
2024-05-06 01:06:32			0	33368	0	0	0	18371	16990	154857	27261	964786	38666	106688	0	0	8116	786157	0	0
2024-05-06 01:07:32			0	33354	0	0	0	18379	16990	155021	27171	964848	38677	106691	0	0	8115	786872	0	0
2024-05-06 01:08:32			0	33362	0	0	0	18374	16990	154869	27488	964848	38666	106689	0	0	8116	786463	0	0
2024-05-06 01:09:32			0	33385	0	0	0	18379	16990	154901	27246	964795	38677	106691	0	0	8117	785290	0	0
2024-05-06 01:10:32			0	33374	0	0	0	18366	17000	154857	27542	964882	38656	106686	0	0	8116	785808	0	0
2024-05-06 01:11:32			0	33385	0	0	0	18379	16990	154837	27376	964874	38666	106691	0	0	8117	785290	0	0
2024-05-06 01:12:32			0	33383	0	0	0	18381	16990	154777	27324	964866	38666	106692	0	0	8117	785392	0	0
2024-05-06 01:13:32			0	33379	0	0	0	18376	16990	154845	27428	964839	38655	106690	0	0	8117	785596	0	0
2024-05-06 01:14:32			0	33383	0	0	0	18374	17000	154837	27270	964803	38666	106689	0	0	8117	785349	0	0
2024-05-06 01:15:32			0	33393	0	0	0	18386	16990	154785	27443	964918	38655	106694	0	0	8117	784882	0	0
2024-05-06 01:16:32			0	33387	0	0	0	18374	16990	154797	27902	964769	38677	106689	0	0	8117	785188	0	0
2024-05-06 01:17:32			0	33390	0	0	0	18371	16980	154785	27492	964857	38654	106688	0	0	8117	785077	0	0
2024-05-06 01:18:32			0	33371	0	0	0	18374	16990	154857	27298	964813	38655	106689	0	0	8116	786004	0	0
2024-05-06 01:19:32			0	33359	0	0	0	18371	16990	154889	27540	964848	38666	106688	0	0	8115	786616	0	0
2024-05-06 01:20:32			0	33357	0	0	0	18374	16990	154941	27571	964866	38666	106689	0	0	8115	786719	0	0
2024-05-06 01:21:32			0	33363	0	0	0	18368	16980	154913	27355	964884	38665	106687	0	0	8116	786455	0	0
2024-05-06 01:22:32			0	33369	0	0	0	18371	16980	154933	27464	964831	38665	106688	0	0	8116	786149	0	0
2024-05-06 01:23:32			0	33376	0	0	0	18374	16990	154841	27317	964866	38666	106689	0	0	8116	785749	0	0
2024-05-06 01:24:32			0	33396	0	0	0	18379	16980	154881	27550	964805	38675	106691	0	0	8117	784772	0	0
2024-05-06 01:25:32			0	33387	0	0	0	18371	16990	154821	27691	964866	38676	106688	0	0	8117	785188	0	0
2024-05-06 01:26:32			0	33397	0	0	0	18371	16990	154881	27244	964866	38666	106688	0	0	8118	784678	0	0
2024-05-06 01:27:32			0	33412	0	0	0	18376	16980	154797	27431	964857	38665	106690	0	0	8118	783957	0	0
2024-05-06 01:28:32			0	33394	0	0	0	18363	16980	154829	27294	964796	38654	106685	0	0	8118	784873	0	0
2024-05-06 01:29:32			0	33374	0	0	0	18363	16980	154897	27280	964752	38665	106685	0	0	8116	785893	0	0
2024-05-06 01:30:32			0	33371	0	0	0	18368	16990	154849	27296	964866	38688	106687	0	0	8116	786004	0	0
2024-05-06 01:31:32			0	33395	0	0	0	18366	16980	154713	27576	964778	38654	106686	0	0	8118	784823	0	0
2024-05-06 01:32:32			0	33392	0	0	0	18371	16970	154857	27594	964841	38665	106688	0	0	8117	785018	0	0
2024-05-06 01:33:32			0	33397	0	0	0	18368	16970	154845	27296	964841	38675	106687	0	0	8118	784763	0	0
2024-05-06 01:34:32			0	33399	0	0	0	18368	16980	154729	27497	964744	38675	106687	0	0	8118	784619	0	0
2024-05-06 01:35:32			0	33372	0	0	0	18358	16980	154797	27352	964857	38665	106683	0	0	8116	785995	0	0
2024-05-06 01:36:32			0	33380	0	0	0	18358	16990	154857	27402	964813	38676	106683	0	0	8117	785545	0	0
2024-05-06 01:37:32			0	33390	0	0	0	18350	16980	154809	27582	964770	38675	106680	0	0	8118	785077	0	0
2024-05-06 01:38:32			0	33406	0	0	0	18355	16980	154797	27509	964805	38675	106682	0	0	8118	784262	0	0
2024-05-06 01:39:32			0	33392	0	0	0	18350	16980	154745	27104	964778	38665	106680	0	0	8118	784976	0	0
2024-05-06 01:40:32			0	33378	0	0	0	18355	16970	154885	27346	964683	38665	106682	0	0	8117	785732	0	0
2024-05-06 01:41:32			0	33376	0	0	0	18353	16970	154737	27357	964735	38665	106681	0	0	8117	785834	0	0
2024-05-06 01:42:32			0	33402	0	0	0	18350	16980	154805	27163	964796	38654	106680	0	0	8118	784466	0	0
2024-05-06 01:43:32			0	33393	0	0	0	18348	16960	154769	27268	964719	38674	106679	0	0	8118	785010	0	0
2024-05-06 01:44:32			0	33409	0	0	0	18340	16980	154805	27218	964778	38654	106676	0	0	8119	784109	0	0
2024-05-06 01:45:32			0	33416	0	0	0	18342	16970	154773	27717	964727	38675	106677	0	0	8119	783795	0	0
2024-05-06 01:46:32			0	33411	0	0	0	18335	16970	154805	27384	964806	38665	106674	0	0	8119	784050	0	0
2024-05-06 01:47:32			0	33431	0	0	0	18345	16980	154785	27417	964796	38665	106678	0	0	8120	782989	0	0
2024-05-06 01:48:32			0	33409	0	0	0	18348	16960	154737	27736	964719	38652	106679	0	0	8119	784194	0	0
2024-05-06 01:49:32			0	33405	0	0	0	18342	16970	154769	27281	964735	38675	106677	0	0	8119	784356	0	0
2024-05-06 01:50:32			0	33387	0	0	0	18337	16960	154741	27504	964772	38652	106675	0	0	8118	785315	0	0
2024-05-06 01:51:32			0	33370	0	0	0	18335	16960	154741	27462	964640	38674	106674	0	0	8117	786183	0	0
2024-05-06 01:52:32			0	33346	0	0	0	18337	16970	154853	27319	964675	38665	106675	0	0	8115	787366	0	0
2024-05-06 01:53:32			0	33345	0	0	0	18327	16970	154997	27481	964727	38665	106671	0	0	8115	787417	0	0
2024-05-06 01:54:32			0	33324	0	0	0	18324	16950	155077	27327	964668	38663	106670	0	0	8114	788576	0	0
2024-05-06 01:55:32			0	33319	0	0	0	18335	16960	155069	27126	964711	38663	106674	0	0	8114	788789	0	0
2024-05-06 01:56:32			0	33305	0	0	0	18324	16950	155085	27300	964650	38673	106670	0	0	8113	789549	0	0
2024-05-06 01:57:32			0	33308	0	0	0	18329	16950	155141	27696	964650	38673	106672	0	0	8113	789395	0	0
2024-05-06 01:58:32			0	33305	0	0	0	18327	16950	155185	27274	964650	38652	106671	0	0	8113	789549	0	0
2024-05-06 01:59:32			0	33306	0	0	0	18322	16940	155037	27462	964581	38662	106669	0	0	8113	789541	0	0
2024-05-06 02:00:32			0	33316	0	0	0	18322	16960	155069	27732	964658	38663	106669	0	0	8114	788943	0	0
2024-05-06 02:01:32			0	33311	0	0	0	18327	16950	155221	27286	964615	38673	106671	0	0	8113	789242	0	0
2024-05-06 02:02:32			0	33310	0	0	0	18311	16950	155229	27542	964597	38684	106665	0	0	8113	789293	0	0
2024-05-06 02:03:32			0	33304	0	0	0	18306	16950	155149	27571	964589	38673	106663	0	0	8113	789600	0	0
2024-05-06 02:04:32			0	33295	0	0	0	18309	16940	155293	27493	964581	38672	106664	0	0	8112	790104	0	0
2024-05-06 02:05:32			0	33255	0	0	0	18298	16940	155349	27744	964599	38671	106660	0	0	8110	792156	0	0
2024-05-06 02:06:32			0	33247	0	0	0	18298	16940	155397	27507	964599	38671	106660	0	0	8110	792567	0	0
2024-05-06 02:07:32			0	33225	0	0	0	18298	16940	155481	27313	964546	38650	106660	0	0	8108	793698	0	0
2024-05-06 02:08:32			0	33216	0	0	0	18296	16930	155589	27251	964564	38661	106659	0	0	8108	794204	0	0
2024-05-06 02:09:32			0	33181	0	0	0	18293	16930	155737	27661	964538	38650	106658	0	0	8106	796007	0	0
2024-05-06 02:10:32			0	33170	0	0	0	18283	16920	155865	27261	964574	38660	106654	0	0	8105	796618	0	0
2024-05-06 02:11:32			0	33152	0	0	0	18285	16930	156017	27296	964530	38650	106655	0	0	8104	797504	0	0
2024-05-06 02:12:32			0	33137	0	0	0	18283	16920	155981	27277	964460	38659	106654	0	0	8103	798322	0	0
2024-05-06 02:13:32			0	33078	0	0	0	18264	16920	156049	27227	964460	38659	106647	0	0	8100	801377	0	0
2024-05-06 02:14:32			0	33085	0	0	0	18275	16910	156241	27689	964505	38659	106651	0	0	8100	801057	0	0
2024-05-06 02:15:32			0	33057	0	0	0	18264	16910	156237	27277	964470	38648	106647	0	0	8099	802510	0	0
2024-05-06 02:16:32			0	33059	0	0	0	18262	16910	156333	27710	964479	38648	106646	0	0	8099	802406	0	0
2024-05-06 02:17:32			0	33061	0	0	0	18259	16910	156321	27628	964418	38659	106645	0	0	8099	802302	0	0
2024-05-06 02:18:32			0	33043	0	0	0	18254	16900	156425	27421	964410	38669	106643	0	0	8098	803280	0	0
2024-05-06 02:19:32			0	33038	0	0	0	18257	16900	156397	27878	964410	38658	106644	0	0	8098	803540	0	0
2024-05-06 02:20:32			0	33044	0	0	0	18249	16900	156429	27699	964401	38647	106641	0	0	8098	803228	0	0
2024-05-06 02:21:32			0	33073	0	0	0	18249	16890	156385	27535	964446	38657	106641	0	0	8100	801766	0	0
2024-05-06 02:22:32			0	33058	0	0	0	18254	16890	156289	27362	964367	38646	106643	0	0	8099	802545	0	0
2024-05-06 02:23:32			0	33083	0	0	0	18251	16880	156321	27093	964368	38666	106642	0	0	8100	801291	0	0
2024-05-06 02:24:32			0	33091	0	0	0	18257	16890	156217	27197	964358	38657	106644	0	0	8101	800833	0	0
2024-05-06 02:25:32			0	33095	0	0	0	18254	16890	156169	27329	964385	38657	106643	0	0	8101	800626	0	0
2024-05-06 02:26:32			0	33115	0	0	0	18249	16890	156257	27352	964446	38646	106641	0	0	8102	799590	0	0
2024-05-06 02:27:32			0	33081	0	0	0	18246	16870	156309	27512	964352	38644	106640	0	0	8100	801438	0	0
2024-05-06 02:28:32			0	33096	0	0	0	18254	16880	156301	27202	964403	38657	106643	0	0	8101	800617	0	0
2024-05-06 02:29:32			0	33056	0	0	0	18254	16880	156345	27350	964368	38666	106643	0	0	8099	802692	0	0
2024-05-06 02:30:32			0	33080	0	0	0	18262	16870	156269	27107	964387	38666	106646	0	0	8100	801490	0	0
2024-05-06 02:31:32			0	33084	0	0	0	18264	16880	156329	27428	964421	38656	106647	0	0	8100	801239	0	0
2024-05-06 02:32:32			0	33112	0	0	0	18251	16880	156197	27377	964429	38646	106642	0	0	8102	799789	0	0
2024-05-06 02:33:32			0	33127	0	0	0	18254	16880	156045	27450	964368	38656	106643	0	0	8103	799013	0	0
2024-05-06 02:34:32			0	33133	0	0	0	18251	16870	155989	27383	964352	38655	106642	0	0	8103	798745	0	0
2024-05-06 02:35:32			0	33148	0	0	0	18264	16880	156061	27474	964395	38645	106647	0	0	8104	797927	0	0
2024-05-06 02:36:32			0	33154	0	0	0	18262	16870	156057	27267	964413	38655	106646	0	0	8104	797660	0	0
2024-05-06 02:37:32			0	33126	0	0	0	18251	16870	155993	27267	964387	38666	106642	0	0	8103	799108	0	0
2024-05-06 02:38:32			0	33142	0	0	0	18259	16870	156081	27039	964360	38644	106645	0	0	8104	798280	0	0
2024-05-06 02:39:32			0	33131	0	0	0	18262	16870	156065	27248	964387	38655	106646	0	0	8103	798849	0	0
2024-05-06 02:40:32			0	33137	0	0	0	18251	16870	156137	27523	964387	38655	106642	0	0	8104	798539	0	0
2024-05-06 02:41:32			0	33131	0	0	0	18259	16860	156033	27317	964264	38633	106645	0	0	8103	798892	0	0
2024-05-06 02:42:32			0	33153	0	0	0	18254	16860	156005	27358	964396	38644	106643	0	0	8104	797755	0	0
2024-05-06 02:43:32			0	33169	0	0	0	18262	16870	155985	27379	964352	38644	106646	0	0	8105	796886	0	0
2024-05-06 02:44:32			0	33189	0	0	0	18259	16860	155965	27060	964317	38655	106645	0	0	8107	795897	0	0
2024-05-06 02:45:32			0	33191	0	0	0	18251	16860	155781	26968	964291	38666	106642	0	0	8107	795794	0	0
2024-05-06 02:46:32			0	33170	0	0	0	18254	16870	155969	27253	964334	38666	106643	0	0	8106	796834	0	0
2024-05-06 02:47:32			0	33155	0	0	0	18254	16870	156021	27126	964352	38655	106643	0	0	8105	797609	0	0
2024-05-06 02:48:32			0	33145	0	0	0	18246	16860	156089	27183	964291	38655	106640	0	0	8104	798168	0	0
2024-05-06 02:49:32			0	33134	0	0	0	18254	16870	156021	27412	964352	38655	106643	0	0	8103	798694	0	0
2024-05-06 02:50:32			0	33121	0	0	0	18249	16860	156113	27403	964370	38655	106641	0	0	8103	799410	0	0
2024-05-06 02:51:32			0	33120	0	0	0	18254	16870	156177	27486	964352	38655	106643	0	0	8103	799418	0	0
2024-05-06 02:52:32			0	33132	0	0	0	18254	16850	156113	27280	964354	38653	106643	0	0	8103	798884	0	0
2024-05-06 02:53:32			0	33133	0	0	0	18238	16850	156097	27178	964380	38665	106637	0	0	8103	798832	0	0
2024-05-06 02:54:32			0	33127	0	0	0	18238	16860	156093	27755	964344	38666	106637	0	0	8103	799099	0	0
2024-05-06 02:55:32			0	33120	0	0	0	18246	16860	156085	27249	964335	38676	106640	0	0	8103	799461	0	0
2024-05-06 02:56:32			0	33116	0	0	0	18244	16850	156225	27260	964301	38653	106639	0	0	8102	799712	0	0
2024-05-06 02:57:32			0	33098	0	0	0	18246	16860	156169	27228	964291	38655	106640	0	0	8101	800601	0	0
2024-05-06 02:58:32			0	33095	0	0	0	18241	16860	156273	27388	964396	38655	106638	0	0	8101	800756	0	0
2024-05-06 02:59:32			0	33101	0	0	0	18246	16860	156321	27027	964335	38665	106640	0	0	8101	800445	0	0
2024-05-06 03:00:32			0	33088	0	0	0	18251	16860	156265	27428	964309	38654	106642	0	0	8101	801119	0	0
2024-05-06 03:01:32			0	33089	0	0	0	18254	16850	156241	27194	964354	38653	106643	0	0	8101	801110	0	0
2024-05-06 03:02:32			0	33116	0	0	0	18236	16860	156213	27253	964309	38665	106636	0	0	8103	799668	0	0
2024-05-06 03:03:32			0	33110	0	0	0	18238	16870	156169	27199	964299	38655	106637	0	0	8102	799936	0	0
2024-05-06 03:04:32			0	33094	0	0	0	18228	16860	156181	27320	964309	38654	106633	0	0	8101	800808	0	0
2024-05-06 03:05:32			0	33090	0	0	0	18238	16850	156401	27182	964301	38653	106637	0	0	8101	801059	0	0
2024-05-06 03:06:32			0	33081	0	0	0	18228	16850	156321	27507	964319	38653	106633	0	0	8101	801525	0	0
2024-05-06 03:07:32			0	33072	0	0	0	18231	16850	156301	27642	964319	38665	106634	0	0	8100	801992	0	0
2024-05-06 03:08:32			0	33048	0	0	0	18241	16850	156517	27189	964327	38631	106638	0	0	8098	803238	0	0
2024-05-06 03:09:32			0	33028	0	0	0	18249	16860	156461	27362	964335	38665	106641	0	0	8097	804234	0	0
2024-05-06 03:10:32			0	33044	0	0	0	18244	16850	156481	27543	964274	38653	106639	0	0	8098	803446	0	0
2024-05-06 03:11:32			0	33050	0	0	0	18246	16850	156489	27157	964293	38665	106640	0	0	8098	803134	0	0
2024-05-06 03:12:32			0	33066	0	0	0	18238	16850	156413	26998	964274	38642	106637	0	0	8099	802303	0	0
2024-05-06 03:13:32			0	33079	0	0	0	18236	16850	156417	27204	964301	38653	106636	0	0	8100	801629	0	0
2024-05-06 03:14:32			0	33085	0	0	0	18244	16850	156337	27390	964266	38653	106639	0	0	8100	801318	0	0
2024-05-06 03:15:32			0	33113	0	0	0	18236	16850	156153	27396	964380	38653	106636	0	0	8102	799867	0	0
2024-05-06 03:16:32			0	33086	0	0	0	18231	16860	156177	27225	964317	38644	106634	0	0	8101	801223	0	0
2024-05-06 03:17:32			0	33092	0	0	0	18233	16850	156209	27537	964319	38653	106635	0	0	8101	800955	0	0
2024-05-06 03:18:32			0	33089	0	0	0	18249	16860	156329	27303	964283	38654	106641	0	0	8101	801067	0	0
2024-05-06 03:19:32			0	33080	0	0	0	18241	16840	156289	27400	964258	38665	106638	0	0	8100	801620	0	0
2024-05-06 03:20:32			0	33085	0	0	0	18244	16840	156241	27550	964311	38653	106639	0	0	8100	801361	0	0
2024-05-06 03:21:32			0	33092	0	0	0	18241	16860	156389	27142	964335	38654	106638	0	0	8101	800912	0	0
2024-05-06 03:22:32			0	33085	0	0	0	18233	16850	156253	27145	964293	38653	106635	0	0	8101	801318	0	0
2024-05-06 03:23:32			0	33114	0	0	0	18241	16850	156157	27296	964301	38653	106638	0	0	8102	799815	0	0
2024-05-06 03:24:32			0	33103	0	0	0	18231	16850	156145	27402	964301	38665	106634	0	0	8102	800385	0	0
2024-05-06 03:25:32			0	33092	0	0	0	18231	16850	156317	27329	964222	38653	106634	0	0	8101	800955	0	0
2024-05-06 03:26:32			0	33099	0	0	0	18233	16850	156241	27668	964274	38665	106635	0	0	8102	800592	0	0
2024-05-06 03:27:32			0	33093	0	0	0	18238	16850	156281	27569	964301	38675	106637	0	0	8101	800903	0	0
2024-05-06 03:28:32			0	33097	0	0	0	18236	16850	156261	27398	964266	38675	106636	0	0	8101	800696	0	0
2024-05-06 03:29:32			0	33098	0	0	0	18231	16850	156221	27142	964293	38653	106634	0	0	8101	800644	0	0
2024-05-06 03:30:32			0	33132	0	0	0	18231	16850	156181	27492	964319	38642	106634	0	0	8104	798884	0	0
2024-05-06 03:31:32			0	33123	0	0	0	18238	16850	156161	27535	964327	38653	106637	0	0	8103	799349	0	0
2024-05-06 03:32:32			0	33117	0	0	0	18233	16850	156173	27452	964266	38653	106635	0	0	8103	799660	0	0
2024-05-06 03:33:32			0	33125	0	0	0	18233	16850	156145	27507	964274	38665	106635	0	0	8103	799246	0	0
2024-05-06 03:34:32			0	33145	0	0	0	18228	16850	156097	27367	964266	38653	106633	0	0	8104	798212	0	0
2024-05-06 03:35:32			0	33161	0	0	0	18220	16850	156033	27512	964319	38653	106630	0	0	8105	797385	0	0
2024-05-06 03:36:32			0	33166	0	0	0	18225	16850	155941	27454	964327	38665	106632	0	0	8106	797127	0	0
2024-05-06 03:37:32			0	33183	0	0	0	18215	16840	155853	27293	964284	38665	106628	0	0	8107	796293	0	0
2024-05-06 03:38:32			0	33182	0	0	0	18197	16840	155889	27291	964197	38664	106621	0	0	8107	796344	0	0
2024-05-06 03:39:32			0	33190	0	0	0	18189	16840	155901	27554	964197	38653	106618	0	0	8108	795932	0	0
2024-05-06 03:40:32			0	33174	0	0	0	18186	16830	155885	27526	964242	38652	106617	0	0	8107	796800	0	0
2024-05-06 03:41:32			0	33154	0	0	0	18205	16830	155973	27568	964162	38652	106624	0	0	8105	797833	0	0
2024-05-06 03:42:32			0	33135	0	0	0	18205	16820	156069	27386	964172	38651	106624	0	0	8104	798859	0	0
2024-05-06 03:43:32			0	33134	0	0	0	18210	16830	156161	27190	964154	38651	106626	0	0	8104	798867	0	0
2024-05-06 03:44:32			0	33122	0	0	0	18218	16830	156201	27450	964233	38651	106629	0	0	8103	799488	0	0
2024-05-06 03:45:32			0	33123	0	0	0	18207	16820	156237	27658	964172	38651	106625	0	0	8103	799479	0	0
2024-05-06 03:46:32			0	33127	0	0	0	18205	16830	156193	27599	964294	38663	106624	0	0	8104	799229	0	0
2024-05-06 03:47:32			0	33141	0	0	0	18207	16830	156101	27666	964189	38652	106625	0	0	8104	798505	0	0
2024-05-06 03:48:32			0	33136	0	0	0	18215	16830	156121	27706	964233	38662	106628	0	0	8104	798763	0	0
2024-05-06 03:49:32			0	33129	0	0	0	18212	16830	156125	27274	964242	38652	106627	0	0	8104	799126	0	0
2024-05-06 03:50:32			0	33121	0	0	0	18207	16820	156301	27296	964172	38651	106625	0	0	8103	799583	0	0
2024-05-06 03:51:32			0	33108	0	0	0	18210	16830	156241	27441	964268	38652	106626	0	0	8102	800213	0	0
2024-05-06 03:52:32			0	33080	0	0	0	18231	16830	156417	27694	964207	38662	106634	0	0	8100	801664	0	0
2024-05-06 03:53:32			0	33076	0	0	0	18236	16830	156489	27076	964268	38652	106636	0	0	8100	801871	0	0
2024-05-06 03:54:32			0	33101	0	0	0	18225	16840	156365	27441	964232	38653	106632	0	0	8102	800532	0	0
2024-05-06 03:55:32			0	33138	0	0	0	18205	16830	155997	27282	964207	38662	106624	0	0	8104	798660	0	0
2024-05-06 03:56:32			0	33179	0	0	0	18215	16830	155829	27511	964242	38663	106628	0	0	8107	796542	0	0
2024-05-06 03:57:32			0	33184	0	0	0	18212	16830	155789	27601	964242	38641	106627	0	0	8107	796284	0	0
2024-05-06 03:58:32			0	33228	0	0	0	18215	16830	155761	27590	964162	38641	106628	0	0	8109	794017	0	0
2024-05-06 03:59:32			0	33238	0	0	0	18207	16820	155613	27416	964252	38651	106625	0	0	8110	793546	0	0
2024-05-06 04:00:32			0	33243	0	0	0	18202	16830	155601	27355	964268	38641	106623	0	0	8111	793246	0	0
2024-05-06 04:01:32			0	33271	0	0	0	18207	16830	155429	27322	964181	38651	106625	0	0	8112	791807	0	0
2024-05-06 04:02:32			0	33261	0	0	0	18212	16830	155441	27194	964260	38651	106627	0	0	8112	792320	0	0
2024-05-06 04:03:32			0	33224	0	0	0	18215	16820	155577	27410	964199	38651	106628	0	0	8109	794266	0	0
2024-05-06 04:04:32			0	33220	0	0	0	18220	16830	155697	27260	964128	38651	106630	0	0	8109	794429	0	0
2024-05-06 04:05:32			0	33242	0	0	0	18218	16820	155681	27490	964191	38662	106629	0	0	8110	793340	0	0
2024-05-06 04:06:32			0	33237	0	0	0	18220	16820	155509	27326	964199	38651	106630	0	0	8110	793597	0	0
2024-05-06 04:07:32			0	33274	0	0	0	18212	16840	155541	27208	964232	38665	106627	0	0	8112	791610	0	0
2024-05-06 04:08:32			0	33285	0	0	0	18223	16820	155533	27550	964225	38651	106631	0	0	8113	791131	0	0
2024-05-06 04:09:32			0	33278	0	0	0	18212	16830	155345	27403	964260	38651	106627	0	0	8113	791448	0	0
2024-05-06 04:10:32			0	33265	0	0	0	18223	16820	155461	27038	964225	38651	106631	0	0	8112	792158	0	0
2024-05-06 04:11:32			0	33272	0	0	0	18223	16820	155405	27317	964278	38651	106631	0	0	8112	791799	0	0
2024-05-06 04:12:32			0	33271	0	0	0	18212	16830	155421	27192	964268	38641	106627	0	0	8112	791807	0	0
2024-05-06 04:13:32			0	33298	0	0	0	18228	16830	155361	27234	964233	38662	106633	0	0	8113	790422	0	0
2024-05-06 04:14:32			0	33313	0	0	0	18207	16830	155229	27190	964215	38652	106625	0	0	8115	789653	0	0
2024-05-06 04:15:32			0	33332	0	0	0	18207	16830	155157	26993	964215	38652	106625	0	0	8116	788680	0	0
2024-05-06 04:16:32			0	33342	0	0	0	18199	16830	155133	27251	964215	38652	106622	0	0	8117	788168	0	0
2024-05-06 04:17:32			0	33349	0	0	0	18205	16840	155073	27519	964171	38653	106624	0	0	8117	787768	0	0
2024-05-06 04:18:32			0	33345	0	0	0	18192	16830	155145	27173	964128	38651	106619	0	0	8117	788015	0	0
2024-05-06 04:19:32			0	33328	0	0	0	18184	16830	155097	27407	964189	38652	106616	0	0	8116	788885	0	0
2024-05-06 04:20:32			0	33348	0	0	0	18189	16820	155109	27267	964146	38651	106618	0	0	8117	787904	0	0
2024-05-06 04:21:32			0	33331	0	0	0	18189	16820	155121	27519	964120	38640	106618	0	0	8116	788774	0	0
2024-05-06 04:22:32			0	33335	0	0	0	18194	16810	155077	27053	964095	38660	106620	0	0	8116	788612	0	0
2024-05-06 04:23:32			0	33326	0	0	0	18197	16810	155213	27289	964077	38661	106621	0	0	8116	789072	0	0
2024-05-06 04:24:32			0	33312	0	0	0	18199	16810	155265	27583	964077	38650	106622	0	0	8115	789790	0	0
2024-05-06 04:25:32			0	33307	0	0	0	18194	16810	155173	27564	964077	38671	106620	0	0	8114	790046	0	0
2024-05-06 04:26:32			0	33303	0	0	0	18192	16820	155265	27409	964093	38651	106619	0	0	8114	790208	0	0
2024-05-06 04:27:32			0	33292	0	0	0	18189	16820	155213	27053	964138	38640	106618	0	0	8114	790772	0	0
2024-05-06 04:28:32			0	33300	0	0	0	18176	16800	155301	27119	964140	38649	106613	0	0	8114	790448	0	0
2024-05-06 04:29:32			0	33299	0	0	0	18189	16810	155305	27374	964156	38650	106618	0	0	8114	790456	0	0
2024-05-06 04:30:32			0	33298	0	0	0	18189	16810	155453	27066	964148	38660	106618	0	0	8114	790507	0	0
2024-05-06 04:31:32			0	33301	0	0	0	18186	16800	155373	27215	964113	38649	106617	0	0	8114	790396	0	0
2024-05-06 04:32:32			0	33277	0	0	0	18176	16810	155453	27486	964103	38650	106613	0	0	8113	791585	0	0
2024-05-06 04:33:32			0	33295	0	0	0	18176	16800	155437	27071	964113	38660	106613	0	0	8114	790704	0	0
2024-05-06 04:34:32			0	33294	0	0	0	18174	16810	155385	27263	964156	38650	106612	0	0	8114	790712	0	0
2024-05-06 04:35:32			0	33303	0	0	0	18174	16800	155369	27192	964131	38649	106612	0	0	8115	790294	0	0
2024-05-06 04:36:32			0	33280	0	0	0	18181	16810	155469	27137	964156	38650	106615	0	0	8113	791431	0	0
2024-05-06 04:37:32			0	33290	0	0	0	18192	16810	155481	27156	964121	38649	106619	0	0	8113	790917	0	0
2024-05-06 04:38:32			0	33262	0	0	0	18179	16810	155489	27019	964095	38670	106614	0	0	8112	792355	0	0
2024-05-06 04:39:32			0	33282	0	0	0	18192	16800	155457	27183	964087	38660	106619	0	0	8113	791371	0	0
2024-05-06 04:40:32			0	33289	0	0	0	18192	16810	155329	27607	964174	38660	106619	0	0	8113	790969	0	0
2024-05-06 04:41:32			0	33294	0	0	0	18184	16810	155421	27197	964130	38639	106616	0	0	8114	790712	0	0
2024-05-06 04:42:32			0	33289	0	0	0	18192	16810	155341	27324	964077	38650	106619	0	0	8113	790969	0	0
2024-05-06 04:43:32			0	33292	0	0	0	18189	16800	155365	27206	964060	38638	106618	0	0	8114	790858	0	0
2024-05-06 04:44:32			0	33278	0	0	0	18179	16800	155341	27485	964140	38638	106614	0	0	8113	791576	0	0
2024-05-06 04:45:32			0	33272	0	0	0	18179	16800	155525	27360	964079	38649	106614	0	0	8113	791884	0	0
2024-05-06 04:46:32			0	33262	0	0	0	18174	16800	155437	27277	964060	38638	106612	0	0	8112	792398	0	0
2024-05-06 04:47:32			0	33253	0	0	0	18174	16800	155549	27590	964079	38649	106612	0	0	8112	792861	0	0
2024-05-06 04:48:32			0	33243	0	0	0	18176	16800	155493	27388	964034	38649	106613	0	0	8111	793375	0	0
2024-05-06 04:49:32			0	33252	0	0	0	18168	16800	155449	27376	964060	38638	106610	0	0	8112	792912	0	0
2024-05-06 04:50:32			0	33250	0	0	0	18163	16790	155613	27433	963991	38648	106608	0	0	8111	793058	0	0
2024-05-06 04:51:32			0	33243	0	0	0	18168	16790	155633	27438	964044	38637	106610	0	0	8111	793418	0	0
2024-05-06 04:52:32			0	33238	0	0	0	18163	16800	155609	27301	964034	38660	106608	0	0	8111	793632	0	0
2024-05-06 04:53:32			0	33245	0	0	0	18179	16790	155589	27253	964018	38648	106614	0	0	8111	793315	0	0
2024-05-06 04:54:32			0	33253	0	0	0	18176	16790	155585	27658	964036	38659	106613	0	0	8111	792904	0	0
2024-05-06 04:55:32			0	33259	0	0	0	18174	16790	155497	27594	964070	38648	106612	0	0	8112	792595	0	0
2024-05-06 04:56:32			0	33276	0	0	0	18176	16790	155489	27537	964009	38636	106613	0	0	8113	791722	0	0
2024-05-06 04:57:32			0	33241	0	0	0	18174	16800	155517	27381	964087	38649	106612	0	0	8111	793477	0	0
2024-05-06 04:58:32			0	33229	0	0	0	18161	16790	155597	27384	964097	38648	106607	0	0	8110	794138	0	0
2024-05-06 04:59:32			0	33219	0	0	0	18176	16780	155653	27287	964001	38647	106613	0	0	8109	794696	0	0
2024-05-06 05:00:32			0	33232	0	0	0	18171	16800	155565	27372	964052	38638	106611	0	0	8110	793941	0	0
2024-05-06 05:01:32			0	33240	0	0	0	18168	16790	155533	27421	964009	38647	106610	0	0	8111	793572	0	0
2024-05-06 05:02:32			0	33221	0	0	0	18166	16780	155573	27471	963993	38659	106609	0	0	8110	794593	0	0
2024-05-06 05:03:32			0	33200	0	0	0	18166	16790	155569	27582	964018	38648	106609	0	0	8108	795632	0	0
2024-05-06 05:04:32			0	33209	0	0	0	18155	16780	155665	27699	964001	38669	106605	0	0	8109	795211	0	0
2024-05-06 05:05:32			0	33194	0	0	0	18155	16780	155801	27511	963975	38647	106605	0	0	8108	795984	0	0
2024-05-06 05:06:32			0	33177	0	0	0	18158	16790	155829	27376	964018	38659	106606	0	0	8107	796818	0	0
2024-05-06 05:07:32			0	33176	0	0	0	18163	16790	155865	27455	963983	38647	106608	0	0	8107	796870	0	0
2024-05-06 05:08:32			0	33135	0	0	0	18171	16780	156101	27452	963993	38647	106611	0	0	8104	799032	0	0
2024-05-06 05:09:32			0	33143	0	0	0	18163	16770	156021	27334	963985	38658	106608	0	0	8105	798661	0	0
2024-05-06 05:10:32			0	33134	0	0	0	18161	16770	156009	27376	964011	38647	106607	0	0	8104	799127	0	0
2024-05-06 05:11:32			0	33152	0	0	0	18158	16780	155981	27140	963993	38647	106606	0	0	8106	798153	0	0
2024-05-06 05:12:32			0	33177	0	0	0	18179	16790	155945	27248	964036	38636	106614	0	0	8107	796818	0	0
2024-05-06 05:13:32			0	33175	0	0	0	18181	16780	155929	27452	963993	38659	106615	0	0	8107	796965	0	0
2024-05-06 05:14:32			0	33184	0	0	0	18171	16790	155869	27239	964036	38659	106611	0	0	8107	796457	0	0
2024-05-06 05:15:32			0	33192	0	0	0	18174	16790	155817	27581	964036	38647	106612	0	0	8108	796044	0	0
2024-05-06 05:16:32			0	33193	0	0	0	18176	16780	155773	27114	964054	38647	106613	0	0	8108	796036	0	0
2024-05-06 05:17:32			0	33206	0	0	0	18171	16790	155549	27325	964018	38659	106611	0	0	8109	795322	0	0
2024-05-06 05:18:32			0	33246	0	0	0	18171	16790	155577	27388	964062	38659	106611	0	0	8111	793263	0	0
2024-05-06 05:19:32			0	33240	0	0	0	18174	16780	155425	27242	964054	38659	106612	0	0	8111	793615	0	0
2024-05-06 05:20:32			0	33245	0	0	0	18168	16780	155349	27144	964054	38647	106610	0	0	8111	793358	0	0
2024-05-06 05:21:32			0	33269	0	0	0	18189	16790	155369	27196	964044	38659	106618	0	0	8112	792081	0	0
2024-05-06 05:22:32			0	33261	0	0	0	18181	16780	155317	27367	964054	38647	106615	0	0	8112	792535	0	0
2024-05-06 05:23:32			0	33279	0	0	0	18186	16790	155349	27313	964070	38648	106617	0	0	8113	791568	0	0
2024-05-06 05:24:32			0	33300	0	0	0	18176	16790	155221	27616	964097	38648	106613	0	0	8114	790490	0	0
2024-05-06 05:25:32			0	33311	0	0	0	18176	16780	155213	27563	964080	38647	106613	0	0	8115	789969	0	0
2024-05-06 05:26:32			0	33310	0	0	0	18171	16790	155249	27796	964070	38648	106611	0	0	8115	789978	0	0
2024-05-06 05:27:32			0	33329	0	0	0	18179	16790	155209	27196	964062	38647	106614	0	0	8116	789005	0	0
2024-05-06 05:28:32			0	33319	0	0	0	18189	16800	155209	27550	964026	38649	106618	0	0	8115	789474	0	0
2024-05-06 05:29:32			0	33329	0	0	0	18174	16790	155133	27588	964018	38648	106612	0	0	8116	789005	0	0
2024-05-06 05:30:32			0	33318	0	0	0	18176	16800	155161	27121	964052	38660	106613	0	0	8115	789525	0	0
2024-05-06 05:31:32			0	33319	0	0	0	18174	16790	155141	27500	963991	38659	106612	0	0	8115	789517	0	0
2024-05-06 05:32:32			0	33329	0	0	0	18176	16780	155165	27298	964080	38636	106613	0	0	8116	789047	0	0
2024-05-06 05:33:32			0	33312	0	0	0	18174	16800	155117	27296	964026	38649	106612	0	0	8115	789832	0	0
2024-05-06 05:34:32			0	33328	0	0	0	18171	16800	155305	27374	964052	38649	106611	0	0	8116	789013	0	0
2024-05-06 05:35:32			0	33306	0	0	0	18166	16790	155241	27416	964018	38648	106609	0	0	8115	790183	0	0
2024-05-06 05:36:32			0	33285	0	0	0	18166	16790	155217	27441	964062	38659	106609	0	0	8114	791260	0	0
2024-05-06 05:37:32			0	33303	0	0	0	18161	16790	155293	27260	964062	38659	106607	0	0	8115	790336	0	0
2024-05-06 05:38:32			0	33276	0	0	0	18166	16790	155349	27223	964097	38648	106609	0	0	8113	791722	0	0
2024-05-06 05:39:32			0	33289	0	0	0	18171	16790	155377	27402	964176	38659	106611	0	0	8114	791055	0	0
2024-05-06 05:40:32			0	33260	0	0	0	18181	16790	155357	27505	964070	38648	106615	0	0	8112	792544	0	0
2024-05-06 05:41:32			0	33234	0	0	0	18179	16780	155549	27039	964054	38659	106614	0	0	8110	793923	0	0
2024-05-06 05:42:32			0	33240	0	0	0	18158	16790	155529	27568	963991	38648	106606	0	0	8111	793572	0	0
2024-05-06 05:43:32			0	33230	0	0	0	18158	16780	155689	27258	964046	38647	106606	0	0	8110	794129	0	0
2024-05-06 05:44:32			0	33210	0	0	0	18155	16780	155633	27093	964107	38636	106605	0	0	8109	795159	0	0
2024-05-06 05:45:32			0	33207	0	0	0	18150	16780	155685	26942	963967	38647	106603	0	0	8109	795314	0	0
2024-05-06 05:46:32			0	33190	0	0	0	18153	16780	155705	27332	964072	38647	106604	0	0	8108	796191	0	0
2024-05-06 05:47:32			0	33206	0	0	0	18145	16770	155777	27578	963985	38647	106601	0	0	8109	795409	0	0
2024-05-06 05:48:32			0	33210	0	0	0	18145	16770	155821	27183	963950	38635	106601	0	0	8109	795203	0	0
2024-05-06 05:49:32			0	33187	0	0	0	18145	16780	155805	27244	964001	38659	106601	0	0	8108	796345	0	0
2024-05-06 05:50:32			0	33193	0	0	0	18145	16770	155841	27578	963958	38647	106601	0	0	8108	796079	0	0
2024-05-06 05:51:32			0	33179	0	0	0	18140	16770	155993	27493	963985	38658	106599	0	0	8108	796801	0	0
2024-05-06 05:52:32			0	33142	0	0	0	18122	16760	156093	27209	963942	38646	106592	0	0	8106	798756	0	0
2024-05-06 05:53:32			0	33160	0	0	0	18114	16770	155985	27540	963950	38646	106589	0	0	8107	797782	0	0
2024-05-06 05:54:32			0	33146	0	0	0	18132	16770	156077	27372	963897	38646	106596	0	0	8106	798506	0	0
2024-05-06 05:55:32			0	33122	0	0	0	18132	16760	156173	27223	963907	38634	106596	0	0	8104	799791	0	0
2024-05-06 05:56:32			0	33120	0	0	0	18142	16760	156165	27197	963907	38645	106600	0	0	8104	799895	0	0
2024-05-06 05:57:32			0	33117	0	0	0	18132	16770	156317	27590	963950	38646	106596	0	0	8104	800007	0	0
2024-05-06 05:58:32			0	33118	0	0	0	18135	16770	156253	27305	963924	38657	106597	0	0	8104	799955	0	0
2024-05-06 05:59:32			0	33106	0	0	0	18124	16760	156361	27402	963968	38646	106593	0	0	8103	800620	0	0
2024-05-06 06:00:32			0	33098	0	0	0	18129	16760	156297	27633	963889	38657	106595	0	0	8103	801034	0	0
2024-05-06 06:01:32			0	33094	0	0	0	18096	16750	156337	27576	963978	38656	106582	0	0	8103	801285	0	0
2024-05-06 06:02:32			0	33091	0	0	0	18096	16750	156281	27248	963899	38645	106582	0	0	8103	801441	0	0
2024-05-06 06:03:32			0	33071	0	0	0	18103	16760	156297	27535	963881	38634	106585	0	0	8102	802435	0	0
2024-05-06 06:04:32			0	33084	0	0	0	18077	16760	156373	27253	963828	38645	106575	0	0	8103	801761	0	0
2024-05-06 06:05:32			0	33066	0	0	0	18096	16740	156377	27419	963830	38632	106582	0	0	8101	802782	0	0
2024-05-06 06:06:32			0	33075	0	0	0	18103	16750	156449	27317	963838	38644	106585	0	0	8102	802271	0	0
2024-05-06 06:07:32			0	33060	0	0	0	18111	16750	156425	27424	963846	38624	106588	0	0	8101	803050	0	0
2024-05-06 06:08:32			0	33036	0	0	0	18106	16740	156597	27339	963856	38643	106586	0	0	8099	804341	0	0
2024-05-06 06:09:32			0	33045	0	0	0	18111	16740	156581	27391	963856	38632	106588	0	0	8100	803873	0	0
2024-05-06 06:10:32			0	33027	0	0	0	18093	16730	156717	27253	963848	38654	106581	0	0	8099	804853	0	0
2024-05-06 06:11:32			0	33024	0	0	0	18093	16730	156801	27447	963822	38632	106581	0	0	8099	805009	0	0
2024-05-06 06:12:32			0	33006	0	0	0	18101	16730	156725	27452	963769	38632	106584	0	0	8098	805947	0	0
2024-05-06 06:13:32			0	33003	0	0	0	18109	16730	156753	27350	963822	38643	106587	0	0	8097	806103	0	0
2024-05-06 06:14:32			0	32991	0	0	0	18109	16730	156833	27469	963822	38654	106587	0	0	8096	806729	0	0
2024-05-06 06:15:32			0	32995	0	0	0	18114	16730	156817	27350	963840	38643	106589	0	0	8097	806520	0	0
2024-05-06 06:16:32			0	32989	0	0	0	18114	16720	156825	27689	963858	38631	106589	0	0	8096	806877	0	0
2024-05-06 06:17:32			0	32986	0	0	0	18119	16730	156789	27476	963840	38654	106591	0	0	8096	806989	0	0
2024-05-06 06:18:32			0	33016	0	0	0	18122	16730	156929	27542	963848	38643	106592	0	0	8098	805426	0	0
2024-05-06 06:19:32			0	32997	0	0	0	18150	16730	156865	27516	963874	38654	106603	0	0	8096	806416	0	0
2024-05-06 06:20:32			0	33015	0	0	0	18148	16730	156773	27270	963893	38643	106602	0	0	8097	805478	0	0
2024-05-06 06:21:32			0	33051	0	0	0	18174	16730	156605	27272	963874	38643	106612	0	0	8099	803605	0	0
2024-05-06 06:22:32			0	33109	0	0	0	18174	16750	156377	27614	963944	38666	106612	0	0	8103	800508	0	0
2024-05-06 06:23:32			0	33142	0	0	0	18153	16760	156045	27332	963960	38656	106604	0	0	8105	798756	0	0
2024-05-06 06:24:32			0	33198	0	0	0	18161	16760	155885	27197	963960	38645	106607	0	0	8108	795864	0	0
2024-05-06 06:25:32			0	33226	0	0	0	18171	16760	155777	27521	963934	38645	106611	0	0	8110	794421	0	0
2024-05-06 06:26:32			0	33236	0	0	0	18174	16760	155681	27365	963960	38645	106612	0	0	8110	793907	0	0
2024-05-06 06:27:32			0	33267	0	0	0	18161	16760	155633	27164	963995	38678	106607	0	0	8112	792313	0	0
2024-05-06 06:28:32			0	33269	0	0	0	18176	16770	155417	27303	964003	38657	106613	0	0	8112	792167	0	0
2024-05-06 06:29:32			0	33286	0	0	0	18174	16770	155437	27564	964038	38647	106612	0	0	8113	791294	0	0
2024-05-06 06:30:32			0	33330	0	0	0	18174	16770	155317	27479	964038	38658	106612	0	0	8116	789039	0	0
2024-05-06 06:31:32			0	33349	0	0	0	18176	16770	155233	27864	964038	38647	106613	0	0	8117	788066	0	0
2024-05-06 06:32:32			0	33357	0	0	0	18176	16780	155169	27213	963993	38659	106613	0	0	8118	787615	0	0
2024-05-06 06:33:32			0	33377	0	0	0	18174	16780	154993	27325	964133	38636	106612	0	0	8119	786593	0	0
2024-05-06 06:34:32			0	33405	0	0	0	18184	16780	154961	27388	964046	38659	106616	0	0	8120	785164	0	0
2024-05-06 06:35:32			0	33404	0	0	0	18179	16770	154921	27445	964038	38647	106614	0	0	8120	785257	0	0
2024-05-06 06:36:32			0	33423	0	0	0	18181	16780	154857	27438	964080	38647	106615	0	0	8121	784246	0	0
2024-05-06 06:37:32			0	33425	0	0	0	18184	16790	154765	27341	964062	38659	106616	0	0	8122	784102	0	0
2024-05-06 06:38:32			0	33437	0	0	0	18174	16780	154829	27410	964133	38659	106612	0	0	8122	783533	0	0
2024-05-06 06:39:32			0	33441	0	0	0	18168	16780	154721	27383	964072	38659	106610	0	0	8123	783330	0	0
2024-05-06 06:40:32			0	33429	0	0	0	18166	16800	154645	27436	964105	38649	106609	0	0	8122	783856	0	0
2024-05-06 06:41:32			0	33440	0	0	0	18171	16790	154765	27237	964089	38647	106611	0	0	8123	783338	0	0
2024-05-06 06:42:32			0	33425	0	0	0	18171	16790	154925	27672	964018	38670	106611	0	0	8122	784102	0	0
2024-05-06 06:43:32			0	33420	0	0	0	18171	16780	154853	27274	964046	38669	106611	0	0	8121	784399	0	0
2024-05-06 06:44:32			0	33432	0	0	0	18168	16770	154833	27270	964064	38647	106610	0	0	8122	783830	0	0
2024-05-06 06:45:32			0	33418	0	0	0	18174	16780	154893	27166	964099	38659	106612	0	0	8121	784501	0	0
2024-05-06 06:46:32			0	33396	0	0	0	18176	16780	154921	27410	964028	38647	106613	0	0	8120	785623	0	0
2024-05-06 06:47:32			0	33405	0	0	0	18163	16770	154901	27324	964038	38679	106608	0	0	8121	785206	0	0
2024-05-06 06:48:32			0	33416	0	0	0	18153	16780	154697	27163	964054	38659	106604	0	0	8122	784603	0	0
2024-05-06 06:49:32			0	33391	0	0	0	18163	16790	154837	27431	964141	38659	106608	0	0	8120	785835	0	0
2024-05-06 06:50:32			0	33398	0	0	0	18166	16780	154961	26981	964046	38659	106609	0	0	8120	785521	0	0
2024-05-06 06:51:32			0	33396	0	0	0	18153	16790	154965	27159	964062	38659	106604	0	0	8120	785580	0	0
2024-05-06 06:52:32			0	33380	0	0	0	18145	16780	154985	27031	964046	38647	106601	0	0	8119	786439	0	0
2024-05-06 06:53:32			0	33364	0	0	0	18150	16780	155145	27357	964028	38669	106603	0	0	8118	787257	0	0
2024-05-06 06:54:32			0	33356	0	0	0	18155	16790	155117	27313	964009	38647	106605	0	0	8118	787623	0	0
2024-05-06 06:55:32			0	33355	0	0	0	18155	16780	155193	27450	964054	38647	106605	0	0	8118	787717	0	0
2024-05-06 06:56:32			0	33338	0	0	0	18142	16780	155197	27176	964001	38647	106600	0	0	8117	788586	0	0
2024-05-06 06:57:32			0	33339	0	0	0	18150	16770	155241	27479	963985	38658	106603	0	0	8117	788578	0	0
2024-05-06 06:58:32			0	33329	0	0	0	18166	16780	155289	27348	964046	38659	106609	0	0	8116	789047	0	0
2024-05-06 06:59:32			0	33355	0	0	0	18168	16780	155201	27284	964107	38647	106610	0	0	8118	787717	0	0
2024-05-06 07:00:32			0	33350	0	0	0	18155	16780	155145	27376	964046	38659	106605	0	0	8118	787973	0	0
2024-05-06 07:01:32			0	33355	0	0	0	18161	16780	155225	27614	964072	38647	106607	0	0	8118	787717	0	0
2024-05-06 07:02:32			0	33363	0	0	0	18161	16770	155121	27452	964064	38647	106607	0	0	8118	787351	0	0
2024-05-06 07:03:32			0	33368	0	0	0	18161	16780	155137	27381	964028	38669	106607	0	0	8119	787052	0	0
2024-05-06 07:04:32			0	33389	0	0	0	18161	16780	155049	27428	964028	38659	106607	0	0	8120	785980	0	0
2024-05-06 07:05:32			0	33394	0	0	0	18155	16770	155093	27684	964038	38635	106605	0	0	8120	785767	0	0
2024-05-06 07:06:32			0	33381	0	0	0	18153	16780	155021	27457	964001	38647	106604	0	0	8119	786388	0	0
2024-05-06 07:07:32			0	33376	0	0	0	18150	16770	155141	27320	964011	38658	106603	0	0	8119	786686	0	0
2024-05-06 07:08:32			0	33382	0	0	0	18148	16780	155085	27241	964054	38659	106602	0	0	8120	786337	0	0
2024-05-06 07:09:32			0	33372	0	0	0	18150	16780	155057	27203	963967	38659	106603	0	0	8119	786848	0	0
2024-05-06 07:10:32			0	33363	0	0	0	18166	16780	155081	27254	964046	38659	106609	0	0	8118	787308	0	0
2024-05-06 07:11:32			0	33361	0	0	0	18150	16770	155133	27322	964064	38668	106603	0	0	8118	787453	0	0
2024-05-06 07:12:32			0	33360	0	0	0	18142	16780	155133	27819	964019	38647	106600	0	0	8118	787461	0	0
2024-05-06 07:13:32			0	33356	0	0	0	18137	16780	155217	27516	964028	38659	106598	0	0	8118	787666	0	0
2024-05-06 07:14:32			0	33354	0	0	0	18135	16770	155337	27353	963985	38658	106597	0	0	8118	787811	0	0
2024-05-06 07:15:32			0	33356	0	0	0	18101	16770	155197	27355	964117	38635	106584	0	0	8119	787708	0	0
2024-05-06 07:16:32			0	33340	0	0	0	18067	16770	155289	27225	963985	38635	106571	0	0	8118	788527	0	0
2024-05-06 07:17:32			0	33349	0	0	0	18070	16770	155325	27684	963932	38658	106572	0	0	8119	788066	0	0
2024-05-06 07:18:32			0	33306	0	0	0	17986	16760	155333	27367	963881	38645	106540	0	0	8118	790311	0	0
2024-05-06 07:19:32			0	33303	0	0	0	17948	16750	155413	27554	963820	38645	106525	0	0	8118	790508	0	0
2024-05-06 07:20:32			0	33279	0	0	0	17966	16750	155557	27547	963706	38633	106532	0	0	8116	791739	0	0
2024-05-06 07:21:32			0	33256	0	0	0	18010	16720	155685	27326	963752	38631	106549	0	0	8114	793050	0	0
2024-05-06 07:22:32			0	33232	0	0	0	18015	16720	155725	27554	963752	38642	106551	0	0	8113	794285	0	0
2024-05-06 07:23:32			0	33214	0	0	0	18085	16730	155989	27609	963813	38632	106578	0	0	8110	795169	0	0
2024-05-06 07:24:32			0	33184	0	0	0	18096	16730	155969	27431	963840	38643	106582	0	0	8108	796716	0	0
2024-05-06 07:25:32			0	33193	0	0	0	17997	16730	155941	27511	963848	38654	106544	0	0	8111	796251	0	0
2024-05-06 07:26:32			0	33223	0	0	0	18010	16730	155853	27300	963761	38654	106549	0	0	8112	794705	0	0
2024-05-06 07:27:32			0	33220	0	0	0	17986	16730	155889	27843	963813	38622	106540	0	0	8112	794860	0	0
2024-05-06 07:28:32			0	33207	0	0	0	17924	16730	155917	27663	963708	38632	106516	0	0	8113	795529	0	0
2024-05-06 07:29:32			0	33204	0	0	0	17914	16720	155929	27448	963665	38630	106512	0	0	8113	795727	0	0
2024-05-06 07:30:32			0	33153	0	0	0	17942	16710	156137	27651	963604	38609	106523	0	0	8109	798404	0	0
2024-05-06 07:31:32			0	33141	0	0	0	17914	16700	156313	27358	963580	38619	106512	0	0	8109	799067	0	0
2024-05-06 07:32:32			0	33127	0	0	0	17935	16680	156329	27144	963555	38639	106520	0	0	8107	799879	0	0
2024-05-06 07:33:32			0	33101	0	0	0	17898	16680	156509	27232	963573	38627	106506	0	0	8106	801226	0	0
2024-05-06 07:34:32			0	33093	0	0	0	17914	16670	156513	27744	963539	38627	106512	0	0	8106	801684	0	0
2024-05-06 07:35:32			0	33062	0	0	0	17974	16680	156541	27685	963626	38627	106535	0	0	8103	803251	0	0
2024-05-06 07:36:32			0	33071	0	0	0	17919	16680	156457	27562	963573	38617	106514	0	0	8104	802783	0	0
2024-05-06 07:37:32			0	33078	0	0	0	17901	16680	156541	27350	963520	38627	106507	0	0	8105	802419	0	0
2024-05-06 07:38:32			0	33088	0	0	0	17883	16660	156413	27601	963548	38616	106500	0	0	8106	801987	0	0
2024-05-06 07:39:32			0	33106	0	0	0	17888	16670	156525	27201	963477	38626	106502	0	0	8107	801010	0	0
2024-05-06 07:40:32			0	33105	0	0	0	17903	16660	156405	27568	963435	38615	106508	0	0	8107	801105	0	0
2024-05-06 07:41:32			0	33070	0	0	0	17950	16640	156521	27388	963463	38613	106526	0	0	8104	803009	0	0
2024-05-06 07:42:32			0	33075	0	0	0	17986	16640	156641	27540	963489	38625	106540	0	0	8103	802749	0	0
2024-05-06 07:43:32			0	33077	0	0	0	18007	16650	156677	27232	963505	38635	106548	0	0	8103	802602	0	0
2024-05-06 07:44:32			0	33063	0	0	0	18067	16660	156821	27286	963593	38615	106571	0	0	8101	803286	0	0
2024-05-06 07:45:32			0	33101	0	0	0	18044	16660	156649	27405	963619	38636	106562	0	0	8104	801313	0	0
2024-05-06 07:46:32			0	33108	0	0	0	17999	16670	156493	27388	963697	38627	106545	0	0	8105	800906	0	0
2024-05-06 07:47:32			0	33126	0	0	0	17976	16670	156285	27483	963644	38638	106536	0	0	8107	799974	0	0
2024-05-06 07:48:32			0	33151	0	0	0	17999	16670	156353	27265	963583	38616	106545	0	0	8108	798680	0	0
2024-05-06 07:49:32			0	33125	0	0	0	18002	16660	156421	27260	963548	38616	106546	0	0	8106	800069	0	0
2024-05-06 07:50:32			0	33111	0	0	0	18044	16670	156517	27685	963556	38626	106562	0	0	8105	800751	0	0
2024-05-06 07:51:32			0	33087	0	0	0	17994	16660	156517	27450	963575	38637	106543	0	0	8104	802039	0	0
2024-05-06 07:52:32			0	33109	0	0	0	18020	16660	156509	27320	963654	38626	106553	0	0	8105	800898	0	0
2024-05-06 07:53:32			0	33087	0	0	0	18020	16660	156609	27306	963601	38626	106553	0	0	8103	802039	0	0
2024-05-06 07:54:32			0	33087	0	0	0	18033	16670	156669	27647	963609	38637	106558	0	0	8103	801996	0	0
2024-05-06 07:55:32			0	33067	0	0	0	17966	16670	156645	27800	963636	38637	106532	0	0	8103	803034	0	0
2024-05-06 07:56:32			0	33078	0	0	0	17932	16660	156661	27447	963522	38637	106519	0	0	8104	802506	0	0
2024-05-06 07:57:32			0	33056	0	0	0	17890	16660	156665	27377	963495	38626	106503	0	0	8104	803649	0	0
2024-05-06 07:58:32			0	33062	0	0	0	17849	16660	156605	27338	963461	38625	106487	0	0	8105	803337	0	0
2024-05-06 07:59:32			0	33043	0	0	0	17833	16640	156661	27731	963436	38625	106481	0	0	8104	804413	0	0
2024-05-06 08:00:32			0	33045	0	0	0	17807	16640	156597	27341	963375	38602	106471	0	0	8104	804309	0	0
2024-05-06 08:01:32			0	33029	0	0	0	17823	16630	156789	27672	963280	38590	106477	0	0	8103	805185	0	0
2024-05-06 08:02:32			0	33016	0	0	0	17802	16600	156777	27455	963212	38588	106469	0	0	8103	805993	0	0
2024-05-06 08:03:32			0	33034	0	0	0	17818	16590	156665	27504	963143	38609	106475	0	0	8103	805099	0	0
2024-05-06 08:04:32			0	33036	0	0	0	17833	16580	156877	27407	963127	38597	106481	0	0	8103	805038	0	0
2024-05-06 08:05:32			0	33013	0	0	0	17807	16580	156873	27293	963127	38597	106471	0	0	8102	806236	0	0
2024-05-06 08:06:32			0	33019	0	0	0	17742	16580	156873	27265	963092	38619	106446	0	0	8104	805924	0	0
2024-05-06 08:07:32			0	33015	0	0	0	17729	16560	156857	27436	962954	38583	106441	0	0	8104	806219	0	0
2024-05-06 08:08:32			0	33006	0	0	0	17727	16540	156837	27627	962850	38572	106440	0	0	8103	806776	0	0
2024-05-06 08:09:32			0	33001	0	0	0	17716	16520	156889	27582	962809	38591	106436	0	0	8103	807124	0	0
2024-05-06 08:10:32			0	33012	0	0	0	17714	16510	156949	27405	962766	38580	106435	0	0	8103	806594	0	0
2024-05-06 08:11:32			0	33026	0	0	0	17719	16500	156873	27504	962697	38589	106437	0	0	8104	805908	0	0
2024-05-06 08:12:32			0	33018	0	0	0	17714	16480	156889	27339	962638	38578	106435	0	0	8104	806412	0	0
2024-05-06 08:13:32			0	33014	0	0	0	17711	16470	156929	27215	962569	38577	106434	0	0	8103	806664	0	0
2024-05-06 08:14:32			0	33008	0	0	0	17683	16450	157013	27492	962518	38585	106423	0	0	8103	807064	0	0
2024-05-06 08:15:32			0	32999	0	0	0	17690	16430	157041	27343	962564	38573	106426	0	0	8103	807622	0	0
2024-05-06 08:16:32			0	33007	0	0	0	17706	16430	157105	27364	962520	38574	106432	0	0	8103	807204	0	0
2024-05-06 08:17:32			0	32995	0	0	0	17706	16420	157169	27717	962521	38594	106432	0	0	8102	807874	0	0
2024-05-06 08:18:32			0	33024	0	0	0	17698	16400	156989	27391	962470	38582	106429	0	0	8104	806448	0	0
2024-05-06 08:19:32			0	33031	0	0	0	17701	16400	156981	27623	962470	38592	106430	0	0	8104	806083	0	0
2024-05-06 08:20:32			0	33035	0	0	0	17703	16410	156881	27460	962460	38583	106431	0	0	8104	805831	0	0
2024-05-06 08:21:32			0	33050	0	0	0	17683	16400	156825	27821	962409	38592	106423	0	0	8106	805093	0	0
2024-05-06 08:22:32			0	33065	0	0	0	17680	16390	156709	27672	962367	38591	106422	0	0	8107	804356	0	0
2024-05-06 08:23:32			0	33085	0	0	0	17664	16380	156853	27272	962350	38579	106416	0	0	8108	803359	0	0
2024-05-06 08:24:32			0	33082	0	0	0	17683	16370	156693	27381	962368	38579	106423	0	0	8107	803558	0	0
2024-05-06 08:25:32			0	33072	0	0	0	17688	16370	156697	27471	962334	38579	106425	0	0	8107	804078	0	0
2024-05-06 08:26:32			0	33113	0	0	0	17667	16350	156693	27616	962309	38567	106417	0	0	8109	802035	0	0
2024-05-06 08:27:32			0	33117	0	0	0	17677	16350	156661	27396	962230	38567	106421	0	0	8110	801827	0	0
2024-05-06 08:28:32			0	33118	0	0	0	17672	16360	156553	27628	962185	38578	106419	0	0	8110	801732	0	0
2024-05-06 08:29:32			0	33127	0	0	0	17680	16350	156613	27419	962195	38578	106422	0	0	8110	801308	0	0
2024-05-06 08:30:32			0	33142	0	0	0	17672	16330	156525	27495	962197	38576	106419	0	0	8111	800617	0	0
2024-05-06 08:31:32			0	33159	0	0	0	17667	16330	156453	27862	962163	38565	106417	0	0	8112	799736	0	0
2024-05-06 08:32:32			0	33173	0	0	0	17657	16320	156337	27383	962207	38575	106413	0	0	8113	799054	0	0
2024-05-06 08:33:32			0	33171	0	0	0	17657	16320	156345	27277	962128	38575	106413	0	0	8113	799158	0	0
2024-05-06 08:34:32			0	33193	0	0	0	17667	16320	156241	27291	962199	38574	106417	0	0	8114	798020	0	0
2024-05-06 08:35:32			0	33185	0	0	0	17654	16320	156281	27481	962154	38575	106412	0	0	8114	798433	0	0
2024-05-06 08:36:32			0	33197	0	0	0	17667	16310	156261	27336	962164	38562	106417	0	0	8114	797856	0	0
2024-05-06 08:37:32			0	33185	0	0	0	17657	16310	156185	27322	962156	38573	106413	0	0	8114	798476	0	0
2024-05-06 08:38:32			0	33203	0	0	0	17662	16300	156241	27298	962148	38562	106415	0	0	8115	797589	0	0
2024-05-06 08:39:32			0	33211	0	0	0	17657	16300	156209	27530	962095	38573	106413	0	0	8115	797176	0	0
2024-05-06 08:40:32			0	33246	0	0	0	17667	16310	156129	27343	962130	38584	106417	0	0	8117	795326	0	0
2024-05-06 08:41:32			0	33256	0	0	0	17659	16300	156121	27222	962087	38583	106414	0	0	8118	794854	0	0
2024-05-06 08:42:32			0	33257	0	0	0	17651	16300	155965	27189	962061	38583	106411	0	0	8118	794802	0	0
2024-05-06 08:43:32			0	33271	0	0	0	17659	16300	155933	27474	962095	38595	106414	0	0	8119	794081	0	0
2024-05-06 08:44:32			0	33274	0	0	0	17654	16300	156009	27306	962095	38584	106412	0	0	8119	793927	0	0
2024-05-06 08:45:32			0	33281	0	0	0	17651	16290	155857	27301	962053	38572	106411	0	0	8120	793609	0	0
2024-05-06 08:46:32			0	33284	0	0	0	17657	16300	155993	27086	962061	38594	106413	0	0	8120	793412	0	0
2024-05-06 08:47:32			0	33281	0	0	0	17641	16290	155937	27467	962071	38572	106407	0	0	8120	793609	0	0
2024-05-06 08:48:32			0	33285	0	0	0	17638	16290	155909	27150	962044	38583	106406	0	0	8120	793403	0	0
2024-05-06 08:49:32			0	33279	0	0	0	17633	16280	155833	27345	962089	38572	106404	0	0	8120	793755	0	0
2024-05-06 08:50:32			0	33283	0	0	0	17628	16280	155805	27398	962054	38582	106402	0	0	8120	793549	0	0
2024-05-06 08:51:32			0	33279	0	0	0	17625	16270	155921	27393	961985	38570	106401	0	0	8120	793798	0	0
2024-05-06 08:52:32			0	33271	0	0	0	17628	16290	155953	27611	962044	38561	106402	0	0	8119	794124	0	0
2024-05-06 08:53:32			0	33277	0	0	0	17631	16260	156021	27428	961951	38581	106403	0	0	8120	793944	0	0
2024-05-06 08:54:32			0	33261	0	0	0	17625	16260	155953	27609	962003	38570	106401	0	0	8119	794768	0	0
2024-05-06 08:55:32			0	33273	0	0	0	17631	16270	155961	27402	962038	38581	106403	0	0	8119	794107	0	0
2024-05-06 08:56:32			0	33274	0	0	0	17631	16270	155925	27495	961959	38581	106403	0	0	8119	794055	0	0
2024-05-06 08:57:32			0	33277	0	0	0	17625	16270	156009	27353	961933	38570	106401	0	0	8120	793901	0	0
2024-05-06 08:58:32			0	33266	0	0	0	17631	16260	156053	27447	961951	38570	106403	0	0	8119	794510	0	0
2024-05-06 08:59:32			0	33265	0	0	0	17628	16270	155949	27493	962046	38581	106402	0	0	8119	794519	0	0
2024-05-06 09:00:32			0	33265	0	0	0	17623	16260	156005	27419	961898	38581	106400	0	0	8119	794562	0	0
2024-05-06 09:01:32			0	33268	0	0	0	17620	16260	156065	27352	961995	38569	106399	0	0	8119	794407	0	0
2024-05-06 09:02:32			0	33277	0	0	0	17602	16250	156113	27293	961961	38579	106392	0	0	8120	793986	0	0
2024-05-06 09:03:32			0	33267	0	0	0	17605	16260	156089	27502	961969	38569	106393	0	0	8119	794459	0	0
2024-05-06 09:04:32			0	33264	0	0	0	17602	16250	156005	27443	961908	38557	106392	0	0	8119	794656	0	0
2024-05-06 09:05:32			0	33279	0	0	0	17599	16250	155953	27611	961882	38590	106391	0	0	8120	793884	0	0
2024-05-06 09:06:32			0	33277	0	0	0	17597	16250	155989	27358	961934	38568	106390	0	0	8120	793986	0	0
2024-05-06 09:07:32			0	33298	0	0	0	17589	16250	155841	27367	961900	38567	106387	0	0	8121	792906	0	0
2024-05-06 09:08:32			0	33309	0	0	0	17589	16240	155889	27594	961883	38579	106387	0	0	8122	792383	0	0
2024-05-06 09:09:32			0	33314	0	0	0	17576	16240	155845	27750	961891	38579	106382	0	0	8123	792126	0	0
2024-05-06 09:10:32			0	33338	0	0	0	17576	16240	155809	27789	961839	38589	106382	0	0	8124	790893	0	0
2024-05-06 09:11:32			0	33344	0	0	0	17579	16240	155745	27627	961909	38567	106383	0	0	8124	790585	0	0
2024-05-06 09:12:32			0	33334	0	0	0	17581	16240	155653	27164	961857	38589	106384	0	0	8124	791099	0	0
2024-05-06 09:13:32			0	33355	0	0	0	17568	16240	155713	27731	961804	38579	106379	0	0	8125	790021	0	0
2024-05-06 09:14:32			0	33368	0	0	0	17574	16220	155697	27390	961806	38577	106381	0	0	8126	789440	0	0
2024-05-06 09:15:32			0	33350	0	0	0	17568	16220	155597	27412	961798	38555	106379	0	0	8125	790363	0	0
2024-05-06 09:16:32			0	33366	0	0	0	17568	16220	155625	27511	961779	38587	106379	0	0	8126	789543	0	0
2024-05-06 09:17:32			0	33350	0	0	0	17566	16220	155685	27261	961771	38577	106378	0	0	8125	790363	0	0
2024-05-06 09:18:32			0	33354	0	0	0	17574	16210	155725	27362	961763	38576	106381	0	0	8125	790201	0	0
2024-05-06 09:19:32			0	33343	0	0	0	17576	16210	155701	27138	961755	38564	106382	0	0	8124	790765	0	0
2024-05-06 09:20:32			0	33336	0	0	0	17574	16210	155773	27710	961789	38565	106381	0	0	8124	791124	0	0
2024-05-06 09:21:32			0	33320	0	0	0	17579	16200	155737	27303	961765	38564	106383	0	0	8123	791989	0	0
2024-05-06 09:22:32			0	33322	0	0	0	17581	16200	155805	27608	961773	38575	106384	0	0	8123	791886	0	0
2024-05-06 09:23:32			0	33337	0	0	0	17571	16210	155849	27360	961763	38565	106380	0	0	8124	791073	0	0
2024-05-06 09:24:32			0	33333	0	0	0	17576	16210	155897	27348	961834	38575	106382	0	0	8124	791278	0	0
2024-05-06 09:25:32			0	33348	0	0	0	17592	16210	155793	27390	961755	38564	106388	0	0	8124	790508	0	0
2024-05-06 09:26:32			0	33335	0	0	0	17605	16210	155757	27362	961816	38565	106393	0	0	8123	791176	0	0
2024-05-06 09:27:32			0	33356	0	0	0	17620	16210	155777	27493	961755	38575	106399	0	0	8124	790098	0	0
2024-05-06 09:28:32			0	33352	0	0	0	17623	16210	155721	27554	961869	38576	106400	0	0	8124	790303	0	0
2024-05-06 09:29:32			0	33341	0	0	0	17618	16220	155637	27322	961850	38577	106398	0	0	8123	790825	0	0
2024-05-06 09:30:32			0	33363	0	0	0	17623	16220	155729	27161	961885	38577	106400	0	0	8125	789696	0	0
2024-05-06 09:31:32			0	33379	0	0	0	17612	16220	155553	27639	961850	38587	106396	0	0	8126	788877	0	0
2024-05-06 09:32:32			0	33375	0	0	0	17602	16230	155521	27358	961875	38588	106392	0	0	8126	789039	0	0
2024-05-06 09:33:32			0	33382	0	0	0	17610	16220	155557	27485	961885	38566	106395	0	0	8126	788723	0	0
2024-05-06 09:34:32			0	33413	0	0	0	17599	16220	155617	27424	961885	38577	106391	0	0	8128	787137	0	0
2024-05-06 09:35:32			0	33407	0	0	0	17597	16220	155445	27490	961859	38566	106390	0	0	8128	787443	0	0
2024-05-06 09:36:32			0	33414	0	0	0	17607	16220	155317	27734	961832	38577	106394	0	0	8128	787085	0	0
2024-05-06 09:37:32			0	33411	0	0	0	17607	16220	155417	27149	961832	38577	106394	0	0	8128	787239	0	0
2024-05-06 09:38:32			0	33415	0	0	0	17607	16220	155369	27395	961832	38566	106394	0	0	8128	787034	0	0
2024-05-06 09:39:32			0	33424	0	0	0	17610	16220	155293	27454	961859	38577	106395	0	0	8128	786574	0	0
2024-05-06 09:40:32			0	33420	0	0	0	17638	16220	155337	27346	961911	38598	106406	0	0	8128	786779	0	0
2024-05-06 09:41:32			0	33421	0	0	0	17659	16220	155373	27428	961885	38577	106414	0	0	8127	786728	0	0
2024-05-06 09:42:32			0	33428	0	0	0	17675	16240	155377	27397	961962	38589	106420	0	0	8128	786285	0	0
2024-05-06 09:43:32			0	33421	0	0	0	17693	16240	155425	27526	962023	38600	106427	0	0	8127	786643	0	0
2024-05-06 09:44:32			0	33426	0	0	0	17701	16240	155389	27137	962049	38600	106430	0	0	8127	786387	0	0
2024-05-06 09:45:32			0	33448	0	0	0	17688	16260	155293	27396	962135	38581	106425	0	0	8129	785179	0	0
2024-05-06 09:46:32			0	33446	0	0	0	17703	16270	155409	27393	962152	38591	106431	0	0	8128	785239	0	0
2024-05-06 09:47:32			0	33419	0	0	0	17693	16280	155401	27665	962186	38592	106427	0	0	8127	786575	0	0
2024-05-06 09:48:32			0	33433	0	0	0	17685	16280	155365	27286	962168	38583	106424	0	0	8128	785860	0	0
2024-05-06 09:49:32			0	33419	0	0	0	17709	16290	155413	27421	962158	38583	106433	0	0	8127	786532	0	0
2024-05-06 09:50:32			0	33405	0	0	0	17709	16290	155405	27189	962184	38583	106433	0	0	8126	787248	0	0
2024-05-06 09:51:32			0	33395	0	0	0	17719	16300	155465	27081	962253	38584	106437	0	0	8125	787717	0	0
2024-05-06 09:52:32			0	33391	0	0	0	17719	16300	155477	27194	962201	38595	106437	0	0	8125	787922	0	0
2024-05-06 09:53:32			0	33386	0	0	0	17716	16310	155601	27156	962288	38595	106436	0	0	8125	788135	0	0
2024-05-06 09:54:32			0	33361	0	0	0	17729	16310	155633	27303	962235	38584	106441	0	0	8123	789415	0	0
2024-05-06 09:55:32			0	33341	0	0	0	17735	16310	155581	27293	962296	38584	106443	0	0	8122	790440	0	0
2024-05-06 09:56:32			0	33325	0	0	0	17722	16320	155669	27644	962252	38596	106438	0	0	8121	791219	0	0
2024-05-06 09:57:32			0	33323	0	0	0	17729	16320	155781	27502	962286	38607	106441	0	0	8121	791321	0	0
2024-05-06 09:58:32			0	33320	0	0	0	17729	16330	155817	27196	962303	38597	106441	0	0	8121	791433	0	0
2024-05-06 09:59:32			0	33307	0	0	0	17729	16320	155905	27621	962260	38596	106441	0	0	8120	792144	0	0
2024-05-06 10:00:32			0	33300	0	0	0	17735	16330	155905	27187	962268	38597	106443	0	0	8119	792460	0	0
2024-05-06 10:01:32			0	33303	0	0	0	17724	16330	155837	27199	962321	38586	106439	0	0	8120	792306	0	0
2024-05-06 10:02:32			0	33313	0	0	0	17722	16330	155849	27251	962303	38597	106438	0	0	8120	791792	0	0
2024-05-06 10:03:32			0	33305	0	0	0	17724	16340	155821	27194	962319	38598	106439	0	0	8120	792161	0	0
2024-05-06 10:04:32			0	33314	0	0	0	17727	16340	155769	27159	962232	38597	106440	0	0	8120	791698	0	0
2024-05-06 10:05:32			0	33346	0	0	0	17714	16330	155789	27372	962294	38597	106435	0	0	8123	790099	0	0
2024-05-06 10:06:32			0	33316	0	0	0	17711	16340	155657	27429	962284	38586	106434	0	0	8121	791595	0	0
2024-05-06 10:07:32			0	33341	0	0	0	17703	16340	155661	27119	962337	38597	106431	0	0	8123	790312	0	0
2024-05-06 10:08:32			0	33358	0	0	0	17706	16340	155677	27398	962266	38598	106432	0	0	8123	789441	0	0
2024-05-06 10:09:32			0	33357	0	0	0	17709	16330	155697	27339	962250	38597	106433	0	0	8123	789535	0	0
2024-05-06 10:10:32			0	33363	0	0	0	17706	16330	155657	27246	962329	38597	106432	0	0	8124	789227	0	0
2024-05-06 10:11:32			0	33350	0	0	0	17716	16330	155645	27462	962400	38586	106436	0	0	8123	789894	0	0
2024-05-06 10:12:32			0	33378	0	0	0	17719	16330	155589	27426	962276	38586	106437	0	0	8124	788459	0	0
2024-05-06 10:13:32			0	33399	0	0	0	17716	16330	155485	27272	962329	38597	106436	0	0	8126	787385	0	0
2024-05-06 10:14:32			0	33423	0	0	0	17719	16340	155373	27320	962364	38597	106437	0	0	8127	786116	0	0
2024-05-06 10:15:32			0	33432	0	0	0	17722	16340	155217	27414	962319	38598	106438	0	0	8128	785656	0	0
2024-05-06 10:16:32			0	33464	0	0	0	17727	16330	155129	27642	962303	38597	106440	0	0	8129	784066	0	0
2024-05-06 10:17:32			0	33496	0	0	0	17724	16340	155001	27744	962240	38598	106439	0	0	8131	782395	0	0
2024-05-06 10:18:32			0	33509	0	0	0	17719	16340	154797	27542	962364	38586	106437	0	0	8132	781734	0	0
2024-05-06 10:19:32			0	33534	0	0	0	17714	16350	154697	27504	962354	38588	106435	0	0	8134	780421	0	0
2024-05-06 10:20:32			0	33568	0	0	0	17724	16340	154697	27320	962337	38586	106439	0	0	8136	778739	0	0
2024-05-06 10:21:32			0	33578	0	0	0	17711	16340	154634	27656	962284	38597	106434	0	0	8136	778232	0	0
2024-05-06 10:22:32			0	33602	0	0	0	17719	16340	154582	27294	962266	38587	106437	0	0	8138	777017	0	0
2024-05-06 10:23:32			0	33594	0	0	0	17714	16340	154546	27531	962337	38586	106435	0	0	8137	777422	0	0
2024-05-06 10:24:32			0	33609	0	0	0	17716	16350	154566	27152	962354	38588	106436	0	0	8138	776621	0	0
2024-05-06 10:25:32			0	33624	0	0	0	17714	16330	154538	27396	962329	38586	106435	0	0	8139	775947	0	0
2024-05-06 10:26:32			0	33611	0	0	0	17711	16330	154366	27417	962276	38597	106434	0	0	8138	776604	0	0
2024-05-06 10:27:32			0	33638	0	0	0	17719	16340	154334	27507	962345	38609	106437	0	0	8140	775198	0	0
2024-05-06 10:28:32			0	33634	0	0	0	17719	16340	154342	27699	962390	38586	106437	0	0	8140	775400	0	0
2024-05-06 10:29:32			0	33646	0	0	0	17714	16330	154250	27649	962355	38586	106435	0	0	8140	774836	0	0
2024-05-06 10:30:32			0	33651	0	0	0	17714	16330	154214	27668	962329	38597	106435	0	0	8141	774584	0	0
2024-05-06 10:31:32			0	33663	0	0	0	17716	16330	154174	27656	962250	38576	106436	0	0	8141	773978	0	0
2024-05-06 10:32:32			0	33663	0	0	0	17722	16340	154166	27478	962345	38577	106438	0	0	8141	773937	0	0
2024-05-06 10:33:32			0	33659	0	0	0	17714	16340	154194	27371	962293	38587	106435	0	0	8141	774138	0	0
2024-05-06 10:34:32			0	33678	0	0	0	17714	16340	154262	27367	962372	38587	106435	0	0	8142	773180	0	0
2024-05-06 10:35:32			0	33674	0	0	0	17716	16340	154098	27473	962337	38608	106436	0	0	8142	773382	0	0
2024-05-06 10:36:32			0	33689	0	0	0	17727	16340	154042	27492	962372	38577	106440	0	0	8143	772626	0	0
2024-05-06 10:37:32			0	33704	0	0	0	17724	16340	154030	27651	962372	38598	106439	0	0	8144	771871	0	0
2024-05-06 10:38:32			0	33704	0	0	0	17732	16330	154050	27653	962250	38608	106442	0	0	8143	771913	0	0
2024-05-06 10:39:32			0	33721	0	0	0	17722	16340	154098	27341	962319	38598	106438	0	0	8145	771016	0	0
2024-05-06 10:40:32			0	33718	0	0	0	17729	16340	154046	27621	962364	38597	106441	0	0	8144	771167	0	0
2024-05-06 10:41:32			0	33704	0	0	0	17719	16340	154066	27663	962319	38587	106437	0	0	8144	771871	0	0
2024-05-06 10:42:32			0	33716	0	0	0	17722	16350	153994	27549	962388	38588	106438	0	0	8144	771226	0	0
2024-05-06 10:43:32			0	33710	0	0	0	17724	16340	154026	27441	962345	38598	106439	0	0	8144	771569	0	0
2024-05-06 10:44:32			0	33715	0	0	0	17719	16350	153894	27227	962301	38599	106437	0	0	8144	771276	0	0
2024-05-06 10:45:32			0	33719	0	0	0	17722	16330	153918	27175	962303	38597	106438	0	0	8145	771158	0	0
2024-05-06 10:46:32			0	33726	0	0	0	17724	16340	153918	27519	962345	38587	106439	0	0	8145	770765	0	0
2024-05-06 10:47:32			0	33716	0	0	0	17727	16340	154026	27550	962416	38597	106440	0	0	8144	771268	0	0
2024-05-06 10:48:32			0	33721	0	0	0	17735	16350	153974	27345	962327	38599	106443	0	0	8145	770974	0	0
2024-05-06 10:49:32			0	33727	0	0	0	17732	16340	153998	27416	962319	38598	106442	0	0	8145	770714	0	0
2024-05-06 10:50:32			0	33724	0	0	0	17735	16350	153910	27453	962441	38599	106443	0	0	8145	770824	0	0
2024-05-06 10:51:32			0	33743	0	0	0	17740	16350	153954	27460	962354	38599	106445	0	0	8146	769869	0	0
2024-05-06 10:52:32			0	33735	0	0	0	17719	16340	153910	27604	962345	38598	106437	0	0	8146	770312	0	0
2024-05-06 10:53:32			0	33750	0	0	0	17735	16340	153982	27313	962372	38609	106443	0	0	8146	769559	0	0
2024-05-06 10:54:32			0	33735	0	0	0	17719	16340	153922	27286	962372	38609	106437	0	0	8146	770312	0	0
2024-05-06 10:55:32			0	33746	0	0	0	17722	16350	153902	27812	962354	38588	106438	0	0	8146	769719	0	0
2024-05-06 10:56:32			0	33730	0	0	0	17735	16340	153854	27951	962372	38609	106443	0	0	8145	770564	0	0
2024-05-06 10:57:32			0	33743	0	0	0	17722	16340	153818	27611	962319	38587	106438	0	0	8146	769911	0	0
2024-05-06 10:58:32			0	33740	0	0	0	17729	16350	153854	27621	962354	38599	106441	0	0	8146	770020	0	0
2024-05-06 10:59:32			0	33750	0	0	0	17724	16350	153854	27637	962354	38599	106439	0	0	8146	769518	0	0
2024-05-06 11:00:32			0	33727	0	0	0	17735	16350	153846	27788	962354	38588	106443	0	0	8145	770673	0	0
2024-05-06 11:01:32			0	33739	0	0	0	17735	16350	153866	27353	962354	38610	106443	0	0	8146	770070	0	0
2024-05-06 11:02:32			0	33736	0	0	0	17724	16350	153898	28031	962406	38599	106439	0	0	8146	770221	0	0
2024-05-06 11:03:32			0	33739	0	0	0	17740	16350	153854	27488	962354	38599	106445	0	0	8145	770070	0	0
2024-05-06 11:04:32			0	33749	0	0	0	17729	16350	153958	27663	962388	38599	106441	0	0	8146	769568	0	0
2024-05-06 11:05:32			0	33750	0	0	0	17729	16350	153902	27424	962459	38588	106441	0	0	8146	769518	0	0
2024-05-06 11:06:32			0	33754	0	0	0	17740	16350	153906	27630	962415	38599	106445	0	0	8146	769317	0	0
2024-05-06 11:07:32			0	33764	0	0	0	17745	16350	153862	27791	962441	38599	106447	0	0	8147	768815	0	0
2024-05-06 11:08:32			0	33761	0	0	0	17776	16360	153870	27512	962449	38599	106459	0	0	8146	768924	0	0
2024-05-06 11:09:32			0	33757	0	0	0	17784	16360	153786	27535	962449	38599	106462	0	0	8146	769125	0	0
2024-05-06 11:10:32			0	33767	0	0	0	17794	16370	153834	27611	962545	38601	106466	0	0	8146	768582	0	0
2024-05-06 11:11:32			0	33762	0	0	0	17810	16380	153746	27812	962588	38623	106472	0	0	8146	768791	0	0
2024-05-06 11:12:32			0	33796	0	0	0	17812	16380	153658	27573	962622	38624	106473	0	0	8148	767087	0	0
2024-05-06 11:13:32			0	33792	0	0	0	17831	16380	153626	27507	962667	38612	106480	0	0	8147	767287	0	0
2024-05-06 11:14:32			0	33823	0	0	0	17838	16390	153582	27751	962691	38625	106483	0	0	8149	765695	0	0
2024-05-06 11:15:32			0	33836	0	0	0	17841	16400	153506	27469	962760	38603	106484	0	0	8150	765004	0	0
2024-05-06 11:16:32			0	33827	0	0	0	17862	16420	153458	27248	962767	38616	106492	0	0	8149	765371	0	0
2024-05-06 11:17:32			0	33841	0	0	0	17877	16420	153422	27445	962872	38626	106498	0	0	8149	764671	0	0
2024-05-06 11:18:32			0	33862	0	0	0	17906	16440	153422	27419	962818	38618	106509	0	0	8150	763541	0	0
2024-05-06 11:19:32			0	33861	0	0	0	17916	16440	153382	27429	962852	38628	106513	0	0	8150	763590	0	0
2024-05-06 11:20:32			0	33856	0	0	0	17916	16450	153278	27739	962940	38619	106513	0	0	8150	763799	0	0
2024-05-06 11:21:32			0	33852	0	0	0	17922	16460	153354	27398	962982	38630	106515	0	0	8150	763957	0	0
2024-05-06 11:22:32			0	33835	0	0	0	17929	16470	153374	27514	962911	38630	106518	0	0	8148	764764	0	0
2024-05-06 11:23:32			0	33833	0	0	0	17935	16480	153446	27637	963007	38631	106520	0	0	8148	764823	0	0
2024-05-06 11:24:32			0	33817	0	0	0	17940	16490	153410	27833	963102	38632	106522	0	0	8147	765581	0	0
2024-05-06 11:25:32			0	33829	0	0	0	17950	16500	153394	27757	963101	38634	106526	0	0	8148	764940	0	0
2024-05-06 11:26:32			0	33807	0	0	0	17953	16510	153510	27514	963083	38634	106527	0	0	8147	765998	0	0
2024-05-06 11:27:32			0	33801	0	0	0	17940	16510	153610	27679	963136	38634	106522	0	0	8146	766298	0	0
2024-05-06 11:28:32			0	33791	0	0	0	17945	16520	153522	27843	963152	38646	106524	0	0	8146	766757	0	0
2024-05-06 11:29:32			0	33784	0	0	0	17963	16530	153542	27426	963221	38636	106531	0	0	8145	767066	0	0
2024-05-06 11:30:32			0	33786	0	0	0	17961	16530	153530	27507	963177	38636	106530	0	0	8145	766965	0	0
2024-05-06 11:31:32			0	33772	0	0	0	17968	16540	153618	27582	963272	38648	106533	0	0	8144	767625	0	0
2024-05-06 11:32:32			0	33777	0	0	0	17981	16550	153638	27805	963307	38637	106538	0	0	8145	767333	0	0
2024-05-06 11:33:32			0	33769	0	0	0	17979	16550	153770	27836	963333	38648	106537	0	0	8144	767734	0	0
2024-05-06 11:34:32			0	33766	0	0	0	17976	16560	153730	27784	963323	38627	106536	0	0	8144	767842	0	0
2024-05-06 11:35:32			0	33767	0	0	0	17994	16550	153682	27744	963333	38626	106543	0	0	8144	767834	0	0
2024-05-06 11:36:32			0	33762	0	0	0	17999	16580	153694	27691	963356	38640	106545	0	0	8144	767960	0	0
2024-05-06 11:37:32			0	33759	0	0	0	18002	16560	153694	27767	963358	38639	106546	0	0	8143	768193	0	0
2024-05-06 11:38:32			0	33759	0	0	0	18005	16580	153614	27878	963435	38651	106547	0	0	8143	768110	0	0
2024-05-06 11:39:32			0	33771	0	0	0	18015	16590	153582	28020	963451	38642	106551	0	0	8144	767467	0	0
2024-05-06 11:40:32			0	33758	0	0	0	18007	16580	153514	27828	963469	38641	106548	0	0	8143	768160	0	0
2024-05-06 11:41:32			0	33774	0	0	0	18018	16580	153618	27868	963443	38641	106552	0	0	8144	767359	0	0
2024-05-06 11:42:32			0	33778	0	0	0	18025	16590	153546	27968	963425	38653	106555	0	0	8144	767117	0	0
2024-05-06 11:43:32			0	33771	0	0	0	18031	16600	153662	27904	963468	38642	106557	0	0	8144	767426	0	0
2024-05-06 11:44:32			0	33761	0	0	0	18038	16600	153670	27426	963502	38665	106560	0	0	8143	767927	0	0
2024-05-06 11:45:32			0	33748	0	0	0	18028	16610	153606	27909	963519	38632	106556	0	0	8142	768536	0	0
2024-05-06 11:46:32			0	33757	0	0	0	18041	16620	153538	27711	963615	38655	106561	0	0	8143	768044	0	0
2024-05-06 11:47:32			0	33750	0	0	0	18044	16620	153518	27897	963562	38644	106562	0	0	8142	768395	0	0
2024-05-06 11:48:32			0	33760	0	0	0	18057	16620	153642	27438	963588	38644	106567	0	0	8143	767894	0	0
2024-05-06 11:49:32			0	33760	0	0	0	18062	16630	153586	28006	963605	38656	106569	0	0	8143	767852	0	0
2024-05-06 11:50:32			0	33755	0	0	0	18057	16640	153650	27831	963647	38646	106567	0	0	8142	768061	0	0
2024-05-06 11:51:32			0	33778	0	0	0	18072	16640	153586	27769	963674	38657	106573	0	0	8144	766909	0	0
2024-05-06 11:52:32			0	33746	0	0	0	18049	16640	153546	27788	963674	38657	106564	0	0	8142	768512	0	0
2024-05-06 11:53:32			0	33758	0	0	0	18070	16660	153522	27859	963680	38659	106572	0	0	8142	767828	0	0
2024-05-06 11:54:32			0	33756	0	0	0	18075	16650	153498	27795	963708	38647	106574	0	0	8142	767969	0	0
2024-05-06 11:55:32			0	33746	0	0	0	18083	16660	153606	27809	963706	38659	106577	0	0	8142	768429	0	0
2024-05-06 11:56:32			0	33757	0	0	0	18077	16660	153514	27762	963733	38670	106575	0	0	8142	767878	0	0
2024-05-06 11:57:32			0	33763	0	0	0	18077	16670	153518	27653	963829	38649	106575	0	0	8143	767536	0	0
2024-05-06 11:58:32			0	33761	0	0	0	18101	16680	153514	27462	963811	38670	106584	0	0	8142	767594	0	0
2024-05-06 11:59:32			0	33769	0	0	0	18119	16680	153538	27639	963819	38671	106591	0	0	8142	767194	0	0
2024-05-06 12:00:32			0	33750	0	0	0	18124	16690	153526	27710	963888	38672	106593	0	0	8141	768104	0	0
2024-05-06 12:01:32			0	33748	0	0	0	18132	16690	153602	27628	963941	38640	106596	0	0	8141	768204	0	0
2024-05-06 12:02:32			0	33752	0	0	0	18145	16690	153638	27549	963914	38672	106601	0	0	8141	768003	0	0
2024-05-06 12:03:32			0	33752	0	0	0	18171	16710	153502	27357	964026	38664	106611	0	0	8141	767920	0	0
2024-05-06 12:04:32			0	33750	0	0	0	18148	16720	153502	27595	964061	38653	106602	0	0	8141	767979	0	0
2024-05-06 12:05:32			0	33747	0	0	0	18168	16720	153590	27351	963929	38664	106610	0	0	8140	768129	0	0
2024-05-06 12:06:32			0	33757	0	0	0	18174	16730	153658	27415	964077	38665	106612	0	0	8141	767587	0	0
2024-05-06 12:07:32			0	33733	0	0	0	18174	16740	153526	27807	964094	38665	106612	0	0	8140	768747	0	0
2024-05-06 12:08:32			0	33745	0	0	0	18161	16740	153666	27843	964094	38676	106607	0	0	8141	768146	0	0
2024-05-06 12:09:32			0	33747	0	0	0	18174	16750	153614	27913	964084	38666	106612	0	0	8141	768004	0	0
2024-05-06 12:10:32			0	33756	0	0	0	18186	16760	153614	27480	964171	38677	106617	0	0	8141	767512	0	0
2024-05-06 12:11:32			0	33757	0	0	0	18181	16750	153614	27682	964110	38688	106615	0	0	8141	767504	0	0
2024-05-06 12:12:32			0	33769	0	0	0	18184	16770	153422	27481	964188	38678	106616	0	0	8142	766820	0	0
2024-05-06 12:13:32			0	33772	0	0	0	18199	16770	153394	27497	964188	38678	106622	0	0	8142	766670	0	0
2024-05-06 12:14:32			0	33784	0	0	0	18218	16780	153382	27848	964230	38680	106629	0	0	8142	766028	0	0
2024-05-06 12:15:32			0	33772	0	0	0	18218	16780	153378	27814	964239	38680	106629	0	0	8141	766628	0	0
2024-05-06 12:16:32			0	33783	0	0	0	18210	16780	153262	27431	964257	38669	106626	0	0	8142	766078	0	0
2024-05-06 12:17:32			0	33796	0	0	0	18199	16790	153286	27698	964194	38680	106622	0	0	8143	765387	0	0
2024-05-06 12:18:32			0	33809	0	0	0	18218	16790	153162	27757	964281	38670	106629	0	0	8144	764738	0	0
2024-05-06 12:19:32			0	33779	0	0	0	18233	16800	153262	27561	964290	38670	106635	0	0	8142	766195	0	0
2024-05-06 12:20:32			0	33793	0	0	0	18228	16790	153242	27706	964281	38681	106633	0	0	8142	765537	0	0
2024-05-06 12:21:32			0	33788	0	0	0	18223	16820	153274	27599	964349	38672	106631	0	0	8142	765662	0	0
2024-05-06 12:22:32			0	33798	0	0	0	18212	16820	153178	27737	964402	38672	106627	0	0	8143	765163	0	0
2024-05-06 12:23:32			0	33803	0	0	0	18205	16810	153186	27623	964359	38693	106624	0	0	8144	764954	0	0
2024-05-06 12:24:32			0	33797	0	0	0	18194	16810	153198	27892	964288	38682	106620	0	0	8143	765254	0	0
2024-05-06 12:25:32			0	33809	0	0	0	18212	16810	153278	27556	964341	38682	106627	0	0	8144	764655	0	0
2024-05-06 12:26:32			0	33821	0	0	0	18207	16820	153194	28020	964331	38672	106625	0	0	8145	764015	0	0
2024-05-06 12:27:32			0	33805	0	0	0	18210	16820	153146	27937	964331	38672	106626	0	0	8144	764813	0	0
2024-05-06 12:28:32			0	33815	0	0	0	18205	16820	153094	27819	964410	38683	106624	0	0	8144	764314	0	0
2024-05-06 12:29:32			0	33831	0	0	0	18215	16820	152994	27982	964331	38672	106628	0	0	8145	763516	0	0
2024-05-06 12:30:32			0	33828	0	0	0	18218	16830	153070	28022	964392	38672	106629	0	0	8145	763624	0	0
2024-05-06 12:31:32			0	33841	0	0	0	18199	16820	153102	27713	964349	38683	106622	0	0	8146	763018	0	0
2024-05-06 12:32:32			0	33839	0	0	0	18189	16820	153090	27607	964383	38683	106618	0	0	8146	763117	0	0
2024-05-06 12:33:32			0	33852	0	0	0	18179	16830	153006	27947	964373	38673	106614	0	0	8147	762428	0	0
2024-05-06 12:34:32			0	33849	0	0	0	18179	16820	152886	28086	964331	38662	106614	0	0	8147	762619	0	0
2024-05-06 12:35:32			0	33876	0	0	0	18179	16820	152914	27871	964349	38672	106614	0	0	8148	761275	0	0
2024-05-06 12:36:32			0	33888	0	0	0	18192	16820	152774	28090	964304	38672	106619	0	0	8149	760678	0	0
2024-05-06 12:37:32			0	33888	0	0	0	18199	16820	152790	27991	964349	38672	106622	0	0	8149	760678	0	0
2024-05-06 12:38:32			0	33915	0	0	0	18197	16830	152774	27987	964392	38662	106621	0	0	8150	759296	0	0
2024-05-06 12:39:32			0	33894	0	0	0	18184	16830	152670	28069	964392	38683	106616	0	0	8149	760339	0	0
2024-05-06 12:40:32			0	33909	0	0	0	18194	16820	152694	27848	964357	38683	106620	0	0	8150	759635	0	0
2024-05-06 12:41:32			0	33935	0	0	0	18202	16820	152714	27597	964383	38662	106623	0	0	8151	758345	0	0
2024-05-06 12:42:32			0	33918	0	0	0	18192	16820	152610	27939	964383	38672	106619	0	0	8151	759188	0	0
2024-05-06 12:43:32			0	33913	0	0	0	18171	16830	152686	28008	964313	38683	106611	0	0	8151	759395	0	0
2024-05-06 12:44:32			0	33916	0	0	0	18176	16820	152674	27770	964383	38672	106613	0	0	8151	759287	0	0
2024-05-06 12:45:32			0	33906	0	0	0	18176	16830	152658	27840	964313	38662	106613	0	0	8150	759743	0	0
2024-05-06 12:46:32			0	33919	0	0	0	18181	16830	152666	27947	964339	38662	106615	0	0	8151	759098	0	0
2024-05-06 12:47:32			0	33926	0	0	0	18184	16820	152698	27524	964304	38662	106616	0	0	8151	758791	0	0
2024-05-06 12:48:32			0	33924	0	0	0	18197	16820	152570	27516	964383	38683	106621	0	0	8151	758890	0	0
2024-05-06 12:49:32			0	33932	0	0	0	18194	16830	152530	28011	964313	38683	106620	0	0	8151	758453	0	0
2024-05-06 12:50:32			0	33947	0	0	0	18184	16830	152502	27815	964400	38684	106616	0	0	8152	757709	0	0
2024-05-06 12:51:32			0	33944	0	0	0	18186	16820	152582	27868	964349	38683	106617	0	0	8152	757899	0	0
2024-05-06 12:52:32			0	33926	0	0	0	18184	16820	152534	27703	964383	38672	106616	0	0	8151	758791	0	0
2024-05-06 12:53:32			0	33954	0	0	0	18181	16820	152510	27966	964304	38672	106615	0	0	8153	757403	0	0
2024-05-06 12:54:32			0	33960	0	0	0	18181	16820	152522	27868	964349	38683	106615	0	0	8153	757106	0	0
2024-05-06 12:55:32			0	33966	0	0	0	18186	16820	152506	27966	964331	38683	106617	0	0	8153	756809	0	0
2024-05-06 12:56:32			0	33970	0	0	0	18184	16830	152534	27933	964313	38694	106616	0	0	8154	756570	0	0
2024-05-06 12:57:32			0	33991	0	0	0	18181	16820	152426	27625	964349	38683	106615	0	0	8155	755572	0	0
2024-05-06 12:58:32			0	33994	0	0	0	18186	16820	152338	27528	964304	38683	106617	0	0	8155	755424	0	0
2024-05-06 12:59:32			0	33985	0	0	0	18189	16820	152398	27802	964323	38672	106618	0	0	8154	755869	0	0
2024-05-06 13:00:32			0	34014	0	0	0	18181	16820	152234	27462	964357	38662	106615	0	0	8156	754435	0	0
2024-05-06 13:01:32			0	34007	0	0	0	18176	16820	152274	27798	964323	38672	106613	0	0	8156	754781	0	0
2024-05-06 13:02:32			0	34024	0	0	0	18186	16810	152318	27885	964314	38682	106617	0	0	8157	753983	0	0
2024-05-06 13:03:32			0	34023	0	0	0	18171	16820	152210	27966	964304	38694	106611	0	0	8157	753991	0	0
2024-05-06 13:04:32			0	34048	0	0	0	18171	16820	152230	27620	964296	38662	106611	0	0	8158	752758	0	0
2024-05-06 13:05:32			0	34031	0	0	0	18176	16820	152190	28029	964296	38672	106613	0	0	8157	753596	0	0
2024-05-06 13:06:32			0	34023	0	0	0	18168	16810	152186	27557	964262	38671	106610	0	0	8157	754032	0	0
2024-05-06 13:07:32			0	34054	0	0	0	18166	16820	152206	28041	964296	38672	106609	0	0	8159	752462	0	0
2024-05-06 13:08:32			0	34034	0	0	0	18163	16810	152170	27601	964288	38671	106608	0	0	8158	753489	0	0
2024-05-06 13:09:32			0	34033	0	0	0	18166	16810	152254	27902	964262	38682	106609	0	0	8158	753538	0	0
2024-05-06 13:10:32			0	34044	0	0	0	18158	16810	152222	27718	964288	38671	106606	0	0	8158	752996	0	0
2024-05-06 13:11:32			0	34048	0	0	0	18163	16810	152098	27585	964262	38661	106608	0	0	8158	752799	0	0
2024-05-06 13:12:32			0	34053	0	0	0	18168	16810	152066	27736	964253	38670	106610	0	0	8159	752552	0	0
2024-05-06 13:13:32			0	34057	0	0	0	18163	16800	152118	27670	964219	38660	106608	0	0	8159	752396	0	0
2024-05-06 13:14:32			0	34063	0	0	0	18166	16810	152166	28031	964280	38670	106609	0	0	8159	752059	0	0
2024-05-06 13:15:32			0	34072	0	0	0	18163	16810	152014	27947	964253	38670	106608	0	0	8160	751616	0	0
2024-05-06 13:16:32			0	34088	0	0	0	18163	16790	152102	27519	964281	38692	106608	0	0	8161	750910	0	0
2024-05-06 13:17:32			0	34062	0	0	0	18155	16800	152066	27623	964219	38670	106605	0	0	8159	752149	0	0
2024-05-06 13:18:32			0	34052	0	0	0	18153	16800	152174	27687	964219	38670	106604	0	0	8159	752642	0	0
2024-05-06 13:19:32			0	34046	0	0	0	18174	16790	152194	27897	964247	38669	106612	0	0	8158	752979	0	0
2024-05-06 13:20:32			0	34049	0	0	0	18176	16810	152218	27524	964227	38670	106613	0	0	8158	752749	0	0
2024-05-06 13:21:32			0	34057	0	0	0	18210	16800	152270	27822	964290	38693	106626	0	0	8158	752396	0	0
2024-05-06 13:22:32			0	34042	0	0	0	18199	16810	152230	27737	964385	38670	106622	0	0	8158	753094	0	0
2024-05-06 13:23:32			0	34049	0	0	0	18205	16810	152282	27691	964367	38694	106624	0	0	8158	752749	0	0
2024-05-06 13:24:32			0	34036	0	0	0	18192	16800	152290	27989	964324	38670	106619	0	0	8157	753431	0	0
2024-05-06 13:25:32			0	34036	0	0	0	18199	16820	152318	27781	964349	38683	106622	0	0	8157	753350	0	0
2024-05-06 13:26:32			0	34023	0	0	0	18210	16820	152298	28070	964349	38694	106626	0	0	8156	753991	0	0
2024-05-06 13:27:32			0	34018	0	0	0	18215	16820	152314	28032	964357	38672	106628	0	0	8156	754238	0	0
2024-05-06 13:28:32			0	34021	0	0	0	18215	16820	152314	28155	964349	38683	106628	0	0	8156	754090	0	0
2024-05-06 13:29:32			0	34043	0	0	0	18215	16820	152146	27654	964349	38683	106628	0	0	8157	753004	0	0
2024-05-06 13:30:32			0	34049	0	0	0	18215	16820	152182	27419	964383	38694	106628	0	0	8158	752708	0	0
2024-05-06 13:31:32			0	34069	0	0	0	18205	16830	152170	27661	964444	38672	106624	0	0	8159	751682	0	0
2024-05-06 13:32:32			0	34076	0	0	0	18205	16830	152094	27869	964365	38683	106624	0	0	8159	751338	0	0
2024-05-06 13:33:32			0	34081	0	0	0	18228	16830	152190	27751	964392	38683	106633	0	0	8159	751092	0	0
2024-05-06 13:34:32			0	34087	0	0	0	18215	16830	152074	27490	964418	38694	106628	0	0	8160	750796	0	0
2024-05-06 13:35:32			0	34083	0	0	0	18257	16830	152022	27497	964453	38684	106644	0	0	8159	750993	0	0
2024-05-06 13:36:32			0	34127	0	0	0	18251	16840	151946	27431	964522	38697	106642	0	0	8162	748790	0	0
2024-05-06 13:37:32			0	34180	0	0	0	18244	16840	151754	27512	964514	38696	106639	0	0	8165	746192	0	0
2024-05-06 13:38:32			0	34212	0	0	0	18233	16860	151650	27455	964599	38698	106635	0	0	8167	744545	0	0
2024-05-06 13:39:32			0	34225	0	0	0	18228	16850	151462	27887	964485	38686	106633	0	0	8168	743951	0	0
2024-05-06 13:40:32			0	34221	0	0	0	18241	16860	151486	27829	964494	38687	106638	0	0	8167	744106	0	0
2024-05-06 13:41:32			0	34236	0	0	0	18241	16860	151590	27670	964546	38687	106638	0	0	8168	743373	0	0
2024-05-06 13:42:32			0	34250	0	0	0	18264	16850	151462	27417	964565	38686	106647	0	0	8169	742730	0	0
2024-05-06 13:43:32			0	34279	0	0	0	18238	16860	151186	27906	964660	38676	106637	0	0	8171	741277	0	0
2024-05-06 13:44:32			0	34336	0	0	0	18249	16870	150878	27545	964651	38688	106641	0	0	8174	738464	0	0
2024-05-06 13:45:32			0	34360	0	0	0	18241	16870	150795	27876	964642	38699	106638	0	0	8175	737300	0	0
2024-05-06 13:46:32			0	34389	0	0	0	18233	16860	150635	27509	964581	38688	106635	0	0	8177	735934	0	0
2024-05-06 13:47:32			0	34370	0	0	0	18270	16880	150679	27776	964580	38700	106649	0	0	8175	736775	0	0
2024-05-06 13:48:32			0	34407	0	0	0	18275	16880	150611	27592	964720	38689	106651	0	0	8178	734983	0	0
2024-05-06 13:49:32			0	34452	0	0	0	18293	16890	150315	27543	964702	38700	106658	0	0	8180	732768	0	0
2024-05-06 13:50:32			0	34497	0	0	0	18303	16890	150095	27505	964702	38689	106662	0	0	8182	730599	0	0
2024-05-06 13:51:32			0	34585	0	0	0	18298	16880	149771	27812	964764	38688	106660	0	0	8187	726410	0	0
2024-05-06 13:52:32			0	34618	0	0	0	18290	16910	149647	27599	964814	38692	106657	0	0	8189	724711	0	0
2024-05-06 13:53:32			0	34630	0	0	0	18270	16910	149635	27796	964787	38703	106649	0	0	8190	724137	0	0
2024-05-06 13:54:32			0	34633	0	0	0	18259	16910	149575	27540	964769	38703	106645	0	0	8191	723993	0	0
2024-05-06 13:55:32			0	34609	0	0	0	18264	16900	149647	27588	964726	38691	106647	0	0	8189	725181	0	0
2024-05-06 13:56:32			0	34582	0	0	0	18272	16900	149839	27509	964744	38690	106650	0	0	8188	726475	0	0
2024-05-06 13:57:32			0	34536	0	0	0	18251	16900	149951	27902	964771	38690	106642	0	0	8185	728683	0	0
2024-05-06 13:58:32			0	34526	0	0	0	18257	16910	150091	27675	964761	38681	106644	0	0	8185	729124	0	0
2024-05-06 13:59:32			0	34483	0	0	0	18257	16900	150175	27757	964726	38680	106644	0	0	8182	731233	0	0
2024-05-06 14:00:32			0	34491	0	0	0	18272	16910	150255	27581	964708	38692	106650	0	0	8182	730808	0	0
2024-05-06 14:01:32			0	34478	0	0	0	18290	16910	150191	27871	964743	38692	106657	0	0	8181	731435	0	0
2024-05-06 14:02:32			0	34495	0	0	0	18283	16900	150095	27847	964753	38691	106654	0	0	8182	730656	0	0
2024-05-06 14:03:32			0	34527	0	0	0	18264	16910	149979	27923	964822	38703	106647	0	0	8185	729076	0	0
2024-05-06 14:04:32			0	34533	0	0	0	18288	16910	149847	27828	964761	38692	106656	0	0	8185	728788	0	0
2024-05-06 14:05:32			0	34554	0	0	0	18285	16920	149939	27689	964856	38692	106655	0	0	8186	727739	0	0
2024-05-06 14:06:32			0	34576	0	0	0	18285	16920	149807	27932	964812	38681	106655	0	0	8187	726684	0	0
2024-05-06 14:07:32			0	34592	0	0	0	18272	16920	149651	27770	964804	38713	106650	0	0	8188	725917	0	0
2024-05-06 14:08:32			0	34621	0	0	0	18267	16920	149675	27810	964804	38692	106648	0	0	8190	724528	0	0
2024-05-06 14:09:32			0	34610	0	0	0	18272	16920	149695	27817	964812	38693	106650	0	0	8189	725054	0	0
2024-05-06 14:10:32			0	34605	0	0	0	18275	16910	149499	27736	964769	38703	106651	0	0	8189	725333	0	0
2024-05-06 14:11:32			0	34598	0	0	0	18275	16910	149671	27814	964708	38703	106651	0	0	8188	725668	0	0
2024-05-06 14:12:32			0	34597	0	0	0	18272	16920	149719	27918	964830	38692	106650	0	0	8189	725677	0	0
2024-05-06 14:13:32			0	34607	0	0	0	18264	16910	149727	27613	964743	38692	106647	0	0	8189	725237	0	0
2024-05-06 14:14:32			0	34617	0	0	0	18262	16910	149575	27928	964769	38681	106646	0	0	8190	724759	0	0
2024-05-06 14:15:32			0	34628	0	0	0	18288	16910	149479	27871	964795	38681	106656	0	0	8190	724232	0	0
2024-05-06 14:16:32			0	34634	0	0	0	18277	16920	149523	27705	964883	38703	106652	0	0	8191	723906	0	0
2024-05-06 14:17:32			0	34621	0	0	0	18296	16920	149555	28003	964856	38692	106659	0	0	8189	724528	0	0
2024-05-06 14:18:32			0	34624	0	0	0	18283	16930	149439	27550	964846	38705	106654	0	0	8190	724345	0	0
2024-05-06 14:19:32			0	34613	0	0	0	18275	16920	149667	27608	964856	38703	106651	0	0	8189	724911	0	0
2024-05-06 14:20:32			0	34596	0	0	0	18272	16930	149691	27644	964828	38705	106650	0	0	8189	725685	0	0
2024-05-06 14:21:32			0	34581	0	0	0	18290	16920	149743	27479	964804	38692	106657	0	0	8187	726444	0	0
2024-05-06 14:22:32			0	34578	0	0	0	18306	16920	149779	27769	964812	38681	106663	0	0	8187	726588	0	0
2024-05-06 14:23:32			0	34568	0	0	0	18272	16920	149779	27678	964812	38693	106650	0	0	8187	727067	0	0
2024-05-06 14:24:32			0	34582	0	0	0	18280	16910	149759	27308	964795	38692	106653	0	0	8187	726435	0	0
2024-05-06 14:25:32			0	34550	0	0	0	18306	16920	149863	27544	964812	38693	106663	0	0	8185	727931	0	0
2024-05-06 14:26:32			0	34519	0	0	0	18267	16920	149959	27734	964812	38693	106648	0	0	8184	729421	0	0
2024-05-06 14:27:32			0	34525	0	0	0	18267	16920	149851	27829	964812	38693	106648	0	0	8185	729133	0	0
2024-05-06 14:28:32			0	34524	0	0	0	18244	16920	149951	27666	964777	38681	106639	0	0	8185	729181	0	0
2024-05-06 14:29:32			0	34519	0	0	0	18251	16920	150031	27703	964785	38693	106642	0	0	8184	729421	0	0
2024-05-06 14:30:32			0	34463	0	0	0	18264	16920	150171	27265	964785	38693	106647	0	0	8181	732118	0	0
2024-05-06 14:31:32			0	34437	0	0	0	18267	16910	150363	27313	964743	38703	106648	0	0	8179	733413	0	0
2024-05-06 14:32:32			0	34431	0	0	0	18251	16910	150435	27438	964743	38713	106642	0	0	8179	733703	0	0
2024-05-06 14:33:32			0	34428	0	0	0	18244	16910	150419	27440	964787	38692	106639	0	0	8179	733848	0	0
2024-05-06 14:34:32			0	34430	0	0	0	18231	16910	150387	27563	964734	38681	106634	0	0	8180	733751	0	0
2024-05-06 14:35:32			0	34446	0	0	0	18225	16900	150343	27507	964700	38680	106632	0	0	8181	733018	0	0
2024-05-06 14:36:32			0	34405	0	0	0	18246	16900	150539	27743	964700	38702	106640	0	0	8178	735000	0	0
2024-05-06 14:37:32			0	34383	0	0	0	18246	16900	150511	27928	964692	38679	106640	0	0	8177	736065	0	0
2024-05-06 14:38:32			0	34380	0	0	0	18272	16910	150571	28145	964761	38681	106650	0	0	8176	736170	0	0
2024-05-06 14:39:32			0	34389	0	0	0	18264	16900	150651	27998	964753	38691	106647	0	0	8177	735774	0	0
2024-05-06 14:40:32			0	34381	0	0	0	18244	16910	150587	27878	964761	38703	106639	0	0	8177	736122	0	0
2024-05-06 14:41:32			0	34375	0	0	0	18259	16910	150583	27649	964761	38703	106645	0	0	8176	736413	0	0
2024-05-06 14:42:32			0	34384	0	0	0	18246	16900	150691	27585	964718	38679	106640	0	0	8177	736017	0	0
2024-05-06 14:43:32			0	34391	0	0	0	18231	16910	150559	27500	964682	38692	106634	0	0	8177	735638	0	0
2024-05-06 14:44:32			0	34403	0	0	0	18241	16900	150615	27237	964692	38679	106638	0	0	8178	735097	0	0
2024-05-06 14:45:32			0	34391	0	0	0	18228	16900	150603	27731	964692	38701	106633	0	0	8177	735678	0	0
2024-05-06 14:46:32			0	34375	0	0	0	18236	16890	150631	27448	964683	38678	106636	0	0	8176	736492	0	0
2024-05-06 14:47:32			0	34370	0	0	0	18236	16890	150599	27796	964596	38700	106636	0	0	8176	736735	0	0
2024-05-06 14:48:32			0	34351	0	0	0	18231	16890	150707	27353	964649	38678	106634	0	0	8175	737656	0	0
2024-05-06 14:49:32			0	34324	0	0	0	18228	16880	150778	27789	964632	38677	106633	0	0	8174	739007	0	0
2024-05-06 14:50:32			0	34322	0	0	0	18233	16870	150806	27715	964624	38676	106635	0	0	8173	739144	0	0
2024-05-06 14:51:32			0	34311	0	0	0	18233	16890	150914	27402	964675	38700	106635	0	0	8173	739599	0	0
2024-05-06 14:52:32			0	34283	0	0	0	18241	16870	151022	27604	964571	38676	106638	0	0	8171	741042	0	0
2024-05-06 14:53:32			0	34299	0	0	0	18244	16870	150930	27685	964563	38688	106639	0	0	8172	740263	0	0
2024-05-06 14:54:32			0	34291	0	0	0	18233	16880	150858	27569	964527	38688	106635	0	0	8172	740612	0	0
2024-05-06 14:55:32			0	34286	0	0	0	18233	16870	150894	27562	964677	38699	106635	0	0	8171	740896	0	0
2024-05-06 14:56:32			0	34283	0	0	0	18241	16870	150986	27479	964571	38688	106638	0	0	8171	741042	0	0
2024-05-06 14:57:32			0	34259	0	0	0	18244	16870	151010	27576	964571	38699	106639	0	0	8170	742211	0	0
2024-05-06 14:58:32			0	34281	0	0	0	18241	16870	151070	27715	964642	38688	106638	0	0	8171	741139	0	0
2024-05-06 14:59:32			0	34255	0	0	0	18246	16880	151118	27524	964659	38688	106640	0	0	8169	742366	0	0
2024-05-06 15:00:32			0	34268	0	0	0	18249	16880	150982	27838	964685	38688	106641	0	0	8170	741732	0	0
2024-05-06 15:01:32			0	34286	0	0	0	18241	16890	151050	27668	964683	38711	106638	0	0	8171	740815	0	0
2024-05-06 15:02:32			0	34282	0	0	0	18257	16880	151006	27543	964685	38688	106644	0	0	8171	741050	0	0
2024-05-06 15:03:32			0	34291	0	0	0	18254	16890	151054	27609	964649	38689	106643	0	0	8171	740572	0	0
2024-05-06 15:04:32			0	34275	0	0	0	18254	16880	151034	27523	964685	38688	106643	0	0	8170	741391	0	0
2024-05-06 15:05:32			0	34268	0	0	0	18249	16890	151110	27793	964728	38689	106641	0	0	8170	741692	0	0
2024-05-06 15:06:32			0	34260	0	0	0	18251	16890	151122	27561	964702	38678	106642	0	0	8170	742082	0	0
2024-05-06 15:07:32			0	34266	0	0	0	18251	16900	151022	27552	964718	38690	106642	0	0	8170	741749	0	0
2024-05-06 15:08:32			0	34259	0	0	0	18244	16890	151106	27798	964683	38689	106639	0	0	8170	742131	0	0
2024-05-06 15:09:32			0	34254	0	0	0	18249	16890	151170	27689	964702	38689	106641	0	0	8169	742374	0	0
2024-05-06 15:10:32			0	34263	0	0	0	18259	16880	151066	27516	964685	38700	106645	0	0	8170	741976	0	0
2024-05-06 15:11:32			0	34249	0	0	0	18251	16890	151158	27415	964710	38689	106642	0	0	8169	742618	0	0
2024-05-06 15:12:32			0	34264	0	0	0	18262	16870	151102	27640	964703	38688	106646	0	0	8170	741967	0	0
2024-05-06 15:13:32			0	34260	0	0	0	18257	16890	151126	27684	964781	38711	106644	0	0	8169	742082	0	0
2024-05-06 15:14:32			0	34259	0	0	0	18262	16890	151098	27795	964683	38689	106646	0	0	8169	742131	0	0
2024-05-06 15:15:32			0	34268	0	0	0	18275	16900	151058	27727	964771	38690	106651	0	0	8170	741652	0	0
2024-05-06 15:16:32			0	34268	0	0	0	18280	16890	151078	27864	964710	38700	106653	0	0	8170	741692	0	0
2024-05-06 15:17:32			0	34275	0	0	0	18270	16890	151038	27843	964702	38700	106649	0	0	8170	741351	0	0
2024-05-06 15:18:32			0	34292	0	0	0	18288	16900	151046	27743	964753	38712	106656	0	0	8171	740483	0	0
2024-05-06 15:19:32			0	34304	0	0	0	18270	16900	151038	27689	964753	38702	106649	0	0	8172	739899	0	0
2024-05-06 15:20:32			0	34294	0	0	0	18275	16900	151010	27369	964718	38690	106651	0	0	8171	740386	0	0
2024-05-06 15:21:32			0	34285	0	0	0	18267	16900	151034	27715	964753	38691	106648	0	0	8171	740824	0	0
2024-05-06 15:22:32			0	34293	0	0	0	18272	16890	151094	27414	964710	38711	106650	0	0	8171	740475	0	0
2024-05-06 15:23:32			0	34299	0	0	0	18272	16900	151074	27850	964726	38702	106650	0	0	8171	740143	0	0
2024-05-06 15:24:32			0	34278	0	0	0	18267	16910	151054	27689	964787	38703	106648	0	0	8170	741124	0	0
2024-05-06 15:25:32			0	34285	0	0	0	18267	16890	151002	27765	964657	38700	106648	0	0	8171	740864	0	0
2024-05-06 15:26:32			0	34273	0	0	0	18254	16900	151010	27706	964753	38702	106643	0	0	8170	741408	0	0
2024-05-06 15:27:32			0	34275	0	0	0	18251	16900	150990	27744	964753	38702	106642	0	0	8170	741311	0	0
2024-05-06 15:28:32			0	34280	0	0	0	18270	16910	151038	27815	964795	38703	106649	0	0	8170	741027	0	0
2024-05-06 15:29:32			0	34281	0	0	0	18272	16910	150942	27739	964769	38681	106650	0	0	8171	740978	0	0
2024-05-06 15:30:32			0	34282	0	0	0	18270	16910	150982	27429	964734	38703	106649	0	0	8171	740930	0	0
2024-05-06 15:31:32			0	34276	0	0	0	18277	16920	150914	27402	964830	38713	106652	0	0	8170	741182	0	0
2024-05-06 15:32:32			0	34276	0	0	0	18275	16920	151018	27984	964804	38681	106651	0	0	8170	741182	0	0
2024-05-06 15:33:32			0	34254	0	0	0	18283	16920	151158	27480	964804	38692	106654	0	0	8169	742253	0	0
2024-05-06 15:34:32			0	34252	0	0	0	18283	16920	151230	27424	964856	38713	106654	0	0	8169	742351	0	0
2024-05-06 15:35:32			0	34255	0	0	0	18301	16920	151098	27666	964856	38713	106661	0	0	8169	742205	0	0
2024-05-06 15:36:32			0	34259	0	0	0	18301	16930	151230	27715	964873	38705	106661	0	0	8169	741970	0	0
2024-05-06 15:37:32			0	34281	0	0	0	18301	16920	151182	27894	964838	38681	106661	0	0	8170	740938	0	0
2024-05-06 15:38:32			0	34263	0	0	0	18290	16920	151114	27869	964865	38693	106657	0	0	8169	741815	0	0
2024-05-06 15:39:32			0	34271	0	0	0	18293	16930	151002	27511	964846	38705	106658	0	0	8170	741385	0	0
2024-05-06 15:40:32			0	34274	0	0	0	18327	16930	151014	27633	964881	38694	106671	0	0	8169	741239	0	0
2024-05-06 15:41:32			0	34279	0	0	0	18309	16930	151118	27345	964881	38694	106664	0	0	8170	740995	0	0
2024-05-06 15:42:32			0	34291	0	0	0	18306	16940	151030	27590	964977	38705	106663	0	0	8171	740371	0	0
2024-05-06 15:43:32			0	34283	0	0	0	18296	16940	151026	27786	964950	38705	106659	0	0	8170	740760	0	0
2024-05-06 15:44:32			0	34294	0	0	0	18306	16940	150882	27705	964916	38705	106663	0	0	8171	740225	0	0
2024-05-06 15:45:32			0	34300	0	0	0	18301	16940	150926	27720	964871	38716	106661	0	0	8171	739933	0	0
2024-05-06 15:46:32			0	34317	0	0	0	18298	16940	150858	27668	964889	38705	106660	0	0	8172	739107	0	0
2024-05-06 15:47:32			0	34321	0	0	0	18301	16920	150838	27760	964865	38693	106661	0	0	8172	738993	0	0
2024-05-06 15:48:32			0	34329	0	0	0	18288	16940	150850	27656	964871	38683	106656	0	0	8173	738524	0	0
2024-05-06 15:49:32			0	34328	0	0	0	18311	16930	150886	27369	964873	38694	106665	0	0	8173	738613	0	0
2024-05-06 15:50:32			0	34325	0	0	0	18293	16930	150830	27788	964881	38694	106658	0	0	8173	738758	0	0
2024-05-06 15:51:32			0	34323	0	0	0	18290	16930	150806	27537	964855	38694	106657	0	0	8173	738855	0	0
2024-05-06 15:52:32			0	34303	0	0	0	18290	16930	150834	27384	964881	38715	106657	0	0	8172	739827	0	0
2024-05-06 15:53:32			0	34305	0	0	0	18290	16930	150854	27476	964881	38694	106657	0	0	8172	739730	0	0
2024-05-06 15:54:32			0	34311	0	0	0	18290	16930	150766	27431	964881	38705	106657	0	0	8172	739439	0	0
2024-05-06 15:55:32			0	34297	0	0	0	18288	16930	150926	27417	964873	38694	106656	0	0	8171	740119	0	0
2024-05-06 15:56:32			0	34306	0	0	0	18290	16920	150842	27803	964891	38693	106657	0	0	8172	739722	0	0
2024-05-06 15:57:32			0	34301	0	0	0	18293	16930	150842	27466	964855	38694	106658	0	0	8171	739925	0	0
2024-05-06 15:58:32			0	34322	0	0	0	18293	16930	150850	27862	964881	38694	106658	0	0	8173	738904	0	0
2024-05-06 15:59:32			0	34321	0	0	0	18296	16930	150766	27319	964820	38705	106659	0	0	8172	738953	0	0
2024-05-06 16:00:32			0	34340	0	0	0	18296	16920	150918	27422	964838	38704	106659	0	0	8174	738070	0	0
2024-05-06 16:01:32			0	34334	0	0	0	18288	16920	150850	27975	964785	38714	106656	0	0	8173	738361	0	0
2024-05-06 16:02:32			0	34330	0	0	0	18290	16920	150734	27998	964891	38704	106657	0	0	8173	738555	0	0
2024-05-06 16:03:32			0	34318	0	0	0	18288	16920	150802	27436	964812	38704	106656	0	0	8172	739139	0	0
2024-05-06 16:04:32			0	34298	0	0	0	18301	16920	150842	27429	964865	38714	106661	0	0	8171	740111	0	0
2024-05-06 16:05:32			0	34286	0	0	0	18303	16920	150942	27781	964883	38713	106662	0	0	8170	740695	0	0
2024-05-06 16:06:32			0	34284	0	0	0	18314	16930	150970	27694	964899	38705	106666	0	0	8170	740752	0	0
2024-05-06 16:07:32			0	34268	0	0	0	18303	16940	151062	27874	964942	38705	106662	0	0	8169	741491	0	0
2024-05-06 16:08:32			0	34255	0	0	0	18293	16940	151110	27659	964977	38705	106658	0	0	8169	742124	0	0
2024-05-06 16:09:32			0	34262	0	0	0	18306	16940	151086	27609	964916	38705	106663	0	0	8169	741783	0	0
2024-05-06 16:10:32			0	34256	0	0	0	18316	16950	151086	27630	964906	38706	106667	0	0	8169	742035	0	0
2024-05-06 16:11:32			0	34248	0	0	0	18327	16940	151098	27659	964950	38694	106671	0	0	8168	742466	0	0
2024-05-06 16:12:32			0	34265	0	0	0	18319	16950	151122	27282	964932	38695	106668	0	0	8169	741597	0	0
2024-05-06 16:13:32			0	34265	0	0	0	18329	16940	151070	27272	964950	38694	106672	0	0	8169	741637	0	0
2024-05-06 16:14:32			0	34262	0	0	0	18314	16950	150982	27417	964906	38706	106666	0	0	8169	741743	0	0
2024-05-06 16:15:32			0	34288	0	0	0	18316	16950	150930	27588	964914	38695	106667	0	0	8170	740477	0	0
2024-05-06 16:16:32			0	34288	0	0	0	18309	16940	150882	27524	964897	38694	106664	0	0	8170	740517	0	0
2024-05-06 16:17:32			0	34314	0	0	0	18309	16930	150950	27412	964934	38694	106664	0	0	8172	739293	0	0
2024-05-06 16:18:32			0	34312	0	0	0	18298	16940	150922	27183	964950	38705	106660	0	0	8172	739350	0	0
2024-05-06 16:19:32			0	34280	0	0	0	18298	16930	150946	27267	964881	38694	106660	0	0	8170	740947	0	0
2024-05-06 16:20:32			0	34287	0	0	0	18298	16940	150986	27352	964897	38694	106660	0	0	8171	740566	0	0
2024-05-06 16:21:32			0	34300	0	0	0	18296	16950	150962	27376	964932	38706	106659	0	0	8171	739893	0	0
2024-05-06 16:22:32			0	34277	0	0	0	18298	16920	150998	27270	964838	38714	106660	0	0	8170	741133	0	0
2024-05-06 16:23:32			0	34274	0	0	0	18298	16940	150934	27171	964897	38694	106660	0	0	8170	741199	0	0
2024-05-06 16:24:32			0	34291	0	0	0	18303	16940	150938	27753	964897	38694	106662	0	0	8171	740371	0	0
2024-05-06 16:25:32			0	34271	0	0	0	18301	16940	150938	27320	964924	38705	106661	0	0	8170	741345	0	0
2024-05-06 16:26:32			0	34268	0	0	0	18306	16940	151058	27341	964950	38705	106663	0	0	8169	741491	0	0
2024-05-06 16:27:32			0	34284	0	0	0	18314	16940	151086	27258	964950	38694	106666	0	0	8170	740712	0	0
2024-05-06 16:28:32			0	34293	0	0	0	18303	16950	150986	27391	964879	38695	106662	0	0	8171	740234	0	0
2024-05-06 16:29:32			0	34280	0	0	0	18306	16940	151014	27405	964950	38705	106663	0	0	8170	740907	0	0
2024-05-06 16:30:32			0	34259	0	0	0	18314	16950	151046	27604	964958	38706	106666	0	0	8169	741889	0	0
2024-05-06 16:31:32			0	34248	0	0	0	18332	16950	151122	27398	964958	38706	106673	0	0	8168	742425	0	0
2024-05-06 16:32:32			0	34233	0	0	0	18324	16950	151138	27417	964985	38717	106670	0	0	8167	743157	0	0
2024-05-06 16:33:32			0	34249	0	0	0	18319	16950	151054	27414	965019	38717	106668	0	0	8168	742377	0	0
2024-05-06 16:34:32			0	34252	0	0	0	18345	16950	151150	27566	964993	38706	106678	0	0	8168	742230	0	0
2024-05-06 16:35:32			0	34245	0	0	0	18342	16950	151146	27412	965019	38695	106677	0	0	8167	742572	0	0
2024-05-06 16:36:32			0	34251	0	0	0	18329	16960	151242	27476	965054	38717	106672	0	0	8168	742239	0	0
2024-05-06 16:37:32			0	34253	0	0	0	18335	16960	151038	27235	964983	38707	106674	0	0	8168	742141	0	0
2024-05-06 16:38:32			0	34241	0	0	0	18332	16960	151142	27395	964983	38707	106673	0	0	8167	742726	0	0
2024-05-06 16:39:32			0	34238	0	0	0	18340	16970	151142	27543	965079	38698	106676	0	0	8167	742832	0	0
2024-05-06 16:40:32			0	34244	0	0	0	18332	16970	151118	27473	964999	38708	106673	0	0	8168	742540	0	0
2024-05-06 16:41:32			0	34254	0	0	0	18329	16970	151130	27658	965070	38718	106672	0	0	8168	742052	0	0
2024-05-06 16:42:32			0	34256	0	0	0	18322	16950	151158	27696	965019	38706	106669	0	0	8168	742035	0	0
2024-05-06 16:43:32			0	34239	0	0	0	18324	16970	151198	27429	965018	38718	106670	0	0	8168	742784	0	0
2024-05-06 16:44:32			0	34242	0	0	0	18329	16960	151206	27211	965028	38695	106672	0	0	8168	742678	0	0
2024-05-06 16:45:32			0	34232	0	0	0	18319	16960	151190	27469	965080	38706	106668	0	0	8167	743166	0	0
2024-05-06 16:46:32			0	34236	0	0	0	18319	16960	151254	27556	965009	38696	106668	0	0	8167	742970	0	0
2024-05-06 16:47:32			0	34211	0	0	0	18322	16960	151242	27398	965036	38707	106669	0	0	8166	744191	0	0
2024-05-06 16:48:32			0	34197	0	0	0	18316	16960	151342	27447	965054	38695	106667	0	0	8165	744875	0	0
2024-05-06 16:49:32			0	34192	0	0	0	18314	16960	151326	27810	965009	38696	106666	0	0	8165	745119	0	0
2024-05-06 16:50:32			0	34199	0	0	0	18311	16960	151310	27182	964975	38706	106665	0	0	8165	744777	0	0
2024-05-06 16:51:32			0	34169	0	0	0	18316	16960	151430	27326	964922	38706	106667	0	0	8164	746245	0	0
2024-05-06 16:52:32			0	34154	0	0	0	18316	16960	151370	27402	965028	38706	106667	0	0	8163	746979	0	0
2024-05-06 16:53:32			0	34160	0	0	0	18316	16950	151514	27360	964967	38706	106667	0	0	8163	746726	0	0
2024-05-06 16:54:32			0	34148	0	0	0	18322	16950	151518	27424	964985	38717	106669	0	0	8162	747314	0	0
2024-05-06 16:55:32			0	34150	0	0	0	18306	16950	151622	27379	964993	38706	106663	0	0	8163	747216	0	0
2024-05-06 16:56:32			0	34141	0	0	0	18327	16960	151610	27118	965054	38706	106671	0	0	8162	747617	0	0
2024-05-06 16:57:32			0	34143	0	0	0	18319	16950	151566	27460	965019	38706	106668	0	0	8162	747559	0	0
2024-05-06 16:58:32			0	34129	0	0	0	18322	16950	151602	27209	965011	38717	106669	0	0	8161	748245	0	0
2024-05-06 16:59:32			0	34135	0	0	0	18324	16950	151602	27253	965019	38706	106670	0	0	8161	747951	0	0
2024-05-06 17:00:32			0	34140	0	0	0	18322	16950	151550	27433	965011	38717	106669	0	0	8162	747706	0	0
2024-05-06 17:01:32			0	34151	0	0	0	18309	16960	151590	27327	965001	38706	106664	0	0	8163	747126	0	0
2024-05-06 17:02:32			0	34146	0	0	0	18316	16960	151550	27081	964957	38707	106667	0	0	8162	747371	0	0
2024-05-06 17:03:32			0	34154	0	0	0	18309	16950	151474	27116	964932	38706	106664	0	0	8163	747020	0	0
2024-05-06 17:04:32			0	34124	0	0	0	18311	16950	151622	27334	964967	38695	106665	0	0	8161	748491	0	0
2024-05-06 17:05:32			0	34144	0	0	0	18303	16950	151658	27319	964967	38706	106662	0	0	8162	747510	0	0
2024-05-06 17:06:32			0	34153	0	0	0	18306	16940	151554	27485	964924	38705	106663	0	0	8163	747109	0	0
2024-05-06 17:07:32			0	34142	0	0	0	18293	16940	151670	27164	964897	38705	106658	0	0	8162	747649	0	0
2024-05-06 17:08:32			0	34134	0	0	0	18309	16950	151638	27376	964906	38706	106664	0	0	8162	748000	0	0
2024-05-06 17:09:32			0	34134	0	0	0	18306	16930	151634	27537	964881	38705	106663	0	0	8162	748081	0	0
2024-05-06 17:10:32			0	34117	0	0	0	18303	16940	151646	26977	964889	38705	106662	0	0	8161	748875	0	0
2024-05-06 17:11:32			0	34114	0	0	0	18298	16930	151738	27564	964873	38705	106660	0	0	8161	749063	0	0
2024-05-06 17:12:32			0	34088	0	0	0	18296	16940	151794	27294	964863	38715	106659	0	0	8159	750300	0	0
2024-05-06 17:13:32			0	34102	0	0	0	18298	16930	151826	27230	964855	38694	106660	0	0	8160	749652	0	0
2024-05-06 17:14:32			0	34069	0	0	0	18293	16920	151814	27469	964812	38704	106658	0	0	8158	751316	0	0
2024-05-06 17:15:32			0	34087	0	0	0	18298	16930	151966	27265	964873	38705	106660	0	0	8159	750389	0	0
2024-05-06 17:16:32			0	34063	0	0	0	18293	16920	151986	27291	964838	38704	106658	0	0	8158	751611	0	0
2024-05-06 17:17:32			0	34072	0	0	0	18293	16910	152042	27076	964822	38703	106658	0	0	8158	751209	0	0
2024-05-06 17:18:32			0	34046	0	0	0	18296	16910	152086	27237	964875	38703	106659	0	0	8157	752489	0	0
2024-05-06 17:19:32			0	34037	0	0	0	18301	16920	151998	27326	964830	38703	106661	0	0	8156	752892	0	0
2024-05-06 17:20:32			0	34041	0	0	0	18309	16910	152030	27150	964901	38713	106664	0	0	8156	752736	0	0
2024-05-06 17:21:32			0	34055	0	0	0	18293	16930	152062	27415	964899	38705	106658	0	0	8157	751964	0	0
2024-05-06 17:22:32			0	34059	0	0	0	18285	16930	152070	27341	964881	38705	106655	0	0	8158	751767	0	0
2024-05-06 17:23:32			0	34043	0	0	0	18280	16920	152054	27353	964856	38703	106653	0	0	8157	752596	0	0
2024-05-06 17:24:32			0	34015	0	0	0	18296	16920	152066	27466	964865	38704	106659	0	0	8155	753977	0	0
2024-05-06 17:25:32			0	34027	0	0	0	18293	16920	152270	27578	964830	38703	106658	0	0	8156	753385	0	0
2024-05-06 17:26:32			0	34023	0	0	0	18283	16930	152274	27358	964767	38694	106654	0	0	8156	753542	0	0
2024-05-06 17:27:32			0	34000	0	0	0	18270	16910	152222	27440	964769	38703	106649	0	0	8154	754759	0	0
2024-05-06 17:28:32			0	34002	0	0	0	18270	16910	152210	27412	964795	38692	106649	0	0	8154	754660	0	0
2024-05-06 17:29:32			0	33990	0	0	0	18277	16910	152266	27364	964814	38703	106652	0	0	8154	755253	0	0
2024-05-06 17:30:32			0	34002	0	0	0	18272	16910	152426	27504	964787	38724	106650	0	0	8154	754660	0	0
2024-05-06 17:31:32			0	33980	0	0	0	18277	16900	152418	27251	964771	38701	106652	0	0	8153	755788	0	0
2024-05-06 17:32:32			0	33962	0	0	0	18275	16900	152490	27507	964832	38702	106651	0	0	8152	756679	0	0
2024-05-06 17:33:32			0	33976	0	0	0	18280	16910	152506	27308	964840	38703	106653	0	0	8153	755945	0	0
2024-05-06 17:34:32			0	33961	0	0	0	18270	16920	152630	27310	964830	38692	106649	0	0	8152	756646	0	0
2024-05-06 17:35:32			0	33951	0	0	0	18272	16920	152630	27374	964804	38703	106650	0	0	8152	757141	0	0
2024-05-06 17:36:32			0	33938	0	0	0	18259	16910	152654	27447	964769	38713	106645	0	0	8151	757826	0	0
2024-05-06 17:37:32			0	33953	0	0	0	18251	16900	152614	27581	964779	38702	106642	0	0	8152	757124	0	0
2024-05-06 17:38:32			0	33939	0	0	0	18251	16900	152714	27433	964771	38723	106642	0	0	8151	757818	0	0
2024-05-06 17:39:32			0	33915	0	0	0	18259	16900	152634	27358	964771	38711	106645	0	0	8150	759008	0	0
2024-05-06 17:40:32			0	33923	0	0	0	18259	16900	152602	27348	964771	38701	106645	0	0	8150	758611	0	0
2024-05-06 17:41:32			0	33922	0	0	0	18262	16900	152766	27414	964718	38711	106646	0	0	8150	758661	0	0
2024-05-06 17:42:32			0	33906	0	0	0	18262	16890	152726	27272	964736	38700	106646	0	0	8149	759496	0	0
2024-05-06 17:43:32			0	33922	0	0	0	18259	16890	152650	27284	964683	38711	106645	0	0	8150	758702	0	0
2024-05-06 17:44:32			0	33915	0	0	0	18262	16900	152722	27440	964744	38701	106646	0	0	8150	759008	0	0
2024-05-06 17:45:32			0	33907	0	0	0	18257	16890	152750	27396	964702	38711	106644	0	0	8149	759446	0	0
2024-05-06 17:46:32			0	33902	0	0	0	18262	16900	152802	27405	964692	38711	106646	0	0	8149	759653	0	0
2024-05-06 17:47:32			0	33886	0	0	0	18251	16880	152758	27166	964720	38700	106642	0	0	8148	760530	0	0
2024-05-06 17:48:32			0	33900	0	0	0	18254	16890	152786	27315	964710	38700	106643	0	0	8149	759794	0	0
2024-05-06 17:49:32			0	33882	0	0	0	18251	16870	152810	27229	964703	38699	106642	0	0	8148	760770	0	0
2024-05-06 17:50:32			0	33880	0	0	0	18251	16880	152914	27698	964659	38700	106642	0	0	8148	760829	0	0
2024-05-06 17:51:32			0	33864	0	0	0	18254	16870	152882	27426	964703	38699	106643	0	0	8147	761666	0	0
2024-05-06 17:52:32			0	33863	0	0	0	18246	16870	152874	27588	964703	38688	106640	0	0	8147	761716	0	0
2024-05-06 17:53:32			0	33877	0	0	0	18246	16890	152862	27246	964683	38722	106640	0	0	8148	760937	0	0
2024-05-06 17:54:32			0	33867	0	0	0	18236	16880	152978	27426	964659	38710	106636	0	0	8147	761475	0	0
2024-05-06 17:55:32			0	33867	0	0	0	18236	16890	152910	27500	964596	38700	106636	0	0	8147	761434	0	0
2024-05-06 17:56:32			0	33844	0	0	0	18231	16870	153006	27431	964695	38699	106634	0	0	8146	762661	0	0
2024-05-06 17:57:32			0	33872	0	0	0	18241	16860	153014	27199	964660	38688	106638	0	0	8147	761309	0	0
2024-05-06 17:58:32			0	33857	0	0	0	18241	16860	153026	27223	964660	38699	106638	0	0	8146	762055	0	0
2024-05-06 17:59:32			0	33852	0	0	0	18238	16860	153130	27549	964660	38699	106637	0	0	8146	762304	0	0
2024-05-06 18:00:32			0	33837	0	0	0	18244	16870	152966	27258	964651	38699	106639	0	0	8145	763010	0	0
2024-05-06 18:01:32			0	33862	0	0	0	18244	16870	153050	27289	964616	38699	106639	0	0	8147	761765	0	0
2024-05-06 18:02:32			0	33862	0	0	0	18246	16860	152982	27369	964660	38709	106640	0	0	8147	761806	0	0
2024-05-06 18:03:32			0	33858	0	0	0	18246	16860	152942	27183	964687	38699	106640	0	0	8146	762006	0	0
2024-05-06 18:04:32			0	33857	0	0	0	18251	16870	153002	27495	964669	38699	106642	0	0	8146	762014	0	0
2024-05-06 18:05:32			0	33841	0	0	0	18241	16860	153050	27512	964634	38699	106638	0	0	8145	762852	0	0
2024-05-06 18:06:32			0	33848	0	0	0	18251	16860	153034	27518	964678	38698	106642	0	0	8146	762503	0	0
2024-05-06 18:07:32			0	33855	0	0	0	18249	16860	153046	27249	964652	38698	106641	0	0	8146	762155	0	0
2024-05-06 18:08:32			0	33860	0	0	0	18246	16860	153006	27272	964660	38709	106640	0	0	8146	761906	0	0
2024-05-06 18:09:32			0	33868	0	0	0	18238	16870	153070	27371	964590	38699	106637	0	0	8147	761467	0	0
2024-05-06 18:10:32			0	33849	0	0	0	18233	16860	152998	27228	964660	38699	106635	0	0	8146	762454	0	0
2024-05-06 18:11:32			0	33856	0	0	0	18231	16860	152998	27526	964731	38719	106634	0	0	8146	762105	0	0
2024-05-06 18:12:32			0	33859	0	0	0	18238	16850	152866	27308	964617	38697	106637	0	0	8146	761997	0	0
2024-05-06 18:13:32			0	33871	0	0	0	18225	16860	152886	27237	964687	38709	106632	0	0	8147	761359	0	0
2024-05-06 18:14:32			0	33863	0	0	0	18233	16850	152862	27249	964644	38697	106635	0	0	8147	761798	0	0
2024-05-06 18:15:32			0	33851	0	0	0	18236	16860	153010	27300	964652	38698	106636	0	0	8146	762354	0	0
2024-05-06 18:16:32			0	33864	0	0	0	18241	16870	153034	27438	964669	38688	106638	0	0	8147	761666	0	0
2024-05-06 18:17:32			0	33859	0	0	0	18220	16860	152958	27237	964520	38698	106630	0	0	8147	761956	0	0
2024-05-06 18:18:32			0	33839	0	0	0	18233	16850	153022	27317	964591	38708	106635	0	0	8145	762993	0	0
2024-05-06 18:19:32			0	33835	0	0	0	18228	16860	153070	27332	964546	38698	106633	0	0	8145	763151	0	0
2024-05-06 18:20:32			0	33824	0	0	0	18238	16860	153106	27338	964546	38698	106637	0	0	8144	763699	0	0
2024-05-06 18:21:32			0	33830	0	0	0	18246	16840	153086	27315	964575	38708	106640	0	0	8145	763483	0	0
2024-05-06 18:22:32			0	33839	0	0	0	18249	16850	153158	27582	964591	38708	106641	0	0	8145	762993	0	0
2024-05-06 18:23:32			0	33829	0	0	0	18254	16850	153050	27265	964670	38697	106643	0	0	8144	763492	0	0
2024-05-06 18:24:32			0	33827	0	0	0	18244	16860	153090	27351	964634	38709	106639	0	0	8145	763550	0	0
2024-05-06 18:25:32			0	33825	0	0	0	18241	16850	153114	27294	964644	38708	106638	0	0	8144	763691	0	0
2024-05-06 18:26:32			0	33830	0	0	0	18236	16860	153054	27163	964599	38698	106636	0	0	8145	763400	0	0
2024-05-06 18:27:32			0	33831	0	0	0	18225	16850	153034	27592	964697	38697	106632	0	0	8145	763392	0	0
2024-05-06 18:28:32			0	33826	0	0	0	18238	16860	153050	27633	964626	38708	106637	0	0	8145	763600	0	0
2024-05-06 18:29:32			0	33812	0	0	0	18244	16860	153098	27410	964546	38719	106639	0	0	8144	764298	0	0
2024-05-06 18:30:32			0	33823	0	0	0	18249	16860	153150	27609	964652	38708	106641	0	0	8144	763749	0	0
2024-05-06 18:31:32			0	33818	0	0	0	18246	16870	153094	27076	964642	38709	106640	0	0	8144	763957	0	0
2024-05-06 18:32:32			0	33807	0	0	0	18262	16850	153198	27319	964715	38686	106646	0	0	8143	764589	0	0
2024-05-06 18:33:32			0	33828	0	0	0	18251	16860	153154	27376	964660	38709	106642	0	0	8144	763500	0	0
2024-05-06 18:34:32			0	33823	0	0	0	18254	16860	153094	27699	964634	38709	106643	0	0	8144	763749	0	0
2024-05-06 18:35:32			0	33827	0	0	0	18254	16870	153138	27436	964677	38709	106643	0	0	8144	763508	0	0
2024-05-06 18:36:32			0	33828	0	0	0	18241	16870	153042	27144	964669	38709	106638	0	0	8145	763459	0	0
2024-05-06 18:37:32			0	33816	0	0	0	18238	16860	152986	27384	964652	38708	106637	0	0	8144	764098	0	0
2024-05-06 18:38:32			0	33850	0	0	0	18228	16860	152970	27298	964599	38698	106633	0	0	8146	762404	0	0
2024-05-06 18:39:32			0	33831	0	0	0	18233	16860	152978	27319	964660	38709	106635	0	0	8145	763350	0	0
2024-05-06 18:40:32			0	33845	0	0	0	18236	16860	153090	27422	964599	38708	106636	0	0	8146	762653	0	0
2024-05-06 18:41:32			0	33834	0	0	0	18225	16860	153142	27239	964626	38708	106632	0	0	8145	763201	0	0
2024-05-06 18:42:32			0	33838	0	0	0	18231	16850	153086	27090	964617	38708	106634	0	0	8145	763043	0	0
2024-05-06 18:43:32			0	33812	0	0	0	18228	16850	153210	27350	964617	38697	106633	0	0	8144	764339	0	0
2024-05-06 18:44:32			0	33819	0	0	0	18220	16850	153134	27317	964609	38708	106630	0	0	8144	763990	0	0
2024-05-06 18:45:32			0	33821	0	0	0	18220	16850	153270	27334	964538	38697	106630	0	0	8145	763890	0	0
2024-05-06 18:46:32			0	33806	0	0	0	18233	16850	153210	27267	964617	38708	106635	0	0	8143	764639	0	0
2024-05-06 18:47:32			0	33826	0	0	0	18236	16850	153206	27173	964609	38697	106636	0	0	8145	763641	0	0
2024-05-06 18:48:32			0	33818	0	0	0	18223	16840	153130	27445	964601	38697	106631	0	0	8144	764081	0	0
2024-05-06 18:49:32			0	33802	0	0	0	18223	16840	153282	27027	964654	38718	106631	0	0	8143	764880	0	0
2024-05-06 18:50:32			0	33799	0	0	0	18233	16850	153194	27452	964636	38697	106635	0	0	8143	764988	0	0
2024-05-06 18:51:32			0	33803	0	0	0	18231	16850	153258	27414	964530	38718	106634	0	0	8143	764788	0	0
2024-05-06 18:52:32			0	33796	0	0	0	18231	16850	153278	27594	964636	38697	106634	0	0	8143	765138	0	0
2024-05-06 18:53:32			0	33799	0	0	0	18231	16850	153262	27038	964556	38697	106634	0	0	8143	764988	0	0
2024-05-06 18:54:32			0	33784	0	0	0	18218	16850	153330	27066	964609	38708	106629	0	0	8142	765738	0	0
2024-05-06 18:55:32			0	33801	0	0	0	18228	16840	153238	27145	964593	38696	106633	0	0	8143	764930	0	0
2024-05-06 18:56:32			0	33770	0	0	0	18220	16840	153358	27053	964627	38708	106630	0	0	8142	766479	0	0
2024-05-06 18:57:32			0	33791	0	0	0	18225	16830	153234	27300	964611	38706	106632	0	0	8143	765471	0	0
2024-05-06 18:58:32			0	33782	0	0	0	18223	16850	153350	27351	964556	38697	106631	0	0	8142	765838	0	0
2024-05-06 18:59:32			0	33782	0	0	0	18215	16840	153406	27171	964593	38707	106628	0	0	8142	765879	0	0
2024-05-06 19:00:32			0	33774	0	0	0	18215	16840	153542	27561	964548	38697	106628	0	0	8142	766279	0	0
2024-05-06 19:01:32			0	33757	0	0	0	18231	16840	153442	27469	964548	38697	106634	0	0	8141	767129	0	0
2024-05-06 19:02:32			0	33775	0	0	0	18257	16840	153426	27291	964593	38717	106644	0	0	8141	766229	0	0
2024-05-06 19:03:32			0	33765	0	0	0	18231	16840	153370	27346	964627	38708	106634	0	0	8141	766729	0	0
2024-05-06 19:04:32			0	33758	0	0	0	18233	16840	153414	27306	964627	38697	106635	0	0	8141	767079	0	0
2024-05-06 19:05:32			0	33785	0	0	0	18231	16850	153346	27358	964644	38697	106634	0	0	8142	765688	0	0
2024-05-06 19:06:32			0	33795	0	0	0	18246	16850	153386	27185	964609	38697	106640	0	0	8143	765188	0	0
2024-05-06 19:07:32			0	33778	0	0	0	18225	16840	153386	27469	964601	38697	106632	0	0	8142	766079	0	0
2024-05-06 19:08:32			0	33785	0	0	0	18236	16840	153394	27008	964627	38708	106636	0	0	8142	765729	0	0
2024-05-06 19:09:32			0	33799	0	0	0	18241	16850	153350	27209	964538	38708	106638	0	0	8143	764988	0	0
2024-05-06 19:10:32			0	33796	0	0	0	18249	16840	153338	27393	964627	38718	106641	0	0	8143	765180	0	0
2024-05-06 19:11:32			0	33810	0	0	0	18249	16850	153234	27265	964662	38697	106641	0	0	8143	764439	0	0
2024-05-06 19:12:32			0	33796	0	0	0	18251	16850	153282	26958	964662	38708	106642	0	0	8143	765138	0	0
2024-05-06 19:13:32			0	33819	0	0	0	18270	16860	153254	27144	964705	38698	106649	0	0	8144	763949	0	0
2024-05-06 19:14:32			0	33814	0	0	0	18272	16870	153226	27431	964721	38699	106650	0	0	8143	764157	0	0
2024-05-06 19:15:32			0	33815	0	0	0	18275	16860	153266	27291	964739	38699	106651	0	0	8143	764148	0	0
2024-05-06 19:16:32			0	33818	0	0	0	18280	16870	153370	27339	964783	38699	106653	0	0	8143	763957	0	0
2024-05-06 19:17:32			0	33799	0	0	0	18254	16870	153198	27093	964730	38699	106643	0	0	8143	764905	0	0
2024-05-06 19:18:32			0	33834	0	0	0	18259	16870	153146	26880	964721	38720	106645	0	0	8145	763160	0	0
2024-05-06 19:19:32			0	33822	0	0	0	18251	16870	153154	27029	964695	38709	106642	0	0	8144	763758	0	0
2024-05-06 19:20:32			0	33826	0	0	0	18262	16870	153134	27377	964783	38720	106646	0	0	8144	763558	0	0
2024-05-06 19:21:32			0	33823	0	0	0	18259	16870	153086	27189	964748	38720	106645	0	0	8144	763708	0	0
2024-05-06 19:22:32			0	33836	0	0	0	18280	16860	153110	27053	964713	38709	106653	0	0	8144	763101	0	0
2024-05-06 19:23:32			0	33850	0	0	0	18275	16870	153142	27407	964730	38709	106651	0	0	8145	762363	0	0
2024-05-06 19:24:32			0	33834	0	0	0	18277	16880	153118	27336	964738	38710	106652	0	0	8144	763118	0	0
2024-05-06 19:25:32			0	33838	0	0	0	18262	16870	152986	27234	964721	38720	106646	0	0	8145	762960	0	0
2024-05-06 19:26:32			0	33853	0	0	0	18251	16870	153046	27438	964748	38709	106642	0	0	8146	762213	0	0
2024-05-06 19:27:32			0	33853	0	0	0	18244	16870	152966	27371	964721	38709	106639	0	0	8146	762213	0	0
2024-05-06 19:28:32			0	33842	0	0	0	18251	16870	153014	27426	964730	38709	106642	0	0	8145	762761	0	0
2024-05-06 19:29:32			0	33851	0	0	0	18249	16870	152986	27581	964730	38720	106641	0	0	8146	762313	0	0
2024-05-06 19:30:32			0	33856	0	0	0	18257	16880	152982	27279	964712	38700	106644	0	0	8146	762023	0	0
2024-05-06 19:31:32			0	33851	0	0	0	18246	16860	153034	27469	964687	38699	106640	0	0	8146	762354	0	0
2024-05-06 19:32:32			0	33843	0	0	0	18238	16860	153046	27206	964687	38709	106637	0	0	8146	762753	0	0
2024-05-06 19:33:32			0	33839	0	0	0	18241	16860	153030	27362	964652	38698	106638	0	0	8145	762952	0	0
2024-05-06 19:34:32			0	33841	0	0	0	18236	16870	153014	27313	964669	38720	106636	0	0	8146	762811	0	0
2024-05-06 19:35:32			0	33847	0	0	0	18249	16870	153150	27310	964748	38720	106641	0	0	8146	762512	0	0
2024-05-06 19:36:32			0	33811	0	0	0	18246	16860	153090	27308	964652	38708	106640	0	0	8144	764348	0	0
2024-05-06 19:37:32			0	33819	0	0	0	18251	16860	153186	27187	964652	38708	106642	0	0	8144	763949	0	0
2024-05-06 19:38:32			0	33821	0	0	0	18251	16860	153346	27332	964713	38709	106642	0	0	8144	763849	0	0
2024-05-06 19:39:32			0	33817	0	0	0	18251	16870	153274	27170	964730	38709	106642	0	0	8144	764007	0	0
2024-05-06 19:40:32			0	33806	0	0	0	18251	16860	153250	27343	964705	38698	106642	0	0	8143	764597	0	0
2024-05-06 19:41:32			0	33794	0	0	0	18257	16860	153162	27594	964713	38720	106644	0	0	8142	765197	0	0
2024-05-06 19:42:32			0	33816	0	0	0	18259	16870	153150	27436	964703	38720	106645	0	0	8144	764057	0	0
2024-05-06 19:43:32			0	33827	0	0	0	18257	16870	153154	27417	964695	38720	106644	0	0	8144	763508	0	0
2024-05-06 19:44:32			0	33814	0	0	0	18249	16880	153122	27149	964685	38721	106641	0	0	8144	764115	0	0
2024-05-06 19:45:32			0	33827	0	0	0	18254	16870	153214	27562	964721	38709	106643	0	0	8144	763508	0	0
2024-05-06 19:46:32			0	33825	0	0	0	18259	16880	153170	27145	964659	38721	106645	0	0	8144	763567	0	0
2024-05-06 19:47:32			0	33817	0	0	0	18251	16870	153090	27208	964721	38720	106642	0	0	8144	764007	0	0
2024-05-06 19:48:32			0	33809	0	0	0	18249	16870	153206	27438	964721	38709	106641	0	0	8143	764406	0	0
2024-05-06 19:49:32			0	33808	0	0	0	18249	16870	153134	27126	964642	38709	106641	0	0	8143	764456	0	0
2024-05-06 19:50:32			0	33820	0	0	0	18257	16860	153186	26939	964713	38688	106644	0	0	8144	763899	0	0
2024-05-06 19:51:32			0	33805	0	0	0	18254	16860	153170	27201	964731	38719	106643	0	0	8143	764647	0	0
2024-05-06 19:52:32			0	33807	0	0	0	18249	16860	153122	27196	964660	38699	106641	0	0	8143	764548	0	0
2024-05-06 19:53:32			0	33795	0	0	0	18246	16860	153202	27196	964713	38699	106640	0	0	8143	765147	0	0
2024-05-06 19:54:32			0	33803	0	0	0	18244	16860	153134	27043	964678	38708	106639	0	0	8143	764747	0	0
2024-05-06 19:55:32			0	33791	0	0	0	18236	16860	153282	27033	964705	38708	106636	0	0	8143	765346	0	0
2024-05-06 19:56:32			0	33794	0	0	0	18246	16860	153286	27481	964634	38709	106640	0	0	8143	765197	0	0
2024-05-06 19:57:32			0	33792	0	0	0	18238	16860	153274	27183	964660	38699	106637	0	0	8143	765296	0	0
2024-05-06 19:58:32			0	33772	0	0	0	18233	16850	153330	27384	964591	38708	106635	0	0	8141	766337	0	0
2024-05-06 19:59:32			0	33788	0	0	0	18228	16850	153286	27104	964670	38708	106633	0	0	8142	765538	0	0
2024-05-06 20:00:32			0	33798	0	0	0	18236	16860	153262	27343	964678	38708	106636	0	0	8143	764997	0	0
2024-05-06 20:01:32			0	33787	0	0	0	18241	16850	153202	27098	964644	38718	106638	0	0	8142	765588	0	0
2024-05-06 20:02:32			0	33775	0	0	0	18228	16850	153406	27223	964565	38708	106633	0	0	8142	766187	0	0
2024-05-06 20:03:32			0	33771	0	0	0	18233	16860	153370	27255	964678	38698	106635	0	0	8141	766346	0	0
2024-05-06 20:04:32			0	33775	0	0	0	18238	16850	153430	27182	964644	38729	106637	0	0	8142	766187	0	0
2024-05-06 20:05:32			0	33762	0	0	0	18236	16850	153430	27268	964583	38697	106636	0	0	8141	766838	0	0
2024-05-06 20:06:32			0	33768	0	0	0	18233	16850	153438	27253	964565	38708	106635	0	0	8141	766537	0	0
2024-05-06 20:07:32			0	33759	0	0	0	18236	16850	153402	26991	964636	38718	106636	0	0	8141	766988	0	0
2024-05-06 20:08:32			0	33761	0	0	0	18238	16850	153502	27208	964636	38708	106637	0	0	8141	766888	0	0
2024-05-06 20:09:32			0	33731	0	0	0	18233	16850	153466	27526	964662	38708	106635	0	0	8139	768390	0	0
2024-05-06 20:10:32			0	33749	0	0	0	18228	16840	153530	27357	964601	38708	106633	0	0	8140	767530	0	0
2024-05-06 20:11:32			0	33752	0	0	0	18215	16850	153562	27239	964583	38708	106628	0	0	8141	767338	0	0
2024-05-06 20:12:32			0	33729	0	0	0	18223	16850	153550	27414	964609	38697	106631	0	0	8139	768490	0	0
2024-05-06 20:13:32			0	33746	0	0	0	18236	16850	153594	27360	964670	38718	106636	0	0	8140	767638	0	0
2024-05-06 20:14:32			0	33712	0	0	0	18257	16850	153826	27351	964662	38697	106644	0	0	8138	769342	0	0
2024-05-06 20:15:32			0	33695	0	0	0	18249	16850	153814	27322	964617	38708	106641	0	0	8137	770195	0	0
2024-05-06 20:16:32			0	33683	0	0	0	18244	16850	153794	27272	964636	38729	106639	0	0	8136	770798	0	0
2024-05-06 20:17:32			0	33675	0	0	0	18254	16850	153798	27502	964697	38708	106643	0	0	8135	771200	0	0
2024-05-06 20:18:32			0	33683	0	0	0	18267	16860	153978	27218	964705	38708	106648	0	0	8136	770756	0	0
2024-05-06 20:19:32			0	33681	0	0	0	18262	16860	153846	27305	964713	38720	106646	0	0	8136	770857	0	0
2024-05-06 20:20:32			0	33674	0	0	0	18254	16840	153842	27003	964680	38718	106643	0	0	8135	771292	0	0
2024-05-06 20:21:32			0	33674	0	0	0	18171	16850	153902	27237	964749	38718	106611	0	0	8137	771250	0	0
2024-05-06 20:22:32			0	33674	0	0	0	18166	16850	153906	27284	964644	38708	106609	0	0	8137	771250	0	0
2024-05-06 20:23:32			0	33697	0	0	0	18163	16850	153794	27147	964512	38697	106608	0	0	8138	770095	0	0
2024-05-06 20:24:32			0	33681	0	0	0	18103	16840	153878	27242	964461	38696	106585	0	0	8138	770940	0	0
2024-05-06 20:25:32			0	33701	0	0	0	18080	16840	153702	27031	964435	38696	106576	0	0	8140	769936	0	0
2024-05-06 20:26:32			0	33704	0	0	0	18028	16810	153674	27208	964262	38682	106556	0	0	8141	769911	0	0
2024-05-06 20:27:32			0	33719	0	0	0	18023	16800	153602	27144	964192	38682	106554	0	0	8142	769199	0	0
2024-05-06 20:28:32			0	33733	0	0	0	18015	16770	153558	27223	964064	38679	106551	0	0	8142	768622	0	0
2024-05-06 20:29:32			0	33715	0	0	0	18020	16770	153566	27197	964003	38678	106553	0	0	8141	769525	0	0
2024-05-06 20:30:32			0	33734	0	0	0	17999	16760	153618	27216	963987	38677	106545	0	0	8143	768614	0	0
2024-05-06 20:31:32			0	33719	0	0	0	17994	16730	153566	27407	963980	38687	106543	0	0	8142	769491	0	0
2024-05-06 20:32:32			0	33745	0	0	0	17999	16720	153614	27093	963963	38675	106545	0	0	8143	768229	0	0
2024-05-06 20:33:32			0	33713	0	0	0	18007	16710	153618	27291	963913	38674	106548	0	0	8141	769876	0	0
2024-05-06 20:34:32			0	33723	0	0	0	17997	16700	153746	27431	963825	38673	106544	0	0	8142	769416	0	0
2024-05-06 20:35:32			0	33725	0	0	0	17992	16700	153734	27201	963852	38673	106542	0	0	8142	769315	0	0
2024-05-06 20:36:32			0	33698	0	0	0	17999	16680	153838	27303	963792	38671	106545	0	0	8140	770754	0	0
2024-05-06 20:37:32			0	33692	0	0	0	17992	16690	153770	27241	963809	38672	106542	0	0	8140	771014	0	0
2024-05-06 20:38:32			0	33711	0	0	0	17984	16670	153822	27270	963715	38670	106539	0	0	8141	770143	0	0
2024-05-06 20:39:32			0	33699	0	0	0	17979	16670	153914	27102	963715	38659	106537	0	0	8141	770746	0	0
2024-05-06 20:40:32			0	33707	0	0	0	17981	16670	153938	27339	963741	38659	106538	0	0	8141	770344	0	0
2024-05-06 20:41:32			0	33689	0	0	0	17974	16660	153902	27398	963698	38680	106535	0	0	8140	771290	0	0
2024-05-06 20:42:32			0	33680	0	0	0	17974	16650	153910	27395	963682	38647	106535	0	0	8140	771784	0	0
2024-05-06 20:43:32			0	33694	0	0	0	17976	16650	153914	27199	963655	38668	106536	0	0	8140	771080	0	0
2024-05-06 20:44:32			0	33678	0	0	0	17976	16640	153882	27441	963639	38667	106536	0	0	8139	771927	0	0
2024-05-06 20:45:32			0	33698	0	0	0	17971	16640	153846	27450	963665	38657	106534	0	0	8141	770921	0	0
2024-05-06 20:46:32			0	33666	0	0	0	17971	16640	153850	27046	963586	38678	106534	0	0	8139	772531	0	0
2024-05-06 20:47:32			0	33675	0	0	0	17971	16620	153846	27192	963667	38676	106534	0	0	8139	772161	0	0
2024-05-06 20:48:32			0	33690	0	0	0	17968	16630	154002	27128	963596	38677	106533	0	0	8140	771365	0	0
2024-05-06 20:49:32			0	33676	0	0	0	17963	16620	153982	27362	963615	38666	106531	0	0	8139	772111	0	0
2024-05-06 20:50:32			0	33649	0	0	0	17961	16620	154042	27416	963606	38676	106530	0	0	8138	773470	0	0
2024-05-06 20:51:32			0	33645	0	0	0	17950	16610	154034	27436	963598	38666	106526	0	0	8138	773714	0	0
2024-05-06 20:52:32			0	33658	0	0	0	17963	16610	154202	27296	963519	38666	106531	0	0	8138	773059	0	0
2024-05-06 20:53:32			0	33666	0	0	0	17953	16600	154094	27346	963581	38675	106527	0	0	8139	772698	0	0
2024-05-06 20:54:32			0	33667	0	0	0	17955	16600	154026	27564	963494	38675	106528	0	0	8139	772647	0	0
2024-05-06 20:55:32			0	33650	0	0	0	17942	16600	154150	27467	963468	38675	106523	0	0	8138	773504	0	0
2024-05-06 20:56:32			0	33669	0	0	0	17953	16600	154030	27509	963468	38665	106527	0	0	8139	772547	0	0
2024-05-06 20:57:32			0	33660	0	0	0	17955	16600	154054	27626	963494	38665	106528	0	0	8138	773000	0	0
2024-05-06 20:58:32			0	33668	0	0	0	17950	16590	154034	27663	963530	38653	106526	0	0	8139	772639	0	0
2024-05-06 20:59:32			0	33671	0	0	0	17940	16590	154046	27403	963478	38674	106522	0	0	8139	772488	0	0
2024-05-06 21:00:32			0	33669	0	0	0	17945	16580	154010	27305	963469	38663	106524	0	0	8139	772630	0	0
2024-05-06 21:01:32			0	33664	0	0	0	17940	16590	154102	27578	963557	38664	106522	0	0	8139	772840	0	0
2024-05-06 21:02:32			0	33664	0	0	0	17942	16580	154034	27452	963443	38684	106523	0	0	8139	772882	0	0
2024-05-06 21:03:32			0	33659	0	0	0	17940	16580	154070	27305	963443	38673	106522	0	0	8139	773134	0	0
2024-05-06 21:04:32			0	33670	0	0	0	17942	16580	153994	27777	963488	38672	106523	0	0	8139	772580	0	0
2024-05-06 21:05:32			0	33660	0	0	0	17948	16560	154042	27646	963516	38671	106525	0	0	8138	773167	0	0
2024-05-06 21:06:32			0	33649	0	0	0	17942	16580	154026	27433	963435	38683	106523	0	0	8138	773638	0	0
2024-05-06 21:07:32			0	33674	0	0	0	17942	16560	153974	27334	963437	38682	106523	0	0	8139	772462	0	0
2024-05-06 21:08:32			0	33653	0	0	0	17932	16570	153938	27168	963427	38672	106519	0	0	8138	773478	0	0
2024-05-06 21:09:32			0	33676	0	0	0	17955	16560	154058	27152	963437	38671	106528	0	0	8139	772362	0	0
2024-05-06 21:10:32			0	33666	0	0	0	17948	16560	154162	27156	963463	38661	106525	0	0	8139	772865	0	0
2024-05-06 21:11:32			0	33696	0	0	0	17942	16580	154086	27071	963435	38662	106523	0	0	8141	771272	0	0
2024-05-06 21:12:32			0	33662	0	0	0	17948	16560	154030	27540	963428	38660	106525	0	0	8138	773067	0	0
2024-05-06 21:13:32			0	33662	0	0	0	17945	16560	154010	27152	963428	38671	106524	0	0	8138	773067	0	0
2024-05-06 21:14:32			0	33672	0	0	0	17945	16560	154038	27397	963463	38671	106524	0	0	8139	772563	0	0
2024-05-06 21:15:32			0	33678	0	0	0	17940	16570	154214	27287	963453	38662	106522	0	0	8140	772219	0	0
2024-05-06 21:16:32			0	33670	0	0	0	17948	16570	154014	27255	963453	38662	106525	0	0	8139	772622	0	0
2024-05-06 21:17:32			0	33643	0	0	0	17950	16560	154026	27235	963463	38671	106526	0	0	8137	774024	0	0
2024-05-06 21:18:32			0	33668	0	0	0	17953	16560	154098	27164	963410	38650	106527	0	0	8139	772764	0	0
2024-05-06 21:19:32			0	33685	0	0	0	17950	16570	154026	27275	963427	38672	106526	0	0	8140	771867	0	0
2024-05-06 21:20:32			0	33664	0	0	0	17963	16580	154090	27102	963461	38651	106531	0	0	8138	772882	0	0
2024-05-06 21:21:32			0	33676	0	0	0	17945	16560	154066	27251	963463	38682	106524	0	0	8139	772362	0	0
2024-05-06 21:22:32			0	33661	0	0	0	17945	16570	154086	27341	963445	38662	106524	0	0	8138	773075	0	0
2024-05-06 21:23:32			0	33680	0	0	0	17958	16560	154090	27201	963481	38671	106529	0	0	8139	772160	0	0
2024-05-06 21:24:32			0	33675	0	0	0	17961	16570	154150	27066	963479	38662	106530	0	0	8139	772370	0	0
2024-05-06 21:25:32			0	33701	0	0	0	17963	16570	153922	27102	963445	38672	106531	0	0	8141	771062	0	0
2024-05-06 21:26:32			0	33696	0	0	0	17963	16580	153950	27022	963540	38662	106531	0	0	8140	771272	0	0
2024-05-06 21:27:32			0	33682	0	0	0	17971	16570	154022	27216	963479	38662	106534	0	0	8139	772018	0	0
2024-05-06 21:28:32			0	33697	0	0	0	17966	16560	154010	27227	963463	38671	106532	0	0	8140	771305	0	0
2024-05-06 21:29:32			0	33699	0	0	0	17971	16570	154022	27026	963506	38672	106534	0	0	8140	771163	0	0
2024-05-06 21:30:32			0	33679	0	0	0	17979	16580	153938	26991	963601	38673	106537	0	0	8139	772127	0	0
2024-05-06 21:31:32			0	33698	0	0	0	17976	16590	153974	27294	963565	38685	106536	0	0	8140	771130	0	0
2024-05-06 21:32:32			0	33689	0	0	0	17974	16580	153910	27039	963575	38673	106535	0	0	8140	771624	0	0
2024-05-06 21:33:32			0	33689	0	0	0	17981	16590	153858	27083	963530	38674	106538	0	0	8140	771582	0	0
2024-05-06 21:34:32			0	33710	0	0	0	17984	16580	153850	27531	963522	38673	106539	0	0	8141	770568	0	0
2024-05-06 21:35:32			0	33703	0	0	0	17992	16590	154062	27497	963591	38674	106542	0	0	8140	770879	0	0
2024-05-06 21:36:32			0	33706	0	0	0	17984	16580	153982	27460	963567	38683	106539	0	0	8141	770769	0	0
2024-05-06 21:37:32			0	33707	0	0	0	17989	16590	153806	27013	963530	38664	106541	0	0	8141	770677	0	0
2024-05-06 21:38:32			0	33701	0	0	0	17997	16600	153882	27274	963573	38665	106544	0	0	8140	770937	0	0
2024-05-06 21:39:32			0	33723	0	0	0	17994	16600	153870	27403	963573	38675	106543	0	0	8141	769832	0	0
2024-05-06 21:40:32			0	33724	0	0	0	17986	16600	153874	27519	963581	38675	106540	0	0	8142	769782	0	0
2024-05-06 21:41:32			0	33726	0	0	0	17984	16610	153762	27367	963616	38676	106539	0	0	8142	769640	0	0
2024-05-06 21:42:32			0	33722	0	0	0	17992	16600	153838	27436	963547	38665	106542	0	0	8141	769883	0	0
2024-05-06 21:43:32			0	33746	0	0	0	18018	16600	153818	27109	963626	38686	106552	0	0	8142	768679	0	0
2024-05-06 21:44:32			0	33755	0	0	0	18018	16600	153594	27067	963634	38675	106552	0	0	8143	768227	0	0
2024-05-06 21:45:32			0	33764	0	0	0	18023	16600	153662	27234	963634	38686	106554	0	0	8143	767776	0	0
2024-05-06 21:46:32			0	33764	0	0	0	18064	16610	153634	27280	963695	38687	106570	0	0	8143	767735	0	0
2024-05-06 21:47:32			0	33770	0	0	0	18049	16610	153546	27312	963703	38676	106564	0	0	8143	767434	0	0
2024-05-06 21:48:32			0	33759	0	0	0	18049	16610	153618	26942	963703	38676	106564	0	0	8143	767985	0	0
2024-05-06 21:49:32			0	33779	0	0	0	18051	16620	153598	27111	963738	38688	106565	0	0	8144	766942	0	0
2024-05-06 21:50:32			0	33773	0	0	0	18075	16620	153582	27201	963799	38688	106574	0	0	8143	767243	0	0
2024-05-06 21:51:32			0	33764	0	0	0	18070	16640	153674	27192	963797	38689	106572	0	0	8143	767610	0	0
2024-05-06 21:52:32			0	33753	0	0	0	18072	16630	153686	27474	963755	38677	106573	0	0	8142	768203	0	0
2024-05-06 21:53:32			0	33748	0	0	0	18070	16650	153630	27157	963840	38679	106572	0	0	8142	768370	0	0
2024-05-06 21:54:32			0	33737	0	0	0	18059	16650	153650	27121	963840	38701	106568	0	0	8141	768922	0	0
2024-05-06 21:55:32			0	33732	0	0	0	18088	16650	153658	27360	963901	38690	106579	0	0	8141	769173	0	0
2024-05-06 21:56:32			0	33737	0	0	0	18080	16650	153814	27298	963875	38679	106576	0	0	8141	768922	0	0
2024-05-06 21:57:32			0	33726	0	0	0	18088	16660	153734	27393	963970	38681	106579	0	0	8140	769432	0	0
2024-05-06 21:58:32			0	33753	0	0	0	18090	16660	153678	27069	963830	38702	106580	0	0	8142	768078	0	0
2024-05-06 21:59:32			0	33750	0	0	0	18093	16680	153766	27343	963995	38682	106581	0	0	8142	768145	0	0
2024-05-06 22:00:32			0	33746	0	0	0	18083	16670	153770	27348	963934	38693	106577	0	0	8142	768387	0	0
2024-05-06 22:01:32			0	33748	0	0	0	18098	16660	153730	27215	963944	38681	106583	0	0	8141	768329	0	0
2024-05-06 22:02:32			0	33741	0	0	0	18096	16680	153710	27410	963977	38705	106582	0	0	8141	768596	0	0
2024-05-06 22:03:32			0	33726	0	0	0	18101	16680	153730	27306	964003	38694	106584	0	0	8140	769348	0	0
2024-05-06 22:04:32			0	33725	0	0	0	18109	16680	153774	27246	964003	38694	106587	0	0	8140	769399	0	0
2024-05-06 22:05:32			0	33715	0	0	0	18109	16690	153758	27235	964064	38694	106587	0	0	8139	769859	0	0
2024-05-06 22:06:32			0	33714	0	0	0	18111	16690	153778	27152	964020	38683	106588	0	0	8139	769909	0	0
2024-05-06 22:07:32			0	33701	0	0	0	18119	16700	153906	27256	964054	38706	106591	0	0	8139	770520	0	0
2024-05-06 22:08:32			0	33700	0	0	0	18114	16690	153882	27159	964073	38694	106589	0	0	8138	770612	0	0
2024-05-06 22:09:32			0	33701	0	0	0	18127	16700	153926	27209	964002	38694	106594	0	0	8138	770520	0	0
2024-05-06 22:10:32			0	33688	0	0	0	18137	16700	153966	27528	964081	38706	106598	0	0	8137	771173	0	0
2024-05-06 22:11:32			0	33687	0	0	0	18140	16710	153950	27074	964185	38707	106599	0	0	8137	771182	0	0
2024-05-06 22:12:32			0	33680	0	0	0	18161	16720	153938	27550	964087	38707	106607	0	0	8137	771492	0	0
2024-05-06 22:13:32			0	33693	0	0	0	18171	16720	153970	27452	964175	38708	106611	0	0	8137	770838	0	0
2024-05-06 22:14:32			0	33689	0	0	0	18161	16730	153894	27324	964217	38708	106607	0	0	8137	770998	0	0
2024-05-06 22:15:32			0	33699	0	0	0	18153	16730	153794	26972	964217	38708	106604	0	0	8138	770495	0	0
2024-05-06 22:16:32			0	33710	0	0	0	18153	16750	153830	27218	964234	38688	106604	0	0	8139	769860	0	0
2024-05-06 22:17:32			0	33717	0	0	0	18148	16730	153650	27317	964296	38687	106602	0	0	8139	769592	0	0
2024-05-06 22:18:32			0	33738	0	0	0	18155	16750	153682	27317	964216	38721	106605	0	0	8140	768455	0	0
2024-05-06 22:19:32			0	33730	0	0	0	18153	16750	153666	27059	964234	38688	106604	0	0	8140	768856	0	0
2024-05-06 22:20:32			0	33745	0	0	0	18161	16750	153730	27135	964269	38710	106607	0	0	8141	768105	0	0
2024-05-06 22:21:32			0	33739	0	0	0	18174	16740	153602	27203	964226	38698	106612	0	0	8140	768447	0	0
2024-05-06 22:22:32			0	33747	0	0	0	18174	16750	153594	27261	964295	38700	106612	0	0	8141	768004	0	0
2024-05-06 22:23:32			0	33728	0	0	0	18181	16760	153606	27199	964338	38711	106615	0	0	8139	768915	0	0
2024-05-06 22:24:32			0	33760	0	0	0	18176	16770	153602	27258	964346	38711	106613	0	0	8141	767270	0	0
2024-05-06 22:25:32			0	33721	0	0	0	18179	16770	153594	27339	964320	38711	106614	0	0	8139	769224	0	0
2024-05-06 22:26:32			0	33733	0	0	0	18184	16770	153606	27353	964372	38722	106616	0	0	8140	768622	0	0
2024-05-06 22:27:32			0	33715	0	0	0	18171	16770	153726	27334	964399	38711	106611	0	0	8139	769525	0	0
2024-05-06 22:28:32			0	33713	0	0	0	18184	16780	153694	27474	964362	38702	106616	0	0	8139	769584	0	0
2024-05-06 22:29:32			0	33701	0	0	0	18176	16780	153654	27386	964362	38723	106613	0	0	8138	770186	0	0
2024-05-06 22:30:32			0	33721	0	0	0	18166	16780	153618	27187	964415	38702	106609	0	0	8139	769183	0	0
2024-05-06 22:31:32			0	33698	0	0	0	18168	16780	153742	27374	964389	38702	106610	0	0	8138	770337	0	0
2024-05-06 22:32:32			0	33709	0	0	0	18166	16780	153578	27320	964397	38702	106609	0	0	8139	769785	0	0
2024-05-06 22:33:32			0	33718	0	0	0	18181	16770	153754	27067	964354	38711	106615	0	0	8139	769375	0	0
2024-05-06 22:34:32			0	33704	0	0	0	18179	16770	153770	27105	964301	38711	106614	0	0	8138	770077	0	0
2024-05-06 22:35:32			0	33714	0	0	0	18192	16790	153662	27417	964440	38703	106619	0	0	8138	769492	0	0
2024-05-06 22:36:32			0	33729	0	0	0	18181	16790	153662	27611	964413	38703	106615	0	0	8140	768740	0	0
2024-05-06 22:37:32			0	33744	0	0	0	18189	16790	153630	27076	964361	38713	106618	0	0	8140	767988	0	0
2024-05-06 22:38:32			0	33742	0	0	0	18192	16800	153650	27275	964448	38704	106619	0	0	8140	768047	0	0
2024-05-06 22:39:32			0	33749	0	0	0	18192	16790	153526	27377	964458	38712	106619	0	0	8141	767738	0	0
2024-05-06 22:40:32			0	33786	0	0	0	18189	16800	153382	27429	964456	38725	106618	0	0	8143	765845	0	0
2024-05-06 22:41:32			0	33834	0	0	0	18176	16790	153174	27313	964432	38712	106613	0	0	8146	763490	0	0
2024-05-06 22:42:32			0	33853	0	0	0	18181	16780	153030	27358	964362	38702	106615	0	0	8147	762585	0	0
2024-05-06 22:43:32			0	33885	0	0	0	18174	16790	153106	27196	964379	38723	106612	0	0	8149	760951	0	0
2024-05-06 22:44:32			0	33857	0	0	0	18179	16790	153106	27339	964440	38724	106614	0	0	8147	762345	0	0
2024-05-06 22:45:32			0	33819	0	0	0	18179	16790	153158	27296	964440	38713	106614	0	0	8145	764239	0	0
2024-05-06 22:46:32			0	33824	0	0	0	18179	16790	153230	27168	964387	38703	106614	0	0	8145	763989	0	0
2024-05-06 22:47:32			0	33800	0	0	0	18179	16790	153342	27268	964352	38702	106614	0	0	8144	765187	0	0
2024-05-06 22:48:32			0	33800	0	0	0	18181	16780	153274	27241	964371	38702	106615	0	0	8144	765229	0	0
2024-05-06 22:49:32			0	33774	0	0	0	18179	16790	153354	27144	964379	38712	106614	0	0	8142	766487	0	0
2024-05-06 22:50:32			0	33774	0	0	0	18179	16790	153470	27144	964352	38712	106614	0	0	8142	766487	0	0
2024-05-06 22:51:32			0	33744	0	0	0	18166	16790	153450	27313	964379	38702	106609	0	0	8141	767988	0	0
2024-05-06 22:52:32			0	33735	0	0	0	18171	16790	153538	27234	964352	38702	106611	0	0	8140	768439	0	0
2024-05-06 22:53:32			0	33731	0	0	0	18179	16790	153630	27175	964379	38702	106614	0	0	8140	768640	0	0
2024-05-06 22:54:32			0	33730	0	0	0	18171	16790	153574	26984	964413	38703	106611	0	0	8140	768690	0	0
2024-05-06 22:55:32			0	33716	0	0	0	18181	16790	153682	26949	964466	38703	106615	0	0	8139	769392	0	0
2024-05-06 22:56:32			0	33691	0	0	0	18174	16780	153810	27524	964397	38712	106612	0	0	8137	770688	0	0
2024-05-06 22:57:32			0	33710	0	0	0	18168	16790	153762	27379	964458	38702	106610	0	0	8139	769693	0	0
2024-05-06 22:58:32			0	33693	0	0	0	18155	16790	153762	27391	964413	38703	106605	0	0	8138	770546	0	0
2024-05-06 22:59:32			0	33683	0	0	0	18148	16790	153746	27076	964379	38712	106602	0	0	8137	771049	0	0
2024-05-06 23:00:32			0	33667	0	0	0	18161	16780	153842	27057	964397	38712	106607	0	0	8136	771895	0	0
2024-05-06 23:01:32			0	33674	0	0	0	18140	16780	153894	27284	964397	38702	106599	0	0	8137	771543	0	0
2024-05-06 23:02:32			0	33647	0	0	0	18137	16790	153962	27334	964413	38703	106598	0	0	8135	772859	0	0
2024-05-06 23:03:32			0	33664	0	0	0	18137	16780	153962	27260	964318	38691	106598	0	0	8136	772046	0	0
2024-05-06 23:04:32			0	33634	0	0	0	18122	16780	153954	27225	964371	38702	106592	0	0	8135	773556	0	0
2024-05-06 23:05:32			0	33641	0	0	0	18119	16790	153954	27242	964352	38712	106591	0	0	8135	773162	0	0
2024-05-06 23:06:32			0	33630	0	0	0	18140	16770	154010	27341	964328	38701	106599	0	0	8134	773800	0	0
2024-05-06 23:07:32			0	33626	0	0	0	18145	16770	154046	27161	964346	38711	106601	0	0	8134	774001	0	0
2024-05-06 23:08:32			0	33639	0	0	0	18153	16770	154150	27248	964328	38701	106604	0	0	8135	773346	0	0
2024-05-06 23:09:32			0	33607	0	0	0	18158	16770	154106	27364	964320	38700	106606	0	0	8133	774959	0	0
2024-05-06 23:10:32			0	33609	0	0	0	18155	16770	154122	27109	964328	38701	106605	0	0	8133	774858	0	0
2024-05-06 23:11:32			0	33627	0	0	0	18140	16780	154070	27509	964318	38723	106599	0	0	8134	773909	0	0
2024-05-06 23:12:32			0	33651	0	0	0	18127	16770	154002	27086	964328	38701	106594	0	0	8136	772742	0	0
2024-05-06 23:13:32			0	33651	0	0	0	18122	16760	153946	27371	964259	38700	106592	0	0	8136	772784	0	0
2024-05-06 23:14:32			0	33676	0	0	0	18114	16770	153814	27124	964240	38689	106589	0	0	8137	771484	0	0
2024-05-06 23:15:32			0	33661	0	0	0	18111	16750	153938	27258	964216	38700	106588	0	0	8137	772322	0	0
2024-05-06 23:16:32			0	33655	0	0	0	18103	16770	154030	27177	964267	38700	106585	0	0	8136	772540	0	0
2024-05-06 23:17:32			0	33664	0	0	0	18111	16750	154002	26970	964242	38688	106588	0	0	8137	772171	0	0
2024-05-06 23:18:32			0	33649	0	0	0	18111	16750	153878	27173	964242	38700	106588	0	0	8136	772926	0	0
2024-05-06 23:19:32			0	33650	0	0	0	18101	16750	153942	27041	964242	38688	106584	0	0	8136	772876	0	0
2024-05-06 23:20:32			0	33657	0	0	0	18101	16740	153894	27105	964199	38698	106584	0	0	8136	772565	0	0
2024-05-06 23:21:32			0	33674	0	0	0	18098	16750	153882	27388	964216	38700	106583	0	0	8138	771668	0	0
2024-05-06 23:22:32			0	33680	0	0	0	18090	16750	153778	26968	964234	38688	106580	0	0	8138	771367	0	0
2024-05-06 23:23:32			0	33701	0	0	0	18077	16750	153650	26984	964189	38700	106575	0	0	8139	770311	0	0
2024-05-06 23:24:32			0	33737	0	0	0	18090	16730	153610	27041	964138	38698	106580	0	0	8141	768589	0	0
2024-05-06 23:25:32			0	33752	0	0	0	18075	16720	153566	27081	964114	38685	106574	0	0	8142	767879	0	0
2024-05-06 23:26:32			0	33764	0	0	0	18075	16720	153390	27131	964095	38708	106574	0	0	8143	767278	0	0
2024-05-06 23:27:32			0	33770	0	0	0	18064	16730	153298	27164	964077	38687	106570	0	0	8144	766936	0	0
2024-05-06 23:28:32			0	33777	0	0	0	18075	16730	153398	27211	964077	38687	106574	0	0	8144	766586	0	0
2024-05-06 23:29:32			0	33781	0	0	0	18067	16710	153394	27571	964044	38696	106571	0	0	8144	766469	0	0
2024-05-06 23:30:32			0	33763	0	0	0	18067	16720	153498	27267	964095	38697	106571	0	0	8143	767328	0	0
2024-05-06 23:31:32			0	33771	0	0	0	18062	16710	153418	27554	964018	38707	106569	0	0	8144	766969	0	0
2024-05-06 23:32:32			0	33731	0	0	0	18059	16710	153562	27199	964026	38696	106568	0	0	8141	768973	0	0
2024-05-06 23:33:32			0	33736	0	0	0	18072	16700	153666	27440	964010	38706	106573	0	0	8141	768764	0	0
2024-05-06 23:34:32			0	33675	0	0	0	18070	16700	153662	27381	964036	38706	106572	0	0	8138	771827	0	0
2024-05-06 23:35:32			0	33668	0	0	0	18059	16700	153878	27296	964036	38695	106568	0	0	8138	772179	0	0
2024-05-06 23:36:32			0	33658	0	0	0	18059	16690	153970	27039	964020	38706	106568	0	0	8137	772724	0	0
2024-05-06 23:37:32			0	33622	0	0	0	18067	16690	154066	27403	963985	38694	106571	0	0	8135	774538	0	0
2024-05-06 23:38:32			0	33621	0	0	0	18059	16690	154190	27505	963941	38706	106568	0	0	8135	774589	0	0
2024-05-06 23:39:32			0	33603	0	0	0	18044	16690	154210	27220	963993	38694	106562	0	0	8134	775497	0	0
2024-05-06 23:40:32			0	33598	0	0	0	18049	16690	154198	27097	963985	38694	106564	0	0	8134	775750	0	0
2024-05-06 23:41:32			0	33585	0	0	0	18057	16690	154214	27329	963941	38694	106567	0	0	8133	776406	0	0
2024-05-06 23:42:32			0	33586	0	0	0	18049	16700	154298	27358	963975	38694	106564	0	0	8133	776314	0	0
2024-05-06 23:43:32			0	33592	0	0	0	18051	16680	154226	27026	963942	38704	106565	0	0	8133	776095	0	0
2024-05-06 23:44:32			0	33583	0	0	0	18049	16680	154270	27237	963995	38682	106564	0	0	8133	776549	0	0
2024-05-06 23:45:32			0	33586	0	0	0	18054	16680	154386	27008	963916	38704	106566	0	0	8133	776398	0	0
2024-05-06 23:46:32			0	33593	0	0	0	18049	16680	154306	27455	963942	38682	106564	0	0	8133	776044	0	0
2024-05-06 23:47:32			0	33587	0	0	0	18046	16680	154274	27206	963916	38704	106563	0	0	8133	776347	0	0
2024-05-06 23:48:32			0	33574	0	0	0	18051	16680	154177	27092	963924	38694	106565	0	0	8132	777005	0	0
2024-05-06 23:49:32			0	33603	0	0	0	18041	16680	154238	27112	964022	38693	106561	0	0	8134	775539	0	0
2024-05-06 23:50:32			0	33590	0	0	0	18038	16660	154210	27286	963944	38692	106560	0	0	8133	776280	0	0
2024-05-06 23:51:32			0	33589	0	0	0	18044	16670	154258	27377	963873	38681	106562	0	0	8133	776288	0	0
2024-05-06 23:52:32			0	33600	0	0	0	18036	16670	154254	27229	963899	38692	106559	0	0	8134	775733	0	0
2024-05-06 23:53:32			0	33592	0	0	0	18044	16660	154306	27168	963838	38681	106562	0	0	8133	776179	0	0
2024-05-06 23:54:32			0	33580	0	0	0	18044	16670	154266	27287	963899	38681	106562	0	0	8133	776743	0	0
2024-05-06 23:55:32			0	33584	0	0	0	18033	16670	154178	26896	963873	38692	106558	0	0	8133	776541	0	0
2024-05-06 23:56:32			0	33596	0	0	0	18041	16660	154302	27052	963909	38691	106561	0	0	8133	775977	0	0
2024-05-06 23:57:32			0	33603	0	0	0	18033	16660	154226	26975	963891	38703	106558	0	0	8134	775623	0	0
2024-05-06 23:58:32			0	33594	0	0	0	18041	16660	154162	26979	963857	38691	106561	0	0	8133	776078	0	0
2024-05-06 23:59:32			0	33610	0	0	0	18046	16660	154246	26982	963857	38691	106563	0	0	8134	775270	0	0
2024-05-07 00:00:32			0	33606	0	0	0	18036	16670	154190	27171	963899	38713	106559	0	0	8134	775430	0	0
2024-05-07 00:01:32			0	33618	0	0	0	18038	16660	154102	27218	963838	38681	106560	0	0	8135	774866	0	0
2024-05-07 00:02:32			0	33616	0	0	0	18044	16670	154130	27203	963899	38692	106562	0	0	8135	774925	0	0
2024-05-07 00:03:32			0	33620	0	0	0	18038	16670	154058	26972	963847	38692	106560	0	0	8135	774723	0	0
2024-05-07 00:04:32			0	33609	0	0	0	18036	16660	154094	27209	963883	38691	106559	0	0	8134	775320	0	0
2024-05-07 00:05:32			0	33639	0	0	0	18036	16660	154150	27263	963891	38703	106559	0	0	8136	773807	0	0
2024-05-07 00:06:32			0	33633	0	0	0	18044	16660	154206	27303	963838	38692	106562	0	0	8136	774109	0	0
2024-05-07 00:07:32			0	33646	0	0	0	18036	16660	154094	27540	963883	38702	106559	0	0	8136	773454	0	0
2024-05-07 00:08:32			0	33630	0	0	0	18041	16660	154190	27105	963857	38691	106561	0	0	8135	774261	0	0
2024-05-07 00:09:32			0	33615	0	0	0	18044	16660	154090	27488	963830	38691	106562	0	0	8135	775017	0	0
2024-05-07 00:10:32			0	33618	0	0	0	18054	16660	154226	27412	963857	38691	106566	0	0	8135	774866	0	0
2024-05-07 00:11:32			0	33610	0	0	0	18051	16660	154250	27454	963909	38702	106565	0	0	8134	775270	0	0
2024-05-07 00:12:32			0	33604	0	0	0	18051	16660	154186	27282	963857	38702	106565	0	0	8134	775573	0	0
2024-05-07 00:13:32			0	33602	0	0	0	18044	16660	154262	27485	963891	38692	106562	0	0	8134	775674	0	0
2024-05-07 00:14:32			0	33598	0	0	0	18038	16660	154366	27346	963865	38703	106560	0	0	8134	775876	0	0
2024-05-07 00:15:32			0	33579	0	0	0	18038	16660	154330	27306	963857	38691	106560	0	0	8133	776836	0	0
2024-05-07 00:16:32			0	33573	0	0	0	18041	16660	154406	27312	963883	38680	106561	0	0	8132	777139	0	0
2024-05-07 00:17:32			0	33565	0	0	0	18046	16660	154445	27633	963838	38703	106563	0	0	8132	777544	0	0
2024-05-07 00:18:32			0	33550	0	0	0	18041	16670	154449	27358	963899	38692	106561	0	0	8131	778261	0	0
2024-05-07 00:19:32			0	33563	0	0	0	18046	16660	154505	27440	963970	38681	106563	0	0	8131	777645	0	0
2024-05-07 00:20:32			0	33537	0	0	0	18038	16660	154469	27504	963918	38713	106560	0	0	8130	778962	0	0
2024-05-07 00:21:32			0	33545	0	0	0	18036	16650	154585	27478	963893	38690	106559	0	0	8130	778599	0	0
2024-05-07 00:22:32			0	33538	0	0	0	18036	16650	154677	27505	963848	38701	106559	0	0	8130	778953	0	0
2024-05-07 00:23:32			0	33504	0	0	0	18038	16660	154661	27367	963865	38681	106560	0	0	8128	780635	0	0
2024-05-07 00:24:32			0	33511	0	0	0	18038	16650	154761	27327	963848	38690	106560	0	0	8128	780322	0	0
2024-05-07 00:25:32			0	33513	0	0	0	18038	16660	154725	27213	963865	38703	106560	0	0	8129	780179	0	0
2024-05-07 00:26:32			0	33481	0	0	0	18044	16660	154721	27209	963857	38712	106562	0	0	8127	781804	0	0
2024-05-07 00:27:32			0	33503	0	0	0	18033	16660	154741	27424	963857	38680	106558	0	0	8128	780686	0	0
2024-05-07 00:28:32			0	33498	0	0	0	18036	16660	154653	27372	963830	38691	106559	0	0	8128	780940	0	0
2024-05-07 00:29:32			0	33490	0	0	0	18033	16660	154761	27185	963865	38692	106558	0	0	8127	781346	0	0
2024-05-07 00:30:32			0	33497	0	0	0	18038	16650	154797	27177	963848	38690	106560	0	0	8128	781033	0	0
2024-05-07 00:31:32			0	33480	0	0	0	18036	16650	154841	27381	963796	38690	106559	0	0	8127	781897	0	0
2024-05-07 00:32:32			0	33489	0	0	0	18038	16660	154757	27371	963830	38691	106560	0	0	8127	781397	0	0
2024-05-07 00:33:32			0	33489	0	0	0	18033	16650	154889	27448	963822	38679	106558	0	0	8127	781440	0	0
2024-05-07 00:34:32			0	33481	0	0	0	18031	16640	154885	27334	963806	38700	106557	0	0	8127	781888	0	0
2024-05-07 00:35:32			0	33463	0	0	0	18031	16640	154833	27467	963858	38700	106557	0	0	8126	782804	0	0
2024-05-07 00:36:32			0	33480	0	0	0	18036	16650	154813	27435	963867	38701	106559	0	0	8127	781897	0	0
2024-05-07 00:37:32			0	33464	0	0	0	18031	16640	154789	27402	963858	38678	106557	0	0	8126	782753	0	0
2024-05-07 00:38:32			0	33473	0	0	0	18028	16640	154809	27137	963806	38689	106556	0	0	8126	782295	0	0
2024-05-07 00:39:32			0	33480	0	0	0	18020	16650	154865	27223	963840	38690	106553	0	0	8127	781897	0	0
2024-05-07 00:40:32			0	33439	0	0	0	18028	16650	154937	27031	963814	38690	106556	0	0	8124	783983	0	0
2024-05-07 00:41:32			0	33470	0	0	0	18020	16650	154929	27230	963840	38690	106553	0	0	8126	782405	0	0
2024-05-07 00:42:32			0	33460	0	0	0	18020	16640	154953	27391	963771	38689	106553	0	0	8126	782956	0	0
2024-05-07 00:43:32			0	33459	0	0	0	18023	16650	154925	27353	963848	38701	106554	0	0	8126	782965	0	0
2024-05-07 00:44:32			0	33454	0	0	0	18028	16650	154921	27332	963875	38711	106556	0	0	8125	783219	0	0
2024-05-07 00:45:32			0	33441	0	0	0	18025	16650	154969	27109	963787	38701	106555	0	0	8125	783881	0	0
2024-05-07 00:46:32			0	33450	0	0	0	18020	16640	154857	27341	963832	38700	106553	0	0	8125	783465	0	0
2024-05-07 00:47:32			0	33445	0	0	0	18020	16650	154945	27171	963814	38701	106553	0	0	8125	783678	0	0
2024-05-07 00:48:32			0	33439	0	0	0	18028	16640	154937	27495	963779	38678	106556	0	0	8124	784026	0	0
2024-05-07 00:49:32			0	33428	0	0	0	18020	16640	155001	27379	963779	38678	106553	0	0	8124	784586	0	0
2024-05-07 00:50:32			0	33419	0	0	0	18033	16640	154969	27109	963824	38689	106558	0	0	8123	785045	0	0
2024-05-07 00:51:32			0	33422	0	0	0	18023	16650	155065	27102	963840	38711	106554	0	0	8123	784850	0	0
2024-05-07 00:52:32			0	33427	0	0	0	18020	16640	155061	27268	963797	38689	106553	0	0	8124	784637	0	0
2024-05-07 00:53:32			0	33441	0	0	0	18020	16640	154957	27355	963797	38689	106553	0	0	8125	783924	0	0
2024-05-07 00:54:32			0	33448	0	0	0	18015	16640	154949	27307	963806	38678	106551	0	0	8125	783567	0	0
2024-05-07 00:55:32			0	33450	0	0	0	18015	16630	154913	27287	963789	38688	106551	0	0	8125	783508	0	0
2024-05-07 00:56:32			0	33444	0	0	0	17999	16630	154945	27497	963789	38688	106545	0	0	8125	783813	0	0
2024-05-07 00:57:32			0	33471	0	0	0	18007	16630	154769	27097	963763	38688	106548	0	0	8127	782439	0	0
2024-05-07 00:58:32			0	33488	0	0	0	17999	16640	154713	27157	963718	38689	106545	0	0	8128	781533	0	0
2024-05-07 00:59:32			0	33498	0	0	0	18002	16640	154573	27071	963771	38689	106546	0	0	8128	781025	0	0
2024-05-07 01:00:32			0	33499	0	0	0	18005	16640	154749	27088	963745	38700	106547	0	0	8128	780974	0	0
2024-05-07 01:01:32			0	33505	0	0	0	18005	16640	154657	27402	963824	38689	106547	0	0	8129	780669	0	0
2024-05-07 01:02:32			0	33513	0	0	0	18007	16630	154577	27137	963755	38688	106548	0	0	8129	780305	0	0
2024-05-07 01:03:32			0	33527	0	0	0	18005	16630	154553	27203	963755	38688	106547	0	0	8130	779595	0	0
2024-05-07 01:04:32			0	33523	0	0	0	17994	16630	154561	26991	963763	38688	106543	0	0	8130	779798	0	0
2024-05-07 01:05:32			0	33533	0	0	0	17979	16640	154497	27274	963745	38678	106537	0	0	8131	779249	0	0
2024-05-07 01:06:32			0	33552	0	0	0	17963	16620	154373	27331	963746	38688	106531	0	0	8132	778371	0	0
2024-05-07 01:07:32			0	33541	0	0	0	17966	16620	154357	27208	963720	38699	106532	0	0	8131	778928	0	0
2024-05-07 01:08:32			0	33564	0	0	0	17961	16630	154401	27504	963684	38677	106530	0	0	8133	777721	0	0
2024-05-07 01:09:32			0	33558	0	0	0	17961	16620	154389	27216	963694	38676	106530	0	0	8132	778067	0	0
2024-05-07 01:10:32			0	33560	0	0	0	17958	16610	154333	27358	963642	38687	106529	0	0	8133	778008	0	0
2024-05-07 01:11:32			0	33557	0	0	0	17955	16600	154421	27284	963608	38665	106528	0	0	8132	778202	0	0
2024-05-07 01:12:32			0	33578	0	0	0	17955	16610	154434	27213	963642	38676	106528	0	0	8134	777097	0	0
2024-05-07 01:13:32			0	33592	0	0	0	17953	16600	154282	27679	963634	38686	106527	0	0	8134	776431	0	0
2024-05-07 01:14:32			0	33584	0	0	0	17961	16600	154334	27384	963581	38686	106530	0	0	8134	776835	0	0
2024-05-07 01:15:32			0	33609	0	0	0	17950	16600	154166	27190	963608	38675	106526	0	0	8135	775572	0	0
2024-05-07 01:16:32			0	33619	0	0	0	17950	16590	154070	27485	963591	38664	106526	0	0	8136	775109	0	0
2024-05-07 01:17:32			0	33618	0	0	0	17948	16590	154154	27381	963565	38674	106525	0	0	8136	775160	0	0
2024-05-07 01:18:32			0	33625	0	0	0	17945	16600	154098	27267	963573	38675	106524	0	0	8137	774764	0	0
2024-05-07 01:19:32			0	33640	0	0	0	17958	16590	154122	27713	963583	38685	106529	0	0	8137	774050	0	0
2024-05-07 01:20:32			0	33622	0	0	0	17945	16590	154150	27400	963557	38664	106524	0	0	8136	774958	0	0
2024-05-07 01:21:32			0	33623	0	0	0	17948	16590	154206	27249	963557	38696	106525	0	0	8136	774907	0	0
2024-05-07 01:22:32			0	33629	0	0	0	17940	16580	154118	27306	963575	38673	106522	0	0	8137	774646	0	0
2024-05-07 01:23:32			0	33603	0	0	0	17948	16580	154282	27495	963601	38684	106525	0	0	8135	775959	0	0
2024-05-07 01:24:32			0	33604	0	0	0	17945	16580	154218	27568	963488	38694	106524	0	0	8135	775909	0	0
2024-05-07 01:25:32			0	33593	0	0	0	17942	16580	154174	27171	963514	38683	106523	0	0	8135	776464	0	0
2024-05-07 01:26:32			0	33598	0	0	0	17945	16570	154310	27576	963506	38683	106524	0	0	8135	776254	0	0
2024-05-07 01:27:32			0	33575	0	0	0	17942	16560	154277	27287	963542	38694	106523	0	0	8133	777459	0	0
2024-05-07 01:28:32			0	33556	0	0	0	17950	16570	154249	27459	963559	38672	106526	0	0	8132	778379	0	0
2024-05-07 01:29:32			0	33572	0	0	0	17940	16560	154393	27244	963516	38682	106522	0	0	8133	777611	0	0
2024-05-07 01:30:32			0	33569	0	0	0	17945	16560	154501	27211	963489	38671	106524	0	0	8133	777762	0	0
2024-05-07 01:31:32			0	33561	0	0	0	17940	16580	154485	27727	963514	38683	106522	0	0	8133	778083	0	0
2024-05-07 01:32:32			0	33541	0	0	0	17945	16570	154445	27698	963532	38683	106524	0	0	8131	779139	0	0
2024-05-07 01:33:32			0	33547	0	0	0	17942	16570	154401	27206	963559	38662	106523	0	0	8132	778834	0	0
2024-05-07 01:34:32			0	33558	0	0	0	17948	16570	154537	27346	963532	38672	106525	0	0	8132	778277	0	0
2024-05-07 01:35:32			0	33551	0	0	0	17942	16560	154501	27505	963489	38682	106523	0	0	8132	778674	0	0
2024-05-07 01:36:32			0	33531	0	0	0	17945	16570	154557	27268	963524	38694	106524	0	0	8131	779646	0	0
2024-05-07 01:37:32			0	33536	0	0	0	17937	16550	154521	27424	963438	38681	106521	0	0	8131	779476	0	0
2024-05-07 01:38:32			0	33538	0	0	0	17940	16560	154549	27405	963481	38682	106522	0	0	8131	779333	0	0
2024-05-07 01:39:32			0	33545	0	0	0	17942	16560	154489	27653	963516	38661	106523	0	0	8132	778978	0	0
2024-05-07 01:40:32			0	33534	0	0	0	17937	16560	154521	27407	963508	38682	106521	0	0	8131	779536	0	0
2024-05-07 01:41:32			0	33537	0	0	0	17945	16560	154553	27578	963489	38682	106524	0	0	8131	779384	0	0
2024-05-07 01:42:32			0	33508	0	0	0	17937	16560	154601	27614	963516	38682	106521	0	0	8130	780855	0	0
2024-05-07 01:43:32			0	33516	0	0	0	17937	16560	154521	27396	963534	38693	106521	0	0	8130	780449	0	0
2024-05-07 01:44:32			0	33531	0	0	0	17940	16550	154549	27171	963447	38682	106522	0	0	8131	779730	0	0
2024-05-07 01:45:32			0	33527	0	0	0	17937	16560	154537	27074	963481	38693	106521	0	0	8131	779891	0	0
2024-05-07 01:46:32			0	33509	0	0	0	17937	16560	154593	27412	963489	38682	106521	0	0	8130	780804	0	0
2024-05-07 01:47:32			0	33511	0	0	0	17945	16560	154633	27124	963481	38671	106524	0	0	8130	780703	0	0
2024-05-07 01:48:32			0	33501	0	0	0	17940	16550	154537	27128	963473	38682	106522	0	0	8129	781253	0	0
2024-05-07 01:49:32			0	33513	0	0	0	17937	16550	154673	27086	963473	38682	106521	0	0	8130	780643	0	0
2024-05-07 01:50:32			0	33502	0	0	0	17935	16560	154737	27203	963428	38693	106520	0	0	8129	781160	0	0
2024-05-07 01:51:32			0	33499	0	0	0	17945	16540	154773	27109	963483	38681	106524	0	0	8129	781397	0	0
2024-05-07 01:52:32			0	33475	0	0	0	17937	16550	154801	27248	963526	38671	106521	0	0	8128	782575	0	0
2024-05-07 01:53:32			0	33457	0	0	0	17932	16550	154901	27467	963491	38670	106519	0	0	8127	783491	0	0
2024-05-07 01:54:32			0	33446	0	0	0	17932	16550	155009	27364	963473	38682	106519	0	0	8126	784051	0	0
2024-05-07 01:55:32			0	33444	0	0	0	17940	16550	154941	27294	963447	38693	106522	0	0	8126	784153	0	0
2024-05-07 01:56:32			0	33420	0	0	0	17924	16550	155089	27460	963473	38682	106516	0	0	8125	785377	0	0
2024-05-07 01:57:32			0	33444	0	0	0	17935	16550	155081	27724	963552	38682	106520	0	0	8126	784153	0	0
2024-05-07 01:58:32			0	33433	0	0	0	17937	16550	155089	27722	963491	38681	106521	0	0	8125	784713	0	0
2024-05-07 01:59:32			0	33409	0	0	0	17935	16550	155169	27469	963465	38681	106520	0	0	8124	785938	0	0
2024-05-07 02:00:32			0	33401	0	0	0	17935	16550	155165	27393	963499	38682	106520	0	0	8123	786346	0	0
2024-05-07 02:01:32			0	33428	0	0	0	17940	16560	155113	27364	963481	38693	106522	0	0	8125	784926	0	0
2024-05-07 02:02:32			0	33407	0	0	0	17945	16550	155249	27447	963473	38682	106524	0	0	8123	786040	0	0
2024-05-07 02:03:32			0	33420	0	0	0	17937	16540	155093	26994	963430	38692	106521	0	0	8124	785419	0	0
2024-05-07 02:04:32			0	33416	0	0	0	17932	16550	155185	27582	963526	38693	106519	0	0	8124	785581	0	0
2024-05-07 02:05:32			0	33430	0	0	0	17940	16550	155153	26987	963491	38681	106522	0	0	8125	784866	0	0
2024-05-07 02:06:32			0	33438	0	0	0	17942	16550	155189	27180	963473	38682	106523	0	0	8125	784459	0	0
2024-05-07 02:07:32			0	33428	0	0	0	17945	16560	155033	27147	963481	38682	106524	0	0	8125	784926	0	0
2024-05-07 02:08:32			0	33426	0	0	0	17942	16550	155101	27628	963473	38693	106523	0	0	8125	785071	0	0
2024-05-07 02:09:32			0	33433	0	0	0	17945	16540	155121	27343	963509	38681	106524	0	0	8125	784756	0	0
2024-05-07 02:10:32			0	33428	0	0	0	17940	16540	155045	27523	963457	38681	106522	0	0	8125	785011	0	0
2024-05-07 02:11:32			0	33438	0	0	0	17940	16540	155205	27137	963457	38681	106522	0	0	8125	784501	0	0
2024-05-07 02:12:32			0	33427	0	0	0	17940	16550	155173	27379	963473	38693	106522	0	0	8125	785019	0	0
2024-05-07 02:13:32			0	33419	0	0	0	17932	16550	155237	27293	963465	38670	106519	0	0	8124	785428	0	0
2024-05-07 02:14:32			0	33414	0	0	0	17937	16550	155073	27216	963473	38682	106521	0	0	8124	785683	0	0
2024-05-07 02:15:32			0	33417	0	0	0	17932	16560	155053	27543	963508	38693	106519	0	0	8124	785487	0	0
2024-05-07 02:16:32			0	33415	0	0	0	17937	16550	155141	27286	963491	38692	106521	0	0	8124	785632	0	0
2024-05-07 02:17:32			0	33404	0	0	0	17929	16540	155157	27254	963457	38681	106518	0	0	8123	786236	0	0
2024-05-07 02:18:32			0	33419	0	0	0	17932	16550	155125	27215	963420	38693	106519	0	0	8124	785428	0	0
2024-05-07 02:19:32			0	33414	0	0	0	17929	16540	155125	27668	963422	38680	106518	0	0	8124	785725	0	0
2024-05-07 02:20:32			0	33407	0	0	0	17937	16550	155205	27296	963518	38681	106521	0	0	8124	786040	0	0
2024-05-07 02:21:32			0	33386	0	0	0	17927	16550	155305	27272	963491	38692	106517	0	0	8122	787113	0	0
2024-05-07 02:22:32			0	33413	0	0	0	17937	16550	155349	27358	963526	38682	106521	0	0	8124	785734	0	0
2024-05-07 02:23:32			0	33403	0	0	0	17935	16550	155153	27371	963465	38681	106520	0	0	8123	786244	0	0
2024-05-07 02:24:32			0	33406	0	0	0	17932	16550	155229	27202	963518	38692	106519	0	0	8124	786091	0	0
2024-05-07 02:25:32			0	33383	0	0	0	17935	16540	155105	27403	963457	38692	106520	0	0	8122	787309	0	0
2024-05-07 02:26:32			0	33416	0	0	0	17942	16540	155197	27459	963457	38681	106523	0	0	8124	785623	0	0
2024-05-07 02:27:32			0	33399	0	0	0	17932	16540	155325	27500	963475	38691	106519	0	0	8123	786491	0	0
2024-05-07 02:28:32			0	33409	0	0	0	17937	16550	155261	27523	963438	38681	106521	0	0	8124	785938	0	0
2024-05-07 02:29:32			0	33408	0	0	0	17927	16560	155237	27357	963481	38682	106517	0	0	8124	785946	0	0
2024-05-07 02:30:32			0	33403	0	0	0	17945	16550	155257	27312	963552	38693	106524	0	0	8123	786244	0	0
2024-05-07 02:31:32			0	33394	0	0	0	17945	16550	155233	27097	963491	38692	106524	0	0	8123	786704	0	0
2024-05-07 02:32:32			0	33406	0	0	0	17937	16550	155193	27459	963518	38670	106521	0	0	8123	786091	0	0
2024-05-07 02:33:32			0	33392	0	0	0	17935	16550	155193	27495	963491	38670	106520	0	0	8123	786806	0	0
2024-05-07 02:34:32			0	33402	0	0	0	17940	16550	155245	27365	963491	38681	106522	0	0	8123	786295	0	0
2024-05-07 02:35:32			0	33382	0	0	0	17937	16550	155169	27239	963465	38681	106521	0	0	8122	787317	0	0
2024-05-07 02:36:32			0	33390	0	0	0	17945	16550	155257	27310	963465	38692	106524	0	0	8122	786908	0	0
2024-05-07 02:37:32			0	33379	0	0	0	17945	16550	155337	27372	963465	38681	106524	0	0	8122	787470	0	0
2024-05-07 02:38:32			0	33350	0	0	0	17948	16550	155365	27478	963499	38682	106525	0	0	8120	788955	0	0
2024-05-07 02:39:32			0	33354	0	0	0	17950	16560	155361	27253	963508	38693	106526	0	0	8120	788707	0	0
2024-05-07 02:40:32			0	33370	0	0	0	17948	16550	155405	27410	963526	38682	106525	0	0	8121	787931	0	0
2024-05-07 02:41:32			0	33346	0	0	0	17953	16560	155485	27599	963534	38682	106527	0	0	8120	789117	0	0
2024-05-07 02:42:32			0	33341	0	0	0	17953	16550	155461	27637	963579	38693	106527	0	0	8119	789415	0	0
2024-05-07 02:43:32			0	33345	0	0	0	17958	16560	155457	27469	963534	38693	106529	0	0	8120	789168	0	0
2024-05-07 02:44:32			0	33338	0	0	0	17955	16560	155501	27379	963516	38694	106528	0	0	8119	789526	0	0
2024-05-07 02:45:32			0	33345	0	0	0	17963	16560	155513	27455	963542	38694	106531	0	0	8119	789168	0	0
2024-05-07 02:46:32			0	33346	0	0	0	17961	16550	155605	27253	963526	38693	106530	0	0	8119	789159	0	0
2024-05-07 02:47:32			0	33336	0	0	0	17966	16580	155565	27469	963567	38694	106532	0	0	8119	789543	0	0
2024-05-07 02:48:32			0	33338	0	0	0	17953	16570	155593	27640	963559	38683	106527	0	0	8119	789484	0	0
2024-05-07 02:49:32			0	33340	0	0	0	17948	16560	155517	27604	963534	38693	106525	0	0	8119	789424	0	0
2024-05-07 02:50:32			0	33336	0	0	0	17958	16550	155509	27440	963526	38693	106529	0	0	8119	789672	0	0
2024-05-07 02:51:32			0	33336	0	0	0	17958	16580	155589	27386	963593	38683	106529	0	0	8119	789543	0	0
2024-05-07 02:52:32			0	33329	0	0	0	17955	16560	155549	27516	963621	38705	106528	0	0	8119	789988	0	0
2024-05-07 02:53:32			0	33336	0	0	0	17958	16570	155481	27419	963577	38683	106529	0	0	8119	789586	0	0
2024-05-07 02:54:32			0	33346	0	0	0	17968	16560	155633	27215	963569	38694	106533	0	0	8119	789117	0	0
2024-05-07 02:55:32			0	33333	0	0	0	17968	16580	155565	27630	963593	38706	106533	0	0	8119	789697	0	0
2024-05-07 02:56:32			0	33331	0	0	0	17968	16580	155573	27824	963540	38694	106533	0	0	8119	789800	0	0
2024-05-07 02:57:32			0	33336	0	0	0	17966	16570	155529	27647	963559	38706	106532	0	0	8119	789586	0	0
2024-05-07 02:58:32			0	33328	0	0	0	17963	16580	155597	27673	963601	38695	106531	0	0	8119	789953	0	0
2024-05-07 02:59:32			0	33328	0	0	0	17966	16560	155645	27571	963595	38694	106532	0	0	8118	790039	0	0
2024-05-07 03:00:32			0	33313	0	0	0	17966	16580	155645	27505	963593	38683	106532	0	0	8118	790723	0	0
2024-05-07 03:01:32			0	33332	0	0	0	17971	16560	155521	27428	963542	38694	106534	0	0	8119	789834	0	0
2024-05-07 03:02:32			0	33315	0	0	0	17963	16560	155605	27559	963569	38694	106531	0	0	8118	790706	0	0
2024-05-07 03:03:32			0	33313	0	0	0	17958	16580	155657	27279	963646	38683	106529	0	0	8118	790723	0	0
2024-05-07 03:04:32			0	33319	0	0	0	17961	16580	155557	27287	963672	38694	106530	0	0	8118	790415	0	0
2024-05-07 03:05:32			0	33333	0	0	0	17966	16570	155569	27490	963585	38672	106532	0	0	8119	789740	0	0
2024-05-07 03:06:32			0	33312	0	0	0	17958	16560	155609	27635	963648	38694	106529	0	0	8118	790859	0	0
2024-05-07 03:07:32			0	33319	0	0	0	17966	16570	155669	27445	963532	38694	106532	0	0	8118	790458	0	0
2024-05-07 03:08:32			0	33321	0	0	0	17968	16580	155653	27429	963567	38672	106533	0	0	8118	790312	0	0
2024-05-07 03:09:32			0	33340	0	0	0	17961	16580	155593	27490	963620	38683	106530	0	0	8119	789339	0	0
2024-05-07 03:10:32			0	33326	0	0	0	17958	16580	155577	27613	963620	38683	106529	0	0	8118	790056	0	0
2024-05-07 03:11:32			0	33322	0	0	0	17963	16570	155517	27336	963559	38683	106531	0	0	8118	790304	0	0
2024-05-07 03:12:32			0	33317	0	0	0	17961	16570	155529	27377	963611	38672	106530	0	0	8118	790560	0	0
2024-05-07 03:13:32			0	33347	0	0	0	17963	16580	155461	27258	963628	38684	106531	0	0	8120	788980	0	0
2024-05-07 03:14:32			0	33342	0	0	0	17968	16580	155401	27639	963593	38694	106533	0	0	8119	789236	0	0
2024-05-07 03:15:32			0	33333	0	0	0	17961	16580	155417	27677	963620	38683	106530	0	0	8119	789697	0	0
2024-05-07 03:16:32			0	33369	0	0	0	17955	16580	155221	27397	963593	38683	106528	0	0	8121	787854	0	0
2024-05-07 03:17:32			0	33371	0	0	0	17963	16580	155189	27414	963672	38694	106531	0	0	8121	787752	0	0
2024-05-07 03:18:32			0	33380	0	0	0	17958	16570	155237	27369	963638	38683	106529	0	0	8122	787334	0	0
2024-05-07 03:19:32			0	33393	0	0	0	17971	16580	155213	27663	963567	38706	106534	0	0	8122	786627	0	0
2024-05-07 03:20:32			0	33380	0	0	0	17961	16570	155289	27618	963550	38694	106530	0	0	8122	787334	0	0
2024-05-07 03:21:32			0	33378	0	0	0	17961	16580	155169	27595	963620	38683	106530	0	0	8122	787394	0	0
2024-05-07 03:22:32			0	33398	0	0	0	17953	16580	155249	27372	963567	38694	106527	0	0	8123	786372	0	0
2024-05-07 03:23:32			0	33399	0	0	0	17955	16580	155189	27386	963628	38684	106528	0	0	8123	786321	0	0
2024-05-07 03:24:32			0	33402	0	0	0	17971	16580	155201	27351	963522	38706	106534	0	0	8123	786168	0	0
2024-05-07 03:25:32			0	33424	0	0	0	17961	16580	155165	27261	963593	38683	106530	0	0	8124	785045	0	0
2024-05-07 03:26:32			0	33430	0	0	0	17963	16580	155069	27260	963646	38683	106531	0	0	8125	784739	0	0
2024-05-07 03:27:32			0	33422	0	0	0	17950	16570	155057	27307	963585	38694	106526	0	0	8124	785189	0	0
2024-05-07 03:28:32			0	33426	0	0	0	17958	16570	155065	27516	963638	38694	106529	0	0	8124	784986	0	0
2024-05-07 03:29:32			0	33425	0	0	0	17961	16560	154969	27353	963516	38705	106530	0	0	8124	785079	0	0
2024-05-07 03:30:32			0	33433	0	0	0	17961	16580	155065	27467	963593	38706	106530	0	0	8125	784586	0	0
2024-05-07 03:31:32			0	33444	0	0	0	17961	16570	154925	27237	963559	38683	106530	0	0	8125	784068	0	0
2024-05-07 03:32:32			0	33453	0	0	0	17963	16570	154941	27426	963585	38683	106531	0	0	8126	783610	0	0
2024-05-07 03:33:32			0	33449	0	0	0	17963	16570	154905	27476	963603	38694	106531	0	0	8126	783813	0	0
2024-05-07 03:34:32			0	33452	0	0	0	17963	16570	154849	27452	963630	38694	106531	0	0	8126	783660	0	0
2024-05-07 03:35:32			0	33446	0	0	0	17950	16590	154905	27504	963610	38696	106526	0	0	8126	783881	0	0
2024-05-07 03:36:32			0	33464	0	0	0	17955	16560	154933	27474	963542	38682	106528	0	0	8127	783092	0	0
2024-05-07 03:37:32			0	33450	0	0	0	17955	16580	154917	27265	963567	38694	106528	0	0	8126	783720	0	0
2024-05-07 03:38:32			0	33441	0	0	0	17953	16580	154997	27284	963620	38694	106527	0	0	8125	784178	0	0
2024-05-07 03:39:32			0	33447	0	0	0	17963	16570	154961	27493	963585	38694	106531	0	0	8126	783915	0	0
2024-05-07 03:40:32			0	33455	0	0	0	17958	16570	154969	27556	963550	38694	106529	0	0	8126	783508	0	0
2024-05-07 03:41:32			0	33451	0	0	0	17953	16580	154989	27464	963620	38672	106527	0	0	8126	783669	0	0
2024-05-07 03:42:32			0	33472	0	0	0	17958	16580	154917	27469	963567	38694	106529	0	0	8127	782600	0	0
2024-05-07 03:43:32			0	33453	0	0	0	17958	16560	154901	27376	963587	38671	106529	0	0	8126	783652	0	0
2024-05-07 03:44:32			0	33468	0	0	0	17950	16560	154861	27351	963569	38705	106526	0	0	8127	782888	0	0
2024-05-07 03:45:32			0	33473	0	0	0	17950	16580	154765	27417	963567	38694	106526	0	0	8127	782549	0	0
2024-05-07 03:46:32			0	33517	0	0	0	17953	16560	154693	27435	963595	38682	106527	0	0	8130	780398	0	0
2024-05-07 03:47:32			0	33511	0	0	0	17948	16560	154609	27495	963569	38694	106525	0	0	8130	780703	0	0
2024-05-07 03:48:32			0	33513	0	0	0	17953	16570	154577	27263	963585	38694	106527	0	0	8130	780559	0	0
2024-05-07 03:49:32			0	33526	0	0	0	17955	16580	154573	27428	963620	38694	106528	0	0	8130	779857	0	0
2024-05-07 03:50:32			0	33530	0	0	0	17953	16560	154477	27428	963542	38694	106527	0	0	8131	779739	0	0
2024-05-07 03:51:32			0	33541	0	0	0	17950	16560	154541	27223	963595	38682	106526	0	0	8131	779181	0	0
2024-05-07 03:52:32			0	33529	0	0	0	17955	16560	154441	27140	963534	38693	106528	0	0	8130	779789	0	0
2024-05-07 03:53:32			0	33546	0	0	0	17953	16560	154457	27353	963595	38694	106527	0	0	8132	778927	0	0
2024-05-07 03:54:32			0	33543	0	0	0	17958	16570	154529	27234	963585	38694	106529	0	0	8131	779037	0	0
2024-05-07 03:55:32			0	33552	0	0	0	17948	16560	154537	27296	963569	38705	106525	0	0	8132	778623	0	0
2024-05-07 03:56:32			0	33548	0	0	0	17950	16560	154565	27471	963542	38682	106526	0	0	8132	778826	0	0
2024-05-07 03:57:32			0	33539	0	0	0	17948	16560	154585	27587	963508	38693	106525	0	0	8131	779282	0	0
2024-05-07 03:58:32			0	33543	0	0	0	17955	16560	154501	27170	963534	38714	106528	0	0	8131	779079	0	0
2024-05-07 03:59:32			0	33538	0	0	0	17958	16560	154481	27509	963542	38682	106529	0	0	8131	779333	0	0
2024-05-07 04:00:32			0	33540	0	0	0	17953	16560	154417	27398	963534	38693	106527	0	0	8131	779231	0	0
2024-05-07 04:01:32			0	33515	0	0	0	17955	16570	154501	27417	963585	38694	106528	0	0	8130	780457	0	0
2024-05-07 04:02:32			0	33532	0	0	0	17958	16560	154525	27251	963516	38715	106529	0	0	8131	779637	0	0
2024-05-07 04:03:32			0	33540	0	0	0	17961	16560	154545	27170	963534	38693	106530	0	0	8131	779231	0	0
2024-05-07 04:04:32			0	33543	0	0	0	17953	16560	154521	27557	963569	38694	106527	0	0	8131	779079	0	0
2024-05-07 04:05:32			0	33547	0	0	0	17966	16560	154493	27027	963560	38704	106532	0	0	8131	778877	0	0
2024-05-07 04:06:32			0	33534	0	0	0	17961	16560	154429	27274	963542	38694	106530	0	0	8131	779536	0	0
2024-05-07 04:07:32			0	33550	0	0	0	17958	16560	154445	27319	963569	38694	106529	0	0	8132	778725	0	0
2024-05-07 04:08:32			0	33563	0	0	0	17961	16560	154457	27381	963595	38694	106530	0	0	8132	778066	0	0
2024-05-07 04:09:32			0	33570	0	0	0	17958	16570	154322	27519	963603	38694	106529	0	0	8133	777670	0	0
2024-05-07 04:10:32			0	33590	0	0	0	17968	16570	154330	27289	963585	38694	106533	0	0	8134	776658	0	0
2024-05-07 04:11:32			0	33592	0	0	0	17963	16560	154210	27517	963613	38704	106531	0	0	8134	776599	0	0
2024-05-07 04:12:32			0	33620	0	0	0	17966	16560	154118	27405	963595	38694	106532	0	0	8136	775184	0	0
2024-05-07 04:13:32			0	33632	0	0	0	17963	16580	154066	27126	963593	38694	106531	0	0	8137	774495	0	0
2024-05-07 04:14:32			0	33661	0	0	0	17958	16580	154010	27381	963646	38694	106529	0	0	8138	773033	0	0
2024-05-07 04:15:32			0	33674	0	0	0	17968	16560	153878	27639	963621	38705	106533	0	0	8139	772462	0	0
2024-05-07 04:16:32			0	33676	0	0	0	17958	16580	153730	27588	963620	38706	106529	0	0	8139	772278	0	0
2024-05-07 04:17:32			0	33686	0	0	0	17958	16560	153698	27493	963595	38682	106529	0	0	8140	771858	0	0
2024-05-07 04:18:32			0	33712	0	0	0	17955	16580	153558	27135	963620	38694	106528	0	0	8141	770468	0	0
2024-05-07 04:19:32			0	33715	0	0	0	17966	16580	153614	27559	963567	38694	106532	0	0	8141	770317	0	0
2024-05-07 04:20:32			0	33730	0	0	0	17966	16580	153502	27339	963593	38706	106532	0	0	8142	769564	0	0
2024-05-07 04:21:32			0	33713	0	0	0	17966	16570	153570	27279	963630	38694	106532	0	0	8141	770459	0	0
2024-05-07 04:22:32			0	33726	0	0	0	17963	16570	153498	27270	963611	38706	106531	0	0	8142	769807	0	0
2024-05-07 04:23:32			0	33713	0	0	0	17958	16570	153538	27281	963603	38694	106529	0	0	8141	770459	0	0
2024-05-07 04:24:32			0	33708	0	0	0	17968	16580	153602	27229	963646	38694	106533	0	0	8141	770669	0	0
2024-05-07 04:25:32			0	33706	0	0	0	17966	16580	153670	27344	963567	38683	106532	0	0	8141	770769	0	0
2024-05-07 04:26:32			0	33698	0	0	0	17966	16570	153574	27218	963585	38694	106532	0	0	8140	771213	0	0
2024-05-07 04:27:32			0	33702	0	0	0	17963	16580	153770	27338	963646	38694	106531	0	0	8141	770970	0	0
2024-05-07 04:28:32			0	33674	0	0	0	17963	16560	153838	27305	963621	38694	106531	0	0	8139	772462	0	0
2024-05-07 04:29:32			0	33677	0	0	0	17966	16570	153746	27301	963603	38716	106532	0	0	8139	772270	0	0
2024-05-07 04:30:32			0	33668	0	0	0	17968	16580	153798	27694	963620	38706	106533	0	0	8139	772681	0	0
2024-05-07 04:31:32			0	33654	0	0	0	17971	16570	153874	27502	963559	38694	106534	0	0	8138	773428	0	0
2024-05-07 04:32:32			0	33658	0	0	0	17968	16580	153922	27343	963628	38684	106533	0	0	8138	773184	0	0
2024-05-07 04:33:32			0	33648	0	0	0	17963	16580	153978	27324	963620	38683	106531	0	0	8137	773688	0	0
2024-05-07 04:34:32			0	33632	0	0	0	17968	16580	153926	27305	963620	38706	106533	0	0	8136	774495	0	0
2024-05-07 04:35:32			0	33627	0	0	0	17958	16560	153942	27164	963621	38694	106529	0	0	8136	774831	0	0
2024-05-07 04:36:32			0	33609	0	0	0	17968	16570	154094	27301	963559	38694	106533	0	0	8135	775698	0	0
2024-05-07 04:37:32			0	33613	0	0	0	17955	16580	154146	27422	963593	38706	106528	0	0	8136	775454	0	0
2024-05-07 04:38:32			0	33593	0	0	0	17971	16580	154118	27481	963654	38695	106534	0	0	8134	776464	0	0
2024-05-07 04:39:32			0	33582	0	0	0	17971	16570	154174	27260	963664	38683	106534	0	0	8133	777063	0	0
2024-05-07 04:40:32			0	33588	0	0	0	17974	16570	154202	27180	963664	38694	106535	0	0	8134	776759	0	0
2024-05-07 04:41:32			0	33572	0	0	0	17976	16580	154194	27644	963628	38684	106536	0	0	8133	777527	0	0
2024-05-07 04:42:32			0	33573	0	0	0	17974	16580	154233	27353	963680	38695	106535	0	0	8133	777476	0	0
2024-05-07 04:43:32			0	33579	0	0	0	17968	16580	154270	27293	963601	38684	106533	0	0	8133	777172	0	0
2024-05-07 04:44:32			0	33561	0	0	0	17974	16580	154341	27431	963601	38717	106535	0	0	8132	778083	0	0
2024-05-07 04:45:32			0	33550	0	0	0	17966	16580	154337	27287	963628	38706	106532	0	0	8132	778640	0	0
2024-05-07 04:46:32			0	33548	0	0	0	17971	16580	154333	27722	963654	38695	106534	0	0	8131	778742	0	0
2024-05-07 04:47:32			0	33555	0	0	0	17976	16590	154309	27448	963636	38696	106536	0	0	8132	778345	0	0
2024-05-07 04:48:32			0	33548	0	0	0	17971	16580	154393	27353	963672	38694	106534	0	0	8131	778742	0	0
2024-05-07 04:49:32			0	33577	0	0	0	17968	16580	154358	27627	963628	38695	106533	0	0	8133	777273	0	0
2024-05-07 04:50:32			0	33568	0	0	0	17971	16580	154233	27630	963654	38706	106534	0	0	8133	777729	0	0
2024-05-07 04:51:32			0	33596	0	0	0	17971	16580	154166	27249	963601	38717	106534	0	0	8134	776313	0	0
2024-05-07 04:52:32			0	33608	0	0	0	17971	16580	154070	27339	963620	38683	106534	0	0	8135	775706	0	0
2024-05-07 04:53:32			0	33619	0	0	0	17971	16590	153998	27204	963636	38696	106534	0	0	8136	775109	0	0
2024-05-07 04:54:32			0	33637	0	0	0	17971	16580	153854	27466	963707	38695	106534	0	0	8137	774243	0	0
2024-05-07 04:55:32			0	33658	0	0	0	17961	16580	153766	27663	963628	38684	106530	0	0	8138	773184	0	0
2024-05-07 04:56:32			0	33696	0	0	0	17974	16580	153646	27540	963620	38694	106535	0	0	8140	771272	0	0
2024-05-07 04:57:32			0	33709	0	0	0	17968	16580	153630	27400	963646	38694	106533	0	0	8141	770619	0	0
2024-05-07 04:58:32			0	33733	0	0	0	17961	16580	153566	27270	963567	38683	106530	0	0	8142	769414	0	0
2024-05-07 04:59:32			0	33748	0	0	0	17961	16580	153434	27104	963646	38694	106530	0	0	8143	768661	0	0
2024-05-07 05:00:32			0	33760	0	0	0	17971	16560	153286	27239	963621	38682	106534	0	0	8144	768143	0	0
2024-05-07 05:01:32			0	33773	0	0	0	17963	16580	153334	27336	963628	38673	106531	0	0	8145	767409	0	0
2024-05-07 05:02:32			0	33794	0	0	0	17966	16580	153214	27485	963628	38695	106532	0	0	8146	766358	0	0
2024-05-07 05:03:32			0	33762	0	0	0	17963	16580	153270	27454	963646	38694	106531	0	0	8144	767960	0	0
2024-05-07 05:04:32			0	33788	0	0	0	17958	16570	153270	27512	963559	38694	106529	0	0	8146	766699	0	0
2024-05-07 05:05:32			0	33774	0	0	0	17961	16570	153230	27535	963638	38683	106530	0	0	8145	767400	0	0
2024-05-07 05:06:32			0	33772	0	0	0	17958	16570	153430	27464	963585	38694	106529	0	0	8145	767500	0	0
2024-05-07 05:07:32			0	33754	0	0	0	17961	16580	153450	27630	963646	38694	106530	0	0	8144	768360	0	0
2024-05-07 05:08:32			0	33734	0	0	0	17963	16580	153418	27632	963672	38706	106531	0	0	8143	769363	0	0
2024-05-07 05:09:32			0	33728	0	0	0	17968	16570	153498	27682	963603	38706	106533	0	0	8142	769706	0	0
2024-05-07 05:10:32			0	33688	0	0	0	17971	16580	153630	27538	963620	38706	106534	0	0	8140	771674	0	0
2024-05-07 05:11:32			0	33677	0	0	0	17981	16580	153718	27379	963646	38694	106538	0	0	8139	772228	0	0
2024-05-07 05:12:32			0	33650	0	0	0	17974	16580	153802	27715	963593	38706	106535	0	0	8137	773587	0	0
2024-05-07 05:13:32			0	33631	0	0	0	17966	16580	153986	27509	963654	38695	106532	0	0	8136	774545	0	0
2024-05-07 05:14:32			0	33626	0	0	0	17963	16580	153974	27114	963628	38695	106531	0	0	8136	774798	0	0
2024-05-07 05:15:32			0	33606	0	0	0	17963	16580	153966	27376	963646	38694	106531	0	0	8135	775808	0	0
2024-05-07 05:16:32			0	33627	0	0	0	17974	16590	154022	27545	963662	38707	106535	0	0	8136	774705	0	0
2024-05-07 05:17:32			0	33627	0	0	0	17963	16580	153998	27228	963654	38706	106531	0	0	8136	774747	0	0
2024-05-07 05:18:32			0	33637	0	0	0	17976	16580	153910	27286	963680	38717	106536	0	0	8137	774243	0	0
2024-05-07 05:19:32			0	33626	0	0	0	17986	16580	153906	27466	963680	38706	106540	0	0	8136	774798	0	0
2024-05-07 05:20:32			0	33653	0	0	0	17997	16590	153810	27502	963723	38717	106544	0	0	8137	773394	0	0
2024-05-07 05:21:32			0	33626	0	0	0	17992	16590	153794	27561	963715	38696	106542	0	0	8136	774756	0	0
2024-05-07 05:22:32			0	33658	0	0	0	17997	16590	153858	27604	963723	38717	106544	0	0	8138	773143	0	0
2024-05-07 05:23:32			0	33657	0	0	0	17999	16590	153766	27225	963750	38696	106545	0	0	8137	773193	0	0
2024-05-07 05:24:32			0	33655	0	0	0	18005	16610	153742	27512	963748	38719	106547	0	0	8137	773210	0	0
2024-05-07 05:25:32			0	33657	0	0	0	18005	16590	153810	27131	963776	38717	106547	0	0	8137	773193	0	0
2024-05-07 05:26:32			0	33656	0	0	0	18002	16610	153730	27183	963748	38698	106546	0	0	8137	773160	0	0
2024-05-07 05:27:32			0	33688	0	0	0	18002	16600	153766	27263	963766	38708	106546	0	0	8139	771591	0	0
2024-05-07 05:28:32			0	33687	0	0	0	17999	16600	153754	27157	963731	38697	106545	0	0	8139	771641	0	0
2024-05-07 05:29:32			0	33682	0	0	0	18002	16610	153630	27426	963774	38708	106546	0	0	8139	771851	0	0
2024-05-07 05:30:32			0	33705	0	0	0	18015	16610	153570	27092	963782	38708	106551	0	0	8140	770694	0	0
2024-05-07 05:31:32			0	33725	0	0	0	18007	16620	153518	27481	963764	38699	106548	0	0	8141	769649	0	0
2024-05-07 05:32:32			0	33745	0	0	0	18002	16600	153370	27352	963740	38686	106546	0	0	8143	768729	0	0
2024-05-07 05:33:32			0	33774	0	0	0	18005	16610	153386	27412	963809	38698	106547	0	0	8144	767234	0	0
2024-05-07 05:34:32			0	33775	0	0	0	18010	16610	153158	27386	963801	38687	106549	0	0	8144	767184	0	0
2024-05-07 05:35:32			0	33772	0	0	0	17999	16620	153166	27289	963791	38688	106545	0	0	8144	767293	0	0
2024-05-07 05:36:32			0	33799	0	0	0	18010	16610	153082	27287	963774	38708	106549	0	0	8146	765983	0	0
2024-05-07 05:37:32			0	33814	0	0	0	18002	16610	152994	27202	963835	38687	106546	0	0	8147	765234	0	0
2024-05-07 05:38:32			0	33829	0	0	0	18005	16600	152902	27034	963766	38708	106547	0	0	8147	764526	0	0
2024-05-07 05:39:32			0	33846	0	0	0	18005	16610	152946	27386	963809	38698	106547	0	0	8148	763636	0	0
2024-05-07 05:40:32			0	33847	0	0	0	18002	16610	152842	27081	963774	38708	106546	0	0	8149	763586	0	0
2024-05-07 05:41:32			0	33853	0	0	0	17992	16610	152810	27386	963835	38708	106542	0	0	8149	763287	0	0
2024-05-07 05:42:32			0	33854	0	0	0	17994	16610	152766	27095	963774	38719	106543	0	0	8149	763237	0	0
2024-05-07 05:43:32			0	33878	0	0	0	17992	16610	152722	27206	963756	38708	106542	0	0	8151	762042	0	0
2024-05-07 05:44:32			0	33886	0	0	0	17997	16610	152618	26948	963748	38708	106544	0	0	8151	761643	0	0
2024-05-07 05:45:32			0	33901	0	0	0	18005	16610	152582	27256	963756	38687	106547	0	0	8152	760897	0	0
2024-05-07 05:46:32			0	33931	0	0	0	17999	16620	152546	27261	963817	38709	106545	0	0	8154	759365	0	0
2024-05-07 05:47:32			0	33935	0	0	0	17999	16620	152486	27315	963764	38699	106545	0	0	8154	759167	0	0
2024-05-07 05:48:32			0	33918	0	0	0	17992	16610	152430	27329	963809	38708	106542	0	0	8153	760052	0	0
2024-05-07 05:49:32			0	33928	0	0	0	17997	16610	152522	27204	963801	38708	106544	0	0	8153	759555	0	0
2024-05-07 05:50:32			0	33925	0	0	0	18002	16610	152538	26986	963756	38698	106546	0	0	8153	759704	0	0
2024-05-07 05:51:32			0	33934	0	0	0	18005	16610	152422	27412	963801	38708	106547	0	0	8154	759257	0	0
2024-05-07 05:52:32			0	33923	0	0	0	18002	16610	152414	27246	963809	38698	106546	0	0	8153	759804	0	0
2024-05-07 05:53:32			0	33942	0	0	0	17999	16620	152462	27242	963799	38699	106545	0	0	8154	758819	0	0
2024-05-07 05:54:32			0	33952	0	0	0	17986	16620	152322	27289	963764	38699	106540	0	0	8155	758323	0	0
2024-05-07 05:55:32			0	33963	0	0	0	17992	16610	152278	26993	963774	38698	106542	0	0	8156	757819	0	0
2024-05-07 05:56:32			0	33971	0	0	0	17997	16630	152234	27339	963789	38710	106544	0	0	8156	757340	0	0
2024-05-07 05:57:32			0	33978	0	0	0	17989	16620	152266	27272	963791	38688	106541	0	0	8156	757034	0	0
2024-05-07 05:58:32			0	33993	0	0	0	17992	16610	152190	27339	963782	38719	106542	0	0	8157	756333	0	0
2024-05-07 05:59:32			0	34010	0	0	0	17992	16610	152182	26939	963756	38698	106542	0	0	8158	755492	0	0
2024-05-07 06:00:32			0	34016	0	0	0	17989	16610	152034	27258	963748	38687	106541	0	0	8159	755195	0	0
2024-05-07 06:01:32			0	34017	0	0	0	17997	16610	152030	27524	963756	38708	106544	0	0	8159	755146	0	0
2024-05-07 06:02:32			0	34037	0	0	0	17999	16610	152026	27201	963782	38708	106545	0	0	8160	754157	0	0
2024-05-07 06:03:32			0	34037	0	0	0	17997	16610	152030	27542	963809	38687	106544	0	0	8160	754157	0	0
2024-05-07 06:04:32			0	34029	0	0	0	17997	16620	152002	27557	963791	38699	106544	0	0	8159	754512	0	0
2024-05-07 06:05:32			0	34026	0	0	0	17997	16620	152074	27563	963764	38699	106544	0	0	8159	754660	0	0
2024-05-07 06:06:32			0	34009	0	0	0	17997	16610	152138	27573	963801	38708	106544	0	0	8158	755541	0	0
2024-05-07 06:07:32			0	33993	0	0	0	17992	16610	152098	27665	963809	38698	106542	0	0	8157	756333	0	0
2024-05-07 06:08:32			0	34006	0	0	0	17999	16610	152190	27182	963774	38708	106545	0	0	8158	755689	0	0
2024-05-07 06:09:32			0	34017	0	0	0	17992	16610	152182	27105	963774	38708	106542	0	0	8159	755146	0	0
2024-05-07 06:10:32			0	34021	0	0	0	17989	16610	152014	27383	963782	38708	106541	0	0	8159	754948	0	0
2024-05-07 06:11:32			0	34037	0	0	0	17994	16620	151950	27395	963738	38709	106543	0	0	8160	754117	0	0
2024-05-07 06:12:32			0	34024	0	0	0	17979	16610	151726	27640	963756	38698	106537	0	0	8159	754800	0	0
2024-05-07 06:13:32			0	34056	0	0	0	17961	16600	151734	27218	963758	38697	106530	0	0	8161	753260	0	0
2024-05-07 06:14:32			0	34096	0	0	0	17966	16610	151598	27324	963774	38708	106532	0	0	8164	751248	0	0
2024-05-07 06:15:32			0	34097	0	0	0	17966	16610	151538	27580	963651	38698	106532	0	0	8164	751199	0	0
2024-05-07 06:16:32			0	34120	0	0	0	17974	16610	151594	27183	963748	38719	106535	0	0	8165	750068	0	0
2024-05-07 06:17:32			0	34125	0	0	0	17971	16600	151526	27137	963766	38686	106534	0	0	8165	749862	0	0
2024-05-07 06:18:32			0	34124	0	0	0	17961	16600	151482	27298	963705	38708	106530	0	0	8165	749911	0	0
2024-05-07 06:19:32			0	34157	0	0	0	17945	16610	151414	26922	963721	38708	106524	0	0	8168	748250	0	0
2024-05-07 06:20:32			0	34143	0	0	0	17945	16600	151398	27088	963731	38697	106524	0	0	8167	748978	0	0
2024-05-07 06:21:32			0	34157	0	0	0	17950	16600	151482	27459	963731	38718	106526	0	0	8167	748290	0	0
2024-05-07 06:22:32			0	34125	0	0	0	17950	16590	151354	27329	963750	38717	106526	0	0	8166	749903	0	0
2024-05-07 06:23:32			0	34138	0	0	0	17953	16600	151474	27483	963679	38708	106527	0	0	8166	749223	0	0
2024-05-07 06:24:32			0	34131	0	0	0	17945	16580	151446	27376	963654	38706	106524	0	0	8166	749648	0	0
2024-05-07 06:25:32			0	34129	0	0	0	17948	16590	151426	27206	963671	38696	106525	0	0	8166	749706	0	0
2024-05-07 06:26:32			0	34129	0	0	0	17950	16590	151430	27228	963689	38696	106526	0	0	8166	749706	0	0
2024-05-07 06:27:32			0	34100	0	0	0	17950	16590	151486	27111	963644	38696	106526	0	0	8164	751133	0	0
2024-05-07 06:28:32			0	34097	0	0	0	17942	16580	151550	27388	963601	38695	106523	0	0	8164	751321	0	0
2024-05-07 06:29:32			0	34080	0	0	0	17932	16580	151662	27301	963672	38694	106519	0	0	8163	752158	0	0
2024-05-07 06:30:32			0	34071	0	0	0	17940	16570	151862	27381	963630	38694	106522	0	0	8162	752643	0	0
2024-05-07 06:31:32			0	34035	0	0	0	17932	16570	151978	27267	963656	38694	106519	0	0	8161	754419	0	0
2024-05-07 06:32:32			0	33995	0	0	0	17940	16580	152086	27500	963601	38706	106522	0	0	8158	756357	0	0
2024-05-07 06:33:32			0	33953	0	0	0	17929	16560	152226	27445	963595	38705	106518	0	0	8156	758520	0	0
2024-05-07 06:34:32			0	33916	0	0	0	17922	16570	152390	27743	963577	38706	106515	0	0	8154	760316	0	0
2024-05-07 06:35:32			0	33869	0	0	0	17914	16570	152606	27538	963585	38683	106512	0	0	8151	762655	0	0
2024-05-07 06:36:32			0	33824	0	0	0	17916	16560	152762	27367	963595	38694	106513	0	0	8148	764941	0	0
2024-05-07 06:37:32			0	33788	0	0	0	17919	16560	153058	27478	963569	38694	106514	0	0	8146	766741	0	0
2024-05-07 06:38:32			0	33745	0	0	0	17922	16550	153226	27307	963491	38692	106515	0	0	8144	768937	0	0
2024-05-07 06:39:32			0	33702	0	0	0	17914	16550	153506	27128	963499	38682	106512	0	0	8141	771096	0	0
2024-05-07 06:40:32			0	33649	0	0	0	17901	16560	153718	27123	963534	38693	106507	0	0	8138	773722	0	0
2024-05-07 06:41:32			0	33614	0	0	0	17898	16540	153886	27412	963501	38702	106506	0	0	8136	775571	0	0
2024-05-07 06:42:32			0	33593	0	0	0	17901	16550	154022	27362	963526	38693	106507	0	0	8135	776591	0	0
2024-05-07 06:43:32			0	33548	0	0	0	17898	16540	154069	27390	963448	38702	106506	0	0	8132	778910	0	0
2024-05-07 06:44:32			0	33510	0	0	0	17896	16530	154261	27272	963493	38680	106505	0	0	8130	780880	0	0
2024-05-07 06:45:32			0	33517	0	0	0	17898	16540	154385	27398	963475	38691	106506	0	0	8131	780483	0	0
2024-05-07 06:46:32			0	33511	0	0	0	17896	16540	154381	27486	963483	38681	106505	0	0	8130	780787	0	0
2024-05-07 06:47:32			0	33494	0	0	0	17903	16530	154357	27286	963414	38691	106508	0	0	8129	781693	0	0
2024-05-07 06:48:32			0	33511	0	0	0	17901	16530	154237	27486	963467	38691	106507	0	0	8130	780829	0	0
2024-05-07 06:49:32			0	33525	0	0	0	17898	16530	154321	27381	963467	38691	106506	0	0	8131	780119	0	0
2024-05-07 06:50:32			0	33541	0	0	0	17896	16520	154225	27215	963450	38712	106505	0	0	8132	779349	0	0
2024-05-07 06:51:32			0	33549	0	0	0	17890	16530	153993	27163	963432	38690	106503	0	0	8133	778902	0	0
2024-05-07 06:52:32			0	33570	0	0	0	17898	16530	153966	27235	963458	38690	106506	0	0	8134	777838	0	0
2024-05-07 06:53:32			0	33584	0	0	0	17896	16520	154102	27516	963442	38689	106505	0	0	8135	777172	0	0
2024-05-07 06:54:32			0	33563	0	0	0	17896	16520	154078	27391	963424	38701	106505	0	0	8133	778235	0	0
2024-05-07 06:55:32			0	33543	0	0	0	17885	16520	154117	27324	963450	38679	106501	0	0	8132	779248	0	0
2024-05-07 06:56:32			0	33547	0	0	0	17890	16520	154129	27440	963450	38690	106503	0	0	8132	779045	0	0
2024-05-07 06:57:32			0	33548	0	0	0	17885	16530	154149	27168	963406	38690	106501	0	0	8133	778952	0	0
2024-05-07 06:58:32			0	33520	0	0	0	17883	16510	154201	27301	963434	38689	106500	0	0	8131	780457	0	0
2024-05-07 06:59:32			0	33529	0	0	0	17890	16520	154345	27256	963442	38700	106503	0	0	8131	779958	0	0
2024-05-07 07:00:32			0	33527	0	0	0	17883	16520	154313	27275	963424	38701	106500	0	0	8131	780059	0	0
2024-05-07 07:01:32			0	33492	0	0	0	17885	16520	154313	27507	963424	38690	106501	0	0	8129	781837	0	0
2024-05-07 07:02:32			0	33487	0	0	0	17893	16520	154353	27300	963389	38689	106504	0	0	8129	782091	0	0
2024-05-07 07:03:32			0	33481	0	0	0	17880	16520	154441	27447	963337	38700	106499	0	0	8129	782396	0	0
2024-05-07 07:04:32			0	33468	0	0	0	17885	16510	154545	27866	963381	38689	106501	0	0	8128	783100	0	0
2024-05-07 07:05:32			0	33431	0	0	0	17890	16520	154649	27521	963450	38701	106503	0	0	8126	784943	0	0
2024-05-07 07:06:32			0	33431	0	0	0	17890	16520	154697	27351	963442	38689	106503	0	0	8126	784943	0	0
2024-05-07 07:07:32			0	33396	0	0	0	17890	16520	154857	27251	963416	38689	106503	0	0	8124	786729	0	0
2024-05-07 07:08:32			0	33404	0	0	0	17896	16520	154973	27436	963477	38701	106505	0	0	8124	786321	0	0
2024-05-07 07:09:32			0	33386	0	0	0	17906	16520	155049	27060	963468	38678	106509	0	0	8123	787240	0	0
2024-05-07 07:10:32			0	33361	0	0	0	17909	16510	155113	27372	963381	38710	106510	0	0	8121	788562	0	0
2024-05-07 07:11:32			0	33333	0	0	0	17911	16520	155181	27131	963503	38701	106511	0	0	8119	789954	0	0
2024-05-07 07:12:32			0	33351	0	0	0	17906	16520	155205	27469	963424	38712	106509	0	0	8121	789031	0	0
2024-05-07 07:13:32			0	33329	0	0	0	17901	16530	155329	27341	963485	38690	106507	0	0	8119	790116	0	0
2024-05-07 07:14:32			0	33312	0	0	0	17909	16530	155397	27588	963432	38690	106510	0	0	8118	790988	0	0
2024-05-07 07:15:32			0	33298	0	0	0	17898	16530	155497	27455	963485	38690	106506	0	0	8118	791707	0	0
2024-05-07 07:16:32			0	33259	0	0	0	17901	16530	155469	27523	963432	38701	106507	0	0	8115	793712	0	0
2024-05-07 07:17:32			0	33250	0	0	0	17906	16520	155665	27481	963424	38701	106509	0	0	8115	794218	0	0
2024-05-07 07:18:32			0	33227	0	0	0	17911	16530	155649	27549	963458	38701	106511	0	0	8113	795360	0	0
2024-05-07 07:19:32			0	33226	0	0	0	17909	16530	155737	27602	963467	38691	106510	0	0	8113	795411	0	0
2024-05-07 07:20:32			0	33214	0	0	0	17911	16520	155773	27507	963477	38690	106511	0	0	8112	796073	0	0
2024-05-07 07:21:32			0	33206	0	0	0	17919	16520	155793	27367	963450	38701	106514	0	0	8112	796486	0	0
2024-05-07 07:22:32			0	33202	0	0	0	17909	16530	155961	27277	963519	38691	106510	0	0	8112	796649	0	0
2024-05-07 07:23:32			0	33175	0	0	0	17919	16520	156077	27478	963477	38701	106514	0	0	8110	798087	0	0
2024-05-07 07:24:32			0	33150	0	0	0	17922	16530	156049	27339	963538	38701	106515	0	0	8108	799337	0	0
2024-05-07 07:25:32			0	33152	0	0	0	17929	16530	156061	27369	963493	38691	106518	0	0	8108	799234	0	0
2024-05-07 07:26:32			0	33137	0	0	0	17924	16530	156121	27383	963511	38712	106516	0	0	8107	800010	0	0
2024-05-07 07:27:32			0	33118	0	0	0	17935	16530	156217	27230	963493	38702	106520	0	0	8106	800995	0	0
2024-05-07 07:28:32			0	33114	0	0	0	17932	16530	156333	27556	963519	38702	106519	0	0	8106	801202	0	0
2024-05-07 07:29:32			0	33102	0	0	0	17935	16540	156369	27400	963501	38702	106520	0	0	8105	801782	0	0
2024-05-07 07:30:32			0	33088	0	0	0	17927	16530	156357	27265	963519	38702	106517	0	0	8104	802552	0	0
2024-05-07 07:31:32			0	33084	0	0	0	17940	16540	156385	27486	963501	38691	106522	0	0	8104	802716	0	0
2024-05-07 07:32:32			0	33084	0	0	0	17929	16540	156425	27576	963607	38702	106518	0	0	8104	802716	0	0
2024-05-07 07:33:32			0	33093	0	0	0	17932	16540	156401	27450	963457	38692	106519	0	0	8105	802249	0	0
2024-05-07 07:34:32			0	33071	0	0	0	17924	16530	156409	27497	963572	38691	106516	0	0	8103	803435	0	0
2024-05-07 07:35:32			0	33082	0	0	0	17932	16530	156469	27492	963493	38712	106519	0	0	8104	802863	0	0
2024-05-07 07:36:32			0	33081	0	0	0	17922	16550	156353	27573	963518	38692	106515	0	0	8104	802828	0	0
2024-05-07 07:37:32			0	33076	0	0	0	17924	16540	156393	27770	963536	38692	106516	0	0	8104	803132	0	0
2024-05-07 07:38:32			0	33075	0	0	0	17924	16540	156349	27396	963580	38691	106516	0	0	8104	803184	0	0
2024-05-07 07:39:32			0	33105	0	0	0	17916	16530	156385	27249	963519	38680	106513	0	0	8106	801669	0	0
2024-05-07 07:40:32			0	33086	0	0	0	17927	16550	156341	27533	963570	38692	106517	0	0	8104	802569	0	0
2024-05-07 07:41:32			0	33123	0	0	0	17927	16550	156385	27637	963544	38713	106517	0	0	8107	800649	0	0
2024-05-07 07:42:32			0	33107	0	0	0	17916	16540	156317	27190	963501	38691	106513	0	0	8106	801522	0	0
2024-05-07 07:43:32			0	33117	0	0	0	17922	16550	156213	27305	963518	38692	106515	0	0	8106	800960	0	0
2024-05-07 07:44:32			0	33113	0	0	0	17919	16540	156297	27512	963589	38703	106514	0	0	8106	801211	0	0
2024-05-07 07:45:32			0	33101	0	0	0	17919	16550	156329	27550	963570	38703	106514	0	0	8105	801790	0	0
2024-05-07 07:46:32			0	33092	0	0	0	17922	16540	156341	27362	963509	38713	106515	0	0	8105	802301	0	0
2024-05-07 07:47:32			0	33107	0	0	0	17916	16540	156329	27206	963536	38703	106513	0	0	8106	801522	0	0
2024-05-07 07:48:32			0	33109	0	0	0	17929	16550	156257	27469	963491	38713	106518	0	0	8106	801375	0	0
2024-05-07 07:49:32			0	33085	0	0	0	17924	16540	156245	27751	963509	38692	106516	0	0	8104	802664	0	0
2024-05-07 07:50:32			0	33101	0	0	0	17929	16550	156333	27279	963526	38682	106518	0	0	8105	801790	0	0
2024-05-07 07:51:32			0	33099	0	0	0	17932	16540	156273	27602	963501	38702	106519	0	0	8105	801937	0	0
2024-05-07 07:52:32			0	33105	0	0	0	17929	16540	156381	27526	963562	38692	106518	0	0	8105	801626	0	0
2024-05-07 07:53:32			0	33115	0	0	0	17935	16550	156329	27332	963605	38714	106520	0	0	8106	801064	0	0
2024-05-07 07:54:32			0	33088	0	0	0	17935	16550	156317	27123	963597	38692	106520	0	0	8104	802465	0	0
2024-05-07 07:55:32			0	33105	0	0	0	17945	16550	156293	27440	963623	38692	106524	0	0	8105	801582	0	0
2024-05-07 07:56:32			0	33103	0	0	0	17935	16550	156269	27287	963579	38714	106520	0	0	8105	801686	0	0
2024-05-07 07:57:32			0	33093	0	0	0	17919	16550	156345	27185	963605	38693	106514	0	0	8105	802205	0	0
2024-05-07 07:58:32			0	33093	0	0	0	17919	16550	156389	27517	963579	38704	106514	0	0	8105	802205	0	0
2024-05-07 07:59:32			0	33082	0	0	0	17935	16560	156405	27258	963542	38705	106520	0	0	8104	802733	0	0
2024-05-07 08:00:32			0	33071	0	0	0	17919	16550	156441	27104	963570	38703	106514	0	0	8104	803348	0	0
2024-05-07 08:01:32			0	33085	0	0	0	17932	16550	156509	27228	963552	38704	106519	0	0	8104	802621	0	0
2024-05-07 08:02:32			0	33066	0	0	0	17924	16560	156453	27268	963587	38693	106516	0	0	8103	803564	0	0
2024-05-07 08:03:32			0	33069	0	0	0	17919	16540	156569	27483	963589	38692	106514	0	0	8103	803496	0	0
2024-05-07 08:04:32			0	33068	0	0	0	17927	16550	156505	27296	963597	38703	106517	0	0	8103	803504	0	0
2024-05-07 08:05:32			0	33052	0	0	0	17919	16550	156593	27248	963570	38703	106514	0	0	8103	804336	0	0
2024-05-07 08:06:32			0	33054	0	0	0	17906	16560	156473	27575	963595	38705	106509	0	0	8103	804188	0	0
2024-05-07 08:07:32			0	33053	0	0	0	17919	16550	156533	27235	963597	38692	106514	0	0	8103	804284	0	0
2024-05-07 08:08:32			0	33041	0	0	0	17916	16550	156625	27289	963518	38713	106513	0	0	8102	804908	0	0
2024-05-07 08:09:32			0	33038	0	0	0	17909	16540	156697	27379	963509	38713	106510	0	0	8102	805108	0	0
2024-05-07 08:10:32			0	33045	0	0	0	17896	16540	156681	27339	963509	38703	106505	0	0	8102	804744	0	0
2024-05-07 08:11:32			0	33016	0	0	0	17901	16540	156737	27185	963562	38692	106507	0	0	8101	806255	0	0
2024-05-07 08:12:32			0	33023	0	0	0	17903	16540	156653	27343	963528	38702	106508	0	0	8101	805890	0	0
2024-05-07 08:13:32			0	33020	0	0	0	17893	16540	156717	27478	963528	38712	106504	0	0	8101	806046	0	0
2024-05-07 08:14:32			0	33023	0	0	0	17890	16540	156661	27355	963501	38702	106503	0	0	8101	805890	0	0
2024-05-07 08:15:32			0	33029	0	0	0	17893	16540	156685	27248	963501	38680	106504	0	0	8102	805577	0	0
2024-05-07 08:16:32			0	33024	0	0	0	17898	16540	156617	27145	963554	38712	106506	0	0	8101	805838	0	0
2024-05-07 08:17:32			0	33011	0	0	0	17911	16530	156733	27348	963493	38691	106511	0	0	8100	806559	0	0
2024-05-07 08:18:32			0	33023	0	0	0	17901	16530	156805	26904	963493	38702	106507	0	0	8101	805933	0	0
2024-05-07 08:19:32			0	33019	0	0	0	17901	16540	156713	27571	963501	38702	106507	0	0	8101	806098	0	0
2024-05-07 08:20:32			0	33016	0	0	0	17896	16540	156709	26979	963483	38692	106505	0	0	8101	806255	0	0
2024-05-07 08:21:32			0	33024	0	0	0	17901	16530	156801	27490	963493	38702	106507	0	0	8101	805881	0	0
2024-05-07 08:22:32			0	33023	0	0	0	17883	16530	156757	27460	963458	38701	106500	0	0	8101	805933	0	0
2024-05-07 08:23:32			0	32989	0	0	0	17890	16530	156841	27417	963440	38691	106503	0	0	8099	807707	0	0
2024-05-07 08:24:32			0	32978	0	0	0	17888	16530	156933	27275	963485	38690	106502	0	0	8098	808281	0	0
2024-05-07 08:25:32			0	32989	0	0	0	17901	16530	156993	27020	963493	38702	106507	0	0	8099	807707	0	0
2024-05-07 08:26:32			0	32972	0	0	0	17896	16520	157025	27138	963389	38700	106505	0	0	8098	808639	0	0
2024-05-07 08:27:32			0	32962	0	0	0	17901	16530	157069	27390	963467	38691	106507	0	0	8097	809117	0	0
2024-05-07 08:28:32			0	32978	0	0	0	17885	16530	157137	27561	963511	38690	106501	0	0	8098	808281	0	0
2024-05-07 08:29:32			0	32954	0	0	0	17877	16530	157013	27580	963458	38701	106498	0	0	8097	809536	0	0
2024-05-07 08:30:32			0	32961	0	0	0	17880	16520	157021	27646	963477	38712	106499	0	0	8097	809214	0	0
2024-05-07 08:31:32			0	32956	0	0	0	17880	16530	157049	27133	963458	38701	106499	0	0	8097	809431	0	0
2024-05-07 08:32:32			0	32981	0	0	0	17870	16520	157077	27576	963416	38689	106495	0	0	8099	808168	0	0
2024-05-07 08:33:32			0	32973	0	0	0	17864	16520	157061	27651	963442	38689	106493	0	0	8099	808586	0	0
2024-05-07 08:34:32			0	33000	0	0	0	17870	16510	156993	27677	963381	38689	106495	0	0	8100	807220	0	0
2024-05-07 08:35:32			0	32980	0	0	0	17872	16510	156925	27306	963373	38700	106496	0	0	8099	808264	0	0
2024-05-07 08:36:32			0	33005	0	0	0	17870	16510	156829	27748	963434	38700	106495	0	0	8100	806959	0	0
2024-05-07 08:37:32			0	33024	0	0	0	17867	16520	156805	27753	963363	38711	106494	0	0	8102	805925	0	0
2024-05-07 08:38:32			0	33019	0	0	0	17854	16510	156781	27505	963407	38689	106489	0	0	8101	806229	0	0
2024-05-07 08:39:32			0	33048	0	0	0	17849	16510	156693	27814	963328	38700	106487	0	0	8103	804718	0	0
2024-05-07 08:40:32			0	33044	0	0	0	17851	16500	156517	27770	963365	38700	106488	0	0	8103	804970	0	0
2024-05-07 08:41:32			0	33069	0	0	0	17849	16500	156557	27588	963304	38688	106487	0	0	8104	803669	0	0
2024-05-07 08:42:32			0	33064	0	0	0	17854	16510	156525	27666	963373	38700	106489	0	0	8104	803886	0	0
2024-05-07 08:43:32			0	33084	0	0	0	17841	16500	156461	27310	963356	38688	106484	0	0	8106	802890	0	0
2024-05-07 08:44:32			0	33113	0	0	0	17844	16500	156501	27400	963304	38688	106485	0	0	8107	801384	0	0
2024-05-07 08:45:32			0	33120	0	0	0	17854	16490	156321	27466	963287	38687	106489	0	0	8107	801065	0	0
2024-05-07 08:46:32			0	33142	0	0	0	17844	16490	156285	27415	963287	38687	106485	0	0	8109	799924	0	0
2024-05-07 08:47:32			0	33138	0	0	0	17844	16500	156265	27166	963304	38688	106485	0	0	8109	800088	0	0
2024-05-07 08:48:32			0	33146	0	0	0	17838	16480	156229	27222	963279	38687	106483	0	0	8109	799760	0	0
2024-05-07 08:49:32			0	33146	0	0	0	17828	16480	156249	27505	963192	38686	106479	0	0	8109	799760	0	0
2024-05-07 08:50:32			0	33165	0	0	0	17825	16480	156125	27607	963279	38698	106478	0	0	8111	798777	0	0
2024-05-07 08:51:32			0	33182	0	0	0	17833	16480	156125	27339	963244	38675	106481	0	0	8111	797898	0	0
2024-05-07 08:52:32			0	33174	0	0	0	17815	16470	156129	27485	963236	38685	106474	0	0	8111	798355	0	0
2024-05-07 08:53:32			0	33184	0	0	0	17818	16470	156109	27320	963236	38685	106475	0	0	8112	797838	0	0
2024-05-07 08:54:32			0	33193	0	0	0	17810	16470	155969	27668	963175	38685	106472	0	0	8112	797373	0	0
2024-05-07 08:55:32			0	33218	0	0	0	17805	16450	155933	27526	963211	38695	106470	0	0	8114	796168	0	0
2024-05-07 08:56:32			0	33224	0	0	0	17802	16450	155865	27398	963159	38695	106469	0	0	8114	795859	0	0
2024-05-07 08:57:32			0	33234	0	0	0	17805	16450	155893	27305	963159	38673	106470	0	0	8115	795343	0	0
2024-05-07 08:58:32			0	33255	0	0	0	17784	16450	155841	27644	963098	38672	106462	0	0	8117	794261	0	0
2024-05-07 08:59:32			0	33268	0	0	0	17781	16440	155737	27542	963142	38682	106461	0	0	8117	793635	0	0
2024-05-07 09:00:32			0	33289	0	0	0	17768	16440	155633	27343	963037	38694	106456	0	0	8119	792555	0	0
2024-05-07 09:01:32			0	33296	0	0	0	17776	16440	155585	27391	963029	38671	106459	0	0	8119	792195	0	0
2024-05-07 09:02:32			0	33307	0	0	0	17774	16440	155521	27807	963090	38682	106458	0	0	8120	791630	0	0
2024-05-07 09:03:32			0	33315	0	0	0	17789	16430	155441	27364	963065	38682	106464	0	0	8120	791262	0	0
2024-05-07 09:04:32			0	33327	0	0	0	17784	16430	155481	27483	963021	38694	106462	0	0	8121	790646	0	0
2024-05-07 09:05:32			0	33366	0	0	0	17766	16420	155445	27488	963083	38692	106455	0	0	8123	788690	0	0
2024-05-07 09:06:32			0	33367	0	0	0	17766	16420	155281	27502	963004	38670	106455	0	0	8123	788639	0	0
2024-05-07 09:07:32			0	33378	0	0	0	17768	16420	155245	27384	963083	38681	106456	0	0	8124	788076	0	0
2024-05-07 09:08:32			0	33382	0	0	0	17748	16410	155153	27187	963014	38681	106448	0	0	8125	787913	0	0
2024-05-07 09:09:32			0	33394	0	0	0	17748	16420	155165	27476	963022	38681	106448	0	0	8125	787257	0	0
2024-05-07 09:10:32			0	33402	0	0	0	17745	16400	155077	27242	962971	38658	106447	0	0	8126	786933	0	0
2024-05-07 09:11:32			0	33407	0	0	0	17748	16410	155197	27472	962927	38680	106448	0	0	8126	786635	0	0
2024-05-07 09:12:32			0	33404	0	0	0	17742	16400	155081	27251	962919	38668	106446	0	0	8126	786831	0	0
2024-05-07 09:13:32			0	33427	0	0	0	17732	16390	155069	27362	962902	38668	106442	0	0	8127	785699	0	0
2024-05-07 09:14:32			0	33439	0	0	0	17735	16400	155037	27498	962884	38690	106443	0	0	8128	785044	0	0
2024-05-07 09:15:32			0	33447	0	0	0	17735	16380	154917	27355	962886	38666	106443	0	0	8128	784721	0	0
2024-05-07 09:16:32			0	33452	0	0	0	17729	16400	154909	27364	962963	38668	106441	0	0	8129	784381	0	0
2024-05-07 09:17:32			0	33457	0	0	0	17722	16380	154909	27267	962807	38666	106438	0	0	8129	784211	0	0
2024-05-07 09:18:32			0	33451	0	0	0	17719	16380	154861	27157	962851	38677	106437	0	0	8129	784517	0	0
2024-05-07 09:19:32			0	33483	0	0	0	17701	16380	154769	27396	962825	38677	106430	0	0	8131	782887	0	0
2024-05-07 09:20:32			0	33483	0	0	0	17709	16370	154845	27509	962808	38666	106433	0	0	8131	782929	0	0
2024-05-07 09:21:32			0	33477	0	0	0	17711	16370	154841	27383	962782	38677	106434	0	0	8131	783235	0	0
2024-05-07 09:22:32			0	33487	0	0	0	17703	16360	154857	27403	962774	38666	106431	0	0	8131	782768	0	0
2024-05-07 09:23:32			0	33502	0	0	0	17696	16360	154841	27319	962826	38676	106428	0	0	8132	782005	0	0
2024-05-07 09:24:32			0	33510	0	0	0	17690	16360	154669	27301	962739	38675	106426	0	0	8133	781599	0	0
2024-05-07 09:25:32			0	33511	0	0	0	17696	16350	154685	27788	962784	38686	106428	0	0	8133	781590	0	0
2024-05-07 09:26:32			0	33525	0	0	0	17696	16360	154665	27556	962713	38686	106428	0	0	8134	780836	0	0
2024-05-07 09:27:32			0	33510	0	0	0	17675	16350	154605	27211	962723	38686	106420	0	0	8133	781641	0	0
2024-05-07 09:28:32			0	33536	0	0	0	17685	16350	154617	27550	962617	38665	106424	0	0	8134	780320	0	0
2024-05-07 09:29:32			0	33537	0	0	0	17675	16340	154597	27656	962680	38663	106420	0	0	8135	780311	0	0
2024-05-07 09:30:32			0	33536	0	0	0	17683	16340	154569	27407	962662	38653	106423	0	0	8134	780362	0	0
2024-05-07 09:31:32			0	33542	0	0	0	17680	16330	154529	27419	962619	38663	106422	0	0	8135	780100	0	0
2024-05-07 09:32:32			0	33562	0	0	0	17677	16310	154557	27274	962560	38671	106421	0	0	8136	779169	0	0
2024-05-07 09:33:32			0	33556	0	0	0	17672	16330	154497	27216	962672	38663	106419	0	0	8136	779389	0	0
2024-05-07 09:34:32			0	33555	0	0	0	17659	16320	154529	27149	962603	38662	106414	0	0	8136	779482	0	0
2024-05-07 09:35:32			0	33569	0	0	0	17670	16320	154401	27402	962621	38661	106418	0	0	8137	778772	0	0
2024-05-07 09:36:32			0	33572	0	0	0	17672	16330	154481	27523	962584	38652	106419	0	0	8137	778578	0	0
2024-05-07 09:37:32			0	33579	0	0	0	17664	16310	154358	27121	962586	38660	106416	0	0	8137	778308	0	0
2024-05-07 09:38:32			0	33572	0	0	0	17667	16300	154386	27505	962570	38649	106417	0	0	8137	778705	0	0
2024-05-07 09:39:32			0	33581	0	0	0	17670	16300	154438	27390	962570	38671	106418	0	0	8137	778248	0	0
2024-05-07 09:40:32			0	33590	0	0	0	17677	16300	154354	27755	962649	38660	106421	0	0	8138	777793	0	0
2024-05-07 09:41:32			0	33614	0	0	0	17680	16310	154298	27578	962578	38671	106422	0	0	8139	776537	0	0
2024-05-07 09:42:32			0	33581	0	0	0	17680	16300	154350	27448	962570	38660	106422	0	0	8137	778248	0	0
2024-05-07 09:43:32			0	33591	0	0	0	17683	16300	154214	27388	962675	38671	106423	0	0	8138	777742	0	0
2024-05-07 09:44:32			0	33595	0	0	0	17664	16310	154310	27327	962552	38671	106416	0	0	8138	777498	0	0
2024-05-07 09:45:32			0	33600	0	0	0	17672	16300	154178	27758	962641	38660	106419	0	0	8138	777287	0	0
2024-05-07 09:46:32			0	33613	0	0	0	17672	16300	154254	27731	962649	38649	106419	0	0	8139	776629	0	0
2024-05-07 09:47:32			0	33598	0	0	0	17677	16300	154290	27159	962623	38671	106421	0	0	8138	777388	0	0
2024-05-07 09:48:32			0	33602	0	0	0	17680	16310	154238	27258	962665	38671	106422	0	0	8138	777143	0	0
2024-05-07 09:49:32			0	33610	0	0	0	17683	16320	154226	27187	962594	38682	106423	0	0	8139	776697	0	0
2024-05-07 09:50:32			0	33612	0	0	0	17683	16300	154338	27453	962570	38671	106423	0	0	8139	776680	0	0
2024-05-07 09:51:32			0	33606	0	0	0	17688	16300	154294	27329	962623	38649	106425	0	0	8138	776983	0	0
2024-05-07 09:52:32			0	33611	0	0	0	17675	16310	154306	27358	962639	38671	106420	0	0	8139	776688	0	0
2024-05-07 09:53:32			0	33602	0	0	0	17672	16300	154282	27493	962623	38682	106419	0	0	8138	777185	0	0
2024-05-07 09:54:32			0	33594	0	0	0	17685	16310	154258	27519	962604	38660	106424	0	0	8138	777548	0	0
2024-05-07 09:55:32			0	33623	0	0	0	17688	16300	154342	27362	962596	38671	106425	0	0	8139	776123	0	0
2024-05-07 09:56:32			0	33599	0	0	0	17693	16300	154254	27543	962649	38671	106427	0	0	8138	777337	0	0
2024-05-07 09:57:32			0	33626	0	0	0	17690	16300	154302	27152	962649	38682	106426	0	0	8139	775972	0	0
2024-05-07 09:58:32			0	33589	0	0	0	17727	16320	154238	27717	962753	38661	106440	0	0	8137	777759	0	0
2024-05-07 09:59:32			0	33618	0	0	0	17727	16330	154362	27374	962743	38684	106440	0	0	8138	776250	0	0
2024-05-07 10:00:32			0	33619	0	0	0	17750	16320	154294	27147	962814	38683	106449	0	0	8138	776242	0	0
2024-05-07 10:01:32			0	33590	0	0	0	17771	16330	154322	27393	962848	38684	106457	0	0	8136	777667	0	0
2024-05-07 10:02:32			0	33612	0	0	0	17807	16330	154234	27666	962822	38695	106471	0	0	8137	776554	0	0
2024-05-07 10:03:32			0	33606	0	0	0	17815	16350	154266	27234	962960	38686	106474	0	0	8136	776773	0	0
2024-05-07 10:04:32			0	33593	0	0	0	17818	16360	154178	27620	962958	38687	106475	0	0	8136	777389	0	0
2024-05-07 10:05:32			0	33588	0	0	0	17833	16370	154230	27357	963019	38688	106481	0	0	8135	777600	0	0
2024-05-07 10:06:32			0	33601	0	0	0	17815	16380	154318	27665	963009	38688	106474	0	0	8136	776900	0	0
2024-05-07 10:07:32			0	33599	0	0	0	17802	16390	154318	27630	963079	38689	106469	0	0	8136	776959	0	0
2024-05-07 10:08:32			0	33583	0	0	0	17820	16380	154274	27476	963070	38689	106476	0	0	8135	777811	0	0
2024-05-07 10:09:32			0	33580	0	0	0	17825	16390	154414	27332	963113	38690	106478	0	0	8135	777921	0	0
2024-05-07 10:10:32			0	33571	0	0	0	17823	16400	154417	27554	963095	38690	106477	0	0	8134	778335	0	0
2024-05-07 10:11:32			0	33568	0	0	0	17820	16410	154457	27599	963146	38692	106476	0	0	8134	778444	0	0
2024-05-07 10:12:32			0	33557	0	0	0	17831	16410	154373	27966	963120	38681	106480	0	0	8134	779002	0	0
2024-05-07 10:13:32			0	33558	0	0	0	17831	16410	154409	27218	963111	38669	106480	0	0	8134	778951	0	0
2024-05-07 10:14:32			0	33541	0	0	0	17820	16410	154589	27357	963093	38681	106476	0	0	8133	779813	0	0
2024-05-07 10:15:32			0	33536	0	0	0	17828	16410	154589	27516	963093	38692	106479	0	0	8132	780067	0	0
2024-05-07 10:16:32			0	33504	0	0	0	17831	16420	154633	27431	963110	38681	106480	0	0	8130	781650	0	0
2024-05-07 10:17:32			0	33514	0	0	0	17825	16430	154593	27362	963144	38693	106478	0	0	8131	781099	0	0
2024-05-07 10:18:32			0	33506	0	0	0	17838	16430	154765	27400	963126	38694	106483	0	0	8130	781506	0	0
2024-05-07 10:19:32			0	33486	0	0	0	17828	16420	154729	27637	963101	38692	106479	0	0	8129	782565	0	0
2024-05-07 10:20:32			0	33475	0	0	0	17820	16430	154741	27346	963205	38682	106476	0	0	8129	783083	0	0
2024-05-07 10:21:32			0	33490	0	0	0	17828	16440	154697	27291	963161	38694	106479	0	0	8130	782277	0	0
2024-05-07 10:22:32			0	33481	0	0	0	17825	16420	154809	27388	963128	38692	106478	0	0	8129	782820	0	0
2024-05-07 10:23:32			0	33489	0	0	0	17815	16440	154801	27485	963142	38694	106474	0	0	8130	782328	0	0
2024-05-07 10:24:32			0	33493	0	0	0	17828	16430	154765	27279	963152	38682	106479	0	0	8130	782167	0	0
2024-05-07 10:25:32			0	33477	0	0	0	17820	16440	154825	27495	963187	38694	106476	0	0	8129	782938	0	0
2024-05-07 10:26:32			0	33473	0	0	0	17828	16440	154781	27507	963169	38682	106479	0	0	8129	783142	0	0
2024-05-07 10:27:32			0	33488	0	0	0	17823	16430	154861	27588	963171	38671	106477	0	0	8130	782421	0	0
2024-05-07 10:28:32			0	33483	0	0	0	17828	16440	154809	27234	963195	38694	106479	0	0	8129	782633	0	0
2024-05-07 10:29:32			0	33489	0	0	0	17831	16440	154825	27332	963221	38682	106480	0	0	8130	782328	0	0
2024-05-07 10:30:32			0	33481	0	0	0	17823	16440	154813	27364	963195	38682	106477	0	0	8129	782735	0	0
2024-05-07 10:31:32			0	33485	0	0	0	17812	16440	154961	27249	963195	38705	106473	0	0	8130	782531	0	0
2024-05-07 10:32:32			0	33470	0	0	0	17810	16450	154789	27569	963177	38706	106472	0	0	8129	783252	0	0
2024-05-07 10:33:32			0	33481	0	0	0	17823	16440	154853	27433	963134	38682	106477	0	0	8129	782735	0	0
2024-05-07 10:34:32			0	33470	0	0	0	17820	16450	154853	27327	963177	38695	106476	0	0	8129	783252	0	0
2024-05-07 10:35:32			0	33465	0	0	0	17825	16440	154765	27405	963169	38705	106478	0	0	8128	783549	0	0
2024-05-07 10:36:32			0	33480	0	0	0	17818	16440	154725	27355	963169	38682	106475	0	0	8129	782786	0	0
2024-05-07 10:37:32			0	33485	0	0	0	17812	16440	154745	27537	963169	38694	106473	0	0	8130	782531	0	0
2024-05-07 10:38:32			0	33502	0	0	0	17802	16440	154789	27317	963142	38694	106469	0	0	8131	781667	0	0
2024-05-07 10:39:32			0	33491	0	0	0	17799	16440	154713	27421	963169	38671	106468	0	0	8130	782226	0	0
2024-05-07 10:40:32			0	33507	0	0	0	17799	16420	154797	27386	963083	38681	106468	0	0	8131	781497	0	0
2024-05-07 10:41:32			0	33488	0	0	0	17799	16430	154693	27542	963144	38704	106468	0	0	8130	782421	0	0
2024-05-07 10:42:32			0	33507	0	0	0	17799	16430	154705	27287	963118	38682	106468	0	0	8131	781455	0	0
2024-05-07 10:43:32			0	33501	0	0	0	17802	16410	154669	27626	963120	38692	106469	0	0	8131	781845	0	0
2024-05-07 10:44:32			0	33527	0	0	0	17797	16430	154745	27345	963100	38682	106467	0	0	8132	780439	0	0
2024-05-07 10:45:32			0	33505	0	0	0	17797	16430	154593	27267	963179	38682	106467	0	0	8131	781557	0	0
2024-05-07 10:46:32			0	33504	0	0	0	17802	16430	154741	27422	963118	38682	106469	0	0	8131	781607	0	0
2024-05-07 10:47:32			0	33509	0	0	0	17794	16420	154693	27357	963075	38681	106466	0	0	8131	781396	0	0
2024-05-07 10:48:32			0	33507	0	0	0	17792	16420	154657	27248	963101	38692	106465	0	0	8131	781497	0	0
2024-05-07 10:49:32			0	33501	0	0	0	17784	16420	154749	27659	963075	38692	106462	0	0	8131	781802	0	0
2024-05-07 10:50:32			0	33507	0	0	0	17799	16410	154713	27303	963172	38681	106468	0	0	8131	781540	0	0
2024-05-07 10:51:32			0	33513	0	0	0	17805	16420	154745	27376	963136	38692	106470	0	0	8131	781192	0	0
2024-05-07 10:52:32			0	33513	0	0	0	17820	16420	154593	27455	963110	38692	106476	0	0	8131	781192	0	0
2024-05-07 10:53:32			0	33502	0	0	0	17833	16430	154593	27284	963152	38694	106481	0	0	8130	781709	0	0
2024-05-07 10:54:32			0	33522	0	0	0	17820	16440	154669	27497	963161	38694	106476	0	0	8132	780651	0	0
2024-05-07 10:55:32			0	33513	0	0	0	17818	16440	154645	27426	963221	38682	106475	0	0	8131	781108	0	0
2024-05-07 10:56:32			0	33508	0	0	0	17815	16430	154657	27495	963179	38694	106474	0	0	8131	781404	0	0
2024-05-07 10:57:32			0	33511	0	0	0	17807	16440	154613	27358	963161	38682	106471	0	0	8131	781210	0	0
2024-05-07 10:58:32			0	33514	0	0	0	17805	16440	154641	27230	963187	38682	106470	0	0	8132	781057	0	0
2024-05-07 10:59:32			0	33510	0	0	0	17799	16440	154557	27230	963195	38682	106468	0	0	8131	781261	0	0
2024-05-07 11:00:32			0	33529	0	0	0	17789	16440	154613	27263	963187	38694	106464	0	0	8133	780296	0	0
2024-05-07 11:01:32			0	33518	0	0	0	17797	16430	154657	27367	963152	38694	106467	0	0	8132	780896	0	0
2024-05-07 11:02:32			0	33529	0	0	0	17823	16420	154661	27234	963128	38703	106477	0	0	8132	780380	0	0
2024-05-07 11:03:32			0	33515	0	0	0	17828	16440	154625	27658	963195	38694	106479	0	0	8131	781006	0	0
2024-05-07 11:04:32			0	33532	0	0	0	17823	16440	154721	27474	963240	38682	106477	0	0	8132	780143	0	0
2024-05-07 11:05:32			0	33525	0	0	0	17833	16440	154617	27376	963301	38694	106481	0	0	8132	780499	0	0
2024-05-07 11:06:32			0	33526	0	0	0	17825	16440	154629	27654	963240	38682	106478	0	0	8132	780448	0	0
2024-05-07 11:07:32			0	33544	0	0	0	17823	16440	154513	27436	963195	38682	106477	0	0	8133	779535	0	0
2024-05-07 11:08:32			0	33540	0	0	0	17857	16440	154501	27197	963213	38682	106490	0	0	8132	779737	0	0
2024-05-07 11:09:32			0	33555	0	0	0	17857	16450	154557	27338	963291	38695	106490	0	0	8133	778935	0	0
2024-05-07 11:10:32			0	33559	0	0	0	17851	16460	154545	27528	963325	38706	106488	0	0	8134	778690	0	0
2024-05-07 11:11:32			0	33567	0	0	0	17841	16450	154498	27144	963291	38695	106484	0	0	8134	778327	0	0
2024-05-07 11:12:32			0	33563	0	0	0	17844	16460	154509	27715	963325	38695	106485	0	0	8134	778487	0	0
2024-05-07 11:13:32			0	33543	0	0	0	17836	16470	154393	27545	963281	38696	106482	0	0	8133	779459	0	0
2024-05-07 11:14:32			0	33554	0	0	0	17841	16460	154417	27429	963220	38706	106484	0	0	8133	778943	0	0
2024-05-07 11:15:32			0	33559	0	0	0	17833	16450	154485	27569	963282	38683	106481	0	0	8134	778732	0	0
2024-05-07 11:16:32			0	33555	0	0	0	17854	16470	154493	27573	963333	38696	106489	0	0	8133	778850	0	0
2024-05-07 11:17:32			0	33549	0	0	0	17870	16460	154565	27490	963352	38695	106495	0	0	8133	779197	0	0
2024-05-07 11:18:32			0	33546	0	0	0	17870	16470	154549	27377	963289	38707	106495	0	0	8132	779307	0	0
2024-05-07 11:19:32			0	33550	0	0	0	17870	16480	154585	27753	963376	38697	106495	0	0	8133	779062	0	0
2024-05-07 11:20:32			0	33576	0	0	0	17875	16480	154494	27355	963323	38697	106497	0	0	8134	777745	0	0
2024-05-07 11:21:32			0	33563	0	0	0	17870	16480	154501	27351	963332	38698	106495	0	0	8134	778403	0	0
2024-05-07 11:22:32			0	33569	0	0	0	17872	16490	154393	27531	963374	38708	106496	0	0	8134	778057	0	0
2024-05-07 11:23:32			0	33568	0	0	0	17890	16490	154345	27300	963419	38698	106503	0	0	8134	778108	0	0
2024-05-07 11:24:32			0	33567	0	0	0	17903	16480	154414	27223	963437	38698	106508	0	0	8133	778200	0	0
2024-05-07 11:25:32			0	33577	0	0	0	17906	16500	154417	27105	963436	38709	106509	0	0	8134	777610	0	0
2024-05-07 11:26:32			0	33583	0	0	0	17919	16510	154362	27367	963426	38710	106514	0	0	8134	777264	0	0
2024-05-07 11:27:32			0	33590	0	0	0	17914	16500	154310	27192	963470	38689	106512	0	0	8134	776952	0	0
2024-05-07 11:28:32			0	33591	0	0	0	17888	16500	154290	27291	963497	38689	106502	0	0	8135	776902	0	0
2024-05-07 11:29:32			0	33586	0	0	0	17841	16510	154294	27715	963434	38700	106484	0	0	8136	777113	0	0
2024-05-07 11:30:32			0	33589	0	0	0	17799	16500	154290	27208	963356	38688	106468	0	0	8136	777003	0	0
2024-05-07 11:31:32			0	33590	0	0	0	17799	16490	154258	27364	963261	38676	106468	0	0	8136	776994	0	0
2024-05-07 11:32:32			0	33558	0	0	0	17805	16490	154325	27412	963340	38687	106470	0	0	8134	778614	0	0
2024-05-07 11:33:32			0	33567	0	0	0	17833	16480	154250	27371	963297	38697	106481	0	0	8134	778200	0	0
2024-05-07 11:34:32			0	33575	0	0	0	17877	16470	154401	27454	963315	38696	106498	0	0	8134	777837	0	0
2024-05-07 11:35:32			0	33581	0	0	0	17896	16480	154294	27360	963358	38708	106505	0	0	8134	777492	0	0
2024-05-07 11:36:32			0	33581	0	0	0	17880	16490	154306	27552	963401	38698	106499	0	0	8134	777449	0	0
2024-05-07 11:37:32			0	33600	0	0	0	17838	16500	154198	27384	963417	38710	106483	0	0	8136	776447	0	0
2024-05-07 11:38:32			0	33596	0	0	0	17820	16490	154158	27379	963313	38687	106476	0	0	8136	776691	0	0
2024-05-07 11:39:32			0	33609	0	0	0	17818	16480	154122	27549	963332	38687	106475	0	0	8137	776076	0	0
2024-05-07 11:40:32			0	33623	0	0	0	17825	16470	154062	27396	963289	38707	106478	0	0	8138	775410	0	0
2024-05-07 11:41:32			0	33610	0	0	0	17838	16490	154102	27476	963287	38719	106483	0	0	8137	775983	0	0
2024-05-07 11:42:32			0	33609	0	0	0	17838	16480	154146	27635	963279	38708	106483	0	0	8137	776076	0	0
2024-05-07 11:43:32			0	33595	0	0	0	17844	16480	154130	27729	963323	38697	106485	0	0	8136	776783	0	0
2024-05-07 11:44:32			0	33591	0	0	0	17838	16480	154226	27281	963332	38708	106483	0	0	8136	776986	0	0
2024-05-07 11:45:32			0	33612	0	0	0	17823	16480	154234	27400	963305	38698	106477	0	0	8137	775924	0	0
2024-05-07 11:46:32			0	33609	0	0	0	17805	16480	154118	27393	963297	38697	106470	0	0	8137	776076	0	0
2024-05-07 11:47:32			0	33603	0	0	0	17797	16480	154246	27543	963305	38708	106467	0	0	8137	776379	0	0
2024-05-07 11:48:32			0	33584	0	0	0	17818	16470	154190	27329	963333	38696	106475	0	0	8136	777382	0	0
2024-05-07 11:49:32			0	33601	0	0	0	17815	16470	154214	27455	963333	38685	106474	0	0	8137	776522	0	0
2024-05-07 11:50:32			0	33593	0	0	0	17825	16470	154154	27429	963315	38696	106478	0	0	8136	776927	0	0
2024-05-07 11:51:32			0	33580	0	0	0	17823	16480	154198	27450	963358	38698	106477	0	0	8135	777542	0	0
2024-05-07 11:52:32			0	33598	0	0	0	17823	16480	154170	27602	963350	38697	106477	0	0	8136	776632	0	0
2024-05-07 11:53:32			0	33612	0	0	0	17815	16480	154230	27646	963323	38697	106474	0	0	8137	775924	0	0
2024-05-07 11:54:32			0	33622	0	0	0	17818	16490	154186	27391	963295	38708	106475	0	0	8138	775377	0	0
2024-05-07 11:55:32			0	33624	0	0	0	17818	16480	154174	27381	963305	38708	106475	0	0	8138	775318	0	0
2024-05-07 11:56:32			0	33591	0	0	0	17810	16490	154098	27351	963340	38698	106472	0	0	8136	776944	0	0
2024-05-07 11:57:32			0	33614	0	0	0	17807	16480	154094	27627	963350	38697	106471	0	0	8138	775823	0	0
2024-05-07 11:58:32			0	33617	0	0	0	17805	16480	154050	27474	963297	38686	106470	0	0	8138	775672	0	0
2024-05-07 11:59:32			0	33629	0	0	0	17792	16480	153978	27498	963244	38686	106465	0	0	8139	775066	0	0
2024-05-07 12:00:32			0	33642	0	0	0	17789	16470	154026	27533	963262	38696	106464	0	0	8140	774452	0	0
2024-05-07 12:01:32			0	33652	0	0	0	17815	16480	153974	27400	963244	38675	106474	0	0	8140	773905	0	0
2024-05-07 12:02:32			0	33663	0	0	0	17841	16470	153830	27384	963307	38696	106484	0	0	8140	773393	0	0
2024-05-07 12:03:32			0	33667	0	0	0	17841	16470	153890	27500	963342	38696	106484	0	0	8140	773191	0	0
2024-05-07 12:04:32			0	33674	0	0	0	17831	16480	153846	27284	963323	38697	106480	0	0	8141	772797	0	0
2024-05-07 12:05:32			0	33680	0	0	0	17836	16490	153798	27260	963340	38698	106482	0	0	8141	772453	0	0
2024-05-07 12:06:32			0	33695	0	0	0	17823	16480	153730	26987	963297	38697	106477	0	0	8142	771740	0	0
2024-05-07 12:07:32			0	33696	0	0	0	17833	16480	153686	27275	963384	38708	106481	0	0	8142	771690	0	0
2024-05-07 12:08:32			0	33696	0	0	0	17846	16490	153658	27440	963366	38687	106486	0	0	8142	771648	0	0
2024-05-07 12:09:32			0	33712	0	0	0	17851	16480	153546	27621	963384	38708	106488	0	0	8143	770885	0	0
2024-05-07 12:10:32			0	33722	0	0	0	17854	16500	153614	27673	963383	38699	106489	0	0	8143	770299	0	0
2024-05-07 12:11:32			0	33734	0	0	0	17867	16480	153574	27180	963411	38698	106494	0	0	8144	769780	0	0
2024-05-07 12:12:32			0	33731	0	0	0	17872	16490	153578	27580	963393	38719	106496	0	0	8143	769889	0	0
2024-05-07 12:13:32			0	33745	0	0	0	17883	16500	153554	27345	963383	38709	106500	0	0	8144	769145	0	0
2024-05-07 12:14:32			0	33744	0	0	0	17890	16490	153546	27396	963419	38687	106503	0	0	8144	769236	0	0
2024-05-07 12:15:32			0	33739	0	0	0	17877	16490	153530	27724	963453	38708	106498	0	0	8144	769487	0	0
2024-05-07 12:16:32			0	33744	0	0	0	17883	16490	153490	27239	963427	38698	106500	0	0	8144	769236	0	0
2024-05-07 12:17:32			0	33751	0	0	0	17880	16510	153394	27358	963452	38710	106499	0	0	8145	768802	0	0
2024-05-07 12:18:32			0	33741	0	0	0	17875	16500	153554	27481	963436	38699	106497	0	0	8144	769345	0	0
2024-05-07 12:19:32			0	33734	0	0	0	17859	16500	153498	27743	963444	38700	106491	0	0	8144	769697	0	0
2024-05-07 12:20:32			0	33712	0	0	0	17854	16500	153630	27769	963383	38699	106489	0	0	8143	770802	0	0
2024-05-07 12:21:32			0	33710	0	0	0	17857	16500	153598	27338	963391	38710	106490	0	0	8143	770902	0	0
2024-05-07 12:22:32			0	33702	0	0	0	17870	16490	153626	27803	963401	38708	106495	0	0	8142	771346	0	0
2024-05-07 12:23:32			0	33716	0	0	0	17857	16490	153626	27795	963401	38687	106490	0	0	8143	770642	0	0
2024-05-07 12:24:32			0	33714	0	0	0	17859	16510	153722	27441	963426	38700	106491	0	0	8143	770659	0	0
2024-05-07 12:25:32			0	33702	0	0	0	17862	16500	153598	27637	963383	38699	106492	0	0	8142	771304	0	0
2024-05-07 12:26:32			0	33712	0	0	0	17864	16500	153730	27381	963356	38699	106493	0	0	8143	770802	0	0
2024-05-07 12:27:32			0	33703	0	0	0	17864	16500	153662	27821	963391	38700	106493	0	0	8142	771254	0	0
2024-05-07 12:28:32			0	33720	0	0	0	17870	16500	153786	27687	963488	38688	106495	0	0	8143	770400	0	0
2024-05-07 12:29:32			0	33703	0	0	0	17867	16500	153806	27554	963330	38699	106494	0	0	8142	771254	0	0
2024-05-07 12:30:32			0	33701	0	0	0	17862	16500	153818	27322	963409	38720	106492	0	0	8142	771355	0	0
2024-05-07 12:31:32			0	33690	0	0	0	17867	16500	153754	27592	963365	38700	106494	0	0	8141	771908	0	0
2024-05-07 12:32:32			0	33695	0	0	0	17846	16490	153802	27393	963348	38708	106486	0	0	8142	771698	0	0
2024-05-07 12:33:32			0	33663	0	0	0	17849	16490	153754	27566	963348	38708	106487	0	0	8140	773309	0	0
2024-05-07 12:34:32			0	33669	0	0	0	17857	16490	153798	27673	963374	38698	106490	0	0	8140	773007	0	0
2024-05-07 12:35:32			0	33658	0	0	0	17851	16490	153902	27545	963348	38698	106488	0	0	8140	773561	0	0
2024-05-07 12:36:32			0	33655	0	0	0	17851	16490	153830	27338	963366	38698	106488	0	0	8139	773712	0	0
2024-05-07 12:37:32			0	33652	0	0	0	17857	16490	153950	27606	963348	38687	106490	0	0	8139	773863	0	0
2024-05-07 12:38:32			0	33640	0	0	0	17857	16480	153894	27324	963305	38698	106490	0	0	8138	774511	0	0
2024-05-07 12:39:32			0	33656	0	0	0	17859	16490	153946	27732	963340	38698	106491	0	0	8139	773662	0	0
2024-05-07 12:40:32			0	33652	0	0	0	17851	16490	153930	27661	963313	38708	106488	0	0	8139	773863	0	0
2024-05-07 12:41:32			0	33648	0	0	0	17849	16490	153970	27505	963374	38708	106487	0	0	8139	774065	0	0
2024-05-07 12:42:32			0	33641	0	0	0	17846	16490	153990	27627	963445	38708	106486	0	0	8139	774418	0	0
2024-05-07 12:43:32			0	33644	0	0	0	17857	16490	154078	27805	963401	38687	106490	0	0	8139	774267	0	0
2024-05-07 12:44:32			0	33625	0	0	0	17857	16490	154006	27724	963393	38708	106490	0	0	8137	775226	0	0
2024-05-07 12:45:32			0	33632	0	0	0	17849	16480	153954	27377	963323	38697	106487	0	0	8138	774914	0	0
2024-05-07 12:46:32			0	33661	0	0	0	17851	16490	154006	27530	963340	38698	106488	0	0	8140	773410	0	0
2024-05-07 12:47:32			0	33646	0	0	0	17854	16480	153978	27443	963403	38697	106489	0	0	8139	774208	0	0
2024-05-07 12:48:32			0	33633	0	0	0	17849	16480	153946	27486	963358	38687	106487	0	0	8138	774864	0	0
2024-05-07 12:49:32			0	33651	0	0	0	17846	16490	153966	27724	963419	38698	106486	0	0	8139	773914	0	0
2024-05-07 12:50:32			0	33656	0	0	0	17849	16490	153982	27459	963393	38698	106487	0	0	8139	773662	0	0
2024-05-07 12:51:32			0	33651	0	0	0	17851	16490	154010	27651	963313	38708	106488	0	0	8139	773914	0	0
2024-05-07 12:52:32			0	33643	0	0	0	17841	16480	153906	27296	963332	38698	106484	0	0	8139	774359	0	0
2024-05-07 12:53:32			0	33664	0	0	0	17844	16480	153874	27762	963305	38698	106485	0	0	8140	773300	0	0
2024-05-07 12:54:32			0	33666	0	0	0	17851	16490	153878	27691	963340	38687	106488	0	0	8140	773158	0	0
2024-05-07 12:55:32			0	33677	0	0	0	17844	16490	153854	27402	963340	38708	106485	0	0	8141	772604	0	0
2024-05-07 12:56:32			0	33673	0	0	0	17836	16490	153770	27486	963313	38708	106482	0	0	8141	772805	0	0
2024-05-07 12:57:32			0	33657	0	0	0	17836	16490	153786	27493	963340	38687	106482	0	0	8140	773611	0	0
2024-05-07 12:58:32			0	33668	0	0	0	17836	16480	153766	27658	963350	38697	106482	0	0	8140	773099	0	0
2024-05-07 12:59:32			0	33673	0	0	0	17836	16480	153746	27521	963350	38708	106482	0	0	8141	772847	0	0
2024-05-07 13:00:32			0	33689	0	0	0	17844	16480	153730	27469	963323	38686	106485	0	0	8141	772042	0	0
2024-05-07 13:01:32			0	33701	0	0	0	17846	16480	153626	27369	963350	38697	106486	0	0	8142	771438	0	0
2024-05-07 13:02:32			0	33700	0	0	0	17838	16480	153694	27519	963323	38697	106483	0	0	8142	771488	0	0
2024-05-07 13:03:32			0	33710	0	0	0	17849	16480	153614	27237	963323	38708	106487	0	0	8143	770986	0	0
2024-05-07 13:04:32			0	33719	0	0	0	17851	16470	153598	27618	963289	38696	106488	0	0	8143	770575	0	0
2024-05-07 13:05:32			0	33735	0	0	0	17849	16480	153598	27701	963323	38697	106487	0	0	8144	769730	0	0
2024-05-07 13:06:32			0	33729	0	0	0	17851	16480	153490	27511	963403	38697	106488	0	0	8144	770031	0	0
2024-05-07 13:07:32			0	33741	0	0	0	17846	16480	153442	27597	963376	38697	106486	0	0	8144	769429	0	0
2024-05-07 13:08:32			0	33754	0	0	0	17838	16470	153410	27263	963394	38707	106483	0	0	8145	768818	0	0
2024-05-07 13:09:32			0	33769	0	0	0	17844	16480	153442	27505	963297	38697	106485	0	0	8146	768024	0	0
2024-05-07 13:10:32			0	33772	0	0	0	17841	16470	153290	27462	963281	38696	106484	0	0	8146	767916	0	0
2024-05-07 13:11:32			0	33758	0	0	0	17846	16480	153382	27296	963323	38708	106486	0	0	8145	768576	0	0
2024-05-07 13:12:32			0	33764	0	0	0	17833	16460	153454	27476	963272	38706	106481	0	0	8146	768358	0	0
2024-05-07 13:13:32			0	33768	0	0	0	17838	16470	153394	27556	963333	38707	106483	0	0	8146	768116	0	0
2024-05-07 13:14:32			0	33754	0	0	0	17841	16470	153414	27658	963307	38685	106484	0	0	8145	768818	0	0
2024-05-07 13:15:32			0	33764	0	0	0	17838	16480	153410	27621	963271	38697	106483	0	0	8146	768275	0	0
2024-05-07 13:16:32			0	33774	0	0	0	17849	16480	153318	27319	963376	38686	106487	0	0	8146	767774	0	0
2024-05-07 13:17:32			0	33785	0	0	0	17841	16480	153286	27590	963323	38697	106484	0	0	8147	767223	0	0
2024-05-07 13:18:32			0	33776	0	0	0	17844	16470	153254	27400	963281	38707	106485	0	0	8146	767715	0	0
2024-05-07 13:19:32			0	33803	0	0	0	17841	16470	153322	27244	963342	38685	106484	0	0	8148	766364	0	0
2024-05-07 13:20:32			0	33790	0	0	0	17846	16470	153374	27620	963307	38685	106486	0	0	8147	767014	0	0
2024-05-07 13:21:32			0	33812	0	0	0	17838	16470	153302	27308	963307	38696	106483	0	0	8149	765914	0	0
2024-05-07 13:22:32			0	33812	0	0	0	17844	16470	153302	27294	963368	38696	106485	0	0	8149	765914	0	0
2024-05-07 13:23:32			0	33811	0	0	0	17838	16460	153158	27414	963246	38706	106483	0	0	8149	766005	0	0
2024-05-07 13:24:32			0	33819	0	0	0	17838	16470	153166	27007	963333	38696	106483	0	0	8149	765564	0	0
2024-05-07 13:25:32			0	33841	0	0	0	17849	16480	153082	27163	963297	38697	106487	0	0	8150	764423	0	0
2024-05-07 13:26:32			0	33846	0	0	0	17851	16470	153062	27114	963315	38696	106488	0	0	8150	764215	0	0
2024-05-07 13:27:32			0	33867	0	0	0	17838	16470	152862	27372	963368	38707	106483	0	0	8152	763167	0	0
2024-05-07 13:28:32			0	33877	0	0	0	17849	16480	153002	27607	963332	38687	106487	0	0	8152	762628	0	0
2024-05-07 13:29:32			0	33890	0	0	0	17849	16470	152930	27450	963307	38707	106487	0	0	8153	762021	0	0
2024-05-07 13:30:32			0	33891	0	0	0	17849	16470	152846	27627	963368	38707	106487	0	0	8153	761972	0	0
2024-05-07 13:31:32			0	33899	0	0	0	17854	16470	152874	27699	963368	38696	106489	0	0	8153	761573	0	0
2024-05-07 13:32:32			0	33886	0	0	0	17849	16470	152838	27440	963315	38707	106487	0	0	8153	762221	0	0
2024-05-07 13:33:32			0	33902	0	0	0	17844	16480	152762	27239	963297	38697	106485	0	0	8154	761383	0	0
2024-05-07 13:34:32			0	33895	0	0	0	17846	16470	152782	27528	963315	38696	106486	0	0	8153	761772	0	0
2024-05-07 13:35:32			0	33887	0	0	0	17849	16470	152786	27519	963315	38685	106487	0	0	8153	762171	0	0
2024-05-07 13:36:32			0	33904	0	0	0	17849	16480	152914	27561	963403	38697	106487	0	0	8154	761283	0	0
2024-05-07 13:37:32			0	33893	0	0	0	17846	16470	152802	27653	963315	38707	106486	0	0	8153	761872	0	0
2024-05-07 13:38:32			0	33907	0	0	0	17857	16470	152822	27535	963368	38707	106490	0	0	8154	761175	0	0
2024-05-07 13:39:32			0	33910	0	0	0	17849	16480	152718	27611	963376	38697	106487	0	0	8154	760985	0	0
2024-05-07 13:40:32			0	33914	0	0	0	17857	16470	152770	27874	963386	38707	106490	0	0	8154	760827	0	0
2024-05-07 13:41:32			0	33922	0	0	0	17849	16480	152718	27514	963350	38697	106487	0	0	8155	760388	0	0
2024-05-07 13:42:32			0	33911	0	0	0	17862	16480	152866	27471	963323	38708	106492	0	0	8154	760935	0	0
2024-05-07 13:43:32			0	33925	0	0	0	17862	16480	152758	27557	963411	38708	106492	0	0	8155	760239	0	0
2024-05-07 13:44:32			0	33920	0	0	0	17857	16480	152834	27798	963403	38697	106490	0	0	8155	760488	0	0
2024-05-07 13:45:32			0	33910	0	0	0	17854	16490	152750	27320	963366	38708	106489	0	0	8154	760944	0	0
2024-05-07 13:46:32			0	33920	0	0	0	17854	16480	152698	27602	963350	38718	106489	0	0	8155	760488	0	0
2024-05-07 13:47:32			0	33928	0	0	0	17857	16480	152646	27242	963350	38697	106490	0	0	8155	760090	0	0
2024-05-07 13:48:32			0	33945	0	0	0	17857	16480	152618	27391	963350	38708	106490	0	0	8156	759245	0	0
2024-05-07 13:49:32			0	33937	0	0	0	17854	16480	152650	27511	963429	38718	106489	0	0	8156	759643	0	0
2024-05-07 13:50:32			0	33959	0	0	0	17864	16480	152542	27632	963350	38708	106493	0	0	8157	758550	0	0
2024-05-07 13:51:32			0	33964	0	0	0	17849	16480	152422	27322	963384	38708	106487	0	0	8157	758302	0	0
2024-05-07 13:52:32			0	33978	0	0	0	17859	16470	152422	27398	963368	38707	106491	0	0	8158	757649	0	0
2024-05-07 13:53:32			0	33968	0	0	0	17864	16470	152414	27729	963360	38685	106493	0	0	8157	758145	0	0
2024-05-07 13:54:32			0	33983	0	0	0	17857	16480	152486	27537	963332	38708	106490	0	0	8158	757360	0	0
2024-05-07 13:55:32			0	33979	0	0	0	17859	16480	152526	27705	963384	38708	106491	0	0	8158	757559	0	0
2024-05-07 13:56:32			0	33979	0	0	0	17857	16470	152450	27599	963394	38696	106490	0	0	8158	757600	0	0
2024-05-07 13:57:32			0	33977	0	0	0	17862	16490	152470	27438	963366	38698	106492	0	0	8158	757617	0	0
2024-05-07 13:58:32			0	33978	0	0	0	17857	16490	152406	27364	963445	38698	106490	0	0	8158	757567	0	0
2024-05-07 13:59:32			0	33962	0	0	0	17859	16480	152382	27604	963403	38697	106491	0	0	8157	758401	0	0
2024-05-07 14:00:32			0	33974	0	0	0	17870	16480	152450	27913	963384	38698	106495	0	0	8158	757807	0	0
2024-05-07 14:01:32			0	33999	0	0	0	17862	16490	152366	27436	963374	38708	106492	0	0	8159	756527	0	0
2024-05-07 14:02:32			0	33975	0	0	0	17867	16490	152446	27741	963480	38698	106494	0	0	8158	757716	0	0
2024-05-07 14:03:32			0	33979	0	0	0	17867	16480	152366	27573	963403	38708	106494	0	0	8158	757559	0	0
2024-05-07 14:04:32			0	33973	0	0	0	17867	16490	152426	27689	963401	38698	106494	0	0	8158	757815	0	0
2024-05-07 14:05:32			0	33986	0	0	0	17867	16500	152350	27736	963409	38709	106494	0	0	8158	757130	0	0
2024-05-07 14:06:32			0	33992	0	0	0	17867	16500	152374	27464	963436	38709	106494	0	0	8159	756833	0	0
2024-05-07 14:07:32			0	34014	0	0	0	17864	16500	152310	27521	963436	38709	106493	0	0	8160	755744	0	0
2024-05-07 14:08:32			0	33976	0	0	0	17870	16500	152358	27509	963462	38709	106495	0	0	8158	757625	0	0
2024-05-07 14:09:32			0	33983	0	0	0	17870	16490	152262	27673	963401	38708	106495	0	0	8158	757319	0	0
2024-05-07 14:10:32			0	34000	0	0	0	17857	16500	152430	27725	963436	38720	106490	0	0	8159	756436	0	0
2024-05-07 14:11:32			0	33993	0	0	0	17864	16490	152430	27486	963427	38698	106493	0	0	8159	756824	0	0
2024-05-07 14:12:32			0	33970	0	0	0	17867	16490	152390	27640	963401	38698	106494	0	0	8157	757964	0	0
2024-05-07 14:13:32			0	33993	0	0	0	17872	16490	152398	27670	963393	38698	106496	0	0	8159	756824	0	0
2024-05-07 14:14:32			0	33975	0	0	0	17870	16500	152450	27495	963409	38720	106495	0	0	8158	757675	0	0
2024-05-07 14:15:32			0	33975	0	0	0	17872	16510	152414	27751	963452	38700	106496	0	0	8158	757634	0	0
2024-05-07 14:16:32			0	33979	0	0	0	17875	16500	152426	27573	963444	38710	106497	0	0	8158	757477	0	0
2024-05-07 14:17:32			0	33979	0	0	0	17890	16490	152494	27665	963480	38719	106503	0	0	8158	757518	0	0
2024-05-07 14:18:32			0	33976	0	0	0	17885	16510	152534	27646	963505	38710	106501	0	0	8158	757584	0	0
2024-05-07 14:19:32			0	33964	0	0	0	17880	16500	152494	27588	963462	38699	106499	0	0	8157	758220	0	0
2024-05-07 14:20:32			0	33976	0	0	0	17875	16500	152490	27459	963444	38710	106497	0	0	8158	757625	0	0
2024-05-07 14:21:32			0	33980	0	0	0	17880	16500	152426	27552	963444	38710	106499	0	0	8158	757427	0	0
2024-05-07 14:22:32			0	33976	0	0	0	17890	16510	152510	27703	963513	38710	106503	0	0	8158	757584	0	0
2024-05-07 14:23:32			0	33983	0	0	0	17888	16510	152506	27505	963531	38700	106502	0	0	8158	757237	0	0
2024-05-07 14:24:32			0	33957	0	0	0	17885	16510	152418	27913	963505	38700	106501	0	0	8157	758526	0	0
2024-05-07 14:25:32			0	33980	0	0	0	17885	16510	152402	27538	963557	38721	106501	0	0	8158	757386	0	0
2024-05-07 14:26:32			0	33973	0	0	0	17885	16500	152454	27488	963549	38710	106501	0	0	8157	757774	0	0
2024-05-07 14:27:32			0	33971	0	0	0	17896	16520	152414	27554	963495	38722	106505	0	0	8157	757791	0	0
2024-05-07 14:28:32			0	33986	0	0	0	17893	16520	152398	27920	963574	38711	106504	0	0	8158	757048	0	0
2024-05-07 14:29:32			0	33992	0	0	0	17906	16520	152458	27609	963521	38711	106509	0	0	8158	756751	0	0
2024-05-07 14:30:32			0	33982	0	0	0	17911	16510	152426	27576	963539	38710	106511	0	0	8158	757287	0	0
2024-05-07 14:31:32			0	34007	0	0	0	17906	16520	152482	27379	963600	38711	106509	0	0	8159	756008	0	0
2024-05-07 14:32:32			0	33997	0	0	0	17906	16520	152354	27519	963574	38711	106509	0	0	8159	756503	0	0
2024-05-07 14:33:32			0	34019	0	0	0	17909	16520	152378	27429	963600	38733	106510	0	0	8160	755414	0	0
2024-05-07 14:34:32			0	34008	0	0	0	17901	16520	152310	27396	963582	38712	106507	0	0	8159	755959	0	0
2024-05-07 14:35:32			0	33997	0	0	0	17903	16530	152222	27255	963546	38702	106508	0	0	8159	756462	0	0
2024-05-07 14:36:32			0	34017	0	0	0	17901	16530	152246	27625	963625	38723	106507	0	0	8160	755473	0	0
2024-05-07 14:37:32			0	34022	0	0	0	17903	16530	152270	27737	963590	38723	106508	0	0	8160	755225	0	0
2024-05-07 14:38:32			0	34042	0	0	0	17903	16540	152230	27930	963633	38712	106508	0	0	8161	754196	0	0
2024-05-07 14:39:32			0	34014	0	0	0	17901	16530	152242	27635	963564	38712	106507	0	0	8160	755621	0	0
2024-05-07 14:40:32			0	34021	0	0	0	17903	16530	152158	28154	963546	38712	106508	0	0	8160	755275	0	0
2024-05-07 14:41:32			0	34038	0	0	0	17903	16530	152182	27711	963598	38712	106508	0	0	8161	754435	0	0
2024-05-07 14:42:32			0	34034	0	0	0	17898	16530	152174	27569	963590	38701	106506	0	0	8161	754632	0	0
2024-05-07 14:43:32			0	34048	0	0	0	17906	16530	152194	27630	963651	38723	106509	0	0	8162	753941	0	0
2024-05-07 14:44:32			0	34031	0	0	0	17903	16530	152210	27443	963617	38701	106508	0	0	8161	754781	0	0
2024-05-07 14:45:32			0	34035	0	0	0	17922	16530	152146	27450	963564	38701	106515	0	0	8160	754583	0	0
2024-05-07 14:46:32			0	34037	0	0	0	17903	16530	152206	27892	963590	38712	106508	0	0	8161	754484	0	0
2024-05-07 14:47:32			0	34034	0	0	0	17911	16530	152154	27821	963538	38712	106511	0	0	8161	754632	0	0
2024-05-07 14:48:32			0	34021	0	0	0	17909	16530	152146	27469	963625	38723	106510	0	0	8160	755275	0	0
2024-05-07 14:49:32			0	34017	0	0	0	17924	16530	152166	27618	963696	38723	106516	0	0	8159	755473	0	0
2024-05-07 14:50:32			0	34021	0	0	0	17911	16540	152154	27881	963641	38713	106511	0	0	8160	755234	0	0
2024-05-07 14:51:32			0	34036	0	0	0	17916	16530	152114	27661	963625	38735	106513	0	0	8161	754533	0	0
2024-05-07 14:52:32			0	34045	0	0	0	17916	16540	152158	27684	963668	38724	106513	0	0	8161	754048	0	0
2024-05-07 14:53:32			0	34020	0	0	0	17911	16540	152086	27920	963633	38723	106511	0	0	8160	755283	0	0
2024-05-07 14:54:32			0	34027	0	0	0	17916	16550	152154	27907	963623	38713	106513	0	0	8160	754896	0	0
2024-05-07 14:55:32			0	34034	0	0	0	17922	16530	152110	27623	963598	38735	106515	0	0	8160	754632	0	0
2024-05-07 14:56:32			0	34037	0	0	0	17909	16540	152150	27581	963686	38723	106510	0	0	8161	754443	0	0
2024-05-07 14:57:32			0	34037	0	0	0	17924	16550	152122	27656	963676	38724	106516	0	0	8161	754402	0	0
2024-05-07 14:58:32			0	34016	0	0	0	17911	16550	152122	27883	963649	38713	106511	0	0	8160	755440	0	0
2024-05-07 14:59:32			0	34033	0	0	0	17929	16540	152150	27640	963641	38713	106518	0	0	8160	754641	0	0
2024-05-07 15:00:32			0	34040	0	0	0	17922	16540	152110	27701	963641	38724	106515	0	0	8161	754295	0	0
2024-05-07 15:01:32			0	34033	0	0	0	17924	16540	152182	27526	963668	38703	106516	0	0	8160	754641	0	0
2024-05-07 15:02:32			0	34044	0	0	0	17916	16550	152154	27796	963763	38725	106513	0	0	8161	754057	0	0
2024-05-07 15:03:32			0	34063	0	0	0	17919	16550	152006	27772	963649	38713	106514	0	0	8162	753119	0	0
2024-05-07 15:04:32			0	34023	0	0	0	17922	16550	152146	28140	963676	38713	106515	0	0	8160	755094	0	0
2024-05-07 15:05:32			0	34033	0	0	0	17927	16550	152070	27691	963676	38713	106517	0	0	8160	754600	0	0
2024-05-07 15:06:32			0	34037	0	0	0	17922	16540	152206	27779	963607	38735	106515	0	0	8161	754443	0	0
2024-05-07 15:07:32			0	34026	0	0	0	17953	16550	152198	27601	963790	38725	106527	0	0	8160	754946	0	0
2024-05-07 15:08:32			0	34030	0	0	0	17968	16560	152126	27706	963798	38725	106533	0	0	8160	754707	0	0
2024-05-07 15:09:32			0	34039	0	0	0	17976	16560	152146	27687	963903	38725	106536	0	0	8160	754263	0	0
2024-05-07 15:10:32			0	34055	0	0	0	17971	16560	152078	27897	963859	38737	106534	0	0	8161	753473	0	0
2024-05-07 15:11:32			0	34051	0	0	0	17968	16580	152030	27659	963857	38727	106533	0	0	8161	753589	0	0
2024-05-07 15:12:32			0	34056	0	0	0	17966	16570	152030	27417	963796	38727	106532	0	0	8161	753383	0	0
2024-05-07 15:13:32			0	34057	0	0	0	17984	16580	151958	27720	963883	38716	106539	0	0	8161	753293	0	0
2024-05-07 15:14:32			0	34075	0	0	0	18005	16580	151950	27265	963865	38728	106547	0	0	8162	752405	0	0
2024-05-07 15:15:32			0	34093	0	0	0	18012	16590	151998	27814	963934	38729	106550	0	0	8163	751477	0	0
2024-05-07 15:16:32			0	34101	0	0	0	18007	16590	151790	27435	963934	38740	106548	0	0	8163	751083	0	0
2024-05-07 15:17:32			0	34091	0	0	0	18018	16600	151766	27795	963969	38741	106552	0	0	8162	751535	0	0
2024-05-07 15:18:32			0	34108	0	0	0	18028	16600	151798	27098	964003	38741	106556	0	0	8163	750698	0	0
2024-05-07 15:19:32			0	34095	0	0	0	18051	16610	151870	27592	964038	38719	106565	0	0	8162	751297	0	0
2024-05-07 15:20:32			0	34085	0	0	0	18070	16620	151814	27810	964054	38731	106572	0	0	8161	751749	0	0
2024-05-07 15:21:32			0	34103	0	0	0	18064	16620	151886	27755	964107	38742	106570	0	0	8162	750863	0	0
2024-05-07 15:22:32			0	34103	0	0	0	18067	16640	151778	27711	964167	38744	106571	0	0	8162	750782	0	0
2024-05-07 15:23:32			0	34088	0	0	0	18077	16650	151734	27594	964157	38745	106575	0	0	8162	751479	0	0
2024-05-07 15:24:32			0	34101	0	0	0	18077	16640	151710	27428	964148	38754	106575	0	0	8162	750880	0	0
2024-05-07 15:25:32			0	34116	0	0	0	18090	16650	151758	27531	964139	38734	106580	0	0	8163	750102	0	0
2024-05-07 15:26:32			0	34096	0	0	0	18101	16660	151778	27727	964226	38756	106584	0	0	8162	751045	0	0
2024-05-07 15:27:32			0	34109	0	0	0	18103	16660	151774	27379	964234	38747	106585	0	0	8162	750405	0	0
2024-05-07 15:28:32			0	34117	0	0	0	18114	16670	151714	27348	964304	38747	106589	0	0	8163	749971	0	0
2024-05-07 15:29:32			0	34131	0	0	0	18111	16670	151638	27454	964356	38747	106588	0	0	8163	749283	0	0
2024-05-07 15:30:32			0	34134	0	0	0	18122	16670	151630	27609	964383	38747	106592	0	0	8163	749136	0	0
2024-05-07 15:31:32			0	34128	0	0	0	18111	16680	151650	27578	964373	38737	106588	0	0	8163	749390	0	0
2024-05-07 15:32:32			0	34135	0	0	0	18101	16690	151670	27282	964336	38749	106584	0	0	8164	749006	0	0
2024-05-07 15:33:32			0	34131	0	0	0	18109	16680	151622	27528	964365	38736	106587	0	0	8164	749243	0	0
2024-05-07 15:34:32			0	34145	0	0	0	18093	16690	151494	27535	964442	38749	106581	0	0	8165	748515	0	0
2024-05-07 15:35:32			0	34137	0	0	0	18090	16700	151546	27305	964345	38749	106580	0	0	8164	748867	0	0
2024-05-07 15:36:32			0	34139	0	0	0	18090	16700	151562	27646	964371	38749	106580	0	0	8164	748769	0	0
2024-05-07 15:37:32			0	34128	0	0	0	18077	16700	151522	27357	964318	38749	106575	0	0	8164	749309	0	0
2024-05-07 15:38:32			0	34118	0	0	0	18072	16690	151566	27585	964257	38759	106573	0	0	8164	749841	0	0
2024-05-07 15:39:32			0	34135	0	0	0	18051	16690	151582	27731	964284	38749	106565	0	0	8165	749006	0	0
2024-05-07 15:40:32			0	34105	0	0	0	18067	16700	151758	27315	964265	38727	106571	0	0	8163	750440	0	0
2024-05-07 15:41:32			0	34096	0	0	0	18067	16700	151766	27677	964292	38738	106571	0	0	8162	750882	0	0
2024-05-07 15:42:32			0	34091	0	0	0	18064	16700	151910	27563	964265	38749	106570	0	0	8162	751128	0	0
2024-05-07 15:43:32			0	34081	0	0	0	18064	16680	151842	27614	964294	38758	106570	0	0	8161	751702	0	0
2024-05-07 15:44:32			0	34077	0	0	0	18072	16700	151782	27391	964300	38728	106573	0	0	8161	751818	0	0
2024-05-07 15:45:32			0	34056	0	0	0	18046	16700	152094	27488	964239	38759	106563	0	0	8160	752853	0	0
2024-05-07 15:46:32			0	34043	0	0	0	18062	16700	152098	27294	964353	38728	106569	0	0	8159	753494	0	0
2024-05-07 15:47:32			0	34036	0	0	0	18057	16690	152146	27538	964170	38748	106567	0	0	8159	753880	0	0
2024-05-07 15:48:32			0	34008	0	0	0	18054	16680	152122	27405	964214	38758	106566	0	0	8157	755304	0	0
2024-05-07 15:49:32			0	33995	0	0	0	18051	16690	152158	27524	964223	38748	106565	0	0	8157	755906	0	0
2024-05-07 15:50:32			0	34007	0	0	0	18051	16690	152222	27426	964257	38759	106565	0	0	8157	755313	0	0
2024-05-07 15:51:32			0	34004	0	0	0	18049	16690	152310	27206	964196	38748	106564	0	0	8157	755461	0	0
2024-05-07 15:52:32			0	33979	0	0	0	18067	16690	152250	27457	964223	38737	106571	0	0	8156	756698	0	0
2024-05-07 15:53:32			0	33975	0	0	0	18064	16690	152350	27396	964275	38737	106570	0	0	8155	756896	0	0
2024-05-07 15:54:32			0	33984	0	0	0	18051	16680	152290	27500	964241	38748	106565	0	0	8156	756491	0	0
2024-05-07 15:55:32			0	33972	0	0	0	18049	16680	152374	27440	964267	38737	106564	0	0	8155	757086	0	0
2024-05-07 15:56:32			0	33968	0	0	0	18049	16680	152306	27699	964241	38748	106564	0	0	8155	757284	0	0
2024-05-07 15:57:32			0	33959	0	0	0	18051	16680	152442	27666	964241	38737	106565	0	0	8155	757730	0	0
2024-05-07 15:58:32			0	33969	0	0	0	18059	16680	152394	27497	964267	38737	106568	0	0	8155	757234	0	0
2024-05-07 15:59:32			0	33956	0	0	0	18057	16680	152430	27329	964233	38736	106567	0	0	8154	757879	0	0
2024-05-07 16:00:32			0	33962	0	0	0	18051	16680	152430	27435	964206	38747	106565	0	0	8155	757581	0	0
2024-05-07 16:01:32			0	33976	0	0	0	18036	16680	152282	27507	964180	38736	106559	0	0	8156	756888	0	0
2024-05-07 16:02:32			0	33977	0	0	0	18049	16670	152362	27388	964224	38736	106564	0	0	8156	756879	0	0
2024-05-07 16:03:32			0	33984	0	0	0	18038	16670	152310	27628	964198	38736	106560	0	0	8156	756532	0	0
2024-05-07 16:04:32			0	33968	0	0	0	18044	16670	152254	27249	964216	38757	106562	0	0	8155	757325	0	0
2024-05-07 16:05:32			0	33987	0	0	0	18054	16680	152326	27552	964180	38747	106566	0	0	8156	756343	0	0
2024-05-07 16:06:32			0	33969	0	0	0	18054	16670	152266	27393	964251	38736	106566	0	0	8155	757275	0	0
2024-05-07 16:07:32			0	33966	0	0	0	18046	16670	152390	27291	964198	38736	106563	0	0	8155	757424	0	0
2024-05-07 16:08:32			0	33977	0	0	0	18051	16670	152342	27557	964198	38736	106565	0	0	8156	756879	0	0
2024-05-07 16:09:32			0	33979	0	0	0	18049	16660	152294	27433	964181	38747	106564	0	0	8156	756821	0	0
2024-05-07 16:10:32			0	33968	0	0	0	18049	16670	152398	27959	964198	38747	106564	0	0	8155	757325	0	0
2024-05-07 16:11:32			0	33982	0	0	0	18054	16670	152362	27164	964198	38736	106566	0	0	8156	756632	0	0
2024-05-07 16:12:32			0	33963	0	0	0	18049	16670	152334	27407	964224	38747	106564	0	0	8155	757573	0	0
2024-05-07 16:13:32			0	33980	0	0	0	18067	16680	152362	27258	964241	38737	106571	0	0	8156	756690	0	0
2024-05-07 16:14:32			0	33983	0	0	0	18059	16680	152382	27722	964233	38758	106568	0	0	8156	756541	0	0
2024-05-07 16:15:32			0	33972	0	0	0	18064	16680	152238	27466	964294	38748	106570	0	0	8155	757086	0	0
2024-05-07 16:16:32			0	33982	0	0	0	18096	16690	152270	27694	964328	38748	106582	0	0	8155	756550	0	0
2024-05-07 16:17:32			0	33977	0	0	0	18088	16690	152402	27422	964302	38748	106579	0	0	8155	756797	0	0
2024-05-07 16:18:32			0	33974	0	0	0	18075	16680	152326	27547	964346	38748	106574	0	0	8155	756987	0	0
2024-05-07 16:19:32			0	33974	0	0	0	18070	16690	152278	27601	964275	38737	106572	0	0	8155	756946	0	0
2024-05-07 16:20:32			0	33962	0	0	0	18067	16690	152434	27802	964336	38749	106571	0	0	8155	757540	0	0
2024-05-07 16:21:32			0	33982	0	0	0	18080	16680	152430	27275	964320	38748	106576	0	0	8155	756591	0	0
2024-05-07 16:22:32			0	33977	0	0	0	18096	16700	152378	27307	964397	38759	106582	0	0	8155	756756	0	0
2024-05-07 16:23:32			0	33959	0	0	0	18085	16690	152478	27140	964389	38759	106578	0	0	8154	757689	0	0
2024-05-07 16:24:32			0	33954	0	0	0	18085	16690	152398	27369	964381	38758	106578	0	0	8154	757937	0	0
2024-05-07 16:25:32			0	33941	0	0	0	18072	16690	152434	27192	964363	38759	106573	0	0	8153	758581	0	0
2024-05-07 16:26:32			0	33938	0	0	0	18080	16700	152418	27483	964397	38738	106576	0	0	8153	758689	0	0
2024-05-07 16:27:32			0	33934	0	0	0	18072	16690	152462	27536	964275	38748	106573	0	0	8153	758929	0	0
2024-05-07 16:28:32			0	33927	0	0	0	18067	16700	152474	27431	964300	38739	106571	0	0	8153	759235	0	0
2024-05-07 16:29:32			0	33920	0	0	0	18057	16700	152482	27412	964318	38738	106567	0	0	8152	759583	0	0
2024-05-07 16:30:32			0	33933	0	0	0	18064	16690	152558	27419	964355	38758	106570	0	0	8153	758978	0	0
2024-05-07 16:31:32			0	33934	0	0	0	18054	16700	152506	27417	964292	38749	106566	0	0	8153	758888	0	0
2024-05-07 16:32:32			0	33937	0	0	0	18054	16690	152438	27098	964310	38738	106566	0	0	8153	758780	0	0
2024-05-07 16:33:32			0	33950	0	0	0	18054	16690	152414	27396	964284	38749	106566	0	0	8154	758135	0	0
2024-05-07 16:34:32			0	33951	0	0	0	18059	16690	152458	27530	964328	38748	106568	0	0	8154	758085	0	0
2024-05-07 16:35:32			0	33934	0	0	0	18064	16690	152402	27215	964257	38738	106570	0	0	8153	758929	0	0
2024-05-07 16:36:32			0	33936	0	0	0	18075	16690	152382	27232	964275	38758	106574	0	0	8153	758829	0	0
2024-05-07 16:37:32			0	33970	0	0	0	18072	16700	152346	27478	964371	38749	106573	0	0	8155	757103	0	0
2024-05-07 16:38:32			0	33951	0	0	0	18064	16690	152334	27390	964275	38758	106570	0	0	8154	758085	0	0
2024-05-07 16:39:32			0	33962	0	0	0	18064	16690	152366	27182	964415	38749	106570	0	0	8155	757540	0	0
2024-05-07 16:40:32			0	33967	0	0	0	18059	16690	152326	27310	964275	38726	106568	0	0	8155	757292	0	0
2024-05-07 16:41:32			0	33972	0	0	0	18059	16690	152430	27218	964249	38748	106568	0	0	8155	757045	0	0
2024-05-07 16:42:32			0	33960	0	0	0	18062	16680	152358	27561	964241	38748	106569	0	0	8154	757680	0	0
2024-05-07 16:43:32			0	33969	0	0	0	18059	16690	152338	27306	964249	38748	106568	0	0	8155	757193	0	0
2024-05-07 16:44:32			0	33928	0	0	0	18064	16690	152450	27530	964381	38748	106570	0	0	8153	759226	0	0
2024-05-07 16:45:32			0	33923	0	0	0	18059	16690	152482	27410	964302	38737	106568	0	0	8152	759475	0	0
2024-05-07 16:46:32			0	33936	0	0	0	18057	16690	152626	27204	964355	38748	106567	0	0	8153	758829	0	0
2024-05-07 16:47:32			0	33913	0	0	0	18051	16680	152622	27274	964214	38737	106565	0	0	8152	760013	0	0
2024-05-07 16:48:32			0	33901	0	0	0	18049	16680	152742	27223	964294	38748	106564	0	0	8151	760609	0	0
2024-05-07 16:49:32			0	33907	0	0	0	18057	16680	152678	27272	964259	38747	106567	0	0	8152	760311	0	0
2024-05-07 16:50:32			0	33896	0	0	0	18054	16680	152746	27722	964267	38748	106566	0	0	8151	760857	0	0
2024-05-07 16:51:32			0	33890	0	0	0	18051	16670	152770	27398	964242	38735	106565	0	0	8151	761197	0	0
2024-05-07 16:52:32			0	33897	0	0	0	18054	16680	152706	27111	964180	38758	106566	0	0	8151	760808	0	0
2024-05-07 16:53:32			0	33895	0	0	0	18049	16680	152690	27239	964320	38748	106564	0	0	8151	760907	0	0
2024-05-07 16:54:32			0	33914	0	0	0	18054	16680	152614	27166	964259	38736	106566	0	0	8152	759963	0	0
2024-05-07 16:55:32			0	33921	0	0	0	18044	16680	152554	27307	964259	38736	106562	0	0	8153	759615	0	0
2024-05-07 16:56:32			0	33931	0	0	0	18051	16680	152450	27748	964180	38736	106565	0	0	8153	759119	0	0
2024-05-07 16:57:32			0	33952	0	0	0	18062	16680	152510	27324	964338	38747	106569	0	0	8154	758077	0	0
2024-05-07 16:58:32			0	33955	0	0	0	18067	16670	152430	27076	964224	38758	106571	0	0	8154	757969	0	0
2024-05-07 16:59:32			0	33960	0	0	0	18062	16680	152402	27331	964338	38747	106569	0	0	8154	757680	0	0
2024-05-07 17:00:32			0	33956	0	0	0	18075	16670	152386	27228	964251	38747	106574	0	0	8154	757920	0	0
2024-05-07 17:01:32			0	33967	0	0	0	18088	16680	152342	27131	964285	38736	106579	0	0	8154	757333	0	0
2024-05-07 17:02:32			0	33986	0	0	0	18085	16670	152278	27289	964251	38769	106578	0	0	8156	756434	0	0
2024-05-07 17:03:32			0	33983	0	0	0	18093	16690	152278	27088	964302	38737	106581	0	0	8155	756500	0	0
2024-05-07 17:04:32			0	34002	0	0	0	18085	16690	152302	27448	964415	38749	106578	0	0	8157	755560	0	0
2024-05-07 17:05:32			0	34002	0	0	0	18077	16680	152230	27272	964285	38758	106575	0	0	8157	755601	0	0
2024-05-07 17:06:32			0	34012	0	0	0	18072	16690	152226	27111	964363	38749	106573	0	0	8157	755066	0	0
2024-05-07 17:07:32			0	34002	0	0	0	18075	16690	152226	27327	964389	38759	106574	0	0	8157	755560	0	0
2024-05-07 17:08:32			0	34003	0	0	0	18085	16690	152114	27048	964363	38738	106578	0	0	8157	755511	0	0
2024-05-07 17:09:32			0	33993	0	0	0	18093	16690	152178	27128	964363	38749	106581	0	0	8156	756005	0	0
2024-05-07 17:10:32			0	34003	0	0	0	18088	16700	152170	27118	964371	38749	106579	0	0	8157	755470	0	0
2024-05-07 17:11:32			0	34003	0	0	0	18090	16700	152254	27365	964397	38759	106580	0	0	8157	755470	0	0
2024-05-07 17:12:32			0	33995	0	0	0	18085	16700	152218	27277	964371	38749	106578	0	0	8156	755865	0	0
2024-05-07 17:13:32			0	33997	0	0	0	18090	16700	152226	27635	964432	38760	106580	0	0	8156	755766	0	0
2024-05-07 17:14:32			0	33996	0	0	0	18083	16700	152278	27386	964458	38771	106577	0	0	8156	755816	0	0
2024-05-07 17:15:32			0	33982	0	0	0	18088	16700	152262	27585	964406	38750	106579	0	0	8155	756509	0	0
2024-05-07 17:16:32			0	33981	0	0	0	18083	16690	152290	27486	964363	38759	106577	0	0	8155	756599	0	0
2024-05-07 17:17:32			0	33985	0	0	0	18077	16690	152350	27623	964355	38758	106575	0	0	8156	756401	0	0
2024-05-07 17:18:32			0	33961	0	0	0	18080	16700	152238	27436	964379	38760	106576	0	0	8154	757549	0	0
2024-05-07 17:19:32			0	33986	0	0	0	18083	16700	152318	27417	964406	38760	106577	0	0	8156	756311	0	0
2024-05-07 17:20:32			0	33976	0	0	0	18080	16690	152274	27332	964363	38759	106576	0	0	8155	756847	0	0
2024-05-07 17:21:32			0	33981	0	0	0	18080	16690	152330	27149	964389	38770	106576	0	0	8155	756599	0	0
2024-05-07 17:22:32			0	33980	0	0	0	18077	16690	152266	27161	964275	38737	106575	0	0	8155	756649	0	0
2024-05-07 17:23:32			0	33983	0	0	0	18080	16700	152274	27343	964326	38760	106576	0	0	8156	756459	0	0
2024-05-07 17:24:32			0	33961	0	0	0	18080	16690	152278	27305	964363	38738	106576	0	0	8154	757590	0	0
2024-05-07 17:25:32			0	33981	0	0	0	18072	16700	152318	27208	964300	38760	106573	0	0	8156	756558	0	0
2024-05-07 17:26:32			0	33979	0	0	0	18077	16690	152350	27431	964381	38758	106575	0	0	8155	756698	0	0
2024-05-07 17:27:32			0	33975	0	0	0	18080	16700	152286	27433	964371	38738	106576	0	0	8155	756855	0	0
2024-05-07 17:28:32			0	33988	0	0	0	18075	16700	152178	27343	964397	38759	106574	0	0	8156	756212	0	0
2024-05-07 17:29:32			0	33994	0	0	0	18080	16700	152210	27684	964345	38759	106576	0	0	8156	755915	0	0
2024-05-07 17:30:32			0	33985	0	0	0	18077	16690	152282	27227	964363	38749	106575	0	0	8156	756401	0	0
2024-05-07 17:31:32			0	33986	0	0	0	18080	16690	152302	27421	964275	38748	106576	0	0	8156	756352	0	0
2024-05-07 17:32:32			0	33995	0	0	0	18077	16700	152326	27249	964397	38749	106575	0	0	8156	755865	0	0
2024-05-07 17:33:32			0	33978	0	0	0	18077	16690	152258	27725	964328	38737	106575	0	0	8155	756748	0	0
2024-05-07 17:34:32			0	33980	0	0	0	18077	16690	152218	27384	964284	38759	106575	0	0	8155	756649	0	0
2024-05-07 17:35:32			0	34006	0	0	0	18077	16700	152258	27618	964326	38739	106575	0	0	8157	755321	0	0
2024-05-07 17:36:32			0	34002	0	0	0	18072	16700	152294	27005	964371	38749	106573	0	0	8157	755519	0	0
2024-05-07 17:37:32			0	33996	0	0	0	18072	16690	152286	27441	964415	38759	106573	0	0	8156	755857	0	0
2024-05-07 17:38:32			0	33988	0	0	0	18085	16700	152198	27223	964397	38759	106578	0	0	8156	756212	0	0
2024-05-07 17:39:32			0	33992	0	0	0	18080	16690	152226	27374	964415	38749	106576	0	0	8156	756055	0	0
2024-05-07 17:40:32			0	34010	0	0	0	18080	16700	152318	27282	964397	38749	106576	0	0	8157	755124	0	0
2024-05-07 17:41:32			0	33985	0	0	0	18080	16700	152306	27196	964371	38738	106576	0	0	8156	756360	0	0
2024-05-07 17:42:32			0	33981	0	0	0	18077	16700	152274	27208	964397	38749	106575	0	0	8156	756558	0	0
2024-05-07 17:43:32			0	33987	0	0	0	18080	16690	152350	27190	964310	38759	106576	0	0	8156	756302	0	0
2024-05-07 17:44:32			0	33983	0	0	0	18088	16700	152294	27358	964379	38760	106579	0	0	8155	756459	0	0
2024-05-07 17:45:32			0	33977	0	0	0	18085	16690	152218	27455	964415	38759	106578	0	0	8155	756797	0	0
2024-05-07 17:46:32			0	33997	0	0	0	18088	16700	152238	27229	964371	38738	106579	0	0	8156	755766	0	0
2024-05-07 17:47:32			0	33973	0	0	0	18090	16700	152298	27164	964424	38759	106580	0	0	8155	756954	0	0
2024-05-07 17:48:32			0	33978	0	0	0	18083	16690	152366	27227	964363	38759	106577	0	0	8155	756748	0	0
2024-05-07 17:49:32			0	33970	0	0	0	18093	16700	152286	27675	964406	38750	106581	0	0	8155	757103	0	0
2024-05-07 17:50:32			0	33954	0	0	0	18090	16700	152442	27242	964371	38749	106580	0	0	8154	757896	0	0
2024-05-07 17:51:32			0	33950	0	0	0	18093	16700	152382	27036	964371	38770	106581	0	0	8153	758094	0	0
2024-05-07 17:52:32			0	33960	0	0	0	18096	16700	152474	27280	964406	38750	106582	0	0	8154	757598	0	0
2024-05-07 17:53:32			0	33944	0	0	0	18096	16700	152534	27440	964432	38760	106582	0	0	8153	758392	0	0
2024-05-07 17:54:32			0	33942	0	0	0	18096	16690	152462	27196	964363	38759	106582	0	0	8153	758532	0	0
2024-05-07 17:55:32			0	33966	0	0	0	18093	16690	152382	27471	964415	38770	106581	0	0	8154	757342	0	0
2024-05-07 17:56:32			0	33949	0	0	0	18090	16690	152410	27149	964415	38759	106580	0	0	8153	758184	0	0
2024-05-07 17:57:32			0	33945	0	0	0	18101	16700	152406	27272	964397	38749	106584	0	0	8153	758342	0	0
2024-05-07 17:58:32			0	33957	0	0	0	18101	16710	152450	27580	964414	38761	106584	0	0	8154	757706	0	0
2024-05-07 17:59:32			0	33967	0	0	0	18093	16710	152354	27206	964308	38761	106581	0	0	8155	757210	0	0
2024-05-07 18:00:32			0	33959	0	0	0	18093	16710	152362	27190	964396	38761	106581	0	0	8154	757607	0	0
2024-05-07 18:01:32			0	33956	0	0	0	18096	16710	152454	27507	964448	38740	106582	0	0	8154	757755	0	0
2024-05-07 18:02:32			0	33952	0	0	0	18088	16710	152398	27381	964440	38761	106579	0	0	8154	757954	0	0
2024-05-07 18:03:32			0	33969	0	0	0	18098	16700	152274	27050	964406	38760	106583	0	0	8154	757152	0	0
2024-05-07 18:04:32			0	33976	0	0	0	18101	16710	152350	27097	964396	38761	106584	0	0	8155	756765	0	0
2024-05-07 18:05:32			0	33971	0	0	0	18090	16710	152338	27402	964422	38750	106580	0	0	8155	757012	0	0
2024-05-07 18:06:32			0	33979	0	0	0	18088	16710	152378	27114	964387	38750	106579	0	0	8155	756616	0	0
2024-05-07 18:07:32			0	33970	0	0	0	18098	16710	152374	27112	964414	38750	106583	0	0	8155	757062	0	0
2024-05-07 18:08:32			0	33952	0	0	0	18088	16710	152294	27576	964440	38750	106579	0	0	8154	757954	0	0
2024-05-07 18:09:32			0	33979	0	0	0	18096	16710	152318	27426	964448	38761	106582	0	0	8155	756616	0	0
2024-05-07 18:10:32			0	33971	0	0	0	18093	16710	152358	27403	964440	38750	106581	0	0	8155	757012	0	0
2024-05-07 18:11:32			0	33960	0	0	0	18093	16710	152402	27435	964475	38750	106581	0	0	8154	757557	0	0
2024-05-07 18:12:32			0	33967	0	0	0	18090	16710	152406	27255	964440	38761	106580	0	0	8155	757210	0	0
2024-05-07 18:13:32			0	33972	0	0	0	18088	16710	152430	27173	964448	38740	106579	0	0	8155	756963	0	0
2024-05-07 18:14:32			0	33952	0	0	0	18098	16710	152586	27507	964387	38761	106583	0	0	8154	757954	0	0
2024-05-07 18:15:32			0	33933	0	0	0	18098	16720	152518	27149	964404	38761	106583	0	0	8153	758855	0	0
2024-05-07 18:16:32			0	33933	0	0	0	18093	16710	152594	27538	964335	38772	106581	0	0	8153	758896	0	0
2024-05-07 18:17:32			0	33913	0	0	0	18101	16710	152610	27298	964422	38761	106584	0	0	8151	759889	0	0
2024-05-07 18:18:32			0	33907	0	0	0	18101	16710	152586	27265	964466	38761	106584	0	0	8151	760187	0	0
2024-05-07 18:19:32			0	33916	0	0	0	18098	16710	152686	27651	964466	38761	106583	0	0	8151	759740	0	0
2024-05-07 18:20:32			0	33907	0	0	0	18098	16710	152718	27260	964422	38772	106583	0	0	8151	760187	0	0
2024-05-07 18:21:32			0	33906	0	0	0	18101	16710	152702	27471	964475	38761	106584	0	0	8151	760237	0	0
2024-05-07 18:22:32			0	33894	0	0	0	18093	16710	152702	27466	964475	38761	106581	0	0	8150	760833	0	0
2024-05-07 18:23:32			0	33894	0	0	0	18098	16720	152686	27576	964457	38761	106583	0	0	8150	760792	0	0
2024-05-07 18:24:32			0	33894	0	0	0	18101	16710	152714	27265	964440	38761	106584	0	0	8150	760833	0	0
2024-05-07 18:25:32			0	33887	0	0	0	18093	16710	152678	27369	964475	38761	106581	0	0	8150	761181	0	0
2024-05-07 18:26:32			0	33887	0	0	0	18101	16720	152638	27222	964377	38761	106584	0	0	8150	761140	0	0
2024-05-07 18:27:32			0	33883	0	0	0	18101	16710	152686	27199	964475	38772	106584	0	0	8150	761380	0	0
2024-05-07 18:28:32			0	33896	0	0	0	18101	16700	152654	27424	964406	38739	106584	0	0	8150	760775	0	0
2024-05-07 18:29:32			0	33909	0	0	0	18103	16710	152750	27294	964414	38740	106585	0	0	8151	760088	0	0
2024-05-07 18:30:32			0	33896	0	0	0	18096	16720	152650	26981	964457	38761	106582	0	0	8150	760693	0	0
2024-05-07 18:31:32			0	33917	0	0	0	18103	16720	152658	27003	964483	38761	106585	0	0	8151	759649	0	0
2024-05-07 18:32:32			0	33908	0	0	0	18103	16720	152654	27098	964457	38772	106585	0	0	8151	760096	0	0
2024-05-07 18:33:32			0	33913	0	0	0	18090	16710	152630	27312	964475	38761	106580	0	0	8151	759889	0	0
2024-05-07 18:34:32			0	33905	0	0	0	18096	16710	152570	27112	964448	38761	106582	0	0	8151	760287	0	0
2024-05-07 18:35:32			0	33922	0	0	0	18093	16710	152562	27128	964475	38761	106581	0	0	8152	759442	0	0
2024-05-07 18:36:32			0	33933	0	0	0	18093	16700	152654	27182	964450	38759	106581	0	0	8152	758937	0	0
2024-05-07 18:37:32			0	33929	0	0	0	18090	16710	152550	27227	964475	38772	106580	0	0	8152	759095	0	0
2024-05-07 18:38:32			0	33927	0	0	0	18085	16720	152546	27265	964430	38740	106578	0	0	8152	759153	0	0
2024-05-07 18:39:32			0	33934	0	0	0	18085	16710	152510	27386	964387	38750	106578	0	0	8153	758847	0	0
2024-05-07 18:40:32			0	33945	0	0	0	18088	16710	152462	27424	964466	38761	106579	0	0	8153	758301	0	0
2024-05-07 18:41:32			0	33948	0	0	0	18093	16700	152462	26977	964406	38760	106581	0	0	8153	758193	0	0
2024-05-07 18:42:32			0	33936	0	0	0	18090	16710	152542	27443	964440	38772	106580	0	0	8153	758747	0	0
2024-05-07 18:43:32			0	33942	0	0	0	18093	16710	152574	27447	964466	38761	106581	0	0	8153	758450	0	0
2024-05-07 18:44:32			0	33941	0	0	0	18090	16710	152506	27516	964527	38761	106580	0	0	8153	758499	0	0
2024-05-07 18:45:32			0	33946	0	0	0	18090	16710	152518	27183	964466	38761	106580	0	0	8153	758251	0	0
2024-05-07 18:46:32			0	33939	0	0	0	18090	16720	152586	27569	964351	38761	106580	0	0	8153	758557	0	0
2024-05-07 18:47:32			0	33937	0	0	0	18098	16710	152478	27833	964466	38761	106583	0	0	8153	758698	0	0
2024-05-07 18:48:32			0	33925	0	0	0	18096	16710	152598	27417	964466	38750	106582	0	0	8152	759293	0	0
2024-05-07 18:49:32			0	33942	0	0	0	18096	16710	152638	27275	964414	38750	106582	0	0	8153	758450	0	0
2024-05-07 18:50:32			0	33922	0	0	0	18101	16710	152542	27268	964422	38740	106584	0	0	8152	759442	0	0
2024-05-07 18:51:32			0	33925	0	0	0	18106	16720	152586	27383	964536	38761	106586	0	0	8152	759252	0	0
2024-05-07 18:52:32			0	33927	0	0	0	18101	16720	152658	27157	964483	38761	106584	0	0	8152	759153	0	0
2024-05-07 18:53:32			0	33904	0	0	0	18085	16710	152666	27161	964440	38761	106578	0	0	8151	760336	0	0
2024-05-07 18:54:32			0	33919	0	0	0	18098	16730	152710	27352	964447	38763	106583	0	0	8152	759509	0	0
2024-05-07 18:55:32			0	33919	0	0	0	18109	16710	152550	27393	964396	38750	106587	0	0	8151	759591	0	0
2024-05-07 18:56:32			0	33908	0	0	0	18109	16720	152654	27123	964509	38772	106587	0	0	8151	760096	0	0
2024-05-07 18:57:32			0	33936	0	0	0	18109	16720	152482	27242	964457	38761	106587	0	0	8152	758706	0	0
2024-05-07 18:58:32			0	33940	0	0	0	18109	16720	152514	27454	964491	38773	106587	0	0	8153	758508	0	0
2024-05-07 18:59:32			0	33936	0	0	0	18106	16710	152414	27170	964475	38772	106586	0	0	8152	758747	0	0
2024-05-07 19:00:32			0	33966	0	0	0	18096	16720	152474	27464	964536	38761	106582	0	0	8154	757219	0	0
2024-05-07 19:01:32			0	33958	0	0	0	18106	16700	152378	27192	964537	38750	106586	0	0	8154	757697	0	0
2024-05-07 19:02:32			0	33971	0	0	0	18114	16720	152370	27178	964491	38762	106589	0	0	8154	756971	0	0
2024-05-07 19:03:32			0	33963	0	0	0	18109	16720	152326	27069	964465	38762	106587	0	0	8154	757367	0	0
2024-05-07 19:04:32			0	33967	0	0	0	18122	16720	152390	27298	964483	38761	106592	0	0	8154	757169	0	0
2024-05-07 19:05:32			0	33963	0	0	0	18129	16720	152318	27255	964536	38761	106595	0	0	8154	757367	0	0
2024-05-07 19:06:32			0	33971	0	0	0	18132	16730	152382	27203	964499	38763	106596	0	0	8154	756930	0	0
2024-05-07 19:07:32			0	33992	0	0	0	18129	16730	152386	27176	964578	38752	106595	0	0	8155	755891	0	0
2024-05-07 19:08:32			0	33963	0	0	0	18132	16730	152394	27452	964552	38752	106596	0	0	8154	757326	0	0
2024-05-07 19:09:32			0	33971	0	0	0	18129	16730	152398	27300	964508	38752	106595	0	0	8154	756930	0	0
2024-05-07 19:10:32			0	33975	0	0	0	18127	16730	152270	27374	964526	38763	106594	0	0	8154	756732	0	0
2024-05-07 19:11:32			0	33987	0	0	0	18132	16730	152402	27156	964552	38774	106596	0	0	8155	756138	0	0
2024-05-07 19:12:32			0	33968	0	0	0	18132	16740	152338	27435	964595	38774	106596	0	0	8154	757038	0	0
2024-05-07 19:13:32			0	33983	0	0	0	18135	16740	152278	27034	964542	38752	106597	0	0	8155	756295	0	0
2024-05-07 19:14:32			0	33971	0	0	0	18124	16740	152334	27293	964568	38785	106593	0	0	8154	756889	0	0
2024-05-07 19:15:32			0	33988	0	0	0	18137	16730	152306	27336	964508	38763	106598	0	0	8155	756089	0	0
2024-05-07 19:16:32			0	33988	0	0	0	18140	16750	152330	27131	964603	38764	106599	0	0	8155	756007	0	0
2024-05-07 19:17:32			0	33984	0	0	0	18155	16750	152306	27362	964577	38775	106605	0	0	8155	756205	0	0
2024-05-07 19:18:32			0	34002	0	0	0	18148	16740	152350	27393	964621	38763	106602	0	0	8156	755356	0	0
2024-05-07 19:19:32			0	33982	0	0	0	18135	16740	152258	27345	964595	38774	106597	0	0	8155	756345	0	0
2024-05-07 19:20:32			0	33973	0	0	0	18127	16740	152370	27119	964648	38752	106594	0	0	8154	756790	0	0
2024-05-07 19:21:32			0	33949	0	0	0	18129	16750	152402	27230	964577	38775	106595	0	0	8153	757938	0	0
2024-05-07 19:22:32			0	33949	0	0	0	18135	16760	152434	27298	964593	38753	106597	0	0	8153	757897	0	0
2024-05-07 19:23:32			0	33928	0	0	0	18124	16760	152450	27405	964620	38764	106593	0	0	8152	758939	0	0
2024-05-07 19:24:32			0	33932	0	0	0	18129	16750	152474	27338	964603	38752	106595	0	0	8152	758781	0	0
2024-05-07 19:25:32			0	33932	0	0	0	18142	16740	152442	27230	964568	38752	106600	0	0	8152	758822	0	0
2024-05-07 19:26:32			0	33936	0	0	0	18132	16750	152438	27022	964630	38764	106596	0	0	8152	758583	0	0
2024-05-07 19:27:32			0	33946	0	0	0	18129	16760	152422	27374	964654	38765	106595	0	0	8153	758046	0	0
2024-05-07 19:28:32			0	33982	0	0	0	18137	16750	152282	27296	964585	38753	106598	0	0	8155	756304	0	0
2024-05-07 19:29:32			0	33973	0	0	0	18137	16740	152214	27074	964648	38763	106598	0	0	8154	756790	0	0
2024-05-07 19:30:32			0	34000	0	0	0	18140	16750	152182	27069	964630	38764	106599	0	0	8156	755413	0	0
2024-05-07 19:31:32			0	33994	0	0	0	18148	16760	152210	27137	964673	38764	106602	0	0	8155	755669	0	0
2024-05-07 19:32:32			0	33986	0	0	0	18145	16750	152226	27256	964691	38764	106601	0	0	8155	756106	0	0
2024-05-07 19:33:32			0	33984	0	0	0	18161	16750	152166	27244	964664	38776	106607	0	0	8155	756205	0	0
2024-05-07 19:34:32			0	33979	0	0	0	18148	16760	152190	27147	964734	38765	106602	0	0	8155	756411	0	0
2024-05-07 19:35:32			0	33976	0	0	0	18145	16760	152242	27383	964707	38765	106601	0	0	8154	756560	0	0
2024-05-07 19:36:32			0	33959	0	0	0	18135	16760	152102	27282	964673	38776	106597	0	0	8154	757402	0	0
2024-05-07 19:37:32			0	33975	0	0	0	18132	16750	152202	27537	964638	38764	106596	0	0	8155	756650	0	0
2024-05-07 19:38:32			0	33982	0	0	0	18127	16760	152150	27196	964646	38764	106594	0	0	8155	756263	0	0
2024-05-07 19:39:32			0	33967	0	0	0	18122	16750	152226	27481	964585	38776	106592	0	0	8154	757046	0	0
2024-05-07 19:40:32			0	33977	0	0	0	18140	16760	152338	27296	964620	38776	106599	0	0	8155	756510	0	0
2024-05-07 19:41:32			0	33978	0	0	0	18132	16760	152202	27284	964646	38753	106596	0	0	8155	756461	0	0
2024-05-07 19:42:32			0	33986	0	0	0	18132	16750	152154	27343	964612	38764	106596	0	0	8155	756106	0	0
2024-05-07 19:43:32			0	33989	0	0	0	18135	16760	152150	27386	964593	38764	106597	0	0	8155	755917	0	0
2024-05-07 19:44:32			0	34019	0	0	0	18145	16760	152030	27383	964646	38776	106601	0	0	8157	754434	0	0
2024-05-07 19:45:32			0	34062	0	0	0	18145	16750	151930	27346	964585	38776	106601	0	0	8159	752353	0	0
2024-05-07 19:46:32			0	34093	0	0	0	18129	16760	151734	27206	964725	38776	106595	0	0	8161	750786	0	0
2024-05-07 19:47:32			0	34114	0	0	0	18132	16760	151538	27287	964620	38753	106596	0	0	8163	749753	0	0
2024-05-07 19:48:32			0	34178	0	0	0	18127	16760	151394	27305	964620	38753	106594	0	0	8166	746613	0	0
2024-05-07 19:49:32			0	34203	0	0	0	18140	16750	151126	27312	964577	38775	106599	0	0	8168	745430	0	0
2024-05-07 19:50:32			0	34251	0	0	0	18124	16750	150930	27305	964612	38753	106593	0	0	8171	743084	0	0
2024-05-07 19:51:32			0	34271	0	0	0	18119	16750	150886	27390	964612	38776	106591	0	0	8172	742108	0	0
2024-05-07 19:52:32			0	34311	0	0	0	18127	16740	150786	27027	964568	38774	106594	0	0	8174	740200	0	0
2024-05-07 19:53:32			0	34338	0	0	0	18116	16750	150766	27618	964664	38776	106590	0	0	8176	738847	0	0
2024-05-07 19:54:32			0	34315	0	0	0	18114	16750	150594	27130	964638	38764	106589	0	0	8174	739966	0	0
2024-05-07 19:55:32			0	34339	0	0	0	18119	16750	150650	27398	964585	38776	106591	0	0	8176	738799	0	0
2024-05-07 19:56:32			0	34333	0	0	0	18116	16740	150730	27213	964568	38774	106590	0	0	8175	739130	0	0
2024-05-07 19:57:32			0	34330	0	0	0	18116	16740	150762	27235	964568	38774	106590	0	0	8175	739276	0	0
2024-05-07 19:58:32			0	34342	0	0	0	18109	16750	150634	27796	964577	38775	106587	0	0	8176	738653	0	0
2024-05-07 19:59:32			0	34351	0	0	0	18114	16730	150558	27350	964534	38752	106589	0	0	8176	738296	0	0
2024-05-07 20:00:32			0	34368	0	0	0	18103	16730	150587	27315	964587	38763	106585	0	0	8178	737471	0	0
2024-05-07 20:01:32			0	34379	0	0	0	18103	16740	150439	27474	964542	38752	106585	0	0	8178	736897	0	0
2024-05-07 20:02:32			0	34391	0	0	0	18093	16740	150403	27268	964489	38763	106581	0	0	8179	736316	0	0
2024-05-07 20:03:32			0	34429	0	0	0	18085	16730	150319	27666	964499	38763	106578	0	0	8181	734516	0	0
2024-05-07 20:04:32			0	34469	0	0	0	18093	16730	150271	27594	964499	38763	106581	0	0	8183	732583	0	0
2024-05-07 20:05:32			0	34482	0	0	0	18080	16720	150107	27111	964518	38762	106576	0	0	8184	731995	0	0
2024-05-07 20:06:32			0	34512	0	0	0	18072	16720	149955	27268	964491	38762	106573	0	0	8186	730549	0	0
2024-05-07 20:07:32			0	34531	0	0	0	18075	16720	149867	27450	964491	38762	106574	0	0	8187	729635	0	0
2024-05-07 20:08:32			0	34561	0	0	0	18064	16710	149683	27279	964475	38750	106570	0	0	8189	728231	0	0
2024-05-07 20:09:32			0	34603	0	0	0	18067	16720	149595	27393	964430	38772	106571	0	0	8191	726176	0	0
2024-05-07 20:10:32			0	34599	0	0	0	18062	16710	149583	26994	964448	38772	106569	0	0	8191	726407	0	0
2024-05-07 20:11:32			0	34595	0	0	0	18059	16710	149559	27076	964440	38772	106568	0	0	8191	726599	0	0
2024-05-07 20:12:32			0	34590	0	0	0	18051	16710	149599	27280	964396	38761	106565	0	0	8191	726839	0	0
2024-05-07 20:13:32			0	34582	0	0	0	18059	16710	149615	27185	964475	38761	106568	0	0	8190	727223	0	0
2024-05-07 20:14:32			0	34575	0	0	0	18049	16700	149715	26885	964353	38760	106564	0	0	8190	727598	0	0
2024-05-07 20:15:32			0	34544	0	0	0	18049	16700	149739	27249	964371	38749	106564	0	0	8188	729088	0	0
2024-05-07 20:16:32			0	34507	0	0	0	18036	16700	149883	27327	964371	38749	106559	0	0	8186	730869	0	0
2024-05-07 20:17:32			0	34505	0	0	0	18031	16700	149831	27410	964345	38759	106557	0	0	8186	730966	0	0
2024-05-07 20:18:32			0	34461	0	0	0	18033	16690	150183	27187	964284	38759	106558	0	0	8184	733128	0	0
2024-05-07 20:19:32			0	34438	0	0	0	18025	16680	150339	27036	964259	38747	106555	0	0	8183	734279	0	0
2024-05-07 20:20:32			0	34401	0	0	0	18028	16680	150435	27334	964259	38747	106556	0	0	8180	736070	0	0
2024-05-07 20:21:32			0	34368	0	0	0	18028	16680	150579	27119	964267	38758	106556	0	0	8179	737671	0	0
2024-05-07 20:22:32			0	34340	0	0	0	18018	16660	150810	26925	964181	38757	106552	0	0	8177	739110	0	0
2024-05-07 20:23:32			0	34305	0	0	0	18025	16660	150862	27410	964155	38747	106555	0	0	8175	740813	0	0
2024-05-07 20:24:32			0	34275	0	0	0	18033	16670	150946	27416	964242	38757	106558	0	0	8173	742235	0	0
2024-05-07 20:25:32			0	34252	0	0	0	18031	16660	150990	27201	964173	38756	106557	0	0	8172	743398	0	0
2024-05-07 20:26:32			0	34260	0	0	0	18031	16670	151182	27041	964198	38747	106557	0	0	8172	742967	0	0
2024-05-07 20:27:32			0	34234	0	0	0	18023	16660	151242	27114	964129	38747	106554	0	0	8171	744277	0	0
2024-05-07 20:28:32			0	34220	0	0	0	18028	16650	151226	27159	964165	38755	106556	0	0	8170	745001	0	0
2024-05-07 20:29:32			0	34198	0	0	0	18023	16660	151306	27019	964226	38756	106554	0	0	8169	746038	0	0
2024-05-07 20:30:32			0	34193	0	0	0	18025	16650	151358	26955	964191	38745	106555	0	0	8168	746323	0	0
2024-05-07 20:31:32			0	34205	0	0	0	18020	16650	151238	27232	964112	38755	106553	0	0	8169	745735	0	0
2024-05-07 20:32:32			0	34194	0	0	0	18028	16660	151242	27085	964147	38746	106556	0	0	8168	746234	0	0
2024-05-07 20:33:32			0	34164	0	0	0	18025	16660	151410	27277	964129	38757	106555	0	0	8167	747704	0	0
2024-05-07 20:34:32			0	34204	0	0	0	18023	16650	151302	27298	964191	38766	106554	0	0	8169	745784	0	0
2024-05-07 20:35:32			0	34192	0	0	0	18028	16650	151422	27112	964157	38745	106556	0	0	8168	746372	0	0
2024-05-07 20:36:32			0	34177	0	0	0	18028	16650	151446	27124	964209	38755	106556	0	0	8167	747107	0	0
2024-05-07 20:37:32			0	34181	0	0	0	18023	16650	151426	27196	964139	38755	106554	0	0	8168	746911	0	0
2024-05-07 20:38:32			0	34187	0	0	0	18025	16650	151370	27213	964236	38755	106555	0	0	8168	746617	0	0
2024-05-07 20:39:32			0	34154	0	0	0	18028	16650	151462	27275	964157	38755	106556	0	0	8166	748235	0	0
2024-05-07 20:40:32			0	34155	0	0	0	18038	16650	151430	27277	964315	38745	106560	0	0	8166	748186	0	0
2024-05-07 20:41:32			0	34169	0	0	0	18025	16650	151442	27338	964165	38745	106555	0	0	8167	747499	0	0
2024-05-07 20:42:32			0	34160	0	0	0	18020	16650	151486	27187	964218	38755	106553	0	0	8167	747941	0	0
2024-05-07 20:43:32			0	34137	0	0	0	18025	16650	151614	27235	964165	38745	106555	0	0	8165	749070	0	0
2024-05-07 20:44:32			0	34131	0	0	0	18023	16650	151534	27480	964112	38755	106554	0	0	8165	749364	0	0
2024-05-07 20:45:32			0	34129	0	0	0	18031	16640	151726	27474	964148	38754	106557	0	0	8165	749503	0	0
2024-05-07 20:46:32			0	34131	0	0	0	18025	16650	151642	27339	964183	38745	106555	0	0	8165	749364	0	0
2024-05-07 20:47:32			0	34097	0	0	0	18033	16640	151714	27284	964140	38754	106558	0	0	8163	751077	0	0
2024-05-07 20:48:32			0	34096	0	0	0	18023	16650	151794	27455	964130	38755	106554	0	0	8163	751086	0	0
2024-05-07 20:49:32			0	34087	0	0	0	18031	16640	151830	27180	964175	38754	106557	0	0	8162	751569	0	0
2024-05-07 20:50:32			0	34077	0	0	0	18023	16640	151806	27168	964140	38744	106554	0	0	8162	752062	0	0
2024-05-07 20:51:32			0	34078	0	0	0	18018	16630	151914	27346	964132	38764	106552	0	0	8162	752053	0	0
2024-05-07 20:52:32			0	34056	0	0	0	18025	16640	151970	27300	964167	38754	106555	0	0	8160	753097	0	0
2024-05-07 20:53:32			0	34043	0	0	0	18015	16640	151958	26847	964201	38744	106551	0	0	8160	753739	0	0
2024-05-07 20:54:32			0	34041	0	0	0	18025	16640	152022	27225	964201	38754	106555	0	0	8160	753837	0	0
2024-05-07 20:55:32			0	34043	0	0	0	18012	16650	152046	26897	964183	38766	106550	0	0	8160	753698	0	0
2024-05-07 20:56:32			0	34040	0	0	0	18018	16650	151946	27502	964157	38755	106552	0	0	8160	753846	0	0
2024-05-07 20:57:32			0	34049	0	0	0	18020	16630	152042	27263	964132	38753	106553	0	0	8160	753483	0	0
2024-05-07 20:58:32			0	34057	0	0	0	18023	16630	152010	27239	964185	38753	106554	0	0	8161	753089	0	0
2024-05-07 20:59:32			0	34037	0	0	0	18028	16640	151946	27249	964148	38754	106556	0	0	8159	754035	0	0
2024-05-07 21:00:32			0	34048	0	0	0	18025	16650	151882	27315	964157	38766	106555	0	0	8160	753451	0	0
2024-05-07 21:01:32			0	34047	0	0	0	18025	16640	151878	27474	964148	38765	106555	0	0	8160	753541	0	0
2024-05-07 21:02:32			0	34046	0	0	0	18023	16640	151950	27581	964140	38765	106554	0	0	8160	753591	0	0
2024-05-07 21:03:32			0	34045	0	0	0	18020	16640	151974	27213	964140	38754	106553	0	0	8160	753640	0	0
2024-05-07 21:04:32			0	34054	0	0	0	18023	16630	151974	27535	964150	38753	106554	0	0	8160	753237	0	0
2024-05-07 21:05:32			0	34057	0	0	0	18015	16640	151998	27235	964140	38754	106551	0	0	8161	753048	0	0
2024-05-07 21:06:32			0	34063	0	0	0	18020	16640	151922	27161	964114	38754	106553	0	0	8161	752752	0	0
2024-05-07 21:07:32			0	34069	0	0	0	18018	16650	151822	27086	964183	38745	106552	0	0	8161	752416	0	0
2024-05-07 21:08:32			0	34079	0	0	0	18018	16640	151910	27116	964167	38744	106552	0	0	8162	751964	0	0
2024-05-07 21:09:32			0	34055	0	0	0	18015	16630	151830	27173	964158	38753	106551	0	0	8161	753187	0	0
2024-05-07 21:10:32			0	34068	0	0	0	18015	16640	151802	27298	964228	38754	106551	0	0	8161	752506	0	0
2024-05-07 21:11:32			0	34095	0	0	0	18005	16630	151774	27253	964132	38743	106547	0	0	8163	751216	0	0
2024-05-07 21:12:32			0	34102	0	0	0	18015	16640	151758	27393	964167	38765	106551	0	0	8163	750831	0	0
2024-05-07 21:13:32			0	34105	0	0	0	18020	16630	151798	27647	964098	38753	106553	0	0	8163	750724	0	0
2024-05-07 21:14:32			0	34101	0	0	0	18007	16630	151734	27606	964132	38753	106548	0	0	8163	750921	0	0
2024-05-07 21:15:32			0	34112	0	0	0	18015	16630	151730	27613	964124	38764	106551	0	0	8164	750380	0	0
2024-05-07 21:16:32			0	34105	0	0	0	18012	16640	151698	27530	964148	38754	106550	0	0	8164	750683	0	0
2024-05-07 21:17:32			0	34123	0	0	0	18015	16630	151730	27452	964106	38764	106551	0	0	8164	749839	0	0
2024-05-07 21:18:32			0	34102	0	0	0	18018	16630	151726	27182	964150	38753	106552	0	0	8163	750872	0	0
2024-05-07 21:19:32			0	34137	0	0	0	18012	16630	151790	27206	964132	38764	106550	0	0	8165	749151	0	0
2024-05-07 21:20:32			0	34118	0	0	0	18012	16630	151662	27053	964132	38753	106550	0	0	8164	750085	0	0
2024-05-07 21:21:32			0	34114	0	0	0	18010	16640	151734	27431	964088	38754	106549	0	0	8164	750241	0	0
2024-05-07 21:22:32			0	34103	0	0	0	18005	16630	151702	27395	964098	38743	106547	0	0	8163	750822	0	0
2024-05-07 21:23:32			0	34106	0	0	0	18005	16630	151670	27556	964124	38753	106547	0	0	8164	750675	0	0
2024-05-07 21:24:32			0	34107	0	0	0	18005	16630	151686	27424	964045	38743	106547	0	0	8164	750626	0	0
2024-05-07 21:25:32			0	34110	0	0	0	18002	16620	151690	27178	964116	38764	106546	0	0	8164	750519	0	0
2024-05-07 21:26:32			0	34107	0	0	0	18002	16620	151722	27024	964081	38752	106546	0	0	8164	750666	0	0
2024-05-07 21:27:32			0	34120	0	0	0	18002	16630	151714	27178	964098	38743	106546	0	0	8165	749986	0	0
2024-05-07 21:28:32			0	34097	0	0	0	17999	16630	151754	27371	964158	38753	106545	0	0	8163	751118	0	0
2024-05-07 21:29:32			0	34099	0	0	0	17999	16620	151742	27524	964054	38742	106545	0	0	8163	751060	0	0
2024-05-07 21:30:32			0	34115	0	0	0	18005	16620	151754	27345	964028	38742	106547	0	0	8164	750273	0	0
2024-05-07 21:31:32			0	34106	0	0	0	17999	16630	151862	27298	964098	38753	106545	0	0	8164	750675	0	0
2024-05-07 21:32:32			0	34091	0	0	0	18005	16620	151758	27005	964028	38775	106547	0	0	8163	751454	0	0
2024-05-07 21:33:32			0	34095	0	0	0	18002	16620	151710	27597	964037	38742	106546	0	0	8163	751257	0	0
2024-05-07 21:34:32			0	34091	0	0	0	17994	16620	151750	27131	964054	38752	106543	0	0	8163	751454	0	0
2024-05-07 21:35:32			0	34091	0	0	0	17999	16620	151746	27438	964116	38752	106545	0	0	8163	751454	0	0
2024-05-07 21:36:32			0	34103	0	0	0	17989	16620	151738	27371	964037	38742	106541	0	0	8164	750863	0	0
2024-05-07 21:37:32			0	34099	0	0	0	17984	16620	151626	27360	964054	38764	106539	0	0	8164	751060	0	0
2024-05-07 21:38:32			0	34113	0	0	0	17986	16610	151746	27485	963993	38752	106540	0	0	8164	750412	0	0
2024-05-07 21:39:32			0	34119	0	0	0	17986	16610	151794	27319	964038	38741	106540	0	0	8165	750117	0	0
2024-05-07 21:40:32			0	34122	0	0	0	17979	16620	151734	27436	964054	38764	106537	0	0	8165	749928	0	0
2024-05-07 21:41:32			0	34107	0	0	0	17971	16610	151774	27223	964020	38752	106534	0	0	8164	750707	0	0
2024-05-07 21:42:32			0	34118	0	0	0	17979	16620	151794	27265	964054	38752	106537	0	0	8165	750125	0	0
2024-05-07 21:43:32			0	34130	0	0	0	17971	16600	151694	27538	964003	38741	106534	0	0	8165	749616	0	0
2024-05-07 21:44:32			0	34117	0	0	0	17971	16600	151734	27183	963977	38741	106534	0	0	8165	750255	0	0
2024-05-07 21:45:32			0	34113	0	0	0	17971	16600	151758	27249	963942	38751	106534	0	0	8165	750452	0	0
2024-05-07 21:46:32			0	34125	0	0	0	17976	16600	151630	27336	964022	38751	106536	0	0	8165	749862	0	0
2024-05-07 21:47:32			0	34122	0	0	0	17968	16600	151706	27400	963969	38751	106533	0	0	8165	750010	0	0
2024-05-07 21:48:32			0	34130	0	0	0	17963	16600	151674	27654	963942	38751	106531	0	0	8166	749616	0	0
2024-05-07 21:49:32			0	34125	0	0	0	17974	16600	151598	27331	963969	38751	106535	0	0	8165	749862	0	0
2024-05-07 21:50:32			0	34141	0	0	0	17971	16610	151622	27192	964012	38741	106534	0	0	8166	749035	0	0
2024-05-07 21:51:32			0	34135	0	0	0	17958	16600	151522	27514	963942	38762	106529	0	0	8166	749371	0	0
2024-05-07 21:52:32			0	34133	0	0	0	17968	16590	151434	27396	963952	38750	106533	0	0	8166	749509	0	0
2024-05-07 21:53:32			0	34141	0	0	0	17961	16590	151542	27071	963987	38761	106530	0	0	8166	749117	0	0
2024-05-07 21:54:32			0	34150	0	0	0	17963	16600	151542	27279	963995	38741	106531	0	0	8167	748634	0	0
2024-05-07 21:55:32			0	34160	0	0	0	17963	16590	151470	27246	963926	38740	106531	0	0	8167	748184	0	0
2024-05-07 21:56:32			0	34156	0	0	0	17963	16600	151490	27118	963969	38751	106531	0	0	8167	748339	0	0
2024-05-07 21:57:32			0	34163	0	0	0	17966	16580	151490	27121	963971	38760	106532	0	0	8167	748077	0	0
2024-05-07 21:58:32			0	34148	0	0	0	17955	16590	151478	27329	964005	38750	106528	0	0	8167	748773	0	0
2024-05-07 21:59:32			0	34154	0	0	0	17950	16590	151490	27222	963881	38750	106526	0	0	8167	748478	0	0
2024-05-07 22:00:32			0	34144	0	0	0	17955	16590	151530	27150	963952	38750	106528	0	0	8167	748969	0	0
2024-05-07 22:01:32			0	34156	0	0	0	17953	16590	151486	27281	963952	38750	106527	0	0	8167	748380	0	0
2024-05-07 22:02:32			0	34135	0	0	0	17955	16580	151514	27218	963944	38750	106528	0	0	8166	749452	0	0
2024-05-07 22:03:32			0	34151	0	0	0	17950	16590	151506	27440	963952	38750	106526	0	0	8167	748625	0	0
2024-05-07 22:04:32			0	34128	0	0	0	17948	16570	151566	27371	963875	38749	106525	0	0	8166	749837	0	0
2024-05-07 22:05:32			0	34131	0	0	0	17950	16580	151598	27208	963891	38739	106526	0	0	8166	749648	0	0
2024-05-07 22:06:32			0	34139	0	0	0	17945	16580	151546	27128	963891	38760	106524	0	0	8166	749255	0	0
2024-05-07 22:07:32			0	34142	0	0	0	17948	16580	151554	27654	963910	38738	106525	0	0	8166	749108	0	0
2024-05-07 22:08:32			0	34148	0	0	0	17948	16560	151566	27360	963903	38747	106525	0	0	8167	748894	0	0
2024-05-07 22:09:32			0	34130	0	0	0	17942	16580	151510	27336	963918	38750	106523	0	0	8166	749697	0	0
2024-05-07 22:10:32			0	34146	0	0	0	17937	16580	151562	27272	963883	38749	106521	0	0	8167	748911	0	0
2024-05-07 22:11:32			0	34137	0	0	0	17940	16570	151498	27192	963893	38749	106522	0	0	8166	749394	0	0
2024-05-07 22:12:32			0	34143	0	0	0	17937	16580	151526	26956	963883	38759	106521	0	0	8167	749059	0	0
2024-05-07 22:13:32			0	34143	0	0	0	17940	16580	151482	27199	963936	38749	106522	0	0	8167	749059	0	0
2024-05-07 22:14:32			0	34167	0	0	0	17945	16560	151490	27291	963885	38737	106524	0	0	8168	747961	0	0
2024-05-07 22:15:32			0	34166	0	0	0	17940	16560	151406	27471	963859	38748	106522	0	0	8168	748011	0	0
2024-05-07 22:16:32			0	34200	0	0	0	17932	16560	151406	27374	963877	38747	106519	0	0	8170	746344	0	0
2024-05-07 22:17:32			0	34203	0	0	0	17935	16560	151314	27576	963850	38747	106520	0	0	8170	746197	0	0
2024-05-07 22:18:32			0	34204	0	0	0	17942	16560	151234	27346	963832	38737	106523	0	0	8170	746148	0	0
2024-05-07 22:19:32			0	34213	0	0	0	17948	16560	151202	27197	963850	38747	106525	0	0	8170	745707	0	0
2024-05-07 22:20:32			0	34213	0	0	0	17937	16560	151182	27545	963850	38747	106521	0	0	8171	745707	0	0
2024-05-07 22:21:32			0	34227	0	0	0	17935	16560	151086	27350	963832	38758	106520	0	0	8171	745022	0	0
2024-05-07 22:22:32			0	34250	0	0	0	17935	16560	151122	27223	963911	38748	106520	0	0	8173	743898	0	0
2024-05-07 22:23:32			0	34258	0	0	0	17937	16560	150970	27206	963877	38736	106521	0	0	8173	743507	0	0
2024-05-07 22:24:32			0	34247	0	0	0	17927	16550	151086	27255	963808	38747	106517	0	0	8173	744084	0	0
2024-05-07 22:25:32			0	34246	0	0	0	17924	16560	151062	27537	963850	38747	106516	0	0	8173	744093	0	0
2024-05-07 22:26:32			0	34268	0	0	0	17924	16550	151078	27666	963860	38747	106516	0	0	8174	743059	0	0
2024-05-07 22:27:32			0	34262	0	0	0	17935	16550	151014	27725	963790	38758	106520	0	0	8173	743352	0	0
2024-05-07 22:28:32			0	34260	0	0	0	17932	16550	151030	27232	963816	38747	106519	0	0	8173	743450	0	0
2024-05-07 22:29:32			0	34275	0	0	0	17932	16550	150854	27611	963869	38747	106519	0	0	8174	742717	0	0
2024-05-07 22:30:32			0	34281	0	0	0	17935	16550	150946	27362	963842	38747	106520	0	0	8175	742425	0	0
2024-05-07 22:31:32			0	34271	0	0	0	17932	16560	150914	27357	963850	38747	106519	0	0	8174	742872	0	0
2024-05-07 22:32:32			0	34275	0	0	0	17937	16560	150922	27164	963850	38747	106521	0	0	8174	742677	0	0
2024-05-07 22:33:32			0	34283	0	0	0	17924	16550	150974	27092	963834	38757	106516	0	0	8175	742327	0	0
2024-05-07 22:34:32			0	34279	0	0	0	17929	16560	150954	27435	963850	38736	106518	0	0	8175	742482	0	0
2024-05-07 22:35:32			0	34272	0	0	0	17927	16540	150930	27429	963826	38735	106517	0	0	8174	742904	0	0
2024-05-07 22:36:32			0	34256	0	0	0	17932	16550	151022	27460	963790	38747	106519	0	0	8173	743645	0	0
2024-05-07 22:37:32			0	34269	0	0	0	17924	16540	150950	27509	963800	38747	106516	0	0	8174	743050	0	0
2024-05-07 22:38:32			0	34253	0	0	0	17932	16540	150894	27343	963773	38747	106519	0	0	8173	743832	0	0
2024-05-07 22:39:32			0	34270	0	0	0	17924	16550	150994	27229	963842	38736	106516	0	0	8174	742961	0	0
2024-05-07 22:40:32			0	34255	0	0	0	17924	16550	151058	27362	963834	38747	106516	0	0	8173	743694	0	0
2024-05-07 22:41:32			0	34244	0	0	0	17927	16550	151174	27286	963860	38735	106517	0	0	8173	744231	0	0
2024-05-07 22:42:32			0	34237	0	0	0	17922	16550	151050	27137	963755	38747	106515	0	0	8172	744573	0	0
2024-05-07 22:43:32			0	34218	0	0	0	17922	16540	151086	27441	963765	38756	106515	0	0	8171	745543	0	0
2024-05-07 22:44:32			0	34223	0	0	0	17927	16540	151150	27327	963765	38746	106517	0	0	8171	745298	0	0
2024-05-07 22:45:32			0	34222	0	0	0	17924	16540	151162	27384	963712	38735	106516	0	0	8171	745347	0	0
2024-05-07 22:46:32			0	34215	0	0	0	17922	16550	151134	27312	963808	38735	106515	0	0	8171	745650	0	0
2024-05-07 22:47:32			0	34201	0	0	0	17922	16540	151142	27258	963800	38747	106515	0	0	8170	746375	0	0
2024-05-07 22:48:32			0	34210	0	0	0	17919	16550	151174	27199	963808	38735	106514	0	0	8171	745894	0	0
2024-05-07 22:49:32			0	34209	0	0	0	17924	16530	151186	27528	963809	38735	106516	0	0	8170	746024	0	0
2024-05-07 22:50:32			0	34200	0	0	0	17919	16540	151174	27131	963826	38747	106514	0	0	8170	746424	0	0
2024-05-07 22:51:32			0	34208	0	0	0	17924	16530	151186	27390	963757	38746	106516	0	0	8170	746073	0	0
2024-05-07 22:52:32			0	34216	0	0	0	17914	16540	151170	27185	963773	38735	106512	0	0	8171	745641	0	0
2024-05-07 22:53:32			0	34204	0	0	0	17919	16540	151214	27535	963826	38747	106514	0	0	8170	746229	0	0
2024-05-07 22:54:32			0	34214	0	0	0	17919	16540	151290	27289	963844	38735	106514	0	0	8171	745739	0	0
2024-05-07 22:55:32			0	34180	0	0	0	17927	16540	151222	27133	963800	38757	106517	0	0	8169	747405	0	0
2024-05-07 22:56:32			0	34200	0	0	0	17919	16540	151254	27194	963852	38747	106514	0	0	8170	746424	0	0
2024-05-07 22:57:32			0	34200	0	0	0	17919	16540	151266	27111	963800	38747	106514	0	0	8170	746424	0	0
2024-05-07 22:58:32			0	34188	0	0	0	17922	16540	151238	27462	963826	38747	106515	0	0	8169	747013	0	0
2024-05-07 22:59:32			0	34198	0	0	0	17922	16530	151258	27105	963783	38746	106515	0	0	8170	746563	0	0
2024-05-07 23:00:32			0	34204	0	0	0	17919	16530	151278	27454	963801	38745	106514	0	0	8170	746269	0	0
2024-05-07 23:01:32			0	34207	0	0	0	17922	16530	151154	27197	963783	38746	106515	0	0	8170	746122	0	0
2024-05-07 23:02:32			0	34195	0	0	0	17914	16530	151218	27280	963775	38745	106512	0	0	8170	746710	0	0
2024-05-07 23:03:32			0	34194	0	0	0	17909	16540	151262	26961	963791	38746	106510	0	0	8170	746718	0	0
2024-05-07 23:04:32			0	34195	0	0	0	17916	16530	151246	27524	963730	38756	106513	0	0	8170	746710	0	0
2024-05-07 23:05:32			0	34214	0	0	0	17916	16530	151234	27144	963722	38745	106513	0	0	8171	745779	0	0
2024-05-07 23:06:32			0	34187	0	0	0	17916	16520	151322	27000	963819	38745	106513	0	0	8169	747142	0	0
2024-05-07 23:07:32			0	34202	0	0	0	17911	16530	151174	27057	963783	38735	106511	0	0	8170	746367	0	0
2024-05-07 23:08:32			0	34208	0	0	0	17911	16540	151234	27381	963739	38735	106511	0	0	8171	746033	0	0
2024-05-07 23:09:32			0	34215	0	0	0	17914	16530	151162	27254	963783	38746	106512	0	0	8171	745730	0	0
2024-05-07 23:10:32			0	34218	0	0	0	17909	16520	151202	27317	963793	38745	106510	0	0	8171	745624	0	0
2024-05-07 23:11:32			0	34213	0	0	0	17911	16540	151178	27211	963826	38747	106511	0	0	8171	745788	0	0
2024-05-07 23:12:32			0	34217	0	0	0	17916	16530	151146	27575	963757	38746	106513	0	0	8171	745632	0	0
2024-05-07 23:13:32			0	34234	0	0	0	17906	16520	151186	27416	963767	38745	106509	0	0	8172	744841	0	0
2024-05-07 23:14:32			0	34225	0	0	0	17914	16530	151122	27538	963783	38746	106512	0	0	8172	745241	0	0
2024-05-07 23:15:32			0	34229	0	0	0	17914	16540	151194	27255	963765	38735	106512	0	0	8172	745005	0	0
2024-05-07 23:16:32			0	34235	0	0	0	17914	16530	151182	27150	963809	38735	106512	0	0	8172	744752	0	0
2024-05-07 23:17:32			0	34229	0	0	0	17916	16540	151078	27241	963765	38756	106513	0	0	8172	745005	0	0
2024-05-07 23:18:32			0	34235	0	0	0	17903	16530	151030	27455	963783	38756	106508	0	0	8172	744752	0	0
2024-05-07 23:19:32			0	34245	0	0	0	17919	16530	151082	27305	963749	38755	106514	0	0	8173	744263	0	0
2024-05-07 23:20:32			0	34248	0	0	0	17914	16530	151098	27540	963828	38745	106512	0	0	8173	744116	0	0
2024-05-07 23:21:32			0	34234	0	0	0	17914	16530	151062	27237	963757	38756	106512	0	0	8172	744801	0	0
2024-05-07 23:22:32			0	34247	0	0	0	17911	16520	151066	27190	963758	38744	106511	0	0	8173	744205	0	0
2024-05-07 23:23:32			0	34239	0	0	0	17906	16530	151062	27175	963775	38734	106509	0	0	8173	744556	0	0
2024-05-07 23:24:32			0	34257	0	0	0	17914	16530	150934	26996	963704	38746	106512	0	0	8173	743676	0	0
2024-05-07 23:25:32			0	34255	0	0	0	17911	16530	150942	27019	963696	38755	106511	0	0	8173	743774	0	0
2024-05-07 23:26:32			0	34261	0	0	0	17911	16520	150814	27791	963819	38745	106511	0	0	8174	743521	0	0
2024-05-07 23:27:32			0	34280	0	0	0	17901	16520	150906	27388	963758	38744	106507	0	0	8175	742594	0	0
2024-05-07 23:28:32			0	34283	0	0	0	17903	16520	150902	27383	963714	38745	106508	0	0	8175	742447	0	0
2024-05-07 23:29:32			0	34268	0	0	0	17909	16530	150902	27379	963775	38745	106510	0	0	8174	743139	0	0
2024-05-07 23:30:32			0	34278	0	0	0	17898	16520	150890	26958	963758	38744	106506	0	0	8175	742691	0	0
2024-05-07 23:31:32			0	34296	0	0	0	17911	16530	150858	27336	963730	38756	106511	0	0	8176	741773	0	0
2024-05-07 23:32:32			0	34288	0	0	0	17911	16530	150810	27267	963801	38745	106511	0	0	8175	742163	0	0
2024-05-07 23:33:32			0	34287	0	0	0	17906	16520	150838	27222	963767	38734	106509	0	0	8175	742252	0	0
2024-05-07 23:34:32			0	34295	0	0	0	17916	16520	150794	27372	963793	38745	106513	0	0	8176	741862	0	0
2024-05-07 23:35:32			0	34300	0	0	0	17911	16530	150750	27150	963801	38755	106511	0	0	8176	741578	0	0
2024-05-07 23:36:32			0	34282	0	0	0	17911	16530	150814	27164	963730	38735	106511	0	0	8175	742456	0	0
2024-05-07 23:37:32			0	34312	0	0	0	17906	16520	150870	27350	963661	38734	106509	0	0	8177	741034	0	0
2024-05-07 23:38:32			0	34310	0	0	0	17903	16520	150758	27225	963767	38745	106508	0	0	8177	741131	0	0
2024-05-07 23:39:32			0	34310	0	0	0	17906	16520	150850	27326	963811	38744	106509	0	0	8177	741131	0	0
2024-05-07 23:40:32			0	34315	0	0	0	17901	16530	150706	27067	963775	38755	106507	0	0	8177	740848	0	0
2024-05-07 23:41:32			0	34311	0	0	0	17909	16530	150690	27128	963775	38755	106510	0	0	8177	741042	0	0
2024-05-07 23:42:32			0	34316	0	0	0	17909	16520	150730	27138	963732	38754	106510	0	0	8177	740839	0	0
2024-05-07 23:43:32			0	34310	0	0	0	17903	16520	150782	27414	963688	38745	106508	0	0	8177	741131	0	0
2024-05-07 23:44:32			0	34320	0	0	0	17914	16510	150790	27360	963671	38743	106512	0	0	8177	740684	0	0
2024-05-07 23:45:32			0	34337	0	0	0	17896	16520	150698	27400	963767	38734	106505	0	0	8178	739816	0	0
2024-05-07 23:46:32			0	34324	0	0	0	17901	16520	150674	27429	963732	38744	106507	0	0	8177	740449	0	0
2024-05-07 23:47:32			0	34322	0	0	0	17909	16520	150642	26850	963732	38744	106510	0	0	8177	740547	0	0
2024-05-07 23:48:32			0	34313	0	0	0	17901	16520	150710	27147	963706	38754	106507	0	0	8177	740985	0	0
2024-05-07 23:49:32			0	34334	0	0	0	17898	16520	150646	27203	963732	38744	106506	0	0	8178	739963	0	0
2024-05-07 23:50:32			0	34325	0	0	0	17901	16520	150634	27244	963661	38745	106507	0	0	8177	740401	0	0
2024-05-07 23:51:32			0	34342	0	0	0	17901	16520	150630	27256	963785	38744	106507	0	0	8178	739573	0	0
2024-05-07 23:52:32			0	34327	0	0	0	17901	16520	150606	27218	963758	38744	106507	0	0	8178	740303	0	0
2024-05-07 23:53:32			0	34325	0	0	0	17890	16520	150582	27327	963706	38744	106503	0	0	8178	740401	0	0
2024-05-07 23:54:32			0	34336	0	0	0	17903	16520	150702	26937	963714	38745	106508	0	0	8178	739865	0	0
2024-05-07 23:55:32			0	34345	0	0	0	17906	16520	150542	27303	963688	38755	106509	0	0	8179	739427	0	0
2024-05-07 23:56:32			0	34337	0	0	0	17896	16510	150550	27486	963671	38743	106505	0	0	8178	739856	0	0
2024-05-07 23:57:32			0	34316	0	0	0	17898	16520	150586	27358	963635	38755	106506	0	0	8177	740839	0	0
2024-05-07 23:58:32			0	34361	0	0	0	17898	16510	150571	27332	963777	38743	106506	0	0	8180	738690	0	0
2024-05-07 23:59:32			0	34376	0	0	0	17898	16520	150615	27206	963688	38755	106506	0	0	8180	737921	0	0
2024-05-08 00:00:32			0	34363	0	0	0	17901	16510	150583	26984	963610	38753	106507	0	0	8180	738592	0	0
2024-05-08 00:01:32			0	34351	0	0	0	17896	16510	150451	27218	963724	38732	106505	0	0	8179	739176	0	0
2024-05-08 00:02:32			0	34382	0	0	0	17903	16520	150611	27015	963688	38745	106508	0	0	8181	737630	0	0
2024-05-08 00:03:32			0	34377	0	0	0	17896	16530	150511	26975	963749	38755	106505	0	0	8181	737833	0	0
2024-05-08 00:04:32			0	34364	0	0	0	17901	16520	150507	27222	963679	38754	106507	0	0	8180	738504	0	0
2024-05-08 00:05:32			0	34365	0	0	0	17898	16520	150491	27528	963732	38744	106506	0	0	8180	738455	0	0
2024-05-08 00:06:32			0	34376	0	0	0	17898	16520	150407	27345	963732	38754	106506	0	0	8180	737921	0	0
2024-05-08 00:07:32			0	34357	0	0	0	17901	16520	150503	27107	963767	38745	106507	0	0	8179	738844	0	0
2024-05-08 00:08:32			0	34371	0	0	0	17901	16520	150487	27263	963758	38744	106507	0	0	8180	738164	0	0
2024-05-08 00:09:32			0	34391	0	0	0	17890	16510	150407	27372	963724	38743	106503	0	0	8181	737233	0	0
2024-05-08 00:10:32			0	34387	0	0	0	17898	16510	150391	27235	963716	38743	106506	0	0	8181	737427	0	0
2024-05-08 00:11:32			0	34391	0	0	0	17896	16510	150463	27293	963663	38753	106505	0	0	8181	737233	0	0
2024-05-08 00:12:32			0	34397	0	0	0	17903	16510	150367	27319	963777	38753	106508	0	0	8182	736942	0	0
2024-05-08 00:13:32			0	34396	0	0	0	17898	16510	150311	27192	963637	38743	106506	0	0	8182	736990	0	0
2024-05-08 00:14:32			0	34408	0	0	0	17901	16520	150435	27357	963688	38755	106507	0	0	8182	736369	0	0
2024-05-08 00:15:32			0	34385	0	0	0	17903	16520	150423	27640	963732	38744	106508	0	0	8181	737484	0	0
2024-05-08 00:16:32			0	34406	0	0	0	17896	16530	150407	27133	963722	38755	106505	0	0	8182	736426	0	0
2024-05-08 00:17:32			0	34397	0	0	0	17903	16510	150307	27379	963637	38753	106508	0	0	8182	736942	0	0
2024-05-08 00:18:32			0	34390	0	0	0	17903	16500	150327	27043	963708	38753	106508	0	0	8181	737321	0	0
2024-05-08 00:19:32			0	34398	0	0	0	17896	16510	150371	27692	963724	38743	106505	0	0	8182	736893	0	0
2024-05-08 00:20:32			0	34403	0	0	0	17893	16510	150299	27078	963777	38732	106504	0	0	8182	736651	0	0
2024-05-08 00:21:32			0	34394	0	0	0	17893	16510	150251	27178	963724	38732	106504	0	0	8182	737087	0	0
2024-05-08 00:22:32			0	34408	0	0	0	17893	16510	150243	27301	963777	38743	106504	0	0	8182	736408	0	0
2024-05-08 00:23:32			0	34413	0	0	0	17896	16510	150323	27521	963768	38753	106505	0	0	8183	736166	0	0
2024-05-08 00:24:32			0	34408	0	0	0	17896	16520	150267	27576	963706	38744	106505	0	0	8182	736369	0	0
2024-05-08 00:25:32			0	34391	0	0	0	17896	16510	150299	27180	963671	38732	106505	0	0	8181	737233	0	0
2024-05-08 00:26:32			0	34418	0	0	0	17893	16510	150339	27320	963663	38753	106504	0	0	8183	735924	0	0
2024-05-08 00:27:32			0	34395	0	0	0	17893	16500	150319	27613	963602	38743	106504	0	0	8182	737079	0	0
2024-05-08 00:28:32			0	34404	0	0	0	17888	16510	150231	27687	963742	38753	106502	0	0	8182	736602	0	0
2024-05-08 00:29:32			0	34407	0	0	0	17893	16510	150267	27436	963645	38743	106504	0	0	8182	736457	0	0
2024-05-08 00:30:32			0	34399	0	0	0	17893	16510	150371	27682	963742	38743	106504	0	0	8182	736845	0	0
2024-05-08 00:31:32			0	34391	0	0	0	17896	16510	150319	27251	963610	38743	106505	0	0	8181	737233	0	0
2024-05-08 00:32:32			0	34401	0	0	0	17890	16510	150303	27294	963610	38753	106503	0	0	8182	736748	0	0
2024-05-08 00:33:32			0	34400	0	0	0	17893	16510	150199	27412	963689	38753	106504	0	0	8182	736796	0	0
2024-05-08 00:34:32			0	34400	0	0	0	17888	16510	150287	27431	963716	38753	106502	0	0	8182	736796	0	0
2024-05-08 00:35:32			0	34412	0	0	0	17893	16510	150143	27578	963689	38743	106504	0	0	8183	736215	0	0
2024-05-08 00:36:32			0	34416	0	0	0	17893	16510	150243	27242	963663	38743	106504	0	0	8183	736021	0	0
2024-05-08 00:37:32			0	34414	0	0	0	17888	16500	150207	27339	963602	38732	106502	0	0	8183	736157	0	0
2024-05-08 00:38:32			0	34425	0	0	0	17888	16510	150251	27405	963663	38753	106502	0	0	8183	735585	0	0
2024-05-08 00:39:32			0	34415	0	0	0	17888	16510	150235	27183	963716	38753	106502	0	0	8183	736069	0	0
2024-05-08 00:40:32			0	34410	0	0	0	17890	16500	150239	27606	963681	38753	106503	0	0	8182	736351	0	0
2024-05-08 00:41:32			0	34411	0	0	0	17888	16500	150279	27324	963699	38752	106502	0	0	8183	736303	0	0
2024-05-08 00:42:32			0	34410	0	0	0	17890	16500	150183	27440	963647	38742	106503	0	0	8182	736351	0	0
2024-05-08 00:43:32			0	34417	0	0	0	17893	16500	150123	27469	963734	38743	106504	0	0	8183	736012	0	0
2024-05-08 00:44:32			0	34412	0	0	0	17885	16500	150259	27518	963708	38743	106501	0	0	8183	736254	0	0
2024-05-08 00:45:32			0	34413	0	0	0	17888	16510	150131	27537	963768	38743	106502	0	0	8183	736166	0	0
2024-05-08 00:46:32			0	34420	0	0	0	17890	16510	150103	27479	963663	38753	106503	0	0	8183	735827	0	0
2024-05-08 00:47:32			0	34408	0	0	0	17883	16500	150163	27514	963681	38753	106500	0	0	8182	736448	0	0
2024-05-08 00:48:32			0	34431	0	0	0	17898	16500	150123	27248	963673	38752	106506	0	0	8184	735334	0	0
2024-05-08 00:49:32			0	34434	0	0	0	17880	16500	150131	27365	963655	38743	106499	0	0	8184	735189	0	0
2024-05-08 00:50:32			0	34435	0	0	0	17888	16510	150055	27173	963716	38743	106502	0	0	8184	735100	0	0
2024-05-08 00:51:32			0	34445	0	0	0	17885	16520	150099	27170	963653	38754	106501	0	0	8185	734577	0	0
2024-05-08 00:52:32			0	34427	0	0	0	17885	16510	150091	27374	963637	38743	106501	0	0	8184	735488	0	0
2024-05-08 00:53:32			0	34430	0	0	0	17888	16490	150099	27490	963691	38741	106502	0	0	8184	735422	0	0
2024-05-08 00:54:32			0	34445	0	0	0	17888	16510	150135	27159	963716	38732	106502	0	0	8185	734617	0	0
2024-05-08 00:55:32			0	34440	0	0	0	17888	16510	150079	27398	963716	38753	106502	0	0	8184	734858	0	0
2024-05-08 00:56:32			0	34423	0	0	0	17890	16500	150111	27350	963708	38743	106503	0	0	8183	735721	0	0
2024-05-08 00:57:32			0	34429	0	0	0	17890	16500	149991	27371	963699	38742	106503	0	0	8184	735431	0	0
2024-05-08 00:58:32			0	34431	0	0	0	17885	16500	150155	27433	963655	38753	106501	0	0	8184	735334	0	0
2024-05-08 00:59:32			0	34429	0	0	0	17885	16500	150151	27414	963655	38764	106501	0	0	8184	735431	0	0
2024-05-08 01:00:32			0	34437	0	0	0	17883	16510	150103	27277	963716	38743	106500	0	0	8184	735004	0	0
2024-05-08 01:01:32			0	34411	0	0	0	17885	16500	150139	27229	963681	38743	106501	0	0	8183	736303	0	0
2024-05-08 01:02:32			0	34409	0	0	0	17890	16500	150047	27291	963655	38743	106503	0	0	8182	736400	0	0
2024-05-08 01:03:32			0	34388	0	0	0	17880	16500	150127	27549	963647	38764	106499	0	0	8181	737418	0	0
2024-05-08 01:04:32			0	34405	0	0	0	17883	16500	150183	27140	963708	38753	106500	0	0	8182	736594	0	0
2024-05-08 01:05:32			0	34412	0	0	0	17890	16490	150271	27098	963638	38752	106503	0	0	8183	736294	0	0
2024-05-08 01:06:32			0	34381	0	0	0	17888	16500	150295	27545	963673	38742	106502	0	0	8181	737758	0	0
2024-05-08 01:07:32			0	34379	0	0	0	17888	16490	150399	27680	963770	38752	106502	0	0	8181	737895	0	0
2024-05-08 01:08:32			0	34371	0	0	0	17885	16500	150463	27391	963699	38752	106501	0	0	8180	738244	0	0
2024-05-08 01:09:32			0	34347	0	0	0	17893	16500	150327	27611	963647	38752	106504	0	0	8179	739410	0	0
2024-05-08 01:10:32			0	34358	0	0	0	17877	16500	150351	27783	963620	38752	106498	0	0	8180	738875	0	0
2024-05-08 01:11:32			0	34315	0	0	0	17890	16500	150550	27336	963726	38752	106503	0	0	8177	740968	0	0
2024-05-08 01:12:32			0	34335	0	0	0	17883	16500	150538	27460	963655	38753	106500	0	0	8178	739994	0	0
2024-05-08 01:13:32			0	34319	0	0	0	17883	16500	150570	27215	963681	38743	106500	0	0	8177	740773	0	0
2024-05-08 01:14:32			0	34304	0	0	0	17885	16500	150650	27163	963602	38753	106501	0	0	8176	741504	0	0
2024-05-08 01:15:32			0	34291	0	0	0	17877	16500	150590	27533	963681	38753	106498	0	0	8176	742137	0	0
2024-05-08 01:16:32			0	34270	0	0	0	17883	16490	150650	27381	963664	38741	106500	0	0	8175	743202	0	0
2024-05-08 01:17:32			0	34266	0	0	0	17880	16500	150714	27293	963699	38742	106499	0	0	8174	743358	0	0
2024-05-08 01:18:32			0	34260	0	0	0	17885	16500	150854	27393	963673	38752	106501	0	0	8174	743651	0	0
2024-05-08 01:19:32			0	34253	0	0	0	17885	16500	150834	27415	963602	38743	106501	0	0	8174	743993	0	0
2024-05-08 01:20:32			0	34242	0	0	0	17877	16500	150886	27379	963594	38742	106498	0	0	8173	744530	0	0
2024-05-08 01:21:32			0	34204	0	0	0	17883	16500	150910	27059	963673	38742	106500	0	0	8171	746390	0	0
2024-05-08 01:22:32			0	34201	0	0	0	17877	16500	151034	27216	963647	38752	106498	0	0	8171	746537	0	0
2024-05-08 01:23:32			0	34187	0	0	0	17872	16490	151130	27422	963638	38763	106496	0	0	8170	747264	0	0
2024-05-08 01:24:32			0	34185	0	0	0	17883	16490	151230	27374	963630	38741	106500	0	0	8170	747362	0	0
2024-05-08 01:25:32			0	34154	0	0	0	17883	16490	151158	27743	963664	38752	106500	0	0	8168	748883	0	0
2024-05-08 01:26:32			0	34150	0	0	0	17883	16500	151242	27459	963602	38743	106500	0	0	8168	749039	0	0
2024-05-08 01:27:32			0	34123	0	0	0	17867	16490	151290	27218	963585	38752	106494	0	0	8166	750407	0	0
2024-05-08 01:28:32			0	34121	0	0	0	17875	16490	151542	27230	963638	38752	106497	0	0	8166	750505	0	0
2024-05-08 01:29:32			0	34095	0	0	0	17885	16500	151438	27239	963594	38752	106501	0	0	8164	751745	0	0
2024-05-08 01:30:32			0	34073	0	0	0	17880	16490	151566	27287	963577	38752	106499	0	0	8163	752870	0	0
2024-05-08 01:31:32			0	34052	0	0	0	17880	16500	151538	27422	963647	38752	106499	0	0	8162	753866	0	0
2024-05-08 01:32:32			0	34055	0	0	0	17877	16490	151614	27469	963683	38763	106498	0	0	8162	753758	0	0
2024-05-08 01:33:32			0	34046	0	0	0	17877	16510	151746	27291	963637	38743	106498	0	0	8162	754121	0	0
2024-05-08 01:34:32			0	34030	0	0	0	17880	16490	151758	27229	963664	38752	106499	0	0	8161	754993	0	0
2024-05-08 01:35:32			0	33992	0	0	0	17875	16490	151850	27133	963585	38752	106497	0	0	8159	756873	0	0
2024-05-08 01:36:32			0	34020	0	0	0	17880	16500	151938	27026	963681	38743	106499	0	0	8160	755447	0	0
2024-05-08 01:37:32			0	33983	0	0	0	17883	16500	152002	27277	963699	38752	106500	0	0	8158	757278	0	0
2024-05-08 01:38:32			0	33966	0	0	0	17885	16490	152050	27230	963603	38741	106501	0	0	8157	758162	0	0
2024-05-08 01:39:32			0	33964	0	0	0	17885	16490	152162	27367	963630	38752	106501	0	0	8157	758261	0	0
2024-05-08 01:40:32			0	33958	0	0	0	17877	16500	152138	27364	963620	38742	106498	0	0	8157	758518	0	0
2024-05-08 01:41:32			0	33961	0	0	0	17877	16480	152150	27190	963648	38752	106498	0	0	8157	758451	0	0
2024-05-08 01:42:32			0	33940	0	0	0	17885	16500	152162	27379	963699	38742	106501	0	0	8155	759411	0	0
2024-05-08 01:43:32			0	33921	0	0	0	17883	16490	152198	27095	963664	38741	106500	0	0	8154	760397	0	0
2024-05-08 01:44:32			0	33912	0	0	0	17877	16500	152302	26965	963673	38775	106498	0	0	8154	760803	0	0
2024-05-08 01:45:32			0	33907	0	0	0	17888	16490	152226	27390	963683	38752	106502	0	0	8153	761093	0	0
2024-05-08 01:46:32			0	33898	0	0	0	17877	16490	152370	27840	963603	38763	106498	0	0	8153	761541	0	0
2024-05-08 01:47:32			0	33896	0	0	0	17880	16500	152430	27218	963699	38752	106499	0	0	8153	761599	0	0
2024-05-08 01:48:32			0	33875	0	0	0	17877	16490	152498	27140	963603	38752	106498	0	0	8152	762686	0	0
2024-05-08 01:49:32			0	33858	0	0	0	17885	16500	152362	27493	963594	38752	106501	0	0	8151	763492	0	0
2024-05-08 01:50:32			0	33865	0	0	0	17885	16490	152442	27521	963656	38752	106501	0	0	8151	763184	0	0
2024-05-08 01:51:32			0	33869	0	0	0	17883	16500	152486	27433	963620	38742	106500	0	0	8151	762944	0	0
2024-05-08 01:52:32			0	33862	0	0	0	17872	16490	152566	27396	963612	38763	106496	0	0	8151	763334	0	0
2024-05-08 01:53:32			0	33857	0	0	0	17870	16490	152558	27348	963656	38752	106495	0	0	8151	763584	0	0
2024-05-08 01:54:32			0	33852	0	0	0	17862	16490	152634	27197	963585	38752	106492	0	0	8151	763833	0	0
2024-05-08 01:55:32			0	33835	0	0	0	17872	16490	152590	27353	963630	38763	106496	0	0	8150	764682	0	0
2024-05-08 01:56:32			0	33836	0	0	0	17875	16490	152606	27383	963638	38752	106497	0	0	8150	764632	0	0
2024-05-08 01:57:32			0	33831	0	0	0	17877	16480	152642	27371	963595	38752	106498	0	0	8149	764923	0	0
2024-05-08 01:58:32			0	33823	0	0	0	17872	16490	152702	27076	963585	38741	106496	0	0	8149	765281	0	0
2024-05-08 01:59:32			0	33800	0	0	0	17872	16490	152778	27357	963638	38741	106496	0	0	8147	766431	0	0
2024-05-08 02:00:32			0	33791	0	0	0	17877	16490	152842	27428	963585	38752	106498	0	0	8147	766881	0	0
2024-05-08 02:01:32			0	33765	0	0	0	17883	16490	152898	27157	963691	38752	106500	0	0	8145	768183	0	0
2024-05-08 02:02:32			0	33767	0	0	0	17877	16480	152970	27246	963693	38751	106498	0	0	8145	768125	0	0
2024-05-08 02:03:32			0	33765	0	0	0	17875	16490	152966	27046	963656	38763	106497	0	0	8145	768183	0	0
2024-05-08 02:04:32			0	33751	0	0	0	17872	16490	153078	27010	963612	38752	106496	0	0	8145	768885	0	0
2024-05-08 02:05:32			0	33745	0	0	0	17877	16490	153002	27235	963603	38763	106498	0	0	8144	769186	0	0
2024-05-08 02:06:32			0	33735	0	0	0	17862	16480	153066	27338	963587	38741	106492	0	0	8144	769730	0	0
2024-05-08 02:07:32			0	33713	0	0	0	17875	16480	153142	27199	963648	38752	106497	0	0	8142	770835	0	0
2024-05-08 02:08:32			0	33710	0	0	0	17872	16480	153170	27320	963666	38741	106496	0	0	8142	770986	0	0
2024-05-08 02:09:32			0	33705	0	0	0	17877	16480	153266	27336	963595	38752	106498	0	0	8142	771237	0	0
2024-05-08 02:10:32			0	33689	0	0	0	17872	16490	153266	27097	963709	38752	106496	0	0	8141	772000	0	0
2024-05-08 02:11:32			0	33685	0	0	0	17872	16490	153274	27178	963683	38752	106496	0	0	8141	772201	0	0
2024-05-08 02:12:32			0	33670	0	0	0	17875	16490	153270	27282	963656	38741	106497	0	0	8140	772957	0	0
2024-05-08 02:13:32			0	33673	0	0	0	17870	16490	153322	27310	963630	38741	106495	0	0	8140	772805	0	0
2024-05-08 02:14:32			0	33670	0	0	0	17872	16490	153410	27159	963577	38763	106496	0	0	8140	772957	0	0
2024-05-08 02:15:32			0	33654	0	0	0	17862	16490	153422	27319	963691	38741	106492	0	0	8139	773763	0	0
2024-05-08 02:16:32			0	33654	0	0	0	17864	16490	153462	27107	963656	38741	106493	0	0	8139	773763	0	0
2024-05-08 02:17:32			0	33651	0	0	0	17867	16490	153482	27263	963656	38752	106494	0	0	8139	773914	0	0
2024-05-08 02:18:32			0	33633	0	0	0	17867	16490	153582	27554	963603	38752	106494	0	0	8138	774822	0	0
2024-05-08 02:19:32			0	33631	0	0	0	17862	16490	153678	27405	963630	38752	106492	0	0	8138	774923	0	0
2024-05-08 02:20:32			0	33618	0	0	0	17870	16480	153590	27104	963674	38763	106495	0	0	8137	775621	0	0
2024-05-08 02:21:32			0	33612	0	0	0	17872	16480	153594	27459	963622	38752	106496	0	0	8136	775924	0	0
2024-05-08 02:22:32			0	33615	0	0	0	17864	16490	153618	27327	963577	38752	106493	0	0	8137	775731	0	0
2024-05-08 02:23:32			0	33610	0	0	0	17872	16480	153694	27357	963701	38752	106496	0	0	8136	776025	0	0
2024-05-08 02:24:32			0	33586	0	0	0	17859	16490	153750	27133	963630	38752	106491	0	0	8135	777197	0	0
2024-05-08 02:25:32			0	33600	0	0	0	17867	16470	153778	27376	963579	38750	106494	0	0	8136	776573	0	0
2024-05-08 02:26:32			0	33605	0	0	0	17867	16480	153726	27339	963569	38763	106494	0	0	8136	776278	0	0
2024-05-08 02:27:32			0	33587	0	0	0	17862	16480	153734	27450	963648	38752	106492	0	0	8135	777188	0	0
2024-05-08 02:28:32			0	33563	0	0	0	17864	16480	153801	27431	963622	38741	106493	0	0	8134	778403	0	0
2024-05-08 02:29:32			0	33567	0	0	0	17864	16480	153845	27481	963561	38751	106493	0	0	8134	778200	0	0
2024-05-08 02:30:32			0	33565	0	0	0	17864	16480	153841	27289	963648	38752	106493	0	0	8134	778302	0	0
2024-05-08 02:31:32			0	33567	0	0	0	17872	16490	153977	27360	963603	38741	106496	0	0	8134	778158	0	0
2024-05-08 02:32:32			0	33543	0	0	0	17859	16480	153921	27119	963595	38752	106491	0	0	8133	779417	0	0
2024-05-08 02:33:32			0	33550	0	0	0	17859	16480	154001	27081	963648	38752	106491	0	0	8133	779062	0	0
2024-05-08 02:34:32			0	33534	0	0	0	17857	16480	154029	27166	963613	38751	106490	0	0	8132	779873	0	0
2024-05-08 02:35:32			0	33522	0	0	0	17857	16480	153973	27067	963648	38741	106490	0	0	8131	780482	0	0
2024-05-08 02:36:32			0	33525	0	0	0	17857	16480	154181	27220	963622	38752	106490	0	0	8132	780330	0	0
2024-05-08 02:37:32			0	33519	0	0	0	17864	16480	154217	27268	963613	38762	106493	0	0	8131	780634	0	0
2024-05-08 02:38:32			0	33496	0	0	0	17864	16480	154129	27107	963587	38741	106493	0	0	8130	781803	0	0
2024-05-08 02:39:32			0	33498	0	0	0	17864	16470	154237	27131	963553	38750	106493	0	0	8130	781743	0	0
2024-05-08 02:40:32			0	33493	0	0	0	17870	16480	154205	26928	963648	38752	106495	0	0	8129	781955	0	0
2024-05-08 02:41:32			0	33488	0	0	0	17859	16470	154317	26991	963579	38761	106491	0	0	8129	782252	0	0
2024-05-08 02:42:32			0	33488	0	0	0	17870	16480	154301	27301	963640	38741	106495	0	0	8129	782210	0	0
2024-05-08 02:43:32			0	33477	0	0	0	17867	16480	154405	27072	963640	38751	106494	0	0	8129	782769	0	0
2024-05-08 02:44:32			0	33458	0	0	0	17867	16470	154469	27454	963605	38750	106494	0	0	8127	783779	0	0
2024-05-08 02:45:32			0	33457	0	0	0	17862	16480	154533	27229	963640	38751	106492	0	0	8127	783787	0	0
2024-05-08 02:46:32			0	33435	0	0	0	17864	16480	154513	27447	963666	38751	106493	0	0	8126	784909	0	0
2024-05-08 02:47:32			0	33434	0	0	0	17862	16480	154353	27277	963587	38762	106492	0	0	8126	784960	0	0
2024-05-08 02:48:32			0	33415	0	0	0	17859	16480	154537	27313	963666	38741	106491	0	0	8125	785929	0	0
2024-05-08 02:49:32			0	33436	0	0	0	17862	16480	154577	27251	963640	38741	106492	0	0	8126	784858	0	0
2024-05-08 02:50:32			0	33426	0	0	0	17870	16480	154613	26975	963587	38751	106495	0	0	8125	785368	0	0
2024-05-08 02:51:32			0	33407	0	0	0	17872	16480	154589	27450	963613	38762	106496	0	0	8124	786338	0	0
2024-05-08 02:52:32			0	33402	0	0	0	17867	16480	154641	27185	963561	38751	106494	0	0	8124	786593	0	0
2024-05-08 02:53:32			0	33395	0	0	0	17857	16490	154621	27505	963603	38752	106490	0	0	8124	786908	0	0
2024-05-08 02:54:32			0	33412	0	0	0	17864	16480	154829	27208	963674	38774	106493	0	0	8125	786082	0	0
2024-05-08 02:55:32			0	33395	0	0	0	17857	16490	154617	27255	963551	38730	106490	0	0	8124	786908	0	0
2024-05-08 02:56:32			0	33387	0	0	0	17851	16470	154673	27488	963571	38750	106488	0	0	8123	787402	0	0
2024-05-08 02:57:32			0	33389	0	0	0	17859	16480	154813	27483	963534	38751	106491	0	0	8123	787257	0	0
2024-05-08 02:58:32			0	33393	0	0	0	17859	16480	154777	27561	963595	38752	106491	0	0	8124	787053	0	0
2024-05-08 02:59:32			0	33401	0	0	0	17862	16480	154765	27433	963613	38751	106492	0	0	8124	786644	0	0
2024-05-08 03:00:32			0	33364	0	0	0	17862	16470	154785	27365	963579	38750	106492	0	0	8122	788579	0	0
2024-05-08 03:01:32			0	33372	0	0	0	17864	16480	154893	27364	963569	38741	106493	0	0	8122	788127	0	0
2024-05-08 03:02:32			0	33367	0	0	0	17857	16480	154745	27286	963561	38741	106490	0	0	8122	788383	0	0
2024-05-08 03:03:32			0	33373	0	0	0	17857	16480	154773	27396	963587	38751	106490	0	0	8122	788076	0	0
2024-05-08 03:04:32			0	33374	0	0	0	17862	16480	154805	27216	963561	38762	106492	0	0	8122	788024	0	0
2024-05-08 03:05:32			0	33380	0	0	0	17859	16480	154801	27088	963569	38752	106491	0	0	8123	787717	0	0
2024-05-08 03:06:32			0	33374	0	0	0	17862	16470	154893	27170	963605	38750	106492	0	0	8122	788067	0	0
2024-05-08 03:07:32			0	33368	0	0	0	17859	16470	154789	27225	963623	38740	106491	0	0	8122	788374	0	0
2024-05-08 03:08:32			0	33371	0	0	0	17857	16470	154765	27239	963650	38740	106490	0	0	8122	788221	0	0
2024-05-08 03:09:32			0	33369	0	0	0	17859	16470	154849	27277	963553	38750	106491	0	0	8122	788323	0	0
2024-05-08 03:10:32			0	33371	0	0	0	17862	16480	154793	27371	963587	38751	106492	0	0	8122	788178	0	0
2024-05-08 03:11:32			0	33389	0	0	0	17862	16470	154869	27376	963605	38750	106492	0	0	8123	787300	0	0
2024-05-08 03:12:32			0	33397	0	0	0	17864	16480	154725	27563	963613	38751	106493	0	0	8124	786849	0	0
2024-05-08 03:13:32			0	33384	0	0	0	17862	16470	154645	27149	963597	38750	106492	0	0	8123	787556	0	0
2024-05-08 03:14:32			0	33384	0	0	0	17854	16480	154689	27784	963561	38751	106489	0	0	8123	787513	0	0
2024-05-08 03:15:32			0	33391	0	0	0	17854	16470	154685	27524	963579	38761	106489	0	0	8124	787198	0	0
2024-05-08 03:16:32			0	33397	0	0	0	17857	16470	154805	27339	963605	38750	106490	0	0	8124	786891	0	0
2024-05-08 03:17:32			0	33378	0	0	0	17864	16470	154705	27379	963579	38750	106493	0	0	8123	787863	0	0
2024-05-08 03:18:32			0	33416	0	0	0	17862	16470	154725	27131	963571	38750	106492	0	0	8125	785921	0	0
2024-05-08 03:19:32			0	33411	0	0	0	17859	16470	154793	27272	963597	38750	106491	0	0	8125	786176	0	0
2024-05-08 03:20:32			0	33394	0	0	0	17844	16480	154709	27265	963640	38762	106485	0	0	8124	787002	0	0
2024-05-08 03:21:32			0	33401	0	0	0	17849	16480	154705	27587	963569	38763	106487	0	0	8124	786644	0	0
2024-05-08 03:22:32			0	33401	0	0	0	17849	16470	154753	27296	963632	38750	106487	0	0	8124	786687	0	0
2024-05-08 03:23:32			0	33411	0	0	0	17849	16470	154633	27327	963553	38750	106487	0	0	8125	786176	0	0
2024-05-08 03:24:32			0	33421	0	0	0	17846	16470	154549	27464	963526	38761	106486	0	0	8125	785665	0	0
2024-05-08 03:25:32			0	33421	0	0	0	17851	16470	154525	27601	963544	38761	106488	0	0	8125	785665	0	0
2024-05-08 03:26:32			0	33431	0	0	0	17851	16470	154593	27170	963650	38750	106488	0	0	8126	785155	0	0
2024-05-08 03:27:32			0	33429	0	0	0	17846	16470	154661	27441	963526	38750	106486	0	0	8126	785257	0	0
2024-05-08 03:28:32			0	33412	0	0	0	17851	16460	154645	27445	963563	38750	106488	0	0	8125	786167	0	0
2024-05-08 03:29:32			0	33421	0	0	0	17849	16470	154573	27343	963518	38750	106487	0	0	8125	785665	0	0
2024-05-08 03:30:32			0	33429	0	0	0	17849	16470	154549	27358	963571	38750	106487	0	0	8126	785257	0	0
2024-05-08 03:31:32			0	33422	0	0	0	17849	16460	154545	27192	963536	38760	106487	0	0	8125	785657	0	0
2024-05-08 03:32:32			0	33430	0	0	0	17854	16480	154509	27175	963595	38752	106489	0	0	8126	785164	0	0
2024-05-08 03:33:32			0	33448	0	0	0	17846	16450	154441	27267	963493	38759	106486	0	0	8127	784373	0	0
2024-05-08 03:34:32			0	33449	0	0	0	17851	16470	154533	27218	963518	38761	106488	0	0	8127	784237	0	0
2024-05-08 03:35:32			0	33428	0	0	0	17846	16460	154525	27199	963536	38739	106486	0	0	8126	785351	0	0
2024-05-08 03:36:32			0	33435	0	0	0	17846	16460	154405	27414	963510	38739	106486	0	0	8126	784994	0	0
2024-05-08 03:37:32			0	33440	0	0	0	17857	16470	154437	27464	963544	38750	106490	0	0	8126	784696	0	0
2024-05-08 03:38:32			0	33431	0	0	0	17838	16450	154529	27280	963581	38750	106483	0	0	8126	785240	0	0
2024-05-08 03:39:32			0	33441	0	0	0	17846	16460	154533	27637	963510	38771	106486	0	0	8127	784688	0	0
2024-05-08 03:40:32			0	33443	0	0	0	17846	16450	154553	27407	963528	38750	106486	0	0	8127	784628	0	0
2024-05-08 03:41:32			0	33419	0	0	0	17838	16460	154517	27357	963510	38750	106483	0	0	8125	785810	0	0
2024-05-08 03:42:32			0	33437	0	0	0	17836	16470	154537	27504	963571	38750	106482	0	0	8127	784849	0	0
2024-05-08 03:43:32			0	33427	0	0	0	17836	16440	154549	27412	963485	38748	106482	0	0	8126	785487	0	0
2024-05-08 03:44:32			0	33424	0	0	0	17844	16450	154545	27258	963502	38750	106485	0	0	8126	785597	0	0
2024-05-08 03:45:32			0	33421	0	0	0	17841	16470	154625	27498	963500	38750	106484	0	0	8126	785665	0	0
2024-05-08 03:46:32			0	33428	0	0	0	17838	16450	154617	27338	963520	38759	106483	0	0	8126	785393	0	0
2024-05-08 03:47:32			0	33408	0	0	0	17833	16460	154733	27331	963510	38750	106481	0	0	8125	786372	0	0
2024-05-08 03:48:32			0	33400	0	0	0	17836	16450	154681	27611	963493	38749	106482	0	0	8124	786823	0	0
2024-05-08 03:49:32			0	33388	0	0	0	17828	16450	154829	27062	963493	38749	106479	0	0	8124	787436	0	0
2024-05-08 03:50:32			0	33360	0	0	0	17831	16450	154861	27530	963449	38739	106480	0	0	8122	788869	0	0
2024-05-08 03:51:32			0	33357	0	0	0	17825	16440	154885	27462	963459	38758	106478	0	0	8122	789065	0	0
2024-05-08 03:52:32			0	33352	0	0	0	17823	16440	154933	27614	963485	38737	106477	0	0	8122	789321	0	0
2024-05-08 03:53:32			0	33335	0	0	0	17833	16440	154949	27613	963512	38726	106481	0	0	8120	790193	0	0
2024-05-08 03:54:32			0	33345	0	0	0	17833	16450	154969	27322	963528	38760	106481	0	0	8121	789637	0	0
2024-05-08 03:55:32			0	33338	0	0	0	17833	16460	154985	27403	963483	38750	106481	0	0	8121	789954	0	0
2024-05-08 03:56:32			0	33308	0	0	0	17838	16440	155077	27357	963512	38748	106483	0	0	8119	791578	0	0
2024-05-08 03:57:32			0	33308	0	0	0	17833	16440	155149	27490	963432	38748	106481	0	0	8119	791578	0	0
2024-05-08 03:58:32			0	33308	0	0	0	17825	16440	155197	27377	963459	38748	106478	0	0	8119	791578	0	0
2024-05-08 03:59:32			0	33296	0	0	0	17831	16450	155257	27516	963467	38759	106480	0	0	8118	792152	0	0
2024-05-08 04:00:32			0	33292	0	0	0	17833	16440	155301	27396	963485	38748	106481	0	0	8118	792400	0	0
2024-05-08 04:01:32			0	33300	0	0	0	17828	16440	155333	27459	963432	38748	106479	0	0	8118	791989	0	0
2024-05-08 04:02:32			0	33292	0	0	0	17825	16440	155349	27485	963485	38748	106478	0	0	8118	792400	0	0
2024-05-08 04:03:32			0	33276	0	0	0	17820	16430	155421	27395	963522	38748	106476	0	0	8117	793266	0	0
2024-05-08 04:04:32			0	33267	0	0	0	17825	16440	155341	27177	963617	38748	106478	0	0	8117	793686	0	0
2024-05-08 04:05:32			0	33242	0	0	0	17820	16440	155437	27072	963459	38758	106476	0	0	8115	794974	0	0
2024-05-08 04:06:32			0	33266	0	0	0	17833	16450	155441	27428	963467	38759	106481	0	0	8116	793695	0	0
2024-05-08 04:07:32			0	33253	0	0	0	17828	16440	155381	27230	963477	38748	106479	0	0	8116	794407	0	0
2024-05-08 04:08:32			0	33241	0	0	0	17815	16450	155441	27274	963493	38759	106474	0	0	8115	794982	0	0
2024-05-08 04:09:32			0	33240	0	0	0	17820	16440	155401	27445	963503	38748	106476	0	0	8115	795077	0	0
2024-05-08 04:10:32			0	33232	0	0	0	17815	16430	155449	27481	963442	38748	106474	0	0	8115	795532	0	0
2024-05-08 04:11:32			0	33224	0	0	0	17812	16430	155449	27334	963442	38737	106473	0	0	8114	795945	0	0
2024-05-08 04:12:32			0	33222	0	0	0	17815	16440	155521	27602	963424	38748	106474	0	0	8114	796005	0	0
2024-05-08 04:13:32			0	33215	0	0	0	17823	16440	155529	27666	963424	38748	106477	0	0	8113	796366	0	0
2024-05-08 04:14:32			0	33215	0	0	0	17818	16440	155637	27324	963398	38748	106475	0	0	8114	796366	0	0
2024-05-08 04:15:32			0	33199	0	0	0	17818	16430	155621	27312	963434	38747	106475	0	0	8112	797235	0	0
2024-05-08 04:16:32			0	33185	0	0	0	17815	16430	155733	27154	963416	38748	106474	0	0	8112	797959	0	0
2024-05-08 04:17:32			0	33181	0	0	0	17815	16440	155829	27275	963424	38748	106474	0	0	8112	798122	0	0
2024-05-08 04:18:32			0	33179	0	0	0	17815	16420	155777	27255	963391	38747	106474	0	0	8111	798312	0	0
2024-05-08 04:19:32			0	33174	0	0	0	17815	16430	155957	27376	963442	38748	106474	0	0	8111	798527	0	0
2024-05-08 04:20:32			0	33154	0	0	0	17815	16430	155973	26942	963355	38736	106474	0	0	8110	799562	0	0
2024-05-08 04:21:32			0	33142	0	0	0	17812	16420	156001	26981	963418	38747	106473	0	0	8109	800227	0	0
2024-05-08 04:22:32			0	33140	0	0	0	17805	16430	155989	26923	963442	38737	106470	0	0	8109	800288	0	0
2024-05-08 04:23:32			0	33136	0	0	0	17812	16430	155969	27251	963469	38737	106473	0	0	8109	800495	0	0
2024-05-08 04:24:32			0	33135	0	0	0	17799	16420	156005	27237	963444	38757	106468	0	0	8109	800590	0	0
2024-05-08 04:25:32			0	33115	0	0	0	17805	16410	155941	26944	963375	38746	106470	0	0	8108	801670	0	0
2024-05-08 04:26:32			0	33092	0	0	0	17792	16420	156065	27211	963418	38735	106465	0	0	8106	802821	0	0
2024-05-08 04:27:32			0	33091	0	0	0	17805	16430	156093	27071	963408	38736	106470	0	0	8106	802830	0	0
2024-05-08 04:28:32			0	33088	0	0	0	17802	16420	156253	27187	963391	38747	106469	0	0	8106	803029	0	0
2024-05-08 04:29:32			0	33072	0	0	0	17802	16430	156205	27306	963442	38748	106469	0	0	8105	803818	0	0
2024-05-08 04:30:32			0	33058	0	0	0	17818	16430	156361	26918	963408	38758	106475	0	0	8104	804546	0	0
2024-05-08 04:31:32			0	33024	0	0	0	17812	16410	156441	27355	963436	38747	106473	0	0	8102	806404	0	0
2024-05-08 04:32:32			0	33011	0	0	0	17810	16410	156569	27059	963436	38747	106472	0	0	8101	807082	0	0
2024-05-08 04:33:32			0	33001	0	0	0	17807	16420	156629	27135	963400	38735	106471	0	0	8101	807561	0	0
2024-05-08 04:34:32			0	32980	0	0	0	17807	16430	156745	27329	963461	38758	106471	0	0	8099	808614	0	0
2024-05-08 04:35:32			0	32973	0	0	0	17802	16420	156825	27242	963426	38757	106469	0	0	8099	809024	0	0
2024-05-08 04:36:32			0	32949	0	0	0	17807	16420	156921	27319	963391	38735	106471	0	0	8098	810279	0	0
2024-05-08 04:37:32			0	32950	0	0	0	17799	16420	156937	27062	963391	38757	106468	0	0	8098	810227	0	0
2024-05-08 04:38:32			0	32923	0	0	0	17802	16410	156985	27346	963428	38756	106469	0	0	8096	811685	0	0
2024-05-08 04:39:32			0	32923	0	0	0	17805	16410	157081	27178	963410	38747	106470	0	0	8096	811685	0	0
2024-05-08 04:40:32			0	32902	0	0	0	17797	16410	157041	27436	963383	38747	106467	0	0	8095	812787	0	0
2024-05-08 04:41:32			0	32915	0	0	0	17802	16410	157113	27178	963349	38746	106469	0	0	8095	812105	0	0
2024-05-08 04:42:32			0	32898	0	0	0	17794	16420	157009	27138	963365	38757	106466	0	0	8095	812953	0	0
2024-05-08 04:43:32			0	32910	0	0	0	17797	16420	156993	27332	963365	38757	106467	0	0	8095	812323	0	0
2024-05-08 04:44:32			0	32910	0	0	0	17799	16410	157005	27157	963349	38746	106468	0	0	8095	812367	0	0
2024-05-08 04:45:32			0	32910	0	0	0	17810	16410	156969	26824	963357	38735	106472	0	0	8095	812367	0	0
2024-05-08 04:46:32			0	32925	0	0	0	17797	16410	157045	27282	963357	38735	106467	0	0	8096	811581	0	0
2024-05-08 04:47:32			0	32901	0	0	0	17799	16410	157053	27000	963349	38756	106468	0	0	8095	812839	0	0
2024-05-08 04:48:32			0	32885	0	0	0	17799	16410	157109	27213	963383	38757	106468	0	0	8094	813680	0	0
2024-05-08 04:49:32			0	32906	0	0	0	17797	16410	157117	27140	963401	38746	106467	0	0	8095	812577	0	0
2024-05-08 04:50:32			0	32898	0	0	0	17805	16410	157169	27365	963322	38746	106470	0	0	8094	812997	0	0
2024-05-08 04:51:32			0	32887	0	0	0	17797	16410	157201	27057	963357	38747	106467	0	0	8094	813575	0	0
2024-05-08 04:52:32			0	32887	0	0	0	17802	16410	157169	27048	963375	38746	106469	0	0	8094	813575	0	0
2024-05-08 04:53:32			0	32873	0	0	0	17794	16410	157189	27225	963349	38746	106466	0	0	8093	814310	0	0
2024-05-08 04:54:32			0	32880	0	0	0	17802	16410	157213	27352	963383	38757	106469	0	0	8093	813943	0	0
2024-05-08 04:55:32			0	32854	0	0	0	17802	16410	157213	27112	963349	38746	106469	0	0	8092	815310	0	0
2024-05-08 04:56:32			0	32860	0	0	0	17805	16410	157381	27450	963349	38756	106470	0	0	8092	814994	0	0
2024-05-08 04:57:32			0	32853	0	0	0	17792	16400	157325	27343	963340	38745	106465	0	0	8092	815407	0	0
2024-05-08 04:58:32			0	32834	0	0	0	17794	16410	157385	27222	963436	38747	106466	0	0	8091	816363	0	0
2024-05-08 04:59:32			0	32831	0	0	0	17799	16410	157517	26935	963330	38735	106468	0	0	8090	816521	0	0
2024-05-08 05:00:32			0	32842	0	0	0	17794	16390	157493	27355	963298	38755	106466	0	0	8091	816030	0	0
2024-05-08 05:01:32			0	32827	0	0	0	17794	16400	157453	27199	963332	38734	106466	0	0	8090	816776	0	0
2024-05-08 05:02:32			0	32812	0	0	0	17797	16410	157425	27074	963330	38747	106467	0	0	8089	817523	0	0
2024-05-08 05:03:32			0	32839	0	0	0	17794	16400	157437	27265	963340	38745	106466	0	0	8091	816144	0	0
2024-05-08 05:04:32			0	32845	0	0	0	17794	16400	157469	26918	963359	38755	106466	0	0	8091	815828	0	0
2024-05-08 05:05:32			0	32841	0	0	0	17781	16400	157509	26873	963306	38734	106461	0	0	8091	816038	0	0
2024-05-08 05:06:32			0	32835	0	0	0	17784	16400	157565	27279	963367	38745	106462	0	0	8091	816354	0	0
2024-05-08 05:07:32			0	32820	0	0	0	17792	16400	157585	26948	963359	38745	106465	0	0	8090	817145	0	0
2024-05-08 05:08:32			0	32806	0	0	0	17792	16400	157605	27391	963314	38745	106465	0	0	8089	817884	0	0
2024-05-08 05:09:32			0	32795	0	0	0	17789	16400	157681	27260	963359	38755	106464	0	0	8088	818464	0	0
2024-05-08 05:10:32			0	32775	0	0	0	17786	16400	157681	27201	963306	38745	106463	0	0	8087	819521	0	0
2024-05-08 05:11:32			0	32785	0	0	0	17789	16390	157653	26861	963324	38745	106464	0	0	8088	819036	0	0
2024-05-08 05:12:32			0	32760	0	0	0	17786	16400	157768	27017	963359	38755	106463	0	0	8086	820314	0	0
2024-05-08 05:13:32			0	32762	0	0	0	17789	16400	157768	27386	963332	38745	106464	0	0	8086	820208	0	0
2024-05-08 05:14:32			0	32749	0	0	0	17789	16400	157856	27448	963288	38755	106464	0	0	8085	820896	0	0
2024-05-08 05:15:32			0	32732	0	0	0	17786	16390	157940	27149	963245	38745	106463	0	0	8084	821840	0	0
2024-05-08 05:16:32			0	32744	0	0	0	17789	16390	157904	27284	963316	38744	106464	0	0	8085	821205	0	0
2024-05-08 05:17:32			0	32743	0	0	0	17784	16400	157928	26901	963359	38755	106462	0	0	8085	821213	0	0
2024-05-08 05:18:32			0	32735	0	0	0	17784	16390	157948	27194	963298	38755	106462	0	0	8085	821681	0	0
2024-05-08 05:19:32			0	32733	0	0	0	17794	16400	157988	26991	963280	38745	106466	0	0	8084	821743	0	0
2024-05-08 05:20:32			0	32725	0	0	0	17789	16390	158056	27476	963271	38745	106464	0	0	8084	822211	0	0
2024-05-08 05:21:32			0	32714	0	0	0	17781	16390	158016	27118	963298	38745	106461	0	0	8083	822794	0	0
2024-05-08 05:22:32			0	32723	0	0	0	17781	16390	158020	27343	963324	38745	106461	0	0	8084	822317	0	0
2024-05-08 05:23:32			0	32731	0	0	0	17786	16400	158044	27346	963280	38734	106463	0	0	8084	821849	0	0
2024-05-08 05:24:32			0	32722	0	0	0	17781	16400	158036	27123	963332	38766	106461	0	0	8084	822326	0	0
2024-05-08 05:25:32			0	32721	0	0	0	17786	16400	158044	27336	963385	38745	106463	0	0	8084	822379	0	0
2024-05-08 05:26:32			0	32719	0	0	0	17776	16400	158056	27036	963306	38745	106459	0	0	8084	822485	0	0
2024-05-08 05:27:32			0	32715	0	0	0	17786	16390	158088	26849	963298	38755	106463	0	0	8083	822741	0	0
2024-05-08 05:28:32			0	32722	0	0	0	17784	16400	158108	27183	963280	38745	106462	0	0	8084	822326	0	0
2024-05-08 05:29:32			0	32709	0	0	0	17784	16400	158032	26908	963253	38755	106462	0	0	8083	823015	0	0
2024-05-08 05:30:32			0	32702	0	0	0	17786	16390	158092	27241	963298	38755	106463	0	0	8083	823431	0	0
2024-05-08 05:31:32			0	32721	0	0	0	17781	16390	158064	27020	963271	38734	106461	0	0	8084	822423	0	0
2024-05-08 05:32:32			0	32703	0	0	0	17784	16380	158124	27241	963281	38743	106462	0	0	8083	823423	0	0
2024-05-08 05:33:32			0	32707	0	0	0	17779	16390	158084	27180	963237	38754	106460	0	0	8083	823166	0	0
2024-05-08 05:34:32			0	32701	0	0	0	17781	16390	158112	27074	963271	38745	106461	0	0	8083	823484	0	0
2024-05-08 05:35:32			0	32708	0	0	0	17771	16390	158116	27152	963263	38744	106457	0	0	8083	823113	0	0
2024-05-08 05:36:32			0	32711	0	0	0	17774	16390	158088	26835	963316	38754	106458	0	0	8083	822954	0	0
2024-05-08 05:37:32			0	32695	0	0	0	17779	16390	158120	27258	963316	38765	106460	0	0	8082	823803	0	0
2024-05-08 05:38:32			0	32682	0	0	0	17776	16380	158140	27500	963247	38742	106459	0	0	8081	824538	0	0
2024-05-08 05:39:32			0	32698	0	0	0	17776	16380	158144	26979	963281	38743	106459	0	0	8082	823688	0	0
2024-05-08 05:40:32			0	32694	0	0	0	17784	16390	158128	26989	963298	38745	106462	0	0	8082	823856	0	0
2024-05-08 05:41:32			0	32693	0	0	0	17776	16400	158204	27093	963280	38745	106459	0	0	8082	823864	0	0
2024-05-08 05:42:32			0	32686	0	0	0	17774	16390	158176	27313	963263	38765	106458	0	0	8082	824280	0	0
2024-05-08 05:43:32			0	32698	0	0	0	17768	16390	158132	27131	963316	38744	106456	0	0	8083	823643	0	0
2024-05-08 05:44:32			0	32679	0	0	0	17779	16390	158204	27398	963316	38744	106460	0	0	8081	824652	0	0
2024-05-08 05:45:32			0	32703	0	0	0	17784	16380	158236	27104	963308	38753	106462	0	0	8083	823423	0	0
2024-05-08 05:46:32			0	32680	0	0	0	17774	16390	158060	27528	963316	38733	106458	0	0	8081	824599	0	0
2024-05-08 05:47:32			0	32695	0	0	0	17774	16390	158128	27166	963290	38754	106458	0	0	8082	823803	0	0
2024-05-08 05:48:32			0	32704	0	0	0	17771	16390	158124	27203	963271	38766	106457	0	0	8083	823325	0	0
2024-05-08 05:49:32			0	32721	0	0	0	17774	16380	158088	27393	963300	38742	106458	0	0	8084	822468	0	0
2024-05-08 05:50:32			0	32717	0	0	0	17779	16390	157920	27409	963290	38744	106460	0	0	8084	822636	0	0
2024-05-08 05:51:32			0	32721	0	0	0	17768	16380	157924	27203	963308	38732	106456	0	0	8084	822468	0	0
2024-05-08 05:52:32			0	32716	0	0	0	17771	16380	157984	27097	963281	38721	106457	0	0	8084	822733	0	0
2024-05-08 05:53:32			0	32728	0	0	0	17766	16390	158004	27001	963237	38733	106455	0	0	8085	822052	0	0
2024-05-08 05:54:32			0	32726	0	0	0	17779	16390	157928	27267	963237	38754	106460	0	0	8084	822158	0	0
2024-05-08 05:55:32			0	32735	0	0	0	17771	16390	157844	27177	963271	38755	106457	0	0	8085	821681	0	0
2024-05-08 05:56:32			0	32736	0	0	0	17774	16390	157860	27039	963290	38744	106458	0	0	8085	821628	0	0
2024-05-08 05:57:32			0	32723	0	0	0	17766	16380	157932	27332	963247	38742	106455	0	0	8084	822362	0	0
2024-05-08 05:58:32			0	32745	0	0	0	17771	16380	157876	27173	963229	38743	106457	0	0	8085	821196	0	0
2024-05-08 05:59:32			0	32744	0	0	0	17771	16380	157844	27192	963308	38743	106457	0	0	8085	821249	0	0
2024-05-08 06:00:32			0	32759	0	0	0	17771	16380	157928	26772	963300	38742	106457	0	0	8086	820455	0	0
2024-05-08 06:01:32			0	32753	0	0	0	17771	16380	157872	27308	963255	38743	106457	0	0	8086	820773	0	0
2024-05-08 06:02:32			0	32744	0	0	0	17776	16370	157828	27104	963291	38764	106459	0	0	8085	821294	0	0
2024-05-08 06:03:32			0	32745	0	0	0	17771	16380	157940	27452	963273	38742	106457	0	0	8085	821196	0	0
2024-05-08 06:04:32			0	32762	0	0	0	17768	16380	158008	27272	963334	38743	106456	0	0	8087	820297	0	0
2024-05-08 06:05:32			0	32762	0	0	0	17774	16380	157936	27402	963247	38742	106458	0	0	8086	820297	0	0
2024-05-08 06:06:32			0	32769	0	0	0	17771	16380	157768	27270	963247	38742	106457	0	0	8087	819926	0	0
2024-05-08 06:07:32			0	32761	0	0	0	17771	16380	157784	27277	963300	38752	106457	0	0	8086	820349	0	0
2024-05-08 06:08:32			0	32775	0	0	0	17776	16380	157724	27152	963326	38742	106459	0	0	8087	819609	0	0
2024-05-08 06:09:32			0	32793	0	0	0	17771	16370	157633	27319	963291	38752	106457	0	0	8088	818702	0	0
2024-05-08 06:10:32			0	32802	0	0	0	17771	16380	157617	27419	963281	38743	106457	0	0	8089	818183	0	0
2024-05-08 06:11:32			0	32803	0	0	0	17766	16390	157609	27222	963290	38754	106455	0	0	8089	818086	0	0
2024-05-08 06:12:32			0	32823	0	0	0	17771	16380	157621	27163	963273	38752	106457	0	0	8090	817075	0	0
2024-05-08 06:13:32			0	32830	0	0	0	17761	16380	157557	27249	963273	38752	106453	0	0	8091	816706	0	0
2024-05-08 06:14:32			0	32852	0	0	0	17771	16390	157477	27472	963263	38744	106457	0	0	8092	815503	0	0
2024-05-08 06:15:32			0	32870	0	0	0	17768	16380	157369	26795	963273	38742	106456	0	0	8093	814600	0	0
2024-05-08 06:16:32			0	32887	0	0	0	17774	16370	157301	27213	963265	38742	106458	0	0	8094	813751	0	0
2024-05-08 06:17:32			0	32883	0	0	0	17768	16380	157249	27478	963300	38731	106456	0	0	8094	813917	0	0
2024-05-08 06:18:32			0	32914	0	0	0	17766	16380	157089	27260	963220	38742	106455	0	0	8096	812289	0	0
2024-05-08 06:19:32			0	32945	0	0	0	17771	16370	156997	27192	963283	38742	106457	0	0	8098	810708	0	0
2024-05-08 06:20:32			0	32960	0	0	0	17771	16390	156953	27157	963263	38754	106457	0	0	8099	809835	0	0
2024-05-08 06:21:32			0	32948	0	0	0	17771	16380	156981	27265	963229	38753	106457	0	0	8098	810507	0	0
2024-05-08 06:22:32			0	32977	0	0	0	17761	16380	156845	27069	963308	38743	106453	0	0	8100	808989	0	0
2024-05-08 06:23:32			0	32977	0	0	0	17761	16370	156801	27161	963239	38742	106453	0	0	8100	809033	0	0
2024-05-08 06:24:32			0	32988	0	0	0	17761	16370	156781	27355	963239	38742	106453	0	0	8100	808458	0	0
2024-05-08 06:25:32			0	32986	0	0	0	17748	16370	156653	27173	963239	38764	106448	0	0	8101	808563	0	0
2024-05-08 06:26:32			0	33025	0	0	0	17755	16360	156609	27206	963222	38741	106451	0	0	8103	806570	0	0
2024-05-08 06:27:32			0	33022	0	0	0	17766	16380	156637	27265	963247	38731	106455	0	0	8102	806639	0	0
2024-05-08 06:28:32			0	33017	0	0	0	17755	16380	156601	27131	963247	38731	106451	0	0	8102	806900	0	0
2024-05-08 06:29:32			0	33038	0	0	0	17763	16370	156641	26856	963283	38752	106454	0	0	8103	805849	0	0
2024-05-08 06:30:32			0	33026	0	0	0	17763	16370	156565	27230	963256	38742	106454	0	0	8103	806474	0	0
2024-05-08 06:31:32			0	33034	0	0	0	17766	16370	156537	27272	963265	38752	106455	0	0	8103	806057	0	0
2024-05-08 06:32:32			0	33018	0	0	0	17761	16370	156589	27331	963291	38752	106453	0	0	8102	806892	0	0
2024-05-08 06:33:32			0	33015	0	0	0	17768	16370	156637	27199	963265	38742	106456	0	0	8102	807048	0	0
2024-05-08 06:34:32			0	33023	0	0	0	17768	16380	156649	27298	963273	38752	106456	0	0	8102	806587	0	0
2024-05-08 06:35:32			0	33006	0	0	0	17766	16370	156685	27450	963212	38742	106455	0	0	8101	807518	0	0
2024-05-08 06:36:32			0	33009	0	0	0	17766	16370	156725	27471	963230	38742	106455	0	0	8102	807362	0	0
2024-05-08 06:37:32			0	32999	0	0	0	17766	16370	156741	27166	963265	38752	106455	0	0	8101	807884	0	0
2024-05-08 06:38:32			0	32996	0	0	0	17763	16380	156813	27218	963220	38742	106454	0	0	8101	807997	0	0
2024-05-08 06:39:32			0	33013	0	0	0	17761	16370	156821	27275	963239	38752	106453	0	0	8102	807153	0	0
2024-05-08 06:40:32			0	33001	0	0	0	17758	16380	156761	27547	963300	38742	106452	0	0	8101	807736	0	0
2024-05-08 06:41:32			0	32996	0	0	0	17761	16380	156713	27384	963247	38742	106453	0	0	8101	807997	0	0
2024-05-08 06:42:32			0	32994	0	0	0	17758	16370	156653	27492	963256	38764	106452	0	0	8101	808145	0	0
2024-05-08 06:43:32			0	33001	0	0	0	17755	16370	156669	27308	963265	38742	106451	0	0	8101	807779	0	0
2024-05-08 06:44:32			0	32997	0	0	0	17761	16370	156657	27597	963256	38742	106453	0	0	8101	807988	0	0
2024-05-08 06:45:32			0	33029	0	0	0	17761	16360	156681	27185	963248	38752	106453	0	0	8103	806362	0	0
2024-05-08 06:46:32			0	33027	0	0	0	17758	16380	156713	27289	963273	38742	106452	0	0	8103	806379	0	0
2024-05-08 06:47:32			0	33013	0	0	0	17755	16380	156613	27666	963247	38752	106451	0	0	8102	807109	0	0
2024-05-08 06:48:32			0	33015	0	0	0	17761	16370	156673	27661	963186	38742	106453	0	0	8102	807048	0	0
2024-05-08 06:49:32			0	33003	0	0	0	17755	16370	156593	27386	963239	38742	106451	0	0	8101	807675	0	0
2024-05-08 06:50:32			0	33022	0	0	0	17750	16370	156553	27516	963256	38742	106449	0	0	8103	806683	0	0
2024-05-08 06:51:32			0	33031	0	0	0	17742	16370	156593	27396	963318	38742	106446	0	0	8103	806214	0	0
2024-05-08 06:52:32			0	33048	0	0	0	17758	16370	156489	27623	963230	38742	106452	0	0	8104	805328	0	0
2024-05-08 06:53:32			0	33035	0	0	0	17755	16370	156581	27227	963239	38752	106451	0	0	8103	806005	0	0
2024-05-08 06:54:32			0	33027	0	0	0	17753	16370	156445	27331	963256	38742	106450	0	0	8103	806422	0	0
2024-05-08 06:55:32			0	33033	0	0	0	17761	16370	156593	27495	963291	38742	106453	0	0	8103	806109	0	0
2024-05-08 06:56:32			0	33050	0	0	0	17761	16360	156529	27336	963195	38741	106453	0	0	8104	805267	0	0
2024-05-08 06:57:32			0	33034	0	0	0	17761	16370	156549	27263	963230	38752	106453	0	0	8103	806057	0	0
2024-05-08 06:58:32			0	33038	0	0	0	17761	16370	156425	27429	963265	38752	106453	0	0	8103	805849	0	0
2024-05-08 06:59:32			0	33032	0	0	0	17755	16370	156465	27531	963239	38742	106451	0	0	8103	806162	0	0
2024-05-08 07:00:32			0	33026	0	0	0	17761	16360	156517	27286	963248	38763	106453	0	0	8103	806518	0	0
2024-05-08 07:01:32			0	33037	0	0	0	17761	16360	156561	27486	963275	38763	106453	0	0	8103	805945	0	0
2024-05-08 07:02:32			0	33033	0	0	0	17766	16370	156561	27476	963239	38752	106455	0	0	8103	806109	0	0
2024-05-08 07:03:32			0	33048	0	0	0	17771	16370	156529	27443	963256	38752	106457	0	0	8104	805328	0	0
2024-05-08 07:04:32			0	33043	0	0	0	17763	16370	156541	27235	963239	38742	106454	0	0	8104	805588	0	0
2024-05-08 07:05:32			0	33037	0	0	0	17771	16370	156521	27185	963265	38742	106457	0	0	8103	805901	0	0
2024-05-08 07:06:32			0	33029	0	0	0	17771	16370	156561	27358	963291	38731	106457	0	0	8103	806318	0	0
2024-05-08 07:07:32			0	33032	0	0	0	17774	16370	156493	27770	963265	38731	106458	0	0	8103	806162	0	0
2024-05-08 07:08:32			0	33031	0	0	0	17771	16370	156553	27422	963318	38742	106457	0	0	8103	806214	0	0
2024-05-08 07:09:32			0	33037	0	0	0	17771	16380	156557	27521	963300	38731	106457	0	0	8103	805857	0	0
2024-05-08 07:10:32			0	33029	0	0	0	17784	16380	156629	27476	963300	38764	106462	0	0	8103	806274	0	0
2024-05-08 07:11:32			0	33040	0	0	0	17781	16370	156505	27147	963344	38752	106461	0	0	8103	805745	0	0
2024-05-08 07:12:32			0	33047	0	0	0	17779	16380	156537	27312	963326	38752	106460	0	0	8104	805336	0	0
2024-05-08 07:13:32			0	33048	0	0	0	17779	16390	156529	27357	963316	38765	106460	0	0	8104	805241	0	0
2024-05-08 07:14:32			0	33062	0	0	0	17789	16380	156505	27542	963281	38743	106464	0	0	8104	804555	0	0
2024-05-08 07:15:32			0	33057	0	0	0	17789	16390	156393	27331	963316	38744	106464	0	0	8104	804772	0	0
2024-05-08 07:16:32			0	33080	0	0	0	17789	16390	156257	27267	963316	38765	106464	0	0	8106	803575	0	0
2024-05-08 07:17:32			0	33073	0	0	0	17797	16380	156241	27505	963334	38753	106467	0	0	8105	803983	0	0
2024-05-08 07:18:32			0	33100	0	0	0	17792	16390	156169	27388	963377	38745	106465	0	0	8107	802536	0	0
2024-05-08 07:19:32			0	33120	0	0	0	17799	16400	156153	27163	963359	38755	106468	0	0	8108	801455	0	0
2024-05-08 07:20:32			0	33118	0	0	0	17797	16380	156069	27564	963387	38764	106467	0	0	8108	801645	0	0
2024-05-08 07:21:32			0	33134	0	0	0	17805	16390	156041	27464	963350	38766	106470	0	0	8109	800772	0	0
2024-05-08 07:22:32			0	33160	0	0	0	17807	16400	156033	27034	963393	38755	106471	0	0	8110	799381	0	0
2024-05-08 07:23:32			0	33165	0	0	0	17805	16390	155937	27471	963377	38755	106470	0	0	8110	799166	0	0
2024-05-08 07:24:32			0	33182	0	0	0	17818	16400	155857	27121	963359	38766	106475	0	0	8111	798243	0	0
2024-05-08 07:25:32			0	33190	0	0	0	17818	16400	155725	27275	963393	38755	106475	0	0	8112	797830	0	0
2024-05-08 07:26:32			0	33213	0	0	0	17823	16400	155757	27409	963420	38755	106477	0	0	8113	796642	0	0
2024-05-08 07:27:32			0	33237	0	0	0	17823	16410	155629	27274	963454	38756	106477	0	0	8115	795360	0	0
2024-05-08 07:28:32			0	33243	0	0	0	17828	16410	155561	27462	963436	38757	106479	0	0	8115	795051	0	0
2024-05-08 07:29:32			0	33258	0	0	0	17823	16430	155453	27294	963513	38758	106477	0	0	8116	794192	0	0
2024-05-08 07:30:32			0	33288	0	0	0	17825	16420	155433	27362	963497	38768	106478	0	0	8118	792692	0	0
2024-05-08 07:31:32			0	33303	0	0	0	17833	16420	155361	27346	963471	38790	106481	0	0	8118	791921	0	0
2024-05-08 07:32:32			0	33322	0	0	0	17838	16440	155177	27291	963530	38781	106483	0	0	8120	790860	0	0
2024-05-08 07:33:32			0	33336	0	0	0	17838	16420	155093	27059	963531	38757	106483	0	0	8120	790227	0	0
2024-05-08 07:34:32			0	33354	0	0	0	17828	16430	154965	27319	963601	38748	106479	0	0	8122	789262	0	0
2024-05-08 07:35:32			0	33374	0	0	0	17836	16430	154877	27291	963540	38758	106482	0	0	8123	788238	0	0
2024-05-08 07:36:32			0	33371	0	0	0	17844	16430	154861	27550	963548	38748	106485	0	0	8122	788391	0	0
2024-05-08 07:37:32			0	33383	0	0	0	17841	16420	154845	27315	963576	38757	106484	0	0	8123	787820	0	0
2024-05-08 07:38:32			0	33390	0	0	0	17838	16430	154801	27067	963627	38748	106483	0	0	8124	787419	0	0
2024-05-08 07:39:32			0	33382	0	0	0	17846	16440	154789	27452	963564	38758	106486	0	0	8123	787786	0	0
2024-05-08 07:40:32			0	33396	0	0	0	17854	16450	154777	27447	963599	38759	106489	0	0	8124	787027	0	0
2024-05-08 07:41:32			0	33418	0	0	0	17846	16440	154665	27216	963643	38758	106486	0	0	8125	785946	0	0
2024-05-08 07:42:32			0	33417	0	0	0	17838	16440	154673	27436	963591	38770	106483	0	0	8125	785997	0	0
2024-05-08 07:43:32			0	33406	0	0	0	17851	16440	154729	27031	963564	38758	106488	0	0	8124	786559	0	0
2024-05-08 07:44:32			0	33413	0	0	0	17849	16450	154729	27203	963625	38749	106487	0	0	8125	786159	0	0
2024-05-08 07:45:32			0	33423	0	0	0	17859	16460	154637	27239	963642	38760	106491	0	0	8125	785606	0	0
2024-05-08 07:46:32			0	33439	0	0	0	17857	16460	154649	27405	963589	38760	106490	0	0	8126	784790	0	0
2024-05-08 07:47:32			0	33419	0	0	0	17859	16460	154621	27135	963642	38771	106491	0	0	8125	785810	0	0
2024-05-08 07:48:32			0	33450	0	0	0	17854	16450	154493	26970	963607	38760	106489	0	0	8127	784271	0	0
2024-05-08 07:49:32			0	33449	0	0	0	17857	16470	154469	27019	963650	38772	106490	0	0	8127	784237	0	0
2024-05-08 07:50:32			0	33464	0	0	0	17857	16470	154501	27128	963703	38772	106490	0	0	8128	783473	0	0
2024-05-08 07:51:32			0	33456	0	0	0	17851	16460	154497	27171	963642	38760	106488	0	0	8127	783923	0	0
2024-05-08 07:52:32			0	33452	0	0	0	17857	16470	154357	27185	963684	38750	106490	0	0	8127	784085	0	0
2024-05-08 07:53:32			0	33468	0	0	0	17864	16450	154453	27457	963660	38771	106493	0	0	8128	783354	0	0
2024-05-08 07:54:32			0	33468	0	0	0	17867	16470	154425	27074	963737	38772	106494	0	0	8128	783270	0	0
2024-05-08 07:55:32			0	33498	0	0	0	17859	16480	154249	27537	963727	38774	106491	0	0	8130	781701	0	0
2024-05-08 07:56:32			0	33495	0	0	0	17877	16470	154273	27436	963703	38761	106498	0	0	8129	781896	0	0
2024-05-08 07:57:32			0	33508	0	0	0	17877	16470	154193	27338	963763	38761	106498	0	0	8130	781235	0	0
2024-05-08 07:58:32			0	33520	0	0	0	17870	16470	154209	27322	963658	38750	106495	0	0	8131	780626	0	0
2024-05-08 07:59:32			0	33540	0	0	0	17870	16480	154081	27343	963693	38762	106495	0	0	8132	779569	0	0
2024-05-08 08:00:32			0	33541	0	0	0	17875	16480	153993	27135	963754	38763	106497	0	0	8132	779518	0	0
2024-05-08 08:01:32			0	33560	0	0	0	17883	16470	153977	27203	963703	38772	106500	0	0	8133	778597	0	0
2024-05-08 08:02:32			0	33565	0	0	0	17877	16480	153897	27260	963780	38785	106498	0	0	8134	778302	0	0
2024-05-08 08:03:32			0	33580	0	0	0	17883	16490	153754	27053	963735	38774	106500	0	0	8134	777500	0	0
2024-05-08 08:04:32			0	33610	0	0	0	17875	16490	153822	26979	963709	38774	106497	0	0	8136	775983	0	0
2024-05-08 08:05:32			0	33582	0	0	0	17885	16480	153802	27149	963780	38774	106501	0	0	8134	777441	0	0
2024-05-08 08:06:32			0	33602	0	0	0	17890	16500	153834	27476	963778	38764	106503	0	0	8136	776345	0	0
2024-05-08 08:07:32			0	33607	0	0	0	17901	16490	153762	27112	963735	38785	106507	0	0	8136	776135	0	0
2024-05-08 08:08:32			0	33594	0	0	0	17903	16490	153766	27365	963796	38785	106508	0	0	8135	776792	0	0
2024-05-08 08:09:32			0	33619	0	0	0	17901	16500	153778	27149	963787	38787	106507	0	0	8136	775487	0	0
2024-05-08 08:10:32			0	33607	0	0	0	17898	16500	153678	27287	963831	38786	106506	0	0	8136	776093	0	0
2024-05-08 08:11:32			0	33613	0	0	0	17903	16510	153686	27079	963821	38764	106508	0	0	8136	775748	0	0
2024-05-08 08:12:32			0	33624	0	0	0	17909	16500	153594	27412	963831	38786	106510	0	0	8137	775234	0	0
2024-05-08 08:13:32			0	33634	0	0	0	17906	16500	153582	27358	963839	38753	106509	0	0	8137	774729	0	0
2024-05-08 08:14:32			0	33624	0	0	0	17903	16520	153566	27067	963838	38788	106508	0	0	8137	775150	0	0
2024-05-08 08:15:32			0	33630	0	0	0	17906	16520	153574	27346	963890	38776	106509	0	0	8137	774847	0	0
2024-05-08 08:16:32			0	33633	0	0	0	17916	16510	153514	27081	963848	38776	106513	0	0	8137	774738	0	0
2024-05-08 08:17:32			0	33632	0	0	0	17914	16520	153582	27331	963864	38776	106512	0	0	8137	774747	0	0
2024-05-08 08:18:32			0	33617	0	0	0	17914	16520	153554	27008	963864	38765	106512	0	0	8136	775504	0	0
2024-05-08 08:19:32			0	33651	0	0	0	17919	16510	153582	27293	963909	38776	106514	0	0	8138	773830	0	0
2024-05-08 08:20:32			0	33646	0	0	0	17909	16520	153438	27187	963899	38777	106510	0	0	8138	774040	0	0
2024-05-08 08:21:32			0	33645	0	0	0	17909	16530	153458	27010	963854	38766	106510	0	0	8138	774049	0	0
2024-05-08 08:22:32			0	33654	0	0	0	17914	16520	153426	26986	963925	38777	106512	0	0	8138	773637	0	0
2024-05-08 08:23:32			0	33669	0	0	0	17916	16530	153462	27267	963862	38767	106513	0	0	8139	772840	0	0
2024-05-08 08:24:32			0	33670	0	0	0	17914	16530	153358	27093	963880	38777	106512	0	0	8139	772789	0	0
2024-05-08 08:25:32			0	33676	0	0	0	17919	16520	153382	27220	963899	38766	106514	0	0	8140	772529	0	0
2024-05-08 08:26:32			0	33710	0	0	0	17919	16530	153298	27583	963907	38766	106514	0	0	8142	770777	0	0
2024-05-08 08:27:32			0	33710	0	0	0	17919	16520	153262	27043	963864	38765	106514	0	0	8142	770819	0	0
2024-05-08 08:28:32			0	33731	0	0	0	17916	16520	153118	27086	963899	38788	106513	0	0	8143	769764	0	0
2024-05-08 08:29:32			0	33743	0	0	0	17922	16530	153046	27116	963968	38767	106515	0	0	8143	769120	0	0
2024-05-08 08:30:32			0	33771	0	0	0	17924	16540	153014	26984	963931	38779	106516	0	0	8145	767675	0	0
2024-05-08 08:31:32			0	33773	0	0	0	17924	16530	152898	27189	963889	38778	106516	0	0	8145	767616	0	0
2024-05-08 08:32:32			0	33782	0	0	0	17924	16530	152822	27348	963907	38766	106516	0	0	8146	767166	0	0
2024-05-08 08:33:32			0	33807	0	0	0	17935	16530	152654	27033	963986	38788	106520	0	0	8147	765915	0	0
2024-05-08 08:34:32			0	33817	0	0	0	17929	16530	152582	27092	963941	38778	106518	0	0	8148	765415	0	0
2024-05-08 08:35:32			0	33837	0	0	0	17929	16530	152550	27234	963880	38777	106518	0	0	8149	764416	0	0
2024-05-08 08:36:32			0	33825	0	0	0	17935	16520	152550	27248	963872	38777	106520	0	0	8148	765057	0	0
2024-05-08 08:37:32			0	33855	0	0	0	17932	16540	152494	27256	963976	38778	106519	0	0	8150	763477	0	0
2024-05-08 08:38:32			0	33879	0	0	0	17932	16540	152306	27246	963950	38767	106519	0	0	8151	762281	0	0
2024-05-08 08:39:32			0	33902	0	0	0	17932	16540	152258	27199	963950	38778	106519	0	0	8153	761136	0	0
2024-05-08 08:40:32			0	33918	0	0	0	17940	16550	152086	27230	963992	38779	106522	0	0	8154	760299	0	0
2024-05-08 08:41:32			0	33943	0	0	0	17942	16550	152030	27346	963966	38790	106523	0	0	8155	759057	0	0
2024-05-08 08:42:32			0	33958	0	0	0	17935	16540	151990	27192	963984	38779	106520	0	0	8156	758354	0	0
2024-05-08 08:43:32			0	33978	0	0	0	17942	16550	151982	26944	964045	38790	106523	0	0	8157	757321	0	0
2024-05-08 08:44:32			0	33978	0	0	0	17948	16550	151914	26930	964045	38779	106525	0	0	8157	757321	0	0
2024-05-08 08:45:32			0	33988	0	0	0	17945	16550	151806	26875	963992	38779	106524	0	0	8157	756826	0	0
2024-05-08 08:46:32			0	34003	0	0	0	17950	16540	151654	27365	963958	38779	106526	0	0	8158	756124	0	0
2024-05-08 08:47:32			0	34012	0	0	0	17948	16560	151606	27345	964009	38780	106525	0	0	8159	755597	0	0
2024-05-08 08:48:32			0	34043	0	0	0	17955	16550	151598	27355	964027	38780	106528	0	0	8160	754106	0	0
2024-05-08 08:49:32			0	34033	0	0	0	17953	16550	151666	27150	964106	38780	106527	0	0	8160	754600	0	0
2024-05-08 08:50:32			0	34043	0	0	0	17955	16560	151714	27088	964061	38780	106528	0	0	8161	754065	0	0
2024-05-08 08:51:32			0	34027	0	0	0	17953	16560	151646	27350	964017	38781	106527	0	0	8160	754856	0	0
2024-05-08 08:52:32			0	34029	0	0	0	17953	16550	151674	27074	964132	38780	106527	0	0	8160	754798	0	0
2024-05-08 08:53:32			0	34028	0	0	0	17966	16560	151678	27218	964043	38802	106532	0	0	8159	754806	0	0
2024-05-08 08:54:32			0	34025	0	0	0	17963	16560	151630	27329	964122	38781	106531	0	0	8159	754954	0	0
2024-05-08 08:55:32			0	34022	0	0	0	17981	16580	151738	27473	964094	38803	106538	0	0	8159	755021	0	0
2024-05-08 08:56:32			0	33991	0	0	0	17989	16580	151810	27173	964121	38782	106541	0	0	8157	756555	0	0
2024-05-08 08:57:32			0	34015	0	0	0	17981	16570	151758	27249	964139	38792	106538	0	0	8159	755408	0	0
2024-05-08 08:58:32			0	34001	0	0	0	17989	16580	151686	27033	964208	38793	106541	0	0	8158	756060	0	0
2024-05-08 08:59:32			0	33991	0	0	0	17994	16580	151814	27013	964234	38793	106543	0	0	8157	756555	0	0
2024-05-08 09:00:32			0	33983	0	0	0	17999	16580	151898	27098	964182	38804	106545	0	0	8156	756951	0	0
2024-05-08 09:01:32			0	33969	0	0	0	18010	16580	151786	27497	964234	38804	106549	0	0	8155	757644	0	0
2024-05-08 09:02:32			0	33971	0	0	0	18010	16600	151978	27415	964233	38794	106549	0	0	8156	757463	0	0
2024-05-08 09:03:32			0	33991	0	0	0	18020	16590	151870	27315	964277	38816	106553	0	0	8157	756514	0	0
2024-05-08 09:04:32			0	33978	0	0	0	18018	16600	151858	27159	964294	38817	106552	0	0	8156	757116	0	0
2024-05-08 09:05:32			0	33978	0	0	0	18028	16610	151826	27008	964284	38806	106556	0	0	8156	757075	0	0
2024-05-08 09:06:32			0	33990	0	0	0	18041	16610	151746	27334	964328	38806	106561	0	0	8156	756481	0	0
2024-05-08 09:07:32			0	33997	0	0	0	18031	16620	151798	27175	964371	38796	106557	0	0	8157	756094	0	0
2024-05-08 09:08:32			0	34012	0	0	0	18028	16620	151774	26958	964345	38818	106556	0	0	8158	755352	0	0
2024-05-08 09:09:32			0	34004	0	0	0	18023	16620	151774	27119	964371	38796	106554	0	0	8157	755748	0	0
2024-05-08 09:10:32			0	33994	0	0	0	18038	16610	151738	27039	964336	38806	106560	0	0	8157	756283	0	0
2024-05-08 09:11:32			0	34008	0	0	0	18051	16630	151730	27320	964422	38797	106565	0	0	8157	755509	0	0
2024-05-08 09:12:32			0	34018	0	0	0	18051	16630	151750	27114	964335	38819	106565	0	0	8158	755014	0	0
2024-05-08 09:13:32			0	34011	0	0	0	18049	16640	151726	26904	964404	38809	106564	0	0	8157	755319	0	0
2024-05-08 09:14:32			0	34007	0	0	0	18046	16630	151762	27348	964422	38776	106563	0	0	8157	755558	0	0
2024-05-08 09:15:32			0	34015	0	0	0	18046	16640	151746	27156	964430	38788	106563	0	0	8158	755122	0	0
2024-05-08 09:16:32			0	34009	0	0	0	18018	16640	151782	27029	964412	38820	106552	0	0	8158	755419	0	0
2024-05-08 09:17:32			0	34007	0	0	0	18033	16650	151770	26930	964420	38798	106558	0	0	8158	755476	0	0
2024-05-08 09:18:32			0	33993	0	0	0	18020	16640	151706	26845	964412	38788	106553	0	0	8157	756210	0	0
2024-05-08 09:19:32			0	33994	0	0	0	18031	16640	151782	27076	964412	38809	106557	0	0	8157	756160	0	0
2024-05-08 09:20:32			0	34011	0	0	0	18046	16640	151802	27237	964439	38798	106563	0	0	8158	755319	0	0
2024-05-08 09:21:32			0	33997	0	0	0	18051	16650	151762	26845	964473	38810	106565	0	0	8157	755971	0	0
2024-05-08 09:22:32			0	33986	0	0	0	18038	16640	151722	27201	964404	38809	106560	0	0	8156	756556	0	0
2024-05-08 09:23:32			0	33983	0	0	0	18025	16650	151786	27168	964455	38821	106555	0	0	8156	756664	0	0
2024-05-08 09:24:32			0	33969	0	0	0	18020	16650	151738	27147	964473	38810	106553	0	0	8156	757357	0	0
2024-05-08 09:25:32			0	33960	0	0	0	18023	16650	151670	27190	964429	38788	106554	0	0	8155	757803	0	0
2024-05-08 09:26:32			0	33987	0	0	0	18031	16650	151746	27069	964394	38798	106557	0	0	8156	756466	0	0
2024-05-08 09:27:32			0	33979	0	0	0	18018	16650	151798	27185	964368	38798	106552	0	0	8156	756862	0	0
2024-05-08 09:28:32			0	33976	0	0	0	18018	16650	151814	27258	964420	38798	106552	0	0	8156	757010	0	0
2024-05-08 09:29:32			0	33969	0	0	0	18025	16640	151854	27227	964360	38798	106555	0	0	8155	757398	0	0
2024-05-08 09:30:32			0	33967	0	0	0	18028	16650	151846	27039	964420	38798	106556	0	0	8155	757456	0	0
2024-05-08 09:31:32			0	33979	0	0	0	18023	16640	151722	27258	964457	38809	106554	0	0	8156	756903	0	0
2024-05-08 09:32:32			0	33979	0	0	0	18031	16650	151802	27454	964341	38810	106557	0	0	8156	756862	0	0
2024-05-08 09:33:32			0	33989	0	0	0	18031	16640	151774	27183	964386	38798	106557	0	0	8157	756408	0	0
2024-05-08 09:34:32			0	33996	0	0	0	18062	16650	151726	26930	964455	38788	106569	0	0	8156	756021	0	0
2024-05-08 09:35:32			0	33987	0	0	0	18059	16660	151810	27362	964516	38822	106568	0	0	8156	756425	0	0
2024-05-08 09:36:32			0	33986	0	0	0	18046	16660	151726	27057	964490	38811	106563	0	0	8156	756474	0	0
2024-05-08 09:37:32			0	33992	0	0	0	18049	16650	151702	27429	964534	38798	106564	0	0	8156	756218	0	0
2024-05-08 09:38:32			0	34010	0	0	0	18041	16650	151642	27109	964508	38810	106561	0	0	8158	755328	0	0
2024-05-08 09:39:32			0	34005	0	0	0	18033	16650	151618	27199	964500	38810	106558	0	0	8157	755575	0	0
2024-05-08 09:40:32			0	34020	0	0	0	18036	16660	151562	27234	964490	38789	106559	0	0	8158	754793	0	0
2024-05-08 09:41:32			0	34037	0	0	0	18033	16660	151478	27253	964490	38811	106558	0	0	8159	753953	0	0
2024-05-08 09:42:32			0	34046	0	0	0	18044	16650	151482	26975	964508	38810	106562	0	0	8160	753550	0	0
2024-05-08 09:43:32			0	34058	0	0	0	18049	16660	151314	27443	964490	38799	106564	0	0	8160	752917	0	0
2024-05-08 09:44:32			0	34068	0	0	0	18049	16660	151306	27282	964516	38811	106564	0	0	8161	752424	0	0
2024-05-08 09:45:32			0	34082	0	0	0	18036	16660	151210	27319	964471	38811	106559	0	0	8162	751734	0	0
2024-05-08 09:46:32			0	34094	0	0	0	18031	16660	151182	26948	964498	38790	106557	0	0	8163	751143	0	0
2024-05-08 09:47:32			0	34098	0	0	0	18031	16650	151146	27130	964455	38798	106557	0	0	8163	750987	0	0
2024-05-08 09:48:32			0	34093	0	0	0	18023	16660	151222	27192	964471	38811	106554	0	0	8163	751193	0	0
2024-05-08 09:49:32			0	34116	0	0	0	18036	16640	151178	27119	964465	38798	106559	0	0	8164	750142	0	0
2024-05-08 09:50:32			0	34110	0	0	0	18038	16650	151074	27265	964481	38788	106560	0	0	8163	750397	0	0
2024-05-08 09:51:32			0	34114	0	0	0	18038	16650	151122	27291	964447	38788	106560	0	0	8164	750200	0	0
2024-05-08 09:52:32			0	34120	0	0	0	18036	16650	151070	27229	964508	38798	106559	0	0	8164	749905	0	0
2024-05-08 09:53:32			0	34122	0	0	0	18031	16660	150998	27232	964463	38799	106557	0	0	8164	749766	0	0
2024-05-08 09:54:32			0	34125	0	0	0	18049	16660	151054	27267	964463	38811	106564	0	0	8164	749619	0	0
2024-05-08 09:55:32			0	34137	0	0	0	18044	16660	150938	27085	964490	38811	106562	0	0	8165	749029	0	0
2024-05-08 09:56:32			0	34143	0	0	0	18046	16650	151058	27111	964481	38798	106563	0	0	8165	748775	0	0
2024-05-08 09:57:32			0	34153	0	0	0	18051	16660	151058	27300	964516	38822	106565	0	0	8166	748244	0	0
2024-05-08 09:58:32			0	34154	0	0	0	18051	16650	150986	26932	964481	38798	106565	0	0	8166	748235	0	0
2024-05-08 09:59:32			0	34165	0	0	0	18051	16660	150882	27199	964524	38800	106565	0	0	8166	747655	0	0
2024-05-08 10:00:32			0	34156	0	0	0	18059	16650	150930	27095	964508	38832	106568	0	0	8166	748137	0	0
2024-05-08 10:01:32			0	34145	0	0	0	18054	16660	150986	27211	964524	38811	106566	0	0	8165	748636	0	0
2024-05-08 10:02:32			0	34166	0	0	0	18064	16660	150906	27119	964498	38800	106570	0	0	8166	747606	0	0
2024-05-08 10:03:32			0	34155	0	0	0	18062	16670	150886	26739	964559	38800	106569	0	0	8166	748105	0	0
2024-05-08 10:04:32			0	34158	0	0	0	18070	16670	150946	27118	964506	38800	106572	0	0	8166	747958	0	0
2024-05-08 10:05:32			0	34155	0	0	0	18077	16670	151006	27066	964559	38811	106575	0	0	8165	748105	0	0
2024-05-08 10:06:32			0	34152	0	0	0	18080	16670	151090	27197	964612	38811	106576	0	0	8165	748252	0	0
2024-05-08 10:07:32			0	34154	0	0	0	18085	16680	151050	27142	964628	38823	106578	0	0	8165	748113	0	0
2024-05-08 10:08:32			0	34137	0	0	0	18093	16680	151054	27161	964628	38823	106581	0	0	8164	748948	0	0
2024-05-08 10:09:32			0	34154	0	0	0	18075	16690	151030	27351	964618	38813	106574	0	0	8166	748073	0	0
2024-05-08 10:10:32			0	34142	0	0	0	18088	16680	151066	27131	964636	38813	106579	0	0	8165	748703	0	0
2024-05-08 10:11:32			0	34128	0	0	0	18085	16680	151066	27429	964610	38802	106578	0	0	8164	749390	0	0
2024-05-08 10:12:32			0	34138	0	0	0	18083	16690	151082	27367	964600	38825	106577	0	0	8164	748858	0	0
2024-05-08 10:13:32			0	34144	0	0	0	18088	16700	151170	27531	964661	38814	106579	0	0	8165	748523	0	0
2024-05-08 10:14:32			0	34132	0	0	0	18090	16690	151046	27260	964706	38814	106580	0	0	8164	749153	0	0
2024-05-08 10:15:32			0	34116	0	0	0	18103	16690	151202	27284	964653	38803	106585	0	0	8163	749939	0	0
2024-05-08 10:16:32			0	34135	0	0	0	18111	16690	151086	27074	964706	38835	106588	0	0	8164	749006	0	0
2024-05-08 10:17:32			0	34124	0	0	0	18109	16700	151134	26944	964661	38803	106587	0	0	8163	749505	0	0
2024-05-08 10:18:32			0	34120	0	0	0	18116	16690	151094	27039	964732	38814	106590	0	0	8163	749743	0	0
2024-05-08 10:19:32			0	34126	0	0	0	18122	16700	151194	26939	964722	38826	106592	0	0	8163	749407	0	0
2024-05-08 10:20:32			0	34125	0	0	0	18106	16700	151110	26979	964714	38835	106586	0	0	8163	749456	0	0
2024-05-08 10:21:32			0	34106	0	0	0	18111	16710	151122	27124	964783	38793	106588	0	0	8162	750350	0	0
2024-05-08 10:22:32			0	34122	0	0	0	18101	16710	151154	27116	964730	38827	106584	0	0	8163	749563	0	0
2024-05-08 10:23:32			0	34098	0	0	0	18098	16700	151186	27142	964696	38826	106583	0	0	8162	750784	0	0
2024-05-08 10:24:32			0	34101	0	0	0	18103	16710	151170	26928	964783	38816	106585	0	0	8162	750596	0	0
2024-05-08 10:25:32			0	34097	0	0	0	18106	16710	151234	27001	964730	38816	106586	0	0	8162	750792	0	0
2024-05-08 10:26:32			0	34111	0	0	0	18116	16710	151138	26967	964739	38827	106590	0	0	8162	750104	0	0
2024-05-08 10:27:32			0	34116	0	0	0	18122	16710	151154	26960	964739	38827	106592	0	0	8163	749858	0	0
2024-05-08 10:28:32			0	34132	0	0	0	18119	16720	151098	27152	964800	38827	106591	0	0	8164	749031	0	0
2024-05-08 10:29:32			0	34120	0	0	0	18129	16730	151058	27111	964842	38817	106595	0	0	8163	749580	0	0
2024-05-08 10:30:32			0	34130	0	0	0	18129	16730	151086	27163	964816	38839	106595	0	0	8163	749089	0	0
2024-05-08 10:31:32			0	34122	0	0	0	18132	16720	151070	27072	964852	38827	106596	0	0	8163	749522	0	0
2024-05-08 10:32:32			0	34144	0	0	0	18137	16730	151026	27150	964842	38828	106598	0	0	8164	748401	0	0
2024-05-08 10:33:32			0	34131	0	0	0	18132	16730	150934	27138	964903	38806	106596	0	0	8163	749040	0	0
2024-05-08 10:34:32			0	34146	0	0	0	18142	16740	151002	27218	964938	38828	106600	0	0	8164	748263	0	0
2024-05-08 10:35:32			0	34152	0	0	0	18153	16750	150930	27164	964920	38829	106604	0	0	8164	747928	0	0
2024-05-08 10:36:32			0	34160	0	0	0	18161	16760	150906	26994	964910	38830	106607	0	0	8165	747495	0	0
2024-05-08 10:37:32			0	34160	0	0	0	18166	16750	150882	26965	965007	38830	106609	0	0	8165	747536	0	0
2024-05-08 10:38:32			0	34163	0	0	0	18171	16760	150926	27020	964971	38820	106611	0	0	8165	747348	0	0
2024-05-08 10:39:32			0	34162	0	0	0	18176	16770	150882	26909	964926	38820	106613	0	0	8165	747357	0	0
2024-05-08 10:40:32			0	34167	0	0	0	18174	16770	150838	27111	964987	38842	106612	0	0	8165	747112	0	0
2024-05-08 10:41:32			0	34166	0	0	0	18197	16770	150838	27272	965085	38841	106621	0	0	8165	747161	0	0
2024-05-08 10:42:32			0	34171	0	0	0	18244	16790	150826	27260	965231	38833	106639	0	0	8164	746834	0	0
2024-05-08 10:43:32			0	34176	0	0	0	18322	16810	150858	27166	965414	38845	106669	0	0	8163	746509	0	0
2024-05-08 10:44:32			0	34170	0	0	0	18368	16820	150882	27400	965465	38869	106687	0	0	8162	746762	0	0
2024-05-08 10:45:32			0	34169	0	0	0	18425	16850	150814	27033	965594	38849	106709	0	0	8161	746690	0	0
2024-05-08 10:46:32			0	34172	0	0	0	18436	16870	150798	27180	965751	38862	106713	0	0	8161	746462	0	0
2024-05-08 10:47:32			0	34166	0	0	0	18464	16900	150798	27308	965853	38875	106724	0	0	8161	746634	0	0
2024-05-08 10:48:32			0	34164	0	0	0	18498	16920	150758	27498	965886	38866	106737	0	0	8160	746651	0	0
2024-05-08 10:49:32			0	34190	0	0	0	18509	16940	150666	27433	966032	38869	106741	0	0	8161	745298	0	0
2024-05-08 10:50:32			0	34219	0	0	0	18514	16960	150542	27332	966118	38870	106743	0	0	8163	743800	0	0
2024-05-08 10:51:32			0	34291	0	0	0	18535	16980	150262	27268	966177	38861	106751	0	0	8167	740211	0	0
2024-05-08 10:52:32			0	34334	0	0	0	18548	17000	149966	27078	966176	38874	106756	0	0	8169	738041	0	0
2024-05-08 10:53:32			0	34356	0	0	0	18542	17020	149863	27147	966296	38908	106754	0	0	8171	736894	0	0
2024-05-08 10:54:32			0	34379	0	0	0	18542	17030	149703	27116	966312	38876	106754	0	0	8172	735740	0	0
2024-05-08 10:55:32			0	34377	0	0	0	18542	17050	149779	26870	966355	38867	106754	0	0	8172	735757	0	0
2024-05-08 10:56:32			0	34382	0	0	0	18574	17070	149807	27164	966415	38879	106766	0	0	8172	735435	0	0
2024-05-08 10:57:32			0	34368	0	0	0	18587	17080	149811	27405	966431	38891	106771	0	0	8171	736073	0	0
2024-05-08 10:58:32			0	34365	0	0	0	18584	17080	149835	26994	966492	38881	106770	0	0	8171	736218	0	0
2024-05-08 10:59:32			0	34348	0	0	0	18592	17100	149763	27211	966578	38882	106773	0	0	8170	736962	0	0
2024-05-08 11:00:32			0	34340	0	0	0	18599	17110	149770	27409	966560	38905	106776	0	0	8169	737310	0	0
2024-05-08 11:01:32			0	34347	0	0	0	18594	17120	149803	27329	966576	38894	106774	0	0	8170	736930	0	0
2024-05-08 11:02:32			0	34367	0	0	0	18605	17130	149803	26935	966654	38896	106778	0	0	8171	735922	0	0
2024-05-08 11:03:32			0	34358	0	0	0	18615	17130	149663	27220	966680	38896	106782	0	0	8170	736357	0	0
2024-05-08 11:04:32			0	34379	0	0	0	18636	17150	149635	27121	966731	38898	106790	0	0	8171	735261	0	0
2024-05-08 11:05:32			0	34382	0	0	0	18654	17160	149535	27137	966748	38909	106797	0	0	8171	735076	0	0
2024-05-08 11:06:32			0	34408	0	0	0	18659	17170	149487	27322	966817	38888	106799	0	0	8172	733779	0	0
2024-05-08 11:07:32			0	34421	0	0	0	18659	17170	149471	27462	966764	38899	106799	0	0	8173	733151	0	0
2024-05-08 11:08:32			0	34441	0	0	0	18667	17180	149367	27320	966833	38900	106802	0	0	8174	732147	0	0
2024-05-08 11:09:32			0	34464	0	0	0	18667	17190	149351	27306	966823	38879	106802	0	0	8176	730999	0	0
2024-05-08 11:10:32			0	34465	0	0	0	18667	17200	149119	27412	966893	38891	106802	0	0	8176	730911	0	0
2024-05-08 11:11:32			0	34497	0	0	0	18672	17210	148999	27012	966891	38892	106804	0	0	8177	729331	0	0
2024-05-08 11:12:32			0	34515	0	0	0	18664	17210	149003	27272	966944	38914	106801	0	0	8179	728467	0	0
2024-05-08 11:13:32			0	34510	0	0	0	18667	17210	148967	27549	966944	38903	106802	0	0	8178	728707	0	0
2024-05-08 11:14:32			0	34522	0	0	0	18670	17230	148935	27383	966968	38893	106803	0	0	8179	728051	0	0
2024-05-08 11:15:32			0	34513	0	0	0	18654	17230	148859	27514	966924	38893	106797	0	0	8179	728483	0	0
2024-05-08 11:16:32			0	34501	0	0	0	18662	17240	149043	27298	966993	38895	106800	0	0	8178	729020	0	0
2024-05-08 11:17:32			0	34483	0	0	0	18672	17240	149007	27535	967012	38894	106804	0	0	8177	729886	0	0
2024-05-08 11:18:32			0	34454	0	0	0	18680	17240	149159	27395	967038	38894	106807	0	0	8175	731282	0	0
2024-05-08 11:19:32			0	34447	0	0	0	18685	17260	149195	27199	966992	38896	106809	0	0	8175	731540	0	0
2024-05-08 11:20:32			0	34437	0	0	0	18683	17250	149247	27582	967010	38896	106808	0	0	8174	732061	0	0
2024-05-08 11:21:32			0	34435	0	0	0	18664	17250	149255	27135	967010	38896	106801	0	0	8174	732158	0	0
2024-05-08 11:22:32			0	34424	0	0	0	18657	17260	149279	27213	966965	38896	106798	0	0	8174	732649	0	0
2024-05-08 11:23:32			0	34410	0	0	0	18651	17260	149335	27575	966992	38896	106796	0	0	8173	733324	0	0
2024-05-08 11:24:32			0	34390	0	0	0	18651	17260	149371	27241	966992	38896	106796	0	0	8172	734290	0	0
2024-05-08 11:25:32			0	34413	0	0	0	18651	17260	149339	27260	966992	38907	106796	0	0	8173	733179	0	0
2024-05-08 11:26:32			0	34406	0	0	0	18659	17260	149291	27376	967044	38896	106799	0	0	8173	733517	0	0
2024-05-08 11:27:32			0	34418	0	0	0	18654	17260	149295	27488	967018	38896	106797	0	0	8173	732938	0	0
2024-05-08 11:28:32			0	34414	0	0	0	18651	17260	149363	27353	966992	38896	106796	0	0	8173	733131	0	0
2024-05-08 11:29:32			0	34405	0	0	0	18651	17260	149315	27583	966973	38908	106796	0	0	8173	733566	0	0
2024-05-08 11:30:32			0	34415	0	0	0	18662	17270	149391	27279	967008	38908	106800	0	0	8173	733043	0	0
2024-05-08 11:31:32			0	34410	0	0	0	18672	17270	149335	27267	967008	38908	106804	0	0	8173	733284	0	0
2024-05-08 11:32:32			0	34418	0	0	0	18672	17260	149331	27810	967053	38897	106804	0	0	8173	732938	0	0
2024-05-08 11:33:32			0	34416	0	0	0	18683	17260	149311	27680	967053	38918	106808	0	0	8173	733035	0	0
2024-05-08 11:34:32			0	34417	0	0	0	18680	17280	149335	27355	967077	38898	106807	0	0	8173	732907	0	0
2024-05-08 11:35:32			0	34402	0	0	0	18688	17280	149263	27573	967051	38909	106810	0	0	8172	733631	0	0
2024-05-08 11:36:32			0	34419	0	0	0	18696	17280	149327	27147	967077	38919	106813	0	0	8173	732810	0	0
2024-05-08 11:37:32			0	34416	0	0	0	18701	17290	149295	27395	967128	38911	106815	0	0	8173	732915	0	0
2024-05-08 11:38:32			0	34440	0	0	0	18706	17290	149199	27405	967120	38899	106817	0	0	8174	731758	0	0
2024-05-08 11:39:32			0	34429	0	0	0	18698	17290	149123	27523	967181	38911	106814	0	0	8174	732288	0	0
2024-05-08 11:40:32			0	34437	0	0	0	18709	17300	149155	27364	967137	38921	106818	0	0	8174	731863	0	0
2024-05-08 11:41:32			0	34462	0	0	0	18714	17300	149207	26939	967216	38911	106820	0	0	8175	730658	0	0
2024-05-08 11:42:32			0	34449	0	0	0	18716	17290	149039	27341	967181	38911	106821	0	0	8174	731324	0	0
2024-05-08 11:43:32			0	34460	0	0	0	18709	17300	149099	27111	967250	38900	106818	0	0	8175	730755	0	0
2024-05-08 11:44:32			0	34464	0	0	0	18719	17310	149091	27090	967206	38912	106822	0	0	8175	730522	0	0
2024-05-08 11:45:32			0	34464	0	0	0	18742	17310	149023	27659	967232	38901	106831	0	0	8175	730522	0	0
2024-05-08 11:46:32			0	34457	0	0	0	18758	17310	149115	27112	967285	38922	106837	0	0	8174	730859	0	0
2024-05-08 11:47:32			0	34464	0	0	0	18763	17310	149015	27256	967346	38922	106839	0	0	8174	730522	0	0
2024-05-08 11:48:32			0	34478	0	0	0	18771	17330	148983	27557	967371	38924	106842	0	0	8175	729770	0	0
2024-05-08 11:49:32			0	34457	0	0	0	18758	17330	148975	27428	967326	38924	106837	0	0	8174	730780	0	0
2024-05-08 11:50:32			0	34474	0	0	0	18750	17350	148983	27400	967396	38904	106834	0	0	8175	729883	0	0
2024-05-08 11:51:32			0	34467	0	0	0	18727	17340	149067	27409	967334	38915	106825	0	0	8175	730259	0	0
2024-05-08 11:52:32			0	34480	0	0	0	18722	17340	148979	27088	967334	38925	106823	0	0	8176	729634	0	0
2024-05-08 11:53:32			0	34494	0	0	0	18727	17350	148979	27436	967369	38915	106825	0	0	8177	728921	0	0
2024-05-08 11:54:32			0	34471	0	0	0	18735	17340	148859	27274	967334	38915	106828	0	0	8175	730066	0	0
2024-05-08 11:55:32			0	34490	0	0	0	18750	17340	148835	27289	967334	38925	106834	0	0	8176	729153	0	0
2024-05-08 11:56:32			0	34483	0	0	0	18735	17350	148795	27590	967369	38925	106828	0	0	8176	729450	0	0
2024-05-08 11:57:32			0	34498	0	0	0	18737	17350	148803	27594	967325	38916	106829	0	0	8177	728729	0	0
2024-05-08 11:58:32			0	34523	0	0	0	18737	17330	148759	27440	967273	38903	106829	0	0	8178	727608	0	0
2024-05-08 11:59:32			0	34536	0	0	0	18727	17340	148711	27152	967387	38915	106825	0	0	8179	726945	0	0
2024-05-08 12:00:32			0	34539	0	0	0	18732	17350	148679	27588	967351	38926	106827	0	0	8179	726761	0	0
2024-05-08 12:01:32			0	34560	0	0	0	18735	17350	148687	27504	967377	38916	106828	0	0	8181	725755	0	0
2024-05-08 12:02:32			0	34551	0	0	0	18742	17330	148551	27367	967405	38903	106831	0	0	8180	726265	0	0
2024-05-08 12:03:32			0	34564	0	0	0	18745	17330	148571	27289	967318	38914	106832	0	0	8181	725643	0	0
2024-05-08 12:04:32			0	34589	0	0	0	18740	17350	148515	27255	967351	38926	106830	0	0	8182	724368	0	0
2024-05-08 12:05:32			0	34605	0	0	0	18750	17350	148407	27384	967404	38916	106834	0	0	8183	723603	0	0
2024-05-08 12:06:32			0	34594	0	0	0	18737	17360	148351	27289	967412	38916	106829	0	0	8183	724089	0	0
2024-05-08 12:07:32			0	34608	0	0	0	18745	17360	148451	27284	967386	38905	106832	0	0	8183	723420	0	0
2024-05-08 12:08:32			0	34611	0	0	0	18742	17370	148387	27383	967429	38927	106831	0	0	8183	723238	0	0
2024-05-08 12:09:32			0	34614	0	0	0	18742	17360	148323	27305	967412	38916	106831	0	0	8184	723134	0	0
2024-05-08 12:10:32			0	34622	0	0	0	18740	17340	148315	27371	967387	38915	106830	0	0	8184	722830	0	0
2024-05-08 12:11:32			0	34620	0	0	0	18768	17350	148403	27495	967483	38926	106841	0	0	8183	722887	0	0
2024-05-08 12:12:32			0	34603	0	0	0	18761	17370	148279	27545	967482	38916	106838	0	0	8183	723620	0	0
2024-05-08 12:13:32			0	34613	0	0	0	18766	17360	148339	27170	967465	38905	106840	0	0	8183	723182	0	0
2024-05-08 12:14:32			0	34609	0	0	0	18768	17370	148275	27516	967455	38916	106841	0	0	8183	723333	0	0
2024-05-08 12:15:32			0	34609	0	0	0	18761	17360	148307	27462	967420	38916	106838	0	0	8183	723372	0	0
2024-05-08 12:16:32			0	34609	0	0	0	18766	17370	148415	27097	967463	38916	106840	0	0	8183	723333	0	0
2024-05-08 12:17:32			0	34599	0	0	0	18774	17370	148363	27313	967482	38927	106843	0	0	8182	723811	0	0
2024-05-08 12:18:32			0	34615	0	0	0	18776	17370	148379	27119	967437	38928	106844	0	0	8183	723047	0	0
2024-05-08 12:19:32			0	34624	0	0	0	18774	17380	148247	27492	967551	38928	106843	0	0	8184	722578	0	0
2024-05-08 12:20:32			0	34631	0	0	0	18786	17380	148295	27737	967524	38917	106848	0	0	8184	722244	0	0
2024-05-08 12:21:32			0	34609	0	0	0	18792	17380	148251	27244	967551	38940	106850	0	0	8183	723294	0	0
2024-05-08 12:22:32			0	34611	0	0	0	18797	17380	148243	27497	967559	38917	106852	0	0	8183	723198	0	0
2024-05-08 12:23:32			0	34606	0	0	0	18807	17380	148207	27557	967585	38917	106856	0	0	8182	723437	0	0
2024-05-08 12:24:32			0	34614	0	0	0	18802	17400	148399	27140	967689	38930	106854	0	0	8183	722977	0	0
2024-05-08 12:25:32			0	34590	0	0	0	18810	17400	148271	27215	967671	38930	106857	0	0	8181	724123	0	0
2024-05-08 12:26:32			0	34577	0	0	0	18825	17390	148335	27457	967681	38918	106863	0	0	8180	724784	0	0
2024-05-08 12:27:32			0	34607	0	0	0	18833	17410	148347	27331	967679	38919	106866	0	0	8182	723272	0	0
2024-05-08 12:28:32			0	34590	0	0	0	18825	17420	148411	27445	967731	38922	106863	0	0	8181	724044	0	0
2024-05-08 12:29:32			0	34591	0	0	0	18838	17420	148391	27277	967678	38933	106868	0	0	8181	723997	0	0
2024-05-08 12:30:32			0	34568	0	0	0	18838	17420	148399	27358	967757	38922	106868	0	0	8180	725096	0	0
2024-05-08 12:31:32			0	34584	0	0	0	18851	17430	148403	27339	967739	38922	106873	0	0	8180	724292	0	0
2024-05-08 12:32:32			0	34563	0	0	0	18851	17430	148499	27357	967792	38944	106873	0	0	8179	725296	0	0
2024-05-08 12:33:32			0	34564	0	0	0	18854	17430	148495	27528	967800	38933	106874	0	0	8179	725248	0	0
2024-05-08 12:34:32			0	34551	0	0	0	18851	17440	148563	27431	967790	38923	106873	0	0	8179	725831	0	0
2024-05-08 12:35:32			0	34522	0	0	0	18851	17440	148647	27462	967861	38912	106873	0	0	8177	727221	0	0
2024-05-08 12:36:32			0	34506	0	0	0	18846	17450	148755	27405	967833	38934	106871	0	0	8176	727949	0	0
2024-05-08 12:37:32			0	34481	0	0	0	18857	17450	148843	27336	967851	38923	106875	0	0	8175	729149	0	0
2024-05-08 12:38:32			0	34476	0	0	0	18854	17460	148899	27887	967902	38936	106874	0	0	8174	729350	0	0
2024-05-08 12:39:32			0	34443	0	0	0	18859	17460	148947	27588	967894	38935	106876	0	0	8172	730937	0	0
2024-05-08 12:40:32			0	34430	0	0	0	18867	17460	149075	27440	967788	38924	106879	0	0	8171	731564	0	0
2024-05-08 12:41:32			0	34411	0	0	0	18864	17460	149147	27457	967867	38924	106878	0	0	8170	732479	0	0
2024-05-08 12:42:32			0	34381	0	0	0	18872	17460	149135	27441	967928	38947	106881	0	0	8169	733927	0	0
2024-05-08 12:43:32			0	34367	0	0	0	18867	17470	149271	27526	967910	38936	106879	0	0	8168	734564	0	0
2024-05-08 12:44:32			0	34371	0	0	0	18875	17470	149315	27421	967945	38936	106882	0	0	8168	734370	0	0
2024-05-08 12:45:32			0	34354	0	0	0	18872	17480	149355	27694	967961	38938	106881	0	0	8167	735152	0	0
2024-05-08 12:46:32			0	34333	0	0	0	18885	17470	149422	27386	967971	38936	106886	0	0	8166	736208	0	0
2024-05-08 12:47:32			0	34337	0	0	0	18883	17480	149542	27526	967953	38937	106885	0	0	8166	735974	0	0
2024-05-08 12:48:32			0	34344	0	0	0	18893	17470	149478	27680	967998	38947	106889	0	0	8166	735676	0	0
2024-05-08 12:49:32			0	34329	0	0	0	18901	17490	149474	27261	968049	38939	106892	0	0	8165	736322	0	0
2024-05-08 12:50:32			0	34330	0	0	0	18906	17490	149442	27215	967996	38960	106894	0	0	8165	736273	0	0
2024-05-08 12:51:32			0	34304	0	0	0	18929	17500	149526	27646	968039	38950	106903	0	0	8163	737493	0	0
2024-05-08 12:52:32			0	34303	0	0	0	18940	17500	149586	27698	968066	38960	106907	0	0	8163	737541	0	0
2024-05-08 12:53:32			0	34323	0	0	0	18948	17500	149534	27293	968145	38950	106910	0	0	8164	736572	0	0
2024-05-08 12:54:32			0	34296	0	0	0	18950	17510	149526	27405	968170	38952	106911	0	0	8163	737840	0	0
2024-05-08 12:55:32			0	34315	0	0	0	18953	17520	149510	27483	968186	38952	106912	0	0	8164	736880	0	0
2024-05-08 12:56:32			0	34276	0	0	0	18958	17520	149506	27543	968231	38929	106914	0	0	8161	738770	0	0
2024-05-08 12:57:32			0	34295	0	0	0	18961	17540	149554	27500	968264	38963	106915	0	0	8163	737769	0	0
2024-05-08 12:58:32			0	34312	0	0	0	18968	17540	149514	27575	968290	38953	106918	0	0	8163	736944	0	0
2024-05-08 12:59:32			0	34309	0	0	0	18979	17550	149670	27604	968315	38956	106922	0	0	8163	737050	0	0
2024-05-08 13:00:32			0	34290	0	0	0	18979	17550	149554	27554	968315	38945	106922	0	0	8162	737971	0	0
2024-05-08 13:01:32			0	34291	0	0	0	18979	17560	149598	27599	968358	38945	106922	0	0	8162	737882	0	0
2024-05-08 13:02:32			0	34289	0	0	0	18994	17570	149546	27679	968366	38957	106928	0	0	8162	737939	0	0
2024-05-08 13:03:32			0	34309	0	0	0	18981	17580	149530	27566	968382	38958	106923	0	0	8163	736930	0	0
2024-05-08 13:04:32			0	34311	0	0	0	18974	17570	149518	27812	968427	38958	106920	0	0	8163	736873	0	0
2024-05-08 13:05:32			0	34293	0	0	0	18961	17580	149414	27369	968461	38968	106915	0	0	8163	737705	0	0
2024-05-08 13:06:32			0	34315	0	0	0	18963	17580	149498	27789	968390	38946	106916	0	0	8164	736639	0	0
2024-05-08 13:07:32			0	34315	0	0	0	18953	17580	149374	27815	968409	38946	106912	0	0	8164	736639	0	0
2024-05-08 13:08:32			0	34322	0	0	0	18948	17580	149366	27360	968364	38958	106910	0	0	8165	736300	0	0
2024-05-08 13:09:32			0	34325	0	0	0	18950	17570	149350	27473	968348	38946	106911	0	0	8165	736195	0	0
2024-05-08 13:10:32			0	34321	0	0	0	18927	17580	149322	27575	968364	38935	106902	0	0	8165	736348	0	0
2024-05-08 13:11:32			0	34329	0	0	0	18919	17570	149282	27585	968348	38946	106899	0	0	8165	736001	0	0
2024-05-08 13:12:32			0	34362	0	0	0	18914	17570	149235	27812	968348	38946	106897	0	0	8167	734406	0	0
2024-05-08 13:13:32			0	34361	0	0	0	18909	17570	149171	27453	968286	38934	106895	0	0	8167	734454	0	0
2024-05-08 13:14:32			0	34390	0	0	0	18914	17580	149067	27692	968277	38935	106897	0	0	8169	733014	0	0
2024-05-08 13:15:32			0	34376	0	0	0	18927	17570	149015	27357	968286	38946	106902	0	0	8168	733729	0	0
2024-05-08 13:16:32			0	34415	0	0	0	18953	17570	148959	27661	968321	38946	106912	0	0	8170	731848	0	0
2024-05-08 13:17:32			0	34425	0	0	0	18945	17570	148835	27239	968374	38946	106909	0	0	8170	731367	0	0
2024-05-08 13:18:32			0	34445	0	0	0	18937	17570	148827	27450	968321	38958	106906	0	0	8172	730404	0	0
2024-05-08 13:19:32			0	34448	0	0	0	18935	17580	148767	27281	968356	38958	106905	0	0	8172	730220	0	0
2024-05-08 13:20:32			0	34456	0	0	0	18963	17580	148819	27613	968443	38935	106916	0	0	8172	729835	0	0
2024-05-08 13:21:32			0	34481	0	0	0	18999	17590	148751	27708	968407	38926	106930	0	0	8173	728594	0	0
2024-05-08 13:22:32			0	34476	0	0	0	19044	17590	148703	27497	968565	38958	106947	0	0	8172	728834	0	0
2024-05-08 13:23:32			0	34478	0	0	0	19031	17610	148695	27339	968537	38970	106942	0	0	8172	728659	0	0
2024-05-08 13:24:32			0	34482	0	0	0	19023	17610	148735	27635	968599	38971	106939	0	0	8172	728467	0	0
2024-05-08 13:25:32			0	34470	0	0	0	19054	17620	148671	27443	968660	38960	106951	0	0	8171	729004	0	0
2024-05-08 13:26:32			0	34463	0	0	0	19062	17640	148779	27405	968685	38973	106954	0	0	8171	729261	0	0
2024-05-08 13:27:32			0	34459	0	0	0	19077	17640	148619	27261	968746	38963	106960	0	0	8170	729453	0	0
2024-05-08 13:28:32			0	34466	0	0	0	19137	17660	148759	27246	968823	38975	106983	0	0	8170	729037	0	0
2024-05-08 13:29:32			0	34490	0	0	0	19174	17670	148667	27381	968919	38964	106997	0	0	8171	727845	0	0
2024-05-08 13:30:32			0	34508	0	0	0	19140	17680	148531	27523	968970	38999	106984	0	0	8172	726943	0	0
2024-05-08 13:31:32			0	34544	0	0	0	19059	17700	148395	27571	968916	38967	106953	0	0	8176	725140	0	0
2024-05-08 13:32:32			0	34574	0	0	0	19072	17690	148195	27478	968828	38967	106958	0	0	8177	723745	0	0
2024-05-08 13:33:32			0	34598	0	0	0	19109	17700	148179	27284	968898	38968	106972	0	0	8178	722561	0	0
2024-05-08 13:34:32			0	34603	0	0	0	19028	17690	148019	27261	968828	38967	106941	0	0	8180	722361	0	0
2024-05-08 13:35:32			0	34600	0	0	0	18984	17700	148007	27483	968757	38967	106924	0	0	8180	722465	0	0
2024-05-08 13:36:32			0	34592	0	0	0	18958	17680	148115	27324	968724	38955	106914	0	0	8180	722926	0	0
2024-05-08 13:37:32			0	34574	0	0	0	19064	17670	147983	27255	968769	38964	106955	0	0	8177	723824	0	0
2024-05-08 13:38:32			0	34576	0	0	0	19064	17690	148043	27289	968802	38967	106955	0	0	8177	723650	0	0
2024-05-08 13:39:32			0	34586	0	0	0	19142	17690	148103	27708	968960	38978	106985	0	0	8177	723173	0	0
2024-05-08 13:40:32			0	34588	0	0	0	19181	17710	148151	27630	969038	38979	107000	0	0	8176	722998	0	0
2024-05-08 13:41:32			0	34585	0	0	0	19218	17730	148151	27429	969124	38981	107014	0	0	8176	723063	0	0
2024-05-08 13:42:32			0	34586	0	0	0	19189	17740	148135	27364	969175	38993	107003	0	0	8176	722976	0	0
2024-05-08 13:43:32			0	34585	0	0	0	19132	17750	148103	27516	969139	38983	106981	0	0	8177	722984	0	0
2024-05-08 13:44:32			0	34600	0	0	0	19129	17750	148023	27793	969139	38983	106980	0	0	8178	722268	0	0
2024-05-08 13:45:32			0	34576	0	0	0	19127	17750	148063	27300	969112	38983	106979	0	0	8177	723414	0	0
2024-05-08 13:46:32			0	34572	0	0	0	19077	17750	148091	27320	969007	38961	106960	0	0	8177	723605	0	0
2024-05-08 13:47:32			0	34591	0	0	0	19077	17750	148023	27296	969078	38972	106960	0	0	8178	722698	0	0
2024-05-08 13:48:32			0	34601	0	0	0	19057	17750	148003	27202	969078	38972	106952	0	0	8179	722221	0	0
2024-05-08 13:49:32			0	34625	0	0	0	19116	17750	147943	27317	969051	38994	106975	0	0	8180	721077	0	0
2024-05-08 13:50:32			0	34647	0	0	0	19127	17760	147811	27216	969068	38973	106979	0	0	8181	719991	0	0
2024-05-08 13:51:32			0	34665	0	0	0	19106	17770	147703	27426	969119	38974	106971	0	0	8182	719096	0	0
2024-05-08 13:52:32			0	34676	0	0	0	19116	17760	147651	27350	969129	38973	106975	0	0	8183	718612	0	0
2024-05-08 13:53:32			0	34695	0	0	0	19098	17770	147667	27343	969145	38974	106968	0	0	8184	717671	0	0
2024-05-08 13:54:32			0	34679	0	0	0	19106	17780	147519	27235	969259	38986	106971	0	0	8183	718391	0	0
2024-05-08 13:55:32			0	34705	0	0	0	19145	17780	147507	27279	969233	38975	106986	0	0	8184	717157	0	0
2024-05-08 13:56:32			0	34707	0	0	0	19171	17790	147515	27592	969337	38975	106996	0	0	8184	717024	0	0
2024-05-08 13:57:32			0	34723	0	0	0	19166	17810	147415	27312	969335	38977	106994	0	0	8185	716187	0	0
2024-05-08 13:58:32			0	34729	0	0	0	19161	17810	147459	27249	969396	38999	106992	0	0	8185	715903	0	0
2024-05-08 13:59:32			0	34715	0	0	0	19181	17830	147375	27469	969447	38979	107000	0	0	8184	716488	0	0
2024-05-08 14:00:32			0	34725	0	0	0	19186	17830	147335	27517	969395	38979	107002	0	0	8184	716014	0	0
2024-05-08 14:01:32			0	34725	0	0	0	19192	17840	147347	27440	969525	38981	107004	0	0	8184	715975	0	0
2024-05-08 14:02:32			0	34722	0	0	0	19186	17840	147287	27609	969525	38981	107002	0	0	8184	716118	0	0
2024-05-08 14:03:32			0	34751	0	0	0	19189	17840	147339	27661	969499	38981	107003	0	0	8186	714745	0	0
2024-05-08 14:04:32			0	34729	0	0	0	19186	17840	147299	27183	969472	38981	107002	0	0	8185	715786	0	0
2024-05-08 14:05:32			0	34737	0	0	0	19168	17850	147391	27514	969401	38958	106995	0	0	8186	715368	0	0
2024-05-08 14:06:32			0	34722	0	0	0	19171	17840	147247	27502	969411	38969	106996	0	0	8185	716118	0	0
2024-05-08 14:07:32			0	34742	0	0	0	19181	17830	147303	27272	969376	38969	107000	0	0	8185	715210	0	0
2024-05-08 14:08:32			0	34745	0	0	0	19192	17840	147223	27441	969385	38980	107004	0	0	8186	715029	0	0
2024-05-08 14:09:32			0	34735	0	0	0	19179	17830	147183	27187	969342	38968	106999	0	0	8185	715541	0	0
2024-05-08 14:10:32			0	34746	0	0	0	19186	17830	147351	27313	969368	38979	107002	0	0	8186	715020	0	0
2024-05-08 14:11:32			0	34774	0	0	0	19166	17830	147239	27509	969368	38968	106994	0	0	8188	713696	0	0
2024-05-08 14:12:32			0	34787	0	0	0	19168	17830	147119	27440	969421	38990	106995	0	0	8188	713082	0	0
2024-05-08 14:13:32			0	34782	0	0	0	19186	17820	147195	27300	969360	38968	107002	0	0	8188	713357	0	0
2024-05-08 14:14:32			0	34741	0	0	0	19205	17830	147243	27131	969403	38980	107009	0	0	8185	715257	0	0
2024-05-08 14:15:32			0	34688	0	0	0	19202	17830	147467	27369	969342	38979	107008	0	0	8182	717769	0	0
2024-05-08 14:16:32			0	34663	0	0	0	19197	17840	147607	27274	969385	38980	107006	0	0	8181	718917	0	0
2024-05-08 14:17:32			0	34609	0	0	0	19207	17830	147819	27341	969350	38969	107010	0	0	8178	721525	0	0
2024-05-08 14:18:32			0	34562	0	0	0	19197	17830	148031	27547	969456	39001	107006	0	0	8175	723767	0	0
2024-05-08 14:19:32			0	34545	0	0	0	19186	17840	148075	27232	969437	38991	107002	0	0	8174	724540	0	0
2024-05-08 14:20:32			0	34521	0	0	0	19192	17840	148215	27232	969393	38981	107004	0	0	8173	725687	0	0
2024-05-08 14:21:32			0	34493	0	0	0	19218	17840	148195	27279	969464	38980	107014	0	0	8171	727028	0	0
2024-05-08 14:22:32			0	34481	0	0	0	19223	17840	148419	27222	969490	38991	107016	0	0	8170	727603	0	0
2024-05-08 14:23:32			0	34456	0	0	0	19233	17840	148443	27124	969472	38981	107020	0	0	8169	728803	0	0
2024-05-08 14:24:32			0	34430	0	0	0	19233	17840	148619	27147	969472	38992	107020	0	0	8167	730052	0	0
2024-05-08 14:25:32			0	34402	0	0	0	19249	17850	148695	27144	969454	38981	107026	0	0	8165	731359	0	0
2024-05-08 14:26:32			0	34368	0	0	0	19244	17860	148807	27173	969497	38981	107024	0	0	8163	732957	0	0
2024-05-08 14:27:32			0	34352	0	0	0	19249	17850	148907	27502	969489	38981	107026	0	0	8162	733769	0	0
2024-05-08 14:28:32			0	34337	0	0	0	19259	17860	148990	27365	969558	38982	107030	0	0	8161	734453	0	0
2024-05-08 14:29:32			0	34336	0	0	0	19264	17880	149022	26946	969689	38994	107032	0	0	8161	734422	0	0
2024-05-08 14:30:32			0	34324	0	0	0	19270	17890	149094	27204	969811	39017	107034	0	0	8161	734961	0	0
2024-05-08 14:31:32			0	34319	0	0	0	19285	17910	149042	26986	969923	39008	107040	0	0	8160	735123	0	0
2024-05-08 14:32:32			0	34329	0	0	0	19303	17940	149038	27585	970017	39011	107047	0	0	8161	734520	0	0
2024-05-08 14:33:32			0	34325	0	0	0	19322	17960	149038	27034	970130	39012	107054	0	0	8160	734633	0	0
2024-05-08 14:34:32			0	34347	0	0	0	19348	17990	148983	27227	970232	38993	107064	0	0	8161	733451	0	0
2024-05-08 14:35:32			0	34341	0	0	0	19379	18000	148982	27388	970389	39005	107076	0	0	8160	733700	0	0
2024-05-08 14:36:32			0	34353	0	0	0	19501	18020	148963	27308	970501	39018	107123	0	0	8159	733041	0	0
2024-05-08 14:37:32			0	34356	0	0	0	19511	18050	148947	27171	970596	39020	107127	0	0	8159	732777	0	0
2024-05-08 14:38:32			0	34363	0	0	0	19488	18070	148823	27350	970655	39034	107118	0	0	8160	732360	0	0
2024-05-08 14:39:32			0	34360	0	0	0	19485	18080	148775	27384	970680	39023	107117	0	0	8160	732464	0	0
2024-05-08 14:40:32			0	34364	0	0	0	19444	18090	148687	27286	970591	39013	107101	0	0	8161	732232	0	0
2024-05-08 14:41:32			0	34364	0	0	0	19358	18090	148787	27441	970432	39002	107068	0	0	8162	732232	0	0
2024-05-08 14:42:32			0	34369	0	0	0	19436	18080	148655	27246	970548	39012	107098	0	0	8161	732031	0	0
2024-05-08 14:43:32			0	34399	0	0	0	19589	18100	148455	27557	970731	39024	107157	0	0	8160	730507	0	0
2024-05-08 14:44:32			0	34400	0	0	0	19602	18120	148543	27312	970817	39037	107162	0	0	8160	730379	0	0
2024-05-08 14:45:32			0	34410	0	0	0	19623	18140	148535	27246	970903	39017	107170	0	0	8161	729819	0	0
2024-05-08 14:46:32			0	34429	0	0	0	19605	18140	148543	27471	970964	39040	107163	0	0	8162	728907	0	0
2024-05-08 14:47:32			0	34411	0	0	0	19638	18170	148519	27568	971111	39041	107176	0	0	8161	729651	0	0
2024-05-08 14:48:32			0	34435	0	0	0	19706	18180	148455	27403	971234	39042	107202	0	0	8161	728460	0	0
2024-05-08 14:49:32			0	34428	0	0	0	19722	18210	148443	27438	971257	39035	107208	0	0	8160	728676	0	0
2024-05-08 14:50:32			0	34429	0	0	0	19664	18230	148367	27457	971316	39058	107186	0	0	8162	728549	0	0
2024-05-08 14:51:32			0	34420	0	0	0	19574	18250	148343	27256	971341	39038	107151	0	0	8163	728901	0	0
2024-05-08 14:52:32			0	34445	0	0	0	19641	18250	148183	27550	971315	39048	107177	0	0	8163	727702	0	0
2024-05-08 14:53:32			0	34464	0	0	0	19638	18270	148107	27692	971401	39029	107176	0	0	8164	726712	0	0
2024-05-08 14:54:32			0	34497	0	0	0	19571	18280	148019	27334	971391	39041	107150	0	0	8167	725094	0	0
2024-05-08 14:55:32			0	34520	0	0	0	19623	18280	147863	27329	971444	39041	107170	0	0	8168	723995	0	0
2024-05-08 14:56:32			0	34560	0	0	0	19657	18300	147787	27471	971529	39052	107183	0	0	8169	722009	0	0
2024-05-08 14:57:32			0	34592	0	0	0	19675	18300	147567	27661	971617	39042	107190	0	0	8171	720485	0	0
2024-05-08 14:58:32			0	34624	0	0	0	19599	18320	147335	27580	971589	39054	107161	0	0	8174	718886	0	0
2024-05-08 14:59:32			0	34609	0	0	0	19638	18340	147291	27213	971630	39057	107176	0	0	8173	719520	0	0
2024-05-08 15:00:32			0	34664	0	0	0	19680	18340	147267	27571	971596	39057	107192	0	0	8175	716910	0	0
2024-05-08 15:01:32			0	34663	0	0	0	19677	18340	147211	27296	971657	39035	107191	0	0	8175	716958	0	0
2024-05-08 15:02:32			0	34664	0	0	0	19680	18350	146939	27371	971638	39046	107192	0	0	8175	716871	0	0
2024-05-08 15:03:32			0	34705	0	0	0	19719	18360	146951	27582	971682	39037	107207	0	0	8177	714892	0	0
2024-05-08 15:04:32			0	34704	0	0	0	19719	18350	147035	27594	971726	39046	107207	0	0	8177	714978	0	0
2024-05-08 15:05:32			0	34730	0	0	0	19724	18370	146863	27516	971804	39059	107209	0	0	8178	713672	0	0
2024-05-08 15:06:32			0	34735	0	0	0	19737	18380	146795	27708	971768	39039	107214	0	0	8178	713397	0	0
2024-05-08 15:07:32			0	34746	0	0	0	19758	18380	146795	27789	971802	39060	107222	0	0	8178	712878	0	0
2024-05-08 15:08:32			0	34743	0	0	0	19786	18390	146799	27367	971872	39040	107233	0	0	8178	712980	0	0
2024-05-08 15:09:32			0	34777	0	0	0	19797	18390	146751	27294	971872	39040	107237	0	0	8180	711377	0	0
2024-05-08 15:10:32			0	34775	0	0	0	19781	18410	146679	27500	971897	39041	107231	0	0	8180	711394	0	0
2024-05-08 15:11:32			0	34804	0	0	0	19781	18400	146503	27805	971888	39052	107231	0	0	8181	710068	0	0
2024-05-08 15:12:32			0	34814	0	0	0	19802	18410	146443	27625	971958	39064	107239	0	0	8182	709559	0	0
2024-05-08 15:13:32			0	34828	0	0	0	19815	18420	146367	27632	971966	39052	107244	0	0	8182	708862	0	0
2024-05-08 15:14:32			0	34842	0	0	0	19773	18420	146343	27291	972054	39076	107228	0	0	8184	708205	0	0
2024-05-08 15:15:32			0	34876	0	0	0	19763	18430	146263	27362	972017	39065	107224	0	0	8186	706572	0	0
2024-05-08 15:16:32			0	34880	0	0	0	19797	18440	146147	27509	972025	39054	107237	0	0	8186	706346	0	0
2024-05-08 15:17:32			0	34928	0	0	0	19812	18440	146083	27582	972007	39066	107243	0	0	8188	704100	0	0
2024-05-08 15:18:32			0	34948	0	0	0	19823	18430	145935	27414	972070	39054	107247	0	0	8189	703205	0	0
2024-05-08 15:19:32			0	34960	0	0	0	19854	18440	145819	27734	972140	39066	107259	0	0	8189	702606	0	0
2024-05-08 15:20:32			0	34971	0	0	0	19857	18460	145743	27918	972226	39079	107260	0	0	8190	702016	0	0
2024-05-08 15:21:32			0	34990	0	0	0	19880	18460	145687	27833	972252	39079	107269	0	0	8190	701131	0	0
2024-05-08 15:22:32			0	35022	0	0	0	19896	18470	145711	27563	972295	39080	107275	0	0	8192	699603	0	0
2024-05-08 15:23:32			0	35022	0	0	0	19922	18490	145595	27632	972373	39082	107285	0	0	8192	699527	0	0
2024-05-08 15:24:32			0	35038	0	0	0	19935	18510	145591	27705	972424	39071	107290	0	0	8192	698707	0	0
2024-05-08 15:25:32			0	35040	0	0	0	19924	18540	145543	27590	972500	39085	107286	0	0	8193	698499	0	0
2024-05-08 15:26:32			0	35067	0	0	0	19909	18550	145427	27194	972543	39096	107280	0	0	8195	697208	0	0
2024-05-08 15:27:32			0	35054	0	0	0	19929	18560	145403	27608	972586	39098	107288	0	0	8194	697773	0	0
2024-05-08 15:28:32			0	35078	0	0	0	19986	18560	145275	27486	972674	39098	107310	0	0	8194	696660	0	0
2024-05-08 15:29:32			0	35090	0	0	0	19994	18580	145243	27234	972707	39089	107313	0	0	8195	696028	0	0
2024-05-08 15:30:32			0	35112	0	0	0	20018	18590	145188	27488	972750	39089	107322	0	0	8195	694971	0	0
2024-05-08 15:31:32			0	35112	0	0	0	20023	18590	145087	27500	972723	39079	107324	0	0	8195	694971	0	0
2024-05-08 15:32:32			0	35129	0	0	0	20020	18590	145032	27800	972723	39100	107323	0	0	8196	694185	0	0
2024-05-08 15:33:32			0	35152	0	0	0	20018	18620	144904	27507	972800	39083	107322	0	0	8198	693009	0	0
2024-05-08 15:34:32			0	35133	0	0	0	20015	18610	145024	27582	972836	39091	107321	0	0	8197	693924	0	0
2024-05-08 15:35:32			0	35087	0	0	0	20023	18630	145279	27739	972975	39104	107324	0	0	8194	695976	0	0
2024-05-08 15:36:32			0	35029	0	0	0	20036	18640	145439	27852	972939	39094	107329	0	0	8191	698628	0	0
2024-05-08 15:37:32			0	34998	0	0	0	20025	18650	145539	27490	972956	39106	107325	0	0	8189	700030	0	0
2024-05-08 15:38:32			0	34954	0	0	0	20012	18660	145719	27381	972964	39106	107320	0	0	8187	702041	0	0
2024-05-08 15:39:32			0	34922	0	0	0	20005	18670	145871	27831	973113	39086	107317	0	0	8185	703495	0	0
2024-05-08 15:40:32			0	34871	0	0	0	20010	18680	146091	27384	973182	39108	107319	0	0	8183	705840	0	0
2024-05-08 15:41:32			0	34858	0	0	0	20051	18680	146087	27367	973058	39109	107335	0	0	8181	706449	0	0
2024-05-08 15:42:32			0	34848	0	0	0	20075	18680	146147	27338	973138	39109	107344	0	0	8180	706917	0	0
2024-05-08 15:43:32			0	34834	0	0	0	20085	18710	146255	27677	973205	39112	107348	0	0	8179	707457	0	0
2024-05-08 15:44:32			0	34808	0	0	0	20124	18720	146223	27566	973328	39101	107363	0	0	8177	708638	0	0
2024-05-08 15:45:32			0	34836	0	0	0	20150	18720	146279	27166	973336	39124	107373	0	0	8178	707325	0	0
2024-05-08 15:46:32			0	34805	0	0	0	20155	18730	146323	27505	973326	39092	107375	0	0	8177	708740	0	0
2024-05-08 15:47:32			0	34810	0	0	0	20155	18750	146339	27223	973465	39116	107375	0	0	8177	708428	0	0
2024-05-08 15:48:32			0	34817	0	0	0	20135	18750	146243	27561	973412	39116	107367	0	0	8178	708100	0	0
2024-05-08 15:49:32			0	34828	0	0	0	20132	18770	146195	27739	973419	39106	107366	0	0	8178	707506	0	0
2024-05-08 15:50:32			0	34865	0	0	0	20122	18770	145947	27575	973525	39118	107362	0	0	8181	705773	0	0
2024-05-08 15:51:32			0	34938	0	0	0	20137	18780	145715	27428	973515	39107	107368	0	0	8185	702325	0	0
2024-05-08 15:52:32			0	34986	0	0	0	20148	18780	145511	27620	973454	39106	107372	0	0	8187	700090	0	0
2024-05-08 15:53:32			0	34991	0	0	0	20148	18780	145467	27628	973454	39095	107372	0	0	8187	699858	0	0
2024-05-08 15:54:32			0	34979	0	0	0	20158	18780	145455	27552	973515	39107	107376	0	0	8186	700416	0	0
2024-05-08 15:55:32			0	34975	0	0	0	20176	18780	145587	27614	973541	39096	107383	0	0	8186	700602	0	0
2024-05-08 15:56:32			0	34957	0	0	0	20215	18800	145671	27447	973558	39130	107398	0	0	8184	701363	0	0
2024-05-08 15:57:32			0	34936	0	0	0	20202	18800	145731	27814	973699	39130	107393	0	0	8183	702342	0	0
2024-05-08 15:58:32			0	34886	0	0	0	20163	18820	145839	27890	973644	39131	107378	0	0	8181	704598	0	0
2024-05-08 15:59:32			0	34855	0	0	0	20114	18830	146043	27447	973581	39111	107359	0	0	8181	706009	0	0
2024-05-08 16:00:32			0	34823	0	0	0	20059	18820	146203	27466	973573	39111	107338	0	0	8180	707547	0	0
2024-05-08 16:01:32			0	34797	0	0	0	19999	18810	146179	27526	973424	39087	107315	0	0	8179	708805	0	0
2024-05-08 16:02:32			0	34805	0	0	0	20007	18790	146171	27545	973338	39075	107318	0	0	8179	708507	0	0
2024-05-08 16:03:32			0	34839	0	0	0	20007	18780	146175	27436	973268	39074	107318	0	0	8181	706952	0	0
2024-05-08 16:04:32			0	34868	0	0	0	19984	18770	146063	27519	973154	39084	107309	0	0	8183	705633	0	0
2024-05-08 16:05:32			0	34900	0	0	0	19968	18760	145827	27438	973156	39083	107303	0	0	8185	704176	0	0
2024-05-08 16:06:32			0	34946	0	0	0	19961	18740	145679	27689	973070	39082	107300	0	0	8188	702106	0	0
2024-05-08 16:07:32			0	34970	0	0	0	19932	18730	145515	27384	973035	39092	107289	0	0	8190	701027	0	0
2024-05-08 16:08:32			0	35026	0	0	0	19914	18720	145327	27338	972992	39080	107282	0	0	8193	698461	0	0
2024-05-08 16:09:32			0	35061	0	0	0	19903	18710	145175	27024	972941	39079	107278	0	0	8195	696876	0	0
2024-05-08 16:10:32			0	35088	0	0	0	19872	18680	145023	27296	972820	39065	107266	0	0	8197	695739	0	0
2024-05-08 16:11:32			0	35126	0	0	0	19836	18680	144808	27464	972767	39076	107252	0	0	8200	693982	0	0
2024-05-08 16:12:32			0	35167	0	0	0	19828	18670	144760	27355	972716	39064	107249	0	0	8202	692127	0	0
2024-05-08 16:13:32			0	35208	0	0	0	19823	18650	144592	27443	972691	39052	107247	0	0	8204	690314	0	0
2024-05-08 16:14:32			0	35226	0	0	0	19831	18630	144496	27705	972578	39071	107250	0	0	8205	689561	0	0
2024-05-08 16:15:32			0	35272	0	0	0	19812	18620	144304	27800	972500	39070	107243	0	0	8208	687485	0	0
2024-05-08 16:16:32			0	35297	0	0	0	19812	18610	144288	27836	972457	39070	107243	0	0	8209	686376	0	0
2024-05-08 16:17:32			0	35344	0	0	0	19810	18590	144084	27350	972424	39046	107242	0	0	8212	684299	0	0
2024-05-08 16:18:32			0	35365	0	0	0	19807	18580	143948	27448	972469	39068	107241	0	0	8213	683377	0	0
2024-05-08 16:19:32			0	35399	0	0	0	19784	18570	143864	27623	972346	39066	107232	0	0	8215	681862	0	0
2024-05-08 16:20:32			0	35400	0	0	0	19771	18560	143764	27364	972322	39054	107227	0	0	8215	681853	0	0
2024-05-08 16:21:32			0	35429	0	0	0	19763	18550	143708	27357	972226	39052	107224	0	0	8217	680569	0	0
2024-05-08 16:22:32			0	35442	0	0	0	19763	18540	143656	27530	972244	39052	107224	0	0	8218	680014	0	0
2024-05-08 16:23:32			0	35471	0	0	0	19768	18520	143600	27653	972158	39041	107226	0	0	8219	678768	0	0
2024-05-08 16:24:32			0	35470	0	0	0	19766	18520	143632	27422	972131	39051	107225	0	0	8219	678814	0	0
2024-05-08 16:25:32			0	35505	0	0	0	19755	18510	143592	27438	972160	39049	107221	0	0	8221	677261	0	0
2024-05-08 16:26:32			0	35526	0	0	0	19703	18500	143336	27578	972072	39060	107201	0	0	8223	676345	0	0
2024-05-08 16:27:32			0	35533	0	0	0	19677	18480	143344	27334	971994	39037	107191	0	0	8224	676101	0	0
2024-05-08 16:28:32			0	35566	0	0	0	19672	18460	143292	27679	971987	39057	107189	0	0	8226	674680	0	0
2024-05-08 16:29:32			0	35529	0	0	0	19670	18460	143308	27289	971900	39045	107188	0	0	8224	676357	0	0
2024-05-08 16:30:32			0	35484	0	0	0	19675	18450	143584	27353	971830	39056	107190	0	0	8221	678437	0	0
2024-05-08 16:31:32			0	35376	0	0	0	19667	18430	144032	27478	971858	39033	107187	0	0	8215	683434	0	0
2024-05-08 16:32:32			0	35231	0	0	0	19654	18430	144616	27635	971824	39032	107182	0	0	8207	690086	0	0
2024-05-08 16:33:32			0	35101	0	0	0	19649	18420	145175	27744	971736	39042	107180	0	0	8200	696127	0	0
2024-05-08 16:34:32			0	34983	0	0	0	19641	18410	145643	27519	971640	39041	107177	0	0	8194	701649	0	0
2024-05-08 16:35:32			0	34909	0	0	0	19631	18400	145923	27410	971642	39041	107173	0	0	8190	705143	0	0
2024-05-08 16:36:32			0	34835	0	0	0	19618	18390	146203	27405	971625	39040	107168	0	0	8186	708650	0	0
2024-05-08 16:37:32			0	34779	0	0	0	19610	18380	146463	27460	971591	39039	107165	0	0	8183	711322	0	0
2024-05-08 16:38:32			0	34750	0	0	0	19605	18360	146651	27900	971505	39026	107163	0	0	8181	712767	0	0
2024-05-08 16:39:32			0	34732	0	0	0	19602	18350	146747	27279	971488	39025	107162	0	0	8180	713655	0	0
2024-05-08 16:40:32			0	34685	0	0	0	19610	18350	146931	27588	971488	39025	107165	0	0	8177	715877	0	0
2024-05-08 16:41:32			0	34657	0	0	0	19594	18340	147027	27201	971437	39024	107159	0	0	8176	717242	0	0
2024-05-08 16:42:32			0	34633	0	0	0	19594	18320	147063	26970	971457	39043	107159	0	0	8175	718459	0	0
2024-05-08 16:43:32			0	34595	0	0	0	19602	18330	147375	27585	971447	39045	107162	0	0	8172	720225	0	0
2024-05-08 16:44:32			0	34554	0	0	0	19581	18320	147447	27138	971351	39033	107154	0	0	8170	722216	0	0
2024-05-08 16:45:32			0	34552	0	0	0	19581	18310	147511	27161	971414	39032	107154	0	0	8170	722350	0	0
2024-05-08 16:46:32			0	34544	0	0	0	19589	18300	147695	27348	971326	39042	107157	0	0	8170	722771	0	0
2024-05-08 16:47:32			0	34519	0	0	0	19586	18300	147767	27360	971300	39021	107156	0	0	8168	723964	0	0
2024-05-08 16:48:32			0	34499	0	0	0	19581	18300	147803	27441	971212	39041	107154	0	0	8167	724919	0	0
2024-05-08 16:49:32			0	34474	0	0	0	19584	18280	147795	27658	971232	39018	107155	0	0	8166	726194	0	0
2024-05-08 16:50:32			0	34475	0	0	0	19592	18280	147911	27390	971232	39029	107158	0	0	8166	726146	0	0
2024-05-08 16:51:32			0	34465	0	0	0	19594	18270	147855	27105	971197	39041	107159	0	0	8165	726664	0	0
2024-05-08 16:52:32			0	34480	0	0	0	19576	18270	147891	27249	971171	39029	107152	0	0	8166	725946	0	0
2024-05-08 16:53:32			0	34467	0	0	0	19576	18260	147907	27466	971172	39039	107152	0	0	8165	726608	0	0
2024-05-08 16:54:32			0	34471	0	0	0	19568	18250	147815	27587	971209	39027	107149	0	0	8166	726456	0	0
2024-05-08 16:55:32			0	34476	0	0	0	19558	18240	147799	27784	971121	39048	107145	0	0	8166	726257	0	0
2024-05-08 16:56:32			0	34495	0	0	0	19566	18230	147775	27659	971078	39014	107148	0	0	8167	725387	0	0
2024-05-08 16:57:32			0	34516	0	0	0	19563	18230	147755	27478	971043	39036	107147	0	0	8168	724384	0	0
2024-05-08 16:58:32			0	34521	0	0	0	19561	18230	147779	27802	971025	39036	107146	0	0	8168	724145	0	0
2024-05-08 16:59:32			0	34544	0	0	0	19548	18230	147651	27883	971078	39036	107141	0	0	8170	723047	0	0
2024-05-08 17:00:32			0	34554	0	0	0	19553	18220	147583	27462	971062	39014	107143	0	0	8170	722610	0	0
2024-05-08 17:01:32			0	34570	0	0	0	19535	18200	147531	27485	970984	39023	107136	0	0	8172	721926	0	0
2024-05-08 17:02:32			0	34580	0	0	0	19537	18220	147447	27535	971009	39014	107137	0	0	8172	721371	0	0
2024-05-08 17:03:32			0	34604	0	0	0	19535	18220	147327	27258	971027	39035	107136	0	0	8174	720229	0	0
2024-05-08 17:04:32			0	34624	0	0	0	19529	18210	147259	27284	970992	39035	107134	0	0	8175	719318	0	0
2024-05-08 17:05:32			0	34643	0	0	0	19529	18220	147271	27310	970974	39024	107134	0	0	8176	718376	0	0
2024-05-08 17:06:32			0	34660	0	0	0	19529	18210	147155	27646	971019	39035	107134	0	0	8177	717609	0	0
2024-05-08 17:07:32			0	34687	0	0	0	19527	18200	147159	27505	970984	39035	107133	0	0	8178	716369	0	0
2024-05-08 17:08:32			0	34696	0	0	0	19532	18210	147043	27300	970966	39035	107135	0	0	8179	715904	0	0
2024-05-08 17:09:32			0	34701	0	0	0	19527	18200	147027	27604	970984	39023	107133	0	0	8179	715706	0	0
2024-05-08 17:10:32			0	34701	0	0	0	19524	18200	146927	27483	970976	39023	107132	0	0	8179	715706	0	0
2024-05-08 17:11:32			0	34712	0	0	0	19532	18200	146875	27345	970976	39034	107135	0	0	8180	715186	0	0
2024-05-08 17:12:32			0	34727	0	0	0	19529	18190	147007	27550	970986	39043	107134	0	0	8180	714515	0	0
2024-05-08 17:13:32			0	34739	0	0	0	19527	18190	146959	27770	970933	39022	107133	0	0	8181	713948	0	0
2024-05-08 17:14:32			0	34717	0	0	0	19532	18190	146923	27639	970914	39034	107135	0	0	8180	714988	0	0
2024-05-08 17:15:32			0	34733	0	0	0	19519	18190	146883	27457	970941	39023	107130	0	0	8181	714232	0	0
2024-05-08 17:16:32			0	34739	0	0	0	19529	18190	146971	27374	970941	39034	107134	0	0	8181	713948	0	0
2024-05-08 17:17:32			0	34733	0	0	0	19514	18190	147007	27341	970933	39022	107128	0	0	8181	714232	0	0
2024-05-08 17:18:32			0	34738	0	0	0	19527	18170	146979	27251	970847	39031	107133	0	0	8181	714074	0	0
2024-05-08 17:19:32			0	34728	0	0	0	19524	18190	146955	27448	970880	39022	107132	0	0	8181	714468	0	0
2024-05-08 17:20:32			0	34710	0	0	0	19516	18190	146943	27685	970941	39023	107129	0	0	8180	715319	0	0
2024-05-08 17:21:32			0	34690	0	0	0	19522	18180	147095	27486	970890	39032	107131	0	0	8178	716305	0	0
2024-05-08 17:22:32			0	34690	0	0	0	19527	18200	147095	27396	970976	39023	107133	0	0	8178	716227	0	0
2024-05-08 17:23:32			0	34689	0	0	0	19522	18190	147163	27713	970914	39034	107131	0	0	8178	716313	0	0
2024-05-08 17:24:32			0	34666	0	0	0	19524	18170	147239	27547	970908	39042	107132	0	0	8177	717481	0	0
2024-05-08 17:25:32			0	34649	0	0	0	19522	18170	147379	27635	970873	39031	107131	0	0	8176	718288	0	0
2024-05-08 17:26:32			0	34641	0	0	0	19522	18170	147359	27708	970900	39041	107131	0	0	8176	718668	0	0
2024-05-08 17:27:32			0	34639	0	0	0	19503	18170	147323	27429	970908	39042	107124	0	0	8176	718763	0	0
2024-05-08 17:28:32			0	34642	0	0	0	19509	18170	147391	27213	970881	39010	107126	0	0	8176	718620	0	0
2024-05-08 17:29:32			0	34607	0	0	0	19490	18170	147463	27303	970794	39041	107119	0	0	8174	720283	0	0
2024-05-08 17:30:32			0	34625	0	0	0	19493	18160	147471	27261	970830	39030	107120	0	0	8175	719467	0	0
2024-05-08 17:31:32			0	34582	0	0	0	19503	18160	147643	27395	970777	39030	107124	0	0	8173	721512	0	0
2024-05-08 17:32:32			0	34567	0	0	0	19493	18140	147627	27569	970726	39017	107120	0	0	8172	722306	0	0
2024-05-08 17:33:32			0	34570	0	0	0	19493	18140	147743	27365	970753	39017	107120	0	0	8172	722163	0	0
2024-05-08 17:34:32			0	34573	0	0	0	19493	18140	147747	27419	970673	39029	107120	0	0	8172	722020	0	0
2024-05-08 17:35:32			0	34548	0	0	0	19483	18130	147799	27589	970701	39039	107116	0	0	8171	723251	0	0
2024-05-08 17:36:32			0	34540	0	0	0	19488	18130	147835	27138	970710	39006	107118	0	0	8170	723633	0	0
2024-05-08 17:37:32			0	34558	0	0	0	19483	18120	147823	27248	970659	39026	107116	0	0	8171	722814	0	0
2024-05-08 17:38:32			0	34523	0	0	0	19475	18130	147931	27187	970710	39017	107113	0	0	8170	724445	0	0
2024-05-08 17:39:32			0	34535	0	0	0	19472	18120	147903	27530	970746	39016	107112	0	0	8170	723911	0	0
2024-05-08 17:40:32			0	34524	0	0	0	19470	18120	147915	27197	970640	39027	107111	0	0	8170	724437	0	0
2024-05-08 17:41:32			0	34507	0	0	0	19464	18120	148059	27145	970606	39015	107109	0	0	8169	725249	0	0
2024-05-08 17:42:32			0	34497	0	0	0	19464	18120	148055	27183	970659	39015	107109	0	0	8168	725727	0	0
2024-05-08 17:43:32			0	34475	0	0	0	19472	18120	148107	27339	970685	39015	107112	0	0	8167	726781	0	0
2024-05-08 17:44:32			0	34478	0	0	0	19454	18110	148147	27659	970642	39026	107105	0	0	8167	726677	0	0
2024-05-08 17:45:32			0	34448	0	0	0	19451	18110	148231	27447	970589	39037	107104	0	0	8166	728114	0	0
2024-05-08 17:46:32			0	34440	0	0	0	19449	18100	148307	27576	970607	39025	107103	0	0	8165	728538	0	0
2024-05-08 17:47:32			0	34455	0	0	0	19446	18100	148383	27358	970581	39014	107102	0	0	8166	727818	0	0
2024-05-08 17:48:32			0	34417	0	0	0	19441	18100	148371	27272	970528	39036	107100	0	0	8164	729642	0	0
2024-05-08 17:49:32			0	34422	0	0	0	19441	18100	148359	27249	970607	39025	107100	0	0	8164	729402	0	0
2024-05-08 17:50:32			0	34421	0	0	0	19436	18100	148307	27352	970519	39013	107098	0	0	8164	729450	0	0
2024-05-08 17:51:32			0	34412	0	0	0	19433	18090	148403	27459	970556	39024	107097	0	0	8164	729922	0	0
2024-05-08 17:52:32			0	34420	0	0	0	19436	18090	148451	27595	970538	39035	107098	0	0	8164	729538	0	0
2024-05-08 17:53:32			0	34393	0	0	0	19420	18090	148471	27301	970538	39013	107092	0	0	8163	730835	0	0
2024-05-08 17:54:32			0	34389	0	0	0	19418	18090	148427	27365	970556	39024	107091	0	0	8163	731028	0	0
2024-05-08 17:55:32			0	34422	0	0	0	19420	18080	148451	27521	970495	39012	107092	0	0	8165	729481	0	0
2024-05-08 17:56:32			0	34414	0	0	0	19376	18080	148391	27298	970548	39023	107075	0	0	8165	729866	0	0
2024-05-08 17:57:32			0	34425	0	0	0	19358	18070	148399	27459	970478	39023	107068	0	0	8166	729377	0	0
2024-05-08 17:58:32			0	34421	0	0	0	19361	18080	148371	27064	970354	39023	107069	0	0	8165	729529	0	0
2024-05-08 17:59:32			0	34429	0	0	0	19350	18070	148367	27431	970364	39023	107065	0	0	8166	729185	0	0
2024-05-08 18:00:32			0	34444	0	0	0	19355	18060	148351	27326	970303	39011	107067	0	0	8167	728505	0	0
2024-05-08 18:01:32			0	34437	0	0	0	19348	18050	148299	27473	970287	38999	107064	0	0	8166	728881	0	0
2024-05-08 18:02:32			0	34428	0	0	0	19350	18040	148331	27218	970315	38998	107065	0	0	8166	729352	0	0
2024-05-08 18:03:32			0	34446	0	0	0	19337	18030	148311	27161	970174	39007	107060	0	0	8167	728528	0	0
2024-05-08 18:04:32			0	34439	0	0	0	19332	18030	148271	27450	970219	39018	107058	0	0	8167	728864	0	0
2024-05-08 18:05:32			0	34449	0	0	0	19329	18030	148239	27447	970219	38997	107057	0	0	8167	728384	0	0
2024-05-08 18:06:32			0	34451	0	0	0	19335	18030	148231	27346	970192	39007	107059	0	0	8167	728288	0	0
2024-05-08 18:07:32			0	34461	0	0	0	19329	18010	148267	27121	970080	39005	107057	0	0	8168	727888	0	0
2024-05-08 18:08:32			0	34469	0	0	0	19322	18010	148351	27076	970107	39005	107054	0	0	8169	727504	0	0
2024-05-08 18:09:32			0	34461	0	0	0	19322	18000	148235	27568	970178	39005	107054	0	0	8168	727928	0	0
2024-05-08 18:10:32			0	34472	0	0	0	19324	18000	148279	27322	970151	39005	107055	0	0	8169	727400	0	0
2024-05-08 18:11:32			0	34484	0	0	0	19319	18010	148235	27789	970186	39017	107053	0	0	8169	726786	0	0
2024-05-08 18:12:32			0	34469	0	0	0	19322	17990	148319	27748	970108	39015	107054	0	0	8168	727584	0	0
2024-05-08 18:13:32			0	34464	0	0	0	19311	17990	148207	27604	970082	38993	107050	0	0	8168	727823	0	0
2024-05-08 18:14:32			0	34460	0	0	0	19319	17990	148187	27672	970100	39014	107053	0	0	8168	728015	0	0
2024-05-08 18:15:32			0	34470	0	0	0	19306	17990	148183	27239	970074	38993	107048	0	0	8169	727536	0	0
2024-05-08 18:16:32			0	34480	0	0	0	19306	17990	148187	27156	970047	38993	107048	0	0	8169	727057	0	0
2024-05-08 18:17:32			0	34493	0	0	0	19301	17990	148243	27175	970047	38993	107046	0	0	8170	726434	0	0
2024-05-08 18:18:32			0	34502	0	0	0	19293	17970	148143	27514	970022	38992	107043	0	0	8171	726082	0	0
2024-05-08 18:19:32			0	34515	0	0	0	19298	17980	148151	27239	970065	39014	107045	0	0	8171	725421	0	0
2024-05-08 18:20:32			0	34498	0	0	0	19298	17980	148055	27322	969986	38993	107045	0	0	8170	726234	0	0
2024-05-08 18:21:32			0	34511	0	0	0	19301	17970	148175	27327	969996	39002	107046	0	0	8171	725651	0	0
2024-05-08 18:22:32			0	34513	0	0	0	19298	17970	148099	27464	969935	39001	107045	0	0	8171	725556	0	0
2024-05-08 18:23:32			0	34527	0	0	0	19296	17960	148103	27239	969979	39001	107044	0	0	8172	724926	0	0
2024-05-08 18:24:32			0	34521	0	0	0	19293	17970	148027	27164	969969	38992	107043	0	0	8172	725173	0	0
2024-05-08 18:25:32			0	34533	0	0	0	19285	17960	148027	27460	969971	39012	107040	0	0	8173	724639	0	0
2024-05-08 18:26:32			0	34521	0	0	0	19293	17960	147943	27150	969953	38991	107043	0	0	8172	725213	0	0
2024-05-08 18:27:32			0	34538	0	0	0	19301	17960	148031	27416	970024	38991	107046	0	0	8173	724400	0	0
2024-05-08 18:28:32			0	34534	0	0	0	19309	17950	148043	27410	970007	39011	107049	0	0	8172	724631	0	0
2024-05-08 18:29:32			0	34532	0	0	0	19293	17950	148015	27293	969963	39000	107043	0	0	8172	724726	0	0
2024-05-08 18:30:32			0	34523	0	0	0	19288	17950	147887	27319	969963	39000	107041	0	0	8172	725157	0	0
2024-05-08 18:31:32			0	34540	0	0	0	19280	17950	147907	26927	969928	38989	107038	0	0	8173	724344	0	0
2024-05-08 18:32:32			0	34551	0	0	0	19272	17950	147927	27076	969989	39000	107035	0	0	8174	723819	0	0
2024-05-08 18:33:32			0	34546	0	0	0	19270	17950	147947	27533	969936	39000	107034	0	0	8173	724057	0	0
2024-05-08 18:34:32			0	34566	0	0	0	19254	17940	147951	27334	969946	39011	107028	0	0	8175	723142	0	0
2024-05-08 18:35:32			0	34571	0	0	0	19244	17950	147887	27410	969963	39000	107024	0	0	8175	722864	0	0
2024-05-08 18:36:32			0	34557	0	0	0	19257	17950	147731	27426	969875	39000	107029	0	0	8174	723532	0	0
2024-05-08 18:37:32			0	34562	0	0	0	19244	17940	147851	27298	969893	39011	107024	0	0	8175	723333	0	0
2024-05-08 18:38:32			0	34574	0	0	0	19228	17930	147751	27583	969877	38988	107018	0	0	8176	722800	0	0
2024-05-08 18:39:32			0	34576	0	0	0	19223	17930	147827	27251	969850	38977	107016	0	0	8176	722704	0	0
2024-05-08 18:40:32			0	34572	0	0	0	19220	17940	147863	27358	969840	39011	107015	0	0	8176	722856	0	0
2024-05-08 18:41:32			0	34583	0	0	0	19215	17930	147771	27490	969763	38987	107013	0	0	8176	722371	0	0
2024-05-08 18:42:32			0	34566	0	0	0	19205	17920	147747	27440	969834	38987	107009	0	0	8176	723221	0	0
2024-05-08 18:43:32			0	34585	0	0	0	19181	17930	147791	27358	969789	38999	107000	0	0	8177	722275	0	0
2024-05-08 18:44:32			0	34594	0	0	0	19194	17910	147767	27575	969765	38987	107005	0	0	8177	721925	0	0
2024-05-08 18:45:32			0	34598	0	0	0	19168	17900	147799	27274	969695	38996	106995	0	0	8178	721774	0	0
2024-05-08 18:46:32			0	34587	0	0	0	19142	17900	147675	27734	969642	38985	106985	0	0	8178	722298	0	0
2024-05-08 18:47:32			0	34613	0	0	0	19150	17890	147747	27384	969599	38974	106988	0	0	8179	721099	0	0
2024-05-08 18:48:32			0	34616	0	0	0	19155	17880	147607	27583	969583	38983	106990	0	0	8179	720995	0	0
2024-05-08 18:49:32			0	34620	0	0	0	19142	17860	147543	27358	969479	38971	106985	0	0	8179	720883	0	0
2024-05-08 18:50:32			0	34660	0	0	0	19142	17860	147507	27196	969444	39003	106985	0	0	8182	718981	0	0
2024-05-08 18:51:32			0	34666	0	0	0	19140	17850	147523	27183	969409	38981	106984	0	0	8182	718735	0	0
2024-05-08 18:52:32			0	34667	0	0	0	19103	17840	147507	27685	969385	38980	106970	0	0	8183	718726	0	0
2024-05-08 18:53:32			0	34669	0	0	0	19101	17820	147379	27422	969272	38967	106969	0	0	8183	718710	0	0
2024-05-08 18:54:32			0	34676	0	0	0	19083	17810	147335	27097	969317	38966	106962	0	0	8183	718416	0	0
2024-05-08 18:55:32			0	34705	0	0	0	19075	17810	147375	27471	969229	38977	106959	0	0	8185	717040	0	0
2024-05-08 18:56:32			0	34706	0	0	0	19064	17800	147279	27564	969213	38955	106955	0	0	8185	717032	0	0
2024-05-08 18:57:32			0	34720	0	0	0	19059	17800	147235	27229	969187	38965	106953	0	0	8186	716368	0	0
2024-05-08 18:58:32			0	34720	0	0	0	19054	17780	147235	27256	969215	38975	106951	0	0	8186	716446	0	0
2024-05-08 18:59:32			0	34749	0	0	0	19046	17780	147119	27687	969101	38953	106948	0	0	8188	715073	0	0
2024-05-08 19:00:32			0	34742	0	0	0	19038	17770	147051	27405	969111	38963	106945	0	0	8188	715443	0	0
2024-05-08 19:01:32			0	34766	0	0	0	19018	17760	147023	27024	969041	38973	106937	0	0	8189	714347	0	0
2024-05-08 19:02:32			0	34793	0	0	0	19023	17750	147095	27052	969025	38972	106939	0	0	8191	713110	0	0
2024-05-08 19:03:32			0	34794	0	0	0	19015	17750	146939	27081	969051	38961	106936	0	0	8191	713063	0	0
2024-05-08 19:04:32			0	34800	0	0	0	19005	17730	146851	26906	968939	38981	106932	0	0	8191	712857	0	0
2024-05-08 19:05:32			0	34813	0	0	0	18999	17720	146859	26987	968975	38969	106930	0	0	8192	712282	0	0
2024-05-08 19:06:32			0	34821	0	0	0	18987	17710	146767	27088	968853	38958	106925	0	0	8193	711944	0	0
2024-05-08 19:07:32			0	34844	0	0	0	18974	17700	146695	27383	968836	38957	106920	0	0	8194	710898	0	0
2024-05-08 19:08:32			0	34877	0	0	0	18961	17680	146691	27381	968759	38945	106915	0	0	8196	709422	0	0
2024-05-08 19:09:32			0	34864	0	0	0	18953	17670	146551	27088	968689	38964	106912	0	0	8195	710072	0	0
2024-05-08 19:10:32			0	34884	0	0	0	18953	17670	146559	27057	968716	38975	106912	0	0	8197	709131	0	0
2024-05-08 19:11:32			0	34899	0	0	0	18948	17660	146495	27293	968585	38942	106910	0	0	8197	708465	0	0
2024-05-08 19:12:32			0	34926	0	0	0	18929	17660	146471	27199	968612	38953	106903	0	0	8199	707196	0	0
2024-05-08 19:13:32			0	34927	0	0	0	18919	17640	146415	27353	968526	38952	106899	0	0	8199	707227	0	0
2024-05-08 19:14:32			0	34956	0	0	0	18901	17630	146387	27137	968544	38951	106892	0	0	8201	705905	0	0
2024-05-08 19:15:32			0	34953	0	0	0	18890	17610	146331	27039	968432	38927	106888	0	0	8201	706122	0	0
2024-05-08 19:16:32			0	34960	0	0	0	18880	17600	146263	27104	968389	38948	106884	0	0	8202	705833	0	0
2024-05-08 19:17:32			0	34977	0	0	0	18864	17590	146167	27415	968372	38936	106878	0	0	8203	705074	0	0
2024-05-08 19:18:32			0	34998	0	0	0	18867	17580	146243	26972	968364	38924	106879	0	0	8204	704130	0	0
2024-05-08 19:19:32			0	34995	0	0	0	18870	17580	146191	27260	968329	38946	106880	0	0	8204	704270	0	0
2024-05-08 19:20:32			0	35015	0	0	0	18867	17560	146151	27003	968278	38945	106879	0	0	8205	703411	0	0
2024-05-08 19:21:32			0	35009	0	0	0	18862	17550	146127	27128	968209	38956	106877	0	0	8205	703730	0	0
2024-05-08 19:22:32			0	35022	0	0	0	18862	17550	146059	26890	968235	38945	106877	0	0	8205	703123	0	0
2024-05-08 19:23:32			0	35042	0	0	0	18844	17540	145995	27232	968158	38942	106870	0	0	8207	702226	0	0
2024-05-08 19:24:32			0	35035	0	0	0	18851	17530	146035	27196	968221	38931	106873	0	0	8206	702591	0	0
2024-05-08 19:25:32			0	35063	0	0	0	18854	17520	145947	27298	968151	38929	106874	0	0	8208	701323	0	0
2024-05-08 19:26:32			0	35058	0	0	0	18846	17520	145887	26970	968133	38952	106871	0	0	8207	701556	0	0
2024-05-08 19:27:32			0	35074	0	0	0	18851	17510	145967	27204	968143	38940	106873	0	0	8208	700848	0	0
2024-05-08 19:28:32			0	35098	0	0	0	18838	17500	145911	26951	968100	38940	106868	0	0	8210	699768	0	0
2024-05-08 19:29:32			0	35080	0	0	0	18836	17510	145811	27225	968135	38940	106867	0	0	8209	700568	0	0
2024-05-08 19:30:32			0	35118	0	0	0	18846	17500	145768	27138	968092	38950	106871	0	0	8211	698836	0	0
2024-05-08 19:31:32			0	35123	0	0	0	18857	17500	145760	27128	968100	38928	106875	0	0	8211	698604	0	0
2024-05-08 19:32:32			0	35128	0	0	0	18862	17510	145752	27135	968135	38940	106877	0	0	8211	698333	0	0
2024-05-08 19:33:32			0	35142	0	0	0	18859	17490	145680	26956	968084	38939	106876	0	0	8212	697759	0	0
2024-05-08 19:34:32			0	35137	0	0	0	18841	17500	145708	27131	968171	38950	106869	0	0	8212	697953	0	0
2024-05-08 19:35:32			0	35141	0	0	0	18849	17500	145740	27372	968074	38951	106872	0	0	8212	697767	0	0
2024-05-08 19:36:32			0	35141	0	0	0	18846	17490	145704	27173	968023	38950	106871	0	0	8212	697805	0	0
2024-05-08 19:37:32			0	35149	0	0	0	18838	17490	145716	27145	968031	38939	106868	0	0	8212	697433	0	0
2024-05-08 19:38:32			0	35146	0	0	0	18841	17480	145672	27277	968093	38949	106869	0	0	8212	697610	0	0
2024-05-08 19:39:32			0	35142	0	0	0	18836	17480	145652	26911	968014	38949	106867	0	0	8212	697796	0	0
2024-05-08 19:40:32			0	35164	0	0	0	18849	17490	145720	27112	968076	38950	106872	0	0	8213	696737	0	0
2024-05-08 19:41:32			0	35152	0	0	0	18859	17490	145724	27305	968076	38939	106876	0	0	8212	697294	0	0
2024-05-08 19:42:32			0	35152	0	0	0	18841	17490	145672	27171	968049	38928	106869	0	0	8213	697294	0	0
2024-05-08 19:43:32			0	35145	0	0	0	18838	17480	145720	26972	968041	38949	106868	0	0	8212	697657	0	0
2024-05-08 19:44:32			0	35147	0	0	0	18833	17470	145720	27241	967971	38947	106866	0	0	8212	697602	0	0
2024-05-08 19:45:32			0	35151	0	0	0	18823	17470	145664	27015	967945	38936	106862	0	0	8213	697416	0	0
2024-05-08 19:46:32			0	35136	0	0	0	18831	17460	145660	27199	967928	38925	106865	0	0	8212	698151	0	0
2024-05-08 19:47:32			0	35147	0	0	0	18831	17470	145664	27298	967990	38936	106865	0	0	8212	697602	0	0
2024-05-08 19:48:32			0	35160	0	0	0	18838	17460	145596	27280	967955	38936	106868	0	0	8213	697036	0	0
2024-05-08 19:49:32			0	35150	0	0	0	18833	17460	145660	27206	967928	38947	106866	0	0	8212	697501	0	0
2024-05-08 19:50:32			0	35160	0	0	0	18825	17460	145652	27492	967928	38947	106863	0	0	8213	697036	0	0
2024-05-08 19:51:32			0	35145	0	0	0	18825	17470	145712	27428	967990	38936	106863	0	0	8212	697695	0	0
2024-05-08 19:52:32			0	35126	0	0	0	18828	17460	145648	27390	967981	38947	106864	0	0	8211	698616	0	0
2024-05-08 19:53:32			0	35119	0	0	0	18823	17470	145652	27123	967963	38947	106862	0	0	8211	698904	0	0
2024-05-08 19:54:32			0	35121	0	0	0	18831	17470	145792	27225	968024	38936	106865	0	0	8211	698811	0	0
2024-05-08 19:55:32			0	35103	0	0	0	18815	17460	145912	27338	968034	38947	106859	0	0	8210	699687	0	0
2024-05-08 19:56:32			0	35092	0	0	0	18807	17460	145935	27277	967981	38936	106856	0	0	8210	700199	0	0
2024-05-08 19:57:32			0	35077	0	0	0	18797	17450	145927	27275	967965	38957	106852	0	0	8209	700937	0	0
2024-05-08 19:58:32			0	35056	0	0	0	18797	17460	145999	27060	967920	38946	106852	0	0	8208	701878	0	0
2024-05-08 19:59:32			0	35027	0	0	0	18820	17460	146095	27147	967947	38935	106861	0	0	8206	703233	0	0
2024-05-08 20:00:32			0	35004	0	0	0	18828	17460	146335	27171	967973	38946	106864	0	0	8204	704309	0	0
2024-05-08 20:01:32			0	34969	0	0	0	18807	17460	146391	27166	967999	38935	106856	0	0	8203	705948	0	0
2024-05-08 20:02:32			0	34938	0	0	0	18805	17460	146559	27286	967867	38924	106855	0	0	8201	707403	0	0
2024-05-08 20:03:32			0	34909	0	0	0	18812	17460	146699	27545	967947	38935	106858	0	0	8199	708765	0	0
2024-05-08 20:04:32			0	34881	0	0	0	18820	17450	146751	27346	968044	38946	106861	0	0	8198	710122	0	0
2024-05-08 20:05:32			0	34836	0	0	0	18825	17460	146923	27275	968008	38947	106863	0	0	8195	712204	0	0
2024-05-08 20:06:32			0	34825	0	0	0	18807	17460	146963	27282	967981	38936	106856	0	0	8195	712724	0	0
2024-05-08 20:07:32			0	34807	0	0	0	18805	17460	147019	27064	967981	38936	106855	0	0	8194	713574	0	0
2024-05-08 20:08:32			0	34810	0	0	0	18794	17450	146971	27078	967930	38934	106851	0	0	8194	713471	0	0
2024-05-08 20:09:32			0	34792	0	0	0	18781	17440	147175	27135	967869	38934	106846	0	0	8193	714361	0	0
2024-05-08 20:10:32			0	34788	0	0	0	18774	17450	147127	27213	967859	38923	106843	0	0	8193	714511	0	0
2024-05-08 20:11:32			0	34799	0	0	0	18779	17440	147131	27003	967861	38945	106845	0	0	8194	714030	0	0
2024-05-08 20:12:32			0	34789	0	0	0	18784	17440	147143	27222	967834	38912	106847	0	0	8193	714503	0	0
2024-05-08 20:13:32			0	34792	0	0	0	18784	17430	147223	27301	967826	38933	106847	0	0	8193	714400	0	0
2024-05-08 20:14:32			0	34791	0	0	0	18786	17430	147219	27372	967844	38944	106848	0	0	8193	714447	0	0
2024-05-08 20:15:32			0	34774	0	0	0	18792	17440	147219	27322	967834	38934	106850	0	0	8192	715213	0	0
2024-05-08 20:16:32			0	34789	0	0	0	18802	17430	147243	27015	967853	38933	106854	0	0	8193	714542	0	0
2024-05-08 20:17:32			0	34786	0	0	0	18799	17430	147183	27471	967818	38933	106853	0	0	8193	714684	0	0
2024-05-08 20:18:32			0	34785	0	0	0	18792	17430	147263	27173	967853	38944	106850	0	0	8193	714731	0	0
2024-05-08 20:19:32			0	34783	0	0	0	18799	17420	147175	27196	967863	38933	106853	0	0	8192	714865	0	0
2024-05-08 20:20:32			0	34796	0	0	0	18781	17430	147235	27199	967853	38922	106846	0	0	8193	714211	0	0
2024-05-08 20:21:32			0	34802	0	0	0	18776	17430	147019	26948	967818	38933	106844	0	0	8194	713927	0	0
2024-05-08 20:22:32			0	34797	0	0	0	18768	17430	147103	27440	967853	38944	106841	0	0	8194	714163	0	0
2024-05-08 20:23:32			0	34807	0	0	0	18789	17430	147071	27486	967818	38933	106849	0	0	8194	713691	0	0
2024-05-08 20:24:32			0	34807	0	0	0	18771	17430	147155	27241	967897	38922	106842	0	0	8194	713691	0	0
2024-05-08 20:25:32			0	34808	0	0	0	18755	17430	147083	27488	967826	38933	106836	0	0	8195	713643	0	0
2024-05-08 20:26:32			0	34814	0	0	0	18748	17420	146987	27358	967889	38933	106833	0	0	8195	713399	0	0
2024-05-08 20:27:32			0	34815	0	0	0	18735	17420	147027	27182	967810	38922	106828	0	0	8195	713351	0	0
2024-05-08 20:28:32			0	34835	0	0	0	18737	17410	146999	27338	967688	38910	106829	0	0	8196	712445	0	0
2024-05-08 20:29:32			0	34842	0	0	0	18740	17410	147043	27296	967714	38920	106830	0	0	8197	712115	0	0
2024-05-08 20:30:32			0	34848	0	0	0	18735	17400	146979	27157	967645	38941	106828	0	0	8197	711870	0	0
2024-05-08 20:31:32			0	34851	0	0	0	18722	17400	146903	27157	967618	38930	106823	0	0	8197	711729	0	0
2024-05-08 20:32:32			0	34842	0	0	0	18714	17390	146863	27111	967602	38929	106820	0	0	8197	712192	0	0
2024-05-08 20:33:32			0	34841	0	0	0	18706	17390	146891	27426	967594	38917	106817	0	0	8197	712240	0	0
2024-05-08 20:34:32			0	34852	0	0	0	18696	17380	146831	27530	967524	38917	106813	0	0	8198	711759	0	0
2024-05-08 20:35:32			0	34850	0	0	0	18693	17380	146839	27027	967559	38940	106812	0	0	8198	711853	0	0
2024-05-08 20:36:32			0	34857	0	0	0	18690	17370	146919	27348	967463	38939	106811	0	0	8198	711562	0	0
2024-05-08 20:37:32			0	34858	0	0	0	18693	17360	146803	27163	967491	38938	106812	0	0	8198	711553	0	0
2024-05-08 20:38:32			0	34872	0	0	0	18693	17360	146799	27235	967518	38927	106812	0	0	8199	710893	0	0
2024-05-08 20:39:32			0	34878	0	0	0	18690	17360	146851	27088	967438	38927	106811	0	0	8199	710611	0	0
2024-05-08 20:40:32			0	34879	0	0	0	18685	17350	146899	27131	967483	38926	106809	0	0	8199	710602	0	0
2024-05-08 20:41:32			0	34857	0	0	0	18683	17350	146859	27352	967422	38925	106808	0	0	8198	711639	0	0
2024-05-08 20:42:32			0	34881	0	0	0	18683	17340	146803	26974	967414	38915	106808	0	0	8199	710546	0	0
2024-05-08 20:43:32			0	34880	0	0	0	18688	17330	146903	27168	967344	38914	106810	0	0	8199	710632	0	0
2024-05-08 20:44:32			0	34869	0	0	0	18677	17330	146875	27362	967397	38924	106806	0	0	8199	711151	0	0
2024-05-08 20:45:32			0	34881	0	0	0	18675	17320	146839	27232	967354	38922	106805	0	0	8200	710623	0	0
2024-05-08 20:46:32			0	34896	0	0	0	18680	17320	146919	26937	967415	38923	106807	0	0	8200	709917	0	0
2024-05-08 20:47:32			0	34883	0	0	0	18688	17310	146839	27239	967373	38922	106810	0	0	8199	710568	0	0
2024-05-08 20:48:32			0	34871	0	0	0	18677	17310	146835	27022	967320	38922	106806	0	0	8199	711134	0	0
2024-05-08 20:49:32			0	34898	0	0	0	18664	17310	146807	27388	967285	38912	106801	0	0	8201	709861	0	0
2024-05-08 20:50:32			0	34894	0	0	0	18657	17310	146807	27258	967285	38912	106798	0	0	8200	710050	0	0
2024-05-08 20:51:32			0	34890	0	0	0	18651	17310	146779	27152	967346	38922	106796	0	0	8200	710238	0	0
2024-05-08 20:52:32			0	34887	0	0	0	18633	17300	146835	27261	967269	38911	106789	0	0	8200	710418	0	0
2024-05-08 20:53:32			0	34899	0	0	0	18618	17290	146775	27109	967234	38911	106783	0	0	8201	709891	0	0
2024-05-08 20:54:32			0	34913	0	0	0	18620	17280	146699	27268	967130	38909	106784	0	0	8202	709271	0	0
2024-05-08 20:55:32			0	34908	0	0	0	18615	17280	146627	27265	967183	38909	106782	0	0	8202	709506	0	0
2024-05-08 20:56:32			0	34890	0	0	0	18631	17280	146651	27282	967209	38909	106788	0	0	8201	710354	0	0
2024-05-08 20:57:32			0	34919	0	0	0	18644	17290	146655	27296	967155	38921	106793	0	0	8202	708950	0	0
2024-05-08 20:58:32			0	34895	0	0	0	18628	17280	146703	27542	967130	38919	106787	0	0	8201	710118	0	0
2024-05-08 20:59:32			0	34910	0	0	0	18628	17280	146607	26870	967183	38919	106787	0	0	8202	709412	0	0
2024-05-08 21:00:32			0	34942	0	0	0	18618	17260	146567	26890	967132	38918	106783	0	0	8204	707984	0	0
2024-05-08 21:01:32			0	34937	0	0	0	18615	17270	146655	27562	967140	38918	106782	0	0	8203	708181	0	0
2024-05-08 21:02:32			0	34947	0	0	0	18612	17260	146727	27124	967105	38908	106781	0	0	8204	707749	0	0
2024-05-08 21:03:32			0	34944	0	0	0	18599	17260	146607	27289	967124	38917	106776	0	0	8204	707890	0	0
2024-05-08 21:04:32			0	34947	0	0	0	18594	17260	146531	27180	967132	38908	106774	0	0	8204	707749	0	0
2024-05-08 21:05:32			0	34945	0	0	0	18599	17240	146583	27008	966993	38916	106776	0	0	8204	707920	0	0
2024-05-08 21:06:32			0	34964	0	0	0	18594	17240	146607	27296	967020	38906	106774	0	0	8205	707027	0	0
2024-05-08 21:07:32			0	34962	0	0	0	18584	17240	146447	27301	967064	38905	106770	0	0	8205	707121	0	0
2024-05-08 21:08:32			0	34972	0	0	0	18584	17240	146471	27306	967012	38916	106770	0	0	8206	706652	0	0
2024-05-08 21:09:32			0	34984	0	0	0	18589	17230	146427	26951	967003	38916	106772	0	0	8206	706127	0	0
2024-05-08 21:10:32			0	34987	0	0	0	18579	17230	146451	27192	967021	38905	106768	0	0	8207	705987	0	0
2024-05-08 21:11:32			0	35013	0	0	0	18571	17230	146499	27369	966942	38905	106765	0	0	8208	704768	0	0
2024-05-08 21:12:32			0	34980	0	0	0	18561	17210	146459	27376	967023	38914	106761	0	0	8206	706392	0	0
2024-05-08 21:13:32			0	35001	0	0	0	18568	17220	146403	27222	966934	38904	106764	0	0	8208	705368	0	0
2024-05-08 21:14:32			0	34983	0	0	0	18558	17210	146415	27530	966917	38914	106760	0	0	8207	706251	0	0
2024-05-08 21:15:32			0	34987	0	0	0	18566	17200	146471	26984	966874	38902	106763	0	0	8207	706102	0	0
2024-05-08 21:16:32			0	35004	0	0	0	18555	17210	146443	27426	966883	38903	106759	0	0	8208	705266	0	0
2024-05-08 21:17:32			0	34999	0	0	0	18561	17200	146547	27452	966874	38902	106761	0	0	8207	705539	0	0
2024-05-08 21:18:32			0	34998	0	0	0	18553	17200	146507	27033	966866	38913	106758	0	0	8208	705586	0	0
2024-05-08 21:19:32			0	34982	0	0	0	18558	17190	146479	27138	966884	38912	106760	0	0	8207	706375	0	0
2024-05-08 21:20:32			0	34990	0	0	0	18550	17190	146491	27166	966876	38922	106757	0	0	8207	705999	0	0
2024-05-08 21:21:32			0	34980	0	0	0	18548	17190	146523	27194	966823	38912	106756	0	0	8207	706468	0	0
2024-05-08 21:22:32			0	34967	0	0	0	18548	17190	146467	27137	966823	38912	106756	0	0	8206	707079	0	0
2024-05-08 21:23:32			0	34970	0	0	0	18545	17180	146491	27060	966807	38900	106755	0	0	8206	706976	0	0
2024-05-08 21:24:32			0	34972	0	0	0	18545	17180	146615	27760	966789	38900	106755	0	0	8206	706882	0	0
2024-05-08 21:25:32			0	34952	0	0	0	18535	17180	146535	27031	966807	38900	106751	0	0	8205	707822	0	0
2024-05-08 21:26:32			0	34970	0	0	0	18532	17180	146559	27213	966781	38911	106750	0	0	8206	706976	0	0
2024-05-08 21:27:32			0	34947	0	0	0	18542	17170	146623	27481	966772	38899	106754	0	0	8205	708095	0	0
2024-05-08 21:28:32			0	34950	0	0	0	18529	17170	146751	27274	966799	38899	106749	0	0	8205	707954	0	0
2024-05-08 21:29:32			0	34935	0	0	0	18527	17170	146703	27371	966791	38899	106748	0	0	8204	708659	0	0
2024-05-08 21:30:32			0	34953	0	0	0	18519	17170	146623	27419	966791	38888	106745	0	0	8205	707813	0	0
2024-05-08 21:31:32			0	34915	0	0	0	18514	17170	146707	27320	966738	38911	106743	0	0	8203	709600	0	0
2024-05-08 21:32:32			0	34928	0	0	0	18514	17160	146691	27156	966721	38909	106743	0	0	8204	709027	0	0
2024-05-08 21:33:32			0	34925	0	0	0	18511	17160	146767	26998	966748	38887	106742	0	0	8204	709168	0	0
2024-05-08 21:34:32			0	34908	0	0	0	18501	17150	146775	27178	966739	38887	106738	0	0	8203	710007	0	0
2024-05-08 21:35:32			0	34900	0	0	0	18498	17150	146827	27467	966731	38898	106737	0	0	8203	710384	0	0
2024-05-08 21:36:32			0	34895	0	0	0	18498	17140	146855	27076	966697	38908	106737	0	0	8202	710658	0	0
2024-05-08 21:37:32			0	34868	0	0	0	18480	17140	146975	27119	966636	38896	106730	0	0	8201	711932	0	0
2024-05-08 21:38:32			0	34846	0	0	0	18485	17130	147047	27064	966619	38906	106732	0	0	8200	713010	0	0
2024-05-08 21:39:32			0	34842	0	0	0	18483	17140	147183	27320	966609	38907	106731	0	0	8200	713160	0	0
2024-05-08 21:40:32			0	34811	0	0	0	18470	17130	147167	27410	966646	38895	106726	0	0	8198	714665	0	0
2024-05-08 21:41:32			0	34795	0	0	0	18470	17130	147407	27313	966593	38906	106726	0	0	8197	715423	0	0
2024-05-08 21:42:32			0	34777	0	0	0	18462	17120	147471	27395	966576	38894	106723	0	0	8196	716315	0	0
2024-05-08 21:43:32			0	34765	0	0	0	18472	17120	147527	27448	966550	38894	106727	0	0	8196	716884	0	0
2024-05-08 21:44:32			0	34750	0	0	0	18457	17110	147419	27397	966541	38894	106721	0	0	8195	717635	0	0
2024-05-08 21:45:32			0	34758	0	0	0	18454	17120	147495	27067	966523	38894	106720	0	0	8195	717216	0	0
2024-05-08 21:46:32			0	34737	0	0	0	18451	17110	147651	27365	966612	38893	106719	0	0	8194	718253	0	0
2024-05-08 21:47:32			0	34735	0	0	0	18444	17110	147627	27185	966515	38883	106716	0	0	8194	718348	0	0
2024-05-08 21:48:32			0	34733	0	0	0	18449	17110	147599	27400	966428	38905	106718	0	0	8194	718443	0	0
2024-05-08 21:49:32			0	34719	0	0	0	18451	17090	147635	27384	966429	38881	106719	0	0	8193	719187	0	0
2024-05-08 21:50:32			0	34729	0	0	0	18449	17100	147639	27473	966498	38905	106718	0	0	8194	718672	0	0
2024-05-08 21:51:32			0	34719	0	0	0	18441	17090	147679	27313	966421	38892	106715	0	0	8193	719187	0	0
2024-05-08 21:52:32			0	34689	0	0	0	18451	17090	147791	27159	966474	38892	106719	0	0	8191	720615	0	0
2024-05-08 21:53:32			0	34697	0	0	0	18446	17090	147851	26937	966456	38914	106717	0	0	8192	720234	0	0
2024-05-08 21:54:32			0	34702	0	0	0	18436	17080	147683	27173	966492	38892	106713	0	0	8192	720035	0	0
2024-05-08 21:55:32			0	34696	0	0	0	18431	17090	147775	27533	966456	38881	106711	0	0	8192	720281	0	0
2024-05-08 21:56:32			0	34711	0	0	0	18433	17090	147727	27152	966500	38881	106712	0	0	8193	719567	0	0
2024-05-08 21:57:32			0	34697	0	0	0	18446	17080	147851	27452	966457	38880	106717	0	0	8192	720273	0	0
2024-05-08 21:58:32			0	34699	0	0	0	18454	17090	147759	27488	966482	38881	106720	0	0	8192	720138	0	0
2024-05-08 21:59:32			0	34695	0	0	0	18477	17090	147835	27426	966527	38892	106729	0	0	8191	720329	0	0
2024-05-08 22:00:32			0	34696	0	0	0	18498	17090	147919	27211	966588	38903	106737	0	0	8191	720281	0	0
2024-05-08 22:01:32			0	34689	0	0	0	18496	17090	147799	27336	966500	38892	106736	0	0	8191	720615	0	0
2024-05-08 22:02:32			0	34690	0	0	0	18501	17110	147963	27419	966586	38926	106738	0	0	8191	720489	0	0
2024-05-08 22:03:32			0	34689	0	0	0	18506	17110	147935	27223	966586	38905	106740	0	0	8191	720537	0	0
2024-05-08 22:04:32			0	34678	0	0	0	18503	17100	147967	27232	966604	38916	106739	0	0	8190	721100	0	0
2024-05-08 22:05:32			0	34658	0	0	0	18509	17110	147927	27072	966612	38905	106741	0	0	8189	722015	0	0
2024-05-08 22:06:32			0	34667	0	0	0	18509	17110	147931	27315	966639	38893	106741	0	0	8189	721585	0	0
2024-05-08 22:07:32			0	34667	0	0	0	18514	17110	147955	27407	966586	38905	106743	0	0	8189	721585	0	0
2024-05-08 22:08:32			0	34662	0	0	0	18506	17110	147979	27098	966621	38883	106740	0	0	8189	721824	0	0
2024-05-08 22:09:32			0	34645	0	0	0	18503	17110	147963	27241	966612	38893	106739	0	0	8188	722635	0	0
2024-05-08 22:10:32			0	34647	0	0	0	18503	17120	148083	27140	966550	38905	106739	0	0	8188	722500	0	0
2024-05-08 22:11:32			0	34633	0	0	0	18501	17110	148095	27345	966594	38916	106738	0	0	8188	723208	0	0
2024-05-08 22:12:32			0	34630	0	0	0	18493	17110	148131	27251	966568	38894	106735	0	0	8188	723351	0	0
2024-05-08 22:13:32			0	34620	0	0	0	18496	17110	148115	27213	966594	38916	106736	0	0	8187	723829	0	0
2024-05-08 22:14:32			0	34618	0	0	0	18490	17110	148155	27281	966621	38894	106734	0	0	8187	723925	0	0
2024-05-08 22:15:32			0	34610	0	0	0	18493	17120	148271	27410	966629	38894	106735	0	0	8186	724268	0	0
2024-05-08 22:16:32			0	34590	0	0	0	18509	17110	148271	27100	966621	38905	106741	0	0	8185	725265	0	0
2024-05-08 22:17:32			0	34576	0	0	0	18511	17120	148239	27265	966637	38895	106742	0	0	8184	725896	0	0
2024-05-08 22:18:32			0	34579	0	0	0	18506	17110	148279	27305	966692	38893	106740	0	0	8184	725791	0	0
2024-05-08 22:19:32			0	34564	0	0	0	18522	17120	148411	27204	966655	38916	106746	0	0	8183	726471	0	0
2024-05-08 22:20:32			0	34549	0	0	0	18535	17130	148403	27396	966725	38906	106751	0	0	8182	727151	0	0
2024-05-08 22:21:32			0	34556	0	0	0	18545	17130	148503	27277	966707	38917	106755	0	0	8183	726815	0	0
2024-05-08 22:22:32			0	34542	0	0	0	18535	17140	148455	27078	966776	38897	106751	0	0	8182	727447	0	0
2024-05-08 22:23:32			0	34539	0	0	0	18537	17150	148539	27157	966792	38898	106752	0	0	8182	727551	0	0
2024-05-08 22:24:32			0	34519	0	0	0	18553	17160	148483	27254	966835	38920	106758	0	0	8180	728472	0	0
2024-05-08 22:25:32			0	34522	0	0	0	18558	17160	148499	27163	966853	38919	106760	0	0	8181	728328	0	0
2024-05-08 22:26:32			0	34511	0	0	0	18553	17160	148519	27204	966888	38920	106758	0	0	8180	728856	0	0
2024-05-08 22:27:32			0	34500	0	0	0	18555	17170	148591	27140	966852	38911	106759	0	0	8179	729346	0	0
2024-05-08 22:28:32			0	34519	0	0	0	18548	17180	148567	26965	966913	38900	106756	0	0	8181	728393	0	0
2024-05-08 22:29:32			0	34487	0	0	0	18548	17180	148623	27440	966974	38911	106756	0	0	8179	729931	0	0
2024-05-08 22:30:32			0	34503	0	0	0	18545	17190	148567	27170	967016	38912	106755	0	0	8180	729122	0	0
2024-05-08 22:31:32			0	34504	0	0	0	18558	17210	148555	27360	967094	38903	106760	0	0	8180	728995	0	0
2024-05-08 22:32:32			0	34485	0	0	0	18555	17210	148599	27135	967076	38914	106759	0	0	8179	729908	0	0
2024-05-08 22:33:32			0	34494	0	0	0	18563	17220	148595	27220	967110	38915	106762	0	0	8179	729436	0	0
2024-05-08 22:34:32			0	34487	0	0	0	18636	17220	148607	26750	967145	38915	106790	0	0	8178	729773	0	0
2024-05-08 22:35:32			0	34489	0	0	0	18719	17240	148651	27093	967328	38927	106822	0	0	8176	729597	0	0
2024-05-08 22:36:32			0	34478	0	0	0	18750	17260	148647	27196	967388	38940	106834	0	0	8175	730047	0	0
2024-05-08 22:37:32			0	34465	0	0	0	18742	17260	148747	27405	967422	38940	106831	0	0	8175	730673	0	0
2024-05-08 22:38:32			0	34446	0	0	0	18753	17280	148775	27036	967473	38930	106835	0	0	8173	731508	0	0
2024-05-08 22:39:32			0	34410	0	0	0	18758	17290	148979	27215	967472	38932	106837	0	0	8171	733205	0	0
2024-05-08 22:40:32			0	34363	0	0	0	18758	17300	149187	27223	967559	38932	106837	0	0	8169	735436	0	0
2024-05-08 22:41:32			0	34315	0	0	0	18742	17310	149294	27083	967549	38934	106831	0	0	8166	737721	0	0
2024-05-08 22:42:32			0	34275	0	0	0	18735	17320	149562	26991	967486	38934	106828	0	0	8164	739623	0	0
2024-05-08 22:43:32			0	34232	0	0	0	18729	17320	149606	27310	967468	38923	106826	0	0	8162	741715	0	0
2024-05-08 22:44:32			0	34203	0	0	0	18719	17320	149726	27287	967442	38923	106822	0	0	8160	743128	0	0
2024-05-08 22:45:32			0	34189	0	0	0	18714	17320	149810	27235	967460	38934	106820	0	0	8160	743811	0	0
2024-05-08 22:46:32			0	34184	0	0	0	18701	17310	149838	27429	967444	38945	106815	0	0	8160	744096	0	0
2024-05-08 22:47:32			0	34205	0	0	0	18698	17320	149926	27291	967415	38934	106814	0	0	8161	743030	0	0
2024-05-08 22:48:32			0	34186	0	0	0	18677	17310	149954	27364	967391	38934	106806	0	0	8160	743998	0	0
2024-05-08 22:49:32			0	34163	0	0	0	18667	17310	149854	27098	967373	38934	106802	0	0	8159	745122	0	0
2024-05-08 22:50:32			0	34169	0	0	0	18651	17300	149906	27374	967383	38911	106796	0	0	8160	744869	0	0
2024-05-08 22:51:32			0	34176	0	0	0	18651	17300	149894	27223	967295	38921	106796	0	0	8160	744527	0	0
2024-05-08 22:52:32			0	34191	0	0	0	18649	17290	149826	27180	967313	38921	106795	0	0	8161	743835	0	0
2024-05-08 22:53:32			0	34207	0	0	0	18633	17290	149806	27331	967279	38921	106789	0	0	8162	743054	0	0
2024-05-08 22:54:32			0	34226	0	0	0	18633	17280	149718	27189	967270	38920	106789	0	0	8163	742168	0	0
2024-05-08 22:55:32			0	34251	0	0	0	18625	17290	149678	27355	967252	38911	106786	0	0	8165	740911	0	0
2024-05-08 22:56:32			0	34269	0	0	0	18623	17280	149538	27128	967209	38930	106785	0	0	8166	740075	0	0
2024-05-08 22:57:32			0	34282	0	0	0	18612	17280	149422	27031	967209	38919	106781	0	0	8167	739443	0	0
2024-05-08 22:58:32			0	34310	0	0	0	18605	17260	149338	27185	967132	38918	106778	0	0	8168	738164	0	0
2024-05-08 22:59:32			0	34327	0	0	0	18599	17250	149254	27081	967010	38917	106776	0	0	8169	737380	0	0
2024-05-08 23:00:32			0	34359	0	0	0	18597	17240	149243	26991	967073	38906	106775	0	0	8171	735869	0	0
2024-05-08 23:01:32			0	34374	0	0	0	18584	17240	149067	27457	967020	38916	106770	0	0	8172	735143	0	0
2024-05-08 23:02:32			0	34385	0	0	0	18581	17240	148927	27294	967064	38916	106769	0	0	8173	734612	0	0
2024-05-08 23:03:32			0	34391	0	0	0	18592	17230	148887	27263	967029	38905	106773	0	0	8173	734362	0	0
2024-05-08 23:04:32			0	34435	0	0	0	18581	17240	148803	27229	967012	38916	106769	0	0	8176	732197	0	0
2024-05-08 23:05:32			0	34436	0	0	0	18579	17220	148719	27460	967013	38915	106768	0	0	8176	732229	0	0
2024-05-08 23:06:32			0	34452	0	0	0	18584	17210	148807	27424	967023	38903	106770	0	0	8176	731497	0	0
2024-05-08 23:07:32			0	34465	0	0	0	18581	17230	148711	27107	966977	38905	106769	0	0	8177	730792	0	0
2024-05-08 23:08:32			0	34498	0	0	0	18579	17210	148631	27352	966997	38914	106768	0	0	8179	729283	0	0
2024-05-08 23:09:32			0	34506	0	0	0	18571	17210	148587	27027	966917	38914	106765	0	0	8180	728899	0	0
2024-05-08 23:10:32			0	34506	0	0	0	18568	17200	148627	27379	966927	38913	106764	0	0	8180	728938	0	0
2024-05-08 23:11:32			0	34520	0	0	0	18581	17210	148443	27265	966962	38903	106769	0	0	8180	728226	0	0
2024-05-08 23:12:32			0	34535	0	0	0	18576	17210	148563	27332	966883	38914	106767	0	0	8181	727506	0	0
2024-05-08 23:13:32			0	34536	0	0	0	18592	17200	148367	27327	966998	38913	106773	0	0	8181	727498	0	0
2024-05-08 23:14:32			0	34537	0	0	0	18584	17200	148339	27090	967006	38934	106770	0	0	8181	727450	0	0
2024-05-08 23:15:32			0	34542	0	0	0	18594	17200	148307	27313	966919	38913	106774	0	0	8181	727210	0	0
2024-05-08 23:16:32			0	34565	0	0	0	18587	17210	148367	26977	966988	38924	106771	0	0	8183	726068	0	0
2024-05-08 23:17:32			0	34568	0	0	0	18587	17200	148343	27474	966945	38923	106771	0	0	8183	725964	0	0
2024-05-08 23:18:32			0	34554	0	0	0	18584	17190	148275	27324	966964	38922	106770	0	0	8182	726674	0	0
2024-05-08 23:19:32			0	34584	0	0	0	18594	17200	148255	26878	966998	38913	106774	0	0	8184	725197	0	0
2024-05-08 23:20:32			0	34570	0	0	0	18597	17210	148223	27251	966988	38914	106775	0	0	8183	725828	0	0
2024-05-08 23:21:32			0	34588	0	0	0	18592	17210	148231	26932	966988	38903	106773	0	0	8184	724967	0	0
2024-05-08 23:22:32			0	34592	0	0	0	18607	17200	148143	27261	967033	38923	106779	0	0	8184	724815	0	0
2024-05-08 23:23:32			0	34610	0	0	0	18599	17210	148223	27239	967015	38935	106776	0	0	8185	723914	0	0
2024-05-08 23:24:32			0	34587	0	0	0	18610	17210	148151	27339	967023	38914	106780	0	0	8184	725014	0	0
2024-05-08 23:25:32			0	34607	0	0	0	18612	17210	148183	27189	966988	38924	106781	0	0	8185	724058	0	0
2024-05-08 23:26:32			0	34622	0	0	0	18605	17210	147995	27093	967068	38914	106778	0	0	8186	723341	0	0
2024-05-08 23:27:32			0	34613	0	0	0	18599	17200	148055	27140	967006	38923	106776	0	0	8185	723810	0	0
2024-05-08 23:28:32			0	34631	0	0	0	18599	17210	148023	27493	967015	38935	106776	0	0	8186	722911	0	0
2024-05-08 23:29:32			0	34626	0	0	0	18599	17210	147911	27509	966988	38914	106776	0	0	8186	723150	0	0
2024-05-08 23:30:32			0	34639	0	0	0	18599	17210	147851	27550	966988	38914	106776	0	0	8187	722529	0	0
2024-05-08 23:31:32			0	34653	0	0	0	18587	17210	147855	27326	966917	38935	106771	0	0	8188	721861	0	0
2024-05-08 23:32:32			0	34660	0	0	0	18584	17210	147847	27345	966944	38914	106770	0	0	8188	721527	0	0
2024-05-08 23:33:32			0	34670	0	0	0	18579	17200	147863	27284	966919	38913	106768	0	0	8189	721090	0	0
2024-05-08 23:34:32			0	34659	0	0	0	18576	17200	147815	27357	966954	38913	106767	0	0	8188	721614	0	0
2024-05-08 23:35:32			0	34682	0	0	0	18576	17210	147759	27440	966962	38935	106767	0	0	8190	720479	0	0
2024-05-08 23:36:32			0	34693	0	0	0	18576	17200	147739	27367	966954	38923	106767	0	0	8190	719994	0	0
2024-05-08 23:37:32			0	34702	0	0	0	18579	17200	147783	27428	966954	38923	106768	0	0	8191	719566	0	0
2024-05-08 23:38:32			0	34717	0	0	0	18584	17200	147711	27429	966945	38913	106770	0	0	8191	718852	0	0
2024-05-08 23:39:32			0	34711	0	0	0	18592	17200	147595	27351	966945	38913	106773	0	0	8191	719138	0	0
2024-05-08 23:40:32			0	34727	0	0	0	18587	17200	147583	27138	966972	38946	106771	0	0	8192	718377	0	0
2024-05-08 23:41:32			0	34735	0	0	0	18579	17200	147559	27137	966893	38913	106768	0	0	8192	717997	0	0
2024-05-08 23:42:32			0	34740	0	0	0	18579	17200	147531	27628	966945	38923	106768	0	0	8193	717759	0	0
2024-05-08 23:43:32			0	34724	0	0	0	18579	17200	147655	27422	966919	38923	106768	0	0	8192	718520	0	0
2024-05-08 23:44:32			0	34737	0	0	0	18579	17190	147619	27223	966937	38922	106768	0	0	8192	717941	0	0
2024-05-08 23:45:32			0	34708	0	0	0	18571	17190	147667	27197	966911	38922	106765	0	0	8191	719320	0	0
2024-05-08 23:46:32			0	34703	0	0	0	18581	17200	147755	27216	966972	38923	106769	0	0	8191	719518	0	0
2024-05-08 23:47:32			0	34687	0	0	0	18579	17200	147787	27255	966972	38913	106768	0	0	8190	720280	0	0
2024-05-08 23:48:32			0	34660	0	0	0	18568	17180	147911	27189	966868	38921	106764	0	0	8188	721645	0	0
2024-05-08 23:49:32			0	34663	0	0	0	18579	17190	147979	27547	966876	38912	106768	0	0	8188	721463	0	0
2024-05-08 23:50:32			0	34636	0	0	0	18574	17190	147983	27281	966929	38912	106766	0	0	8187	722751	0	0
2024-05-08 23:51:32			0	34596	0	0	0	18576	17190	148067	27230	966876	38934	106767	0	0	8185	724662	0	0
2024-05-08 23:52:32			0	34586	0	0	0	18568	17180	148203	27289	966894	38921	106764	0	0	8184	725181	0	0
2024-05-08 23:53:32			0	34569	0	0	0	18566	17180	148267	27350	966860	38921	106763	0	0	8183	725995	0	0
2024-05-08 23:54:32			0	34550	0	0	0	18553	17180	148335	27305	966886	38921	106758	0	0	8182	726905	0	0
2024-05-08 23:55:32			0	34538	0	0	0	18553	17190	148459	27022	966911	38922	106758	0	0	8182	727441	0	0
2024-05-08 23:56:32			0	34496	0	0	0	18537	17190	148607	27118	966955	38922	106752	0	0	8180	729459	0	0
2024-05-08 23:57:32			0	34490	0	0	0	18545	17180	148699	27242	966894	38921	106755	0	0	8179	729787	0	0
2024-05-08 23:58:32			0	34468	0	0	0	18555	17180	148811	26994	966815	38933	106759	0	0	8178	730846	0	0
2024-05-08 23:59:32			0	34424	0	0	0	18548	17180	148863	26859	966815	38911	106756	0	0	8175	732967	0	0
2024-05-09 00:00:32			0	34406	0	0	0	18542	17180	148971	27190	966833	38933	106754	0	0	8174	733836	0	0
2024-05-09 00:01:32			0	34381	0	0	0	18550	17180	149103	27206	966860	38921	106757	0	0	8173	735044	0	0
2024-05-09 00:02:32			0	34369	0	0	0	18540	17170	149127	26972	966799	38921	106753	0	0	8172	735665	0	0
2024-05-09 00:03:32			0	34344	0	0	0	18537	17170	149298	26953	966799	38921	106752	0	0	8171	736876	0	0
2024-05-09 00:04:32			0	34324	0	0	0	18527	17170	149446	27097	966791	38921	106748	0	0	8170	737846	0	0
2024-05-09 00:05:32			0	34289	0	0	0	18501	17180	149498	27336	966807	38921	106738	0	0	8168	739505	0	0
2024-05-09 00:06:32			0	34289	0	0	0	18501	17170	149594	27310	966772	38921	106738	0	0	8168	739545	0	0
2024-05-09 00:07:32			0	34261	0	0	0	18501	17170	149526	27197	966791	38921	106738	0	0	8167	740907	0	0
2024-05-09 00:08:32			0	34232	0	0	0	18483	17150	149686	26833	966731	38909	106731	0	0	8165	742400	0	0
2024-05-09 00:09:32			0	34232	0	0	0	18475	17150	149838	27313	966652	38919	106728	0	0	8165	742400	0	0
2024-05-09 00:10:32			0	34187	0	0	0	18454	17140	149950	27013	966670	38908	106720	0	0	8163	744636	0	0
2024-05-09 00:11:32			0	34175	0	0	0	18444	17140	150038	27237	966662	38907	106716	0	0	8163	745223	0	0
2024-05-09 00:12:32			0	34166	0	0	0	18457	17130	150086	26852	966672	38906	106721	0	0	8162	745703	0	0
2024-05-09 00:13:32			0	34116	0	0	0	18451	17130	150258	27213	966575	38907	106719	0	0	8159	748152	0	0
2024-05-09 00:14:32			0	34087	0	0	0	18415	17130	150374	27081	966566	38895	106705	0	0	8158	749576	0	0
2024-05-09 00:15:32			0	34052	0	0	0	18431	17130	150562	27078	966575	38917	106711	0	0	8156	751297	0	0
2024-05-09 00:16:32			0	34013	0	0	0	18423	17120	150738	27223	966523	38894	106708	0	0	8154	753258	0	0
2024-05-09 00:17:32			0	33989	0	0	0	18423	17110	150822	27109	966541	38894	106708	0	0	8152	754483	0	0
2024-05-09 00:18:32			0	33957	0	0	0	18405	17100	150874	27097	966498	38905	106701	0	0	8151	756106	0	0
2024-05-09 00:19:32			0	33956	0	0	0	18389	17100	151070	27066	966419	38893	106695	0	0	8151	756155	0	0
2024-05-09 00:20:32			0	33935	0	0	0	18374	17100	151170	27130	966419	38893	106689	0	0	8150	757194	0	0
2024-05-09 00:21:32			0	33906	0	0	0	18355	17090	151274	27173	966395	38892	106682	0	0	8148	758673	0	0
2024-05-09 00:22:32			0	33895	0	0	0	18345	17090	151410	27338	966395	38881	106678	0	0	8148	759218	0	0
2024-05-09 00:23:32			0	33853	0	0	0	18340	17070	151530	26991	966309	38890	106676	0	0	8145	761387	0	0
2024-05-09 00:24:32			0	33847	0	0	0	18327	17060	151482	27303	966301	38890	106671	0	0	8145	761727	0	0
2024-05-09 00:25:32			0	33829	0	0	0	18324	17060	151666	27081	966274	38879	106670	0	0	8144	762623	0	0
2024-05-09 00:26:32			0	33823	0	0	0	18337	17050	151738	27078	966232	38888	106675	0	0	8144	762963	0	0
2024-05-09 00:27:32			0	33807	0	0	0	18348	17050	151778	27249	966303	38888	106679	0	0	8143	763760	0	0
2024-05-09 00:28:32			0	33818	0	0	0	18350	17050	151834	27034	966276	38899	106680	0	0	8143	763212	0	0
2024-05-09 00:29:32			0	33785	0	0	0	18363	17040	151810	26961	966294	38888	106685	0	0	8141	764899	0	0
2024-05-09 00:30:32			0	33773	0	0	0	18376	17040	151882	27270	966373	38888	106690	0	0	8140	765498	0	0
2024-05-09 00:31:32			0	33756	0	0	0	18386	17050	151986	27230	966311	38899	106694	0	0	8139	766306	0	0
2024-05-09 00:32:32			0	33746	0	0	0	18386	17050	152158	27105	966329	38899	106694	0	0	8138	766806	0	0
2024-05-09 00:33:32			0	33716	0	0	0	18381	17040	152266	27229	966294	38888	106692	0	0	8137	768350	0	0
2024-05-09 00:34:32			0	33714	0	0	0	18381	17040	152350	27384	966294	38899	106692	0	0	8136	768450	0	0
2024-05-09 00:35:32			0	33681	0	0	0	18379	17040	152354	27026	966321	38899	106691	0	0	8135	770105	0	0
2024-05-09 00:36:32			0	33662	0	0	0	18394	17040	152358	27505	966347	38877	106697	0	0	8133	771059	0	0
2024-05-09 00:37:32			0	33667	0	0	0	18407	17050	152446	27170	966329	38899	106702	0	0	8133	770766	0	0
2024-05-09 00:38:32			0	33628	0	0	0	18394	17030	152578	26951	966260	38887	106697	0	0	8131	772810	0	0
2024-05-09 00:39:32			0	33645	0	0	0	18379	17040	152506	27166	966347	38899	106691	0	0	8132	771913	0	0
2024-05-09 00:40:32			0	33640	0	0	0	18381	17030	152586	27119	966365	38876	106692	0	0	8132	772207	0	0
2024-05-09 00:41:32			0	33630	0	0	0	18379	17040	152606	27609	966294	38899	106691	0	0	8132	772668	0	0
2024-05-09 00:42:32			0	33630	0	0	0	18405	17060	152530	27008	966372	38900	106701	0	0	8131	772584	0	0
2024-05-09 00:43:32			0	33636	0	0	0	18412	17050	152598	27180	966443	38899	106704	0	0	8131	772324	0	0
2024-05-09 00:44:32			0	33656	0	0	0	18428	17060	152486	27111	966477	38900	106710	0	0	8132	771277	0	0
2024-05-09 00:45:32			0	33644	0	0	0	18449	17050	152558	27119	966416	38911	106718	0	0	8131	771922	0	0
2024-05-09 00:46:32			0	33640	0	0	0	18457	17060	152498	26894	966477	38889	106721	0	0	8131	772081	0	0
2024-05-09 00:47:32			0	33644	0	0	0	18475	17060	152566	26996	966512	38901	106728	0	0	8131	771880	0	0
2024-05-09 00:48:32			0	33642	0	0	0	18462	17060	152626	27043	966406	38901	106723	0	0	8131	771980	0	0
2024-05-09 00:49:32			0	33643	0	0	0	18464	17060	152710	27138	966504	38889	106724	0	0	8131	771930	0	0
2024-05-09 00:50:32			0	33625	0	0	0	18459	17070	152550	27497	966476	38890	106722	0	0	8130	772794	0	0
2024-05-09 00:51:32			0	33617	0	0	0	18451	17070	152590	27133	966441	38890	106719	0	0	8130	773196	0	0
2024-05-09 00:52:32			0	33613	0	0	0	18449	17080	152650	27255	966457	38902	106718	0	0	8130	773356	0	0
2024-05-09 00:53:32			0	33606	0	0	0	18454	17080	152770	27039	966537	38902	106720	0	0	8129	773708	0	0
2024-05-09 00:54:32			0	33600	0	0	0	18467	17080	152650	27313	966518	38914	106725	0	0	8129	774011	0	0
2024-05-09 00:55:32			0	33594	0	0	0	18470	17080	152730	27422	966518	38914	106726	0	0	8128	774313	0	0
2024-05-09 00:56:32			0	33592	0	0	0	18475	17080	152670	27223	966537	38902	106728	0	0	8128	774414	0	0
2024-05-09 00:57:32			0	33582	0	0	0	18480	17070	152802	27149	966502	38890	106730	0	0	8127	774960	0	0
2024-05-09 00:58:32			0	33581	0	0	0	18477	17080	152774	27313	966571	38903	106729	0	0	8127	774968	0	0
2024-05-09 00:59:32			0	33581	0	0	0	18485	17080	152746	27161	966545	38903	106732	0	0	8127	774968	0	0
2024-05-09 01:00:32			0	33578	0	0	0	18483	17090	152690	27026	966561	38903	106731	0	0	8127	775078	0	0
2024-05-09 01:01:32			0	33557	0	0	0	18467	17080	152861	26752	966563	38913	106725	0	0	8126	776180	0	0
2024-05-09 01:02:32			0	33584	0	0	0	18454	17090	152866	27000	966553	38892	106720	0	0	8128	774775	0	0
2024-05-09 01:03:32			0	33592	0	0	0	18459	17080	152854	27156	966492	38914	106722	0	0	8128	774414	0	0
2024-05-09 01:04:32			0	33573	0	0	0	18454	17080	152733	27121	966492	38903	106720	0	0	8127	775372	0	0
2024-05-09 01:05:32			0	33587	0	0	0	18459	17090	152858	27092	966527	38903	106722	0	0	8128	774624	0	0
2024-05-09 01:06:32			0	33575	0	0	0	18464	17080	152805	27092	966492	38903	106724	0	0	8127	775271	0	0
2024-05-09 01:07:32			0	33579	0	0	0	18464	17090	152774	27112	966474	38903	106724	0	0	8127	775027	0	0
2024-05-09 01:08:32			0	33591	0	0	0	18446	17090	152786	27424	966527	38914	106717	0	0	8128	774422	0	0
2024-05-09 01:09:32			0	33580	0	0	0	18449	17080	152834	27104	966492	38914	106718	0	0	8128	775019	0	0
2024-05-09 01:10:32			0	33592	0	0	0	18438	17080	152698	27237	966492	38903	106714	0	0	8129	774414	0	0
2024-05-09 01:11:32			0	33588	0	0	0	18438	17080	152738	27312	966466	38903	106714	0	0	8128	774615	0	0
2024-05-09 01:12:32			0	33610	0	0	0	18441	17090	152778	27173	966447	38903	106715	0	0	8130	773465	0	0
2024-05-09 01:13:32			0	33592	0	0	0	18420	17080	152794	26960	966431	38902	106707	0	0	8129	774414	0	0
2024-05-09 01:14:32			0	33604	0	0	0	18420	17070	152690	27225	966423	38901	106707	0	0	8130	773851	0	0
2024-05-09 01:15:32			0	33598	0	0	0	18420	17080	152698	27116	966518	38903	106707	0	0	8129	774111	0	0
2024-05-09 01:16:32			0	33604	0	0	0	18415	17070	152742	26901	966449	38901	106705	0	0	8130	773851	0	0
2024-05-09 01:17:32			0	33600	0	0	0	18397	17080	152782	27211	966431	38913	106698	0	0	8130	774011	0	0
2024-05-09 01:18:32			0	33601	0	0	0	18402	17080	152786	27253	966431	38902	106700	0	0	8130	773960	0	0
2024-05-09 01:19:32			0	33585	0	0	0	18420	17070	152766	27034	966467	38901	106707	0	0	8128	774809	0	0
2024-05-09 01:20:32			0	33588	0	0	0	18415	17070	152698	26930	966441	38901	106705	0	0	8129	774657	0	0
2024-05-09 01:21:32			0	33586	0	0	0	18410	17070	152694	27357	966467	38901	106703	0	0	8129	774758	0	0
2024-05-09 01:22:32			0	33570	0	0	0	18415	17070	152889	27459	966415	38901	106705	0	0	8128	775566	0	0
2024-05-09 01:23:32			0	33562	0	0	0	18399	17060	152941	27274	966459	38901	106699	0	0	8127	776012	0	0
2024-05-09 01:24:32			0	33557	0	0	0	18392	17060	152973	27267	966477	38900	106696	0	0	8127	776264	0	0
2024-05-09 01:25:32			0	33536	0	0	0	18389	17060	152977	27107	966425	38900	106695	0	0	8126	777325	0	0
2024-05-09 01:26:32			0	33513	0	0	0	18384	17060	153081	27135	966372	38889	106693	0	0	8125	778489	0	0
2024-05-09 01:27:32			0	33518	0	0	0	18358	17050	153157	27249	966337	38911	106683	0	0	8125	778278	0	0
2024-05-09 01:28:32			0	33514	0	0	0	18366	17050	153017	27258	966311	38877	106686	0	0	8125	778481	0	0
2024-05-09 01:29:32			0	33512	0	0	0	18355	17050	153149	27180	966311	38899	106682	0	0	8125	778582	0	0
2024-05-09 01:30:32			0	33512	0	0	0	18345	17030	153113	27104	966286	38887	106678	0	0	8125	778667	0	0
2024-05-09 01:31:32			0	33501	0	0	0	18332	17020	153129	27324	966243	38886	106673	0	0	8125	779266	0	0
2024-05-09 01:32:32			0	33514	0	0	0	18319	17020	153113	26981	966182	38886	106668	0	0	8126	778608	0	0
2024-05-09 01:33:32			0	33530	0	0	0	18314	17020	153157	27346	966182	38886	106666	0	0	8127	777798	0	0
2024-05-09 01:34:32			0	33542	0	0	0	18285	17000	153073	27034	966097	38874	106655	0	0	8128	777275	0	0
2024-05-09 01:35:32			0	33555	0	0	0	18283	16990	153017	27159	966106	38851	106654	0	0	8129	776660	0	0
2024-05-09 01:36:32			0	33569	0	0	0	18272	16980	152981	27182	965992	38872	106650	0	0	8130	775995	0	0
2024-05-09 01:37:32			0	33554	0	0	0	18262	16970	152893	26937	965976	38872	106646	0	0	8129	776795	0	0
2024-05-09 01:38:32			0	33586	0	0	0	18244	16960	152770	27170	965933	38892	106639	0	0	8131	775221	0	0
2024-05-09 01:39:32			0	33583	0	0	0	18236	16960	152762	27562	965899	38869	106636	0	0	8131	775372	0	0
2024-05-09 01:40:32			0	33602	0	0	0	18231	16950	152750	27455	965803	38880	106634	0	0	8132	774456	0	0
2024-05-09 01:41:32			0	33630	0	0	0	18220	16940	152730	26797	965866	38878	106630	0	0	8134	773087	0	0
2024-05-09 01:42:32			0	33630	0	0	0	18212	16930	152622	27443	965770	38868	106627	0	0	8134	773129	0	0
2024-05-09 01:43:32			0	33646	0	0	0	18223	16930	152710	27305	965849	38889	106631	0	0	8135	772324	0	0
2024-05-09 01:44:32			0	33634	0	0	0	18231	16910	152594	27189	965693	38876	106634	0	0	8134	773011	0	0
2024-05-09 01:45:32			0	33633	0	0	0	18215	16910	152642	27072	965737	38866	106628	0	0	8134	773062	0	0
2024-05-09 01:46:32			0	33628	0	0	0	18207	16900	152598	27384	965676	38865	106625	0	0	8134	773355	0	0
2024-05-09 01:47:32			0	33640	0	0	0	18197	16900	152690	27166	965642	38875	106621	0	0	8135	772751	0	0
2024-05-09 01:48:32			0	33611	0	0	0	18186	16890	152746	27280	965607	38864	106617	0	0	8133	774254	0	0
2024-05-09 01:49:32			0	33606	0	0	0	18186	16880	152790	27500	965503	38874	106617	0	0	8133	774548	0	0
2024-05-09 01:50:32			0	33604	0	0	0	18176	16860	152858	27441	965531	38862	106613	0	0	8133	774733	0	0
2024-05-09 01:51:32			0	33576	0	0	0	18171	16870	152870	27296	965521	38873	106611	0	0	8131	776104	0	0
2024-05-09 01:52:32			0	33584	0	0	0	18166	16860	152966	27307	965496	38882	106609	0	0	8132	775742	0	0
2024-05-09 01:53:32			0	33563	0	0	0	18161	16840	153018	27185	965393	38871	106607	0	0	8130	776887	0	0
2024-05-09 01:54:32			0	33575	0	0	0	18137	16840	153102	26981	965358	38870	106598	0	0	8131	776281	0	0
2024-05-09 01:55:32			0	33549	0	0	0	18148	16840	153005	27088	965393	38860	106602	0	0	8130	777595	0	0
2024-05-09 01:56:32			0	33555	0	0	0	18148	16820	153013	26918	965360	38858	106602	0	0	8130	777376	0	0
2024-05-09 01:57:32			0	33558	0	0	0	18129	16830	153045	27258	965394	38879	106595	0	0	8131	777182	0	0
2024-05-09 01:58:32			0	33543	0	0	0	18122	16820	152997	27497	965404	38869	106592	0	0	8130	777983	0	0
2024-05-09 01:59:32			0	33573	0	0	0	18122	16810	152981	27097	965343	38868	106592	0	0	8131	776508	0	0
2024-05-09 02:00:32			0	33566	0	0	0	18119	16800	153009	27130	965221	38856	106591	0	0	8131	776904	0	0
2024-05-09 02:01:32			0	33603	0	0	0	18124	16800	152962	27308	965292	38845	106593	0	0	8133	775035	0	0
2024-05-09 02:02:32			0	33599	0	0	0	18111	16790	152914	26883	965311	38855	106588	0	0	8133	775279	0	0
2024-05-09 02:03:32			0	33614	0	0	0	18114	16790	152802	27393	965231	38876	106589	0	0	8134	774522	0	0
2024-05-09 02:04:32			0	33605	0	0	0	18111	16790	152818	27123	965179	38866	106588	0	0	8133	774976	0	0
2024-05-09 02:05:32			0	33610	0	0	0	18098	16780	152954	27133	965154	38843	106583	0	0	8134	774766	0	0
2024-05-09 02:06:32			0	33626	0	0	0	18090	16780	152690	27053	965154	38854	106580	0	0	8135	773959	0	0
2024-05-09 02:07:32			0	33636	0	0	0	18096	16760	152782	27282	965156	38852	106582	0	0	8135	773539	0	0
2024-05-09 02:08:32			0	33644	0	0	0	18090	16760	152658	27079	965147	38863	106580	0	0	8136	773136	0	0
2024-05-09 02:09:32			0	33657	0	0	0	18090	16750	152638	27131	965087	38851	106580	0	0	8137	772523	0	0
2024-05-09 02:10:32			0	33656	0	0	0	18096	16750	152630	27189	965087	38851	106582	0	0	8137	772574	0	0
2024-05-09 02:11:32			0	33664	0	0	0	18098	16750	152722	27012	965087	38851	106583	0	0	8137	772171	0	0
2024-05-09 02:12:32			0	33681	0	0	0	18083	16750	152666	27332	965105	38851	106577	0	0	8138	771316	0	0
2024-05-09 02:13:32			0	33675	0	0	0	18080	16750	152670	27116	965052	38851	106576	0	0	8138	771618	0	0
2024-05-09 02:14:32			0	33704	0	0	0	18067	16740	152618	27248	965070	38861	106571	0	0	8140	770203	0	0
2024-05-09 02:15:32			0	33696	0	0	0	18077	16730	152598	27486	965027	38828	106575	0	0	8139	770646	0	0
2024-05-09 02:16:32			0	33688	0	0	0	18067	16740	152566	27131	965017	38861	106571	0	0	8139	771006	0	0
2024-05-09 02:17:32			0	33684	0	0	0	18075	16730	152618	27287	965027	38872	106574	0	0	8138	771249	0	0
2024-05-09 02:18:32			0	33708	0	0	0	18075	16720	152606	27300	964905	38859	106574	0	0	8140	770085	0	0
2024-05-09 02:19:32			0	33720	0	0	0	18083	16720	152582	27260	964984	38859	106577	0	0	8140	769483	0	0
2024-05-09 02:20:32			0	33703	0	0	0	18077	16720	152526	27015	965037	38848	106575	0	0	8139	770336	0	0
2024-05-09 02:21:32			0	33708	0	0	0	18075	16720	152482	27227	964958	38870	106574	0	0	8140	770085	0	0
2024-05-09 02:22:32			0	33704	0	0	0	18075	16710	152402	27298	964950	38870	106574	0	0	8139	770328	0	0
2024-05-09 02:23:32			0	33717	0	0	0	18080	16710	152414	27215	964976	38859	106576	0	0	8140	769675	0	0
2024-05-09 02:24:32			0	33716	0	0	0	18072	16710	152418	26842	964976	38870	106573	0	0	8140	769725	0	0
2024-05-09 02:25:32			0	33739	0	0	0	18070	16720	152366	27055	964931	38859	106572	0	0	8142	768530	0	0
2024-05-09 02:26:32			0	33723	0	0	0	18067	16710	152286	27246	964897	38848	106571	0	0	8141	769374	0	0
2024-05-09 02:27:32			0	33734	0	0	0	18067	16700	152258	27131	964960	38847	106571	0	0	8141	768864	0	0
2024-05-09 02:28:32			0	33732	0	0	0	18062	16700	152306	27431	964986	38858	106569	0	0	8141	768964	0	0
2024-05-09 02:29:32			0	33752	0	0	0	18072	16700	152254	27291	964925	38858	106573	0	0	8142	767962	0	0
2024-05-09 02:30:32			0	33751	0	0	0	18064	16700	152246	27192	964951	38835	106570	0	0	8142	768012	0	0
2024-05-09 02:31:32			0	33758	0	0	0	18067	16690	152250	27138	964917	38858	106571	0	0	8143	767703	0	0
2024-05-09 02:32:32			0	33764	0	0	0	18090	16710	152198	27225	965021	38870	106580	0	0	8143	767319	0	0
2024-05-09 02:33:32			0	33771	0	0	0	18119	16710	152250	27060	965055	38870	106591	0	0	8143	766969	0	0
2024-05-09 02:34:32			0	33768	0	0	0	18184	16730	152242	27324	965212	38872	106616	0	0	8141	767036	0	0
2024-05-09 02:35:32			0	33772	0	0	0	18241	16750	152230	26998	965456	38874	106638	0	0	8141	766753	0	0
2024-05-09 02:36:32			0	33752	0	0	0	18267	16770	152274	27072	965410	38886	106648	0	0	8139	767671	0	0
2024-05-09 02:37:32			0	33781	0	0	0	18283	16790	152242	27079	965487	38886	106654	0	0	8141	766137	0	0
2024-05-09 02:38:32			0	33757	0	0	0	18277	16790	152270	27230	965495	38887	106652	0	0	8140	767337	0	0
2024-05-09 02:39:32			0	33770	0	0	0	18262	16810	152158	27121	965520	38899	106646	0	0	8141	766604	0	0
2024-05-09 02:40:32			0	33781	0	0	0	18249	16810	152118	27305	965493	38867	106641	0	0	8142	766054	0	0
2024-05-09 02:41:32			0	33791	0	0	0	18228	16810	152158	27038	965467	38856	106633	0	0	8142	765554	0	0
2024-05-09 02:42:32			0	33811	0	0	0	18215	16800	152054	26930	965380	38867	106628	0	0	8144	764596	0	0
2024-05-09 02:43:32			0	33805	0	0	0	18197	16800	151890	26937	965406	38856	106621	0	0	8144	764896	0	0
2024-05-09 02:44:32			0	33831	0	0	0	18197	16810	151722	27339	965388	38888	106621	0	0	8145	763557	0	0
2024-05-09 02:45:32			0	33863	0	0	0	18184	16800	151670	26989	965327	38867	106616	0	0	8147	762004	0	0
2024-05-09 02:46:32			0	33876	0	0	0	18197	16800	151650	27223	965380	38888	106621	0	0	8148	761358	0	0
2024-05-09 02:47:32			0	33908	0	0	0	18199	16800	151478	27048	965353	38867	106622	0	0	8150	759767	0	0
2024-05-09 02:48:32			0	33917	0	0	0	18223	16800	151458	27307	965459	38877	106631	0	0	8150	759320	0	0
2024-05-09 02:49:32			0	33909	0	0	0	18246	16810	151434	27476	965528	38889	106640	0	0	8149	759676	0	0
2024-05-09 02:50:32			0	33942	0	0	0	18275	16810	151406	27170	965607	38889	106651	0	0	8150	758039	0	0
2024-05-09 02:51:32			0	33943	0	0	0	18275	16820	151310	27429	965650	38879	106651	0	0	8151	757948	0	0
2024-05-09 02:52:32			0	33955	0	0	0	18277	16840	151338	27303	965630	38892	106652	0	0	8151	757271	0	0
2024-05-09 02:53:32			0	33967	0	0	0	18264	16840	151246	27509	965675	38870	106647	0	0	8152	756677	0	0
2024-05-09 02:54:32			0	33963	0	0	0	18259	16850	151130	27306	965665	38892	106645	0	0	8152	756834	0	0
2024-05-09 02:55:32			0	33977	0	0	0	18275	16840	151122	27445	965657	38881	106651	0	0	8153	756182	0	0
2024-05-09 02:56:32			0	33981	0	0	0	18280	16840	151146	27105	965675	38881	106653	0	0	8153	755985	0	0
2024-05-09 02:57:32			0	33991	0	0	0	18288	16860	151150	27371	965769	38883	106656	0	0	8153	755408	0	0
2024-05-09 02:58:32			0	33995	0	0	0	18293	16850	151026	27248	965718	38892	106658	0	0	8153	755252	0	0
2024-05-09 02:59:32			0	34008	0	0	0	18290	16860	151030	26908	965655	38882	106657	0	0	8154	754568	0	0
2024-05-09 03:00:32			0	34006	0	0	0	18296	16860	150926	26904	965742	38883	106659	0	0	8154	754667	0	0
2024-05-09 03:01:32			0	34009	0	0	0	18288	16870	150950	27102	965698	38873	106656	0	0	8154	754478	0	0
2024-05-09 03:02:32			0	33990	0	0	0	18283	16860	150982	27419	965716	38873	106654	0	0	8153	755457	0	0
2024-05-09 03:03:32			0	33992	0	0	0	18285	16880	151062	27183	965714	38874	106655	0	0	8154	755277	0	0
2024-05-09 03:04:32			0	33984	0	0	0	18288	16870	151058	27234	965838	38883	106656	0	0	8153	755713	0	0
2024-05-09 03:05:32			0	33993	0	0	0	18290	16870	151102	27355	965733	38873	106657	0	0	8153	755268	0	0
2024-05-09 03:06:32			0	33984	0	0	0	18290	16890	151042	27395	965784	38907	106657	0	0	8153	755631	0	0
2024-05-09 03:07:32			0	33979	0	0	0	18277	16880	151102	27036	965741	38884	106652	0	0	8153	755920	0	0
2024-05-09 03:08:32			0	33979	0	0	0	18277	16870	151214	27104	965759	38883	106652	0	0	8153	755961	0	0
2024-05-09 03:09:32			0	33961	0	0	0	18272	16870	151178	27215	965759	38894	106650	0	0	8152	756851	0	0
2024-05-09 03:10:32			0	33968	0	0	0	18275	16870	151066	27178	965733	38883	106651	0	0	8152	756505	0	0
2024-05-09 03:11:32			0	33964	0	0	0	18267	16880	151174	27111	965767	38895	106648	0	0	8152	756662	0	0
2024-05-09 03:12:32			0	33967	0	0	0	18244	16890	151150	27545	965704	38875	106639	0	0	8153	756472	0	0
2024-05-09 03:13:32			0	33981	0	0	0	18259	16880	151178	27116	965741	38874	106645	0	0	8153	755821	0	0
2024-05-09 03:14:32			0	34002	0	0	0	18251	16860	151078	27312	965689	38873	106642	0	0	8155	754865	0	0
2024-05-09 03:15:32			0	33985	0	0	0	18257	16860	151074	27371	965742	38894	106644	0	0	8153	755705	0	0
2024-05-09 03:16:32			0	34020	0	0	0	18259	16880	150998	27244	965688	38863	106645	0	0	8156	753894	0	0
2024-05-09 03:17:32			0	34010	0	0	0	18251	16870	150878	27500	965698	38883	106642	0	0	8155	754429	0	0
2024-05-09 03:18:32			0	34033	0	0	0	18259	16870	150946	27209	965698	38894	106645	0	0	8156	753293	0	0
2024-05-09 03:19:32			0	34034	0	0	0	18259	16870	150890	27595	965698	38883	106645	0	0	8156	753244	0	0
2024-05-09 03:20:32			0	34038	0	0	0	18241	16860	150762	27320	965716	38883	106638	0	0	8157	753088	0	0
2024-05-09 03:21:32			0	34054	0	0	0	18251	16860	150818	27085	965637	38883	106642	0	0	8158	752299	0	0
2024-05-09 03:22:32			0	34053	0	0	0	18249	16860	150786	27166	965610	38883	106641	0	0	8158	752348	0	0
2024-05-09 03:23:32			0	34058	0	0	0	18241	16860	150814	27308	965637	38873	106638	0	0	8158	752102	0	0
2024-05-09 03:24:32			0	34075	0	0	0	18249	16850	150750	27372	965567	38881	106641	0	0	8159	751305	0	0
2024-05-09 03:25:32			0	34074	0	0	0	18233	16860	150734	27095	965602	38872	106635	0	0	8159	751314	0	0
2024-05-09 03:26:32			0	34097	0	0	0	18228	16850	150666	27135	965567	38871	106633	0	0	8160	750223	0	0
2024-05-09 03:27:32			0	34088	0	0	0	18228	16850	150694	27267	965586	38881	106633	0	0	8160	750666	0	0
2024-05-09 03:28:32			0	34094	0	0	0	18225	16850	150646	27305	965567	38881	106632	0	0	8160	750371	0	0
2024-05-09 03:29:32			0	34108	0	0	0	18223	16850	150554	27493	965533	38860	106631	0	0	8161	749682	0	0
2024-05-09 03:30:32			0	34115	0	0	0	18223	16850	150466	27293	965533	38892	106631	0	0	8162	749339	0	0
2024-05-09 03:31:32			0	34136	0	0	0	18212	16840	150482	27048	965516	38881	106627	0	0	8163	748348	0	0
2024-05-09 03:32:32			0	34134	0	0	0	18212	16850	150418	27306	965541	38892	106627	0	0	8163	748406	0	0
2024-05-09 03:33:32			0	34135	0	0	0	18220	16840	150394	27294	965464	38881	106630	0	0	8163	748397	0	0
2024-05-09 03:34:32			0	34167	0	0	0	18218	16840	150398	27161	965516	38881	106629	0	0	8165	746828	0	0
2024-05-09 03:35:32			0	34166	0	0	0	18212	16840	150314	27305	965490	38892	106627	0	0	8165	746877	0	0
2024-05-09 03:36:32			0	34175	0	0	0	18212	16830	150270	27130	965500	38879	106627	0	0	8165	746477	0	0
2024-05-09 03:37:32			0	34196	0	0	0	18199	16840	150246	27357	965551	38871	106622	0	0	8167	745409	0	0
2024-05-09 03:38:32			0	34199	0	0	0	18205	16840	150218	27220	965490	38870	106624	0	0	8167	745262	0	0
2024-05-09 03:39:32			0	34205	0	0	0	18189	16830	150086	26909	965421	38869	106618	0	0	8167	745009	0	0
2024-05-09 03:40:32			0	34197	0	0	0	18199	16830	150138	27189	965455	38891	106622	0	0	8167	745400	0	0
2024-05-09 03:41:32			0	34231	0	0	0	18194	16830	150090	27211	965482	38891	106620	0	0	8169	743738	0	0
2024-05-09 03:42:32			0	34224	0	0	0	18194	16820	150090	27189	965413	38879	106620	0	0	8168	744120	0	0
2024-05-09 03:43:32			0	34238	0	0	0	18199	16820	150162	27256	965457	38879	106622	0	0	8169	743437	0	0
2024-05-09 03:44:32			0	34228	0	0	0	18194	16820	150066	27422	965431	38879	106620	0	0	8168	743925	0	0
2024-05-09 03:45:32			0	34246	0	0	0	18189	16810	149974	27183	965423	38878	106618	0	0	8169	743087	0	0
2024-05-09 03:46:32			0	34256	0	0	0	18192	16820	150054	27114	965378	38879	106619	0	0	8170	742558	0	0
2024-05-09 03:47:32			0	34246	0	0	0	18189	16820	149930	27289	965404	38890	106618	0	0	8169	743046	0	0
2024-05-09 03:48:32			0	34236	0	0	0	18189	16810	150010	27265	965423	38889	106618	0	0	8169	743575	0	0
2024-05-09 03:49:32			0	34255	0	0	0	18186	16820	149994	27329	965439	38890	106617	0	0	8170	742607	0	0
2024-05-09 03:50:32			0	34253	0	0	0	18184	16810	150030	27313	965396	38889	106616	0	0	8170	742745	0	0
2024-05-09 03:51:32			0	34253	0	0	0	18189	16810	150010	27229	965423	38878	106618	0	0	8170	742745	0	0
2024-05-09 03:52:32			0	34269	0	0	0	18179	16810	149986	27277	965388	38888	106614	0	0	8171	741965	0	0
2024-05-09 03:53:32			0	34267	0	0	0	18181	16800	150034	27435	965380	38877	106615	0	0	8171	742103	0	0
2024-05-09 03:54:32			0	34265	0	0	0	18174	16810	149934	27124	965362	38877	106612	0	0	8171	742160	0	0
2024-05-09 03:55:32			0	34269	0	0	0	18189	16810	149946	27369	965317	38889	106618	0	0	8171	741965	0	0
2024-05-09 03:56:32			0	34271	0	0	0	18184	16810	149834	27324	965388	38877	106616	0	0	8171	741867	0	0
2024-05-09 03:57:32			0	34282	0	0	0	18181	16800	149954	27208	965380	38899	106615	0	0	8172	741371	0	0
2024-05-09 03:58:32			0	34252	0	0	0	18174	16790	149858	27225	965311	38876	106612	0	0	8170	742874	0	0
2024-05-09 03:59:32			0	34270	0	0	0	18174	16800	149910	27396	965371	38877	106612	0	0	8171	741956	0	0
2024-05-09 04:00:32			0	34271	0	0	0	18168	16800	149910	27355	965353	38877	106610	0	0	8171	741907	0	0
2024-05-09 04:01:32			0	34276	0	0	0	18171	16790	149866	26974	965302	38886	106611	0	0	8171	741704	0	0
2024-05-09 04:02:32			0	34260	0	0	0	18166	16800	149890	27076	965345	38877	106609	0	0	8171	742444	0	0
2024-05-09 04:03:32			0	34255	0	0	0	18150	16790	149950	27145	965302	38875	106603	0	0	8171	742728	0	0
2024-05-09 04:04:32			0	34267	0	0	0	18148	16790	149930	27509	965337	38876	106602	0	0	8171	742143	0	0
2024-05-09 04:05:32			0	34279	0	0	0	18150	16780	149874	26946	965260	38886	106603	0	0	8172	741598	0	0
2024-05-09 04:06:32			0	34257	0	0	0	18148	16780	149958	27379	965260	38875	106602	0	0	8171	742671	0	0
2024-05-09 04:07:32			0	34254	0	0	0	18145	16780	150054	27199	965268	38875	106601	0	0	8171	742817	0	0
2024-05-09 04:08:32			0	34226	0	0	0	18142	16780	150070	27052	965268	38875	106600	0	0	8169	744184	0	0
2024-05-09 04:09:32			0	34236	0	0	0	18140	16770	150050	27000	965304	38864	106599	0	0	8170	743736	0	0
2024-05-09 04:10:32			0	34215	0	0	0	18142	16770	150182	27199	965225	38875	106600	0	0	8168	744762	0	0
2024-05-09 04:11:32			0	34212	0	0	0	18140	16770	150358	27088	965225	38875	106599	0	0	8168	744908	0	0
2024-05-09 04:12:32			0	34176	0	0	0	18132	16770	150414	26904	965269	38875	106596	0	0	8166	746671	0	0
2024-05-09 04:13:32			0	34161	0	0	0	18140	16770	150426	27298	965251	38886	106599	0	0	8165	747406	0	0
2024-05-09 04:14:32			0	34138	0	0	0	18135	16770	150490	27182	965269	38875	106597	0	0	8164	748534	0	0
2024-05-09 04:15:32			0	34117	0	0	0	18142	16770	150646	27086	965243	38863	106600	0	0	8163	749565	0	0
2024-05-09 04:16:32			0	34086	0	0	0	18142	16760	150762	26904	965182	38863	106600	0	0	8161	751130	0	0
2024-05-09 04:17:32			0	34065	0	0	0	18129	16760	150914	27263	965235	38852	106595	0	0	8160	752165	0	0
2024-05-09 04:18:32			0	34044	0	0	0	18135	16750	150882	27098	965166	38884	106597	0	0	8158	753241	0	0
2024-05-09 04:19:32			0	33996	0	0	0	18124	16750	151090	27170	965139	38863	106593	0	0	8156	755611	0	0
2024-05-09 04:20:32			0	33986	0	0	0	18132	16760	151194	27272	965147	38863	106596	0	0	8155	756065	0	0
2024-05-09 04:21:32			0	33962	0	0	0	18127	16750	151322	27109	965192	38874	106594	0	0	8154	757294	0	0
2024-05-09 04:22:32			0	33919	0	0	0	18119	16740	151458	27192	965096	38882	106591	0	0	8151	759468	0	0
2024-05-09 04:23:32			0	33883	0	0	0	18129	16750	151642	27130	965184	38862	106595	0	0	8149	761216	0	0
2024-05-09 04:24:32			0	33835	0	0	0	18129	16750	151850	27154	965131	38873	106595	0	0	8146	763606	0	0
2024-05-09 04:25:32			0	33787	0	0	0	18124	16760	152046	27066	965174	38884	106593	0	0	8144	765961	0	0
2024-05-09 04:26:32			0	33756	0	0	0	18124	16750	152250	27298	965131	38873	106593	0	0	8142	767553	0	0
2024-05-09 04:27:32			0	33728	0	0	0	18116	16750	152398	27133	965166	38863	106590	0	0	8140	768957	0	0
2024-05-09 04:28:32			0	33702	0	0	0	18124	16740	152538	27203	965149	38872	106593	0	0	8139	770303	0	0
2024-05-09 04:29:32			0	33677	0	0	0	18111	16750	152550	27422	965157	38873	106588	0	0	8137	771517	0	0
2024-05-09 04:30:32			0	33646	0	0	0	18119	16740	152846	27326	965149	38882	106591	0	0	8135	773119	0	0
2024-05-09 04:31:32			0	33621	0	0	0	18119	16730	152834	27161	965141	38872	106591	0	0	8134	774421	0	0
2024-05-09 04:32:32			0	33607	0	0	0	18116	16730	152906	27163	965088	38850	106590	0	0	8133	775127	0	0
2024-05-09 04:33:32			0	33600	0	0	0	18116	16730	152914	27196	965088	38872	106590	0	0	8133	775481	0	0
2024-05-09 04:34:32			0	33603	0	0	0	18103	16720	152934	27019	965124	38860	106585	0	0	8133	775371	0	0
2024-05-09 04:35:32			0	33590	0	0	0	18098	16730	152886	27549	965088	38861	106583	0	0	8132	775986	0	0
2024-05-09 04:36:32			0	33602	0	0	0	18096	16720	152998	27104	964992	38860	106582	0	0	8133	775422	0	0
2024-05-09 04:37:32			0	33588	0	0	0	18090	16730	152914	27199	965053	38872	106580	0	0	8133	776087	0	0
2024-05-09 04:38:32			0	33582	0	0	0	18080	16720	153010	27000	965045	38860	106576	0	0	8132	776432	0	0
2024-05-09 04:39:32			0	33598	0	0	0	18075	16720	152962	27457	965011	38859	106574	0	0	8133	775624	0	0
2024-05-09 04:40:32			0	33584	0	0	0	18083	16710	153006	26970	965055	38859	106577	0	0	8132	776373	0	0
2024-05-09 04:41:32			0	33590	0	0	0	18075	16710	152882	27412	965002	38870	106574	0	0	8133	776070	0	0
2024-05-09 04:42:32			0	33590	0	0	0	18075	16700	152946	27320	964986	38880	106574	0	0	8133	776112	0	0
2024-05-09 04:43:32			0	33598	0	0	0	18072	16710	152886	27201	965029	38870	106573	0	0	8133	775666	0	0
2024-05-09 04:44:32			0	33608	0	0	0	18064	16700	152938	27163	964933	38858	106570	0	0	8134	775203	0	0
2024-05-09 04:45:32			0	33607	0	0	0	18064	16700	152966	27128	964986	38847	106570	0	0	8134	775253	0	0
2024-05-09 04:46:32			0	33604	0	0	0	18059	16700	152922	27107	964846	38858	106568	0	0	8134	775405	0	0
2024-05-09 04:47:32			0	33601	0	0	0	18062	16690	152946	27189	964917	38869	106569	0	0	8134	775598	0	0
2024-05-09 04:48:32			0	33592	0	0	0	18064	16690	152858	27377	964935	38857	106570	0	0	8133	776053	0	0
2024-05-09 04:49:32			0	33605	0	0	0	18051	16680	152914	27282	964953	38857	106565	0	0	8134	775438	0	0
2024-05-09 04:50:32			0	33612	0	0	0	18051	16690	152954	27424	964882	38857	106565	0	0	8134	775043	0	0
2024-05-09 04:51:32			0	33610	0	0	0	18049	16670	152962	27348	964884	38856	106564	0	0	8134	775228	0	0
2024-05-09 04:52:32			0	33615	0	0	0	18054	16680	153074	27255	964892	38867	106566	0	0	8134	774933	0	0
2024-05-09 04:53:32			0	33624	0	0	0	18051	16680	152942	27282	964848	38845	106565	0	0	8135	774479	0	0
2024-05-09 04:54:32			0	33632	0	0	0	18051	16670	152854	27220	964831	38867	106565	0	0	8135	774118	0	0
2024-05-09 04:55:32			0	33607	0	0	0	18044	16670	152958	27013	964805	38845	106562	0	0	8134	775379	0	0
2024-05-09 04:56:32			0	33625	0	0	0	18054	16670	152866	27429	964858	38877	106566	0	0	8135	774471	0	0
2024-05-09 04:57:32			0	33611	0	0	0	18049	16680	152898	27379	964839	38867	106564	0	0	8134	775135	0	0
2024-05-09 04:58:32			0	33616	0	0	0	18051	16670	152826	27279	964823	38866	106565	0	0	8135	774925	0	0
2024-05-09 04:59:32			0	33630	0	0	0	18051	16670	152862	27322	964831	38867	106565	0	0	8135	774219	0	0
2024-05-09 05:00:32			0	33635	0	0	0	18054	16670	152790	27286	964778	38867	106566	0	0	8136	773967	0	0
2024-05-09 05:01:32			0	33630	0	0	0	18051	16670	152794	26785	964902	38866	106565	0	0	8135	774219	0	0
2024-05-09 05:02:32			0	33616	0	0	0	18051	16670	152894	27428	964858	38867	106565	0	0	8135	774925	0	0
2024-05-09 05:03:32			0	33621	0	0	0	18059	16680	152866	27453	964892	38856	106568	0	0	8135	774631	0	0
2024-05-09 05:04:32			0	33623	0	0	0	18046	16670	152898	27204	964884	38867	106563	0	0	8135	774572	0	0
2024-05-09 05:05:32			0	33604	0	0	0	18054	16660	152870	27291	964885	38854	106566	0	0	8134	775573	0	0
2024-05-09 05:06:32			0	33620	0	0	0	18062	16670	152910	27317	964884	38867	106569	0	0	8135	774723	0	0
2024-05-09 05:07:32			0	33611	0	0	0	18054	16670	152986	27197	964849	38855	106566	0	0	8134	775177	0	0
2024-05-09 05:08:32			0	33614	0	0	0	18054	16670	152946	27052	964805	38867	106566	0	0	8134	775026	0	0
2024-05-09 05:09:32			0	33573	0	0	0	18054	16670	153054	27352	964875	38876	106566	0	0	8132	777097	0	0
2024-05-09 05:10:32			0	33567	0	0	0	18059	16660	153109	27360	964841	38855	106568	0	0	8131	777443	0	0
2024-05-09 05:11:32			0	33564	0	0	0	18049	16660	153218	27383	964867	38866	106564	0	0	8131	777595	0	0
2024-05-09 05:12:32			0	33547	0	0	0	18049	16660	153197	27069	964920	38866	106564	0	0	8130	778455	0	0
2024-05-09 05:13:32			0	33541	0	0	0	18049	16680	153221	27183	964839	38867	106564	0	0	8130	778675	0	0
2024-05-09 05:14:32			0	33540	0	0	0	18049	16670	153281	27324	964884	38877	106564	0	0	8130	778768	0	0
2024-05-09 05:15:32			0	33520	0	0	0	18044	16670	153277	27130	964849	38855	106562	0	0	8129	779781	0	0
2024-05-09 05:16:32			0	33518	0	0	0	18051	16670	153409	27260	964875	38855	106565	0	0	8129	779883	0	0
2024-05-09 05:17:32			0	33503	0	0	0	18036	16670	153425	27157	964849	38866	106559	0	0	8128	780644	0	0
2024-05-09 05:18:32			0	33504	0	0	0	18036	16660	153441	27554	964859	38854	106559	0	0	8128	780635	0	0
2024-05-09 05:19:32			0	33481	0	0	0	18025	16660	153425	27251	964920	38866	106555	0	0	8127	781804	0	0
2024-05-09 05:20:32			0	33506	0	0	0	18033	16660	153477	27450	964867	38855	106558	0	0	8128	780534	0	0
2024-05-09 05:21:32			0	33495	0	0	0	18023	16650	153485	27300	964824	38853	106554	0	0	8128	781135	0	0
2024-05-09 05:22:32			0	33497	0	0	0	18023	16650	153509	27268	964798	38864	106554	0	0	8128	781033	0	0
2024-05-09 05:23:32			0	33472	0	0	0	18015	16650	153565	27412	964763	38864	106551	0	0	8127	782304	0	0
2024-05-09 05:24:32			0	33463	0	0	0	18012	16640	153617	27249	964808	38852	106550	0	0	8126	782804	0	0
2024-05-09 05:25:32			0	33446	0	0	0	18007	16650	153653	27249	964737	38853	106548	0	0	8125	783627	0	0
2024-05-09 05:26:32			0	33423	0	0	0	18015	16640	153829	27332	964729	38863	106551	0	0	8124	784841	0	0
2024-05-09 05:27:32			0	33405	0	0	0	18015	16640	153957	27505	964694	38863	106551	0	0	8123	785759	0	0
2024-05-09 05:28:32			0	33377	0	0	0	18007	16630	153957	27282	964686	38851	106548	0	0	8121	787232	0	0
2024-05-09 05:29:32			0	33353	0	0	0	18005	16640	154197	26955	964721	38863	106547	0	0	8120	788417	0	0
2024-05-09 05:30:32			0	33309	0	0	0	18007	16630	154253	27374	964704	38863	106548	0	0	8117	790714	0	0
2024-05-09 05:31:32			0	33290	0	0	0	17994	16630	154477	27369	964739	38851	106543	0	0	8116	791689	0	0
2024-05-09 05:32:32			0	33268	0	0	0	18002	16640	154521	27076	964694	38852	106546	0	0	8115	792776	0	0
2024-05-09 05:33:32			0	33245	0	0	0	17999	16630	154633	27019	964678	38863	106545	0	0	8113	794003	0	0
2024-05-09 05:34:32			0	33238	0	0	0	17999	16630	154725	27241	964660	38851	106545	0	0	8113	794363	0	0
2024-05-09 05:35:32			0	33223	0	0	0	17997	16640	154825	27213	964641	38852	106544	0	0	8112	795092	0	0
2024-05-09 05:36:32			0	33214	0	0	0	17989	16630	154849	27305	964678	38851	106541	0	0	8111	795599	0	0
2024-05-09 05:37:32			0	33223	0	0	0	17999	16630	154993	27229	964651	38851	106545	0	0	8112	795136	0	0
2024-05-09 05:38:32			0	33178	0	0	0	17994	16620	155021	27454	964670	38873	106543	0	0	8109	797500	0	0
2024-05-09 05:39:32			0	33173	0	0	0	17992	16620	155033	27281	964643	38851	106542	0	0	8109	797759	0	0
2024-05-09 05:40:32			0	33158	0	0	0	17997	16620	155149	27209	964643	38839	106544	0	0	8108	798534	0	0
2024-05-09 05:41:32			0	33129	0	0	0	17986	16610	155269	27159	964653	38850	106540	0	0	8106	800078	0	0
2024-05-09 05:42:32			0	33101	0	0	0	17994	16620	155277	27421	964643	38851	106543	0	0	8105	801486	0	0
2024-05-09 05:43:32			0	33082	0	0	0	17992	16630	155421	27168	964651	38851	106542	0	0	8103	802429	0	0
2024-05-09 05:44:32			0	33068	0	0	0	17992	16610	155613	26948	964653	38861	106542	0	0	8103	803243	0	0
2024-05-09 05:45:32			0	33057	0	0	0	17997	16610	155649	27315	964627	38861	106544	0	0	8102	803815	0	0
2024-05-09 05:46:32			0	33050	0	0	0	17984	16610	155737	27083	964574	38828	106539	0	0	8102	804179	0	0
2024-05-09 05:47:32			0	33056	0	0	0	17986	16620	155713	27166	964635	38862	106540	0	0	8102	803823	0	0
2024-05-09 05:48:32			0	33037	0	0	0	17992	16610	155769	27197	964592	38850	106542	0	0	8101	804856	0	0
2024-05-09 05:49:32			0	33009	0	0	0	17994	16610	155873	27161	964653	38861	106543	0	0	8099	806314	0	0
2024-05-09 05:50:32			0	32997	0	0	0	17994	16610	155905	26771	964627	38861	106543	0	0	8098	806940	0	0
2024-05-09 05:51:32			0	33018	0	0	0	17997	16620	155909	27095	964608	38862	106544	0	0	8099	805801	0	0
2024-05-09 05:52:32			0	32995	0	0	0	17992	16610	155909	27362	964618	38861	106542	0	0	8098	807044	0	0
2024-05-09 05:53:32			0	33016	0	0	0	17989	16610	155853	27222	964592	38850	106541	0	0	8099	805949	0	0
2024-05-09 05:54:32			0	33010	0	0	0	17984	16610	155833	27312	964600	38850	106539	0	0	8099	806262	0	0
2024-05-09 05:55:32			0	33015	0	0	0	17986	16610	155921	27421	964618	38872	106540	0	0	8099	806001	0	0
2024-05-09 05:56:32			0	33008	0	0	0	17986	16610	155769	27497	964618	38850	106540	0	0	8099	806366	0	0
2024-05-09 05:57:32			0	33023	0	0	0	17986	16610	155761	27248	964645	38861	106540	0	0	8100	805585	0	0
2024-05-09 05:58:32			0	33017	0	0	0	17981	16610	155761	27345	964566	38861	106538	0	0	8100	805897	0	0
2024-05-09 05:59:32			0	33035	0	0	0	17981	16610	155697	27182	964618	38861	106538	0	0	8101	804960	0	0
2024-05-09 06:00:32			0	33041	0	0	0	17984	16610	155693	27178	964618	38850	106539	0	0	8101	804647	0	0
2024-05-09 06:01:32			0	33050	0	0	0	17971	16600	155657	27315	964557	38849	106534	0	0	8102	804223	0	0
2024-05-09 06:02:32			0	33051	0	0	0	17981	16600	155581	27585	964636	38849	106538	0	0	8102	804171	0	0
2024-05-09 06:03:32			0	33058	0	0	0	17984	16590	155597	27246	964567	38870	106539	0	0	8102	803850	0	0
2024-05-09 06:04:32			0	33065	0	0	0	17976	16600	155601	27274	964549	38849	106536	0	0	8103	803443	0	0
2024-05-09 06:05:32			0	33082	0	0	0	17974	16590	155497	27386	964567	38848	106535	0	0	8104	802603	0	0
2024-05-09 06:06:32			0	33070	0	0	0	17976	16600	155413	27471	964549	38860	106536	0	0	8103	803183	0	0
2024-05-09 06:07:32			0	33091	0	0	0	17974	16600	155453	27197	964602	38871	106535	0	0	8104	802092	0	0
2024-05-09 06:08:32			0	33096	0	0	0	17989	16600	155389	27424	964610	38860	106541	0	0	8104	801832	0	0
2024-05-09 06:09:32			0	33096	0	0	0	17984	16600	155437	27218	964576	38849	106539	0	0	8104	801832	0	0
2024-05-09 06:10:32			0	33104	0	0	0	17979	16600	155417	27059	964549	38871	106537	0	0	8105	801418	0	0
2024-05-09 06:11:32			0	33139	0	0	0	17984	16600	155317	27249	964557	38849	106539	0	0	8107	799604	0	0
2024-05-09 06:12:32			0	33106	0	0	0	17989	16600	155409	27204	964602	38860	106541	0	0	8105	801314	0	0
2024-05-09 06:13:32			0	33131	0	0	0	17979	16600	155393	27159	964628	38871	106537	0	0	8107	800018	0	0
2024-05-09 06:14:32			0	33146	0	0	0	17992	16600	155285	27076	964602	38860	106542	0	0	8107	799241	0	0
2024-05-09 06:15:32			0	33143	0	0	0	17992	16600	155209	27384	964576	38849	106542	0	0	8107	799397	0	0
2024-05-09 06:16:32			0	33152	0	0	0	17984	16600	155201	27459	964557	38849	106539	0	0	8108	798931	0	0
2024-05-09 06:17:32			0	33177	0	0	0	17992	16600	155257	27362	964628	38871	106542	0	0	8109	797639	0	0
2024-05-09 06:18:32			0	33153	0	0	0	17989	16600	155185	27419	964636	38849	106541	0	0	8108	798879	0	0
2024-05-09 06:19:32			0	33177	0	0	0	17989	16590	155041	27402	964620	38859	106541	0	0	8109	797682	0	0
2024-05-09 06:20:32			0	33178	0	0	0	17992	16600	155161	27514	964602	38860	106542	0	0	8109	797587	0	0
2024-05-09 06:21:32			0	33197	0	0	0	17992	16600	154997	27206	964602	38849	106542	0	0	8110	796606	0	0
2024-05-09 06:22:32			0	33205	0	0	0	17992	16610	154953	27339	964618	38872	106542	0	0	8111	796150	0	0
2024-05-09 06:23:32			0	33216	0	0	0	17994	16600	155021	27452	964636	38871	106543	0	0	8111	795625	0	0
2024-05-09 06:24:32			0	33220	0	0	0	17994	16610	154813	27029	964653	38872	106543	0	0	8112	795376	0	0
2024-05-09 06:25:32			0	33227	0	0	0	17999	16610	154837	27220	964627	38872	106545	0	0	8112	795015	0	0
2024-05-09 06:26:32			0	33241	0	0	0	17999	16600	154661	27315	964584	38860	106545	0	0	8113	794337	0	0
2024-05-09 06:27:32			0	33268	0	0	0	18005	16610	154577	27144	964679	38850	106547	0	0	8114	792905	0	0
2024-05-09 06:28:32			0	33282	0	0	0	18005	16610	154497	27478	964618	38861	106547	0	0	8115	792185	0	0
2024-05-09 06:29:32			0	33291	0	0	0	17999	16610	154429	27409	964627	38872	106545	0	0	8116	791723	0	0
2024-05-09 06:30:32			0	33297	0	0	0	17986	16610	154341	27197	964618	38861	106540	0	0	8116	791415	0	0
2024-05-09 06:31:32			0	33331	0	0	0	17992	16600	154317	27235	964610	38860	106542	0	0	8118	789714	0	0
2024-05-09 06:32:32			0	33346	0	0	0	17979	16600	154253	27286	964636	38860	106537	0	0	8119	788946	0	0
2024-05-09 06:33:32			0	33383	0	0	0	17979	16610	154069	27246	964618	38850	106537	0	0	8122	787010	0	0
2024-05-09 06:34:32			0	33388	0	0	0	17979	16600	153925	27135	964628	38849	106537	0	0	8122	786797	0	0
2024-05-09 06:35:32			0	33423	0	0	0	17981	16610	153885	27083	964618	38850	106538	0	0	8124	784968	0	0
2024-05-09 06:36:32			0	33468	0	0	0	17971	16600	153737	27393	964636	38860	106534	0	0	8127	782719	0	0
2024-05-09 06:37:32			0	33480	0	0	0	17984	16610	153649	27093	964592	38861	106539	0	0	8127	782066	0	0
2024-05-09 06:38:32			0	33513	0	0	0	17979	16600	153421	27312	964549	38849	106537	0	0	8129	780432	0	0
2024-05-09 06:39:32			0	33534	0	0	0	17976	16600	153297	27409	964557	38860	106536	0	0	8131	779367	0	0
2024-05-09 06:40:32			0	33553	0	0	0	17984	16600	153209	27192	964610	38849	106539	0	0	8132	778404	0	0
2024-05-09 06:41:32			0	33577	0	0	0	17979	16600	153098	27734	964602	38860	106537	0	0	8133	777189	0	0
2024-05-09 06:42:32			0	33596	0	0	0	17979	16600	153046	27426	964655	38860	106537	0	0	8134	776229	0	0
2024-05-09 06:43:32			0	33646	0	0	0	17986	16600	152774	27352	964584	38849	106540	0	0	8137	773705	0	0
2024-05-09 06:44:32			0	33661	0	0	0	17984	16600	152726	27258	964576	38860	106539	0	0	8138	772950	0	0
2024-05-09 06:45:32			0	33683	0	0	0	17979	16610	152586	27350	964618	38861	106537	0	0	8139	771801	0	0
2024-05-09 06:46:32			0	33702	0	0	0	17979	16600	152550	27488	964602	38860	106537	0	0	8140	770887	0	0
2024-05-09 06:47:32			0	33756	0	0	0	17971	16600	152362	27509	964523	38849	106534	0	0	8144	768177	0	0
2024-05-09 06:48:32			0	33766	0	0	0	17968	16600	152254	27215	964602	38849	106533	0	0	8144	767676	0	0
2024-05-09 06:49:32			0	33766	0	0	0	17981	16580	152126	27086	964577	38847	106538	0	0	8144	767759	0	0
2024-05-09 06:50:32			0	33818	0	0	0	17971	16590	151998	27469	964567	38859	106534	0	0	8147	765117	0	0
2024-05-09 06:51:32			0	33850	0	0	0	17968	16600	152018	27447	964584	38860	106533	0	0	8149	763478	0	0
2024-05-09 06:52:32			0	33866	0	0	0	17966	16590	151814	27123	964541	38859	106532	0	0	8150	762722	0	0
2024-05-09 06:53:32			0	33895	0	0	0	17968	16580	151690	27419	964551	38858	106533	0	0	8152	761319	0	0
2024-05-09 06:54:32			0	33916	0	0	0	17966	16590	151690	27345	964559	38848	106532	0	0	8153	760234	0	0
2024-05-09 06:55:32			0	33939	0	0	0	17979	16590	151482	27291	964533	38848	106537	0	0	8154	759091	0	0
2024-05-09 06:56:32			0	33959	0	0	0	17981	16590	151390	27123	964559	38859	106538	0	0	8155	758099	0	0
2024-05-09 06:57:32			0	33984	0	0	0	17986	16590	151386	27599	964541	38859	106540	0	0	8157	756860	0	0
2024-05-09 06:58:32			0	33987	0	0	0	17986	16600	151210	27308	964628	38860	106540	0	0	8157	756671	0	0
2024-05-09 06:59:32			0	33993	0	0	0	17989	16580	151238	27474	964630	38858	106541	0	0	8157	756456	0	0
2024-05-09 07:00:32			0	34033	0	0	0	17974	16600	151082	27535	964549	38849	106535	0	0	8160	754396	0	0
2024-05-09 07:01:32			0	34026	0	0	0	17984	16600	151022	27313	964602	38860	106539	0	0	8159	754742	0	0
2024-05-09 07:02:32			0	34043	0	0	0	17968	16590	151022	27682	964594	38859	106533	0	0	8160	753943	0	0
2024-05-09 07:03:32			0	34040	0	0	0	17963	16590	150938	27303	964541	38848	106531	0	0	8160	754091	0	0
2024-05-09 07:04:32			0	34074	0	0	0	17966	16590	150882	27312	964585	38859	106532	0	0	8162	752413	0	0
2024-05-09 07:05:32			0	34091	0	0	0	17961	16590	150830	27448	964559	38859	106530	0	0	8163	751576	0	0
2024-05-09 07:06:32			0	34089	0	0	0	17974	16600	150854	27260	964549	38849	106535	0	0	8163	751634	0	0
2024-05-09 07:07:32			0	34097	0	0	0	17968	16590	150766	27490	964506	38848	106533	0	0	8164	751280	0	0
2024-05-09 07:08:32			0	34084	0	0	0	17971	16580	150874	27343	964551	38858	106534	0	0	8163	751961	0	0
2024-05-09 07:09:32			0	34079	0	0	0	17984	16590	150802	27595	964533	38848	106539	0	0	8162	752167	0	0
2024-05-09 07:10:32			0	34105	0	0	0	17984	16580	150774	27201	964604	38858	106539	0	0	8164	750927	0	0
2024-05-09 07:11:32			0	34094	0	0	0	17989	16590	150826	27116	964585	38870	106541	0	0	8163	751428	0	0
2024-05-09 07:12:32			0	34096	0	0	0	17997	16590	150878	27194	964541	38859	106544	0	0	8163	751330	0	0
2024-05-09 07:13:32			0	34090	0	0	0	17992	16590	150926	27255	964567	38848	106542	0	0	8163	751625	0	0
2024-05-09 07:14:32			0	34066	0	0	0	17992	16590	150870	27471	964646	38880	106542	0	0	8161	752808	0	0
2024-05-09 07:15:32			0	34060	0	0	0	17999	16600	150914	27479	964602	38860	106545	0	0	8161	753063	0	0
2024-05-09 07:16:32			0	34085	0	0	0	18005	16600	150898	27535	964628	38860	106547	0	0	8162	751831	0	0
2024-05-09 07:17:32			0	34055	0	0	0	17999	16600	150958	27528	964584	38849	106545	0	0	8161	753310	0	0
2024-05-09 07:18:32			0	34052	0	0	0	18002	16600	151006	27332	964663	38871	106546	0	0	8160	753458	0	0
2024-05-09 07:19:32			0	34063	0	0	0	18002	16600	150946	27390	964610	38860	106546	0	0	8161	752915	0	0
2024-05-09 07:20:32			0	34064	0	0	0	17999	16600	150946	27357	964689	38871	106545	0	0	8161	752866	0	0
2024-05-09 07:21:32			0	34071	0	0	0	18005	16610	150966	27377	964645	38861	106547	0	0	8162	752480	0	0
2024-05-09 07:22:32			0	34045	0	0	0	17997	16610	151042	27416	964645	38861	106544	0	0	8160	753763	0	0
2024-05-09 07:23:32			0	34036	0	0	0	17999	16610	151034	27486	964645	38872	106545	0	0	8160	754207	0	0
2024-05-09 07:24:32			0	34053	0	0	0	17997	16610	151054	27241	964679	38861	106544	0	0	8161	753368	0	0
2024-05-09 07:25:32			0	34053	0	0	0	18002	16610	150986	27588	964627	38872	106546	0	0	8161	753368	0	0
2024-05-09 07:26:32			0	34044	0	0	0	18002	16620	151086	27466	964714	38873	106546	0	0	8160	753771	0	0
2024-05-09 07:27:32			0	34036	0	0	0	18005	16610	151070	27215	964706	38861	106547	0	0	8160	754207	0	0
2024-05-09 07:28:32			0	34033	0	0	0	18005	16620	151022	27400	964687	38862	106547	0	0	8159	754314	0	0
2024-05-09 07:29:32			0	34045	0	0	0	17994	16620	150978	27438	964661	38873	106543	0	0	8160	753722	0	0
2024-05-09 07:30:32			0	34050	0	0	0	17986	16620	150994	27313	964608	38862	106540	0	0	8161	753475	0	0
2024-05-09 07:31:32			0	34032	0	0	0	17992	16600	151082	27424	964636	38871	106542	0	0	8159	754445	0	0
2024-05-09 07:32:32			0	34048	0	0	0	17984	16620	151002	27422	964687	38873	106539	0	0	8161	753574	0	0
2024-05-09 07:33:32			0	34054	0	0	0	17986	16610	150914	27118	964627	38861	106540	0	0	8161	753318	0	0
2024-05-09 07:34:32			0	34039	0	0	0	17979	16610	151006	27338	964627	38861	106537	0	0	8160	754059	0	0
2024-05-09 07:35:32			0	34062	0	0	0	17989	16610	150946	27599	964592	38850	106541	0	0	8161	752924	0	0
2024-05-09 07:36:32			0	34052	0	0	0	17979	16620	150958	27580	964635	38862	106537	0	0	8161	753376	0	0
2024-05-09 07:37:32			0	34050	0	0	0	17984	16610	150934	27545	964645	38861	106539	0	0	8161	753516	0	0
2024-05-09 07:38:32			0	34055	0	0	0	17981	16610	150926	27445	964618	38850	106538	0	0	8161	753269	0	0
2024-05-09 07:39:32			0	34061	0	0	0	17981	16600	150874	27578	964549	38860	106538	0	0	8161	753014	0	0
2024-05-09 07:40:32			0	34077	0	0	0	17986	16600	150874	27791	964663	38860	106540	0	0	8162	752225	0	0
2024-05-09 07:41:32			0	34062	0	0	0	17992	16610	150802	27471	964653	38861	106542	0	0	8161	752924	0	0
2024-05-09 07:42:32			0	34058	0	0	0	17986	16610	150962	27734	964697	38861	106540	0	0	8161	753121	0	0
2024-05-09 07:43:32			0	34063	0	0	0	17989	16620	151014	27493	964670	38873	106541	0	0	8161	752834	0	0
2024-05-09 07:44:32			0	34055	0	0	0	17986	16610	150978	27523	964706	38861	106540	0	0	8161	753269	0	0
2024-05-09 07:45:32			0	34063	0	0	0	17981	16610	150838	27680	964600	38872	106538	0	0	8161	752874	0	0
2024-05-09 07:46:32			0	34071	0	0	0	17981	16610	150918	27348	964627	38861	106538	0	0	8162	752480	0	0
2024-05-09 07:47:32			0	34077	0	0	0	17979	16620	150866	27481	964661	38862	106537	0	0	8162	752143	0	0
2024-05-09 07:48:32			0	34054	0	0	0	17976	16610	150950	27416	964671	38861	106536	0	0	8161	753318	0	0
2024-05-09 07:49:32			0	34102	0	0	0	17979	16610	150870	27486	964653	38861	106537	0	0	8164	750953	0	0
2024-05-09 07:50:32			0	34103	0	0	0	17986	16610	150822	27334	964592	38872	106540	0	0	8164	750904	0	0
2024-05-09 07:51:32			0	34103	0	0	0	17966	16600	150794	27209	964584	38849	106532	0	0	8164	750944	0	0
2024-05-09 07:52:32			0	34095	0	0	0	17976	16600	150742	27228	964610	38860	106536	0	0	8163	751338	0	0
2024-05-09 07:53:32			0	34121	0	0	0	17974	16610	150726	27405	964618	38850	106535	0	0	8165	750018	0	0
2024-05-09 07:54:32			0	34122	0	0	0	17966	16600	150686	27324	964663	38849	106532	0	0	8165	750010	0	0
2024-05-09 07:55:32			0	34123	0	0	0	17971	16610	150542	27435	964671	38861	106534	0	0	8165	749920	0	0
2024-05-09 07:56:32			0	34130	0	0	0	17968	16600	150554	27497	964610	38860	106533	0	0	8166	749616	0	0
2024-05-09 07:57:32			0	34137	0	0	0	17968	16590	150482	27376	964620	38870	106533	0	0	8166	749313	0	0
2024-05-09 07:58:32			0	34139	0	0	0	17968	16600	150518	27341	964628	38860	106533	0	0	8166	749174	0	0
2024-05-09 07:59:32			0	34184	0	0	0	17979	16600	150422	27647	964584	38860	106537	0	0	8168	746966	0	0
2024-05-09 08:00:32			0	34165	0	0	0	17981	16610	150370	27341	964679	38850	106538	0	0	8167	747857	0	0
2024-05-09 08:01:32			0	34178	0	0	0	18002	16610	150394	27171	964724	38861	106546	0	0	8168	747220	0	0
2024-05-09 08:02:32			0	34167	0	0	0	18015	16620	150462	27476	964793	38873	106551	0	0	8167	747719	0	0
2024-05-09 08:03:32			0	34171	0	0	0	18023	16620	150458	27597	964714	38862	106554	0	0	8167	747522	0	0
2024-05-09 08:04:32			0	34166	0	0	0	18031	16620	150398	27232	964749	38862	106557	0	0	8167	747768	0	0
2024-05-09 08:05:32			0	34187	0	0	0	18033	16620	150410	27281	964749	38873	106558	0	0	8168	746738	0	0
2024-05-09 08:06:32			0	34197	0	0	0	18044	16620	150366	27345	964775	38862	106562	0	0	8168	746248	0	0
2024-05-09 08:07:32			0	34185	0	0	0	18049	16630	150330	27358	964792	38874	106564	0	0	8167	746796	0	0
2024-05-09 08:08:32			0	34192	0	0	0	18041	16640	150326	27381	964800	38875	106561	0	0	8168	746412	0	0
2024-05-09 08:09:32			0	34202	0	0	0	18051	16650	150334	27575	964869	38875	106565	0	0	8169	745882	0	0
2024-05-09 08:10:32			0	34204	0	0	0	18049	16640	150294	27640	964887	38875	106564	0	0	8169	745825	0	0
2024-05-09 08:11:32			0	34198	0	0	0	18057	16650	150234	27398	964877	38875	106567	0	0	8168	746078	0	0
2024-05-09 08:12:32			0	34216	0	0	0	18062	16650	150202	27274	964843	38875	106569	0	0	8169	745197	0	0
2024-05-09 08:13:32			0	34215	0	0	0	18067	16650	150210	27580	964930	38875	106571	0	0	8169	745246	0	0
2024-05-09 08:14:32			0	34209	0	0	0	18067	16660	150254	27400	964965	38875	106571	0	0	8169	745499	0	0
2024-05-09 08:15:32			0	34214	0	0	0	18075	16660	150162	27710	964965	38865	106574	0	0	8169	745255	0	0
2024-05-09 08:16:32			0	34225	0	0	0	18075	16670	150166	27519	964928	38876	106574	0	0	8170	744677	0	0
2024-05-09 08:17:32			0	34219	0	0	0	18077	16660	150114	27417	964894	38866	106575	0	0	8169	745010	0	0
2024-05-09 08:18:32			0	34237	0	0	0	18080	16670	150122	27646	964989	38888	106576	0	0	8170	744090	0	0
2024-05-09 08:19:32			0	34235	0	0	0	18080	16670	150126	27578	964963	38867	106576	0	0	8170	744188	0	0
2024-05-09 08:20:32			0	34242	0	0	0	18080	16680	150050	27403	964918	38867	106576	0	0	8170	743805	0	0
2024-05-09 08:21:32			0	34224	0	0	0	18083	16680	150094	27800	964998	38867	106577	0	0	8169	744685	0	0
2024-05-09 08:22:32			0	34243	0	0	0	18080	16680	150114	27509	964945	38888	106576	0	0	8171	743756	0	0
2024-05-09 08:23:32			0	34229	0	0	0	18075	16680	150078	27492	964927	38878	106574	0	0	8170	744441	0	0
2024-05-09 08:24:32			0	34231	0	0	0	18080	16670	149998	27270	964989	38877	106576	0	0	8170	744383	0	0
2024-05-09 08:25:32			0	34247	0	0	0	18083	16690	149878	27395	965040	38889	106577	0	0	8171	743521	0	0
2024-05-09 08:26:32			0	34240	0	0	0	18077	16680	149990	27272	965006	38878	106575	0	0	8170	743903	0	0
2024-05-09 08:27:32			0	34262	0	0	0	18088	16690	149978	27409	964996	38879	106579	0	0	8172	742789	0	0
2024-05-09 08:28:32			0	34250	0	0	0	18080	16680	149938	27409	964980	38878	106576	0	0	8171	743415	0	0
2024-05-09 08:29:32			0	34260	0	0	0	18077	16690	149914	27360	965075	38869	106575	0	0	8172	742886	0	0
2024-05-09 08:30:32			0	34256	0	0	0	18075	16690	149966	27334	965075	38879	106574	0	0	8171	743081	0	0
2024-05-09 08:31:32			0	34278	0	0	0	18072	16680	149938	27206	964998	38877	106573	0	0	8173	742048	0	0
2024-05-09 08:32:32			0	34269	0	0	0	18080	16690	149986	27201	964988	38878	106576	0	0	8172	742447	0	0
2024-05-09 08:33:32			0	34272	0	0	0	18088	16690	149906	27585	964988	38878	106579	0	0	8172	742301	0	0
2024-05-09 08:34:32			0	34288	0	0	0	18083	16700	149866	27691	965162	38879	106577	0	0	8173	741481	0	0
2024-05-09 08:35:32			0	34288	0	0	0	18083	16690	149870	27365	965075	38869	106577	0	0	8173	741521	0	0
2024-05-09 08:36:32			0	34296	0	0	0	18080	16690	149854	27711	965067	38889	106576	0	0	8174	741131	0	0
2024-05-09 08:37:32			0	34294	0	0	0	18093	16700	149842	27422	965065	38880	106581	0	0	8173	741189	0	0
2024-05-09 08:38:32			0	34295	0	0	0	18090	16690	149754	27388	965067	38889	106580	0	0	8173	741180	0	0
2024-05-09 08:39:32			0	34309	0	0	0	18088	16700	149730	27639	965083	38879	106579	0	0	8174	740458	0	0
2024-05-09 08:40:32			0	34318	0	0	0	18088	16690	149782	27692	965075	38869	106579	0	0	8175	740060	0	0
2024-05-09 08:41:32			0	34326	0	0	0	18090	16700	149694	27599	965110	38890	106580	0	0	8175	739631	0	0
2024-05-09 08:42:32			0	34349	0	0	0	18093	16690	149718	27559	965022	38879	106581	0	0	8176	738553	0	0
2024-05-09 08:43:32			0	34344	0	0	0	18090	16700	149754	27348	965065	38880	106580	0	0	8176	738756	0	0
2024-05-09 08:44:32			0	34350	0	0	0	18103	16700	149738	27414	965030	38879	106585	0	0	8176	738465	0	0
2024-05-09 08:45:32			0	34358	0	0	0	18101	16710	149575	27159	965100	38881	106584	0	0	8177	738036	0	0
2024-05-09 08:46:32			0	34355	0	0	0	18101	16700	149479	27339	965083	38879	106584	0	0	8177	738222	0	0
2024-05-09 08:47:32			0	34358	0	0	0	18098	16710	149539	27490	965134	38892	106583	0	0	8177	738036	0	0
2024-05-09 08:48:32			0	34380	0	0	0	18106	16710	149479	27393	965126	38881	106586	0	0	8178	736968	0	0
2024-05-09 08:49:32			0	34382	0	0	0	18101	16710	149339	27341	965126	38881	106584	0	0	8178	736872	0	0
2024-05-09 08:50:32			0	34387	0	0	0	18103	16710	149331	27381	965134	38903	106585	0	0	8178	736629	0	0
2024-05-09 08:51:32			0	34407	0	0	0	18106	16710	149399	27274	965126	38892	106586	0	0	8180	735660	0	0
2024-05-09 08:52:32			0	34396	0	0	0	18101	16710	149255	27588	965108	38881	106584	0	0	8179	736193	0	0
2024-05-09 08:53:32			0	34422	0	0	0	18103	16710	149263	27635	965126	38881	106585	0	0	8180	734934	0	0
2024-05-09 08:54:32			0	34437	0	0	0	18106	16710	149155	27234	965152	38892	106586	0	0	8181	734208	0	0
2024-05-09 08:55:32			0	34430	0	0	0	18116	16720	149135	27206	965169	38870	106590	0	0	8181	734507	0	0
2024-05-09 08:56:32			0	34447	0	0	0	18109	16710	149087	27201	965108	38881	106587	0	0	8182	733725	0	0
2024-05-09 08:57:32			0	34470	0	0	0	18114	16720	149031	27140	965169	38892	106589	0	0	8183	732574	0	0
2024-05-09 08:58:32			0	34475	0	0	0	18114	16720	148943	27504	965203	38881	106589	0	0	8183	732333	0	0
2024-05-09 08:59:32			0	34502	0	0	0	18116	16720	148967	27164	965177	38904	106590	0	0	8185	731031	0	0
2024-05-09 09:00:32			0	34503	0	0	0	18119	16720	148855	27585	965151	38892	106591	0	0	8185	730983	0	0
2024-05-09 09:01:32			0	34525	0	0	0	18129	16730	148851	27428	965133	38882	106595	0	0	8186	729884	0	0
2024-05-09 09:02:32			0	34511	0	0	0	18127	16720	148771	27504	965142	38881	106594	0	0	8185	730597	0	0
2024-05-09 09:03:32			0	34527	0	0	0	18122	16730	148843	27298	965238	38872	106592	0	0	8186	729788	0	0
2024-05-09 09:04:32			0	34549	0	0	0	18132	16720	148667	27306	965256	38881	106596	0	0	8187	728769	0	0
2024-05-09 09:05:32			0	34573	0	0	0	18135	16720	148671	27178	965203	38881	106597	0	0	8189	727616	0	0
2024-05-09 09:06:32			0	34574	0	0	0	18132	16740	148615	27249	965254	38882	106596	0	0	8189	727489	0	0
2024-05-09 09:07:32			0	34586	0	0	0	18140	16740	148535	27585	965254	38893	106599	0	0	8189	726913	0	0
2024-05-09 09:08:32			0	34601	0	0	0	18140	16730	148463	27517	965220	38893	106599	0	0	8190	726233	0	0
2024-05-09 09:09:32			0	34606	0	0	0	18137	16740	148399	27227	965307	38893	106598	0	0	8190	725954	0	0
2024-05-09 09:10:32			0	34622	0	0	0	18150	16730	148399	27249	965212	38893	106603	0	0	8191	725226	0	0
2024-05-09 09:11:32			0	34620	0	0	0	18158	16750	148327	27142	965324	38884	106606	0	0	8191	725244	0	0
2024-05-09 09:12:32			0	34639	0	0	0	18166	16750	148251	27301	965289	38894	106609	0	0	8192	724334	0	0
2024-05-09 09:13:32			0	34655	0	0	0	18171	16750	148251	27267	965377	38895	106611	0	0	8193	723569	0	0
2024-05-09 09:14:32			0	34665	0	0	0	18168	16750	148151	27405	965298	38884	106610	0	0	8193	723091	0	0
2024-05-09 09:15:32			0	34685	0	0	0	18176	16760	148127	27305	965340	38896	106613	0	0	8194	722096	0	0
2024-05-09 09:16:32			0	34686	0	0	0	18179	16780	148043	27431	965391	38886	106614	0	0	8194	721970	0	0
2024-05-09 09:17:32			0	34709	0	0	0	18179	16780	147975	27533	965365	38909	106614	0	0	8196	720873	0	0
2024-05-09 09:18:32			0	34711	0	0	0	18184	16780	147967	27616	965391	38886	106616	0	0	8196	720778	0	0
2024-05-09 09:19:32			0	34719	0	0	0	18186	16790	147887	27635	965487	38898	106617	0	0	8196	720357	0	0
2024-05-09 09:20:32			0	34737	0	0	0	18194	16780	147823	27326	965400	38875	106620	0	0	8197	719539	0	0
2024-05-09 09:21:32			0	34779	0	0	0	18192	16790	147671	27308	965461	38898	106619	0	0	8200	717503	0	0
2024-05-09 09:22:32			0	34802	0	0	0	18199	16790	147783	27554	965540	38886	106622	0	0	8201	716411	0	0
2024-05-09 09:23:32			0	34818	0	0	0	18202	16790	147567	27168	965469	38887	106623	0	0	8202	715652	0	0
2024-05-09 09:24:32			0	34859	0	0	0	18205	16800	147463	27305	965512	38899	106624	0	0	8204	713672	0	0
2024-05-09 09:25:32			0	34854	0	0	0	18218	16790	147323	27625	965548	38887	106629	0	0	8203	713947	0	0
2024-05-09 09:26:32			0	34907	0	0	0	18215	16800	147143	27291	965538	38899	106628	0	0	8206	711403	0	0
2024-05-09 09:27:32			0	34917	0	0	0	18218	16810	147007	27260	965625	38888	106629	0	0	8207	710893	0	0
2024-05-09 09:28:32			0	34964	0	0	0	18215	16800	146895	27329	965512	38888	106628	0	0	8210	708717	0	0
2024-05-09 09:29:32			0	34982	0	0	0	18223	16810	146679	27175	965634	38900	106631	0	0	8210	707832	0	0
2024-05-09 09:30:32			0	34994	0	0	0	18225	16810	146743	27441	965581	38911	106632	0	0	8211	707268	0	0
2024-05-09 09:31:32			0	35031	0	0	0	18233	16820	146535	27296	965536	38890	106635	0	0	8213	705493	0	0
2024-05-09 09:32:32			0	35065	0	0	0	18225	16830	146523	27696	965632	38901	106632	0	0	8215	703861	0	0
2024-05-09 09:33:32			0	35085	0	0	0	18238	16820	146351	27618	965650	38901	106637	0	0	8216	702963	0	0
2024-05-09 09:34:32			0	35111	0	0	0	18244	16840	146283	27242	965701	38903	106639	0	0	8217	701672	0	0
2024-05-09 09:35:32			0	35115	0	0	0	18244	16830	146223	27203	965614	38902	106639	0	0	8218	701523	0	0
2024-05-09 09:36:32			0	35156	0	0	0	18264	16840	146052	27533	965709	38892	106647	0	0	8220	699572	0	0
2024-05-09 09:37:32			0	35162	0	0	0	18262	16830	146016	27623	965719	38902	106646	0	0	8220	699331	0	0
2024-05-09 09:38:32			0	35198	0	0	0	18259	16850	145960	27568	965744	38904	106645	0	0	8222	697579	0	0
2024-05-09 09:39:32			0	35210	0	0	0	18270	16840	145824	27452	965762	38915	106649	0	0	8223	697059	0	0
2024-05-09 09:40:32			0	35242	0	0	0	18288	16850	145676	27753	965770	38915	106656	0	0	8224	695535	0	0
2024-05-09 09:41:32			0	35252	0	0	0	18298	16860	145564	27393	965821	38905	106660	0	0	8224	695034	0	0
2024-05-09 09:42:32			0	35277	0	0	0	18301	16870	145432	27334	965838	38916	106661	0	0	8226	693837	0	0
2024-05-09 09:43:32			0	35304	0	0	0	18306	16870	145280	27566	965891	38905	106663	0	0	8227	692587	0	0
2024-05-09 09:44:32			0	35328	0	0	0	18303	16870	145236	27504	965838	38916	106662	0	0	8229	691478	0	0
2024-05-09 09:45:32			0	35334	0	0	0	18309	16880	145304	27280	965873	38916	106664	0	0	8229	691163	0	0
2024-05-09 09:46:32			0	35356	0	0	0	18322	16880	145156	27514	965978	38906	106669	0	0	8230	690147	0	0
2024-05-09 09:47:32			0	35368	0	0	0	18329	16900	145112	27301	965967	38909	106672	0	0	8231	689519	0	0
2024-05-09 09:48:32			0	35388	0	0	0	18332	16900	145068	27405	965985	38908	106673	0	0	8232	688598	0	0
2024-05-09 09:49:32			0	35390	0	0	0	18335	16910	145020	27519	966036	38910	106674	0	0	8232	688468	0	0
2024-05-09 09:50:32			0	35391	0	0	0	18337	16910	145108	27441	966009	38931	106675	0	0	8232	688422	0	0
2024-05-09 09:51:32			0	35389	0	0	0	18340	16910	145020	27497	966036	38931	106676	0	0	8232	688514	0	0
2024-05-09 09:52:32			0	35417	0	0	0	18337	16920	144936	27286	966052	38911	106675	0	0	8233	687188	0	0
2024-05-09 09:53:32			0	35406	0	0	0	18337	16910	144972	27376	966036	38910	106675	0	0	8233	687732	0	0
2024-05-09 09:54:32			0	35418	0	0	0	18329	16920	144904	27770	966018	38920	106672	0	0	8233	687142	0	0
2024-05-09 09:55:32			0	35441	0	0	0	18335	16930	144908	27229	966087	38911	106674	0	0	8235	686048	0	0
2024-05-09 09:56:32			0	35431	0	0	0	18329	16930	144824	27543	966087	38921	106672	0	0	8234	686507	0	0
2024-05-09 09:57:32			0	35451	0	0	0	18327	16930	144712	27556	966060	38921	106671	0	0	8235	685589	0	0
2024-05-09 09:58:32			0	35451	0	0	0	18350	16930	144644	27301	966140	38933	106680	0	0	8235	685589	0	0
2024-05-09 09:59:32			0	35446	0	0	0	18350	16940	144848	27646	966085	38912	106680	0	0	8235	685781	0	0
2024-05-09 10:00:32			0	35447	0	0	0	18348	16940	144792	27183	966103	38921	106679	0	0	8235	685735	0	0
2024-05-09 10:01:32			0	35435	0	0	0	18348	16950	144820	27680	966093	38923	106679	0	0	8234	686249	0	0
2024-05-09 10:02:32			0	35431	0	0	0	18337	16930	144868	27438	966095	38921	106675	0	0	8234	686507	0	0
2024-05-09 10:03:32			0	35408	0	0	0	18329	16940	144824	27471	966059	38912	106672	0	0	8233	687528	0	0
2024-05-09 10:04:32			0	35402	0	0	0	18316	16930	144796	27358	966113	38921	106667	0	0	8233	687841	0	0
2024-05-09 10:05:32			0	35404	0	0	0	18342	16940	144856	27291	966103	38911	106677	0	0	8232	687712	0	0
2024-05-09 10:06:32			0	35389	0	0	0	18353	16940	144908	27329	966191	38922	106681	0	0	8231	688402	0	0
2024-05-09 10:07:32			0	35384	0	0	0	18353	16950	144968	27358	966093	38923	106681	0	0	8231	688595	0	0
2024-05-09 10:08:32			0	35387	0	0	0	18353	16940	145028	26939	966191	38912	106681	0	0	8231	688494	0	0
2024-05-09 10:09:32			0	35378	0	0	0	18348	16950	144992	27402	966181	38923	106679	0	0	8231	688872	0	0
2024-05-09 10:10:32			0	35365	0	0	0	18363	16950	145088	27396	966172	38923	106685	0	0	8230	689471	0	0
2024-05-09 10:11:32			0	35322	0	0	0	18374	16970	145132	27616	966205	38904	106689	0	0	8228	691380	0	0
2024-05-09 10:12:32			0	35273	0	0	0	18371	16960	145328	27307	966250	38924	106688	0	0	8225	693684	0	0
2024-05-09 10:13:32			0	35196	0	0	0	18386	16970	145732	27601	966311	38936	106694	0	0	8220	697218	0	0
2024-05-09 10:14:32			0	35138	0	0	0	18394	16960	146056	27339	966303	38935	106697	0	0	8217	699956	0	0
2024-05-09 10:15:32			0	35084	0	0	0	18412	16980	146251	27319	966327	38926	106704	0	0	8214	702401	0	0
2024-05-09 10:16:32			0	35039	0	0	0	18402	16990	146411	27417	966344	38927	106700	0	0	8211	704468	0	0
2024-05-09 10:17:32			0	34996	0	0	0	18418	17000	146591	27383	966413	38928	106706	0	0	8209	706446	0	0
2024-05-09 10:18:32			0	34974	0	0	0	18420	17000	146683	27274	966395	38939	106707	0	0	8208	707479	0	0
2024-05-09 10:19:32			0	34944	0	0	0	18433	17010	146811	27383	966430	38940	106712	0	0	8206	708851	0	0
2024-05-09 10:20:32			0	34930	0	0	0	18438	17020	146911	27415	966552	38929	106714	0	0	8205	709472	0	0
2024-05-09 10:21:32			0	34926	0	0	0	18446	17010	146815	27592	966517	38940	106717	0	0	8204	709699	0	0
2024-05-09 10:22:32			0	34898	0	0	0	18449	17010	146919	27485	966517	38952	106718	0	0	8203	711018	0	0
2024-05-09 10:23:32			0	34904	0	0	0	18459	17040	146911	27635	966532	38932	106722	0	0	8203	710620	0	0
2024-05-09 10:24:32			0	34905	0	0	0	18462	17040	146911	27251	966558	38943	106723	0	0	8203	710573	0	0
2024-05-09 10:25:32			0	34893	0	0	0	18462	17030	147055	27701	966550	38942	106723	0	0	8202	711177	0	0
2024-05-09 10:26:32			0	34892	0	0	0	18475	17040	146979	27197	966585	38954	106728	0	0	8202	711186	0	0
2024-05-09 10:27:32			0	34899	0	0	0	18472	17060	146991	27550	966609	38944	106727	0	0	8203	710778	0	0
2024-05-09 10:28:32			0	34869	0	0	0	18485	17050	147055	27327	966601	38943	106732	0	0	8201	712233	0	0
2024-05-09 10:29:32			0	34877	0	0	0	18488	17060	147027	27282	966644	38945	106733	0	0	8201	711816	0	0
2024-05-09 10:30:32			0	34861	0	0	0	18496	17070	146991	27492	966652	38945	106736	0	0	8200	712533	0	0
2024-05-09 10:31:32			0	34863	0	0	0	18501	17070	146995	27414	966687	38934	106738	0	0	8200	712439	0	0
2024-05-09 10:32:32			0	34877	0	0	0	18509	17070	147143	27211	966740	38934	106741	0	0	8201	711778	0	0
2024-05-09 10:33:32			0	34856	0	0	0	18524	17090	147139	27322	966764	38935	106747	0	0	8200	712692	0	0
2024-05-09 10:34:32			0	34851	0	0	0	18529	17090	147131	27412	966746	38935	106749	0	0	8199	712928	0	0
2024-05-09 10:35:32			0	34843	0	0	0	18540	17110	147119	27620	966850	38958	106753	0	0	8199	713229	0	0
2024-05-09 10:36:32			0	34853	0	0	0	18550	17110	147063	27701	966876	38969	106757	0	0	8199	712756	0	0
2024-05-09 10:37:32			0	34849	0	0	0	18548	17110	147083	27741	966876	38948	106756	0	0	8199	712945	0	0
2024-05-09 10:38:32			0	34877	0	0	0	18568	17120	147051	27396	966901	38950	106764	0	0	8200	711585	0	0
2024-05-09 10:39:32			0	34879	0	0	0	18568	17130	147099	27291	966910	38971	106764	0	0	8200	711452	0	0
2024-05-09 10:40:32			0	34884	0	0	0	18571	17140	146955	27457	967032	38961	106765	0	0	8201	711177	0	0
2024-05-09 10:41:32			0	34877	0	0	0	18571	17140	147047	27488	966961	38962	106765	0	0	8200	711507	0	0
2024-05-09 10:42:32			0	34891	0	0	0	18574	17140	146823	27320	966961	38952	106766	0	0	8201	710847	0	0
2024-05-09 10:43:32			0	34916	0	0	0	18576	17150	146787	27327	966995	38952	106767	0	0	8202	709630	0	0
2024-05-09 10:44:32			0	34934	0	0	0	18574	17160	146771	27454	967038	38952	106766	0	0	8203	708745	0	0
2024-05-09 10:45:32			0	34945	0	0	0	18574	17160	146607	27326	967038	38941	106766	0	0	8204	708227	0	0
2024-05-09 10:46:32			0	34964	0	0	0	18571	17160	146539	27111	967091	38963	106765	0	0	8205	707335	0	0
2024-05-09 10:47:32			0	34985	0	0	0	18589	17160	146451	27303	967020	38953	106772	0	0	8206	706349	0	0
2024-05-09 10:48:32			0	35015	0	0	0	18602	17170	146395	27274	967089	38954	106777	0	0	8208	704904	0	0
2024-05-09 10:49:32			0	35034	0	0	0	18623	17180	146239	27426	967158	38955	106785	0	0	8208	703976	0	0
2024-05-09 10:50:32			0	35040	0	0	0	18623	17190	146223	27338	967201	38956	106785	0	0	8209	703657	0	0
2024-05-09 10:51:32			0	35064	0	0	0	18625	17190	146083	27348	967193	38956	106786	0	0	8210	702535	0	0
2024-05-09 10:52:32			0	35079	0	0	0	18633	17200	146007	27268	967183	38978	106789	0	0	8211	701796	0	0
2024-05-09 10:53:32			0	35113	0	0	0	18641	17200	145927	27623	967262	38957	106792	0	0	8212	700210	0	0
2024-05-09 10:54:32			0	35162	0	0	0	18644	17210	145740	27360	967226	38979	106793	0	0	8215	697891	0	0
2024-05-09 10:55:32			0	35182	0	0	0	18636	17210	145604	27133	967226	38979	106790	0	0	8216	696961	0	0
2024-05-09 10:56:32			0	35224	0	0	0	18633	17220	145532	27383	967269	38969	106789	0	0	8219	694974	0	0
2024-05-09 10:57:32			0	35232	0	0	0	18631	17220	145316	27258	967242	38958	106788	0	0	8219	694604	0	0
2024-05-09 10:58:32			0	35287	0	0	0	18615	17210	145160	27452	967234	38968	106782	0	0	8223	692096	0	0
2024-05-09 10:59:32			0	35315	0	0	0	18625	17220	145104	27592	967224	38947	106786	0	0	8224	690766	0	0
2024-05-09 11:00:32			0	35351	0	0	0	18610	17210	144916	27464	967234	38968	106780	0	0	8226	689143	0	0
2024-05-09 11:01:32			0	35379	0	0	0	18610	17220	144808	27213	967269	38958	106780	0	0	8228	687817	0	0
2024-05-09 11:02:32			0	35425	0	0	0	18612	17220	144712	27481	967198	38947	106781	0	0	8230	685703	0	0
2024-05-09 11:03:32			0	35438	0	0	0	18602	17220	144628	27367	967216	38969	106777	0	0	8231	685107	0	0
2024-05-09 11:04:32			0	35463	0	0	0	18610	17210	144488	27514	967261	38946	106780	0	0	8232	683998	0	0
2024-05-09 11:05:32			0	35486	0	0	0	18594	17210	144376	27329	967208	38968	106774	0	0	8234	682945	0	0
2024-05-09 11:06:32			0	35514	0	0	0	18602	17210	144336	27197	967208	38958	106777	0	0	8235	681664	0	0
2024-05-09 11:07:32			0	35532	0	0	0	18607	17210	144276	27447	967208	38968	106779	0	0	8236	680842	0	0
2024-05-09 11:08:32			0	35541	0	0	0	18612	17210	144244	27305	967200	38958	106781	0	0	8237	680431	0	0
2024-05-09 11:09:32			0	35548	0	0	0	18615	17230	144084	27455	967259	38969	106782	0	0	8237	680038	0	0
2024-05-09 11:10:32			0	35499	0	0	0	18612	17230	144352	27128	967232	38969	106781	0	0	8234	682276	0	0
2024-05-09 11:11:32			0	35424	0	0	0	18620	17220	144724	27627	967224	38958	106784	0	0	8230	685749	0	0
2024-05-09 11:12:32			0	35290	0	0	0	18623	17230	145204	27166	967285	38958	106785	0	0	8223	691882	0	0
2024-05-09 11:13:32			0	35135	0	0	0	18623	17220	145752	27509	967322	38969	106785	0	0	8214	699109	0	0
2024-05-09 11:14:32			0	35023	0	0	0	18625	17220	146275	27460	967251	38980	106786	0	0	8208	704338	0	0
2024-05-09 11:15:32			0	34940	0	0	0	18628	17230	146675	27102	967293	38969	106787	0	0	8203	708194	0	0
2024-05-09 11:16:32			0	34852	0	0	0	18628	17230	147075	27589	967267	38958	106787	0	0	8198	712339	0	0
2024-05-09 11:17:32			0	34775	0	0	0	18633	17220	147347	27419	967251	38969	106789	0	0	8194	716021	0	0
2024-05-09 11:18:32			0	34730	0	0	0	18638	17230	147567	27348	967267	38958	106791	0	0	8191	718118	0	0
2024-05-09 11:19:32			0	34686	0	0	0	18651	17230	147727	27147	967373	38958	106796	0	0	8189	720210	0	0
2024-05-09 11:20:32			0	34667	0	0	0	18649	17230	147795	27343	967399	38958	106795	0	0	8188	721115	0	0
2024-05-09 11:21:32			0	34641	0	0	0	18662	17240	147947	27133	967442	38960	106800	0	0	8186	722316	0	0
2024-05-09 11:22:32			0	34647	0	0	0	18667	17240	147979	27400	967442	38982	106802	0	0	8186	722030	0	0
2024-05-09 11:23:32			0	34629	0	0	0	18672	17250	147875	27431	967459	38961	106804	0	0	8185	722849	0	0
2024-05-09 11:24:32			0	34638	0	0	0	18675	17250	147983	27190	967512	38961	106805	0	0	8186	722420	0	0
2024-05-09 11:25:32			0	34629	0	0	0	18680	17260	147875	27549	967441	38983	106807	0	0	8185	722810	0	0
2024-05-09 11:26:32			0	34623	0	0	0	18693	17250	147899	27248	967485	38972	106812	0	0	8184	723136	0	0
2024-05-09 11:27:32			0	34645	0	0	0	18698	17270	147919	27317	967563	38962	106814	0	0	8186	722007	0	0
2024-05-09 11:28:32			0	34649	0	0	0	18701	17270	147791	27202	967571	38963	106815	0	0	8186	721817	0	0
2024-05-09 11:29:32			0	34662	0	0	0	18701	17280	147819	27441	967553	38974	106815	0	0	8187	721158	0	0
2024-05-09 11:30:32			0	34649	0	0	0	18698	17290	147911	27164	967543	38975	106814	0	0	8186	721738	0	0
2024-05-09 11:31:32			0	34642	0	0	0	18701	17280	147775	27346	967508	38997	106815	0	0	8185	722111	0	0
2024-05-09 11:32:32			0	34620	0	0	0	18696	17290	147995	27268	967569	38975	106813	0	0	8184	723122	0	0
2024-05-09 11:33:32			0	34576	0	0	0	18709	17290	148211	27398	967596	38987	106818	0	0	8182	725226	0	0
2024-05-09 11:34:32			0	34525	0	0	0	18724	17290	148243	27029	967596	38987	106824	0	0	8179	727670	0	0
2024-05-09 11:35:32			0	34505	0	0	0	18722	17290	148415	27395	967648	38998	106823	0	0	8177	728630	0	0
2024-05-09 11:36:32			0	34466	0	0	0	18724	17300	148579	27386	967647	38976	106824	0	0	8175	730466	0	0
2024-05-09 11:37:32			0	34441	0	0	0	18722	17300	148727	27161	967691	38987	106823	0	0	8174	731670	0	0
2024-05-09 11:38:32			0	34443	0	0	0	18729	17320	148723	27587	967777	38988	106826	0	0	8174	731494	0	0
2024-05-09 11:39:32			0	34422	0	0	0	18724	17320	148823	27646	967671	38988	106824	0	0	8173	732506	0	0
2024-05-09 11:40:32			0	34423	0	0	0	18714	17320	148791	27329	967671	38988	106820	0	0	8173	732458	0	0
2024-05-09 11:41:32			0	34449	0	0	0	18709	17310	148759	27729	967716	38977	106818	0	0	8175	731245	0	0
2024-05-09 11:42:32			0	34465	0	0	0	18727	17320	148647	27190	967732	38967	106825	0	0	8175	730435	0	0
2024-05-09 11:43:32			0	34490	0	0	0	18732	17320	148519	27642	967680	38989	106827	0	0	8177	729232	0	0
2024-05-09 11:44:32			0	34523	0	0	0	18729	17320	148355	27379	967680	38978	106826	0	0	8178	727648	0	0
2024-05-09 11:45:32			0	34537	0	0	0	18722	17320	148243	27556	967724	38977	106823	0	0	8179	726976	0	0
2024-05-09 11:46:32			0	34575	0	0	0	18719	17330	148199	27571	967714	38979	106822	0	0	8182	725116	0	0
2024-05-09 11:47:32			0	34546	0	0	0	18714	17310	148155	27538	967663	38999	106820	0	0	8180	726584	0	0
2024-05-09 11:48:32			0	34557	0	0	0	18714	17310	148151	27415	967663	38988	106820	0	0	8181	726057	0	0
2024-05-09 11:49:32			0	34560	0	0	0	18709	17320	148039	27332	967618	38977	106818	0	0	8181	725874	0	0
2024-05-09 11:50:32			0	34572	0	0	0	18701	17320	148039	27294	967698	38988	106815	0	0	8182	725299	0	0
2024-05-09 11:51:32			0	34572	0	0	0	18701	17310	148043	27327	967637	38988	106815	0	0	8182	725339	0	0
2024-05-09 11:52:32			0	34583	0	0	0	18698	17310	147983	27377	967655	38977	106814	0	0	8182	724812	0	0
2024-05-09 11:53:32			0	34596	0	0	0	18703	17310	147999	27421	967610	38977	106816	0	0	8183	724190	0	0
2024-05-09 11:54:32			0	34611	0	0	0	18709	17310	147971	27452	967602	38988	106818	0	0	8184	723474	0	0
2024-05-09 11:55:32			0	34614	0	0	0	18711	17320	147915	27364	967671	38977	106819	0	0	8184	723291	0	0
2024-05-09 11:56:32			0	34615	0	0	0	18706	17320	147899	27739	967724	38977	106817	0	0	8184	723243	0	0
2024-05-09 11:57:32			0	34623	0	0	0	18709	17310	147939	27300	967708	38999	106818	0	0	8184	722900	0	0
2024-05-09 11:58:32			0	34628	0	0	0	18714	17320	147863	27350	967698	38988	106820	0	0	8185	722622	0	0
2024-05-09 11:59:32			0	34643	0	0	0	18722	17320	147839	27402	967706	38978	106823	0	0	8185	721907	0	0
2024-05-09 12:00:32			0	34667	0	0	0	18724	17320	147763	27750	967671	38977	106824	0	0	8187	720763	0	0
2024-05-09 12:01:32			0	34658	0	0	0	18727	17330	147715	27447	967741	38979	106825	0	0	8186	721152	0	0
2024-05-09 12:02:32			0	34689	0	0	0	18729	17320	147663	27332	967732	38989	106826	0	0	8188	719716	0	0
2024-05-09 12:03:32			0	34677	0	0	0	18729	17320	147579	27079	967724	38977	106826	0	0	8187	720287	0	0
2024-05-09 12:04:32			0	34710	0	0	0	18742	17320	147579	27533	967759	38989	106831	0	0	8189	718717	0	0
2024-05-09 12:05:32			0	34700	0	0	0	18763	17340	147551	27755	967836	38991	106839	0	0	8188	719114	0	0
2024-05-09 12:06:32			0	34714	0	0	0	18794	17350	147419	27131	967897	39001	106851	0	0	8188	718410	0	0
2024-05-09 12:07:32			0	34726	0	0	0	18797	17360	147439	27381	967914	39014	106852	0	0	8189	717800	0	0
2024-05-09 12:08:32			0	34741	0	0	0	18812	17360	147347	27403	967922	39014	106858	0	0	8190	717088	0	0
2024-05-09 12:09:32			0	34725	0	0	0	18846	17370	147427	27377	968044	39004	106871	0	0	8188	717809	0	0
2024-05-09 12:10:32			0	34762	0	0	0	18846	17380	147231	27933	968026	39005	106871	0	0	8190	716015	0	0
2024-05-09 12:11:32			0	34799	0	0	0	18838	17400	147247	27346	968059	38985	106868	0	0	8193	714185	0	0
2024-05-09 12:12:32			0	34803	0	0	0	18846	17400	147079	27562	968165	39017	106871	0	0	8193	713996	0	0
2024-05-09 12:13:32			0	34810	0	0	0	18857	17410	146875	27590	968137	39007	106875	0	0	8193	713626	0	0
2024-05-09 12:14:32			0	34822	0	0	0	18864	17430	146907	27229	968214	39020	106878	0	0	8193	712982	0	0
2024-05-09 12:15:32			0	34836	0	0	0	18872	17410	146963	27722	968242	39018	106881	0	0	8194	712398	0	0
2024-05-09 12:16:32			0	34812	0	0	0	18890	17440	147011	27557	968336	38999	106888	0	0	8193	713415	0	0
2024-05-09 12:17:32			0	34813	0	0	0	18888	17450	147067	27234	968274	39022	106887	0	0	8193	713329	0	0
2024-05-09 12:18:32			0	34767	0	0	0	18888	17450	147055	27253	968274	39011	106887	0	0	8190	715506	0	0
2024-05-09 12:19:32			0	34763	0	0	0	18890	17460	147199	27352	968369	39011	106888	0	0	8190	715656	0	0
2024-05-09 12:20:32			0	34743	0	0	0	18903	17460	147203	27566	968369	39011	106893	0	0	8189	716604	0	0
2024-05-09 12:21:32			0	34723	0	0	0	18911	17460	147275	27374	968351	39023	106896	0	0	8187	717553	0	0
2024-05-09 12:22:32			0	34710	0	0	0	18924	17470	147371	27196	968420	39012	106901	0	0	8186	718131	0	0
2024-05-09 12:23:32			0	34635	0	0	0	18940	17480	147671	27616	968508	39024	106907	0	0	8182	721661	0	0
2024-05-09 12:24:32			0	34556	0	0	0	18935	17490	147999	27289	968498	39026	106905	0	0	8178	725395	0	0
2024-05-09 12:25:32			0	34475	0	0	0	18945	17500	148379	27287	968541	39026	106909	0	0	8173	729240	0	0
2024-05-09 12:26:32			0	34425	0	0	0	18950	17510	148611	27628	968584	39016	106911	0	0	8170	731606	0	0
2024-05-09 12:27:32			0	34392	0	0	0	18961	17510	148883	27696	968566	39016	106915	0	0	8168	733197	0	0
2024-05-09 12:28:32			0	34335	0	0	0	18961	17520	148970	27393	968627	39028	106915	0	0	8165	735911	0	0
2024-05-09 12:29:32			0	34322	0	0	0	18961	17530	149226	27517	968617	39029	106915	0	0	8164	736500	0	0
2024-05-09 12:30:32			0	34300	0	0	0	18963	17530	149250	27402	968643	39018	106916	0	0	8163	737566	0	0
2024-05-09 12:31:32			0	34271	0	0	0	18968	17540	149266	27357	968686	39018	106918	0	0	8161	738933	0	0
2024-05-09 12:32:32			0	34260	0	0	0	18976	17540	149274	27300	968695	39019	106921	0	0	8160	739467	0	0
2024-05-09 12:33:32			0	34254	0	0	0	18989	17560	149374	27190	968780	39032	106926	0	0	8160	739678	0	0
2024-05-09 12:34:32			0	34252	0	0	0	18999	17570	149382	27479	968823	39034	106930	0	0	8160	739735	0	0
2024-05-09 12:35:32			0	34237	0	0	0	19007	17590	149414	27196	968874	39045	106933	0	0	8159	740383	0	0
2024-05-09 12:36:32			0	34244	0	0	0	19028	17580	149490	27398	968892	39011	106941	0	0	8159	740083	0	0
2024-05-09 12:37:32			0	34239	0	0	0	19041	17590	149450	27438	968883	39035	106946	0	0	8158	740286	0	0
2024-05-09 12:38:32			0	34250	0	0	0	19070	17610	149318	27569	968995	39026	106957	0	0	8158	739671	0	0
2024-05-09 12:39:32			0	34223	0	0	0	19098	17620	149494	27474	969056	39047	106968	0	0	8157	740943	0	0
2024-05-09 12:40:32			0	34212	0	0	0	19111	17630	149506	27580	969117	39059	106973	0	0	8156	741438	0	0
2024-05-09 12:41:32			0	34191	0	0	0	19119	17640	149558	27345	969168	39050	106976	0	0	8154	742420	0	0
2024-05-09 12:42:32			0	34186	0	0	0	19174	17660	149582	27130	969254	39052	106997	0	0	8153	742583	0	0
2024-05-09 12:43:32			0	34208	0	0	0	19207	17680	149534	27360	969366	39053	107010	0	0	8154	741431	0	0
2024-05-09 12:44:32			0	34218	0	0	0	19210	17690	149542	27286	969454	39076	107011	0	0	8155	740904	0	0
2024-05-09 12:45:32			0	34219	0	0	0	19197	17710	149446	27618	969495	39045	107006	0	0	8155	740775	0	0
2024-05-09 12:46:32			0	34222	0	0	0	19184	17720	149386	27452	969530	39056	107001	0	0	8155	740589	0	0
2024-05-09 12:47:32			0	34226	0	0	0	19171	17720	149382	27284	969504	39056	106996	0	0	8156	740394	0	0
2024-05-09 12:48:32			0	34250	0	0	0	19174	17730	149326	27576	969494	39058	106997	0	0	8157	739188	0	0
2024-05-09 12:49:32			0	34287	0	0	0	19163	17740	149206	27294	969484	39058	106993	0	0	8160	737353	0	0
2024-05-09 12:50:32			0	34313	0	0	0	19179	17750	148934	27433	969527	39059	106999	0	0	8161	736054	0	0
2024-05-09 12:51:32			0	34328	0	0	0	19181	17760	149030	27483	969631	39071	107000	0	0	8162	735289	0	0
2024-05-09 12:52:32			0	34309	0	0	0	19181	17750	149018	27338	969562	39059	107000	0	0	8161	736248	0	0
2024-05-09 12:53:32			0	34289	0	0	0	19181	17770	148978	27298	969534	39050	107000	0	0	8160	737136	0	0
2024-05-09 12:54:32			0	34310	0	0	0	19171	17760	148942	27498	969570	39039	106996	0	0	8161	736159	0	0
2024-05-09 12:55:32			0	34307	0	0	0	19166	17760	148950	27137	969525	39060	106994	0	0	8161	736305	0	0
2024-05-09 12:56:32			0	34313	0	0	0	19142	17760	148894	27364	969552	39049	106985	0	0	8162	736014	0	0
2024-05-09 12:57:32			0	34307	0	0	0	19109	17760	148910	27473	969464	39039	106972	0	0	8162	736305	0	0
2024-05-09 12:58:32			0	34305	0	0	0	19088	17740	148762	27291	969360	39037	106964	0	0	8162	736482	0	0
2024-05-09 12:59:32			0	34329	0	0	0	19070	17740	148766	27646	969307	39037	106957	0	0	8164	735321	0	0
2024-05-09 13:00:32			0	34332	0	0	0	19067	17740	148722	27765	969360	39047	106956	0	0	8164	735175	0	0
2024-05-09 13:01:32			0	34345	0	0	0	19054	17730	148730	27535	969203	39046	106951	0	0	8165	734587	0	0
2024-05-09 13:02:32			0	34337	0	0	0	19046	17720	148742	27376	969187	39045	106948	0	0	8164	735014	0	0
2024-05-09 13:03:32			0	34357	0	0	0	19038	17710	148687	27705	969152	39045	106945	0	0	8166	734088	0	0
2024-05-09 13:04:32			0	34364	0	0	0	19036	17700	148615	27488	969162	39044	106944	0	0	8166	733790	0	0
2024-05-09 13:05:32			0	34394	0	0	0	19041	17700	148539	27409	969180	39033	106946	0	0	8168	732342	0	0
2024-05-09 13:06:32			0	34409	0	0	0	19025	17690	148459	27455	969198	39033	106940	0	0	8169	731660	0	0
2024-05-09 13:07:32			0	34425	0	0	0	19023	17690	148363	27786	969111	39032	106939	0	0	8170	730889	0	0
2024-05-09 13:08:32			0	34445	0	0	0	19036	17690	148359	27405	969137	39032	106944	0	0	8171	729927	0	0
2024-05-09 13:09:32			0	34461	0	0	0	19031	17690	148259	27566	969137	39032	106942	0	0	8172	729158	0	0
2024-05-09 13:10:32			0	34498	0	0	0	19036	17680	148147	27720	969102	39010	106944	0	0	8173	727422	0	0
2024-05-09 13:11:32			0	34512	0	0	0	19038	17680	148079	27604	969129	39053	106945	0	0	8174	726751	0	0
2024-05-09 13:12:32			0	34540	0	0	0	19044	17680	147943	27467	969120	39031	106947	0	0	8176	725410	0	0
2024-05-09 13:13:32			0	34561	0	0	0	19038	17680	147823	27550	969120	39041	106945	0	0	8177	724406	0	0
2024-05-09 13:14:32			0	34595	0	0	0	19046	17680	147695	27438	969120	39052	106948	0	0	8179	722782	0	0
2024-05-09 13:15:32			0	34631	0	0	0	19051	17680	147615	27206	969129	39021	106950	0	0	8181	721066	0	0
2024-05-09 13:16:32			0	34660	0	0	0	19051	17670	147431	27282	969112	39052	106950	0	0	8182	719725	0	0
2024-05-09 13:17:32			0	34685	0	0	0	19051	17670	147263	27362	969112	39041	106950	0	0	8184	718537	0	0
2024-05-09 13:18:32			0	34724	0	0	0	19059	17680	147191	27424	969226	39041	106953	0	0	8186	716647	0	0
2024-05-09 13:19:32			0	34762	0	0	0	19064	17670	147003	27241	969130	39041	106955	0	0	8188	714886	0	0
2024-05-09 13:20:32			0	34781	0	0	0	19062	17670	146891	27353	969138	39041	106954	0	0	8189	713988	0	0
2024-05-09 13:21:32			0	34804	0	0	0	19083	17680	146851	27343	969147	39031	106962	0	0	8190	712862	0	0
2024-05-09 13:22:32			0	34847	0	0	0	19090	17690	146623	27573	969243	39042	106965	0	0	8192	710795	0	0
2024-05-09 13:23:32			0	34878	0	0	0	19088	17680	146523	27369	969155	39053	106964	0	0	8194	709375	0	0
2024-05-09 13:24:32			0	34879	0	0	0	19096	17690	146347	27320	969216	39053	106967	0	0	8194	709289	0	0
2024-05-09 13:25:32			0	34903	0	0	0	19106	17700	146347	27538	969259	39043	106971	0	0	8195	708122	0	0
2024-05-09 13:26:32			0	34923	0	0	0	19103	17700	146239	27403	969286	39043	106970	0	0	8196	707183	0	0
2024-05-09 13:27:32			0	34946	0	0	0	19116	17710	146115	27085	969355	39044	106975	0	0	8197	706066	0	0
2024-05-09 13:28:32			0	34983	0	0	0	19142	17710	145999	27519	969408	39044	106985	0	0	8199	704333	0	0
2024-05-09 13:29:32			0	34984	0	0	0	19238	17720	146111	27353	969591	39057	107022	0	0	8198	704248	0	0
2024-05-09 13:30:32			0	34998	0	0	0	19220	17750	145959	27528	969641	39070	107015	0	0	8199	703479	0	0
2024-05-09 13:31:32			0	35016	0	0	0	19207	17770	145987	27535	969719	39061	107010	0	0	8200	702561	0	0
2024-05-09 13:32:32			0	35003	0	0	0	19194	17770	145907	27550	969674	39061	107005	0	0	8200	703168	0	0
2024-05-09 13:33:32			0	35020	0	0	0	19171	17770	145851	27741	969621	39061	106996	0	0	8201	702374	0	0
2024-05-09 13:34:32			0	35036	0	0	0	19171	17770	145875	27260	969586	39040	106996	0	0	8202	701628	0	0
2024-05-09 13:35:32			0	34982	0	0	0	19163	17780	145919	27685	969629	39062	106993	0	0	8199	704112	0	0
2024-05-09 13:36:32			0	34937	0	0	0	19140	17760	146199	27699	969552	39060	106984	0	0	8197	706296	0	0
2024-05-09 13:37:32			0	34897	0	0	0	19137	17760	146215	27694	969499	39060	106983	0	0	8195	708173	0	0
2024-05-09 13:38:32			0	34836	0	0	0	19119	17750	146467	27381	969482	39048	106976	0	0	8191	711081	0	0
2024-05-09 13:39:32			0	34813	0	0	0	19116	17750	146711	27760	969456	39059	106975	0	0	8190	712166	0	0
2024-05-09 13:40:32			0	34770	0	0	0	19119	17750	146731	27568	969456	39048	106976	0	0	8188	714197	0	0
2024-05-09 13:41:32			0	34759	0	0	0	19119	17750	146939	27431	969527	39048	106976	0	0	8187	714717	0	0
2024-05-09 13:42:32			0	34739	0	0	0	19109	17750	147047	27428	969368	39059	106972	0	0	8186	715663	0	0
2024-05-09 13:43:32			0	34711	0	0	0	19106	17740	147059	27326	969405	39058	106971	0	0	8185	717029	0	0
2024-05-09 13:44:32			0	34691	0	0	0	19088	17730	147095	27438	969423	39058	106964	0	0	8184	718017	0	0
2024-05-09 13:45:32			0	34701	0	0	0	19090	17740	147095	27599	969378	39046	106965	0	0	8184	717504	0	0
2024-05-09 13:46:32			0	34669	0	0	0	19088	17740	147267	27199	969378	39036	106964	0	0	8183	719023	0	0
2024-05-09 13:47:32			0	34691	0	0	0	19090	17730	147271	27479	969335	39036	106965	0	0	8184	718017	0	0
2024-05-09 13:48:32			0	34684	0	0	0	19088	17720	147271	27235	969292	39045	106964	0	0	8183	718389	0	0
2024-05-09 13:49:32			0	34668	0	0	0	19090	17720	147175	27305	969300	39057	106965	0	0	8182	719149	0	0
2024-05-09 13:50:32			0	34675	0	0	0	19090	17710	147247	27055	969302	39055	106965	0	0	8183	718855	0	0
2024-05-09 13:51:32			0	34704	0	0	0	19077	17710	147227	27258	969302	39044	106960	0	0	8185	717478	0	0
2024-05-09 13:52:32			0	34690	0	0	0	19090	17720	147303	27718	969353	39057	106965	0	0	8184	718104	0	0
2024-05-09 13:53:32			0	34682	0	0	0	19096	17710	147083	27293	969310	39056	106967	0	0	8183	718523	0	0
2024-05-09 13:54:32			0	34700	0	0	0	19106	17710	147111	27277	969329	39044	106971	0	0	8184	717668	0	0
2024-05-09 13:55:32			0	34672	0	0	0	19109	17710	147107	27500	969329	39034	106972	0	0	8182	718998	0	0
2024-05-09 13:56:32			0	34688	0	0	0	19109	17720	147223	27403	969292	39067	106972	0	0	8183	718199	0	0
2024-05-09 13:57:32			0	34703	0	0	0	19103	17710	147239	27272	969381	39055	106970	0	0	8184	717526	0	0
2024-05-09 13:58:32			0	34682	0	0	0	19111	17720	147191	27365	969398	39056	106973	0	0	8183	718484	0	0
2024-05-09 13:59:32			0	34676	0	0	0	19103	17720	147111	27613	969345	39045	106970	0	0	8183	718769	0	0
2024-05-09 14:00:32			0	34666	0	0	0	19109	17720	147183	27329	969424	39056	106972	0	0	8182	719244	0	0
2024-05-09 14:01:32			0	34677	0	0	0	19116	17730	147271	27609	969414	39058	106975	0	0	8182	718682	0	0
2024-05-09 14:02:32			0	34653	0	0	0	19106	17740	147259	27275	969352	39036	106971	0	0	8181	719784	0	0
2024-05-09 14:03:32			0	34638	0	0	0	19210	17730	147415	27703	969555	39058	107011	0	0	8179	720537	0	0
2024-05-09 14:04:32			0	34632	0	0	0	19184	17750	147567	27499	969615	39059	107001	0	0	8179	720744	0	0
2024-05-09 14:05:32			0	34636	0	0	0	19153	17760	147471	27552	969649	39060	106989	0	0	8180	720514	0	0
2024-05-09 14:06:32			0	34625	0	0	0	19168	17770	147475	27774	969613	39040	106995	0	0	8179	720999	0	0
2024-05-09 14:07:32			0	34600	0	0	0	19145	17770	147535	27239	969613	39050	106986	0	0	8178	722190	0	0
2024-05-09 14:08:32			0	34606	0	0	0	19135	17760	147543	27737	969517	39060	106982	0	0	8178	721943	0	0
2024-05-09 14:09:32			0	34591	0	0	0	19127	17770	147607	27788	969560	39050	106979	0	0	8178	722619	0	0
2024-05-09 14:10:32			0	34552	0	0	0	19137	17760	147747	27689	969605	39039	106983	0	0	8175	724521	0	0
2024-05-09 14:11:32			0	34504	0	0	0	19148	17770	147803	27462	969639	39050	106987	0	0	8172	726778	0	0
2024-05-09 14:12:32			0	34501	0	0	0	19176	17760	147963	27339	969605	39071	106998	0	0	8172	726962	0	0
2024-05-09 14:13:32			0	34491	0	0	0	19233	17770	148091	27741	969745	39061	107020	0	0	8170	727401	0	0
2024-05-09 14:14:32			0	34453	0	0	0	19244	17790	148143	27627	969778	39084	107024	0	0	8168	729146	0	0
2024-05-09 14:15:32			0	34438	0	0	0	19212	17790	148291	27307	969813	39074	107012	0	0	8168	729866	0	0
2024-05-09 14:16:32			0	34424	0	0	0	19215	17810	148263	27658	969793	39076	107013	0	0	8167	730460	0	0
2024-05-09 14:17:32			0	34429	0	0	0	19212	17810	148355	27609	969872	39053	107012	0	0	8167	730219	0	0
2024-05-09 14:18:32			0	34432	0	0	0	19207	17830	148315	27758	969817	39077	107010	0	0	8168	729996	0	0
2024-05-09 14:19:32			0	34407	0	0	0	19215	17820	148387	27310	969801	39065	107013	0	0	8166	731238	0	0
2024-05-09 14:20:32			0	34402	0	0	0	19205	17820	148391	27880	969862	39077	107009	0	0	8166	731479	0	0
2024-05-09 14:21:32			0	34370	0	0	0	19202	17820	148507	27358	969783	39077	107008	0	0	8164	733021	0	0
2024-05-09 14:22:32			0	34383	0	0	0	19215	17830	148575	27519	969844	39077	107013	0	0	8165	732354	0	0
2024-05-09 14:23:32			0	34350	0	0	0	19228	17830	148626	27322	969870	39066	107018	0	0	8163	733946	0	0
2024-05-09 14:24:32			0	34349	0	0	0	19262	17830	148563	27365	969905	39067	107031	0	0	8162	733994	0	0
2024-05-09 14:25:32			0	34357	0	0	0	19262	17840	148587	27576	969966	39056	107031	0	0	8162	733568	0	0
2024-05-09 14:26:32			0	34347	0	0	0	19238	17850	148662	27251	969964	39080	107022	0	0	8162	734011	0	0
2024-05-09 14:27:32			0	34348	0	0	0	19236	17850	148583	27547	969983	39068	107021	0	0	8162	733962	0	0
2024-05-09 14:28:32			0	34363	0	0	0	19246	17850	148591	27076	970044	39069	107025	0	0	8163	733238	0	0
2024-05-09 14:29:32			0	34367	0	0	0	19215	17840	148519	27528	969974	39079	107013	0	0	8164	733086	0	0
2024-05-09 14:30:32			0	34370	0	0	0	19186	17860	148499	27687	969973	39069	107002	0	0	8165	732861	0	0
2024-05-09 14:31:32			0	34387	0	0	0	19202	17850	148451	27388	969964	39069	107008	0	0	8165	732082	0	0
2024-05-09 14:32:32			0	34358	0	0	0	19194	17860	148430	27746	969947	39069	107005	0	0	8164	733440	0	0
2024-05-09 14:33:32			0	34364	0	0	0	19189	17850	148463	27760	969930	39068	107003	0	0	8164	733190	0	0
2024-05-09 14:34:32			0	34365	0	0	0	19197	17850	148571	27369	969938	39058	107006	0	0	8164	733142	0	0
2024-05-09 14:35:32			0	34342	0	0	0	19158	17850	148503	27505	969885	39069	106991	0	0	8163	734252	0	0
2024-05-09 14:36:32			0	34338	0	0	0	19171	17860	148478	27505	969920	39069	106996	0	0	8163	734405	0	0
2024-05-09 14:37:32			0	34332	0	0	0	19150	17850	148646	27774	969912	39058	106988	0	0	8163	734735	0	0
2024-05-09 14:38:32			0	34332	0	0	0	19153	17850	148606	27369	969824	39057	106989	0	0	8163	734735	0	0
2024-05-09 14:39:32			0	34357	0	0	0	19145	17850	148455	27478	969877	39057	106986	0	0	8164	733528	0	0
2024-05-09 14:40:32			0	34338	0	0	0	19137	17830	148642	27517	969826	39056	106983	0	0	8163	734525	0	0
2024-05-09 14:41:32			0	34364	0	0	0	19129	17840	148491	27620	969808	39056	106980	0	0	8165	733230	0	0
2024-05-09 14:42:32			0	34380	0	0	0	19140	17830	148251	27731	969791	39044	106984	0	0	8166	732499	0	0
2024-05-09 14:43:32			0	34390	0	0	0	19137	17820	148307	27313	969756	39055	106983	0	0	8166	732057	0	0
2024-05-09 14:44:32			0	34411	0	0	0	19124	17820	148223	27651	969756	39055	106978	0	0	8168	731045	0	0
2024-05-09 14:45:32			0	34422	0	0	0	19127	17820	148263	27428	969703	39044	106979	0	0	8168	730516	0	0
2024-05-09 14:46:32			0	34437	0	0	0	19119	17810	148203	27460	969740	39053	106976	0	0	8169	729835	0	0
2024-05-09 14:47:32			0	34443	0	0	0	19127	17820	148067	27573	969748	39054	106979	0	0	8169	729507	0	0
2024-05-09 14:48:32			0	34456	0	0	0	19148	17820	148079	27464	969756	39055	106987	0	0	8170	728882	0	0
2024-05-09 14:49:32			0	34478	0	0	0	19155	17810	148043	27507	969732	39053	106990	0	0	8171	727866	0	0
2024-05-09 14:50:32			0	34478	0	0	0	19163	17810	148071	27523	969766	39032	106993	0	0	8171	727866	0	0
2024-05-09 14:51:32			0	34487	0	0	0	19158	17820	148019	27701	969775	39054	106991	0	0	8171	727395	0	0
2024-05-09 14:52:32			0	34501	0	0	0	19163	17810	147999	27414	969758	39042	106993	0	0	8172	726764	0	0
2024-05-09 14:53:32			0	34484	0	0	0	19174	17810	147919	27583	969793	39042	106997	0	0	8171	727578	0	0
2024-05-09 14:54:32			0	34506	0	0	0	19264	17810	147887	27746	969898	39053	107032	0	0	8171	726524	0	0
2024-05-09 14:55:32			0	34495	0	0	0	19316	17840	148027	27383	970027	39079	107052	0	0	8169	726932	0	0
2024-05-09 14:56:32			0	34489	0	0	0	19327	17850	148019	27746	970097	39069	107056	0	0	8169	727180	0	0
2024-05-09 14:57:32			0	34501	0	0	0	19358	17860	147995	27762	970211	39080	107068	0	0	8169	726566	0	0
2024-05-09 14:58:32			0	34489	0	0	0	19358	17890	147963	27396	970260	39083	107068	0	0	8169	727022	0	0
2024-05-09 14:59:32			0	34504	0	0	0	19327	17900	147883	27384	970311	39073	107056	0	0	8170	726263	0	0
2024-05-09 15:00:32			0	34500	0	0	0	19319	17900	147863	27402	970285	39073	107053	0	0	8170	726455	0	0
2024-05-09 15:01:32			0	34475	0	0	0	19311	17910	148035	27533	970214	39074	107050	0	0	8169	727613	0	0
2024-05-09 15:02:32			0	34438	0	0	0	19311	17930	148075	27571	970265	39064	107050	0	0	8167	729310	0	0
2024-05-09 15:03:32			0	34393	0	0	0	19314	17930	148219	27500	970379	39086	107051	0	0	8164	731473	0	0
2024-05-09 15:04:32			0	34370	0	0	0	19319	17950	148395	27397	970404	39076	107053	0	0	8163	732502	0	0
2024-05-09 15:05:32			0	34341	0	0	0	19322	17940	148498	27440	970369	39065	107054	0	0	8161	733940	0	0
2024-05-09 15:06:32			0	34295	0	0	0	19316	17940	148694	27319	970343	39076	107052	0	0	8158	736163	0	0
2024-05-09 15:07:32			0	34282	0	0	0	19311	17940	148834	27606	970316	39098	107050	0	0	8158	736792	0	0
2024-05-09 15:08:32			0	34240	0	0	0	19316	17950	148870	27505	970386	39077	107052	0	0	8155	738788	0	0
2024-05-09 15:09:32			0	34236	0	0	0	19324	17950	149038	27367	970351	39087	107055	0	0	8155	738982	0	0
2024-05-09 15:10:32			0	34218	0	0	0	19311	17960	149094	27256	970349	39100	107050	0	0	8154	739815	0	0
2024-05-09 15:11:32			0	34204	0	0	0	19306	17960	149058	27552	970376	39088	107048	0	0	8154	740495	0	0
2024-05-09 15:12:32			0	34229	0	0	0	19316	17960	149142	27374	970429	39078	107052	0	0	8155	739281	0	0
2024-05-09 15:13:32			0	34236	0	0	0	19335	17950	149058	27424	970465	39077	107059	0	0	8155	738982	0	0
2024-05-09 15:14:32			0	34263	0	0	0	19316	17970	148930	27208	970437	39078	107052	0	0	8157	737592	0	0
2024-05-09 15:15:32			0	34272	0	0	0	19314	17980	148830	27519	970462	39080	107051	0	0	8157	737116	0	0
2024-05-09 15:16:32			0	34285	0	0	0	19324	17970	148802	27583	970524	39089	107055	0	0	8158	736527	0	0
2024-05-09 15:17:32			0	34295	0	0	0	19335	17970	148738	27447	970410	39067	107059	0	0	8158	736043	0	0
2024-05-09 15:18:32			0	34332	0	0	0	19335	17970	148506	27514	970472	39079	107059	0	0	8160	734255	0	0
2024-05-09 15:19:32			0	34345	0	0	0	19337	17980	148530	27298	970462	39080	107060	0	0	8161	733587	0	0
2024-05-09 15:20:32			0	34346	0	0	0	19342	17980	148466	27507	970453	39080	107062	0	0	8161	733539	0	0
2024-05-09 15:21:32			0	34360	0	0	0	19361	17980	148423	27265	970462	39080	107069	0	0	8162	732864	0	0
2024-05-09 15:22:32			0	34373	0	0	0	19353	17980	148403	27339	970567	39090	107066	0	0	8162	732237	0	0
2024-05-09 15:23:32			0	34376	0	0	0	19348	17990	148283	27192	970558	39081	107064	0	0	8163	732053	0	0
2024-05-09 15:24:32			0	34387	0	0	0	19366	18000	148203	27369	970566	39082	107071	0	0	8163	731483	0	0
2024-05-09 15:25:32			0	34411	0	0	0	19384	18000	148211	27355	970619	39092	107078	0	0	8164	730329	0	0
2024-05-09 15:26:32			0	34419	0	0	0	19399	18000	148167	27360	970627	39093	107084	0	0	8164	729944	0	0
2024-05-09 15:27:32			0	34408	0	0	0	19387	18000	148203	27329	970627	39093	107079	0	0	8164	730473	0	0
2024-05-09 15:28:32			0	34401	0	0	0	19397	18020	148255	27433	970713	39083	107083	0	0	8163	730730	0	0
2024-05-09 15:29:32			0	34416	0	0	0	19392	18020	148203	27608	970660	39106	107081	0	0	8164	730009	0	0
2024-05-09 15:30:32			0	34400	0	0	0	19381	18020	148151	27419	970678	39083	107077	0	0	8164	730778	0	0
2024-05-09 15:31:32			0	34402	0	0	0	19387	18010	148223	27528	970617	39093	107079	0	0	8164	730722	0	0
2024-05-09 15:32:32			0	34385	0	0	0	19374	18010	148243	27486	970644	39093	107074	0	0	8163	731540	0	0
2024-05-09 15:33:32			0	34379	0	0	0	19368	18020	148251	27535	970634	39083	107072	0	0	8163	731788	0	0
2024-05-09 15:34:32			0	34367	0	0	0	19374	18020	148251	27440	970652	39072	107074	0	0	8162	732367	0	0
2024-05-09 15:35:32			0	34375	0	0	0	19387	18030	148367	27502	970748	39083	107079	0	0	8162	731941	0	0
2024-05-09 15:36:32			0	34389	0	0	0	19379	18020	148307	27536	970713	39083	107076	0	0	8163	731307	0	0
2024-05-09 15:37:32			0	34368	0	0	0	19368	18040	148459	27396	970685	39106	107072	0	0	8162	732238	0	0
2024-05-09 15:38:32			0	34351	0	0	0	19376	18030	148371	27616	970650	39083	107075	0	0	8161	733098	0	0
2024-05-09 15:39:32			0	34350	0	0	0	19345	18030	148375	27616	970624	39094	107063	0	0	8162	733146	0	0
2024-05-09 15:40:32			0	34337	0	0	0	19340	18030	148462	27677	970721	39083	107061	0	0	8161	733773	0	0
2024-05-09 15:41:32			0	34332	0	0	0	19335	18030	148458	27524	970695	39083	107059	0	0	8161	734014	0	0
2024-05-09 15:42:32			0	34330	0	0	0	19337	18020	148406	27199	970634	39083	107060	0	0	8160	734151	0	0
2024-05-09 15:43:32			0	34324	0	0	0	19332	18030	148486	27287	970703	39106	107058	0	0	8160	734401	0	0
2024-05-09 15:44:32			0	34313	0	0	0	19319	18030	148510	27242	970616	39083	107053	0	0	8160	734932	0	0
2024-05-09 15:45:32			0	34329	0	0	0	19335	18040	148562	27202	970632	39084	107059	0	0	8161	734119	0	0
2024-05-09 15:46:32			0	34320	0	0	0	19332	18030	148534	27457	970616	39073	107058	0	0	8160	734594	0	0
2024-05-09 15:47:32			0	34312	0	0	0	19309	18020	148670	27441	970581	39073	107049	0	0	8160	735020	0	0
2024-05-09 15:48:32			0	34313	0	0	0	19298	18020	148486	27498	970493	39083	107045	0	0	8160	734972	0	0
2024-05-09 15:49:32			0	34305	0	0	0	19288	18000	148622	27374	970495	39071	107041	0	0	8160	735439	0	0
2024-05-09 15:50:32			0	34287	0	0	0	19290	18010	148642	27445	970503	39071	107042	0	0	8159	736269	0	0
2024-05-09 15:51:32			0	34303	0	0	0	19296	18000	148650	27279	970548	39071	107044	0	0	8160	735535	0	0
2024-05-09 15:52:32			0	34297	0	0	0	19288	18000	148658	27403	970521	39083	107041	0	0	8159	735826	0	0
2024-05-09 15:53:32			0	34302	0	0	0	19277	18000	148602	27232	970442	39071	107037	0	0	8160	735584	0	0
2024-05-09 15:54:32			0	34293	0	0	0	19283	17990	148662	27265	970417	39080	107039	0	0	8159	736059	0	0
2024-05-09 15:55:32			0	34297	0	0	0	19267	17990	148626	27588	970417	39058	107033	0	0	8160	735866	0	0
2024-05-09 15:56:32			0	34320	0	0	0	19264	17990	148642	27476	970391	39080	107032	0	0	8161	734754	0	0
2024-05-09 15:57:32			0	34316	0	0	0	19264	17980	148514	27319	970321	39069	107032	0	0	8161	734987	0	0
2024-05-09 15:58:32			0	34321	0	0	0	19264	17970	148506	27376	970313	39057	107032	0	0	8161	734786	0	0
2024-05-09 15:59:32			0	34309	0	0	0	19257	17960	148494	27284	970341	39067	107029	0	0	8160	735406	0	0
2024-05-09 16:00:32			0	34333	0	0	0	19283	17950	148434	27173	970280	39088	107039	0	0	8161	734286	0	0
2024-05-09 16:01:32			0	34328	0	0	0	19288	17960	148518	27459	970349	39067	107041	0	0	8161	734488	0	0
2024-05-09 16:02:32			0	34344	0	0	0	19288	17970	148447	27187	970445	39089	107041	0	0	8162	733675	0	0
2024-05-09 16:03:32			0	34327	0	0	0	19290	17980	148458	27564	970462	39080	107042	0	0	8161	734456	0	0
2024-05-09 16:04:32			0	34359	0	0	0	19264	17990	148598	27760	970417	39069	107032	0	0	8163	732872	0	0
2024-05-09 16:05:32			0	34339	0	0	0	19280	17970	148322	27370	970410	39067	107038	0	0	8162	733917	0	0
2024-05-09 16:06:32			0	34344	0	0	0	19267	17970	148442	27732	970392	39079	107033	0	0	8162	733675	0	0
2024-05-09 16:07:32			0	34327	0	0	0	19272	17970	148394	27371	970339	39079	107035	0	0	8161	734496	0	0
2024-05-09 16:08:32			0	34328	0	0	0	19277	17970	148446	27296	970410	39067	107037	0	0	8161	734448	0	0
2024-05-09 16:09:32			0	34324	0	0	0	19311	17970	148586	27345	970516	39078	107050	0	0	8160	734641	0	0
2024-05-09 16:10:32			0	34306	0	0	0	19322	17990	148606	26883	970523	39080	107054	0	0	8159	735431	0	0
2024-05-09 16:11:32			0	34285	0	0	0	19363	17980	148650	27438	970620	39080	107070	0	0	8157	736486	0	0
2024-05-09 16:12:32			0	34300	0	0	0	19361	18000	148690	27493	970645	39082	107069	0	0	8158	735681	0	0
2024-05-09 16:13:32			0	34297	0	0	0	19316	18000	148686	27216	970627	39083	107052	0	0	8159	735826	0	0
2024-05-09 16:14:32			0	34275	0	0	0	19332	18020	148642	27440	970660	39073	107058	0	0	8157	736810	0	0
2024-05-09 16:15:32			0	34280	0	0	0	19342	18020	148714	27429	970652	39094	107062	0	0	8158	736568	0	0
2024-05-09 16:16:32			0	34270	0	0	0	19353	18010	148770	27294	970617	39071	107066	0	0	8157	737092	0	0
2024-05-09 16:17:32			0	34267	0	0	0	19355	18020	148862	27287	970687	39073	107067	0	0	8157	737197	0	0
2024-05-09 16:18:32			0	34234	0	0	0	19381	18020	148798	27211	970678	39083	107077	0	0	8154	738797	0	0
2024-05-09 16:19:32			0	34230	0	0	0	19420	18020	148874	27204	970739	39083	107092	0	0	8153	738991	0	0
2024-05-09 16:20:32			0	34236	0	0	0	19381	18040	148870	27479	970817	39084	107077	0	0	8154	738619	0	0
2024-05-09 16:21:32			0	34224	0	0	0	19379	18040	149026	27168	970738	39095	107076	0	0	8154	739201	0	0
2024-05-09 16:22:32			0	34227	0	0	0	19392	18040	149046	27585	970844	39084	107081	0	0	8154	739056	0	0
2024-05-09 16:23:32			0	34215	0	0	0	19415	18050	149026	27123	970868	39075	107090	0	0	8153	739598	0	0
2024-05-09 16:24:32			0	34198	0	0	0	19423	18060	149050	27696	970929	39097	107093	0	0	8152	740383	0	0
2024-05-09 16:25:32			0	34204	0	0	0	19454	18070	148998	27374	971052	39088	107105	0	0	8152	740051	0	0
2024-05-09 16:26:32			0	34205	0	0	0	19467	18080	148978	27371	970962	39088	107110	0	0	8151	739962	0	0
2024-05-09 16:27:32			0	34196	0	0	0	19431	18080	148938	27312	971076	39088	107096	0	0	8152	740400	0	0
2024-05-09 16:28:32			0	34213	0	0	0	19467	18090	149002	27386	971093	39089	107110	0	0	8152	739533	0	0
2024-05-09 16:29:32			0	34195	0	0	0	19620	18110	149074	27339	971224	39113	107169	0	0	8148	740327	0	0
2024-05-09 16:30:32			0	34202	0	0	0	19815	18130	148998	27483	971530	39116	107244	0	0	8146	739906	0	0
2024-05-09 16:31:32			0	34207	0	0	0	19724	18170	149026	27050	971720	39140	107209	0	0	8148	739502	0	0
2024-05-09 16:32:32			0	34224	0	0	0	19698	18190	149042	27535	971734	39131	107199	0	0	8149	738596	0	0
2024-05-09 16:33:32			0	34253	0	0	0	19688	18230	148742	27391	971731	39134	107195	0	0	8151	737030	0	0
2024-05-09 16:34:32			0	34288	0	0	0	19654	18240	148482	27687	971827	39135	107182	0	0	8154	735297	0	0
2024-05-09 16:35:32			0	34334	0	0	0	19672	18250	148302	27483	971791	39125	107189	0	0	8156	733037	0	0
2024-05-09 16:36:32			0	34369	0	0	0	19680	18260	148063	27495	971807	39125	107192	0	0	8158	731312	0	0
2024-05-09 16:37:32			0	34399	0	0	0	19628	18260	148003	27299	971701	39125	107172	0	0	8161	729869	0	0
2024-05-09 16:38:32			0	34421	0	0	0	19548	18260	147899	27130	971701	39115	107141	0	0	8163	728813	0	0
2024-05-09 16:39:32			0	34434	0	0	0	19610	18260	147743	27211	971675	39125	107165	0	0	8163	728190	0	0
2024-05-09 16:40:32			0	34458	0	0	0	19659	18260	147735	27405	971763	39126	107184	0	0	8163	727039	0	0
2024-05-09 16:41:32			0	34474	0	0	0	19690	18250	147579	27327	971878	39125	107196	0	0	8164	726313	0	0
2024-05-09 16:42:32			0	34474	0	0	0	19519	18280	147543	27022	971814	39117	107130	0	0	8167	726194	0	0
2024-05-09 16:43:32			0	34510	0	0	0	19428	18280	147507	27434	971682	39117	107095	0	0	8170	724473	0	0
2024-05-09 16:44:32			0	34498	0	0	0	19392	18260	147379	27093	971516	39104	107081	0	0	8170	725125	0	0
2024-05-09 16:45:32			0	34536	0	0	0	19368	18250	147351	27175	971500	39103	107072	0	0	8173	723350	0	0
2024-05-09 16:46:32			0	34545	0	0	0	19363	18250	147291	27590	971455	39103	107070	0	0	8173	722921	0	0
2024-05-09 16:47:32			0	34564	0	0	0	19322	18220	147215	27268	971318	39079	107054	0	0	8175	722134	0	0
2024-05-09 16:48:32			0	34598	0	0	0	19366	18210	147135	27279	971151	39078	107071	0	0	8176	720554	0	0
2024-05-09 16:49:32			0	34618	0	0	0	19387	18190	146923	27431	971285	39099	107079	0	0	8177	719682	0	0
2024-05-09 16:50:32			0	34645	0	0	0	19358	18200	146807	27249	971293	39099	107068	0	0	8179	718360	0	0
2024-05-09 16:51:32			0	34686	0	0	0	19337	18180	146671	27306	971110	39086	107060	0	0	8181	716494	0	0
2024-05-09 16:52:32			0	34711	0	0	0	19345	18160	146715	27239	971042	39063	107063	0	0	8182	715389	0	0
2024-05-09 16:53:32			0	34731	0	0	0	19392	18150	146571	27145	971052	39062	107081	0	0	8183	714482	0	0
2024-05-09 16:54:32			0	34725	0	0	0	19449	18140	146587	27338	971096	39072	107103	0	0	8181	714805	0	0
2024-05-09 16:55:32			0	34716	0	0	0	19610	18150	146615	27130	971263	39106	107165	0	0	8178	715192	0	0
2024-05-09 16:56:32			0	34726	0	0	0	19636	18160	146707	27201	971526	39106	107175	0	0	8178	714680	0	0
2024-05-09 16:57:32			0	34722	0	0	0	19636	18200	146679	27166	971663	39121	107175	0	0	8178	714713	0	0
2024-05-09 16:58:32			0	34732	0	0	0	19825	18220	146671	27015	971829	39124	107248	0	0	8176	714162	0	0
2024-05-09 16:59:32			0	34728	0	0	0	19849	18260	146627	27436	972133	39137	107257	0	0	8175	714195	0	0
2024-05-09 17:00:32			0	34707	0	0	0	19802	18300	146651	27395	972173	39163	107239	0	0	8175	715032	0	0
2024-05-09 17:01:32			0	34708	0	0	0	19799	18310	146671	27454	972234	39130	107238	0	0	8175	714945	0	0
2024-05-09 17:02:32			0	34699	0	0	0	19792	18340	146611	27511	972239	39133	107235	0	0	8175	715254	0	0
2024-05-09 17:03:32			0	34695	0	0	0	19807	18340	146711	27116	972265	39133	107241	0	0	8175	715443	0	0
2024-05-09 17:04:32			0	34655	0	0	0	19784	18360	146715	27175	972290	39157	107232	0	0	8173	717259	0	0
2024-05-09 17:05:32			0	34649	0	0	0	19792	18370	146851	27390	972360	39147	107235	0	0	8172	717504	0	0
2024-05-09 17:06:32			0	34638	0	0	0	19761	18390	146919	27310	972393	39137	107223	0	0	8172	717947	0	0
2024-05-09 17:07:32			0	34610	0	0	0	19748	18390	146967	27067	972366	39148	107218	0	0	8171	719276	0	0
2024-05-09 17:08:32			0	34595	0	0	0	19812	18410	147063	27417	972532	39139	107243	0	0	8169	719910	0	0
2024-05-09 17:09:32			0	34577	0	0	0	19867	18410	147135	27353	972505	39150	107264	0	0	8167	720766	0	0
2024-05-09 17:10:32			0	34568	0	0	0	19929	18430	147215	27175	972670	39163	107288	0	0	8166	721115	0	0
2024-05-09 17:11:32			0	34558	0	0	0	19940	18460	147295	27507	972799	39166	107292	0	0	8165	721473	0	0
2024-05-09 17:12:32			0	34546	0	0	0	19924	18470	147351	27150	972842	39166	107286	0	0	8165	722005	0	0
2024-05-09 17:13:32			0	34540	0	0	0	19901	18490	147303	27067	972849	39168	107277	0	0	8165	722212	0	0
2024-05-09 17:14:32			0	34523	0	0	0	19794	18500	147283	27377	972760	39180	107236	0	0	8166	722982	0	0
2024-05-09 17:15:32			0	34541	0	0	0	19794	18500	147143	27303	972760	39159	107236	0	0	8167	722124	0	0
2024-05-09 17:16:32			0	34569	0	0	0	19680	18490	147003	27289	972672	39147	107192	0	0	8170	720831	0	0
2024-05-09 17:17:32			0	34585	0	0	0	19599	18490	146883	27287	972479	39147	107161	0	0	8173	720070	0	0
2024-05-09 17:18:32			0	34606	0	0	0	19553	18460	146843	27563	972323	39122	107143	0	0	8174	719191	0	0
2024-05-09 17:19:32			0	34630	0	0	0	19550	18430	146735	27537	972202	39109	107142	0	0	8176	718169	0	0
2024-05-09 17:20:32			0	34665	0	0	0	19571	18430	146631	27696	972247	39108	107150	0	0	8177	716511	0	0
2024-05-09 17:21:32			0	34702	0	0	0	19618	18420	146567	27488	972125	39140	107168	0	0	8179	714799	0	0
2024-05-09 17:22:32			0	34723	0	0	0	19675	18420	146499	27474	972284	39140	107190	0	0	8179	713807	0	0
2024-05-09 17:23:32			0	34752	0	0	0	19631	18410	146339	27031	972267	39128	107173	0	0	8181	712478	0	0
2024-05-09 17:24:32			0	34761	0	0	0	19646	18410	146211	27315	972302	39107	107179	0	0	8181	712053	0	0
2024-05-09 17:25:32			0	34785	0	0	0	19654	18410	146095	27118	972302	39119	107182	0	0	8183	710923	0	0
2024-05-09 17:26:32			0	34782	0	0	0	19576	18410	146135	27222	972161	39106	107152	0	0	8184	711064	0	0
2024-05-09 17:27:32			0	34796	0	0	0	19522	18400	146127	27393	972039	39117	107131	0	0	8185	710444	0	0
2024-05-09 17:28:32			0	34792	0	0	0	19506	18380	146147	27239	971979	39093	107125	0	0	8185	710710	0	0
2024-05-09 17:29:32			0	34769	0	0	0	19529	18360	146243	27116	971822	39091	107134	0	0	8184	711871	0	0
2024-05-09 17:30:32			0	34739	0	0	0	19519	18340	146379	27462	971815	39112	107130	0	0	8182	713364	0	0
2024-05-09 17:31:32			0	34711	0	0	0	19493	18330	146439	26866	971772	39111	107120	0	0	8181	714725	0	0
2024-05-09 17:32:32			0	34708	0	0	0	19496	18320	146607	27275	971835	39110	107121	0	0	8180	714906	0	0
2024-05-09 17:33:32			0	34655	0	0	0	19488	18320	146611	27346	971748	39109	107118	0	0	8178	717415	0	0
2024-05-09 17:34:32			0	34653	0	0	0	19485	18300	146727	27024	971670	39097	107117	0	0	8178	717589	0	0
2024-05-09 17:35:32			0	34627	0	0	0	19470	18290	146775	27454	971653	39085	107111	0	0	8176	718861	0	0
2024-05-09 17:36:32			0	34598	0	0	0	19454	18270	146967	27367	971515	39073	107105	0	0	8175	720318	0	0
2024-05-09 17:37:32			0	34604	0	0	0	19459	18250	147063	26982	971455	39082	107107	0	0	8175	720111	0	0
2024-05-09 17:38:32			0	34557	0	0	0	19441	18240	147167	27144	971404	39091	107100	0	0	8173	722388	0	0
2024-05-09 17:39:32			0	34540	0	0	0	19405	18240	147167	27237	971378	39091	107086	0	0	8172	723199	0	0
2024-05-09 17:40:32			0	34531	0	0	0	19412	18220	147351	27388	971344	39089	107089	0	0	8172	723707	0	0
2024-05-09 17:41:32			0	34503	0	0	0	19410	18200	147439	27517	971293	39088	107088	0	0	8170	725124	0	0
2024-05-09 17:42:32			0	34500	0	0	0	19418	18190	147579	27654	971153	39088	107091	0	0	8170	725307	0	0
2024-05-09 17:43:32			0	34477	0	0	0	19441	18180	147631	27703	971260	39076	107100	0	0	8168	726447	0	0
2024-05-09 17:44:32			0	34440	0	0	0	19462	18170	147687	27402	971252	39097	107108	0	0	8165	728260	0	0
2024-05-09 17:45:32			0	34450	0	0	0	19488	18170	147851	27543	971331	39097	107118	0	0	8165	727780	0	0
2024-05-09 17:46:32			0	34424	0	0	0	19490	18190	147783	27270	971409	39120	107119	0	0	8164	728948	0	0
2024-05-09 17:47:32			0	34438	0	0	0	19483	18190	147831	27338	971409	39098	107116	0	0	8165	728276	0	0
2024-05-09 17:48:32			0	34412	0	0	0	19483	18190	147855	27286	971435	39098	107116	0	0	8163	729524	0	0
2024-05-09 17:49:32			0	34410	0	0	0	19490	18190	147991	27282	971356	39098	107119	0	0	8163	729620	0	0
2024-05-09 17:50:32			0	34411	0	0	0	19475	18190	147979	27227	971417	39088	107113	0	0	8164	729572	0	0
2024-05-09 17:51:32			0	34406	0	0	0	19464	18170	147947	27810	971278	39097	107109	0	0	8163	729892	0	0
2024-05-09 17:52:32			0	34398	0	0	0	19485	18170	148003	27518	971384	39097	107117	0	0	8163	730276	0	0
2024-05-09 17:53:32			0	34405	0	0	0	19605	18180	147955	27100	971551	39119	107163	0	0	8161	729900	0	0
2024-05-09 17:54:32			0	34389	0	0	0	19742	18220	148183	27123	971847	39133	107216	0	0	8158	730509	0	0
2024-05-09 17:55:32			0	34375	0	0	0	19745	18280	148179	27270	972105	39160	107217	0	0	8157	730943	0	0
2024-05-09 17:56:32			0	34397	0	0	0	19706	18300	148027	27313	972217	39140	107202	0	0	8159	729806	0	0
2024-05-09 17:57:32			0	34402	0	0	0	19688	18320	148103	27069	972206	39131	107195	0	0	8160	729486	0	0
2024-05-09 17:58:32			0	34402	0	0	0	19685	18340	147959	27320	972230	39133	107194	0	0	8160	729406	0	0
2024-05-09 17:59:32			0	34418	0	0	0	19670	18360	147899	27429	972237	39125	107188	0	0	8161	728559	0	0
2024-05-09 18:00:32			0	34425	0	0	0	19667	18360	147775	27189	972264	39125	107187	0	0	8162	728223	0	0
2024-05-09 18:01:32			0	34441	0	0	0	19594	18360	147747	27294	972079	39135	107159	0	0	8164	727456	0	0
2024-05-09 18:02:32			0	34460	0	0	0	19576	18360	147639	27393	972105	39113	107152	0	0	8165	726546	0	0
2024-05-09 18:03:32			0	34499	0	0	0	19594	18360	147463	27542	972132	39125	107159	0	0	8167	724681	0	0
2024-05-09 18:04:32			0	34498	0	0	0	19537	18360	147411	27390	971973	39113	107137	0	0	8168	724729	0	0
2024-05-09 18:05:32			0	34522	0	0	0	19524	18340	147235	27526	971921	39100	107132	0	0	8170	723662	0	0
2024-05-09 18:06:32			0	34543	0	0	0	19410	18330	147287	27324	971817	39100	107088	0	0	8173	722700	0	0
2024-05-09 18:07:32			0	34565	0	0	0	19431	18310	147119	27164	971581	39087	107096	0	0	8174	721731	0	0
2024-05-09 18:08:32			0	34550	0	0	0	19462	18300	147127	27090	971635	39107	107108	0	0	8172	722485	0	0
2024-05-09 18:09:32			0	34540	0	0	0	19485	18280	147179	27239	971584	39074	107117	0	0	8171	723041	0	0
2024-05-09 18:10:32			0	34563	0	0	0	19446	18260	147187	27140	971551	39094	107102	0	0	8173	722023	0	0
2024-05-09 18:11:32			0	34558	0	0	0	19462	18260	147251	27293	971622	39093	107108	0	0	8172	722262	0	0
2024-05-09 18:12:32			0	34545	0	0	0	19490	18260	147191	27142	971490	39093	107119	0	0	8171	722881	0	0
2024-05-09 18:13:32			0	34548	0	0	0	19501	18250	147251	27150	971640	39103	107123	0	0	8171	722778	0	0
2024-05-09 18:14:32			0	34539	0	0	0	19527	18260	147319	27225	971604	39105	107133	0	0	8170	723167	0	0
2024-05-09 18:15:32			0	34551	0	0	0	19519	18260	147231	27566	971622	39093	107130	0	0	8171	722595	0	0
2024-05-09 18:16:32			0	34546	0	0	0	19511	18260	147443	27220	971596	39083	107127	0	0	8171	722834	0	0
2024-05-09 18:17:32			0	34553	0	0	0	19516	18260	147403	27253	971569	39093	107129	0	0	8171	722500	0	0
2024-05-09 18:18:32			0	34530	0	0	0	19509	18240	147355	27364	971677	39103	107126	0	0	8170	723676	0	0
2024-05-09 18:19:32			0	34535	0	0	0	19509	18250	147383	27326	971553	39114	107126	0	0	8170	723398	0	0
2024-05-09 18:20:32			0	34524	0	0	0	19506	18250	147459	27568	971526	39092	107125	0	0	8170	723923	0	0
2024-05-09 18:21:32			0	34512	0	0	0	19493	18240	147471	27145	971510	39102	107120	0	0	8169	724535	0	0
2024-05-09 18:22:32			0	34513	0	0	0	19501	18240	147515	27230	971518	39103	107123	0	0	8169	724488	0	0
2024-05-09 18:23:32			0	34494	0	0	0	19488	18220	147475	27237	971458	39101	107118	0	0	8168	725475	0	0
2024-05-09 18:24:32			0	34486	0	0	0	19511	18220	147559	27517	971485	39080	107127	0	0	8167	725858	0	0
2024-05-09 18:25:32			0	34474	0	0	0	19490	18230	147655	27256	971466	39090	107119	0	0	8167	726392	0	0
2024-05-09 18:26:32			0	34474	0	0	0	19462	18220	147591	27479	971432	39090	107108	0	0	8167	726432	0	0
2024-05-09 18:27:32			0	34463	0	0	0	19451	18210	147667	27415	971362	39088	107104	0	0	8167	726998	0	0
2024-05-09 18:28:32			0	34462	0	0	0	19418	18190	147803	27355	971258	39099	107091	0	0	8167	727125	0	0
2024-05-09 18:29:32			0	34452	0	0	0	19376	18180	147759	27230	971181	39086	107075	0	0	8167	727644	0	0
2024-05-09 18:30:32			0	34477	0	0	0	19368	18160	147783	27339	971050	39095	107072	0	0	8169	726526	0	0
2024-05-09 18:31:32			0	34462	0	0	0	19355	18140	147815	27218	970956	39072	107067	0	0	8168	727324	0	0
2024-05-09 18:32:32			0	34462	0	0	0	19309	18130	147759	27345	970887	39071	107049	0	0	8169	727364	0	0
2024-05-09 18:33:32			0	34447	0	0	0	19340	18120	147747	27157	970817	39081	107061	0	0	8168	728123	0	0
2024-05-09 18:34:32			0	34465	0	0	0	19353	18100	147775	27071	970792	39080	107066	0	0	8168	727339	0	0
2024-05-09 18:35:32			0	34476	0	0	0	19335	18090	147667	27315	970767	39089	107059	0	0	8169	726852	0	0
2024-05-09 18:36:32			0	34485	0	0	0	19337	18070	147743	26998	970769	39088	107060	0	0	8169	726500	0	0
2024-05-09 18:37:32			0	34500	0	0	0	19342	18060	147663	27348	970753	39098	107062	0	0	8170	725822	0	0
2024-05-09 18:38:32			0	34494	0	0	0	19335	18060	147675	27345	970665	39086	107059	0	0	8170	726109	0	0
2024-05-09 18:39:32			0	34480	0	0	0	19311	18050	147695	27100	970648	39064	107050	0	0	8170	726819	0	0
2024-05-09 18:40:32			0	34491	0	0	0	19314	18040	147675	27287	970553	39084	107051	0	0	8170	726331	0	0
2024-05-09 18:41:32			0	34499	0	0	0	19319	18030	147683	27457	970563	39062	107053	0	0	8170	725988	0	0
2024-05-09 18:42:32			0	34497	0	0	0	19316	18010	147687	27473	970538	39083	107052	0	0	8170	726163	0	0
2024-05-09 18:43:32			0	34473	0	0	0	19293	18010	147727	27029	970477	39083	107043	0	0	8169	727313	0	0
2024-05-09 18:44:32			0	34479	0	0	0	19270	18000	147799	27111	970495	39083	107034	0	0	8170	727065	0	0
2024-05-09 18:45:32			0	34470	0	0	0	19290	17990	147875	27133	970505	39091	107042	0	0	8169	727536	0	0
2024-05-09 18:46:32			0	34453	0	0	0	19290	17990	147987	27310	970391	39080	107042	0	0	8168	728351	0	0
2024-05-09 18:47:32			0	34442	0	0	0	19283	17990	147999	27364	970444	39080	107039	0	0	8168	728879	0	0
2024-05-09 18:48:32			0	34430	0	0	0	19275	17980	148047	26878	970409	39080	107036	0	0	8167	729495	0	0
2024-05-09 18:49:32			0	34409	0	0	0	19241	17970	148111	27190	970392	39068	107023	0	0	8166	730544	0	0
2024-05-09 18:50:32			0	34400	0	0	0	19181	17960	148087	27137	970296	39067	107000	0	0	8167	731017	0	0
2024-05-09 18:51:32			0	34385	0	0	0	19246	17960	148183	27300	970262	39078	107025	0	0	8165	731739	0	0
2024-05-09 18:52:32			0	34387	0	0	0	19270	17950	148279	27512	970333	39066	107034	0	0	8165	731683	0	0
2024-05-09 18:53:32			0	34397	0	0	0	19301	17950	148347	27461	970404	39076	107046	0	0	8165	731201	0	0
2024-05-09 18:54:32			0	34389	0	0	0	19301	17950	148279	27682	970439	39077	107046	0	0	8164	731586	0	0
2024-05-09 18:55:32			0	34382	0	0	0	19311	17960	148287	27531	970473	39078	107050	0	0	8164	731883	0	0
2024-05-09 18:56:32			0	34364	0	0	0	19353	17960	148491	27495	970420	39100	107066	0	0	8162	732751	0	0
2024-05-09 18:57:32			0	34365	0	0	0	19335	17970	148387	27317	970490	39078	107059	0	0	8162	732663	0	0
2024-05-09 18:58:32			0	34375	0	0	0	19340	17960	148379	27580	970508	39078	107061	0	0	8163	732221	0	0
2024-05-09 18:59:32			0	34371	0	0	0	19337	17960	148487	27329	970473	39088	107060	0	0	8163	732414	0	0
2024-05-09 19:00:32			0	34359	0	0	0	19329	17960	148443	27270	970429	39088	107057	0	0	8162	732992	0	0
2024-05-09 19:01:32			0	34343	0	0	0	19314	17970	148534	27447	970551	39079	107051	0	0	8161	733724	0	0
2024-05-09 19:02:32			0	34316	0	0	0	19324	17960	148530	27176	970455	39088	107055	0	0	8160	735067	0	0
2024-05-09 19:03:32			0	34326	0	0	0	19303	17970	148574	27379	970437	39088	107047	0	0	8161	734544	0	0
2024-05-09 19:04:32			0	34339	0	0	0	19283	17960	148662	27076	970429	39078	107039	0	0	8162	733957	0	0
2024-05-09 19:05:32			0	34338	0	0	0	19270	17950	148598	27213	970333	39066	107034	0	0	8162	734045	0	0
2024-05-09 19:06:32			0	34320	0	0	0	19249	17950	148634	27500	970325	39054	107026	0	0	8161	734914	0	0
2024-05-09 19:07:32			0	34293	0	0	0	19251	17930	148702	27559	970247	39065	107027	0	0	8159	736300	0	0
2024-05-09 19:08:32			0	34293	0	0	0	19249	17940	148634	27275	970229	39065	107026	0	0	8159	736260	0	0
2024-05-09 19:09:32			0	34289	0	0	0	19238	17920	148734	27352	970204	39075	107022	0	0	8159	736534	0	0
2024-05-09 19:10:32			0	34271	0	0	0	19264	17930	148754	27196	970318	39075	107032	0	0	8158	737365	0	0
2024-05-09 19:11:32			0	34293	0	0	0	19238	17920	148842	27339	970275	39074	107022	0	0	8160	736340	0	0
2024-05-09 19:12:32			0	34281	0	0	0	19259	17930	148898	27211	970265	39096	107030	0	0	8159	736881	0	0
2024-05-09 19:13:32			0	34282	0	0	0	19267	17920	148778	27081	970275	39084	107033	0	0	8158	736873	0	0
2024-05-09 19:14:32			0	34282	0	0	0	19332	17920	148714	27472	970363	39096	107058	0	0	8157	736873	0	0
2024-05-09 19:15:32			0	34275	0	0	0	19457	17950	148814	27346	970589	39098	107106	0	0	8155	737091	0	0
2024-05-09 19:16:32			0	34282	0	0	0	19459	17970	148930	27509	970789	39112	107107	0	0	8155	736672	0	0
2024-05-09 19:17:32			0	34279	0	0	0	19381	18000	148814	27350	970778	39103	107077	0	0	8157	736696	0	0
2024-05-09 19:18:32			0	34277	0	0	0	19358	18010	148822	27417	970688	39083	107068	0	0	8157	736753	0	0
2024-05-09 19:19:32			0	34275	0	0	0	19340	18000	148838	27547	970725	39082	107061	0	0	8157	736890	0	0
2024-05-09 19:20:32			0	34265	0	0	0	19322	18000	148890	27580	970680	39083	107054	0	0	8157	737374	0	0
2024-05-09 19:21:32			0	34274	0	0	0	19314	18010	148814	27346	970635	39083	107051	0	0	8158	736898	0	0
2024-05-09 19:22:32			0	34255	0	0	0	19288	17990	148794	27199	970505	39091	107041	0	0	8157	737899	0	0
2024-05-09 19:23:32			0	34239	0	0	0	19277	17980	148894	27422	970462	39090	107037	0	0	8156	738715	0	0
2024-05-09 19:24:32			0	34238	0	0	0	19246	17970	148978	27329	970419	39079	107025	0	0	8157	738804	0	0
2024-05-09 19:25:32			0	34239	0	0	0	19246	17960	148974	27355	970349	39078	107025	0	0	8157	738796	0	0
2024-05-09 19:26:32			0	34237	0	0	0	19259	17960	148926	27495	970368	39078	107030	0	0	8156	738893	0	0
2024-05-09 19:27:32			0	34229	0	0	0	19251	17960	149018	27258	970455	39078	107027	0	0	8156	739281	0	0
2024-05-09 19:28:32			0	34235	0	0	0	19249	17980	148954	27341	970427	39080	107026	0	0	8156	738909	0	0
2024-05-09 19:29:32			0	34232	0	0	0	19244	17970	148966	27597	970358	39078	107024	0	0	8156	739095	0	0
2024-05-09 19:30:32			0	34244	0	0	0	19210	17950	148858	27507	970333	39055	107011	0	0	8157	738593	0	0
2024-05-09 19:31:32			0	34262	0	0	0	19179	17940	148922	27800	970229	39065	106999	0	0	8159	737761	0	0
2024-05-09 19:32:32			0	34257	0	0	0	19179	17940	148822	27209	970229	39054	106999	0	0	8159	738003	0	0
2024-05-09 19:33:32			0	34235	0	0	0	19186	17930	148874	27206	970133	39064	107002	0	0	8157	739111	0	0
2024-05-09 19:34:32			0	34267	0	0	0	19179	17930	148958	27381	970159	39075	106999	0	0	8159	737559	0	0
2024-05-09 19:35:32			0	34268	0	0	0	19184	17920	148890	26981	970125	39075	107001	0	0	8159	737551	0	0
2024-05-09 19:36:32			0	34278	0	0	0	19179	17920	148806	27338	970125	39075	106999	0	0	8160	737066	0	0
2024-05-09 19:37:32			0	34291	0	0	0	19161	17900	148782	27253	970092	39061	106992	0	0	8161	736517	0	0
2024-05-09 19:38:32			0	34294	0	0	0	19142	17900	148750	27220	970065	39061	106985	0	0	8161	736372	0	0
2024-05-09 19:39:32			0	34300	0	0	0	19114	17880	148690	27336	969935	39049	106974	0	0	8162	736162	0	0
2024-05-09 19:40:32			0	34321	0	0	0	19101	17880	148846	27500	969847	39048	106969	0	0	8163	735146	0	0
2024-05-09 19:41:32			0	34315	0	0	0	19116	17860	148682	27320	969814	39058	106975	0	0	8163	735517	0	0
2024-05-09 19:42:32			0	34315	0	0	0	19122	17840	148634	27490	969869	39046	106977	0	0	8162	735597	0	0
2024-05-09 19:43:32			0	34320	0	0	0	19114	17830	148758	27492	969799	39045	106974	0	0	8163	735395	0	0
2024-05-09 19:44:32			0	34330	0	0	0	19109	17830	148734	27232	969791	39055	106972	0	0	8163	734912	0	0
2024-05-09 19:45:32			0	34315	0	0	0	19116	17820	148682	27481	969775	39065	106975	0	0	8162	735677	0	0
2024-05-09 19:46:32			0	34322	0	0	0	19158	17810	148706	27540	969925	39064	106991	0	0	8162	735379	0	0
2024-05-09 19:47:32			0	34339	0	0	0	19316	17840	148718	27300	970204	39088	107052	0	0	8160	734437	0	0
2024-05-09 19:48:32			0	34325	0	0	0	19319	17870	148754	27329	970412	39103	107053	0	0	8160	734993	0	0
2024-05-09 19:49:32			0	34345	0	0	0	19246	17900	148650	27293	970330	39094	107025	0	0	8162	733907	0	0
2024-05-09 19:50:32			0	34348	0	0	0	19220	17900	148650	27537	970277	39072	107015	0	0	8163	733762	0	0
2024-05-09 19:51:32			0	34354	0	0	0	19207	17900	148643	27159	970145	39061	107010	0	0	8163	733473	0	0
2024-05-09 19:52:32			0	34363	0	0	0	19135	17890	148595	27296	970136	39061	106982	0	0	8165	733079	0	0
2024-05-09 19:53:32			0	34361	0	0	0	19135	17890	148559	27343	970049	39061	106982	0	0	8165	733175	0	0
2024-05-09 19:54:32			0	34356	0	0	0	19109	17860	148527	27360	969947	39058	106972	0	0	8165	733536	0	0
2024-05-09 19:55:32			0	34363	0	0	0	19114	17860	148507	27630	969902	39059	106974	0	0	8165	733199	0	0
2024-05-09 19:56:32			0	34380	0	0	0	19135	17830	148383	27163	969958	39056	106982	0	0	8166	732499	0	0
2024-05-09 19:57:32			0	34395	0	0	0	19244	17850	148371	27474	970149	39080	107024	0	0	8165	731696	0	0
2024-05-09 19:58:32			0	34404	0	0	0	19218	17860	148455	27379	970184	39080	107014	0	0	8166	731223	0	0
2024-05-09 19:59:32			0	34418	0	0	0	19158	17880	148279	27320	970199	39071	106991	0	0	8168	730470	0	0
2024-05-09 20:00:32			0	34424	0	0	0	19205	17890	148151	27190	970207	39083	107009	0	0	8167	730141	0	0
2024-05-09 20:01:32			0	34418	0	0	0	19332	17900	148243	27322	970356	39094	107058	0	0	8165	730390	0	0
2024-05-09 20:02:32			0	34416	0	0	0	19405	17920	148271	27351	970442	39085	107086	0	0	8164	730407	0	0
2024-05-09 20:03:32			0	34423	0	0	0	19472	17930	148335	27353	970485	39097	107112	0	0	8163	730030	0	0
2024-05-09 20:04:32			0	34401	0	0	0	19272	17940	148323	27336	970581	39098	107035	0	0	8165	731049	0	0
2024-05-09 20:05:32			0	34400	0	0	0	19129	17950	148291	27428	970439	39088	106980	0	0	8168	731057	0	0
2024-05-09 20:06:32			0	34391	0	0	0	19122	17930	148379	27500	970194	39053	106977	0	0	8167	731570	0	0
2024-05-09 20:07:32			0	34380	0	0	0	19277	17910	148343	27121	970240	39063	107037	0	0	8164	732179	0	0
2024-05-09 20:08:32			0	34379	0	0	0	19420	17930	148335	27282	970406	39086	107092	0	0	8161	732148	0	0
2024-05-09 20:09:32			0	34382	0	0	0	19296	17940	148387	27296	970546	39087	107044	0	0	8164	731963	0	0
2024-05-09 20:10:32			0	34400	0	0	0	19236	17940	148359	27178	970475	39076	107021	0	0	8166	731097	0	0
2024-05-09 20:11:32			0	34393	0	0	0	19319	17950	148271	27436	970491	39099	107053	0	0	8164	731394	0	0
2024-05-09 20:12:32			0	34411	0	0	0	19288	17970	148283	27341	970569	39100	107041	0	0	8166	730448	0	0
2024-05-09 20:13:32			0	34410	0	0	0	19257	17960	148199	27235	970508	39088	107029	0	0	8166	730536	0	0
2024-05-09 20:14:32			0	34428	0	0	0	19410	17960	148223	27409	970614	39100	107088	0	0	8164	729671	0	0
2024-05-09 20:15:32			0	34394	0	0	0	19368	17980	148283	27348	970718	39112	107072	0	0	8163	731226	0	0
2024-05-09 20:16:32			0	34405	0	0	0	19433	18000	148399	27630	970839	39093	107097	0	0	8163	730617	0	0
2024-05-09 20:17:32			0	34386	0	0	0	19574	18010	148399	27571	970987	39104	107151	0	0	8160	731491	0	0
2024-05-09 20:18:32			0	34363	0	0	0	19524	18020	148519	27419	971083	39117	107132	0	0	8159	732559	0	0
2024-05-09 20:19:32			0	34345	0	0	0	19610	18060	148458	27604	971141	39119	107165	0	0	8157	733267	0	0
2024-05-09 20:20:32			0	34349	0	0	0	19620	18070	148635	27329	971210	39110	107169	0	0	8157	733034	0	0
2024-05-09 20:21:32			0	34351	0	0	0	19615	18080	148519	27376	971288	39122	107167	0	0	8157	732898	0	0
2024-05-09 20:22:32			0	34372	0	0	0	19602	18090	148463	27355	971323	39123	107162	0	0	8159	731846	0	0
2024-05-09 20:23:32			0	34351	0	0	0	19584	18120	148411	27163	971399	39113	107155	0	0	8158	732738	0	0
2024-05-09 20:24:32			0	34352	0	0	0	19548	18120	148307	27616	971354	39125	107141	0	0	8159	732690	0	0
2024-05-09 20:25:32			0	34364	0	0	0	19535	18120	148367	27377	971249	39114	107136	0	0	8159	732112	0	0
2024-05-09 20:26:32			0	34367	0	0	0	19527	18130	148307	27564	971336	39125	107133	0	0	8160	731927	0	0
2024-05-09 20:27:32			0	34380	0	0	0	19553	18130	148159	27564	971283	39104	107143	0	0	8160	731301	0	0
2024-05-09 20:28:32			0	34390	0	0	0	19563	18130	148227	27497	971318	39126	107147	0	0	8161	730820	0	0
2024-05-09 20:29:32			0	34373	0	0	0	19566	18140	148267	27270	971361	39126	107148	0	0	8160	731598	0	0
2024-05-09 20:30:32			0	34392	0	0	0	19571	18140	148179	27208	971361	39116	107150	0	0	8161	730684	0	0
2024-05-09 20:31:32			0	34385	0	0	0	19553	18140	148139	27294	971326	39116	107143	0	0	8160	731021	0	0
2024-05-09 20:32:32			0	34378	0	0	0	19542	18150	148307	27443	971343	39117	107139	0	0	8160	731318	0	0
2024-05-09 20:33:32			0	34372	0	0	0	19506	18140	148311	27204	971308	39105	107125	0	0	8161	731646	0	0
2024-05-09 20:34:32			0	34371	0	0	0	19524	18140	148223	27170	971282	39116	107132	0	0	8160	731695	0	0
2024-05-09 20:35:32			0	34351	0	0	0	19522	18140	148259	27331	971255	39105	107131	0	0	8159	732658	0	0
2024-05-09 20:36:32			0	34360	0	0	0	19459	18130	148231	27329	971265	39116	107107	0	0	8161	732264	0	0
2024-05-09 20:37:32			0	34327	0	0	0	19405	18140	148274	26932	971229	39105	107086	0	0	8160	733815	0	0
2024-05-09 20:38:32			0	34325	0	0	0	19301	18140	148410	27147	971168	39105	107046	0	0	8161	733912	0	0
2024-05-09 20:39:32			0	34313	0	0	0	19212	18120	148414	27168	971037	39114	107012	0	0	8162	734571	0	0
2024-05-09 20:40:32			0	34310	0	0	0	19161	18090	148406	27415	970749	39079	106992	0	0	8163	734836	0	0
2024-05-09 20:41:32			0	34340	0	0	0	19098	18060	148230	27057	970488	39065	106968	0	0	8165	733508	0	0
2024-05-09 20:42:32			0	34390	0	0	0	19096	18030	148127	27235	970439	39073	106967	0	0	8168	731219	0	0
2024-05-09 20:43:32			0	34418	0	0	0	19090	18000	147967	27241	970257	39049	106965	0	0	8170	729992	0	0
2024-05-09 20:44:32			0	34453	0	0	0	19051	17990	147891	27305	970232	39069	106950	0	0	8172	728351	0	0
2024-05-09 20:45:32			0	34508	0	0	0	19054	17960	147671	26937	970050	39056	106951	0	0	8175	725835	0	0
2024-05-09 20:46:32			0	34541	0	0	0	19072	17940	147455	27227	970097	39054	106958	0	0	8177	724336	0	0
2024-05-09 20:47:32			0	34546	0	0	0	19140	17930	147503	26944	970194	39065	106984	0	0	8176	724136	0	0
2024-05-09 20:48:32			0	34583	0	0	0	19272	17940	147423	27062	970282	39065	107035	0	0	8176	722331	0	0
2024-05-09 20:49:32			0	34594	0	0	0	19342	17930	147419	27128	970424	39085	107062	0	0	8175	721846	0	0
2024-05-09 20:50:32			0	34601	0	0	0	19358	17950	147295	27041	970457	39087	107068	0	0	8175	721434	0	0
2024-05-09 20:51:32			0	34603	0	0	0	19355	17950	147387	27152	970483	39087	107067	0	0	8175	721339	0	0
2024-05-09 20:52:32			0	34632	0	0	0	19358	17960	147435	27131	970473	39100	107068	0	0	8177	719919	0	0
2024-05-09 20:53:32			0	34618	0	0	0	19340	17960	147307	27296	970447	39111	107061	0	0	8176	720585	0	0
2024-05-09 20:54:32			0	34611	0	0	0	19319	17960	147315	27428	970455	39078	107053	0	0	8176	720919	0	0
2024-05-09 20:55:32			0	34626	0	0	0	19264	17950	147259	27452	970430	39087	107032	0	0	8178	720244	0	0
2024-05-09 20:56:32			0	34613	0	0	0	19251	17950	147423	27329	970325	39087	107027	0	0	8178	720863	0	0
2024-05-09 20:57:32			0	34604	0	0	0	19246	17940	147363	27320	970361	39076	107025	0	0	8177	721330	0	0
2024-05-09 20:58:32			0	34597	0	0	0	19259	17940	147463	27540	970316	39065	107030	0	0	8177	721664	0	0
2024-05-09 20:59:32			0	34569	0	0	0	19215	17930	147511	27003	970300	39076	107013	0	0	8176	723038	0	0
2024-05-09 21:00:32			0	34551	0	0	0	19176	17940	147627	27177	970255	39076	106998	0	0	8175	723858	0	0
2024-05-09 21:01:32			0	34539	0	0	0	19192	17930	147663	27412	970239	39075	107004	0	0	8174	724471	0	0
2024-05-09 21:02:32			0	34520	0	0	0	19205	17910	147655	27237	970188	39084	107009	0	0	8173	725458	0	0
2024-05-09 21:03:32			0	34537	0	0	0	19225	17900	147679	27171	970179	39073	107017	0	0	8174	724685	0	0
2024-05-09 21:04:32			0	34523	0	0	0	19150	17910	147715	27098	970188	39074	106988	0	0	8174	725315	0	0
2024-05-09 21:05:32			0	34512	0	0	0	19168	17900	147615	27166	970118	39061	106995	0	0	8173	725881	0	0
2024-05-09 21:06:32			0	34525	0	0	0	19225	17890	147663	27268	970136	39072	107017	0	0	8173	725298	0	0
2024-05-09 21:07:32			0	34536	0	0	0	19220	17880	147615	27372	970093	39071	107015	0	0	8173	724812	0	0
2024-05-09 21:08:32			0	34529	0	0	0	19218	17880	147687	27455	970138	39070	107014	0	0	8173	725146	0	0
2024-05-09 21:09:32			0	34543	0	0	0	19220	17880	147671	27358	970085	39082	107015	0	0	8174	724477	0	0
2024-05-09 21:10:32			0	34543	0	0	0	19210	17860	147579	27206	970008	39070	107011	0	0	8174	724556	0	0
2024-05-09 21:11:32			0	34562	0	0	0	19197	17860	147575	27128	970087	39070	107006	0	0	8175	723648	0	0
2024-05-09 21:12:32			0	34570	0	0	0	19166	17860	147523	27140	970026	39090	106994	0	0	8176	723267	0	0
2024-05-09 21:13:32			0	34539	0	0	0	19163	17850	147531	27308	969991	39069	106993	0	0	8174	724787	0	0
2024-05-09 21:14:32			0	34562	0	0	0	19163	17850	147531	27317	969991	39080	106993	0	0	8176	723688	0	0
2024-05-09 21:15:32			0	34552	0	0	0	19171	17840	147543	27015	970001	39079	106996	0	0	8175	724205	0	0
2024-05-09 21:16:32			0	34561	0	0	0	19179	17850	147455	27275	969956	39089	106999	0	0	8175	723736	0	0
2024-05-09 21:17:32			0	34542	0	0	0	19189	17850	147571	27654	969956	39068	107003	0	0	8174	724643	0	0
2024-05-09 21:18:32			0	34563	0	0	0	19210	17840	147595	27358	969966	39078	107011	0	0	8175	723680	0	0
2024-05-09 21:19:32			0	34548	0	0	0	19202	17840	147635	27435	970001	39079	107008	0	0	8174	724396	0	0
2024-05-09 21:20:32			0	34534	0	0	0	19212	17830	147743	27268	969984	39078	107012	0	0	8173	725105	0	0
2024-05-09 21:21:32			0	34539	0	0	0	19210	17840	147707	27419	969966	39067	107011	0	0	8174	724826	0	0
2024-05-09 21:22:32			0	34532	0	0	0	19215	17840	147891	27338	970001	39089	107013	0	0	8173	725161	0	0
2024-05-09 21:23:32			0	34532	0	0	0	19205	17840	147923	27429	970019	39078	107009	0	0	8173	725161	0	0
2024-05-09 21:24:32			0	34508	0	0	0	19202	17840	147955	27412	969993	39088	107008	0	0	8172	726310	0	0
2024-05-09 21:25:32			0	34487	0	0	0	19210	17830	147947	27307	969984	39078	107011	0	0	8171	727355	0	0
2024-05-09 21:26:32			0	34484	0	0	0	19215	17840	148047	27166	969966	39067	107013	0	0	8170	727459	0	0
2024-05-09 21:27:32			0	34508	0	0	0	19225	17840	148051	27147	970080	39089	107017	0	0	8172	726310	0	0
2024-05-09 21:28:32			0	34474	0	0	0	19225	17840	148115	27573	970027	39089	107017	0	0	8170	727939	0	0
2024-05-09 21:29:32			0	34474	0	0	0	19236	17840	148107	27114	970072	39088	107021	0	0	8169	727939	0	0
2024-05-09 21:30:32			0	34468	0	0	0	19251	17840	148155	27485	970080	39079	107027	0	0	8169	728227	0	0
2024-05-09 21:31:32			0	34436	0	0	0	19264	17850	148259	27163	970115	39089	107032	0	0	8167	729724	0	0
2024-05-09 21:32:32			0	34439	0	0	0	19275	17850	148175	27535	970149	39101	107036	0	0	8167	729580	0	0
2024-05-09 21:33:32			0	34427	0	0	0	19283	17860	148327	27213	970193	39091	107039	0	0	8166	730117	0	0
2024-05-09 21:34:32			0	34408	0	0	0	19306	17870	148299	27244	970209	39103	107048	0	0	8165	730991	0	0
2024-05-09 21:35:32			0	34406	0	0	0	19324	17880	148271	27144	970270	39103	107055	0	0	8164	731047	0	0
2024-05-09 21:36:32			0	34395	0	0	0	19348	17890	148379	27493	970321	39105	107064	0	0	8163	731537	0	0
2024-05-09 21:37:32			0	34389	0	0	0	19363	17900	148459	27241	970364	39094	107070	0	0	8163	731786	0	0
2024-05-09 21:38:32			0	34370	0	0	0	19355	17910	148487	26909	970452	39106	107067	0	0	8162	732661	0	0
2024-05-09 21:39:32			0	34360	0	0	0	19384	17920	148499	27083	970460	39106	107078	0	0	8161	733103	0	0
2024-05-09 21:40:32			0	34329	0	0	0	19381	17930	148526	27092	970485	39086	107077	0	0	8159	734560	0	0
2024-05-09 21:41:32			0	34333	0	0	0	19397	17930	148558	26987	970538	39108	107083	0	0	8159	734366	0	0
2024-05-09 21:42:32			0	34319	0	0	0	19381	17950	148630	26955	970536	39098	107077	0	0	8159	734963	0	0
2024-05-09 21:43:32			0	34310	0	0	0	19374	17940	148622	27124	970554	39109	107074	0	0	8158	735438	0	0
2024-05-09 21:44:32			0	34312	0	0	0	19384	17950	148598	27152	970510	39109	107078	0	0	8158	735301	0	0
2024-05-09 21:45:32			0	34324	0	0	0	19379	17960	148650	27176	970587	39111	107076	0	0	8159	734681	0	0
2024-05-09 21:46:32			0	34324	0	0	0	19387	17960	148570	27005	970534	39100	107079	0	0	8159	734681	0	0
2024-05-09 21:47:32			0	34360	0	0	0	19381	17960	148475	27206	970526	39111	107077	0	0	8161	732944	0	0
2024-05-09 21:48:32			0	34361	0	0	0	19384	17960	148399	27012	970561	39088	107078	0	0	8161	732895	0	0
2024-05-09 21:49:32			0	34390	0	0	0	19374	17980	148271	27010	970586	39112	107074	0	0	8163	731419	0	0
2024-05-09 21:50:32			0	34407	0	0	0	19374	17970	148235	27071	970622	39111	107074	0	0	8164	730640	0	0
2024-05-09 21:51:32			0	34420	0	0	0	19374	17960	148199	27265	970561	39100	107074	0	0	8165	730055	0	0
2024-05-09 21:52:32			0	34427	0	0	0	19371	17970	148151	27001	970543	39111	107073	0	0	8165	729679	0	0
2024-05-09 21:53:32			0	34440	0	0	0	19368	17970	148135	26876	970543	39088	107072	0	0	8166	729055	0	0
2024-05-09 21:54:32			0	34447	0	0	0	19381	17970	148003	27261	970596	39100	107077	0	0	8166	728719	0	0
2024-05-09 21:55:32			0	34473	0	0	0	19379	17970	147995	26955	970577	39112	107076	0	0	8168	727471	0	0
2024-05-09 21:56:32			0	34478	0	0	0	19384	17980	147879	27085	970594	39101	107078	0	0	8168	727192	0	0
2024-05-09 21:57:32			0	34519	0	0	0	19384	17980	147791	27358	970638	39101	107078	0	0	8170	725229	0	0
2024-05-09 21:58:32			0	34524	0	0	0	19387	17990	147759	27022	970629	39112	107079	0	0	8170	724951	0	0
2024-05-09 21:59:32			0	34524	0	0	0	19392	17990	147647	27201	970602	39112	107081	0	0	8170	724951	0	0
2024-05-09 22:00:32			0	34557	0	0	0	19405	17990	147607	27419	970655	39101	107086	0	0	8172	723374	0	0
2024-05-09 22:01:32			0	34547	0	0	0	19394	17990	147591	27237	970664	39113	107082	0	0	8172	723852	0	0
2024-05-09 22:02:32			0	34542	0	0	0	19397	17990	147543	27254	970629	39124	107083	0	0	8171	724090	0	0
2024-05-09 22:03:32			0	34576	0	0	0	19397	17990	147579	27156	970664	39113	107083	0	0	8173	722468	0	0
2024-05-09 22:04:32			0	34571	0	0	0	19399	18000	147475	27336	970645	39114	107084	0	0	8173	722667	0	0
2024-05-09 22:05:32			0	34595	0	0	0	19397	18000	147451	27211	970680	39125	107083	0	0	8174	721523	0	0
2024-05-09 22:06:32			0	34596	0	0	0	19405	18000	147391	27229	970627	39115	107086	0	0	8174	721475	0	0
2024-05-09 22:07:32			0	34591	0	0	0	19392	18000	147339	27093	970759	39104	107081	0	0	8174	721714	0	0
2024-05-09 22:08:32			0	34585	0	0	0	19366	18000	147431	27197	970654	39115	107071	0	0	8174	722000	0	0
2024-05-09 22:09:32			0	34580	0	0	0	19368	18000	147495	27689	970725	39125	107072	0	0	8174	722238	0	0
2024-05-09 22:10:32			0	34579	0	0	0	19361	18000	147535	27279	970654	39104	107069	0	0	8174	722286	0	0
2024-05-09 22:11:32			0	34557	0	0	0	19363	18000	147559	27248	970654	39104	107070	0	0	8173	723335	0	0
2024-05-09 22:12:32			0	34538	0	0	0	19363	17990	147583	27007	970629	39112	107070	0	0	8172	724282	0	0
2024-05-09 22:13:32			0	34540	0	0	0	19366	17990	147575	27142	970629	39101	107071	0	0	8172	724186	0	0
2024-05-09 22:14:32			0	34540	0	0	0	19368	17990	147591	27225	970637	39102	107072	0	0	8172	724186	0	0
2024-05-09 22:15:32			0	34558	0	0	0	19355	17980	147591	27064	970567	39124	107067	0	0	8173	723366	0	0
2024-05-09 22:16:32			0	34540	0	0	0	19342	17990	147543	27545	970576	39112	107062	0	0	8172	724186	0	0
2024-05-09 22:17:32			0	34545	0	0	0	19329	17990	147615	27242	970550	39112	107057	0	0	8173	723947	0	0
2024-05-09 22:18:32			0	34549	0	0	0	19319	17980	147523	27178	970541	39112	107053	0	0	8173	723796	0	0
2024-05-09 22:19:32			0	34566	0	0	0	19309	17970	147523	27352	970524	39100	107049	0	0	8174	723024	0	0
2024-05-09 22:20:32			0	34577	0	0	0	19306	17980	147471	27364	970480	39101	107048	0	0	8175	722460	0	0
2024-05-09 22:21:32			0	34589	0	0	0	19306	17980	147407	27157	970480	39101	107048	0	0	8175	721888	0	0
2024-05-09 22:22:32			0	34586	0	0	0	19311	17960	147299	27412	970455	39100	107050	0	0	8175	722110	0	0
2024-05-09 22:23:32			0	34591	0	0	0	19290	17960	147319	27177	970429	39111	107042	0	0	8176	721871	0	0
2024-05-09 22:24:32			0	34607	0	0	0	19272	17960	147247	27145	970402	39088	107035	0	0	8177	721109	0	0
2024-05-09 22:25:32			0	34652	0	0	0	19272	17940	147187	27229	970343	39120	107035	0	0	8179	719047	0	0
2024-05-09 22:26:32			0	34649	0	0	0	19270	17950	147147	27102	970377	39098	107034	0	0	8179	719151	0	0
2024-05-09 22:27:32			0	34665	0	0	0	19262	17930	147207	27204	970273	39097	107031	0	0	8180	718469	0	0
2024-05-09 22:28:32			0	34671	0	0	0	19267	17930	147103	27386	970353	39086	107033	0	0	8180	718184	0	0
2024-05-09 22:29:32			0	34651	0	0	0	19264	17930	147127	26781	970326	39097	107032	0	0	8179	719134	0	0
2024-05-09 22:30:32			0	34686	0	0	0	19264	17930	147063	27284	970300	39108	107032	0	0	8181	717472	0	0
2024-05-09 22:31:32			0	34688	0	0	0	19236	17920	146995	27182	970336	39085	107021	0	0	8182	717417	0	0
2024-05-09 22:32:32			0	34693	0	0	0	19231	17910	146963	27327	970240	39095	107019	0	0	8182	717218	0	0
2024-05-09 22:33:32			0	34705	0	0	0	19231	17910	146943	27175	970240	39084	107019	0	0	8183	716650	0	0
2024-05-09 22:34:32			0	34708	0	0	0	19233	17900	146931	27360	970224	39083	107020	0	0	8183	716547	0	0
2024-05-09 22:35:32			0	34694	0	0	0	19254	17900	146855	27251	970153	39094	107028	0	0	8182	717210	0	0
2024-05-09 22:36:32			0	34716	0	0	0	19254	17900	146843	27298	970250	39105	107028	0	0	8183	716168	0	0
2024-05-09 22:37:32			0	34739	0	0	0	19251	17890	146887	27350	970181	39083	107027	0	0	8184	715118	0	0
2024-05-09 22:38:32			0	34732	0	0	0	19223	17890	146787	27131	970234	39083	107016	0	0	8184	715449	0	0
2024-05-09 22:39:32			0	34737	0	0	0	19236	17880	146659	27046	970138	39082	107021	0	0	8184	715251	0	0
2024-05-09 22:40:32			0	34749	0	0	0	19218	17880	146691	27180	970112	39092	107014	0	0	8185	714684	0	0
2024-05-09 22:41:32			0	34753	0	0	0	19212	17880	146615	27216	970112	39092	107012	0	0	8186	714495	0	0
2024-05-09 22:42:32			0	34784	0	0	0	19205	17880	146727	27293	970112	39092	107009	0	0	8188	713030	0	0
2024-05-09 22:43:32			0	34796	0	0	0	19218	17880	146695	27007	970138	39092	107014	0	0	8188	712463	0	0
2024-05-09 22:44:32			0	34795	0	0	0	19215	17870	146631	27301	970095	39082	107013	0	0	8188	712549	0	0
2024-05-09 22:45:32			0	34801	0	0	0	19212	17860	146551	27308	970087	39091	107012	0	0	8188	712305	0	0
2024-05-09 22:46:32			0	34807	0	0	0	19210	17860	146491	27171	970052	39090	107011	0	0	8189	712022	0	0
2024-05-09 22:47:32			0	34814	0	0	0	19218	17850	146447	27097	970070	39090	107014	0	0	8189	711731	0	0
2024-05-09 22:48:32			0	34837	0	0	0	19207	17860	146403	27251	970079	39101	107010	0	0	8190	710608	0	0
2024-05-09 22:49:32			0	34845	0	0	0	19210	17850	146363	27332	970009	39079	107011	0	0	8191	710270	0	0
2024-05-09 22:50:32			0	34858	0	0	0	19207	17850	146311	27062	970088	39089	107010	0	0	8192	709659	0	0
2024-05-09 22:51:32			0	34876	0	0	0	19207	17850	146251	27346	969991	39090	107010	0	0	8193	708812	0	0
2024-05-09 22:52:32			0	34863	0	0	0	19212	17850	146199	27150	970017	39080	107012	0	0	8192	709423	0	0
2024-05-09 22:53:32			0	34894	0	0	0	19210	17840	146147	27079	969993	39078	107011	0	0	8194	708005	0	0
2024-05-09 22:54:32			0	34897	0	0	0	19199	17840	146263	27156	969974	39079	107007	0	0	8194	707864	0	0
2024-05-09 22:55:32			0	34892	0	0	0	19181	17840	146087	27178	969966	39078	107000	0	0	8194	708099	0	0
2024-05-09 22:56:32			0	34925	0	0	0	19186	17840	146083	27251	969993	39067	107002	0	0	8196	706550	0	0
2024-05-09 22:57:32			0	34901	0	0	0	19194	17830	146071	27497	969950	39088	107005	0	0	8194	707715	0	0
2024-05-09 22:58:32			0	34907	0	0	0	19186	17830	146083	27320	970011	39111	107002	0	0	8195	707433	0	0
2024-05-09 22:59:32			0	34916	0	0	0	19166	17840	146107	27419	969966	39088	106994	0	0	8196	706972	0	0
2024-05-09 23:00:32			0	34927	0	0	0	19161	17830	146155	27384	969950	39077	106992	0	0	8196	706495	0	0
2024-05-09 23:01:32			0	34906	0	0	0	19135	17820	146015	27448	969889	39099	106982	0	0	8195	707519	0	0
2024-05-09 23:02:32			0	34908	0	0	0	19101	17820	146067	27258	969854	39087	106969	0	0	8196	707425	0	0
2024-05-09 23:03:32			0	34894	0	0	0	19088	17820	146119	27092	969827	39076	106964	0	0	8196	708082	0	0
2024-05-09 23:04:32			0	34907	0	0	0	19096	17790	146107	27400	969760	39063	106967	0	0	8196	707587	0	0
2024-05-09 23:05:32			0	34892	0	0	0	19088	17800	146187	27102	969715	39075	106964	0	0	8195	708253	0	0
2024-05-09 23:06:32			0	34875	0	0	0	19088	17790	146303	27486	969760	39074	106964	0	0	8194	709091	0	0
2024-05-09 23:07:32			0	34871	0	0	0	19088	17780	146303	27176	969709	39073	106964	0	0	8194	709318	0	0
2024-05-09 23:08:32			0	34856	0	0	0	19070	17780	146363	27263	969743	39062	106957	0	0	8194	710023	0	0
2024-05-09 23:09:32			0	34827	0	0	0	19031	17770	146375	27402	969621	39061	106942	0	0	8193	711428	0	0
2024-05-09 23:10:32			0	34839	0	0	0	19015	17760	146403	27426	969543	39060	106936	0	0	8193	710901	0	0
2024-05-09 23:11:32			0	34842	0	0	0	19005	17750	146475	27331	969562	39059	106932	0	0	8194	710799	0	0
2024-05-09 23:12:32			0	34847	0	0	0	19028	17740	146491	27440	969405	39069	106941	0	0	8194	710602	0	0
2024-05-09 23:13:32			0	34820	0	0	0	19033	17730	146391	27085	969494	39058	106943	0	0	8192	711913	0	0
2024-05-09 23:14:32			0	34822	0	0	0	19020	17720	146511	27170	969451	39078	106938	0	0	8192	711858	0	0
2024-05-09 23:15:32			0	34821	0	0	0	19012	17710	146595	27197	969416	39078	106935	0	0	8192	711944	0	0
2024-05-09 23:16:32			0	34820	0	0	0	19018	17710	146579	27343	969408	39066	106937	0	0	8192	711991	0	0
2024-05-09 23:17:32			0	34807	0	0	0	19018	17700	146531	27055	969426	39066	106937	0	0	8191	712643	0	0
2024-05-09 23:18:32			0	34818	0	0	0	19007	17690	146615	27296	969304	39065	106933	0	0	8192	712163	0	0
2024-05-09 23:19:32			0	34820	0	0	0	18999	17690	146451	27001	969269	39042	106930	0	0	8192	712068	0	0
2024-05-09 23:20:32			0	34826	0	0	0	18981	17690	146483	27261	969269	39076	106923	0	0	8193	711785	0	0
2024-05-09 23:21:32			0	34835	0	0	0	18968	17670	146467	27331	969218	39052	106918	0	0	8194	711438	0	0
2024-05-09 23:22:32			0	34830	0	0	0	18948	17660	146463	27312	969175	39041	106910	0	0	8194	711713	0	0
2024-05-09 23:23:32			0	34819	0	0	0	18940	17650	146415	27062	969079	39061	106907	0	0	8193	712271	0	0
2024-05-09 23:24:32			0	34851	0	0	0	18940	17650	146359	27029	969079	39050	106907	0	0	8195	710762	0	0
2024-05-09 23:25:32			0	34845	0	0	0	18914	17630	146411	26847	969046	39059	106897	0	0	8195	711122	0	0
2024-05-09 23:26:32			0	34859	0	0	0	18898	17630	146287	27336	968941	39048	106891	0	0	8196	710462	0	0
2024-05-09 23:27:32			0	34860	0	0	0	18880	17610	146335	27293	968889	39047	106884	0	0	8196	710492	0	0
2024-05-09 23:28:32			0	34865	0	0	0	18872	17610	146283	27220	968942	39037	106881	0	0	8197	710257	0	0
2024-05-09 23:29:32			0	34888	0	0	0	18870	17600	146267	27154	968996	39046	106880	0	0	8198	709213	0	0
2024-05-09 23:30:32			0	34916	0	0	0	18877	17590	146159	27138	968901	39056	106883	0	0	8199	707935	0	0
2024-05-09 23:31:32			0	34915	0	0	0	18906	17580	146215	27391	968919	39044	106894	0	0	8199	708021	0	0
2024-05-09 23:32:32			0	34931	0	0	0	18888	17590	146139	27473	968874	39045	106887	0	0	8200	707231	0	0
2024-05-09 23:33:32			0	34943	0	0	0	18872	17570	146131	27372	968876	39034	106881	0	0	8201	706745	0	0
2024-05-09 23:34:32			0	34947	0	0	0	18857	17570	146087	27324	968876	39011	106875	0	0	8201	706557	0	0
2024-05-09 23:35:32			0	34931	0	0	0	18857	17570	146103	27251	968815	39033	106875	0	0	8200	707308	0	0
2024-05-09 23:36:32			0	34958	0	0	0	18859	17560	146015	27227	968746	39010	106876	0	0	8202	706080	0	0
2024-05-09 23:37:32			0	34968	0	0	0	18836	17550	146115	27182	968711	39042	106867	0	0	8203	705650	0	0
2024-05-09 23:38:32			0	34951	0	0	0	18841	17530	146011	26993	968696	39041	106869	0	0	8202	706523	0	0
2024-05-09 23:39:32			0	34974	0	0	0	18833	17540	146139	27334	968739	39029	106866	0	0	8203	705407	0	0
2024-05-09 23:40:32			0	34976	0	0	0	18825	17520	146023	27405	968653	39039	106863	0	0	8203	705390	0	0
2024-05-09 23:41:32			0	34964	0	0	0	18810	17520	146055	27417	968653	39039	106857	0	0	8203	705952	0	0
2024-05-09 23:42:32			0	34969	0	0	0	18810	17520	146035	27265	968627	39039	106857	0	0	8203	705718	0	0
2024-05-09 23:43:32			0	34973	0	0	0	18815	17510	146087	26975	968698	39049	106859	0	0	8203	705569	0	0
2024-05-09 23:44:32			0	34964	0	0	0	18805	17510	146015	26880	968619	39005	106855	0	0	8203	705991	0	0
2024-05-09 23:45:32			0	34956	0	0	0	18825	17510	146123	27145	968645	39039	106863	0	0	8202	706366	0	0
2024-05-09 23:46:32			0	34955	0	0	0	18844	17520	145987	27303	968706	39049	106870	0	0	8202	706374	0	0
2024-05-09 23:47:32			0	34960	0	0	0	18831	17520	146091	27291	968653	39039	106865	0	0	8202	706140	0	0
2024-05-09 23:48:32			0	34945	0	0	0	18828	17510	146003	27192	968592	39016	106864	0	0	8201	706882	0	0
2024-05-09 23:49:32			0	34957	0	0	0	18825	17510	146035	27263	968663	39039	106863	0	0	8202	706319	0	0
2024-05-09 23:50:32			0	34960	0	0	0	18836	17500	146003	27092	968629	39038	106867	0	0	8202	706217	0	0
2024-05-09 23:51:32			0	34964	0	0	0	18812	17510	146039	27218	968558	39039	106858	0	0	8203	705991	0	0
2024-05-09 23:52:32			0	34949	0	0	0	18818	17490	146079	27336	968525	39026	106860	0	0	8202	706771	0	0
2024-05-09 23:53:32			0	34970	0	0	0	18831	17500	146023	27516	968568	39026	106865	0	0	8203	705748	0	0
2024-05-09 23:54:32			0	34961	0	0	0	18828	17490	146143	27289	968525	39026	106864	0	0	8202	706208	0	0
2024-05-09 23:55:32			0	34953	0	0	0	18807	17490	146119	27543	968525	39026	106856	0	0	8202	706583	0	0
2024-05-09 23:56:32			0	34958	0	0	0	18807	17480	146059	27225	968516	39014	106856	0	0	8202	706387	0	0
2024-05-09 23:57:32			0	34961	0	0	0	18812	17480	146087	27369	968463	39025	106858	0	0	8202	706247	0	0
2024-05-09 23:58:32			0	34955	0	0	0	18802	17470	146239	27455	968518	39035	106854	0	0	8202	706566	0	0
2024-05-09 23:59:32			0	34946	0	0	0	18794	17470	146199	27377	968412	39023	106851	0	0	8202	706989	0	0
2024-05-10 00:00:32			0	34938	0	0	0	18774	17460	146235	27268	968430	39035	106843	0	0	8202	707403	0	0
2024-05-10 00:01:32			0	34949	0	0	0	18768	17450	146127	27235	968326	39022	106841	0	0	8202	706925	0	0
2024-05-10 00:02:32			0	34937	0	0	0	18758	17450	146195	27566	968326	39022	106837	0	0	8202	707488	0	0
2024-05-10 00:03:32			0	34925	0	0	0	18748	17440	146223	27222	968292	39022	106833	0	0	8201	708090	0	0
2024-05-10 00:04:32			0	34924	0	0	0	18724	17440	146275	27024	968257	39010	106824	0	0	8202	708137	0	0
2024-05-10 00:05:32			0	34922	0	0	0	18722	17430	146295	27024	968188	39031	106823	0	0	8201	708270	0	0
2024-05-10 00:06:32			0	34926	0	0	0	18729	17410	146259	27173	968190	39018	106826	0	0	8202	708159	0	0
2024-05-10 00:07:32			0	34910	0	0	0	18737	17420	146351	27485	968259	39020	106829	0	0	8201	708873	0	0
2024-05-10 00:08:32			0	34927	0	0	0	18748	17420	146247	27287	968277	39030	106833	0	0	8201	708073	0	0
2024-05-10 00:09:32			0	34919	0	0	0	18761	17410	146323	27268	968242	39029	106838	0	0	8201	708488	0	0
2024-05-10 00:10:32			0	34906	0	0	0	18776	17430	146199	27291	968320	39031	106844	0	0	8200	709022	0	0
2024-05-10 00:11:32			0	34935	0	0	0	18779	17420	146335	27300	968312	39020	106845	0	0	8201	707697	0	0
2024-05-10 00:12:32			0	34918	0	0	0	18779	17430	146275	27407	968328	39031	106845	0	0	8200	708458	0	0
2024-05-10 00:13:32			0	34918	0	0	0	18792	17440	146403	27518	968363	39032	106850	0	0	8200	708419	0	0
2024-05-10 00:14:32			0	34921	0	0	0	18768	17440	146287	27286	968416	39032	106841	0	0	8201	708278	0	0
2024-05-10 00:15:32			0	34944	0	0	0	18776	17430	146199	27474	968346	39031	106844	0	0	8202	707236	0	0
2024-05-10 00:16:32			0	34942	0	0	0	18786	17420	146275	27223	968356	39019	106848	0	0	8201	707369	0	0
2024-05-10 00:17:32			0	34937	0	0	0	18779	17430	146287	26998	968293	39031	106845	0	0	8201	707565	0	0
2024-05-10 00:18:32			0	34929	0	0	0	18779	17430	146227	27003	968302	39031	106845	0	0	8201	707941	0	0
2024-05-10 00:19:32			0	34933	0	0	0	18771	17430	146251	27374	968320	39041	106842	0	0	8201	707753	0	0
2024-05-10 00:20:32			0	34926	0	0	0	18779	17430	146271	27253	968320	39041	106845	0	0	8201	708082	0	0
2024-05-10 00:21:32			0	34935	0	0	0	18784	17430	146379	27208	968346	39031	106847	0	0	8201	707659	0	0
2024-05-10 00:22:32			0	34936	0	0	0	18792	17430	146279	27410	968381	39031	106850	0	0	8201	707612	0	0
2024-05-10 00:23:32			0	34939	0	0	0	18789	17430	146319	27351	968346	39031	106849	0	0	8201	707471	0	0
2024-05-10 00:24:32			0	34920	0	0	0	18797	17430	146351	27206	968355	39031	106852	0	0	8200	708364	0	0
2024-05-10 00:25:32			0	34929	0	0	0	18807	17430	146347	27398	968320	39031	106856	0	0	8200	707941	0	0
2024-05-10 00:26:32			0	34906	0	0	0	18810	17420	146347	27317	968303	39030	106857	0	0	8199	709061	0	0
2024-05-10 00:27:32			0	34921	0	0	0	18810	17410	146275	27175	968348	39018	106857	0	0	8200	708394	0	0
2024-05-10 00:28:32			0	34912	0	0	0	18815	17440	146355	27377	968416	39042	106859	0	0	8199	708701	0	0
2024-05-10 00:29:32			0	34924	0	0	0	18812	17430	146271	27377	968434	39031	106858	0	0	8200	708176	0	0
2024-05-10 00:30:32			0	34924	0	0	0	18805	17440	146359	27599	968336	39032	106855	0	0	8200	708137	0	0
2024-05-10 00:31:32			0	34913	0	0	0	18794	17440	146335	27396	968389	39042	106851	0	0	8200	708655	0	0
2024-05-10 00:32:32			0	34921	0	0	0	18789	17430	146271	27225	968381	39031	106849	0	0	8200	708317	0	0
2024-05-10 00:33:32			0	34932	0	0	0	18786	17430	146271	27350	968381	39031	106848	0	0	8201	707800	0	0
2024-05-10 00:34:32			0	34921	0	0	0	18789	17420	146251	27490	968338	39031	106849	0	0	8200	708355	0	0
2024-05-10 00:35:32			0	34931	0	0	0	18779	17420	146211	27280	968338	39031	106845	0	0	8201	707885	0	0
2024-05-10 00:36:32			0	34935	0	0	0	18789	17430	146367	27291	968293	39020	106849	0	0	8201	707659	0	0
2024-05-10 00:37:32			0	34941	0	0	0	18792	17430	146339	27374	968373	39031	106850	0	0	8201	707377	0	0
2024-05-10 00:38:32			0	34949	0	0	0	18805	17430	146191	27424	968373	39020	106855	0	0	8202	707002	0	0
2024-05-10 00:39:32			0	34919	0	0	0	18825	17430	146251	27447	968381	39041	106863	0	0	8200	708411	0	0
2024-05-10 00:40:32			0	34927	0	0	0	18823	17430	146223	27301	968407	39041	106862	0	0	8200	708035	0	0
2024-05-10 00:41:32			0	34945	0	0	0	18825	17440	146275	27097	968416	39042	106863	0	0	8201	707151	0	0
2024-05-10 00:42:32			0	34914	0	0	0	18831	17440	146299	27182	968389	39032	106865	0	0	8199	708607	0	0
2024-05-10 00:43:32			0	34932	0	0	0	18831	17440	146275	27202	968450	39043	106865	0	0	8200	707761	0	0
2024-05-10 00:44:32			0	34908	0	0	0	18836	17430	146191	27239	968460	39031	106867	0	0	8199	708928	0	0
2024-05-10 00:45:32			0	34927	0	0	0	18825	17440	146199	27566	968389	39042	106863	0	0	8200	707996	0	0
2024-05-10 00:46:32			0	34934	0	0	0	18823	17430	146167	27043	968407	39041	106862	0	0	8200	707706	0	0
2024-05-10 00:47:32			0	34928	0	0	0	18818	17430	146207	27086	968487	39041	106860	0	0	8200	707988	0	0
2024-05-10 00:48:32			0	34908	0	0	0	18825	17440	146223	27253	968442	39042	106863	0	0	8199	708889	0	0
2024-05-10 00:49:32			0	34914	0	0	0	18818	17430	146235	27353	968407	39031	106860	0	0	8199	708646	0	0
2024-05-10 00:50:32			0	34927	0	0	0	18818	17440	146255	27135	968397	39054	106860	0	0	8200	707996	0	0
2024-05-10 00:51:32			0	34937	0	0	0	18820	17440	146235	27197	968371	39054	106861	0	0	8201	707527	0	0
2024-05-10 00:52:32			0	34925	0	0	0	18836	17440	146303	27585	968363	39032	106867	0	0	8200	708090	0	0
2024-05-10 00:53:32			0	34916	0	0	0	18831	17440	146259	27345	968424	39043	106865	0	0	8199	708513	0	0
2024-05-10 00:54:32			0	34940	0	0	0	18823	17450	146271	27305	968432	39043	106862	0	0	8201	707347	0	0
2024-05-10 00:55:32			0	34935	0	0	0	18818	17440	146279	27133	968424	39033	106860	0	0	8201	707620	0	0
2024-05-10 00:56:32			0	34923	0	0	0	18823	17450	146171	27459	968406	39022	106862	0	0	8200	708146	0	0
2024-05-10 00:57:32			0	34942	0	0	0	18820	17450	146179	27159	968406	39033	106861	0	0	8201	707253	0	0
2024-05-10 00:58:32			0	34933	0	0	0	18823	17440	146283	27060	968450	39043	106862	0	0	8200	707715	0	0
2024-05-10 00:59:32			0	34917	0	0	0	18815	17460	146251	27116	968422	39034	106859	0	0	8200	708389	0	0
2024-05-10 01:00:32			0	34925	0	0	0	18812	17450	146255	27324	968361	39043	106858	0	0	8200	708052	0	0
2024-05-10 01:01:32			0	34924	0	0	0	18807	17450	146163	27196	968485	39033	106856	0	0	8200	708099	0	0
2024-05-10 01:02:32			0	34929	0	0	0	18812	17440	146215	27258	968424	39043	106858	0	0	8200	707902	0	0
2024-05-10 01:03:32			0	34916	0	0	0	18812	17440	146239	27157	968477	39043	106858	0	0	8200	708513	0	0
2024-05-10 01:04:32			0	34920	0	0	0	18802	17430	146267	27223	968407	39052	106854	0	0	8200	708364	0	0
2024-05-10 01:05:32			0	34937	0	0	0	18805	17440	146235	27255	968424	39043	106855	0	0	8201	707527	0	0
2024-05-10 01:06:32			0	34933	0	0	0	18797	17440	146119	27440	968397	39043	106852	0	0	8201	707715	0	0
2024-05-10 01:07:32			0	34946	0	0	0	18794	17440	146179	27041	968389	39032	106851	0	0	8202	707104	0	0
2024-05-10 01:08:32			0	34947	0	0	0	18786	17440	146135	27209	968397	39033	106848	0	0	8202	707057	0	0
2024-05-10 01:09:32			0	34945	0	0	0	18794	17430	146187	27322	968373	39031	106851	0	0	8202	707189	0	0
2024-05-10 01:10:32			0	34940	0	0	0	18799	17430	146283	27400	968328	39031	106853	0	0	8201	707424	0	0
2024-05-10 01:11:32			0	34950	0	0	0	18799	17440	146163	27055	968416	39042	106853	0	0	8202	706916	0	0
2024-05-10 01:12:32			0	34952	0	0	0	18818	17440	146159	27211	968468	39032	106860	0	0	8202	706822	0	0
2024-05-10 01:13:32			0	34976	0	0	0	18815	17450	146135	27216	968432	39033	106859	0	0	8203	705658	0	0
2024-05-10 01:14:32			0	34967	0	0	0	18810	17440	146127	27256	968416	39042	106857	0	0	8203	706119	0	0
2024-05-10 01:15:32			0	34957	0	0	0	18818	17450	145963	27460	968432	39033	106860	0	0	8202	706549	0	0
2024-05-10 01:16:32			0	34963	0	0	0	18838	17450	145971	27157	968440	39033	106868	0	0	8202	706268	0	0
2024-05-10 01:17:32			0	34985	0	0	0	18854	17450	146003	27229	968414	39043	106874	0	0	8203	705237	0	0
2024-05-10 01:18:32			0	34978	0	0	0	18846	17450	145975	27215	968493	39033	106871	0	0	8203	705565	0	0
2024-05-10 01:19:32			0	34996	0	0	0	18844	17460	145947	27185	968501	39044	106870	0	0	8204	704683	0	0
2024-05-10 01:20:32			0	34981	0	0	0	18846	17460	145923	27126	968501	39044	106871	0	0	8203	705386	0	0
2024-05-10 01:21:32			0	34994	0	0	0	18854	17450	145919	27173	968493	39033	106874	0	0	8203	704815	0	0
2024-05-10 01:22:32			0	34999	0	0	0	18857	17460	146031	27072	968475	39044	106875	0	0	8204	704543	0	0
2024-05-10 01:23:32			0	35006	0	0	0	18857	17450	145983	26972	968458	39033	106875	0	0	8204	704253	0	0
2024-05-10 01:24:32			0	35000	0	0	0	18857	17450	145983	27419	968458	39043	106875	0	0	8204	704534	0	0
2024-05-10 01:25:32			0	34992	0	0	0	18859	17460	145971	27355	968536	39035	106876	0	0	8203	704870	0	0
2024-05-10 01:26:32			0	34996	0	0	0	18867	17450	145947	27322	968546	39043	106879	0	0	8203	704722	0	0
2024-05-10 01:27:32			0	35017	0	0	0	18870	17460	145991	27235	968554	39034	106880	0	0	8204	703701	0	0
2024-05-10 01:28:32			0	35004	0	0	0	18862	17460	145943	27098	968457	39045	106877	0	0	8204	704309	0	0
2024-05-10 01:29:32			0	35011	0	0	0	18846	17460	145915	27334	968483	39035	106871	0	0	8204	703981	0	0
2024-05-10 01:30:32			0	34992	0	0	0	18862	17470	145855	27213	968439	39045	106877	0	0	8203	704832	0	0
2024-05-10 01:31:32			0	35010	0	0	0	18864	17470	145911	27379	968491	39035	106878	0	0	8204	703990	0	0
2024-05-10 01:32:32			0	35016	0	0	0	18857	17460	145879	27339	968528	39034	106875	0	0	8205	703747	0	0
2024-05-10 01:33:32			0	35012	0	0	0	18857	17460	145887	27436	968562	39035	106875	0	0	8204	703934	0	0
2024-05-10 01:34:32			0	35034	0	0	0	18851	17460	145851	27524	968528	39034	106873	0	0	8206	702906	0	0
2024-05-10 01:35:32			0	35012	0	0	0	18851	17460	145851	27435	968510	39045	106873	0	0	8204	703934	0	0
2024-05-10 01:36:32			0	35024	0	0	0	18851	17460	145927	27315	968475	39044	106873	0	0	8205	703373	0	0
2024-05-10 01:37:32			0	35020	0	0	0	18851	17460	145859	27156	968449	39044	106873	0	0	8205	703560	0	0
2024-05-10 01:38:32			0	35025	0	0	0	18849	17460	145911	27324	968536	39035	106872	0	0	8205	703326	0	0
2024-05-10 01:39:32			0	35029	0	0	0	18849	17450	145767	27059	968520	39043	106872	0	0	8205	703178	0	0
2024-05-10 01:40:32			0	35021	0	0	0	18841	17460	145839	27242	968449	39034	106869	0	0	8205	703513	0	0
2024-05-10 01:41:32			0	35035	0	0	0	18844	17450	145831	27171	968414	39033	106870	0	0	8206	702897	0	0
2024-05-10 01:42:32			0	35015	0	0	0	18838	17450	145863	27076	968467	39054	106868	0	0	8205	703832	0	0
2024-05-10 01:43:32			0	35037	0	0	0	18841	17450	145739	27079	968520	39043	106869	0	0	8206	702804	0	0
2024-05-10 01:44:32			0	35041	0	0	0	18849	17440	145755	27209	968477	39033	106872	0	0	8206	702655	0	0
2024-05-10 01:45:32			0	35048	0	0	0	18838	17440	145783	27185	968424	39043	106868	0	0	8207	702328	0	0
2024-05-10 01:46:32			0	35052	0	0	0	18849	17450	145803	27130	968440	39043	106872	0	0	8207	702103	0	0
2024-05-10 01:47:32			0	35056	0	0	0	18841	17460	145683	27464	968510	39045	106869	0	0	8207	701878	0	0
2024-05-10 01:48:32			0	35057	0	0	0	18844	17450	145751	27338	968493	39054	106870	0	0	8207	701870	0	0
2024-05-10 01:49:32			0	35083	0	0	0	18841	17440	145723	27308	968450	39043	106869	0	0	8208	700695	0	0
2024-05-10 01:50:32			0	35073	0	0	0	18833	17450	145643	27140	968520	39043	106866	0	0	8208	701123	0	0
2024-05-10 01:51:32			0	35083	0	0	0	18841	17450	145567	27556	968485	39043	106869	0	0	8209	700657	0	0
2024-05-10 01:52:32			0	35075	0	0	0	18828	17450	145539	27248	968440	39054	106864	0	0	8208	701030	0	0
2024-05-10 01:53:32			0	35104	0	0	0	18828	17450	145611	27386	968467	39033	106864	0	0	8210	699678	0	0
2024-05-10 01:54:32			0	35099	0	0	0	18833	17440	145535	27471	968424	39043	106866	0	0	8210	699949	0	0
2024-05-10 01:55:32			0	35101	0	0	0	18831	17450	145535	27220	968440	39054	106865	0	0	8210	699818	0	0
2024-05-10 01:56:32			0	35121	0	0	0	18836	17440	145500	27313	968442	39042	106867	0	0	8211	698925	0	0
2024-05-10 01:57:32			0	35119	0	0	0	18833	17440	145432	27022	968416	39032	106866	0	0	8211	699018	0	0
2024-05-10 01:58:32			0	35142	0	0	0	18823	17440	145396	27286	968371	39043	106862	0	0	8212	697948	0	0
2024-05-10 01:59:32			0	35144	0	0	0	18833	17450	145444	27178	968458	39043	106866	0	0	8212	697817	0	0
2024-05-10 02:00:32			0	35143	0	0	0	18828	17440	145364	27265	968450	39043	106864	0	0	8212	697902	0	0
2024-05-10 02:01:32			0	35155	0	0	0	18825	17440	145336	27789	968424	39043	106863	0	0	8213	697344	0	0
2024-05-10 02:02:32			0	35173	0	0	0	18825	17440	145296	27422	968389	39032	106863	0	0	8214	696508	0	0
2024-05-10 02:03:32			0	35184	0	0	0	18825	17440	145164	27322	968424	39043	106863	0	0	8214	695998	0	0
2024-05-10 02:04:32			0	35207	0	0	0	18825	17440	145148	27519	968450	39054	106863	0	0	8216	694931	0	0
2024-05-10 02:05:32			0	35206	0	0	0	18825	17440	145072	27275	968442	39042	106863	0	0	8216	694978	0	0
2024-05-10 02:06:32			0	35200	0	0	0	18820	17430	145064	27457	968407	39031	106861	0	0	8215	695294	0	0
2024-05-10 02:07:32			0	35228	0	0	0	18820	17430	145072	27490	968381	39041	106861	0	0	8217	693997	0	0
2024-05-10 02:08:32			0	35243	0	0	0	18818	17430	145040	27507	968355	39041	106860	0	0	8218	693302	0	0
2024-05-10 02:09:32			0	35240	0	0	0	18818	17430	144960	27460	968355	39041	106860	0	0	8218	693441	0	0
2024-05-10 02:10:32			0	35252	0	0	0	18815	17430	144904	27052	968381	39052	106859	0	0	8218	692886	0	0
2024-05-10 02:11:32			0	35270	0	0	0	18815	17440	144832	27310	968389	39032	106859	0	0	8219	692017	0	0
2024-05-10 02:12:32			0	35276	0	0	0	18810	17430	144892	27225	968355	39041	106857	0	0	8220	691777	0	0
2024-05-10 02:13:32			0	35283	0	0	0	18815	17420	144836	27253	968364	39041	106859	0	0	8220	691492	0	0
2024-05-10 02:14:32			0	35308	0	0	0	18815	17430	144816	27374	968399	39052	106859	0	0	8221	690301	0	0
2024-05-10 02:15:32			0	35304	0	0	0	18799	17420	144716	27322	968312	39041	106853	0	0	8221	690523	0	0
2024-05-10 02:16:32			0	35320	0	0	0	18799	17410	144792	27358	968322	39051	106853	0	0	8222	689822	0	0
2024-05-10 02:17:32			0	35313	0	0	0	18797	17420	144740	27355	968277	39041	106852	0	0	8222	690108	0	0
2024-05-10 02:18:32			0	35315	0	0	0	18779	17420	144660	27215	968338	39041	106845	0	0	8222	690015	0	0
2024-05-10 02:19:32			0	35331	0	0	0	18776	17410	144656	27386	968216	39029	106844	0	0	8223	689315	0	0
2024-05-10 02:20:32			0	35352	0	0	0	18774	17410	144668	27352	968242	39041	106843	0	0	8224	688349	0	0
2024-05-10 02:21:32			0	35352	0	0	0	18771	17410	144648	27336	968208	39029	106842	0	0	8224	688349	0	0
2024-05-10 02:22:32			0	35349	0	0	0	18768	17390	144620	27476	968236	39028	106841	0	0	8224	688562	0	0
2024-05-10 02:23:32			0	35343	0	0	0	18771	17400	144576	27241	968252	39029	106842	0	0	8224	688800	0	0
2024-05-10 02:24:32			0	35361	0	0	0	18774	17400	144528	27300	968226	39029	106843	0	0	8225	687972	0	0
2024-05-10 02:25:32			0	35351	0	0	0	18781	17400	144516	27287	968218	39040	106846	0	0	8224	688432	0	0
2024-05-10 02:26:32			0	35366	0	0	0	18779	17400	144480	27547	968270	39040	106845	0	0	8225	687742	0	0
2024-05-10 02:27:32			0	35405	0	0	0	18781	17400	144428	27242	968218	39040	106846	0	0	8227	685951	0	0
2024-05-10 02:28:32			0	35379	0	0	0	18792	17400	144516	27260	968297	39040	106850	0	0	8226	687144	0	0
2024-05-10 02:29:32			0	35386	0	0	0	18794	17400	144436	27424	968323	39040	106851	0	0	8226	686823	0	0
2024-05-10 02:30:32			0	35397	0	0	0	18794	17400	144436	27326	968358	39040	106851	0	0	8226	686318	0	0
2024-05-10 02:31:32			0	35415	0	0	0	18797	17400	144304	27088	968270	39050	106852	0	0	8227	685492	0	0
2024-05-10 02:32:32			0	35416	0	0	0	18797	17400	144336	27201	968279	39040	106852	0	0	8227	685446	0	0
2024-05-10 02:33:32			0	35430	0	0	0	18802	17400	144312	26967	968305	39050	106854	0	0	8228	684804	0	0
2024-05-10 02:34:32			0	35439	0	0	0	18805	17420	144260	27462	968356	39052	106855	0	0	8229	684317	0	0
2024-05-10 02:35:32			0	35450	0	0	0	18802	17410	144252	27168	968287	39029	106854	0	0	8229	683850	0	0
2024-05-10 02:36:32			0	35457	0	0	0	18799	17410	144232	27024	968322	39041	106853	0	0	8230	683530	0	0
2024-05-10 02:37:32			0	35456	0	0	0	18802	17410	144152	27090	968366	39050	106854	0	0	8230	683576	0	0
2024-05-10 02:38:32			0	35457	0	0	0	18802	17410	144080	27140	968348	39051	106854	0	0	8230	683530	0	0
2024-05-10 02:39:32			0	35462	0	0	0	18805	17410	144104	27261	968261	39050	106855	0	0	8230	683301	0	0
2024-05-10 02:40:32			0	35476	0	0	0	18799	17400	144084	27530	968252	39040	106853	0	0	8231	682697	0	0
2024-05-10 02:41:32			0	35480	0	0	0	18789	17410	144200	27003	968234	39050	106849	0	0	8231	682478	0	0
2024-05-10 02:42:32			0	35490	0	0	0	18794	17410	144088	27147	968287	39040	106851	0	0	8232	682020	0	0
2024-05-10 02:43:32			0	35479	0	0	0	18786	17410	144020	27010	968261	39029	106848	0	0	8231	682523	0	0
2024-05-10 02:44:32			0	35474	0	0	0	18784	17400	144080	27196	968279	39040	106847	0	0	8231	682789	0	0
2024-05-10 02:45:32			0	35473	0	0	0	18786	17410	144080	27398	968295	39029	106848	0	0	8231	682798	0	0
2024-05-10 02:46:32			0	35490	0	0	0	18789	17400	143956	27317	968279	39029	106849	0	0	8232	682057	0	0
2024-05-10 02:47:32			0	35499	0	0	0	18776	17400	143952	27601	968270	39029	106844	0	0	8232	681646	0	0
2024-05-10 02:48:32			0	35504	0	0	0	18779	17400	143908	27128	968244	39050	106845	0	0	8233	681418	0	0
2024-05-10 02:49:32			0	35500	0	0	0	18779	17400	143892	27331	968244	39040	106845	0	0	8232	681600	0	0
2024-05-10 02:50:32			0	35529	0	0	0	18774	17400	143816	27336	968270	39017	106843	0	0	8234	680277	0	0
2024-05-10 02:51:32			0	35528	0	0	0	18771	17390	143856	26864	968183	39039	106842	0	0	8234	680359	0	0
2024-05-10 02:52:32			0	35562	0	0	0	18763	17380	143824	26982	968132	39038	106839	0	0	8236	678846	0	0
2024-05-10 02:53:32			0	35558	0	0	0	18758	17390	143644	27621	968175	39027	106837	0	0	8236	678992	0	0
2024-05-10 02:54:32			0	35585	0	0	0	18761	17380	143524	27270	968185	39027	106838	0	0	8237	677799	0	0
2024-05-10 02:55:32			0	35587	0	0	0	18758	17380	143576	27062	968158	39038	106837	0	0	8237	677708	0	0
2024-05-10 02:56:32			0	35610	0	0	0	18750	17370	143528	27123	968195	39036	106834	0	0	8239	676699	0	0
2024-05-10 02:57:32			0	35625	0	0	0	18758	17380	143456	27308	968114	39048	106837	0	0	8239	675981	0	0
2024-05-10 02:58:32			0	35620	0	0	0	18755	17370	143372	27543	968150	39047	106836	0	0	8239	676245	0	0
2024-05-10 02:59:32			0	35652	0	0	0	18755	17360	143328	27336	968160	39036	106836	0	0	8241	674829	0	0
2024-05-10 03:00:32			0	35660	0	0	0	18745	17370	143372	27486	968150	39037	106832	0	0	8242	674430	0	0
2024-05-10 03:01:32			0	35683	0	0	0	18755	17380	143244	27769	968105	39048	106836	0	0	8243	673351	0	0
2024-05-10 03:02:32			0	35684	0	0	0	18742	17370	143144	27519	968176	39037	106831	0	0	8243	673342	0	0
2024-05-10 03:03:32			0	35700	0	0	0	18750	17370	143112	27327	968089	39036	106834	0	0	8244	672618	0	0
2024-05-10 03:04:32			0	35720	0	0	0	18753	17360	143156	27209	968107	39025	106835	0	0	8245	671750	0	0
2024-05-10 03:05:32			0	35727	0	0	0	18742	17360	142984	27062	968107	39036	106831	0	0	8245	671433	0	0
2024-05-10 03:06:32			0	35745	0	0	0	18742	17360	142952	27445	968133	39046	106831	0	0	8246	670620	0	0
2024-05-10 03:07:32			0	35772	0	0	0	18740	17370	142944	27538	968071	39047	106830	0	0	8248	669366	0	0
2024-05-10 03:08:32			0	35773	0	0	0	18742	17360	142880	27279	968133	39025	106831	0	0	8248	669357	0	0
2024-05-10 03:09:32			0	35771	0	0	0	18737	17360	142836	27192	968099	39025	106829	0	0	8248	669447	0	0
2024-05-10 03:10:32			0	35795	0	0	0	18732	17350	142844	27364	968064	39035	106827	0	0	8249	668402	0	0
2024-05-10 03:11:32			0	35810	0	0	0	18737	17360	142736	27123	968072	39036	106829	0	0	8250	667690	0	0
2024-05-10 03:12:32			0	35806	0	0	0	18742	17360	142756	27485	968099	39046	106831	0	0	8250	667870	0	0
2024-05-10 03:13:32			0	35821	0	0	0	18729	17350	142780	27441	968064	39035	106826	0	0	8251	667231	0	0
2024-05-10 03:14:32			0	35832	0	0	0	18729	17350	142652	27199	968064	39035	106826	0	0	8251	666737	0	0
2024-05-10 03:15:32			0	35841	0	0	0	18729	17350	142676	27573	968056	39023	106826	0	0	8252	666332	0	0
2024-05-10 03:16:32			0	35857	0	0	0	18724	17350	142632	27429	968090	39045	106824	0	0	8253	665613	0	0
2024-05-10 03:17:32			0	35857	0	0	0	18719	17340	142585	27242	968048	39045	106822	0	0	8253	665649	0	0
2024-05-10 03:18:32			0	35877	0	0	0	18716	17350	142429	27552	968011	39035	106821	0	0	8254	664716	0	0
2024-05-10 03:19:32			0	35872	0	0	0	18714	17350	142357	27545	968029	39035	106820	0	0	8254	664940	0	0
2024-05-10 03:20:32			0	35888	0	0	0	18709	17330	142453	27244	967978	39022	106818	0	0	8254	664294	0	0
2024-05-10 03:21:32			0	35893	0	0	0	18709	17330	142449	27352	967960	39034	106818	0	0	8255	664070	0	0
2024-05-10 03:22:32			0	35890	0	0	0	18701	17330	142369	27064	967952	39022	106815	0	0	8255	664205	0	0
2024-05-10 03:23:32			0	35912	0	0	0	18698	17330	142321	27225	967952	39034	106814	0	0	8256	663219	0	0
2024-05-10 03:24:32			0	35912	0	0	0	18690	17330	142333	27182	967934	39022	106811	0	0	8256	663219	0	0
2024-05-10 03:25:32			0	35941	0	0	0	18690	17330	142197	27116	967952	39034	106811	0	0	8258	661920	0	0
2024-05-10 03:26:32			0	35948	0	0	0	18688	17320	142229	27391	967909	39032	106810	0	0	8258	661643	0	0
2024-05-10 03:27:32			0	35963	0	0	0	18680	17320	142141	27471	967935	39021	106807	0	0	8259	660973	0	0
2024-05-10 03:28:32			0	35954	0	0	0	18664	17310	142165	27088	967795	39032	106801	0	0	8259	661411	0	0
2024-05-10 03:29:32			0	35976	0	0	0	18657	17310	142121	27533	967813	39021	106798	0	0	8260	660428	0	0
2024-05-10 03:30:32			0	35995	0	0	0	18659	17300	142009	27540	967831	39031	106799	0	0	8261	659615	0	0
2024-05-10 03:31:32			0	35990	0	0	0	18651	17290	141969	27027	967789	39019	106796	0	0	8261	659874	0	0
2024-05-10 03:32:32			0	36003	0	0	0	18651	17280	141957	27270	967746	39029	106796	0	0	8261	659330	0	0
2024-05-10 03:33:32			0	35999	0	0	0	18646	17290	141873	27300	967736	39030	106794	0	0	8261	659473	0	0
2024-05-10 03:34:32			0	35994	0	0	0	18646	17290	141905	27345	967754	39019	106794	0	0	8261	659696	0	0
2024-05-10 03:35:32			0	36015	0	0	0	18651	17280	141929	27336	967693	39018	106796	0	0	8262	658795	0	0
2024-05-10 03:36:32			0	35992	0	0	0	18636	17280	141953	27580	967764	39017	106790	0	0	8261	659821	0	0
2024-05-10 03:37:32			0	35987	0	0	0	18641	17270	141981	27319	967782	39006	106792	0	0	8261	660080	0	0
2024-05-10 03:38:32			0	35994	0	0	0	18633	17270	141957	27246	967695	39016	106789	0	0	8261	659768	0	0
2024-05-10 03:39:32			0	36011	0	0	0	18636	17270	141973	27092	967642	39016	106790	0	0	8262	659009	0	0
2024-05-10 03:40:32			0	35996	0	0	0	18625	17260	142045	27291	967713	39016	106786	0	0	8261	659714	0	0
2024-05-10 03:41:32			0	36026	0	0	0	18623	17260	141921	27395	967634	39028	106785	0	0	8263	658376	0	0
2024-05-10 03:42:32			0	36028	0	0	0	18612	17260	141901	27270	967573	39016	106781	0	0	8263	658287	0	0
2024-05-10 03:43:32			0	36022	0	0	0	18597	17250	141941	27166	967591	39027	106775	0	0	8263	658590	0	0
2024-05-10 03:44:32			0	36042	0	0	0	18597	17240	141885	27130	967601	39015	106775	0	0	8264	657735	0	0
2024-05-10 03:45:32			0	36047	0	0	0	18589	17240	141809	27220	967601	39037	106772	0	0	8265	657512	0	0
2024-05-10 03:46:32			0	36057	0	0	0	18594	17240	141857	27203	967548	39015	106774	0	0	8265	657067	0	0
2024-05-10 03:47:32			0	36048	0	0	0	18589	17240	141825	27112	967540	39014	106772	0	0	8265	657468	0	0
2024-05-10 03:48:32			0	36073	0	0	0	18589	17230	141705	27504	967505	39002	106772	0	0	8266	656391	0	0
2024-05-10 03:49:32			0	36081	0	0	0	18592	17230	141789	27381	967576	39024	106773	0	0	8266	656035	0	0
2024-05-10 03:50:32			0	36086	0	0	0	18592	17230	141789	27374	967523	39024	106773	0	0	8267	655813	0	0
2024-05-10 03:51:32			0	36093	0	0	0	18594	17220	141609	27440	967515	39023	106774	0	0	8267	655537	0	0
2024-05-10 03:52:32			0	36103	0	0	0	18584	17220	141697	27126	967559	39012	106770	0	0	8268	655093	0	0
2024-05-10 03:53:32			0	36119	0	0	0	18597	17230	141541	27235	967496	39013	106775	0	0	8268	654347	0	0
2024-05-10 03:54:32			0	36114	0	0	0	18587	17210	141549	27395	967551	39034	106771	0	0	8268	654640	0	0
2024-05-10 03:55:32			0	36113	0	0	0	18597	17220	141589	27386	967559	39023	106775	0	0	8268	654649	0	0
2024-05-10 03:56:32			0	36142	0	0	0	18589	17210	141525	27232	967516	39022	106772	0	0	8270	653398	0	0
2024-05-10 03:57:32			0	36157	0	0	0	18592	17210	141497	27371	967490	39022	106773	0	0	8270	652733	0	0
2024-05-10 03:58:32			0	36142	0	0	0	18597	17220	141533	27150	967541	39012	106775	0	0	8270	653363	0	0
2024-05-10 03:59:32			0	36145	0	0	0	18597	17210	141545	27739	967525	39022	106775	0	0	8270	653265	0	0
2024-05-10 04:00:32			0	36140	0	0	0	18592	17200	141525	27307	967482	39022	106773	0	0	8270	653522	0	0
2024-05-10 04:01:32			0	36141	0	0	0	18587	17210	141605	27396	967490	39011	106771	0	0	8270	653442	0	0
2024-05-10 04:02:32			0	36151	0	0	0	18592	17200	141621	27573	967455	39010	106773	0	0	8270	653035	0	0
2024-05-10 04:03:32			0	36152	0	0	0	18592	17210	141569	27441	967490	39022	106773	0	0	8270	652955	0	0
2024-05-10 04:04:32			0	36128	0	0	0	18589	17190	141609	27419	967413	39021	106772	0	0	8269	654090	0	0
2024-05-10 04:05:32			0	36121	0	0	0	18592	17200	141577	27265	967561	39022	106773	0	0	8268	654365	0	0
2024-05-10 04:06:32			0	36117	0	0	0	18589	17200	141657	27261	967474	39010	106772	0	0	8268	654543	0	0
2024-05-10 04:07:32			0	36120	0	0	0	18587	17210	141773	27395	967464	39034	106771	0	0	8269	654374	0	0
2024-05-10 04:08:32			0	36105	0	0	0	18587	17200	141697	27488	967455	39033	106771	0	0	8268	655075	0	0
2024-05-10 04:09:32			0	36087	0	0	0	18579	17190	141709	27417	967465	39021	106768	0	0	8267	655911	0	0
2024-05-10 04:10:32			0	36090	0	0	0	18592	17200	141849	27249	967447	39010	106773	0	0	8267	655742	0	0
2024-05-10 04:11:32			0	36071	0	0	0	18584	17200	141801	27419	967500	39010	106770	0	0	8266	656587	0	0
2024-05-10 04:12:32			0	36065	0	0	0	18589	17200	141833	27255	967455	39022	106772	0	0	8265	656854	0	0
2024-05-10 04:13:32			0	36082	0	0	0	18579	17190	141849	27239	967439	39032	106768	0	0	8267	656133	0	0
2024-05-10 04:14:32			0	36066	0	0	0	18571	17200	141901	27260	967394	39022	106765	0	0	8266	656809	0	0
2024-05-10 04:15:32			0	36033	0	0	0	18576	17190	141853	27310	967404	39010	106767	0	0	8264	658314	0	0
2024-05-10 04:16:32			0	36066	0	0	0	18558	17190	141897	27517	967325	39010	106760	0	0	8266	656845	0	0
2024-05-10 04:17:32			0	36075	0	0	0	18555	17190	141829	27474	967272	38999	106759	0	0	8267	656444	0	0
2024-05-10 04:18:32			0	36054	0	0	0	18519	17170	141829	27263	967221	39008	106745	0	0	8266	657450	0	0
2024-05-10 04:19:32			0	36069	0	0	0	18483	17170	141741	27300	967187	38987	106731	0	0	8267	656783	0	0
2024-05-10 04:20:32			0	36081	0	0	0	18470	17160	141681	27315	967170	38996	106726	0	0	8268	656284	0	0
2024-05-10 04:21:32			0	36107	0	0	0	18462	17140	141749	27336	967111	38994	106723	0	0	8270	655200	0	0
2024-05-10 04:22:32			0	36132	0	0	0	18457	17140	141597	27104	967058	39016	106721	0	0	8271	654090	0	0
2024-05-10 04:23:32			0	36152	0	0	0	18446	17130	141557	27137	967015	38993	106717	0	0	8272	653239	0	0
2024-05-10 04:24:32			0	36139	0	0	0	18449	17120	141509	27130	967025	39003	106718	0	0	8272	653850	0	0
2024-05-10 04:25:32			0	36156	0	0	0	18459	17110	141341	27116	967008	38992	106722	0	0	8272	653132	0	0
2024-05-10 04:26:32			0	36168	0	0	0	18462	17110	141513	27118	967008	39002	106723	0	0	8273	652600	0	0
2024-05-10 04:27:32			0	36144	0	0	0	18470	17110	141477	27473	967017	39003	106726	0	0	8271	653664	0	0
2024-05-10 04:28:32			0	36158	0	0	0	18480	17100	141537	27345	967000	39013	106730	0	0	8272	653079	0	0
2024-05-10 04:29:32			0	36142	0	0	0	18480	17110	141569	27137	967061	39002	106730	0	0	8271	653753	0	0
2024-05-10 04:30:32			0	36131	0	0	0	18483	17110	141569	27041	967061	39002	106731	0	0	8270	654241	0	0
2024-05-10 04:31:32			0	36117	0	0	0	18477	17100	141705	27092	966992	39001	106729	0	0	8270	654898	0	0
2024-05-10 04:32:32			0	36105	0	0	0	18472	17100	141773	27218	967045	38991	106727	0	0	8269	655431	0	0
2024-05-10 04:33:32			0	36066	0	0	0	18470	17100	141825	27130	967045	38991	106726	0	0	8267	657166	0	0
2024-05-10 04:34:32			0	36069	0	0	0	18490	17100	141777	27462	967026	39002	106734	0	0	8267	657032	0	0
2024-05-10 04:35:32			0	36056	0	0	0	18483	17110	141973	27300	967035	39002	106731	0	0	8266	657575	0	0
2024-05-10 04:36:32			0	36013	0	0	0	18496	17110	142009	27329	967035	39002	106736	0	0	8264	659493	0	0
2024-05-10 04:37:32			0	36000	0	0	0	18496	17100	142185	27196	967079	39002	106736	0	0	8263	660109	0	0
2024-05-10 04:38:32			0	35997	0	0	0	18496	17100	142337	27156	967079	39013	106736	0	0	8263	660243	0	0
2024-05-10 04:39:32			0	35938	0	0	0	18493	17100	142301	27166	967097	39012	106735	0	0	8260	662882	0	0
2024-05-10 04:40:32			0	35933	0	0	0	18501	17100	142469	27118	967053	39002	106738	0	0	8259	663106	0	0
2024-05-10 04:41:32			0	35906	0	0	0	18503	17100	142445	26989	967079	39013	106739	0	0	8258	664317	0	0
2024-05-10 04:42:32			0	35912	0	0	0	18511	17110	142585	27168	967088	39002	106742	0	0	8258	664011	0	0
2024-05-10 04:43:32			0	35890	0	0	0	18511	17110	142569	27242	967114	38992	106742	0	0	8257	664999	0	0
2024-05-10 04:44:32			0	35877	0	0	0	18506	17100	142613	27393	967132	39002	106740	0	0	8256	665619	0	0
2024-05-10 04:45:32			0	35849	0	0	0	18524	17110	142672	27092	967140	39013	106747	0	0	8254	666841	0	0
2024-05-10 04:46:32			0	35851	0	0	0	18529	17110	142680	27279	967114	39002	106749	0	0	8255	666751	0	0
2024-05-10 04:47:32			0	35835	0	0	0	18532	17120	142808	27303	967183	39003	106750	0	0	8254	667435	0	0
2024-05-10 04:48:32			0	35832	0	0	0	18529	17120	142760	27092	967139	39015	106749	0	0	8254	667570	0	0
2024-05-10 04:49:32			0	35836	0	0	0	18537	17120	142808	27256	967192	39015	106752	0	0	8254	667390	0	0
2024-05-10 04:50:32			0	35828	0	0	0	18529	17130	142836	27043	967253	39004	106749	0	0	8253	667714	0	0
2024-05-10 04:51:32			0	35801	0	0	0	18529	17120	142804	27149	967192	39015	106749	0	0	8252	668967	0	0
2024-05-10 04:52:32			0	35832	0	0	0	18511	17120	142860	27225	967113	39004	106742	0	0	8254	667570	0	0
2024-05-10 04:53:32			0	35812	0	0	0	18519	17130	142892	27213	967200	39026	106745	0	0	8253	668435	0	0
2024-05-10 04:54:32			0	35825	0	0	0	18519	17130	142828	27223	967226	39004	106745	0	0	8253	667849	0	0
2024-05-10 04:55:32			0	35793	0	0	0	18511	17130	142960	27507	967174	38993	106742	0	0	8252	669291	0	0
2024-05-10 04:56:32			0	35808	0	0	0	18498	17120	142836	27300	967078	39003	106737	0	0	8253	668651	0	0
2024-05-10 04:57:32			0	35798	0	0	0	18501	17120	142880	27268	967139	39015	106738	0	0	8252	669102	0	0
2024-05-10 04:58:32			0	35803	0	0	0	18488	17130	142844	27019	967121	38993	106733	0	0	8253	668840	0	0
2024-05-10 04:59:32			0	35770	0	0	0	18496	17120	142912	27473	967157	39025	106736	0	0	8251	670365	0	0
2024-05-10 05:00:32			0	35789	0	0	0	18496	17120	142872	27409	967192	39015	106736	0	0	8252	669508	0	0
2024-05-10 05:01:32			0	35784	0	0	0	18490	17120	142884	27218	967157	39003	106734	0	0	8252	669734	0	0
2024-05-10 05:02:32			0	35788	0	0	0	18490	17120	142888	27462	967131	39003	106734	0	0	8252	669553	0	0
2024-05-10 05:03:32			0	35786	0	0	0	18501	17110	142924	27495	967122	39025	106738	0	0	8251	669680	0	0
2024-05-10 05:04:32			0	35772	0	0	0	18496	17110	142900	27370	967043	39014	106736	0	0	8251	670312	0	0
2024-05-10 05:05:32			0	35787	0	0	0	18493	17120	142888	27519	967078	39003	106735	0	0	8252	669598	0	0
2024-05-10 05:06:32			0	35780	0	0	0	18493	17120	142904	27472	967113	39015	106735	0	0	8251	669914	0	0
2024-05-10 05:07:32			0	35773	0	0	0	18496	17110	142944	27597	967088	39013	106736	0	0	8251	670266	0	0
2024-05-10 05:08:32			0	35791	0	0	0	18498	17100	142928	27256	967079	39002	106737	0	0	8252	669490	0	0
2024-05-10 05:09:32			0	35773	0	0	0	18496	17110	143024	27358	967114	39002	106736	0	0	8251	670266	0	0
2024-05-10 05:10:32			0	35769	0	0	0	18506	17100	143048	27199	967106	39013	106740	0	0	8250	670483	0	0
2024-05-10 05:11:32			0	35769	0	0	0	18511	17100	143056	27353	967106	39013	106742	0	0	8250	670483	0	0
2024-05-10 05:12:32			0	35766	0	0	0	18503	17110	143024	27762	967114	39002	106739	0	0	8250	670583	0	0
2024-05-10 05:13:32			0	35772	0	0	0	18516	17110	143020	27223	967061	39013	106744	0	0	8250	670312	0	0
2024-05-10 05:14:32			0	35775	0	0	0	18522	17110	143084	27533	967088	39002	106746	0	0	8250	670176	0	0
2024-05-10 05:15:32			0	35771	0	0	0	18522	17110	142984	27433	967140	39002	106746	0	0	8250	670357	0	0
2024-05-10 05:16:32			0	35771	0	0	0	18516	17100	143020	27438	967106	39013	106744	0	0	8250	670393	0	0
2024-05-10 05:17:32			0	35783	0	0	0	18516	17110	143112	27338	967122	39025	106744	0	0	8251	669815	0	0
2024-05-10 05:18:32			0	35781	0	0	0	18511	17110	143020	27407	967061	39024	106742	0	0	8251	669905	0	0
2024-05-10 05:19:32			0	35759	0	0	0	18506	17110	143052	27405	967175	39003	106740	0	0	8250	670899	0	0
2024-05-10 05:20:32			0	35762	0	0	0	18509	17110	143004	27436	967088	39002	106741	0	0	8250	670763	0	0
2024-05-10 05:21:32			0	35761	0	0	0	18519	17100	143004	27660	967026	39013	106745	0	0	8250	670845	0	0
2024-05-10 05:22:32			0	35785	0	0	0	18519	17120	142968	27788	967183	39003	106745	0	0	8251	669688	0	0
2024-05-10 05:23:32			0	35786	0	0	0	18535	17110	143056	27364	967140	39002	106751	0	0	8251	669680	0	0
2024-05-10 05:24:32			0	35758	0	0	0	18542	17110	143024	27457	967201	39014	106754	0	0	8249	670944	0	0
2024-05-10 05:25:32			0	35766	0	0	0	18548	17110	143096	28008	967201	39025	106756	0	0	8250	670583	0	0
2024-05-10 05:26:32			0	35781	0	0	0	18537	17130	142936	27939	967200	39026	106752	0	0	8251	669833	0	0
2024-05-10 05:27:32			0	35774	0	0	0	18537	17120	142956	27504	967165	39026	106752	0	0	8250	670185	0	0
2024-05-10 05:28:32			0	35767	0	0	0	18540	17130	142984	27816	967279	39015	106753	0	0	8250	670465	0	0
2024-05-10 05:29:32			0	35783	0	0	0	18540	17130	143048	27476	967200	39015	106753	0	0	8251	669742	0	0
2024-05-10 05:30:32			0	35767	0	0	0	18537	17120	142908	27651	967245	39015	106752	0	0	8250	670501	0	0
2024-05-10 05:31:32			0	35765	0	0	0	18545	17130	142976	27531	967226	39004	106755	0	0	8250	670555	0	0
2024-05-10 05:32:32			0	35783	0	0	0	18550	17140	143024	27422	967322	39004	106757	0	0	8251	669706	0	0
2024-05-10 05:33:32			0	35797	0	0	0	18553	17130	142964	27471	967226	39004	106758	0	0	8251	669111	0	0
2024-05-10 05:34:32			0	35767	0	0	0	18558	17130	143048	27621	967200	39015	106760	0	0	8250	670465	0	0
2024-05-10 05:35:32			0	35776	0	0	0	18566	17140	143080	27150	967243	39016	106763	0	0	8250	670022	0	0
2024-05-10 05:36:32			0	35776	0	0	0	18568	17140	143056	27621	967243	39016	106764	0	0	8250	670022	0	0
2024-05-10 05:37:32			0	35760	0	0	0	18574	17130	143128	27514	967261	39016	106766	0	0	8249	670781	0	0
2024-05-10 05:38:32			0	35765	0	0	0	18563	17130	143048	27524	967235	39016	106762	0	0	8249	670555	0	0
2024-05-10 05:39:32			0	35778	0	0	0	18563	17130	143028	27332	967200	39026	106762	0	0	8250	669968	0	0
2024-05-10 05:40:32			0	35768	0	0	0	18553	17130	143012	27436	967094	39004	106758	0	0	8250	670419	0	0
2024-05-10 05:41:32			0	35760	0	0	0	18550	17120	143108	27254	967131	39014	106757	0	0	8249	670817	0	0
2024-05-10 05:42:32			0	35750	0	0	0	18545	17110	143144	27365	967035	39013	106755	0	0	8249	671305	0	0
2024-05-10 05:43:32			0	35762	0	0	0	18527	17100	143044	27441	966992	39012	106748	0	0	8250	670800	0	0
2024-05-10 05:44:32			0	35758	0	0	0	18516	17090	143088	27864	966949	39000	106744	0	0	8250	671017	0	0
2024-05-10 05:45:32			0	35757	0	0	0	18475	17090	143132	27689	966904	39000	106728	0	0	8250	671062	0	0
2024-05-10 05:46:32			0	35734	0	0	0	18420	17070	143080	27400	966784	38999	106707	0	0	8250	672175	0	0
2024-05-10 05:47:32			0	35758	0	0	0	18386	17050	143052	27528	966680	38998	106694	0	0	8252	671162	0	0
2024-05-10 05:48:32			0	35786	0	0	0	18399	17040	143020	27737	966664	38998	106699	0	0	8253	669934	0	0
2024-05-10 05:49:32			0	35793	0	0	0	18423	17030	142948	27204	966761	39007	106708	0	0	8253	669654	0	0
2024-05-10 05:50:32			0	35781	0	0	0	18454	17040	142888	27670	966769	39008	106720	0	0	8252	670160	0	0
2024-05-10 05:51:32			0	35809	0	0	0	18485	17030	142920	27452	966840	39007	106732	0	0	8253	668933	0	0
2024-05-10 05:52:32			0	35793	0	0	0	18488	17030	142928	27540	966920	39007	106733	0	0	8252	669654	0	0
2024-05-10 05:53:32			0	35822	0	0	0	18496	17050	142948	27398	966971	39019	106736	0	0	8253	668274	0	0
2024-05-10 05:54:32			0	35796	0	0	0	18516	17060	142980	27467	966979	39020	106744	0	0	8252	669410	0	0
2024-05-10 05:55:32			0	35798	0	0	0	18514	17060	142912	27604	966987	39021	106743	0	0	8252	669320	0	0
2024-05-10 05:56:32			0	35795	0	0	0	18511	17070	142900	27854	966977	39021	106742	0	0	8252	669419	0	0
2024-05-10 05:57:32			0	35792	0	0	0	18516	17080	142908	27717	967065	39022	106744	0	0	8251	669518	0	0
2024-05-10 05:58:32			0	35783	0	0	0	18516	17080	142956	27488	967046	39022	106744	0	0	8251	669924	0	0
2024-05-10 05:59:32			0	35780	0	0	0	18514	17090	143032	27803	967081	39022	106743	0	0	8251	670023	0	0
2024-05-10 06:00:32			0	35783	0	0	0	18511	17090	143012	27625	967063	39011	106742	0	0	8251	669888	0	0
2024-05-10 06:01:32			0	35776	0	0	0	18519	17100	142952	27807	967097	39034	106745	0	0	8251	670167	0	0
2024-05-10 06:02:32			0	35775	0	0	0	18524	17100	142984	27725	967079	39013	106747	0	0	8250	670212	0	0
2024-05-10 06:03:32			0	35780	0	0	0	18519	17100	143052	27483	967150	39001	106745	0	0	8251	669987	0	0
2024-05-10 06:04:32			0	35760	0	0	0	18509	17100	143012	27519	967159	39024	106741	0	0	8250	670890	0	0
2024-05-10 06:05:32			0	35768	0	0	0	18501	17100	143040	27320	967097	39012	106738	0	0	8250	670529	0	0
2024-05-10 06:06:32			0	35759	0	0	0	18501	17100	143076	27417	967124	39034	106738	0	0	8250	670935	0	0
2024-05-10 06:07:32			0	35767	0	0	0	18488	17110	143008	27575	967114	39013	106733	0	0	8251	670537	0	0
2024-05-10 06:08:32			0	35751	0	0	0	18485	17100	143008	27620	967124	39023	106732	0	0	8250	671297	0	0
2024-05-10 06:09:32			0	35769	0	0	0	18485	17090	143064	27230	967063	39011	106732	0	0	8251	670520	0	0
2024-05-10 06:10:32			0	35737	0	0	0	18475	17100	143096	27329	967071	39001	106728	0	0	8249	671930	0	0
2024-05-10 06:11:32			0	35759	0	0	0	18457	17090	143072	27542	967081	39011	106721	0	0	8251	670972	0	0
2024-05-10 06:12:32			0	35746	0	0	0	18444	17090	143052	27479	966923	39022	106716	0	0	8250	671559	0	0
2024-05-10 06:13:32			0	35734	0	0	0	18423	17070	143116	27213	966924	38999	106708	0	0	8250	672175	0	0
2024-05-10 06:14:32			0	35743	0	0	0	18420	17070	143176	27332	966890	39021	106707	0	0	8250	671768	0	0
2024-05-10 06:15:32			0	35752	0	0	0	18425	17070	143112	27338	966943	38999	106709	0	0	8251	671361	0	0
2024-05-10 06:16:32			0	35745	0	0	0	18425	17070	143144	27402	966916	39010	106709	0	0	8250	671677	0	0
2024-05-10 06:17:32			0	35736	0	0	0	18438	17070	143124	27512	966943	39010	106714	0	0	8250	672084	0	0
2024-05-10 06:18:32			0	35727	0	0	0	18451	17070	143124	27618	966943	39010	106719	0	0	8249	672492	0	0
2024-05-10 06:19:32			0	35744	0	0	0	18451	17070	143128	27644	966898	38999	106719	0	0	8250	671723	0	0
2024-05-10 06:20:32			0	35713	0	0	0	18451	17060	143176	27469	966881	38999	106719	0	0	8248	673162	0	0
2024-05-10 06:21:32			0	35712	0	0	0	18446	17060	143220	27431	966934	39010	106717	0	0	8248	673207	0	0
2024-05-10 06:22:32			0	35748	0	0	0	18444	17070	143144	27488	966863	39010	106716	0	0	8250	671541	0	0
2024-05-10 06:23:32			0	35711	0	0	0	18444	17050	143168	27692	966936	38998	106716	0	0	8248	673289	0	0
2024-05-10 06:24:32			0	35728	0	0	0	18444	17070	143148	27280	966890	38999	106716	0	0	8249	672446	0	0
2024-05-10 06:25:32			0	35715	0	0	0	18444	17050	143140	27199	966865	38987	106716	0	0	8248	673108	0	0
2024-05-10 06:26:32			0	35720	0	0	0	18441	17050	143176	27059	966891	38987	106715	0	0	8249	672881	0	0
2024-05-10 06:27:32			0	35739	0	0	0	18436	17050	143240	27627	966830	39008	106713	0	0	8250	672022	0	0
2024-05-10 06:28:32			0	35727	0	0	0	18431	17050	143196	27234	966812	39019	106711	0	0	8249	672565	0	0
2024-05-10 06:29:32			0	35721	0	0	0	18431	17040	143180	27504	966875	39019	106711	0	0	8249	672873	0	0
2024-05-10 06:30:32			0	35725	0	0	0	18428	17050	143156	27454	966830	39008	106710	0	0	8249	672655	0	0
2024-05-10 06:31:32			0	35713	0	0	0	18431	17050	143272	27739	966891	39019	106711	0	0	8248	673198	0	0
2024-05-10 06:32:32			0	35724	0	0	0	18436	17050	143324	27277	966883	39008	106713	0	0	8249	672701	0	0
2024-05-10 06:33:32			0	35728	0	0	0	18436	17040	143228	27597	966822	38998	106713	0	0	8249	672556	0	0
2024-05-10 06:34:32			0	35723	0	0	0	18441	17040	143240	27744	966875	38998	106715	0	0	8249	672782	0	0
2024-05-10 06:35:32			0	35729	0	0	0	18436	17050	143108	27182	966865	39008	106713	0	0	8249	672474	0	0
2024-05-10 06:36:32			0	35722	0	0	0	18441	17040	143184	27235	966822	38998	106715	0	0	8249	672827	0	0
2024-05-10 06:37:32			0	35736	0	0	0	18436	17050	143176	27550	966910	39008	106713	0	0	8250	672157	0	0
2024-05-10 06:38:32			0	35743	0	0	0	18441	17040	143256	27436	966822	38998	106715	0	0	8250	671877	0	0
2024-05-10 06:39:32			0	35739	0	0	0	18438	17050	143200	27639	966883	39019	106714	0	0	8250	672022	0	0
2024-05-10 06:40:32			0	35745	0	0	0	18441	17050	143188	27450	966883	38998	106715	0	0	8250	671750	0	0
2024-05-10 06:41:32			0	35742	0	0	0	18438	17060	143196	27543	966873	39009	106714	0	0	8250	671849	0	0
2024-05-10 06:42:32			0	35719	0	0	0	18441	17060	143184	27533	966847	39009	106715	0	0	8249	672890	0	0
2024-05-10 06:43:32			0	35727	0	0	0	18446	17060	143104	27646	966900	38998	106717	0	0	8249	672528	0	0
2024-05-10 06:44:32			0	35742	0	0	0	18441	17050	143240	27440	966918	39008	106715	0	0	8250	671886	0	0
2024-05-10 06:45:32			0	35727	0	0	0	18446	17060	143196	27677	966873	39009	106717	0	0	8249	672528	0	0
2024-05-10 06:46:32			0	35760	0	0	0	18449	17060	143080	27509	966979	39009	106718	0	0	8251	671036	0	0
2024-05-10 06:47:32			0	35745	0	0	0	18446	17050	143092	27696	966891	39019	106717	0	0	8250	671750	0	0
2024-05-10 06:48:32			0	35749	0	0	0	18446	17060	143136	27466	966953	38998	106717	0	0	8250	671533	0	0
2024-05-10 06:49:32			0	35745	0	0	0	18449	17070	143076	27720	966943	39010	106718	0	0	8250	671677	0	0
2024-05-10 06:50:32			0	35751	0	0	0	18449	17060	143064	27492	966953	38998	106718	0	0	8250	671442	0	0
2024-05-10 06:51:32			0	35753	0	0	0	18451	17050	143036	27720	966918	39019	106719	0	0	8250	671389	0	0
2024-05-10 06:52:32			0	35748	0	0	0	18451	17070	143100	27576	966969	39010	106719	0	0	8250	671541	0	0
2024-05-10 06:53:32			0	35759	0	0	0	18449	17060	143004	27814	966881	38999	106718	0	0	8251	671081	0	0
2024-05-10 06:54:32			0	35756	0	0	0	18444	17050	142988	27566	966857	39008	106716	0	0	8251	671253	0	0
2024-05-10 06:55:32			0	35762	0	0	0	18433	17070	143088	27715	966943	39010	106712	0	0	8251	670909	0	0
2024-05-10 06:56:32			0	35763	0	0	0	18433	17050	143068	27576	966778	39008	106712	0	0	8251	670936	0	0
2024-05-10 06:57:32			0	35768	0	0	0	18407	17040	143032	27518	966849	38998	106702	0	0	8252	670747	0	0
2024-05-10 06:58:32			0	35774	0	0	0	18415	17050	142900	27528	966830	39019	106705	0	0	8252	670440	0	0
2024-05-10 06:59:32			0	35795	0	0	0	18407	17050	142868	27725	966804	38987	106702	0	0	8253	669492	0	0
2024-05-10 07:00:32			0	35807	0	0	0	18405	17040	142864	27524	966875	39008	106701	0	0	8254	668987	0	0
2024-05-10 07:01:32			0	35836	0	0	0	18407	17030	142828	27575	966779	39006	106702	0	0	8255	667716	0	0
2024-05-10 07:02:32			0	35825	0	0	0	18415	17030	142780	27270	966859	38985	106705	0	0	8255	668211	0	0
2024-05-10 07:03:32			0	35832	0	0	0	18418	17050	142712	27769	966857	39008	106706	0	0	8255	667824	0	0
2024-05-10 07:04:32			0	35851	0	0	0	18423	17040	142688	27398	966796	38998	106708	0	0	8256	667004	0	0
2024-05-10 07:05:32			0	35844	0	0	0	18433	17050	142784	27734	966936	39008	106712	0	0	8255	667283	0	0
2024-05-10 07:06:32			0	35838	0	0	0	18420	17050	142596	27512	966804	39008	106707	0	0	8255	667553	0	0
2024-05-10 07:07:32			0	35879	0	0	0	18431	17050	142601	27435	966857	38998	106711	0	0	8257	665709	0	0
2024-05-10 07:08:32			0	35874	0	0	0	18428	17050	142577	27395	966891	38998	106710	0	0	8257	665934	0	0
2024-05-10 07:09:32			0	35878	0	0	0	18431	17050	142557	27246	966891	39008	106711	0	0	8257	665754	0	0
2024-05-10 07:10:32			0	35879	0	0	0	18428	17050	142521	27384	966865	38998	106710	0	0	8257	665709	0	0
2024-05-10 07:11:32			0	35891	0	0	0	18423	17040	142573	27428	966822	39008	106708	0	0	8258	665206	0	0
2024-05-10 07:12:32			0	35914	0	0	0	18425	17050	142477	27270	966857	38998	106709	0	0	8259	664138	0	0
2024-05-10 07:13:32			0	35919	0	0	0	18415	17050	142453	27473	966857	39008	106705	0	0	8260	663914	0	0
2024-05-10 07:14:32			0	35912	0	0	0	18412	17040	142393	27663	966849	39008	106704	0	0	8260	664264	0	0
2024-05-10 07:15:32			0	35925	0	0	0	18415	17030	142329	27623	966867	38986	106705	0	0	8260	663717	0	0
2024-05-10 07:16:32			0	35952	0	0	0	18418	17030	142409	27286	966814	38986	106706	0	0	8262	662507	0	0
2024-05-10 07:17:32			0	35949	0	0	0	18415	17040	142285	27547	966849	38998	106705	0	0	8261	662605	0	0
2024-05-10 07:18:32			0	35970	0	0	0	18415	17030	142245	27675	966867	39018	106705	0	0	8263	661701	0	0
2024-05-10 07:19:32			0	35959	0	0	0	18412	17030	142221	27422	966859	38996	106704	0	0	8262	662193	0	0
2024-05-10 07:20:32			0	35973	0	0	0	18405	17030	142129	27351	966814	39018	106701	0	0	8263	661567	0	0
2024-05-10 07:21:32			0	35963	0	0	0	18407	17030	142201	27331	966814	38997	106702	0	0	8262	662014	0	0
2024-05-10 07:22:32			0	36008	0	0	0	18402	17030	142149	27547	966788	38997	106700	0	0	8265	660002	0	0
2024-05-10 07:23:32			0	35986	0	0	0	18407	17030	142181	27199	966814	39007	106702	0	0	8264	660985	0	0
2024-05-10 07:24:32			0	36000	0	0	0	18407	17020	142093	27653	966824	38973	106702	0	0	8264	660395	0	0
2024-05-10 07:25:32			0	36000	0	0	0	18402	17020	142073	27305	966745	38984	106700	0	0	8264	660395	0	0
2024-05-10 07:26:32			0	36020	0	0	0	18399	17030	142077	27395	966806	38996	106699	0	0	8266	659466	0	0
2024-05-10 07:27:32			0	36048	0	0	0	18402	17030	141961	27379	966788	38997	106700	0	0	8267	658217	0	0
2024-05-10 07:28:32			0	36042	0	0	0	18394	17030	142049	27677	966779	39006	106697	0	0	8267	658485	0	0
2024-05-10 07:29:32			0	36049	0	0	0	18394	17020	141941	27559	966763	39005	106697	0	0	8267	658209	0	0
2024-05-10 07:30:32			0	36058	0	0	0	18389	17020	141901	27614	966798	38995	106695	0	0	8268	657808	0	0
2024-05-10 07:31:32			0	36066	0	0	0	18399	17020	141865	27543	966771	39005	106699	0	0	8268	657451	0	0
2024-05-10 07:32:32			0	36090	0	0	0	18394	17020	141885	27440	966798	39005	106697	0	0	8269	656383	0	0
2024-05-10 07:33:32			0	36073	0	0	0	18386	17030	141869	27731	966779	38985	106694	0	0	8269	657104	0	0
2024-05-10 07:34:32			0	36091	0	0	0	18397	17020	141813	27816	966771	38995	106698	0	0	8269	656338	0	0
2024-05-10 07:35:32			0	36103	0	0	0	18397	17020	141809	27767	966745	38995	106698	0	0	8270	655805	0	0
2024-05-10 07:36:32			0	36119	0	0	0	18397	17020	141645	27698	966771	38995	106698	0	0	8271	655094	0	0
2024-05-10 07:37:32			0	36131	0	0	0	18394	17020	141701	27835	966789	38984	106697	0	0	8272	654560	0	0
2024-05-10 07:38:32			0	36107	0	0	0	18394	17030	141629	27679	966788	39007	106697	0	0	8270	655591	0	0
2024-05-10 07:39:32			0	36136	0	0	0	18389	17010	141653	27658	966755	38995	106695	0	0	8272	654374	0	0
2024-05-10 07:40:32			0	36152	0	0	0	18392	17020	141609	27568	966763	38995	106696	0	0	8273	653629	0	0
2024-05-10 07:41:32			0	36136	0	0	0	18397	17010	141517	27765	966694	39004	106698	0	0	8272	654374	0	0
2024-05-10 07:42:32			0	36147	0	0	0	18386	17010	141561	27845	966728	39005	106694	0	0	8273	653886	0	0
2024-05-10 07:43:32			0	36162	0	0	0	18384	17010	141469	27632	966694	38994	106693	0	0	8273	653221	0	0
2024-05-10 07:44:32			0	36152	0	0	0	18376	17020	141497	27443	966737	38995	106690	0	0	8273	653629	0	0
2024-05-10 07:45:32			0	36199	0	0	0	18379	17010	141445	27608	966746	38994	106691	0	0	8275	651581	0	0
2024-05-10 07:46:32			0	36169	0	0	0	18376	17000	141385	27557	966738	38993	106690	0	0	8274	652946	0	0
2024-05-10 07:47:32			0	36191	0	0	0	18379	17000	141381	27627	966685	39015	106691	0	0	8275	651971	0	0
2024-05-10 07:48:32			0	36183	0	0	0	18371	17010	141469	27595	966720	38994	106688	0	0	8275	652290	0	0
2024-05-10 07:49:32			0	36191	0	0	0	18384	17000	141353	27279	966712	38993	106693	0	0	8275	651971	0	0
2024-05-10 07:50:32			0	36181	0	0	0	18376	17010	141421	27313	966773	38994	106690	0	0	8275	652378	0	0
2024-05-10 07:51:32			0	36177	0	0	0	18394	17000	141341	27519	966685	38993	106697	0	0	8274	652591	0	0
2024-05-10 07:52:32			0	36187	0	0	0	18392	17010	141333	27613	966746	39016	106696	0	0	8275	652113	0	0
2024-05-10 07:53:32			0	36194	0	0	0	18394	17010	141381	27339	966755	38995	106697	0	0	8275	651803	0	0
2024-05-10 07:54:32			0	36204	0	0	0	18402	17010	141501	27703	966746	38994	106700	0	0	8275	651360	0	0
2024-05-10 07:55:32			0	36206	0	0	0	18399	17000	141309	27275	966738	38993	106699	0	0	8275	651307	0	0
2024-05-10 07:56:32			0	36223	0	0	0	18399	17010	141305	27954	966808	38984	106699	0	0	8276	650520	0	0
2024-05-10 07:57:32			0	36221	0	0	0	18407	17020	141173	27614	966824	39005	106702	0	0	8276	650573	0	0
2024-05-10 07:58:32			0	36220	0	0	0	18418	17020	141365	27580	966842	39016	106706	0	0	8276	650617	0	0
2024-05-10 07:59:32			0	36217	0	0	0	18423	17020	141281	27757	966771	38995	106708	0	0	8276	650750	0	0
2024-05-10 08:00:32			0	36216	0	0	0	18428	17020	141337	27371	966921	39016	106710	0	0	8276	650794	0	0
2024-05-10 08:01:32			0	36228	0	0	0	18428	17020	141317	27625	966877	38995	106710	0	0	8276	650263	0	0
2024-05-10 08:02:32			0	36204	0	0	0	18446	17030	141309	27462	966920	39007	106717	0	0	8275	651289	0	0
2024-05-10 08:03:32			0	36221	0	0	0	18449	17040	141301	27371	966954	38998	106718	0	0	8276	650502	0	0
2024-05-10 08:04:32			0	36211	0	0	0	18459	17040	141213	27713	966928	39008	106722	0	0	8275	650945	0	0
2024-05-10 08:05:32			0	36226	0	0	0	18464	17050	141293	27376	966944	39008	106724	0	0	8276	650246	0	0
2024-05-10 08:06:32			0	36223	0	0	0	18472	17060	141185	27651	967032	39009	106727	0	0	8275	650343	0	0
2024-05-10 08:07:32			0	36238	0	0	0	18477	17060	141233	27381	967066	38999	106729	0	0	8276	649681	0	0
2024-05-10 08:08:32			0	36234	0	0	0	18488	17070	141233	27625	967109	39010	106733	0	0	8276	649822	0	0
2024-05-10 08:09:32			0	36238	0	0	0	18498	17080	141269	27769	967117	39010	106737	0	0	8276	649610	0	0
2024-05-10 08:10:32			0	36246	0	0	0	18501	17070	141233	27956	967109	39021	106738	0	0	8276	649292	0	0
2024-05-10 08:11:32			0	36234	0	0	0	18506	17080	141229	27512	967152	39011	106740	0	0	8276	649787	0	0
2024-05-10 08:12:32			0	36234	0	0	0	18503	17080	141217	27753	967170	39022	106739	0	0	8276	649787	0	0
2024-05-10 08:13:32			0	36218	0	0	0	18509	17080	141125	27755	967152	39000	106741	0	0	8275	650494	0	0
2024-05-10 08:14:32			0	36232	0	0	0	18511	17110	141193	27595	967193	39013	106742	0	0	8275	649769	0	0
2024-05-10 08:15:32			0	36238	0	0	0	18519	17090	141093	27809	967168	39011	106745	0	0	8276	649575	0	0
2024-05-10 08:16:32			0	36253	0	0	0	18527	17110	141117	27701	967220	39013	106748	0	0	8276	648842	0	0
2024-05-10 08:17:32			0	36239	0	0	0	18527	17110	141121	27654	967281	39014	106748	0	0	8276	649460	0	0
2024-05-10 08:18:32			0	36248	0	0	0	18529	17120	141177	27457	967297	39015	106749	0	0	8276	649028	0	0
2024-05-10 08:19:32			0	36242	0	0	0	18540	17120	141169	27559	967271	39015	106753	0	0	8276	649293	0	0
2024-05-10 08:20:32			0	36259	0	0	0	18550	17130	141177	27888	967332	39037	106757	0	0	8276	648507	0	0
2024-05-10 08:21:32			0	36235	0	0	0	18548	17120	141145	27711	967324	39037	106756	0	0	8275	649601	0	0
2024-05-10 08:22:32			0	36256	0	0	0	18555	17130	141145	27440	967358	39037	106759	0	0	8276	648639	0	0
2024-05-10 08:23:32			0	36258	0	0	0	18550	17140	141013	27543	967348	39027	106757	0	0	8276	648516	0	0
2024-05-10 08:24:32			0	36247	0	0	0	18550	17130	141149	27435	967393	39016	106757	0	0	8276	649037	0	0
2024-05-10 08:25:32			0	36269	0	0	0	18561	17140	141209	27488	967348	39027	106761	0	0	8277	648031	0	0
2024-05-10 08:26:32			0	36270	0	0	0	18548	17150	141097	27422	967400	39017	106756	0	0	8277	647952	0	0
2024-05-10 08:27:32			0	36272	0	0	0	18548	17150	141065	27616	967365	39017	106756	0	0	8277	647864	0	0
2024-05-10 08:28:32			0	36272	0	0	0	18542	17140	140997	27402	967348	39027	106754	0	0	8277	647899	0	0
2024-05-10 08:29:32			0	36279	0	0	0	18550	17150	140945	27711	967391	39028	106757	0	0	8277	647555	0	0
2024-05-10 08:30:32			0	36292	0	0	0	18553	17140	140969	27540	967348	39027	106758	0	0	8278	647018	0	0
2024-05-10 08:31:32			0	36294	0	0	0	18566	17150	140981	27329	967347	39028	106763	0	0	8278	646895	0	0
2024-05-10 08:32:32			0	36322	0	0	0	18568	17150	140869	27654	967391	39028	106764	0	0	8280	645663	0	0
2024-05-10 08:33:32			0	36306	0	0	0	18561	17150	140921	27345	967373	39040	106761	0	0	8279	646366	0	0
2024-05-10 08:34:32			0	36312	0	0	0	18574	17160	140817	27835	967381	39028	106766	0	0	8279	646067	0	0
2024-05-10 08:35:32			0	36315	0	0	0	18571	17160	140761	27561	967381	39006	106765	0	0	8279	645935	0	0
2024-05-10 08:36:32			0	36322	0	0	0	18571	17150	140821	27576	967452	39017	106765	0	0	8279	645663	0	0
2024-05-10 08:37:32			0	36347	0	0	0	18574	17170	140693	27144	967398	39030	106766	0	0	8281	644494	0	0
2024-05-10 08:38:32			0	36344	0	0	0	18563	17160	140765	27550	967469	39007	106762	0	0	8281	644661	0	0
2024-05-10 08:39:32			0	36353	0	0	0	18584	17170	140789	27313	967459	39030	106770	0	0	8281	644231	0	0
2024-05-10 08:40:32			0	36364	0	0	0	18589	17170	140641	27466	967503	39030	106772	0	0	8281	643748	0	0
2024-05-10 08:41:32			0	36365	0	0	0	18589	17170	140621	27163	967451	39019	106772	0	0	8282	643704	0	0
2024-05-10 08:42:32			0	36399	0	0	0	18587	17170	140593	27566	967538	39030	106771	0	0	8283	642214	0	0
2024-05-10 08:43:32			0	36402	0	0	0	18597	17180	140569	27336	967467	39031	106775	0	0	8283	642047	0	0
2024-05-10 08:44:32			0	36382	0	0	0	18597	17180	140553	27201	967546	39031	106775	0	0	8282	642924	0	0
2024-05-10 08:45:32			0	36422	0	0	0	18594	17180	140569	27816	967502	39020	106774	0	0	8285	641172	0	0
2024-05-10 08:46:32			0	36426	0	0	0	18589	17190	140545	27490	967457	39032	106772	0	0	8285	640962	0	0
2024-05-10 08:47:32			0	36433	0	0	0	18592	17190	140453	27535	967571	39021	106773	0	0	8285	640656	0	0
2024-05-10 08:48:32			0	36436	0	0	0	18592	17180	140381	27435	967520	39031	106773	0	0	8285	640559	0	0
2024-05-10 08:49:32			0	36441	0	0	0	18594	17190	140341	27462	967510	39032	106774	0	0	8286	640306	0	0
2024-05-10 08:50:32			0	36445	0	0	0	18592	17190	140425	27481	967597	39032	106773	0	0	8286	640131	0	0
2024-05-10 08:51:32			0	36451	0	0	0	18592	17200	140389	27440	967553	39033	106773	0	0	8286	639834	0	0
2024-05-10 08:52:32			0	36454	0	0	0	18602	17200	140377	27124	967579	39043	106777	0	0	8286	639703	0	0
2024-05-10 08:53:32			0	36467	0	0	0	18607	17210	140309	27100	967622	39034	106779	0	0	8287	639101	0	0
2024-05-10 08:54:32			0	36449	0	0	0	18602	17200	140389	27048	967535	39033	106777	0	0	8286	639922	0	0
2024-05-10 08:55:32			0	36449	0	0	0	18607	17200	140385	26981	967587	39033	106779	0	0	8286	639922	0	0
2024-05-10 08:56:32			0	36440	0	0	0	18615	17200	140409	27350	967606	39033	106782	0	0	8285	640315	0	0
2024-05-10 08:57:32			0	36442	0	0	0	18612	17190	140465	27267	967597	39032	106781	0	0	8285	640262	0	0
2024-05-10 08:58:32			0	36425	0	0	0	18618	17210	140497	27291	967657	39022	106783	0	0	8284	640936	0	0
2024-05-10 08:59:32			0	36397	0	0	0	18623	17210	140557	26934	967622	39034	106785	0	0	8283	642162	0	0
2024-05-10 09:00:32			0	36369	0	0	0	18623	17200	140641	27621	967693	39033	106785	0	0	8281	643424	0	0
2024-05-10 09:01:32			0	36330	0	0	0	18636	17210	140861	27540	967701	39034	106790	0	0	8279	645101	0	0
2024-05-10 09:02:32			0	36289	0	0	0	18646	17230	141085	27415	967655	39035	106794	0	0	8277	646834	0	0
2024-05-10 09:03:32			0	36213	0	0	0	18644	17230	141293	27078	967761	39024	106793	0	0	8273	650185	0	0
2024-05-10 09:04:32			0	36168	0	0	0	18646	17230	141477	27244	967734	39024	106794	0	0	8270	652175	0	0
2024-05-10 09:05:32			0	36094	0	0	0	18646	17230	141621	27424	967742	39035	106794	0	0	8266	655457	0	0
2024-05-10 09:06:32			0	36051	0	0	0	18654	17230	141861	27498	967663	39045	106797	0	0	8264	657370	0	0
2024-05-10 09:07:32			0	35998	0	0	0	18646	17230	142033	27384	967716	39035	106794	0	0	8261	659732	0	0
2024-05-10 09:08:32			0	35954	0	0	0	18641	17250	142169	27268	967767	39026	106792	0	0	8259	661627	0	0
2024-05-10 09:09:32			0	35909	0	0	0	18638	17230	142301	27433	967690	39035	106791	0	0	8256	663713	0	0
2024-05-10 09:10:32			0	35869	0	0	0	18638	17240	142425	27046	967751	39025	106791	0	0	8254	665472	0	0
2024-05-10 09:11:32			0	35859	0	0	0	18631	17240	142552	27157	967698	39025	106788	0	0	8254	665921	0	0
2024-05-10 09:12:32			0	35844	0	0	0	18633	17230	142696	27090	967761	39045	106789	0	0	8253	666632	0	0
2024-05-10 09:13:32			0	35823	0	0	0	18628	17240	142732	26942	967645	39036	106787	0	0	8252	667540	0	0
2024-05-10 09:14:32			0	35830	0	0	0	18625	17240	142656	27173	967698	39046	106786	0	0	8252	667225	0	0
2024-05-10 09:15:32			0	35803	0	0	0	18633	17240	142724	27367	967725	39036	106789	0	0	8251	668441	0	0
2024-05-10 09:16:32			0	35806	0	0	0	18631	17240	142776	27498	967706	39037	106788	0	0	8251	668306	0	0
2024-05-10 09:17:32			0	35805	0	0	0	18631	17240	142828	27358	967706	39047	106788	0	0	8251	668351	0	0
2024-05-10 09:18:32			0	35792	0	0	0	18631	17240	142764	27248	967786	39026	106788	0	0	8250	668937	0	0
2024-05-10 09:19:32			0	35806	0	0	0	18633	17250	142740	27274	967715	39037	106789	0	0	8251	668269	0	0
2024-05-10 09:20:32			0	35783	0	0	0	18623	17230	142844	27239	967708	39035	106785	0	0	8250	669379	0	0
2024-05-10 09:21:32			0	35788	0	0	0	18628	17240	142800	27365	967777	39036	106787	0	0	8250	669117	0	0
2024-05-10 09:22:32			0	35781	0	0	0	18631	17230	142768	27291	967742	39035	106788	0	0	8249	669469	0	0
2024-05-10 09:23:32			0	35809	0	0	0	18620	17240	142800	27183	967725	39025	106784	0	0	8251	668171	0	0
2024-05-10 09:24:32			0	35816	0	0	0	18623	17240	142788	27374	967733	39026	106785	0	0	8252	667855	0	0
2024-05-10 09:25:32			0	35800	0	0	0	18636	17240	142752	27197	967733	39037	106790	0	0	8250	668576	0	0
2024-05-10 09:26:32			0	35802	0	0	0	18636	17240	142864	27260	967751	39025	106790	0	0	8251	668486	0	0
2024-05-10 09:27:32			0	35807	0	0	0	18633	17240	142772	27353	967680	39037	106789	0	0	8251	668261	0	0
2024-05-10 09:28:32			0	35794	0	0	0	18644	17240	142792	27072	967733	39047	106793	0	0	8250	668847	0	0
2024-05-10 09:29:32			0	35812	0	0	0	18636	17250	142784	27209	967767	39037	106790	0	0	8251	667999	0	0
2024-05-10 09:30:32			0	35799	0	0	0	18644	17240	142708	27438	967804	39036	106793	0	0	8250	668621	0	0
2024-05-10 09:31:32			0	35793	0	0	0	18641	17240	142696	27320	967786	39047	106792	0	0	8250	668892	0	0
2024-05-10 09:32:32			0	35785	0	0	0	18638	17240	142684	27741	967706	39037	106791	0	0	8250	669252	0	0
2024-05-10 09:33:32			0	35797	0	0	0	18641	17240	142748	27357	967759	39037	106792	0	0	8250	668711	0	0
2024-05-10 09:34:32			0	35815	0	0	0	18641	17240	142704	27488	967751	39046	106792	0	0	8251	667900	0	0
2024-05-10 09:35:32			0	35808	0	0	0	18644	17250	142732	27383	967802	39038	106793	0	0	8251	668179	0	0
2024-05-10 09:36:32			0	35807	0	0	0	18644	17240	142668	27206	967706	39037	106793	0	0	8251	668261	0	0
2024-05-10 09:37:32			0	35810	0	0	0	18649	17240	142824	27481	967759	39047	106795	0	0	8251	668125	0	0
2024-05-10 09:38:32			0	35803	0	0	0	18651	17250	142720	27097	967802	39048	106796	0	0	8250	668405	0	0
2024-05-10 09:39:32			0	35794	0	0	0	18657	17260	142716	27313	967784	39048	106798	0	0	8250	668774	0	0
2024-05-10 09:40:32			0	35797	0	0	0	18654	17250	142696	27237	967908	39048	106797	0	0	8250	668675	0	0
2024-05-10 09:41:32			0	35803	0	0	0	18657	17260	142692	27180	967784	39048	106798	0	0	8250	668368	0	0
2024-05-10 09:42:32			0	35820	0	0	0	18657	17260	142744	27171	967837	39048	106798	0	0	8251	667603	0	0
2024-05-10 09:43:32			0	35818	0	0	0	18662	17260	142664	27237	967863	39048	106800	0	0	8251	667693	0	0
2024-05-10 09:44:32			0	35799	0	0	0	18654	17260	142708	27504	967810	39048	106797	0	0	8250	668548	0	0
2024-05-10 09:45:32			0	35828	0	0	0	18651	17260	142724	27171	967810	39027	106796	0	0	8252	667243	0	0
2024-05-10 09:46:32			0	35812	0	0	0	18644	17260	142656	27202	967818	39049	106793	0	0	8251	667963	0	0
2024-05-10 09:47:32			0	35829	0	0	0	18641	17250	142680	27033	967828	39038	106792	0	0	8252	667234	0	0
2024-05-10 09:48:32			0	35833	0	0	0	18654	17270	142628	27248	967808	39040	106797	0	0	8252	666982	0	0
2024-05-10 09:49:32			0	35845	0	0	0	18659	17260	142648	27166	967837	39038	106799	0	0	8253	666478	0	0
2024-05-10 09:50:32			0	35832	0	0	0	18662	17270	142660	27142	967880	39039	106800	0	0	8252	667026	0	0
2024-05-10 09:51:32			0	35835	0	0	0	18667	17250	142628	27357	967855	39059	106802	0	0	8252	666964	0	0
2024-05-10 09:52:32			0	35843	0	0	0	18672	17270	142668	27294	967827	39049	106804	0	0	8252	666532	0	0
2024-05-10 09:53:32			0	35848	0	0	0	18667	17260	142624	27303	967889	39027	106802	0	0	8253	666343	0	0
2024-05-10 09:54:32			0	35856	0	0	0	18680	17280	142616	26989	967896	39040	106807	0	0	8253	665911	0	0
2024-05-10 09:55:32			0	35875	0	0	0	18677	17270	142533	27183	967853	39049	106806	0	0	8254	665094	0	0
2024-05-10 09:56:32			0	35878	0	0	0	18677	17280	142577	27062	967931	39051	106806	0	0	8254	664924	0	0
2024-05-10 09:57:32			0	35872	0	0	0	18680	17270	142565	27097	967941	39040	106807	0	0	8254	665229	0	0
2024-05-10 09:58:32			0	35873	0	0	0	18688	17270	142481	26982	967914	39061	106810	0	0	8254	665184	0	0
2024-05-10 09:59:32			0	35890	0	0	0	18685	17270	142493	27185	967888	39029	106809	0	0	8255	664421	0	0
2024-05-10 10:00:32			0	35889	0	0	0	18688	17280	142437	27097	967896	39029	106810	0	0	8255	664430	0	0
2024-05-10 10:01:32			0	35888	0	0	0	18690	17290	142353	26972	967939	39052	106811	0	0	8255	664439	0	0
2024-05-10 10:02:32			0	35883	0	0	0	18693	17290	142429	27081	967965	39041	106812	0	0	8254	664663	0	0
2024-05-10 10:03:32			0	35898	0	0	0	18690	17280	142445	27180	967922	39040	106811	0	0	8255	664026	0	0
2024-05-10 10:04:32			0	35902	0	0	0	18683	17280	142333	27109	967896	39050	106808	0	0	8255	663847	0	0
2024-05-10 10:05:32			0	35892	0	0	0	18685	17300	142413	26913	967955	39063	106809	0	0	8255	664223	0	0
2024-05-10 10:06:32			0	35904	0	0	0	18685	17290	142469	27242	967965	39041	106809	0	0	8256	663721	0	0
2024-05-10 10:07:32			0	35898	0	0	0	18688	17290	142521	27204	967947	39052	106810	0	0	8255	663990	0	0
2024-05-10 10:08:32			0	35875	0	0	0	18683	17280	142445	27105	967931	39051	106808	0	0	8254	665058	0	0
2024-05-10 10:09:32			0	35891	0	0	0	18683	17300	142521	27201	967955	39041	106808	0	0	8255	664268	0	0
2024-05-10 10:10:32			0	35880	0	0	0	18675	17280	142457	27156	967904	39029	106805	0	0	8254	664834	0	0
2024-05-10 10:11:32			0	35886	0	0	0	18677	17290	142501	27414	967912	39041	106806	0	0	8255	664528	0	0
2024-05-10 10:12:32			0	35870	0	0	0	18680	17290	142497	27211	967868	39041	106807	0	0	8254	665247	0	0
2024-05-10 10:13:32			0	35886	0	0	0	18675	17290	142497	27013	967965	39041	106805	0	0	8255	664528	0	0
2024-05-10 10:14:32			0	35870	0	0	0	18675	17290	142421	27312	967965	39063	106805	0	0	8254	665247	0	0
2024-05-10 10:15:32			0	35876	0	0	0	18667	17290	142505	27161	967912	39052	106802	0	0	8254	664977	0	0
2024-05-10 10:16:32			0	35887	0	0	0	18667	17290	142369	27119	967912	39052	106802	0	0	8255	664483	0	0
2024-05-10 10:17:32			0	35864	0	0	0	18670	17280	142513	27402	967922	39050	106803	0	0	8254	665552	0	0
2024-05-10 10:18:32			0	35885	0	0	0	18659	17280	142461	27291	967817	39040	106799	0	0	8255	664609	0	0
2024-05-10 10:19:32			0	35882	0	0	0	18659	17280	142473	27043	967922	39040	106799	0	0	8255	664744	0	0
2024-05-10 10:20:32			0	35873	0	0	0	18651	17280	142389	27293	967870	39050	106796	0	0	8254	665148	0	0
2024-05-10 10:21:32			0	35871	0	0	0	18651	17280	142449	27485	967790	39050	106796	0	0	8254	665238	0	0
2024-05-10 10:22:32			0	35873	0	0	0	18646	17270	142469	27398	967853	39039	106794	0	0	8254	665184	0	0
2024-05-10 10:23:32			0	35876	0	0	0	18649	17270	142477	27187	967835	39029	106795	0	0	8255	665049	0	0
2024-05-10 10:24:32			0	35886	0	0	0	18651	17270	142405	27216	967808	39040	106796	0	0	8255	664600	0	0
2024-05-10 10:25:32			0	35889	0	0	0	18638	17280	142409	27457	967851	39040	106791	0	0	8255	664430	0	0
2024-05-10 10:26:32			0	35881	0	0	0	18641	17280	142393	27289	967825	39051	106792	0	0	8255	664789	0	0
2024-05-10 10:27:32			0	35867	0	0	0	18636	17270	142497	27537	967827	39049	106790	0	0	8254	665453	0	0
2024-05-10 10:28:32			0	35880	0	0	0	18636	17270	142493	27550	967774	39039	106790	0	0	8255	664870	0	0
2024-05-10 10:29:32			0	35881	0	0	0	18625	17270	142481	27474	967800	39039	106786	0	0	8255	664825	0	0
2024-05-10 10:30:32			0	35885	0	0	0	18633	17270	142357	27497	967800	39039	106789	0	0	8255	664645	0	0
2024-05-10 10:31:32			0	35902	0	0	0	18628	17270	142457	27166	967800	39039	106787	0	0	8256	663883	0	0
2024-05-10 10:32:32			0	35894	0	0	0	18641	17260	142341	27322	967818	39060	106792	0	0	8256	664278	0	0
2024-05-10 10:33:32			0	35902	0	0	0	18641	17270	142325	27343	967853	39049	106792	0	0	8256	663883	0	0
2024-05-10 10:34:32			0	35871	0	0	0	18638	17270	142369	27438	967853	39039	106791	0	0	8254	665274	0	0
2024-05-10 10:35:32			0	35893	0	0	0	18625	17270	142381	27041	967835	39040	106786	0	0	8256	664287	0	0
2024-05-10 10:36:32			0	35911	0	0	0	18612	17260	142349	27185	967818	39049	106781	0	0	8257	663516	0	0
2024-05-10 10:37:32			0	35897	0	0	0	18605	17250	142417	27074	967749	39038	106778	0	0	8256	664179	0	0
2024-05-10 10:38:32			0	35891	0	0	0	18576	17250	142469	27358	967715	39047	106767	0	0	8257	664449	0	0
2024-05-10 10:39:32			0	35893	0	0	0	18566	17250	142445	27303	967644	39027	106763	0	0	8257	664359	0	0
2024-05-10 10:40:32			0	35909	0	0	0	18555	17240	142357	27379	967645	39036	106759	0	0	8258	663677	0	0
2024-05-10 10:41:32			0	35905	0	0	0	18540	17230	142445	27414	967663	39035	106753	0	0	8258	663893	0	0
2024-05-10 10:42:32			0	35885	0	0	0	18535	17240	142501	27435	967645	39036	106751	0	0	8257	664754	0	0
2024-05-10 10:43:32			0	35877	0	0	0	18550	17230	142453	27364	967637	39024	106757	0	0	8256	665149	0	0
2024-05-10 10:44:32			0	35883	0	0	0	18535	17230	142425	27566	967576	39045	106751	0	0	8257	664880	0	0
2024-05-10 10:45:32			0	35880	0	0	0	18516	17230	142497	27457	967576	39024	106744	0	0	8257	665014	0	0
2024-05-10 10:46:32			0	35871	0	0	0	18506	17200	142449	27175	967508	39022	106740	0	0	8256	665527	0	0
2024-05-10 10:47:32			0	35865	0	0	0	18503	17200	142641	27398	967447	39022	106739	0	0	8256	665796	0	0
2024-05-10 10:48:32			0	35857	0	0	0	18498	17190	142588	27509	967510	39021	106737	0	0	8256	666192	0	0
2024-05-10 10:49:32			0	35833	0	0	0	18490	17180	142644	27505	967449	39020	106734	0	0	8254	667308	0	0
2024-05-10 10:50:32			0	35850	0	0	0	18488	17180	142700	27559	967467	39020	106733	0	0	8255	666543	0	0
2024-05-10 10:51:32			0	35805	0	0	0	18483	17170	142712	27464	967432	38998	106731	0	0	8253	668605	0	0
2024-05-10 10:52:32			0	35809	0	0	0	18485	17170	142664	27215	967380	39008	106732	0	0	8253	668425	0	0
2024-05-10 10:53:32			0	35818	0	0	0	18483	17160	142784	27543	967363	39018	106731	0	0	8254	668055	0	0
2024-05-10 10:54:32			0	35799	0	0	0	18485	17150	142860	27187	967400	39017	106732	0	0	8253	668948	0	0
2024-05-10 10:55:32			0	35776	0	0	0	18511	17150	142864	27291	967400	39017	106742	0	0	8251	669985	0	0
2024-05-10 10:56:32			0	35755	0	0	0	18537	17160	142964	27625	967416	39040	106752	0	0	8249	670897	0	0
2024-05-10 10:57:32			0	35747	0	0	0	18558	17160	142968	27566	967469	39018	106760	0	0	8249	671259	0	0
2024-05-10 10:58:32			0	35734	0	0	0	18532	17170	143108	27412	967485	39019	106750	0	0	8248	671810	0	0
2024-05-10 10:59:32			0	35709	0	0	0	18488	17170	143124	27436	967432	39019	106733	0	0	8248	672941	0	0
2024-05-10 11:00:32			0	35689	0	0	0	18428	17160	143200	27294	967231	39007	106710	0	0	8248	673884	0	0
2024-05-10 11:01:32			0	35713	0	0	0	18389	17140	143128	27412	967225	39005	106695	0	0	8249	672870	0	0
2024-05-10 11:02:32			0	35688	0	0	0	18410	17130	143268	26996	967182	38994	106703	0	0	8248	674039	0	0
2024-05-10 11:03:32			0	35680	0	0	0	18418	17130	143468	27260	967208	39016	106706	0	0	8247	674402	0	0
2024-05-10 11:04:32			0	35649	0	0	0	18436	17130	143368	27301	967235	39027	106713	0	0	8245	675809	0	0
2024-05-10 11:05:32			0	35638	0	0	0	18433	17120	143468	27211	967183	39003	106712	0	0	8245	676345	0	0
2024-05-10 11:06:32			0	35623	0	0	0	18425	17120	143452	27270	967218	39004	106709	0	0	8244	677027	0	0
2024-05-10 11:07:32			0	35600	0	0	0	18438	17120	143532	27371	967218	39004	106714	0	0	8242	678074	0	0
2024-05-10 11:08:32			0	35608	0	0	0	18428	17120	143660	27036	967157	39003	106710	0	0	8243	677709	0	0
2024-05-10 11:09:32			0	35594	0	0	0	18418	17110	143748	27562	967122	39014	106706	0	0	8242	678384	0	0
2024-05-10 11:10:32			0	35573	0	0	0	18394	17100	143792	27573	967106	39013	106697	0	0	8242	679378	0	0
2024-05-10 11:11:32			0	35554	0	0	0	18386	17110	143832	27277	967035	38992	106694	0	0	8241	680207	0	0
2024-05-10 11:12:32			0	35550	0	0	0	18410	17090	143892	27241	967063	39000	106703	0	0	8240	680464	0	0
2024-05-10 11:13:32			0	35532	0	0	0	18436	17100	143980	27137	967150	39023	106713	0	0	8239	681249	0	0
2024-05-10 11:14:32			0	35525	0	0	0	18459	17100	143904	27260	967150	39012	106722	0	0	8238	681569	0	0
2024-05-10 11:15:32			0	35513	0	0	0	18475	17110	143968	27133	967167	39013	106728	0	0	8237	682080	0	0
2024-05-10 11:16:32			0	35501	0	0	0	18470	17100	143976	27093	967203	39012	106726	0	0	8236	682666	0	0
2024-05-10 11:17:32			0	35518	0	0	0	18446	17100	144100	27497	967132	39002	106717	0	0	8238	681889	0	0
2024-05-10 11:18:32			0	35487	0	0	0	18431	17110	144028	27476	967114	38992	106711	0	0	8236	683270	0	0
2024-05-10 11:19:32			0	35502	0	0	0	18420	17090	143988	27438	967081	39000	106707	0	0	8237	682658	0	0
2024-05-10 11:20:32			0	35511	0	0	0	18423	17090	144068	27613	967055	39000	106708	0	0	8238	682246	0	0
2024-05-10 11:21:32			0	35500	0	0	0	18418	17090	144060	27405	967036	38990	106706	0	0	8237	682749	0	0
2024-05-10 11:22:32			0	35487	0	0	0	18407	17080	144020	27656	966967	39022	106702	0	0	8237	683381	0	0
2024-05-10 11:23:32			0	35509	0	0	0	18402	17070	144020	27414	967030	38999	106700	0	0	8238	682411	0	0
2024-05-10 11:24:32			0	35515	0	0	0	18392	17070	144024	27331	966969	38988	106696	0	0	8238	682137	0	0
2024-05-10 11:25:32			0	35503	0	0	0	18394	17060	144012	27675	966908	39010	106697	0	0	8238	682723	0	0
2024-05-10 11:26:32			0	35520	0	0	0	18392	17070	144048	27381	966969	38999	106696	0	0	8239	681908	0	0
2024-05-10 11:27:32			0	35514	0	0	0	18386	17060	144032	27402	966926	38998	106694	0	0	8238	682220	0	0
2024-05-10 11:28:32			0	35523	0	0	0	18384	17060	143964	27440	966979	38976	106693	0	0	8239	681808	0	0
2024-05-10 11:29:32			0	35545	0	0	0	18379	17050	143980	27364	966839	39008	106691	0	0	8240	680840	0	0
2024-05-10 11:30:32			0	35531	0	0	0	18381	17050	143956	27684	966857	38998	106692	0	0	8239	681479	0	0
2024-05-10 11:31:32			0	35541	0	0	0	18374	17030	143904	27587	966867	39007	106689	0	0	8240	681096	0	0
2024-05-10 11:32:32			0	35572	0	0	0	18371	17030	143820	27355	966832	39006	106688	0	0	8242	679681	0	0
2024-05-10 11:33:32			0	35540	0	0	0	18361	17020	143864	27386	966842	38995	106684	0	0	8240	681179	0	0
2024-05-10 11:34:32			0	35576	0	0	0	18350	17020	143944	27116	966824	39005	106680	0	0	8242	679536	0	0
2024-05-10 11:35:32			0	35554	0	0	0	18353	17010	143800	27523	966755	38995	106681	0	0	8241	680576	0	0
2024-05-10 11:36:32			0	35554	0	0	0	18350	17000	143844	27170	966791	39004	106680	0	0	8241	680613	0	0
2024-05-10 11:37:32			0	35575	0	0	0	18355	17000	143828	27488	966712	39004	106682	0	0	8242	679655	0	0
2024-05-10 11:38:32			0	35586	0	0	0	18353	17010	143764	27230	966720	39004	106681	0	0	8243	679117	0	0
2024-05-10 11:39:32			0	35583	0	0	0	18345	17000	143808	27282	966712	38993	106678	0	0	8243	679290	0	0
2024-05-10 11:40:32			0	35585	0	0	0	18348	17010	143740	27253	966746	39004	106679	0	0	8243	679162	0	0
2024-05-10 11:41:32			0	35595	0	0	0	18345	17000	143728	27199	966677	39004	106678	0	0	8243	678743	0	0
2024-05-10 11:42:32			0	35606	0	0	0	18342	17000	143780	27588	966738	39015	106677	0	0	8244	678242	0	0
2024-05-10 11:43:32			0	35610	0	0	0	18345	17000	143664	27533	966677	39004	106678	0	0	8244	678060	0	0
2024-05-10 11:44:32			0	35604	0	0	0	18355	16990	143784	27279	966722	39004	106682	0	0	8243	678370	0	0
2024-05-10 11:45:32			0	35584	0	0	0	18355	16990	143716	27147	966722	38993	106682	0	0	8242	679281	0	0
2024-05-10 11:46:32			0	35619	0	0	0	18340	16980	143648	27339	966679	38992	106676	0	0	8244	677724	0	0
2024-05-10 11:47:32			0	35619	0	0	0	18329	16990	143704	27467	966687	38981	106672	0	0	8245	677687	0	0
2024-05-10 11:48:32			0	35608	0	0	0	18311	16990	143704	27396	966608	38992	106665	0	0	8244	678188	0	0
2024-05-10 11:49:32			0	35621	0	0	0	18306	16970	143612	27282	966583	38992	106663	0	0	8245	677669	0	0
2024-05-10 11:50:32			0	35633	0	0	0	18288	16970	143568	27367	966504	39002	106656	0	0	8246	677123	0	0
2024-05-10 11:51:32			0	35625	0	0	0	18283	16950	143576	27296	966471	38989	106654	0	0	8246	677561	0	0
2024-05-10 11:52:32			0	35655	0	0	0	18280	16950	143488	27164	966436	38989	106653	0	0	8247	676196	0	0
2024-05-10 11:53:32			0	35630	0	0	0	18272	16950	143532	27083	966436	38967	106650	0	0	8246	677333	0	0
2024-05-10 11:54:32			0	35631	0	0	0	18275	16940	143492	27303	966481	39009	106651	0	0	8246	677324	0	0
2024-05-10 11:55:32			0	35645	0	0	0	18277	16930	143684	27454	966509	38976	106652	0	0	8247	676724	0	0
2024-05-10 11:56:32			0	35663	0	0	0	18272	16930	143552	27400	966412	38987	106650	0	0	8248	675906	0	0
2024-05-10 11:57:32			0	35650	0	0	0	18272	16930	143640	27462	966385	38998	106650	0	0	8247	676497	0	0
2024-05-10 11:58:32			0	35655	0	0	0	18280	16920	143556	27131	966474	38998	106653	0	0	8247	676306	0	0
2024-05-10 11:59:32			0	35669	0	0	0	18288	16920	143556	27602	966448	38986	106656	0	0	8248	675670	0	0
2024-05-10 12:00:32			0	35665	0	0	0	18290	16930	143500	27467	966438	38998	106657	0	0	8248	675815	0	0
2024-05-10 12:01:32			0	35669	0	0	0	18285	16930	143500	26861	966465	38987	106655	0	0	8248	675633	0	0
2024-05-10 12:02:32			0	35663	0	0	0	18283	16920	143416	27350	966440	38997	106654	0	0	8248	675943	0	0
2024-05-10 12:03:32			0	35690	0	0	0	18288	16930	143444	27407	966412	38976	106656	0	0	8249	674680	0	0
2024-05-10 12:04:32			0	35692	0	0	0	18285	16930	143404	27526	966412	38998	106655	0	0	8249	674589	0	0
2024-05-10 12:05:32			0	35699	0	0	0	18280	16930	143412	27336	966465	38987	106653	0	0	8250	674272	0	0
2024-05-10 12:06:32			0	35686	0	0	0	18283	16920	143488	27144	966448	38998	106654	0	0	8249	674898	0	0
2024-05-10 12:07:32			0	35699	0	0	0	18277	16920	143376	27293	966440	38997	106652	0	0	8250	674308	0	0
2024-05-10 12:08:32			0	35689	0	0	0	18275	16920	143372	27462	966387	38975	106651	0	0	8249	674762	0	0
2024-05-10 12:09:32			0	35697	0	0	0	18280	16920	143424	27649	966440	38997	106653	0	0	8249	674399	0	0
2024-05-10 12:10:32			0	35685	0	0	0	18272	16910	143444	27105	966405	38997	106650	0	0	8249	674980	0	0
2024-05-10 12:11:32			0	35716	0	0	0	18275	16910	143424	27301	966405	38997	106651	0	0	8251	673574	0	0
2024-05-10 12:12:32			0	35716	0	0	0	18275	16910	143416	27533	966371	38997	106651	0	0	8251	673574	0	0
2024-05-10 12:13:32			0	35711	0	0	0	18283	16920	143272	27199	966395	38986	106654	0	0	8250	673764	0	0
2024-05-10 12:14:32			0	35729	0	0	0	18270	16910	143256	27157	966371	38975	106649	0	0	8251	672985	0	0
2024-05-10 12:15:32			0	35714	0	0	0	18329	16910	143292	27469	966397	38997	106672	0	0	8250	673665	0	0
2024-05-10 12:16:32			0	35707	0	0	0	18337	16920	143384	27275	966493	38986	106675	0	0	8249	673945	0	0
2024-05-10 12:17:32			0	35714	0	0	0	18342	16920	143352	27124	966501	39008	106677	0	0	8249	673628	0	0
2024-05-10 12:18:32			0	35723	0	0	0	18342	16930	143372	27270	966544	38998	106677	0	0	8250	673184	0	0
2024-05-10 12:19:32			0	35718	0	0	0	18335	16920	143392	27156	966448	38998	106674	0	0	8250	673447	0	0
2024-05-10 12:20:32			0	35723	0	0	0	18316	16930	143316	27415	966483	38998	106667	0	0	8250	673184	0	0
2024-05-10 12:21:32			0	35727	0	0	0	18306	16920	143272	27164	966440	38997	106663	0	0	8251	673039	0	0
2024-05-10 12:22:32			0	35723	0	0	0	18298	16920	143212	27041	966413	38975	106660	0	0	8251	673220	0	0
2024-05-10 12:23:32			0	35724	0	0	0	18285	16910	143184	27298	966405	38997	106655	0	0	8251	673211	0	0
2024-05-10 12:24:32			0	35723	0	0	0	18267	16910	143228	27222	966397	38986	106648	0	0	8251	673257	0	0
2024-05-10 12:25:32			0	35732	0	0	0	18264	16910	143204	27421	966352	38986	106647	0	0	8252	672849	0	0
2024-05-10 12:26:32			0	35735	0	0	0	18238	16900	143188	27180	966336	38996	106637	0	0	8252	672750	0	0
2024-05-10 12:27:32			0	35759	0	0	0	18220	16900	143164	27400	966310	38996	106630	0	0	8254	671663	0	0
2024-05-10 12:28:32			0	35752	0	0	0	18225	16890	143068	27453	966259	38983	106632	0	0	8253	672016	0	0
2024-05-10 12:29:32			0	35755	0	0	0	18210	16890	143144	27249	966267	38983	106626	0	0	8254	671881	0	0
2024-05-10 12:30:32			0	35752	0	0	0	18210	16870	143112	26955	966155	38992	106626	0	0	8253	672089	0	0
2024-05-10 12:31:32			0	35752	0	0	0	18207	16870	143072	27237	966226	38981	106625	0	0	8254	672089	0	0
2024-05-10 12:32:32			0	35772	0	0	0	18212	16870	142996	27223	966199	38981	106627	0	0	8255	671185	0	0
2024-05-10 12:33:32			0	35771	0	0	0	18205	16860	143052	27495	966191	38981	106624	0	0	8255	671266	0	0
2024-05-10 12:34:32			0	35775	0	0	0	18207	16860	143084	27478	966191	38970	106625	0	0	8255	671085	0	0
2024-05-10 12:35:32			0	35780	0	0	0	18207	16860	143124	27298	966270	38981	106625	0	0	8255	670859	0	0
2024-05-10 12:36:32			0	35762	0	0	0	18202	16860	143172	27410	966191	38959	106623	0	0	8254	671673	0	0
2024-05-10 12:37:32			0	35788	0	0	0	18199	16850	143092	27767	966227	38968	106622	0	0	8256	670534	0	0
2024-05-10 12:38:32			0	35787	0	0	0	18199	16850	143072	27213	966174	38958	106622	0	0	8255	670579	0	0
2024-05-10 12:39:32			0	35793	0	0	0	18202	16850	143040	27251	966174	38980	106623	0	0	8256	670308	0	0
2024-05-10 12:40:32			0	35790	0	0	0	18210	16850	143008	27215	966245	38968	106626	0	0	8255	670444	0	0
2024-05-10 12:41:32			0	35787	0	0	0	18220	16850	142988	27230	966201	38980	106630	0	0	8255	670579	0	0
2024-05-10 12:42:32			0	35795	0	0	0	18215	16850	143052	27235	966201	38980	106628	0	0	8256	670218	0	0
2024-05-10 12:43:32			0	35816	0	0	0	18212	16850	142996	27270	966174	38968	106627	0	0	8257	669270	0	0
2024-05-10 12:44:32			0	35795	0	0	0	18205	16850	142952	27687	966201	38980	106624	0	0	8256	670218	0	0
2024-05-10 12:45:32			0	35796	0	0	0	18205	16840	142940	27123	966211	38980	106624	0	0	8256	670209	0	0
2024-05-10 12:46:32			0	35814	0	0	0	18207	16850	142904	27313	966148	38980	106625	0	0	8257	669360	0	0
2024-05-10 12:47:32			0	35805	0	0	0	18194	16840	142912	27346	966105	38968	106620	0	0	8256	669803	0	0
2024-05-10 12:48:32			0	35819	0	0	0	18194	16840	142928	27272	966131	38980	106620	0	0	8257	669171	0	0
2024-05-10 12:49:32			0	35818	0	0	0	18194	16840	142892	27369	966158	38980	106620	0	0	8257	669216	0	0
2024-05-10 12:50:32			0	35834	0	0	0	18197	16830	142972	27519	966089	38978	106621	0	0	8258	668531	0	0
2024-05-10 12:51:32			0	35852	0	0	0	18194	16820	142864	27000	966099	38977	106620	0	0	8259	667756	0	0
2024-05-10 12:52:32			0	35838	0	0	0	18192	16830	142852	27039	966080	38966	106619	0	0	8258	668350	0	0
2024-05-10 12:53:32			0	35829	0	0	0	18202	16840	142772	27353	966097	38979	106623	0	0	8258	668720	0	0
2024-05-10 12:54:32			0	35856	0	0	0	18202	16830	142768	27190	966168	38989	106623	0	0	8259	667539	0	0
2024-05-10 12:55:32			0	35861	0	0	0	18207	16830	142713	27145	966062	39000	106625	0	0	8259	667314	0	0
2024-05-10 12:56:32			0	35865	0	0	0	18202	16840	142736	27417	966176	38979	106623	0	0	8260	667098	0	0
2024-05-10 12:57:32			0	35868	0	0	0	18218	16830	142661	26909	966133	38988	106629	0	0	8259	666999	0	0
2024-05-10 12:58:32			0	35874	0	0	0	18220	16840	142665	27448	966150	38990	106630	0	0	8260	666693	0	0
2024-05-10 12:59:32			0	35874	0	0	0	18220	16840	142689	27157	966150	38979	106630	0	0	8260	666693	0	0
2024-05-10 13:00:32			0	35903	0	0	0	18231	16830	142665	27326	966141	38989	106634	0	0	8261	665425	0	0
2024-05-10 13:01:32			0	35874	0	0	0	18228	16840	142641	27185	966176	38979	106633	0	0	8260	666693	0	0
2024-05-10 13:02:32			0	35898	0	0	0	18215	16850	142645	27483	966193	38980	106628	0	0	8261	665577	0	0
2024-05-10 13:03:32			0	35891	0	0	0	18212	16840	142593	27779	966123	38968	106627	0	0	8261	665928	0	0
2024-05-10 13:04:32			0	35917	0	0	0	18205	16840	142485	27479	966184	38980	106624	0	0	8262	664760	0	0
2024-05-10 13:05:32			0	35910	0	0	0	18205	16830	142489	27661	966115	38967	106624	0	0	8262	665110	0	0
2024-05-10 13:06:32			0	35923	0	0	0	18205	16830	142357	27324	966107	38977	106624	0	0	8263	664526	0	0
2024-05-10 13:07:32			0	35946	0	0	0	18220	16840	142437	27583	966123	39000	106630	0	0	8264	663459	0	0
2024-05-10 13:08:32			0	35948	0	0	0	18220	16840	142401	27874	966176	38979	106630	0	0	8264	663369	0	0
2024-05-10 13:09:32			0	35950	0	0	0	18225	16840	142361	27417	966237	38980	106632	0	0	8264	663279	0	0
2024-05-10 13:10:32			0	35966	0	0	0	18215	16850	142357	27696	966166	38991	106628	0	0	8265	662526	0	0
2024-05-10 13:11:32			0	35973	0	0	0	18223	16840	142281	27379	966097	38979	106631	0	0	8265	662249	0	0
2024-05-10 13:12:32			0	35980	0	0	0	18215	16840	142277	27492	966131	38991	106628	0	0	8266	661935	0	0
2024-05-10 13:13:32			0	35984	0	0	0	18212	16840	142237	27315	966184	38980	106627	0	0	8266	661756	0	0
2024-05-10 13:14:32			0	36006	0	0	0	18207	16840	142217	27575	966105	38980	106625	0	0	8267	660772	0	0
2024-05-10 13:15:32			0	35999	0	0	0	18215	16840	142221	27744	966150	38979	106628	0	0	8267	661085	0	0
2024-05-10 13:16:32			0	36015	0	0	0	18220	16840	142165	27483	966097	38979	106630	0	0	8267	660370	0	0
2024-05-10 13:17:32			0	36043	0	0	0	18223	16840	142037	27370	966211	38980	106631	0	0	8269	659119	0	0
2024-05-10 13:18:32			0	36034	0	0	0	18233	16850	142037	27519	966245	38968	106635	0	0	8268	659485	0	0
2024-05-10 13:19:32			0	36042	0	0	0	18238	16850	142021	27483	966253	39001	106637	0	0	8269	659128	0	0
2024-05-10 13:20:32			0	36039	0	0	0	18238	16850	141985	27592	966280	38980	106637	0	0	8269	659262	0	0
2024-05-10 13:21:32			0	36052	0	0	0	18249	16860	142021	27530	966262	38992	106641	0	0	8269	658646	0	0
2024-05-10 13:22:32			0	36055	0	0	0	18264	16860	142013	27258	966341	38992	106647	0	0	8269	658512	0	0
2024-05-10 13:23:32			0	36064	0	0	0	18283	16870	142045	27333	966260	39014	106654	0	0	8269	658075	0	0
2024-05-10 13:24:32			0	36073	0	0	0	18296	16890	141945	27415	966364	39004	106659	0	0	8270	657603	0	0
2024-05-10 13:25:32			0	36072	0	0	0	18306	16880	141865	27360	966374	39003	106663	0	0	8269	657683	0	0
2024-05-10 13:26:32			0	36078	0	0	0	18309	16890	141945	27517	966452	38983	106664	0	0	8270	657380	0	0
2024-05-10 13:27:32			0	36084	0	0	0	18329	16910	141861	27476	966503	39007	106672	0	0	8270	657042	0	0
2024-05-10 13:28:32			0	36082	0	0	0	18327	16910	141837	27505	966503	39007	106671	0	0	8270	657131	0	0
2024-05-10 13:29:32			0	36096	0	0	0	18309	16920	141889	27358	966519	38997	106664	0	0	8271	656472	0	0
2024-05-10 13:30:32			0	36093	0	0	0	18303	16920	141781	27159	966545	39007	106662	0	0	8271	656605	0	0
2024-05-10 13:31:32			0	36107	0	0	0	18298	16910	141645	27640	966537	38997	106660	0	0	8271	656018	0	0
2024-05-10 13:32:32			0	36130	0	0	0	18298	16910	141677	27326	966432	39007	106660	0	0	8273	654995	0	0
2024-05-10 13:33:32			0	36126	0	0	0	18290	16910	141637	27216	966405	38997	106657	0	0	8273	655173	0	0
2024-05-10 13:34:32			0	36124	0	0	0	18293	16910	141609	27345	966458	39018	106658	0	0	8272	655262	0	0
2024-05-10 13:35:32			0	36167	0	0	0	18296	16910	141613	27301	966484	38997	106659	0	0	8275	653353	0	0
2024-05-10 13:36:32			0	36146	0	0	0	18303	16920	141629	27202	966474	39008	106662	0	0	8274	654249	0	0
2024-05-10 13:37:32			0	36164	0	0	0	18309	16910	141549	27564	966484	38986	106664	0	0	8274	653486	0	0
2024-05-10 13:38:32			0	36162	0	0	0	18311	16930	141425	27365	966562	39009	106665	0	0	8274	653504	0	0
2024-05-10 13:39:32			0	36188	0	0	0	18371	16940	141465	27324	966684	39009	106688	0	0	8275	652316	0	0
2024-05-10 13:40:32			0	36187	0	0	0	18459	16960	141453	27525	966849	39021	106722	0	0	8273	652290	0	0
2024-05-10 13:41:32			0	36172	0	0	0	18506	16980	141525	27232	967040	39024	106740	0	0	8272	652883	0	0
2024-05-10 13:42:32			0	36159	0	0	0	18511	17010	141537	27320	967098	39028	106742	0	0	8271	653353	0	0
2024-05-10 13:43:32			0	36176	0	0	0	18488	17030	141525	27421	967096	39028	106733	0	0	8272	652529	0	0
2024-05-10 13:44:32			0	36180	0	0	0	18470	17030	141481	27753	967096	39006	106726	0	0	8273	652352	0	0
2024-05-10 13:45:32			0	36199	0	0	0	18493	17050	141485	27326	967182	39019	106735	0	0	8274	651440	0	0
2024-05-10 13:46:32			0	36217	0	0	0	18550	17060	141369	27526	967296	39020	106757	0	0	8274	650609	0	0
2024-05-10 13:47:32			0	36179	0	0	0	18612	17080	141445	27469	967442	39044	106781	0	0	8271	652219	0	0
2024-05-10 13:48:32			0	36189	0	0	0	18680	17110	141321	27507	967624	39057	106807	0	0	8270	651670	0	0
2024-05-10 13:49:32			0	36175	0	0	0	18745	17140	141417	27488	967797	39059	106832	0	0	8269	652184	0	0
2024-05-10 13:50:32			0	36180	0	0	0	18786	17160	141497	27403	967944	39062	106848	0	0	8268	651892	0	0
2024-05-10 13:51:32			0	36176	0	0	0	18841	17200	141333	27272	968054	39076	106869	0	0	8267	651927	0	0
2024-05-10 13:52:32			0	36188	0	0	0	18914	17240	141449	27254	968279	39080	106897	0	0	8267	651255	0	0
2024-05-10 13:53:32			0	36178	0	0	0	18968	17270	141385	27483	968460	39092	106918	0	0	8265	651591	0	0
2024-05-10 13:54:32			0	36166	0	0	0	19007	17310	141377	27471	968614	39097	106933	0	0	8264	651980	0	0
2024-05-10 13:55:32			0	36172	0	0	0	19028	17350	141441	27481	968724	39100	106941	0	0	8264	651573	0	0
2024-05-10 13:56:32			0	36150	0	0	0	19051	17370	141365	27623	968855	39101	106950	0	0	8263	652476	0	0
2024-05-10 13:57:32			0	36150	0	0	0	19062	17410	141397	27346	969008	39105	106954	0	0	8263	652334	0	0
2024-05-10 13:58:32			0	36143	0	0	0	19064	17440	141405	27455	969058	39109	106955	0	0	8263	652538	0	0
2024-05-10 13:59:32			0	36169	0	0	0	19064	17470	141337	27651	969125	39111	106955	0	0	8264	651281	0	0
2024-05-10 14:00:32			0	36167	0	0	0	19093	17480	141297	27443	969229	39101	106966	0	0	8264	651334	0	0
2024-05-10 14:01:32			0	36159	0	0	0	19090	17500	141393	27524	969254	39102	106965	0	0	8263	651617	0	0
2024-05-10 14:02:32			0	36149	0	0	0	19101	17530	141277	27639	969304	39117	106969	0	0	8263	651953	0	0
2024-05-10 14:03:32			0	36156	0	0	0	19114	17550	141257	27339	969451	39119	106974	0	0	8263	651572	0	0
2024-05-10 14:04:32			0	36161	0	0	0	19111	17560	141189	27718	969414	39097	106973	0	0	8263	651316	0	0
2024-05-10 14:05:32			0	36162	0	0	0	19114	17590	141177	27507	969508	39111	106974	0	0	8264	651165	0	0
2024-05-10 14:06:32			0	36181	0	0	0	19116	17590	141113	27379	969482	39111	106975	0	0	8265	650326	0	0
2024-05-10 14:07:32			0	36188	0	0	0	19111	17610	141105	27480	969568	39112	106973	0	0	8265	649946	0	0
2024-05-10 14:08:32			0	36179	0	0	0	19135	17630	141037	27452	969646	39125	106982	0	0	8264	650273	0	0
2024-05-10 14:09:32			0	36199	0	0	0	19135	17640	140997	27540	969618	39126	106982	0	0	8265	649355	0	0
2024-05-10 14:10:32			0	36197	0	0	0	19150	17650	140973	27485	969740	39126	106988	0	0	8265	649408	0	0
2024-05-10 14:11:32			0	36218	0	0	0	19145	17660	140969	27213	969748	39117	106986	0	0	8266	648446	0	0
2024-05-10 14:12:32			0	36215	0	0	0	19153	17670	140925	27039	969799	39128	106989	0	0	8266	648543	0	0
2024-05-10 14:13:32			0	36210	0	0	0	19158	17690	140957	27322	969718	39129	106991	0	0	8266	648693	0	0
2024-05-10 14:14:32			0	36223	0	0	0	19158	17690	140997	27483	969859	39130	106991	0	0	8267	648120	0	0
2024-05-10 14:15:32			0	36221	0	0	0	19129	17710	140957	27431	969831	39121	106980	0	0	8267	648138	0	0
2024-05-10 14:16:32			0	36237	0	0	0	19116	17710	140961	27448	969892	39132	106975	0	0	8268	647433	0	0
2024-05-10 14:17:32			0	36242	0	0	0	19145	17710	140869	27528	969865	39132	106986	0	0	8268	647213	0	0
2024-05-10 14:18:32			0	36253	0	0	0	19124	17720	140861	27564	969927	39122	106978	0	0	8269	646694	0	0
2024-05-10 14:19:32			0	36260	0	0	0	19124	17730	140749	27386	969917	39134	106978	0	0	8269	646351	0	0
2024-05-10 14:20:32			0	36260	0	0	0	19088	17720	140865	27319	969803	39100	106964	0	0	8270	646386	0	0
2024-05-10 14:21:32			0	36248	0	0	0	19106	17710	140793	27765	969865	39122	106971	0	0	8269	646949	0	0
2024-05-10 14:22:32			0	36262	0	0	0	19093	17720	140853	27253	969829	39112	106966	0	0	8270	646298	0	0
2024-05-10 14:23:32			0	36244	0	0	0	19109	17720	140821	27680	969829	39123	106972	0	0	8269	647090	0	0
2024-05-10 14:24:32			0	36255	0	0	0	19111	17730	140737	27590	969837	39124	106973	0	0	8269	646571	0	0
2024-05-10 14:25:32			0	36248	0	0	0	19114	17730	140749	27428	969811	39124	106974	0	0	8269	646879	0	0
2024-05-10 14:26:32			0	36221	0	0	0	19090	17740	140769	27639	969854	39124	106965	0	0	8268	648032	0	0
2024-05-10 14:27:32			0	36235	0	0	0	19088	17730	140857	27481	969872	39124	106964	0	0	8269	647451	0	0
2024-05-10 14:28:32			0	36240	0	0	0	19093	17720	140897	27814	969829	39123	106966	0	0	8269	647266	0	0
2024-05-10 14:29:32			0	36220	0	0	0	19098	17730	140937	27907	969872	39101	106968	0	0	8268	648111	0	0
2024-05-10 14:30:32			0	36189	0	0	0	19093	17740	140877	27673	969889	39124	106966	0	0	8266	649442	0	0
2024-05-10 14:31:32			0	36201	0	0	0	19106	17730	140937	27426	969864	39101	106971	0	0	8266	648948	0	0
2024-05-10 14:32:32			0	36207	0	0	0	19103	17740	141049	27530	969862	39113	106970	0	0	8267	648649	0	0
2024-05-10 14:33:32			0	36190	0	0	0	19101	17730	141001	27854	969917	39101	106969	0	0	8266	649434	0	0
2024-05-10 14:34:32			0	36168	0	0	0	19124	17740	141041	27419	969889	39124	106978	0	0	8264	650369	0	0
2024-05-10 14:35:32			0	36188	0	0	0	19116	17750	140977	27128	969958	39125	106975	0	0	8266	649451	0	0
2024-05-10 14:36:32			0	36175	0	0	0	19119	17750	141049	27587	969923	39125	106976	0	0	8265	650025	0	0
2024-05-10 14:37:32			0	36167	0	0	0	19129	17760	141109	27763	969993	39136	106980	0	0	8264	650342	0	0
2024-05-10 14:38:32			0	36158	0	0	0	19129	17750	141133	27483	969950	39114	106980	0	0	8264	650775	0	0
2024-05-10 14:39:32			0	36145	0	0	0	19140	17750	141117	27563	970011	39114	106984	0	0	8263	651349	0	0
2024-05-10 14:40:32			0	36128	0	0	0	19158	17770	141277	27253	970036	39116	106991	0	0	8262	652030	0	0
2024-05-10 14:41:32			0	36136	0	0	0	19150	17770	141297	27530	970097	39126	106988	0	0	8262	651676	0	0
2024-05-10 14:42:32			0	36133	0	0	0	19158	17780	141277	27467	970052	39127	106991	0	0	8262	651774	0	0
2024-05-10 14:43:32			0	36114	0	0	0	19114	17770	141185	27421	970036	39116	106974	0	0	8262	652650	0	0
2024-05-10 14:44:32			0	36116	0	0	0	19085	17780	141265	27698	969928	39106	106963	0	0	8262	652525	0	0
2024-05-10 14:45:32			0	36102	0	0	0	19064	17750	141357	27519	969826	39103	106955	0	0	8262	653252	0	0
2024-05-10 14:46:32			0	36095	0	0	0	19049	17750	141317	27533	969852	39114	106949	0	0	8262	653562	0	0
2024-05-10 14:47:32			0	36099	0	0	0	19005	17750	141377	27327	969765	39103	106932	0	0	8263	653385	0	0
2024-05-10 14:48:32			0	36086	0	0	0	18992	17730	141301	27502	969687	39101	106927	0	0	8262	654032	0	0
2024-05-10 14:49:32			0	36071	0	0	0	18963	17710	141325	27310	969628	39122	106916	0	0	8262	654769	0	0
2024-05-10 14:50:32			0	36082	0	0	0	18945	17700	141357	27602	969585	39099	106909	0	0	8263	654316	0	0
2024-05-10 14:51:32			0	36076	0	0	0	18927	17690	141365	27320	969436	39076	106902	0	0	8262	654618	0	0
2024-05-10 14:52:32			0	36094	0	0	0	18898	17680	141381	27222	969411	39096	106891	0	0	8264	653855	0	0
2024-05-10 14:53:32			0	36078	0	0	0	18885	17660	141313	27161	969378	39094	106886	0	0	8263	654636	0	0
2024-05-10 14:54:32			0	36092	0	0	0	18888	17650	141281	27027	969362	39093	106887	0	0	8264	654051	0	0
2024-05-10 14:55:32			0	36075	0	0	0	18890	17640	141405	27448	969406	39083	106888	0	0	8263	654840	0	0
2024-05-10 14:56:32			0	36070	0	0	0	18901	17640	141405	27504	969319	39093	106892	0	0	8262	655062	0	0
2024-05-10 14:57:32			0	36073	0	0	0	18896	17630	141389	27424	969302	39092	106890	0	0	8263	654965	0	0
2024-05-10 14:58:32			0	36058	0	0	0	18896	17610	141481	27180	969259	39102	106890	0	0	8262	655702	0	0
2024-05-10 14:59:32			0	36069	0	0	0	18909	17630	141465	27336	969329	39070	106895	0	0	8262	655142	0	0
2024-05-10 15:00:32			0	36045	0	0	0	18901	17610	141501	27523	969286	39081	106892	0	0	8261	656280	0	0
2024-05-10 15:01:32			0	36063	0	0	0	18898	17610	141561	27538	969330	39080	106891	0	0	8262	655480	0	0
2024-05-10 15:02:32			0	36040	0	0	0	18914	17600	141537	27443	969269	39100	106897	0	0	8260	656538	0	0
2024-05-10 15:03:32			0	36039	0	0	0	18922	17600	141545	27519	969269	39089	106900	0	0	8260	656582	0	0
2024-05-10 15:04:32			0	36044	0	0	0	18924	17600	141589	27324	969340	39089	106901	0	0	8260	656360	0	0
2024-05-10 15:05:32			0	36056	0	0	0	18935	17610	141573	27583	969304	39090	106905	0	0	8261	655791	0	0
2024-05-10 15:06:32			0	36033	0	0	0	18937	17600	141649	27345	969261	39100	106906	0	0	8260	656849	0	0
2024-05-10 15:07:32			0	36028	0	0	0	18940	17600	141625	27301	969348	39089	106907	0	0	8259	657071	0	0
2024-05-10 15:08:32			0	36032	0	0	0	18935	17600	141725	27454	969322	39079	106905	0	0	8260	656893	0	0
2024-05-10 15:09:32			0	36033	0	0	0	18945	17600	141621	27315	969295	39079	106909	0	0	8259	656849	0	0
2024-05-10 15:10:32			0	36026	0	0	0	18950	17600	141641	27531	969340	39089	106911	0	0	8259	657160	0	0
2024-05-10 15:11:32			0	36011	0	0	0	18948	17600	141605	27410	969322	39079	106910	0	0	8258	657828	0	0
2024-05-10 15:12:32			0	36013	0	0	0	18950	17590	141605	27365	969332	39079	106911	0	0	8258	657774	0	0
2024-05-10 15:13:32			0	36023	0	0	0	18963	17600	141661	27199	969401	39100	106916	0	0	8259	657294	0	0
2024-05-10 15:14:32			0	36015	0	0	0	18961	17610	141645	27341	969339	39081	106915	0	0	8258	657614	0	0
2024-05-10 15:15:32			0	36011	0	0	0	18974	17620	141609	27770	969373	39102	106920	0	0	8258	657756	0	0
2024-05-10 15:16:32			0	36025	0	0	0	18968	17620	141693	27493	969426	39102	106918	0	0	8259	657133	0	0
2024-05-10 15:17:32			0	36016	0	0	0	18979	17630	141733	27523	969461	39103	106922	0	0	8258	657498	0	0
2024-05-10 15:18:32			0	36024	0	0	0	18994	17630	141661	27319	969487	39114	106928	0	0	8258	657142	0	0
2024-05-10 15:19:32			0	36003	0	0	0	19002	17630	141669	27575	969514	39092	106931	0	0	8257	658077	0	0
2024-05-10 15:20:32			0	36007	0	0	0	19015	17640	141733	27486	969591	39116	106936	0	0	8257	657863	0	0
2024-05-10 15:21:32			0	36002	0	0	0	19033	17640	141753	27220	969538	39093	106943	0	0	8256	658085	0	0
2024-05-10 15:22:32			0	36013	0	0	0	19028	17650	141781	27324	969634	39093	106941	0	0	8257	657560	0	0
2024-05-10 15:23:32			0	36010	0	0	0	19033	17660	141777	27400	969616	39094	106943	0	0	8257	657658	0	0
2024-05-10 15:24:32			0	36018	0	0	0	19041	17660	141581	27578	969677	39095	106946	0	0	8257	657301	0	0
2024-05-10 15:25:32			0	36002	0	0	0	19051	17670	141689	27253	969659	39084	106950	0	0	8256	657978	0	0
2024-05-10 15:26:32			0	36001	0	0	0	19096	17680	141765	27421	969728	39107	106967	0	0	8256	657987	0	0
2024-05-10 15:27:32			0	35993	0	0	0	19142	17680	141697	27209	969948	39119	106985	0	0	8254	658343	0	0
2024-05-10 15:28:32			0	35976	0	0	0	19163	17700	141781	27899	969981	39110	106993	0	0	8253	659028	0	0
2024-05-10 15:29:32			0	36004	0	0	0	19176	17720	141817	27606	970014	39123	106998	0	0	8255	657710	0	0
2024-05-10 15:30:32			0	35993	0	0	0	19176	17730	141841	27575	970057	39124	106998	0	0	8254	658164	0	0
2024-05-10 15:31:32			0	35973	0	0	0	19181	17760	141769	27774	970125	39125	107000	0	0	8253	658947	0	0
2024-05-10 15:32:32			0	35982	0	0	0	19184	17760	141745	27379	970151	39115	107001	0	0	8253	658546	0	0
2024-05-10 15:33:32			0	35973	0	0	0	19184	17770	141849	27310	970141	39116	107001	0	0	8253	658911	0	0
2024-05-10 15:34:32			0	35976	0	0	0	19171	17780	141817	27592	970105	39127	106996	0	0	8253	658741	0	0
2024-05-10 15:35:32			0	35974	0	0	0	19163	17780	141741	27623	970166	39117	106993	0	0	8253	658831	0	0
2024-05-10 15:36:32			0	35963	0	0	0	19158	17790	141781	27708	970095	39106	106991	0	0	8253	659285	0	0
2024-05-10 15:37:32			0	35981	0	0	0	19163	17790	141801	27362	970174	39128	106993	0	0	8254	658483	0	0
2024-05-10 15:38:32			0	35966	0	0	0	19161	17790	141865	27462	970122	39128	106992	0	0	8253	659151	0	0
2024-05-10 15:39:32			0	35958	0	0	0	19161	17790	141801	27725	970183	39118	106992	0	0	8253	659508	0	0
2024-05-10 15:40:32			0	35948	0	0	0	19155	17800	141729	27504	970138	39107	106990	0	0	8252	659918	0	0
2024-05-10 15:41:32			0	35936	0	0	0	19155	17800	141833	27640	970199	39140	106990	0	0	8252	660453	0	0
2024-05-10 15:42:32			0	35960	0	0	0	19153	17800	141749	27397	970191	39118	106989	0	0	8253	659383	0	0
2024-05-10 15:43:32			0	35973	0	0	0	19145	17800	141737	27512	970173	39129	106986	0	0	8254	658803	0	0
2024-05-10 15:44:32			0	35948	0	0	0	19148	17800	141809	27320	970146	39107	106987	0	0	8252	659918	0	0
2024-05-10 15:45:32			0	35951	0	0	0	19148	17800	141761	27379	970173	39118	106987	0	0	8252	659784	0	0
2024-05-10 15:46:32			0	35953	0	0	0	19142	17810	141809	27327	970260	39119	106985	0	0	8253	659659	0	0
2024-05-10 15:47:32			0	35950	0	0	0	19158	17800	141781	27268	970199	39129	106991	0	0	8252	659828	0	0
2024-05-10 15:48:32			0	35955	0	0	0	19171	17820	141637	27606	970224	39109	106996	0	0	8252	659534	0	0
2024-05-10 15:49:32			0	35972	0	0	0	19179	17810	141761	27490	970295	39129	106999	0	0	8253	658812	0	0
2024-05-10 15:50:32			0	35958	0	0	0	19174	17820	141797	27580	970311	39142	106997	0	0	8252	659400	0	0
2024-05-10 15:51:32			0	35981	0	0	0	19186	17820	141689	27417	970232	39131	107002	0	0	8254	658375	0	0
2024-05-10 15:52:32			0	35960	0	0	0	19194	17820	141781	27251	970330	39141	107005	0	0	8252	659311	0	0
2024-05-10 15:53:32			0	35962	0	0	0	19244	17830	141705	27100	970434	39122	107024	0	0	8252	659186	0	0
2024-05-10 15:54:32			0	35959	0	0	0	19280	17850	141701	27326	970493	39145	107038	0	0	8251	659248	0	0
2024-05-10 15:55:32			0	35955	0	0	0	19301	17880	141717	27237	970693	39136	107046	0	0	8250	659318	0	0
2024-05-10 15:56:32			0	35958	0	0	0	19296	17890	141725	27152	970657	39137	107044	0	0	8251	659148	0	0
2024-05-10 15:57:32			0	35974	0	0	0	19298	17890	141749	27336	970665	39137	107045	0	0	8252	658436	0	0
2024-05-10 15:58:32			0	35981	0	0	0	19314	17900	141761	27419	970761	39127	107051	0	0	8252	658088	0	0
2024-05-10 15:59:32			0	35965	0	0	0	19340	17910	141805	27182	970796	39139	107061	0	0	8250	658765	0	0
2024-05-10 16:00:32			0	35973	0	0	0	19350	17930	141781	27369	970820	39151	107065	0	0	8251	658337	0	0
2024-05-10 16:01:32			0	35959	0	0	0	19324	17940	141681	27300	970898	39130	107055	0	0	8251	658924	0	0
2024-05-10 16:02:32			0	35958	0	0	0	19322	17950	141689	27000	970888	39142	107054	0	0	8251	658933	0	0
2024-05-10 16:03:32			0	35952	0	0	0	19316	17940	141685	27126	970872	39142	107052	0	0	8250	659236	0	0
2024-05-10 16:04:32			0	35953	0	0	0	19285	17940	141597	27388	970792	39142	107040	0	0	8251	659192	0	0
2024-05-10 16:05:32			0	35968	0	0	0	19272	17950	141689	27206	970729	39131	107035	0	0	8252	658488	0	0
2024-05-10 16:06:32			0	35967	0	0	0	19244	17960	141657	27569	970711	39143	107024	0	0	8252	658496	0	0
2024-05-10 16:07:32			0	35967	0	0	0	19215	17940	141633	27291	970652	39130	107013	0	0	8253	658568	0	0
2024-05-10 16:08:32			0	35972	0	0	0	19202	17930	141649	27331	970617	39119	107008	0	0	8253	658381	0	0
2024-05-10 16:09:32			0	35955	0	0	0	19197	17930	141561	27687	970564	39119	107006	0	0	8252	659138	0	0
2024-05-10 16:10:32			0	35972	0	0	0	19199	17930	141557	27303	970582	39129	107007	0	0	8253	658381	0	0
2024-05-10 16:11:32			0	35967	0	0	0	19205	17920	141633	27663	970601	39129	107009	0	0	8253	658640	0	0
2024-05-10 16:12:32			0	35968	0	0	0	19199	17900	141629	27357	970541	39137	107007	0	0	8253	658667	0	0
2024-05-10 16:13:32			0	35987	0	0	0	19194	17910	141601	27774	970505	39128	107005	0	0	8254	657785	0	0
2024-05-10 16:14:32			0	35974	0	0	0	19186	17910	141701	27395	970452	39118	107002	0	0	8254	658364	0	0
2024-05-10 16:15:32			0	35949	0	0	0	19184	17900	141673	27445	970462	39116	107001	0	0	8252	659514	0	0
2024-05-10 16:16:32			0	35949	0	0	0	19176	17900	141665	27711	970515	39126	106998	0	0	8252	659514	0	0
2024-05-10 16:17:32			0	35956	0	0	0	19192	17900	141681	27504	970523	39127	107004	0	0	8252	659202	0	0
2024-05-10 16:18:32			0	35929	0	0	0	19192	17880	141841	27190	970490	39115	107004	0	0	8251	660477	0	0
2024-05-10 16:19:32			0	35928	0	0	0	19194	17890	141885	27345	970427	39137	107005	0	0	8251	660486	0	0
2024-05-10 16:20:32			0	35908	0	0	0	19186	17890	141953	27618	970445	39137	107002	0	0	8250	661379	0	0
2024-05-10 16:21:32			0	35889	0	0	0	19161	17870	141997	27668	970368	39114	106992	0	0	8249	662300	0	0
2024-05-10 16:22:32			0	35897	0	0	0	19174	17860	142081	27364	970343	39124	106997	0	0	8249	661979	0	0
2024-05-10 16:23:32			0	35875	0	0	0	19171	17840	142069	27500	970318	39123	106996	0	0	8248	663035	0	0
2024-05-10 16:24:32			0	35863	0	0	0	19174	17860	142100	27706	970343	39112	106997	0	0	8248	663500	0	0
2024-05-10 16:25:32			0	35845	0	0	0	19179	17860	142204	28048	970317	39124	106999	0	0	8246	664306	0	0
2024-05-10 16:26:32			0	35822	0	0	0	19181	17850	142216	27706	970308	39134	107000	0	0	8245	665374	0	0
2024-05-10 16:27:32			0	35803	0	0	0	19176	17860	142232	27407	970422	39124	106998	0	0	8244	666190	0	0
2024-05-10 16:28:32			0	35768	0	0	0	19168	17860	142356	27953	970370	39124	106995	0	0	8242	667763	0	0
2024-05-10 16:29:32			0	35763	0	0	0	19179	17850	142492	27467	970361	39124	106999	0	0	8242	668024	0	0
2024-05-10 16:30:32			0	35747	0	0	0	19166	17850	142544	27339	970334	39134	106994	0	0	8241	668744	0	0
2024-05-10 16:31:32			0	35728	0	0	0	19168	17850	142596	27248	970300	39112	106995	0	0	8240	669600	0	0
2024-05-10 16:32:32			0	35704	0	0	0	19153	17840	142696	27424	970344	39123	106989	0	0	8239	670719	0	0
2024-05-10 16:33:32			0	35687	0	0	0	19153	17850	142716	27731	970273	39112	106989	0	0	8238	671450	0	0
2024-05-10 16:34:32			0	35673	0	0	0	19142	17840	142852	27708	970257	39111	106985	0	0	8238	672119	0	0
2024-05-10 16:35:32			0	35651	0	0	0	19142	17830	142836	27383	970240	39121	106985	0	0	8236	673151	0	0
2024-05-10 16:36:32			0	35637	0	0	0	19129	17830	142988	27649	970249	39122	106980	0	0	8236	673784	0	0
2024-05-10 16:37:32			0	35611	0	0	0	19135	17830	142988	27317	970214	39110	106982	0	0	8234	674962	0	0
2024-05-10 16:38:32			0	35591	0	0	0	19127	17820	143064	27656	970197	39109	106979	0	0	8233	675906	0	0
2024-05-10 16:39:32			0	35587	0	0	0	19088	17820	143260	27398	970197	39098	106964	0	0	8234	676087	0	0
2024-05-10 16:40:32			0	35564	0	0	0	19083	17810	143248	27725	970110	39119	106962	0	0	8233	677169	0	0
2024-05-10 16:41:32			0	35567	0	0	0	19106	17800	143320	27509	970093	39107	106971	0	0	8232	677069	0	0
2024-05-10 16:42:32			0	35565	0	0	0	19111	17790	143328	27737	970103	39106	106973	0	0	8232	677197	0	0
2024-05-10 16:43:32			0	35552	0	0	0	19124	17790	143392	27239	970077	39106	106978	0	0	8231	677788	0	0
2024-05-10 16:44:32			0	35514	0	0	0	19124	17800	143380	27609	970138	39118	106978	0	0	8229	679480	0	0
2024-05-10 16:45:32			0	35494	0	0	0	19127	17800	143600	27609	970164	39118	106979	0	0	8228	680392	0	0
2024-05-10 16:46:32			0	35484	0	0	0	19122	17800	143604	27604	970164	39118	106977	0	0	8227	680848	0	0
2024-05-10 16:47:32			0	35473	0	0	0	19114	17800	143776	27666	970226	39118	106974	0	0	8227	681350	0	0
2024-05-10 16:48:32			0	35443	0	0	0	19122	17800	143688	27718	970164	39118	106977	0	0	8225	682720	0	0
2024-05-10 16:49:32			0	35439	0	0	0	19137	17800	143804	27661	970191	39096	106983	0	0	8225	682903	0	0
2024-05-10 16:50:32			0	35411	0	0	0	19145	17800	143932	27277	970226	39096	106986	0	0	8223	684184	0	0
2024-05-10 16:51:32			0	35341	0	0	0	19145	17800	144088	27479	970199	39118	106986	0	0	8219	687395	0	0
2024-05-10 16:52:32			0	35335	0	0	0	19158	17810	144212	27518	970287	39129	106991	0	0	8219	687633	0	0
2024-05-10 16:53:32			0	35275	0	0	0	19171	17810	144304	27388	970260	39119	106996	0	0	8215	690394	0	0
2024-05-10 16:54:32			0	35273	0	0	0	19166	17810	144416	27607	970295	39119	106994	0	0	8215	690486	0	0
2024-05-10 16:55:32			0	35241	0	0	0	19174	17820	144548	27587	970330	39120	106997	0	0	8213	691925	0	0
2024-05-10 16:56:32			0	35227	0	0	0	19186	17820	144744	27751	970330	39141	107002	0	0	8212	692571	0	0
2024-05-10 16:57:32			0	35186	0	0	0	19215	17830	144844	27441	970425	39142	107013	0	0	8210	694429	0	0
2024-05-10 16:58:32			0	35167	0	0	0	19267	17830	144944	27831	970487	39143	107033	0	0	8208	695309	0	0
2024-05-10 16:59:32			0	35152	0	0	0	19275	17850	145028	27523	970705	39156	107036	0	0	8207	695929	0	0
2024-05-10 17:00:32			0	35136	0	0	0	19262	17890	145080	27443	970763	39137	107031	0	0	8206	696519	0	0
2024-05-10 17:01:32			0	35117	0	0	0	19329	17890	145156	27757	970797	39148	107057	0	0	8204	697401	0	0
2024-05-10 17:02:32			0	35098	0	0	0	19405	17930	145107	27585	971032	39151	107086	0	0	8202	698131	0	0
2024-05-10 17:03:32			0	35078	0	0	0	19436	17950	145371	27703	971205	39165	107098	0	0	8200	698984	0	0
2024-05-10 17:04:32			0	35066	0	0	0	19410	17980	145303	27691	971228	39166	107088	0	0	8200	699428	0	0
2024-05-10 17:05:32			0	35042	0	0	0	19361	18000	145439	27455	971182	39159	107069	0	0	8200	700469	0	0
2024-05-10 17:06:32			0	35029	0	0	0	19353	18000	145319	27417	971235	39148	107066	0	0	8199	701075	0	0
2024-05-10 17:07:32			0	35013	0	0	0	19368	18010	145419	27460	971164	39148	107072	0	0	8198	701783	0	0
2024-05-10 17:08:32			0	34997	0	0	0	19368	18010	145471	27431	971278	39136	107072	0	0	8197	702529	0	0
2024-05-10 17:09:32			0	35001	0	0	0	19397	18020	145559	27684	971313	39160	107083	0	0	8197	702304	0	0
2024-05-10 17:10:32			0	34982	0	0	0	19420	18040	145579	27916	971425	39150	107092	0	0	8196	703115	0	0
2024-05-10 17:11:32			0	35010	0	0	0	19444	18060	145503	27718	971432	39163	107101	0	0	8197	701731	0	0
2024-05-10 17:12:32			0	34983	0	0	0	19470	18060	145407	27739	971440	39164	107111	0	0	8195	702991	0	0
2024-05-10 17:13:32			0	34980	0	0	0	19472	18080	145535	27786	971465	39165	107112	0	0	8195	703054	0	0
2024-05-10 17:14:32			0	35000	0	0	0	19475	18080	145375	27540	971518	39154	107113	0	0	8196	702121	0	0
2024-05-10 17:15:32			0	35001	0	0	0	19477	18080	145391	27815	971447	39166	107114	0	0	8196	702074	0	0
2024-05-10 17:16:32			0	35006	0	0	0	19477	18080	145447	27932	971500	39154	107114	0	0	8196	701841	0	0
2024-05-10 17:17:32			0	35003	0	0	0	19485	18090	145383	27274	971463	39177	107117	0	0	8196	701943	0	0
2024-05-10 17:18:32			0	34991	0	0	0	19490	18090	145343	27415	971481	39177	107119	0	0	8195	702503	0	0
2024-05-10 17:19:32			0	35004	0	0	0	19485	18090	145315	27369	971516	39166	107117	0	0	8196	701896	0	0
2024-05-10 17:20:32			0	35007	0	0	0	19470	18100	145275	27701	971498	39166	107111	0	0	8197	701718	0	0
2024-05-10 17:21:32			0	35009	0	0	0	19462	18110	145335	27360	971462	39157	107108	0	0	8197	701586	0	0
2024-05-10 17:22:32			0	34980	0	0	0	19449	18100	145295	27466	971506	39156	107103	0	0	8195	702978	0	0
2024-05-10 17:23:32			0	35017	0	0	0	19449	18100	145395	27876	971453	39156	107103	0	0	8198	701252	0	0
2024-05-10 17:24:32			0	35021	0	0	0	19451	18110	145355	27483	971488	39167	107104	0	0	8198	701027	0	0
2024-05-10 17:25:32			0	35019	0	0	0	19431	18100	145307	27445	971374	39156	107096	0	0	8198	701158	0	0
2024-05-10 17:26:32			0	35020	0	0	0	19441	18100	145199	27583	971427	39145	107100	0	0	8198	701112	0	0
2024-05-10 17:27:32			0	35049	0	0	0	19436	18080	145179	27407	971367	39154	107098	0	0	8199	699838	0	0
2024-05-10 17:28:32			0	35061	0	0	0	19423	18090	145115	27530	971402	39155	107093	0	0	8200	699241	0	0
2024-05-10 17:29:32			0	35071	0	0	0	19431	18100	145107	27611	971427	39166	107096	0	0	8201	698738	0	0
2024-05-10 17:30:32			0	35076	0	0	0	19444	18090	145067	27533	971357	39155	107101	0	0	8201	698544	0	0
2024-05-10 17:31:32			0	35073	0	0	0	19438	18090	144963	27312	971376	39166	107099	0	0	8201	698683	0	0
2024-05-10 17:32:32			0	35084	0	0	0	19425	18090	145027	27352	971437	39177	107094	0	0	8202	698172	0	0
2024-05-10 17:33:32			0	35111	0	0	0	19423	18090	144895	27284	971376	39144	107093	0	0	8203	696919	0	0
2024-05-10 17:34:32			0	35112	0	0	0	19418	18090	144863	27348	971376	39144	107091	0	0	8203	696872	0	0
2024-05-10 17:35:32			0	35119	0	0	0	19405	18090	144836	27353	971402	39155	107086	0	0	8204	696548	0	0
2024-05-10 17:36:32			0	35134	0	0	0	19405	18080	144800	27426	971333	39165	107086	0	0	8205	695890	0	0
2024-05-10 17:37:32			0	35143	0	0	0	19415	18080	144760	27329	971314	39166	107090	0	0	8205	695473	0	0
2024-05-10 17:38:32			0	35170	0	0	0	19402	18080	144620	27445	971394	39166	107085	0	0	8207	694223	0	0
2024-05-10 17:39:32			0	35202	0	0	0	19394	18080	144512	27396	971359	39142	107082	0	0	8209	692744	0	0
2024-05-10 17:40:32			0	35227	0	0	0	19389	18070	144508	27473	971324	39154	107080	0	0	8210	691628	0	0
2024-05-10 17:41:32			0	35230	0	0	0	19392	18060	144528	27369	971255	39153	107081	0	0	8210	691527	0	0
2024-05-10 17:42:32			0	35236	0	0	0	19392	18060	144468	27291	971255	39153	107081	0	0	8210	691251	0	0
2024-05-10 17:43:32			0	35268	0	0	0	19392	18060	144448	27263	971220	39163	107081	0	0	8212	689776	0	0
2024-05-10 17:44:32			0	35255	0	0	0	19374	18070	144260	27434	971316	39154	107074	0	0	8212	690337	0	0
2024-05-10 17:45:32			0	35290	0	0	0	19374	18060	144244	27400	971281	39164	107074	0	0	8214	688764	0	0
2024-05-10 17:46:32			0	35286	0	0	0	19376	18050	144204	27275	971212	39151	107075	0	0	8213	688985	0	0
2024-05-10 17:47:32			0	35285	0	0	0	19361	18050	144248	27409	971238	39151	107069	0	0	8214	689031	0	0
2024-05-10 17:48:32			0	35298	0	0	0	19366	18040	144296	27352	971187	39150	107071	0	0	8214	688471	0	0
2024-05-10 17:49:32			0	35277	0	0	0	19366	18050	144316	27157	971177	39151	107071	0	0	8213	689399	0	0
2024-05-10 17:50:32			0	35284	0	0	0	19361	18040	144348	27150	971161	39150	107069	0	0	8214	689115	0	0
2024-05-10 17:51:32			0	35258	0	0	0	19366	18030	144340	27495	971179	39171	107071	0	0	8212	690350	0	0
2024-05-10 17:52:32			0	35254	0	0	0	19358	18040	144368	27293	971187	39150	107068	0	0	8212	690496	0	0
2024-05-10 17:53:32			0	35259	0	0	0	19350	18020	144444	27447	971136	39160	107065	0	0	8212	690341	0	0
2024-05-10 17:54:32			0	35248	0	0	0	19361	18020	144456	27196	971083	39138	107069	0	0	8211	690848	0	0
2024-05-10 17:55:32			0	35209	0	0	0	19358	18030	144536	27422	971171	39149	107068	0	0	8209	692610	0	0
2024-05-10 17:56:32			0	35201	0	0	0	19345	18030	144612	27353	971100	39160	107063	0	0	8209	692979	0	0
2024-05-10 17:57:32			0	35170	0	0	0	19342	18030	144760	27303	971118	39160	107062	0	0	8207	694413	0	0
2024-05-10 17:58:32			0	35160	0	0	0	19335	18020	144804	27296	971075	39148	107059	0	0	8207	694914	0	0
2024-05-10 17:59:32			0	35144	0	0	0	19324	18010	144800	27474	970961	39148	107055	0	0	8206	695692	0	0
2024-05-10 18:00:32			0	35116	0	0	0	19322	18000	144984	27369	970971	39148	107054	0	0	8205	697029	0	0
2024-05-10 18:01:32			0	35087	0	0	0	19322	18010	144983	27041	971014	39148	107054	0	0	8203	698337	0	0
2024-05-10 18:02:32			0	35066	0	0	0	19316	17990	145147	27308	970981	39135	107052	0	0	8202	699390	0	0
2024-05-10 18:03:32			0	35071	0	0	0	19311	17990	145259	27007	970954	39146	107050	0	0	8202	699158	0	0
2024-05-10 18:04:32			0	35060	0	0	0	19316	17990	145263	27289	970946	39156	107052	0	0	8202	699669	0	0
2024-05-10 18:05:32			0	35047	0	0	0	19303	17990	145347	27097	970973	39145	107047	0	0	8201	700275	0	0
2024-05-10 18:06:32			0	35044	0	0	0	19301	17980	145331	27279	970885	39145	107046	0	0	8201	700452	0	0
2024-05-10 18:07:32			0	35033	0	0	0	19296	17970	145383	27403	970815	39155	107044	0	0	8200	701003	0	0
2024-05-10 18:08:32			0	35032	0	0	0	19296	17980	145387	27481	970850	39145	107044	0	0	8200	701011	0	0
2024-05-10 18:09:32			0	35024	0	0	0	19293	17970	145447	27384	970815	39155	107043	0	0	8200	701423	0	0
2024-05-10 18:10:32			0	35007	0	0	0	19290	17970	145351	27642	970815	39155	107042	0	0	8199	702216	0	0
2024-05-10 18:11:32			0	35010	0	0	0	19293	17970	145399	27313	970886	39132	107043	0	0	8199	702076	0	0
2024-05-10 18:12:32			0	35020	0	0	0	19306	17970	145451	27505	970860	39143	107048	0	0	8200	701609	0	0
2024-05-10 18:13:32			0	34991	0	0	0	19311	17970	145331	27367	970939	39154	107050	0	0	8198	702962	0	0
2024-05-10 18:14:32			0	35014	0	0	0	19314	17970	145371	27144	970833	39143	107051	0	0	8199	701889	0	0
2024-05-10 18:15:32			0	34997	0	0	0	19314	17970	145327	27244	970913	39154	107051	0	0	8198	702682	0	0
2024-05-10 18:16:32			0	35033	0	0	0	19314	17970	145239	27578	970868	39155	107051	0	0	8200	701003	0	0
2024-05-10 18:17:32			0	35026	0	0	0	19322	17970	145363	27093	970807	39154	107054	0	0	8200	701329	0	0
2024-05-10 18:18:32			0	35027	0	0	0	19322	17970	145275	27235	970913	39143	107054	0	0	8200	701283	0	0
2024-05-10 18:19:32			0	35012	0	0	0	19319	17960	145355	27235	970878	39143	107053	0	0	8199	702021	0	0
2024-05-10 18:20:32			0	35021	0	0	0	19319	17970	145359	27246	970895	39155	107053	0	0	8199	701563	0	0
2024-05-10 18:21:32			0	35020	0	0	0	19306	17960	145395	27381	970896	39143	107048	0	0	8199	701647	0	0
2024-05-10 18:22:32			0	35015	0	0	0	19301	17960	145379	27410	970878	39154	107046	0	0	8199	701881	0	0
2024-05-10 18:23:32			0	35037	0	0	0	19296	17960	145455	27241	970791	39166	107044	0	0	8201	700855	0	0
2024-05-10 18:24:32			0	35034	0	0	0	19285	17950	145423	27453	970835	39154	107040	0	0	8201	701033	0	0
2024-05-10 18:25:32			0	35035	0	0	0	19280	17950	145315	27194	970782	39142	107038	0	0	8201	700986	0	0
2024-05-10 18:26:32			0	35028	0	0	0	19280	17950	145395	27218	970748	39142	107038	0	0	8200	701313	0	0
2024-05-10 18:27:32			0	35034	0	0	0	19280	17950	145339	27303	970862	39154	107038	0	0	8201	701033	0	0
2024-05-10 18:28:32			0	35037	0	0	0	19290	17950	145323	27175	970853	39142	107042	0	0	8201	700893	0	0
2024-05-10 18:29:32			0	35025	0	0	0	19306	17940	145347	27161	970819	39164	107048	0	0	8200	701491	0	0
2024-05-10 18:30:32			0	35023	0	0	0	19309	17940	145347	27281	970845	39142	107049	0	0	8199	701584	0	0
2024-05-10 18:31:32			0	35019	0	0	0	19298	17950	145331	27528	970800	39153	107045	0	0	8200	701732	0	0
2024-05-10 18:32:32			0	35020	0	0	0	19280	17930	145275	27346	970829	39141	107038	0	0	8200	701762	0	0
2024-05-10 18:33:32			0	35017	0	0	0	19285	17940	145383	27433	970731	39164	107040	0	0	8200	701864	0	0
2024-05-10 18:34:32			0	35025	0	0	0	19283	17930	145327	27364	970802	39152	107039	0	0	8200	701529	0	0
2024-05-10 18:35:32			0	35009	0	0	0	19290	17930	145359	27284	970749	39152	107042	0	0	8199	702275	0	0
2024-05-10 18:36:32			0	35013	0	0	0	19303	17930	145475	27317	970723	39141	107047	0	0	8199	702089	0	0
2024-05-10 18:37:32			0	34996	0	0	0	19293	17940	145411	27138	970739	39142	107043	0	0	8198	702844	0	0
2024-05-10 18:38:32			0	35006	0	0	0	19288	17940	145423	27331	970837	39153	107041	0	0	8199	702377	0	0
2024-05-10 18:39:32			0	34988	0	0	0	19290	17940	145479	27376	970819	39153	107042	0	0	8198	703218	0	0
2024-05-10 18:40:32			0	34978	0	0	0	19277	17940	145563	27249	970810	39153	107037	0	0	8198	703685	0	0
2024-05-10 18:41:32			0	34975	0	0	0	19275	17930	145547	27396	970723	39141	107036	0	0	8197	703864	0	0
2024-05-10 18:42:32			0	34961	0	0	0	19270	17920	145555	27613	970706	39151	107034	0	0	8197	704557	0	0
2024-05-10 18:43:32			0	34933	0	0	0	19272	17930	145675	27429	970715	39140	107035	0	0	8195	705829	0	0
2024-05-10 18:44:32			0	34916	0	0	0	19262	17920	145651	27355	970706	39140	107031	0	0	8194	706664	0	0
2024-05-10 18:45:32			0	34932	0	0	0	19277	17920	145727	26935	970777	39150	107037	0	0	8195	705914	0	0
2024-05-10 18:46:32			0	34926	0	0	0	19288	17920	145787	27223	970759	39140	107041	0	0	8194	706196	0	0
2024-05-10 18:47:32			0	34911	0	0	0	19293	17920	145883	27708	970619	39150	107043	0	0	8193	706899	0	0
2024-05-10 18:48:32			0	34893	0	0	0	19275	17920	145923	27263	970706	39151	107036	0	0	8193	707743	0	0
2024-05-10 18:49:32			0	34885	0	0	0	19277	17930	145975	27267	970662	39162	107037	0	0	8192	708081	0	0
2024-05-10 18:50:32			0	34872	0	0	0	19270	17920	146099	27071	970645	39139	107034	0	0	8192	708730	0	0
2024-05-10 18:51:32			0	34864	0	0	0	19270	17920	146047	27274	970680	39162	107034	0	0	8191	709106	0	0
2024-05-10 18:52:32			0	34865	0	0	0	19264	17930	146071	27559	970688	39151	107032	0	0	8191	709020	0	0
2024-05-10 18:53:32			0	34851	0	0	0	19270	17920	146111	27377	970645	39150	107034	0	0	8190	709717	0	0
2024-05-10 18:54:32			0	34822	0	0	0	19275	17920	146119	27381	970672	39139	107036	0	0	8189	711082	0	0
2024-05-10 18:55:32			0	34832	0	0	0	19272	17910	146167	27367	970663	39161	107035	0	0	8189	710650	0	0
2024-05-10 18:56:32			0	34830	0	0	0	19277	17920	146119	27495	970645	39161	107037	0	0	8189	710705	0	0
2024-05-10 18:57:32			0	34822	0	0	0	19264	17910	146175	27024	970637	39139	107032	0	0	8189	711121	0	0
2024-05-10 18:58:32			0	34818	0	0	0	19270	17900	146251	26991	970629	39149	107034	0	0	8189	711348	0	0
2024-05-10 18:59:32			0	34817	0	0	0	19280	17910	146295	27448	970690	39139	107038	0	0	8188	711357	0	0
2024-05-10 19:00:32			0	34818	0	0	0	19272	17910	146223	27086	970769	39150	107035	0	0	8189	711310	0	0
2024-05-10 19:01:32			0	34820	0	0	0	19277	17910	146307	27150	970690	39139	107037	0	0	8189	711215	0	0
2024-05-10 19:02:32			0	34821	0	0	0	19270	17910	146263	27455	970769	39161	107034	0	0	8189	711168	0	0
2024-05-10 19:03:32			0	34824	0	0	0	19257	17920	146099	27383	970698	39161	107029	0	0	8189	710988	0	0
2024-05-10 19:04:32			0	34834	0	0	0	19264	17910	146199	27065	970663	39150	107032	0	0	8190	710556	0	0
2024-05-10 19:05:32			0	34841	0	0	0	19254	17900	146159	27554	970602	39149	107028	0	0	8190	710265	0	0
2024-05-10 19:06:32			0	34831	0	0	0	19244	17890	146119	27225	970559	39137	107024	0	0	8190	710775	0	0
2024-05-10 19:07:32			0	34846	0	0	0	19233	17900	146183	26902	970594	39137	107020	0	0	8191	710030	0	0
2024-05-10 19:08:32			0	34833	0	0	0	19238	17890	146135	27142	970525	39148	107022	0	0	8190	710681	0	0
2024-05-10 19:09:32			0	34819	0	0	0	19236	17890	146143	27227	970551	39148	107021	0	0	8189	711340	0	0
2024-05-10 19:10:32			0	34843	0	0	0	19244	17880	146167	27393	970508	39158	107024	0	0	8190	710249	0	0
2024-05-10 19:11:32			0	34835	0	0	0	19231	17880	146163	27039	970561	39147	107019	0	0	8190	710625	0	0
2024-05-10 19:12:32			0	34841	0	0	0	19238	17880	146115	27201	970516	39148	107022	0	0	8190	710343	0	0
2024-05-10 19:13:32			0	34852	0	0	0	19233	17870	146179	27079	970500	39158	107020	0	0	8191	709864	0	0
2024-05-10 19:14:32			0	34843	0	0	0	19244	17870	146087	27372	970526	39147	107024	0	0	8190	710287	0	0
2024-05-10 19:15:32			0	34848	0	0	0	19241	17870	146107	27248	970526	39147	107023	0	0	8191	710052	0	0
2024-05-10 19:16:32			0	34860	0	0	0	19231	17860	146227	27632	970483	39146	107019	0	0	8191	709526	0	0
2024-05-10 19:17:32			0	34881	0	0	0	19223	17870	146147	27339	970545	39147	107016	0	0	8193	708500	0	0
2024-05-10 19:18:32			0	34864	0	0	0	19231	17860	146099	27469	970483	39157	107019	0	0	8192	709338	0	0
2024-05-10 19:19:32			0	34846	0	0	0	19228	17860	145975	27492	970483	39146	107018	0	0	8191	710185	0	0
2024-05-10 19:20:32			0	34881	0	0	0	19228	17880	145995	27138	970535	39158	107018	0	0	8193	708461	0	0
2024-05-10 19:21:32			0	34904	0	0	0	19238	17860	145943	27211	970589	39157	107022	0	0	8194	707459	0	0
2024-05-10 19:22:32			0	34884	0	0	0	19236	17870	145983	27374	970526	39147	107021	0	0	8193	708359	0	0
2024-05-10 19:23:32			0	34903	0	0	0	19236	17860	145927	27104	970510	39146	107021	0	0	8194	707506	0	0
2024-05-10 19:24:32			0	34907	0	0	0	19233	17860	145867	27429	970457	39146	107020	0	0	8194	707318	0	0
2024-05-10 19:25:32			0	34911	0	0	0	19231	17860	145827	27445	970475	39156	107019	0	0	8194	707130	0	0
2024-05-10 19:26:32			0	34924	0	0	0	19225	17860	145883	27656	970536	39146	107017	0	0	8195	706520	0	0
2024-05-10 19:27:32			0	34942	0	0	0	19225	17850	145831	27190	970520	39145	107017	0	0	8196	705715	0	0
2024-05-10 19:28:32			0	34940	0	0	0	19223	17870	145859	27138	970500	39147	107016	0	0	8196	705732	0	0
2024-05-10 19:29:32			0	34946	0	0	0	19220	17860	145803	27339	970502	39124	107015	0	0	8196	705489	0	0
2024-05-10 19:30:32			0	34947	0	0	0	19218	17850	145715	27251	970414	39134	107014	0	0	8196	705481	0	0
2024-05-10 19:31:32			0	34968	0	0	0	19218	17850	145711	27281	970406	39144	107014	0	0	8198	704498	0	0
2024-05-10 19:32:32			0	34978	0	0	0	19207	17840	145799	27272	970442	39132	107010	0	0	8198	704069	0	0
2024-05-10 19:33:32			0	34977	0	0	0	19207	17850	145723	27147	970406	39144	107010	0	0	8198	704077	0	0
2024-05-10 19:34:32			0	34994	0	0	0	19197	17840	145643	27319	970371	39133	107006	0	0	8199	703321	0	0
2024-05-10 19:35:32			0	34985	0	0	0	19184	17840	145607	27220	970397	39144	107001	0	0	8199	703741	0	0
2024-05-10 19:36:32			0	34983	0	0	0	19166	17840	145555	27128	970363	39122	106994	0	0	8199	703835	0	0
2024-05-10 19:37:32			0	35002	0	0	0	19161	17830	145515	27168	970320	39153	106992	0	0	8200	702985	0	0
2024-05-10 19:38:32			0	35022	0	0	0	19174	17830	145467	27118	970346	39131	106997	0	0	8201	702051	0	0
2024-05-10 19:39:32			0	35024	0	0	0	19184	17810	145471	27327	970321	39141	107001	0	0	8201	702035	0	0
2024-05-10 19:40:32			0	35025	0	0	0	19192	17830	145355	27469	970346	39131	107004	0	0	8201	701911	0	0
2024-05-10 19:41:32			0	35058	0	0	0	19205	17820	145319	27403	970338	39131	107009	0	0	8203	700411	0	0
2024-05-10 19:42:32			0	35061	0	0	0	19205	17820	145375	27523	970330	39130	107009	0	0	8203	700271	0	0
2024-05-10 19:43:32			0	35077	0	0	0	19197	17820	145247	27365	970338	39131	107006	0	0	8204	699526	0	0
2024-05-10 19:44:32			0	35055	0	0	0	19205	17820	145407	27414	970303	39141	107009	0	0	8202	700551	0	0
2024-05-10 19:45:32			0	35064	0	0	0	19207	17830	145235	27104	970346	39142	107010	0	0	8203	700094	0	0
2024-05-10 19:46:32			0	35072	0	0	0	19202	17830	145239	27343	970293	39142	107008	0	0	8204	699721	0	0
2024-05-10 19:47:32			0	35081	0	0	0	19210	17820	145219	27502	970338	39142	107011	0	0	8204	699340	0	0
2024-05-10 19:48:32			0	35094	0	0	0	19202	17820	145147	27424	970311	39142	107008	0	0	8205	698736	0	0
2024-05-10 19:49:32			0	35086	0	0	0	19186	17820	145299	27300	970285	39131	107002	0	0	8205	699108	0	0
2024-05-10 19:50:32			0	35099	0	0	0	19179	17810	145223	27327	970295	39129	106999	0	0	8205	698541	0	0
2024-05-10 19:51:32			0	35093	0	0	0	19189	17810	145195	27829	970287	39141	107003	0	0	8205	698820	0	0
2024-05-10 19:52:32			0	35086	0	0	0	19192	17820	145143	27686	970303	39141	107004	0	0	8204	699108	0	0
2024-05-10 19:53:32			0	35114	0	0	0	19199	17810	145207	27358	970366	39129	107007	0	0	8206	697844	0	0
2024-05-10 19:54:32			0	35093	0	0	0	19199	17810	145215	27346	970295	39141	107007	0	0	8205	698820	0	0
2024-05-10 19:55:32			0	35112	0	0	0	19197	17810	145111	27417	970268	39141	107006	0	0	8206	697937	0	0
2024-05-10 19:56:32			0	35118	0	0	0	19192	17820	145136	27322	970330	39153	107004	0	0	8206	697620	0	0
2024-05-10 19:57:32			0	35110	0	0	0	19192	17820	145195	27485	970232	39153	107004	0	0	8206	697992	0	0
2024-05-10 19:58:32			0	35119	0	0	0	19179	17810	145008	27365	970268	39152	106999	0	0	8206	697612	0	0
2024-05-10 19:59:32			0	35118	0	0	0	19179	17810	145060	27152	970374	39141	106999	0	0	8206	697658	0	0
2024-05-10 20:00:32			0	35121	0	0	0	19181	17810	145052	27409	970242	39129	107000	0	0	8207	697519	0	0
2024-05-10 20:01:32			0	35126	0	0	0	19184	17810	145112	27216	970268	39129	107001	0	0	8207	697287	0	0
2024-05-10 20:02:32			0	35139	0	0	0	19181	17800	145024	27322	970244	39151	107000	0	0	8207	696721	0	0
2024-05-10 20:03:32			0	35153	0	0	0	19181	17810	144900	27364	970260	39129	107000	0	0	8208	696034	0	0
2024-05-10 20:04:32			0	35156	0	0	0	19176	17790	144952	27301	970262	39139	106998	0	0	8208	695971	0	0
2024-05-10 20:05:32			0	35151	0	0	0	19181	17800	144968	27192	970244	39140	107000	0	0	8208	696165	0	0
2024-05-10 20:06:32			0	35131	0	0	0	19168	17790	145068	27249	970183	39128	106995	0	0	8207	697131	0	0
2024-05-10 20:07:32			0	35151	0	0	0	19163	17800	144928	27802	970244	39151	106993	0	0	8208	696165	0	0
2024-05-10 20:08:32			0	35145	0	0	0	19153	17790	144908	27183	970236	39150	106989	0	0	8208	696481	0	0
2024-05-10 20:09:32			0	35145	0	0	0	19153	17800	144920	27242	970199	39140	106989	0	0	8208	696443	0	0
2024-05-10 20:10:32			0	35134	0	0	0	19153	17790	144920	27447	970209	39139	106989	0	0	8208	696991	0	0
2024-05-10 20:11:32			0	35141	0	0	0	19155	17780	144992	27163	970193	39149	106990	0	0	8208	696704	0	0
2024-05-10 20:12:32			0	35146	0	0	0	19137	17790	144988	27334	970183	39139	106983	0	0	8209	696434	0	0
2024-05-10 20:13:32			0	35140	0	0	0	19129	17800	145016	27360	970138	39118	106980	0	0	8208	696675	0	0
2024-05-10 20:14:32			0	35150	0	0	0	19124	17780	144952	27679	970105	39138	106978	0	0	8209	696287	0	0
2024-05-10 20:15:32			0	35154	0	0	0	19116	17770	144964	27107	970123	39137	106975	0	0	8209	696139	0	0
2024-05-10 20:16:32			0	35145	0	0	0	19101	17770	144928	27272	970097	39126	106969	0	0	8209	696557	0	0
2024-05-10 20:17:32			0	35159	0	0	0	19109	17770	144924	27443	970044	39137	106972	0	0	8210	695907	0	0
2024-05-10 20:18:32			0	35147	0	0	0	19098	17770	144824	27310	970097	39137	106968	0	0	8209	696464	0	0
2024-05-10 20:19:32			0	35162	0	0	0	19106	17760	144868	27133	970019	39125	106971	0	0	8210	695806	0	0
2024-05-10 20:20:32			0	35165	0	0	0	19103	17760	144828	27282	969993	39136	106970	0	0	8210	695667	0	0
2024-05-10 20:21:32			0	35181	0	0	0	19103	17750	144760	27246	969958	39135	106970	0	0	8211	694964	0	0
2024-05-10 20:22:32			0	35192	0	0	0	19093	17750	144820	27248	969950	39135	106966	0	0	8212	694454	0	0
2024-05-10 20:23:32			0	35185	0	0	0	19090	17750	144804	27194	970011	39114	106965	0	0	8211	694778	0	0
2024-05-10 20:24:32			0	35173	0	0	0	19083	17730	144724	27319	969917	39124	106962	0	0	8211	695410	0	0
2024-05-10 20:25:32			0	35186	0	0	0	19080	17730	144724	27227	969890	39124	106961	0	0	8211	694808	0	0
2024-05-10 20:26:32			0	35201	0	0	0	19070	17720	144700	27251	969882	39133	106957	0	0	8212	694151	0	0
2024-05-10 20:27:32			0	35199	0	0	0	19062	17720	144676	27443	969829	39133	106954	0	0	8212	694244	0	0
2024-05-10 20:28:32			0	35211	0	0	0	19051	17710	144628	27483	969786	39122	106950	0	0	8213	693726	0	0
2024-05-10 20:29:32			0	35212	0	0	0	19028	17710	144576	27261	969786	39132	106941	0	0	8214	693680	0	0
2024-05-10 20:30:32			0	35221	0	0	0	19007	17700	144616	27604	969796	39121	106933	0	0	8214	693301	0	0
2024-05-10 20:31:32			0	35225	0	0	0	18968	17700	144528	27265	969709	39120	106918	0	0	8215	693117	0	0
2024-05-10 20:32:32			0	35233	0	0	0	18961	17690	144532	27353	969718	39119	106915	0	0	8216	692784	0	0
2024-05-10 20:33:32			0	35244	0	0	0	18935	17680	144452	27289	969525	39108	106905	0	0	8217	692314	0	0
2024-05-10 20:34:32			0	35269	0	0	0	18914	17650	144392	27003	969502	39093	106897	0	0	8218	691273	0	0
2024-05-10 20:35:32			0	35278	0	0	0	18906	17650	144384	27597	969476	39093	106894	0	0	8219	690858	0	0
2024-05-10 20:36:32			0	35285	0	0	0	18883	17640	144348	27569	969485	39105	106885	0	0	8220	690572	0	0
2024-05-10 20:37:32			0	35316	0	0	0	18838	17640	144320	27317	969345	39104	106868	0	0	8222	689144	0	0
2024-05-10 20:38:32			0	35318	0	0	0	18812	17600	144232	27467	969163	39089	106858	0	0	8223	689202	0	0
2024-05-10 20:39:32			0	35340	0	0	0	18807	17590	144144	27263	969112	39099	106856	0	0	8224	688227	0	0
2024-05-10 20:40:32			0	35354	0	0	0	18807	17570	144032	27298	969053	39076	106856	0	0	8225	687658	0	0
2024-05-10 20:41:32			0	35382	0	0	0	18818	17570	144000	27450	969106	39098	106860	0	0	8226	686372	0	0
2024-05-10 20:42:32			0	35424	0	0	0	18844	17540	143796	27100	969038	39095	106870	0	0	8228	684558	0	0
2024-05-10 20:43:32			0	35428	0	0	0	18851	17540	143812	27140	969144	39095	106873	0	0	8228	684374	0	0
2024-05-10 20:44:32			0	35425	0	0	0	18844	17540	143824	27036	969038	39106	106870	0	0	8228	684512	0	0
2024-05-10 20:45:32			0	35426	0	0	0	18838	17540	143836	27244	969056	39094	106868	0	0	8228	684466	0	0
2024-05-10 20:46:32			0	35463	0	0	0	18807	17520	143744	27121	968926	39093	106856	0	0	8230	682846	0	0
2024-05-10 20:47:32			0	35478	0	0	0	18779	17520	143672	27203	968952	39083	106845	0	0	8232	682161	0	0
2024-05-10 20:48:32			0	35477	0	0	0	18771	17510	143592	27390	968954	39093	106842	0	0	8232	682244	0	0
2024-05-10 20:49:32			0	35483	0	0	0	18766	17490	143676	27334	968823	39081	106840	0	0	8232	682044	0	0
2024-05-10 20:50:32			0	35493	0	0	0	18792	17490	143636	27284	968903	39081	106850	0	0	8232	681587	0	0
2024-05-10 20:51:32			0	35484	0	0	0	18774	17470	143612	27291	968764	39078	106843	0	0	8232	682072	0	0
2024-05-10 20:52:32			0	35503	0	0	0	18748	17470	143532	27483	968782	39067	106833	0	0	8233	681204	0	0
2024-05-10 20:53:32			0	35512	0	0	0	18729	17460	143472	27433	968642	39067	106826	0	0	8234	680830	0	0
2024-05-10 20:54:32			0	35509	0	0	0	18711	17450	143512	27372	968652	39087	106819	0	0	8234	681004	0	0
2024-05-10 20:55:32			0	35530	0	0	0	18719	17440	143456	27293	968548	39076	106822	0	0	8235	680083	0	0
2024-05-10 20:56:32			0	35530	0	0	0	18722	17430	143448	27694	968558	39064	106823	0	0	8235	680120	0	0
2024-05-10 20:57:32			0	35545	0	0	0	18732	17420	143428	27286	968576	39075	106827	0	0	8236	679473	0	0
2024-05-10 20:58:32			0	35543	0	0	0	18732	17410	143428	27376	968559	39094	106827	0	0	8236	679601	0	0
2024-05-10 20:59:32			0	35572	0	0	0	18732	17410	143396	27270	968559	39083	106827	0	0	8237	678280	0	0
2024-05-10 21:00:32			0	35561	0	0	0	18732	17410	143448	27116	968506	39073	106827	0	0	8237	678781	0	0
2024-05-10 21:01:32			0	35561	0	0	0	18729	17410	143452	27131	968578	39083	106826	0	0	8237	678781	0	0
2024-05-10 21:02:32			0	35567	0	0	0	18732	17390	143424	27043	968526	39071	106827	0	0	8237	678582	0	0
2024-05-10 21:03:32			0	35559	0	0	0	18722	17390	143492	26942	968474	39071	106823	0	0	8237	678946	0	0
2024-05-10 21:04:32			0	35579	0	0	0	18732	17400	143436	26979	968464	39083	106827	0	0	8238	677998	0	0
2024-05-10 21:05:32			0	35577	0	0	0	18727	17390	143348	26991	968518	39070	106825	0	0	8237	678126	0	0
2024-05-10 21:06:32			0	35561	0	0	0	18724	17390	143392	27232	968492	39082	106824	0	0	8237	678855	0	0
2024-05-10 21:07:32			0	35583	0	0	0	18711	17380	143476	27078	968563	39082	106819	0	0	8238	677890	0	0
2024-05-10 21:08:32			0	35584	0	0	0	18701	17390	143420	27419	968518	39082	106815	0	0	8238	677808	0	0
2024-05-10 21:09:32			0	35569	0	0	0	18709	17390	143420	27350	968447	39082	106818	0	0	8237	678490	0	0
2024-05-10 21:10:32			0	35576	0	0	0	18688	17380	143384	27327	968431	39059	106810	0	0	8238	678209	0	0
2024-05-10 21:11:32			0	35587	0	0	0	18620	17370	143396	27327	968248	39069	106784	0	0	8240	677745	0	0
2024-05-10 21:12:32			0	35576	0	0	0	18589	17360	143416	27209	968284	39069	106772	0	0	8240	678282	0	0
2024-05-10 21:13:32			0	35584	0	0	0	18589	17350	143316	27133	968222	39079	106772	0	0	8240	677955	0	0
2024-05-10 21:14:32			0	35577	0	0	0	18584	17330	143252	27144	968163	39066	106770	0	0	8240	678348	0	0
2024-05-10 21:15:32			0	35606	0	0	0	18561	17310	143380	27194	968138	39053	106761	0	0	8241	677102	0	0
2024-05-10 21:16:32			0	35605	0	0	0	18480	17300	143188	27445	968069	39063	106730	0	0	8243	677184	0	0
2024-05-10 21:17:32			0	35617	0	0	0	18483	17300	143164	27003	967937	39052	106731	0	0	8243	676638	0	0
2024-05-10 21:18:32			0	35616	0	0	0	18483	17290	143208	27234	967992	39041	106731	0	0	8243	676720	0	0
2024-05-10 21:19:32			0	35634	0	0	0	18444	17280	143216	27164	967878	39051	106716	0	0	8245	675940	0	0
2024-05-10 21:20:32			0	35630	0	0	0	18420	17250	143200	27371	967749	39048	106707	0	0	8245	676231	0	0
2024-05-10 21:21:32			0	35637	0	0	0	18441	17250	143204	27086	967767	39037	106715	0	0	8245	675913	0	0
2024-05-10 21:22:32			0	35648	0	0	0	18418	17230	143184	27561	967742	39045	106706	0	0	8246	675487	0	0
2024-05-10 21:23:32			0	35669	0	0	0	18410	17230	143092	27422	967742	39045	106703	0	0	8247	674535	0	0
2024-05-10 21:24:32			0	35666	0	0	0	18402	17200	143064	27279	967667	39043	106700	0	0	8247	674780	0	0
2024-05-10 21:25:32			0	35670	0	0	0	18436	17200	143140	27327	967658	39043	106713	0	0	8247	674599	0	0
2024-05-10 21:26:32			0	35662	0	0	0	18480	17200	143108	27249	967606	39033	106730	0	0	8245	674962	0	0
2024-05-10 21:27:32			0	35670	0	0	0	18516	17190	143136	27536	967695	39032	106744	0	0	8245	674636	0	0
2024-05-10 21:28:32			0	35654	0	0	0	18532	17200	143324	27287	967790	39054	106750	0	0	8244	675325	0	0
2024-05-10 21:29:32			0	35633	0	0	0	18532	17200	143228	27421	967817	39054	106750	0	0	8243	676279	0	0
2024-05-10 21:30:32			0	35634	0	0	0	18550	17210	143352	27118	967780	39055	106757	0	0	8243	676197	0	0
2024-05-10 21:31:32			0	35618	0	0	0	18540	17200	143372	27211	967738	39054	106753	0	0	8242	676961	0	0
2024-05-10 21:32:32			0	35609	0	0	0	18498	17200	143352	27402	967711	39043	106737	0	0	8242	677370	0	0
2024-05-10 21:33:32			0	35616	0	0	0	18485	17180	143352	27256	967581	39041	106732	0	0	8243	677125	0	0
2024-05-10 21:34:32			0	35608	0	0	0	18477	17170	143328	27409	967538	39041	106729	0	0	8242	677526	0	0
2024-05-10 21:35:32			0	35590	0	0	0	18503	17180	143504	27319	967599	39041	106739	0	0	8241	678308	0	0
2024-05-10 21:36:32			0	35578	0	0	0	18532	17180	143500	27306	967652	39052	106750	0	0	8240	678855	0	0
2024-05-10 21:37:32			0	35563	0	0	0	18587	17180	143608	27405	967810	39052	106771	0	0	8238	679538	0	0
2024-05-10 21:38:32			0	35554	0	0	0	18649	17190	143632	27144	967941	39064	106795	0	0	8237	679912	0	0
2024-05-10 21:39:32			0	35550	0	0	0	18651	17220	143620	27564	967955	39067	106796	0	0	8236	679984	0	0
2024-05-10 21:40:32			0	35534	0	0	0	18623	17230	143700	27549	967998	39068	106785	0	0	8236	680677	0	0
2024-05-10 21:41:32			0	35533	0	0	0	18610	17230	143764	27244	967954	39057	106780	0	0	8236	680723	0	0
2024-05-10 21:42:32			0	35524	0	0	0	18597	17240	143848	27653	967857	39046	106775	0	0	8236	681097	0	0
2024-05-10 21:43:32			0	35500	0	0	0	18571	17230	143740	27365	967874	39057	106765	0	0	8235	682230	0	0
2024-05-10 21:44:32			0	35499	0	0	0	18553	17220	143844	27109	967832	39045	106758	0	0	8235	682313	0	0
2024-05-10 21:45:32			0	35500	0	0	0	18571	17210	143900	27464	967780	39055	106765	0	0	8235	682304	0	0
2024-05-10 21:46:32			0	35480	0	0	0	18571	17210	143948	27462	967815	39044	106765	0	0	8234	683220	0	0
2024-05-10 21:47:32			0	35473	0	0	0	18587	17220	143964	27258	967850	39056	106771	0	0	8233	683503	0	0
2024-05-10 21:48:32			0	35468	0	0	0	18581	17210	143972	27223	967815	39044	106769	0	0	8233	683769	0	0
2024-05-10 21:49:32			0	35460	0	0	0	18599	17210	144004	27208	967894	39055	106776	0	0	8232	684135	0	0
2024-05-10 21:50:32			0	35444	0	0	0	18633	17230	144192	27483	967945	39057	106789	0	0	8231	684794	0	0
2024-05-10 21:51:32			0	35434	0	0	0	18623	17220	144092	27426	967929	39056	106785	0	0	8231	685290	0	0
2024-05-10 21:52:32			0	35427	0	0	0	18628	17230	144140	27424	967980	39045	106787	0	0	8230	685574	0	0
2024-05-10 21:53:32			0	35416	0	0	0	18612	17230	144152	27256	967980	39068	106781	0	0	8230	686079	0	0
2024-05-10 21:54:32			0	35428	0	0	0	18628	17240	144188	27537	967989	39057	106787	0	0	8230	685491	0	0
2024-05-10 21:55:32			0	35411	0	0	0	18636	17240	144136	27258	967970	39069	106790	0	0	8229	686272	0	0
2024-05-10 21:56:32			0	35408	0	0	0	18633	17240	144164	27291	967989	39057	106789	0	0	8229	686409	0	0
2024-05-10 21:57:32			0	35383	0	0	0	18638	17240	144280	27677	968023	39058	106791	0	0	8228	687558	0	0
2024-05-10 21:58:32			0	35389	0	0	0	18636	17250	144256	27483	968005	39069	106790	0	0	8228	687245	0	0
2024-05-10 21:59:32			0	35380	0	0	0	18633	17250	144352	27763	967987	39059	106789	0	0	8228	687659	0	0
2024-05-10 22:00:32			0	35357	0	0	0	18631	17240	144364	27298	968015	39069	106788	0	0	8226	688755	0	0
2024-05-10 22:01:32			0	35363	0	0	0	18615	17250	144460	27696	967987	39059	106782	0	0	8227	688441	0	0
2024-05-10 22:02:32			0	35361	0	0	0	18631	17240	144428	27370	968023	39058	106788	0	0	8227	688571	0	0
2024-05-10 22:03:32			0	35362	0	0	0	18633	17250	144444	27524	968031	39047	106789	0	0	8227	688487	0	0
2024-05-10 22:04:32			0	35335	0	0	0	18644	17260	144412	27315	967977	39071	106793	0	0	8225	689693	0	0
2024-05-10 22:05:32			0	35336	0	0	0	18657	17250	144448	27315	968005	39069	106798	0	0	8225	689685	0	0
2024-05-10 22:06:32			0	35328	0	0	0	18649	17250	144444	27286	968040	39070	106795	0	0	8224	690054	0	0
2024-05-10 22:07:32			0	35323	0	0	0	18659	17260	144496	27582	968109	39071	106799	0	0	8224	690246	0	0
2024-05-10 22:08:32			0	35343	0	0	0	18683	17270	144580	27455	968117	39071	106808	0	0	8225	689287	0	0
2024-05-10 22:09:32			0	35312	0	0	0	18677	17270	144592	27545	968091	39092	106806	0	0	8223	690716	0	0
2024-05-10 22:10:32			0	35298	0	0	0	18680	17270	144524	27519	968064	39092	106807	0	0	8222	691363	0	0
2024-05-10 22:11:32			0	35301	0	0	0	18670	17270	144572	27352	968152	39072	106803	0	0	8223	691224	0	0
2024-05-10 22:12:32			0	35311	0	0	0	18690	17270	144528	27400	968152	39072	106811	0	0	8223	690763	0	0
2024-05-10 22:13:32			0	35303	0	0	0	18698	17290	144596	27268	968203	39074	106814	0	0	8222	691057	0	0
2024-05-10 22:14:32			0	35287	0	0	0	18696	17280	144656	27623	968107	39072	106813	0	0	8222	691833	0	0
2024-05-10 22:15:32			0	35299	0	0	0	18711	17290	144680	27566	968229	39063	106819	0	0	8222	691241	0	0
2024-05-10 22:16:32			0	35267	0	0	0	18703	17290	144648	27815	968264	39052	106816	0	0	8220	692720	0	0
2024-05-10 22:17:32			0	35276	0	0	0	18680	17290	144696	27443	968238	39084	106807	0	0	8221	692304	0	0
2024-05-10 22:18:32			0	35280	0	0	0	18680	17300	144796	27673	968246	39063	106807	0	0	8221	692081	0	0
2024-05-10 22:19:32			0	35270	0	0	0	18675	17310	144652	28025	968289	39075	106805	0	0	8221	692506	0	0
2024-05-10 22:20:32			0	35259	0	0	0	18657	17300	144668	27331	968219	39074	106798	0	0	8221	693052	0	0
2024-05-10 22:21:32			0	35253	0	0	0	18646	17300	144668	27410	968228	39075	106794	0	0	8221	693330	0	0
2024-05-10 22:22:32			0	35265	0	0	0	18615	17310	144696	27486	968270	39075	106782	0	0	8222	692737	0	0
2024-05-10 22:23:32			0	35264	0	0	0	18589	17310	144712	27476	968157	39053	106772	0	0	8222	692783	0	0
2024-05-10 22:24:32			0	35261	0	0	0	18555	17290	144596	27642	968079	39074	106759	0	0	8223	692997	0	0
2024-05-10 22:25:32			0	35295	0	0	0	18532	17290	144600	27542	968044	39063	106750	0	0	8225	691426	0	0
2024-05-10 22:26:32			0	35302	0	0	0	18548	17270	144512	27509	968020	39050	106756	0	0	8225	691178	0	0
2024-05-10 22:27:32			0	35311	0	0	0	18511	17270	144520	27680	967914	39061	106742	0	0	8226	690763	0	0
2024-05-10 22:28:32			0	35339	0	0	0	18477	17260	144416	27371	967898	39039	106729	0	0	8228	689509	0	0
2024-05-10 22:29:32			0	35349	0	0	0	18480	17250	144324	27367	967828	39048	106730	0	0	8228	689086	0	0
2024-05-10 22:30:32			0	35375	0	0	0	18436	17240	144284	27386	967804	39046	106713	0	0	8231	687926	0	0
2024-05-10 22:31:32			0	35407	0	0	0	18420	17220	144116	27549	967673	39034	106707	0	0	8233	686530	0	0
2024-05-10 22:32:32			0	35403	0	0	0	18415	17200	144040	27481	967606	39022	106705	0	0	8232	686788	0	0
2024-05-10 22:33:32			0	35423	0	0	0	18397	17190	144104	27327	967536	39032	106698	0	0	8234	685907	0	0
2024-05-10 22:34:32			0	35441	0	0	0	18392	17180	143980	27216	967528	39031	106696	0	0	8235	685118	0	0
2024-05-10 22:35:32			0	35442	0	0	0	18389	17170	144012	27265	967512	39030	106695	0	0	8235	685109	0	0
2024-05-10 22:36:32			0	35474	0	0	0	18384	17150	143936	27379	967452	39028	106693	0	0	8237	683717	0	0
2024-05-10 22:37:32			0	35465	0	0	0	18389	17150	143876	27559	967497	39040	106695	0	0	8236	684129	0	0
2024-05-10 22:38:32			0	35479	0	0	0	18389	17150	143868	27687	967576	39028	106695	0	0	8237	683488	0	0
2024-05-10 22:39:32			0	35505	0	0	0	18399	17150	143920	27286	967444	39017	106699	0	0	8238	682298	0	0
2024-05-10 22:40:32			0	35505	0	0	0	18394	17130	143916	27272	967419	39016	106697	0	0	8238	682372	0	0
2024-05-10 22:41:32			0	35487	0	0	0	18384	17130	143904	27452	967306	39026	106693	0	0	8237	683196	0	0
2024-05-10 22:42:32			0	35501	0	0	0	18381	17120	143876	27261	967263	39025	106692	0	0	8238	682592	0	0
2024-05-10 22:43:32			0	35497	0	0	0	18358	17100	143864	27249	967211	39013	106683	0	0	8238	682849	0	0
2024-05-10 22:44:32			0	35503	0	0	0	18350	17090	143848	27485	967081	39022	106680	0	0	8238	682612	0	0
2024-05-10 22:45:32			0	35498	0	0	0	18345	17070	143976	26979	967136	39010	106678	0	0	8238	682915	0	0
2024-05-10 22:46:32			0	35500	0	0	0	18337	17070	143992	27578	967075	39010	106675	0	0	8238	682823	0	0
2024-05-10 22:47:32			0	35494	0	0	0	18335	17060	143804	27583	966979	39020	106674	0	0	8238	683135	0	0
2024-05-10 22:48:32			0	35492	0	0	0	18342	17040	143892	27397	966981	39008	106677	0	0	8238	683300	0	0
2024-05-10 22:49:32			0	35514	0	0	0	18329	17030	143928	27263	966999	39007	106672	0	0	8239	682331	0	0
2024-05-10 22:50:32			0	35491	0	0	0	18342	17020	143980	27358	966930	39016	106677	0	0	8238	683420	0	0
2024-05-10 22:51:32			0	35491	0	0	0	18332	17010	144048	27448	966913	39028	106673	0	0	8238	683458	0	0
2024-05-10 22:52:32			0	35490	0	0	0	18345	17020	144020	27301	966930	39016	106678	0	0	8237	683466	0	0
2024-05-10 22:53:32			0	35486	0	0	0	18348	17010	144032	27149	966939	39016	106679	0	0	8237	683687	0	0
2024-05-10 22:54:32			0	35505	0	0	0	18345	17010	144032	27237	966931	39016	106678	0	0	8238	682817	0	0
2024-05-10 22:55:32			0	35505	0	0	0	18348	17000	144072	27178	966897	39015	106679	0	0	8238	682854	0	0
2024-05-10 22:56:32			0	35499	0	0	0	18348	17000	144076	27150	967002	39004	106679	0	0	8238	683128	0	0
2024-05-10 22:57:32			0	35484	0	0	0	18358	17010	143996	27435	966984	39016	106683	0	0	8237	683778	0	0
2024-05-10 22:58:32			0	35498	0	0	0	18363	17000	144012	27402	966968	39026	106685	0	0	8238	683174	0	0
2024-05-10 22:59:32			0	35488	0	0	0	18363	17000	144028	27433	967055	39015	106685	0	0	8237	683632	0	0
2024-05-10 23:00:32			0	35480	0	0	0	18368	17000	144084	26979	967029	39026	106687	0	0	8236	683999	0	0
2024-05-10 23:01:32			0	35495	0	0	0	18381	17010	144136	27246	966958	39016	106692	0	0	8237	683274	0	0
2024-05-10 23:02:32			0	35478	0	0	0	18386	17010	144048	27095	967037	39038	106694	0	0	8236	684053	0	0
2024-05-10 23:03:32			0	35483	0	0	0	18397	17010	144136	27183	967071	39039	106698	0	0	8236	683824	0	0
2024-05-10 23:04:32			0	35479	0	0	0	18415	17010	144108	27097	967124	39039	106705	0	0	8236	684007	0	0
2024-05-10 23:05:32			0	35473	0	0	0	18431	17030	144164	27268	967281	39040	106711	0	0	8235	684208	0	0
2024-05-10 23:06:32			0	35463	0	0	0	18467	17040	144124	26935	967271	39041	106725	0	0	8234	684629	0	0
2024-05-10 23:07:32			0	35468	0	0	0	18485	17060	144096	27305	967375	39041	106732	0	0	8234	684326	0	0
2024-05-10 23:08:32			0	35453	0	0	0	18511	17060	144184	27041	967410	39053	106742	0	0	8233	685014	0	0
2024-05-10 23:09:32			0	35445	0	0	0	18537	17080	144140	27303	967461	39065	106752	0	0	8232	685306	0	0
2024-05-10 23:10:32			0	35432	0	0	0	18529	17090	144160	27279	967485	39055	106749	0	0	8231	685866	0	0
2024-05-10 23:11:32			0	35442	0	0	0	18535	17100	144244	27351	967555	39035	106751	0	0	8232	685370	0	0
2024-05-10 23:12:32			0	35452	0	0	0	18550	17100	144252	27322	967502	39045	106757	0	0	8232	684911	0	0
2024-05-10 23:13:32			0	35440	0	0	0	18548	17120	144320	27537	967561	39047	106756	0	0	8232	685387	0	0
2024-05-10 23:14:32			0	35434	0	0	0	18529	17120	144184	27107	967553	39046	106749	0	0	8232	685663	0	0
2024-05-10 23:15:32			0	35410	0	0	0	18519	17120	144200	27182	967509	39047	106745	0	0	8231	686765	0	0
2024-05-10 23:16:32			0	35420	0	0	0	18490	17120	144272	27576	967535	39058	106734	0	0	8232	686305	0	0
2024-05-10 23:17:32			0	35411	0	0	0	18470	17110	144248	27216	967465	39036	106726	0	0	8231	686756	0	0
2024-05-10 23:18:32			0	35399	0	0	0	18449	17130	144232	27395	967411	39026	106718	0	0	8231	687233	0	0
2024-05-10 23:19:32			0	35410	0	0	0	18418	17100	144332	27194	967317	39035	106706	0	0	8232	686839	0	0
2024-05-10 23:20:32			0	35434	0	0	0	18402	17090	144280	27713	967300	39022	106700	0	0	8234	685774	0	0
2024-05-10 23:21:32			0	35438	0	0	0	18410	17100	144244	27497	967335	39023	106703	0	0	8234	685553	0	0
2024-05-10 23:22:32			0	35447	0	0	0	18462	17100	144132	27274	967361	39045	106723	0	0	8234	685140	0	0
2024-05-10 23:23:32			0	35446	0	0	0	18511	17100	144112	27428	967414	39045	106742	0	0	8233	685186	0	0
2024-05-10 23:24:32			0	35467	0	0	0	18537	17110	144036	27346	967536	39045	106752	0	0	8233	684186	0	0
2024-05-10 23:25:32			0	35474	0	0	0	18576	17120	144028	27274	967553	39046	106767	0	0	8233	683828	0	0
2024-05-10 23:26:32			0	35481	0	0	0	18587	17120	144012	27324	967588	39069	106771	0	0	8233	683508	0	0
2024-05-10 23:27:32			0	35482	0	0	0	18605	17140	143992	27696	967673	39049	106778	0	0	8233	683388	0	0
2024-05-10 23:28:32			0	35490	0	0	0	18602	17140	144000	27400	967673	39071	106777	0	0	8234	683021	0	0
2024-05-10 23:29:32			0	35482	0	0	0	18615	17150	143916	27597	967734	39040	106782	0	0	8233	683351	0	0
2024-05-10 23:30:32			0	35505	0	0	0	18625	17150	143896	27336	967716	39072	106786	0	0	8234	682298	0	0
2024-05-10 23:31:32			0	35483	0	0	0	18623	17170	143800	27383	967847	39051	106785	0	0	8233	683230	0	0
2024-05-10 23:32:32			0	35488	0	0	0	18628	17180	143848	27371	967837	39075	106787	0	0	8233	682965	0	0
2024-05-10 23:33:32			0	35518	0	0	0	18641	17180	143960	27478	967837	39041	106792	0	0	8235	681593	0	0
2024-05-10 23:34:32			0	35523	0	0	0	18636	17190	143880	27069	967888	39053	106790	0	0	8235	681327	0	0
2024-05-10 23:35:32			0	35508	0	0	0	18636	17190	143760	27485	967809	39053	106790	0	0	8234	682013	0	0
2024-05-10 23:36:32			0	35518	0	0	0	18631	17190	143828	27152	967888	39075	106788	0	0	8235	681555	0	0
2024-05-10 23:37:32			0	35509	0	0	0	18649	17200	143772	27112	967957	39065	106795	0	0	8234	681930	0	0
2024-05-10 23:38:32			0	35514	0	0	0	18651	17210	143808	27383	967894	39077	106796	0	0	8234	681664	0	0
2024-05-10 23:39:32			0	35523	0	0	0	18641	17210	143768	27059	967965	39066	106792	0	0	8235	681253	0	0
2024-05-10 23:40:32			0	35529	0	0	0	18644	17210	143744	27414	967947	39077	106793	0	0	8235	680979	0	0
2024-05-10 23:41:32			0	35553	0	0	0	18646	17230	143688	27071	967972	39068	106794	0	0	8237	679810	0	0
2024-05-10 23:42:32			0	35526	0	0	0	18644	17220	143684	27341	967937	39067	106793	0	0	8235	681079	0	0
2024-05-10 23:43:32			0	35539	0	0	0	18649	17230	143684	27500	968025	39068	106795	0	0	8236	680449	0	0
2024-05-10 23:44:32			0	35535	0	0	0	18657	17230	143660	27197	967954	39079	106798	0	0	8236	680631	0	0
2024-05-10 23:45:32			0	35552	0	0	0	18651	17240	143612	27310	968041	39069	106796	0	0	8237	679819	0	0
2024-05-10 23:46:32			0	35546	0	0	0	18654	17230	143560	27100	968059	39079	106797	0	0	8236	680129	0	0
2024-05-10 23:47:32			0	35552	0	0	0	18649	17240	143616	27138	967997	39069	106795	0	0	8237	679819	0	0
2024-05-10 23:48:32			0	35572	0	0	0	18646	17240	143644	27500	968050	39069	106794	0	0	8238	678907	0	0
2024-05-10 23:49:32			0	35569	0	0	0	18649	17250	143604	27338	968084	39081	106795	0	0	8238	679007	0	0
2024-05-10 23:50:32			0	35588	0	0	0	18651	17250	143576	27218	968066	39082	106796	0	0	8239	678141	0	0
2024-05-10 23:51:32			0	35572	0	0	0	18641	17250	143504	27293	968058	39081	106792	0	0	8238	678870	0	0
2024-05-10 23:52:32			0	35575	0	0	0	18644	17240	143496	27422	967997	39069	106793	0	0	8238	678770	0	0
2024-05-10 23:53:32			0	35580	0	0	0	18657	17240	143512	27376	968076	39058	106798	0	0	8238	678542	0	0
2024-05-10 23:54:32			0	35589	0	0	0	18659	17250	143424	27388	968040	39070	106799	0	0	8239	678096	0	0
2024-05-10 23:55:32			0	35597	0	0	0	18657	17250	143496	27685	968040	39070	106798	0	0	8239	677732	0	0
2024-05-10 23:56:32			0	35581	0	0	0	18651	17260	143452	27457	968048	39059	106796	0	0	8238	678423	0	0
2024-05-10 23:57:32			0	35589	0	0	0	18657	17260	143356	27159	968074	39070	106798	0	0	8239	678059	0	0
2024-05-10 23:58:32			0	35592	0	0	0	18644	17260	143412	27246	968021	39082	106793	0	0	8239	677923	0	0
2024-05-10 23:59:32			0	35611	0	0	0	18654	17260	143428	27287	968101	39059	106797	0	0	8240	677058	0	0
2024-05-11 00:00:32			0	35624	0	0	0	18657	17260	143448	27582	968048	39070	106798	0	0	8241	676467	0	0
2024-05-11 00:01:32			0	35602	0	0	0	18662	17260	143364	27260	968101	39082	106800	0	0	8239	677467	0	0
2024-05-11 00:02:32			0	35634	0	0	0	18672	17260	143472	27170	968101	39070	106804	0	0	8241	676013	0	0
2024-05-11 00:03:32			0	35655	0	0	0	18670	17260	143384	27486	968021	39070	106803	0	0	8242	675060	0	0
2024-05-11 00:04:32			0	35615	0	0	0	18664	17260	143308	27124	968109	39082	106801	0	0	8240	676876	0	0
2024-05-11 00:05:32			0	35630	0	0	0	18675	17270	143268	27391	968117	39071	106805	0	0	8241	676158	0	0
2024-05-11 00:06:32			0	35648	0	0	0	18677	17270	143332	27159	968144	39060	106806	0	0	8242	675341	0	0
2024-05-11 00:07:32			0	35642	0	0	0	18685	17270	143340	27301	968117	39071	106809	0	0	8241	675613	0	0
2024-05-11 00:08:32			0	35656	0	0	0	18675	17270	143228	27454	968125	39093	106805	0	0	8242	674978	0	0
2024-05-11 00:09:32			0	35662	0	0	0	18683	17270	143248	27145	968178	39083	106808	0	0	8242	674705	0	0
2024-05-11 00:10:32			0	35657	0	0	0	18688	17280	143260	27552	968160	39072	106810	0	0	8242	674895	0	0
2024-05-11 00:11:32			0	35661	0	0	0	18683	17280	143244	27528	968142	39094	106808	0	0	8242	674714	0	0
2024-05-11 00:12:32			0	35685	0	0	0	18683	17280	143276	27353	968195	39073	106808	0	0	8244	673626	0	0
2024-05-11 00:13:32			0	35667	0	0	0	18693	17280	143192	27495	968134	39083	106812	0	0	8242	674442	0	0
2024-05-11 00:14:32			0	35681	0	0	0	18680	17280	143252	27365	968213	39083	106807	0	0	8243	673807	0	0
2024-05-11 00:15:32			0	35660	0	0	0	18688	17270	143184	27249	968205	39083	106810	0	0	8242	674796	0	0
2024-05-11 00:16:32			0	35680	0	0	0	18683	17280	143176	27268	968142	39073	106808	0	0	8243	673853	0	0
2024-05-11 00:17:32			0	35679	0	0	0	18680	17290	143164	27438	968176	39063	106807	0	0	8243	673861	0	0
2024-05-11 00:18:32			0	35666	0	0	0	18685	17290	143104	27272	968256	39084	106809	0	0	8243	674451	0	0
2024-05-11 00:19:32			0	35689	0	0	0	18688	17280	143096	27557	968221	39083	106810	0	0	8244	673445	0	0
2024-05-11 00:20:32			0	35688	0	0	0	18685	17270	143076	27698	968152	39072	106809	0	0	8244	673527	0	0
2024-05-11 00:21:32			0	35683	0	0	0	18680	17290	143064	27614	968203	39074	106807	0	0	8244	673680	0	0
2024-05-11 00:22:32			0	35695	0	0	0	18677	17280	143056	27376	968160	39072	106806	0	0	8244	673173	0	0
2024-05-11 00:23:32			0	35701	0	0	0	18672	17280	142968	27121	968142	39073	106804	0	0	8245	672902	0	0
2024-05-11 00:24:32			0	35683	0	0	0	18672	17290	142964	27621	968158	39084	106804	0	0	8244	673680	0	0
2024-05-11 00:25:32			0	35701	0	0	0	18664	17280	142948	27052	968195	39062	106801	0	0	8245	672902	0	0
2024-05-11 00:26:32			0	35692	0	0	0	18675	17290	143004	27414	968158	39063	106805	0	0	8244	673272	0	0
2024-05-11 00:27:32			0	35686	0	0	0	18672	17290	143052	27315	968124	39084	106804	0	0	8244	673544	0	0
2024-05-11 00:28:32			0	35720	0	0	0	18667	17290	142936	27493	968124	39074	106802	0	0	8246	672005	0	0
2024-05-11 00:29:32			0	35711	0	0	0	18667	17290	142908	27338	968150	39084	106802	0	0	8245	672412	0	0
2024-05-11 00:30:32			0	35714	0	0	0	18662	17280	142888	27303	968134	39072	106800	0	0	8246	672313	0	0
2024-05-11 00:31:32			0	35706	0	0	0	18657	17280	142924	27428	968195	39083	106798	0	0	8245	672675	0	0
2024-05-11 00:32:32			0	35723	0	0	0	18664	17270	142924	27159	968073	39083	106801	0	0	8246	671943	0	0
2024-05-11 00:33:32			0	35713	0	0	0	18662	17270	142888	27319	968099	39083	106800	0	0	8245	672395	0	0
2024-05-11 00:34:32			0	35734	0	0	0	18654	17280	142896	27338	968134	39083	106797	0	0	8247	671409	0	0
2024-05-11 00:35:32			0	35721	0	0	0	18659	17280	142776	27348	968134	39083	106799	0	0	8246	671997	0	0
2024-05-11 00:36:32			0	35741	0	0	0	18659	17280	142940	27315	968160	39072	106799	0	0	8247	671093	0	0
2024-05-11 00:37:32			0	35745	0	0	0	18659	17280	142840	27386	968134	39093	106799	0	0	8247	670912	0	0
2024-05-11 00:38:32			0	35728	0	0	0	18664	17280	142788	27284	968160	39072	106801	0	0	8246	671680	0	0
2024-05-11 00:39:32			0	35735	0	0	0	18659	17280	142832	27431	968134	39072	106799	0	0	8247	671364	0	0
2024-05-11 00:40:32			0	35749	0	0	0	18654	17270	142872	27359	968073	39083	106797	0	0	8248	670768	0	0
2024-05-11 00:41:32			0	35742	0	0	0	18657	17270	142840	27187	968117	39082	106798	0	0	8247	671084	0	0
2024-05-11 00:42:32			0	35735	0	0	0	18659	17270	142828	27071	968099	39061	106799	0	0	8247	671400	0	0
2024-05-11 00:43:32			0	35754	0	0	0	18657	17270	142780	27177	968073	39083	106798	0	0	8248	670542	0	0
2024-05-11 00:44:32			0	35759	0	0	0	18657	17270	142796	27026	968117	39071	106798	0	0	8248	670316	0	0
2024-05-11 00:45:32			0	35741	0	0	0	18654	17270	142828	27388	968091	39071	106797	0	0	8247	671129	0	0
2024-05-11 00:46:32			0	35763	0	0	0	18654	17260	142736	27301	968056	39071	106797	0	0	8248	670172	0	0
2024-05-11 00:47:32			0	35747	0	0	0	18641	17270	142840	27256	968073	39083	106792	0	0	8248	670858	0	0
2024-05-11 00:48:32			0	35771	0	0	0	18651	17270	142792	27533	968170	39082	106796	0	0	8249	669775	0	0
2024-05-11 00:49:32			0	35763	0	0	0	18638	17260	142860	27192	968162	39071	106791	0	0	8249	670172	0	0
2024-05-11 00:50:32			0	35772	0	0	0	18638	17270	142784	27367	968117	39071	106791	0	0	8249	669730	0	0
2024-05-11 00:51:32			0	35754	0	0	0	18638	17250	142732	27531	968040	39070	106791	0	0	8248	670615	0	0
2024-05-11 00:52:32			0	35761	0	0	0	18636	17250	142840	27454	968040	39082	106790	0	0	8248	670299	0	0
2024-05-11 00:53:32			0	35773	0	0	0	18631	17250	142716	27351	968013	39082	106788	0	0	8249	669757	0	0
2024-05-11 00:54:32			0	35777	0	0	0	18628	17260	142820	27326	968048	39070	106787	0	0	8249	669540	0	0
2024-05-11 00:55:32			0	35774	0	0	0	18623	17260	142852	27310	968074	39082	106785	0	0	8249	669676	0	0
2024-05-11 00:56:32			0	35767	0	0	0	18623	17250	142860	27345	968031	39081	106785	0	0	8249	670028	0	0
2024-05-11 00:57:32			0	35761	0	0	0	18620	17250	142676	27376	968031	39081	106784	0	0	8249	670299	0	0
2024-05-11 00:58:32			0	35756	0	0	0	18615	17240	142732	27679	968050	39081	106782	0	0	8248	670561	0	0
2024-05-11 00:59:32			0	35777	0	0	0	18599	17230	142616	27666	967954	39068	106776	0	0	8250	669649	0	0
2024-05-11 01:00:32			0	35795	0	0	0	18581	17240	142624	27395	967970	39069	106769	0	0	8251	668801	0	0
2024-05-11 01:01:32			0	35784	0	0	0	18566	17230	142576	27537	967901	39057	106763	0	0	8251	669334	0	0
2024-05-11 01:02:32			0	35800	0	0	0	18555	17230	142548	27310	967813	39068	106759	0	0	8252	668612	0	0
2024-05-11 01:03:32			0	35799	0	0	0	18532	17210	142664	27341	967754	39066	106750	0	0	8252	668730	0	0
2024-05-11 01:04:32			0	35780	0	0	0	18477	17210	142648	27480	967701	39055	106729	0	0	8252	669587	0	0
2024-05-11 01:05:32			0	35786	0	0	0	18428	17200	142568	27614	967632	39033	106710	0	0	8253	669353	0	0
2024-05-11 01:06:32			0	35786	0	0	0	18392	17180	142600	27293	967554	39041	106696	0	0	8254	669425	0	0
2024-05-11 01:07:32			0	35801	0	0	0	18368	17170	142564	27353	967451	39041	106687	0	0	8255	668785	0	0
2024-05-11 01:08:32			0	35817	0	0	0	18345	17150	142540	27242	967365	39028	106678	0	0	8256	668137	0	0
2024-05-11 01:09:32			0	35831	0	0	0	18316	17130	142600	27171	967287	39027	106667	0	0	8257	667579	0	0
2024-05-11 01:10:32			0	35847	0	0	0	18301	17110	142424	27457	967201	39036	106661	0	0	8258	666931	0	0
2024-05-11 01:11:32			0	35859	0	0	0	18285	17100	142340	27426	967018	39023	106655	0	0	8259	666427	0	0
2024-05-11 01:12:32			0	35872	0	0	0	18270	17070	142281	27281	966969	39021	106649	0	0	8260	665952	0	0
2024-05-11 01:13:32			0	35893	0	0	0	18257	17050	142253	27319	966944	39019	106644	0	0	8261	665080	0	0
2024-05-11 01:14:32			0	35914	0	0	0	18228	17030	142245	27450	966832	39006	106633	0	0	8263	664210	0	0
2024-05-11 01:15:32			0	35937	0	0	0	18218	17010	142277	27194	966720	39004	106629	0	0	8264	663251	0	0
2024-05-11 01:16:32			0	35938	0	0	0	18207	16990	142141	27405	966740	38992	106625	0	0	8264	663278	0	0
2024-05-11 01:17:32			0	35962	0	0	0	18189	16970	142133	27367	966628	39012	106618	0	0	8266	662274	0	0
2024-05-11 01:18:32			0	35951	0	0	0	18171	16950	142169	27317	966568	38989	106611	0	0	8265	662839	0	0
2024-05-11 01:19:32			0	35952	0	0	0	18163	16930	142117	27372	966491	38987	106608	0	0	8265	662866	0	0
2024-05-11 01:20:32			0	35984	0	0	0	18150	16910	142177	27324	966458	38997	106603	0	0	8267	661505	0	0
2024-05-11 01:21:32			0	35973	0	0	0	18148	16900	142085	27218	966354	39005	106602	0	0	8267	662033	0	0
2024-05-11 01:22:32			0	35968	0	0	0	18129	16880	142229	27516	966321	39015	106595	0	0	8267	662329	0	0
2024-05-11 01:23:32			0	35988	0	0	0	18137	16860	142285	27396	966296	39003	106598	0	0	8268	661505	0	0
2024-05-11 01:24:32			0	36005	0	0	0	18132	16850	142173	27550	966201	39001	106596	0	0	8268	660781	0	0
2024-05-11 01:25:32			0	35989	0	0	0	18129	16850	142157	27275	966253	39012	106595	0	0	8268	661497	0	0
2024-05-11 01:26:32			0	35987	0	0	0	18132	16840	142177	27305	966237	39001	106596	0	0	8267	661622	0	0
2024-05-11 01:27:32			0	36000	0	0	0	18132	16830	142225	27322	966247	39000	106596	0	0	8268	661076	0	0
2024-05-11 01:28:32			0	35994	0	0	0	18124	16820	142173	27569	966196	39009	106593	0	0	8268	661380	0	0
2024-05-11 01:29:32			0	36001	0	0	0	18127	16810	142137	27519	966135	39009	106594	0	0	8268	661103	0	0
2024-05-11 01:30:32			0	36006	0	0	0	18124	16820	142113	27235	966170	39009	106593	0	0	8269	660844	0	0
2024-05-11 01:31:32			0	36035	0	0	0	18127	16800	142089	27514	966137	38986	106594	0	0	8270	659619	0	0
2024-05-11 01:32:32			0	36018	0	0	0	18127	16800	142105	27428	966119	38998	106594	0	0	8269	660379	0	0
2024-05-11 01:33:32			0	36018	0	0	0	18127	16800	142065	27121	966084	38998	106594	0	0	8269	660379	0	0
2024-05-11 01:34:32			0	36023	0	0	0	18129	16790	142065	27505	966128	39007	106595	0	0	8269	660191	0	0
2024-05-11 01:35:32			0	36053	0	0	0	18135	16790	142093	27407	966041	39006	106597	0	0	8271	658851	0	0
2024-05-11 01:36:32			0	36044	0	0	0	18119	16790	142013	27640	966094	39006	106591	0	0	8271	659253	0	0
2024-05-11 01:37:32			0	36044	0	0	0	18132	16780	141989	27313	966033	39006	106596	0	0	8270	659289	0	0
2024-05-11 01:38:32			0	36036	0	0	0	18124	16790	142001	27471	966094	39006	106593	0	0	8270	659610	0	0
2024-05-11 01:39:32			0	36055	0	0	0	18132	16770	141973	27400	966069	38995	106596	0	0	8271	658833	0	0
2024-05-11 01:40:32			0	36055	0	0	0	18127	16770	141893	27384	966016	39005	106594	0	0	8271	658833	0	0
2024-05-11 01:41:32			0	36055	0	0	0	18132	16780	141921	27251	966077	39006	106596	0	0	8271	658798	0	0
2024-05-11 01:42:32			0	36074	0	0	0	18129	16770	142025	27587	966096	39005	106595	0	0	8272	657986	0	0
2024-05-11 01:43:32			0	36067	0	0	0	18137	16760	141961	27190	966071	39003	106598	0	0	8271	658334	0	0
2024-05-11 01:44:32			0	36089	0	0	0	18129	16760	142005	27256	966053	38994	106595	0	0	8273	657353	0	0
2024-05-11 01:45:32			0	36080	0	0	0	18135	16760	141973	27255	966071	39003	106597	0	0	8272	657754	0	0
2024-05-11 01:46:32			0	36075	0	0	0	18132	16760	141965	27497	966071	39003	106596	0	0	8272	657977	0	0
2024-05-11 01:47:32			0	36095	0	0	0	18137	16760	141925	27402	966053	39004	106598	0	0	8273	657086	0	0
2024-05-11 01:48:32			0	36075	0	0	0	18140	16760	141805	27123	966079	39004	106599	0	0	8272	657977	0	0
2024-05-11 01:49:32			0	36079	0	0	0	18137	16760	141913	27511	966132	39015	106598	0	0	8272	657799	0	0
2024-05-11 01:50:32			0	36071	0	0	0	18150	16770	141801	27500	966114	39015	106603	0	0	8271	658120	0	0
2024-05-11 01:51:32			0	36085	0	0	0	18145	16780	141877	27267	966051	38996	106601	0	0	8272	657460	0	0
2024-05-11 01:52:32			0	36095	0	0	0	18155	16780	141885	27319	966104	39006	106605	0	0	8273	657015	0	0
2024-05-11 01:53:32			0	36083	0	0	0	18161	16770	141853	27109	966096	39005	106607	0	0	8272	657585	0	0
2024-05-11 01:54:32			0	36107	0	0	0	18163	16770	141813	27293	966096	39005	106608	0	0	8273	656516	0	0
2024-05-11 01:55:32			0	36101	0	0	0	18163	16780	141797	27353	966104	39006	106608	0	0	8273	656747	0	0
2024-05-11 01:56:32			0	36097	0	0	0	18155	16780	141849	27433	966138	39006	106605	0	0	8273	656925	0	0
2024-05-11 01:57:32			0	36084	0	0	0	18161	16780	141969	27303	966104	39006	106607	0	0	8272	657505	0	0
2024-05-11 01:58:32			0	36089	0	0	0	18155	16770	141745	27476	966061	39004	106605	0	0	8272	657317	0	0
2024-05-11 01:59:32			0	36093	0	0	0	18158	16780	141721	27291	966104	39006	106606	0	0	8272	657104	0	0
2024-05-11 02:00:32			0	36111	0	0	0	18155	16770	141833	27069	966096	39005	106605	0	0	8273	656338	0	0
2024-05-11 02:01:32			0	36096	0	0	0	18161	16780	141817	27379	966130	39006	106607	0	0	8273	656970	0	0
2024-05-11 02:02:32			0	36109	0	0	0	18163	16780	141773	27464	966077	39006	106608	0	0	8273	656391	0	0
2024-05-11 02:03:32			0	36102	0	0	0	18153	16770	141789	27493	966069	39005	106604	0	0	8273	656738	0	0
2024-05-11 02:04:32			0	36099	0	0	0	18155	16770	141785	27274	966087	39004	106605	0	0	8273	656872	0	0
2024-05-11 02:05:32			0	36102	0	0	0	18158	16770	141793	27410	966096	39016	106606	0	0	8273	656738	0	0
2024-05-11 02:06:32			0	36123	0	0	0	18161	16770	141721	27640	966061	39015	106607	0	0	8274	655804	0	0
2024-05-11 02:07:32			0	36124	0	0	0	18142	16770	141701	27381	966087	38994	106600	0	0	8274	655759	0	0
2024-05-11 02:08:32			0	36112	0	0	0	18142	16780	141685	27102	966104	38996	106600	0	0	8274	656258	0	0
2024-05-11 02:09:32			0	36128	0	0	0	18145	16770	141709	27412	966087	39015	106601	0	0	8275	655582	0	0
2024-05-11 02:10:32			0	36106	0	0	0	18135	16770	141733	27609	966061	38994	106597	0	0	8274	656560	0	0
2024-05-11 02:11:32			0	36140	0	0	0	18119	16760	141673	27223	966053	39004	106591	0	0	8276	655084	0	0
2024-05-11 02:12:32			0	36145	0	0	0	18114	16760	141701	27514	966000	38994	106589	0	0	8276	654861	0	0
2024-05-11 02:13:32			0	36143	0	0	0	18114	16760	141713	27196	966000	39004	106589	0	0	8276	654950	0	0
2024-05-11 02:14:32			0	36134	0	0	0	18106	16760	141577	27334	965992	39003	106586	0	0	8276	655350	0	0
2024-05-11 02:15:32			0	36143	0	0	0	18109	16750	141625	27369	966002	38992	106587	0	0	8276	654986	0	0
2024-05-11 02:16:32			0	36166	0	0	0	18114	16760	141609	27656	966045	39003	106589	0	0	8277	653929	0	0
2024-05-11 02:17:32			0	36156	0	0	0	18106	16760	141617	27274	965965	39003	106586	0	0	8277	654373	0	0
2024-05-11 02:18:32			0	36156	0	0	0	18106	16750	141597	27203	965984	39003	106586	0	0	8277	654408	0	0
2024-05-11 02:19:32			0	36159	0	0	0	18109	16750	141533	27274	965975	39014	106587	0	0	8277	654275	0	0
2024-05-11 02:20:32			0	36163	0	0	0	18101	16750	141541	27810	966055	39014	106584	0	0	8277	654097	0	0
2024-05-11 02:21:32			0	36180	0	0	0	18109	16750	141541	27462	966010	39003	106587	0	0	8278	653343	0	0
2024-05-11 02:22:32			0	36172	0	0	0	18106	16760	141481	27270	965992	39015	106586	0	0	8278	653662	0	0
2024-05-11 02:23:32			0	36192	0	0	0	18122	16750	141477	27296	966036	39003	106592	0	0	8278	652811	0	0
2024-05-11 02:24:32			0	36190	0	0	0	18129	16760	141485	27265	966026	39004	106595	0	0	8278	652864	0	0
2024-05-11 02:25:32			0	36187	0	0	0	18137	16760	141521	27814	966106	38994	106598	0	0	8278	652997	0	0
2024-05-11 02:26:32			0	36186	0	0	0	18145	16760	141509	27346	966026	38994	106601	0	0	8278	653041	0	0
2024-05-11 02:27:32			0	36209	0	0	0	18135	16770	141529	27296	966035	39004	106597	0	0	8279	651987	0	0
2024-05-11 02:28:32			0	36195	0	0	0	18140	16770	141517	27135	966069	39005	106599	0	0	8278	652607	0	0
2024-05-11 02:29:32			0	36183	0	0	0	18148	16770	141465	27078	966087	39004	106602	0	0	8277	653139	0	0
2024-05-11 02:30:32			0	36202	0	0	0	18140	16750	141453	27958	966036	39003	106599	0	0	8279	652367	0	0
2024-05-11 02:31:32			0	36211	0	0	0	18155	16750	141397	27692	966002	39003	106605	0	0	8279	651969	0	0
2024-05-11 02:32:32			0	36209	0	0	0	18155	16760	141397	27609	966045	38993	106605	0	0	8279	652022	0	0
2024-05-11 02:33:32			0	36213	0	0	0	18163	16770	141485	27345	966096	39005	106608	0	0	8279	651809	0	0
2024-05-11 02:34:32			0	36214	0	0	0	18163	16770	141533	27469	966140	39004	106608	0	0	8279	651765	0	0
2024-05-11 02:35:32			0	36215	0	0	0	18166	16780	141389	27421	966104	38996	106609	0	0	8279	651686	0	0
2024-05-11 02:36:32			0	36203	0	0	0	18158	16780	141309	27642	966130	39006	106606	0	0	8278	652217	0	0
2024-05-11 02:37:32			0	36207	0	0	0	18161	16770	141341	27500	966096	39016	106607	0	0	8279	652075	0	0
2024-05-11 02:38:32			0	36229	0	0	0	18174	16780	141361	27301	966112	39017	106612	0	0	8280	651066	0	0
2024-05-11 02:39:32			0	36225	0	0	0	18168	16780	141261	27197	966138	39006	106610	0	0	8279	651243	0	0
2024-05-11 02:40:32			0	36218	0	0	0	18171	16780	141285	27514	966157	38996	106611	0	0	8279	651553	0	0
2024-05-11 02:41:32			0	36218	0	0	0	18181	16780	141425	27590	966112	38996	106615	0	0	8279	651553	0	0
2024-05-11 02:42:32			0	36229	0	0	0	18174	16770	141321	27438	966122	39005	106612	0	0	8280	651101	0	0
2024-05-11 02:43:32			0	36224	0	0	0	18174	16770	141213	27327	966096	39016	106612	0	0	8279	651322	0	0
2024-05-11 02:44:32			0	36232	0	0	0	18171	16780	141349	27673	966130	39017	106611	0	0	8280	650933	0	0
2024-05-11 02:45:32			0	36244	0	0	0	18179	16780	141313	27332	966157	39006	106614	0	0	8280	650402	0	0
2024-05-11 02:46:32			0	36234	0	0	0	18171	16780	141261	27175	966165	39017	106611	0	0	8280	650844	0	0
2024-05-11 02:47:32			0	36244	0	0	0	18179	16770	141249	27691	966175	39027	106614	0	0	8280	650438	0	0
2024-05-11 02:48:32			0	36245	0	0	0	18176	16780	141265	27251	966138	39017	106613	0	0	8280	650358	0	0
2024-05-11 02:49:32			0	36245	0	0	0	18176	16780	141285	27175	966165	39017	106613	0	0	8280	650358	0	0
2024-05-11 02:50:32			0	36241	0	0	0	18171	16780	141273	27121	966165	39017	106611	0	0	8280	650535	0	0
2024-05-11 02:51:32			0	36246	0	0	0	18171	16780	141297	27242	966138	39006	106611	0	0	8281	650314	0	0
2024-05-11 02:52:32			0	36270	0	0	0	18163	16780	141185	27635	966138	39006	106608	0	0	8282	649253	0	0
2024-05-11 02:53:32			0	36283	0	0	0	18158	16780	141145	27405	966051	39006	106606	0	0	8283	648679	0	0
2024-05-11 02:54:32			0	36258	0	0	0	18163	16780	141229	27300	966130	39006	106608	0	0	8281	649783	0	0
2024-05-11 02:55:32			0	36272	0	0	0	18148	16770	141269	27190	966114	39015	106602	0	0	8282	649200	0	0
2024-05-11 02:56:32			0	36279	0	0	0	18150	16780	141225	27199	966077	39006	106603	0	0	8283	648856	0	0
2024-05-11 02:57:32			0	36272	0	0	0	18148	16760	141265	27249	966079	39004	106602	0	0	8282	649235	0	0
2024-05-11 02:58:32			0	36263	0	0	0	18145	16770	141149	27381	966061	39004	106601	0	0	8282	649598	0	0
2024-05-11 02:59:32			0	36293	0	0	0	18142	16760	141077	27488	966053	39004	106600	0	0	8283	648308	0	0
2024-05-11 03:00:32			0	36274	0	0	0	18155	16770	141057	27138	966087	38994	106605	0	0	8282	649112	0	0
2024-05-11 03:01:32			0	36289	0	0	0	18148	16770	141101	27744	966069	39005	106602	0	0	8283	648449	0	0
2024-05-11 03:02:32			0	36293	0	0	0	18145	16770	141085	27339	966114	39004	106601	0	0	8283	648273	0	0
2024-05-11 03:03:32			0	36286	0	0	0	18145	16770	141033	27441	966114	39004	106601	0	0	8283	648582	0	0
2024-05-11 03:04:32			0	36296	0	0	0	18153	16760	141037	27443	966079	39015	106604	0	0	8283	648176	0	0
2024-05-11 03:05:32			0	36318	0	0	0	18148	16760	141089	27500	966053	38994	106602	0	0	8285	647206	0	0
2024-05-11 03:06:32			0	36297	0	0	0	18145	16770	141145	27400	966061	39015	106601	0	0	8284	648097	0	0
2024-05-11 03:07:32			0	36317	0	0	0	18148	16760	141089	27230	966053	38994	106602	0	0	8285	647250	0	0
2024-05-11 03:08:32			0	36299	0	0	0	18137	16760	141013	27251	966106	39015	106598	0	0	8284	648043	0	0
2024-05-11 03:09:32			0	36322	0	0	0	18137	16770	141097	27377	966035	39004	106598	0	0	8285	646995	0	0
2024-05-11 03:10:32			0	36305	0	0	0	18140	16760	141053	27377	965992	39003	106599	0	0	8284	647779	0	0
2024-05-11 03:11:32			0	36311	0	0	0	18140	16760	140961	27431	966045	39015	106599	0	0	8284	647514	0	0
2024-05-11 03:12:32			0	36323	0	0	0	18132	16760	141025	27552	965992	39003	106596	0	0	8285	646985	0	0
2024-05-11 03:13:32			0	36336	0	0	0	18124	16750	140997	27301	966036	39026	106593	0	0	8286	646448	0	0
2024-05-11 03:14:32			0	36318	0	0	0	18135	16750	141057	27708	965984	39015	106597	0	0	8285	647241	0	0
2024-05-11 03:15:32			0	36317	0	0	0	18127	16750	140921	27362	965984	39003	106594	0	0	8285	647285	0	0
2024-05-11 03:16:32			0	36348	0	0	0	18124	16750	140909	27215	966002	39014	106593	0	0	8287	645920	0	0
2024-05-11 03:17:32			0	36331	0	0	0	18119	16750	140981	27211	965975	39003	106591	0	0	8286	646668	0	0
2024-05-11 03:18:32			0	36319	0	0	0	18124	16740	140973	27287	965967	39002	106593	0	0	8285	647232	0	0
2024-05-11 03:19:32			0	36341	0	0	0	18116	16740	140885	27211	965993	39002	106590	0	0	8286	646263	0	0
2024-05-11 03:20:32			0	36342	0	0	0	18127	16750	140853	27575	965957	39003	106594	0	0	8286	646184	0	0
2024-05-11 03:21:32			0	36308	0	0	0	18116	16730	140957	27713	965985	39024	106590	0	0	8285	647752	0	0
2024-05-11 03:22:32			0	36338	0	0	0	18116	16740	140901	27543	965967	39002	106590	0	0	8286	646395	0	0
2024-05-11 03:23:32			0	36341	0	0	0	18111	16740	140969	27258	965940	39002	106588	0	0	8287	646263	0	0
2024-05-11 03:24:32			0	36356	0	0	0	18111	16740	140917	27474	966020	39002	106588	0	0	8287	645603	0	0
2024-05-11 03:25:32			0	36350	0	0	0	18116	16750	140909	27578	966002	39003	106590	0	0	8287	645832	0	0
2024-05-11 03:26:32			0	36349	0	0	0	18111	16730	140913	27528	965977	39013	106588	0	0	8287	645946	0	0
2024-05-11 03:27:32			0	36339	0	0	0	18111	16730	140921	27161	965959	39013	106588	0	0	8286	646386	0	0
2024-05-11 03:28:32			0	36352	0	0	0	18098	16730	140917	27256	965898	39013	106583	0	0	8287	645813	0	0
2024-05-11 03:29:32			0	36351	0	0	0	18103	16730	140881	27542	965932	39002	106585	0	0	8287	645857	0	0
2024-05-11 03:30:32			0	36334	0	0	0	18098	16730	140965	27331	965898	38992	106583	0	0	8286	646606	0	0
2024-05-11 03:31:32			0	36352	0	0	0	18096	16720	140909	27421	965942	39001	106582	0	0	8287	645848	0	0
2024-05-11 03:32:32			0	36353	0	0	0	18096	16730	140765	27256	965932	39002	106582	0	0	8287	645770	0	0
2024-05-11 03:33:32			0	36352	0	0	0	18093	16730	140857	27393	965898	38992	106581	0	0	8287	645813	0	0
2024-05-11 03:34:32			0	36360	0	0	0	18093	16720	140889	27272	965855	39000	106581	0	0	8288	645496	0	0
2024-05-11 03:35:32			0	36356	0	0	0	18085	16710	140849	27391	965847	39011	106578	0	0	8288	645707	0	0
2024-05-11 03:36:32			0	36362	0	0	0	18085	16720	140909	27395	965908	38990	106578	0	0	8288	645408	0	0
2024-05-11 03:37:32			0	36358	0	0	0	18083	16720	140817	27602	965863	39012	106577	0	0	8288	645584	0	0
2024-05-11 03:38:32			0	36363	0	0	0	18085	16710	140801	27571	965838	39000	106578	0	0	8288	645400	0	0
2024-05-11 03:39:32			0	36379	0	0	0	18080	16710	140881	27376	965812	39022	106576	0	0	8289	644696	0	0
2024-05-11 03:40:32			0	36377	0	0	0	18085	16700	140829	27348	965830	39010	106578	0	0	8289	644819	0	0
2024-05-11 03:41:32			0	36383	0	0	0	18085	16690	140777	27569	965814	38999	106578	0	0	8289	644590	0	0
2024-05-11 03:42:32			0	36385	0	0	0	18075	16700	140797	27469	965883	39010	106574	0	0	8289	644467	0	0
2024-05-11 03:43:32			0	36390	0	0	0	18077	16700	140781	27322	965804	39000	106575	0	0	8290	644248	0	0
2024-05-11 03:44:32			0	36375	0	0	0	18070	16700	140833	27246	965830	39010	106572	0	0	8289	644907	0	0
2024-05-11 03:45:32			0	36375	0	0	0	18077	16700	140777	27466	965796	38988	106575	0	0	8289	644907	0	0
2024-05-11 03:46:32			0	36377	0	0	0	18080	16700	140841	27535	965830	39010	106576	0	0	8289	644819	0	0
2024-05-11 03:47:32			0	36372	0	0	0	18064	16700	140773	27509	965769	38999	106570	0	0	8289	645039	0	0
2024-05-11 03:48:32			0	36398	0	0	0	18070	16690	140793	27043	965761	38999	106572	0	0	8290	643931	0	0
2024-05-11 03:49:32			0	36390	0	0	0	18070	16690	140821	27267	965814	38999	106572	0	0	8290	644282	0	0
2024-05-11 03:50:32			0	36393	0	0	0	18070	16690	140821	27334	965866	38999	106572	0	0	8290	644150	0	0
2024-05-11 03:51:32			0	36401	0	0	0	18072	16690	140777	27739	965787	38999	106573	0	0	8290	643799	0	0
2024-05-11 03:52:32			0	36391	0	0	0	18064	16680	140833	27422	965771	38998	106570	0	0	8290	644273	0	0
2024-05-11 03:53:32			0	36407	0	0	0	18062	16680	140829	27633	965692	38987	106569	0	0	8291	643571	0	0
2024-05-11 03:54:32			0	36392	0	0	0	18064	16690	140753	27575	965753	39009	106570	0	0	8290	644195	0	0
2024-05-11 03:55:32			0	36423	0	0	0	18062	16680	140717	27656	965736	39008	106569	0	0	8291	642868	0	0
2024-05-11 03:56:32			0	36400	0	0	0	18054	16680	140629	27267	965736	38998	106566	0	0	8290	643878	0	0
2024-05-11 03:57:32			0	36410	0	0	0	18051	16680	140705	27474	965736	38998	106565	0	0	8291	643439	0	0
2024-05-11 03:58:32			0	36407	0	0	0	18057	16670	140705	27478	965693	39007	106567	0	0	8291	643605	0	0
2024-05-11 03:59:32			0	36411	0	0	0	18046	16670	140677	27559	965720	38997	106563	0	0	8291	643430	0	0
2024-05-11 04:00:32			0	36404	0	0	0	18044	16680	140669	27476	965771	39009	106562	0	0	8291	643702	0	0
2024-05-11 04:01:32			0	36422	0	0	0	18044	16670	140681	27576	965667	38997	106562	0	0	8292	642947	0	0
2024-05-11 04:02:32			0	36413	0	0	0	18051	16670	140737	27308	965649	38998	106565	0	0	8291	643342	0	0
2024-05-11 04:03:32			0	36412	0	0	0	18046	16660	140673	27528	965650	39006	106563	0	0	8291	643421	0	0
2024-05-11 04:04:32			0	36426	0	0	0	18041	16670	140617	27339	965675	38998	106561	0	0	8292	642772	0	0
2024-05-11 04:05:32			0	36415	0	0	0	18046	16670	140693	27324	965640	39007	106563	0	0	8291	643254	0	0
2024-05-11 04:06:32			0	36415	0	0	0	18031	16660	140605	27083	965650	38996	106557	0	0	8292	643289	0	0
2024-05-11 04:07:32			0	36420	0	0	0	18031	16650	140681	27111	965563	38984	106557	0	0	8292	643105	0	0
2024-05-11 04:08:32			0	36427	0	0	0	18031	16660	140657	27407	965624	38985	106557	0	0	8292	642763	0	0
2024-05-11 04:09:32			0	36427	0	0	0	18025	16650	140661	27178	965669	38984	106555	0	0	8292	642797	0	0
2024-05-11 04:10:32			0	36439	0	0	0	18028	16650	140717	27315	965642	38984	106556	0	0	8293	642271	0	0
2024-05-11 04:11:32			0	36433	0	0	0	18033	16650	140633	27607	965581	38995	106558	0	0	8292	642534	0	0
2024-05-11 04:12:32			0	36416	0	0	0	18028	16650	140633	27332	965581	38984	106556	0	0	8292	643280	0	0
2024-05-11 04:13:32			0	36416	0	0	0	18012	16640	140589	27407	965618	38994	106550	0	0	8292	643315	0	0
2024-05-11 04:14:32			0	36442	0	0	0	18018	16650	140593	27229	965608	39005	106552	0	0	8293	642139	0	0
2024-05-11 04:15:32			0	36433	0	0	0	18012	16640	140693	27300	965573	38983	106550	0	0	8293	642569	0	0
2024-05-11 04:16:32			0	36437	0	0	0	18010	16640	140613	27396	965573	38994	106549	0	0	8293	642394	0	0
2024-05-11 04:17:32			0	36434	0	0	0	18005	16640	140625	27183	965565	38972	106547	0	0	8293	642525	0	0
2024-05-11 04:18:32			0	36437	0	0	0	18002	16640	140557	27545	965512	38983	106546	0	0	8293	642394	0	0
2024-05-11 04:19:32			0	36446	0	0	0	18010	16630	140557	27362	965583	38982	106549	0	0	8293	642034	0	0
2024-05-11 04:20:32			0	36449	0	0	0	18010	16640	140689	27230	965547	39004	106549	0	0	8294	641867	0	0
2024-05-11 04:21:32			0	36433	0	0	0	18012	16640	140665	27384	965591	39004	106550	0	0	8293	642569	0	0
2024-05-11 04:22:32			0	36439	0	0	0	18018	16640	140657	27466	965591	38994	106552	0	0	8293	642306	0	0
2024-05-11 04:23:32			0	36447	0	0	0	18015	16640	140541	27517	965599	38994	106551	0	0	8293	641955	0	0
2024-05-11 04:24:32			0	36461	0	0	0	18007	16640	140669	27039	965591	38994	106548	0	0	8294	641342	0	0
2024-05-11 04:25:32			0	36466	0	0	0	18005	16630	140565	27234	965530	38993	106547	0	0	8295	641157	0	0
2024-05-11 04:26:32			0	36431	0	0	0	18007	16630	140641	27152	965530	38993	106548	0	0	8293	642691	0	0
2024-05-11 04:27:32			0	36455	0	0	0	18010	16630	140557	27261	965522	38993	106549	0	0	8294	641639	0	0
2024-05-11 04:28:32			0	36450	0	0	0	18007	16630	140565	27242	965522	38993	106548	0	0	8294	641858	0	0
2024-05-11 04:29:32			0	36461	0	0	0	18005	16620	140565	27121	965514	39003	106547	0	0	8294	641411	0	0
2024-05-11 04:30:32			0	36462	0	0	0	18012	16630	140517	27213	965496	38982	106550	0	0	8294	641333	0	0
2024-05-11 04:31:32			0	36468	0	0	0	18002	16620	140649	27244	965514	38992	106546	0	0	8295	641105	0	0
2024-05-11 04:32:32			0	36450	0	0	0	17999	16620	140485	27277	965540	38981	106545	0	0	8294	641893	0	0
2024-05-11 04:33:32			0	36455	0	0	0	17997	16630	140529	27460	965477	39003	106544	0	0	8294	641639	0	0
2024-05-11 04:34:32			0	36462	0	0	0	17997	16610	140649	27396	965471	39002	106544	0	0	8294	641402	0	0
2024-05-11 04:35:32			0	36453	0	0	0	17994	16620	140661	27220	965479	38992	106543	0	0	8294	641762	0	0
2024-05-11 04:36:32			0	36471	0	0	0	17997	16620	140681	27324	965505	38992	106544	0	0	8295	640973	0	0
2024-05-11 04:37:32			0	36458	0	0	0	17994	16620	140605	27301	965514	38992	106543	0	0	8294	641543	0	0
2024-05-11 04:38:32			0	36482	0	0	0	17986	16620	140525	27237	965479	38981	106540	0	0	8296	640492	0	0
2024-05-11 04:39:32			0	36462	0	0	0	17986	16610	140561	27416	965418	38991	106540	0	0	8295	641402	0	0
2024-05-11 04:40:32			0	36471	0	0	0	17979	16600	140509	27325	965454	38991	106537	0	0	8295	641042	0	0
2024-05-11 04:41:32			0	36460	0	0	0	17981	16610	140509	27355	965436	38991	106538	0	0	8295	641490	0	0
2024-05-11 04:42:32			0	36463	0	0	0	17981	16600	140581	27319	965454	39001	106538	0	0	8295	641393	0	0
2024-05-11 04:43:32			0	36474	0	0	0	17979	16600	140477	27017	965428	39001	106537	0	0	8295	640911	0	0
2024-05-11 04:44:32			0	36479	0	0	0	17976	16600	140477	27407	965428	38991	106536	0	0	8296	640692	0	0
2024-05-11 04:45:32			0	36485	0	0	0	17971	16610	140493	27313	965436	38991	106534	0	0	8296	640395	0	0
2024-05-11 04:46:32			0	36473	0	0	0	17976	16600	140501	27317	965481	38991	106536	0	0	8295	640955	0	0
2024-05-11 04:47:32			0	36483	0	0	0	17976	16600	140409	27526	965401	38980	106536	0	0	8296	640517	0	0
2024-05-11 04:48:32			0	36469	0	0	0	17968	16590	140421	27185	965350	38979	106533	0	0	8295	641165	0	0
2024-05-11 04:49:32			0	36485	0	0	0	17963	16590	140405	27450	965411	38990	106531	0	0	8296	640464	0	0
2024-05-11 04:50:32			0	36487	0	0	0	17968	16600	140421	27045	965401	38991	106533	0	0	8296	640342	0	0
2024-05-11 04:51:32			0	36487	0	0	0	17958	16600	140477	27102	965420	38980	106529	0	0	8296	640342	0	0
2024-05-11 04:52:32			0	36494	0	0	0	17966	16590	140433	27213	965385	38990	106532	0	0	8297	640071	0	0
2024-05-11 04:53:32			0	36499	0	0	0	17968	16590	140533	27182	965350	38990	106533	0	0	8297	639852	0	0
2024-05-11 04:54:32			0	36489	0	0	0	17955	16590	140521	27281	965385	38967	106528	0	0	8296	640289	0	0
2024-05-11 04:55:32			0	36496	0	0	0	17958	16590	140489	27367	965411	38990	106529	0	0	8297	639983	0	0
2024-05-11 04:56:32			0	36489	0	0	0	17955	16600	140449	27222	965446	38991	106528	0	0	8297	640255	0	0
2024-05-11 04:57:32			0	36476	0	0	0	17963	16590	140393	27298	965377	39000	106531	0	0	8296	640858	0	0
2024-05-11 04:58:32			0	36484	0	0	0	17955	16590	140461	27149	965377	38990	106528	0	0	8296	640508	0	0
2024-05-11 04:59:32			0	36507	0	0	0	17955	16580	140401	27362	965369	38989	106528	0	0	8297	639537	0	0
2024-05-11 05:00:32			0	36509	0	0	0	17961	16580	140349	27301	965360	38977	106530	0	0	8297	639449	0	0
2024-05-11 05:01:32			0	36512	0	0	0	17958	16580	140377	27123	965308	38977	106529	0	0	8298	639318	0	0
2024-05-11 05:02:32			0	36521	0	0	0	17958	16590	140417	27220	965324	38979	106529	0	0	8298	638890	0	0
2024-05-11 05:03:32			0	36517	0	0	0	17950	16580	140333	27166	965237	38989	106526	0	0	8298	639100	0	0
2024-05-11 05:04:32			0	36511	0	0	0	17955	16580	140449	27242	965334	38977	106528	0	0	8298	639362	0	0
2024-05-11 05:05:32			0	36541	0	0	0	17948	16580	140389	27267	965308	38988	106525	0	0	8299	638051	0	0
2024-05-11 05:06:32			0	36523	0	0	0	17950	16580	140405	27675	965308	38988	106526	0	0	8298	638837	0	0
2024-05-11 05:07:32			0	36536	0	0	0	17958	16580	140417	27242	965334	38988	106529	0	0	8299	638270	0	0
2024-05-11 05:08:32			0	36521	0	0	0	17942	16570	140329	27180	965352	38999	106523	0	0	8298	638959	0	0
2024-05-11 05:09:32			0	36537	0	0	0	17945	16570	140301	27346	965291	38999	106524	0	0	8299	638261	0	0
2024-05-11 05:10:32			0	36528	0	0	0	17948	16560	140305	27246	965283	38987	106525	0	0	8299	638688	0	0
2024-05-11 05:11:32			0	36531	0	0	0	17950	16570	140317	27149	965291	38988	106526	0	0	8299	638523	0	0
2024-05-11 05:12:32			0	36520	0	0	0	17948	16560	140289	27281	965328	38998	106525	0	0	8298	639038	0	0
2024-05-11 05:13:32			0	36542	0	0	0	17942	16560	140273	27452	965257	38976	106523	0	0	8299	638077	0	0
2024-05-11 05:14:32			0	36541	0	0	0	17932	16570	140285	27343	965265	38977	106519	0	0	8300	638086	0	0
2024-05-11 05:15:32			0	36562	0	0	0	17942	16560	140285	27185	965230	38965	106523	0	0	8300	637204	0	0
2024-05-11 05:16:32			0	36562	0	0	0	17940	16560	140253	27268	965248	38986	106522	0	0	8301	637204	0	0
2024-05-11 05:17:32			0	36548	0	0	0	17924	16560	140169	27166	965257	38987	106516	0	0	8300	637815	0	0
2024-05-11 05:18:32			0	36553	0	0	0	17937	16550	140213	27135	965267	38986	106521	0	0	8300	637631	0	0
2024-05-11 05:19:32			0	36563	0	0	0	17945	16550	140221	27265	965187	38986	106524	0	0	8300	637195	0	0
2024-05-11 05:20:32			0	36561	0	0	0	17922	16550	140201	26837	965240	38975	106515	0	0	8301	637282	0	0
2024-05-11 05:21:32			0	36567	0	0	0	17927	16550	140169	27072	965258	38997	106517	0	0	8301	637021	0	0
2024-05-11 05:22:32			0	36580	0	0	0	17922	16550	140141	27618	965179	38974	106515	0	0	8302	636454	0	0
2024-05-11 05:23:32			0	36568	0	0	0	17924	16550	140153	27161	965161	38986	106516	0	0	8301	636977	0	0
2024-05-11 05:24:32			0	36575	0	0	0	17932	16550	140105	27421	965240	38986	106519	0	0	8301	636672	0	0
2024-05-11 05:25:32			0	36588	0	0	0	17924	16550	140205	27334	965258	38985	106516	0	0	8302	636105	0	0
2024-05-11 05:26:32			0	36600	0	0	0	17924	16550	140097	27135	965258	38974	106516	0	0	8303	635583	0	0
2024-05-11 05:27:32			0	36590	0	0	0	17929	16540	140073	27343	965197	38985	106518	0	0	8302	636053	0	0
2024-05-11 05:28:32			0	36585	0	0	0	17924	16540	140089	27142	965216	38974	106516	0	0	8302	636270	0	0
2024-05-11 05:29:32			0	36596	0	0	0	17929	16530	140110	27331	965075	38985	106518	0	0	8302	635826	0	0
2024-05-11 05:30:32			0	36575	0	0	0	17919	16540	140057	27364	965189	38985	106514	0	0	8301	636706	0	0
2024-05-11 05:31:32			0	36599	0	0	0	17919	16550	140073	27121	965258	38985	106514	0	0	8303	635626	0	0
2024-05-11 05:32:32			0	36585	0	0	0	17927	16540	140141	27305	965216	38974	106517	0	0	8302	636270	0	0
2024-05-11 05:33:32			0	36592	0	0	0	17919	16550	140054	27121	965153	38985	106514	0	0	8302	635931	0	0
2024-05-11 05:34:32			0	36600	0	0	0	17919	16540	140058	27164	965216	38985	106514	0	0	8303	635617	0	0
2024-05-11 05:35:32			0	36605	0	0	0	17919	16530	140074	27060	965234	38974	106514	0	0	8303	635434	0	0
2024-05-11 05:36:32			0	36617	0	0	0	17906	16530	140094	27156	965207	38985	106509	0	0	8304	634912	0	0
2024-05-11 05:37:32			0	36633	0	0	0	17911	16540	140114	27511	965136	38974	106511	0	0	8305	634181	0	0
2024-05-11 05:38:32			0	36617	0	0	0	17914	16530	140078	27467	965146	38984	106512	0	0	8304	634912	0	0
2024-05-11 05:39:32			0	36627	0	0	0	17914	16540	140066	27208	965197	38985	106512	0	0	8304	634442	0	0
2024-05-11 05:40:32			0	36638	0	0	0	17914	16530	140018	27209	965155	38985	106512	0	0	8305	633998	0	0
2024-05-11 05:41:32			0	36619	0	0	0	17914	16530	139962	27345	965173	38984	106512	0	0	8304	634825	0	0
2024-05-11 05:42:32			0	36625	0	0	0	17916	16530	139958	27326	965173	38984	106513	0	0	8304	634564	0	0
2024-05-11 05:43:32			0	36622	0	0	0	17916	16530	139922	27176	965173	38984	106513	0	0	8304	634694	0	0
2024-05-11 05:44:32			0	36633	0	0	0	17919	16540	140010	27300	965163	38962	106514	0	0	8305	634181	0	0
2024-05-11 05:45:32			0	36615	0	0	0	17901	16520	139974	27281	965209	38994	106507	0	0	8304	635033	0	0
2024-05-11 05:46:32			0	36621	0	0	0	17903	16530	139934	27443	965234	38996	106508	0	0	8304	634738	0	0
2024-05-11 05:47:32			0	36627	0	0	0	17909	16540	139926	27284	965216	38985	106510	0	0	8304	634442	0	0
2024-05-11 05:48:32			0	36650	0	0	0	17906	16520	139894	27370	965130	38983	106509	0	0	8306	633511	0	0
2024-05-11 05:49:32			0	36636	0	0	0	17903	16530	139970	27124	965146	38973	106508	0	0	8305	634085	0	0
2024-05-11 05:50:32			0	36652	0	0	0	17903	16520	140010	27331	965112	38984	106508	0	0	8306	633424	0	0
2024-05-11 05:51:32			0	36640	0	0	0	17903	16530	139878	27183	965102	38996	106508	0	0	8305	633912	0	0
2024-05-11 05:52:32			0	36630	0	0	0	17911	16520	139874	27256	965138	38984	106511	0	0	8304	634380	0	0
2024-05-11 05:53:32			0	36659	0	0	0	17901	16530	139942	27324	965146	38995	106507	0	0	8306	633086	0	0
2024-05-11 05:54:32			0	36646	0	0	0	17901	16520	139750	27403	964998	38983	106507	0	0	8306	633685	0	0
2024-05-11 05:55:32			0	36651	0	0	0	17901	16520	139838	27265	965130	38983	106507	0	0	8306	633468	0	0
2024-05-11 05:56:32			0	36663	0	0	0	17888	16510	139862	27461	965043	38982	106502	0	0	8307	632981	0	0
2024-05-11 05:57:32			0	36643	0	0	0	17890	16520	139886	27149	965156	38983	106503	0	0	8306	633815	0	0
2024-05-11 05:58:32			0	36678	0	0	0	17890	16510	139850	27157	965043	38993	106503	0	0	8307	632330	0	0
2024-05-11 05:59:32			0	36666	0	0	0	17893	16510	139786	27312	965043	38982	106504	0	0	8307	632851	0	0
2024-05-11 06:00:32			0	36683	0	0	0	17888	16500	139822	27500	965079	38971	106502	0	0	8308	632147	0	0
2024-05-11 06:01:32			0	36677	0	0	0	17885	16510	139750	27353	965043	38982	106501	0	0	8307	632373	0	0
2024-05-11 06:02:32			0	36679	0	0	0	17883	16510	139882	27109	965043	38982	106500	0	0	8308	632287	0	0
2024-05-11 06:03:32			0	36665	0	0	0	17880	16510	139826	27150	965043	38982	106499	0	0	8307	632894	0	0
2024-05-11 06:04:32			0	36669	0	0	0	17885	16510	139818	27320	964982	38993	106501	0	0	8307	632721	0	0
2024-05-11 06:05:32			0	36665	0	0	0	17872	16510	139834	27663	964982	38971	106496	0	0	8307	632894	0	0
2024-05-11 06:06:32			0	36683	0	0	0	17877	16500	139774	27417	965053	38960	106498	0	0	8308	632147	0	0
2024-05-11 06:07:32			0	36700	0	0	0	17875	16500	139810	27248	964992	38981	106497	0	0	8309	631410	0	0
2024-05-11 06:08:32			0	36681	0	0	0	17870	16510	139770	27604	965034	38971	106495	0	0	8308	632200	0	0
2024-05-11 06:09:32			0	36676	0	0	0	17872	16490	139790	27402	964930	38991	106496	0	0	8307	632485	0	0
2024-05-11 06:10:32			0	36686	0	0	0	17880	16490	139738	27303	964957	38991	106499	0	0	8308	632051	0	0
2024-05-11 06:11:32			0	36687	0	0	0	17870	16490	139730	27222	964957	38980	106495	0	0	8308	632008	0	0
2024-05-11 06:12:32			0	36707	0	0	0	17870	16500	139770	27376	965018	38981	106495	0	0	8309	631107	0	0
2024-05-11 06:13:32			0	36697	0	0	0	17872	16490	139750	27208	965036	38969	106496	0	0	8309	631574	0	0
2024-05-11 06:14:32			0	36694	0	0	0	17875	16500	139778	27177	965123	38981	106497	0	0	8308	631670	0	0
2024-05-11 06:15:32			0	36713	0	0	0	17867	16490	139742	27419	965009	38980	106494	0	0	8310	630881	0	0
2024-05-11 06:16:32			0	36698	0	0	0	17872	16490	139666	27079	964975	38991	106496	0	0	8309	631531	0	0
2024-05-11 06:17:32			0	36705	0	0	0	17870	16480	139794	27400	964967	38980	106495	0	0	8309	631262	0	0
2024-05-11 06:18:32			0	36730	0	0	0	17870	16480	139674	27128	964967	38980	106495	0	0	8310	630179	0	0
2024-05-11 06:19:32			0	36710	0	0	0	17870	16490	139706	27431	964948	38969	106495	0	0	8309	631011	0	0
2024-05-11 06:20:32			0	36727	0	0	0	17867	16480	139670	27383	964967	38980	106494	0	0	8310	630309	0	0
2024-05-11 06:21:32			0	36714	0	0	0	17870	16490	139634	27206	964975	38969	106495	0	0	8310	630838	0	0
2024-05-11 06:22:32			0	36713	0	0	0	17857	16480	139694	27260	964940	38980	106490	0	0	8310	630915	0	0
2024-05-11 06:23:32			0	36711	0	0	0	17867	16480	139770	27000	964932	38958	106494	0	0	8309	631002	0	0
2024-05-11 06:24:32			0	36740	0	0	0	17854	16480	139714	27320	964958	38979	106489	0	0	8311	629746	0	0
2024-05-11 06:25:32			0	36719	0	0	0	17857	16480	139686	27312	964879	38968	106490	0	0	8310	630655	0	0
2024-05-11 06:26:32			0	36732	0	0	0	17851	16460	139690	27521	964828	38978	106488	0	0	8311	630160	0	0
2024-05-11 06:27:32			0	36719	0	0	0	17851	16470	139670	27402	964897	38967	106488	0	0	8310	630689	0	0
2024-05-11 06:28:32			0	36740	0	0	0	17846	16470	139698	27284	964810	38957	106486	0	0	8311	629780	0	0
2024-05-11 06:29:32			0	36733	0	0	0	17841	16470	139722	27435	964837	38967	106484	0	0	8311	630083	0	0
2024-05-11 06:30:32			0	36708	0	0	0	17831	16460	139694	27580	964802	38989	106480	0	0	8310	631200	0	0
2024-05-11 06:31:32			0	36722	0	0	0	17828	16460	139654	27201	964776	38978	106479	0	0	8311	630593	0	0
2024-05-11 06:32:32			0	36735	0	0	0	17812	16450	139686	27772	964759	38977	106473	0	0	8311	630065	0	0
2024-05-11 06:33:32			0	36735	0	0	0	17805	16450	139738	27286	964794	38989	106470	0	0	8312	630065	0	0
2024-05-11 06:34:32			0	36726	0	0	0	17815	16440	139702	27395	964769	38976	106474	0	0	8311	630488	0	0
2024-05-11 06:35:32			0	36741	0	0	0	17799	16430	139670	27395	964708	38976	106468	0	0	8312	629873	0	0
2024-05-11 06:36:32			0	36740	0	0	0	17797	16440	139706	27284	964743	38965	106467	0	0	8312	629882	0	0
2024-05-11 06:37:32			0	36749	0	0	0	17802	16440	139638	27564	964743	38976	106469	0	0	8312	629493	0	0
2024-05-11 06:38:32			0	36762	0	0	0	17792	16430	139610	27282	964761	38976	106465	0	0	8313	628965	0	0
2024-05-11 06:39:32			0	36761	0	0	0	17792	16430	139574	27282	964700	38964	106465	0	0	8313	629008	0	0
2024-05-11 06:40:32			0	36754	0	0	0	17797	16430	139470	27339	964700	38964	106467	0	0	8313	629311	0	0
2024-05-11 06:41:32			0	36776	0	0	0	17789	16410	139554	27412	964728	38963	106464	0	0	8314	628428	0	0
2024-05-11 06:42:32			0	36773	0	0	0	17789	16410	139554	27357	964675	38974	106464	0	0	8314	628557	0	0
2024-05-11 06:43:32			0	36770	0	0	0	17789	16400	139574	27319	964633	38951	106464	0	0	8314	628721	0	0
2024-05-11 06:44:32			0	36783	0	0	0	17792	16410	139538	27098	964675	38963	106465	0	0	8314	628125	0	0
2024-05-11 06:45:32			0	36758	0	0	0	17786	16410	139566	27727	964649	38985	106463	0	0	8313	629206	0	0
2024-05-11 06:46:32			0	36768	0	0	0	17779	16400	139526	27168	964606	38961	106460	0	0	8314	628807	0	0
2024-05-11 06:47:32			0	36760	0	0	0	17771	16400	139422	27448	964598	38961	106457	0	0	8313	629153	0	0
2024-05-11 06:48:32			0	36761	0	0	0	17774	16390	139538	27452	964590	38961	106458	0	0	8313	629144	0	0
2024-05-11 06:49:32			0	36781	0	0	0	17771	16390	139526	27543	964590	38961	106457	0	0	8314	628280	0	0
2024-05-11 06:50:32			0	36767	0	0	0	17766	16390	139566	27390	964669	38973	106455	0	0	8314	628885	0	0
2024-05-11 06:51:32			0	36778	0	0	0	17766	16390	139530	27287	964616	38951	106455	0	0	8314	628409	0	0
2024-05-11 06:52:32			0	36767	0	0	0	17781	16390	139642	27086	964616	38961	106461	0	0	8313	628885	0	0
2024-05-11 06:53:32			0	36774	0	0	0	17781	16400	139642	27757	964624	38984	106461	0	0	8314	628548	0	0
2024-05-11 06:54:32			0	36748	0	0	0	17774	16400	139658	27367	964624	38973	106458	0	0	8313	629672	0	0
2024-05-11 06:55:32			0	36744	0	0	0	17789	16400	139658	27306	964633	38973	106464	0	0	8312	629845	0	0
2024-05-11 06:56:32			0	36738	0	0	0	17786	16390	139634	27421	964661	38961	106463	0	0	8312	630139	0	0
2024-05-11 06:57:32			0	36728	0	0	0	17792	16400	139710	27086	964685	38961	106465	0	0	8311	630538	0	0
2024-05-11 06:58:32			0	36727	0	0	0	17802	16390	139690	27403	964722	38973	106469	0	0	8311	630616	0	0
2024-05-11 06:59:32			0	36709	0	0	0	17810	16410	139798	27384	964754	38974	106472	0	0	8310	631327	0	0
2024-05-11 07:00:32			0	36693	0	0	0	17807	16400	139822	27175	964633	38973	106471	0	0	8309	632055	0	0
2024-05-11 07:01:32			0	36698	0	0	0	17799	16390	139922	27289	964537	38951	106468	0	0	8309	631872	0	0
2024-05-11 07:02:32			0	36673	0	0	0	17797	16390	139822	27384	964590	38951	106467	0	0	8308	632958	0	0
2024-05-11 07:03:32			0	36678	0	0	0	17797	16380	139886	27298	964486	38949	106467	0	0	8308	632775	0	0
2024-05-11 07:04:32			0	36658	0	0	0	17781	16370	140030	27098	964451	38949	106461	0	0	8308	633678	0	0
2024-05-11 07:05:32			0	36649	0	0	0	17766	16360	140010	27535	964382	38958	106455	0	0	8307	634103	0	0
2024-05-11 07:06:32			0	36624	0	0	0	17761	16340	140074	27177	964349	38957	106453	0	0	8306	635259	0	0
2024-05-11 07:07:32			0	36636	0	0	0	17729	16340	140170	27138	964270	38957	106441	0	0	8307	634737	0	0
2024-05-11 07:08:32			0	36646	0	0	0	17716	16330	140170	27379	964254	38967	106436	0	0	8308	634336	0	0
2024-05-11 07:09:32			0	36619	0	0	0	17701	16320	140178	27277	964237	38956	106430	0	0	8307	635546	0	0
2024-05-11 07:10:32			0	36593	0	0	0	17690	16320	140285	27083	964255	38976	106426	0	0	8305	636679	0	0
2024-05-11 07:11:32			0	36602	0	0	0	17683	16320	140314	27357	964211	38956	106423	0	0	8306	636287	0	0
2024-05-11 07:12:32			0	36570	0	0	0	17683	16310	140269	27426	964265	38964	106423	0	0	8304	637717	0	0
2024-05-11 07:13:32			0	36576	0	0	0	17683	16310	140277	27414	964318	38964	106423	0	0	8305	637455	0	0
2024-05-11 07:14:32			0	36558	0	0	0	17688	16300	140453	27485	964257	38964	106425	0	0	8303	638275	0	0
2024-05-11 07:15:32			0	36554	0	0	0	17688	16300	140417	27307	964223	38974	106425	0	0	8303	638450	0	0
2024-05-11 07:16:32			0	36545	0	0	0	17688	16310	140501	27424	964239	38964	106425	0	0	8303	638809	0	0
2024-05-11 07:17:32			0	36526	0	0	0	17690	16310	140525	27227	964292	38964	106426	0	0	8302	639640	0	0
2024-05-11 07:18:32			0	36515	0	0	0	17690	16310	140465	27119	964300	38954	106426	0	0	8301	640121	0	0
2024-05-11 07:19:32			0	36522	0	0	0	17690	16310	140505	27434	964292	38975	106426	0	0	8302	639815	0	0
2024-05-11 07:20:32			0	36513	0	0	0	17690	16310	140577	27279	964292	38964	106426	0	0	8301	640208	0	0
2024-05-11 07:21:32			0	36513	0	0	0	17693	16310	140597	27348	964265	38964	106427	0	0	8301	640208	0	0
2024-05-11 07:22:32			0	36504	0	0	0	17693	16310	140573	27580	964300	38954	106427	0	0	8301	640602	0	0
2024-05-11 07:23:32			0	36493	0	0	0	17703	16320	140625	27339	964361	38955	106431	0	0	8300	641050	0	0
2024-05-11 07:24:32			0	36515	0	0	0	17706	16320	140493	27402	964369	38944	106432	0	0	8301	640086	0	0
2024-05-11 07:25:32			0	36513	0	0	0	17714	16320	140453	27317	964369	38966	106435	0	0	8301	640174	0	0
2024-05-11 07:26:32			0	36500	0	0	0	17716	16320	140513	27230	964369	38966	106436	0	0	8300	640743	0	0
2024-05-11 07:27:32			0	36503	0	0	0	17732	16330	140493	27379	964430	38967	106442	0	0	8300	640577	0	0
2024-05-11 07:28:32			0	36520	0	0	0	17727	16320	140409	27635	964422	38966	106440	0	0	8301	639868	0	0
2024-05-11 07:29:32			0	36546	0	0	0	17737	16330	140421	27287	964438	38967	106444	0	0	8302	638696	0	0
2024-05-11 07:30:32			0	36523	0	0	0	17745	16340	140409	27471	964499	38956	106447	0	0	8301	639667	0	0
2024-05-11 07:31:32			0	36542	0	0	0	17748	16330	140369	27306	964438	38956	106448	0	0	8302	638871	0	0
2024-05-11 07:32:32			0	36541	0	0	0	17748	16340	140409	27543	964499	38956	106448	0	0	8302	638880	0	0
2024-05-11 07:33:32			0	36552	0	0	0	17753	16330	140349	27390	964517	38978	106450	0	0	8302	638434	0	0
2024-05-11 07:34:32			0	36536	0	0	0	17758	16350	140417	27274	964550	38968	106452	0	0	8301	639064	0	0
2024-05-11 07:35:32			0	36538	0	0	0	17771	16350	140409	27357	964497	38958	106457	0	0	8301	638977	0	0
2024-05-11 07:36:32			0	36530	0	0	0	17768	16360	140417	27505	964585	38968	106456	0	0	8301	639292	0	0
2024-05-11 07:37:32			0	36536	0	0	0	17781	16360	140425	27403	964611	38968	106461	0	0	8301	639030	0	0
2024-05-11 07:38:32			0	36519	0	0	0	17781	16360	140409	27848	964540	38969	106461	0	0	8300	639773	0	0
2024-05-11 07:39:32			0	36507	0	0	0	17789	16380	140609	27384	964618	38981	106464	0	0	8299	640229	0	0
2024-05-11 07:40:32			0	36501	0	0	0	17789	16370	140625	27268	964583	38970	106464	0	0	8299	640526	0	0
2024-05-11 07:41:32			0	36483	0	0	0	17786	16380	140585	27613	964618	38959	106463	0	0	8298	641280	0	0
2024-05-11 07:42:32			0	36462	0	0	0	17784	16370	140617	27293	964583	38949	106462	0	0	8297	642235	0	0
2024-05-11 07:43:32			0	36427	0	0	0	17771	16380	140737	27307	964565	38970	106457	0	0	8295	643737	0	0
2024-05-11 07:44:32			0	36435	0	0	0	17753	16370	140765	27171	964557	38959	106450	0	0	8296	643420	0	0
2024-05-11 07:45:32			0	36414	0	0	0	17724	16370	140761	27229	964469	38970	106439	0	0	8295	644343	0	0
2024-05-11 07:46:32			0	36398	0	0	0	17703	16360	140881	27599	964487	38958	106431	0	0	8295	645082	0	0
2024-05-11 07:47:32			0	36419	0	0	0	17688	16360	140861	27267	964453	38947	106425	0	0	8296	644158	0	0
2024-05-11 07:48:32			0	36399	0	0	0	17680	16350	140921	27602	964418	38958	106422	0	0	8295	645072	0	0
2024-05-11 07:49:32			0	36369	0	0	0	17664	16350	141037	27581	964331	38958	106416	0	0	8294	646393	0	0
2024-05-11 07:50:32			0	36365	0	0	0	17667	16340	141053	27691	964349	38967	106417	0	0	8294	646604	0	0
2024-05-11 07:51:32			0	36349	0	0	0	17651	16340	141069	27364	964262	38945	106411	0	0	8293	647310	0	0
2024-05-11 07:52:32			0	36312	0	0	0	17654	16330	141205	27751	964306	38967	106412	0	0	8291	648978	0	0
2024-05-11 07:53:32			0	36245	0	0	0	17690	16340	141385	27362	964394	38945	106426	0	0	8287	651908	0	0
2024-05-11 07:54:32			0	36207	0	0	0	17711	16330	141641	27748	964404	38945	106434	0	0	8284	653629	0	0
2024-05-11 07:55:32			0	36130	0	0	0	17716	16330	141925	27478	964351	38945	106436	0	0	8280	657055	0	0
2024-05-11 07:56:32			0	36024	0	0	0	17706	16330	142277	27474	964438	38956	106432	0	0	8274	661792	0	0
2024-05-11 07:57:32			0	35949	0	0	0	17709	16330	142677	27279	964385	38956	106433	0	0	8270	665157	0	0
2024-05-11 07:58:32			0	35829	0	0	0	17706	16340	143132	27183	964402	38957	106432	0	0	8264	670532	0	0
2024-05-11 07:59:32			0	35763	0	0	0	17709	16340	143488	27647	964367	38956	106433	0	0	8260	673521	0	0
2024-05-11 08:00:32			0	35692	0	0	0	17709	16340	143720	27417	964367	38967	106433	0	0	8256	676747	0	0
2024-05-11 08:01:32			0	35609	0	0	0	17701	16330	144040	27815	964465	38956	106430	0	0	8252	680570	0	0
2024-05-11 08:02:32			0	35538	0	0	0	17711	16330	144228	27550	964430	38945	106434	0	0	8248	683820	0	0
2024-05-11 08:03:32			0	35480	0	0	0	17716	16330	144428	27443	964412	38956	106436	0	0	8245	686484	0	0
2024-05-11 08:04:32			0	35450	0	0	0	17727	16340	144684	27319	964473	38967	106440	0	0	8243	687828	0	0
2024-05-11 08:05:32			0	35385	0	0	0	17750	16340	144892	27606	964455	38957	106449	0	0	8239	690827	0	0
2024-05-11 08:06:32			0	35345	0	0	0	17766	16340	145120	27383	964481	38967	106455	0	0	8236	692677	0	0
2024-05-11 08:07:32			0	35316	0	0	0	17774	16350	145280	27481	964576	38968	106458	0	0	8235	693983	0	0
2024-05-11 08:08:32			0	35281	0	0	0	17786	16350	145348	27613	964524	38979	106463	0	0	8232	695607	0	0
2024-05-11 08:09:32			0	35248	0	0	0	17781	16350	145436	27192	964576	38968	106461	0	0	8231	697141	0	0
2024-05-11 08:10:32			0	35221	0	0	0	17794	16370	145480	27384	964610	38959	106466	0	0	8229	698322	0	0
2024-05-11 08:11:32			0	35185	0	0	0	17792	16370	145664	27512	964610	38981	106465	0	0	8227	700000	0	0
2024-05-11 08:12:32			0	35178	0	0	0	17812	16380	145708	27329	964697	38970	106473	0	0	8226	700289	0	0
2024-05-11 08:13:32			0	35164	0	0	0	17833	16380	145912	27776	964697	38970	106481	0	0	8225	700942	0	0
2024-05-11 08:14:32			0	35134	0	0	0	17849	16400	145968	27325	964756	38995	106487	0	0	8223	702269	0	0
2024-05-11 08:15:32			0	35128	0	0	0	17867	16410	145972	27488	964825	38973	106494	0	0	8223	702511	0	0
2024-05-11 08:16:32			0	35109	0	0	0	17872	16410	145992	27426	964807	38985	106496	0	0	8222	703401	0	0
2024-05-11 08:17:32			0	35116	0	0	0	17888	16420	145884	27421	964868	38974	106502	0	0	8222	703035	0	0
2024-05-11 08:18:32			0	35101	0	0	0	17890	16430	146015	27222	964998	38976	106503	0	0	8221	703699	0	0
2024-05-11 08:19:32			0	35107	0	0	0	17890	16440	145983	27248	964954	38998	106503	0	0	8221	703380	0	0
2024-05-11 08:20:32			0	35105	0	0	0	17901	16450	146003	27301	965031	38989	106507	0	0	8221	703436	0	0
2024-05-11 08:21:32			0	35100	0	0	0	17901	16460	145935	27350	965039	39000	106507	0	0	8221	703632	0	0
2024-05-11 08:22:32			0	35097	0	0	0	17903	16470	145955	27145	965100	38990	106508	0	0	8221	703734	0	0
2024-05-11 08:23:32			0	35120	0	0	0	17898	16470	145908	27933	965108	38979	106506	0	0	8222	702658	0	0
2024-05-11 08:24:32			0	35112	0	0	0	17901	16470	145871	27362	965056	38990	106507	0	0	8222	703032	0	0
2024-05-11 08:25:32			0	35116	0	0	0	17903	16480	145832	27450	965064	38979	106508	0	0	8222	702807	0	0
2024-05-11 08:26:32			0	35145	0	0	0	17898	16490	145784	27277	965115	39002	106506	0	0	8224	701413	0	0
2024-05-11 08:27:32			0	35152	0	0	0	17906	16490	145712	27490	965133	38991	106509	0	0	8224	701086	0	0
2024-05-11 08:28:32			0	35161	0	0	0	17909	16490	145732	27053	965168	38980	106510	0	0	8224	700666	0	0
2024-05-11 08:29:32			0	35177	0	0	0	17911	16490	145612	27253	965089	38980	106511	0	0	8225	699919	0	0
2024-05-11 08:30:32			0	35174	0	0	0	17901	16490	145624	27486	965168	38991	106507	0	0	8225	700059	0	0
2024-05-11 08:31:32			0	35210	0	0	0	17911	16500	145488	27348	965176	38992	106511	0	0	8227	698343	0	0
2024-05-11 08:32:32			0	35207	0	0	0	17906	16510	145532	27585	965166	38982	106509	0	0	8227	698445	0	0
2024-05-11 08:33:32			0	35213	0	0	0	17916	16500	145360	27492	965184	38982	106513	0	0	8227	698204	0	0
2024-05-11 08:34:32			0	35231	0	0	0	17906	16500	145428	27419	965158	38993	106509	0	0	8228	697366	0	0
2024-05-11 08:35:32			0	35275	0	0	0	17914	16510	145336	27540	965201	38993	106512	0	0	8231	695284	0	0
2024-05-11 08:36:32			0	35264	0	0	0	17922	16510	145292	27467	965193	38993	106515	0	0	8230	695794	0	0
2024-05-11 08:37:32			0	35271	0	0	0	17919	16510	145244	27298	965201	38993	106514	0	0	8230	695469	0	0
2024-05-11 08:38:32			0	35284	0	0	0	17927	16520	145276	27152	965296	38995	106517	0	0	8231	694828	0	0
2024-05-11 08:39:32			0	35298	0	0	0	17924	16530	145076	27405	965199	39016	106516	0	0	8232	694142	0	0
2024-05-11 08:40:32			0	35304	0	0	0	17927	16530	145076	27639	965146	38995	106517	0	0	8232	693864	0	0
2024-05-11 08:41:32			0	35327	0	0	0	17932	16530	145040	27287	965207	38996	106519	0	0	8233	692798	0	0
2024-05-11 08:42:32			0	35332	0	0	0	17929	16530	144964	27441	965278	39005	106518	0	0	8234	692567	0	0
2024-05-11 08:43:32			0	35352	0	0	0	17935	16530	144884	27324	965252	38984	106520	0	0	8235	691642	0	0
2024-05-11 08:44:32			0	35380	0	0	0	17935	16530	144868	27434	965260	39006	106520	0	0	8236	690348	0	0
2024-05-11 08:45:32			0	35380	0	0	0	17932	16520	144720	27322	965296	38995	106519	0	0	8236	690385	0	0
2024-05-11 08:46:32			0	35403	0	0	0	17945	16540	144740	27365	965303	38997	106524	0	0	8237	689249	0	0
2024-05-11 08:47:32			0	35403	0	0	0	17945	16540	144640	27476	965242	39006	106524	0	0	8237	689249	0	0
2024-05-11 08:48:32			0	35428	0	0	0	17942	16540	144608	27514	965250	38985	106523	0	0	8239	688097	0	0
2024-05-11 08:49:32			0	35438	0	0	0	17942	16550	144568	27616	965232	39007	106523	0	0	8239	687600	0	0
2024-05-11 08:50:32			0	35458	0	0	0	17940	16540	144492	27590	965295	38985	106522	0	0	8240	686716	0	0
2024-05-11 08:51:32			0	35459	0	0	0	17945	16550	144460	27549	965311	38997	106524	0	0	8240	686633	0	0
2024-05-11 08:52:32			0	35473	0	0	0	17942	16540	144368	27244	965329	38985	106523	0	0	8241	686027	0	0
2024-05-11 08:53:32			0	35476	0	0	0	17950	16540	144316	27388	965303	38985	106526	0	0	8241	685889	0	0
2024-05-11 08:54:32			0	35476	0	0	0	17950	16550	144280	27067	965346	38998	106526	0	0	8241	685852	0	0
2024-05-11 08:55:32			0	35504	0	0	0	17953	16550	144220	27441	965398	38998	106527	0	0	8243	684566	0	0
2024-05-11 08:56:32			0	35514	0	0	0	17955	16550	144192	27315	965372	39008	106528	0	0	8243	684107	0	0
2024-05-11 08:57:32			0	35515	0	0	0	17966	16560	144152	27339	965380	38998	106532	0	0	8243	684025	0	0
2024-05-11 08:58:32			0	35547	0	0	0	17966	16560	144160	27422	965380	39008	106532	0	0	8245	682558	0	0
2024-05-11 08:59:32			0	35531	0	0	0	17966	16570	144136	27422	965405	39009	106532	0	0	8244	683254	0	0
2024-05-11 09:00:32			0	35559	0	0	0	17966	16560	144036	27241	965415	39008	106532	0	0	8246	682009	0	0
2024-05-11 09:01:32			0	35572	0	0	0	17971	16570	144072	27277	965458	39009	106534	0	0	8246	681377	0	0
2024-05-11 09:02:32			0	35582	0	0	0	17971	16580	143980	27287	965474	39000	106534	0	0	8247	680883	0	0
2024-05-11 09:03:32			0	35578	0	0	0	17979	16580	143924	27229	965387	39009	106537	0	0	8247	681066	0	0
2024-05-11 09:04:32			0	35556	0	0	0	17961	16580	143936	27282	965474	39000	106530	0	0	8246	682072	0	0
2024-05-11 09:05:32			0	35594	0	0	0	17971	16590	143916	27516	965430	39000	106534	0	0	8248	680298	0	0
2024-05-11 09:06:32			0	35603	0	0	0	17976	16580	143996	27353	965448	39010	106536	0	0	8248	679924	0	0
2024-05-11 09:07:32			0	35600	0	0	0	17981	16580	143860	27067	965527	39000	106538	0	0	8248	680061	0	0
2024-05-11 09:08:32			0	35598	0	0	0	17986	16570	143896	27201	965431	38988	106540	0	0	8248	680189	0	0
2024-05-11 09:09:32			0	35600	0	0	0	17979	16580	143864	27388	965387	38988	106537	0	0	8248	680061	0	0
2024-05-11 09:10:32			0	35607	0	0	0	17984	16580	143796	27350	965421	39000	106539	0	0	8248	679742	0	0
2024-05-11 09:11:32			0	35626	0	0	0	17986	16580	143812	27538	965439	39009	106540	0	0	8249	678875	0	0
2024-05-11 09:12:32			0	35620	0	0	0	17986	16590	143756	27604	965535	38979	106540	0	0	8249	679112	0	0
2024-05-11 09:13:32			0	35648	0	0	0	17994	16590	143808	27602	965517	39000	106543	0	0	8250	677835	0	0
2024-05-11 09:14:32			0	35651	0	0	0	17997	16600	143672	27452	965525	39001	106544	0	0	8250	677662	0	0
2024-05-11 09:15:32			0	35650	0	0	0	17997	16590	143724	27364	965570	39011	106544	0	0	8250	677744	0	0
2024-05-11 09:16:32			0	35650	0	0	0	18002	16600	143652	27358	965551	38991	106546	0	0	8250	677707	0	0
2024-05-11 09:17:32			0	35658	0	0	0	17999	16600	143676	27371	965499	39012	106545	0	0	8251	677343	0	0
2024-05-11 09:18:32			0	35664	0	0	0	18002	16600	143664	27173	965551	39012	106546	0	0	8251	677070	0	0
2024-05-11 09:19:32			0	35684	0	0	0	18002	16600	143632	27213	965551	39001	106546	0	0	8252	676160	0	0
2024-05-11 09:20:32			0	35679	0	0	0	18007	16600	143600	27422	965533	39012	106548	0	0	8252	676387	0	0
2024-05-11 09:21:32			0	35684	0	0	0	17994	16610	143632	27400	965603	39013	106543	0	0	8252	676123	0	0
2024-05-11 09:22:32			0	35681	0	0	0	18005	16610	143400	27199	965542	39013	106547	0	0	8252	676260	0	0
2024-05-11 09:23:32			0	35680	0	0	0	18005	16600	143472	27279	965533	39001	106547	0	0	8252	676342	0	0
2024-05-11 09:24:32			0	35688	0	0	0	18002	16600	143448	27500	965551	39001	106546	0	0	8252	675978	0	0
2024-05-11 09:25:32			0	35703	0	0	0	18010	16600	143372	27358	965560	39012	106549	0	0	8253	675296	0	0
2024-05-11 09:26:32			0	35718	0	0	0	18007	16610	143388	27241	965594	39002	106548	0	0	8254	674579	0	0
2024-05-11 09:27:32			0	35711	0	0	0	18012	16610	143424	27331	965550	39013	106550	0	0	8253	674897	0	0
2024-05-11 09:28:32			0	35739	0	0	0	18012	16610	143356	27599	965594	39013	106550	0	0	8255	673626	0	0
2024-05-11 09:29:32			0	35750	0	0	0	18012	16610	143264	27469	965550	39002	106550	0	0	8256	673127	0	0
2024-05-11 09:30:32			0	35740	0	0	0	18018	16620	143152	27523	965584	38992	106552	0	0	8255	673544	0	0
2024-05-11 09:31:32			0	35739	0	0	0	18020	16630	143176	27512	965680	39003	106553	0	0	8255	673553	0	0
2024-05-11 09:32:32			0	35765	0	0	0	18020	16620	143184	27341	965584	39003	106553	0	0	8256	672411	0	0
2024-05-11 09:33:32			0	35757	0	0	0	18025	16620	143120	27261	965593	39014	106555	0	0	8256	672773	0	0
2024-05-11 09:34:32			0	35768	0	0	0	18025	16630	143108	27395	965601	39014	106555	0	0	8256	672239	0	0
2024-05-11 09:35:32			0	35793	0	0	0	18023	16630	143132	27251	965654	39003	106554	0	0	8258	671108	0	0
2024-05-11 09:36:32			0	35804	0	0	0	18025	16620	143128	27583	965619	39003	106555	0	0	8258	670646	0	0
2024-05-11 09:37:32			0	35819	0	0	0	18023	16630	143088	27459	965636	39003	106554	0	0	8259	669932	0	0
2024-05-11 09:38:32			0	35809	0	0	0	18025	16630	142968	27533	965680	39003	106555	0	0	8259	670384	0	0
2024-05-11 09:39:32			0	35828	0	0	0	18036	16630	142872	27630	965662	39014	106559	0	0	8260	669526	0	0
2024-05-11 09:40:32			0	35862	0	0	0	18036	16630	142873	27334	965680	39003	106559	0	0	8261	667992	0	0
2024-05-11 09:41:32			0	35864	0	0	0	18031	16640	142769	27639	965697	39004	106557	0	0	8262	667866	0	0
2024-05-11 09:42:32			0	35870	0	0	0	18033	16630	142641	27175	965680	38993	106558	0	0	8262	667632	0	0
2024-05-11 09:43:32			0	35898	0	0	0	18036	16640	142653	27675	965697	39004	106559	0	0	8263	666335	0	0
2024-05-11 09:44:32			0	35911	0	0	0	18036	16630	142473	27145	965654	39026	106559	0	0	8264	665786	0	0
2024-05-11 09:45:32			0	35942	0	0	0	18036	16630	142393	27242	965715	39003	106559	0	0	8266	664393	0	0
2024-05-11 09:46:32			0	35952	0	0	0	18044	16650	142345	27119	965660	39027	106562	0	0	8266	663872	0	0
2024-05-11 09:47:32			0	35980	0	0	0	18046	16640	142197	27455	965731	39015	106563	0	0	8268	662653	0	0
2024-05-11 09:48:32			0	36007	0	0	0	18049	16640	142169	27355	965626	39027	106564	0	0	8269	661443	0	0
2024-05-11 09:49:32			0	36006	0	0	0	18054	16640	142177	27578	965705	39004	106566	0	0	8269	661488	0	0
2024-05-11 09:50:32			0	36032	0	0	0	18054	16650	142005	27654	965739	39005	106566	0	0	8270	660289	0	0
2024-05-11 09:51:32			0	36060	0	0	0	18046	16650	141977	27395	965739	39016	106563	0	0	8272	659038	0	0
2024-05-11 09:52:32			0	36077	0	0	0	18049	16650	141925	27552	965774	39027	106564	0	0	8273	658280	0	0
2024-05-11 09:53:32			0	36090	0	0	0	18059	16650	141885	27642	965774	39016	106568	0	0	8273	657700	0	0
2024-05-11 09:54:32			0	36106	0	0	0	18046	16650	141773	27294	965766	39016	106563	0	0	8275	656987	0	0
2024-05-11 09:55:32			0	36119	0	0	0	18062	16650	141741	27796	965800	39016	106569	0	0	8275	656408	0	0
2024-05-11 09:56:32			0	36151	0	0	0	18057	16660	141685	27505	965790	39018	106567	0	0	8277	654949	0	0
2024-05-11 09:57:32			0	36160	0	0	0	18064	16660	141665	27268	965756	39006	106570	0	0	8277	654549	0	0
2024-05-11 09:58:32			0	36156	0	0	0	18067	16660	141649	27274	965764	39018	106571	0	0	8277	654727	0	0
2024-05-11 09:59:32			0	36178	0	0	0	18059	16660	141597	27163	965782	39006	106568	0	0	8278	653750	0	0
2024-05-11 10:00:32			0	36177	0	0	0	18064	16670	141501	27346	965851	39018	106570	0	0	8278	653759	0	0
2024-05-11 10:01:32			0	36188	0	0	0	18057	16660	141521	27222	965817	39018	106567	0	0	8279	653306	0	0
2024-05-11 10:02:32			0	36170	0	0	0	18059	16660	141445	27478	965756	39017	106568	0	0	8278	654105	0	0
2024-05-11 10:03:32			0	36190	0	0	0	18062	16670	141553	27561	965851	39029	106569	0	0	8279	653182	0	0
2024-05-11 10:04:32			0	36154	0	0	0	18064	16670	141501	27421	965807	39019	106570	0	0	8277	654781	0	0
2024-05-11 10:05:32			0	36176	0	0	0	18067	16670	141417	27566	965781	39030	106571	0	0	8278	653804	0	0
2024-05-11 10:06:32			0	36182	0	0	0	18080	16670	141561	27684	965860	39019	106576	0	0	8278	653537	0	0
2024-05-11 10:07:32			0	36183	0	0	0	18083	16670	141541	27275	965886	39019	106577	0	0	8278	653493	0	0
2024-05-11 10:08:32			0	36162	0	0	0	18085	16680	141701	27798	965824	39020	106578	0	0	8277	654390	0	0
2024-05-11 10:09:32			0	36149	0	0	0	18083	16680	141609	27409	965876	39020	106577	0	0	8276	654967	0	0
2024-05-11 10:10:32			0	36116	0	0	0	18109	16690	141605	27692	965911	39020	106587	0	0	8274	656400	0	0
2024-05-11 10:11:32			0	36136	0	0	0	18124	16690	141677	27511	965964	39031	106593	0	0	8275	655510	0	0
2024-05-11 10:12:32			0	36136	0	0	0	18129	16690	141717	27798	965990	39020	106595	0	0	8275	655510	0	0
2024-05-11 10:13:32			0	36122	0	0	0	18124	16690	141749	27417	965972	39021	106593	0	0	8274	656132	0	0
2024-05-11 10:14:32			0	36107	0	0	0	18129	16710	141777	27817	966058	39033	106595	0	0	8273	656729	0	0
2024-05-11 10:15:32			0	36104	0	0	0	18135	16710	141785	27654	966076	39033	106597	0	0	8273	656863	0	0
2024-05-11 10:16:32			0	36103	0	0	0	18153	16720	141813	27514	966066	39011	106604	0	0	8273	656872	0	0
2024-05-11 10:17:32			0	36074	0	0	0	18142	16720	141897	27390	966145	39033	106600	0	0	8271	658164	0	0
2024-05-11 10:18:32			0	36071	0	0	0	18142	16720	141913	27659	966145	39033	106600	0	0	8271	658298	0	0
2024-05-11 10:19:32			0	36051	0	0	0	18155	16730	141937	27665	966135	39024	106605	0	0	8270	659155	0	0
2024-05-11 10:20:32			0	36069	0	0	0	18161	16750	141933	27850	966160	39036	106607	0	0	8271	658280	0	0
2024-05-11 10:21:32			0	36074	0	0	0	18161	16740	141937	27557	966152	39035	106607	0	0	8271	658093	0	0
2024-05-11 10:22:32			0	36062	0	0	0	18163	16740	141917	27436	966125	39024	106608	0	0	8271	658628	0	0
2024-05-11 10:23:32			0	36039	0	0	0	18161	16750	142117	27357	966213	39046	106607	0	0	8269	659619	0	0
2024-05-11 10:24:32			0	36033	0	0	0	18171	16760	142033	27573	966176	39026	106611	0	0	8269	659851	0	0
2024-05-11 10:25:32			0	36028	0	0	0	18163	16760	141985	27334	966176	39037	106608	0	0	8269	660075	0	0
2024-05-11 10:26:32			0	36034	0	0	0	18158	16750	142061	27530	966195	39026	106606	0	0	8269	659842	0	0
2024-05-11 10:27:32			0	36028	0	0	0	18161	16760	142037	27528	966203	39026	106607	0	0	8269	660075	0	0
2024-05-11 10:28:32			0	36039	0	0	0	18163	16760	141981	27717	966176	39047	106608	0	0	8269	659583	0	0
2024-05-11 10:29:32			0	36014	0	0	0	18163	16760	142045	27549	966211	39038	106608	0	0	8268	660701	0	0
2024-05-11 10:30:32			0	36007	0	0	0	18163	16770	142121	27838	966246	39038	106608	0	0	8268	660978	0	0
2024-05-11 10:31:32			0	36033	0	0	0	18153	16770	142137	27646	966201	39016	106604	0	0	8269	659816	0	0
2024-05-11 10:32:32			0	36003	0	0	0	18158	16770	142101	27677	966167	39038	106606	0	0	8268	661157	0	0
2024-05-11 10:33:32			0	36006	0	0	0	18158	16760	142077	27651	966158	39027	106606	0	0	8268	661058	0	0
2024-05-11 10:34:32			0	36003	0	0	0	18153	16760	142197	27237	966185	39027	106604	0	0	8268	661193	0	0
2024-05-11 10:35:32			0	35975	0	0	0	18150	16770	142237	27346	966228	39027	106603	0	0	8266	662410	0	0
2024-05-11 10:36:32			0	35972	0	0	0	18155	16770	142173	27431	966228	39039	106605	0	0	8266	662545	0	0
2024-05-11 10:37:32			0	35976	0	0	0	18163	16780	142265	27486	966236	39028	106608	0	0	8266	662330	0	0
2024-05-11 10:38:32			0	35964	0	0	0	18155	16770	142265	27630	966254	39049	106605	0	0	8266	662903	0	0
2024-05-11 10:39:32			0	35945	0	0	0	18163	16770	142345	27557	966219	39027	106608	0	0	8264	663755	0	0
2024-05-11 10:40:32			0	35965	0	0	0	18163	16780	142381	27568	966289	39039	106608	0	0	8265	662822	0	0
2024-05-11 10:41:32			0	35934	0	0	0	18168	16780	142373	27784	966270	39039	106610	0	0	8264	664213	0	0
2024-05-11 10:42:32			0	35922	0	0	0	18174	16780	142517	27293	966323	39028	106612	0	0	8263	664751	0	0
2024-05-11 10:43:32			0	35902	0	0	0	18181	16780	142409	27675	966297	39028	106615	0	0	8262	665650	0	0
2024-05-11 10:44:32			0	35882	0	0	0	18181	16780	142509	27647	966323	39039	106615	0	0	8261	666549	0	0
2024-05-11 10:45:32			0	35876	0	0	0	18184	16790	142601	27386	966358	39050	106616	0	0	8260	666783	0	0
2024-05-11 10:46:32			0	35878	0	0	0	18192	16780	142581	27698	966323	39028	106619	0	0	8260	666730	0	0
2024-05-11 10:47:32			0	35866	0	0	0	18194	16790	142677	27566	966331	39039	106620	0	0	8260	667233	0	0
2024-05-11 10:48:32			0	35842	0	0	0	18189	16800	142760	27313	966374	39041	106618	0	0	8258	668279	0	0
2024-05-11 10:49:32			0	35830	0	0	0	18197	16790	142804	27744	966358	39039	106621	0	0	8258	668856	0	0
2024-05-11 10:50:32			0	35819	0	0	0	18215	16800	142756	27587	966382	39041	106628	0	0	8257	669316	0	0
2024-05-11 10:51:32			0	35792	0	0	0	18220	16810	142764	27338	966417	39030	106630	0	0	8255	670499	0	0
2024-05-11 10:52:32			0	35783	0	0	0	18223	16810	142944	27562	966417	39041	106631	0	0	8255	670905	0	0
2024-05-11 10:53:32			0	35804	0	0	0	18223	16810	142972	27493	966417	39041	106631	0	0	8256	669957	0	0
2024-05-11 10:54:32			0	35768	0	0	0	18228	16810	143008	27251	966425	39041	106633	0	0	8254	671584	0	0
2024-05-11 10:55:32			0	35771	0	0	0	18223	16810	143024	27649	966478	39041	106631	0	0	8254	671448	0	0
2024-05-11 10:56:32			0	35732	0	0	0	18225	16810	142952	27287	966452	39063	106632	0	0	8252	673214	0	0
2024-05-11 10:57:32			0	35755	0	0	0	18233	16820	143116	27277	966460	39042	106635	0	0	8253	672136	0	0
2024-05-11 10:58:32			0	35726	0	0	0	18241	16820	143072	27582	966468	39042	106638	0	0	8251	673449	0	0
2024-05-11 10:59:32			0	35729	0	0	0	18236	16820	143096	27282	966494	39053	106636	0	0	8252	673313	0	0
2024-05-11 11:00:32			0	35721	0	0	0	18238	16830	143212	27835	966529	39053	106637	0	0	8251	673639	0	0
2024-05-11 11:01:32			0	35723	0	0	0	18244	16820	143156	27478	966547	39042	106639	0	0	8251	673585	0	0
2024-05-11 11:02:32			0	35693	0	0	0	18249	16830	143232	27739	966529	39042	106641	0	0	8249	674910	0	0
2024-05-11 11:03:32			0	35734	0	0	0	18249	16830	143232	27562	966511	39043	106641	0	0	8252	673050	0	0
2024-05-11 11:04:32			0	35707	0	0	0	18257	16840	143244	27398	966580	39056	106644	0	0	8250	674238	0	0
2024-05-11 11:05:32			0	35703	0	0	0	18264	16850	143260	27369	966641	39044	106647	0	0	8250	674383	0	0
2024-05-11 11:06:32			0	35734	0	0	0	18262	16850	143324	27081	966615	39044	106646	0	0	8252	672977	0	0
2024-05-11 11:07:32			0	35712	0	0	0	18264	16840	143288	27161	966580	39044	106647	0	0	8250	674011	0	0
2024-05-11 11:08:32			0	35707	0	0	0	18259	16850	143204	27352	966597	39056	106645	0	0	8250	674201	0	0
2024-05-11 11:09:32			0	35711	0	0	0	18267	16850	143156	27509	966588	39034	106648	0	0	8250	674020	0	0
2024-05-11 11:10:32			0	35715	0	0	0	18270	16850	143192	27483	966615	39044	106649	0	0	8250	673838	0	0
2024-05-11 11:11:32			0	35722	0	0	0	18275	16860	143252	27476	966666	39057	106651	0	0	8251	673484	0	0
2024-05-11 11:12:32			0	35732	0	0	0	18272	16860	143220	27568	966692	39036	106650	0	0	8251	673031	0	0
2024-05-11 11:13:32			0	35734	0	0	0	18293	16860	143112	27161	966692	39057	106658	0	0	8251	672941	0	0
2024-05-11 11:14:32			0	35750	0	0	0	18288	16870	143084	27649	966709	39046	106656	0	0	8252	672180	0	0
2024-05-11 11:15:32			0	35744	0	0	0	18293	16870	143060	27793	966727	39068	106658	0	0	8252	672451	0	0
2024-05-11 11:16:32			0	35751	0	0	0	18306	16880	143044	27355	966744	39047	106663	0	0	8252	672098	0	0
2024-05-11 11:17:32			0	35770	0	0	0	18303	16880	143004	27317	966778	39059	106662	0	0	8253	671239	0	0
2024-05-11 11:18:32			0	35766	0	0	0	18309	16890	143004	27699	966813	39048	106664	0	0	8253	671383	0	0
2024-05-11 11:19:32			0	35773	0	0	0	18319	16900	142924	27452	966837	39050	106668	0	0	8253	671030	0	0
2024-05-11 11:20:32			0	35750	0	0	0	18324	16900	142916	27479	966803	39060	106670	0	0	8252	672071	0	0
2024-05-11 11:21:32			0	35771	0	0	0	18324	16910	142908	27632	966793	39051	106670	0	0	8253	671084	0	0
2024-05-11 11:22:32			0	35780	0	0	0	18335	16910	142908	27509	966933	39062	106674	0	0	8253	670678	0	0
2024-05-11 11:23:32			0	35789	0	0	0	18355	16920	142896	27632	966968	39062	106682	0	0	8253	670235	0	0
2024-05-11 11:24:32			0	35795	0	0	0	18379	16930	142852	27833	967011	39075	106691	0	0	8253	669927	0	0
2024-05-11 11:25:32			0	35792	0	0	0	18397	16940	142824	27850	967194	39064	106698	0	0	8253	670027	0	0
2024-05-11 11:26:32			0	35783	0	0	0	18454	16960	142972	27543	967253	39087	106720	0	0	8251	670360	0	0
2024-05-11 11:27:32			0	35795	0	0	0	18488	16980	142872	27623	967418	39089	106733	0	0	8252	669746	0	0
2024-05-11 11:28:32			0	35791	0	0	0	18516	17010	142780	27630	967520	39082	106744	0	0	8251	669817	0	0
2024-05-11 11:29:32			0	35787	0	0	0	18537	17020	142852	27312	967563	39092	106752	0	0	8250	669962	0	0
2024-05-11 11:30:32			0	35804	0	0	0	18545	17040	142868	27440	967614	39106	106755	0	0	8251	669122	0	0
2024-05-11 11:31:32			0	35795	0	0	0	18558	17060	142772	27376	967700	39097	106760	0	0	8251	669455	0	0
2024-05-11 11:32:32			0	35782	0	0	0	18568	17070	142900	27576	967716	39119	106764	0	0	8250	670005	0	0
2024-05-11 11:33:32			0	35762	0	0	0	18589	17100	142884	27445	967784	39099	106772	0	0	8249	670800	0	0
2024-05-11 11:34:32			0	35735	0	0	0	18599	17110	142944	27677	967880	39100	106776	0	0	8247	671984	0	0
2024-05-11 11:35:32			0	35754	0	0	0	18605	17100	142952	27552	967792	39079	106778	0	0	8248	671161	0	0
2024-05-11 11:36:32			0	35752	0	0	0	18610	17110	142964	27275	967861	39101	106780	0	0	8248	671215	0	0
2024-05-11 11:37:32			0	35744	0	0	0	18605	17130	143048	27332	967913	39102	106778	0	0	8247	671504	0	0
2024-05-11 11:38:32			0	35717	0	0	0	18612	17130	142968	27644	967921	39103	106781	0	0	8246	672725	0	0
2024-05-11 11:39:32			0	35695	0	0	0	18612	17150	143016	27329	967919	39104	106781	0	0	8245	673649	0	0
2024-05-11 11:40:32			0	35708	0	0	0	18618	17140	143088	27512	967929	39092	106783	0	0	8245	673096	0	0
2024-05-11 11:41:32			0	35687	0	0	0	18612	17160	143060	27692	967962	39093	106781	0	0	8244	673975	0	0
2024-05-11 11:42:32			0	35698	0	0	0	18623	17170	143128	27313	968005	39074	106785	0	0	8245	673439	0	0
2024-05-11 11:43:32			0	35673	0	0	0	18625	17180	143216	27519	968048	39107	106786	0	0	8243	674536	0	0
2024-05-11 11:44:32			0	35678	0	0	0	18636	17180	143180	27331	968074	39107	106790	0	0	8244	674309	0	0
2024-05-11 11:45:32			0	35661	0	0	0	18631	17180	143172	27244	968056	39107	106788	0	0	8243	675081	0	0
2024-05-11 11:46:32			0	35644	0	0	0	18641	17190	143196	27573	968099	39108	106792	0	0	8242	675816	0	0
2024-05-11 11:47:32			0	35649	0	0	0	18636	17200	143380	27670	968115	39109	106790	0	0	8242	675552	0	0
2024-05-11 11:48:32			0	35609	0	0	0	18646	17210	143312	27580	968071	39098	106794	0	0	8240	677333	0	0
2024-05-11 11:49:32			0	35612	0	0	0	18651	17210	143376	27300	968106	39110	106796	0	0	8240	677196	0	0
2024-05-11 11:50:32			0	35594	0	0	0	18651	17210	143464	27275	968132	39110	106796	0	0	8239	678015	0	0
2024-05-11 11:51:32			0	35561	0	0	0	18649	17220	143452	27436	968175	39099	106795	0	0	8237	679482	0	0
2024-05-11 11:52:32			0	35546	0	0	0	18664	17220	143560	27119	968201	39111	106801	0	0	8236	680166	0	0
2024-05-11 11:53:32			0	35532	0	0	0	18659	17230	143708	27540	968236	39100	106799	0	0	8235	680768	0	0
2024-05-11 11:54:32			0	35513	0	0	0	18664	17240	143788	27357	968305	39112	106801	0	0	8234	681599	0	0
2024-05-11 11:55:32			0	35484	0	0	0	18675	17240	143752	27509	968305	39112	106805	0	0	8233	682925	0	0
2024-05-11 11:56:32			0	35487	0	0	0	18670	17250	143816	27223	968251	39114	106803	0	0	8233	682751	0	0
2024-05-11 11:57:32			0	35497	0	0	0	18677	17250	143800	27433	968304	39125	106806	0	0	8233	682293	0	0
2024-05-11 11:58:32			0	35466	0	0	0	18677	17250	143804	27336	968357	39114	106806	0	0	8232	683712	0	0
2024-05-11 11:59:32			0	35465	0	0	0	18680	17260	143872	27549	968320	39125	106807	0	0	8232	683721	0	0
2024-05-11 12:00:32			0	35466	0	0	0	18683	17260	143908	27495	968338	39114	106808	0	0	8232	683675	0	0
2024-05-11 12:01:32			0	35447	0	0	0	18683	17260	143852	27824	968320	39115	106808	0	0	8230	684545	0	0
2024-05-11 12:02:32			0	35454	0	0	0	18683	17270	143912	27739	968355	39104	106808	0	0	8231	684187	0	0
2024-05-11 12:03:32			0	35461	0	0	0	18662	17260	143868	27734	968259	39103	106800	0	0	8232	683904	0	0
2024-05-11 12:04:32			0	35476	0	0	0	18654	17270	143856	27566	968302	39104	106797	0	0	8233	683180	0	0
2024-05-11 12:05:32			0	35476	0	0	0	18644	17260	143884	27639	968233	39103	106793	0	0	8233	683217	0	0
2024-05-11 12:06:32			0	35454	0	0	0	18644	17250	143836	27324	968190	39091	106793	0	0	8231	684262	0	0
2024-05-11 12:07:32			0	35478	0	0	0	18638	17250	143808	27731	968251	39092	106791	0	0	8233	683163	0	0
2024-05-11 12:08:32			0	35480	0	0	0	18646	17250	143788	27222	968304	39103	106794	0	0	8233	683071	0	0
2024-05-11 12:09:32			0	35495	0	0	0	18649	17260	143784	27208	968259	39114	106795	0	0	8234	682348	0	0
2024-05-11 12:10:32			0	35490	0	0	0	18646	17260	143720	27381	968241	39104	106794	0	0	8233	682576	0	0
2024-05-11 12:11:32			0	35500	0	0	0	18657	17270	143684	27332	968310	39116	106798	0	0	8234	682082	0	0
2024-05-11 12:12:32			0	35500	0	0	0	18649	17260	143632	27289	968320	39104	106795	0	0	8234	682119	0	0
2024-05-11 12:13:32			0	35504	0	0	0	18664	17260	143692	27512	968347	39115	106801	0	0	8234	681936	0	0
2024-05-11 12:14:32			0	35523	0	0	0	18664	17270	143596	27281	968328	39115	106801	0	0	8235	681031	0	0
2024-05-11 12:15:32			0	35525	0	0	0	18662	17260	143560	27659	968267	39115	106800	0	0	8235	680977	0	0
2024-05-11 12:16:32			0	35542	0	0	0	18664	17260	143476	27057	968347	39104	106801	0	0	8236	680201	0	0
2024-05-11 12:17:32			0	35538	0	0	0	18675	17260	143664	27261	968267	39125	106805	0	0	8236	680383	0	0
2024-05-11 12:18:32			0	35570	0	0	0	18680	17270	143544	27270	968363	39105	106807	0	0	8237	678887	0	0
2024-05-11 12:19:32			0	35574	0	0	0	18670	17270	143412	27711	968381	39125	106803	0	0	8238	678705	0	0
2024-05-11 12:20:32			0	35572	0	0	0	18672	17270	143460	27486	968363	39126	106804	0	0	8238	678796	0	0
2024-05-11 12:21:32			0	35591	0	0	0	18683	17280	143348	27500	968424	39126	106808	0	0	8238	677894	0	0
2024-05-11 12:22:32			0	35597	0	0	0	18683	17280	143344	27334	968406	39117	106808	0	0	8239	677621	0	0
2024-05-11 12:23:32			0	35611	0	0	0	18693	17280	143336	27441	968380	39105	106812	0	0	8239	676985	0	0
2024-05-11 12:24:32			0	35610	0	0	0	18698	17290	143288	27277	968467	39128	106814	0	0	8239	676993	0	0
2024-05-11 12:25:32			0	35624	0	0	0	18693	17290	143232	27105	968441	39128	106812	0	0	8240	676357	0	0
2024-05-11 12:26:32			0	35631	0	0	0	18693	17290	143164	27305	968388	39117	106812	0	0	8241	676039	0	0
2024-05-11 12:27:32			0	35636	0	0	0	18688	17290	143128	27492	968441	39117	106810	0	0	8241	675812	0	0
2024-05-11 12:28:32			0	35642	0	0	0	18696	17290	143096	27289	968370	39128	106813	0	0	8241	675540	0	0
2024-05-11 12:29:32			0	35648	0	0	0	18690	17290	143028	27519	968388	39106	106811	0	0	8242	675267	0	0
2024-05-11 12:30:32			0	35660	0	0	0	18688	17290	143020	27452	968388	39117	106810	0	0	8242	674723	0	0
2024-05-11 12:31:32			0	35659	0	0	0	18685	17290	142936	27279	968422	39117	106809	0	0	8242	674768	0	0
2024-05-11 12:32:32			0	35689	0	0	0	18688	17280	142964	27310	968406	39105	106810	0	0	8244	673445	0	0
2024-05-11 12:33:32			0	35689	0	0	0	18667	17290	142916	27568	968388	39128	106802	0	0	8244	673408	0	0
2024-05-11 12:34:32			0	35704	0	0	0	18672	17290	142868	27331	968388	39117	106804	0	0	8245	672729	0	0
2024-05-11 12:35:32			0	35720	0	0	0	18657	17290	142792	27308	968335	39117	106798	0	0	8246	672005	0	0
2024-05-11 12:36:32			0	35717	0	0	0	18662	17280	142836	27410	968380	39105	106800	0	0	8246	672178	0	0
2024-05-11 12:37:32			0	35737	0	0	0	18657	17280	142852	27497	968327	39105	106798	0	0	8247	671273	0	0
2024-05-11 12:38:32			0	35749	0	0	0	18651	17280	142700	27504	968345	39116	106796	0	0	8248	670731	0	0
2024-05-11 12:39:32			0	35755	0	0	0	18654	17280	142644	27209	968371	39116	106797	0	0	8248	670460	0	0
2024-05-11 12:40:32			0	35752	0	0	0	18651	17280	142644	27545	968353	39105	106796	0	0	8248	670596	0	0
2024-05-11 12:41:32			0	35763	0	0	0	18654	17270	142588	27306	968363	39116	106797	0	0	8248	670136	0	0
2024-05-11 12:42:32			0	35793	0	0	0	18651	17280	142656	27492	968345	39105	106796	0	0	8250	668746	0	0
2024-05-11 12:43:32			0	35785	0	0	0	18662	17280	142632	27405	968292	39126	106800	0	0	8249	669107	0	0
2024-05-11 12:44:32			0	35804	0	0	0	18654	17280	142548	27466	968371	39105	106797	0	0	8251	668251	0	0
2024-05-11 12:45:32			0	35803	0	0	0	18659	17270	142504	27587	968328	39104	106799	0	0	8250	668332	0	0
2024-05-11 12:46:32			0	35818	0	0	0	18662	17280	142452	27602	968345	39137	106800	0	0	8251	667620	0	0
2024-05-11 12:47:32			0	35815	0	0	0	18657	17280	142504	27454	968319	39116	106798	0	0	8251	667755	0	0
2024-05-11 12:48:32			0	35834	0	0	0	18657	17270	142380	27457	968355	39115	106798	0	0	8252	666937	0	0
2024-05-11 12:49:32			0	35836	0	0	0	18651	17270	142400	27357	968328	39092	106796	0	0	8252	666847	0	0
2024-05-11 12:50:32			0	35836	0	0	0	18657	17270	142296	27312	968328	39125	106798	0	0	8252	666847	0	0
2024-05-11 12:51:32			0	35850	0	0	0	18659	17270	142260	27365	968337	39126	106799	0	0	8253	666217	0	0
2024-05-11 12:52:32			0	35862	0	0	0	18662	17270	142241	27703	968363	39105	106800	0	0	8254	665678	0	0
2024-05-11 12:53:32			0	35867	0	0	0	18667	17280	142217	27689	968398	39116	106802	0	0	8254	665417	0	0
2024-05-11 12:54:32			0	35885	0	0	0	18667	17280	142213	27573	968380	39105	106802	0	0	8255	664609	0	0
2024-05-11 12:55:32			0	35902	0	0	0	18677	17270	142081	27644	968381	39104	106806	0	0	8255	663883	0	0
2024-05-11 12:56:32			0	35890	0	0	0	18685	17280	142045	27578	968398	39116	106809	0	0	8255	664385	0	0
2024-05-11 12:57:32			0	35912	0	0	0	18680	17280	142145	27472	968398	39116	106807	0	0	8256	663399	0	0
2024-05-11 12:58:32			0	35909	0	0	0	18683	17280	142085	27355	968406	39117	106808	0	0	8256	663533	0	0
2024-05-11 12:59:32			0	35901	0	0	0	18690	17290	142025	27647	968475	39117	106811	0	0	8255	663856	0	0
2024-05-11 13:00:32			0	35920	0	0	0	18701	17290	142033	27204	968502	39106	106815	0	0	8256	663004	0	0
2024-05-11 13:01:32			0	35927	0	0	0	18696	17300	141989	27718	968483	39106	106813	0	0	8257	662655	0	0
2024-05-11 13:02:32			0	35920	0	0	0	18698	17300	141941	27343	968510	39117	106814	0	0	8256	662968	0	0
2024-05-11 13:03:32			0	35915	0	0	0	18696	17300	142001	27618	968465	39107	106813	0	0	8256	663192	0	0
2024-05-11 13:04:32			0	35936	0	0	0	18701	17300	141937	27576	968518	39118	106815	0	0	8257	662252	0	0
2024-05-11 13:05:32			0	35934	0	0	0	18706	17300	141913	27613	968492	39118	106817	0	0	8257	662342	0	0
2024-05-11 13:06:32			0	35963	0	0	0	18714	17300	141985	27232	968492	39128	106820	0	0	8258	661044	0	0
2024-05-11 13:07:32			0	35956	0	0	0	18722	17320	141881	27215	968516	39119	106823	0	0	8258	661285	0	0
2024-05-11 13:08:32			0	35979	0	0	0	18716	17320	141793	27218	968596	39129	106821	0	0	8259	660258	0	0
2024-05-11 13:09:32			0	35965	0	0	0	18724	17320	141785	27137	968543	39129	106824	0	0	8258	660883	0	0
2024-05-11 13:10:32			0	35960	0	0	0	18722	17310	141757	27485	968535	39129	106823	0	0	8258	661143	0	0
2024-05-11 13:11:32			0	35976	0	0	0	18732	17320	141745	27296	968622	39108	106827	0	0	8259	660392	0	0
2024-05-11 13:12:32			0	35984	0	0	0	18740	17330	141789	27159	968586	39121	106830	0	0	8259	659999	0	0
2024-05-11 13:13:32			0	36007	0	0	0	18737	17330	141729	27454	968612	39121	106829	0	0	8260	658973	0	0
2024-05-11 13:14:32			0	36003	0	0	0	18735	17340	141665	27412	968602	39132	106828	0	0	8260	659115	0	0
2024-05-11 13:15:32			0	36004	0	0	0	18750	17340	141745	27376	968681	39122	106834	0	0	8260	659071	0	0
2024-05-11 13:16:32			0	36025	0	0	0	18745	17340	141717	27355	968655	39122	106832	0	0	8261	658135	0	0
2024-05-11 13:17:32			0	35994	0	0	0	18761	17350	141601	27647	968671	39123	106838	0	0	8259	659481	0	0
2024-05-11 13:18:32			0	36014	0	0	0	18766	17340	141597	27332	968708	39132	106840	0	0	8260	658625	0	0
2024-05-11 13:19:32			0	36021	0	0	0	18776	17350	141609	27433	968698	39123	106844	0	0	8261	658277	0	0
2024-05-11 13:20:32			0	36031	0	0	0	18776	17360	141593	27490	968741	39123	106844	0	0	8261	657796	0	0
2024-05-11 13:21:32			0	36044	0	0	0	18776	17360	141617	27613	968767	39145	106844	0	0	8262	657217	0	0
2024-05-11 13:22:32			0	36031	0	0	0	18761	17360	141573	27646	968714	39134	106838	0	0	8261	657796	0	0
2024-05-11 13:23:32			0	36035	0	0	0	18755	17370	141553	27255	968697	39134	106836	0	0	8262	657582	0	0
2024-05-11 13:24:32			0	36048	0	0	0	18763	17370	141457	27360	968776	39123	106839	0	0	8262	657003	0	0
2024-05-11 13:25:32			0	36043	0	0	0	18763	17370	141433	27422	968749	39123	106839	0	0	8262	657226	0	0
2024-05-11 13:26:32			0	36059	0	0	0	18763	17380	141441	27163	968739	39125	106839	0	0	8263	656479	0	0
2024-05-11 13:27:32			0	36082	0	0	0	18761	17370	141505	27109	968758	39124	106838	0	0	8264	655492	0	0
2024-05-11 13:28:32			0	36060	0	0	0	18761	17360	141413	27479	968741	39134	106838	0	0	8263	656505	0	0
2024-05-11 13:29:32			0	36063	0	0	0	18750	17360	141345	27422	968662	39134	106834	0	0	8263	656372	0	0
2024-05-11 13:30:32			0	36074	0	0	0	18750	17360	141373	27440	968600	39112	106834	0	0	8264	655883	0	0
2024-05-11 13:31:32			0	36094	0	0	0	18748	17370	141357	27095	968670	39123	106833	0	0	8265	654959	0	0
2024-05-11 13:32:32			0	36106	0	0	0	18758	17370	141369	27246	968723	39123	106837	0	0	8266	654426	0	0
2024-05-11 13:33:32			0	36106	0	0	0	18745	17360	141337	27280	968662	39134	106832	0	0	8266	654462	0	0
2024-05-11 13:34:32			0	36100	0	0	0	18745	17370	141261	27497	968723	39123	106832	0	0	8265	654693	0	0
2024-05-11 13:35:32			0	36108	0	0	0	18745	17360	141273	27203	968653	39123	106832	0	0	8266	654373	0	0
2024-05-11 13:36:32			0	36118	0	0	0	18745	17360	141229	27450	968627	39123	106832	0	0	8266	653930	0	0
2024-05-11 13:37:32			0	36111	0	0	0	18737	17350	141229	27301	968671	39123	106829	0	0	8266	654276	0	0
2024-05-11 13:38:32			0	36118	0	0	0	18737	17360	141305	26996	968688	39112	106829	0	0	8267	653930	0	0
2024-05-11 13:39:32			0	36111	0	0	0	18732	17350	141225	27097	968690	39132	106827	0	0	8266	654276	0	0
2024-05-11 13:40:32			0	36117	0	0	0	18745	17350	141341	27182	968690	39111	106832	0	0	8266	654009	0	0
2024-05-11 13:41:32			0	36111	0	0	0	18740	17350	141297	27116	968645	39123	106830	0	0	8266	654276	0	0
2024-05-11 13:42:32			0	36123	0	0	0	18740	17360	141265	27583	968688	39112	106830	0	0	8267	653708	0	0
2024-05-11 13:43:32			0	36125	0	0	0	18732	17350	141217	27514	968637	39122	106827	0	0	8267	653655	0	0
2024-05-11 13:44:32			0	36127	0	0	0	18737	17360	141225	27109	968653	39123	106829	0	0	8267	653531	0	0
2024-05-11 13:45:32			0	36117	0	0	0	18735	17350	141237	27485	968663	39122	106828	0	0	8266	654009	0	0
2024-05-11 13:46:32			0	36109	0	0	0	18732	17350	141253	27396	968645	39133	106827	0	0	8266	654364	0	0
2024-05-11 13:47:32			0	36117	0	0	0	18727	17350	141209	27246	968671	39111	106825	0	0	8267	654009	0	0
2024-05-11 13:48:32			0	36125	0	0	0	18735	17350	141233	27286	968592	39123	106828	0	0	8267	653655	0	0
2024-05-11 13:49:32			0	36116	0	0	0	18729	17360	141249	27390	968653	39134	106826	0	0	8267	654018	0	0
2024-05-11 13:50:32			0	36118	0	0	0	18729	17350	141233	27216	968610	39122	106826	0	0	8267	653965	0	0
2024-05-11 13:51:32			0	36125	0	0	0	18735	17350	141297	27038	968645	39123	106828	0	0	8267	653655	0	0
2024-05-11 13:52:32			0	36121	0	0	0	18732	17350	141321	27614	968698	39123	106827	0	0	8267	653832	0	0
2024-05-11 13:53:32			0	36092	0	0	0	18740	17350	141301	27235	968671	39133	106830	0	0	8265	655119	0	0
2024-05-11 13:54:32			0	36115	0	0	0	18753	17350	141317	27313	968690	39132	106835	0	0	8266	654098	0	0
2024-05-11 13:55:32			0	36109	0	0	0	18753	17350	141317	27391	968698	39123	106835	0	0	8266	654364	0	0
2024-05-11 13:56:32			0	36106	0	0	0	18779	17370	141349	27166	968776	39145	106845	0	0	8265	654426	0	0
2024-05-11 13:57:32			0	36096	0	0	0	18789	17370	141281	27384	968908	39145	106849	0	0	8265	654870	0	0
2024-05-11 13:58:32			0	36089	0	0	0	18794	17380	141345	27263	968906	39135	106851	0	0	8264	655145	0	0
2024-05-11 13:59:32			0	36087	0	0	0	18802	17370	141297	27602	968890	39113	106854	0	0	8264	655270	0	0
2024-05-11 14:00:32			0	36094	0	0	0	18805	17390	141305	27691	968975	39125	106855	0	0	8264	654888	0	0
2024-05-11 14:01:32			0	36058	0	0	0	18812	17410	141377	27097	968974	39137	106858	0	0	8262	656416	0	0
2024-05-11 14:02:32			0	36086	0	0	0	18810	17410	141377	27566	968947	39148	106857	0	0	8264	655172	0	0
2024-05-11 14:03:32			0	36079	0	0	0	18805	17420	141285	27197	968990	39117	106855	0	0	8264	655447	0	0
2024-05-11 14:04:32			0	36076	0	0	0	18805	17410	141385	27319	968974	39137	106855	0	0	8263	655616	0	0
2024-05-11 14:05:32			0	36072	0	0	0	18820	17410	141349	27386	968982	39138	106861	0	0	8263	655794	0	0
2024-05-11 14:06:32			0	36085	0	0	0	18825	17410	141321	27395	969061	39138	106863	0	0	8263	655216	0	0
2024-05-11 14:07:32			0	36077	0	0	0	18836	17420	141313	27490	969104	39151	106867	0	0	8263	655536	0	0
2024-05-11 14:08:32			0	36068	0	0	0	18854	17410	141333	27422	969088	39138	106874	0	0	8262	655971	0	0
2024-05-11 14:09:32			0	36079	0	0	0	18867	17430	141421	27255	969121	39151	106879	0	0	8263	655411	0	0
2024-05-11 14:10:32			0	36085	0	0	0	18888	17430	141369	27293	969147	39140	106887	0	0	8263	655145	0	0
2024-05-11 14:11:32			0	36086	0	0	0	18890	17440	141409	27066	969208	39152	106888	0	0	8263	655065	0	0
2024-05-11 14:12:32			0	36082	0	0	0	18898	17440	141369	27078	969216	39152	106891	0	0	8262	655242	0	0
2024-05-11 14:13:32			0	36096	0	0	0	18903	17460	141357	27455	969170	39143	106893	0	0	8263	654550	0	0
2024-05-11 14:14:32			0	36093	0	0	0	18909	17460	141249	27384	969223	39143	106895	0	0	8263	654683	0	0
2024-05-11 14:15:32			0	36105	0	0	0	18922	17460	141285	27019	969276	39154	106900	0	0	8263	654151	0	0
2024-05-11 14:16:32			0	36103	0	0	0	18922	17470	141285	27268	969345	39143	106900	0	0	8263	654204	0	0
2024-05-11 14:17:32			0	36111	0	0	0	18927	17470	141269	27362	969363	39143	106902	0	0	8263	653849	0	0
2024-05-11 14:18:32			0	36127	0	0	0	18937	17480	141157	27533	969327	39155	106906	0	0	8264	653104	0	0
2024-05-11 14:19:32			0	36120	0	0	0	18942	17480	141213	27225	969361	39156	106908	0	0	8264	653415	0	0
2024-05-11 14:20:32			0	36138	0	0	0	18937	17500	141137	27348	969368	39158	106906	0	0	8265	652546	0	0
2024-05-11 14:21:32			0	36127	0	0	0	18942	17490	141157	27241	969431	39167	106908	0	0	8264	653069	0	0
2024-05-11 14:22:32			0	36154	0	0	0	18948	17510	141189	27119	969429	39147	106910	0	0	8266	651803	0	0
2024-05-11 14:23:32			0	36161	0	0	0	18940	17500	140941	26958	969448	39158	106907	0	0	8266	651529	0	0
2024-05-11 14:24:32			0	36164	0	0	0	18948	17510	140949	27435	969482	39169	106910	0	0	8266	651360	0	0
2024-05-11 14:25:32			0	36171	0	0	0	18953	17520	140849	27483	969446	39136	106912	0	0	8266	651016	0	0
2024-05-11 14:26:32			0	36192	0	0	0	18953	17520	140893	27254	969533	39159	106912	0	0	8268	650088	0	0
2024-05-11 14:27:32			0	36210	0	0	0	18953	17520	140789	27490	969533	39148	106912	0	0	8269	649293	0	0
2024-05-11 14:28:32			0	36207	0	0	0	18961	17530	140769	27124	969523	39149	106915	0	0	8268	649390	0	0
2024-05-11 14:29:32			0	36231	0	0	0	18966	17540	140725	27426	969540	39171	106917	0	0	8270	648297	0	0
2024-05-11 14:30:32			0	36221	0	0	0	18968	17540	140745	27462	969540	39161	106918	0	0	8269	648738	0	0
2024-05-11 14:31:32			0	36247	0	0	0	18979	17550	140641	27364	969575	39172	106922	0	0	8270	647557	0	0
2024-05-11 14:32:32			0	36256	0	0	0	18992	17550	140541	27358	969627	39162	106927	0	0	8270	647161	0	0
2024-05-11 14:33:32			0	36294	0	0	0	18987	17560	140509	27256	969679	39173	106925	0	0	8273	645455	0	0
2024-05-11 14:34:32			0	36276	0	0	0	18989	17570	140469	26942	969660	39174	106926	0	0	8272	646211	0	0
2024-05-11 14:35:32			0	36306	0	0	0	18992	17580	140377	27300	969677	39175	106927	0	0	8273	644858	0	0
2024-05-11 14:36:32			0	36315	0	0	0	19002	17560	140405	27088	969705	39173	106931	0	0	8274	644533	0	0
2024-05-11 14:37:32			0	36329	0	0	0	19010	17580	140337	27386	969756	39165	106934	0	0	8274	643849	0	0
2024-05-11 14:38:32			0	36348	0	0	0	19023	17580	140349	27209	969730	39175	106939	0	0	8275	643016	0	0
2024-05-11 14:39:32			0	36341	0	0	0	19028	17580	140221	27301	969703	39165	106941	0	0	8275	643322	0	0
2024-05-11 14:40:32			0	36378	0	0	0	19233	17600	140089	27261	969956	39188	107020	0	0	8273	641632	0	0
2024-05-11 14:41:32			0	36337	0	0	0	18727	17600	140185	27426	969612	39155	106825	0	0	8280	643428	0	0
2024-05-11 14:42:32			0	36262	0	0	0	18815	17580	140393	27300	969474	39131	106859	0	0	8274	646791	0	0
2024-05-11 14:43:32			0	36259	0	0	0	18763	17550	140557	27509	969266	39129	106839	0	0	8275	647029	0	0
2024-05-11 14:44:32			0	36268	0	0	0	18851	17540	140489	27270	969329	39128	106873	0	0	8273	646668	0	0
2024-05-11 14:45:32			0	36269	0	0	0	18828	17530	140417	27545	969304	39138	106864	0	0	8274	646659	0	0
2024-05-11 14:46:32			0	36287	0	0	0	18828	17520	140453	27523	969287	39147	106864	0	0	8275	645903	0	0
2024-05-11 14:47:32			0	36291	0	0	0	18779	17520	140289	27632	969261	39136	106845	0	0	8276	645727	0	0
2024-05-11 14:48:32			0	36326	0	0	0	18857	17520	140325	27350	969340	39159	106875	0	0	8276	644190	0	0
2024-05-11 14:49:32			0	36332	0	0	0	18940	17530	140217	27332	969436	39149	106907	0	0	8275	643892	0	0
2024-05-11 14:50:32			0	36343	0	0	0	18989	17540	140341	27630	969566	39161	106926	0	0	8275	643375	0	0
2024-05-11 14:51:32			0	36334	0	0	0	19116	17540	140281	27374	969778	39161	106975	0	0	8273	643769	0	0
2024-05-11 14:52:32			0	36351	0	0	0	19132	17580	140385	27616	969888	39186	106981	0	0	8273	642884	0	0
2024-05-11 14:53:32			0	36329	0	0	0	19054	17590	140361	27351	969834	39155	106951	0	0	8274	643813	0	0
2024-05-11 14:54:32			0	36358	0	0	0	19054	17600	140277	27507	969895	39155	106951	0	0	8275	642508	0	0
2024-05-11 14:55:32			0	36352	0	0	0	19098	17610	140249	27637	969885	39166	106968	0	0	8274	642735	0	0
2024-05-11 14:56:32			0	36379	0	0	0	19109	17640	140269	27438	970059	39180	106972	0	0	8276	641449	0	0
2024-05-11 14:57:32			0	36393	0	0	0	19132	17660	140189	27666	970171	39193	106981	0	0	8276	640767	0	0
2024-05-11 14:58:32			0	36394	0	0	0	19075	17660	140093	27530	970179	39183	106959	0	0	8277	640723	0	0
2024-05-11 14:59:32			0	36405	0	0	0	19114	17670	140005	27675	970169	39183	106974	0	0	8277	640208	0	0
2024-05-11 15:00:32			0	36411	0	0	0	19158	17680	139973	27317	970283	39183	106991	0	0	8277	639911	0	0
2024-05-11 15:01:32			0	36429	0	0	0	19166	17690	139949	27426	970308	39185	106994	0	0	8277	639091	0	0
2024-05-11 15:02:32			0	36415	0	0	0	19166	17690	140037	27203	970255	39185	106994	0	0	8277	639702	0	0
2024-05-11 15:03:32			0	36406	0	0	0	19140	17710	140061	27556	970288	39187	106984	0	0	8277	640025	0	0
2024-05-11 15:04:32			0	36417	0	0	0	19114	17710	139989	27291	970235	39166	106974	0	0	8278	639545	0	0
2024-05-11 15:05:32			0	36426	0	0	0	19116	17710	140017	27376	970288	39176	106975	0	0	8278	639152	0	0
2024-05-11 15:06:32			0	36414	0	0	0	19103	17730	139885	27750	970339	39189	106970	0	0	8278	639606	0	0
2024-05-11 15:07:32			0	36418	0	0	0	19083	17720	139945	27488	970323	39187	106962	0	0	8278	639466	0	0
2024-05-11 15:08:32			0	36416	0	0	0	19064	17730	139953	27554	970260	39189	106955	0	0	8279	639519	0	0
2024-05-11 15:09:32			0	36403	0	0	0	19067	17720	140041	27755	970305	39188	106956	0	0	8278	640121	0	0
2024-05-11 15:10:32			0	36391	0	0	0	19096	17750	139981	27371	970426	39190	106967	0	0	8277	640541	0	0
2024-05-11 15:11:32			0	36400	0	0	0	19038	17750	140065	27788	970346	39168	106945	0	0	8278	640147	0	0
2024-05-11 15:12:32			0	36390	0	0	0	18992	17740	139965	27305	970224	39177	106927	0	0	8279	640619	0	0
2024-05-11 15:13:32			0	36368	0	0	0	18898	17710	140029	27627	970077	39154	106891	0	0	8279	641686	0	0
2024-05-11 15:14:32			0	36350	0	0	0	18896	17700	140153	27448	969902	39153	106890	0	0	8278	642508	0	0
2024-05-11 15:15:32			0	36293	0	0	0	18901	17680	140213	27312	969816	39129	106892	0	0	8275	645077	0	0
2024-05-11 15:16:32			0	36282	0	0	0	18890	17660	140417	27265	969783	39150	106888	0	0	8274	645631	0	0
2024-05-11 15:17:32			0	36241	0	0	0	18883	17650	140497	27571	969758	39137	106885	0	0	8272	647469	0	0
2024-05-11 15:18:32			0	36217	0	0	0	18885	17630	140649	27542	969680	39135	106886	0	0	8271	648597	0	0
2024-05-11 15:19:32			0	36191	0	0	0	18883	17610	140729	27419	969576	39135	106885	0	0	8269	649814	0	0
2024-05-11 15:20:32			0	36170	0	0	0	18870	17600	140885	27371	969578	39144	106880	0	0	8268	650777	0	0
2024-05-11 15:21:32			0	36143	0	0	0	18864	17580	140905	27511	969527	39131	106878	0	0	8267	652041	0	0
2024-05-11 15:22:32			0	36124	0	0	0	18883	17590	141033	27424	969570	39155	106885	0	0	8265	652846	0	0
2024-05-11 15:23:32			0	36084	0	0	0	18896	17580	141149	27319	969553	39142	106890	0	0	8263	654655	0	0
2024-05-11 15:24:32			0	36067	0	0	0	18898	17570	141293	27315	969563	39165	106891	0	0	8262	655445	0	0
2024-05-11 15:25:32			0	36037	0	0	0	18914	17570	141365	27305	969669	39153	106897	0	0	8260	656778	0	0
2024-05-11 15:26:32			0	35999	0	0	0	18922	17570	141477	27284	969616	39153	106900	0	0	8258	658470	0	0
2024-05-11 15:27:32			0	35983	0	0	0	18922	17570	141565	27438	969616	39142	106900	0	0	8257	659183	0	0
2024-05-11 15:28:32			0	35957	0	0	0	18927	17570	141769	27164	969528	39153	106902	0	0	8256	660343	0	0
2024-05-11 15:29:32			0	35955	0	0	0	18927	17560	141725	27150	969538	39141	106902	0	0	8255	660468	0	0
2024-05-11 15:30:32			0	35920	0	0	0	18924	17560	141901	27383	969591	39152	106901	0	0	8254	662032	0	0
2024-05-11 15:31:32			0	35906	0	0	0	18924	17560	141921	27225	969546	39141	106901	0	0	8253	662658	0	0
2024-05-11 15:32:32			0	35882	0	0	0	18929	17550	142089	27350	969556	39152	106903	0	0	8251	663769	0	0
2024-05-11 15:33:32			0	35864	0	0	0	18924	17560	142125	27164	969512	39152	106901	0	0	8250	664540	0	0
2024-05-11 15:34:32			0	35851	0	0	0	18937	17570	142188	27417	969581	39153	106906	0	0	8250	665087	0	0
2024-05-11 15:35:32			0	35829	0	0	0	18937	17560	142276	27327	969644	39152	106906	0	0	8248	666111	0	0
2024-05-11 15:36:32			0	35818	0	0	0	18937	17540	142212	27436	969513	39150	106906	0	0	8248	666677	0	0
2024-05-11 15:37:32			0	35828	0	0	0	18945	17540	142340	27447	969540	39150	106909	0	0	8248	666228	0	0
2024-05-11 15:38:32			0	35802	0	0	0	18942	17550	142328	27377	969583	39152	106908	0	0	8247	667361	0	0
2024-05-11 15:39:32			0	35803	0	0	0	18953	17560	142296	27640	969591	39163	106912	0	0	8247	667279	0	0
2024-05-11 15:40:32			0	35808	0	0	0	18958	17550	142396	27767	969609	39163	106914	0	0	8247	667091	0	0
2024-05-11 15:41:32			0	35794	0	0	0	18966	17560	142408	27371	969644	39173	106917	0	0	8246	667684	0	0
2024-05-11 15:42:32			0	35780	0	0	0	18974	17560	142412	27440	969652	39152	106920	0	0	8245	668314	0	0
2024-05-11 15:43:32			0	35780	0	0	0	18974	17550	142496	27649	969636	39173	106920	0	0	8245	668351	0	0
2024-05-11 15:44:32			0	35780	0	0	0	18976	17560	142512	27523	969670	39163	106921	0	0	8245	668314	0	0
2024-05-11 15:45:32			0	35769	0	0	0	18976	17560	142556	27443	969731	39163	106921	0	0	8244	668810	0	0
2024-05-11 15:46:32			0	35748	0	0	0	18984	17560	142516	27618	969705	39152	106924	0	0	8243	669756	0	0
2024-05-11 15:47:32			0	35773	0	0	0	19007	17580	142448	27414	969783	39175	106933	0	0	8244	668557	0	0
2024-05-11 15:48:32			0	35757	0	0	0	19036	17590	142572	27190	969905	39176	106944	0	0	8243	669241	0	0
2024-05-11 15:49:32			0	35740	0	0	0	19044	17590	142536	27725	969966	39176	106947	0	0	8242	670008	0	0
2024-05-11 15:50:32			0	35752	0	0	0	19072	17640	142600	27455	970032	39180	106958	0	0	8242	669284	0	0
2024-05-11 15:51:32			0	35734	0	0	0	19072	17650	142628	27324	970128	39181	106958	0	0	8241	670059	0	0
2024-05-11 15:52:32			0	35725	0	0	0	19093	17660	142624	27531	970205	39183	106966	0	0	8241	670429	0	0
2024-05-11 15:53:32			0	35732	0	0	0	19114	17680	142496	27828	970283	39206	106974	0	0	8241	670040	0	0
2024-05-11 15:54:32			0	35723	0	0	0	19116	17690	142556	27350	970361	39185	106975	0	0	8240	670410	0	0
2024-05-11 15:55:32			0	35703	0	0	0	19124	17710	142680	27582	970368	39187	106978	0	0	8239	671239	0	0
2024-05-11 15:56:32			0	35693	0	0	0	19124	17730	142636	27438	970472	39189	106978	0	0	8239	671618	0	0
2024-05-11 15:57:32			0	35699	0	0	0	19116	17730	142700	27409	970472	39189	106975	0	0	8239	671347	0	0
2024-05-11 15:58:32			0	35694	0	0	0	19129	17750	142656	27512	970558	39168	106980	0	0	8239	671500	0	0
2024-05-11 15:59:32			0	35675	0	0	0	19166	17750	142648	27455	970592	39190	106994	0	0	8237	672358	0	0
2024-05-11 16:00:32			0	35693	0	0	0	19259	17780	142768	27478	970739	39214	107030	0	0	8236	671435	0	0
2024-05-11 16:01:32			0	35673	0	0	0	19283	17800	142844	27763	970746	39195	107039	0	0	8235	672266	0	0
2024-05-11 16:02:32			0	35651	0	0	0	19363	17810	142892	27260	970982	39207	107070	0	0	8233	673224	0	0
2024-05-11 16:03:32			0	35656	0	0	0	19472	17850	142812	27507	971225	39209	107112	0	0	8231	672851	0	0
2024-05-11 16:04:32			0	35634	0	0	0	19477	17870	142864	27531	971319	39223	107114	0	0	8230	673773	0	0
2024-05-11 16:05:32			0	35619	0	0	0	19483	17910	142988	27838	971430	39237	107116	0	0	8229	674305	0	0
2024-05-11 16:06:32			0	35599	0	0	0	19571	17940	142948	27305	971604	39240	107150	0	0	8227	675101	0	0
2024-05-11 16:07:32			0	35613	0	0	0	19620	17980	142932	27767	971855	39232	107169	0	0	8227	674320	0	0
2024-05-11 16:08:32			0	35601	0	0	0	19654	18020	142952	27776	971974	39257	107182	0	0	8226	674716	0	0
2024-05-11 16:09:32			0	35589	0	0	0	19664	18050	142964	27658	972076	39250	107186	0	0	8225	675149	0	0
2024-05-11 16:10:32			0	35596	0	0	0	19677	18070	142992	27696	972189	39262	107191	0	0	8225	674759	0	0
2024-05-11 16:11:32			0	35589	0	0	0	19685	18100	142888	27575	972273	39254	107194	0	0	8225	674965	0	0
2024-05-11 16:12:32			0	35608	0	0	0	19688	18120	142884	27788	972333	39245	107195	0	0	8226	674031	0	0
2024-05-11 16:13:32			0	35599	0	0	0	19698	18140	142852	27625	972392	39257	107199	0	0	8226	674365	0	0
2024-05-11 16:14:32			0	35611	0	0	0	19724	18160	142884	27802	972478	39259	107209	0	0	8226	673748	0	0
2024-05-11 16:15:32			0	35599	0	0	0	19722	18180	142860	27873	972424	39250	107208	0	0	8225	674218	0	0
2024-05-11 16:16:32			0	35606	0	0	0	19719	18210	142828	27369	972606	39252	107207	0	0	8226	673791	0	0
2024-05-11 16:17:32			0	35616	0	0	0	19711	18230	142740	27868	972604	39254	107204	0	0	8227	673265	0	0
2024-05-11 16:18:32			0	35593	0	0	0	19711	18240	142740	27471	972674	39255	107204	0	0	8225	674269	0	0
2024-05-11 16:19:32			0	35588	0	0	0	19727	18250	142932	27377	972698	39255	107210	0	0	8225	674458	0	0
2024-05-11 16:20:32			0	35606	0	0	0	19724	18270	142836	27254	972697	39257	107209	0	0	8226	673570	0	0
2024-05-11 16:21:32			0	35621	0	0	0	19732	18290	142764	27398	972791	39260	107212	0	0	8227	672818	0	0
2024-05-11 16:22:32			0	35605	0	0	0	19735	18290	142704	27845	972809	39249	107213	0	0	8226	673542	0	0
2024-05-11 16:23:32			0	35609	0	0	0	19732	18300	142756	27779	972826	39271	107212	0	0	8226	673324	0	0
2024-05-11 16:24:32			0	35619	0	0	0	19737	18300	142764	27744	972808	39261	107214	0	0	8227	672872	0	0
2024-05-11 16:25:32			0	35596	0	0	0	19727	18310	142768	27377	972824	39262	107210	0	0	8226	673875	0	0
2024-05-11 16:26:32			0	35605	0	0	0	19716	18310	142652	27770	972789	39261	107206	0	0	8226	673468	0	0
2024-05-11 16:27:32			0	35615	0	0	0	19716	18320	142684	27537	972779	39262	107206	0	0	8227	672979	0	0
2024-05-11 16:28:32			0	35598	0	0	0	19709	18320	142632	27414	972814	39251	107203	0	0	8226	673748	0	0
2024-05-11 16:29:32			0	35600	0	0	0	19714	18320	142712	27267	972814	39251	107205	0	0	8226	673657	0	0
2024-05-11 16:30:32			0	35612	0	0	0	19716	18330	142568	27410	972849	39263	107206	0	0	8227	673078	0	0
2024-05-11 16:31:32			0	35600	0	0	0	19709	18320	142620	27377	972867	39241	107203	0	0	8226	673657	0	0
2024-05-11 16:32:32			0	35624	0	0	0	19703	18340	142600	27614	972918	39253	107201	0	0	8228	672499	0	0
2024-05-11 16:33:32			0	35607	0	0	0	19698	18330	142584	27386	972849	39242	107199	0	0	8227	673304	0	0
2024-05-11 16:34:32			0	35599	0	0	0	19693	18330	142656	27779	972902	39242	107197	0	0	8226	673666	0	0
2024-05-11 16:35:32			0	35595	0	0	0	19698	18350	142532	27353	972864	39254	107199	0	0	8226	673773	0	0
2024-05-11 16:36:32			0	35604	0	0	0	19696	18330	142664	27300	972910	39252	107198	0	0	8227	673440	0	0
2024-05-11 16:37:32			0	35589	0	0	0	19714	18350	142564	27526	972961	39265	107205	0	0	8226	674045	0	0
2024-05-11 16:38:32			0	35606	0	0	0	19732	18350	142632	27398	972996	39254	107212	0	0	8226	673276	0	0
2024-05-11 16:39:32			0	35586	0	0	0	19716	18360	142508	27213	972960	39255	107206	0	0	8225	674144	0	0
2024-05-11 16:40:32			0	35590	0	0	0	19719	18360	142604	27583	972952	39255	107207	0	0	8226	673963	0	0
2024-05-11 16:41:32			0	35592	0	0	0	19716	18360	142584	27627	973013	39245	107206	0	0	8226	673872	0	0
2024-05-11 16:42:32			0	35601	0	0	0	19714	18370	142612	27647	972915	39256	107205	0	0	8226	673428	0	0
2024-05-11 16:43:32			0	35588	0	0	0	19698	18360	142596	27428	972907	39245	107199	0	0	8226	674053	0	0
2024-05-11 16:44:32			0	35590	0	0	0	19688	18360	142608	27424	972960	39245	107195	0	0	8226	673963	0	0
2024-05-11 16:45:32			0	35610	0	0	0	19711	18360	142564	27736	972872	39245	107204	0	0	8227	673058	0	0
2024-05-11 16:46:32			0	35615	0	0	0	19724	18370	142556	27524	972942	39256	107209	0	0	8227	672795	0	0
2024-05-11 16:47:32			0	35593	0	0	0	19773	18370	142584	27620	973100	39267	107228	0	0	8225	673790	0	0
2024-05-11 16:48:32			0	35624	0	0	0	19745	18380	142428	27835	973091	39256	107217	0	0	8227	672352	0	0
2024-05-11 16:49:32			0	35634	0	0	0	19714	18380	142476	27583	973072	39246	107205	0	0	8228	671900	0	0
2024-05-11 16:50:32			0	35643	0	0	0	19688	18380	142480	27753	972993	39256	107195	0	0	8229	671494	0	0
2024-05-11 16:51:32			0	35653	0	0	0	19683	18380	142360	27777	972985	39268	107193	0	0	8230	671043	0	0
2024-05-11 16:52:32			0	35646	0	0	0	19698	18370	142300	27784	972968	39256	107199	0	0	8229	671396	0	0
2024-05-11 16:53:32			0	35671	0	0	0	19698	18370	142248	27524	972995	39256	107199	0	0	8230	670268	0	0
2024-05-11 16:54:32			0	35668	0	0	0	19709	18370	142196	27637	973003	39245	107203	0	0	8230	670403	0	0
2024-05-11 16:55:32			0	35695	0	0	0	19719	18380	142164	27414	973011	39268	107207	0	0	8231	669151	0	0
2024-05-11 16:56:32			0	35700	0	0	0	19750	18380	142128	27722	973064	39256	107219	0	0	8231	668926	0	0
2024-05-11 16:57:32			0	35722	0	0	0	19761	18380	142072	27419	973046	39256	107223	0	0	8232	667936	0	0
2024-05-11 16:58:32			0	35746	0	0	0	19753	18380	141936	27864	973152	39268	107220	0	0	8234	666858	0	0
2024-05-11 16:59:32			0	35774	0	0	0	19758	18390	141892	27391	973142	39257	107222	0	0	8235	665565	0	0
2024-05-11 17:00:32			0	35777	0	0	0	19771	18400	141840	27421	973150	39280	107227	0	0	8235	665394	0	0
2024-05-11 17:01:32			0	35797	0	0	0	19784	18400	141696	27274	973177	39269	107232	0	0	8236	664498	0	0
2024-05-11 17:02:32			0	35828	0	0	0	19781	18400	141696	27637	973211	39259	107231	0	0	8238	663111	0	0
2024-05-11 17:03:32			0	35848	0	0	0	19794	18420	141552	27431	973210	39282	107236	0	0	8239	662145	0	0
2024-05-11 17:04:32			0	35879	0	0	0	19797	18410	141529	27703	973193	39270	107237	0	0	8240	660797	0	0
2024-05-11 17:05:32			0	35910	0	0	0	19789	18410	141273	27377	973228	39260	107234	0	0	8242	659416	0	0
2024-05-11 17:06:32			0	35943	0	0	0	19784	18420	141257	27306	973236	39260	107232	0	0	8244	657911	0	0
2024-05-11 17:07:32			0	35948	0	0	0	19766	18410	141177	27268	973175	39260	107225	0	0	8245	657725	0	0
2024-05-11 17:08:32			0	35954	0	0	0	19776	18420	141125	27223	973210	39271	107229	0	0	8245	657422	0	0
2024-05-11 17:09:32			0	36000	0	0	0	19773	18420	141005	27422	973210	39271	107228	0	0	8247	655380	0	0
2024-05-11 17:10:32			0	36028	0	0	0	19776	18420	140981	27473	973218	39283	107229	0	0	8249	654139	0	0
2024-05-11 17:11:32			0	36022	0	0	0	19784	18410	140849	27557	973228	39260	107232	0	0	8248	654441	0	0
2024-05-11 17:12:32			0	36035	0	0	0	19784	18420	140717	27467	973263	39271	107232	0	0	8249	653829	0	0
2024-05-11 17:13:32			0	36069	0	0	0	19784	18420	140697	27469	973218	39272	107232	0	0	8251	652326	0	0
2024-05-11 17:14:32			0	36079	0	0	0	19781	18430	140625	27386	973226	39261	107231	0	0	8251	651848	0	0
2024-05-11 17:15:32			0	36102	0	0	0	19781	18430	140565	27658	973208	39262	107231	0	0	8253	650833	0	0
2024-05-11 17:16:32			0	36110	0	0	0	19766	18430	140513	27724	973226	39250	107225	0	0	8253	650480	0	0
2024-05-11 17:17:32			0	36120	0	0	0	19761	18420	140417	27654	973244	39250	107223	0	0	8254	650074	0	0
2024-05-11 17:18:32			0	36117	0	0	0	19763	18420	140421	27504	973218	39261	107224	0	0	8254	650207	0	0
2024-05-11 17:19:32			0	36147	0	0	0	19773	18420	140417	27502	973191	39261	107228	0	0	8255	648885	0	0
2024-05-11 17:20:32			0	36154	0	0	0	19771	18410	140361	27779	973220	39270	107227	0	0	8256	648612	0	0
2024-05-11 17:21:32			0	36160	0	0	0	19761	18420	140389	27812	973244	39261	107223	0	0	8256	648313	0	0
2024-05-11 17:22:32			0	36163	0	0	0	19771	18430	140369	27326	973253	39272	107227	0	0	8256	648145	0	0
2024-05-11 17:23:32			0	36181	0	0	0	19781	18430	140349	27743	973200	39272	107231	0	0	8257	647353	0	0
2024-05-11 17:24:32			0	36160	0	0	0	19784	18430	140289	27543	973306	39272	107232	0	0	8256	648277	0	0
2024-05-11 17:25:32			0	36178	0	0	0	19781	18430	140277	27428	973287	39284	107231	0	0	8257	647485	0	0
2024-05-11 17:26:32			0	36170	0	0	0	19766	18430	140329	27357	973234	39250	107225	0	0	8257	647837	0	0
2024-05-11 17:27:32			0	36169	0	0	0	19766	18430	140289	28039	973226	39250	107225	0	0	8257	647881	0	0
2024-05-11 17:28:32			0	36157	0	0	0	19776	18420	140293	27447	973297	39261	107229	0	0	8256	648444	0	0
2024-05-11 17:29:32			0	36170	0	0	0	19771	18420	140257	27462	973244	39250	107227	0	0	8256	647873	0	0
2024-05-11 17:30:32			0	36181	0	0	0	19763	18430	140317	27447	973253	39250	107224	0	0	8257	647353	0	0
2024-05-11 17:31:32			0	36167	0	0	0	19758	18430	140337	27299	973226	39261	107222	0	0	8257	647969	0	0
2024-05-11 17:32:32			0	36162	0	0	0	19755	18420	140293	27831	973210	39250	107221	0	0	8256	648225	0	0
2024-05-11 17:33:32			0	36171	0	0	0	19755	18430	140353	27443	973253	39250	107221	0	0	8257	647793	0	0
2024-05-11 17:34:32			0	36177	0	0	0	19758	18420	140381	27673	973218	39272	107222	0	0	8257	647565	0	0
2024-05-11 17:35:32			0	36147	0	0	0	19753	18420	140437	27656	973191	39261	107220	0	0	8256	648885	0	0
2024-05-11 17:36:32			0	36163	0	0	0	19732	18420	140553	27666	973210	39271	107212	0	0	8257	648181	0	0
2024-05-11 17:37:32			0	36157	0	0	0	19742	18410	140461	27371	973201	39250	107216	0	0	8256	648480	0	0
2024-05-11 17:38:32			0	36160	0	0	0	19750	18410	140429	27524	973140	39259	107219	0	0	8256	648348	0	0
2024-05-11 17:39:32			0	36135	0	0	0	19758	18420	140453	27689	973191	39261	107222	0	0	8255	649413	0	0
2024-05-11 17:40:32			0	36132	0	0	0	19773	18410	140513	27383	973193	39259	107228	0	0	8254	649581	0	0
2024-05-11 17:41:32			0	36137	0	0	0	19771	18420	140405	27410	973263	39260	107227	0	0	8255	649325	0	0
2024-05-11 17:42:32			0	36115	0	0	0	19776	18420	140481	27379	973263	39271	107229	0	0	8253	650295	0	0
2024-05-11 17:43:32			0	36117	0	0	0	19771	18420	140485	27362	973263	39260	107227	0	0	8254	650207	0	0
2024-05-11 17:44:32			0	36123	0	0	0	19758	18420	140473	27384	973191	39261	107222	0	0	8254	649942	0	0
2024-05-11 17:45:32			0	36118	0	0	0	19750	18420	140517	27138	973183	39260	107219	0	0	8254	650162	0	0
2024-05-11 17:46:32			0	36111	0	0	0	19755	18420	140425	27647	973130	39271	107221	0	0	8254	650471	0	0
2024-05-11 17:47:32			0	36112	0	0	0	19745	18410	140613	27293	973148	39271	107217	0	0	8254	650463	0	0
2024-05-11 17:48:32			0	36118	0	0	0	19732	18420	140629	27710	973183	39271	107212	0	0	8254	650162	0	0
2024-05-11 17:49:32			0	36117	0	0	0	19727	18410	140621	27424	973140	39259	107210	0	0	8254	650242	0	0
2024-05-11 17:50:32			0	36081	0	0	0	19727	18410	140565	27440	973140	39249	107210	0	0	8252	651831	0	0
2024-05-11 17:51:32			0	36105	0	0	0	19732	18400	140637	27390	973105	39259	107212	0	0	8254	650807	0	0
2024-05-11 17:52:32			0	36096	0	0	0	19719	18400	140549	27312	973105	39259	107207	0	0	8253	651204	0	0
2024-05-11 17:53:32			0	36109	0	0	0	19711	18400	140513	27725	973124	39258	107204	0	0	8254	650631	0	0
2024-05-11 17:54:32			0	36090	0	0	0	19688	18400	140565	27545	973071	39269	107195	0	0	8253	651469	0	0
2024-05-11 17:55:32			0	36100	0	0	0	19683	18390	140585	27552	973036	39268	107193	0	0	8254	651063	0	0
2024-05-11 17:56:32			0	36103	0	0	0	19703	18390	140573	27549	973001	39257	107201	0	0	8254	650931	0	0
2024-05-11 17:57:32			0	36097	0	0	0	19701	18370	140617	27244	973003	39256	107200	0	0	8253	651267	0	0
2024-05-11 17:58:32			0	36112	0	0	0	19680	18380	140661	27326	972993	39256	107192	0	0	8255	650569	0	0
2024-05-11 17:59:32			0	36095	0	0	0	19685	18370	140661	27131	972976	39256	107194	0	0	8254	651355	0	0
2024-05-11 18:00:32			0	36092	0	0	0	19690	18360	140705	27298	972986	39255	107196	0	0	8253	651523	0	0
2024-05-11 18:01:32			0	36077	0	0	0	19703	18370	140785	27409	972995	39256	107201	0	0	8252	652150	0	0
2024-05-11 18:02:32			0	36076	0	0	0	19701	18360	140797	27556	972986	39255	107200	0	0	8252	652230	0	0
2024-05-11 18:03:32			0	36068	0	0	0	19722	18360	140777	27703	973005	39266	107208	0	0	8252	652584	0	0
2024-05-11 18:04:32			0	36048	0	0	0	19714	18360	140749	27592	973039	39266	107205	0	0	8251	653468	0	0
2024-05-11 18:05:32			0	36054	0	0	0	19714	18370	140861	27284	972995	39256	107205	0	0	8251	653167	0	0
2024-05-11 18:06:32			0	36063	0	0	0	19719	18360	140901	27315	973031	39245	107207	0	0	8251	652805	0	0
2024-05-11 18:07:32			0	36040	0	0	0	19714	18360	140909	27235	972978	39266	107205	0	0	8250	653822	0	0
2024-05-11 18:08:32			0	36011	0	0	0	19698	18360	140857	27483	973031	39245	107199	0	0	8249	655107	0	0
2024-05-11 18:09:32			0	36011	0	0	0	19688	18370	140897	27298	972976	39267	107195	0	0	8249	655071	0	0
2024-05-11 18:10:32			0	36013	0	0	0	19698	18360	140973	27324	972925	39255	107199	0	0	8249	655019	0	0
2024-05-11 18:11:32			0	35995	0	0	0	19685	18370	141061	27495	972915	39267	107194	0	0	8248	655781	0	0
2024-05-11 18:12:32			0	35969	0	0	0	19693	18360	141093	27296	972925	39255	107197	0	0	8247	656971	0	0
2024-05-11 18:13:32			0	35953	0	0	0	19693	18350	141193	27445	972996	39265	107197	0	0	8246	657718	0	0
2024-05-11 18:14:32			0	35939	0	0	0	19701	18360	141269	27781	972907	39266	107200	0	0	8245	658305	0	0
2024-05-11 18:15:32			0	35938	0	0	0	19696	18360	141277	27656	972907	39245	107198	0	0	8245	658349	0	0
2024-05-11 18:16:32			0	35916	0	0	0	19690	18350	141313	27575	972961	39265	107196	0	0	8244	659365	0	0
2024-05-11 18:17:32			0	35888	0	0	0	19659	18350	141485	27725	972917	39265	107184	0	0	8243	660612	0	0
2024-05-11 18:18:32			0	35900	0	0	0	19667	18350	141485	27303	972935	39265	107187	0	0	8243	660077	0	0
2024-05-11 18:19:32			0	35847	0	0	0	19651	18350	141484	27653	972864	39265	107181	0	0	8241	662443	0	0
2024-05-11 18:20:32			0	35838	0	0	0	19644	18350	141580	27396	972855	39254	107178	0	0	8240	662845	0	0
2024-05-11 18:21:32			0	35822	0	0	0	19628	18340	141784	27422	972900	39253	107172	0	0	8240	663597	0	0
2024-05-11 18:22:32			0	35795	0	0	0	19625	18340	141880	27809	972794	39264	107171	0	0	8238	664806	0	0
2024-05-11 18:23:32			0	35773	0	0	0	19636	18340	141904	27755	972812	39253	107175	0	0	8237	665792	0	0
2024-05-11 18:24:32			0	35762	0	0	0	19667	18330	141936	27190	972857	39242	107187	0	0	8236	666322	0	0
2024-05-11 18:25:32			0	35728	0	0	0	19675	18330	142024	27410	972857	39252	107190	0	0	8234	667849	0	0
2024-05-11 18:26:32			0	35729	0	0	0	19675	18330	142180	27601	972804	39274	107190	0	0	8234	667804	0	0
2024-05-11 18:27:32			0	35711	0	0	0	19685	18330	142144	27260	972875	39263	107194	0	0	8233	668614	0	0
2024-05-11 18:28:32			0	35690	0	0	0	19698	18330	142208	27410	972910	39263	107199	0	0	8231	669559	0	0
2024-05-11 18:29:32			0	35672	0	0	0	19693	18340	142304	27253	972874	39275	107197	0	0	8230	670333	0	0
2024-05-11 18:30:32			0	35656	0	0	0	19698	18330	142412	27339	972857	39252	107199	0	0	8229	671091	0	0
2024-05-11 18:31:32			0	35649	0	0	0	19698	18340	142352	27469	972945	39264	107199	0	0	8229	671370	0	0
2024-05-11 18:32:32			0	35630	0	0	0	19696	18340	142396	27334	972953	39264	107198	0	0	8228	672228	0	0
2024-05-11 18:33:32			0	35622	0	0	0	19683	18340	142420	27633	972865	39253	107193	0	0	8228	672589	0	0
2024-05-11 18:34:32			0	35625	0	0	0	19696	18340	142484	27402	972874	39275	107198	0	0	8228	672454	0	0
2024-05-11 18:35:32			0	35604	0	0	0	19703	18340	142552	27550	972945	39264	107201	0	0	8227	673403	0	0
2024-05-11 18:36:32			0	35604	0	0	0	19724	18350	142552	27737	972943	39254	107209	0	0	8226	673366	0	0
2024-05-11 18:37:32			0	35598	0	0	0	19735	18350	142536	27395	972988	39254	107213	0	0	8226	673637	0	0
2024-05-11 18:38:32			0	35586	0	0	0	19729	18350	142552	27826	973049	39276	107211	0	0	8225	674180	0	0
2024-05-11 18:39:32			0	35566	0	0	0	19727	18360	142572	27322	973058	39266	107210	0	0	8224	675049	0	0
2024-05-11 18:40:32			0	35558	0	0	0	19727	18370	142712	27490	973056	39267	107210	0	0	8224	675375	0	0
2024-05-11 18:41:32			0	35553	0	0	0	19735	18370	142736	27357	973109	39267	107213	0	0	8223	675601	0	0
2024-05-11 18:42:32			0	35570	0	0	0	19740	18360	142660	27765	973039	39255	107215	0	0	8224	674868	0	0
2024-05-11 18:43:32			0	35564	0	0	0	19755	18370	142624	27204	973109	39289	107221	0	0	8224	675103	0	0
2024-05-11 18:44:32			0	35548	0	0	0	19779	18380	142816	27452	973064	39268	107230	0	0	8222	675791	0	0
2024-05-11 18:45:32			0	35542	0	0	0	19779	18380	142788	27130	973117	39268	107230	0	0	8222	676063	0	0
2024-05-11 18:46:32			0	35547	0	0	0	19789	18380	142780	27400	973170	39279	107234	0	0	8222	675836	0	0
2024-05-11 18:47:32			0	35555	0	0	0	19773	18380	142820	27396	973117	39279	107228	0	0	8223	675474	0	0
2024-05-11 18:48:32			0	35512	0	0	0	19766	18390	142808	27464	973107	39280	107225	0	0	8221	677387	0	0
2024-05-11 18:49:32			0	35528	0	0	0	19766	18380	142772	27300	973117	39256	107225	0	0	8222	676698	0	0
2024-05-11 18:50:32			0	35536	0	0	0	19763	18380	142916	27573	973125	39279	107224	0	0	8222	676335	0	0
2024-05-11 18:51:32			0	35532	0	0	0	19810	18400	142752	27393	973423	39291	107242	0	0	8221	676443	0	0
2024-05-11 18:52:32			0	35523	0	0	0	19844	18430	142832	27367	973597	39316	107255	0	0	8220	676740	0	0
2024-05-11 18:53:32			0	35521	0	0	0	19831	18460	142800	27710	973707	39308	107250	0	0	8220	676720	0	0
2024-05-11 18:54:32			0	35508	0	0	0	19833	18480	142736	27640	973794	39288	107251	0	0	8220	677236	0	0
2024-05-11 18:55:32			0	35493	0	0	0	19937	18510	142772	27649	973880	39300	107291	0	0	8217	677806	0	0
2024-05-11 18:56:32			0	35498	0	0	0	19999	18520	142888	27358	973931	39291	107315	0	0	8217	677542	0	0
2024-05-11 18:57:32			0	35483	0	0	0	20038	18550	142920	27464	974025	39315	107330	0	0	8215	678112	0	0
2024-05-11 18:58:32			0	35475	0	0	0	19986	18560	142988	27509	974068	39305	107310	0	0	8216	678438	0	0
2024-05-11 18:59:32			0	35453	0	0	0	19948	18580	142888	27755	974022	39296	107295	0	0	8215	679364	0	0
2024-05-11 19:00:32			0	35450	0	0	0	19922	18570	142952	27419	974040	39295	107285	0	0	8215	679538	0	0
2024-05-11 19:01:32			0	35452	0	0	0	19922	18590	142876	27253	974091	39297	107285	0	0	8216	679373	0	0
2024-05-11 19:02:32			0	35426	0	0	0	19927	18600	143028	27635	974108	39287	107287	0	0	8214	680519	0	0
2024-05-11 19:03:32			0	35448	0	0	0	19880	18600	142972	27189	974055	39276	107269	0	0	8216	679517	0	0
2024-05-11 19:04:32			0	35430	0	0	0	19857	18600	142972	27606	973984	39299	107260	0	0	8216	680337	0	0
2024-05-11 19:05:32			0	35430	0	0	0	19828	18590	142988	27275	973809	39287	107249	0	0	8216	680374	0	0
2024-05-11 19:06:32			0	35409	0	0	0	19805	18570	143020	27625	973688	39273	107240	0	0	8215	681406	0	0
2024-05-11 19:07:32			0	35406	0	0	0	19797	18550	143000	27573	973637	39250	107237	0	0	8215	681617	0	0
2024-05-11 19:08:32			0	35419	0	0	0	19776	18530	143036	27597	973551	39259	107229	0	0	8216	681099	0	0
2024-05-11 19:09:32			0	35414	0	0	0	19755	18510	143156	27561	973430	39256	107221	0	0	8216	681401	0	0
2024-05-11 19:10:32			0	35413	0	0	0	19696	18500	143088	27481	973342	39256	107198	0	0	8217	681484	0	0
2024-05-11 19:11:32			0	35391	0	0	0	19683	18470	143268	27611	973274	39254	107193	0	0	8216	682600	0	0
2024-05-11 19:12:32			0	35389	0	0	0	19677	18460	143136	27682	973170	39242	107191	0	0	8216	682729	0	0
2024-05-11 19:13:32			0	35363	0	0	0	19667	18440	143272	27516	973137	39250	107187	0	0	8214	683992	0	0
2024-05-11 19:14:32			0	35384	0	0	0	19664	18430	143236	27268	973094	39250	107186	0	0	8216	683069	0	0
2024-05-11 19:15:32			0	35383	0	0	0	19651	18420	143244	27466	973024	39238	107181	0	0	8216	683152	0	0
2024-05-11 19:16:32			0	35374	0	0	0	19638	18400	143360	27338	972973	39249	107176	0	0	8215	683638	0	0
2024-05-11 19:17:32			0	35359	0	0	0	19628	18390	143344	27462	972877	39247	107172	0	0	8215	684361	0	0
2024-05-11 19:18:32			0	35375	0	0	0	19605	18370	143284	27355	972871	39234	107163	0	0	8216	683704	0	0
2024-05-11 19:19:32			0	35374	0	0	0	19592	18360	143340	27654	972775	39233	107158	0	0	8216	683787	0	0
2024-05-11 19:20:32			0	35365	0	0	0	19563	18350	143296	27440	972697	39244	107147	0	0	8216	684236	0	0
2024-05-11 19:21:32			0	35363	0	0	0	19558	18340	143376	27445	972654	39243	107145	0	0	8216	684365	0	0
2024-05-11 19:22:32			0	35375	0	0	0	19535	18320	143424	27422	972568	39240	107136	0	0	8217	683891	0	0
2024-05-11 19:23:32			0	35371	0	0	0	19511	18310	143180	27350	972551	39239	107127	0	0	8217	684112	0	0
2024-05-11 19:24:32			0	35374	0	0	0	19490	18290	143228	27298	972465	39226	107119	0	0	8217	684049	0	0
2024-05-11 19:25:32			0	35387	0	0	0	19493	18270	143208	27479	972406	39236	107120	0	0	8218	683529	0	0
2024-05-11 19:26:32			0	35373	0	0	0	19472	18260	143316	27642	972318	39225	107112	0	0	8218	684207	0	0
2024-05-11 19:27:32			0	35396	0	0	0	19449	18240	143228	27639	972206	39223	107103	0	0	8219	683230	0	0
2024-05-11 19:28:32			0	35379	0	0	0	19433	18230	143164	27438	972234	39210	107097	0	0	8218	684044	0	0
2024-05-11 19:29:32			0	35389	0	0	0	19433	18200	143232	27419	972201	39220	107097	0	0	8219	683699	0	0
2024-05-11 19:30:32			0	35393	0	0	0	19433	18200	143316	27256	972201	39220	107097	0	0	8219	683516	0	0
2024-05-11 19:31:32			0	35400	0	0	0	19415	18190	143312	27521	972158	39241	107090	0	0	8220	683233	0	0
2024-05-11 19:32:32			0	35415	0	0	0	19392	18170	143312	27784	972045	39217	107081	0	0	8221	682623	0	0
2024-05-11 19:33:32			0	35417	0	0	0	19374	18170	143324	27341	971992	39207	107074	0	0	8221	682531	0	0
2024-05-11 19:34:32			0	35401	0	0	0	19363	18150	143304	27391	971986	39205	107070	0	0	8220	683337	0	0
2024-05-11 19:35:32			0	35418	0	0	0	19350	18130	143244	27445	971820	39214	107065	0	0	8221	682635	0	0
2024-05-11 19:36:32			0	35420	0	0	0	19342	18120	143176	27445	971830	39223	107062	0	0	8222	682580	0	0
2024-05-11 19:37:32			0	35418	0	0	0	19332	18100	143164	27518	971691	39210	107058	0	0	8222	682746	0	0
2024-05-11 19:38:32			0	35394	0	0	0	19301	18100	143236	27379	971657	39209	107046	0	0	8221	683844	0	0
2024-05-11 19:39:32			0	35407	0	0	0	19296	18080	143152	26981	971597	39208	107044	0	0	8222	683323	0	0
2024-05-11 19:40:32			0	35398	0	0	0	19301	18060	143132	27306	971546	39196	107046	0	0	8221	683810	0	0
2024-05-11 19:41:32			0	35423	0	0	0	19303	18050	143224	26977	971556	39206	107047	0	0	8222	682704	0	0
2024-05-11 19:42:32			0	35426	0	0	0	19288	18050	143176	27319	971495	39206	107041	0	0	8223	682567	0	0
2024-05-11 19:43:32			0	35446	0	0	0	19301	18050	143168	27509	971548	39216	107046	0	0	8223	681654	0	0
2024-05-11 19:44:32			0	35468	0	0	0	19309	18030	143224	27287	971576	39225	107049	0	0	8224	680724	0	0
2024-05-11 19:45:32			0	35455	0	0	0	19311	18030	143280	27189	971496	39214	107050	0	0	8224	681317	0	0
2024-05-11 19:46:32			0	35451	0	0	0	19314	18030	143180	27646	971515	39214	107051	0	0	8223	681500	0	0
2024-05-11 19:47:32			0	35467	0	0	0	19311	18020	143140	27319	971506	39214	107050	0	0	8224	680807	0	0
2024-05-11 19:48:32			0	35455	0	0	0	19324	18020	143132	27464	971498	39213	107055	0	0	8223	681354	0	0
2024-05-11 19:49:32			0	35469	0	0	0	19322	18020	143084	27301	971506	39225	107054	0	0	8224	680716	0	0
2024-05-11 19:50:32			0	35469	0	0	0	19342	18020	143064	27213	971480	39214	107062	0	0	8224	680716	0	0
2024-05-11 19:51:32			0	35485	0	0	0	19322	18020	143064	27244	971524	39213	107054	0	0	8225	679986	0	0
2024-05-11 19:52:32			0	35501	0	0	0	19314	18010	143068	27346	971481	39202	107051	0	0	8226	679295	0	0
2024-05-11 19:53:32			0	35532	0	0	0	19316	18010	143012	27485	971384	39202	107052	0	0	8228	677884	0	0
2024-05-11 19:54:32			0	35537	0	0	0	19303	18010	142936	27748	971410	39202	107047	0	0	8228	677657	0	0
2024-05-11 19:55:32			0	35529	0	0	0	19293	17990	142960	27738	971316	39200	107043	0	0	8228	678095	0	0
2024-05-11 19:56:32			0	35529	0	0	0	19280	17980	142812	27531	971326	39200	107038	0	0	8228	678132	0	0
2024-05-11 19:57:32			0	35534	0	0	0	19244	17970	142884	27377	971204	39198	107024	0	0	8229	677941	0	0
2024-05-11 19:58:32			0	35537	0	0	0	19244	17960	142852	27168	971275	39198	107024	0	0	8229	677842	0	0
2024-05-11 19:59:32			0	35569	0	0	0	19233	17950	142792	27331	971205	39197	107020	0	0	8231	676425	0	0
2024-05-11 20:00:32			0	35567	0	0	0	19225	17950	142808	27319	971171	39196	107017	0	0	8231	676516	0	0
2024-05-11 20:01:32			0	35565	0	0	0	19199	17940	142784	27324	971136	39185	107007	0	0	8231	676644	0	0
2024-05-11 20:02:32			0	35556	0	0	0	19197	17930	142788	27557	971067	39207	107006	0	0	8231	677089	0	0
2024-05-11 20:03:32			0	35582	0	0	0	19202	17920	142764	27663	971042	39194	107008	0	0	8232	675946	0	0
2024-05-11 20:04:32			0	35574	0	0	0	19189	17900	142776	27502	971025	39193	107003	0	0	8232	676383	0	0
2024-05-11 20:05:32			0	35589	0	0	0	19192	17910	142716	27653	971034	39194	107004	0	0	8233	675665	0	0
2024-05-11 20:06:32			0	35572	0	0	0	19184	17900	142692	27656	971025	39193	107001	0	0	8232	676473	0	0
2024-05-11 20:07:32			0	35578	0	0	0	19176	17900	142724	27549	970999	39193	106998	0	0	8232	676201	0	0
2024-05-11 20:08:32			0	35594	0	0	0	19171	17890	142684	27419	970974	39192	106996	0	0	8233	675512	0	0
2024-05-11 20:09:32			0	35593	0	0	0	19186	17890	142688	27319	970948	39203	107002	0	0	8233	675557	0	0
2024-05-11 20:10:32			0	35596	0	0	0	19174	17880	142720	27345	970905	39201	106997	0	0	8233	675458	0	0
2024-05-11 20:11:32			0	35599	0	0	0	19142	17860	142748	27396	970906	39189	106985	0	0	8234	675396	0	0
2024-05-11 20:12:32			0	35617	0	0	0	19114	17860	142660	27517	970872	39189	106974	0	0	8235	674580	0	0
2024-05-11 20:13:32			0	35623	0	0	0	19106	17850	142660	27048	970837	39177	106971	0	0	8236	674345	0	0
2024-05-11 20:14:32			0	35624	0	0	0	19083	17840	142548	27315	970741	39177	106962	0	0	8236	674336	0	0
2024-05-11 20:15:32			0	35625	0	0	0	19062	17830	142532	27528	970645	39176	106954	0	0	8236	674328	0	0
2024-05-11 20:16:32			0	35639	0	0	0	19038	17810	142556	27367	970586	39184	106945	0	0	8237	673767	0	0
2024-05-11 20:17:32			0	35635	0	0	0	19028	17810	142480	27305	970472	39163	106941	0	0	8237	673948	0	0
2024-05-11 20:18:32			0	35644	0	0	0	19025	17790	142560	27464	970412	39161	106940	0	0	8238	673614	0	0
2024-05-11 20:19:32			0	35637	0	0	0	19018	17780	142444	27263	970422	39182	106937	0	0	8238	673968	0	0
2024-05-11 20:20:32			0	35668	0	0	0	19015	17770	142504	27533	970414	39170	106936	0	0	8239	672601	0	0
2024-05-11 20:21:32			0	35661	0	0	0	18999	17750	142500	27235	970275	39179	106930	0	0	8239	672991	0	0
2024-05-11 20:22:32			0	35663	0	0	0	18989	17740	142528	27576	970285	39157	106926	0	0	8239	672938	0	0
2024-05-11 20:23:32			0	35665	0	0	0	18966	17730	142520	27649	970189	39156	106917	0	0	8240	672884	0	0
2024-05-11 20:24:32			0	35662	0	0	0	18953	17710	142464	27452	970130	39154	106912	0	0	8240	673093	0	0
2024-05-11 20:25:32			0	35688	0	0	0	18958	17700	142420	27613	970105	39153	106914	0	0	8241	671954	0	0
2024-05-11 20:26:32			0	35685	0	0	0	18948	17690	142528	27703	970036	39173	106910	0	0	8241	672126	0	0
2024-05-11 20:27:32			0	35706	0	0	0	18948	17690	142436	27717	970070	39164	106910	0	0	8242	671177	0	0
2024-05-11 20:28:32			0	35680	0	0	0	18942	17680	142380	27547	970045	39162	106908	0	0	8241	672388	0	0
2024-05-11 20:29:32			0	35703	0	0	0	18948	17670	142476	27646	970011	39161	106910	0	0	8242	671386	0	0
2024-05-11 20:30:32			0	35704	0	0	0	18940	17670	142408	27410	970011	39161	106907	0	0	8242	671341	0	0
2024-05-11 20:31:32			0	35713	0	0	0	18935	17660	142384	27235	969994	39150	106905	0	0	8243	670970	0	0
2024-05-11 20:32:32			0	35726	0	0	0	18940	17650	142376	27381	969969	39148	106907	0	0	8243	670420	0	0
2024-05-11 20:33:32			0	35727	0	0	0	18935	17640	142376	27734	969874	39147	106905	0	0	8243	670412	0	0
2024-05-11 20:34:32			0	35723	0	0	0	18937	17650	142488	27514	969969	39159	106906	0	0	8243	670556	0	0
2024-05-11 20:35:32			0	35732	0	0	0	18927	17630	142396	27428	969918	39147	106902	0	0	8244	670223	0	0
2024-05-11 20:36:32			0	35747	0	0	0	18916	17630	142400	27440	969804	39147	106898	0	0	8245	669546	0	0
2024-05-11 20:37:32			0	35737	0	0	0	18916	17630	142340	27017	969884	39158	106898	0	0	8244	669997	0	0
2024-05-11 20:38:32			0	35730	0	0	0	18911	17620	142348	27461	969822	39157	106896	0	0	8244	670349	0	0
2024-05-11 20:39:32			0	35778	0	0	0	18922	17600	142232	27374	969797	39144	106900	0	0	8246	668259	0	0
2024-05-11 20:40:32			0	35773	0	0	0	18924	17600	142196	27767	969718	39155	106901	0	0	8246	668484	0	0
2024-05-11 20:41:32			0	35764	0	0	0	18927	17600	142292	27685	969789	39144	106902	0	0	8245	668889	0	0
2024-05-11 20:42:32			0	35786	0	0	0	18916	17600	142204	27353	969763	39155	106898	0	0	8247	667899	0	0
2024-05-11 20:43:32			0	35788	0	0	0	18919	17590	142252	27452	969667	39143	106899	0	0	8247	667845	0	0
2024-05-11 20:44:32			0	35793	0	0	0	18916	17570	142156	27549	969721	39153	106898	0	0	8247	667693	0	0
2024-05-11 20:45:32			0	35782	0	0	0	18906	17580	142200	27320	969624	39165	106894	0	0	8246	668151	0	0
2024-05-11 20:46:32			0	35797	0	0	0	18911	17560	142236	27467	969599	39141	106896	0	0	8247	667549	0	0
2024-05-11 20:47:32			0	35813	0	0	0	18903	17560	142132	27550	969626	39141	106893	0	0	8248	666830	0	0
2024-05-11 20:48:32			0	35813	0	0	0	18898	17550	142184	27367	969636	39141	106891	0	0	8248	666866	0	0
2024-05-11 20:49:32			0	35808	0	0	0	18909	17560	142188	27635	969573	39141	106895	0	0	8248	667054	0	0
2024-05-11 20:50:32			0	35793	0	0	0	18911	17540	142148	27086	969585	39138	106896	0	0	8247	667802	0	0
2024-05-11 20:51:32			0	35816	0	0	0	18914	17550	142152	27569	969583	39163	106897	0	0	8248	666731	0	0
2024-05-11 20:52:32			0	35811	0	0	0	18909	17550	142100	27402	969627	39140	106895	0	0	8248	666956	0	0
2024-05-11 20:53:32			0	35794	0	0	0	18924	17550	142208	27301	969575	39162	106901	0	0	8247	667720	0	0
2024-05-11 20:54:32			0	35813	0	0	0	18929	17540	142248	27514	969593	39161	106903	0	0	8248	666902	0	0
2024-05-11 20:55:32			0	35822	0	0	0	18919	17560	142220	27486	969644	39152	106899	0	0	8248	666425	0	0
2024-05-11 20:56:32			0	35823	0	0	0	18911	17540	142256	27571	969619	39161	106896	0	0	8248	666453	0	0
2024-05-11 20:57:32			0	35821	0	0	0	18909	17550	142116	27346	969583	39152	106895	0	0	8248	666506	0	0
2024-05-11 20:58:32			0	35821	0	0	0	18903	17550	142148	27416	969575	39151	106893	0	0	8248	666506	0	0
2024-05-11 20:59:32			0	35818	0	0	0	18888	17540	142092	27732	969540	39150	106887	0	0	8249	666677	0	0
2024-05-11 21:00:32			0	35839	0	0	0	18901	17540	142052	27471	969505	39149	106892	0	0	8249	665734	0	0
2024-05-11 21:01:32			0	35818	0	0	0	18893	17530	142172	27284	969594	39138	106889	0	0	8248	666714	0	0
2024-05-11 21:02:32			0	35808	0	0	0	18901	17530	142124	27575	969542	39149	106892	0	0	8248	667163	0	0
2024-05-11 21:03:32			0	35797	0	0	0	18893	17540	142124	27310	969611	39149	106889	0	0	8247	667622	0	0
2024-05-11 21:04:32			0	35812	0	0	0	18898	17530	142144	27237	969515	39170	106891	0	0	8248	666983	0	0
2024-05-11 21:05:32			0	35823	0	0	0	18890	17530	142136	27357	969515	39149	106888	0	0	8249	666489	0	0
2024-05-11 21:06:32			0	35800	0	0	0	18911	17540	142112	27528	969505	39160	106896	0	0	8247	667487	0	0
2024-05-11 21:07:32			0	35816	0	0	0	18903	17520	142080	27547	969533	39159	106893	0	0	8248	666840	0	0
2024-05-11 21:08:32			0	35817	0	0	0	18903	17520	142100	27417	969533	39148	106893	0	0	8248	666795	0	0
2024-05-11 21:09:32			0	35816	0	0	0	18901	17520	142072	27197	969525	39147	106892	0	0	8248	666840	0	0
2024-05-11 21:10:32			0	35826	0	0	0	18901	17510	142164	27072	969535	39147	106892	0	0	8249	666427	0	0
2024-05-11 21:11:32			0	35809	0	0	0	18896	17510	142160	27450	969517	39159	106890	0	0	8248	667191	0	0
2024-05-11 21:12:32			0	35810	0	0	0	18903	17520	142180	27076	969552	39159	106893	0	0	8248	667109	0	0
2024-05-11 21:13:32			0	35799	0	0	0	18896	17520	142096	27505	969499	39147	106890	0	0	8247	667604	0	0
2024-05-11 21:14:32			0	35806	0	0	0	18896	17520	142216	27052	969499	39136	106890	0	0	8248	667289	0	0
2024-05-11 21:15:32			0	35809	0	0	0	18893	17510	142188	27526	969490	39147	106889	0	0	8248	667191	0	0
2024-05-11 21:16:32			0	35792	0	0	0	18883	17500	142140	27320	969439	39157	106885	0	0	8247	667992	0	0
2024-05-11 21:17:32			0	35800	0	0	0	18885	17510	142228	27696	969429	39147	106886	0	0	8247	667596	0	0
2024-05-11 21:18:32			0	35800	0	0	0	18885	17500	142112	27303	969439	39146	106886	0	0	8247	667632	0	0
2024-05-11 21:19:32			0	35804	0	0	0	18880	17510	142248	27372	969456	39147	106884	0	0	8248	667416	0	0
2024-05-11 21:20:32			0	35797	0	0	0	18883	17500	142180	27421	969421	39158	106885	0	0	8247	667767	0	0
2024-05-11 21:21:32			0	35788	0	0	0	18875	17500	142180	27402	969439	39146	106882	0	0	8247	668172	0	0
2024-05-11 21:22:32			0	35802	0	0	0	18864	17490	142276	27000	969378	39146	106878	0	0	8248	667578	0	0
2024-05-11 21:23:32			0	35802	0	0	0	18867	17500	142280	27345	969413	39146	106879	0	0	8248	667542	0	0
2024-05-11 21:24:32			0	35800	0	0	0	18862	17490	142176	27255	969370	39157	106877	0	0	8248	667668	0	0
2024-05-11 21:25:32			0	35794	0	0	0	18864	17490	142288	27604	969378	39157	106878	0	0	8247	667938	0	0
2024-05-11 21:26:32			0	35798	0	0	0	18872	17490	142180	27897	969378	39146	106881	0	0	8247	667758	0	0
2024-05-11 21:27:32			0	35791	0	0	0	18859	17480	142244	27580	969388	39134	106876	0	0	8247	668110	0	0
2024-05-11 21:28:32			0	35804	0	0	0	18862	17480	142256	27303	969327	39155	106877	0	0	8248	667525	0	0
2024-05-11 21:29:32			0	35820	0	0	0	18859	17490	142152	27422	969352	39146	106876	0	0	8249	666769	0	0
2024-05-11 21:30:32			0	35809	0	0	0	18862	17470	142292	27353	969371	39154	106877	0	0	8248	667336	0	0
2024-05-11 21:31:32			0	35793	0	0	0	18854	17480	142340	27687	969335	39145	106874	0	0	8247	668020	0	0
2024-05-11 21:32:32			0	35795	0	0	0	18864	17480	142208	27374	969327	39144	106878	0	0	8247	667930	0	0
2024-05-11 21:33:32			0	35809	0	0	0	18851	17470	142252	27495	969319	39143	106873	0	0	8248	667336	0	0
2024-05-11 21:34:32			0	35821	0	0	0	18854	17470	142328	27279	969292	39143	106874	0	0	8249	666796	0	0
2024-05-11 21:35:32			0	35794	0	0	0	18854	17460	142240	27639	969302	39143	106874	0	0	8247	668047	0	0
2024-05-11 21:36:32			0	35805	0	0	0	18846	17470	142172	27476	969292	39154	106871	0	0	8248	667516	0	0
2024-05-11 21:37:32			0	35799	0	0	0	18846	17480	142304	27307	969327	39155	106871	0	0	8248	667750	0	0
2024-05-11 21:38:32			0	35786	0	0	0	18841	17470	142240	27543	969319	39154	106869	0	0	8247	668371	0	0
2024-05-11 21:39:32			0	35786	0	0	0	18844	17470	142332	27242	969337	39143	106870	0	0	8247	668371	0	0
2024-05-11 21:40:32			0	35803	0	0	0	18828	17460	142300	27326	969276	39154	106864	0	0	8248	667642	0	0
2024-05-11 21:41:32			0	35798	0	0	0	18836	17470	142288	27647	969284	39132	106867	0	0	8248	667831	0	0
2024-05-11 21:42:32			0	35803	0	0	0	18841	17470	142288	27365	969284	39154	106869	0	0	8248	667606	0	0
2024-05-11 21:43:32			0	35810	0	0	0	18836	17450	142252	27526	969286	39164	106867	0	0	8249	667363	0	0
2024-05-11 21:44:32			0	35832	0	0	0	18844	17460	142252	27571	969294	39142	106870	0	0	8250	666338	0	0
2024-05-11 21:45:32			0	35807	0	0	0	18836	17460	142304	27429	969223	39132	106867	0	0	8248	667462	0	0
2024-05-11 21:46:32			0	35783	0	0	0	18828	17450	142268	27168	969259	39164	106864	0	0	8247	668579	0	0
2024-05-11 21:47:32			0	35810	0	0	0	18831	17460	142272	27488	969215	39142	106865	0	0	8249	667327	0	0
2024-05-11 21:48:32			0	35802	0	0	0	18831	17450	142224	27552	969206	39141	106865	0	0	8248	667724	0	0
2024-05-11 21:49:32			0	35811	0	0	0	18820	17440	142220	27192	969216	39141	106861	0	0	8249	667355	0	0
2024-05-11 21:50:32			0	35806	0	0	0	18823	17450	142264	27575	969145	39152	106862	0	0	8249	667544	0	0
2024-05-11 21:51:32			0	35818	0	0	0	18823	17450	142288	27203	969172	39141	106862	0	0	8249	667004	0	0
2024-05-11 21:52:32			0	35822	0	0	0	18815	17450	142260	27531	969172	39141	106859	0	0	8250	666824	0	0
2024-05-11 21:53:32			0	35823	0	0	0	18815	17440	142252	27550	969190	39141	106859	0	0	8250	666815	0	0
2024-05-11 21:54:32			0	35828	0	0	0	18823	17440	142264	27429	969137	39130	106862	0	0	8250	666590	0	0
2024-05-11 21:55:32			0	35828	0	0	0	18812	17430	142280	27547	969173	39140	106858	0	0	8250	666627	0	0
2024-05-11 21:56:32			0	35797	0	0	0	18815	17440	142332	27336	969190	39152	106859	0	0	8248	667985	0	0
2024-05-11 21:57:32			0	35831	0	0	0	18815	17430	142264	27402	969147	39140	106859	0	0	8250	666492	0	0
2024-05-11 21:58:32			0	35840	0	0	0	18805	17430	142252	27258	969139	39140	106855	0	0	8251	666087	0	0
2024-05-11 21:59:32			0	35843	0	0	0	18812	17430	142224	27492	969192	39151	106858	0	0	8251	665953	0	0
2024-05-11 22:00:32			0	35817	0	0	0	18810	17430	142208	27531	969121	39140	106857	0	0	8249	667121	0	0
2024-05-11 22:01:32			0	35843	0	0	0	18805	17440	142268	27239	969129	39152	106855	0	0	8251	665916	0	0
2024-05-11 22:02:32			0	35846	0	0	0	18807	17420	142168	27305	969051	39151	106856	0	0	8251	665854	0	0
2024-05-11 22:03:32			0	35840	0	0	0	18799	17430	142236	27320	969112	39140	106853	0	0	8251	666087	0	0
2024-05-11 22:04:32			0	35838	0	0	0	18802	17430	142168	27796	969112	39140	106854	0	0	8251	666177	0	0
2024-05-11 22:05:32			0	35858	0	0	0	18799	17420	142128	27538	969051	39140	106853	0	0	8252	665315	0	0
2024-05-11 22:06:32			0	35864	0	0	0	18797	17420	142221	27124	969104	39140	106852	0	0	8252	665046	0	0
2024-05-11 22:07:32			0	35845	0	0	0	18799	17410	142040	27585	969114	39149	106853	0	0	8251	665935	0	0
2024-05-11 22:08:32			0	35834	0	0	0	18797	17420	142060	27395	969043	39150	106852	0	0	8250	666393	0	0
2024-05-11 22:09:32			0	35848	0	0	0	18797	17420	142244	27509	969096	39139	106852	0	0	8251	665764	0	0
2024-05-11 22:10:32			0	35854	0	0	0	18792	17400	142140	27329	969045	39137	106850	0	0	8251	665567	0	0
2024-05-11 22:11:32			0	35861	0	0	0	18805	17410	142057	27647	969079	39148	106855	0	0	8252	665217	0	0
2024-05-11 22:12:32			0	35858	0	0	0	18797	17410	142016	27635	969106	39148	106852	0	0	8252	665351	0	0
2024-05-11 22:13:32			0	35873	0	0	0	18794	17420	142053	27592	969122	39139	106851	0	0	8253	664642	0	0
2024-05-11 22:14:32			0	35874	0	0	0	18799	17420	141929	27810	969096	39150	106853	0	0	8253	664597	0	0
2024-05-11 22:15:32			0	35871	0	0	0	18794	17410	141993	27505	969053	39148	106851	0	0	8252	664768	0	0
2024-05-11 22:16:32			0	35868	0	0	0	18797	17410	141997	27628	969088	39127	106852	0	0	8252	664902	0	0
2024-05-11 22:17:32			0	35872	0	0	0	18792	17410	141945	27350	969061	39138	106850	0	0	8253	664723	0	0
2024-05-11 22:18:32			0	35871	0	0	0	18784	17410	141917	27454	969000	39137	106847	0	0	8253	664768	0	0
2024-05-11 22:19:32			0	35892	0	0	0	18784	17400	141985	27633	969018	39148	106847	0	0	8254	663862	0	0
2024-05-11 22:20:32			0	35905	0	0	0	18789	17400	141989	27672	969071	39148	106849	0	0	8254	663280	0	0
2024-05-11 22:21:32			0	35892	0	0	0	18781	17400	141933	27426	969063	39137	106846	0	0	8254	663862	0	0
2024-05-11 22:22:32			0	35909	0	0	0	18789	17400	141949	27549	969036	39137	106849	0	0	8255	663101	0	0
2024-05-11 22:23:32			0	35893	0	0	0	18794	17400	141865	27685	969071	39148	106851	0	0	8254	663817	0	0
2024-05-11 22:24:32			0	35924	0	0	0	18789	17410	141925	27478	969027	39137	106849	0	0	8255	662393	0	0
2024-05-11 22:25:32			0	35916	0	0	0	18794	17400	141881	27459	968984	39148	106851	0	0	8255	662787	0	0
2024-05-11 22:26:32			0	35906	0	0	0	18792	17410	141825	27431	969079	39126	106850	0	0	8254	663199	0	0
2024-05-11 22:27:32			0	35919	0	0	0	18794	17400	141781	27540	969036	39137	106851	0	0	8255	662653	0	0
2024-05-11 22:28:32			0	35935	0	0	0	18797	17410	141757	27828	969079	39137	106852	0	0	8256	661901	0	0
2024-05-11 22:29:32			0	35926	0	0	0	18797	17400	141869	27353	969045	39137	106852	0	0	8255	662340	0	0
2024-05-11 22:30:32			0	35949	0	0	0	18794	17400	141805	27310	969071	39159	106851	0	0	8257	661311	0	0
2024-05-11 22:31:32			0	35941	0	0	0	18789	17400	141829	27689	969071	39137	106849	0	0	8256	661669	0	0
2024-05-11 22:32:32			0	35938	0	0	0	18797	17410	141733	27374	969000	39148	106852	0	0	8256	661767	0	0
2024-05-11 22:33:32			0	35956	0	0	0	18789	17390	141665	27618	969055	39147	106849	0	0	8257	661034	0	0
2024-05-11 22:34:32			0	35962	0	0	0	18792	17400	141661	27483	969071	39148	106850	0	0	8257	660730	0	0
2024-05-11 22:35:32			0	35955	0	0	0	18786	17410	141621	27493	968974	39137	106848	0	0	8257	661007	0	0
2024-05-11 22:36:32			0	35976	0	0	0	18784	17390	141689	27358	969055	39147	106847	0	0	8258	660141	0	0
2024-05-11 22:37:32			0	35969	0	0	0	18776	17410	141633	27706	969053	39148	106844	0	0	8258	660381	0	0
2024-05-11 22:38:32			0	35971	0	0	0	18786	17390	141573	27479	968975	39147	106848	0	0	8258	660364	0	0
2024-05-11 22:39:32			0	35982	0	0	0	18786	17390	141505	27692	969028	39125	106848	0	0	8258	659873	0	0
2024-05-11 22:40:32			0	35981	0	0	0	18776	17400	141541	27369	969036	39137	106844	0	0	8259	659882	0	0
2024-05-11 22:41:32			0	35983	0	0	0	18779	17390	141493	27497	968967	39125	106845	0	0	8259	659828	0	0
2024-05-11 22:42:32			0	35989	0	0	0	18771	17390	141561	27500	968941	39146	106842	0	0	8259	659561	0	0
2024-05-11 22:43:32			0	35984	0	0	0	18763	17400	141561	27282	968984	39148	106839	0	0	8259	659748	0	0
2024-05-11 22:44:32			0	35992	0	0	0	18755	17390	141509	27298	968896	39136	106836	0	0	8260	659427	0	0
2024-05-11 22:45:32			0	36001	0	0	0	18745	17390	141349	27623	968941	39125	106832	0	0	8260	659025	0	0
2024-05-11 22:46:32			0	36007	0	0	0	18722	17390	141393	27313	968888	39125	106823	0	0	8261	658758	0	0
2024-05-11 22:47:32			0	36013	0	0	0	18706	17380	141401	27362	968871	39146	106817	0	0	8261	658526	0	0
2024-05-11 22:48:32			0	36032	0	0	0	18675	17380	141393	27471	968766	39135	106805	0	0	8263	657680	0	0
2024-05-11 22:49:32			0	36029	0	0	0	18659	17370	141281	27644	968749	39134	106799	0	0	8263	657849	0	0
2024-05-11 22:50:32			0	36034	0	0	0	18631	17360	141317	27388	968680	39123	106788	0	0	8264	657662	0	0
2024-05-11 22:51:32			0	36043	0	0	0	18607	17360	141289	27390	968627	39123	106779	0	0	8265	657262	0	0
2024-05-11 22:52:32			0	36055	0	0	0	18584	17330	141265	27651	968568	39110	106770	0	0	8266	656835	0	0
2024-05-11 22:53:32			0	36062	0	0	0	18566	17330	141185	27521	968506	39110	106763	0	0	8266	656523	0	0
2024-05-11 22:54:32			0	36082	0	0	0	18553	17300	141101	27450	968439	39107	106758	0	0	8267	655741	0	0
2024-05-11 22:55:32			0	36091	0	0	0	18535	17290	141073	27454	968475	39106	106751	0	0	8268	655377	0	0
2024-05-11 22:56:32			0	36106	0	0	0	18519	17280	141109	27499	968319	39105	106745	0	0	8269	654747	0	0
2024-05-11 22:57:32			0	36105	0	0	0	18503	17270	141017	27802	968276	39092	106739	0	0	8269	654826	0	0
2024-05-11 22:58:32			0	36131	0	0	0	18503	17260	141113	27445	968259	39103	106739	0	0	8271	653708	0	0
2024-05-11 22:59:32			0	36126	0	0	0	18493	17250	140973	27298	968243	39113	106735	0	0	8271	653966	0	0
2024-05-11 23:00:32			0	36128	0	0	0	18498	17240	141049	27568	968226	39112	106737	0	0	8271	653912	0	0
2024-05-11 23:01:32			0	36140	0	0	0	18503	17230	141009	27341	968157	39100	106739	0	0	8271	653416	0	0
2024-05-11 23:02:32			0	36148	0	0	0	18509	17220	141013	27682	968193	39088	106741	0	0	8271	653097	0	0
2024-05-11 23:03:32			0	36138	0	0	0	18490	17210	140913	27478	968185	39087	106734	0	0	8271	653575	0	0
2024-05-11 23:04:32			0	36140	0	0	0	18490	17190	141021	27478	968046	39075	106734	0	0	8271	653558	0	0
2024-05-11 23:05:32			0	36161	0	0	0	18477	17190	140925	27416	968012	39086	106729	0	0	8273	652627	0	0
2024-05-11 23:06:32			0	36167	0	0	0	18467	17180	140969	27562	968003	39107	106725	0	0	8273	652397	0	0
2024-05-11 23:07:32			0	36163	0	0	0	18454	17180	140909	27816	967942	39096	106720	0	0	8273	652574	0	0
2024-05-11 23:08:32			0	36186	0	0	0	18446	17170	140877	27736	967960	39084	106717	0	0	8274	651591	0	0
2024-05-11 23:09:32			0	36181	0	0	0	18431	17160	140865	27864	967865	39073	106711	0	0	8274	651848	0	0
2024-05-11 23:10:32			0	36177	0	0	0	18423	17150	140921	27412	967840	39093	106708	0	0	8274	652060	0	0
2024-05-11 23:11:32			0	36201	0	0	0	18399	17140	140865	27547	967850	39081	106699	0	0	8276	651033	0	0
2024-05-11 23:12:32			0	36181	0	0	0	18392	17130	140857	27280	967754	39091	106696	0	0	8275	651954	0	0
2024-05-11 23:13:32			0	36194	0	0	0	18384	17110	140921	27757	967729	39090	106693	0	0	8276	651449	0	0
2024-05-11 23:14:32			0	36201	0	0	0	18366	17110	140981	27199	967642	39079	106686	0	0	8276	651139	0	0
2024-05-11 23:15:32			0	36213	0	0	0	18355	17100	140781	27625	967607	39079	106682	0	0	8277	650644	0	0
2024-05-11 23:16:32			0	36230	0	0	0	18335	17090	140709	27490	967530	39077	106674	0	0	8278	649928	0	0
2024-05-11 23:17:32			0	36241	0	0	0	18342	17090	140709	27232	967556	39077	106677	0	0	8279	649442	0	0
2024-05-11 23:18:32			0	36257	0	0	0	18332	17060	140649	27400	967480	39085	106673	0	0	8280	648842	0	0
2024-05-11 23:19:32			0	36266	0	0	0	18314	17060	140577	27488	967489	39064	106666	0	0	8280	648445	0	0
2024-05-11 23:20:32			0	36275	0	0	0	18327	17060	140641	27531	967454	39063	106671	0	0	8281	648048	0	0
2024-05-11 23:21:32			0	36285	0	0	0	18332	17030	140585	27175	967421	39062	106673	0	0	8281	647713	0	0
2024-05-11 23:22:32			0	36292	0	0	0	18327	17030	140605	27621	967368	39062	106671	0	0	8281	647404	0	0
2024-05-11 23:23:32			0	36294	0	0	0	18319	17020	140549	27284	967396	39071	106668	0	0	8282	647351	0	0
2024-05-11 23:24:32			0	36308	0	0	0	18314	17010	140585	27187	967335	39071	106666	0	0	8282	646770	0	0
2024-05-11 23:25:32			0	36300	0	0	0	18303	17010	140541	27263	967309	39060	106662	0	0	8282	647122	0	0
2024-05-11 23:26:32			0	36314	0	0	0	18306	17000	140577	27374	967293	39069	106663	0	0	8283	646540	0	0
2024-05-11 23:27:32			0	36327	0	0	0	18309	16990	140453	27234	967241	39068	106664	0	0	8283	646003	0	0
2024-05-11 23:28:32			0	36318	0	0	0	18303	17000	140465	27720	967258	39081	106662	0	0	8283	646364	0	0
2024-05-11 23:29:32			0	36347	0	0	0	18301	16990	140461	27298	967250	39058	106661	0	0	8285	645124	0	0
2024-05-11 23:30:32			0	36371	0	0	0	18303	16980	140461	27358	967251	39057	106662	0	0	8286	644105	0	0
2024-05-11 23:31:32			0	36362	0	0	0	18306	16990	140385	27435	967320	39068	106663	0	0	8285	644465	0	0
2024-05-11 23:32:32			0	36374	0	0	0	18319	16990	140393	27376	967400	39080	106668	0	0	8286	643938	0	0
2024-05-11 23:33:32			0	36366	0	0	0	18329	16990	140429	27476	967461	39091	106672	0	0	8285	644289	0	0
2024-05-11 23:34:32			0	36407	0	0	0	18342	17020	140265	27421	967528	39082	106677	0	0	8287	642386	0	0
2024-05-11 23:35:32			0	36389	0	0	0	18374	17020	140293	27828	967616	39082	106689	0	0	8286	643175	0	0
2024-05-11 23:36:32			0	36403	0	0	0	18394	17030	140281	27488	967677	39083	106697	0	0	8286	642526	0	0
2024-05-11 23:37:32			0	36396	0	0	0	18410	17050	140225	27734	967675	39095	106703	0	0	8286	642763	0	0
2024-05-11 23:38:32			0	36418	0	0	0	18423	17050	140133	27665	967604	39084	106708	0	0	8287	641799	0	0
2024-05-11 23:39:32			0	36402	0	0	0	18428	17070	140141	27703	967708	39086	106710	0	0	8286	642431	0	0
2024-05-11 23:40:32			0	36428	0	0	0	18425	17070	140093	27287	967682	39097	106709	0	0	8287	641292	0	0
2024-05-11 23:41:32			0	36438	0	0	0	18420	17060	140089	27410	967700	39097	106707	0	0	8288	640889	0	0
2024-05-11 23:42:32			0	36436	0	0	0	18420	17080	140057	27355	967698	39098	106707	0	0	8288	640907	0	0
2024-05-11 23:43:32			0	36428	0	0	0	18425	17090	140081	27402	967741	39077	106709	0	0	8287	641222	0	0
2024-05-11 23:44:32			0	36435	0	0	0	18433	17080	139949	27286	967812	39087	106712	0	0	8288	640951	0	0
2024-05-11 23:45:32			0	36448	0	0	0	18446	17090	139981	27521	967847	39087	106717	0	0	8288	640348	0	0
2024-05-11 23:46:32			0	36462	0	0	0	18475	17100	139913	27346	967969	39088	106728	0	0	8288	639701	0	0
2024-05-11 23:47:32			0	36476	0	0	0	18519	17110	139893	27225	967993	39101	106745	0	0	8288	639055	0	0
2024-05-11 23:48:32			0	36483	0	0	0	18553	17120	139849	27376	968037	39091	106758	0	0	8288	638715	0	0
2024-05-11 23:49:32			0	36478	0	0	0	18553	17130	139937	27486	968098	39113	106758	0	0	8288	638898	0	0
2024-05-11 23:50:32			0	36504	0	0	0	18561	17130	139849	27244	968132	39103	106761	0	0	8289	637764	0	0
2024-05-11 23:51:32			0	36506	0	0	0	18566	17150	139849	27488	968157	39083	106763	0	0	8289	637607	0	0
2024-05-11 23:52:32			0	36505	0	0	0	18545	17160	139809	27684	968173	39104	106755	0	0	8290	637616	0	0
2024-05-11 23:53:32			0	36499	0	0	0	18550	17160	139829	27265	968173	39104	106757	0	0	8289	637878	0	0
2024-05-11 23:54:32			0	36517	0	0	0	18532	17160	139737	27414	968147	39093	106750	0	0	8291	637094	0	0
2024-05-11 23:55:32			0	36533	0	0	0	18527	17160	139689	27502	968102	39083	106748	0	0	8292	636397	0	0
2024-05-11 23:56:32			0	36511	0	0	0	18527	17160	139713	27433	968094	39083	106748	0	0	8290	637355	0	0
2024-05-11 23:57:32			0	36529	0	0	0	18519	17160	139677	27727	968102	39105	106745	0	0	8291	636571	0	0
2024-05-11 23:58:32			0	36545	0	0	0	18524	17160	139657	27343	968129	39094	106747	0	0	8292	635875	0	0
2024-05-11 23:59:32			0	36540	0	0	0	18519	17160	139653	27170	968129	39105	106745	0	0	8292	636092	0	0
2024-05-12 00:00:32			0	36547	0	0	0	18516	17170	139661	27220	968084	39095	106744	0	0	8293	635753	0	0
2024-05-12 00:01:32			0	36561	0	0	0	18522	17160	139557	27183	967989	39093	106746	0	0	8293	635179	0	0
2024-05-12 00:02:32			0	36573	0	0	0	18503	17150	139493	27452	968033	39093	106739	0	0	8294	634692	0	0
2024-05-12 00:03:32			0	36582	0	0	0	18493	17160	139613	27422	968015	39104	106735	0	0	8295	634266	0	0
2024-05-12 00:04:32			0	36588	0	0	0	18501	17150	139433	27559	968025	39093	106738	0	0	8295	634040	0	0
2024-05-12 00:05:32			0	36604	0	0	0	18488	17140	139422	27453	967990	39082	106733	0	0	8296	633380	0	0
2024-05-12 00:06:32			0	36609	0	0	0	18483	17150	139418	27405	967866	39093	106731	0	0	8296	633129	0	0
2024-05-12 00:07:32			0	36623	0	0	0	18470	17130	139410	27230	967895	39092	106726	0	0	8297	632590	0	0
2024-05-12 00:08:32			0	36613	0	0	0	18464	17130	139350	27391	967842	39092	106724	0	0	8297	633024	0	0
2024-05-12 00:09:32			0	36625	0	0	0	18449	17120	139270	27500	967825	39091	106718	0	0	8298	632538	0	0
2024-05-12 00:10:32			0	36639	0	0	0	18449	17120	139278	27443	967817	39090	106718	0	0	8298	631931	0	0
2024-05-12 00:11:32			0	36643	0	0	0	18433	17120	139214	27260	967791	39090	106712	0	0	8299	631758	0	0
2024-05-12 00:12:32			0	36668	0	0	0	18418	17110	139282	27471	967703	39090	106706	0	0	8300	630710	0	0
2024-05-12 00:13:32			0	36667	0	0	0	18399	17090	139246	27524	967670	39077	106699	0	0	8301	630822	0	0
2024-05-12 00:14:32			0	36662	0	0	0	18386	17100	139158	27440	967678	39078	106694	0	0	8301	631004	0	0
2024-05-12 00:15:32			0	36687	0	0	0	18381	17090	139162	27505	967635	39066	106692	0	0	8302	629957	0	0
2024-05-12 00:16:32			0	36697	0	0	0	18366	17080	139122	27208	967627	39077	106686	0	0	8303	629559	0	0
2024-05-12 00:17:32			0	36715	0	0	0	18355	17060	139110	27350	967480	39075	106682	0	0	8304	628849	0	0
2024-05-12 00:18:32			0	36714	0	0	0	18348	17050	139074	27883	967419	39074	106679	0	0	8304	628927	0	0
2024-05-12 00:19:32			0	36741	0	0	0	18329	17050	138978	27530	967472	39063	106672	0	0	8306	627761	0	0
2024-05-12 00:20:32			0	36736	0	0	0	18324	17030	138994	27613	967342	39062	106670	0	0	8305	628045	0	0
2024-05-12 00:21:32			0	36746	0	0	0	18309	17020	138974	27291	967378	39082	106664	0	0	8306	627648	0	0
2024-05-12 00:22:32			0	36739	0	0	0	18314	17010	138954	27209	967362	39060	106666	0	0	8306	627984	0	0
2024-05-12 00:23:32			0	36765	0	0	0	18301	17000	138946	27679	967345	39058	106661	0	0	8307	626897	0	0
2024-05-12 00:24:32			0	36766	0	0	0	18296	17010	138994	27476	967301	39059	106659	0	0	8307	626820	0	0
2024-05-12 00:25:32			0	36784	0	0	0	18285	17000	138946	27476	967258	39069	106655	0	0	8308	626078	0	0
2024-05-12 00:26:32			0	36771	0	0	0	18277	16990	138982	27524	967268	39068	106652	0	0	8308	626672	0	0
2024-05-12 00:27:32			0	36780	0	0	0	18293	16970	139030	27203	967217	39068	106658	0	0	8308	626353	0	0
2024-05-12 00:28:32			0	36795	0	0	0	18283	16980	138878	27777	967225	39068	106654	0	0	8309	625673	0	0
2024-05-12 00:29:32			0	36777	0	0	0	18288	16960	138894	27319	967218	39076	106656	0	0	8308	626516	0	0
2024-05-12 00:30:32			0	36792	0	0	0	18288	16960	138914	27260	967139	39054	106656	0	0	8309	625870	0	0
2024-05-12 00:31:32			0	36789	0	0	0	18275	16960	138818	27319	967113	39065	106651	0	0	8309	625999	0	0
2024-05-12 00:32:32			0	36797	0	0	0	18267	16960	138814	27452	967086	39054	106648	0	0	8309	625655	0	0
2024-05-12 00:33:32			0	36812	0	0	0	18264	16940	138846	27628	967062	39075	106647	0	0	8310	625077	0	0
2024-05-12 00:34:32			0	36793	0	0	0	18264	16930	138866	27466	967045	39052	106647	0	0	8309	625928	0	0
2024-05-12 00:35:32			0	36793	0	0	0	18246	16930	138838	27481	966931	39075	106640	0	0	8309	625928	0	0
2024-05-12 00:36:32			0	36801	0	0	0	18244	16910	138730	27646	966933	39051	106639	0	0	8310	625652	0	0
2024-05-12 00:37:32			0	36817	0	0	0	18236	16920	138838	27594	966923	39074	106636	0	0	8311	624930	0	0
2024-05-12 00:38:32			0	36826	0	0	0	18233	16910	138838	27665	966933	39051	106635	0	0	8311	624577	0	0
2024-05-12 00:39:32			0	36824	0	0	0	18223	16900	138766	27410	966917	39061	106631	0	0	8311	624696	0	0
2024-05-12 00:40:32			0	36840	0	0	0	18215	16890	138706	27727	966892	39048	106628	0	0	8312	624042	0	0
2024-05-12 00:41:32			0	36837	0	0	0	18202	16890	138762	27391	966760	39070	106623	0	0	8312	624171	0	0
2024-05-12 00:42:32			0	36836	0	0	0	18192	16890	138766	27486	966760	39048	106619	0	0	8312	624214	0	0
2024-05-12 00:43:32			0	36841	0	0	0	18186	16850	138682	27561	966676	39044	106617	0	0	8313	624135	0	0
2024-05-12 00:44:32			0	36851	0	0	0	18179	16850	138614	27454	966694	39056	106614	0	0	8313	623705	0	0
2024-05-12 00:45:32			0	36856	0	0	0	18163	16860	138726	27434	966631	39045	106608	0	0	8314	623457	0	0
2024-05-12 00:46:32			0	36849	0	0	0	18161	16830	138750	27490	966590	39043	106607	0	0	8313	623859	0	0
2024-05-12 00:47:32			0	36859	0	0	0	18153	16840	138682	27588	966572	39044	106604	0	0	8314	623395	0	0
2024-05-12 00:48:32			0	36861	0	0	0	18145	16820	138682	27369	966521	39042	106601	0	0	8314	623377	0	0
2024-05-12 00:49:32			0	36851	0	0	0	18137	16810	138706	27267	966531	39041	106598	0	0	8314	623840	0	0
2024-05-12 00:50:32			0	36883	0	0	0	18135	16800	138682	27409	966514	39041	106597	0	0	8315	622500	0	0
2024-05-12 00:51:32			0	36869	0	0	0	18116	16800	138654	27500	966480	39051	106590	0	0	8315	623101	0	0
2024-05-12 00:52:32			0	36871	0	0	0	18116	16780	138578	27575	966402	39028	106590	0	0	8315	623083	0	0
2024-05-12 00:53:32			0	36886	0	0	0	18122	16780	138670	27478	966429	39039	106592	0	0	8316	622439	0	0
2024-05-12 00:54:32			0	36888	0	0	0	18109	16780	138638	27336	966402	39050	106587	0	0	8316	622353	0	0
2024-05-12 00:55:32			0	36895	0	0	0	18101	16770	138590	27102	966386	39027	106584	0	0	8316	622086	0	0
2024-05-12 00:56:32			0	36882	0	0	0	18101	16770	138586	27312	966359	39060	106584	0	0	8316	622644	0	0
2024-05-12 00:57:32			0	36878	0	0	0	18096	16770	138582	27234	966359	39039	106582	0	0	8316	622816	0	0
2024-05-12 00:58:32			0	36873	0	0	0	18085	16750	138562	27258	966327	39026	106578	0	0	8315	623098	0	0
2024-05-12 00:59:32			0	36908	0	0	0	18085	16750	138562	27251	966327	39037	106578	0	0	8317	621596	0	0
2024-05-12 01:00:32			0	36910	0	0	0	18090	16750	138658	27377	966327	39037	106580	0	0	8317	621511	0	0
2024-05-12 01:01:32			0	36901	0	0	0	18090	16750	138614	27074	966353	39037	106580	0	0	8317	621896	0	0
2024-05-12 01:02:32			0	36904	0	0	0	18096	16750	138630	27225	966406	39047	106582	0	0	8317	621768	0	0
2024-05-12 01:03:32			0	36893	0	0	0	18124	16750	138626	27154	966458	39047	106593	0	0	8316	622240	0	0
2024-05-12 01:04:32			0	36900	0	0	0	18163	16770	138622	27393	966641	39081	106608	0	0	8316	621872	0	0
2024-05-12 01:05:32			0	36894	0	0	0	18215	16790	138710	27230	966709	39083	106628	0	0	8315	622062	0	0
2024-05-12 01:06:32			0	36908	0	0	0	18244	16810	138626	27412	966760	39074	106639	0	0	8315	621394	0	0
2024-05-12 01:07:32			0	36903	0	0	0	18267	16820	138586	27305	966856	39075	106648	0	0	8314	621575	0	0
2024-05-12 01:08:32			0	36893	0	0	0	18264	16830	138618	27090	966925	39075	106647	0	0	8314	621970	0	0
2024-05-12 01:09:32			0	36888	0	0	0	18277	16830	138622	27152	966880	39076	106652	0	0	8313	622184	0	0
2024-05-12 01:10:32			0	36879	0	0	0	18272	16840	138598	27157	966862	39066	106650	0	0	8313	622537	0	0
2024-05-12 01:11:32			0	36893	0	0	0	18264	16860	138654	27138	966948	39068	106647	0	0	8314	621869	0	0
2024-05-12 01:12:32			0	36880	0	0	0	18277	16850	138718	27364	966931	39056	106652	0	0	8313	622460	0	0
2024-05-12 01:13:32			0	36865	0	0	0	18288	16860	138446	27393	966948	39056	106656	0	0	8312	623070	0	0
2024-05-12 01:14:32			0	36892	0	0	0	18306	16860	138598	27632	967009	39080	106663	0	0	8313	621912	0	0
2024-05-12 01:15:32			0	36901	0	0	0	18309	16870	138722	27504	966999	39057	106664	0	0	8314	621492	0	0
2024-05-12 01:16:32			0	36894	0	0	0	18311	16880	138678	27319	967007	39080	106665	0	0	8313	621759	0	0
2024-05-12 01:17:32			0	36902	0	0	0	18319	16890	138674	27260	967050	39081	106668	0	0	8314	621382	0	0
2024-05-12 01:18:32			0	36899	0	0	0	18329	16900	138534	27623	967128	39072	106672	0	0	8313	621477	0	0
2024-05-12 01:19:32			0	36894	0	0	0	18327	16900	138582	27255	967093	39071	106671	0	0	8313	621691	0	0
2024-05-12 01:20:32			0	36903	0	0	0	18329	16910	138642	27524	967110	39083	106672	0	0	8314	621272	0	0
2024-05-12 01:21:32			0	36907	0	0	0	18329	16910	138454	27440	967091	39073	106672	0	0	8314	621100	0	0
2024-05-12 01:22:32			0	36897	0	0	0	18324	16910	138470	27026	967091	39073	106670	0	0	8313	621529	0	0
2024-05-12 01:23:32			0	36884	0	0	0	18324	16920	138486	27341	967126	39073	106670	0	0	8313	622053	0	0
2024-05-12 01:24:32			0	36910	0	0	0	18324	16910	138622	27383	967136	39073	106670	0	0	8314	620972	0	0
2024-05-12 01:25:32			0	36895	0	0	0	18316	16910	138550	27062	967171	39083	106667	0	0	8313	621615	0	0
2024-05-12 01:26:32			0	36899	0	0	0	18322	16910	138518	27618	967091	39062	106669	0	0	8314	621443	0	0
2024-05-12 01:27:32			0	36889	0	0	0	18314	16920	138526	27258	967073	39083	106666	0	0	8313	621838	0	0
2024-05-12 01:28:32			0	36918	0	0	0	18314	16920	138490	27303	967134	39062	106666	0	0	8315	620596	0	0
2024-05-12 01:29:32			0	36893	0	0	0	18316	16920	138422	27843	967108	39074	106667	0	0	8313	621667	0	0
2024-05-12 01:30:32			0	36890	0	0	0	18314	16930	138418	27578	967142	39063	106666	0	0	8313	621762	0	0
2024-05-12 01:31:32			0	36914	0	0	0	18322	16930	138322	27357	967142	39085	106669	0	0	8314	620733	0	0
2024-05-12 01:32:32			0	36913	0	0	0	18322	16920	138410	27199	967161	39062	106669	0	0	8314	620810	0	0
2024-05-12 01:33:32			0	36898	0	0	0	18314	16920	138470	27483	967108	39084	106666	0	0	8314	621452	0	0
2024-05-12 01:34:32			0	36913	0	0	0	18322	16920	138354	27324	967161	39084	106669	0	0	8314	620810	0	0
2024-05-12 01:35:32			0	36904	0	0	0	18316	16930	138354	27402	967124	39075	106667	0	0	8314	621162	0	0
2024-05-12 01:36:32			0	36922	0	0	0	18314	16930	138330	26930	967169	39063	106666	0	0	8315	620391	0	0
2024-05-12 01:37:32			0	36944	0	0	0	18319	16930	138418	27012	967151	39075	106668	0	0	8316	619450	0	0
2024-05-12 01:38:32			0	36917	0	0	0	18322	16930	138402	27145	967151	39052	106669	0	0	8315	620605	0	0
2024-05-12 01:39:32			0	36909	0	0	0	18319	16920	138374	27137	967161	39084	106668	0	0	8314	620981	0	0
2024-05-12 01:40:32			0	36934	0	0	0	18314	16930	138378	26982	967203	39063	106666	0	0	8316	619878	0	0
2024-05-12 01:41:32			0	36935	0	0	0	18311	16920	138334	27138	967108	39084	106665	0	0	8316	619868	0	0
2024-05-12 01:42:32			0	36934	0	0	0	18303	16920	138382	27227	967108	39074	106662	0	0	8316	619911	0	0
2024-05-12 01:43:32			0	36926	0	0	0	18303	16930	138418	27526	967116	39075	106662	0	0	8315	620220	0	0
2024-05-12 01:44:32			0	36926	0	0	0	18301	16930	138382	27415	967195	39075	106661	0	0	8315	620220	0	0
2024-05-12 01:45:32			0	36929	0	0	0	18303	16920	138326	27248	967152	39073	106662	0	0	8316	620125	0	0
2024-05-12 01:46:32			0	36917	0	0	0	18306	16920	138430	27417	967047	39073	106663	0	0	8315	620639	0	0
2024-05-12 01:47:32			0	36923	0	0	0	18309	16930	138366	27242	967090	39075	106664	0	0	8315	620348	0	0
2024-05-12 01:48:32			0	36914	0	0	0	18311	16920	138238	27339	967187	39062	106665	0	0	8315	620767	0	0
2024-05-12 01:49:32			0	36928	0	0	0	18309	16930	138334	27303	967151	39075	106664	0	0	8315	620134	0	0
2024-05-12 01:50:32			0	36916	0	0	0	18316	16930	138350	27284	967203	39075	106667	0	0	8315	620648	0	0
2024-05-12 01:51:32			0	36917	0	0	0	18306	16930	138422	27192	967151	39075	106663	0	0	8315	620605	0	0
2024-05-12 01:52:32			0	36921	0	0	0	18309	16930	138390	27383	967169	39075	106664	0	0	8315	620434	0	0
2024-05-12 01:53:32			0	36916	0	0	0	18293	16930	138338	27268	967063	39063	106658	0	0	8315	620648	0	0
2024-05-12 01:54:32			0	36917	0	0	0	18285	16920	138354	27407	967073	39073	106655	0	0	8315	620639	0	0
2024-05-12 01:55:32			0	36927	0	0	0	18280	16910	138362	27419	967039	39073	106653	0	0	8316	620244	0	0
2024-05-12 01:56:32			0	36934	0	0	0	18270	16920	138362	27516	967081	39074	106649	0	0	8316	619911	0	0
2024-05-12 01:57:32			0	36932	0	0	0	18259	16920	138414	27305	967002	39062	106645	0	0	8316	619997	0	0
2024-05-12 01:58:32			0	36924	0	0	0	18251	16920	138470	27137	967002	39074	106642	0	0	8316	620339	0	0
2024-05-12 01:59:32			0	36909	0	0	0	18238	16920	138358	27398	966941	39073	106637	0	0	8316	620981	0	0
2024-05-12 02:00:32			0	36905	0	0	0	18236	16910	138406	27710	967030	39073	106636	0	0	8315	621186	0	0
2024-05-12 02:01:32			0	36936	0	0	0	18241	16900	138410	27142	966996	39072	106638	0	0	8317	619893	0	0
2024-05-12 02:02:32			0	36928	0	0	0	18254	16900	138402	27242	966988	39071	106643	0	0	8316	620235	0	0
2024-05-12 02:03:32			0	36927	0	0	0	18270	16900	138446	27583	966996	39083	106649	0	0	8316	620278	0	0
2024-05-12 02:04:32			0	36919	0	0	0	18283	16910	138426	27379	967030	39083	106654	0	0	8315	620587	0	0
2024-05-12 02:05:32			0	36910	0	0	0	18293	16900	138438	27178	967075	39093	106658	0	0	8315	621006	0	0
2024-05-12 02:06:32			0	36919	0	0	0	18306	16910	138402	27341	967110	39083	106663	0	0	8315	620587	0	0
2024-05-12 02:07:32			0	36916	0	0	0	18316	16920	138406	27339	967126	39073	106667	0	0	8315	620682	0	0
2024-05-12 02:08:32			0	36917	0	0	0	18316	16920	138458	27464	967152	39073	106667	0	0	8315	620639	0	0
2024-05-12 02:09:32			0	36908	0	0	0	18306	16920	138422	27724	967100	39073	106663	0	0	8314	621024	0	0
2024-05-12 02:10:32			0	36923	0	0	0	18290	16920	138466	27322	967073	39073	106657	0	0	8315	620382	0	0
2024-05-12 02:11:32			0	36897	0	0	0	18275	16910	138374	27177	967012	39073	106651	0	0	8314	621529	0	0
2024-05-12 02:12:32			0	36903	0	0	0	18251	16910	138478	27374	966951	39073	106642	0	0	8315	621272	0	0
2024-05-12 02:13:32			0	36891	0	0	0	18233	16900	138518	27267	966988	39060	106635	0	0	8315	621820	0	0
2024-05-12 02:14:32			0	36908	0	0	0	18228	16890	138494	27429	966847	39070	106633	0	0	8316	621125	0	0
2024-05-12 02:15:32			0	36904	0	0	0	18215	16890	138566	27242	966821	39038	106628	0	0	8316	621296	0	0
2024-05-12 02:16:32			0	36906	0	0	0	18197	16870	138386	27289	966788	39046	106621	0	0	8316	621278	0	0
2024-05-12 02:17:32			0	36913	0	0	0	18186	16860	138414	27417	966710	39056	106617	0	0	8316	621012	0	0
2024-05-12 02:18:32			0	36912	0	0	0	18184	16850	138482	27249	966720	39044	106616	0	0	8316	621088	0	0
2024-05-12 02:19:32			0	36916	0	0	0	18163	16850	138470	27412	966668	39056	106608	0	0	8317	620917	0	0
2024-05-12 02:20:32			0	36914	0	0	0	18166	16840	138526	27185	966633	39044	106609	0	0	8317	621036	0	0
2024-05-12 02:21:32			0	36906	0	0	0	18155	16830	138602	27428	966529	39064	106605	0	0	8316	621413	0	0
2024-05-12 02:22:32			0	36901	0	0	0	18150	16820	138514	27464	966600	39053	106603	0	0	8316	621661	0	0
2024-05-12 02:23:32			0	36908	0	0	0	18137	16810	138594	27343	966584	39041	106598	0	0	8317	621394	0	0
2024-05-12 02:24:32			0	36914	0	0	0	18142	16810	138590	27435	966557	39041	106600	0	0	8317	621137	0	0
2024-05-12 02:25:32			0	36901	0	0	0	18132	16800	138570	27386	966480	39051	106596	0	0	8316	621728	0	0
2024-05-12 02:26:32			0	36919	0	0	0	18135	16800	138534	27142	966480	39041	106597	0	0	8317	620957	0	0
2024-05-12 02:27:32			0	36897	0	0	0	18132	16790	138574	27523	966542	39050	106596	0	0	8316	621933	0	0
2024-05-12 02:28:32			0	36914	0	0	0	18127	16780	138542	27287	966455	39050	106594	0	0	8317	621238	0	0
2024-05-12 02:29:32			0	36920	0	0	0	18137	16800	138510	27244	966612	39062	106598	0	0	8317	620914	0	0
2024-05-12 02:30:32			0	36908	0	0	0	18148	16790	138554	27789	966656	39073	106602	0	0	8316	621462	0	0
2024-05-12 02:31:32			0	36889	0	0	0	18166	16810	138610	27474	966628	39062	106609	0	0	8315	622209	0	0
2024-05-12 02:32:32			0	36892	0	0	0	18166	16790	138586	27396	966630	39050	106609	0	0	8315	622148	0	0
2024-05-12 02:33:32			0	36903	0	0	0	18168	16810	138542	27256	966549	39051	106610	0	0	8316	621609	0	0
2024-05-12 02:34:32			0	36912	0	0	0	18163	16800	138606	27194	966506	39062	106608	0	0	8316	621257	0	0
2024-05-12 02:35:32			0	36907	0	0	0	18155	16800	138498	27512	966532	39041	106605	0	0	8316	621471	0	0
2024-05-12 02:36:32			0	36912	0	0	0	18148	16800	138506	27564	966532	39051	106602	0	0	8317	621257	0	0
2024-05-12 02:37:32			0	36894	0	0	0	18158	16800	138590	27317	966638	39062	106606	0	0	8316	622028	0	0
2024-05-12 02:38:32			0	36895	0	0	0	18184	16800	138702	27431	966638	39074	106616	0	0	8315	621985	0	0
2024-05-12 02:39:32			0	36895	0	0	0	18199	16810	138590	27346	966734	39074	106622	0	0	8315	621952	0	0
2024-05-12 02:40:32			0	36889	0	0	0	18223	16820	138654	27005	966750	39064	106631	0	0	8314	622175	0	0
2024-05-12 02:41:32			0	36872	0	0	0	18228	16810	138598	27550	966742	39063	106633	0	0	8313	622938	0	0
2024-05-12 02:42:32			0	36875	0	0	0	18249	16820	138630	27343	966776	39064	106641	0	0	8313	622776	0	0
2024-05-12 02:43:32			0	36877	0	0	0	18249	16830	138630	27277	966828	39054	106641	0	0	8313	622656	0	0
2024-05-12 02:44:32			0	36880	0	0	0	18254	16840	138618	27502	966862	39066	106643	0	0	8313	622494	0	0
2024-05-12 02:45:32			0	36860	0	0	0	18264	16840	138718	27216	966809	39087	106647	0	0	8312	623352	0	0
2024-05-12 02:46:32			0	36871	0	0	0	18272	16840	138770	27417	966791	39078	106650	0	0	8313	622880	0	0
2024-05-12 02:47:32			0	36874	0	0	0	18267	16850	138678	27154	966879	39067	106648	0	0	8313	622718	0	0
2024-05-12 02:48:32			0	36861	0	0	0	18270	16850	138698	27473	966852	39067	106649	0	0	8312	623276	0	0
2024-05-12 02:49:32			0	36866	0	0	0	18267	16840	138682	27590	966844	39056	106648	0	0	8312	623095	0	0
2024-05-12 02:50:32			0	36862	0	0	0	18254	16850	138630	27517	966879	39078	106643	0	0	8312	623233	0	0
2024-05-12 02:51:32			0	36857	0	0	0	18254	16860	138746	27225	966895	39068	106643	0	0	8312	623414	0	0
2024-05-12 02:52:32			0	36852	0	0	0	18231	16850	138654	27296	966773	39067	106634	0	0	8312	623662	0	0
2024-05-12 02:53:32			0	36885	0	0	0	18225	16840	138718	27466	966738	39067	106632	0	0	8314	622280	0	0
2024-05-12 02:54:32			0	36853	0	0	0	18202	16840	138730	27253	966757	39055	106623	0	0	8313	623653	0	0
2024-05-12 02:55:32			0	36855	0	0	0	18192	16820	138686	27504	966653	39042	106619	0	0	8313	623635	0	0
2024-05-12 02:56:32			0	36863	0	0	0	18189	16820	138718	27419	966592	39053	106618	0	0	8314	623291	0	0
2024-05-12 02:57:32			0	36853	0	0	0	18179	16820	138634	27284	966565	39053	106614	0	0	8313	623721	0	0
2024-05-12 02:58:32			0	36847	0	0	0	18171	16810	138706	27511	966575	39051	106611	0	0	8313	624012	0	0
2024-05-12 02:59:32			0	36844	0	0	0	18155	16800	138650	27531	966532	39062	106605	0	0	8313	624175	0	0
2024-05-12 03:00:32			0	36880	0	0	0	18148	16800	138690	27535	966559	39041	106602	0	0	8315	622629	0	0
2024-05-12 03:01:32			0	36881	0	0	0	18145	16800	138734	27696	966593	39051	106601	0	0	8315	622586	0	0
2024-05-12 03:02:32			0	36869	0	0	0	18142	16800	138622	27518	966514	39051	106600	0	0	8315	623101	0	0
2024-05-12 03:03:32			0	36863	0	0	0	18142	16800	138622	27204	966532	39051	106600	0	0	8314	623359	0	0
2024-05-12 03:04:32			0	36879	0	0	0	18140	16800	138626	27679	966559	39051	106599	0	0	8315	622672	0	0
2024-05-12 03:05:32			0	36870	0	0	0	18148	16790	138678	27656	966551	39073	106602	0	0	8314	623092	0	0
2024-05-12 03:06:32			0	36867	0	0	0	18155	16790	138662	27211	966551	39062	106605	0	0	8314	623221	0	0
2024-05-12 03:07:32			0	36876	0	0	0	18181	16800	138670	27121	966612	39062	106615	0	0	8314	622801	0	0
2024-05-12 03:08:32			0	36859	0	0	0	18174	16800	138722	27255	966620	39051	106612	0	0	8313	623530	0	0
2024-05-12 03:09:32			0	36855	0	0	0	18174	16810	138666	27255	966575	39051	106612	0	0	8313	623668	0	0
2024-05-12 03:10:32			0	36857	0	0	0	18171	16800	138702	27466	966593	39051	106611	0	0	8313	623616	0	0
2024-05-12 03:11:32			0	36852	0	0	0	18163	16790	138698	27282	966551	39040	106608	0	0	8313	623865	0	0
2024-05-12 03:12:32			0	36877	0	0	0	18158	16790	138722	27267	966524	39062	106606	0	0	8315	622791	0	0
2024-05-12 03:13:32			0	36853	0	0	0	18153	16800	138646	27090	966480	39074	106604	0	0	8313	623788	0	0
2024-05-12 03:14:32			0	36861	0	0	0	18153	16790	138742	27085	966595	39050	106604	0	0	8314	623478	0	0
2024-05-12 03:15:32			0	36861	0	0	0	18161	16790	138738	27203	966577	39062	106607	0	0	8314	623478	0	0
2024-05-12 03:16:32			0	36853	0	0	0	18168	16790	138730	27604	966569	39050	106610	0	0	8313	623822	0	0
2024-05-12 03:17:32			0	36849	0	0	0	18158	16790	138718	27376	966595	39050	106606	0	0	8313	623994	0	0
2024-05-12 03:18:32			0	36857	0	0	0	18153	16780	138698	27164	966561	39061	106604	0	0	8314	623684	0	0
2024-05-12 03:19:32			0	36850	0	0	0	18150	16790	138718	27346	966463	39050	106603	0	0	8313	623951	0	0
2024-05-12 03:20:32			0	36868	0	0	0	18142	16780	138602	27192	966481	39061	106600	0	0	8314	623211	0	0
2024-05-12 03:21:32			0	36847	0	0	0	18148	16780	138718	27386	966481	39061	106602	0	0	8313	624114	0	0
2024-05-12 03:22:32			0	36860	0	0	0	18142	16770	138598	27317	966439	39060	106600	0	0	8314	623589	0	0
2024-05-12 03:23:32			0	36868	0	0	0	18132	16780	138706	27274	966473	39050	106596	0	0	8315	623211	0	0
2024-05-12 03:24:32			0	36840	0	0	0	18122	16770	138670	27836	966457	39059	106592	0	0	8313	624448	0	0
2024-05-12 03:25:32			0	36838	0	0	0	18129	16770	138590	27637	966465	39060	106595	0	0	8313	624534	0	0
2024-05-12 03:26:32			0	36849	0	0	0	18116	16780	138682	27441	966447	39050	106590	0	0	8314	624028	0	0
2024-05-12 03:27:32			0	36853	0	0	0	18124	16770	138670	27241	966404	39059	106593	0	0	8314	623889	0	0
2024-05-12 03:28:32			0	36855	0	0	0	18124	16770	138678	27351	966491	39060	106593	0	0	8314	623804	0	0
2024-05-12 03:29:32			0	36842	0	0	0	18124	16760	138738	27062	966449	39038	106593	0	0	8313	624396	0	0
2024-05-12 03:30:32			0	36848	0	0	0	18127	16760	138718	27571	966475	39059	106594	0	0	8313	624138	0	0
2024-05-12 03:31:32			0	36840	0	0	0	18137	16770	138726	27059	966510	39048	106598	0	0	8313	624448	0	0
2024-05-12 03:32:32			0	36860	0	0	0	18155	16770	138774	27362	966623	39049	106605	0	0	8314	623589	0	0
2024-05-12 03:33:32			0	36845	0	0	0	18150	16780	138658	27301	966508	39061	106603	0	0	8313	624199	0	0
2024-05-12 03:34:32			0	36828	0	0	0	18153	16770	138734	27386	966439	39071	106604	0	0	8312	624965	0	0
2024-05-12 03:35:32			0	36864	0	0	0	18153	16780	138738	27343	966508	39061	106604	0	0	8314	623383	0	0
2024-05-12 03:36:32			0	36851	0	0	0	18155	16780	138758	27289	966508	39061	106605	0	0	8313	623942	0	0
2024-05-12 03:37:32			0	36841	0	0	0	18153	16770	138710	27602	966404	39059	106604	0	0	8313	624405	0	0
2024-05-12 03:38:32			0	36833	0	0	0	18148	16760	138702	27498	966449	39048	106602	0	0	8312	624783	0	0
2024-05-12 03:39:32			0	36846	0	0	0	18145	16760	138734	27364	966396	39048	106601	0	0	8313	624224	0	0
2024-05-12 03:40:32			0	36845	0	0	0	18142	16760	138786	27507	966449	39048	106600	0	0	8313	624267	0	0
2024-05-12 03:41:32			0	36852	0	0	0	18137	16760	138766	27486	966388	39058	106598	0	0	8314	623966	0	0
2024-05-12 03:42:32			0	36834	0	0	0	18129	16750	138786	27355	966458	39047	106595	0	0	8313	624774	0	0
2024-05-12 03:43:32			0	36854	0	0	0	18122	16760	138738	27294	966440	39047	106592	0	0	8314	623880	0	0
2024-05-12 03:44:32			0	36846	0	0	0	18119	16760	138670	27512	966396	39048	106591	0	0	8314	624224	0	0
2024-05-12 03:45:32			0	36848	0	0	0	18129	16760	138758	27568	966414	39047	106595	0	0	8313	624138	0	0
2024-05-12 03:46:32			0	36853	0	0	0	18124	16750	138718	27490	966406	39058	106593	0	0	8314	623957	0	0
2024-05-12 03:47:32			0	36837	0	0	0	18124	16730	138658	27654	966302	39067	106593	0	0	8313	624713	0	0
2024-05-12 03:48:32			0	36844	0	0	0	18119	16730	138762	27703	966328	39056	106591	0	0	8313	624412	0	0
2024-05-12 03:49:32			0	36855	0	0	0	18119	16750	138778	27715	966327	39047	106591	0	0	8314	623871	0	0
2024-05-12 03:50:32			0	36840	0	0	0	18111	16750	138726	27592	966318	39057	106588	0	0	8313	624516	0	0
2024-05-12 03:51:32			0	36853	0	0	0	18116	16740	138710	27067	966363	39045	106590	0	0	8314	623991	0	0
2024-05-12 03:52:32			0	36836	0	0	0	18122	16730	138778	27119	966354	39056	106592	0	0	8313	624756	0	0
2024-05-12 03:53:32			0	36846	0	0	0	18124	16740	138806	27083	966363	39045	106593	0	0	8313	624292	0	0
2024-05-12 03:54:32			0	36839	0	0	0	18124	16730	138754	27261	966381	39056	106593	0	0	8313	624627	0	0
2024-05-12 03:55:32			0	36845	0	0	0	18122	16730	138774	27474	966275	39067	106592	0	0	8313	624369	0	0
2024-05-12 03:56:32			0	36851	0	0	0	18119	16740	138798	27490	966336	39035	106591	0	0	8314	624077	0	0
2024-05-12 03:57:32			0	36863	0	0	0	18122	16730	138766	27647	966434	39056	106592	0	0	8314	623595	0	0
2024-05-12 03:58:32			0	36852	0	0	0	18116	16740	138674	27225	966389	39056	106590	0	0	8314	624034	0	0
2024-05-12 03:59:32			0	36872	0	0	0	18114	16730	138726	27364	966346	39045	106589	0	0	8315	623208	0	0
2024-05-12 04:00:32			0	36841	0	0	0	18116	16740	138706	27277	966363	39056	106590	0	0	8313	624507	0	0
2024-05-12 04:01:32			0	36844	0	0	0	18124	16730	138674	27722	966320	39056	106593	0	0	8313	624412	0	0
2024-05-12 04:02:32			0	36836	0	0	0	18119	16730	138706	27232	966302	39056	106591	0	0	8313	624756	0	0
2024-05-12 04:03:32			0	36846	0	0	0	18116	16750	138686	27462	966371	39057	106590	0	0	8314	624258	0	0
2024-05-12 04:04:32			0	36859	0	0	0	18119	16740	138766	27536	966310	39067	106591	0	0	8314	623733	0	0
2024-05-12 04:05:32			0	36864	0	0	0	18111	16730	138706	27554	966320	39067	106588	0	0	8314	623552	0	0
2024-05-12 04:06:32			0	36840	0	0	0	18111	16730	138618	27161	966320	39045	106588	0	0	8313	624584	0	0
2024-05-12 04:07:32			0	36849	0	0	0	18116	16730	138778	27235	966373	39045	106590	0	0	8314	624197	0	0
2024-05-12 04:08:32			0	36853	0	0	0	18116	16730	138694	27244	966320	39056	106590	0	0	8314	624025	0	0
2024-05-12 04:09:32			0	36866	0	0	0	18103	16720	138726	27306	966303	39055	106585	0	0	8315	623500	0	0
2024-05-12 04:10:32			0	36850	0	0	0	18111	16720	138802	27441	966277	39066	106588	0	0	8314	624188	0	0
2024-05-12 04:11:32			0	36860	0	0	0	18109	16730	138710	27550	966293	39056	106587	0	0	8314	623724	0	0
2024-05-12 04:12:32			0	36860	0	0	0	18114	16710	138722	27410	966269	39055	106589	0	0	8314	623791	0	0
2024-05-12 04:13:32			0	36857	0	0	0	18109	16730	138694	27164	966346	39045	106587	0	0	8314	623853	0	0
2024-05-12 04:14:32			0	36872	0	0	0	18106	16730	138690	27405	966267	39045	106586	0	0	8315	623208	0	0
2024-05-12 04:15:32			0	36872	0	0	0	18109	16720	138682	27268	966277	39055	106587	0	0	8315	623242	0	0
2024-05-12 04:16:32			0	36872	0	0	0	18106	16720	138662	27367	966338	39067	106586	0	0	8315	623242	0	0
2024-05-12 04:17:32			0	36866	0	0	0	18109	16730	138726	27507	966293	39045	106587	0	0	8315	623466	0	0
2024-05-12 04:18:32			0	36865	0	0	0	18111	16730	138646	27360	966346	39056	106588	0	0	8315	623509	0	0
2024-05-12 04:19:32			0	36870	0	0	0	18109	16720	138694	27305	966251	39055	106587	0	0	8315	623328	0	0
2024-05-12 04:20:32			0	36860	0	0	0	18106	16720	138702	27244	966330	39066	106586	0	0	8314	623758	0	0
2024-05-12 04:21:32			0	36851	0	0	0	18114	16720	138762	27253	966303	39055	106589	0	0	8314	624145	0	0
2024-05-12 04:22:32			0	36881	0	0	0	18101	16720	138690	27064	966312	39056	106584	0	0	8316	622856	0	0
2024-05-12 04:23:32			0	36868	0	0	0	18109	16720	138538	27320	966330	39055	106587	0	0	8315	623414	0	0
2024-05-12 04:24:32			0	36864	0	0	0	18101	16720	138642	26956	966303	39055	106584	0	0	8315	623586	0	0
2024-05-12 04:25:32			0	36854	0	0	0	18103	16710	138626	27216	966287	39055	106585	0	0	8314	624049	0	0
2024-05-12 04:26:32			0	36866	0	0	0	18106	16720	138642	27377	966277	39033	106586	0	0	8315	623500	0	0
2024-05-12 04:27:32			0	36878	0	0	0	18101	16710	138658	27312	966269	39055	106584	0	0	8315	623018	0	0
2024-05-12 04:28:32			0	36871	0	0	0	18101	16720	138726	27329	966277	39055	106584	0	0	8315	623285	0	0
2024-05-12 04:29:32			0	36863	0	0	0	18103	16710	138746	27279	966321	39033	106585	0	0	8314	623663	0	0
2024-05-12 04:30:32			0	36872	0	0	0	18103	16710	138618	27346	966216	39044	106585	0	0	8315	623276	0	0
2024-05-12 04:31:32			0	36858	0	0	0	18103	16720	138638	27299	966224	39066	106585	0	0	8314	623844	0	0
2024-05-12 04:32:32			0	36874	0	0	0	18106	16710	138654	27381	966234	39044	106586	0	0	8315	623190	0	0
2024-05-12 04:33:32			0	36884	0	0	0	18101	16720	138658	27277	966303	39055	106584	0	0	8316	622727	0	0
2024-05-12 04:34:32			0	36883	0	0	0	18098	16700	138702	27384	966252	39054	106583	0	0	8316	622837	0	0
2024-05-12 04:35:32			0	36904	0	0	0	18098	16720	138598	27350	966259	39056	106583	0	0	8317	621869	0	0
2024-05-12 04:36:32			0	36885	0	0	0	18101	16710	138606	27066	966261	39055	106584	0	0	8316	622718	0	0
2024-05-12 04:37:32			0	36886	0	0	0	18103	16720	138622	27140	966251	39044	106585	0	0	8316	622641	0	0
2024-05-12 04:38:32			0	36870	0	0	0	18103	16710	138630	27296	966295	39055	106585	0	0	8315	623362	0	0
2024-05-12 04:39:32			0	36871	0	0	0	18098	16710	138602	27405	966295	39055	106583	0	0	8315	623319	0	0
2024-05-12 04:40:32			0	36884	0	0	0	18101	16700	138578	27345	966305	39065	106584	0	0	8316	622794	0	0
2024-05-12 04:41:32			0	36891	0	0	0	18096	16710	138598	27488	966287	39055	106582	0	0	8316	622460	0	0
2024-05-12 04:42:32			0	36897	0	0	0	18096	16710	138666	27326	966295	39044	106582	0	0	8316	622203	0	0
2024-05-12 04:43:32			0	36893	0	0	0	18093	16710	138586	27036	966295	39055	106581	0	0	8316	622374	0	0
2024-05-12 04:44:32			0	36881	0	0	0	18096	16710	138522	27736	966261	39055	106582	0	0	8316	622889	0	0
2024-05-12 04:45:32			0	36879	0	0	0	18093	16710	138646	27396	966234	39044	106581	0	0	8316	622975	0	0
2024-05-12 04:46:32			0	36879	0	0	0	18093	16710	138550	27093	966295	39044	106581	0	0	8316	622975	0	0
2024-05-12 04:47:32			0	36905	0	0	0	18085	16710	138582	27443	966242	39055	106578	0	0	8317	621860	0	0
2024-05-12 04:48:32			0	36876	0	0	0	18090	16700	138658	27300	966226	39054	106580	0	0	8315	623138	0	0
2024-05-12 04:49:32			0	36904	0	0	0	18093	16720	138618	27218	966303	39055	106581	0	0	8317	621869	0	0
2024-05-12 04:50:32			0	36908	0	0	0	18085	16700	138554	27294	966200	39054	106578	0	0	8317	621765	0	0
2024-05-12 04:51:32			0	36901	0	0	0	18085	16710	138562	27322	966261	39044	106578	0	0	8317	622031	0	0
2024-05-12 04:52:32			0	36890	0	0	0	18090	16710	138482	27348	966234	39055	106580	0	0	8316	622503	0	0
2024-05-12 04:53:32			0	36898	0	0	0	18088	16710	138622	27350	966208	39044	106579	0	0	8317	622160	0	0
2024-05-12 04:54:32			0	36907	0	0	0	18085	16700	138610	27524	966191	39032	106578	0	0	8317	621808	0	0
2024-05-12 04:55:32			0	36896	0	0	0	18083	16700	138530	27351	966191	39032	106577	0	0	8317	622279	0	0
2024-05-12 04:56:32			0	36908	0	0	0	18085	16690	138638	27365	966157	39053	106578	0	0	8317	621798	0	0
2024-05-12 04:57:32			0	36906	0	0	0	18072	16700	138630	27306	966200	39054	106573	0	0	8317	621851	0	0
2024-05-12 04:58:32			0	36901	0	0	0	18075	16680	138530	27352	966167	39052	106574	0	0	8317	622132	0	0
2024-05-12 04:59:32			0	36908	0	0	0	18075	16690	138534	27407	966228	39052	106574	0	0	8317	621798	0	0
2024-05-12 05:00:32			0	36913	0	0	0	18070	16690	138562	27355	966130	39042	106572	0	0	8318	621584	0	0
2024-05-12 05:01:32			0	36904	0	0	0	18064	16700	138502	27267	966191	39053	106570	0	0	8317	621936	0	0
2024-05-12 05:02:32			0	36895	0	0	0	18064	16680	138530	27220	966167	39063	106570	0	0	8317	622390	0	0
2024-05-12 05:03:32			0	36902	0	0	0	18062	16670	138622	27298	966150	39051	106569	0	0	8317	622123	0	0
2024-05-12 05:04:32			0	36917	0	0	0	18057	16680	138622	27383	966132	39051	106567	0	0	8318	621446	0	0
2024-05-12 05:05:32			0	36895	0	0	0	18054	16680	138542	27438	966140	39052	106566	0	0	8317	622390	0	0
2024-05-12 05:06:32			0	36927	0	0	0	18062	16680	138546	27215	966140	39052	106569	0	0	8318	621018	0	0
2024-05-12 05:07:32			0	36926	0	0	0	18059	16680	138614	27350	966132	39062	106568	0	0	8318	621061	0	0
2024-05-12 05:08:32			0	36915	0	0	0	18057	16680	138546	27341	966079	39051	106567	0	0	8318	621532	0	0
2024-05-12 05:09:32			0	36920	0	0	0	18057	16680	138566	27235	966140	39052	106567	0	0	8318	621318	0	0
2024-05-12 05:10:32			0	36925	0	0	0	18051	16670	138566	27455	966124	39041	106565	0	0	8319	621137	0	0
2024-05-12 05:11:32			0	36930	0	0	0	18049	16680	138534	27473	966079	39062	106564	0	0	8319	620889	0	0
2024-05-12 05:12:32			0	36914	0	0	0	18049	16670	138530	27253	966045	39041	106564	0	0	8318	621608	0	0
2024-05-12 05:13:32			0	36941	0	0	0	18054	16670	138614	27369	966089	39050	106566	0	0	8319	620452	0	0
2024-05-12 05:14:32			0	36936	0	0	0	18044	16670	138554	27391	966036	39050	106562	0	0	8319	620666	0	0
2024-05-12 05:15:32			0	36929	0	0	0	18044	16660	138466	27542	966054	39040	106562	0	0	8319	620999	0	0
2024-05-12 05:16:32			0	36950	0	0	0	18031	16660	138510	27663	966054	39050	106557	0	0	8320	620100	0	0
2024-05-12 05:17:32			0	36922	0	0	0	18033	16650	138578	27329	965977	39038	106558	0	0	8319	621333	0	0
2024-05-12 05:18:32			0	36916	0	0	0	18033	16650	138574	27300	966011	39038	106558	0	0	8318	621590	0	0
2024-05-12 05:19:32			0	36932	0	0	0	18038	16660	138546	27409	965993	39050	106560	0	0	8319	620871	0	0
2024-05-12 05:20:32			0	36947	0	0	0	18031	16650	138526	27248	966003	39027	106557	0	0	8320	620262	0	0
2024-05-12 05:21:32			0	36931	0	0	0	18031	16660	138550	27272	966028	39040	106557	0	0	8319	620914	0	0
2024-05-12 05:22:32			0	36935	0	0	0	18028	16650	138526	27267	966056	39049	106556	0	0	8319	620776	0	0
2024-05-12 05:23:32			0	36944	0	0	0	18031	16650	138482	27478	966056	39049	106557	0	0	8320	620390	0	0
2024-05-12 05:24:32			0	36961	0	0	0	18025	16660	138558	27398	965993	39039	106555	0	0	8321	619629	0	0
2024-05-12 05:25:32			0	36934	0	0	0	18028	16650	138546	27341	965924	39038	106556	0	0	8319	620819	0	0
2024-05-12 05:26:32			0	36943	0	0	0	18023	16650	138474	27384	965985	39038	106554	0	0	8320	620433	0	0
2024-05-12 05:27:32			0	36954	0	0	0	18031	16640	138554	27478	966021	39038	106557	0	0	8320	619996	0	0
2024-05-12 05:28:32			0	36947	0	0	0	18018	16640	138466	27301	965995	39048	106552	0	0	8320	620296	0	0
2024-05-12 05:29:32			0	36945	0	0	0	18025	16650	138382	27388	965924	39038	106555	0	0	8320	620348	0	0
2024-05-12 05:30:32			0	36938	0	0	0	18023	16650	138414	27479	965977	39038	106554	0	0	8320	620647	0	0
2024-05-12 05:31:32			0	36938	0	0	0	18020	16640	138518	27621	965987	39059	106553	0	0	8320	620681	0	0
2024-05-12 05:32:32			0	36959	0	0	0	18020	16640	138530	27540	965987	39048	106553	0	0	8321	619782	0	0
2024-05-12 05:33:32			0	36969	0	0	0	18012	16640	138538	27455	965908	39027	106550	0	0	8321	619354	0	0
2024-05-12 05:34:32			0	36959	0	0	0	18012	16640	138466	27557	965987	39048	106550	0	0	8321	619782	0	0
2024-05-12 05:35:32			0	36966	0	0	0	18010	16640	138390	27218	965960	39048	106549	0	0	8321	619482	0	0
2024-05-12 05:36:32			0	36976	0	0	0	18012	16630	138350	27549	965926	39037	106550	0	0	8322	619088	0	0
2024-05-12 05:37:32			0	36966	0	0	0	18010	16620	138386	27518	965936	39057	106549	0	0	8321	619549	0	0
2024-05-12 05:38:32			0	36973	0	0	0	18010	16630	138394	27422	965952	39047	106549	0	0	8322	619216	0	0
2024-05-12 05:39:32			0	36966	0	0	0	18015	16630	138494	27434	965918	39047	106551	0	0	8321	619516	0	0
2024-05-12 05:40:32			0	36976	0	0	0	18012	16630	138358	27296	965926	39037	106550	0	0	8322	619088	0	0
2024-05-12 05:41:32			0	36959	0	0	0	18010	16630	138366	27424	965926	39047	106549	0	0	8321	619815	0	0
2024-05-12 05:42:32			0	36960	0	0	0	18010	16630	138402	27618	965918	39037	106549	0	0	8321	619773	0	0
2024-05-12 05:43:32			0	36974	0	0	0	18005	16630	138394	27138	965918	39047	106547	0	0	8322	619174	0	0
2024-05-12 05:44:32			0	36987	0	0	0	18005	16630	138386	27248	965918	39047	106547	0	0	8322	618618	0	0
2024-05-12 05:45:32			0	36978	0	0	0	18007	16620	138370	26994	965936	39036	106548	0	0	8322	619036	0	0
2024-05-12 05:46:32			0	36992	0	0	0	17997	16630	138390	27581	965944	39037	106544	0	0	8323	618404	0	0
2024-05-12 05:47:32			0	36980	0	0	0	17999	16620	138414	27268	965954	39046	106545	0	0	8322	618951	0	0
2024-05-12 05:48:32			0	36992	0	0	0	17994	16620	138258	27414	965909	39046	106543	0	0	8323	618438	0	0
2024-05-12 05:49:32			0	36999	0	0	0	17999	16610	138298	27731	965893	39045	106545	0	0	8323	618172	0	0
2024-05-12 05:50:32			0	36976	0	0	0	18005	16620	138286	27705	965954	39025	106547	0	0	8322	619122	0	0
2024-05-12 05:51:32			0	37002	0	0	0	17997	16620	138306	27176	965901	39046	106544	0	0	8323	618011	0	0
2024-05-12 05:52:32			0	37008	0	0	0	17994	16620	138334	27471	965927	39036	106543	0	0	8324	617754	0	0
2024-05-12 05:53:32			0	37002	0	0	0	17997	16620	138306	27298	965901	39036	106544	0	0	8323	618011	0	0
2024-05-12 05:54:32			0	37013	0	0	0	17994	16620	138338	27562	965927	39036	106543	0	0	8324	617541	0	0
2024-05-12 05:55:32			0	36997	0	0	0	17989	16610	138198	27175	965858	39045	106541	0	0	8323	618257	0	0
2024-05-12 05:56:32			0	37001	0	0	0	18005	16620	138246	26883	965848	39036	106547	0	0	8323	618053	0	0
2024-05-12 05:57:32			0	37000	0	0	0	17994	16610	138330	26920	965893	39035	106543	0	0	8323	618129	0	0
2024-05-12 05:58:32			0	37005	0	0	0	17981	16610	138290	27092	965911	39035	106538	0	0	8324	617916	0	0
2024-05-12 05:59:32			0	37014	0	0	0	17994	16610	138238	27334	965919	39045	106543	0	0	8324	617532	0	0
2024-05-12 06:00:32			0	37012	0	0	0	17986	16610	138166	27334	965893	39035	106540	0	0	8324	617617	0	0
2024-05-12 06:01:32			0	37011	0	0	0	17986	16610	138234	27685	965893	39045	106540	0	0	8324	617660	0	0
2024-05-12 06:02:32			0	37001	0	0	0	17989	16610	138162	27332	965893	39035	106541	0	0	8323	618087	0	0
2024-05-12 06:03:32			0	37036	0	0	0	17981	16610	138182	27279	965884	39045	106538	0	0	8325	616593	0	0
2024-05-12 06:04:32			0	37036	0	0	0	17989	16610	138198	27156	965840	39045	106541	0	0	8325	616593	0	0
2024-05-12 06:05:32			0	37045	0	0	0	17997	16610	138210	27079	965858	39045	106544	0	0	8326	616209	0	0
2024-05-12 06:06:32			0	37030	0	0	0	17981	16610	138218	27227	965832	39056	106538	0	0	8325	616849	0	0
2024-05-12 06:07:32			0	37048	0	0	0	17986	16610	138274	27306	965858	39045	106540	0	0	8326	616081	0	0
2024-05-12 06:08:32			0	37027	0	0	0	17999	16600	138230	27287	965842	39034	106545	0	0	8325	617010	0	0
2024-05-12 06:09:32			0	37037	0	0	0	17986	16610	138210	27345	965884	39035	106540	0	0	8325	616550	0	0
2024-05-12 06:10:32			0	37052	0	0	0	17989	16610	138198	27237	965893	39045	106541	0	0	8326	615911	0	0
2024-05-12 06:11:32			0	37058	0	0	0	17992	16620	138238	27412	965848	39036	106542	0	0	8326	615622	0	0
2024-05-12 06:12:32			0	37031	0	0	0	17984	16590	138194	27514	965860	39043	106539	0	0	8325	616873	0	0
2024-05-12 06:13:32			0	37042	0	0	0	17986	16600	138150	27275	965903	39055	106540	0	0	8326	616370	0	0
2024-05-12 06:14:32			0	37047	0	0	0	17986	16600	138082	27282	965903	39055	106540	0	0	8326	616157	0	0
2024-05-12 06:15:32			0	37041	0	0	0	17984	16600	138042	27308	965842	39067	106539	0	0	8326	616413	0	0
2024-05-12 06:16:32			0	37055	0	0	0	17986	16590	138066	27351	965772	39043	106540	0	0	8326	615850	0	0
2024-05-12 06:17:32			0	37051	0	0	0	17984	16610	138090	27486	965866	39045	106539	0	0	8326	615953	0	0
2024-05-12 06:18:32			0	37069	0	0	0	17986	16600	138006	27564	965823	39055	106540	0	0	8327	615220	0	0
2024-05-12 06:19:32			0	37058	0	0	0	17981	16610	138162	27431	965858	39045	106538	0	0	8327	615655	0	0
2024-05-12 06:20:32			0	37059	0	0	0	17984	16600	138058	27511	965815	39034	106539	0	0	8326	615646	0	0
2024-05-12 06:21:32			0	37072	0	0	0	17976	16600	138014	27225	965903	39034	106536	0	0	8327	615092	0	0
2024-05-12 06:22:32			0	37050	0	0	0	17989	16600	138066	27454	965736	39023	106541	0	0	8326	616029	0	0
2024-05-12 06:23:32			0	37079	0	0	0	17984	16600	137986	27369	965850	39034	106539	0	0	8328	614794	0	0
2024-05-12 06:24:32			0	37076	0	0	0	17976	16590	138034	27253	965807	39033	106536	0	0	8327	614955	0	0
2024-05-12 06:25:32			0	37079	0	0	0	17974	16600	137986	27395	965815	39034	106535	0	0	8328	614794	0	0
2024-05-12 06:26:32			0	37082	0	0	0	17979	16590	138022	27566	965860	39055	106537	0	0	8328	614700	0	0
2024-05-12 06:27:32			0	37093	0	0	0	17979	16590	138026	27595	965860	39043	106537	0	0	8328	614232	0	0
2024-05-12 06:28:32			0	37106	0	0	0	17974	16600	137898	27459	965842	39034	106535	0	0	8329	613646	0	0
2024-05-12 06:29:32			0	37104	0	0	0	17979	16590	138006	27187	965825	39043	106537	0	0	8329	613764	0	0
2024-05-12 06:30:32			0	37083	0	0	0	17979	16600	138018	27215	965850	39034	106537	0	0	8328	614624	0	0
2024-05-12 06:31:32			0	37085	0	0	0	17986	16590	138102	27249	965833	39055	106540	0	0	8328	614572	0	0
2024-05-12 06:32:32			0	37104	0	0	0	17979	16590	137994	27424	965807	39033	106537	0	0	8329	613764	0	0
2024-05-12 06:33:32			0	37086	0	0	0	17984	16590	137990	27105	965860	39043	106539	0	0	8328	614530	0	0
2024-05-12 06:34:32			0	37105	0	0	0	17981	16600	137894	27390	965815	39055	106538	0	0	8329	613688	0	0
2024-05-12 06:35:32			0	37102	0	0	0	17979	16610	137942	27362	965805	39035	106537	0	0	8329	613782	0	0
2024-05-12 06:36:32			0	37113	0	0	0	17979	16600	138018	27504	965815	39034	106537	0	0	8329	613348	0	0
2024-05-12 06:37:32			0	37106	0	0	0	17981	16580	137922	27332	965791	39032	106538	0	0	8329	613712	0	0
2024-05-12 06:38:32			0	37114	0	0	0	17979	16590	137890	27300	965825	39043	106537	0	0	8329	613339	0	0
2024-05-12 06:39:32			0	37108	0	0	0	17968	16590	137922	27383	965772	39055	106533	0	0	8329	613594	0	0
2024-05-12 06:40:32			0	37114	0	0	0	17979	16590	137982	27209	965825	39055	106537	0	0	8329	613339	0	0
2024-05-12 06:41:32			0	37123	0	0	0	17974	16590	137882	27293	965860	39033	106535	0	0	8330	612956	0	0
2024-05-12 06:42:32			0	37140	0	0	0	17974	16600	137862	27258	965876	39055	106535	0	0	8331	612201	0	0
2024-05-12 06:43:32			0	37135	0	0	0	17981	16600	137878	27086	965868	39044	106538	0	0	8331	612414	0	0
2024-05-12 06:44:32			0	37141	0	0	0	17981	16600	137906	27144	965815	39034	106538	0	0	8331	612159	0	0
2024-05-12 06:45:32			0	37126	0	0	0	17971	16600	137838	27201	965842	39034	106534	0	0	8330	612796	0	0
2024-05-12 06:46:32			0	37140	0	0	0	17971	16590	137822	27098	965807	39043	106534	0	0	8331	612235	0	0
2024-05-12 06:47:32			0	37149	0	0	0	17968	16590	137886	27201	965860	39033	106533	0	0	8332	611853	0	0
2024-05-12 06:48:32			0	37150	0	0	0	17974	16590	137786	27177	965825	39033	106535	0	0	8331	611810	0	0
2024-05-12 06:49:32			0	37124	0	0	0	17976	16590	137774	27261	965852	39043	106536	0	0	8330	612914	0	0
2024-05-12 06:50:32			0	37134	0	0	0	17974	16600	137770	27594	965894	39044	106535	0	0	8331	612456	0	0
2024-05-12 06:51:32			0	37137	0	0	0	17974	16600	137766	27498	965842	39034	106535	0	0	8331	612329	0	0
2024-05-12 06:52:32			0	37149	0	0	0	17981	16590	137794	27422	965833	39033	106538	0	0	8331	611853	0	0
2024-05-12 06:53:32			0	37154	0	0	0	17974	16590	137718	27234	965886	39022	106535	0	0	8332	611641	0	0
2024-05-12 06:54:32			0	37140	0	0	0	17976	16600	137782	27241	965762	39044	106536	0	0	8331	612201	0	0
2024-05-12 06:55:32			0	37160	0	0	0	17974	16590	137738	27542	965860	39043	106535	0	0	8332	611386	0	0
2024-05-12 06:56:32			0	37154	0	0	0	17981	16590	137694	27189	965860	39043	106538	0	0	8332	611641	0	0
2024-05-12 06:57:32			0	37152	0	0	0	17979	16590	137718	27246	965860	39033	106537	0	0	8331	611725	0	0
2024-05-12 06:58:32			0	37175	0	0	0	17971	16600	137794	27329	965789	39044	106534	0	0	8333	610717	0	0
2024-05-12 06:59:32			0	37169	0	0	0	17976	16610	137650	27441	965893	39045	106536	0	0	8333	610938	0	0
2024-05-12 07:00:32			0	37158	0	0	0	17984	16600	137714	27248	965868	39044	106539	0	0	8332	611438	0	0
2024-05-12 07:01:32			0	37148	0	0	0	17984	16600	137650	27569	965823	39034	106539	0	0	8331	611862	0	0
2024-05-12 07:02:32			0	37188	0	0	0	17976	16590	137762	27417	965852	39033	106536	0	0	8333	610199	0	0
2024-05-12 07:03:32			0	37164	0	0	0	17981	16610	137734	27235	965858	39056	106538	0	0	8332	611150	0	0
2024-05-12 07:04:32			0	37191	0	0	0	17984	16600	137666	27312	965868	39044	106539	0	0	8334	610039	0	0
2024-05-12 07:05:32			0	37173	0	0	0	17986	16600	137682	27428	965815	39044	106540	0	0	8333	610802	0	0
2024-05-12 07:06:32			0	37173	0	0	0	17986	16600	137674	27185	965842	39034	106540	0	0	8333	610802	0	0
2024-05-12 07:07:32			0	37183	0	0	0	17979	16600	137530	27246	965903	39044	106537	0	0	8333	610378	0	0
2024-05-12 07:08:32			0	37195	0	0	0	17992	16600	137610	27504	965876	39044	106542	0	0	8334	609870	0	0
2024-05-12 07:09:32			0	37168	0	0	0	17981	16590	137662	27514	965860	39043	106538	0	0	8332	611047	0	0
2024-05-12 07:10:32			0	37186	0	0	0	17986	16600	137642	27504	965850	39044	106540	0	0	8333	610251	0	0
2024-05-12 07:11:32			0	37213	0	0	0	17992	16610	137566	27433	965893	39035	106542	0	0	8335	609075	0	0
2024-05-12 07:12:32			0	37187	0	0	0	17984	16600	137610	27445	965876	39044	106539	0	0	8333	610209	0	0
2024-05-12 07:13:32			0	37188	0	0	0	17994	16600	137510	27083	965823	39044	106543	0	0	8333	610166	0	0
2024-05-12 07:14:32			0	37203	0	0	0	17981	16610	137714	27287	965884	39035	106538	0	0	8334	609498	0	0
2024-05-12 07:15:32			0	37201	0	0	0	17994	16600	137630	27599	965903	39034	106543	0	0	8334	609616	0	0
2024-05-12 07:16:32			0	37215	0	0	0	17992	16610	137642	27398	965972	39045	106542	0	0	8335	608991	0	0
2024-05-12 07:17:32			0	37212	0	0	0	17989	16600	137666	27298	965850	39055	106541	0	0	8335	609150	0	0
2024-05-12 07:18:32			0	37215	0	0	0	17984	16600	137610	27395	965903	39034	106539	0	0	8335	609024	0	0
2024-05-12 07:19:32			0	37193	0	0	0	17986	16610	137586	27291	965964	39045	106540	0	0	8334	609922	0	0
2024-05-12 07:20:32			0	37218	0	0	0	17989	16620	137530	27639	965954	39046	106541	0	0	8335	608831	0	0
2024-05-12 07:21:32			0	37206	0	0	0	17989	16610	137550	27379	965911	39045	106541	0	0	8334	609371	0	0
2024-05-12 07:22:32			0	37214	0	0	0	17994	16600	137566	27281	965876	39034	106543	0	0	8335	609066	0	0
2024-05-12 07:23:32			0	37225	0	0	0	17992	16600	137614	27502	965903	39044	106542	0	0	8335	608601	0	0
2024-05-12 07:24:32			0	37213	0	0	0	17989	16600	137566	27327	965903	39044	106541	0	0	8335	609108	0	0
2024-05-12 07:25:32			0	37214	0	0	0	17989	16610	137550	27509	965911	39035	106541	0	0	8335	609033	0	0
2024-05-12 07:26:32			0	37217	0	0	0	17994	16610	137566	27447	965884	39045	106543	0	0	8335	608906	0	0
2024-05-12 07:27:32			0	37231	0	0	0	17984	16610	137530	27183	965884	39045	106539	0	0	8336	608314	0	0
2024-05-12 07:28:32			0	37238	0	0	0	17994	16610	137458	27495	965858	39045	106543	0	0	8336	608018	0	0
2024-05-12 07:29:32			0	37214	0	0	0	17986	16600	137526	27582	965850	39044	106540	0	0	8335	609066	0	0
2024-05-12 07:30:32			0	37229	0	0	0	17989	16610	137522	27374	965858	39035	106541	0	0	8335	608399	0	0
2024-05-12 07:31:32			0	37242	0	0	0	17981	16610	137506	27327	965911	39045	106538	0	0	8336	607849	0	0
2024-05-12 07:32:32			0	37225	0	0	0	17984	16610	137490	27358	965858	39056	106539	0	0	8335	608568	0	0
2024-05-12 07:33:32			0	37232	0	0	0	17992	16610	137446	27284	965937	39056	106542	0	0	8336	608272	0	0
2024-05-12 07:34:32			0	37235	0	0	0	17979	16600	137418	27379	965842	39034	106537	0	0	8336	608178	0	0
2024-05-12 07:35:32			0	37245	0	0	0	17989	16600	137394	27397	965903	39034	106541	0	0	8336	607756	0	0
2024-05-12 07:36:32			0	37232	0	0	0	17984	16610	137442	27488	965832	39045	106539	0	0	8336	608272	0	0
2024-05-12 07:37:32			0	37230	0	0	0	17976	16600	137426	27481	965850	39034	106536	0	0	8336	608389	0	0
2024-05-12 07:38:32			0	37258	0	0	0	17974	16600	137302	27161	965868	39034	106535	0	0	8337	607207	0	0
2024-05-12 07:39:32			0	37246	0	0	0	17979	16600	137422	27543	965921	39034	106537	0	0	8337	607713	0	0
2024-05-12 07:40:32			0	37244	0	0	0	17979	16600	137366	27331	965903	39044	106537	0	0	8336	607798	0	0
2024-05-12 07:41:32			0	37240	0	0	0	17981	16600	137310	27576	965903	39034	106538	0	0	8336	607967	0	0
2024-05-12 07:42:32			0	37252	0	0	0	17981	16600	137258	27474	965823	39044	106538	0	0	8337	607460	0	0
2024-05-12 07:43:32			0	37257	0	0	0	17986	16610	137370	27329	965884	39045	106540	0	0	8337	607216	0	0
2024-05-12 07:44:32			0	37239	0	0	0	17986	16590	137338	27433	965886	39043	106540	0	0	8336	608042	0	0
2024-05-12 07:45:32			0	37237	0	0	0	17989	16610	137370	27322	965964	39056	106541	0	0	8336	608061	0	0
2024-05-12 07:46:32			0	37260	0	0	0	17989	16600	137310	27580	965921	39055	106541	0	0	8337	607122	0	0
2024-05-12 07:47:32			0	37260	0	0	0	17992	16610	137326	27374	965919	39045	106542	0	0	8337	607089	0	0
2024-05-12 07:48:32			0	37266	0	0	0	17997	16610	137334	27241	965911	39045	106544	0	0	8337	606836	0	0
2024-05-12 07:49:32			0	37271	0	0	0	17992	16600	137334	27206	965955	39034	106542	0	0	8338	606658	0	0
2024-05-12 07:50:32			0	37251	0	0	0	18005	16610	137358	27350	965945	39045	106547	0	0	8336	607469	0	0
2024-05-12 07:51:32			0	37249	0	0	0	18005	16610	137262	27196	965937	39035	106547	0	0	8336	607554	0	0
2024-05-12 07:52:32			0	37260	0	0	0	18007	16610	137354	27312	966077	39045	106548	0	0	8337	607089	0	0
2024-05-12 07:53:32			0	37232	0	0	0	18015	16610	137378	27507	965972	39045	106551	0	0	8335	608272	0	0
2024-05-12 07:54:32			0	37250	0	0	0	18007	16610	137350	27473	965919	39045	106548	0	0	8336	607511	0	0
2024-05-12 07:55:32			0	37248	0	0	0	18010	16620	137366	27812	965980	39046	106549	0	0	8336	607563	0	0
2024-05-12 07:56:32			0	37249	0	0	0	18012	16620	137358	27455	965954	39046	106550	0	0	8336	607521	0	0
2024-05-12 07:57:32			0	37248	0	0	0	18020	16630	137350	27817	965997	39047	106553	0	0	8336	607530	0	0
2024-05-12 07:58:32			0	37247	0	0	0	18023	16630	137358	27277	966031	39047	106554	0	0	8336	607572	0	0
2024-05-12 07:59:32			0	37253	0	0	0	18031	16630	137346	27331	966031	39037	106557	0	0	8336	607319	0	0
2024-05-12 08:00:32			0	37248	0	0	0	18028	16630	137310	27512	966031	39058	106556	0	0	8336	607530	0	0
2024-05-12 08:01:32			0	37254	0	0	0	18033	16640	137362	27554	966092	39059	106558	0	0	8336	607244	0	0
2024-05-12 08:02:32			0	37228	0	0	0	18033	16640	137270	27336	966066	39048	106558	0	0	8335	608342	0	0
2024-05-12 08:03:32			0	37243	0	0	0	18041	16650	137378	27575	966056	39049	106561	0	0	8336	607675	0	0
2024-05-12 08:04:32			0	37244	0	0	0	18038	16640	137330	27260	966127	39048	106560	0	0	8336	607666	0	0
2024-05-12 08:05:32			0	37245	0	0	0	18041	16660	137362	27450	966160	39050	106561	0	0	8336	607558	0	0
2024-05-12 08:06:32			0	37224	0	0	0	18051	16640	137382	27390	966206	39059	106565	0	0	8334	608511	0	0
2024-05-12 08:07:32			0	37228	0	0	0	18057	16660	137382	27431	966152	39050	106567	0	0	8334	608276	0	0
2024-05-12 08:08:32			0	37225	0	0	0	18051	16660	137362	27267	966125	39039	106565	0	0	8334	608403	0	0
2024-05-12 08:09:32			0	37244	0	0	0	18049	16670	137314	27114	966194	39061	106564	0	0	8336	607568	0	0
2024-05-12 08:10:32			0	37248	0	0	0	18049	16670	137286	27367	966168	39061	106564	0	0	8336	607399	0	0
2024-05-12 08:11:32			0	37249	0	0	0	18054	16660	137326	27281	966178	39050	106566	0	0	8336	607389	0	0
2024-05-12 08:12:32			0	37237	0	0	0	18064	16670	137382	27258	966142	39040	106570	0	0	8335	607863	0	0
2024-05-12 08:13:32			0	37233	0	0	0	18067	16660	137362	27443	966239	39061	106571	0	0	8335	608065	0	0
2024-05-12 08:14:32			0	37236	0	0	0	18067	16670	137358	27376	966194	39050	106571	0	0	8335	607905	0	0
2024-05-12 08:15:32			0	37232	0	0	0	18072	16670	137478	27268	966168	39061	106573	0	0	8334	608074	0	0
2024-05-12 08:16:32			0	37244	0	0	0	18077	16670	137426	27549	966221	39050	106575	0	0	8335	607568	0	0
2024-05-12 08:17:32			0	37240	0	0	0	18070	16670	137458	27190	966256	39051	106572	0	0	8335	607736	0	0
2024-05-12 08:18:32			0	37214	0	0	0	18080	16670	137438	27246	966229	39051	106576	0	0	8333	608835	0	0
2024-05-12 08:19:32			0	37231	0	0	0	18090	16680	137466	27417	966264	39051	106580	0	0	8334	608084	0	0
2024-05-12 08:20:32			0	37217	0	0	0	18080	16690	137470	27265	966236	39064	106576	0	0	8334	608642	0	0
2024-05-12 08:21:32			0	37214	0	0	0	18088	16680	137490	27369	966290	39062	106579	0	0	8333	608802	0	0
2024-05-12 08:22:32			0	37218	0	0	0	18088	16690	137482	27424	966262	39053	106579	0	0	8334	608600	0	0
2024-05-12 08:23:32			0	37224	0	0	0	18101	16690	137418	27601	966315	39064	106584	0	0	8334	608347	0	0
2024-05-12 08:24:32			0	37204	0	0	0	18103	16700	137454	27329	966270	39053	106585	0	0	8333	609159	0	0
2024-05-12 08:25:32			0	37208	0	0	0	18098	16700	137486	27286	966323	39064	106583	0	0	8333	608990	0	0
2024-05-12 08:26:32			0	37220	0	0	0	18101	16700	137466	27296	966297	39064	106584	0	0	8333	608483	0	0
2024-05-12 08:27:32			0	37209	0	0	0	18098	16690	137494	27241	966262	39053	106583	0	0	8333	608981	0	0
2024-05-12 08:28:32			0	37220	0	0	0	18106	16710	137554	27301	966366	39055	106586	0	0	8333	608450	0	0
2024-05-12 08:29:32			0	37210	0	0	0	18111	16720	137478	27467	966356	39055	106588	0	0	8333	608839	0	0
2024-05-12 08:30:32			0	37202	0	0	0	18098	16700	137450	27066	966331	39043	106583	0	0	8333	609244	0	0
2024-05-12 08:31:32			0	37191	0	0	0	18114	16700	137398	27331	966358	39054	106589	0	0	8332	609709	0	0
2024-05-12 08:32:32			0	37206	0	0	0	18119	16710	137470	27067	966348	39055	106591	0	0	8332	609042	0	0
2024-05-12 08:33:32			0	37199	0	0	0	18119	16720	137594	27350	966330	39044	106591	0	0	8332	609305	0	0
2024-05-12 08:34:32			0	37192	0	0	0	18119	16710	137482	27499	966366	39066	106591	0	0	8332	609634	0	0
2024-05-12 08:35:32			0	37196	0	0	0	18122	16720	137402	27308	966391	39056	106592	0	0	8332	609432	0	0
2024-05-12 08:36:32			0	37182	0	0	0	18114	16720	137554	27512	966409	39066	106589	0	0	8331	610024	0	0
2024-05-12 08:37:32			0	37188	0	0	0	18119	16720	137470	27332	966488	39066	106591	0	0	8332	609770	0	0
2024-05-12 08:38:32			0	37192	0	0	0	18109	16720	137610	27552	966409	39055	106587	0	0	8332	609601	0	0
2024-05-12 08:39:32			0	37169	0	0	0	18132	16740	137546	27665	966468	39067	106596	0	0	8330	610508	0	0
2024-05-12 08:40:32			0	37197	0	0	0	18129	16740	137530	27753	966468	39079	106595	0	0	8332	609323	0	0
2024-05-12 08:41:32			0	37188	0	0	0	18127	16730	137602	27417	966478	39045	106594	0	0	8331	609737	0	0
2024-05-12 08:42:32			0	37197	0	0	0	18132	16750	137550	27344	966503	39068	106596	0	0	8332	609290	0	0
2024-05-12 08:43:32			0	37179	0	0	0	18127	16730	137610	27376	966486	39067	106594	0	0	8331	610118	0	0
2024-05-12 08:44:32			0	37187	0	0	0	18127	16720	137622	27535	966417	39067	106594	0	0	8331	609812	0	0
2024-05-12 08:45:32			0	37190	0	0	0	18127	16750	137582	27447	966503	39068	106594	0	0	8332	609586	0	0
2024-05-12 08:46:32			0	37166	0	0	0	18135	16730	137562	27421	966434	39067	106597	0	0	8330	610669	0	0
2024-05-12 08:47:32			0	37179	0	0	0	18124	16730	137482	27429	966460	39079	106593	0	0	8331	610118	0	0
2024-05-12 08:48:32			0	37189	0	0	0	18132	16750	137606	27653	966477	39046	106596	0	0	8332	609629	0	0
2024-05-12 08:49:32			0	37184	0	0	0	18129	16750	137510	27182	966538	39058	106595	0	0	8331	609840	0	0
2024-05-12 08:50:32			0	37151	0	0	0	18132	16750	137542	27601	966450	39068	106596	0	0	8329	611238	0	0
2024-05-12 08:51:32			0	37175	0	0	0	18140	16730	137582	27632	966513	39079	106599	0	0	8331	610287	0	0
2024-05-12 08:52:32			0	37154	0	0	0	18145	16760	137690	27530	966546	39058	106601	0	0	8329	611078	0	0
2024-05-12 08:53:32			0	37159	0	0	0	18150	16740	137614	27227	966495	39056	106603	0	0	8330	610932	0	0
2024-05-12 08:54:32			0	37146	0	0	0	18155	16740	137642	27542	966521	39067	106605	0	0	8329	611483	0	0
2024-05-12 08:55:32			0	37169	0	0	0	18155	16740	137646	27840	966495	39067	106605	0	0	8330	610508	0	0
2024-05-12 08:56:32			0	37132	0	0	0	18161	16760	137662	27211	966546	39058	106607	0	0	8328	612011	0	0
2024-05-12 08:57:32			0	37143	0	0	0	18171	16760	137698	27282	966572	39069	106611	0	0	8328	611544	0	0
2024-05-12 08:58:32			0	37123	0	0	0	18184	16760	137670	27393	966607	39081	106616	0	0	8327	612392	0	0
2024-05-12 08:59:32			0	37132	0	0	0	18184	16770	137682	27552	966676	39071	106616	0	0	8328	611977	0	0
2024-05-12 09:00:32			0	37137	0	0	0	18194	16780	137734	27187	966684	39083	106620	0	0	8328	611732	0	0
2024-05-12 09:01:32			0	37109	0	0	0	18207	16780	137754	27388	966658	39072	106625	0	0	8326	612920	0	0
2024-05-12 09:02:32			0	37115	0	0	0	18207	16780	137762	27244	966719	39072	106625	0	0	8326	612666	0	0
2024-05-12 09:03:32			0	37106	0	0	0	18220	16790	137858	27601	966735	39094	106630	0	0	8326	613015	0	0
2024-05-12 09:04:32			0	37098	0	0	0	18215	16800	137766	27526	966744	39084	106628	0	0	8325	613321	0	0
2024-05-12 09:05:32			0	37096	0	0	0	18223	16800	137818	27421	966717	39084	106631	0	0	8325	613406	0	0
2024-05-12 09:06:32			0	37071	0	0	0	18228	16810	137890	27698	966786	39074	106633	0	0	8324	614436	0	0
2024-05-12 09:07:32			0	37074	0	0	0	18228	16810	137874	27462	966768	39074	106633	0	0	8324	614308	0	0
2024-05-12 09:08:32			0	37078	0	0	0	18228	16810	137870	27118	966786	39074	106633	0	0	8324	614138	0	0
2024-05-12 09:09:32			0	37080	0	0	0	18218	16800	137890	27326	966752	39095	106629	0	0	8324	614086	0	0
2024-05-12 09:10:32			0	37070	0	0	0	18223	16810	137914	27583	966839	39084	106631	0	0	8324	614478	0	0
2024-05-12 09:11:32			0	37067	0	0	0	18228	16810	137922	27371	966821	39074	106633	0	0	8324	614606	0	0
2024-05-12 09:12:32			0	37075	0	0	0	18220	16810	137958	27516	966768	39074	106630	0	0	8324	614265	0	0
2024-05-12 09:13:32			0	37064	0	0	0	18212	16820	137946	27460	966785	39075	106627	0	0	8324	614700	0	0
2024-05-12 09:14:32			0	37064	0	0	0	18228	16820	137942	27476	966882	39075	106633	0	0	8324	614700	0	0
2024-05-12 09:15:32			0	37050	0	0	0	18225	16820	137930	27455	966864	39085	106632	0	0	8323	615296	0	0
2024-05-12 09:16:32			0	37036	0	0	0	18238	16830	137918	27438	966907	39076	106637	0	0	8322	615859	0	0
2024-05-12 09:17:32			0	37018	0	0	0	18238	16830	138050	27481	966872	39085	106637	0	0	8321	616626	0	0
2024-05-12 09:18:32			0	37030	0	0	0	18244	16830	137998	27498	966880	39086	106639	0	0	8322	616114	0	0
2024-05-12 09:19:32			0	37021	0	0	0	18236	16830	138018	27352	966907	39086	106636	0	0	8321	616498	0	0
2024-05-12 09:20:32			0	37021	0	0	0	18244	16840	138018	27452	966950	39088	106639	0	0	8321	616464	0	0
2024-05-12 09:21:32			0	37004	0	0	0	18257	16850	138062	27255	966940	39088	106644	0	0	8320	617156	0	0
2024-05-12 09:22:32			0	37006	0	0	0	18251	16850	138070	27377	967011	39088	106642	0	0	8320	617070	0	0
2024-05-12 09:23:32			0	37012	0	0	0	18259	16850	138010	27218	966931	39088	106645	0	0	8320	616815	0	0
2024-05-12 09:24:32			0	37004	0	0	0	18257	16850	138118	27597	967045	39078	106644	0	0	8320	617156	0	0
2024-05-12 09:25:32			0	36993	0	0	0	18254	16850	138114	27490	966992	39088	106643	0	0	8319	617625	0	0
2024-05-12 09:26:32			0	36975	0	0	0	18259	16860	138198	27249	967001	39079	106645	0	0	8318	618360	0	0
2024-05-12 09:27:32			0	36990	0	0	0	18270	16860	138142	27588	967035	39080	106649	0	0	8319	617720	0	0
2024-05-12 09:28:32			0	36956	0	0	0	18272	16870	138210	27469	967105	39080	106650	0	0	8317	619138	0	0
2024-05-12 09:29:32			0	36975	0	0	0	18283	16860	138158	27284	967088	39080	106654	0	0	8318	618360	0	0
2024-05-12 09:30:32			0	36989	0	0	0	18280	16870	138206	27871	967017	39080	106653	0	0	8319	617729	0	0
2024-05-12 09:31:32			0	36974	0	0	0	18275	16860	138190	27483	967035	39090	106651	0	0	8318	618403	0	0
2024-05-12 09:32:32			0	36969	0	0	0	18280	16870	138170	27571	967017	39090	106653	0	0	8318	618583	0	0
2024-05-12 09:33:32			0	36955	0	0	0	18280	16870	138198	27400	967044	39080	106653	0	0	8317	619181	0	0
2024-05-12 09:34:32			0	36944	0	0	0	18280	16870	138286	27293	967026	39090	106653	0	0	8316	619651	0	0
2024-05-12 09:35:32			0	36961	0	0	0	18277	16870	138190	27478	967078	39090	106652	0	0	8317	618925	0	0
2024-05-12 09:36:32			0	36947	0	0	0	18277	16870	138206	27350	967070	39090	106652	0	0	8317	619523	0	0
2024-05-12 09:37:32			0	36952	0	0	0	18272	16880	138270	27352	967068	39091	106650	0	0	8317	619276	0	0
2024-05-12 09:38:32			0	36942	0	0	0	18267	16870	138266	27279	967105	39080	106648	0	0	8317	619737	0	0
2024-05-12 09:39:32			0	36956	0	0	0	18270	16870	138266	27556	967017	39080	106649	0	0	8317	619138	0	0
2024-05-12 09:40:32			0	36948	0	0	0	18275	16870	138274	27204	967026	39080	106651	0	0	8317	619480	0	0
2024-05-12 09:41:32			0	36936	0	0	0	18270	16880	138342	27866	967087	39091	106649	0	0	8316	619960	0	0
2024-05-12 09:42:32			0	36947	0	0	0	18272	16880	138386	27578	967034	39080	106650	0	0	8317	619490	0	0
2024-05-12 09:43:32			0	36950	0	0	0	18270	16870	138322	27376	967052	39090	106649	0	0	8317	619395	0	0
2024-05-12 09:44:32			0	36928	0	0	0	18275	16880	138330	27537	967060	39091	106651	0	0	8316	620302	0	0
2024-05-12 09:45:32			0	36940	0	0	0	18280	16870	138282	27836	967052	39090	106653	0	0	8316	619823	0	0
2024-05-12 09:46:32			0	36948	0	0	0	18283	16870	138370	27421	967078	39090	106654	0	0	8317	619480	0	0
2024-05-12 09:47:32			0	36926	0	0	0	18285	16890	138346	27746	967050	39081	106655	0	0	8316	620354	0	0
2024-05-12 09:48:32			0	36927	0	0	0	18290	16900	138334	27405	967146	39103	106657	0	0	8316	620278	0	0
2024-05-12 09:49:32			0	36940	0	0	0	18301	16900	138366	27488	967199	39092	106661	0	0	8316	619722	0	0
2024-05-12 09:50:32			0	36911	0	0	0	18311	16910	138386	27293	967189	39105	106665	0	0	8314	620929	0	0
2024-05-12 09:51:32			0	36925	0	0	0	18327	16910	138382	27634	967242	39083	106671	0	0	8315	620330	0	0
2024-05-12 09:52:32			0	36929	0	0	0	18337	16910	138390	27472	967268	39094	106675	0	0	8315	620159	0	0
2024-05-12 09:53:32			0	36920	0	0	0	18332	16920	138342	27281	967364	39094	106673	0	0	8315	620510	0	0
2024-05-12 09:54:32			0	36933	0	0	0	18355	16930	138358	27338	967380	39107	106682	0	0	8315	619920	0	0
2024-05-12 09:55:32			0	36914	0	0	0	18350	16930	138358	27684	967362	39118	106680	0	0	8314	620733	0	0
2024-05-12 09:56:32			0	36930	0	0	0	18358	16930	138290	27237	967433	39096	106683	0	0	8315	620049	0	0
2024-05-12 09:57:32			0	36908	0	0	0	18358	16940	138362	27355	967405	39085	106683	0	0	8314	620957	0	0
2024-05-12 09:58:32			0	36914	0	0	0	18366	16960	138358	27486	967456	39109	106686	0	0	8314	620632	0	0
2024-05-12 09:59:32			0	36919	0	0	0	18381	16960	138434	27189	967464	39098	106692	0	0	8314	620419	0	0
2024-05-12 10:00:32			0	36902	0	0	0	18381	16960	138418	27360	967403	39109	106692	0	0	8313	621146	0	0
2024-05-12 10:01:32			0	36898	0	0	0	18389	16960	138350	27395	967464	39098	106695	0	0	8313	621318	0	0
2024-05-12 10:02:32			0	36892	0	0	0	18381	16970	138402	27692	967499	39110	106692	0	0	8312	621541	0	0
2024-05-12 10:03:32			0	36886	0	0	0	18379	16970	138386	27585	967533	39100	106691	0	0	8312	621798	0	0
2024-05-12 10:04:32			0	36897	0	0	0	18381	16970	138422	27512	967480	39100	106692	0	0	8313	621327	0	0
2024-05-12 10:05:32			0	36892	0	0	0	18386	16980	138418	27569	967462	39100	106694	0	0	8312	621507	0	0
2024-05-12 10:06:32			0	36890	0	0	0	18371	16990	138346	27459	967479	39101	106688	0	0	8313	621559	0	0
2024-05-12 10:07:32			0	36869	0	0	0	18368	16980	138398	27426	967462	39111	106687	0	0	8311	622493	0	0
2024-05-12 10:08:32			0	36886	0	0	0	18358	16970	138442	27599	967480	39100	106683	0	0	8312	621798	0	0
2024-05-12 10:09:32			0	36886	0	0	0	18363	16980	138390	27918	967436	39111	106685	0	0	8312	621764	0	0
2024-05-12 10:10:32			0	36884	0	0	0	18366	16970	138450	27348	967533	39089	106686	0	0	8312	621884	0	0
2024-05-12 10:11:32			0	36875	0	0	0	18361	16980	138362	27464	967497	39089	106684	0	0	8312	622236	0	0
2024-05-12 10:12:32			0	36854	0	0	0	18371	16980	138454	27362	967489	39089	106688	0	0	8311	623137	0	0
2024-05-12 10:13:32			0	36874	0	0	0	18366	16980	138406	27651	967515	39100	106686	0	0	8312	622279	0	0
2024-05-12 10:14:32			0	36883	0	0	0	18366	16980	138386	27055	967471	39100	106686	0	0	8312	621893	0	0
2024-05-12 10:15:32			0	36882	0	0	0	18361	16980	138586	27315	967418	39089	106684	0	0	8312	621936	0	0
2024-05-12 10:16:32			0	36875	0	0	0	18353	16980	138478	27734	967471	39089	106681	0	0	8312	622236	0	0
2024-05-12 10:17:32			0	36873	0	0	0	18345	16970	138506	27338	967428	39100	106678	0	0	8312	622355	0	0
2024-05-12 10:18:32			0	36879	0	0	0	18350	16970	138434	27803	967428	39100	106680	0	0	8312	622098	0	0
2024-05-12 10:19:32			0	36880	0	0	0	18340	16970	138522	27360	967401	39100	106676	0	0	8312	622055	0	0
2024-05-12 10:20:32			0	36875	0	0	0	18335	16970	138446	27229	967401	39089	106674	0	0	8312	622270	0	0
2024-05-12 10:21:32			0	36872	0	0	0	18335	16960	138430	27393	967385	39087	106674	0	0	8312	622432	0	0
2024-05-12 10:22:32			0	36858	0	0	0	18342	16960	138430	27618	967377	39098	106677	0	0	8311	623033	0	0
2024-05-12 10:23:32			0	36889	0	0	0	18348	16960	138474	27594	967438	39098	106679	0	0	8313	621703	0	0
2024-05-12 10:24:32			0	36875	0	0	0	18350	16970	138478	27358	967419	39099	106680	0	0	8312	622270	0	0
2024-05-12 10:25:32			0	36870	0	0	0	18350	16970	138486	27573	967428	39100	106680	0	0	8312	622484	0	0
2024-05-12 10:26:32			0	36870	0	0	0	18342	16980	138510	27421	967471	39100	106677	0	0	8312	622450	0	0
2024-05-12 10:27:32			0	36857	0	0	0	18348	16980	138474	27492	967418	39100	106679	0	0	8311	623008	0	0
2024-05-12 10:28:32			0	36855	0	0	0	18342	16970	138466	27301	967472	39110	106677	0	0	8311	623128	0	0
2024-05-12 10:29:32			0	36849	0	0	0	18353	16970	138574	27256	967419	39110	106681	0	0	8311	623385	0	0
2024-05-12 10:30:32			0	36849	0	0	0	18355	16980	138502	27763	967436	39100	106682	0	0	8311	623352	0	0
2024-05-12 10:31:32			0	36854	0	0	0	18366	16970	138506	27448	967525	39110	106686	0	0	8311	623171	0	0
2024-05-12 10:32:32			0	36850	0	0	0	18379	16980	138586	27343	967489	39111	106691	0	0	8310	623309	0	0
2024-05-12 10:33:32			0	36845	0	0	0	18371	16990	138562	27576	967540	39102	106688	0	0	8310	623489	0	0
2024-05-12 10:34:32			0	36847	0	0	0	18381	16990	138602	27438	967584	39101	106692	0	0	8310	623404	0	0
2024-05-12 10:35:32			0	36846	0	0	0	18389	16990	138602	27677	967584	39112	106695	0	0	8310	623447	0	0
2024-05-12 10:36:32			0	36828	0	0	0	18384	16990	138638	27390	967558	39101	106693	0	0	8309	624220	0	0
2024-05-12 10:37:32			0	36846	0	0	0	18384	17000	138598	27171	967583	39113	106693	0	0	8310	623413	0	0
2024-05-12 10:38:32			0	36847	0	0	0	18394	16990	138558	27208	967566	39124	106697	0	0	8310	623404	0	0
2024-05-12 10:39:32			0	36818	0	0	0	18399	17000	138574	27552	967575	39102	106699	0	0	8308	624616	0	0
2024-05-12 10:40:32			0	36824	0	0	0	18399	17000	138582	27395	967609	39091	106699	0	0	8309	624358	0	0
2024-05-12 10:41:32			0	36819	0	0	0	18410	17020	138634	27457	967634	39125	106703	0	0	8308	624505	0	0
2024-05-12 10:42:32			0	36818	0	0	0	18418	17010	138650	27374	967652	39104	106706	0	0	8308	624582	0	0
2024-05-12 10:43:32			0	36826	0	0	0	18423	17020	138602	27557	967660	39115	106708	0	0	8308	624204	0	0
2024-05-12 10:44:32			0	36831	0	0	0	18433	17020	138622	27476	967774	39125	106712	0	0	8309	623989	0	0
2024-05-12 10:45:32			0	36797	0	0	0	18446	17030	138626	27372	967764	39116	106717	0	0	8307	625417	0	0
2024-05-12 10:46:32			0	36832	0	0	0	18454	17060	138678	27208	967876	39128	106720	0	0	8308	623811	0	0
2024-05-12 10:47:32			0	36836	0	0	0	18464	17050	138694	27512	967834	39117	106724	0	0	8308	623673	0	0
2024-05-12 10:48:32			0	36819	0	0	0	18470	17050	138586	27575	967842	39117	106726	0	0	8307	624403	0	0
2024-05-12 10:49:32			0	36822	0	0	0	18472	17070	138702	27500	967928	39108	106727	0	0	8308	624207	0	0
2024-05-12 10:50:32			0	36801	0	0	0	18472	17070	138634	27620	967866	39108	106727	0	0	8306	625109	0	0
2024-05-12 10:51:32			0	36817	0	0	0	18462	17070	138626	27355	967840	39097	106723	0	0	8307	624421	0	0
2024-05-12 10:52:32			0	36817	0	0	0	18472	17070	138522	27277	967866	39119	106727	0	0	8307	624421	0	0
2024-05-12 10:53:32			0	36825	0	0	0	18467	17080	138526	27358	967918	39131	106725	0	0	8308	624044	0	0
2024-05-12 10:54:32			0	36835	0	0	0	18477	17080	138490	27372	967936	39130	106729	0	0	8308	623614	0	0
2024-05-12 10:55:32			0	36829	0	0	0	18467	17080	138570	27556	967865	39131	106725	0	0	8308	623872	0	0
2024-05-12 10:56:32			0	36832	0	0	0	18457	17080	138526	27315	967918	39110	106721	0	0	8308	623743	0	0
2024-05-12 10:57:32			0	36828	0	0	0	18459	17080	138558	27317	967865	39131	106722	0	0	8308	623915	0	0
2024-05-12 10:58:32			0	36841	0	0	0	18467	17080	138534	27564	967830	39120	106725	0	0	8309	623357	0	0
2024-05-12 10:59:32			0	36817	0	0	0	18462	17080	138522	27473	967865	39110	106723	0	0	8308	624387	0	0
2024-05-12 11:00:32			0	36829	0	0	0	18470	17070	138586	27447	967928	39119	106726	0	0	8308	623906	0	0
2024-05-12 11:01:32			0	36823	0	0	0	18480	17080	138530	27611	967918	39131	106730	0	0	8308	624130	0	0
2024-05-12 11:02:32			0	36836	0	0	0	18490	17090	138618	27386	967934	39131	106734	0	0	8308	623538	0	0
2024-05-12 11:03:32			0	36819	0	0	0	18498	17090	138554	27537	967926	39121	106737	0	0	8307	624268	0	0
2024-05-12 11:04:32			0	36830	0	0	0	18514	17100	138518	27649	968030	39122	106743	0	0	8307	623761	0	0
2024-05-12 11:05:32			0	36839	0	0	0	18527	17110	138538	27505	968038	39133	106748	0	0	8308	623341	0	0
2024-05-12 11:06:32			0	36839	0	0	0	18532	17110	138582	27410	968064	39144	106750	0	0	8308	623341	0	0
2024-05-12 11:07:32			0	36845	0	0	0	18540	17110	138570	27644	968125	39123	106753	0	0	8308	623084	0	0
2024-05-12 11:08:32			0	36844	0	0	0	18540	17120	138518	27294	968187	39133	106753	0	0	8308	623093	0	0
2024-05-12 11:09:32			0	36856	0	0	0	18568	17120	138494	27687	968160	39145	106764	0	0	8308	622578	0	0
2024-05-12 11:10:32			0	36841	0	0	0	18581	17130	138518	27293	968238	39146	106769	0	0	8307	623188	0	0
2024-05-12 11:11:32			0	36874	0	0	0	18597	17150	138426	27204	968289	39137	106775	0	0	8309	621705	0	0
2024-05-12 11:12:32			0	36864	0	0	0	18607	17170	138422	27445	968375	39150	106779	0	0	8308	622066	0	0
2024-05-12 11:13:32			0	36869	0	0	0	18625	17170	138410	27668	968454	39161	106786	0	0	8308	621852	0	0
2024-05-12 11:14:32			0	36872	0	0	0	18628	17190	138334	27433	968619	39152	106787	0	0	8308	621656	0	0
2024-05-12 11:15:32			0	36863	0	0	0	18649	17190	138458	27329	968627	39152	106795	0	0	8307	622041	0	0
2024-05-12 11:16:32			0	36845	0	0	0	18683	17220	138486	27557	968729	39143	106808	0	0	8306	622712	0	0
2024-05-12 11:17:32			0	36868	0	0	0	18706	17240	138434	27241	968834	39166	106817	0	0	8307	621658	0	0
2024-05-12 11:18:32			0	36849	0	0	0	18740	17250	138478	27287	968885	39158	106830	0	0	8305	622439	0	0
2024-05-12 11:19:32			0	36850	0	0	0	18766	17270	138406	27438	968883	39169	106840	0	0	8305	622328	0	0
2024-05-12 11:20:32			0	36848	0	0	0	18771	17280	138482	27046	968934	39149	106842	0	0	8305	622380	0	0
2024-05-12 11:21:32			0	36833	0	0	0	18776	17290	138378	27142	968995	39161	106844	0	0	8304	622990	0	0
2024-05-12 11:22:32			0	36831	0	0	0	18784	17310	138390	27182	968975	39163	106847	0	0	8304	623008	0	0
2024-05-12 11:23:32			0	36835	0	0	0	18779	17310	138458	27163	969010	39163	106845	0	0	8304	622836	0	0
2024-05-12 11:24:32			0	36851	0	0	0	18779	17320	138466	27163	968992	39163	106845	0	0	8305	622116	0	0
2024-05-12 11:25:32			0	36833	0	0	0	18784	17320	138410	27473	969079	39152	106847	0	0	8304	622888	0	0
2024-05-12 11:26:32			0	36839	0	0	0	18794	17330	138358	27507	969069	39175	106851	0	0	8304	622597	0	0
2024-05-12 11:27:32			0	36849	0	0	0	18789	17340	138418	27500	969104	39165	106849	0	0	8305	622134	0	0
2024-05-12 11:28:32			0	36849	0	0	0	18786	17350	138434	27535	969059	39175	106848	0	0	8305	622101	0	0
2024-05-12 11:29:32			0	36862	0	0	0	18805	17350	138378	27357	969094	39166	106855	0	0	8305	621544	0	0
2024-05-12 11:30:32			0	36864	0	0	0	18810	17370	138314	27613	969172	39156	106857	0	0	8305	621391	0	0
2024-05-12 11:31:32			0	36879	0	0	0	18828	17370	138270	27524	969233	39167	106864	0	0	8306	620749	0	0
2024-05-12 11:32:32			0	36887	0	0	0	18838	17380	138302	27395	969241	39158	106868	0	0	8306	620373	0	0
2024-05-12 11:33:32			0	36886	0	0	0	18823	17380	138254	27163	969241	39168	106862	0	0	8306	620415	0	0
2024-05-12 11:34:32			0	36877	0	0	0	18831	17390	138282	27324	969258	39168	106865	0	0	8306	620767	0	0
2024-05-12 11:35:32			0	36892	0	0	0	18828	17390	138238	27466	969266	39158	106864	0	0	8307	620125	0	0
2024-05-12 11:36:32			0	36860	0	0	0	18820	17390	138238	27159	969292	39158	106861	0	0	8305	621494	0	0
2024-05-12 11:37:32			0	36871	0	0	0	18820	17400	138258	27313	969301	39169	106861	0	0	8306	620990	0	0
2024-05-12 11:38:32			0	36887	0	0	0	18823	17410	138166	27258	969238	39169	106862	0	0	8307	620272	0	0
2024-05-12 11:39:32			0	36893	0	0	0	18807	17390	138150	27736	969292	39158	106856	0	0	8307	620083	0	0
2024-05-12 11:40:32			0	36920	0	0	0	18810	17400	138118	27234	969282	39169	106857	0	0	8308	618896	0	0
2024-05-12 11:41:32			0	36905	0	0	0	18797	17400	137978	27319	969230	39169	106852	0	0	8308	619536	0	0
2024-05-12 11:42:32			0	36910	0	0	0	18792	17400	137946	27196	969195	39181	106850	0	0	8308	619323	0	0
2024-05-12 11:43:32			0	36922	0	0	0	18794	17400	137942	27537	969256	39169	106851	0	0	8309	618810	0	0
2024-05-12 11:44:32			0	36926	0	0	0	18794	17400	137966	27582	969230	39169	106851	0	0	8309	618639	0	0
2024-05-12 11:45:32			0	36944	0	0	0	18784	17400	137962	27590	969274	39159	106847	0	0	8310	617871	0	0
2024-05-12 11:46:32			0	36934	0	0	0	18779	17400	137966	27590	969230	39169	106845	0	0	8310	618298	0	0
2024-05-12 11:47:32			0	36927	0	0	0	18776	17410	138022	27720	969211	39159	106844	0	0	8309	618563	0	0
2024-05-12 11:48:32			0	36934	0	0	0	18776	17400	137930	27199	969221	39181	106844	0	0	8310	618298	0	0
2024-05-12 11:49:32			0	36923	0	0	0	18771	17390	138002	27419	969240	39169	106842	0	0	8309	618801	0	0
2024-05-12 11:50:32			0	36950	0	0	0	18781	17390	137922	27483	969213	39180	106846	0	0	8311	617649	0	0
2024-05-12 11:51:32			0	36938	0	0	0	18818	17400	138066	27441	969362	39192	106860	0	0	8309	618127	0	0
2024-05-12 11:52:32			0	36928	0	0	0	18825	17400	137982	27261	969388	39181	106863	0	0	8309	618554	0	0
2024-05-12 11:53:32			0	36922	0	0	0	18812	17410	138146	27064	969378	39182	106858	0	0	8309	618776	0	0
2024-05-12 11:54:32			0	36916	0	0	0	18818	17420	138170	27305	969368	39172	106860	0	0	8308	618999	0	0
2024-05-12 11:55:32			0	36904	0	0	0	18815	17420	138154	27625	969386	39171	106859	0	0	8308	619511	0	0
2024-05-12 11:56:32			0	36901	0	0	0	18815	17410	138150	27355	969325	39182	106859	0	0	8307	619673	0	0
2024-05-12 11:57:32			0	36889	0	0	0	18802	17420	138222	27173	969334	39171	106854	0	0	8307	620152	0	0
2024-05-12 11:58:32			0	36872	0	0	0	18802	17420	138202	27755	969307	39182	106854	0	0	8306	620879	0	0
2024-05-12 11:59:32			0	36870	0	0	0	18802	17420	138210	27350	969334	39171	106854	0	0	8306	620965	0	0
2024-05-12 12:00:32			0	36866	0	0	0	18818	17420	138282	27374	969360	39182	106860	0	0	8306	621136	0	0
2024-05-12 12:01:32			0	36848	0	0	0	18807	17410	138262	27350	969299	39170	106856	0	0	8305	621941	0	0
2024-05-12 12:02:32			0	36841	0	0	0	18812	17420	138302	27310	969360	39161	106858	0	0	8304	622207	0	0
2024-05-12 12:03:32			0	36837	0	0	0	18825	17420	138414	27540	969421	39183	106863	0	0	8304	622378	0	0
2024-05-12 12:04:32			0	36801	0	0	0	18875	17440	138414	27762	969657	39195	106882	0	0	8301	623854	0	0
2024-05-12 12:05:32			0	36804	0	0	0	19010	17460	138414	27500	969849	39208	106934	0	0	8299	623658	0	0
2024-05-12 12:06:32			0	36795	0	0	0	19077	17500	138414	27445	970100	39222	106960	0	0	8298	623908	0	0
2024-05-12 12:07:32			0	36769	0	0	0	19124	17540	138574	27255	970219	39225	106978	0	0	8296	624889	0	0
2024-05-12 12:08:32			0	36749	0	0	0	19161	17560	138730	27504	970366	39217	106992	0	0	8294	625680	0	0
2024-05-12 12:09:32			0	36735	0	0	0	19179	17590	138778	27144	970460	39230	106999	0	0	8293	626180	0	0
2024-05-12 12:10:32			0	36684	0	0	0	19205	17620	138842	27258	970562	39233	107009	0	0	8290	628274	0	0
2024-05-12 12:11:32			0	36671	0	0	0	19225	17650	138910	27562	970656	39224	107017	0	0	8289	628732	0	0
2024-05-12 12:12:32			0	36669	0	0	0	19249	17660	138902	27280	970708	39226	107026	0	0	8289	628784	0	0
2024-05-12 12:13:32			0	36656	0	0	0	19259	17690	138998	27466	970802	39228	107030	0	0	8288	629243	0	0
2024-05-12 12:14:32			0	36643	0	0	0	19270	17710	138946	27197	970835	39218	107034	0	0	8287	629735	0	0
2024-05-12 12:15:32			0	36657	0	0	0	19277	17720	138978	27906	970913	39231	107037	0	0	8288	629097	0	0
2024-05-12 12:16:32			0	36636	0	0	0	19290	17750	138894	27170	970936	39245	107042	0	0	8287	629900	0	0
2024-05-12 12:17:32			0	36661	0	0	0	19293	17750	138902	27405	970989	39245	107043	0	0	8288	628821	0	0
2024-05-12 12:18:32			0	36662	0	0	0	19298	17780	138854	27261	971057	39237	107045	0	0	8288	628675	0	0
2024-05-12 12:19:32			0	36651	0	0	0	19298	17790	138850	27083	971126	39237	107045	0	0	8288	629116	0	0
2024-05-12 12:20:32			0	36686	0	0	0	19301	17800	138706	27296	971090	39260	107046	0	0	8289	627573	0	0
2024-05-12 12:21:32			0	36703	0	0	0	19309	17800	138614	27563	971124	39249	107049	0	0	8290	626841	0	0
2024-05-12 12:22:32			0	36708	0	0	0	19309	17820	138650	27459	971202	39250	107049	0	0	8291	626557	0	0
2024-05-12 12:23:32			0	36714	0	0	0	19322	17830	138622	27438	971174	39252	107054	0	0	8291	626265	0	0
2024-05-12 12:24:32			0	36698	0	0	0	19319	17840	138590	27705	971261	39242	107053	0	0	8290	626919	0	0
2024-05-12 12:25:32			0	36694	0	0	0	19316	17840	138730	27592	971296	39253	107052	0	0	8290	627092	0	0
2024-05-12 12:26:32			0	36682	0	0	0	19329	17860	138778	27197	971374	39254	107057	0	0	8289	627540	0	0
2024-05-12 12:27:32			0	36651	0	0	0	19324	17860	138926	27313	971321	39232	107055	0	0	8287	628876	0	0
2024-05-12 12:28:32			0	36581	0	0	0	19340	17860	139017	27215	971382	39244	107061	0	0	8283	631899	0	0
2024-05-12 12:29:32			0	36548	0	0	0	19342	17880	139221	27331	971389	39256	107062	0	0	8282	633259	0	0
2024-05-12 12:30:32			0	36510	0	0	0	19340	17890	139329	27524	971405	39257	107061	0	0	8280	634873	0	0
2024-05-12 12:31:32			0	36450	0	0	0	19342	17900	139517	27263	971440	39257	107062	0	0	8276	637446	0	0
2024-05-12 12:32:32			0	36417	0	0	0	19324	17910	139693	27029	971430	39249	107055	0	0	8275	638848	0	0
2024-05-12 12:33:32			0	36357	0	0	0	19322	17920	139765	27296	971465	39249	107054	0	0	8272	641433	0	0
2024-05-12 12:34:32			0	36312	0	0	0	19324	17910	139953	27355	971483	39226	107055	0	0	8269	643437	0	0
2024-05-12 12:35:32			0	36290	0	0	0	19322	17920	140073	27216	971447	39238	107054	0	0	8268	644366	0	0
2024-05-12 12:36:32			0	36266	0	0	0	19293	17930	140141	27530	971455	39249	107043	0	0	8268	645384	0	0
2024-05-12 12:37:32			0	36236	0	0	0	19272	17930	140221	27715	971508	39260	107035	0	0	8266	646702	0	0
2024-05-12 12:38:32			0	36196	0	0	0	19210	17920	140425	27358	971473	39260	107011	0	0	8265	648497	0	0
2024-05-12 12:39:32			0	36190	0	0	0	19181	17930	140389	27410	971463	39228	107000	0	0	8265	648726	0	0
2024-05-12 12:40:32			0	36174	0	0	0	19111	17920	140429	27481	971262	39238	106973	0	0	8266	649467	0	0
2024-05-12 12:41:32			0	36181	0	0	0	19057	17890	140333	27365	971009	39203	106952	0	0	8267	649264	0	0
2024-05-12 12:42:32			0	36215	0	0	0	19025	17850	140325	27474	970837	39200	106940	0	0	8269	647908	0	0
2024-05-12 12:43:32			0	36207	0	0	0	19015	17830	140205	27509	970751	39208	106936	0	0	8269	648331	0	0
2024-05-12 12:44:32			0	36247	0	0	0	18994	17810	140225	27485	970630	39195	106928	0	0	8271	646641	0	0
2024-05-12 12:45:32			0	36247	0	0	0	18994	17790	140197	27301	970624	39205	106928	0	0	8271	646711	0	0
2024-05-12 12:46:32			0	36264	0	0	0	18984	17770	140197	27590	970591	39213	106924	0	0	8272	646035	0	0
2024-05-12 12:47:32			0	36266	0	0	0	18979	17760	140257	27504	970416	39202	106922	0	0	8272	645982	0	0
2024-05-12 12:48:32			0	36283	0	0	0	18966	17740	140153	27322	970462	39177	106917	0	0	8273	645306	0	0
2024-05-12 12:49:32			0	36261	0	0	0	18955	17720	140237	27575	970349	39187	106913	0	0	8272	646342	0	0
2024-05-12 12:50:32			0	36270	0	0	0	18961	17710	140241	27324	970254	39197	106915	0	0	8272	645982	0	0
2024-05-12 12:51:32			0	36271	0	0	0	18963	17700	140185	27268	970343	39196	106916	0	0	8272	645973	0	0
2024-05-12 12:52:32			0	36294	0	0	0	18966	17690	140277	27339	970273	39207	106917	0	0	8274	644998	0	0
2024-05-12 12:53:32			0	36285	0	0	0	18971	17680	140257	27390	970310	39206	106919	0	0	8273	645429	0	0
2024-05-12 12:54:32			0	36260	0	0	0	18974	17680	140249	27521	970283	39206	106920	0	0	8272	646527	0	0
2024-05-12 12:55:32			0	36281	0	0	0	18974	17670	140181	27409	970267	39194	106920	0	0	8273	645640	0	0
2024-05-12 12:56:32			0	36279	0	0	0	18984	17660	140357	27230	970232	39215	106924	0	0	8272	645762	0	0
2024-05-12 12:57:32			0	36293	0	0	0	18989	17660	140297	27341	970285	39205	106926	0	0	8273	645148	0	0
2024-05-12 12:58:32			0	36281	0	0	0	19005	17650	140177	27327	970348	39192	106932	0	0	8272	645710	0	0
2024-05-12 12:59:32			0	36276	0	0	0	19028	17660	140321	27462	970356	39214	106941	0	0	8271	645894	0	0
2024-05-12 13:00:32			0	36279	0	0	0	19038	17670	140221	27393	970346	39205	106945	0	0	8271	645727	0	0
2024-05-12 13:01:32			0	36286	0	0	0	19038	17660	140197	27621	970364	39183	106945	0	0	8272	645455	0	0
2024-05-12 13:02:32			0	36287	0	0	0	19041	17660	140277	27559	970390	39205	106946	0	0	8272	645411	0	0
2024-05-12 13:03:32			0	36287	0	0	0	19033	17660	140261	27199	970356	39193	106943	0	0	8272	645411	0	0
2024-05-12 13:04:32			0	36294	0	0	0	19031	17660	140265	27150	970356	39204	106942	0	0	8272	645104	0	0
2024-05-12 13:05:32			0	36293	0	0	0	19036	17660	140197	27249	970285	39205	106944	0	0	8272	645148	0	0
2024-05-12 13:06:32			0	36304	0	0	0	19031	17660	140109	27405	970364	39205	106942	0	0	8273	644665	0	0
2024-05-12 13:07:32			0	36305	0	0	0	19038	17660	140097	27448	970356	39204	106945	0	0	8273	644621	0	0
2024-05-12 13:08:32			0	36322	0	0	0	19031	17660	140129	27227	970338	39205	106942	0	0	8274	643875	0	0
2024-05-12 13:09:32			0	36327	0	0	0	19036	17650	140097	27332	970348	39192	106944	0	0	8274	643691	0	0
2024-05-12 13:10:32			0	36325	0	0	0	19038	17660	140113	26998	970390	39205	106945	0	0	8274	643743	0	0
2024-05-12 13:11:32			0	36339	0	0	0	19038	17660	140129	27126	970356	39204	106945	0	0	8275	643130	0	0
2024-05-12 13:12:32			0	36306	0	0	0	19049	17660	140005	27433	970364	39194	106949	0	0	8273	644577	0	0
2024-05-12 13:13:32			0	36331	0	0	0	19046	17660	140109	27209	970277	39214	106948	0	0	8274	643481	0	0
2024-05-12 13:14:32			0	36339	0	0	0	19054	17670	140057	27301	970399	39194	106951	0	0	8274	643095	0	0
2024-05-12 13:15:32			0	36330	0	0	0	19041	17660	140113	27486	970382	39214	106946	0	0	8274	643524	0	0
2024-05-12 13:16:32			0	36329	0	0	0	19041	17670	140105	27343	970354	39215	106946	0	0	8274	643533	0	0
2024-05-12 13:17:32			0	36351	0	0	0	19038	17660	140073	26963	970382	39204	106945	0	0	8275	642604	0	0
2024-05-12 13:18:32			0	36352	0	0	0	19033	17650	140097	27144	970268	39203	106943	0	0	8275	642596	0	0
2024-05-12 13:19:32			0	36339	0	0	0	19033	17660	140009	27242	970329	39204	106943	0	0	8275	643130	0	0
2024-05-12 13:20:32			0	36368	0	0	0	19044	17660	139965	27019	970356	39193	106947	0	0	8276	641860	0	0
2024-05-12 13:21:32			0	36369	0	0	0	19041	17660	139957	27386	970382	39193	106946	0	0	8276	641817	0	0
2024-05-12 13:22:32			0	36368	0	0	0	19041	17660	139937	27509	970338	39205	106946	0	0	8276	641860	0	0
2024-05-12 13:23:32			0	36358	0	0	0	19036	17660	139929	27679	970364	39194	106944	0	0	8276	642298	0	0
2024-05-12 13:24:32			0	36372	0	0	0	19033	17660	140021	27507	970356	39225	106943	0	0	8277	641685	0	0
2024-05-12 13:25:32			0	36358	0	0	0	19036	17660	139977	27462	970364	39194	106944	0	0	8276	642298	0	0
2024-05-12 13:26:32			0	36369	0	0	0	19041	17660	139993	27152	970390	39215	106946	0	0	8276	641817	0	0
2024-05-12 13:27:32			0	36360	0	0	0	19041	17660	139917	27277	970409	39214	106946	0	0	8276	642210	0	0
2024-05-12 13:28:32			0	36392	0	0	0	19046	17670	139913	27547	970478	39215	106948	0	0	8277	640776	0	0
2024-05-12 13:29:32			0	36381	0	0	0	19059	17670	139853	27064	970425	39205	106953	0	0	8277	641257	0	0
2024-05-12 13:30:32			0	36396	0	0	0	19064	17670	139921	27540	970513	39226	106955	0	0	8277	640601	0	0
2024-05-12 13:31:32			0	36376	0	0	0	19062	17670	139913	27332	970460	39215	106954	0	0	8276	641476	0	0
2024-05-12 13:32:32			0	36390	0	0	0	19054	17670	139945	27346	970425	39215	106951	0	0	8277	640863	0	0
2024-05-12 13:33:32			0	36393	0	0	0	19062	17670	139853	27353	970433	39205	106954	0	0	8277	640732	0	0
2024-05-12 13:34:32			0	36391	0	0	0	19054	17680	139873	27194	970503	39207	106951	0	0	8277	640785	0	0
2024-05-12 13:35:32			0	36392	0	0	0	19059	17680	139805	27384	970476	39217	106953	0	0	8277	640741	0	0
2024-05-12 13:36:32			0	36392	0	0	0	19064	17680	139909	27755	970468	39206	106955	0	0	8277	640741	0	0
2024-05-12 13:37:32			0	36401	0	0	0	19070	17680	139781	27654	970450	39217	106957	0	0	8278	640348	0	0
2024-05-12 13:38:32			0	36395	0	0	0	19072	17680	139789	27364	970521	39206	106958	0	0	8277	640610	0	0
2024-05-12 13:39:32			0	36396	0	0	0	19072	17680	139785	27346	970476	39207	106958	0	0	8277	640566	0	0
2024-05-12 13:40:32			0	36397	0	0	0	19072	17690	139825	27471	970538	39239	106958	0	0	8277	640488	0	0
2024-05-12 13:41:32			0	36403	0	0	0	19080	17690	139805	27351	970520	39218	106961	0	0	8278	640226	0	0
2024-05-12 13:42:32			0	36398	0	0	0	19085	17700	139769	27488	970528	39218	106963	0	0	8277	640409	0	0
2024-05-12 13:43:32			0	36411	0	0	0	19090	17690	139777	27547	970538	39217	106965	0	0	8278	639876	0	0
2024-05-12 13:44:32			0	36407	0	0	0	19088	17690	139737	27502	970520	39207	106964	0	0	8278	640051	0	0
2024-05-12 13:45:32			0	36406	0	0	0	19088	17690	139757	27675	970493	39207	106964	0	0	8278	640095	0	0
2024-05-12 13:46:32			0	36399	0	0	0	19093	17700	139741	27840	970607	39196	106966	0	0	8277	640366	0	0
2024-05-12 13:47:32			0	36411	0	0	0	19085	17710	139701	27504	970605	39198	106963	0	0	8278	639807	0	0
2024-05-12 13:48:32			0	36405	0	0	0	19088	17700	139821	27464	970562	39197	106964	0	0	8278	640104	0	0
2024-05-12 13:49:32			0	36385	0	0	0	19088	17700	139833	27526	970554	39207	106964	0	0	8276	640977	0	0
2024-05-12 13:50:32			0	36400	0	0	0	19077	17710	139709	27705	970571	39197	106960	0	0	8277	640287	0	0
2024-05-12 13:51:32			0	36402	0	0	0	19083	17710	139749	27274	970518	39208	106962	0	0	8277	640200	0	0
2024-05-12 13:52:32			0	36397	0	0	0	19067	17720	139781	27760	970587	39208	106956	0	0	8278	640383	0	0
2024-05-12 13:53:32			0	36397	0	0	0	19067	17700	139825	27594	970562	39208	106956	0	0	8277	640453	0	0
2024-05-12 13:54:32			0	36407	0	0	0	19070	17690	139745	27303	970546	39196	106957	0	0	8278	640051	0	0
2024-05-12 13:55:32			0	36413	0	0	0	19075	17710	139753	27500	970544	39208	106959	0	0	8278	639720	0	0
2024-05-12 13:56:32			0	36396	0	0	0	19075	17700	139737	27301	970501	39196	106959	0	0	8277	640497	0	0
2024-05-12 13:57:32			0	36392	0	0	0	19070	17700	139817	27201	970562	39208	106957	0	0	8277	640671	0	0
2024-05-12 13:58:32			0	36381	0	0	0	19064	17690	139757	27448	970493	39207	106955	0	0	8277	641187	0	0
2024-05-12 13:59:32			0	36408	0	0	0	19072	17690	139821	27206	970520	39229	106958	0	0	8278	640007	0	0
2024-05-12 14:00:32			0	36390	0	0	0	19067	17700	139773	27222	970528	39218	106956	0	0	8277	640759	0	0
2024-05-12 14:01:32			0	36391	0	0	0	19062	17710	139745	27402	970544	39208	106954	0	0	8277	640680	0	0
2024-05-12 14:02:32			0	36393	0	0	0	19064	17700	139797	27545	970501	39218	106955	0	0	8277	640628	0	0
2024-05-12 14:03:32			0	36414	0	0	0	19067	17700	139801	27563	970562	39218	106956	0	0	8278	639711	0	0
2024-05-12 14:04:32			0	36399	0	0	0	19070	17700	139761	27535	970501	39218	106957	0	0	8278	640366	0	0
2024-05-12 14:05:32			0	36417	0	0	0	19070	17690	139701	27164	970467	39196	106957	0	0	8278	639615	0	0
2024-05-12 14:06:32			0	36400	0	0	0	19070	17700	139749	27685	970528	39207	106957	0	0	8278	640322	0	0
2024-05-12 14:07:32			0	36408	0	0	0	19057	17690	139729	27369	970485	39207	106952	0	0	8278	640007	0	0
2024-05-12 14:08:32			0	36392	0	0	0	19057	17700	139733	27360	970554	39218	106952	0	0	8277	640671	0	0
2024-05-12 14:09:32			0	36408	0	0	0	19064	17690	139757	27345	970511	39195	106955	0	0	8278	640007	0	0
2024-05-12 14:10:32			0	36403	0	0	0	19057	17690	139785	27542	970493	39196	106952	0	0	8278	640226	0	0
2024-05-12 14:11:32			0	36412	0	0	0	19062	17690	139729	27447	970458	39207	106954	0	0	8278	639833	0	0
2024-05-12 14:12:32			0	36407	0	0	0	19059	17690	139717	27561	970485	39195	106953	0	0	8278	640051	0	0
2024-05-12 14:13:32			0	36387	0	0	0	19057	17690	139709	27286	970440	39196	106952	0	0	8277	640925	0	0
2024-05-12 14:14:32			0	36408	0	0	0	19051	17700	139665	27339	970449	39229	106950	0	0	8278	639972	0	0
2024-05-12 14:15:32			0	36397	0	0	0	19051	17700	139689	27319	970528	39196	106950	0	0	8278	640453	0	0
2024-05-12 14:16:32			0	36425	0	0	0	19049	17690	139725	27147	970406	39207	106949	0	0	8279	639266	0	0
2024-05-12 14:17:32			0	36424	0	0	0	19041	17680	139717	27450	970476	39184	106946	0	0	8279	639344	0	0
2024-05-12 14:18:32			0	36428	0	0	0	19018	17680	139709	27549	970476	39195	106937	0	0	8280	639169	0	0
2024-05-12 14:19:32			0	36414	0	0	0	19020	17680	139669	27486	970389	39195	106938	0	0	8279	639780	0	0
2024-05-12 14:20:32			0	36410	0	0	0	19018	17660	139633	27445	970390	39205	106937	0	0	8279	640025	0	0
2024-05-12 14:21:32			0	36453	0	0	0	19020	17670	139693	27479	970407	39194	106938	0	0	8281	638114	0	0
2024-05-12 14:22:32			0	36425	0	0	0	19018	17680	139625	27310	970389	39206	106937	0	0	8280	639300	0	0
2024-05-12 14:23:32			0	36431	0	0	0	19020	17670	139581	27592	970381	39205	106938	0	0	8280	639073	0	0
2024-05-12 14:24:32			0	36442	0	0	0	19025	17670	139561	27511	970407	39205	106940	0	0	8280	638594	0	0
2024-05-12 14:25:32			0	36433	0	0	0	19033	17670	139557	27523	970433	39194	106943	0	0	8280	638986	0	0
2024-05-12 14:26:32			0	36433	0	0	0	19038	17670	139577	27083	970433	39205	106945	0	0	8280	638986	0	0
2024-05-12 14:27:32			0	36448	0	0	0	19041	17680	139689	27398	970476	39217	106946	0	0	8281	638297	0	0
2024-05-12 14:28:32			0	36450	0	0	0	19059	17690	139621	27644	970511	39217	106953	0	0	8280	638175	0	0
2024-05-12 14:29:32			0	36442	0	0	0	19067	17680	139577	27476	970529	39195	106956	0	0	8280	638559	0	0
2024-05-12 14:30:32			0	36439	0	0	0	19083	17690	139605	27471	970591	39195	106962	0	0	8279	638655	0	0
2024-05-12 14:31:32			0	36432	0	0	0	19085	17690	139653	27220	970599	39207	106963	0	0	8279	638960	0	0
2024-05-12 14:32:32			0	36453	0	0	0	19096	17690	139533	27137	970591	39207	106967	0	0	8280	638045	0	0
2024-05-12 14:33:32			0	36444	0	0	0	19101	17690	139525	27062	970599	39207	106969	0	0	8279	638437	0	0
2024-05-12 14:34:32			0	36458	0	0	0	19093	17710	139501	27405	970624	39197	106966	0	0	8280	637758	0	0
2024-05-12 14:35:32			0	36459	0	0	0	19101	17710	139577	27284	970579	39219	106969	0	0	8280	637714	0	0
2024-05-12 14:36:32			0	36446	0	0	0	19103	17710	139509	27407	970605	39219	106970	0	0	8280	638280	0	0
2024-05-12 14:37:32			0	36452	0	0	0	19106	17710	139537	27079	970597	39208	106971	0	0	8280	638019	0	0
2024-05-12 14:38:32			0	36463	0	0	0	19119	17720	139557	27293	970614	39219	106976	0	0	8280	637505	0	0
2024-05-12 14:39:32			0	36486	0	0	0	19127	17720	139513	27424	970640	39219	106979	0	0	8281	636504	0	0
2024-05-12 14:40:32			0	36453	0	0	0	19122	17730	139449	27367	970709	39221	106977	0	0	8280	637906	0	0
2024-05-12 14:41:32			0	36473	0	0	0	19132	17720	139373	27244	970666	39219	106981	0	0	8281	637070	0	0
2024-05-12 14:42:32			0	36463	0	0	0	19129	17720	139465	27899	970693	39219	106980	0	0	8280	637505	0	0
2024-05-12 14:43:32			0	36487	0	0	0	19132	17730	139449	27104	970762	39221	106981	0	0	8281	636426	0	0
2024-05-12 14:44:32			0	36469	0	0	0	19137	17750	139361	27331	970743	39223	106983	0	0	8280	637140	0	0
2024-05-12 14:45:32			0	36470	0	0	0	19129	17760	139353	26970	970733	39224	106980	0	0	8281	637061	0	0
2024-05-12 14:46:32			0	36501	0	0	0	19129	17760	139353	27436	970759	39224	106980	0	0	8282	635713	0	0
2024-05-12 14:47:32			0	36503	0	0	0	19109	17750	139433	27658	970830	39212	106972	0	0	8283	635661	0	0
2024-05-12 14:48:32			0	36490	0	0	0	19119	17760	139349	27390	970794	39224	106976	0	0	8282	636191	0	0
2024-05-12 14:49:32			0	36514	0	0	0	19119	17760	139433	27620	970794	39224	106976	0	0	8283	635149	0	0
2024-05-12 14:50:32			0	36502	0	0	0	19116	17760	139417	27523	970873	39212	106975	0	0	8283	635670	0	0
2024-05-12 14:51:32			0	36515	0	0	0	19122	17770	139241	27327	970837	39203	106977	0	0	8283	635071	0	0
2024-05-12 14:52:32			0	36520	0	0	0	19122	17770	139297	27131	970881	39213	106977	0	0	8283	634854	0	0
2024-05-12 14:53:32			0	36539	0	0	0	19114	17770	139233	27140	970802	39224	106974	0	0	8285	634029	0	0
2024-05-12 14:54:32			0	36543	0	0	0	19111	17770	139177	27320	970890	39213	106973	0	0	8285	633856	0	0
2024-05-12 14:55:32			0	36548	0	0	0	19101	17770	139149	27383	970855	39224	106969	0	0	8285	633639	0	0
2024-05-12 14:56:32			0	36542	0	0	0	19111	17770	139181	27538	970776	39213	106973	0	0	8285	633899	0	0
2024-05-12 14:57:32			0	36539	0	0	0	19114	17770	139173	27298	970855	39224	106974	0	0	8285	634029	0	0
2024-05-12 14:58:32			0	36554	0	0	0	19109	17770	139085	27319	970776	39224	106972	0	0	8285	633379	0	0
2024-05-12 14:59:32			0	36571	0	0	0	19101	17770	139113	27405	970829	39213	106969	0	0	8286	632642	0	0
2024-05-12 15:00:32			0	36562	0	0	0	19020	17750	139093	27429	970698	39190	106938	0	0	8287	633101	0	0
2024-05-12 15:01:32			0	36577	0	0	0	19002	17750	139029	27606	970645	39201	106931	0	0	8288	632451	0	0
2024-05-12 15:02:32			0	36609	0	0	0	19015	17740	139022	27611	970629	39211	106936	0	0	8290	631101	0	0
2024-05-12 15:03:32			0	36597	0	0	0	19036	17740	139054	27407	970629	39201	106944	0	0	8289	631620	0	0
2024-05-12 15:04:32			0	36596	0	0	0	19049	17740	139101	27518	970655	39211	106949	0	0	8289	631663	0	0
2024-05-12 15:05:32			0	36602	0	0	0	19046	17730	139010	27298	970691	39200	106948	0	0	8289	631438	0	0
2024-05-12 15:06:32			0	36606	0	0	0	19059	17730	138994	27696	970683	39200	106953	0	0	8289	631265	0	0
2024-05-12 15:07:32			0	36615	0	0	0	19070	17730	138902	27793	970657	39200	106957	0	0	8289	630876	0	0
2024-05-12 15:08:32			0	36616	0	0	0	19064	17740	138938	27613	970708	39222	106955	0	0	8289	630798	0	0
2024-05-12 15:09:32			0	36613	0	0	0	19085	17740	139026	27802	970700	39210	106963	0	0	8289	630928	0	0
2024-05-12 15:10:32			0	36598	0	0	0	19090	17730	138925	27383	970691	39200	106965	0	0	8288	631611	0	0
2024-05-12 15:11:32			0	36627	0	0	0	19098	17740	138882	27386	970761	39211	106968	0	0	8289	630323	0	0
2024-05-12 15:12:32			0	36625	0	0	0	19101	17760	138858	27807	970794	39212	106969	0	0	8289	630341	0	0
2024-05-12 15:13:32			0	36612	0	0	0	19111	17750	138870	27443	970830	39212	106973	0	0	8288	630937	0	0
2024-05-12 15:14:32			0	36626	0	0	0	19124	17760	138894	27564	970865	39212	106978	0	0	8289	630298	0	0
2024-05-12 15:15:32			0	36628	0	0	0	19127	17760	138886	27550	970873	39202	106979	0	0	8289	630211	0	0
2024-05-12 15:16:32			0	36622	0	0	0	19127	17770	138846	27289	970943	39213	106979	0	0	8289	630436	0	0
2024-05-12 15:17:32			0	36624	0	0	0	19142	17760	138810	27291	970926	39212	106985	0	0	8289	630384	0	0
2024-05-12 15:18:32			0	36634	0	0	0	19137	17770	138830	27711	970881	39213	106983	0	0	8289	629918	0	0
2024-05-12 15:19:32			0	36648	0	0	0	19148	17770	138882	27377	970863	39203	106987	0	0	8290	629314	0	0
2024-05-12 15:20:32			0	36641	0	0	0	19150	17790	138778	27859	970967	39215	106988	0	0	8289	629547	0	0
2024-05-12 15:21:32			0	36652	0	0	0	19153	17790	138862	27658	970967	39226	106989	0	0	8290	629072	0	0
2024-05-12 15:22:32			0	36662	0	0	0	19158	17800	138670	27419	971010	39227	106991	0	0	8291	628607	0	0
2024-05-12 15:23:32			0	36646	0	0	0	19158	17800	138710	27381	971045	39216	106991	0	0	8290	629297	0	0
2024-05-12 15:24:32			0	36670	0	0	0	19168	17810	138722	27407	970974	39239	106995	0	0	8291	628228	0	0
2024-05-12 15:25:32			0	36660	0	0	0	19181	17810	138698	27180	971061	39217	107000	0	0	8290	628659	0	0
2024-05-12 15:26:32			0	36667	0	0	0	19176	17820	138662	27445	971123	39218	106998	0	0	8291	628323	0	0
2024-05-12 15:27:32			0	36674	0	0	0	19189	17830	138674	27206	971147	39230	107003	0	0	8291	627987	0	0
2024-05-12 15:28:32			0	36666	0	0	0	19189	17830	138714	27315	971139	39219	107003	0	0	8290	628332	0	0
2024-05-12 15:29:32			0	36680	0	0	0	19199	17840	138678	27395	971208	39230	107007	0	0	8291	627694	0	0
2024-05-12 15:30:32			0	36670	0	0	0	19210	17840	138742	27661	971208	39230	107011	0	0	8290	628125	0	0
2024-05-12 15:31:32			0	36677	0	0	0	19218	17850	138694	27222	971225	39220	107014	0	0	8291	627789	0	0
2024-05-12 15:32:32			0	36664	0	0	0	19212	17860	138638	27390	971268	39221	107012	0	0	8290	628315	0	0
2024-05-12 15:33:32			0	36658	0	0	0	19218	17860	138674	27379	971268	39210	107014	0	0	8290	628574	0	0
2024-05-12 15:34:32			0	36670	0	0	0	19228	17870	138738	27241	971285	39234	107018	0	0	8290	628023	0	0
2024-05-12 15:35:32			0	36678	0	0	0	19228	17880	138546	27267	971389	39224	107018	0	0	8291	627644	0	0
2024-05-12 15:36:32			0	36675	0	0	0	19236	17890	138634	27414	971424	39236	107021	0	0	8290	627739	0	0
2024-05-12 15:37:32			0	36677	0	0	0	19236	17880	138586	27398	971362	39235	107021	0	0	8290	627687	0	0
2024-05-12 15:38:32			0	36698	0	0	0	19241	17890	138582	27211	971405	39236	107023	0	0	8291	626749	0	0
2024-05-12 15:39:32			0	36672	0	0	0	19244	17890	138566	27443	971379	39225	107024	0	0	8290	627868	0	0
2024-05-12 15:40:32			0	36678	0	0	0	19241	17900	138638	27542	971361	39225	107023	0	0	8290	627575	0	0
2024-05-12 15:41:32			0	36689	0	0	0	19231	17900	138622	27424	971448	39204	107019	0	0	8291	627102	0	0
2024-05-12 15:42:32			0	36692	0	0	0	19220	17900	138554	27201	971369	39225	107015	0	0	8291	626973	0	0
2024-05-12 15:43:32			0	36691	0	0	0	19233	17900	138622	27196	971369	39225	107020	0	0	8291	627016	0	0
2024-05-12 15:44:32			0	36697	0	0	0	19228	17900	138506	27041	971414	39213	107018	0	0	8292	626758	0	0
2024-05-12 15:45:32			0	36689	0	0	0	19231	17900	138514	27523	971369	39214	107019	0	0	8291	627102	0	0
2024-05-12 15:46:32			0	36709	0	0	0	19233	17900	138478	27343	971422	39214	107020	0	0	8292	626241	0	0
2024-05-12 15:47:32			0	36688	0	0	0	19218	17910	138490	27246	971351	39215	107014	0	0	8291	627111	0	0
2024-05-12 15:48:32			0	36704	0	0	0	19218	17900	138522	27180	971369	39214	107014	0	0	8292	626456	0	0
2024-05-12 15:49:32			0	36717	0	0	0	19223	17910	138422	27493	971404	39237	107016	0	0	8293	625863	0	0
2024-05-12 15:50:32			0	36728	0	0	0	19225	17910	138474	27474	971377	39226	107017	0	0	8293	625391	0	0
2024-05-12 15:51:32			0	36730	0	0	0	19223	17910	138466	27377	971377	39215	107016	0	0	8294	625305	0	0
2024-05-12 15:52:32			0	36728	0	0	0	19218	17910	138366	27326	971377	39215	107014	0	0	8293	625391	0	0
2024-05-12 15:53:32			0	36719	0	0	0	19205	17900	138490	27126	971316	39204	107009	0	0	8293	625811	0	0
2024-05-12 15:54:32			0	36743	0	0	0	19202	17910	138370	27346	971351	39215	107008	0	0	8295	624747	0	0
2024-05-12 15:55:32			0	36741	0	0	0	19207	17900	138370	27367	971361	39225	107010	0	0	8294	624866	0	0
2024-05-12 15:56:32			0	36738	0	0	0	19194	17920	138442	27331	971333	39215	107005	0	0	8294	624927	0	0
2024-05-12 15:57:32			0	36739	0	0	0	19186	17900	138394	27550	971316	39204	107002	0	0	8295	624952	0	0
2024-05-12 15:58:32			0	36755	0	0	0	19176	17900	138374	27582	971316	39214	106998	0	0	8296	624266	0	0
2024-05-12 15:59:32			0	36741	0	0	0	19176	17890	138342	27242	971352	39225	106998	0	0	8295	624900	0	0
2024-05-12 16:00:32			0	36746	0	0	0	19171	17900	138342	27346	971334	39225	106996	0	0	8295	624652	0	0
2024-05-12 16:01:32			0	36756	0	0	0	19163	17890	138366	27159	971291	39203	106993	0	0	8296	624257	0	0
2024-05-12 16:02:32			0	36752	0	0	0	19158	17880	138394	27227	971204	39213	106991	0	0	8296	624462	0	0
2024-05-12 16:03:32			0	36752	0	0	0	19140	17880	138334	27429	971222	39201	106984	0	0	8296	624462	0	0
2024-05-12 16:04:32			0	36742	0	0	0	19150	17870	138154	27286	971153	39223	106988	0	0	8295	624926	0	0
2024-05-12 16:05:32			0	36763	0	0	0	19150	17870	138274	27218	971187	39212	106988	0	0	8296	624024	0	0
2024-05-12 16:06:32			0	36771	0	0	0	19148	17860	138294	27202	971189	39210	106987	0	0	8297	623715	0	0
2024-05-12 16:07:32			0	36748	0	0	0	19145	17860	138294	27597	971144	39201	106986	0	0	8296	624702	0	0
2024-05-12 16:08:32			0	36774	0	0	0	19145	17860	138318	27119	971197	39201	106986	0	0	8297	623587	0	0
2024-05-12 16:09:32			0	36758	0	0	0	19137	17860	138310	27208	971163	39210	106983	0	0	8296	624273	0	0
2024-05-12 16:10:32			0	36785	0	0	0	19132	17850	138266	27443	971093	39220	106981	0	0	8298	623149	0	0
2024-05-12 16:11:32			0	36777	0	0	0	19140	17860	138258	27490	971136	39200	106984	0	0	8297	623458	0	0
2024-05-12 16:12:32			0	36772	0	0	0	19140	17850	138238	27408	971154	39221	106984	0	0	8297	623706	0	0
2024-05-12 16:13:32			0	36772	0	0	0	19137	17850	138262	27268	971128	39189	106983	0	0	8297	623706	0	0
2024-05-12 16:14:32			0	36782	0	0	0	19135	17850	138266	27362	971075	39210	106982	0	0	8298	623278	0	0
2024-05-12 16:15:32			0	36782	0	0	0	19137	17850	138326	27642	971119	39199	106983	0	0	8297	623278	0	0
2024-05-12 16:16:32			0	36778	0	0	0	19135	17850	138258	27336	971093	39199	106982	0	0	8297	623449	0	0
2024-05-12 16:17:32			0	36774	0	0	0	19132	17840	138174	27469	971137	39199	106981	0	0	8297	623655	0	0
2024-05-12 16:18:32			0	36789	0	0	0	19145	17840	138162	27450	971076	39198	106986	0	0	8298	623012	0	0
2024-05-12 16:19:32			0	36772	0	0	0	19124	17850	138254	27479	971066	39199	106978	0	0	8297	623706	0	0
2024-05-12 16:20:32			0	36786	0	0	0	19106	17840	138210	27500	971050	39198	106971	0	0	8298	623140	0	0
2024-05-12 16:21:32			0	36785	0	0	0	19098	17820	138266	27339	970972	39197	106968	0	0	8298	623251	0	0
2024-05-12 16:22:32			0	36791	0	0	0	19090	17810	138198	27326	971009	39184	106965	0	0	8299	623028	0	0
2024-05-12 16:23:32			0	36793	0	0	0	19101	17820	138182	27398	970964	39185	106969	0	0	8299	622908	0	0
2024-05-12 16:24:32			0	36793	0	0	0	19088	17810	138178	27296	970956	39195	106964	0	0	8299	622942	0	0
2024-05-12 16:25:32			0	36764	0	0	0	19098	17810	138242	27493	970974	39207	106968	0	0	8297	624186	0	0
2024-05-12 16:26:32			0	36780	0	0	0	19098	17810	138278	27602	970929	39195	106968	0	0	8298	623499	0	0
2024-05-12 16:27:32			0	36793	0	0	0	19098	17800	138122	27255	970992	39183	106968	0	0	8299	622976	0	0
2024-05-12 16:28:32			0	36808	0	0	0	19096	17820	138158	27422	971017	39207	106967	0	0	8299	622266	0	0
2024-05-12 16:29:32			0	36806	0	0	0	19103	17820	138090	27178	970964	39207	106970	0	0	8299	622351	0	0
2024-05-12 16:30:32			0	36797	0	0	0	19090	17810	138142	27282	970974	39195	106965	0	0	8299	622771	0	0
2024-05-12 16:31:32			0	36819	0	0	0	19085	17800	138190	27202	970966	39195	106963	0	0	8300	621863	0	0
2024-05-12 16:32:32			0	36822	0	0	0	19093	17800	138130	27665	970966	39195	106966	0	0	8300	621734	0	0
2024-05-12 16:33:32			0	36834	0	0	0	19088	17810	138074	27493	970895	39184	106964	0	0	8301	621187	0	0
2024-05-12 16:34:32			0	36839	0	0	0	19075	17800	138018	27512	970905	39183	106959	0	0	8301	621007	0	0
2024-05-12 16:35:32			0	36820	0	0	0	19070	17790	138070	27232	970835	39171	106957	0	0	8300	621854	0	0
2024-05-12 16:36:32			0	36829	0	0	0	19075	17780	137978	27625	970827	39182	106959	0	0	8301	621502	0	0
2024-05-12 16:37:32			0	36847	0	0	0	19067	17780	137970	27197	970827	39193	106956	0	0	8302	620732	0	0
2024-05-12 16:38:32			0	36850	0	0	0	19023	17770	138018	27616	970670	39181	106939	0	0	8303	620638	0	0
2024-05-12 16:39:32			0	36857	0	0	0	19002	17760	137974	27312	970601	39191	106931	0	0	8303	620373	0	0
2024-05-12 16:40:32			0	36850	0	0	0	19002	17750	137886	27840	970663	39179	106931	0	0	8303	620706	0	0
2024-05-12 16:41:32			0	36857	0	0	0	19007	17730	137918	27471	970533	39189	106933	0	0	8303	620474	0	0
2024-05-12 16:42:32			0	36865	0	0	0	19015	17720	137878	27703	970622	39199	106936	0	0	8303	620166	0	0
2024-05-12 16:43:32			0	36899	0	0	0	19018	17720	137774	27255	970595	39176	106937	0	0	8305	618714	0	0
2024-05-12 16:44:32			0	36898	0	0	0	19023	17710	137810	27599	970632	39187	106939	0	0	8305	618791	0	0
2024-05-12 16:45:32			0	36904	0	0	0	19007	17720	137802	27306	970587	39198	106933	0	0	8306	618501	0	0
2024-05-12 16:46:32			0	36930	0	0	0	19015	17720	137766	27431	970561	39187	106936	0	0	8307	617393	0	0
2024-05-12 16:47:32			0	36940	0	0	0	18999	17710	137730	27509	970526	39176	106930	0	0	8308	617001	0	0
2024-05-12 16:48:32			0	36931	0	0	0	18999	17720	137682	27403	970534	39187	106930	0	0	8307	617350	0	0
2024-05-12 16:49:32			0	36962	0	0	0	18984	17710	137590	27635	970491	39175	106924	0	0	8309	616064	0	0
2024-05-12 16:50:32			0	36950	0	0	0	18976	17700	137586	27400	970483	39175	106921	0	0	8309	616608	0	0
2024-05-12 16:51:32			0	36968	0	0	0	18979	17700	137606	27488	970554	39185	106922	0	0	8309	615843	0	0
2024-05-12 16:52:32			0	36967	0	0	0	18976	17690	137562	27441	970493	39174	106921	0	0	8309	615919	0	0
2024-05-12 16:53:32			0	36987	0	0	0	18992	17680	137502	27438	970503	39184	106927	0	0	8310	615102	0	0
2024-05-12 16:54:32			0	37003	0	0	0	18989	17690	137386	27419	970599	39164	106926	0	0	8311	614389	0	0
2024-05-12 16:55:32			0	37002	0	0	0	18987	17700	137458	27654	970510	39186	106925	0	0	8311	614398	0	0
2024-05-12 16:56:32			0	37019	0	0	0	18992	17680	137382	27512	970476	39173	106927	0	0	8312	613743	0	0
2024-05-12 16:57:32			0	37015	0	0	0	19005	17700	137386	27452	970501	39196	106932	0	0	8311	613846	0	0
2024-05-12 16:58:32			0	37044	0	0	0	18997	17690	137374	27542	970546	39196	106929	0	0	8313	612649	0	0
2024-05-12 16:59:32			0	37059	0	0	0	19005	17690	137322	27381	970546	39185	106932	0	0	8314	612014	0	0
2024-05-12 17:00:32			0	37043	0	0	0	19010	17690	137278	27722	970538	39184	106934	0	0	8313	612692	0	0
2024-05-12 17:01:32			0	37058	0	0	0	19002	17690	137266	27583	970538	39173	106931	0	0	8314	612056	0	0
2024-05-12 17:02:32			0	37083	0	0	0	19010	17700	137166	27303	970581	39185	106934	0	0	8315	610965	0	0
2024-05-12 17:03:32			0	37090	0	0	0	19010	17690	137242	27320	970520	39196	106934	0	0	8315	610702	0	0
2024-05-12 17:04:32			0	37092	0	0	0	19018	17700	137094	27694	970562	39186	106937	0	0	8315	610584	0	0
2024-05-12 17:05:32			0	37109	0	0	0	19012	17690	137082	27455	970511	39173	106935	0	0	8316	609899	0	0
2024-05-12 17:06:32			0	37117	0	0	0	19015	17700	137142	27362	970536	39186	106936	0	0	8317	609528	0	0
2024-05-12 17:07:32			0	37127	0	0	0	19018	17700	137074	27783	970562	39186	106937	0	0	8317	609105	0	0
2024-05-12 17:08:32			0	37128	0	0	0	19020	17710	137118	27381	970624	39186	106938	0	0	8317	609030	0	0
2024-05-12 17:09:32			0	37140	0	0	0	19020	17710	137010	27665	970624	39186	106938	0	0	8318	608524	0	0
2024-05-12 17:10:32			0	37140	0	0	0	19007	17710	136994	27507	970571	39186	106933	0	0	8318	608524	0	0
2024-05-12 17:11:32			0	37170	0	0	0	19020	17700	136934	27708	970554	39174	106938	0	0	8319	607292	0	0
2024-05-12 17:12:32			0	37165	0	0	0	19012	17710	136886	27547	970571	39175	106935	0	0	8319	607469	0	0
2024-05-12 17:13:32			0	37162	0	0	0	19028	17700	136938	27293	970528	39185	106941	0	0	8319	607629	0	0
2024-05-12 17:14:32			0	37186	0	0	0	19033	17700	136826	27355	970554	39185	106943	0	0	8320	606618	0	0
2024-05-12 17:15:32			0	37186	0	0	0	19031	17690	136858	27256	970591	39184	106942	0	0	8320	606651	0	0
2024-05-12 17:16:32			0	37192	0	0	0	19031	17690	136850	27466	970546	39196	106942	0	0	8320	606398	0	0
2024-05-12 17:17:32			0	37205	0	0	0	19041	17700	136746	27443	970634	39185	106946	0	0	8321	605818	0	0
2024-05-12 17:18:32			0	37202	0	0	0	19046	17690	136742	27407	970493	39185	106948	0	0	8321	605978	0	0
2024-05-12 17:19:32			0	37218	0	0	0	19033	17700	136670	27587	970554	39185	106943	0	0	8322	605272	0	0
2024-05-12 17:20:32			0	37208	0	0	0	19046	17700	136642	27523	970642	39197	106948	0	0	8321	605692	0	0
2024-05-12 17:21:32			0	37244	0	0	0	19033	17700	136706	27286	970660	39207	106943	0	0	8323	604179	0	0
2024-05-12 17:22:32			0	37244	0	0	0	19041	17700	136674	27261	970536	39197	106946	0	0	8323	604179	0	0
2024-05-12 17:23:32			0	37258	0	0	0	19044	17710	136546	27528	970571	39197	106947	0	0	8324	603559	0	0
2024-05-12 17:24:32			0	37244	0	0	0	19041	17700	136662	27658	970607	39196	106946	0	0	8323	604179	0	0
2024-05-12 17:25:32			0	37263	0	0	0	19044	17700	136554	27320	970634	39185	106947	0	0	8324	603382	0	0
2024-05-12 17:26:32			0	37236	0	0	0	19054	17710	136602	27705	970658	39198	106951	0	0	8322	604482	0	0
2024-05-12 17:27:32			0	37263	0	0	0	19062	17720	136542	27343	970701	39209	106954	0	0	8324	603316	0	0
2024-05-12 17:28:32			0	37249	0	0	0	19072	17730	136550	27422	970736	39200	106958	0	0	8323	603871	0	0
2024-05-12 17:29:32			0	37256	0	0	0	19083	17720	136502	27242	970780	39199	106962	0	0	8323	603610	0	0
2024-05-12 17:30:32			0	37261	0	0	0	19098	17750	136590	27481	970848	39190	106968	0	0	8323	603301	0	0
2024-05-12 17:31:32			0	37270	0	0	0	19116	17750	136494	27435	970822	39212	106975	0	0	8323	602924	0	0
2024-05-12 17:32:32			0	37269	0	0	0	19124	17760	136454	27507	970891	39212	106978	0	0	8323	602933	0	0
2024-05-12 17:33:32			0	37280	0	0	0	19132	17760	136510	27670	970918	39202	106981	0	0	8324	602472	0	0
2024-05-12 17:34:32			0	37281	0	0	0	19135	17760	136558	27251	970918	39191	106982	0	0	8324	602430	0	0
2024-05-12 17:35:32			0	37274	0	0	0	19142	17780	136494	27684	970986	39204	106985	0	0	8323	602658	0	0
2024-05-12 17:36:32			0	37256	0	0	0	19153	17770	136466	27334	970961	39224	106989	0	0	8322	603445	0	0
2024-05-12 17:37:32			0	37274	0	0	0	19158	17790	136482	27523	970941	39226	106991	0	0	8323	602625	0	0
2024-05-12 17:38:32			0	37281	0	0	0	19145	17800	136418	27687	971010	39216	106986	0	0	8324	602299	0	0
2024-05-12 17:39:32			0	37259	0	0	0	19153	17790	136438	27403	971081	39215	106989	0	0	8322	603254	0	0
2024-05-12 17:40:32			0	37281	0	0	0	19161	17800	136366	27289	971098	39216	106992	0	0	8323	602299	0	0
2024-05-12 17:41:32			0	37278	0	0	0	19176	17810	136454	27464	971159	39217	106998	0	0	8323	602392	0	0
2024-05-12 17:42:32			0	37286	0	0	0	19184	17830	136498	27279	971280	39208	107001	0	0	8323	601991	0	0
2024-05-12 17:43:32			0	37292	0	0	0	19231	17840	136450	27602	971367	39219	107019	0	0	8323	601707	0	0
2024-05-12 17:44:32			0	37303	0	0	0	19257	17860	136402	27473	971462	39233	107029	0	0	8323	601181	0	0
2024-05-12 17:45:32			0	37296	0	0	0	19314	17890	136294	27500	971609	39247	107051	0	0	8322	601376	0	0
2024-05-12 17:46:32			0	37322	0	0	0	19350	17900	136402	27528	971713	39225	107065	0	0	8323	600256	0	0
2024-05-12 17:47:32			0	37293	0	0	0	19368	17930	136326	27410	971780	39239	107072	0	0	8321	601370	0	0
2024-05-12 17:48:32			0	37299	0	0	0	19423	17950	136346	27497	971752	39261	107093	0	0	8320	601053	0	0
2024-05-12 17:49:32			0	37293	0	0	0	19438	17970	136410	27573	971944	39252	107099	0	0	8320	601239	0	0
2024-05-12 17:50:32			0	37293	0	0	0	19405	17980	136418	27291	971969	39244	107086	0	0	8321	601206	0	0
2024-05-12 17:51:32			0	37290	0	0	0	19340	18000	136310	27557	971994	39245	107061	0	0	8322	601266	0	0
2024-05-12 17:52:32			0	37303	0	0	0	19358	18000	136330	27601	971976	39246	107068	0	0	8322	600722	0	0
2024-05-12 17:53:32			0	37285	0	0	0	19353	18010	136306	27341	972071	39246	107066	0	0	8321	601442	0	0
2024-05-12 17:54:32			0	37305	0	0	0	19368	18020	136278	27372	972062	39258	107072	0	0	8322	600573	0	0
2024-05-12 17:55:32			0	37303	0	0	0	19381	18030	136206	27329	972070	39248	107077	0	0	8322	600624	0	0
2024-05-12 17:56:32			0	37302	0	0	0	19410	18040	136302	26975	972060	39249	107088	0	0	8321	600633	0	0
2024-05-12 17:57:32			0	37306	0	0	0	19410	18040	136190	27208	972068	39238	107088	0	0	8321	600466	0	0
2024-05-12 17:58:32			0	37314	0	0	0	19410	18040	136158	27589	972007	39237	107088	0	0	8322	600132	0	0
2024-05-12 17:59:32			0	37300	0	0	0	19397	18040	136146	27242	972015	39250	107083	0	0	8321	600717	0	0
2024-05-12 18:00:32			0	37328	0	0	0	19397	18030	136135	27694	971946	39237	107083	0	0	8323	599580	0	0
2024-05-12 18:01:32			0	37316	0	0	0	19379	18030	136035	27306	971885	39237	107076	0	0	8322	600081	0	0
2024-05-12 18:02:32			0	37325	0	0	0	19374	18020	136055	27279	971850	39225	107074	0	0	8323	599738	0	0
2024-05-12 18:03:32			0	37348	0	0	0	19361	18010	136123	27620	971807	39235	107069	0	0	8324	598810	0	0
2024-05-12 18:04:32			0	37312	0	0	0	19342	18000	136158	27492	971738	39235	107062	0	0	8323	600346	0	0
2024-05-12 18:05:32			0	37341	0	0	0	19316	18000	136047	27391	971738	39235	107052	0	0	8325	599135	0	0
2024-05-12 18:06:32			0	37349	0	0	0	19290	17990	135999	27530	971721	39222	107042	0	0	8326	598834	0	0
2024-05-12 18:07:32			0	37350	0	0	0	19275	17980	136143	27206	971599	39210	107036	0	0	8326	598825	0	0
2024-05-12 18:08:32			0	37342	0	0	0	19262	17970	136055	27211	971582	39231	107031	0	0	8326	599191	0	0
2024-05-12 18:09:32			0	37364	0	0	0	19251	17960	135995	27296	971557	39219	107027	0	0	8327	598306	0	0
2024-05-12 18:10:32			0	37379	0	0	0	19236	17960	136067	27511	971513	39219	107021	0	0	8328	597681	0	0
2024-05-12 18:11:32			0	37385	0	0	0	19215	17950	135975	27381	971435	39218	107013	0	0	8329	597463	0	0
2024-05-12 18:12:32			0	37365	0	0	0	19186	17930	136039	27022	971296	39216	107002	0	0	8328	598362	0	0
2024-05-12 18:13:32			0	37381	0	0	0	19168	17910	135983	27466	971271	39215	106995	0	0	8329	597760	0	0
2024-05-12 18:14:32			0	37376	0	0	0	19155	17900	135911	27585	971229	39225	106990	0	0	8329	598001	0	0
2024-05-12 18:15:32			0	37388	0	0	0	19153	17880	136019	27345	971177	39213	106989	0	0	8329	597566	0	0
2024-05-12 18:16:32			0	37399	0	0	0	19142	17860	135943	27329	971091	39211	106985	0	0	8330	597173	0	0
2024-05-12 18:17:32			0	37406	0	0	0	19124	17850	135951	27431	971048	39210	106978	0	0	8331	596914	0	0
2024-05-12 18:18:32			0	37417	0	0	0	19116	17850	135891	27819	971066	39209	106975	0	0	8331	596456	0	0
2024-05-12 18:19:32			0	37411	0	0	0	19098	17830	135871	27500	970980	39219	106968	0	0	8331	596771	0	0
2024-05-12 18:20:32			0	37405	0	0	0	19098	17820	135879	27511	971078	39230	106968	0	0	8331	597053	0	0
2024-05-12 18:21:32			0	37430	0	0	0	19111	17830	135927	27403	971147	39230	106973	0	0	8332	595980	0	0
2024-05-12 18:22:32			0	37417	0	0	0	19140	17840	135923	27274	971208	39219	106984	0	0	8331	596489	0	0
2024-05-12 18:23:32			0	37431	0	0	0	19199	17850	135923	27493	971199	39209	107007	0	0	8331	595874	0	0
2024-05-12 18:24:32			0	37402	0	0	0	19210	17840	135887	27668	971156	39219	107011	0	0	8329	597113	0	0
2024-05-12 18:25:32			0	37401	0	0	0	19202	17840	135851	27711	971190	39220	107008	0	0	8329	597155	0	0
2024-05-12 18:26:32			0	37414	0	0	0	19176	17840	135899	27393	971111	39209	106998	0	0	8330	596613	0	0
2024-05-12 18:27:32			0	37446	0	0	0	19106	17820	135947	27450	970999	39219	106971	0	0	8333	595347	0	0
2024-05-12 18:28:32			0	37437	0	0	0	19075	17810	135895	27486	970895	39207	106959	0	0	8333	595754	0	0
2024-05-12 18:29:32			0	37421	0	0	0	19072	17800	135895	27196	970878	39195	106958	0	0	8332	596452	0	0
2024-05-12 18:30:32			0	37419	0	0	0	19064	17790	135875	27346	970843	39183	106955	0	0	8332	596568	0	0
2024-05-12 18:31:32			0	37439	0	0	0	19062	17780	135855	27265	970827	39204	106954	0	0	8333	595768	0	0
2024-05-12 18:32:32			0	37440	0	0	0	19046	17770	135799	27504	970749	39203	106948	0	0	8334	595759	0	0
2024-05-12 18:33:32			0	37446	0	0	0	19038	17760	135755	27263	970706	39191	106945	0	0	8334	595542	0	0
2024-05-12 18:34:32			0	37459	0	0	0	19031	17760	135823	27275	970654	39202	106942	0	0	8335	595001	0	0
2024-05-12 18:35:32			0	37451	0	0	0	19005	17740	135851	27521	970568	39200	106932	0	0	8335	595399	0	0
2024-05-12 18:36:32			0	37447	0	0	0	18994	17730	135727	27170	970559	39200	106928	0	0	8335	595598	0	0
2024-05-12 18:37:32			0	37456	0	0	0	18987	17710	135795	27353	970526	39198	106925	0	0	8335	595288	0	0
2024-05-12 18:38:32			0	37461	0	0	0	18976	17710	135799	27538	970544	39197	106921	0	0	8336	595080	0	0
2024-05-12 18:39:32			0	37466	0	0	0	18971	17700	135759	27505	970457	39197	106919	0	0	8336	594905	0	0
2024-05-12 18:40:32			0	37460	0	0	0	18974	17690	135851	27517	970520	39196	106920	0	0	8336	595187	0	0
2024-05-12 18:41:32			0	37477	0	0	0	18961	17680	135663	27505	970318	39195	106915	0	0	8337	594512	0	0
2024-05-12 18:42:32			0	37483	0	0	0	18950	17670	135671	27450	970372	39194	106911	0	0	8337	594295	0	0
2024-05-12 18:43:32			0	37498	0	0	0	18953	17670	135895	27784	970293	39171	106912	0	0	8338	593672	0	0
2024-05-12 18:44:32			0	37502	0	0	0	18942	17660	135791	27604	970277	39193	106908	0	0	8338	593539	0	0
2024-05-12 18:45:32			0	37485	0	0	0	18950	17650	135775	27642	970234	39192	106911	0	0	8337	594277	0	0
2024-05-12 18:46:32			0	37489	0	0	0	18942	17640	135771	27402	970217	39191	106908	0	0	8337	594143	0	0
2024-05-12 18:47:32			0	37499	0	0	0	18945	17630	135743	27388	970235	39190	106909	0	0	8338	593760	0	0
2024-05-12 18:48:32			0	37494	0	0	0	18940	17620	135803	27628	970219	39189	106907	0	0	8338	594000	0	0
2024-05-12 18:49:32			0	37494	0	0	0	18940	17640	135795	27384	970217	39202	106907	0	0	8338	593936	0	0
2024-05-12 18:50:32			0	37520	0	0	0	18945	17630	135767	27530	970174	39212	106909	0	0	8339	592889	0	0
2024-05-12 18:51:32			0	37512	0	0	0	18945	17630	135743	27685	970227	39190	106909	0	0	8338	593221	0	0
2024-05-12 18:52:32			0	37518	0	0	0	18958	17630	135779	27866	970333	39190	106914	0	0	8339	592972	0	0
2024-05-12 18:53:32			0	37510	0	0	0	18963	17630	135763	27403	970306	39179	106916	0	0	8338	593304	0	0
2024-05-12 18:54:32			0	37501	0	0	0	18979	17640	135779	27440	970349	39180	106922	0	0	8337	593645	0	0
2024-05-12 18:55:32			0	37509	0	0	0	18994	17640	135815	27447	970323	39202	106928	0	0	8338	593313	0	0
2024-05-12 18:56:32			0	37529	0	0	0	19005	17630	135827	27585	970359	39212	106932	0	0	8338	592516	0	0
2024-05-12 18:57:32			0	37523	0	0	0	19020	17640	135779	27642	970437	39213	106938	0	0	8338	592732	0	0
2024-05-12 18:58:32			0	37506	0	0	0	19036	17650	135723	27838	970419	39213	106944	0	0	8337	593405	0	0
2024-05-12 18:59:32			0	37531	0	0	0	19046	17650	135683	27448	970480	39203	106948	0	0	8338	592368	0	0
2024-05-12 19:00:32			0	37493	0	0	0	19054	17660	135687	27578	970470	39215	106951	0	0	8336	593912	0	0
2024-05-12 19:01:32			0	37509	0	0	0	19049	17660	135703	27310	970541	39204	106949	0	0	8337	593248	0	0
2024-05-12 19:02:32			0	37514	0	0	0	19054	17670	135755	27421	970478	39205	106951	0	0	8337	593009	0	0
2024-05-12 19:03:32			0	37528	0	0	0	19046	17660	135703	27164	970496	39205	106948	0	0	8338	592460	0	0
2024-05-12 19:04:32			0	37528	0	0	0	19041	17670	135723	27666	970531	39194	106946	0	0	8338	592428	0	0
2024-05-12 19:05:32			0	37520	0	0	0	19036	17660	135739	27270	970470	39194	106944	0	0	8337	592792	0	0
2024-05-12 19:06:32			0	37526	0	0	0	19033	17660	135771	27732	970496	39205	106943	0	0	8338	592543	0	0
2024-05-12 19:07:32			0	37523	0	0	0	19028	17660	135775	27684	970435	39204	106941	0	0	8338	592668	0	0
2024-05-12 19:08:32			0	37517	0	0	0	19033	17640	135675	27562	970410	39203	106943	0	0	8337	592981	0	0
2024-05-12 19:09:32			0	37528	0	0	0	19036	17660	135771	27379	970470	39215	106944	0	0	8338	592460	0	0
2024-05-12 19:10:32			0	37515	0	0	0	19038	17670	135651	27757	970478	39205	106945	0	0	8337	592967	0	0
2024-05-12 19:11:32			0	37537	0	0	0	19041	17660	135679	27469	970496	39194	106946	0	0	8338	592087	0	0
2024-05-12 19:12:32			0	37546	0	0	0	19044	17660	135623	27547	970496	39205	106947	0	0	8339	591714	0	0
2024-05-12 19:13:32			0	37533	0	0	0	19049	17660	135619	27454	970470	39215	106949	0	0	8338	592253	0	0
2024-05-12 19:14:32			0	37534	0	0	0	19051	17670	135583	27521	970504	39194	106950	0	0	8338	592179	0	0
2024-05-12 19:15:32			0	37551	0	0	0	19051	17660	135619	27639	970496	39194	106950	0	0	8339	591507	0	0
2024-05-12 19:16:32			0	37553	0	0	0	19046	17670	135651	27628	970478	39194	106948	0	0	8339	591392	0	0
2024-05-12 19:17:32			0	37551	0	0	0	19046	17670	135583	27448	970513	39194	106948	0	0	8339	591475	0	0
2024-05-12 19:18:32			0	37550	0	0	0	19044	17660	135647	27616	970496	39205	106947	0	0	8339	591549	0	0
2024-05-12 19:19:32			0	37555	0	0	0	19041	17670	135679	27440	970513	39205	106946	0	0	8339	591309	0	0
2024-05-12 19:20:32			0	37558	0	0	0	19036	17660	135683	27751	970514	39204	106944	0	0	8340	591217	0	0
2024-05-12 19:21:32			0	37564	0	0	0	19025	17660	135651	27452	970470	39205	106940	0	0	8340	590969	0	0
2024-05-12 19:22:32			0	37566	0	0	0	19031	17660	135631	27246	970443	39215	106942	0	0	8340	590886	0	0
2024-05-12 19:23:32			0	37572	0	0	0	19046	17670	135599	27718	970584	39215	106948	0	0	8340	590606	0	0
2024-05-12 19:24:32			0	37568	0	0	0	19062	17670	135567	27478	970618	39226	106954	0	0	8340	590771	0	0
2024-05-12 19:25:32			0	37574	0	0	0	19062	17700	135559	27609	970739	39218	106954	0	0	8340	590426	0	0
2024-05-12 19:26:32			0	37570	0	0	0	19075	17700	135547	27488	970853	39241	106959	0	0	8340	590592	0	0
2024-05-12 19:27:32			0	37567	0	0	0	19098	17740	135531	27371	970938	39221	106968	0	0	8339	590587	0	0
2024-05-12 19:28:32			0	37583	0	0	0	19148	17750	135511	27537	971068	39234	106987	0	0	8339	589894	0	0
2024-05-12 19:29:32			0	37572	0	0	0	19228	17780	135471	27441	971118	39237	107018	0	0	8337	590252	0	0
2024-05-12 19:30:32			0	37570	0	0	0	19290	17800	135523	27239	971301	39249	107042	0	0	8336	590270	0	0
2024-05-12 19:31:32			0	37594	0	0	0	19335	17830	135487	27454	971491	39263	107059	0	0	8337	589182	0	0
2024-05-12 19:32:32			0	37559	0	0	0	19363	17860	135519	27562	971665	39254	107070	0	0	8335	590532	0	0
2024-05-12 19:33:32			0	37569	0	0	0	19441	17890	135595	27365	971820	39268	107100	0	0	8334	590022	0	0
2024-05-12 19:34:32			0	37563	0	0	0	19493	17930	135579	27632	972018	39260	107120	0	0	8333	590142	0	0
2024-05-12 19:35:32			0	37558	0	0	0	19566	17960	135567	27402	972121	39274	107148	0	0	8332	590252	0	0
2024-05-12 19:36:32			0	37550	0	0	0	19612	17990	135547	27582	972303	39288	107166	0	0	8331	590486	0	0
2024-05-12 19:37:32			0	37541	0	0	0	19654	18020	135587	27310	972344	39279	107182	0	0	8330	590761	0	0
2024-05-12 19:38:32			0	37539	0	0	0	19670	18060	135583	27627	972542	39283	107188	0	0	8329	590715	0	0
2024-05-12 19:39:32			0	37514	0	0	0	19693	18080	135615	27369	972628	39273	107197	0	0	8328	591685	0	0
2024-05-12 19:40:32			0	37530	0	0	0	19693	18120	135671	27343	972721	39288	107197	0	0	8329	590894	0	0
2024-05-12 19:41:32			0	37527	0	0	0	19703	18120	135519	27464	972835	39289	107201	0	0	8328	591018	0	0
2024-05-12 19:42:32			0	37520	0	0	0	19703	18150	135555	27416	972797	39291	107201	0	0	8328	591211	0	0
2024-05-12 19:43:32			0	37525	0	0	0	19701	18160	135535	27698	972901	39303	107200	0	0	8329	590972	0	0
2024-05-12 19:44:32			0	37517	0	0	0	19701	18180	135399	27802	972926	39293	107200	0	0	8328	591238	0	0
2024-05-12 19:45:32			0	37508	0	0	0	19711	18190	135435	27710	973004	39285	107204	0	0	8328	591578	0	0
2024-05-12 19:46:32			0	37512	0	0	0	19729	18210	135459	27481	973135	39318	107211	0	0	8328	591348	0	0
2024-05-12 19:47:32			0	37505	0	0	0	19732	18240	135495	27424	973158	39310	107212	0	0	8327	591541	0	0
2024-05-12 19:48:32			0	37530	0	0	0	19722	18250	135435	27384	973140	39299	107208	0	0	8329	590475	0	0
2024-05-12 19:49:32			0	37507	0	0	0	19716	18270	135463	27504	973120	39291	107206	0	0	8328	591361	0	0
2024-05-12 19:50:32			0	37522	0	0	0	19711	18280	135459	27485	973163	39291	107204	0	0	8329	590709	0	0
2024-05-12 19:51:32			0	37516	0	0	0	19677	18290	135335	27282	973074	39303	107191	0	0	8329	590924	0	0
2024-05-12 19:52:32			0	37501	0	0	0	19631	18270	135371	27364	973022	39280	107173	0	0	8329	591609	0	0
2024-05-12 19:53:32			0	37520	0	0	0	19607	18270	135319	27376	972988	39291	107164	0	0	8330	590824	0	0
2024-05-12 19:54:32			0	37524	0	0	0	19605	18270	135279	27597	972970	39280	107163	0	0	8331	590658	0	0
2024-05-12 19:55:32			0	37515	0	0	0	19579	18260	135291	27580	972874	39301	107153	0	0	8331	591063	0	0
2024-05-12 19:56:32			0	37527	0	0	0	19548	18250	135267	27296	972770	39245	107141	0	0	8332	590599	0	0
2024-05-12 19:57:32			0	37534	0	0	0	19509	18230	135219	27329	972613	39276	107126	0	0	8333	590374	0	0
2024-05-12 19:58:32			0	37535	0	0	0	19464	18210	135263	27088	972420	39252	107109	0	0	8333	590397	0	0
2024-05-12 19:59:32			0	37540	0	0	0	19415	18170	135135	27280	972222	39238	107090	0	0	8334	590319	0	0
2024-05-12 20:00:32			0	37546	0	0	0	19358	18130	135187	27175	971997	39213	107068	0	0	8335	590200	0	0
2024-05-12 20:01:32			0	37539	0	0	0	19316	18100	135267	27495	971876	39232	107052	0	0	8336	590586	0	0
2024-05-12 20:02:32			0	37555	0	0	0	19267	18060	135171	27391	971625	39218	107033	0	0	8337	590054	0	0
2024-05-12 20:03:32			0	37560	0	0	0	19231	18030	135303	27692	971462	39204	107019	0	0	8338	589944	0	0
2024-05-12 20:04:32			0	37565	0	0	0	19197	17990	135203	27026	971351	39201	107006	0	0	8339	589866	0	0
2024-05-12 20:05:32			0	37583	0	0	0	19168	17970	135287	27315	971265	39220	106995	0	0	8340	589187	0	0
2024-05-12 20:06:32			0	37576	0	0	0	19148	17940	135243	27815	971128	39207	106987	0	0	8340	589572	0	0
2024-05-12 20:07:32			0	37566	0	0	0	19119	17910	135211	27609	971086	39205	106976	0	0	8340	590082	0	0
2024-05-12 20:08:32			0	37579	0	0	0	19098	17880	135215	27608	970992	39213	106968	0	0	8340	589641	0	0
2024-05-12 20:09:32			0	37571	0	0	0	19085	17850	135223	27333	970969	39221	106963	0	0	8340	590068	0	0
2024-05-12 20:10:32			0	37578	0	0	0	19070	17830	135343	27443	970875	39208	106957	0	0	8341	589843	0	0
2024-05-12 20:11:32			0	37586	0	0	0	19059	17810	135287	27346	970850	39217	106953	0	0	8341	589577	0	0
2024-05-12 20:12:32			0	37583	0	0	0	19049	17800	135267	27412	970720	39206	106949	0	0	8341	589733	0	0
2024-05-12 20:13:32			0	37587	0	0	0	19041	17780	135275	27583	970739	39193	106946	0	0	8341	589632	0	0
2024-05-12 20:14:32			0	37568	0	0	0	19012	17750	135347	27410	970540	39201	106935	0	0	8341	590514	0	0
2024-05-12 20:15:32			0	37571	0	0	0	18999	17750	135299	27010	970611	39179	106930	0	0	8341	590390	0	0
2024-05-12 20:16:32			0	37587	0	0	0	18992	17720	135399	27332	970508	39208	106927	0	0	8342	589825	0	0
2024-05-12 20:17:32			0	37583	0	0	0	18976	17710	135347	27770	970359	39197	106921	0	0	8342	590022	0	0
2024-05-12 20:18:32			0	37583	0	0	0	18974	17690	135411	27322	970387	39196	106920	0	0	8342	590086	0	0
2024-05-12 20:19:32			0	37589	0	0	0	18974	17680	135407	27402	970423	39207	106920	0	0	8342	589871	0	0
2024-05-12 20:20:32			0	37591	0	0	0	18966	17670	135451	27346	970267	39205	106917	0	0	8342	589820	0	0
2024-05-12 20:21:32			0	37591	0	0	0	18961	17670	135475	27452	970267	39183	106915	0	0	8343	589820	0	0
2024-05-12 20:22:32			0	37579	0	0	0	18958	17650	135471	27564	970286	39192	106914	0	0	8342	590381	0	0
2024-05-12 20:23:32			0	37587	0	0	0	18955	17640	135507	27575	970199	39192	106913	0	0	8342	590082	0	0
2024-05-12 20:24:32			0	37582	0	0	0	18950	17620	135327	27497	970140	39189	106911	0	0	8342	590353	0	0
2024-05-12 20:25:32			0	37598	0	0	0	18945	17610	135387	27402	970105	39200	106909	0	0	8343	589723	0	0
2024-05-12 20:26:32			0	37595	0	0	0	18948	17610	135387	27409	970184	39200	106910	0	0	8343	589847	0	0
2024-05-12 20:27:32			0	37590	0	0	0	18937	17600	135443	27561	970053	39176	106906	0	0	8343	590086	0	0
2024-05-12 20:28:32			0	37594	0	0	0	18929	17590	135387	27521	970098	39188	106903	0	0	8343	589953	0	0
2024-05-12 20:29:32			0	37596	0	0	0	18932	17590	135439	27353	970045	39199	106904	0	0	8343	589870	0	0
2024-05-12 20:30:32			0	37618	0	0	0	18924	17580	135443	27500	969994	39186	106901	0	0	8344	588993	0	0
2024-05-12 20:31:32			0	37595	0	0	0	18919	17570	135447	27357	970057	39196	106899	0	0	8343	589976	0	0
2024-05-12 20:32:32			0	37603	0	0	0	18916	17570	135427	27287	970039	39197	106898	0	0	8344	589645	0	0
2024-05-12 20:33:32			0	37591	0	0	0	18909	17560	135443	27393	969961	39207	106895	0	0	8343	590173	0	0
2024-05-12 20:34:32			0	37597	0	0	0	18906	17560	135499	27149	969935	39195	106894	0	0	8343	589925	0	0
2024-05-12 20:35:32			0	37596	0	0	0	18893	17550	135387	27524	969953	39184	106889	0	0	8343	589999	0	0
2024-05-12 20:36:32			0	37608	0	0	0	18909	17550	135427	27253	969892	39183	106895	0	0	8344	589502	0	0
2024-05-12 20:37:32			0	37630	0	0	0	18906	17550	135491	27192	969918	39172	106894	0	0	8345	588593	0	0
2024-05-12 20:38:32			0	37609	0	0	0	18898	17540	135475	27362	969902	39193	106891	0	0	8344	589493	0	0
2024-05-12 20:39:32			0	37619	0	0	0	18898	17520	135427	27689	969895	39191	106891	0	0	8344	589144	0	0
2024-05-12 20:40:32			0	37620	0	0	0	18898	17530	135447	27407	969885	39193	106891	0	0	8345	589071	0	0
2024-05-12 20:41:32			0	37608	0	0	0	18890	17520	135391	27620	969877	39203	106888	0	0	8344	589599	0	0
2024-05-12 20:42:32			0	37630	0	0	0	18883	17510	135367	27267	969860	39191	106885	0	0	8345	588722	0	0
2024-05-12 20:43:32			0	37625	0	0	0	18883	17510	135455	27119	969834	39191	106885	0	0	8345	588928	0	0
2024-05-12 20:44:32			0	37622	0	0	0	18880	17510	135423	27504	969808	39180	106884	0	0	8345	589052	0	0
2024-05-12 20:45:32			0	37621	0	0	0	18880	17510	135415	27471	969808	39191	106884	0	0	8345	589093	0	0
2024-05-12 20:46:32			0	37623	0	0	0	18888	17510	135391	27156	969860	39202	106887	0	0	8345	589011	0	0
2024-05-12 20:47:32			0	37632	0	0	0	18880	17500	135427	27409	969765	39201	106884	0	0	8345	588671	0	0
2024-05-12 20:48:32			0	37636	0	0	0	18885	17500	135431	27320	969791	39190	106886	0	0	8346	588506	0	0
2024-05-12 20:49:32			0	37627	0	0	0	18880	17500	135371	27512	969817	39168	106884	0	0	8345	588878	0	0
2024-05-12 20:50:32			0	37613	0	0	0	18883	17500	135275	27424	969844	39190	106885	0	0	8344	589456	0	0
2024-05-12 20:51:32			0	37643	0	0	0	18883	17500	135315	27440	969791	39201	106885	0	0	8346	588217	0	0
2024-05-12 20:52:32			0	37634	0	0	0	18890	17510	135423	27646	969826	39202	106888	0	0	8345	588556	0	0
2024-05-12 20:53:32			0	37650	0	0	0	18888	17500	135367	27306	969870	39201	106887	0	0	8346	587928	0	0
2024-05-12 20:54:32			0	37678	0	0	0	18885	17510	135407	27327	969808	39202	106886	0	0	8348	586741	0	0
2024-05-12 20:55:32			0	37658	0	0	0	18890	17510	135263	27748	969826	39191	106888	0	0	8347	587566	0	0
2024-05-12 20:56:32			0	37656	0	0	0	18893	17500	135283	27434	969791	39179	106889	0	0	8346	587680	0	0
2024-05-12 20:57:32			0	37665	0	0	0	18888	17490	135323	27241	969801	39178	106887	0	0	8347	587341	0	0
2024-05-12 20:58:32			0	37670	0	0	0	18885	17500	135367	27428	969817	39190	106886	0	0	8347	587103	0	0
2024-05-12 20:59:32			0	37703	0	0	0	18893	17500	135199	27137	969756	39189	106889	0	0	8349	585744	0	0
2024-05-12 21:00:32			0	37700	0	0	0	18877	17490	135247	27274	969775	39189	106883	0	0	8349	585899	0	0
2024-05-12 21:01:32			0	37673	0	0	0	18883	17490	135331	27530	969775	39200	106885	0	0	8347	587011	0	0
2024-05-12 21:02:32			0	37704	0	0	0	18888	17490	135303	27493	969775	39189	106887	0	0	8349	585734	0	0
2024-05-12 21:03:32			0	37681	0	0	0	18883	17480	135203	27272	969784	39200	106885	0	0	8348	586713	0	0
2024-05-12 21:04:32			0	37700	0	0	0	18877	17490	135155	27289	969748	39189	106883	0	0	8349	585899	0	0
2024-05-12 21:05:32			0	37684	0	0	0	18883	17490	135239	27495	969766	39189	106885	0	0	8348	586558	0	0
2024-05-12 21:06:32			0	37683	0	0	0	18877	17490	135163	27445	969713	39200	106883	0	0	8348	586599	0	0
2024-05-12 21:07:32			0	37702	0	0	0	18883	17490	135139	27258	969766	39189	106885	0	0	8349	585817	0	0
2024-05-12 21:08:32			0	37681	0	0	0	18880	17490	135219	27152	969775	39200	106884	0	0	8348	586682	0	0
2024-05-12 21:09:32			0	37713	0	0	0	18880	17490	135095	27324	969801	39189	106884	0	0	8350	585364	0	0
2024-05-12 21:10:32			0	37701	0	0	0	18885	17490	135131	27374	969687	39200	106886	0	0	8349	585858	0	0
2024-05-12 21:11:32			0	37719	0	0	0	18888	17500	135039	27767	969783	39211	106887	0	0	8350	585085	0	0
2024-05-12 21:12:32			0	37737	0	0	0	18888	17490	135107	27220	969793	39200	106887	0	0	8351	584377	0	0
2024-05-12 21:13:32			0	37709	0	0	0	18885	17490	135071	27618	969775	39178	106886	0	0	8349	585528	0	0
2024-05-12 21:14:32			0	37735	0	0	0	18883	17500	135071	27144	969809	39200	106885	0	0	8351	584427	0	0
2024-05-12 21:15:32			0	37735	0	0	0	18893	17500	135063	27216	969756	39200	106889	0	0	8351	584427	0	0
2024-05-12 21:16:32			0	37718	0	0	0	18888	17490	135107	27561	969766	39189	106887	0	0	8350	585158	0	0
2024-05-12 21:17:32			0	37729	0	0	0	18877	17490	135155	27327	969775	39189	106883	0	0	8350	584706	0	0
2024-05-12 21:18:32			0	37745	0	0	0	18885	17480	135111	27483	969723	39188	106886	0	0	8351	584080	0	0
2024-05-12 21:19:32			0	37740	0	0	0	18883	17490	135019	27310	969793	39189	106885	0	0	8351	584253	0	0
2024-05-12 21:20:32			0	37739	0	0	0	18875	17490	134975	27239	969793	39200	106882	0	0	8351	584295	0	0
2024-05-12 21:21:32			0	37745	0	0	0	18883	17490	134927	27400	969740	39189	106885	0	0	8351	584048	0	0
2024-05-12 21:22:32			0	37755	0	0	0	18877	17480	134955	27447	969723	39188	106883	0	0	8352	583669	0	0
2024-05-12 21:23:32			0	37747	0	0	0	18880	17480	134987	27601	969758	39200	106884	0	0	8351	583997	0	0
2024-05-12 21:24:32			0	37764	0	0	0	18880	17490	134931	27093	969775	39178	106884	0	0	8352	583268	0	0
2024-05-12 21:25:32			0	37762	0	0	0	18883	17480	134835	27086	969784	39177	106885	0	0	8352	583381	0	0
2024-05-12 21:26:32			0	37758	0	0	0	18880	17490	134923	27319	969740	39178	106884	0	0	8352	583514	0	0
2024-05-12 21:27:32			0	37767	0	0	0	18888	17490	134895	27464	969819	39189	106887	0	0	8352	583144	0	0
2024-05-12 21:28:32			0	37773	0	0	0	18880	17490	134951	27121	969793	39200	106884	0	0	8353	582898	0	0
2024-05-12 21:29:32			0	37776	0	0	0	18872	17480	134927	27424	969784	39200	106881	0	0	8353	582807	0	0
2024-05-12 21:30:32			0	37780	0	0	0	18885	17490	134835	27291	969775	39200	106886	0	0	8353	582611	0	0
2024-05-12 21:31:32			0	37785	0	0	0	18880	17490	134871	27287	969713	39200	106884	0	0	8353	582406	0	0
2024-05-12 21:32:32			0	37772	0	0	0	18870	17480	134883	27371	969811	39200	106880	0	0	8353	582971	0	0
2024-05-12 21:33:32			0	37792	0	0	0	18885	17480	134827	27310	969784	39188	106886	0	0	8354	582150	0	0
2024-05-12 21:34:32			0	37794	0	0	0	18875	17480	134815	27374	969758	39200	106882	0	0	8354	582068	0	0
2024-05-12 21:35:32			0	37793	0	0	0	18877	17480	134835	27419	969705	39200	106883	0	0	8354	582109	0	0
2024-05-12 21:36:32			0	37782	0	0	0	18870	17490	134855	27293	969740	39200	106880	0	0	8353	582529	0	0
2024-05-12 21:37:32			0	37785	0	0	0	18867	17490	134867	27666	969740	39200	106879	0	0	8354	582406	0	0
2024-05-12 21:38:32			0	37797	0	0	0	18867	17480	134911	27284	969723	39188	106879	0	0	8354	581945	0	0
2024-05-12 21:39:32			0	37799	0	0	0	18870	17480	134811	27358	969758	39166	106880	0	0	8354	581863	0	0
2024-05-12 21:40:32			0	37807	0	0	0	18857	17480	134851	27405	969731	39177	106875	0	0	8355	581535	0	0
2024-05-12 21:41:32			0	37809	0	0	0	18851	17470	134763	27223	969636	39187	106873	0	0	8355	581485	0	0
2024-05-12 21:42:32			0	37807	0	0	0	18857	17480	134739	27566	969697	39199	106875	0	0	8355	581535	0	0
2024-05-12 21:43:32			0	37809	0	0	0	18859	17470	134863	27388	969733	39198	106876	0	0	8355	581485	0	0
2024-05-12 21:44:32			0	37821	0	0	0	18849	17470	134795	27433	969680	39198	106872	0	0	8356	580994	0	0
2024-05-12 21:45:32			0	37822	0	0	0	18851	17470	134691	27086	969688	39187	106873	0	0	8356	580953	0	0
2024-05-12 21:46:32			0	37817	0	0	0	18844	17470	134727	27462	969609	39175	106870	0	0	8356	581157	0	0
2024-05-12 21:47:32			0	37833	0	0	0	18836	17460	134707	27391	969593	39187	106867	0	0	8357	580534	0	0
2024-05-12 21:48:32			0	37845	0	0	0	18823	17460	134763	27288	969540	39187	106862	0	0	8357	580043	0	0
2024-05-12 21:49:32			0	37835	0	0	0	18823	17450	134667	27438	969550	39174	106862	0	0	8357	580484	0	0
2024-05-12 21:50:32			0	37843	0	0	0	18810	17440	134659	27223	969586	39185	106857	0	0	8357	580188	0	0
2024-05-12 21:51:32			0	37825	0	0	0	18805	17450	134759	27562	969541	39185	106855	0	0	8357	580893	0	0
2024-05-12 21:52:32			0	37852	0	0	0	18802	17440	134695	27445	969525	39206	106854	0	0	8358	579819	0	0
2024-05-12 21:53:32			0	37827	0	0	0	18797	17440	134719	27362	969499	39173	106852	0	0	8357	580843	0	0
2024-05-12 21:54:32			0	37846	0	0	0	18786	17430	134699	27412	969403	39172	106848	0	0	8358	580096	0	0
2024-05-12 21:55:32			0	37848	0	0	0	18784	17430	134731	27312	969456	39162	106847	0	0	8358	580015	0	0
2024-05-12 21:56:32			0	37861	0	0	0	18776	17420	134735	27289	969342	39172	106844	0	0	8359	579514	0	0
2024-05-12 21:57:32			0	37848	0	0	0	18774	17430	134779	27486	969403	39172	106843	0	0	8358	580015	0	0
2024-05-12 21:58:32			0	37846	0	0	0	18763	17410	134679	27523	969378	39170	106839	0	0	8358	580159	0	0
2024-05-12 21:59:32			0	37872	0	0	0	18768	17410	134727	27384	969370	39181	106841	0	0	8360	579096	0	0
2024-05-12 22:00:32			0	37850	0	0	0	18755	17410	134607	27239	969344	39169	106836	0	0	8359	579996	0	0
2024-05-12 22:01:32			0	37868	0	0	0	18750	17390	134735	27448	969345	39169	106834	0	0	8360	579323	0	0
2024-05-12 22:02:32			0	37878	0	0	0	18750	17390	134675	27524	969258	39179	106834	0	0	8360	578914	0	0
2024-05-12 22:03:32			0	37873	0	0	0	18748	17380	134627	27585	969302	39179	106833	0	0	8360	579150	0	0
2024-05-12 22:04:32			0	37852	0	0	0	18753	17370	134675	27493	969278	39166	106835	0	0	8359	580040	0	0
2024-05-12 22:05:32			0	37864	0	0	0	18750	17390	134619	27326	969258	39179	106834	0	0	8359	579486	0	0
2024-05-12 22:06:32			0	37879	0	0	0	18737	17380	134631	27473	969276	39179	106829	0	0	8360	578904	0	0
2024-05-12 22:07:32			0	37885	0	0	0	18737	17380	134655	27239	969276	39179	106829	0	0	8361	578659	0	0
2024-05-12 22:08:32			0	37871	0	0	0	18740	17380	134671	27386	969268	39158	106830	0	0	8360	579232	0	0
2024-05-12 22:09:32			0	37876	0	0	0	18735	17370	134611	27620	969233	39178	106828	0	0	8360	579059	0	0
2024-05-12 22:10:32			0	37878	0	0	0	18732	17370	134607	27530	969198	39166	106827	0	0	8360	578977	0	0
2024-05-12 22:11:32			0	37881	0	0	0	18724	17360	134635	27450	969163	39188	106824	0	0	8361	578886	0	0
2024-05-12 22:12:32			0	37885	0	0	0	18732	17360	134615	27370	969208	39166	106827	0	0	8361	578722	0	0
2024-05-12 22:13:32			0	37907	0	0	0	18732	17350	134603	27464	969147	39166	106827	0	0	8362	577855	0	0
2024-05-12 22:14:32			0	37884	0	0	0	18727	17350	134575	27590	969173	39187	106825	0	0	8361	578795	0	0
2024-05-12 22:15:32			0	37867	0	0	0	18727	17350	134667	27454	969200	39176	106825	0	0	8360	579489	0	0
2024-05-12 22:16:32			0	37897	0	0	0	18729	17350	134591	27587	969139	39165	106826	0	0	8361	578263	0	0
2024-05-12 22:17:32			0	37880	0	0	0	18722	17350	134671	27556	969147	39155	106823	0	0	8360	578958	0	0
2024-05-12 22:18:32			0	37896	0	0	0	18724	17340	134679	27112	969130	39165	106824	0	0	8361	578336	0	0
2024-05-12 22:19:32			0	37902	0	0	0	18716	17340	134707	27396	969130	39165	106821	0	0	8362	578091	0	0
2024-05-12 22:20:32			0	37891	0	0	0	18711	17340	134655	27144	969183	39175	106819	0	0	8361	578540	0	0
2024-05-12 22:21:32			0	37895	0	0	0	18709	17340	134627	26996	969157	39175	106818	0	0	8361	578376	0	0
2024-05-12 22:22:32			0	37887	0	0	0	18703	17340	134635	27486	969104	39165	106816	0	0	8361	578703	0	0
2024-05-12 22:23:32			0	37879	0	0	0	18703	17330	134611	27348	969122	39164	106816	0	0	8361	579062	0	0
2024-05-12 22:24:32			0	37911	0	0	0	18690	17330	134575	27331	969035	39175	106811	0	0	8363	577755	0	0
2024-05-12 22:25:32			0	37885	0	0	0	18701	17320	134563	27633	969053	39152	106815	0	0	8361	578848	0	0
2024-05-12 22:26:32			0	37892	0	0	0	18677	17330	134563	27161	969035	39153	106806	0	0	8362	578531	0	0
2024-05-12 22:27:32			0	37910	0	0	0	18677	17330	134511	27573	969008	39153	106806	0	0	8363	577795	0	0
2024-05-12 22:28:32			0	37904	0	0	0	18675	17320	134599	27152	969026	39152	106805	0	0	8362	578072	0	0
2024-05-12 22:29:32			0	37922	0	0	0	18662	17310	134615	27215	968984	39173	106800	0	0	8364	577368	0	0
2024-05-12 22:30:32			0	37890	0	0	0	18657	17300	134599	27338	968906	39161	106798	0	0	8362	578706	0	0
2024-05-12 22:31:32			0	37908	0	0	0	18657	17310	134555	27279	968984	39163	106798	0	0	8363	577940	0	0
2024-05-12 22:32:32			0	37936	0	0	0	18651	17300	134575	27293	968932	39150	106796	0	0	8364	576829	0	0
2024-05-12 22:33:32			0	37915	0	0	0	18633	17300	134619	27135	968906	39150	106789	0	0	8364	577685	0	0
2024-05-12 22:34:32			0	37914	0	0	0	18636	17290	134591	27149	968863	39150	106790	0	0	8363	577758	0	0
2024-05-12 22:35:32			0	37921	0	0	0	18631	17290	134547	27653	968863	39150	106788	0	0	8364	577472	0	0
2024-05-12 22:36:32			0	37924	0	0	0	18625	17280	134575	27478	968881	39160	106786	0	0	8364	577381	0	0
2024-05-12 22:37:32			0	37915	0	0	0	18618	17270	134591	27256	968812	39148	106783	0	0	8364	577780	0	0
2024-05-12 22:38:32			0	37926	0	0	0	18607	17270	134483	27497	968838	39137	106779	0	0	8365	577331	0	0
2024-05-12 22:39:32			0	37949	0	0	0	18599	17260	134527	27267	968822	39158	106776	0	0	8366	576424	0	0
2024-05-12 22:40:32			0	37934	0	0	0	18594	17270	134439	27261	968786	39148	106774	0	0	8365	577004	0	0
2024-05-12 22:41:32			0	37938	0	0	0	18587	17270	134519	27613	968804	39158	106771	0	0	8365	576841	0	0
2024-05-12 22:42:32			0	37942	0	0	0	18592	17260	134511	27635	968735	39146	106773	0	0	8366	576709	0	0
2024-05-12 22:43:32			0	37949	0	0	0	18597	17260	134479	27502	968761	39158	106775	0	0	8366	576424	0	0
2024-05-12 22:44:32			0	37941	0	0	0	18594	17250	134499	27762	968805	39168	106774	0	0	8365	576781	0	0
2024-05-12 22:45:32			0	37943	0	0	0	18612	17250	134451	27307	968832	39168	106781	0	0	8365	576700	0	0
2024-05-12 22:46:32			0	37941	0	0	0	18607	17260	134499	27409	968867	39158	106779	0	0	8365	576750	0	0
2024-05-12 22:47:32			0	37937	0	0	0	18620	17260	134539	27649	968814	39158	106784	0	0	8365	576913	0	0
2024-05-12 22:48:32			0	37943	0	0	0	18612	17260	134479	27594	968761	39158	106781	0	0	8365	576668	0	0
2024-05-12 22:49:32			0	37950	0	0	0	18610	17260	134483	27357	968787	39146	106780	0	0	8366	576383	0	0
2024-05-12 22:50:32			0	37954	0	0	0	18610	17260	134491	27414	968822	39158	106780	0	0	8366	576220	0	0
2024-05-12 22:51:32			0	37935	0	0	0	18607	17260	134479	27279	968822	39158	106779	0	0	8365	576995	0	0
2024-05-12 22:52:32			0	37941	0	0	0	18602	17250	134479	27391	968726	39168	106777	0	0	8365	576781	0	0
2024-05-12 22:53:32			0	37953	0	0	0	18599	17230	134539	27599	968658	39144	106776	0	0	8366	576355	0	0
2024-05-12 22:54:32			0	37937	0	0	0	18597	17240	134455	27699	968675	39145	106775	0	0	8365	576976	0	0
2024-05-12 22:55:32			0	37954	0	0	0	18594	17240	134383	27241	968736	39145	106774	0	0	8366	576283	0	0
2024-05-12 22:56:32			0	37949	0	0	0	18602	17240	134515	27762	968754	39156	106777	0	0	8366	576486	0	0
2024-05-12 22:57:32			0	37943	0	0	0	18602	17240	134459	27234	968781	39166	106777	0	0	8365	576731	0	0
2024-05-12 22:58:32			0	37965	0	0	0	18628	17240	134419	27429	968815	39157	106787	0	0	8366	575834	0	0
2024-05-12 22:59:32			0	37973	0	0	0	18636	17260	134443	27519	968867	39179	106790	0	0	8366	575446	0	0
2024-05-12 23:00:32			0	37965	0	0	0	18670	17260	134443	27635	968946	39158	106803	0	0	8365	575772	0	0
2024-05-12 23:01:32			0	37960	0	0	0	18672	17270	134491	27481	968909	39169	106804	0	0	8365	575944	0	0
2024-05-12 23:02:32			0	37968	0	0	0	18683	17270	134447	27315	968936	39169	106808	0	0	8365	575618	0	0
2024-05-12 23:03:32			0	37967	0	0	0	18696	17280	134399	27431	968926	39169	106813	0	0	8365	575628	0	0
2024-05-12 23:04:32			0	37979	0	0	0	18698	17280	134387	27736	968987	39170	106814	0	0	8366	575139	0	0
2024-05-12 23:05:32			0	37973	0	0	0	18706	17290	134383	27809	969030	39171	106817	0	0	8365	575352	0	0
2024-05-12 23:06:32			0	37945	0	0	0	18709	17280	134339	27881	968961	39170	106818	0	0	8364	576524	0	0
2024-05-12 23:07:32			0	37961	0	0	0	18703	17280	134423	27466	968987	39170	106816	0	0	8365	575872	0	0
2024-05-12 23:08:32			0	37980	0	0	0	18703	17290	134419	27410	969003	39150	106816	0	0	8366	575067	0	0
2024-05-12 23:09:32			0	37964	0	0	0	18716	17290	134323	27569	969003	39171	106821	0	0	8365	575719	0	0
2024-05-12 23:10:32			0	37984	0	0	0	18719	17290	134351	27535	969030	39182	106822	0	0	8366	574904	0	0
2024-05-12 23:11:32			0	37998	0	0	0	18714	17300	134331	27550	969012	39161	106820	0	0	8367	574304	0	0
2024-05-12 23:12:32			0	37989	0	0	0	18716	17300	134411	27595	969038	39161	106821	0	0	8366	574670	0	0
2024-05-12 23:13:32			0	37976	0	0	0	18714	17300	134387	27566	969038	39171	106820	0	0	8365	575199	0	0
2024-05-12 23:14:32			0	37987	0	0	0	18719	17300	134355	27476	969046	39162	106822	0	0	8366	574751	0	0
2024-05-12 23:15:32			0	37976	0	0	0	18709	17310	134323	27531	969081	39173	106818	0	0	8366	575168	0	0
2024-05-12 23:16:32			0	37987	0	0	0	18714	17300	134295	27189	969038	39171	106820	0	0	8366	574751	0	0
2024-05-12 23:17:32			0	37993	0	0	0	18706	17310	134375	27258	969063	39173	106817	0	0	8367	574476	0	0
2024-05-12 23:18:32			0	37997	0	0	0	18701	17310	134271	27450	969063	39163	106815	0	0	8367	574313	0	0
2024-05-12 23:19:32			0	38009	0	0	0	18696	17300	134359	27793	968967	39162	106813	0	0	8368	573856	0	0
2024-05-12 23:20:32			0	37990	0	0	0	18680	17300	134231	27326	968959	39161	106807	0	0	8367	574629	0	0
2024-05-12 23:21:32			0	37993	0	0	0	18680	17310	134375	27528	969010	39163	106807	0	0	8367	574476	0	0
2024-05-12 23:22:32			0	38002	0	0	0	18683	17300	134287	27338	969020	39172	106808	0	0	8367	574141	0	0
2024-05-12 23:23:32			0	38007	0	0	0	18683	17300	134307	27416	969020	39172	106808	0	0	8368	573938	0	0
2024-05-12 23:24:32			0	38019	0	0	0	18677	17300	134231	27505	969012	39171	106806	0	0	8368	573450	0	0
2024-05-12 23:25:32			0	38021	0	0	0	18662	17300	134227	27403	968914	39151	106800	0	0	8369	573369	0	0
2024-05-12 23:26:32			0	38013	0	0	0	18654	17290	134219	27111	968837	39150	106797	0	0	8368	573725	0	0
2024-05-12 23:27:32			0	38013	0	0	0	18618	17290	134231	27249	968758	39171	106783	0	0	8369	573725	0	0
2024-05-12 23:28:32			0	38037	0	0	0	18605	17260	134264	27173	968769	39147	106778	0	0	8370	572844	0	0
2024-05-12 23:29:32			0	38030	0	0	0	18581	17260	134147	27426	968682	39146	106769	0	0	8370	573128	0	0
2024-05-12 23:30:32			0	38007	0	0	0	18553	17250	134155	27293	968560	39134	106758	0	0	8370	574094	0	0
2024-05-12 23:31:32			0	38035	0	0	0	18529	17220	134124	27334	968597	39143	106749	0	0	8371	573049	0	0
2024-05-12 23:32:32			0	38048	0	0	0	18516	17210	134096	27254	968441	39142	106744	0	0	8372	572552	0	0
2024-05-12 23:33:32			0	38047	0	0	0	18511	17210	134116	27435	968520	39131	106742	0	0	8372	572593	0	0
2024-05-12 23:34:32			0	38059	0	0	0	18498	17190	134080	27592	968442	39129	106737	0	0	8373	572168	0	0
2024-05-12 23:35:32			0	38059	0	0	0	18498	17200	134156	27284	968451	39130	106737	0	0	8373	572137	0	0
2024-05-12 23:36:32			0	38061	0	0	0	18503	17180	134140	27293	968452	39139	106739	0	0	8373	572118	0	0
2024-05-12 23:37:32			0	38067	0	0	0	18498	17180	134148	27414	968391	39139	106737	0	0	8373	571874	0	0
2024-05-12 23:38:32			0	38067	0	0	0	18483	17180	134136	27580	968365	39128	106731	0	0	8374	571874	0	0
2024-05-12 23:39:32			0	38078	0	0	0	18480	17160	134104	27355	968340	39138	106730	0	0	8374	571490	0	0
2024-05-12 23:40:32			0	38049	0	0	0	18483	17170	134036	27571	968304	39139	106731	0	0	8373	572636	0	0
2024-05-12 23:41:32			0	38088	0	0	0	18475	17160	134128	27327	968358	39116	106728	0	0	8375	571085	0	0
2024-05-12 23:42:32			0	38047	0	0	0	18488	17160	134040	27253	968332	39148	106733	0	0	8372	572748	0	0
2024-05-12 23:43:32			0	38064	0	0	0	18493	17160	134028	27334	968385	39137	106735	0	0	8373	572058	0	0
2024-05-12 23:44:32			0	38058	0	0	0	18501	17160	134124	27284	968411	39126	106738	0	0	8373	572302	0	0
2024-05-12 23:45:32			0	38081	0	0	0	18501	17150	134100	27246	968376	39137	106738	0	0	8374	571400	0	0
2024-05-12 23:46:32			0	38080	0	0	0	18506	17150	134092	27218	968376	39137	106740	0	0	8374	571440	0	0
2024-05-12 23:47:32			0	38073	0	0	0	18519	17150	134072	27549	968482	39148	106745	0	0	8373	571724	0	0
2024-05-12 23:48:32			0	38060	0	0	0	18553	17160	134148	27436	968578	39160	106758	0	0	8372	572221	0	0
2024-05-12 23:49:32			0	38079	0	0	0	18566	17180	134048	27183	968602	39162	106763	0	0	8373	571388	0	0
2024-05-12 23:50:32			0	38072	0	0	0	18602	17190	134132	27192	968672	39163	106777	0	0	8372	571641	0	0
2024-05-12 23:51:32			0	38082	0	0	0	18602	17180	134152	27105	968637	39151	106777	0	0	8372	571266	0	0
2024-05-12 23:52:32			0	38069	0	0	0	18589	17200	134112	27569	968635	39141	106772	0	0	8372	571731	0	0
2024-05-12 23:53:32			0	38072	0	0	0	18587	17190	134084	27625	968653	39129	106771	0	0	8372	571641	0	0
2024-05-12 23:54:32			0	38072	0	0	0	18579	17190	134076	27294	968487	39140	106768	0	0	8372	571641	0	0
2024-05-12 23:55:32			0	38084	0	0	0	18574	17180	134128	27170	968550	39151	106766	0	0	8373	571185	0	0
2024-05-12 23:56:32			0	38082	0	0	0	18561	17180	134116	27452	968452	39139	106761	0	0	8373	571266	0	0
2024-05-12 23:57:32			0	38060	0	0	0	18566	17180	134168	27033	968558	39139	106763	0	0	8372	572158	0	0
2024-05-12 23:58:32			0	38082	0	0	0	18571	17180	134068	27308	968523	39139	106765	0	0	8373	571266	0	0
2024-05-12 23:59:32			0	38096	0	0	0	18561	17170	134064	27419	968515	39150	106761	0	0	8374	570730	0	0
2024-05-13 00:00:32			0	38085	0	0	0	18558	17180	134028	27246	968550	39139	106760	0	0	8373	571144	0	0
2024-05-13 00:01:32			0	38087	0	0	0	18550	17180	134080	27249	968602	39151	106757	0	0	8374	571063	0	0
2024-05-13 00:02:32			0	38074	0	0	0	18548	17190	134036	27280	968566	39163	106756	0	0	8373	571559	0	0
2024-05-13 00:03:32			0	38085	0	0	0	18568	17190	133992	27131	968627	39152	106764	0	0	8373	571113	0	0
2024-05-13 00:04:32			0	38083	0	0	0	18594	17200	133988	27396	968715	39152	106774	0	0	8373	571164	0	0
2024-05-13 00:05:32			0	38098	0	0	0	18571	17210	133988	27215	968678	39142	106765	0	0	8374	570525	0	0
2024-05-13 00:06:32			0	38099	0	0	0	18548	17200	134052	26956	968635	39152	106756	0	0	8374	570515	0	0
2024-05-13 00:07:32			0	38094	0	0	0	18542	17200	133996	27211	968591	39152	106754	0	0	8374	570718	0	0
2024-05-13 00:08:32			0	38098	0	0	0	18532	17200	134036	27409	968591	39141	106750	0	0	8375	570556	0	0
2024-05-13 00:09:32			0	38100	0	0	0	18535	17200	134016	27112	968635	39152	106751	0	0	8375	570475	0	0
2024-05-13 00:10:32			0	38100	0	0	0	18529	17200	134028	27701	968583	39152	106749	0	0	8375	570475	0	0
2024-05-13 00:11:32			0	38107	0	0	0	18516	17190	134052	27086	968540	39140	106744	0	0	8375	570222	0	0
2024-05-13 00:12:32			0	38105	0	0	0	18516	17190	133944	27093	968513	39129	106744	0	0	8375	570303	0	0
2024-05-13 00:13:32			0	38083	0	0	0	18514	17190	133924	27339	968540	39152	106743	0	0	8374	571195	0	0
2024-05-13 00:14:32			0	38095	0	0	0	18511	17180	133936	27154	968470	39139	106742	0	0	8375	570739	0	0
2024-05-13 00:15:32			0	38093	0	0	0	18535	17180	133968	27407	968584	39151	106751	0	0	8374	570820	0	0
2024-05-13 00:16:32			0	38090	0	0	0	18529	17190	133984	27248	968627	39140	106749	0	0	8374	570911	0	0
2024-05-13 00:17:32			0	38093	0	0	0	18529	17190	133924	27543	968592	39140	106749	0	0	8374	570789	0	0
2024-05-13 00:18:32			0	38093	0	0	0	18529	17180	133964	27358	968584	39139	106749	0	0	8374	570820	0	0
2024-05-13 00:19:32			0	38107	0	0	0	18532	17200	133996	27052	968609	39130	106750	0	0	8375	570191	0	0
2024-05-13 00:20:32			0	38076	0	0	0	18532	17190	134032	27556	968566	39140	106750	0	0	8373	571478	0	0
2024-05-13 00:21:32			0	38090	0	0	0	18511	17190	133872	27511	968442	39129	106742	0	0	8374	570911	0	0
2024-05-13 00:22:32			0	38110	0	0	0	18498	17190	133932	27272	968487	39129	106737	0	0	8376	570101	0	0
2024-05-13 00:23:32			0	38117	0	0	0	18501	17170	133976	27176	968409	39139	106738	0	0	8376	569879	0	0
2024-05-13 00:24:32			0	38080	0	0	0	18493	17160	134036	27298	968393	39116	106735	0	0	8374	571409	0	0
2024-05-13 00:25:32			0	38110	0	0	0	18475	17150	134012	27043	968324	39126	106728	0	0	8376	570224	0	0
2024-05-13 00:26:32			0	38111	0	0	0	18470	17160	134020	27098	968366	39127	106726	0	0	8376	570153	0	0
2024-05-13 00:27:32			0	38085	0	0	0	18462	17150	133900	27625	968263	39126	106723	0	0	8375	571237	0	0
2024-05-13 00:28:32			0	38098	0	0	0	18457	17120	133944	27338	968327	39134	106721	0	0	8375	570803	0	0
2024-05-13 00:29:32			0	38108	0	0	0	18449	17130	133944	27571	968291	39135	106718	0	0	8376	570367	0	0
2024-05-13 00:30:32			0	38107	0	0	0	18470	17140	133940	27454	968325	39125	106726	0	0	8376	570377	0	0
2024-05-13 00:31:32			0	38107	0	0	0	18477	17140	133892	27400	968386	39136	106729	0	0	8376	570377	0	0
2024-05-13 00:32:32			0	38094	0	0	0	18488	17140	133976	27429	968386	39136	106733	0	0	8375	570904	0	0
2024-05-13 00:33:32			0	38105	0	0	0	18498	17150	133940	27628	968403	39137	106737	0	0	8375	570427	0	0
2024-05-13 00:34:32			0	38082	0	0	0	18488	17150	133952	27732	968324	39137	106733	0	0	8374	571359	0	0
2024-05-13 00:35:32			0	38098	0	0	0	18470	17150	134028	27376	968289	39126	106726	0	0	8375	570711	0	0
2024-05-13 00:36:32			0	38114	0	0	0	18467	17140	133956	27573	968299	39114	106725	0	0	8376	570093	0	0
2024-05-13 00:37:32			0	38093	0	0	0	18454	17130	133972	27312	968230	39134	106720	0	0	8375	570975	0	0
2024-05-13 00:38:32			0	38095	0	0	0	18446	17130	134024	27685	968203	39124	106717	0	0	8376	570894	0	0
2024-05-13 00:39:32			0	38098	0	0	0	18444	17120	133980	27438	968160	39123	106716	0	0	8376	570803	0	0
2024-05-13 00:40:32			0	38104	0	0	0	18431	17120	134020	27388	968195	39134	106711	0	0	8376	570560	0	0
2024-05-13 00:41:32			0	38083	0	0	0	18425	17100	133940	27571	968188	39133	106709	0	0	8375	571474	0	0
2024-05-13 00:42:32			0	38107	0	0	0	18433	17110	134020	27485	968152	39133	106712	0	0	8376	570470	0	0
2024-05-13 00:43:32			0	38085	0	0	0	18425	17110	134040	27149	968170	39122	106709	0	0	8375	571362	0	0
2024-05-13 00:44:32			0	38069	0	0	0	18428	17110	134060	27332	968170	39122	106710	0	0	8374	572011	0	0
2024-05-13 00:45:32			0	38090	0	0	0	18412	17110	134060	27251	968091	39144	106704	0	0	8376	571159	0	0
2024-05-13 00:46:32			0	38073	0	0	0	18423	17090	134056	27381	968058	39121	106708	0	0	8375	571910	0	0
2024-05-13 00:47:32			0	38084	0	0	0	18405	17100	134068	27171	968021	39122	106701	0	0	8376	571433	0	0
2024-05-13 00:48:32			0	38085	0	0	0	18410	17080	134056	27588	968068	39109	106703	0	0	8375	571455	0	0
2024-05-13 00:49:32			0	38093	0	0	0	18399	17080	134040	27409	967989	39120	106699	0	0	8376	571130	0	0
2024-05-13 00:50:32			0	38088	0	0	0	18397	17070	134204	27521	967998	39108	106698	0	0	8376	571364	0	0
2024-05-13 00:51:32			0	38097	0	0	0	18394	17070	133996	27549	967946	39119	106697	0	0	8376	570999	0	0
2024-05-13 00:52:32			0	38095	0	0	0	18384	17060	134048	27343	967956	39128	106693	0	0	8376	571111	0	0
2024-05-13 00:53:32			0	38101	0	0	0	18384	17060	134028	27355	967911	39119	106693	0	0	8377	570868	0	0
2024-05-13 00:54:32			0	38082	0	0	0	18366	17050	133960	27317	967886	39127	106686	0	0	8376	571669	0	0
2024-05-13 00:55:32			0	38088	0	0	0	18366	17050	134012	27199	967860	39117	106686	0	0	8376	571426	0	0
2024-05-13 00:56:32			0	38092	0	0	0	18353	17030	134052	27402	967764	39116	106681	0	0	8377	571326	0	0
2024-05-13 00:57:32			0	38091	0	0	0	18345	17020	134052	27225	967721	39115	106678	0	0	8377	571397	0	0
2024-05-13 00:58:32			0	38082	0	0	0	18322	17010	134008	27256	967670	39114	106669	0	0	8376	571793	0	0
2024-05-13 00:59:32			0	38092	0	0	0	18314	17010	134008	27542	967697	39091	106666	0	0	8377	571388	0	0
2024-05-13 01:00:32			0	38091	0	0	0	18309	16980	134092	27319	967603	39100	106664	0	0	8377	571521	0	0
2024-05-13 01:01:32			0	38080	0	0	0	18285	16980	134032	27261	967629	39111	106655	0	0	8377	571967	0	0
2024-05-13 01:02:32			0	38091	0	0	0	18288	16970	134020	27362	967612	39100	106656	0	0	8377	571552	0	0
2024-05-13 01:03:32			0	38080	0	0	0	18270	16970	134100	27450	967560	39089	106649	0	0	8377	571999	0	0
2024-05-13 01:04:32			0	38079	0	0	0	18262	16950	134180	27216	967395	39109	106646	0	0	8377	572101	0	0
2024-05-13 01:05:32			0	38086	0	0	0	18241	16950	134180	27563	967342	39098	106638	0	0	8378	571817	0	0
2024-05-13 01:06:32			0	38072	0	0	0	18233	16930	134260	27098	967354	39107	106635	0	0	8377	572448	0	0
2024-05-13 01:07:32			0	38065	0	0	0	18215	16940	134112	27454	967317	39085	106628	0	0	8377	572701	0	0
2024-05-13 01:08:32			0	38075	0	0	0	18212	16910	134100	27353	967294	39116	106627	0	0	8378	572388	0	0
2024-05-13 01:09:32			0	38073	0	0	0	18199	16910	134132	27739	967242	39094	106622	0	0	8378	572469	0	0
2024-05-13 01:10:32			0	38082	0	0	0	18186	16900	134168	27260	967225	39092	106617	0	0	8378	572134	0	0
2024-05-13 01:11:32			0	38066	0	0	0	18181	16890	134168	27409	967190	39103	106615	0	0	8378	572815	0	0
2024-05-13 01:12:32			0	38079	0	0	0	18181	16880	134252	27462	967166	39091	106615	0	0	8378	572318	0	0
2024-05-13 01:13:32			0	38060	0	0	0	18174	16870	134224	27473	967105	39090	106612	0	0	8377	573121	0	0
2024-05-13 01:14:32			0	38066	0	0	0	18176	16860	134292	27474	967080	39089	106613	0	0	8378	572909	0	0
2024-05-13 01:15:32			0	38059	0	0	0	18168	16860	134244	27729	967080	39089	106610	0	0	8377	573193	0	0
2024-05-13 01:16:32			0	38061	0	0	0	18168	16850	134312	27684	967063	39078	106610	0	0	8377	573143	0	0
2024-05-13 01:17:32			0	38052	0	0	0	18158	16840	134248	27327	967029	39078	106606	0	0	8377	573540	0	0
2024-05-13 01:18:32			0	38041	0	0	0	18166	16840	134264	27189	966976	39088	106609	0	0	8376	573987	0	0
2024-05-13 01:19:32			0	38047	0	0	0	18153	16830	134284	27429	967039	39086	106604	0	0	8377	573774	0	0
2024-05-13 01:20:32			0	38073	0	0	0	18155	16830	134300	27166	967004	39097	106605	0	0	8378	572717	0	0
2024-05-13 01:21:32			0	38041	0	0	0	18153	16830	134432	27287	967030	39085	106604	0	0	8376	574019	0	0
2024-05-13 01:22:32			0	38065	0	0	0	18145	16820	134316	27673	966969	39085	106601	0	0	8378	573074	0	0
2024-05-13 01:23:32			0	38043	0	0	0	18155	16820	134372	27334	966988	39085	106605	0	0	8376	573968	0	0
2024-05-13 01:24:32			0	38052	0	0	0	18153	16810	134328	27822	967006	39085	106604	0	0	8377	573633	0	0
2024-05-13 01:25:32			0	38036	0	0	0	18145	16810	134332	27526	967006	39085	106601	0	0	8376	574284	0	0
2024-05-13 01:26:32			0	38019	0	0	0	18155	16810	134431	27505	966953	39096	106605	0	0	8375	574977	0	0
2024-05-13 01:27:32			0	38032	0	0	0	18163	16810	134432	27547	966945	39095	106608	0	0	8376	574447	0	0
2024-05-13 01:28:32			0	38050	0	0	0	18168	16810	134448	27471	966998	39106	106610	0	0	8377	573715	0	0
2024-05-13 01:29:32			0	38038	0	0	0	18163	16810	134428	27777	966998	39095	106608	0	0	8376	574203	0	0
2024-05-13 01:30:32			0	38023	0	0	0	18163	16810	134507	27352	966945	39095	106608	0	0	8375	574814	0	0
2024-05-13 01:31:32			0	38034	0	0	0	18163	16810	134463	27435	966971	39106	106608	0	0	8376	574366	0	0
2024-05-13 01:32:32			0	38006	0	0	0	18158	16800	134471	27557	966910	39095	106606	0	0	8374	575538	0	0
2024-05-13 01:33:32			0	38018	0	0	0	18161	16800	134527	27583	966955	39084	106607	0	0	8375	575048	0	0
2024-05-13 01:34:32			0	38025	0	0	0	18155	16800	134468	27251	966981	39084	106605	0	0	8375	574763	0	0
2024-05-13 01:35:32			0	38011	0	0	0	18161	16800	134475	27370	966937	39084	106607	0	0	8375	575334	0	0
2024-05-13 01:36:32			0	38022	0	0	0	18153	16800	134487	27371	966955	39084	106604	0	0	8375	574886	0	0
2024-05-13 01:37:32			0	38019	0	0	0	18168	16790	134515	27157	966894	39083	106610	0	0	8375	575039	0	0
2024-05-13 01:38:32			0	38023	0	0	0	18158	16790	134447	27492	966912	39093	106606	0	0	8375	574876	0	0
2024-05-13 01:39:32			0	38003	0	0	0	18161	16800	134523	27431	966963	39084	106607	0	0	8374	575660	0	0
2024-05-13 01:40:32			0	38007	0	0	0	18158	16790	134559	27287	966946	39083	106606	0	0	8374	575528	0	0
2024-05-13 01:41:32			0	38000	0	0	0	18163	16790	134531	27183	966885	39093	106608	0	0	8374	575813	0	0
2024-05-13 01:42:32			0	38023	0	0	0	18161	16790	134595	27215	966946	39083	106607	0	0	8375	574876	0	0
2024-05-13 01:43:32			0	38002	0	0	0	18158	16790	134639	27417	966938	39104	106606	0	0	8374	575732	0	0
2024-05-13 01:44:32			0	37981	0	0	0	18158	16790	134515	27486	966920	39094	106606	0	0	8373	576588	0	0
2024-05-13 01:45:32			0	38001	0	0	0	18163	16790	134579	27578	966912	39083	106608	0	0	8374	575773	0	0
2024-05-13 01:46:32			0	37984	0	0	0	18168	16780	134547	27277	966877	39104	106610	0	0	8373	576497	0	0
2024-05-13 01:47:32			0	37988	0	0	0	18168	16790	134607	27455	966946	39094	106610	0	0	8373	576303	0	0
2024-05-13 01:48:32			0	37989	0	0	0	18168	16790	134619	27523	966965	39104	106610	0	0	8373	576262	0	0
2024-05-13 01:49:32			0	37988	0	0	0	18174	16800	134599	27277	966928	39084	106612	0	0	8373	576272	0	0
2024-05-13 01:50:32			0	37985	0	0	0	18179	16790	134631	27213	966912	39093	106614	0	0	8373	576425	0	0
2024-05-13 01:51:32			0	37970	0	0	0	18181	16790	134627	27523	966973	39105	106615	0	0	8372	577037	0	0
2024-05-13 01:52:32			0	37969	0	0	0	18194	16790	134687	27282	966946	39094	106620	0	0	8372	577078	0	0
2024-05-13 01:53:32			0	37961	0	0	0	18192	16790	134739	27403	966920	39094	106619	0	0	8371	577405	0	0
2024-05-13 01:54:32			0	37961	0	0	0	18189	16800	134675	27320	966928	39106	106618	0	0	8372	577374	0	0
2024-05-13 01:55:32			0	37972	0	0	0	18194	16800	134735	27410	966937	39117	106620	0	0	8372	576925	0	0
2024-05-13 01:56:32			0	37962	0	0	0	18205	16810	134647	27104	966998	39084	106624	0	0	8371	577302	0	0
2024-05-13 01:57:32			0	37959	0	0	0	18197	16800	134759	27554	966981	39095	106621	0	0	8371	577455	0	0
2024-05-13 01:58:32			0	37950	0	0	0	18186	16810	134703	27460	966945	39084	106617	0	0	8371	577792	0	0
2024-05-13 01:59:32			0	37928	0	0	0	18184	16790	134679	27459	966912	39093	106616	0	0	8370	578754	0	0
2024-05-13 02:00:32			0	37946	0	0	0	18179	16790	134767	27360	966946	39094	106614	0	0	8371	578018	0	0
2024-05-13 02:01:32			0	37928	0	0	0	18168	16800	134687	27485	966902	39084	106610	0	0	8370	578723	0	0
2024-05-13 02:02:32			0	37949	0	0	0	18174	16790	134751	27543	966894	39094	106612	0	0	8371	577895	0	0
2024-05-13 02:03:32			0	37941	0	0	0	18155	16800	134663	27229	966955	39095	106605	0	0	8371	578191	0	0
2024-05-13 02:04:32			0	37951	0	0	0	18153	16790	134747	27249	966867	39094	106604	0	0	8372	577814	0	0
2024-05-13 02:05:32			0	37935	0	0	0	18153	16780	134763	27509	966904	39093	106604	0	0	8371	578499	0	0
2024-05-13 02:06:32			0	37947	0	0	0	18155	16790	134823	27072	966885	39093	106605	0	0	8371	577977	0	0
2024-05-13 02:07:32			0	37918	0	0	0	18145	16780	134823	27215	966877	39093	106601	0	0	8370	579195	0	0
2024-05-13 02:08:32			0	37918	0	0	0	18137	16780	134851	27310	966869	39093	106598	0	0	8370	579195	0	0
2024-05-13 02:09:32			0	37924	0	0	0	18142	16780	134751	27371	966824	39093	106600	0	0	8370	578949	0	0
2024-05-13 02:10:32			0	37916	0	0	0	18132	16780	134895	27246	966843	39093	106596	0	0	8370	579277	0	0
2024-05-13 02:11:32			0	37909	0	0	0	18135	16780	134803	27133	966843	39093	106597	0	0	8370	579563	0	0
2024-05-13 02:12:32			0	37896	0	0	0	18129	16780	134747	26977	966816	39104	106595	0	0	8369	580096	0	0
2024-05-13 02:13:32			0	37903	0	0	0	18119	16760	134899	27164	966844	39091	106591	0	0	8370	579872	0	0
2024-05-13 02:14:32			0	37917	0	0	0	18119	16770	134871	27395	966800	39091	106591	0	0	8370	579267	0	0
2024-05-13 02:15:32			0	37901	0	0	0	18111	16760	134887	27152	966739	39091	106588	0	0	8370	579953	0	0
2024-05-13 02:16:32			0	37896	0	0	0	18096	16750	134923	27422	966661	39090	106582	0	0	8369	580190	0	0
2024-05-13 02:17:32			0	37908	0	0	0	18096	16760	134879	27500	966712	39081	106582	0	0	8370	579667	0	0
2024-05-13 02:18:32			0	37894	0	0	0	18085	16750	134859	27327	966661	39080	106578	0	0	8370	580272	0	0
2024-05-13 02:19:32			0	37877	0	0	0	18080	16750	134927	27509	966696	39080	106576	0	0	8369	580969	0	0
2024-05-13 02:20:32			0	37903	0	0	0	18088	16740	134871	27270	966653	39089	106579	0	0	8370	579934	0	0
2024-05-13 02:21:32			0	37889	0	0	0	18064	16720	134899	27417	966602	39088	106570	0	0	8370	580571	0	0
2024-05-13 02:22:32			0	37896	0	0	0	18062	16720	134931	27464	966575	39067	106569	0	0	8370	580284	0	0
2024-05-13 02:23:32			0	37896	0	0	0	18054	16720	134919	27509	966541	39077	106566	0	0	8370	580284	0	0
2024-05-13 02:24:32			0	37881	0	0	0	18054	16720	134939	27170	966567	39077	106566	0	0	8369	580899	0	0
2024-05-13 02:25:32			0	37876	0	0	0	18051	16710	135007	27357	966551	39077	106565	0	0	8369	581136	0	0
2024-05-13 02:26:32			0	37883	0	0	0	18049	16700	135031	27121	966561	39085	106564	0	0	8369	580880	0	0
2024-05-13 02:27:32			0	37880	0	0	0	18046	16700	135011	27275	966455	39053	106563	0	0	8369	581003	0	0
2024-05-13 02:28:32			0	37880	0	0	0	18036	16700	135063	27185	966516	39054	106559	0	0	8369	581003	0	0
2024-05-13 02:29:32			0	37877	0	0	0	18031	16700	135063	27301	966490	39065	106557	0	0	8369	581126	0	0
2024-05-13 02:30:32			0	37870	0	0	0	18031	16700	135071	26946	966481	39064	106557	0	0	8369	581413	0	0
2024-05-13 02:31:32			0	37855	0	0	0	18033	16690	135119	27225	966368	39085	106558	0	0	8368	582060	0	0
2024-05-13 02:32:32			0	37866	0	0	0	18023	16680	135039	27452	966449	39062	106554	0	0	8369	581640	0	0
2024-05-13 02:33:32			0	37865	0	0	0	18015	16680	135131	27364	966369	39074	106551	0	0	8369	581681	0	0
2024-05-13 02:34:32			0	37855	0	0	0	18015	16670	135123	27128	966379	39061	106551	0	0	8368	582124	0	0
2024-05-13 02:35:32			0	37836	0	0	0	18007	16670	135139	27201	966361	39084	106548	0	0	8368	582904	0	0
2024-05-13 02:36:32			0	37834	0	0	0	18012	16660	135151	27128	966345	39083	106550	0	0	8367	583018	0	0
2024-05-13 02:37:32			0	37858	0	0	0	17999	16660	135123	27078	966371	39073	106545	0	0	8369	582032	0	0
2024-05-13 02:38:32			0	37851	0	0	0	18015	16660	135203	27307	966318	39083	106551	0	0	8368	582319	0	0
2024-05-13 02:39:32			0	37835	0	0	0	18015	16670	135351	27055	966405	39073	106551	0	0	8367	582945	0	0
2024-05-13 02:40:32			0	37827	0	0	0	18031	16660	135275	27118	966424	39083	106557	0	0	8367	583306	0	0
2024-05-13 02:41:32			0	37844	0	0	0	18057	16660	135227	27102	966556	39083	106567	0	0	8367	582607	0	0
2024-05-13 02:42:32			0	37825	0	0	0	18114	16680	135327	27067	966633	39095	106589	0	0	8365	583325	0	0
2024-05-13 02:43:32			0	37830	0	0	0	18155	16700	135307	27140	966727	39108	106605	0	0	8365	583056	0	0
2024-05-13 02:44:32			0	37836	0	0	0	18192	16720	135279	26882	966805	39098	106619	0	0	8365	582747	0	0
2024-05-13 02:45:32			0	37814	0	0	0	18212	16730	135327	27336	966847	39100	106627	0	0	8363	583619	0	0
2024-05-13 02:46:32			0	37803	0	0	0	18199	16740	135431	27376	966838	39089	106622	0	0	8363	584040	0	0
2024-05-13 02:47:32			0	37811	0	0	0	18199	16760	135343	27308	966915	39090	106622	0	0	8363	583648	0	0
2024-05-13 02:48:32			0	37794	0	0	0	18184	16750	135251	27241	966881	39069	106616	0	0	8363	584379	0	0
2024-05-13 02:49:32			0	37809	0	0	0	18192	16760	135303	27126	966757	39080	106619	0	0	8363	583730	0	0
2024-05-13 02:50:32			0	37792	0	0	0	18168	16750	135351	27140	966767	39080	106610	0	0	8363	584461	0	0
2024-05-13 02:51:32			0	37780	0	0	0	18163	16760	135351	27412	966757	39080	106608	0	0	8362	584924	0	0
2024-05-13 02:52:32			0	37800	0	0	0	18168	16760	135315	27317	966897	39103	106610	0	0	8363	584100	0	0
2024-05-13 02:53:32			0	37802	0	0	0	18189	16770	135299	27312	966984	39103	106618	0	0	8363	583987	0	0
2024-05-13 02:54:32			0	37786	0	0	0	18205	16770	135267	27364	966966	39103	106624	0	0	8362	584645	0	0
2024-05-13 02:55:32			0	37801	0	0	0	18225	16790	135307	27232	967017	39104	106632	0	0	8362	583965	0	0
2024-05-13 02:56:32			0	37774	0	0	0	18238	16790	135279	27396	967097	39115	106637	0	0	8361	585076	0	0
2024-05-13 02:57:32			0	37794	0	0	0	18246	16790	135323	27325	967105	39116	106640	0	0	8362	584253	0	0
2024-05-13 02:58:32			0	37769	0	0	0	18249	16800	135299	27102	967121	39106	106641	0	0	8360	585250	0	0
2024-05-13 02:59:32			0	37784	0	0	0	18249	16810	135363	27429	967111	39107	106641	0	0	8361	584601	0	0
2024-05-13 03:00:32			0	37776	0	0	0	18244	16810	135279	27395	967111	39096	106639	0	0	8361	584930	0	0
2024-05-13 03:01:32			0	37769	0	0	0	18249	16820	135323	27076	967128	39097	106641	0	0	8360	585187	0	0
2024-05-13 03:02:32			0	37769	0	0	0	18249	16820	135367	27149	967075	39108	106641	0	0	8360	585187	0	0
2024-05-13 03:03:32			0	37774	0	0	0	18241	16830	135263	27495	967110	39097	106638	0	0	8361	584949	0	0
2024-05-13 03:04:32			0	37768	0	0	0	18246	16820	135395	27528	967181	39119	106640	0	0	8360	585228	0	0
2024-05-13 03:05:32			0	37756	0	0	0	18241	16830	135375	27291	967162	39097	106638	0	0	8360	585691	0	0
2024-05-13 03:06:32			0	37758	0	0	0	18254	16840	135347	27298	967205	39109	106643	0	0	8360	585577	0	0
2024-05-13 03:07:32			0	37768	0	0	0	18246	16840	135291	27043	967152	39109	106640	0	0	8361	585165	0	0
2024-05-13 03:08:32			0	37752	0	0	0	18251	16830	135371	27331	967223	39120	106642	0	0	8360	585856	0	0
2024-05-13 03:09:32			0	37756	0	0	0	18257	16840	135343	27031	967213	39110	106644	0	0	8360	585659	0	0
2024-05-13 03:10:32			0	37745	0	0	0	18257	16850	135395	27320	967204	39099	106644	0	0	8359	586081	0	0
2024-05-13 03:11:32			0	37733	0	0	0	18262	16850	135407	27289	967230	39110	106646	0	0	8358	586576	0	0
2024-05-13 03:12:32			0	37764	0	0	0	18267	16850	135423	27371	967283	39110	106648	0	0	8360	585298	0	0
2024-05-13 03:13:32			0	37745	0	0	0	18280	16860	135463	27261	967352	39123	106653	0	0	8359	586049	0	0
2024-05-13 03:14:32			0	37739	0	0	0	18280	16870	135439	27208	967308	39123	106653	0	0	8359	586265	0	0
2024-05-13 03:15:32			0	37749	0	0	0	18275	16870	135411	27147	967308	39123	106651	0	0	8359	585852	0	0
2024-05-13 03:16:32			0	37750	0	0	0	18285	16870	135411	27426	967421	39123	106655	0	0	8359	585811	0	0
2024-05-13 03:17:32			0	37718	0	0	0	18296	16880	135487	27308	967332	39125	106659	0	0	8357	587099	0	0
2024-05-13 03:18:32			0	37719	0	0	0	18296	16890	135459	27060	967375	39125	106659	0	0	8357	587026	0	0
2024-05-13 03:19:32			0	37744	0	0	0	18301	16890	135459	27298	967375	39125	106661	0	0	8359	585995	0	0
2024-05-13 03:20:32			0	37728	0	0	0	18296	16900	135403	27048	967436	39115	106659	0	0	8358	586623	0	0
2024-05-13 03:21:32			0	37732	0	0	0	18293	16890	135567	27150	967402	39125	106658	0	0	8358	586490	0	0
2024-05-13 03:22:32			0	37731	0	0	0	18301	16900	135479	27189	967418	39115	106661	0	0	8358	586499	0	0
2024-05-13 03:23:32			0	37738	0	0	0	18309	16900	135575	27015	967418	39126	106664	0	0	8358	586211	0	0
2024-05-13 03:24:32			0	37719	0	0	0	18316	16900	135591	27478	967463	39125	106667	0	0	8357	586994	0	0
2024-05-13 03:25:32			0	37723	0	0	0	18319	16900	135563	27137	967444	39104	106668	0	0	8357	586829	0	0
2024-05-13 03:26:32			0	37723	0	0	0	18316	16900	135595	27244	967444	39126	106667	0	0	8357	586829	0	0
2024-05-13 03:27:32			0	37712	0	0	0	18316	16910	135547	27343	967540	39105	106667	0	0	8357	587251	0	0
2024-05-13 03:28:32			0	37717	0	0	0	18324	16910	135543	27329	967532	39126	106670	0	0	8357	587045	0	0
2024-05-13 03:29:32			0	37712	0	0	0	18324	16920	135531	27507	967575	39126	106670	0	0	8357	587220	0	0
2024-05-13 03:30:32			0	37717	0	0	0	18332	16920	135595	27609	967557	39127	106673	0	0	8357	587013	0	0
2024-05-13 03:31:32			0	37692	0	0	0	18345	16920	135439	27587	967583	39117	106678	0	0	8355	588046	0	0
2024-05-13 03:32:32			0	37706	0	0	0	18340	16920	135607	27345	967609	39117	106676	0	0	8356	587467	0	0
2024-05-13 03:33:32			0	37708	0	0	0	18353	16940	135547	27275	967616	39119	106681	0	0	8356	587321	0	0
2024-05-13 03:34:32			0	37696	0	0	0	18355	16940	135499	27346	967581	39118	106682	0	0	8355	587817	0	0
2024-05-13 03:35:32			0	37668	0	0	0	18361	16940	135475	27414	967616	39129	106684	0	0	8354	588974	0	0
2024-05-13 03:36:32			0	37704	0	0	0	18361	16940	135543	27313	967669	39129	106684	0	0	8356	587486	0	0
2024-05-13 03:37:32			0	37682	0	0	0	18366	16940	135519	27234	967695	39119	106686	0	0	8354	588395	0	0
2024-05-13 03:38:32			0	37685	0	0	0	18371	16950	135627	27204	967685	39141	106688	0	0	8355	588239	0	0
2024-05-13 03:39:32			0	37678	0	0	0	18366	16970	135595	27190	967683	39132	106686	0	0	8354	588465	0	0
2024-05-13 03:40:32			0	37670	0	0	0	18376	16960	135523	27357	967728	39131	106690	0	0	8354	588827	0	0
2024-05-13 03:41:32			0	37684	0	0	0	18381	16970	135659	27227	967736	39132	106692	0	0	8354	588217	0	0
2024-05-13 03:42:32			0	37680	0	0	0	18384	16960	135511	27142	967728	39131	106693	0	0	8354	588414	0	0
2024-05-13 03:43:32			0	37655	0	0	0	18381	16970	135623	27331	967744	39122	106692	0	0	8353	589416	0	0
2024-05-13 03:44:32			0	37663	0	0	0	18386	16980	135547	27105	967753	39133	106694	0	0	8353	589053	0	0
2024-05-13 03:45:32			0	37674	0	0	0	18381	16980	135531	27019	967805	39133	106692	0	0	8354	588598	0	0
2024-05-13 03:46:32			0	37668	0	0	0	18389	16980	135635	27370	967761	39133	106695	0	0	8353	588846	0	0
2024-05-13 03:47:32			0	37653	0	0	0	18386	16980	135595	27289	967814	39122	106694	0	0	8353	589467	0	0
2024-05-13 03:48:32			0	37651	0	0	0	18384	16980	135643	27046	967779	39122	106693	0	0	8353	589549	0	0
2024-05-13 03:49:32			0	37676	0	0	0	18389	16990	135719	27026	967795	39145	106695	0	0	8354	588484	0	0
2024-05-13 03:50:32			0	37654	0	0	0	18389	16990	135659	27024	967857	39124	106695	0	0	8353	589393	0	0
2024-05-13 03:51:32			0	37648	0	0	0	18384	16980	135703	27124	967779	39122	106693	0	0	8352	589673	0	0
2024-05-13 03:52:32			0	37626	0	0	0	18381	17000	135675	26972	967786	39134	106692	0	0	8351	590520	0	0
2024-05-13 03:53:32			0	37635	0	0	0	18381	16990	135703	27066	967883	39145	106692	0	0	8352	590180	0	0
2024-05-13 03:54:32			0	37646	0	0	0	18381	16990	135819	27145	967804	39124	106692	0	0	8352	589724	0	0
2024-05-13 03:55:32			0	37646	0	0	0	18379	16990	135787	27261	967769	39145	106691	0	0	8353	589724	0	0
2024-05-13 03:56:32			0	37630	0	0	0	18381	16990	135771	27166	967769	39133	106692	0	0	8352	590387	0	0
2024-05-13 03:57:32			0	37636	0	0	0	18384	16990	135787	27312	967830	39134	106693	0	0	8352	590138	0	0
2024-05-13 03:58:32			0	37625	0	0	0	18376	16990	135811	27331	967778	39134	106690	0	0	8351	590594	0	0
2024-05-13 03:59:32			0	37621	0	0	0	18379	16990	135795	27287	967743	39123	106691	0	0	8351	590760	0	0
2024-05-13 04:00:32			0	37630	0	0	0	18384	16990	135787	26989	967769	39133	106693	0	0	8352	590387	0	0
2024-05-13 04:01:32			0	37610	0	0	0	18376	16990	135719	26948	967778	39134	106690	0	0	8351	591215	0	0
2024-05-13 04:02:32			0	37623	0	0	0	18384	16980	135835	27279	967734	39122	106693	0	0	8351	590709	0	0
2024-05-13 04:03:32			0	37598	0	0	0	18368	16990	135775	27213	967778	39134	106687	0	0	8350	591713	0	0
2024-05-13 04:04:32			0	37628	0	0	0	18371	16990	135863	27462	967716	39133	106688	0	0	8352	590470	0	0
2024-05-13 04:05:32			0	37589	0	0	0	18363	16980	135851	27249	967814	39144	106685	0	0	8350	592118	0	0
2024-05-13 04:06:32			0	37611	0	0	0	18371	16980	135799	27034	967779	39122	106688	0	0	8351	591206	0	0
2024-05-13 04:07:32			0	37570	0	0	0	18374	16990	135831	27216	967795	39133	106689	0	0	8349	592875	0	0
2024-05-13 04:08:32			0	37607	0	0	0	18361	16980	135835	27007	967708	39122	106684	0	0	8351	591372	0	0
2024-05-13 04:09:32			0	37596	0	0	0	18368	16990	135887	27083	967769	39133	106687	0	0	8350	591796	0	0
2024-05-13 04:10:32			0	37578	0	0	0	18363	16980	135935	27279	967761	39133	106685	0	0	8349	592575	0	0
2024-05-13 04:11:32			0	37594	0	0	0	18366	16980	135959	27263	967726	39122	106686	0	0	8350	591911	0	0
2024-05-13 04:12:32			0	37585	0	0	0	18363	16990	135995	27057	967716	39133	106685	0	0	8350	592252	0	0
2024-05-13 04:13:32			0	37583	0	0	0	18358	16970	136027	26941	967692	39133	106683	0	0	8349	592400	0	0
2024-05-13 04:14:32			0	37578	0	0	0	18353	16990	135963	27320	967716	39133	106681	0	0	8349	592543	0	0
2024-05-13 04:15:32			0	37575	0	0	0	18353	16990	135959	27036	967690	39123	106681	0	0	8349	592667	0	0
2024-05-13 04:16:32			0	37538	0	0	0	18355	16970	135979	27362	967718	39133	106682	0	0	8347	594270	0	0
2024-05-13 04:17:32			0	37544	0	0	0	18358	16980	135979	27364	967726	39133	106683	0	0	8347	593988	0	0
2024-05-13 04:18:32			0	37550	0	0	0	18345	16970	135975	27241	967692	39133	106678	0	0	8348	593770	0	0
2024-05-13 04:19:32			0	37525	0	0	0	18361	16980	136059	27315	967700	39122	106684	0	0	8346	594778	0	0
2024-05-13 04:20:32			0	37533	0	0	0	18345	16970	136123	27144	967657	39143	106678	0	0	8347	594477	0	0
2024-05-13 04:21:32			0	37520	0	0	0	18350	16960	136247	27083	967667	39130	106680	0	0	8346	595051	0	0
2024-05-13 04:22:32			0	37521	0	0	0	18335	16960	136171	27230	967622	39121	106674	0	0	8347	595009	0	0
2024-05-13 04:23:32			0	37520	0	0	0	18337	16960	136199	27114	967649	39121	106675	0	0	8346	595051	0	0
2024-05-13 04:24:32			0	37515	0	0	0	18335	16960	136187	27374	967596	39153	106674	0	0	8346	595259	0	0
2024-05-13 04:25:32			0	37518	0	0	0	18340	16950	136175	27355	967553	39120	106676	0	0	8346	595166	0	0
2024-05-13 04:26:32			0	37527	0	0	0	18327	16940	136127	27241	967616	39129	106671	0	0	8347	594824	0	0
2024-05-13 04:27:32			0	37508	0	0	0	18327	16960	136207	27215	967622	39131	106671	0	0	8346	595550	0	0
2024-05-13 04:28:32			0	37484	0	0	0	18332	16950	136207	26897	967580	39120	106673	0	0	8345	596583	0	0
2024-05-13 04:29:32			0	37496	0	0	0	18322	16950	136223	27137	967624	39130	106669	0	0	8345	596083	0	0
2024-05-13 04:30:32			0	37489	0	0	0	18322	16950	136167	27313	967571	39120	106669	0	0	8345	596375	0	0
2024-05-13 04:31:32			0	37492	0	0	0	18322	16930	136239	27135	967547	39118	106669	0	0	8345	596314	0	0
2024-05-13 04:32:32			0	37495	0	0	0	18311	16940	136315	27263	967616	39129	106665	0	0	8345	596157	0	0
2024-05-13 04:33:32			0	37490	0	0	0	18309	16930	136363	27112	967520	39128	106664	0	0	8345	596397	0	0
2024-05-13 04:34:32			0	37485	0	0	0	18303	16930	136251	27327	967494	39118	106662	0	0	8345	596606	0	0
2024-05-13 04:35:32			0	37486	0	0	0	18306	16940	136239	26955	967555	39118	106663	0	0	8345	596532	0	0
2024-05-13 04:36:32			0	37489	0	0	0	18301	16930	136335	27360	967512	39118	106661	0	0	8345	596439	0	0
2024-05-13 04:37:32			0	37485	0	0	0	18303	16940	136279	27131	967528	39128	106662	0	0	8345	596574	0	0
2024-05-13 04:38:32			0	37466	0	0	0	18298	16920	136327	27090	967504	39127	106660	0	0	8344	597431	0	0
2024-05-13 04:39:32			0	37480	0	0	0	18298	16920	136303	27211	967530	39127	106660	0	0	8345	596847	0	0
2024-05-13 04:40:32			0	37478	0	0	0	18293	16920	136251	27189	967451	39117	106658	0	0	8345	596930	0	0
2024-05-13 04:41:32			0	37453	0	0	0	18296	16920	136435	27204	967477	39117	106659	0	0	8343	597974	0	0
2024-05-13 04:42:32			0	37471	0	0	0	18290	16910	136291	27102	967435	39116	106657	0	0	8344	597255	0	0
2024-05-13 04:43:32			0	37477	0	0	0	18296	16920	136375	27393	967443	39105	106659	0	0	8345	596972	0	0
2024-05-13 04:44:32			0	37450	0	0	0	18280	16910	136347	27336	967487	39126	106653	0	0	8343	598132	0	0
2024-05-13 04:45:32			0	37464	0	0	0	18275	16910	136275	27159	967426	39116	106651	0	0	8344	597547	0	0
2024-05-13 04:46:32			0	37455	0	0	0	18285	16910	136471	27144	967453	39116	106655	0	0	8344	597923	0	0
2024-05-13 04:47:32			0	37469	0	0	0	18285	16910	136439	27066	967514	39126	106655	0	0	8344	597338	0	0
2024-05-13 04:48:32			0	37445	0	0	0	18277	16900	136391	27421	967418	39104	106652	0	0	8343	598373	0	0
2024-05-13 04:49:32			0	37463	0	0	0	18270	16900	136387	27246	967410	39125	106649	0	0	8344	597621	0	0
2024-05-13 04:50:32			0	37435	0	0	0	18270	16890	136395	27227	967375	39125	106649	0	0	8343	598823	0	0
2024-05-13 04:51:32			0	37447	0	0	0	18270	16890	136359	27156	967314	39114	106649	0	0	8343	598322	0	0
2024-05-13 04:52:32			0	37457	0	0	0	18270	16890	136427	26955	967393	39125	106649	0	0	8344	597904	0	0
2024-05-13 04:53:32			0	37456	0	0	0	18267	16900	136483	27192	967418	39126	106648	0	0	8344	597913	0	0
2024-05-13 04:54:32			0	37452	0	0	0	18264	16890	136395	27326	967402	39114	106647	0	0	8344	598113	0	0
2024-05-13 04:55:32			0	37430	0	0	0	18272	16890	136407	27429	967375	39114	106650	0	0	8342	599032	0	0
2024-05-13 04:56:32			0	37463	0	0	0	18259	16880	136491	27308	967377	39113	106645	0	0	8344	597686	0	0
2024-05-13 04:57:32			0	37436	0	0	0	18270	16890	136451	27396	967420	39135	106649	0	0	8343	598782	0	0
2024-05-13 04:58:32			0	37444	0	0	0	18277	16890	136459	27291	967402	39125	106652	0	0	8343	598447	0	0
2024-05-13 04:59:32			0	37452	0	0	0	18270	16890	136383	27362	967428	39114	106649	0	0	8344	598113	0	0
2024-05-13 05:00:32			0	37445	0	0	0	18283	16900	136435	27268	967463	39115	106654	0	0	8343	598373	0	0
2024-05-13 05:01:32			0	37450	0	0	0	18290	16900	136419	27315	967471	39126	106657	0	0	8343	598164	0	0
2024-05-13 05:02:32			0	37461	0	0	0	18288	16890	136439	27308	967481	39114	106656	0	0	8344	597737	0	0
2024-05-13 05:03:32			0	37445	0	0	0	18290	16910	136351	27322	967505	39116	106657	0	0	8343	598341	0	0
2024-05-13 05:04:32			0	37461	0	0	0	18298	16910	136419	27001	967514	39126	106660	0	0	8344	597672	0	0
2024-05-13 05:05:32			0	37453	0	0	0	18301	16920	136427	27306	967530	39127	106661	0	0	8343	597974	0	0
2024-05-13 05:06:32			0	37442	0	0	0	18314	16910	136503	27189	967593	39116	106666	0	0	8343	598466	0	0
2024-05-13 05:07:32			0	37457	0	0	0	18303	16930	136487	27152	967565	39118	106662	0	0	8344	597774	0	0
2024-05-13 05:08:32			0	37420	0	0	0	18314	16910	136427	27166	967540	39126	106666	0	0	8341	599386	0	0
2024-05-13 05:09:32			0	37451	0	0	0	18316	16920	136379	27182	967522	39138	106667	0	0	8343	598057	0	0
2024-05-13 05:10:32			0	37441	0	0	0	18311	16920	136455	27365	967548	39138	106665	0	0	8343	598475	0	0
2024-05-13 05:11:32			0	37447	0	0	0	18311	16920	136455	27531	967530	39117	106665	0	0	8343	598225	0	0
2024-05-13 05:12:32			0	37441	0	0	0	18314	16920	136383	27571	967548	39126	106666	0	0	8342	598475	0	0
2024-05-13 05:13:32			0	37455	0	0	0	18309	16920	136411	27317	967522	39116	106664	0	0	8343	597890	0	0
2024-05-13 05:14:32			0	37431	0	0	0	18314	16920	136511	27441	967548	39116	106666	0	0	8342	598893	0	0
2024-05-13 05:15:32			0	37437	0	0	0	18314	16930	136503	27291	967538	39128	106666	0	0	8342	598610	0	0
2024-05-13 05:16:32			0	37452	0	0	0	18314	16920	136399	27345	967548	39116	106666	0	0	8343	598016	0	0
2024-05-13 05:17:32			0	37450	0	0	0	18316	16920	136459	27209	967557	39127	106667	0	0	8343	598099	0	0
2024-05-13 05:18:32			0	37435	0	0	0	18316	16930	136531	27360	967573	39118	106667	0	0	8342	598694	0	0
2024-05-13 05:19:32			0	37436	0	0	0	18322	16920	136463	27274	967575	39116	106669	0	0	8342	598684	0	0
2024-05-13 05:20:32			0	37442	0	0	0	18319	16930	136439	27495	967591	39118	106668	0	0	8342	598401	0	0
2024-05-13 05:21:32			0	37457	0	0	0	18314	16920	136451	26961	967522	39126	106666	0	0	8343	597807	0	0
2024-05-13 05:22:32			0	37435	0	0	0	18314	16920	136475	26831	967530	39127	106666	0	0	8342	598726	0	0
2024-05-13 05:23:32			0	37443	0	0	0	18316	16920	136527	27218	967530	39138	106667	0	0	8343	598392	0	0
2024-05-13 05:24:32			0	37436	0	0	0	18309	16920	136479	27053	967583	39117	106664	0	0	8342	598684	0	0
2024-05-13 05:25:32			0	37446	0	0	0	18314	16920	136411	27178	967530	39127	106666	0	0	8343	598266	0	0
2024-05-13 05:26:32			0	37444	0	0	0	18309	16920	136435	27490	967522	39105	106664	0	0	8343	598350	0	0
2024-05-13 05:27:32			0	37433	0	0	0	18314	16920	136363	26998	967496	39126	106666	0	0	8342	598810	0	0
2024-05-13 05:28:32			0	37443	0	0	0	18309	16920	136379	27201	967557	39106	106664	0	0	8343	598392	0	0
2024-05-13 05:29:32			0	37452	0	0	0	18311	16920	136419	27274	967557	39117	106665	0	0	8343	598016	0	0
2024-05-13 05:30:32			0	37444	0	0	0	18311	16920	136367	27428	967548	39116	106665	0	0	8343	598350	0	0
2024-05-13 05:31:32			0	37454	0	0	0	18298	16920	136387	27239	967496	39126	106660	0	0	8343	597932	0	0
2024-05-13 05:32:32			0	37451	0	0	0	18309	16910	136387	27357	967479	39138	106664	0	0	8343	598090	0	0
2024-05-13 05:33:32			0	37450	0	0	0	18311	16920	136399	27270	967530	39127	106665	0	0	8343	598099	0	0
2024-05-13 05:34:32			0	37448	0	0	0	18301	16930	136391	27267	967565	39128	106661	0	0	8343	598150	0	0
2024-05-13 05:35:32			0	37442	0	0	0	18306	16910	136519	27336	967435	39094	106663	0	0	8343	598466	0	0
2024-05-13 05:36:32			0	37457	0	0	0	18298	16910	136347	27376	967540	39105	106660	0	0	8344	597839	0	0
2024-05-13 05:37:32			0	37456	0	0	0	18306	16920	136403	27424	967530	39127	106663	0	0	8343	597849	0	0
2024-05-13 05:38:32			0	37445	0	0	0	18296	16910	136411	27275	967532	39126	106659	0	0	8343	598341	0	0
2024-05-13 05:39:32			0	37445	0	0	0	18298	16910	136463	26918	967487	39116	106660	0	0	8343	598341	0	0
2024-05-13 05:40:32			0	37452	0	0	0	18298	16920	136371	27244	967469	39126	106660	0	0	8343	598016	0	0
2024-05-13 05:41:32			0	37456	0	0	0	18290	16900	136391	27215	967471	39115	106657	0	0	8344	597913	0	0
2024-05-13 05:42:32			0	37465	0	0	0	18293	16900	136319	27390	967444	39115	106658	0	0	8344	597538	0	0
2024-05-13 05:43:32			0	37444	0	0	0	18277	16910	136427	26994	967479	39116	106652	0	0	8343	598382	0	0
2024-05-13 05:44:32			0	37447	0	0	0	18293	16910	136483	27177	967453	39116	106658	0	0	8343	598257	0	0
2024-05-13 05:45:32			0	37463	0	0	0	18288	16910	136463	27497	967461	39116	106656	0	0	8344	597589	0	0
2024-05-13 05:46:32			0	37451	0	0	0	18296	16910	136391	27168	967479	39126	106659	0	0	8343	598090	0	0
2024-05-13 05:47:32			0	37468	0	0	0	18290	16910	136347	26871	967479	39126	106657	0	0	8344	597380	0	0
2024-05-13 05:48:32			0	37471	0	0	0	18296	16890	136399	27213	967481	39114	106659	0	0	8344	597320	0	0
2024-05-13 05:49:32			0	37462	0	0	0	18288	16900	136407	27454	967436	39136	106656	0	0	8344	597663	0	0
2024-05-13 05:50:32			0	37468	0	0	0	18285	16900	136471	27291	967418	39126	106655	0	0	8344	597413	0	0
2024-05-13 05:51:32			0	37476	0	0	0	18288	16890	136455	27284	967402	39114	106656	0	0	8345	597111	0	0
2024-05-13 05:52:32			0	37437	0	0	0	18283	16910	136391	27185	967453	39126	106654	0	0	8343	598675	0	0
2024-05-13 05:53:32			0	37457	0	0	0	18280	16900	136411	27421	967444	39126	106653	0	0	8344	597872	0	0
2024-05-13 05:54:32			0	37470	0	0	0	18275	16890	136371	27107	967402	39114	106651	0	0	8345	597361	0	0
2024-05-13 05:55:32			0	37455	0	0	0	18277	16900	136315	27310	967463	39136	106652	0	0	8344	597955	0	0
2024-05-13 05:56:32			0	37463	0	0	0	18280	16900	136279	27419	967418	39104	106653	0	0	8344	597621	0	0
2024-05-13 05:57:32			0	37467	0	0	0	18283	16890	136287	27326	967402	39125	106654	0	0	8344	597487	0	0
2024-05-13 05:58:32			0	37454	0	0	0	18272	16890	136351	27332	967420	39125	106650	0	0	8344	598030	0	0
2024-05-13 05:59:32			0	37474	0	0	0	18272	16900	136359	27685	967410	39125	106650	0	0	8345	597162	0	0
2024-05-13 06:00:32			0	37473	0	0	0	18277	16900	136327	27440	967383	39115	106652	0	0	8345	597204	0	0
2024-05-13 06:01:32			0	37453	0	0	0	18277	16890	136363	27003	967402	39125	106652	0	0	8344	598071	0	0
2024-05-13 06:02:32			0	37486	0	0	0	18267	16890	136311	27281	967428	39114	106648	0	0	8346	596694	0	0
2024-05-13 06:03:32			0	37471	0	0	0	18272	16890	136347	26944	967393	39125	106650	0	0	8345	597320	0	0
2024-05-13 06:04:32			0	37484	0	0	0	18270	16890	136447	27161	967393	39114	106649	0	0	8345	596777	0	0
2024-05-13 06:05:32			0	37496	0	0	0	18267	16890	136367	27159	967375	39114	106648	0	0	8346	596277	0	0
2024-05-13 06:06:32			0	37486	0	0	0	18262	16890	136363	27303	967375	39114	106646	0	0	8346	596694	0	0
2024-05-13 06:07:32			0	37469	0	0	0	18275	16890	136343	27190	967375	39114	106651	0	0	8345	597403	0	0
2024-05-13 06:08:32			0	37477	0	0	0	18270	16890	136355	27386	967341	39103	106649	0	0	8345	597069	0	0
2024-05-13 06:09:32			0	37470	0	0	0	18272	16890	136323	27138	967420	39103	106650	0	0	8345	597361	0	0
2024-05-13 06:10:32			0	37472	0	0	0	18267	16870	136371	27409	967342	39123	106648	0	0	8345	597343	0	0
2024-05-13 06:11:32			0	37469	0	0	0	18264	16890	136391	27144	967393	39125	106647	0	0	8345	597403	0	0
2024-05-13 06:12:32			0	37474	0	0	0	18262	16880	136387	27445	967456	39134	106646	0	0	8345	597227	0	0
2024-05-13 06:13:32			0	37465	0	0	0	18270	16890	136351	27452	967428	39114	106649	0	0	8344	597570	0	0
2024-05-13 06:14:32			0	37461	0	0	0	18275	16870	136399	27166	967421	39101	106651	0	0	8344	597802	0	0
2024-05-13 06:15:32			0	37472	0	0	0	18262	16870	136455	27126	967316	39112	106646	0	0	8345	597343	0	0
2024-05-13 06:16:32			0	37475	0	0	0	18259	16880	136351	27386	967351	39134	106645	0	0	8345	597185	0	0
2024-05-13 06:17:32			0	37471	0	0	0	18262	16880	136351	27066	967385	39125	106646	0	0	8345	597352	0	0
2024-05-13 06:18:32			0	37472	0	0	0	18254	16870	136427	27428	967334	39112	106643	0	0	8345	597343	0	0
2024-05-13 06:19:32			0	37471	0	0	0	18259	16870	136431	27131	967342	39123	106645	0	0	8345	597384	0	0
2024-05-13 06:20:32			0	37498	0	0	0	18262	16870	136363	27235	967290	39123	106646	0	0	8346	596258	0	0
2024-05-13 06:21:32			0	37491	0	0	0	18262	16870	136339	27398	967334	39123	106646	0	0	8346	596550	0	0
2024-05-13 06:22:32			0	37498	0	0	0	18254	16870	136375	27071	967316	39123	106643	0	0	8346	596258	0	0
2024-05-13 06:23:32			0	37470	0	0	0	18251	16870	136355	27060	967342	39112	106642	0	0	8345	597426	0	0
2024-05-13 06:24:32			0	37481	0	0	0	18246	16860	136455	27029	967326	39123	106640	0	0	8346	596999	0	0
2024-05-13 06:25:32			0	37468	0	0	0	18254	16860	136391	26955	967352	39123	106643	0	0	8345	597542	0	0
2024-05-13 06:26:32			0	37481	0	0	0	18254	16870	136343	27317	967316	39112	106643	0	0	8345	596967	0	0
2024-05-13 06:27:32			0	37458	0	0	0	18251	16870	136367	27267	967281	39123	106642	0	0	8344	597927	0	0
2024-05-13 06:28:32			0	37490	0	0	0	18254	16870	136299	27229	967263	39112	106643	0	0	8346	596591	0	0
2024-05-13 06:29:32			0	37483	0	0	0	18251	16860	136303	27182	967352	39112	106642	0	0	8346	596916	0	0
2024-05-13 06:30:32			0	37487	0	0	0	18257	16870	136455	27142	967334	39123	106644	0	0	8346	596717	0	0
2024-05-13 06:31:32			0	37470	0	0	0	18254	16870	136467	27514	967369	39123	106643	0	0	8345	597426	0	0
2024-05-13 06:32:32			0	37490	0	0	0	18257	16850	136403	27649	967256	39110	106644	0	0	8346	596656	0	0
2024-05-13 06:33:32			0	37480	0	0	0	18259	16870	136403	27059	967369	39112	106645	0	0	8345	597009	0	0
2024-05-13 06:34:32			0	37498	0	0	0	18259	16850	136391	27547	967362	39110	106645	0	0	8346	596323	0	0
2024-05-13 06:35:32			0	37474	0	0	0	18262	16860	136379	27306	967326	39123	106646	0	0	8345	597292	0	0
2024-05-13 06:36:32			0	37472	0	0	0	18257	16870	136411	27164	967360	39123	106644	0	0	8345	597343	0	0
2024-05-13 06:37:32			0	37492	0	0	0	18264	16860	136435	27524	967378	39123	106647	0	0	8346	596540	0	0
2024-05-13 06:38:32			0	37468	0	0	0	18272	16870	136343	27345	967360	39123	106650	0	0	8344	597510	0	0
2024-05-13 06:39:32			0	37472	0	0	0	18267	16890	136367	27322	967420	39103	106648	0	0	8345	597278	0	0
2024-05-13 06:40:32			0	37484	0	0	0	18272	16880	136367	27220	967377	39124	106650	0	0	8345	596809	0	0
2024-05-13 06:41:32			0	37494	0	0	0	18264	16870	136459	27124	967316	39112	106647	0	0	8346	596425	0	0
2024-05-13 06:42:32			0	37500	0	0	0	18275	16870	136359	27196	967387	39112	106651	0	0	8346	596175	0	0
2024-05-13 06:43:32			0	37475	0	0	0	18272	16870	136411	27249	967395	39112	106650	0	0	8345	597217	0	0
2024-05-13 06:44:32			0	37495	0	0	0	18280	16870	136319	27353	967369	39123	106653	0	0	8346	596383	0	0
2024-05-13 06:45:32			0	37477	0	0	0	18275	16880	136407	27173	967456	39134	106651	0	0	8345	597102	0	0
2024-05-13 06:46:32			0	37494	0	0	0	18272	16870	136431	27495	967334	39123	106650	0	0	8346	596425	0	0
2024-05-13 06:47:32			0	37471	0	0	0	18272	16890	136339	27509	967499	39114	106650	0	0	8345	597320	0	0
2024-05-13 06:48:32			0	37485	0	0	0	18277	16880	136395	27364	967403	39113	106652	0	0	8345	596768	0	0
2024-05-13 06:49:32			0	37512	0	0	0	18280	16870	136363	27621	967421	39123	106653	0	0	8347	595674	0	0
2024-05-13 06:50:32			0	37499	0	0	0	18283	16880	136455	27239	967438	39125	106654	0	0	8346	596184	0	0
2024-05-13 06:51:32			0	37484	0	0	0	18275	16880	136435	27452	967412	39125	106651	0	0	8345	596809	0	0
2024-05-13 06:52:32			0	37483	0	0	0	18275	16870	136319	27267	967395	39123	106651	0	0	8345	596884	0	0
2024-05-13 06:53:32			0	37490	0	0	0	18280	16890	136339	27204	967420	39135	106653	0	0	8346	596527	0	0
2024-05-13 06:54:32			0	37492	0	0	0	18272	16870	136375	27194	967369	39123	106650	0	0	8346	596508	0	0
2024-05-13 06:55:32			0	37475	0	0	0	18283	16890	136491	27502	967507	39125	106654	0	0	8345	597153	0	0
2024-05-13 06:56:32			0	37491	0	0	0	18283	16890	136431	27338	967402	39146	106654	0	0	8346	596485	0	0
2024-05-13 06:57:32			0	37476	0	0	0	18277	16890	136387	27504	967454	39125	106652	0	0	8345	597111	0	0
2024-05-13 06:58:32			0	37485	0	0	0	18275	16900	136355	27305	967410	39136	106651	0	0	8345	596703	0	0
2024-05-13 06:59:32			0	37481	0	0	0	18275	16880	136399	27258	967456	39113	106651	0	0	8345	596935	0	0
2024-05-13 07:00:32			0	37495	0	0	0	18280	16890	136339	27310	967393	39125	106653	0	0	8346	596318	0	0
2024-05-13 07:01:32			0	37480	0	0	0	18277	16890	136403	27417	967446	39125	106652	0	0	8345	596944	0	0
2024-05-13 07:02:32			0	37492	0	0	0	18280	16890	136351	27635	967454	39125	106653	0	0	8346	596443	0	0
2024-05-13 07:03:32			0	37508	0	0	0	18285	16890	136411	27341	967454	39125	106655	0	0	8346	595776	0	0
2024-05-13 07:04:32			0	37485	0	0	0	18275	16890	136439	27279	967420	39114	106651	0	0	8345	596735	0	0
2024-05-13 07:05:32			0	37476	0	0	0	18275	16880	136323	27698	967464	39114	106651	0	0	8345	597143	0	0
2024-05-13 07:06:32			0	37475	0	0	0	18270	16890	136455	27606	967473	39125	106649	0	0	8345	597153	0	0
2024-05-13 07:07:32			0	37483	0	0	0	18267	16890	136419	27642	967428	39125	106648	0	0	8345	596819	0	0
2024-05-13 07:08:32			0	37477	0	0	0	18277	16890	136359	27452	967420	39114	106652	0	0	8345	597069	0	0
2024-05-13 07:09:32			0	37498	0	0	0	18283	16890	136427	27511	967446	39114	106654	0	0	8346	596193	0	0
2024-05-13 07:10:32			0	37463	0	0	0	18277	16890	136427	27390	967393	39135	106652	0	0	8344	597654	0	0
2024-05-13 07:11:32			0	37481	0	0	0	18277	16890	136395	27485	967367	39103	106652	0	0	8345	596902	0	0
2024-05-13 07:12:32			0	37479	0	0	0	18267	16890	136439	27504	967393	39114	106648	0	0	8345	596986	0	0
2024-05-13 07:13:32			0	37478	0	0	0	18264	16880	136407	27649	967430	39124	106647	0	0	8345	597060	0	0
2024-05-13 07:14:32			0	37493	0	0	0	18267	16890	136375	27338	967402	39114	106648	0	0	8346	596402	0	0
2024-05-13 07:15:32			0	37488	0	0	0	18259	16870	136303	27310	967369	39123	106645	0	0	8346	596675	0	0
2024-05-13 07:16:32			0	37473	0	0	0	18270	16880	136379	27530	967351	39124	106649	0	0	8345	597268	0	0
2024-05-13 07:17:32			0	37469	0	0	0	18262	16880	136395	27485	967351	39113	106646	0	0	8345	597435	0	0
2024-05-13 07:18:32			0	37478	0	0	0	18262	16870	136339	27743	967369	39133	106646	0	0	8345	597092	0	0
2024-05-13 07:19:32			0	37465	0	0	0	18259	16870	136471	27668	967360	39133	106645	0	0	8344	597635	0	0
2024-05-13 07:20:32			0	37481	0	0	0	18257	16870	136327	27654	967369	39112	106644	0	0	8345	596967	0	0
2024-05-13 07:21:32			0	37481	0	0	0	18251	16880	136327	27284	967306	39114	106642	0	0	8346	596935	0	0
2024-05-13 07:22:32			0	37488	0	0	0	18257	16870	136359	27220	967360	39112	106644	0	0	8346	596675	0	0
2024-05-13 07:23:32			0	37481	0	0	0	18257	16870	136407	27253	967360	39123	106644	0	0	8345	596967	0	0
2024-05-13 07:24:32			0	37469	0	0	0	18264	16890	136355	27272	967367	39125	106647	0	0	8345	597403	0	0
2024-05-13 07:25:32			0	37476	0	0	0	18257	16870	136379	27131	967387	39144	106644	0	0	8345	597176	0	0
2024-05-13 07:26:32			0	37489	0	0	0	18259	16870	136463	27547	967360	39112	106645	0	0	8346	596633	0	0
2024-05-13 07:27:32			0	37477	0	0	0	18254	16860	136411	27443	967352	39123	106643	0	0	8345	597166	0	0
2024-05-13 07:28:32			0	37481	0	0	0	18257	16880	136431	27215	967377	39124	106644	0	0	8345	596935	0	0
2024-05-13 07:29:32			0	37483	0	0	0	18257	16870	136387	27197	967316	39123	106644	0	0	8345	596884	0	0
2024-05-13 07:30:32			0	37467	0	0	0	18264	16870	136411	27675	967369	39123	106647	0	0	8345	597551	0	0
2024-05-13 07:31:32			0	37463	0	0	0	18262	16870	136395	27566	967413	39123	106646	0	0	8344	597718	0	0
2024-05-13 07:32:32			0	37480	0	0	0	18272	16890	136379	27372	967393	39114	106650	0	0	8345	596944	0	0
2024-05-13 07:33:32			0	37493	0	0	0	18272	16870	136455	27220	967360	39123	106650	0	0	8346	596466	0	0
2024-05-13 07:34:32			0	37485	0	0	0	18270	16880	136395	27500	967377	39124	106649	0	0	8345	596768	0	0
2024-05-13 07:35:32			0	37488	0	0	0	18272	16880	136475	27365	967377	39124	106650	0	0	8346	596643	0	0
2024-05-13 07:36:32			0	37499	0	0	0	18267	16880	136371	27320	967430	39113	106648	0	0	8346	596184	0	0
2024-05-13 07:37:32			0	37496	0	0	0	18275	16890	136339	27485	967473	39135	106651	0	0	8346	596277	0	0
2024-05-13 07:38:32			0	37480	0	0	0	18280	16890	136327	27289	967393	39114	106653	0	0	8345	596944	0	0
2024-05-13 07:39:32			0	37483	0	0	0	18285	16890	136379	27322	967454	39125	106655	0	0	8345	596819	0	0
2024-05-13 07:40:32			0	37495	0	0	0	18280	16870	136335	27445	967369	39112	106653	0	0	8346	596383	0	0
2024-05-13 07:41:32			0	37501	0	0	0	18290	16900	136283	27471	967489	39115	106657	0	0	8346	596036	0	0
2024-05-13 07:42:32			0	37506	0	0	0	18288	16900	136343	27333	967497	39115	106656	0	0	8346	595827	0	0
2024-05-13 07:43:32			0	37510	0	0	0	18285	16890	136263	27412	967481	39114	106655	0	0	8347	595693	0	0
2024-05-13 07:44:32			0	37510	0	0	0	18293	16900	136255	27313	967489	39125	106658	0	0	8346	595661	0	0
2024-05-13 07:45:32			0	37490	0	0	0	18293	16910	136307	27505	967479	39116	106658	0	0	8345	596462	0	0
2024-05-13 07:46:32			0	37507	0	0	0	18290	16900	136227	27360	967436	39136	106657	0	0	8346	595786	0	0
2024-05-13 07:47:32			0	37505	0	0	0	18290	16890	136263	27414	967507	39125	106657	0	0	8346	595901	0	0
2024-05-13 07:48:32			0	37516	0	0	0	18298	16900	136279	27190	967463	39125	106660	0	0	8347	595411	0	0
2024-05-13 07:49:32			0	37491	0	0	0	18298	16890	136231	27530	967454	39135	106660	0	0	8345	596485	0	0
2024-05-13 07:50:32			0	37506	0	0	0	18303	16900	136263	27495	967410	39115	106662	0	0	8346	595827	0	0
2024-05-13 07:51:32			0	37508	0	0	0	18296	16900	136171	27218	967497	39126	106659	0	0	8346	595744	0	0
2024-05-13 07:52:32			0	37519	0	0	0	18301	16910	136263	27248	967532	39126	106661	0	0	8347	595254	0	0
2024-05-13 07:53:32			0	37518	0	0	0	18298	16900	136259	27336	967497	39148	106660	0	0	8347	595328	0	0
2024-05-13 07:54:32			0	37505	0	0	0	18301	16900	136255	27312	967524	39137	106661	0	0	8346	595869	0	0
2024-05-13 07:55:32			0	37527	0	0	0	18298	16900	136247	27293	967524	39115	106660	0	0	8347	594953	0	0
2024-05-13 07:56:32			0	37518	0	0	0	18298	16910	136143	27090	967532	39126	106660	0	0	8347	595295	0	0
2024-05-13 07:57:32			0	37518	0	0	0	18301	16910	136219	27265	967479	39138	106661	0	0	8347	595295	0	0
2024-05-13 07:58:32			0	37536	0	0	0	18303	16900	136299	27199	967550	39137	106662	0	0	8348	594578	0	0
2024-05-13 07:59:32			0	37514	0	0	0	18306	16910	136327	27473	967540	39138	106663	0	0	8346	595462	0	0
2024-05-13 08:00:32			0	37525	0	0	0	18311	16910	136243	27431	967566	39126	106665	0	0	8347	595004	0	0
2024-05-13 08:01:32			0	37526	0	0	0	18316	16910	136203	27419	967566	39126	106667	0	0	8347	594962	0	0
2024-05-13 08:02:32			0	37525	0	0	0	18316	16910	136239	27227	967540	39126	106667	0	0	8347	595004	0	0
2024-05-13 08:03:32			0	37532	0	0	0	18319	16920	136231	27493	967548	39138	106668	0	0	8347	594680	0	0
2024-05-13 08:04:32			0	37526	0	0	0	18314	16910	136223	27500	967566	39126	106666	0	0	8347	594962	0	0
2024-05-13 08:05:32			0	37521	0	0	0	18319	16930	136163	27488	967565	39128	106668	0	0	8347	595106	0	0
2024-05-13 08:06:32			0	37522	0	0	0	18316	16920	136123	27251	967636	39138	106667	0	0	8347	595097	0	0
2024-05-13 08:07:32			0	37516	0	0	0	18319	16920	136191	27308	967627	39126	106668	0	0	8346	595346	0	0
2024-05-13 08:08:32			0	37520	0	0	0	18329	16930	136183	27170	967652	39139	106672	0	0	8346	595148	0	0
2024-05-13 08:09:32			0	37524	0	0	0	18327	16930	136195	27301	967652	39139	106671	0	0	8347	594981	0	0
2024-05-13 08:10:32			0	37517	0	0	0	18332	16940	136191	27488	967660	39139	106673	0	0	8346	595240	0	0
2024-05-13 08:11:32			0	37534	0	0	0	18332	16940	136167	27395	967634	39139	106673	0	0	8347	594533	0	0
2024-05-13 08:12:32			0	37507	0	0	0	18329	16940	136191	27381	967695	39129	106672	0	0	8346	595657	0	0
2024-05-13 08:13:32			0	37513	0	0	0	18335	16940	136223	27229	967634	39128	106674	0	0	8346	595407	0	0
2024-05-13 08:14:32			0	37513	0	0	0	18332	16940	136207	27208	967669	39140	106673	0	0	8346	595407	0	0
2024-05-13 08:15:32			0	37515	0	0	0	18335	16940	136279	27372	967695	39140	106674	0	0	8346	595323	0	0
2024-05-13 08:16:32			0	37508	0	0	0	18335	16940	136203	27566	967669	39129	106674	0	0	8346	595615	0	0
2024-05-13 08:17:32			0	37496	0	0	0	18337	16940	136223	27206	967695	39119	106675	0	0	8345	596115	0	0
2024-05-13 08:18:32			0	37507	0	0	0	18337	16950	136231	27492	967677	39130	106675	0	0	8346	595624	0	0
2024-05-13 08:19:32			0	37504	0	0	0	18340	16940	136211	27230	967721	39119	106676	0	0	8345	595782	0	0
2024-05-13 08:20:32			0	37518	0	0	0	18337	16940	136199	27502	967695	39129	106675	0	0	8346	595198	0	0
2024-05-13 08:21:32			0	37521	0	0	0	18350	16950	136315	27559	967711	39141	106680	0	0	8346	595041	0	0
2024-05-13 08:22:32			0	37503	0	0	0	18342	16950	136251	27519	967738	39130	106677	0	0	8345	595791	0	0
2024-05-13 08:23:32			0	37497	0	0	0	18342	16960	136235	27334	967746	39141	106677	0	0	8345	596009	0	0
2024-05-13 08:24:32			0	37503	0	0	0	18355	16950	136283	27587	967756	39141	106682	0	0	8345	595791	0	0
2024-05-13 08:25:32			0	37519	0	0	0	18350	16960	136207	27353	967807	39142	106680	0	0	8346	595092	0	0
2024-05-13 08:26:32			0	37500	0	0	0	18353	16960	136303	27559	967773	39130	106681	0	0	8345	595884	0	0
2024-05-13 08:27:32			0	37509	0	0	0	18353	16950	136211	27294	967791	39141	106681	0	0	8346	595541	0	0
2024-05-13 08:28:32			0	37492	0	0	0	18353	16960	136223	27445	967746	39152	106681	0	0	8345	596217	0	0
2024-05-13 08:29:32			0	37510	0	0	0	18368	16970	136239	27289	967763	39143	106687	0	0	8345	595435	0	0
2024-05-13 08:30:32			0	37504	0	0	0	18358	16970	136275	27199	967815	39143	106683	0	0	8345	595685	0	0
2024-05-13 08:31:32			0	37500	0	0	0	18353	16970	136159	27268	967876	39133	106681	0	0	8345	595851	0	0
2024-05-13 08:32:32			0	37499	0	0	0	18361	16970	136295	27190	967850	39144	106684	0	0	8345	595893	0	0
2024-05-13 08:33:32			0	37513	0	0	0	18361	16960	136275	27379	967773	39141	106684	0	0	8346	595342	0	0
2024-05-13 08:34:32			0	37493	0	0	0	18371	16970	136299	27462	967842	39143	106688	0	0	8344	596143	0	0
2024-05-13 08:35:32			0	37491	0	0	0	18371	16980	136235	27249	967885	39144	106688	0	0	8344	596194	0	0
2024-05-13 08:36:32			0	37490	0	0	0	18366	16980	136235	27320	967832	39155	106686	0	0	8344	596236	0	0
2024-05-13 08:37:32			0	37506	0	0	0	18363	16980	136183	27514	967840	39144	106685	0	0	8345	595569	0	0
2024-05-13 08:38:32			0	37488	0	0	0	18374	16980	136399	27616	967858	39144	106689	0	0	8344	596319	0	0
2024-05-13 08:39:32			0	37504	0	0	0	18374	16970	136259	27215	967824	39144	106689	0	0	8345	595685	0	0
2024-05-13 08:40:32			0	37507	0	0	0	18371	16990	136347	27618	967901	39133	106688	0	0	8345	595495	0	0
2024-05-13 08:41:32			0	37498	0	0	0	18368	16980	136287	27724	967832	39144	106687	0	0	8345	595902	0	0
2024-05-13 08:42:32			0	37495	0	0	0	18376	16980	136319	27313	967866	39144	106690	0	0	8345	596028	0	0
2024-05-13 08:43:32			0	37485	0	0	0	18376	16970	136275	27390	967850	39133	106690	0	0	8344	596477	0	0
2024-05-13 08:44:32			0	37502	0	0	0	18371	16980	136347	27497	967761	39155	106688	0	0	8345	595736	0	0
2024-05-13 08:45:32			0	37505	0	0	0	18368	16980	136331	27038	967840	39122	106687	0	0	8345	595611	0	0
2024-05-13 08:46:32			0	37490	0	0	0	18371	16980	136303	27569	967866	39122	106688	0	0	8344	596236	0	0
2024-05-13 08:47:32			0	37479	0	0	0	18374	16990	136371	27208	967875	39133	106689	0	0	8344	596662	0	0
2024-05-13 08:48:32			0	37473	0	0	0	18379	16990	136251	27211	967848	39145	106691	0	0	8343	596912	0	0
2024-05-13 08:49:32			0	37499	0	0	0	18376	16980	136263	27274	967858	39133	106690	0	0	8345	595861	0	0
2024-05-13 08:50:32			0	37495	0	0	0	18371	16990	136379	27043	967848	39145	106688	0	0	8345	595995	0	0
2024-05-13 08:51:32			0	37490	0	0	0	18371	17000	136379	27438	967891	39124	106688	0	0	8344	596171	0	0
2024-05-13 08:52:32			0	37479	0	0	0	18376	16990	136299	27325	967883	39145	106690	0	0	8344	596662	0	0
2024-05-13 08:53:32			0	37499	0	0	0	18376	16980	136323	27507	967919	39144	106690	0	0	8345	595861	0	0
2024-05-13 08:54:32			0	37484	0	0	0	18376	16990	136351	27386	967857	39134	106690	0	0	8344	596454	0	0
2024-05-13 08:55:32			0	37492	0	0	0	18376	16990	136327	27152	967910	39134	106690	0	0	8344	596120	0	0
2024-05-13 08:56:32			0	37484	0	0	0	18381	16980	136319	27514	967893	39133	106692	0	0	8344	596486	0	0
2024-05-13 08:57:32			0	37482	0	0	0	18381	16990	136251	27317	967875	39145	106692	0	0	8344	596537	0	0
2024-05-13 08:58:32			0	37465	0	0	0	18379	16990	136271	27390	967910	39134	106691	0	0	8343	597246	0	0
2024-05-13 08:59:32			0	37485	0	0	0	18376	17000	136283	27412	967839	39134	106690	0	0	8344	596380	0	0
2024-05-13 09:00:32			0	37483	0	0	0	18379	16980	136283	27326	967946	39133	106691	0	0	8344	596528	0	0
2024-05-13 09:01:32			0	37472	0	0	0	18379	16990	136191	27467	967883	39134	106691	0	0	8343	596954	0	0
2024-05-13 09:02:32			0	37484	0	0	0	18381	17000	136295	27608	967971	39134	106692	0	0	8344	596421	0	0
2024-05-13 09:03:32			0	37486	0	0	0	18381	16980	136267	27428	967919	39144	106692	0	0	8344	596403	0	0
2024-05-13 09:04:32			0	37472	0	0	0	18386	17000	136235	27381	967891	39145	106694	0	0	8343	596922	0	0
2024-05-13 09:05:32			0	37471	0	0	0	18371	16980	136291	27388	967893	39122	106688	0	0	8343	597028	0	0
2024-05-13 09:06:32			0	37478	0	0	0	18379	16990	136247	27367	967875	39133	106691	0	0	8344	596704	0	0
2024-05-13 09:07:32			0	37490	0	0	0	18386	17000	136315	27258	967926	39145	106694	0	0	8344	596171	0	0
2024-05-13 09:08:32			0	37489	0	0	0	18392	17000	136279	27595	967926	39145	106696	0	0	8344	596213	0	0
2024-05-13 09:09:32			0	37492	0	0	0	18394	16990	136279	27486	967962	39134	106697	0	0	8344	596120	0	0
2024-05-13 09:10:32			0	37488	0	0	0	18386	17000	136319	27556	967926	39134	106694	0	0	8344	596255	0	0
2024-05-13 09:11:32			0	37485	0	0	0	18392	17010	136387	27338	967961	39157	106696	0	0	8344	596347	0	0
2024-05-13 09:12:32			0	37499	0	0	0	18389	17010	136291	27312	967961	39135	106695	0	0	8345	595764	0	0
2024-05-13 09:13:32			0	37474	0	0	0	18394	17000	136267	27412	967979	39134	106697	0	0	8343	596838	0	0
2024-05-13 09:14:32			0	37488	0	0	0	18394	17000	136295	27562	967952	39157	106697	0	0	8344	596255	0	0
2024-05-13 09:15:32			0	37503	0	0	0	18397	17020	136283	27523	967977	39147	106698	0	0	8345	595565	0	0
2024-05-13 09:16:32			0	37477	0	0	0	18402	17020	136339	27301	967951	39147	106700	0	0	8343	596648	0	0
2024-05-13 09:17:32			0	37495	0	0	0	18399	17000	136295	27345	967997	39145	106699	0	0	8344	595963	0	0
2024-05-13 09:18:32			0	37486	0	0	0	18397	17000	136271	27251	967979	39134	106698	0	0	8344	596338	0	0
2024-05-13 09:19:32			0	37502	0	0	0	18405	17020	136207	27533	967977	39136	106701	0	0	8345	595607	0	0
2024-05-13 09:20:32			0	37494	0	0	0	18410	17010	136219	27249	967987	39146	106703	0	0	8344	595972	0	0
2024-05-13 09:21:32			0	37495	0	0	0	18402	17010	136259	27433	967943	39147	106700	0	0	8344	595931	0	0
2024-05-13 09:22:32			0	37504	0	0	0	18407	17020	136227	27272	968030	39147	106702	0	0	8345	595523	0	0
2024-05-13 09:23:32			0	37495	0	0	0	18407	17010	136207	27575	968022	39136	106702	0	0	8344	595931	0	0
2024-05-13 09:24:32			0	37493	0	0	0	18410	17020	136255	27189	968030	39147	106703	0	0	8344	595982	0	0
2024-05-13 09:25:32			0	37500	0	0	0	18402	17010	136143	27410	968022	39136	106700	0	0	8344	595722	0	0
2024-05-13 09:26:32			0	37509	0	0	0	18405	17010	136223	27336	967987	39135	106701	0	0	8345	595347	0	0
2024-05-13 09:27:32			0	37497	0	0	0	18402	17010	136247	27208	967995	39158	106700	0	0	8344	595847	0	0
2024-05-13 09:28:32			0	37507	0	0	0	18410	17010	136215	27531	967969	39147	106703	0	0	8345	595431	0	0
2024-05-13 09:29:32			0	37495	0	0	0	18415	17020	136179	27417	967977	39147	106705	0	0	8344	595898	0	0
2024-05-13 09:30:32			0	37502	0	0	0	18405	17030	136091	27081	968073	39148	106701	0	0	8345	595574	0	0
2024-05-13 09:31:32			0	37505	0	0	0	18412	17020	136123	27556	967951	39136	106704	0	0	8345	595482	0	0
2024-05-13 09:32:32			0	37500	0	0	0	18407	17020	136091	27599	968004	39136	106702	0	0	8344	595690	0	0
2024-05-13 09:33:32			0	37534	0	0	0	18412	17030	136167	27303	968073	39148	106704	0	0	8346	594242	0	0
2024-05-13 09:34:32			0	37493	0	0	0	18412	17020	136155	27672	968038	39147	106704	0	0	8344	595982	0	0
2024-05-13 09:35:32			0	37502	0	0	0	18420	17020	136075	27223	968056	39147	106707	0	0	8344	595607	0	0
2024-05-13 09:36:32			0	37502	0	0	0	18412	17020	136199	27604	968012	39136	106704	0	0	8344	595607	0	0
2024-05-13 09:37:32			0	37497	0	0	0	18405	17020	136199	27350	968004	39158	106701	0	0	8344	595815	0	0
2024-05-13 09:38:32			0	37505	0	0	0	18407	17020	136155	27282	968038	39147	106702	0	0	8345	595482	0	0
2024-05-13 09:39:32			0	37518	0	0	0	18410	17020	136167	27450	968038	39136	106703	0	0	8345	594940	0	0
2024-05-13 09:40:32			0	37498	0	0	0	18402	17020	136247	27341	967985	39158	106700	0	0	8344	595773	0	0
2024-05-13 09:41:32			0	37527	0	0	0	18407	17030	136175	27265	967994	39159	106702	0	0	8346	594534	0	0
2024-05-13 09:42:32			0	37508	0	0	0	18399	17030	136235	27590	967967	39148	106699	0	0	8345	595324	0	0
2024-05-13 09:43:32			0	37510	0	0	0	18405	17020	136175	27445	967985	39136	106701	0	0	8345	595273	0	0
2024-05-13 09:44:32			0	37487	0	0	0	18399	17020	136107	27320	968004	39136	106699	0	0	8344	596232	0	0
2024-05-13 09:45:32			0	37509	0	0	0	18392	17020	136263	27627	968004	39147	106696	0	0	8345	595315	0	0
2024-05-13 09:46:32			0	37511	0	0	0	18405	17020	136135	27289	967985	39158	106701	0	0	8345	595232	0	0
2024-05-13 09:47:32			0	37500	0	0	0	18399	17010	136243	27235	967943	39147	106699	0	0	8345	595722	0	0
2024-05-13 09:48:32			0	37514	0	0	0	18405	17020	136147	27154	967959	39147	106701	0	0	8345	595107	0	0
2024-05-13 09:49:32			0	37497	0	0	0	18392	17020	136187	27258	968065	39147	106696	0	0	8345	595815	0	0
2024-05-13 09:50:32			0	37501	0	0	0	18386	17010	136199	27211	967995	39158	106694	0	0	8345	595681	0	0
2024-05-13 09:51:32			0	37509	0	0	0	18381	17020	136127	27512	967977	39147	106692	0	0	8345	595315	0	0
2024-05-13 09:52:32			0	37516	0	0	0	18384	17010	136087	27123	967908	39125	106693	0	0	8346	595056	0	0
2024-05-13 09:53:32			0	37501	0	0	0	18386	17000	136195	27206	967865	39145	106694	0	0	8345	595713	0	0
2024-05-13 09:54:32			0	37506	0	0	0	18384	17010	136207	27523	967934	39146	106693	0	0	8345	595472	0	0
2024-05-13 09:55:32			0	37514	0	0	0	18384	17010	136175	27397	967943	39147	106693	0	0	8346	595139	0	0
2024-05-13 09:56:32			0	37521	0	0	0	18374	17000	136179	27533	967900	39145	106689	0	0	8346	594880	0	0
2024-05-13 09:57:32			0	37507	0	0	0	18384	17010	136239	27490	967961	39135	106693	0	0	8345	595431	0	0
2024-05-13 09:58:32			0	37512	0	0	0	18381	17000	136159	27673	967839	39145	106692	0	0	8345	595255	0	0
2024-05-13 09:59:32			0	37522	0	0	0	18376	17000	136195	27504	967926	39145	106690	0	0	8346	594838	0	0
2024-05-13 10:00:32			0	37523	0	0	0	18376	17010	136211	27097	968014	39157	106690	0	0	8346	594765	0	0
2024-05-13 10:01:32			0	37512	0	0	0	18381	17010	136215	27395	968014	39135	106692	0	0	8345	595222	0	0
2024-05-13 10:02:32			0	37506	0	0	0	18384	17000	136167	27646	968032	39145	106693	0	0	8345	595504	0	0
2024-05-13 10:03:32			0	37522	0	0	0	18379	17000	136215	27519	967952	39134	106691	0	0	8346	594838	0	0
2024-05-13 10:04:32			0	37531	0	0	0	18386	17000	136219	27438	967952	39134	106694	0	0	8346	594464	0	0
2024-05-13 10:05:32			0	37527	0	0	0	18386	17000	136179	27280	967997	39134	106694	0	0	8346	594630	0	0
2024-05-13 10:06:32			0	37523	0	0	0	18381	17000	136267	27497	967891	39145	106692	0	0	8346	594797	0	0
2024-05-13 10:07:32			0	37511	0	0	0	18386	17000	136139	27310	967952	39145	106694	0	0	8345	595296	0	0
2024-05-13 10:08:32			0	37520	0	0	0	18376	17010	136199	27729	967934	39157	106690	0	0	8346	594889	0	0
2024-05-13 10:09:32			0	37511	0	0	0	18374	17000	136167	27332	967926	39145	106689	0	0	8346	595296	0	0
2024-05-13 10:10:32			0	37528	0	0	0	18376	16990	136103	27627	967883	39167	106690	0	0	8346	594621	0	0
2024-05-13 10:11:32			0	37524	0	0	0	18379	17000	136151	27362	967944	39145	106691	0	0	8346	594755	0	0
2024-05-13 10:12:32			0	37524	0	0	0	18374	17000	136195	27275	967891	39145	106689	0	0	8346	594755	0	0
2024-05-13 10:13:32			0	37522	0	0	0	18371	17000	136187	27426	967926	39134	106688	0	0	8346	594838	0	0
2024-05-13 10:14:32			0	37522	0	0	0	18368	17000	136055	27481	967891	39145	106687	0	0	8346	594838	0	0
2024-05-13 10:15:32			0	37525	0	0	0	18386	17000	136119	27319	967944	39134	106694	0	0	8346	594713	0	0
2024-05-13 10:16:32			0	37541	0	0	0	18371	16990	136163	27358	967962	39145	106688	0	0	8347	594080	0	0
2024-05-13 10:17:32			0	37519	0	0	0	18376	16990	136103	27409	967883	39145	106690	0	0	8346	594995	0	0
2024-05-13 10:18:32			0	37519	0	0	0	18379	17000	136107	27416	967918	39134	106691	0	0	8346	594963	0	0
2024-05-13 10:19:32			0	37518	0	0	0	18392	17000	136107	27216	967918	39145	106696	0	0	8346	595005	0	0
2024-05-13 10:20:32			0	37534	0	0	0	18384	17000	136003	27474	967952	39145	106693	0	0	8347	594339	0	0
2024-05-13 10:21:32			0	37524	0	0	0	18386	17000	136091	27341	968005	39145	106694	0	0	8346	594755	0	0
2024-05-13 10:22:32			0	37530	0	0	0	18381	17010	136055	27651	967961	39146	106692	0	0	8346	594473	0	0
2024-05-13 10:23:32			0	37540	0	0	0	18374	17000	136131	27241	967971	39134	106689	0	0	8347	594090	0	0
2024-05-13 10:24:32			0	37520	0	0	0	18381	17000	136083	27578	967979	39145	106692	0	0	8346	594922	0	0
2024-05-13 10:25:32			0	37526	0	0	0	18376	17000	136131	27255	967952	39145	106690	0	0	8346	594672	0	0
2024-05-13 10:26:32			0	37533	0	0	0	18374	16990	136067	27499	967910	39145	106689	0	0	8347	594413	0	0
2024-05-13 10:27:32			0	37528	0	0	0	18366	17000	136211	27422	967944	39145	106686	0	0	8347	594589	0	0
2024-05-13 10:28:32			0	37530	0	0	0	18374	17000	136127	27743	967926	39124	106689	0	0	8347	594506	0	0
2024-05-13 10:29:32			0	37529	0	0	0	18376	16990	136047	27426	967901	39133	106690	0	0	8346	594579	0	0
2024-05-13 10:30:32			0	37532	0	0	0	18371	17000	136151	27412	967865	39145	106688	0	0	8347	594422	0	0
2024-05-13 10:31:32			0	37540	0	0	0	18366	17000	136099	27538	967865	39145	106686	0	0	8347	594090	0	0
2024-05-13 10:32:32			0	37545	0	0	0	18374	16990	136035	27341	967883	39145	106689	0	0	8347	593914	0	0
2024-05-13 10:33:32			0	37539	0	0	0	18368	16990	136127	27284	967883	39134	106687	0	0	8347	594163	0	0
2024-05-13 10:34:32			0	37547	0	0	0	18366	16990	136039	27824	967875	39156	106686	0	0	8347	593831	0	0
2024-05-13 10:35:32			0	37546	0	0	0	18374	17000	136051	27587	967891	39145	106689	0	0	8347	593840	0	0
2024-05-13 10:36:32			0	37526	0	0	0	18363	16980	136131	27562	967911	39155	106685	0	0	8346	594736	0	0
2024-05-13 10:37:32			0	37539	0	0	0	18358	16980	136051	27481	967866	39144	106683	0	0	8347	594196	0	0
2024-05-13 10:38:32			0	37537	0	0	0	18363	16990	136031	27739	967857	39145	106685	0	0	8347	594247	0	0
2024-05-13 10:39:32			0	37553	0	0	0	18355	16990	136019	27327	967822	39133	106682	0	0	8348	593581	0	0
2024-05-13 10:40:32			0	37546	0	0	0	18348	16980	136083	27573	967814	39133	106679	0	0	8348	593904	0	0
2024-05-13 10:41:32			0	37549	0	0	0	18337	16980	136107	27656	967805	39144	106675	0	0	8348	593780	0	0
2024-05-13 10:42:32			0	37545	0	0	0	18342	16980	136059	27459	967832	39133	106677	0	0	8348	593946	0	0
2024-05-13 10:43:32			0	37549	0	0	0	18332	16970	136075	27729	967744	39133	106673	0	0	8348	593812	0	0
2024-05-13 10:44:32			0	37560	0	0	0	18327	16970	135947	27483	967736	39132	106671	0	0	8349	593355	0	0
2024-05-13 10:45:32			0	37550	0	0	0	18309	16960	136027	27509	967728	39131	106664	0	0	8348	593803	0	0
2024-05-13 10:46:32			0	37560	0	0	0	18316	16960	136087	27417	967746	39130	106667	0	0	8349	593387	0	0
2024-05-13 10:47:32			0	37558	0	0	0	18303	16940	136059	27372	967695	39129	106662	0	0	8349	593535	0	0
2024-05-13 10:48:32			0	37551	0	0	0	18306	16960	135943	27672	967720	39130	106663	0	0	8349	593761	0	0
2024-05-13 10:49:32			0	37575	0	0	0	18301	16950	136039	27573	967738	39120	106661	0	0	8350	592796	0	0
2024-05-13 10:50:32			0	37560	0	0	0	18303	16950	136083	27526	967703	39141	106662	0	0	8349	593419	0	0
2024-05-13 10:51:32			0	37572	0	0	0	18301	16950	135995	27656	967650	39130	106661	0	0	8350	592921	0	0
2024-05-13 10:52:32			0	37568	0	0	0	18296	16930	136011	27391	967652	39139	106659	0	0	8350	593151	0	0
2024-05-13 10:53:32			0	37555	0	0	0	18288	16920	136011	27737	967601	39116	106656	0	0	8349	593724	0	0
2024-05-13 10:54:32			0	37558	0	0	0	18298	16930	136047	27628	967626	39128	106660	0	0	8349	593567	0	0
2024-05-13 10:55:32			0	37588	0	0	0	18288	16940	136127	27659	967616	39140	106656	0	0	8351	592288	0	0
2024-05-13 10:56:32			0	37591	0	0	0	18290	16920	136063	27725	967557	39117	106657	0	0	8351	592228	0	0
2024-05-13 10:57:32			0	37579	0	0	0	18296	16930	136015	27391	967618	39139	106659	0	0	8350	592694	0	0
2024-05-13 10:58:32			0	37579	0	0	0	18293	16930	136087	27310	967591	39118	106658	0	0	8350	592694	0	0
2024-05-13 10:59:32			0	37592	0	0	0	18285	16920	136067	27393	967609	39117	106655	0	0	8351	592187	0	0
2024-05-13 11:00:32			0	37595	0	0	0	18293	16920	136051	27523	967575	39126	106658	0	0	8351	592062	0	0
2024-05-13 11:01:32			0	37595	0	0	0	18298	16910	135979	27845	967593	39116	106660	0	0	8351	592094	0	0
2024-05-13 11:02:32			0	37593	0	0	0	18296	16910	135967	27737	967619	39126	106659	0	0	8351	592177	0	0
2024-05-13 11:03:32			0	37594	0	0	0	18290	16910	136023	27253	967558	39126	106657	0	0	8351	592136	0	0
2024-05-13 11:04:32			0	37589	0	0	0	18283	16920	135987	27360	967575	39116	106654	0	0	8351	592311	0	0
2024-05-13 11:05:32			0	37590	0	0	0	18285	16910	136063	27611	967585	39116	106655	0	0	8351	592302	0	0
2024-05-13 11:06:32			0	37595	0	0	0	18283	16900	135999	27814	967550	39126	106654	0	0	8351	592126	0	0
2024-05-13 11:07:32			0	37596	0	0	0	18288	16900	135947	27878	967515	39125	106656	0	0	8351	592085	0	0
2024-05-13 11:08:32			0	37591	0	0	0	18285	16910	135923	27710	967585	39116	106655	0	0	8351	592260	0	0
2024-05-13 11:09:32			0	37601	0	0	0	18285	16900	135927	27559	967524	39126	106655	0	0	8351	591877	0	0
2024-05-13 11:10:32			0	37624	0	0	0	18288	16900	136007	27569	967550	39126	106656	0	0	8353	590923	0	0
2024-05-13 11:11:32			0	37610	0	0	0	18283	16900	135935	27287	967524	39126	106654	0	0	8352	591504	0	0
2024-05-13 11:12:32			0	37617	0	0	0	18283	16900	135891	27528	967550	39137	106654	0	0	8352	591214	0	0
2024-05-13 11:13:32			0	37594	0	0	0	18280	16900	136007	27291	967524	39126	106653	0	0	8351	592168	0	0
2024-05-13 11:14:32			0	37617	0	0	0	18280	16900	135955	27346	967524	39137	106653	0	0	8352	591214	0	0
2024-05-13 11:15:32			0	37606	0	0	0	18288	16900	135971	27658	967524	39126	106656	0	0	8352	591670	0	0
2024-05-13 11:16:32			0	37635	0	0	0	18277	16900	135911	27606	967524	39137	106652	0	0	8353	590468	0	0
2024-05-13 11:17:32			0	37627	0	0	0	18283	16900	135899	27391	967576	39126	106654	0	0	8353	590799	0	0
2024-05-13 11:18:32			0	37614	0	0	0	18280	16910	135939	27679	967532	39126	106653	0	0	8352	591306	0	0
2024-05-13 11:19:32			0	37637	0	0	0	18283	16900	135915	27533	967497	39137	106654	0	0	8353	590385	0	0
2024-05-13 11:20:32			0	37643	0	0	0	18283	16900	135883	27613	967497	39126	106654	0	0	8354	590136	0	0
2024-05-13 11:21:32			0	37631	0	0	0	18280	16900	135807	27267	967550	39148	106653	0	0	8353	590633	0	0
2024-05-13 11:22:32			0	37638	0	0	0	18272	16900	135827	27360	967550	39126	106650	0	0	8354	590343	0	0
2024-05-13 11:23:32			0	37639	0	0	0	18277	16890	135823	27507	967507	39125	106652	0	0	8353	590334	0	0
2024-05-13 11:24:32			0	37643	0	0	0	18270	16900	135851	27341	967515	39115	106649	0	0	8354	590136	0	0
2024-05-13 11:25:32			0	37638	0	0	0	18277	16890	135851	27261	967507	39125	106652	0	0	8353	590375	0	0
2024-05-13 11:26:32			0	37638	0	0	0	18270	16900	135819	27694	967542	39136	106649	0	0	8354	590343	0	0
2024-05-13 11:27:32			0	37657	0	0	0	18275	16900	135863	27196	967471	39126	106651	0	0	8354	589557	0	0
2024-05-13 11:28:32			0	37646	0	0	0	18272	16890	135803	27149	967473	39125	106650	0	0	8354	590044	0	0
2024-05-13 11:29:32			0	37634	0	0	0	18262	16900	135863	27454	967524	39126	106646	0	0	8353	590509	0	0
2024-05-13 11:30:32			0	37653	0	0	0	18267	16910	135815	27635	967479	39126	106648	0	0	8354	589690	0	0
2024-05-13 11:31:32			0	37652	0	0	0	18262	16890	135847	27147	967525	39103	106646	0	0	8354	589796	0	0
2024-05-13 11:32:32			0	37657	0	0	0	18262	16900	135783	27339	967471	39126	106646	0	0	8355	589557	0	0
2024-05-13 11:33:32			0	37669	0	0	0	18259	16890	135763	27154	967473	39125	106645	0	0	8355	589092	0	0
2024-05-13 11:34:32			0	37650	0	0	0	18262	16870	135667	27416	967448	39123	106646	0	0	8354	589942	0	0
2024-05-13 11:35:32			0	37680	0	0	0	18262	16870	135663	27267	967421	39123	106646	0	0	8356	588701	0	0
2024-05-13 11:36:32			0	37686	0	0	0	18264	16870	135795	27460	967448	39112	106647	0	0	8356	588453	0	0
2024-05-13 11:37:32			0	37696	0	0	0	18264	16880	135755	27407	967464	39135	106647	0	0	8357	588008	0	0
2024-05-13 11:38:32			0	37677	0	0	0	18249	16880	135715	27395	967509	39113	106641	0	0	8356	588793	0	0
2024-05-13 11:39:32			0	37679	0	0	0	18246	16870	135743	27197	967395	39123	106640	0	0	8356	588742	0	0
2024-05-13 11:40:32			0	37680	0	0	0	18244	16880	135715	27473	967430	39124	106639	0	0	8356	588669	0	0
2024-05-13 11:41:32			0	37702	0	0	0	18251	16860	135783	27661	967378	39123	106642	0	0	8357	587824	0	0
2024-05-13 11:42:32			0	37683	0	0	0	18236	16860	135571	27469	967423	39132	106636	0	0	8356	588609	0	0
2024-05-13 11:43:32			0	37680	0	0	0	18249	16870	135655	27450	967413	39133	106641	0	0	8356	588701	0	0
2024-05-13 11:44:32			0	37693	0	0	0	18246	16870	135655	27405	967413	39123	106640	0	0	8357	588164	0	0
2024-05-13 11:45:32			0	37688	0	0	0	18246	16860	135567	27637	967352	39123	106640	0	0	8356	588402	0	0
2024-05-13 11:46:32			0	37706	0	0	0	18244	16870	135587	27376	967369	39123	106639	0	0	8357	587626	0	0
2024-05-13 11:47:32			0	37711	0	0	0	18249	16860	135579	27402	967317	39122	106641	0	0	8358	587452	0	0
2024-05-13 11:48:32			0	37691	0	0	0	18238	16860	135583	27289	967352	39123	106637	0	0	8357	588278	0	0
2024-05-13 11:49:32			0	37697	0	0	0	18259	16870	135515	27370	967387	39133	106645	0	0	8357	587998	0	0
2024-05-13 11:50:32			0	37699	0	0	0	18254	16870	135543	27479	967413	39123	106643	0	0	8357	587916	0	0
2024-05-13 11:51:32			0	37701	0	0	0	18257	16870	135527	27383	967448	39133	106644	0	0	8357	587833	0	0
2024-05-13 11:52:32			0	37708	0	0	0	18259	16870	135515	27196	967466	39123	106645	0	0	8357	587544	0	0
2024-05-13 11:53:32			0	37704	0	0	0	18254	16870	135595	27291	967448	39133	106643	0	0	8357	587709	0	0
2024-05-13 11:54:32			0	37708	0	0	0	18254	16860	135587	27334	967378	39133	106643	0	0	8357	587576	0	0
2024-05-13 11:55:32			0	37700	0	0	0	18251	16870	135559	27300	967440	39123	106642	0	0	8357	587874	0	0
2024-05-13 11:56:32			0	37692	0	0	0	18262	16870	135527	27350	967440	39123	106646	0	0	8356	588205	0	0
2024-05-13 11:57:32			0	37691	0	0	0	18259	16870	135567	27211	967474	39123	106645	0	0	8356	588246	0	0
2024-05-13 11:58:32			0	37730	0	0	0	18264	16870	135563	27353	967448	39123	106647	0	0	8358	586636	0	0
2024-05-13 11:59:32			0	37695	0	0	0	18270	16870	135635	27237	967448	39133	106649	0	0	8356	588081	0	0
2024-05-13 12:00:32			0	37698	0	0	0	18270	16880	135591	27296	967456	39134	106649	0	0	8357	587925	0	0
2024-05-13 12:01:32			0	37714	0	0	0	18270	16870	135643	27379	967466	39123	106649	0	0	8357	587296	0	0
2024-05-13 12:02:32			0	37710	0	0	0	18264	16860	135539	27443	967457	39112	106647	0	0	8357	587493	0	0
2024-05-13 12:03:32			0	37703	0	0	0	18285	16880	135643	27279	967543	39125	106655	0	0	8357	587719	0	0
2024-05-13 12:04:32			0	37703	0	0	0	18285	16890	135643	27566	967525	39125	106655	0	0	8357	587687	0	0
2024-05-13 12:05:32			0	37705	0	0	0	18290	16890	135663	27696	967525	39135	106657	0	0	8357	587604	0	0
2024-05-13 12:06:32			0	37704	0	0	0	18293	16890	135599	27580	967507	39135	106658	0	0	8357	587646	0	0
2024-05-13 12:07:32			0	37690	0	0	0	18288	16900	135619	27706	967603	39137	106656	0	0	8356	588192	0	0
2024-05-13 12:08:32			0	37691	0	0	0	18298	16900	135599	27509	967576	39126	106660	0	0	8356	588151	0	0
2024-05-13 12:09:32			0	37696	0	0	0	18288	16910	135571	27479	967558	39138	106656	0	0	8356	587912	0	0
2024-05-13 12:10:32			0	37687	0	0	0	18293	16900	135627	27479	967576	39137	106658	0	0	8356	588316	0	0
2024-05-13 12:11:32			0	37701	0	0	0	18296	16900	135611	27601	967524	39137	106659	0	0	8356	587738	0	0
2024-05-13 12:12:32			0	37674	0	0	0	18293	16900	135607	27396	967603	39137	106658	0	0	8355	588853	0	0
2024-05-13 12:13:32			0	37689	0	0	0	18301	16900	135699	27270	967603	39115	106661	0	0	8356	588233	0	0
2024-05-13 12:14:32			0	37690	0	0	0	18298	16900	135599	27253	967524	39137	106660	0	0	8356	588192	0	0
2024-05-13 12:15:32			0	37688	0	0	0	18296	16900	135615	27274	967576	39137	106659	0	0	8356	588275	0	0
2024-05-13 12:16:32			0	37685	0	0	0	18290	16890	135623	27320	967560	39146	106657	0	0	8356	588430	0	0
2024-05-13 12:17:32			0	37691	0	0	0	18290	16900	135695	27653	967603	39137	106657	0	0	8356	588151	0	0
2024-05-13 12:18:32			0	37668	0	0	0	18285	16900	135755	27587	967550	39137	106655	0	0	8355	589102	0	0
2024-05-13 12:19:32			0	37670	0	0	0	18293	16900	135719	27384	967568	39125	106658	0	0	8355	589019	0	0
2024-05-13 12:20:32			0	37673	0	0	0	18290	16890	135615	27672	967525	39135	106657	0	0	8355	588927	0	0
2024-05-13 12:21:32			0	37664	0	0	0	18290	16900	135719	27369	967603	39126	106657	0	0	8355	589267	0	0
2024-05-13 12:22:32			0	37662	0	0	0	18298	16900	135699	27320	967603	39115	106660	0	0	8354	589350	0	0
2024-05-13 12:23:32			0	37689	0	0	0	18288	16900	135687	27265	967542	39125	106656	0	0	8356	588233	0	0
2024-05-13 12:24:32			0	37661	0	0	0	18285	16900	135695	27623	967568	39125	106655	0	0	8355	589391	0	0
2024-05-13 12:25:32			0	37658	0	0	0	18283	16900	135695	27246	967515	39125	106654	0	0	8354	589515	0	0
2024-05-13 12:26:32			0	37659	0	0	0	18275	16900	135703	27150	967515	39125	106651	0	0	8355	589474	0	0
2024-05-13 12:27:32			0	37640	0	0	0	18270	16900	135795	27258	967568	39136	106649	0	0	8354	590261	0	0
2024-05-13 12:28:32			0	37684	0	0	0	18272	16900	135703	27644	967568	39125	106650	0	0	8356	588440	0	0
2024-05-13 12:29:32			0	37653	0	0	0	18272	16890	135747	27448	967586	39135	106650	0	0	8354	589754	0	0
2024-05-13 12:30:32			0	37634	0	0	0	18270	16900	135739	27166	967568	39136	106649	0	0	8353	590509	0	0
2024-05-13 12:31:32			0	37662	0	0	0	18275	16900	135819	27587	967542	39136	106651	0	0	8355	589350	0	0
2024-05-13 12:32:32			0	37647	0	0	0	18270	16900	135879	27071	967542	39136	106649	0	0	8354	589971	0	0
2024-05-13 12:33:32			0	37640	0	0	0	18270	16900	135687	27062	967524	39148	106649	0	0	8354	590261	0	0
2024-05-13 12:34:32			0	37629	0	0	0	18272	16900	135823	27322	967603	39126	106650	0	0	8353	590716	0	0
2024-05-13 12:35:32			0	37644	0	0	0	18280	16890	135839	27402	967534	39135	106653	0	0	8354	590127	0	0
2024-05-13 12:36:32			0	37634	0	0	0	18277	16910	135835	27360	967558	39138	106652	0	0	8353	590477	0	0
2024-05-13 12:37:32			0	37629	0	0	0	18288	16900	135867	27687	967550	39137	106656	0	0	8353	590716	0	0
2024-05-13 12:38:32			0	37614	0	0	0	18290	16900	135835	27409	967524	39137	106657	0	0	8352	591338	0	0
2024-05-13 12:39:32			0	37594	0	0	0	18277	16910	135847	27459	967558	39138	106652	0	0	8351	592136	0	0
2024-05-13 12:40:32			0	37617	0	0	0	18290	16910	135887	27464	967558	39126	106657	0	0	8352	591182	0	0
2024-05-13 12:41:32			0	37608	0	0	0	18293	16900	135915	27533	967603	39126	106658	0	0	8352	591587	0	0
2024-05-13 12:42:32			0	37599	0	0	0	18293	16910	135939	27441	967611	39126	106658	0	0	8351	591928	0	0
2024-05-13 12:43:32			0	37623	0	0	0	18298	16900	135943	27514	967576	39126	106660	0	0	8352	590965	0	0
2024-05-13 12:44:32			0	37597	0	0	0	18303	16910	135879	27469	967611	39138	106662	0	0	8351	592011	0	0
2024-05-13 12:45:32			0	37577	0	0	0	18314	16910	135895	27831	967637	39126	106666	0	0	8350	592842	0	0
2024-05-13 12:46:32			0	37574	0	0	0	18329	16930	135999	27492	967723	39139	106672	0	0	8349	592902	0	0
2024-05-13 12:47:32			0	37583	0	0	0	18337	16920	136059	27396	967768	39138	106675	0	0	8350	592560	0	0
2024-05-13 12:48:32			0	37596	0	0	0	18355	16930	136007	27557	967750	39128	106682	0	0	8350	591989	0	0
2024-05-13 12:49:32			0	37586	0	0	0	18366	16940	136131	27568	967766	39150	106686	0	0	8349	592371	0	0
2024-05-13 12:50:32			0	37592	0	0	0	18381	16940	136051	27722	967827	39140	106692	0	0	8349	592122	0	0
2024-05-13 12:51:32			0	37561	0	0	0	18386	16960	136039	27594	967913	39142	106694	0	0	8348	593345	0	0
2024-05-13 12:52:32			0	37531	0	0	0	18397	16960	136043	27946	967860	39142	106698	0	0	8346	594593	0	0
2024-05-13 12:53:32			0	37543	0	0	0	18397	16960	136063	27377	967905	39141	106698	0	0	8347	594094	0	0
2024-05-13 12:54:32			0	37540	0	0	0	18415	16980	136083	27485	967937	39166	106705	0	0	8346	594154	0	0
2024-05-13 12:55:32			0	37535	0	0	0	18438	16990	136235	27201	967989	39145	106714	0	0	8346	594330	0	0
2024-05-13 12:56:32			0	37532	0	0	0	18449	17000	136231	27426	968023	39157	106718	0	0	8345	594422	0	0
2024-05-13 12:57:32			0	37516	0	0	0	18457	17000	136151	27587	968190	39157	106721	0	0	8344	595088	0	0
2024-05-13 12:58:32			0	37515	0	0	0	18477	17010	136291	27258	968172	39157	106729	0	0	8344	595098	0	0
2024-05-13 12:59:32			0	37507	0	0	0	18498	17020	136243	27479	968197	39147	106737	0	0	8343	595398	0	0
2024-05-13 13:00:32			0	37501	0	0	0	18506	17050	136243	27703	968256	39161	106740	0	0	8343	595551	0	0
2024-05-13 13:01:32			0	37487	0	0	0	18501	17060	136331	27289	968360	39173	106738	0	0	8342	596102	0	0
2024-05-13 13:02:32			0	37462	0	0	0	18519	17060	136359	27441	968352	39172	106745	0	0	8341	597144	0	0
2024-05-13 13:03:32			0	37461	0	0	0	18527	17080	136423	27268	968358	39163	106748	0	0	8341	597122	0	0
2024-05-13 13:04:32			0	37446	0	0	0	18540	17080	136447	27045	968472	39164	106753	0	0	8340	597747	0	0
2024-05-13 13:05:32			0	37437	0	0	0	18540	17090	136395	27244	968454	39164	106753	0	0	8339	598091	0	0
2024-05-13 13:06:32			0	37413	0	0	0	18542	17100	136499	27535	968497	39165	106754	0	0	8338	599061	0	0
2024-05-13 13:07:32			0	37411	0	0	0	18548	17100	136603	27291	968576	39175	106756	0	0	8338	599145	0	0
2024-05-13 13:08:32			0	37389	0	0	0	18548	17110	136643	27329	968521	39188	106756	0	0	8337	600032	0	0
2024-05-13 13:09:32			0	37377	0	0	0	18553	17120	136727	27310	968530	39166	106758	0	0	8336	600502	0	0
2024-05-13 13:10:32			0	37349	0	0	0	18550	17120	136735	27265	968565	39157	106757	0	0	8334	601675	0	0
2024-05-13 13:11:32			0	37319	0	0	0	18555	17130	136803	27298	968626	39167	106759	0	0	8333	602901	0	0
2024-05-13 13:12:32			0	37321	0	0	0	18563	17130	136831	27310	968581	39179	106762	0	0	8333	602817	0	0
2024-05-13 13:13:32			0	37301	0	0	0	18561	17140	136914	27272	968650	39180	106761	0	0	8332	603624	0	0
2024-05-13 13:14:32			0	37283	0	0	0	18568	17140	136922	27540	968677	39158	106764	0	0	8331	604380	0	0
2024-05-13 13:15:32			0	37258	0	0	0	18568	17150	137010	27185	968632	39159	106764	0	0	8329	605399	0	0
2024-05-13 13:16:32			0	37235	0	0	0	18576	17160	137062	27303	968728	39169	106767	0	0	8328	606335	0	0
2024-05-13 13:17:32			0	37204	0	0	0	18576	17150	137198	27256	968693	39181	106767	0	0	8326	607675	0	0
2024-05-13 13:18:32			0	37174	0	0	0	18579	17160	137306	27310	968675	39192	106768	0	0	8325	608908	0	0
2024-05-13 13:19:32			0	37139	0	0	0	18581	17160	137386	27232	968754	39159	106769	0	0	8323	610388	0	0
2024-05-13 13:20:32			0	37108	0	0	0	18579	17160	137450	27410	968710	39181	106768	0	0	8321	611701	0	0
2024-05-13 13:21:32			0	37090	0	0	0	18587	17160	137590	27118	968710	39181	106771	0	0	8320	612464	0	0
2024-05-13 13:22:32			0	37052	0	0	0	18592	17170	137734	27286	968744	39193	106773	0	0	8318	614044	0	0
2024-05-13 13:23:32			0	37034	0	0	0	18594	17180	137910	27528	968840	39172	106774	0	0	8317	614776	0	0
2024-05-13 13:24:32			0	37007	0	0	0	18602	17170	137930	27296	968858	39182	106777	0	0	8316	615958	0	0
2024-05-13 13:25:32			0	36976	0	0	0	18597	17180	138126	27211	968787	39172	106775	0	0	8314	617245	0	0
2024-05-13 13:26:32			0	36927	0	0	0	18610	17170	138266	27275	968832	39182	106780	0	0	8311	619370	0	0
2024-05-13 13:27:32			0	36914	0	0	0	18605	17180	138242	27232	968814	39183	106778	0	0	8311	619892	0	0
2024-05-13 13:28:32			0	36894	0	0	0	18615	17200	138382	27599	968899	39174	106782	0	0	8310	620680	0	0
2024-05-13 13:29:32			0	36860	0	0	0	18612	17200	138358	27914	968952	39196	106781	0	0	8308	622136	0	0
2024-05-13 13:30:32			0	36836	0	0	0	18633	17200	138570	27568	968873	39164	106789	0	0	8306	623165	0	0
2024-05-13 13:31:32			0	36807	0	0	0	18615	17220	138606	27298	968959	39175	106782	0	0	8305	624343	0	0
2024-05-13 13:32:32			0	36785	0	0	0	18625	17200	138746	27272	968934	39185	106786	0	0	8304	625356	0	0
2024-05-13 13:33:32			0	36762	0	0	0	18631	17210	138786	27310	968951	39186	106788	0	0	8302	626312	0	0
2024-05-13 13:34:32			0	36770	0	0	0	18628	17230	138778	27588	968949	39187	106787	0	0	8303	625900	0	0
2024-05-13 13:35:32			0	36755	0	0	0	18631	17220	138866	27338	968967	39175	106788	0	0	8302	626579	0	0
2024-05-13 13:36:32			0	36734	0	0	0	18633	17220	138838	27521	968967	39175	106789	0	0	8301	627484	0	0
2024-05-13 13:37:32			0	36712	0	0	0	18633	17230	138894	27402	969002	39187	106789	0	0	8300	628399	0	0
2024-05-13 13:38:32			0	36710	0	0	0	18644	17240	138922	27428	969018	39177	106793	0	0	8299	628451	0	0
2024-05-13 13:39:32			0	36695	0	0	0	18644	17240	139030	27585	969027	39189	106793	0	0	8299	629099	0	0
2024-05-13 13:40:32			0	36682	0	0	0	18649	17240	139094	27383	969079	39157	106795	0	0	8298	629660	0	0
2024-05-13 13:41:32			0	36685	0	0	0	18651	17250	139130	27524	969035	39189	106796	0	0	8298	629496	0	0
2024-05-13 13:42:32			0	36674	0	0	0	18659	17240	139062	27521	969045	39177	106799	0	0	8297	630006	0	0
2024-05-13 13:43:32			0	36651	0	0	0	18659	17250	139146	27576	969088	39167	106799	0	0	8296	630966	0	0
2024-05-13 13:44:32			0	36639	0	0	0	18657	17260	139206	27409	969131	39190	106798	0	0	8295	631451	0	0
2024-05-13 13:45:32			0	36663	0	0	0	18670	17250	139194	27469	969114	39189	106803	0	0	8296	630447	0	0
2024-05-13 13:46:32			0	36630	0	0	0	18664	17260	139246	27074	969104	39190	106801	0	0	8295	631841	0	0
2024-05-13 13:47:32			0	36640	0	0	0	18662	17270	139286	27190	969094	39191	106800	0	0	8295	631374	0	0
2024-05-13 13:48:32			0	36621	0	0	0	18670	17270	139286	27379	969155	39192	106803	0	0	8294	632196	0	0
2024-05-13 13:49:32			0	36620	0	0	0	18670	17270	139286	27357	969147	39191	106803	0	0	8294	632240	0	0
2024-05-13 13:50:32			0	36617	0	0	0	18675	17280	139218	27526	969190	39192	106805	0	0	8294	632335	0	0
2024-05-13 13:51:32			0	36625	0	0	0	18675	17280	139146	27104	969145	39193	106805	0	0	8295	631989	0	0
2024-05-13 13:52:32			0	36630	0	0	0	18683	17280	139230	27450	969164	39203	106808	0	0	8295	631772	0	0
2024-05-13 13:53:32			0	36616	0	0	0	18690	17270	139246	27308	969182	39192	106811	0	0	8294	632413	0	0
2024-05-13 13:54:32			0	36621	0	0	0	18696	17280	139314	27185	969225	39181	106813	0	0	8294	632162	0	0
2024-05-13 13:55:32			0	36619	0	0	0	18703	17280	139274	27263	969137	39192	106816	0	0	8294	632249	0	0
2024-05-13 13:56:32			0	36626	0	0	0	18703	17300	139258	27649	969276	39193	106816	0	0	8294	631877	0	0
2024-05-13 13:57:32			0	36624	0	0	0	18701	17290	139238	27211	969215	39205	106815	0	0	8294	631998	0	0
2024-05-13 13:58:32			0	36604	0	0	0	18703	17300	139354	27478	969276	39205	106816	0	0	8293	632830	0	0
2024-05-13 13:59:32			0	36616	0	0	0	18711	17300	139246	27258	969408	39205	106819	0	0	8294	632310	0	0
2024-05-13 14:00:32			0	36627	0	0	0	18716	17310	139258	27694	969274	39195	106821	0	0	8294	631799	0	0
2024-05-13 14:01:32			0	36640	0	0	0	18714	17300	139174	27234	969284	39194	106820	0	0	8295	631271	0	0
2024-05-13 14:02:32			0	36643	0	0	0	18706	17310	139154	27504	969266	39206	106817	0	0	8295	631107	0	0
2024-05-13 14:03:32			0	36644	0	0	0	18722	17310	139086	27578	969327	39195	106823	0	0	8295	631063	0	0
2024-05-13 14:04:32			0	36652	0	0	0	18719	17320	139138	27315	969388	39206	106822	0	0	8295	630683	0	0
2024-05-13 14:05:32			0	36667	0	0	0	18732	17310	139070	27256	969327	39206	106827	0	0	8296	630069	0	0
2024-05-13 14:06:32			0	36647	0	0	0	18737	17320	139046	27298	969467	39195	106829	0	0	8295	630899	0	0
2024-05-13 14:07:32			0	36673	0	0	0	18732	17330	139118	27336	969404	39208	106827	0	0	8296	629741	0	0
2024-05-13 14:08:32			0	36650	0	0	0	18724	17320	139114	27379	969370	39207	106824	0	0	8295	630769	0	0
2024-05-13 14:09:32			0	36656	0	0	0	18716	17330	139114	27388	969404	39208	106821	0	0	8296	630476	0	0
2024-05-13 14:10:32			0	36669	0	0	0	18714	17330	139050	27296	969404	39186	106820	0	0	8296	629914	0	0
2024-05-13 14:11:32			0	36671	0	0	0	18716	17320	139078	27317	969343	39196	106821	0	0	8296	629862	0	0
2024-05-13 14:12:32			0	36673	0	0	0	18714	17320	138870	27507	969309	39195	106820	0	0	8297	629775	0	0
2024-05-13 14:13:32			0	36661	0	0	0	18709	17320	139070	27317	969343	39217	106818	0	0	8296	630294	0	0
2024-05-13 14:14:32			0	36680	0	0	0	18711	17320	138950	27353	969396	39196	106819	0	0	8297	629473	0	0
2024-05-13 14:15:32			0	36682	0	0	0	18709	17330	139034	27405	969378	39197	106818	0	0	8297	629352	0	0
2024-05-13 14:16:32			0	36685	0	0	0	18716	17330	138978	27602	969413	39208	106821	0	0	8297	629223	0	0
2024-05-13 14:17:32			0	36696	0	0	0	18719	17330	139006	27528	969378	39186	106822	0	0	8298	628748	0	0
2024-05-13 14:18:32			0	36694	0	0	0	18706	17330	138874	27291	969352	39197	106817	0	0	8298	628834	0	0
2024-05-13 14:19:32			0	36694	0	0	0	18711	17320	138874	27517	969362	39195	106819	0	0	8298	628868	0	0
2024-05-13 14:20:32			0	36701	0	0	0	18693	17330	138882	27336	969413	39197	106812	0	0	8298	628532	0	0
2024-05-13 14:21:32			0	36696	0	0	0	18701	17320	138950	27263	969343	39196	106815	0	0	8298	628782	0	0
2024-05-13 14:22:32			0	36713	0	0	0	18701	17320	138842	27417	969335	39195	106815	0	0	8299	628049	0	0
2024-05-13 14:23:32			0	36703	0	0	0	18696	17320	138850	27244	969396	39196	106813	0	0	8298	628480	0	0
2024-05-13 14:24:32			0	36709	0	0	0	18690	17310	138814	27284	969327	39195	106811	0	0	8299	628255	0	0
2024-05-13 14:25:32			0	36734	0	0	0	18680	17320	138746	27343	969309	39195	106807	0	0	8300	627143	0	0
2024-05-13 14:26:32			0	36701	0	0	0	18685	17310	138822	27317	969274	39195	106809	0	0	8299	628600	0	0
2024-05-13 14:27:32			0	36723	0	0	0	18675	17310	138854	27249	969248	39184	106805	0	0	8300	627652	0	0
2024-05-13 14:28:32			0	36723	0	0	0	18680	17300	138850	27360	969337	39194	106807	0	0	8300	627686	0	0
2024-05-13 14:29:32			0	36731	0	0	0	18680	17300	138782	27403	969276	39182	106807	0	0	8300	627341	0	0
2024-05-13 14:30:32			0	36715	0	0	0	18672	17300	138886	27562	969310	39194	106804	0	0	8299	628031	0	0
2024-05-13 14:31:32			0	36737	0	0	0	18677	17300	138770	27291	969205	39194	106806	0	0	8301	627082	0	0
2024-05-13 14:32:32			0	36732	0	0	0	18685	17310	138750	27381	969248	39206	106809	0	0	8300	627264	0	0
2024-05-13 14:33:32			0	36721	0	0	0	18683	17300	138798	27386	969276	39182	106808	0	0	8300	627772	0	0
2024-05-13 14:34:32			0	36744	0	0	0	18680	17310	138678	27531	969187	39195	106807	0	0	8301	626747	0	0
2024-05-13 14:35:32			0	36739	0	0	0	18685	17310	138806	27607	969319	39184	106809	0	0	8301	626962	0	0
2024-05-13 14:36:32			0	36734	0	0	0	18680	17310	138838	27279	969239	39184	106807	0	0	8300	627177	0	0
2024-05-13 14:37:32			0	36740	0	0	0	18688	17300	138790	27478	969258	39194	106810	0	0	8301	626953	0	0
2024-05-13 14:38:32			0	36744	0	0	0	18693	17310	138762	27575	969319	39195	106812	0	0	8301	626747	0	0
2024-05-13 14:39:32			0	36724	0	0	0	18693	17300	138742	27320	969249	39182	106812	0	0	8300	627643	0	0
2024-05-13 14:40:32			0	36736	0	0	0	18706	17300	138818	27352	969284	39194	106817	0	0	8300	627125	0	0
2024-05-13 14:41:32			0	36729	0	0	0	18703	17300	138770	27415	969249	39193	106816	0	0	8300	627427	0	0
2024-05-13 14:42:32			0	36752	0	0	0	18701	17310	138758	27559	969292	39195	106815	0	0	8301	626402	0	0
2024-05-13 14:43:32			0	36761	0	0	0	18703	17310	138758	27428	969292	39184	106816	0	0	8301	626015	0	0
2024-05-13 14:44:32			0	36730	0	0	0	18690	17300	138746	27190	969284	39205	106811	0	0	8300	627384	0	0
2024-05-13 14:45:32			0	36741	0	0	0	18698	17310	138746	27428	969274	39206	106814	0	0	8300	626876	0	0
2024-05-13 14:46:32			0	36733	0	0	0	18690	17300	138682	27466	969205	39205	106811	0	0	8300	627255	0	0
2024-05-13 14:47:32			0	36757	0	0	0	18685	17300	138710	27878	969223	39171	106809	0	0	8301	626221	0	0
2024-05-13 14:48:32			0	36758	0	0	0	18685	17300	138742	27620	969231	39183	106809	0	0	8302	626178	0	0
2024-05-13 14:49:32			0	36755	0	0	0	18680	17290	138722	27171	969188	39182	106807	0	0	8301	626341	0	0
2024-05-13 14:50:32			0	36771	0	0	0	18680	17290	138618	27550	969241	39205	106807	0	0	8302	625653	0	0
2024-05-13 14:51:32			0	36776	0	0	0	18683	17290	138682	27453	969188	39182	106808	0	0	8302	625438	0	0
2024-05-13 14:52:32			0	36797	0	0	0	18664	17290	138694	27265	969135	39205	106801	0	0	8304	624535	0	0
2024-05-13 14:53:32			0	36801	0	0	0	18675	17300	138498	27220	969223	39205	106805	0	0	8304	624329	0	0
2024-05-13 14:54:32			0	36781	0	0	0	18670	17290	138574	27428	969206	39193	106803	0	0	8303	625223	0	0
2024-05-13 14:55:32			0	36788	0	0	0	18659	17280	138530	27272	969225	39204	106799	0	0	8303	624956	0	0
2024-05-13 14:56:32			0	36813	0	0	0	18664	17280	138626	27367	969164	39203	106801	0	0	8305	623882	0	0
2024-05-13 14:57:32			0	36803	0	0	0	18670	17280	138518	27666	969164	39192	106803	0	0	8304	624311	0	0
2024-05-13 14:58:32			0	36830	0	0	0	18670	17280	138470	27414	969172	39193	106803	0	0	8306	623152	0	0
2024-05-13 14:59:32			0	36823	0	0	0	18664	17280	138390	27497	969198	39193	106801	0	0	8305	623452	0	0
2024-05-13 15:00:32			0	36812	0	0	0	18662	17280	138470	27294	969225	39181	106800	0	0	8305	623925	0	0
2024-05-13 15:01:32			0	36819	0	0	0	18667	17290	138462	27175	969241	39182	106802	0	0	8305	623590	0	0
2024-05-13 15:02:32			0	36835	0	0	0	18670	17290	138510	27524	969206	39205	106803	0	0	8306	622904	0	0
2024-05-13 15:03:32			0	36836	0	0	0	18672	17280	138438	27545	969198	39181	106804	0	0	8306	622895	0	0
2024-05-13 15:04:32			0	36834	0	0	0	18677	17290	138438	27511	969259	39205	106806	0	0	8306	622947	0	0
2024-05-13 15:05:32			0	36845	0	0	0	18688	17300	138438	27390	969249	39193	106810	0	0	8306	622441	0	0
2024-05-13 15:06:32			0	36838	0	0	0	18693	17300	138366	27594	969329	39182	106812	0	0	8306	622741	0	0
2024-05-13 15:07:32			0	36849	0	0	0	18703	17300	138410	27189	969337	39205	106816	0	0	8306	622270	0	0
2024-05-13 15:08:32			0	36861	0	0	0	18722	17310	138366	27381	969451	39195	106823	0	0	8306	621722	0	0
2024-05-13 15:09:32			0	36842	0	0	0	18722	17300	138398	27474	969416	39205	106823	0	0	8305	622570	0	0
2024-05-13 15:10:32			0	36832	0	0	0	18745	17330	138430	27500	969457	39208	106832	0	0	8305	622897	0	0
2024-05-13 15:11:32			0	36841	0	0	0	18761	17320	138458	27289	969441	39206	106838	0	0	8305	622545	0	0
2024-05-13 15:12:32			0	36835	0	0	0	18771	17320	138406	27298	969467	39206	106842	0	0	8304	622802	0	0
2024-05-13 15:13:32			0	36832	0	0	0	18779	17340	138434	27386	969553	39198	106845	0	0	8304	622863	0	0
2024-05-13 15:14:32			0	36850	0	0	0	18781	17350	138470	27402	969570	39220	106846	0	0	8305	622058	0	0
2024-05-13 15:15:32			0	36848	0	0	0	18784	17360	138454	27298	969578	39221	106847	0	0	8305	622110	0	0
2024-05-13 15:16:32			0	36857	0	0	0	18797	17370	138306	27526	969621	39210	106852	0	0	8305	621690	0	0
2024-05-13 15:17:32			0	36849	0	0	0	18797	17370	138286	27563	969656	39222	106852	0	0	8305	622033	0	0
2024-05-13 15:18:32			0	36858	0	0	0	18815	17370	138342	27360	969708	39211	106859	0	0	8305	621648	0	0
2024-05-13 15:19:32			0	36876	0	0	0	18823	17390	138234	27329	969733	39211	106862	0	0	8306	620810	0	0
2024-05-13 15:20:32			0	36867	0	0	0	18828	17400	138238	27325	969750	39203	106864	0	0	8305	621161	0	0
2024-05-13 15:21:32			0	36856	0	0	0	18828	17410	138338	27550	969793	39203	106864	0	0	8305	621598	0	0
2024-05-13 15:22:32			0	36872	0	0	0	18833	17410	138334	27369	969872	39224	106866	0	0	8306	620913	0	0
2024-05-13 15:23:32			0	36879	0	0	0	18851	17410	138274	27161	969872	39213	106873	0	0	8306	620614	0	0
2024-05-13 15:24:32			0	36883	0	0	0	18851	17420	138278	27168	969835	39226	106873	0	0	8306	620409	0	0
2024-05-13 15:25:32			0	36892	0	0	0	18849	17430	138222	27209	969905	39216	106872	0	0	8306	619991	0	0
2024-05-13 15:26:32			0	36882	0	0	0	18851	17430	138278	27220	969992	39216	106873	0	0	8306	620418	0	0
2024-05-13 15:27:32			0	36899	0	0	0	18841	17440	138174	27450	969895	39228	106869	0	0	8307	619658	0	0
2024-05-13 15:28:32			0	36902	0	0	0	18841	17440	138174	27253	969956	39217	106869	0	0	8307	619530	0	0
2024-05-13 15:29:32			0	36904	0	0	0	18844	17450	138146	27402	969911	39229	106870	0	0	8307	619410	0	0
2024-05-13 15:30:32			0	36891	0	0	0	18844	17450	138186	27291	970025	39196	106870	0	0	8307	619966	0	0
2024-05-13 15:31:32			0	36907	0	0	0	18849	17450	138142	27483	970043	39207	106872	0	0	8307	619282	0	0
2024-05-13 15:32:32			0	36913	0	0	0	18857	17450	138170	27319	969920	39217	106875	0	0	8308	619026	0	0
2024-05-13 15:33:32			0	36889	0	0	0	18870	17450	138070	27405	969964	39240	106880	0	0	8306	620051	0	0
2024-05-13 15:34:32			0	36929	0	0	0	18877	17460	138074	27150	970007	39218	106883	0	0	8308	618309	0	0
2024-05-13 15:35:32			0	36918	0	0	0	18883	17470	137966	27315	970076	39219	106885	0	0	8307	618745	0	0
2024-05-13 15:36:32			0	36909	0	0	0	18888	17460	138026	27535	970095	39219	106887	0	0	8307	619163	0	0
2024-05-13 15:37:32			0	36907	0	0	0	18883	17470	137926	27201	970058	39208	106885	0	0	8307	619215	0	0
2024-05-13 15:38:32			0	36933	0	0	0	18877	17480	137990	27194	970066	39220	106883	0	0	8308	618072	0	0
2024-05-13 15:39:32			0	36932	0	0	0	18877	17470	137998	27357	970058	39219	106883	0	0	8308	618148	0	0
2024-05-13 15:40:32			0	36923	0	0	0	18877	17480	138082	27253	970048	39221	106883	0	0	8308	618498	0	0
2024-05-13 15:41:32			0	36924	0	0	0	18870	17470	138022	27498	969953	39219	106880	0	0	8308	618489	0	0
2024-05-13 15:42:32			0	36938	0	0	0	18872	17470	137858	27105	970032	39219	106881	0	0	8309	617892	0	0
2024-05-13 15:43:32			0	36932	0	0	0	18867	17470	137902	27552	970024	39208	106879	0	0	8308	618148	0	0
2024-05-13 15:44:32			0	36939	0	0	0	18867	17480	137918	27274	970040	39209	106879	0	0	8309	617816	0	0
2024-05-13 15:45:32			0	36933	0	0	0	18867	17470	137958	27412	970032	39219	106879	0	0	8308	618105	0	0
2024-05-13 15:46:32			0	36930	0	0	0	18888	17490	137962	27209	970144	39222	106887	0	0	8308	618166	0	0
2024-05-13 15:47:32			0	36967	0	0	0	18890	17490	137854	27452	970215	39222	106888	0	0	8310	616589	0	0
2024-05-13 15:48:32			0	36973	0	0	0	18890	17490	137934	27176	970197	39222	106888	0	0	8310	616334	0	0
2024-05-13 15:49:32			0	36955	0	0	0	18901	17500	137814	27557	970153	39233	106892	0	0	8309	617067	0	0
2024-05-13 15:50:32			0	36973	0	0	0	18890	17510	137838	27433	970204	39212	106888	0	0	8310	616267	0	0
2024-05-13 15:51:32			0	36974	0	0	0	18888	17510	137854	27390	970177	39223	106887	0	0	8310	616224	0	0
2024-05-13 15:52:32			0	36967	0	0	0	18893	17500	137730	27498	970240	39223	106889	0	0	8310	616556	0	0
2024-05-13 15:53:32			0	36981	0	0	0	18885	17520	137786	27377	970212	39223	106886	0	0	8311	615893	0	0
2024-05-13 15:54:32			0	36974	0	0	0	18890	17510	137806	27452	970196	39235	106888	0	0	8310	616224	0	0
2024-05-13 15:55:32			0	36980	0	0	0	18896	17500	137722	27533	970161	39211	106890	0	0	8311	616002	0	0
2024-05-13 15:56:32			0	36984	0	0	0	18896	17500	137682	27670	970214	39234	106890	0	0	8311	615832	0	0
2024-05-13 15:57:32			0	36973	0	0	0	18896	17500	137826	27542	970267	39223	106890	0	0	8310	616300	0	0
2024-05-13 15:58:32			0	36984	0	0	0	18914	17520	137722	27689	970291	39223	106897	0	0	8311	615765	0	0
2024-05-13 15:59:32			0	36984	0	0	0	18940	17530	137806	27660	970387	39225	106907	0	0	8310	615732	0	0
2024-05-13 16:00:32			0	36972	0	0	0	18981	17550	137890	27538	970499	39227	106923	0	0	8309	616175	0	0
2024-05-13 16:01:32			0	36976	0	0	0	19002	17560	137758	27549	970595	39239	106931	0	0	8309	615972	0	0
2024-05-13 16:02:32			0	37010	0	0	0	19041	17580	137690	27417	970628	39251	106946	0	0	8310	614459	0	0
2024-05-13 16:03:32			0	36998	0	0	0	19049	17580	137710	27492	970636	39251	106949	0	0	8309	614969	0	0
2024-05-13 16:04:32			0	36995	0	0	0	19059	17600	137646	27365	970688	39264	106953	0	0	8309	615030	0	0
2024-05-13 16:05:32			0	36990	0	0	0	19064	17610	137726	27533	970730	39232	106955	0	0	8309	615209	0	0
2024-05-13 16:06:32			0	37015	0	0	0	19083	17620	137626	27478	970747	39244	106962	0	0	8310	614113	0	0
2024-05-13 16:07:32			0	37026	0	0	0	19077	17620	137514	27422	970774	39233	106960	0	0	8311	613646	0	0
2024-05-13 16:08:32			0	37031	0	0	0	19096	17640	137538	27133	970807	39257	106967	0	0	8311	613368	0	0
2024-05-13 16:09:32			0	37004	0	0	0	19098	17640	137602	27402	970807	39236	106968	0	0	8309	614513	0	0
2024-05-13 16:10:32			0	37017	0	0	0	19103	17660	137566	27509	970884	39258	106970	0	0	8310	613895	0	0
2024-05-13 16:11:32			0	37018	0	0	0	19114	17670	137494	27403	970901	39248	106974	0	0	8310	613819	0	0
2024-05-13 16:12:32			0	37021	0	0	0	19137	17670	137486	27244	970980	39259	106983	0	0	8309	613692	0	0
2024-05-13 16:13:32			0	37038	0	0	0	19155	17680	137458	27668	971058	39260	106990	0	0	8310	612937	0	0
2024-05-13 16:14:32			0	37025	0	0	0	19171	17710	137502	27381	971126	39251	106996	0	0	8309	613388	0	0
2024-05-13 16:15:32			0	37037	0	0	0	19181	17710	137462	27455	971152	39273	107000	0	0	8310	612879	0	0
2024-05-13 16:16:32			0	37047	0	0	0	19184	17720	137378	27653	971169	39263	107001	0	0	8310	612422	0	0
2024-05-13 16:17:32			0	37070	0	0	0	19181	17730	137410	27549	971246	39265	107000	0	0	8312	611415	0	0
2024-05-13 16:18:32			0	37066	0	0	0	19192	17740	137378	27462	971290	39254	107004	0	0	8311	611551	0	0
2024-05-13 16:19:32			0	37068	0	0	0	19197	17760	137322	27307	971314	39267	107006	0	0	8311	611400	0	0
2024-05-13 16:20:32			0	37069	0	0	0	19199	17760	137382	27802	971270	39267	107007	0	0	8311	611357	0	0
2024-05-13 16:21:32			0	37054	0	0	0	19205	17760	137346	27521	971341	39267	107009	0	0	8310	611992	0	0
2024-05-13 16:22:32			0	37095	0	0	0	19205	17770	137298	27267	971304	39268	107009	0	0	8313	610225	0	0
2024-05-13 16:23:32			0	37074	0	0	0	19194	17780	137294	27353	971347	39269	107005	0	0	8312	611079	0	0
2024-05-13 16:24:32			0	37089	0	0	0	19210	17780	137242	27190	971374	39269	107011	0	0	8312	610445	0	0
2024-05-13 16:25:32			0	37084	0	0	0	19205	17780	137254	27312	971435	39269	107009	0	0	8312	610656	0	0
2024-05-13 16:26:32			0	37120	0	0	0	19212	17790	137146	27272	971417	39270	107012	0	0	8314	609102	0	0
2024-05-13 16:27:32			0	37117	0	0	0	19228	17800	137134	27466	971494	39282	107018	0	0	8314	609196	0	0
2024-05-13 16:28:32			0	37106	0	0	0	19228	17800	137110	27126	971494	39271	107018	0	0	8313	609660	0	0
2024-05-13 16:29:32			0	37118	0	0	0	19231	17800	137030	27319	971468	39271	107019	0	0	8314	609154	0	0
2024-05-13 16:30:32			0	37126	0	0	0	19231	17820	137182	27377	971546	39272	107019	0	0	8314	608750	0	0
2024-05-13 16:31:32			0	37109	0	0	0	19225	17810	137102	27095	971537	39272	107017	0	0	8313	609500	0	0
2024-05-13 16:32:32			0	37123	0	0	0	19233	17820	137118	27327	971519	39272	107020	0	0	8314	608876	0	0
2024-05-13 16:33:32			0	37138	0	0	0	19238	17820	137042	27396	971554	39262	107022	0	0	8315	608243	0	0
2024-05-13 16:34:32			0	37134	0	0	0	19236	17830	137022	27206	971570	39274	107021	0	0	8314	608379	0	0
2024-05-13 16:35:32			0	37132	0	0	0	19233	17830	137010	27353	971509	39273	107020	0	0	8314	608463	0	0
2024-05-13 16:36:32			0	37135	0	0	0	19236	17840	136894	27242	971552	39274	107021	0	0	8315	608304	0	0
2024-05-13 16:37:32			0	37144	0	0	0	19231	17830	136978	27588	971536	39262	107019	0	0	8315	607957	0	0
2024-05-13 16:38:32			0	37167	0	0	0	19244	17830	136822	27495	971536	39262	107024	0	0	8316	606988	0	0
2024-05-13 16:39:32			0	37175	0	0	0	19231	17830	136922	27550	971588	39262	107019	0	0	8317	606651	0	0
2024-05-13 16:40:32			0	37149	0	0	0	19225	17840	136950	27206	971560	39253	107017	0	0	8315	607714	0	0
2024-05-13 16:41:32			0	37149	0	0	0	19223	17830	136914	27365	971544	39263	107016	0	0	8315	607747	0	0
2024-05-13 16:42:32			0	37175	0	0	0	19215	17830	136894	27424	971517	39274	107013	0	0	8317	606651	0	0
2024-05-13 16:43:32			0	37184	0	0	0	19212	17830	136970	27821	971509	39251	107012	0	0	8317	606273	0	0
2024-05-13 16:44:32			0	37178	0	0	0	19210	17830	136862	27507	971483	39273	107011	0	0	8317	606525	0	0
2024-05-13 16:45:32			0	37182	0	0	0	19202	17830	136850	27358	971465	39263	107008	0	0	8318	606357	0	0
2024-05-13 16:46:32			0	37174	0	0	0	19205	17820	136874	27216	971474	39262	107009	0	0	8317	606727	0	0
2024-05-13 16:47:32			0	37173	0	0	0	19192	17820	136810	27312	971448	39284	107004	0	0	8317	606769	0	0
2024-05-13 16:48:32			0	37196	0	0	0	19194	17820	136898	27668	971448	39273	107005	0	0	8318	605801	0	0
2024-05-13 16:49:32			0	37186	0	0	0	19197	17820	136814	27448	971440	39272	107006	0	0	8318	606222	0	0
2024-05-13 16:50:32			0	37190	0	0	0	19192	17820	136814	27542	971422	39262	107004	0	0	8318	606053	0	0
2024-05-13 16:51:32			0	37193	0	0	0	19184	17820	136742	27668	971413	39272	107001	0	0	8318	605927	0	0
2024-05-13 16:52:32			0	37189	0	0	0	19176	17810	136734	27152	971405	39272	106998	0	0	8318	606128	0	0
2024-05-13 16:53:32			0	37199	0	0	0	19174	17810	136746	27229	971344	39260	106997	0	0	8319	605708	0	0
2024-05-13 16:54:32			0	37203	0	0	0	19166	17800	136818	27467	971362	39271	106994	0	0	8319	605573	0	0
2024-05-13 16:55:32			0	37184	0	0	0	19168	17810	136902	27274	971370	39260	106995	0	0	8318	606339	0	0
2024-05-13 16:56:32			0	37180	0	0	0	19166	17810	136782	27403	971318	39250	106994	0	0	8318	606507	0	0
2024-05-13 16:57:32			0	37202	0	0	0	19161	17790	136790	27353	971319	39259	106992	0	0	8319	605648	0	0
2024-05-13 16:58:32			0	37213	0	0	0	19145	17790	136790	27156	971337	39270	106986	0	0	8320	605185	0	0
2024-05-13 16:59:32			0	37221	0	0	0	19155	17790	136746	27286	971258	39270	106990	0	0	8320	604849	0	0
2024-05-13 17:00:32			0	37216	0	0	0	19158	17790	136698	27246	971346	39270	106991	0	0	8320	605059	0	0
2024-05-13 17:01:32			0	37204	0	0	0	19155	17780	136690	27353	971329	39269	106990	0	0	8319	605597	0	0
2024-05-13 17:02:32			0	37213	0	0	0	19158	17790	136726	27479	971372	39270	106991	0	0	8320	605185	0	0
2024-05-13 17:03:32			0	37222	0	0	0	19166	17790	136670	27241	971337	39270	106994	0	0	8320	604807	0	0
2024-05-13 17:04:32			0	37221	0	0	0	19176	17800	136710	27329	971354	39271	106998	0	0	8320	604816	0	0
2024-05-13 17:05:32			0	37212	0	0	0	19186	17800	136774	27258	971380	39271	107002	0	0	8319	605194	0	0
2024-05-13 17:06:32			0	37224	0	0	0	19197	17800	136626	27192	971415	39271	107006	0	0	8320	604690	0	0
2024-05-13 17:07:32			0	37214	0	0	0	19199	17800	136710	27291	971494	39271	107007	0	0	8319	605110	0	0
2024-05-13 17:08:32			0	37202	0	0	0	19210	17810	136710	27633	971503	39260	107011	0	0	8318	605582	0	0
2024-05-13 17:09:32			0	37209	0	0	0	19215	17810	136674	27180	971476	39272	107013	0	0	8319	605287	0	0
2024-05-13 17:10:32			0	37216	0	0	0	19215	17830	136566	27689	971562	39295	107013	0	0	8319	604927	0	0
2024-05-13 17:11:32			0	37215	0	0	0	19228	17820	136710	27293	971572	39272	107018	0	0	8319	605002	0	0
2024-05-13 17:12:32			0	37216	0	0	0	19231	17820	136682	27242	971554	39273	107019	0	0	8319	604960	0	0
2024-05-13 17:13:32			0	37230	0	0	0	19231	17840	136658	27462	971605	39285	107019	0	0	8320	604306	0	0
2024-05-13 17:14:32			0	37226	0	0	0	19246	17840	136598	27322	971631	39285	107025	0	0	8319	604474	0	0
2024-05-13 17:15:32			0	37200	0	0	0	19238	17840	136658	27519	971631	39274	107022	0	0	8318	605567	0	0
2024-05-13 17:16:32			0	37228	0	0	0	19254	17850	136650	27566	971622	39275	107028	0	0	8319	604357	0	0
2024-05-13 17:17:32			0	37227	0	0	0	19251	17860	136622	27519	971744	39276	107027	0	0	8319	604366	0	0
2024-05-13 17:18:32			0	37237	0	0	0	19244	17850	136686	27448	971735	39276	107024	0	0	8320	603980	0	0
2024-05-13 17:19:32			0	37231	0	0	0	19254	17860	136566	27312	971691	39287	107028	0	0	8319	604199	0	0
2024-05-13 17:20:32			0	37218	0	0	0	19249	17860	136630	27298	971665	39276	107026	0	0	8319	604744	0	0
2024-05-13 17:21:32			0	37236	0	0	0	19246	17870	136558	27514	971716	39289	107025	0	0	8320	603956	0	0
2024-05-13 17:22:32			0	37223	0	0	0	19257	17860	136582	27317	971691	39287	107029	0	0	8319	604534	0	0
2024-05-13 17:23:32			0	37220	0	0	0	19257	17870	136622	27524	971742	39278	107029	0	0	8319	604627	0	0
2024-05-13 17:24:32			0	37245	0	0	0	19262	17880	136566	27724	971724	39289	107031	0	0	8320	603545	0	0
2024-05-13 17:25:32			0	37243	0	0	0	19267	17890	136518	27204	971828	39291	107033	0	0	8320	603596	0	0
2024-05-13 17:26:32			0	37234	0	0	0	19280	17880	136558	27324	971777	39289	107038	0	0	8319	604007	0	0
2024-05-13 17:27:32			0	37246	0	0	0	19290	17890	136550	27270	971846	39279	107042	0	0	8320	603470	0	0
2024-05-13 17:28:32			0	37239	0	0	0	19316	17910	136598	27370	972012	39270	107052	0	0	8319	603698	0	0
2024-05-13 17:29:32			0	37246	0	0	0	19337	17920	136538	27256	971975	39292	107060	0	0	8319	603372	0	0
2024-05-13 17:30:32			0	37235	0	0	0	19350	17930	136626	27249	972045	39304	107065	0	0	8318	603800	0	0
2024-05-13 17:31:32			0	37223	0	0	0	19335	17940	136566	27637	972088	39284	107059	0	0	8318	604271	0	0
2024-05-13 17:32:32			0	37242	0	0	0	19329	17950	136502	27479	972043	39273	107057	0	0	8319	603441	0	0
2024-05-13 17:33:32			0	37256	0	0	0	19314	17940	136546	27526	972088	39284	107051	0	0	8320	602887	0	0
2024-05-13 17:34:32			0	37239	0	0	0	19314	17950	136574	27396	972043	39273	107051	0	0	8319	603567	0	0
2024-05-13 17:35:32			0	37258	0	0	0	19293	17940	136586	27384	971929	39284	107043	0	0	8320	602803	0	0
2024-05-13 17:36:32			0	37239	0	0	0	19280	17940	136526	27255	971982	39273	107038	0	0	8320	603600	0	0
2024-05-13 17:37:32			0	37256	0	0	0	19280	17940	136490	27166	971956	39284	107038	0	0	8321	602887	0	0
2024-05-13 17:38:32			0	37240	0	0	0	19272	17940	136466	27102	971929	39273	107035	0	0	8320	603557	0	0
2024-05-13 17:39:32			0	37265	0	0	0	19272	17930	136470	27391	971965	39260	107035	0	0	8321	602542	0	0
2024-05-13 17:40:32			0	37246	0	0	0	19267	17920	136474	26968	971896	39271	107033	0	0	8320	603372	0	0
2024-05-13 17:41:32			0	37255	0	0	0	19249	17930	136414	27345	971878	39260	107026	0	0	8321	602961	0	0
2024-05-13 17:42:32			0	37263	0	0	0	19249	17920	136390	27369	971888	39259	107026	0	0	8321	602659	0	0
2024-05-13 17:43:32			0	37250	0	0	0	19249	17920	136442	26873	971843	39271	107026	0	0	8321	603204	0	0
2024-05-13 17:44:32			0	37265	0	0	0	19241	17920	136446	27131	971922	39271	107023	0	0	8322	602575	0	0
2024-05-13 17:45:32			0	37270	0	0	0	19233	17910	136374	27450	971827	39270	107020	0	0	8322	602399	0	0
2024-05-13 17:46:32			0	37262	0	0	0	19225	17910	136438	27493	971774	39270	107017	0	0	8322	602734	0	0
2024-05-13 17:47:32			0	37272	0	0	0	19199	17910	136450	27287	971747	39281	107007	0	0	8323	602315	0	0
2024-05-13 17:48:32			0	37262	0	0	0	19199	17900	136426	27594	971713	39258	107007	0	0	8322	602767	0	0
2024-05-13 17:49:32			0	37276	0	0	0	19199	17900	136522	27613	971731	39268	107007	0	0	8323	602180	0	0
2024-05-13 17:50:32			0	37268	0	0	0	19181	17880	136422	27409	971680	39278	107000	0	0	8323	602581	0	0
2024-05-13 17:51:32			0	37278	0	0	0	19176	17890	136426	27556	971582	39257	106998	0	0	8323	602129	0	0
2024-05-13 17:52:32			0	37280	0	0	0	19176	17860	136426	27604	971612	39254	106998	0	0	8323	602144	0	0
2024-05-13 17:53:32			0	37265	0	0	0	19158	17860	136470	27284	971506	39254	106991	0	0	8323	602772	0	0
2024-05-13 17:54:32			0	37280	0	0	0	19135	17850	136414	27578	971516	39243	106982	0	0	8324	602177	0	0
2024-05-13 17:55:32			0	37274	0	0	0	19124	17840	136462	27204	971473	39252	106978	0	0	8324	602461	0	0
2024-05-13 17:56:32			0	37275	0	0	0	19103	17840	136358	27578	971394	39252	106970	0	0	8324	602419	0	0
2024-05-13 17:57:32			0	37287	0	0	0	19085	17820	136386	27371	971342	39262	106963	0	0	8325	601982	0	0
2024-05-13 17:58:32			0	37298	0	0	0	19070	17810	136382	27326	971299	39250	106957	0	0	8326	601554	0	0
2024-05-13 17:59:32			0	37291	0	0	0	19067	17800	136390	27499	971195	39227	106956	0	0	8325	601880	0	0
2024-05-13 18:00:32			0	37286	0	0	0	19051	17790	136370	27552	971152	39237	106950	0	0	8325	602122	0	0
2024-05-13 18:01:32			0	37289	0	0	0	19044	17770	136338	27376	971022	39236	106947	0	0	8326	602062	0	0
2024-05-13 18:02:32			0	37303	0	0	0	19025	17760	136374	27509	971032	39235	106940	0	0	8327	601509	0	0
2024-05-13 18:03:32			0	37306	0	0	0	19012	17740	136434	27403	970920	39244	106935	0	0	8327	601449	0	0
2024-05-13 18:04:32			0	37299	0	0	0	19005	17740	136398	27350	970911	39253	106932	0	0	8327	601742	0	0
2024-05-13 18:05:32			0	37303	0	0	0	18987	17710	136382	27677	970835	39218	106925	0	0	8327	601672	0	0
2024-05-13 18:06:32			0	37306	0	0	0	18987	17690	136450	27616	970784	39229	106925	0	0	8327	601612	0	0
2024-05-13 18:07:32			0	37289	0	0	0	18981	17680	136454	27403	970767	39239	106923	0	0	8326	602357	0	0
2024-05-13 18:08:32			0	37297	0	0	0	18971	17680	136410	27216	970793	39217	106919	0	0	8327	602022	0	0
2024-05-13 18:09:32			0	37322	0	0	0	18961	17670	136375	27628	970716	39226	106915	0	0	8328	601008	0	0
2024-05-13 18:10:32			0	37297	0	0	0	18966	17660	136478	27694	970681	39237	106917	0	0	8327	602088	0	0
2024-05-13 18:11:32			0	37307	0	0	0	18953	17660	136514	27831	970646	39225	106912	0	0	8328	601669	0	0
2024-05-13 18:12:32			0	37318	0	0	0	18945	17650	136399	27718	970638	39224	106909	0	0	8328	601241	0	0
2024-05-13 18:13:32			0	37297	0	0	0	18942	17640	136458	27331	970587	39212	106908	0	0	8327	602153	0	0
2024-05-13 18:14:32			0	37301	0	0	0	18948	17640	136462	27516	970640	39235	106910	0	0	8327	601986	0	0
2024-05-13 18:15:32			0	37306	0	0	0	18942	17610	136406	27699	970572	39232	106908	0	0	8328	601874	0	0
2024-05-13 18:16:32			0	37328	0	0	0	18935	17610	136499	27488	970554	39222	106905	0	0	8329	600953	0	0
2024-05-13 18:17:32			0	37308	0	0	0	18932	17610	136426	27621	970572	39221	106904	0	0	8328	601791	0	0
2024-05-13 18:18:32			0	37316	0	0	0	18924	17600	136471	27621	970484	39220	106901	0	0	8328	601488	0	0
2024-05-13 18:19:32			0	37315	0	0	0	18909	17600	136570	27654	970476	39231	106895	0	0	8329	601530	0	0
2024-05-13 18:20:32			0	37330	0	0	0	18893	17590	136471	27405	970407	39219	106889	0	0	8330	600935	0	0
2024-05-13 18:21:32			0	37300	0	0	0	18896	17590	136526	27350	970460	39230	106890	0	0	8328	602191	0	0
2024-05-13 18:22:32			0	37309	0	0	0	18883	17570	136474	27885	970382	39218	106885	0	0	8329	601880	0	0
2024-05-13 18:23:32			0	37313	0	0	0	18888	17570	136406	27621	970374	39217	106887	0	0	8329	601712	0	0
2024-05-13 18:24:32			0	37316	0	0	0	18883	17560	136486	27277	970313	39228	106885	0	0	8329	601619	0	0
2024-05-13 18:25:32			0	37318	0	0	0	18875	17560	136443	27310	970278	39217	106882	0	0	8329	601535	0	0
2024-05-13 18:26:32			0	37325	0	0	0	18872	17540	136434	27464	970306	39215	106881	0	0	8329	601308	0	0
2024-05-13 18:27:32			0	37309	0	0	0	18867	17530	136522	27621	970255	39204	106879	0	0	8329	602011	0	0
2024-05-13 18:28:32			0	37332	0	0	0	18859	17530	136519	27485	970229	39204	106876	0	0	8330	601047	0	0
2024-05-13 18:29:32			0	37323	0	0	0	18864	17530	136574	27628	970229	39204	106878	0	0	8329	601424	0	0
2024-05-13 18:30:32			0	37318	0	0	0	18864	17520	136559	27467	970220	39213	106878	0	0	8329	601666	0	0
2024-05-13 18:31:32			0	37331	0	0	0	18870	17510	136551	27384	970222	39212	106880	0	0	8330	601155	0	0
2024-05-13 18:32:32			0	37323	0	0	0	18857	17510	136583	27552	970177	39212	106875	0	0	8330	601490	0	0
2024-05-13 18:33:32			0	37334	0	0	0	18862	17510	136463	27511	970222	39223	106877	0	0	8330	601029	0	0
2024-05-13 18:34:32			0	37305	0	0	0	18846	17510	136486	27369	970257	39212	106871	0	0	8329	602244	0	0
2024-05-13 18:35:32			0	37316	0	0	0	18851	17500	136579	27746	970108	39223	106873	0	0	8329	601815	0	0
2024-05-13 18:36:32			0	37328	0	0	0	18854	17500	136630	27440	970134	39211	106874	0	0	8330	601313	0	0
2024-05-13 18:37:32			0	37329	0	0	0	18851	17500	136531	27516	970153	39211	106873	0	0	8330	601271	0	0
2024-05-13 18:38:32			0	37340	0	0	0	18857	17500	136503	27448	970153	39222	106875	0	0	8330	600811	0	0
2024-05-13 18:39:32			0	37337	0	0	0	18859	17500	136523	27725	970153	39233	106876	0	0	8330	600936	0	0
2024-05-13 18:40:32			0	37337	0	0	0	18854	17490	136583	27123	970189	39233	106874	0	0	8330	600969	0	0
2024-05-13 18:41:32			0	37329	0	0	0	18854	17500	136491	27390	970205	39233	106874	0	0	8330	601271	0	0
2024-05-13 18:42:32			0	37329	0	0	0	18851	17490	136439	27523	970136	39211	106873	0	0	8330	601304	0	0
2024-05-13 18:43:32			0	37341	0	0	0	18864	17490	136515	27611	970197	39222	106878	0	0	8330	600802	0	0
2024-05-13 18:44:32			0	37341	0	0	0	18862	17490	136439	27381	970197	39211	106877	0	0	8330	600802	0	0
2024-05-13 18:45:32			0	37347	0	0	0	18864	17490	136495	27722	970163	39211	106878	0	0	8331	600550	0	0
2024-05-13 18:46:32			0	37331	0	0	0	18872	17490	136531	27540	970144	39222	106881	0	0	8330	601220	0	0
2024-05-13 18:47:32			0	37333	0	0	0	18870	17500	136463	27421	970205	39222	106880	0	0	8330	601104	0	0
2024-05-13 18:48:32			0	37333	0	0	0	18864	17480	136451	27578	970154	39221	106878	0	0	8330	601169	0	0
2024-05-13 18:49:32			0	37360	0	0	0	18851	17490	136431	27703	970118	39233	106873	0	0	8331	600007	0	0
2024-05-13 18:50:32			0	37368	0	0	0	18849	17480	136447	27637	970146	39209	106872	0	0	8332	599705	0	0
2024-05-13 18:51:32			0	37337	0	0	0	18857	17480	136487	27547	970040	39199	106875	0	0	8330	601001	0	0
2024-05-13 18:52:32			0	37360	0	0	0	18846	17480	136471	27227	970066	39209	106871	0	0	8332	600039	0	0
2024-05-13 18:53:32			0	37359	0	0	0	18849	17470	136411	27372	970058	39208	106872	0	0	8331	600114	0	0
2024-05-13 18:54:32			0	37363	0	0	0	18844	17470	136491	27630	970005	39230	106870	0	0	8332	599946	0	0
2024-05-13 18:55:32			0	37361	0	0	0	18849	17480	136411	27308	970066	39220	106872	0	0	8332	599997	0	0
2024-05-13 18:56:32			0	37355	0	0	0	18849	17480	136447	27351	969934	39209	106872	0	0	8331	600248	0	0
2024-05-13 18:57:32			0	37364	0	0	0	18841	17470	136435	27569	970050	39230	106869	0	0	8332	599905	0	0
2024-05-13 18:58:32			0	37357	0	0	0	18844	17460	136387	27130	970042	39208	106870	0	0	8331	600230	0	0
2024-05-13 18:59:32			0	37367	0	0	0	18846	17470	136343	27391	970058	39219	106871	0	0	8332	599779	0	0
2024-05-13 19:00:32			0	37365	0	0	0	18836	17470	136359	27277	970050	39208	106867	0	0	8332	599863	0	0
2024-05-13 19:01:32			0	37376	0	0	0	18844	17470	136359	27467	970050	39219	106870	0	0	8332	599403	0	0
2024-05-13 19:02:32			0	37377	0	0	0	18841	17460	136315	27576	970095	39208	106869	0	0	8332	599394	0	0
2024-05-13 19:03:32			0	37387	0	0	0	18841	17460	136315	27154	970015	39219	106869	0	0	8333	598976	0	0
2024-05-13 19:04:32			0	37372	0	0	0	18838	17460	136323	27147	969954	39218	106868	0	0	8332	599603	0	0
2024-05-13 19:05:32			0	37371	0	0	0	18841	17460	136323	27282	970042	39208	106869	0	0	8332	599645	0	0
2024-05-13 19:06:32			0	37385	0	0	0	18846	17450	136339	26989	969946	39217	106871	0	0	8333	599092	0	0
2024-05-13 19:07:32			0	37392	0	0	0	18836	17460	136355	27313	969954	39208	106867	0	0	8333	598767	0	0
2024-05-13 19:08:32			0	37388	0	0	0	18833	17460	136355	27440	969936	39219	106866	0	0	8333	598934	0	0
2024-05-13 19:09:32			0	37382	0	0	0	18836	17450	136279	27339	969946	39217	106867	0	0	8333	599217	0	0
2024-05-13 19:10:32			0	37389	0	0	0	18836	17450	136243	27124	969920	39229	106867	0	0	8333	598925	0	0
2024-05-13 19:11:32			0	37400	0	0	0	18828	17450	136251	27013	969920	39217	106864	0	0	8334	598466	0	0
2024-05-13 19:12:32			0	37382	0	0	0	18836	17450	136207	27170	969920	39217	106867	0	0	8333	599217	0	0
2024-05-13 19:13:32			0	37384	0	0	0	18825	17460	136183	27346	969981	39218	106863	0	0	8333	599101	0	0
2024-05-13 19:14:32			0	37391	0	0	0	18823	17440	136163	27088	969921	39206	106862	0	0	8333	598874	0	0
2024-05-13 19:15:32			0	37401	0	0	0	18825	17450	136235	27566	969920	39207	106863	0	0	8334	598424	0	0
2024-05-13 19:16:32			0	37402	0	0	0	18828	17440	136195	27479	969956	39217	106864	0	0	8334	598415	0	0
2024-05-13 19:17:32			0	37421	0	0	0	18820	17440	136135	27490	969895	39206	106861	0	0	8335	597622	0	0
2024-05-13 19:18:32			0	37411	0	0	0	18825	17430	136203	27364	969852	39216	106863	0	0	8334	598072	0	0
2024-05-13 19:19:32			0	37439	0	0	0	18812	17450	136139	27360	969885	39217	106858	0	0	8336	596839	0	0
2024-05-13 19:20:32			0	37429	0	0	0	18818	17440	136079	27220	969930	39207	106860	0	0	8335	597288	0	0
2024-05-13 19:21:32			0	37419	0	0	0	18818	17420	136115	27357	969897	39216	106860	0	0	8335	597770	0	0
2024-05-13 19:22:32			0	37425	0	0	0	18815	17430	136123	27256	969887	39216	106859	0	0	8335	597488	0	0
2024-05-13 19:23:32			0	37432	0	0	0	18807	17430	136071	27402	969834	39216	106856	0	0	8336	597196	0	0
2024-05-13 19:24:32			0	37442	0	0	0	18815	17440	136059	27258	969868	39217	106859	0	0	8336	596746	0	0
2024-05-13 19:25:32			0	37402	0	0	0	18818	17430	136123	27478	969878	39227	106860	0	0	8334	598447	0	0
2024-05-13 19:26:32			0	37435	0	0	0	18807	17430	136107	27543	969860	39206	106856	0	0	8336	597070	0	0
2024-05-13 19:27:32			0	37445	0	0	0	18805	17430	136095	27345	969887	39216	106855	0	0	8336	596654	0	0
2024-05-13 19:28:32			0	37442	0	0	0	18807	17430	136159	27521	969860	39227	106856	0	0	8336	596779	0	0
2024-05-13 19:29:32			0	37462	0	0	0	18815	17430	135987	27675	969852	39216	106859	0	0	8337	595946	0	0
2024-05-13 19:30:32			0	37446	0	0	0	18805	17430	136059	27312	969913	39216	106855	0	0	8337	596612	0	0
2024-05-13 19:31:32			0	37452	0	0	0	18812	17430	136003	27607	969834	39216	106858	0	0	8337	596362	0	0
2024-05-13 19:32:32			0	37455	0	0	0	18807	17430	136043	27090	969852	39216	106856	0	0	8337	596237	0	0
2024-05-13 19:33:32			0	37461	0	0	0	18812	17430	135987	27339	969834	39216	106858	0	0	8337	595987	0	0
2024-05-13 19:34:32			0	37458	0	0	0	18807	17430	136067	27410	969826	39227	106856	0	0	8337	596112	0	0
2024-05-13 19:35:32			0	37456	0	0	0	18810	17420	136127	27587	969870	39206	106857	0	0	8337	596228	0	0
2024-05-13 19:36:32			0	37450	0	0	0	18815	17420	136119	27293	969862	39226	106859	0	0	8337	596478	0	0
2024-05-13 19:37:32			0	37461	0	0	0	18810	17430	136043	27547	969852	39227	106857	0	0	8337	595987	0	0
2024-05-13 19:38:32			0	37480	0	0	0	18802	17420	136071	27661	969817	39227	106854	0	0	8338	595229	0	0
2024-05-13 19:39:32			0	37468	0	0	0	18805	17420	136035	27296	969809	39226	106855	0	0	8338	595728	0	0
2024-05-13 19:40:32			0	37481	0	0	0	18802	17420	135927	27345	969809	39215	106854	0	0	8338	595187	0	0
2024-05-13 19:41:32			0	37478	0	0	0	18799	17430	136007	27345	969852	39216	106853	0	0	8338	595280	0	0
2024-05-13 19:42:32			0	37497	0	0	0	18797	17410	136015	27067	969827	39214	106852	0	0	8339	594554	0	0
2024-05-13 19:43:32			0	37486	0	0	0	18786	17420	136031	27154	969809	39205	106848	0	0	8339	594979	0	0
2024-05-13 19:44:32			0	37492	0	0	0	18797	17410	135931	27383	969740	39224	106852	0	0	8339	594762	0	0
2024-05-13 19:45:32			0	37496	0	0	0	18792	17410	135915	27633	969819	39224	106850	0	0	8339	594596	0	0
2024-05-13 19:46:32			0	37495	0	0	0	18786	17410	136003	27457	969827	39225	106848	0	0	8339	594638	0	0
2024-05-13 19:47:32			0	37488	0	0	0	18781	17410	135895	27365	969793	39203	106846	0	0	8339	594929	0	0
2024-05-13 19:48:32			0	37511	0	0	0	18779	17410	135883	27576	969774	39214	106845	0	0	8340	593972	0	0
2024-05-13 19:49:32			0	37502	0	0	0	18786	17410	135867	27448	969766	39224	106848	0	0	8340	594347	0	0
2024-05-13 19:50:32			0	37512	0	0	0	18779	17410	135919	27374	969740	39203	106845	0	0	8340	593931	0	0
2024-05-13 19:51:32			0	37488	0	0	0	18781	17400	135903	27388	969679	39213	106846	0	0	8339	594961	0	0
2024-05-13 19:52:32			0	37525	0	0	0	18776	17390	135843	27447	969689	39212	106844	0	0	8341	593455	0	0
2024-05-13 19:53:32			0	37513	0	0	0	18766	17390	135847	27473	969715	39212	106840	0	0	8341	593954	0	0
2024-05-13 19:54:32			0	37514	0	0	0	18768	17390	135871	27467	969768	39212	106841	0	0	8341	593912	0	0
2024-05-13 19:55:32			0	37522	0	0	0	18774	17400	135895	27476	969723	39213	106843	0	0	8341	593548	0	0
2024-05-13 19:56:32			0	37543	0	0	0	18771	17390	135843	27350	969689	39212	106842	0	0	8342	592708	0	0
2024-05-13 19:57:32			0	37551	0	0	0	18761	17400	135791	27438	969670	39213	106838	0	0	8343	592344	0	0
2024-05-13 19:58:32			0	37544	0	0	0	18766	17390	135791	27822	969680	39211	106840	0	0	8342	592667	0	0
2024-05-13 19:59:32			0	37527	0	0	0	18755	17390	135775	27305	969662	39212	106836	0	0	8342	593372	0	0
2024-05-13 20:00:32			0	37537	0	0	0	18763	17390	135823	27360	969680	39211	106839	0	0	8342	592957	0	0
2024-05-13 20:01:32			0	37546	0	0	0	18755	17380	135795	27187	969646	39201	106836	0	0	8342	592616	0	0
2024-05-13 20:02:32			0	37553	0	0	0	18763	17380	135823	27046	969646	39211	106839	0	0	8343	592326	0	0
2024-05-13 20:03:32			0	37544	0	0	0	18758	17390	135799	27585	969715	39212	106837	0	0	8342	592667	0	0
2024-05-13 20:04:32			0	37557	0	0	0	18763	17380	135747	27357	969690	39201	106839	0	0	8343	592160	0	0
2024-05-13 20:05:32			0	37554	0	0	0	18753	17380	135803	27459	969646	39201	106835	0	0	8343	592284	0	0
2024-05-13 20:06:32			0	37546	0	0	0	18753	17380	135787	27140	969672	39211	106835	0	0	8343	592616	0	0
2024-05-13 20:07:32			0	37547	0	0	0	18758	17390	135667	27658	969707	39211	106837	0	0	8343	592542	0	0
2024-05-13 20:08:32			0	37552	0	0	0	18761	17390	135723	27069	969680	39201	106838	0	0	8343	592335	0	0
2024-05-13 20:09:32			0	37554	0	0	0	18758	17380	135711	27116	969698	39211	106837	0	0	8343	592284	0	0
2024-05-13 20:10:32			0	37580	0	0	0	18768	17380	135699	27386	969672	39201	106841	0	0	8344	591207	0	0
2024-05-13 20:11:32			0	37553	0	0	0	18763	17380	135739	27211	969646	39211	106839	0	0	8343	592326	0	0
2024-05-13 20:12:32			0	37561	0	0	0	18771	17380	135579	27145	969725	39211	106842	0	0	8343	591994	0	0
2024-05-13 20:13:32			0	37579	0	0	0	18774	17390	135603	27131	969707	39201	106843	0	0	8344	591216	0	0
2024-05-13 20:14:32			0	37594	0	0	0	18771	17390	135703	27301	969654	39222	106842	0	0	8345	590595	0	0
2024-05-13 20:15:32			0	37594	0	0	0	18781	17390	135615	27483	969760	39201	106846	0	0	8345	590595	0	0
2024-05-13 20:16:32			0	37604	0	0	0	18779	17390	135659	27066	969768	39223	106845	0	0	8345	590181	0	0
2024-05-13 20:17:32			0	37590	0	0	0	18797	17390	135567	27623	969794	39212	106852	0	0	8344	590760	0	0
2024-05-13 20:18:32			0	37587	0	0	0	18815	17400	135567	27493	969811	39235	106859	0	0	8344	590852	0	0
2024-05-13 20:19:32			0	37596	0	0	0	18846	17420	135623	27476	969968	39215	106871	0	0	8344	590416	0	0
2024-05-13 20:20:32			0	37594	0	0	0	18867	17420	135663	27381	970002	39216	106879	0	0	8343	590498	0	0
2024-05-13 20:21:32			0	37594	0	0	0	18880	17440	135635	27059	970053	39239	106884	0	0	8343	590434	0	0
2024-05-13 20:22:32			0	37594	0	0	0	18883	17440	135627	27443	970141	39240	106885	0	0	8343	590434	0	0
2024-05-13 20:23:32			0	37590	0	0	0	18898	17460	135543	27445	970227	39241	106891	0	0	8343	590536	0	0
2024-05-13 20:24:32			0	37593	0	0	0	18914	17480	135523	27124	970278	39242	106897	0	0	8343	590347	0	0
2024-05-13 20:25:32			0	37596	0	0	0	18922	17480	135507	27279	970278	39242	106900	0	0	8343	590223	0	0
2024-05-13 20:26:32			0	37600	0	0	0	18922	17490	135519	27244	970268	39233	106900	0	0	8343	590026	0	0
2024-05-13 20:27:32			0	37592	0	0	0	18927	17490	135523	27416	970250	39244	106902	0	0	8342	590357	0	0
2024-05-13 20:28:32			0	37597	0	0	0	18924	17490	135535	27301	970268	39211	106901	0	0	8343	590150	0	0
2024-05-13 20:29:32			0	37618	0	0	0	18919	17510	135531	27263	970275	39223	106899	0	0	8344	589217	0	0
2024-05-13 20:30:32			0	37597	0	0	0	18922	17510	135483	27412	970328	39235	106900	0	0	8343	590085	0	0
2024-05-13 20:31:32			0	37599	0	0	0	18916	17510	135539	27450	970275	39246	106898	0	0	8343	590003	0	0
2024-05-13 20:32:32			0	37588	0	0	0	18924	17520	135591	27601	970379	39247	106901	0	0	8342	590426	0	0
2024-05-13 20:33:32			0	37604	0	0	0	18924	17530	135519	27595	970361	39225	106901	0	0	8343	589732	0	0
2024-05-13 20:34:32			0	37599	0	0	0	18924	17520	135463	27552	970405	39236	106901	0	0	8343	589971	0	0
2024-05-13 20:35:32			0	37606	0	0	0	18929	17520	135499	27353	970344	39223	106903	0	0	8343	589681	0	0
2024-05-13 20:36:32			0	37608	0	0	0	18924	17540	135495	27680	970351	39247	106901	0	0	8344	589534	0	0
2024-05-13 20:37:32			0	37625	0	0	0	18911	17540	135487	27362	970430	39236	106896	0	0	8345	588832	0	0
2024-05-13 20:38:32			0	37618	0	0	0	18909	17540	135435	27855	970377	39225	106895	0	0	8344	589121	0	0
2024-05-13 20:39:32			0	37632	0	0	0	18911	17540	135451	27741	970438	39248	106896	0	0	8345	588543	0	0
2024-05-13 20:40:32			0	37598	0	0	0	18922	17540	135483	27277	970491	39237	106900	0	0	8343	589948	0	0
2024-05-13 20:41:32			0	37640	0	0	0	18929	17540	135375	27599	970465	39226	106903	0	0	8345	588213	0	0
2024-05-13 20:42:32			0	37627	0	0	0	18942	17550	135339	27355	970420	39227	106908	0	0	8344	588717	0	0
2024-05-13 20:43:32			0	37633	0	0	0	18961	17550	135367	27329	970481	39239	106915	0	0	8344	588470	0	0
2024-05-13 20:44:32			0	37617	0	0	0	18961	17550	135395	27326	970499	39227	106915	0	0	8343	589130	0	0
2024-05-13 20:45:32			0	37633	0	0	0	18955	17560	135455	27300	970445	39228	106913	0	0	8344	588438	0	0
2024-05-13 20:46:32			0	37613	0	0	0	18945	17560	135411	27320	970437	39250	106909	0	0	8344	589264	0	0
2024-05-13 20:47:32			0	37624	0	0	0	18953	17550	135403	27486	970481	39239	106912	0	0	8344	588841	0	0
2024-05-13 20:48:32			0	37643	0	0	0	18948	17570	135427	27557	970479	39240	106910	0	0	8345	587993	0	0
2024-05-13 20:49:32			0	37636	0	0	0	18958	17570	135407	27698	970453	39240	106914	0	0	8345	588282	0	0
2024-05-13 20:50:32			0	37630	0	0	0	18948	17560	135451	27892	970550	39239	106910	0	0	8344	588561	0	0
2024-05-13 20:51:32			0	37632	0	0	0	18955	17560	135427	27855	970498	39239	106913	0	0	8344	588479	0	0
2024-05-13 20:52:32			0	37652	0	0	0	18953	17570	135339	27327	970453	39229	106912	0	0	8345	587622	0	0
2024-05-13 20:53:32			0	37637	0	0	0	18945	17570	135367	27755	970506	39240	106909	0	0	8345	588240	0	0
2024-05-13 20:54:32			0	37653	0	0	0	18937	17560	135403	27225	970418	39239	106906	0	0	8346	587612	0	0
2024-05-13 20:55:32			0	37638	0	0	0	18937	17550	135311	27540	970455	39228	106906	0	0	8345	588263	0	0
2024-05-13 20:56:32			0	37645	0	0	0	18927	17560	135359	27509	970524	39239	106902	0	0	8346	587942	0	0
2024-05-13 20:57:32			0	37639	0	0	0	18935	17560	135327	27412	970498	39250	106905	0	0	8345	588190	0	0
2024-05-13 20:58:32			0	37646	0	0	0	18929	17550	135339	27251	970455	39228	106903	0	0	8345	587933	0	0
2024-05-13 20:59:32			0	37656	0	0	0	18927	17560	135375	27578	970418	39228	106902	0	0	8346	587489	0	0
2024-05-13 21:00:32			0	37642	0	0	0	18927	17550	135243	27481	970428	39239	106902	0	0	8345	588098	0	0
2024-05-13 21:01:32			0	37651	0	0	0	18929	17560	135371	27718	970392	39217	106903	0	0	8346	587695	0	0
2024-05-13 21:02:32			0	37670	0	0	0	18922	17540	135311	27616	970412	39237	106900	0	0	8347	586975	0	0
2024-05-13 21:03:32			0	37649	0	0	0	18914	17550	135415	27800	970420	39249	106897	0	0	8346	587809	0	0
2024-05-13 21:04:32			0	37631	0	0	0	18898	17540	135279	27639	970377	39236	106891	0	0	8345	588584	0	0
2024-05-13 21:05:32			0	37658	0	0	0	18880	17550	135275	27656	970367	39227	106884	0	0	8347	587438	0	0
2024-05-13 21:06:32			0	37658	0	0	0	18864	17540	135315	27658	970306	39226	106878	0	0	8347	587470	0	0
2024-05-13 21:07:32			0	37644	0	0	0	18851	17520	135351	27227	970194	39224	106873	0	0	8347	588111	0	0
2024-05-13 21:08:32			0	37659	0	0	0	18841	17510	135319	27542	970143	39212	106869	0	0	8348	587525	0	0
2024-05-13 21:09:32			0	37664	0	0	0	18831	17510	135335	27699	970072	39212	106865	0	0	8348	587318	0	0
2024-05-13 21:10:32			0	37672	0	0	0	18828	17490	135239	27320	970110	39211	106864	0	0	8348	587053	0	0
2024-05-13 21:11:32			0	37667	0	0	0	18818	17490	135243	27540	970057	39233	106860	0	0	8348	587259	0	0
2024-05-13 21:12:32			0	37651	0	0	0	18820	17480	135335	27653	969995	39221	106861	0	0	8347	587951	0	0
2024-05-13 21:13:32			0	37673	0	0	0	18797	17470	135279	27682	969953	39219	106852	0	0	8349	587075	0	0
2024-05-13 21:14:32			0	37680	0	0	0	18794	17460	135267	27597	969910	39219	106851	0	0	8349	586818	0	0
2024-05-13 21:15:32			0	37685	0	0	0	18792	17460	135407	27637	969875	39229	106850	0	0	8349	586612	0	0
2024-05-13 21:16:32			0	37676	0	0	0	18779	17460	135303	27421	969910	39219	106845	0	0	8349	586983	0	0
2024-05-13 21:17:32			0	37681	0	0	0	18786	17450	135351	27542	969920	39196	106848	0	0	8349	586809	0	0
2024-05-13 21:18:32			0	37672	0	0	0	18779	17450	135311	27443	969832	39196	106845	0	0	8349	587180	0	0
2024-05-13 21:19:32			0	37654	0	0	0	18779	17440	135279	27481	969850	39207	106845	0	0	8348	587955	0	0
2024-05-13 21:20:32			0	37668	0	0	0	18774	17430	135267	27336	969860	39216	106843	0	0	8349	587409	0	0
2024-05-13 21:21:32			0	37674	0	0	0	18789	17430	135347	27374	969887	39216	106849	0	0	8349	587162	0	0
2024-05-13 21:22:32			0	37686	0	0	0	18789	17440	135283	27251	969868	39217	106849	0	0	8350	586635	0	0
2024-05-13 21:23:32			0	37681	0	0	0	18786	17420	135319	27293	969844	39216	106848	0	0	8349	586905	0	0
2024-05-13 21:24:32			0	37679	0	0	0	18794	17430	135343	27581	969826	39216	106851	0	0	8349	586955	0	0
2024-05-13 21:25:32			0	37684	0	0	0	18805	17420	135395	27402	969844	39227	106855	0	0	8349	586781	0	0
2024-05-13 21:26:32			0	37672	0	0	0	18807	17430	135375	27286	969931	39227	106856	0	0	8348	587244	0	0
2024-05-13 21:27:32			0	37683	0	0	0	18799	17420	135431	27211	969870	39206	106853	0	0	8349	586822	0	0
2024-05-13 21:28:32			0	37687	0	0	0	18789	17420	135459	27424	969817	39216	106849	0	0	8349	586658	0	0
2024-05-13 21:29:32			0	37688	0	0	0	18797	17400	135359	27261	969731	39213	106852	0	0	8349	586680	0	0
2024-05-13 21:30:32			0	37678	0	0	0	18781	17410	135415	27275	969766	39213	106846	0	0	8349	587060	0	0
2024-05-13 21:31:32			0	37695	0	0	0	18776	17400	135367	27199	969784	39203	106844	0	0	8350	586392	0	0
2024-05-13 21:32:32			0	37672	0	0	0	18771	17400	135427	27433	969723	39213	106842	0	0	8349	587340	0	0
2024-05-13 21:33:32			0	37682	0	0	0	18774	17400	135399	27415	969670	39224	106843	0	0	8349	586928	0	0
2024-05-13 21:34:32			0	37698	0	0	0	18766	17400	135347	27145	969723	39224	106840	0	0	8350	586268	0	0
2024-05-13 21:35:32			0	37693	0	0	0	18766	17400	135343	27414	969644	39224	106840	0	0	8350	586474	0	0
2024-05-13 21:36:32			0	37694	0	0	0	18768	17390	135295	27149	969662	39212	106841	0	0	8350	586465	0	0
2024-05-13 21:37:32			0	37674	0	0	0	18758	17380	135275	27555	969619	39211	106837	0	0	8349	587321	0	0
2024-05-13 21:38:32			0	37705	0	0	0	18755	17380	135323	27473	969611	39211	106836	0	0	8351	586043	0	0
2024-05-13 21:39:32			0	37700	0	0	0	18758	17380	135363	27187	969619	39211	106837	0	0	8351	586249	0	0
2024-05-13 21:40:32			0	37701	0	0	0	18768	17380	135463	27180	969690	39201	106841	0	0	8350	586208	0	0
2024-05-13 21:41:32			0	37716	0	0	0	18768	17370	135339	27277	969656	39200	106841	0	0	8351	585622	0	0
2024-05-13 21:42:32			0	37714	0	0	0	18786	17380	135339	27008	969672	39201	106848	0	0	8351	585673	0	0
2024-05-13 21:43:32			0	37701	0	0	0	18786	17380	135335	27083	969690	39222	106848	0	0	8350	586208	0	0
2024-05-13 21:44:32			0	37714	0	0	0	18802	17390	135331	27358	969768	39212	106854	0	0	8351	585641	0	0
2024-05-13 21:45:32			0	37708	0	0	0	18805	17390	135339	27034	969707	39211	106855	0	0	8350	585888	0	0
2024-05-13 21:46:32			0	37688	0	0	0	18807	17380	135251	27019	969778	39222	106856	0	0	8349	586744	0	0
2024-05-13 21:47:32			0	37700	0	0	0	18799	17380	135311	27211	969717	39211	106853	0	0	8350	586249	0	0
2024-05-13 21:48:32			0	37711	0	0	0	18792	17390	135331	27365	969628	39211	106850	0	0	8351	585765	0	0
2024-05-13 21:49:32			0	37707	0	0	0	18789	17380	135331	27595	969743	39234	106849	0	0	8350	585961	0	0
2024-05-13 21:50:32			0	37702	0	0	0	18784	17380	135331	27251	969646	39211	106847	0	0	8350	586167	0	0
2024-05-13 21:51:32			0	37699	0	0	0	18794	17390	135403	26941	969662	39212	106851	0	0	8350	586259	0	0
2024-05-13 21:52:32			0	37712	0	0	0	18784	17390	135291	27313	969733	39222	106847	0	0	8351	585723	0	0
2024-05-13 21:53:32			0	37692	0	0	0	18774	17390	135319	27161	969715	39212	106843	0	0	8350	586547	0	0
2024-05-13 21:54:32			0	37707	0	0	0	18776	17400	135275	27327	969723	39224	106844	0	0	8351	585897	0	0
2024-05-13 21:55:32			0	37707	0	0	0	18779	17400	135355	27407	969750	39213	106845	0	0	8351	585897	0	0
2024-05-13 21:56:32			0	37734	0	0	0	18771	17380	135291	27810	969725	39211	106842	0	0	8352	584850	0	0
2024-05-13 21:57:32			0	37707	0	0	0	18774	17390	135259	27339	969715	39212	106843	0	0	8351	585929	0	0
2024-05-13 21:58:32			0	37719	0	0	0	18768	17380	135363	27530	969690	39234	106841	0	0	8351	585467	0	0
2024-05-13 21:59:32			0	37726	0	0	0	18768	17380	135311	27441	969664	39222	106841	0	0	8352	585179	0	0
2024-05-13 22:00:32			0	37705	0	0	0	18763	17380	135287	27239	969593	39211	106839	0	0	8351	586043	0	0
2024-05-13 22:01:32			0	37721	0	0	0	18763	17380	135303	27492	969637	39222	106839	0	0	8352	585385	0	0
2024-05-13 22:02:32			0	37702	0	0	0	18758	17370	135291	27364	969603	39222	106837	0	0	8351	586199	0	0
2024-05-13 22:03:32			0	37723	0	0	0	18750	17360	135371	27481	969560	39221	106834	0	0	8352	585366	0	0
2024-05-13 22:04:32			0	37722	0	0	0	18750	17370	135307	27254	969603	39222	106834	0	0	8352	585375	0	0
2024-05-13 22:05:32			0	37717	0	0	0	18753	17360	135299	27331	969551	39232	106835	0	0	8351	585613	0	0
2024-05-13 22:06:32			0	37729	0	0	0	18745	17370	135315	27597	969621	39210	106832	0	0	8352	585087	0	0
2024-05-13 22:07:32			0	37722	0	0	0	18742	17360	135291	27334	969612	39221	106831	0	0	8352	585407	0	0
2024-05-13 22:08:32			0	37733	0	0	0	18737	17350	135195	27428	969570	39220	106829	0	0	8353	584986	0	0
2024-05-13 22:09:32			0	37734	0	0	0	18735	17360	135255	27500	969551	39221	106828	0	0	8353	584913	0	0
2024-05-13 22:10:32			0	37739	0	0	0	18742	17350	135239	27364	969570	39209	106831	0	0	8353	584739	0	0
2024-05-13 22:11:32			0	37730	0	0	0	18740	17350	135123	27322	969517	39209	106830	0	0	8352	585110	0	0
2024-05-13 22:12:32			0	37742	0	0	0	18742	17350	135283	27279	969535	39230	106831	0	0	8353	584616	0	0
2024-05-13 22:13:32			0	37730	0	0	0	18735	17360	135287	27176	969525	39210	106828	0	0	8352	585078	0	0
2024-05-13 22:14:32			0	37739	0	0	0	18742	17360	135263	27699	969631	39199	106831	0	0	8353	584708	0	0
2024-05-13 22:15:32			0	37741	0	0	0	18748	17350	135223	27547	969622	39220	106833	0	0	8353	584657	0	0
2024-05-13 22:16:32			0	37720	0	0	0	18753	17350	135259	27379	969561	39208	106835	0	0	8352	585521	0	0
2024-05-13 22:17:32			0	37737	0	0	0	18735	17350	135235	27242	969596	39231	106828	0	0	8353	584822	0	0
2024-05-13 22:18:32			0	37731	0	0	0	18740	17350	135151	27260	969596	39231	106830	0	0	8352	585069	0	0
2024-05-13 22:19:32			0	37732	0	0	0	18740	17350	135247	27554	969640	39208	106830	0	0	8352	585027	0	0
2024-05-13 22:20:32			0	37714	0	0	0	18748	17350	135227	27287	969596	39209	106833	0	0	8351	585768	0	0
2024-05-13 22:21:32			0	37739	0	0	0	18753	17350	135195	27505	969596	39231	106835	0	0	8353	584739	0	0
2024-05-13 22:22:32			0	37758	0	0	0	18750	17360	135247	27315	969551	39221	106834	0	0	8354	583926	0	0
2024-05-13 22:23:32			0	37730	0	0	0	18748	17360	135179	27261	969578	39221	106833	0	0	8352	585078	0	0
2024-05-13 22:24:32			0	37737	0	0	0	18742	17350	135291	27421	969535	39208	106831	0	0	8353	584822	0	0
2024-05-13 22:25:32			0	37732	0	0	0	18742	17350	135255	27514	969596	39220	106831	0	0	8352	585027	0	0
2024-05-13 22:26:32			0	37724	0	0	0	18748	17350	135203	27409	969570	39209	106833	0	0	8352	585357	0	0
2024-05-13 22:27:32			0	37724	0	0	0	18737	17360	135191	27405	969586	39210	106829	0	0	8352	585325	0	0
2024-05-13 22:28:32			0	37734	0	0	0	18735	17340	135191	27345	969579	39208	106828	0	0	8353	584977	0	0
2024-05-13 22:29:32			0	37746	0	0	0	18732	17350	135215	27105	969543	39209	106827	0	0	8353	584451	0	0
2024-05-13 22:30:32			0	37725	0	0	0	18735	17360	135175	27083	969578	39232	106828	0	0	8352	585284	0	0
2024-05-13 22:31:32			0	37737	0	0	0	18719	17350	135139	27535	969508	39208	106822	0	0	8353	584822	0	0
2024-05-13 22:32:32			0	37728	0	0	0	18703	17350	135195	27440	969517	39209	106816	0	0	8353	585192	0	0
2024-05-13 22:33:32			0	37735	0	0	0	18696	17330	135151	27362	969492	39218	106813	0	0	8353	584967	0	0
2024-05-13 22:34:32			0	37729	0	0	0	18696	17340	135119	27157	969474	39208	106813	0	0	8353	585183	0	0
2024-05-13 22:35:32			0	37742	0	0	0	18690	17330	135179	27384	969413	39208	106811	0	0	8354	584680	0	0
2024-05-13 22:36:32			0	37720	0	0	0	18693	17320	135131	27211	969423	39207	106812	0	0	8352	585617	0	0
2024-05-13 22:37:32			0	37742	0	0	0	18688	17320	135175	27215	969396	39207	106810	0	0	8354	584711	0	0
2024-05-13 22:38:32			0	37714	0	0	0	18672	17320	135147	27213	969362	39195	106804	0	0	8352	585864	0	0
2024-05-13 22:39:32			0	37756	0	0	0	18680	17320	135167	27692	969396	39207	106807	0	0	8355	584136	0	0
2024-05-13 22:40:32			0	37735	0	0	0	18667	17310	135215	27566	969353	39206	106802	0	0	8354	585031	0	0
2024-05-13 22:41:32			0	37736	0	0	0	18654	17300	135139	27189	969381	39215	106797	0	0	8354	585022	0	0
2024-05-13 22:42:32			0	37737	0	0	0	18646	17290	135247	27424	969320	39205	106794	0	0	8354	585012	0	0
2024-05-13 22:43:32			0	37729	0	0	0	18651	17300	135167	27595	969276	39205	106796	0	0	8354	585310	0	0
2024-05-13 22:44:32			0	37738	0	0	0	18636	17290	135207	27829	969233	39205	106790	0	0	8354	584971	0	0
2024-05-13 22:45:32			0	37745	0	0	0	18631	17290	135171	27093	969206	39193	106788	0	0	8355	584683	0	0
2024-05-13 22:46:32			0	37750	0	0	0	18620	17270	135095	27241	969103	39192	106784	0	0	8355	584541	0	0
2024-05-13 22:47:32			0	37764	0	0	0	18612	17280	135143	27578	969190	39181	106781	0	0	8356	583934	0	0
2024-05-13 22:48:32			0	37736	0	0	0	18607	17260	135071	27421	969131	39190	106779	0	0	8354	585149	0	0
2024-05-13 22:49:32			0	37750	0	0	0	18599	17260	135303	27235	969104	39190	106776	0	0	8355	584573	0	0
2024-05-13 22:50:32			0	37742	0	0	0	18594	17250	135147	27412	969070	39190	106774	0	0	8355	584934	0	0
2024-05-13 22:51:32			0	37737	0	0	0	18587	17240	135231	27398	969098	39188	106771	0	0	8355	585171	0	0
2024-05-13 22:52:32			0	37729	0	0	0	18594	17240	135223	27497	969053	39189	106774	0	0	8354	585501	0	0
2024-05-13 22:53:32			0	37753	0	0	0	18589	17240	135211	27213	969071	39199	106772	0	0	8356	584513	0	0
2024-05-13 22:54:32			0	37734	0	0	0	18581	17230	135199	27015	969010	39176	106769	0	0	8355	585326	0	0
2024-05-13 22:55:32			0	37758	0	0	0	18587	17210	135127	27473	968977	39186	106771	0	0	8356	584402	0	0
2024-05-13 22:56:32			0	37755	0	0	0	18594	17230	135239	27543	969036	39199	106774	0	0	8356	584462	0	0
2024-05-13 22:57:32			0	37746	0	0	0	18581	17210	135199	27575	968995	39186	106769	0	0	8355	584896	0	0
2024-05-13 22:58:32			0	37744	0	0	0	18589	17210	135171	27227	968942	39197	106772	0	0	8355	584978	0	0
2024-05-13 22:59:32			0	37736	0	0	0	18579	17210	135211	27436	969003	39208	106768	0	0	8355	585308	0	0
2024-05-13 23:00:32			0	37750	0	0	0	18581	17200	135211	27319	968987	39196	106769	0	0	8355	584763	0	0
2024-05-13 23:01:32			0	37755	0	0	0	18579	17210	135295	27209	968995	39197	106768	0	0	8356	584526	0	0
2024-05-13 23:02:32			0	37739	0	0	0	18581	17210	135279	27502	968969	39208	106769	0	0	8355	585184	0	0
2024-05-13 23:03:32			0	37751	0	0	0	18576	17200	135207	27509	968926	39185	106767	0	0	8356	584722	0	0
2024-05-13 23:04:32			0	37771	0	0	0	18584	17200	135271	27168	968960	39196	106770	0	0	8356	583900	0	0
2024-05-13 23:05:32			0	37754	0	0	0	18584	17200	135207	27322	968979	39185	106770	0	0	8356	584599	0	0
2024-05-13 23:06:32			0	37757	0	0	0	18579	17200	135215	27229	968960	39196	106768	0	0	8356	584475	0	0
2024-05-13 23:07:32			0	37767	0	0	0	18587	17190	135199	27069	968962	39195	106771	0	0	8356	584096	0	0
2024-05-13 23:08:32			0	37771	0	0	0	18581	17200	135231	27177	968926	39196	106769	0	0	8357	583900	0	0
2024-05-13 23:09:32			0	37761	0	0	0	18579	17190	135103	27455	968891	39195	106768	0	0	8356	584342	0	0
2024-05-13 23:10:32			0	37767	0	0	0	18581	17200	135131	27379	968908	39196	106769	0	0	8356	584064	0	0
2024-05-13 23:11:32			0	37769	0	0	0	18584	17200	135159	27306	968952	39185	106770	0	0	8356	583982	0	0
2024-05-13 23:12:32			0	37755	0	0	0	18584	17180	135179	27701	968901	39183	106770	0	0	8356	584621	0	0
2024-05-13 23:13:32			0	37749	0	0	0	18579	17190	135147	27372	968936	39195	106768	0	0	8355	584836	0	0
2024-05-13 23:14:32			0	37774	0	0	0	18576	17190	135171	27575	968936	39195	106767	0	0	8357	583808	0	0
2024-05-13 23:15:32			0	37756	0	0	0	18584	17190	135143	27336	968962	39206	106770	0	0	8356	584548	0	0
2024-05-13 23:16:32			0	37764	0	0	0	18587	17190	135195	27821	968883	39173	106771	0	0	8356	584219	0	0
2024-05-13 23:17:32			0	37763	0	0	0	18594	17190	135163	27486	968997	39206	106774	0	0	8356	584260	0	0
2024-05-13 23:18:32			0	37754	0	0	0	18594	17190	135183	27531	968989	39195	106774	0	0	8355	584630	0	0
2024-05-13 23:19:32			0	37776	0	0	0	18607	17200	135195	27218	969013	39196	106779	0	0	8356	583694	0	0
2024-05-13 23:20:32			0	37756	0	0	0	18610	17200	135243	27211	969013	39196	106780	0	0	8355	584516	0	0
2024-05-13 23:21:32			0	37762	0	0	0	18623	17210	135151	27457	969101	39197	106785	0	0	8355	584238	0	0
2024-05-13 23:22:32			0	37766	0	0	0	18631	17210	135059	27505	969074	39197	106788	0	0	8355	584074	0	0
2024-05-13 23:23:32			0	37776	0	0	0	18644	17210	135167	27711	969135	39208	106793	0	0	8356	583662	0	0
2024-05-13 23:24:32			0	37773	0	0	0	18670	17240	135147	27364	969177	39199	106803	0	0	8355	583691	0	0
2024-05-13 23:25:32			0	37765	0	0	0	18703	17240	135091	27312	969283	39221	106816	0	0	8354	584019	0	0
2024-05-13 23:26:32			0	37767	0	0	0	18735	17250	135171	27232	969360	39222	106828	0	0	8354	583906	0	0
2024-05-13 23:27:32			0	37774	0	0	0	18771	17270	135143	27713	969411	39234	106842	0	0	8354	583555	0	0
2024-05-13 23:28:32			0	37775	0	0	0	18789	17280	135207	27571	969542	39225	106849	0	0	8354	583482	0	0
2024-05-13 23:29:32			0	37758	0	0	0	18810	17290	135127	27201	969584	39226	106857	0	0	8352	584149	0	0
2024-05-13 23:30:32			0	37768	0	0	0	18825	17310	135159	27571	969609	39216	106863	0	0	8353	583674	0	0
2024-05-13 23:31:32			0	37765	0	0	0	18836	17320	135123	27620	969687	39229	106867	0	0	8352	583766	0	0
2024-05-13 23:32:32			0	37771	0	0	0	18836	17340	135219	27391	969764	39241	106867	0	0	8353	583456	0	0
2024-05-13 23:33:32			0	37764	0	0	0	18838	17360	135167	27663	969789	39232	106868	0	0	8352	583680	0	0
2024-05-13 23:34:32			0	37749	0	0	0	18838	17370	135115	27448	969814	39233	106868	0	0	8352	584265	0	0
2024-05-13 23:35:32			0	37763	0	0	0	18833	17370	135175	27585	969788	39233	106866	0	0	8353	583689	0	0
2024-05-13 23:36:32			0	37751	0	0	0	18846	17380	135263	27585	969883	39234	106871	0	0	8352	584151	0	0
2024-05-13 23:37:32			0	37755	0	0	0	18838	17390	135203	27277	969839	39234	106868	0	0	8352	583954	0	0
2024-05-13 23:38:32			0	37761	0	0	0	18838	17390	135087	27358	969847	39212	106868	0	0	8352	583708	0	0
2024-05-13 23:39:32			0	37754	0	0	0	18836	17390	135175	27753	969847	39235	106867	0	0	8352	583996	0	0
2024-05-13 23:40:32			0	37740	0	0	0	18838	17400	135003	27441	969935	39235	106868	0	0	8351	584539	0	0
2024-05-13 23:41:32			0	37746	0	0	0	18836	17400	135111	27828	969943	39235	106867	0	0	8352	584293	0	0
2024-05-13 23:42:32			0	37765	0	0	0	18836	17400	135011	27537	969837	39224	106867	0	0	8353	583512	0	0
2024-05-13 23:43:32			0	37746	0	0	0	18836	17390	134979	27268	969847	39223	106867	0	0	8352	584324	0	0
2024-05-13 23:44:32			0	37767	0	0	0	18841	17400	135019	27486	969943	39224	106869	0	0	8353	583430	0	0
2024-05-13 23:45:32			0	37734	0	0	0	18844	17410	135007	27642	969880	39225	106870	0	0	8351	584754	0	0
2024-05-13 23:46:32			0	37763	0	0	0	18844	17410	135047	27230	970012	39225	106870	0	0	8353	583562	0	0
2024-05-13 23:47:32			0	37763	0	0	0	18849	17410	135051	27599	969933	39236	106872	0	0	8352	583562	0	0
2024-05-13 23:48:32			0	37779	0	0	0	18854	17430	135095	27274	970037	39238	106874	0	0	8353	582842	0	0
2024-05-13 23:49:32			0	37754	0	0	0	18851	17420	135055	27383	969968	39237	106873	0	0	8352	583900	0	0
2024-05-13 23:50:32			0	37771	0	0	0	18849	17420	134995	27320	970020	39226	106872	0	0	8353	583202	0	0
2024-05-13 23:51:32			0	37771	0	0	0	18857	17430	135051	27296	969992	39238	106875	0	0	8353	583170	0	0
2024-05-13 23:52:32			0	37752	0	0	0	18851	17430	134995	27526	969966	39238	106873	0	0	8352	583951	0	0
2024-05-13 23:53:32			0	37766	0	0	0	18854	17430	134999	27300	970045	39227	106874	0	0	8353	583376	0	0
2024-05-13 23:54:32			0	37760	0	0	0	18854	17440	135011	27500	970062	39229	106874	0	0	8352	583591	0	0
2024-05-13 23:55:32			0	37780	0	0	0	18859	17440	134995	27497	970062	39229	106876	0	0	8353	582769	0	0
2024-05-13 23:56:32			0	37754	0	0	0	18859	17440	135003	27289	970053	39206	106876	0	0	8352	583837	0	0
2024-05-13 23:57:32			0	37760	0	0	0	18859	17440	134975	27436	970133	39228	106876	0	0	8352	583591	0	0
2024-05-13 23:58:32			0	37756	0	0	0	18864	17450	135083	27384	970096	39240	106878	0	0	8352	583723	0	0
2024-05-13 23:59:32			0	37738	0	0	0	18875	17440	135051	27587	970088	39229	106882	0	0	8351	584495	0	0
2024-05-14 00:00:32			0	37771	0	0	0	18859	17450	135019	27455	970070	39240	106876	0	0	8353	583107	0	0
2024-05-14 00:01:32			0	37739	0	0	0	18864	17450	135011	27614	970096	39240	106878	0	0	8351	584422	0	0
2024-05-14 00:02:32			0	37743	0	0	0	18867	17440	135051	27545	970062	39240	106879	0	0	8351	584289	0	0
2024-05-14 00:03:32			0	37761	0	0	0	18859	17460	134959	27466	970121	39241	106876	0	0	8352	583486	0	0
2024-05-14 00:04:32			0	37739	0	0	0	18862	17460	135015	27431	970068	39252	106877	0	0	8351	584390	0	0
2024-05-14 00:05:32			0	37744	0	0	0	18867	17450	134983	27393	970052	39229	106879	0	0	8351	584216	0	0
2024-05-14 00:06:32			0	37744	0	0	0	18870	17450	135067	27710	970105	39217	106880	0	0	8351	584216	0	0
2024-05-14 00:07:32			0	37740	0	0	0	18864	17460	135051	27246	970060	39241	106878	0	0	8351	584349	0	0
2024-05-14 00:08:32			0	37728	0	0	0	18864	17460	135119	27249	970086	39218	106878	0	0	8351	584842	0	0
2024-05-14 00:09:32			0	37718	0	0	0	18857	17460	135007	27315	970139	39229	106875	0	0	8350	585254	0	0
2024-05-14 00:10:32			0	37724	0	0	0	18864	17450	135059	27658	970025	39229	106878	0	0	8350	585038	0	0
2024-05-14 00:11:32			0	37716	0	0	0	18867	17460	135039	27242	970095	39230	106879	0	0	8350	585336	0	0
2024-05-14 00:12:32			0	37722	0	0	0	18862	17460	135119	27211	970095	39219	106877	0	0	8350	585089	0	0
2024-05-14 00:13:32			0	37715	0	0	0	18859	17460	135155	27345	970086	39229	106876	0	0	8350	585377	0	0
2024-05-14 00:14:32			0	37728	0	0	0	18857	17460	135211	27483	970113	39229	106875	0	0	8351	584842	0	0
2024-05-14 00:15:32			0	37729	0	0	0	18854	17450	135143	27360	970105	39229	106874	0	0	8351	584833	0	0
2024-05-14 00:16:32			0	37720	0	0	0	18854	17460	135199	27338	970113	39218	106874	0	0	8350	585171	0	0
2024-05-14 00:17:32			0	37713	0	0	0	18854	17450	135235	27253	970123	39240	106874	0	0	8350	585491	0	0
2024-05-14 00:18:32			0	37711	0	0	0	18864	17450	135199	27606	970105	39240	106878	0	0	8350	585573	0	0
2024-05-14 00:19:32			0	37701	0	0	0	18851	17470	135163	27220	970076	39230	106873	0	0	8349	585921	0	0
2024-05-14 00:20:32			0	37707	0	0	0	18849	17460	135211	27668	970060	39229	106872	0	0	8350	585706	0	0
2024-05-14 00:21:32			0	37679	0	0	0	18849	17450	135251	27199	970078	39229	106872	0	0	8348	586892	0	0
2024-05-14 00:22:32			0	37699	0	0	0	18849	17460	135219	27301	970086	39229	106872	0	0	8349	586036	0	0
2024-05-14 00:23:32			0	37695	0	0	0	18849	17460	135283	27464	970060	39218	106872	0	0	8349	586200	0	0
2024-05-14 00:24:32			0	37678	0	0	0	18846	17460	135267	27367	970033	39229	106871	0	0	8348	586901	0	0
2024-05-14 00:25:32			0	37684	0	0	0	18846	17450	135235	27331	970157	39229	106871	0	0	8348	586686	0	0
2024-05-14 00:26:32			0	37692	0	0	0	18844	17440	135315	27079	970088	39217	106870	0	0	8349	586388	0	0
2024-05-14 00:27:32			0	37680	0	0	0	18836	17450	135291	27346	970043	39217	106867	0	0	8348	586850	0	0
2024-05-14 00:28:32			0	37694	0	0	0	18836	17450	135339	27722	970070	39240	106867	0	0	8349	586273	0	0
2024-05-14 00:29:32			0	37669	0	0	0	18836	17440	135295	27519	970009	39240	106867	0	0	8348	587336	0	0
2024-05-14 00:30:32			0	37676	0	0	0	18836	17450	135399	27320	970052	39240	106867	0	0	8348	587015	0	0
2024-05-14 00:31:32			0	37683	0	0	0	18836	17450	135327	27272	970017	39240	106867	0	0	8349	586727	0	0
2024-05-14 00:32:32			0	37678	0	0	0	18838	17450	135311	27455	970017	39229	106868	0	0	8348	586933	0	0
2024-05-14 00:33:32			0	37666	0	0	0	18831	17440	135395	27715	970062	39229	106865	0	0	8348	587460	0	0
2024-05-14 00:34:32			0	37679	0	0	0	18833	17450	135291	27498	969991	39240	106866	0	0	8348	586892	0	0
2024-05-14 00:35:32			0	37673	0	0	0	18836	17440	135291	27589	970035	39240	106867	0	0	8348	587171	0	0
2024-05-14 00:36:32			0	37654	0	0	0	18833	17450	135327	27457	970052	39240	106866	0	0	8347	587923	0	0
2024-05-14 00:37:32			0	37666	0	0	0	18833	17450	135379	27133	970043	39240	106866	0	0	8348	587428	0	0
2024-05-14 00:38:32			0	37676	0	0	0	18838	17450	135455	27235	969964	39217	106868	0	0	8348	587015	0	0
2024-05-14 00:39:32			0	37672	0	0	0	18831	17440	135339	27388	970035	39217	106865	0	0	8348	587212	0	0
2024-05-14 00:40:32			0	37655	0	0	0	18844	17440	135435	27308	970001	39217	106870	0	0	8347	587913	0	0
2024-05-14 00:41:32			0	37669	0	0	0	18836	17440	135371	27142	970062	39229	106867	0	0	8348	587336	0	0
2024-05-14 00:42:32			0	37665	0	0	0	18825	17440	135483	27393	970062	39240	106863	0	0	8348	587501	0	0
2024-05-14 00:43:32			0	37666	0	0	0	18820	17440	135351	27291	970035	39229	106861	0	0	8348	587460	0	0
2024-05-14 00:44:32			0	37666	0	0	0	18815	17430	135427	27538	970045	39238	106859	0	0	8348	587492	0	0
2024-05-14 00:45:32			0	37650	0	0	0	18799	17440	135423	27199	969982	39240	106853	0	0	8347	588120	0	0
2024-05-14 00:46:32			0	37653	0	0	0	18794	17430	135403	27261	969905	39227	106851	0	0	8348	588028	0	0
2024-05-14 00:47:32			0	37668	0	0	0	18771	17420	135339	27246	969888	39215	106842	0	0	8349	587441	0	0
2024-05-14 00:48:32			0	37662	0	0	0	18758	17420	135371	27646	969738	39206	106837	0	0	8349	587688	0	0
2024-05-14 00:49:32			0	37675	0	0	0	18732	17410	135375	27287	969740	39203	106827	0	0	8350	587184	0	0
2024-05-14 00:50:32			0	37654	0	0	0	18727	17390	135303	27609	969680	39211	106825	0	0	8349	588115	0	0
2024-05-14 00:51:32			0	37662	0	0	0	18709	17380	135367	27556	969637	39201	106818	0	0	8349	587816	0	0
2024-05-14 00:52:32			0	37678	0	0	0	18688	17370	135343	27523	969550	39211	106810	0	0	8351	587188	0	0
2024-05-14 00:53:32			0	37668	0	0	0	18677	17370	135343	27402	969489	39210	106806	0	0	8350	587601	0	0
2024-05-14 00:54:32			0	37668	0	0	0	18664	17360	135351	27410	969472	39199	106801	0	0	8350	587633	0	0
2024-05-14 00:55:32			0	37668	0	0	0	18649	17350	135375	27673	969490	39199	106795	0	0	8351	587664	0	0
2024-05-14 00:56:32			0	37682	0	0	0	18641	17340	135355	27483	969421	39208	106792	0	0	8351	587119	0	0
2024-05-14 00:57:32			0	37651	0	0	0	18641	17320	135299	27519	969396	39196	106792	0	0	8350	588462	0	0
2024-05-14 00:58:32			0	37651	0	0	0	18649	17320	135355	27474	969396	39217	106795	0	0	8350	588462	0	0
2024-05-14 00:59:32			0	37662	0	0	0	18636	17310	135383	27744	969406	39206	106790	0	0	8350	588040	0	0
2024-05-14 01:00:32			0	37678	0	0	0	18623	17310	135407	27724	969380	39195	106785	0	0	8351	587380	0	0
2024-05-14 01:01:32			0	37659	0	0	0	18623	17300	135371	27415	969337	39194	106785	0	0	8350	588196	0	0
2024-05-14 01:02:32			0	37666	0	0	0	18615	17290	135415	27521	969268	39205	106782	0	0	8351	587939	0	0
2024-05-14 01:03:32			0	37660	0	0	0	18618	17290	135363	27490	969320	39205	106783	0	0	8350	588186	0	0
2024-05-14 01:04:32			0	37674	0	0	0	18615	17290	135351	27486	969259	39193	106782	0	0	8351	587608	0	0
2024-05-14 01:05:32			0	37672	0	0	0	18615	17280	135503	27547	969296	39203	106782	0	0	8351	587723	0	0
2024-05-14 01:06:32			0	37667	0	0	0	18615	17280	135443	27666	969322	39203	106782	0	0	8351	587929	0	0
2024-05-14 01:07:32			0	37668	0	0	0	18623	17280	135411	27461	969251	39193	106785	0	0	8351	587888	0	0
2024-05-14 01:08:32			0	37658	0	0	0	18620	17270	135415	27627	969279	39191	106784	0	0	8350	588333	0	0
2024-05-14 01:09:32			0	37645	0	0	0	18623	17280	135423	27765	969322	39192	106785	0	0	8350	588838	0	0
2024-05-14 01:10:32			0	37654	0	0	0	18620	17280	135387	27490	969269	39203	106784	0	0	8350	588466	0	0
2024-05-14 01:11:32			0	37669	0	0	0	18625	17270	135495	27614	969235	39192	106786	0	0	8351	587879	0	0
2024-05-14 01:12:32			0	37643	0	0	0	18623	17270	135519	27659	969287	39203	106785	0	0	8349	588953	0	0
2024-05-14 01:13:32			0	37619	0	0	0	18625	17260	135555	27144	969271	39191	106786	0	0	8348	589977	0	0
2024-05-14 01:14:32			0	37652	0	0	0	18636	17270	135535	27507	969306	39202	106790	0	0	8350	588581	0	0
2024-05-14 01:15:32			0	37662	0	0	0	18646	17270	135435	27301	969279	39202	106794	0	0	8350	588168	0	0
2024-05-14 01:16:32			0	37651	0	0	0	18641	17270	135491	27095	969314	39203	106792	0	0	8349	588622	0	0
2024-05-14 01:17:32			0	37653	0	0	0	18644	17270	135571	27268	969279	39212	106793	0	0	8350	588539	0	0
2024-05-14 01:18:32			0	37636	0	0	0	18649	17280	135487	27486	969322	39203	106795	0	0	8349	589210	0	0
2024-05-14 01:19:32			0	37653	0	0	0	18659	17280	135439	27263	969375	39203	106799	0	0	8349	588508	0	0
2024-05-14 01:20:32			0	37650	0	0	0	18670	17280	135631	27374	969357	39204	106803	0	0	8349	588631	0	0
2024-05-14 01:21:32			0	37650	0	0	0	18677	17280	135535	27538	969401	39213	106806	0	0	8349	588631	0	0
2024-05-14 01:22:32			0	37652	0	0	0	18693	17280	135483	27391	969428	39213	106812	0	0	8349	588549	0	0
2024-05-14 01:23:32			0	37632	0	0	0	18698	17280	135539	27581	969454	39224	106814	0	0	8348	589375	0	0
2024-05-14 01:24:32			0	37640	0	0	0	18716	17300	135547	27530	969566	39205	106821	0	0	8348	588981	0	0
2024-05-14 01:25:32			0	37645	0	0	0	18719	17300	135547	27388	969487	39215	106822	0	0	8348	588774	0	0
2024-05-14 01:26:32			0	37652	0	0	0	18722	17310	135499	27564	969583	39216	106823	0	0	8348	588453	0	0
2024-05-14 01:27:32			0	37643	0	0	0	18727	17310	135559	27781	969512	39228	106825	0	0	8348	588825	0	0
2024-05-14 01:28:32			0	37656	0	0	0	18727	17310	135491	27561	969565	39216	106825	0	0	8348	588288	0	0
2024-05-14 01:29:32			0	37650	0	0	0	18732	17320	135511	27270	969599	39216	106827	0	0	8348	588504	0	0
2024-05-14 01:30:32			0	37644	0	0	0	18740	17320	135531	27300	969652	39228	106830	0	0	8348	588751	0	0
2024-05-14 01:31:32			0	37652	0	0	0	18753	17320	135443	27398	969573	39206	106835	0	0	8348	588421	0	0
2024-05-14 01:32:32			0	37651	0	0	0	18753	17330	135471	27490	969624	39208	106835	0	0	8348	588430	0	0
2024-05-14 01:33:32			0	37642	0	0	0	18755	17350	135479	27320	969614	39219	106836	0	0	8347	588738	0	0
2024-05-14 01:34:32			0	37634	0	0	0	18755	17350	135491	27396	969640	39219	106836	0	0	8347	589069	0	0
2024-05-14 01:35:32			0	37649	0	0	0	18763	17350	135487	27369	969640	39219	106839	0	0	8348	588449	0	0
2024-05-14 01:36:32			0	37642	0	0	0	18758	17350	135523	27274	969675	39220	106837	0	0	8347	588738	0	0
2024-05-14 01:37:32			0	37659	0	0	0	18758	17350	135467	27592	969693	39230	106837	0	0	8348	588036	0	0
2024-05-14 01:38:32			0	37645	0	0	0	18763	17350	135447	27362	969693	39219	106839	0	0	8347	588614	0	0
2024-05-14 01:39:32			0	37659	0	0	0	18766	17350	135503	27377	969702	39220	106840	0	0	8348	588036	0	0
2024-05-14 01:40:32			0	37645	0	0	0	18774	17350	135495	27390	969728	39220	106843	0	0	8347	588614	0	0
2024-05-14 01:41:32			0	37650	0	0	0	18774	17360	135559	27124	969710	39221	106843	0	0	8348	588376	0	0
2024-05-14 01:42:32			0	37642	0	0	0	18786	17360	135515	27407	969736	39232	106848	0	0	8347	588706	0	0
2024-05-14 01:43:32			0	37656	0	0	0	18794	17370	135579	27133	969832	39199	106851	0	0	8348	588096	0	0
2024-05-14 01:44:32			0	37651	0	0	0	18797	17370	135499	27112	969806	39210	106852	0	0	8347	588302	0	0
2024-05-14 01:45:32			0	37648	0	0	0	18815	17370	135515	27433	969867	39233	106859	0	0	8347	588426	0	0
2024-05-14 01:46:32			0	37649	0	0	0	18799	17390	135511	27376	969892	39245	106853	0	0	8347	588321	0	0
2024-05-14 01:47:32			0	37634	0	0	0	18823	17380	135491	27308	969831	39222	106862	0	0	8346	588973	0	0
2024-05-14 01:48:32			0	37640	0	0	0	18810	17380	135499	27535	969831	39222	106857	0	0	8346	588725	0	0
2024-05-14 01:49:32			0	37650	0	0	0	18820	17390	135563	27485	969847	39235	106861	0	0	8347	588280	0	0
2024-05-14 01:50:32			0	37642	0	0	0	18828	17390	135507	27315	969926	39223	106864	0	0	8346	588610	0	0
2024-05-14 01:51:32			0	37652	0	0	0	18820	17400	135511	27724	969943	39235	106861	0	0	8347	588165	0	0
2024-05-14 01:52:32			0	37644	0	0	0	18831	17410	135427	27479	969951	39224	106865	0	0	8346	588463	0	0
2024-05-14 01:53:32			0	37655	0	0	0	18831	17410	135439	27658	969925	39247	106865	0	0	8347	588009	0	0
2024-05-14 01:54:32			0	37649	0	0	0	18831	17410	135535	27445	969986	39225	106865	0	0	8347	588257	0	0
2024-05-14 01:55:32			0	37617	0	0	0	18825	17400	135499	27471	969961	39213	106863	0	0	8345	589611	0	0
2024-05-14 01:56:32			0	37639	0	0	0	18823	17410	135547	27419	969986	39225	106862	0	0	8346	588670	0	0
2024-05-14 01:57:32			0	37643	0	0	0	18833	17420	135455	27282	970020	39226	106866	0	0	8346	588473	0	0
2024-05-14 01:58:32			0	37644	0	0	0	18831	17420	135515	27474	969994	39226	106865	0	0	8347	588431	0	0
2024-05-14 01:59:32			0	37627	0	0	0	18841	17430	135431	27374	970063	39238	106869	0	0	8345	589102	0	0
2024-05-14 02:00:32			0	37644	0	0	0	18844	17420	135479	27341	970029	39227	106870	0	0	8346	588431	0	0
2024-05-14 02:01:32			0	37646	0	0	0	18846	17430	135487	27053	970063	39227	106871	0	0	8346	588317	0	0
2024-05-14 02:02:32			0	37628	0	0	0	18849	17430	135459	27445	970037	39227	106872	0	0	8345	589060	0	0
2024-05-14 02:03:32			0	37652	0	0	0	18854	17440	135399	27464	970080	39239	106874	0	0	8347	588037	0	0
2024-05-14 02:04:32			0	37628	0	0	0	18851	17440	135503	27383	970053	39239	106873	0	0	8345	589028	0	0
2024-05-14 02:05:32			0	37626	0	0	0	18851	17440	135535	27357	970114	39229	106873	0	0	8345	589111	0	0
2024-05-14 02:06:32			0	37639	0	0	0	18851	17430	135471	27227	970098	39227	106873	0	0	8346	588606	0	0
2024-05-14 02:07:32			0	37641	0	0	0	18857	17440	135527	27261	970088	39240	106875	0	0	8346	588491	0	0
2024-05-14 02:08:32			0	37625	0	0	0	18854	17430	135567	27064	970098	39238	106874	0	0	8345	589184	0	0
2024-05-14 02:09:32			0	37630	0	0	0	18849	17430	135499	27260	970116	39227	106872	0	0	8346	588978	0	0
2024-05-14 02:10:32			0	37631	0	0	0	18857	17440	135503	27107	970114	39250	106875	0	0	8345	588904	0	0
2024-05-14 02:11:32			0	37617	0	0	0	18846	17450	135415	27272	970078	39229	106871	0	0	8345	589451	0	0
2024-05-14 02:12:32			0	37641	0	0	0	18859	17440	135507	27388	970088	39229	106876	0	0	8346	588491	0	0
2024-05-14 02:13:32			0	37629	0	0	0	18851	17440	135519	27372	970088	39240	106873	0	0	8345	588987	0	0
2024-05-14 02:14:32			0	37604	0	0	0	18846	17450	135547	27412	970096	39229	106871	0	0	8344	589989	0	0
2024-05-14 02:15:32			0	37607	0	0	0	18849	17440	135487	27263	970053	39228	106872	0	0	8344	589897	0	0
2024-05-14 02:16:32			0	37623	0	0	0	18851	17450	135523	27362	970096	39250	106873	0	0	8345	589203	0	0
2024-05-14 02:17:32			0	37627	0	0	0	18841	17440	135555	27256	970088	39240	106869	0	0	8346	589070	0	0
2024-05-14 02:18:32			0	37603	0	0	0	18846	17440	135495	27241	970062	39217	106871	0	0	8344	590062	0	0
2024-05-14 02:19:32			0	37629	0	0	0	18846	17450	135555	27370	970043	39250	106871	0	0	8346	588955	0	0
2024-05-14 02:20:32			0	37605	0	0	0	18841	17440	135611	27255	970114	39229	106869	0	0	8344	589979	0	0
2024-05-14 02:21:32			0	37617	0	0	0	18846	17440	135547	27467	970114	39229	106871	0	0	8345	589483	0	0
2024-05-14 02:22:32			0	37623	0	0	0	18838	17440	135555	27521	970141	39240	106868	0	0	8345	589235	0	0
2024-05-14 02:23:32			0	37607	0	0	0	18846	17450	135551	27453	970070	39229	106871	0	0	8344	589864	0	0
2024-05-14 02:24:32			0	37601	0	0	0	18841	17450	135551	27124	970131	39240	106869	0	0	8344	590112	0	0
2024-05-14 02:25:32			0	37623	0	0	0	18844	17450	135579	27326	970070	39229	106870	0	0	8345	589203	0	0
2024-05-14 02:26:32			0	37615	0	0	0	18844	17460	135683	27592	970086	39229	106870	0	0	8345	589502	0	0
2024-05-14 02:27:32			0	37620	0	0	0	18846	17450	135607	27554	970070	39240	106871	0	0	8345	589327	0	0
2024-05-14 02:28:32			0	37617	0	0	0	18846	17440	135635	27306	970035	39240	106871	0	0	8345	589483	0	0
2024-05-14 02:29:32			0	37612	0	0	0	18846	17450	135635	27362	970043	39240	106871	0	0	8345	589658	0	0
2024-05-14 02:30:32			0	37609	0	0	0	18846	17450	135603	27383	970070	39240	106871	0	0	8345	589782	0	0
2024-05-14 02:31:32			0	37615	0	0	0	18841	17440	135603	27237	970062	39240	106869	0	0	8345	589566	0	0
2024-05-14 02:32:32			0	37611	0	0	0	18844	17450	135587	27435	970105	39240	106870	0	0	8345	589699	0	0
2024-05-14 02:33:32			0	37587	0	0	0	18838	17440	135655	27611	970141	39217	106868	0	0	8343	590724	0	0
2024-05-14 02:34:32			0	37590	0	0	0	18838	17440	135567	27530	970114	39240	106868	0	0	8344	590600	0	0
2024-05-14 02:35:32			0	37575	0	0	0	18841	17450	135531	27386	970123	39240	106869	0	0	8343	591189	0	0
2024-05-14 02:36:32			0	37583	0	0	0	18844	17440	135635	27509	970035	39240	106870	0	0	8343	590890	0	0
2024-05-14 02:37:32			0	37598	0	0	0	18828	17440	135663	27381	970027	39228	106864	0	0	8344	590269	0	0
2024-05-14 02:38:32			0	37611	0	0	0	18838	17440	135611	27789	970062	39250	106868	0	0	8345	589731	0	0
2024-05-14 02:39:32			0	37596	0	0	0	18836	17440	135599	27616	970106	39228	106867	0	0	8344	590352	0	0
2024-05-14 02:40:32			0	37594	0	0	0	18833	17440	135659	27897	970053	39228	106866	0	0	8344	590434	0	0
2024-05-14 02:41:32			0	37597	0	0	0	18828	17440	135543	27365	970027	39228	106864	0	0	8344	590310	0	0
2024-05-14 02:42:32			0	37589	0	0	0	18828	17430	135627	27566	970019	39227	106864	0	0	8344	590673	0	0
2024-05-14 02:43:32			0	37597	0	0	0	18823	17440	135555	27502	970035	39229	106862	0	0	8344	590310	0	0
2024-05-14 02:44:32			0	37586	0	0	0	18823	17440	135579	27371	970027	39228	106862	0	0	8344	590766	0	0
2024-05-14 02:45:32			0	37594	0	0	0	18807	17430	135539	27772	970010	39216	106856	0	0	8344	590466	0	0
2024-05-14 02:46:32			0	37591	0	0	0	18792	17420	135583	27736	969888	39215	106850	0	0	8344	590623	0	0
2024-05-14 02:47:32			0	37602	0	0	0	18776	17420	135567	27384	969844	39227	106844	0	0	8345	590167	0	0
2024-05-14 02:48:32			0	37588	0	0	0	18763	17410	135543	27566	969774	39236	106839	0	0	8345	590779	0	0
2024-05-14 02:49:32			0	37590	0	0	0	18745	17400	135679	27833	969784	39213	106832	0	0	8345	590728	0	0
2024-05-14 02:50:32			0	37580	0	0	0	18729	17390	135599	27557	969689	39223	106826	0	0	8345	591175	0	0
2024-05-14 02:51:32			0	37563	0	0	0	18729	17390	135551	27743	969733	39222	106826	0	0	8344	591879	0	0
2024-05-14 02:52:32			0	37582	0	0	0	18729	17370	135631	27438	969708	39222	106826	0	0	8345	591156	0	0
2024-05-14 02:53:32			0	37601	0	0	0	18714	17380	135711	27398	969637	39234	106820	0	0	8346	590337	0	0
2024-05-14 02:54:32			0	37591	0	0	0	18711	17360	135675	27355	969639	39210	106819	0	0	8346	590815	0	0
2024-05-14 02:55:32			0	37584	0	0	0	18696	17370	135703	27713	969647	39221	106813	0	0	8345	591073	0	0
2024-05-14 02:56:32			0	37575	0	0	0	18690	17360	135619	27540	969586	39221	106811	0	0	8345	591478	0	0
2024-05-14 02:57:32			0	37600	0	0	0	18690	17350	135715	27821	969570	39220	106811	0	0	8346	590475	0	0
2024-05-14 02:58:32			0	37588	0	0	0	18677	17350	135615	27433	969508	39219	106806	0	0	8346	590972	0	0
2024-05-14 02:59:32			0	37576	0	0	0	18685	17330	135579	27390	969571	39218	106809	0	0	8345	591533	0	0
2024-05-14 03:00:32			0	37589	0	0	0	18683	17330	135647	27228	969624	39218	106808	0	0	8346	590994	0	0
2024-05-14 03:01:32			0	37597	0	0	0	18685	17330	135699	27460	969484	39208	106809	0	0	8346	590663	0	0
2024-05-14 03:02:32			0	37602	0	0	0	18672	17330	135715	27218	969510	39218	106804	0	0	8347	590456	0	0
2024-05-14 03:03:32			0	37593	0	0	0	18680	17320	135719	27367	969520	39216	106807	0	0	8346	590861	0	0
2024-05-14 03:04:32			0	37566	0	0	0	18675	17310	135635	27242	969504	39216	106805	0	0	8345	592012	0	0
2024-05-14 03:05:32			0	37565	0	0	0	18683	17310	135683	27426	969459	39216	106808	0	0	8344	592054	0	0
2024-05-14 03:06:32			0	37579	0	0	0	18683	17310	135799	27320	969512	39206	106808	0	0	8345	591473	0	0
2024-05-14 03:07:32			0	37579	0	0	0	18677	17300	135743	27280	969442	39205	106806	0	0	8345	591505	0	0
2024-05-14 03:08:32			0	37586	0	0	0	18680	17310	135715	27466	969485	39206	106807	0	0	8346	591183	0	0
2024-05-14 03:09:32			0	37570	0	0	0	18675	17300	135775	27270	969495	39205	106805	0	0	8345	591878	0	0
2024-05-14 03:10:32			0	37578	0	0	0	18675	17310	135687	27239	969477	39206	106805	0	0	8345	591515	0	0
2024-05-14 03:11:32			0	37562	0	0	0	18672	17300	135683	27345	969469	39227	106804	0	0	8344	592210	0	0
2024-05-14 03:12:32			0	37573	0	0	0	18672	17300	135727	27305	969442	39227	106804	0	0	8345	591754	0	0
2024-05-14 03:13:32			0	37571	0	0	0	18667	17310	135623	27675	969424	39216	106802	0	0	8345	591805	0	0
2024-05-14 03:14:32			0	37578	0	0	0	18664	17300	135763	27438	969416	39216	106801	0	0	8345	591547	0	0
2024-05-14 03:15:32			0	37583	0	0	0	18664	17290	135723	27402	969373	39215	106801	0	0	8346	591372	0	0
2024-05-14 03:16:32			0	37578	0	0	0	18662	17300	135775	27145	969408	39215	106800	0	0	8345	591547	0	0
2024-05-14 03:17:32			0	37591	0	0	0	18675	17290	135703	27166	969479	39226	106805	0	0	8346	591040	0	0
2024-05-14 03:18:32			0	37595	0	0	0	18685	17290	135727	27386	969365	39226	106809	0	0	8346	590874	0	0
2024-05-14 03:19:32			0	37588	0	0	0	18677	17290	135747	27185	969426	39226	106806	0	0	8346	591164	0	0
2024-05-14 03:20:32			0	37565	0	0	0	18680	17290	135739	27422	969426	39205	106807	0	0	8344	592118	0	0
2024-05-14 03:21:32			0	37590	0	0	0	18683	17290	135755	27554	969426	39205	106808	0	0	8346	591082	0	0
2024-05-14 03:22:32			0	37582	0	0	0	18675	17290	135747	27613	969444	39215	106805	0	0	8345	591413	0	0
2024-05-14 03:23:32			0	37582	0	0	0	18677	17290	135767	27358	969400	39215	106806	0	0	8345	591413	0	0
2024-05-14 03:24:32			0	37575	0	0	0	18680	17290	135811	27015	969418	39226	106807	0	0	8345	591703	0	0
2024-05-14 03:25:32			0	37581	0	0	0	18683	17300	135763	27374	969408	39205	106808	0	0	8345	591422	0	0
2024-05-14 03:26:32			0	37568	0	0	0	18675	17290	135795	27398	969426	39237	106805	0	0	8345	591993	0	0
2024-05-14 03:27:32			0	37581	0	0	0	18675	17290	135779	27625	969418	39205	106805	0	0	8345	591454	0	0
2024-05-14 03:28:32			0	37574	0	0	0	18670	17290	135779	27322	969418	39215	106803	0	0	8345	591744	0	0
2024-05-14 03:29:32			0	37569	0	0	0	18672	17280	135747	27805	969436	39204	106804	0	0	8345	591984	0	0
2024-05-14 03:30:32			0	37576	0	0	0	18667	17280	135707	27310	969330	39225	106802	0	0	8345	591694	0	0
2024-05-14 03:31:32			0	37572	0	0	0	18672	17280	135755	27258	969375	39213	106804	0	0	8345	591860	0	0
2024-05-14 03:32:32			0	37577	0	0	0	18670	17270	135703	27447	969340	39224	106803	0	0	8345	591685	0	0
2024-05-14 03:33:32			0	37562	0	0	0	18659	17280	135703	27678	969383	39214	106799	0	0	8345	592274	0	0
2024-05-14 03:34:32			0	37589	0	0	0	18654	17280	135791	27604	969304	39214	106797	0	0	8346	591155	0	0
2024-05-14 03:35:32			0	37577	0	0	0	18641	17270	135763	27429	969279	39212	106792	0	0	8346	591685	0	0
2024-05-14 03:36:32			0	37594	0	0	0	18651	17270	135823	27390	969253	39212	106796	0	0	8346	590980	0	0
2024-05-14 03:37:32			0	37596	0	0	0	18644	17260	135731	27569	969271	39223	106793	0	0	8346	590929	0	0
2024-05-14 03:38:32			0	37572	0	0	0	18644	17260	135823	27516	969271	39212	106793	0	0	8345	591924	0	0
2024-05-14 03:39:32			0	37569	0	0	0	18636	17270	135743	27322	969253	39212	106790	0	0	8345	592016	0	0
2024-05-14 03:40:32			0	37579	0	0	0	18636	17260	135795	27445	969263	39211	106790	0	0	8346	591634	0	0
2024-05-14 03:41:32			0	37577	0	0	0	18638	17250	135667	27687	969220	39210	106791	0	0	8346	591749	0	0
2024-05-14 03:42:32			0	37596	0	0	0	18636	17250	135731	27958	969281	39190	106790	0	0	8347	590961	0	0
2024-05-14 03:43:32			0	37557	0	0	0	18638	17250	135871	27414	969220	39210	106791	0	0	8344	592578	0	0
2024-05-14 03:44:32			0	37582	0	0	0	18638	17260	135723	27381	969183	39211	106791	0	0	8346	591509	0	0
2024-05-14 03:45:32			0	37589	0	0	0	18644	17260	135811	27395	969263	39201	106793	0	0	8346	591219	0	0
2024-05-14 03:46:32			0	37591	0	0	0	18646	17260	135799	27331	969289	39201	106794	0	0	8346	591136	0	0
2024-05-14 03:47:32			0	37576	0	0	0	18638	17250	135775	27281	969254	39211	106791	0	0	8345	591790	0	0
2024-05-14 03:48:32			0	37598	0	0	0	18636	17250	135795	27357	969246	39200	106790	0	0	8347	590879	0	0
2024-05-14 03:49:32			0	37586	0	0	0	18636	17250	135767	27338	969246	39200	106790	0	0	8346	591376	0	0
2024-05-14 03:50:32			0	37574	0	0	0	18641	17250	135803	27694	969307	39201	106792	0	0	8345	591873	0	0
2024-05-14 03:51:32			0	37594	0	0	0	18651	17250	135727	27419	969299	39200	106796	0	0	8346	591044	0	0
2024-05-14 03:52:32			0	37582	0	0	0	18651	17260	135739	27267	969236	39201	106796	0	0	8346	591509	0	0
2024-05-14 03:53:32			0	37579	0	0	0	18649	17250	135751	27150	969273	39222	106795	0	0	8345	591666	0	0
2024-05-14 03:54:32			0	37597	0	0	0	18644	17250	135711	27177	969254	39211	106793	0	0	8347	590920	0	0
2024-05-14 03:55:32			0	37576	0	0	0	18646	17260	135799	27438	969289	39211	106794	0	0	8345	591758	0	0
2024-05-14 03:56:32			0	37581	0	0	0	18649	17270	135783	27415	969332	39212	106795	0	0	8346	591519	0	0
2024-05-14 03:57:32			0	37579	0	0	0	18649	17260	135759	27402	969297	39202	106795	0	0	8346	591634	0	0
2024-05-14 03:58:32			0	37575	0	0	0	18649	17260	135835	27616	969236	39201	106795	0	0	8345	591800	0	0
2024-05-14 03:59:32			0	37589	0	0	0	18649	17250	135895	27419	969246	39222	106795	0	0	8346	591251	0	0
2024-05-14 04:00:32			0	37584	0	0	0	18644	17260	135803	27637	969315	39211	106793	0	0	8346	591426	0	0
2024-05-14 04:01:32			0	37594	0	0	0	18644	17260	135867	27556	969289	39222	106793	0	0	8346	591012	0	0
2024-05-14 04:02:32			0	37591	0	0	0	18654	17260	135879	27223	969297	39223	106797	0	0	8346	591136	0	0
2024-05-14 04:03:32			0	37577	0	0	0	18646	17260	135827	27445	969271	39212	106794	0	0	8345	591717	0	0
2024-05-14 04:04:32			0	37576	0	0	0	18646	17250	135775	27286	969254	39211	106794	0	0	8345	591790	0	0
2024-05-14 04:05:32			0	37577	0	0	0	18649	17250	135779	27384	969299	39210	106795	0	0	8345	591749	0	0
2024-05-14 04:06:32			0	37581	0	0	0	18649	17260	135819	27289	969263	39211	106795	0	0	8346	591551	0	0
2024-05-14 04:07:32			0	37596	0	0	0	18646	17260	135779	27374	969263	39222	106794	0	0	8346	590929	0	0
2024-05-14 04:08:32			0	37582	0	0	0	18649	17260	135783	27492	969263	39201	106795	0	0	8346	591509	0	0
2024-05-14 04:09:32			0	37607	0	0	0	18649	17240	135855	27305	969291	39222	106795	0	0	8347	590538	0	0
2024-05-14 04:10:32			0	37584	0	0	0	18654	17250	135719	27550	969281	39211	106797	0	0	8346	591459	0	0
2024-05-14 04:11:32			0	37572	0	0	0	18651	17250	135739	27300	969254	39222	106796	0	0	8345	591956	0	0
2024-05-14 04:12:32			0	37572	0	0	0	18651	17250	135739	27568	969325	39222	106796	0	0	8345	591956	0	0
2024-05-14 04:13:32			0	37581	0	0	0	18649	17250	135675	27609	969307	39222	106795	0	0	8346	591583	0	0
2024-05-14 04:14:32			0	37580	0	0	0	18646	17250	135855	27549	969299	39210	106794	0	0	8346	591624	0	0
2024-05-14 04:15:32			0	37567	0	0	0	18646	17260	135815	27421	969289	39211	106794	0	0	8345	592131	0	0
2024-05-14 04:16:32			0	37574	0	0	0	18646	17240	135775	27268	969238	39210	106794	0	0	8345	591905	0	0
2024-05-14 04:17:32			0	37582	0	0	0	18654	17250	135651	27540	969281	39211	106797	0	0	8346	591542	0	0
2024-05-14 04:18:32			0	37587	0	0	0	18649	17240	135847	27350	969291	39210	106795	0	0	8346	591366	0	0
2024-05-14 04:19:32			0	37564	0	0	0	18649	17250	135751	27507	969281	39211	106795	0	0	8345	592288	0	0
2024-05-14 04:20:32			0	37575	0	0	0	18651	17260	135859	27348	969315	39211	106796	0	0	8345	591800	0	0
2024-05-14 04:21:32			0	37578	0	0	0	18649	17250	135831	27684	969281	39211	106795	0	0	8345	591707	0	0
2024-05-14 04:22:32			0	37570	0	0	0	18649	17260	135791	27575	969324	39223	106795	0	0	8345	592007	0	0
2024-05-14 04:23:32			0	37578	0	0	0	18657	17250	135771	27485	969307	39201	106798	0	0	8345	591707	0	0
2024-05-14 04:24:32			0	37558	0	0	0	18651	17250	135719	27282	969273	39210	106796	0	0	8344	592537	0	0
2024-05-14 04:25:32			0	37581	0	0	0	18657	17250	135811	27550	969254	39211	106798	0	0	8345	591583	0	0
2024-05-14 04:26:32			0	37565	0	0	0	18651	17260	135795	27320	969315	39201	106796	0	0	8345	592214	0	0
2024-05-14 04:27:32			0	37571	0	0	0	18646	17260	135827	27511	969271	39212	106794	0	0	8345	591965	0	0
2024-05-14 04:28:32			0	37563	0	0	0	18641	17260	135827	27279	969289	39211	106792	0	0	8345	592297	0	0
2024-05-14 04:29:32			0	37566	0	0	0	18649	17250	135799	27338	969281	39211	106795	0	0	8345	592205	0	0
2024-05-14 04:30:32			0	37566	0	0	0	18651	17250	135775	27218	969334	39201	106796	0	0	8345	592205	0	0
2024-05-14 04:31:32			0	37564	0	0	0	18654	17250	135823	27124	969352	39210	106797	0	0	8345	592288	0	0
2024-05-14 04:32:32			0	37560	0	0	0	18654	17250	135867	27549	969254	39211	106797	0	0	8344	592454	0	0
2024-05-14 04:33:32			0	37567	0	0	0	18654	17250	135755	27729	969299	39200	106797	0	0	8345	592163	0	0
2024-05-14 04:34:32			0	37576	0	0	0	18651	17250	135811	27268	969281	39211	106796	0	0	8345	591790	0	0
2024-05-14 04:35:32			0	37553	0	0	0	18641	17250	135823	27438	969307	39211	106792	0	0	8344	592744	0	0
2024-05-14 04:36:32			0	37565	0	0	0	18641	17260	135895	27545	969315	39211	106792	0	0	8345	592214	0	0
2024-05-14 04:37:32			0	37562	0	0	0	18646	17260	135763	27479	969263	39201	106794	0	0	8345	592339	0	0
2024-05-14 04:38:32			0	37554	0	0	0	18644	17250	135851	27331	969325	39210	106793	0	0	8344	592703	0	0
2024-05-14 04:39:32			0	37563	0	0	0	18641	17250	135827	27400	969281	39211	106792	0	0	8345	592329	0	0
2024-05-14 04:40:32			0	37557	0	0	0	18641	17250	135787	27137	969254	39211	106792	0	0	8344	592578	0	0
2024-05-14 04:41:32			0	37551	0	0	0	18633	17250	135783	27466	969281	39211	106789	0	0	8344	592827	0	0
2024-05-14 04:42:32			0	37558	0	0	0	18631	17240	135783	27355	969309	39210	106788	0	0	8345	592569	0	0
2024-05-14 04:43:32			0	37571	0	0	0	18636	17240	135827	27350	969264	39210	106790	0	0	8345	592030	0	0
2024-05-14 04:44:32			0	37553	0	0	0	18636	17240	135851	27438	969203	39221	106790	0	0	8344	592776	0	0
2024-05-14 04:45:32			0	37563	0	0	0	18625	17230	135815	27400	969221	39209	106786	0	0	8345	592394	0	0
2024-05-14 04:46:32			0	37560	0	0	0	18633	17240	135823	27177	969230	39199	106789	0	0	8345	592486	0	0
2024-05-14 04:47:32			0	37570	0	0	0	18623	17240	135899	27440	969230	39221	106785	0	0	8345	592071	0	0
2024-05-14 04:48:32			0	37546	0	0	0	18628	17250	135799	27705	969220	39210	106787	0	0	8344	593035	0	0
2024-05-14 04:49:32			0	37560	0	0	0	18633	17240	135803	27426	969238	39222	106789	0	0	8345	592486	0	0
2024-05-14 04:50:32			0	37543	0	0	0	18631	17240	135923	27644	969230	39199	106788	0	0	8344	593192	0	0
2024-05-14 04:51:32			0	37555	0	0	0	18628	17240	135839	27569	969203	39210	106787	0	0	8345	592694	0	0
2024-05-14 04:52:32			0	37555	0	0	0	18623	17240	135847	27350	969159	39210	106785	0	0	8345	592694	0	0
2024-05-14 04:53:32			0	37559	0	0	0	18625	17240	135875	27680	969212	39200	106786	0	0	8345	592528	0	0
2024-05-14 04:54:32			0	37541	0	0	0	18623	17240	135891	27447	969203	39210	106785	0	0	8344	593275	0	0
2024-05-14 04:55:32			0	37548	0	0	0	18620	17240	135879	27562	969159	39200	106784	0	0	8344	592984	0	0
2024-05-14 04:56:32			0	37558	0	0	0	18623	17230	135843	27488	969213	39199	106785	0	0	8345	592601	0	0
2024-05-14 04:57:32			0	37561	0	0	0	18620	17220	135791	27367	969125	39219	106784	0	0	8345	592509	0	0
2024-05-14 04:58:32			0	37553	0	0	0	18615	17230	135875	27315	969142	39231	106782	0	0	8345	592809	0	0
2024-05-14 04:59:32			0	37556	0	0	0	18628	17240	135923	27530	969124	39199	106787	0	0	8345	592652	0	0
2024-05-14 05:00:32			0	37554	0	0	0	18620	17240	135939	27306	969203	39210	106784	0	0	8345	592735	0	0
2024-05-14 05:01:32			0	37552	0	0	0	18628	17220	135815	27642	969178	39198	106787	0	0	8344	592882	0	0
2024-05-14 05:02:32			0	37544	0	0	0	18612	17230	135787	27156	969134	39199	106781	0	0	8344	593182	0	0
2024-05-14 05:03:32			0	37545	0	0	0	18615	17220	135823	27199	969178	39219	106782	0	0	8344	593173	0	0
2024-05-14 05:04:32			0	37565	0	0	0	18618	17230	135779	27315	969213	39199	106783	0	0	8345	592311	0	0
2024-05-14 05:05:32			0	37556	0	0	0	18620	17230	135839	27874	969168	39220	106784	0	0	8345	592684	0	0
2024-05-14 05:06:32			0	37558	0	0	0	18615	17230	135907	27377	969213	39187	106782	0	0	8345	592601	0	0
2024-05-14 05:07:32			0	37566	0	0	0	18620	17220	135859	27568	969178	39198	106784	0	0	8345	592301	0	0
2024-05-14 05:08:32			0	37555	0	0	0	18618	17220	135811	27100	969178	39187	106783	0	0	8345	592758	0	0
2024-05-14 05:09:32			0	37547	0	0	0	18618	17230	135787	27493	969142	39220	106783	0	0	8344	593058	0	0
2024-05-14 05:10:32			0	37537	0	0	0	18612	17220	135799	27312	969152	39208	106781	0	0	8344	593505	0	0
2024-05-14 05:11:32			0	37544	0	0	0	18618	17210	135831	27370	969109	39208	106783	0	0	8344	593247	0	0
2024-05-14 05:12:32			0	37544	0	0	0	18615	17220	135807	27894	969231	39208	106782	0	0	8344	593215	0	0
2024-05-14 05:13:32			0	37561	0	0	0	18623	17220	135883	27447	969144	39208	106785	0	0	8345	592509	0	0
2024-05-14 05:14:32			0	37549	0	0	0	18620	17220	135895	27421	969205	39208	106784	0	0	8344	593007	0	0
2024-05-14 05:15:32			0	37543	0	0	0	18615	17220	135863	27234	969178	39198	106782	0	0	8344	593256	0	0
2024-05-14 05:16:32			0	37541	0	0	0	18607	17210	135811	27623	969180	39208	106779	0	0	8344	593371	0	0
2024-05-14 05:17:32			0	37544	0	0	0	18618	17220	135983	27431	969125	39198	106783	0	0	8344	593215	0	0
2024-05-14 05:18:32			0	37544	0	0	0	18620	17230	135863	27568	969168	39199	106784	0	0	8344	593182	0	0
2024-05-14 05:19:32			0	37530	0	0	0	18618	17220	135891	27862	969152	39198	106783	0	0	8343	593796	0	0
2024-05-14 05:20:32			0	37558	0	0	0	18618	17230	135803	27306	969186	39209	106783	0	0	8345	592601	0	0
2024-05-14 05:21:32			0	37543	0	0	0	18620	17220	135827	27601	969091	39208	106784	0	0	8344	593256	0	0
2024-05-14 05:22:32			0	37540	0	0	0	18615	17210	135915	27746	969127	39208	106782	0	0	8344	593413	0	0
2024-05-14 05:23:32			0	37556	0	0	0	18612	17230	135863	27563	969186	39209	106781	0	0	8345	592684	0	0
2024-05-14 05:24:32			0	37556	0	0	0	18618	17220	135899	27743	969205	39208	106783	0	0	8345	592716	0	0
2024-05-14 05:25:32			0	37541	0	0	0	18615	17210	135983	27414	969135	39208	106782	0	0	8344	593371	0	0
2024-05-14 05:26:32			0	37578	0	0	0	18615	17220	135867	27809	969231	39198	106782	0	0	8346	591804	0	0
2024-05-14 05:27:32			0	37540	0	0	0	18607	17220	135843	27490	969125	39219	106779	0	0	8344	593381	0	0
2024-05-14 05:28:32			0	37534	0	0	0	18612	17210	135915	27592	969162	39208	106781	0	0	8344	593662	0	0
2024-05-14 05:29:32			0	37548	0	0	0	18615	17230	135915	27698	969213	39209	106782	0	0	8344	593016	0	0
2024-05-14 05:30:32			0	37559	0	0	0	18612	17220	135907	27869	969196	39219	106781	0	0	8345	592592	0	0
2024-05-14 05:31:32			0	37549	0	0	0	18610	17210	135871	27424	969188	39208	106780	0	0	8344	593039	0	0
2024-05-14 05:32:32			0	37572	0	0	0	18620	17210	135787	27261	969135	39208	106784	0	0	8345	592085	0	0
2024-05-14 05:33:32			0	37574	0	0	0	18612	17210	135859	27332	969127	39208	106781	0	0	8346	592002	0	0
2024-05-14 05:34:32			0	37538	0	0	0	18612	17210	135863	27713	969127	39197	106781	0	0	8344	593496	0	0
2024-05-14 05:35:32			0	37550	0	0	0	18602	17220	135939	27694	969196	39208	106777	0	0	8345	592965	0	0
2024-05-14 05:36:32			0	37551	0	0	0	18607	17210	135883	27280	969109	39208	106779	0	0	8345	592956	0	0
2024-05-14 05:37:32			0	37559	0	0	0	18610	17210	135963	27204	969127	39208	106780	0	0	8345	592624	0	0
2024-05-14 05:38:32			0	37557	0	0	0	18607	17220	135863	27326	969144	39208	106779	0	0	8345	592675	0	0
2024-05-14 05:39:32			0	37564	0	0	0	18592	17200	135871	27628	969092	39207	106773	0	0	8345	592449	0	0
2024-05-14 05:40:32			0	37549	0	0	0	18612	17210	135915	27651	969109	39208	106781	0	0	8344	593039	0	0
2024-05-14 05:41:32			0	37558	0	0	0	18605	17210	135863	27518	969101	39186	106778	0	0	8345	592666	0	0
2024-05-14 05:42:32			0	37560	0	0	0	18602	17210	135867	27310	969101	39208	106777	0	0	8345	592582	0	0
2024-05-14 05:43:32			0	37561	0	0	0	18597	17220	135835	27293	969170	39208	106775	0	0	8345	592509	0	0
2024-05-14 05:44:32			0	37557	0	0	0	18589	17200	135827	27272	969119	39207	106772	0	0	8345	592739	0	0
2024-05-14 05:45:32			0	37568	0	0	0	18599	17200	135819	27235	969058	39196	106776	0	0	8346	592283	0	0
2024-05-14 05:46:32			0	37559	0	0	0	18594	17200	135863	27396	969066	39207	106774	0	0	8345	592656	0	0
2024-05-14 05:47:32			0	37571	0	0	0	18599	17200	135891	27374	969111	39207	106776	0	0	8346	592158	0	0
2024-05-14 05:48:32			0	37581	0	0	0	18589	17200	135867	27147	969066	39217	106772	0	0	8346	591744	0	0
2024-05-14 05:49:32			0	37565	0	0	0	18581	17200	135919	27564	969058	39207	106769	0	0	8346	592407	0	0
2024-05-14 05:50:32			0	37560	0	0	0	18581	17200	135831	27315	969084	39196	106769	0	0	8345	592615	0	0
2024-05-14 05:51:32			0	37543	0	0	0	18576	17190	135827	27183	968997	39195	106767	0	0	8345	593353	0	0
2024-05-14 05:52:32			0	37562	0	0	0	18574	17200	135871	27234	969031	39196	106766	0	0	8346	592532	0	0
2024-05-14 05:53:32			0	37566	0	0	0	18581	17190	135875	27313	969050	39206	106769	0	0	8346	592398	0	0
2024-05-14 05:54:32			0	37570	0	0	0	18584	17190	135867	27370	968989	39206	106770	0	0	8346	592232	0	0
2024-05-14 05:55:32			0	37552	0	0	0	18579	17190	135879	27313	969041	39195	106768	0	0	8345	592979	0	0
2024-05-14 05:56:32			0	37570	0	0	0	18584	17190	135859	27557	969068	39195	106770	0	0	8346	592232	0	0
2024-05-14 05:57:32			0	37586	0	0	0	18576	17190	135839	27424	969041	39195	106767	0	0	8347	591568	0	0
2024-05-14 05:58:32			0	37585	0	0	0	18574	17190	135919	27409	968989	39216	106766	0	0	8347	591610	0	0
2024-05-14 05:59:32			0	37578	0	0	0	18579	17190	135895	26939	968989	39195	106768	0	0	8346	591900	0	0
2024-05-14 06:00:32			0	37576	0	0	0	18571	17200	135867	27428	969058	39196	106765	0	0	8346	591951	0	0
2024-05-14 06:01:32			0	37567	0	0	0	18576	17180	135835	27542	969060	39205	106767	0	0	8346	592389	0	0
2024-05-14 06:02:32			0	37568	0	0	0	18576	17180	135771	27419	968946	39205	106767	0	0	8346	592347	0	0
2024-05-14 06:03:32			0	37567	0	0	0	18576	17180	135771	27027	969007	39205	106767	0	0	8346	592389	0	0
2024-05-14 06:04:32			0	37566	0	0	0	18563	17180	135711	27786	968998	39205	106762	0	0	8346	592430	0	0
2024-05-14 06:05:32			0	37575	0	0	0	18563	17170	135815	27336	969017	39205	106762	0	0	8346	592089	0	0
2024-05-14 06:06:32			0	37583	0	0	0	18571	17180	135823	27256	969033	39194	106765	0	0	8347	591725	0	0
2024-05-14 06:07:32			0	37587	0	0	0	18563	17180	135935	27296	968972	39205	106762	0	0	8347	591559	0	0
2024-05-14 06:08:32			0	37585	0	0	0	18558	17160	135883	27530	968974	39192	106760	0	0	8347	591706	0	0
2024-05-14 06:09:32			0	37583	0	0	0	18561	17170	135823	27336	968964	39205	106761	0	0	8347	591757	0	0
2024-05-14 06:10:32			0	37580	0	0	0	18563	17170	135855	27121	968956	39193	106762	0	0	8347	591881	0	0
2024-05-14 06:11:32			0	37567	0	0	0	18558	17160	135803	27282	968921	39192	106760	0	0	8346	592453	0	0
2024-05-14 06:12:32			0	37568	0	0	0	18553	17160	135795	27357	968868	39192	106758	0	0	8346	592411	0	0
2024-05-14 06:13:32			0	37569	0	0	0	18550	17170	135807	27511	968956	39193	106757	0	0	8346	592338	0	0
2024-05-14 06:14:32			0	37583	0	0	0	18555	17160	135731	27312	968895	39204	106759	0	0	8347	591789	0	0
2024-05-14 06:15:32			0	37579	0	0	0	18553	17160	135687	27460	968947	39204	106758	0	0	8347	591955	0	0
2024-05-14 06:16:32			0	37591	0	0	0	18545	17160	135787	27462	968947	39192	106755	0	0	8347	591458	0	0
2024-05-14 06:17:32			0	37584	0	0	0	18542	17150	135791	27279	968931	39192	106754	0	0	8347	591780	0	0
2024-05-14 06:18:32			0	37590	0	0	0	18535	17160	135687	27039	968886	39203	106751	0	0	8348	591499	0	0
2024-05-14 06:19:32			0	37588	0	0	0	18537	17150	135699	27239	968896	39213	106752	0	0	8347	591614	0	0
2024-05-14 06:20:32			0	37582	0	0	0	18537	17150	135787	27398	968843	39203	106752	0	0	8347	591863	0	0
2024-05-14 06:21:32			0	37581	0	0	0	18529	17140	135751	27490	968862	39202	106749	0	0	8347	591936	0	0
2024-05-14 06:22:32			0	37569	0	0	0	18537	17140	135811	27504	968862	39191	106752	0	0	8346	592434	0	0
2024-05-14 06:23:32			0	37609	0	0	0	18527	17150	135843	27504	968791	39181	106748	0	0	8349	590744	0	0
2024-05-14 06:24:32			0	37584	0	0	0	18537	17140	135759	27809	968835	39212	106752	0	0	8347	591812	0	0
2024-05-14 06:25:32			0	37591	0	0	0	18527	17140	135739	27137	968888	39202	106748	0	0	8348	591522	0	0
2024-05-14 06:26:32			0	37579	0	0	0	18529	17140	135783	27374	968853	39190	106749	0	0	8347	592019	0	0
2024-05-14 06:27:32			0	37574	0	0	0	18524	17150	135751	27384	968870	39203	106747	0	0	8347	592195	0	0
2024-05-14 06:28:32			0	37604	0	0	0	18532	17150	135683	27261	968870	39203	106750	0	0	8348	590951	0	0
2024-05-14 06:29:32			0	37607	0	0	0	18524	17150	135807	27286	968870	39192	106747	0	0	8349	590827	0	0
2024-05-14 06:30:32			0	37604	0	0	0	18529	17140	135791	27462	968827	39190	106749	0	0	8348	590983	0	0
2024-05-14 06:31:32			0	37596	0	0	0	18522	17140	135727	27519	968888	39191	106746	0	0	8348	591314	0	0
2024-05-14 06:32:32			0	37602	0	0	0	18529	17140	135767	27371	968888	39191	106749	0	0	8348	591066	0	0
2024-05-14 06:33:32			0	37601	0	0	0	18527	17140	135751	27157	968888	39202	106748	0	0	8348	591107	0	0
2024-05-14 06:34:32			0	37590	0	0	0	18527	17140	135739	27530	968880	39201	106748	0	0	8348	591563	0	0
2024-05-14 06:35:32			0	37594	0	0	0	18532	17140	135771	27265	968853	39201	106750	0	0	8348	591397	0	0
2024-05-14 06:36:32			0	37594	0	0	0	18532	17140	135659	27194	968914	39212	106750	0	0	8348	591397	0	0
2024-05-14 06:37:32			0	37603	0	0	0	18529	17130	135683	27481	968871	39190	106749	0	0	8348	591056	0	0
2024-05-14 06:38:32			0	37595	0	0	0	18527	17130	135751	27535	968871	39211	106748	0	0	8348	591388	0	0
2024-05-14 06:39:32			0	37602	0	0	0	18529	17140	135703	27384	968888	39191	106749	0	0	8348	591066	0	0
2024-05-14 06:40:32			0	37601	0	0	0	18532	17140	135715	27445	968809	39202	106750	0	0	8348	591107	0	0
2024-05-14 06:41:32			0	37593	0	0	0	18529	17140	135739	27126	968835	39191	106749	0	0	8348	591439	0	0
2024-05-14 06:42:32			0	37612	0	0	0	18527	17150	135759	27623	968896	39192	106748	0	0	8349	590620	0	0
2024-05-14 06:43:32			0	37602	0	0	0	18522	17140	135691	27303	968880	39201	106746	0	0	8348	591066	0	0
2024-05-14 06:44:32			0	37617	0	0	0	18529	17150	135687	26961	968870	39192	106749	0	0	8349	590412	0	0
2024-05-14 06:45:32			0	37621	0	0	0	18529	17140	135771	27355	968827	39190	106749	0	0	8349	590279	0	0
2024-05-14 06:46:32			0	37599	0	0	0	18537	17140	135679	27055	968862	39202	106752	0	0	8348	591190	0	0
2024-05-14 06:47:32			0	37615	0	0	0	18529	17130	135739	27637	968871	39179	106749	0	0	8349	590559	0	0
2024-05-14 06:48:32			0	37633	0	0	0	18535	17140	135647	27270	968888	39191	106751	0	0	8350	589782	0	0
2024-05-14 06:49:32			0	37615	0	0	0	18532	17150	135707	27286	968870	39192	106750	0	0	8349	590495	0	0
2024-05-14 06:50:32			0	37607	0	0	0	18535	17150	135711	27753	968870	39192	106751	0	0	8348	590827	0	0
2024-05-14 06:51:32			0	37629	0	0	0	18532	17140	135691	27216	968835	39191	106750	0	0	8350	589948	0	0
2024-05-14 06:52:32			0	37610	0	0	0	18535	17140	135655	27225	968862	39191	106751	0	0	8349	590734	0	0
2024-05-14 06:53:32			0	37627	0	0	0	18529	17140	135599	27483	968880	39201	106749	0	0	8350	590031	0	0
2024-05-14 06:54:32			0	37625	0	0	0	18532	17140	135611	27020	968888	39202	106750	0	0	8349	590113	0	0
2024-05-14 06:55:32			0	37634	0	0	0	18535	17150	135559	27280	968870	39203	106751	0	0	8350	589709	0	0
2024-05-14 06:56:32			0	37611	0	0	0	18537	17130	135607	27074	968863	39210	106752	0	0	8349	590725	0	0
2024-05-14 06:57:32			0	37621	0	0	0	18535	17140	135555	27315	968888	39191	106751	0	0	8349	590279	0	0
2024-05-14 06:58:32			0	37632	0	0	0	18537	17140	135663	27126	968862	39202	106752	0	0	8350	589824	0	0
2024-05-14 06:59:32			0	37639	0	0	0	18545	17150	135559	27284	968870	39203	106755	0	0	8350	589502	0	0
2024-05-14 07:00:32			0	37618	0	0	0	18545	17150	135531	27320	968878	39192	106755	0	0	8349	590371	0	0
2024-05-14 07:01:32			0	37637	0	0	0	18532	17140	135575	27320	968888	39202	106750	0	0	8350	589617	0	0
2024-05-14 07:02:32			0	37636	0	0	0	18532	17140	135587	27234	968862	39180	106750	0	0	8350	589658	0	0
2024-05-14 07:03:32			0	37645	0	0	0	18535	17150	135599	27514	968870	39192	106751	0	0	8350	589254	0	0
2024-05-14 07:04:32			0	37643	0	0	0	18537	17150	135603	27445	968984	39181	106752	0	0	8350	589336	0	0
2024-05-14 07:05:32			0	37649	0	0	0	18537	17150	135551	27282	968878	39203	106752	0	0	8351	589089	0	0
2024-05-14 07:06:32			0	37634	0	0	0	18532	17140	135619	27512	968888	39202	106750	0	0	8350	589741	0	0
2024-05-14 07:07:32			0	37638	0	0	0	18535	17140	135643	27450	968862	39191	106751	0	0	8350	589575	0	0
2024-05-14 07:08:32			0	37641	0	0	0	18527	17140	135595	27312	968941	39202	106748	0	0	8350	589451	0	0
2024-05-14 07:09:32			0	37639	0	0	0	18529	17150	135623	27279	968870	39192	106749	0	0	8350	589502	0	0
2024-05-14 07:10:32			0	37635	0	0	0	18527	17140	135591	27606	968862	39202	106748	0	0	8350	589699	0	0
2024-05-14 07:11:32			0	37648	0	0	0	18529	17150	135591	27124	968870	39203	106749	0	0	8351	589130	0	0
2024-05-14 07:12:32			0	37659	0	0	0	18532	17160	135611	27599	968886	39192	106750	0	0	8351	588643	0	0
2024-05-14 07:13:32			0	37646	0	0	0	18532	17140	135591	27260	968862	39191	106750	0	0	8351	589244	0	0
2024-05-14 07:14:32			0	37655	0	0	0	18527	17150	135539	27178	968817	39203	106748	0	0	8351	588840	0	0
2024-05-14 07:15:32			0	37662	0	0	0	18519	17140	135435	27455	968862	39202	106745	0	0	8352	588583	0	0
2024-05-14 07:16:32			0	37646	0	0	0	18527	17140	135539	27307	968827	39201	106748	0	0	8351	589244	0	0
2024-05-14 07:17:32			0	37673	0	0	0	18529	17140	135551	27757	968827	39190	106749	0	0	8352	588129	0	0
2024-05-14 07:18:32			0	37670	0	0	0	18524	17140	135483	27478	968906	39190	106747	0	0	8352	588253	0	0
2024-05-14 07:19:32			0	37656	0	0	0	18527	17150	135531	27332	968870	39203	106748	0	0	8351	588799	0	0
2024-05-14 07:20:32			0	37655	0	0	0	18532	17140	135499	27289	968853	39201	106750	0	0	8351	588872	0	0
2024-05-14 07:21:32			0	37666	0	0	0	18527	17140	135475	27630	968880	39179	106748	0	0	8352	588418	0	0
2024-05-14 07:22:32			0	37669	0	0	0	18524	17140	135415	27562	968827	39190	106747	0	0	8352	588294	0	0
2024-05-14 07:23:32			0	37678	0	0	0	18522	17140	135447	27296	968880	39201	106746	0	0	8352	587922	0	0
2024-05-14 07:24:32			0	37670	0	0	0	18527	17140	135519	27533	968880	39190	106748	0	0	8352	588253	0	0
2024-05-14 07:25:32			0	37665	0	0	0	18527	17140	135495	27298	968880	39179	106748	0	0	8352	588459	0	0
2024-05-14 07:26:32			0	37686	0	0	0	18524	17140	135595	27569	968835	39202	106747	0	0	8353	587592	0	0
2024-05-14 07:27:32			0	37671	0	0	0	18535	17140	135567	27204	968914	39191	106751	0	0	8352	588211	0	0
2024-05-14 07:28:32			0	37678	0	0	0	18524	17140	135475	27275	968933	39190	106747	0	0	8352	587922	0	0
2024-05-14 07:29:32			0	37688	0	0	0	18522	17140	135387	27530	968914	39202	106746	0	0	8353	587509	0	0
2024-05-14 07:30:32			0	37691	0	0	0	18529	17140	135399	27173	968914	39191	106749	0	0	8353	587385	0	0
2024-05-14 07:31:32			0	37674	0	0	0	18532	17140	135375	27067	968888	39180	106750	0	0	8352	588087	0	0
2024-05-14 07:32:32			0	37695	0	0	0	18537	17140	135371	27100	968933	39190	106752	0	0	8353	587220	0	0
2024-05-14 07:33:32			0	37673	0	0	0	18535	17150	135515	27438	968896	39192	106751	0	0	8352	588097	0	0
2024-05-14 07:34:32			0	37681	0	0	0	18527	17140	135423	27027	968853	39179	106748	0	0	8352	587798	0	0
2024-05-14 07:35:32			0	37684	0	0	0	18527	17150	135403	27495	968870	39203	106748	0	0	8353	587643	0	0
2024-05-14 07:36:32			0	37682	0	0	0	18527	17140	135423	27407	968853	39201	106748	0	0	8353	587757	0	0
2024-05-14 07:37:32			0	37680	0	0	0	18519	17130	135431	27450	968845	39201	106745	0	0	8352	587871	0	0
2024-05-14 07:38:32			0	37698	0	0	0	18529	17140	135383	27296	968827	39190	106749	0	0	8353	587097	0	0
2024-05-14 07:39:32			0	37696	0	0	0	18519	17140	135323	27343	968853	39201	106745	0	0	8353	587179	0	0
2024-05-14 07:40:32			0	37698	0	0	0	18519	17140	135367	27244	968809	39191	106745	0	0	8353	587097	0	0
2024-05-14 07:41:32			0	37707	0	0	0	18529	17130	135319	27486	968845	39190	106749	0	0	8354	586757	0	0
2024-05-14 07:42:32			0	37702	0	0	0	18524	17140	135479	27339	968853	39190	106747	0	0	8354	586932	0	0
2024-05-14 07:43:32			0	37691	0	0	0	18516	17130	135379	27261	968792	39201	106744	0	0	8353	587417	0	0
2024-05-14 07:44:32			0	37692	0	0	0	18519	17130	135407	27303	968819	39190	106745	0	0	8353	587376	0	0
2024-05-14 07:45:32			0	37722	0	0	0	18524	17130	135347	27272	968792	39190	106747	0	0	8355	586139	0	0
2024-05-14 07:46:32			0	37698	0	0	0	18524	17130	135375	27352	968810	39189	106747	0	0	8353	587128	0	0
2024-05-14 07:47:32			0	37718	0	0	0	18524	17120	135363	27194	968776	39210	106747	0	0	8354	586336	0	0
2024-05-14 07:48:32			0	37694	0	0	0	18529	17130	135351	27027	968819	39201	106749	0	0	8353	587294	0	0
2024-05-14 07:49:32			0	37693	0	0	0	18529	17130	135403	27138	968845	39211	106749	0	0	8353	587335	0	0
2024-05-14 07:50:32			0	37698	0	0	0	18522	17140	135407	27422	968906	39190	106746	0	0	8353	587097	0	0
2024-05-14 07:51:32			0	37726	0	0	0	18524	17130	135415	27346	968819	39201	106747	0	0	8355	585974	0	0
2024-05-14 07:52:32			0	37711	0	0	0	18527	17130	135379	27364	968819	39201	106748	0	0	8354	586592	0	0
2024-05-14 07:53:32			0	37710	0	0	0	18522	17130	135347	27369	968810	39189	106746	0	0	8354	586634	0	0
2024-05-14 07:54:32			0	37715	0	0	0	18527	17130	135383	27057	968845	39201	106748	0	0	8354	586427	0	0
2024-05-14 07:55:32			0	37700	0	0	0	18527	17130	135383	27206	968758	39189	106748	0	0	8353	587046	0	0
2024-05-14 07:56:32			0	37704	0	0	0	18519	17140	135275	26981	968933	39211	106745	0	0	8354	586849	0	0
2024-05-14 07:57:32			0	37689	0	0	0	18522	17130	135331	27452	968845	39190	106746	0	0	8353	587500	0	0
2024-05-14 07:58:32			0	37702	0	0	0	18524	17140	135271	27339	968914	39212	106747	0	0	8354	586932	0	0
2024-05-14 07:59:32			0	37704	0	0	0	18529	17130	135275	27022	968784	39189	106749	0	0	8354	586881	0	0
2024-05-14 08:00:32			0	37722	0	0	0	18529	17140	135347	27334	968888	39180	106749	0	0	8355	586107	0	0
2024-05-14 08:01:32			0	37713	0	0	0	18527	17140	135395	27386	968853	39190	106748	0	0	8354	586478	0	0
2024-05-14 08:02:32			0	37696	0	0	0	18529	17130	135375	27163	968871	39211	106749	0	0	8353	587211	0	0
2024-05-14 08:03:32			0	37699	0	0	0	18532	17130	135443	27402	968871	39211	106750	0	0	8353	587087	0	0
2024-05-14 08:04:32			0	37717	0	0	0	18532	17140	135419	27293	968853	39211	106750	0	0	8354	586313	0	0
2024-05-14 08:05:32			0	37711	0	0	0	18532	17130	135439	27457	968845	39211	106750	0	0	8354	586592	0	0
2024-05-14 08:06:32			0	37700	0	0	0	18535	17130	135355	27241	968810	39200	106751	0	0	8353	587046	0	0
2024-05-14 08:07:32			0	37716	0	0	0	18532	17130	135403	27443	968898	39201	106750	0	0	8354	586386	0	0
2024-05-14 08:08:32			0	37713	0	0	0	18532	17140	135343	27253	968906	39201	106750	0	0	8354	586478	0	0
2024-05-14 08:09:32			0	37703	0	0	0	18535	17140	135343	27462	968906	39211	106751	0	0	8353	586890	0	0
2024-05-14 08:10:32			0	37718	0	0	0	18542	17140	135399	27393	968880	39190	106754	0	0	8354	586272	0	0
2024-05-14 08:11:32			0	37701	0	0	0	18535	17130	135359	27334	968898	39211	106751	0	0	8353	587005	0	0
2024-05-14 08:12:32			0	37712	0	0	0	18535	17140	135331	27407	968827	39190	106751	0	0	8354	586519	0	0
2024-05-14 08:13:32			0	37694	0	0	0	18535	17150	135351	27322	968870	39203	106751	0	0	8353	587230	0	0
2024-05-14 08:14:32			0	37696	0	0	0	18535	17130	135351	27530	968924	39201	106751	0	0	8353	587211	0	0
2024-05-14 08:15:32			0	37710	0	0	0	18540	17140	135407	27419	968888	39180	106753	0	0	8354	586602	0	0
2024-05-14 08:16:32			0	37705	0	0	0	18535	17150	135291	27397	968896	39213	106751	0	0	8354	586776	0	0
2024-05-14 08:17:32			0	37694	0	0	0	18542	17140	135367	27661	968880	39201	106754	0	0	8353	587262	0	0
2024-05-14 08:18:32			0	37704	0	0	0	18540	17140	135267	27647	968888	39202	106753	0	0	8353	586849	0	0
2024-05-14 08:19:32			0	37714	0	0	0	18545	17140	135391	27350	968914	39202	106755	0	0	8354	586437	0	0
2024-05-14 08:20:32			0	37699	0	0	0	18542	17140	135343	27419	968880	39190	106754	0	0	8353	587055	0	0
2024-05-14 08:21:32			0	37734	0	0	0	18548	17150	135387	27559	968923	39181	106756	0	0	8355	585581	0	0
2024-05-14 08:22:32			0	37708	0	0	0	18548	17150	135415	27336	968923	39203	106756	0	0	8354	586652	0	0
2024-05-14 08:23:32			0	37717	0	0	0	18537	17150	135455	27332	968949	39192	106752	0	0	8354	586281	0	0
2024-05-14 08:24:32			0	37700	0	0	0	18550	17150	135487	27556	968896	39203	106757	0	0	8353	586982	0	0
2024-05-14 08:25:32			0	37712	0	0	0	18548	17150	135387	27197	968975	39213	106756	0	0	8354	586487	0	0
2024-05-14 08:26:32			0	37701	0	0	0	18550	17150	135455	27457	968904	39203	106757	0	0	8353	586941	0	0
2024-05-14 08:27:32			0	37715	0	0	0	18550	17140	135415	27379	968906	39201	106757	0	0	8354	586396	0	0
2024-05-14 08:28:32			0	37709	0	0	0	18548	17150	135371	27377	968931	39213	106756	0	0	8354	586611	0	0
2024-05-14 08:29:32			0	37703	0	0	0	18550	17160	135411	27599	968939	39192	106757	0	0	8353	586827	0	0
2024-05-14 08:30:32			0	37695	0	0	0	18561	17160	135375	27235	968966	39192	106761	0	0	8353	587157	0	0
2024-05-14 08:31:32			0	37703	0	0	0	18550	17160	135415	27307	968939	39192	106757	0	0	8353	586827	0	0
2024-05-14 08:32:32			0	37695	0	0	0	18545	17160	135427	27557	968966	39213	106755	0	0	8353	587157	0	0
2024-05-14 08:33:32			0	37685	0	0	0	18545	17160	135299	27701	968886	39213	106755	0	0	8352	587569	0	0
2024-05-14 08:34:32			0	37700	0	0	0	18548	17150	135339	27320	968975	39192	106756	0	0	8353	586982	0	0
2024-05-14 08:35:32			0	37683	0	0	0	18558	17150	135343	27260	968984	39203	106760	0	0	8352	587684	0	0
2024-05-14 08:36:32			0	37695	0	0	0	18555	17150	135411	27455	968957	39203	106759	0	0	8353	587189	0	0
2024-05-14 08:37:32			0	37701	0	0	0	18558	17160	135467	27211	968966	39192	106760	0	0	8353	586909	0	0
2024-05-14 08:38:32			0	37715	0	0	0	18555	17150	135399	27524	968984	39203	106759	0	0	8354	586364	0	0
2024-05-14 08:39:32			0	37701	0	0	0	18561	17150	135383	27121	968957	39203	106761	0	0	8353	586941	0	0
2024-05-14 08:40:32			0	37701	0	0	0	18558	17150	135399	27201	969089	39213	106760	0	0	8353	586941	0	0
2024-05-14 08:41:32			0	37702	0	0	0	18555	17160	135347	27564	969000	39204	106759	0	0	8353	586868	0	0
2024-05-14 08:42:32			0	37681	0	0	0	18563	17160	135459	27320	969000	39192	106762	0	0	8352	587734	0	0
2024-05-14 08:43:32			0	37703	0	0	0	18566	17160	135491	27282	969079	39204	106763	0	0	8353	586827	0	0
2024-05-14 08:44:32			0	37688	0	0	0	18555	17160	135451	27502	969027	39214	106759	0	0	8352	587446	0	0
2024-05-14 08:45:32			0	37684	0	0	0	18563	17170	135447	27121	968982	39205	106762	0	0	8352	587579	0	0
2024-05-14 08:46:32			0	37683	0	0	0	18574	17160	135443	27206	969018	39213	106766	0	0	8352	587652	0	0
2024-05-14 08:47:32			0	37686	0	0	0	18563	17170	135475	27377	969017	39215	106762	0	0	8352	587496	0	0
2024-05-14 08:48:32			0	37684	0	0	0	18566	17170	135379	27350	969035	39193	106763	0	0	8352	587579	0	0
2024-05-14 08:49:32			0	37692	0	0	0	18568	17170	135471	27069	969043	39215	106764	0	0	8352	587248	0	0
2024-05-14 08:50:32			0	37675	0	0	0	18566	17170	135507	27227	969043	39205	106763	0	0	8352	587950	0	0
2024-05-14 08:51:32			0	37681	0	0	0	18571	17160	135439	27535	969079	39214	106765	0	0	8352	587734	0	0
2024-05-14 08:52:32			0	37689	0	0	0	18574	17160	135343	27391	969027	39214	106766	0	0	8352	587404	0	0
2024-05-14 08:53:32			0	37680	0	0	0	18566	17170	135423	27341	969061	39215	106763	0	0	8352	587744	0	0
2024-05-14 08:54:32			0	37687	0	0	0	18568	17170	135479	27429	969061	39193	106764	0	0	8352	587455	0	0
2024-05-14 08:55:32			0	37682	0	0	0	18576	17180	135491	27298	969078	39215	106767	0	0	8352	587629	0	0
2024-05-14 08:56:32			0	37693	0	0	0	18576	17170	135487	27680	969096	39193	106767	0	0	8352	587207	0	0
2024-05-14 08:57:32			0	37673	0	0	0	18579	17180	135431	27234	969086	39205	106768	0	0	8351	588001	0	0
2024-05-14 08:58:32			0	37683	0	0	0	18574	17170	135327	27483	969043	39205	106766	0	0	8352	587620	0	0
2024-05-14 08:59:32			0	37690	0	0	0	18574	17180	135495	27197	969025	39205	106766	0	0	8352	587299	0	0
2024-05-14 09:00:32			0	37687	0	0	0	18579	17180	135491	27209	969112	39205	106768	0	0	8352	587423	0	0
2024-05-14 09:01:32			0	37684	0	0	0	18581	17170	135395	27230	969096	39193	106769	0	0	8352	587579	0	0
2024-05-14 09:02:32			0	37687	0	0	0	18584	17180	135431	27405	969051	39205	106770	0	0	8352	587423	0	0
2024-05-14 09:03:32			0	37694	0	0	0	18589	17180	135447	27618	969086	39205	106772	0	0	8352	587134	0	0
2024-05-14 09:04:32			0	37678	0	0	0	18579	17180	135427	27253	969165	39215	106768	0	0	8352	587794	0	0
2024-05-14 09:05:32			0	37675	0	0	0	18584	17190	135487	27372	969121	39206	106770	0	0	8351	587886	0	0
2024-05-14 09:06:32			0	37680	0	0	0	18584	17180	135355	27429	969112	39215	106770	0	0	8352	587712	0	0
2024-05-14 09:07:32			0	37687	0	0	0	18589	17190	135339	27545	969173	39206	106772	0	0	8352	587391	0	0
2024-05-14 09:08:32			0	37662	0	0	0	18587	17190	135491	27329	969102	39195	106771	0	0	8351	588423	0	0
2024-05-14 09:09:32			0	37694	0	0	0	18594	17190	135387	27699	969050	39206	106774	0	0	8352	587102	0	0
2024-05-14 09:10:32			0	37700	0	0	0	18594	17190	135435	27204	969121	39216	106774	0	0	8353	586855	0	0
2024-05-14 09:11:32			0	37681	0	0	0	18597	17190	135379	27573	969173	39206	106775	0	0	8351	587639	0	0
2024-05-14 09:12:32			0	37687	0	0	0	18599	17190	135343	27533	969155	39216	106776	0	0	8352	587391	0	0
2024-05-14 09:13:32			0	37698	0	0	0	18592	17190	135467	27531	969102	39206	106773	0	0	8352	586937	0	0
2024-05-14 09:14:32			0	37671	0	0	0	18589	17200	135343	27241	969119	39207	106772	0	0	8351	588020	0	0
2024-05-14 09:15:32			0	37686	0	0	0	18602	17200	135411	27445	969119	39207	106777	0	0	8352	587400	0	0
2024-05-14 09:16:32			0	37666	0	0	0	18597	17210	135415	27504	969233	39218	106775	0	0	8351	588194	0	0
2024-05-14 09:17:32			0	37688	0	0	0	18605	17200	135423	27107	969137	39207	106778	0	0	8352	587318	0	0
2024-05-14 09:18:32			0	37689	0	0	0	18594	17200	135283	27763	969163	39217	106774	0	0	8352	587277	0	0
2024-05-14 09:19:32			0	37697	0	0	0	18599	17200	135475	27640	969163	39207	106776	0	0	8352	586947	0	0
2024-05-14 09:20:32			0	37689	0	0	0	18602	17200	135495	27625	969137	39207	106777	0	0	8352	587277	0	0
2024-05-14 09:21:32			0	37671	0	0	0	18594	17200	135427	27365	969225	39217	106774	0	0	8351	588020	0	0
2024-05-14 09:22:32			0	37666	0	0	0	18602	17210	135363	27699	969206	39208	106777	0	0	8351	588194	0	0
2024-05-14 09:23:32			0	37679	0	0	0	18599	17200	135435	27492	969216	39207	106776	0	0	8351	587689	0	0
2024-05-14 09:24:32			0	37688	0	0	0	18602	17200	135379	27478	969137	39217	106777	0	0	8352	587318	0	0
2024-05-14 09:25:32			0	37691	0	0	0	18610	17210	135387	27274	969206	39208	106780	0	0	8352	587162	0	0
2024-05-14 09:26:32			0	37685	0	0	0	18599	17210	135447	27706	969259	39208	106776	0	0	8352	587410	0	0
2024-05-14 09:27:32			0	37697	0	0	0	18605	17210	135431	27602	969153	39218	106778	0	0	8352	586915	0	0
2024-05-14 09:28:32			0	37668	0	0	0	18599	17210	135387	27339	969206	39218	106776	0	0	8351	588112	0	0
2024-05-14 09:29:32			0	37673	0	0	0	18594	17210	135451	27213	969241	39208	106774	0	0	8351	587905	0	0
2024-05-14 09:30:32			0	37668	0	0	0	18605	17210	135331	27345	969233	39208	106778	0	0	8351	588112	0	0
2024-05-14 09:31:32			0	37692	0	0	0	18602	17200	135463	27424	969225	39196	106777	0	0	8352	587153	0	0
2024-05-14 09:32:32			0	37683	0	0	0	18605	17210	135395	27604	969233	39218	106778	0	0	8352	587492	0	0
2024-05-14 09:33:32			0	37688	0	0	0	18607	17220	135411	27253	969205	39198	106779	0	0	8352	587254	0	0
2024-05-14 09:34:32			0	37668	0	0	0	18607	17210	135423	27892	969241	39208	106779	0	0	8351	588112	0	0
2024-05-14 09:35:32			0	37674	0	0	0	18602	17220	135439	27666	969178	39219	106777	0	0	8351	587832	0	0
2024-05-14 09:36:32			0	37667	0	0	0	18610	17210	135439	27699	969188	39218	106780	0	0	8351	588153	0	0
2024-05-14 09:37:32			0	37658	0	0	0	18612	17220	135515	27511	969276	39198	106781	0	0	8350	588493	0	0
2024-05-14 09:38:32			0	37673	0	0	0	18618	17230	135475	27371	969266	39209	106783	0	0	8351	587841	0	0
2024-05-14 09:39:32			0	37662	0	0	0	18612	17220	135407	27388	969205	39208	106781	0	0	8350	588328	0	0
2024-05-14 09:40:32			0	37671	0	0	0	18612	17220	135387	27358	969170	39187	106781	0	0	8351	587956	0	0
2024-05-14 09:41:32			0	37668	0	0	0	18615	17230	135447	27412	969248	39209	106782	0	0	8351	588048	0	0
2024-05-14 09:42:32			0	37683	0	0	0	18615	17210	135423	27249	969267	39208	106782	0	0	8351	587492	0	0
2024-05-14 09:43:32			0	37667	0	0	0	18615	17230	135519	27412	969292	39209	106782	0	0	8351	588089	0	0
2024-05-14 09:44:32			0	37672	0	0	0	18612	17240	135491	27338	969309	39221	106781	0	0	8351	587851	0	0
2024-05-14 09:45:32			0	37650	0	0	0	18618	17230	135495	27625	969266	39209	106783	0	0	8350	588791	0	0
2024-05-14 09:46:32			0	37665	0	0	0	18612	17230	135439	27357	969292	39209	106781	0	0	8351	588172	0	0
2024-05-14 09:47:32			0	37663	0	0	0	18620	17230	135443	27481	969319	39209	106784	0	0	8350	588254	0	0
2024-05-14 09:48:32			0	37677	0	0	0	18620	17230	135491	27656	969345	39220	106784	0	0	8351	587676	0	0
2024-05-14 09:49:32			0	37652	0	0	0	18620	17230	135451	27350	969248	39220	106784	0	0	8350	588709	0	0
2024-05-14 09:50:32			0	37647	0	0	0	18623	17230	135455	27523	969239	39209	106785	0	0	8349	588915	0	0
2024-05-14 09:51:32			0	37651	0	0	0	18610	17220	135479	27495	969223	39208	106780	0	0	8350	588782	0	0
2024-05-14 09:52:32			0	37666	0	0	0	18615	17220	135515	27121	969223	39208	106782	0	0	8351	588162	0	0
2024-05-14 09:53:32			0	37660	0	0	0	18607	17230	135423	27537	969345	39209	106779	0	0	8350	588378	0	0
2024-05-14 09:54:32			0	37663	0	0	0	18612	17230	135451	27582	969266	39220	106781	0	0	8350	588254	0	0
2024-05-14 09:55:32			0	37662	0	0	0	18615	17230	135495	27265	969248	39209	106782	0	0	8350	588296	0	0
2024-05-14 09:56:32			0	37655	0	0	0	18615	17230	135519	27274	969292	39231	106782	0	0	8350	588585	0	0
2024-05-14 09:57:32			0	37665	0	0	0	18610	17230	135459	27623	969300	39209	106780	0	0	8351	588172	0	0
2024-05-14 09:58:32			0	37664	0	0	0	18615	17230	135571	27315	969266	39199	106782	0	0	8350	588213	0	0
2024-05-14 09:59:32			0	37660	0	0	0	18610	17240	135519	27069	969283	39221	106780	0	0	8350	588346	0	0
2024-05-14 10:00:32			0	37648	0	0	0	18618	17230	135447	27379	969292	39220	106783	0	0	8350	588874	0	0
2024-05-14 10:01:32			0	37656	0	0	0	18623	17220	135527	27053	969284	39208	106785	0	0	8350	588575	0	0
2024-05-14 10:02:32			0	37651	0	0	0	18618	17230	135535	27072	969327	39199	106783	0	0	8350	588750	0	0
2024-05-14 10:03:32			0	37650	0	0	0	18620	17230	135507	27171	969239	39209	106784	0	0	8350	588791	0	0
2024-05-14 10:04:32			0	37654	0	0	0	18631	17230	135471	27216	969274	39220	106788	0	0	8350	588626	0	0
2024-05-14 10:05:32			0	37640	0	0	0	18623	17230	135575	27415	969239	39209	106785	0	0	8349	589205	0	0
2024-05-14 10:06:32			0	37656	0	0	0	18625	17230	135579	27750	969300	39231	106786	0	0	8350	588543	0	0
2024-05-14 10:07:32			0	37653	0	0	0	18625	17230	135631	27372	969327	39231	106786	0	0	8350	588667	0	0
2024-05-14 10:08:32			0	37633	0	0	0	18628	17240	135487	27393	969291	39210	106787	0	0	8349	589462	0	0
2024-05-14 10:09:32			0	37642	0	0	0	18620	17230	135531	27338	969327	39209	106784	0	0	8349	589122	0	0
2024-05-14 10:10:32			0	37626	0	0	0	18633	17230	135507	27595	969274	39220	106789	0	0	8348	589784	0	0
2024-05-14 10:11:32			0	37636	0	0	0	18628	17230	135531	27701	969239	39209	106787	0	0	8349	589370	0	0
2024-05-14 10:12:32			0	37638	0	0	0	18625	17240	135559	27621	969317	39210	106786	0	0	8349	589255	0	0
2024-05-14 10:13:32			0	37640	0	0	0	18612	17240	135635	27339	969256	39210	106781	0	0	8349	589173	0	0
2024-05-14 10:14:32			0	37639	0	0	0	18623	17230	135571	27731	969292	39209	106785	0	0	8349	589246	0	0
2024-05-14 10:15:32			0	37649	0	0	0	18628	17240	135563	27317	969264	39210	106787	0	0	8349	588801	0	0
2024-05-14 10:16:32			0	37648	0	0	0	18612	17240	135563	27493	969362	39221	106781	0	0	8350	588842	0	0
2024-05-14 10:17:32			0	37645	0	0	0	18612	17230	135535	27486	969266	39220	106781	0	0	8349	588998	0	0
2024-05-14 10:18:32			0	37629	0	0	0	18618	17230	135539	27625	969266	39209	106783	0	0	8349	589659	0	0
2024-05-14 10:19:32			0	37635	0	0	0	18615	17240	135555	27606	969283	39232	106782	0	0	8349	589379	0	0
2024-05-14 10:20:32			0	37648	0	0	0	18607	17230	135623	27187	969266	39199	106779	0	0	8350	588874	0	0
2024-05-14 10:21:32			0	37615	0	0	0	18620	17240	135535	27215	969256	39221	106784	0	0	8348	590207	0	0
2024-05-14 10:22:32			0	37625	0	0	0	18618	17220	135635	27628	969257	39198	106783	0	0	8348	589857	0	0
2024-05-14 10:23:32			0	37647	0	0	0	18628	17230	135663	27632	969300	39220	106787	0	0	8349	588915	0	0
2024-05-14 10:24:32			0	37631	0	0	0	18633	17230	135623	27452	969292	39209	106789	0	0	8348	589577	0	0
2024-05-14 10:25:32			0	37627	0	0	0	18633	17240	135667	27388	969344	39222	106789	0	0	8348	589710	0	0
2024-05-14 10:26:32			0	37607	0	0	0	18644	17250	135655	27170	969352	39233	106793	0	0	8347	590506	0	0
2024-05-14 10:27:32			0	37613	0	0	0	18644	17240	135595	27455	969362	39221	106793	0	0	8347	590290	0	0
2024-05-14 10:28:32			0	37620	0	0	0	18651	17250	135667	27183	969405	39222	106796	0	0	8348	589968	0	0
2024-05-14 10:29:32			0	37617	0	0	0	18657	17260	135699	27255	969456	39212	106798	0	0	8347	590060	0	0
2024-05-14 10:30:32			0	37607	0	0	0	18667	17250	135643	27433	969439	39222	106802	0	0	8347	590506	0	0
2024-05-14 10:31:32			0	37601	0	0	0	18670	17260	135675	27485	969448	39222	106803	0	0	8346	590722	0	0
2024-05-14 10:32:32			0	37625	0	0	0	18667	17270	135627	27379	969438	39212	106802	0	0	8348	589697	0	0
2024-05-14 10:33:32			0	37617	0	0	0	18675	17260	135635	27203	969509	39223	106805	0	0	8347	590060	0	0
2024-05-14 10:34:32			0	37599	0	0	0	18680	17270	135651	27518	969438	39202	106807	0	0	8346	590773	0	0
2024-05-14 10:35:32			0	37617	0	0	0	18683	17270	135671	27542	969464	39223	106808	0	0	8347	590028	0	0
2024-05-14 10:36:32			0	37592	0	0	0	18688	17280	135635	27521	969533	39224	106810	0	0	8346	591031	0	0
2024-05-14 10:37:32			0	37607	0	0	0	18690	17280	135707	27402	969489	39236	106811	0	0	8346	590410	0	0
2024-05-14 10:38:32			0	37603	0	0	0	18696	17270	135743	27504	969551	39224	106813	0	0	8346	590607	0	0
2024-05-14 10:39:32			0	37609	0	0	0	18703	17280	135679	27326	969586	39213	106816	0	0	8346	590327	0	0
2024-05-14 10:40:32			0	37593	0	0	0	18693	17280	135679	27478	969560	39224	106812	0	0	8346	590989	0	0
2024-05-14 10:41:32			0	37589	0	0	0	18701	17300	135695	27215	969566	39237	106815	0	0	8345	591091	0	0
2024-05-14 10:42:32			0	37581	0	0	0	18714	17300	135719	27488	969707	39238	106820	0	0	8345	591422	0	0
2024-05-14 10:43:32			0	37598	0	0	0	18737	17300	135735	27232	969707	39227	106829	0	0	8345	590718	0	0
2024-05-14 10:44:32			0	37593	0	0	0	18742	17310	135711	27367	969723	39216	106831	0	0	8345	590893	0	0
2024-05-14 10:45:32			0	37609	0	0	0	18740	17310	135647	27315	969688	39239	106830	0	0	8346	590231	0	0
2024-05-14 10:46:32			0	37579	0	0	0	18750	17320	135695	27689	969792	39229	106834	0	0	8344	591441	0	0
2024-05-14 10:47:32			0	37586	0	0	0	18750	17330	135671	27434	969695	39229	106834	0	0	8344	591119	0	0
2024-05-14 10:48:32			0	37575	0	0	0	18745	17330	135651	27351	969748	39251	106832	0	0	8344	591575	0	0
2024-05-14 10:49:32			0	37593	0	0	0	18748	17330	135711	27237	969827	39218	106833	0	0	8345	590829	0	0
2024-05-14 10:50:32			0	37587	0	0	0	18748	17340	135627	27441	969791	39230	106833	0	0	8345	591045	0	0
2024-05-14 10:51:32			0	37579	0	0	0	18763	17340	135695	27550	969791	39219	106839	0	0	8344	591377	0	0
2024-05-14 10:52:32			0	37597	0	0	0	18761	17350	135683	27618	969852	39252	106838	0	0	8345	590599	0	0
2024-05-14 10:53:32			0	37585	0	0	0	18774	17360	135699	27147	969868	39232	106843	0	0	8344	591064	0	0
2024-05-14 10:54:32			0	37571	0	0	0	18774	17350	135675	27632	969886	39231	106843	0	0	8343	591676	0	0
2024-05-14 10:55:32			0	37580	0	0	0	18768	17360	135707	27118	969929	39253	106841	0	0	8344	591271	0	0
2024-05-14 10:56:32			0	37587	0	0	0	18774	17360	135667	27109	969868	39232	106843	0	0	8344	590981	0	0
2024-05-14 10:57:32			0	37572	0	0	0	18771	17360	135743	27452	969876	39243	106842	0	0	8343	591602	0	0
2024-05-14 10:58:32			0	37590	0	0	0	18776	17370	135743	27706	969885	39232	106844	0	0	8344	590825	0	0
2024-05-14 10:59:32			0	37565	0	0	0	18779	17360	135659	27554	969956	39232	106845	0	0	8343	591893	0	0
2024-05-14 11:00:32			0	37597	0	0	0	18776	17370	135675	27403	969920	39233	106844	0	0	8345	590535	0	0
2024-05-14 11:01:32			0	37593	0	0	0	18776	17370	135695	27204	969911	39232	106844	0	0	8345	590700	0	0
2024-05-14 11:02:32			0	37583	0	0	0	18768	17380	135627	27460	970034	39234	106841	0	0	8344	591082	0	0
2024-05-14 11:03:32			0	37588	0	0	0	18776	17360	135775	27843	969903	39243	106844	0	0	8344	590940	0	0
2024-05-14 11:04:32			0	37581	0	0	0	18776	17370	135735	27338	969893	39244	106844	0	0	8344	591197	0	0
2024-05-14 11:05:32			0	37591	0	0	0	18768	17370	135799	27246	969911	39243	106841	0	0	8345	590783	0	0
2024-05-14 11:06:32			0	37579	0	0	0	18781	17380	135695	27435	969954	39234	106846	0	0	8344	591248	0	0
2024-05-14 11:07:32			0	37569	0	0	0	18779	17380	135739	27215	969981	39234	106845	0	0	8343	591662	0	0
2024-05-14 11:08:32			0	37580	0	0	0	18786	17380	135603	27279	969936	39245	106848	0	0	8344	591207	0	0
2024-05-14 11:09:32			0	37581	0	0	0	18786	17380	135723	27150	969963	39234	106848	0	0	8344	591165	0	0
2024-05-14 11:10:32			0	37574	0	0	0	18786	17380	135759	27557	970015	39234	106848	0	0	8343	591455	0	0
2024-05-14 11:11:32			0	37596	0	0	0	18786	17390	135775	27222	970050	39245	106848	0	0	8345	590512	0	0
2024-05-14 11:12:32			0	37574	0	0	0	18794	17390	135735	27485	969997	39234	106851	0	0	8343	591423	0	0
2024-05-14 11:13:32			0	37569	0	0	0	18797	17400	135683	27327	969987	39247	106852	0	0	8343	591598	0	0
2024-05-14 11:14:32			0	37591	0	0	0	18792	17400	135703	27367	969961	39247	106850	0	0	8344	590687	0	0
2024-05-14 11:15:32			0	37588	0	0	0	18802	17390	135719	27409	970032	39246	106854	0	0	8344	590843	0	0
2024-05-14 11:16:32			0	37570	0	0	0	18799	17390	135703	27495	970032	39235	106853	0	0	8343	591589	0	0
2024-05-14 11:17:32			0	37577	0	0	0	18805	17400	135727	27618	970022	39235	106855	0	0	8343	591267	0	0
2024-05-14 11:18:32			0	37593	0	0	0	18799	17400	135667	27450	970093	39235	106853	0	0	8344	590604	0	0
2024-05-14 11:19:32			0	37578	0	0	0	18794	17400	135647	27557	970040	39247	106851	0	0	8344	591225	0	0
2024-05-14 11:20:32			0	37583	0	0	0	18789	17400	135711	27412	970093	39235	106849	0	0	8344	591018	0	0
2024-05-14 11:21:32			0	37570	0	0	0	18784	17400	135799	27410	969987	39247	106847	0	0	8343	591557	0	0
2024-05-14 11:22:32			0	37583	0	0	0	18792	17410	135639	27639	970004	39235	106850	0	0	8344	590986	0	0
2024-05-14 11:23:32			0	37567	0	0	0	18781	17400	135643	27751	970022	39235	106846	0	0	8343	591681	0	0
2024-05-14 11:24:32			0	37573	0	0	0	18779	17400	135779	27332	970022	39247	106845	0	0	8344	591432	0	0
2024-05-14 11:25:32			0	37578	0	0	0	18779	17400	135691	27379	969961	39247	106845	0	0	8344	591225	0	0
2024-05-14 11:26:32			0	37583	0	0	0	18771	17400	135715	27346	970014	39247	106842	0	0	8344	591018	0	0
2024-05-14 11:27:32			0	37581	0	0	0	18771	17410	135723	27395	970057	39247	106842	0	0	8344	591069	0	0
2024-05-14 11:28:32			0	37575	0	0	0	18768	17390	135747	27261	970006	39235	106841	0	0	8344	591382	0	0
2024-05-14 11:29:32			0	37572	0	0	0	18763	17400	135727	27107	969996	39247	106839	0	0	8344	591474	0	0
2024-05-14 11:30:32			0	37589	0	0	0	18758	17390	135655	27345	969979	39246	106837	0	0	8345	590802	0	0
2024-05-14 11:31:32			0	37576	0	0	0	18755	17410	135571	27424	970030	39247	106836	0	0	8344	591276	0	0
2024-05-14 11:32:32			0	37588	0	0	0	18768	17390	135707	27116	969953	39235	106841	0	0	8345	590843	0	0
2024-05-14 11:33:32			0	37570	0	0	0	18753	17380	135707	27364	969910	39234	106835	0	0	8344	591621	0	0
2024-05-14 11:34:32			0	37588	0	0	0	18742	17390	135707	27336	969979	39235	106831	0	0	8345	590843	0	0
2024-05-14 11:35:32			0	37584	0	0	0	18742	17380	135687	27580	969936	39234	106831	0	0	8345	591041	0	0
2024-05-14 11:36:32			0	37587	0	0	0	18729	17370	135583	27371	969867	39233	106826	0	0	8345	590949	0	0
2024-05-14 11:37:32			0	37577	0	0	0	18722	17380	135691	27419	969875	39222	106823	0	0	8345	591331	0	0
2024-05-14 11:38:32			0	37587	0	0	0	18703	17380	135651	27608	969857	39222	106816	0	0	8346	590917	0	0
2024-05-14 11:39:32			0	37586	0	0	0	18703	17360	135691	27010	969771	39232	106816	0	0	8345	591022	0	0
2024-05-14 11:40:32			0	37562	0	0	0	18709	17370	135763	27201	969779	39221	106818	0	0	8344	591985	0	0
2024-05-14 11:41:32			0	37596	0	0	0	18714	17360	135623	27241	969797	39221	106820	0	0	8346	590608	0	0
2024-05-14 11:42:32			0	37574	0	0	0	18716	17350	135703	27341	969807	39231	106821	0	0	8344	591552	0	0
2024-05-14 11:43:32			0	37588	0	0	0	18706	17360	135703	27173	969789	39210	106817	0	0	8345	590940	0	0
2024-05-14 11:44:32			0	37575	0	0	0	18709	17360	135679	27241	969797	39232	106818	0	0	8345	591478	0	0
2024-05-14 11:45:32			0	37577	0	0	0	18719	17360	135663	27341	969789	39221	106822	0	0	8345	591395	0	0
2024-05-14 11:46:32			0	37572	0	0	0	18722	17360	135659	27173	969815	39232	106823	0	0	8344	591602	0	0
2024-05-14 11:47:32			0	37577	0	0	0	18740	17360	135655	27833	969771	39253	106830	0	0	8344	591395	0	0
2024-05-14 11:48:32			0	37567	0	0	0	18768	17350	135675	27159	969886	39220	106841	0	0	8343	591842	0	0
2024-05-14 11:49:32			0	37565	0	0	0	18779	17370	135731	27422	969938	39232	106845	0	0	8343	591861	0	0
2024-05-14 11:50:32			0	37565	0	0	0	18789	17370	135719	27448	969964	39232	106849	0	0	8343	591861	0	0
2024-05-14 11:51:32			0	37568	0	0	0	18805	17370	135599	27346	969920	39233	106855	0	0	8343	591736	0	0
2024-05-14 11:52:32			0	37569	0	0	0	18799	17380	135739	27443	970034	39245	106853	0	0	8343	591662	0	0
2024-05-14 11:53:32			0	37559	0	0	0	18799	17380	135835	27371	970068	39234	106853	0	0	8342	592077	0	0
2024-05-14 11:54:32			0	37568	0	0	0	18797	17380	135803	27542	969989	39255	106852	0	0	8343	591704	0	0
2024-05-14 11:55:32			0	37582	0	0	0	18794	17390	135719	27642	969944	39234	106851	0	0	8344	591092	0	0
2024-05-14 11:56:32			0	37554	0	0	0	18792	17390	135767	27720	970024	39255	106850	0	0	8342	592252	0	0
2024-05-14 11:57:32			0	37578	0	0	0	18799	17400	135683	27400	970014	39235	106853	0	0	8343	591225	0	0
2024-05-14 11:58:32			0	37559	0	0	0	18797	17390	135711	27443	970058	39246	106852	0	0	8342	592045	0	0
2024-05-14 11:59:32			0	37547	0	0	0	18789	17400	135775	27332	970022	39247	106849	0	0	8342	592510	0	0
2024-05-14 12:00:32			0	37558	0	0	0	18779	17400	135679	27523	970014	39235	106845	0	0	8343	592054	0	0
2024-05-14 12:01:32			0	37587	0	0	0	18771	17390	135771	27164	969944	39234	106842	0	0	8344	590885	0	0
2024-05-14 12:02:32			0	37575	0	0	0	18766	17390	135675	27338	969944	39234	106840	0	0	8344	591382	0	0
2024-05-14 12:03:32			0	37582	0	0	0	18740	17390	135683	27545	969865	39234	106830	0	0	8345	591092	0	0
2024-05-14 12:04:32			0	37581	0	0	0	18727	17370	135715	27371	969893	39233	106825	0	0	8345	591197	0	0
2024-05-14 12:05:32			0	37573	0	0	0	18724	17380	135715	27488	969928	39222	106824	0	0	8344	591497	0	0
2024-05-14 12:06:32			0	37564	0	0	0	18729	17370	135779	27377	969920	39244	106826	0	0	8344	591902	0	0
2024-05-14 12:07:32			0	37570	0	0	0	18732	17380	135659	27434	969796	39222	106827	0	0	8344	591621	0	0
2024-05-14 12:08:32			0	37571	0	0	0	18722	17360	135611	27020	969876	39243	106823	0	0	8344	591644	0	0
2024-05-14 12:09:32			0	37580	0	0	0	18714	17370	135687	27355	969788	39244	106820	0	0	8345	591239	0	0
2024-05-14 12:10:32			0	37563	0	0	0	18703	17360	135787	27145	969771	39243	106816	0	0	8344	591976	0	0
2024-05-14 12:11:32			0	37578	0	0	0	18677	17350	135699	27144	969702	39231	106806	0	0	8345	591386	0	0
2024-05-14 12:12:32			0	37574	0	0	0	18675	17350	135627	27135	969640	39230	106805	0	0	8345	591552	0	0
2024-05-14 12:13:32			0	37594	0	0	0	18662	17330	135687	27190	969616	39229	106800	0	0	8346	590787	0	0
2024-05-14 12:14:32			0	37566	0	0	0	18651	17330	135675	27315	969642	39229	106796	0	0	8345	591947	0	0
2024-05-14 12:15:32			0	37593	0	0	0	18625	17320	135723	27379	969528	39217	106786	0	0	8347	590861	0	0
2024-05-14 12:16:32			0	37596	0	0	0	18618	17310	135643	27116	969530	39206	106783	0	0	8347	590769	0	0
2024-05-14 12:17:32			0	37582	0	0	0	18607	17310	135691	27052	969556	39216	106779	0	0	8347	591349	0	0
2024-05-14 12:18:32			0	37582	0	0	0	18612	17290	135695	27485	969418	39215	106781	0	0	8346	591413	0	0
2024-05-14 12:19:32			0	37600	0	0	0	18592	17290	135659	27202	969418	39215	106773	0	0	8348	590668	0	0
2024-05-14 12:20:32			0	37594	0	0	0	18576	17270	135803	27175	969314	39213	106767	0	0	8348	590980	0	0
2024-05-14 12:21:32			0	37590	0	0	0	18561	17260	135691	27478	969297	39212	106761	0	0	8348	591178	0	0
2024-05-14 12:22:32			0	37599	0	0	0	18542	17250	135675	27192	969254	39211	106754	0	0	8348	590837	0	0
2024-05-14 12:23:32			0	37587	0	0	0	18545	17240	135679	26922	969230	39199	106755	0	0	8348	591366	0	0
2024-05-14 12:24:32			0	37583	0	0	0	18532	17230	135671	27159	969168	39199	106750	0	0	8348	591564	0	0
2024-05-14 12:25:32			0	37585	0	0	0	18522	17220	135683	27093	969064	39219	106746	0	0	8348	591514	0	0
2024-05-14 12:26:32			0	37580	0	0	0	18493	17210	135723	27319	969101	39208	106735	0	0	8348	591753	0	0
2024-05-14 12:27:32			0	37577	0	0	0	18483	17200	135743	27433	969058	39196	106731	0	0	8348	591910	0	0
2024-05-14 12:28:32			0	37592	0	0	0	18498	17190	135759	27348	969023	39216	106737	0	0	8348	591320	0	0
2024-05-14 12:29:32			0	37582	0	0	0	18501	17190	135795	27410	969068	39206	106738	0	0	8348	591734	0	0
2024-05-14 12:30:32			0	37583	0	0	0	18498	17180	135783	27519	968980	39205	106737	0	0	8348	591725	0	0
2024-05-14 12:31:32			0	37576	0	0	0	18493	17170	135763	27455	968911	39205	106735	0	0	8348	592047	0	0
2024-05-14 12:32:32			0	37581	0	0	0	18498	17160	135747	27350	968947	39192	106737	0	0	8348	591872	0	0
2024-05-14 12:33:32			0	37557	0	0	0	18493	17160	135783	27447	968947	39192	106735	0	0	8347	592868	0	0
2024-05-14 12:34:32			0	37573	0	0	0	18493	17150	135859	27289	968931	39192	106735	0	0	8347	592236	0	0
2024-05-14 12:35:32			0	37546	0	0	0	18493	17150	135859	27448	968949	39203	106735	0	0	8346	593357	0	0
2024-05-14 12:36:32			0	37533	0	0	0	18496	17150	135967	27620	968923	39213	106736	0	0	8345	593897	0	0
2024-05-14 12:37:32			0	37515	0	0	0	18488	17140	136003	27260	968914	39191	106733	0	0	8344	594678	0	0
2024-05-14 12:38:32			0	37491	0	0	0	18493	17140	136163	27557	968888	39191	106735	0	0	8343	595677	0	0
2024-05-14 12:39:32			0	37471	0	0	0	18490	17140	136167	27369	968906	39201	106734	0	0	8342	596510	0	0
2024-05-14 12:40:32			0	37431	0	0	0	18488	17130	136299	27358	968845	39201	106733	0	0	8340	598211	0	0
2024-05-14 12:41:32			0	37425	0	0	0	18490	17130	136399	27386	968819	39201	106734	0	0	8340	598462	0	0
2024-05-14 12:42:32			0	37399	0	0	0	18485	17130	136423	27414	968890	39200	106732	0	0	8338	599549	0	0
2024-05-14 12:43:32			0	37376	0	0	0	18485	17130	136603	27653	968810	39200	106732	0	0	8337	600511	0	0
2024-05-14 12:44:32			0	37341	0	0	0	18485	17120	136655	27362	968855	39200	106732	0	0	8335	602010	0	0
2024-05-14 12:45:32			0	37308	0	0	0	18493	17120	136718	27227	968829	39189	106735	0	0	8333	603395	0	0
2024-05-14 12:46:32			0	37308	0	0	0	18498	17120	136866	27235	968908	39200	106737	0	0	8333	603395	0	0
2024-05-14 12:47:32			0	37285	0	0	0	18506	17130	136858	27338	968890	39210	106740	0	0	8332	604329	0	0
2024-05-14 12:48:32			0	37262	0	0	0	18509	17140	136918	27483	968933	39201	106741	0	0	8331	605264	0	0
2024-05-14 12:49:32			0	37249	0	0	0	18524	17140	136994	27372	968967	39202	106747	0	0	8330	605811	0	0
2024-05-14 12:50:32			0	37253	0	0	0	18550	17140	137050	27575	969020	39202	106757	0	0	8329	605642	0	0
2024-05-14 12:51:32			0	37229	0	0	0	18589	17160	137058	27519	969159	39214	106772	0	0	8328	606588	0	0
2024-05-14 12:52:32			0	37225	0	0	0	18618	17170	137066	27372	969220	39215	106783	0	0	8327	606723	0	0
2024-05-14 12:53:32			0	37226	0	0	0	18633	17180	137118	27526	969289	39215	106789	0	0	8327	606648	0	0
2024-05-14 12:54:32			0	37213	0	0	0	18651	17180	137170	27483	969297	39205	106796	0	0	8326	607196	0	0
2024-05-14 12:55:32			0	37212	0	0	0	18664	17200	137118	27258	969375	39217	106801	0	0	8326	607172	0	0
2024-05-14 12:56:32			0	37211	0	0	0	18672	17210	137186	27204	969373	39218	106804	0	0	8325	607182	0	0
2024-05-14 12:57:32			0	37188	0	0	0	18685	17230	137178	27301	969485	39231	106809	0	0	8324	608086	0	0
2024-05-14 12:58:32			0	37213	0	0	0	18701	17240	137134	27602	969520	39232	106815	0	0	8325	606998	0	0
2024-05-14 12:59:32			0	37204	0	0	0	18716	17250	137098	27289	969616	39233	106821	0	0	8325	607345	0	0
2024-05-14 13:00:32			0	37214	0	0	0	18719	17270	137086	27455	969622	39246	106822	0	0	8325	606857	0	0
2024-05-14 13:01:32			0	37198	0	0	0	18727	17270	137138	27287	969631	39246	106825	0	0	8324	607532	0	0
2024-05-14 13:02:32			0	37201	0	0	0	18722	17280	137142	27272	969647	39236	106823	0	0	8324	607372	0	0
2024-05-14 13:03:32			0	37226	0	0	0	18732	17290	137094	27640	969682	39237	106827	0	0	8326	606286	0	0
2024-05-14 13:04:32			0	37202	0	0	0	18753	17300	137022	27428	969804	39237	106835	0	0	8324	607264	0	0
2024-05-14 13:05:32			0	37196	0	0	0	18784	17330	137142	27296	969880	39229	106847	0	0	8323	607418	0	0
2024-05-14 13:06:32			0	37213	0	0	0	18794	17320	137074	27364	969845	39240	106851	0	0	8324	606735	0	0
2024-05-14 13:07:32			0	37217	0	0	0	18810	17340	137110	27620	969949	39230	106857	0	0	8324	606500	0	0
2024-05-14 13:08:32			0	37211	0	0	0	18815	17360	137086	27268	970027	39243	106859	0	0	8324	606687	0	0
2024-05-14 13:09:32			0	37203	0	0	0	18815	17360	137086	27559	970053	39243	106859	0	0	8323	607024	0	0
2024-05-14 13:10:32			0	37190	0	0	0	18812	17360	137138	27573	970009	39243	106858	0	0	8323	607572	0	0
2024-05-14 13:11:32			0	37190	0	0	0	18815	17380	137090	27090	970060	39245	106859	0	0	8323	607506	0	0
2024-05-14 13:12:32			0	37179	0	0	0	18815	17380	137158	27371	970034	39255	106859	0	0	8322	607970	0	0
2024-05-14 13:13:32			0	37189	0	0	0	18812	17390	137098	27410	970050	39234	106858	0	0	8323	607515	0	0
2024-05-14 13:14:32			0	37201	0	0	0	18797	17380	137074	26977	970068	39234	106852	0	0	8324	607042	0	0
2024-05-14 13:15:32			0	37188	0	0	0	18805	17390	137146	27279	970032	39246	106855	0	0	8323	607557	0	0
2024-05-14 13:16:32			0	37193	0	0	0	18792	17380	137126	27454	970068	39245	106850	0	0	8323	607380	0	0
2024-05-14 13:17:32			0	37167	0	0	0	18789	17400	137166	27531	970119	39247	106849	0	0	8322	608410	0	0
2024-05-14 13:18:32			0	37177	0	0	0	18781	17390	137222	27260	970085	39246	106846	0	0	8323	608022	0	0
2024-05-14 13:19:32			0	37186	0	0	0	18786	17400	137186	27473	970093	39247	106848	0	0	8323	607609	0	0
2024-05-14 13:20:32			0	37157	0	0	0	18789	17390	137234	27046	970111	39246	106849	0	0	8321	608866	0	0
2024-05-14 13:21:32			0	37143	0	0	0	18797	17400	137154	27374	970075	39257	106852	0	0	8321	609424	0	0
2024-05-14 13:22:32			0	37149	0	0	0	18786	17400	137294	27486	970075	39224	106848	0	0	8321	609171	0	0
2024-05-14 13:23:32			0	37140	0	0	0	18779	17410	137198	27369	969986	39236	106845	0	0	8321	609518	0	0
2024-05-14 13:24:32			0	37117	0	0	0	18792	17400	137310	27348	970075	39247	106850	0	0	8319	610523	0	0
2024-05-14 13:25:32			0	37108	0	0	0	18789	17410	137282	27336	970091	39247	106849	0	0	8319	610871	0	0
2024-05-14 13:26:32			0	37119	0	0	0	18799	17410	137290	27492	970136	39257	106853	0	0	8319	610405	0	0
2024-05-14 13:27:32			0	37110	0	0	0	18828	17410	137302	27471	970136	39247	106864	0	0	8318	610786	0	0
2024-05-14 13:28:32			0	37096	0	0	0	18844	17420	137246	27339	970205	39237	106870	0	0	8317	611346	0	0
2024-05-14 13:29:32			0	37106	0	0	0	18862	17420	137334	27618	970258	39258	106877	0	0	8318	610922	0	0
2024-05-14 13:30:32			0	37073	0	0	0	18857	17430	137342	27138	970230	39249	106875	0	0	8316	612287	0	0
2024-05-14 13:31:32			0	37065	0	0	0	18867	17440	137410	27343	970238	39260	106879	0	0	8315	612593	0	0
2024-05-14 13:32:32			0	37066	0	0	0	18864	17440	137402	27353	970318	39260	106878	0	0	8315	612550	0	0
2024-05-14 13:33:32			0	37075	0	0	0	18872	17430	137506	27595	970336	39249	106881	0	0	8316	612202	0	0
2024-05-14 13:34:32			0	37061	0	0	0	18870	17450	137358	27249	970289	39261	106880	0	0	8315	612729	0	0
2024-05-14 13:35:32			0	37062	0	0	0	18877	17450	137538	27289	970308	39250	106883	0	0	8315	612686	0	0
2024-05-14 13:36:32			0	37083	0	0	0	18877	17450	137506	27833	970308	39250	106883	0	0	8316	611796	0	0
2024-05-14 13:37:32			0	37067	0	0	0	18877	17450	137494	27601	970316	39250	106883	0	0	8315	612474	0	0
2024-05-14 13:38:32			0	37077	0	0	0	18880	17450	137518	27360	970369	39240	106884	0	0	8316	612051	0	0
2024-05-14 13:39:32			0	37057	0	0	0	18893	17450	137530	27296	970395	39240	106889	0	0	8315	612899	0	0
2024-05-14 13:40:32			0	37063	0	0	0	18901	17460	137494	27156	970464	39263	106892	0	0	8315	612611	0	0
2024-05-14 13:41:32			0	37066	0	0	0	18898	17470	137522	27189	970428	39263	106891	0	0	8315	612450	0	0
2024-05-14 13:42:32			0	37058	0	0	0	18898	17470	137570	27338	970420	39252	106891	0	0	8315	612789	0	0
2024-05-14 13:43:32			0	37047	0	0	0	18911	17470	137534	27630	970507	39252	106896	0	0	8314	613256	0	0
2024-05-14 13:44:32			0	37041	0	0	0	18909	17490	137486	27696	970514	39254	106895	0	0	8314	613444	0	0
2024-05-14 13:45:32			0	37039	0	0	0	18909	17480	137634	27251	970524	39253	106895	0	0	8313	613562	0	0
2024-05-14 13:46:32			0	37028	0	0	0	18914	17490	137590	27635	970461	39265	106897	0	0	8313	613996	0	0
2024-05-14 13:47:32			0	37035	0	0	0	18906	17500	137562	27623	970504	39255	106894	0	0	8313	613665	0	0
2024-05-14 13:48:32			0	37024	0	0	0	18906	17490	137550	27460	970488	39254	106894	0	0	8313	614166	0	0
2024-05-14 13:49:32			0	37021	0	0	0	18893	17500	137558	27365	970496	39244	106889	0	0	8313	614260	0	0
2024-05-14 13:50:32			0	37025	0	0	0	18885	17490	137638	27507	970461	39265	106886	0	0	8313	614123	0	0
2024-05-14 13:51:32			0	37005	0	0	0	18883	17490	137646	27315	970427	39254	106885	0	0	8312	614973	0	0
2024-05-14 13:52:32			0	37019	0	0	0	18888	17480	137638	27412	970445	39253	106887	0	0	8313	614411	0	0
2024-05-14 13:53:32			0	37005	0	0	0	18888	17490	137626	27388	970488	39254	106887	0	0	8312	614973	0	0
2024-05-14 13:54:32			0	36992	0	0	0	18885	17500	137682	27294	970470	39244	106886	0	0	8311	615492	0	0
2024-05-14 13:55:32			0	36999	0	0	0	18880	17490	137698	27203	970461	39244	106884	0	0	8312	615228	0	0
2024-05-14 13:56:32			0	36994	0	0	0	18883	17490	137842	27268	970453	39254	106885	0	0	8312	615440	0	0
2024-05-14 13:57:32			0	36959	0	0	0	18883	17500	137766	27628	970451	39266	106885	0	0	8310	616896	0	0
2024-05-14 13:58:32			0	36963	0	0	0	18885	17490	137870	27476	970488	39265	106886	0	0	8310	616760	0	0
2024-05-14 13:59:32			0	36964	0	0	0	18877	17490	137830	27140	970480	39265	106883	0	0	8310	616717	0	0
2024-05-14 14:00:32			0	36954	0	0	0	18885	17500	137930	27305	970496	39233	106886	0	0	8309	617109	0	0
2024-05-14 14:01:32			0	36946	0	0	0	18877	17500	137902	27625	970496	39244	106883	0	0	8309	617450	0	0
2024-05-14 14:02:32			0	36921	0	0	0	18877	17500	137906	27348	970478	39266	106883	0	0	8308	618516	0	0
2024-05-14 14:03:32			0	36938	0	0	0	18880	17490	137902	27192	970435	39265	106884	0	0	8309	617825	0	0
2024-05-14 14:04:32			0	36930	0	0	0	18880	17490	137994	27443	970427	39254	106884	0	0	8308	618166	0	0
2024-05-14 14:05:32			0	36935	0	0	0	18885	17490	137982	27651	970480	39254	106886	0	0	8308	617953	0	0
2024-05-14 14:06:32			0	36921	0	0	0	18877	17490	137926	27524	970461	39265	106883	0	0	8308	618550	0	0
2024-05-14 14:07:32			0	36940	0	0	0	18888	17490	137910	27274	970427	39265	106887	0	0	8309	617740	0	0
2024-05-14 14:08:32			0	36911	0	0	0	18890	17500	137950	27310	970470	39265	106888	0	0	8307	618943	0	0
2024-05-14 14:09:32			0	36896	0	0	0	18896	17500	138070	27590	970504	39255	106890	0	0	8306	619584	0	0
2024-05-14 14:10:32			0	36923	0	0	0	18893	17490	138030	27396	970541	39265	106889	0	0	8308	618465	0	0
2024-05-14 14:11:32			0	36929	0	0	0	18906	17500	138030	27305	970496	39244	106894	0	0	8308	618175	0	0
2024-05-14 14:12:32			0	36915	0	0	0	18906	17500	138034	27428	970557	39245	106894	0	0	8307	618772	0	0
2024-05-14 14:13:32			0	36892	0	0	0	18911	17500	138066	27540	970602	39265	106896	0	0	8306	619755	0	0
2024-05-14 14:14:32			0	36896	0	0	0	18914	17500	137970	27653	970610	39255	106897	0	0	8306	619584	0	0
2024-05-14 14:15:32			0	36888	0	0	0	18911	17520	138046	27609	970617	39257	106896	0	0	8306	619858	0	0
2024-05-14 14:16:32			0	36888	0	0	0	18924	17510	138018	27286	970618	39256	106901	0	0	8305	619892	0	0
2024-05-14 14:17:32			0	36886	0	0	0	18932	17530	138050	27305	970625	39258	106904	0	0	8305	619910	0	0
2024-05-14 14:18:32			0	36896	0	0	0	18937	17540	138090	27469	970676	39291	106906	0	0	8306	619449	0	0
2024-05-14 14:19:32			0	36878	0	0	0	18942	17540	138062	27350	970702	39259	106908	0	0	8305	620218	0	0
2024-05-14 14:20:32			0	36885	0	0	0	18953	17550	138118	27545	970745	39271	106912	0	0	8305	619885	0	0
2024-05-14 14:21:32			0	36864	0	0	0	18945	17550	138170	27649	970711	39282	106909	0	0	8304	620783	0	0
2024-05-14 14:22:32			0	36866	0	0	0	18948	17550	138090	27398	970790	39271	106910	0	0	8304	620697	0	0
2024-05-14 14:23:32			0	36863	0	0	0	18953	17550	138062	27607	970737	39259	106912	0	0	8304	620826	0	0
2024-05-14 14:24:32			0	36852	0	0	0	18953	17550	138162	27338	970719	39271	106912	0	0	8303	621296	0	0
2024-05-14 14:25:32			0	36865	0	0	0	18958	17560	138182	27159	970780	39250	106914	0	0	8304	620706	0	0
2024-05-14 14:26:32			0	36847	0	0	0	18958	17560	138202	27509	970754	39271	106914	0	0	8303	621476	0	0
2024-05-14 14:27:32			0	36849	0	0	0	18961	17560	138142	27293	970815	39260	106915	0	0	8303	621391	0	0
2024-05-14 14:28:32			0	36861	0	0	0	18963	17570	138178	27298	970823	39261	106916	0	0	8303	620844	0	0
2024-05-14 14:29:32			0	36845	0	0	0	18963	17560	138182	26904	970788	39271	106916	0	0	8303	621562	0	0
2024-05-14 14:30:32			0	36835	0	0	0	18963	17560	138182	27464	970815	39271	106916	0	0	8302	621990	0	0
2024-05-14 14:31:32			0	36845	0	0	0	18968	17570	138154	27357	970805	39273	106918	0	0	8303	621528	0	0
2024-05-14 14:32:32			0	36831	0	0	0	18968	17570	138174	27229	970805	39262	106918	0	0	8302	622128	0	0
2024-05-14 14:33:32			0	36832	0	0	0	18971	17580	138238	27352	970892	39262	106919	0	0	8302	622051	0	0
2024-05-14 14:34:32			0	36829	0	0	0	18968	17580	138174	27403	970919	39262	106918	0	0	8302	622179	0	0
2024-05-14 14:35:32			0	36842	0	0	0	18968	17580	138306	27170	970927	39284	106918	0	0	8302	621623	0	0
2024-05-14 14:36:32			0	36830	0	0	0	18974	17580	138282	27331	970813	39262	106920	0	0	8302	622137	0	0
2024-05-14 14:37:32			0	36824	0	0	0	18968	17590	138266	27459	970909	39263	106918	0	0	8301	622360	0	0
2024-05-14 14:38:32			0	36829	0	0	0	18971	17590	138270	27497	970909	39274	106919	0	0	8302	622146	0	0
2024-05-14 14:39:32			0	36808	0	0	0	18974	17590	138282	27469	970882	39285	106920	0	0	8301	623045	0	0
2024-05-14 14:40:32			0	36843	0	0	0	18971	17590	138346	27078	970891	39275	106919	0	0	8302	621546	0	0
2024-05-14 14:41:32			0	36816	0	0	0	18976	17590	138114	27260	970830	39252	106921	0	0	8301	622702	0	0
2024-05-14 14:42:32			0	36830	0	0	0	18958	17590	138234	27414	970891	39264	106914	0	0	8302	622103	0	0
2024-05-14 14:43:32			0	36826	0	0	0	18963	17600	138310	27620	970872	39264	106916	0	0	8302	622240	0	0
2024-05-14 14:44:32			0	36817	0	0	0	18971	17590	138362	27618	970856	39274	106919	0	0	8301	622660	0	0
2024-05-14 14:45:32			0	36817	0	0	0	18974	17600	138382	27435	970925	39264	106920	0	0	8301	622626	0	0
2024-05-14 14:46:32			0	36823	0	0	0	18971	17600	138306	27428	970925	39264	106919	0	0	8301	622369	0	0
2024-05-14 14:47:32			0	36827	0	0	0	18974	17590	138194	27308	970891	39264	106920	0	0	8302	622231	0	0
2024-05-14 14:48:32			0	36812	0	0	0	18966	17600	138234	27227	970872	39253	106917	0	0	8301	622840	0	0
2024-05-14 14:49:32			0	36806	0	0	0	18955	17600	138302	27305	970846	39275	106913	0	0	8301	623097	0	0
2024-05-14 14:50:32			0	36821	0	0	0	18950	17590	138298	27171	970838	39275	106911	0	0	8302	622488	0	0
2024-05-14 14:51:32			0	36810	0	0	0	18955	17580	138210	27234	970795	39262	106913	0	0	8301	622993	0	0
2024-05-14 14:52:32			0	36830	0	0	0	18940	17570	138246	27597	970805	39284	106907	0	0	8302	622170	0	0
2024-05-14 14:53:32			0	36811	0	0	0	18948	17580	138302	27213	970787	39262	106910	0	0	8301	622951	0	0
2024-05-14 14:54:32			0	36814	0	0	0	18940	17570	138202	27398	970752	39273	106907	0	0	8301	622856	0	0
2024-05-14 14:55:32			0	36822	0	0	0	18945	17570	138146	27706	970744	39261	106909	0	0	8302	622513	0	0
2024-05-14 14:56:32			0	36818	0	0	0	18942	17580	138282	27533	970848	39262	106908	0	0	8302	622651	0	0
2024-05-14 14:57:32			0	36825	0	0	0	18940	17580	138246	27251	970848	39262	106907	0	0	8302	622351	0	0
2024-05-14 14:58:32			0	36818	0	0	0	18940	17580	138262	27547	970848	39273	106907	0	0	8302	622651	0	0
2024-05-14 14:59:32			0	36826	0	0	0	18935	17570	138206	27557	970849	39261	106905	0	0	8302	622342	0	0
2024-05-14 15:00:32			0	36840	0	0	0	18935	17570	138262	27130	970778	39273	106905	0	0	8303	621742	0	0
2024-05-14 15:01:32			0	36831	0	0	0	18940	17570	138190	27443	970770	39261	106907	0	0	8302	622128	0	0
2024-05-14 15:02:32			0	36836	0	0	0	18932	17570	138250	27594	970752	39262	106904	0	0	8303	621913	0	0
2024-05-14 15:03:32			0	36831	0	0	0	18929	17570	138122	27346	970744	39272	106903	0	0	8302	622128	0	0
2024-05-14 15:04:32			0	36812	0	0	0	18932	17570	138230	27435	970752	39262	106904	0	0	8301	622942	0	0
2024-05-14 15:05:32			0	36836	0	0	0	18932	17560	138206	27609	970735	39271	106904	0	0	8303	621947	0	0
2024-05-14 15:06:32			0	36826	0	0	0	18940	17570	138214	27573	970805	39262	106907	0	0	8302	622342	0	0
2024-05-14 15:07:32			0	36826	0	0	0	18924	17560	138146	27403	970815	39260	106901	0	0	8302	622376	0	0
2024-05-14 15:08:32			0	36833	0	0	0	18929	17570	138166	27481	970778	39273	106903	0	0	8303	622042	0	0
2024-05-14 15:09:32			0	36855	0	0	0	18932	17570	138206	27059	970823	39261	106904	0	0	8304	621100	0	0
2024-05-14 15:10:32			0	36839	0	0	0	18927	17580	138162	27336	970760	39262	106902	0	0	8303	621751	0	0
2024-05-14 15:11:32			0	36843	0	0	0	18924	17570	138138	27322	970770	39261	106901	0	0	8303	621614	0	0
2024-05-14 15:12:32			0	36836	0	0	0	18919	17570	138154	27372	970797	39261	106899	0	0	8303	621913	0	0
2024-05-14 15:13:32			0	36838	0	0	0	18929	17570	138134	27334	970770	39250	106903	0	0	8303	621828	0	0
2024-05-14 15:14:32			0	36865	0	0	0	18919	17570	138134	27459	970805	39262	106899	0	0	8304	620672	0	0
2024-05-14 15:15:32			0	36859	0	0	0	18927	17570	138074	27646	970778	39262	106902	0	0	8304	620929	0	0
2024-05-14 15:16:32			0	36857	0	0	0	18922	17570	138078	27280	970752	39262	106900	0	0	8304	621015	0	0
2024-05-14 15:17:32			0	36865	0	0	0	18924	17570	138098	27524	970770	39250	106901	0	0	8304	620672	0	0
2024-05-14 15:18:32			0	36847	0	0	0	18922	17560	138110	27315	970762	39260	106900	0	0	8303	621476	0	0
2024-05-14 15:19:32			0	36849	0	0	0	18927	17570	138146	27460	970744	39250	106902	0	0	8303	621357	0	0
2024-05-14 15:20:32			0	36855	0	0	0	18927	17580	138094	27543	970813	39251	106902	0	0	8304	621066	0	0
2024-05-14 15:21:32			0	36882	0	0	0	18929	17570	138034	27559	970831	39262	106903	0	0	8305	619946	0	0
2024-05-14 15:22:32			0	36871	0	0	0	18932	17570	137994	27319	970823	39261	106904	0	0	8305	620416	0	0
2024-05-14 15:23:32			0	36857	0	0	0	18924	17590	138138	27668	970856	39263	106901	0	0	8304	620947	0	0
2024-05-14 15:24:32			0	36863	0	0	0	18929	17570	138054	27227	970823	39250	106903	0	0	8304	620758	0	0
2024-05-14 15:25:32			0	36870	0	0	0	18927	17580	138082	27083	970813	39251	106902	0	0	8305	620425	0	0
2024-05-14 15:26:32			0	36883	0	0	0	18927	17580	138062	27348	970839	39251	106902	0	0	8305	619869	0	0
2024-05-14 15:27:32			0	36869	0	0	0	18924	17570	137986	27194	970884	39262	106901	0	0	8305	620501	0	0
2024-05-14 15:28:32			0	36875	0	0	0	18932	17580	137990	27376	970813	39262	106904	0	0	8305	620211	0	0
2024-05-14 15:29:32			0	36880	0	0	0	18929	17580	138098	27182	970821	39262	106903	0	0	8305	619997	0	0
2024-05-14 15:30:32			0	36880	0	0	0	18935	17570	138090	27097	970831	39251	106905	0	0	8305	620031	0	0
2024-05-14 15:31:32			0	36895	0	0	0	18940	17580	137958	27410	970892	39251	106907	0	0	8306	619357	0	0
2024-05-14 15:32:32			0	36886	0	0	0	18937	17580	137978	27313	970848	39262	106906	0	0	8305	619741	0	0
2024-05-14 15:33:32			0	36879	0	0	0	18950	17580	138074	27666	970953	39262	106911	0	0	8305	620040	0	0
2024-05-14 15:34:32			0	36895	0	0	0	18961	17590	138010	27362	970909	39252	106915	0	0	8305	619323	0	0
2024-05-14 15:35:32			0	36907	0	0	0	18966	17590	137938	27455	970935	39252	106917	0	0	8306	618811	0	0
2024-05-14 15:36:32			0	36909	0	0	0	18979	17610	138034	27575	970995	39265	106922	0	0	8306	618658	0	0
2024-05-14 15:37:32			0	36885	0	0	0	18994	17610	137918	27228	971074	39265	106928	0	0	8304	619683	0	0
2024-05-14 15:38:32			0	36885	0	0	0	19002	17610	137878	27197	970995	39265	106931	0	0	8304	619683	0	0
2024-05-14 15:39:32			0	36897	0	0	0	19005	17610	137910	27346	971003	39265	106932	0	0	8305	619170	0	0
2024-05-14 15:40:32			0	36910	0	0	0	19015	17630	138018	27234	971099	39266	106936	0	0	8305	618548	0	0
2024-05-14 15:41:32			0	36888	0	0	0	19005	17630	137950	27346	971099	39255	106932	0	0	8304	619487	0	0
2024-05-14 15:42:32			0	36893	0	0	0	19005	17640	137966	27459	971089	39267	106932	0	0	8305	619240	0	0
2024-05-14 15:43:32			0	36904	0	0	0	19007	17640	137986	27395	971124	39268	106933	0	0	8305	618770	0	0
2024-05-14 15:44:32			0	36906	0	0	0	19018	17640	137846	27249	971124	39279	106937	0	0	8305	618685	0	0
2024-05-14 15:45:32			0	36909	0	0	0	19015	17650	137894	27341	971158	39257	106936	0	0	8305	618523	0	0
2024-05-14 15:46:32			0	36933	0	0	0	19020	17650	137826	27448	971185	39268	106938	0	0	8307	617500	0	0
2024-05-14 15:47:32			0	36916	0	0	0	19023	17650	137882	27376	971114	39268	106939	0	0	8306	618225	0	0
2024-05-14 15:48:32			0	36915	0	0	0	19015	17660	137922	27027	971096	39269	106936	0	0	8306	618234	0	0
2024-05-14 15:49:32			0	36918	0	0	0	19012	17650	137862	27448	971026	39257	106935	0	0	8306	618140	0	0
2024-05-14 15:50:32			0	36905	0	0	0	18987	17650	137882	27234	971061	39257	106925	0	0	8306	618694	0	0
2024-05-14 15:51:32			0	36923	0	0	0	18987	17630	137886	27568	971002	39255	106925	0	0	8307	617994	0	0
2024-05-14 15:52:32			0	36941	0	0	0	18979	17630	137874	27310	970967	39255	106922	0	0	8308	617227	0	0
2024-05-14 15:53:32			0	36933	0	0	0	18989	17610	137762	27410	971030	39254	106926	0	0	8307	617635	0	0
2024-05-14 15:54:32			0	36922	0	0	0	18981	17620	137890	27147	970959	39265	106923	0	0	8307	618070	0	0
2024-05-14 15:55:32			0	36933	0	0	0	18999	17630	137866	27407	970940	39255	106930	0	0	8307	617568	0	0
2024-05-14 15:56:32			0	36946	0	0	0	18992	17610	137886	27274	970942	39253	106927	0	0	8308	617081	0	0
2024-05-14 15:57:32			0	36930	0	0	0	18992	17620	137838	27450	971011	39254	106927	0	0	8307	617729	0	0
2024-05-14 15:58:32			0	36912	0	0	0	19002	17620	137830	27502	970985	39265	106931	0	0	8306	618497	0	0
2024-05-14 15:59:32			0	36944	0	0	0	18997	17630	137806	27422	970967	39255	106929	0	0	8308	617099	0	0
2024-05-14 16:00:32			0	36944	0	0	0	18994	17620	137834	27460	971038	39265	106928	0	0	8308	617132	0	0
2024-05-14 16:01:32			0	36946	0	0	0	18989	17620	137746	27046	970906	39277	106926	0	0	8308	617047	0	0
2024-05-14 16:02:32			0	36945	0	0	0	18999	17610	137798	27578	970924	39265	106930	0	0	8307	617124	0	0
2024-05-14 16:03:32			0	36943	0	0	0	18997	17610	137818	27550	970915	39253	106929	0	0	8307	617209	0	0
2024-05-14 16:04:32			0	36933	0	0	0	18994	17620	137774	27118	970985	39277	106928	0	0	8307	617601	0	0
2024-05-14 16:05:32			0	36952	0	0	0	18999	17620	137826	27274	970985	39288	106930	0	0	8308	616792	0	0
2024-05-14 16:06:32			0	36954	0	0	0	19002	17610	137818	27360	971003	39288	106931	0	0	8308	616740	0	0
2024-05-14 16:07:32			0	36948	0	0	0	19002	17610	137798	27199	971003	39265	106931	0	0	8308	616996	0	0
2024-05-14 16:08:32			0	36941	0	0	0	19007	17610	137770	27327	971021	39265	106933	0	0	8307	617294	0	0
2024-05-14 16:09:32			0	36934	0	0	0	19015	17630	137742	27227	971046	39266	106936	0	0	8307	617525	0	0
2024-05-14 16:10:32			0	36962	0	0	0	19028	17630	137842	27234	971134	39289	106941	0	0	8308	616332	0	0
2024-05-14 16:11:32			0	36958	0	0	0	19059	17640	137758	27306	971221	39290	106953	0	0	8307	616469	0	0
2024-05-14 16:12:32			0	36961	0	0	0	19080	17650	137754	27164	971246	39290	106961	0	0	8307	616308	0	0
2024-05-14 16:13:32			0	36945	0	0	0	19096	17660	137766	27313	971289	39302	106967	0	0	8306	616956	0	0
2024-05-14 16:14:32			0	36967	0	0	0	19103	17670	137746	27119	971297	39302	106970	0	0	8307	615986	0	0
2024-05-14 16:15:32			0	36951	0	0	0	19135	17680	137734	27168	971472	39303	106982	0	0	8306	616633	0	0
2024-05-14 16:16:32			0	36979	0	0	0	19186	17720	137790	27213	971724	39318	107002	0	0	8307	615308	0	0
2024-05-14 16:17:32			0	36958	0	0	0	19283	17750	137726	27488	971932	39343	107039	0	0	8304	616100	0	0
2024-05-14 16:18:32			0	36956	0	0	0	19361	17790	137662	27464	972104	39335	107069	0	0	8303	616051	0	0
2024-05-14 16:19:32			0	36945	0	0	0	19402	17810	137674	27770	972251	39337	107085	0	0	8302	616452	0	0
2024-05-14 16:20:32			0	36966	0	0	0	19446	17850	137618	27137	972388	39319	107102	0	0	8302	615425	0	0
2024-05-14 16:21:32			0	36989	0	0	0	19472	17890	137666	27460	972507	39344	107112	0	0	8303	614314	0	0
2024-05-14 16:22:32			0	36974	0	0	0	19511	17930	137574	27355	972671	39358	107127	0	0	8302	614817	0	0
2024-05-14 16:23:32			0	36986	0	0	0	19522	17950	137594	27708	972792	39361	107131	0	0	8302	614240	0	0
2024-05-14 16:24:32			0	36992	0	0	0	19545	17980	137514	27391	972868	39352	107140	0	0	8302	613885	0	0
2024-05-14 16:25:32			0	36996	0	0	0	19563	18000	137470	27384	972980	39355	107147	0	0	8302	613649	0	0
2024-05-14 16:26:32			0	37011	0	0	0	19579	18030	137442	26974	973136	39368	107153	0	0	8303	612912	0	0
2024-05-14 16:27:32			0	37020	0	0	0	19594	18060	137386	27331	973177	39370	107159	0	0	8303	612431	0	0
2024-05-14 16:28:32			0	37029	0	0	0	19612	18080	137318	27718	973245	39362	107166	0	0	8304	611983	0	0
2024-05-14 16:29:32			0	37041	0	0	0	19631	18100	137282	27409	973296	39374	107173	0	0	8304	611409	0	0
2024-05-14 16:30:32			0	37036	0	0	0	19646	18120	137250	27542	973382	39364	107179	0	0	8304	611554	0	0
2024-05-14 16:31:32			0	37064	0	0	0	19644	18140	137170	27450	973503	39367	107178	0	0	8305	610303	0	0
2024-05-14 16:32:32			0	37050	0	0	0	19651	18150	137150	27343	973432	39357	107181	0	0	8304	610862	0	0
2024-05-14 16:33:32			0	37080	0	0	0	19662	18170	136942	27230	973606	39359	107185	0	0	8306	609528	0	0
2024-05-14 16:34:32			0	37090	0	0	0	19667	18190	137018	27286	973639	39382	107187	0	0	8306	609040	0	0
2024-05-14 16:35:32			0	37084	0	0	0	19667	18200	136966	27336	973621	39361	107187	0	0	8306	609259	0	0
2024-05-14 16:36:32			0	37071	0	0	0	19670	18230	136878	27235	973715	39363	107188	0	0	8305	609708	0	0
2024-05-14 16:37:32			0	37084	0	0	0	19680	18220	136870	27209	973707	39375	107192	0	0	8306	609193	0	0
2024-05-14 16:38:32			0	37100	0	0	0	19680	18230	136902	27424	973671	39375	107192	0	0	8307	608485	0	0
2024-05-14 16:39:32			0	37118	0	0	0	19680	18240	136830	27310	973766	39365	107192	0	0	8308	607693	0	0
2024-05-14 16:40:32			0	37081	0	0	0	19683	18260	136778	27237	973738	39366	107193	0	0	8306	609186	0	0
2024-05-14 16:41:32			0	37119	0	0	0	19688	18260	136774	27412	973791	39376	107195	0	0	8308	607585	0	0
2024-05-14 16:42:32			0	37104	0	0	0	19688	18270	136734	27381	973887	39367	107195	0	0	8307	608183	0	0
2024-05-14 16:43:32			0	37103	0	0	0	19693	18270	136726	27457	973869	39378	107197	0	0	8307	608226	0	0
2024-05-14 16:44:32			0	37112	0	0	0	19698	18280	136734	27746	973912	39369	107199	0	0	8307	607813	0	0
2024-05-14 16:45:32			0	37136	0	0	0	19703	18290	136674	27445	973929	39380	107201	0	0	8309	606770	0	0
2024-05-14 16:46:32			0	37133	0	0	0	19703	18300	136638	27438	973963	39370	107201	0	0	8308	606863	0	0
2024-05-14 16:47:32			0	37134	0	0	0	19709	18300	136582	27268	973945	39370	107203	0	0	8308	606821	0	0
2024-05-14 16:48:32			0	37129	0	0	0	19709	18310	136590	27147	974033	39381	107203	0	0	8308	606998	0	0
2024-05-14 16:49:32			0	37145	0	0	0	19716	18310	136662	27402	974041	39371	107206	0	0	8309	606325	0	0
2024-05-14 16:50:32			0	37131	0	0	0	19719	18320	136558	27530	974023	39371	107207	0	0	8308	606881	0	0
2024-05-14 16:51:32			0	37127	0	0	0	19724	18320	136566	27473	974084	39393	107209	0	0	8308	607049	0	0
2024-05-14 16:52:32			0	37161	0	0	0	19727	18320	136578	27270	974058	39393	107210	0	0	8310	605620	0	0
2024-05-14 16:53:32			0	37158	0	0	0	19722	18330	136530	27410	974048	39383	107208	0	0	8310	605713	0	0
2024-05-14 16:54:32			0	37169	0	0	0	19722	18340	136570	27346	974056	39384	107208	0	0	8310	605218	0	0
2024-05-14 16:55:32			0	37160	0	0	0	19724	18330	136490	27308	974074	39373	107209	0	0	8310	605629	0	0
2024-05-14 16:56:32			0	37170	0	0	0	19727	18340	136530	27467	974038	39374	107210	0	0	8310	605176	0	0
2024-05-14 16:57:32			0	37166	0	0	0	19724	18340	136422	27291	974117	39384	107209	0	0	8310	605344	0	0
2024-05-14 16:58:32			0	37168	0	0	0	19729	18340	136450	27421	974091	39374	107211	0	0	8310	605260	0	0
2024-05-14 16:59:32			0	37167	0	0	0	19727	18350	136450	27571	974072	39385	107210	0	0	8310	605269	0	0
2024-05-14 17:00:32			0	37184	0	0	0	19714	18340	136398	27180	974029	39374	107205	0	0	8311	604588	0	0
2024-05-14 17:01:32			0	37176	0	0	0	19735	18340	136458	27524	974011	39384	107213	0	0	8310	604924	0	0
2024-05-14 17:02:32			0	37170	0	0	0	19729	18350	136490	27274	974099	39385	107211	0	0	8310	605143	0	0
2024-05-14 17:03:32			0	37188	0	0	0	19750	18360	136430	27696	974177	39386	107219	0	0	8311	604354	0	0
2024-05-14 17:04:32			0	37187	0	0	0	19750	18360	136410	27336	974222	39386	107219	0	0	8311	604396	0	0
2024-05-14 17:05:32			0	37178	0	0	0	19766	18360	136410	27246	974248	39375	107225	0	0	8310	604774	0	0
2024-05-14 17:06:32			0	37169	0	0	0	19768	18370	136510	27284	974265	39387	107226	0	0	8310	605118	0	0
2024-05-14 17:07:32			0	37210	0	0	0	19776	18380	136410	27398	974228	39388	107229	0	0	8312	603366	0	0
2024-05-14 17:08:32			0	37184	0	0	0	19789	18380	136426	27135	974316	39376	107234	0	0	8310	604456	0	0
2024-05-14 17:09:32			0	37154	0	0	0	19779	18390	136322	27535	974359	39377	107230	0	0	8309	605682	0	0
2024-05-14 17:10:32			0	37180	0	0	0	19797	18400	136434	27512	974341	39389	107237	0	0	8310	604558	0	0
2024-05-14 17:11:32			0	37198	0	0	0	19799	18400	136374	27220	974314	39389	107238	0	0	8311	603803	0	0
2024-05-14 17:12:32			0	37179	0	0	0	19802	18400	136414	27268	974420	39378	107239	0	0	8310	604600	0	0
2024-05-14 17:13:32			0	37193	0	0	0	19802	18400	136394	27351	974428	39401	107239	0	0	8310	604012	0	0
2024-05-14 17:14:32			0	37176	0	0	0	19812	18410	136358	27419	974445	39380	107243	0	0	8309	604692	0	0
2024-05-14 17:15:32			0	37182	0	0	0	19810	18410	136382	27428	974366	39402	107242	0	0	8310	604441	0	0
2024-05-14 17:16:32			0	37192	0	0	0	19815	18410	136478	27640	974471	39391	107244	0	0	8310	604021	0	0
2024-05-14 17:17:32			0	37171	0	0	0	19812	18410	136394	27495	974410	39379	107243	0	0	8309	604902	0	0
2024-05-14 17:18:32			0	37209	0	0	0	19812	18420	136350	27187	974427	39391	107243	0	0	8311	603276	0	0
2024-05-14 17:19:32			0	37194	0	0	0	19815	18420	136306	27201	974409	39392	107244	0	0	8310	603904	0	0
2024-05-14 17:20:32			0	37197	0	0	0	19825	18430	136290	27412	974470	39392	107248	0	0	8310	603746	0	0
2024-05-14 17:21:32			0	37205	0	0	0	19820	18430	136330	27346	974496	39392	107246	0	0	8311	603410	0	0
2024-05-14 17:22:32			0	37184	0	0	0	19831	18430	136318	27419	974505	39404	107250	0	0	8310	604291	0	0
2024-05-14 17:23:32			0	37198	0	0	0	19841	18430	136278	27400	974505	39393	107254	0	0	8310	603704	0	0
2024-05-14 17:24:32			0	37197	0	0	0	19844	18440	136362	27512	974627	39405	107255	0	0	8310	603713	0	0
2024-05-14 17:25:32			0	37223	0	0	0	19851	18450	136330	27274	974643	39373	107258	0	0	8311	602591	0	0
2024-05-14 17:26:32			0	37190	0	0	0	19857	18450	136338	27544	974591	39406	107260	0	0	8309	603973	0	0
2024-05-14 17:27:32			0	37219	0	0	0	19854	18450	136270	27268	974635	39394	107259	0	0	8311	602758	0	0
2024-05-14 17:28:32			0	37193	0	0	0	19867	18470	136234	27265	974642	39396	107264	0	0	8310	603781	0	0
2024-05-14 17:29:32			0	37192	0	0	0	19864	18470	136222	27684	974695	39385	107263	0	0	8310	603823	0	0
2024-05-14 17:30:32			0	37200	0	0	0	19872	18480	136274	27280	974641	39397	107266	0	0	8310	603455	0	0
2024-05-14 17:31:32			0	37223	0	0	0	19872	18470	136262	27390	974730	39396	107266	0	0	8311	602525	0	0
2024-05-14 17:32:32			0	37209	0	0	0	19885	18470	136222	27559	974756	39396	107271	0	0	8310	603111	0	0
2024-05-14 17:33:32			0	37198	0	0	0	19872	18480	136270	27251	974746	39397	107266	0	0	8310	603539	0	0
2024-05-14 17:34:32			0	37229	0	0	0	19880	18480	136322	27308	974746	39418	107269	0	0	8311	602241	0	0
2024-05-14 17:35:32			0	37236	0	0	0	19893	18490	136210	27521	974789	39409	107274	0	0	8311	601915	0	0
2024-05-14 17:36:32			0	37218	0	0	0	19890	18480	136186	27549	974746	39408	107273	0	0	8311	602701	0	0
2024-05-14 17:37:32			0	37214	0	0	0	19890	18480	136254	27296	974746	39408	107273	0	0	8310	602869	0	0
2024-05-14 17:38:32			0	37213	0	0	0	19890	18490	136302	27711	974728	39409	107273	0	0	8310	602877	0	0
2024-05-14 17:39:32			0	37216	0	0	0	19896	18500	136238	27689	974798	39410	107275	0	0	8310	602719	0	0
2024-05-14 17:40:32			0	37218	0	0	0	19898	18500	136198	27461	974771	39399	107276	0	0	8310	602635	0	0
2024-05-14 17:41:32			0	37209	0	0	0	19893	18500	136194	27575	974771	39399	107274	0	0	8310	603012	0	0
2024-05-14 17:42:32			0	37238	0	0	0	19903	18510	136146	27189	974788	39411	107278	0	0	8311	601766	0	0
2024-05-14 17:43:32			0	37206	0	0	0	19898	18520	136230	27594	974796	39400	107276	0	0	8310	603072	0	0
2024-05-14 17:44:32			0	37205	0	0	0	19909	18510	136186	27289	974814	39411	107280	0	0	8310	603147	0	0
2024-05-14 17:45:32			0	37220	0	0	0	19906	18530	136238	27571	974892	39400	107279	0	0	8311	602453	0	0
2024-05-14 17:46:32			0	37236	0	0	0	19911	18520	136190	27562	974823	39389	107281	0	0	8311	601816	0	0
2024-05-14 17:47:32			0	37240	0	0	0	19906	18530	136186	27635	974847	39401	107279	0	0	8312	601616	0	0
2024-05-14 17:48:32			0	37213	0	0	0	19914	18530	136130	27431	974919	39412	107282	0	0	8310	602746	0	0
2024-05-14 17:49:32			0	37224	0	0	0	19932	18540	136114	27334	974962	39413	107289	0	0	8310	602252	0	0
2024-05-14 17:50:32			0	37236	0	0	0	19942	18540	136194	27286	974970	39402	107293	0	0	8311	601751	0	0
2024-05-14 17:51:32			0	37215	0	0	0	19937	18540	136050	27488	974970	39413	107291	0	0	8310	602629	0	0
2024-05-14 17:52:32			0	37230	0	0	0	19955	18560	136042	27326	975021	39415	107298	0	0	8310	601936	0	0
2024-05-14 17:53:32			0	37243	0	0	0	19968	18570	136150	27400	975144	39415	107303	0	0	8311	601359	0	0
2024-05-14 17:54:32			0	37217	0	0	0	19968	18570	136130	27391	975091	39415	107303	0	0	8310	602446	0	0
2024-05-14 17:55:32			0	37221	0	0	0	19974	18580	136058	27263	975107	39406	107305	0	0	8310	602246	0	0
2024-05-14 17:56:32			0	37253	0	0	0	19981	18590	136026	27220	975132	39417	107308	0	0	8311	600876	0	0
2024-05-14 17:57:32			0	37241	0	0	0	19968	18580	136018	27351	975160	39395	107303	0	0	8311	601410	0	0
2024-05-14 17:58:32			0	37241	0	0	0	19966	18580	136010	27235	975063	39417	107302	0	0	8311	601410	0	0
2024-05-14 17:59:32			0	37221	0	0	0	19976	18580	136026	27351	975134	39406	107306	0	0	8310	602246	0	0
2024-05-14 18:00:32			0	37250	0	0	0	19981	18590	136134	27365	975185	39417	107308	0	0	8311	601001	0	0
2024-05-14 18:01:32			0	37244	0	0	0	19992	18600	136082	27549	975193	39418	107312	0	0	8311	601219	0	0
2024-05-14 18:02:32			0	37240	0	0	0	20002	18590	136066	27632	975291	39417	107316	0	0	8310	601419	0	0
2024-05-14 18:03:32			0	37238	0	0	0	20018	18600	136026	27272	975307	39430	107322	0	0	8310	601469	0	0
2024-05-14 18:04:32			0	37253	0	0	0	20028	18600	136086	27334	975281	39418	107326	0	0	8311	600843	0	0
2024-05-14 18:05:32			0	37246	0	0	0	20031	18620	136150	27182	975341	39420	107327	0	0	8310	601069	0	0
2024-05-14 18:06:32			0	37234	0	0	0	20041	18620	136126	27220	975288	39420	107331	0	0	8309	601571	0	0
2024-05-14 18:07:32			0	37251	0	0	0	20038	18620	136030	27419	975306	39431	107330	0	0	8310	600861	0	0
2024-05-14 18:08:32			0	37244	0	0	0	20036	18610	136070	27280	975351	39418	107329	0	0	8310	601186	0	0
2024-05-14 18:09:32			0	37245	0	0	0	20041	18620	136094	27403	975333	39409	107331	0	0	8310	601111	0	0
2024-05-14 18:10:32			0	37239	0	0	0	20049	18640	136186	27324	975392	39432	107334	0	0	8310	601296	0	0
2024-05-14 18:11:32			0	37243	0	0	0	20046	18640	136106	27381	975392	39421	107333	0	0	8310	601129	0	0
2024-05-14 18:12:32			0	37233	0	0	0	20044	18640	136114	27568	975419	39421	107332	0	0	8309	601547	0	0
2024-05-14 18:13:32			0	37243	0	0	0	20044	18640	136146	27263	975454	39433	107332	0	0	8310	601129	0	0
2024-05-14 18:14:32			0	37245	0	0	0	20038	18650	136002	27639	975356	39413	107330	0	0	8310	601012	0	0
2024-05-14 18:15:32			0	37263	0	0	0	20051	18630	136038	27395	975384	39420	107335	0	0	8311	600327	0	0
2024-05-14 18:16:32			0	37272	0	0	0	20046	18640	136074	27372	975401	39422	107333	0	0	8311	599918	0	0
2024-05-14 18:17:32			0	37262	0	0	0	20051	18650	136034	27455	975436	39434	107335	0	0	8311	600303	0	0
2024-05-14 18:18:32			0	37261	0	0	0	20051	18640	136066	27182	975419	39432	107335	0	0	8311	600377	0	0
2024-05-14 18:19:32			0	37261	0	0	0	20054	18650	136062	27199	975444	39434	107336	0	0	8311	600344	0	0
2024-05-14 18:20:32			0	37269	0	0	0	20062	18650	136046	27571	975470	39423	107339	0	0	8311	600010	0	0
2024-05-14 18:21:32			0	37249	0	0	0	20057	18650	136030	27261	975470	39434	107337	0	0	8310	600845	0	0
2024-05-14 18:22:32			0	37277	0	0	0	20062	18650	136034	27275	975523	39434	107339	0	0	8311	599677	0	0
2024-05-14 18:23:32			0	37278	0	0	0	20062	18650	136006	27277	975470	39445	107339	0	0	8311	599635	0	0
2024-05-14 18:24:32			0	37283	0	0	0	20059	18660	135930	27182	975487	39424	107338	0	0	8312	599394	0	0
2024-05-14 18:25:32			0	37280	0	0	0	20072	18660	135990	27400	975513	39424	107343	0	0	8311	599519	0	0
2024-05-14 18:26:32			0	37275	0	0	0	20062	18670	135926	27248	975495	39458	107339	0	0	8311	599694	0	0
2024-05-14 18:27:32			0	37279	0	0	0	20067	18670	136010	27554	975522	39436	107341	0	0	8312	599528	0	0
2024-05-14 18:28:32			0	37284	0	0	0	20075	18670	136042	27246	975556	39436	107344	0	0	8312	599319	0	0
2024-05-14 18:29:32			0	37285	0	0	0	20077	18660	135914	27298	975566	39424	107345	0	0	8312	599310	0	0
2024-05-14 18:30:32			0	37278	0	0	0	20083	18670	135962	27665	975556	39425	107347	0	0	8311	599569	0	0
2024-05-14 18:31:32			0	37299	0	0	0	20085	18680	135922	27329	975573	39448	107348	0	0	8312	598661	0	0
2024-05-14 18:32:32			0	37276	0	0	0	20080	18680	135926	27206	975618	39436	107346	0	0	8311	599620	0	0
2024-05-14 18:33:32			0	37288	0	0	0	20077	18680	135918	27133	975591	39447	107345	0	0	8312	599120	0	0
2024-05-14 18:34:32			0	37299	0	0	0	20096	18680	135850	27376	975599	39437	107352	0	0	8312	598661	0	0
2024-05-14 18:35:32			0	37306	0	0	0	20085	18680	135954	27319	975591	39436	107348	0	0	8313	598370	0	0
2024-05-14 18:36:32			0	37321	0	0	0	20085	18680	135934	27232	975591	39436	107348	0	0	8313	597745	0	0
2024-05-14 18:37:32			0	37310	0	0	0	20088	18680	135906	27215	975546	39448	107349	0	0	8313	598203	0	0
2024-05-14 18:38:32			0	37303	0	0	0	20088	18680	135798	27282	975573	39437	107349	0	0	8312	598495	0	0
2024-05-14 18:39:32			0	37324	0	0	0	20077	18680	135859	27097	975652	39425	107345	0	0	8314	597620	0	0
2024-05-14 18:40:32			0	37311	0	0	0	20088	18680	135838	27331	975599	39448	107349	0	0	8313	598161	0	0
2024-05-14 18:41:32			0	37320	0	0	0	20088	18690	135755	27490	975555	39438	107349	0	0	8313	597754	0	0
2024-05-14 18:42:32			0	37340	0	0	0	20085	18680	135803	27549	975573	39448	107348	0	0	8314	596955	0	0
2024-05-14 18:43:32			0	37331	0	0	0	20088	18690	135811	27326	975608	39416	107349	0	0	8314	597296	0	0
2024-05-14 18:44:32			0	37323	0	0	0	20090	18700	135815	27670	975571	39449	107350	0	0	8314	597597	0	0
2024-05-14 18:45:32			0	37336	0	0	0	20080	18690	135755	27156	975581	39426	107346	0	0	8314	597088	0	0
2024-05-14 18:46:32			0	37332	0	0	0	20093	18690	135759	27296	975555	39449	107351	0	0	8314	597255	0	0
2024-05-14 18:47:32			0	37334	0	0	0	20098	18690	135755	27433	975608	39438	107353	0	0	8314	597172	0	0
2024-05-14 18:48:32			0	37350	0	0	0	20090	18690	135823	27320	975581	39449	107350	0	0	8315	596506	0	0
2024-05-14 18:49:32			0	37357	0	0	0	20090	18690	135691	27223	975642	39449	107350	0	0	8315	596216	0	0
2024-05-14 18:50:32			0	37354	0	0	0	20093	18690	135751	27147	975616	39438	107351	0	0	8315	596340	0	0
2024-05-14 18:51:32			0	37345	0	0	0	20098	18700	135731	27055	975704	39438	107353	0	0	8315	596682	0	0
2024-05-14 18:52:32			0	37357	0	0	0	20098	18700	135675	27395	975685	39450	107353	0	0	8315	596183	0	0
2024-05-14 18:53:32			0	37346	0	0	0	20103	18700	135711	26915	975730	39426	107355	0	0	8315	596640	0	0
2024-05-14 18:54:32			0	37357	0	0	0	20098	18690	135695	27156	975695	39449	107353	0	0	8315	596216	0	0
2024-05-14 18:55:32			0	37358	0	0	0	20103	18700	135751	27112	975651	39449	107355	0	0	8315	596141	0	0
2024-05-14 18:56:32			0	37369	0	0	0	20098	18700	135631	27424	975677	39449	107353	0	0	8316	595685	0	0
2024-05-14 18:57:32			0	37359	0	0	0	20096	18690	135651	27429	975616	39438	107352	0	0	8315	596132	0	0
2024-05-14 18:58:32			0	37368	0	0	0	20109	18690	135715	27183	975661	39438	107357	0	0	8316	595759	0	0
2024-05-14 18:59:32			0	37374	0	0	0	20103	18710	135707	27364	975641	39450	107355	0	0	8316	595444	0	0
2024-05-14 19:00:32			0	37381	0	0	0	20096	18700	135719	27223	975677	39438	107352	0	0	8317	595186	0	0
2024-05-14 19:01:32			0	37367	0	0	0	20103	18700	135563	27246	975712	39460	107355	0	0	8316	595767	0	0
2024-05-14 19:02:32			0	37374	0	0	0	20098	18700	135567	27244	975651	39438	107353	0	0	8316	595477	0	0
2024-05-14 19:03:32			0	37392	0	0	0	20101	18700	135603	27258	975651	39449	107354	0	0	8317	594730	0	0
2024-05-14 19:04:32			0	37374	0	0	0	20101	18700	135639	27416	975685	39438	107354	0	0	8316	595477	0	0
2024-05-14 19:05:32			0	37384	0	0	0	20103	18700	135583	27209	975712	39438	107355	0	0	8317	595062	0	0
2024-05-14 19:06:32			0	37390	0	0	0	20109	18700	135515	27163	975633	39450	107357	0	0	8317	594813	0	0
2024-05-14 19:07:32			0	37387	0	0	0	20093	18700	135527	27317	975712	39427	107351	0	0	8317	594937	0	0
2024-05-14 19:08:32			0	37399	0	0	0	20096	18700	135479	27203	975677	39438	107352	0	0	8317	594440	0	0
2024-05-14 19:09:32			0	37401	0	0	0	20098	18700	135555	27017	975624	39449	107353	0	0	8318	594357	0	0
2024-05-14 19:10:32			0	37403	0	0	0	20098	18700	135455	27717	975677	39426	107353	0	0	8318	594274	0	0
2024-05-14 19:11:32			0	37407	0	0	0	20088	18700	135539	27211	975651	39426	107349	0	0	8318	594108	0	0
2024-05-14 19:12:32			0	37411	0	0	0	20096	18690	135515	27282	975642	39438	107352	0	0	8318	593975	0	0
2024-05-14 19:13:32			0	37397	0	0	0	20083	18700	135479	27111	975624	39438	107347	0	0	8318	594523	0	0
2024-05-14 19:14:32			0	37406	0	0	0	20083	18700	135551	27227	975598	39438	107347	0	0	8318	594150	0	0
2024-05-14 19:15:32			0	37434	0	0	0	20070	18690	135423	27358	975563	39438	107342	0	0	8320	593022	0	0
2024-05-14 19:16:32			0	37407	0	0	0	20059	18690	135451	27041	975563	39426	107338	0	0	8318	594140	0	0
2024-05-14 19:17:32			0	37408	0	0	0	20054	18680	135543	27336	975459	39436	107336	0	0	8319	594132	0	0
2024-05-14 19:18:32			0	37426	0	0	0	20036	18670	135563	27329	975424	39436	107329	0	0	8320	593418	0	0
2024-05-14 19:19:32			0	37411	0	0	0	20025	18670	135463	27232	975398	39414	107325	0	0	8319	594040	0	0
2024-05-14 19:20:32			0	37429	0	0	0	20010	18660	135515	27161	975328	39424	107319	0	0	8320	593326	0	0
2024-05-14 19:21:32			0	37435	0	0	0	20007	18650	135523	27168	975417	39423	107318	0	0	8321	593110	0	0
2024-05-14 19:22:32			0	37437	0	0	0	19999	18640	135475	27417	975207	39421	107315	0	0	8321	593060	0	0
2024-05-14 19:23:32			0	37436	0	0	0	19992	18640	135451	27424	975260	39432	107312	0	0	8321	593101	0	0
2024-05-14 19:24:32			0	37447	0	0	0	19992	18630	135303	27338	975296	39420	107312	0	0	8321	592679	0	0
2024-05-14 19:25:32			0	37447	0	0	0	19976	18630	135371	27348	975252	39431	107306	0	0	8322	592679	0	0
2024-05-14 19:26:32			0	37454	0	0	0	19984	18620	135347	27331	975235	39420	107309	0	0	8322	592421	0	0
2024-05-14 19:27:32			0	37450	0	0	0	19974	18610	135363	27481	975192	39430	107305	0	0	8322	592619	0	0
2024-05-14 19:28:32			0	37456	0	0	0	19955	18610	135319	27419	975157	39430	107298	0	0	8323	592371	0	0
2024-05-14 19:29:32			0	37459	0	0	0	19955	18600	135391	27360	975114	39418	107298	0	0	8323	592279	0	0
2024-05-14 19:30:32			0	37453	0	0	0	19945	18600	135347	27095	975087	39418	107294	0	0	8322	592527	0	0
2024-05-14 19:31:32			0	37457	0	0	0	19945	18590	135311	27322	975106	39417	107294	0	0	8323	592394	0	0
2024-05-14 19:32:32			0	37473	0	0	0	19948	18590	135335	26899	975079	39428	107295	0	0	8323	591732	0	0
2024-05-14 19:33:32			0	37459	0	0	0	19948	18590	135359	27303	975177	39428	107295	0	0	8323	592312	0	0
2024-05-14 19:34:32			0	37469	0	0	0	19955	18590	135351	27173	975124	39439	107298	0	0	8323	591898	0	0
2024-05-14 19:35:32			0	37458	0	0	0	19953	18590	135339	27190	975124	39439	107297	0	0	8323	592353	0	0
2024-05-14 19:36:32			0	37488	0	0	0	19966	18600	135327	27492	975175	39418	107302	0	0	8324	591080	0	0
2024-05-14 19:37:32			0	37486	0	0	0	19971	18590	135267	27512	975264	39428	107304	0	0	8324	591195	0	0
2024-05-14 19:38:32			0	37472	0	0	0	19979	18600	135295	27621	975193	39429	107307	0	0	8323	591741	0	0
2024-05-14 19:39:32			0	37484	0	0	0	19992	18610	135251	27388	975157	39441	107312	0	0	8323	591213	0	0
2024-05-14 19:40:32			0	37484	0	0	0	19994	18610	135211	27222	975263	39441	107313	0	0	8323	591213	0	0
2024-05-14 19:41:32			0	37493	0	0	0	19997	18600	135263	27346	975202	39430	107314	0	0	8324	590873	0	0
2024-05-14 19:42:32			0	37477	0	0	0	19994	18600	135243	27388	975307	39430	107313	0	0	8323	591535	0	0
2024-05-14 19:43:32			0	37467	0	0	0	20002	18600	135287	27161	975334	39418	107316	0	0	8322	591948	0	0
2024-05-14 19:44:32			0	37489	0	0	0	19999	18610	135247	27395	975210	39418	107315	0	0	8323	591006	0	0
2024-05-14 19:45:32			0	37490	0	0	0	19999	18610	135219	27067	975210	39408	107315	0	0	8324	590965	0	0
2024-05-14 19:46:32			0	37488	0	0	0	19999	18600	135203	27479	975228	39430	107315	0	0	8323	591080	0	0
2024-05-14 19:47:32			0	37505	0	0	0	20007	18610	135235	27298	975316	39430	107318	0	0	8324	590345	0	0
2024-05-14 19:48:32			0	37495	0	0	0	20007	18610	135163	27095	975298	39452	107318	0	0	8324	590759	0	0
2024-05-14 19:49:32			0	37507	0	0	0	20007	18610	135203	27216	975290	39430	107318	0	0	8324	590263	0	0
2024-05-14 19:50:32			0	37506	0	0	0	20010	18610	135115	27199	975237	39441	107319	0	0	8324	590304	0	0
2024-05-14 19:51:32			0	37500	0	0	0	20007	18610	135183	27242	975218	39418	107318	0	0	8324	590552	0	0
2024-05-14 19:52:32			0	37518	0	0	0	20007	18600	135187	27209	975281	39430	107318	0	0	8325	589841	0	0
2024-05-14 19:53:32			0	37520	0	0	0	20002	18610	135175	27223	975271	39418	107316	0	0	8325	589726	0	0
2024-05-14 19:54:32			0	37487	0	0	0	20005	18610	135183	27352	975184	39441	107317	0	0	8323	591089	0	0
2024-05-14 19:55:32			0	37506	0	0	0	20002	18600	135175	27157	975273	39429	107316	0	0	8324	590336	0	0
2024-05-14 19:56:32			0	37506	0	0	0	19992	18610	135035	27187	975218	39430	107312	0	0	8325	590304	0	0
2024-05-14 19:57:32			0	37524	0	0	0	19984	18600	135083	27332	975175	39430	107309	0	0	8326	589594	0	0
2024-05-14 19:58:32			0	37514	0	0	0	19992	18600	135139	27364	975167	39429	107312	0	0	8325	590006	0	0
2024-05-14 19:59:32			0	37533	0	0	0	19989	18600	135175	27509	975167	39429	107311	0	0	8326	589222	0	0
2024-05-14 20:00:32			0	37532	0	0	0	19989	18590	135083	27267	975185	39439	107311	0	0	8326	589296	0	0
2024-05-14 20:01:32			0	37530	0	0	0	19984	18600	135015	27396	975202	39441	107309	0	0	8326	589346	0	0
2024-05-14 20:02:32			0	37548	0	0	0	19974	18590	135043	27516	975132	39439	107305	0	0	8327	588636	0	0
2024-05-14 20:03:32			0	37544	0	0	0	19979	18600	135031	27355	975167	39418	107307	0	0	8327	588769	0	0
2024-05-14 20:04:32			0	37537	0	0	0	19981	18590	135075	27516	975132	39428	107308	0	0	8326	589090	0	0
2024-05-14 20:05:32			0	37540	0	0	0	19984	18590	135059	27564	975256	39428	107309	0	0	8326	588966	0	0
2024-05-14 20:06:32			0	37533	0	0	0	19994	18590	134995	27843	975158	39439	107313	0	0	8326	589255	0	0
2024-05-14 20:07:32			0	37557	0	0	0	20010	18590	135007	27486	975291	39428	107319	0	0	8327	588266	0	0
2024-05-14 20:08:32			0	37556	0	0	0	20015	18600	134975	27692	975307	39441	107321	0	0	8327	588275	0	0
2024-05-14 20:09:32			0	37563	0	0	0	20025	18600	135031	27393	975228	39430	107325	0	0	8327	587986	0	0
2024-05-14 20:10:32			0	37553	0	0	0	20025	18600	135039	27736	975281	39452	107325	0	0	8326	588398	0	0
2024-05-14 20:11:32			0	37566	0	0	0	20018	18600	134955	27391	975307	39441	107322	0	0	8327	587863	0	0
2024-05-14 20:12:32			0	37576	0	0	0	20015	18600	134975	27412	975307	39441	107321	0	0	8328	587451	0	0
2024-05-14 20:13:32			0	37597	0	0	0	20005	18610	135059	27203	975263	39430	107317	0	0	8329	586555	0	0
2024-05-14 20:14:32			0	37569	0	0	0	20007	18600	134927	27234	975175	39441	107318	0	0	8328	587739	0	0
2024-05-14 20:15:32			0	37561	0	0	0	19994	18600	134895	27609	975202	39418	107313	0	0	8327	588069	0	0
2024-05-14 20:16:32			0	37577	0	0	0	19984	18600	134963	27322	975202	39430	107309	0	0	8328	587410	0	0
2024-05-14 20:17:32			0	37596	0	0	0	19986	18600	134915	27229	975175	39418	107310	0	0	8329	586628	0	0
2024-05-14 20:18:32			0	37590	0	0	0	19989	18600	134883	27492	975220	39429	107311	0	0	8329	586875	0	0
2024-05-14 20:19:32			0	37584	0	0	0	19997	18600	135003	27561	975281	39418	107314	0	0	8328	587122	0	0
2024-05-14 20:20:32			0	37585	0	0	0	19994	18600	134975	27246	975246	39440	107313	0	0	8329	587081	0	0
2024-05-14 20:21:32			0	37604	0	0	0	20005	18590	134899	27391	975291	39428	107317	0	0	8329	586332	0	0
2024-05-14 20:22:32			0	37609	0	0	0	19999	18600	134839	27121	975273	39440	107315	0	0	8330	586094	0	0
2024-05-14 20:23:32			0	37616	0	0	0	20012	18610	134907	27391	975298	39418	107320	0	0	8330	585774	0	0
2024-05-14 20:24:32			0	37604	0	0	0	20015	18610	135003	27339	975342	39418	107321	0	0	8329	586267	0	0
2024-05-14 20:25:32			0	37598	0	0	0	20028	18610	134911	27079	975395	39430	107326	0	0	8329	586514	0	0
2024-05-14 20:26:32			0	37595	0	0	0	20018	18610	134875	27381	975290	39441	107322	0	0	8329	586637	0	0
2024-05-14 20:27:32			0	37614	0	0	0	20023	18610	134899	27528	975218	39430	107324	0	0	8330	585857	0	0
2024-05-14 20:28:32			0	37609	0	0	0	20018	18610	134791	27422	975298	39430	107322	0	0	8329	586062	0	0
2024-05-14 20:29:32			0	37635	0	0	0	20020	18610	134803	27246	975290	39430	107323	0	0	8331	584994	0	0
2024-05-14 20:30:32			0	37623	0	0	0	20012	18620	134739	27256	975359	39442	107320	0	0	8330	585455	0	0
2024-05-14 20:31:32			0	37626	0	0	0	20012	18610	134835	27203	975324	39418	107320	0	0	8330	585364	0	0
2024-05-14 20:32:32			0	37625	0	0	0	20020	18620	134795	27298	975333	39431	107323	0	0	8330	585373	0	0
2024-05-14 20:33:32			0	37612	0	0	0	20018	18620	134747	27569	975385	39442	107322	0	0	8330	585907	0	0
2024-05-14 20:34:32			0	37625	0	0	0	20031	18620	134839	27417	975420	39443	107327	0	0	8330	585373	0	0
2024-05-14 20:35:32			0	37635	0	0	0	20023	18630	134723	27757	975410	39443	107324	0	0	8331	584930	0	0
2024-05-14 20:36:32			0	37635	0	0	0	20041	18620	134639	27412	975367	39431	107331	0	0	8331	584962	0	0
2024-05-14 20:37:32			0	37646	0	0	0	20044	18640	134759	27599	975445	39455	107332	0	0	8331	584447	0	0
2024-05-14 20:38:32			0	37657	0	0	0	20049	18630	134679	27102	975384	39443	107334	0	0	8332	584028	0	0
2024-05-14 20:39:32			0	37647	0	0	0	20054	18630	134711	27535	975463	39454	107336	0	0	8331	584438	0	0
2024-05-14 20:40:32			0	37659	0	0	0	20062	18640	134763	27493	975472	39432	107339	0	0	8331	583914	0	0
2024-05-14 20:41:32			0	37641	0	0	0	20070	18650	134695	27319	975515	39434	107342	0	0	8330	584620	0	0
2024-05-14 20:42:32			0	37637	0	0	0	20062	18650	134727	27357	975462	39434	107339	0	0	8330	584784	0	0
2024-05-14 20:43:32			0	37640	0	0	0	20064	18650	134667	26991	975462	39445	107340	0	0	8331	584661	0	0
2024-05-14 20:44:32			0	37662	0	0	0	20062	18660	134591	27338	975531	39445	107339	0	0	8332	583727	0	0
2024-05-14 20:45:32			0	37658	0	0	0	20067	18650	134731	27319	975550	39434	107341	0	0	8331	583923	0	0
2024-05-14 20:46:32			0	37649	0	0	0	20075	18650	134631	27426	975576	39445	107344	0	0	8331	584292	0	0
2024-05-14 20:47:32			0	37665	0	0	0	20080	18650	134599	27260	975550	39445	107346	0	0	8332	583636	0	0
2024-05-14 20:48:32			0	37669	0	0	0	20083	18660	134631	27448	975513	39446	107347	0	0	8332	583440	0	0
2024-05-14 20:49:32			0	37660	0	0	0	20075	18660	134615	27481	975593	39446	107344	0	0	8331	583809	0	0
2024-05-14 20:50:32			0	37658	0	0	0	20080	18670	134591	27178	975575	39436	107346	0	0	8331	583859	0	0
2024-05-14 20:51:32			0	37655	0	0	0	20085	18670	134531	27365	975609	39458	107348	0	0	8331	583982	0	0
2024-05-14 20:52:32			0	37668	0	0	0	20088	18670	134707	26975	975609	39447	107349	0	0	8332	583449	0	0
2024-05-14 20:53:32			0	37666	0	0	0	20090	18680	134559	27183	975618	39458	107350	0	0	8332	583499	0	0
2024-05-14 20:54:32			0	37667	0	0	0	20093	18670	134615	27168	975636	39436	107351	0	0	8332	583490	0	0
2024-05-14 20:55:32			0	37680	0	0	0	20098	18680	134591	27376	975671	39447	107353	0	0	8332	582926	0	0
2024-05-14 20:56:32			0	37673	0	0	0	20093	18670	134451	27111	975636	39447	107351	0	0	8332	583244	0	0
2024-05-14 20:57:32			0	37674	0	0	0	20098	18680	134535	27540	975626	39437	107353	0	0	8332	583171	0	0
2024-05-14 20:58:32			0	37674	0	0	0	20103	18680	134523	27319	975644	39447	107355	0	0	8332	583171	0	0
2024-05-14 20:59:32			0	37668	0	0	0	20098	18680	134527	27504	975652	39448	107353	0	0	8332	583417	0	0
2024-05-14 21:00:32			0	37694	0	0	0	20096	18680	134559	27555	975679	39448	107352	0	0	8333	582353	0	0
2024-05-14 21:01:32			0	37676	0	0	0	20101	18680	134559	27154	975626	39448	107354	0	0	8332	583090	0	0
2024-05-14 21:02:32			0	37681	0	0	0	20101	18690	134527	27473	975669	39459	107354	0	0	8332	582853	0	0
2024-05-14 21:03:32			0	37696	0	0	0	20103	18690	134583	27317	975634	39449	107355	0	0	8333	582239	0	0
2024-05-14 21:04:32			0	37677	0	0	0	20109	18690	134559	27208	975634	39449	107357	0	0	8332	583017	0	0
2024-05-14 21:05:32			0	37691	0	0	0	20103	18690	134523	27632	975634	39449	107355	0	0	8333	582443	0	0
2024-05-14 21:06:32			0	37682	0	0	0	20106	18690	134587	27388	975634	39449	107356	0	0	8332	582812	0	0
2024-05-14 21:07:32			0	37677	0	0	0	20109	18700	134611	26986	975738	39460	107357	0	0	8332	582985	0	0
2024-05-14 21:08:32			0	37688	0	0	0	20109	18700	134443	26935	975712	39450	107357	0	0	8332	582534	0	0
2024-05-14 21:09:32			0	37693	0	0	0	20106	18690	134511	27124	975669	39449	107356	0	0	8333	582362	0	0
2024-05-14 21:10:32			0	37697	0	0	0	20116	18690	134515	27331	975669	39449	107360	0	0	8333	582198	0	0
2024-05-14 21:11:32			0	37696	0	0	0	20103	18690	134463	27291	975748	39459	107355	0	0	8333	582239	0	0
2024-05-14 21:12:32			0	37711	0	0	0	20101	18700	134463	27235	975677	39449	107354	0	0	8334	581594	0	0
2024-05-14 21:13:32			0	37696	0	0	0	20109	18710	134559	26876	975720	39461	107357	0	0	8333	582175	0	0
2024-05-14 21:14:32			0	37704	0	0	0	20109	18700	134499	27170	975685	39450	107357	0	0	8333	581880	0	0
2024-05-14 21:15:32			0	37718	0	0	0	20103	18710	134535	27225	975720	39439	107355	0	0	8334	581276	0	0
2024-05-14 21:16:32			0	37703	0	0	0	20103	18700	134487	27246	975712	39460	107355	0	0	8333	581921	0	0
2024-05-14 21:17:32			0	37723	0	0	0	20106	18700	134467	27150	975738	39450	107356	0	0	8334	581103	0	0
2024-05-14 21:18:32			0	37697	0	0	0	20111	18700	134455	27279	975765	39438	107358	0	0	8333	582166	0	0
2024-05-14 21:19:32			0	37724	0	0	0	20119	18710	134447	27424	975755	39440	107361	0	0	8334	581030	0	0
2024-05-14 21:20:32			0	37709	0	0	0	20122	18710	134443	27393	975747	39450	107362	0	0	8333	581644	0	0
2024-05-14 21:21:32			0	37706	0	0	0	20119	18710	134463	27218	975747	39439	107361	0	0	8333	581766	0	0
2024-05-14 21:22:32			0	37729	0	0	0	20124	18710	134427	27291	975720	39439	107363	0	0	8334	580826	0	0
2024-05-14 21:23:32			0	37726	0	0	0	20114	18710	134483	27386	975694	39461	107359	0	0	8334	580949	0	0
2024-05-14 21:24:32			0	37721	0	0	0	20116	18700	134479	27499	975712	39438	107360	0	0	8334	581185	0	0
2024-05-14 21:25:32			0	37715	0	0	0	20124	18700	134407	27246	975712	39450	107363	0	0	8334	581430	0	0
2024-05-14 21:26:32			0	37723	0	0	0	20114	18710	134375	27206	975755	39461	107359	0	0	8334	581071	0	0
2024-05-14 21:27:32			0	37720	0	0	0	20122	18720	134427	27358	975763	39461	107362	0	0	8334	581162	0	0
2024-05-14 21:28:32			0	37727	0	0	0	20119	18700	134383	27365	975757	39438	107361	0	0	8334	580940	0	0
2024-05-14 21:29:32			0	37728	0	0	0	20122	18710	134415	27583	975781	39461	107362	0	0	8334	580867	0	0
2024-05-14 21:30:32			0	37738	0	0	0	20129	18710	134359	27241	975720	39450	107365	0	0	8335	580459	0	0
2024-05-14 21:31:32			0	37735	0	0	0	20124	18710	134339	27305	975747	39450	107363	0	0	8335	580581	0	0
2024-05-14 21:32:32			0	37732	0	0	0	20116	18700	134395	27608	975738	39438	107360	0	0	8335	580735	0	0
2024-05-14 21:33:32			0	37734	0	0	0	20122	18710	134307	27287	975747	39461	107362	0	0	8335	580622	0	0
2024-05-14 21:34:32			0	37754	0	0	0	20122	18710	134375	27459	975747	39450	107362	0	0	8336	579805	0	0
2024-05-14 21:35:32			0	37745	0	0	0	20129	18710	134363	27341	975728	39440	107365	0	0	8335	580173	0	0
2024-05-14 21:36:32			0	37755	0	0	0	20127	18710	134351	27661	975781	39451	107364	0	0	8336	579765	0	0
2024-05-14 21:37:32			0	37740	0	0	0	20127	18700	134347	27334	975765	39460	107364	0	0	8335	580409	0	0
2024-05-14 21:38:32			0	37740	0	0	0	20124	18710	134307	27310	975747	39439	107363	0	0	8335	580377	0	0
2024-05-14 21:39:32			0	37744	0	0	0	20127	18720	134267	27448	975710	39451	107364	0	0	8335	580182	0	0
2024-05-14 21:40:32			0	37767	0	0	0	20124	18720	134299	27263	975763	39451	107363	0	0	8336	579244	0	0
2024-05-14 21:41:32			0	37761	0	0	0	20122	18710	134207	27559	975808	39451	107362	0	0	8336	579520	0	0
2024-05-14 21:42:32			0	37754	0	0	0	20122	18710	134295	27135	975728	39451	107362	0	0	8336	579805	0	0
2024-05-14 21:43:32			0	37774	0	0	0	20124	18710	134187	27566	975728	39451	107363	0	0	8337	578990	0	0
2024-05-14 21:44:32			0	37779	0	0	0	20122	18700	134327	27452	975738	39450	107362	0	0	8337	578818	0	0
2024-05-14 21:45:32			0	37765	0	0	0	20124	18710	134343	27301	975720	39450	107363	0	0	8336	579357	0	0
2024-05-14 21:46:32			0	37760	0	0	0	20127	18710	134239	27341	975755	39451	107364	0	0	8336	579561	0	0
2024-05-14 21:47:32			0	37786	0	0	0	20116	18710	134283	27303	975747	39450	107360	0	0	8338	578501	0	0
2024-05-14 21:48:32			0	37775	0	0	0	20119	18710	134251	27386	975747	39461	107361	0	0	8337	578949	0	0
2024-05-14 21:49:32			0	37762	0	0	0	20119	18720	134223	27164	975790	39451	107361	0	0	8336	579447	0	0
2024-05-14 21:50:32			0	37781	0	0	0	20109	18710	134163	27365	975808	39451	107357	0	0	8337	578705	0	0
2024-05-14 21:51:32			0	37779	0	0	0	20116	18720	134171	27234	975772	39440	107360	0	0	8337	578754	0	0
2024-05-14 21:52:32			0	37784	0	0	0	20119	18710	134211	27208	975694	39439	107361	0	0	8337	578582	0	0
2024-05-14 21:53:32			0	37793	0	0	0	20114	18710	134179	27133	975755	39473	107359	0	0	8338	578216	0	0
2024-05-14 21:54:32			0	37767	0	0	0	20116	18710	134263	27325	975781	39451	107360	0	0	8337	579275	0	0
2024-05-14 21:55:32			0	37780	0	0	0	20106	18710	134259	27450	975800	39461	107356	0	0	8337	578745	0	0
2024-05-14 21:56:32			0	37798	0	0	0	20119	18710	134255	27272	975800	39450	107361	0	0	8338	578012	0	0
2024-05-14 21:57:32			0	37807	0	0	0	20109	18710	134143	27372	975773	39450	107357	0	0	8339	577646	0	0
2024-05-14 21:58:32			0	37803	0	0	0	20111	18710	134195	27384	975728	39451	107358	0	0	8339	577808	0	0
2024-05-14 21:59:32			0	37805	0	0	0	20111	18710	134219	27578	975747	39450	107358	0	0	8339	577727	0	0
2024-05-14 22:00:32			0	37798	0	0	0	20114	18710	134175	27331	975755	39461	107359	0	0	8338	578012	0	0
2024-05-14 22:01:32			0	37797	0	0	0	20109	18710	134199	27235	975728	39451	107357	0	0	8338	578053	0	0
2024-05-14 22:02:32			0	37801	0	0	0	20109	18710	134103	27466	975747	39461	107357	0	0	8338	577890	0	0
2024-05-14 22:03:32			0	37803	0	0	0	20111	18710	134171	27272	975694	39461	107358	0	0	8339	577808	0	0
2024-05-14 22:04:32			0	37792	0	0	0	20106	18710	134119	27294	975720	39439	107356	0	0	8338	578256	0	0
2024-05-14 22:05:32			0	37795	0	0	0	20098	18700	134103	27213	975677	39438	107353	0	0	8338	578166	0	0
2024-05-14 22:06:32			0	37799	0	0	0	20093	18700	134131	27322	975651	39449	107351	0	0	8339	578003	0	0
2024-05-14 22:07:32			0	37819	0	0	0	20090	18700	134171	27010	975651	39449	107350	0	0	8340	577189	0	0
2024-05-14 22:08:32			0	37815	0	0	0	20090	18690	134183	27455	975695	39449	107350	0	0	8339	577383	0	0
2024-05-14 22:09:32			0	37819	0	0	0	20077	18690	134111	27248	975687	39449	107345	0	0	8340	577220	0	0
2024-05-14 22:10:32			0	37811	0	0	0	20080	18690	134127	27324	975608	39438	107346	0	0	8339	577546	0	0
2024-05-14 22:11:32			0	37815	0	0	0	20080	18680	134135	27348	975618	39458	107346	0	0	8340	577415	0	0
2024-05-14 22:12:32			0	37834	0	0	0	20077	18690	134187	27473	975642	39438	107345	0	0	8341	576610	0	0
2024-05-14 22:13:32			0	37809	0	0	0	20072	18680	134119	27362	975591	39447	107343	0	0	8339	577659	0	0
2024-05-14 22:14:32			0	37797	0	0	0	20067	18670	134079	27244	975522	39425	107341	0	0	8339	578179	0	0
2024-05-14 22:15:32			0	37836	0	0	0	20054	18670	134035	27388	975601	39447	107336	0	0	8341	576592	0	0
2024-05-14 22:16:32			0	37819	0	0	0	20059	18660	134079	27177	975513	39424	107338	0	0	8340	577315	0	0
2024-05-14 22:17:32			0	37810	0	0	0	20059	18660	134083	27561	975566	39435	107338	0	0	8340	577682	0	0
2024-05-14 22:18:32			0	37808	0	0	0	20049	18670	134071	27345	975522	39436	107334	0	0	8340	577731	0	0
2024-05-14 22:19:32			0	37848	0	0	0	20049	18660	134111	27216	975505	39423	107334	0	0	8342	576136	0	0
2024-05-14 22:20:32			0	37828	0	0	0	20041	18660	134147	27324	975479	39445	107331	0	0	8341	576949	0	0
2024-05-14 22:21:32			0	37832	0	0	0	20038	18660	134043	27469	975531	39423	107330	0	0	8341	576786	0	0
2024-05-14 22:22:32			0	37842	0	0	0	20046	18650	134027	27480	975436	39445	107333	0	0	8341	576411	0	0
2024-05-14 22:23:32			0	37841	0	0	0	20049	18660	134011	27350	975531	39445	107334	0	0	8341	576420	0	0
2024-05-14 22:24:32			0	37836	0	0	0	20041	18640	133943	27573	975507	39433	107331	0	0	8341	576687	0	0
2024-05-14 22:25:32			0	37834	0	0	0	20054	18650	133995	27460	975462	39456	107336	0	0	8341	576737	0	0
2024-05-14 22:26:32			0	37838	0	0	0	20041	18650	134043	27341	975497	39434	107331	0	0	8341	576574	0	0
2024-05-14 22:27:32			0	37842	0	0	0	20038	18650	134027	27135	975523	39456	107330	0	0	8342	576411	0	0
2024-05-14 22:28:32			0	37828	0	0	0	20033	18640	133991	27635	975454	39433	107328	0	0	8341	577012	0	0
2024-05-14 22:29:32			0	37844	0	0	0	20036	18650	134031	27362	975462	39445	107329	0	0	8342	576330	0	0
2024-05-14 22:30:32			0	37853	0	0	0	20036	18640	134011	27105	975480	39433	107329	0	0	8342	575996	0	0
2024-05-14 22:31:32			0	37854	0	0	0	20046	18640	133943	27124	975427	39433	107333	0	0	8342	575955	0	0
2024-05-14 22:32:32			0	37868	0	0	0	20038	18650	134003	27486	975462	39445	107330	0	0	8343	575355	0	0
2024-05-14 22:33:32			0	37859	0	0	0	20038	18650	133967	27130	975470	39445	107330	0	0	8342	575721	0	0
2024-05-14 22:34:32			0	37845	0	0	0	20036	18640	133923	27587	975472	39443	107329	0	0	8342	576321	0	0
2024-05-14 22:35:32			0	37847	0	0	0	20031	18640	133979	26918	975480	39433	107327	0	0	8342	576240	0	0
2024-05-14 22:36:32			0	37836	0	0	0	20033	18650	134007	27358	975462	39456	107328	0	0	8341	576655	0	0
2024-05-14 22:37:32			0	37872	0	0	0	20033	18650	133999	27118	975462	39423	107328	0	0	8343	575192	0	0
2024-05-14 22:38:32			0	37847	0	0	0	20025	18630	133987	27230	975455	39431	107325	0	0	8342	576271	0	0
2024-05-14 22:39:32			0	37856	0	0	0	20028	18630	133979	27197	975437	39443	107326	0	0	8342	575905	0	0
2024-05-14 22:40:32			0	37855	0	0	0	20025	18630	133867	26986	975410	39431	107325	0	0	8342	575946	0	0
2024-05-14 22:41:32			0	37858	0	0	0	20028	18640	133947	27505	975445	39432	107326	0	0	8343	575793	0	0
2024-05-14 22:42:32			0	37868	0	0	0	20028	18630	133939	27466	975437	39431	107326	0	0	8343	575418	0	0
2024-05-14 22:43:32			0	37879	0	0	0	20031	18640	133979	27248	975392	39443	107327	0	0	8344	574940	0	0
2024-05-14 22:44:32			0	37876	0	0	0	20023	18630	133947	27225	975437	39431	107324	0	0	8344	575093	0	0
2024-05-14 22:45:32			0	37841	0	0	0	20028	18630	133899	27334	975437	39431	107326	0	0	8342	576515	0	0
2024-05-14 22:46:32			0	37863	0	0	0	20020	18630	133887	26979	975402	39443	107323	0	0	8343	575621	0	0
2024-05-14 22:47:32			0	37892	0	0	0	20025	18620	133955	27419	975394	39443	107325	0	0	8344	574475	0	0
2024-05-14 22:48:32			0	37872	0	0	0	20025	18630	133907	27410	975437	39443	107325	0	0	8343	575255	0	0
2024-05-14 22:49:32			0	37889	0	0	0	20025	18620	133915	27241	975412	39431	107325	0	0	8344	574597	0	0
2024-05-14 22:50:32			0	37883	0	0	0	20028	18620	133939	27185	975394	39431	107326	0	0	8344	574841	0	0
2024-05-14 22:51:32			0	37881	0	0	0	20023	18620	133827	27381	975412	39431	107324	0	0	8344	574922	0	0
2024-05-14 22:52:32			0	37888	0	0	0	20023	18610	133899	27516	975404	39430	107324	0	0	8344	574669	0	0
2024-05-14 22:53:32			0	37879	0	0	0	20023	18630	133895	27618	975384	39454	107324	0	0	8344	574971	0	0
2024-05-14 22:54:32			0	37888	0	0	0	20015	18630	133895	27545	975376	39431	107321	0	0	8344	574606	0	0
2024-05-14 22:55:32			0	37883	0	0	0	20018	18620	133951	27550	975333	39419	107322	0	0	8344	574841	0	0
2024-05-14 22:56:32			0	37880	0	0	0	20007	18610	133895	27448	975351	39441	107318	0	0	8344	574994	0	0
2024-05-14 22:57:32			0	37886	0	0	0	20007	18610	133847	27282	975351	39441	107318	0	0	8344	574750	0	0
2024-05-14 22:58:32			0	37881	0	0	0	19997	18620	133907	27256	975314	39443	107314	0	0	8344	574922	0	0
2024-05-14 22:59:32			0	37885	0	0	0	19994	18610	133851	27351	975351	39441	107313	0	0	8344	574791	0	0
2024-05-14 23:00:32			0	37897	0	0	0	19994	18610	133943	27422	975263	39441	107313	0	0	8345	574304	0	0
2024-05-14 23:01:32			0	37887	0	0	0	19992	18600	133859	27620	975202	39430	107312	0	0	8344	574741	0	0
2024-05-14 23:02:32			0	37901	0	0	0	19976	18590	133871	27157	975185	39450	107306	0	0	8345	574204	0	0
2024-05-14 23:03:32			0	37886	0	0	0	19968	18580	133859	27504	975221	39428	107303	0	0	8345	574845	0	0
2024-05-14 23:04:32			0	37912	0	0	0	19966	18600	133919	27498	975167	39440	107302	0	0	8346	573727	0	0
2024-05-14 23:05:32			0	37911	0	0	0	19966	18590	133907	27374	975132	39417	107302	0	0	8346	573799	0	0
2024-05-14 23:06:32			0	37896	0	0	0	19958	18580	133811	27364	975089	39439	107299	0	0	8345	574439	0	0
2024-05-14 23:07:32			0	37923	0	0	0	19953	18570	133807	27331	975099	39426	107297	0	0	8347	573375	0	0
2024-05-14 23:08:32			0	37913	0	0	0	19950	18590	133799	27549	975203	39428	107296	0	0	8347	573718	0	0
2024-05-14 23:09:32			0	37927	0	0	0	19940	18570	133803	27409	975099	39437	107292	0	0	8347	573213	0	0
2024-05-14 23:10:32			0	37922	0	0	0	19950	18560	133871	27450	975056	39437	107296	0	0	8347	573447	0	0
2024-05-14 23:11:32			0	37913	0	0	0	19929	18560	133767	27407	975082	39437	107288	0	0	8347	573812	0	0
2024-05-14 23:12:32			0	37933	0	0	0	19942	18570	133803	27360	975091	39437	107293	0	0	8348	572970	0	0
2024-05-14 23:13:32			0	37924	0	0	0	19929	18570	133819	27355	975091	39425	107288	0	0	8347	573335	0	0
2024-05-14 23:14:32			0	37937	0	0	0	19932	18560	133863	27287	975056	39425	107289	0	0	8348	572840	0	0
2024-05-14 23:15:32			0	37927	0	0	0	19940	18560	133843	27095	975082	39437	107292	0	0	8347	573245	0	0
2024-05-14 23:16:32			0	37931	0	0	0	19942	18550	133807	27237	975066	39424	107293	0	0	8347	573114	0	0
2024-05-14 23:17:32			0	37934	0	0	0	19935	18550	133703	27576	975039	39424	107290	0	0	8348	572992	0	0
2024-05-14 23:18:32			0	37935	0	0	0	19929	18540	133823	27069	975049	39424	107288	0	0	8348	572983	0	0
2024-05-14 23:19:32			0	37930	0	0	0	19916	18550	133703	27289	975066	39436	107283	0	0	8348	573154	0	0
2024-05-14 23:20:32			0	37943	0	0	0	19927	18550	133795	27599	974978	39435	107287	0	0	8348	572628	0	0
2024-05-14 23:21:32			0	37928	0	0	0	19927	18530	133743	27036	975006	39434	107287	0	0	8347	573298	0	0
2024-05-14 23:22:32			0	37954	0	0	0	19922	18540	133723	27310	974988	39424	107285	0	0	8349	572214	0	0
2024-05-14 23:23:32			0	37954	0	0	0	19916	18530	133819	27459	974953	39434	107283	0	0	8349	572245	0	0
2024-05-14 23:24:32			0	37949	0	0	0	19929	18540	133707	27312	975023	39424	107288	0	0	8349	572416	0	0
2024-05-14 23:25:32			0	37943	0	0	0	19924	18540	133791	27215	974962	39424	107286	0	0	8348	572659	0	0
2024-05-14 23:26:32			0	37937	0	0	0	19927	18540	133795	27348	974962	39424	107287	0	0	8348	572902	0	0
2024-05-14 23:27:32			0	37946	0	0	0	19927	18540	133743	27215	975067	39413	107287	0	0	8348	572538	0	0
2024-05-14 23:28:32			0	37958	0	0	0	19932	18540	133691	27176	975023	39435	107289	0	0	8349	572052	0	0
2024-05-14 23:29:32			0	37951	0	0	0	19942	18540	133707	27312	975023	39435	107293	0	0	8348	572335	0	0
2024-05-14 23:30:32			0	37965	0	0	0	19932	18540	133651	27013	975041	39424	107289	0	0	8349	571769	0	0
2024-05-14 23:31:32			0	37973	0	0	0	19932	18540	133663	27173	975023	39435	107289	0	0	8350	571445	0	0
2024-05-14 23:32:32			0	37979	0	0	0	19942	18530	133587	27164	975033	39423	107293	0	0	8350	571234	0	0
2024-05-14 23:33:32			0	37976	0	0	0	19935	18550	133571	27173	975039	39447	107290	0	0	8350	571293	0	0
2024-05-14 23:34:32			0	37961	0	0	0	19940	18540	133671	26913	975049	39424	107292	0	0	8349	571931	0	0
2024-05-14 23:35:32			0	37975	0	0	0	19942	18540	133559	27339	974970	39435	107293	0	0	8350	571364	0	0
2024-05-14 23:36:32			0	37987	0	0	0	19937	18530	133619	27109	975006	39423	107291	0	0	8350	570910	0	0
2024-05-14 23:37:32			0	37978	0	0	0	19945	18550	133627	27149	975110	39435	107294	0	0	8350	571212	0	0
2024-05-14 23:38:32			0	37961	0	0	0	19942	18540	133611	27351	975041	39424	107293	0	0	8349	571931	0	0
2024-05-14 23:39:32			0	37995	0	0	0	19940	18540	133607	27504	975094	39424	107292	0	0	8351	570556	0	0
2024-05-14 23:40:32			0	38007	0	0	0	19942	18540	133603	27284	975067	39424	107293	0	0	8351	570071	0	0
2024-05-14 23:41:32			0	37978	0	0	0	19940	18540	133539	27303	975041	39435	107292	0	0	8350	571243	0	0
2024-05-14 23:42:32			0	37969	0	0	0	19945	18550	133555	27376	975031	39435	107294	0	0	8349	571576	0	0
2024-05-14 23:43:32			0	38019	0	0	0	19945	18540	133535	27350	975014	39435	107294	0	0	8352	569587	0	0
2024-05-14 23:44:32			0	37999	0	0	0	19945	18550	133543	27263	975057	39435	107294	0	0	8351	570363	0	0
2024-05-14 23:45:32			0	38009	0	0	0	19945	18540	133575	26632	974996	39424	107294	0	0	8351	569991	0	0
2024-05-14 23:46:32			0	38007	0	0	0	19942	18540	133531	27251	974988	39435	107293	0	0	8351	570071	0	0
2024-05-14 23:47:32			0	38004	0	0	0	19940	18540	133535	27213	974996	39424	107292	0	0	8351	570192	0	0
2024-05-14 23:48:32			0	38027	0	0	0	19937	18540	133511	27107	975014	39435	107291	0	0	8352	569264	0	0
2024-05-14 23:49:32			0	38009	0	0	0	19940	18550	133543	27107	975005	39424	107292	0	0	8352	569959	0	0
2024-05-14 23:50:32			0	38021	0	0	0	19937	18540	133479	27242	974988	39435	107291	0	0	8352	569506	0	0
2024-05-14 23:51:32			0	38013	0	0	0	19940	18540	133539	27353	975041	39446	107292	0	0	8352	569829	0	0
2024-05-14 23:52:32			0	37996	0	0	0	19940	18530	133499	27223	975006	39423	107292	0	0	8351	570547	0	0
2024-05-14 23:53:32			0	38000	0	0	0	19935	18540	133495	27415	975014	39435	107290	0	0	8351	570354	0	0
2024-05-14 23:54:32			0	38021	0	0	0	19935	18540	133547	27301	975041	39435	107290	0	0	8352	569506	0	0
2024-05-14 23:55:32			0	38010	0	0	0	19942	18540	133423	27353	974962	39424	107293	0	0	8352	569950	0	0
2024-05-14 23:56:32			0	38018	0	0	0	19940	18540	133451	27109	975014	39424	107292	0	0	8352	569627	0	0
2024-05-14 23:57:32			0	38016	0	0	0	19935	18530	133431	26937	974998	39433	107290	0	0	8352	569739	0	0
2024-05-14 23:58:32			0	38019	0	0	0	19937	18530	133427	27345	975051	39422	107291	0	0	8352	569618	0	0
2024-05-14 23:59:32			0	38015	0	0	0	19935	18520	133463	27105	974990	39422	107290	0	0	8352	569811	0	0
2024-05-15 00:00:32			0	38026	0	0	0	19932	18540	133367	27332	975023	39435	107289	0	0	8353	569304	0	0
2024-05-15 00:01:32			0	38024	0	0	0	19927	18540	133347	27319	975041	39424	107287	0	0	8353	569385	0	0
2024-05-15 00:02:32			0	38024	0	0	0	19935	18540	133423	27282	974996	39446	107290	0	0	8352	569385	0	0
2024-05-15 00:03:32			0	38028	0	0	0	19929	18540	133371	27384	975014	39435	107288	0	0	8353	569224	0	0
2024-05-15 00:04:32			0	38038	0	0	0	19927	18530	133448	27524	975006	39413	107287	0	0	8353	568852	0	0
2024-05-15 00:05:32			0	38023	0	0	0	19927	18540	133416	27381	974988	39435	107287	0	0	8352	569426	0	0
2024-05-15 00:06:32			0	38033	0	0	0	19927	18530	133427	27170	975033	39423	107287	0	0	8353	569053	0	0
2024-05-15 00:07:32			0	38014	0	0	0	19924	18530	133411	26993	974971	39444	107286	0	0	8352	569820	0	0
2024-05-15 00:08:32			0	38020	0	0	0	19929	18530	133435	27287	974980	39434	107288	0	0	8352	569578	0	0
2024-05-15 00:09:32			0	38027	0	0	0	19924	18530	133375	27263	974953	39423	107286	0	0	8353	569295	0	0
2024-05-15 00:10:32			0	38029	0	0	0	19927	18530	133407	27182	975006	39445	107287	0	0	8353	569215	0	0
2024-05-15 00:11:32			0	38019	0	0	0	19927	18520	133427	27255	974981	39433	107287	0	0	8352	569649	0	0
2024-05-15 00:12:32			0	38047	0	0	0	19929	18530	133472	27374	974945	39412	107288	0	0	8354	568489	0	0
2024-05-15 00:13:32			0	38024	0	0	0	19922	18510	133416	27566	974973	39432	107285	0	0	8352	569479	0	0
2024-05-15 00:14:32			0	38030	0	0	0	19929	18520	133444	27102	974955	39433	107288	0	0	8353	569205	0	0
2024-05-15 00:15:32			0	38028	0	0	0	19927	18520	133399	26996	974963	39433	107287	0	0	8353	569286	0	0
2024-05-15 00:16:32			0	38018	0	0	0	19924	18510	133471	27364	974885	39431	107286	0	0	8352	569721	0	0
2024-05-15 00:17:32			0	38021	0	0	0	19919	18530	133491	27026	974945	39422	107284	0	0	8352	569537	0	0
2024-05-15 00:18:32			0	38010	0	0	0	19916	18530	133439	27357	974980	39423	107283	0	0	8352	569981	0	0
2024-05-15 00:19:32			0	38023	0	0	0	19929	18530	133375	27360	974953	39434	107288	0	0	8352	569457	0	0
2024-05-15 00:20:32			0	38032	0	0	0	19916	18520	133339	27592	974928	39433	107283	0	0	8353	569125	0	0
2024-05-15 00:21:32			0	38032	0	0	0	19919	18520	133464	27291	974928	39422	107284	0	0	8353	569125	0	0
2024-05-15 00:22:32			0	38026	0	0	0	19924	18520	133367	27412	974955	39444	107286	0	0	8353	569367	0	0
2024-05-15 00:23:32			0	38031	0	0	0	19919	18530	133360	27597	974980	39423	107284	0	0	8353	569134	0	0
2024-05-15 00:24:32			0	38022	0	0	0	19924	18520	133399	27253	975016	39433	107286	0	0	8352	569528	0	0
2024-05-15 00:25:32			0	38040	0	0	0	19914	18520	133452	27199	974963	39422	107282	0	0	8353	568802	0	0
2024-05-15 00:26:32			0	38031	0	0	0	19914	18530	133412	26939	974919	39444	107282	0	0	8353	569134	0	0
2024-05-15 00:27:32			0	38038	0	0	0	19916	18510	133364	26949	974920	39432	107283	0	0	8353	568914	0	0
2024-05-15 00:28:32			0	38011	0	0	0	19914	18520	133375	27176	974928	39433	107282	0	0	8352	569972	0	0
2024-05-15 00:29:32			0	38027	0	0	0	19914	18510	133423	27481	974973	39421	107282	0	0	8353	569357	0	0
2024-05-15 00:30:32			0	38015	0	0	0	19916	18510	133379	27043	974920	39432	107283	0	0	8352	569842	0	0
2024-05-15 00:31:32			0	38045	0	0	0	19914	18510	133256	27086	974920	39432	107282	0	0	8354	568632	0	0
2024-05-15 00:32:32			0	38027	0	0	0	19906	18520	133479	26904	974955	39433	107279	0	0	8353	569326	0	0
2024-05-15 00:33:32			0	38035	0	0	0	19911	18510	133512	27154	974885	39420	107281	0	0	8353	569035	0	0
2024-05-15 00:34:32			0	38030	0	0	0	19916	18510	133412	27128	974912	39420	107283	0	0	8353	569236	0	0
2024-05-15 00:35:32			0	38047	0	0	0	19916	18510	133468	27538	974912	39431	107283	0	0	8354	568551	0	0
2024-05-15 00:36:32			0	38039	0	0	0	19906	18510	133396	27504	974885	39420	107279	0	0	8354	568873	0	0
2024-05-15 00:37:32			0	38050	0	0	0	19914	18500	133352	27419	974930	39420	107282	0	0	8354	568461	0	0
2024-05-15 00:38:32			0	38052	0	0	0	19909	18510	133360	27105	974947	39432	107280	0	0	8354	568349	0	0
2024-05-15 00:39:32			0	38044	0	0	0	19906	18510	133348	27478	974894	39432	107279	0	0	8354	568672	0	0
2024-05-15 00:40:32			0	38055	0	0	0	19901	18510	133412	27358	974885	39431	107277	0	0	8354	568228	0	0
2024-05-15 00:41:32			0	38061	0	0	0	19906	18510	133332	27159	974938	39431	107279	0	0	8355	567987	0	0
2024-05-15 00:42:32			0	38034	0	0	0	19901	18490	133320	27383	974869	39419	107277	0	0	8353	569137	0	0
2024-05-15 00:43:32			0	38046	0	0	0	19903	18500	133324	27346	974930	39420	107278	0	0	8354	568622	0	0
2024-05-15 00:44:32			0	38043	0	0	0	19901	18510	133340	27175	974947	39432	107277	0	0	8354	568712	0	0
2024-05-15 00:45:32			0	38048	0	0	0	19898	18500	133336	27275	974824	39431	107276	0	0	8354	568542	0	0
2024-05-15 00:46:32			0	38035	0	0	0	19893	18490	133328	27358	974895	39419	107274	0	0	8353	569097	0	0
2024-05-15 00:47:32			0	38057	0	0	0	19896	18490	133372	27079	974869	39409	107275	0	0	8355	568210	0	0
2024-05-15 00:48:32			0	38047	0	0	0	19890	18500	133420	26944	974877	39431	107273	0	0	8354	568582	0	0
2024-05-15 00:49:32			0	38059	0	0	0	19893	18500	133336	27364	974877	39431	107274	0	0	8355	568098	0	0
2024-05-15 00:50:32			0	38048	0	0	0	19893	18490	133420	27431	974869	39419	107274	0	0	8354	568573	0	0
2024-05-15 00:51:32			0	38051	0	0	0	19888	18480	133340	27215	974897	39407	107272	0	0	8354	568483	0	0
2024-05-15 00:52:32			0	38059	0	0	0	19877	18490	133300	27137	974816	39409	107268	0	0	8355	568129	0	0
2024-05-15 00:53:32			0	38056	0	0	0	19877	18490	133328	27055	974861	39430	107268	0	0	8355	568250	0	0
2024-05-15 00:54:32			0	38047	0	0	0	19883	18480	133408	27192	974799	39430	107270	0	0	8354	568644	0	0
2024-05-15 00:55:32			0	38036	0	0	0	19883	18490	133380	27237	974808	39419	107270	0	0	8354	569057	0	0
2024-05-15 00:56:32			0	38035	0	0	0	19883	18480	133372	27409	974826	39430	107270	0	0	8354	569128	0	0
2024-05-15 00:57:32			0	38069	0	0	0	19877	18480	133320	27242	974826	39418	107268	0	0	8355	567758	0	0
2024-05-15 00:58:32			0	38053	0	0	0	19885	18480	133272	27131	974826	39430	107271	0	0	8354	568402	0	0
2024-05-15 00:59:32			0	38049	0	0	0	19883	18480	133296	27424	974826	39430	107270	0	0	8354	568563	0	0
2024-05-15 01:00:32			0	38057	0	0	0	19883	18470	133348	27185	974782	39429	107270	0	0	8355	568272	0	0
2024-05-15 01:01:32			0	38055	0	0	0	19870	18470	133340	27329	974756	39418	107265	0	0	8355	568353	0	0
2024-05-15 01:02:32			0	38045	0	0	0	19872	18470	133260	27376	974748	39418	107266	0	0	8354	568756	0	0
2024-05-15 01:03:32			0	38052	0	0	0	19864	18480	133340	27287	974765	39418	107263	0	0	8355	568443	0	0
2024-05-15 01:04:32			0	38075	0	0	0	19862	18460	133268	27479	974739	39407	107262	0	0	8356	567578	0	0
2024-05-15 01:05:32			0	38048	0	0	0	19864	18470	133276	27275	974748	39407	107263	0	0	8355	568635	0	0
2024-05-15 01:06:32			0	38060	0	0	0	19862	18460	133316	27291	974766	39428	107262	0	0	8355	568182	0	0
2024-05-15 01:07:32			0	38059	0	0	0	19862	18460	133372	27514	974686	39407	107262	0	0	8355	568223	0	0
2024-05-15 01:08:32			0	38057	0	0	0	19859	18460	133340	27369	974713	39407	107261	0	0	8355	568303	0	0
2024-05-15 01:09:32			0	38047	0	0	0	19854	18460	133300	27083	974705	39406	107259	0	0	8355	568706	0	0
2024-05-15 01:10:32			0	38065	0	0	0	19854	18460	133380	27072	974739	39417	107259	0	0	8356	567981	0	0
2024-05-15 01:11:32			0	38056	0	0	0	19857	18460	133304	27476	974660	39417	107260	0	0	8355	568344	0	0
2024-05-15 01:12:32			0	38082	0	0	0	19849	18450	133404	27296	974688	39427	107257	0	0	8357	567327	0	0
2024-05-15 01:13:32			0	38089	0	0	0	19846	18440	133288	27173	974680	39416	107256	0	0	8357	567076	0	0
2024-05-15 01:14:32			0	38078	0	0	0	19849	18460	133228	27112	974739	39428	107257	0	0	8356	567457	0	0
2024-05-15 01:15:32			0	38067	0	0	0	19844	18450	133240	27225	974696	39427	107255	0	0	8356	567931	0	0
2024-05-15 01:16:32			0	38072	0	0	0	19844	18440	133244	27166	974600	39405	107255	0	0	8356	567761	0	0
2024-05-15 01:17:32			0	38067	0	0	0	19846	18450	133308	27209	974635	39416	107256	0	0	8356	567931	0	0
2024-05-15 01:18:32			0	38063	0	0	0	19846	18450	133248	27611	974643	39427	107256	0	0	8356	568092	0	0
2024-05-15 01:19:32			0	38084	0	0	0	19841	18450	133268	27268	974635	39427	107254	0	0	8357	567247	0	0
2024-05-15 01:20:32			0	38069	0	0	0	19844	18450	133256	27048	974723	39427	107255	0	0	8356	567851	0	0
2024-05-15 01:21:32			0	38081	0	0	0	19844	18440	133244	27267	974627	39416	107255	0	0	8356	567398	0	0
2024-05-15 01:22:32			0	38085	0	0	0	19851	18440	133236	27270	974645	39436	107258	0	0	8357	567237	0	0
2024-05-15 01:23:32			0	38091	0	0	0	19849	18450	133220	27156	974688	39416	107257	0	0	8357	566965	0	0
2024-05-15 01:24:32			0	38077	0	0	0	19844	18440	133272	27533	974653	39416	107255	0	0	8356	567559	0	0
2024-05-15 01:25:32			0	38079	0	0	0	19844	18440	133220	27291	974672	39425	107255	0	0	8356	567479	0	0
2024-05-15 01:26:32			0	38095	0	0	0	19841	18440	133280	27107	974680	39426	107254	0	0	8357	566835	0	0
2024-05-15 01:27:32			0	38107	0	0	0	19841	18440	133180	27163	974645	39425	107254	0	0	8358	566352	0	0
2024-05-15 01:28:32			0	38109	0	0	0	19833	18440	133236	27549	974672	39415	107251	0	0	8358	566272	0	0
2024-05-15 01:29:32			0	38090	0	0	0	19841	18440	133280	27433	974645	39425	107254	0	0	8357	567036	0	0
2024-05-15 01:30:32			0	38108	0	0	0	19833	18440	133196	27178	974698	39404	107251	0	0	8358	566312	0	0
2024-05-15 01:31:32			0	38096	0	0	0	19844	18440	133248	27296	974672	39415	107255	0	0	8357	566795	0	0
2024-05-15 01:32:32			0	38105	0	0	0	19833	18430	133216	27083	974637	39415	107251	0	0	8358	566464	0	0
2024-05-15 01:33:32			0	38091	0	0	0	19828	18420	133112	27687	974567	39403	107249	0	0	8357	567058	0	0
2024-05-15 01:34:32			0	38098	0	0	0	19833	18430	133224	27362	974602	39424	107251	0	0	8358	566745	0	0
2024-05-15 01:35:32			0	38104	0	0	0	19823	18430	133176	27483	974584	39404	107247	0	0	8358	566504	0	0
2024-05-15 01:36:32			0	38114	0	0	0	19831	18430	133208	27464	974549	39403	107250	0	0	8358	566102	0	0
2024-05-15 01:37:32			0	38094	0	0	0	19823	18430	133204	27457	974576	39403	107247	0	0	8357	566906	0	0
2024-05-15 01:38:32			0	38114	0	0	0	19820	18420	133156	27571	974620	39414	107246	0	0	8359	566132	0	0
2024-05-15 01:39:32			0	38095	0	0	0	19820	18430	133188	27119	974576	39403	107246	0	0	8358	566866	0	0
2024-05-15 01:40:32			0	38100	0	0	0	19815	18410	133172	27869	974604	39423	107244	0	0	8358	566727	0	0
2024-05-15 01:41:32			0	38098	0	0	0	19823	18420	133196	27357	974594	39414	107247	0	0	8358	566776	0	0
2024-05-15 01:42:32			0	38108	0	0	0	19807	18420	133160	27571	974559	39423	107241	0	0	8358	566374	0	0
2024-05-15 01:43:32			0	38104	0	0	0	19823	18420	133140	27441	974559	39402	107247	0	0	8358	566535	0	0
2024-05-15 01:44:32			0	38115	0	0	0	19818	18420	133208	27107	974594	39414	107245	0	0	8359	566092	0	0
2024-05-15 01:45:32			0	38115	0	0	0	19810	18420	133260	27220	974586	39435	107242	0	0	8359	566092	0	0
2024-05-15 01:46:32			0	38116	0	0	0	19815	18420	133192	27407	974559	39402	107244	0	0	8359	566052	0	0
2024-05-15 01:47:32			0	38114	0	0	0	19802	18420	133204	27228	974559	39423	107239	0	0	8359	566132	0	0
2024-05-15 01:48:32			0	38119	0	0	0	19810	18410	133176	27429	974569	39412	107242	0	0	8359	565962	0	0
2024-05-15 01:49:32			0	38115	0	0	0	19807	18410	133144	27409	974551	39435	107241	0	0	8359	566123	0	0
2024-05-15 01:50:32			0	38118	0	0	0	19805	18410	133216	27421	974577	39423	107240	0	0	8359	566002	0	0
2024-05-15 01:51:32			0	38128	0	0	0	19807	18410	133092	27462	974524	39402	107241	0	0	8359	565601	0	0
2024-05-15 01:52:32			0	38114	0	0	0	19810	18410	133132	27556	974498	39413	107242	0	0	8359	566163	0	0
2024-05-15 01:53:32			0	38120	0	0	0	19802	18410	133120	27431	974516	39412	107239	0	0	8359	565922	0	0
2024-05-15 01:54:32			0	38123	0	0	0	19794	18400	133196	27421	974508	39423	107236	0	0	8359	565832	0	0
2024-05-15 01:55:32			0	38149	0	0	0	19805	18410	133180	27164	974543	39423	107240	0	0	8361	564757	0	0
2024-05-15 01:56:32			0	38150	0	0	0	19799	18400	133136	27473	974481	39401	107238	0	0	8361	564748	0	0
2024-05-15 01:57:32			0	38151	0	0	0	19799	18400	133188	27360	974455	39423	107238	0	0	8361	564707	0	0
2024-05-15 01:58:32			0	38129	0	0	0	19805	18400	133164	27377	974447	39412	107240	0	0	8360	565591	0	0
2024-05-15 01:59:32			0	38129	0	0	0	19802	18400	133208	27142	974481	39423	107239	0	0	8360	565591	0	0
2024-05-15 02:00:32			0	38127	0	0	0	19797	18400	133188	27189	974508	39423	107237	0	0	8360	565672	0	0
2024-05-15 02:01:32			0	38139	0	0	0	19797	18400	133140	27412	974526	39422	107237	0	0	8360	565189	0	0
2024-05-15 02:02:32			0	38142	0	0	0	19797	18400	133100	27209	974481	39412	107237	0	0	8360	565069	0	0
2024-05-15 02:03:32			0	38127	0	0	0	19786	18400	133092	27395	974481	39412	107233	0	0	8360	565672	0	0
2024-05-15 02:04:32			0	38146	0	0	0	19794	18410	133152	27455	974437	39423	107236	0	0	8361	564877	0	0
2024-05-15 02:05:32			0	38134	0	0	0	19792	18400	133096	27549	974402	39412	107235	0	0	8360	565390	0	0
2024-05-15 02:06:32			0	38163	0	0	0	19776	18390	133052	27377	974438	39411	107229	0	0	8362	564257	0	0
2024-05-15 02:07:32			0	38147	0	0	0	19794	18390	132976	27216	974438	39411	107236	0	0	8361	564899	0	0
2024-05-15 02:08:32			0	38153	0	0	0	19781	18400	132996	27383	974455	39412	107231	0	0	8361	564627	0	0
2024-05-15 02:09:32			0	38151	0	0	0	19784	18390	133004	27438	974412	39400	107232	0	0	8361	564738	0	0
2024-05-15 02:10:32			0	38145	0	0	0	19776	18380	133084	27248	974395	39410	107229	0	0	8361	565010	0	0
2024-05-15 02:11:32			0	38143	0	0	0	19776	18380	132976	27336	974395	39420	107229	0	0	8361	565090	0	0
2024-05-15 02:12:32			0	38165	0	0	0	19771	18380	133012	27178	974369	39410	107227	0	0	8362	564207	0	0
2024-05-15 02:13:32			0	38157	0	0	0	19768	18380	133076	27498	974361	39420	107226	0	0	8362	564528	0	0
2024-05-15 02:14:32			0	38166	0	0	0	19763	18370	133000	27377	974352	39409	107224	0	0	8362	564198	0	0
2024-05-15 02:15:32			0	38163	0	0	0	19758	18370	132980	27421	974299	39398	107222	0	0	8362	564318	0	0
2024-05-15 02:16:32			0	38183	0	0	0	19753	18370	132968	27552	974326	39398	107220	0	0	8363	563516	0	0
2024-05-15 02:17:32			0	38171	0	0	0	19753	18370	132940	27393	974318	39419	107220	0	0	8362	563997	0	0
2024-05-15 02:18:32			0	38160	0	0	0	19748	18370	132960	27284	974299	39419	107218	0	0	8362	564439	0	0
2024-05-15 02:19:32			0	38182	0	0	0	19742	18370	132952	27248	974291	39419	107216	0	0	8363	563556	0	0
2024-05-15 02:20:32			0	38190	0	0	0	19742	18360	132924	27497	974283	39408	107216	0	0	8364	563266	0	0
2024-05-15 02:21:32			0	38164	0	0	0	19745	18350	132960	27457	974292	39417	107217	0	0	8362	564340	0	0
2024-05-15 02:22:32			0	38172	0	0	0	19745	18370	132992	27334	974291	39409	107217	0	0	8363	563957	0	0
2024-05-15 02:23:32			0	38187	0	0	0	19748	18360	132904	27164	974336	39408	107218	0	0	8363	563386	0	0
2024-05-15 02:24:32			0	38177	0	0	0	19748	18360	132944	27161	974301	39408	107218	0	0	8363	563788	0	0
2024-05-15 02:25:32			0	38187	0	0	0	19742	18350	132976	27552	974266	39407	107216	0	0	8363	563417	0	0
2024-05-15 02:26:32			0	38206	0	0	0	19750	18360	132916	27261	974256	39408	107219	0	0	8364	562625	0	0
2024-05-15 02:27:32			0	38184	0	0	0	19745	18350	132956	27327	974231	39407	107217	0	0	8363	563538	0	0
2024-05-15 02:28:32			0	38180	0	0	0	19735	18360	132968	27758	974256	39430	107213	0	0	8363	563667	0	0
2024-05-15 02:29:32			0	38191	0	0	0	19748	18350	132908	27545	974319	39407	107218	0	0	8364	563257	0	0
2024-05-15 02:30:32			0	38185	0	0	0	19745	18360	132832	27270	974301	39408	107217	0	0	8363	563467	0	0
2024-05-15 02:31:32			0	38196	0	0	0	19745	18360	132940	27339	974248	39408	107217	0	0	8364	563026	0	0
2024-05-15 02:32:32			0	38199	0	0	0	19745	18350	132880	27592	974266	39407	107217	0	0	8364	562936	0	0
2024-05-15 02:33:32			0	38198	0	0	0	19737	18350	132908	27364	974231	39396	107214	0	0	8364	562976	0	0
2024-05-15 02:34:32			0	38202	0	0	0	19737	18340	132852	27493	974241	39406	107214	0	0	8364	562847	0	0
2024-05-15 02:35:32			0	38206	0	0	0	19740	18360	132796	27737	974275	39397	107215	0	0	8364	562625	0	0
2024-05-15 02:36:32			0	38202	0	0	0	19740	18350	132892	27499	974231	39407	107215	0	0	8364	562816	0	0
2024-05-15 02:37:32			0	38198	0	0	0	19732	18350	132860	27253	974240	39417	107212	0	0	8364	562976	0	0
2024-05-15 02:38:32			0	38207	0	0	0	19732	18350	132856	27466	974258	39417	107212	0	0	8365	562615	0	0
2024-05-15 02:39:32			0	38197	0	0	0	19740	18350	132888	27300	974284	39417	107215	0	0	8364	563016	0	0
2024-05-15 02:40:32			0	38202	0	0	0	19740	18350	132908	27079	974231	39407	107215	0	0	8364	562816	0	0
2024-05-15 02:41:32			0	38202	0	0	0	19737	18340	132848	27448	974249	39395	107214	0	0	8364	562847	0	0
2024-05-15 02:42:32			0	38204	0	0	0	19729	18350	132840	27350	974205	39407	107211	0	0	8365	562736	0	0
2024-05-15 02:43:32			0	38213	0	0	0	19732	18340	132912	27608	974223	39417	107212	0	0	8365	562406	0	0
2024-05-15 02:44:32			0	38203	0	0	0	19735	18340	132784	27455	974241	39406	107213	0	0	8364	562807	0	0
2024-05-15 02:45:32			0	38198	0	0	0	19737	18340	132872	27675	974162	39395	107214	0	0	8364	563007	0	0
2024-05-15 02:46:32			0	38177	0	0	0	19727	18340	132860	27102	974294	39417	107210	0	0	8363	563849	0	0
2024-05-15 02:47:32			0	38199	0	0	0	19732	18340	132812	27512	974223	39395	107212	0	0	8364	562967	0	0
2024-05-15 02:48:32			0	38211	0	0	0	19727	18340	132800	27357	974241	39406	107210	0	0	8365	562486	0	0
2024-05-15 02:49:32			0	38192	0	0	0	19724	18330	132812	27580	974225	39406	107209	0	0	8364	563278	0	0
2024-05-15 02:50:32			0	38205	0	0	0	19724	18330	132796	27627	974180	39406	107209	0	0	8365	562757	0	0
2024-05-15 02:51:32			0	38193	0	0	0	19716	18330	132824	27428	974233	39416	107206	0	0	8364	563238	0	0
2024-05-15 02:52:32			0	38224	0	0	0	19719	18330	132876	27164	974180	39416	107207	0	0	8366	561996	0	0
2024-05-15 02:53:32			0	38225	0	0	0	19716	18340	132868	27514	974249	39406	107206	0	0	8366	561925	0	0
2024-05-15 02:54:32			0	38193	0	0	0	19724	18330	132852	27154	974206	39416	107209	0	0	8364	563238	0	0
2024-05-15 02:55:32			0	38211	0	0	0	19714	18330	132840	27507	974180	39406	107205	0	0	8365	562517	0	0
2024-05-15 02:56:32			0	38195	0	0	0	19719	18330	132908	27640	974145	39406	107207	0	0	8364	563158	0	0
2024-05-15 02:57:32			0	38231	0	0	0	19724	18320	132892	27587	974155	39415	107209	0	0	8366	561747	0	0
2024-05-15 02:58:32			0	38228	0	0	0	19714	18330	132856	27601	974145	39406	107205	0	0	8366	561836	0	0
2024-05-15 02:59:32			0	38220	0	0	0	19719	18320	132828	27239	974163	39405	107207	0	0	8365	562187	0	0
2024-05-15 03:00:32			0	38230	0	0	0	19711	18320	132928	27163	974163	39405	107204	0	0	8366	561787	0	0
2024-05-15 03:01:32			0	38235	0	0	0	19703	18320	132908	27267	974155	39404	107201	0	0	8366	561587	0	0
2024-05-15 03:02:32			0	38211	0	0	0	19706	18320	132864	27291	974110	39405	107202	0	0	8365	562548	0	0
2024-05-15 03:03:32			0	38221	0	0	0	19693	18320	132824	27395	974102	39404	107197	0	0	8366	562147	0	0
2024-05-15 03:04:32			0	38228	0	0	0	19690	18310	132844	27038	974041	39393	107196	0	0	8366	561897	0	0
2024-05-15 03:05:32			0	38226	0	0	0	19659	18300	132780	27171	973963	39380	107184	0	0	8367	562008	0	0
2024-05-15 03:06:32			0	38227	0	0	0	19641	18290	132872	26920	973867	39369	107177	0	0	8367	561999	0	0
2024-05-15 03:07:32			0	38227	0	0	0	19625	18280	132856	27400	973780	39390	107171	0	0	8367	562030	0	0
2024-05-15 03:08:32			0	38224	0	0	0	19599	18260	132932	27031	973747	39377	107161	0	0	8367	562211	0	0
2024-05-15 03:09:32			0	38229	0	0	0	19579	18250	132872	27265	973757	39375	107153	0	0	8368	562041	0	0
2024-05-15 03:10:32			0	38246	0	0	0	19568	18240	132900	27396	973634	39387	107149	0	0	8369	561392	0	0
2024-05-15 03:11:32			0	38228	0	0	0	19550	18220	132776	27199	973548	39375	107142	0	0	8368	562174	0	0
2024-05-15 03:12:32			0	38225	0	0	0	19532	18210	132808	27261	973478	39362	107135	0	0	8368	562325	0	0
2024-05-15 03:13:32			0	38232	0	0	0	19519	18200	132916	27396	973409	39382	107130	0	0	8369	562075	0	0
2024-05-15 03:14:32			0	38231	0	0	0	19509	18170	132828	27400	973368	39381	107126	0	0	8369	562207	0	0
2024-05-15 03:15:32			0	38232	0	0	0	19503	18170	132772	27258	973341	39381	107124	0	0	8369	562167	0	0
2024-05-15 03:16:32			0	38243	0	0	0	19488	18160	132896	27326	973237	39369	107118	0	0	8370	561757	0	0
2024-05-15 03:17:32			0	38265	0	0	0	19470	18150	132944	27203	973247	39368	107111	0	0	8371	560907	0	0
2024-05-15 03:18:32			0	38234	0	0	0	19470	18130	132892	27869	973249	39377	107111	0	0	8370	562209	0	0
2024-05-15 03:19:32			0	38231	0	0	0	19464	18120	132844	27535	973179	39365	107109	0	0	8369	562360	0	0
2024-05-15 03:20:32			0	38255	0	0	0	19449	18110	132816	27623	973128	39353	107103	0	0	8371	561430	0	0
2024-05-15 03:21:32			0	38254	0	0	0	19433	18100	132860	27490	972987	39375	107097	0	0	8371	561500	0	0
2024-05-15 03:22:32			0	38227	0	0	0	19425	18090	132892	27711	972971	39340	107094	0	0	8370	562613	0	0
2024-05-15 03:23:32			0	38252	0	0	0	19410	18080	132832	27523	972954	39339	107088	0	0	8371	561642	0	0
2024-05-15 03:24:32			0	38236	0	0	0	19392	18070	132944	27447	972903	39372	107081	0	0	8371	562313	0	0
2024-05-15 03:25:32			0	38266	0	0	0	19381	18060	132912	27303	972833	39359	107077	0	0	8372	561143	0	0
2024-05-15 03:26:32			0	38248	0	0	0	19376	18050	133004	27566	972843	39358	107075	0	0	8372	561894	0	0
2024-05-15 03:27:32			0	38248	0	0	0	19368	18030	132960	27692	972784	39345	107072	0	0	8372	561955	0	0
2024-05-15 03:28:32			0	38234	0	0	0	19361	18030	132956	27378	972731	39356	107069	0	0	8371	562516	0	0
2024-05-15 03:29:32			0	38245	0	0	0	19337	18020	133052	27372	972723	39345	107060	0	0	8372	562106	0	0
2024-05-15 03:30:32			0	38254	0	0	0	19329	18000	133032	27320	972663	39355	107057	0	0	8372	561807	0	0
2024-05-15 03:31:32			0	38239	0	0	0	19337	18000	132988	27365	972655	39354	107060	0	0	8372	562408	0	0
2024-05-15 03:32:32			0	38226	0	0	0	19329	18000	133048	27332	972576	39343	107057	0	0	8371	562929	0	0
2024-05-15 03:33:32			0	38242	0	0	0	19324	17990	133016	27656	972585	39352	107055	0	0	8372	562318	0	0
2024-05-15 03:34:32			0	38254	0	0	0	19319	17980	132940	27405	972577	39352	107053	0	0	8373	561868	0	0
2024-05-15 03:35:32			0	38248	0	0	0	19319	17970	133000	27687	972507	39351	107053	0	0	8372	562139	0	0
2024-05-15 03:36:32			0	38248	0	0	0	19311	17960	132928	27291	972491	39339	107050	0	0	8372	562170	0	0
2024-05-15 03:37:32			0	38255	0	0	0	19316	17960	132944	27646	972544	39350	107052	0	0	8373	561889	0	0
2024-05-15 03:38:32			0	38240	0	0	0	19311	17960	132940	27635	972615	39339	107050	0	0	8372	562490	0	0
2024-05-15 03:39:32			0	38241	0	0	0	19314	17940	132976	27538	972458	39337	107051	0	0	8372	562512	0	0
2024-05-15 03:40:32			0	38237	0	0	0	19306	17950	133116	27429	972493	39349	107048	0	0	8372	562642	0	0
2024-05-15 03:41:32			0	38244	0	0	0	19309	17950	133112	27680	972440	39349	107049	0	0	8372	562361	0	0
2024-05-15 03:42:32			0	38257	0	0	0	19309	17940	133004	27518	972458	39360	107049	0	0	8373	561871	0	0
2024-05-15 03:43:32			0	38256	0	0	0	19298	17940	133040	27428	972537	39337	107045	0	0	8373	561911	0	0
2024-05-15 03:44:32			0	38243	0	0	0	19301	17940	133020	27824	972450	39349	107046	0	0	8372	562432	0	0
2024-05-15 03:45:32			0	38266	0	0	0	19296	17930	132912	27196	972433	39347	107044	0	0	8373	561541	0	0
2024-05-15 03:46:32			0	38251	0	0	0	19296	17930	133032	27267	972415	39348	107044	0	0	8373	562142	0	0
2024-05-15 03:47:32			0	38253	0	0	0	19301	17930	133072	27396	972460	39347	107046	0	0	8373	562062	0	0
2024-05-15 03:48:32			0	38267	0	0	0	19288	17920	132952	27319	972398	39326	107041	0	0	8374	561531	0	0
2024-05-15 03:49:32			0	38252	0	0	0	19301	17920	133016	27549	972345	39347	107046	0	0	8373	562132	0	0
2024-05-15 03:50:32			0	38240	0	0	0	19298	17920	133012	27357	972390	39335	107045	0	0	8372	562613	0	0
2024-05-15 03:51:32			0	38245	0	0	0	19280	17900	133048	27422	972426	39334	107038	0	0	8372	562474	0	0
2024-05-15 03:52:32			0	38266	0	0	0	19275	17910	132972	27410	972382	39335	107036	0	0	8374	561602	0	0
2024-05-15 03:53:32			0	38244	0	0	0	19285	17900	133012	27407	972374	39345	107040	0	0	8372	562514	0	0
2024-05-15 03:54:32			0	38253	0	0	0	19277	17910	132960	27429	972355	39335	107037	0	0	8373	562123	0	0
2024-05-15 03:55:32			0	38254	0	0	0	19277	17900	132988	27440	972374	39345	107037	0	0	8373	562113	0	0
2024-05-15 03:56:32			0	38254	0	0	0	19270	17900	133008	27436	972286	39356	107034	0	0	8373	562113	0	0
2024-05-15 03:57:32			0	38234	0	0	0	19267	17900	132932	27397	972286	39323	107033	0	0	8372	562915	0	0
2024-05-15 03:58:32			0	38261	0	0	0	19267	17890	133028	27339	972278	39344	107033	0	0	8373	561863	0	0
2024-05-15 03:59:32			0	38245	0	0	0	19270	17890	133024	27710	972349	39344	107034	0	0	8373	562505	0	0
2024-05-15 04:00:32			0	38243	0	0	0	19272	17890	132976	27313	972296	39356	107035	0	0	8372	562585	0	0
2024-05-15 04:01:32			0	38272	0	0	0	19264	17890	132960	27246	972251	39333	107032	0	0	8374	561423	0	0
2024-05-15 04:02:32			0	38254	0	0	0	19264	17890	132976	27333	972322	39344	107032	0	0	8373	562144	0	0
2024-05-15 04:03:32			0	38253	0	0	0	19262	17880	132992	27371	972288	39344	107031	0	0	8373	562215	0	0
2024-05-15 04:04:32			0	38216	0	0	0	19259	17880	133056	27462	972306	39332	107030	0	0	8371	563699	0	0
2024-05-15 04:05:32			0	38252	0	0	0	19262	17890	132980	27331	972322	39344	107031	0	0	8373	562224	0	0
2024-05-15 04:06:32			0	38261	0	0	0	19270	17880	133040	27360	972314	39322	107034	0	0	8373	561894	0	0
2024-05-15 04:07:32			0	38247	0	0	0	19262	17890	133040	27421	972269	39344	107031	0	0	8373	562425	0	0
2024-05-15 04:08:32			0	38236	0	0	0	19262	17880	132952	27386	972332	39343	107031	0	0	8372	562896	0	0
2024-05-15 04:09:32			0	38226	0	0	0	19262	17880	133044	27133	972314	39344	107031	0	0	8372	563297	0	0
2024-05-15 04:10:32			0	38238	0	0	0	19267	17880	133056	27150	972253	39354	107033	0	0	8372	562816	0	0
2024-05-15 04:11:32			0	38256	0	0	0	19262	17870	133056	27412	972271	39354	107031	0	0	8373	562125	0	0
2024-05-15 04:12:32			0	38252	0	0	0	19264	17870	133024	27267	972298	39343	107032	0	0	8373	562285	0	0
2024-05-15 04:13:32			0	38257	0	0	0	19262	17870	133060	27287	972316	39343	107031	0	0	8373	562085	0	0
2024-05-15 04:14:32			0	38249	0	0	0	19275	17880	133060	27374	972306	39343	107036	0	0	8373	562375	0	0
2024-05-15 04:15:32			0	38243	0	0	0	19275	17870	133000	27485	972298	39343	107036	0	0	8372	562646	0	0
2024-05-15 04:16:32			0	38234	0	0	0	19272	17880	133040	27289	972314	39333	107035	0	0	8372	562977	0	0
2024-05-15 04:17:32			0	38232	0	0	0	19272	17880	133124	27241	972288	39344	107035	0	0	8372	563057	0	0
2024-05-15 04:18:32			0	38242	0	0	0	19280	17890	133052	27511	972296	39333	107038	0	0	8372	562625	0	0
2024-05-15 04:19:32			0	38236	0	0	0	19264	17870	133052	27376	972298	39354	107032	0	0	8372	562927	0	0
2024-05-15 04:20:32			0	38241	0	0	0	19272	17880	133052	27235	972306	39343	107035	0	0	8372	562696	0	0
2024-05-15 04:21:32			0	38230	0	0	0	19272	17880	133088	27204	972279	39332	107035	0	0	8372	563137	0	0
2024-05-15 04:22:32			0	38233	0	0	0	19275	17880	133048	27235	972306	39332	107036	0	0	8372	563017	0	0
2024-05-15 04:23:32			0	38250	0	0	0	19272	17880	133004	27402	972314	39344	107035	0	0	8373	562335	0	0
2024-05-15 04:24:32			0	38243	0	0	0	19267	17880	133164	27554	972288	39333	107033	0	0	8372	562616	0	0
2024-05-15 04:25:32			0	38247	0	0	0	19272	17880	133076	27670	972288	39344	107035	0	0	8373	562455	0	0
2024-05-15 04:26:32			0	38250	0	0	0	19264	17880	132984	27530	972314	39355	107032	0	0	8373	562335	0	0
2024-05-15 04:27:32			0	38234	0	0	0	19262	17870	133068	27414	972271	39332	107031	0	0	8372	563007	0	0
2024-05-15 04:28:32			0	38225	0	0	0	19272	17880	133024	27705	972235	39344	107035	0	0	8371	563338	0	0
2024-05-15 04:29:32			0	38240	0	0	0	19270	17870	133052	27592	972298	39332	107034	0	0	8372	562766	0	0
2024-05-15 04:30:32			0	38228	0	0	0	19264	17870	133144	27410	972263	39354	107032	0	0	8372	563248	0	0
2024-05-15 04:31:32			0	38213	0	0	0	19270	17880	133204	27407	972279	39332	107034	0	0	8371	563819	0	0
2024-05-15 04:32:32			0	38238	0	0	0	19262	17880	133084	27659	972253	39343	107031	0	0	8372	562816	0	0
2024-05-15 04:33:32			0	38235	0	0	0	19270	17870	133008	27374	972245	39343	107034	0	0	8372	562967	0	0
2024-05-15 04:34:32			0	38235	0	0	0	19267	17880	133080	27294	972253	39343	107033	0	0	8372	562936	0	0
2024-05-15 04:35:32			0	38236	0	0	0	19270	17870	133132	27305	972210	39332	107034	0	0	8372	562927	0	0
2024-05-15 04:36:32			0	38221	0	0	0	19251	17880	133176	27744	972235	39344	107027	0	0	8372	563498	0	0
2024-05-15 04:37:32			0	38240	0	0	0	19251	17870	133108	27300	972192	39343	107027	0	0	8373	562766	0	0
2024-05-15 04:38:32			0	38223	0	0	0	19249	17860	133164	27677	972175	39332	107026	0	0	8372	563479	0	0
2024-05-15 04:39:32			0	38231	0	0	0	19241	17860	133120	27784	972167	39341	107023	0	0	8372	563158	0	0
2024-05-15 04:40:32			0	38227	0	0	0	19246	17850	133136	27479	972132	39331	107025	0	0	8372	563350	0	0
2024-05-15 04:41:32			0	38232	0	0	0	19231	17850	133140	27554	972124	39330	107019	0	0	8372	563149	0	0
2024-05-15 04:42:32			0	38220	0	0	0	19223	17840	133136	27312	972089	39340	107016	0	0	8372	563661	0	0
2024-05-15 04:43:32			0	38240	0	0	0	19215	17840	133120	27409	972081	39339	107013	0	0	8373	562858	0	0
2024-05-15 04:44:32			0	38240	0	0	0	19210	17840	133064	27298	972054	39339	107011	0	0	8373	562858	0	0
2024-05-15 04:45:32			0	38217	0	0	0	19207	17840	133112	27372	972107	39339	107010	0	0	8372	563782	0	0
2024-05-15 04:46:32			0	38240	0	0	0	19210	17820	132988	27279	971995	39327	107011	0	0	8373	562920	0	0
2024-05-15 04:47:32			0	38225	0	0	0	19197	17830	133040	27448	972011	39328	107006	0	0	8373	563491	0	0
2024-05-15 04:48:32			0	38232	0	0	0	19194	17820	133036	27467	972074	39316	107005	0	0	8373	563241	0	0
2024-05-15 04:49:32			0	38240	0	0	0	19192	17820	133096	27260	972021	39327	107004	0	0	8373	562920	0	0
2024-05-15 04:50:32			0	38218	0	0	0	19192	17810	133124	27521	971960	39315	107004	0	0	8372	563834	0	0
2024-05-15 04:51:32			0	38206	0	0	0	19189	17810	133092	27303	972013	39326	107003	0	0	8372	564316	0	0
2024-05-15 04:52:32			0	38242	0	0	0	19194	17800	133028	27324	971917	39314	107005	0	0	8373	562901	0	0
2024-05-15 04:53:32			0	38229	0	0	0	19189	17810	133132	27156	971978	39326	107003	0	0	8373	563392	0	0
2024-05-15 04:54:32			0	38217	0	0	0	19184	17810	133076	27448	971978	39337	107001	0	0	8372	563874	0	0
2024-05-15 04:55:32			0	38233	0	0	0	19179	17800	133120	27319	971970	39326	106999	0	0	8373	563262	0	0
2024-05-15 04:56:32			0	38223	0	0	0	19181	17810	133140	27258	971899	39315	107000	0	0	8373	563633	0	0
2024-05-15 04:57:32			0	38243	0	0	0	19184	17800	133116	27504	971935	39347	107001	0	0	8374	562861	0	0
2024-05-15 04:58:32			0	38228	0	0	0	19171	17790	133168	27334	971919	39314	106996	0	0	8373	563494	0	0
2024-05-15 04:59:32			0	38226	0	0	0	19166	17790	133096	27223	971892	39325	106994	0	0	8373	563574	0	0
2024-05-15 05:00:32			0	38214	0	0	0	19166	17790	133056	27183	971874	39325	106994	0	0	8372	564056	0	0
2024-05-15 05:01:32			0	38238	0	0	0	19168	17780	133200	27403	971831	39324	106995	0	0	8373	563123	0	0
2024-05-15 05:02:32			0	38211	0	0	0	19166	17790	133116	27355	971892	39325	106994	0	0	8372	564176	0	0
2024-05-15 05:03:32			0	38213	0	0	0	19166	17790	133184	27270	971919	39314	106994	0	0	8372	564096	0	0
2024-05-15 05:04:32			0	38211	0	0	0	19163	17780	133180	27474	971963	39334	106993	0	0	8372	564207	0	0
2024-05-15 05:05:32			0	38222	0	0	0	19176	17780	133216	27654	971884	39313	106998	0	0	8373	563765	0	0
2024-05-15 05:06:32			0	38216	0	0	0	19168	17780	133060	27694	971876	39324	106995	0	0	8372	564006	0	0
2024-05-15 05:07:32			0	38212	0	0	0	19171	17780	133116	27583	971902	39324	106996	0	0	8372	564167	0	0
2024-05-15 05:08:32			0	38234	0	0	0	19171	17770	133148	27326	971815	39333	106996	0	0	8373	563314	0	0
2024-05-15 05:09:32			0	38201	0	0	0	19166	17780	133184	27478	971797	39324	106994	0	0	8372	564609	0	0
2024-05-15 05:10:32			0	38221	0	0	0	19163	17780	133132	27341	971929	39334	106993	0	0	8373	563805	0	0
2024-05-15 05:11:32			0	38210	0	0	0	19158	17780	133140	27223	971884	39313	106991	0	0	8372	564247	0	0
2024-05-15 05:12:32			0	38203	0	0	0	19155	17770	133208	27578	971788	39333	106990	0	0	8372	564559	0	0
2024-05-15 05:13:32			0	38204	0	0	0	19155	17770	133188	27462	971894	39312	106990	0	0	8372	564519	0	0
2024-05-15 05:14:32			0	38214	0	0	0	19153	17760	133168	27537	971825	39322	106989	0	0	8372	564148	0	0
2024-05-15 05:15:32			0	38212	0	0	0	19153	17760	133176	27291	971816	39311	106989	0	0	8372	564228	0	0
2024-05-15 05:16:32			0	38201	0	0	0	19153	17760	133196	27185	971825	39333	106989	0	0	8372	564670	0	0
2024-05-15 05:17:32			0	38213	0	0	0	19145	17760	133316	27559	971825	39322	106986	0	0	8372	564188	0	0
2024-05-15 05:18:32			0	38206	0	0	0	19148	17760	133184	27393	971869	39311	106987	0	0	8372	564469	0	0
2024-05-15 05:19:32			0	38187	0	0	0	19150	17760	133224	27336	971798	39333	106988	0	0	8371	565233	0	0
2024-05-15 05:20:32			0	38212	0	0	0	19145	17770	133272	27265	971807	39312	106986	0	0	8372	564198	0	0
2024-05-15 05:21:32			0	38176	0	0	0	19135	17760	133228	27310	971790	39322	106982	0	0	8371	565676	0	0
2024-05-15 05:22:32			0	38186	0	0	0	19132	17760	133236	27760	971764	39322	106981	0	0	8371	565274	0	0
2024-05-15 05:23:32			0	38179	0	0	0	19129	17760	133232	27164	971764	39311	106980	0	0	8371	565555	0	0
2024-05-15 05:24:32			0	38210	0	0	0	19127	17740	133288	27367	971704	39331	106979	0	0	8373	564370	0	0
2024-05-15 05:25:32			0	38199	0	0	0	19124	17750	133268	27658	971747	39332	106978	0	0	8372	564782	0	0
2024-05-15 05:26:32			0	38194	0	0	0	19122	17730	133296	27312	971687	39308	106977	0	0	8372	565044	0	0
2024-05-15 05:27:32			0	38187	0	0	0	19119	17740	133332	27424	971686	39331	106976	0	0	8371	565295	0	0
2024-05-15 05:28:32			0	38213	0	0	0	19114	17740	133268	27341	971678	39319	106974	0	0	8373	564250	0	0
2024-05-15 05:29:32			0	38196	0	0	0	19111	17730	133288	27298	971696	39319	106973	0	0	8372	564964	0	0
2024-05-15 05:30:32			0	38199	0	0	0	19098	17720	133284	27737	971600	39330	106968	0	0	8372	564874	0	0
2024-05-15 05:31:32			0	38171	0	0	0	19109	17720	133268	27580	971618	39307	106972	0	0	8371	566001	0	0
2024-05-15 05:32:32			0	38193	0	0	0	19090	17720	133336	27414	971618	39307	106965	0	0	8372	565115	0	0
2024-05-15 05:33:32			0	38191	0	0	0	19103	17710	133296	27360	971610	39307	106970	0	0	8372	565226	0	0
2024-05-15 05:34:32			0	38211	0	0	0	19096	17710	133324	27064	971601	39306	106967	0	0	8373	564422	0	0
2024-05-15 05:35:32			0	38178	0	0	0	19088	17710	133384	27353	971628	39317	106964	0	0	8371	565750	0	0
2024-05-15 05:36:32			0	38170	0	0	0	19085	17700	133304	27306	971558	39327	106963	0	0	8371	566103	0	0
2024-05-15 05:37:32			0	38182	0	0	0	19083	17700	133384	27569	971620	39317	106962	0	0	8372	565619	0	0
2024-05-15 05:38:32			0	38186	0	0	0	19085	17710	133448	27561	971575	39328	106963	0	0	8372	565428	0	0
2024-05-15 05:39:32			0	38186	0	0	0	19083	17710	133356	27391	971549	39317	106962	0	0	8372	565428	0	0
2024-05-15 05:40:32			0	38181	0	0	0	19080	17710	133336	27850	971549	39317	106961	0	0	8372	565629	0	0
2024-05-15 05:41:32			0	38197	0	0	0	19077	17700	133380	27554	971540	39317	106960	0	0	8373	565016	0	0
2024-05-15 05:42:32			0	38191	0	0	0	19080	17690	133336	27332	971497	39316	106961	0	0	8372	565288	0	0
2024-05-15 05:43:32			0	38193	0	0	0	19080	17690	133252	27053	971463	39315	106961	0	0	8372	565208	0	0
2024-05-15 05:44:32			0	38170	0	0	0	19072	17690	133316	27372	971436	39326	106958	0	0	8371	566133	0	0
2024-05-15 05:45:32			0	38172	0	0	0	19067	17690	133380	27542	971550	39327	106956	0	0	8371	566053	0	0
2024-05-15 05:46:32			0	38159	0	0	0	19067	17680	133360	27762	971481	39315	106956	0	0	8371	566607	0	0
2024-05-15 05:47:32			0	38179	0	0	0	19059	17690	133356	27187	971489	39304	106953	0	0	8372	565771	0	0
2024-05-15 05:48:32			0	38178	0	0	0	19062	17690	133384	27161	971463	39304	106954	0	0	8372	565811	0	0
2024-05-15 05:49:32			0	38179	0	0	0	19057	17670	133336	27400	971411	39325	106952	0	0	8372	565833	0	0
2024-05-15 05:50:32			0	38171	0	0	0	19044	17670	133380	27322	971438	39313	106947	0	0	8372	566155	0	0
2024-05-15 05:51:32			0	38180	0	0	0	19054	17680	133440	27317	971428	39315	106951	0	0	8372	565761	0	0
2024-05-15 05:52:32			0	38170	0	0	0	19038	17660	133412	27358	971315	39302	106945	0	0	8372	566226	0	0
2024-05-15 05:53:32			0	38171	0	0	0	19044	17670	133440	27492	971376	39302	106947	0	0	8372	566155	0	0
2024-05-15 05:54:32			0	38166	0	0	0	19036	17660	133456	27410	971368	39313	106944	0	0	8371	566387	0	0
2024-05-15 05:55:32			0	38190	0	0	0	19036	17650	133444	27242	971352	39301	106944	0	0	8373	565451	0	0
2024-05-15 05:56:32			0	38178	0	0	0	19028	17650	133440	27836	971325	39301	106941	0	0	8372	565934	0	0
2024-05-15 05:57:32			0	38162	0	0	0	19018	17650	133456	27788	971370	39301	106937	0	0	8372	566579	0	0
2024-05-15 05:58:32			0	38176	0	0	0	19015	17650	133408	27282	971299	39323	106936	0	0	8372	566015	0	0
2024-05-15 05:59:32			0	38140	0	0	0	19015	17650	133424	27433	971264	39312	106936	0	0	8370	567466	0	0
2024-05-15 06:00:32			0	38163	0	0	0	19010	17640	133396	27642	971309	39301	106934	0	0	8372	566570	0	0
2024-05-15 06:01:32			0	38180	0	0	0	19015	17630	133464	27490	971239	39299	106936	0	0	8372	565915	0	0
2024-05-15 06:02:32			0	38141	0	0	0	19005	17630	133488	27384	971258	39310	106932	0	0	8371	567487	0	0
2024-05-15 06:03:32			0	38166	0	0	0	18999	17630	133464	27452	971231	39310	106930	0	0	8372	566479	0	0
2024-05-15 06:04:32			0	38175	0	0	0	18997	17630	133516	27225	971205	39289	106929	0	0	8372	566117	0	0
2024-05-15 06:05:32			0	38159	0	0	0	18992	17630	133496	27708	971258	39299	106927	0	0	8372	566762	0	0
2024-05-15 06:06:32			0	38165	0	0	0	18997	17610	133564	27393	971233	39308	106929	0	0	8372	566581	0	0
2024-05-15 06:07:32			0	38158	0	0	0	18981	17610	133524	27500	971180	39308	106923	0	0	8372	566863	0	0
2024-05-15 06:08:32			0	38165	0	0	0	18984	17600	133492	27668	971145	39307	106924	0	0	8372	566612	0	0
2024-05-15 06:09:32			0	38150	0	0	0	18987	17600	133488	27371	971171	39296	106925	0	0	8371	567217	0	0
2024-05-15 06:10:32			0	38181	0	0	0	18987	17590	133496	27514	971181	39307	106925	0	0	8373	565998	0	0
2024-05-15 06:11:32			0	38155	0	0	0	18984	17600	133540	27353	971163	39307	106924	0	0	8372	567015	0	0
2024-05-15 06:12:32			0	38165	0	0	0	18971	17590	133496	27713	971128	39286	106919	0	0	8372	566643	0	0
2024-05-15 06:13:32			0	38157	0	0	0	18974	17590	133604	27481	971041	39295	106920	0	0	8372	566965	0	0
2024-05-15 06:14:32			0	38140	0	0	0	18966	17580	133468	27490	971059	39284	106917	0	0	8371	567682	0	0
2024-05-15 06:15:32			0	38154	0	0	0	18971	17590	133524	27346	971067	39295	106919	0	0	8372	567087	0	0
2024-05-15 06:16:32			0	38163	0	0	0	18971	17590	133488	27556	971067	39318	106919	0	0	8372	566724	0	0
2024-05-15 06:17:32			0	38147	0	0	0	18963	17590	133544	27713	971094	39307	106916	0	0	8371	567369	0	0
2024-05-15 06:18:32			0	38159	0	0	0	18963	17580	133448	27414	971138	39317	106916	0	0	8372	566916	0	0
2024-05-15 06:19:32			0	38163	0	0	0	18963	17570	133488	27500	970963	39306	106916	0	0	8372	566785	0	0
2024-05-15 06:20:32			0	38141	0	0	0	18955	17570	133528	27831	971095	39306	106913	0	0	8371	567673	0	0
2024-05-15 06:21:32			0	38175	0	0	0	18953	17570	133584	27431	971069	39306	106912	0	0	8373	566302	0	0
2024-05-15 06:22:32			0	38145	0	0	0	18953	17580	133548	27613	971077	39294	106912	0	0	8371	567480	0	0
2024-05-15 06:23:32			0	38163	0	0	0	18950	17570	133552	27424	971087	39283	106911	0	0	8372	566785	0	0
2024-05-15 06:24:32			0	38149	0	0	0	18950	17570	133572	27959	971034	39305	106911	0	0	8372	567350	0	0
2024-05-15 06:25:32			0	38140	0	0	0	18945	17570	133488	27613	971061	39305	106909	0	0	8371	567713	0	0
2024-05-15 06:26:32			0	38159	0	0	0	18950	17570	133524	27654	971034	39305	106911	0	0	8372	566947	0	0
2024-05-15 06:27:32			0	38152	0	0	0	18948	17560	133640	27717	970947	39304	106910	0	0	8372	567260	0	0
2024-05-15 06:28:32			0	38137	0	0	0	18953	17560	133592	27535	971018	39304	106912	0	0	8371	567865	0	0
2024-05-15 06:29:32			0	38150	0	0	0	18950	17560	133640	27405	971026	39293	106911	0	0	8372	567340	0	0
2024-05-15 06:30:32			0	38158	0	0	0	18948	17560	133512	27750	971053	39293	106910	0	0	8372	567018	0	0
2024-05-15 06:31:32			0	38153	0	0	0	18958	17560	133584	27661	971053	39304	106914	0	0	8372	567219	0	0
2024-05-15 06:32:32			0	38148	0	0	0	18953	17560	133672	27812	971105	39304	106912	0	0	8372	567421	0	0
2024-05-15 06:33:32			0	38139	0	0	0	18971	17570	133584	27798	971061	39316	106919	0	0	8371	567753	0	0
2024-05-15 06:34:32			0	38145	0	0	0	18976	17580	133568	27805	971165	39306	106921	0	0	8371	567480	0	0
2024-05-15 06:35:32			0	38147	0	0	0	18999	17590	133616	27476	971173	39307	106930	0	0	8371	567369	0	0
2024-05-15 06:36:32			0	38143	0	0	0	19015	17590	133644	27663	971234	39296	106936	0	0	8370	567530	0	0
2024-05-15 06:37:32			0	38136	0	0	0	19020	17580	133632	27642	971218	39306	106938	0	0	8370	567843	0	0
2024-05-15 06:38:32			0	38129	0	0	0	19025	17590	133668	27699	971287	39307	106940	0	0	8369	568095	0	0
2024-05-15 06:39:32			0	38127	0	0	0	19033	17600	133748	27526	971303	39319	106943	0	0	8369	568145	0	0
2024-05-15 06:40:32			0	38133	0	0	0	19038	17600	133640	27396	971303	39296	106945	0	0	8369	567903	0	0
2024-05-15 06:41:32			0	38155	0	0	0	19036	17600	133644	27414	971330	39307	106944	0	0	8371	567015	0	0
2024-05-15 06:42:32			0	38143	0	0	0	19041	17630	133728	27448	971292	39310	106946	0	0	8370	567407	0	0
2024-05-15 06:43:32			0	38124	0	0	0	19044	17610	133652	27350	971373	39309	106947	0	0	8369	568235	0	0
2024-05-15 06:44:32			0	38139	0	0	0	19033	17610	133680	27640	971285	39297	106943	0	0	8370	567630	0	0
2024-05-15 06:45:32			0	38121	0	0	0	19041	17610	133640	27729	971259	39308	106946	0	0	8369	568356	0	0
2024-05-15 06:46:32			0	38130	0	0	0	19033	17630	133624	27360	971310	39321	106943	0	0	8369	567931	0	0
2024-05-15 06:47:32			0	38134	0	0	0	19031	17610	133600	27338	971233	39308	106942	0	0	8370	567832	0	0
2024-05-15 06:48:32			0	38132	0	0	0	19025	17630	133620	27679	971213	39299	106940	0	0	8370	567850	0	0
2024-05-15 06:49:32			0	38124	0	0	0	19020	17620	133628	27298	971302	39309	106938	0	0	8369	568204	0	0
2024-05-15 06:50:32			0	38137	0	0	0	19015	17610	133636	27607	971259	39308	106936	0	0	8370	567710	0	0
2024-05-15 06:51:32			0	38127	0	0	0	19018	17610	133692	27433	971233	39319	106937	0	0	8370	568114	0	0
2024-05-15 06:52:32			0	38133	0	0	0	19015	17610	133604	27227	971320	39298	106936	0	0	8370	567872	0	0
2024-05-15 06:53:32			0	38120	0	0	0	19010	17610	133556	27358	971241	39309	106934	0	0	8369	568397	0	0
2024-05-15 06:54:32			0	38137	0	0	0	19015	17620	133652	27332	971249	39309	106936	0	0	8370	567680	0	0
2024-05-15 06:55:32			0	38133	0	0	0	19010	17610	133712	27550	971268	39298	106934	0	0	8370	567872	0	0
2024-05-15 06:56:32			0	38112	0	0	0	18997	17600	133732	27339	971224	39307	106929	0	0	8369	568751	0	0
2024-05-15 06:57:32			0	38141	0	0	0	19005	17620	133656	27576	971223	39309	106932	0	0	8371	567518	0	0
2024-05-15 06:58:32			0	38142	0	0	0	19007	17600	133660	27585	971198	39319	106933	0	0	8370	567540	0	0
2024-05-15 06:59:32			0	38133	0	0	0	19002	17610	133708	27326	971233	39297	106931	0	0	8370	567872	0	0
2024-05-15 07:00:32			0	38116	0	0	0	18987	17610	133608	27216	971206	39319	106925	0	0	8369	568558	0	0
2024-05-15 07:01:32			0	38118	0	0	0	18981	17600	133580	27538	971110	39296	106923	0	0	8370	568508	0	0
2024-05-15 07:02:32			0	38124	0	0	0	18971	17600	133668	27322	971145	39307	106919	0	0	8370	568266	0	0
2024-05-15 07:03:32			0	38104	0	0	0	18971	17590	133656	27284	971128	39296	106919	0	0	8369	569105	0	0
2024-05-15 07:04:32			0	38129	0	0	0	18971	17590	133624	27592	971155	39307	106919	0	0	8370	568095	0	0
2024-05-15 07:05:32			0	38117	0	0	0	18976	17600	133640	27531	971171	39296	106921	0	0	8370	568549	0	0
2024-05-15 07:06:32			0	38120	0	0	0	18981	17590	133636	27545	971181	39307	106923	0	0	8370	568459	0	0
2024-05-15 07:07:32			0	38098	0	0	0	18971	17590	133668	27201	971128	39307	106919	0	0	8369	569347	0	0
2024-05-15 07:08:32			0	38128	0	0	0	18971	17600	133624	27412	971242	39296	106919	0	0	8370	568105	0	0
2024-05-15 07:09:32			0	38146	0	0	0	18976	17600	133680	27502	971137	39286	106921	0	0	8371	567378	0	0
2024-05-15 07:10:32			0	38096	0	0	0	18976	17600	133640	27517	971190	39296	106921	0	0	8369	569397	0	0
2024-05-15 07:11:32			0	38119	0	0	0	18968	17600	133640	27514	971110	39296	106918	0	0	8370	568468	0	0
2024-05-15 07:12:32			0	38101	0	0	0	18976	17590	133704	27571	971200	39295	106921	0	0	8369	569226	0	0
2024-05-15 07:13:32			0	38118	0	0	0	18981	17590	133600	27300	971173	39295	106923	0	0	8370	568539	0	0
2024-05-15 07:14:32			0	38133	0	0	0	18979	17590	133688	27549	971155	39307	106922	0	0	8370	567934	0	0
2024-05-15 07:15:32			0	38124	0	0	0	18992	17600	133728	27587	971198	39307	106927	0	0	8370	568266	0	0
2024-05-15 07:16:32			0	38123	0	0	0	18992	17600	133776	27204	971190	39307	106927	0	0	8370	568306	0	0
2024-05-15 07:17:32			0	38118	0	0	0	18994	17600	133704	27183	971277	39319	106928	0	0	8369	568508	0	0
2024-05-15 07:18:32			0	38109	0	0	0	18997	17600	133732	27339	971242	39307	106929	0	0	8369	568872	0	0
2024-05-15 07:19:32			0	38126	0	0	0	19005	17610	133672	27263	971206	39319	106932	0	0	8370	568154	0	0
2024-05-15 07:20:32			0	38132	0	0	0	18999	17610	133756	27409	971241	39320	106930	0	0	8370	567912	0	0
2024-05-15 07:21:32			0	38120	0	0	0	18997	17610	133656	27313	971268	39309	106929	0	0	8369	568397	0	0
2024-05-15 07:22:32			0	38117	0	0	0	18997	17610	133692	27279	971206	39308	106929	0	0	8369	568518	0	0
2024-05-15 07:23:32			0	38091	0	0	0	18989	17610	133764	27223	971188	39288	106926	0	0	8368	569568	0	0
2024-05-15 07:24:32			0	38102	0	0	0	18994	17610	133692	27310	971206	39308	106928	0	0	8369	569124	0	0
2024-05-15 07:25:32			0	38099	0	0	0	18987	17600	133656	27407	971171	39307	106925	0	0	8369	569276	0	0
2024-05-15 07:26:32			0	38112	0	0	0	18984	17600	133640	27138	971198	39307	106924	0	0	8369	568751	0	0
2024-05-15 07:27:32			0	38084	0	0	0	18979	17610	133632	27473	971259	39308	106922	0	0	8368	569852	0	0
2024-05-15 07:28:32			0	38090	0	0	0	18987	17600	133696	27310	971224	39307	106925	0	0	8368	569640	0	0
2024-05-15 07:29:32			0	38101	0	0	0	18979	17600	133684	27324	971242	39307	106922	0	0	8369	569195	0	0
2024-05-15 07:30:32			0	38097	0	0	0	18981	17600	133680	27409	971198	39296	106923	0	0	8369	569357	0	0
2024-05-15 07:31:32			0	38095	0	0	0	18981	17600	133744	27450	971251	39296	106923	0	0	8368	569438	0	0
2024-05-15 07:32:32			0	38093	0	0	0	18987	17600	133732	27270	971224	39307	106925	0	0	8368	569519	0	0
2024-05-15 07:33:32			0	38071	0	0	0	18994	17610	133732	27270	971233	39319	106928	0	0	8367	570377	0	0
2024-05-15 07:34:32			0	38076	0	0	0	19002	17610	133744	27279	971285	39308	106931	0	0	8367	570175	0	0
2024-05-15 07:35:32			0	38107	0	0	0	19007	17620	133728	27242	971249	39320	106933	0	0	8369	568891	0	0
2024-05-15 07:36:32			0	38107	0	0	0	19002	17610	133740	27360	971233	39287	106931	0	0	8369	568922	0	0
2024-05-15 07:37:32			0	38097	0	0	0	19010	17610	133712	27391	971294	39309	106934	0	0	8368	569326	0	0
2024-05-15 07:38:32			0	38074	0	0	0	19010	17630	133728	27201	971310	39310	106934	0	0	8367	570194	0	0
2024-05-15 07:39:32			0	38095	0	0	0	19015	17630	133804	27319	971319	39310	106936	0	0	8368	569345	0	0
2024-05-15 07:40:32			0	38085	0	0	0	19015	17620	133816	27462	971276	39309	106936	0	0	8367	569780	0	0
2024-05-15 07:41:32			0	38075	0	0	0	19015	17630	133776	27128	971266	39310	106936	0	0	8367	570154	0	0
2024-05-15 07:42:32			0	38077	0	0	0	19015	17630	133752	27249	971310	39310	106936	0	0	8367	570073	0	0
2024-05-15 07:43:32			0	38072	0	0	0	19005	17640	133832	27190	971274	39311	106932	0	0	8367	570244	0	0
2024-05-15 07:44:32			0	38091	0	0	0	19005	17620	133852	27403	971276	39320	106932	0	0	8368	569537	0	0
2024-05-15 07:45:32			0	38063	0	0	0	19010	17630	133776	27260	971258	39310	106934	0	0	8366	570639	0	0
2024-05-15 07:46:32			0	38067	0	0	0	19012	17630	133856	27234	971266	39299	106935	0	0	8367	570477	0	0
2024-05-15 07:47:32			0	38077	0	0	0	19012	17630	133880	27267	971310	39310	106935	0	0	8367	570073	0	0
2024-05-15 07:48:32			0	38088	0	0	0	19007	17630	133860	27270	971319	39310	106933	0	0	8368	569628	0	0
2024-05-15 07:49:32			0	38059	0	0	0	19010	17630	133792	27170	971310	39299	106934	0	0	8366	570801	0	0
2024-05-15 07:50:32			0	38068	0	0	0	19012	17630	133856	27625	971345	39310	106935	0	0	8367	570437	0	0
2024-05-15 07:51:32			0	38069	0	0	0	19012	17610	133852	27582	971268	39298	106935	0	0	8367	570458	0	0
2024-05-15 07:52:32			0	38080	0	0	0	19002	17630	133876	27426	971292	39310	106931	0	0	8367	569951	0	0
2024-05-15 07:53:32			0	38061	0	0	0	19012	17630	133920	27498	971319	39310	106935	0	0	8366	570720	0	0
2024-05-15 07:54:32			0	38059	0	0	0	19007	17630	133796	27277	971284	39299	106933	0	0	8366	570801	0	0
2024-05-15 07:55:32			0	38061	0	0	0	19007	17630	133900	27209	971363	39299	106933	0	0	8366	570720	0	0
2024-05-15 07:56:32			0	38046	0	0	0	19010	17620	133900	27199	971355	39309	106934	0	0	8365	571359	0	0
2024-05-15 07:57:32			0	38052	0	0	0	19005	17620	133864	27611	971302	39298	106932	0	0	8366	571116	0	0
2024-05-15 07:58:32			0	38044	0	0	0	19007	17640	133908	27436	971353	39300	106933	0	0	8365	571377	0	0
2024-05-15 07:59:32			0	38052	0	0	0	19012	17630	133852	27364	971292	39310	106935	0	0	8366	571085	0	0
2024-05-15 08:00:32			0	38042	0	0	0	19015	17630	133912	27587	971292	39332	106936	0	0	8365	571490	0	0
2024-05-15 08:01:32			0	38031	0	0	0	19015	17630	133968	27144	971258	39310	106936	0	0	8365	571935	0	0
2024-05-15 08:02:32			0	38067	0	0	0	19020	17630	133968	27294	971372	39310	106938	0	0	8366	570477	0	0
2024-05-15 08:03:32			0	38052	0	0	0	19018	17630	133960	27124	971345	39299	106937	0	0	8366	571085	0	0
2024-05-15 08:04:32			0	38050	0	0	0	19023	17640	133896	27156	971406	39300	106939	0	0	8366	571134	0	0
2024-05-15 08:05:32			0	38055	0	0	0	19031	17650	133964	27556	971343	39312	106942	0	0	8366	570901	0	0
2024-05-15 08:06:32			0	38058	0	0	0	19025	17650	133924	27417	971343	39323	106940	0	0	8366	570780	0	0
2024-05-15 08:07:32			0	38027	0	0	0	19033	17650	133843	27274	971396	39323	106943	0	0	8364	572035	0	0
2024-05-15 08:08:32			0	38053	0	0	0	19028	17650	133948	27182	971378	39312	106941	0	0	8366	570982	0	0
2024-05-15 08:09:32			0	38042	0	0	0	19031	17650	133916	27362	971449	39312	106942	0	0	8365	571427	0	0
2024-05-15 08:10:32			0	38041	0	0	0	19033	17640	133884	26963	971327	39311	106943	0	0	8365	571499	0	0
2024-05-15 08:11:32			0	38036	0	0	0	19033	17650	133916	27320	971343	39312	106943	0	0	8365	571670	0	0
2024-05-15 08:12:32			0	38035	0	0	0	19031	17650	133896	27343	971449	39323	106942	0	0	8365	571711	0	0
2024-05-15 08:13:32			0	38015	0	0	0	19033	17640	134111	27185	971362	39312	106943	0	0	8364	572553	0	0
2024-05-15 08:14:32			0	38021	0	0	0	19028	17640	134019	27194	971362	39312	106941	0	0	8364	572310	0	0
2024-05-15 08:15:32			0	38030	0	0	0	19033	17650	133963	27486	971352	39323	106943	0	0	8364	571914	0	0
2024-05-15 08:16:32			0	38017	0	0	0	19038	17650	134003	27405	971317	39312	106945	0	0	8364	572441	0	0
2024-05-15 08:17:32			0	38041	0	0	0	19023	17640	133960	27300	971362	39301	106939	0	0	8365	571499	0	0
2024-05-15 08:18:32			0	38044	0	0	0	19031	17650	134000	27395	971423	39312	106942	0	0	8365	571346	0	0
2024-05-15 08:19:32			0	38024	0	0	0	19036	17650	134027	27211	971396	39312	106944	0	0	8364	572157	0	0
2024-05-15 08:20:32			0	38020	0	0	0	19025	17650	133971	27568	971370	39323	106940	0	0	8364	572319	0	0
2024-05-15 08:21:32			0	38038	0	0	0	19028	17640	133964	27012	971335	39312	106941	0	0	8365	571621	0	0
2024-05-15 08:22:32			0	38033	0	0	0	19031	17650	134019	27438	971370	39301	106942	0	0	8365	571792	0	0
2024-05-15 08:23:32			0	38033	0	0	0	19023	17650	133992	27812	971343	39301	106939	0	0	8365	571792	0	0
2024-05-15 08:24:32			0	38030	0	0	0	19028	17650	133888	27440	971396	39312	106941	0	0	8364	571914	0	0
2024-05-15 08:25:32			0	38018	0	0	0	19028	17640	133972	27339	971327	39311	106941	0	0	8364	572431	0	0
2024-05-15 08:26:32			0	38018	0	0	0	19033	17630	134103	27543	971398	39299	106943	0	0	8364	572462	0	0
2024-05-15 08:27:32			0	38030	0	0	0	19028	17630	133923	27698	971372	39310	106941	0	0	8364	571976	0	0
2024-05-15 08:28:32			0	38039	0	0	0	19028	17630	133932	27410	971319	39332	106941	0	0	8365	571611	0	0
2024-05-15 08:29:32			0	38016	0	0	0	19025	17640	134035	27313	971327	39322	106940	0	0	8364	572512	0	0
2024-05-15 08:30:32			0	37996	0	0	0	19028	17650	133987	27538	971396	39312	106941	0	0	8363	573293	0	0
2024-05-15 08:31:32			0	38018	0	0	0	19018	17650	133999	27277	971317	39312	106937	0	0	8364	572400	0	0
2024-05-15 08:32:32			0	38021	0	0	0	19023	17650	134011	27227	971396	39323	106939	0	0	8364	572279	0	0
2024-05-15 08:33:32			0	38034	0	0	0	19028	17630	134084	27429	971319	39321	106941	0	0	8365	571814	0	0
2024-05-15 08:34:32			0	38033	0	0	0	19025	17640	134067	27438	971353	39311	106940	0	0	8365	571823	0	0
2024-05-15 08:35:32			0	38026	0	0	0	19028	17640	134031	27142	971327	39311	106941	0	0	8364	572107	0	0
2024-05-15 08:36:32			0	38010	0	0	0	19020	17630	133983	27438	971363	39310	106938	0	0	8363	572787	0	0
2024-05-15 08:37:32			0	38013	0	0	0	19028	17640	133971	27516	971362	39323	106941	0	0	8363	572634	0	0
2024-05-15 08:38:32			0	38022	0	0	0	19023	17640	133963	27376	971362	39301	106939	0	0	8364	572269	0	0
2024-05-15 08:39:32			0	38008	0	0	0	19020	17640	134007	27429	971362	39312	106938	0	0	8363	572837	0	0
2024-05-15 08:40:32			0	37998	0	0	0	19023	17640	134059	27670	971380	39322	106939	0	0	8363	573243	0	0
2024-05-15 08:41:32			0	37991	0	0	0	19018	17630	134011	27452	971319	39310	106937	0	0	8362	573558	0	0
2024-05-15 08:42:32			0	38026	0	0	0	19015	17640	134031	27332	971388	39301	106936	0	0	8364	572107	0	0
2024-05-15 08:43:32			0	38013	0	0	0	19015	17640	133995	27199	971388	39312	106936	0	0	8364	572634	0	0
2024-05-15 08:44:32			0	38000	0	0	0	19023	17630	134043	27364	971292	39310	106939	0	0	8363	573193	0	0
2024-05-15 08:45:32			0	38013	0	0	0	19012	17640	133971	27275	971380	39311	106935	0	0	8364	572634	0	0
2024-05-15 08:46:32			0	38012	0	0	0	19012	17630	134095	27613	971310	39321	106935	0	0	8364	572706	0	0
2024-05-15 08:47:32			0	38010	0	0	0	19015	17620	134039	27436	971329	39320	106936	0	0	8363	572818	0	0
2024-05-15 08:48:32			0	37997	0	0	0	19007	17630	133983	27741	971363	39321	106933	0	0	8363	573315	0	0
2024-05-15 08:49:32			0	38027	0	0	0	19015	17620	134043	27412	971355	39298	106936	0	0	8364	572129	0	0
2024-05-15 08:50:32			0	37991	0	0	0	19012	17630	133975	27352	971337	39310	106935	0	0	8363	573558	0	0
2024-05-15 08:51:32			0	38011	0	0	0	19012	17630	134071	27588	971292	39310	106935	0	0	8364	572746	0	0
2024-05-15 08:52:32			0	38009	0	0	0	19012	17640	134067	27717	971380	39322	106935	0	0	8364	572796	0	0
2024-05-15 08:53:32			0	38006	0	0	0	19020	17630	134087	27899	971319	39332	106938	0	0	8363	572949	0	0
2024-05-15 08:54:32			0	38008	0	0	0	19015	17630	134023	27395	971292	39299	106936	0	0	8363	572868	0	0
2024-05-15 08:55:32			0	38007	0	0	0	19012	17620	134087	27407	971355	39320	106935	0	0	8363	572940	0	0
2024-05-15 08:56:32			0	37998	0	0	0	19018	17610	134051	27443	971294	39320	106937	0	0	8363	573336	0	0
2024-05-15 08:57:32			0	38016	0	0	0	19018	17630	134039	27327	971363	39310	106937	0	0	8364	572544	0	0
2024-05-15 08:58:32			0	37977	0	0	0	19018	17630	134039	27569	971292	39332	106937	0	0	8362	574127	0	0
2024-05-15 08:59:32			0	38012	0	0	0	19023	17630	134047	27265	971337	39310	106939	0	0	8363	572706	0	0
2024-05-15 09:00:32			0	38006	0	0	0	19012	17630	134071	27531	971337	39310	106935	0	0	8363	572949	0	0
2024-05-15 09:01:32			0	38009	0	0	0	19020	17630	134007	27575	971337	39321	106938	0	0	8363	572828	0	0
2024-05-15 09:02:32			0	38004	0	0	0	19012	17630	134059	27457	971292	39299	106935	0	0	8363	573030	0	0
2024-05-15 09:03:32			0	38023	0	0	0	19010	17620	134019	27293	971302	39309	106934	0	0	8364	572291	0	0
2024-05-15 09:04:32			0	38007	0	0	0	19020	17630	134123	27512	971372	39321	106938	0	0	8363	572909	0	0
2024-05-15 09:05:32			0	37980	0	0	0	19012	17640	134051	27454	971380	39311	106935	0	0	8362	573974	0	0
2024-05-15 09:06:32			0	37992	0	0	0	19012	17630	134023	27343	971345	39299	106935	0	0	8363	573518	0	0
2024-05-15 09:07:32			0	37995	0	0	0	19018	17630	133999	27422	971284	39310	106937	0	0	8363	573396	0	0
2024-05-15 09:08:32			0	37976	0	0	0	19023	17630	134039	27429	971310	39310	106939	0	0	8362	574168	0	0
2024-05-15 09:09:32			0	37997	0	0	0	19018	17630	134055	27514	971266	39310	106937	0	0	8363	573315	0	0
2024-05-15 09:10:32			0	38003	0	0	0	19012	17630	134027	27658	971337	39310	106935	0	0	8363	573071	0	0
2024-05-15 09:11:32			0	38002	0	0	0	19023	17630	134023	27575	971337	39310	106939	0	0	8363	573112	0	0
2024-05-15 09:12:32			0	38008	0	0	0	19018	17630	134043	27599	971345	39299	106937	0	0	8363	572868	0	0
2024-05-15 09:13:32			0	37993	0	0	0	19023	17630	134047	27350	971398	39310	106939	0	0	8362	573477	0	0
2024-05-15 09:14:32			0	37990	0	0	0	19005	17620	134055	27376	971329	39309	106932	0	0	8363	573630	0	0
2024-05-15 09:15:32			0	37997	0	0	0	19015	17630	133999	27531	971337	39321	106936	0	0	8363	573315	0	0
2024-05-15 09:16:32			0	37991	0	0	0	19023	17630	134063	27511	971345	39321	106939	0	0	8362	573558	0	0
2024-05-15 09:17:32			0	37989	0	0	0	19031	17630	134039	27511	971390	39321	106942	0	0	8362	573640	0	0
2024-05-15 09:18:32			0	37995	0	0	0	19023	17640	134111	27388	971327	39322	106939	0	0	8363	573365	0	0
2024-05-15 09:19:32			0	37993	0	0	0	19018	17640	133979	27438	971327	39333	106937	0	0	8363	573446	0	0
2024-05-15 09:20:32			0	37973	0	0	0	19028	17640	134047	27632	971380	39311	106941	0	0	8361	574258	0	0
2024-05-15 09:21:32			0	37988	0	0	0	19025	17640	134011	27469	971353	39311	106940	0	0	8362	573649	0	0
2024-05-15 09:22:32			0	37997	0	0	0	19033	17640	134075	27324	971353	39322	106943	0	0	8363	573283	0	0
2024-05-15 09:23:32			0	37965	0	0	0	19033	17640	134039	27341	971433	39322	106943	0	0	8361	574583	0	0
2024-05-15 09:24:32			0	37983	0	0	0	19028	17640	134135	27769	971309	39333	106941	0	0	8362	573852	0	0
2024-05-15 09:25:32			0	37972	0	0	0	19031	17640	133999	27545	971406	39311	106942	0	0	8361	574299	0	0
2024-05-15 09:26:32			0	38002	0	0	0	19018	17630	134015	27215	971345	39310	106937	0	0	8363	573112	0	0
2024-05-15 09:27:32			0	37982	0	0	0	19015	17630	134067	27275	971337	39310	106936	0	0	8362	573924	0	0
2024-05-15 09:28:32			0	37997	0	0	0	19018	17640	134159	27015	971327	39311	106937	0	0	8363	573283	0	0
2024-05-15 09:29:32			0	37979	0	0	0	19018	17630	134047	27317	971319	39321	106937	0	0	8362	574046	0	0
2024-05-15 09:30:32			0	37986	0	0	0	19020	17630	134047	27227	971319	39299	106938	0	0	8362	573761	0	0
2024-05-15 09:31:32			0	37969	0	0	0	19025	17630	134083	27310	971258	39310	106940	0	0	8361	574452	0	0
2024-05-15 09:32:32			0	37988	0	0	0	19025	17640	134091	27601	971380	39311	106940	0	0	8362	573649	0	0
2024-05-15 09:33:32			0	37988	0	0	0	19025	17640	134119	27642	971380	39322	106940	0	0	8362	573649	0	0
2024-05-15 09:34:32			0	37989	0	0	0	19023	17640	134047	27587	971327	39322	106939	0	0	8362	573608	0	0
2024-05-15 09:35:32			0	38007	0	0	0	19023	17640	134147	27357	971362	39312	106939	0	0	8363	572878	0	0
2024-05-15 09:36:32			0	37991	0	0	0	19020	17630	134023	27164	971372	39321	106938	0	0	8362	573558	0	0
2024-05-15 09:37:32			0	37972	0	0	0	19025	17640	134103	27294	971406	39311	106940	0	0	8361	574299	0	0
2024-05-15 09:38:32			0	37998	0	0	0	19025	17640	134091	27199	971301	39311	106940	0	0	8363	573243	0	0
2024-05-15 09:39:32			0	37984	0	0	0	19023	17640	134043	27473	971353	39322	106939	0	0	8362	573811	0	0
2024-05-15 09:40:32			0	37988	0	0	0	19025	17640	134119	27585	971353	39322	106940	0	0	8362	573649	0	0
2024-05-15 09:41:32			0	37978	0	0	0	19025	17640	134051	27234	971362	39312	106940	0	0	8362	574055	0	0
2024-05-15 09:42:32			0	37986	0	0	0	19015	17630	133999	27478	971319	39321	106936	0	0	8362	573761	0	0
2024-05-15 09:43:32			0	37975	0	0	0	19012	17630	134131	27393	971310	39321	106935	0	0	8362	574208	0	0
2024-05-15 09:44:32			0	37974	0	0	0	19012	17630	134015	27322	971284	39310	106935	0	0	8362	574249	0	0
2024-05-15 09:45:32			0	37994	0	0	0	19023	17630	134059	27274	971310	39321	106939	0	0	8363	573436	0	0
2024-05-15 09:46:32			0	37968	0	0	0	19010	17620	134051	27460	971381	39309	106934	0	0	8361	574524	0	0
2024-05-15 09:47:32			0	37995	0	0	0	19025	17630	134051	27298	971398	39310	106940	0	0	8363	573396	0	0
2024-05-15 09:48:32			0	37996	0	0	0	19015	17640	134063	27509	971388	39312	106936	0	0	8363	573324	0	0
2024-05-15 09:49:32			0	37983	0	0	0	19025	17610	134107	27502	971320	39309	106940	0	0	8362	573946	0	0
2024-05-15 09:50:32			0	37962	0	0	0	19015	17630	134063	27597	971337	39299	106936	0	0	8361	574737	0	0
2024-05-15 09:51:32			0	37966	0	0	0	19020	17630	134043	27215	971416	39310	106938	0	0	8361	574574	0	0
2024-05-15 09:52:32			0	37988	0	0	0	19012	17640	134091	27485	971327	39311	106935	0	0	8362	573649	0	0
2024-05-15 09:53:32			0	37971	0	0	0	19020	17630	134183	27229	971310	39310	106938	0	0	8361	574371	0	0
2024-05-15 09:54:32			0	37981	0	0	0	19015	17640	134027	27445	971406	39311	106936	0	0	8362	573933	0	0
2024-05-15 09:55:32			0	37986	0	0	0	19015	17630	134091	27471	971337	39321	106936	0	0	8362	573761	0	0
2024-05-15 09:56:32			0	37970	0	0	0	19018	17640	134063	27173	971301	39322	106937	0	0	8361	574380	0	0
2024-05-15 09:57:32			0	37986	0	0	0	19015	17630	134091	27644	971319	39310	106936	0	0	8362	573761	0	0
2024-05-15 09:58:32			0	37971	0	0	0	19005	17630	134063	27640	971337	39332	106932	0	0	8362	574371	0	0
2024-05-15 09:59:32			0	37988	0	0	0	18999	17630	134123	27384	971337	39310	106930	0	0	8363	573680	0	0
2024-05-15 10:00:32			0	37953	0	0	0	19007	17630	134163	27249	971292	39310	106933	0	0	8361	575103	0	0
2024-05-15 10:01:32			0	37981	0	0	0	19010	17630	134159	27531	971310	39310	106934	0	0	8362	573964	0	0
2024-05-15 10:02:32			0	37971	0	0	0	19002	17630	134155	27400	971345	39310	106931	0	0	8362	574371	0	0
2024-05-15 10:03:32			0	37967	0	0	0	19005	17610	134127	27566	971241	39309	106932	0	0	8361	574596	0	0
2024-05-15 10:04:32			0	37973	0	0	0	19012	17630	134083	27398	971319	39321	106935	0	0	8362	574290	0	0
2024-05-15 10:05:32			0	37980	0	0	0	18999	17620	134047	27213	971249	39331	106930	0	0	8362	574036	0	0
2024-05-15 10:06:32			0	37969	0	0	0	19005	17630	134103	27426	971284	39310	106932	0	0	8362	574452	0	0
2024-05-15 10:07:32			0	37973	0	0	0	19002	17620	134011	27260	971276	39298	106931	0	0	8362	574321	0	0
2024-05-15 10:08:32			0	37978	0	0	0	19002	17630	134147	27119	971337	39310	106931	0	0	8362	574086	0	0
2024-05-15 10:09:32			0	37971	0	0	0	19010	17610	134095	27486	971294	39309	106934	0	0	8361	574433	0	0
2024-05-15 10:10:32			0	37958	0	0	0	19002	17610	134099	27381	971268	39298	106931	0	0	8361	574962	0	0
2024-05-15 10:11:32			0	37975	0	0	0	18989	17630	134123	27483	971284	39310	106926	0	0	8362	574208	0	0
2024-05-15 10:12:32			0	37967	0	0	0	18999	17630	134143	27300	971363	39310	106930	0	0	8362	574533	0	0
2024-05-15 10:13:32			0	37967	0	0	0	19002	17610	134191	27216	971268	39309	106931	0	0	8361	574596	0	0
2024-05-15 10:14:32			0	37960	0	0	0	18994	17610	134195	27149	971312	39308	106928	0	0	8361	574881	0	0
2024-05-15 10:15:32			0	37960	0	0	0	18994	17610	134143	27471	971268	39320	106928	0	0	8361	574881	0	0
2024-05-15 10:16:32			0	37971	0	0	0	18992	17610	134167	27346	971312	39308	106927	0	0	8362	574433	0	0
2024-05-15 10:17:32			0	37980	0	0	0	18989	17610	134203	27405	971259	39308	106926	0	0	8362	574068	0	0
2024-05-15 10:18:32			0	37973	0	0	0	18987	17610	134131	27338	971320	39309	106925	0	0	8362	574352	0	0
2024-05-15 10:19:32			0	37967	0	0	0	18994	17610	134187	27419	971320	39309	106928	0	0	8362	574596	0	0
2024-05-15 10:20:32			0	37950	0	0	0	18992	17610	134111	27052	971259	39308	106927	0	0	8361	575287	0	0
2024-05-15 10:21:32			0	37970	0	0	0	18984	17600	134111	27229	971251	39307	106924	0	0	8362	574505	0	0
2024-05-15 10:22:32			0	37966	0	0	0	18984	17610	134175	26982	971259	39308	106924	0	0	8362	574637	0	0
2024-05-15 10:23:32			0	37974	0	0	0	18989	17610	134139	27384	971180	39287	106926	0	0	8362	574311	0	0
2024-05-15 10:24:32			0	37978	0	0	0	18979	17610	134203	27395	971206	39319	106922	0	0	8362	574149	0	0
2024-05-15 10:25:32			0	37961	0	0	0	18989	17600	134167	27428	971145	39319	106926	0	0	8361	574871	0	0
2024-05-15 10:26:32			0	37953	0	0	0	18974	17600	134187	27291	971216	39307	106920	0	0	8361	575197	0	0
2024-05-15 10:27:32			0	37952	0	0	0	18974	17590	134227	27242	971147	39295	106920	0	0	8361	575269	0	0
2024-05-15 10:28:32			0	37957	0	0	0	18966	17590	134231	27390	971147	39295	106917	0	0	8361	575065	0	0
2024-05-15 10:29:32			0	37956	0	0	0	18968	17580	134147	27365	971138	39306	106918	0	0	8361	575137	0	0
2024-05-15 10:30:32			0	37967	0	0	0	18955	17570	134159	27211	971148	39306	106913	0	0	8362	574721	0	0
2024-05-15 10:31:32			0	37948	0	0	0	18950	17570	134207	27204	971095	39306	106911	0	0	8361	575494	0	0
2024-05-15 10:32:32			0	37949	0	0	0	18950	17580	134139	27569	971191	39294	106911	0	0	8361	575422	0	0
2024-05-15 10:33:32			0	37963	0	0	0	18950	17580	134151	27526	971077	39306	106911	0	0	8362	574852	0	0
2024-05-15 10:34:32			0	37959	0	0	0	18950	17580	134127	27602	971059	39317	106911	0	0	8362	575015	0	0
2024-05-15 10:35:32			0	37952	0	0	0	18955	17570	134259	27448	971122	39294	106913	0	0	8361	575331	0	0
2024-05-15 10:36:32			0	37954	0	0	0	18945	17570	134211	27235	971140	39294	106909	0	0	8362	575250	0	0
2024-05-15 10:37:32			0	37955	0	0	0	18935	17570	134155	27202	971034	39294	106905	0	0	8362	575209	0	0
2024-05-15 10:38:32			0	37940	0	0	0	18937	17570	134203	27524	971069	39294	106906	0	0	8361	575820	0	0
2024-05-15 10:39:32			0	37948	0	0	0	18929	17570	134279	27606	971061	39305	106903	0	0	8361	575494	0	0
2024-05-15 10:40:32			0	37959	0	0	0	18932	17560	134307	27424	971071	39304	106904	0	0	8362	575078	0	0
2024-05-15 10:41:32			0	37946	0	0	0	18929	17560	134231	27486	971053	39315	106903	0	0	8361	575607	0	0
2024-05-15 10:42:32			0	37947	0	0	0	18929	17550	134235	27334	970957	39304	106903	0	0	8361	575597	0	0
2024-05-15 10:43:32			0	37960	0	0	0	18929	17550	134143	27317	971081	39325	106903	0	0	8362	575068	0	0
2024-05-15 10:44:32			0	37942	0	0	0	18932	17550	134227	27327	971089	39293	106904	0	0	8361	575801	0	0
2024-05-15 10:45:32			0	37959	0	0	0	18932	17550	134171	27208	971036	39315	106904	0	0	8362	575109	0	0
2024-05-15 10:46:32			0	37943	0	0	0	18937	17550	134223	27353	971062	39304	106906	0	0	8361	575760	0	0
2024-05-15 10:47:32			0	37960	0	0	0	18940	17550	134143	27116	971062	39293	106907	0	0	8362	575068	0	0
2024-05-15 10:48:32			0	37953	0	0	0	18945	17550	134279	27414	971062	39315	106909	0	0	8361	575353	0	0
2024-05-15 10:49:32			0	37962	0	0	0	18942	17550	134251	27230	971089	39293	106908	0	0	8362	574987	0	0
2024-05-15 10:50:32			0	37937	0	0	0	18937	17560	134255	27386	971053	39315	106906	0	0	8361	575973	0	0
2024-05-15 10:51:32			0	37950	0	0	0	18953	17560	134359	27386	971097	39315	106912	0	0	8361	575444	0	0
2024-05-15 10:52:32			0	37936	0	0	0	18950	17560	134347	27547	971097	39315	106911	0	0	8360	576014	0	0
2024-05-15 10:53:32			0	37943	0	0	0	18940	17550	134203	27194	971089	39315	106907	0	0	8361	575760	0	0
2024-05-15 10:54:32			0	37939	0	0	0	18953	17550	134287	27251	971089	39293	106912	0	0	8360	575923	0	0
2024-05-15 10:55:32			0	37939	0	0	0	18955	17560	134255	27261	971124	39315	106913	0	0	8361	575892	0	0
2024-05-15 10:56:32			0	37928	0	0	0	18955	17560	134287	27315	971158	39304	106913	0	0	8360	576340	0	0
2024-05-15 10:57:32			0	37935	0	0	0	18942	17560	134263	27301	971018	39304	106908	0	0	8361	576055	0	0
2024-05-15 10:58:32			0	37948	0	0	0	18942	17560	134195	27346	971018	39293	106908	0	0	8361	575525	0	0
2024-05-15 10:59:32			0	37948	0	0	0	18940	17550	134255	27255	971036	39304	106907	0	0	8361	575556	0	0
2024-05-15 11:00:32			0	37941	0	0	0	18940	17560	134239	27279	971124	39293	106907	0	0	8361	575810	0	0
2024-05-15 11:01:32			0	37954	0	0	0	18935	17560	134291	27464	971105	39293	106905	0	0	8362	575281	0	0
2024-05-15 11:02:32			0	37968	0	0	0	18927	17550	134315	27576	971001	39292	106902	0	0	8362	574743	0	0
2024-05-15 11:03:32			0	37942	0	0	0	18919	17550	134267	27422	970922	39314	106899	0	0	8361	575801	0	0
2024-05-15 11:04:32			0	37947	0	0	0	18922	17550	134267	27258	970975	39303	106900	0	0	8361	575597	0	0
2024-05-15 11:05:32			0	37943	0	0	0	18909	17530	134307	27182	971021	39280	106895	0	0	8361	575823	0	0
2024-05-15 11:06:32			0	37962	0	0	0	18901	17540	134271	27393	970967	39313	106892	0	0	8363	575018	0	0
2024-05-15 11:07:32			0	37927	0	0	0	18906	17540	134211	27699	971011	39312	106894	0	0	8361	576443	0	0
2024-05-15 11:08:32			0	37942	0	0	0	18906	17530	134279	27450	970968	39301	106894	0	0	8361	575863	0	0
2024-05-15 11:09:32			0	37961	0	0	0	18903	17540	134295	27469	971020	39291	106893	0	0	8362	575059	0	0
2024-05-15 11:10:32			0	37958	0	0	0	18898	17540	134199	27583	970958	39301	106891	0	0	8362	575181	0	0
2024-05-15 11:11:32			0	37955	0	0	0	18909	17540	134227	27478	970958	39291	106895	0	0	8362	575303	0	0
2024-05-15 11:12:32			0	37948	0	0	0	18903	17520	134219	27483	970934	39290	106893	0	0	8362	575650	0	0
2024-05-15 11:13:32			0	37949	0	0	0	18888	17520	134239	27732	970934	39300	106887	0	0	8362	575610	0	0
2024-05-15 11:14:32			0	37944	0	0	0	18877	17520	134231	27443	970854	39279	106883	0	0	8362	575813	0	0
2024-05-15 11:15:32			0	37949	0	0	0	18885	17510	134239	27535	970891	39289	106886	0	0	8362	575641	0	0
2024-05-15 11:16:32			0	37945	0	0	0	18885	17510	134303	27286	970856	39289	106886	0	0	8362	575804	0	0
2024-05-15 11:17:32			0	37943	0	0	0	18883	17510	134223	27530	970838	39300	106885	0	0	8362	575885	0	0
2024-05-15 11:18:32			0	37946	0	0	0	18885	17510	134247	27098	970891	39300	106886	0	0	8362	575763	0	0
2024-05-15 11:19:32			0	37950	0	0	0	18888	17510	134271	27362	970856	39300	106887	0	0	8362	575600	0	0
2024-05-15 11:20:32			0	37944	0	0	0	18880	17520	134267	27360	970899	39300	106884	0	0	8362	575813	0	0
2024-05-15 11:21:32			0	37967	0	0	0	18885	17510	134279	27230	970830	39289	106886	0	0	8363	574909	0	0
2024-05-15 11:22:32			0	37941	0	0	0	18875	17510	134275	27189	970811	39300	106882	0	0	8362	575967	0	0
2024-05-15 11:23:32			0	37947	0	0	0	18885	17500	134227	27033	970892	39298	106886	0	0	8362	575754	0	0
2024-05-15 11:24:32			0	37950	0	0	0	18903	17510	134279	27395	970962	39300	106893	0	0	8362	575600	0	0
2024-05-15 11:25:32			0	37939	0	0	0	18898	17510	134207	27355	970882	39311	106891	0	0	8361	576048	0	0
2024-05-15 11:26:32			0	37972	0	0	0	18898	17510	134291	27126	970864	39300	106891	0	0	8363	574705	0	0
2024-05-15 11:27:32			0	37944	0	0	0	18890	17510	134327	27390	970909	39300	106888	0	0	8362	575845	0	0
2024-05-15 11:28:32			0	37966	0	0	0	18888	17510	134295	27459	970882	39289	106887	0	0	8363	574949	0	0
2024-05-15 11:29:32			0	37939	0	0	0	18896	17510	134315	27604	970891	39300	106890	0	0	8361	576048	0	0
2024-05-15 11:30:32			0	37943	0	0	0	18896	17510	134307	27543	970917	39289	106890	0	0	8362	575885	0	0
2024-05-15 11:31:32			0	37937	0	0	0	18924	17520	134311	27383	970978	39300	106901	0	0	8361	576098	0	0
2024-05-15 11:32:32			0	37948	0	0	0	18945	17510	134359	27469	971049	39311	106909	0	0	8361	575682	0	0
2024-05-15 11:33:32			0	37947	0	0	0	18945	17530	134331	27464	971021	39324	106909	0	0	8361	575660	0	0
2024-05-15 11:34:32			0	37952	0	0	0	18932	17520	134411	27358	970960	39290	106904	0	0	8361	575488	0	0
2024-05-15 11:35:32			0	37940	0	0	0	18916	17510	134355	27215	970944	39289	106898	0	0	8361	576008	0	0
2024-05-15 11:36:32			0	37927	0	0	0	18893	17520	134343	27409	970907	39279	106889	0	0	8361	576506	0	0
2024-05-15 11:37:32			0	37966	0	0	0	18893	17510	134327	27381	970891	39289	106889	0	0	8363	574949	0	0
2024-05-15 11:38:32			0	37933	0	0	0	18888	17510	134339	27479	970891	39300	106887	0	0	8361	576293	0	0
2024-05-15 11:39:32			0	37942	0	0	0	18893	17520	134311	27294	970907	39290	106889	0	0	8362	575895	0	0
2024-05-15 11:40:32			0	37942	0	0	0	18898	17510	134247	27156	970830	39289	106891	0	0	8361	575926	0	0
2024-05-15 11:41:32			0	37952	0	0	0	18883	17500	134259	27466	970874	39289	106885	0	0	8362	575550	0	0
2024-05-15 11:42:32			0	37945	0	0	0	18888	17510	134347	27481	970830	39300	106887	0	0	8362	575804	0	0
2024-05-15 11:43:32			0	37935	0	0	0	18872	17510	134363	27504	970811	39311	106881	0	0	8361	576211	0	0
2024-05-15 11:44:32			0	37952	0	0	0	18877	17500	134335	27324	970813	39288	106883	0	0	8362	575550	0	0
2024-05-15 11:45:32			0	37934	0	0	0	18864	17490	134351	27488	970831	39288	106878	0	0	8361	576315	0	0
2024-05-15 11:46:32			0	37942	0	0	0	18867	17500	134275	27232	970813	39288	106879	0	0	8362	575957	0	0
2024-05-15 11:47:32			0	37940	0	0	0	18870	17490	134291	27419	970805	39288	106880	0	0	8362	576070	0	0
2024-05-15 11:48:32			0	37941	0	0	0	18877	17510	134307	27329	970830	39300	106883	0	0	8362	575967	0	0
2024-05-15 11:49:32			0	37943	0	0	0	18883	17500	134379	27485	970892	39288	106885	0	0	8362	575917	0	0
2024-05-15 11:50:32			0	37934	0	0	0	18880	17490	134303	27374	970831	39298	106884	0	0	8361	576315	0	0
2024-05-15 11:51:32			0	37937	0	0	0	18867	17490	134315	27270	970858	39309	106879	0	0	8362	576192	0	0
2024-05-15 11:52:32			0	37959	0	0	0	18872	17500	134303	27350	970874	39289	106881	0	0	8363	575265	0	0
2024-05-15 11:53:32			0	37939	0	0	0	18877	17500	134335	27293	970821	39299	106883	0	0	8362	576080	0	0
2024-05-15 11:54:32			0	37939	0	0	0	18875	17490	134283	27199	970858	39309	106882	0	0	8362	576111	0	0
2024-05-15 11:55:32			0	37931	0	0	0	18883	17500	134227	27249	970821	39299	106885	0	0	8361	576406	0	0
2024-05-15 11:56:32			0	37942	0	0	0	18872	17490	134187	27332	970884	39298	106881	0	0	8362	575989	0	0
2024-05-15 11:57:32			0	37952	0	0	0	18870	17490	134347	27433	970797	39288	106880	0	0	8362	575582	0	0
2024-05-15 11:58:32			0	37931	0	0	0	18877	17500	134343	27414	970866	39298	106883	0	0	8361	576406	0	0
2024-05-15 11:59:32			0	37933	0	0	0	18872	17500	134387	27258	970874	39277	106881	0	0	8361	576324	0	0
2024-05-15 12:00:32			0	37942	0	0	0	18870	17490	134287	27559	970884	39309	106880	0	0	8362	575989	0	0
2024-05-15 12:01:32			0	37938	0	0	0	18877	17490	134339	27457	970805	39298	106883	0	0	8361	576152	0	0
2024-05-15 12:02:32			0	37946	0	0	0	18877	17500	134283	27473	970840	39298	106883	0	0	8362	575795	0	0
2024-05-15 12:03:32			0	37927	0	0	0	18883	17490	134343	27185	970805	39298	106885	0	0	8361	576600	0	0
2024-05-15 12:04:32			0	37949	0	0	0	18893	17500	134335	27244	970840	39309	106889	0	0	8362	575672	0	0
2024-05-15 12:05:32			0	37930	0	0	0	18888	17500	134391	27530	970866	39298	106887	0	0	8361	576446	0	0
2024-05-15 12:06:32			0	37951	0	0	0	18898	17500	134311	27294	970892	39298	106891	0	0	8362	575591	0	0
2024-05-15 12:07:32			0	37941	0	0	0	18898	17490	134351	27511	970884	39298	106891	0	0	8361	576029	0	0
2024-05-15 12:08:32			0	37945	0	0	0	18903	17500	134323	27322	970821	39299	106893	0	0	8361	575835	0	0
2024-05-15 12:09:32			0	37941	0	0	0	18909	17500	134307	27391	970874	39321	106895	0	0	8361	575998	0	0
2024-05-15 12:10:32			0	37943	0	0	0	18901	17510	134383	27647	970830	39300	106892	0	0	8361	575885	0	0
2024-05-15 12:11:32			0	37939	0	0	0	18901	17510	134423	27613	970909	39300	106892	0	0	8361	576048	0	0
2024-05-15 12:12:32			0	37938	0	0	0	18903	17500	134343	27289	970901	39310	106893	0	0	8361	576120	0	0
2024-05-15 12:13:32			0	37928	0	0	0	18901	17500	134323	27253	970901	39310	106892	0	0	8361	576528	0	0
2024-05-15 12:14:32			0	37926	0	0	0	18903	17500	134367	27367	970901	39289	106893	0	0	8360	576609	0	0
2024-05-15 12:15:32			0	37944	0	0	0	18898	17510	134431	27517	970909	39311	106891	0	0	8362	575845	0	0
2024-05-15 12:16:32			0	37932	0	0	0	18893	17510	134327	27293	970882	39289	106889	0	0	8361	576333	0	0
2024-05-15 12:17:32			0	37927	0	0	0	18906	17500	134359	27142	970901	39289	106894	0	0	8360	576569	0	0
2024-05-15 12:18:32			0	37950	0	0	0	18901	17500	134311	27533	970840	39288	106892	0	0	8362	575632	0	0
2024-05-15 12:19:32			0	37941	0	0	0	18914	17510	134283	27128	970891	39300	106897	0	0	8361	575967	0	0
2024-05-15 12:20:32			0	37925	0	0	0	18903	17510	134331	27317	970882	39289	106893	0	0	8360	576619	0	0
2024-05-15 12:21:32			0	37934	0	0	0	18906	17510	134339	27414	970909	39300	106894	0	0	8361	576252	0	0
2024-05-15 12:22:32			0	37913	0	0	0	18901	17510	134415	27526	970891	39300	106892	0	0	8360	577108	0	0
2024-05-15 12:23:32			0	37910	0	0	0	18901	17500	134391	27223	970848	39310	106892	0	0	8360	577262	0	0
2024-05-15 12:24:32			0	37931	0	0	0	18909	17520	134311	27287	970925	39300	106895	0	0	8361	576343	0	0
2024-05-15 12:25:32			0	37931	0	0	0	18901	17510	134351	27206	970856	39300	106892	0	0	8361	576374	0	0
2024-05-15 12:26:32			0	37924	0	0	0	18901	17510	134383	27211	970891	39300	106892	0	0	8360	576659	0	0
2024-05-15 12:27:32			0	37919	0	0	0	18911	17510	134387	27213	970970	39300	106896	0	0	8360	576863	0	0
2024-05-15 12:28:32			0	37941	0	0	0	18896	17510	134407	27232	970891	39311	106890	0	0	8361	575967	0	0
2024-05-15 12:29:32			0	37936	0	0	0	18906	17510	134395	27434	970891	39289	106894	0	0	8361	576170	0	0
2024-05-15 12:30:32			0	37919	0	0	0	18896	17500	134367	27294	970874	39289	106890	0	0	8360	576895	0	0
2024-05-15 12:31:32			0	37917	0	0	0	18909	17510	134411	27396	970917	39300	106895	0	0	8360	576945	0	0
2024-05-15 12:32:32			0	37911	0	0	0	18893	17520	134359	27409	970952	39300	106889	0	0	8360	577158	0	0
2024-05-15 12:33:32			0	37902	0	0	0	18906	17510	134355	27229	970856	39300	106894	0	0	8359	577557	0	0
2024-05-15 12:34:32			0	37923	0	0	0	18909	17510	134383	27623	970970	39300	106895	0	0	8360	576700	0	0
2024-05-15 12:35:32			0	37917	0	0	0	18898	17520	134399	27535	970925	39311	106891	0	0	8360	576913	0	0
2024-05-15 12:36:32			0	37924	0	0	0	18909	17510	134347	27467	970909	39289	106895	0	0	8360	576659	0	0
2024-05-15 12:37:32			0	37922	0	0	0	18909	17510	134363	27189	970970	39300	106895	0	0	8360	576741	0	0
2024-05-15 12:38:32			0	37920	0	0	0	18911	17520	134403	27208	970978	39289	106896	0	0	8360	576791	0	0
2024-05-15 12:39:32			0	37921	0	0	0	18903	17520	134299	27452	970952	39311	106893	0	0	8360	576750	0	0
2024-05-15 12:40:32			0	37919	0	0	0	18911	17520	134383	27575	970952	39289	106896	0	0	8360	576832	0	0
2024-05-15 12:41:32			0	37909	0	0	0	18916	17520	134379	27743	971005	39289	106898	0	0	8359	577240	0	0
2024-05-15 12:42:32			0	37916	0	0	0	18914	17510	134351	27471	971023	39289	106897	0	0	8360	576986	0	0
2024-05-15 12:43:32			0	37915	0	0	0	18922	17520	134371	27315	970986	39312	106900	0	0	8360	576995	0	0
2024-05-15 12:44:32			0	37906	0	0	0	18927	17520	134399	27377	970952	39300	106902	0	0	8359	577362	0	0
2024-05-15 12:45:32			0	37893	0	0	0	18927	17520	134411	27459	971013	39300	106902	0	0	8358	577892	0	0
2024-05-15 12:46:32			0	37912	0	0	0	18922	17520	134419	27715	970978	39289	106900	0	0	8359	577117	0	0
2024-05-15 12:47:32			0	37922	0	0	0	18927	17530	134403	27594	971021	39312	106902	0	0	8360	576678	0	0
2024-05-15 12:48:32			0	37890	0	0	0	18940	17530	134423	27319	970995	39301	106907	0	0	8358	577983	0	0
2024-05-15 12:49:32			0	37899	0	0	0	18942	17540	134431	27329	971091	39312	106908	0	0	8359	577585	0	0
2024-05-15 12:50:32			0	37904	0	0	0	18942	17540	134427	27244	971020	39313	106908	0	0	8359	577381	0	0
2024-05-15 12:51:32			0	37894	0	0	0	18937	17530	134459	27417	970977	39301	106906	0	0	8358	577820	0	0
2024-05-15 12:52:32			0	37908	0	0	0	18948	17530	134431	27445	971074	39312	106910	0	0	8359	577249	0	0
2024-05-15 12:53:32			0	37899	0	0	0	18942	17540	134415	27119	971072	39291	106908	0	0	8359	577585	0	0
2024-05-15 12:54:32			0	37908	0	0	0	18940	17540	134371	27464	971072	39313	106907	0	0	8359	577218	0	0
2024-05-15 12:55:32			0	37879	0	0	0	18945	17550	134535	27372	971081	39303	106909	0	0	8357	578369	0	0
2024-05-15 12:56:32			0	37878	0	0	0	18953	17550	134443	27670	971107	39325	106912	0	0	8357	578410	0	0
2024-05-15 12:57:32			0	37887	0	0	0	18953	17540	134455	27862	971046	39302	106912	0	0	8358	578074	0	0
2024-05-15 12:58:32			0	37907	0	0	0	18953	17560	134371	27415	971124	39315	106912	0	0	8359	577196	0	0
2024-05-15 12:59:32			0	37893	0	0	0	18953	17550	134411	27178	971168	39304	106912	0	0	8358	577798	0	0
2024-05-15 13:00:32			0	37892	0	0	0	18958	17550	134455	27343	971168	39315	106914	0	0	8358	577839	0	0
2024-05-15 13:01:32			0	37886	0	0	0	18950	17540	134499	27395	971125	39313	106911	0	0	8358	578115	0	0
2024-05-15 13:02:32			0	37882	0	0	0	18953	17560	134483	27421	971097	39304	106912	0	0	8358	578216	0	0
2024-05-15 13:03:32			0	37894	0	0	0	18955	17560	134443	27480	971176	39304	106913	0	0	8358	577726	0	0
2024-05-15 13:04:32			0	37910	0	0	0	18945	17560	134523	27614	971185	39315	106909	0	0	8359	577073	0	0
2024-05-15 13:05:32			0	37896	0	0	0	18950	17560	134515	27732	971132	39304	106911	0	0	8358	577644	0	0
2024-05-15 13:06:32			0	37907	0	0	0	18945	17560	134451	27687	971132	39315	106909	0	0	8359	577196	0	0
2024-05-15 13:07:32			0	37874	0	0	0	18948	17570	134443	27353	971201	39306	106910	0	0	8357	578511	0	0
2024-05-15 13:08:32			0	37902	0	0	0	18950	17560	134391	27462	971124	39304	106911	0	0	8359	577400	0	0
2024-05-15 13:09:32			0	37895	0	0	0	18953	17560	134439	27229	971105	39304	106912	0	0	8358	577685	0	0
2024-05-15 13:10:32			0	37883	0	0	0	18945	17570	134435	27428	971148	39317	106909	0	0	8358	578143	0	0
2024-05-15 13:11:32			0	37884	0	0	0	18945	17560	134523	27346	971132	39304	106909	0	0	8358	578134	0	0
2024-05-15 13:12:32			0	37887	0	0	0	18948	17560	134475	27357	971132	39315	106910	0	0	8358	578011	0	0
2024-05-15 13:13:32			0	37871	0	0	0	18953	17550	134403	27213	971089	39304	106912	0	0	8357	578696	0	0
2024-05-15 13:14:32			0	37864	0	0	0	18953	17570	134435	27502	971166	39294	106912	0	0	8357	578919	0	0
2024-05-15 13:15:32			0	37868	0	0	0	18953	17560	134479	27485	971105	39304	106912	0	0	8357	578787	0	0
2024-05-15 13:16:32			0	37888	0	0	0	18958	17580	134415	27419	971130	39306	106914	0	0	8358	577908	0	0
2024-05-15 13:17:32			0	37879	0	0	0	18953	17560	134435	27365	971124	39293	106912	0	0	8357	578338	0	0
2024-05-15 13:18:32			0	37881	0	0	0	18961	17570	134579	27336	971122	39317	106915	0	0	8357	578225	0	0
2024-05-15 13:19:32			0	37897	0	0	0	18955	17570	134407	27743	971114	39294	106913	0	0	8358	577572	0	0
2024-05-15 13:20:32			0	37893	0	0	0	18966	17570	134515	27601	971201	39317	106917	0	0	8358	577735	0	0
2024-05-15 13:21:32			0	37882	0	0	0	18968	17570	134543	27654	971148	39306	106918	0	0	8357	578184	0	0
2024-05-15 13:22:32			0	37852	0	0	0	18966	17570	134463	27585	971175	39328	106917	0	0	8356	579410	0	0
2024-05-15 13:23:32			0	37873	0	0	0	18976	17570	134495	27609	971201	39328	106921	0	0	8357	578552	0	0
2024-05-15 13:24:32			0	37863	0	0	0	18968	17570	134443	27658	971148	39317	106918	0	0	8356	578960	0	0
2024-05-15 13:25:32			0	37898	0	0	0	18979	17570	134479	27324	971148	39317	106922	0	0	8358	577531	0	0
2024-05-15 13:26:32			0	37865	0	0	0	18979	17580	134487	27724	971236	39317	106922	0	0	8356	578847	0	0
2024-05-15 13:27:32			0	37862	0	0	0	18981	17580	134519	27178	971183	39306	106923	0	0	8356	578969	0	0
2024-05-15 13:28:32			0	37870	0	0	0	18999	17570	134555	27691	971228	39338	106930	0	0	8356	578674	0	0
2024-05-15 13:29:32			0	37859	0	0	0	18997	17580	134579	27319	971297	39306	106929	0	0	8356	579092	0	0
2024-05-15 13:30:32			0	37863	0	0	0	19002	17590	134623	27516	971313	39319	106931	0	0	8356	578897	0	0
2024-05-15 13:31:32			0	37873	0	0	0	19007	17590	134603	27440	971279	39329	106933	0	0	8356	578489	0	0
2024-05-15 13:32:32			0	37862	0	0	0	19002	17590	134591	27365	971234	39307	106931	0	0	8356	578938	0	0
2024-05-15 13:33:32			0	37857	0	0	0	19005	17600	134543	27343	971269	39307	106932	0	0	8356	579111	0	0
2024-05-15 13:34:32			0	37851	0	0	0	19002	17600	134575	27568	971348	39307	106931	0	0	8355	579356	0	0
2024-05-15 13:35:32			0	37864	0	0	0	18997	17600	134547	27336	971322	39319	106929	0	0	8356	578825	0	0
2024-05-15 13:36:32			0	37878	0	0	0	19007	17610	134539	27592	971312	39330	106933	0	0	8357	578222	0	0
2024-05-15 13:37:32			0	37862	0	0	0	18999	17600	134659	27639	971269	39307	106930	0	0	8356	578906	0	0
2024-05-15 13:38:32			0	37862	0	0	0	19002	17600	134607	27234	971330	39319	106931	0	0	8356	578906	0	0
2024-05-15 13:39:32			0	37852	0	0	0	19005	17600	134563	27315	971348	39319	106932	0	0	8355	579315	0	0
2024-05-15 13:40:32			0	37844	0	0	0	18989	17610	134643	27322	971312	39319	106926	0	0	8355	579610	0	0
2024-05-15 13:41:32			0	37860	0	0	0	18999	17610	134571	27315	971365	39319	106930	0	0	8356	578957	0	0
2024-05-15 13:42:32			0	37832	0	0	0	19002	17610	134567	27201	971347	39331	106931	0	0	8354	580101	0	0
2024-05-15 13:43:32			0	37842	0	0	0	19018	17600	134467	27440	971322	39319	106937	0	0	8355	579724	0	0
2024-05-15 13:44:32			0	37847	0	0	0	19012	17610	134495	27604	971365	39319	106935	0	0	8355	579488	0	0
2024-05-15 13:45:32			0	37856	0	0	0	19023	17610	134571	27145	971426	39331	106939	0	0	8355	579120	0	0
2024-05-15 13:46:32			0	37853	0	0	0	19025	17610	134487	27653	971373	39309	106940	0	0	8355	579243	0	0
2024-05-15 13:47:32			0	37851	0	0	0	19028	17610	134643	27597	971400	39309	106941	0	0	8355	579324	0	0
2024-05-15 13:48:32			0	37844	0	0	0	19028	17630	134551	27606	971390	39310	106941	0	0	8355	579547	0	0
2024-05-15 13:49:32			0	37843	0	0	0	19018	17630	134603	27637	971495	39321	106937	0	0	8355	579588	0	0
2024-05-15 13:50:32			0	37846	0	0	0	19020	17640	134595	27576	971512	39311	106938	0	0	8355	579434	0	0
2024-05-15 13:51:32			0	37851	0	0	0	19028	17630	134615	27154	971398	39332	106941	0	0	8355	579261	0	0
2024-05-15 13:52:32			0	37856	0	0	0	19025	17640	134583	27293	971406	39322	106940	0	0	8355	579026	0	0
2024-05-15 13:53:32			0	37840	0	0	0	19023	17630	134563	27447	971469	39321	106939	0	0	8354	579711	0	0
2024-05-15 13:54:32			0	37853	0	0	0	19036	17630	134551	27436	971443	39332	106944	0	0	8355	579180	0	0
2024-05-15 13:55:32			0	37851	0	0	0	19044	17640	134543	27353	971433	39322	106947	0	0	8355	579230	0	0
2024-05-15 13:56:32			0	37855	0	0	0	19044	17640	134563	27376	971485	39311	106947	0	0	8355	579066	0	0
2024-05-15 13:57:32			0	37831	0	0	0	19036	17640	134583	27452	971459	39311	106944	0	0	8354	580047	0	0
2024-05-15 13:58:32			0	37856	0	0	0	19041	17630	134575	27279	971469	39321	106946	0	0	8355	579057	0	0
2024-05-15 13:59:32			0	37855	0	0	0	19038	17640	134623	27123	971494	39323	106945	0	0	8355	579066	0	0
2024-05-15 14:00:32			0	37859	0	0	0	19044	17650	134559	27322	971510	39312	106947	0	0	8355	578871	0	0
2024-05-15 14:01:32			0	37852	0	0	0	19044	17650	134587	27627	971555	39323	106947	0	0	8355	579157	0	0
2024-05-15 14:02:32			0	37840	0	0	0	19041	17640	134615	27414	971547	39333	106946	0	0	8354	579679	0	0
2024-05-15 14:03:32			0	37849	0	0	0	19038	17640	134551	27386	971467	39333	106945	0	0	8355	579312	0	0
2024-05-15 14:04:32			0	37824	0	0	0	19036	17650	134591	27452	971449	39333	106944	0	0	8353	580302	0	0
2024-05-15 14:05:32			0	37828	0	0	0	19036	17660	134655	27441	971519	39313	106944	0	0	8354	580107	0	0
2024-05-15 14:06:32			0	37847	0	0	0	19036	17650	134627	27396	971423	39333	106944	0	0	8355	579362	0	0
2024-05-15 14:07:32			0	37828	0	0	0	19054	17650	134587	27542	971537	39333	106951	0	0	8353	580139	0	0
2024-05-15 14:08:32			0	37832	0	0	0	19054	17650	134643	27251	971484	39333	106951	0	0	8354	579975	0	0
2024-05-15 14:09:32			0	37815	0	0	0	19049	17660	134583	27656	971571	39334	106949	0	0	8353	580639	0	0
2024-05-15 14:10:32			0	37842	0	0	0	19051	17670	134643	27871	971588	39335	106950	0	0	8354	579503	0	0
2024-05-15 14:11:32			0	37818	0	0	0	19062	17670	134615	27379	971535	39325	106954	0	0	8353	580484	0	0
2024-05-15 14:12:32			0	37812	0	0	0	19054	17670	134735	27545	971614	39325	106951	0	0	8353	580730	0	0
2024-05-15 14:13:32			0	37835	0	0	0	19067	17670	134647	27547	971641	39325	106956	0	0	8354	579789	0	0
2024-05-15 14:14:32			0	37823	0	0	0	19072	17670	134639	27457	971614	39325	106958	0	0	8353	580280	0	0
2024-05-15 14:15:32			0	37812	0	0	0	19072	17670	134611	27459	971623	39335	106958	0	0	8352	580730	0	0
2024-05-15 14:16:32			0	37822	0	0	0	19067	17680	134691	27814	971684	39325	106956	0	0	8353	580289	0	0
2024-05-15 14:17:32			0	37818	0	0	0	19088	17680	134623	27473	971657	39325	106964	0	0	8352	580453	0	0
2024-05-15 14:18:32			0	37802	0	0	0	19085	17680	134687	27661	971710	39325	106963	0	0	8352	581108	0	0
2024-05-15 14:19:32			0	37811	0	0	0	19088	17690	134711	27159	971648	39348	106964	0	0	8352	580708	0	0
2024-05-15 14:20:32			0	37802	0	0	0	19083	17690	134675	27706	971701	39326	106962	0	0	8352	581076	0	0
2024-05-15 14:21:32			0	37818	0	0	0	19093	17690	134735	27500	971701	39326	106966	0	0	8352	580421	0	0
2024-05-15 14:22:32			0	37796	0	0	0	19085	17690	134643	27222	971709	39337	106963	0	0	8351	581322	0	0
2024-05-15 14:23:32			0	37803	0	0	0	19088	17690	134695	27296	971701	39337	106964	0	0	8352	581035	0	0
2024-05-15 14:24:32			0	37777	0	0	0	19093	17680	134687	27528	971666	39315	106966	0	0	8350	582132	0	0
2024-05-15 14:25:32			0	37802	0	0	0	19103	17700	134583	27512	971717	39327	106970	0	0	8351	581044	0	0
2024-05-15 14:26:32			0	37780	0	0	0	19098	17690	134635	27173	971682	39327	106968	0	0	8350	581977	0	0
2024-05-15 14:27:32			0	37775	0	0	0	19103	17700	134743	27402	971743	39337	106970	0	0	8350	582150	0	0
2024-05-15 14:28:32			0	37778	0	0	0	19106	17690	134719	27178	971682	39337	106971	0	0	8350	582059	0	0
2024-05-15 14:29:32			0	37797	0	0	0	19093	17690	134739	27509	971682	39337	106966	0	0	8351	581281	0	0
2024-05-15 14:30:32			0	37789	0	0	0	19090	17690	134755	27435	971735	39316	106965	0	0	8351	581608	0	0
2024-05-15 14:31:32			0	37793	0	0	0	19098	17700	134747	27364	971691	39348	106968	0	0	8351	581413	0	0
2024-05-15 14:32:32			0	37783	0	0	0	19106	17710	134795	27467	971742	39329	106971	0	0	8350	581791	0	0
2024-05-15 14:33:32			0	37792	0	0	0	19109	17700	134811	27606	971778	39338	106972	0	0	8351	581454	0	0
2024-05-15 14:34:32			0	37788	0	0	0	19114	17710	134707	27505	971760	39338	106974	0	0	8350	581586	0	0
2024-05-15 14:35:32			0	37771	0	0	0	19119	17710	134719	27383	971760	39328	106976	0	0	8350	582283	0	0
2024-05-15 14:36:32			0	37763	0	0	0	19122	17710	134787	27474	971813	39338	106977	0	0	8349	582611	0	0
2024-05-15 14:37:32			0	37776	0	0	0	19119	17710	134839	27305	971821	39339	106976	0	0	8350	582078	0	0
2024-05-15 14:38:32			0	37763	0	0	0	19122	17710	134779	27552	971795	39329	106977	0	0	8349	582611	0	0
2024-05-15 14:39:32			0	37755	0	0	0	19116	17720	134859	27235	971829	39329	106975	0	0	8349	582907	0	0
2024-05-15 14:40:32			0	37747	0	0	0	19116	17720	134847	27331	971803	39329	106975	0	0	8348	583235	0	0
2024-05-15 14:41:32			0	37743	0	0	0	19116	17720	134871	27433	971811	39330	106975	0	0	8348	583399	0	0
2024-05-15 14:42:32			0	37732	0	0	0	19111	17720	134915	27639	971829	39339	106973	0	0	8348	583851	0	0
2024-05-15 14:43:32			0	37737	0	0	0	19116	17710	134859	27519	971848	39329	106975	0	0	8348	583678	0	0
2024-05-15 14:44:32			0	37718	0	0	0	19109	17710	134967	27329	971795	39329	106972	0	0	8347	584458	0	0
2024-05-15 14:45:32			0	37702	0	0	0	19111	17740	134923	27241	971871	39342	106973	0	0	8346	585020	0	0
2024-05-15 14:46:32			0	37701	0	0	0	19114	17720	135067	27190	971811	39340	106974	0	0	8346	585125	0	0
2024-05-15 14:47:32			0	37690	0	0	0	19111	17720	135067	27500	971776	39339	106973	0	0	8345	585577	0	0
2024-05-15 14:48:32			0	37692	0	0	0	19122	17720	135047	27367	971829	39329	106977	0	0	8345	585495	0	0
2024-05-15 14:49:32			0	37651	0	0	0	19111	17730	135211	27433	971801	39331	106973	0	0	8343	587151	0	0
2024-05-15 14:50:32			0	37638	0	0	0	19127	17720	135199	27538	971811	39330	106979	0	0	8342	587719	0	0
2024-05-15 14:51:32			0	37602	0	0	0	19119	17720	135363	27405	971785	39330	106976	0	0	8341	589205	0	0
2024-05-15 14:52:32			0	37554	0	0	0	19127	17730	135559	27412	971846	39331	106979	0	0	8338	591158	0	0
2024-05-15 14:53:32			0	37524	0	0	0	19127	17730	135627	27476	971872	39341	106979	0	0	8336	592400	0	0
2024-05-15 14:54:32			0	37447	0	0	0	19140	17720	135847	27388	971838	39340	106984	0	0	8332	595630	0	0
2024-05-15 14:55:32			0	37406	0	0	0	19137	17730	136163	27345	971899	39352	106983	0	0	8330	597305	0	0
2024-05-15 14:56:32			0	37332	0	0	0	19135	17740	136323	27540	971889	39352	106982	0	0	8326	600361	0	0
2024-05-15 14:57:32			0	37243	0	0	0	19135	17740	136670	27602	971916	39331	106982	0	0	8322	604090	0	0
2024-05-15 14:58:32			0	37148	0	0	0	19135	17750	136990	27670	971959	39321	106982	0	0	8317	608054	0	0
2024-05-15 14:59:32			0	37061	0	0	0	19124	17740	137230	27651	971871	39331	106978	0	0	8312	611763	0	0
2024-05-15 15:00:32			0	36978	0	0	0	19127	17750	137594	27646	971906	39343	106979	0	0	8308	615250	0	0
2024-05-15 15:01:32			0	36901	0	0	0	19129	17730	137906	27263	971819	39341	106980	0	0	8303	618595	0	0
2024-05-15 15:02:32			0	36798	0	0	0	19132	17730	138190	27274	971881	39352	106981	0	0	8298	622999	0	0
2024-05-15 15:03:32			0	36736	0	0	0	19132	17730	138530	27511	971907	39341	106981	0	0	8295	625660	0	0
2024-05-15 15:04:32			0	36671	0	0	0	19129	17740	138794	27237	971897	39331	106980	0	0	8291	628424	0	0
2024-05-15 15:05:32			0	36586	0	0	0	19135	17740	139097	27248	971924	39331	106982	0	0	8287	632096	0	0
2024-05-15 15:06:32			0	36535	0	0	0	19127	17740	139181	27497	971924	39331	106979	0	0	8284	634306	0	0
2024-05-15 15:07:32			0	36497	0	0	0	19142	17740	139385	27362	971942	39341	106985	0	0	8282	635957	0	0
2024-05-15 15:08:32			0	36433	0	0	0	19132	17750	139593	27703	971932	39332	106981	0	0	8278	638708	0	0
2024-05-15 15:09:32			0	36378	0	0	0	19132	17750	139793	27727	971959	39343	106981	0	0	8276	641109	0	0
2024-05-15 15:10:32			0	36329	0	0	0	19127	17740	139901	27303	971845	39342	106979	0	0	8273	643288	0	0
2024-05-15 15:11:32			0	36284	0	0	0	19129	17750	140121	27352	971914	39332	106980	0	0	8271	645226	0	0
2024-05-15 15:12:32			0	36254	0	0	0	19137	17750	140309	27355	971932	39343	106983	0	0	8269	646544	0	0
2024-05-15 15:13:32			0	36202	0	0	0	19135	17750	140465	27326	971959	39343	106982	0	0	8266	648834	0	0
2024-05-15 15:14:32			0	36159	0	0	0	19132	17740	140601	27249	971977	39331	106981	0	0	8264	650766	0	0
2024-05-15 15:15:32			0	36132	0	0	0	19140	17740	140717	27953	971897	39342	106984	0	0	8262	651960	0	0
2024-05-15 15:16:32			0	36090	0	0	0	19129	17750	140865	27395	971959	39332	106980	0	0	8260	653784	0	0
2024-05-15 15:17:32			0	36073	0	0	0	19135	17740	141077	27131	971889	39341	106982	0	0	8259	654573	0	0
2024-05-15 15:18:32			0	36030	0	0	0	19137	17750	141057	27244	971959	39332	106983	0	0	8257	656446	0	0
2024-05-15 15:19:32			0	36010	0	0	0	19148	17750	141237	27357	971932	39343	106987	0	0	8255	657335	0	0
2024-05-15 15:20:32			0	35988	0	0	0	19142	17750	141165	27416	971906	39332	106985	0	0	8254	658315	0	0
2024-05-15 15:21:32			0	35977	0	0	0	19140	17750	141257	27609	971993	39354	106984	0	0	8254	658804	0	0
2024-05-15 15:22:32			0	35956	0	0	0	19150	17750	141401	27675	971993	39332	106988	0	0	8252	659740	0	0
2024-05-15 15:23:32			0	35926	0	0	0	19158	17750	141497	27675	971967	39343	106991	0	0	8251	661080	0	0
2024-05-15 15:24:32			0	35916	0	0	0	19145	17750	141493	27523	971967	39332	106986	0	0	8250	661526	0	0
2024-05-15 15:25:32			0	35902	0	0	0	19150	17750	141601	27492	972020	39332	106988	0	0	8250	662152	0	0
2024-05-15 15:26:32			0	35872	0	0	0	19153	17760	141621	27355	972010	39343	106989	0	0	8248	663458	0	0
2024-05-15 15:27:32			0	35877	0	0	0	19145	17760	141729	27391	972010	39333	106986	0	0	8248	663234	0	0
2024-05-15 15:28:32			0	35859	0	0	0	19158	17760	141733	27684	972036	39343	106991	0	0	8247	664040	0	0
2024-05-15 15:29:32			0	35839	0	0	0	19158	17760	141868	27460	972010	39343	106991	0	0	8246	664937	0	0
2024-05-15 15:30:32			0	35822	0	0	0	19163	17760	141928	27192	971983	39343	106993	0	0	8245	665700	0	0
2024-05-15 15:31:32			0	35820	0	0	0	19163	17750	141928	27301	971993	39343	106993	0	0	8245	665826	0	0
2024-05-15 15:32:32			0	35818	0	0	0	19161	17760	141952	27478	972028	39343	106992	0	0	8245	665879	0	0
2024-05-15 15:33:32			0	35802	0	0	0	19166	17770	141916	27343	972053	39344	106994	0	0	8244	666562	0	0
2024-05-15 15:34:32			0	35770	0	0	0	19158	17760	142044	27448	971983	39343	106991	0	0	8242	668037	0	0
2024-05-15 15:35:32			0	35764	0	0	0	19168	17770	142132	27199	972053	39344	106995	0	0	8242	668271	0	0
2024-05-15 15:36:32			0	35726	0	0	0	19168	17770	142084	27453	971992	39344	106995	0	0	8240	669982	0	0
2024-05-15 15:37:32			0	35727	0	0	0	19168	17770	142220	27237	972018	39344	106995	0	0	8240	669937	0	0
2024-05-15 15:38:32			0	35722	0	0	0	19184	17770	142240	27481	972044	39333	107001	0	0	8239	670163	0	0
2024-05-15 15:39:32			0	35717	0	0	0	19184	17780	142292	27594	972087	39356	107001	0	0	8239	670352	0	0
2024-05-15 15:40:32			0	35701	0	0	0	19181	17780	142388	27633	972149	39345	107000	0	0	8238	671074	0	0
2024-05-15 15:41:32			0	35677	0	0	0	19176	17780	142452	27580	972114	39345	106998	0	0	8237	672158	0	0
2024-05-15 15:42:32			0	35663	0	0	0	19181	17780	142572	27360	972140	39345	107000	0	0	8236	672791	0	0
2024-05-15 15:43:32			0	35656	0	0	0	19176	17780	142536	27621	972140	39334	106998	0	0	8236	673108	0	0
2024-05-15 15:44:32			0	35649	0	0	0	19171	17780	142568	27300	972140	39345	106996	0	0	8236	673424	0	0
2024-05-15 15:45:32			0	35646	0	0	0	19171	17790	142592	27561	972078	39346	106996	0	0	8235	673524	0	0
2024-05-15 15:46:32			0	35644	0	0	0	19184	17780	142600	27460	972087	39345	107001	0	0	8235	673651	0	0
2024-05-15 15:47:32			0	35644	0	0	0	19186	17790	142680	27620	972130	39346	107002	0	0	8235	673614	0	0
2024-05-15 15:48:32			0	35608	0	0	0	19189	17790	142776	27623	972130	39335	107003	0	0	8233	675245	0	0
2024-05-15 15:49:32			0	35585	0	0	0	19186	17790	142764	27433	972139	39346	107002	0	0	8232	676289	0	0
2024-05-15 15:50:32			0	35584	0	0	0	19189	17780	142940	27410	972096	39345	107003	0	0	8232	676371	0	0
2024-05-15 15:51:32			0	35550	0	0	0	19189	17790	143000	27424	972165	39357	107003	0	0	8230	677879	0	0
2024-05-15 15:52:32			0	35540	0	0	0	19202	17790	142980	27255	972191	39346	107008	0	0	8229	678334	0	0
2024-05-15 15:53:32			0	35517	0	0	0	19194	17790	143056	27339	972165	39357	107005	0	0	8228	679381	0	0
2024-05-15 15:54:32			0	35516	0	0	0	19202	17790	143172	27779	972139	39357	107008	0	0	8228	679426	0	0
2024-05-15 15:55:32			0	35489	0	0	0	19189	17810	143084	27473	972163	39348	107003	0	0	8227	680583	0	0
2024-05-15 15:56:32			0	35512	0	0	0	19194	17800	143092	27696	972147	39347	107005	0	0	8228	679571	0	0
2024-05-15 15:57:32			0	35519	0	0	0	19192	17800	143068	27128	972147	39347	107004	0	0	8228	679253	0	0
2024-05-15 15:58:32			0	35545	0	0	0	19186	17790	143104	27293	972139	39346	107002	0	0	8230	678106	0	0
2024-05-15 15:59:32			0	35555	0	0	0	19192	17800	142968	27550	972147	39358	107004	0	0	8230	677615	0	0
2024-05-15 16:00:32			0	35549	0	0	0	19171	17790	142952	27478	972165	39346	106996	0	0	8230	677924	0	0
2024-05-15 16:01:32			0	35545	0	0	0	19184	17800	142968	27424	972208	39347	107001	0	0	8230	678070	0	0
2024-05-15 16:02:32			0	35546	0	0	0	19176	17780	142936	27530	972201	39345	106998	0	0	8230	678098	0	0
2024-05-15 16:03:32			0	35531	0	0	0	19176	17790	143064	27590	972104	39346	106998	0	0	8229	678743	0	0
2024-05-15 16:04:32			0	35545	0	0	0	19184	17790	143012	27485	972157	39335	107001	0	0	8230	678106	0	0
2024-05-15 16:05:32			0	35497	0	0	0	19179	17790	143096	27005	972086	39335	106999	0	0	8227	680292	0	0
2024-05-15 16:06:32			0	35489	0	0	0	19186	17790	143084	27320	972191	39335	107002	0	0	8227	680657	0	0
2024-05-15 16:07:32			0	35475	0	0	0	19186	17800	143268	27346	972234	39358	107002	0	0	8226	681259	0	0
2024-05-15 16:08:32			0	35462	0	0	0	19199	17800	143220	27557	972173	39347	107007	0	0	8225	681852	0	0
2024-05-15 16:09:32			0	35439	0	0	0	19210	17800	143260	27256	972200	39358	107011	0	0	8224	682903	0	0
2024-05-15 16:10:32			0	35426	0	0	0	19215	17800	143340	27312	972200	39369	107013	0	0	8223	683498	0	0
2024-05-15 16:11:32			0	35418	0	0	0	19212	17800	143524	27371	972208	39347	107012	0	0	8222	683864	0	0
2024-05-15 16:12:32			0	35394	0	0	0	19218	17800	143516	27282	972261	39347	107014	0	0	8221	684963	0	0
2024-05-15 16:13:32			0	35373	0	0	0	19238	17810	143512	27398	972296	39359	107022	0	0	8219	685888	0	0
2024-05-15 16:14:32			0	35336	0	0	0	19228	17810	143752	27400	972322	39348	107018	0	0	8218	687587	0	0
2024-05-15 16:15:32			0	35302	0	0	0	19241	17820	143852	27312	972286	39360	107023	0	0	8216	689113	0	0
2024-05-15 16:16:32			0	35287	0	0	0	19244	17820	144060	27350	972268	39361	107024	0	0	8215	689804	0	0
2024-05-15 16:17:32			0	35261	0	0	0	19233	17830	144136	27504	972381	39361	107020	0	0	8213	690964	0	0
2024-05-15 16:18:32			0	35218	0	0	0	19241	17830	144204	27514	972363	39350	107023	0	0	8211	692949	0	0
2024-05-15 16:19:32			0	35210	0	0	0	19238	17840	144324	27543	972398	39361	107022	0	0	8211	693281	0	0
2024-05-15 16:20:32			0	35188	0	0	0	19215	17820	144384	27405	972268	39361	107013	0	0	8210	694375	0	0
2024-05-15 16:21:32			0	35183	0	0	0	19220	17830	144412	27530	972329	39338	107015	0	0	8209	694568	0	0
2024-05-15 16:22:32			0	35149	0	0	0	19215	17820	144416	27505	972294	39338	107013	0	0	8208	696182	0	0
2024-05-15 16:23:32			0	35137	0	0	0	19210	17820	144596	27530	972294	39361	107011	0	0	8207	696738	0	0
2024-05-15 16:24:32			0	35120	0	0	0	19202	17820	144640	27417	972286	39349	107008	0	0	8206	697527	0	0
2024-05-15 16:25:32			0	35093	0	0	0	19218	17820	144679	27447	972268	39338	107014	0	0	8204	698782	0	0
2024-05-15 16:26:32			0	35091	0	0	0	19202	17830	144815	27568	972302	39372	107008	0	0	8205	698837	0	0
2024-05-15 16:27:32			0	35082	0	0	0	19218	17830	144847	27517	972302	39349	107014	0	0	8204	699256	0	0
2024-05-15 16:28:32			0	35067	0	0	0	19215	17820	144819	27628	972339	39349	107013	0	0	8203	699992	0	0
2024-05-15 16:29:32			0	35058	0	0	0	19225	17820	144811	27270	972320	39361	107017	0	0	8202	700411	0	0
2024-05-15 16:30:32			0	35094	0	0	0	19220	17830	144735	27651	972337	39339	107015	0	0	8204	698697	0	0
2024-05-15 16:31:32			0	35099	0	0	0	19207	17820	144583	27267	972294	39361	107010	0	0	8205	698503	0	0
2024-05-15 16:32:32			0	35133	0	0	0	19202	17830	144552	27483	972355	39361	107008	0	0	8207	696886	0	0
2024-05-15 16:33:32			0	35152	0	0	0	19199	17820	144516	27331	972268	39349	107007	0	0	8208	696042	0	0
2024-05-15 16:34:32			0	35151	0	0	0	19197	17820	144452	27098	972268	39349	107006	0	0	8208	696089	0	0
2024-05-15 16:35:32			0	35118	0	0	0	19192	17820	144608	27168	972259	39349	107004	0	0	8206	697620	0	0
2024-05-15 16:36:32			0	35111	0	0	0	19184	17820	144647	27462	972215	39338	107001	0	0	8206	697945	0	0
2024-05-15 16:37:32			0	35093	0	0	0	19181	17810	144743	27358	972243	39348	107000	0	0	8205	698820	0	0
2024-05-15 16:38:32			0	35069	0	0	0	19184	17810	144819	27286	972163	39348	107001	0	0	8204	699937	0	0
2024-05-15 16:39:32			0	35037	0	0	0	19176	17810	144975	27377	972216	39348	106998	0	0	8202	701428	0	0
2024-05-15 16:40:32			0	35005	0	0	0	19168	17810	145127	27630	972172	39370	106995	0	0	8200	702922	0	0
2024-05-15 16:41:32			0	34996	0	0	0	19174	17790	145151	27720	972139	39335	106997	0	0	8200	703419	0	0
2024-05-15 16:42:32			0	34990	0	0	0	19163	17800	145251	27481	972208	39347	106993	0	0	8199	703661	0	0
2024-05-15 16:43:32			0	35004	0	0	0	19163	17800	145195	27370	972120	39347	106993	0	0	8200	703007	0	0
2024-05-15 16:44:32			0	34979	0	0	0	19168	17800	145183	27182	972049	39347	106995	0	0	8199	704175	0	0
2024-05-15 16:45:32			0	34988	0	0	0	19166	17790	145183	27310	972112	39346	106994	0	0	8199	703793	0	0
2024-05-15 16:46:32			0	34971	0	0	0	19155	17790	145235	27379	972104	39368	106990	0	0	8199	704588	0	0
2024-05-15 16:47:32			0	34969	0	0	0	19158	17780	145095	27263	972149	39345	106991	0	0	8198	704720	0	0
2024-05-15 16:48:32			0	34962	0	0	0	19153	17790	145187	27679	972130	39346	106989	0	0	8198	705009	0	0
2024-05-15 16:49:32			0	34948	0	0	0	19155	17780	145327	27090	972043	39345	106990	0	0	8197	705703	0	0
2024-05-15 16:50:32			0	34945	0	0	0	19158	17780	145423	27429	972096	39356	106991	0	0	8197	705844	0	0
2024-05-15 16:51:32			0	34919	0	0	0	19166	17780	145447	27019	972069	39356	106994	0	0	8195	707063	0	0
2024-05-15 16:52:32			0	34908	0	0	0	19155	17790	145495	27403	972051	39346	106990	0	0	8195	707540	0	0
2024-05-15 16:53:32			0	34892	0	0	0	19161	17770	145527	27395	972079	39344	106992	0	0	8194	708369	0	0
2024-05-15 16:54:32			0	34881	0	0	0	19153	17770	145503	27308	972079	39344	106989	0	0	8193	708886	0	0
2024-05-15 16:55:32			0	34883	0	0	0	19163	17780	145599	26974	972087	39345	106993	0	0	8193	708753	0	0
2024-05-15 16:56:32			0	34885	0	0	0	19163	17780	145659	27086	972140	39334	106993	0	0	8194	708660	0	0
2024-05-15 16:57:32			0	34897	0	0	0	19155	17770	145683	27287	972079	39344	106990	0	0	8194	708134	0	0
2024-05-15 16:58:32			0	34879	0	0	0	19155	17780	145683	27435	972061	39356	106990	0	0	8193	708941	0	0
2024-05-15 16:59:32			0	34877	0	0	0	19161	17770	145607	27433	972106	39355	106992	0	0	8193	709074	0	0
2024-05-15 17:00:32			0	34882	0	0	0	19148	17780	145599	27656	972043	39356	106987	0	0	8194	708800	0	0
2024-05-15 17:01:32			0	34897	0	0	0	19150	17790	145591	27215	972104	39346	106988	0	0	8194	708057	0	0
2024-05-15 17:02:32			0	34909	0	0	0	19163	17780	145447	27606	972087	39345	106993	0	0	8195	707532	0	0
2024-05-15 17:03:32			0	34921	0	0	0	19168	17770	145579	27284	972106	39344	106995	0	0	8195	707007	0	0
2024-05-15 17:04:32			0	34920	0	0	0	19163	17770	145403	27203	972097	39367	106993	0	0	8195	707055	0	0
2024-05-15 17:05:32			0	34941	0	0	0	19148	17770	145363	27435	972079	39355	106987	0	0	8197	706070	0	0
2024-05-15 17:06:32			0	34941	0	0	0	19145	17780	145271	27438	972096	39356	106986	0	0	8197	706031	0	0
2024-05-15 17:07:32			0	34936	0	0	0	19150	17780	145323	27293	972087	39345	106988	0	0	8197	706266	0	0
2024-05-15 17:08:32			0	34929	0	0	0	19150	17770	145355	27322	972106	39355	106988	0	0	8196	706632	0	0
2024-05-15 17:09:32			0	34927	0	0	0	19158	17780	145407	27412	972061	39334	106991	0	0	8196	706688	0	0
2024-05-15 17:10:32			0	34919	0	0	0	19161	17770	145463	27182	972124	39344	106992	0	0	8195	707102	0	0
2024-05-15 17:11:32			0	34905	0	0	0	19166	17770	145503	27459	972053	39355	106994	0	0	8195	707759	0	0
2024-05-15 17:12:32			0	34882	0	0	0	19161	17780	145499	27326	972114	39345	106992	0	0	8193	708800	0	0
2024-05-15 17:13:32			0	34871	0	0	0	19161	17770	145631	27072	972079	39355	106992	0	0	8193	709356	0	0
2024-05-15 17:14:32			0	34862	0	0	0	19158	17770	145671	27293	972079	39355	106991	0	0	8192	709780	0	0
2024-05-15 17:15:32			0	34848	0	0	0	19163	17770	145663	27552	972079	39344	106993	0	0	8191	710439	0	0
2024-05-15 17:16:32			0	34836	0	0	0	19158	17770	145679	27362	972079	39344	106991	0	0	8191	711004	0	0
2024-05-15 17:17:32			0	34851	0	0	0	19153	17770	145719	27232	972079	39355	106989	0	0	8192	710297	0	0
2024-05-15 17:18:32			0	34843	0	0	0	19153	17770	145691	27223	972106	39333	106989	0	0	8191	710674	0	0
2024-05-15 17:19:32			0	34849	0	0	0	19158	17770	145739	27675	972097	39344	106991	0	0	8192	710392	0	0
2024-05-15 17:20:32			0	34848	0	0	0	19163	17770	145759	27381	972044	39355	106993	0	0	8191	710439	0	0
2024-05-15 17:21:32			0	34837	0	0	0	19158	17770	145679	27270	972053	39344	106991	0	0	8191	710957	0	0
2024-05-15 17:22:32			0	34839	0	0	0	19161	17770	145799	27220	972044	39355	106992	0	0	8191	710863	0	0
2024-05-15 17:23:32			0	34835	0	0	0	19166	17770	145815	27360	972079	39355	106994	0	0	8191	711051	0	0
2024-05-15 17:24:32			0	34825	0	0	0	19161	17770	145879	26986	972097	39344	106992	0	0	8190	711522	0	0
2024-05-15 17:25:32			0	34836	0	0	0	19163	17770	145839	27447	972132	39344	106993	0	0	8191	711004	0	0
2024-05-15 17:26:32			0	34848	0	0	0	19166	17770	145739	26975	972079	39344	106994	0	0	8191	710439	0	0
2024-05-15 17:27:32			0	34861	0	0	0	19163	17770	145747	27234	972079	39355	106993	0	0	8192	709827	0	0
2024-05-15 17:28:32			0	34853	0	0	0	19161	17780	145707	27196	972087	39345	106992	0	0	8192	710165	0	0
2024-05-15 17:29:32			0	34876	0	0	0	19158	17780	145639	27414	972087	39356	106991	0	0	8193	709083	0	0
2024-05-15 17:30:32			0	34862	0	0	0	19158	17770	145567	27234	972071	39355	106991	0	0	8192	709780	0	0
2024-05-15 17:31:32			0	34893	0	0	0	19155	17780	145511	26923	972114	39345	106990	0	0	8194	708284	0	0
2024-05-15 17:32:32			0	34916	0	0	0	19161	17780	145475	27182	972114	39345	106992	0	0	8195	707204	0	0
2024-05-15 17:33:32			0	34922	0	0	0	19161	17770	145475	27261	972097	39344	106992	0	0	8196	706961	0	0
2024-05-15 17:34:32			0	34928	0	0	0	19163	17780	145403	27310	972087	39345	106993	0	0	8196	706641	0	0
2024-05-15 17:35:32			0	34927	0	0	0	19158	17770	145375	27658	972124	39355	106991	0	0	8196	706726	0	0
2024-05-15 17:36:32			0	34938	0	0	0	19153	17770	145387	27512	972071	39333	106989	0	0	8197	706210	0	0
2024-05-15 17:37:32			0	34923	0	0	0	19158	17770	145387	27447	972132	39355	106991	0	0	8196	706914	0	0
2024-05-15 17:38:32			0	34947	0	0	0	19155	17780	145363	27628	972114	39334	106990	0	0	8197	705750	0	0
2024-05-15 17:39:32			0	34935	0	0	0	19158	17770	145339	27341	972079	39367	106991	0	0	8196	706351	0	0
2024-05-15 17:40:32			0	34954	0	0	0	19163	17770	145279	27364	972106	39355	106993	0	0	8197	705461	0	0
2024-05-15 17:41:32			0	34942	0	0	0	19155	17770	145411	27324	972079	39367	106990	0	0	8197	706023	0	0
2024-05-15 17:42:32			0	34945	0	0	0	19155	17770	145383	27001	972000	39355	106990	0	0	8197	705882	0	0
2024-05-15 17:43:32			0	34932	0	0	0	19163	17770	145391	27371	972053	39344	106993	0	0	8196	706492	0	0
2024-05-15 17:44:32			0	34934	0	0	0	19179	17770	145291	27213	972211	39355	106999	0	0	8196	706398	0	0
2024-05-15 17:45:32			0	34911	0	0	0	19192	17770	145371	27279	972071	39355	107004	0	0	8194	707477	0	0
2024-05-15 17:46:32			0	34905	0	0	0	19179	17780	145407	27422	972149	39345	106999	0	0	8194	707720	0	0
2024-05-15 17:47:32			0	34930	0	0	0	19186	17780	145403	27383	972193	39356	107002	0	0	8196	706547	0	0
2024-05-15 17:48:32			0	34896	0	0	0	19186	17780	145451	27434	972122	39356	107002	0	0	8194	708143	0	0
2024-05-15 17:49:32			0	34921	0	0	0	19179	17790	145459	27237	972183	39357	106999	0	0	8195	706930	0	0
2024-05-15 17:50:32			0	34880	0	0	0	19181	17770	145423	27078	972132	39355	107000	0	0	8193	708933	0	0
2024-05-15 17:51:32			0	34883	0	0	0	19171	17770	145515	27310	972132	39344	106996	0	0	8193	708792	0	0
2024-05-15 17:52:32			0	34900	0	0	0	19166	17780	145547	27135	972122	39345	106994	0	0	8194	707955	0	0
2024-05-15 17:53:32			0	34886	0	0	0	19171	17780	145463	27000	972175	39345	106996	0	0	8193	708612	0	0
2024-05-15 17:54:32			0	34868	0	0	0	19176	17770	145563	27194	972158	39367	106998	0	0	8192	709497	0	0
2024-05-15 17:55:32			0	34883	0	0	0	19181	17780	145539	27372	972201	39345	107000	0	0	8193	708753	0	0
2024-05-15 17:56:32			0	34861	0	0	0	19179	17780	145571	27490	972087	39345	106999	0	0	8192	709788	0	0
2024-05-15 17:57:32			0	34879	0	0	0	19174	17780	145587	27464	972096	39345	106997	0	0	8193	708941	0	0
2024-05-15 17:58:32			0	34876	0	0	0	19171	17790	145619	27130	972104	39346	106996	0	0	8193	709044	0	0
2024-05-15 17:59:32			0	34861	0	0	0	19179	17780	145635	27135	972122	39345	106999	0	0	8192	709788	0	0
2024-05-15 18:00:32			0	34851	0	0	0	19166	17780	145659	27400	972114	39334	106994	0	0	8192	710259	0	0
2024-05-15 18:01:32			0	34839	0	0	0	19171	17780	145683	27282	972167	39345	106996	0	0	8191	710824	0	0
2024-05-15 18:02:32			0	34821	0	0	0	19184	17780	145803	27100	972193	39356	107001	0	0	8190	711672	0	0
2024-05-15 18:03:32			0	34820	0	0	0	19184	17790	145803	27182	972183	39357	107001	0	0	8190	711681	0	0
2024-05-15 18:04:32			0	34813	0	0	0	19186	17780	145843	27098	972149	39356	107002	0	0	8189	712049	0	0
2024-05-15 18:05:32			0	34802	0	0	0	19192	17780	145855	26824	972193	39345	107004	0	0	8188	712569	0	0
2024-05-15 18:06:32			0	34777	0	0	0	19192	17790	145927	27218	972191	39357	107004	0	0	8187	713710	0	0
2024-05-15 18:07:32			0	34786	0	0	0	19197	17790	145943	27102	972130	39368	107006	0	0	8187	713285	0	0
2024-05-15 18:08:32			0	34785	0	0	0	19207	17790	145859	27561	972165	39357	107010	0	0	8187	713332	0	0
2024-05-15 18:09:32			0	34787	0	0	0	19202	17780	145863	27364	972175	39356	107008	0	0	8187	713277	0	0
2024-05-15 18:10:32			0	34808	0	0	0	19202	17800	145879	27409	972200	39369	107008	0	0	8189	712208	0	0
2024-05-15 18:11:32			0	34837	0	0	0	19202	17800	145827	27168	972253	39358	107008	0	0	8190	710841	0	0
2024-05-15 18:12:32			0	34838	0	0	0	19202	17800	145675	27260	972208	39358	107008	0	0	8190	710793	0	0
2024-05-15 18:13:32			0	34891	0	0	0	19207	17800	145487	27187	972261	39358	107010	0	0	8193	708300	0	0
2024-05-15 18:14:32			0	34868	0	0	0	19210	17800	145491	27303	972234	39358	107011	0	0	8192	709381	0	0
2024-05-15 18:15:32			0	34912	0	0	0	19223	17800	145435	27689	972261	39347	107016	0	0	8194	707314	0	0
2024-05-15 18:16:32			0	34911	0	0	0	19220	17810	145359	27334	972251	39348	107015	0	0	8194	707323	0	0
2024-05-15 18:17:32			0	34930	0	0	0	19212	17810	145363	27383	972269	39348	107012	0	0	8195	706431	0	0
2024-05-15 18:18:32			0	34925	0	0	0	19223	17810	145431	27476	972296	39359	107016	0	0	8195	706666	0	0
2024-05-15 18:19:32			0	34933	0	0	0	19223	17820	145283	27535	972339	39360	107016	0	0	8195	706252	0	0
2024-05-15 18:20:32			0	34936	0	0	0	19220	17820	145299	27180	972312	39349	107015	0	0	8196	706112	0	0
2024-05-15 18:21:32			0	34923	0	0	0	19220	17810	145419	27537	972322	39359	107015	0	0	8195	706760	0	0
2024-05-15 18:22:32			0	34926	0	0	0	19215	17820	145431	27286	972286	39371	107013	0	0	8195	706581	0	0
2024-05-15 18:23:32			0	34920	0	0	0	19223	17820	145287	27386	972312	39360	107016	0	0	8195	706862	0	0
2024-05-15 18:24:32			0	34942	0	0	0	19223	17810	145355	27223	972348	39359	107016	0	0	8196	705869	0	0
2024-05-15 18:25:32			0	34932	0	0	0	19231	17820	145267	27305	972347	39372	107019	0	0	8195	706299	0	0
2024-05-15 18:26:32			0	34914	0	0	0	19223	17820	145307	27268	972286	39349	107016	0	0	8194	707143	0	0
2024-05-15 18:27:32			0	34920	0	0	0	19231	17820	145223	27431	972320	39372	107019	0	0	8195	706862	0	0
2024-05-15 18:28:32			0	34928	0	0	0	19231	17820	145399	27218	972339	39349	107019	0	0	8195	706487	0	0
2024-05-15 18:29:32			0	34916	0	0	0	19218	17830	145423	27308	972302	39372	107014	0	0	8195	707011	0	0
2024-05-15 18:30:32			0	34893	0	0	0	19215	17820	145391	27079	972312	39360	107013	0	0	8193	708129	0	0
2024-05-15 18:31:32			0	34897	0	0	0	19225	17830	145447	27209	972355	39361	107017	0	0	8193	707903	0	0
2024-05-15 18:32:32			0	34866	0	0	0	19220	17820	145539	27163	972312	39360	107015	0	0	8192	709398	0	0
2024-05-15 18:33:32			0	34863	0	0	0	19228	17830	145635	27312	972329	39361	107018	0	0	8191	709501	0	0
2024-05-15 18:34:32			0	34864	0	0	0	19231	17820	145627	26975	972347	39372	107019	0	0	8191	709492	0	0
2024-05-15 18:35:32			0	34844	0	0	0	19228	17820	145751	27393	972320	39361	107018	0	0	8190	710434	0	0
2024-05-15 18:36:32			0	34832	0	0	0	19220	17840	145635	27379	972345	39373	107015	0	0	8190	710921	0	0
2024-05-15 18:37:32			0	34840	0	0	0	19238	17830	145691	27138	972276	39372	107022	0	0	8190	710583	0	0
2024-05-15 18:38:32			0	34808	0	0	0	19223	17830	145739	27253	972390	39361	107016	0	0	8188	712091	0	0
2024-05-15 18:39:32			0	34833	0	0	0	19228	17830	145747	27379	972408	39361	107018	0	0	8190	710913	0	0
2024-05-15 18:40:32			0	34829	0	0	0	19231	17830	145815	27362	972390	39373	107019	0	0	8190	711101	0	0
2024-05-15 18:41:32			0	34828	0	0	0	19225	17830	145795	27521	972337	39361	107017	0	0	8190	711148	0	0
2024-05-15 18:42:32			0	34821	0	0	0	19228	17830	145815	27194	972363	39373	107018	0	0	8189	711478	0	0
2024-05-15 18:43:32			0	34834	0	0	0	19231	17830	145763	27474	972363	39361	107019	0	0	8190	710866	0	0
2024-05-15 18:44:32			0	34813	0	0	0	19238	17830	145731	27552	972390	39361	107022	0	0	8188	711856	0	0
2024-05-15 18:45:32			0	34827	0	0	0	19238	17830	145819	27324	972337	39373	107022	0	0	8189	711196	0	0
2024-05-15 18:46:32			0	34806	0	0	0	19246	17830	145839	27412	972390	39361	107025	0	0	8188	712186	0	0
2024-05-15 18:47:32			0	34810	0	0	0	19241	17830	145811	27353	972416	39361	107023	0	0	8188	711997	0	0
2024-05-15 18:48:32			0	34828	0	0	0	19244	17840	145695	27445	972398	39361	107024	0	0	8189	711110	0	0
2024-05-15 18:49:32			0	34821	0	0	0	19238	17840	145787	27260	972380	39362	107022	0	0	8189	711440	0	0
2024-05-15 18:50:32			0	34805	0	0	0	19244	17840	145807	27436	972424	39361	107024	0	0	8188	712194	0	0
2024-05-15 18:51:32			0	34813	0	0	0	19251	17840	145823	27301	972380	39362	107027	0	0	8188	711817	0	0
2024-05-15 18:52:32			0	34792	0	0	0	19231	17840	145891	27107	972380	39362	107019	0	0	8187	712808	0	0
2024-05-15 18:53:32			0	34792	0	0	0	19241	17830	145975	27197	972408	39372	107023	0	0	8187	712846	0	0
2024-05-15 18:54:32			0	34752	0	0	0	19236	17840	146007	27371	972398	39361	107021	0	0	8185	714698	0	0
2024-05-15 18:55:32			0	34748	0	0	0	19241	17840	146075	27346	972398	39339	107023	0	0	8185	714887	0	0
2024-05-15 18:56:32			0	34707	0	0	0	19251	17840	146175	27471	972406	39351	107027	0	0	8182	716828	0	0
2024-05-15 18:57:32			0	34699	0	0	0	19246	17850	146195	27296	972494	39374	107025	0	0	8182	717168	0	0
2024-05-15 18:58:32			0	34696	0	0	0	19254	17840	146263	27440	972372	39373	107028	0	0	8182	717350	0	0
2024-05-15 18:59:32			0	34689	0	0	0	19262	17850	146255	27249	972423	39363	107031	0	0	8181	717643	0	0
2024-05-15 19:00:32			0	34675	0	0	0	19257	17840	146315	27052	972486	39374	107029	0	0	8180	718347	0	0
2024-05-15 19:01:32			0	34659	0	0	0	19264	17840	146371	27474	972477	39373	107032	0	0	8179	719107	0	0
2024-05-15 19:02:32			0	34678	0	0	0	19257	17850	146319	27156	972467	39362	107029	0	0	8181	718165	0	0
2024-05-15 19:03:32			0	34676	0	0	0	19264	17850	146359	26968	972449	39363	107032	0	0	8180	718260	0	0
2024-05-15 19:04:32			0	34676	0	0	0	19264	17850	146375	27244	972529	39374	107032	0	0	8180	718260	0	0
2024-05-15 19:05:32			0	34678	0	0	0	19259	17860	146303	27232	972466	39364	107030	0	0	8181	718126	0	0
2024-05-15 19:06:32			0	34683	0	0	0	19254	17850	146271	27514	972423	39363	107028	0	0	8181	717928	0	0
2024-05-15 19:07:32			0	34687	0	0	0	19257	17860	146323	27585	972431	39374	107029	0	0	8181	717699	0	0
2024-05-15 19:08:32			0	34690	0	0	0	19259	17850	146331	27272	972396	39352	107030	0	0	8181	717595	0	0
2024-05-15 19:09:32			0	34681	0	0	0	19262	17850	146263	27312	972502	39363	107031	0	0	8181	718023	0	0
2024-05-15 19:10:32			0	34683	0	0	0	19262	17860	146267	27512	972511	39363	107031	0	0	8181	717889	0	0
2024-05-15 19:11:32			0	34692	0	0	0	19257	17850	146227	27261	972441	39362	107029	0	0	8181	717501	0	0
2024-05-15 19:12:32			0	34693	0	0	0	19254	17860	146247	27183	972484	39374	107028	0	0	8182	717414	0	0
2024-05-15 19:13:32			0	34713	0	0	0	19257	17860	146159	27440	972484	39374	107029	0	0	8183	716466	0	0
2024-05-15 19:14:32			0	34725	0	0	0	19262	17850	146143	27481	972449	39363	107031	0	0	8183	715936	0	0
2024-05-15 19:15:32			0	34734	0	0	0	19270	17850	146015	27258	972502	39363	107034	0	0	8184	715510	0	0
2024-05-15 19:16:32			0	34749	0	0	0	19262	17860	145983	27300	972493	39385	107031	0	0	8185	714762	0	0
2024-05-15 19:17:32			0	34752	0	0	0	19257	17860	145971	27300	972537	39363	107029	0	0	8185	714620	0	0
2024-05-15 19:18:32			0	34766	0	0	0	19262	17860	145939	27322	972484	39363	107031	0	0	8186	713958	0	0
2024-05-15 19:19:32			0	34760	0	0	0	19267	17850	145887	27580	972502	39363	107033	0	0	8185	714280	0	0
2024-05-15 19:20:32			0	34782	0	0	0	19270	17860	145827	27675	972484	39385	107034	0	0	8186	713202	0	0
2024-05-15 19:21:32			0	34744	0	0	0	19270	17850	145871	27604	972476	39363	107034	0	0	8184	715037	0	0
2024-05-15 19:22:32			0	34783	0	0	0	19264	17850	145843	27724	972449	39363	107032	0	0	8186	713193	0	0
2024-05-15 19:23:32			0	34772	0	0	0	19270	17880	145859	27286	972491	39375	107034	0	0	8186	713596	0	0
2024-05-15 19:24:32			0	34763	0	0	0	19264	17860	145867	27170	972537	39374	107032	0	0	8185	714100	0	0
2024-05-15 19:25:32			0	34775	0	0	0	19270	17870	145843	27575	972554	39375	107034	0	0	8186	713494	0	0
2024-05-15 19:26:32			0	34796	0	0	0	19270	17870	145839	27213	972554	39365	107034	0	0	8187	712502	0	0
2024-05-15 19:27:32			0	34778	0	0	0	19272	17860	145871	27602	972590	39363	107035	0	0	8186	713391	0	0
2024-05-15 19:28:32			0	34807	0	0	0	19270	17860	145739	27620	972519	39364	107034	0	0	8188	712022	0	0
2024-05-15 19:29:32			0	34813	0	0	0	19272	17860	145815	27500	972466	39364	107035	0	0	8188	711739	0	0
2024-05-15 19:30:32			0	34821	0	0	0	19262	17860	145663	27242	972493	39375	107031	0	0	8189	711362	0	0
2024-05-15 19:31:32			0	34807	0	0	0	19267	17860	145739	27651	972519	39375	107033	0	0	8188	712022	0	0
2024-05-15 19:32:32			0	34809	0	0	0	19267	17870	145863	27687	972535	39365	107033	0	0	8188	711889	0	0
2024-05-15 19:33:32			0	34808	0	0	0	19270	17880	145719	27282	972517	39365	107034	0	0	8188	711897	0	0
2024-05-15 19:34:32			0	34828	0	0	0	19267	17870	145719	27675	972535	39365	107033	0	0	8189	710994	0	0
2024-05-15 19:35:32			0	34842	0	0	0	19275	17860	145663	27341	972564	39374	107036	0	0	8190	710373	0	0
2024-05-15 19:36:32			0	34816	0	0	0	19272	17880	145635	27388	972578	39366	107035	0	0	8188	711520	0	0
2024-05-15 19:37:32			0	34831	0	0	0	19277	17870	145647	27395	972509	39375	107037	0	0	8189	710852	0	0
2024-05-15 19:38:32			0	34827	0	0	0	19262	17870	145651	27386	972483	39365	107031	0	0	8189	711041	0	0
2024-05-15 19:39:32			0	34835	0	0	0	19257	17880	145503	27381	972597	39375	107029	0	0	8190	710625	0	0
2024-05-15 19:40:32			0	34847	0	0	0	19270	17880	145535	27435	972544	39375	107034	0	0	8190	710060	0	0
2024-05-15 19:41:32			0	34867	0	0	0	19264	17880	145539	27320	972517	39375	107032	0	0	8191	709119	0	0
2024-05-15 19:42:32			0	34856	0	0	0	19272	17870	145539	27286	972509	39375	107035	0	0	8190	709675	0	0
2024-05-15 19:43:32			0	34851	0	0	0	19272	17870	145519	27809	972562	39365	107035	0	0	8190	709910	0	0
2024-05-15 19:44:32			0	34871	0	0	0	19272	17880	145515	27656	972597	39365	107035	0	0	8191	708931	0	0
2024-05-15 19:45:32			0	34886	0	0	0	19280	17880	145455	27535	972597	39365	107038	0	0	8192	708226	0	0
2024-05-15 19:46:32			0	34898	0	0	0	19280	17870	145367	27412	972588	39365	107038	0	0	8193	707702	0	0
2024-05-15 19:47:32			0	34884	0	0	0	19272	17870	145391	27661	972588	39375	107035	0	0	8192	708359	0	0
2024-05-15 19:48:32			0	34900	0	0	0	19277	17870	145331	27360	972535	39354	107037	0	0	8193	707608	0	0
2024-05-15 19:49:32			0	34917	0	0	0	19270	17870	145295	27661	972554	39365	107034	0	0	8194	706810	0	0
2024-05-15 19:50:32			0	34912	0	0	0	19275	17870	145231	27497	972535	39375	107036	0	0	8194	707045	0	0
2024-05-15 19:51:32			0	34930	0	0	0	19277	17880	145199	27156	972605	39376	107037	0	0	8195	706162	0	0
2024-05-15 19:52:32			0	34946	0	0	0	19277	17880	145151	27121	972544	39365	107037	0	0	8195	705413	0	0
2024-05-15 19:53:32			0	34957	0	0	0	19280	17870	145135	27357	972588	39375	107038	0	0	8196	704936	0	0
2024-05-15 19:54:32			0	34960	0	0	0	19277	17870	145095	27324	972588	39375	107037	0	0	8196	704796	0	0
2024-05-15 19:55:32			0	34990	0	0	0	19280	17880	145023	27232	972597	39365	107038	0	0	8198	703354	0	0
2024-05-15 19:56:32			0	34996	0	0	0	19275	17880	144899	27450	972570	39365	107036	0	0	8198	703074	0	0
2024-05-15 19:57:32			0	35015	0	0	0	19275	17880	144863	27620	972597	39386	107036	0	0	8199	702187	0	0
2024-05-15 19:58:32			0	35027	0	0	0	19280	17880	144743	27384	972526	39366	107038	0	0	8200	701627	0	0
2024-05-15 19:59:32			0	35036	0	0	0	19283	17870	144691	27241	972615	39375	107039	0	0	8200	701246	0	0
2024-05-15 20:00:32			0	35046	0	0	0	19277	17880	144759	27383	972605	39376	107037	0	0	8201	700741	0	0
2024-05-15 20:01:32			0	35059	0	0	0	19285	17880	144719	27305	972544	39365	107040	0	0	8202	700136	0	0
2024-05-15 20:02:32			0	35040	0	0	0	19277	17890	144675	27251	972640	39377	107037	0	0	8201	700983	0	0
2024-05-15 20:03:32			0	35063	0	0	0	19288	17880	144743	27104	972578	39376	107041	0	0	8202	699949	0	0
2024-05-15 20:04:32			0	35038	0	0	0	19277	17880	144647	27241	972597	39375	107037	0	0	8201	701114	0	0
2024-05-15 20:05:32			0	35042	0	0	0	19283	17880	144711	27033	972605	39376	107039	0	0	8201	700928	0	0
2024-05-15 20:06:32			0	35060	0	0	0	19280	17880	144759	27114	972570	39375	107038	0	0	8202	700089	0	0
2024-05-15 20:07:32			0	35034	0	0	0	19283	17880	144671	27417	972578	39376	107039	0	0	8200	701300	0	0
2024-05-15 20:08:32			0	35034	0	0	0	19283	17880	144771	27312	972605	39387	107039	0	0	8200	701300	0	0
2024-05-15 20:09:32			0	35023	0	0	0	19280	17880	144735	27220	972597	39375	107038	0	0	8200	701814	0	0
2024-05-15 20:10:32			0	35008	0	0	0	19285	17880	144803	27327	972552	39376	107040	0	0	8199	702514	0	0
2024-05-15 20:11:32			0	35014	0	0	0	19277	17890	144803	27161	972666	39388	107037	0	0	8199	702195	0	0
2024-05-15 20:12:32			0	35027	0	0	0	19277	17880	144723	27481	972605	39376	107037	0	0	8200	701627	0	0
2024-05-15 20:13:32			0	35011	0	0	0	19275	17890	144779	27415	972701	39377	107036	0	0	8199	702335	0	0
2024-05-15 20:14:32			0	35025	0	0	0	19277	17890	144807	27590	972587	39356	107037	0	0	8200	701682	0	0
2024-05-15 20:15:32			0	34978	0	0	0	19277	17880	144819	27673	972552	39376	107037	0	0	8197	703915	0	0
2024-05-15 20:16:32			0	35013	0	0	0	19280	17880	144895	27244	972597	39375	107038	0	0	8199	702280	0	0
2024-05-15 20:17:32			0	35003	0	0	0	19275	17880	144855	27443	972578	39376	107036	0	0	8199	702747	0	0
2024-05-15 20:18:32			0	35011	0	0	0	19280	17880	144851	27102	972578	39376	107038	0	0	8199	702373	0	0
2024-05-15 20:19:32			0	35017	0	0	0	19275	17890	144835	27627	972640	39377	107036	0	0	8200	702055	0	0
2024-05-15 20:20:32			0	35003	0	0	0	19275	17880	144771	27291	972605	39387	107036	0	0	8199	702747	0	0
2024-05-15 20:21:32			0	35011	0	0	0	19283	17880	144823	27357	972578	39366	107039	0	0	8199	702373	0	0
2024-05-15 20:22:32			0	35038	0	0	0	19264	17880	144723	27372	972552	39366	107032	0	0	8201	701114	0	0
2024-05-15 20:23:32			0	35043	0	0	0	19277	17880	144827	27345	972526	39387	107037	0	0	8201	700881	0	0
2024-05-15 20:24:32			0	35030	0	0	0	19267	17880	144735	27729	972578	39376	107033	0	0	8200	701487	0	0
2024-05-15 20:25:32			0	35029	0	0	0	19275	17880	144787	27346	972570	39365	107036	0	0	8200	701534	0	0
2024-05-15 20:26:32			0	35047	0	0	0	19267	17880	144723	27343	972623	39354	107033	0	0	8201	700695	0	0
2024-05-15 20:27:32			0	35038	0	0	0	19272	17890	144699	27281	972587	39367	107035	0	0	8201	701076	0	0
2024-05-15 20:28:32			0	35047	0	0	0	19280	17880	144635	27646	972570	39375	107038	0	0	8201	700695	0	0
2024-05-15 20:29:32			0	35033	0	0	0	19272	17880	144651	27398	972597	39365	107035	0	0	8200	701347	0	0
2024-05-15 20:30:32			0	35034	0	0	0	19275	17880	144623	27576	972578	39376	107036	0	0	8200	701300	0	0
2024-05-15 20:31:32			0	35040	0	0	0	19272	17880	144679	27258	972658	39355	107035	0	0	8201	701021	0	0
2024-05-15 20:32:32			0	35045	0	0	0	19277	17870	144667	27464	972607	39386	107037	0	0	8201	700826	0	0
2024-05-15 20:33:32			0	35051	0	0	0	19275	17880	144599	27485	972658	39366	107036	0	0	8201	700508	0	0
2024-05-15 20:34:32			0	35059	0	0	0	19264	17890	144591	27466	972640	39377	107032	0	0	8202	700098	0	0
2024-05-15 20:35:32			0	35065	0	0	0	19270	17880	144543	27634	972658	39376	107034	0	0	8202	699856	0	0
2024-05-15 20:36:32			0	35077	0	0	0	19264	17880	144563	27239	972544	39375	107032	0	0	8203	699298	0	0
2024-05-15 20:37:32			0	35062	0	0	0	19257	17880	144651	27187	972517	39365	107029	0	0	8202	699996	0	0
2024-05-15 20:38:32			0	35051	0	0	0	19275	17880	144683	27362	972544	39365	107036	0	0	8201	700508	0	0
2024-05-15 20:39:32			0	35043	0	0	0	19270	17870	144663	27353	972588	39375	107034	0	0	8201	700919	0	0
2024-05-15 20:40:32			0	35036	0	0	0	19270	17880	144743	27397	972517	39365	107034	0	0	8201	701207	0	0
2024-05-15 20:41:32			0	35016	0	0	0	19270	17880	144791	27289	972578	39366	107034	0	0	8199	702140	0	0
2024-05-15 20:42:32			0	34997	0	0	0	19267	17870	144811	27379	972562	39365	107033	0	0	8198	703065	0	0
2024-05-15 20:43:32			0	34996	0	0	0	19267	17880	144939	27170	972544	39375	107033	0	0	8198	703074	0	0
2024-05-15 20:44:32			0	34981	0	0	0	19270	17880	144999	27208	972544	39365	107034	0	0	8198	703775	0	0
2024-05-15 20:45:32			0	34998	0	0	0	19264	17880	144931	27235	972597	39375	107032	0	0	8199	702980	0	0
2024-05-15 20:46:32			0	34986	0	0	0	19259	17880	144895	27338	972544	39375	107030	0	0	8198	703541	0	0
2024-05-15 20:47:32			0	35017	0	0	0	19257	17880	144955	27424	972517	39375	107029	0	0	8200	702094	0	0
2024-05-15 20:48:32			0	34989	0	0	0	19257	17880	144983	27237	972544	39375	107029	0	0	8198	703401	0	0
2024-05-15 20:49:32			0	35008	0	0	0	19272	17880	144855	27138	972544	39365	107035	0	0	8199	702514	0	0
2024-05-15 20:50:32			0	35001	0	0	0	19262	17870	144923	27369	972562	39375	107031	0	0	8199	702879	0	0
2024-05-15 20:51:32			0	34993	0	0	0	19270	17860	144923	27388	972572	39375	107034	0	0	8198	703291	0	0
2024-05-15 20:52:32			0	35003	0	0	0	19270	17880	144859	27644	972570	39365	107034	0	0	8199	702747	0	0
2024-05-15 20:53:32			0	35029	0	0	0	19270	17890	144787	27286	972560	39367	107034	0	0	8200	701495	0	0
2024-05-15 20:54:32			0	35027	0	0	0	19267	17870	144651	27202	972588	39375	107033	0	0	8200	701665	0	0
2024-05-15 20:55:32			0	35047	0	0	0	19270	17860	144759	27390	972598	39385	107034	0	0	8201	700771	0	0
2024-05-15 20:56:32			0	35063	0	0	0	19270	17880	144667	27246	972570	39365	107034	0	0	8202	699949	0	0
2024-05-15 20:57:32			0	35067	0	0	0	19267	17870	144623	27131	972562	39354	107033	0	0	8202	699801	0	0
2024-05-15 20:58:32			0	35094	0	0	0	19264	17880	144487	27467	972544	39375	107032	0	0	8204	698507	0	0
2024-05-15 20:59:32			0	35090	0	0	0	19264	17870	144499	26932	972527	39397	107032	0	0	8204	698731	0	0
2024-05-15 21:00:32			0	35100	0	0	0	19270	17880	144511	27405	972552	39366	107034	0	0	8204	698228	0	0
2024-05-15 21:01:32			0	35087	0	0	0	19272	17880	144403	27320	972578	39376	107035	0	0	8203	698832	0	0
2024-05-15 21:02:32			0	35098	0	0	0	19262	17880	144451	27140	972544	39386	107031	0	0	8204	698321	0	0
2024-05-15 21:03:32			0	35091	0	0	0	19259	17870	144403	27498	972562	39365	107030	0	0	8204	698685	0	0
2024-05-15 21:04:32			0	35082	0	0	0	19264	17860	144447	27258	972545	39375	107032	0	0	8203	699141	0	0
2024-05-15 21:05:32			0	35062	0	0	0	19259	17870	144559	27454	972580	39375	107030	0	0	8202	700034	0	0
2024-05-15 21:06:32			0	35053	0	0	0	19259	17860	144659	27552	972466	39364	107030	0	0	8202	700491	0	0
2024-05-15 21:07:32			0	35053	0	0	0	19259	17860	144651	27268	972545	39375	107030	0	0	8202	700491	0	0
2024-05-15 21:08:32			0	35041	0	0	0	19264	17860	144771	27568	972519	39364	107032	0	0	8201	701051	0	0
2024-05-15 21:09:32			0	35027	0	0	0	19264	17860	144751	27474	972545	39375	107032	0	0	8200	701703	0	0
2024-05-15 21:10:32			0	34996	0	0	0	19262	17870	144867	27457	972554	39375	107031	0	0	8198	703112	0	0
2024-05-15 21:11:32			0	34984	0	0	0	19259	17880	144935	27261	972597	39365	107030	0	0	8198	703635	0	0
2024-05-15 21:12:32			0	34975	0	0	0	19264	17870	145111	27419	972562	39375	107032	0	0	8197	704094	0	0
2024-05-15 21:13:32			0	34978	0	0	0	19262	17860	145011	27743	972537	39374	107031	0	0	8197	703992	0	0
2024-05-15 21:14:32			0	34972	0	0	0	19264	17870	144979	27329	972535	39375	107032	0	0	8197	704234	0	0
2024-05-15 21:15:32			0	34955	0	0	0	19262	17860	145075	27448	972616	39363	107031	0	0	8196	705068	0	0
2024-05-15 21:16:32			0	34945	0	0	0	19262	17860	145059	26902	972519	39364	107031	0	0	8196	705536	0	0
2024-05-15 21:17:32			0	34942	0	0	0	19259	17870	145147	27346	972554	39354	107030	0	0	8196	705638	0	0
2024-05-15 21:18:32			0	34932	0	0	0	19254	17880	145115	27334	972544	39365	107028	0	0	8195	706068	0	0
2024-05-15 21:19:32			0	34931	0	0	0	19262	17860	145107	27402	972519	39385	107031	0	0	8195	706192	0	0
2024-05-15 21:20:32			0	34917	0	0	0	19254	17860	145123	26981	972537	39385	107028	0	0	8194	706849	0	0
2024-05-15 21:21:32			0	34938	0	0	0	19259	17860	145187	27008	972598	39375	107030	0	0	8195	705864	0	0
2024-05-15 21:22:32			0	34931	0	0	0	19251	17860	145175	27168	972572	39385	107027	0	0	8195	706192	0	0
2024-05-15 21:23:32			0	34930	0	0	0	19259	17860	145123	27464	972519	39375	107030	0	0	8195	706239	0	0
2024-05-15 21:24:32			0	34926	0	0	0	19259	17850	145159	27256	972555	39363	107030	0	0	8195	706465	0	0
2024-05-15 21:25:32			0	34904	0	0	0	19251	17860	145243	27229	972572	39364	107027	0	0	8193	707459	0	0
2024-05-15 21:26:32			0	34892	0	0	0	19254	17860	145219	27343	972564	39385	107028	0	0	8193	708022	0	0
2024-05-15 21:27:32			0	34892	0	0	0	19254	17860	145291	27419	972484	39374	107028	0	0	8193	708022	0	0
2024-05-15 21:28:32			0	34852	0	0	0	19249	17860	145407	27175	972564	39374	107026	0	0	8191	709902	0	0
2024-05-15 21:29:32			0	34850	0	0	0	19254	17860	145455	27237	972511	39374	107028	0	0	8190	709996	0	0
2024-05-15 21:30:32			0	34825	0	0	0	19259	17870	145523	27313	972501	39375	107030	0	0	8189	711135	0	0
2024-05-15 21:31:32			0	34819	0	0	0	19254	17850	145631	27192	972555	39363	107028	0	0	8189	711495	0	0
2024-05-15 21:32:32			0	34784	0	0	0	19259	17860	145767	27024	972564	39352	107030	0	0	8187	713108	0	0
2024-05-15 21:33:32			0	34759	0	0	0	19249	17850	145831	27261	972581	39385	107026	0	0	8185	714328	0	0
2024-05-15 21:34:32			0	34755	0	0	0	19251	17860	145827	27289	972564	39374	107027	0	0	8185	714478	0	0
2024-05-15 21:35:32			0	34741	0	0	0	19254	17850	145819	27431	972502	39374	107028	0	0	8184	715179	0	0
2024-05-15 21:36:32			0	34732	0	0	0	19246	17850	145803	27455	972555	39374	107025	0	0	8184	715605	0	0
2024-05-15 21:37:32			0	34737	0	0	0	19244	17850	145931	27435	972494	39374	107024	0	0	8184	715368	0	0
2024-05-15 21:38:32			0	34740	0	0	0	19246	17840	145975	27306	972486	39374	107025	0	0	8184	715265	0	0
2024-05-15 21:39:32			0	34743	0	0	0	19254	17850	145963	27369	972467	39374	107028	0	0	8184	715084	0	0
2024-05-15 21:40:32			0	34741	0	0	0	19251	17860	145963	27298	972511	39363	107027	0	0	8184	715140	0	0
2024-05-15 21:41:32			0	34728	0	0	0	19251	17850	145975	27396	972494	39362	107027	0	0	8184	715794	0	0
2024-05-15 21:42:32			0	34760	0	0	0	19241	17850	145911	27339	972529	39363	107023	0	0	8186	714280	0	0
2024-05-15 21:43:32			0	34749	0	0	0	19249	17850	145959	27102	972520	39374	107026	0	0	8185	714800	0	0
2024-05-15 21:44:32			0	34707	0	0	0	19251	17840	146143	27187	972512	39374	107027	0	0	8182	716828	0	0
2024-05-15 21:45:32			0	34717	0	0	0	19241	17850	146127	27277	972529	39374	107023	0	0	8183	716315	0	0
2024-05-15 21:46:32			0	34664	0	0	0	19244	17850	146271	27060	972502	39374	107024	0	0	8180	718830	0	0
2024-05-15 21:47:32			0	34633	0	0	0	19244	17840	146215	27194	972512	39374	107024	0	0	8178	720343	0	0
2024-05-15 21:48:32			0	34605	0	0	0	19251	17860	146387	27426	972511	39374	107027	0	0	8177	721598	0	0
2024-05-15 21:49:32			0	34600	0	0	0	19241	17840	146403	27566	972459	39374	107023	0	0	8177	721914	0	0
2024-05-15 21:50:32			0	34591	0	0	0	19246	17850	146567	27218	972467	39374	107025	0	0	8176	722304	0	0
2024-05-15 21:51:32			0	34579	0	0	0	19241	17840	146547	27547	972433	39374	107023	0	0	8175	722916	0	0
2024-05-15 21:52:32			0	34557	0	0	0	19246	17850	146631	27433	972494	39362	107025	0	0	8174	723927	0	0
2024-05-15 21:53:32			0	34554	0	0	0	19241	17840	146683	27213	972477	39373	107023	0	0	8174	724109	0	0
2024-05-15 21:54:32			0	34538	0	0	0	19233	17850	146691	27203	972494	39374	107020	0	0	8173	724835	0	0
2024-05-15 21:55:32			0	34544	0	0	0	19244	17850	146667	27156	972520	39395	107024	0	0	8173	724548	0	0
2024-05-15 21:56:32			0	34547	0	0	0	19244	17850	146695	27320	972494	39362	107024	0	0	8174	724404	0	0
2024-05-15 21:57:32			0	34550	0	0	0	19241	17840	146699	27272	972433	39374	107023	0	0	8174	724300	0	0
2024-05-15 21:58:32			0	34538	0	0	0	19246	17850	146783	27183	972494	39384	107025	0	0	8173	724835	0	0
2024-05-15 21:59:32			0	34549	0	0	0	19246	17850	146795	27398	972467	39384	107025	0	0	8174	724309	0	0
2024-05-15 22:00:32			0	34551	0	0	0	19249	17850	146723	27119	972467	39374	107026	0	0	8174	724213	0	0
2024-05-15 22:01:32			0	34579	0	0	0	19238	17840	146703	27135	972433	39362	107022	0	0	8175	722916	0	0
2024-05-15 22:02:32			0	34569	0	0	0	19236	17850	146723	27569	972441	39384	107021	0	0	8175	723354	0	0
2024-05-15 22:03:32			0	34573	0	0	0	19251	17840	146591	27170	972486	39362	107027	0	0	8175	723202	0	0
2024-05-15 22:04:32			0	34552	0	0	0	19233	17850	146683	27312	972467	39374	107020	0	0	8174	724166	0	0
2024-05-15 22:05:32			0	34561	0	0	0	19244	17850	146663	27053	972494	39362	107024	0	0	8174	723736	0	0
2024-05-15 22:06:32			0	34567	0	0	0	19241	17850	146587	27362	972467	39374	107023	0	0	8175	723449	0	0
2024-05-15 22:07:32			0	34556	0	0	0	19241	17850	146851	27502	972529	39363	107023	0	0	8174	723974	0	0
2024-05-15 22:08:32			0	34531	0	0	0	19231	17840	146767	26882	972486	39374	107019	0	0	8173	725209	0	0
2024-05-15 22:09:32			0	34532	0	0	0	19241	17840	146831	27300	972486	39384	107023	0	0	8173	725161	0	0
2024-05-15 22:10:32			0	34498	0	0	0	19238	17850	146927	27391	972441	39374	107022	0	0	8171	726749	0	0
2024-05-15 22:11:32			0	34516	0	0	0	19238	17840	146959	27466	972451	39361	107022	0	0	8172	725927	0	0
2024-05-15 22:12:32			0	34494	0	0	0	19236	17850	146955	27175	972502	39374	107021	0	0	8171	726941	0	0
2024-05-15 22:13:32			0	34487	0	0	0	19241	17850	147035	27244	972520	39362	107023	0	0	8170	727276	0	0
2024-05-15 22:14:32			0	34496	0	0	0	19241	17850	147047	27253	972494	39362	107023	0	0	8171	726845	0	0
2024-05-15 22:15:32			0	34487	0	0	0	19238	17840	147075	27109	972477	39361	107022	0	0	8170	727316	0	0
2024-05-15 22:16:32			0	34489	0	0	0	19233	17860	147039	27286	972458	39385	107020	0	0	8170	727141	0	0
2024-05-15 22:17:32			0	34481	0	0	0	19238	17840	147027	27528	972433	39374	107022	0	0	8170	727603	0	0
2024-05-15 22:18:32			0	34498	0	0	0	19241	17840	146967	27433	972504	39361	107023	0	0	8171	726788	0	0
2024-05-15 22:19:32			0	34490	0	0	0	19238	17840	147135	27306	972424	39383	107022	0	0	8170	727172	0	0
2024-05-15 22:20:32			0	34501	0	0	0	19236	17850	146967	27381	972441	39362	107021	0	0	8171	726605	0	0
2024-05-15 22:21:32			0	34513	0	0	0	19228	17840	146903	27583	972477	39373	107018	0	0	8172	726070	0	0
2024-05-15 22:22:32			0	34509	0	0	0	19225	17840	146951	27549	972451	39373	107017	0	0	8172	726262	0	0
2024-05-15 22:23:32			0	34530	0	0	0	19236	17840	146887	27492	972451	39383	107021	0	0	8173	725257	0	0
2024-05-15 22:24:32			0	34503	0	0	0	19233	17840	146995	27734	972451	39373	107020	0	0	8171	726549	0	0
2024-05-15 22:25:32			0	34531	0	0	0	19225	17830	146895	27329	972495	39361	107017	0	0	8173	725248	0	0
2024-05-15 22:26:32			0	34525	0	0	0	19233	17830	146895	27313	972469	39373	107020	0	0	8172	725535	0	0
2024-05-15 22:27:32			0	34530	0	0	0	19238	17840	146783	27495	972459	39384	107022	0	0	8173	725257	0	0
2024-05-15 22:28:32			0	34540	0	0	0	19236	17830	146831	27658	972495	39350	107021	0	0	8173	724818	0	0
2024-05-15 22:29:32			0	34540	0	0	0	19236	17830	146743	27383	972434	39361	107021	0	0	8173	724818	0	0
2024-05-15 22:30:32			0	34550	0	0	0	19228	17840	146735	27637	972424	39361	107018	0	0	8174	724300	0	0
2024-05-15 22:31:32			0	34557	0	0	0	19238	17830	146711	27345	972416	39373	107022	0	0	8174	724006	0	0
2024-05-15 22:32:32			0	34567	0	0	0	19223	17840	146731	27395	972424	39350	107016	0	0	8175	723488	0	0
2024-05-15 22:33:32			0	34574	0	0	0	19223	17840	146651	27557	972459	39362	107016	0	0	8175	723154	0	0
2024-05-15 22:34:32			0	34605	0	0	0	19231	17830	146571	27320	972434	39382	107019	0	0	8177	721715	0	0
2024-05-15 22:35:32			0	34588	0	0	0	19236	17840	146675	27500	972451	39373	107021	0	0	8176	722486	0	0
2024-05-15 22:36:32			0	34571	0	0	0	19225	17840	146679	27511	972451	39373	107017	0	0	8175	723298	0	0
2024-05-15 22:37:32			0	34583	0	0	0	19236	17840	146651	27507	972398	39373	107021	0	0	8176	722725	0	0
2024-05-15 22:38:32			0	34563	0	0	0	19228	17830	146663	27687	972461	39372	107018	0	0	8175	723719	0	0
2024-05-15 22:39:32			0	34562	0	0	0	19228	17830	146707	27592	972443	39373	107018	0	0	8175	723767	0	0
2024-05-15 22:40:32			0	34565	0	0	0	19225	17840	146767	27576	972424	39373	107017	0	0	8175	723584	0	0
2024-05-15 22:41:32			0	34545	0	0	0	19236	17830	146847	27679	972443	39373	107021	0	0	8173	724579	0	0
2024-05-15 22:42:32			0	34548	0	0	0	19231	17830	146747	27322	972443	39373	107019	0	0	8174	724436	0	0
2024-05-15 22:43:32			0	34533	0	0	0	19236	17830	146719	27298	972416	39350	107021	0	0	8173	725153	0	0
2024-05-15 22:44:32			0	34542	0	0	0	19236	17830	146899	27357	972522	39373	107021	0	0	8173	724722	0	0
2024-05-15 22:45:32			0	34534	0	0	0	19225	17830	146811	27374	972416	39373	107017	0	0	8173	725105	0	0
2024-05-15 22:46:32			0	34543	0	0	0	19225	17830	146879	27301	972461	39372	107017	0	0	8174	724675	0	0
2024-05-15 22:47:32			0	34546	0	0	0	19233	17830	146811	27599	972443	39383	107020	0	0	8174	724531	0	0
2024-05-15 22:48:32			0	34541	0	0	0	19236	17830	146867	27083	972416	39373	107021	0	0	8173	724770	0	0
2024-05-15 22:49:32			0	34525	0	0	0	19231	17830	146843	27538	972390	39383	107019	0	0	8172	725535	0	0
2024-05-15 22:50:32			0	34524	0	0	0	19223	17830	146839	27448	972443	39383	107016	0	0	8172	725583	0	0
2024-05-15 22:51:32			0	34534	0	0	0	19231	17830	146875	27041	972390	39373	107019	0	0	8173	725105	0	0
2024-05-15 22:52:32			0	34525	0	0	0	19236	17840	146855	27696	972451	39361	107021	0	0	8172	725496	0	0
2024-05-15 22:53:32			0	34519	0	0	0	19225	17840	146875	27571	972398	39373	107017	0	0	8172	725783	0	0
2024-05-15 22:54:32			0	34544	0	0	0	19236	17830	146819	27421	972416	39383	107021	0	0	8173	724627	0	0
2024-05-15 22:55:32			0	34530	0	0	0	19225	17830	146899	27438	972443	39373	107017	0	0	8173	725296	0	0
2024-05-15 22:56:32			0	34532	0	0	0	19228	17840	146839	27376	972477	39361	107018	0	0	8173	725161	0	0
2024-05-15 22:57:32			0	34527	0	0	0	19228	17830	146851	27402	972487	39382	107018	0	0	8173	725440	0	0
2024-05-15 22:58:32			0	34533	0	0	0	19236	17830	146763	27352	972416	39383	107021	0	0	8173	725153	0	0
2024-05-15 22:59:32			0	34533	0	0	0	19225	17830	146955	27440	972416	39361	107017	0	0	8173	725153	0	0
2024-05-15 23:00:32			0	34514	0	0	0	19238	17830	147047	27305	972495	39361	107022	0	0	8172	726062	0	0
2024-05-15 23:01:32			0	34501	0	0	0	19225	17840	146967	27573	972504	39383	107017	0	0	8171	726645	0	0
2024-05-15 23:02:32			0	34486	0	0	0	19220	17840	147123	27431	972398	39373	107015	0	0	8170	727364	0	0
2024-05-15 23:03:32			0	34474	0	0	0	19238	17830	147071	27450	972408	39361	107022	0	0	8169	727979	0	0
2024-05-15 23:04:32			0	34470	0	0	0	19228	17830	147175	27403	972469	39361	107018	0	0	8169	728171	0	0
2024-05-15 23:05:32			0	34459	0	0	0	19231	17830	147251	27635	972434	39361	107019	0	0	8169	728699	0	0
2024-05-15 23:06:32			0	34452	0	0	0	19236	17830	147255	27580	972416	39373	107021	0	0	8168	729035	0	0
2024-05-15 23:07:32			0	34428	0	0	0	19236	17830	147235	27258	972443	39373	107021	0	0	8167	730188	0	0
2024-05-15 23:08:32			0	34427	0	0	0	19228	17840	147255	27332	972477	39373	107018	0	0	8167	730196	0	0
2024-05-15 23:09:32			0	34439	0	0	0	19231	17830	147243	27685	972416	39373	107019	0	0	8168	729659	0	0
2024-05-15 23:10:32			0	34446	0	0	0	19233	17830	147187	27609	972390	39373	107020	0	0	8168	729323	0	0
2024-05-15 23:11:32			0	34451	0	0	0	19225	17820	147231	27540	972479	39361	107017	0	0	8168	729122	0	0
2024-05-15 23:12:32			0	34463	0	0	0	19233	17820	147135	27358	972400	39372	107020	0	0	8169	728546	0	0
2024-05-15 23:13:32			0	34486	0	0	0	19220	17830	147083	27635	972461	39382	107015	0	0	8170	727403	0	0
2024-05-15 23:14:32			0	34481	0	0	0	19228	17840	147071	27505	972451	39373	107018	0	0	8170	727603	0	0
2024-05-15 23:15:32			0	34468	0	0	0	19225	17830	147059	27479	972434	39361	107017	0	0	8169	728267	0	0
2024-05-15 23:16:32			0	34485	0	0	0	19231	17820	146999	27537	972373	39361	107019	0	0	8170	727491	0	0
2024-05-15 23:17:32			0	34480	0	0	0	19220	17830	146963	27748	972443	39361	107015	0	0	8170	727691	0	0
2024-05-15 23:18:32			0	34489	0	0	0	19228	17830	146963	27594	972355	39372	107018	0	0	8170	727259	0	0
2024-05-15 23:19:32			0	34485	0	0	0	19223	17830	146951	27450	972381	39372	107016	0	0	8170	727451	0	0
2024-05-15 23:20:32			0	34502	0	0	0	19231	17830	146967	27637	972434	39361	107019	0	0	8171	726637	0	0
2024-05-15 23:21:32			0	34505	0	0	0	19231	17840	146923	27573	972504	39373	107019	0	0	8171	726453	0	0
2024-05-15 23:22:32			0	34516	0	0	0	19231	17830	146875	27448	972487	39361	107019	0	0	8172	725966	0	0
2024-05-15 23:23:32			0	34524	0	0	0	19223	17830	146919	27407	972461	39361	107016	0	0	8172	725583	0	0
2024-05-15 23:24:32			0	34537	0	0	0	19225	17830	146839	27500	972408	39372	107017	0	0	8173	724961	0	0
2024-05-15 23:25:32			0	34545	0	0	0	19225	17830	146831	27317	972408	39382	107017	0	0	8174	724579	0	0
2024-05-15 23:26:32			0	34551	0	0	0	19225	17830	146815	27592	972408	39372	107017	0	0	8174	724292	0	0
2024-05-15 23:27:32			0	34543	0	0	0	19215	17820	146847	27611	972418	39360	107013	0	0	8174	724714	0	0
2024-05-15 23:28:32			0	34528	0	0	0	19228	17830	146827	27537	972443	39373	107018	0	0	8173	725392	0	0
2024-05-15 23:29:32			0	34527	0	0	0	19218	17830	146999	27627	972434	39372	107014	0	0	8173	725440	0	0
2024-05-15 23:30:32			0	34489	0	0	0	19225	17830	147035	27416	972461	39382	107017	0	0	8170	727259	0	0
2024-05-15 23:31:32			0	34480	0	0	0	19223	17830	147071	27391	972461	39372	107016	0	0	8170	727691	0	0
2024-05-15 23:32:32			0	34453	0	0	0	19223	17820	147115	27467	972426	39372	107016	0	0	8168	729026	0	0
2024-05-15 23:33:32			0	34429	0	0	0	19220	17830	147287	27457	972434	39382	107015	0	0	8167	730140	0	0
2024-05-15 23:34:32			0	34405	0	0	0	19223	17820	147311	27573	972426	39361	107016	0	0	8166	731334	0	0
2024-05-15 23:35:32			0	34413	0	0	0	19220	17840	147483	27326	972424	39373	107015	0	0	8166	730870	0	0
2024-05-15 23:36:32			0	34409	0	0	0	19220	17830	147403	27371	972461	39361	107015	0	0	8166	731102	0	0
2024-05-15 23:37:32			0	34363	0	0	0	19220	17820	147527	27334	972453	39361	107015	0	0	8163	733358	0	0
2024-05-15 23:38:32			0	34361	0	0	0	19225	17820	147503	27535	972444	39371	107017	0	0	8163	733455	0	0
2024-05-15 23:39:32			0	34360	0	0	0	19218	17830	147551	27388	972381	39349	107014	0	0	8163	733463	0	0
2024-05-15 23:40:32			0	34371	0	0	0	19223	17820	147467	27358	972426	39349	107016	0	0	8164	732973	0	0
2024-05-15 23:41:32			0	34363	0	0	0	19220	17830	147459	27324	972408	39361	107015	0	0	8163	733318	0	0
2024-05-15 23:42:32			0	34385	0	0	0	19218	17820	147455	27414	972524	39360	107014	0	0	8165	732298	0	0
2024-05-15 23:43:32			0	34380	0	0	0	19218	17830	147483	27602	972408	39361	107014	0	0	8164	732499	0	0
2024-05-15 23:44:32			0	34367	0	0	0	19218	17830	147443	27396	972381	39382	107014	0	0	8164	733125	0	0
2024-05-15 23:45:32			0	34375	0	0	0	19218	17830	147439	27498	972461	39372	107014	0	0	8164	732740	0	0
2024-05-15 23:46:32			0	34377	0	0	0	19220	17820	147439	27419	972400	39372	107015	0	0	8164	732683	0	0
2024-05-15 23:47:32			0	34360	0	0	0	19218	17830	147483	27476	972408	39361	107014	0	0	8163	733463	0	0
2024-05-15 23:48:32			0	34360	0	0	0	19215	17820	147523	27573	972444	39360	107013	0	0	8163	733503	0	0
2024-05-15 23:49:32			0	34345	0	0	0	19218	17820	147646	27575	972426	39382	107014	0	0	8162	734227	0	0
2024-05-15 23:50:32			0	34346	0	0	0	19215	17820	147614	27253	972400	39372	107013	0	0	8162	734179	0	0
2024-05-15 23:51:32			0	34326	0	0	0	19215	17820	147590	27272	972400	39361	107013	0	0	8161	735145	0	0
2024-05-15 23:52:32			0	34317	0	0	0	19223	17820	147670	27322	972391	39371	107016	0	0	8161	735580	0	0
2024-05-15 23:53:32			0	34332	0	0	0	19218	17820	147762	27171	972391	39371	107014	0	0	8162	734855	0	0
2024-05-15 23:54:32			0	34317	0	0	0	19215	17830	147822	27377	972434	39361	107013	0	0	8161	735540	0	0
2024-05-15 23:55:32			0	34322	0	0	0	19225	17830	147790	27341	972390	39373	107017	0	0	8161	735298	0	0
2024-05-15 23:56:32			0	34299	0	0	0	19220	17830	147694	27384	972434	39372	107015	0	0	8160	736411	0	0
2024-05-15 23:57:32			0	34309	0	0	0	19218	17820	147758	27341	972426	39393	107014	0	0	8160	735967	0	0
2024-05-15 23:58:32			0	34311	0	0	0	19225	17820	147698	27232	972426	39372	107017	0	0	8160	735870	0	0
2024-05-15 23:59:32			0	34298	0	0	0	19212	17820	147794	27443	972426	39372	107012	0	0	8160	736499	0	0
2024-05-16 00:00:32			0	34303	0	0	0	19220	17820	147826	27467	972400	39382	107015	0	0	8160	736257	0	0
2024-05-16 00:01:32			0	34289	0	0	0	19223	17810	147858	27157	972410	39359	107016	0	0	8159	736975	0	0
2024-05-16 00:02:32			0	34285	0	0	0	19220	17820	147758	27223	972444	39360	107015	0	0	8159	737129	0	0
2024-05-16 00:03:32			0	34294	0	0	0	19220	17830	147850	27374	972461	39372	107015	0	0	8159	736653	0	0
2024-05-16 00:04:32			0	34288	0	0	0	19220	17820	147918	27365	972444	39381	107015	0	0	8159	736984	0	0
2024-05-16 00:05:32			0	34282	0	0	0	19212	17820	147858	26991	972391	39371	107012	0	0	8159	737274	0	0
2024-05-16 00:06:32			0	34270	0	0	0	19223	17820	147854	27140	972479	39382	107016	0	0	8158	737856	0	0
2024-05-16 00:07:32			0	34280	0	0	0	19225	17830	147866	27265	972355	39382	107017	0	0	8159	737331	0	0
2024-05-16 00:08:32			0	34253	0	0	0	19223	17830	148058	27422	972469	39373	107016	0	0	8157	738640	0	0
2024-05-16 00:09:32			0	34257	0	0	0	19212	17810	147994	27486	972410	39370	107012	0	0	8157	738526	0	0
2024-05-16 00:10:32			0	34250	0	0	0	19218	17820	148046	27395	972400	39361	107014	0	0	8157	738826	0	0
2024-05-16 00:11:32			0	34254	0	0	0	19212	17820	148126	27483	972400	39372	107012	0	0	8157	738632	0	0
2024-05-16 00:12:32			0	34258	0	0	0	19210	17820	148066	27036	972391	39371	107011	0	0	8158	738438	0	0
2024-05-16 00:13:32			0	34248	0	0	0	19220	17820	148050	27466	972426	39361	107015	0	0	8157	738923	0	0
2024-05-16 00:14:32			0	34234	0	0	0	19207	17820	148150	27239	972347	39382	107010	0	0	8156	739603	0	0
2024-05-16 00:15:32			0	34219	0	0	0	19215	17820	148102	27564	972453	39372	107013	0	0	8155	740331	0	0
2024-05-16 00:16:32			0	34237	0	0	0	19207	17810	148150	27448	972462	39370	107010	0	0	8156	739497	0	0
2024-05-16 00:17:32			0	34220	0	0	0	19210	17810	148130	27336	972348	39380	107011	0	0	8155	740323	0	0
2024-05-16 00:18:32			0	34210	0	0	0	19205	17820	148186	27606	972339	39371	107009	0	0	8155	740769	0	0
2024-05-16 00:19:32			0	34185	0	0	0	19205	17810	148214	27225	972357	39380	107009	0	0	8153	742025	0	0
2024-05-16 00:20:32			0	34212	0	0	0	19207	17820	148202	27291	972444	39371	107010	0	0	8155	740671	0	0
2024-05-16 00:21:32			0	34192	0	0	0	19202	17810	148246	27384	972383	39370	107008	0	0	8154	741685	0	0
2024-05-16 00:22:32			0	34207	0	0	0	19212	17820	148234	27320	972418	39371	107012	0	0	8155	740915	0	0
2024-05-16 00:23:32			0	34192	0	0	0	19207	17810	148270	27275	972401	39370	107010	0	0	8154	741685	0	0
2024-05-16 00:24:32			0	34207	0	0	0	19210	17810	148214	27308	972357	39370	107011	0	0	8155	740955	0	0
2024-05-16 00:25:32			0	34200	0	0	0	19215	17820	148106	27098	972365	39371	107013	0	0	8154	741255	0	0
2024-05-16 00:26:32			0	34217	0	0	0	19207	17800	148214	27199	972314	39358	107010	0	0	8155	740509	0	0
2024-05-16 00:27:32			0	34223	0	0	0	19212	17820	148210	27412	972391	39381	107012	0	0	8156	740137	0	0
2024-05-16 00:28:32			0	34207	0	0	0	19202	17810	148110	27538	972322	39359	107008	0	0	8155	740955	0	0
2024-05-16 00:29:32			0	34214	0	0	0	19207	17810	148174	27180	972375	39370	107010	0	0	8155	740615	0	0
2024-05-16 00:30:32			0	34202	0	0	0	19202	17810	148162	27365	972357	39370	107008	0	0	8154	741198	0	0
2024-05-16 00:31:32			0	34199	0	0	0	19218	17810	148242	27261	972357	39370	107014	0	0	8154	741344	0	0
2024-05-16 00:32:32			0	34183	0	0	0	19205	17820	148294	27478	972391	39371	107009	0	0	8153	742083	0	0
2024-05-16 00:33:32			0	34179	0	0	0	19212	17820	148358	27549	972391	39371	107012	0	0	8153	742277	0	0
2024-05-16 00:34:32			0	34167	0	0	0	19210	17830	148306	27319	972434	39361	107011	0	0	8152	742821	0	0
2024-05-16 00:35:32			0	34168	0	0	0	19210	17820	148342	27450	972365	39381	107011	0	0	8152	742813	0	0
2024-05-16 00:36:32			0	34176	0	0	0	19207	17810	148422	27505	972375	39359	107010	0	0	8153	742464	0	0
2024-05-16 00:37:32			0	34158	0	0	0	19210	17810	148446	27594	972330	39380	107011	0	0	8152	743341	0	0
2024-05-16 00:38:32			0	34157	0	0	0	19210	17800	148482	27260	972393	39369	107011	0	0	8152	743430	0	0
2024-05-16 00:39:32			0	34150	0	0	0	19210	17810	148430	27315	972410	39370	107011	0	0	8151	743731	0	0
2024-05-16 00:40:32			0	34163	0	0	0	19210	17810	148390	27235	972383	39370	107011	0	0	8152	743097	0	0
2024-05-16 00:41:32			0	34155	0	0	0	19207	17820	148498	27791	972391	39381	107010	0	0	8152	743447	0	0
2024-05-16 00:42:32			0	34136	0	0	0	19202	17820	148474	27100	972365	39371	107008	0	0	8151	744374	0	0
2024-05-16 00:43:32			0	34154	0	0	0	19202	17810	148398	27471	972357	39380	107008	0	0	8152	743536	0	0
2024-05-16 00:44:32			0	34134	0	0	0	19207	17820	148486	27254	972391	39371	107010	0	0	8151	744472	0	0
2024-05-16 00:45:32			0	34121	0	0	0	19207	17820	148498	27762	972365	39371	107010	0	0	8150	745106	0	0
2024-05-16 00:46:32			0	34134	0	0	0	19199	17810	148510	27307	972348	39370	107007	0	0	8151	744512	0	0
2024-05-16 00:47:32			0	34126	0	0	0	19199	17810	148494	27497	972383	39359	107007	0	0	8150	744903	0	0
2024-05-16 00:48:32			0	34140	0	0	0	19199	17810	148550	27443	972357	39370	107007	0	0	8151	744219	0	0
2024-05-16 00:49:32			0	34151	0	0	0	19197	17810	148502	27531	972375	39380	107006	0	0	8152	743682	0	0
2024-05-16 00:50:32			0	34142	0	0	0	19205	17810	148522	27661	972375	39370	107009	0	0	8151	744122	0	0
2024-05-16 00:51:32			0	34171	0	0	0	19199	17810	148398	27260	972383	39370	107007	0	0	8153	742707	0	0
2024-05-16 00:52:32			0	34167	0	0	0	19205	17810	148418	27471	972375	39370	107009	0	0	8152	742902	0	0
2024-05-16 00:53:32			0	34168	0	0	0	19202	17810	148214	27431	972357	39359	107008	0	0	8153	742854	0	0
2024-05-16 00:54:32			0	34178	0	0	0	19205	17810	148422	27220	972322	39359	107009	0	0	8153	742366	0	0
2024-05-16 00:55:32			0	34173	0	0	0	19210	17810	148490	27235	972375	39359	107011	0	0	8153	742610	0	0
2024-05-16 00:56:32			0	34163	0	0	0	19205	17810	148358	27213	972401	39380	107009	0	0	8152	743097	0	0
2024-05-16 00:57:32			0	34164	0	0	0	19210	17800	148410	27400	972340	39358	107011	0	0	8152	743089	0	0
2024-05-16 00:58:32			0	34134	0	0	0	19205	17810	148350	27364	972375	39370	107009	0	0	8151	744512	0	0
2024-05-16 00:59:32			0	34136	0	0	0	19210	17800	148414	27307	972367	39379	107011	0	0	8150	744455	0	0
2024-05-16 01:00:32			0	34143	0	0	0	19202	17800	148426	27312	972358	39379	107008	0	0	8151	744113	0	0
2024-05-16 01:01:32			0	34160	0	0	0	19199	17800	148438	27371	972305	39347	107007	0	0	8152	743284	0	0
2024-05-16 01:02:32			0	34162	0	0	0	19199	17800	148430	27802	972367	39379	107007	0	0	8152	743187	0	0
2024-05-16 01:03:32			0	34166	0	0	0	19199	17800	148534	27545	972332	39369	107007	0	0	8152	742992	0	0
2024-05-16 01:04:32			0	34143	0	0	0	19210	17810	148430	27261	972322	39370	107011	0	0	8151	744073	0	0
2024-05-16 01:05:32			0	34128	0	0	0	19205	17810	148462	27137	972383	39370	107009	0	0	8150	744805	0	0
2024-05-16 01:06:32			0	34135	0	0	0	19205	17800	148570	27604	972393	39369	107009	0	0	8151	744504	0	0
2024-05-16 01:07:32			0	34123	0	0	0	19202	17820	148554	27616	972391	39371	107008	0	0	8150	745009	0	0
2024-05-16 01:08:32			0	34102	0	0	0	19210	17800	148570	27504	972340	39379	107011	0	0	8149	746116	0	0
2024-05-16 01:09:32			0	34109	0	0	0	19207	17800	148654	27410	972393	39358	107010	0	0	8149	745774	0	0
2024-05-16 01:10:32			0	34097	0	0	0	19212	17800	148646	27443	972393	39379	107012	0	0	8148	746361	0	0
2024-05-16 01:11:32			0	34089	0	0	0	19205	17810	148770	27547	972383	39370	107009	0	0	8148	746711	0	0
2024-05-16 01:12:32			0	34073	0	0	0	19205	17800	148742	27310	972419	39379	107009	0	0	8147	747535	0	0
2024-05-16 01:13:32			0	34089	0	0	0	19207	17800	148742	27473	972367	39369	107010	0	0	8148	746752	0	0
2024-05-16 01:14:32			0	34073	0	0	0	19202	17810	148774	27464	972357	39380	107008	0	0	8147	747494	0	0
2024-05-16 01:15:32			0	34068	0	0	0	19210	17810	148794	27277	972401	39359	107011	0	0	8147	747739	0	0
2024-05-16 01:16:32			0	34057	0	0	0	19207	17820	148750	27348	972365	39360	107010	0	0	8146	748238	0	0
2024-05-16 01:17:32			0	34073	0	0	0	19223	17800	148814	27447	972367	39379	107016	0	0	8147	747535	0	0
2024-05-16 01:18:32			0	34069	0	0	0	19223	17810	148770	27453	972428	39370	107016	0	0	8146	747690	0	0
2024-05-16 01:19:32			0	34059	0	0	0	19225	17810	148878	27435	972454	39380	107017	0	0	8146	748180	0	0
2024-05-16 01:20:32			0	34044	0	0	0	19225	17810	148950	27479	972383	39359	107017	0	0	8145	748916	0	0
2024-05-16 01:21:32			0	34031	0	0	0	19218	17810	148938	27485	972410	39380	107014	0	0	8144	749554	0	0
2024-05-16 01:22:32			0	34021	0	0	0	19225	17810	148994	27071	972410	39391	107017	0	0	8144	750044	0	0
2024-05-16 01:23:32			0	33994	0	0	0	19231	17820	149054	27453	972453	39372	107019	0	0	8142	751330	0	0
2024-05-16 01:24:32			0	33986	0	0	0	19225	17820	149274	27396	972391	39360	107017	0	0	8142	751724	0	0
2024-05-16 01:25:32			0	33966	0	0	0	19225	17810	149314	27547	972462	39380	107017	0	0	8141	752749	0	0
2024-05-16 01:26:32			0	33936	0	0	0	19233	17830	149450	27369	972408	39372	107020	0	0	8139	754145	0	0
2024-05-16 01:27:32			0	33913	0	0	0	19231	17830	149526	27550	972434	39361	107019	0	0	8137	755280	0	0
2024-05-16 01:28:32			0	33887	0	0	0	19236	17820	149586	27424	972453	39372	107021	0	0	8136	756606	0	0
2024-05-16 01:29:32			0	33883	0	0	0	19231	17830	149718	27265	972434	39382	107019	0	0	8136	756762	0	0
2024-05-16 01:30:32			0	33883	0	0	0	19231	17820	149750	27405	972453	39382	107019	0	0	8136	756804	0	0
2024-05-16 01:31:32			0	33843	0	0	0	19231	17820	149698	27628	972453	39372	107019	0	0	8133	758784	0	0
2024-05-16 01:32:32			0	33840	0	0	0	19231	17830	149922	27305	972461	39372	107019	0	0	8133	758891	0	0
2024-05-16 01:33:32			0	33825	0	0	0	19238	17830	149898	27618	972461	39382	107022	0	0	8132	759635	0	0
2024-05-16 01:34:32			0	33822	0	0	0	19238	17820	149982	27521	972453	39382	107022	0	0	8132	759825	0	0
2024-05-16 01:35:32			0	33828	0	0	0	19233	17830	149870	27270	972514	39361	107020	0	0	8132	759486	0	0
2024-05-16 01:36:32			0	33839	0	0	0	19233	17840	149882	27388	972512	39384	107020	0	0	8133	758899	0	0
2024-05-16 01:37:32			0	33851	0	0	0	19233	17830	149810	27737	972495	39383	107020	0	0	8134	758346	0	0
2024-05-16 01:38:32			0	33851	0	0	0	19238	17820	149754	27251	972497	39371	107022	0	0	8134	758387	0	0
2024-05-16 01:39:32			0	33860	0	0	0	19233	17830	149762	27312	972540	39361	107020	0	0	8134	757901	0	0
2024-05-16 01:40:32			0	33879	0	0	0	19244	17840	149646	27466	972530	39373	107024	0	0	8135	756919	0	0
2024-05-16 01:41:32			0	33871	0	0	0	19233	17840	149706	27287	972538	39384	107020	0	0	8135	757315	0	0
2024-05-16 01:42:32			0	33896	0	0	0	19241	17830	149678	27438	972522	39373	107023	0	0	8136	756120	0	0
2024-05-16 01:43:32			0	33905	0	0	0	19244	17840	149526	27196	972530	39361	107024	0	0	8137	755634	0	0
2024-05-16 01:44:32			0	33915	0	0	0	19244	17840	149438	27722	972530	39394	107024	0	0	8137	755140	0	0
2024-05-16 01:45:32			0	33931	0	0	0	19233	17840	149382	27261	972538	39374	107020	0	0	8138	754351	0	0
2024-05-16 01:46:32			0	33941	0	0	0	19236	17840	149282	27306	972504	39383	107021	0	0	8139	753857	0	0
2024-05-16 01:47:32			0	33977	0	0	0	19244	17830	149422	27616	972469	39373	107024	0	0	8141	752125	0	0
2024-05-16 01:48:32			0	33985	0	0	0	19238	17830	149286	27026	972487	39382	107022	0	0	8141	751732	0	0
2024-05-16 01:49:32			0	33984	0	0	0	19246	17840	149154	27575	972530	39394	107025	0	0	8141	751740	0	0
2024-05-16 01:50:32			0	33995	0	0	0	19241	17830	149138	27595	972522	39373	107023	0	0	8142	751240	0	0
2024-05-16 01:51:32			0	34026	0	0	0	19241	17840	148998	27462	972504	39383	107023	0	0	8144	749676	0	0
2024-05-16 01:52:32			0	34040	0	0	0	19238	17840	148954	27305	972583	39383	107022	0	0	8145	748989	0	0
2024-05-16 01:53:32			0	34051	0	0	0	19244	17840	148746	27543	972530	39373	107024	0	0	8145	748450	0	0
2024-05-16 01:54:32			0	34072	0	0	0	19246	17850	148822	27616	972494	39374	107025	0	0	8146	747381	0	0
2024-05-16 01:55:32			0	34077	0	0	0	19254	17840	148722	27294	972504	39373	107028	0	0	8147	747177	0	0
2024-05-16 01:56:32			0	34103	0	0	0	19259	17850	148646	27677	972547	39384	107030	0	0	8148	745864	0	0
2024-05-16 01:57:32			0	34121	0	0	0	19254	17850	148574	27460	972573	39374	107028	0	0	8149	744985	0	0
2024-05-16 01:58:32			0	34125	0	0	0	19244	17850	148650	27331	972600	39374	107024	0	0	8150	744789	0	0
2024-05-16 01:59:32			0	34136	0	0	0	19244	17840	148570	27597	972591	39374	107024	0	0	8150	744293	0	0
2024-05-16 02:00:32			0	34125	0	0	0	19246	17850	148526	27388	972547	39374	107025	0	0	8149	744789	0	0
2024-05-16 02:01:32			0	34136	0	0	0	19238	17850	148498	27460	972547	39374	107022	0	0	8150	744252	0	0
2024-05-16 02:02:32			0	34156	0	0	0	19244	17850	148446	27381	972581	39363	107024	0	0	8151	743277	0	0
2024-05-16 02:03:32			0	34111	0	0	0	19246	17840	148510	27500	972512	39384	107025	0	0	8149	745514	0	0
2024-05-16 02:04:32			0	34140	0	0	0	19241	17850	148522	27633	972573	39384	107023	0	0	8150	744057	0	0
2024-05-16 02:05:32			0	34126	0	0	0	19244	17850	148566	27248	972547	39374	107024	0	0	8150	744740	0	0
2024-05-16 02:06:32			0	34110	0	0	0	19244	17840	148558	27220	972538	39384	107024	0	0	8149	745562	0	0
2024-05-16 02:07:32			0	34089	0	0	0	19249	17840	148606	27545	972504	39383	107026	0	0	8147	746589	0	0
2024-05-16 02:08:32			0	34101	0	0	0	19244	17850	148518	27646	972600	39384	107024	0	0	8148	745962	0	0
2024-05-16 02:09:32			0	34099	0	0	0	19241	17850	148626	27543	972547	39384	107023	0	0	8148	746060	0	0
2024-05-16 02:10:32			0	34074	0	0	0	19254	17850	148678	27663	972608	39385	107028	0	0	8146	747283	0	0
2024-05-16 02:11:32			0	34109	0	0	0	19251	17850	148654	27575	972547	39384	107027	0	0	8148	745571	0	0
2024-05-16 02:12:32			0	34107	0	0	0	19241	17850	148606	27308	972581	39385	107023	0	0	8149	745669	0	0
2024-05-16 02:13:32			0	34111	0	0	0	19246	17850	148538	27542	972529	39396	107025	0	0	8149	745473	0	0
2024-05-16 02:14:32			0	34127	0	0	0	19259	17850	148618	27694	972608	39396	107030	0	0	8149	744691	0	0
2024-05-16 02:15:32			0	34132	0	0	0	19257	17850	148550	27469	972555	39385	107029	0	0	8150	744447	0	0
2024-05-16 02:16:32			0	34137	0	0	0	19251	17850	148546	27682	972573	39374	107027	0	0	8150	744203	0	0
2024-05-16 02:17:32			0	34131	0	0	0	19254	17850	148510	27518	972573	39384	107028	0	0	8150	744496	0	0
2024-05-16 02:18:32			0	34125	0	0	0	19254	17850	148502	27583	972555	39385	107028	0	0	8149	744789	0	0
2024-05-16 02:19:32			0	34128	0	0	0	19262	17850	148474	27440	972494	39362	107031	0	0	8149	744643	0	0
2024-05-16 02:20:32			0	34108	0	0	0	19264	17850	148458	27168	972581	39385	107032	0	0	8148	745620	0	0
2024-05-16 02:21:32			0	34111	0	0	0	19262	17850	148630	27341	972652	39384	107031	0	0	8148	745473	0	0
2024-05-16 02:22:32			0	34096	0	0	0	19259	17850	148566	27450	972547	39395	107030	0	0	8148	746206	0	0
2024-05-16 02:23:32			0	34093	0	0	0	19259	17860	148722	27336	972537	39374	107030	0	0	8147	746312	0	0
2024-05-16 02:24:32			0	34089	0	0	0	19267	17850	148798	27521	972581	39385	107033	0	0	8147	746549	0	0
2024-05-16 02:25:32			0	34065	0	0	0	19267	17850	148806	27493	972573	39395	107033	0	0	8146	747724	0	0
2024-05-16 02:26:32			0	34055	0	0	0	19251	17860	148854	27400	972572	39385	107027	0	0	8145	748173	0	0
2024-05-16 02:27:32			0	34031	0	0	0	19254	17860	148902	27694	972678	39375	107028	0	0	8144	749349	0	0
2024-05-16 02:28:32			0	34050	0	0	0	19249	17860	148942	27926	972590	39374	107026	0	0	8145	748418	0	0
2024-05-16 02:29:32			0	34038	0	0	0	19270	17850	148994	27386	972600	39374	107034	0	0	8144	749047	0	0
2024-05-16 02:30:32			0	34016	0	0	0	19259	17860	148910	27457	972651	39385	107030	0	0	8143	750086	0	0
2024-05-16 02:31:32			0	34036	0	0	0	19262	17860	149074	27710	972669	39374	107031	0	0	8144	749104	0	0
2024-05-16 02:32:32			0	34032	0	0	0	19264	17860	149006	27474	972678	39375	107032	0	0	8144	749300	0	0
2024-05-16 02:33:32			0	34034	0	0	0	19267	17860	148942	27630	972616	39374	107033	0	0	8144	749202	0	0
2024-05-16 02:34:32			0	34036	0	0	0	19270	17860	148970	27460	972669	39385	107034	0	0	8144	749104	0	0
2024-05-16 02:35:32			0	34025	0	0	0	19270	17860	148930	27509	972590	39385	107034	0	0	8143	749644	0	0
2024-05-16 02:36:32			0	34022	0	0	0	19264	17860	149014	27826	972678	39375	107032	0	0	8143	749791	0	0
2024-05-16 02:37:32			0	34037	0	0	0	19254	17860	148982	27505	972598	39375	107028	0	0	8144	749055	0	0
2024-05-16 02:38:32			0	34035	0	0	0	19262	17860	148906	27616	972572	39375	107031	0	0	8144	749153	0	0
2024-05-16 02:39:32			0	34044	0	0	0	19262	17860	148910	27395	972704	39385	107031	0	0	8145	748712	0	0
2024-05-16 02:40:32			0	34049	0	0	0	19259	17860	148922	27386	972651	39375	107030	0	0	8145	748467	0	0
2024-05-16 02:41:32			0	34052	0	0	0	19262	17870	148890	27379	972633	39375	107031	0	0	8145	748279	0	0
2024-05-16 02:42:32			0	34054	0	0	0	19259	17870	148842	27679	972633	39386	107030	0	0	8145	748181	0	0
2024-05-16 02:43:32			0	34065	0	0	0	19267	17880	148862	27587	972597	39375	107033	0	0	8146	747601	0	0
2024-05-16 02:44:32			0	34053	0	0	0	19270	17870	148798	27524	972633	39386	107034	0	0	8145	748230	0	0
2024-05-16 02:45:32			0	34061	0	0	0	19272	17870	148890	27793	972633	39375	107035	0	0	8145	747838	0	0
2024-05-16 02:46:32			0	34068	0	0	0	19267	17860	148770	27776	972598	39375	107033	0	0	8146	747536	0	0
2024-05-16 02:47:32			0	34065	0	0	0	19270	17880	148858	27663	972623	39386	107034	0	0	8146	747601	0	0
2024-05-16 02:48:32			0	34077	0	0	0	19270	17860	148762	27301	972730	39385	107034	0	0	8146	747095	0	0
2024-05-16 02:49:32			0	34077	0	0	0	19267	17870	148718	27644	972615	39375	107033	0	0	8146	747054	0	0
2024-05-16 02:50:32			0	34087	0	0	0	19272	17870	148654	27679	972641	39386	107035	0	0	8147	746565	0	0
2024-05-16 02:51:32			0	34080	0	0	0	19259	17870	148590	27422	972739	39375	107030	0	0	8147	746908	0	0
2024-05-16 02:52:32			0	34077	0	0	0	19272	17870	148578	27473	972607	39386	107035	0	0	8146	747054	0	0
2024-05-16 02:53:32			0	34103	0	0	0	19267	17860	148670	27350	972643	39385	107033	0	0	8148	745823	0	0
2024-05-16 02:54:32			0	34088	0	0	0	19270	17870	148618	27208	972641	39375	107034	0	0	8147	746516	0	0
2024-05-16 02:55:32			0	34106	0	0	0	19264	17870	148618	27431	972633	39375	107032	0	0	8148	745636	0	0
2024-05-16 02:56:32			0	34090	0	0	0	19264	17870	148566	27445	972721	39386	107032	0	0	8147	746418	0	0
2024-05-16 02:57:32			0	34078	0	0	0	19267	17870	148578	27739	972607	39386	107033	0	0	8147	747005	0	0
2024-05-16 02:58:32			0	34091	0	0	0	19267	17870	148670	27334	972588	39375	107033	0	0	8147	746369	0	0
2024-05-16 02:59:32			0	34112	0	0	0	19262	17870	148522	27381	972668	39375	107031	0	0	8149	745343	0	0
2024-05-16 03:00:32			0	34080	0	0	0	19262	17870	148574	27293	972615	39386	107031	0	0	8147	746908	0	0
2024-05-16 03:01:32			0	34091	0	0	0	19259	17880	148562	27479	972623	39375	107030	0	0	8147	746329	0	0
2024-05-16 03:02:32			0	34114	0	0	0	19251	17860	148674	27300	972678	39385	107027	0	0	8149	745286	0	0
2024-05-16 03:03:32			0	34106	0	0	0	19262	17860	148614	27339	972625	39397	107031	0	0	8148	745677	0	0
2024-05-16 03:04:32			0	34102	0	0	0	19267	17880	148534	27209	972650	39386	107033	0	0	8148	745791	0	0
2024-05-16 03:05:32			0	34094	0	0	0	19267	17860	148534	27274	972598	39375	107033	0	0	8147	746263	0	0
2024-05-16 03:06:32			0	34088	0	0	0	19277	17880	148502	27381	972650	39386	107037	0	0	8147	746475	0	0
2024-05-16 03:07:32			0	34101	0	0	0	19267	17870	148522	27294	972721	39375	107033	0	0	8148	745880	0	0
2024-05-16 03:08:32			0	34097	0	0	0	19270	17860	148550	27741	972625	39385	107034	0	0	8148	746117	0	0
2024-05-16 03:09:32			0	34118	0	0	0	19270	17880	148542	27561	972755	39397	107034	0	0	8149	745009	0	0
2024-05-16 03:10:32			0	34126	0	0	0	19270	17870	148562	27852	972686	39375	107034	0	0	8149	744659	0	0
2024-05-16 03:11:32			0	34113	0	0	0	19275	17880	148534	27528	972650	39375	107036	0	0	8148	745253	0	0
2024-05-16 03:12:32			0	34096	0	0	0	19277	17860	148422	27424	972625	39397	107037	0	0	8147	746166	0	0
2024-05-16 03:13:32			0	34098	0	0	0	19270	17880	148490	27587	972684	39387	107034	0	0	8148	745987	0	0
2024-05-16 03:14:32			0	34134	0	0	0	19270	17880	148462	27412	972702	39386	107034	0	0	8150	744228	0	0
2024-05-16 03:15:32			0	34137	0	0	0	19280	17880	148506	27907	972658	39387	107038	0	0	8150	744082	0	0
2024-05-16 03:16:32			0	34122	0	0	0	19270	17880	148446	27447	972676	39386	107034	0	0	8149	744814	0	0
2024-05-16 03:17:32			0	34137	0	0	0	19272	17880	148366	27616	972650	39397	107035	0	0	8150	744082	0	0
2024-05-16 03:18:32			0	34144	0	0	0	19272	17880	148354	27732	972729	39386	107035	0	0	8150	743740	0	0
2024-05-16 03:19:32			0	34164	0	0	0	19267	17880	148290	27365	972729	39386	107033	0	0	8152	742765	0	0
2024-05-16 03:20:32			0	34155	0	0	0	19272	17880	148306	27608	972711	39376	107035	0	0	8151	743204	0	0
2024-05-16 03:21:32			0	34158	0	0	0	19272	17870	148222	27796	972721	39397	107035	0	0	8151	743098	0	0
2024-05-16 03:22:32			0	34170	0	0	0	19277	17880	148238	27346	972737	39398	107037	0	0	8152	742473	0	0
2024-05-16 03:23:32			0	34179	0	0	0	19280	17860	148254	27656	972651	39364	107038	0	0	8152	742115	0	0
2024-05-16 03:24:32			0	34177	0	0	0	19270	17880	148258	27471	972676	39386	107034	0	0	8152	742132	0	0
2024-05-16 03:25:32			0	34161	0	0	0	19280	17880	148170	27376	972764	39387	107038	0	0	8151	742911	0	0
2024-05-16 03:26:32			0	34182	0	0	0	19272	17880	148150	27618	972711	39387	107035	0	0	8152	741889	0	0
2024-05-16 03:27:32			0	34185	0	0	0	19272	17880	148166	27455	972702	39386	107035	0	0	8153	741743	0	0
2024-05-16 03:28:32			0	34179	0	0	0	19267	17860	148190	27163	972678	39385	107033	0	0	8152	742115	0	0
2024-05-16 03:29:32			0	34180	0	0	0	19272	17870	148206	27559	972659	39386	107035	0	0	8152	742026	0	0
2024-05-16 03:30:32			0	34182	0	0	0	19275	17870	148214	27478	972721	39375	107036	0	0	8152	741929	0	0
2024-05-16 03:31:32			0	34179	0	0	0	19267	17880	148246	27498	972755	39386	107033	0	0	8152	742035	0	0
2024-05-16 03:32:32			0	34169	0	0	0	19264	17860	148198	27384	972651	39397	107032	0	0	8152	742603	0	0
2024-05-16 03:33:32			0	34165	0	0	0	19267	17880	148210	27732	972737	39376	107033	0	0	8152	742716	0	0
2024-05-16 03:34:32			0	34160	0	0	0	19270	17880	148242	27372	972729	39375	107034	0	0	8151	742960	0	0
2024-05-16 03:35:32			0	34154	0	0	0	19267	17890	148158	27386	972719	39367	107033	0	0	8151	743212	0	0
2024-05-16 03:36:32			0	34181	0	0	0	19267	17880	148230	27537	972729	39397	107033	0	0	8152	741937	0	0
2024-05-16 03:37:32			0	34176	0	0	0	19259	17870	148178	27559	972712	39386	107030	0	0	8152	742221	0	0
2024-05-16 03:38:32			0	34183	0	0	0	19267	17860	148202	27689	972730	39375	107033	0	0	8152	741921	0	0
2024-05-16 03:39:32			0	34160	0	0	0	19272	17860	148178	27187	972678	39375	107035	0	0	8151	743041	0	0
2024-05-16 03:40:32			0	34184	0	0	0	19270	17860	148106	27668	972704	39375	107034	0	0	8153	741872	0	0
2024-05-16 03:41:32			0	34178	0	0	0	19275	17880	148122	27798	972650	39375	107036	0	0	8152	742083	0	0
2024-05-16 03:42:32			0	34200	0	0	0	19267	17860	147962	27405	972678	39375	107033	0	0	8153	741094	0	0
2024-05-16 03:43:32			0	34248	0	0	0	19267	17870	147870	27509	972739	39386	107033	0	0	8156	738722	0	0
2024-05-16 03:44:32			0	34275	0	0	0	19270	17880	147782	27407	972623	39375	107034	0	0	8158	737372	0	0
2024-05-16 03:45:32			0	34267	0	0	0	19259	17860	147782	27371	972616	39396	107030	0	0	8157	737841	0	0
2024-05-16 03:46:32			0	34258	0	0	0	19272	17880	147710	27346	972702	39386	107035	0	0	8157	738196	0	0
2024-05-16 03:47:32			0	34272	0	0	0	19267	17880	147830	27391	972658	39409	107033	0	0	8158	737518	0	0
2024-05-16 03:48:32			0	34238	0	0	0	19270	17870	147830	27689	972712	39375	107034	0	0	8156	739207	0	0
2024-05-16 03:49:32			0	34233	0	0	0	19262	17860	147930	27498	972704	39397	107031	0	0	8155	739490	0	0
2024-05-16 03:50:32			0	34205	0	0	0	19257	17860	148042	27524	972678	39364	107029	0	0	8154	740850	0	0
2024-05-16 03:51:32			0	34171	0	0	0	19262	17860	148042	27485	972696	39396	107031	0	0	8152	742505	0	0
2024-05-16 03:52:32			0	34193	0	0	0	19267	17870	148054	27289	972686	39386	107033	0	0	8153	741394	0	0
2024-05-16 03:53:32			0	34209	0	0	0	19267	17870	148062	27329	972633	39397	107033	0	0	8154	740616	0	0
2024-05-16 03:54:32			0	34205	0	0	0	19267	17860	147966	27390	972704	39397	107033	0	0	8154	740850	0	0
2024-05-16 03:55:32			0	34215	0	0	0	19267	17860	147966	27651	972625	39375	107033	0	0	8154	740364	0	0
2024-05-16 03:56:32			0	34230	0	0	0	19262	17870	147974	27696	972633	39386	107031	0	0	8155	739595	0	0
2024-05-16 03:57:32			0	34191	0	0	0	19259	17880	147978	27300	972676	39397	107030	0	0	8153	741451	0	0
2024-05-16 03:58:32			0	34193	0	0	0	19262	17860	148030	27476	972651	39397	107031	0	0	8153	741434	0	0
2024-05-16 03:59:32			0	34158	0	0	0	19272	17860	148154	27642	972598	39385	107035	0	0	8151	743139	0	0
2024-05-16 04:00:32			0	34143	0	0	0	19262	17870	148458	27367	972721	39386	107031	0	0	8150	743829	0	0
2024-05-16 04:01:32			0	34109	0	0	0	19272	17860	148486	27725	972704	39385	107035	0	0	8148	745530	0	0
2024-05-16 04:02:32			0	34087	0	0	0	19272	17870	148606	27528	972721	39375	107035	0	0	8147	746565	0	0
2024-05-16 04:03:32			0	34060	0	0	0	19264	17880	148634	27590	972650	39397	107032	0	0	8146	747846	0	0
2024-05-16 04:04:32			0	34032	0	0	0	19264	17860	148754	27343	972678	39375	107032	0	0	8144	749300	0	0
2024-05-16 04:05:32			0	34023	0	0	0	19275	17870	148774	27582	972712	39386	107036	0	0	8143	749701	0	0
2024-05-16 04:06:32			0	34027	0	0	0	19277	17880	148966	27338	972702	39397	107037	0	0	8143	749464	0	0
2024-05-16 04:07:32			0	33999	0	0	0	19267	17880	148902	27473	972702	39386	107033	0	0	8142	750839	0	0
2024-05-16 04:08:32			0	33985	0	0	0	19277	17880	149014	27400	972737	39387	107037	0	0	8141	751527	0	0
2024-05-16 04:09:32			0	33974	0	0	0	19270	17880	148926	27478	972737	39398	107034	0	0	8141	752068	0	0
2024-05-16 04:10:32			0	33983	0	0	0	19270	17880	149106	27661	972650	39397	107034	0	0	8141	751625	0	0
2024-05-16 04:11:32			0	33968	0	0	0	19259	17870	149050	27881	972712	39386	107030	0	0	8140	752405	0	0
2024-05-16 04:12:32			0	33965	0	0	0	19264	17880	149122	27753	972729	39386	107032	0	0	8140	752511	0	0
2024-05-16 04:13:32			0	33954	0	0	0	19257	17860	149170	27649	972651	39375	107029	0	0	8140	753135	0	0
2024-05-16 04:14:32			0	33943	0	0	0	19264	17870	149130	27386	972668	39386	107032	0	0	8139	753636	0	0
2024-05-16 04:15:32			0	33962	0	0	0	19259	17870	149178	27497	972641	39397	107030	0	0	8140	752700	0	0
2024-05-16 04:16:32			0	33945	0	0	0	19272	17870	149154	27381	972686	39386	107035	0	0	8139	753537	0	0
2024-05-16 04:17:32			0	33953	0	0	0	19264	17860	149178	27345	972651	39364	107032	0	0	8139	753184	0	0
2024-05-16 04:18:32			0	33958	0	0	0	19259	17860	149130	27426	972722	39396	107030	0	0	8140	752938	0	0
2024-05-16 04:19:32			0	33961	0	0	0	19259	17860	149122	27367	972598	39397	107030	0	0	8140	752790	0	0
2024-05-16 04:20:32			0	33979	0	0	0	19254	17860	149070	27554	972625	39375	107028	0	0	8141	751904	0	0
2024-05-16 04:21:32			0	34004	0	0	0	19257	17860	148970	27493	972704	39385	107029	0	0	8142	750675	0	0
2024-05-16 04:22:32			0	34018	0	0	0	19251	17860	148878	27128	972651	39385	107027	0	0	8143	749987	0	0
2024-05-16 04:23:32			0	34051	0	0	0	19251	17860	148854	27298	972704	39375	107027	0	0	8145	748369	0	0
2024-05-16 04:24:32			0	34021	0	0	0	19246	17860	148798	27350	972598	39385	107025	0	0	8144	749840	0	0
2024-05-16 04:25:32			0	34036	0	0	0	19254	17860	148790	27521	972616	39385	107028	0	0	8144	749104	0	0
2024-05-16 04:26:32			0	34042	0	0	0	19244	17870	148810	27242	972607	39397	107024	0	0	8145	748769	0	0
2024-05-16 04:27:32			0	34038	0	0	0	19236	17850	148806	27377	972581	39374	107021	0	0	8145	749047	0	0
2024-05-16 04:28:32			0	34059	0	0	0	19238	17850	148798	27209	972555	39374	107022	0	0	8146	748017	0	0
2024-05-16 04:29:32			0	34058	0	0	0	19246	17850	148602	27339	972608	39385	107025	0	0	8146	748066	0	0
2024-05-16 04:30:32			0	34083	0	0	0	19238	17850	148702	27372	972581	39396	107022	0	0	8147	746842	0	0
2024-05-16 04:31:32			0	34075	0	0	0	19228	17850	148670	27265	972547	39384	107018	0	0	8147	747234	0	0
2024-05-16 04:32:32			0	34073	0	0	0	19233	17840	148782	27159	972538	39384	107020	0	0	8147	747372	0	0
2024-05-16 04:33:32			0	34048	0	0	0	19228	17840	148814	27462	972530	39383	107018	0	0	8145	748597	0	0
2024-05-16 04:34:32			0	34013	0	0	0	19220	17840	148942	27301	972557	39373	107015	0	0	8143	750315	0	0
2024-05-16 04:35:32			0	34019	0	0	0	19225	17850	149042	27476	972626	39374	107017	0	0	8144	749979	0	0
2024-05-16 04:36:32			0	34007	0	0	0	19228	17830	149106	27512	972495	39383	107018	0	0	8143	750650	0	0
2024-05-16 04:37:32			0	33949	0	0	0	19231	17850	149222	27462	972600	39374	107019	0	0	8140	753422	0	0
2024-05-16 04:38:32			0	33941	0	0	0	19233	17840	149274	27528	972530	39383	107020	0	0	8139	753857	0	0
2024-05-16 04:39:32			0	33909	0	0	0	19233	17840	149374	27260	972530	39383	107020	0	0	8137	755436	0	0
2024-05-16 04:40:32			0	33895	0	0	0	19231	17840	149522	27298	972538	39384	107019	0	0	8136	756128	0	0
2024-05-16 04:41:32			0	33857	0	0	0	19220	17830	149606	27336	972495	39373	107015	0	0	8134	758049	0	0
2024-05-16 04:42:32			0	33821	0	0	0	19218	17830	149810	27594	972495	39373	107014	0	0	8132	759833	0	0
2024-05-16 04:43:32			0	33809	0	0	0	19210	17830	149930	27360	972469	39373	107011	0	0	8132	760429	0	0
2024-05-16 04:44:32			0	33768	0	0	0	19192	17830	150010	27417	972495	39383	107004	0	0	8130	762466	0	0
2024-05-16 04:45:32			0	33754	0	0	0	19215	17820	150138	27587	972524	39371	107013	0	0	8128	763204	0	0
2024-05-16 04:46:32			0	33726	0	0	0	19207	17820	150278	27777	972497	39371	107010	0	0	8127	764599	0	0
2024-05-16 04:47:32			0	33708	0	0	0	19205	17820	150266	27679	972479	39382	107009	0	0	8126	765497	0	0
2024-05-16 04:48:32			0	33714	0	0	0	19205	17820	150274	27260	972479	39372	107009	0	0	8126	765198	0	0
2024-05-16 04:49:32			0	33722	0	0	0	19197	17820	150306	27419	972471	39381	107006	0	0	8127	764799	0	0
2024-05-16 04:50:32			0	33712	0	0	0	19205	17820	150330	27537	972497	39381	107009	0	0	8126	765298	0	0
2024-05-16 04:51:32			0	33738	0	0	0	19207	17820	150234	27071	972479	39372	107010	0	0	8128	764002	0	0
2024-05-16 04:52:32			0	33758	0	0	0	19218	17820	150094	27204	972576	39381	107014	0	0	8129	763005	0	0
2024-05-16 04:53:32			0	33786	0	0	0	19212	17830	150006	27126	972487	39393	107012	0	0	8130	761571	0	0
2024-05-16 04:54:32			0	33830	0	0	0	19207	17820	149778	27562	972453	39393	107010	0	0	8133	759428	0	0
2024-05-16 04:55:32			0	33891	0	0	0	19205	17820	149510	27339	972505	39382	107009	0	0	8137	756408	0	0
2024-05-16 04:56:32			0	33964	0	0	0	19212	17820	149242	27118	972453	39382	107012	0	0	8141	752806	0	0
2024-05-16 04:57:32			0	33988	0	0	0	19212	17820	148994	27303	972444	39381	107012	0	0	8142	751625	0	0
2024-05-16 04:58:32			0	34032	0	0	0	19215	17820	148826	27312	972479	39382	107013	0	0	8145	749464	0	0
2024-05-16 04:59:32			0	34054	0	0	0	19215	17810	148610	27488	972462	39380	107013	0	0	8146	748425	0	0
2024-05-16 05:00:32			0	34094	0	0	0	19223	17830	148558	27218	972567	39393	107016	0	0	8148	746385	0	0
2024-05-16 05:01:32			0	34106	0	0	0	19223	17820	148518	27396	972497	39381	107016	0	0	8149	745839	0	0
2024-05-16 05:02:32			0	34127	0	0	0	19202	17830	148418	26998	972487	39393	107008	0	0	8150	744773	0	0
2024-05-16 05:03:32			0	34147	0	0	0	19205	17810	148434	27348	972436	39380	107009	0	0	8151	743878	0	0
2024-05-16 05:04:32			0	34157	0	0	0	19202	17810	148358	27133	972489	39391	107008	0	0	8152	743390	0	0
2024-05-16 05:05:32			0	34166	0	0	0	19205	17810	148290	27133	972428	39380	107009	0	0	8152	742951	0	0
2024-05-16 05:06:32			0	34177	0	0	0	19210	17810	148198	27514	972436	39380	107011	0	0	8153	742415	0	0
2024-05-16 05:07:32			0	34205	0	0	0	19205	17810	148014	27722	972454	39380	107009	0	0	8155	741052	0	0
2024-05-16 05:08:32			0	34227	0	0	0	19207	17810	148014	27015	972533	39391	107010	0	0	8156	739983	0	0
2024-05-16 05:09:32			0	34230	0	0	0	19212	17810	147914	27237	972436	39370	107012	0	0	8156	739837	0	0
2024-05-16 05:10:32			0	34248	0	0	0	19207	17810	147898	27398	972436	39370	107010	0	0	8157	738963	0	0
2024-05-16 05:11:32			0	34271	0	0	0	19210	17810	147854	27549	972401	39380	107011	0	0	8158	737847	0	0
2024-05-16 05:12:32			0	34306	0	0	0	19207	17810	147738	27306	972436	39380	107010	0	0	8160	736152	0	0
2024-05-16 05:13:32			0	34296	0	0	0	19207	17810	147734	27331	972428	39370	107010	0	0	8160	736636	0	0
2024-05-16 05:14:32			0	34296	0	0	0	19212	17810	147662	27272	972462	39380	107012	0	0	8160	736636	0	0
2024-05-16 05:15:32			0	34321	0	0	0	19210	17810	147682	27460	972436	39359	107011	0	0	8161	735427	0	0
2024-05-16 05:16:32			0	34310	0	0	0	19210	17810	147618	27765	972410	39370	107011	0	0	8160	735959	0	0
2024-05-16 05:17:32			0	34319	0	0	0	19212	17820	147642	27192	972497	39371	107012	0	0	8161	735484	0	0
2024-05-16 05:18:32			0	34307	0	0	0	19215	17810	147662	27431	972428	39370	107013	0	0	8160	736104	0	0
2024-05-16 05:19:32			0	34315	0	0	0	19207	17810	147586	27329	972489	39380	107010	0	0	8161	735717	0	0
2024-05-16 05:20:32			0	34325	0	0	0	19215	17810	147514	27223	972462	39391	107013	0	0	8161	735233	0	0
2024-05-16 05:21:32			0	34307	0	0	0	19210	17820	147646	27429	972418	39371	107011	0	0	8160	736064	0	0
2024-05-16 05:22:32			0	34297	0	0	0	19207	17810	147662	27436	972481	39380	107010	0	0	8160	736588	0	0
2024-05-16 05:23:32			0	34283	0	0	0	19202	17810	147694	27710	972481	39391	107008	0	0	8159	737266	0	0
2024-05-16 05:24:32			0	34270	0	0	0	19199	17820	147910	27561	972471	39381	107007	0	0	8158	737856	0	0
2024-05-16 05:25:32			0	34235	0	0	0	19202	17810	147962	27410	972436	39370	107008	0	0	8156	739594	0	0
2024-05-16 05:26:32			0	34218	0	0	0	19199	17820	148022	27409	972524	39371	107007	0	0	8155	740380	0	0
2024-05-16 05:27:32			0	34190	0	0	0	19189	17810	148246	27614	972462	39380	107003	0	0	8154	741782	0	0
2024-05-16 05:28:32			0	34160	0	0	0	19194	17810	148346	27507	972462	39370	107005	0	0	8152	743244	0	0
2024-05-16 05:29:32			0	34150	0	0	0	19197	17810	148458	27225	972454	39370	107006	0	0	8152	743731	0	0
2024-05-16 05:30:32			0	34124	0	0	0	19197	17810	148586	27350	972428	39380	107006	0	0	8150	745000	0	0
2024-05-16 05:31:32			0	34121	0	0	0	19192	17800	148526	27665	972472	39379	107004	0	0	8150	745187	0	0
2024-05-16 05:32:32			0	34109	0	0	0	19194	17810	148466	27440	972428	39380	107005	0	0	8149	745733	0	0
2024-05-16 05:33:32			0	34127	0	0	0	19186	17800	148514	27490	972472	39379	107002	0	0	8150	744894	0	0
2024-05-16 05:34:32			0	34138	0	0	0	19189	17810	148378	27514	972481	39380	107003	0	0	8151	744317	0	0
2024-05-16 05:35:32			0	34114	0	0	0	19171	17800	148490	27388	972340	39379	106996	0	0	8150	745530	0	0
2024-05-16 05:36:32			0	34128	0	0	0	19184	17810	148402	27417	972428	39370	107001	0	0	8151	744805	0	0
2024-05-16 05:37:32			0	34126	0	0	0	19176	17800	148478	27166	972358	39379	106998	0	0	8150	744943	0	0
2024-05-16 05:38:32			0	34137	0	0	0	19181	17800	148470	27118	972367	39379	107000	0	0	8151	744406	0	0
2024-05-16 05:39:32			0	34137	0	0	0	19168	17790	148430	27535	972315	39368	106995	0	0	8151	744447	0	0
2024-05-16 05:40:32			0	34136	0	0	0	19186	17780	148594	27313	972413	39367	107002	0	0	8151	744536	0	0
2024-05-16 05:41:32			0	34112	0	0	0	19189	17790	148470	27261	972350	39378	107003	0	0	8149	745668	0	0
2024-05-16 05:42:32			0	34120	0	0	0	19189	17790	148478	27216	972421	39378	107003	0	0	8150	745277	0	0
2024-05-16 05:43:32			0	34134	0	0	0	19202	17790	148458	27391	972421	39378	107008	0	0	8150	744593	0	0
2024-05-16 05:44:32			0	34127	0	0	0	19207	17790	148550	27300	972403	39378	107010	0	0	8150	744935	0	0
2024-05-16 05:45:32			0	34137	0	0	0	19189	17790	148450	27642	972395	39378	107003	0	0	8151	744447	0	0
2024-05-16 05:46:32			0	34138	0	0	0	19205	17780	148454	27345	972386	39367	107009	0	0	8151	744438	0	0
2024-05-16 05:47:32			0	34138	0	0	0	19199	17800	148466	27152	972385	39369	107007	0	0	8151	744357	0	0
2024-05-16 05:48:32			0	34147	0	0	0	19202	17800	148342	27473	972332	39379	107008	0	0	8151	743918	0	0
2024-05-16 05:49:32			0	34178	0	0	0	19199	17790	148298	27455	972403	39368	107007	0	0	8153	742447	0	0
2024-05-16 05:50:32			0	34161	0	0	0	19207	17800	148394	27187	972385	39369	107010	0	0	8152	743235	0	0
2024-05-16 05:51:32			0	34166	0	0	0	19205	17800	148266	27557	972419	39379	107009	0	0	8152	742992	0	0
2024-05-16 05:52:32			0	34176	0	0	0	19179	17800	148262	27287	972332	39391	106999	0	0	8153	742504	0	0
2024-05-16 05:53:32			0	34162	0	0	0	19181	17800	148346	27769	972411	39369	107000	0	0	8152	743187	0	0
2024-05-16 05:54:32			0	34154	0	0	0	19189	17790	148302	27438	972342	39378	107003	0	0	8152	743617	0	0
2024-05-16 05:55:32			0	34164	0	0	0	19174	17800	148398	27348	972340	39369	106997	0	0	8153	743089	0	0
2024-05-16 05:56:32			0	34151	0	0	0	19186	17790	148482	27396	972324	39378	107002	0	0	8152	743763	0	0
2024-05-16 05:57:32			0	34131	0	0	0	19174	17780	148490	27798	972299	39378	106997	0	0	8151	744780	0	0
2024-05-16 05:58:32			0	34125	0	0	0	19163	17780	148446	27300	972334	39367	106993	0	0	8151	745073	0	0
2024-05-16 05:59:32			0	34130	0	0	0	19176	17780	148482	27353	972272	39378	106998	0	0	8151	744829	0	0
2024-05-16 06:00:32			0	34108	0	0	0	19176	17770	148482	27357	972291	39367	106998	0	0	8149	745945	0	0
2024-05-16 06:01:32			0	34119	0	0	0	19161	17780	148466	27607	972352	39367	106992	0	0	8150	745366	0	0
2024-05-16 06:02:32			0	34129	0	0	0	19174	17770	148454	27713	972282	39388	106997	0	0	8151	744918	0	0
2024-05-16 06:03:32			0	34144	0	0	0	19166	17770	148442	27597	972264	39388	106994	0	0	8152	744186	0	0
2024-05-16 06:04:32			0	34162	0	0	0	19189	17780	148350	27731	972299	39367	107003	0	0	8152	743268	0	0
2024-05-16 06:05:32			0	34152	0	0	0	19194	17780	148330	27573	972281	39367	107005	0	0	8152	743755	0	0
2024-05-16 06:06:32			0	34158	0	0	0	19207	17770	148314	27357	972317	39388	107010	0	0	8152	743503	0	0
2024-05-16 06:07:32			0	34184	0	0	0	19205	17780	148322	27659	972405	39378	107009	0	0	8153	742196	0	0
2024-05-16 06:08:32			0	34180	0	0	0	19205	17780	148242	27569	972386	39378	107009	0	0	8153	742390	0	0
2024-05-16 06:09:32			0	34176	0	0	0	19199	17790	148254	27384	972395	39390	107007	0	0	8153	742545	0	0
2024-05-16 06:10:32			0	34199	0	0	0	19197	17790	148158	27743	972350	39378	107006	0	0	8154	741425	0	0
2024-05-16 06:11:32			0	34209	0	0	0	19176	17790	148110	27559	972342	39378	106998	0	0	8155	740939	0	0
2024-05-16 06:12:32			0	34208	0	0	0	19171	17780	148070	27632	972325	39367	106996	0	0	8155	741027	0	0
2024-05-16 06:13:32			0	34222	0	0	0	19189	17790	148050	27691	972368	39368	107003	0	0	8156	740306	0	0
2024-05-16 06:14:32			0	34229	0	0	0	19202	17790	148178	27441	972368	39401	107008	0	0	8156	739966	0	0
2024-05-16 06:15:32			0	34228	0	0	0	19197	17780	147958	27549	972325	39367	107006	0	0	8156	740055	0	0
2024-05-16 06:16:32			0	34234	0	0	0	19205	17790	148058	27516	972377	39368	107009	0	0	8156	739723	0	0
2024-05-16 06:17:32			0	34222	0	0	0	19207	17790	148042	27616	972421	39390	107010	0	0	8155	740306	0	0
2024-05-16 06:18:32			0	34246	0	0	0	19215	17790	147938	27313	972429	39390	107013	0	0	8157	739141	0	0
2024-05-16 06:19:32			0	34249	0	0	0	19199	17790	147966	27196	972395	39390	107007	0	0	8157	738995	0	0
2024-05-16 06:20:32			0	34252	0	0	0	19197	17790	147910	27639	972429	39368	107006	0	0	8157	738850	0	0
2024-05-16 06:21:32			0	34246	0	0	0	19194	17790	148006	27533	972350	39378	107005	0	0	8157	739141	0	0
2024-05-16 06:22:32			0	34248	0	0	0	19199	17790	147930	27414	972429	39390	107007	0	0	8157	739044	0	0
2024-05-16 06:23:32			0	34245	0	0	0	19194	17800	148034	27412	972446	39379	107005	0	0	8157	739149	0	0
2024-05-16 06:24:32			0	34233	0	0	0	19199	17810	147994	27346	972454	39380	107007	0	0	8156	739691	0	0
2024-05-16 06:25:32			0	34220	0	0	0	19205	17790	148026	27319	972395	39390	107009	0	0	8155	740404	0	0
2024-05-16 06:26:32			0	34233	0	0	0	19215	17790	147986	27635	972403	39378	107013	0	0	8156	739772	0	0
2024-05-16 06:27:32			0	34223	0	0	0	19212	17810	148158	27533	972454	39380	107012	0	0	8155	740177	0	0
2024-05-16 06:28:32			0	34236	0	0	0	19215	17800	148050	27289	972464	39379	107013	0	0	8156	739586	0	0
2024-05-16 06:29:32			0	34198	0	0	0	19210	17810	148082	27402	972428	39391	107011	0	0	8154	741393	0	0
2024-05-16 06:30:32			0	34231	0	0	0	19220	17800	147998	27538	972525	39379	107015	0	0	8156	739829	0	0
2024-05-16 06:31:32			0	34240	0	0	0	19218	17810	148002	27218	972515	39380	107014	0	0	8156	739351	0	0
2024-05-16 06:32:32			0	34257	0	0	0	19223	17810	148038	27350	972481	39380	107016	0	0	8157	738526	0	0
2024-05-16 06:33:32			0	34264	0	0	0	19231	17810	147926	27076	972454	39391	107019	0	0	8158	738187	0	0
2024-05-16 06:34:32			0	34236	0	0	0	19236	17810	147834	27248	972595	39380	107021	0	0	8156	739546	0	0
2024-05-16 06:35:32			0	34269	0	0	0	19233	17820	147834	27474	972550	39371	107020	0	0	8158	737904	0	0
2024-05-16 06:36:32			0	34290	0	0	0	19225	17810	147806	27545	972489	39380	107017	0	0	8159	736927	0	0
2024-05-16 06:37:32			0	34295	0	0	0	19218	17810	147722	27161	972542	39380	107014	0	0	8159	736685	0	0
2024-05-16 06:38:32			0	34293	0	0	0	19215	17810	147786	27419	972436	39391	107013	0	0	8159	736782	0	0
2024-05-16 06:39:32			0	34297	0	0	0	19225	17820	147698	27150	972471	39381	107017	0	0	8160	736548	0	0
2024-05-16 06:40:32			0	34307	0	0	0	19225	17820	147618	27355	972524	39392	107017	0	0	8160	736064	0	0
2024-05-16 06:41:32			0	34306	0	0	0	19228	17820	147666	27429	972471	39403	107018	0	0	8160	736112	0	0
2024-05-16 06:42:32			0	34318	0	0	0	19228	17810	147634	27711	972489	39391	107018	0	0	8161	735572	0	0
2024-05-16 06:43:32			0	34325	0	0	0	19220	17820	147570	27552	972471	39381	107015	0	0	8161	735193	0	0
2024-05-16 06:44:32			0	34304	0	0	0	19218	17820	147518	27440	972471	39371	107014	0	0	8160	736209	0	0
2024-05-16 06:45:32			0	34315	0	0	0	19218	17820	147538	27528	972497	39381	107014	0	0	8161	735677	0	0
2024-05-16 06:46:32			0	34316	0	0	0	19210	17810	147542	27618	972515	39380	107011	0	0	8161	735669	0	0
2024-05-16 06:47:32			0	34328	0	0	0	19202	17810	147502	27464	972436	39370	107008	0	0	8162	735089	0	0
2024-05-16 06:48:32			0	34329	0	0	0	19189	17810	147542	27772	972489	39380	107003	0	0	8162	735040	0	0
2024-05-16 06:49:32			0	34324	0	0	0	19184	17800	147514	27154	972419	39369	107001	0	0	8162	735322	0	0
2024-05-16 06:50:32			0	34329	0	0	0	19171	17810	147486	27332	972375	39370	106996	0	0	8162	735040	0	0
2024-05-16 06:51:32			0	34347	0	0	0	19150	17800	147527	27331	972393	39379	106988	0	0	8164	734211	0	0
2024-05-16 06:52:32			0	34317	0	0	0	19145	17790	147486	27358	972350	39378	106986	0	0	8162	735700	0	0
2024-05-16 06:53:32			0	34321	0	0	0	19153	17790	147470	27237	972342	39378	106989	0	0	8162	735507	0	0
2024-05-16 06:54:32			0	34320	0	0	0	19155	17790	147446	27185	972315	39378	106990	0	0	8162	735555	0	0
2024-05-16 06:55:32			0	34327	0	0	0	19158	17780	147538	27196	972325	39378	106991	0	0	8162	735257	0	0
2024-05-16 06:56:32			0	34327	0	0	0	19155	17770	147566	27514	972343	39377	106990	0	0	8162	735297	0	0
2024-05-16 06:57:32			0	34331	0	0	0	19168	17780	147582	27621	972272	39378	106995	0	0	8162	735064	0	0
2024-05-16 06:58:32			0	34333	0	0	0	19153	17770	147522	27296	972264	39377	106989	0	0	8163	735007	0	0
2024-05-16 06:59:32			0	34337	0	0	0	19127	17770	147606	27459	972291	39377	106979	0	0	8163	734814	0	0
2024-05-16 07:00:32			0	34347	0	0	0	19137	17770	147366	27287	972291	39367	106983	0	0	8164	734331	0	0
2024-05-16 07:01:32			0	34357	0	0	0	19135	17770	147467	27315	972317	39377	106982	0	0	8164	733848	0	0
2024-05-16 07:02:32			0	34350	0	0	0	19129	17760	147446	27220	972195	39366	106980	0	0	8164	734226	0	0
2024-05-16 07:03:32			0	34360	0	0	0	19129	17760	147491	27564	972239	39366	106980	0	0	8164	733743	0	0
2024-05-16 07:04:32			0	34355	0	0	0	19129	17760	147475	27505	972239	39398	106980	0	0	8164	733984	0	0
2024-05-16 07:05:32			0	34352	0	0	0	19129	17750	147523	27424	972170	39365	106980	0	0	8164	734169	0	0
2024-05-16 07:06:32			0	34354	0	0	0	19135	17750	147499	27175	972117	39375	106982	0	0	8164	734073	0	0
2024-05-16 07:07:32			0	34352	0	0	0	19135	17750	147499	27372	972258	39386	106982	0	0	8164	734169	0	0
2024-05-16 07:08:32			0	34339	0	0	0	19145	17740	147546	27199	972215	39375	106986	0	0	8163	734837	0	0
2024-05-16 07:09:32			0	34327	0	0	0	19140	17750	147626	27563	972152	39375	106984	0	0	8162	735377	0	0
2024-05-16 07:10:32			0	34313	0	0	0	19150	17750	147726	27377	972231	39375	106988	0	0	8161	736054	0	0
2024-05-16 07:11:32			0	34280	0	0	0	19153	17740	147790	27542	972188	39375	106989	0	0	8159	737693	0	0
2024-05-16 07:12:32			0	34226	0	0	0	19153	17750	147990	27358	972223	39365	106989	0	0	8156	740273	0	0
2024-05-16 07:13:32			0	34195	0	0	0	19158	17760	148158	27443	972134	39376	106991	0	0	8155	741741	0	0
2024-05-16 07:14:32			0	34152	0	0	0	19163	17760	148458	27516	972239	39376	106993	0	0	8152	743836	0	0
2024-05-16 07:15:32			0	34114	0	0	0	19181	17750	148542	27255	972223	39375	107000	0	0	8149	745733	0	0
2024-05-16 07:16:32			0	34070	0	0	0	19176	17760	148754	27253	972292	39387	106998	0	0	8147	747845	0	0
2024-05-16 07:17:32			0	34038	0	0	0	19192	17760	148878	27459	972292	39376	107004	0	0	8145	749414	0	0
2024-05-16 07:18:32			0	34034	0	0	0	19184	17760	148970	27696	972319	39387	107001	0	0	8145	749610	0	0
2024-05-16 07:19:32			0	34027	0	0	0	19176	17760	149010	27324	972300	39366	106998	0	0	8145	749954	0	0
2024-05-16 07:20:32			0	33999	0	0	0	19176	17760	149006	27608	972274	39387	106998	0	0	8143	751330	0	0
2024-05-16 07:21:32			0	34008	0	0	0	19181	17760	149138	27220	972300	39376	107000	0	0	8143	750887	0	0
2024-05-16 07:22:32			0	33998	0	0	0	19184	17760	149110	27459	972345	39387	107001	0	0	8143	751379	0	0
2024-05-16 07:23:32			0	33980	0	0	0	19184	17770	149090	27542	972291	39388	107001	0	0	8142	752224	0	0
2024-05-16 07:24:32			0	34009	0	0	0	19174	17770	149102	27623	972362	39377	106997	0	0	8144	750798	0	0
2024-05-16 07:25:32			0	33980	0	0	0	19189	17770	149058	27422	972291	39367	107003	0	0	8142	752224	0	0
2024-05-16 07:26:32			0	33985	0	0	0	19184	17770	149110	27346	972335	39377	107001	0	0	8142	751978	0	0
2024-05-16 07:27:32			0	33991	0	0	0	19163	17770	149142	27431	972343	39388	106993	0	0	8143	751682	0	0
2024-05-16 07:28:32			0	33991	0	0	0	19155	17780	149074	27235	972325	39389	106990	0	0	8143	751641	0	0
2024-05-16 07:29:32			0	33990	0	0	0	19168	17780	149114	27334	972299	39378	106995	0	0	8143	751691	0	0
2024-05-16 07:30:32			0	33992	0	0	0	19179	17780	149042	27384	972378	39367	106999	0	0	8143	751592	0	0
2024-05-16 07:31:32			0	33987	0	0	0	19176	17780	149150	27528	972325	39378	106998	0	0	8142	751838	0	0
2024-05-16 07:32:32			0	33975	0	0	0	19192	17770	149150	27443	972317	39388	107004	0	0	8141	752470	0	0
2024-05-16 07:33:32			0	33969	0	0	0	19174	17780	149098	27308	972431	39378	106997	0	0	8141	752724	0	0
2024-05-16 07:34:32			0	33983	0	0	0	19197	17780	148970	27466	972325	39389	107006	0	0	8142	752035	0	0
2024-05-16 07:35:32			0	33988	0	0	0	19197	17780	149122	27592	972405	39389	107006	0	0	8142	751789	0	0
2024-05-16 07:36:32			0	33986	0	0	0	19192	17780	148946	27677	972413	39389	107004	0	0	8142	751887	0	0
2024-05-16 07:37:32			0	34014	0	0	0	19194	17790	148926	27478	972395	39368	107005	0	0	8144	750470	0	0
2024-05-16 07:38:32			0	34021	0	0	0	19181	17780	148978	27824	972405	39378	107000	0	0	8144	750167	0	0
2024-05-16 07:39:32			0	34025	0	0	0	19197	17780	148882	27310	972360	39367	107006	0	0	8144	749971	0	0
2024-05-16 07:40:32			0	34033	0	0	0	19186	17790	148850	27277	972448	39378	107002	0	0	8145	749537	0	0
2024-05-16 07:41:32			0	34041	0	0	0	19202	17780	148766	27365	972413	39389	107008	0	0	8145	749185	0	0
2024-05-16 07:42:32			0	34039	0	0	0	19218	17790	148730	27398	972448	39378	107014	0	0	8145	749243	0	0
2024-05-16 07:43:32			0	34036	0	0	0	19207	17790	148694	27135	972448	39368	107010	0	0	8145	749390	0	0
2024-05-16 07:44:32			0	34058	0	0	0	19223	17790	148634	27454	972377	39378	107016	0	0	8146	748311	0	0
2024-05-16 07:45:32			0	34069	0	0	0	19238	17800	148574	27466	972570	39391	107022	0	0	8146	747731	0	0
2024-05-16 07:46:32			0	34081	0	0	0	19246	17790	148558	27291	972474	39390	107025	0	0	8147	747184	0	0
2024-05-16 07:47:32			0	34087	0	0	0	19257	17800	148538	27317	972623	39391	107029	0	0	8147	746850	0	0
2024-05-16 07:48:32			0	34105	0	0	0	19249	17810	148498	27313	972613	39391	107026	0	0	8148	745929	0	0
2024-05-16 07:49:32			0	34101	0	0	0	19238	17810	148490	27156	972560	39391	107022	0	0	8148	746124	0	0
2024-05-16 07:50:32			0	34114	0	0	0	19251	17810	148374	27194	972595	39391	107027	0	0	8149	745489	0	0
2024-05-16 07:51:32			0	34122	0	0	0	19249	17810	148338	27251	972515	39403	107026	0	0	8149	745098	0	0
2024-05-16 07:52:32			0	34142	0	0	0	19257	17820	148342	27308	972558	39393	107029	0	0	8150	744081	0	0
2024-05-16 07:53:32			0	34145	0	0	0	19244	17820	148278	27168	972638	39382	107024	0	0	8151	743935	0	0
2024-05-16 07:54:32			0	34150	0	0	0	19244	17820	148238	27343	972585	39382	107024	0	0	8151	743691	0	0
2024-05-16 07:55:32			0	34144	0	0	0	19249	17830	148214	27128	972672	39372	107026	0	0	8150	743943	0	0
2024-05-16 07:56:32			0	34163	0	0	0	19246	17830	148198	27197	972672	39393	107025	0	0	8152	743017	0	0
2024-05-16 07:57:32			0	34168	0	0	0	19257	17820	148202	27114	972638	39404	107029	0	0	8152	742813	0	0
2024-05-16 07:58:32			0	34159	0	0	0	19259	17830	148222	26974	972628	39394	107030	0	0	8151	743211	0	0
2024-05-16 07:59:32			0	34174	0	0	0	19254	17830	148158	27043	972593	39393	107028	0	0	8152	742480	0	0
2024-05-16 08:00:32			0	34179	0	0	0	19259	17830	148126	27170	972681	39373	107030	0	0	8152	742237	0	0
2024-05-16 08:01:32			0	34182	0	0	0	19254	17830	148174	27462	972681	39383	107028	0	0	8153	742091	0	0
2024-05-16 08:02:32			0	34159	0	0	0	19259	17830	148202	27353	972646	39382	107030	0	0	8151	743211	0	0
2024-05-16 08:03:32			0	34184	0	0	0	19249	17840	148094	27343	972723	39384	107026	0	0	8153	741953	0	0
2024-05-16 08:04:32			0	34186	0	0	0	19251	17840	148114	27227	972723	39395	107027	0	0	8153	741856	0	0
2024-05-16 08:05:32			0	34186	0	0	0	19262	17840	148094	27232	972689	39383	107031	0	0	8153	741856	0	0
2024-05-16 08:06:32			0	34177	0	0	0	19272	17850	148062	27137	972652	39395	107035	0	0	8152	742254	0	0
2024-05-16 08:07:32			0	34196	0	0	0	19264	17850	148070	27339	972679	39416	107032	0	0	8153	741329	0	0
2024-05-16 08:08:32			0	34180	0	0	0	19257	17840	148070	27137	972723	39395	107029	0	0	8152	742148	0	0
2024-05-16 08:09:32			0	34195	0	0	0	19264	17850	148050	27471	972714	39396	107032	0	0	8153	741377	0	0
2024-05-16 08:10:32			0	34207	0	0	0	19264	17840	148130	27443	972644	39406	107032	0	0	8154	740834	0	0
2024-05-16 08:11:32			0	34212	0	0	0	19257	17860	148014	27166	972722	39396	107029	0	0	8154	740510	0	0
2024-05-16 08:12:32			0	34219	0	0	0	19264	17850	148098	27268	972679	39395	107032	0	0	8155	740210	0	0
2024-05-16 08:13:32			0	34210	0	0	0	19262	17850	147918	27144	972740	39396	107031	0	0	8154	740648	0	0
2024-05-16 08:14:32			0	34219	0	0	0	19264	17850	147958	27079	972687	39385	107032	0	0	8155	740210	0	0
2024-05-16 08:15:32			0	34250	0	0	0	19272	17860	147862	27197	972704	39397	107035	0	0	8156	738665	0	0
2024-05-16 08:16:32			0	34245	0	0	0	19270	17860	147782	27255	972730	39397	107034	0	0	8156	738907	0	0
2024-05-16 08:17:32			0	34256	0	0	0	19267	17860	147734	27237	972749	39396	107033	0	0	8157	738374	0	0
2024-05-16 08:18:32			0	34257	0	0	0	19277	17860	147770	27029	972801	39396	107037	0	0	8157	738325	0	0
2024-05-16 08:19:32			0	34264	0	0	0	19275	17860	147690	27069	972783	39385	107036	0	0	8157	737986	0	0
2024-05-16 08:20:32			0	34263	0	0	0	19275	17870	147682	27267	972773	39397	107036	0	0	8157	737994	0	0
2024-05-16 08:21:32			0	34285	0	0	0	19267	17870	147594	27048	972773	39397	107033	0	0	8158	736928	0	0
2024-05-16 08:22:32			0	34288	0	0	0	19275	17880	147582	27326	972782	39386	107036	0	0	8158	736743	0	0
2024-05-16 08:23:32			0	34269	0	0	0	19267	17870	147566	27071	972826	39397	107033	0	0	8157	737703	0	0
2024-05-16 08:24:32			0	34286	0	0	0	19283	17880	147590	27308	972808	39386	107039	0	0	8158	736840	0	0
2024-05-16 08:25:32			0	34290	0	0	0	19272	17860	147526	27121	972749	39396	107035	0	0	8159	736726	0	0
2024-05-16 08:26:32			0	34296	0	0	0	19288	17870	147578	27230	972773	39397	107041	0	0	8159	736396	0	0
2024-05-16 08:27:32			0	34270	0	0	0	19283	17880	147602	27518	972790	39387	107039	0	0	8157	737615	0	0
2024-05-16 08:28:32			0	34281	0	0	0	19277	17860	147618	26998	972783	39408	107037	0	0	8158	737162	0	0
2024-05-16 08:29:32			0	34304	0	0	0	19270	17880	147586	27083	972861	39397	107034	0	0	8159	735968	0	0
2024-05-16 08:30:32			0	34282	0	0	0	19280	17890	147618	27164	972851	39410	107038	0	0	8158	736993	0	0
2024-05-16 08:31:32			0	34286	0	0	0	19275	17880	147530	27114	972755	39386	107036	0	0	8158	736840	0	0
2024-05-16 08:32:32			0	34287	0	0	0	19275	17880	147582	27213	972835	39386	107036	0	0	8158	736791	0	0
2024-05-16 08:33:32			0	34278	0	0	0	19275	17880	147670	27199	972816	39398	107036	0	0	8158	737227	0	0
2024-05-16 08:34:32			0	34270	0	0	0	19277	17880	147666	27338	972835	39386	107037	0	0	8157	737615	0	0
2024-05-16 08:35:32			0	34277	0	0	0	19285	17880	147626	27433	972896	39387	107040	0	0	8158	737276	0	0
2024-05-16 08:36:32			0	34268	0	0	0	19285	17880	147718	27171	972869	39387	107040	0	0	8157	737711	0	0
2024-05-16 08:37:32			0	34277	0	0	0	19293	17890	147626	27222	972825	39399	107043	0	0	8158	737235	0	0
2024-05-16 08:38:32			0	34284	0	0	0	19285	17880	147758	27346	972896	39398	107040	0	0	8158	736936	0	0
2024-05-16 08:39:32			0	34263	0	0	0	19298	17880	147666	27452	972869	39387	107045	0	0	8157	737954	0	0
2024-05-16 08:40:32			0	34260	0	0	0	19285	17880	147662	27033	972816	39409	107040	0	0	8157	738099	0	0
2024-05-16 08:41:32			0	34274	0	0	0	19285	17900	147754	27218	972868	39410	107040	0	0	8158	737341	0	0
2024-05-16 08:42:32			0	34249	0	0	0	19293	17890	147654	27296	972851	39399	107043	0	0	8156	738593	0	0
2024-05-16 08:43:32			0	34258	0	0	0	19296	17890	147730	27203	972878	39399	107044	0	0	8156	738156	0	0
2024-05-16 08:44:32			0	34267	0	0	0	19290	17890	147722	27301	972886	39388	107042	0	0	8157	737720	0	0
2024-05-16 08:45:32			0	34258	0	0	0	19296	17890	147770	27640	972886	39410	107044	0	0	8156	738156	0	0
2024-05-16 08:46:32			0	34267	0	0	0	19301	17900	147738	27445	972894	39410	107046	0	0	8157	737680	0	0
2024-05-16 08:47:32			0	34260	0	0	0	19303	17890	147690	27284	972912	39410	107047	0	0	8156	738059	0	0
2024-05-16 08:48:32			0	34251	0	0	0	19309	17890	147702	27438	972886	39388	107049	0	0	8156	738496	0	0
2024-05-16 08:49:32			0	34243	0	0	0	19301	17900	147690	27286	972955	39400	107046	0	0	8156	738843	0	0
2024-05-16 08:50:32			0	34270	0	0	0	19303	17900	147646	27504	972894	39399	107047	0	0	8157	737534	0	0
2024-05-16 08:51:32			0	34254	0	0	0	19301	17900	147734	27336	972921	39377	107046	0	0	8156	738310	0	0
2024-05-16 08:52:32			0	34257	0	0	0	19314	17910	147746	27492	972963	39401	107051	0	0	8156	738124	0	0
2024-05-16 08:53:32			0	34266	0	0	0	19311	17900	147650	27395	972982	39389	107050	0	0	8157	737728	0	0
2024-05-16 08:54:32			0	34250	0	0	0	19309	17900	147722	27576	972929	39400	107049	0	0	8156	738504	0	0
2024-05-16 08:55:32			0	34258	0	0	0	19319	17920	147666	27182	972945	39390	107053	0	0	8156	738035	0	0
2024-05-16 08:56:32			0	34255	0	0	0	19309	17920	147658	27178	972919	39390	107049	0	0	8156	738181	0	0
2024-05-16 08:57:32			0	34266	0	0	0	19319	17920	147650	27699	972998	39401	107053	0	0	8157	737648	0	0
2024-05-16 08:58:32			0	34264	0	0	0	19322	17910	147582	27391	972937	39401	107054	0	0	8156	737785	0	0
2024-05-16 08:59:32			0	34260	0	0	0	19316	17920	147542	27450	972954	39423	107052	0	0	8156	737939	0	0
2024-05-16 09:00:32			0	34274	0	0	0	19316	17920	147618	27374	972972	39390	107052	0	0	8157	737260	0	0
2024-05-16 09:01:32			0	34269	0	0	0	19322	17920	147630	27294	973006	39402	107054	0	0	8157	737502	0	0
2024-05-16 09:02:32			0	34282	0	0	0	19327	17920	147574	27098	973033	39413	107056	0	0	8157	736873	0	0
2024-05-16 09:03:32			0	34262	0	0	0	19329	17930	147726	27017	973041	39413	107057	0	0	8156	737801	0	0
2024-05-16 09:04:32			0	34272	0	0	0	19329	17930	147722	27170	973049	39414	107057	0	0	8157	737317	0	0
2024-05-16 09:05:32			0	34248	0	0	0	19332	17930	147754	27284	973076	39403	107058	0	0	8155	738480	0	0
2024-05-16 09:06:32			0	34271	0	0	0	19329	17930	147686	27020	973041	39391	107057	0	0	8157	737365	0	0
2024-05-16 09:07:32			0	34277	0	0	0	19332	17930	147670	27268	972988	39391	107058	0	0	8157	737075	0	0
2024-05-16 09:08:32			0	34262	0	0	0	19329	17930	147558	27216	972988	39402	107057	0	0	8156	737801	0	0
2024-05-16 09:09:32			0	34265	0	0	0	19324	17930	147554	27301	973015	39413	107055	0	0	8157	737656	0	0
2024-05-16 09:10:32			0	34244	0	0	0	19335	17940	147670	27478	973005	39415	107059	0	0	8155	738634	0	0
2024-05-16 09:11:32			0	34269	0	0	0	19332	17930	147630	27350	973049	39403	107058	0	0	8157	737462	0	0
2024-05-16 09:12:32			0	34253	0	0	0	19335	17940	147682	27142	973031	39404	107059	0	0	8156	738197	0	0
2024-05-16 09:13:32			0	34255	0	0	0	19327	17940	147682	27355	973031	39404	107056	0	0	8156	738100	0	0
2024-05-16 09:14:32			0	34261	0	0	0	19324	17940	147590	27123	973013	39404	107055	0	0	8156	737809	0	0
2024-05-16 09:15:32			0	34261	0	0	0	19332	17940	147670	27412	973066	39392	107058	0	0	8156	737809	0	0
2024-05-16 09:16:32			0	34265	0	0	0	19345	17940	147646	27575	973031	39392	107063	0	0	8156	737616	0	0
2024-05-16 09:17:32			0	34265	0	0	0	19340	17940	147542	27296	973031	39404	107061	0	0	8156	737616	0	0
2024-05-16 09:18:32			0	34293	0	0	0	19337	17940	147466	27355	973172	39404	107060	0	0	8158	736260	0	0
2024-05-16 09:19:32			0	34299	0	0	0	19340	17950	147466	27192	973101	39392	107061	0	0	8158	735930	0	0
2024-05-16 09:20:32			0	34286	0	0	0	19340	17940	147494	26944	973058	39404	107061	0	0	8158	736599	0	0
2024-05-16 09:21:32			0	34310	0	0	0	19342	17950	147462	27433	973109	39404	107062	0	0	8159	735398	0	0
2024-05-16 09:22:32			0	34291	0	0	0	19350	17940	147438	27048	973145	39392	107065	0	0	8158	736357	0	0
2024-05-16 09:23:32			0	34306	0	0	0	19342	17960	147390	27306	973117	39416	107062	0	0	8159	735551	0	0
2024-05-16 09:24:32			0	34312	0	0	0	19335	17950	147410	27443	973162	39416	107059	0	0	8159	735301	0	0
2024-05-16 09:25:32			0	34323	0	0	0	19350	17950	147322	26935	973162	39404	107065	0	0	8160	734769	0	0
2024-05-16 09:26:32			0	34343	0	0	0	19348	17950	147394	27109	973109	39404	107064	0	0	8161	733804	0	0
2024-05-16 09:27:32			0	34335	0	0	0	19353	17950	147230	27486	973083	39404	107066	0	0	8160	734190	0	0
2024-05-16 09:28:32			0	34353	0	0	0	19348	17950	147343	26972	973109	39416	107064	0	0	8161	733321	0	0
2024-05-16 09:29:32			0	34377	0	0	0	19342	17950	147175	27197	973162	39416	107062	0	0	8163	732164	0	0
2024-05-16 09:30:32			0	34370	0	0	0	19350	17950	147111	27013	973101	39415	107065	0	0	8162	732502	0	0
2024-05-16 09:31:32			0	34393	0	0	0	19353	17950	147111	27166	973188	39404	107066	0	0	8163	731394	0	0
2024-05-16 09:32:32			0	34411	0	0	0	19361	17970	146939	27145	973266	39416	107069	0	0	8164	730448	0	0
2024-05-16 09:33:32			0	34413	0	0	0	19350	17960	146943	27175	973205	39416	107065	0	0	8165	730392	0	0
2024-05-16 09:34:32			0	34432	0	0	0	19353	17960	146815	27201	973223	39405	107066	0	0	8166	729479	0	0
2024-05-16 09:35:32			0	34444	0	0	0	19355	17970	146871	26920	973134	39416	107067	0	0	8166	728862	0	0
2024-05-16 09:36:32			0	34437	0	0	0	19355	17970	146791	27500	973240	39394	107067	0	0	8166	729199	0	0
2024-05-16 09:37:32			0	34469	0	0	0	19358	17950	146827	27088	973188	39393	107068	0	0	8168	727742	0	0
2024-05-16 09:38:32			0	34477	0	0	0	19358	17970	146679	27455	973213	39416	107068	0	0	8168	727280	0	0
2024-05-16 09:39:32			0	34481	0	0	0	19366	17950	146595	27076	973188	39404	107071	0	0	8168	727167	0	0
2024-05-16 09:40:32			0	34475	0	0	0	19361	17970	146707	27286	973195	39406	107069	0	0	8168	727376	0	0
2024-05-16 09:41:32			0	34491	0	0	0	19366	17970	146667	27230	973248	39416	107071	0	0	8169	726609	0	0
2024-05-16 09:42:32			0	34479	0	0	0	19366	17970	146595	27305	973301	39406	107071	0	0	8168	727184	0	0
2024-05-16 09:43:32			0	34494	0	0	0	19384	17970	146699	27163	973301	39406	107078	0	0	8169	726465	0	0
2024-05-16 09:44:32			0	34485	0	0	0	19368	17980	146639	27261	973291	39407	107072	0	0	8169	726857	0	0
2024-05-16 09:45:32			0	34475	0	0	0	19361	17970	146599	27476	973301	39406	107069	0	0	8168	727376	0	0
2024-05-16 09:46:32			0	34474	0	0	0	19371	17980	146671	27232	973309	39417	107073	0	0	8168	727384	0	0
2024-05-16 09:47:32			0	34483	0	0	0	19368	17970	146723	27280	973248	39406	107072	0	0	8168	726992	0	0
2024-05-16 09:48:32			0	34458	0	0	0	19374	17970	146743	27725	973274	39416	107074	0	0	8167	728191	0	0
2024-05-16 09:49:32			0	34462	0	0	0	19376	17990	146703	27479	973326	39417	107075	0	0	8167	727919	0	0
2024-05-16 09:50:32			0	34468	0	0	0	19381	17980	146791	27220	973291	39407	107077	0	0	8167	727671	0	0
2024-05-16 09:51:32			0	34468	0	0	0	19394	17980	146679	27215	973238	39417	107082	0	0	8167	727671	0	0
2024-05-16 09:52:32			0	34457	0	0	0	19394	17980	146819	27384	973344	39407	107082	0	0	8167	728199	0	0
2024-05-16 09:53:32			0	34460	0	0	0	19381	17980	146731	27246	973291	39417	107077	0	0	8167	728055	0	0
2024-05-16 09:54:32			0	34467	0	0	0	19389	17990	146743	27440	973326	39396	107080	0	0	8167	727680	0	0
2024-05-16 09:55:32			0	34457	0	0	0	19402	18000	146759	27594	973342	39409	107085	0	0	8166	728119	0	0
2024-05-16 09:56:32			0	34463	0	0	0	19389	18010	146795	27499	973385	39410	107080	0	0	8167	727792	0	0
2024-05-16 09:57:32			0	34457	0	0	0	19399	18000	146839	27220	973369	39419	107084	0	0	8167	728119	0	0
2024-05-16 09:58:32			0	34464	0	0	0	19397	18000	146675	27284	973342	39409	107083	0	0	8167	727784	0	0
2024-05-16 09:59:32			0	34453	0	0	0	19392	17990	146755	27542	973387	39418	107081	0	0	8166	728351	0	0
2024-05-16 10:00:32			0	34458	0	0	0	19394	18000	146747	27504	973351	39420	107082	0	0	8167	728071	0	0
2024-05-16 10:01:32			0	34453	0	0	0	19399	18010	146735	27537	973491	39398	107084	0	0	8166	728272	0	0
2024-05-16 10:02:32			0	34450	0	0	0	19402	17990	146783	27234	973334	39408	107085	0	0	8166	728495	0	0
2024-05-16 10:03:32			0	34439	0	0	0	19402	17990	146767	27575	973361	39429	107085	0	0	8165	729023	0	0
2024-05-16 10:04:32			0	34444	0	0	0	19405	18000	146783	27182	973342	39419	107086	0	0	8166	728743	0	0
2024-05-16 10:05:32			0	34446	0	0	0	19402	18010	146863	27306	973420	39398	107085	0	0	8166	728608	0	0
2024-05-16 10:06:32			0	34461	0	0	0	19412	17990	146875	27376	973413	39408	107089	0	0	8166	727967	0	0
2024-05-16 10:07:32			0	34427	0	0	0	19423	18010	146839	27453	973385	39420	107093	0	0	8164	729520	0	0
2024-05-16 10:08:32			0	34433	0	0	0	19415	18020	146895	27409	973455	39410	107090	0	0	8165	729192	0	0
2024-05-16 10:09:32			0	34424	0	0	0	19412	18020	146815	27003	973455	39421	107089	0	0	8165	729624	0	0
2024-05-16 10:10:32			0	34424	0	0	0	19420	18010	146831	27313	973499	39410	107092	0	0	8164	729664	0	0
2024-05-16 10:11:32			0	34428	0	0	0	19420	18020	146871	27326	973463	39411	107092	0	0	8165	729432	0	0
2024-05-16 10:12:32			0	34404	0	0	0	19410	18020	146963	27267	973489	39422	107088	0	0	8163	730586	0	0
2024-05-16 10:13:32			0	34408	0	0	0	19412	18030	146923	27365	973445	39400	107089	0	0	8164	730353	0	0
2024-05-16 10:14:32			0	34401	0	0	0	19412	18020	146999	27407	973463	39411	107089	0	0	8163	730730	0	0
2024-05-16 10:15:32			0	34391	0	0	0	19418	18020	147027	27587	973516	39411	107091	0	0	8163	731211	0	0
2024-05-16 10:16:32			0	34412	0	0	0	19418	18030	146987	27460	973506	39422	107091	0	0	8164	730161	0	0
2024-05-16 10:17:32			0	34389	0	0	0	19428	18010	147051	27287	973420	39420	107095	0	0	8162	731347	0	0
2024-05-16 10:18:32			0	34393	0	0	0	19425	18020	147055	27090	973489	39422	107094	0	0	8163	731115	0	0
2024-05-16 10:19:32			0	34392	0	0	0	19431	18020	147035	27142	973516	39411	107096	0	0	8162	731163	0	0
2024-05-16 10:20:32			0	34393	0	0	0	19425	18040	147059	27267	973594	39434	107094	0	0	8163	731035	0	0
2024-05-16 10:21:32			0	34395	0	0	0	19425	18030	147071	27306	973471	39422	107094	0	0	8163	730978	0	0
2024-05-16 10:22:32			0	34368	0	0	0	19418	18030	147147	27256	973480	39422	107091	0	0	8161	732278	0	0
2024-05-16 10:23:32			0	34384	0	0	0	19415	18020	147131	27246	973463	39422	107090	0	0	8162	731548	0	0
2024-05-16 10:24:32			0	34386	0	0	0	19433	18040	147155	27159	973514	39434	107097	0	0	8162	731372	0	0
2024-05-16 10:25:32			0	34377	0	0	0	19441	18030	147075	27171	973506	39411	107100	0	0	8161	731845	0	0
2024-05-16 10:26:32			0	34396	0	0	0	19436	18020	146995	27020	973489	39422	107098	0	0	8163	730970	0	0
2024-05-16 10:27:32			0	34387	0	0	0	19436	18040	146967	27511	973488	39422	107098	0	0	8162	731324	0	0
2024-05-16 10:28:32			0	34399	0	0	0	19438	18040	146967	27119	973575	39434	107099	0	0	8163	730746	0	0
2024-05-16 10:29:32			0	34398	0	0	0	19438	18040	146999	27209	973620	39422	107099	0	0	8163	730794	0	0
2024-05-16 10:30:32			0	34395	0	0	0	19438	18040	146951	27360	973567	39422	107099	0	0	8163	730939	0	0
2024-05-16 10:31:32			0	34395	0	0	0	19446	18040	146979	27443	973567	39434	107102	0	0	8162	730939	0	0
2024-05-16 10:32:32			0	34380	0	0	0	19441	18040	146863	27131	973575	39413	107100	0	0	8162	731660	0	0
2024-05-16 10:33:32			0	34413	0	0	0	19451	18040	146915	27326	973602	39423	107104	0	0	8163	730073	0	0
2024-05-16 10:34:32			0	34408	0	0	0	19470	18050	146919	27319	973592	39434	107111	0	0	8163	730274	0	0
2024-05-16 10:35:32			0	34400	0	0	0	19462	18050	146935	27090	973584	39423	107108	0	0	8162	730658	0	0
2024-05-16 10:36:32			0	34386	0	0	0	19477	18060	146911	27144	973600	39424	107114	0	0	8161	731292	0	0
2024-05-16 10:37:32			0	34373	0	0	0	19467	18070	146947	27405	973696	39437	107110	0	0	8161	731878	0	0
2024-05-16 10:38:32			0	34384	0	0	0	19483	18060	147099	27317	973714	39425	107116	0	0	8161	731388	0	0
2024-05-16 10:39:32			0	34349	0	0	0	19485	18060	147179	27294	973661	39425	107117	0	0	8159	733074	0	0
2024-05-16 10:40:32			0	34342	0	0	0	19480	18070	147190	27313	973757	39437	107115	0	0	8159	733372	0	0
2024-05-16 10:41:32			0	34331	0	0	0	19470	18080	147142	27305	973686	39426	107111	0	0	8159	733862	0	0
2024-05-16 10:42:32			0	34300	0	0	0	19477	18080	147266	27235	973713	39416	107114	0	0	8157	735360	0	0
2024-05-16 10:43:32			0	34318	0	0	0	19477	18080	147322	27326	973766	39426	107114	0	0	8158	734490	0	0
2024-05-16 10:44:32			0	34296	0	0	0	19477	18080	147318	27220	973686	39416	107114	0	0	8156	735553	0	0
2024-05-16 10:45:32			0	34286	0	0	0	19485	18080	147282	27232	973713	39437	107117	0	0	8156	736036	0	0
2024-05-16 10:46:32			0	34279	0	0	0	19475	18080	147458	27315	973747	39427	107113	0	0	8155	736375	0	0
2024-05-16 10:47:32			0	34246	0	0	0	19480	18080	147526	27189	973747	39438	107115	0	0	8154	737973	0	0
2024-05-16 10:48:32			0	34245	0	0	0	19475	18080	147674	27187	973686	39426	107113	0	0	8154	738022	0	0
2024-05-16 10:49:32			0	34220	0	0	0	19472	18090	147770	27530	973729	39439	107112	0	0	8152	739194	0	0
2024-05-16 10:50:32			0	34211	0	0	0	19490	18080	147810	27490	973774	39427	107119	0	0	8151	739671	0	0
2024-05-16 10:51:32			0	34182	0	0	0	19483	18080	147878	27381	973747	39427	107116	0	0	8150	741080	0	0
2024-05-16 10:52:32			0	34165	0	0	0	19490	18090	147822	27348	973764	39439	107119	0	0	8149	741866	0	0
2024-05-16 10:53:32			0	34184	0	0	0	19490	18090	147946	27447	973737	39428	107119	0	0	8150	740942	0	0
2024-05-16 10:54:32			0	34163	0	0	0	19496	18090	147942	27267	973809	39439	107121	0	0	8149	741964	0	0
2024-05-16 10:55:32			0	34173	0	0	0	19480	18090	147962	27154	973809	39439	107115	0	0	8149	741477	0	0
2024-05-16 10:56:32			0	34143	0	0	0	19483	18100	147866	27173	973799	39416	107116	0	0	8148	742897	0	0
2024-05-16 10:57:32			0	34167	0	0	0	19490	18100	147766	27409	973746	39428	107119	0	0	8149	741729	0	0
2024-05-16 10:58:32			0	34183	0	0	0	19501	18100	147862	27246	973825	39428	107123	0	0	8150	740951	0	0
2024-05-16 10:59:32			0	34209	0	0	0	19488	18100	147778	27386	973772	39416	107118	0	0	8151	739687	0	0
2024-05-16 11:00:32			0	34211	0	0	0	19490	18090	147630	27211	973809	39428	107119	0	0	8151	739631	0	0
2024-05-16 11:01:32			0	34237	0	0	0	19496	18100	147586	27379	973754	39428	107121	0	0	8153	738329	0	0
2024-05-16 11:02:32			0	34248	0	0	0	19496	18100	147518	27459	973833	39428	107121	0	0	8153	737796	0	0
2024-05-16 11:03:32			0	34264	0	0	0	19490	18100	147398	27241	973772	39428	107119	0	0	8154	737021	0	0
2024-05-16 11:04:32			0	34270	0	0	0	19485	18100	147418	27267	973860	39417	107117	0	0	8155	736730	0	0
2024-05-16 11:05:32			0	34274	0	0	0	19496	18100	147342	27734	973746	39428	107121	0	0	8155	736537	0	0
2024-05-16 11:06:32			0	34285	0	0	0	19503	18100	147398	27294	973807	39440	107124	0	0	8155	736005	0	0
2024-05-16 11:07:32			0	34289	0	0	0	19509	18110	147314	27388	973816	39418	107126	0	0	8156	735771	0	0
2024-05-16 11:08:32			0	34268	0	0	0	19498	18100	147330	27469	973833	39440	107122	0	0	8155	736827	0	0
2024-05-16 11:09:32			0	34257	0	0	0	19493	18110	147398	27258	973816	39452	107120	0	0	8154	737319	0	0
2024-05-16 11:10:32			0	34246	0	0	0	19516	18110	147494	27268	973868	39418	107129	0	0	8153	737852	0	0
2024-05-16 11:11:32			0	34271	0	0	0	19509	18110	147510	27171	973895	39440	107126	0	0	8155	736642	0	0
2024-05-16 11:12:32			0	34264	0	0	0	19498	18110	147494	27144	973903	39440	107122	0	0	8154	736980	0	0
2024-05-16 11:13:32			0	34245	0	0	0	19493	18120	147470	27182	973885	39440	107120	0	0	8153	737861	0	0
2024-05-16 11:14:32			0	34260	0	0	0	19503	18110	147374	27180	973903	39418	107124	0	0	8154	737174	0	0
2024-05-16 11:15:32			0	34268	0	0	0	19503	18110	147326	27421	973877	39429	107124	0	0	8155	736787	0	0
2024-05-16 11:16:32			0	34276	0	0	0	19514	18120	147338	27471	973911	39418	107128	0	0	8155	736359	0	0
2024-05-16 11:17:32			0	34264	0	0	0	19503	18110	147294	27229	973903	39440	107124	0	0	8154	736980	0	0
2024-05-16 11:18:32			0	34259	0	0	0	19498	18120	147358	27279	973893	39441	107122	0	0	8154	737182	0	0
2024-05-16 11:19:32			0	34275	0	0	0	19503	18120	147438	27429	973885	39429	107124	0	0	8155	736408	0	0
2024-05-16 11:20:32			0	34272	0	0	0	19503	18120	147418	27178	973885	39418	107124	0	0	8155	736553	0	0
2024-05-16 11:21:32			0	34266	0	0	0	19490	18110	147342	27433	973877	39429	107119	0	0	8155	736884	0	0
2024-05-16 11:22:32			0	34271	0	0	0	19485	18120	147362	27216	973920	39430	107117	0	0	8155	736601	0	0
2024-05-16 11:23:32			0	34266	0	0	0	19483	18120	147434	27441	973885	39418	107116	0	0	8155	736844	0	0
2024-05-16 11:24:32			0	34282	0	0	0	19496	18110	147370	27066	973895	39429	107121	0	0	8155	736109	0	0
2024-05-16 11:25:32			0	34287	0	0	0	19498	18120	147218	27251	973859	39440	107122	0	0	8156	735827	0	0
2024-05-16 11:26:32			0	34280	0	0	0	19490	18110	147250	27317	973868	39429	107119	0	0	8155	736206	0	0
2024-05-16 11:27:32			0	34291	0	0	0	19490	18120	147286	27319	973806	39440	107119	0	0	8156	735634	0	0
2024-05-16 11:28:32			0	34301	0	0	0	19490	18110	147270	27147	973824	39418	107119	0	0	8157	735191	0	0
2024-05-16 11:29:32			0	34313	0	0	0	19501	18110	147250	27203	973868	39418	107123	0	0	8157	734611	0	0
2024-05-16 11:30:32			0	34303	0	0	0	19503	18120	147170	27177	973859	39440	107124	0	0	8157	735054	0	0
2024-05-16 11:31:32			0	34314	0	0	0	19498	18110	147254	27211	973868	39429	107122	0	0	8157	734563	0	0
2024-05-16 11:32:32			0	34321	0	0	0	19503	18110	147118	27199	973877	39429	107124	0	0	8158	734225	0	0
2024-05-16 11:33:32			0	34345	0	0	0	19496	18110	147171	27020	973842	39429	107121	0	0	8159	733067	0	0
2024-05-16 11:34:32			0	34350	0	0	0	19488	18110	147126	27147	973816	39429	107118	0	0	8159	732826	0	0
2024-05-16 11:35:32			0	34368	0	0	0	19485	18110	147083	27242	973877	39452	107117	0	0	8161	731959	0	0
2024-05-16 11:36:32			0	34348	0	0	0	19485	18120	147098	27339	973859	39440	107117	0	0	8159	732883	0	0
2024-05-16 11:37:32			0	34359	0	0	0	19490	18110	147111	26887	973868	39429	107119	0	0	8160	732392	0	0
2024-05-16 11:38:32			0	34350	0	0	0	19483	18100	147026	27204	973754	39428	107116	0	0	8159	732866	0	0
2024-05-16 11:39:32			0	34364	0	0	0	19485	18110	147111	27138	973842	39429	107117	0	0	8160	732152	0	0
2024-05-16 11:40:32			0	34352	0	0	0	19485	18110	146986	27194	973842	39418	107117	0	0	8160	732730	0	0
2024-05-16 11:41:32			0	34371	0	0	0	19483	18100	147063	27093	973886	39428	107116	0	0	8161	731854	0	0
2024-05-16 11:42:32			0	34374	0	0	0	19483	18090	147011	27317	973790	39416	107116	0	0	8161	731750	0	0
2024-05-16 11:43:32			0	34349	0	0	0	19493	18110	147011	26793	973789	39429	107120	0	0	8159	732874	0	0
2024-05-16 11:44:32			0	34346	0	0	0	19498	18100	147083	27114	973852	39416	107122	0	0	8159	733059	0	0
2024-05-16 11:45:32			0	34364	0	0	0	19503	18110	147063	27175	973895	39440	107124	0	0	8160	732152	0	0
2024-05-16 11:46:32			0	34357	0	0	0	19501	18110	146986	27121	973930	39429	107123	0	0	8160	732489	0	0
2024-05-16 11:47:32			0	34362	0	0	0	19496	18110	147019	26987	973850	39429	107121	0	0	8160	732248	0	0
2024-05-16 11:48:32			0	34372	0	0	0	19493	18100	146959	27694	973807	39407	107120	0	0	8161	731806	0	0
2024-05-16 11:49:32			0	34370	0	0	0	19490	18110	146963	27126	973877	39429	107119	0	0	8161	731863	0	0
2024-05-16 11:50:32			0	34378	0	0	0	19488	18110	147027	27490	973877	39429	107118	0	0	8161	731477	0	0
2024-05-16 11:51:32			0	34358	0	0	0	19506	18120	146986	26958	973885	39429	107125	0	0	8160	732400	0	0
2024-05-16 11:52:32			0	34343	0	0	0	19498	18100	147006	27377	973860	39428	107122	0	0	8159	733204	0	0
2024-05-16 11:53:32			0	34353	0	0	0	19493	18120	147003	27010	973911	39429	107120	0	0	8160	732642	0	0
2024-05-16 11:54:32			0	34335	0	0	0	19493	18100	147122	27119	973825	39439	107120	0	0	8158	733589	0	0
2024-05-16 11:55:32			0	34334	0	0	0	19514	18120	147106	27267	973911	39429	107128	0	0	8158	733558	0	0
2024-05-16 11:56:32			0	34335	0	0	0	19493	18100	147078	27300	973913	39428	107120	0	0	8158	733589	0	0
2024-05-16 11:57:32			0	34338	0	0	0	19511	18120	147062	27112	973964	39418	107127	0	0	8158	733365	0	0
2024-05-16 11:58:32			0	34356	0	0	0	19498	18110	146963	27130	973824	39429	107122	0	0	8160	732537	0	0
2024-05-16 11:59:32			0	34355	0	0	0	19506	18120	146895	27095	973885	39429	107125	0	0	8159	732545	0	0
2024-05-16 12:00:32			0	34392	0	0	0	19496	18110	146767	27317	973877	39429	107121	0	0	8162	730804	0	0
2024-05-16 12:01:32			0	34395	0	0	0	19509	18120	146763	27164	973893	39430	107126	0	0	8162	730620	0	0
2024-05-16 12:02:32			0	34439	0	0	0	19498	18110	146639	26946	973930	39440	107122	0	0	8164	728546	0	0
2024-05-16 12:03:32			0	34440	0	0	0	19498	18120	146543	26909	973938	39429	107122	0	0	8164	728458	0	0
2024-05-16 12:04:32			0	34456	0	0	0	19509	18110	146603	27131	973903	39429	107126	0	0	8165	727730	0	0
2024-05-16 12:05:32			0	34453	0	0	0	19503	18120	146587	27010	973840	39441	107124	0	0	8165	727835	0	0
2024-05-16 12:06:32			0	34438	0	0	0	19519	18120	146507	27150	973938	39440	107130	0	0	8164	728554	0	0
2024-05-16 12:07:32			0	34433	0	0	0	19527	18120	146595	27319	973999	39441	107133	0	0	8164	728794	0	0
2024-05-16 12:08:32			0	34449	0	0	0	19535	18120	146579	27481	973964	39440	107136	0	0	8164	728026	0	0
2024-05-16 12:09:32			0	34445	0	0	0	19514	18120	146575	26939	974017	39429	107128	0	0	8164	728218	0	0
2024-05-16 12:10:32			0	34467	0	0	0	19519	18130	146583	27220	974016	39432	107130	0	0	8166	727124	0	0
2024-05-16 12:11:32			0	34480	0	0	0	19506	18130	146467	27268	973981	39420	107125	0	0	8167	726502	0	0
2024-05-16 12:12:32			0	34483	0	0	0	19506	18130	146451	27066	973875	39420	107125	0	0	8167	726358	0	0
2024-05-16 12:13:32			0	34514	0	0	0	19506	18120	146363	27317	973893	39430	107125	0	0	8168	724915	0	0
2024-05-16 12:14:32			0	34509	0	0	0	19516	18120	146307	27118	973920	39441	107129	0	0	8168	725154	0	0
2024-05-16 12:15:32			0	34512	0	0	0	19516	18120	146431	27390	973999	39441	107129	0	0	8168	725010	0	0
2024-05-16 12:16:32			0	34519	0	0	0	19501	18120	146327	27209	973946	39430	107123	0	0	8169	724676	0	0
2024-05-16 12:17:32			0	34545	0	0	0	19485	18120	146259	27390	973946	39430	107117	0	0	8171	723434	0	0
2024-05-16 12:18:32			0	34524	0	0	0	19493	18120	146303	27000	973859	39429	107120	0	0	8169	724437	0	0
2024-05-16 12:19:32			0	34524	0	0	0	19488	18120	146287	27048	973946	39441	107118	0	0	8169	724437	0	0
2024-05-16 12:20:32			0	34512	0	0	0	19488	18110	146327	27313	973895	39418	107118	0	0	8169	725050	0	0
2024-05-16 12:21:32			0	34514	0	0	0	19490	18120	146283	27343	973867	39419	107119	0	0	8169	724915	0	0
2024-05-16 12:22:32			0	34516	0	0	0	19506	18110	146251	27576	973903	39429	107125	0	0	8169	724859	0	0
2024-05-16 12:23:32			0	34507	0	0	0	19483	18120	146379	27324	973859	39452	107116	0	0	8168	725249	0	0
2024-05-16 12:24:32			0	34504	0	0	0	19493	18110	146367	27595	973877	39418	107120	0	0	8168	725432	0	0
2024-05-16 12:25:32			0	34508	0	0	0	19496	18110	146459	27206	973903	39429	107121	0	0	8168	725241	0	0
2024-05-16 12:26:32			0	34470	0	0	0	19488	18120	146519	27336	973911	39429	107118	0	0	8166	727020	0	0
2024-05-16 12:27:32			0	34478	0	0	0	19480	18110	146559	27066	973824	39429	107115	0	0	8167	726677	0	0
2024-05-16 12:28:32			0	34475	0	0	0	19493	18100	146535	27135	973833	39428	107120	0	0	8166	726860	0	0
2024-05-16 12:29:32			0	34483	0	0	0	19498	18110	146471	27293	973895	39440	107122	0	0	8167	726437	0	0
2024-05-16 12:30:32			0	34469	0	0	0	19483	18110	146607	27147	973895	39418	107116	0	0	8166	727108	0	0
2024-05-16 12:31:32			0	34475	0	0	0	19477	18100	146495	27289	973807	39417	107114	0	0	8167	726860	0	0
2024-05-16 12:32:32			0	34472	0	0	0	19477	18110	146511	27322	973956	39429	107114	0	0	8167	726964	0	0
2024-05-16 12:33:32			0	34477	0	0	0	19490	18100	146539	27341	973781	39440	107119	0	0	8167	726764	0	0
2024-05-16 12:34:32			0	34470	0	0	0	19483	18100	146507	27479	973852	39416	107116	0	0	8166	727099	0	0
2024-05-16 12:35:32			0	34495	0	0	0	19483	18100	146447	27036	973860	39428	107116	0	0	8168	725902	0	0
2024-05-16 12:36:32			0	34494	0	0	0	19493	18110	146455	27261	973763	39440	107120	0	0	8168	725911	0	0
2024-05-16 12:37:32			0	34488	0	0	0	19498	18110	146403	27319	973877	39440	107122	0	0	8167	726198	0	0
2024-05-16 12:38:32			0	34499	0	0	0	19490	18100	146331	27388	973886	39440	107119	0	0	8168	725711	0	0
2024-05-16 12:39:32			0	34509	0	0	0	19501	18110	146399	27173	973895	39440	107123	0	0	8168	725193	0	0
2024-05-16 12:40:32			0	34496	0	0	0	19485	18100	146347	27272	973825	39450	107117	0	0	8168	725855	0	0
2024-05-16 12:41:32			0	34492	0	0	0	19496	18110	146355	27474	973903	39440	107121	0	0	8167	726006	0	0
2024-05-16 12:42:32			0	34499	0	0	0	19477	18110	146419	27159	973868	39440	107114	0	0	8168	725671	0	0
2024-05-16 12:43:32			0	34458	0	0	0	19490	18110	146471	27338	973789	39429	107119	0	0	8166	727635	0	0
2024-05-16 12:44:32			0	34448	0	0	0	19472	18100	146575	27445	973781	39428	107112	0	0	8165	728154	0	0
2024-05-16 12:45:32			0	34468	0	0	0	19477	18090	146639	27341	973843	39428	107114	0	0	8166	727235	0	0
2024-05-16 12:46:32			0	34440	0	0	0	19470	18100	146547	27620	973825	39439	107111	0	0	8165	728538	0	0
2024-05-16 12:47:32			0	34443	0	0	0	19472	18100	146631	27332	973799	39428	107112	0	0	8165	728394	0	0
2024-05-16 12:48:32			0	34437	0	0	0	19472	18100	146671	27495	973772	39428	107112	0	0	8165	728682	0	0
2024-05-16 12:49:32			0	34464	0	0	0	19477	18090	146547	27395	973790	39428	107114	0	0	8166	727426	0	0
2024-05-16 12:50:32			0	34469	0	0	0	19490	18090	146507	27327	973809	39428	107119	0	0	8166	727187	0	0
2024-05-16 12:51:32			0	34496	0	0	0	19485	18100	146471	27149	973852	39439	107117	0	0	8168	725855	0	0
2024-05-16 12:52:32			0	34514	0	0	0	19485	18090	146323	27776	973843	39450	107117	0	0	8169	725033	0	0
2024-05-16 12:53:32			0	34553	0	0	0	19496	18090	146315	27448	973817	39439	107121	0	0	8171	723171	0	0
2024-05-16 12:54:32			0	34548	0	0	0	19493	18100	146127	27549	973878	39428	107120	0	0	8171	723370	0	0
2024-05-16 12:55:32			0	34574	0	0	0	19490	18090	146067	27519	973896	39439	107119	0	0	8172	722169	0	0
2024-05-16 12:56:32			0	34595	0	0	0	19483	18100	146079	27509	973878	39428	107116	0	0	8173	721130	0	0
2024-05-16 12:57:32			0	34610	0	0	0	19488	18100	145979	27691	973878	39428	107118	0	0	8174	720416	0	0
2024-05-16 12:58:32			0	34603	0	0	0	19480	18100	145987	27473	973799	39439	107115	0	0	8174	720749	0	0
2024-05-16 12:59:32			0	34618	0	0	0	19462	18100	145979	27639	973860	39428	107108	0	0	8175	720035	0	0
2024-05-16 13:00:32			0	34632	0	0	0	19485	18090	145855	27341	973790	39439	107117	0	0	8175	719409	0	0
2024-05-16 13:01:32			0	34620	0	0	0	19483	18090	145915	27698	973843	39428	107116	0	0	8175	719980	0	0
2024-05-16 13:02:32			0	34619	0	0	0	19475	18100	145907	27633	973886	39440	107113	0	0	8175	719988	0	0
2024-05-16 13:03:32			0	34622	0	0	0	19470	18100	145939	27308	973799	39428	107111	0	0	8175	719845	0	0
2024-05-16 13:04:32			0	34634	0	0	0	19480	18090	145927	27239	973790	39439	107115	0	0	8176	719314	0	0
2024-05-16 13:05:32			0	34613	0	0	0	19472	18090	145931	27635	973809	39439	107112	0	0	8174	720313	0	0
2024-05-16 13:06:32			0	34622	0	0	0	19475	18090	145967	27452	973843	39428	107113	0	0	8175	719884	0	0
2024-05-16 13:07:32			0	34618	0	0	0	19488	18100	146051	27606	973825	39428	107118	0	0	8175	720035	0	0
2024-05-16 13:08:32			0	34607	0	0	0	19480	18080	145975	27635	973774	39427	107115	0	0	8174	720637	0	0
2024-05-16 13:09:32			0	34616	0	0	0	19490	18090	145899	27488	973843	39428	107119	0	0	8174	720170	0	0
2024-05-16 13:10:32			0	34606	0	0	0	19480	18100	145995	27493	973807	39428	107115	0	0	8174	720606	0	0
2024-05-16 13:11:32			0	34600	0	0	0	19483	18100	145999	27694	973799	39428	107116	0	0	8174	720892	0	0
2024-05-16 13:12:32			0	34613	0	0	0	19480	18100	145975	27372	973860	39440	107115	0	0	8174	720273	0	0
2024-05-16 13:13:32			0	34635	0	0	0	19485	18090	145991	27293	973843	39439	107117	0	0	8176	719267	0	0
2024-05-16 13:14:32			0	34607	0	0	0	19503	18100	145983	27435	973852	39416	107124	0	0	8174	720559	0	0
2024-05-16 13:15:32			0	34630	0	0	0	19498	18100	146015	27300	973878	39439	107122	0	0	8175	719465	0	0
2024-05-16 13:16:32			0	34630	0	0	0	19485	18100	145967	27324	973852	39428	107117	0	0	8175	719465	0	0
2024-05-16 13:17:32			0	34627	0	0	0	19496	18090	145867	27729	973870	39428	107121	0	0	8175	719647	0	0
2024-05-16 13:18:32			0	34617	0	0	0	19493	18100	145947	27308	973886	39428	107120	0	0	8174	720083	0	0
2024-05-16 13:19:32			0	34624	0	0	0	19483	18100	146003	27336	973860	39428	107116	0	0	8175	719750	0	0
2024-05-16 13:20:32			0	34627	0	0	0	19511	18110	145971	27303	973868	39429	107127	0	0	8175	719568	0	0
2024-05-16 13:21:32			0	34624	0	0	0	19496	18100	145875	27197	973860	39451	107121	0	0	8175	719750	0	0
2024-05-16 13:22:32			0	34641	0	0	0	19506	18110	145827	27409	973921	39418	107125	0	0	8176	718903	0	0
2024-05-16 13:23:32			0	34662	0	0	0	19498	18100	145815	27300	973833	39451	107122	0	0	8177	717945	0	0
2024-05-16 13:24:32			0	34645	0	0	0	19503	18110	145819	27246	973842	39429	107124	0	0	8176	718713	0	0
2024-05-16 13:25:32			0	34664	0	0	0	19506	18100	145795	27472	973913	39428	107125	0	0	8177	717850	0	0
2024-05-16 13:26:32			0	34670	0	0	0	19519	18110	145723	27452	973850	39429	107130	0	0	8177	717527	0	0
2024-05-16 13:27:32			0	34705	0	0	0	19527	18120	145675	27416	974026	39430	107133	0	0	8179	715829	0	0
2024-05-16 13:28:32			0	34691	0	0	0	19514	18110	145739	27104	973956	39429	107128	0	0	8178	716531	0	0
2024-05-16 13:29:32			0	34699	0	0	0	19511	18110	145771	27414	973903	39418	107127	0	0	8179	716152	0	0
2024-05-16 13:30:32			0	34685	0	0	0	19501	18110	145699	27216	973930	39429	107123	0	0	8178	716816	0	0
2024-05-16 13:31:32			0	34671	0	0	0	19519	18120	145839	27000	973946	39441	107130	0	0	8177	717440	0	0
2024-05-16 13:32:32			0	34685	0	0	0	19514	18120	145783	27519	973973	39441	107128	0	0	8178	716777	0	0
2024-05-16 13:33:32			0	34656	0	0	0	19503	18120	145887	27332	973920	39430	107124	0	0	8177	718152	0	0
2024-05-16 13:34:32			0	34660	0	0	0	19514	18110	145927	27215	973982	39429	107128	0	0	8177	718001	0	0
2024-05-16 13:35:32			0	34650	0	0	0	19535	18120	145955	27384	973991	39429	107136	0	0	8176	718436	0	0
2024-05-16 13:36:32			0	34618	0	0	0	19535	18130	146027	27379	974060	39431	107136	0	0	8174	719917	0	0
2024-05-16 13:37:32			0	34574	0	0	0	19535	18140	146163	27635	974050	39432	107136	0	0	8171	721972	0	0
2024-05-16 13:38:32			0	34489	0	0	0	19516	18130	146427	27308	974007	39431	107129	0	0	8167	726071	0	0
2024-05-16 13:39:32			0	34464	0	0	0	19519	18140	146515	27348	973971	39432	107130	0	0	8166	727228	0	0
2024-05-16 13:40:32			0	34408	0	0	0	19532	18140	146951	27261	973997	39432	107135	0	0	8162	729915	0	0
2024-05-16 13:41:32			0	34384	0	0	0	19532	18130	147091	27402	974016	39432	107135	0	0	8161	731109	0	0
2024-05-16 13:42:32			0	34348	0	0	0	19535	18140	147183	27341	973997	39432	107136	0	0	8159	732803	0	0
2024-05-16 13:43:32			0	34293	0	0	0	19545	18130	147418	27194	974042	39443	107140	0	0	8155	735497	0	0
2024-05-16 13:44:32			0	34259	0	0	0	19540	18140	147518	27528	974085	39454	107138	0	0	8154	737102	0	0
2024-05-16 13:45:32			0	34235	0	0	0	19545	18140	147630	27307	974085	39432	107140	0	0	8152	738265	0	0
2024-05-16 13:46:32			0	34211	0	0	0	19555	18140	147698	27166	974085	39454	107144	0	0	8151	739429	0	0
2024-05-16 13:47:32			0	34231	0	0	0	19561	18150	147638	27415	974093	39444	107146	0	0	8152	738418	0	0
2024-05-16 13:48:32			0	34217	0	0	0	19550	18150	147662	27225	974067	39444	107142	0	0	8151	739097	0	0
2024-05-16 13:49:32			0	34216	0	0	0	19537	18150	147658	27471	974154	39445	107137	0	0	8151	739146	0	0
2024-05-16 13:50:32			0	34221	0	0	0	19550	18140	147606	27182	974059	39443	107142	0	0	8151	738944	0	0
2024-05-16 13:51:32			0	34211	0	0	0	19548	18150	147606	27670	974067	39433	107141	0	0	8151	739388	0	0
2024-05-16 13:52:32			0	34244	0	0	0	19553	18150	147670	27277	974102	39445	107143	0	0	8153	737788	0	0
2024-05-16 13:53:32			0	34271	0	0	0	19555	18150	147534	27398	974075	39445	107144	0	0	8154	736481	0	0
2024-05-16 13:54:32			0	34273	0	0	0	19561	18150	147426	27483	974154	39434	107146	0	0	8154	736384	0	0
2024-05-16 13:55:32			0	34287	0	0	0	19561	18150	147458	27786	974128	39422	107146	0	0	8155	735707	0	0
2024-05-16 13:56:32			0	34281	0	0	0	19563	18160	147334	27407	974163	39445	107147	0	0	8154	735957	0	0
2024-05-16 13:57:32			0	34313	0	0	0	19566	18160	147326	27498	974216	39445	107148	0	0	8156	734411	0	0
2024-05-16 13:58:32			0	34302	0	0	0	19558	18170	147310	27611	974153	39435	107145	0	0	8156	734902	0	0
2024-05-16 13:59:32			0	34293	0	0	0	19571	18160	147218	27417	974171	39434	107150	0	0	8155	735377	0	0
2024-05-16 14:00:32			0	34304	0	0	0	19581	18170	147262	27447	974126	39446	107154	0	0	8156	734805	0	0
2024-05-16 14:01:32			0	34320	0	0	0	19581	18170	147278	27329	974188	39447	107154	0	0	8156	734033	0	0
2024-05-16 14:02:32			0	34326	0	0	0	19581	18170	147178	27225	974232	39435	107154	0	0	8157	733743	0	0
2024-05-16 14:03:32			0	34318	0	0	0	19586	18170	147250	27440	974153	39446	107156	0	0	8156	734129	0	0
2024-05-16 14:04:32			0	34317	0	0	0	19592	18180	147278	27024	974275	39447	107158	0	0	8156	734137	0	0
2024-05-16 14:05:32			0	34321	0	0	0	19592	18190	147194	27038	974274	39458	107158	0	0	8156	733904	0	0
2024-05-16 14:06:32			0	34305	0	0	0	19599	18190	147290	26956	974274	39458	107161	0	0	8155	734677	0	0
2024-05-16 14:07:32			0	34297	0	0	0	19592	18200	147318	27152	974335	39448	107158	0	0	8155	735023	0	0
2024-05-16 14:08:32			0	34320	0	0	0	19597	18180	147214	27053	974257	39447	107160	0	0	8156	733993	0	0
2024-05-16 14:09:32			0	34309	0	0	0	19612	18200	147150	27360	974282	39458	107166	0	0	8155	734444	0	0
2024-05-16 14:10:32			0	34308	0	0	0	19615	18190	147142	27417	974274	39437	107167	0	0	8155	734532	0	0
2024-05-16 14:11:32			0	34300	0	0	0	19615	18200	147178	27079	974308	39458	107167	0	0	8155	734878	0	0
2024-05-16 14:12:32			0	34305	0	0	0	19605	18200	147202	26961	974308	39458	107163	0	0	8155	734637	0	0
2024-05-16 14:13:32			0	34306	0	0	0	19620	18200	147274	27296	974343	39449	107169	0	0	8155	734588	0	0
2024-05-16 14:14:32			0	34305	0	0	0	19615	18210	147114	27085	974325	39449	107167	0	0	8155	734597	0	0
2024-05-16 14:15:32			0	34308	0	0	0	19615	18210	147042	26984	974404	39449	107167	0	0	8155	734452	0	0
2024-05-16 14:16:32			0	34333	0	0	0	19620	18220	146978	27189	974368	39461	107169	0	0	8157	733205	0	0
2024-05-16 14:17:32			0	34324	0	0	0	19612	18220	147030	27126	974307	39439	107166	0	0	8156	733639	0	0
2024-05-16 14:18:32			0	34352	0	0	0	19623	18220	146943	27114	974368	39472	107170	0	0	8158	732290	0	0
2024-05-16 14:19:32			0	34347	0	0	0	19610	18220	147135	27118	974368	39451	107165	0	0	8158	732531	0	0
2024-05-16 14:20:32			0	34345	0	0	0	19602	18230	147058	27310	974376	39451	107162	0	0	8158	732587	0	0
2024-05-16 14:21:32			0	34335	0	0	0	19623	18230	147086	27313	974385	39461	107170	0	0	8157	733069	0	0
2024-05-16 14:22:32			0	34359	0	0	0	19620	18230	146986	27287	974350	39440	107169	0	0	8158	731913	0	0
2024-05-16 14:23:32			0	34363	0	0	0	19615	18240	146979	27144	974375	39441	107167	0	0	8159	731680	0	0
2024-05-16 14:24:32			0	34345	0	0	0	19612	18220	146982	27211	974368	39451	107166	0	0	8158	732627	0	0
2024-05-16 14:25:32			0	34351	0	0	0	19615	18230	146963	27121	974323	39440	107167	0	0	8158	732298	0	0
2024-05-16 14:26:32			0	34351	0	0	0	19612	18220	146983	27395	974394	39461	107166	0	0	8158	732338	0	0
2024-05-16 14:27:32			0	34333	0	0	0	19612	18220	147042	27048	974421	39440	107166	0	0	8157	733205	0	0
2024-05-16 14:28:32			0	34332	0	0	0	19612	18230	147106	27268	974403	39461	107166	0	0	8157	733214	0	0
2024-05-16 14:29:32			0	34350	0	0	0	19620	18230	147059	27244	974403	39440	107169	0	0	8158	732346	0	0
2024-05-16 14:30:32			0	34310	0	0	0	19623	18220	147062	27017	974368	39461	107170	0	0	8155	734315	0	0
2024-05-16 14:31:32			0	34322	0	0	0	19623	18240	147038	27124	974367	39462	107170	0	0	8156	733656	0	0
2024-05-16 14:32:32			0	34336	0	0	0	19623	18240	146958	27183	974454	39453	107170	0	0	8157	732981	0	0
2024-05-16 14:33:32			0	34334	0	0	0	19620	18240	147030	27374	974428	39453	107169	0	0	8157	733077	0	0
2024-05-16 14:34:32			0	34335	0	0	0	19623	18230	146958	26826	974429	39461	107170	0	0	8157	733069	0	0
2024-05-16 14:35:32			0	34305	0	0	0	19615	18230	147102	27242	974403	39440	107167	0	0	8155	734516	0	0
2024-05-16 14:36:32			0	34279	0	0	0	19628	18230	147198	27232	974438	39440	107172	0	0	8154	735772	0	0
2024-05-16 14:37:32			0	34292	0	0	0	19612	18230	147274	27569	974411	39451	107166	0	0	8155	735144	0	0
2024-05-16 14:38:32			0	34307	0	0	0	19618	18230	147174	27282	974464	39461	107168	0	0	8155	734420	0	0
2024-05-16 14:39:32			0	34321	0	0	0	19618	18240	147098	27267	974420	39452	107168	0	0	8156	733704	0	0
2024-05-16 14:40:32			0	34341	0	0	0	19628	18230	147062	27599	974385	39451	107172	0	0	8157	732780	0	0
2024-05-16 14:41:32			0	34343	0	0	0	19641	18230	146966	27256	974464	39461	107177	0	0	8157	732684	0	0
2024-05-16 14:42:32			0	34366	0	0	0	19636	18240	146879	27727	974472	39452	107175	0	0	8158	731536	0	0
2024-05-16 14:43:32			0	34375	0	0	0	19633	18240	146831	27436	974499	39462	107174	0	0	8159	731103	0	0
2024-05-16 14:44:32			0	34375	0	0	0	19625	18240	146743	27206	974428	39453	107171	0	0	8159	731103	0	0
2024-05-16 14:45:32			0	34377	0	0	0	19628	18240	146839	27194	974420	39441	107172	0	0	8159	731007	0	0
2024-05-16 14:46:32			0	34367	0	0	0	19636	18240	146911	27383	974472	39452	107175	0	0	8159	731488	0	0
2024-05-16 14:47:32			0	34339	0	0	0	19631	18230	146950	27237	974438	39461	107173	0	0	8157	732876	0	0
2024-05-16 14:48:32			0	34341	0	0	0	19628	18230	146974	27497	974438	39461	107172	0	0	8157	732780	0	0
2024-05-16 14:49:32			0	34345	0	0	0	19633	18230	147062	27377	974411	39451	107174	0	0	8157	732587	0	0
2024-05-16 14:50:32			0	34326	0	0	0	19641	18240	147158	27128	974420	39462	107177	0	0	8156	733463	0	0
2024-05-16 14:51:32			0	34322	0	0	0	19631	18250	147074	27383	974463	39453	107173	0	0	8156	733616	0	0
2024-05-16 14:52:32			0	34288	0	0	0	19623	18240	147098	27578	974401	39463	107170	0	0	8154	735297	0	0
2024-05-16 14:53:32			0	34305	0	0	0	19625	18250	147198	27339	974463	39453	107171	0	0	8155	734436	0	0
2024-05-16 14:54:32			0	34317	0	0	0	19618	18250	147146	27471	974463	39463	107168	0	0	8156	733857	0	0
2024-05-16 14:55:32			0	34317	0	0	0	19625	18240	147050	27232	974472	39462	107171	0	0	8156	733897	0	0
2024-05-16 14:56:32			0	34306	0	0	0	19618	18240	147106	27074	974481	39453	107168	0	0	8155	734428	0	0
2024-05-16 14:57:32			0	34301	0	0	0	19618	18230	147154	27315	974438	39451	107168	0	0	8155	734710	0	0
2024-05-16 14:58:32			0	34273	0	0	0	19620	18240	147102	27287	974446	39441	107169	0	0	8153	736022	0	0
2024-05-16 14:59:32			0	34259	0	0	0	19618	18240	147162	27267	974454	39463	107168	0	0	8153	736700	0	0
2024-05-16 15:00:32			0	34257	0	0	0	19628	18240	147310	27267	974472	39462	107172	0	0	8152	736796	0	0
2024-05-16 15:01:32			0	34251	0	0	0	19628	18240	147322	27118	974428	39453	107172	0	0	8152	737087	0	0
2024-05-16 15:02:32			0	34233	0	0	0	19633	18240	147370	27459	974499	39441	107174	0	0	8151	737959	0	0
2024-05-16 15:03:32			0	34243	0	0	0	19623	18240	147446	27142	974454	39453	107170	0	0	8152	737474	0	0
2024-05-16 15:04:32			0	34242	0	0	0	19631	18230	147418	26932	974464	39451	107173	0	0	8151	737563	0	0
2024-05-16 15:05:32			0	34221	0	0	0	19625	18240	147362	27128	974499	39462	107171	0	0	8150	738540	0	0
2024-05-16 15:06:32			0	34232	0	0	0	19623	18240	147482	27216	974472	39452	107170	0	0	8151	738007	0	0
2024-05-16 15:07:32			0	34223	0	0	0	19625	18240	147430	27255	974499	39462	107171	0	0	8151	738443	0	0
2024-05-16 15:08:32			0	34219	0	0	0	19641	18240	147350	27248	974428	39463	107177	0	0	8150	738637	0	0
2024-05-16 15:09:32			0	34225	0	0	0	19646	18230	147442	27447	974517	39440	107179	0	0	8150	738387	0	0
2024-05-16 15:10:32			0	34240	0	0	0	19636	18250	147446	27443	974542	39463	107175	0	0	8151	737579	0	0
2024-05-16 15:11:32			0	34234	0	0	0	19625	18240	147362	27003	974481	39463	107171	0	0	8151	737910	0	0
2024-05-16 15:12:32			0	34217	0	0	0	19631	18250	147394	27107	974463	39453	107173	0	0	8150	738694	0	0
2024-05-16 15:13:32			0	34230	0	0	0	19625	18240	147370	27152	974472	39462	107171	0	0	8151	738104	0	0
2024-05-16 15:14:32			0	34236	0	0	0	19610	18240	147298	27533	974481	39463	107165	0	0	8152	737813	0	0
2024-05-16 15:15:32			0	34256	0	0	0	19607	18240	147362	27317	974454	39453	107164	0	0	8153	736845	0	0
2024-05-16 15:16:32			0	34249	0	0	0	19615	18230	147394	27135	974411	39451	107167	0	0	8152	737224	0	0
2024-05-16 15:17:32			0	34270	0	0	0	19610	18230	147386	27213	974385	39472	107165	0	0	8153	736208	0	0
2024-05-16 15:18:32			0	34253	0	0	0	19607	18230	147334	27369	974438	39461	107164	0	0	8152	737030	0	0
2024-05-16 15:19:32			0	34233	0	0	0	19612	18240	147426	27317	974446	39452	107166	0	0	8151	737959	0	0
2024-05-16 15:20:32			0	34207	0	0	0	19605	18230	147438	27481	974429	39461	107163	0	0	8150	739260	0	0
2024-05-16 15:21:32			0	34205	0	0	0	19607	18230	147562	27142	974323	39440	107164	0	0	8150	739357	0	0
2024-05-16 15:22:32			0	34191	0	0	0	19607	18230	147610	27313	974385	39451	107164	0	0	8149	740036	0	0
2024-05-16 15:23:32			0	34213	0	0	0	19605	18220	147682	27556	974368	39451	107163	0	0	8150	739009	0	0
2024-05-16 15:24:32			0	34177	0	0	0	19599	18230	147710	27507	974385	39440	107161	0	0	8148	740717	0	0
2024-05-16 15:25:32			0	34192	0	0	0	19597	18220	147610	27505	974439	39439	107160	0	0	8149	740028	0	0
2024-05-16 15:26:32			0	34175	0	0	0	19605	18230	147706	27365	974429	39461	107163	0	0	8148	740814	0	0
2024-05-16 15:27:32			0	34191	0	0	0	19605	18220	147702	27377	974360	39471	107163	0	0	8149	740077	0	0
2024-05-16 15:28:32			0	34185	0	0	0	19607	18220	147670	27284	974315	39472	107164	0	0	8149	740368	0	0
2024-05-16 15:29:32			0	34174	0	0	0	19605	18220	147650	27462	974368	39461	107163	0	0	8148	740903	0	0
2024-05-16 15:30:32			0	34187	0	0	0	19615	18230	147730	27557	974385	39440	107167	0	0	8149	740231	0	0
2024-05-16 15:31:32			0	34155	0	0	0	19607	18230	147766	27263	974429	39451	107164	0	0	8147	741786	0	0
2024-05-16 15:32:32			0	34168	0	0	0	19581	18230	147726	27348	974456	39461	107154	0	0	8148	741154	0	0
2024-05-16 15:33:32			0	34168	0	0	0	19584	18220	147826	27443	974333	39450	107155	0	0	8148	741194	0	0
2024-05-16 15:34:32			0	34163	0	0	0	19579	18220	147742	27083	974333	39450	107153	0	0	8148	741438	0	0
2024-05-16 15:35:32			0	34165	0	0	0	19566	18220	147786	27447	974333	39450	107148	0	0	8148	741340	0	0
2024-05-16 15:36:32			0	34157	0	0	0	19566	18210	147794	27608	974272	39459	107148	0	0	8148	741770	0	0
2024-05-16 15:37:32			0	34169	0	0	0	19566	18200	147866	27424	974264	39449	107148	0	0	8148	741227	0	0
2024-05-16 15:38:32			0	34132	0	0	0	19579	18200	147870	27748	974290	39438	107153	0	0	8146	743028	0	0
2024-05-16 15:39:32			0	34120	0	0	0	19581	18190	147874	27635	974247	39458	107154	0	0	8145	743653	0	0
2024-05-16 15:40:32			0	34101	0	0	0	19566	18190	148006	27308	974274	39437	107148	0	0	8144	744580	0	0
2024-05-16 15:41:32			0	34105	0	0	0	19579	18200	148146	27621	974229	39448	107153	0	0	8144	744344	0	0
2024-05-16 15:42:32			0	34116	0	0	0	19589	18200	148062	27606	974290	39449	107157	0	0	8145	743807	0	0
2024-05-16 15:43:32			0	34092	0	0	0	19638	18200	148102	27372	974370	39438	107176	0	0	8143	744978	0	0
2024-05-16 15:44:32			0	34090	0	0	0	19597	18200	148170	27507	974396	39459	107160	0	0	8143	745076	0	0
2024-05-16 15:45:32			0	34084	0	0	0	19612	18210	148062	27469	974404	39449	107166	0	0	8143	745328	0	0
2024-05-16 15:46:32			0	34095	0	0	0	19555	18220	148070	27504	974413	39450	107144	0	0	8144	744750	0	0
2024-05-16 15:47:32			0	34107	0	0	0	19566	18200	148054	27568	974290	39449	107148	0	0	8145	744246	0	0
2024-05-16 15:48:32			0	34091	0	0	0	19563	18200	148162	27403	974229	39448	107147	0	0	8144	745027	0	0
2024-05-16 15:49:32			0	34101	0	0	0	19558	18190	148046	27564	974300	39448	107145	0	0	8144	744580	0	0
2024-05-16 15:50:32			0	34083	0	0	0	19576	18190	148134	27182	974274	39426	107152	0	0	8143	745459	0	0
2024-05-16 15:51:32			0	34085	0	0	0	19558	18190	148126	27635	974247	39437	107145	0	0	8144	745361	0	0
2024-05-16 15:52:32			0	34092	0	0	0	19542	18200	148102	27495	974203	39448	107139	0	0	8144	744978	0	0
2024-05-16 15:53:32			0	34083	0	0	0	19545	18190	148194	27357	974186	39436	107140	0	0	8144	745459	0	0
2024-05-16 15:54:32			0	34067	0	0	0	19566	18180	148174	27275	974169	39447	107148	0	0	8142	746281	0	0
2024-05-16 15:55:32			0	34068	0	0	0	19558	18190	148182	27227	974247	39458	107145	0	0	8143	746191	0	0
2024-05-16 15:56:32			0	34062	0	0	0	19558	18180	148306	27388	974196	39435	107145	0	0	8142	746526	0	0
2024-05-16 15:57:32			0	34061	0	0	0	19548	18170	148350	27161	974241	39435	107141	0	0	8142	746615	0	0
2024-05-16 15:58:32			0	34050	0	0	0	19545	18170	148334	27365	974126	39446	107140	0	0	8142	747153	0	0
2024-05-16 15:59:32			0	34052	0	0	0	19540	18160	148330	27537	974145	39456	107138	0	0	8142	747096	0	0
2024-05-16 16:00:32			0	34019	0	0	0	19545	18170	148258	27336	974126	39457	107140	0	0	8140	748671	0	0
2024-05-16 16:01:32			0	34037	0	0	0	19555	18170	148358	27305	974206	39446	107144	0	0	8141	747790	0	0
2024-05-16 16:02:32			0	34017	0	0	0	19545	18160	148314	27230	974198	39445	107140	0	0	8140	748810	0	0
2024-05-16 16:03:32			0	34024	0	0	0	19555	18160	148354	27395	974145	39456	107144	0	0	8140	748467	0	0
2024-05-16 16:04:32			0	34014	0	0	0	19555	18170	148470	27060	974161	39447	107144	0	0	8139	748916	0	0
2024-05-16 16:05:32			0	34025	0	0	0	19550	18160	148450	27069	974110	39445	107142	0	0	8140	748418	0	0
2024-05-16 16:06:32			0	34008	0	0	0	19553	18160	148466	27206	974110	39445	107143	0	0	8139	749252	0	0
2024-05-16 16:07:32			0	34013	0	0	0	19540	18160	148446	27307	974145	39456	107138	0	0	8140	749006	0	0
2024-05-16 16:08:32			0	33995	0	0	0	19545	18160	148458	27196	974118	39445	107140	0	0	8138	749889	0	0
2024-05-16 16:09:32			0	34013	0	0	0	19542	18150	148550	27376	974181	39434	107139	0	0	8139	749047	0	0
2024-05-16 16:10:32			0	33981	0	0	0	19548	18160	148514	27227	974171	39445	107141	0	0	8138	750577	0	0
2024-05-16 16:11:32			0	33981	0	0	0	19561	18170	148518	27180	974153	39446	107146	0	0	8137	750536	0	0
2024-05-16 16:12:32			0	33991	0	0	0	19555	18150	148594	27350	974128	39456	107144	0	0	8138	750127	0	0
2024-05-16 16:13:32			0	33994	0	0	0	19568	18150	148486	27294	974181	39456	107149	0	0	8138	749979	0	0
2024-05-16 16:14:32			0	33984	0	0	0	19550	18160	148614	27371	974198	39445	107142	0	0	8138	750429	0	0
2024-05-16 16:15:32			0	33981	0	0	0	19561	18170	148634	27486	974206	39457	107146	0	0	8137	750536	0	0
2024-05-16 16:16:32			0	33989	0	0	0	19553	18150	148538	27398	974128	39445	107143	0	0	8138	750225	0	0
2024-05-16 16:17:32			0	33997	0	0	0	19563	18160	148538	27351	974198	39445	107147	0	0	8138	749791	0	0
2024-05-16 16:18:32			0	33983	0	0	0	19579	18160	148538	27842	974171	39445	107153	0	0	8137	750478	0	0
2024-05-16 16:19:32			0	33996	0	0	0	19602	18160	148586	27372	974198	39445	107162	0	0	8138	749840	0	0
2024-05-16 16:20:32			0	33985	0	0	0	19568	18160	148650	27317	974250	39445	107149	0	0	8137	750380	0	0
2024-05-16 16:21:32			0	33996	0	0	0	19558	18170	148566	27402	974232	39457	107145	0	0	8138	749799	0	0
2024-05-16 16:22:32			0	34000	0	0	0	19555	18170	148562	27528	974232	39423	107144	0	0	8139	749603	0	0
2024-05-16 16:23:32			0	33996	0	0	0	19561	18170	148506	27123	974259	39457	107146	0	0	8138	749799	0	0
2024-05-16 16:24:32			0	33984	0	0	0	19550	18170	148446	27261	974232	39446	107142	0	0	8138	750388	0	0
2024-05-16 16:25:32			0	33983	0	0	0	19563	18170	148574	27059	974100	39446	107147	0	0	8137	750437	0	0
2024-05-16 16:26:32			0	33996	0	0	0	19563	18170	148594	27447	974206	39446	107147	0	0	8138	749799	0	0
2024-05-16 16:27:32			0	34007	0	0	0	19550	18160	148542	27293	974198	39456	107142	0	0	8139	749301	0	0
2024-05-16 16:28:32			0	33994	0	0	0	19542	18160	148478	27209	974171	39445	107139	0	0	8138	749938	0	0
2024-05-16 16:29:32			0	33975	0	0	0	19545	18170	148538	27317	974153	39446	107140	0	0	8137	750830	0	0
2024-05-16 16:30:32			0	33991	0	0	0	19532	18160	148546	27171	974083	39456	107135	0	0	8138	750086	0	0
2024-05-16 16:31:32			0	33974	0	0	0	19540	18160	148598	27211	974189	39445	107138	0	0	8137	750921	0	0
2024-05-16 16:32:32			0	33968	0	0	0	19545	18150	148634	27093	974154	39445	107140	0	0	8137	751256	0	0
2024-05-16 16:33:32			0	33964	0	0	0	19561	18150	148654	27543	974181	39445	107146	0	0	8136	751453	0	0
2024-05-16 16:34:32			0	33959	0	0	0	19550	18170	148678	27130	974179	39457	107142	0	0	8136	751617	0	0
2024-05-16 16:35:32			0	33959	0	0	0	19545	18160	148702	27524	974198	39456	107140	0	0	8136	751658	0	0
2024-05-16 16:36:32			0	33952	0	0	0	19545	18150	148698	27485	974181	39445	107140	0	0	8136	752043	0	0
2024-05-16 16:37:32			0	33943	0	0	0	19553	18150	148630	27583	974146	39444	107143	0	0	8135	752486	0	0
2024-05-16 16:38:32			0	33951	0	0	0	19540	18150	148702	27528	974173	39455	107138	0	0	8136	752092	0	0
2024-05-16 16:39:32			0	33966	0	0	0	19535	18160	148658	27395	974136	39445	107136	0	0	8137	751314	0	0
2024-05-16 16:40:32			0	33962	0	0	0	19548	18150	148782	27348	974093	39444	107141	0	0	8136	751551	0	0
2024-05-16 16:41:32			0	33965	0	0	0	19548	18160	148726	27303	974189	39434	107141	0	0	8137	751363	0	0
2024-05-16 16:42:32			0	33962	0	0	0	19537	18160	148774	27351	974110	39434	107137	0	0	8137	751510	0	0
2024-05-16 16:43:32			0	33940	0	0	0	19545	18150	148702	27410	974154	39434	107140	0	0	8135	752633	0	0
2024-05-16 16:44:32			0	33954	0	0	0	19550	18150	148718	27490	974120	39444	107142	0	0	8136	751945	0	0
2024-05-16 16:45:32			0	33945	0	0	0	19542	18150	148854	27341	974146	39455	107139	0	0	8136	752387	0	0
2024-05-16 16:46:32			0	33934	0	0	0	19545	18140	148726	27383	974164	39454	107140	0	0	8135	752970	0	0
2024-05-16 16:47:32			0	33947	0	0	0	19535	18150	148738	27211	974102	39456	107136	0	0	8136	752289	0	0
2024-05-16 16:48:32			0	33937	0	0	0	19542	18140	148778	27027	974164	39432	107139	0	0	8135	752822	0	0
2024-05-16 16:49:32			0	33942	0	0	0	19550	18160	148886	27471	974136	39456	107142	0	0	8135	752494	0	0
2024-05-16 16:50:32			0	33935	0	0	0	19535	18150	148878	27293	974146	39444	107136	0	0	8135	752879	0	0
2024-05-16 16:51:32			0	33933	0	0	0	19537	18140	148778	27409	974111	39443	107137	0	0	8135	753019	0	0
2024-05-16 16:52:32			0	33921	0	0	0	19524	18160	148874	27428	974163	39445	107132	0	0	8135	753528	0	0
2024-05-16 16:53:32			0	33917	0	0	0	19542	18140	148810	27190	974138	39454	107139	0	0	8134	753807	0	0
2024-05-16 16:54:32			0	33929	0	0	0	19542	18150	148962	27152	974093	39444	107139	0	0	8135	753175	0	0
2024-05-16 16:55:32			0	33917	0	0	0	19537	18150	148862	27511	974146	39433	107137	0	0	8134	753766	0	0
2024-05-16 16:56:32			0	33918	0	0	0	19532	18140	148902	27509	974085	39443	107135	0	0	8134	753758	0	0
2024-05-16 16:57:32			0	33907	0	0	0	19532	18140	148942	27431	974077	39454	107135	0	0	8133	754300	0	0
2024-05-16 16:58:32			0	33912	0	0	0	19527	18140	149018	27512	974103	39443	107133	0	0	8134	754054	0	0
2024-05-16 16:59:32			0	33931	0	0	0	19532	18130	149142	27500	974095	39432	107135	0	0	8135	753159	0	0
2024-05-16 17:00:32			0	33892	0	0	0	19545	18140	148958	27142	974103	39443	107140	0	0	8132	755040	0	0
2024-05-16 17:01:32			0	33893	0	0	0	19548	18140	148922	27289	974130	39443	107141	0	0	8132	754991	0	0
2024-05-16 17:02:32			0	33897	0	0	0	19553	18130	149038	27466	974095	39443	107143	0	0	8132	754835	0	0
2024-05-16 17:03:32			0	33908	0	0	0	19537	18140	149086	27235	974111	39443	107137	0	0	8133	754251	0	0
2024-05-16 17:04:32			0	33921	0	0	0	19537	18140	148974	27540	974156	39432	107137	0	0	8134	753610	0	0
2024-05-16 17:05:32			0	33906	0	0	0	19524	18140	149042	27467	974085	39443	107132	0	0	8134	754350	0	0
2024-05-16 17:06:32			0	33902	0	0	0	19537	18150	149050	27483	974067	39455	107137	0	0	8133	754506	0	0
2024-05-16 17:07:32			0	33895	0	0	0	19529	18130	149026	27345	974042	39432	107134	0	0	8133	754933	0	0
2024-05-16 17:08:32			0	33910	0	0	0	19537	18140	149038	27476	974164	39443	107137	0	0	8134	754152	0	0
2024-05-16 17:09:32			0	33896	0	0	0	19553	18130	149042	27182	974095	39443	107143	0	0	8132	754884	0	0
2024-05-16 17:10:32			0	33892	0	0	0	19553	18150	148986	27724	974146	39477	107143	0	0	8132	754999	0	0
2024-05-16 17:11:32			0	33899	0	0	0	19550	18140	149014	27410	974111	39421	107142	0	0	8133	754695	0	0
2024-05-16 17:12:32			0	33897	0	0	0	19542	18140	148990	27230	974111	39443	107139	0	0	8133	754793	0	0
2024-05-16 17:13:32			0	33893	0	0	0	19542	18150	149050	27022	974120	39455	107139	0	0	8133	754949	0	0
2024-05-16 17:14:32			0	33882	0	0	0	19542	18150	149094	27237	974146	39444	107139	0	0	8132	755492	0	0
2024-05-16 17:15:32			0	33896	0	0	0	19535	18140	149002	26998	974138	39443	107136	0	0	8133	754843	0	0
2024-05-16 17:16:32			0	33879	0	0	0	19527	18140	149082	27039	974111	39443	107133	0	0	8132	755682	0	0
2024-05-16 17:17:32			0	33879	0	0	0	19535	18140	149042	27050	974111	39443	107136	0	0	8132	755682	0	0
2024-05-16 17:18:32			0	33880	0	0	0	19537	18150	149018	27086	974120	39433	107137	0	0	8132	755591	0	0
2024-05-16 17:19:32			0	33861	0	0	0	19555	18140	149194	27284	974130	39454	107144	0	0	8130	756571	0	0
2024-05-16 17:20:32			0	33874	0	0	0	19550	18140	149138	27334	974077	39443	107142	0	0	8131	755929	0	0
2024-05-16 17:21:32			0	33871	0	0	0	19550	18150	149174	27261	974146	39444	107142	0	0	8131	756036	0	0
2024-05-16 17:22:32			0	33855	0	0	0	19563	18150	149126	27270	974173	39465	107147	0	0	8130	756826	0	0
2024-05-16 17:23:32			0	33865	0	0	0	19558	18140	149170	27241	974138	39454	107145	0	0	8131	756373	0	0
2024-05-16 17:24:32			0	33896	0	0	0	19568	18140	149206	27338	974111	39443	107149	0	0	8132	754843	0	0
2024-05-16 17:25:32			0	33869	0	0	0	19558	18150	149030	27386	974173	39455	107145	0	0	8131	756134	0	0
2024-05-16 17:26:32			0	33880	0	0	0	19553	18140	149074	27400	974138	39454	107143	0	0	8132	755632	0	0
2024-05-16 17:27:32			0	33868	0	0	0	19548	18150	149086	27313	974146	39444	107141	0	0	8131	756184	0	0
2024-05-16 17:28:32			0	33884	0	0	0	19537	18150	149142	27362	974154	39445	107137	0	0	8132	755394	0	0
2024-05-16 17:29:32			0	33874	0	0	0	19527	18150	149178	27173	974173	39444	107133	0	0	8132	755887	0	0
2024-05-16 17:30:32			0	33870	0	0	0	19527	18150	149106	27152	974040	39422	107133	0	0	8131	756085	0	0
2024-05-16 17:31:32			0	33859	0	0	0	19535	18140	149214	27329	974024	39432	107136	0	0	8131	756670	0	0
2024-05-16 17:32:32			0	33883	0	0	0	19540	18140	149242	27204	974085	39432	107138	0	0	8132	755484	0	0
2024-05-16 17:33:32			0	33850	0	0	0	19535	18140	149242	27379	974103	39443	107136	0	0	8130	757115	0	0
2024-05-16 17:34:32			0	33846	0	0	0	19532	18140	149182	27086	974111	39454	107135	0	0	8130	757313	0	0
2024-05-16 17:35:32			0	33849	0	0	0	19535	18140	149246	27239	974059	39454	107136	0	0	8130	757164	0	0
2024-05-16 17:36:32			0	33875	0	0	0	19542	18140	149334	27182	974103	39443	107139	0	0	8131	755879	0	0
2024-05-16 17:37:32			0	33863	0	0	0	19532	18140	149298	27072	974103	39454	107135	0	0	8131	756472	0	0
2024-05-16 17:38:32			0	33843	0	0	0	19535	18140	149358	27289	974111	39454	107136	0	0	8130	757461	0	0
2024-05-16 17:39:32			0	33835	0	0	0	19535	18140	149302	27272	974164	39454	107136	0	0	8129	757857	0	0
2024-05-16 17:40:32			0	33858	0	0	0	19532	18140	149386	27298	974085	39432	107135	0	0	8131	756719	0	0
2024-05-16 17:41:32			0	33861	0	0	0	19529	18140	149318	27081	974077	39443	107134	0	0	8131	756571	0	0
2024-05-16 17:42:32			0	33850	0	0	0	19516	18130	149346	27170	974060	39453	107129	0	0	8130	757156	0	0
2024-05-16 17:43:32			0	33838	0	0	0	19519	18130	149378	27364	974095	39443	107130	0	0	8130	757750	0	0
2024-05-16 17:44:32			0	33845	0	0	0	19524	18130	149290	27282	974095	39443	107132	0	0	8130	757403	0	0
2024-05-16 17:45:32			0	33844	0	0	0	19519	18130	149414	27455	974148	39454	107130	0	0	8130	757453	0	0
2024-05-16 17:46:32			0	33833	0	0	0	19519	18130	149422	27588	974095	39454	107130	0	0	8129	757997	0	0
2024-05-16 17:47:32			0	33846	0	0	0	19522	18130	149502	27447	974095	39443	107131	0	0	8130	757354	0	0
2024-05-16 17:48:32			0	33835	0	0	0	19522	18130	149510	27329	974068	39443	107131	0	0	8129	757898	0	0
2024-05-16 17:49:32			0	33835	0	0	0	19519	18130	149358	27287	974007	39453	107130	0	0	8129	757898	0	0
2024-05-16 17:50:32			0	33828	0	0	0	19516	18120	149314	27241	974026	39441	107129	0	0	8129	758286	0	0
2024-05-16 17:51:32			0	33830	0	0	0	19524	18120	149490	27421	974026	39441	107132	0	0	8129	758187	0	0
2024-05-16 17:52:32			0	33819	0	0	0	19524	18120	149382	27351	974078	39463	107132	0	0	8128	758732	0	0
2024-05-16 17:53:32			0	33814	0	0	0	19532	18130	149470	27251	974016	39454	107135	0	0	8128	758938	0	0
2024-05-16 17:54:32			0	33823	0	0	0	19532	18120	149422	27281	974052	39463	107135	0	0	8129	758534	0	0
2024-05-16 17:55:32			0	33835	0	0	0	19522	18130	149470	27362	974034	39431	107131	0	0	8129	757898	0	0
2024-05-16 17:56:32			0	33838	0	0	0	19529	18130	149474	27486	974042	39464	107134	0	0	8129	757750	0	0
2024-05-16 17:57:32			0	33815	0	0	0	19529	18130	149474	27595	974060	39442	107134	0	0	8128	758889	0	0
2024-05-16 17:58:32			0	33827	0	0	0	19527	18130	149466	27391	974095	39443	107133	0	0	8129	758294	0	0
2024-05-16 17:59:32			0	33827	0	0	0	19522	18130	149462	27516	974068	39432	107131	0	0	8129	758294	0	0
2024-05-16 18:00:32			0	33814	0	0	0	19522	18120	149494	27502	974078	39441	107131	0	0	8128	758980	0	0
2024-05-16 18:01:32			0	33831	0	0	0	19542	18130	149458	27397	974121	39443	107139	0	0	8129	758096	0	0
2024-05-16 18:02:32			0	33824	0	0	0	19532	18130	149462	27377	974087	39442	107135	0	0	8129	758443	0	0
2024-05-16 18:03:32			0	33804	0	0	0	19522	18130	149430	27123	974034	39453	107131	0	0	8128	759434	0	0
2024-05-16 18:04:32			0	33816	0	0	0	19529	18130	149478	27367	974113	39464	107134	0	0	8128	758839	0	0
2024-05-16 18:05:32			0	33809	0	0	0	19535	18140	149470	27291	974103	39454	107136	0	0	8128	759144	0	0
2024-05-16 18:06:32			0	33809	0	0	0	19540	18130	149474	27192	974121	39443	107138	0	0	8128	759186	0	0
2024-05-16 18:07:32			0	33805	0	0	0	19540	18130	149566	27225	974068	39443	107138	0	0	8127	759384	0	0
2024-05-16 18:08:32			0	33808	0	0	0	19535	18130	149466	27182	974068	39454	107136	0	0	8128	759236	0	0
2024-05-16 18:09:32			0	33807	0	0	0	19535	18130	149482	27190	974042	39432	107136	0	0	8128	759285	0	0
2024-05-16 18:10:32			0	33807	0	0	0	19532	18120	149566	27293	974052	39430	107135	0	0	8128	759326	0	0
2024-05-16 18:11:32			0	33783	0	0	0	19537	18130	149490	27282	974007	39453	107137	0	0	8126	760475	0	0
2024-05-16 18:12:32			0	33808	0	0	0	19535	18140	149462	27227	974085	39454	107136	0	0	8128	759194	0	0
2024-05-16 18:13:32			0	33819	0	0	0	19529	18140	149522	27435	974111	39454	107134	0	0	8128	758649	0	0
2024-05-16 18:14:32			0	33817	0	0	0	19524	18130	149506	27398	974095	39464	107132	0	0	8128	758789	0	0
2024-05-16 18:15:32			0	33811	0	0	0	19532	18130	149390	27562	974060	39453	107135	0	0	8128	759087	0	0
2024-05-16 18:16:32			0	33804	0	0	0	19529	18140	149506	27331	974130	39443	107134	0	0	8128	759392	0	0
2024-05-16 18:17:32			0	33792	0	0	0	19522	18130	149446	27092	974060	39442	107131	0	0	8127	760029	0	0
2024-05-16 18:18:32			0	33803	0	0	0	19522	18120	149434	27138	974070	39452	107131	0	0	8128	759525	0	0
2024-05-16 18:19:32			0	33792	0	0	0	19527	18130	149514	27343	974060	39453	107133	0	0	8127	760029	0	0
2024-05-16 18:20:32			0	33795	0	0	0	19529	18130	149546	27279	974095	39443	107134	0	0	8127	759880	0	0
2024-05-16 18:21:32			0	33794	0	0	0	19537	18130	149426	27156	974113	39442	107137	0	0	8127	759930	0	0
2024-05-16 18:22:32			0	33811	0	0	0	19542	18140	149410	27331	974156	39464	107139	0	0	8128	759045	0	0
2024-05-16 18:23:32			0	33798	0	0	0	19553	18130	149466	27026	974121	39464	107143	0	0	8127	759731	0	0
2024-05-16 18:24:32			0	33809	0	0	0	19548	18130	149446	27182	974113	39453	107141	0	0	8127	759186	0	0
2024-05-16 18:25:32			0	33806	0	0	0	19545	18150	149470	27265	974120	39455	107140	0	0	8127	759252	0	0
2024-05-16 18:26:32			0	33815	0	0	0	19535	18140	149466	27256	974103	39443	107136	0	0	8128	758847	0	0
2024-05-16 18:27:32			0	33801	0	0	0	19532	18140	149458	27464	974138	39443	107135	0	0	8127	759541	0	0
2024-05-16 18:28:32			0	33793	0	0	0	19537	18140	149474	27445	974111	39454	107137	0	0	8127	759938	0	0
2024-05-16 18:29:32			0	33801	0	0	0	19548	18140	149530	27097	974130	39454	107141	0	0	8127	759541	0	0
2024-05-16 18:30:32			0	33802	0	0	0	19548	18140	149562	27381	974130	39454	107141	0	0	8127	759491	0	0
2024-05-16 18:31:32			0	33805	0	0	0	19542	18140	149494	27348	974164	39454	107139	0	0	8127	759343	0	0
2024-05-16 18:32:32			0	33799	0	0	0	19550	18130	149462	27516	974068	39454	107142	0	0	8127	759682	0	0
2024-05-16 18:33:32			0	33816	0	0	0	19548	18140	149634	27173	974103	39454	107141	0	0	8128	758797	0	0
2024-05-16 18:34:32			0	33792	0	0	0	19555	18150	149542	27455	974146	39444	107144	0	0	8126	759946	0	0
2024-05-16 18:35:32			0	33781	0	0	0	19548	18150	149586	27416	974173	39444	107141	0	0	8126	760492	0	0
2024-05-16 18:36:32			0	33783	0	0	0	19563	18150	149562	27237	974146	39455	107147	0	0	8126	760392	0	0
2024-05-16 18:37:32			0	33769	0	0	0	19553	18130	149514	27592	974113	39453	107143	0	0	8125	761170	0	0
2024-05-16 18:38:32			0	33792	0	0	0	19550	18150	149610	27281	974120	39455	107142	0	0	8127	759946	0	0
2024-05-16 18:39:32			0	33766	0	0	0	19555	18150	149598	27517	974154	39456	107144	0	0	8125	761236	0	0
2024-05-16 18:40:32			0	33784	0	0	0	19558	18140	149578	27691	974130	39464	107145	0	0	8126	760384	0	0
2024-05-16 18:41:32			0	33757	0	0	0	19550	18150	149634	27265	974154	39456	107142	0	0	8125	761683	0	0
2024-05-16 18:42:32			0	33769	0	0	0	19550	18150	149570	27161	974173	39444	107142	0	0	8125	761087	0	0
2024-05-16 18:43:32			0	33777	0	0	0	19548	18140	149634	27286	974032	39454	107141	0	0	8126	760732	0	0
2024-05-16 18:44:32			0	33768	0	0	0	19548	18140	149630	27599	974138	39454	107141	0	0	8125	761178	0	0
2024-05-16 18:45:32			0	33762	0	0	0	19550	18140	149646	27331	974138	39464	107142	0	0	8125	761476	0	0
2024-05-16 18:46:32			0	33759	0	0	0	19550	18140	149602	27528	974164	39454	107142	0	0	8125	761626	0	0
2024-05-16 18:47:32			0	33762	0	0	0	19553	18140	149658	27239	974164	39454	107143	0	0	8125	761476	0	0
2024-05-16 18:48:32			0	33752	0	0	0	19550	18150	149658	27216	974093	39455	107142	0	0	8124	761932	0	0
2024-05-16 18:49:32			0	33759	0	0	0	19548	18150	149546	27294	974146	39465	107141	0	0	8125	761584	0	0
2024-05-16 18:50:32			0	33738	0	0	0	19545	18140	149494	27242	974138	39454	107140	0	0	8123	762670	0	0
2024-05-16 18:51:32			0	33763	0	0	0	19558	18140	149494	27374	974217	39454	107145	0	0	8125	761427	0	0
2024-05-16 18:52:32			0	33753	0	0	0	19548	18150	149646	27208	974128	39466	107141	0	0	8124	761882	0	0
2024-05-16 18:53:32			0	33759	0	0	0	19542	18150	149674	27414	974120	39455	107139	0	0	8125	761584	0	0
2024-05-16 18:54:32			0	33726	0	0	0	19550	18140	149598	26918	974111	39443	107142	0	0	8123	763266	0	0
2024-05-16 18:55:32			0	33755	0	0	0	19555	18140	149694	27183	974085	39454	107144	0	0	8124	761824	0	0
2024-05-16 18:56:32			0	33757	0	0	0	19555	18150	149722	27312	974199	39444	107144	0	0	8124	761683	0	0
2024-05-16 18:57:32			0	33759	0	0	0	19561	18150	149722	27402	974181	39456	107146	0	0	8124	761584	0	0
2024-05-16 18:58:32			0	33761	0	0	0	19566	18150	149742	27225	974181	39445	107148	0	0	8124	761484	0	0
2024-05-16 18:59:32			0	33726	0	0	0	19553	18150	149662	27371	974181	39445	107143	0	0	8123	763225	0	0
2024-05-16 19:00:32			0	33746	0	0	0	19561	18150	149706	27416	974199	39433	107146	0	0	8124	762230	0	0
2024-05-16 19:01:32			0	33732	0	0	0	19545	18150	149742	27390	974207	39456	107140	0	0	8123	762926	0	0
2024-05-16 19:02:32			0	33734	0	0	0	19542	18150	149822	27462	974154	39456	107139	0	0	8123	762827	0	0
2024-05-16 19:03:32			0	33739	0	0	0	19545	18130	149738	27109	974095	39454	107140	0	0	8123	762661	0	0
2024-05-16 19:04:32			0	33737	0	0	0	19540	18150	149834	27235	974181	39445	107138	0	0	8124	762678	0	0
2024-05-16 19:05:32			0	33738	0	0	0	19548	18140	149722	27530	974217	39454	107141	0	0	8123	762670	0	0
2024-05-16 19:06:32			0	33731	0	0	0	19558	18150	149834	27260	974226	39455	107145	0	0	8123	762976	0	0
2024-05-16 19:07:32			0	33739	0	0	0	19555	18150	149838	27272	974234	39445	107144	0	0	8123	762578	0	0
2024-05-16 19:08:32			0	33747	0	0	0	19558	18150	149854	27234	974199	39465	107145	0	0	8124	762180	0	0
2024-05-16 19:09:32			0	33736	0	0	0	19550	18160	149786	27133	974216	39466	107142	0	0	8123	762686	0	0
2024-05-16 19:10:32			0	33736	0	0	0	19550	18140	149870	27336	974183	39443	107142	0	0	8123	762769	0	0
2024-05-16 19:11:32			0	33732	0	0	0	19555	18150	149850	27357	974199	39444	107144	0	0	8123	762926	0	0
2024-05-16 19:12:32			0	33721	0	0	0	19561	18150	149842	27312	974234	39456	107146	0	0	8122	763474	0	0
2024-05-16 19:13:32			0	33734	0	0	0	19553	18150	149798	27388	974207	39466	107143	0	0	8123	762827	0	0
2024-05-16 19:14:32			0	33723	0	0	0	19553	18160	149962	27152	974189	39466	107143	0	0	8123	763333	0	0
2024-05-16 19:15:32			0	33714	0	0	0	19548	18150	149790	27189	974181	39456	107141	0	0	8122	763822	0	0
2024-05-16 19:16:32			0	33717	0	0	0	19553	18150	149866	27013	974120	39465	107143	0	0	8122	763673	0	0
2024-05-16 19:17:32			0	33707	0	0	0	19548	18150	149870	27005	974173	39444	107141	0	0	8122	764171	0	0
2024-05-16 19:18:32			0	33697	0	0	0	19542	18150	149926	27008	974154	39445	107139	0	0	8121	764669	0	0
2024-05-16 19:19:32			0	33688	0	0	0	19548	18140	149854	27163	974164	39443	107141	0	0	8120	765160	0	0
2024-05-16 19:20:32			0	33737	0	0	0	19550	18150	149934	27455	974173	39455	107142	0	0	8123	762678	0	0
2024-05-16 19:21:32			0	33706	0	0	0	19545	18150	149910	27336	974173	39433	107140	0	0	8122	764221	0	0
2024-05-16 19:22:32			0	33711	0	0	0	19548	18150	149922	27526	974207	39456	107141	0	0	8122	763972	0	0
2024-05-16 19:23:32			0	33705	0	0	0	19545	18150	149978	27319	974181	39456	107140	0	0	8122	764271	0	0
2024-05-16 19:24:32			0	33722	0	0	0	19542	18150	150130	27459	974173	39455	107139	0	0	8123	763424	0	0
2024-05-16 19:25:32			0	33714	0	0	0	19558	18140	149906	27459	974111	39443	107145	0	0	8122	763864	0	0
2024-05-16 19:26:32			0	33717	0	0	0	19548	18160	149830	27512	974163	39456	107141	0	0	8122	763631	0	0
2024-05-16 19:27:32			0	33699	0	0	0	19550	18150	149966	27379	974067	39455	107142	0	0	8121	764570	0	0
2024-05-16 19:28:32			0	33727	0	0	0	19545	18150	150046	27317	974173	39455	107140	0	0	8123	763175	0	0
2024-05-16 19:29:32			0	33707	0	0	0	19553	18150	149906	26835	974154	39466	107143	0	0	8122	764171	0	0
2024-05-16 19:30:32			0	33721	0	0	0	19550	18150	149870	27111	974199	39444	107142	0	0	8122	763474	0	0
2024-05-16 19:31:32			0	33703	0	0	0	19548	18150	149838	27168	974146	39455	107141	0	0	8121	764370	0	0
2024-05-16 19:32:32			0	33714	0	0	0	19545	18140	149814	27426	974111	39432	107140	0	0	8122	763864	0	0
2024-05-16 19:33:32			0	33724	0	0	0	19548	18140	149882	27341	974111	39454	107141	0	0	8123	763366	0	0
2024-05-16 19:34:32			0	33730	0	0	0	19542	18150	149906	27107	974252	39444	107139	0	0	8123	763026	0	0
2024-05-16 19:35:32			0	33712	0	0	0	19542	18150	149958	27317	974199	39444	107139	0	0	8122	763922	0	0
2024-05-16 19:36:32			0	33711	0	0	0	19545	18150	149770	27065	974234	39445	107140	0	0	8122	763972	0	0
2024-05-16 19:37:32			0	33747	0	0	0	19550	18140	149814	27197	974138	39443	107142	0	0	8124	762222	0	0
2024-05-16 19:38:32			0	33743	0	0	0	19548	18150	149814	27294	974234	39445	107141	0	0	8124	762379	0	0
2024-05-16 19:39:32			0	33742	0	0	0	19540	18150	149774	26981	974181	39445	107138	0	0	8124	762429	0	0
2024-05-16 19:40:32			0	33736	0	0	0	19545	18140	149706	27249	974156	39454	107140	0	0	8123	762769	0	0
2024-05-16 19:41:32			0	33732	0	0	0	19545	18140	149762	27452	974111	39454	107140	0	0	8123	762968	0	0
2024-05-16 19:42:32			0	33740	0	0	0	19553	18150	149698	27034	974154	39456	107143	0	0	8123	762528	0	0
2024-05-16 19:43:32			0	33746	0	0	0	19545	18150	149750	27414	974146	39455	107140	0	0	8124	762230	0	0
2024-05-16 19:44:32			0	33766	0	0	0	19542	18150	149726	27145	974154	39456	107139	0	0	8125	761236	0	0
2024-05-16 19:45:32			0	33733	0	0	0	19550	18150	149786	27298	974226	39465	107142	0	0	8123	762876	0	0
2024-05-16 19:46:32			0	33728	0	0	0	19548	18150	149774	27104	974207	39466	107141	0	0	8123	763125	0	0
2024-05-16 19:47:32			0	33741	0	0	0	19555	18150	149842	27083	974173	39465	107144	0	0	8123	762479	0	0
2024-05-16 19:48:32			0	33740	0	0	0	19555	18150	149810	27194	974234	39466	107144	0	0	8123	762528	0	0
2024-05-16 19:49:32			0	33759	0	0	0	19555	18150	149714	27209	974173	39444	107144	0	0	8125	761584	0	0
2024-05-16 19:50:32			0	33737	0	0	0	19553	18150	149734	27322	974154	39456	107143	0	0	8123	762678	0	0
2024-05-16 19:51:32			0	33749	0	0	0	19550	18160	149786	27275	974189	39445	107142	0	0	8124	762039	0	0
2024-05-16 19:52:32			0	33745	0	0	0	19548	18150	149686	27448	974199	39444	107141	0	0	8124	762280	0	0
2024-05-16 19:53:32			0	33734	0	0	0	19548	18140	149794	27473	974130	39464	107141	0	0	8123	762868	0	0
2024-05-16 19:54:32			0	33757	0	0	0	19555	18140	149782	27372	974244	39454	107144	0	0	8124	761725	0	0
2024-05-16 19:55:32			0	33757	0	0	0	19561	18150	149778	27121	974199	39444	107146	0	0	8124	761683	0	0
2024-05-16 19:56:32			0	33737	0	0	0	19553	18160	149766	27322	974163	39456	107143	0	0	8123	762636	0	0
2024-05-16 19:57:32			0	33750	0	0	0	19555	18150	149722	27433	974181	39456	107144	0	0	8124	762031	0	0
2024-05-16 19:58:32			0	33754	0	0	0	19548	18150	149790	27403	974199	39455	107141	0	0	8124	761832	0	0
2024-05-16 19:59:32			0	33726	0	0	0	19555	18150	149722	27168	974234	39456	107144	0	0	8123	763225	0	0
2024-05-16 20:00:32			0	33734	0	0	0	19553	18150	149766	27279	974146	39455	107143	0	0	8123	762827	0	0
2024-05-16 20:01:32			0	33730	0	0	0	19550	18150	149782	27277	974207	39456	107142	0	0	8123	763026	0	0
2024-05-16 20:02:32			0	33749	0	0	0	19548	18140	149738	27267	974156	39454	107141	0	0	8124	762122	0	0
2024-05-16 20:03:32			0	33733	0	0	0	19545	18150	149770	27367	974154	39456	107140	0	0	8123	762876	0	0
2024-05-16 20:04:32			0	33738	0	0	0	19555	18140	149738	27367	974191	39476	107144	0	0	8123	762670	0	0
2024-05-16 20:05:32			0	33744	0	0	0	19553	18140	149834	27474	974130	39443	107143	0	0	8124	762371	0	0
2024-05-16 20:06:32			0	33744	0	0	0	19545	18150	149710	27417	974181	39456	107140	0	0	8124	762329	0	0
2024-05-16 20:07:32			0	33753	0	0	0	19558	18140	149674	27422	974217	39454	107145	0	0	8124	761924	0	0
2024-05-16 20:08:32			0	33755	0	0	0	19555	18160	149738	27450	974189	39466	107144	0	0	8124	761741	0	0
2024-05-16 20:09:32			0	33738	0	0	0	19545	18160	149766	27462	974216	39466	107140	0	0	8124	762586	0	0
2024-05-16 20:10:32			0	33757	0	0	0	19555	18150	149714	27223	974234	39456	107144	0	0	8124	761683	0	0
2024-05-16 20:11:32			0	33737	0	0	0	19548	18150	149806	27516	974173	39444	107141	0	0	8123	762678	0	0
2024-05-16 20:12:32			0	33734	0	0	0	19550	18150	149658	27478	974128	39456	107142	0	0	8123	762827	0	0
2024-05-16 20:13:32			0	33761	0	0	0	19561	18150	149718	27682	974154	39445	107146	0	0	8125	761484	0	0
2024-05-16 20:14:32			0	33743	0	0	0	19548	18150	149766	27312	974234	39456	107141	0	0	8124	762379	0	0
2024-05-16 20:15:32			0	33741	0	0	0	19545	18160	149850	27256	974189	39445	107140	0	0	8124	762437	0	0
2024-05-16 20:16:32			0	33751	0	0	0	19558	18150	149838	27142	974146	39455	107145	0	0	8124	761981	0	0
2024-05-16 20:17:32			0	33728	0	0	0	19553	18140	149918	27320	974217	39454	107143	0	0	8123	763167	0	0
2024-05-16 20:18:32			0	33708	0	0	0	19553	18150	149858	27464	974207	39456	107143	0	0	8122	764121	0	0
2024-05-16 20:19:32			0	33729	0	0	0	19540	18140	149814	27345	974138	39443	107138	0	0	8123	763117	0	0
2024-05-16 20:20:32			0	33742	0	0	0	19545	18150	149782	27374	974199	39455	107140	0	0	8124	762429	0	0
2024-05-16 20:21:32			0	33736	0	0	0	19545	18150	149958	27452	974146	39444	107140	0	0	8123	762727	0	0
2024-05-16 20:22:32			0	33723	0	0	0	19548	18140	149874	27274	974138	39454	107141	0	0	8123	763416	0	0
2024-05-16 20:23:32			0	33729	0	0	0	19535	18150	149906	27199	974226	39455	107136	0	0	8123	763076	0	0
2024-05-16 20:24:32			0	33719	0	0	0	19542	18150	149918	26901	974207	39466	107139	0	0	8122	763573	0	0
2024-05-16 20:25:32			0	33712	0	0	0	19545	18140	149926	27296	974164	39464	107140	0	0	8122	763964	0	0
2024-05-16 20:26:32			0	33721	0	0	0	19553	18150	149926	26850	974181	39456	107143	0	0	8122	763474	0	0
2024-05-16 20:27:32			0	33701	0	0	0	19545	18140	149982	27199	974156	39432	107140	0	0	8121	764512	0	0
2024-05-16 20:28:32			0	33711	0	0	0	19548	18150	149890	26967	974199	39465	107141	0	0	8122	763972	0	0
2024-05-16 20:29:32			0	33726	0	0	0	19537	18140	149910	27208	974183	39454	107137	0	0	8123	763266	0	0
2024-05-16 20:30:32			0	33714	0	0	0	19545	18150	149958	27185	974181	39456	107140	0	0	8122	763822	0	0
2024-05-16 20:31:32			0	33686	0	0	0	19542	18140	149994	27076	974191	39454	107139	0	0	8120	765259	0	0
2024-05-16 20:32:32			0	33691	0	0	0	19529	18140	150030	27000	974217	39464	107134	0	0	8121	765010	0	0
2024-05-16 20:33:32			0	33681	0	0	0	19532	18130	150062	27107	974121	39443	107135	0	0	8120	765551	0	0
2024-05-16 20:34:32			0	33692	0	0	0	19537	18140	150186	27358	974217	39454	107137	0	0	8121	764960	0	0
2024-05-16 20:35:32			0	33669	0	0	0	19537	18140	150102	27112	974183	39454	107137	0	0	8120	766108	0	0
2024-05-16 20:36:32			0	33685	0	0	0	19524	18140	150110	26981	974183	39454	107132	0	0	8121	765309	0	0
2024-05-16 20:37:32			0	33671	0	0	0	19519	18140	150202	26864	974138	39454	107130	0	0	8120	766008	0	0
2024-05-16 20:38:32			0	33675	0	0	0	19524	18130	150154	27126	974087	39453	107132	0	0	8120	765850	0	0
2024-05-16 20:39:32			0	33676	0	0	0	19516	18130	150222	27307	974113	39453	107129	0	0	8120	765800	0	0
2024-05-16 20:40:32			0	33662	0	0	0	19524	18130	150214	27281	974113	39453	107132	0	0	8119	766499	0	0
2024-05-16 20:41:32			0	33657	0	0	0	19529	18130	150194	27327	974113	39464	107134	0	0	8119	766749	0	0
2024-05-16 20:42:32			0	33648	0	0	0	19524	18130	150198	27241	974148	39443	107132	0	0	8118	767199	0	0
2024-05-16 20:43:32			0	33642	0	0	0	19532	18130	150194	27348	974113	39475	107135	0	0	8118	767499	0	0
2024-05-16 20:44:32			0	33660	0	0	0	19527	18130	150202	27483	974140	39464	107133	0	0	8119	766599	0	0
2024-05-16 20:45:32			0	33653	0	0	0	19522	18130	150182	27374	974060	39453	107131	0	0	8119	766949	0	0
2024-05-16 20:46:32			0	33654	0	0	0	19519	18130	150214	27284	974140	39442	107130	0	0	8119	766899	0	0
2024-05-16 20:47:32			0	33645	0	0	0	19522	18140	150242	27313	974156	39464	107131	0	0	8118	767307	0	0
2024-05-16 20:48:32			0	33648	0	0	0	19514	18130	150254	27197	974095	39443	107128	0	0	8119	767199	0	0
2024-05-16 20:49:32			0	33658	0	0	0	19514	18130	150298	27346	974095	39443	107128	0	0	8119	766699	0	0
2024-05-16 20:50:32			0	33640	0	0	0	19529	18130	150238	27498	974060	39453	107134	0	0	8118	767599	0	0
2024-05-16 20:51:32			0	33655	0	0	0	19524	18120	150274	27260	974105	39453	107132	0	0	8119	766891	0	0
2024-05-16 20:52:32			0	33647	0	0	0	19516	18130	150278	27594	974140	39453	107129	0	0	8119	767249	0	0
2024-05-16 20:53:32			0	33655	0	0	0	19522	18120	150194	27372	974105	39441	107131	0	0	8119	766891	0	0
2024-05-16 20:54:32			0	33659	0	0	0	19522	18130	150350	26897	974087	39442	107131	0	0	8119	766649	0	0
2024-05-16 20:55:32			0	33657	0	0	0	19532	18120	150454	27225	974105	39453	107135	0	0	8119	766791	0	0
2024-05-16 20:56:32			0	33630	0	0	0	19524	18120	150338	27296	974070	39452	107132	0	0	8117	768141	0	0
2024-05-16 20:57:32			0	33634	0	0	0	19519	18120	150262	27107	974052	39453	107130	0	0	8118	767940	0	0
2024-05-16 20:58:32			0	33627	0	0	0	19527	18130	150290	27305	974060	39442	107133	0	0	8117	768249	0	0
2024-05-16 20:59:32			0	33638	0	0	0	19519	18110	150354	27137	974062	39473	107130	0	0	8118	767782	0	0
2024-05-16 21:00:32			0	33636	0	0	0	19524	18120	150362	27145	974097	39452	107132	0	0	8118	767840	0	0
2024-05-16 21:01:32			0	33623	0	0	0	19514	18120	150406	26987	974131	39453	107128	0	0	8117	768491	0	0
2024-05-16 21:02:32			0	33631	0	0	0	19516	18120	150382	27218	974105	39463	107129	0	0	8118	768090	0	0
2024-05-16 21:03:32			0	33618	0	0	0	19511	18120	150394	27237	974097	39452	107127	0	0	8117	768741	0	0
2024-05-16 21:04:32			0	33616	0	0	0	19516	18120	150494	27057	974052	39453	107129	0	0	8117	768841	0	0
2024-05-16 21:05:32			0	33620	0	0	0	19516	18120	150410	27308	974097	39429	107129	0	0	8117	768641	0	0
2024-05-16 21:06:32			0	33606	0	0	0	19516	18120	150478	27178	974078	39453	107129	0	0	8116	769342	0	0
2024-05-16 21:07:32			0	33610	0	0	0	19514	18120	150498	26953	974052	39453	107128	0	0	8116	769142	0	0
2024-05-16 21:08:32			0	33624	0	0	0	19524	18110	150554	27223	974062	39452	107132	0	0	8117	768483	0	0
2024-05-16 21:09:32			0	33600	0	0	0	19519	18120	150578	27144	974070	39462	107130	0	0	8116	769643	0	0
2024-05-16 21:10:32			0	33611	0	0	0	19514	18120	150498	27189	974052	39463	107128	0	0	8116	769092	0	0
2024-05-16 21:11:32			0	33593	0	0	0	19516	18120	150542	27218	974070	39429	107129	0	0	8115	769993	0	0
2024-05-16 21:12:32			0	33592	0	0	0	19519	18110	150666	27272	974088	39452	107130	0	0	8115	770086	0	0
2024-05-16 21:13:32			0	33583	0	0	0	19519	18120	150778	27197	974070	39452	107130	0	0	8115	770495	0	0
2024-05-16 21:14:32			0	33592	0	0	0	19519	18110	150634	27282	974088	39462	107130	0	0	8115	770086	0	0
2024-05-16 21:15:32			0	33578	0	0	0	19516	18120	150686	27440	974105	39453	107129	0	0	8114	770746	0	0
2024-05-16 21:16:32			0	33600	0	0	0	19516	18120	150626	27402	974044	39440	107129	0	0	8116	769643	0	0
2024-05-16 21:17:32			0	33575	0	0	0	19509	18120	150730	27248	974123	39440	107126	0	0	8114	770896	0	0
2024-05-16 21:18:32			0	33570	0	0	0	19519	18110	150750	27187	974062	39452	107130	0	0	8114	771189	0	0
2024-05-16 21:19:32			0	33544	0	0	0	19514	18110	150825	27157	974062	39452	107128	0	0	8112	772495	0	0
2024-05-16 21:20:32			0	33554	0	0	0	19519	18110	150685	27326	974035	39462	107130	0	0	8113	771992	0	0
2024-05-16 21:21:32			0	33554	0	0	0	19522	18120	150861	26996	973991	39452	107131	0	0	8113	771950	0	0
2024-05-16 21:22:32			0	33541	0	0	0	19511	18110	150769	27350	974088	39429	107127	0	0	8112	772646	0	0
2024-05-16 21:23:32			0	33537	0	0	0	19514	18120	150901	27253	974044	39452	107128	0	0	8112	772805	0	0
2024-05-16 21:24:32			0	33537	0	0	0	19511	18120	150897	27438	974070	39429	107127	0	0	8112	772805	0	0
2024-05-16 21:25:32			0	33532	0	0	0	19503	18110	150885	27331	974062	39452	107124	0	0	8112	773098	0	0
2024-05-16 21:26:32			0	33538	0	0	0	19509	18110	150981	27156	974009	39462	107126	0	0	8112	772797	0	0
2024-05-16 21:27:32			0	33518	0	0	0	19501	18110	150949	27353	974080	39452	107123	0	0	8111	773802	0	0
2024-05-16 21:28:32			0	33497	0	0	0	19511	18120	151001	26975	974070	39462	107127	0	0	8110	774818	0	0
2024-05-16 21:29:32			0	33501	0	0	0	19509	18110	150961	27332	974001	39452	107126	0	0	8110	774658	0	0
2024-05-16 21:30:32			0	33492	0	0	0	19511	18110	151085	27424	974027	39440	107127	0	0	8109	775112	0	0
2024-05-16 21:31:32			0	33483	0	0	0	19506	18110	151129	27452	974054	39462	107125	0	0	8109	775565	0	0
2024-05-16 21:32:32			0	33503	0	0	0	19511	18110	151121	27287	974035	39440	107127	0	0	8110	774558	0	0
2024-05-16 21:33:32			0	33487	0	0	0	19503	18120	151049	27204	974044	39452	107124	0	0	8109	775322	0	0
2024-05-16 21:34:32			0	33469	0	0	0	19511	18110	151173	27407	974141	39452	107127	0	0	8108	776272	0	0
2024-05-16 21:35:32			0	33460	0	0	0	19506	18110	151201	27331	974115	39462	107125	0	0	8108	776726	0	0
2024-05-16 21:36:32			0	33465	0	0	0	19516	18110	151101	27505	974062	39462	107129	0	0	8108	776474	0	0
2024-05-16 21:37:32			0	33466	0	0	0	19514	18110	151201	27215	974054	39452	107128	0	0	8108	776423	0	0
2024-05-16 21:38:32			0	33465	0	0	0	19506	18120	151285	27199	973964	39462	107125	0	0	8108	776431	0	0
2024-05-16 21:39:32			0	33475	0	0	0	19496	18110	151189	27504	974001	39452	107121	0	0	8109	775969	0	0
2024-05-16 21:40:32			0	33474	0	0	0	19506	18110	151309	27267	974035	39440	107125	0	0	8108	776019	0	0
2024-05-16 21:41:32			0	33448	0	0	0	19503	18100	151185	27388	974071	39451	107124	0	0	8107	777374	0	0
2024-05-16 21:42:32			0	33454	0	0	0	19503	18100	151217	27343	974045	39451	107124	0	0	8107	777071	0	0
2024-05-16 21:43:32			0	33457	0	0	0	19501	18110	151237	27383	973974	39462	107123	0	0	8108	776877	0	0
2024-05-16 21:44:32			0	33455	0	0	0	19498	18110	151273	27241	974027	39452	107122	0	0	8108	776978	0	0
2024-05-16 21:45:32			0	33460	0	0	0	19498	18110	151305	27173	973974	39462	107122	0	0	8108	776726	0	0
2024-05-16 21:46:32			0	33437	0	0	0	19496	18100	151281	27142	974063	39439	107121	0	0	8106	777930	0	0
2024-05-16 21:47:32			0	33445	0	0	0	19501	18110	151305	27381	974027	39452	107123	0	0	8107	777483	0	0
2024-05-16 21:48:32			0	33454	0	0	0	19496	18100	151377	27486	974037	39450	107121	0	0	8107	777071	0	0
2024-05-16 21:49:32			0	33436	0	0	0	19490	18100	151413	27234	974010	39471	107119	0	0	8106	777981	0	0
2024-05-16 21:50:32			0	33448	0	0	0	19493	18100	151397	27471	974019	39461	107120	0	0	8107	777374	0	0
2024-05-16 21:51:32			0	33456	0	0	0	19496	18100	151317	27481	974010	39439	107121	0	0	8108	776970	0	0
2024-05-16 21:52:32			0	33441	0	0	0	19498	18100	151345	27222	973957	39460	107122	0	0	8107	777728	0	0
2024-05-16 21:53:32			0	33445	0	0	0	19477	18100	151365	27305	974019	39451	107114	0	0	8107	777526	0	0
2024-05-16 21:54:32			0	33460	0	0	0	19490	18090	151393	27473	974028	39450	107119	0	0	8108	776811	0	0
2024-05-16 21:55:32			0	33444	0	0	0	19496	18100	151325	27488	973992	39461	107121	0	0	8107	777576	0	0
2024-05-16 21:56:32			0	33449	0	0	0	19490	18100	151429	27324	974019	39440	107119	0	0	8107	777324	0	0
2024-05-16 21:57:32			0	33465	0	0	0	19498	18100	151293	27471	974019	39440	107122	0	0	8108	776516	0	0
2024-05-16 21:58:32			0	33471	0	0	0	19496	18110	151353	27222	974054	39452	107121	0	0	8108	776171	0	0
2024-05-16 21:59:32			0	33466	0	0	0	19490	18100	151297	27279	973992	39451	107119	0	0	8108	776465	0	0
2024-05-16 22:00:32			0	33463	0	0	0	19485	18090	151281	27365	973914	39450	107117	0	0	8108	776659	0	0
2024-05-16 22:01:32			0	33452	0	0	0	19488	18100	151353	27410	974037	39450	107118	0	0	8107	777172	0	0
2024-05-16 22:02:32			0	33465	0	0	0	19488	18090	151321	27083	973976	39450	107118	0	0	8108	776558	0	0
2024-05-16 22:03:32			0	33453	0	0	0	19490	18080	151437	27173	973985	39459	107119	0	0	8107	777207	0	0
2024-05-16 22:04:32			0	33445	0	0	0	19488	18100	151401	27538	973992	39440	107118	0	0	8107	777526	0	0
2024-05-16 22:05:32			0	33454	0	0	0	19490	18100	151369	27213	974019	39472	107119	0	0	8108	777071	0	0
2024-05-16 22:06:32			0	33450	0	0	0	19488	18100	151365	27438	973966	39461	107118	0	0	8107	777273	0	0
2024-05-16 22:07:32			0	33440	0	0	0	19490	18090	151461	27213	974002	39471	107119	0	0	8107	777821	0	0
2024-05-16 22:08:32			0	33451	0	0	0	19490	18090	151405	27322	973976	39450	107119	0	0	8107	777265	0	0
2024-05-16 22:09:32			0	33441	0	0	0	19488	18100	151505	27102	974037	39460	107118	0	0	8107	777728	0	0
2024-05-16 22:10:32			0	33422	0	0	0	19483	18100	151505	27483	973984	39450	107116	0	0	8106	778689	0	0
2024-05-16 22:11:32			0	33439	0	0	0	19490	18090	151421	27495	974002	39450	107119	0	0	8107	777871	0	0
2024-05-16 22:12:32			0	33437	0	0	0	19493	18090	151513	27078	973976	39460	107120	0	0	8106	777972	0	0
2024-05-16 22:13:32			0	33416	0	0	0	19485	18100	151433	27293	973957	39460	107117	0	0	8105	778992	0	0
2024-05-16 22:14:32			0	33408	0	0	0	19485	18090	151381	27492	974002	39460	107117	0	0	8105	779440	0	0
2024-05-16 22:15:32			0	33421	0	0	0	19488	18090	151389	27293	973941	39439	107118	0	0	8106	778782	0	0
2024-05-16 22:16:32			0	33405	0	0	0	19483	18100	151525	27126	973904	39439	107116	0	0	8105	779549	0	0
2024-05-16 22:17:32			0	33399	0	0	0	19480	18080	151485	27535	973959	39449	107115	0	0	8104	779938	0	0
2024-05-16 22:18:32			0	33394	0	0	0	19485	18100	151525	27488	973984	39439	107117	0	0	8104	780106	0	0
2024-05-16 22:19:32			0	33389	0	0	0	19485	18090	151573	27185	973914	39450	107117	0	0	8104	780402	0	0
2024-05-16 22:20:32			0	33394	0	0	0	19485	18100	151669	27412	973957	39450	107117	0	0	8104	780106	0	0
2024-05-16 22:21:32			0	33370	0	0	0	19475	18080	151577	27229	973985	39449	107113	0	0	8103	781408	0	0
2024-05-16 22:22:32			0	33393	0	0	0	19480	18090	151545	27230	973976	39450	107115	0	0	8104	780199	0	0
2024-05-16 22:23:32			0	33403	0	0	0	19477	18090	151525	27315	973941	39450	107114	0	0	8105	779693	0	0
2024-05-16 22:24:32			0	33399	0	0	0	19483	18080	151489	26889	973906	39449	107116	0	0	8104	779938	0	0
2024-05-16 22:25:32			0	33395	0	0	0	19480	18090	151449	27334	973976	39450	107115	0	0	8104	780098	0	0
2024-05-16 22:26:32			0	33406	0	0	0	19493	18090	151489	27159	973967	39450	107120	0	0	8105	779541	0	0
2024-05-16 22:27:32			0	33395	0	0	0	19488	18090	151477	27197	973914	39460	107118	0	0	8104	780098	0	0
2024-05-16 22:28:32			0	33414	0	0	0	19485	18090	151493	27345	973914	39439	107117	0	0	8105	779136	0	0
2024-05-16 22:29:32			0	33397	0	0	0	19480	18080	151469	27315	973933	39427	107115	0	0	8104	780039	0	0
2024-05-16 22:30:32			0	33402	0	0	0	19477	18080	151605	27279	973898	39458	107114	0	0	8105	779786	0	0
2024-05-16 22:31:32			0	33399	0	0	0	19483	18080	151621	27499	973880	39438	107116	0	0	8104	779938	0	0
2024-05-16 22:32:32			0	33382	0	0	0	19483	18080	151625	27511	973933	39438	107116	0	0	8103	780799	0	0
2024-05-16 22:33:32			0	33397	0	0	0	19480	18090	151629	27466	973914	39450	107115	0	0	8104	779997	0	0
2024-05-16 22:34:32			0	33372	0	0	0	19485	18080	151649	27189	973985	39449	107117	0	0	8103	781306	0	0
2024-05-16 22:35:32			0	33383	0	0	0	19472	18080	151589	27218	973959	39449	107112	0	0	8104	780749	0	0
2024-05-16 22:36:32			0	33386	0	0	0	19485	18090	151645	27263	973914	39450	107117	0	0	8104	780554	0	0
2024-05-16 22:37:32			0	33406	0	0	0	19485	18080	151577	27554	973906	39459	107117	0	0	8105	779583	0	0
2024-05-16 22:38:32			0	33379	0	0	0	19470	18080	151661	27353	973951	39448	107111	0	0	8103	780951	0	0
2024-05-16 22:39:32			0	33393	0	0	0	19477	18080	151665	27545	974012	39449	107114	0	0	8104	780242	0	0
2024-05-16 22:40:32			0	33380	0	0	0	19477	18090	151733	27434	973914	39450	107114	0	0	8103	780858	0	0
2024-05-16 22:41:32			0	33384	0	0	0	19477	18080	151649	27540	973933	39449	107114	0	0	8104	780698	0	0
2024-05-16 22:42:32			0	33375	0	0	0	19480	18080	151609	27265	973959	39438	107115	0	0	8103	781154	0	0
2024-05-16 22:43:32			0	33388	0	0	0	19477	18080	151737	27407	973933	39449	107114	0	0	8104	780495	0	0
2024-05-16 22:44:32			0	33389	0	0	0	19475	18080	151705	27422	973959	39459	107113	0	0	8104	780445	0	0
2024-05-16 22:45:32			0	33380	0	0	0	19475	18080	151681	27000	973959	39449	107113	0	0	8103	780901	0	0
2024-05-16 22:46:32			0	33384	0	0	0	19475	18080	151665	27164	973898	39448	107113	0	0	8104	780698	0	0
2024-05-16 22:47:32			0	33384	0	0	0	19472	18100	151753	27239	973931	39460	107112	0	0	8104	780613	0	0
2024-05-16 22:48:32			0	33382	0	0	0	19483	18090	151701	27447	973914	39460	107116	0	0	8103	780757	0	0
2024-05-16 22:49:32			0	33385	0	0	0	19485	18080	151821	27315	973951	39448	107117	0	0	8103	780647	0	0
2024-05-16 22:50:32			0	33365	0	0	0	19472	18080	151793	27189	973898	39437	107112	0	0	8102	781662	0	0
2024-05-16 22:51:32			0	33373	0	0	0	19483	18080	151789	27381	973959	39438	107116	0	0	8103	781256	0	0
2024-05-16 22:52:32			0	33375	0	0	0	19475	18080	151745	27171	973933	39438	107113	0	0	8103	781154	0	0
2024-05-16 22:53:32			0	33367	0	0	0	19480	18080	151781	27308	973924	39458	107115	0	0	8102	781560	0	0
2024-05-16 22:54:32			0	33345	0	0	0	19477	18070	151861	27386	973942	39437	107114	0	0	8101	782720	0	0
2024-05-16 22:55:32			0	33351	0	0	0	19470	18080	151777	27725	973906	39449	107111	0	0	8102	782372	0	0
2024-05-16 22:56:32			0	33350	0	0	0	19470	18080	151901	27268	973898	39448	107111	0	0	8102	782423	0	0
2024-05-16 22:57:32			0	33355	0	0	0	19483	18080	151913	27519	973880	39438	107116	0	0	8102	782169	0	0
2024-05-16 22:58:32			0	33338	0	0	0	19477	18070	152009	27352	973934	39448	107114	0	0	8101	783075	0	0
2024-05-16 22:59:32			0	33324	0	0	0	19472	18080	151941	27196	973880	39449	107112	0	0	8100	783744	0	0
2024-05-16 23:00:32			0	33314	0	0	0	19470	18080	152137	27460	973977	39458	107111	0	0	8099	784253	0	0
2024-05-16 23:01:32			0	33306	0	0	0	19467	18080	152041	27355	973933	39438	107110	0	0	8099	784660	0	0
2024-05-16 23:02:32			0	33323	0	0	0	19470	18080	152025	27135	973871	39448	107111	0	0	8100	783795	0	0
2024-05-16 23:03:32			0	33304	0	0	0	19477	18070	152017	27135	973942	39448	107114	0	0	8099	784805	0	0
2024-05-16 23:04:32			0	33295	0	0	0	19470	18070	152001	27443	973961	39437	107111	0	0	8098	785263	0	0
2024-05-16 23:05:32			0	33316	0	0	0	19464	18070	151981	27445	973863	39437	107109	0	0	8100	784194	0	0
2024-05-16 23:06:32			0	33335	0	0	0	19475	18080	151977	27166	973906	39459	107113	0	0	8101	783185	0	0
2024-05-16 23:07:32			0	33331	0	0	0	19472	18070	151941	27253	973890	39458	107112	0	0	8100	783431	0	0
2024-05-16 23:08:32			0	33353	0	0	0	19472	18080	151857	27592	973951	39448	107112	0	0	8102	782271	0	0
2024-05-16 23:09:32			0	33366	0	0	0	19477	18080	151913	27192	973951	39448	107114	0	0	8102	781611	0	0
2024-05-16 23:10:32			0	33348	0	0	0	19467	18070	151777	27467	973863	39448	107110	0	0	8102	782567	0	0
2024-05-16 23:11:32			0	33350	0	0	0	19464	18080	151789	27308	974004	39437	107109	0	0	8102	782423	0	0
2024-05-16 23:12:32			0	33351	0	0	0	19470	18070	151693	26996	973916	39458	107111	0	0	8102	782415	0	0
2024-05-16 23:13:32			0	33358	0	0	0	19467	18080	151877	27211	973871	39458	107110	0	0	8102	782017	0	0
2024-05-16 23:14:32			0	33332	0	0	0	19467	18070	151845	27291	973916	39448	107110	0	0	8101	783380	0	0
2024-05-16 23:15:32			0	33351	0	0	0	19464	18080	151913	27209	973924	39458	107109	0	0	8102	782372	0	0
2024-05-16 23:16:32			0	33355	0	0	0	19470	18070	151881	27563	973890	39448	107111	0	0	8102	782212	0	0
2024-05-16 23:17:32			0	33334	0	0	0	19470	18080	151885	27317	973933	39449	107111	0	0	8101	783236	0	0
2024-05-16 23:18:32			0	33330	0	0	0	19467	18080	151877	27426	973818	39448	107110	0	0	8100	783439	0	0
2024-05-16 23:19:32			0	33372	0	0	0	19467	18070	151785	27866	973908	39448	107110	0	0	8103	781349	0	0
2024-05-16 23:20:32			0	33367	0	0	0	19470	18070	151865	27476	973863	39448	107111	0	0	8103	781603	0	0
2024-05-16 23:21:32			0	33361	0	0	0	19470	18070	151993	27303	973916	39458	107111	0	0	8102	781907	0	0
2024-05-16 23:22:32			0	33343	0	0	0	19462	18060	151797	27319	973873	39436	107108	0	0	8101	782864	0	0
2024-05-16 23:23:32			0	33341	0	0	0	19467	18080	151865	27303	973924	39426	107110	0	0	8101	782880	0	0
2024-05-16 23:24:32			0	33340	0	0	0	19459	18070	151905	27305	973908	39426	107107	0	0	8101	782974	0	0
2024-05-16 23:25:32			0	33345	0	0	0	19467	18060	151889	27253	973847	39447	107110	0	0	8101	782762	0	0
2024-05-16 23:26:32			0	33352	0	0	0	19462	18070	151765	27046	973837	39448	107108	0	0	8102	782364	0	0
2024-05-16 23:27:32			0	33360	0	0	0	19464	18070	151805	27341	973916	39448	107109	0	0	8102	781958	0	0
2024-05-16 23:28:32			0	33377	0	0	0	19464	18060	151697	27041	973838	39446	107109	0	0	8103	781138	0	0
2024-05-16 23:29:32			0	33387	0	0	0	19462	18060	151709	27046	973899	39447	107108	0	0	8104	780631	0	0
2024-05-16 23:30:32			0	33383	0	0	0	19462	18060	151629	26944	973873	39458	107108	0	0	8104	780834	0	0
2024-05-16 23:31:32			0	33404	0	0	0	19467	18080	151577	27078	973845	39458	107110	0	0	8105	779685	0	0
2024-05-16 23:32:32			0	33387	0	0	0	19467	18070	151565	27183	973881	39448	107110	0	0	8104	780588	0	0
2024-05-16 23:33:32			0	33390	0	0	0	19459	18070	151549	26942	973881	39448	107107	0	0	8104	780436	0	0
2024-05-16 23:34:32			0	33418	0	0	0	19454	18070	151721	27338	973855	39458	107105	0	0	8106	779019	0	0
2024-05-16 23:35:32			0	33400	0	0	0	19462	18070	151577	27251	973863	39437	107108	0	0	8105	779930	0	0
2024-05-16 23:36:32			0	33396	0	0	0	19472	18070	151593	27402	973908	39448	107112	0	0	8104	780132	0	0
2024-05-16 23:37:32			0	33397	0	0	0	19454	18070	151709	27272	973890	39448	107105	0	0	8105	780082	0	0
2024-05-16 23:38:32			0	33375	0	0	0	19464	18070	151689	27372	973890	39437	107109	0	0	8103	781197	0	0
2024-05-16 23:39:32			0	33357	0	0	0	19467	18060	151809	27360	973873	39458	107110	0	0	8102	782153	0	0
2024-05-16 23:40:32			0	33351	0	0	0	19467	18070	151893	27367	973855	39437	107110	0	0	8102	782415	0	0
2024-05-16 23:41:32			0	33351	0	0	0	19464	18060	151941	27197	973899	39447	107109	0	0	8102	782458	0	0
2024-05-16 23:42:32			0	33334	0	0	0	19459	18070	151921	27479	973961	39448	107107	0	0	8101	783279	0	0
2024-05-16 23:43:32			0	33314	0	0	0	19464	18070	151985	27258	973908	39458	107109	0	0	8100	784296	0	0
2024-05-16 23:44:32			0	33323	0	0	0	19457	18060	151889	27313	973838	39446	107106	0	0	8100	783881	0	0
2024-05-16 23:45:32			0	33329	0	0	0	19459	18070	151909	26871	973881	39437	107107	0	0	8101	783533	0	0
2024-05-16 23:46:32			0	33308	0	0	0	19464	18060	151953	27062	973918	39446	107109	0	0	8099	784644	0	0
2024-05-16 23:47:32			0	33295	0	0	0	19459	18060	152125	27592	973873	39447	107107	0	0	8098	785306	0	0
2024-05-16 23:48:32			0	33294	0	0	0	19459	18060	151993	27138	973899	39436	107107	0	0	8098	785357	0	0
2024-05-16 23:49:32			0	33278	0	0	0	19462	18060	152161	27242	973873	39447	107108	0	0	8097	786172	0	0
2024-05-16 23:50:32			0	33261	0	0	0	19454	18070	152345	27274	973881	39448	107105	0	0	8097	786996	0	0
2024-05-16 23:51:32			0	33246	0	0	0	19451	18050	152293	26956	973848	39467	107104	0	0	8096	787848	0	0
2024-05-16 23:52:32			0	33237	0	0	0	19457	18060	152365	27249	973812	39446	107106	0	0	8095	788265	0	0
2024-05-16 23:53:32			0	33216	0	0	0	19451	18060	152485	27277	973865	39435	107104	0	0	8094	789339	0	0
2024-05-16 23:54:32			0	33179	0	0	0	19457	18050	152605	27187	973856	39457	107106	0	0	8092	791276	0	0
2024-05-16 23:55:32			0	33164	0	0	0	19462	18070	152625	27138	973908	39458	107108	0	0	8091	791959	0	0
2024-05-16 23:56:32			0	33166	0	0	0	19446	18050	152753	27140	973830	39457	107102	0	0	8091	791943	0	0
2024-05-16 23:57:32			0	33159	0	0	0	19457	18060	152745	27268	973865	39446	107106	0	0	8090	792259	0	0
2024-05-16 23:58:32			0	33125	0	0	0	19459	18060	152881	27362	973794	39436	107107	0	0	8088	794005	0	0
2024-05-16 23:59:32			0	33137	0	0	0	19451	18060	152937	27383	973838	39458	107104	0	0	8089	793388	0	0
2024-05-17 00:00:32			0	33104	0	0	0	19451	18060	153057	27287	973891	39458	107104	0	0	8087	795085	0	0
2024-05-17 00:01:32			0	33094	0	0	0	19449	18050	153009	27239	973875	39446	107103	0	0	8087	795643	0	0
2024-05-17 00:02:32			0	33068	0	0	0	19446	18050	153173	27097	973804	39457	107102	0	0	8085	796983	0	0
2024-05-17 00:03:32			0	33060	0	0	0	19444	18060	153193	27350	973873	39447	107101	0	0	8085	797352	0	0
2024-05-17 00:04:32			0	33056	0	0	0	19457	18050	153373	26965	973830	39446	107106	0	0	8084	797602	0	0
2024-05-17 00:05:32			0	33033	0	0	0	19451	18060	153361	27230	973847	39458	107104	0	0	8083	798745	0	0
2024-05-17 00:06:32			0	33035	0	0	0	19459	18060	153261	27154	973873	39458	107107	0	0	8083	798642	0	0
2024-05-17 00:07:32			0	33057	0	0	0	19454	18060	153157	27194	973865	39458	107105	0	0	8084	797506	0	0
2024-05-17 00:08:32			0	33078	0	0	0	19449	18040	153133	26994	973805	39445	107103	0	0	8086	796511	0	0
2024-05-17 00:09:32			0	33073	0	0	0	19451	18050	153253	27507	973856	39457	107104	0	0	8085	796725	0	0
2024-05-17 00:10:32			0	33063	0	0	0	19446	18060	153249	27374	973820	39458	107102	0	0	8085	797197	0	0
2024-05-17 00:11:32			0	33060	0	0	0	19451	18060	153277	27258	973847	39447	107104	0	0	8085	797352	0	0
2024-05-17 00:12:32			0	33045	0	0	0	19444	18060	153289	27246	973812	39458	107101	0	0	8084	798126	0	0
2024-05-17 00:13:32			0	33037	0	0	0	19444	18040	153397	27194	973840	39446	107101	0	0	8083	798626	0	0
2024-05-17 00:14:32			0	33029	0	0	0	19425	18060	153481	27001	973865	39446	107094	0	0	8083	798952	0	0
2024-05-17 00:15:32			0	33034	0	0	0	19438	18040	153421	27130	973813	39446	107099	0	0	8083	798781	0	0
2024-05-17 00:16:32			0	32999	0	0	0	19436	18040	153589	27072	973813	39446	107098	0	0	8081	800591	0	0
2024-05-17 00:17:32			0	32963	0	0	0	19433	18040	153737	27137	973813	39434	107097	0	0	8079	802456	0	0
2024-05-17 00:18:32			0	32908	0	0	0	19425	18050	153997	27517	973769	39446	107094	0	0	8076	805268	0	0
2024-05-17 00:19:32			0	32874	0	0	0	19431	18050	154085	27293	973830	39457	107096	0	0	8074	807038	0	0
2024-05-17 00:20:32			0	32851	0	0	0	19423	18040	154213	27338	973787	39457	107093	0	0	8072	808281	0	0
2024-05-17 00:21:32			0	32828	0	0	0	19415	18040	154381	27197	973761	39446	107090	0	0	8071	809482	0	0
2024-05-17 00:22:32			0	32813	0	0	0	19418	18040	154433	27062	973761	39446	107091	0	0	8070	810266	0	0
2024-05-17 00:23:32			0	32778	0	0	0	19420	18040	154596	26989	973761	39457	107092	0	0	8068	812097	0	0
2024-05-17 00:24:32			0	32745	0	0	0	19412	18040	154616	27720	973726	39445	107089	0	0	8066	813827	0	0
2024-05-17 00:25:32			0	32754	0	0	0	19420	18030	154732	27533	973797	39444	107092	0	0	8066	813399	0	0
2024-05-17 00:26:32			0	32716	0	0	0	19407	18030	154780	27326	973683	39433	107087	0	0	8064	815394	0	0
2024-05-17 00:27:32			0	32725	0	0	0	19410	18040	154972	27190	973726	39422	107088	0	0	8065	814877	0	0
2024-05-17 00:28:32			0	32694	0	0	0	19407	18030	155052	27512	973709	39455	107087	0	0	8063	816551	0	0
2024-05-17 00:29:32			0	32660	0	0	0	19402	18030	155132	27405	973656	39455	107085	0	0	8061	818342	0	0
2024-05-17 00:30:32			0	32661	0	0	0	19399	18030	155184	27079	973709	39455	107084	0	0	8061	818289	0	0
2024-05-17 00:31:32			0	32631	0	0	0	19407	18020	155300	27119	973727	39433	107087	0	0	8059	819917	0	0
2024-05-17 00:32:32			0	32641	0	0	0	19415	18020	155276	27530	973675	39433	107090	0	0	8059	819389	0	0
2024-05-17 00:33:32			0	32627	0	0	0	19418	18020	155336	27209	973675	39465	107091	0	0	8059	820128	0	0
2024-05-17 00:34:32			0	32636	0	0	0	19415	18010	155336	27393	973684	39442	107090	0	0	8059	819698	0	0
2024-05-17 00:35:32			0	32624	0	0	0	19410	18030	155364	27308	973709	39455	107088	0	0	8059	820242	0	0
2024-05-17 00:36:32			0	32615	0	0	0	19405	18010	155288	27208	973632	39453	107086	0	0	8058	820807	0	0
2024-05-17 00:37:32			0	32627	0	0	0	19402	18020	155412	27685	973666	39454	107085	0	0	8059	820128	0	0
2024-05-17 00:38:32			0	32640	0	0	0	19402	18020	155356	27440	973701	39433	107085	0	0	8060	819442	0	0
2024-05-17 00:39:32			0	32643	0	0	0	19399	18010	155280	27300	973684	39431	107084	0	0	8060	819328	0	0
2024-05-17 00:40:32			0	32632	0	0	0	19405	18000	155332	27275	973641	39442	107086	0	0	8059	819953	0	0
2024-05-17 00:41:32			0	32623	0	0	0	19397	18010	155344	27519	973632	39442	107083	0	0	8059	820384	0	0
2024-05-17 00:42:32			0	32620	0	0	0	19410	18010	155336	27263	973658	39442	107088	0	0	8058	820543	0	0
2024-05-17 00:43:32			0	32630	0	0	0	19407	18010	155380	27661	973676	39442	107087	0	0	8059	820014	0	0
2024-05-17 00:44:32			0	32649	0	0	0	19387	18010	155252	27393	973597	39442	107079	0	0	8060	819012	0	0
2024-05-17 00:45:32			0	32654	0	0	0	19392	18010	155280	27518	973676	39453	107081	0	0	8061	818748	0	0
2024-05-17 00:46:32			0	32645	0	0	0	19392	18000	155252	27360	973668	39453	107081	0	0	8060	819267	0	0
2024-05-17 00:47:32			0	32621	0	0	0	19392	18010	155388	27069	973658	39442	107081	0	0	8059	820490	0	0
2024-05-17 00:48:32			0	32616	0	0	0	19389	18010	155476	27062	973623	39431	107080	0	0	8058	820754	0	0
2024-05-17 00:49:32			0	32613	0	0	0	19392	18000	155452	27376	973589	39442	107081	0	0	8058	820957	0	0
2024-05-17 00:50:32			0	32600	0	0	0	19384	18010	155432	27352	973623	39442	107078	0	0	8057	821600	0	0
2024-05-17 00:51:32			0	32610	0	0	0	19379	18010	155556	27267	973650	39453	107076	0	0	8058	821071	0	0
2024-05-17 00:52:32			0	32605	0	0	0	19379	18000	155568	27422	973580	39452	107076	0	0	8058	821380	0	0
2024-05-17 00:53:32			0	32591	0	0	0	19394	18000	155592	27485	973501	39452	107082	0	0	8057	822121	0	0
2024-05-17 00:54:32			0	32613	0	0	0	19392	17990	155520	27445	973537	39439	107081	0	0	8058	821002	0	0
2024-05-17 00:55:32			0	32588	0	0	0	19374	18000	155428	27455	973562	39442	107074	0	0	8057	822280	0	0
2024-05-17 00:56:32			0	32610	0	0	0	19374	18000	155464	27466	973536	39442	107074	0	0	8058	821116	0	0
2024-05-17 00:57:32			0	32602	0	0	0	19368	17980	155488	27670	973608	39451	107072	0	0	8058	821629	0	0
2024-05-17 00:58:32			0	32592	0	0	0	19374	18000	155492	27253	973694	39442	107074	0	0	8057	822068	0	0
2024-05-17 00:59:32			0	32614	0	0	0	19387	17990	155568	27395	973590	39428	107079	0	0	8058	820949	0	0
2024-05-17 01:00:32			0	32620	0	0	0	19376	17990	155388	27461	973564	39439	107075	0	0	8059	820632	0	0
2024-05-17 01:01:32			0	32642	0	0	0	19374	17990	155300	27417	973617	39439	107074	0	0	8060	819470	0	0
2024-05-17 01:02:32			0	32645	0	0	0	19381	17980	155428	27022	973582	39439	107077	0	0	8060	819357	0	0
2024-05-17 01:03:32			0	32629	0	0	0	19374	17990	155376	27261	973537	39439	107074	0	0	8059	820157	0	0
2024-05-17 01:04:32			0	32618	0	0	0	19368	17980	155424	27225	973582	39428	107072	0	0	8059	820783	0	0
2024-05-17 01:05:32			0	32604	0	0	0	19376	17980	155456	27588	973555	39417	107075	0	0	8058	821523	0	0
2024-05-17 01:06:32			0	32587	0	0	0	19381	17990	155624	27275	973572	39440	107077	0	0	8057	822377	0	0
2024-05-17 01:07:32			0	32590	0	0	0	19371	17980	155620	27346	973582	39428	107073	0	0	8057	822264	0	0
2024-05-17 01:08:32			0	32594	0	0	0	19376	17980	155592	27007	973555	39451	107075	0	0	8057	822052	0	0
2024-05-17 01:09:32			0	32595	0	0	0	19376	17980	155600	27220	973555	39451	107075	0	0	8057	821999	0	0
2024-05-17 01:10:32			0	32588	0	0	0	19366	17980	155532	27156	973494	39417	107071	0	0	8057	822369	0	0
2024-05-17 01:11:32			0	32578	0	0	0	19366	17980	155648	27062	973582	39428	107071	0	0	8056	822899	0	0
2024-05-17 01:12:32			0	32571	0	0	0	19371	17990	155600	27313	973537	39451	107073	0	0	8056	823225	0	0
2024-05-17 01:13:32			0	32549	0	0	0	19368	17990	155832	27140	973546	39440	107072	0	0	8054	824391	0	0
2024-05-17 01:14:32			0	32537	0	0	0	19366	17980	155728	27405	973502	39451	107071	0	0	8054	825073	0	0
2024-05-17 01:15:32			0	32530	0	0	0	19361	17980	155848	27350	973573	39428	107069	0	0	8053	825445	0	0
2024-05-17 01:16:32			0	32527	0	0	0	19355	17980	155936	27462	973529	39428	107067	0	0	8053	825604	0	0
2024-05-17 01:17:32			0	32523	0	0	0	19363	17970	155972	27185	973486	39439	107070	0	0	8053	825862	0	0
2024-05-17 01:18:32			0	32517	0	0	0	19355	17970	155980	27249	973539	39427	107067	0	0	8053	826181	0	0
2024-05-17 01:19:32			0	32514	0	0	0	19358	17970	155984	27571	973459	39439	107068	0	0	8052	826340	0	0
2024-05-17 01:20:32			0	32504	0	0	0	19358	17960	156004	27393	973496	39438	107068	0	0	8052	826917	0	0
2024-05-17 01:21:32			0	32524	0	0	0	19358	17970	155964	27239	973477	39427	107068	0	0	8053	825809	0	0
2024-05-17 01:22:32			0	32519	0	0	0	19358	17970	155884	27183	973539	39416	107068	0	0	8053	826074	0	0
2024-05-17 01:23:32			0	32522	0	0	0	19355	17980	155968	27372	973520	39439	107067	0	0	8053	825870	0	0
2024-05-17 01:24:32			0	32543	0	0	0	19355	17970	155912	27625	973530	39449	107067	0	0	8054	824800	0	0
2024-05-17 01:25:32			0	32516	0	0	0	19358	17960	155980	27684	973469	39416	107068	0	0	8052	826279	0	0
2024-05-17 01:26:32			0	32527	0	0	0	19358	17970	155984	27372	973504	39449	107068	0	0	8053	825649	0	0
2024-05-17 01:27:32			0	32507	0	0	0	19350	17950	155976	27383	973426	39448	107065	0	0	8052	826802	0	0
2024-05-17 01:28:32			0	32511	0	0	0	19358	17960	155988	27685	973496	39438	107068	0	0	8052	826544	0	0
2024-05-17 01:29:32			0	32519	0	0	0	19342	17960	156080	27390	973469	39438	107062	0	0	8053	826119	0	0
2024-05-17 01:30:32			0	32509	0	0	0	19345	17950	156124	27630	973426	39437	107063	0	0	8052	826696	0	0
2024-05-17 01:31:32			0	32506	0	0	0	19348	17970	156052	27447	973530	39438	107064	0	0	8052	826765	0	0
2024-05-17 01:32:32			0	32512	0	0	0	19335	17960	156032	27483	973408	39438	107059	0	0	8053	826491	0	0
2024-05-17 01:33:32			0	32500	0	0	0	19340	17960	156092	27260	973390	39438	107061	0	0	8052	827130	0	0
2024-05-17 01:34:32			0	32481	0	0	0	19335	17960	156176	27270	973461	39438	107059	0	0	8051	828141	0	0
2024-05-17 01:35:32			0	32488	0	0	0	19332	17960	156184	27263	973355	39427	107058	0	0	8051	827768	0	0
2024-05-17 01:36:32			0	32496	0	0	0	19335	17950	156212	27402	973453	39437	107059	0	0	8052	827387	0	0
2024-05-17 01:37:32			0	32491	0	0	0	19335	17950	156196	27483	973400	39448	107059	0	0	8051	827653	0	0
2024-05-17 01:38:32			0	32501	0	0	0	19319	17940	156132	27140	973375	39436	107053	0	0	8052	827167	0	0
2024-05-17 01:39:32			0	32507	0	0	0	19337	17950	156124	27689	973426	39437	107060	0	0	8052	826802	0	0
2024-05-17 01:40:32			0	32515	0	0	0	19327	17950	156020	27324	973392	39425	107056	0	0	8053	826377	0	0
2024-05-17 01:41:32			0	32542	0	0	0	19327	17940	155972	27407	973322	39425	107056	0	0	8054	824988	0	0
2024-05-17 01:42:32			0	32542	0	0	0	19311	17940	155844	27267	973296	39436	107050	0	0	8055	824988	0	0
2024-05-17 01:43:32			0	32546	0	0	0	19319	17950	155972	27530	973418	39425	107053	0	0	8055	824730	0	0
2024-05-17 01:44:32			0	32531	0	0	0	19306	17950	155976	27301	973365	39425	107048	0	0	8054	825527	0	0
2024-05-17 01:45:32			0	32548	0	0	0	19311	17930	155872	27556	973340	39424	107050	0	0	8055	824714	0	0
2024-05-17 01:46:32			0	32556	0	0	0	19306	17930	155784	27478	973261	39414	107048	0	0	8056	824290	0	0
2024-05-17 01:47:32			0	32575	0	0	0	19306	17940	155788	27414	973322	39425	107048	0	0	8057	823237	0	0
2024-05-17 01:48:32			0	32551	0	0	0	19316	17930	155960	27393	973340	39435	107052	0	0	8055	824555	0	0
2024-05-17 01:49:32			0	32550	0	0	0	19309	17930	155992	27244	973306	39434	107049	0	0	8055	824608	0	0
2024-05-17 01:50:32			0	32537	0	0	0	19306	17930	155908	27289	973287	39414	107048	0	0	8054	825298	0	0
2024-05-17 01:51:32			0	32524	0	0	0	19301	17930	156008	27630	973306	39445	107046	0	0	8054	825989	0	0
2024-05-17 01:52:32			0	32515	0	0	0	19303	17930	156032	27291	973314	39446	107047	0	0	8053	826467	0	0
2024-05-17 01:53:32			0	32497	0	0	0	19303	17920	156016	27039	973350	39434	107047	0	0	8052	827469	0	0
2024-05-17 01:54:32			0	32503	0	0	0	19298	17920	156052	27398	973263	39445	107045	0	0	8052	827150	0	0
2024-05-17 01:55:32			0	32511	0	0	0	19301	17920	156244	27647	973324	39423	107046	0	0	8053	826725	0	0
2024-05-17 01:56:32			0	32487	0	0	0	19301	17920	156180	27540	973271	39423	107046	0	0	8051	828002	0	0
2024-05-17 01:57:32			0	32512	0	0	0	19288	17920	156168	27419	973297	39413	107041	0	0	8053	826672	0	0
2024-05-17 01:58:32			0	32491	0	0	0	19290	17920	156084	27530	973271	39423	107042	0	0	8052	827789	0	0
2024-05-17 01:59:32			0	32498	0	0	0	19306	17920	156120	27504	973236	39433	107048	0	0	8052	827416	0	0
2024-05-17 02:00:32			0	32513	0	0	0	19290	17910	156092	27338	973281	39422	107042	0	0	8053	826663	0	0
2024-05-17 02:01:32			0	32502	0	0	0	19296	17910	156276	27467	973254	39422	107044	0	0	8052	827249	0	0
2024-05-17 02:02:32			0	32492	0	0	0	19277	17900	156232	27552	973220	39421	107037	0	0	8052	827826	0	0
2024-05-17 02:03:32			0	32492	0	0	0	19280	17910	156228	27717	973254	39433	107038	0	0	8052	827781	0	0
2024-05-17 02:04:32			0	32478	0	0	0	19280	17900	156276	27339	973193	39433	107038	0	0	8051	828571	0	0
2024-05-17 02:05:32			0	32493	0	0	0	19283	17900	156292	27360	973238	39432	107039	0	0	8052	827773	0	0
2024-05-17 02:06:32			0	32523	0	0	0	19283	17900	156068	27332	973246	39433	107039	0	0	8054	826177	0	0
2024-05-17 02:07:32			0	32545	0	0	0	19290	17900	155924	27364	973238	39432	107042	0	0	8055	825008	0	0
2024-05-17 02:08:32			0	32549	0	0	0	19293	17910	156080	27220	973228	39412	107043	0	0	8055	824751	0	0
2024-05-17 02:09:32			0	32579	0	0	0	19298	17900	155788	27239	973211	39421	107045	0	0	8057	823205	0	0
2024-05-17 02:10:32			0	32598	0	0	0	19293	17900	155752	27369	973264	39432	107043	0	0	8058	822199	0	0
2024-05-17 02:11:32			0	32632	0	0	0	19298	17900	155548	27497	973264	39443	107045	0	0	8060	820401	0	0
2024-05-17 02:12:32			0	32663	0	0	0	19301	17900	155496	27516	973238	39421	107046	0	0	8062	818764	0	0
2024-05-17 02:13:32			0	32684	0	0	0	19314	17900	155384	27547	973317	39421	107051	0	0	8063	817657	0	0
2024-05-17 02:14:32			0	32716	0	0	0	19314	17900	155204	27190	973246	39444	107051	0	0	8065	815973	0	0
2024-05-17 02:15:32			0	32769	0	0	0	19303	17910	154952	27336	973281	39433	107047	0	0	8069	813145	0	0
2024-05-17 02:16:32			0	32779	0	0	0	19277	17910	154988	27464	973281	39445	107037	0	0	8070	812621	0	0
2024-05-17 02:17:32			0	32727	0	0	0	19285	17900	155140	27590	973246	39444	107040	0	0	8066	815394	0	0
2024-05-17 02:18:32			0	32731	0	0	0	19293	17910	155236	27436	973228	39422	107043	0	0	8067	815140	0	0
2024-05-17 02:19:32			0	32695	0	0	0	19301	17900	155292	27722	973264	39421	107046	0	0	8064	817078	0	0
2024-05-17 02:20:32			0	32720	0	0	0	19296	17910	155196	27409	973254	39433	107044	0	0	8066	815718	0	0
2024-05-17 02:21:32			0	32720	0	0	0	19290	17900	155156	27744	973193	39433	107042	0	0	8066	815762	0	0
2024-05-17 02:22:32			0	32716	0	0	0	19293	17890	155116	27201	973230	39432	107043	0	0	8065	816017	0	0
2024-05-17 02:23:32			0	32709	0	0	0	19288	17910	155244	27429	973281	39445	107041	0	0	8065	816296	0	0
2024-05-17 02:24:32			0	32717	0	0	0	19301	17910	155184	27317	973281	39445	107046	0	0	8066	815876	0	0
2024-05-17 02:25:32			0	32775	0	0	0	19298	17910	154917	27715	973307	39445	107045	0	0	8069	812830	0	0
2024-05-17 02:26:32			0	32806	0	0	0	19290	17910	154753	27602	973281	39422	107042	0	0	8071	811207	0	0
2024-05-17 02:27:32			0	32792	0	0	0	19293	17900	154853	27812	973272	39421	107043	0	0	8070	811984	0	0
2024-05-17 02:28:32			0	32793	0	0	0	19290	17900	154785	27301	973246	39433	107042	0	0	8070	811931	0	0
2024-05-17 02:29:32			0	32804	0	0	0	19288	17890	154785	27286	973203	39432	107041	0	0	8071	811400	0	0
2024-05-17 02:30:32			0	32834	0	0	0	19290	17900	154697	27743	973238	39410	107042	0	0	8073	809786	0	0
2024-05-17 02:31:32			0	32861	0	0	0	19285	17900	154465	27665	973220	39433	107040	0	0	8075	808376	0	0
2024-05-17 02:32:32			0	32858	0	0	0	19290	17910	154497	27595	973281	39433	107042	0	0	8074	808489	0	0
2024-05-17 02:33:32			0	32865	0	0	0	19270	17890	154513	27587	973230	39421	107034	0	0	8075	808212	0	0
2024-05-17 02:34:32			0	32852	0	0	0	19277	17890	154693	27760	973203	39421	107037	0	0	8074	808890	0	0
2024-05-17 02:35:32			0	32832	0	0	0	19285	17890	154657	27452	973177	39432	107040	0	0	8073	809935	0	0
2024-05-17 02:36:32			0	32840	0	0	0	19277	17890	154657	27770	973230	39421	107037	0	0	8073	809517	0	0
2024-05-17 02:37:32			0	32859	0	0	0	19280	17900	154545	27237	973238	39432	107038	0	0	8074	808481	0	0
2024-05-17 02:38:32			0	32864	0	0	0	19267	17900	154593	27689	973246	39433	107033	0	0	8075	808220	0	0
2024-05-17 02:39:32			0	32873	0	0	0	19288	17890	154453	27925	973203	39432	107041	0	0	8075	807794	0	0
2024-05-17 02:40:32			0	32890	0	0	0	19309	17890	154449	27618	973221	39443	107049	0	0	8076	806908	0	0
2024-05-17 02:41:32			0	32954	0	0	0	19311	17890	154137	27498	973282	39432	107050	0	0	8080	803579	0	0
2024-05-17 02:42:32			0	33002	0	0	0	19277	17900	153877	27365	973238	39443	107037	0	0	8083	801047	0	0
2024-05-17 02:43:32			0	33004	0	0	0	19303	17890	153793	27460	973256	39421	107047	0	0	8083	800987	0	0
2024-05-17 02:44:32			0	33003	0	0	0	19270	17900	153933	27511	973264	39432	107034	0	0	8083	800995	0	0
2024-05-17 02:45:32			0	33003	0	0	0	19296	17900	153933	27582	973272	39421	107044	0	0	8083	800995	0	0
2024-05-17 02:46:32			0	32987	0	0	0	19267	17900	153925	27665	973246	39433	107033	0	0	8082	801824	0	0
2024-05-17 02:47:32			0	32981	0	0	0	19267	17890	153973	27542	973203	39421	107033	0	0	8082	802179	0	0
2024-05-17 02:48:32			0	32970	0	0	0	19270	17890	154053	27287	973203	39421	107034	0	0	8081	802749	0	0
2024-05-17 02:49:32			0	32963	0	0	0	19306	17900	154017	27537	973238	39432	107048	0	0	8080	803068	0	0
2024-05-17 02:50:32			0	32959	0	0	0	19306	17900	154013	27710	973264	39432	107048	0	0	8080	803276	0	0
2024-05-17 02:51:32			0	32991	0	0	0	19267	17900	153829	27429	973238	39432	107033	0	0	8083	801616	0	0
2024-05-17 02:52:32			0	32948	0	0	0	19280	17900	154061	27360	973185	39432	107038	0	0	8080	803847	0	0
2024-05-17 02:53:32			0	32901	0	0	0	19277	17890	154173	27800	973195	39432	107037	0	0	8077	806335	0	0
2024-05-17 02:54:32			0	32898	0	0	0	19283	17880	154285	27677	973134	39409	107039	0	0	8077	806536	0	0
2024-05-17 02:55:32			0	32876	0	0	0	19298	17890	154397	27421	973203	39432	107045	0	0	8075	807638	0	0
2024-05-17 02:56:32			0	32873	0	0	0	19290	17890	154465	27171	973203	39421	107042	0	0	8075	807794	0	0
2024-05-17 02:57:32			0	32890	0	0	0	19285	17890	154273	27435	973203	39432	107040	0	0	8076	806908	0	0
2024-05-17 02:58:32			0	32878	0	0	0	19293	17890	154369	27588	973168	39432	107043	0	0	8075	807534	0	0
2024-05-17 02:59:32			0	32879	0	0	0	19298	17890	154377	27675	973274	39432	107045	0	0	8075	807482	0	0
2024-05-17 03:00:32			0	32916	0	0	0	19293	17910	154289	27824	973281	39445	107043	0	0	8078	805467	0	0
2024-05-17 03:01:32			0	32929	0	0	0	19290	17900	154393	27386	973238	39432	107042	0	0	8079	804835	0	0
2024-05-17 03:02:32			0	32926	0	0	0	19272	17900	154201	27682	973185	39421	107035	0	0	8079	804991	0	0
2024-05-17 03:03:32			0	32895	0	0	0	19293	17900	154373	27415	973220	39433	107043	0	0	8076	806604	0	0
2024-05-17 03:04:32			0	32889	0	0	0	19290	17900	154337	27571	973238	39432	107042	0	0	8076	806916	0	0
2024-05-17 03:05:32			0	32872	0	0	0	19314	17900	154433	27639	973211	39432	107051	0	0	8075	807803	0	0
2024-05-17 03:06:32			0	32866	0	0	0	19322	17890	154425	27594	973221	39432	107054	0	0	8074	808160	0	0
2024-05-17 03:07:32			0	32917	0	0	0	19322	17900	154201	27445	973325	39421	107054	0	0	8077	805459	0	0
2024-05-17 03:08:32			0	32954	0	0	0	19288	17910	154017	27410	973281	39433	107041	0	0	8080	803492	0	0
2024-05-17 03:09:32			0	32953	0	0	0	19301	17900	154141	27338	973325	39455	107046	0	0	8080	803588	0	0
2024-05-17 03:10:32			0	32920	0	0	0	19293	17900	154141	27357	973272	39433	107043	0	0	8078	805303	0	0
2024-05-17 03:11:32			0	32938	0	0	0	19283	17900	154157	27422	973272	39421	107039	0	0	8079	804367	0	0
2024-05-17 03:12:32			0	32915	0	0	0	19267	17910	154293	27353	973228	39412	107033	0	0	8078	805519	0	0
2024-05-17 03:13:32			0	32883	0	0	0	19280	17910	154369	27549	973228	39433	107038	0	0	8076	807185	0	0
2024-05-17 03:14:32			0	32855	0	0	0	19298	17900	154429	27445	973238	39432	107045	0	0	8074	808690	0	0
2024-05-17 03:15:32			0	32867	0	0	0	19296	17900	154525	27410	973238	39432	107044	0	0	8075	808063	0	0
2024-05-17 03:16:32			0	32872	0	0	0	19293	17890	154513	27112	973256	39421	107043	0	0	8075	807847	0	0
2024-05-17 03:17:32			0	32864	0	0	0	19290	17890	154465	27142	973177	39443	107042	0	0	8075	808264	0	0
2024-05-17 03:18:32			0	32868	0	0	0	19283	17890	154273	27561	973256	39432	107039	0	0	8075	808055	0	0
2024-05-17 03:19:32			0	32880	0	0	0	19270	17900	154341	27229	973238	39421	107034	0	0	8076	807385	0	0
2024-05-17 03:20:32			0	32872	0	0	0	19272	17890	154465	27183	973177	39432	107035	0	0	8075	807847	0	0
2024-05-17 03:21:32			0	32851	0	0	0	19283	17890	154641	27286	973142	39421	107039	0	0	8074	808942	0	0
2024-05-17 03:22:32			0	32826	0	0	0	19293	17890	154597	27421	973230	39432	107043	0	0	8072	810249	0	0
2024-05-17 03:23:32			0	32810	0	0	0	19288	17900	154645	27305	973291	39454	107041	0	0	8071	811041	0	0
2024-05-17 03:24:32			0	32838	0	0	0	19298	17880	154605	27471	973187	39431	107045	0	0	8073	809666	0	0
2024-05-17 03:25:32			0	32870	0	0	0	19309	17900	154573	27410	973264	39421	107049	0	0	8075	807907	0	0
2024-05-17 03:26:32			0	32919	0	0	0	19303	17900	154381	27840	973272	39433	107047	0	0	8078	805355	0	0
2024-05-17 03:27:32			0	32916	0	0	0	19288	17900	154241	27204	973238	39410	107041	0	0	8078	805511	0	0
2024-05-17 03:28:32			0	32927	0	0	0	19288	17900	154213	27355	973299	39421	107041	0	0	8078	804939	0	0
2024-05-17 03:29:32			0	32935	0	0	0	19275	17900	154229	27405	973264	39443	107036	0	0	8079	804523	0	0
2024-05-17 03:30:32			0	32924	0	0	0	19251	17890	154209	27078	973124	39410	107027	0	0	8079	805138	0	0
2024-05-17 03:31:32			0	32876	0	0	0	19251	17890	154461	27341	973177	39421	107027	0	0	8076	807638	0	0
2024-05-17 03:32:32			0	32839	0	0	0	19277	17890	154661	27364	973203	39421	107037	0	0	8073	809569	0	0
2024-05-17 03:33:32			0	32820	0	0	0	19264	17890	154709	27805	973142	39432	107032	0	0	8072	810563	0	0
2024-05-17 03:34:32			0	32811	0	0	0	19270	17890	154693	27466	973195	39432	107034	0	0	8072	811033	0	0
2024-05-17 03:35:32			0	32787	0	0	0	19283	17890	154745	27549	973142	39443	107039	0	0	8070	812290	0	0
2024-05-17 03:36:32			0	32795	0	0	0	19270	17880	154749	27235	973160	39420	107034	0	0	8071	811915	0	0
2024-05-17 03:37:32			0	32793	0	0	0	19272	17880	154781	27390	973213	39442	107035	0	0	8071	812020	0	0
2024-05-17 03:38:32			0	32797	0	0	0	19259	17890	154893	27332	973142	39421	107030	0	0	8071	811766	0	0
2024-05-17 03:39:32			0	32778	0	0	0	19267	17880	154976	27341	973081	39420	107033	0	0	8070	812806	0	0
2024-05-17 03:40:32			0	32780	0	0	0	19280	17880	155033	27244	973178	39430	107038	0	0	8070	812701	0	0
2024-05-17 03:41:32			0	32796	0	0	0	19298	17880	154837	27632	973213	39420	107045	0	0	8070	811863	0	0
2024-05-17 03:42:32			0	32832	0	0	0	19285	17890	154721	27249	973221	39443	107040	0	0	8073	809935	0	0
2024-05-17 03:43:32			0	32862	0	0	0	19293	17880	154525	27289	973134	39431	107043	0	0	8074	808412	0	0
2024-05-17 03:44:32			0	32890	0	0	0	19277	17880	154397	27045	973266	39431	107037	0	0	8076	806952	0	0
2024-05-17 03:45:32			0	32882	0	0	0	19277	17890	154433	27215	973168	39432	107037	0	0	8076	807325	0	0
2024-05-17 03:46:32			0	32887	0	0	0	19277	17880	154457	26986	973231	39441	107037	0	0	8076	807109	0	0
2024-05-17 03:47:32			0	32874	0	0	0	19275	17880	154389	27324	973187	39420	107036	0	0	8075	807786	0	0
2024-05-17 03:48:32			0	32866	0	0	0	19277	17880	154529	27395	973205	39430	107037	0	0	8075	808204	0	0
2024-05-17 03:49:32			0	32861	0	0	0	19277	17880	154513	27457	973187	39431	107037	0	0	8075	808465	0	0
2024-05-17 03:50:32			0	32846	0	0	0	19267	17880	154681	27272	973178	39430	107033	0	0	8074	809248	0	0
2024-05-17 03:51:32			0	32840	0	0	0	19264	17890	154749	27104	973195	39421	107032	0	0	8074	809517	0	0
2024-05-17 03:52:32			0	32818	0	0	0	19267	17880	154761	27576	973152	39409	107033	0	0	8072	810711	0	0
2024-05-17 03:53:32			0	32800	0	0	0	19251	17880	154805	27428	973099	39409	107027	0	0	8071	811653	0	0
2024-05-17 03:54:32			0	32781	0	0	0	19257	17870	155013	27699	973170	39430	107029	0	0	8070	812693	0	0
2024-05-17 03:55:32			0	32771	0	0	0	19246	17880	155156	27464	973125	39419	107025	0	0	8070	813173	0	0
2024-05-17 03:56:32			0	32732	0	0	0	19246	17860	155164	27564	973101	39429	107025	0	0	8067	815309	0	0
2024-05-17 03:57:32			0	32707	0	0	0	19246	17870	155280	27607	973109	39409	107025	0	0	8066	816580	0	0
2024-05-17 03:58:32			0	32699	0	0	0	19270	17870	155368	27111	973117	39419	107034	0	0	8065	817001	0	0
2024-05-17 03:59:32			0	32696	0	0	0	19270	17860	155356	27305	973153	39429	107034	0	0	8065	817203	0	0
2024-05-17 04:00:32			0	32712	0	0	0	19272	17860	155412	27483	973206	39418	107035	0	0	8065	816361	0	0
2024-05-17 04:01:32			0	32692	0	0	0	19275	17870	155292	27443	973117	39430	107036	0	0	8064	817369	0	0
2024-05-17 04:02:32			0	32724	0	0	0	19275	17870	155232	27142	973144	39419	107036	0	0	8066	815685	0	0
2024-05-17 04:03:32			0	32719	0	0	0	19267	17870	155216	27403	973170	39441	107033	0	0	8066	815948	0	0
2024-05-17 04:04:32			0	32731	0	0	0	19272	17880	155308	27352	973205	39430	107035	0	0	8067	815273	0	0
2024-05-17 04:05:32			0	32701	0	0	0	19288	17860	155252	27246	973180	39429	107041	0	0	8065	816940	0	0
2024-05-17 04:06:32			0	32721	0	0	0	19283	17870	155220	27566	973170	39430	107039	0	0	8066	815843	0	0
2024-05-17 04:07:32			0	32739	0	0	0	19277	17880	155188	27267	973187	39431	107037	0	0	8067	814853	0	0
2024-05-17 04:08:32			0	32724	0	0	0	19275	17880	155276	27578	973213	39431	107036	0	0	8066	815641	0	0
2024-05-17 04:09:32			0	32734	0	0	0	19280	17880	155160	27235	973178	39419	107038	0	0	8067	815115	0	0
2024-05-17 04:10:32			0	32740	0	0	0	19288	17880	155188	27405	973231	39430	107041	0	0	8067	814800	0	0
2024-05-17 04:11:32			0	32759	0	0	0	19290	17880	155120	27254	973187	39442	107042	0	0	8068	813803	0	0
2024-05-17 04:12:32			0	32741	0	0	0	19277	17890	155164	27653	973203	39443	107037	0	0	8067	814703	0	0
2024-05-17 04:13:32			0	32740	0	0	0	19283	17880	155120	27588	973205	39430	107039	0	0	8067	814800	0	0
2024-05-17 04:14:32			0	32744	0	0	0	19283	17890	155108	27248	973150	39443	107039	0	0	8067	814546	0	0
2024-05-17 04:15:32			0	32744	0	0	0	19283	17890	155100	27566	973221	39421	107039	0	0	8067	814546	0	0
2024-05-17 04:16:32			0	32752	0	0	0	19285	17880	155088	27371	973266	39453	107040	0	0	8068	814170	0	0
2024-05-17 04:17:32			0	32751	0	0	0	19290	17880	155020	27383	973239	39442	107042	0	0	8068	814222	0	0
2024-05-17 04:18:32			0	32747	0	0	0	19275	17890	155028	27284	973203	39443	107036	0	0	8068	814388	0	0
2024-05-17 04:19:32			0	32754	0	0	0	19267	17890	155072	27483	973195	39432	107033	0	0	8068	814020	0	0
2024-05-17 04:20:32			0	32734	0	0	0	19272	17880	155128	27751	973134	39420	107035	0	0	8067	815115	0	0
2024-05-17 04:21:32			0	32714	0	0	0	19290	17880	155208	27469	973205	39419	107042	0	0	8065	816167	0	0
2024-05-17 04:22:32			0	32737	0	0	0	19301	17890	155320	27277	973248	39443	107046	0	0	8067	814913	0	0
2024-05-17 04:23:32			0	32727	0	0	0	19290	17880	155128	27694	973178	39430	107042	0	0	8066	815483	0	0
2024-05-17 04:24:32			0	32745	0	0	0	19296	17890	155236	27279	973203	39443	107044	0	0	8067	814493	0	0
2024-05-17 04:25:32			0	32747	0	0	0	19290	17890	155160	27383	973274	39432	107042	0	0	8067	814388	0	0
2024-05-17 04:26:32			0	32744	0	0	0	19290	17890	155116	27320	973248	39432	107042	0	0	8067	814546	0	0
2024-05-17 04:27:32			0	32742	0	0	0	19285	17880	155140	27517	973213	39442	107040	0	0	8067	814695	0	0
2024-05-17 04:28:32			0	32748	0	0	0	19285	17890	155180	27211	973195	39432	107040	0	0	8068	814335	0	0
2024-05-17 04:29:32			0	32730	0	0	0	19290	17890	155240	27561	973221	39443	107042	0	0	8066	815281	0	0
2024-05-17 04:30:32			0	32723	0	0	0	19285	17890	155184	27419	973221	39432	107040	0	0	8066	815649	0	0
2024-05-17 04:31:32			0	32737	0	0	0	19288	17880	155268	27466	973187	39453	107041	0	0	8067	814958	0	0
2024-05-17 04:32:32			0	32738	0	0	0	19275	17890	155212	27228	973230	39432	107036	0	0	8067	814861	0	0
2024-05-17 04:33:32			0	32733	0	0	0	19283	17880	155312	27386	973213	39420	107039	0	0	8067	815168	0	0
2024-05-17 04:34:32			0	32720	0	0	0	19275	17880	155288	27320	973160	39442	107036	0	0	8066	815851	0	0
2024-05-17 04:35:32			0	32717	0	0	0	19283	17890	155248	27621	973248	39443	107039	0	0	8066	815965	0	0
2024-05-17 04:36:32			0	32702	0	0	0	19280	17880	155364	27507	973152	39430	107038	0	0	8065	816798	0	0
2024-05-17 04:37:32			0	32714	0	0	0	19285	17890	155296	27365	973301	39421	107040	0	0	8066	816122	0	0
2024-05-17 04:38:32			0	32730	0	0	0	19290	17890	155224	27486	973221	39432	107042	0	0	8066	815281	0	0
2024-05-17 04:39:32			0	32713	0	0	0	19277	17880	155212	27419	973187	39442	107037	0	0	8066	816219	0	0
2024-05-17 04:40:32			0	32709	0	0	0	19270	17880	155364	27199	973205	39419	107034	0	0	8065	816430	0	0
2024-05-17 04:41:32			0	32707	0	0	0	19272	17870	155288	27479	973223	39441	107035	0	0	8065	816580	0	0
2024-05-17 04:42:32			0	32703	0	0	0	19270	17890	155436	27376	973195	39443	107034	0	0	8065	816701	0	0
2024-05-17 04:43:32			0	32701	0	0	0	19275	17880	155472	27391	973213	39420	107036	0	0	8065	816851	0	0
2024-05-17 04:44:32			0	32705	0	0	0	19264	17890	155432	27640	973221	39432	107032	0	0	8065	816596	0	0
2024-05-17 04:45:32			0	32707	0	0	0	19280	17890	155448	27464	973230	39421	107038	0	0	8065	816491	0	0
2024-05-17 04:46:32			0	32699	0	0	0	19280	17890	155440	27235	973221	39432	107038	0	0	8065	816912	0	0
2024-05-17 04:47:32			0	32688	0	0	0	19277	17880	155488	27507	973187	39431	107037	0	0	8064	817536	0	0
2024-05-17 04:48:32			0	32696	0	0	0	19270	17880	155448	27204	973231	39419	107034	0	0	8065	817114	0	0
2024-05-17 04:49:32			0	32683	0	0	0	19270	17880	155480	27138	973160	39431	107034	0	0	8064	817799	0	0
2024-05-17 04:50:32			0	32686	0	0	0	19267	17880	155520	27183	973187	39431	107033	0	0	8064	817641	0	0
2024-05-17 04:51:32			0	32683	0	0	0	19275	17880	155508	27388	973205	39419	107036	0	0	8064	817799	0	0
2024-05-17 04:52:32			0	32688	0	0	0	19272	17880	155536	27459	973187	39431	107035	0	0	8064	817536	0	0
2024-05-17 04:53:32			0	32653	0	0	0	19262	17870	155560	27376	973196	39430	107031	0	0	8062	819426	0	0
2024-05-17 04:54:32			0	32670	0	0	0	19262	17880	155536	27414	973239	39420	107031	0	0	8063	818484	0	0
2024-05-17 04:55:32			0	32650	0	0	0	19264	17870	155736	27360	973170	39441	107032	0	0	8062	819584	0	0
2024-05-17 04:56:32			0	32667	0	0	0	19259	17860	155684	27428	973180	39440	107030	0	0	8063	818732	0	0
2024-05-17 04:57:32			0	32654	0	0	0	19254	17880	155772	27357	973239	39431	107028	0	0	8062	819328	0	0
2024-05-17 04:58:32			0	32645	0	0	0	19254	17870	155776	27312	973117	39430	107028	0	0	8062	819848	0	0
2024-05-17 04:59:32			0	32631	0	0	0	19251	17860	155836	27531	973153	39429	107027	0	0	8061	820632	0	0
2024-05-17 05:00:32			0	32616	0	0	0	19257	17870	155932	27261	973144	39430	107029	0	0	8060	821381	0	0
2024-05-17 05:01:32			0	32613	0	0	0	19254	17860	155856	27133	973153	39440	107028	0	0	8060	821584	0	0
2024-05-17 05:02:32			0	32619	0	0	0	19264	17880	155864	27637	973152	39430	107032	0	0	8060	821177	0	0
2024-05-17 05:03:32			0	32603	0	0	0	19262	17860	155940	27267	973092	39439	107031	0	0	8059	822113	0	0
2024-05-17 05:04:32			0	32599	0	0	0	19270	17880	155952	27454	973178	39430	107034	0	0	8059	822235	0	0
2024-05-17 05:05:32			0	32605	0	0	0	19259	17860	155948	27164	973172	39439	107030	0	0	8059	822007	0	0
2024-05-17 05:06:32			0	32590	0	0	0	19257	17870	156004	27517	973170	39430	107029	0	0	8058	822757	0	0
2024-05-17 05:07:32			0	32611	0	0	0	19246	17850	155888	27237	973057	39451	107025	0	0	8060	821735	0	0
2024-05-17 05:08:32			0	32595	0	0	0	19246	17860	155960	27203	973172	39439	107025	0	0	8059	822537	0	0
2024-05-17 05:09:32			0	32595	0	0	0	19257	17850	155984	27355	973031	39417	107029	0	0	8058	822582	0	0
2024-05-17 05:10:32			0	32582	0	0	0	19262	17860	156096	27244	973127	39418	107031	0	0	8058	823225	0	0
2024-05-17 05:11:32			0	32592	0	0	0	19249	17860	156160	27563	973145	39428	107026	0	0	8058	822696	0	0
2024-05-17 05:12:32			0	32555	0	0	0	19246	17860	156144	27112	973066	39439	107025	0	0	8056	824657	0	0
2024-05-17 05:13:32			0	32565	0	0	0	19249	17850	156140	27372	973137	39428	107026	0	0	8057	824172	0	0
2024-05-17 05:14:32			0	32565	0	0	0	19257	17850	156208	27112	973128	39427	107029	0	0	8057	824172	0	0
2024-05-17 05:15:32			0	32556	0	0	0	19246	17860	156236	27301	973127	39429	107025	0	0	8056	824604	0	0
2024-05-17 05:16:32			0	32557	0	0	0	19251	17860	156224	27296	973127	39418	107027	0	0	8056	824551	0	0
2024-05-17 05:17:32			0	32548	0	0	0	19257	17860	156260	27443	973101	39429	107029	0	0	8056	825029	0	0
2024-05-17 05:18:32			0	32540	0	0	0	19257	17850	156292	27692	973110	39417	107029	0	0	8055	825499	0	0
2024-05-17 05:19:32			0	32539	0	0	0	19257	17860	156264	27124	973092	39428	107029	0	0	8055	825507	0	0
2024-05-17 05:20:32			0	32542	0	0	0	19249	17850	156312	27192	973110	39439	107026	0	0	8055	825392	0	0
2024-05-17 05:21:32			0	32529	0	0	0	19249	17850	156284	27483	973084	39428	107026	0	0	8055	826083	0	0
2024-05-17 05:22:32			0	32546	0	0	0	19241	17860	156320	27246	973198	39428	107023	0	0	8056	825135	0	0
2024-05-17 05:23:32			0	32540	0	0	0	19236	17850	156236	27157	973102	39427	107021	0	0	8055	825499	0	0
2024-05-17 05:24:32			0	32554	0	0	0	19244	17850	156164	27265	973084	39439	107024	0	0	8056	824755	0	0
2024-05-17 05:25:32			0	32584	0	0	0	19241	17850	156108	27149	973049	39427	107023	0	0	8058	823164	0	0
2024-05-17 05:26:32			0	32574	0	0	0	19238	17850	156124	27379	973084	39428	107022	0	0	8057	823694	0	0
2024-05-17 05:27:32			0	32581	0	0	0	19233	17850	156052	27595	973084	39417	107020	0	0	8058	823323	0	0
2024-05-17 05:28:32			0	32563	0	0	0	19244	17850	156156	27678	973075	39438	107024	0	0	8057	824278	0	0
2024-05-17 05:29:32			0	32558	0	0	0	19251	17850	156232	27585	973102	39406	107027	0	0	8056	824543	0	0
2024-05-17 05:30:32			0	32578	0	0	0	19246	17850	156096	27220	973075	39450	107025	0	0	8058	823482	0	0
2024-05-17 05:31:32			0	32594	0	0	0	19238	17850	156032	27457	973049	39427	107022	0	0	8059	822634	0	0
2024-05-17 05:32:32			0	32614	0	0	0	19244	17850	156000	27350	973084	39439	107024	0	0	8060	821576	0	0
2024-05-17 05:33:32			0	32626	0	0	0	19238	17840	155928	27253	973085	39426	107022	0	0	8061	820986	0	0
2024-05-17 05:34:32			0	32634	0	0	0	19238	17840	155776	27031	973014	39438	107022	0	0	8061	820563	0	0
2024-05-17 05:35:32			0	32631	0	0	0	19246	17840	155776	27317	973094	39438	107025	0	0	8061	820722	0	0
2024-05-17 05:36:32			0	32641	0	0	0	19238	17840	155720	27393	973067	39427	107022	0	0	8062	820194	0	0
2024-05-17 05:37:32			0	32680	0	0	0	19251	17850	155664	27454	973049	39438	107027	0	0	8064	818091	0	0
2024-05-17 05:38:32			0	32706	0	0	0	19254	17850	155428	27538	973137	39428	107028	0	0	8065	816721	0	0
2024-05-17 05:39:32			0	32735	0	0	0	19251	17850	155240	27327	973102	39438	107027	0	0	8067	815196	0	0
2024-05-17 05:40:32			0	32761	0	0	0	19238	17850	155176	27329	973155	39427	107022	0	0	8069	813831	0	0
2024-05-17 05:41:32			0	32744	0	0	0	19246	17850	155180	27171	973110	39417	107025	0	0	8068	814723	0	0
2024-05-17 05:42:32			0	32735	0	0	0	19246	17850	155272	27256	973102	39427	107025	0	0	8067	815196	0	0
2024-05-17 05:43:32			0	32733	0	0	0	19244	17850	155364	27390	973102	39416	107024	0	0	8067	815301	0	0
2024-05-17 05:44:32			0	32751	0	0	0	19236	17850	155292	27223	973102	39427	107021	0	0	8068	814355	0	0
2024-05-17 05:45:32			0	32726	0	0	0	19233	17840	155352	27111	973059	39416	107020	0	0	8067	815714	0	0
2024-05-17 05:46:32			0	32704	0	0	0	19236	17840	155444	27043	973032	39416	107021	0	0	8065	816871	0	0
2024-05-17 05:47:32			0	32691	0	0	0	19233	17830	155572	27180	972971	39416	107020	0	0	8065	817600	0	0
2024-05-17 05:48:32			0	32682	0	0	0	19228	17840	155608	27338	973032	39426	107018	0	0	8064	818030	0	0
2024-05-17 05:49:32			0	32673	0	0	0	19233	17840	155556	27149	973006	39426	107020	0	0	8064	818504	0	0
2024-05-17 05:50:32			0	32671	0	0	0	19236	17840	155600	27466	973041	39427	107021	0	0	8063	818610	0	0
2024-05-17 05:51:32			0	32688	0	0	0	19238	17840	155472	27343	973059	39449	107022	0	0	8064	817714	0	0
2024-05-17 05:52:32			0	32715	0	0	0	19241	17840	155356	27550	973006	39426	107023	0	0	8066	816292	0	0
2024-05-17 05:53:32			0	32737	0	0	0	19233	17840	155292	27100	973085	39426	107020	0	0	8068	815135	0	0
2024-05-17 05:54:32			0	32761	0	0	0	19238	17830	155172	27428	973016	39426	107022	0	0	8069	813919	0	0
2024-05-17 05:55:32			0	32796	0	0	0	19233	17830	155133	26975	973051	39426	107020	0	0	8071	812084	0	0
2024-05-17 05:56:32			0	32835	0	0	0	19218	17840	154957	27124	973006	39405	107014	0	0	8074	809999	0	0
2024-05-17 05:57:32			0	32821	0	0	0	19220	17840	154845	27287	972980	39426	107015	0	0	8073	810731	0	0
2024-05-17 05:58:32			0	32828	0	0	0	19220	17840	154901	27166	973041	39427	107015	0	0	8073	810365	0	0
2024-05-17 05:59:32			0	32813	0	0	0	19215	17830	154929	27201	972998	39426	107013	0	0	8072	811194	0	0
2024-05-17 06:00:32			0	32783	0	0	0	19218	17830	155001	27105	973016	39415	107014	0	0	8071	812765	0	0
2024-05-17 06:01:32			0	32765	0	0	0	19223	17830	155188	27296	973016	39437	107016	0	0	8069	813709	0	0
2024-05-17 06:02:32			0	32744	0	0	0	19220	17830	155224	27227	972990	39404	107015	0	0	8068	814812	0	0
2024-05-17 06:03:32			0	32751	0	0	0	19228	17820	155272	27419	973034	39437	107018	0	0	8068	814489	0	0
2024-05-17 06:04:32			0	32753	0	0	0	19220	17820	155220	27265	973008	39426	107015	0	0	8069	814384	0	0
2024-05-17 06:05:32			0	32773	0	0	0	19220	17840	155141	27227	973059	39426	107015	0	0	8070	813245	0	0
2024-05-17 06:06:32			0	32782	0	0	0	19228	17840	155204	27274	973006	39426	107018	0	0	8070	812773	0	0
2024-05-17 06:07:32			0	32809	0	0	0	19218	17830	155033	27687	973016	39437	107014	0	0	8072	811403	0	0
2024-05-17 06:08:32			0	32839	0	0	0	19212	17830	154969	27509	973024	39405	107012	0	0	8074	809834	0	0
2024-05-17 06:09:32			0	32831	0	0	0	19215	17820	154929	27403	972955	39437	107013	0	0	8073	810296	0	0
2024-05-17 06:10:32			0	32832	0	0	0	19212	17830	154933	27272	973051	39416	107012	0	0	8074	810200	0	0
2024-05-17 06:11:32			0	32812	0	0	0	19215	17820	155017	27422	972981	39415	107013	0	0	8072	811290	0	0
2024-05-17 06:12:32			0	32827	0	0	0	19215	17810	155121	27462	973018	39424	107013	0	0	8073	810550	0	0
2024-05-17 06:13:32			0	32793	0	0	0	19223	17820	155145	27507	972981	39415	107016	0	0	8071	812285	0	0
2024-05-17 06:14:32			0	32779	0	0	0	19223	17830	155145	27409	972963	39426	107016	0	0	8070	812975	0	0
2024-05-17 06:15:32			0	32802	0	0	0	19228	17820	155217	27516	973026	39425	107018	0	0	8071	811814	0	0
2024-05-17 06:16:32			0	32795	0	0	0	19220	17820	155113	27431	973008	39437	107015	0	0	8071	812181	0	0
2024-05-17 06:17:32			0	32803	0	0	0	19210	17820	155185	27211	972947	39415	107011	0	0	8072	811761	0	0
2024-05-17 06:18:32			0	32807	0	0	0	19218	17820	155105	27336	973034	39415	107014	0	0	8072	811552	0	0
2024-05-17 06:19:32			0	32800	0	0	0	19212	17820	155161	27131	973034	39404	107012	0	0	8072	811919	0	0
2024-05-17 06:20:32			0	32830	0	0	0	19218	17830	155049	27428	972990	39415	107014	0	0	8073	810304	0	0
2024-05-17 06:21:32			0	32822	0	0	0	19212	17820	155017	27767	973034	39415	107012	0	0	8073	810767	0	0
2024-05-17 06:22:32			0	32837	0	0	0	19215	17820	154889	27305	972981	39415	107013	0	0	8074	809983	0	0
2024-05-17 06:23:32			0	32857	0	0	0	19212	17820	154873	27348	972973	39436	107012	0	0	8075	808938	0	0
2024-05-17 06:24:32			0	32850	0	0	0	19210	17810	154749	27455	972965	39414	107011	0	0	8075	809348	0	0
2024-05-17 06:25:32			0	32858	0	0	0	19218	17820	154833	27267	972955	39426	107014	0	0	8075	808885	0	0
2024-05-17 06:26:32			0	32878	0	0	0	19223	17820	154721	27604	972973	39436	107016	0	0	8076	807842	0	0
2024-05-17 06:27:32			0	32895	0	0	0	19220	17820	154577	27248	973034	39426	107015	0	0	8077	806956	0	0
2024-05-17 06:28:32			0	32898	0	0	0	19223	17820	154561	27209	973061	39426	107016	0	0	8077	806799	0	0
2024-05-17 06:29:32			0	32924	0	0	0	19218	17810	154485	27367	972991	39424	107014	0	0	8079	805490	0	0
2024-05-17 06:30:32			0	32908	0	0	0	19212	17830	154461	27230	973016	39426	107012	0	0	8078	806234	0	0
2024-05-17 06:31:32			0	32921	0	0	0	19212	17820	154481	27405	972955	39426	107012	0	0	8079	805602	0	0
2024-05-17 06:32:32			0	32932	0	0	0	19212	17820	154453	27137	972955	39448	107012	0	0	8080	805029	0	0
2024-05-17 06:33:32			0	32921	0	0	0	19241	17820	154449	27206	973026	39425	107023	0	0	8079	805602	0	0
2024-05-17 06:34:32			0	32945	0	0	0	19225	17820	154437	27322	973034	39437	107017	0	0	8080	804354	0	0
2024-05-17 06:35:32			0	32947	0	0	0	19205	17830	154313	27353	972990	39415	107009	0	0	8081	804206	0	0
2024-05-17 06:36:32			0	32919	0	0	0	19197	17820	154525	27199	972973	39415	107006	0	0	8079	805706	0	0
2024-05-17 06:37:32			0	32913	0	0	0	19215	17820	154505	27081	972955	39426	107013	0	0	8078	806018	0	0
2024-05-17 06:38:32			0	32907	0	0	0	19207	17810	154641	27357	972965	39424	107010	0	0	8078	806374	0	0
2024-05-17 06:39:32			0	32917	0	0	0	19210	17830	154505	27414	972990	39426	107011	0	0	8079	805766	0	0
2024-05-17 06:40:32			0	32906	0	0	0	19218	17820	154481	27512	972981	39415	107014	0	0	8078	806383	0	0
2024-05-17 06:41:32			0	32915	0	0	0	19215	17820	154541	27426	972973	39436	107013	0	0	8079	805914	0	0
2024-05-17 06:42:32			0	32920	0	0	0	19210	17810	154497	27180	973018	39435	107011	0	0	8079	805698	0	0
2024-05-17 06:43:32			0	32925	0	0	0	19210	17810	154381	27161	972991	39435	107011	0	0	8079	805438	0	0
2024-05-17 06:44:32			0	32948	0	0	0	19202	17810	154389	27317	973018	39414	107008	0	0	8081	804242	0	0
2024-05-17 06:45:32			0	32934	0	0	0	19207	17810	154461	27149	973018	39414	107010	0	0	8080	804969	0	0
2024-05-17 06:46:32			0	32915	0	0	0	19207	17810	154469	27656	972912	39424	107010	0	0	8079	805958	0	0
2024-05-17 06:47:32			0	32935	0	0	0	19194	17810	154473	27329	972938	39435	107005	0	0	8080	804917	0	0
2024-05-17 06:48:32			0	32908	0	0	0	19199	17810	154557	27390	972965	39414	107007	0	0	8078	806322	0	0
2024-05-17 06:49:32			0	32891	0	0	0	19202	17800	154677	27737	972975	39423	107008	0	0	8077	807252	0	0
2024-05-17 06:50:32			0	32860	0	0	0	19194	17810	154861	27507	972956	39424	107005	0	0	8076	808825	0	0
2024-05-17 06:51:32			0	32846	0	0	0	19199	17820	154797	27405	973008	39426	107007	0	0	8075	809512	0	0
2024-05-17 06:52:32			0	32822	0	0	0	19197	17810	154797	27189	972983	39414	107006	0	0	8073	810811	0	0
2024-05-17 06:53:32			0	32826	0	0	0	19197	17800	155033	27010	972869	39434	107006	0	0	8073	810646	0	0
2024-05-17 06:54:32			0	32814	0	0	0	19199	17800	155013	27315	972948	39423	107007	0	0	8073	811274	0	0
2024-05-17 06:55:32			0	32798	0	0	0	19194	17810	155133	27533	972930	39424	107005	0	0	8072	812068	0	0
2024-05-17 06:56:32			0	32777	0	0	0	19202	17800	155200	27670	972975	39413	107008	0	0	8070	813213	0	0
2024-05-17 06:57:32			0	32769	0	0	0	19199	17800	155236	27348	972913	39434	107007	0	0	8070	813632	0	0
2024-05-17 06:58:32			0	32760	0	0	0	19202	17810	155296	27253	972877	39414	107008	0	0	8069	814061	0	0
2024-05-17 06:59:32			0	32753	0	0	0	19212	17800	155396	27329	972975	39413	107012	0	0	8069	814472	0	0
2024-05-17 07:00:32			0	32755	0	0	0	19205	17800	155364	27528	972975	39423	107009	0	0	8069	814367	0	0
2024-05-17 07:01:32			0	32733	0	0	0	19199	17800	155404	27663	972922	39434	107007	0	0	8068	815523	0	0
2024-05-17 07:02:32			0	32742	0	0	0	19210	17800	155396	27369	972948	39423	107011	0	0	8068	815050	0	0
2024-05-17 07:03:32			0	32733	0	0	0	19205	17810	155404	27471	972930	39424	107009	0	0	8068	815479	0	0
2024-05-17 07:04:32			0	32742	0	0	0	19223	17810	155460	27678	972956	39424	107016	0	0	8068	815006	0	0
2024-05-17 07:05:32			0	32723	0	0	0	19220	17810	155420	27244	972930	39424	107015	0	0	8067	816005	0	0
2024-05-17 07:06:32			0	32743	0	0	0	19228	17820	155464	27661	973026	39436	107018	0	0	8068	814909	0	0
2024-05-17 07:07:32			0	32755	0	0	0	19231	17820	155336	27590	972973	39436	107019	0	0	8069	814279	0	0
2024-05-17 07:08:32			0	32757	0	0	0	19233	17820	155288	27590	972973	39415	107020	0	0	8069	814174	0	0
2024-05-17 07:09:32			0	32767	0	0	0	19223	17820	155344	27807	972981	39437	107016	0	0	8069	813649	0	0
2024-05-17 07:10:32			0	32755	0	0	0	19233	17820	155376	27568	973008	39437	107020	0	0	8069	814279	0	0
2024-05-17 07:11:32			0	32747	0	0	0	19231	17820	155304	27507	973052	39436	107019	0	0	8068	814699	0	0
2024-05-17 07:12:32			0	32748	0	0	0	19236	17820	155320	27378	973026	39436	107021	0	0	8068	814646	0	0
2024-05-17 07:13:32			0	32745	0	0	0	19231	17830	155244	27518	972990	39426	107019	0	0	8068	814759	0	0
2024-05-17 07:14:32			0	32762	0	0	0	19236	17830	155348	27412	973042	39448	107021	0	0	8069	813867	0	0
2024-05-17 07:15:32			0	32751	0	0	0	19238	17830	155240	27618	973042	39426	107022	0	0	8068	814444	0	0
2024-05-17 07:16:32			0	32783	0	0	0	19225	17830	155217	27412	973069	39437	107017	0	0	8070	812765	0	0
2024-05-17 07:17:32			0	32766	0	0	0	19231	17830	155180	27313	973042	39426	107019	0	0	8069	813657	0	0
2024-05-17 07:18:32			0	32771	0	0	0	19228	17830	155260	27161	973069	39426	107018	0	0	8070	813395	0	0
2024-05-17 07:19:32			0	32755	0	0	0	19233	17820	155252	27569	973034	39437	107020	0	0	8069	814279	0	0
2024-05-17 07:20:32			0	32764	0	0	0	19231	17830	155252	27287	973122	39426	107019	0	0	8069	813762	0	0
2024-05-17 07:21:32			0	32755	0	0	0	19238	17830	155264	27367	973042	39437	107022	0	0	8069	814234	0	0
2024-05-17 07:22:32			0	32764	0	0	0	19236	17830	155216	27045	973095	39448	107021	0	0	8069	813762	0	0
2024-05-17 07:23:32			0	32761	0	0	0	19233	17830	155360	27324	973069	39426	107020	0	0	8069	813919	0	0
2024-05-17 07:24:32			0	32785	0	0	0	19236	17840	155205	27234	973059	39416	107021	0	0	8070	812616	0	0
2024-05-17 07:25:32			0	32772	0	0	0	19246	17830	155289	27471	973103	39426	107025	0	0	8069	813342	0	0
2024-05-17 07:26:32			0	32767	0	0	0	19251	17840	155288	27225	973085	39438	107027	0	0	8069	813560	0	0
2024-05-17 07:27:32			0	32772	0	0	0	19241	17830	155216	27682	973148	39437	107023	0	0	8069	813342	0	0
2024-05-17 07:28:32			0	32768	0	0	0	19236	17850	155212	27729	973075	39427	107021	0	0	8069	813463	0	0
2024-05-17 07:29:32			0	32786	0	0	0	19241	17850	155217	27732	973128	39427	107023	0	0	8070	812519	0	0
2024-05-17 07:30:32			0	32785	0	0	0	19249	17840	155353	27511	973094	39438	107026	0	0	8070	812616	0	0
2024-05-17 07:31:32			0	32773	0	0	0	19259	17840	155401	27343	973146	39438	107030	0	0	8069	813245	0	0
2024-05-17 07:32:32			0	32771	0	0	0	19249	17840	155316	27789	973094	39416	107026	0	0	8069	813350	0	0
2024-05-17 07:33:32			0	32777	0	0	0	19254	17850	155280	27632	973189	39428	107028	0	0	8070	812991	0	0
2024-05-17 07:34:32			0	32777	0	0	0	19262	17840	155229	27428	973165	39438	107031	0	0	8069	813036	0	0
2024-05-17 07:35:32			0	32789	0	0	0	19257	17850	155113	27294	973110	39451	107029	0	0	8070	812362	0	0
2024-05-17 07:36:32			0	32790	0	0	0	19259	17850	155169	27434	973181	39427	107030	0	0	8070	812310	0	0
2024-05-17 07:37:32			0	32772	0	0	0	19257	17840	155176	27313	973199	39438	107029	0	0	8069	813298	0	0
2024-05-17 07:38:32			0	32780	0	0	0	19259	17850	155168	27282	973128	39427	107030	0	0	8070	812834	0	0
2024-05-17 07:39:32			0	32793	0	0	0	19264	17850	155089	27388	973216	39451	107032	0	0	8070	812153	0	0
2024-05-17 07:40:32			0	32804	0	0	0	19270	17850	155169	27400	973216	39417	107034	0	0	8071	811577	0	0
2024-05-17 07:41:32			0	32808	0	0	0	19270	17850	155165	27237	973189	39428	107034	0	0	8071	811367	0	0
2024-05-17 07:42:32			0	32803	0	0	0	19264	17860	155113	27388	973233	39440	107032	0	0	8071	811585	0	0
2024-05-17 07:43:32			0	32819	0	0	0	19272	17860	155033	27357	973224	39439	107035	0	0	8072	810747	0	0
2024-05-17 07:44:32			0	32794	0	0	0	19270	17860	155057	27228	973172	39451	107034	0	0	8070	812056	0	0
2024-05-17 07:45:32			0	32800	0	0	0	19275	17860	155089	27459	973233	39429	107036	0	0	8071	811742	0	0
2024-05-17 07:46:32			0	32805	0	0	0	19283	17850	155017	27336	973163	39439	107039	0	0	8071	811524	0	0
2024-05-17 07:47:32			0	32799	0	0	0	19270	17880	155057	27218	973231	39419	107034	0	0	8071	811706	0	0
2024-05-17 07:48:32			0	32803	0	0	0	19275	17860	155037	27287	973259	39440	107036	0	0	8071	811585	0	0
2024-05-17 07:49:32			0	32803	0	0	0	19283	17880	155093	27389	973258	39430	107039	0	0	8071	811496	0	0
2024-05-17 07:50:32			0	32820	0	0	0	19275	17880	155085	27419	973205	39441	107036	0	0	8072	810607	0	0
2024-05-17 07:51:32			0	32821	0	0	0	19283	17880	155137	27131	973205	39452	107039	0	0	8072	810554	0	0
2024-05-17 07:52:32			0	32812	0	0	0	19288	17880	155085	27412	973266	39431	107041	0	0	8071	811025	0	0
2024-05-17 07:53:32			0	32817	0	0	0	19280	17880	155053	27282	973284	39452	107038	0	0	8072	810763	0	0
2024-05-17 07:54:32			0	32826	0	0	0	19285	17880	155117	27320	973284	39452	107040	0	0	8072	810293	0	0
2024-05-17 07:55:32			0	32820	0	0	0	19280	17880	154953	27270	973239	39431	107038	0	0	8072	810607	0	0
2024-05-17 07:56:32			0	32817	0	0	0	19288	17880	154933	27367	973239	39453	107041	0	0	8072	810763	0	0
2024-05-17 07:57:32			0	32820	0	0	0	19290	17880	155057	27528	973292	39442	107042	0	0	8072	810607	0	0
2024-05-17 07:58:32			0	32823	0	0	0	19298	17890	154941	27163	973309	39432	107045	0	0	8072	810406	0	0
2024-05-17 07:59:32			0	32833	0	0	0	19306	17880	154933	27142	973292	39453	107048	0	0	8072	809927	0	0
2024-05-17 08:00:32			0	32828	0	0	0	19319	17900	154957	27504	973317	39443	107053	0	0	8072	810100	0	0
2024-05-17 08:01:32			0	32827	0	0	0	19319	17880	154897	27421	973319	39442	107053	0	0	8072	810241	0	0
2024-05-17 08:02:32			0	32852	0	0	0	19309	17900	154873	27282	973344	39443	107049	0	0	8074	808846	0	0
2024-05-17 08:03:32			0	32859	0	0	0	19322	17900	154809	27371	973291	39443	107054	0	0	8074	808481	0	0
2024-05-17 08:04:32			0	32860	0	0	0	19324	17910	154797	27320	973334	39433	107055	0	0	8074	808385	0	0
2024-05-17 08:05:32			0	32857	0	0	0	19324	17910	154805	27263	973386	39445	107055	0	0	8074	808541	0	0
2024-05-17 08:06:32			0	32862	0	0	0	19329	17910	154853	27398	973386	39433	107057	0	0	8074	808280	0	0
2024-05-17 08:07:32			0	32883	0	0	0	19337	17920	154757	27170	973456	39445	107060	0	0	8075	807141	0	0
2024-05-17 08:08:32			0	32874	0	0	0	19340	17930	154765	27362	973438	39445	107061	0	0	8075	807566	0	0
2024-05-17 08:09:32			0	32876	0	0	0	19337	17920	154741	27279	973429	39445	107060	0	0	8075	807506	0	0
2024-05-17 08:10:32			0	32899	0	0	0	19342	17940	154669	26958	973515	39458	107062	0	0	8076	806220	0	0
2024-05-17 08:11:32			0	32885	0	0	0	19348	17920	154689	27147	973482	39457	107064	0	0	8075	807037	0	0
2024-05-17 08:12:32			0	32907	0	0	0	19353	17930	154621	27454	973472	39435	107066	0	0	8076	805847	0	0
2024-05-17 08:13:32			0	32902	0	0	0	19353	17930	154605	27208	973499	39435	107066	0	0	8076	806107	0	0
2024-05-17 08:14:32			0	32912	0	0	0	19355	17940	154589	27414	973489	39458	107067	0	0	8077	805543	0	0
2024-05-17 08:15:32			0	32902	0	0	0	19355	17930	154577	27284	973552	39446	107067	0	0	8076	806107	0	0
2024-05-17 08:16:32			0	32887	0	0	0	19361	17940	154581	27384	973613	39447	107069	0	0	8075	806845	0	0
2024-05-17 08:17:32			0	32922	0	0	0	19363	17950	154501	27156	973558	39448	107070	0	0	8077	804979	0	0
2024-05-17 08:18:32			0	32914	0	0	0	19368	17950	154589	27431	973629	39458	107072	0	0	8077	805395	0	0
2024-05-17 08:19:32			0	32934	0	0	0	19371	17950	154449	27396	973611	39448	107073	0	0	8078	804355	0	0
2024-05-17 08:20:32			0	32938	0	0	0	19379	17950	154537	27235	973638	39448	107076	0	0	8078	804148	0	0
2024-05-17 08:21:32			0	32939	0	0	0	19394	17960	154549	27204	973654	39449	107082	0	0	8078	804052	0	0
2024-05-17 08:22:32			0	32938	0	0	0	19394	17970	154401	27248	973689	39449	107082	0	0	8078	804060	0	0
2024-05-17 08:23:32			0	32976	0	0	0	19394	17970	154385	27308	973671	39450	107082	0	0	8080	802088	0	0
2024-05-17 08:24:32			0	32975	0	0	0	19405	17970	154281	27469	973644	39450	107086	0	0	8080	802140	0	0
2024-05-17 08:25:32			0	32980	0	0	0	19397	17980	154193	27386	973679	39451	107083	0	0	8080	801837	0	0
2024-05-17 08:26:32			0	33005	0	0	0	19397	17980	154165	27609	973653	39451	107083	0	0	8082	800542	0	0
2024-05-17 08:27:32			0	33005	0	0	0	19410	17990	154141	27492	973749	39451	107088	0	0	8082	800498	0	0
2024-05-17 08:28:32			0	33011	0	0	0	19407	17990	154085	27606	973828	39472	107087	0	0	8082	800188	0	0
2024-05-17 08:29:32			0	33010	0	0	0	19407	17990	154065	27542	973722	39461	107087	0	0	8082	800240	0	0
2024-05-17 08:30:32			0	33016	0	0	0	19412	18000	154021	27395	973686	39452	107089	0	0	8082	799886	0	0
2024-05-17 08:31:32			0	33022	0	0	0	19412	17990	153973	27216	973731	39462	107089	0	0	8083	799619	0	0
2024-05-17 08:32:32			0	33024	0	0	0	19428	17990	154013	27410	973731	39462	107095	0	0	8082	799516	0	0
2024-05-17 08:33:32			0	33051	0	0	0	19420	18000	153957	27182	973827	39453	107092	0	0	8084	798077	0	0
2024-05-17 08:34:32			0	33071	0	0	0	19428	18010	153789	27282	973870	39453	107095	0	0	8085	797002	0	0
2024-05-17 08:35:32			0	33067	0	0	0	19433	18010	153841	27431	973843	39463	107097	0	0	8085	797208	0	0
2024-05-17 08:36:32			0	33067	0	0	0	19423	18020	153837	27232	973825	39454	107093	0	0	8085	797165	0	0
2024-05-17 08:37:32			0	33067	0	0	0	19431	18010	153733	26864	973896	39453	107096	0	0	8085	797208	0	0
2024-05-17 08:38:32			0	33079	0	0	0	19431	18010	153789	27324	973843	39475	107096	0	0	8086	796590	0	0
2024-05-17 08:39:32			0	33086	0	0	0	19436	18020	153821	27415	973931	39454	107098	0	0	8086	796185	0	0
2024-05-17 08:40:32			0	33087	0	0	0	19444	18020	153709	27201	973904	39464	107101	0	0	8086	796134	0	0
2024-05-17 08:41:32			0	33108	0	0	0	19444	18020	153601	27244	973913	39476	107101	0	0	8087	795052	0	0
2024-05-17 08:42:32			0	33113	0	0	0	19451	18020	153585	27549	973931	39464	107104	0	0	8088	794795	0	0
2024-05-17 08:43:32			0	33127	0	0	0	19441	18030	153553	27355	973956	39476	107100	0	0	8089	794032	0	0
2024-05-17 08:44:32			0	33128	0	0	0	19446	18020	153529	27237	973965	39455	107102	0	0	8089	794024	0	0
2024-05-17 08:45:32			0	33132	0	0	0	19449	18040	153449	27326	973937	39466	107103	0	0	8089	793732	0	0
2024-05-17 08:46:32			0	33135	0	0	0	19444	18040	153449	27391	973884	39488	107101	0	0	8089	793577	0	0
2024-05-17 08:47:32			0	33150	0	0	0	19457	18040	153365	27338	973972	39467	107106	0	0	8090	792807	0	0
2024-05-17 08:48:32			0	33144	0	0	0	19457	18040	153341	26961	973964	39456	107106	0	0	8089	793115	0	0
2024-05-17 08:49:32			0	33163	0	0	0	19454	18040	153337	26982	974025	39457	107105	0	0	8091	792140	0	0
2024-05-17 08:50:32			0	33173	0	0	0	19457	18040	153345	27203	974051	39467	107106	0	0	8091	791627	0	0
2024-05-17 08:51:32			0	33212	0	0	0	19464	18030	153233	27204	973982	39465	107109	0	0	8093	789672	0	0
2024-05-17 08:52:32			0	33185	0	0	0	19475	18040	153141	27111	973964	39456	107113	0	0	8092	791012	0	0
2024-05-17 08:53:32			0	33201	0	0	0	19472	18040	153197	27060	973946	39457	107112	0	0	8093	790192	0	0
2024-05-17 08:54:32			0	33210	0	0	0	19467	18040	153229	27364	974051	39467	107110	0	0	8093	789732	0	0
2024-05-17 08:55:32			0	33195	0	0	0	19462	18050	153141	27647	974007	39467	107108	0	0	8092	790456	0	0
2024-05-17 08:56:32			0	33208	0	0	0	19477	18070	153225	27203	974013	39469	107114	0	0	8093	789705	0	0
2024-05-17 08:57:32			0	33202	0	0	0	19464	18050	153193	27556	973989	39467	107109	0	0	8093	790098	0	0
2024-05-17 08:58:32			0	33216	0	0	0	19477	18060	153069	27189	974111	39469	107114	0	0	8093	789339	0	0
2024-05-17 08:59:32			0	33248	0	0	0	19477	18060	153049	27166	974076	39468	107114	0	0	8095	787703	0	0
2024-05-17 09:00:32			0	33235	0	0	0	19480	18070	152961	27362	974093	39492	107115	0	0	8095	788324	0	0
2024-05-17 09:01:32			0	33255	0	0	0	19488	18070	152965	27935	974146	39458	107118	0	0	8096	787303	0	0
2024-05-17 09:02:32			0	33244	0	0	0	19485	18060	152813	27519	974085	39458	107117	0	0	8095	787907	0	0
2024-05-17 09:03:32			0	33268	0	0	0	19480	18070	152913	27308	974093	39469	107115	0	0	8097	786639	0	0
2024-05-17 09:04:32			0	33265	0	0	0	19477	18080	152849	27559	974162	39469	107114	0	0	8096	786749	0	0
2024-05-17 09:05:32			0	33264	0	0	0	19493	18070	152889	27111	974154	39469	107120	0	0	8096	786843	0	0
2024-05-17 09:06:32			0	33274	0	0	0	19488	18080	152873	27294	974136	39469	107118	0	0	8097	786291	0	0
2024-05-17 09:07:32			0	33279	0	0	0	19488	18080	152781	27111	974136	39458	107118	0	0	8097	786036	0	0
2024-05-17 09:08:32			0	33272	0	0	0	19496	18080	152841	27312	974189	39469	107121	0	0	8097	786392	0	0
2024-05-17 09:09:32			0	33284	0	0	0	19496	18080	152717	27222	974136	39481	107121	0	0	8097	785781	0	0
2024-05-17 09:10:32			0	33288	0	0	0	19493	18080	152809	27171	974197	39482	107120	0	0	8098	785577	0	0
2024-05-17 09:11:32			0	33303	0	0	0	19516	18090	152749	27287	974205	39471	107129	0	0	8098	784770	0	0
2024-05-17 09:12:32			0	33295	0	0	0	19503	18100	152757	27592	974169	39460	107124	0	0	8098	785135	0	0
2024-05-17 09:13:32			0	33313	0	0	0	19506	18090	152685	27512	974214	39471	107125	0	0	8099	784261	0	0
2024-05-17 09:14:32			0	33331	0	0	0	19509	18110	152641	27024	974265	39462	107126	0	0	8100	783260	0	0
2024-05-17 09:15:32			0	33340	0	0	0	19509	18090	152629	27576	974232	39471	107126	0	0	8100	782888	0	0
2024-05-17 09:16:32			0	33332	0	0	0	19514	18100	152649	27448	974257	39451	107128	0	0	8100	783252	0	0
2024-05-17 09:17:32			0	33344	0	0	0	19522	18100	152525	27166	974309	39472	107131	0	0	8100	782642	0	0
2024-05-17 09:18:32			0	33326	0	0	0	19522	18100	152509	27334	974283	39483	107131	0	0	8099	783557	0	0
2024-05-17 09:19:32			0	33325	0	0	0	19527	18110	152541	27402	974239	39473	107133	0	0	8099	783565	0	0
2024-05-17 09:20:32			0	33335	0	0	0	19529	18100	152489	27350	974301	39494	107134	0	0	8100	783100	0	0
2024-05-17 09:21:32			0	33354	0	0	0	19529	18100	152457	27339	974283	39461	107134	0	0	8101	782135	0	0
2024-05-17 09:22:32			0	33368	0	0	0	19524	18110	152465	27170	974239	39473	107132	0	0	8102	781381	0	0
2024-05-17 09:23:32			0	33346	0	0	0	19532	18110	152437	27426	974300	39473	107135	0	0	8100	782498	0	0
2024-05-17 09:24:32			0	33367	0	0	0	19535	18120	152405	27229	974343	39496	107136	0	0	8102	781390	0	0
2024-05-17 09:25:32			0	33375	0	0	0	19537	18120	152377	27282	974343	39485	107137	0	0	8102	780984	0	0
2024-05-17 09:26:32			0	33378	0	0	0	19532	18120	152337	27585	974361	39495	107135	0	0	8102	780832	0	0
2024-05-17 09:27:32			0	33395	0	0	0	19545	18120	152245	27331	974369	39474	107140	0	0	8103	779970	0	0
2024-05-17 09:28:32			0	33378	0	0	0	19542	18130	152317	27244	974378	39475	107139	0	0	8102	780789	0	0
2024-05-17 09:29:32			0	33384	0	0	0	19550	18120	152353	27244	974422	39463	107142	0	0	8102	780528	0	0
2024-05-17 09:30:32			0	33379	0	0	0	19540	18120	152217	27138	974396	39485	107138	0	0	8102	780781	0	0
2024-05-17 09:31:32			0	33379	0	0	0	19545	18120	152289	27412	974369	39474	107140	0	0	8102	780781	0	0
2024-05-17 09:32:32			0	33392	0	0	0	19558	18130	152261	27462	974378	39475	107145	0	0	8103	780080	0	0
2024-05-17 09:33:32			0	33410	0	0	0	19555	18130	152193	27374	974430	39486	107144	0	0	8104	779168	0	0
2024-05-17 09:34:32			0	33418	0	0	0	19555	18140	152265	27138	974429	39487	107144	0	0	8105	778721	0	0
2024-05-17 09:35:32			0	33396	0	0	0	19548	18140	152065	27379	974394	39464	107141	0	0	8103	779834	0	0
2024-05-17 09:36:32			0	33413	0	0	0	19553	18140	152121	27346	974455	39476	107143	0	0	8104	778974	0	0
2024-05-17 09:37:32			0	33439	0	0	0	19558	18140	152117	27343	974402	39498	107145	0	0	8106	777659	0	0
2024-05-17 09:38:32			0	33435	0	0	0	19555	18140	152013	27376	974482	39487	107144	0	0	8106	777861	0	0
2024-05-17 09:39:32			0	33436	0	0	0	19553	18150	152081	27398	974411	39488	107143	0	0	8106	777768	0	0
2024-05-17 09:40:32			0	33436	0	0	0	19563	18150	152037	27261	974464	39477	107147	0	0	8105	777768	0	0
2024-05-17 09:41:32			0	33446	0	0	0	19568	18150	152017	27254	974445	39477	107149	0	0	8106	777263	0	0
2024-05-17 09:42:32			0	33442	0	0	0	19561	18140	152073	27504	974455	39487	107146	0	0	8106	777508	0	0
2024-05-17 09:43:32			0	33448	0	0	0	19579	18150	151965	27353	974543	39488	107153	0	0	8106	777162	0	0
2024-05-17 09:44:32			0	33462	0	0	0	19566	18150	151881	27538	974472	39477	107148	0	0	8107	776455	0	0
2024-05-17 09:45:32			0	33453	0	0	0	19581	18160	151917	27296	974594	39477	107154	0	0	8106	776867	0	0
2024-05-17 09:46:32			0	33476	0	0	0	19586	18160	151881	27346	974541	39477	107156	0	0	8107	775707	0	0
2024-05-17 09:47:32			0	33457	0	0	0	19581	18150	151861	27365	974578	39488	107154	0	0	8106	776708	0	0
2024-05-17 09:48:32			0	33459	0	0	0	19599	18160	151849	27046	974612	39488	107161	0	0	8106	776565	0	0
2024-05-17 09:49:32			0	33478	0	0	0	19586	18160	151865	27485	974568	39488	107156	0	0	8108	775606	0	0
2024-05-17 09:50:32			0	33477	0	0	0	19589	18170	151869	27504	974611	39468	107157	0	0	8108	775614	0	0
2024-05-17 09:51:32			0	33506	0	0	0	19599	18170	151809	27507	974523	39489	107161	0	0	8109	774153	0	0
2024-05-17 09:52:32			0	33498	0	0	0	19594	18170	151757	27159	974611	39479	107159	0	0	8109	774556	0	0
2024-05-17 09:53:32			0	33503	0	0	0	19589	18170	151645	27429	974637	39490	107157	0	0	8109	774304	0	0
2024-05-17 09:54:32			0	33504	0	0	0	19592	18180	151697	27215	974646	39490	107158	0	0	8109	774211	0	0
2024-05-17 09:55:32			0	33512	0	0	0	19607	18180	151777	27289	974654	39479	107164	0	0	8109	773809	0	0
2024-05-17 09:56:32			0	33503	0	0	0	19612	18180	151753	27298	974680	39490	107166	0	0	8109	774262	0	0
2024-05-17 09:57:32			0	33528	0	0	0	19623	18190	151781	27341	974697	39492	107170	0	0	8110	772962	0	0
2024-05-17 09:58:32			0	33536	0	0	0	19620	18190	151745	27225	974670	39481	107169	0	0	8111	772560	0	0
2024-05-17 09:59:32			0	33543	0	0	0	19620	18200	151597	27336	974705	39502	107169	0	0	8111	772166	0	0
2024-05-17 10:00:32			0	33549	0	0	0	19625	18200	151585	27222	974758	39481	107171	0	0	8111	771864	0	0
2024-05-17 10:01:32			0	33559	0	0	0	19628	18200	151489	27338	974740	39482	107172	0	0	8112	771362	0	0
2024-05-17 10:02:32			0	33551	0	0	0	19649	18200	151433	27549	974766	39470	107180	0	0	8111	771764	0	0
2024-05-17 10:03:32			0	33565	0	0	0	19651	18220	151526	27393	974836	39483	107181	0	0	8112	770977	0	0
2024-05-17 10:04:32			0	33560	0	0	0	19631	18220	151409	27647	974783	39504	107173	0	0	8112	771228	0	0
2024-05-17 10:05:32			0	33589	0	0	0	19618	18210	151538	27421	974775	39482	107168	0	0	8114	769816	0	0
2024-05-17 10:06:32			0	33564	0	0	0	19659	18230	151421	27286	974861	39495	107184	0	0	8112	770985	0	0
2024-05-17 10:07:32			0	33580	0	0	0	19657	18230	151294	27229	974852	39495	107183	0	0	8113	770183	0	0
2024-05-17 10:08:32			0	33607	0	0	0	19659	18230	151322	27431	974834	39495	107184	0	0	8114	768830	0	0
2024-05-17 10:09:32			0	33609	0	0	0	19623	18240	151162	27469	974869	39506	107170	0	0	8115	768688	0	0
2024-05-17 10:10:32			0	33624	0	0	0	19620	18230	151234	27454	974834	39495	107169	0	0	8116	767979	0	0
2024-05-17 10:11:32			0	33607	0	0	0	19631	18240	151254	27246	974851	39485	107173	0	0	8115	768788	0	0
2024-05-17 10:12:32			0	33605	0	0	0	19628	18230	151274	27339	974799	39483	107172	0	0	8115	768930	0	0
2024-05-17 10:13:32			0	33621	0	0	0	19670	18230	151266	27203	974808	39495	107188	0	0	8115	768130	0	0
2024-05-17 10:14:32			0	33620	0	0	0	19677	18230	151230	27402	974914	39495	107191	0	0	8115	768180	0	0
2024-05-17 10:15:32			0	33630	0	0	0	19672	18250	151206	27568	974939	39496	107189	0	0	8116	767596	0	0
2024-05-17 10:16:32			0	33644	0	0	0	19654	18250	151210	27725	974894	39496	107182	0	0	8117	766896	0	0
2024-05-17 10:17:32			0	33631	0	0	0	19670	18260	151142	27305	974990	39498	107188	0	0	8116	767504	0	0
2024-05-17 10:18:32			0	33645	0	0	0	19670	18260	151058	27272	974982	39497	107188	0	0	8116	766804	0	0
2024-05-17 10:19:32			0	33650	0	0	0	19693	18260	151054	27372	974990	39498	107197	0	0	8116	766554	0	0
2024-05-17 10:20:32			0	33666	0	0	0	19724	18260	150982	27722	975016	39498	107209	0	0	8117	765756	0	0
2024-05-17 10:21:32			0	33687	0	0	0	19706	18280	151010	27177	975015	39488	107202	0	0	8118	764625	0	0
2024-05-17 10:22:32			0	33696	0	0	0	19709	18280	150894	27222	975102	39489	107203	0	0	8119	764177	0	0
2024-05-17 10:23:32			0	33702	0	0	0	19701	18280	150830	27052	975102	39500	107200	0	0	8119	763878	0	0
2024-05-17 10:24:32			0	33702	0	0	0	19709	18290	150786	27521	975031	39500	107203	0	0	8119	763836	0	0
2024-05-17 10:25:32			0	33716	0	0	0	19696	18290	150714	27640	975058	39510	107198	0	0	8120	763139	0	0
2024-05-17 10:26:32			0	33721	0	0	0	19685	18300	150798	27542	975083	39523	107194	0	0	8121	762849	0	0
2024-05-17 10:27:32			0	33719	0	0	0	19688	18290	150682	27659	975119	39511	107195	0	0	8121	762990	0	0
2024-05-17 10:28:32			0	33740	0	0	0	19696	18290	150738	27346	975119	39500	107198	0	0	8122	761946	0	0
2024-05-17 10:29:32			0	33730	0	0	0	19735	18300	150726	27410	975162	39500	107213	0	0	8121	762401	0	0
2024-05-17 10:30:32			0	33741	0	0	0	19706	18290	150778	27547	975137	39510	107202	0	0	8122	761896	0	0
2024-05-17 10:31:32			0	33738	0	0	0	19735	18290	150750	27474	975119	39511	107213	0	0	8121	762045	0	0
2024-05-17 10:32:32			0	33752	0	0	0	19748	18300	150654	27339	975189	39490	107218	0	0	8122	761308	0	0
2024-05-17 10:33:32			0	33753	0	0	0	19766	18310	150610	27258	975197	39512	107225	0	0	8121	761217	0	0
2024-05-17 10:34:32			0	33780	0	0	0	19758	18320	150554	27483	975222	39513	107222	0	0	8123	759835	0	0
2024-05-17 10:35:32			0	33777	0	0	0	19727	18320	150490	27313	975195	39513	107210	0	0	8123	759984	0	0
2024-05-17 10:36:32			0	33799	0	0	0	19742	18320	150390	27116	975248	39492	107216	0	0	8125	758894	0	0
2024-05-17 10:37:32			0	33805	0	0	0	19755	18330	150322	27282	975291	39503	107221	0	0	8125	758555	0	0
2024-05-17 10:38:32			0	33792	0	0	0	19732	18340	150318	27294	975273	39504	107212	0	0	8124	759158	0	0
2024-05-17 10:39:32			0	33807	0	0	0	19727	18330	150242	27429	975256	39503	107210	0	0	8125	758456	0	0
2024-05-17 10:40:32			0	33803	0	0	0	19753	18330	150354	27474	975265	39514	107220	0	0	8125	758654	0	0
2024-05-17 10:41:32			0	33820	0	0	0	19753	18340	150310	27473	975273	39504	107220	0	0	8126	757771	0	0
2024-05-17 10:42:32			0	33841	0	0	0	19761	18350	150238	27346	975316	39495	107223	0	0	8127	756692	0	0
2024-05-17 10:43:32			0	33835	0	0	0	19748	18350	150206	27173	975342	39516	107218	0	0	8127	756988	0	0
2024-05-17 10:44:32			0	33839	0	0	0	19735	18360	150098	27246	975386	39496	107213	0	0	8127	756749	0	0
2024-05-17 10:45:32			0	33832	0	0	0	19745	18350	150086	27268	975369	39505	107217	0	0	8127	757136	0	0
2024-05-17 10:46:32			0	33858	0	0	0	19758	18350	150086	27261	975298	39505	107222	0	0	8128	755852	0	0
2024-05-17 10:47:32			0	33833	0	0	0	19773	18360	150130	27595	975368	39506	107228	0	0	8126	757046	0	0
2024-05-17 10:48:32			0	33859	0	0	0	19812	18360	150078	27452	975359	39506	107243	0	0	8127	755761	0	0
2024-05-17 10:49:32			0	33864	0	0	0	19820	18360	150046	27263	975500	39517	107246	0	0	8127	755514	0	0
2024-05-17 10:50:32			0	33867	0	0	0	19825	18370	149994	27433	975464	39518	107248	0	0	8127	755325	0	0
2024-05-17 10:51:32			0	33898	0	0	0	19797	18380	150002	27476	975498	39519	107237	0	0	8130	753756	0	0
2024-05-17 10:52:32			0	33889	0	0	0	19784	18380	149790	27213	975480	39530	107232	0	0	8129	754199	0	0
2024-05-17 10:53:32			0	33907	0	0	0	19766	18390	149750	27511	975497	39531	107225	0	0	8131	753271	0	0
2024-05-17 10:54:32			0	33906	0	0	0	19799	18380	149806	27298	975472	39507	107238	0	0	8130	753361	0	0
2024-05-17 10:55:32			0	33908	0	0	0	19838	18390	149910	27263	975515	39520	107253	0	0	8130	753222	0	0
2024-05-17 10:56:32			0	33913	0	0	0	19820	18390	149750	27274	975541	39508	107246	0	0	8130	752976	0	0
2024-05-17 10:57:32			0	33937	0	0	0	19836	18400	149678	27334	975558	39520	107252	0	0	8131	751754	0	0
2024-05-17 10:58:32			0	33945	0	0	0	19862	18400	149638	27659	975558	39532	107262	0	0	8131	751361	0	0
2024-05-17 10:59:32			0	33960	0	0	0	19820	18410	149606	27345	975636	39500	107246	0	0	8133	750583	0	0
2024-05-17 11:00:32			0	33969	0	0	0	19833	18420	149578	27163	975565	39522	107251	0	0	8133	750100	0	0
2024-05-17 11:01:32			0	33958	0	0	0	19820	18410	149482	27112	975583	39511	107246	0	0	8133	750681	0	0
2024-05-17 11:02:32			0	33966	0	0	0	19828	18420	149490	27398	975618	39522	107249	0	0	8133	750247	0	0
2024-05-17 11:03:32			0	33964	0	0	0	19823	18410	149530	27197	975583	39511	107247	0	0	8133	750387	0	0
2024-05-17 11:04:32			0	33966	0	0	0	19810	18410	149458	27263	975556	39500	107242	0	0	8133	750288	0	0
2024-05-17 11:05:32			0	33963	0	0	0	19851	18410	149530	27367	975609	39511	107258	0	0	8133	750436	0	0
2024-05-17 11:06:32			0	33969	0	0	0	19825	18420	149550	27409	975670	39511	107248	0	0	8133	750100	0	0
2024-05-17 11:07:32			0	33977	0	0	0	19854	18420	149486	27229	975679	39523	107259	0	0	8133	749708	0	0
2024-05-17 11:08:32			0	33979	0	0	0	19828	18420	149522	27386	975670	39522	107249	0	0	8134	749610	0	0
2024-05-17 11:09:32			0	33993	0	0	0	19867	18420	149438	27424	975758	39523	107264	0	0	8134	748923	0	0
2024-05-17 11:10:32			0	33985	0	0	0	19836	18430	149438	27416	975669	39524	107252	0	0	8134	749274	0	0
2024-05-17 11:11:32			0	33995	0	0	0	19849	18440	149450	27710	975651	39513	107257	0	0	8135	748743	0	0
2024-05-17 11:12:32			0	34004	0	0	0	19877	18440	149398	27336	975757	39524	107268	0	0	8135	748302	0	0
2024-05-17 11:13:32			0	34009	0	0	0	19854	18450	149390	27479	975800	39514	107259	0	0	8135	748017	0	0
2024-05-17 11:14:32			0	34006	0	0	0	19836	18440	149310	27687	975677	39524	107252	0	0	8135	748204	0	0
2024-05-17 11:15:32			0	34006	0	0	0	19857	18450	149290	27729	975720	39526	107260	0	0	8135	748163	0	0
2024-05-17 11:16:32			0	34019	0	0	0	19877	18450	149310	27422	975800	39526	107268	0	0	8136	747527	0	0
2024-05-17 11:17:32			0	34024	0	0	0	19880	18450	149230	27414	975747	39537	107269	0	0	8136	747283	0	0
2024-05-17 11:18:32			0	34029	0	0	0	19883	18460	149346	27864	975816	39514	107270	0	0	8136	746997	0	0
2024-05-17 11:19:32			0	34036	0	0	0	19849	18470	149210	27416	975859	39539	107257	0	0	8137	746614	0	0
2024-05-17 11:20:32			0	34035	0	0	0	19870	18460	149178	27770	975771	39538	107265	0	0	8137	746704	0	0
2024-05-17 11:21:32			0	34043	0	0	0	19870	18460	149210	27556	975877	39538	107265	0	0	8137	746313	0	0
2024-05-17 11:22:32			0	34053	0	0	0	19896	18470	149266	27229	975859	39527	107275	0	0	8137	745783	0	0
2024-05-17 11:23:32			0	34039	0	0	0	19880	18470	149342	27315	975947	39539	107269	0	0	8137	746467	0	0
2024-05-17 11:24:32			0	34025	0	0	0	19932	18480	149202	27071	975937	39539	107289	0	0	8135	747111	0	0
2024-05-17 11:25:32			0	34070	0	0	0	19940	18480	149194	27391	975955	39549	107292	0	0	8138	744912	0	0
2024-05-17 11:26:32			0	34073	0	0	0	19948	18490	149038	27545	975927	39540	107295	0	0	8138	744725	0	0
2024-05-17 11:27:32			0	34094	0	0	0	19916	18510	149042	27687	975997	39530	107283	0	0	8139	743620	0	0
2024-05-17 11:28:32			0	34092	0	0	0	19919	18510	148974	27524	976076	39541	107284	0	0	8139	743718	0	0
2024-05-17 11:29:32			0	34100	0	0	0	19916	18500	148986	27355	976015	39530	107283	0	0	8140	743368	0	0
2024-05-17 11:30:32			0	34107	0	0	0	19916	18500	148986	27313	976042	39519	107283	0	0	8140	743027	0	0
2024-05-17 11:31:32			0	34074	0	0	0	19916	18510	148990	27547	976023	39530	107283	0	0	8138	744595	0	0
2024-05-17 11:32:32			0	34066	0	0	0	19922	18490	148922	27511	976007	39550	107285	0	0	8138	745067	0	0
2024-05-17 11:33:32			0	34066	0	0	0	19942	18520	148950	27663	976040	39532	107293	0	0	8137	744945	0	0
2024-05-17 11:34:32			0	34083	0	0	0	19989	18510	148982	27332	976085	39552	107311	0	0	8138	744156	0	0
2024-05-17 11:35:32			0	34106	0	0	0	19968	18530	148874	27357	976144	39543	107303	0	0	8139	742954	0	0
2024-05-17 11:36:32			0	34130	0	0	0	19961	18520	148830	27592	976101	39553	107300	0	0	8141	741827	0	0
2024-05-17 11:37:32			0	34107	0	0	0	19979	18540	148894	27606	976179	39544	107307	0	0	8139	742865	0	0
2024-05-17 11:38:32			0	34124	0	0	0	19958	18530	148830	27426	976118	39554	107299	0	0	8141	742078	0	0
2024-05-17 11:39:32			0	34117	0	0	0	19989	18540	148798	27346	976240	39544	107311	0	0	8140	742378	0	0
2024-05-17 11:40:32			0	34112	0	0	0	20005	18550	148758	27729	976177	39545	107317	0	0	8139	742581	0	0
2024-05-17 11:41:32			0	34110	0	0	0	19999	18570	148746	27521	976176	39545	107315	0	0	8139	742597	0	0
2024-05-17 11:42:32			0	34122	0	0	0	19992	18560	148758	27333	976265	39545	107312	0	0	8140	742053	0	0
2024-05-17 11:43:32			0	34129	0	0	0	20010	18570	148654	27332	976263	39536	107319	0	0	8140	741672	0	0
2024-05-17 11:44:32			0	34149	0	0	0	20010	18580	148658	27814	976298	39547	107319	0	0	8141	740660	0	0
2024-05-17 11:45:32			0	34171	0	0	0	19963	18580	148582	27666	976272	39547	107301	0	0	8143	739592	0	0
2024-05-17 11:46:32			0	34145	0	0	0	19950	18580	148674	27621	976254	39548	107296	0	0	8142	740854	0	0
2024-05-17 11:47:32			0	34123	0	0	0	19966	18570	148642	27545	976202	39545	107302	0	0	8141	741964	0	0
2024-05-17 11:48:32			0	34123	0	0	0	20012	18560	148718	27689	976300	39557	107320	0	0	8140	742005	0	0
2024-05-17 11:49:32			0	34130	0	0	0	20012	18580	148638	27618	976325	39547	107320	0	0	8140	741583	0	0
2024-05-17 11:50:32			0	34114	0	0	0	20023	18590	148662	27301	976376	39548	107324	0	0	8139	742321	0	0
2024-05-17 11:51:32			0	34139	0	0	0	20025	18590	148694	26979	976376	39538	107325	0	0	8141	741105	0	0
2024-05-17 11:52:32			0	34116	0	0	0	20044	18590	148682	27313	976376	39538	107332	0	0	8139	742224	0	0
2024-05-17 11:53:32			0	34128	0	0	0	20018	18610	148614	27145	976428	39550	107322	0	0	8140	741559	0	0
2024-05-17 11:54:32			0	34131	0	0	0	20005	18610	148578	27502	976375	39550	107317	0	0	8141	741413	0	0
2024-05-17 11:55:32			0	34140	0	0	0	19997	18610	148558	27665	976348	39550	107314	0	0	8141	740976	0	0
2024-05-17 11:56:32			0	34122	0	0	0	19974	18600	148578	27873	976340	39550	107305	0	0	8141	741891	0	0
2024-05-17 11:57:32			0	34119	0	0	0	20002	18590	148718	27599	976323	39538	107316	0	0	8140	742078	0	0
2024-05-17 11:58:32			0	34107	0	0	0	20025	18590	148762	27457	976350	39548	107325	0	0	8139	742662	0	0
2024-05-17 11:59:32			0	34083	0	0	0	19989	18600	148770	27237	976384	39527	107311	0	0	8138	743790	0	0
2024-05-17 12:00:32			0	34075	0	0	0	20020	18600	148770	27244	976366	39561	107323	0	0	8137	744180	0	0
2024-05-17 12:01:32			0	34099	0	0	0	20028	18600	148834	27606	976393	39561	107326	0	0	8138	743011	0	0
2024-05-17 12:02:32			0	34108	0	0	0	20012	18600	148666	27675	976331	39560	107320	0	0	8139	742572	0	0
2024-05-17 12:03:32			0	34089	0	0	0	20020	18610	148722	27479	976428	39539	107323	0	0	8138	743457	0	0
2024-05-17 12:04:32			0	34107	0	0	0	20031	18610	148714	27647	976375	39550	107327	0	0	8139	742581	0	0
2024-05-17 12:05:32			0	34113	0	0	0	20080	18610	148670	27322	976489	39550	107346	0	0	8138	742288	0	0
2024-05-17 12:06:32			0	34138	0	0	0	20090	18630	148586	27447	976593	39551	107350	0	0	8140	740992	0	0
2024-05-17 12:07:32			0	34137	0	0	0	20109	18630	148614	27289	976567	39563	107357	0	0	8139	741040	0	0
2024-05-17 12:08:32			0	34157	0	0	0	20080	18640	148506	27705	976671	39553	107346	0	0	8141	740028	0	0
2024-05-17 12:09:32			0	34158	0	0	0	20054	18650	148518	27412	976627	39543	107336	0	0	8141	739939	0	0
2024-05-17 12:10:32			0	34156	0	0	0	20038	18650	148526	27705	976556	39565	107330	0	0	8142	740037	0	0
2024-05-17 12:11:32			0	34138	0	0	0	20012	18650	148558	27298	976521	39543	107320	0	0	8141	740911	0	0
2024-05-17 12:12:32			0	34134	0	0	0	20038	18640	148610	27445	976486	39542	107330	0	0	8140	741146	0	0
2024-05-17 12:13:32			0	34117	0	0	0	20062	18640	148722	27315	976584	39575	107339	0	0	8139	741972	0	0
2024-05-17 12:14:32			0	34106	0	0	0	20033	18640	148694	27644	976478	39541	107328	0	0	8139	742507	0	0
2024-05-17 12:15:32			0	34113	0	0	0	20080	18640	148782	27640	976565	39553	107346	0	0	8138	742167	0	0
2024-05-17 12:16:32			0	34114	0	0	0	20088	18640	148814	27668	976645	39553	107349	0	0	8138	742118	0	0
2024-05-17 12:17:32			0	34136	0	0	0	20041	18650	148702	27559	976574	39565	107331	0	0	8140	741008	0	0
2024-05-17 12:18:32			0	34119	0	0	0	20010	18650	148610	27332	976609	39543	107319	0	0	8140	741834	0	0
2024-05-17 12:19:32			0	34096	0	0	0	20005	18640	148666	27550	976504	39541	107317	0	0	8139	742994	0	0
2024-05-17 12:20:32			0	34112	0	0	0	20028	18640	148846	27628	976486	39532	107326	0	0	8139	742215	0	0
2024-05-17 12:21:32			0	34081	0	0	0	20106	18640	148790	27634	976592	39553	107356	0	0	8136	743725	0	0
2024-05-17 12:22:32			0	34079	0	0	0	20116	18640	148810	27507	976663	39575	107360	0	0	8136	743822	0	0
2024-05-17 12:23:32			0	34112	0	0	0	20088	18650	148762	27348	976688	39565	107349	0	0	8138	742175	0	0
2024-05-17 12:24:32			0	34112	0	0	0	20080	18660	148786	27402	976678	39544	107346	0	0	8138	742134	0	0
2024-05-17 12:25:32			0	34128	0	0	0	20124	18660	148726	27670	976731	39555	107363	0	0	8139	741356	0	0
2024-05-17 12:26:32			0	34124	0	0	0	20070	18670	148606	27703	976713	39556	107342	0	0	8139	741510	0	0
2024-05-17 12:27:32			0	34137	0	0	0	20072	18670	148714	27478	976686	39545	107343	0	0	8140	740878	0	0
2024-05-17 12:28:32			0	34135	0	0	0	20049	18660	148786	27696	976678	39566	107334	0	0	8140	741016	0	0
2024-05-17 12:29:32			0	34119	0	0	0	20059	18680	148742	27474	976624	39556	107338	0	0	8139	741712	0	0
2024-05-17 12:30:32			0	34127	0	0	0	20106	18670	148662	27531	976607	39556	107356	0	0	8139	741364	0	0
2024-05-17 12:31:32			0	34140	0	0	0	20090	18670	148714	27542	976748	39545	107350	0	0	8140	740732	0	0
2024-05-17 12:32:32			0	34121	0	0	0	20106	18670	148794	27204	976766	39567	107356	0	0	8139	741656	0	0
2024-05-17 12:33:32			0	34145	0	0	0	20122	18680	148702	27519	976791	39568	107362	0	0	8140	740449	0	0
2024-05-17 12:34:32			0	34147	0	0	0	20137	18690	148614	27543	976825	39558	107368	0	0	8140	740311	0	0
2024-05-17 12:35:32			0	34149	0	0	0	20098	18690	148550	27138	976825	39569	107353	0	0	8140	740214	0	0
2024-05-17 12:36:32			0	34160	0	0	0	20109	18690	148618	27569	976825	39569	107357	0	0	8141	739680	0	0
2024-05-17 12:37:32			0	34173	0	0	0	20158	18690	148566	27320	976887	39569	107376	0	0	8141	739050	0	0
2024-05-17 12:38:32			0	34150	0	0	0	20142	18710	148482	27360	976938	39582	107370	0	0	8140	740085	0	0
2024-05-17 12:39:32			0	34165	0	0	0	20158	18710	148434	27367	976973	39549	107376	0	0	8140	739357	0	0
2024-05-17 12:40:32			0	34193	0	0	0	20127	18710	148346	27388	976912	39570	107364	0	0	8143	738000	0	0
2024-05-17 12:41:32			0	34192	0	0	0	20127	18720	148306	27424	976910	39571	107364	0	0	8142	738008	0	0
2024-05-17 12:42:32			0	34186	0	0	0	20111	18710	148378	27390	976867	39583	107358	0	0	8142	738339	0	0
2024-05-17 12:43:32			0	34181	0	0	0	20101	18720	148330	27416	976902	39560	107354	0	0	8142	738541	0	0
2024-05-17 12:44:32			0	34174	0	0	0	20064	18710	148302	27303	976806	39548	107340	0	0	8142	738921	0	0
2024-05-17 12:45:32			0	34175	0	0	0	20096	18700	148502	27350	976771	39570	107352	0	0	8142	738912	0	0
2024-05-17 12:46:32			0	34163	0	0	0	20150	18710	148490	27185	976859	39570	107373	0	0	8140	739454	0	0
2024-05-17 12:47:32			0	34185	0	0	0	20140	18710	148374	27331	976885	39570	107369	0	0	8142	738387	0	0
2024-05-17 12:48:32			0	34205	0	0	0	20116	18710	148418	27177	976814	39560	107360	0	0	8143	737419	0	0
2024-05-17 12:49:32			0	34197	0	0	0	20135	18710	148374	27500	976867	39583	107367	0	0	8143	737806	0	0
2024-05-17 12:50:32			0	34198	0	0	0	20158	18710	148362	27606	976893	39571	107376	0	0	8142	737758	0	0
2024-05-17 12:51:32			0	34201	0	0	0	20166	18710	148298	27398	976920	39560	107379	0	0	8142	737612	0	0
2024-05-17 12:52:32			0	34221	0	0	0	20142	18720	148314	27705	976910	39571	107370	0	0	8144	736604	0	0
2024-05-17 12:53:32			0	34233	0	0	0	20119	18730	148178	27324	976980	39551	107361	0	0	8145	735984	0	0
2024-05-17 12:54:32			0	34198	0	0	0	20127	18740	148210	27647	976962	39562	107364	0	0	8143	737636	0	0
2024-05-17 12:55:32			0	34214	0	0	0	20140	18730	148254	27305	976980	39583	107369	0	0	8144	736903	0	0
2024-05-17 12:56:32			0	34206	0	0	0	20080	18730	148346	27524	976847	39562	107346	0	0	8144	737290	0	0
2024-05-17 12:57:32			0	34194	0	0	0	20090	18720	148366	27516	976857	39560	107350	0	0	8143	737911	0	0
2024-05-17 12:58:32			0	34176	0	0	0	20109	18720	148422	27495	976883	39560	107357	0	0	8142	738783	0	0
2024-05-17 12:59:32			0	34189	0	0	0	20072	18720	148334	27453	976769	39549	107343	0	0	8143	738153	0	0
2024-05-17 13:00:32			0	34163	0	0	0	20101	18710	148374	27466	976806	39548	107354	0	0	8141	739454	0	0
2024-05-17 13:01:32			0	34168	0	0	0	20098	18710	148474	27881	976840	39583	107353	0	0	8142	739211	0	0
2024-05-17 13:02:32			0	34175	0	0	0	20106	18720	148462	27431	976910	39560	107356	0	0	8142	738832	0	0
2024-05-17 13:03:32			0	34188	0	0	0	20111	18710	148418	27644	976840	39560	107358	0	0	8142	738242	0	0
2024-05-17 13:04:32			0	34174	0	0	0	20077	18710	148418	27661	976840	39549	107345	0	0	8142	738921	0	0
2024-05-17 13:05:32			0	34181	0	0	0	20135	18710	148486	27460	976859	39570	107367	0	0	8142	738581	0	0
2024-05-17 13:06:32			0	34215	0	0	0	20155	18710	148386	27654	976885	39570	107375	0	0	8143	736935	0	0
2024-05-17 13:07:32			0	34200	0	0	0	20171	18710	148342	27540	976920	39571	107381	0	0	8142	737661	0	0
2024-05-17 13:08:32			0	34227	0	0	0	20150	18720	148198	27421	976936	39571	107373	0	0	8144	736314	0	0
2024-05-17 13:09:32			0	34227	0	0	0	20153	18710	148262	27685	976920	39560	107374	0	0	8144	736355	0	0
2024-05-17 13:10:32			0	34225	0	0	0	20129	18720	148194	27431	976955	39571	107365	0	0	8144	736411	0	0
2024-05-17 13:11:32			0	34210	0	0	0	20142	18730	148190	27673	976945	39583	107370	0	0	8143	737096	0	0
2024-05-17 13:12:32			0	34212	0	0	0	20174	18720	148250	27776	976902	39583	107382	0	0	8143	737040	0	0
2024-05-17 13:13:32			0	34234	0	0	0	20161	18730	148254	27788	977033	39573	107377	0	0	8144	735936	0	0
2024-05-17 13:14:32			0	34239	0	0	0	20122	18730	148206	27687	976953	39562	107362	0	0	8145	735694	0	0
2024-05-17 13:15:32			0	34222	0	0	0	20111	18730	148298	27540	976972	39583	107358	0	0	8145	736516	0	0
2024-05-17 13:16:32			0	34228	0	0	0	20116	18720	148246	27715	976936	39560	107360	0	0	8145	736266	0	0
2024-05-17 13:17:32			0	34201	0	0	0	20106	18720	148302	27583	976910	39560	107356	0	0	8143	737572	0	0
2024-05-17 13:18:32			0	34185	0	0	0	20150	18720	148354	27209	976902	39571	107373	0	0	8142	738347	0	0
2024-05-17 13:19:32			0	34181	0	0	0	20096	18710	148410	27616	976893	39571	107352	0	0	8142	738581	0	0
2024-05-17 13:20:32			0	34181	0	0	0	20122	18710	148530	27670	976893	39571	107362	0	0	8142	738581	0	0
2024-05-17 13:21:32			0	34163	0	0	0	20111	18720	148430	27365	976910	39571	107358	0	0	8141	739414	0	0
2024-05-17 13:22:32			0	34177	0	0	0	20122	18710	148530	27616	976893	39549	107362	0	0	8142	738775	0	0
2024-05-17 13:23:32			0	34164	0	0	0	20132	18720	148466	27270	976928	39560	107366	0	0	8141	739365	0	0
2024-05-17 13:24:32			0	34170	0	0	0	20163	18720	148466	27488	976989	39549	107378	0	0	8141	739074	0	0
2024-05-17 13:25:32			0	34188	0	0	0	20176	18730	148514	27291	976998	39561	107383	0	0	8141	738161	0	0
2024-05-17 13:26:32			0	34189	0	0	0	20161	18730	148398	27507	976980	39594	107377	0	0	8142	738113	0	0
2024-05-17 13:27:32			0	34173	0	0	0	20181	18750	148398	27512	977031	39584	107385	0	0	8141	738807	0	0
2024-05-17 13:28:32			0	34192	0	0	0	20181	18740	148350	27647	977076	39583	107385	0	0	8142	737927	0	0
2024-05-17 13:29:32			0	34211	0	0	0	20186	18750	148370	27272	977031	39584	107387	0	0	8143	736967	0	0
2024-05-17 13:30:32			0	34196	0	0	0	20202	18750	148382	27289	977031	39574	107393	0	0	8142	737693	0	0
2024-05-17 13:31:32			0	34206	0	0	0	20225	18750	148318	27215	977119	39564	107402	0	0	8142	737209	0	0
2024-05-17 13:32:32			0	34212	0	0	0	20218	18760	148230	27661	977162	39575	107399	0	0	8142	736878	0	0
2024-05-17 13:33:32			0	34228	0	0	0	20158	18770	148250	27261	977179	39565	107376	0	0	8144	736064	0	0
2024-05-17 13:34:32			0	34220	0	0	0	20189	18760	148338	27415	977162	39596	107388	0	0	8143	736491	0	0
2024-05-17 13:35:32			0	34196	0	0	0	20197	18770	148286	27666	977179	39598	107391	0	0	8142	737612	0	0
2024-05-17 13:36:32			0	34231	0	0	0	20202	18770	148358	27445	977232	39577	107393	0	0	8144	735920	0	0
2024-05-17 13:37:32			0	34212	0	0	0	20207	18770	148422	27850	977232	39587	107395	0	0	8143	736838	0	0
2024-05-17 13:38:32			0	34184	0	0	0	20176	18780	148402	27724	977187	39577	107383	0	0	8141	738153	0	0
2024-05-17 13:39:32			0	34184	0	0	0	20218	18780	148322	27698	977160	39577	107399	0	0	8141	738153	0	0
2024-05-17 13:40:32			0	34174	0	0	0	20212	18770	148282	27575	977258	39577	107397	0	0	8140	738678	0	0
2024-05-17 13:41:32			0	34194	0	0	0	20192	18790	148446	27562	977256	39577	107389	0	0	8142	737628	0	0
2024-05-17 13:42:32			0	34177	0	0	0	20207	18800	148254	27371	977212	39567	107395	0	0	8141	738411	0	0
2024-05-17 13:43:32			0	34188	0	0	0	20207	18780	148374	27538	977213	39598	107395	0	0	8141	737959	0	0
2024-05-17 13:44:32			0	34175	0	0	0	20205	18790	148330	27767	977177	39577	107394	0	0	8141	738548	0	0
2024-05-17 13:45:32			0	34175	0	0	0	20202	18800	148434	27384	977238	39578	107393	0	0	8141	738508	0	0
2024-05-17 13:46:32			0	34176	0	0	0	20223	18810	148422	27445	977281	39589	107401	0	0	8140	738419	0	0
2024-05-17 13:47:32			0	34200	0	0	0	20215	18800	148406	27459	977326	39579	107398	0	0	8142	737297	0	0
2024-05-17 13:48:32			0	34180	0	0	0	20186	18800	148314	27431	977265	39567	107387	0	0	8141	738266	0	0
2024-05-17 13:49:32			0	34184	0	0	0	20215	18800	148338	27627	977265	39578	107398	0	0	8141	738072	0	0
2024-05-17 13:50:32			0	34196	0	0	0	20241	18800	148394	27471	977300	39579	107408	0	0	8141	737491	0	0
2024-05-17 13:51:32			0	34181	0	0	0	20215	18800	148322	27249	977326	39579	107398	0	0	8141	738217	0	0
2024-05-17 13:52:32			0	34188	0	0	0	20257	18800	148238	27327	977371	39588	107414	0	0	8140	737878	0	0
2024-05-17 13:53:32			0	34200	0	0	0	20228	18810	148334	27341	977237	39589	107403	0	0	8142	737257	0	0
2024-05-17 13:54:32			0	34188	0	0	0	20220	18820	148318	27405	977404	39590	107400	0	0	8141	737797	0	0
2024-05-17 13:55:32			0	34206	0	0	0	20192	18810	148274	27916	977316	39568	107389	0	0	8143	736967	0	0
2024-05-17 13:56:32			0	34183	0	0	0	20241	18810	148218	27263	977308	39579	107408	0	0	8140	738080	0	0
2024-05-17 13:57:32			0	34202	0	0	0	20254	18820	148314	27254	977377	39590	107413	0	0	8141	737120	0	0
2024-05-17 13:58:32			0	34224	0	0	0	20275	18830	148246	27358	977447	39591	107421	0	0	8142	736016	0	0
2024-05-17 13:59:32			0	34230	0	0	0	20262	18820	148234	27486	977412	39591	107416	0	0	8143	735766	0	0
2024-05-17 14:00:32			0	34231	0	0	0	20207	18830	148114	27538	977376	39591	107395	0	0	8144	735678	0	0
2024-05-17 14:01:32			0	34241	0	0	0	20249	18830	148126	27595	977402	39581	107411	0	0	8144	735195	0	0
2024-05-17 14:02:32			0	34232	0	0	0	20259	18830	148130	27578	977367	39591	107415	0	0	8143	735629	0	0
2024-05-17 14:03:32			0	34248	0	0	0	20194	18830	148030	27590	977349	39581	107390	0	0	8145	734857	0	0
2024-05-17 14:04:32			0	34240	0	0	0	20202	18820	148214	27519	977306	39570	107393	0	0	8144	735283	0	0
2024-05-17 14:05:32			0	34234	0	0	0	20179	18820	148070	27192	977333	39591	107384	0	0	8144	735573	0	0
2024-05-17 14:06:32			0	34232	0	0	0	20207	18820	148018	27263	977351	39590	107395	0	0	8144	735670	0	0
2024-05-17 14:07:32			0	34251	0	0	0	20238	18810	147978	27341	977316	39600	107407	0	0	8144	734793	0	0
2024-05-17 14:08:32			0	34252	0	0	0	20210	18820	147974	27492	977359	39581	107396	0	0	8145	734704	0	0
2024-05-17 14:09:32			0	34253	0	0	0	20207	18820	148062	27197	977271	39580	107395	0	0	8145	734656	0	0
2024-05-17 14:10:32			0	34248	0	0	0	20181	18820	148046	27434	977324	39580	107385	0	0	8145	734897	0	0
2024-05-17 14:11:32			0	34254	0	0	0	20228	18820	148058	27400	977333	39559	107403	0	0	8145	734607	0	0
2024-05-17 14:12:32			0	34277	0	0	0	20218	18810	147970	27332	977290	39579	107399	0	0	8146	733539	0	0
2024-05-17 14:13:32			0	34273	0	0	0	20233	18810	147954	27244	977334	39568	107405	0	0	8146	733731	0	0
2024-05-17 14:14:32			0	34284	0	0	0	20238	18820	147950	27421	977333	39581	107407	0	0	8146	733161	0	0
2024-05-17 14:15:32			0	34278	0	0	0	20228	18820	147818	27170	977351	39590	107403	0	0	8146	733450	0	0
2024-05-17 14:16:32			0	34306	0	0	0	20251	18830	147842	27244	977394	39581	107412	0	0	8147	732062	0	0
2024-05-17 14:17:32			0	34293	0	0	0	20244	18830	147878	27407	977447	39559	107409	0	0	8147	732688	0	0
2024-05-17 14:18:32			0	34296	0	0	0	20257	18830	147850	27512	977394	39591	107414	0	0	8147	732543	0	0
2024-05-17 14:19:32			0	34311	0	0	0	20251	18830	147766	27319	977420	39581	107412	0	0	8148	731821	0	0
2024-05-17 14:20:32			0	34328	0	0	0	20228	18850	147898	27360	977401	39593	107403	0	0	8149	730924	0	0
2024-05-17 14:21:32			0	34310	0	0	0	20236	18840	147814	27201	977437	39582	107406	0	0	8148	731829	0	0
2024-05-17 14:22:32			0	34314	0	0	0	20238	18840	147778	27310	977419	39593	107407	0	0	8148	731637	0	0
2024-05-17 14:23:32			0	34322	0	0	0	20223	18840	147750	27220	977366	39583	107401	0	0	8149	731252	0	0
2024-05-17 14:24:32			0	34307	0	0	0	20246	18830	147766	27255	977367	39581	107410	0	0	8148	732014	0	0
2024-05-17 14:25:32			0	34327	0	0	0	20257	18820	147734	27268	977518	39570	107414	0	0	8148	731092	0	0
2024-05-17 14:26:32			0	34327	0	0	0	20218	18830	147698	27201	977376	39581	107399	0	0	8149	731052	0	0
2024-05-17 14:27:32			0	34313	0	0	0	20199	18830	147654	27256	977323	39581	107392	0	0	8149	731725	0	0
2024-05-17 14:28:32			0	34317	0	0	0	20202	18840	147662	27353	977437	39582	107393	0	0	8149	731492	0	0
2024-05-17 14:29:32			0	34321	0	0	0	20225	18830	147702	27556	977349	39581	107402	0	0	8149	731340	0	0
2024-05-17 14:30:32			0	34306	0	0	0	20270	18830	147750	27395	977447	39602	107419	0	0	8147	732062	0	0
2024-05-17 14:31:32			0	34347	0	0	0	20210	18850	147703	27180	977507	39571	107396	0	0	8151	730011	0	0
2024-05-17 14:32:32			0	34322	0	0	0	20223	18830	147690	27433	977376	39581	107401	0	0	8149	731292	0	0
2024-05-17 14:33:32			0	34301	0	0	0	20272	18840	147754	27348	977358	39571	107420	0	0	8147	732262	0	0
2024-05-17 14:34:32			0	34339	0	0	0	20283	18840	147774	27828	977498	39583	107424	0	0	8149	730435	0	0
2024-05-17 14:35:32			0	34341	0	0	0	20257	18850	147682	27538	977480	39593	107414	0	0	8149	730299	0	0
2024-05-17 14:36:32			0	34335	0	0	0	20238	18860	147706	27914	977497	39572	107407	0	0	8149	730547	0	0
2024-05-17 14:37:32			0	34327	0	0	0	20197	18850	147674	27647	977454	39593	107391	0	0	8150	730972	0	0
2024-05-17 14:38:32			0	34313	0	0	0	20244	18850	147798	27627	977427	39571	107409	0	0	8148	731645	0	0
2024-05-17 14:39:32			0	34309	0	0	0	20236	18840	147826	27398	977498	39593	107406	0	0	8148	731877	0	0
2024-05-17 14:40:32			0	34323	0	0	0	20192	18850	147706	27372	977454	39571	107389	0	0	8149	731164	0	0
2024-05-17 14:41:32			0	34317	0	0	0	20249	18850	147830	27260	977409	39561	107411	0	0	8148	731452	0	0
2024-05-17 14:42:32			0	34314	0	0	0	20262	18840	147750	27161	977498	39593	107416	0	0	8148	731637	0	0
2024-05-17 14:43:32			0	34323	0	0	0	20290	18840	147806	27493	977516	39592	107427	0	0	8148	731204	0	0
2024-05-17 14:44:32			0	34336	0	0	0	20192	18850	147682	27680	977462	39572	107389	0	0	8150	730539	0	0
2024-05-17 14:45:32			0	34333	0	0	0	20205	18840	147786	27319	977392	39583	107394	0	0	8150	730723	0	0
2024-05-17 14:46:32			0	34317	0	0	0	20288	18840	147830	27447	977472	39593	107426	0	0	8147	731492	0	0
2024-05-17 14:47:32			0	34329	0	0	0	20301	18850	147770	27543	977568	39572	107431	0	0	8148	730876	0	0
2024-05-17 14:48:32			0	34339	0	0	0	20270	18860	147738	27448	977603	39583	107419	0	0	8149	730355	0	0
2024-05-17 14:49:32			0	34334	0	0	0	20223	18860	147750	27360	977524	39594	107401	0	0	8150	730595	0	0
2024-05-17 14:50:32			0	34322	0	0	0	20212	18850	147750	27192	977462	39572	107397	0	0	8149	731212	0	0
2024-05-17 14:51:32			0	34324	0	0	0	20306	18860	147914	27118	977497	39583	107433	0	0	8148	731076	0	0
2024-05-17 14:52:32			0	34311	0	0	0	20264	18870	147930	27017	977495	39584	107417	0	0	8148	731661	0	0
2024-05-17 14:53:32			0	34303	0	0	0	20257	18870	147882	27345	977540	39573	107414	0	0	8147	732046	0	0
2024-05-17 14:54:32			0	34307	0	0	0	20236	18860	147890	27715	977532	39606	107406	0	0	8148	731893	0	0
2024-05-17 14:55:32			0	34327	0	0	0	20309	18870	147878	27220	977540	39583	107434	0	0	8148	730892	0	0
2024-05-17 14:56:32			0	34336	0	0	0	20283	18860	147894	27582	977585	39606	107424	0	0	8149	730499	0	0
2024-05-17 14:57:32			0	34341	0	0	0	20288	18870	147834	27327	977620	39595	107426	0	0	8149	730219	0	0
2024-05-17 14:58:32			0	34339	0	0	0	20293	18870	147746	27464	977601	39584	107428	0	0	8149	730315	0	0
2024-05-17 14:59:32			0	34353	0	0	0	20233	18880	147643	27403	977610	39574	107405	0	0	8151	729603	0	0
2024-05-17 15:00:32			0	34340	0	0	0	20298	18870	147778	27682	977601	39584	107430	0	0	8149	730267	0	0
2024-05-17 15:01:32			0	34343	0	0	0	20283	18880	147822	27097	977636	39607	107424	0	0	8149	730083	0	0
2024-05-17 15:02:32			0	34342	0	0	0	20340	18890	147694	27116	977706	39597	107446	0	0	8148	730091	0	0
2024-05-17 15:03:32			0	34371	0	0	0	20309	18900	147583	27282	977749	39597	107434	0	0	8150	728660	0	0
2024-05-17 15:04:32			0	34371	0	0	0	20272	18890	147547	27287	977688	39608	107420	0	0	8151	728700	0	0
2024-05-17 15:05:32			0	34363	0	0	0	20293	18900	147583	27618	977696	39576	107428	0	0	8150	729043	0	0
2024-05-17 15:06:32			0	34357	0	0	0	20301	18890	147675	27242	977635	39576	107431	0	0	8150	729371	0	0
2024-05-17 15:07:32			0	34357	0	0	0	20329	18890	147623	27376	977714	39586	107442	0	0	8149	729371	0	0
2024-05-17 15:08:32			0	34378	0	0	0	20303	18900	147599	27175	977696	39586	107432	0	0	8151	728324	0	0
2024-05-17 15:09:32			0	34371	0	0	0	20345	18910	147551	27492	977800	39610	107448	0	0	8150	728620	0	0
2024-05-17 15:10:32			0	34366	0	0	0	20311	18900	147511	27280	977863	39587	107435	0	0	8150	728899	0	0
2024-05-17 15:11:32			0	34362	0	0	0	20298	18910	147475	27242	977818	39599	107430	0	0	8150	729051	0	0
2024-05-17 15:12:32			0	34359	0	0	0	20311	18910	147491	27376	977765	39577	107435	0	0	8150	729195	0	0
2024-05-17 15:13:32			0	34352	0	0	0	20296	18910	147511	27512	977686	39588	107429	0	0	8150	729531	0	0
2024-05-17 15:14:32			0	34363	0	0	0	20264	18900	147491	27369	977704	39598	107417	0	0	8151	729043	0	0
2024-05-17 15:15:32			0	34345	0	0	0	20267	18900	147598	27732	977651	39577	107418	0	0	8150	729907	0	0
2024-05-17 15:16:32			0	34349	0	0	0	20337	18910	147759	27500	977712	39599	107445	0	0	8149	729675	0	0
2024-05-17 15:17:32			0	34363	0	0	0	20327	18910	147599	27512	977818	39599	107441	0	0	8150	729003	0	0
2024-05-17 15:18:32			0	34368	0	0	0	20332	18900	147671	27587	977784	39598	107443	0	0	8150	728803	0	0
2024-05-17 15:19:32			0	34382	0	0	0	20314	18910	147519	27244	977800	39588	107436	0	0	8151	728092	0	0
2024-05-17 15:20:32			0	34381	0	0	0	20272	18910	147455	27569	977712	39588	107420	0	0	8152	728140	0	0
2024-05-17 15:21:32			0	34377	0	0	0	20303	18920	147639	27277	977764	39578	107432	0	0	8151	728292	0	0
2024-05-17 15:22:32			0	34374	0	0	0	20319	18910	147483	27457	977827	39588	107438	0	0	8150	728476	0	0
2024-05-17 15:23:32			0	34376	0	0	0	20332	18920	147567	27585	977790	39600	107443	0	0	8150	728340	0	0
2024-05-17 15:24:32			0	34385	0	0	0	20319	18920	147491	27298	977756	39589	107438	0	0	8151	727909	0	0
2024-05-17 15:25:32			0	34358	0	0	0	20303	18920	147455	27300	977808	39589	107432	0	0	8150	729203	0	0
2024-05-17 15:26:32			0	34359	0	0	0	20324	18910	147579	27604	977712	39599	107440	0	0	8150	729195	0	0
2024-05-17 15:27:32			0	34369	0	0	0	20327	18920	147639	27533	977817	39589	107441	0	0	8150	728676	0	0
2024-05-17 15:28:32			0	34379	0	0	0	20290	18920	147599	27516	977808	39600	107427	0	0	8151	728196	0	0
2024-05-17 15:29:32			0	34367	0	0	0	20262	18920	147639	27431	977756	39600	107416	0	0	8151	728772	0	0
2024-05-17 15:30:32			0	34366	0	0	0	20285	18920	147623	27202	977729	39600	107425	0	0	8151	728819	0	0
2024-05-17 15:31:32			0	34365	0	0	0	20309	18910	147679	27300	977747	39599	107434	0	0	8150	728907	0	0
2024-05-17 15:32:32			0	34368	0	0	0	20329	18920	147627	27741	977764	39600	107442	0	0	8150	728724	0	0
2024-05-17 15:33:32			0	34361	0	0	0	20345	18920	147655	27530	977835	39578	107448	0	0	8149	729059	0	0
2024-05-17 15:34:32			0	34358	0	0	0	20267	18910	147627	27229	977774	39577	107418	0	0	8150	729243	0	0
2024-05-17 15:35:32			0	34351	0	0	0	20257	18920	147519	27651	977764	39589	107414	0	0	8150	729539	0	0
2024-05-17 15:36:32			0	34338	0	0	0	20329	18910	147670	27854	977800	39588	107442	0	0	8148	730203	0	0
2024-05-17 15:37:32			0	34347	0	0	0	20303	18920	147679	27644	977764	39600	107432	0	0	8149	729731	0	0
2024-05-17 15:38:32			0	34360	0	0	0	20254	18910	147679	27303	977712	39577	107413	0	0	8151	729147	0	0
2024-05-17 15:39:32			0	34329	0	0	0	20251	18910	147766	27646	977668	39599	107412	0	0	8149	730635	0	0
2024-05-17 15:40:32			0	34326	0	0	0	20340	18910	147846	27379	977800	39599	107446	0	0	8147	730779	0	0
2024-05-17 15:41:32			0	34316	0	0	0	20316	18930	147774	27653	977852	39601	107437	0	0	8147	731180	0	0
2024-05-17 15:42:32			0	34336	0	0	0	20293	18930	147762	27472	977878	39612	107428	0	0	8149	730219	0	0
2024-05-17 15:43:32			0	34346	0	0	0	20332	18920	147715	27345	977808	39589	107443	0	0	8149	729779	0	0
2024-05-17 15:44:32			0	34350	0	0	0	20280	18910	147754	27265	977774	39588	107423	0	0	8150	729627	0	0
2024-05-17 15:45:32			0	34302	0	0	0	20225	18920	147870	27495	977623	39578	107402	0	0	8148	731893	0	0
2024-05-17 15:46:32			0	34295	0	0	0	20298	18910	147798	27580	977668	39566	107430	0	0	8146	732270	0	0
2024-05-17 15:47:32			0	34310	0	0	0	20322	18910	147878	27488	977712	39577	107439	0	0	8147	731549	0	0
2024-05-17 15:48:32			0	34323	0	0	0	20277	18900	147834	27334	977802	39586	107422	0	0	8148	730964	0	0
2024-05-17 15:49:32			0	34318	0	0	0	20316	18920	147830	27341	977782	39589	107437	0	0	8147	731124	0	0
2024-05-17 15:50:32			0	34328	0	0	0	20288	18920	147850	27322	977835	39600	107426	0	0	8148	730643	0	0
2024-05-17 15:51:32			0	34299	0	0	0	20309	18920	147846	27630	977808	39589	107434	0	0	8146	732038	0	0
2024-05-17 15:52:32			0	34301	0	0	0	20324	18930	147862	27300	977799	39579	107440	0	0	8146	731901	0	0
2024-05-17 15:53:32			0	34281	0	0	0	20324	18930	147910	27428	977852	39601	107440	0	0	8145	732864	0	0
2024-05-17 15:54:32			0	34305	0	0	0	20288	18930	147990	27445	977825	39601	107426	0	0	8147	731709	0	0
2024-05-17 15:55:32			0	34297	0	0	0	20192	18920	147934	27677	977684	39578	107389	0	0	8148	732134	0	0
2024-05-17 15:56:32			0	34257	0	0	0	20212	18910	147990	27403	977668	39566	107397	0	0	8146	734101	0	0
2024-05-17 15:57:32			0	34233	0	0	0	20238	18900	148202	27524	977625	39598	107407	0	0	8144	735299	0	0
2024-05-17 15:58:32			0	34242	0	0	0	20207	18900	148182	27582	977616	39565	107395	0	0	8145	734865	0	0
2024-05-17 15:59:32			0	34228	0	0	0	20174	18900	148254	27485	977616	39565	107382	0	0	8145	735540	0	0
2024-05-17 16:00:32			0	34209	0	0	0	20072	18870	148278	27317	977381	39583	107343	0	0	8145	736580	0	0
2024-05-17 16:01:32			0	34182	0	0	0	20272	18860	148406	27445	977471	39572	107420	0	0	8140	737926	0	0
2024-05-17 16:02:32			0	34189	0	0	0	20337	18860	148522	27293	977585	39583	107445	0	0	8139	737587	0	0
2024-05-17 16:03:32			0	34230	0	0	0	20327	18880	148314	27183	977716	39595	107441	0	0	8142	735524	0	0
2024-05-17 16:04:32			0	34234	0	0	0	20288	18890	148182	27137	977706	39597	107426	0	0	8143	735291	0	0
2024-05-17 16:05:32			0	34231	0	0	0	20257	18880	148106	27199	977644	39585	107414	0	0	8143	735476	0	0
2024-05-17 16:06:32			0	34228	0	0	0	20249	18900	148202	27371	977749	39576	107411	0	0	8143	735540	0	0
2024-05-17 16:07:32			0	34245	0	0	0	20285	18890	148258	27454	977653	39576	107425	0	0	8144	734760	0	0
2024-05-17 16:08:32			0	34250	0	0	0	20296	18890	148226	27206	977661	39597	107429	0	0	8144	734519	0	0
2024-05-17 16:09:32			0	34243	0	0	0	20218	18900	148202	27291	977749	39597	107399	0	0	8145	734816	0	0
2024-05-17 16:10:32			0	34246	0	0	0	20231	18890	148150	27486	977573	39597	107404	0	0	8145	734712	0	0
2024-05-17 16:11:32			0	34249	0	0	0	20166	18890	148270	27384	977626	39586	107379	0	0	8146	734567	0	0
2024-05-17 16:12:32			0	34223	0	0	0	20267	18880	148354	27689	977592	39575	107418	0	0	8143	735863	0	0
2024-05-17 16:13:32			0	34236	0	0	0	20285	18880	148258	27282	977618	39575	107425	0	0	8143	735235	0	0
2024-05-17 16:14:32			0	34240	0	0	0	20181	18880	148158	27450	977618	39585	107385	0	0	8145	735042	0	0
2024-05-17 16:15:32			0	34231	0	0	0	20275	18890	148178	27528	977608	39586	107421	0	0	8143	735436	0	0
2024-05-17 16:16:32			0	34224	0	0	0	20324	18880	148242	27580	977644	39575	107440	0	0	8142	735814	0	0
2024-05-17 16:17:32			0	34250	0	0	0	20342	18900	148142	27504	977775	39597	107447	0	0	8143	734479	0	0
2024-05-17 16:18:32			0	34264	0	0	0	20348	18910	148062	27620	977880	39610	107449	0	0	8144	733763	0	0
2024-05-17 16:19:32			0	34278	0	0	0	20345	18920	147978	27675	977888	39578	107448	0	0	8145	733048	0	0
2024-05-17 16:20:32			0	34286	0	0	0	20342	18930	147898	27623	977878	39601	107447	0	0	8145	732623	0	0
2024-05-17 16:21:32			0	34281	0	0	0	20337	18920	147982	27627	977843	39600	107445	0	0	8145	732904	0	0
2024-05-17 16:22:32			0	34294	0	0	0	20342	18920	147982	27599	977808	39600	107447	0	0	8146	732278	0	0
2024-05-17 16:23:32			0	34298	0	0	0	20309	18920	147990	27786	977835	39589	107434	0	0	8146	732086	0	0
2024-05-17 16:24:32			0	34276	0	0	0	20316	18930	147974	27469	977852	39601	107437	0	0	8145	733105	0	0
2024-05-17 16:25:32			0	34275	0	0	0	20264	18930	148050	27602	977780	39601	107417	0	0	8146	733153	0	0
2024-05-17 16:26:32			0	34260	0	0	0	20293	18920	148090	27517	977790	39589	107428	0	0	8144	733916	0	0
2024-05-17 16:27:32			0	34258	0	0	0	20254	18930	148130	27180	977799	39579	107413	0	0	8145	733972	0	0
2024-05-17 16:28:32			0	34254	0	0	0	20207	18920	148074	27275	977703	39567	107395	0	0	8146	734205	0	0
2024-05-17 16:29:32			0	34239	0	0	0	20277	18900	148178	27374	977678	39565	107422	0	0	8143	735009	0	0
2024-05-17 16:30:32			0	34231	0	0	0	20199	18900	148162	27580	977669	39586	107392	0	0	8144	735396	0	0
2024-05-17 16:31:32			0	34217	0	0	0	20083	18890	148182	27665	977502	39576	107347	0	0	8145	736112	0	0
2024-05-17 16:32:32			0	34181	0	0	0	20215	18880	148502	27206	977451	39552	107398	0	0	8141	737894	0	0
2024-05-17 16:33:32			0	34182	0	0	0	20296	18880	148446	27258	977530	39595	107429	0	0	8140	737845	0	0
2024-05-17 16:34:32			0	34194	0	0	0	20233	18880	148450	27246	977636	39584	107405	0	0	8142	737265	0	0
2024-05-17 16:35:32			0	34202	0	0	0	20259	18890	148386	27313	977653	39586	107415	0	0	8142	736837	0	0
2024-05-17 16:36:32			0	34196	0	0	0	20153	18880	148426	27376	977565	39564	107374	0	0	8143	737168	0	0
2024-05-17 16:37:32			0	34190	0	0	0	20194	18880	148418	27476	977530	39574	107390	0	0	8142	737458	0	0
2024-05-17 16:38:32			0	34197	0	0	0	20236	18870	148466	27381	977567	39562	107406	0	0	8142	737160	0	0
2024-05-17 16:39:32			0	34191	0	0	0	20197	18870	148450	27495	977620	39583	107391	0	0	8142	737450	0	0
2024-05-17 16:40:32			0	34190	0	0	0	20303	18880	148398	27462	977663	39574	107432	0	0	8140	737458	0	0
2024-05-17 16:41:32			0	34189	0	0	0	20275	18880	148222	27514	977716	39584	107421	0	0	8141	737507	0	0
2024-05-17 16:42:32			0	34191	0	0	0	20332	18890	148306	27580	977706	39586	107443	0	0	8140	737369	0	0
2024-05-17 16:43:32			0	34236	0	0	0	20303	18900	148262	27769	977802	39586	107432	0	0	8143	735154	0	0
2024-05-17 16:44:32			0	34219	0	0	0	20314	18890	148210	27616	977741	39597	107436	0	0	8142	736015	0	0
2024-05-17 16:45:32			0	34244	0	0	0	20275	18910	148230	27294	977712	39588	107421	0	0	8144	734728	0	0
2024-05-17 16:46:32			0	34232	0	0	0	20290	18900	148034	27729	977749	39576	107427	0	0	8143	735347	0	0
2024-05-17 16:47:32			0	34241	0	0	0	20270	18900	148250	27504	977731	39587	107419	0	0	8144	734913	0	0
2024-05-17 16:48:32			0	34226	0	0	0	20311	18900	148258	27419	977837	39598	107435	0	0	8142	735637	0	0
2024-05-17 16:49:32			0	34219	0	0	0	20277	18910	148322	27322	977827	39588	107422	0	0	8142	735935	0	0
2024-05-17 16:50:32			0	34213	0	0	0	20272	18900	148270	27315	977704	39587	107420	0	0	8142	736265	0	0
2024-05-17 16:51:32			0	34212	0	0	0	20218	18900	148286	27234	977722	39576	107399	0	0	8143	736313	0	0
2024-05-17 16:52:32			0	34200	0	0	0	20205	18900	148298	27646	977643	39576	107394	0	0	8142	736894	0	0
2024-05-17 16:53:32			0	34194	0	0	0	20199	18890	148454	27076	977573	39576	107392	0	0	8142	737224	0	0
2024-05-17 16:54:32			0	34173	0	0	0	20283	18870	148470	27203	977628	39574	107424	0	0	8139	738322	0	0
2024-05-17 16:55:32			0	34178	0	0	0	20311	18880	148574	27466	977724	39575	107435	0	0	8139	738039	0	0
2024-05-17 16:56:32			0	34194	0	0	0	20277	18880	148414	27505	977724	39596	107422	0	0	8141	737265	0	0
2024-05-17 16:57:32			0	34181	0	0	0	20270	18890	148418	27175	977767	39597	107419	0	0	8140	737853	0	0
2024-05-17 16:58:32			0	34195	0	0	0	20280	18910	148414	27391	977739	39577	107423	0	0	8141	737095	0	0
2024-05-17 16:59:32			0	34186	0	0	0	20155	18890	148366	27750	977653	39565	107375	0	0	8142	737611	0	0
2024-05-17 17:00:32			0	34157	0	0	0	20186	18890	148490	27575	977494	39576	107387	0	0	8140	739016	0	0
2024-05-17 17:01:32			0	34147	0	0	0	20176	18880	148510	27253	977504	39584	107383	0	0	8140	739541	0	0
2024-05-17 17:02:32			0	34156	0	0	0	20220	18870	148638	27459	977540	39573	107400	0	0	8140	739145	0	0
2024-05-17 17:03:32			0	34149	0	0	0	20220	18870	148526	27204	977540	39573	107400	0	0	8139	739485	0	0
2024-05-17 17:04:32			0	34149	0	0	0	20228	18860	148534	27559	977524	39594	107403	0	0	8139	739526	0	0
2024-05-17 17:05:32			0	34156	0	0	0	20199	18870	148518	27360	977567	39573	107392	0	0	8140	739145	0	0
2024-05-17 17:06:32			0	34147	0	0	0	20192	18860	148542	27464	977532	39583	107389	0	0	8139	739622	0	0
2024-05-17 17:07:32			0	34149	0	0	0	20236	18860	148650	27518	977585	39583	107406	0	0	8139	739526	0	0
2024-05-17 17:08:32			0	34140	0	0	0	20254	18870	148634	27632	977593	39573	107413	0	0	8138	739921	0	0
2024-05-17 17:09:32			0	34140	0	0	0	20238	18870	148622	27692	977540	39583	107407	0	0	8138	739921	0	0
2024-05-17 17:10:32			0	34138	0	0	0	20244	18870	148630	27824	977522	39574	107409	0	0	8138	740018	0	0
2024-05-17 17:11:32			0	34148	0	0	0	20228	18870	148606	27407	977620	39583	107403	0	0	8139	739533	0	0
2024-05-17 17:12:32			0	34127	0	0	0	20228	18870	148594	27528	977514	39573	107403	0	0	8138	740552	0	0
2024-05-17 17:13:32			0	34121	0	0	0	20220	18850	148666	27460	977489	39583	107400	0	0	8137	740925	0	0
2024-05-17 17:14:32			0	34124	0	0	0	20199	18870	148706	27358	977540	39573	107392	0	0	8138	740698	0	0
2024-05-17 17:15:32			0	34118	0	0	0	20171	18850	148622	27616	977454	39571	107381	0	0	8138	741071	0	0
2024-05-17 17:16:32			0	34104	0	0	0	20150	18850	148678	27521	977401	39571	107373	0	0	8138	741751	0	0
2024-05-17 17:17:32			0	34080	0	0	0	20179	18830	148870	27715	977376	39559	107384	0	0	8136	743000	0	0
2024-05-17 17:18:32			0	34076	0	0	0	20140	18830	148918	27149	977341	39570	107369	0	0	8136	743195	0	0
2024-05-17 17:19:32			0	34076	0	0	0	20085	18810	148942	27376	977290	39568	107348	0	0	8137	743276	0	0
2024-05-17 17:20:32			0	34060	0	0	0	20114	18810	149074	27663	977263	39546	107359	0	0	8136	744056	0	0
2024-05-17 17:21:32			0	34054	0	0	0	20241	18810	149106	27296	977334	39568	107408	0	0	8133	744348	0	0
2024-05-17 17:22:32			0	34081	0	0	0	20293	18820	149102	27467	977518	39581	107428	0	0	8134	742992	0	0
2024-05-17 17:23:32			0	34111	0	0	0	20137	18830	148858	27230	977535	39570	107368	0	0	8138	741492	0	0
2024-05-17 17:24:32			0	34096	0	0	0	20153	18850	148898	27358	977454	39571	107374	0	0	8137	742140	0	0
2024-05-17 17:25:32			0	34079	0	0	0	20168	18830	148870	27372	977394	39581	107380	0	0	8136	743049	0	0
2024-05-17 17:26:32			0	34078	0	0	0	20145	18830	149066	27390	977394	39581	107371	0	0	8136	743097	0	0
2024-05-17 17:27:32			0	34085	0	0	0	20127	18820	149014	27481	977298	39569	107364	0	0	8137	742797	0	0
2024-05-17 17:28:32			0	34075	0	0	0	20199	18820	149034	27388	977351	39569	107392	0	0	8135	743284	0	0
2024-05-17 17:29:32			0	34062	0	0	0	20207	18820	149030	27715	977377	39569	107395	0	0	8134	743917	0	0
2024-05-17 17:30:32			0	34100	0	0	0	20288	18820	148954	27362	977430	39580	107426	0	0	8135	742068	0	0
2024-05-17 17:31:32			0	34114	0	0	0	20309	18820	148822	27644	977545	39581	107434	0	0	8135	741387	0	0
2024-05-17 17:32:32			0	34114	0	0	0	20220	18850	148838	27481	977639	39593	107400	0	0	8137	741265	0	0
2024-05-17 17:33:32			0	34125	0	0	0	20171	18840	148754	27391	977516	39571	107381	0	0	8138	740771	0	0
2024-05-17 17:34:32			0	34110	0	0	0	20140	18850	148770	27464	977489	39561	107369	0	0	8138	741459	0	0
2024-05-17 17:35:32			0	34080	0	0	0	20257	18840	148862	27407	977437	39571	107414	0	0	8134	742959	0	0
2024-05-17 17:36:32			0	34121	0	0	0	20210	18840	148866	27248	977551	39560	107396	0	0	8138	740966	0	0
2024-05-17 17:37:32			0	34132	0	0	0	20324	18850	148818	27533	977568	39594	107440	0	0	8136	740391	0	0
2024-05-17 17:38:32			0	34144	0	0	0	20322	18860	148898	27225	977717	39583	107439	0	0	8137	739768	0	0
2024-05-17 17:39:32			0	34148	0	0	0	20285	18860	148586	27916	977664	39583	107425	0	0	8138	739574	0	0
2024-05-17 17:40:32			0	34151	0	0	0	20220	18870	148542	27557	977699	39606	107400	0	0	8139	739388	0	0
2024-05-17 17:41:32			0	34143	0	0	0	20161	18860	148582	27204	977558	39562	107377	0	0	8140	739816	0	0
2024-05-17 17:42:32			0	34128	0	0	0	20163	18840	148706	27436	977411	39571	107378	0	0	8139	740626	0	0
2024-05-17 17:43:32			0	34102	0	0	0	20158	18850	148806	27145	977462	39572	107376	0	0	8137	741848	0	0
2024-05-17 17:44:32			0	34073	0	0	0	20236	18850	148962	27204	977515	39594	107406	0	0	8134	743259	0	0
2024-05-17 17:45:32			0	34084	0	0	0	20197	18850	148954	27317	977533	39571	107391	0	0	8136	742724	0	0
2024-05-17 17:46:32			0	34065	0	0	0	20197	18840	149010	27320	977498	39571	107391	0	0	8135	743690	0	0
2024-05-17 17:47:32			0	34078	0	0	0	20210	18830	148990	27492	977535	39581	107396	0	0	8135	743097	0	0
2024-05-17 17:48:32			0	34080	0	0	0	20135	18840	148966	27585	977516	39582	107367	0	0	8137	742959	0	0
2024-05-17 17:49:32			0	34058	0	0	0	20176	18840	149050	27341	977419	39560	107383	0	0	8135	744031	0	0
2024-05-17 17:50:32			0	34031	0	0	0	20135	18830	149162	27426	977349	39570	107367	0	0	8134	745388	0	0
2024-05-17 17:51:32			0	34005	0	0	0	20251	18820	149294	27581	977518	39591	107412	0	0	8130	746699	0	0
2024-05-17 17:52:32			0	34013	0	0	0	20236	18840	149226	27384	977578	39583	107406	0	0	8131	746226	0	0
2024-05-17 17:53:32			0	34043	0	0	0	20166	18840	149154	27376	977498	39583	107379	0	0	8134	744762	0	0
2024-05-17 17:54:32			0	34012	0	0	0	20127	18830	149198	27190	977429	39570	107364	0	0	8133	746316	0	0
2024-05-17 17:55:32			0	34003	0	0	0	20109	18830	149214	27114	977341	39537	107357	0	0	8133	746756	0	0
2024-05-17 17:56:32			0	33974	0	0	0	20127	18820	149310	27336	977298	39546	107364	0	0	8130	748215	0	0
2024-05-17 17:57:32			0	33962	0	0	0	20150	18800	149626	27488	977352	39568	107373	0	0	8129	748885	0	0
2024-05-17 17:58:32			0	33968	0	0	0	20150	18810	149574	27348	977263	39557	107373	0	0	8130	748550	0	0
2024-05-17 17:59:32			0	33943	0	0	0	20186	18800	149566	27388	977300	39568	107387	0	0	8128	749816	0	0
2024-05-17 18:00:32			0	33973	0	0	0	20124	18800	149494	27459	977379	39568	107363	0	0	8130	748346	0	0
2024-05-17 18:01:32			0	33952	0	0	0	20111	18800	149546	27493	977300	39557	107358	0	0	8129	749375	0	0
2024-05-17 18:02:32			0	33946	0	0	0	20132	18790	149586	27357	977203	39544	107366	0	0	8129	749710	0	0
2024-05-17 18:03:32			0	33928	0	0	0	20158	18770	149726	27223	977232	39565	107376	0	0	8127	750675	0	0
2024-05-17 18:04:32			0	33950	0	0	0	20158	18780	149714	27284	977293	39565	107376	0	0	8128	749555	0	0
2024-05-17 18:05:32			0	33926	0	0	0	20132	18780	149750	27398	977266	39577	107366	0	0	8127	750732	0	0
2024-05-17 18:06:32			0	33929	0	0	0	20155	18790	149646	27074	977256	39577	107375	0	0	8127	750544	0	0
2024-05-17 18:07:32			0	33940	0	0	0	20168	18770	149650	27275	977232	39565	107380	0	0	8128	750087	0	0
2024-05-17 18:08:32			0	33940	0	0	0	20212	18770	149706	27386	977285	39577	107397	0	0	8127	750087	0	0
2024-05-17 18:09:32			0	33967	0	0	0	20140	18770	149502	27062	977311	39577	107369	0	0	8130	748763	0	0
2024-05-17 18:10:32			0	33979	0	0	0	20238	18780	149462	27199	977195	39577	107407	0	0	8129	748135	0	0
2024-05-17 18:11:32			0	33961	0	0	0	20225	18790	149394	27251	977336	39577	107402	0	0	8128	748975	0	0
2024-05-17 18:12:32			0	33991	0	0	0	20246	18800	149374	27336	977450	39588	107410	0	0	8129	747465	0	0
2024-05-17 18:13:32			0	34003	0	0	0	20225	18810	149338	27100	977475	39589	107402	0	0	8130	746838	0	0
2024-05-17 18:14:32			0	34029	0	0	0	20207	18810	149310	27357	977361	39589	107395	0	0	8132	745568	0	0
2024-05-17 18:15:32			0	34044	0	0	0	20150	18810	149214	27362	977387	39579	107373	0	0	8134	744836	0	0
2024-05-17 18:16:32			0	34025	0	0	0	20132	18800	149366	27433	977352	39557	107366	0	0	8133	745804	0	0
2024-05-17 18:17:32			0	34005	0	0	0	20161	18810	149378	27216	977281	39568	107377	0	0	8132	746740	0	0
2024-05-17 18:18:32			0	33989	0	0	0	20135	18780	149470	27383	977301	39555	107367	0	0	8131	747645	0	0
2024-05-17 18:19:32			0	33983	0	0	0	20135	18780	149438	27045	977275	39577	107367	0	0	8131	747939	0	0
2024-05-17 18:20:32			0	33960	0	0	0	20150	18790	149430	27357	977230	39566	107373	0	0	8129	749024	0	0
2024-05-17 18:21:32			0	33987	0	0	0	20212	18780	149598	27178	977248	39566	107397	0	0	8130	747743	0	0
2024-05-17 18:22:32			0	33970	0	0	0	20238	18790	149466	27407	977442	39588	107407	0	0	8128	748534	0	0
2024-05-17 18:23:32			0	34007	0	0	0	20181	18810	149322	27588	977387	39568	107385	0	0	8131	746642	0	0
2024-05-17 18:24:32			0	34020	0	0	0	20194	18800	149342	27298	977326	39579	107390	0	0	8132	746048	0	0
2024-05-17 18:25:32			0	34004	0	0	0	20210	18800	149362	27033	977379	39579	107396	0	0	8131	746830	0	0
2024-05-17 18:26:32			0	34018	0	0	0	20202	18800	149434	27150	977352	39579	107393	0	0	8132	746146	0	0
2024-05-17 18:27:32			0	33999	0	0	0	20218	18810	149422	27220	977414	39589	107399	0	0	8130	747033	0	0
2024-05-17 18:28:32			0	33993	0	0	0	20220	18810	149434	27086	977414	39579	107400	0	0	8130	747327	0	0
2024-05-17 18:29:32			0	33993	0	0	0	20231	18810	149402	27242	977449	39589	107404	0	0	8130	747327	0	0
2024-05-17 18:30:32			0	33977	0	0	0	20215	18820	149394	27145	977412	39581	107398	0	0	8129	748068	0	0
2024-05-17 18:31:32			0	34009	0	0	0	20215	18820	149462	27147	977483	39590	107398	0	0	8131	746504	0	0
2024-05-17 18:32:32			0	33999	0	0	0	20249	18820	149470	27289	977510	39580	107411	0	0	8130	746992	0	0
2024-05-17 18:33:32			0	34012	0	0	0	20241	18820	149502	27416	977492	39591	107408	0	0	8131	746357	0	0
2024-05-17 18:34:32			0	34009	0	0	0	20228	18830	149442	27426	977473	39591	107403	0	0	8131	746463	0	0
2024-05-17 18:35:32			0	34028	0	0	0	20210	18830	149394	27346	977455	39570	107396	0	0	8132	745535	0	0
2024-05-17 18:36:32			0	34016	0	0	0	20207	18820	149418	27130	977465	39591	107395	0	0	8132	746162	0	0
2024-05-17 18:37:32			0	34000	0	0	0	20228	18830	149382	27774	977535	39591	107403	0	0	8130	746903	0	0
2024-05-17 18:38:32			0	34000	0	0	0	20238	18830	149382	27171	977535	39581	107407	0	0	8130	746903	0	0
2024-05-17 18:39:32			0	34022	0	0	0	20280	18840	149450	27303	977551	39583	107423	0	0	8131	745787	0	0
2024-05-17 18:40:32			0	34037	0	0	0	20272	18850	149354	27431	977621	39594	107420	0	0	8132	745014	0	0
2024-05-17 18:41:32			0	34026	0	0	0	20264	18850	149234	27550	977613	39583	107417	0	0	8131	745551	0	0
2024-05-17 18:42:32			0	34043	0	0	0	20257	18860	149278	27346	977603	39594	107414	0	0	8132	744681	0	0
2024-05-17 18:43:32			0	34030	0	0	0	20251	18850	149242	27346	977568	39583	107412	0	0	8132	745356	0	0
2024-05-17 18:44:32			0	34039	0	0	0	20249	18850	149230	27192	977621	39594	107411	0	0	8132	744916	0	0
2024-05-17 18:45:32			0	34037	0	0	0	20236	18850	149294	27170	977586	39583	107406	0	0	8132	745014	0	0
2024-05-17 18:46:32			0	33989	0	0	0	20233	18860	149382	27326	977576	39594	107405	0	0	8130	747318	0	0
2024-05-17 18:47:32			0	33992	0	0	0	20238	18850	149482	27613	977568	39572	107407	0	0	8130	747212	0	0
2024-05-17 18:48:32			0	33982	0	0	0	20228	18830	149486	27419	977482	39602	107403	0	0	8129	747783	0	0
2024-05-17 18:49:32			0	33988	0	0	0	20212	18850	149434	27177	977542	39583	107397	0	0	8130	747407	0	0
2024-05-17 18:50:32			0	33994	0	0	0	20231	18850	149486	27277	977515	39583	107404	0	0	8130	747114	0	0
2024-05-17 18:51:32			0	33966	0	0	0	20241	18840	149482	26996	977543	39571	107408	0	0	8128	748525	0	0
2024-05-17 18:52:32			0	33980	0	0	0	20238	18850	149490	27059	977533	39583	107407	0	0	8129	747799	0	0
2024-05-17 18:53:32			0	33996	0	0	0	20241	18850	149578	27400	977533	39583	107408	0	0	8130	747016	0	0
2024-05-17 18:54:32			0	33983	0	0	0	20246	18850	149482	27062	977533	39604	107410	0	0	8129	747652	0	0
2024-05-17 18:55:32			0	33985	0	0	0	20277	18840	149574	27483	977569	39592	107422	0	0	8129	747595	0	0
2024-05-17 18:56:32			0	33977	0	0	0	20283	18850	149398	27317	977648	39594	107424	0	0	8128	747946	0	0
2024-05-17 18:57:32			0	33994	0	0	0	20283	18860	149490	27131	977638	39583	107424	0	0	8129	747073	0	0
2024-05-17 18:58:32			0	33988	0	0	0	20298	18860	149530	27466	977682	39594	107430	0	0	8129	747367	0	0
2024-05-17 18:59:32			0	33996	0	0	0	20298	18860	149470	27531	977691	39583	107430	0	0	8129	746975	0	0
2024-05-17 19:00:32			0	34000	0	0	0	20314	18870	149450	27300	977734	39584	107436	0	0	8129	746739	0	0
2024-05-17 19:01:32			0	33990	0	0	0	20301	18870	149546	27324	977673	39573	107431	0	0	8129	747228	0	0
2024-05-17 19:02:32			0	33989	0	0	0	20290	18880	149442	27377	977724	39585	107427	0	0	8129	747236	0	0
2024-05-17 19:03:32			0	33973	0	0	0	20285	18890	149410	27111	977706	39586	107425	0	0	8128	747977	0	0
2024-05-17 19:04:32			0	33975	0	0	0	20288	18880	149458	27098	977689	39574	107426	0	0	8128	747921	0	0
2024-05-17 19:05:32			0	33946	0	0	0	20280	18870	149546	27453	977681	39584	107423	0	0	8127	749382	0	0
2024-05-17 19:06:32			0	33956	0	0	0	20285	18880	149530	27260	977663	39584	107425	0	0	8127	748851	0	0
2024-05-17 19:07:32			0	33954	0	0	0	20303	18880	149514	27097	977697	39608	107432	0	0	8127	748949	0	0
2024-05-17 19:08:32			0	33948	0	0	0	20296	18880	149670	27502	977697	39585	107429	0	0	8126	749243	0	0
2024-05-17 19:09:32			0	33956	0	0	0	20298	18870	149582	27093	977707	39595	107430	0	0	8127	748892	0	0
2024-05-17 19:10:32			0	33955	0	0	0	20303	18890	149574	27168	977767	39586	107432	0	0	8127	748858	0	0
2024-05-17 19:11:32			0	33949	0	0	0	20306	18890	149550	27140	977741	39597	107433	0	0	8126	749152	0	0
2024-05-17 19:12:32			0	33936	0	0	0	20303	18880	149566	27440	977697	39608	107432	0	0	8126	749831	0	0
2024-05-17 19:13:32			0	33951	0	0	0	20311	18880	149530	27332	977750	39585	107435	0	0	8126	749096	0	0
2024-05-17 19:14:32			0	33960	0	0	0	20290	18890	149622	27390	977812	39597	107427	0	0	8127	748614	0	0
2024-05-17 19:15:32			0	33958	0	0	0	20306	18890	149650	27001	977688	39597	107433	0	0	8127	748712	0	0
2024-05-17 19:16:32			0	33943	0	0	0	20309	18900	149670	27211	977722	39586	107434	0	0	8126	749405	0	0
2024-05-17 19:17:32			0	33952	0	0	0	20306	18890	149574	27467	977820	39586	107433	0	0	8127	749006	0	0
2024-05-17 19:18:32			0	33967	0	0	0	20309	18900	149610	27602	977775	39608	107434	0	0	8127	748230	0	0
2024-05-17 19:19:32			0	33954	0	0	0	20309	18900	149742	27216	977784	39598	107434	0	0	8127	748867	0	0
2024-05-17 19:20:32			0	33947	0	0	0	20296	18900	149602	27505	977757	39598	107429	0	0	8126	749210	0	0
2024-05-17 19:21:32			0	33953	0	0	0	20296	18900	149538	27147	977757	39598	107429	0	0	8127	748916	0	0
2024-05-17 19:22:32			0	33940	0	0	0	20309	18900	149694	27235	977757	39609	107434	0	0	8126	749553	0	0
2024-05-17 19:23:32			0	33934	0	0	0	20303	18900	149702	27178	977810	39587	107432	0	0	8126	749847	0	0
2024-05-17 19:24:32			0	33937	0	0	0	20303	18900	149766	27067	977775	39597	107432	0	0	8126	749700	0	0
2024-05-17 19:25:32			0	33932	0	0	0	20306	18890	149798	27199	977846	39597	107433	0	0	8125	749986	0	0
2024-05-17 19:26:32			0	33930	0	0	0	20306	18890	149738	27239	977741	39597	107433	0	0	8125	750084	0	0
2024-05-17 19:27:32			0	33921	0	0	0	20306	18900	149718	27118	977757	39598	107433	0	0	8125	750484	0	0
2024-05-17 19:28:32			0	33923	0	0	0	20303	18900	149718	27301	977810	39609	107432	0	0	8125	750386	0	0
2024-05-17 19:29:32			0	33925	0	0	0	20301	18910	149850	27078	977818	39610	107431	0	0	8125	750247	0	0
2024-05-17 19:30:32			0	33913	0	0	0	20296	18900	149742	27045	977775	39586	107429	0	0	8124	750877	0	0
2024-05-17 19:31:32			0	33919	0	0	0	20298	18900	149786	27469	977784	39598	107430	0	0	8125	750583	0	0
2024-05-17 19:32:32			0	33905	0	0	0	20296	18900	149766	27178	977775	39597	107429	0	0	8124	751270	0	0
2024-05-17 19:33:32			0	33915	0	0	0	20306	18900	149854	27357	977810	39598	107433	0	0	8124	750779	0	0
2024-05-17 19:34:32			0	33915	0	0	0	20293	18900	149854	27396	977881	39597	107428	0	0	8125	750779	0	0
2024-05-17 19:35:32			0	33896	0	0	0	20296	18900	149818	27046	977802	39597	107429	0	0	8124	751712	0	0
2024-05-17 19:36:32			0	33917	0	0	0	20290	18890	149870	27124	977785	39597	107427	0	0	8125	750722	0	0
2024-05-17 19:37:32			0	33889	0	0	0	20293	18900	149902	27201	977775	39597	107428	0	0	8123	752056	0	0
2024-05-17 19:38:32			0	33910	0	0	0	20288	18900	149858	27270	977810	39609	107426	0	0	8124	751024	0	0
2024-05-17 19:39:32			0	33907	0	0	0	20288	18900	149938	27322	977749	39586	107426	0	0	8124	751171	0	0
2024-05-17 19:40:32			0	33870	0	0	0	20296	18900	149950	27166	977749	39608	107429	0	0	8122	752990	0	0
2024-05-17 19:41:32			0	33900	0	0	0	20290	18890	149994	27270	977793	39586	107427	0	0	8124	751556	0	0
2024-05-17 19:42:32			0	33898	0	0	0	20288	18900	149926	27324	977775	39597	107426	0	0	8124	751614	0	0
2024-05-17 19:43:32			0	33913	0	0	0	20298	18900	149934	27267	977775	39597	107430	0	0	8124	750877	0	0
2024-05-17 19:44:32			0	33888	0	0	0	20293	18890	150070	27111	977838	39597	107428	0	0	8123	752146	0	0
2024-05-17 19:45:32			0	33874	0	0	0	20298	18880	150138	27549	977777	39608	107430	0	0	8122	752876	0	0
2024-05-17 19:46:32			0	33851	0	0	0	20293	18890	150050	27357	977820	39597	107428	0	0	8121	753966	0	0
2024-05-17 19:47:32			0	33843	0	0	0	20293	18880	150126	27229	977777	39596	107428	0	0	8120	754402	0	0
2024-05-17 19:48:32			0	33838	0	0	0	20288	18880	150114	27590	977803	39596	107426	0	0	8120	754648	0	0
2024-05-17 19:49:32			0	33854	0	0	0	20285	18890	150126	27263	977741	39586	107425	0	0	8121	753819	0	0
2024-05-17 19:50:32			0	33840	0	0	0	20283	18900	149994	27107	977757	39620	107424	0	0	8121	754467	0	0
2024-05-17 19:51:32			0	33840	0	0	0	20290	18890	150098	27237	977759	39597	107427	0	0	8120	754508	0	0
2024-05-17 19:52:32			0	33839	0	0	0	20277	18890	150114	27287	977741	39597	107422	0	0	8120	754558	0	0
2024-05-17 19:53:32			0	33857	0	0	0	20283	18890	150110	27031	977759	39597	107424	0	0	8121	753671	0	0
2024-05-17 19:54:32			0	33838	0	0	0	20285	18890	150062	27005	977759	39597	107425	0	0	8120	754607	0	0
2024-05-17 19:55:32			0	33837	0	0	0	20285	18890	150114	27381	977759	39597	107425	0	0	8120	754656	0	0
2024-05-17 19:56:32			0	33840	0	0	0	20285	18900	150110	27254	977678	39587	107425	0	0	8120	754467	0	0
2024-05-17 19:57:32			0	33855	0	0	0	20285	18890	150046	27234	977706	39586	107425	0	0	8121	753769	0	0
2024-05-17 19:58:32			0	33875	0	0	0	20283	18890	150154	27107	977785	39597	107424	0	0	8122	752785	0	0
2024-05-17 19:59:32			0	33849	0	0	0	20280	18880	150106	27126	977716	39595	107423	0	0	8121	754106	0	0
2024-05-17 20:00:32			0	33873	0	0	0	20272	18890	150162	27187	977741	39597	107420	0	0	8123	752884	0	0
2024-05-17 20:01:32			0	33855	0	0	0	20280	18880	150050	27485	977663	39595	107423	0	0	8121	753811	0	0
2024-05-17 20:02:32			0	33849	0	0	0	20270	18890	150110	27457	977741	39576	107419	0	0	8121	754065	0	0
2024-05-17 20:03:32			0	33843	0	0	0	20277	18880	150174	27209	977636	39595	107422	0	0	8121	754402	0	0
2024-05-17 20:04:32			0	33859	0	0	0	20290	18890	150122	27369	977679	39586	107427	0	0	8121	753572	0	0
2024-05-17 20:05:32			0	33841	0	0	0	20280	18880	150174	27473	977724	39596	107423	0	0	8121	754500	0	0
2024-05-17 20:06:32			0	33839	0	0	0	20270	18880	150142	27345	977697	39585	107419	0	0	8121	754599	0	0
2024-05-17 20:07:32			0	33833	0	0	0	20275	18880	150086	27005	977697	39585	107421	0	0	8120	754895	0	0
2024-05-17 20:08:32			0	33825	0	0	0	20264	18870	150178	27393	977681	39595	107417	0	0	8120	755330	0	0
2024-05-17 20:09:32			0	33817	0	0	0	20262	18870	150306	27092	977681	39607	107416	0	0	8119	755725	0	0
2024-05-17 20:10:32			0	33791	0	0	0	20264	18870	150286	27559	977673	39595	107417	0	0	8118	757009	0	0
2024-05-17 20:11:32			0	33773	0	0	0	20277	18880	150438	27062	977689	39595	107422	0	0	8117	757857	0	0
2024-05-17 20:12:32			0	33790	0	0	0	20277	18870	150490	27417	977646	39583	107422	0	0	8118	757058	0	0
2024-05-17 20:13:32			0	33789	0	0	0	20270	18880	150430	27300	977716	39595	107419	0	0	8118	757066	0	0
2024-05-17 20:14:32			0	33785	0	0	0	20277	18870	150494	27170	977734	39595	107422	0	0	8117	757305	0	0
2024-05-17 20:15:32			0	33782	0	0	0	20267	18870	150462	27443	977601	39595	107418	0	0	8117	757453	0	0
2024-05-17 20:16:32			0	33784	0	0	0	20275	18880	150518	27241	977689	39595	107421	0	0	8117	757313	0	0
2024-05-17 20:17:32			0	33769	0	0	0	20270	18870	150530	27268	977681	39595	107419	0	0	8116	758096	0	0
2024-05-17 20:18:32			0	33780	0	0	0	20275	18880	150610	27511	977663	39584	107421	0	0	8117	757511	0	0
2024-05-17 20:19:32			0	33760	0	0	0	20272	18880	150522	27013	977724	39619	107420	0	0	8116	758500	0	0
2024-05-17 20:20:32			0	33766	0	0	0	20280	18870	150542	27376	977681	39595	107423	0	0	8116	758245	0	0
2024-05-17 20:21:32			0	33778	0	0	0	20270	18880	150582	27438	977663	39607	107419	0	0	8117	757610	0	0
2024-05-17 20:22:32			0	33736	0	0	0	20275	18870	150594	27348	977654	39607	107421	0	0	8114	759730	0	0
2024-05-17 20:23:32			0	33754	0	0	0	20264	18860	150590	27300	977611	39595	107417	0	0	8116	758880	0	0
2024-05-17 20:24:32			0	33756	0	0	0	20277	18870	150738	27370	977620	39595	107422	0	0	8116	758740	0	0
2024-05-17 20:25:32			0	33736	0	0	0	20275	18880	150670	27013	977610	39595	107421	0	0	8115	759688	0	0
2024-05-17 20:26:32			0	33742	0	0	0	20262	18870	150678	27294	977673	39583	107416	0	0	8115	759433	0	0
2024-05-17 20:27:32			0	33735	0	0	0	20272	18880	150694	27114	977663	39584	107420	0	0	8115	759738	0	0
2024-05-17 20:28:32			0	33739	0	0	0	20267	18870	150722	27107	977681	39595	107418	0	0	8115	759581	0	0
2024-05-17 20:29:32			0	33733	0	0	0	20264	18870	150762	27562	977707	39607	107417	0	0	8114	759878	0	0
2024-05-17 20:30:32			0	33723	0	0	0	20257	18870	150738	27398	977646	39606	107414	0	0	8114	760374	0	0
2024-05-17 20:31:32			0	33717	0	0	0	20262	18860	150778	27512	977603	39594	107416	0	0	8114	760714	0	0
2024-05-17 20:32:32			0	33738	0	0	0	20267	18860	150762	27524	977664	39595	107418	0	0	8115	759673	0	0
2024-05-17 20:33:32			0	33711	0	0	0	20259	18870	150922	27421	977593	39606	107415	0	0	8113	760970	0	0
2024-05-17 20:34:32			0	33713	0	0	0	20267	18860	150890	27407	977664	39595	107418	0	0	8113	760912	0	0
2024-05-17 20:35:32			0	33713	0	0	0	20262	18870	150910	27381	977593	39606	107416	0	0	8113	760870	0	0
2024-05-17 20:36:32			0	33693	0	0	0	20272	18860	150850	27429	977585	39595	107420	0	0	8112	761905	0	0
2024-05-17 20:37:32			0	33695	0	0	0	20257	18870	150946	27365	977601	39595	107414	0	0	8112	761764	0	0
2024-05-17 20:38:32			0	33681	0	0	0	20262	18860	151010	27270	977638	39595	107416	0	0	8111	762501	0	0
2024-05-17 20:39:32			0	33672	0	0	0	20254	18880	150894	27672	977610	39607	107413	0	0	8111	762865	0	0
2024-05-17 20:40:32			0	33671	0	0	0	20251	18850	151014	27523	977621	39605	107412	0	0	8111	763040	0	0
2024-05-17 20:41:32			0	33679	0	0	0	20254	18870	151014	27357	977646	39606	107413	0	0	8112	762558	0	0
2024-05-17 20:42:32			0	33671	0	0	0	20257	18870	151106	27360	977646	39583	107414	0	0	8111	762956	0	0
2024-05-17 20:43:32			0	33677	0	0	0	20254	18870	151054	27346	977620	39606	107413	0	0	8111	762658	0	0
2024-05-17 20:44:32			0	33681	0	0	0	20257	18870	151046	27528	977646	39583	107414	0	0	8112	762459	0	0
2024-05-17 20:45:32			0	33676	0	0	0	20257	18850	151110	27415	977595	39594	107414	0	0	8111	762791	0	0
2024-05-17 20:46:32			0	33646	0	0	0	20254	18860	151202	27289	977629	39583	107413	0	0	8110	764242	0	0
2024-05-17 20:47:32			0	33645	0	0	0	20257	18860	151190	27320	977629	39605	107414	0	0	8109	764291	0	0
2024-05-17 20:48:32			0	33656	0	0	0	20257	18860	151074	27263	977603	39605	107414	0	0	8110	763744	0	0
2024-05-17 20:49:32			0	33637	0	0	0	20244	18860	151158	27486	977611	39606	107409	0	0	8109	764690	0	0
2024-05-17 20:50:32			0	33635	0	0	0	20249	18850	151154	27235	977595	39594	107411	0	0	8109	764831	0	0
2024-05-17 20:51:32			0	33651	0	0	0	20246	18860	151098	27362	977603	39594	107410	0	0	8110	763993	0	0
2024-05-17 20:52:32			0	33637	0	0	0	20238	18860	151142	27197	977603	39594	107407	0	0	8109	764690	0	0
2024-05-17 20:53:32			0	33622	0	0	0	20231	18850	151170	27275	977515	39594	107404	0	0	8108	765479	0	0
2024-05-17 20:54:32			0	33610	0	0	0	20236	18850	151322	27260	977533	39593	107406	0	0	8108	766078	0	0
2024-05-17 20:55:32			0	33621	0	0	0	20236	18860	151342	27637	977611	39606	107406	0	0	8108	765487	0	0
2024-05-17 20:56:32			0	33629	0	0	0	20246	18850	151338	27455	977595	39605	107410	0	0	8109	765130	0	0
2024-05-17 20:57:32			0	33606	0	0	0	20238	18850	151230	27592	977560	39593	107407	0	0	8107	766277	0	0
2024-05-17 20:58:32			0	33631	0	0	0	20238	18850	151270	27538	977560	39593	107407	0	0	8109	765031	0	0
2024-05-17 20:59:32			0	33606	0	0	0	20241	18860	151146	27374	977524	39605	107408	0	0	8107	766235	0	0
2024-05-17 21:00:32			0	33625	0	0	0	20238	18840	151166	27227	977578	39604	107407	0	0	8108	765372	0	0
2024-05-17 21:01:32			0	33617	0	0	0	20238	18850	151214	27438	977533	39604	107407	0	0	8108	765728	0	0
2024-05-17 21:02:32			0	33617	0	0	0	20244	18840	151214	27249	977569	39603	107409	0	0	8108	765770	0	0
2024-05-17 21:03:32			0	33607	0	0	0	20238	18840	151318	27528	977543	39582	107407	0	0	8107	766269	0	0
2024-05-17 21:04:32			0	33594	0	0	0	20233	18830	151278	27559	977526	39591	107405	0	0	8107	766960	0	0
2024-05-17 21:05:32			0	33620	0	0	0	20233	18840	151254	27076	977578	39583	107405	0	0	8108	765621	0	0
2024-05-17 21:06:32			0	33599	0	0	0	20228	18840	151342	27083	977578	39604	107403	0	0	8107	766668	0	0
2024-05-17 21:07:32			0	33585	0	0	0	20238	18830	151350	27095	977508	39581	107407	0	0	8106	767410	0	0
2024-05-17 21:08:32			0	33584	0	0	0	20223	18830	151470	27400	977535	39591	107401	0	0	8106	767460	0	0
2024-05-17 21:09:32			0	33592	0	0	0	20228	18830	151494	27633	977526	39591	107403	0	0	8107	767060	0	0
2024-05-17 21:10:32			0	33601	0	0	0	20225	18830	151398	27241	977526	39581	107402	0	0	8107	766611	0	0
2024-05-17 21:11:32			0	33590	0	0	0	20233	18820	151434	27409	977465	39591	107405	0	0	8106	767202	0	0
2024-05-17 21:12:32			0	33595	0	0	0	20233	18830	151318	27208	977500	39591	107405	0	0	8107	766910	0	0
2024-05-17 21:13:32			0	33607	0	0	0	20225	18830	151250	27393	977500	39591	107402	0	0	8108	766311	0	0
2024-05-17 21:14:32			0	33594	0	0	0	20223	18830	151386	27064	977535	39591	107401	0	0	8107	766960	0	0
2024-05-17 21:15:32			0	33618	0	0	0	20223	18830	151346	27071	977482	39581	107401	0	0	8108	765762	0	0
2024-05-17 21:16:32			0	33592	0	0	0	20231	18830	151306	27109	977535	39602	107404	0	0	8107	767060	0	0
2024-05-17 21:17:32			0	33615	0	0	0	20228	18830	151410	27537	977473	39581	107403	0	0	8108	765912	0	0
2024-05-17 21:18:32			0	33587	0	0	0	20233	18820	151446	27533	977439	39591	107405	0	0	8106	767352	0	0
2024-05-17 21:19:32			0	33600	0	0	0	20228	18820	151410	27530	977439	39602	107403	0	0	8107	766703	0	0
2024-05-17 21:20:32			0	33611	0	0	0	20218	18830	151418	27390	977500	39602	107399	0	0	8108	766112	0	0
2024-05-17 21:21:32			0	33597	0	0	0	20223	18820	151394	27137	977457	39590	107401	0	0	8107	766852	0	0
2024-05-17 21:22:32			0	33605	0	0	0	20220	18820	151434	27566	977492	39613	107400	0	0	8108	766453	0	0
2024-05-17 21:23:32			0	33575	0	0	0	20223	18820	151369	27509	977439	39591	107401	0	0	8106	767951	0	0
2024-05-17 21:24:32			0	33607	0	0	0	20220	18820	151466	27327	977518	39591	107400	0	0	8108	766353	0	0
2024-05-17 21:25:32			0	33581	0	0	0	20205	18830	151502	27417	977500	39591	107394	0	0	8106	767609	0	0
2024-05-17 21:26:32			0	33555	0	0	0	20207	18820	151545	27192	977545	39591	107395	0	0	8105	768951	0	0
2024-05-17 21:27:32			0	33551	0	0	0	20218	18820	151617	27204	977457	39601	107399	0	0	8104	769152	0	0
2024-05-17 21:28:32			0	33546	0	0	0	20223	18820	151681	27403	977483	39590	107401	0	0	8104	769402	0	0
2024-05-17 21:29:32			0	33525	0	0	0	20220	18820	151665	27478	977457	39590	107400	0	0	8103	770454	0	0
2024-05-17 21:30:32			0	33537	0	0	0	20207	18810	151665	27298	977422	39589	107395	0	0	8104	769895	0	0
2024-05-17 21:31:32			0	33551	0	0	0	20223	18820	151649	27595	977404	39580	107401	0	0	8104	769152	0	0
2024-05-17 21:32:32			0	33535	0	0	0	20220	18820	151737	27293	977483	39613	107400	0	0	8103	769953	0	0
2024-05-17 21:33:32			0	33516	0	0	0	20215	18810	151665	27111	977449	39589	107398	0	0	8102	770947	0	0
2024-05-17 21:34:32			0	33518	0	0	0	20220	18820	151849	27391	977457	39601	107400	0	0	8102	770804	0	0
2024-05-17 21:35:32			0	33534	0	0	0	20215	18810	151765	27440	977414	39579	107398	0	0	8103	770045	0	0
2024-05-17 21:36:32			0	33495	0	0	0	20215	18810	151845	27589	977467	39589	107398	0	0	8101	772001	0	0
2024-05-17 21:37:32			0	33490	0	0	0	20218	18810	151841	27209	977501	39589	107399	0	0	8101	772251	0	0
2024-05-17 21:38:32			0	33488	0	0	0	20215	18810	151921	27379	977396	39612	107398	0	0	8101	772352	0	0
2024-05-17 21:39:32			0	33487	0	0	0	20212	18810	151833	27575	977440	39600	107397	0	0	8101	772402	0	0
2024-05-17 21:40:32			0	33496	0	0	0	20210	18810	151929	27505	977467	39600	107396	0	0	8101	771950	0	0
2024-05-17 21:41:32			0	33484	0	0	0	20215	18810	151973	27410	977493	39600	107398	0	0	8100	772553	0	0
2024-05-17 21:42:32			0	33491	0	0	0	20210	18810	151925	27438	977449	39589	107396	0	0	8101	772201	0	0
2024-05-17 21:43:32			0	33475	0	0	0	20220	18800	151929	27135	977405	39600	107400	0	0	8100	773047	0	0
2024-05-17 21:44:32			0	33466	0	0	0	20207	18810	151913	27538	977422	39589	107395	0	0	8100	773457	0	0
2024-05-17 21:45:32			0	33473	0	0	0	20205	18810	152057	27523	977387	39600	107394	0	0	8100	773105	0	0
2024-05-17 21:46:32			0	33463	0	0	0	20212	18810	152025	27422	977414	39600	107397	0	0	8099	773608	0	0
2024-05-17 21:47:32			0	33455	0	0	0	20212	18810	152029	27272	977422	39589	107397	0	0	8099	774010	0	0
2024-05-17 21:48:32			0	33462	0	0	0	20205	18810	152053	27209	977449	39600	107394	0	0	8099	773658	0	0
2024-05-17 21:49:32			0	33464	0	0	0	20202	18810	152081	27351	977440	39600	107393	0	0	8100	773558	0	0
2024-05-17 21:50:32			0	33467	0	0	0	20207	18810	152113	27286	977475	39589	107395	0	0	8100	773407	0	0
2024-05-17 21:51:32			0	33441	0	0	0	20210	18800	152073	27069	977432	39600	107396	0	0	8098	774757	0	0
2024-05-17 21:52:32			0	33452	0	0	0	20212	18810	152201	27251	977440	39589	107397	0	0	8099	774161	0	0
2024-05-17 21:53:32			0	33446	0	0	0	20205	18800	152165	27307	977397	39600	107394	0	0	8098	774506	0	0
2024-05-17 21:54:32			0	33437	0	0	0	20207	18800	152181	27222	977458	39589	107395	0	0	8098	774959	0	0
2024-05-17 21:55:32			0	33453	0	0	0	20215	18810	152077	27684	977467	39600	107398	0	0	8099	774111	0	0
2024-05-17 21:56:32			0	33452	0	0	0	20215	18810	152265	27412	977387	39589	107398	0	0	8099	774161	0	0
2024-05-17 21:57:32			0	33440	0	0	0	20207	18810	152189	27235	977475	39589	107395	0	0	8098	774765	0	0
2024-05-17 21:58:32			0	33450	0	0	0	20207	18810	152221	27222	977387	39589	107395	0	0	8099	774262	0	0
2024-05-17 21:59:32			0	33444	0	0	0	20205	18810	152173	27100	977475	39600	107394	0	0	8098	774564	0	0
2024-05-17 22:00:32			0	33449	0	0	0	20181	18800	152225	27590	977432	39600	107385	0	0	8099	774355	0	0
2024-05-17 22:01:32			0	33450	0	0	0	20189	18810	152125	27150	977414	39589	107388	0	0	8099	774262	0	0
2024-05-17 22:02:32			0	33476	0	0	0	20189	18810	151989	27339	977414	39579	107388	0	0	8100	772955	0	0
2024-05-17 22:03:32			0	33508	0	0	0	20197	18800	151977	27098	977371	39578	107391	0	0	8102	771390	0	0
2024-05-17 22:04:32			0	33525	0	0	0	20202	18810	151845	27131	977414	39589	107393	0	0	8103	770496	0	0
2024-05-17 22:05:32			0	33513	0	0	0	20207	18800	151809	27260	977432	39589	107395	0	0	8102	771140	0	0
2024-05-17 22:06:32			0	33528	0	0	0	20194	18800	151737	27350	977450	39600	107390	0	0	8103	770388	0	0
2024-05-17 22:07:32			0	33530	0	0	0	20184	18800	151801	27130	977397	39600	107386	0	0	8104	770288	0	0
2024-05-17 22:08:32			0	33498	0	0	0	20192	18800	151837	27213	977318	39588	107389	0	0	8102	771892	0	0
2024-05-17 22:09:32			0	33496	0	0	0	20171	18800	151997	27390	977344	39588	107381	0	0	8102	771993	0	0
2024-05-17 22:10:32			0	33485	0	0	0	20161	18780	151985	27168	977301	39599	107377	0	0	8101	772629	0	0
2024-05-17 22:11:32			0	33503	0	0	0	20166	18780	151837	27180	977275	39588	107379	0	0	8102	771726	0	0
2024-05-17 22:12:32			0	33505	0	0	0	20161	18770	151769	27296	977311	39587	107377	0	0	8102	771668	0	0
2024-05-17 22:13:32			0	33536	0	0	0	20142	18770	151669	27369	977258	39587	107370	0	0	8105	770113	0	0
2024-05-17 22:14:32			0	33541	0	0	0	20148	18770	151677	27227	977311	39587	107372	0	0	8105	769863	0	0
2024-05-17 22:15:32			0	33577	0	0	0	20153	18770	151662	27286	977276	39586	107374	0	0	8107	768062	0	0
2024-05-17 22:16:32			0	33544	0	0	0	20155	18770	151705	27312	977250	39576	107375	0	0	8105	769713	0	0
2024-05-17 22:17:32			0	33531	0	0	0	20158	18760	151769	27192	977268	39596	107376	0	0	8104	770406	0	0
2024-05-17 22:18:32			0	33526	0	0	0	20145	18760	151757	27511	977215	39596	107371	0	0	8104	770657	0	0
2024-05-17 22:19:32			0	33539	0	0	0	20142	18760	151781	26979	977188	39575	107370	0	0	8105	770005	0	0
2024-05-17 22:20:32			0	33553	0	0	0	20145	18760	151681	27168	977268	39585	107371	0	0	8105	769304	0	0
2024-05-17 22:21:32			0	33581	0	0	0	20137	18760	151498	27300	977207	39585	107368	0	0	8107	767904	0	0
2024-05-17 22:22:32			0	33632	0	0	0	20158	18760	151330	27294	977233	39585	107376	0	0	8110	765358	0	0
2024-05-17 22:23:32			0	33699	0	0	0	20155	18760	150982	27327	977180	39585	107375	0	0	8114	762024	0	0
2024-05-17 22:24:32			0	33769	0	0	0	20155	18750	150806	27339	977243	39574	107375	0	0	8118	758595	0	0
2024-05-17 22:25:32			0	33801	0	0	0	20148	18760	150510	27400	977233	39585	107372	0	0	8120	756971	0	0
2024-05-17 22:26:32			0	33835	0	0	0	20148	18760	150450	27137	977286	39575	107372	0	0	8122	755292	0	0
2024-05-17 22:27:32			0	33861	0	0	0	20150	18750	150206	27307	977217	39595	107373	0	0	8123	754052	0	0
2024-05-17 22:28:32			0	33885	0	0	0	20158	18750	150186	27144	977137	39595	107376	0	0	8124	752871	0	0
2024-05-17 22:29:32			0	33896	0	0	0	20163	18760	150130	27390	977260	39575	107378	0	0	8125	752288	0	0
2024-05-17 22:30:32			0	33916	0	0	0	20153	18760	150094	27213	977260	39585	107374	0	0	8126	751306	0	0
2024-05-17 22:31:32			0	33935	0	0	0	20163	18750	149986	27390	977278	39607	107378	0	0	8127	750414	0	0
2024-05-17 22:32:32			0	33930	0	0	0	20153	18760	150050	27272	977260	39585	107374	0	0	8127	750618	0	0
2024-05-17 22:33:32			0	33938	0	0	0	20155	18750	149946	27415	977243	39584	107375	0	0	8128	750267	0	0
2024-05-17 22:34:32			0	33951	0	0	0	20155	18750	149834	27230	977190	39595	107375	0	0	8128	749629	0	0
2024-05-17 22:35:32			0	33962	0	0	0	20158	18760	149926	27294	977233	39575	107376	0	0	8129	749049	0	0
2024-05-17 22:36:32			0	33947	0	0	0	20158	18760	149822	27036	977260	39585	107376	0	0	8128	749784	0	0
2024-05-17 22:37:32			0	33954	0	0	0	20155	18760	149890	26922	977233	39607	107375	0	0	8129	749441	0	0
2024-05-17 22:38:32			0	33956	0	0	0	20153	18750	149934	27338	977198	39585	107374	0	0	8129	749384	0	0
2024-05-17 22:39:32			0	33950	0	0	0	20163	18760	149854	27114	977260	39585	107378	0	0	8128	749637	0	0
2024-05-17 22:40:32			0	33951	0	0	0	20166	18750	149950	27315	977243	39584	107379	0	0	8128	749629	0	0
2024-05-17 22:41:32			0	33947	0	0	0	20155	18750	149986	27255	977243	39584	107375	0	0	8128	749825	0	0
2024-05-17 22:42:32			0	33944	0	0	0	20166	18750	150050	27367	977225	39585	107379	0	0	8128	749973	0	0
2024-05-17 22:43:32			0	33946	0	0	0	20166	18750	149986	27197	977278	39607	107379	0	0	8128	749875	0	0
2024-05-17 22:44:32			0	33936	0	0	0	20158	18750	150026	27147	977251	39575	107376	0	0	8127	750365	0	0
2024-05-17 22:45:32			0	33938	0	0	0	20161	18750	149994	27531	977145	39585	107377	0	0	8128	750267	0	0
2024-05-17 22:46:32			0	33928	0	0	0	20171	18760	149950	27422	977313	39585	107381	0	0	8127	750716	0	0
2024-05-17 22:47:32			0	33929	0	0	0	20176	18770	149958	27189	977250	39597	107383	0	0	8127	750626	0	0
2024-05-17 22:48:32			0	33922	0	0	0	20168	18760	149882	27322	977268	39585	107380	0	0	8127	751011	0	0
2024-05-17 22:49:32			0	33947	0	0	0	20179	18750	149966	27201	977270	39584	107384	0	0	8128	749825	0	0
2024-05-17 22:50:32			0	33946	0	0	0	20176	18760	150014	27436	977260	39596	107383	0	0	8128	749833	0	0
2024-05-17 22:51:32			0	33958	0	0	0	20189	18760	149946	27277	977241	39596	107388	0	0	8128	749245	0	0
2024-05-17 22:52:32			0	33943	0	0	0	20174	18760	149842	27119	977294	39585	107382	0	0	8128	749980	0	0
2024-05-17 22:53:32			0	33984	0	0	0	20176	18760	149826	27159	977241	39585	107383	0	0	8130	747972	0	0
2024-05-17 22:54:32			0	33985	0	0	0	20192	18770	149750	27526	977303	39586	107389	0	0	8130	747882	0	0
2024-05-17 22:55:32			0	33985	0	0	0	20184	18770	149806	27483	977303	39576	107386	0	0	8130	747882	0	0
2024-05-17 22:56:32			0	33991	0	0	0	20184	18770	149734	27124	977311	39598	107386	0	0	8130	747588	0	0
2024-05-17 22:57:32			0	34010	0	0	0	20174	18770	149674	27402	977337	39609	107382	0	0	8132	746659	0	0
2024-05-17 22:58:32			0	34018	0	0	0	20166	18770	149670	27329	977329	39597	107379	0	0	8132	746268	0	0
2024-05-17 22:59:32			0	34010	0	0	0	20171	18760	149598	27364	977268	39585	107381	0	0	8132	746700	0	0
2024-05-17 23:00:32			0	34022	0	0	0	20155	18770	149646	27544	977311	39577	107375	0	0	8133	746073	0	0
2024-05-17 23:01:32			0	34031	0	0	0	20155	18770	149614	27166	977223	39586	107375	0	0	8133	745633	0	0
2024-05-17 23:02:32			0	34025	0	0	0	20158	18760	149646	27005	977215	39596	107376	0	0	8133	745967	0	0
2024-05-17 23:03:32			0	34025	0	0	0	20168	18760	149510	27277	977321	39585	107380	0	0	8132	745967	0	0
2024-05-17 23:04:32			0	34025	0	0	0	20176	18770	149518	27128	977276	39586	107383	0	0	8132	745926	0	0
2024-05-17 23:05:32			0	34019	0	0	0	20184	18760	149570	26968	977294	39596	107386	0	0	8132	746260	0	0
2024-05-17 23:06:32			0	34048	0	0	0	20197	18760	149482	27298	977339	39585	107391	0	0	8133	744845	0	0
2024-05-17 23:07:32			0	34058	0	0	0	20184	18770	149538	27355	977337	39587	107386	0	0	8134	744316	0	0
2024-05-17 23:08:32			0	34059	0	0	0	20189	18770	149362	27303	977337	39598	107388	0	0	8134	744267	0	0
2024-05-17 23:09:32			0	34078	0	0	0	20186	18770	149414	27118	977364	39598	107387	0	0	8135	743342	0	0
2024-05-17 23:10:32			0	34064	0	0	0	20189	18760	149386	27128	977321	39585	107388	0	0	8134	744064	0	0
2024-05-17 23:11:32			0	34076	0	0	0	20181	18770	149334	27296	977311	39598	107385	0	0	8135	743439	0	0
2024-05-17 23:12:32			0	34064	0	0	0	20176	18780	149306	27001	977372	39598	107383	0	0	8135	743983	0	0
2024-05-17 23:13:32			0	34065	0	0	0	20189	18780	149342	27119	977381	39599	107388	0	0	8134	743934	0	0
2024-05-17 23:14:32			0	34068	0	0	0	20184	18770	149450	27225	977329	39586	107386	0	0	8135	743829	0	0
2024-05-17 23:15:32			0	34087	0	0	0	20184	18770	149314	27234	977364	39598	107386	0	0	8136	742903	0	0
2024-05-17 23:16:32			0	34078	0	0	0	20161	18770	149306	27270	977337	39587	107377	0	0	8136	743342	0	0
2024-05-17 23:17:32			0	34071	0	0	0	20174	18770	149346	27320	977276	39597	107382	0	0	8135	743683	0	0
2024-05-17 23:18:32			0	34067	0	0	0	20179	18780	149326	27168	977319	39587	107384	0	0	8135	743837	0	0
2024-05-17 23:19:32			0	34069	0	0	0	20171	18770	149422	27429	977329	39586	107381	0	0	8135	743780	0	0
2024-05-17 23:20:32			0	34043	0	0	0	20176	18780	149386	27216	977293	39587	107383	0	0	8133	745007	0	0
2024-05-17 23:21:32			0	34043	0	0	0	20163	18770	149514	27777	977303	39586	107378	0	0	8134	745048	0	0
2024-05-17 23:22:32			0	34033	0	0	0	20174	18770	149466	27391	977303	39597	107382	0	0	8133	745536	0	0
2024-05-17 23:23:32			0	34014	0	0	0	20161	18760	149546	27490	977339	39575	107377	0	0	8132	746505	0	0
2024-05-17 23:24:32			0	34021	0	0	0	20168	18770	149626	27395	977337	39577	107380	0	0	8132	746122	0	0
2024-05-17 23:25:32			0	34030	0	0	0	20168	18760	149614	27569	977347	39585	107380	0	0	8133	745723	0	0
2024-05-17 23:26:32			0	34015	0	0	0	20163	18770	149586	27215	977311	39587	107378	0	0	8132	746415	0	0
2024-05-17 23:27:32			0	34015	0	0	0	20163	18770	149646	27588	977276	39608	107378	0	0	8132	746415	0	0
2024-05-17 23:28:32			0	33993	0	0	0	20174	18770	149710	27313	977329	39586	107382	0	0	8131	747490	0	0
2024-05-17 23:29:32			0	33955	0	0	0	20179	18770	149742	27362	977303	39597	107384	0	0	8128	749351	0	0
2024-05-17 23:30:32			0	33962	0	0	0	20181	18760	149842	27156	977268	39596	107385	0	0	8129	749049	0	0
2024-05-17 23:31:32			0	33923	0	0	0	20176	18770	150054	27083	977364	39598	107383	0	0	8126	750921	0	0
2024-05-17 23:32:32			0	33914	0	0	0	20186	18760	150134	27100	977321	39585	107387	0	0	8126	751404	0	0
2024-05-17 23:33:32			0	33870	0	0	0	20186	18770	150170	26998	977285	39587	107387	0	0	8123	753526	0	0
2024-05-17 23:34:32			0	33881	0	0	0	20189	18770	150274	27300	977337	39598	107388	0	0	8124	752985	0	0
2024-05-17 23:35:32			0	33833	0	0	0	20194	18770	150394	27213	977329	39608	107390	0	0	8121	755350	0	0
2024-05-17 23:36:32			0	33846	0	0	0	20186	18770	150442	27369	977364	39587	107387	0	0	8122	754709	0	0
2024-05-17 23:37:32			0	33804	0	0	0	20194	18770	150546	27334	977364	39598	107390	0	0	8119	756781	0	0
2024-05-17 23:38:32			0	33803	0	0	0	20184	18770	150586	27358	977337	39598	107386	0	0	8119	756830	0	0
2024-05-17 23:39:32			0	33792	0	0	0	20186	18770	150518	27386	977364	39587	107387	0	0	8119	757374	0	0
2024-05-17 23:40:32			0	33790	0	0	0	20197	18790	150618	27128	977442	39588	107391	0	0	8119	757390	0	0
2024-05-17 23:41:32			0	33776	0	0	0	20192	18770	150690	27414	977356	39586	107389	0	0	8118	758165	0	0
2024-05-17 23:42:32			0	33760	0	0	0	20189	18770	150766	27324	977390	39598	107388	0	0	8117	758957	0	0
2024-05-17 23:43:32			0	33741	0	0	0	20202	18770	150750	27137	977390	39598	107393	0	0	8116	759898	0	0
2024-05-17 23:44:32			0	33761	0	0	0	20194	18780	150806	27114	977354	39588	107390	0	0	8117	758866	0	0
2024-05-17 23:45:32			0	33728	0	0	0	20202	18770	150854	27440	977329	39597	107393	0	0	8115	760543	0	0
2024-05-17 23:46:32			0	33734	0	0	0	20197	18770	150930	27220	977364	39609	107391	0	0	8115	760245	0	0
2024-05-17 23:47:32			0	33724	0	0	0	20202	18780	150930	27405	977399	39609	107393	0	0	8115	760700	0	0
2024-05-17 23:48:32			0	33720	0	0	0	20199	18780	151026	27443	977460	39588	107392	0	0	8114	760898	0	0
2024-05-17 23:49:32			0	33706	0	0	0	20199	18780	151074	27137	977381	39588	107392	0	0	8114	761593	0	0
2024-05-17 23:50:32			0	33702	0	0	0	20199	18780	151090	27050	977407	39599	107392	0	0	8113	761792	0	0
2024-05-17 23:51:32			0	33699	0	0	0	20199	18780	150942	27473	977381	39588	107392	0	0	8113	761941	0	0
2024-05-17 23:52:32			0	33663	0	0	0	20194	18780	151022	27317	977460	39610	107390	0	0	8111	763730	0	0
2024-05-17 23:53:32			0	33684	0	0	0	20192	18780	151198	27116	977407	39610	107389	0	0	8112	762686	0	0
2024-05-17 23:54:32			0	33665	0	0	0	20192	18780	151214	27397	977433	39588	107389	0	0	8111	763631	0	0
2024-05-17 23:55:32			0	33661	0	0	0	20197	18790	151322	27365	977362	39588	107391	0	0	8111	763788	0	0
2024-05-17 23:56:32			0	33657	0	0	0	20194	18780	151246	27640	977381	39599	107390	0	0	8111	764029	0	0
2024-05-17 23:57:32			0	33643	0	0	0	20202	18790	151278	27341	977415	39588	107393	0	0	8110	764684	0	0
2024-05-17 23:58:32			0	33641	0	0	0	20184	18780	151302	27331	977407	39599	107386	0	0	8110	764826	0	0
2024-05-17 23:59:32			0	33634	0	0	0	20199	18800	151270	27362	977424	39600	107392	0	0	8109	765091	0	0
2024-05-18 00:00:32			0	33610	0	0	0	20194	18790	151354	27305	977389	39599	107390	0	0	8108	766329	0	0
2024-05-18 00:01:32			0	33621	0	0	0	20192	18770	151346	26939	977390	39587	107389	0	0	8109	765865	0	0
2024-05-18 00:02:32			0	33619	0	0	0	20197	18780	151494	27230	977407	39610	107391	0	0	8109	765922	0	0
2024-05-18 00:03:32			0	33615	0	0	0	20184	18800	151542	27281	977397	39578	107386	0	0	8109	766038	0	0
2024-05-18 00:04:32			0	33617	0	0	0	20186	18780	151622	26996	977399	39587	107387	0	0	8109	766022	0	0
2024-05-18 00:05:32			0	33587	0	0	0	20186	18790	151670	27078	977389	39577	107387	0	0	8107	767478	0	0
2024-05-18 00:06:32			0	33602	0	0	0	20189	18780	151598	27374	977354	39588	107388	0	0	8108	766771	0	0
2024-05-18 00:07:32			0	33577	0	0	0	20192	18780	151694	27284	977407	39599	107389	0	0	8106	768020	0	0
2024-05-18 00:08:32			0	33581	0	0	0	20199	18780	151682	27511	977399	39598	107392	0	0	8106	767820	0	0
2024-05-18 00:09:32			0	33553	0	0	0	20189	18790	151657	27060	977415	39599	107388	0	0	8105	769178	0	0
2024-05-18 00:10:32			0	33555	0	0	0	20192	18800	151661	27223	977450	39588	107389	0	0	8105	769036	0	0
2024-05-18 00:11:32			0	33559	0	0	0	20189	18790	151630	27473	977389	39599	107388	0	0	8105	768878	0	0
2024-05-18 00:12:32			0	33532	0	0	0	20192	18790	151733	27358	977415	39599	107389	0	0	8104	770229	0	0
2024-05-18 00:13:32			0	33547	0	0	0	20186	18780	151753	27388	977381	39588	107387	0	0	8105	769520	0	0
2024-05-18 00:14:32			0	33528	0	0	0	20189	18780	151721	27255	977354	39599	107388	0	0	8103	770472	0	0
2024-05-18 00:15:32			0	33525	0	0	0	20186	18770	151713	27301	977443	39598	107387	0	0	8103	770665	0	0
2024-05-18 00:16:32			0	33539	0	0	0	20184	18780	151809	27365	977372	39598	107386	0	0	8104	769921	0	0
2024-05-18 00:17:32			0	33528	0	0	0	20181	18780	151721	27147	977372	39598	107385	0	0	8103	770472	0	0
2024-05-18 00:18:32			0	33520	0	0	0	20184	18780	151857	27300	977407	39588	107386	0	0	8103	770873	0	0
2024-05-18 00:19:32			0	33501	0	0	0	20189	18780	151977	27483	977407	39599	107388	0	0	8102	771826	0	0
2024-05-18 00:20:32			0	33503	0	0	0	20184	18790	151893	27492	977415	39588	107386	0	0	8102	771684	0	0
2024-05-18 00:21:32			0	33504	0	0	0	20179	18780	152089	27241	977346	39598	107384	0	0	8102	771676	0	0
2024-05-18 00:22:32			0	33485	0	0	0	20181	18780	151973	27131	977372	39587	107385	0	0	8101	772629	0	0
2024-05-18 00:23:32			0	33488	0	0	0	20179	18770	152037	27031	977311	39598	107384	0	0	8101	772521	0	0
2024-05-18 00:24:32			0	33477	0	0	0	20168	18770	152021	26991	977311	39598	107380	0	0	8101	773074	0	0
2024-05-18 00:25:32			0	33442	0	0	0	20174	18770	152193	27041	977356	39586	107382	0	0	8099	774834	0	0
2024-05-18 00:26:32			0	33409	0	0	0	20168	18770	152401	27357	977285	39587	107380	0	0	8097	776497	0	0
2024-05-18 00:27:32			0	33401	0	0	0	20174	18770	152509	27161	977303	39597	107382	0	0	8096	776901	0	0
2024-05-18 00:28:32			0	33395	0	0	0	20179	18760	152669	27346	977268	39585	107384	0	0	8096	777246	0	0
2024-05-18 00:29:32			0	33376	0	0	0	20174	18780	152561	27234	977319	39598	107382	0	0	8095	778120	0	0
2024-05-18 00:30:32			0	33345	0	0	0	20179	18760	152569	27524	977268	39585	107384	0	0	8093	779773	0	0
2024-05-18 00:31:32			0	33355	0	0	0	20155	18770	152669	27220	977356	39597	107375	0	0	8094	779225	0	0
2024-05-18 00:32:32			0	33358	0	0	0	20171	18760	152665	27364	977321	39575	107381	0	0	8094	779115	0	0
2024-05-18 00:33:32			0	33363	0	0	0	20150	18760	152737	27540	977313	39596	107373	0	0	8094	778863	0	0
2024-05-18 00:34:32			0	33345	0	0	0	20137	18760	152757	27199	977268	39596	107368	0	0	8093	779773	0	0
2024-05-18 00:35:32			0	33329	0	0	0	20153	18760	152829	27270	977207	39585	107374	0	0	8092	780583	0	0
2024-05-18 00:36:32			0	33317	0	0	0	20155	18760	152841	27237	977241	39585	107375	0	0	8091	781191	0	0
2024-05-18 00:37:32			0	33298	0	0	0	20137	18760	152937	27036	977233	39596	107368	0	0	8091	782155	0	0
2024-05-18 00:38:32			0	33296	0	0	0	20135	18760	152957	27260	977215	39585	107367	0	0	8091	782256	0	0
2024-05-18 00:39:32			0	33278	0	0	0	20137	18750	153101	27582	977243	39574	107368	0	0	8089	783213	0	0
2024-05-18 00:40:32			0	33276	0	0	0	20145	18740	153077	27265	977129	39573	107371	0	0	8089	783357	0	0
2024-05-18 00:41:32			0	33263	0	0	0	20114	18740	153153	27190	977208	39594	107359	0	0	8089	784018	0	0
2024-05-18 00:42:32			0	33237	0	0	0	20137	18740	153097	26953	977200	39583	107368	0	0	8087	785341	0	0
2024-05-18 00:43:32			0	33249	0	0	0	20098	18740	153221	27095	977173	39583	107353	0	0	8088	784730	0	0
2024-05-18 00:44:32			0	33220	0	0	0	20127	18730	153177	27585	977139	39583	107364	0	0	8086	786249	0	0
2024-05-18 00:45:32			0	33204	0	0	0	20132	18740	153353	27431	977121	39594	107366	0	0	8085	787022	0	0
2024-05-18 00:46:32			0	33195	0	0	0	20145	18720	153425	27166	977148	39583	107371	0	0	8084	787567	0	0
2024-05-18 00:47:32			0	33180	0	0	0	20140	18730	153501	27249	977130	39594	107369	0	0	8083	788290	0	0
2024-05-18 00:48:32			0	33180	0	0	0	20155	18730	153409	27275	977183	39594	107375	0	0	8083	788290	0	0
2024-05-18 00:49:32			0	33201	0	0	0	20137	18740	153481	27362	977200	39594	107368	0	0	8085	787175	0	0
2024-05-18 00:50:32			0	33182	0	0	0	20116	18740	153453	27327	977208	39594	107360	0	0	8084	788145	0	0
2024-05-18 00:51:32			0	33180	0	0	0	20129	18730	153481	27017	977165	39583	107365	0	0	8084	788290	0	0
2024-05-18 00:52:32			0	33181	0	0	0	20122	18720	153489	27147	977175	39583	107362	0	0	8084	788282	0	0
2024-05-18 00:53:32			0	33156	0	0	0	20127	18720	153529	27500	977095	39583	107364	0	0	8082	789560	0	0
2024-05-18 00:54:32			0	33151	0	0	0	20135	18710	153653	27244	977079	39571	107367	0	0	8082	789858	0	0
2024-05-18 00:55:32			0	33153	0	0	0	20127	18720	153709	27319	977095	39593	107364	0	0	8082	789713	0	0
2024-05-18 00:56:32			0	33159	0	0	0	20111	18730	153741	27414	977130	39594	107358	0	0	8083	789363	0	0
2024-05-18 00:57:32			0	33146	0	0	0	20096	18720	153645	27329	977069	39593	107352	0	0	8082	790071	0	0
2024-05-18 00:58:32			0	33155	0	0	0	20109	18720	153797	27535	977061	39593	107357	0	0	8082	789611	0	0
2024-05-18 00:59:32			0	33134	0	0	0	20116	18720	153849	27272	977061	39593	107360	0	0	8081	790685	0	0
2024-05-18 01:00:32			0	33098	0	0	0	20090	18710	153885	27466	977017	39582	107350	0	0	8079	792573	0	0
2024-05-18 01:01:32			0	33103	0	0	0	20096	18710	153949	27443	977017	39582	107352	0	0	8079	792317	0	0
2024-05-18 01:02:32			0	33088	0	0	0	20093	18710	154065	27312	977044	39570	107351	0	0	8079	793086	0	0
2024-05-18 01:03:32			0	33073	0	0	0	20098	18700	153981	27737	977062	39581	107353	0	0	8078	793900	0	0
2024-05-18 01:04:32			0	33045	0	0	0	20098	18700	154045	27538	977054	39590	107353	0	0	8076	795339	0	0
2024-05-18 01:05:32			0	33063	0	0	0	20077	18710	154065	27640	976999	39593	107345	0	0	8077	794370	0	0
2024-05-18 01:06:32			0	33034	0	0	0	20080	18690	154277	27505	976993	39580	107346	0	0	8075	795949	0	0
2024-05-18 01:07:32			0	33029	0	0	0	20077	18690	154301	27355	976966	39580	107345	0	0	8075	796206	0	0
2024-05-18 01:08:32			0	33006	0	0	0	20083	18690	154353	27441	976940	39580	107347	0	0	8074	797391	0	0
2024-05-18 01:09:32			0	32967	0	0	0	20101	18680	154437	27621	976923	39589	107354	0	0	8071	799448	0	0
2024-05-18 01:10:32			0	32974	0	0	0	20109	18700	154449	27410	976974	39580	107357	0	0	8071	798999	0	0
2024-05-18 01:11:32			0	32968	0	0	0	20114	18690	154525	27312	977019	39601	107359	0	0	8071	799352	0	0
2024-05-18 01:12:32			0	32967	0	0	0	20088	18680	154513	27402	976950	39589	107349	0	0	8071	799448	0	0
2024-05-18 01:13:32			0	32980	0	0	0	20077	18690	154489	27320	976984	39590	107345	0	0	8072	798732	0	0
2024-05-18 01:14:32			0	32952	0	0	0	20083	18690	154633	27386	976984	39580	107347	0	0	8070	800179	0	0
2024-05-18 01:15:32			0	32931	0	0	0	20077	18680	154713	27429	976888	39588	107345	0	0	8069	801309	0	0
2024-05-18 01:16:32			0	32930	0	0	0	20103	18670	154753	27293	976845	39578	107355	0	0	8069	801405	0	0
2024-05-18 01:17:32			0	32915	0	0	0	20103	18680	154713	27230	976994	39600	107355	0	0	8068	802138	0	0
2024-05-18 01:18:32			0	32904	0	0	0	20085	18690	154833	26960	976966	39569	107348	0	0	8068	802664	0	0
2024-05-18 01:19:32			0	32908	0	0	0	20077	18680	154945	27176	977021	39600	107345	0	0	8068	802501	0	0
2024-05-18 01:20:32			0	32898	0	0	0	20077	18680	155021	27015	977002	39589	107345	0	0	8067	803019	0	0
2024-05-18 01:21:32			0	32875	0	0	0	20070	18690	154981	27542	976958	39601	107342	0	0	8066	804168	0	0
2024-05-18 01:22:32			0	32869	0	0	0	20067	18670	155013	27374	976906	39588	107341	0	0	8066	804568	0	0
2024-05-18 01:23:32			0	32847	0	0	0	20054	18680	155153	27192	976862	39578	107336	0	0	8065	805667	0	0
2024-05-18 01:24:32			0	32834	0	0	0	20057	18670	155201	27322	976872	39567	107337	0	0	8064	806388	0	0
2024-05-18 01:25:32			0	32830	0	0	0	20075	18680	155257	27490	976862	39588	107344	0	0	8063	806552	0	0
2024-05-18 01:26:32			0	32820	0	0	0	20072	18670	155253	27410	976951	39588	107343	0	0	8063	807117	0	0
2024-05-18 01:27:32			0	32825	0	0	0	20070	18670	155173	27279	976906	39588	107342	0	0	8063	806856	0	0
2024-05-18 01:28:32			0	32821	0	0	0	20072	18670	155281	27497	976906	39588	107343	0	0	8063	807065	0	0
2024-05-18 01:29:32			0	32806	0	0	0	20077	18670	155297	27445	976925	39588	107345	0	0	8062	807846	0	0
2024-05-18 01:30:32			0	32797	0	0	0	20088	18660	155365	27739	976916	39577	107349	0	0	8061	808359	0	0
2024-05-18 01:31:32			0	32793	0	0	0	20070	18670	155429	27654	976951	39578	107342	0	0	8061	808524	0	0
2024-05-18 01:32:32			0	32798	0	0	0	20049	18660	155485	27412	976890	39577	107334	0	0	8062	808307	0	0
2024-05-18 01:33:32			0	32797	0	0	0	20044	18670	155409	27440	976898	39567	107332	0	0	8062	808315	0	0
2024-05-18 01:34:32			0	32769	0	0	0	20051	18660	155468	27409	976890	39577	107335	0	0	8060	809821	0	0
2024-05-18 01:35:32			0	32767	0	0	0	20080	18660	155552	27428	976863	39577	107346	0	0	8059	809925	0	0
2024-05-18 01:36:32			0	32750	0	0	0	20080	18650	155624	27371	976873	39576	107346	0	0	8058	810858	0	0
2024-05-18 01:37:32			0	32744	0	0	0	20072	18660	155616	27440	976855	39576	107343	0	0	8058	811127	0	0
2024-05-18 01:38:32			0	32748	0	0	0	20057	18660	155536	27490	976943	39577	107337	0	0	8058	810918	0	0
2024-05-18 01:39:32			0	32749	0	0	0	20062	18660	155576	27365	976916	39599	107339	0	0	8058	810866	0	0
2024-05-18 01:40:32			0	32765	0	0	0	20054	18670	155604	27466	976845	39578	107336	0	0	8060	809985	0	0
2024-05-18 01:41:32			0	32739	0	0	0	20067	18660	155544	27507	976943	39577	107341	0	0	8058	811389	0	0
2024-05-18 01:42:32			0	32734	0	0	0	20072	18660	155700	27713	976863	39577	107343	0	0	8057	811650	0	0
2024-05-18 01:43:32			0	32722	0	0	0	20090	18660	155808	27107	976882	39576	107350	0	0	8056	812278	0	0
2024-05-18 01:44:32			0	32727	0	0	0	20106	18660	155756	27329	976943	39587	107356	0	0	8056	812017	0	0
2024-05-18 01:45:32			0	32734	0	0	0	20088	18660	155600	27376	976943	39577	107349	0	0	8057	811650	0	0
2024-05-18 01:46:32			0	32766	0	0	0	20067	18650	155524	27550	976900	39587	107341	0	0	8059	810022	0	0
2024-05-18 01:47:32			0	32780	0	0	0	20054	18660	155365	27672	976863	39566	107336	0	0	8060	809246	0	0
2024-05-18 01:48:32			0	32779	0	0	0	20049	18670	155509	27352	976872	39588	107334	0	0	8060	809254	0	0
2024-05-18 01:49:32			0	32756	0	0	0	20049	18670	155524	27248	976872	39567	107334	0	0	8059	810455	0	0
2024-05-18 01:50:32			0	32745	0	0	0	20067	18650	155680	27635	976847	39576	107341	0	0	8058	811119	0	0
2024-05-18 01:51:32			0	32719	0	0	0	20090	18650	155724	27284	976891	39598	107350	0	0	8056	812480	0	0
2024-05-18 01:52:32			0	32715	0	0	0	20077	18660	155716	27573	976935	39576	107345	0	0	8056	812645	0	0
2024-05-18 01:53:32			0	32730	0	0	0	20049	18660	155700	27592	976882	39576	107334	0	0	8057	811860	0	0
2024-05-18 01:54:32			0	32741	0	0	0	20051	18660	155772	27319	976890	39566	107335	0	0	8058	811284	0	0
2024-05-18 01:55:32			0	32723	0	0	0	20049	18660	155680	27111	976863	39587	107334	0	0	8057	812226	0	0
2024-05-18 01:56:32			0	32721	0	0	0	20064	18650	155696	27646	976847	39565	107340	0	0	8057	812375	0	0
2024-05-18 01:57:32			0	32713	0	0	0	20054	18650	155740	27524	976838	39576	107336	0	0	8056	812794	0	0
2024-05-18 01:58:32			0	32702	0	0	0	20046	18650	155876	27268	976838	39587	107333	0	0	8056	813371	0	0
2024-05-18 01:59:32			0	32687	0	0	0	20038	18650	155936	27190	976847	39565	107330	0	0	8055	814157	0	0
2024-05-18 02:00:32			0	32678	0	0	0	20033	18650	156012	27554	976812	39576	107328	0	0	8054	814629	0	0
2024-05-18 02:01:32			0	32643	0	0	0	20023	18640	156076	27635	976830	39576	107324	0	0	8052	816513	0	0
2024-05-18 02:02:32			0	32640	0	0	0	20049	18640	156156	27743	976804	39586	107334	0	0	8052	816671	0	0
2024-05-18 02:03:32			0	32621	0	0	0	20036	18640	156292	27573	976777	39576	107329	0	0	8051	817671	0	0
2024-05-18 02:04:32			0	32605	0	0	0	20031	18640	156332	27090	976795	39575	107327	0	0	8050	818513	0	0
2024-05-18 02:05:32			0	32594	0	0	0	20036	18650	156476	27249	976812	39565	107329	0	0	8049	819048	0	0
2024-05-18 02:06:32			0	32601	0	0	0	20033	18630	156364	27580	976779	39563	107328	0	0	8050	818769	0	0
2024-05-18 02:07:32			0	32574	0	0	0	20036	18630	156420	27331	976813	39574	107329	0	0	8048	820193	0	0
2024-05-18 02:08:32			0	32582	0	0	0	20044	18640	156376	27526	976769	39575	107332	0	0	8048	819726	0	0
2024-05-18 02:09:32			0	32601	0	0	0	20054	18630	156400	27248	976805	39574	107336	0	0	8049	818769	0	0
2024-05-18 02:10:32			0	32591	0	0	0	20072	18640	156576	27646	976804	39586	107343	0	0	8048	819252	0	0
2024-05-18 02:11:32			0	32597	0	0	0	20046	18640	156460	27831	976830	39576	107333	0	0	8049	818935	0	0
2024-05-18 02:12:32			0	32616	0	0	0	20062	18630	156328	27564	976787	39584	107339	0	0	8050	817979	0	0
2024-05-18 02:13:32			0	32639	0	0	0	20041	18640	156220	27312	976795	39585	107331	0	0	8052	816723	0	0
2024-05-18 02:14:32			0	32666	0	0	0	20023	18630	156028	27705	976787	39595	107324	0	0	8054	815349	0	0
2024-05-18 02:15:32			0	32655	0	0	0	20023	18640	156092	27523	976743	39585	107324	0	0	8053	815882	0	0
2024-05-18 02:16:32			0	32639	0	0	0	20025	18630	156180	27275	976813	39584	107325	0	0	8052	816768	0	0
2024-05-18 02:17:32			0	32612	0	0	0	20023	18630	156236	27428	976760	39563	107324	0	0	8051	818189	0	0
2024-05-18 02:18:32			0	32600	0	0	0	20041	18630	156416	27552	976760	39574	107331	0	0	8049	818822	0	0
2024-05-18 02:19:32			0	32576	0	0	0	20041	18630	156416	27241	976752	39574	107331	0	0	8048	820088	0	0
2024-05-18 02:20:32			0	32568	0	0	0	20038	18630	156508	27346	976813	39584	107330	0	0	8048	820510	0	0
2024-05-18 02:21:32			0	32594	0	0	0	20033	18640	156400	27152	976795	39585	107328	0	0	8049	819093	0	0
2024-05-18 02:22:32			0	32579	0	0	0	20025	18630	156408	27124	976707	39595	107325	0	0	8048	819930	0	0
2024-05-18 02:23:32			0	32574	0	0	0	20041	18620	156424	27242	976797	39563	107331	0	0	8048	820238	0	0
2024-05-18 02:24:32			0	32560	0	0	0	20036	18630	156492	27338	976779	39574	107329	0	0	8047	820933	0	0
2024-05-18 02:25:32			0	32580	0	0	0	20044	18630	156512	27268	976779	39595	107332	0	0	8048	819877	0	0
2024-05-18 02:26:32			0	32560	0	0	0	20018	18630	156464	27381	976760	39574	107322	0	0	8047	820933	0	0
2024-05-18 02:27:32			0	32570	0	0	0	20005	18630	156464	27300	976787	39574	107317	0	0	8048	820405	0	0
2024-05-18 02:28:32			0	32550	0	0	0	20002	18630	156536	27533	976734	39574	107316	0	0	8047	821461	0	0
2024-05-18 02:29:32			0	32559	0	0	0	20002	18620	156652	27277	976744	39563	107316	0	0	8048	821031	0	0
2024-05-18 02:30:32			0	32520	0	0	0	20007	18610	156796	27689	976674	39572	107318	0	0	8045	823138	0	0
2024-05-18 02:31:32			0	32508	0	0	0	20002	18610	156824	27623	976674	39561	107316	0	0	8044	823774	0	0
2024-05-18 02:32:32			0	32510	0	0	0	20005	18610	156844	27409	976648	39583	107317	0	0	8044	823668	0	0
2024-05-18 02:33:32			0	32483	0	0	0	20010	18620	156920	27564	976683	39551	107319	0	0	8043	825055	0	0
2024-05-18 02:34:32			0	32470	0	0	0	20007	18610	156928	27640	976692	39583	107318	0	0	8042	825790	0	0
2024-05-18 02:35:32			0	32468	0	0	0	19994	18620	156916	27353	976717	39574	107313	0	0	8042	825851	0	0
2024-05-18 02:36:32			0	32480	0	0	0	20002	18600	156916	27424	976596	39582	107316	0	0	8043	825304	0	0
2024-05-18 02:37:32			0	32464	0	0	0	19999	18610	156996	27376	976692	39583	107315	0	0	8042	826108	0	0
2024-05-18 02:38:32			0	32474	0	0	0	19989	18600	157052	27436	976684	39572	107311	0	0	8042	825623	0	0
2024-05-18 02:39:32			0	32447	0	0	0	19997	18610	157072	27223	976666	39583	107314	0	0	8041	827012	0	0
2024-05-18 02:40:32			0	32445	0	0	0	19994	18610	157116	27466	976613	39572	107313	0	0	8041	827118	0	0
2024-05-18 02:41:32			0	32409	0	0	0	19981	18590	157196	27597	976606	39559	107308	0	0	8038	829125	0	0
2024-05-18 02:42:32			0	32417	0	0	0	19989	18600	157284	27157	976596	39571	107311	0	0	8039	828653	0	0
2024-05-18 02:43:32			0	32413	0	0	0	19992	18600	157304	27438	976684	39572	107312	0	0	8039	828867	0	0
2024-05-18 02:44:32			0	32401	0	0	0	19986	18600	157348	27244	976596	39582	107310	0	0	8038	829506	0	0
2024-05-18 02:45:32			0	32403	0	0	0	19997	18600	157360	27564	976623	39571	107314	0	0	8038	829399	0	0
2024-05-18 02:46:32			0	32397	0	0	0	20012	18600	157320	27599	976675	39571	107320	0	0	8037	829719	0	0
2024-05-18 02:47:32			0	32402	0	0	0	20007	18600	157372	27443	976710	39572	107318	0	0	8038	829453	0	0
2024-05-18 02:48:32			0	32426	0	0	0	20020	18610	157328	27433	976666	39572	107323	0	0	8039	828129	0	0
2024-05-18 02:49:32			0	32428	0	0	0	20007	18610	157292	27438	976719	39583	107318	0	0	8039	828022	0	0
2024-05-18 02:50:32			0	32442	0	0	0	20020	18610	157184	27291	976692	39561	107323	0	0	8040	827278	0	0
2024-05-18 02:51:32			0	32478	0	0	0	20020	18600	157024	27566	976684	39572	107323	0	0	8042	825410	0	0
2024-05-18 02:52:32			0	32520	0	0	0	20041	18610	156852	27353	976701	39572	107331	0	0	8044	823138	0	0
2024-05-18 02:53:32			0	32551	0	0	0	20038	18600	156708	27647	976710	39561	107330	0	0	8046	821543	0	0
2024-05-18 02:54:32			0	32597	0	0	0	20038	18620	156488	27360	976744	39584	107330	0	0	8049	819025	0	0
2024-05-18 02:55:32			0	32645	0	0	0	20028	18620	156172	27294	976788	39562	107326	0	0	8052	816497	0	0
2024-05-18 02:56:32			0	32692	0	0	0	20023	18610	155916	27460	976727	39583	107324	0	0	8055	814073	0	0
2024-05-18 02:57:32			0	32750	0	0	0	20028	18620	155744	27310	976717	39574	107326	0	0	8059	810991	0	0
2024-05-18 02:58:32			0	32772	0	0	0	20028	18610	155584	27235	976745	39572	107326	0	0	8060	809886	0	0
2024-05-18 02:59:32			0	32802	0	0	0	20023	18610	155505	27301	976727	39572	107324	0	0	8062	808320	0	0
2024-05-18 03:00:32			0	32821	0	0	0	20010	18620	155449	27305	976717	39584	107319	0	0	8063	807285	0	0
2024-05-18 03:01:32			0	32821	0	0	0	19989	18610	155313	27365	976692	39583	107311	0	0	8064	807330	0	0
2024-05-18 03:02:32			0	32836	0	0	0	20002	18610	155333	27535	976692	39583	107316	0	0	8064	806549	0	0
2024-05-18 03:03:32			0	32863	0	0	0	20010	18610	155049	27505	976692	39583	107319	0	0	8066	805144	0	0
2024-05-18 03:04:32			0	32890	0	0	0	20010	18610	155017	27124	976692	39583	107319	0	0	8068	803742	0	0
2024-05-18 03:05:32			0	32897	0	0	0	20010	18610	154973	27523	976666	39583	107319	0	0	8068	803379	0	0
2024-05-18 03:06:32			0	32910	0	0	0	19994	18610	154909	27505	976701	39583	107313	0	0	8069	802704	0	0
2024-05-18 03:07:32			0	32916	0	0	0	19992	18600	154881	27540	976631	39561	107312	0	0	8069	802437	0	0
2024-05-18 03:08:32			0	32912	0	0	0	19984	18610	154857	27393	976613	39583	107309	0	0	8069	802601	0	0
2024-05-18 03:09:32			0	32916	0	0	0	19968	18600	154797	27320	976570	39560	107303	0	0	8070	802437	0	0
2024-05-18 03:10:32			0	32914	0	0	0	19968	18600	154729	27791	976570	39582	107303	0	0	8070	802541	0	0
2024-05-18 03:11:32			0	32943	0	0	0	19971	18590	154849	27504	976561	39582	107304	0	0	8071	801083	0	0
2024-05-18 03:12:32			0	32931	0	0	0	19963	18590	154793	27417	976606	39582	107301	0	0	8071	801704	0	0
2024-05-18 03:13:32			0	32947	0	0	0	19976	18590	154761	27640	976588	39582	107306	0	0	8071	800876	0	0
2024-05-18 03:14:32			0	32973	0	0	0	19979	18580	154717	27409	976589	39558	107307	0	0	8073	799575	0	0
2024-05-18 03:15:32			0	32960	0	0	0	19961	18590	154637	27149	976614	39559	107300	0	0	8073	800203	0	0
2024-05-18 03:16:32			0	32975	0	0	0	19961	18580	154629	27332	976484	39569	107300	0	0	8073	799472	0	0
2024-05-18 03:17:32			0	32957	0	0	0	19966	18590	154693	27566	976500	39570	107302	0	0	8072	800358	0	0
2024-05-18 03:18:32			0	32977	0	0	0	19963	18580	154605	27661	976510	39569	107301	0	0	8073	799368	0	0
2024-05-18 03:19:32			0	32981	0	0	0	19955	18590	154633	27367	976527	39559	107298	0	0	8074	799118	0	0
2024-05-18 03:20:32			0	32979	0	0	0	19953	18570	154685	27431	976502	39569	107297	0	0	8074	799309	0	0
2024-05-18 03:21:32			0	33013	0	0	0	19953	18570	154557	27621	976520	39568	107297	0	0	8076	797554	0	0
2024-05-18 03:22:32			0	32992	0	0	0	19955	18560	154597	27305	976485	39568	107298	0	0	8074	798681	0	0
2024-05-18 03:23:32			0	33011	0	0	0	19958	18560	154537	27395	976485	39568	107299	0	0	8076	797701	0	0
2024-05-18 03:24:32			0	32987	0	0	0	19950	18570	154433	27566	976502	39557	107296	0	0	8074	798896	0	0
2024-05-18 03:25:32			0	32995	0	0	0	19945	18570	154461	27319	976546	39568	107294	0	0	8075	798483	0	0
2024-05-18 03:26:32			0	33005	0	0	0	19955	18570	154509	27282	976493	39568	107298	0	0	8075	797967	0	0
2024-05-18 03:27:32			0	33011	0	0	0	19953	18560	154585	27640	976538	39568	107297	0	0	8076	797701	0	0
2024-05-18 03:28:32			0	32991	0	0	0	19945	18560	154665	27203	976459	39568	107294	0	0	8075	798733	0	0
2024-05-18 03:29:32			0	32987	0	0	0	19937	18560	154657	27199	976424	39557	107291	0	0	8074	798939	0	0
2024-05-18 03:30:32			0	32991	0	0	0	19932	18550	154689	27357	976442	39556	107289	0	0	8075	798776	0	0
2024-05-18 03:31:32			0	32998	0	0	0	19932	18550	154741	27409	976495	39567	107289	0	0	8075	798415	0	0
2024-05-18 03:32:32			0	32991	0	0	0	19935	18550	154753	27559	976416	39567	107290	0	0	8075	798776	0	0
2024-05-18 03:33:32			0	32991	0	0	0	19932	18550	154757	27365	976354	39566	107289	0	0	8075	798776	0	0
2024-05-18 03:34:32			0	32997	0	0	0	19929	18560	154617	27609	976371	39568	107288	0	0	8075	798423	0	0
2024-05-18 03:35:32			0	32973	0	0	0	19935	18550	154657	27384	976407	39566	107290	0	0	8074	799706	0	0
2024-05-18 03:36:32			0	33015	0	0	0	19924	18550	154553	27019	976363	39578	107286	0	0	8076	797538	0	0
2024-05-18 03:37:32			0	33008	0	0	0	19929	18550	154553	27291	976434	39566	107288	0	0	8076	797899	0	0
2024-05-18 03:38:32			0	33013	0	0	0	19927	18550	154709	27442	976416	39578	107287	0	0	8076	797641	0	0
2024-05-18 03:39:32			0	33005	0	0	0	19937	18550	154621	27547	976381	39566	107291	0	0	8075	798054	0	0
2024-05-18 03:40:32			0	33005	0	0	0	19927	18540	154589	27476	976320	39577	107287	0	0	8076	798097	0	0
2024-05-18 03:41:32			0	33012	0	0	0	19932	18540	154569	27298	976373	39566	107289	0	0	8076	797736	0	0
2024-05-18 03:42:32			0	33018	0	0	0	19929	18530	154561	27660	976303	39554	107288	0	0	8076	797471	0	0
2024-05-18 03:43:32			0	33018	0	0	0	19929	18530	154665	27192	976427	39553	107288	0	0	8076	797471	0	0
2024-05-18 03:44:32			0	33001	0	0	0	19929	18540	154573	27498	976320	39566	107288	0	0	8075	798304	0	0
2024-05-18 03:45:32			0	32982	0	0	0	19924	18540	154657	27524	976399	39566	107286	0	0	8074	799285	0	0
2024-05-18 03:46:32			0	33018	0	0	0	19932	18550	154653	27383	976381	39566	107289	0	0	8076	797383	0	0
2024-05-18 03:47:32			0	32981	0	0	0	19932	18530	154725	27300	976409	39565	107289	0	0	8074	799380	0	0
2024-05-18 03:48:32			0	32995	0	0	0	19935	18540	154733	27078	976346	39555	107290	0	0	8075	798614	0	0
2024-05-18 03:49:32			0	32988	0	0	0	19914	18530	154717	27376	976356	39565	107282	0	0	8075	799019	0	0
2024-05-18 03:50:32			0	32986	0	0	0	19919	18540	154757	27383	976417	39566	107284	0	0	8075	799078	0	0
2024-05-18 03:51:32			0	32967	0	0	0	19924	18540	154813	27168	976293	39555	107286	0	0	8073	800060	0	0
2024-05-18 03:52:32			0	32966	0	0	0	19937	18540	154777	27239	976338	39566	107291	0	0	8073	800112	0	0
2024-05-18 03:53:32			0	32974	0	0	0	19940	18530	154817	27620	976356	39576	107292	0	0	8073	799742	0	0
2024-05-18 03:54:32			0	32968	0	0	0	19935	18540	154757	27428	976373	39577	107290	0	0	8073	800009	0	0
2024-05-18 03:55:32			0	32979	0	0	0	19914	18540	154741	27611	976311	39555	107282	0	0	8074	799440	0	0
2024-05-18 03:56:32			0	32967	0	0	0	19922	18540	154781	27568	976293	39566	107285	0	0	8073	800060	0	0
2024-05-18 03:57:32			0	32964	0	0	0	19919	18520	154849	27357	976305	39575	107284	0	0	8073	800303	0	0
2024-05-18 03:58:32			0	32961	0	0	0	19924	18540	154857	27398	976320	39566	107286	0	0	8073	800371	0	0
2024-05-18 03:59:32			0	32955	0	0	0	19924	18530	154893	27421	976329	39565	107286	0	0	8073	800725	0	0
2024-05-18 04:00:32			0	32944	0	0	0	19914	18530	154877	27301	976401	39564	107282	0	0	8072	801294	0	0
2024-05-18 04:01:32			0	32930	0	0	0	19911	18510	154797	27374	976296	39563	107281	0	0	8071	802107	0	0
2024-05-18 04:02:32			0	32927	0	0	0	19916	18530	154917	27578	976329	39565	107283	0	0	8071	802175	0	0
2024-05-18 04:03:32			0	32936	0	0	0	19906	18520	154941	27585	976286	39564	107279	0	0	8072	801752	0	0
2024-05-18 04:04:32			0	32910	0	0	0	19914	18520	155073	27284	976313	39575	107282	0	0	8070	803100	0	0
2024-05-18 04:05:32			0	32920	0	0	0	19916	18510	155097	27329	976323	39552	107283	0	0	8070	802625	0	0
2024-05-18 04:06:32			0	32916	0	0	0	19909	18520	155061	27460	976358	39575	107280	0	0	8070	802789	0	0
2024-05-18 04:07:32			0	32899	0	0	0	19916	18520	155025	27348	976331	39564	107283	0	0	8069	803671	0	0
2024-05-18 04:08:32			0	32902	0	0	0	19919	18520	155029	27559	976278	39564	107284	0	0	8069	803515	0	0
2024-05-18 04:09:32			0	32894	0	0	0	19919	18520	155081	27550	976225	39564	107284	0	0	8069	803930	0	0
2024-05-18 04:10:32			0	32901	0	0	0	19914	18510	155033	27390	976296	39552	107282	0	0	8069	803610	0	0
2024-05-18 04:11:32			0	32903	0	0	0	19903	18510	155121	27182	976262	39562	107278	0	0	8070	803507	0	0
2024-05-18 04:12:32			0	32898	0	0	0	19903	18510	155081	27275	976315	39562	107278	0	0	8069	803766	0	0
2024-05-18 04:13:32			0	32889	0	0	0	19914	18520	155233	27142	976331	39553	107282	0	0	8069	804190	0	0
2024-05-18 04:14:32			0	32896	0	0	0	19916	18520	155177	27469	976331	39564	107283	0	0	8069	803826	0	0
2024-05-18 04:15:32			0	32886	0	0	0	19911	18510	155189	27358	976296	39563	107281	0	0	8069	804389	0	0
2024-05-18 04:16:32			0	32880	0	0	0	19914	18510	155277	27258	976243	39575	107282	0	0	8068	804701	0	0
2024-05-18 04:17:32			0	32864	0	0	0	19911	18510	155181	27543	976270	39563	107281	0	0	8067	805533	0	0
2024-05-18 04:18:32			0	32858	0	0	0	19911	18530	155281	27211	976321	39564	107281	0	0	8067	805756	0	0
2024-05-18 04:19:32			0	32868	0	0	0	19911	18510	155265	27509	976323	39563	107281	0	0	8067	805325	0	0
2024-05-18 04:20:32			0	32840	0	0	0	19911	18510	155361	27274	976243	39563	107281	0	0	8066	806782	0	0
2024-05-18 04:21:32			0	32842	0	0	0	19909	18510	155401	27176	976341	39574	107280	0	0	8066	806677	0	0
2024-05-18 04:22:32			0	32864	0	0	0	19903	18510	155277	27403	976270	39563	107278	0	0	8067	805533	0	0
2024-05-18 04:23:32			0	32862	0	0	0	19903	18510	155293	27360	976288	39562	107278	0	0	8067	805637	0	0
2024-05-18 04:24:32			0	32879	0	0	0	19898	18510	155213	27379	976315	39551	107276	0	0	8068	804753	0	0
2024-05-18 04:25:32			0	32892	0	0	0	19890	18510	155121	27267	976270	39552	107273	0	0	8069	804078	0	0
2024-05-18 04:26:32			0	32888	0	0	0	19898	18510	155149	27131	976262	39562	107276	0	0	8069	804286	0	0
2024-05-18 04:27:32			0	32872	0	0	0	19885	18510	155165	27414	976262	39562	107271	0	0	8068	805117	0	0
2024-05-18 04:28:32			0	32859	0	0	0	19883	18500	155317	27353	976227	39562	107270	0	0	8067	805837	0	0
2024-05-18 04:29:32			0	32848	0	0	0	19890	18510	155253	27386	976209	39562	107273	0	0	8067	806365	0	0
2024-05-18 04:30:32			0	32842	0	0	0	19890	18490	155341	27123	976192	39562	107273	0	0	8066	806766	0	0
2024-05-18 04:31:32			0	32847	0	0	0	19893	18490	155373	27225	976219	39562	107274	0	0	8066	806505	0	0
2024-05-18 04:32:32			0	32828	0	0	0	19896	18500	155461	27396	976253	39562	107275	0	0	8065	807451	0	0
2024-05-18 04:33:32			0	32831	0	0	0	19898	18490	155477	27298	976192	39550	107276	0	0	8065	807339	0	0
2024-05-18 04:34:32			0	32808	0	0	0	19901	18490	155545	27190	976271	39573	107277	0	0	8064	808538	0	0
2024-05-18 04:35:32			0	32819	0	0	0	19898	18490	155489	27324	976237	39562	107276	0	0	8065	807964	0	0
2024-05-18 04:36:32			0	32829	0	0	0	19896	18500	155413	27324	976280	39562	107275	0	0	8065	807399	0	0
2024-05-18 04:37:32			0	32837	0	0	0	19909	18500	155417	27171	976253	39574	107280	0	0	8066	806982	0	0
2024-05-18 04:38:32			0	32843	0	0	0	19898	18500	155461	27187	976227	39562	107276	0	0	8066	806669	0	0
2024-05-18 04:39:32			0	32853	0	0	0	19888	18500	155245	27209	976253	39562	107272	0	0	8067	806149	0	0
2024-05-18 04:40:32			0	32862	0	0	0	19903	18490	155225	27033	976219	39573	107278	0	0	8067	805725	0	0
2024-05-18 04:41:32			0	32872	0	0	0	19896	18490	155269	27071	976192	39573	107275	0	0	8068	805205	0	0
2024-05-18 04:42:32			0	32885	0	0	0	19890	18480	155313	27332	976255	39561	107273	0	0	8069	804573	0	0
2024-05-18 04:43:32			0	32865	0	0	0	19893	18480	155261	27239	976255	39561	107274	0	0	8067	805613	0	0
2024-05-18 04:44:32			0	32898	0	0	0	19893	18490	155169	27138	976245	39573	107274	0	0	8069	803854	0	0
2024-05-18 04:45:32			0	32884	0	0	0	19898	18490	155177	27426	976263	39562	107276	0	0	8069	804581	0	0
2024-05-18 04:46:32			0	32894	0	0	0	19893	18490	155245	27064	976271	39562	107274	0	0	8069	804062	0	0
2024-05-18 04:47:32			0	32896	0	0	0	19885	18490	155173	27100	976219	39562	107271	0	0	8069	803958	0	0
2024-05-18 04:48:32			0	32888	0	0	0	19893	18500	155129	27293	976253	39562	107274	0	0	8069	804329	0	0
2024-05-18 04:49:32			0	32900	0	0	0	19888	18490	155145	27386	976219	39573	107272	0	0	8070	803750	0	0
2024-05-18 04:50:32			0	32887	0	0	0	19888	18500	155113	26935	976227	39562	107272	0	0	8069	804381	0	0
2024-05-18 04:51:32			0	32905	0	0	0	19890	18490	155193	27124	976237	39573	107273	0	0	8070	803491	0	0
2024-05-18 04:52:32			0	32891	0	0	0	19898	18480	155217	27239	976255	39550	107276	0	0	8069	804262	0	0
2024-05-18 04:53:32			0	32891	0	0	0	19888	18480	155145	27234	976194	39560	107272	0	0	8069	804262	0	0
2024-05-18 04:54:32			0	32889	0	0	0	19875	18500	155141	27319	976253	39574	107267	0	0	8069	804278	0	0
2024-05-18 04:55:32			0	32894	0	0	0	19888	18500	155213	27265	976174	39562	107272	0	0	8069	804018	0	0
2024-05-18 04:56:32			0	32886	0	0	0	19885	18490	155217	27355	976210	39562	107271	0	0	8069	804477	0	0
2024-05-18 04:57:32			0	32876	0	0	0	19883	18490	155133	27364	976210	39562	107270	0	0	8068	804997	0	0
2024-05-18 04:58:32			0	32884	0	0	0	19885	18480	155109	27398	976167	39560	107271	0	0	8069	804625	0	0
2024-05-18 04:59:32			0	32886	0	0	0	19877	18490	155129	27206	976237	39573	107268	0	0	8069	804477	0	0
2024-05-18 05:00:32			0	32886	0	0	0	19885	18490	155149	27274	976157	39550	107271	0	0	8069	804477	0	0
2024-05-18 05:01:32			0	32902	0	0	0	19883	18490	155109	27180	976210	39550	107270	0	0	8070	803647	0	0
2024-05-18 05:02:32			0	32891	0	0	0	19890	18480	155217	27237	976220	39560	107273	0	0	8069	804262	0	0
2024-05-18 05:03:32			0	32894	0	0	0	19890	18480	155121	27086	976141	39549	107273	0	0	8069	804106	0	0
2024-05-18 05:04:32			0	32920	0	0	0	19883	18480	155057	27081	976202	39550	107270	0	0	8071	802757	0	0
2024-05-18 05:05:32			0	32932	0	0	0	19880	18480	154985	27360	976175	39572	107269	0	0	8072	802135	0	0
2024-05-18 05:06:32			0	32933	0	0	0	19880	18490	154945	27024	976184	39573	107269	0	0	8072	802039	0	0
2024-05-18 05:07:32			0	32923	0	0	0	19875	18480	154913	27036	976220	39560	107267	0	0	8071	802601	0	0
2024-05-18 05:08:32			0	32930	0	0	0	19877	18480	154901	27133	976220	39549	107268	0	0	8072	802238	0	0
2024-05-18 05:09:32			0	32940	0	0	0	19880	18480	154897	27020	976202	39561	107269	0	0	8072	801720	0	0
2024-05-18 05:10:32			0	32941	0	0	0	19870	18480	154893	27216	976220	39560	107265	0	0	8072	801668	0	0
2024-05-18 05:11:32			0	32935	0	0	0	19870	18480	154957	27092	976202	39561	107265	0	0	8072	801979	0	0
2024-05-18 05:12:32			0	32955	0	0	0	19872	18480	154985	27296	976149	39561	107266	0	0	8073	800944	0	0
2024-05-18 05:13:32			0	32936	0	0	0	19880	18480	154977	27390	976114	39560	107269	0	0	8072	801927	0	0
2024-05-18 05:14:32			0	32927	0	0	0	19883	18480	155029	26897	976202	39561	107270	0	0	8071	802394	0	0
2024-05-18 05:15:32			0	32910	0	0	0	19880	18480	155029	27001	976149	39561	107269	0	0	8070	803275	0	0
2024-05-18 05:16:32			0	32900	0	0	0	19875	18470	155105	27187	976238	39560	107267	0	0	8070	803838	0	0
2024-05-18 05:17:32			0	32894	0	0	0	19867	18470	155189	27119	976185	39549	107264	0	0	8070	804150	0	0
2024-05-18 05:18:32			0	32897	0	0	0	19864	18470	155205	27152	976124	39560	107263	0	0	8070	803994	0	0
2024-05-18 05:19:32			0	32869	0	0	0	19877	18480	155253	27490	976167	39571	107268	0	0	8068	805405	0	0
2024-05-18 05:20:32			0	32889	0	0	0	19867	18460	155241	27109	976168	39559	107264	0	0	8069	804453	0	0
2024-05-18 05:21:32			0	32889	0	0	0	19870	18470	155297	27324	976150	39571	107265	0	0	8069	804409	0	0
2024-05-18 05:22:32			0	32887	0	0	0	19883	18470	155349	27057	976159	39560	107270	0	0	8069	804513	0	0
2024-05-18 05:23:32			0	32886	0	0	0	19870	18470	155317	27275	976150	39549	107265	0	0	8069	804565	0	0
2024-05-18 05:24:32			0	32885	0	0	0	19877	18480	155289	27336	976167	39549	107268	0	0	8069	804573	0	0
2024-05-18 05:25:32			0	32868	0	0	0	19867	18470	155285	27183	976132	39571	107264	0	0	8068	805501	0	0
2024-05-18 05:26:32			0	32871	0	0	0	19867	18470	155381	27537	976177	39560	107264	0	0	8068	805345	0	0
2024-05-18 05:27:32			0	32867	0	0	0	19862	18470	155321	27566	976177	39539	107262	0	0	8068	805553	0	0
2024-05-18 05:28:32			0	32853	0	0	0	19851	18460	155389	27201	976107	39558	107258	0	0	8067	806325	0	0
2024-05-18 05:29:32			0	32847	0	0	0	19851	18470	155413	27467	976177	39549	107258	0	0	8067	806594	0	0
2024-05-18 05:30:32			0	32846	0	0	0	19864	18470	155397	27585	976132	39571	107263	0	0	8067	806646	0	0
2024-05-18 05:31:32			0	32823	0	0	0	19859	18460	155497	27538	976142	39559	107261	0	0	8065	807888	0	0
2024-05-18 05:32:32			0	32833	0	0	0	19851	18470	155537	27232	976150	39560	107258	0	0	8066	807323	0	0
2024-05-18 05:33:32			0	32835	0	0	0	19851	18470	155509	27454	976097	39539	107258	0	0	8066	807218	0	0
2024-05-18 05:34:32			0	32822	0	0	0	19864	18470	155613	26989	976124	39560	107263	0	0	8065	807896	0	0
2024-05-18 05:35:32			0	32820	0	0	0	19859	18450	155633	27326	976117	39558	107261	0	0	8065	808089	0	0
2024-05-18 05:36:32			0	32822	0	0	0	19872	18470	155501	27472	976132	39582	107266	0	0	8065	807896	0	0
2024-05-18 05:37:32			0	32813	0	0	0	19867	18450	155585	27052	976125	39558	107264	0	0	8065	808454	0	0
2024-05-18 05:38:32			0	32805	0	0	0	19859	18460	155593	27270	976089	39559	107261	0	0	8064	808827	0	0
2024-05-18 05:39:32			0	32798	0	0	0	19859	18460	155689	27293	976107	39558	107261	0	0	8064	809192	0	0
2024-05-18 05:40:32			0	32784	0	0	0	19864	18460	155805	27587	976081	39558	107263	0	0	8063	809923	0	0
2024-05-18 05:41:32			0	32758	0	0	0	19859	18460	155928	27275	976142	39570	107261	0	0	8061	811282	0	0
2024-05-18 05:42:32			0	32746	0	0	0	19854	18460	155912	27327	976107	39569	107259	0	0	8061	811910	0	0
2024-05-18 05:43:32			0	32741	0	0	0	19864	18450	155996	27277	976099	39558	107263	0	0	8060	812216	0	0
2024-05-18 05:44:32			0	32730	0	0	0	19859	18450	156040	27133	976125	39537	107261	0	0	8060	812793	0	0
2024-05-18 05:45:32			0	32732	0	0	0	19872	18450	156000	27246	976099	39569	107266	0	0	8059	812688	0	0
2024-05-18 05:46:32			0	32707	0	0	0	19867	18440	156168	27038	976082	39568	107264	0	0	8058	814043	0	0
2024-05-18 05:47:32			0	32711	0	0	0	19859	18450	156164	27135	976117	39569	107261	0	0	8058	813789	0	0
2024-05-18 05:48:32			0	32713	0	0	0	19864	18460	156224	27329	976063	39548	107263	0	0	8059	813639	0	0
2024-05-18 05:49:32			0	32707	0	0	0	19867	18450	156096	27137	976125	39569	107264	0	0	8058	813999	0	0
2024-05-18 05:50:32			0	32700	0	0	0	19872	18450	156088	27194	976152	39558	107266	0	0	8058	814366	0	0
2024-05-18 05:51:32			0	32719	0	0	0	19864	18450	156164	27026	976152	39569	107263	0	0	8059	813369	0	0
2024-05-18 05:52:32			0	32681	0	0	0	19867	18450	156104	27310	976046	39558	107264	0	0	8056	815364	0	0
2024-05-18 05:53:32			0	32693	0	0	0	19870	18460	156184	27352	976168	39559	107265	0	0	8057	814689	0	0
2024-05-18 05:54:32			0	32701	0	0	0	19880	18450	156076	27471	976072	39558	107269	0	0	8057	814313	0	0
2024-05-18 05:55:32			0	32711	0	0	0	19872	18460	156100	27222	976221	39581	107266	0	0	8058	813744	0	0
2024-05-18 05:56:32			0	32737	0	0	0	19870	18460	155992	27183	976187	39558	107265	0	0	8060	812382	0	0
2024-05-18 05:57:32			0	32738	0	0	0	19880	18460	155936	27339	976116	39559	107269	0	0	8060	812329	0	0
2024-05-18 05:58:32			0	32747	0	0	0	19877	18460	155948	27260	976134	39558	107268	0	0	8060	811858	0	0
2024-05-18 05:59:32			0	32753	0	0	0	19885	18460	155860	27293	976107	39558	107271	0	0	8061	811544	0	0
2024-05-18 06:00:32			0	32766	0	0	0	19867	18470	155804	27230	976150	39560	107264	0	0	8062	810820	0	0
2024-05-18 06:01:32			0	32777	0	0	0	19867	18460	155773	27175	976116	39548	107264	0	0	8062	810289	0	0
2024-05-18 06:02:32			0	32785	0	0	0	19862	18460	155733	27378	976107	39547	107262	0	0	8063	809871	0	0
2024-05-18 06:03:32			0	32791	0	0	0	19851	18470	155765	27265	976150	39549	107258	0	0	8064	809513	0	0
2024-05-18 06:04:32			0	32790	0	0	0	19844	18460	155693	27097	976054	39558	107255	0	0	8064	809610	0	0
2024-05-18 06:05:32			0	32810	0	0	0	19859	18460	155681	27199	976081	39569	107261	0	0	8065	808566	0	0
2024-05-18 06:06:32			0	32786	0	0	0	19859	18460	155613	27076	976107	39569	107261	0	0	8063	809819	0	0
2024-05-18 06:07:32			0	32807	0	0	0	19841	18460	155709	27248	976054	39547	107254	0	0	8065	808722	0	0
2024-05-18 06:08:32			0	32830	0	0	0	19841	18460	155669	27421	976107	39569	107254	0	0	8066	807523	0	0
2024-05-18 06:09:32			0	32830	0	0	0	19838	18450	155609	27085	976020	39558	107253	0	0	8066	807567	0	0
2024-05-18 06:10:32			0	32826	0	0	0	19838	18450	155577	27327	976046	39558	107253	0	0	8066	807776	0	0
2024-05-18 06:11:32			0	32815	0	0	0	19870	18450	155573	26974	976091	39547	107265	0	0	8065	808349	0	0
2024-05-18 06:12:32			0	32833	0	0	0	19875	18450	155589	27066	976064	39558	107267	0	0	8066	807411	0	0
2024-05-18 06:13:32			0	32811	0	0	0	19883	18450	155665	27256	976038	39558	107270	0	0	8064	808558	0	0
2024-05-18 06:14:32			0	32830	0	0	0	19875	18450	155605	27364	976099	39558	107267	0	0	8065	807567	0	0
2024-05-18 06:15:32			0	32830	0	0	0	19867	18460	155485	27341	976107	39558	107264	0	0	8066	807523	0	0
2024-05-18 06:16:32			0	32839	0	0	0	19875	18460	155397	27005	976134	39558	107267	0	0	8066	807054	0	0
2024-05-18 06:17:32			0	32844	0	0	0	19883	18460	155417	26811	976081	39547	107270	0	0	8066	806794	0	0
2024-05-18 06:18:32			0	32866	0	0	0	19885	18450	155409	27088	976152	39558	107271	0	0	8067	805693	0	0
2024-05-18 06:19:32			0	32868	0	0	0	19893	18450	155413	26752	976178	39580	107274	0	0	8067	805589	0	0
2024-05-18 06:20:32			0	32876	0	0	0	19880	18460	155317	26975	976195	39570	107269	0	0	8068	805129	0	0
2024-05-18 06:21:32			0	32880	0	0	0	19880	18460	155253	27322	976107	39569	107269	0	0	8068	804921	0	0
2024-05-18 06:22:32			0	32894	0	0	0	19885	18470	155253	26960	976203	39560	107271	0	0	8069	804150	0	0
2024-05-18 06:23:32			0	32892	0	0	0	19880	18480	155269	26937	976220	39560	107269	0	0	8069	804210	0	0
2024-05-18 06:24:32			0	32893	0	0	0	19875	18460	155189	27235	976195	39559	107267	0	0	8069	804246	0	0
2024-05-18 06:25:32			0	32911	0	0	0	19883	18480	155125	27067	976167	39549	107270	0	0	8070	803224	0	0
2024-05-18 06:26:32			0	32914	0	0	0	19885	18480	155093	27251	976141	39582	107271	0	0	8070	803068	0	0
2024-05-18 06:27:32			0	32902	0	0	0	19877	18470	155229	27279	976159	39560	107268	0	0	8070	803735	0	0
2024-05-18 06:28:32			0	32914	0	0	0	19875	18470	155197	27348	976185	39560	107267	0	0	8071	803112	0	0
2024-05-18 06:29:32			0	32911	0	0	0	19875	18470	155277	27173	976203	39571	107267	0	0	8070	803267	0	0
2024-05-18 06:30:32			0	32930	0	0	0	19883	18470	155133	27287	976264	39571	107270	0	0	8071	802282	0	0
2024-05-18 06:31:32			0	32919	0	0	0	19880	18470	155049	27218	976159	39560	107269	0	0	8071	802853	0	0
2024-05-18 06:32:32			0	32908	0	0	0	19875	18470	155013	27254	976203	39560	107267	0	0	8070	803423	0	0
2024-05-18 06:33:32			0	32925	0	0	0	19870	18470	154989	27211	976185	39560	107265	0	0	8071	802542	0	0
2024-05-18 06:34:32			0	32926	0	0	0	19872	18470	154989	27358	976203	39571	107266	0	0	8071	802490	0	0
2024-05-18 06:35:32			0	32925	0	0	0	19870	18470	154957	27105	976238	39560	107265	0	0	8071	802542	0	0
2024-05-18 06:36:32			0	32937	0	0	0	19862	18470	155029	27202	976132	39571	107262	0	0	8072	801920	0	0
2024-05-18 06:37:32			0	32930	0	0	0	19854	18460	154965	27154	976168	39559	107259	0	0	8072	802326	0	0
2024-05-18 06:38:32			0	32941	0	0	0	19862	18460	154953	27374	976142	39559	107262	0	0	8072	801756	0	0
2024-05-18 06:39:32			0	32928	0	0	0	19870	18470	154997	27246	976159	39560	107265	0	0	8072	802386	0	0
2024-05-18 06:40:32			0	32933	0	0	0	19867	18470	154997	27223	976177	39560	107264	0	0	8072	802127	0	0
2024-05-18 06:41:32			0	32937	0	0	0	19872	18470	155049	27367	976159	39571	107266	0	0	8072	801920	0	0
2024-05-18 06:42:32			0	32962	0	0	0	19872	18460	154889	27163	976195	39581	107266	0	0	8074	800669	0	0
2024-05-18 06:43:32			0	32937	0	0	0	19864	18470	154905	27185	976150	39560	107263	0	0	8072	801920	0	0
2024-05-18 06:44:32			0	32953	0	0	0	19870	18470	154877	27182	976177	39571	107265	0	0	8073	801091	0	0
2024-05-18 06:45:32			0	32949	0	0	0	19870	18480	154913	27256	976167	39571	107265	0	0	8073	801254	0	0
2024-05-18 06:46:32			0	32972	0	0	0	19870	18470	154905	27166	976159	39560	107265	0	0	8074	800108	0	0
2024-05-18 06:47:32			0	32968	0	0	0	19875	18470	154797	27409	976203	39571	107267	0	0	8074	800315	0	0
2024-05-18 06:48:32			0	32968	0	0	0	19883	18470	154873	27274	976150	39560	107270	0	0	8074	800315	0	0
2024-05-18 06:49:32			0	32956	0	0	0	19877	18470	154913	27403	976203	39571	107268	0	0	8073	800936	0	0
2024-05-18 06:50:32			0	32966	0	0	0	19883	18470	154893	27334	976203	39571	107270	0	0	8074	800418	0	0
2024-05-18 06:51:32			0	32959	0	0	0	19885	18480	154861	26890	976194	39582	107271	0	0	8073	800737	0	0
2024-05-18 06:52:32			0	32972	0	0	0	19888	18470	154921	27092	976203	39560	107272	0	0	8074	800108	0	0
2024-05-18 06:53:32			0	32960	0	0	0	19888	18470	154901	27369	976238	39560	107272	0	0	8073	800729	0	0
2024-05-18 06:54:32			0	32967	0	0	0	19888	18470	154865	27308	976185	39571	107272	0	0	8074	800367	0	0
2024-05-18 06:55:32			0	32969	0	0	0	19872	18480	154777	27050	976220	39571	107266	0	0	8074	800219	0	0
2024-05-18 06:56:32			0	32988	0	0	0	19888	18470	154877	27229	976185	39560	107272	0	0	8075	799281	0	0
2024-05-18 06:57:32			0	32973	0	0	0	19880	18470	154837	27246	976238	39571	107269	0	0	8074	800056	0	0
2024-05-18 06:58:32			0	32973	0	0	0	19880	18470	154801	27107	976177	39560	107269	0	0	8074	800056	0	0
2024-05-18 06:59:32			0	32962	0	0	0	19875	18470	154781	27074	976264	39571	107267	0	0	8074	800625	0	0
2024-05-18 07:00:32			0	32988	0	0	0	19859	18470	154845	27320	976185	39582	107261	0	0	8075	799281	0	0
2024-05-18 07:01:32			0	32977	0	0	0	19859	18470	154809	27263	976177	39560	107261	0	0	8075	799849	0	0
2024-05-18 07:02:32			0	32969	0	0	0	19862	18460	154845	27176	976195	39559	107262	0	0	8074	800307	0	0
2024-05-18 07:03:32			0	32969	0	0	0	19854	18460	154837	26984	976168	39570	107259	0	0	8074	800307	0	0
2024-05-18 07:04:32			0	32948	0	0	0	19867	18470	154913	27194	976124	39560	107264	0	0	8073	801350	0	0
2024-05-18 07:05:32			0	32947	0	0	0	19859	18470	154949	27270	976159	39560	107261	0	0	8073	801402	0	0
2024-05-18 07:06:32			0	32948	0	0	0	19867	18460	155009	27007	976195	39570	107264	0	0	8073	801394	0	0
2024-05-18 07:07:32			0	32935	0	0	0	19859	18460	154985	27338	976142	39559	107261	0	0	8072	802067	0	0
2024-05-18 07:08:32			0	32940	0	0	0	19859	18470	155065	27540	976203	39571	107261	0	0	8072	801764	0	0
2024-05-18 07:09:32			0	32931	0	0	0	19857	18460	155085	27326	976142	39559	107260	0	0	8072	802274	0	0
2024-05-18 07:10:32			0	32945	0	0	0	19841	18460	155113	27092	976221	39548	107254	0	0	8073	801549	0	0
2024-05-18 07:11:32			0	32939	0	0	0	19838	18450	155017	27066	976152	39547	107253	0	0	8073	801904	0	0
2024-05-18 07:12:32			0	32919	0	0	0	19841	18460	155029	27467	976134	39558	107254	0	0	8071	802896	0	0
2024-05-18 07:13:32			0	32929	0	0	0	19846	18450	155081	26991	976125	39547	107256	0	0	8072	802422	0	0
2024-05-18 07:14:32			0	32933	0	0	0	19862	18460	155105	27123	976160	39547	107262	0	0	8072	802171	0	0
2024-05-18 07:15:32			0	32918	0	0	0	19849	18450	155057	27353	976125	39569	107257	0	0	8071	802992	0	0
2024-05-18 07:16:32			0	32914	0	0	0	19851	18460	155085	27384	976107	39580	107258	0	0	8071	803156	0	0
2024-05-18 07:17:32			0	32904	0	0	0	19849	18450	155057	27331	976152	39558	107257	0	0	8070	803719	0	0
2024-05-18 07:18:32			0	32909	0	0	0	19823	18460	155137	27194	976089	39559	107247	0	0	8071	803415	0	0
2024-05-18 07:19:32			0	32897	0	0	0	19831	18450	155169	27069	976072	39558	107250	0	0	8070	804082	0	0
2024-05-18 07:20:32			0	32903	0	0	0	19820	18450	155269	27438	976064	39558	107246	0	0	8071	803770	0	0
2024-05-18 07:21:32			0	32884	0	0	0	19828	18450	155265	27234	976064	39558	107249	0	0	8069	804757	0	0
2024-05-18 07:22:32			0	32866	0	0	0	19823	18440	155265	27196	976003	39546	107247	0	0	8068	805737	0	0
2024-05-18 07:23:32			0	32858	0	0	0	19820	18440	155293	27197	976003	39557	107246	0	0	8068	806153	0	0
2024-05-18 07:24:32			0	32843	0	0	0	19825	18450	155457	27209	976117	39580	107248	0	0	8067	806890	0	0
2024-05-18 07:25:32			0	32844	0	0	0	19833	18430	155457	27100	976057	39556	107251	0	0	8067	806926	0	0
2024-05-18 07:26:32			0	32827	0	0	0	19823	18440	155569	27128	976048	39556	107247	0	0	8066	807768	0	0
2024-05-18 07:27:32			0	32816	0	0	0	19825	18430	155541	27261	976031	39556	107248	0	0	8065	808385	0	0
2024-05-18 07:28:32			0	32809	0	0	0	19828	18430	155609	27050	976031	39556	107249	0	0	8065	808751	0	0
2024-05-18 07:29:32			0	32826	0	0	0	19820	18430	155581	27471	976013	39568	107246	0	0	8066	807864	0	0
2024-05-18 07:30:32			0	32817	0	0	0	19823	18430	155617	27569	976031	39567	107247	0	0	8065	808333	0	0
2024-05-18 07:31:32			0	32810	0	0	0	19815	18430	155609	27436	976031	39578	107244	0	0	8065	808698	0	0
2024-05-18 07:32:32			0	32804	0	0	0	19823	18440	155753	27085	976048	39589	107247	0	0	8065	808967	0	0
2024-05-18 07:33:32			0	32808	0	0	0	19833	18430	155717	27223	976031	39567	107251	0	0	8065	808803	0	0
2024-05-18 07:34:32			0	32805	0	0	0	19825	18430	155721	27516	975978	39544	107248	0	0	8065	808959	0	0
2024-05-18 07:35:32			0	32794	0	0	0	19825	18430	155617	27573	976005	39544	107248	0	0	8064	809534	0	0
2024-05-18 07:36:32			0	32784	0	0	0	19831	18430	155725	27215	976013	39556	107250	0	0	8063	810056	0	0
2024-05-18 07:37:32			0	32781	0	0	0	19831	18420	155681	27211	976023	39556	107250	0	0	8063	810257	0	0
2024-05-18 07:38:32			0	32777	0	0	0	19838	18430	155885	27244	976005	39556	107253	0	0	8063	810422	0	0
2024-05-18 07:39:32			0	32782	0	0	0	19833	18420	155841	27448	975988	39555	107251	0	0	8063	810205	0	0
2024-05-18 07:40:32			0	32775	0	0	0	19836	18440	155809	27403	976074	39556	107252	0	0	8063	810482	0	0
2024-05-18 07:41:32			0	32794	0	0	0	19844	18440	155785	27294	976048	39568	107255	0	0	8064	809489	0	0
2024-05-18 07:42:32			0	32789	0	0	0	19851	18420	155781	27203	976041	39555	107258	0	0	8063	809839	0	0
2024-05-18 07:43:32			0	32787	0	0	0	19838	18440	155741	27235	976048	39579	107253	0	0	8063	809855	0	0
2024-05-18 07:44:32			0	32792	0	0	0	19838	18440	155673	27372	976048	39556	107253	0	0	8064	809594	0	0
2024-05-18 07:45:32			0	32811	0	0	0	19841	18430	155693	27448	976005	39556	107254	0	0	8065	808646	0	0
2024-05-18 07:46:32			0	32784	0	0	0	19846	18440	155661	27216	976048	39568	107256	0	0	8063	810012	0	0
2024-05-18 07:47:32			0	32804	0	0	0	19836	18430	155705	27275	976057	39556	107252	0	0	8064	809012	0	0
2024-05-18 07:48:32			0	32796	0	0	0	19828	18430	155725	27447	975986	39556	107249	0	0	8064	809429	0	0
2024-05-18 07:49:32			0	32812	0	0	0	19823	18430	155617	27248	976039	39556	107247	0	0	8065	808594	0	0
2024-05-18 07:50:32			0	32802	0	0	0	19831	18420	155717	27270	976023	39567	107250	0	0	8064	809160	0	0
2024-05-18 07:51:32			0	32783	0	0	0	19841	18430	155677	27154	976092	39556	107254	0	0	8063	810108	0	0
2024-05-18 07:52:32			0	32784	0	0	0	19846	18440	155813	27428	976074	39556	107256	0	0	8063	810012	0	0
2024-05-18 07:53:32			0	32775	0	0	0	19849	18440	155776	27270	976056	39557	107257	0	0	8062	810482	0	0
2024-05-18 07:54:32			0	32810	0	0	0	19851	18430	155685	27353	976092	39556	107258	0	0	8065	808698	0	0
2024-05-18 07:55:32			0	32804	0	0	0	19862	18440	155713	27265	976101	39556	107262	0	0	8064	808967	0	0
2024-05-18 07:56:32			0	32819	0	0	0	19859	18440	155589	27227	976162	39557	107261	0	0	8065	808185	0	0
2024-05-18 07:57:32			0	32848	0	0	0	19841	18440	155401	27331	976101	39556	107254	0	0	8067	806674	0	0
2024-05-18 07:58:32			0	32862	0	0	0	19854	18440	155401	27426	976109	39568	107259	0	0	8068	805945	0	0
2024-05-18 07:59:32			0	32885	0	0	0	19851	18440	155341	27410	976082	39568	107258	0	0	8069	804749	0	0
2024-05-18 08:00:32			0	32871	0	0	0	19851	18440	155321	27448	976135	39568	107258	0	0	8068	805477	0	0
2024-05-18 08:01:32			0	32861	0	0	0	19854	18440	155273	27575	976074	39568	107259	0	0	8068	805997	0	0
2024-05-18 08:02:32			0	32836	0	0	0	19857	18450	155417	27390	976064	39558	107260	0	0	8066	807255	0	0
2024-05-18 08:03:32			0	32856	0	0	0	19864	18450	155413	27824	976117	39569	107263	0	0	8067	806213	0	0
2024-05-18 08:04:32			0	32842	0	0	0	19859	18450	155405	27656	976091	39569	107261	0	0	8066	806942	0	0
2024-05-18 08:05:32			0	32832	0	0	0	19862	18450	155341	27291	976072	39569	107262	0	0	8066	807463	0	0
2024-05-18 08:06:32			0	32850	0	0	0	19877	18450	155497	27343	976152	39558	107268	0	0	8067	806526	0	0
2024-05-18 08:07:32			0	32831	0	0	0	19862	18450	155437	27313	976152	39558	107262	0	0	8066	807515	0	0
2024-05-18 08:08:32			0	32837	0	0	0	19872	18460	155465	27417	976134	39558	107266	0	0	8066	807158	0	0
2024-05-18 08:09:32			0	32847	0	0	0	19862	18450	155493	27414	976072	39591	107262	0	0	8067	806682	0	0
2024-05-18 08:10:32			0	32846	0	0	0	19872	18460	155473	27149	976160	39558	107266	0	0	8066	806690	0	0
2024-05-18 08:11:32			0	32866	0	0	0	19859	18460	155453	27490	976134	39558	107261	0	0	8068	805649	0	0
2024-05-18 08:12:32			0	32845	0	0	0	19875	18470	155521	27353	976177	39571	107267	0	0	8066	806698	0	0
2024-05-18 08:13:32			0	32825	0	0	0	19880	18460	155609	27274	976187	39569	107269	0	0	8065	807784	0	0
2024-05-18 08:14:32			0	32800	0	0	0	19885	18460	155665	27142	976195	39570	107271	0	0	8063	809088	0	0
2024-05-18 08:15:32			0	32804	0	0	0	19885	18460	155661	27410	976187	39569	107271	0	0	8064	808879	0	0
2024-05-18 08:16:32			0	32804	0	0	0	19893	18470	155645	27268	976177	39571	107274	0	0	8064	808835	0	0
2024-05-18 08:17:32			0	32804	0	0	0	19888	18470	155705	27395	976203	39571	107272	0	0	8064	808835	0	0
2024-05-18 08:18:32			0	32815	0	0	0	19890	18470	155565	27291	976238	39571	107273	0	0	8064	808261	0	0
2024-05-18 08:19:32			0	32818	0	0	0	19888	18470	155601	27152	976203	39582	107272	0	0	8065	808104	0	0
2024-05-18 08:20:32			0	32810	0	0	0	19893	18460	155549	27422	976248	39559	107274	0	0	8064	808566	0	0
2024-05-18 08:21:32			0	32825	0	0	0	19896	18480	155681	27364	976352	39582	107275	0	0	8065	807695	0	0
2024-05-18 08:22:32			0	32815	0	0	0	19890	18470	155661	27208	976238	39571	107273	0	0	8064	808261	0	0
2024-05-18 08:23:32			0	32797	0	0	0	19901	18470	155641	27601	976211	39582	107277	0	0	8063	809200	0	0
2024-05-18 08:24:32			0	32806	0	0	0	19909	18480	155685	27319	976308	39572	107280	0	0	8064	808686	0	0
2024-05-18 08:25:32			0	32802	0	0	0	19914	18480	155673	27386	976308	39572	107282	0	0	8063	808895	0	0
2024-05-18 08:26:32			0	32810	0	0	0	19903	18480	155761	27270	976326	39571	107278	0	0	8064	808477	0	0
2024-05-18 08:27:32			0	32815	0	0	0	19909	18490	155589	27442	976377	39594	107280	0	0	8064	808173	0	0
2024-05-18 08:28:32			0	32822	0	0	0	19906	18480	155565	26941	976281	39583	107279	0	0	8065	807852	0	0
2024-05-18 08:29:32			0	32829	0	0	0	19922	18500	155573	27364	976359	39574	107285	0	0	8065	807399	0	0
2024-05-18 08:30:32			0	32847	0	0	0	19914	18490	155529	27346	976343	39562	107282	0	0	8066	806505	0	0
2024-05-18 08:31:32			0	32821	0	0	0	19916	18490	155537	27149	976343	39562	107283	0	0	8064	807860	0	0
2024-05-18 08:32:32			0	32828	0	0	0	19924	18490	155509	27180	976351	39573	107286	0	0	8065	807495	0	0
2024-05-18 08:33:32			0	32845	0	0	0	19919	18500	155441	27227	976439	39584	107284	0	0	8066	806565	0	0
2024-05-18 08:34:32			0	32866	0	0	0	19922	18500	155397	27277	976386	39584	107285	0	0	8067	805473	0	0
2024-05-18 08:35:32			0	32860	0	0	0	19935	18510	155221	27133	976429	39575	107290	0	0	8067	805741	0	0
2024-05-18 08:36:32			0	32869	0	0	0	19929	18510	155269	27362	976420	39574	107288	0	0	8067	805273	0	0
2024-05-18 08:37:32			0	32880	0	0	0	19958	18510	155277	27358	976402	39585	107299	0	0	8067	804701	0	0
2024-05-18 08:38:32			0	32907	0	0	0	19961	18530	155205	27464	976488	39576	107300	0	0	8069	803211	0	0
2024-05-18 08:39:32			0	32923	0	0	0	19966	18530	155013	27310	976506	39608	107302	0	0	8070	802382	0	0
2024-05-18 08:40:32			0	32957	0	0	0	19963	18530	154997	27415	976541	39576	107301	0	0	8072	800621	0	0
2024-05-18 08:41:32			0	32975	0	0	0	19968	18540	154913	27400	976550	39587	107303	0	0	8073	799647	0	0
2024-05-18 08:42:32			0	32971	0	0	0	19966	18540	154865	27270	976602	39587	107302	0	0	8073	799853	0	0
2024-05-18 08:43:32			0	33000	0	0	0	19974	18550	154785	27583	976566	39587	107305	0	0	8075	798312	0	0
2024-05-18 08:44:32			0	32990	0	0	0	19981	18540	154661	27479	976576	39587	107308	0	0	8074	798872	0	0
2024-05-18 08:45:32			0	33020	0	0	0	19981	18540	154593	27365	976576	39577	107308	0	0	8076	797324	0	0
2024-05-18 08:46:32			0	33021	0	0	0	19984	18560	154621	27495	976556	39589	107309	0	0	8076	797185	0	0
2024-05-18 08:47:32			0	33041	0	0	0	19986	18560	154493	27485	976591	39589	107310	0	0	8077	796155	0	0
2024-05-18 08:48:32			0	33054	0	0	0	19989	18560	154417	27305	976715	39579	107311	0	0	8078	795485	0	0
2024-05-18 08:49:32			0	33060	0	0	0	19994	18570	154301	27459	976679	39589	107313	0	0	8078	795133	0	0
2024-05-18 08:50:32			0	33077	0	0	0	19997	18560	154309	27251	976609	39589	107314	0	0	8079	794303	0	0
2024-05-18 08:51:32			0	33098	0	0	0	19994	18570	154241	27287	976652	39589	107313	0	0	8080	793181	0	0
2024-05-18 08:52:32			0	33099	0	0	0	19999	18580	154181	27053	976669	39591	107315	0	0	8080	793086	0	0
2024-05-18 08:53:32			0	33112	0	0	0	19997	18570	154101	27362	976679	39589	107314	0	0	8081	792462	0	0
2024-05-18 08:54:32			0	33125	0	0	0	19994	18580	154145	27248	976756	39582	107313	0	0	8082	791752	0	0
2024-05-18 08:55:32			0	33110	0	0	0	19997	18580	154021	27178	976730	39592	107314	0	0	8081	792522	0	0
2024-05-18 08:56:32			0	33132	0	0	0	19992	18570	154053	27326	976634	39580	107312	0	0	8082	791437	0	0
2024-05-18 08:57:32			0	33165	0	0	0	20005	18590	153973	27246	976765	39582	107317	0	0	8084	789661	0	0
2024-05-18 08:58:32			0	33176	0	0	0	20007	18570	154013	27175	976713	39590	107318	0	0	8085	789185	0	0
2024-05-18 08:59:32			0	33169	0	0	0	20007	18590	153805	26987	976765	39592	107318	0	0	8084	789457	0	0
2024-05-18 09:00:32			0	33196	0	0	0	19997	18580	153777	27248	976677	39592	107314	0	0	8086	788120	0	0
2024-05-18 09:01:32			0	33218	0	0	0	20007	18590	153725	27242	976765	39582	107318	0	0	8087	786954	0	0
2024-05-18 09:02:32			0	33223	0	0	0	20012	18600	153757	27175	976755	39593	107320	0	0	8087	786656	0	0
2024-05-18 09:03:32			0	33227	0	0	0	20015	18590	153693	27128	976773	39570	107321	0	0	8088	786495	0	0
2024-05-18 09:04:32			0	33217	0	0	0	20015	18590	153597	27459	976773	39592	107321	0	0	8087	787005	0	0
2024-05-18 09:05:32			0	33202	0	0	0	20018	18600	153725	27550	976790	39593	107322	0	0	8086	787728	0	0
2024-05-18 09:06:32			0	33217	0	0	0	20018	18600	153721	27033	976808	39582	107322	0	0	8087	786962	0	0
2024-05-18 09:07:32			0	33214	0	0	0	20020	18590	153673	27274	976826	39592	107323	0	0	8087	787158	0	0
2024-05-18 09:08:32			0	33204	0	0	0	20018	18590	153717	27185	976773	39592	107322	0	0	8086	787669	0	0
2024-05-18 09:09:32			0	33212	0	0	0	20031	18600	153705	27253	976790	39583	107327	0	0	8086	787217	0	0
2024-05-18 09:10:32			0	33207	0	0	0	20025	18610	153585	27180	976798	39593	107325	0	0	8086	787429	0	0
2024-05-18 09:11:32			0	33218	0	0	0	20033	18600	153689	27377	976843	39572	107328	0	0	8087	786911	0	0
2024-05-18 09:12:32			0	33210	0	0	0	20023	18610	153685	27426	976807	39605	107324	0	0	8087	787276	0	0
2024-05-18 09:13:32			0	33231	0	0	0	20033	18610	153601	27396	976860	39572	107328	0	0	8088	786206	0	0
2024-05-18 09:14:32			0	33255	0	0	0	20036	18610	153533	27670	976807	39583	107329	0	0	8089	784983	0	0
2024-05-18 09:15:32			0	33251	0	0	0	20036	18610	153497	27429	976833	39593	107329	0	0	8089	785187	0	0
2024-05-18 09:16:32			0	33259	0	0	0	20031	18620	153545	27443	976894	39594	107327	0	0	8089	784737	0	0
2024-05-18 09:17:32			0	33261	0	0	0	20025	18620	153501	27215	976894	39594	107325	0	0	8090	784635	0	0
2024-05-18 09:18:32			0	33290	0	0	0	20028	18620	153449	27360	976921	39583	107326	0	0	8091	783161	0	0
2024-05-18 09:19:32			0	33287	0	0	0	20031	18620	153349	27241	976850	39595	107327	0	0	8091	783313	0	0
2024-05-18 09:20:32			0	33288	0	0	0	20036	18620	153333	27326	976876	39595	107329	0	0	8091	783263	0	0
2024-05-18 09:21:32			0	33285	0	0	0	20046	18630	153241	27121	976911	39584	107333	0	0	8091	783372	0	0
2024-05-18 09:22:32			0	33307	0	0	0	20041	18610	153377	27206	976904	39593	107331	0	0	8092	782341	0	0
2024-05-18 09:23:32			0	33302	0	0	0	20038	18630	153313	27147	976919	39595	107330	0	0	8092	782509	0	0
2024-05-18 09:24:32			0	33304	0	0	0	20044	18620	153313	27428	976903	39584	107332	0	0	8092	782450	0	0
2024-05-18 09:25:32			0	33323	0	0	0	20028	18620	153317	27319	976894	39605	107326	0	0	8093	781486	0	0
2024-05-18 09:26:32			0	33317	0	0	0	20038	18630	153189	27287	976937	39606	107330	0	0	8093	781747	0	0
2024-05-18 09:27:32			0	33327	0	0	0	20057	18630	153185	27119	976866	39595	107337	0	0	8093	781240	0	0
2024-05-18 09:28:32			0	33335	0	0	0	20057	18630	153169	26880	976893	39584	107337	0	0	8093	780835	0	0
2024-05-18 09:29:32			0	33355	0	0	0	20064	18640	153085	27336	976981	39596	107340	0	0	8095	779779	0	0
2024-05-18 09:30:32			0	33354	0	0	0	20062	18640	153137	27024	976981	39585	107339	0	0	8095	779830	0	0
2024-05-18 09:31:32			0	33352	0	0	0	20054	18640	153121	27523	977007	39607	107336	0	0	8095	779931	0	0
2024-05-18 09:32:32			0	33364	0	0	0	20057	18640	153121	27332	977016	39597	107337	0	0	8095	779324	0	0
2024-05-18 09:33:32			0	33369	0	0	0	20077	18640	153025	27377	977016	39597	107345	0	0	8095	779071	0	0
2024-05-18 09:34:32			0	33383	0	0	0	20062	18650	152877	27272	976997	39587	107339	0	0	8096	778321	0	0
2024-05-18 09:35:32			0	33391	0	0	0	20070	18650	152897	27066	977032	39609	107342	0	0	8097	777916	0	0
2024-05-18 09:36:32			0	33396	0	0	0	20054	18650	152849	27345	977059	39598	107336	0	0	8097	777664	0	0
2024-05-18 09:37:32			0	33421	0	0	0	20077	18660	152825	27308	977040	39587	107345	0	0	8098	776359	0	0
2024-05-18 09:38:32			0	33416	0	0	0	20080	18650	152765	27326	977085	39609	107346	0	0	8098	776654	0	0
2024-05-18 09:39:32			0	33438	0	0	0	20090	18660	152765	27019	977093	39609	107350	0	0	8099	775503	0	0
2024-05-18 09:40:32			0	33436	0	0	0	20083	18660	152785	27052	977014	39587	107347	0	0	8099	775603	0	0
2024-05-18 09:41:32			0	33461	0	0	0	20072	18650	152709	27274	977024	39609	107343	0	0	8101	774387	0	0
2024-05-18 09:42:32			0	33464	0	0	0	20096	18660	152633	27345	977093	39609	107352	0	0	8101	774193	0	0
2024-05-18 09:43:32			0	33481	0	0	0	20088	18670	152601	27150	977118	39600	107349	0	0	8102	773296	0	0
2024-05-18 09:44:32			0	33475	0	0	0	20098	18680	152513	27286	977127	39611	107353	0	0	8101	773555	0	0
2024-05-18 09:45:32			0	33466	0	0	0	20090	18680	152465	27460	977161	39600	107350	0	0	8101	774008	0	0
2024-05-18 09:46:32			0	33517	0	0	0	20109	18670	152405	27448	977083	39588	107357	0	0	8104	771488	0	0
2024-05-18 09:47:32			0	33501	0	0	0	20111	18670	152445	27322	977145	39588	107358	0	0	8103	772291	0	0
2024-05-18 09:48:32			0	33522	0	0	0	20103	18680	152237	27379	977206	39588	107355	0	0	8104	771195	0	0
2024-05-18 09:49:32			0	33550	0	0	0	20103	18670	152305	27246	977145	39600	107355	0	0	8106	769834	0	0
2024-05-18 09:50:32			0	33521	0	0	0	20101	18680	152217	27220	977206	39611	107354	0	0	8104	771245	0	0
2024-05-18 09:51:32			0	33546	0	0	0	20111	18690	152221	27320	977223	39590	107358	0	0	8105	769950	0	0
2024-05-18 09:52:32			0	33559	0	0	0	20119	18690	152237	27159	977204	39601	107361	0	0	8106	769299	0	0
2024-05-18 09:53:32			0	33546	0	0	0	20140	18690	152229	27144	977196	39612	107369	0	0	8105	769950	0	0
2024-05-18 09:54:32			0	33560	0	0	0	20119	18700	152185	27232	977266	39601	107361	0	0	8106	769207	0	0
2024-05-18 09:55:32			0	33553	0	0	0	20124	18700	152129	27485	977266	39601	107363	0	0	8106	769557	0	0
2024-05-18 09:56:32			0	33592	0	0	0	20129	18700	152074	27154	977239	39601	107365	0	0	8108	767606	0	0
2024-05-18 09:57:32			0	33586	0	0	0	20129	18700	151998	27227	977195	39602	107365	0	0	8107	767906	0	0
2024-05-18 09:58:32			0	33595	0	0	0	20140	18690	152038	27383	977257	39612	107369	0	0	8108	767498	0	0
2024-05-18 09:59:32			0	33615	0	0	0	20140	18710	151966	27452	977282	39614	107369	0	0	8109	766416	0	0
2024-05-18 10:00:32			0	33613	0	0	0	20140	18710	151906	27441	977282	39603	107369	0	0	8109	766516	0	0
2024-05-18 10:01:32			0	33594	0	0	0	20129	18720	151850	27187	977246	39604	107365	0	0	8108	767422	0	0
2024-05-18 10:02:32			0	33622	0	0	0	20142	18720	151854	27215	977352	39615	107370	0	0	8109	766024	0	0
2024-05-18 10:03:32			0	33635	0	0	0	20166	18720	151810	27424	977360	39615	107379	0	0	8110	765376	0	0
2024-05-18 10:04:32			0	33636	0	0	0	20174	18720	151838	26793	977352	39615	107382	0	0	8110	765326	0	0
2024-05-18 10:05:32			0	33661	0	0	0	20163	18720	151650	27116	977378	39615	107378	0	0	8111	764081	0	0
2024-05-18 10:06:32			0	33663	0	0	0	20176	18730	151690	27178	977395	39616	107383	0	0	8111	763940	0	0
2024-05-18 10:07:32			0	33680	0	0	0	20153	18740	151598	27324	977420	39606	107374	0	0	8113	763052	0	0
2024-05-18 10:08:32			0	33678	0	0	0	20163	18740	151506	27454	977385	39606	107378	0	0	8112	763151	0	0
2024-05-18 10:09:32			0	33677	0	0	0	20181	18730	151526	27204	977377	39617	107385	0	0	8112	763243	0	0
2024-05-18 10:10:32			0	33687	0	0	0	20171	18740	151522	27398	977465	39606	107381	0	0	8113	762704	0	0
2024-05-18 10:11:32			0	33690	0	0	0	20176	18740	151482	27043	977438	39617	107383	0	0	8113	762555	0	0
2024-05-18 10:12:32			0	33704	0	0	0	20186	18750	151406	27265	977543	39619	107387	0	0	8114	761817	0	0
2024-05-18 10:13:32			0	33706	0	0	0	20176	18750	151482	27069	977490	39619	107383	0	0	8114	761718	0	0
2024-05-18 10:14:32			0	33697	0	0	0	20218	18760	151446	27339	977533	39619	107399	0	0	8113	762124	0	0
2024-05-18 10:15:32			0	33723	0	0	0	20194	18760	151310	27713	977524	39629	107390	0	0	8115	760833	0	0
2024-05-18 10:16:32			0	33735	0	0	0	20202	18770	151434	27637	977549	39630	107393	0	0	8115	760196	0	0
2024-05-18 10:17:32			0	33731	0	0	0	20205	18780	151346	27033	977505	39630	107394	0	0	8115	760353	0	0
2024-05-18 10:18:32			0	33734	0	0	0	20207	18770	151318	27126	977567	39608	107395	0	0	8115	760245	0	0
2024-05-18 10:19:32			0	33747	0	0	0	20215	18770	151234	27531	977576	39620	107398	0	0	8116	759601	0	0
2024-05-18 10:20:32			0	33742	0	0	0	20218	18780	151266	27383	977611	39630	107399	0	0	8115	759807	0	0
2024-05-18 10:21:32			0	33747	0	0	0	20215	18770	151142	27261	977629	39620	107398	0	0	8116	759601	0	0
2024-05-18 10:22:32			0	33756	0	0	0	20218	18780	151214	27429	977645	39631	107399	0	0	8116	759114	0	0
2024-05-18 10:23:32			0	33753	0	0	0	20212	18790	151206	27607	977627	39621	107397	0	0	8116	759221	0	0
2024-05-18 10:24:32			0	33762	0	0	0	20218	18780	151206	27112	977592	39610	107399	0	0	8117	758817	0	0
2024-05-18 10:25:32			0	33762	0	0	0	20215	18800	151130	27085	977688	39611	107398	0	0	8117	758733	0	0
2024-05-18 10:26:32			0	33766	0	0	0	20228	18790	151134	27052	977680	39610	107403	0	0	8117	758577	0	0
2024-05-18 10:27:32			0	33765	0	0	0	20238	18800	151170	27407	977715	39622	107407	0	0	8116	758585	0	0
2024-05-18 10:28:32			0	33774	0	0	0	20246	18800	151242	27322	977688	39622	107410	0	0	8117	758140	0	0
2024-05-18 10:29:32			0	33775	0	0	0	20246	18810	151130	27281	977731	39623	107410	0	0	8117	758049	0	0
2024-05-18 10:30:32			0	33778	0	0	0	20254	18820	151050	27760	977775	39624	107413	0	0	8117	757859	0	0
2024-05-18 10:31:32			0	33792	0	0	0	20257	18810	150962	27329	977766	39623	107414	0	0	8118	757208	0	0
2024-05-18 10:32:32			0	33793	0	0	0	20272	18820	150898	27183	977783	39635	107420	0	0	8118	757117	0	0
2024-05-18 10:33:32			0	33812	0	0	0	20275	18820	150946	27403	977775	39634	107421	0	0	8119	756179	0	0
2024-05-18 10:34:32			0	33823	0	0	0	20290	18850	150874	27682	977824	39625	107427	0	0	8119	755512	0	0
2024-05-18 10:35:32			0	33830	0	0	0	20288	18850	150822	27443	977904	39637	107426	0	0	8120	755167	0	0
2024-05-18 10:36:32			0	33848	0	0	0	20283	18850	150770	27156	977877	39625	107424	0	0	8121	754279	0	0
2024-05-18 10:37:32			0	33853	0	0	0	20288	18860	150710	27085	977894	39637	107426	0	0	8121	753992	0	0
2024-05-18 10:38:32			0	33861	0	0	0	20280	18850	150610	27171	977930	39637	107423	0	0	8122	753639	0	0
2024-05-18 10:39:32			0	33870	0	0	0	20290	18850	150590	27436	977877	39637	107427	0	0	8122	753196	0	0
2024-05-18 10:40:32			0	33875	0	0	0	20288	18860	150490	27431	977921	39637	107426	0	0	8122	752909	0	0
2024-05-18 10:41:32			0	33875	0	0	0	20280	18870	150578	27131	977937	39638	107423	0	0	8122	752868	0	0
2024-05-18 10:42:32			0	33865	0	0	0	20309	18870	150570	27079	977937	39638	107434	0	0	8121	753360	0	0
2024-05-18 10:43:32			0	33887	0	0	0	20290	18870	150498	27197	977964	39638	107427	0	0	8123	752278	0	0
2024-05-18 10:44:32			0	33890	0	0	0	20264	18870	150462	27294	977893	39628	107417	0	0	8124	752130	0	0
2024-05-18 10:45:32			0	33897	0	0	0	20290	18870	150522	27492	977964	39617	107427	0	0	8124	751786	0	0
2024-05-18 10:46:32			0	33905	0	0	0	20301	18870	150470	27659	977911	39649	107431	0	0	8124	751393	0	0
2024-05-18 10:47:32			0	33888	0	0	0	20327	18880	150594	27282	978068	39651	107441	0	0	8122	752187	0	0
2024-05-18 10:48:32			0	33899	0	0	0	20342	18880	150358	27535	978060	39639	107447	0	0	8123	751647	0	0
2024-05-18 10:49:32			0	33904	0	0	0	20319	18890	150434	27293	978103	39630	107438	0	0	8124	751360	0	0
2024-05-18 10:50:32			0	33913	0	0	0	20332	18890	150374	27658	978138	39663	107443	0	0	8124	750918	0	0
2024-05-18 10:51:32			0	33923	0	0	0	20327	18900	150346	27300	978154	39642	107441	0	0	8125	750386	0	0
2024-05-18 10:52:32			0	33940	0	0	0	20340	18900	150314	27294	978146	39630	107446	0	0	8125	749553	0	0
2024-05-18 10:53:32			0	33951	0	0	0	20337	18900	150298	27260	978181	39631	107445	0	0	8126	749013	0	0
2024-05-18 10:54:32			0	33938	0	0	0	20335	18910	150190	27265	978171	39643	107444	0	0	8125	749609	0	0
2024-05-18 10:55:32			0	33950	0	0	0	20345	18910	150230	27502	978189	39643	107448	0	0	8126	749021	0	0
2024-05-18 10:56:32			0	33943	0	0	0	20355	18920	150202	27315	978294	39644	107452	0	0	8125	749323	0	0
2024-05-18 10:57:32			0	33952	0	0	0	20340	18930	150178	27307	978222	39644	107446	0	0	8126	748841	0	0
2024-05-18 10:58:32			0	33960	0	0	0	20355	18920	150070	27222	978188	39644	107452	0	0	8126	748491	0	0
2024-05-18 10:59:32			0	33966	0	0	0	20366	18930	150126	27286	978275	39644	107456	0	0	8126	748156	0	0
2024-05-18 11:00:32			0	33988	0	0	0	20361	18920	150078	27448	978267	39644	107454	0	0	8128	747121	0	0
2024-05-18 11:01:32			0	33998	0	0	0	20361	18930	149994	27699	978249	39644	107454	0	0	8128	746591	0	0
2024-05-18 11:02:32			0	34010	0	0	0	20355	18940	149930	27339	978292	39645	107452	0	0	8129	745964	0	0
2024-05-18 11:03:32			0	34000	0	0	0	20340	18930	149886	27407	978257	39644	107446	0	0	8129	746493	0	0
2024-05-18 11:04:32			0	33980	0	0	0	20363	18940	149882	27498	978274	39645	107455	0	0	8127	747430	0	0
2024-05-18 11:05:32			0	33990	0	0	0	20355	18930	150006	27313	978337	39644	107452	0	0	8128	746982	0	0
2024-05-18 11:06:32			0	33982	0	0	0	20374	18950	149926	27694	978282	39646	107459	0	0	8127	747291	0	0
2024-05-18 11:07:32			0	34010	0	0	0	20363	18950	149906	27355	978343	39657	107455	0	0	8129	745923	0	0
2024-05-18 11:08:32			0	34019	0	0	0	20363	18950	149866	27632	978335	39635	107455	0	0	8130	745484	0	0
2024-05-18 11:09:32			0	34020	0	0	0	20358	18960	149854	27602	978352	39647	107453	0	0	8130	745394	0	0
2024-05-18 11:10:32			0	34019	0	0	0	20376	18950	149786	27431	978370	39635	107460	0	0	8129	745484	0	0
2024-05-18 11:11:32			0	34015	0	0	0	20399	18950	149850	27455	978343	39646	107469	0	0	8129	745679	0	0
2024-05-18 11:12:32			0	34037	0	0	0	20405	18970	149850	27436	978448	39659	107471	0	0	8130	744524	0	0
2024-05-18 11:13:32			0	34025	0	0	0	20423	18970	149802	27395	978535	39648	107478	0	0	8129	745109	0	0
2024-05-18 11:14:32			0	34046	0	0	0	20431	18970	149722	27486	978483	39659	107481	0	0	8130	744085	0	0
2024-05-18 11:15:32			0	34049	0	0	0	20449	18980	149662	27400	978579	39650	107488	0	0	8130	743898	0	0
2024-05-18 11:16:32			0	34070	0	0	0	20438	18990	149690	27359	978587	39661	107484	0	0	8132	742835	0	0
2024-05-18 11:17:32			0	34074	0	0	0	20428	18990	149646	27315	978614	39650	107480	0	0	8132	742640	0	0
2024-05-18 11:18:32			0	34083	0	0	0	20412	19000	149506	27317	978586	39640	107474	0	0	8133	742162	0	0
2024-05-18 11:19:32			0	34084	0	0	0	20423	19000	149578	27398	978612	39640	107478	0	0	8133	742113	0	0
2024-05-18 11:20:32			0	34095	0	0	0	20418	19000	149438	27261	978533	39651	107476	0	0	8133	741579	0	0
2024-05-18 11:21:32			0	34107	0	0	0	20415	19000	149494	27476	978612	39651	107475	0	0	8134	740996	0	0
2024-05-18 11:22:32			0	34095	0	0	0	20415	19000	149462	27267	978559	39651	107475	0	0	8133	741579	0	0
2024-05-18 11:23:32			0	34116	0	0	0	20420	19000	149498	27483	978533	39651	107477	0	0	8135	740559	0	0
2024-05-18 11:24:32			0	34100	0	0	0	20402	19010	149362	27301	978576	39641	107470	0	0	8134	741295	0	0
2024-05-18 11:25:32			0	34106	0	0	0	20386	19000	149414	27157	978559	39651	107464	0	0	8135	741044	0	0
2024-05-18 11:26:32			0	34102	0	0	0	20371	19000	149578	27123	978577	39650	107458	0	0	8135	741239	0	0
2024-05-18 11:27:32			0	34073	0	0	0	20379	19000	149578	27196	978559	39640	107461	0	0	8133	742648	0	0
2024-05-18 11:28:32			0	34065	0	0	0	20433	19010	149626	27294	978682	39663	107482	0	0	8131	742997	0	0
2024-05-18 11:29:32			0	34060	0	0	0	20412	19010	149602	27474	978602	39663	107474	0	0	8131	743240	0	0
2024-05-18 11:30:32			0	34091	0	0	0	20425	19010	149706	27199	978594	39662	107479	0	0	8133	741733	0	0
2024-05-18 11:31:32			0	34066	0	0	0	20462	19020	149534	27469	978690	39652	107493	0	0	8131	742908	0	0
2024-05-18 11:32:32			0	34085	0	0	0	20464	19020	149522	27469	978637	39663	107494	0	0	8132	741984	0	0
2024-05-18 11:33:32			0	34110	0	0	0	20410	19030	149394	27135	978733	39654	107473	0	0	8134	740728	0	0
2024-05-18 11:34:32			0	34106	0	0	0	20412	19040	149394	27352	978705	39644	107474	0	0	8134	740882	0	0
2024-05-18 11:35:32			0	34108	0	0	0	20457	19040	149290	27064	978732	39666	107491	0	0	8134	740785	0	0
2024-05-18 11:36:32			0	34116	0	0	0	20454	19040	149378	27187	978811	39655	107490	0	0	8134	740396	0	0
2024-05-18 11:37:32			0	34121	0	0	0	20480	19040	149266	27403	978785	39655	107500	0	0	8134	740154	0	0
2024-05-18 11:38:32			0	34116	0	0	0	20454	19060	149282	27244	978783	39666	107490	0	0	8134	740315	0	0
2024-05-18 11:39:32			0	34125	0	0	0	20457	19050	149302	27286	978854	39656	107491	0	0	8135	739919	0	0
2024-05-18 11:40:32			0	34121	0	0	0	20480	19060	149178	27364	978836	39666	107500	0	0	8134	740073	0	0
2024-05-18 11:41:32			0	34132	0	0	0	20501	19070	149226	27208	978853	39679	107508	0	0	8134	739498	0	0
2024-05-18 11:42:32			0	34141	0	0	0	20459	19070	149206	27313	978887	39657	107492	0	0	8136	739062	0	0
2024-05-18 11:43:32			0	34135	0	0	0	20483	19070	149158	27317	978906	39657	107501	0	0	8135	739353	0	0
2024-05-18 11:44:32			0	34139	0	0	0	20451	19070	149194	27303	978853	39646	107489	0	0	8136	739159	0	0
2024-05-18 11:45:32			0	34130	0	0	0	20457	19070	149158	27308	978861	39668	107491	0	0	8135	739595	0	0
2024-05-18 11:46:32			0	34125	0	0	0	20480	19080	149178	26857	978896	39657	107500	0	0	8134	739797	0	0
2024-05-18 11:47:32			0	34124	0	0	0	20509	19070	149174	26975	978861	39668	107511	0	0	8134	739886	0	0
2024-05-18 11:48:32			0	34135	0	0	0	20542	19080	149186	27282	978949	39657	107524	0	0	8134	739312	0	0
2024-05-18 11:49:32			0	34147	0	0	0	20537	19090	148998	27255	978965	39669	107522	0	0	8135	738690	0	0
2024-05-18 11:50:32			0	34182	0	0	0	20542	19100	148954	27379	979035	39660	107524	0	0	8137	736956	0	0
2024-05-18 11:51:32			0	34191	0	0	0	20522	19110	148850	27467	979078	39671	107516	0	0	8138	736480	0	0
2024-05-18 11:52:32			0	34199	0	0	0	20509	19110	148782	27417	979078	39671	107511	0	0	8138	736094	0	0
2024-05-18 11:53:32			0	34216	0	0	0	20503	19110	148866	27348	979025	39682	107509	0	0	8139	735273	0	0
2024-05-18 11:54:32			0	34189	0	0	0	20527	19110	148830	27421	979052	39671	107518	0	0	8137	736577	0	0
2024-05-18 11:55:32			0	34205	0	0	0	20553	19120	148974	27419	979068	39672	107528	0	0	8138	735764	0	0
2024-05-18 11:56:32			0	34227	0	0	0	20545	19120	148742	27370	979068	39662	107525	0	0	8139	734702	0	0
2024-05-18 11:57:32			0	34232	0	0	0	20555	19130	148678	27568	979130	39672	107529	0	0	8139	734420	0	0
2024-05-18 11:58:32			0	34241	0	0	0	20571	19130	148722	27104	979138	39663	107535	0	0	8140	733986	0	0
2024-05-18 11:59:32			0	34261	0	0	0	20589	19130	148702	27360	979165	39673	107542	0	0	8141	733023	0	0
2024-05-18 12:00:32			0	34248	0	0	0	20607	19150	148626	27078	979243	39664	107549	0	0	8140	733569	0	0
2024-05-18 12:01:32			0	34269	0	0	0	20623	19140	148558	27097	979287	39674	107555	0	0	8140	732597	0	0
2024-05-18 12:02:32			0	34266	0	0	0	20620	19150	148498	27079	979277	39675	107554	0	0	8140	732702	0	0
2024-05-18 12:03:32			0	34284	0	0	0	20581	19170	148426	27277	979435	39666	107539	0	0	8142	731755	0	0
2024-05-18 12:04:32			0	34283	0	0	0	20574	19180	148338	27656	979354	39667	107536	0	0	8142	731763	0	0
2024-05-18 12:05:32			0	34283	0	0	0	20537	19180	148322	27478	979319	39677	107522	0	0	8143	731763	0	0
2024-05-18 12:06:32			0	34291	0	0	0	20576	19190	148550	27594	979388	39667	107537	0	0	8143	731339	0	0
2024-05-18 12:07:32			0	34262	0	0	0	20599	19190	148610	27407	979336	39678	107546	0	0	8141	732733	0	0
2024-05-18 12:08:32			0	34262	0	0	0	20638	19190	148642	27216	979362	39667	107561	0	0	8140	732733	0	0
2024-05-18 12:09:32			0	34274	0	0	0	20638	19190	148502	27296	979423	39689	107561	0	0	8141	732156	0	0
2024-05-18 12:10:32			0	34303	0	0	0	20651	19210	148382	27390	979457	39691	107566	0	0	8142	730682	0	0
2024-05-18 12:11:32			0	34317	0	0	0	20646	19210	148358	27325	979457	39691	107564	0	0	8143	730010	0	0
2024-05-18 12:12:32			0	34313	0	0	0	20657	19220	148334	27277	979518	39692	107568	0	0	8143	730162	0	0
2024-05-18 12:13:32			0	34336	0	0	0	20599	19220	148250	27055	979544	39692	107546	0	0	8145	729058	0	0
2024-05-18 12:14:32			0	34337	0	0	0	20628	19210	148118	27338	979457	39691	107557	0	0	8145	729050	0	0
2024-05-18 12:15:32			0	34333	0	0	0	20667	19220	148274	27039	979526	39682	107572	0	0	8144	729202	0	0
2024-05-18 12:16:32			0	34348	0	0	0	20659	19220	148230	27313	979447	39682	107569	0	0	8145	728483	0	0
2024-05-18 12:17:32			0	34344	0	0	0	20641	19230	148206	27130	979570	39694	107562	0	0	8145	728635	0	0
2024-05-18 12:18:32			0	34354	0	0	0	20672	19230	148111	27265	979535	39705	107574	0	0	8145	728156	0	0
2024-05-18 12:19:32			0	34372	0	0	0	20664	19250	148083	27237	979674	39684	107571	0	0	8146	727214	0	0
2024-05-18 12:20:32			0	34388	0	0	0	20683	19250	148023	27202	979709	39684	107578	0	0	8147	726449	0	0
2024-05-18 12:21:32			0	34369	0	0	0	20701	19250	147999	27029	979682	39684	107585	0	0	8145	727358	0	0
2024-05-18 12:22:32			0	34384	0	0	0	20698	19260	147963	27045	979752	39674	107584	0	0	8146	726600	0	0
2024-05-18 12:23:32			0	34425	0	0	0	20633	19260	147815	27038	979699	39696	107559	0	0	8150	724642	0	0
2024-05-18 12:24:32			0	34418	0	0	0	20594	19250	147763	27241	979603	39673	107544	0	0	8150	725016	0	0
2024-05-18 12:25:32			0	34425	0	0	0	20592	19260	147815	27396	979646	39674	107543	0	0	8150	724642	0	0
2024-05-18 12:26:32			0	34364	0	0	0	20605	19260	147983	27024	979638	39684	107548	0	0	8147	727557	0	0
2024-05-18 12:27:32			0	34367	0	0	0	20558	19260	148059	26850	979585	39684	107530	0	0	8148	727413	0	0
2024-05-18 12:28:32			0	34357	0	0	0	20628	19250	148151	27196	979523	39684	107557	0	0	8146	727932	0	0
2024-05-18 12:29:32			0	34305	0	0	0	20737	19250	148394	26928	979629	39684	107599	0	0	8141	730425	0	0
2024-05-18 12:30:32			0	34312	0	0	0	20781	19270	148418	27180	979787	39697	107616	0	0	8141	730009	0	0
2024-05-18 12:31:32			0	34353	0	0	0	20763	19280	148279	27433	979856	39697	107609	0	0	8143	728004	0	0
2024-05-18 12:32:32			0	34377	0	0	0	20729	19290	148143	26944	979873	39699	107596	0	0	8145	726815	0	0
2024-05-18 12:33:32			0	34395	0	0	0	20615	19300	147967	27060	979845	39700	107552	0	0	8148	725915	0	0
2024-05-18 12:34:32			0	34419	0	0	0	20561	19290	147803	27007	979669	39689	107531	0	0	8151	724809	0	0
2024-05-18 12:35:32			0	34363	0	0	0	20561	19270	148015	27190	979583	39665	107531	0	0	8147	727565	0	0
2024-05-18 12:36:32			0	34315	0	0	0	20532	19260	148210	27272	979514	39674	107520	0	0	8145	729905	0	0
2024-05-18 12:37:32			0	34298	0	0	0	20574	19260	148354	27429	979505	39673	107536	0	0	8143	730721	0	0
2024-05-18 12:38:32			0	34252	0	0	0	20568	19240	148626	27454	979533	39683	107534	0	0	8141	733014	0	0
2024-05-18 12:39:32			0	34219	0	0	0	20610	19250	148666	27171	979595	39684	107550	0	0	8138	734563	0	0
2024-05-18 12:40:32			0	34220	0	0	0	20555	19250	148610	27234	979568	39684	107529	0	0	8139	734515	0	0
2024-05-18 12:41:32			0	34217	0	0	0	20558	19250	148566	27312	979603	39673	107530	0	0	8139	734660	0	0
2024-05-18 12:42:32			0	34204	0	0	0	20537	19250	148678	27452	979542	39684	107522	0	0	8139	735287	0	0
2024-05-18 12:43:32			0	34184	0	0	0	20558	19240	148838	27308	979507	39683	107530	0	0	8137	736293	0	0
2024-05-18 12:44:32			0	34173	0	0	0	20558	19240	148790	27024	979445	39671	107530	0	0	8137	736825	0	0
2024-05-18 12:45:32			0	34160	0	0	0	20537	19240	148986	27303	979445	39682	107522	0	0	8136	737453	0	0
2024-05-18 12:46:32			0	34160	0	0	0	20558	19240	149066	27450	979472	39671	107530	0	0	8136	737453	0	0
2024-05-18 12:47:32			0	34151	0	0	0	20566	19230	149070	27178	979402	39671	107533	0	0	8135	737929	0	0
2024-05-18 12:48:32			0	34127	0	0	0	20576	19230	149090	27121	979455	39671	107537	0	0	8134	739092	0	0
2024-05-18 12:49:32			0	34147	0	0	0	20641	19230	149098	27175	979490	39682	107562	0	0	8134	738123	0	0
2024-05-18 12:50:32			0	34138	0	0	0	20597	19230	149082	27338	979570	39682	107545	0	0	8134	738559	0	0
2024-05-18 12:51:32			0	34172	0	0	0	20599	19240	148942	27192	979507	39683	107546	0	0	8136	736873	0	0
2024-05-18 12:52:32			0	34173	0	0	0	20602	19230	148950	27069	979596	39671	107547	0	0	8136	736865	0	0
2024-05-18 12:53:32			0	34167	0	0	0	20597	19240	148942	27170	979525	39671	107545	0	0	8136	737115	0	0
2024-05-18 12:54:32			0	34164	0	0	0	20636	19240	148870	27369	979551	39671	107560	0	0	8135	737260	0	0
2024-05-18 12:55:32			0	34168	0	0	0	20657	19240	148922	27355	979578	39682	107568	0	0	8135	737066	0	0
2024-05-18 12:56:32			0	34188	0	0	0	20623	19250	148874	27126	979576	39684	107555	0	0	8136	736060	0	0
2024-05-18 12:57:32			0	34194	0	0	0	20693	19250	148774	27497	979603	39684	107582	0	0	8136	735770	0	0
2024-05-18 12:58:32			0	34211	0	0	0	20628	19250	148818	27338	979709	39695	107557	0	0	8138	734949	0	0
2024-05-18 12:59:32			0	34196	0	0	0	20610	19250	148594	27253	979629	39663	107550	0	0	8137	735673	0	0
2024-05-18 13:00:32			0	34236	0	0	0	20584	19250	148594	27116	979629	39684	107540	0	0	8140	733744	0	0
2024-05-18 13:01:32			0	34215	0	0	0	20597	19250	148666	27436	979621	39673	107545	0	0	8138	734756	0	0
2024-05-18 13:02:32			0	34215	0	0	0	20638	19260	148654	27317	979717	39684	107561	0	0	8138	734716	0	0
2024-05-18 13:03:32			0	34211	0	0	0	20683	19260	148702	27296	979664	39673	107578	0	0	8137	734909	0	0
2024-05-18 13:04:32			0	34241	0	0	0	20646	19270	148566	27438	979734	39675	107564	0	0	8139	733422	0	0
2024-05-18 13:05:32			0	34235	0	0	0	20672	19270	148590	27022	979822	39686	107574	0	0	8138	733712	0	0
2024-05-18 13:06:32			0	34248	0	0	0	20672	19280	148582	27301	979785	39687	107574	0	0	8139	733045	0	0
2024-05-18 13:07:32			0	34261	0	0	0	20623	19270	148498	27296	979689	39686	107555	0	0	8141	732460	0	0
2024-05-18 13:08:32			0	34278	0	0	0	20615	19280	148418	27358	979750	39675	107552	0	0	8142	731602	0	0
2024-05-18 13:09:32			0	34270	0	0	0	20618	19260	148458	27331	979646	39685	107553	0	0	8141	732067	0	0
2024-05-18 13:10:32			0	34251	0	0	0	20623	19280	148486	27291	979626	39654	107555	0	0	8140	732901	0	0
2024-05-18 13:11:32			0	34247	0	0	0	20620	19280	148542	27192	979618	39675	107554	0	0	8140	733093	0	0
2024-05-18 13:12:32			0	34252	0	0	0	20615	19270	148462	27206	979663	39675	107552	0	0	8140	732893	0	0
2024-05-18 13:13:32			0	34254	0	0	0	20605	19270	148490	27104	979636	39675	107548	0	0	8141	732797	0	0
2024-05-18 13:14:32			0	34232	0	0	0	20625	19260	148546	27313	979673	39685	107556	0	0	8139	733896	0	0
2024-05-18 13:15:32			0	34224	0	0	0	20615	19270	148542	27287	979734	39675	107552	0	0	8139	734242	0	0
2024-05-18 13:16:32			0	34235	0	0	0	20615	19270	148614	27614	979583	39686	107552	0	0	8139	733712	0	0
2024-05-18 13:17:32			0	34229	0	0	0	20625	19260	148762	27403	979673	39685	107556	0	0	8139	734041	0	0
2024-05-18 13:18:32			0	34239	0	0	0	20618	19250	148654	27653	979576	39673	107553	0	0	8139	733600	0	0
2024-05-18 13:19:32			0	34212	0	0	0	20612	19260	148610	27267	979646	39674	107551	0	0	8138	734861	0	0
2024-05-18 13:20:32			0	34224	0	0	0	20615	19250	148710	27286	979576	39663	107552	0	0	8139	734322	0	0
2024-05-18 13:21:32			0	34226	0	0	0	20599	19250	148658	27395	979621	39673	107546	0	0	8139	734226	0	0
2024-05-18 13:22:32			0	34222	0	0	0	20623	19250	148722	27679	979576	39695	107555	0	0	8138	734419	0	0
2024-05-18 13:23:32			0	34200	0	0	0	20607	19240	148782	27717	979533	39672	107549	0	0	8137	735520	0	0
2024-05-18 13:24:32			0	34209	0	0	0	20607	19240	148750	27497	979586	39672	107549	0	0	8138	735086	0	0
2024-05-18 13:25:32			0	34198	0	0	0	20594	19250	148726	27481	979568	39684	107544	0	0	8137	735577	0	0
2024-05-18 13:26:32			0	34210	0	0	0	20589	19240	148794	27666	979533	39683	107542	0	0	8138	735038	0	0
2024-05-18 13:27:32			0	34180	0	0	0	20584	19240	148890	27307	979525	39671	107540	0	0	8137	736486	0	0
2024-05-18 13:28:32			0	34177	0	0	0	20576	19230	148906	27454	979429	39671	107537	0	0	8136	736672	0	0
2024-05-18 13:29:32			0	34162	0	0	0	20566	19230	148970	27138	979437	39671	107533	0	0	8136	737397	0	0
2024-05-18 13:30:32			0	34162	0	0	0	20561	19240	148974	27088	979445	39671	107531	0	0	8136	737357	0	0
2024-05-18 13:31:32			0	34148	0	0	0	20594	19230	149074	27258	979429	39682	107544	0	0	8134	738075	0	0
2024-05-18 13:32:32			0	34150	0	0	0	20586	19230	149066	27757	979508	39682	107541	0	0	8135	737978	0	0
2024-05-18 13:33:32			0	34155	0	0	0	20561	19230	148978	27699	979455	39694	107531	0	0	8135	737736	0	0
2024-05-18 13:34:32			0	34141	0	0	0	20568	19220	149074	27426	979420	39682	107534	0	0	8134	738454	0	0
2024-05-18 13:35:32			0	34138	0	0	0	20558	19220	149082	27312	979385	39659	107530	0	0	8134	738599	0	0
2024-05-18 13:36:32			0	34143	0	0	0	20548	19210	149106	27398	979369	39658	107526	0	0	8135	738398	0	0
2024-05-18 13:37:32			0	34139	0	0	0	20529	19210	149038	27531	979377	39680	107519	0	0	8135	738591	0	0
2024-05-18 13:38:32			0	34144	0	0	0	20540	19210	149118	27395	979369	39669	107523	0	0	8135	738349	0	0
2024-05-18 13:39:32			0	34113	0	0	0	20540	19210	149170	27332	979342	39669	107523	0	0	8133	739852	0	0
2024-05-18 13:40:32			0	34122	0	0	0	20553	19190	149174	27710	979230	39678	107528	0	0	8134	739496	0	0
2024-05-18 13:41:32			0	34122	0	0	0	20558	19200	149202	27632	979273	39658	107530	0	0	8133	739456	0	0
2024-05-18 13:42:32			0	34110	0	0	0	20571	19190	149198	27516	979370	39657	107535	0	0	8133	740078	0	0
2024-05-18 13:43:32			0	34125	0	0	0	20561	19200	149178	27594	979326	39668	107531	0	0	8134	739310	0	0
2024-05-18 13:44:32			0	34145	0	0	0	20574	19190	149126	27535	979423	39678	107536	0	0	8134	738382	0	0
2024-05-18 13:45:32			0	34137	0	0	0	20597	19200	149066	27680	979405	39679	107545	0	0	8134	738729	0	0
2024-05-18 13:46:32			0	34142	0	0	0	20576	19200	149058	27575	979440	39691	107537	0	0	8134	738487	0	0
2024-05-18 13:47:32			0	34155	0	0	0	20576	19210	149110	27652	979448	39658	107537	0	0	8135	737817	0	0
2024-05-18 13:48:32			0	34157	0	0	0	20566	19210	148942	27561	979404	39680	107533	0	0	8135	737720	0	0
2024-05-18 13:49:32			0	34164	0	0	0	20571	19210	148946	27428	979377	39669	107535	0	0	8136	737381	0	0
2024-05-18 13:50:32			0	34165	0	0	0	20571	19200	148998	27369	979379	39668	107535	0	0	8136	737373	0	0
2024-05-18 13:51:32			0	34172	0	0	0	20571	19200	149038	27336	979387	39680	107535	0	0	8136	737035	0	0
2024-05-18 13:52:32			0	34144	0	0	0	20537	19200	149050	27386	979326	39658	107522	0	0	8135	738390	0	0
2024-05-18 13:53:32			0	34173	0	0	0	20571	19200	149050	27606	979360	39680	107535	0	0	8136	736987	0	0
2024-05-18 13:54:32			0	34146	0	0	0	20550	19210	149074	27352	979369	39669	107527	0	0	8135	738252	0	0
2024-05-18 13:55:32			0	34141	0	0	0	20574	19200	148982	27618	979413	39669	107536	0	0	8134	738535	0	0
2024-05-18 13:56:32			0	34144	0	0	0	20662	19200	149150	27582	979466	39680	107570	0	0	8133	738390	0	0
2024-05-18 13:57:32			0	34139	0	0	0	20672	19210	149154	27229	979528	39680	107574	0	0	8133	738591	0	0
2024-05-18 13:58:32			0	34160	0	0	0	20727	19210	148974	27227	979722	39691	107595	0	0	8133	737575	0	0
2024-05-18 13:59:32			0	34140	0	0	0	20729	19250	148958	27672	979807	39684	107596	0	0	8132	738381	0	0
2024-05-18 14:00:32			0	34189	0	0	0	20781	19260	148938	27241	979929	39695	107616	0	0	8134	735971	0	0
2024-05-18 14:01:32			0	34215	0	0	0	20792	19270	148734	27417	979999	39708	107620	0	0	8135	734676	0	0
2024-05-18 14:02:32			0	34228	0	0	0	20805	19290	148558	27421	980093	39710	107625	0	0	8136	733968	0	0
2024-05-18 14:03:32			0	34262	0	0	0	20818	19320	148530	27289	980108	39712	107630	0	0	8138	732210	0	0
2024-05-18 14:04:32			0	34286	0	0	0	20810	19320	148534	27571	980196	39712	107627	0	0	8139	731057	0	0
2024-05-18 14:05:32			0	34304	0	0	0	20844	19330	148466	27438	980186	39703	107640	0	0	8140	730152	0	0
2024-05-18 14:06:32			0	34326	0	0	0	20831	19350	148258	27398	980291	39714	107635	0	0	8141	729017	0	0
2024-05-18 14:07:32			0	34337	0	0	0	20867	19360	148230	27429	980361	39694	107649	0	0	8141	728450	0	0
2024-05-18 14:08:32			0	34355	0	0	0	20859	19380	148111	27258	980394	39708	107646	0	0	8142	727508	0	0
2024-05-18 14:09:32			0	34368	0	0	0	20864	19390	148007	27576	980456	39696	107648	0	0	8143	726846	0	0
2024-05-18 14:10:32			0	34350	0	0	0	20906	19400	148067	27495	980507	39708	107664	0	0	8141	727668	0	0
2024-05-18 14:11:32			0	34374	0	0	0	20890	19410	148063	27377	980524	39720	107658	0	0	8143	726480	0	0
2024-05-18 14:12:32			0	34371	0	0	0	20911	19420	147983	27222	980532	39720	107666	0	0	8143	726583	0	0
2024-05-18 14:13:32			0	34384	0	0	0	20922	19440	147939	27557	980618	39722	107670	0	0	8143	725882	0	0
2024-05-18 14:14:32			0	34401	0	0	0	20981	19440	147811	27164	980759	39712	107693	0	0	8143	725070	0	0
2024-05-18 14:15:32			0	34435	0	0	0	20963	19470	147779	27284	980827	39747	107686	0	0	8146	723330	0	0
2024-05-18 14:16:32			0	34466	0	0	0	20963	19480	147567	27471	980765	39737	107686	0	0	8147	721814	0	0
2024-05-18 14:17:32			0	34493	0	0	0	20963	19490	147383	27386	980834	39716	107686	0	0	8149	720492	0	0
2024-05-18 14:18:32			0	34490	0	0	0	20981	19510	147439	27130	980894	39729	107693	0	0	8149	720555	0	0
2024-05-18 14:19:32			0	34491	0	0	0	21012	19520	147431	27102	981017	39730	107705	0	0	8148	720468	0	0
2024-05-18 14:20:32			0	34512	0	0	0	20986	19530	147371	27353	981007	39720	107695	0	0	8150	719431	0	0
2024-05-18 14:21:32			0	34519	0	0	0	20997	19540	147163	27400	981005	39732	107699	0	0	8150	719060	0	0
2024-05-18 14:22:32			0	34549	0	0	0	21020	19550	147063	27277	981022	39744	107708	0	0	8151	717599	0	0
2024-05-18 14:23:32			0	34564	0	0	0	21051	19560	147031	27350	981092	39734	107720	0	0	8152	716850	0	0
2024-05-18 14:24:32			0	34587	0	0	0	21036	19560	146935	27647	981145	39723	107714	0	0	8153	715763	0	0
2024-05-18 14:25:32			0	34590	0	0	0	21080	19580	146935	27609	981231	39747	107731	0	0	8153	715542	0	0
2024-05-18 14:26:32			0	34611	0	0	0	21080	19590	146867	26982	981301	39737	107731	0	0	8154	714511	0	0
2024-05-18 14:27:32			0	34622	0	0	0	21070	19610	146783	27595	981353	39750	107727	0	0	8155	713914	0	0
2024-05-18 14:28:32			0	34649	0	0	0	21064	19620	146691	27300	981343	39750	107725	0	0	8157	712603	0	0
2024-05-18 14:29:32			0	34651	0	0	0	21137	19620	146679	27296	981431	39761	107753	0	0	8155	712508	0	0
2024-05-18 14:30:32			0	34654	0	0	0	21148	19640	146675	27353	981491	39763	107757	0	0	8156	712289	0	0
2024-05-18 14:31:32			0	34697	0	0	0	21166	19650	146515	27390	981640	39742	107764	0	0	8158	710228	0	0
2024-05-18 14:32:32			0	34732	0	0	0	21109	19670	146363	27614	981577	39753	107742	0	0	8161	708508	0	0
2024-05-18 14:33:32			0	34744	0	0	0	21119	19670	146291	27277	981604	39743	107746	0	0	8161	707946	0	0
2024-05-18 14:34:32			0	34746	0	0	0	21116	19690	146291	27251	981610	39755	107745	0	0	8161	707774	0	0
2024-05-18 14:35:32			0	34762	0	0	0	21103	19690	146147	27239	981584	39745	107740	0	0	8163	707025	0	0
2024-05-18 14:36:32			0	34730	0	0	0	21077	19700	146199	27469	981548	39747	107730	0	0	8161	708485	0	0
2024-05-18 14:37:32			0	34740	0	0	0	21106	19690	146247	27305	981610	39734	107741	0	0	8161	708055	0	0
2024-05-18 14:38:32			0	34711	0	0	0	21109	19710	146251	27575	981644	39735	107742	0	0	8160	709337	0	0
2024-05-18 14:39:32			0	34699	0	0	0	21124	19690	146379	27104	981592	39734	107748	0	0	8159	709978	0	0
2024-05-18 14:40:32			0	34682	0	0	0	21135	19710	146471	27530	981732	39747	107752	0	0	8158	710698	0	0
2024-05-18 14:41:32			0	34682	0	0	0	21135	19710	146419	27173	981652	39747	107752	0	0	8158	710698	0	0
2024-05-18 14:42:32			0	34686	0	0	0	21168	19710	146451	27331	981785	39747	107765	0	0	8157	710510	0	0
2024-05-18 14:43:32			0	34688	0	0	0	21171	19730	146407	27654	981810	39748	107766	0	0	8157	710338	0	0
2024-05-18 14:44:32			0	34689	0	0	0	21150	19740	146379	27358	981800	39760	107758	0	0	8158	710252	0	0
2024-05-18 14:45:32			0	34722	0	0	0	21145	19740	146267	27533	981800	39750	107756	0	0	8160	708704	0	0
2024-05-18 14:46:32			0	34714	0	0	0	21142	19740	146323	27530	981782	39750	107755	0	0	8159	709079	0	0
2024-05-18 14:47:32			0	34722	0	0	0	21153	19750	146251	27490	981817	39750	107759	0	0	8160	708665	0	0
2024-05-18 14:48:32			0	34723	0	0	0	21158	19750	146415	27228	981931	39750	107761	0	0	8160	708618	0	0
2024-05-18 14:49:32			0	34709	0	0	0	21174	19750	146299	27242	981870	39750	107767	0	0	8159	709274	0	0
2024-05-18 14:50:32			0	34714	0	0	0	21153	19760	146311	27367	981913	39762	107759	0	0	8159	709001	0	0
2024-05-18 14:51:32			0	34714	0	0	0	21168	19760	146243	27209	981860	39751	107765	0	0	8159	709001	0	0
2024-05-18 14:52:32			0	34719	0	0	0	21161	19750	146191	27490	981931	39750	107762	0	0	8159	708805	0	0
2024-05-18 14:53:32			0	34713	0	0	0	21171	19770	146331	27402	981930	39752	107766	0	0	8159	709009	0	0
2024-05-18 14:54:32			0	34721	0	0	0	21179	19760	146271	27479	981974	39752	107769	0	0	8159	708673	0	0
2024-05-18 14:55:32			0	34706	0	0	0	21137	19770	146311	27306	981930	39741	107753	0	0	8159	709337	0	0
2024-05-18 14:56:32			0	34706	0	0	0	21129	19770	146303	27459	981938	39752	107750	0	0	8159	709337	0	0
2024-05-18 14:57:32			0	34707	0	0	0	21140	19770	146271	27500	981858	39752	107754	0	0	8159	709290	0	0
2024-05-18 14:58:32			0	34717	0	0	0	21142	19750	146271	27381	981825	39750	107755	0	0	8160	708899	0	0
2024-05-18 14:59:32			0	34725	0	0	0	21158	19770	146323	27034	981903	39752	107761	0	0	8160	708446	0	0
2024-05-18 15:00:32			0	34708	0	0	0	21161	19770	146303	27241	981930	39752	107762	0	0	8159	709243	0	0
2024-05-18 15:01:32			0	34714	0	0	0	21158	19770	146315	27197	981938	39763	107761	0	0	8159	708962	0	0
2024-05-18 15:02:32			0	34729	0	0	0	21153	19780	146239	27175	981946	39753	107759	0	0	8160	708220	0	0
2024-05-18 15:03:32			0	34703	0	0	0	21163	19780	146327	27429	981920	39753	107763	0	0	8159	709439	0	0
2024-05-18 15:04:32			0	34722	0	0	0	21197	19780	146323	27450	981946	39753	107776	0	0	8159	708548	0	0
2024-05-18 15:05:32			0	34718	0	0	0	21192	19790	146243	27365	981989	39753	107774	0	0	8159	708696	0	0
2024-05-18 15:06:32			0	34710	0	0	0	21241	19790	146291	27022	982122	39753	107793	0	0	8158	709071	0	0
2024-05-18 15:07:32			0	34746	0	0	0	21199	19800	146127	27367	982121	39766	107777	0	0	8161	707346	0	0
2024-05-18 15:08:32			0	34754	0	0	0	21223	19800	146123	27098	982147	39766	107786	0	0	8161	706971	0	0
2024-05-18 15:09:32			0	34729	0	0	0	21205	19810	146099	27072	982129	39756	107779	0	0	8160	708103	0	0
2024-05-18 15:10:32			0	34755	0	0	0	21199	19810	146003	27377	982164	39746	107777	0	0	8161	706885	0	0
2024-05-18 15:11:32			0	34753	0	0	0	21207	19810	145967	27109	982164	39756	107780	0	0	8161	706979	0	0
2024-05-18 15:12:32			0	34756	0	0	0	21184	19840	146027	27180	982205	39758	107771	0	0	8162	706722	0	0
2024-05-18 15:13:32			0	34765	0	0	0	21148	19840	145867	27185	982152	39758	107757	0	0	8163	706301	0	0
2024-05-18 15:14:32			0	34802	0	0	0	21142	19820	145911	27036	982101	39747	107755	0	0	8165	704651	0	0
2024-05-18 15:15:32			0	34807	0	0	0	21153	19830	145867	27074	982091	39747	107759	0	0	8165	704378	0	0
2024-05-18 15:16:32			0	34782	0	0	0	21210	19820	146011	27149	982039	39746	107781	0	0	8162	705584	0	0
2024-05-18 15:17:32			0	34775	0	0	0	21205	19810	146055	27341	982164	39756	107779	0	0	8162	705950	0	0
2024-05-18 15:18:32			0	34754	0	0	0	21184	19810	146067	27260	982137	39767	107771	0	0	8161	706932	0	0
2024-05-18 15:19:32			0	34792	0	0	0	21194	19820	145903	27320	982180	39768	107775	0	0	8163	705117	0	0
2024-05-18 15:20:32			0	34772	0	0	0	21187	19830	145975	27384	982197	39747	107772	0	0	8162	706013	0	0
2024-05-18 15:21:32			0	34766	0	0	0	21174	19830	146079	27618	982162	39758	107767	0	0	8162	706293	0	0
2024-05-18 15:22:32			0	34746	0	0	0	21153	19830	146023	27424	982118	39747	107759	0	0	8161	707229	0	0
2024-05-18 15:23:32			0	34755	0	0	0	21184	19830	146087	27452	982144	39769	107771	0	0	8161	706808	0	0
2024-05-18 15:24:32			0	34745	0	0	0	21220	19820	146243	27460	982207	39779	107785	0	0	8160	707314	0	0
2024-05-18 15:25:32			0	34744	0	0	0	21215	19840	146139	27343	982188	39748	107783	0	0	8160	707283	0	0
2024-05-18 15:26:32			0	34732	0	0	0	21161	19830	146147	27606	982171	39758	107762	0	0	8161	707884	0	0
2024-05-18 15:27:32			0	34758	0	0	0	21142	19840	146043	27341	982179	39758	107755	0	0	8162	706628	0	0
2024-05-18 15:28:32			0	34750	0	0	0	21223	19840	146007	27260	982179	39747	107786	0	0	8161	707003	0	0
2024-05-18 15:29:32			0	34742	0	0	0	21187	19840	146115	27455	982232	39780	107772	0	0	8161	707377	0	0
2024-05-18 15:30:32			0	34763	0	0	0	21168	19850	146047	27499	982222	39759	107765	0	0	8162	706356	0	0
2024-05-18 15:31:32			0	34748	0	0	0	21205	19850	146091	27455	982275	39749	107779	0	0	8161	707057	0	0
2024-05-18 15:32:32			0	34752	0	0	0	21184	19840	146015	27305	982179	39747	107771	0	0	8161	706909	0	0
2024-05-18 15:33:32			0	34747	0	0	0	21197	19840	145987	27213	982214	39759	107776	0	0	8161	707143	0	0
2024-05-18 15:34:32			0	34765	0	0	0	21168	19830	145983	27699	982224	39758	107765	0	0	8162	706340	0	0
2024-05-18 15:35:32			0	34757	0	0	0	21225	19840	146083	27402	982214	39770	107787	0	0	8161	706675	0	0
2024-05-18 15:36:32			0	34740	0	0	0	21220	19850	146167	27187	982275	39759	107785	0	0	8160	707431	0	0
2024-05-18 15:37:32			0	34765	0	0	0	21210	19850	146051	27675	982257	39771	107781	0	0	8162	706262	0	0
2024-05-18 15:38:32			0	34764	0	0	0	21189	19850	145971	27488	982310	39749	107773	0	0	8162	706309	0	0
2024-05-18 15:39:32			0	34760	0	0	0	21179	19850	145947	27260	982178	39759	107769	0	0	8162	706496	0	0
2024-05-18 15:40:32			0	34779	0	0	0	21150	19850	145959	27417	982231	39759	107758	0	0	8163	705608	0	0
2024-05-18 15:41:32			0	34757	0	0	0	21140	19840	145895	27255	982214	39748	107754	0	0	8162	706675	0	0
2024-05-18 15:42:32			0	34779	0	0	0	21129	19850	145959	27670	982125	39749	107750	0	0	8164	705608	0	0
2024-05-18 15:43:32			0	34768	0	0	0	21132	19830	145991	27575	982136	39736	107751	0	0	8163	706200	0	0
2024-05-18 15:44:32			0	34752	0	0	0	21171	19820	145975	27435	982074	39747	107766	0	0	8161	706987	0	0
2024-05-18 15:45:32			0	34753	0	0	0	21145	19830	145999	27225	982118	39747	107756	0	0	8162	706901	0	0
2024-05-18 15:46:32			0	34769	0	0	0	21148	19820	145875	27518	982066	39746	107757	0	0	8163	706192	0	0
2024-05-18 15:47:32			0	34785	0	0	0	21116	19810	145883	27296	982023	39746	107745	0	0	8164	705483	0	0
2024-05-18 15:48:32			0	34753	0	0	0	21150	19810	145967	27417	982084	39756	107758	0	0	8162	706979	0	0
2024-05-18 15:49:32			0	34741	0	0	0	21127	19810	146071	27251	982058	39746	107749	0	0	8162	707541	0	0
2024-05-18 15:50:32			0	34740	0	0	0	21114	19810	146031	27556	982049	39756	107744	0	0	8162	707587	0	0
2024-05-18 15:51:32			0	34742	0	0	0	21085	19800	146023	27402	981988	39755	107733	0	0	8162	707533	0	0
2024-05-18 15:52:32			0	34734	0	0	0	21077	19800	146015	27267	981953	39744	107730	0	0	8162	707907	0	0
2024-05-18 15:53:32			0	34729	0	0	0	21064	19790	146087	27435	981857	39743	107725	0	0	8162	708181	0	0
2024-05-18 15:54:32			0	34714	0	0	0	21070	19780	146155	27455	981867	39753	107727	0	0	8161	708923	0	0
2024-05-18 15:55:32			0	34688	0	0	0	21072	19770	146327	27333	981858	39741	107728	0	0	8159	710182	0	0
2024-05-18 15:56:32			0	34680	0	0	0	21059	19760	146259	27208	981868	39741	107723	0	0	8159	710596	0	0
2024-05-18 15:57:32			0	34667	0	0	0	21075	19760	146391	27441	981842	39741	107729	0	0	8158	711207	0	0
2024-05-18 15:58:32			0	34661	0	0	0	21077	19760	146311	27225	981780	39718	107730	0	0	8158	711489	0	0
2024-05-18 15:59:32			0	34650	0	0	0	21075	19760	146507	27504	981789	39741	107729	0	0	8157	712007	0	0
2024-05-18 16:00:32			0	34660	0	0	0	21049	19750	146455	27409	981772	39750	107719	0	0	8158	711576	0	0
2024-05-18 16:01:32			0	34666	0	0	0	21054	19750	146395	27372	981764	39740	107721	0	0	8158	711293	0	0
2024-05-18 16:02:32			0	34659	0	0	0	21072	19730	146363	27367	981659	39738	107728	0	0	8158	711701	0	0
2024-05-18 16:03:32			0	34666	0	0	0	21067	19740	146315	27398	981782	39728	107726	0	0	8158	711333	0	0
2024-05-18 16:04:32			0	34687	0	0	0	21051	19740	146399	27218	981721	39739	107720	0	0	8160	710346	0	0
2024-05-18 16:05:32			0	34676	0	0	0	21057	19730	146387	27352	981659	39727	107722	0	0	8159	710902	0	0
2024-05-18 16:06:32			0	34654	0	0	0	21059	19730	146387	27189	981659	39738	107723	0	0	8157	711936	0	0
2024-05-18 16:07:32			0	34663	0	0	0	21059	19730	146459	27564	981677	39726	107723	0	0	8158	711513	0	0
2024-05-18 16:08:32			0	34649	0	0	0	21070	19720	146499	27341	981696	39737	107727	0	0	8157	712211	0	0
2024-05-18 16:09:32			0	34657	0	0	0	21080	19730	146427	27479	981704	39737	107731	0	0	8157	711795	0	0
2024-05-18 16:10:32			0	34659	0	0	0	21059	19720	146403	27495	981687	39737	107723	0	0	8158	711740	0	0
2024-05-18 16:11:32			0	34671	0	0	0	21059	19720	146411	27211	981669	39737	107723	0	0	8158	711176	0	0
2024-05-18 16:12:32			0	34654	0	0	0	21057	19730	146423	27275	981677	39737	107722	0	0	8158	711936	0	0
2024-05-18 16:13:32			0	34651	0	0	0	21057	19720	146563	27637	981669	39737	107722	0	0	8157	712116	0	0
2024-05-18 16:14:32			0	34642	0	0	0	21062	19720	146471	27557	981669	39737	107724	0	0	8157	712540	0	0
2024-05-18 16:15:32			0	34644	0	0	0	21093	19730	146455	27661	981704	39748	107736	0	0	8156	712407	0	0
2024-05-18 16:16:32			0	34654	0	0	0	21083	19730	146595	27817	981659	39738	107732	0	0	8157	711936	0	0
2024-05-18 16:17:32			0	34651	0	0	0	21067	19720	146611	27689	981740	39737	107726	0	0	8157	712116	0	0
2024-05-18 16:18:32			0	34655	0	0	0	21054	19730	146491	27320	981704	39726	107721	0	0	8158	711889	0	0
2024-05-18 16:19:32			0	34672	0	0	0	21051	19730	146467	27504	981730	39737	107720	0	0	8159	711090	0	0
2024-05-18 16:20:32			0	34664	0	0	0	21075	19710	146491	27204	981705	39747	107729	0	0	8158	711544	0	0
2024-05-18 16:21:32			0	34660	0	0	0	21070	19730	146507	27798	981730	39737	107727	0	0	8158	711654	0	0
2024-05-18 16:22:32			0	34647	0	0	0	21075	19720	146459	27616	981749	39726	107729	0	0	8157	712305	0	0
2024-05-18 16:23:32			0	34666	0	0	0	21077	19730	146459	27561	981818	39727	107730	0	0	8158	711372	0	0
2024-05-18 16:24:32			0	34669	0	0	0	21064	19730	146451	27452	981757	39758	107725	0	0	8158	711231	0	0
2024-05-18 16:25:32			0	34676	0	0	0	21067	19720	146359	27542	981775	39737	107726	0	0	8159	710941	0	0
2024-05-18 16:26:32			0	34679	0	0	0	21057	19730	146267	27398	981686	39727	107722	0	0	8159	710761	0	0
2024-05-18 16:27:32			0	34681	0	0	0	21057	19720	146435	27696	981642	39748	107722	0	0	8159	710706	0	0
2024-05-18 16:28:32			0	34682	0	0	0	21054	19720	146347	27796	981669	39737	107721	0	0	8159	710659	0	0
2024-05-18 16:29:32			0	34665	0	0	0	21057	19720	146439	27312	981740	39726	107722	0	0	8158	711458	0	0
2024-05-18 16:30:32			0	34684	0	0	0	21062	19720	146351	27407	981660	39737	107724	0	0	8159	710565	0	0
2024-05-18 16:31:32			0	34663	0	0	0	21098	19720	146355	27268	981749	39737	107738	0	0	8157	711552	0	0
2024-05-18 16:32:32			0	34673	0	0	0	21064	19720	146423	27346	981722	39748	107725	0	0	8158	711082	0	0
2024-05-18 16:33:32			0	34688	0	0	0	21070	19720	146411	27229	981713	39758	107727	0	0	8159	710377	0	0
2024-05-18 16:34:32			0	34683	0	0	0	21106	19730	146343	27282	981783	39737	107741	0	0	8158	710573	0	0
2024-05-18 16:35:32			0	34694	0	0	0	21122	19730	146235	27343	981863	39737	107747	0	0	8159	710056	0	0
2024-05-18 16:36:32			0	34702	0	0	0	21150	19730	146331	27317	981863	39737	107758	0	0	8159	709681	0	0
2024-05-18 16:37:32			0	34710	0	0	0	21176	19750	146251	27270	981949	39761	107768	0	0	8159	709227	0	0
2024-05-18 16:38:32			0	34728	0	0	0	21212	19760	146259	27159	982001	39752	107782	0	0	8159	708344	0	0
2024-05-18 16:39:32			0	34740	0	0	0	21218	19760	146259	27253	982080	39741	107784	0	0	8160	707782	0	0
2024-05-18 16:40:32			0	34770	0	0	0	21210	19790	146083	27571	982202	39765	107781	0	0	8162	706262	0	0
2024-05-18 16:41:32			0	34777	0	0	0	21189	19800	145899	27540	982139	39765	107773	0	0	8162	705896	0	0
2024-05-18 16:42:32			0	34812	0	0	0	21202	19800	145807	27282	982086	39754	107778	0	0	8164	704261	0	0
2024-05-18 16:43:32			0	34841	0	0	0	21171	19810	145639	27364	982076	39756	107766	0	0	8166	702871	0	0
2024-05-18 16:44:32			0	34845	0	0	0	21187	19810	145643	27102	982217	39756	107772	0	0	8166	702684	0	0
2024-05-18 16:45:32			0	34874	0	0	0	21171	19810	145631	27633	982155	39746	107766	0	0	8168	701335	0	0
2024-05-18 16:46:32			0	34883	0	0	0	21176	19810	145539	27647	982111	39735	107768	0	0	8169	700916	0	0
2024-05-18 16:47:32			0	34888	0	0	0	21225	19800	145527	27524	982121	39745	107787	0	0	8168	700723	0	0
2024-05-18 16:48:32			0	34887	0	0	0	21231	19820	145455	27358	982225	39746	107789	0	0	8168	700692	0	0
2024-05-18 16:49:32			0	34920	0	0	0	21236	19820	145407	27234	982199	39746	107791	0	0	8170	699160	0	0
2024-05-18 16:50:32			0	34925	0	0	0	21272	19830	145287	27281	982250	39758	107805	0	0	8169	698889	0	0
2024-05-18 16:51:32			0	34931	0	0	0	21285	19840	145299	27483	982418	39758	107810	0	0	8170	698572	0	0
2024-05-18 16:52:32			0	34951	0	0	0	21309	19850	145235	27452	982469	39782	107819	0	0	8170	697607	0	0
2024-05-18 16:53:32			0	34960	0	0	0	21298	19870	145147	27524	982468	39761	107815	0	0	8171	697114	0	0
2024-05-18 16:54:32			0	34946	0	0	0	21324	19870	145135	27386	982556	39785	107825	0	0	8170	697762	0	0
2024-05-18 16:55:32			0	34971	0	0	0	21298	19890	145083	27310	982589	39764	107815	0	0	8172	696528	0	0
2024-05-18 16:56:32			0	34988	0	0	0	21283	19900	145135	27597	982571	39764	107809	0	0	8173	695703	0	0
2024-05-18 16:57:32			0	35013	0	0	0	21293	19900	144991	27632	982579	39775	107813	0	0	8174	694549	0	0
2024-05-18 16:58:32			0	35004	0	0	0	21280	19900	145007	27216	982571	39764	107808	0	0	8174	694964	0	0
2024-05-18 16:59:32			0	35007	0	0	0	21301	19900	144991	27216	982632	39775	107816	0	0	8174	694826	0	0
2024-05-18 17:00:32			0	35022	0	0	0	21309	19920	144995	27142	982639	39777	107819	0	0	8175	694057	0	0
2024-05-18 17:01:32			0	35025	0	0	0	21324	19920	144919	27149	982604	39777	107825	0	0	8174	693918	0	0
2024-05-18 17:02:32			0	35037	0	0	0	21327	19920	144863	27211	982684	39766	107826	0	0	8175	693365	0	0
2024-05-18 17:03:32			0	35030	0	0	0	21319	19940	144771	27166	982717	39767	107823	0	0	8175	693612	0	0
2024-05-18 17:04:32			0	35034	0	0	0	21348	19930	144823	27471	982735	39778	107834	0	0	8175	693465	0	0
2024-05-18 17:05:32			0	35062	0	0	0	21363	19940	144727	27201	982717	39778	107840	0	0	8176	692137	0	0
2024-05-18 17:06:32			0	35069	0	0	0	21361	19960	144667	27279	982857	39780	107839	0	0	8176	691739	0	0
2024-05-18 17:07:32			0	35066	0	0	0	21348	19970	144671	27222	982892	39781	107834	0	0	8177	691838	0	0
2024-05-18 17:08:32			0	35083	0	0	0	21368	19970	144635	27029	982821	39770	107842	0	0	8177	691056	0	0
2024-05-18 17:09:32			0	35084	0	0	0	21384	19970	144611	27253	982945	39770	107848	0	0	8177	691011	0	0
2024-05-18 17:10:32			0	35097	0	0	0	21353	19980	144475	27303	982917	39772	107836	0	0	8178	690375	0	0
2024-05-18 17:11:32			0	35120	0	0	0	21358	20000	144364	27476	982942	39784	107838	0	0	8179	689243	0	0
2024-05-18 17:12:32			0	35130	0	0	0	21345	19990	144308	27306	982952	39783	107833	0	0	8180	688822	0	0
2024-05-18 17:13:32			0	35147	0	0	0	21311	20000	144204	27175	982968	39784	107820	0	0	8182	688005	0	0
2024-05-18 17:14:32			0	35185	0	0	0	21316	19990	144092	27371	982846	39772	107822	0	0	8184	686303	0	0
2024-05-18 17:15:32			0	35183	0	0	0	21322	19990	144148	27123	982854	39772	107824	0	0	8184	686394	0	0
2024-05-18 17:16:32			0	35195	0	0	0	21322	19980	144040	27443	982837	39772	107824	0	0	8184	685883	0	0
2024-05-18 17:17:32			0	35179	0	0	0	21311	19990	144072	27512	982819	39783	107820	0	0	8183	686577	0	0
2024-05-18 17:18:32			0	35168	0	0	0	21296	19980	144144	27338	982802	39760	107814	0	0	8183	687119	0	0
2024-05-18 17:19:32			0	35181	0	0	0	21285	19970	144152	27490	982821	39781	107810	0	0	8184	686561	0	0
2024-05-18 17:20:32			0	35151	0	0	0	21309	19980	144132	27306	982829	39771	107819	0	0	8182	687897	0	0
2024-05-18 17:21:32			0	35149	0	0	0	21296	19980	144276	27371	982784	39772	107814	0	0	8182	687989	0	0
2024-05-18 17:22:32			0	35147	0	0	0	21301	19980	144184	27310	982802	39771	107816	0	0	8182	688080	0	0
2024-05-18 17:23:32			0	35142	0	0	0	21303	19980	144164	27261	982776	39771	107817	0	0	8182	688310	0	0
2024-05-18 17:24:32			0	35155	0	0	0	21298	19990	144076	27377	982819	39760	107815	0	0	8182	687676	0	0
2024-05-18 17:25:32			0	35181	0	0	0	21311	19980	144016	27521	982811	39783	107820	0	0	8184	686523	0	0
2024-05-18 17:26:32			0	35207	0	0	0	21311	19980	143944	27530	982802	39771	107820	0	0	8185	685335	0	0
2024-05-18 17:27:32			0	35211	0	0	0	21309	19980	143920	27384	982802	39771	107819	0	0	8185	685152	0	0
2024-05-18 17:28:32			0	35204	0	0	0	21319	19990	143900	27116	982872	39760	107823	0	0	8185	685434	0	0
2024-05-18 17:29:32			0	35195	0	0	0	21335	19980	143952	27232	982943	39783	107829	0	0	8184	685883	0	0
2024-05-18 17:30:32			0	35167	0	0	0	21384	19990	144004	27505	982925	39772	107848	0	0	8182	687126	0	0
2024-05-18 17:31:32			0	35175	0	0	0	21405	20000	144052	27371	983022	39773	107856	0	0	8182	686722	0	0
2024-05-18 17:32:32			0	35171	0	0	0	21405	20000	144028	27388	983022	39773	107856	0	0	8182	686905	0	0
2024-05-18 17:33:32			0	35176	0	0	0	21399	20010	144012	27474	983065	39762	107854	0	0	8182	686639	0	0
2024-05-18 17:34:32			0	35197	0	0	0	21402	20010	143936	27192	982985	39762	107855	0	0	8183	685678	0	0
2024-05-18 17:35:32			0	35205	0	0	0	21376	20010	143960	27244	983047	39774	107845	0	0	8184	685312	0	0
2024-05-18 17:36:32			0	35230	0	0	0	21389	20010	143784	27504	983047	39774	107850	0	0	8185	684171	0	0
2024-05-18 17:37:32			0	35236	0	0	0	21337	20000	143708	27474	982950	39785	107830	0	0	8186	683935	0	0
2024-05-18 17:38:32			0	35278	0	0	0	21324	20010	143636	27417	982879	39762	107825	0	0	8189	681983	0	0
2024-05-18 17:39:32			0	35269	0	0	0	21246	20010	143576	27201	982826	39773	107795	0	0	8190	682393	0	0
2024-05-18 17:40:32			0	35307	0	0	0	21192	19980	143444	27298	982758	39760	107774	0	0	8192	680776	0	0
2024-05-18 17:41:32			0	35296	0	0	0	21168	19970	143440	27545	982600	39759	107765	0	0	8192	681314	0	0
2024-05-18 17:42:32			0	35294	0	0	0	21171	19950	143388	27313	982495	39757	107766	0	0	8192	681480	0	0
2024-05-18 17:43:32			0	35309	0	0	0	21244	19920	143516	27196	982480	39754	107794	0	0	8191	680910	0	0
2024-05-18 17:44:32			0	35274	0	0	0	21293	19930	143656	27338	982541	39755	107813	0	0	8189	682466	0	0
2024-05-18 17:45:32			0	35195	0	0	0	21251	19930	143924	27183	982568	39766	107797	0	0	8185	686072	0	0
2024-05-18 17:46:32			0	35131	0	0	0	21267	19930	144164	27379	982594	39766	107803	0	0	8181	689004	0	0
2024-05-18 17:47:32			0	35087	0	0	0	21267	19930	144291	27630	982550	39790	107803	0	0	8179	691025	0	0
2024-05-18 17:48:32			0	35051	0	0	0	21272	19910	144499	27495	982543	39766	107805	0	0	8177	692758	0	0
2024-05-18 17:49:32			0	35028	0	0	0	21296	19920	144563	27338	982604	39766	107814	0	0	8175	693780	0	0
2024-05-18 17:50:32			0	35018	0	0	0	21298	19920	144543	27007	982631	39754	107815	0	0	8175	694241	0	0
2024-05-18 17:51:32			0	35056	0	0	0	21324	19920	144575	27426	982613	39754	107825	0	0	8176	692490	0	0
2024-05-18 17:52:32			0	35049	0	0	0	21332	19930	144599	27229	982727	39789	107828	0	0	8176	692774	0	0
2024-05-18 17:53:32			0	35019	0	0	0	21319	19930	144587	27286	982674	39766	107823	0	0	8174	694157	0	0
2024-05-18 17:54:32			0	35045	0	0	0	21350	19930	144507	27308	982735	39790	107835	0	0	8175	692958	0	0
2024-05-18 17:55:32			0	35036	0	0	0	21290	19930	144555	27592	982656	39778	107812	0	0	8176	693373	0	0
2024-05-18 17:56:32			0	35016	0	0	0	21311	19930	144735	27249	982656	39767	107820	0	0	8174	694296	0	0
2024-05-18 17:57:32			0	35021	0	0	0	21296	19920	144663	27126	982639	39766	107814	0	0	8175	694103	0	0
2024-05-18 17:58:32			0	35024	0	0	0	21254	19930	144695	27315	982541	39766	107798	0	0	8176	693926	0	0
2024-05-18 17:59:32			0	35004	0	0	0	21270	19920	144627	27095	982586	39766	107804	0	0	8174	694888	0	0
2024-05-18 18:00:32			0	34996	0	0	0	21251	19930	144839	27225	982576	39767	107797	0	0	8174	695219	0	0
2024-05-18 18:01:32			0	34943	0	0	0	21218	19920	144903	27183	982498	39777	107784	0	0	8172	697709	0	0
2024-05-18 18:02:32			0	34926	0	0	0	21228	19910	144983	27326	982455	39754	107788	0	0	8171	698535	0	0
2024-05-18 18:03:32			0	34886	0	0	0	21231	19900	145103	27187	982526	39753	107789	0	0	8168	700430	0	0
2024-05-18 18:04:32			0	34867	0	0	0	21212	19890	145335	27104	982457	39753	107782	0	0	8167	701351	0	0
2024-05-18 18:05:32			0	34844	0	0	0	21199	19900	145371	27211	982385	39764	107777	0	0	8166	702383	0	0
2024-05-18 18:06:32			0	34859	0	0	0	21228	19880	145359	27211	982466	39762	107788	0	0	8167	701762	0	0
2024-05-18 18:07:32			0	34881	0	0	0	21231	19890	145151	27332	982430	39753	107789	0	0	8168	700700	0	0
2024-05-18 18:08:32			0	34921	0	0	0	21218	19880	145075	27306	982440	39762	107784	0	0	8170	698882	0	0
2024-05-18 18:09:32			0	34904	0	0	0	21220	19880	145195	27256	982378	39773	107785	0	0	8169	699671	0	0
2024-05-18 18:10:32			0	34881	0	0	0	21210	19880	145287	27419	982432	39762	107781	0	0	8168	700739	0	0
2024-05-18 18:11:32			0	34879	0	0	0	21218	19880	145239	27213	982440	39751	107784	0	0	8168	700832	0	0
2024-05-18 18:12:32			0	34890	0	0	0	21225	19870	145183	27301	982388	39772	107787	0	0	8168	700360	0	0
2024-05-18 18:13:32			0	34918	0	0	0	21233	19870	145159	27569	982370	39762	107790	0	0	8170	699060	0	0
2024-05-18 18:14:32			0	34965	0	0	0	21233	19870	144923	27505	982397	39762	107790	0	0	8172	696882	0	0
2024-05-18 18:15:32			0	35010	0	0	0	21225	19870	144739	27620	982388	39761	107787	0	0	8175	694802	0	0
2024-05-18 18:16:32			0	35072	0	0	0	21231	19880	144491	27286	982378	39751	107789	0	0	8178	691906	0	0
2024-05-18 18:17:32			0	35157	0	0	0	21257	19860	144092	27331	982380	39772	107799	0	0	8183	688077	0	0
2024-05-18 18:18:32			0	35209	0	0	0	21241	19870	143856	27039	982415	39761	107793	0	0	8186	685659	0	0
2024-05-18 18:19:32			0	35229	0	0	0	21202	19870	143740	27218	982415	39750	107778	0	0	8188	684745	0	0
2024-05-18 18:20:32			0	35265	0	0	0	21189	19860	143560	27173	982274	39760	107773	0	0	8190	683140	0	0
2024-05-18 18:21:32			0	35308	0	0	0	21176	19860	143588	27227	982300	39750	107768	0	0	8192	681181	0	0
2024-05-18 18:22:32			0	35314	0	0	0	21150	19850	143356	27331	982231	39759	107758	0	0	8193	680946	0	0
2024-05-18 18:23:32			0	35326	0	0	0	21148	19850	143556	27029	982151	39759	107757	0	0	8194	680400	0	0
2024-05-18 18:24:32			0	35282	0	0	0	21150	19830	143560	27426	982171	39769	107758	0	0	8191	682477	0	0
2024-05-18 18:25:32			0	35227	0	0	0	21145	19830	143772	27504	982189	39758	107756	0	0	8188	684987	0	0
2024-05-18 18:26:32			0	35192	0	0	0	21140	19820	143972	27294	982093	39746	107754	0	0	8186	686625	0	0
2024-05-18 18:27:32			0	35170	0	0	0	21142	19810	144096	27279	982058	39756	107755	0	0	8185	687671	0	0
2024-05-18 18:28:32			0	35124	0	0	0	21137	19800	144272	27334	982006	39754	107753	0	0	8183	689819	0	0
2024-05-18 18:29:32			0	35094	0	0	0	21142	19800	144331	27206	982068	39755	107755	0	0	8181	691198	0	0
2024-05-18 18:30:32			0	35087	0	0	0	21142	19800	144499	27232	982068	39755	107755	0	0	8180	691520	0	0
2024-05-18 18:31:32			0	35072	0	0	0	21155	19800	144515	27386	982086	39744	107760	0	0	8179	692211	0	0
2024-05-18 18:32:32			0	35033	0	0	0	21150	19790	144731	27377	982069	39753	107758	0	0	8177	694046	0	0
2024-05-18 18:33:32			0	35019	0	0	0	21116	19790	144715	27326	982024	39765	107745	0	0	8177	694693	0	0
2024-05-18 18:34:32			0	35005	0	0	0	21101	19780	144879	27260	981902	39743	107739	0	0	8177	695378	0	0
2024-05-18 18:35:32			0	35002	0	0	0	21093	19780	144855	27440	981893	39742	107736	0	0	8176	695516	0	0
2024-05-18 18:36:32			0	35013	0	0	0	21090	19780	144691	27540	981973	39742	107735	0	0	8177	695008	0	0
2024-05-18 18:37:32			0	35048	0	0	0	21085	19760	144607	27241	981860	39751	107733	0	0	8179	693469	0	0
2024-05-18 18:38:32			0	35079	0	0	0	21064	19760	144419	27540	981842	39741	107725	0	0	8181	692041	0	0
2024-05-18 18:39:32			0	35126	0	0	0	21059	19760	144292	27170	981789	39741	107723	0	0	8184	689879	0	0
2024-05-18 18:40:32			0	35164	0	0	0	21057	19750	144224	27467	981719	39740	107722	0	0	8186	688173	0	0
2024-05-18 18:41:32			0	35201	0	0	0	21051	19740	144020	27118	981808	39740	107720	0	0	8188	686516	0	0
2024-05-18 18:42:32			0	35230	0	0	0	21038	19730	143884	27182	981730	39737	107715	0	0	8190	685227	0	0
2024-05-18 18:43:32			0	35259	0	0	0	21046	19730	143808	27227	981651	39726	107718	0	0	8191	683903	0	0
2024-05-18 18:44:32			0	35290	0	0	0	21049	19710	143640	27301	981626	39747	107719	0	0	8193	682564	0	0
2024-05-18 18:45:32			0	35315	0	0	0	21044	19710	143528	27680	981626	39747	107717	0	0	8194	681425	0	0
2024-05-18 18:46:32			0	35329	0	0	0	21038	19710	143532	27057	981617	39747	107715	0	0	8195	680788	0	0
2024-05-18 18:47:32			0	35337	0	0	0	21041	19710	143472	27429	981617	39735	107716	0	0	8195	680424	0	0
2024-05-18 18:48:32			0	35344	0	0	0	21038	19710	143324	27533	981564	39735	107715	0	0	8196	680106	0	0
2024-05-18 18:49:32			0	35337	0	0	0	21031	19700	143472	27381	981582	39747	107712	0	0	8196	680462	0	0
2024-05-18 18:50:32			0	35347	0	0	0	21036	19690	143500	27196	981619	39746	107714	0	0	8196	680045	0	0
2024-05-18 18:51:32			0	35317	0	0	0	21031	19680	143484	27220	981523	39734	107712	0	0	8194	681447	0	0
2024-05-18 18:52:32			0	35295	0	0	0	21033	19690	143620	27201	981592	39734	107713	0	0	8193	682411	0	0
2024-05-18 18:53:32			0	35296	0	0	0	21038	19670	143824	27462	981506	39744	107715	0	0	8193	682441	0	0
2024-05-18 18:54:32			0	35270	0	0	0	21046	19680	143724	27267	981523	39734	107718	0	0	8192	683589	0	0
2024-05-18 18:55:32			0	35271	0	0	0	21046	19680	143700	27414	981602	39734	107718	0	0	8192	683543	0	0
2024-05-18 18:56:32			0	35266	0	0	0	21036	19680	143752	27490	981541	39734	107714	0	0	8192	683771	0	0
2024-05-18 18:57:32			0	35272	0	0	0	21036	19670	143752	27376	981506	39733	107714	0	0	8192	683535	0	0
2024-05-18 18:58:32			0	35287	0	0	0	21038	19670	143820	27350	981506	39733	107715	0	0	8193	682851	0	0
2024-05-18 18:59:32			0	35275	0	0	0	21033	19660	143756	27381	981516	39742	107713	0	0	8192	683436	0	0
2024-05-18 19:00:32			0	35280	0	0	0	21028	19670	143664	27265	981471	39753	107711	0	0	8192	683170	0	0
2024-05-18 19:01:32			0	35304	0	0	0	21023	19650	143640	27462	981481	39742	107709	0	0	8194	682151	0	0
2024-05-18 19:02:32			0	35301	0	0	0	21023	19660	143604	27478	981489	39752	107709	0	0	8194	682251	0	0
2024-05-18 19:03:32			0	35322	0	0	0	21015	19660	143612	27369	981436	39742	107706	0	0	8195	681294	0	0
2024-05-18 19:04:32			0	35332	0	0	0	21018	19650	143592	27298	981454	39742	107707	0	0	8195	680876	0	0
2024-05-18 19:05:32			0	35348	0	0	0	21010	19650	143408	27491	981420	39742	107704	0	0	8196	680149	0	0
2024-05-18 19:06:32			0	35363	0	0	0	21015	19650	143440	27554	981446	39742	107706	0	0	8197	679467	0	0
2024-05-18 19:07:32			0	35372	0	0	0	21012	19650	143352	27647	981420	39731	107705	0	0	8198	679058	0	0
2024-05-18 19:08:32			0	35380	0	0	0	21018	19640	143260	27422	981403	39729	107707	0	0	8198	678732	0	0
2024-05-18 19:09:32			0	35406	0	0	0	21018	19640	143208	27483	981482	39740	107707	0	0	8199	677553	0	0
2024-05-18 19:10:32			0	35410	0	0	0	21028	19640	143200	27142	981411	39741	107711	0	0	8199	677372	0	0
2024-05-18 19:11:32			0	35405	0	0	0	21046	19640	143228	27329	981482	39751	107718	0	0	8199	677598	0	0
2024-05-18 19:12:32			0	35396	0	0	0	21057	19640	143300	27308	981411	39741	107722	0	0	8198	678007	0	0
2024-05-18 19:13:32			0	35413	0	0	0	21041	19640	143280	27746	981456	39729	107716	0	0	8199	677236	0	0
2024-05-18 19:14:32			0	35379	0	0	0	21028	19640	143328	27547	981509	39729	107711	0	0	8198	678778	0	0
2024-05-18 19:15:32			0	35369	0	0	0	21023	19650	143308	27625	981473	39742	107709	0	0	8197	679195	0	0
2024-05-18 19:16:32			0	35349	0	0	0	21031	19650	143348	27275	981420	39731	107712	0	0	8196	680103	0	0
2024-05-18 19:17:32			0	35336	0	0	0	21025	19640	143384	27599	981411	39741	107710	0	0	8195	680732	0	0
2024-05-18 19:18:32			0	35315	0	0	0	21036	19640	143536	27447	981438	39752	107714	0	0	8194	681688	0	0
2024-05-18 19:19:32			0	35299	0	0	0	21025	19640	143684	27459	981429	39762	107710	0	0	8193	682417	0	0
2024-05-18 19:20:32			0	35274	0	0	0	21015	19640	143640	27438	981438	39741	107706	0	0	8192	683557	0	0
2024-05-18 19:21:32			0	35271	0	0	0	21007	19650	143668	27635	981393	39742	107703	0	0	8192	683656	0	0
2024-05-18 19:22:32			0	35254	0	0	0	21010	19630	143800	27658	981395	39740	107704	0	0	8191	684507	0	0
2024-05-18 19:23:32			0	35238	0	0	0	21007	19640	143856	27263	981350	39718	107703	0	0	8190	685201	0	0
2024-05-18 19:24:32			0	35230	0	0	0	21018	19630	143856	27329	981395	39740	107707	0	0	8190	685604	0	0
2024-05-18 19:25:32			0	35225	0	0	0	21010	19620	143932	27300	981325	39740	107704	0	0	8189	685871	0	0
2024-05-18 19:26:32			0	35201	0	0	0	21015	19640	143968	27225	981403	39740	107706	0	0	8188	686894	0	0
2024-05-18 19:27:32			0	35198	0	0	0	21012	19630	144092	27353	981333	39740	107705	0	0	8188	687069	0	0
2024-05-18 19:28:32			0	35189	0	0	0	21005	19630	144016	27255	981386	39740	107702	0	0	8188	687481	0	0
2024-05-18 19:29:32			0	35160	0	0	0	21018	19620	144240	27187	981351	39740	107707	0	0	8186	688849	0	0
2024-05-18 19:30:32			0	35140	0	0	0	21015	19620	144204	27301	981325	39740	107706	0	0	8185	689768	0	0
2024-05-18 19:31:32			0	35139	0	0	0	21018	19630	144332	27739	981360	39729	107707	0	0	8185	689776	0	0
2024-05-18 19:32:32			0	35144	0	0	0	21020	19620	144264	27343	981343	39739	107708	0	0	8185	689584	0	0
2024-05-18 19:33:32			0	35120	0	0	0	21012	19620	144368	27277	981272	39728	107705	0	0	8184	690687	0	0
2024-05-18 19:34:32			0	35119	0	0	0	21005	19620	144384	27519	981351	39750	107702	0	0	8184	690733	0	0
2024-05-18 19:35:32			0	35126	0	0	0	21012	19620	144388	27460	981290	39739	107705	0	0	8184	690411	0	0
2024-05-18 19:36:32			0	35130	0	0	0	21020	19610	144368	27182	981335	39750	107708	0	0	8184	690265	0	0
2024-05-18 19:37:32			0	35140	0	0	0	21018	19610	144308	27248	981353	39739	107707	0	0	8185	689806	0	0
2024-05-18 19:38:32			0	35158	0	0	0	21023	19620	144280	27267	981298	39750	107709	0	0	8186	688941	0	0
2024-05-18 19:39:32			0	35195	0	0	0	21023	19610	144156	27241	981361	39750	107709	0	0	8188	687282	0	0
2024-05-18 19:40:32			0	35222	0	0	0	21020	19620	144040	27241	981378	39750	107708	0	0	8189	686008	0	0
2024-05-18 19:41:32			0	35269	0	0	0	21015	19630	143904	27150	981386	39740	107706	0	0	8192	683823	0	0
2024-05-18 19:42:32			0	35285	0	0	0	21025	19620	143764	27234	981351	39740	107710	0	0	8192	683130	0	0
2024-05-18 19:43:32			0	35320	0	0	0	21023	19620	143644	27239	981370	39739	107709	0	0	8194	681535	0	0
2024-05-18 19:44:32			0	35339	0	0	0	21015	19630	143532	27364	981439	39729	107706	0	0	8196	680633	0	0
2024-05-18 19:45:32			0	35378	0	0	0	21015	19620	143328	27102	981351	39740	107706	0	0	8198	678898	0	0
2024-05-18 19:46:32			0	35387	0	0	0	21012	19620	143240	27533	981298	39728	107705	0	0	8198	678489	0	0
2024-05-18 19:47:32			0	35414	0	0	0	21015	19610	143112	27381	981308	39739	107706	0	0	8200	677302	0	0
2024-05-18 19:48:32			0	35476	0	0	0	21010	19620	142992	27336	981343	39727	107704	0	0	8203	674459	0	0
2024-05-18 19:49:32			0	35504	0	0	0	21007	19620	142896	27301	981343	39750	107703	0	0	8205	673195	0	0
2024-05-18 19:50:32			0	35503	0	0	0	21012	19620	142820	27272	981317	39739	107705	0	0	8205	673240	0	0
2024-05-18 19:51:32			0	35546	0	0	0	21007	19610	142764	27339	981335	39739	107703	0	0	8207	671338	0	0
2024-05-18 19:52:32			0	35560	0	0	0	20999	19610	142660	27376	981361	39739	107700	0	0	8208	670708	0	0
2024-05-18 19:53:32			0	35585	0	0	0	20997	19620	142564	27246	981317	39727	107699	0	0	8209	669547	0	0
2024-05-18 19:54:32			0	35597	0	0	0	21012	19610	142500	27336	981300	39739	107705	0	0	8210	669045	0	0
2024-05-18 19:55:32			0	35609	0	0	0	21002	19620	142356	27414	981317	39739	107701	0	0	8211	668469	0	0
2024-05-18 19:56:32			0	35639	0	0	0	21007	19610	142272	27478	981300	39727	107703	0	0	8212	667160	0	0
2024-05-18 19:57:32			0	35676	0	0	0	21002	19610	142088	27239	981353	39739	107701	0	0	8214	665503	0	0
2024-05-18 19:58:32			0	35709	0	0	0	21012	19610	142076	27265	981335	39739	107705	0	0	8216	664027	0	0
2024-05-18 19:59:32			0	35727	0	0	0	21005	19610	141908	27511	981282	39750	107702	0	0	8217	663223	0	0
2024-05-18 20:00:32			0	35769	0	0	0	20999	19610	141796	27737	981300	39750	107700	0	0	8219	661350	0	0
2024-05-18 20:01:32			0	35801	0	0	0	21005	19610	141652	27324	981326	39727	107702	0	0	8221	659926	0	0
2024-05-18 20:02:32			0	35826	0	0	0	20997	19610	141516	27235	981255	39739	107699	0	0	8222	658815	0	0
2024-05-18 20:03:32			0	35869	0	0	0	20997	19620	141376	27412	981343	39750	107699	0	0	8225	656870	0	0
2024-05-18 20:04:32			0	35898	0	0	0	20992	19610	141285	27281	981282	39750	107697	0	0	8226	655622	0	0
2024-05-18 20:05:32			0	35937	0	0	0	21005	19610	141129	27196	981300	39739	107702	0	0	8228	653897	0	0
2024-05-18 20:06:32			0	35939	0	0	0	20992	19600	141165	27079	981265	39749	107697	0	0	8228	653844	0	0
2024-05-18 20:07:32			0	35956	0	0	0	20986	19600	140945	26967	981265	39749	107695	0	0	8229	653093	0	0
2024-05-18 20:08:32			0	35984	0	0	0	20992	19600	140985	27317	981292	39738	107697	0	0	8231	651858	0	0
2024-05-18 20:09:32			0	36004	0	0	0	20989	19610	140953	27345	981273	39739	107696	0	0	8232	650941	0	0
2024-05-18 20:10:32			0	36018	0	0	0	20999	19600	140845	27400	981283	39748	107700	0	0	8233	650360	0	0
2024-05-18 20:11:32			0	36018	0	0	0	20992	19600	140853	27041	981292	39738	107697	0	0	8233	650360	0	0
2024-05-18 20:12:32			0	36051	0	0	0	20992	19600	140793	27227	981230	39737	107697	0	0	8235	648909	0	0
2024-05-18 20:13:32			0	36047	0	0	0	20997	19600	140693	27189	981257	39737	107699	0	0	8234	649085	0	0
2024-05-18 20:14:32			0	36038	0	0	0	20999	19600	140805	27405	981257	39737	107700	0	0	8234	649480	0	0
2024-05-18 20:15:32			0	36051	0	0	0	20989	19600	140729	27407	981265	39738	107696	0	0	8235	648909	0	0
2024-05-18 20:16:32			0	36062	0	0	0	20999	19600	140721	27246	981257	39737	107700	0	0	8235	648425	0	0
2024-05-18 20:17:32			0	36029	0	0	0	21002	19590	140697	27287	981248	39748	107701	0	0	8233	649912	0	0
2024-05-18 20:18:32			0	36043	0	0	0	21005	19600	140641	27144	981292	39727	107702	0	0	8234	649261	0	0
2024-05-18 20:19:32			0	36059	0	0	0	20997	19600	140661	27026	981265	39738	107699	0	0	8235	648557	0	0
2024-05-18 20:20:32			0	36051	0	0	0	20999	19600	140645	27086	981257	39726	107700	0	0	8234	648909	0	0
2024-05-18 20:21:32			0	36076	0	0	0	20997	19600	140637	27485	981239	39749	107699	0	0	8236	647811	0	0
2024-05-18 20:22:32			0	36063	0	0	0	21010	19600	140625	27341	981292	39749	107704	0	0	8235	648382	0	0
2024-05-18 20:23:32			0	36070	0	0	0	21002	19620	140565	27397	981263	39750	107701	0	0	8235	648003	0	0
2024-05-18 20:24:32			0	36075	0	0	0	20994	19600	140645	27312	981283	39748	107698	0	0	8236	647855	0	0
2024-05-18 20:25:32			0	36070	0	0	0	21018	19600	140593	27353	981265	39749	107707	0	0	8235	648074	0	0
2024-05-18 20:26:32			0	36079	0	0	0	21025	19600	140589	26915	981283	39748	107710	0	0	8235	647679	0	0
2024-05-18 20:27:32			0	36083	0	0	0	21020	19600	140549	27156	981292	39759	107708	0	0	8236	647503	0	0
2024-05-18 20:28:32			0	36065	0	0	0	21028	19610	140505	27474	981361	39739	107711	0	0	8235	648258	0	0
2024-05-18 20:29:32			0	36066	0	0	0	21028	19610	140497	27261	981388	39750	107711	0	0	8235	648214	0	0
2024-05-18 20:30:32			0	36061	0	0	0	21028	19610	140545	27232	981353	39750	107711	0	0	8234	648434	0	0
2024-05-18 20:31:32			0	36094	0	0	0	21041	19610	140577	27223	981441	39760	107716	0	0	8236	646985	0	0
2024-05-18 20:32:32			0	36070	0	0	0	21025	19620	140605	27505	981423	39760	107710	0	0	8235	648003	0	0
2024-05-18 20:33:32			0	36069	0	0	0	21023	19620	140609	27189	981431	39750	107709	0	0	8235	648047	0	0
2024-05-18 20:34:32			0	36055	0	0	0	21012	19620	140689	27199	981343	39750	107705	0	0	8234	648662	0	0
2024-05-18 20:35:32			0	36006	0	0	0	21012	19610	140829	27104	981335	39760	107705	0	0	8232	650853	0	0
2024-05-18 20:36:32			0	35974	0	0	0	21007	19620	140977	27241	981404	39750	107703	0	0	8230	652227	0	0
2024-05-18 20:37:32			0	35920	0	0	0	21015	19610	141157	27187	981335	39760	107706	0	0	8227	654648	0	0
2024-05-18 20:38:32			0	35876	0	0	0	21012	19620	141357	27293	981378	39750	107705	0	0	8225	656560	0	0
2024-05-18 20:39:32			0	35783	0	0	0	21012	19620	141632	27213	981370	39739	107705	0	0	8220	660690	0	0
2024-05-18 20:40:32			0	35749	0	0	0	21010	19620	141896	27386	981317	39750	107704	0	0	8218	662205	0	0
2024-05-18 20:41:32			0	35669	0	0	0	21010	19620	142224	27421	981351	39740	107704	0	0	8214	665779	0	0
2024-05-18 20:42:32			0	35614	0	0	0	21015	19620	142348	27370	981370	39739	107706	0	0	8211	668245	0	0
2024-05-18 20:43:32			0	35542	0	0	0	21010	19610	142652	27197	981308	39750	107704	0	0	8207	671519	0	0
2024-05-18 20:44:32			0	35495	0	0	0	21010	19600	142844	27592	981310	39758	107704	0	0	8204	673675	0	0
2024-05-18 20:45:32			0	35439	0	0	0	21007	19610	142976	27428	981308	39760	107703	0	0	8201	676170	0	0
2024-05-18 20:46:32			0	35384	0	0	0	21007	19610	143140	27263	981300	39750	107703	0	0	8198	678663	0	0
2024-05-18 20:47:32			0	35372	0	0	0	21010	19610	143372	27107	981335	39727	107704	0	0	8197	679208	0	0
2024-05-18 20:48:32			0	35342	0	0	0	21012	19610	143384	27241	981361	39760	107705	0	0	8196	680571	0	0
2024-05-18 20:49:32			0	35325	0	0	0	21002	19620	143448	27013	981317	39739	107701	0	0	8195	681307	0	0
2024-05-18 20:50:32			0	35318	0	0	0	21010	19610	143504	27383	981335	39750	107704	0	0	8194	681664	0	0
2024-05-18 20:51:32			0	35335	0	0	0	21012	19610	143524	27020	981326	39739	107705	0	0	8195	680890	0	0
2024-05-18 20:52:32			0	35333	0	0	0	21018	19600	143464	27455	981345	39749	107707	0	0	8195	681018	0	0
2024-05-18 20:53:32			0	35359	0	0	0	21012	19610	143268	27329	981300	39750	107705	0	0	8197	679798	0	0
2024-05-18 20:54:32			0	35403	0	0	0	21012	19610	143184	27156	981300	39750	107705	0	0	8199	677801	0	0
2024-05-18 20:55:32			0	35444	0	0	0	21012	19610	143056	27204	981361	39750	107705	0	0	8201	675943	0	0
2024-05-18 20:56:32			0	35510	0	0	0	20999	19610	142800	27307	981361	39750	107700	0	0	8205	672961	0	0
2024-05-18 20:57:32			0	35555	0	0	0	21015	19610	142512	27216	981282	39750	107706	0	0	8207	670933	0	0
2024-05-18 20:58:32			0	35629	0	0	0	21012	19620	142264	27592	981396	39739	107705	0	0	8211	667571	0	0
2024-05-18 20:59:32			0	35704	0	0	0	21010	19610	141996	27239	981353	39739	107704	0	0	8216	664251	0	0
2024-05-18 21:00:32			0	35752	0	0	0	21002	19610	141772	27229	981255	39739	107701	0	0	8218	662108	0	0
2024-05-18 21:01:32			0	35814	0	0	0	21010	19610	141656	27317	981273	39739	107704	0	0	8221	659348	0	0
2024-05-18 21:02:32			0	35859	0	0	0	21010	19600	141448	27182	981292	39749	107704	0	0	8224	657386	0	0
2024-05-18 21:03:32			0	35907	0	0	0	21002	19600	141125	27471	981310	39770	107701	0	0	8227	655259	0	0
2024-05-18 21:04:32			0	35954	0	0	0	21002	19610	141177	27374	981300	39739	107701	0	0	8229	653146	0	0
2024-05-18 21:05:32			0	35972	0	0	0	21010	19610	140917	27232	981353	39739	107704	0	0	8230	652351	0	0
2024-05-18 21:06:32			0	35995	0	0	0	21018	19610	140853	27313	981379	39739	107707	0	0	8231	651337	0	0
2024-05-18 21:07:32			0	36021	0	0	0	21005	19610	140749	27336	981335	39739	107702	0	0	8233	650192	0	0
2024-05-18 21:08:32			0	36034	0	0	0	21012	19600	140657	27360	981318	39749	107705	0	0	8233	649656	0	0
2024-05-18 21:09:32			0	36068	0	0	0	21005	19600	140613	27007	981345	39738	107702	0	0	8235	648162	0	0
2024-05-18 21:10:32			0	36083	0	0	0	21015	19610	140605	27223	981273	39739	107706	0	0	8236	647468	0	0
2024-05-18 21:11:32			0	36086	0	0	0	21007	19600	140561	27147	981292	39759	107703	0	0	8236	647372	0	0
2024-05-18 21:12:32			0	36095	0	0	0	21018	19610	140461	27460	981335	39750	107707	0	0	8236	646942	0	0
2024-05-18 21:13:32			0	36116	0	0	0	21020	19610	140377	27088	981273	39750	107708	0	0	8238	646021	0	0
2024-05-18 21:14:32			0	36125	0	0	0	21012	19610	140317	27346	981353	39760	107705	0	0	8238	645627	0	0
2024-05-18 21:15:32			0	36124	0	0	0	21015	19610	140325	27218	981326	39750	107706	0	0	8238	645671	0	0
2024-05-18 21:16:32			0	36133	0	0	0	21018	19610	140249	27428	981282	39760	107707	0	0	8239	645277	0	0
2024-05-18 21:17:32			0	36137	0	0	0	21015	19620	140269	26993	981343	39750	107706	0	0	8239	645066	0	0
2024-05-18 21:18:32			0	36162	0	0	0	21015	19620	140101	27270	981370	39750	107706	0	0	8240	643973	0	0
2024-05-18 21:19:32			0	36156	0	0	0	21020	19610	140189	27364	981361	39760	107708	0	0	8240	644270	0	0
2024-05-18 21:20:32			0	36142	0	0	0	21015	19620	140261	27426	981343	39750	107706	0	0	8239	644847	0	0
2024-05-18 21:21:32			0	36138	0	0	0	21015	19610	140245	27339	981361	39750	107706	0	0	8239	645058	0	0
2024-05-18 21:22:32			0	36106	0	0	0	21012	19620	140313	27263	981370	39739	107705	0	0	8237	646424	0	0
2024-05-18 21:23:32			0	36079	0	0	0	21018	19610	140493	27426	981308	39750	107707	0	0	8236	647643	0	0
2024-05-18 21:24:32			0	36058	0	0	0	21018	19620	140629	27538	981370	39760	107707	0	0	8235	648530	0	0
2024-05-18 21:25:32			0	36023	0	0	0	21025	19610	140693	27308	981326	39771	107710	0	0	8232	650104	0	0
2024-05-18 21:26:32			0	36002	0	0	0	21028	19610	140777	27166	981335	39760	107711	0	0	8231	651029	0	0
2024-05-18 21:27:32			0	36006	0	0	0	21031	19610	140781	27395	981361	39750	107712	0	0	8231	650853	0	0
2024-05-18 21:28:32			0	36003	0	0	0	21018	19620	140809	27433	981423	39739	107707	0	0	8232	650949	0	0
2024-05-18 21:29:32			0	36007	0	0	0	21023	19620	140717	27357	981396	39739	107709	0	0	8232	650773	0	0
2024-05-18 21:30:32			0	36008	0	0	0	21012	19620	140677	27093	981396	39739	107705	0	0	8232	650729	0	0
2024-05-18 21:31:32			0	36035	0	0	0	21015	19620	140669	26937	981317	39760	107706	0	0	8233	649541	0	0
2024-05-18 21:32:32			0	36011	0	0	0	21005	19610	140649	27100	981361	39739	107702	0	0	8232	650633	0	0
2024-05-18 21:33:32			0	36036	0	0	0	20994	19610	140645	27081	981273	39750	107698	0	0	8234	649533	0	0
2024-05-18 21:34:32			0	36041	0	0	0	21005	19610	140617	27395	981326	39760	107702	0	0	8234	649313	0	0
2024-05-18 21:35:32			0	36045	0	0	0	21005	19610	140593	27571	981353	39739	107702	0	0	8234	649137	0	0
2024-05-18 21:36:32			0	36088	0	0	0	20994	19620	140505	27242	981317	39750	107698	0	0	8237	647213	0	0
2024-05-18 21:37:32			0	36095	0	0	0	20989	19620	140445	27543	981343	39750	107696	0	0	8237	646906	0	0
2024-05-18 21:38:32			0	36091	0	0	0	20997	19610	140373	27358	981335	39739	107699	0	0	8237	647117	0	0
2024-05-18 21:39:32			0	36118	0	0	0	20994	19610	140385	27497	981300	39727	107698	0	0	8238	645933	0	0
2024-05-18 21:40:32			0	36120	0	0	0	20992	19610	140305	27452	981300	39750	107697	0	0	8238	645846	0	0
2024-05-18 21:41:32			0	36134	0	0	0	20986	19610	140157	27374	981300	39750	107695	0	0	8239	645233	0	0
2024-05-18 21:42:32			0	36135	0	0	0	20997	19600	140217	27668	981345	39749	107699	0	0	8239	645225	0	0
2024-05-18 21:43:32			0	36161	0	0	0	21002	19600	140241	27338	981345	39749	107701	0	0	8240	644087	0	0
2024-05-18 21:44:32			0	36167	0	0	0	20997	19600	140165	27223	981318	39749	107699	0	0	8241	643825	0	0
2024-05-18 21:45:32			0	36172	0	0	0	21015	19600	140185	27260	981371	39759	107706	0	0	8241	643606	0	0
2024-05-18 21:46:32			0	36176	0	0	0	21012	19610	140077	27388	981353	39739	107705	0	0	8241	643396	0	0
2024-05-18 21:47:32			0	36169	0	0	0	21002	19610	140045	27369	981326	39750	107701	0	0	8241	643702	0	0
2024-05-18 21:48:32			0	36173	0	0	0	21007	19600	139997	27211	981292	39759	107703	0	0	8241	643563	0	0
2024-05-18 21:49:32			0	36202	0	0	0	21010	19610	140001	27166	981335	39750	107704	0	0	8242	642261	0	0
2024-05-18 21:50:32			0	36194	0	0	0	20999	19610	140077	27542	981353	39750	107700	0	0	8242	642610	0	0
2024-05-18 21:51:32			0	36209	0	0	0	20997	19600	140053	27409	981292	39749	107699	0	0	8243	641991	0	0
2024-05-18 21:52:32			0	36207	0	0	0	20981	19610	139865	27386	981379	39739	107693	0	0	8243	642043	0	0
2024-05-18 21:53:32			0	36219	0	0	0	20997	19610	139877	27265	981379	39760	107699	0	0	8243	641520	0	0
2024-05-18 21:54:32			0	36214	0	0	0	20999	19600	139841	27246	981310	39748	107700	0	0	8243	641773	0	0
2024-05-18 21:55:32			0	36249	0	0	0	21010	19610	139845	27315	981379	39760	107704	0	0	8245	640213	0	0
2024-05-18 21:56:32			0	36247	0	0	0	20997	19600	139881	27414	981318	39749	107699	0	0	8245	640335	0	0
2024-05-18 21:57:32			0	36258	0	0	0	21007	19600	139733	27670	981345	39738	107703	0	0	8245	639856	0	0
2024-05-18 21:58:32			0	36278	0	0	0	21010	19610	139597	27261	981247	39750	107704	0	0	8246	638951	0	0
2024-05-18 21:59:32			0	36295	0	0	0	20997	19600	139605	27493	981292	39749	107699	0	0	8248	638248	0	0
2024-05-18 22:00:32			0	36309	0	0	0	21005	19610	139597	27241	981353	39739	107702	0	0	8248	637605	0	0
2024-05-18 22:01:32			0	36297	0	0	0	21002	19610	139477	27338	981326	39727	107701	0	0	8248	638126	0	0
2024-05-18 22:02:32			0	36318	0	0	0	21002	19600	139521	27518	981283	39748	107701	0	0	8249	637249	0	0
2024-05-18 22:03:32			0	36347	0	0	0	21005	19600	139505	27537	981310	39758	107702	0	0	8250	635992	0	0
2024-05-18 22:04:32			0	36355	0	0	0	21005	19600	139409	27388	981265	39749	107702	0	0	8251	635645	0	0
2024-05-18 22:05:32			0	36361	0	0	0	21012	19600	139441	27367	981310	39748	107705	0	0	8251	635385	0	0
2024-05-18 22:06:32			0	36369	0	0	0	20997	19600	139409	27384	981336	39748	107699	0	0	8251	635039	0	0
2024-05-18 22:07:32			0	36391	0	0	0	20997	19600	139321	27538	981318	39738	107699	0	0	8253	634087	0	0
2024-05-18 22:08:32			0	36395	0	0	0	21007	19590	139249	27230	981213	39736	107703	0	0	8253	633949	0	0
2024-05-18 22:09:32			0	36396	0	0	0	20999	19590	139257	27286	981222	39758	107700	0	0	8253	633906	0	0
2024-05-18 22:10:32			0	36401	0	0	0	20994	19590	139125	27197	981266	39757	107698	0	0	8253	633689	0	0
2024-05-18 22:11:32			0	36441	0	0	0	20997	19600	139085	27260	981257	39748	107699	0	0	8255	631927	0	0
2024-05-18 22:12:32			0	36450	0	0	0	20994	19580	139117	27071	981250	39746	107698	0	0	8256	631609	0	0
2024-05-18 22:13:32			0	36442	0	0	0	20986	19590	139101	27310	981248	39781	107695	0	0	8256	631919	0	0
2024-05-18 22:14:32			0	36480	0	0	0	20986	19590	139021	27277	981275	39758	107695	0	0	8258	630281	0	0
2024-05-18 22:15:32			0	36436	0	0	0	20981	19600	139025	27433	981204	39748	107693	0	0	8255	632143	0	0
2024-05-18 22:16:32			0	36409	0	0	0	20984	19590	139293	27516	981240	39747	107694	0	0	8254	633344	0	0
2024-05-18 22:17:32			0	36339	0	0	0	20984	19580	139489	27180	981258	39757	107694	0	0	8250	636408	0	0
2024-05-18 22:18:32			0	36273	0	0	0	20984	19590	139645	27128	981195	39748	107694	0	0	8247	639239	0	0
2024-05-18 22:19:32			0	36209	0	0	0	20989	19580	139877	27528	981205	39757	107696	0	0	8243	642062	0	0
2024-05-18 22:20:32			0	36147	0	0	0	20974	19580	140169	27104	981178	39747	107690	0	0	8240	644770	0	0
2024-05-18 22:21:32			0	36122	0	0	0	20948	19570	140305	27270	981162	39757	107680	0	0	8239	645900	0	0
2024-05-18 22:22:32			0	36069	0	0	0	20924	19570	140465	27571	981056	39746	107671	0	0	8236	648225	0	0
2024-05-18 22:23:32			0	36042	0	0	0	20914	19560	140633	27590	981066	39734	107667	0	0	8235	649447	0	0
2024-05-18 22:24:32			0	36025	0	0	0	20911	19560	140685	27196	981057	39745	107666	0	0	8234	650195	0	0
2024-05-18 22:25:32			0	36010	0	0	0	20909	19560	140709	27620	981031	39722	107665	0	0	8234	650856	0	0
2024-05-18 22:26:32			0	36019	0	0	0	20906	19550	140737	27140	981014	39744	107664	0	0	8234	650495	0	0
2024-05-18 22:27:32			0	36022	0	0	0	20901	19550	140685	27069	980996	39744	107662	0	0	8234	650363	0	0
2024-05-18 22:28:32			0	36049	0	0	0	20903	19540	140641	27339	980997	39743	107663	0	0	8236	649211	0	0
2024-05-18 22:29:32			0	36053	0	0	0	20896	19540	140625	27123	981005	39753	107660	0	0	8236	649035	0	0
2024-05-18 22:30:32			0	36053	0	0	0	20901	19540	140593	27171	980944	39732	107662	0	0	8236	649035	0	0
2024-05-18 22:31:32			0	36051	0	0	0	20906	19520	140665	27381	980919	39741	107664	0	0	8236	649195	0	0
2024-05-18 22:32:32			0	36016	0	0	0	20893	19510	140661	27114	980955	39751	107659	0	0	8234	650770	0	0
2024-05-18 22:33:32			0	36004	0	0	0	20896	19520	140785	27176	980893	39719	107660	0	0	8233	651263	0	0
2024-05-18 22:34:32			0	35985	0	0	0	20903	19510	140909	27168	980876	39740	107663	0	0	8232	652137	0	0
2024-05-18 22:35:32			0	35973	0	0	0	20890	19520	140937	27334	980911	39741	107658	0	0	8232	652630	0	0
2024-05-18 22:36:32			0	35952	0	0	0	20898	19520	141005	27431	980937	39741	107661	0	0	8230	653558	0	0
2024-05-18 22:37:32			0	35962	0	0	0	20896	19520	141021	27452	980946	39730	107660	0	0	8231	653116	0	0
2024-05-18 22:38:32			0	35944	0	0	0	20893	19510	140953	27419	980894	39729	107659	0	0	8230	653947	0	0
2024-05-18 22:39:32			0	35954	0	0	0	20893	19520	140901	27041	980911	39751	107659	0	0	8231	653469	0	0
2024-05-18 22:40:32			0	35988	0	0	0	20890	19510	140849	27435	980876	39729	107658	0	0	8232	652004	0	0
2024-05-18 22:41:32			0	36026	0	0	0	20906	19510	140737	27422	980902	39729	107664	0	0	8234	650330	0	0
2024-05-18 22:42:32			0	36064	0	0	0	20888	19500	140581	27104	980806	39739	107657	0	0	8237	648694	0	0
2024-05-18 22:43:32			0	36094	0	0	0	20890	19500	140421	27402	980886	39728	107658	0	0	8238	647377	0	0
2024-05-18 22:44:32			0	36172	0	0	0	20888	19510	140157	27270	980868	39740	107657	0	0	8242	643925	0	0
2024-05-18 22:45:32			0	36212	0	0	0	20890	19500	139985	27336	980878	39739	107658	0	0	8244	642213	0	0
2024-05-18 22:46:32			0	36279	0	0	0	20890	19500	139717	26717	980824	39739	107658	0	0	8248	639295	0	0
2024-05-18 22:47:32			0	36294	0	0	0	20880	19480	139645	26935	980853	39726	107654	0	0	8249	638713	0	0
2024-05-18 22:48:32			0	36332	0	0	0	20890	19500	139537	27150	980878	39739	107658	0	0	8251	636992	0	0
2024-05-18 22:49:32			0	36337	0	0	0	20883	19500	139697	27166	980859	39739	107655	0	0	8251	636775	0	0
2024-05-18 22:50:32			0	36349	0	0	0	20880	19500	139481	26908	980806	39739	107654	0	0	8252	636255	0	0
2024-05-18 22:51:32			0	36371	0	0	0	20877	19490	139485	27372	980861	39750	107653	0	0	8253	635337	0	0
2024-05-18 22:52:32			0	36373	0	0	0	20880	19500	139469	27282	980851	39739	107654	0	0	8253	635215	0	0
2024-05-18 22:53:32			0	36382	0	0	0	20883	19500	139433	27429	980878	39750	107655	0	0	8254	634825	0	0
2024-05-18 22:54:32			0	36376	0	0	0	20880	19480	139521	27365	980826	39738	107654	0	0	8253	635155	0	0
2024-05-18 22:55:32			0	36381	0	0	0	20883	19490	139469	27206	980808	39750	107655	0	0	8254	634903	0	0
2024-05-18 22:56:32			0	36382	0	0	0	20893	19480	139421	27085	980765	39737	107659	0	0	8253	634895	0	0
2024-05-18 22:57:32			0	36392	0	0	0	20888	19480	139309	27428	980818	39714	107657	0	0	8254	634462	0	0
2024-05-18 22:58:32			0	36406	0	0	0	20883	19480	139253	27279	980818	39726	107655	0	0	8255	633857	0	0
2024-05-18 22:59:32			0	36431	0	0	0	20885	19480	139229	27486	980826	39738	107656	0	0	8256	632776	0	0
2024-05-18 23:00:32			0	36458	0	0	0	20888	19480	139177	27556	980791	39737	107657	0	0	8258	631611	0	0
2024-05-18 23:01:32			0	36479	0	0	0	20888	19480	138961	27187	980791	39726	107657	0	0	8259	630706	0	0
2024-05-18 23:02:32			0	36490	0	0	0	20883	19500	138937	27170	980824	39750	107655	0	0	8259	630162	0	0
2024-05-18 23:03:32			0	36523	0	0	0	20885	19490	138853	27464	980808	39739	107656	0	0	8261	628777	0	0
2024-05-18 23:04:32			0	36542	0	0	0	20885	19480	138745	27582	980773	39726	107656	0	0	8262	627995	0	0
2024-05-18 23:05:32			0	36564	0	0	0	20877	19480	138701	27547	980773	39738	107653	0	0	8263	627050	0	0
2024-05-18 23:06:32			0	36588	0	0	0	20875	19480	138637	27376	980791	39737	107652	0	0	8265	626021	0	0
2024-05-18 23:07:32			0	36607	0	0	0	20872	19480	138558	27213	980799	39749	107651	0	0	8266	625207	0	0
2024-05-18 23:08:32			0	36609	0	0	0	20880	19480	138622	27336	980765	39737	107654	0	0	8266	625121	0	0
2024-05-18 23:09:32			0	36616	0	0	0	20883	19470	138486	27327	980774	39736	107655	0	0	8266	624856	0	0
2024-05-18 23:10:32			0	36629	0	0	0	20883	19480	138450	27680	980799	39738	107655	0	0	8267	624265	0	0
2024-05-18 23:11:32			0	36614	0	0	0	20877	19470	138486	27197	980801	39736	107653	0	0	8266	624941	0	0
2024-05-18 23:12:32			0	36639	0	0	0	20880	19470	138502	27320	980809	39769	107654	0	0	8267	623871	0	0
2024-05-18 23:13:32			0	36672	0	0	0	20880	19480	138410	27280	980765	39737	107654	0	0	8269	622427	0	0
2024-05-18 23:14:32			0	36700	0	0	0	20870	19470	138334	27015	980809	39748	107650	0	0	8271	621266	0	0
2024-05-18 23:15:32			0	36688	0	0	0	20870	19470	138214	27485	980836	39726	107650	0	0	8270	621778	0	0
2024-05-18 23:16:32			0	36737	0	0	0	20875	19470	138054	27345	980756	39737	107652	0	0	8273	619690	0	0
2024-05-18 23:17:32			0	36749	0	0	0	20872	19480	137910	27514	980818	39737	107651	0	0	8273	619145	0	0
2024-05-18 23:18:32			0	36773	0	0	0	20885	19480	137942	27367	980773	39738	107656	0	0	8274	618124	0	0
2024-05-18 23:19:32			0	36774	0	0	0	20890	19460	137794	27308	980792	39736	107658	0	0	8274	618150	0	0
2024-05-18 23:20:32			0	36788	0	0	0	20903	19470	137702	27383	980774	39736	107663	0	0	8275	617521	0	0
2024-05-18 23:21:32			0	36786	0	0	0	20901	19480	137790	27178	980791	39737	107662	0	0	8275	617572	0	0
2024-05-18 23:22:32			0	36797	0	0	0	20893	19480	137906	27303	980818	39737	107659	0	0	8275	617105	0	0
2024-05-18 23:23:32			0	36786	0	0	0	20914	19470	137958	27204	980836	39726	107667	0	0	8274	617606	0	0
2024-05-18 23:24:32			0	36758	0	0	0	20909	19470	137966	27111	980862	39737	107665	0	0	8273	618796	0	0
2024-05-18 23:25:32			0	36699	0	0	0	20916	19490	138154	26889	980887	39739	107668	0	0	8270	621240	0	0
2024-05-18 23:26:32			0	36700	0	0	0	20914	19490	138230	27355	980914	39727	107667	0	0	8270	621198	0	0
2024-05-18 23:27:32			0	36674	0	0	0	20919	19500	138362	27048	980824	39728	107669	0	0	8269	622273	0	0
2024-05-18 23:28:32			0	36637	0	0	0	20914	19490	138294	27083	980861	39739	107667	0	0	8267	623888	0	0
2024-05-18 23:29:32			0	36642	0	0	0	20914	19500	138434	27348	980904	39728	107667	0	0	8267	623640	0	0
2024-05-18 23:30:32			0	36628	0	0	0	20909	19500	138398	27511	980957	39739	107665	0	0	8266	624239	0	0
2024-05-18 23:31:32			0	36625	0	0	0	20909	19500	138406	27332	980912	39739	107665	0	0	8266	624367	0	0
2024-05-18 23:32:32			0	36624	0	0	0	20909	19500	138370	27403	980904	39750	107665	0	0	8266	624410	0	0
2024-05-18 23:33:32			0	36620	0	0	0	20909	19500	138482	27331	980886	39728	107665	0	0	8266	624581	0	0
2024-05-18 23:34:32			0	36609	0	0	0	20906	19500	138502	27289	980957	39739	107664	0	0	8265	625052	0	0
2024-05-18 23:35:32			0	36595	0	0	0	20898	19510	138466	27159	980921	39751	107661	0	0	8265	625617	0	0
2024-05-18 23:36:32			0	36579	0	0	0	20898	19500	138541	27407	980931	39750	107661	0	0	8264	626338	0	0
2024-05-18 23:37:32			0	36561	0	0	0	20903	19500	138685	27308	980939	39739	107663	0	0	8263	627110	0	0
2024-05-18 23:38:32			0	36563	0	0	0	20906	19500	138709	27098	980939	39739	107664	0	0	8263	627024	0	0
2024-05-18 23:39:32			0	36566	0	0	0	20903	19510	138589	27606	980947	39740	107663	0	0	8263	626861	0	0
2024-05-18 23:40:32			0	36549	0	0	0	20896	19500	138721	27573	980939	39739	107660	0	0	8262	627625	0	0
2024-05-18 23:41:32			0	36555	0	0	0	20903	19500	138801	27265	980965	39739	107663	0	0	8263	627368	0	0
2024-05-18 23:42:32			0	36532	0	0	0	20901	19490	138709	27457	980887	39739	107662	0	0	8261	628390	0	0
2024-05-18 23:43:32			0	36533	0	0	0	20893	19510	138749	27412	980921	39740	107659	0	0	8262	628278	0	0
2024-05-18 23:44:32			0	36537	0	0	0	20890	19500	138753	27215	980878	39739	107658	0	0	8262	628141	0	0
2024-05-18 23:45:32			0	36506	0	0	0	20901	19510	138761	27315	980947	39729	107662	0	0	8260	629439	0	0
2024-05-18 23:46:32			0	36507	0	0	0	20890	19500	138813	27126	980939	39750	107658	0	0	8260	629431	0	0
2024-05-18 23:47:32			0	36479	0	0	0	20896	19500	138881	27457	980859	39739	107660	0	0	8259	630636	0	0
2024-05-18 23:48:32			0	36469	0	0	0	20893	19500	139005	27514	980912	39750	107659	0	0	8258	631067	0	0
2024-05-18 23:49:32			0	36462	0	0	0	20883	19500	138997	27412	980931	39750	107655	0	0	8258	631369	0	0
2024-05-18 23:50:32			0	36432	0	0	0	20883	19510	139133	27492	980947	39729	107655	0	0	8256	632629	0	0
2024-05-18 23:51:32			0	36408	0	0	0	20875	19500	139189	27279	980931	39739	107652	0	0	8255	633701	0	0
2024-05-18 23:52:32			0	36380	0	0	0	20877	19500	139237	27362	980859	39739	107653	0	0	8254	634912	0	0
2024-05-18 23:53:32			0	36363	0	0	0	20880	19500	139397	27123	980912	39750	107654	0	0	8253	635648	0	0
2024-05-18 23:54:32			0	36335	0	0	0	20875	19500	139509	27235	980806	39750	107652	0	0	8251	636862	0	0
2024-05-18 23:55:32			0	36314	0	0	0	20870	19480	139505	27438	980826	39726	107650	0	0	8250	637844	0	0
2024-05-18 23:56:32			0	36307	0	0	0	20859	19480	139601	27474	980853	39726	107646	0	0	8250	638148	0	0
2024-05-18 23:57:32			0	36287	0	0	0	20859	19470	139601	27182	980836	39758	107646	0	0	8249	639052	0	0
2024-05-18 23:58:32			0	36240	0	0	0	20862	19480	139689	27301	980765	39737	107647	0	0	8246	641063	0	0
2024-05-18 23:59:32			0	36235	0	0	0	20849	19460	139813	27462	980713	39725	107642	0	0	8246	641351	0	0
2024-05-19 00:00:32			0	36192	0	0	0	20831	19470	139909	27620	980721	39736	107635	0	0	8244	643193	0	0
2024-05-19 00:01:32			0	36183	0	0	0	20828	19450	140057	27310	980714	39734	107634	0	0	8244	643657	0	0
2024-05-19 00:02:32			0	36149	0	0	0	20831	19460	140045	27303	980678	39735	107635	0	0	8242	645108	0	0
2024-05-19 00:03:32			0	36127	0	0	0	20823	19450	140213	27569	980670	39724	107632	0	0	8241	646108	0	0
2024-05-19 00:04:32			0	36088	0	0	0	20823	19450	140309	27505	980670	39735	107632	0	0	8239	647818	0	0
2024-05-19 00:05:32			0	36029	0	0	0	20823	19450	140557	27279	980661	39745	107632	0	0	8236	650412	0	0
2024-05-19 00:06:32			0	35941	0	0	0	20828	19450	141033	27595	980608	39734	107634	0	0	8231	654295	0	0
2024-05-19 00:07:32			0	35816	0	0	0	20828	19440	141556	27138	980618	39722	107634	0	0	8224	659875	0	0
2024-05-19 00:08:32			0	35681	0	0	0	20828	19450	142112	27384	980670	39735	107634	0	0	8217	665865	0	0
2024-05-19 00:09:32			0	35526	0	0	0	20818	19440	142636	27393	980627	39745	107630	0	0	8208	672868	0	0
2024-05-19 00:10:32			0	35418	0	0	0	20833	19440	143140	27280	980618	39745	107636	0	0	8202	677754	0	0
2024-05-19 00:11:32			0	35319	0	0	0	20831	19430	143544	27289	980628	39744	107635	0	0	8197	682293	0	0
2024-05-19 00:12:32			0	35221	0	0	0	20828	19440	143852	27410	980671	39733	107634	0	0	8191	686733	0	0
2024-05-19 00:13:32			0	35196	0	0	0	20823	19440	144040	27270	980565	39722	107632	0	0	8190	687879	0	0
2024-05-19 00:14:32			0	35134	0	0	0	20823	19430	144300	27344	980575	39721	107632	0	0	8187	690765	0	0
2024-05-19 00:15:32			0	35072	0	0	0	20820	19430	144319	27189	980636	39722	107631	0	0	8183	693621	0	0
2024-05-19 00:16:32			0	35073	0	0	0	20825	19430	144447	27611	980575	39721	107633	0	0	8183	693575	0	0
2024-05-19 00:17:32			0	35037	0	0	0	20828	19420	144587	27124	980558	39720	107634	0	0	8181	695276	0	0
2024-05-19 00:18:32			0	35020	0	0	0	20820	19430	144659	27310	980575	39732	107631	0	0	8181	696024	0	0
2024-05-19 00:19:32			0	35004	0	0	0	20823	19430	144755	27161	980628	39721	107632	0	0	8180	696764	0	0
2024-05-19 00:20:32			0	34977	0	0	0	20823	19430	144811	27303	980575	39732	107632	0	0	8178	698015	0	0
2024-05-19 00:21:32			0	34980	0	0	0	20818	19430	144879	27334	980575	39732	107630	0	0	8178	697876	0	0
2024-05-19 00:22:32			0	34971	0	0	0	20818	19420	144931	27369	980567	39732	107630	0	0	8178	698332	0	0
2024-05-19 00:23:32			0	34953	0	0	0	20810	19430	144903	27310	980575	39732	107627	0	0	8177	699129	0	0
2024-05-19 00:24:32			0	34994	0	0	0	20807	19420	144763	27336	980505	39743	107626	0	0	8179	697266	0	0
2024-05-19 00:25:32			0	35023	0	0	0	20812	19420	144763	27215	980514	39732	107628	0	0	8181	695923	0	0
2024-05-19 00:26:32			0	35045	0	0	0	20815	19420	144607	27428	980532	39732	107629	0	0	8182	694906	0	0
2024-05-19 00:27:32			0	35092	0	0	0	20812	19410	144423	27213	980550	39731	107628	0	0	8185	692775	0	0
2024-05-19 00:28:32			0	35135	0	0	0	20807	19420	144248	27369	980540	39732	107626	0	0	8187	690757	0	0
2024-05-19 00:29:32			0	35195	0	0	0	20807	19420	144104	27341	980593	39732	107626	0	0	8190	688001	0	0
2024-05-19 00:30:32			0	35226	0	0	0	20805	19420	143872	27369	980540	39721	107625	0	0	8192	686580	0	0
2024-05-19 00:31:32			0	35265	0	0	0	20810	19420	143792	27246	980593	39721	107627	0	0	8194	684796	0	0
2024-05-19 00:32:32			0	35285	0	0	0	20807	19410	143720	27334	980524	39731	107626	0	0	8195	683920	0	0
2024-05-19 00:33:32			0	35292	0	0	0	20812	19410	143588	27331	980550	39731	107628	0	0	8196	683600	0	0
2024-05-19 00:34:32			0	35309	0	0	0	20810	19420	143444	27294	980585	39743	107627	0	0	8197	682787	0	0
2024-05-19 00:35:32			0	35352	0	0	0	20807	19420	143516	27372	980532	39732	107626	0	0	8199	680827	0	0
2024-05-19 00:36:32			0	35335	0	0	0	20815	19420	143448	27284	980567	39721	107629	0	0	8198	681602	0	0
2024-05-19 00:37:32			0	35371	0	0	0	20812	19410	143292	27261	980603	39720	107628	0	0	8200	680001	0	0
2024-05-19 00:38:32			0	35372	0	0	0	20802	19400	143296	27412	980533	39731	107624	0	0	8200	679993	0	0
2024-05-19 00:39:32			0	35395	0	0	0	20805	19420	143204	27389	980558	39732	107625	0	0	8201	678873	0	0
2024-05-19 00:40:32			0	35407	0	0	0	20805	19410	143096	27194	980550	39720	107625	0	0	8202	678365	0	0
2024-05-19 00:41:32			0	35445	0	0	0	20810	19410	142956	27557	980524	39720	107627	0	0	8204	676642	0	0
2024-05-19 00:42:32			0	35449	0	0	0	20812	19410	142992	27367	980542	39731	107628	0	0	8204	676461	0	0
2024-05-19 00:43:32			0	35462	0	0	0	20807	19410	142816	27121	980489	39720	107626	0	0	8205	675872	0	0
2024-05-19 00:44:32			0	35501	0	0	0	20805	19400	142708	27249	980480	39752	107625	0	0	8207	674145	0	0
2024-05-19 00:45:32			0	35523	0	0	0	20810	19410	142676	27109	980577	39731	107627	0	0	8208	673115	0	0
2024-05-19 00:46:32			0	35538	0	0	0	20799	19410	142536	27183	980515	39752	107623	0	0	8209	672438	0	0
2024-05-19 00:47:32			0	35568	0	0	0	20810	19410	142484	27407	980515	39708	107627	0	0	8211	671086	0	0
2024-05-19 00:48:32			0	35571	0	0	0	20805	19400	142508	27343	980446	39730	107625	0	0	8211	670988	0	0
2024-05-19 00:49:32			0	35597	0	0	0	20799	19400	142308	27576	980480	39720	107623	0	0	8212	669818	0	0
2024-05-19 00:50:32			0	35624	0	0	0	20799	19400	142364	27203	980507	39731	107623	0	0	8214	668604	0	0
2024-05-19 00:51:32			0	35620	0	0	0	20802	19400	142256	27183	980507	39731	107624	0	0	8214	668784	0	0
2024-05-19 00:52:32			0	35633	0	0	0	20805	19400	142256	27476	980533	39731	107625	0	0	8214	668200	0	0
2024-05-19 00:53:32			0	35647	0	0	0	20802	19400	142120	27331	980446	39730	107624	0	0	8215	667572	0	0
2024-05-19 00:54:32			0	35643	0	0	0	20794	19400	142188	27428	980446	39730	107621	0	0	8215	667751	0	0
2024-05-19 00:55:32			0	35672	0	0	0	20794	19400	142216	27616	980552	39730	107621	0	0	8217	666451	0	0
2024-05-19 00:56:32			0	35662	0	0	0	20797	19400	142184	27419	980472	39708	107622	0	0	8216	666899	0	0
2024-05-19 00:57:32			0	35665	0	0	0	20799	19400	142148	27628	980507	39720	107623	0	0	8216	666764	0	0
2024-05-19 00:58:32			0	35662	0	0	0	20792	19400	142120	27384	980525	39741	107620	0	0	8216	666899	0	0
2024-05-19 00:59:32			0	35647	0	0	0	20799	19400	142136	27374	980446	39730	107623	0	0	8215	667572	0	0
2024-05-19 01:00:32			0	35649	0	0	0	20789	19400	142264	27402	980507	39720	107619	0	0	8215	667482	0	0
2024-05-19 01:01:32			0	35641	0	0	0	20799	19400	142160	27602	980480	39720	107623	0	0	8215	667841	0	0
2024-05-19 01:02:32			0	35640	0	0	0	20797	19390	142280	27256	980464	39718	107622	0	0	8215	667923	0	0
2024-05-19 01:03:32			0	35659	0	0	0	20799	19390	142220	27331	980411	39718	107623	0	0	8216	667070	0	0
2024-05-19 01:04:32			0	35674	0	0	0	20794	19390	142096	27194	980437	39729	107621	0	0	8217	666398	0	0
2024-05-19 01:05:32			0	35696	0	0	0	20794	19390	142060	27433	980464	39740	107621	0	0	8218	665413	0	0
2024-05-19 01:06:32			0	35696	0	0	0	20789	19390	141988	27616	980437	39729	107619	0	0	8218	665413	0	0
2024-05-19 01:07:32			0	35724	0	0	0	20794	19400	141948	27718	980472	39741	107621	0	0	8219	664124	0	0
2024-05-19 01:08:32			0	35728	0	0	0	20799	19390	141852	27341	980490	39729	107623	0	0	8219	663981	0	0
2024-05-19 01:09:32			0	35730	0	0	0	20794	19390	141944	27222	980490	39729	107621	0	0	8220	663892	0	0
2024-05-19 01:10:32			0	35719	0	0	0	20792	19390	141932	27279	980437	39729	107620	0	0	8219	664384	0	0
2024-05-19 01:11:32			0	35728	0	0	0	20786	19400	141896	27235	980472	39741	107618	0	0	8220	663945	0	0
2024-05-19 01:12:32			0	35744	0	0	0	20784	19390	141844	27052	980384	39708	107617	0	0	8221	663267	0	0
2024-05-19 01:13:32			0	35741	0	0	0	20779	19390	141876	27196	980411	39740	107615	0	0	8220	663401	0	0
2024-05-19 01:14:32			0	35731	0	0	0	20776	19380	141960	27313	980412	39728	107614	0	0	8220	663884	0	0
2024-05-19 01:15:32			0	35731	0	0	0	20768	19390	141980	27053	980402	39740	107611	0	0	8220	663847	0	0
2024-05-19 01:16:32			0	35731	0	0	0	20766	19390	141988	27431	980402	39718	107610	0	0	8220	663847	0	0
2024-05-19 01:17:32			0	35733	0	0	0	20774	19380	141944	27263	980421	39729	107613	0	0	8220	663794	0	0
2024-05-19 01:18:32			0	35713	0	0	0	20758	19390	141980	27395	980349	39729	107607	0	0	8219	664652	0	0
2024-05-19 01:19:32			0	35728	0	0	0	20755	19380	141956	27111	980306	39739	107606	0	0	8220	664018	0	0
2024-05-19 01:20:32			0	35737	0	0	0	20761	19390	141872	27228	980376	39729	107608	0	0	8221	663579	0	0
2024-05-19 01:21:32			0	35722	0	0	0	20763	19370	141904	27301	980351	39727	107609	0	0	8220	664323	0	0
2024-05-19 01:22:32			0	35747	0	0	0	20745	19360	141788	27138	980387	39715	107602	0	0	8221	663242	0	0
2024-05-19 01:23:32			0	35724	0	0	0	20742	19370	141808	27322	980404	39727	107601	0	0	8220	664233	0	0
2024-05-19 01:24:32			0	35744	0	0	0	20742	19370	141864	27336	980325	39706	107601	0	0	8221	663339	0	0
2024-05-19 01:25:32			0	35745	0	0	0	20732	19360	141836	26981	980308	39726	107597	0	0	8221	663331	0	0
2024-05-19 01:26:32			0	35734	0	0	0	20735	19360	141784	27409	980263	39727	107598	0	0	8221	663823	0	0
2024-05-19 01:27:32			0	35759	0	0	0	20735	19350	141816	27346	980300	39738	107598	0	0	8222	662743	0	0
2024-05-19 01:28:32			0	35781	0	0	0	20737	19360	141808	27246	980255	39726	107599	0	0	8223	661725	0	0
2024-05-19 01:29:32			0	35778	0	0	0	20735	19350	141732	27258	980273	39715	107598	0	0	8223	661895	0	0
2024-05-19 01:30:32			0	35795	0	0	0	20740	19350	141716	27154	980326	39715	107600	0	0	8224	661137	0	0
2024-05-19 01:31:32			0	35819	0	0	0	20737	19340	141656	27490	980256	39713	107599	0	0	8225	660105	0	0
2024-05-19 01:32:32			0	35842	0	0	0	20727	19340	141448	27013	980283	39713	107595	0	0	8227	659082	0	0
2024-05-19 01:33:32			0	35853	0	0	0	20732	19340	141368	27045	980230	39703	107597	0	0	8227	658593	0	0
2024-05-19 01:34:32			0	35906	0	0	0	20719	19350	141309	27433	980185	39714	107592	0	0	8230	656205	0	0
2024-05-19 01:35:32			0	35927	0	0	0	20722	19340	141073	27164	980230	39725	107593	0	0	8231	655311	0	0
2024-05-19 01:36:32			0	35971	0	0	0	20716	19330	140941	27329	980240	39713	107591	0	0	8234	653401	0	0
2024-05-19 01:37:32			0	35996	0	0	0	20711	19330	140877	27471	980213	39713	107589	0	0	8235	652297	0	0
2024-05-19 01:38:32			0	36027	0	0	0	20724	19330	140701	27133	980160	39736	107594	0	0	8237	650930	0	0
2024-05-19 01:39:32			0	36052	0	0	0	20716	19340	140709	27220	980195	39725	107591	0	0	8238	649793	0	0
2024-05-19 01:40:32			0	36093	0	0	0	20716	19320	140577	27313	980170	39712	107591	0	0	8240	648062	0	0
2024-05-19 01:41:32			0	36101	0	0	0	20716	19340	140441	27434	980221	39725	107591	0	0	8241	647639	0	0
2024-05-19 01:42:32			0	36140	0	0	0	20719	19330	140297	27358	980152	39724	107592	0	0	8243	645964	0	0
2024-05-19 01:43:32			0	36176	0	0	0	20714	19330	140269	27123	980152	39724	107590	0	0	8245	644388	0	0
2024-05-19 01:44:32			0	36207	0	0	0	20719	19320	140165	27575	980117	39723	107592	0	0	8246	643067	0	0
2024-05-19 01:45:32			0	36227	0	0	0	20706	19320	139977	27376	980223	39723	107587	0	0	8248	642194	0	0
2024-05-19 01:46:32			0	36261	0	0	0	20711	19330	139833	27275	980125	39724	107589	0	0	8249	640676	0	0
2024-05-19 01:47:32			0	36300	0	0	0	20706	19330	139785	27242	980125	39724	107587	0	0	8252	638978	0	0
2024-05-19 01:48:32			0	36319	0	0	0	20719	19310	139669	26826	980180	39712	107592	0	0	8252	638222	0	0
2024-05-19 01:49:32			0	36339	0	0	0	20706	19310	139577	27237	980100	39712	107587	0	0	8254	637354	0	0
2024-05-19 01:50:32			0	36348	0	0	0	20709	19310	139485	26805	980100	39723	107588	0	0	8254	636963	0	0
2024-05-19 01:51:32			0	36358	0	0	0	20696	19320	139513	27157	980170	39723	107583	0	0	8255	636494	0	0
2024-05-19 01:52:32			0	36368	0	0	0	20706	19310	139605	27258	980118	39711	107587	0	0	8255	636095	0	0
2024-05-19 01:53:32			0	36350	0	0	0	20698	19300	139521	27249	980163	39721	107584	0	0	8254	636911	0	0
2024-05-19 01:54:32			0	36352	0	0	0	20696	19310	139433	27249	980047	39734	107583	0	0	8254	636789	0	0
2024-05-19 01:55:32			0	36394	0	0	0	20696	19310	139457	26821	980180	39712	107583	0	0	8257	634969	0	0
2024-05-19 01:56:32			0	36372	0	0	0	20693	19310	139353	27190	980118	39711	107582	0	0	8256	635922	0	0
2024-05-19 01:57:32			0	36390	0	0	0	20683	19300	139457	27045	980137	39721	107578	0	0	8257	635177	0	0
2024-05-19 01:58:32			0	36395	0	0	0	20688	19310	139425	27452	980100	39712	107580	0	0	8257	634925	0	0
2024-05-19 01:59:32			0	36420	0	0	0	20675	19300	139229	27138	980084	39721	107575	0	0	8258	633878	0	0
2024-05-19 02:00:32			0	36435	0	0	0	20672	19300	139237	27268	980110	39710	107574	0	0	8259	633230	0	0
2024-05-19 02:01:32			0	36434	0	0	0	20677	19300	139333	27124	980031	39721	107576	0	0	8259	633273	0	0
2024-05-19 02:02:32			0	36449	0	0	0	20672	19280	139173	26909	979944	39708	107574	0	0	8260	632694	0	0
2024-05-19 02:03:32			0	36430	0	0	0	20675	19290	139277	27185	980032	39709	107575	0	0	8259	633481	0	0
2024-05-19 02:04:32			0	36454	0	0	0	20680	19290	139165	27291	980085	39699	107577	0	0	8260	632444	0	0
2024-05-19 02:05:32			0	36433	0	0	0	20685	19280	139173	27270	979997	39719	107579	0	0	8259	633386	0	0
2024-05-19 02:06:32			0	36445	0	0	0	20683	19290	139165	27079	980032	39720	107578	0	0	8259	632832	0	0
2024-05-19 02:07:32			0	36455	0	0	0	20677	19290	139229	27026	980006	39720	107576	0	0	8260	632400	0	0
2024-05-19 02:08:32			0	36428	0	0	0	20675	19290	139257	26993	980006	39720	107575	0	0	8259	633567	0	0
2024-05-19 02:09:32			0	36429	0	0	0	20675	19270	139229	27112	980034	39719	107575	0	0	8259	633593	0	0
2024-05-19 02:10:32			0	36416	0	0	0	20675	19280	139309	27147	979971	39719	107575	0	0	8258	634121	0	0
2024-05-19 02:11:32			0	36426	0	0	0	20667	19280	139405	27507	979989	39708	107572	0	0	8259	633688	0	0
2024-05-19 02:12:32			0	36412	0	0	0	20680	19280	139269	27242	979971	39719	107577	0	0	8258	634294	0	0
2024-05-19 02:13:32			0	36425	0	0	0	20672	19280	139329	27222	980015	39719	107574	0	0	8259	633732	0	0
2024-05-19 02:14:32			0	36434	0	0	0	20670	19280	139341	27000	980015	39708	107573	0	0	8259	633343	0	0
2024-05-19 02:15:32			0	36422	0	0	0	20667	19280	139337	26896	979997	39731	107572	0	0	8258	633861	0	0
2024-05-19 02:16:32			0	36424	0	0	0	20662	19280	139317	27196	979936	39708	107570	0	0	8259	633775	0	0
2024-05-19 02:17:32			0	36402	0	0	0	20662	19280	139329	26916	979989	39719	107570	0	0	8258	634727	0	0
2024-05-19 02:18:32			0	36402	0	0	0	20654	19280	139405	27072	979962	39708	107567	0	0	8258	634727	0	0
2024-05-19 02:19:32			0	36405	0	0	0	20657	19260	139393	26906	979938	39718	107568	0	0	8258	634667	0	0
2024-05-19 02:20:32			0	36370	0	0	0	20657	19270	139437	27438	979972	39697	107568	0	0	8256	636148	0	0
2024-05-19 02:21:32			0	36365	0	0	0	20659	19270	139589	27440	979954	39708	107569	0	0	8256	636365	0	0
2024-05-19 02:22:32			0	36352	0	0	0	20664	19270	139501	27474	979972	39708	107571	0	0	8255	636929	0	0
2024-05-19 02:23:32			0	36328	0	0	0	20657	19270	139617	27145	979946	39730	107568	0	0	8254	637971	0	0
2024-05-19 02:24:32			0	36325	0	0	0	20649	19260	139661	27249	979938	39707	107565	0	0	8254	638137	0	0
2024-05-19 02:25:32			0	36311	0	0	0	20664	19260	139737	27402	979938	39696	107571	0	0	8253	638745	0	0
2024-05-19 02:26:32			0	36297	0	0	0	20659	19260	139777	27329	979956	39717	107569	0	0	8252	639354	0	0
2024-05-19 02:27:32			0	36303	0	0	0	20654	19260	139817	27222	979938	39707	107567	0	0	8252	639093	0	0
2024-05-19 02:28:32			0	36293	0	0	0	20664	19260	139841	27126	979964	39707	107571	0	0	8252	639529	0	0
2024-05-19 02:29:32			0	36294	0	0	0	20667	19260	139857	27315	979938	39718	107572	0	0	8252	639485	0	0
2024-05-19 02:30:32			0	36258	0	0	0	20659	19260	139949	27183	979964	39718	107569	0	0	8250	641053	0	0
2024-05-19 02:31:32			0	36249	0	0	0	20670	19270	139945	27173	979919	39719	107573	0	0	8249	641410	0	0
2024-05-19 02:32:32			0	36244	0	0	0	20670	19260	139937	27331	980017	39718	107573	0	0	8249	641664	0	0
2024-05-19 02:33:32			0	36221	0	0	0	20667	19270	140013	27223	979919	39719	107572	0	0	8248	642632	0	0
2024-05-19 02:34:32			0	36190	0	0	0	20662	19270	140113	27237	979954	39719	107570	0	0	8246	643987	0	0
2024-05-19 02:35:32			0	36165	0	0	0	20664	19260	140285	27067	979938	39707	107571	0	0	8245	645117	0	0
2024-05-19 02:36:32			0	36141	0	0	0	20667	19270	140433	27275	979919	39730	107572	0	0	8243	646133	0	0
2024-05-19 02:37:32			0	36095	0	0	0	20670	19260	140521	27307	979903	39717	107573	0	0	8241	648187	0	0
2024-05-19 02:38:32			0	36048	0	0	0	20672	19260	140741	27105	979911	39707	107574	0	0	8238	650255	0	0
2024-05-19 02:39:32			0	35990	0	0	0	20680	19260	140921	27320	979964	39707	107577	0	0	8235	652812	0	0
2024-05-19 02:40:32			0	35954	0	0	0	20701	19260	141057	27260	979982	39717	107585	0	0	8233	654404	0	0
2024-05-19 02:41:32			0	35914	0	0	0	20696	19260	141341	27090	979911	39707	107583	0	0	8231	656175	0	0
2024-05-19 02:42:32			0	35866	0	0	0	20690	19260	141505	27131	979964	39718	107581	0	0	8228	658305	0	0
2024-05-19 02:43:32			0	35825	0	0	0	20672	19260	141532	27185	979991	39707	107574	0	0	8226	660128	0	0
2024-05-19 02:44:32			0	35780	0	0	0	20672	19270	141624	27183	979954	39697	107574	0	0	8224	662097	0	0
2024-05-19 02:45:32			0	35785	0	0	0	20670	19260	141700	26998	979956	39728	107573	0	0	8224	661910	0	0
2024-05-19 02:46:32			0	35768	0	0	0	20685	19260	141816	26968	979964	39718	107579	0	0	8223	662669	0	0
2024-05-19 02:47:32			0	35761	0	0	0	20680	19260	141852	27256	979911	39718	107577	0	0	8223	662981	0	0
2024-05-19 02:48:32			0	35727	0	0	0	20670	19250	141932	26984	979886	39728	107573	0	0	8221	664537	0	0
2024-05-19 02:49:32			0	35670	0	0	0	20662	19270	142068	27111	979919	39719	107570	0	0	8218	667017	0	0
2024-05-19 02:50:32			0	35657	0	0	0	20667	19260	142164	27556	979956	39707	107572	0	0	8217	667636	0	0
2024-05-19 02:51:32			0	35639	0	0	0	20698	19270	142296	27431	979999	39719	107584	0	0	8216	668408	0	0
2024-05-19 02:52:32			0	35592	0	0	0	20701	19270	142492	27606	979919	39719	107585	0	0	8213	670521	0	0
2024-05-19 02:53:32			0	35574	0	0	0	20688	19260	142520	27417	979938	39729	107580	0	0	8212	671369	0	0
2024-05-19 02:54:32			0	35560	0	0	0	20670	19260	142572	27350	979991	39729	107573	0	0	8212	672000	0	0
2024-05-19 02:55:32			0	35560	0	0	0	20677	19260	142488	27616	979964	39718	107576	0	0	8212	672000	0	0
2024-05-19 02:56:32			0	35588	0	0	0	20693	19270	142608	27388	979981	39719	107582	0	0	8213	670701	0	0
2024-05-19 02:57:32			0	35575	0	0	0	20706	19270	142496	27265	979954	39719	107587	0	0	8212	671287	0	0
2024-05-19 02:58:32			0	35585	0	0	0	20703	19270	142436	27182	979972	39719	107586	0	0	8213	670836	0	0
2024-05-19 02:59:32			0	35641	0	0	0	20693	19270	142312	27100	979972	39719	107582	0	0	8216	668318	0	0
2024-05-19 03:00:32			0	35648	0	0	0	20690	19270	142240	27505	980007	39719	107581	0	0	8216	668004	0	0
2024-05-19 03:01:32			0	35656	0	0	0	20706	19280	142184	27255	979989	39719	107587	0	0	8217	667608	0	0
2024-05-19 03:02:32			0	35695	0	0	0	20693	19280	142140	27306	980015	39708	107582	0	0	8219	665860	0	0
2024-05-19 03:03:32			0	35670	0	0	0	20688	19270	142136	27119	979981	39708	107580	0	0	8218	667017	0	0
2024-05-19 03:04:32			0	35643	0	0	0	20685	19270	142224	27426	979981	39708	107579	0	0	8216	668228	0	0
2024-05-19 03:05:32			0	35621	0	0	0	20688	19260	142352	27209	979991	39718	107580	0	0	8215	669254	0	0
2024-05-19 03:06:32			0	35585	0	0	0	20701	19260	142344	27024	979982	39717	107585	0	0	8213	670873	0	0
2024-05-19 03:07:32			0	35577	0	0	0	20683	19270	142548	27204	979972	39719	107578	0	0	8213	671197	0	0
2024-05-19 03:08:32			0	35557	0	0	0	20677	19270	142604	27365	979972	39719	107576	0	0	8212	672098	0	0
2024-05-19 03:09:32			0	35561	0	0	0	20683	19270	142700	27190	979981	39708	107578	0	0	8212	671918	0	0
2024-05-19 03:10:32			0	35523	0	0	0	20690	19270	142728	27576	980007	39719	107581	0	0	8210	673633	0	0
2024-05-19 03:11:32			0	35528	0	0	0	20703	19270	142780	27239	979954	39730	107586	0	0	8210	673407	0	0
2024-05-19 03:12:32			0	35530	0	0	0	20696	19270	142816	27281	979981	39730	107583	0	0	8210	673317	0	0
2024-05-19 03:13:32			0	35524	0	0	0	20706	19270	142816	27497	979972	39708	107587	0	0	8209	673587	0	0
2024-05-19 03:14:32			0	35528	0	0	0	20706	19280	142744	27017	980024	39731	107587	0	0	8210	673370	0	0
2024-05-19 03:15:32			0	35532	0	0	0	20709	19280	142812	27124	980015	39719	107588	0	0	8210	673189	0	0
2024-05-19 03:16:32			0	35522	0	0	0	20711	19270	142748	27329	980007	39719	107589	0	0	8209	673678	0	0
2024-05-19 03:17:32			0	35494	0	0	0	20714	19270	142736	27395	980034	39719	107590	0	0	8208	674943	0	0
2024-05-19 03:18:32			0	35466	0	0	0	20716	19280	142936	26845	980130	39708	107591	0	0	8206	676174	0	0
2024-05-19 03:19:32			0	35419	0	0	0	20714	19290	143176	27202	980085	39732	107590	0	0	8204	678268	0	0
2024-05-19 03:20:32			0	35329	0	0	0	20716	19290	143520	27154	980112	39732	107591	0	0	8199	682362	0	0
2024-05-19 03:21:32			0	35263	0	0	0	20719	19280	143744	27512	980024	39719	107592	0	0	8195	685414	0	0
2024-05-19 03:22:32			0	35177	0	0	0	20719	19280	144140	27012	980050	39719	107592	0	0	8190	689357	0	0
2024-05-19 03:23:32			0	35084	0	0	0	20714	19290	144387	27452	980085	39732	107590	0	0	8185	693601	0	0
2024-05-19 03:24:32			0	35022	0	0	0	20711	19280	144751	27327	980015	39719	107589	0	0	8182	696505	0	0
2024-05-19 03:25:32			0	34934	0	0	0	20703	19280	145035	27576	980024	39731	107586	0	0	8177	700588	0	0
2024-05-19 03:26:32			0	34868	0	0	0	20703	19280	145307	27377	979971	39719	107586	0	0	8173	703662	0	0
2024-05-19 03:27:32			0	34821	0	0	0	20688	19280	145543	27301	979989	39719	107580	0	0	8171	705858	0	0
2024-05-19 03:28:32			0	34801	0	0	0	20664	19280	145683	27241	979989	39719	107571	0	0	8170	706793	0	0
2024-05-19 03:29:32			0	34780	0	0	0	20625	19270	145875	27277	979901	39719	107556	0	0	8170	707816	0	0
2024-05-19 03:30:32			0	34728	0	0	0	20589	19260	145923	27351	979850	39707	107542	0	0	8167	710295	0	0
2024-05-19 03:31:32			0	34730	0	0	0	20633	19240	146019	27504	979816	39715	107559	0	0	8167	710279	0	0
2024-05-19 03:32:32			0	34719	0	0	0	20644	19240	146023	27072	979798	39716	107563	0	0	8166	710796	0	0
2024-05-19 03:33:32			0	34726	0	0	0	20625	19230	145887	27739	979800	39715	107556	0	0	8167	710506	0	0
2024-05-19 03:34:32			0	34745	0	0	0	20599	19240	145875	27100	979763	39715	107546	0	0	8168	709574	0	0
2024-05-19 03:35:32			0	34724	0	0	0	20586	19240	146059	27100	979745	39716	107541	0	0	8167	710561	0	0
2024-05-19 03:36:32			0	34734	0	0	0	20568	19230	145907	27215	979667	39715	107534	0	0	8168	710130	0	0
2024-05-19 03:37:32			0	34720	0	0	0	20584	19220	145891	27438	979712	39725	107540	0	0	8167	710827	0	0
2024-05-19 03:38:32			0	34744	0	0	0	20581	19210	145883	27095	979616	39712	107539	0	0	8168	709738	0	0
2024-05-19 03:39:32			0	34748	0	0	0	20599	19210	145891	27397	979660	39702	107546	0	0	8168	709550	0	0
2024-05-19 03:40:32			0	34794	0	0	0	20584	19220	145791	27538	979650	39713	107540	0	0	8171	707354	0	0
2024-05-19 03:41:32			0	34789	0	0	0	20586	19210	145771	27296	979669	39702	107541	0	0	8171	707627	0	0
2024-05-19 03:42:32			0	34789	0	0	0	20592	19210	145731	27415	979713	39712	107543	0	0	8171	707627	0	0
2024-05-19 03:43:32			0	34794	0	0	0	20610	19210	145855	27511	979634	39702	107550	0	0	8171	707393	0	0
2024-05-19 03:44:32			0	34748	0	0	0	20615	19200	145919	27152	979678	39702	107552	0	0	8168	709589	0	0
2024-05-19 03:45:32			0	34725	0	0	0	20623	19210	146011	27538	979713	39712	107555	0	0	8166	710631	0	0
2024-05-19 03:46:32			0	34721	0	0	0	20631	19210	145995	27502	979775	39712	107558	0	0	8166	710819	0	0
2024-05-19 03:47:32			0	34733	0	0	0	20625	19200	146019	27293	979705	39702	107556	0	0	8167	710294	0	0
2024-05-19 03:48:32			0	34762	0	0	0	20628	19200	145971	27493	979705	39712	107557	0	0	8168	708932	0	0
2024-05-19 03:49:32			0	34769	0	0	0	20620	19200	145847	27327	979697	39712	107554	0	0	8169	708604	0	0
2024-05-19 03:50:32			0	34781	0	0	0	20607	19200	145855	27514	979731	39712	107549	0	0	8170	708041	0	0
2024-05-19 03:51:32			0	34782	0	0	0	20628	19200	145815	27493	979670	39701	107557	0	0	8169	707994	0	0
2024-05-19 03:52:32			0	34762	0	0	0	20662	19200	145851	27372	979705	39724	107570	0	0	8168	708932	0	0
2024-05-19 03:53:32			0	34761	0	0	0	20670	19210	145995	27727	979766	39712	107573	0	0	8168	708940	0	0
2024-05-19 03:54:32			0	34748	0	0	0	20685	19210	145911	27360	979775	39712	107579	0	0	8167	709550	0	0
2024-05-19 03:55:32			0	34728	0	0	0	20698	19210	146007	27352	979819	39712	107584	0	0	8165	710490	0	0
2024-05-19 03:56:32			0	34711	0	0	0	20693	19220	146051	27348	979862	39713	107582	0	0	8165	711250	0	0
2024-05-19 03:57:32			0	34695	0	0	0	20706	19230	146099	27540	979906	39737	107587	0	0	8163	711964	0	0
2024-05-19 03:58:32			0	34685	0	0	0	20701	19230	146135	27403	979879	39715	107585	0	0	8163	712435	0	0
2024-05-19 03:59:32			0	34653	0	0	0	20685	19240	146139	27644	979904	39716	107579	0	0	8162	713904	0	0
2024-05-19 04:00:32			0	34651	0	0	0	20672	19240	146247	27272	979922	39726	107574	0	0	8162	713998	0	0
2024-05-19 04:01:32			0	34634	0	0	0	20683	19250	146323	27644	979913	39717	107578	0	0	8161	714761	0	0
2024-05-19 04:02:32			0	34609	0	0	0	20696	19240	146455	27502	979975	39715	107583	0	0	8159	715982	0	0
2024-05-19 04:03:32			0	34581	0	0	0	20701	19250	146535	27545	979966	39728	107585	0	0	8157	717267	0	0
2024-05-19 04:04:32			0	34575	0	0	0	20709	19260	146575	27561	980009	39728	107588	0	0	8157	717512	0	0
2024-05-19 04:05:32			0	34546	0	0	0	20714	19250	146615	27327	980027	39739	107590	0	0	8155	718926	0	0
2024-05-19 04:06:32			0	34534	0	0	0	20677	19260	146655	27599	980044	39718	107576	0	0	8155	719455	0	0
2024-05-19 04:07:32			0	34545	0	0	0	20672	19270	146511	27424	980025	39719	107574	0	0	8156	718894	0	0
2024-05-19 04:08:32			0	34560	0	0	0	20659	19270	146667	27762	980034	39751	107569	0	0	8157	718183	0	0
2024-05-19 04:09:32			0	34559	0	0	0	20651	19280	146531	27514	980015	39730	107566	0	0	8157	718191	0	0
2024-05-19 04:10:32			0	34573	0	0	0	20636	19270	146443	27481	979999	39719	107560	0	0	8158	717567	0	0
2024-05-19 04:11:32			0	34597	0	0	0	20644	19260	146387	27422	979929	39707	107563	0	0	8159	716471	0	0
2024-05-19 04:12:32			0	34603	0	0	0	20667	19260	146327	27253	979964	39729	107572	0	0	8159	716187	0	0
2024-05-19 04:13:32			0	34606	0	0	0	20672	19270	146415	27388	980025	39730	107574	0	0	8159	716006	0	0
2024-05-19 04:14:32			0	34603	0	0	0	20675	19260	146287	27371	979964	39718	107575	0	0	8159	716187	0	0
2024-05-19 04:15:32			0	34613	0	0	0	20664	19280	146411	27490	980015	39730	107571	0	0	8160	715636	0	0
2024-05-19 04:16:32			0	34599	0	0	0	20664	19270	146351	27150	980025	39719	107571	0	0	8159	716337	0	0
2024-05-19 04:17:32			0	34581	0	0	0	20662	19270	146491	27293	979999	39719	107570	0	0	8158	717188	0	0
2024-05-19 04:18:32			0	34577	0	0	0	20675	19270	146539	27315	980007	39719	107575	0	0	8158	717378	0	0
2024-05-19 04:19:32			0	34551	0	0	0	20680	19290	146655	27441	980059	39709	107577	0	0	8156	718531	0	0
2024-05-19 04:20:32			0	34529	0	0	0	20685	19280	146755	27474	980068	39730	107579	0	0	8155	719614	0	0
2024-05-19 04:21:32			0	34537	0	0	0	20683	19280	146635	27300	980077	39719	107578	0	0	8155	719234	0	0
2024-05-19 04:22:32			0	34513	0	0	0	20701	19280	146663	27296	980050	39731	107585	0	0	8154	720373	0	0
2024-05-19 04:23:32			0	34531	0	0	0	20688	19300	146603	27388	980181	39732	107580	0	0	8155	719440	0	0
2024-05-19 04:24:32			0	34564	0	0	0	20698	19290	146579	27332	980165	39720	107584	0	0	8157	717915	0	0
2024-05-19 04:25:32			0	34594	0	0	0	20698	19290	146403	27229	980093	39721	107584	0	0	8158	716494	0	0
2024-05-19 04:26:32			0	34624	0	0	0	20696	19290	146271	27218	980146	39721	107583	0	0	8160	715077	0	0
2024-05-19 04:27:32			0	34669	0	0	0	20688	19290	146119	27258	980120	39721	107580	0	0	8163	712954	0	0
2024-05-19 04:28:32			0	34676	0	0	0	20698	19290	145871	27300	980085	39753	107584	0	0	8163	712624	0	0
2024-05-19 04:29:32			0	34723	0	0	0	20693	19290	145943	27441	980120	39732	107582	0	0	8166	710413	0	0
2024-05-19 04:30:32			0	34771	0	0	0	20683	19300	145695	27639	980102	39721	107578	0	0	8168	708121	0	0
2024-05-19 04:31:32			0	34798	0	0	0	20698	19300	145531	27383	980102	39710	107584	0	0	8170	706856	0	0
2024-05-19 04:32:32			0	34847	0	0	0	20688	19290	145339	27357	980120	39732	107580	0	0	8173	704604	0	0
2024-05-19 04:33:32			0	34862	0	0	0	20696	19290	145243	27251	980067	39732	107583	0	0	8173	703903	0	0
2024-05-19 04:34:32			0	34910	0	0	0	20688	19300	145119	27467	980075	39721	107580	0	0	8176	701628	0	0
2024-05-19 04:35:32			0	34930	0	0	0	20675	19300	144927	27559	980102	39721	107575	0	0	8177	700697	0	0
2024-05-19 04:36:32			0	34971	0	0	0	20670	19290	144815	27230	980146	39721	107573	0	0	8180	698831	0	0
2024-05-19 04:37:32			0	35023	0	0	0	20672	19290	144607	27403	980067	39710	107574	0	0	8183	696420	0	0
2024-05-19 04:38:32			0	35013	0	0	0	20657	19290	144471	27720	980085	39743	107568	0	0	8182	696883	0	0
2024-05-19 04:39:32			0	35048	0	0	0	20659	19280	144491	27547	980077	39731	107569	0	0	8184	695302	0	0
2024-05-19 04:40:32			0	35088	0	0	0	20662	19280	144335	27265	980077	39731	107570	0	0	8186	693454	0	0
2024-05-19 04:41:32			0	35090	0	0	0	20670	19280	144331	27550	980077	39719	107573	0	0	8186	693362	0	0
2024-05-19 04:42:32			0	35106	0	0	0	20654	19280	144311	27293	980077	39719	107567	0	0	8187	692624	0	0
2024-05-19 04:43:32			0	35134	0	0	0	20667	19270	144084	27268	980007	39719	107572	0	0	8189	691372	0	0
2024-05-19 04:44:32			0	35154	0	0	0	20677	19280	144092	27407	980015	39730	107576	0	0	8190	690414	0	0
2024-05-19 04:45:32			0	35174	0	0	0	20677	19270	144016	27312	980034	39719	107576	0	0	8191	689532	0	0
2024-05-19 04:46:32			0	35192	0	0	0	20675	19290	143920	27334	980032	39720	107575	0	0	8192	688630	0	0
2024-05-19 04:47:32			0	35210	0	0	0	20664	19280	143808	27374	980103	39731	107571	0	0	8193	687842	0	0
2024-05-19 04:48:32			0	35235	0	0	0	20685	19280	143768	27526	980024	39719	107579	0	0	8194	686696	0	0
2024-05-19 04:49:32			0	35249	0	0	0	20664	19280	143696	27326	980024	39708	107571	0	0	8195	686055	0	0
2024-05-19 04:50:32			0	35278	0	0	0	20664	19280	143616	27692	980042	39719	107571	0	0	8197	684728	0	0
2024-05-19 04:51:32			0	35297	0	0	0	20657	19270	143500	27209	980060	39730	107568	0	0	8198	683897	0	0
2024-05-19 04:52:32			0	35342	0	0	0	20664	19280	143320	27350	980015	39719	107571	0	0	8200	681807	0	0
2024-05-19 04:53:32			0	35354	0	0	0	20664	19280	143168	27533	980042	39719	107571	0	0	8201	681260	0	0
2024-05-19 04:54:32			0	35364	0	0	0	20664	19280	143172	27422	980015	39730	107571	0	0	8201	680805	0	0
2024-05-19 04:55:32			0	35384	0	0	0	20651	19270	143148	27547	979954	39708	107566	0	0	8203	679932	0	0
2024-05-19 04:56:32			0	35422	0	0	0	20667	19270	143020	27537	979972	39708	107572	0	0	8204	678206	0	0
2024-05-19 04:57:32			0	35430	0	0	0	20664	19270	143020	27594	980025	39719	107571	0	0	8205	677843	0	0
2024-05-19 04:58:32			0	35434	0	0	0	20659	19280	142956	27562	980015	39719	107569	0	0	8205	677624	0	0
2024-05-19 04:59:32			0	35424	0	0	0	20667	19280	143020	27490	980068	39719	107572	0	0	8205	678078	0	0
2024-05-19 05:00:32			0	35393	0	0	0	20667	19270	143068	26937	979972	39730	107572	0	0	8203	679523	0	0
2024-05-19 05:01:32			0	35392	0	0	0	20662	19270	143080	27282	979999	39719	107570	0	0	8203	679569	0	0
2024-05-19 05:02:32			0	35378	0	0	0	20672	19260	143112	27628	979991	39707	107574	0	0	8202	680243	0	0
2024-05-19 05:03:32			0	35358	0	0	0	20664	19270	143216	26987	979999	39730	107571	0	0	8201	681115	0	0
2024-05-19 05:04:32			0	35310	0	0	0	20667	19270	143428	27145	980007	39730	107572	0	0	8198	683304	0	0
2024-05-19 05:05:32			0	35296	0	0	0	20664	19270	143600	27336	979972	39730	107571	0	0	8198	683943	0	0
2024-05-19 05:06:32			0	35269	0	0	0	20662	19270	143668	27313	979999	39719	107570	0	0	8196	685177	0	0
2024-05-19 05:07:32			0	35252	0	0	0	20667	19270	143680	27523	980034	39719	107572	0	0	8195	685955	0	0
2024-05-19 05:08:32			0	35226	0	0	0	20654	19280	143724	27128	980095	39719	107567	0	0	8194	687108	0	0
2024-05-19 05:09:32			0	35203	0	0	0	20651	19260	143796	27235	979991	39718	107566	0	0	8193	688239	0	0
2024-05-19 05:10:32			0	35188	0	0	0	20651	19270	143904	27294	979981	39719	107566	0	0	8192	688889	0	0
2024-05-19 05:11:32			0	35165	0	0	0	20633	19270	143860	27523	980007	39708	107559	0	0	8191	689946	0	0
2024-05-19 05:12:32			0	35172	0	0	0	20631	19270	144004	27403	979972	39730	107558	0	0	8191	689624	0	0
2024-05-19 05:13:32			0	35155	0	0	0	20628	19260	143996	27277	979929	39717	107557	0	0	8190	690444	0	0
2024-05-19 05:14:32			0	35160	0	0	0	20607	19260	144068	27289	979929	39707	107549	0	0	8191	690214	0	0
2024-05-19 05:15:32			0	35119	0	0	0	20589	19260	144248	27248	979876	39728	107542	0	0	8189	692101	0	0
2024-05-19 05:16:32			0	35084	0	0	0	20584	19250	144223	27291	979833	39695	107540	0	0	8187	693753	0	0
2024-05-19 05:17:32			0	35084	0	0	0	20579	19250	144331	27414	979833	39695	107538	0	0	8187	693753	0	0
2024-05-19 05:18:32			0	35068	0	0	0	20540	19230	144455	27083	979755	39705	107523	0	0	8187	694568	0	0
2024-05-19 05:19:32			0	35015	0	0	0	20522	19230	144599	27455	979747	39726	107516	0	0	8184	697020	0	0
2024-05-19 05:20:32			0	34998	0	0	0	20524	19210	144667	27459	979589	39702	107517	0	0	8183	697885	0	0
2024-05-19 05:21:32			0	34940	0	0	0	20496	19210	144811	27237	979528	39702	107506	0	0	8181	700578	0	0
2024-05-19 05:22:32			0	34896	0	0	0	20498	19200	145235	27410	979511	39701	107507	0	0	8178	702665	0	0
2024-05-19 05:23:32			0	34861	0	0	0	20480	19200	145255	27528	979511	39701	107500	0	0	8176	704298	0	0
2024-05-19 05:24:32			0	34816	0	0	0	20475	19190	145375	27310	979468	39701	107498	0	0	8174	706440	0	0
2024-05-19 05:25:32			0	34797	0	0	0	20470	19170	145599	27048	979435	39699	107496	0	0	8173	707408	0	0
2024-05-19 05:26:32			0	34751	0	0	0	20459	19160	145775	27256	979418	39698	107492	0	0	8170	709604	0	0
2024-05-19 05:27:32			0	34733	0	0	0	20459	19160	145883	27358	979426	39699	107492	0	0	8169	710450	0	0
2024-05-19 05:28:32			0	34718	0	0	0	20472	19150	145919	27448	979410	39718	107497	0	0	8168	711194	0	0
2024-05-19 05:29:32			0	34732	0	0	0	20480	19150	145923	27706	979401	39696	107500	0	0	8169	710536	0	0
2024-05-19 05:30:32			0	34697	0	0	0	20464	19150	146051	27559	979348	39685	107494	0	0	8167	712182	0	0
2024-05-19 05:31:32			0	34709	0	0	0	20431	19140	145963	27675	979287	39685	107481	0	0	8168	711657	0	0
2024-05-19 05:32:32			0	34728	0	0	0	20418	19130	145947	27400	979236	39694	107476	0	0	8170	710802	0	0
2024-05-19 05:33:32			0	34737	0	0	0	20405	19110	145867	27180	979184	39693	107471	0	0	8170	710457	0	0
2024-05-19 05:34:32			0	34756	0	0	0	20407	19110	145887	27364	979184	39682	107472	0	0	8171	709564	0	0
2024-05-19 05:35:32			0	34743	0	0	0	20410	19100	145851	27426	979159	39693	107473	0	0	8171	710214	0	0
2024-05-19 05:36:32			0	34760	0	0	0	20410	19080	145775	27365	979142	39691	107473	0	0	8171	709493	0	0
2024-05-19 05:37:32			0	34760	0	0	0	20415	19080	145787	27338	979116	39680	107475	0	0	8171	709493	0	0
2024-05-19 05:38:32			0	34786	0	0	0	20399	19080	145623	27341	979063	39669	107469	0	0	8173	708273	0	0
2024-05-19 05:39:32			0	34814	0	0	0	20407	19060	145571	27434	979030	39689	107472	0	0	8174	707038	0	0
2024-05-19 05:40:32			0	34839	0	0	0	20407	19070	145523	27590	979046	39690	107472	0	0	8176	705829	0	0
2024-05-19 05:41:32			0	34855	0	0	0	20402	19060	145527	27384	979056	39678	107470	0	0	8177	705120	0	0
2024-05-19 05:42:32			0	34860	0	0	0	20405	19060	145443	27345	979021	39688	107471	0	0	8177	704886	0	0
2024-05-19 05:43:32			0	34873	0	0	0	20392	19050	145343	27216	978987	39688	107466	0	0	8178	704317	0	0
2024-05-19 05:44:32			0	34896	0	0	0	20397	19050	145363	27190	978987	39700	107468	0	0	8179	703244	0	0
2024-05-19 05:45:32			0	34915	0	0	0	20389	19050	145219	27471	978978	39700	107465	0	0	8180	702358	0	0
2024-05-19 05:46:32			0	34918	0	0	0	20386	19030	145155	27580	978980	39675	107464	0	0	8180	702295	0	0
2024-05-19 05:47:32			0	34925	0	0	0	20399	19030	145103	26986	979006	39698	107469	0	0	8181	701969	0	0
2024-05-19 05:48:32			0	34943	0	0	0	20399	19030	145059	27614	978919	39698	107469	0	0	8182	701131	0	0
2024-05-19 05:49:32			0	34944	0	0	0	20402	19040	145023	27348	978996	39687	107470	0	0	8182	701046	0	0
2024-05-19 05:50:32			0	34964	0	0	0	20384	19030	145011	27279	978980	39687	107463	0	0	8183	700154	0	0
2024-05-19 05:51:32			0	34962	0	0	0	20386	19030	144939	27500	978874	39687	107464	0	0	8183	700247	0	0
2024-05-19 05:52:32			0	34975	0	0	0	20384	19020	144847	27222	978928	39674	107463	0	0	8184	699681	0	0
2024-05-19 05:53:32			0	34994	0	0	0	20386	19020	144931	27296	978937	39686	107464	0	0	8185	698799	0	0
2024-05-19 05:54:32			0	35003	0	0	0	20386	19020	144879	27635	978955	39685	107464	0	0	8185	698381	0	0
2024-05-19 05:55:32			0	35019	0	0	0	20384	19010	144795	27112	978894	39685	107463	0	0	8186	697677	0	0
2024-05-19 05:56:32			0	35016	0	0	0	20379	19020	144843	27460	978928	39685	107461	0	0	8186	697778	0	0
2024-05-19 05:57:32			0	35027	0	0	0	20379	19010	144771	26993	978894	39685	107461	0	0	8186	697306	0	0
2024-05-19 05:58:32			0	35045	0	0	0	20381	19010	144679	27289	978859	39684	107462	0	0	8187	696472	0	0
2024-05-19 05:59:32			0	35066	0	0	0	20379	19010	144559	27173	978841	39685	107461	0	0	8189	695500	0	0
2024-05-19 06:00:32			0	35068	0	0	0	20374	19000	144527	27383	978842	39683	107459	0	0	8189	695445	0	0
2024-05-19 06:01:32			0	35067	0	0	0	20374	19010	144527	27480	978806	39684	107459	0	0	8189	695454	0	0
2024-05-19 06:02:32			0	35087	0	0	0	20368	19000	144427	27267	978869	39683	107457	0	0	8190	694567	0	0
2024-05-19 06:03:32			0	35099	0	0	0	20366	19000	144447	27234	978842	39683	107456	0	0	8191	694013	0	0
2024-05-19 06:04:32			0	35120	0	0	0	20379	19010	144308	27116	978912	39684	107461	0	0	8192	693005	0	0
2024-05-19 06:05:32			0	35126	0	0	0	20376	19000	144296	27414	978816	39672	107460	0	0	8192	692766	0	0
2024-05-19 06:06:32			0	35118	0	0	0	20374	19000	144287	27223	978816	39683	107459	0	0	8192	693135	0	0
2024-05-19 06:07:32			0	35156	0	0	0	20376	19000	144296	27402	978842	39672	107460	0	0	8194	691383	0	0
2024-05-19 06:08:32			0	35152	0	0	0	20371	18990	144192	27595	978834	39694	107458	0	0	8193	691606	0	0
2024-05-19 06:09:32			0	35151	0	0	0	20368	18980	144108	27578	978791	39693	107457	0	0	8193	691689	0	0
2024-05-19 06:10:32			0	35144	0	0	0	20371	18980	144208	27310	978764	39682	107458	0	0	8193	692012	0	0
2024-05-19 06:11:32			0	35167	0	0	0	20366	18990	144160	27298	978781	39694	107456	0	0	8194	690915	0	0
2024-05-19 06:12:32			0	35150	0	0	0	20358	18990	144068	27296	978799	39693	107453	0	0	8194	691698	0	0
2024-05-19 06:13:32			0	35166	0	0	0	20358	18990	144068	27559	978799	39682	107453	0	0	8194	690961	0	0
2024-05-19 06:14:32			0	35193	0	0	0	20358	18990	144120	27538	978773	39682	107453	0	0	8196	689719	0	0
2024-05-19 06:15:32			0	35145	0	0	0	20358	18980	144136	27498	978764	39682	107453	0	0	8193	691966	0	0
2024-05-19 06:16:32			0	35160	0	0	0	20363	18980	144084	27466	978756	39693	107455	0	0	8194	691275	0	0
2024-05-19 06:17:32			0	35174	0	0	0	20358	18980	144120	27147	978791	39693	107453	0	0	8195	690630	0	0
2024-05-19 06:18:32			0	35144	0	0	0	20355	18980	144128	27547	978756	39681	107452	0	0	8193	692012	0	0
2024-05-19 06:19:32			0	35140	0	0	0	20368	18970	144204	27639	978747	39680	107457	0	0	8193	692234	0	0
2024-05-19 06:20:32			0	35134	0	0	0	20379	18980	144172	27367	978791	39682	107461	0	0	8192	692473	0	0
2024-05-19 06:21:32			0	35132	0	0	0	20376	18990	144300	27454	978826	39693	107460	0	0	8192	692527	0	0
2024-05-19 06:22:32			0	35130	0	0	0	20368	18980	144368	27150	978764	39682	107457	0	0	8192	692658	0	0
2024-05-19 06:23:32			0	35099	0	0	0	20374	18970	144315	27504	978800	39680	107459	0	0	8190	694127	0	0
2024-05-19 06:24:32			0	35070	0	0	0	20368	18980	144383	27175	978817	39682	107457	0	0	8189	695429	0	0
2024-05-19 06:25:32			0	35076	0	0	0	20342	18980	144379	27665	978756	39670	107447	0	0	8190	695152	0	0
2024-05-19 06:26:32			0	35083	0	0	0	20340	18980	144467	27365	978756	39693	107446	0	0	8190	694828	0	0
2024-05-19 06:27:32			0	35070	0	0	0	20355	18980	144459	27241	978764	39682	107452	0	0	8189	695429	0	0
2024-05-19 06:28:32			0	35068	0	0	0	20358	18970	144503	27414	978774	39703	107453	0	0	8189	695560	0	0
2024-05-19 06:29:32			0	35063	0	0	0	20350	18970	144503	27313	978774	39669	107450	0	0	8189	695791	0	0
2024-05-19 06:30:32			0	35038	0	0	0	20363	18970	144575	27234	978766	39692	107455	0	0	8187	696949	0	0
2024-05-19 06:31:32			0	35030	0	0	0	20368	18970	144559	27154	978792	39669	107457	0	0	8187	697320	0	0
2024-05-19 06:32:32			0	35033	0	0	0	20384	18970	144663	27168	978766	39669	107463	0	0	8187	697181	0	0
2024-05-19 06:33:32			0	35008	0	0	0	20384	18970	144659	27526	978827	39680	107463	0	0	8185	698340	0	0
2024-05-19 06:34:32			0	34989	0	0	0	20405	18980	144867	27246	978844	39682	107471	0	0	8184	699184	0	0
2024-05-19 06:35:32			0	34974	0	0	0	20433	18980	144907	27511	978870	39705	107482	0	0	8182	699881	0	0
2024-05-19 06:36:32			0	34974	0	0	0	20454	19000	144895	27436	978948	39694	107490	0	0	8182	699804	0	0
2024-05-19 06:37:32			0	34966	0	0	0	20462	19010	144931	27086	978991	39706	107493	0	0	8182	700138	0	0
2024-05-19 06:38:32			0	34957	0	0	0	20477	19010	144967	27668	979026	39696	107499	0	0	8181	700556	0	0
2024-05-19 06:39:32			0	34950	0	0	0	20483	19010	144975	27187	979053	39685	107501	0	0	8180	700882	0	0
2024-05-19 06:40:32			0	34965	0	0	0	20498	19020	144963	27435	979202	39697	107507	0	0	8181	700146	0	0
2024-05-19 06:41:32			0	34957	0	0	0	20511	19030	144959	27270	979131	39719	107512	0	0	8180	700479	0	0
2024-05-19 06:42:32			0	34976	0	0	0	20519	19040	144823	27452	979261	39699	107515	0	0	8181	699558	0	0
2024-05-19 06:43:32			0	35006	0	0	0	20516	19050	144843	27315	979270	39710	107514	0	0	8183	698127	0	0
2024-05-19 06:44:32			0	35004	0	0	0	20529	19060	144771	27511	979233	39700	107519	0	0	8183	698181	0	0
2024-05-19 06:45:32			0	35034	0	0	0	20516	19070	144655	27390	979303	39711	107514	0	0	8185	696752	0	0
2024-05-19 06:46:32			0	35019	0	0	0	20527	19080	144611	27367	979275	39702	107518	0	0	8184	697409	0	0
2024-05-19 06:47:32			0	35037	0	0	0	20529	19080	144531	27552	979275	39724	107519	0	0	8185	696575	0	0
2024-05-19 06:48:32			0	35058	0	0	0	20522	19080	144523	27412	979301	39712	107516	0	0	8186	695603	0	0
2024-05-19 06:49:32			0	35052	0	0	0	20519	19090	144515	27254	979283	39703	107515	0	0	8186	695843	0	0
2024-05-19 06:50:32			0	35037	0	0	0	20514	19090	144671	27150	979363	39703	107513	0	0	8185	696537	0	0
2024-05-19 06:51:32			0	34996	0	0	0	20511	19100	144691	27254	979327	39704	107512	0	0	8183	698399	0	0
2024-05-19 06:52:32			0	34988	0	0	0	20511	19100	144647	27639	979292	39693	107512	0	0	8182	698770	0	0
2024-05-19 06:53:32			0	34969	0	0	0	20519	19100	144807	27409	979292	39704	107515	0	0	8181	699653	0	0
2024-05-19 06:54:32			0	34946	0	0	0	20516	19110	144911	27443	979335	39714	107514	0	0	8180	700684	0	0
2024-05-19 06:55:32			0	34935	0	0	0	20509	19100	145023	27371	979274	39704	107511	0	0	8180	701234	0	0
2024-05-19 06:56:32			0	34917	0	0	0	20509	19100	145035	27412	979327	39704	107511	0	0	8179	702072	0	0
2024-05-19 06:57:32			0	34909	0	0	0	20511	19100	145043	27265	979327	39714	107512	0	0	8178	702445	0	0
2024-05-19 06:58:32			0	34884	0	0	0	20514	19100	145019	27500	979371	39725	107513	0	0	8177	703611	0	0
2024-05-19 06:59:32			0	34926	0	0	0	20514	19110	145043	27521	979361	39704	107513	0	0	8179	701615	0	0
2024-05-19 07:00:32			0	34946	0	0	0	20516	19110	144923	27275	979361	39681	107514	0	0	8180	700684	0	0
2024-05-19 07:01:32			0	34994	0	0	0	20511	19110	144743	27180	979388	39704	107512	0	0	8183	698454	0	0
2024-05-19 07:02:32			0	34998	0	0	0	20511	19110	144703	27201	979255	39704	107512	0	0	8183	698268	0	0
2024-05-19 07:03:32			0	35037	0	0	0	20514	19110	144623	27112	979335	39704	107513	0	0	8185	696460	0	0
2024-05-19 07:04:32			0	35027	0	0	0	20509	19110	144675	27447	979388	39704	107511	0	0	8185	696924	0	0
2024-05-19 07:05:32			0	35048	0	0	0	20514	19100	144563	27232	979353	39704	107513	0	0	8186	695989	0	0
2024-05-19 07:06:32			0	35057	0	0	0	20509	19110	144563	27326	979361	39704	107511	0	0	8186	695535	0	0
2024-05-19 07:07:32			0	35052	0	0	0	20509	19110	144503	27441	979370	39705	107511	0	0	8186	695766	0	0
2024-05-19 07:08:32			0	35047	0	0	0	20506	19110	144347	26852	979335	39704	107510	0	0	8186	695997	0	0
2024-05-19 07:09:32			0	35060	0	0	0	20511	19110	144495	27163	979370	39705	107512	0	0	8186	695396	0	0
2024-05-19 07:10:32			0	35059	0	0	0	20501	19110	144507	27189	979335	39714	107508	0	0	8187	695442	0	0
2024-05-19 07:11:32			0	35051	0	0	0	20506	19110	144515	27050	979343	39715	107510	0	0	8186	695812	0	0
2024-05-19 07:12:32			0	35043	0	0	0	20509	19100	144559	26968	979300	39714	107511	0	0	8186	696221	0	0
2024-05-19 07:13:32			0	35029	0	0	0	20503	19110	144511	27376	979396	39705	107509	0	0	8185	696831	0	0
2024-05-19 07:14:32			0	34982	0	0	0	20506	19120	144747	27147	979299	39706	107510	0	0	8182	698972	0	0
2024-05-19 07:15:32			0	34949	0	0	0	20509	19100	144839	26916	979406	39693	107511	0	0	8180	700583	0	0
2024-05-19 07:16:32			0	34922	0	0	0	20501	19100	144959	27235	979300	39704	107508	0	0	8179	701839	0	0
2024-05-19 07:17:32			0	34889	0	0	0	20511	19110	145151	27391	979370	39693	107512	0	0	8177	703339	0	0
2024-05-19 07:18:32			0	34849	0	0	0	20509	19110	145263	27171	979423	39715	107511	0	0	8175	705207	0	0
2024-05-19 07:19:32			0	34833	0	0	0	20503	19110	145439	27258	979396	39715	107509	0	0	8174	705955	0	0
2024-05-19 07:20:32			0	34793	0	0	0	20503	19100	145627	27350	979327	39704	107509	0	0	8172	707867	0	0
2024-05-19 07:21:32			0	34757	0	0	0	20501	19110	145635	27253	979317	39693	107508	0	0	8170	709517	0	0
2024-05-19 07:22:32			0	34722	0	0	0	20493	19110	145711	27315	979343	39715	107505	0	0	8168	711162	0	0
2024-05-19 07:23:32			0	34733	0	0	0	20490	19100	145795	27180	979292	39704	107504	0	0	8169	710684	0	0
2024-05-19 07:24:32			0	34726	0	0	0	20485	19100	145835	27293	979345	39714	107502	0	0	8168	711013	0	0
2024-05-19 07:25:32			0	34729	0	0	0	20483	19100	145871	27090	979327	39704	107501	0	0	8169	710872	0	0
2024-05-19 07:26:32			0	34719	0	0	0	20485	19100	145915	27138	979247	39714	107502	0	0	8168	711342	0	0
2024-05-19 07:27:32			0	34700	0	0	0	20485	19100	145915	27137	979300	39714	107502	0	0	8167	712237	0	0
2024-05-19 07:28:32			0	34713	0	0	0	20483	19090	145955	27306	979310	39703	107501	0	0	8168	711663	0	0
2024-05-19 07:29:32			0	34698	0	0	0	20470	19110	145899	27008	979335	39693	107496	0	0	8167	712292	0	0
2024-05-19 07:30:32			0	34704	0	0	0	20470	19100	145943	27211	979300	39704	107496	0	0	8167	712048	0	0
2024-05-19 07:31:32			0	34688	0	0	0	20467	19090	145931	27248	979257	39692	107495	0	0	8166	712841	0	0
2024-05-19 07:32:32			0	34683	0	0	0	20454	19080	146007	27256	979222	39691	107490	0	0	8166	713116	0	0
2024-05-19 07:33:32			0	34676	0	0	0	20457	19080	145975	27171	979187	39701	107491	0	0	8166	713446	0	0
2024-05-19 07:34:32			0	34675	0	0	0	20457	19070	146015	27346	979258	39701	107491	0	0	8166	713532	0	0
2024-05-19 07:35:32			0	34675	0	0	0	20446	19080	146075	27417	979214	39690	107487	0	0	8166	713493	0	0
2024-05-19 07:36:32			0	34657	0	0	0	20444	19080	146127	27343	979222	39702	107486	0	0	8165	714342	0	0
2024-05-19 07:37:32			0	34643	0	0	0	20451	19070	146115	27187	979179	39690	107489	0	0	8164	715042	0	0
2024-05-19 07:38:32			0	34650	0	0	0	20449	19080	146147	27298	979187	39701	107488	0	0	8165	714673	0	0
2024-05-19 07:39:32			0	34657	0	0	0	20451	19070	146171	27104	979223	39690	107489	0	0	8165	714381	0	0
2024-05-19 07:40:32			0	34639	0	0	0	20462	19080	146243	27204	979214	39690	107493	0	0	8164	715192	0	0
2024-05-19 07:41:32			0	34629	0	0	0	20451	19070	146211	27279	979205	39690	107489	0	0	8163	715704	0	0
2024-05-19 07:42:32			0	34632	0	0	0	20451	19080	146203	27225	979195	39702	107489	0	0	8164	715523	0	0
2024-05-19 07:43:32			0	34622	0	0	0	20451	19060	146139	27459	979154	39700	107489	0	0	8163	716074	0	0
2024-05-19 07:44:32			0	34636	0	0	0	20454	19070	146195	27433	979152	39701	107490	0	0	8164	715373	0	0
2024-05-19 07:45:32			0	34667	0	0	0	20457	19050	146199	27346	979199	39700	107491	0	0	8165	713988	0	0
2024-05-19 07:46:32			0	34666	0	0	0	20449	19070	146135	27381	979197	39701	107488	0	0	8165	713957	0	0
2024-05-19 07:47:32			0	34664	0	0	0	20451	19060	146135	27232	979189	39689	107489	0	0	8165	714090	0	0
2024-05-19 07:48:32			0	34661	0	0	0	20464	19060	146107	27317	979242	39711	107494	0	0	8165	714232	0	0
2024-05-19 07:49:32			0	34677	0	0	0	20467	19060	146051	27275	979180	39710	107495	0	0	8166	713477	0	0
2024-05-19 07:50:32			0	34682	0	0	0	20462	19070	146051	27190	979171	39690	107493	0	0	8166	713202	0	0
2024-05-19 07:51:32			0	34679	0	0	0	20462	19070	146019	26987	979250	39711	107493	0	0	8166	713343	0	0
2024-05-19 07:52:32			0	34698	0	0	0	20467	19070	145895	27407	979205	39690	107495	0	0	8167	712448	0	0
2024-05-19 07:53:32			0	34711	0	0	0	20459	19070	145923	27279	979205	39690	107492	0	0	8168	711836	0	0
2024-05-19 07:54:32			0	34721	0	0	0	20459	19080	145839	27400	979187	39701	107492	0	0	8168	711326	0	0
2024-05-19 07:55:32			0	34731	0	0	0	20451	19070	145887	27152	979152	39701	107489	0	0	8169	710895	0	0
2024-05-19 07:56:32			0	34720	0	0	0	20449	19070	145871	27362	979197	39701	107488	0	0	8168	711412	0	0
2024-05-19 07:57:32			0	34736	0	0	0	20446	19060	145895	27346	979189	39700	107487	0	0	8169	710699	0	0
2024-05-19 07:58:32			0	34717	0	0	0	20449	19070	145835	27317	979171	39701	107488	0	0	8168	711553	0	0
2024-05-19 07:59:32			0	34715	0	0	0	20457	19060	145859	27410	979189	39700	107491	0	0	8168	711686	0	0
2024-05-19 08:00:32			0	34723	0	0	0	20457	19070	145931	27222	979171	39701	107491	0	0	8168	711271	0	0
2024-05-19 08:01:32			0	34701	0	0	0	20454	19070	145867	27256	979171	39701	107490	0	0	8167	712307	0	0
2024-05-19 08:02:32			0	34702	0	0	0	20449	19060	145967	27121	979154	39700	107488	0	0	8167	712299	0	0
2024-05-19 08:03:32			0	34716	0	0	0	20454	19060	146083	27306	979127	39700	107490	0	0	8168	711640	0	0
2024-05-19 08:04:32			0	34713	0	0	0	20441	19060	145939	27398	979189	39689	107485	0	0	8168	711781	0	0
2024-05-19 08:05:32			0	34724	0	0	0	20441	19060	145947	27098	979109	39700	107485	0	0	8169	711263	0	0
2024-05-19 08:06:32			0	34728	0	0	0	20446	19060	145887	27152	979109	39722	107487	0	0	8169	711075	0	0
2024-05-19 08:07:32			0	34749	0	0	0	20444	19060	145851	27147	979136	39689	107486	0	0	8170	710088	0	0
2024-05-19 08:08:32			0	34759	0	0	0	20438	19060	145739	26963	979101	39700	107484	0	0	8171	709618	0	0
2024-05-19 08:09:32			0	34768	0	0	0	20428	19060	145659	27315	979136	39689	107480	0	0	8171	709195	0	0
2024-05-19 08:10:32			0	34780	0	0	0	20389	19040	145547	27326	979102	39699	107465	0	0	8173	708710	0	0
2024-05-19 08:11:32			0	34794	0	0	0	20394	19050	145539	27452	979058	39700	107467	0	0	8173	708014	0	0
2024-05-19 08:12:32			0	34834	0	0	0	20384	19060	145371	27300	979101	39677	107463	0	0	8176	706102	0	0
2024-05-19 08:13:32			0	34862	0	0	0	20368	19060	145267	27033	979074	39700	107457	0	0	8178	704793	0	0
2024-05-19 08:14:32			0	34856	0	0	0	20376	19050	145211	27220	979058	39688	107460	0	0	8177	705112	0	0
2024-05-19 08:15:32			0	34901	0	0	0	20392	19050	144987	27407	979066	39700	107466	0	0	8179	703011	0	0
2024-05-19 08:16:32			0	34917	0	0	0	20399	19040	144999	27329	979076	39699	107469	0	0	8180	702303	0	0
2024-05-19 08:17:32			0	34935	0	0	0	20402	19040	144859	27377	979076	39687	107470	0	0	8181	701465	0	0
2024-05-19 08:18:32			0	34965	0	0	0	20376	19050	144807	27119	979084	39700	107460	0	0	8183	700031	0	0
2024-05-19 08:19:32			0	34996	0	0	0	20342	19040	144615	27594	979121	39687	107447	0	0	8185	698629	0	0
2024-05-19 08:20:32			0	35032	0	0	0	20335	19030	144555	27376	979025	39687	107444	0	0	8188	696998	0	0
2024-05-19 08:21:32			0	35061	0	0	0	20316	19030	144315	27364	979025	39698	107437	0	0	8189	695655	0	0
2024-05-19 08:22:32			0	35084	0	0	0	20337	19020	144123	27222	979016	39686	107445	0	0	8190	694630	0	0
2024-05-19 08:23:32			0	35107	0	0	0	20374	19020	144244	27474	978981	39674	107459	0	0	8191	693567	0	0
2024-05-19 08:24:32			0	35117	0	0	0	20381	19020	144108	27194	979069	39708	107462	0	0	8191	693105	0	0
2024-05-19 08:25:32			0	35124	0	0	0	20376	19020	143984	27403	978955	39696	107460	0	0	8192	692782	0	0
2024-05-19 08:26:32			0	35134	0	0	0	20329	19020	144000	27322	978963	39686	107442	0	0	8193	692321	0	0
2024-05-19 08:27:32			0	35153	0	0	0	20309	19020	143920	27163	978955	39696	107434	0	0	8195	691446	0	0
2024-05-19 08:28:32			0	35158	0	0	0	20311	19020	143940	27431	978928	39696	107435	0	0	8195	691215	0	0
2024-05-19 08:29:32			0	35147	0	0	0	20316	19010	143896	27376	978894	39674	107437	0	0	8194	691760	0	0
2024-05-19 08:30:32			0	35146	0	0	0	20309	19010	143904	27352	978832	39684	107434	0	0	8194	691806	0	0
2024-05-19 08:31:32			0	35154	0	0	0	20324	19010	143972	27364	978832	39684	107440	0	0	8194	691438	0	0
2024-05-19 08:32:32			0	35129	0	0	0	20322	19000	144032	27194	978877	39684	107439	0	0	8193	692628	0	0
2024-05-19 08:33:32			0	35101	0	0	0	20298	19000	144055	27249	978851	39695	107430	0	0	8192	693920	0	0
2024-05-19 08:34:32			0	35105	0	0	0	20296	18990	144151	27313	978852	39671	107429	0	0	8192	693773	0	0
2024-05-19 08:35:32			0	35090	0	0	0	20277	18980	144255	27020	978711	39671	107422	0	0	8192	694505	0	0
2024-05-19 08:36:32			0	35092	0	0	0	20270	18990	144215	27544	978720	39671	107419	0	0	8192	694374	0	0
2024-05-19 08:37:32			0	35099	0	0	0	20257	18960	144235	27417	978625	39680	107414	0	0	8192	694165	0	0
2024-05-19 08:38:32			0	35080	0	0	0	20233	18970	144275	27549	978588	39669	107405	0	0	8192	695005	0	0
2024-05-19 08:39:32			0	35074	0	0	0	20241	18960	144255	27346	978590	39668	107408	0	0	8191	695320	0	0
2024-05-19 08:40:32			0	35069	0	0	0	20236	18940	144279	27189	978539	39667	107406	0	0	8191	695628	0	0
2024-05-19 08:41:32			0	35068	0	0	0	20225	18940	144243	27223	978565	39667	107402	0	0	8191	695674	0	0
2024-05-19 08:42:32			0	35049	0	0	0	20223	18940	144343	27441	978618	39667	107401	0	0	8190	696554	0	0
2024-05-19 08:43:32			0	35060	0	0	0	20233	18940	144363	27111	978557	39667	107405	0	0	8190	696044	0	0
2024-05-19 08:44:32			0	35040	0	0	0	20238	18930	144499	27303	978601	39677	107407	0	0	8189	697009	0	0
2024-05-19 08:45:32			0	35029	0	0	0	20254	18940	144527	27230	978689	39667	107413	0	0	8188	697481	0	0
2024-05-19 08:46:32			0	34996	0	0	0	20257	18940	144619	27602	978618	39667	107414	0	0	8186	699012	0	0
2024-05-19 08:47:32			0	35029	0	0	0	20246	18940	144655	27178	978583	39667	107410	0	0	8188	697481	0	0
2024-05-19 08:48:32			0	35016	0	0	0	20249	18940	144727	27526	978618	39667	107411	0	0	8188	698084	0	0
2024-05-19 08:49:32			0	35000	0	0	0	20270	18930	144671	27490	978620	39666	107419	0	0	8186	698865	0	0
2024-05-19 08:50:32			0	34991	0	0	0	20301	18940	144715	27381	978636	39678	107431	0	0	8185	699244	0	0
2024-05-19 08:51:32			0	34996	0	0	0	20293	18940	144687	27258	978724	39667	107428	0	0	8186	699012	0	0
2024-05-19 08:52:32			0	34978	0	0	0	20324	18940	144739	27348	978724	39678	107440	0	0	8184	699849	0	0
2024-05-19 08:53:32			0	34969	0	0	0	20358	18950	144803	27552	978732	39668	107453	0	0	8183	700229	0	0
2024-05-19 08:54:32			0	34975	0	0	0	20371	18960	144779	27173	978775	39691	107458	0	0	8183	699911	0	0
2024-05-19 08:55:32			0	34981	0	0	0	20374	18970	144775	27490	978845	39680	107459	0	0	8184	699594	0	0
2024-05-19 08:56:32			0	34978	0	0	0	20376	18970	144779	27251	978827	39692	107460	0	0	8184	699733	0	0
2024-05-19 08:57:32			0	34977	0	0	0	20381	18970	144763	27343	978827	39692	107462	0	0	8183	699780	0	0
2024-05-19 08:58:32			0	34994	0	0	0	20405	18980	144759	27320	978941	39670	107471	0	0	8184	698952	0	0
2024-05-19 08:59:32			0	34999	0	0	0	20418	18980	144787	27048	978941	39670	107476	0	0	8184	698720	0	0
2024-05-19 09:00:32			0	34995	0	0	0	20449	18980	144611	27595	978923	39682	107488	0	0	8183	698906	0	0
2024-05-19 09:01:32			0	35031	0	0	0	20459	18990	144431	27296	978958	39693	107492	0	0	8185	697197	0	0
2024-05-19 09:02:32			0	35083	0	0	0	20454	19000	144323	27336	979036	39695	107490	0	0	8188	694752	0	0
2024-05-19 09:03:32			0	35096	0	0	0	20451	19010	144263	27324	979071	39695	107489	0	0	8189	694113	0	0
2024-05-19 09:04:32			0	35103	0	0	0	20433	19020	144267	27175	979061	39707	107482	0	0	8190	693752	0	0
2024-05-19 09:05:32			0	35085	0	0	0	20441	19020	144263	27407	979016	39697	107485	0	0	8189	694583	0	0
2024-05-19 09:06:32			0	35097	0	0	0	20457	19020	144271	27360	979016	39697	107491	0	0	8189	694029	0	0
2024-05-19 09:07:32			0	35072	0	0	0	20451	19030	144323	27339	979112	39698	107489	0	0	8188	695146	0	0
2024-05-19 09:08:32			0	35070	0	0	0	20444	19030	144319	27199	979131	39687	107486	0	0	8188	695239	0	0
2024-05-19 09:09:32			0	35062	0	0	0	20441	19020	144351	27180	979087	39707	107485	0	0	8187	695647	0	0
2024-05-19 09:10:32			0	35050	0	0	0	20431	19020	144383	27327	979087	39696	107481	0	0	8187	696202	0	0
2024-05-19 09:11:32			0	35059	0	0	0	20441	19020	144475	27478	979087	39685	107485	0	0	8187	695786	0	0
2024-05-19 09:12:32			0	35066	0	0	0	20444	19030	144383	27431	979051	39687	107486	0	0	8188	695424	0	0
2024-05-19 09:13:32			0	35058	0	0	0	20438	19030	144475	27365	979086	39698	107484	0	0	8187	695794	0	0
2024-05-19 09:14:32			0	35046	0	0	0	20415	19050	144367	27293	979111	39688	107475	0	0	8187	696273	0	0
2024-05-19 09:15:32			0	35049	0	0	0	20412	19030	144379	27364	979025	39698	107474	0	0	8187	696210	0	0
2024-05-19 09:16:32			0	35040	0	0	0	20389	19020	144431	27438	979043	39686	107465	0	0	8187	696665	0	0
2024-05-19 09:17:32			0	35068	0	0	0	20381	19020	144347	27222	978955	39674	107462	0	0	8189	695369	0	0
2024-05-19 09:18:32			0	35072	0	0	0	20371	19010	144383	27272	978894	39696	107458	0	0	8189	695222	0	0
2024-05-19 09:19:32			0	35074	0	0	0	20366	19010	144315	27171	978912	39673	107456	0	0	8189	695130	0	0
2024-05-19 09:20:32			0	35077	0	0	0	20348	19010	144255	27334	978885	39684	107449	0	0	8190	694991	0	0
2024-05-19 09:21:32			0	35086	0	0	0	20329	19000	144295	27377	978851	39673	107442	0	0	8191	694613	0	0
2024-05-19 09:22:32			0	35092	0	0	0	20314	18990	144343	27225	978773	39682	107436	0	0	8191	694374	0	0
2024-05-19 09:23:32			0	35063	0	0	0	20298	18990	144347	27393	978667	39682	107430	0	0	8190	695715	0	0
2024-05-19 09:24:32			0	35086	0	0	0	20275	18970	144339	27426	978713	39680	107421	0	0	8191	694727	0	0
2024-05-19 09:25:32			0	35093	0	0	0	20267	18970	144315	27329	978607	39680	107418	0	0	8192	694404	0	0
2024-05-19 09:26:32			0	35088	0	0	0	20264	18960	144271	27270	978617	39691	107417	0	0	8192	694673	0	0
2024-05-19 09:27:32			0	35080	0	0	0	20259	18940	144263	27595	978530	39678	107415	0	0	8191	695119	0	0
2024-05-19 09:28:32			0	35097	0	0	0	20254	18930	144167	26979	978522	39656	107413	0	0	8192	694371	0	0
2024-05-19 09:29:32			0	35128	0	0	0	20249	18930	144112	27364	978487	39666	107411	0	0	8194	692940	0	0
2024-05-19 09:30:32			0	35167	0	0	0	20236	18930	144012	27395	978461	39656	107406	0	0	8196	691142	0	0
2024-05-19 09:31:32			0	35199	0	0	0	20238	18910	143828	27338	978489	39665	107407	0	0	8198	689745	0	0
2024-05-19 09:32:32			0	35220	0	0	0	20233	18910	143864	27407	978454	39665	107405	0	0	8199	688780	0	0
2024-05-19 09:33:32			0	35234	0	0	0	20231	18890	143700	27594	978394	39663	107404	0	0	8200	688212	0	0
2024-05-19 09:34:32			0	35235	0	0	0	20228	18890	143708	27324	978429	39673	107403	0	0	8200	688167	0	0
2024-05-19 09:35:32			0	35249	0	0	0	20215	18880	143724	27628	978333	39662	107398	0	0	8201	687562	0	0
2024-05-19 09:36:32			0	35262	0	0	0	20212	18880	143696	27457	978351	39683	107397	0	0	8202	686965	0	0
2024-05-19 09:37:32			0	35238	0	0	0	20205	18870	143712	27545	978361	39649	107394	0	0	8200	688104	0	0
2024-05-19 09:38:32			0	35267	0	0	0	20218	18860	143652	27287	978273	39671	107399	0	0	8202	686812	0	0
2024-05-19 09:39:32			0	35263	0	0	0	20225	18860	143624	27722	978273	39671	107402	0	0	8201	686995	0	0
2024-05-19 09:40:32			0	35272	0	0	0	20238	18860	143688	27467	978318	39681	107407	0	0	8202	686582	0	0
2024-05-19 09:41:32			0	35266	0	0	0	20251	18860	143664	27244	978344	39670	107412	0	0	8201	686857	0	0
2024-05-19 09:42:32			0	35289	0	0	0	20241	18860	143652	27454	978326	39671	107408	0	0	8203	685804	0	0
2024-05-19 09:43:32			0	35294	0	0	0	20238	18870	143672	27379	978361	39671	107407	0	0	8203	685537	0	0
2024-05-19 09:44:32			0	35298	0	0	0	20225	18870	143484	27339	978282	39661	107402	0	0	8203	685354	0	0
2024-05-19 09:45:32			0	35305	0	0	0	20228	18860	143580	27436	978291	39670	107403	0	0	8204	685071	0	0
2024-05-19 09:46:32			0	35284	0	0	0	20228	18870	143540	27436	978308	39671	107403	0	0	8203	685995	0	0
2024-05-19 09:47:32			0	35310	0	0	0	20238	18860	143496	27166	978318	39681	107407	0	0	8204	684842	0	0
2024-05-19 09:48:32			0	35326	0	0	0	20246	18850	143480	27272	978363	39670	107410	0	0	8204	684148	0	0
2024-05-19 09:49:32			0	35314	0	0	0	20254	18850	143424	27568	978283	39681	107413	0	0	8204	684697	0	0
2024-05-19 09:50:32			0	35323	0	0	0	20264	18870	143432	27282	978388	39671	107417	0	0	8204	684210	0	0
2024-05-19 09:51:32			0	35320	0	0	0	20254	18860	143384	27123	978432	39682	107413	0	0	8204	684385	0	0
2024-05-19 09:52:32			0	35321	0	0	0	20262	18860	143364	27279	978379	39671	107416	0	0	8204	684339	0	0
2024-05-19 09:53:32			0	35301	0	0	0	20262	18860	143480	27575	978379	39682	107416	0	0	8203	685254	0	0
2024-05-19 09:54:32			0	35324	0	0	0	20272	18860	143496	27509	978379	39671	107420	0	0	8204	684202	0	0
2024-05-19 09:55:32			0	35309	0	0	0	20262	18860	143472	27668	978353	39671	107416	0	0	8203	684888	0	0
2024-05-19 09:56:32			0	35301	0	0	0	20277	18870	143568	27500	978388	39671	107422	0	0	8203	685217	0	0
2024-05-19 09:57:32			0	35314	0	0	0	20270	18870	143480	27448	978414	39671	107419	0	0	8203	684622	0	0
2024-05-19 09:58:32			0	35317	0	0	0	20267	18880	143592	27492	978431	39672	107418	0	0	8204	684447	0	0
2024-05-19 09:59:32			0	35299	0	0	0	20277	18870	143536	27372	978361	39671	107422	0	0	8203	685308	0	0
2024-05-19 10:00:32			0	35311	0	0	0	20264	18870	143496	27338	978422	39650	107417	0	0	8203	684759	0	0
2024-05-19 10:01:32			0	35313	0	0	0	20270	18880	143544	27587	978404	39672	107419	0	0	8203	684630	0	0
2024-05-19 10:02:32			0	35324	0	0	0	20280	18870	143400	27289	978396	39683	107423	0	0	8204	684165	0	0
2024-05-19 10:03:32			0	35339	0	0	0	20285	18890	143292	27762	978421	39685	107425	0	0	8205	683404	0	0
2024-05-19 10:04:32			0	35339	0	0	0	20293	18880	143188	27206	978510	39672	107428	0	0	8205	683442	0	0
2024-05-19 10:05:32			0	35380	0	0	0	20311	18880	143216	27409	978510	39672	107435	0	0	8206	681571	0	0
2024-05-19 10:06:32			0	35410	0	0	0	20303	18890	143044	27419	978527	39663	107432	0	0	8208	680167	0	0
2024-05-19 10:07:32			0	35449	0	0	0	20296	18890	143032	27353	978535	39673	107429	0	0	8211	678394	0	0
2024-05-19 10:08:32			0	35472	0	0	0	20296	18890	142780	27220	978447	39685	107429	0	0	8212	677350	0	0
2024-05-19 10:09:32			0	35520	0	0	0	20301	18890	142596	27166	978509	39685	107431	0	0	8214	675174	0	0
2024-05-19 10:10:32			0	35554	0	0	0	20301	18890	142472	27234	978509	39673	107431	0	0	8216	673636	0	0
2024-05-19 10:11:32			0	35597	0	0	0	20303	18890	142208	27573	978500	39696	107432	0	0	8218	671695	0	0
2024-05-19 10:12:32			0	35644	0	0	0	20298	18890	142200	27396	978535	39673	107430	0	0	8221	669578	0	0
2024-05-19 10:13:32			0	35629	0	0	0	20296	18890	142116	27765	978535	39673	107429	0	0	8220	670253	0	0
2024-05-19 10:14:32			0	35680	0	0	0	20306	18900	142044	27362	978570	39685	107433	0	0	8223	667923	0	0
2024-05-19 10:15:32			0	35703	0	0	0	20306	18900	141980	27497	978578	39674	107433	0	0	8224	666890	0	0
2024-05-19 10:16:32			0	35706	0	0	0	20316	18910	141816	27367	978560	39675	107437	0	0	8224	666719	0	0
2024-05-19 10:17:32			0	35717	0	0	0	20319	18900	141780	27322	978552	39685	107438	0	0	8225	666262	0	0
2024-05-19 10:18:32			0	35713	0	0	0	20327	18900	141808	27270	978605	39685	107441	0	0	8224	666442	0	0
2024-05-19 10:19:32			0	35730	0	0	0	20335	18910	141704	27597	978674	39698	107444	0	0	8225	665643	0	0
2024-05-19 10:20:32			0	35743	0	0	0	20337	18920	141720	27362	978664	39687	107445	0	0	8226	665024	0	0
2024-05-19 10:21:32			0	35728	0	0	0	20348	18910	141624	27149	978701	39698	107449	0	0	8225	665733	0	0
2024-05-19 10:22:32			0	35736	0	0	0	20353	18930	141776	27537	978707	39688	107451	0	0	8225	665301	0	0
2024-05-19 10:23:32			0	35715	0	0	0	20361	18940	141764	27576	978742	39689	107454	0	0	8224	666206	0	0
2024-05-19 10:24:32			0	35684	0	0	0	20361	18950	141856	27386	978706	39711	107454	0	0	8223	667560	0	0
2024-05-19 10:25:32			0	35712	0	0	0	20371	18940	141892	27410	978751	39700	107458	0	0	8224	666340	0	0
2024-05-19 10:26:32			0	35690	0	0	0	20374	18940	141916	27421	978751	39689	107459	0	0	8223	667327	0	0
2024-05-19 10:27:32			0	35665	0	0	0	20374	18950	141968	27492	978820	39701	107459	0	0	8221	668413	0	0
2024-05-19 10:28:32			0	35656	0	0	0	20394	18950	142104	27341	978767	39690	107467	0	0	8220	668818	0	0
2024-05-19 10:29:32			0	35653	0	0	0	20402	18960	142128	27057	978908	39691	107470	0	0	8220	668916	0	0
2024-05-19 10:30:32			0	35609	0	0	0	20410	18970	142184	27479	978951	39692	107473	0	0	8218	670860	0	0
2024-05-19 10:31:32			0	35611	0	0	0	20420	18980	142260	27166	978968	39693	107477	0	0	8218	670733	0	0
2024-05-19 10:32:32			0	35586	0	0	0	20425	18980	142332	27419	978976	39705	107479	0	0	8216	671860	0	0
2024-05-19 10:33:32			0	35555	0	0	0	20449	18990	142388	27344	979019	39716	107488	0	0	8214	673222	0	0
2024-05-19 10:34:32			0	35549	0	0	0	20431	18990	142472	27329	978993	39694	107481	0	0	8214	673493	0	0
2024-05-19 10:35:32			0	35531	0	0	0	20438	19010	142504	27371	979044	39706	107484	0	0	8213	674233	0	0
2024-05-19 10:36:32			0	35520	0	0	0	20433	19000	142592	27403	978956	39695	107482	0	0	8213	674767	0	0
2024-05-19 10:37:32			0	35505	0	0	0	20431	19000	142568	27467	979028	39705	107481	0	0	8212	675446	0	0
2024-05-19 10:38:32			0	35501	0	0	0	20428	19000	142576	27403	979062	39706	107480	0	0	8212	675627	0	0
2024-05-19 10:39:32			0	35465	0	0	0	20423	19010	142600	27670	979044	39706	107478	0	0	8210	677222	0	0
2024-05-19 10:40:32			0	35460	0	0	0	20436	19010	142696	27796	979097	39695	107483	0	0	8209	677448	0	0
2024-05-19 10:41:32			0	35442	0	0	0	20428	19010	142752	27249	979018	39706	107480	0	0	8208	678265	0	0
2024-05-19 10:42:32			0	35423	0	0	0	20415	19020	142828	27270	979034	39707	107475	0	0	8208	679092	0	0
2024-05-19 10:43:32			0	35411	0	0	0	20415	19010	142908	27376	979026	39707	107475	0	0	8207	679674	0	0
2024-05-19 10:44:32			0	35372	0	0	0	20428	19020	143028	27241	979008	39696	107480	0	0	8205	681413	0	0
2024-05-19 10:45:32			0	35355	0	0	0	20438	19020	143068	27481	979061	39707	107484	0	0	8204	682188	0	0
2024-05-19 10:46:32			0	35331	0	0	0	20418	19020	143316	27443	979043	39718	107476	0	0	8203	683283	0	0
2024-05-19 10:47:32			0	35297	0	0	0	20431	19020	143380	27232	979069	39708	107481	0	0	8200	684836	0	0
2024-05-19 10:48:32			0	35277	0	0	0	20425	19020	143416	27227	979008	39717	107479	0	0	8199	685752	0	0
2024-05-19 10:49:32			0	35263	0	0	0	20433	19030	143528	27301	979086	39687	107482	0	0	8199	686355	0	0
2024-05-19 10:50:32			0	35253	0	0	0	20433	19020	143568	27374	979069	39686	107482	0	0	8198	686851	0	0
2024-05-19 10:51:32			0	35236	0	0	0	20433	19040	143620	27409	979041	39698	107482	0	0	8197	687555	0	0
2024-05-19 10:52:32			0	35195	0	0	0	20428	19030	143724	27727	979131	39698	107480	0	0	8195	689475	0	0
2024-05-19 10:53:32			0	35172	0	0	0	20454	19040	143816	27396	979147	39719	107490	0	0	8193	690495	0	0
2024-05-19 10:54:32			0	35158	0	0	0	20470	19040	143952	27455	979182	39720	107496	0	0	8192	691140	0	0
2024-05-19 10:55:32			0	35127	0	0	0	20464	19060	144052	27244	979180	39721	107494	0	0	8191	692492	0	0
2024-05-19 10:56:32			0	35127	0	0	0	20483	19050	144108	27590	979252	39721	107501	0	0	8190	692530	0	0
2024-05-19 10:57:32			0	35093	0	0	0	20480	19050	144203	27595	979199	39700	107500	0	0	8189	694099	0	0
2024-05-19 10:58:32			0	35089	0	0	0	20467	19070	144295	27405	979303	39701	107495	0	0	8189	694208	0	0
2024-05-19 10:59:32			0	35070	0	0	0	20472	19060	144335	27422	979260	39700	107497	0	0	8187	695124	0	0
2024-05-19 11:00:32			0	35058	0	0	0	20464	19050	144375	27554	979225	39710	107494	0	0	8187	695717	0	0
2024-05-19 11:01:32			0	35031	0	0	0	20475	19060	144483	27557	979215	39711	107498	0	0	8185	696929	0	0
2024-05-19 11:02:32			0	34996	0	0	0	20485	19060	144555	27242	979313	39700	107502	0	0	8183	698553	0	0
2024-05-19 11:03:32			0	34945	0	0	0	20488	19060	144687	27732	979286	39700	107503	0	0	8180	700923	0	0
2024-05-19 11:04:32			0	34921	0	0	0	20490	19070	144775	27616	979329	39734	107504	0	0	8179	702001	0	0
2024-05-19 11:05:32			0	34920	0	0	0	20493	19080	144987	27213	979320	39701	107505	0	0	8179	702010	0	0
2024-05-19 11:06:32			0	34914	0	0	0	20490	19080	144935	27166	979328	39712	107504	0	0	8179	702289	0	0
2024-05-19 11:07:32			0	34877	0	0	0	20516	19070	144915	27388	979364	39723	107514	0	0	8176	704053	0	0
2024-05-19 11:08:32			0	34862	0	0	0	20548	19080	145019	27303	979407	39735	107526	0	0	8175	704715	0	0
2024-05-19 11:09:32			0	34871	0	0	0	20555	19090	145059	27703	979469	39713	107529	0	0	8175	704256	0	0
2024-05-19 11:10:32			0	34852	0	0	0	20599	19100	145259	27291	979539	39725	107546	0	0	8173	705105	0	0
2024-05-19 11:11:32			0	34849	0	0	0	20602	19110	145059	27490	979635	39737	107547	0	0	8173	705207	0	0
2024-05-19 11:12:32			0	34848	0	0	0	20594	19130	145143	27093	979694	39728	107544	0	0	8173	705176	0	0
2024-05-19 11:13:32			0	34853	0	0	0	20568	19140	145147	27242	979658	39717	107534	0	0	8174	704904	0	0
2024-05-19 11:14:32			0	34835	0	0	0	20550	19150	145123	27180	979719	39717	107527	0	0	8174	705707	0	0
2024-05-19 11:15:32			0	34845	0	0	0	20548	19140	145211	27263	979658	39707	107526	0	0	8174	705278	0	0
2024-05-19 11:16:32			0	34831	0	0	0	20576	19150	145171	27357	979701	39708	107537	0	0	8173	705893	0	0
2024-05-19 11:17:32			0	34849	0	0	0	20602	19150	145115	27602	979719	39729	107547	0	0	8173	705052	0	0
2024-05-19 11:18:32			0	34848	0	0	0	20597	19160	145151	27320	979763	39719	107545	0	0	8174	705060	0	0
2024-05-19 11:19:32			0	34845	0	0	0	20581	19170	145095	27524	979779	39709	107539	0	0	8174	705161	0	0
2024-05-19 11:20:32			0	34857	0	0	0	20561	19170	145071	27502	979761	39709	107531	0	0	8175	704601	0	0
2024-05-19 11:21:32			0	34833	0	0	0	20670	19180	145039	27653	979822	39732	107573	0	0	8172	705684	0	0
2024-05-19 11:22:32			0	34846	0	0	0	20667	19200	145095	27248	979909	39723	107572	0	0	8172	704999	0	0
2024-05-19 11:23:32			0	34829	0	0	0	20651	19190	145143	27376	979900	39722	107566	0	0	8172	705832	0	0
2024-05-19 11:24:32			0	34836	0	0	0	20633	19200	145115	27466	979890	39746	107559	0	0	8172	705466	0	0
2024-05-19 11:25:32			0	34834	0	0	0	20623	19220	145035	27504	979915	39747	107555	0	0	8173	705482	0	0
2024-05-19 11:26:32			0	34844	0	0	0	20638	19210	145023	27384	979934	39746	107561	0	0	8173	705053	0	0
2024-05-19 11:27:32			0	34856	0	0	0	20636	19220	144999	27383	979915	39713	107560	0	0	8174	704454	0	0
2024-05-19 11:28:32			0	34856	0	0	0	20623	19210	144911	27303	979986	39724	107555	0	0	8174	704493	0	0
2024-05-19 11:29:32			0	34869	0	0	0	20628	19220	144911	27524	979942	39724	107557	0	0	8174	703847	0	0
2024-05-19 11:30:32			0	34882	0	0	0	20688	19230	144919	27270	980012	39737	107580	0	0	8174	703202	0	0
2024-05-19 11:31:32			0	34876	0	0	0	20683	19240	144935	27440	980063	39738	107578	0	0	8174	703444	0	0
2024-05-19 11:32:32			0	34884	0	0	0	20685	19240	144883	27213	980090	39749	107579	0	0	8174	703070	0	0
2024-05-19 11:33:32			0	34898	0	0	0	20677	19250	144723	27736	980212	39761	107576	0	0	8175	702379	0	0
2024-05-19 11:34:32			0	34920	0	0	0	20688	19260	144795	27500	980194	39739	107580	0	0	8176	701316	0	0
2024-05-19 11:35:32			0	34920	0	0	0	20649	19260	144723	27241	980123	39718	107565	0	0	8177	701316	0	0
2024-05-19 11:36:32			0	34930	0	0	0	20641	19270	144575	27429	980131	39719	107562	0	0	8178	700813	0	0
2024-05-19 11:37:32			0	34942	0	0	0	20651	19260	144543	27592	980115	39739	107566	0	0	8178	700293	0	0
2024-05-19 11:38:32			0	34953	0	0	0	20667	19260	144555	27343	980176	39750	107572	0	0	8179	699782	0	0
2024-05-19 11:39:32			0	34943	0	0	0	20667	19270	144571	27376	980272	39751	107572	0	0	8178	700208	0	0
2024-05-19 11:40:32			0	34921	0	0	0	20719	19290	144603	27313	980271	39753	107592	0	0	8176	701154	0	0
2024-05-19 11:41:32			0	34940	0	0	0	20735	19290	144607	27715	980305	39754	107598	0	0	8177	700271	0	0
2024-05-19 11:42:32			0	34919	0	0	0	20737	19300	144735	27904	980375	39744	107599	0	0	8176	701209	0	0
2024-05-19 11:43:32			0	34879	0	0	0	20732	19310	144771	27634	980418	39755	107597	0	0	8174	703033	0	0
2024-05-19 11:44:32			0	34883	0	0	0	20716	19310	144855	27514	980365	39755	107591	0	0	8174	702847	0	0
2024-05-19 11:45:32			0	34866	0	0	0	20729	19310	144827	27559	980392	39755	107596	0	0	8173	703639	0	0
2024-05-19 11:46:32			0	34852	0	0	0	20761	19320	144959	27699	980453	39745	107608	0	0	8172	704254	0	0
2024-05-19 11:47:32			0	34836	0	0	0	20755	19340	144999	27388	980486	39747	107606	0	0	8171	704924	0	0
2024-05-19 11:48:32			0	34838	0	0	0	20755	19340	145107	27717	980486	39747	107606	0	0	8171	704830	0	0
2024-05-19 11:49:32			0	34819	0	0	0	20735	19330	145047	27502	980417	39756	107598	0	0	8170	705757	0	0
2024-05-19 11:50:32			0	34805	0	0	0	20742	19320	145175	27523	980435	39734	107601	0	0	8169	706451	0	0
2024-05-19 11:51:32			0	34805	0	0	0	20750	19330	145179	27583	980425	39757	107604	0	0	8169	706412	0	0
2024-05-19 11:52:32			0	34787	0	0	0	20755	19330	145099	27661	980478	39747	107606	0	0	8168	707255	0	0
2024-05-19 11:53:32			0	34801	0	0	0	20742	19330	145151	27336	980478	39757	107601	0	0	8169	706599	0	0
2024-05-19 11:54:32			0	34772	0	0	0	20750	19330	145235	27518	980451	39757	107604	0	0	8167	707957	0	0
2024-05-19 11:55:32			0	34744	0	0	0	20768	19350	145339	27248	980503	39758	107611	0	0	8166	709193	0	0
2024-05-19 11:56:32			0	34724	0	0	0	20774	19350	145399	27542	980503	39758	107613	0	0	8164	710132	0	0
2024-05-19 11:57:32			0	34692	0	0	0	20779	19350	145599	27230	980565	39738	107615	0	0	8163	711636	0	0
2024-05-19 11:58:32			0	34676	0	0	0	20779	19360	145699	27329	980573	39759	107615	0	0	8162	712350	0	0
2024-05-19 11:59:32			0	34627	0	0	0	20792	19350	145759	27637	980538	39770	107620	0	0	8159	714699	0	0
2024-05-19 12:00:32			0	34611	0	0	0	20799	19360	145843	27248	980679	39759	107623	0	0	8158	715416	0	0
2024-05-19 12:01:32			0	34605	0	0	0	20776	19390	145839	27549	980641	39762	107614	0	0	8158	715581	0	0
2024-05-19 12:02:32			0	34588	0	0	0	20774	19360	145951	27691	980546	39749	107613	0	0	8157	716503	0	0
2024-05-19 12:03:32			0	34612	0	0	0	20776	19370	145887	27774	980616	39738	107614	0	0	8158	715329	0	0
2024-05-19 12:04:32			0	34607	0	0	0	20781	19360	145899	27646	980581	39760	107616	0	0	8158	715605	0	0
2024-05-19 12:05:32			0	34612	0	0	0	20784	19380	145771	27575	980606	39762	107617	0	0	8158	715290	0	0
2024-05-19 12:06:32			0	34626	0	0	0	20776	19380	145787	27677	980624	39739	107614	0	0	8159	714629	0	0
2024-05-19 12:07:32			0	34616	0	0	0	20768	19370	145923	27180	980643	39750	107611	0	0	8159	715140	0	0
2024-05-19 12:08:32			0	34613	0	0	0	20766	19370	145879	27741	980616	39760	107610	0	0	8158	715282	0	0
2024-05-19 12:09:32			0	34587	0	0	0	20748	19370	145939	27642	980643	39760	107603	0	0	8157	716511	0	0
2024-05-19 12:10:32			0	34583	0	0	0	20755	19390	145955	27454	980615	39762	107606	0	0	8157	716621	0	0
2024-05-19 12:11:32			0	34567	0	0	0	20779	19390	146075	27580	980641	39729	107615	0	0	8156	717378	0	0
2024-05-19 12:12:32			0	34557	0	0	0	20779	19390	146127	27848	980641	39762	107615	0	0	8155	717852	0	0
2024-05-19 12:13:32			0	34540	0	0	0	20786	19390	146043	27519	980694	39750	107618	0	0	8154	718657	0	0
2024-05-19 12:14:32			0	34555	0	0	0	20792	19380	146155	27440	980659	39762	107620	0	0	8155	717986	0	0
2024-05-19 12:15:32			0	34545	0	0	0	20797	19390	146155	27452	980702	39762	107622	0	0	8154	718420	0	0
2024-05-19 12:16:32			0	34534	0	0	0	20807	19390	146203	27637	980694	39750	107626	0	0	8153	718942	0	0
2024-05-19 12:17:32			0	34535	0	0	0	20805	19390	146103	27317	980729	39762	107625	0	0	8154	718894	0	0
2024-05-19 12:18:32			0	34548	0	0	0	20823	19390	146107	27665	980755	39762	107632	0	0	8154	718278	0	0
2024-05-19 12:19:32			0	34579	0	0	0	20823	19390	146079	27521	980729	39762	107632	0	0	8156	716810	0	0
2024-05-19 12:20:32			0	34583	0	0	0	20820	19410	146031	27289	980754	39763	107631	0	0	8156	716542	0	0
2024-05-19 12:21:32			0	34587	0	0	0	20825	19410	145911	27566	980807	39763	107633	0	0	8156	716353	0	0
2024-05-19 12:22:32			0	34589	0	0	0	20805	19410	145875	27989	980807	39752	107625	0	0	8157	716259	0	0
2024-05-19 12:23:32			0	34604	0	0	0	20815	19410	145879	27557	980789	39752	107629	0	0	8157	715550	0	0
2024-05-19 12:24:32			0	34611	0	0	0	20802	19410	145847	27705	980789	39763	107624	0	0	8158	715219	0	0
2024-05-19 12:25:32			0	34617	0	0	0	20789	19410	145823	27854	980815	39763	107619	0	0	8159	714936	0	0
2024-05-19 12:26:32			0	34631	0	0	0	20784	19420	145743	27428	980726	39776	107617	0	0	8159	714236	0	0
2024-05-19 12:27:32			0	34644	0	0	0	20792	19410	145727	27568	980709	39752	107620	0	0	8160	713662	0	0
2024-05-19 12:28:32			0	34647	0	0	0	20815	19410	145699	27838	980736	39752	107629	0	0	8160	713520	0	0
2024-05-19 12:29:32			0	34642	0	0	0	20825	19430	145667	27833	980787	39765	107633	0	0	8159	713678	0	0
2024-05-19 12:30:32			0	34667	0	0	0	20823	19420	145719	27627	980797	39764	107632	0	0	8161	712539	0	0
2024-05-19 12:31:32			0	34645	0	0	0	20805	19420	145743	27549	980832	39776	107625	0	0	8160	713575	0	0
2024-05-19 12:32:32			0	34660	0	0	0	20799	19420	145615	27320	980770	39764	107623	0	0	8161	712869	0	0
2024-05-19 12:33:32			0	34672	0	0	0	20792	19430	145643	27455	980787	39765	107620	0	0	8162	712264	0	0
2024-05-19 12:34:32			0	34673	0	0	0	20794	19420	145611	27621	980850	39764	107621	0	0	8162	712256	0	0
2024-05-19 12:35:32			0	34651	0	0	0	20805	19420	145615	27568	980797	39743	107625	0	0	8160	713293	0	0
2024-05-19 12:36:32			0	34651	0	0	0	20810	19420	145595	27635	980850	39753	107627	0	0	8160	713293	0	0
2024-05-19 12:37:32			0	34646	0	0	0	20807	19430	145643	27209	980787	39765	107626	0	0	8160	713489	0	0
2024-05-19 12:38:32			0	34634	0	0	0	20844	19430	145683	27376	980867	39765	107640	0	0	8159	714055	0	0
2024-05-19 12:39:32			0	34644	0	0	0	20851	19430	145655	27573	980920	39765	107643	0	0	8159	713583	0	0
2024-05-19 12:40:32			0	34636	0	0	0	20831	19430	145643	27679	980848	39766	107635	0	0	8159	713961	0	0
2024-05-19 12:41:32			0	34661	0	0	0	20810	19430	145631	27876	980875	39755	107627	0	0	8161	712782	0	0
2024-05-19 12:42:32			0	34672	0	0	0	20810	19440	145571	27760	980883	39766	107627	0	0	8161	712225	0	0
2024-05-19 12:43:32			0	34695	0	0	0	20812	19430	145555	27509	980822	39745	107628	0	0	8163	711182	0	0
2024-05-19 12:44:32			0	34696	0	0	0	20805	19430	145471	27547	980848	39755	107625	0	0	8163	711135	0	0
2024-05-19 12:45:32			0	34715	0	0	0	20812	19430	145407	27526	980822	39766	107628	0	0	8164	710242	0	0
2024-05-19 12:46:32			0	34715	0	0	0	20825	19420	145331	27606	980858	39776	107633	0	0	8163	710281	0	0
2024-05-19 12:47:32			0	34713	0	0	0	20831	19430	145423	27789	980848	39766	107635	0	0	8163	710336	0	0
2024-05-19 12:48:32			0	34730	0	0	0	20828	19430	145383	27462	980867	39765	107634	0	0	8164	709538	0	0
2024-05-19 12:49:32			0	34755	0	0	0	20828	19430	145215	27365	980867	39765	107634	0	0	8166	708365	0	0
2024-05-19 12:50:32			0	34777	0	0	0	20836	19430	145179	27585	980867	39754	107637	0	0	8167	707334	0	0
2024-05-19 12:51:32			0	34787	0	0	0	20828	19440	145071	27466	980857	39745	107634	0	0	8167	706827	0	0
2024-05-19 12:52:32			0	34833	0	0	0	20825	19440	144855	27777	980883	39766	107633	0	0	8170	704677	0	0
2024-05-19 12:53:32			0	34849	0	0	0	20828	19440	144843	27614	980883	39766	107634	0	0	8171	703930	0	0
2024-05-19 12:54:32			0	34897	0	0	0	20841	19430	144679	27386	980867	39765	107639	0	0	8173	701732	0	0
2024-05-19 12:55:32			0	34932	0	0	0	20833	19440	144443	27757	980918	39767	107636	0	0	8175	700065	0	0
2024-05-19 12:56:32			0	34926	0	0	0	20820	19440	144467	27409	980936	39766	107631	0	0	8175	700344	0	0
2024-05-19 12:57:32			0	34960	0	0	0	20828	19440	144447	27525	980910	39777	107634	0	0	8177	698765	0	0
2024-05-19 12:58:32			0	34966	0	0	0	20820	19440	144299	27201	980857	39766	107631	0	0	8178	698487	0	0
2024-05-19 12:59:32			0	34970	0	0	0	20828	19440	144243	27239	980857	39766	107634	0	0	8178	698301	0	0
2024-05-19 13:00:32			0	34978	0	0	0	20828	19440	144283	27185	980865	39767	107634	0	0	8178	697930	0	0
2024-05-19 13:01:32			0	34966	0	0	0	20820	19430	144351	27287	980867	39765	107631	0	0	8178	698525	0	0
2024-05-19 13:02:32			0	34960	0	0	0	20815	19440	144303	27535	980883	39766	107629	0	0	8177	698765	0	0
2024-05-19 13:03:32			0	34966	0	0	0	20828	19440	144319	27881	980839	39756	107634	0	0	8177	698487	0	0
2024-05-19 13:04:32			0	34984	0	0	0	20818	19430	144391	27533	980787	39732	107630	0	0	8179	697691	0	0
2024-05-19 13:05:32			0	34965	0	0	0	20812	19430	144363	27362	980840	39765	107628	0	0	8178	698572	0	0
2024-05-19 13:06:32			0	34971	0	0	0	20818	19430	144343	27313	980848	39755	107630	0	0	8178	698293	0	0
2024-05-19 13:07:32			0	34978	0	0	0	20810	19440	144207	27365	980883	39755	107627	0	0	8178	697930	0	0
2024-05-19 13:08:32			0	35004	0	0	0	20812	19440	144199	27523	980839	39767	107628	0	0	8180	696726	0	0
2024-05-19 13:09:32			0	35009	0	0	0	20807	19440	144231	27327	980830	39777	107626	0	0	8180	696495	0	0
2024-05-19 13:10:32			0	35034	0	0	0	20805	19420	144091	27242	980779	39754	107625	0	0	8181	695414	0	0
2024-05-19 13:11:32			0	35016	0	0	0	20805	19430	144019	27235	980867	39765	107625	0	0	8181	696209	0	0
2024-05-19 13:12:32			0	35054	0	0	0	20789	19430	144047	27436	980787	39765	107619	0	0	8183	694452	0	0
2024-05-19 13:13:32			0	35062	0	0	0	20807	19430	143883	27620	980840	39744	107626	0	0	8183	694083	0	0
2024-05-19 13:14:32			0	35065	0	0	0	20807	19430	143995	27357	980840	39765	107626	0	0	8183	693944	0	0
2024-05-19 13:15:32			0	35060	0	0	0	20810	19430	143927	27447	980867	39765	107627	0	0	8183	694175	0	0
2024-05-19 13:16:32			0	35068	0	0	0	20815	19430	143939	27277	980893	39732	107629	0	0	8183	693806	0	0
2024-05-19 13:17:32			0	35044	0	0	0	20815	19420	143859	27668	980832	39765	107629	0	0	8182	694952	0	0
2024-05-19 13:18:32			0	35065	0	0	0	20828	19430	143935	27457	980840	39776	107634	0	0	8183	693944	0	0
2024-05-19 13:19:32			0	35062	0	0	0	20820	19430	143951	27457	980867	39765	107631	0	0	8183	694083	0	0
2024-05-19 13:20:32			0	35054	0	0	0	20833	19430	144011	27661	980875	39777	107636	0	0	8182	694452	0	0
2024-05-19 13:21:32			0	35043	0	0	0	20844	19440	144103	27649	980910	39766	107640	0	0	8181	694922	0	0
2024-05-19 13:22:32			0	35058	0	0	0	20846	19440	144023	27737	980883	39766	107641	0	0	8182	694229	0	0
2024-05-19 13:23:32			0	35057	0	0	0	20844	19440	144011	27336	980936	39755	107640	0	0	8182	694275	0	0
2024-05-19 13:24:32			0	35034	0	0	0	20844	19450	143903	27403	980926	39767	107640	0	0	8181	695300	0	0
2024-05-19 13:25:32			0	35046	0	0	0	20844	19450	143911	27620	980953	39778	107640	0	0	8182	694745	0	0
2024-05-19 13:26:32			0	35071	0	0	0	20841	19440	143923	27263	980918	39767	107639	0	0	8183	693629	0	0
2024-05-19 13:27:32			0	35034	0	0	0	20841	19450	143991	27474	980926	39778	107639	0	0	8181	695300	0	0
2024-05-19 13:28:32			0	35042	0	0	0	20857	19450	143991	27795	980988	39768	107645	0	0	8181	694930	0	0
2024-05-19 13:29:32			0	35045	0	0	0	20857	19460	143983	27658	980917	39746	107645	0	0	8181	694753	0	0
2024-05-19 13:30:32			0	35052	0	0	0	20849	19450	143895	27583	980988	39768	107642	0	0	8182	694468	0	0
2024-05-19 13:31:32			0	35049	0	0	0	20859	19450	143903	27454	980980	39767	107646	0	0	8182	694607	0	0
2024-05-19 13:32:32			0	35067	0	0	0	20854	19460	143911	27381	980996	39768	107644	0	0	8183	693737	0	0
2024-05-19 13:33:32			0	35069	0	0	0	20862	19450	143935	27609	981014	39779	107647	0	0	8183	693683	0	0
2024-05-19 13:34:32			0	35077	0	0	0	20862	19460	143983	27417	981004	39757	107647	0	0	8183	693276	0	0
2024-05-19 13:35:32			0	35040	0	0	0	20846	19460	143959	27454	980978	39757	107641	0	0	8181	694984	0	0
2024-05-19 13:36:32			0	35058	0	0	0	20864	19460	143959	27568	980996	39768	107648	0	0	8182	694153	0	0
2024-05-19 13:37:32			0	35054	0	0	0	20862	19460	143951	27485	980978	39780	107647	0	0	8182	694338	0	0
2024-05-19 13:38:32			0	35058	0	0	0	20851	19460	143927	27258	981031	39769	107643	0	0	8182	694153	0	0
2024-05-19 13:39:32			0	35051	0	0	0	20864	19460	143963	27526	981049	39768	107648	0	0	8182	694476	0	0
2024-05-19 13:40:32			0	35059	0	0	0	20862	19480	144023	27566	981030	39769	107647	0	0	8182	694031	0	0
2024-05-19 13:41:32			0	35054	0	0	0	20862	19460	143951	27486	981004	39769	107647	0	0	8182	694338	0	0
2024-05-19 13:42:32			0	35045	0	0	0	20854	19460	143915	27204	981004	39769	107644	0	0	8181	694753	0	0
2024-05-19 13:43:32			0	35064	0	0	0	20864	19460	143875	27402	981004	39780	107648	0	0	8182	693876	0	0
2024-05-19 13:44:32			0	35042	0	0	0	20862	19460	143983	27644	981023	39768	107647	0	0	8181	694892	0	0
2024-05-19 13:45:32			0	35051	0	0	0	20864	19470	143863	27223	981066	39769	107648	0	0	8182	694438	0	0
2024-05-19 13:46:32			0	35054	0	0	0	20857	19470	143883	27587	981039	39769	107645	0	0	8182	694299	0	0
2024-05-19 13:47:32			0	35068	0	0	0	20862	19470	143831	27585	981039	39780	107647	0	0	8183	693653	0	0
2024-05-19 13:48:32			0	35068	0	0	0	20851	19470	143907	27431	981021	39791	107643	0	0	8183	693653	0	0
2024-05-19 13:49:32			0	35089	0	0	0	20864	19470	143899	27161	981074	39769	107648	0	0	8184	692685	0	0
2024-05-19 13:50:32			0	35091	0	0	0	20867	19470	143851	27479	981066	39769	107649	0	0	8184	692593	0	0
2024-05-19 13:51:32			0	35073	0	0	0	20875	19460	143827	27201	981031	39769	107652	0	0	8183	693461	0	0
2024-05-19 13:52:32			0	35087	0	0	0	20880	19480	143823	27417	981056	39781	107654	0	0	8183	692739	0	0
2024-05-19 13:53:32			0	35089	0	0	0	20896	19470	143771	27189	981127	39769	107660	0	0	8183	692685	0	0
2024-05-19 13:54:32			0	35087	0	0	0	20880	19480	143779	27447	981162	39769	107654	0	0	8183	692739	0	0
2024-05-19 13:55:32			0	35116	0	0	0	20877	19480	143756	27646	981109	39769	107653	0	0	8185	691403	0	0
2024-05-19 13:56:32			0	35115	0	0	0	20901	19490	143764	27237	981126	39782	107662	0	0	8185	691411	0	0
2024-05-19 13:57:32			0	35089	0	0	0	20893	19480	143715	27417	981144	39770	107659	0	0	8183	692647	0	0
2024-05-19 13:58:32			0	35078	0	0	0	20885	19480	143791	27604	981091	39782	107656	0	0	8183	693154	0	0
2024-05-19 13:59:32			0	35080	0	0	0	20888	19480	143823	27538	981118	39782	107657	0	0	8183	693062	0	0
2024-05-19 14:00:32			0	35064	0	0	0	20885	19490	143879	27305	981099	39782	107656	0	0	8182	693762	0	0
2024-05-19 14:01:32			0	35062	0	0	0	20906	19500	143943	27435	981116	39772	107664	0	0	8182	693816	0	0
2024-05-19 14:02:32			0	35057	0	0	0	20914	19500	143975	27315	981196	39772	107667	0	0	8181	694046	0	0
2024-05-19 14:03:32			0	35038	0	0	0	20937	19500	143999	27426	981222	39793	107676	0	0	8180	694924	0	0
2024-05-19 14:04:32			0	35046	0	0	0	20940	19510	144071	27692	981265	39773	107677	0	0	8180	694516	0	0
2024-05-19 14:05:32			0	35035	0	0	0	20919	19520	144043	27739	981229	39774	107669	0	0	8180	694986	0	0
2024-05-19 14:06:32			0	35008	0	0	0	20914	19520	144087	27168	981255	39785	107667	0	0	8179	696235	0	0
2024-05-19 14:07:32			0	35019	0	0	0	20927	19510	144107	27034	981221	39794	107672	0	0	8179	695764	0	0
2024-05-19 14:08:32			0	35033	0	0	0	20935	19520	144075	27640	981317	39795	107675	0	0	8180	695078	0	0
2024-05-19 14:09:32			0	35014	0	0	0	20935	19510	143987	27478	981265	39773	107675	0	0	8179	695995	0	0
2024-05-19 14:10:32			0	35041	0	0	0	20932	19530	144079	27585	981325	39775	107674	0	0	8180	694671	0	0
2024-05-19 14:11:32			0	35043	0	0	0	20929	19520	143987	27547	981255	39774	107673	0	0	8180	694616	0	0
2024-05-19 14:12:32			0	35049	0	0	0	20935	19530	144003	27706	981352	39786	107675	0	0	8181	694301	0	0
2024-05-19 14:13:32			0	35024	0	0	0	20935	19530	144015	27821	981333	39796	107675	0	0	8179	695456	0	0
2024-05-19 14:14:32			0	35030	0	0	0	20935	19540	144063	27571	981350	39776	107675	0	0	8180	695141	0	0
2024-05-19 14:15:32			0	35028	0	0	0	20935	19530	144039	27447	981333	39775	107675	0	0	8179	695271	0	0
2024-05-19 14:16:32			0	35043	0	0	0	20945	19540	143895	27426	981377	39797	107679	0	0	8180	694540	0	0
2024-05-19 14:17:32			0	35045	0	0	0	20950	19540	143995	27928	981377	39776	107681	0	0	8180	694448	0	0
2024-05-19 14:18:32			0	35042	0	0	0	20942	19540	143899	27407	981350	39787	107678	0	0	8180	694586	0	0
2024-05-19 14:19:32			0	35045	0	0	0	20937	19550	143827	27464	981367	39798	107676	0	0	8180	694410	0	0
2024-05-19 14:20:32			0	35036	0	0	0	20935	19560	143799	27708	981402	39766	107675	0	0	8180	694787	0	0
2024-05-19 14:21:32			0	35082	0	0	0	20942	19550	143763	27277	981447	39776	107678	0	0	8182	692703	0	0
2024-05-19 14:22:32			0	35094	0	0	0	20950	19550	143643	27341	981465	39776	107681	0	0	8183	692150	0	0
2024-05-19 14:23:32			0	35101	0	0	0	20961	19550	143651	27393	981420	39776	107685	0	0	8183	691827	0	0
2024-05-19 14:24:32			0	35123	0	0	0	20968	19560	143620	27348	981508	39788	107688	0	0	8184	690777	0	0
2024-05-19 14:25:32			0	35131	0	0	0	20968	19560	143568	27443	981481	39788	107688	0	0	8185	690409	0	0
2024-05-19 14:26:32			0	35115	0	0	0	20961	19560	143532	27277	981516	39789	107685	0	0	8184	691145	0	0
2024-05-19 14:27:32			0	35134	0	0	0	20958	19550	143528	27732	981500	39798	107684	0	0	8185	690309	0	0
2024-05-19 14:28:32			0	35110	0	0	0	20961	19570	143667	27578	981480	39790	107685	0	0	8184	691337	0	0
2024-05-19 14:29:32			0	35103	0	0	0	20968	19570	143632	27595	981559	39790	107688	0	0	8183	691659	0	0
2024-05-19 14:30:32			0	35104	0	0	0	20968	19570	143684	27339	981506	39768	107688	0	0	8183	691613	0	0
2024-05-19 14:31:32			0	35099	0	0	0	20976	19570	143687	27727	981506	39800	107691	0	0	8183	691843	0	0
2024-05-19 14:32:32			0	35080	0	0	0	20963	19570	143871	27272	981559	39790	107686	0	0	8182	692719	0	0
2024-05-19 14:33:32			0	35100	0	0	0	20974	19580	143831	27467	981594	39790	107690	0	0	8183	691759	0	0
2024-05-19 14:34:32			0	35082	0	0	0	20974	19580	143743	27232	981568	39790	107690	0	0	8182	692588	0	0
2024-05-19 14:35:32			0	35111	0	0	0	20966	19590	143751	27689	981584	39791	107687	0	0	8184	691215	0	0
2024-05-19 14:36:32			0	35076	0	0	0	20971	19580	143759	27279	981576	39780	107689	0	0	8182	692865	0	0
2024-05-19 14:37:32			0	35078	0	0	0	20971	19580	143771	27440	981568	39779	107689	0	0	8182	692773	0	0
2024-05-19 14:38:32			0	35115	0	0	0	20958	19580	143732	27353	981470	39791	107684	0	0	8184	691069	0	0
2024-05-19 14:39:32			0	35112	0	0	0	20958	19580	143671	27348	981497	39780	107684	0	0	8184	691207	0	0
2024-05-19 14:40:32			0	35120	0	0	0	20953	19590	143580	27194	981478	39791	107682	0	0	8184	690801	0	0
2024-05-19 14:41:32			0	35137	0	0	0	20950	19580	143544	27452	981541	39790	107681	0	0	8185	690057	0	0
2024-05-19 14:42:32			0	35171	0	0	0	20963	19580	143508	27469	981462	39790	107686	0	0	8187	688496	0	0
2024-05-19 14:43:32			0	35161	0	0	0	20961	19590	143428	27388	981531	39791	107685	0	0	8187	688917	0	0
2024-05-19 14:44:32			0	35185	0	0	0	20955	19580	143372	27346	981568	39800	107683	0	0	8188	687854	0	0
2024-05-19 14:45:32			0	35186	0	0	0	20950	19580	143252	27409	981488	39790	107681	0	0	8188	687808	0	0
2024-05-19 14:46:32			0	35181	0	0	0	20948	19570	143280	27043	981506	39790	107680	0	0	8188	688075	0	0
2024-05-19 14:47:32			0	35200	0	0	0	20950	19570	143232	27135	981533	39790	107681	0	0	8189	687204	0	0
2024-05-19 14:48:32			0	35209	0	0	0	20953	19580	143252	27086	981497	39769	107682	0	0	8189	686754	0	0
2024-05-19 14:49:32			0	35193	0	0	0	20963	19580	143240	27341	981568	39790	107686	0	0	8188	687487	0	0
2024-05-19 14:50:32			0	35191	0	0	0	20958	19570	143252	27303	981525	39778	107684	0	0	8188	687617	0	0
2024-05-19 14:51:32			0	35179	0	0	0	20963	19580	143304	27265	981576	39780	107686	0	0	8188	688129	0	0
2024-05-19 14:52:32			0	35192	0	0	0	20958	19580	143352	27046	981523	39780	107684	0	0	8188	687533	0	0
2024-05-19 14:53:32			0	35161	0	0	0	20963	19590	143444	27211	981558	39780	107686	0	0	8187	688917	0	0
2024-05-19 14:54:32			0	35140	0	0	0	20953	19570	143384	27665	981559	39779	107682	0	0	8186	689957	0	0
2024-05-19 14:55:32			0	35150	0	0	0	20948	19590	143528	27421	981637	39780	107680	0	0	8186	689422	0	0
2024-05-19 14:56:32			0	35110	0	0	0	20948	19590	143619	27267	981593	39781	107680	0	0	8184	691261	0	0
2024-05-19 14:57:32			0	35101	0	0	0	20945	19590	143659	27545	981505	39780	107679	0	0	8184	691675	0	0
2024-05-19 14:58:32			0	35072	0	0	0	20948	19580	143731	27267	981470	39780	107680	0	0	8182	693049	0	0
2024-05-19 14:59:32			0	35051	0	0	0	20932	19590	143803	27381	981558	39780	107674	0	0	8181	693980	0	0
2024-05-19 15:00:32			0	35036	0	0	0	20942	19580	143971	27473	981523	39769	107678	0	0	8180	694711	0	0
2024-05-19 15:01:32			0	35030	0	0	0	20942	19580	144003	27390	981550	39791	107678	0	0	8180	694988	0	0
2024-05-19 15:02:32			0	35017	0	0	0	20940	19580	143995	27376	981576	39780	107677	0	0	8179	695589	0	0
2024-05-19 15:03:32			0	35011	0	0	0	20937	19580	144031	27357	981470	39780	107676	0	0	8179	695866	0	0
2024-05-19 15:04:32			0	34989	0	0	0	20937	19580	144059	27436	981550	39791	107676	0	0	8177	696884	0	0
2024-05-19 15:05:32			0	34963	0	0	0	20948	19580	144191	27542	981568	39800	107680	0	0	8176	698088	0	0
2024-05-19 15:06:32			0	34934	0	0	0	20937	19580	144323	27460	981523	39791	107676	0	0	8174	699434	0	0
2024-05-19 15:07:32			0	34908	0	0	0	20945	19580	144359	27345	981541	39779	107679	0	0	8173	700641	0	0
2024-05-19 15:08:32			0	34858	0	0	0	20935	19580	144511	27246	981523	39780	107675	0	0	8170	702969	0	0
2024-05-19 15:09:32			0	34855	0	0	0	20940	19580	144691	27220	981576	39780	107677	0	0	8170	703109	0	0
2024-05-19 15:10:32			0	34817	0	0	0	20937	19580	144663	27595	981515	39790	107676	0	0	8168	704881	0	0
2024-05-19 15:11:32			0	34820	0	0	0	20942	19590	144815	27308	981531	39791	107678	0	0	8168	704702	0	0
2024-05-19 15:12:32			0	34795	0	0	0	20948	19590	144847	27490	981584	39791	107680	0	0	8167	705870	0	0
2024-05-19 15:13:32			0	34764	0	0	0	20979	19590	144911	27274	981584	39780	107692	0	0	8164	707321	0	0
2024-05-19 15:14:32			0	34783	0	0	0	20966	19600	144947	27235	981628	39781	107687	0	0	8166	706393	0	0
2024-05-19 15:15:32			0	34755	0	0	0	20953	19590	145031	27364	981593	39781	107682	0	0	8164	707742	0	0
2024-05-19 15:16:32			0	34764	0	0	0	20955	19590	145087	27623	981584	39780	107683	0	0	8165	707321	0	0
2024-05-19 15:17:32			0	34741	0	0	0	20950	19600	145103	27523	981636	39782	107681	0	0	8164	708359	0	0
2024-05-19 15:18:32			0	34744	0	0	0	20963	19590	145127	27329	981593	39791	107686	0	0	8163	708257	0	0
2024-05-19 15:19:32			0	34732	0	0	0	20989	19590	145043	27140	981619	39781	107696	0	0	8162	708820	0	0
2024-05-19 15:20:32			0	34713	0	0	0	20986	19600	145127	27616	981716	39782	107695	0	0	8161	709672	0	0
2024-05-19 15:21:32			0	34706	0	0	0	20958	19600	145203	27564	981654	39781	107684	0	0	8162	710001	0	0
2024-05-19 15:22:32			0	34701	0	0	0	20950	19600	145311	27824	981557	39782	107681	0	0	8161	710236	0	0
2024-05-19 15:23:32			0	34714	0	0	0	20945	19610	145195	27407	981645	39783	107679	0	0	8162	709586	0	0
2024-05-19 15:24:32			0	34723	0	0	0	20945	19590	145151	27590	981646	39770	107679	0	0	8163	709242	0	0
2024-05-19 15:25:32			0	34739	0	0	0	20942	19600	145115	27848	981575	39781	107678	0	0	8164	708453	0	0
2024-05-19 15:26:32			0	34759	0	0	0	20950	19600	145075	27190	981601	39781	107681	0	0	8165	707516	0	0
2024-05-19 15:27:32			0	34747	0	0	0	20950	19590	145099	27287	981619	39781	107681	0	0	8164	708117	0	0
2024-05-19 15:28:32			0	34721	0	0	0	20942	19600	145039	27428	981610	39782	107678	0	0	8163	709297	0	0
2024-05-19 15:29:32			0	34740	0	0	0	20937	19590	145123	27454	981566	39781	107676	0	0	8164	708445	0	0
2024-05-19 15:30:32			0	34712	0	0	0	20942	19600	145231	27646	981601	39781	107678	0	0	8162	709719	0	0
2024-05-19 15:31:32			0	34708	0	0	0	20950	19590	145235	27497	981619	39781	107681	0	0	8162	709946	0	0
2024-05-19 15:32:32			0	34678	0	0	0	20976	19600	145259	27486	981628	39781	107691	0	0	8160	711316	0	0
2024-05-19 15:33:32			0	34677	0	0	0	20981	19600	145267	27493	981663	39792	107693	0	0	8159	711364	0	0
2024-05-19 15:34:32			0	34654	0	0	0	20979	19620	145367	27341	981714	39771	107692	0	0	8158	712367	0	0
2024-05-19 15:35:32			0	34636	0	0	0	20974	19600	145295	27362	981689	39782	107690	0	0	8157	713293	0	0
2024-05-19 15:36:32			0	34645	0	0	0	20979	19620	145371	27090	981741	39783	107692	0	0	8158	712791	0	0
2024-05-19 15:37:32			0	34649	0	0	0	20976	19610	145411	27303	981679	39783	107691	0	0	8158	712642	0	0
2024-05-19 15:38:32			0	34660	0	0	0	20989	19620	145395	27476	981688	39793	107696	0	0	8159	712085	0	0
2024-05-19 15:39:32			0	34647	0	0	0	20994	19630	145407	27383	981757	39794	107698	0	0	8158	712658	0	0
2024-05-19 15:40:32			0	34656	0	0	0	20986	19620	145423	27498	981749	39783	107695	0	0	8158	712273	0	0
2024-05-19 15:41:32			0	34677	0	0	0	20986	19630	145375	27412	981731	39784	107695	0	0	8160	711246	0	0
2024-05-19 15:42:32			0	34668	0	0	0	20976	19630	145343	27807	981757	39784	107691	0	0	8159	711669	0	0
2024-05-19 15:43:32			0	34666	0	0	0	20984	19630	145243	27547	981731	39784	107694	0	0	8159	711763	0	0
2024-05-19 15:44:32			0	34667	0	0	0	20986	19630	145207	27545	981757	39794	107695	0	0	8159	711717	0	0
2024-05-19 15:45:32			0	34698	0	0	0	20994	19630	145243	27353	981766	39784	107698	0	0	8161	710259	0	0
2024-05-19 15:46:32			0	34687	0	0	0	20989	19630	145267	27734	981731	39806	107696	0	0	8160	710776	0	0
2024-05-19 15:47:32			0	34707	0	0	0	20992	19640	145251	27614	981827	39794	107697	0	0	8161	709798	0	0
2024-05-19 15:48:32			0	34693	0	0	0	20989	19630	145239	27502	981766	39794	107696	0	0	8160	710494	0	0
2024-05-19 15:49:32			0	34727	0	0	0	20984	19640	145147	27673	981774	39773	107694	0	0	8162	708859	0	0
2024-05-19 15:50:32			0	34711	0	0	0	20992	19640	145147	27300	981774	39784	107697	0	0	8161	709610	0	0
2024-05-19 15:51:32			0	34742	0	0	0	20989	19630	145119	27438	981757	39784	107696	0	0	8163	708195	0	0
2024-05-19 15:52:32			0	34749	0	0	0	20989	19630	145071	27495	981784	39784	107696	0	0	8164	707867	0	0
2024-05-19 15:53:32			0	34772	0	0	0	21007	19640	144899	27471	981827	39794	107703	0	0	8165	706752	0	0
2024-05-19 15:54:32			0	34767	0	0	0	21007	19640	144875	27322	981862	39795	107703	0	0	8164	706986	0	0
2024-05-19 15:55:32			0	34793	0	0	0	21012	19640	144931	27644	981835	39785	107705	0	0	8166	705770	0	0
2024-05-19 15:56:32			0	34797	0	0	0	20999	19650	144803	27275	981897	39796	107700	0	0	8166	705544	0	0
2024-05-19 15:57:32			0	34819	0	0	0	20994	19640	144751	27112	981782	39795	107698	0	0	8167	704555	0	0
2024-05-19 15:58:32			0	34828	0	0	0	21005	19650	144695	27409	981791	39786	107702	0	0	8168	704097	0	0
2024-05-19 15:59:32			0	34857	0	0	0	21007	19670	144563	27647	981869	39797	107703	0	0	8169	702667	0	0
2024-05-19 16:00:32			0	34859	0	0	0	21020	19640	144455	27542	981809	39795	107708	0	0	8169	702690	0	0
2024-05-19 16:01:32			0	34877	0	0	0	21023	19650	144371	27350	981879	39796	107709	0	0	8170	701813	0	0
2024-05-19 16:02:32			0	34903	0	0	0	21023	19650	144239	27267	981905	39786	107709	0	0	8172	700604	0	0
2024-05-19 16:03:32			0	34899	0	0	0	21023	19660	144171	27512	981887	39786	107709	0	0	8171	700752	0	0
2024-05-19 16:04:32			0	34929	0	0	0	21025	19670	144187	27443	981922	39787	107710	0	0	8173	699319	0	0
2024-05-19 16:05:32			0	34942	0	0	0	21023	19670	144187	27372	981895	39787	107709	0	0	8174	698716	0	0
2024-05-19 16:06:32			0	34949	0	0	0	21020	19670	144175	27673	981869	39787	107708	0	0	8174	698392	0	0
2024-05-19 16:07:32			0	34967	0	0	0	21005	19660	144083	27372	981860	39775	107702	0	0	8175	697596	0	0
2024-05-19 16:08:32			0	34970	0	0	0	20999	19660	144047	27424	981860	39775	107700	0	0	8176	697457	0	0
2024-05-19 16:09:32			0	34997	0	0	0	21005	19650	144023	27355	981826	39786	107702	0	0	8177	696245	0	0
2024-05-19 16:10:32			0	35009	0	0	0	21005	19660	143991	27621	981913	39807	107702	0	0	8178	695652	0	0
2024-05-19 16:11:32			0	35018	0	0	0	21010	19660	143799	27452	981860	39786	107704	0	0	8178	695236	0	0
2024-05-19 16:12:32			0	35028	0	0	0	21007	19650	143875	27628	981870	39786	107703	0	0	8179	694813	0	0
2024-05-19 16:13:32			0	35047	0	0	0	21012	19650	143863	27616	981826	39786	107705	0	0	8180	693935	0	0
2024-05-19 16:14:32			0	35008	0	0	0	21020	19660	143859	27222	981887	39796	107708	0	0	8177	695699	0	0
2024-05-19 16:15:32			0	35033	0	0	0	21018	19670	143799	27633	981842	39787	107707	0	0	8179	694505	0	0
2024-05-19 16:16:32			0	35042	0	0	0	21020	19660	143731	27561	981887	39796	107708	0	0	8179	694128	0	0
2024-05-19 16:17:32			0	35054	0	0	0	21041	19660	143699	27573	981940	39796	107716	0	0	8180	693574	0	0
2024-05-19 16:18:32			0	35068	0	0	0	21044	19670	143639	27450	981930	39798	107717	0	0	8180	692890	0	0
2024-05-19 16:19:32			0	35066	0	0	0	21038	19660	143639	27317	981913	39775	107715	0	0	8180	693021	0	0
2024-05-19 16:20:32			0	35098	0	0	0	21020	19670	143555	27713	981904	39798	107708	0	0	8183	691509	0	0
2024-05-19 16:21:32			0	35104	0	0	0	20999	19660	143447	27400	981860	39775	107700	0	0	8183	691271	0	0
2024-05-19 16:22:32			0	35127	0	0	0	21012	19660	143340	27447	981860	39764	107705	0	0	8184	690213	0	0
2024-05-19 16:23:32			0	35172	0	0	0	21020	19670	143256	27414	981922	39787	107708	0	0	8187	688109	0	0
2024-05-19 16:24:32			0	35144	0	0	0	21036	19650	143240	27383	981932	39796	107714	0	0	8185	689470	0	0
2024-05-19 16:25:32			0	35176	0	0	0	21051	19670	143344	27334	981983	39798	107720	0	0	8186	687926	0	0
2024-05-19 16:26:32			0	35196	0	0	0	21049	19670	143168	27540	981983	39798	107719	0	0	8187	687009	0	0
2024-05-19 16:27:32			0	35204	0	0	0	21070	19680	143140	27441	981973	39789	107727	0	0	8188	686605	0	0
2024-05-19 16:28:32			0	35186	0	0	0	21077	19680	143104	27415	982053	39799	107730	0	0	8186	687430	0	0
2024-05-19 16:29:32			0	35204	0	0	0	21072	19690	143084	27454	982061	39766	107728	0	0	8188	686568	0	0
2024-05-19 16:30:32			0	35218	0	0	0	21064	19690	143072	27499	982043	39789	107725	0	0	8188	685927	0	0
2024-05-19 16:31:32			0	35231	0	0	0	21064	19700	143008	27391	982078	39790	107725	0	0	8189	685295	0	0
2024-05-19 16:32:32			0	35192	0	0	0	21070	19690	143056	27547	982070	39789	107727	0	0	8187	687117	0	0
2024-05-19 16:33:32			0	35223	0	0	0	21072	19700	143068	27352	982078	39812	107728	0	0	8189	685661	0	0
2024-05-19 16:34:32			0	35204	0	0	0	21080	19700	142936	27348	982060	39790	107731	0	0	8187	686530	0	0
2024-05-19 16:35:32			0	35216	0	0	0	21101	19710	143120	27305	982121	39801	107739	0	0	8188	685943	0	0
2024-05-19 16:36:32			0	35207	0	0	0	21122	19710	143028	27203	982182	39801	107747	0	0	8187	686355	0	0
2024-05-19 16:37:32			0	35217	0	0	0	21137	19720	143052	27287	982164	39814	107753	0	0	8187	685859	0	0
2024-05-19 16:38:32			0	35209	0	0	0	21129	19720	142964	27303	982279	39802	107750	0	0	8187	686225	0	0
2024-05-19 16:39:32			0	35225	0	0	0	21132	19730	143028	27412	982261	39814	107751	0	0	8188	685456	0	0
2024-05-19 16:40:32			0	35223	0	0	0	21137	19730	142976	27481	982234	39814	107753	0	0	8188	685547	0	0
2024-05-19 16:41:32			0	35227	0	0	0	21137	19740	143012	27102	982304	39815	107753	0	0	8188	685327	0	0
2024-05-19 16:42:32			0	35246	0	0	0	21148	19740	142952	27145	982312	39805	107757	0	0	8189	684459	0	0
2024-05-19 16:43:32			0	35253	0	0	0	21145	19750	142772	27646	982347	39816	107756	0	0	8189	684101	0	0
2024-05-19 16:44:32			0	35270	0	0	0	21150	19750	142772	27398	982356	39805	107758	0	0	8190	683325	0	0
2024-05-19 16:45:32			0	35288	0	0	0	21132	19750	142588	27518	982409	39805	107751	0	0	8191	682505	0	0
2024-05-19 16:46:32			0	35326	0	0	0	21135	19760	142504	27331	982364	39806	107752	0	0	8193	680737	0	0
2024-05-19 16:47:32			0	35356	0	0	0	21127	19750	142476	27483	982329	39805	107749	0	0	8195	679411	0	0
2024-05-19 16:48:32			0	35390	0	0	0	21132	19760	142280	27739	982337	39795	107751	0	0	8197	677831	0	0
2024-05-19 16:49:32			0	35397	0	0	0	21137	19760	142204	27383	982319	39807	107753	0	0	8197	677513	0	0
2024-05-19 16:50:32			0	35440	0	0	0	21137	19760	142060	27396	982337	39806	107753	0	0	8200	675566	0	0
2024-05-19 16:51:32			0	35457	0	0	0	21142	19760	141940	27691	982319	39818	107755	0	0	8201	674798	0	0
2024-05-19 16:52:32			0	35489	0	0	0	21137	19760	141768	27422	982372	39807	107753	0	0	8202	673353	0	0
2024-05-19 16:53:32			0	35517	0	0	0	21145	19770	141728	27358	982354	39795	107756	0	0	8204	672053	0	0
2024-05-19 16:54:32			0	35530	0	0	0	21153	19770	141628	27550	982407	39807	107759	0	0	8204	671468	0	0
2024-05-19 16:55:32			0	35562	0	0	0	21158	19760	141588	27296	982346	39795	107761	0	0	8206	670065	0	0
2024-05-19 16:56:32			0	35569	0	0	0	21163	19770	141576	27795	982460	39807	107763	0	0	8206	669713	0	0
2024-05-19 16:57:32			0	35557	0	0	0	21171	19780	141556	27644	982459	39820	107766	0	0	8206	670216	0	0
2024-05-19 16:58:32			0	35547	0	0	0	21176	19780	141612	27543	982477	39808	107768	0	0	8205	670665	0	0
2024-05-19 16:59:32			0	35556	0	0	0	21174	19780	141684	27464	982477	39808	107767	0	0	8205	670261	0	0
2024-05-19 17:00:32			0	35541	0	0	0	21163	19780	141568	27599	982459	39797	107763	0	0	8205	670936	0	0
2024-05-19 17:01:32			0	35513	0	0	0	21168	19780	141668	27658	982459	39820	107765	0	0	8203	672196	0	0
2024-05-19 17:02:32			0	35533	0	0	0	21158	19780	141744	27781	982459	39820	107761	0	0	8204	671296	0	0
2024-05-19 17:03:32			0	35496	0	0	0	21174	19790	141764	27298	982467	39808	107767	0	0	8202	672926	0	0
2024-05-19 17:04:32			0	35493	0	0	0	21181	19790	141844	27467	982440	39808	107770	0	0	8202	673061	0	0
2024-05-19 17:05:32			0	35473	0	0	0	21181	19790	141848	27469	982493	39820	107770	0	0	8201	673964	0	0
2024-05-19 17:06:32			0	35462	0	0	0	21194	19800	141920	27383	982510	39809	107775	0	0	8200	674423	0	0
2024-05-19 17:07:32			0	35453	0	0	0	21207	19790	141992	27474	982520	39808	107780	0	0	8199	674867	0	0
2024-05-19 17:08:32			0	35441	0	0	0	21184	19800	141996	27599	982571	39810	107771	0	0	8199	675372	0	0
2024-05-19 17:09:32			0	35420	0	0	0	21176	19810	142180	27369	982527	39811	107768	0	0	8198	676285	0	0
2024-05-19 17:10:32			0	35417	0	0	0	21176	19810	142128	27412	982588	39811	107768	0	0	8198	676421	0	0
2024-05-19 17:11:32			0	35406	0	0	0	21171	19800	142112	27767	982571	39821	107766	0	0	8197	676957	0	0
2024-05-19 17:12:32			0	35412	0	0	0	21168	19810	142180	27556	982562	39822	107765	0	0	8198	676648	0	0
2024-05-19 17:13:32			0	35417	0	0	0	21176	19790	142160	27377	982528	39808	107768	0	0	8198	676496	0	0
2024-05-19 17:14:32			0	35431	0	0	0	21181	19800	142184	27651	982545	39810	107770	0	0	8199	675825	0	0
2024-05-19 17:15:32			0	35421	0	0	0	21179	19800	142156	27327	982484	39809	107769	0	0	8198	676277	0	0
2024-05-19 17:16:32			0	35431	0	0	0	21176	19800	142096	27234	982545	39810	107768	0	0	8199	675825	0	0
2024-05-19 17:17:32			0	35419	0	0	0	21176	19800	142040	27486	982457	39809	107768	0	0	8198	676368	0	0
2024-05-19 17:18:32			0	35448	0	0	0	21181	19800	142104	27313	982492	39810	107770	0	0	8200	675056	0	0
2024-05-19 17:19:32			0	35422	0	0	0	21179	19800	142032	27310	982484	39809	107769	0	0	8198	676232	0	0
2024-05-19 17:20:32			0	35460	0	0	0	21181	19800	142108	27543	982537	39809	107770	0	0	8200	674514	0	0
2024-05-19 17:21:32			0	35444	0	0	0	21192	19810	142172	27360	982580	39822	107774	0	0	8199	675200	0	0
2024-05-19 17:22:32			0	35433	0	0	0	21199	19800	142212	27386	982537	39809	107777	0	0	8198	675734	0	0
2024-05-19 17:23:32			0	35398	0	0	0	21189	19810	142204	27291	982562	39811	107773	0	0	8197	677282	0	0
2024-05-19 17:24:32			0	35400	0	0	0	21205	19810	142252	27279	982606	39811	107779	0	0	8197	677191	0	0
2024-05-19 17:25:32			0	35361	0	0	0	21212	19810	142312	27284	982588	39811	107782	0	0	8194	678960	0	0
2024-05-19 17:26:32			0	35338	0	0	0	21210	19820	142356	27689	982596	39822	107781	0	0	8193	679967	0	0
2024-05-19 17:27:32			0	35329	0	0	0	21202	19830	142552	27345	982666	39813	107778	0	0	8193	680338	0	0
2024-05-19 17:28:32			0	35297	0	0	0	21215	19830	142636	27564	982648	39802	107783	0	0	8191	681794	0	0
2024-05-19 17:29:32			0	35277	0	0	0	21225	19830	142652	27407	982666	39824	107787	0	0	8190	682705	0	0
2024-05-19 17:30:32			0	35226	0	0	0	21212	19830	142864	27369	982621	39802	107782	0	0	8187	685033	0	0
2024-05-19 17:31:32			0	35180	0	0	0	21220	19830	143068	27201	982675	39824	107785	0	0	8184	687137	0	0
2024-05-19 17:32:32			0	35170	0	0	0	21218	19830	143196	27265	982595	39824	107784	0	0	8184	687595	0	0
2024-05-19 17:33:32			0	35117	0	0	0	21220	19820	143292	27150	982623	39811	107785	0	0	8181	690065	0	0
2024-05-19 17:34:32			0	35101	0	0	0	21228	19820	143375	27334	982658	39823	107788	0	0	8180	690800	0	0
2024-05-19 17:35:32			0	35054	0	0	0	21223	19840	143495	27524	982656	39813	107786	0	0	8177	692887	0	0
2024-05-19 17:36:32			0	35058	0	0	0	21220	19840	143627	27381	982612	39835	107785	0	0	8178	692703	0	0
2024-05-19 17:37:32			0	35024	0	0	0	21225	19830	143691	27187	982621	39824	107787	0	0	8176	694309	0	0
2024-05-19 17:38:32			0	35022	0	0	0	21223	19830	143779	27249	982675	39813	107786	0	0	8176	694401	0	0
2024-05-19 17:39:32			0	35009	0	0	0	21225	19840	143815	27405	982736	39824	107787	0	0	8175	694963	0	0
2024-05-19 17:40:32			0	35018	0	0	0	21215	19840	143779	27661	982630	39813	107783	0	0	8176	694547	0	0
2024-05-19 17:41:32			0	35011	0	0	0	21215	19830	143695	27763	982648	39813	107783	0	0	8175	694909	0	0
2024-05-19 17:42:32			0	34994	0	0	0	21218	19840	143827	27829	982683	39813	107784	0	0	8174	695656	0	0
2024-05-19 17:43:32			0	34974	0	0	0	21228	19840	143759	27536	982745	39825	107788	0	0	8173	696581	0	0
2024-05-19 17:44:32			0	34955	0	0	0	21241	19840	143915	27440	982736	39834	107793	0	0	8172	697460	0	0
2024-05-19 17:45:32			0	34928	0	0	0	21254	19840	144035	27696	982771	39814	107798	0	0	8170	698712	0	0
2024-05-19 17:46:32			0	34932	0	0	0	21236	19840	144219	27485	982683	39824	107791	0	0	8170	698526	0	0
2024-05-19 17:47:32			0	34863	0	0	0	21220	19850	144151	27653	982779	39836	107785	0	0	8167	701692	0	0
2024-05-19 17:48:32			0	34856	0	0	0	21225	19840	144283	27360	982798	39814	107787	0	0	8166	702056	0	0
2024-05-19 17:49:32			0	34826	0	0	0	21233	19850	144311	27317	982753	39826	107790	0	0	8165	703415	0	0
2024-05-19 17:50:32			0	34812	0	0	0	21264	19860	144479	27400	982796	39826	107802	0	0	8163	704029	0	0
2024-05-19 17:51:32			0	34800	0	0	0	21251	19850	144563	27348	982841	39826	107797	0	0	8163	704627	0	0
2024-05-19 17:52:32			0	34756	0	0	0	21249	19860	144751	27450	982884	39837	107796	0	0	8161	706644	0	0
2024-05-19 17:53:32			0	34742	0	0	0	21262	19870	144835	27343	982866	39827	107801	0	0	8160	707260	0	0
2024-05-19 17:54:32			0	34723	0	0	0	21264	19880	144819	27429	982909	39817	107802	0	0	8159	708111	0	0
2024-05-19 17:55:32			0	34704	0	0	0	21267	19870	144935	27443	982848	39828	107803	0	0	8157	709040	0	0
2024-05-19 17:56:32			0	34693	0	0	0	21251	19880	144923	27627	982829	39828	107797	0	0	8157	709517	0	0
2024-05-19 17:57:32			0	34708	0	0	0	21246	19880	144951	27253	982883	39839	107795	0	0	8158	708814	0	0
2024-05-19 17:58:32			0	34687	0	0	0	21238	19870	144959	27521	982866	39827	107792	0	0	8157	709838	0	0
2024-05-19 17:59:32			0	34710	0	0	0	21251	19870	144935	27453	982848	39839	107797	0	0	8158	708759	0	0
2024-05-19 18:00:32			0	34712	0	0	0	21264	19870	144971	27628	982874	39828	107802	0	0	8158	708665	0	0
2024-05-19 18:01:32			0	34699	0	0	0	21272	19880	144907	27369	982944	39839	107805	0	0	8157	709235	0	0
2024-05-19 18:02:32			0	34719	0	0	0	21257	19900	144903	27410	982995	39830	107799	0	0	8159	708220	0	0
2024-05-19 18:03:32			0	34724	0	0	0	21262	19880	144903	27568	982891	39839	107801	0	0	8159	708064	0	0
2024-05-19 18:04:32			0	34754	0	0	0	21272	19890	144887	27393	982873	39839	107805	0	0	8160	706621	0	0
2024-05-19 18:05:32			0	34759	0	0	0	21264	19880	144719	27203	982856	39828	107802	0	0	8161	706426	0	0
2024-05-19 18:06:32			0	34800	0	0	0	21257	19880	144547	27197	982891	39817	107799	0	0	8163	704511	0	0
2024-05-19 18:07:32			0	34840	0	0	0	21254	19890	144403	27479	982899	39829	107798	0	0	8165	702608	0	0
2024-05-19 18:08:32			0	34855	0	0	0	21244	19880	144303	27163	982883	39828	107794	0	0	8166	701948	0	0
2024-05-19 18:09:32			0	34896	0	0	0	21249	19880	144143	27289	982864	39828	107796	0	0	8168	700042	0	0
2024-05-19 18:10:32			0	34897	0	0	0	21236	19880	144091	27339	982856	39828	107791	0	0	8169	699996	0	0
2024-05-19 18:11:32			0	34936	0	0	0	21236	19870	144075	27708	982848	39828	107791	0	0	8171	698225	0	0
2024-05-19 18:12:32			0	34938	0	0	0	21225	19870	143999	27376	982874	39817	107787	0	0	8171	698133	0	0
2024-05-19 18:13:32			0	34938	0	0	0	21220	19870	143979	27614	982874	39817	107785	0	0	8171	698133	0	0
2024-05-19 18:14:32			0	34933	0	0	0	21231	19860	143907	27332	982831	39827	107789	0	0	8171	698403	0	0
2024-05-19 18:15:32			0	34927	0	0	0	21233	19870	143895	27495	982821	39828	107790	0	0	8170	698643	0	0
2024-05-19 18:16:32			0	34961	0	0	0	21244	19870	143895	27367	982733	39827	107794	0	0	8172	697067	0	0
2024-05-19 18:17:32			0	34949	0	0	0	21246	19870	143955	27284	982866	39838	107795	0	0	8171	697623	0	0
2024-05-19 18:18:32			0	34968	0	0	0	21246	19870	143907	27495	982848	39828	107795	0	0	8172	696744	0	0
2024-05-19 18:19:32			0	34976	0	0	0	21249	19870	143871	27511	982848	39817	107796	0	0	8173	696373	0	0
2024-05-19 18:20:32			0	34978	0	0	0	21249	19860	143935	27234	982796	39847	107796	0	0	8173	696319	0	0
2024-05-19 18:21:32			0	34988	0	0	0	21244	19870	143711	27627	982892	39827	107794	0	0	8174	695818	0	0
2024-05-19 18:22:32			0	34994	0	0	0	21262	19870	143691	27452	982839	39827	107801	0	0	8174	695541	0	0
2024-05-19 18:23:32			0	35007	0	0	0	21280	19880	143651	27414	982909	39839	107808	0	0	8174	694902	0	0
2024-05-19 18:24:32			0	35015	0	0	0	21264	19870	143583	27405	982919	39849	107802	0	0	8175	694571	0	0
2024-05-19 18:25:32			0	35018	0	0	0	21264	19880	143643	27426	982883	39817	107802	0	0	8175	694394	0	0
2024-05-19 18:26:32			0	35025	0	0	0	21293	19880	143583	27364	982883	39828	107813	0	0	8175	694071	0	0
2024-05-19 18:27:32			0	35033	0	0	0	21329	19880	143635	27194	982989	39850	107827	0	0	8175	693702	0	0
2024-05-19 18:28:32			0	35045	0	0	0	21335	19880	143575	27282	982970	39839	107829	0	0	8175	693149	0	0
2024-05-19 18:29:32			0	35059	0	0	0	21348	19900	143523	27490	983075	39840	107834	0	0	8176	692428	0	0
2024-05-19 18:30:32			0	35087	0	0	0	21332	19900	143503	27353	983136	39840	107828	0	0	8178	691139	0	0
2024-05-19 18:31:32			0	35098	0	0	0	21368	19910	143451	27500	983180	39842	107842	0	0	8178	690595	0	0
2024-05-19 18:32:32			0	35114	0	0	0	21363	19910	143456	27277	983180	39853	107840	0	0	8179	689860	0	0
2024-05-19 18:33:32			0	35130	0	0	0	21371	19920	143192	27320	983249	39842	107843	0	0	8179	689088	0	0
2024-05-19 18:34:32			0	35134	0	0	0	21374	19940	143252	27575	983248	39855	107844	0	0	8180	688828	0	0
2024-05-19 18:35:32			0	35153	0	0	0	21412	19940	143252	27450	983381	39855	107859	0	0	8180	687957	0	0
2024-05-19 18:36:32			0	35133	0	0	0	21433	19950	143164	27412	983371	39856	107867	0	0	8179	688836	0	0
2024-05-19 18:37:32			0	35122	0	0	0	21433	19980	143164	27498	983439	39847	107867	0	0	8178	689227	0	0
2024-05-19 18:38:32			0	35133	0	0	0	21425	19980	143188	27173	983439	39836	107864	0	0	8179	688722	0	0
2024-05-19 18:39:32			0	35162	0	0	0	21428	19970	143124	27549	983404	39858	107865	0	0	8180	687431	0	0
2024-05-19 18:40:32			0	35167	0	0	0	21441	19980	142976	27327	983395	39859	107870	0	0	8181	687164	0	0
2024-05-19 18:41:32			0	35200	0	0	0	21433	19990	142932	27274	983509	39859	107867	0	0	8183	685617	0	0
2024-05-19 18:42:32			0	35211	0	0	0	21449	20000	142808	27294	983526	39871	107873	0	0	8183	685076	0	0
2024-05-19 18:43:32			0	35226	0	0	0	21462	20000	142648	27119	983526	39860	107878	0	0	8184	684391	0	0
2024-05-19 18:44:32			0	35275	0	0	0	21441	20020	142596	27353	983586	39873	107870	0	0	8187	682082	0	0
2024-05-19 18:45:32			0	35333	0	0	0	21433	20010	142476	27440	983551	39851	107867	0	0	8190	679482	0	0
2024-05-19 18:46:32			0	35345	0	0	0	21425	20020	142472	27204	983532	39851	107864	0	0	8191	678900	0	0
2024-05-19 18:47:32			0	35345	0	0	0	21412	20010	142252	27495	983516	39850	107859	0	0	8191	678937	0	0
2024-05-19 18:48:32			0	35349	0	0	0	21402	20010	142300	27543	983445	39851	107855	0	0	8191	678756	0	0
2024-05-19 18:49:32			0	35369	0	0	0	21394	20010	142304	27457	983471	39862	107852	0	0	8193	677849	0	0
2024-05-19 18:50:32			0	35348	0	0	0	21405	20010	142344	27326	983489	39861	107856	0	0	8191	678801	0	0
2024-05-19 18:51:32			0	35351	0	0	0	21405	20010	142368	27601	983489	39850	107856	0	0	8191	678665	0	0
2024-05-19 18:52:32			0	35354	0	0	0	21399	20010	142208	27791	983489	39861	107854	0	0	8192	678529	0	0
2024-05-19 18:53:32			0	35385	0	0	0	21394	20000	142096	27464	983446	39849	107852	0	0	8193	677161	0	0
2024-05-19 18:54:32			0	35377	0	0	0	21392	20000	142144	27227	983446	39838	107851	0	0	8193	677524	0	0
2024-05-19 18:55:32			0	35408	0	0	0	21386	20010	142056	27672	983489	39850	107849	0	0	8195	676083	0	0
2024-05-19 18:56:32			0	35438	0	0	0	21394	20010	141984	27249	983463	39839	107852	0	0	8196	674727	0	0
2024-05-19 18:57:32			0	35467	0	0	0	21379	20000	141832	27367	983420	39849	107846	0	0	8198	673455	0	0
2024-05-19 18:58:32			0	35516	0	0	0	21379	20000	141688	27582	983420	39838	107846	0	0	8201	671247	0	0
2024-05-19 18:59:32			0	35534	0	0	0	21374	19990	141456	27128	983411	39871	107844	0	0	8202	670474	0	0
2024-05-19 19:00:32			0	35602	0	0	0	21379	19980	141340	27575	983368	39848	107846	0	0	8205	667459	0	0
2024-05-19 19:01:32			0	35614	0	0	0	21381	19990	141236	27220	983438	39848	107847	0	0	8206	666884	0	0
2024-05-19 19:02:32			0	35664	0	0	0	21381	19990	140972	27270	983438	39848	107847	0	0	8209	664647	0	0
2024-05-19 19:03:32			0	35726	0	0	0	21374	19990	140868	27204	983438	39859	107844	0	0	8212	661881	0	0
2024-05-19 19:04:32			0	35737	0	0	0	21381	20000	140688	27272	983446	39849	107847	0	0	8213	661355	0	0
2024-05-19 19:05:32			0	35754	0	0	0	21381	19990	140628	27324	983385	39848	107847	0	0	8214	660635	0	0
2024-05-19 19:06:32			0	35769	0	0	0	21374	19980	140636	27232	983386	39847	107844	0	0	8215	660004	0	0
2024-05-19 19:07:32			0	35776	0	0	0	21384	19990	140660	27343	983411	39837	107848	0	0	8215	659657	0	0
2024-05-19 19:08:32			0	35802	0	0	0	21379	19990	140580	27194	983376	39848	107846	0	0	8216	658502	0	0
2024-05-19 19:09:32			0	35801	0	0	0	21371	19990	140548	27289	983403	39848	107843	0	0	8216	658546	0	0
2024-05-19 19:10:32			0	35810	0	0	0	21371	19990	140640	27426	983376	39848	107843	0	0	8217	658147	0	0
2024-05-19 19:11:32			0	35814	0	0	0	21376	19990	140536	27656	983350	39859	107845	0	0	8217	657969	0	0
2024-05-19 19:12:32			0	35851	0	0	0	21381	19980	140360	27388	983341	39848	107847	0	0	8219	656366	0	0
2024-05-19 19:13:32			0	35855	0	0	0	21379	19980	140328	27336	983360	39847	107846	0	0	8219	656189	0	0
2024-05-19 19:14:32			0	35889	0	0	0	21376	19990	140209	27230	983350	39871	107845	0	0	8221	654649	0	0
2024-05-19 19:15:32			0	35891	0	0	0	21376	19990	140141	27260	983403	39848	107845	0	0	8221	654560	0	0
2024-05-19 19:16:32			0	35925	0	0	0	21384	19990	140077	27209	983403	39837	107848	0	0	8223	653059	0	0
2024-05-19 19:17:32			0	35947	0	0	0	21374	19980	140057	27319	983333	39859	107844	0	0	8224	652125	0	0
2024-05-19 19:18:32			0	35970	0	0	0	21379	19980	139845	27414	983368	39859	107846	0	0	8225	651111	0	0
2024-05-19 19:19:32			0	36002	0	0	0	21376	19980	139901	27736	983341	39848	107845	0	0	8227	649704	0	0
2024-05-19 19:20:32			0	36000	0	0	0	21376	19980	139733	27298	983421	39848	107845	0	0	8227	649792	0	0
2024-05-19 19:21:32			0	36036	0	0	0	21381	19980	139541	27396	983333	39847	107847	0	0	8229	648210	0	0
2024-05-19 19:22:32			0	36084	0	0	0	21379	19980	139529	27462	983421	39848	107846	0	0	8231	646106	0	0
2024-05-19 19:23:32			0	36105	0	0	0	21384	19980	139389	27665	983341	39848	107848	0	0	8232	645187	0	0
2024-05-19 19:24:32			0	36160	0	0	0	21376	19980	139149	27305	983368	39848	107845	0	0	8236	642784	0	0
2024-05-19 19:25:32			0	36169	0	0	0	21379	19980	139081	27182	983368	39848	107846	0	0	8236	642392	0	0
2024-05-19 19:26:32			0	36217	0	0	0	21379	19980	138925	27569	983386	39859	107846	0	0	8239	640301	0	0
2024-05-19 19:27:32			0	36264	0	0	0	21376	19970	138797	27537	983422	39846	107845	0	0	8241	638293	0	0
2024-05-19 19:28:32			0	36290	0	0	0	21389	19980	138689	27538	983439	39859	107850	0	0	8242	637130	0	0
2024-05-19 19:29:32			0	36319	0	0	0	21379	19980	138569	27386	983386	39859	107846	0	0	8244	635874	0	0
2024-05-19 19:30:32			0	36337	0	0	0	21381	19980	138473	27258	983386	39859	107847	0	0	8245	635095	0	0
2024-05-19 19:31:32			0	36368	0	0	0	21381	19970	138321	27706	983404	39846	107847	0	0	8247	633789	0	0
2024-05-19 19:32:32			0	36364	0	0	0	21379	19980	138221	27235	983360	39836	107846	0	0	8246	633927	0	0
2024-05-19 19:33:32			0	36395	0	0	0	21386	19990	138317	27431	983376	39848	107849	0	0	8248	632554	0	0
2024-05-19 19:34:32			0	36417	0	0	0	21379	19980	138261	27244	983360	39859	107846	0	0	8249	631640	0	0
2024-05-19 19:35:32			0	36426	0	0	0	21384	19970	138213	27333	983351	39846	107848	0	0	8250	631287	0	0
2024-05-19 19:36:32			0	36424	0	0	0	21376	19980	138045	27412	983368	39859	107845	0	0	8250	631338	0	0
2024-05-19 19:37:32			0	36469	0	0	0	21389	19980	137953	27717	983368	39859	107850	0	0	8252	629402	0	0
2024-05-19 19:38:32			0	36503	0	0	0	21389	19980	137925	27604	983360	39859	107850	0	0	8254	627941	0	0
2024-05-19 19:39:32			0	36511	0	0	0	21384	19980	137761	27303	983395	39871	107848	0	0	8254	627598	0	0
2024-05-19 19:40:32			0	36539	0	0	0	21386	19980	137693	27691	983360	39859	107849	0	0	8256	626397	0	0
2024-05-19 19:41:32			0	36562	0	0	0	21376	19980	137617	27635	983395	39859	107845	0	0	8257	625412	0	0
2024-05-19 19:42:32			0	36589	0	0	0	21389	19980	137466	27537	983368	39859	107850	0	0	8258	624257	0	0
2024-05-19 19:43:32			0	36598	0	0	0	21389	19980	137454	27526	983368	39871	107850	0	0	8259	623872	0	0
2024-05-19 19:44:32			0	36655	0	0	0	21386	19990	137330	27303	983403	39848	107849	0	0	8262	621406	0	0
2024-05-19 19:45:32			0	36663	0	0	0	21386	19980	137290	27355	983395	39859	107849	0	0	8262	621099	0	0
2024-05-19 19:46:32			0	36682	0	0	0	21386	19980	137182	27234	983413	39880	107849	0	0	8263	620290	0	0
2024-05-19 19:47:32			0	36711	0	0	0	21384	19980	137146	27561	983341	39859	107848	0	0	8265	619057	0	0
2024-05-19 19:48:32			0	36732	0	0	0	21386	19990	137082	27549	983376	39859	107849	0	0	8266	618130	0	0
2024-05-19 19:49:32			0	36735	0	0	0	21371	19990	137026	27409	983403	39848	107843	0	0	8266	618003	0	0
2024-05-19 19:50:32			0	36761	0	0	0	21379	19980	137026	27454	983395	39859	107846	0	0	8267	616934	0	0
2024-05-19 19:51:32			0	36764	0	0	0	21374	19980	137010	27696	983341	39871	107844	0	0	8268	616806	0	0
2024-05-19 19:52:32			0	36765	0	0	0	21379	19970	136870	27611	983378	39846	107846	0	0	8268	616798	0	0
2024-05-19 19:53:32			0	36750	0	0	0	21389	19980	136922	27287	983386	39859	107850	0	0	8267	617400	0	0
2024-05-19 19:54:32			0	36761	0	0	0	21381	19970	136918	27588	983351	39858	107847	0	0	8267	616968	0	0
2024-05-19 19:55:32			0	36748	0	0	0	21386	19970	136902	27776	983378	39858	107849	0	0	8267	617519	0	0
2024-05-19 19:56:32			0	36748	0	0	0	21381	19980	136946	27587	983333	39847	107847	0	0	8267	617485	0	0
2024-05-19 19:57:32			0	36768	0	0	0	21384	19980	136898	27587	983333	39859	107848	0	0	8268	616637	0	0
2024-05-19 19:58:32			0	36744	0	0	0	21376	19980	136954	27435	983386	39859	107845	0	0	8267	617655	0	0
2024-05-19 19:59:32			0	36791	0	0	0	21379	19980	136974	27831	983360	39859	107846	0	0	8269	615662	0	0
2024-05-19 20:00:32			0	36761	0	0	0	21384	19980	136954	27466	983307	39859	107848	0	0	8267	616934	0	0
2024-05-19 20:01:32			0	36768	0	0	0	21374	19980	136950	27545	983386	39847	107844	0	0	8268	616637	0	0
2024-05-19 20:02:32			0	36767	0	0	0	21381	19980	136982	27724	983386	39870	107847	0	0	8268	616679	0	0
2024-05-19 20:03:32			0	36758	0	0	0	21381	19980	136866	27289	983395	39859	107847	0	0	8267	617061	0	0
2024-05-19 20:04:32			0	36770	0	0	0	21379	19980	136974	27575	983439	39847	107846	0	0	8268	616552	0	0
2024-05-19 20:05:32			0	36779	0	0	0	21379	19980	136870	27417	983360	39859	107846	0	0	8268	616171	0	0
2024-05-19 20:06:32			0	36770	0	0	0	21374	19990	136958	27654	983350	39871	107844	0	0	8268	616518	0	0
2024-05-19 20:07:32			0	36777	0	0	0	21376	19970	136826	27488	983378	39858	107845	0	0	8268	616289	0	0
2024-05-19 20:08:32			0	36792	0	0	0	21376	19980	136854	27445	983368	39859	107845	0	0	8269	615620	0	0
2024-05-19 20:09:32			0	36779	0	0	0	21374	19980	136794	27571	983360	39836	107844	0	0	8269	616171	0	0
2024-05-19 20:10:32			0	36776	0	0	0	21379	19980	136834	27414	983421	39848	107846	0	0	8268	616298	0	0
2024-05-19 20:11:32			0	36800	0	0	0	21381	19980	136790	27445	983413	39859	107847	0	0	8270	615281	0	0
2024-05-19 20:12:32			0	36787	0	0	0	21379	19980	136782	27268	983413	39870	107846	0	0	8269	615832	0	0
2024-05-19 20:13:32			0	36845	0	0	0	21384	19980	136770	27680	983341	39859	107848	0	0	8272	613378	0	0
2024-05-19 20:14:32			0	36850	0	0	0	21384	19980	136646	27625	983360	39859	107848	0	0	8272	613167	0	0
2024-05-19 20:15:32			0	36876	0	0	0	21376	19980	136570	27526	983386	39859	107845	0	0	8274	612070	0	0
2024-05-19 20:16:32			0	36905	0	0	0	21384	19980	136602	27454	983439	39859	107848	0	0	8275	610848	0	0
2024-05-19 20:17:32			0	36925	0	0	0	21371	19980	136330	27663	983395	39859	107843	0	0	8276	610005	0	0
2024-05-19 20:18:32			0	36980	0	0	0	21374	19980	136262	27476	983386	39859	107844	0	0	8279	607694	0	0
2024-05-19 20:19:32			0	36981	0	0	0	21376	19970	136130	27608	983343	39846	107845	0	0	8279	607685	0	0
2024-05-19 20:20:32			0	37032	0	0	0	21368	19980	135994	27293	983307	39870	107842	0	0	8282	605513	0	0
2024-05-19 20:21:32			0	37045	0	0	0	21371	19970	135950	27332	983351	39858	107843	0	0	8283	605003	0	0
2024-05-19 20:22:32			0	37093	0	0	0	21374	19980	135750	27677	983386	39847	107844	0	0	8285	602963	0	0
2024-05-19 20:23:32			0	37122	0	0	0	21379	19970	135570	27048	983378	39846	107846	0	0	8287	601786	0	0
2024-05-19 20:24:32			0	37165	0	0	0	21379	19970	135398	27495	983422	39858	107846	0	0	8289	599994	0	0
2024-05-19 20:25:32			0	37204	0	0	0	21376	19980	135310	27509	983413	39847	107845	0	0	8291	598339	0	0
2024-05-19 20:26:32			0	37227	0	0	0	21371	19970	135290	27116	983378	39858	107843	0	0	8292	597417	0	0
2024-05-19 20:27:32			0	37243	0	0	0	21368	19970	135078	27490	983316	39846	107842	0	0	8293	596753	0	0
2024-05-19 20:28:32			0	37287	0	0	0	21368	19970	135026	27400	983351	39858	107842	0	0	8295	594931	0	0
2024-05-19 20:29:32			0	37307	0	0	0	21376	19970	134862	27606	983369	39858	107845	0	0	8296	594103	0	0
2024-05-19 20:30:32			0	37335	0	0	0	21376	19970	134803	27429	983351	39858	107845	0	0	8298	592946	0	0
2024-05-19 20:31:32			0	37349	0	0	0	21366	19970	134723	27412	983351	39846	107841	0	0	8299	592368	0	0
2024-05-19 20:32:32			0	37388	0	0	0	21376	19970	134675	27287	983351	39858	107845	0	0	8301	590760	0	0
2024-05-19 20:33:32			0	37388	0	0	0	21371	19970	134619	27661	983298	39869	107843	0	0	8301	590760	0	0
2024-05-19 20:34:32			0	37417	0	0	0	21374	19960	134555	27580	983334	39857	107844	0	0	8302	589598	0	0
2024-05-19 20:35:32			0	37419	0	0	0	21361	19960	134503	27609	983308	39857	107839	0	0	8302	589516	0	0
2024-05-19 20:36:32			0	37441	0	0	0	21371	19970	134431	27770	983343	39869	107843	0	0	8303	588579	0	0
2024-05-19 20:37:32			0	37453	0	0	0	21366	19970	134447	27611	983343	39858	107841	0	0	8304	588086	0	0
2024-05-19 20:38:32			0	37466	0	0	0	21366	19950	134379	27831	983326	39868	107841	0	0	8305	587617	0	0
2024-05-19 20:39:32			0	37476	0	0	0	21358	19970	134399	27346	983316	39869	107838	0	0	8305	587142	0	0
2024-05-19 20:40:32			0	37490	0	0	0	21358	19970	134351	27360	983290	39858	107838	0	0	8306	586567	0	0
2024-05-19 20:41:32			0	37491	0	0	0	21353	19960	134387	27433	983334	39834	107836	0	0	8306	586559	0	0
2024-05-19 20:42:32			0	37501	0	0	0	21361	19950	134199	27583	983291	39856	107839	0	0	8307	586181	0	0
2024-05-19 20:43:32			0	37509	0	0	0	21363	19950	134247	27410	983299	39846	107840	0	0	8307	585853	0	0
2024-05-19 20:44:32			0	37501	0	0	0	21363	19950	134335	27616	983352	39857	107840	0	0	8307	586181	0	0
2024-05-19 20:45:32			0	37501	0	0	0	21366	19970	134219	27627	983316	39858	107841	0	0	8307	586116	0	0
2024-05-19 20:46:32			0	37486	0	0	0	21368	19940	134215	27724	983309	39845	107842	0	0	8306	586828	0	0
2024-05-19 20:47:32			0	37489	0	0	0	21361	19950	134119	27672	983291	39833	107839	0	0	8306	586673	0	0
2024-05-19 20:48:32			0	37516	0	0	0	21363	19970	134179	27386	983316	39846	107840	0	0	8307	585502	0	0
2024-05-19 20:49:32			0	37503	0	0	0	21361	19950	134131	27164	983326	39868	107839	0	0	8307	586099	0	0
2024-05-19 20:50:32			0	37492	0	0	0	21358	19950	134155	27327	983291	39867	107838	0	0	8306	586550	0	0
2024-05-19 20:51:32			0	37481	0	0	0	21358	19960	134251	27441	983281	39868	107838	0	0	8306	586969	0	0
2024-05-19 20:52:32			0	37477	0	0	0	21353	19950	134227	27566	983344	39845	107836	0	0	8306	587165	0	0
2024-05-19 20:53:32			0	37469	0	0	0	21363	19960	134271	27606	983308	39868	107840	0	0	8305	587461	0	0
2024-05-19 20:54:32			0	37465	0	0	0	21355	19950	134331	27580	983273	39868	107837	0	0	8305	587658	0	0
2024-05-19 20:55:32			0	37461	0	0	0	21358	19950	134303	27739	983265	39856	107838	0	0	8305	587822	0	0
2024-05-19 20:56:32			0	37454	0	0	0	21355	19960	134387	27445	983281	39857	107837	0	0	8304	588077	0	0
2024-05-19 20:57:32			0	37466	0	0	0	21361	19950	134303	27312	983318	39856	107839	0	0	8305	587617	0	0
2024-05-19 20:58:32			0	37449	0	0	0	21355	19960	134351	27400	983281	39857	107837	0	0	8304	588283	0	0
2024-05-19 20:59:32			0	37453	0	0	0	21350	19950	134291	27566	983265	39856	107835	0	0	8304	588151	0	0
2024-05-19 21:00:32			0	37457	0	0	0	21353	19950	134379	27435	983273	39846	107836	0	0	8304	587986	0	0
2024-05-19 21:01:32			0	37433	0	0	0	21350	19950	134311	27685	983291	39867	107835	0	0	8303	588973	0	0
2024-05-19 21:02:32			0	37456	0	0	0	21348	19940	134339	27516	983274	39866	107834	0	0	8304	588060	0	0
2024-05-19 21:03:32			0	37458	0	0	0	21348	19950	134267	27222	983318	39856	107834	0	0	8305	587945	0	0
2024-05-19 21:04:32			0	37466	0	0	0	21361	19950	134259	27407	983326	39868	107839	0	0	8305	587617	0	0
2024-05-19 21:05:32			0	37454	0	0	0	21350	19950	134339	27393	983265	39856	107835	0	0	8304	588110	0	0
2024-05-19 21:06:32			0	37482	0	0	0	21350	19940	134311	27197	983309	39877	107835	0	0	8306	586993	0	0
2024-05-19 21:07:32			0	37455	0	0	0	21353	19950	134339	27360	983291	39867	107836	0	0	8304	588068	0	0
2024-05-19 21:08:32			0	37476	0	0	0	21353	19950	134359	27497	983291	39845	107836	0	0	8305	587206	0	0
2024-05-19 21:09:32			0	37471	0	0	0	21350	19950	134343	27163	983265	39867	107835	0	0	8305	587412	0	0
2024-05-19 21:10:32			0	37458	0	0	0	21345	19950	134371	27538	983265	39856	107833	0	0	8305	587945	0	0
2024-05-19 21:11:32			0	37474	0	0	0	21345	19940	134407	27298	983221	39866	107833	0	0	8305	587321	0	0
2024-05-19 21:12:32			0	37461	0	0	0	21342	19940	134431	27192	983256	39856	107832	0	0	8305	587855	0	0
2024-05-19 21:13:32			0	37451	0	0	0	21342	19930	134487	27682	983133	39844	107832	0	0	8304	588298	0	0
2024-05-19 21:14:32			0	37443	0	0	0	21340	19930	134431	27564	983213	39866	107831	0	0	8304	588626	0	0
2024-05-19 21:15:32			0	37419	0	0	0	21342	19940	134523	27346	983221	39844	107832	0	0	8303	589581	0	0
2024-05-19 21:16:32			0	37418	0	0	0	21340	19940	134519	27569	983248	39855	107831	0	0	8303	589622	0	0
2024-05-19 21:17:32			0	37405	0	0	0	21337	19930	134495	27777	983133	39866	107830	0	0	8302	590190	0	0
2024-05-19 21:18:32			0	37381	0	0	0	21350	19940	134619	27313	983168	39866	107835	0	0	8300	591146	0	0
2024-05-19 21:19:32			0	37385	0	0	0	21332	19950	134603	27452	983318	39856	107828	0	0	8301	590949	0	0
2024-05-19 21:20:32			0	37367	0	0	0	21340	19930	134719	27313	983231	39854	107831	0	0	8300	591756	0	0
2024-05-19 21:21:32			0	37366	0	0	0	21332	19930	134787	27305	983213	39855	107828	0	0	8300	591797	0	0
2024-05-19 21:22:32			0	37322	0	0	0	21335	19930	134779	27582	983231	39865	107829	0	0	8298	593614	0	0
2024-05-19 21:23:32			0	37338	0	0	0	21322	19930	134839	27511	983160	39866	107824	0	0	8299	592953	0	0
2024-05-19 21:24:32			0	37338	0	0	0	21324	19930	134911	27334	983186	39855	107825	0	0	8299	592953	0	0
2024-05-19 21:25:32			0	37302	0	0	0	21327	19930	134910	27410	983133	39855	107826	0	0	8297	594441	0	0
2024-05-19 21:26:32			0	37289	0	0	0	21335	19940	134998	27388	983168	39866	107829	0	0	8296	594946	0	0
2024-05-19 21:27:32			0	37286	0	0	0	21327	19930	134966	27502	983240	39855	107826	0	0	8296	595103	0	0
2024-05-19 21:28:32			0	37268	0	0	0	21335	19920	135034	27097	983090	39864	107829	0	0	8295	595881	0	0
2024-05-19 21:29:32			0	37255	0	0	0	21322	19930	135050	27654	983125	39876	107824	0	0	8294	596387	0	0
2024-05-19 21:30:32			0	37256	0	0	0	21324	19930	135018	27568	983258	39865	107825	0	0	8294	596346	0	0
2024-05-19 21:31:32			0	37249	0	0	0	21324	19930	135014	27531	983178	39854	107825	0	0	8294	596636	0	0
2024-05-19 21:32:32			0	37224	0	0	0	21337	19930	135138	27450	983231	39843	107830	0	0	8292	597674	0	0
2024-05-19 21:33:32			0	37248	0	0	0	21322	19930	135102	27313	983160	39866	107824	0	0	8294	596678	0	0
2024-05-19 21:34:32			0	37232	0	0	0	21327	19930	135130	27717	983205	39854	107826	0	0	8293	597342	0	0
2024-05-19 21:35:32			0	37251	0	0	0	21327	19930	135054	27620	983205	39876	107826	0	0	8294	596553	0	0
2024-05-19 21:36:32			0	37266	0	0	0	21324	19920	135202	27588	983108	39842	107825	0	0	8295	595964	0	0
2024-05-19 21:37:32			0	37245	0	0	0	21327	19920	134998	27371	983108	39853	107826	0	0	8294	596835	0	0
2024-05-19 21:38:32			0	37262	0	0	0	21322	19920	135018	27448	983082	39853	107824	0	0	8295	596130	0	0
2024-05-19 21:39:32			0	37263	0	0	0	21329	19930	135026	27336	983125	39854	107827	0	0	8295	596056	0	0
2024-05-19 21:40:32			0	37269	0	0	0	21322	19930	134978	27074	983099	39854	107824	0	0	8295	595807	0	0
2024-05-19 21:41:32			0	37277	0	0	0	21322	19930	134978	27338	983186	39844	107824	0	0	8295	595476	0	0
2024-05-19 21:42:32			0	37284	0	0	0	21316	19920	134978	27550	983108	39853	107822	0	0	8296	595219	0	0
2024-05-19 21:43:32			0	37303	0	0	0	21316	19910	135002	27476	983074	39853	107822	0	0	8297	594465	0	0
2024-05-19 21:44:32			0	37301	0	0	0	21314	19910	134966	27331	983127	39864	107821	0	0	8297	594548	0	0
2024-05-19 21:45:32			0	37314	0	0	0	21309	19910	134887	27428	983145	39864	107819	0	0	8298	594010	0	0
2024-05-19 21:46:32			0	37317	0	0	0	21306	19910	134831	27429	983153	39853	107818	0	0	8298	593886	0	0
2024-05-19 21:47:32			0	37323	0	0	0	21316	19900	134871	27222	983163	39852	107822	0	0	8298	593671	0	0
2024-05-19 21:48:32			0	37330	0	0	0	21306	19910	134779	27312	983100	39864	107818	0	0	8298	593349	0	0
2024-05-19 21:49:32			0	37339	0	0	0	21311	19910	134787	27324	983039	39852	107820	0	0	8299	592977	0	0
2024-05-19 21:50:32			0	37351	0	0	0	21311	19910	134863	27360	983047	39864	107820	0	0	8299	592481	0	0
2024-05-19 21:51:32			0	37317	0	0	0	21303	19900	134831	27079	983163	39840	107817	0	0	8298	593919	0	0
2024-05-19 21:52:32			0	37329	0	0	0	21303	19910	135019	27199	983065	39852	107817	0	0	8298	593390	0	0
2024-05-19 21:53:32			0	37327	0	0	0	21301	19900	134863	27284	983110	39863	107816	0	0	8298	593505	0	0
2024-05-19 21:54:32			0	37295	0	0	0	21314	19900	134890	27163	983083	39852	107821	0	0	8296	594829	0	0
2024-05-19 21:55:32			0	37291	0	0	0	21298	19910	135062	27516	983039	39852	107815	0	0	8297	594962	0	0
2024-05-19 21:56:32			0	37294	0	0	0	21301	19900	135050	27213	983083	39863	107816	0	0	8297	594870	0	0
2024-05-19 21:57:32			0	37268	0	0	0	21301	19900	135042	27227	983083	39852	107816	0	0	8295	595947	0	0
2024-05-19 21:58:32			0	37246	0	0	0	21309	19890	135066	27260	983032	39851	107819	0	0	8294	596892	0	0
2024-05-19 21:59:32			0	37270	0	0	0	21290	19900	135066	27453	983049	39863	107812	0	0	8296	595864	0	0
2024-05-19 22:00:32			0	37279	0	0	0	21298	19900	135038	27142	983163	39852	107815	0	0	8296	595491	0	0
2024-05-19 22:01:32			0	37278	0	0	0	21288	19890	135086	27306	983040	39852	107811	0	0	8296	595566	0	0
2024-05-19 22:02:32			0	37281	0	0	0	21288	19890	134974	27332	983005	39851	107811	0	0	8296	595441	0	0
2024-05-19 22:03:32			0	37296	0	0	0	21283	19890	134986	27185	983040	39863	107809	0	0	8297	594820	0	0
2024-05-19 22:04:32			0	37304	0	0	0	21280	19890	134958	27204	983005	39851	107808	0	0	8297	594489	0	0
2024-05-19 22:05:32			0	37320	0	0	0	21285	19890	135014	27490	982961	39863	107810	0	0	8298	593827	0	0
2024-05-19 22:06:32			0	37317	0	0	0	21283	19890	134875	27367	982979	39839	107809	0	0	8298	593952	0	0
2024-05-19 22:07:32			0	37335	0	0	0	21280	19890	134843	27213	983032	39839	107808	0	0	8299	593208	0	0
2024-05-19 22:08:32			0	37347	0	0	0	21280	19890	134807	27433	983005	39829	107808	0	0	8300	592712	0	0
2024-05-19 22:09:32			0	37358	0	0	0	21270	19890	134767	27357	982987	39852	107804	0	0	8300	592258	0	0
2024-05-19 22:10:32			0	37372	0	0	0	21272	19880	134671	27048	982962	39850	107805	0	0	8301	591713	0	0
2024-05-19 22:11:32			0	37375	0	0	0	21272	19880	134655	27653	982997	39839	107805	0	0	8301	591589	0	0
2024-05-19 22:12:32			0	37380	0	0	0	21270	19880	134655	27275	982997	39850	107804	0	0	8302	591383	0	0
2024-05-19 22:13:32			0	37403	0	0	0	21257	19870	134503	27300	982972	39849	107799	0	0	8303	590467	0	0
2024-05-19 22:14:32			0	37400	0	0	0	21264	19880	134595	27371	982936	39839	107802	0	0	8303	590558	0	0
2024-05-19 22:15:32			0	37420	0	0	0	21267	19870	134431	27391	982901	39850	107803	0	0	8304	589767	0	0
2024-05-19 22:16:32			0	37439	0	0	0	21262	19880	134487	27422	982944	39861	107801	0	0	8305	588953	0	0
2024-05-19 22:17:32			0	37433	0	0	0	21262	19880	134471	27313	982917	39861	107801	0	0	8304	589200	0	0
2024-05-19 22:18:32			0	37452	0	0	0	21267	19870	134495	27826	982954	39850	107803	0	0	8305	588451	0	0
2024-05-19 22:19:32			0	37443	0	0	0	21257	19870	134491	27485	982901	39839	107799	0	0	8305	588821	0	0
2024-05-19 22:20:32			0	37434	0	0	0	21267	19870	134523	27341	982919	39849	107803	0	0	8304	589191	0	0
2024-05-19 22:21:32			0	37461	0	0	0	21259	19870	134451	27308	982866	39860	107800	0	0	8306	588081	0	0
2024-05-19 22:22:32			0	37446	0	0	0	21262	19860	134443	27222	982884	39837	107801	0	0	8305	588730	0	0
2024-05-19 22:23:32			0	37464	0	0	0	21262	19870	134491	27332	982927	39850	107801	0	0	8306	587958	0	0
2024-05-19 22:24:32			0	37450	0	0	0	21262	19860	134599	27334	982884	39848	107801	0	0	8305	588566	0	0
2024-05-19 22:25:32			0	37434	0	0	0	21257	19870	134591	27568	982866	39849	107799	0	0	8305	589191	0	0
2024-05-19 22:26:32			0	37421	0	0	0	21257	19870	134547	27618	982945	39860	107799	0	0	8304	589726	0	0
2024-05-19 22:27:32			0	37409	0	0	0	21259	19860	134487	27395	982876	39847	107800	0	0	8303	590253	0	0
2024-05-19 22:28:32			0	37398	0	0	0	21257	19860	134531	27459	982902	39847	107799	0	0	8303	590706	0	0
2024-05-19 22:29:32			0	37392	0	0	0	21249	19860	134615	27776	982831	39859	107796	0	0	8302	590953	0	0
2024-05-19 22:30:32			0	37382	0	0	0	21257	19860	134599	27857	982902	39847	107799	0	0	8302	591365	0	0
2024-05-19 22:31:32			0	37395	0	0	0	21259	19860	134631	27500	982937	39859	107800	0	0	8302	590830	0	0
2024-05-19 22:32:32			0	37380	0	0	0	21262	19860	134631	27582	982911	39848	107801	0	0	8302	591448	0	0
2024-05-19 22:33:32			0	37369	0	0	0	21264	19860	134715	27571	982858	39848	107802	0	0	8301	591902	0	0
2024-05-19 22:34:32			0	37383	0	0	0	21270	19860	134615	27550	982902	39858	107804	0	0	8302	591324	0	0
2024-05-19 22:35:32			0	37394	0	0	0	21267	19870	134639	27779	982892	39849	107803	0	0	8302	590838	0	0
2024-05-19 22:36:32			0	37379	0	0	0	21267	19860	134647	27201	982849	39858	107803	0	0	8301	591489	0	0
2024-05-19 22:37:32			0	37398	0	0	0	21270	19860	134687	27433	982964	39859	107804	0	0	8302	590706	0	0
2024-05-19 22:38:32			0	37395	0	0	0	21262	19850	134631	27635	982920	39858	107801	0	0	8302	590862	0	0
2024-05-19 22:39:32			0	37408	0	0	0	21270	19860	134583	27426	982911	39859	107804	0	0	8303	590294	0	0
2024-05-19 22:40:32			0	37381	0	0	0	21249	19870	134659	27550	982892	39860	107796	0	0	8302	591374	0	0
2024-05-19 22:41:32			0	37389	0	0	0	21272	19860	134603	27632	982911	39848	107805	0	0	8302	591077	0	0
2024-05-19 22:42:32			0	37386	0	0	0	21259	19850	134659	27324	982920	39836	107800	0	0	8302	591233	0	0
2024-05-19 22:43:32			0	37394	0	0	0	21249	19850	134663	27235	982867	39847	107796	0	0	8303	590903	0	0
2024-05-19 22:44:32			0	37405	0	0	0	21257	19860	134659	27170	982849	39858	107799	0	0	8303	590418	0	0
2024-05-19 22:45:32			0	37387	0	0	0	21257	19860	134603	27187	982876	39858	107799	0	0	8302	591159	0	0
2024-05-19 22:46:32			0	37383	0	0	0	21262	19860	134671	27433	982884	39848	107801	0	0	8302	591324	0	0
2024-05-19 22:47:32			0	37391	0	0	0	21259	19860	134575	27557	982876	39858	107800	0	0	8302	590994	0	0
2024-05-19 22:48:32			0	37392	0	0	0	21262	19850	134739	27428	982886	39847	107801	0	0	8302	590986	0	0
2024-05-19 22:49:32			0	37364	0	0	0	21264	19860	134691	27190	982876	39847	107802	0	0	8301	592108	0	0
2024-05-19 22:50:32			0	37356	0	0	0	21259	19850	134779	27379	982912	39858	107800	0	0	8300	592471	0	0
2024-05-19 22:51:32			0	37356	0	0	0	21246	19850	134799	27788	982912	39847	107795	0	0	8301	592471	0	0
2024-05-19 22:52:32			0	37324	0	0	0	21249	19850	134899	27521	982894	39847	107796	0	0	8299	593793	0	0
2024-05-19 22:53:32			0	37312	0	0	0	21251	19860	134926	27242	982902	39858	107797	0	0	8298	594256	0	0
2024-05-19 22:54:32			0	37308	0	0	0	21257	19850	134926	27310	982867	39847	107799	0	0	8298	594455	0	0
2024-05-19 22:55:32			0	37294	0	0	0	21257	19860	134938	27658	982902	39847	107799	0	0	8297	595002	0	0
2024-05-19 22:56:32			0	37284	0	0	0	21254	19850	134978	27422	982867	39858	107798	0	0	8297	595448	0	0
2024-05-19 22:57:32			0	37280	0	0	0	21246	19850	135006	27582	982886	39858	107795	0	0	8297	595614	0	0
2024-05-19 22:58:32			0	37273	0	0	0	21249	19850	135078	27429	982859	39858	107796	0	0	8296	595904	0	0
2024-05-19 22:59:32			0	37249	0	0	0	21257	19850	135082	27367	982886	39858	107799	0	0	8295	596899	0	0
2024-05-19 23:00:32			0	37255	0	0	0	21246	19840	135122	27293	982851	39857	107795	0	0	8295	596683	0	0
2024-05-19 23:01:32			0	37261	0	0	0	21246	19850	135054	27216	982833	39858	107795	0	0	8296	596401	0	0
2024-05-19 23:02:32			0	37245	0	0	0	21249	19840	135150	27085	982789	39845	107796	0	0	8295	597098	0	0
2024-05-19 23:03:32			0	37269	0	0	0	21251	19840	135166	27291	982824	39846	107797	0	0	8296	596103	0	0
2024-05-19 23:04:32			0	37259	0	0	0	21238	19840	135142	27190	982824	39835	107792	0	0	8296	596517	0	0
2024-05-19 23:05:32			0	37267	0	0	0	21241	19850	135150	27170	982841	39847	107793	0	0	8296	596153	0	0
2024-05-19 23:06:32			0	37270	0	0	0	21231	19840	135046	26932	982824	39857	107789	0	0	8296	596061	0	0
2024-05-19 23:07:32			0	37285	0	0	0	21244	19850	134954	27213	982833	39847	107794	0	0	8297	595407	0	0
2024-05-19 23:08:32			0	37316	0	0	0	21231	19840	134995	27500	982851	39857	107789	0	0	8299	594156	0	0
2024-05-19 23:09:32			0	37299	0	0	0	21233	19830	134958	27242	982781	39834	107790	0	0	8298	594893	0	0
2024-05-19 23:10:32			0	37323	0	0	0	21231	19840	134931	27248	982869	39857	107789	0	0	8299	593867	0	0
2024-05-19 23:11:32			0	37338	0	0	0	21246	19830	134851	27209	982807	39857	107795	0	0	8300	593280	0	0
2024-05-19 23:12:32			0	37361	0	0	0	21238	19830	134759	27170	982781	39857	107792	0	0	8301	592330	0	0
2024-05-19 23:13:32			0	37386	0	0	0	21241	19830	134787	27246	982807	39857	107793	0	0	8302	591298	0	0
2024-05-19 23:14:32			0	37380	0	0	0	21236	19840	134651	27360	982842	39845	107791	0	0	8302	591513	0	0
2024-05-19 23:15:32			0	37408	0	0	0	21233	19830	134643	27251	982834	39845	107790	0	0	8303	590391	0	0
2024-05-19 23:16:32			0	37412	0	0	0	21223	19840	134563	27479	982815	39845	107786	0	0	8304	590194	0	0
2024-05-19 23:17:32			0	37441	0	0	0	21231	19830	134371	27462	982807	39845	107789	0	0	8305	589033	0	0
2024-05-19 23:18:32			0	37462	0	0	0	21223	19830	134379	27241	982772	39845	107786	0	0	8306	588170	0	0
2024-05-19 23:19:32			0	37463	0	0	0	21218	19830	134379	27588	982719	39845	107784	0	0	8307	588129	0	0
2024-05-19 23:20:32			0	37487	0	0	0	21225	19820	134251	27046	982756	39833	107787	0	0	8308	587176	0	0
2024-05-19 23:21:32			0	37520	0	0	0	21223	19830	134295	27112	982772	39845	107786	0	0	8309	585790	0	0
2024-05-19 23:22:32			0	37514	0	0	0	21218	19810	134187	27462	982721	39844	107784	0	0	8309	586100	0	0
2024-05-19 23:23:32			0	37573	0	0	0	21225	19830	134055	27464	982799	39845	107787	0	0	8312	583620	0	0
2024-05-19 23:24:32			0	37592	0	0	0	21220	19830	134091	27371	982728	39824	107785	0	0	8313	582844	0	0
2024-05-19 23:25:32			0	37587	0	0	0	21212	19810	133971	27492	982694	39844	107782	0	0	8313	583112	0	0
2024-05-19 23:26:32			0	37614	0	0	0	21218	19820	133971	27384	982756	39855	107784	0	0	8314	581978	0	0
2024-05-19 23:27:32			0	37614	0	0	0	21207	19810	133967	27315	982739	39844	107780	0	0	8315	582010	0	0
2024-05-19 23:28:32			0	37640	0	0	0	21210	19820	133855	27483	982782	39833	107781	0	0	8316	580917	0	0
2024-05-19 23:29:32			0	37673	0	0	0	21207	19820	133779	27519	982676	39855	107780	0	0	8318	579573	0	0
2024-05-19 23:30:32			0	37686	0	0	0	21215	19810	133707	27428	982739	39855	107783	0	0	8318	579076	0	0
2024-05-19 23:31:32			0	37713	0	0	0	21205	19810	133651	27277	982739	39844	107779	0	0	8320	577978	0	0
2024-05-19 23:32:32			0	37746	0	0	0	21210	19820	133519	27569	982756	39855	107781	0	0	8321	576607	0	0
2024-05-19 23:33:32			0	37756	0	0	0	21212	19810	133443	27253	982721	39844	107782	0	0	8322	576233	0	0
2024-05-19 23:34:32			0	37776	0	0	0	21218	19810	133335	27294	982747	39844	107784	0	0	8323	575422	0	0
2024-05-19 23:35:32			0	37792	0	0	0	21202	19800	133339	27417	982704	39843	107778	0	0	8324	574806	0	0
2024-05-19 23:36:32			0	37823	0	0	0	21210	19810	133243	27235	982641	39844	107781	0	0	8325	573520	0	0
2024-05-19 23:37:32			0	37833	0	0	0	21207	19810	133203	27592	982641	39833	107780	0	0	8326	573116	0	0
2024-05-19 23:38:32			0	37848	0	0	0	21207	19800	133103	27281	982704	39854	107780	0	0	8327	572541	0	0
2024-05-19 23:39:32			0	37889	0	0	0	21199	19800	132947	27620	982678	39843	107777	0	0	8329	570887	0	0
2024-05-19 23:40:32			0	37919	0	0	0	21199	19800	132939	27138	982643	39853	107777	0	0	8331	569678	0	0
2024-05-19 23:41:32			0	37937	0	0	0	21207	19810	132871	27658	982659	39844	107780	0	0	8331	568923	0	0
2024-05-19 23:42:32			0	37955	0	0	0	21199	19810	132831	27133	982659	39833	107777	0	0	8333	568199	0	0
2024-05-19 23:43:32			0	37980	0	0	0	21202	19800	132731	27590	982651	39843	107778	0	0	8334	567226	0	0
2024-05-19 23:44:32			0	37974	0	0	0	21187	19800	132683	27364	982669	39842	107772	0	0	8334	567467	0	0
2024-05-19 23:45:32			0	37995	0	0	0	21197	19800	132571	27286	982669	39842	107776	0	0	8335	566624	0	0
2024-05-19 23:46:32			0	38028	0	0	0	21194	19790	132511	27281	982687	39831	107775	0	0	8336	565332	0	0
2024-05-19 23:47:32			0	38029	0	0	0	21189	19800	132507	27474	982731	39843	107773	0	0	8337	565261	0	0
2024-05-19 23:48:32			0	38060	0	0	0	21189	19800	132424	27410	982696	39821	107773	0	0	8338	564020	0	0
2024-05-19 23:49:32			0	38050	0	0	0	21187	19780	132404	27576	982636	39840	107772	0	0	8338	564482	0	0
2024-05-19 23:50:32			0	38083	0	0	0	21189	19780	132348	27625	982538	39841	107773	0	0	8339	563162	0	0
2024-05-19 23:51:32			0	38098	0	0	0	21176	19780	132284	27142	982618	39852	107768	0	0	8340	562563	0	0
2024-05-19 23:52:32			0	38083	0	0	0	21176	19770	132332	27509	982548	39839	107768	0	0	8339	563193	0	0
2024-05-19 23:53:32			0	38101	0	0	0	21179	19780	132264	27485	982530	39840	107769	0	0	8340	562443	0	0
2024-05-19 23:54:32			0	38122	0	0	0	21171	19780	132244	27417	982591	39831	107766	0	0	8342	561605	0	0
2024-05-19 23:55:32			0	38113	0	0	0	21171	19790	132212	27355	982600	39841	107766	0	0	8341	561933	0	0
2024-05-19 23:56:32			0	38102	0	0	0	21171	19780	132216	27234	982583	39840	107766	0	0	8341	562403	0	0
2024-05-19 23:57:32			0	38137	0	0	0	21163	19780	132108	27455	982530	39840	107763	0	0	8343	561006	0	0
2024-05-19 23:58:32			0	38128	0	0	0	21166	19770	132120	27390	982575	39839	107764	0	0	8342	561396	0	0
2024-05-19 23:59:32			0	38116	0	0	0	21166	19770	132180	27251	982548	39829	107764	0	0	8341	561875	0	0
2024-05-20 00:00:32			0	38140	0	0	0	21158	19780	132040	27488	982583	39830	107761	0	0	8343	560887	0	0
2024-05-20 00:01:32			0	38145	0	0	0	21168	19770	132136	27275	982521	39839	107765	0	0	8343	560718	0	0
2024-05-20 00:02:32			0	38143	0	0	0	21163	19760	132164	27365	982531	39839	107763	0	0	8343	560829	0	0
2024-05-20 00:03:32			0	38165	0	0	0	21163	19770	132160	27542	982487	39839	107763	0	0	8344	559921	0	0
2024-05-20 00:04:32			0	38141	0	0	0	21161	19760	132116	27255	982470	39838	107762	0	0	8343	560909	0	0
2024-05-20 00:05:32			0	38166	0	0	0	21158	19760	132152	27152	982452	39839	107761	0	0	8344	559912	0	0
2024-05-20 00:06:32			0	38145	0	0	0	21155	19750	132052	27052	982480	39838	107760	0	0	8343	560780	0	0
2024-05-20 00:07:32			0	38164	0	0	0	21145	19760	132028	27705	982470	39838	107756	0	0	8344	559992	0	0
2024-05-20 00:08:32			0	38159	0	0	0	21148	19750	132128	27071	982435	39838	107757	0	0	8344	560222	0	0
2024-05-20 00:09:32			0	38173	0	0	0	21148	19750	132036	27260	982435	39838	107757	0	0	8345	559665	0	0
2024-05-20 00:10:32			0	38183	0	0	0	21145	19760	132076	27223	982470	39850	107756	0	0	8345	559236	0	0
2024-05-20 00:11:32			0	38196	0	0	0	21150	19760	132092	26996	982443	39828	107758	0	0	8346	558718	0	0
2024-05-20 00:12:32			0	38192	0	0	0	21150	19750	132004	27284	982435	39827	107758	0	0	8346	558908	0	0
2024-05-20 00:13:32			0	38181	0	0	0	21145	19750	132024	27235	982427	39849	107756	0	0	8345	559346	0	0
2024-05-20 00:14:32			0	38196	0	0	0	21148	19750	132036	27388	982409	39838	107757	0	0	8346	558749	0	0
2024-05-20 00:15:32			0	38185	0	0	0	21145	19750	131920	26920	982462	39838	107756	0	0	8345	559187	0	0
2024-05-20 00:16:32			0	38229	0	0	0	21150	19750	131956	27116	982435	39827	107758	0	0	8347	557438	0	0
2024-05-20 00:17:32			0	38215	0	0	0	21137	19740	131948	27064	982418	39849	107753	0	0	8347	558025	0	0
2024-05-20 00:18:32			0	38212	0	0	0	21142	19740	131912	27203	982471	39838	107755	0	0	8347	558144	0	0
2024-05-20 00:19:32			0	38214	0	0	0	21132	19740	131932	27355	982357	39837	107751	0	0	8347	558064	0	0
2024-05-20 00:20:32			0	38229	0	0	0	21137	19740	131836	27248	982418	39849	107753	0	0	8348	557468	0	0
2024-05-20 00:21:32			0	38229	0	0	0	21142	19740	131872	27488	982384	39848	107755	0	0	8348	557468	0	0
2024-05-20 00:22:32			0	38219	0	0	0	21142	19740	131896	27469	982357	39859	107755	0	0	8347	557866	0	0
2024-05-20 00:23:32			0	38234	0	0	0	21124	19740	131836	27197	982384	39826	107748	0	0	8348	557270	0	0
2024-05-20 00:24:32			0	38246	0	0	0	21137	19740	131824	27209	982365	39838	107753	0	0	8349	556793	0	0
2024-05-20 00:25:32			0	38253	0	0	0	21137	19730	131788	27398	982375	39836	107753	0	0	8349	556546	0	0
2024-05-20 00:26:32			0	38252	0	0	0	21132	19740	131824	27118	982384	39837	107751	0	0	8349	556555	0	0
2024-05-20 00:27:32			0	38254	0	0	0	21124	19720	131816	27445	982359	39825	107748	0	0	8349	556537	0	0
2024-05-20 00:28:32			0	38249	0	0	0	21127	19730	131860	27263	982322	39826	107749	0	0	8349	556705	0	0
2024-05-20 00:29:32			0	38256	0	0	0	21127	19730	131848	27123	982402	39826	107749	0	0	8349	556427	0	0
2024-05-20 00:30:32			0	38254	0	0	0	21124	19730	131684	27085	982375	39836	107748	0	0	8349	556506	0	0
2024-05-20 00:31:32			0	38260	0	0	0	21124	19720	131668	27209	982332	39835	107748	0	0	8349	556299	0	0
2024-05-20 00:32:32			0	38297	0	0	0	21124	19730	131716	27208	982367	39835	107748	0	0	8351	554802	0	0
2024-05-20 00:33:32			0	38267	0	0	0	21122	19730	131780	27022	982375	39847	107747	0	0	8350	555991	0	0
2024-05-20 00:34:32			0	38278	0	0	0	21111	19730	131720	27396	982349	39836	107743	0	0	8351	555555	0	0
2024-05-20 00:35:32			0	38284	0	0	0	21111	19740	131660	27294	982384	39826	107743	0	0	8351	555286	0	0
2024-05-20 00:36:32			0	38273	0	0	0	21122	19720	131656	27466	982323	39835	107747	0	0	8350	555784	0	0
2024-05-20 00:37:32			0	38274	0	0	0	21119	19720	131680	26972	982270	39846	107746	0	0	8350	555744	0	0
2024-05-20 00:38:32			0	38280	0	0	0	21111	19720	131684	27216	982323	39835	107743	0	0	8351	555506	0	0
2024-05-20 00:39:32			0	38290	0	0	0	21114	19720	131744	27227	982305	39835	107744	0	0	8351	555110	0	0
2024-05-20 00:40:32			0	38279	0	0	0	21111	19720	131704	27381	982297	39825	107743	0	0	8351	555546	0	0
2024-05-20 00:41:32			0	38285	0	0	0	21119	19730	131648	27597	982296	39836	107746	0	0	8351	555277	0	0
2024-05-20 00:42:32			0	38285	0	0	0	21129	19720	131616	27383	982350	39846	107750	0	0	8351	555308	0	0
2024-05-20 00:43:32			0	38321	0	0	0	21119	19720	131556	27192	982332	39835	107746	0	0	8353	553883	0	0
2024-05-20 00:44:32			0	38303	0	0	0	21116	19710	131616	27677	982315	39834	107745	0	0	8352	554625	0	0
2024-05-20 00:45:32			0	38315	0	0	0	21116	19720	131520	27185	982332	39825	107745	0	0	8352	554120	0	0
2024-05-20 00:46:32			0	38311	0	0	0	21114	19720	131684	27331	982323	39835	107744	0	0	8352	554278	0	0
2024-05-20 00:47:32			0	38283	0	0	0	21119	19720	131664	27476	982297	39835	107746	0	0	8351	555387	0	0
2024-05-20 00:48:32			0	38301	0	0	0	21116	19720	131596	27654	982323	39825	107745	0	0	8352	554674	0	0
2024-05-20 00:49:32			0	38308	0	0	0	21116	19720	131644	27261	982323	39825	107745	0	0	8352	554397	0	0
2024-05-20 00:50:32			0	38329	0	0	0	21122	19720	131584	27445	982350	39835	107747	0	0	8353	553566	0	0
2024-05-20 00:51:32			0	38311	0	0	0	21116	19720	131648	27215	982297	39825	107745	0	0	8352	554278	0	0
2024-05-20 00:52:32			0	38317	0	0	0	21111	19720	131548	27329	982305	39846	107743	0	0	8353	554041	0	0
2024-05-20 00:53:32			0	38333	0	0	0	21116	19720	131520	27242	982323	39835	107745	0	0	8353	553408	0	0
2024-05-20 00:54:32			0	38326	0	0	0	21119	19720	131508	27306	982297	39835	107746	0	0	8353	553685	0	0
2024-05-20 00:55:32			0	38327	0	0	0	21124	19720	131588	27301	982323	39846	107748	0	0	8353	553645	0	0
2024-05-20 00:56:32			0	38323	0	0	0	21127	19710	131572	27452	982289	39834	107749	0	0	8353	553834	0	0
2024-05-20 00:57:32			0	38339	0	0	0	21116	19720	131536	27388	982297	39825	107745	0	0	8354	553171	0	0
2024-05-20 00:58:32			0	38330	0	0	0	21109	19720	131616	27483	982244	39835	107742	0	0	8353	553526	0	0
2024-05-20 00:59:32			0	38343	0	0	0	21111	19710	131464	27471	982280	39833	107743	0	0	8354	553043	0	0
2024-05-20 01:00:32			0	38353	0	0	0	21111	19720	131456	27590	982305	39846	107743	0	0	8354	552617	0	0
2024-05-20 01:01:32			0	38346	0	0	0	21111	19710	131452	27417	982315	39834	107743	0	0	8354	552924	0	0
2024-05-20 01:02:32			0	38361	0	0	0	21106	19710	131456	27530	982289	39824	107741	0	0	8355	552332	0	0
2024-05-20 01:03:32			0	38380	0	0	0	21106	19720	131344	27454	982350	39835	107741	0	0	8356	551551	0	0
2024-05-20 01:04:32			0	38350	0	0	0	21106	19710	131376	27649	982289	39845	107741	0	0	8354	552766	0	0
2024-05-20 01:05:32			0	38353	0	0	0	21109	19720	131444	27467	982244	39846	107742	0	0	8355	552617	0	0
2024-05-20 01:06:32			0	38350	0	0	0	21111	19710	131380	27386	982262	39834	107743	0	0	8354	552766	0	0
2024-05-20 01:07:32			0	38349	0	0	0	21106	19710	131352	27436	982315	39824	107741	0	0	8354	552806	0	0
2024-05-20 01:08:32			0	38358	0	0	0	21111	19700	131436	27400	982166	39823	107743	0	0	8355	552481	0	0
2024-05-20 01:09:32			0	38363	0	0	0	21101	19700	131352	27260	982245	39833	107739	0	0	8355	552283	0	0
2024-05-20 01:10:32			0	38383	0	0	0	21109	19710	131316	27230	982235	39834	107742	0	0	8356	551463	0	0
2024-05-20 01:11:32			0	38385	0	0	0	21101	19710	131356	27575	982280	39833	107739	0	0	8356	551384	0	0
2024-05-20 01:12:32			0	38371	0	0	0	21101	19710	131352	27027	982280	39833	107739	0	0	8356	551937	0	0
2024-05-20 01:13:32			0	38390	0	0	0	21101	19710	131336	27441	982307	39823	107739	0	0	8357	551187	0	0
2024-05-20 01:14:32			0	38396	0	0	0	21098	19710	131400	27088	982289	39845	107738	0	0	8357	550951	0	0
2024-05-20 01:15:32			0	38365	0	0	0	21101	19690	131304	27104	982229	39844	107739	0	0	8355	552235	0	0
2024-05-20 01:16:32			0	38381	0	0	0	21098	19700	131360	27324	982272	39823	107738	0	0	8356	551573	0	0
2024-05-20 01:17:32			0	38392	0	0	0	21096	19700	131340	27509	982166	39844	107737	0	0	8357	551139	0	0
2024-05-20 01:18:32			0	38399	0	0	0	21098	19690	131356	27473	982229	39811	107738	0	0	8357	550893	0	0
2024-05-20 01:19:32			0	38396	0	0	0	21080	19690	131308	27526	982202	39844	107731	0	0	8357	551011	0	0
2024-05-20 01:20:32			0	38389	0	0	0	21093	19700	131256	27369	982264	39823	107736	0	0	8357	551257	0	0
2024-05-20 01:21:32			0	38403	0	0	0	21090	19700	131280	27064	982245	39844	107735	0	0	8357	550705	0	0
2024-05-20 01:22:32			0	38391	0	0	0	21088	19690	131296	27294	982176	39833	107734	0	0	8357	551208	0	0
2024-05-20 01:23:32			0	38402	0	0	0	21090	19700	131260	27346	982272	39833	107735	0	0	8357	550744	0	0
2024-05-20 01:24:32			0	38404	0	0	0	21083	19700	131292	27258	982245	39833	107732	0	0	8358	550665	0	0
2024-05-20 01:25:32			0	38423	0	0	0	21088	19690	131316	27414	982220	39843	107734	0	0	8358	549947	0	0
2024-05-20 01:26:32			0	38402	0	0	0	21090	19680	131316	27497	982159	39843	107735	0	0	8357	550805	0	0
2024-05-20 01:27:32			0	38393	0	0	0	21083	19680	131280	27229	982212	39832	107732	0	0	8357	551160	0	0
2024-05-20 01:28:32			0	38413	0	0	0	21083	19690	131296	27268	982194	39832	107732	0	0	8358	550341	0	0
2024-05-20 01:29:32			0	38431	0	0	0	21075	19680	131256	27443	982132	39843	107729	0	0	8359	549662	0	0
2024-05-20 01:30:32			0	38408	0	0	0	21072	19690	131248	27386	982194	39843	107728	0	0	8358	550538	0	0
2024-05-20 01:31:32			0	38418	0	0	0	21072	19680	131252	27194	982159	39821	107728	0	0	8358	550174	0	0
2024-05-20 01:32:32			0	38432	0	0	0	21062	19680	131192	27272	982098	39832	107724	0	0	8359	549623	0	0
2024-05-20 01:33:32			0	38428	0	0	0	21067	19670	131184	27388	982169	39832	107726	0	0	8359	549811	0	0
2024-05-20 01:34:32			0	38423	0	0	0	21059	19680	131180	27270	982106	39832	107723	0	0	8359	549977	0	0
2024-05-20 01:35:32			0	38435	0	0	0	21059	19680	131152	27365	982098	39843	107723	0	0	8359	549505	0	0
2024-05-20 01:36:32			0	38436	0	0	0	21054	19680	131180	27206	982151	39832	107721	0	0	8360	549465	0	0
2024-05-20 01:37:32			0	38450	0	0	0	21059	19660	131088	27227	982046	39819	107723	0	0	8360	548975	0	0
2024-05-20 01:38:32			0	38455	0	0	0	21046	19660	131156	27215	982020	39830	107718	0	0	8361	548778	0	0
2024-05-20 01:39:32			0	38438	0	0	0	21051	19660	131088	27241	982073	39830	107720	0	0	8360	549447	0	0
2024-05-20 01:40:32			0	38447	0	0	0	21059	19670	131236	27220	982142	39820	107723	0	0	8360	549063	0	0
2024-05-20 01:41:32			0	38457	0	0	0	21057	19660	131128	27445	982126	39830	107722	0	0	8361	548699	0	0
2024-05-20 01:42:32			0	38449	0	0	0	21054	19670	131148	27189	982107	39819	107721	0	0	8360	548984	0	0
2024-05-20 01:43:32			0	38445	0	0	0	21054	19660	131208	27199	982126	39830	107721	0	0	8360	549172	0	0
2024-05-20 01:44:32			0	38427	0	0	0	21049	19670	131180	27502	982107	39819	107719	0	0	8359	549850	0	0
2024-05-20 01:45:32			0	38442	0	0	0	21051	19650	131212	27251	982038	39851	107720	0	0	8360	549320	0	0
2024-05-20 01:46:32			0	38436	0	0	0	21049	19670	131252	27215	982081	39841	107719	0	0	8360	549496	0	0
2024-05-20 01:47:32			0	38434	0	0	0	21046	19650	131196	27597	982056	39830	107718	0	0	8360	549635	0	0
2024-05-20 01:48:32			0	38454	0	0	0	21049	19650	131212	27300	982082	39840	107719	0	0	8360	548848	0	0
2024-05-20 01:49:32			0	38438	0	0	0	21049	19650	131220	27422	982029	39830	107719	0	0	8360	549477	0	0
2024-05-20 01:50:32			0	38429	0	0	0	21049	19650	131252	27459	982082	39819	107719	0	0	8359	549832	0	0
2024-05-20 01:51:32			0	38425	0	0	0	21041	19650	131272	27232	982038	39840	107716	0	0	8359	549989	0	0
2024-05-20 01:52:32			0	38454	0	0	0	21044	19650	131224	27312	982011	39830	107717	0	0	8361	548848	0	0
2024-05-20 01:53:32			0	38446	0	0	0	21054	19650	131252	27267	982029	39840	107721	0	0	8360	549162	0	0
2024-05-20 01:54:32			0	38413	0	0	0	21044	19640	131284	27050	982101	39839	107717	0	0	8358	550493	0	0
2024-05-20 01:55:32			0	38438	0	0	0	21049	19650	131260	27282	982003	39819	107719	0	0	8360	549477	0	0
2024-05-20 01:56:32			0	38446	0	0	0	21044	19650	131184	27232	982056	39819	107717	0	0	8360	549162	0	0
2024-05-20 01:57:32			0	38456	0	0	0	21041	19640	131320	27185	981995	39829	107716	0	0	8361	548799	0	0
2024-05-20 01:58:32			0	38419	0	0	0	21033	19640	131152	27261	981968	39829	107713	0	0	8359	550256	0	0
2024-05-20 01:59:32			0	38451	0	0	0	21038	19640	131248	27607	981995	39818	107715	0	0	8360	548996	0	0
2024-05-20 02:00:32			0	38448	0	0	0	21028	19640	131204	27173	981968	39818	107711	0	0	8361	549114	0	0
2024-05-20 02:01:32			0	38448	0	0	0	21031	19640	131260	27390	981986	39806	107712	0	0	8360	549114	0	0
2024-05-20 02:02:32			0	38460	0	0	0	21025	19630	131128	27229	981978	39838	107710	0	0	8361	548672	0	0
2024-05-20 02:03:32			0	38460	0	0	0	21020	19630	131240	27339	981996	39828	107708	0	0	8361	548672	0	0
2024-05-20 02:04:32			0	38452	0	0	0	21020	19620	131112	27452	981900	39837	107708	0	0	8361	549017	0	0
2024-05-20 02:05:32			0	38457	0	0	0	21025	19620	131344	27377	982014	39827	107710	0	0	8361	548820	0	0
2024-05-20 02:06:32			0	38470	0	0	0	21015	19630	131248	27531	981925	39817	107706	0	0	8362	548278	0	0
2024-05-20 02:07:32			0	38474	0	0	0	21023	19630	131192	27429	981996	39828	107709	0	0	8362	548121	0	0
2024-05-20 02:08:32			0	38453	0	0	0	21023	19630	131100	27428	981943	39817	107709	0	0	8361	548947	0	0
2024-05-20 02:09:32			0	38459	0	0	0	21015	19620	131228	27566	981961	39827	107706	0	0	8361	548741	0	0
2024-05-20 02:10:32			0	38455	0	0	0	21020	19620	131184	27367	981953	39826	107708	0	0	8361	548899	0	0
2024-05-20 02:11:32			0	38459	0	0	0	21018	19640	131108	27498	981986	39828	107707	0	0	8361	548681	0	0
2024-05-20 02:12:32			0	38465	0	0	0	21023	19630	131208	27275	981970	39828	107709	0	0	8361	548475	0	0
2024-05-20 02:13:32			0	38463	0	0	0	21023	19620	131212	27088	981935	39827	107709	0	0	8361	548584	0	0
2024-05-20 02:14:32			0	38475	0	0	0	21025	19620	131188	27391	981988	39827	107710	0	0	8362	548112	0	0
2024-05-20 02:15:32			0	38463	0	0	0	21028	19630	131184	27450	981970	39838	107711	0	0	8361	548554	0	0
2024-05-20 02:16:32			0	38471	0	0	0	21025	19620	131172	27415	981961	39827	107710	0	0	8362	548269	0	0
2024-05-20 02:17:32			0	38476	0	0	0	21028	19620	131136	27350	981953	39815	107711	0	0	8362	548073	0	0
2024-05-20 02:18:32			0	38482	0	0	0	21025	19630	131168	27350	981970	39849	107710	0	0	8362	547807	0	0
2024-05-20 02:19:32			0	38490	0	0	0	21025	19620	131160	27568	981935	39827	107710	0	0	8363	547523	0	0
2024-05-20 02:20:32			0	38460	0	0	0	21028	19620	131164	27620	981935	39827	107711	0	0	8361	548702	0	0
2024-05-20 02:21:32			0	38471	0	0	0	21031	19630	131212	27154	981996	39838	107712	0	0	8362	548239	0	0
2024-05-20 02:22:32			0	38462	0	0	0	21025	19630	131172	27343	981978	39838	107710	0	0	8361	548593	0	0
2024-05-20 02:23:32			0	38472	0	0	0	21025	19620	131180	27138	981926	39826	107710	0	0	8362	548230	0	0
2024-05-20 02:24:32			0	38481	0	0	0	21025	19620	131288	27540	982014	39816	107710	0	0	8362	547876	0	0
2024-05-20 02:25:32			0	38471	0	0	0	21020	19620	131160	27604	981935	39816	107708	0	0	8362	548269	0	0
2024-05-20 02:26:32			0	38468	0	0	0	21020	19620	131296	27289	981900	39826	107708	0	0	8362	548387	0	0
2024-05-20 02:27:32			0	38475	0	0	0	21015	19620	131248	27180	981926	39815	107706	0	0	8362	548112	0	0
2024-05-20 02:28:32			0	38472	0	0	0	21018	19620	131216	27774	981961	39827	107707	0	0	8362	548230	0	0
2024-05-20 02:29:32			0	38464	0	0	0	21018	19610	131192	27260	981865	39837	107707	0	0	8361	548575	0	0
2024-05-20 02:30:32			0	38482	0	0	0	21012	19620	131204	27391	981873	39848	107705	0	0	8362	547837	0	0
2024-05-20 02:31:32			0	38477	0	0	0	21012	19620	131180	27469	981935	39827	107705	0	0	8362	548034	0	0
2024-05-20 02:32:32			0	38475	0	0	0	21012	19620	131196	27575	981908	39816	107705	0	0	8362	548112	0	0
2024-05-20 02:33:32			0	38474	0	0	0	21015	19620	131172	27644	981953	39826	107706	0	0	8362	548151	0	0
2024-05-20 02:34:32			0	38472	0	0	0	21010	19620	131220	27616	981953	39837	107704	0	0	8362	548230	0	0
2024-05-20 02:35:32			0	38487	0	0	0	21012	19620	131244	27587	981900	39826	107705	0	0	8363	547641	0	0
2024-05-20 02:36:32			0	38456	0	0	0	21012	19610	131200	27455	981865	39826	107705	0	0	8361	548890	0	0
2024-05-20 02:37:32			0	38462	0	0	0	21007	19610	131228	27517	981936	39837	107703	0	0	8361	548654	0	0
2024-05-20 02:38:32			0	38474	0	0	0	20997	19610	131256	27327	981918	39815	107699	0	0	8362	548182	0	0
2024-05-20 02:39:32			0	38460	0	0	0	21002	19610	131252	27315	981865	39837	107701	0	0	8361	548732	0	0
2024-05-20 02:40:32			0	38480	0	0	0	20992	19610	131172	27377	981830	39826	107697	0	0	8363	547946	0	0
2024-05-20 02:41:32			0	38491	0	0	0	20984	19590	131188	27547	981752	39825	107694	0	0	8363	547574	0	0
2024-05-20 02:42:32			0	38485	0	0	0	20986	19600	131148	27661	981848	39825	107695	0	0	8363	547779	0	0
2024-05-20 02:43:32			0	38504	0	0	0	20976	19590	131124	27511	981831	39825	107691	0	0	8364	547063	0	0
2024-05-20 02:44:32			0	38481	0	0	0	20986	19590	131168	27369	981823	39813	107695	0	0	8363	547967	0	0
2024-05-20 02:45:32			0	38496	0	0	0	20986	19590	131172	27277	981831	39825	107695	0	0	8364	547377	0	0
2024-05-20 02:46:32			0	38508	0	0	0	20979	19590	131192	27322	981805	39825	107692	0	0	8364	546906	0	0
2024-05-20 02:47:32			0	38480	0	0	0	20981	19600	131236	27173	981795	39814	107693	0	0	8363	547976	0	0
2024-05-20 02:48:32			0	38502	0	0	0	20992	19590	131124	27564	981823	39824	107697	0	0	8364	547142	0	0
2024-05-20 02:49:32			0	38506	0	0	0	20994	19600	131152	27431	981875	39825	107698	0	0	8364	546954	0	0
2024-05-20 02:50:32			0	38506	0	0	0	20992	19590	131176	27327	981831	39835	107697	0	0	8364	546984	0	0
2024-05-20 02:51:32			0	38497	0	0	0	20994	19590	131148	27348	981770	39824	107698	0	0	8363	547338	0	0
2024-05-20 02:52:32			0	38498	0	0	0	20997	19590	131184	27393	981831	39813	107699	0	0	8363	547299	0	0
2024-05-20 02:53:32			0	38490	0	0	0	20994	19590	131216	27267	981797	39813	107698	0	0	8363	547613	0	0
2024-05-20 02:54:32			0	38494	0	0	0	20999	19590	131284	27300	981850	39834	107700	0	0	8363	547456	0	0
2024-05-20 02:55:32			0	38500	0	0	0	21002	19590	131096	27478	981805	39825	107701	0	0	8363	547220	0	0
2024-05-20 02:56:32			0	38518	0	0	0	20997	19600	131176	27329	981840	39825	107699	0	0	8365	546483	0	0
2024-05-20 02:57:32			0	38496	0	0	0	20989	19600	131136	27400	981822	39814	107696	0	0	8364	547347	0	0
2024-05-20 02:58:32			0	38473	0	0	0	20997	19600	131148	27431	981840	39835	107699	0	0	8362	548251	0	0
2024-05-20 02:59:32			0	38505	0	0	0	20994	19590	131080	27486	981850	39824	107698	0	0	8364	547024	0	0
2024-05-20 03:00:32			0	38514	0	0	0	20994	19590	131148	27736	981831	39825	107698	0	0	8364	546670	0	0
2024-05-20 03:01:32			0	38505	0	0	0	20999	19590	131128	27481	981797	39824	107700	0	0	8364	547024	0	0
2024-05-20 03:02:32			0	38510	0	0	0	20997	19580	131132	27244	981780	39833	107699	0	0	8364	546857	0	0
2024-05-20 03:03:32			0	38482	0	0	0	20997	19590	131188	27230	981797	39834	107699	0	0	8363	547927	0	0
2024-05-20 03:04:32			0	38530	0	0	0	20999	19600	131188	27145	981893	39835	107700	0	0	8365	546012	0	0
2024-05-20 03:05:32			0	38504	0	0	0	20999	19600	131180	27633	981840	39835	107700	0	0	8364	547033	0	0
2024-05-20 03:06:32			0	38512	0	0	0	20997	19590	131104	27355	981858	39813	107699	0	0	8364	546749	0	0
2024-05-20 03:07:32			0	38520	0	0	0	20999	19600	131128	27490	981814	39825	107700	0	0	8365	546405	0	0
2024-05-20 03:08:32			0	38519	0	0	0	21005	19590	131160	27327	981858	39835	107702	0	0	8364	546474	0	0
2024-05-20 03:09:32			0	38540	0	0	0	21005	19590	131112	27220	981911	39825	107702	0	0	8365	545650	0	0
2024-05-20 03:10:32			0	38517	0	0	0	21002	19610	131068	27213	981883	39815	107701	0	0	8364	546492	0	0
2024-05-20 03:11:32			0	38519	0	0	0	21007	19600	131104	27609	981875	39825	107703	0	0	8364	546444	0	0
2024-05-20 03:12:32			0	38538	0	0	0	20997	19600	131004	27104	981893	39813	107699	0	0	8366	545699	0	0
2024-05-20 03:13:32			0	38541	0	0	0	21005	19590	131048	27469	981831	39813	107702	0	0	8366	545611	0	0
2024-05-20 03:14:32			0	38531	0	0	0	21002	19600	131068	27428	981822	39825	107701	0	0	8365	545973	0	0
2024-05-20 03:15:32			0	38529	0	0	0	20994	19590	131032	27317	981831	39813	107698	0	0	8365	546082	0	0
2024-05-20 03:16:32			0	38529	0	0	0	21002	19600	131108	27628	981893	39835	107701	0	0	8365	546052	0	0
2024-05-20 03:17:32			0	38529	0	0	0	20994	19600	131016	27521	981822	39814	107698	0	0	8365	546052	0	0
2024-05-20 03:18:32			0	38539	0	0	0	20999	19600	131012	27296	981787	39825	107700	0	0	8366	545659	0	0
2024-05-20 03:19:32			0	38535	0	0	0	21005	19600	130976	27332	981893	39835	107702	0	0	8365	545816	0	0
2024-05-20 03:20:32			0	38535	0	0	0	21005	19600	130924	27460	981867	39813	107702	0	0	8365	545816	0	0
2024-05-20 03:21:32			0	38550	0	0	0	21012	19590	131012	27232	981858	39835	107705	0	0	8366	545258	0	0
2024-05-20 03:22:32			0	38542	0	0	0	20997	19600	130952	27757	981954	39814	107699	0	0	8366	545542	0	0
2024-05-20 03:23:32			0	38536	0	0	0	21007	19600	130932	27322	981875	39825	107703	0	0	8365	545777	0	0
2024-05-20 03:24:32			0	38557	0	0	0	21002	19600	130984	27237	981867	39835	107701	0	0	8366	544954	0	0
2024-05-20 03:25:32			0	38532	0	0	0	21010	19600	130992	27317	981814	39835	107704	0	0	8365	545934	0	0
2024-05-20 03:26:32			0	38557	0	0	0	21007	19600	131012	27395	981901	39847	107703	0	0	8366	544954	0	0
2024-05-20 03:27:32			0	38550	0	0	0	21007	19600	130908	27369	981928	39825	107703	0	0	8366	545228	0	0
2024-05-20 03:28:32			0	38541	0	0	0	20999	19600	131076	27268	981795	39836	107700	0	0	8366	545581	0	0
2024-05-20 03:29:32			0	38551	0	0	0	21010	19610	131028	27438	981910	39826	107704	0	0	8366	545159	0	0
2024-05-20 03:30:32			0	38528	0	0	0	21002	19600	131040	27294	981840	39825	107701	0	0	8365	546091	0	0
2024-05-20 03:31:32			0	38548	0	0	0	21002	19600	130944	27329	981875	39825	107701	0	0	8366	545307	0	0
2024-05-20 03:32:32			0	38535	0	0	0	20986	19600	131028	27171	981901	39825	107695	0	0	8366	545816	0	0
2024-05-20 03:33:32			0	38550	0	0	0	20994	19600	131008	27275	981840	39835	107698	0	0	8366	545228	0	0
2024-05-20 03:34:32			0	38536	0	0	0	20997	19600	130924	27300	981893	39813	107699	0	0	8365	545777	0	0
2024-05-20 03:35:32			0	38526	0	0	0	20997	19600	130952	27317	981848	39825	107699	0	0	8365	546169	0	0
2024-05-20 03:36:32			0	38514	0	0	0	20997	19590	130992	27770	981805	39825	107699	0	0	8364	546670	0	0
2024-05-20 03:37:32			0	38521	0	0	0	20992	19600	130948	27388	981867	39825	107697	0	0	8365	546366	0	0
2024-05-20 03:38:32			0	38526	0	0	0	20992	19590	131052	27431	981831	39825	107697	0	0	8365	546199	0	0
2024-05-20 03:39:32			0	38519	0	0	0	20984	19590	131076	27085	981770	39813	107694	0	0	8365	546474	0	0
2024-05-20 03:40:32			0	38506	0	0	0	20984	19600	131132	27159	981840	39825	107694	0	0	8364	546954	0	0
2024-05-20 03:41:32			0	38518	0	0	0	20984	19580	131176	27417	981815	39834	107694	0	0	8365	546543	0	0
2024-05-20 03:42:32			0	38507	0	0	0	20992	19600	131172	27575	981867	39825	107697	0	0	8364	546915	0	0
2024-05-20 03:43:32			0	38505	0	0	0	20992	19590	131168	27249	981858	39825	107697	0	0	8364	547024	0	0
2024-05-20 03:44:32			0	38486	0	0	0	20992	19590	131132	27175	981797	39824	107697	0	0	8363	547770	0	0
2024-05-20 03:45:32			0	38487	0	0	0	20984	19590	131168	27142	981831	39835	107694	0	0	8363	547731	0	0
2024-05-20 03:46:32			0	38479	0	0	0	20989	19580	131204	27460	981762	39824	107696	0	0	8363	548076	0	0
2024-05-20 03:47:32			0	38475	0	0	0	20992	19590	131192	27348	981797	39813	107697	0	0	8362	548203	0	0
2024-05-20 03:48:32			0	38466	0	0	0	20986	19590	131240	27246	981884	39825	107695	0	0	8362	548557	0	0
2024-05-20 03:49:32			0	38447	0	0	0	20992	19590	131276	27201	981850	39813	107697	0	0	8361	549304	0	0
2024-05-20 03:50:32			0	38440	0	0	0	20984	19590	131352	27260	981778	39835	107694	0	0	8361	549580	0	0
2024-05-20 03:51:32			0	38426	0	0	0	20989	19590	131328	27095	981805	39825	107696	0	0	8360	550132	0	0
2024-05-20 03:52:32			0	38426	0	0	0	20997	19590	131424	27369	981823	39824	107699	0	0	8360	550132	0	0
2024-05-20 03:53:32			0	38417	0	0	0	20984	19590	131404	27452	981831	39835	107694	0	0	8359	550486	0	0
2024-05-20 03:54:32			0	38391	0	0	0	20981	19580	131400	27400	981788	39813	107693	0	0	8358	551542	0	0
2024-05-20 03:55:32			0	38389	0	0	0	20976	19580	131460	27260	981762	39834	107691	0	0	8358	551621	0	0
2024-05-20 03:56:32			0	38384	0	0	0	20984	19590	131432	27213	981823	39824	107694	0	0	8358	551788	0	0
2024-05-20 03:57:32			0	38398	0	0	0	20986	19580	131456	27556	981780	39823	107695	0	0	8358	551266	0	0
2024-05-20 03:58:32			0	38395	0	0	0	20974	19580	131504	27332	981780	39823	107690	0	0	8358	551384	0	0
2024-05-20 03:59:32			0	38380	0	0	0	20971	19570	131552	27391	981719	39844	107689	0	0	8358	552007	0	0
2024-05-20 04:00:32			0	38380	0	0	0	20971	19580	131496	27388	981735	39824	107689	0	0	8358	551976	0	0
2024-05-20 04:01:32			0	38362	0	0	0	20974	19580	131632	27448	981788	39813	107690	0	0	8357	552688	0	0
2024-05-20 04:02:32			0	38352	0	0	0	20961	19570	131572	27138	981772	39823	107685	0	0	8356	553113	0	0
2024-05-20 04:03:32			0	38349	0	0	0	20958	19580	131600	27499	981727	39833	107684	0	0	8356	553202	0	0
2024-05-20 04:04:32			0	38335	0	0	0	20953	19580	131668	27341	981727	39812	107682	0	0	8356	553755	0	0
2024-05-20 04:05:32			0	38321	0	0	0	20955	19570	131728	27601	981684	39833	107683	0	0	8355	554340	0	0
2024-05-20 04:06:32			0	38319	0	0	0	20942	19570	131764	27530	981710	39811	107678	0	0	8355	554419	0	0
2024-05-20 04:07:32			0	38320	0	0	0	20940	19560	131784	27590	981694	39821	107677	0	0	8355	554410	0	0
2024-05-20 04:08:32			0	38307	0	0	0	20932	19560	131800	27239	981641	39810	107674	0	0	8354	554925	0	0
2024-05-20 04:09:32			0	38312	0	0	0	20929	19550	131784	27519	981597	39809	107673	0	0	8355	554757	0	0
2024-05-20 04:10:32			0	38321	0	0	0	20927	19550	131768	27296	981579	39798	107672	0	0	8355	554401	0	0
2024-05-20 04:11:32			0	38321	0	0	0	20922	19550	131752	27062	981597	39809	107670	0	0	8355	554401	0	0
2024-05-20 04:12:32			0	38323	0	0	0	20914	19540	131772	27533	981554	39819	107667	0	0	8356	554352	0	0
2024-05-20 04:13:32			0	38326	0	0	0	20903	19530	131764	27556	981493	39807	107663	0	0	8356	554264	0	0
2024-05-20 04:14:32			0	38364	0	0	0	20903	19530	131700	27163	981572	39807	107663	0	0	8358	552761	0	0
2024-05-20 04:15:32			0	38362	0	0	0	20893	19530	131656	27242	981484	39807	107659	0	0	8358	552840	0	0
2024-05-20 04:16:32			0	38384	0	0	0	20888	19520	131620	27379	981441	39818	107657	0	0	8359	552001	0	0
2024-05-20 04:17:32			0	38415	0	0	0	20885	19510	131472	27211	981424	39817	107656	0	0	8361	550807	0	0
2024-05-20 04:18:32			0	38409	0	0	0	20885	19520	131472	27493	981441	39818	107656	0	0	8360	551014	0	0
2024-05-20 04:19:32			0	38431	0	0	0	20870	19510	131464	27293	981424	39817	107650	0	0	8362	550177	0	0
2024-05-20 04:20:32			0	38459	0	0	0	20867	19500	131328	27222	981355	39816	107649	0	0	8363	549104	0	0
2024-05-20 04:21:32			0	38469	0	0	0	20867	19500	131256	27237	981355	39816	107649	0	0	8364	548710	0	0
2024-05-20 04:22:32			0	38484	0	0	0	20870	19480	131228	27313	981295	39813	107650	0	0	8364	548180	0	0
2024-05-20 04:23:32			0	38495	0	0	0	20857	19500	131176	27538	981381	39827	107645	0	0	8365	547688	0	0
2024-05-20 04:24:32			0	38509	0	0	0	20862	19480	131124	27322	981383	39803	107647	0	0	8366	547198	0	0
2024-05-20 04:25:32			0	38535	0	0	0	20870	19490	131060	27507	981365	39815	107650	0	0	8367	546147	0	0
2024-05-20 04:26:32			0	38532	0	0	0	20857	19490	131096	27428	981365	39804	107645	0	0	8367	546264	0	0
2024-05-20 04:27:32			0	38536	0	0	0	20862	19480	131060	27235	981330	39814	107647	0	0	8367	546137	0	0
2024-05-20 04:28:32			0	38562	0	0	0	20862	19470	130944	27377	981340	39824	107647	0	0	8369	545148	0	0
2024-05-20 04:29:32			0	38561	0	0	0	20867	19470	131004	27317	981304	39812	107649	0	0	8368	545187	0	0
2024-05-20 04:30:32			0	38580	0	0	0	20864	19470	131020	27590	981287	39824	107648	0	0	8369	544442	0	0
2024-05-20 04:31:32			0	38590	0	0	0	20851	19470	130888	27280	981313	39802	107643	0	0	8370	544051	0	0
2024-05-20 04:32:32			0	38620	0	0	0	20859	19460	130756	27481	981288	39800	107646	0	0	8372	542907	0	0
2024-05-20 04:33:32			0	38636	0	0	0	20857	19460	130772	27454	981270	39812	107645	0	0	8372	542281	0	0
2024-05-20 04:34:32			0	38633	0	0	0	20851	19460	130732	27701	981243	39812	107643	0	0	8372	542399	0	0
2024-05-20 04:35:32			0	38678	0	0	0	20846	19450	130692	27516	981332	39800	107641	0	0	8375	540672	0	0
2024-05-20 04:36:32			0	38664	0	0	0	20846	19460	130680	27479	981243	39812	107641	0	0	8374	541188	0	0
2024-05-20 04:37:32			0	38683	0	0	0	20846	19460	130636	27594	981261	39811	107641	0	0	8375	540447	0	0
2024-05-20 04:38:32			0	38687	0	0	0	20849	19460	130436	27320	981243	39812	107642	0	0	8375	540291	0	0
2024-05-20 04:39:32			0	38715	0	0	0	20846	19450	130524	27291	981253	39811	107641	0	0	8377	539230	0	0
2024-05-20 04:40:32			0	38716	0	0	0	20838	19450	130484	27618	981226	39823	107638	0	0	8377	539191	0	0
2024-05-20 04:41:32			0	38723	0	0	0	20846	19450	130520	27571	981200	39811	107641	0	0	8377	538918	0	0
2024-05-20 04:42:32			0	38739	0	0	0	20841	19460	130449	27305	981261	39811	107639	0	0	8378	538266	0	0
2024-05-20 04:43:32			0	38730	0	0	0	20849	19450	130473	27537	981200	39811	107642	0	0	8377	538646	0	0
2024-05-20 04:44:32			0	38742	0	0	0	20846	19450	130425	27492	981218	39822	107641	0	0	8378	538179	0	0
2024-05-20 04:45:32			0	38727	0	0	0	20859	19450	130385	27438	981173	39823	107646	0	0	8377	538762	0	0
2024-05-20 04:46:32			0	38755	0	0	0	20857	19450	130385	27505	981279	39811	107645	0	0	8379	537673	0	0
2024-05-20 04:47:32			0	38763	0	0	0	20854	19450	130377	27310	981271	39799	107644	0	0	8379	537362	0	0
2024-05-20 04:48:32			0	38755	0	0	0	20851	19460	130425	27260	981235	39800	107643	0	0	8379	537644	0	0
2024-05-20 04:49:32			0	38758	0	0	0	20849	19440	130421	27306	981210	39811	107642	0	0	8379	537586	0	0
2024-05-20 04:50:32			0	38774	0	0	0	20851	19450	130337	27043	981253	39811	107643	0	0	8380	536935	0	0
2024-05-20 04:51:32			0	38768	0	0	0	20862	19450	130325	27459	981253	39823	107647	0	0	8379	537168	0	0
2024-05-20 04:52:32			0	38782	0	0	0	20862	19450	130321	27514	981279	39811	107647	0	0	8380	536624	0	0
2024-05-20 04:53:32			0	38780	0	0	0	20859	19460	130293	27659	981288	39811	107646	0	0	8380	536672	0	0
2024-05-20 04:54:32			0	38802	0	0	0	20862	19450	130293	27293	981306	39800	107647	0	0	8381	535848	0	0
2024-05-20 04:55:32			0	38786	0	0	0	20862	19470	130209	27540	981304	39824	107647	0	0	8380	536410	0	0
2024-05-20 04:56:32			0	38778	0	0	0	20862	19470	130277	27528	981304	39812	107647	0	0	8380	536720	0	0
2024-05-20 04:57:32			0	38801	0	0	0	20859	19450	130277	27635	981226	39823	107646	0	0	8381	535887	0	0
2024-05-20 04:58:32			0	38815	0	0	0	20862	19460	130285	27177	981314	39800	107647	0	0	8382	535314	0	0
2024-05-20 04:59:32			0	38802	0	0	0	20864	19450	130289	27372	981324	39799	107648	0	0	8381	535848	0	0
2024-05-20 05:00:32			0	38817	0	0	0	20867	19460	130169	27578	981288	39811	107649	0	0	8382	535237	0	0
2024-05-20 05:01:32			0	38810	0	0	0	20862	19460	130185	27360	981270	39824	107647	0	0	8381	535508	0	0
2024-05-20 05:02:32			0	38848	0	0	0	20867	19460	130213	27206	981341	39811	107649	0	0	8383	534036	0	0
2024-05-20 05:03:32			0	38808	0	0	0	20864	19460	130181	27343	981341	39823	107648	0	0	8381	535586	0	0
2024-05-20 05:04:32			0	38825	0	0	0	20867	19470	130097	27492	981331	39824	107649	0	0	8382	534897	0	0
2024-05-20 05:05:32			0	38840	0	0	0	20867	19470	130117	27557	981225	39801	107649	0	0	8383	534316	0	0
2024-05-20 05:06:32			0	38863	0	0	0	20864	19450	130053	27580	981306	39800	107648	0	0	8384	533485	0	0
2024-05-20 05:07:32			0	38858	0	0	0	20867	19460	130021	27367	981349	39791	107649	0	0	8384	533649	0	0
2024-05-20 05:08:32			0	38842	0	0	0	20854	19450	130005	27490	981306	39800	107644	0	0	8383	534298	0	0
2024-05-20 05:09:32			0	38863	0	0	0	20854	19460	130061	27656	981208	39823	107644	0	0	8384	533455	0	0
2024-05-20 05:10:32			0	38863	0	0	0	20846	19440	130017	27447	981236	39799	107641	0	0	8384	533514	0	0
2024-05-20 05:11:32			0	38880	0	0	0	20851	19450	129969	27405	981192	39811	107643	0	0	8385	532827	0	0
2024-05-20 05:12:32			0	38879	0	0	0	20849	19450	129981	27358	981218	39822	107642	0	0	8385	532866	0	0
2024-05-20 05:13:32			0	38890	0	0	0	20838	19440	130009	27595	981175	39799	107638	0	0	8386	532470	0	0
2024-05-20 05:14:32			0	38895	0	0	0	20838	19440	129953	27717	981157	39799	107638	0	0	8386	532276	0	0
2024-05-20 05:15:32			0	38873	0	0	0	20831	19450	130021	27102	981192	39811	107635	0	0	8385	533098	0	0
2024-05-20 05:16:32			0	38902	0	0	0	20836	19450	129945	27090	981192	39822	107637	0	0	8387	531977	0	0
2024-05-20 05:17:32			0	38902	0	0	0	20820	19430	129909	27469	981140	39799	107631	0	0	8387	532035	0	0
2024-05-20 05:18:32			0	38897	0	0	0	20825	19440	129901	27298	981183	39811	107633	0	0	8387	532199	0	0
2024-05-20 05:19:32			0	38916	0	0	0	20831	19430	129929	27455	981158	39820	107635	0	0	8387	531495	0	0
2024-05-20 05:20:32			0	38905	0	0	0	20820	19440	129857	27130	981130	39799	107631	0	0	8387	531890	0	0
2024-05-20 05:21:32			0	38941	0	0	0	20820	19440	129809	27256	981175	39810	107631	0	0	8389	530501	0	0
2024-05-20 05:22:32			0	38928	0	0	0	20825	19440	129821	27286	981175	39810	107633	0	0	8388	531002	0	0
2024-05-20 05:23:32			0	38933	0	0	0	20825	19430	129785	27281	981114	39810	107633	0	0	8388	530839	0	0
2024-05-20 05:24:32			0	38962	0	0	0	20815	19430	129701	27447	981167	39799	107629	0	0	8390	529720	0	0
2024-05-20 05:25:32			0	38961	0	0	0	20815	19430	129785	27130	981079	39809	107629	0	0	8390	529759	0	0
2024-05-20 05:26:32			0	38978	0	0	0	20823	19430	129745	27358	981167	39788	107632	0	0	8391	529104	0	0
2024-05-20 05:27:32			0	38965	0	0	0	20828	19430	129713	27241	981167	39810	107634	0	0	8390	529605	0	0
2024-05-20 05:28:32			0	38987	0	0	0	20836	19430	129665	27248	981193	39810	107637	0	0	8391	528758	0	0
2024-05-20 05:29:32			0	38991	0	0	0	20841	19440	129549	27324	981210	39811	107639	0	0	8391	528575	0	0
2024-05-20 05:30:32			0	39021	0	0	0	20841	19450	129581	27391	981218	39811	107639	0	0	8393	527392	0	0
2024-05-20 05:31:32			0	39011	0	0	0	20846	19450	129557	27517	981192	39799	107641	0	0	8392	527776	0	0
2024-05-20 05:32:32			0	39030	0	0	0	20846	19440	129509	27315	981254	39821	107641	0	0	8393	527075	0	0
2024-05-20 05:33:32			0	39039	0	0	0	20862	19450	129461	27587	981306	39823	107647	0	0	8393	526700	0	0
2024-05-20 05:34:32			0	39046	0	0	0	20854	19450	129525	27279	981245	39811	107644	0	0	8394	526432	0	0
2024-05-20 05:35:32			0	39017	0	0	0	20862	19440	129485	27628	981228	39810	107647	0	0	8392	527575	0	0
2024-05-20 05:36:32			0	39039	0	0	0	20851	19450	129469	27244	981253	39823	107643	0	0	8394	526700	0	0
2024-05-20 05:37:32			0	39048	0	0	0	20844	19450	129489	27769	981279	39811	107640	0	0	8394	526355	0	0
2024-05-20 05:38:32			0	39045	0	0	0	20857	19450	129485	27329	981298	39822	107645	0	0	8394	526470	0	0
2024-05-20 05:39:32			0	39042	0	0	0	20846	19450	129509	27320	981271	39811	107641	0	0	8394	526585	0	0
2024-05-20 05:40:32			0	39045	0	0	0	20851	19450	129493	27705	981226	39811	107643	0	0	8394	526470	0	0
2024-05-20 05:41:32			0	39042	0	0	0	20841	19440	129401	27431	981210	39811	107639	0	0	8394	526614	0	0
2024-05-20 05:42:32			0	39065	0	0	0	20851	19440	129401	27381	981210	39822	107643	0	0	8395	525732	0	0
2024-05-20 05:43:32			0	39087	0	0	0	20841	19440	129421	27417	981210	39799	107639	0	0	8396	524888	0	0
2024-05-20 05:44:32			0	39073	0	0	0	20841	19440	129289	27984	981175	39810	107639	0	0	8395	525425	0	0
2024-05-20 05:45:32			0	39101	0	0	0	20841	19440	129325	27310	981183	39811	107639	0	0	8397	524352	0	0
2024-05-20 05:46:32			0	39095	0	0	0	20841	19440	129281	27265	981228	39810	107639	0	0	8397	524581	0	0
2024-05-20 05:47:32			0	39119	0	0	0	20831	19440	129269	27476	981148	39799	107635	0	0	8398	523663	0	0
2024-05-20 05:48:32			0	39104	0	0	0	20828	19440	129189	27422	981210	39799	107634	0	0	8397	524237	0	0
2024-05-20 05:49:32			0	39140	0	0	0	20833	19430	129169	27602	981105	39798	107636	0	0	8399	522888	0	0
2024-05-20 05:50:32			0	39162	0	0	0	20828	19430	129145	27332	981140	39799	107634	0	0	8400	522047	0	0
2024-05-20 05:51:32			0	39164	0	0	0	20825	19430	129113	27523	981140	39799	107633	0	0	8400	521971	0	0
2024-05-20 05:52:32			0	39155	0	0	0	20823	19440	129109	27282	981130	39822	107632	0	0	8400	522286	0	0
2024-05-20 05:53:32			0	39174	0	0	0	20818	19430	129045	27071	981158	39820	107630	0	0	8401	521589	0	0
2024-05-20 05:54:32			0	39179	0	0	0	20831	19430	128953	27348	981158	39809	107635	0	0	8401	521398	0	0
2024-05-20 05:55:32			0	39187	0	0	0	20823	19420	128913	27585	981150	39809	107632	0	0	8402	521121	0	0
2024-05-20 05:56:32			0	39243	0	0	0	20820	19430	128933	27476	981185	39809	107631	0	0	8405	518958	0	0
2024-05-20 05:57:32			0	39248	0	0	0	20823	19430	128829	27412	981185	39798	107632	0	0	8405	518768	0	0
2024-05-20 05:58:32			0	39237	0	0	0	20825	19420	128853	27371	981123	39809	107633	0	0	8404	519215	0	0
2024-05-20 05:59:32			0	39283	0	0	0	20818	19420	128745	27270	981203	39809	107630	0	0	8407	517465	0	0
2024-05-20 06:00:32			0	39272	0	0	0	20828	19430	128717	27429	981246	39821	107634	0	0	8406	517855	0	0
2024-05-20 06:01:32			0	39282	0	0	0	20825	19430	128681	27362	981193	39821	107633	0	0	8407	517475	0	0
2024-05-20 06:02:32			0	39275	0	0	0	20820	19430	128781	27275	981167	39799	107631	0	0	8406	517741	0	0
2024-05-20 06:03:32			0	39281	0	0	0	20818	19430	128705	27265	981158	39820	107630	0	0	8407	517513	0	0
2024-05-20 06:04:32			0	39266	0	0	0	20828	19430	128633	27286	981167	39821	107634	0	0	8406	518083	0	0
2024-05-20 06:05:32			0	39273	0	0	0	20838	19430	128713	27251	981158	39798	107638	0	0	8406	517817	0	0
2024-05-20 06:06:32			0	39306	0	0	0	20831	19430	128673	27372	981211	39809	107635	0	0	8408	516563	0	0
2024-05-20 06:07:32			0	39320	0	0	0	20836	19430	128649	27403	981238	39798	107637	0	0	8408	516032	0	0
2024-05-20 06:08:32			0	39299	0	0	0	20828	19430	128533	27353	981246	39810	107634	0	0	8407	516829	0	0
2024-05-20 06:09:32			0	39315	0	0	0	20833	19430	128565	27633	981158	39831	107636	0	0	8408	516221	0	0
2024-05-20 06:10:32			0	39320	0	0	0	20831	19430	128585	27365	981132	39820	107635	0	0	8408	516032	0	0
2024-05-20 06:11:32			0	39328	0	0	0	20828	19440	128533	27039	981148	39799	107634	0	0	8409	515700	0	0
2024-05-20 06:12:32			0	39327	0	0	0	20828	19430	128465	27367	981132	39809	107634	0	0	8409	515766	0	0
2024-05-20 06:13:32			0	39327	0	0	0	20818	19430	128661	27372	981158	39820	107630	0	0	8409	515766	0	0
2024-05-20 06:14:32			0	39319	0	0	0	20820	19430	128617	27492	981185	39820	107631	0	0	8409	516070	0	0
2024-05-20 06:15:32			0	39325	0	0	0	20823	19430	128653	27201	981167	39810	107632	0	0	8409	515842	0	0
2024-05-20 06:16:32			0	39326	0	0	0	20823	19430	128569	27294	981079	39798	107632	0	0	8409	515804	0	0
2024-05-20 06:17:32			0	39335	0	0	0	20825	19430	128577	27358	981167	39810	107633	0	0	8409	515463	0	0
2024-05-20 06:18:32			0	39348	0	0	0	20825	19430	128525	27384	981220	39799	107633	0	0	8410	514970	0	0
2024-05-20 06:19:32			0	39336	0	0	0	20818	19440	128529	27124	981201	39799	107630	0	0	8410	515396	0	0
2024-05-20 06:20:32			0	39337	0	0	0	20828	19430	128429	27281	981185	39820	107634	0	0	8409	515387	0	0
2024-05-20 06:21:32			0	39361	0	0	0	20828	19430	128485	27409	981158	39798	107634	0	0	8411	514477	0	0
2024-05-20 06:22:32			0	39364	0	0	0	20831	19440	128497	27116	981175	39810	107635	0	0	8411	514335	0	0
2024-05-20 06:23:32			0	39359	0	0	0	20825	19420	128429	27435	981097	39809	107633	0	0	8411	514581	0	0
2024-05-20 06:24:32			0	39381	0	0	0	20831	19430	128413	27296	981238	39809	107635	0	0	8412	513720	0	0
2024-05-20 06:25:32			0	39362	0	0	0	20825	19430	128337	27556	981167	39810	107633	0	0	8411	514439	0	0
2024-05-20 06:26:32			0	39390	0	0	0	20836	19430	128405	27280	981185	39809	107637	0	0	8412	513379	0	0
2024-05-20 06:27:32			0	39397	0	0	0	20831	19420	128389	27550	981203	39809	107635	0	0	8412	513143	0	0
2024-05-20 06:28:32			0	39373	0	0	0	20823	19440	128397	27651	981228	39821	107632	0	0	8411	513995	0	0
2024-05-20 06:29:32			0	39402	0	0	0	20828	19440	128401	27343	981236	39799	107634	0	0	8413	512897	0	0
2024-05-20 06:30:32			0	39407	0	0	0	20825	19430	128293	27597	981193	39821	107633	0	0	8413	512736	0	0
2024-05-20 06:31:32			0	39400	0	0	0	20831	19440	128333	27445	981201	39810	107635	0	0	8413	512973	0	0
2024-05-20 06:32:32			0	39394	0	0	0	20828	19430	128317	27377	981158	39798	107634	0	0	8412	513228	0	0
2024-05-20 06:33:32			0	39420	0	0	0	20831	19430	128314	27090	981238	39820	107635	0	0	8414	512245	0	0
2024-05-20 06:34:32			0	39418	0	0	0	20828	19430	128349	27279	981140	39810	107634	0	0	8414	512321	0	0
2024-05-20 06:35:32			0	39421	0	0	0	20820	19430	128306	27020	981132	39809	107631	0	0	8414	512207	0	0
2024-05-20 06:36:32			0	39437	0	0	0	20825	19430	128282	27575	981220	39810	107633	0	0	8415	511603	0	0
2024-05-20 06:37:32			0	39444	0	0	0	20815	19430	128278	27284	981114	39810	107629	0	0	8415	511339	0	0
2024-05-20 06:38:32			0	39425	0	0	0	20818	19420	128278	27279	981229	39809	107630	0	0	8414	512084	0	0
2024-05-20 06:39:32			0	39442	0	0	0	20815	19420	128190	27315	981150	39809	107629	0	0	8415	511442	0	0
2024-05-20 06:40:32			0	39428	0	0	0	20812	19430	128198	27519	981132	39798	107628	0	0	8414	511943	0	0
2024-05-20 06:41:32			0	39432	0	0	0	20815	19420	128238	27267	981150	39820	107629	0	0	8414	511820	0	0
2024-05-20 06:42:32			0	39458	0	0	0	20820	19430	128170	27403	981132	39798	107631	0	0	8416	510811	0	0
2024-05-20 06:43:32			0	39464	0	0	0	20823	19430	128166	27313	981158	39809	107632	0	0	8416	510584	0	0
2024-05-20 06:44:32			0	39446	0	0	0	20818	19430	128174	27429	981158	39820	107630	0	0	8415	511263	0	0
2024-05-20 06:45:32			0	39467	0	0	0	20815	19420	128158	27232	981115	39808	107629	0	0	8416	510499	0	0
2024-05-20 06:46:32			0	39448	0	0	0	20818	19420	128114	27019	981097	39798	107630	0	0	8415	511216	0	0
2024-05-20 06:47:32			0	39483	0	0	0	20812	19430	128154	27461	981105	39820	107628	0	0	8417	509868	0	0
2024-05-20 06:48:32			0	39445	0	0	0	20810	19420	128206	27350	981142	39808	107627	0	0	8415	511329	0	0
2024-05-20 06:49:32			0	39490	0	0	0	20815	19420	128162	27383	981123	39809	107629	0	0	8418	509632	0	0
2024-05-20 06:50:32			0	39491	0	0	0	20812	19420	128094	27050	981142	39808	107628	0	0	8418	509595	0	0
2024-05-20 06:51:32			0	39476	0	0	0	20805	19420	128146	27246	981089	39830	107625	0	0	8417	510160	0	0
2024-05-20 06:52:32			0	39469	0	0	0	20805	19420	128178	27268	981123	39798	107625	0	0	8417	510424	0	0
2024-05-20 06:53:32			0	39485	0	0	0	20805	19410	128090	27282	981133	39807	107625	0	0	8417	509849	0	0
2024-05-20 06:54:32			0	39481	0	0	0	20802	19420	128018	27524	981070	39809	107624	0	0	8417	509971	0	0
2024-05-20 06:55:32			0	39484	0	0	0	20802	19410	128006	27485	981072	39818	107624	0	0	8417	509886	0	0
2024-05-20 06:56:32			0	39496	0	0	0	20792	19420	128034	27114	981089	39808	107620	0	0	8418	509406	0	0
2024-05-20 06:57:32			0	39487	0	0	0	20792	19400	128102	27062	981037	39818	107620	0	0	8418	509801	0	0
2024-05-20 06:58:32			0	39504	0	0	0	20784	19410	127990	27646	981054	39807	107617	0	0	8419	509133	0	0
2024-05-20 06:59:32			0	39509	0	0	0	20781	19400	128002	27438	981002	39806	107616	0	0	8419	508973	0	0
2024-05-20 07:00:32			0	39485	0	0	0	20779	19400	128002	27260	981002	39806	107615	0	0	8418	509877	0	0
2024-05-20 07:01:32			0	39494	0	0	0	20779	19400	128070	27116	981029	39785	107615	0	0	8418	509538	0	0
2024-05-20 07:02:32			0	39516	0	0	0	20766	19390	127990	27325	981047	39794	107610	0	0	8420	508737	0	0
2024-05-20 07:03:32			0	39517	0	0	0	20768	19400	128046	27093	981002	39795	107611	0	0	8420	508672	0	0
2024-05-20 07:04:32			0	39519	0	0	0	20768	19400	128002	27275	980976	39806	107611	0	0	8420	508596	0	0
2024-05-20 07:05:32			0	39508	0	0	0	20758	19390	127930	27424	980959	39784	107607	0	0	8419	509038	0	0
2024-05-20 07:06:32			0	39513	0	0	0	20763	19380	127994	27343	980924	39805	107609	0	0	8419	508878	0	0
2024-05-20 07:07:32			0	39508	0	0	0	20761	19380	127942	27164	980942	39793	107608	0	0	8419	509066	0	0
2024-05-20 07:08:32			0	39517	0	0	0	20755	19380	128014	27628	980924	39805	107606	0	0	8420	508728	0	0
2024-05-20 07:09:32			0	39526	0	0	0	20755	19370	128038	27137	980934	39815	107606	0	0	8420	508417	0	0
2024-05-20 07:10:32			0	39514	0	0	0	20755	19380	128014	27150	980889	39793	107606	0	0	8420	508840	0	0
2024-05-20 07:11:32			0	39515	0	0	0	20758	19370	127958	27367	980881	39804	107607	0	0	8420	508831	0	0
2024-05-20 07:12:32			0	39517	0	0	0	20761	19380	127906	27507	980916	39805	107608	0	0	8420	508728	0	0
2024-05-20 07:13:32			0	39521	0	0	0	20758	19360	127998	27412	980899	39792	107607	0	0	8420	508633	0	0
2024-05-20 07:14:32			0	39513	0	0	0	20755	19370	128046	27324	980934	39792	107606	0	0	8420	508906	0	0
2024-05-20 07:15:32			0	39512	0	0	0	20761	19370	128014	27398	980934	39782	107608	0	0	8419	508944	0	0
2024-05-20 07:16:32			0	39518	0	0	0	20750	19380	127990	27026	980969	39805	107604	0	0	8420	508690	0	0
2024-05-20 07:17:32			0	39494	0	0	0	20761	19360	128062	27355	980899	39792	107608	0	0	8418	509650	0	0
2024-05-20 07:18:32			0	39497	0	0	0	20750	19360	127974	27286	980926	39804	107604	0	0	8419	509536	0	0
2024-05-20 07:19:32			0	39487	0	0	0	20763	19360	128110	27383	980899	39815	107609	0	0	8418	509913	0	0
2024-05-20 07:20:32			0	39492	0	0	0	20761	19350	128146	27345	980909	39803	107608	0	0	8418	509753	0	0
2024-05-20 07:21:32			0	39486	0	0	0	20753	19360	128150	27244	980873	39815	107605	0	0	8418	509951	0	0
2024-05-20 07:22:32			0	39488	0	0	0	20755	19360	128106	27607	980864	39803	107606	0	0	8418	509876	0	0
2024-05-20 07:23:32			0	39496	0	0	0	20758	19380	128130	27711	980916	39793	107607	0	0	8419	509518	0	0
2024-05-20 07:24:32			0	39486	0	0	0	20758	19360	128138	27661	980899	39792	107607	0	0	8418	509951	0	0
2024-05-20 07:25:32			0	39486	0	0	0	20758	19360	128214	27246	980917	39803	107607	0	0	8418	509951	0	0
2024-05-20 07:26:32			0	39481	0	0	0	20755	19360	128118	27329	980891	39792	107606	0	0	8418	510140	0	0
2024-05-20 07:27:32			0	39478	0	0	0	20758	19360	128122	27234	980952	39792	107607	0	0	8418	510253	0	0
2024-05-20 07:28:32			0	39475	0	0	0	20761	19350	128206	27597	980883	39803	107608	0	0	8417	510394	0	0
2024-05-20 07:29:32			0	39486	0	0	0	20763	19350	128150	27608	980901	39802	107609	0	0	8418	509979	0	0
2024-05-20 07:30:32			0	39475	0	0	0	20766	19360	128226	27213	980873	39804	107610	0	0	8417	510366	0	0
2024-05-20 07:31:32			0	39459	0	0	0	20763	19350	128206	27319	980883	39792	107609	0	0	8417	510998	0	0
2024-05-20 07:32:32			0	39464	0	0	0	20771	19350	128190	27391	980936	39792	107612	0	0	8417	510809	0	0
2024-05-20 07:33:32			0	39464	0	0	0	20781	19360	128174	27453	980926	39804	107616	0	0	8417	510781	0	0
2024-05-20 07:34:32			0	39471	0	0	0	20779	19360	128194	27170	980971	39814	107615	0	0	8417	510517	0	0
2024-05-20 07:35:32			0	39468	0	0	0	20776	19360	128198	27225	980899	39804	107614	0	0	8417	510630	0	0
2024-05-20 07:36:32			0	39473	0	0	0	20768	19350	128226	27159	980989	39792	107611	0	0	8417	510469	0	0
2024-05-20 07:37:32			0	39457	0	0	0	20768	19360	128198	27310	980873	39815	107611	0	0	8416	511045	0	0
2024-05-20 07:38:32			0	39466	0	0	0	20763	19360	128158	27256	980917	39803	107609	0	0	8417	510705	0	0
2024-05-20 07:39:32			0	39448	0	0	0	20768	19370	128246	27447	980908	39804	107611	0	0	8416	511356	0	0
2024-05-20 07:40:32			0	39454	0	0	0	20755	19370	128174	27467	980881	39804	107606	0	0	8416	511130	0	0
2024-05-20 07:41:32			0	39469	0	0	0	20766	19360	128214	27500	980838	39803	107610	0	0	8417	510592	0	0
2024-05-20 07:42:32			0	39476	0	0	0	20758	19350	128146	27246	980883	39814	107607	0	0	8417	510356	0	0
2024-05-20 07:43:32			0	39477	0	0	0	20750	19360	128298	27277	980926	39792	107604	0	0	8418	510290	0	0
2024-05-20 07:44:32			0	39479	0	0	0	20761	19370	128114	27462	980934	39792	107608	0	0	8418	510187	0	0
2024-05-20 07:45:32			0	39470	0	0	0	20766	19370	128170	27267	980961	39792	107610	0	0	8417	510526	0	0
2024-05-20 07:46:32			0	39453	0	0	0	20763	19360	128102	27157	980864	39781	107609	0	0	8416	511196	0	0
2024-05-20 07:47:32			0	39464	0	0	0	20766	19360	128182	27296	980891	39803	107610	0	0	8417	510781	0	0
2024-05-20 07:48:32			0	39441	0	0	0	20755	19360	128226	27227	980952	39804	107606	0	0	8416	511649	0	0
2024-05-20 07:49:32			0	39451	0	0	0	20755	19360	128326	27320	980926	39815	107606	0	0	8416	511271	0	0
2024-05-20 07:50:32			0	39442	0	0	0	20766	19370	128234	27557	980987	39804	107610	0	0	8416	511583	0	0
2024-05-20 07:51:32			0	39438	0	0	0	20771	19370	128338	27469	980908	39804	107612	0	0	8415	511734	0	0
2024-05-20 07:52:32			0	39440	0	0	0	20771	19360	128246	27296	980926	39804	107612	0	0	8415	511687	0	0
2024-05-20 07:53:32			0	39442	0	0	0	20774	19370	128354	27286	980987	39792	107613	0	0	8416	511583	0	0
2024-05-20 07:54:32			0	39397	0	0	0	20771	19380	128285	27436	980969	39805	107612	0	0	8413	513256	0	0
2024-05-20 07:55:32			0	39421	0	0	0	20781	19380	128386	27237	980995	39805	107616	0	0	8414	512348	0	0
2024-05-20 07:56:32			0	39419	0	0	0	20781	19380	128430	27307	981022	39805	107616	0	0	8414	512424	0	0
2024-05-20 07:57:32			0	39410	0	0	0	20774	19380	128345	27459	981022	39816	107613	0	0	8414	512764	0	0
2024-05-20 07:58:32			0	39385	0	0	0	20784	19380	128453	27403	981057	39805	107617	0	0	8412	513710	0	0
2024-05-20 07:59:32			0	39384	0	0	0	20779	19380	128413	27436	981004	39805	107615	0	0	8412	513748	0	0
2024-05-20 08:00:32			0	39392	0	0	0	20768	19390	128469	27202	981092	39817	107611	0	0	8413	513417	0	0
2024-05-20 08:01:32			0	39362	0	0	0	20781	19380	128421	27384	981022	39805	107616	0	0	8411	514581	0	0
2024-05-20 08:02:32			0	39398	0	0	0	20789	19380	128421	27090	981057	39817	107619	0	0	8413	513218	0	0
2024-05-20 08:03:32			0	39382	0	0	0	20789	19390	128349	27317	980986	39828	107619	0	0	8412	513795	0	0
2024-05-20 08:04:32			0	39367	0	0	0	20786	19390	128505	27326	981039	39794	107618	0	0	8411	514363	0	0
2024-05-20 08:05:32			0	39385	0	0	0	20784	19390	128401	27464	980986	39794	107617	0	0	8412	513682	0	0
2024-05-20 08:06:32			0	39370	0	0	0	20789	19380	128493	27291	981057	39794	107619	0	0	8412	514278	0	0
2024-05-20 08:07:32			0	39359	0	0	0	20792	19400	128381	27384	981011	39796	107620	0	0	8411	514638	0	0
2024-05-20 08:08:32			0	39367	0	0	0	20792	19380	128401	27194	981057	39805	107620	0	0	8411	514391	0	0
2024-05-20 08:09:32			0	39360	0	0	0	20799	19400	128413	27474	981082	39806	107623	0	0	8411	514600	0	0
2024-05-20 08:10:32			0	39376	0	0	0	20794	19390	128381	27653	981039	39817	107621	0	0	8412	514022	0	0
2024-05-20 08:11:32			0	39359	0	0	0	20794	19400	128481	27312	981037	39807	107621	0	0	8411	514638	0	0
2024-05-20 08:12:32			0	39375	0	0	0	20794	19390	128525	27284	981047	39817	107621	0	0	8412	514060	0	0
2024-05-20 08:13:32			0	39379	0	0	0	20784	19400	128501	27039	981037	39818	107617	0	0	8412	513880	0	0
2024-05-20 08:14:32			0	39353	0	0	0	20779	19390	128389	27409	981047	39794	107615	0	0	8411	514893	0	0
2024-05-20 08:15:32			0	39356	0	0	0	20786	19390	128413	27187	981047	39817	107618	0	0	8411	514780	0	0
2024-05-20 08:16:32			0	39381	0	0	0	20792	19400	128477	27289	981055	39817	107620	0	0	8412	513805	0	0
2024-05-20 08:17:32			0	39365	0	0	0	20794	19380	128429	27144	981022	39805	107621	0	0	8411	514467	0	0
2024-05-20 08:18:32			0	39333	0	0	0	20794	19390	128437	27630	981100	39794	107621	0	0	8410	515652	0	0
2024-05-20 08:19:32			0	39370	0	0	0	20792	19390	128489	27196	981118	39817	107620	0	0	8412	514249	0	0
2024-05-20 08:20:32			0	39371	0	0	0	20799	19400	128505	27383	981064	39818	107623	0	0	8412	514183	0	0
2024-05-20 08:21:32			0	39354	0	0	0	20802	19400	128469	27190	981108	39806	107624	0	0	8411	514827	0	0
2024-05-20 08:22:32			0	39376	0	0	0	20812	19400	128497	27486	981108	39806	107628	0	0	8412	513994	0	0
2024-05-20 08:23:32			0	39359	0	0	0	20805	19400	128517	27298	981143	39818	107625	0	0	8411	514638	0	0
2024-05-20 08:24:32			0	39345	0	0	0	20797	19400	128393	27383	981064	39796	107622	0	0	8410	515168	0	0
2024-05-20 08:25:32			0	39355	0	0	0	20802	19400	128465	27429	981135	39817	107624	0	0	8411	514789	0	0
2024-05-20 08:26:32			0	39362	0	0	0	20807	19400	128525	27062	981108	39817	107626	0	0	8411	514524	0	0
2024-05-20 08:27:32			0	39373	0	0	0	20802	19400	128541	27379	981082	39817	107624	0	0	8412	514108	0	0
2024-05-20 08:28:32			0	39367	0	0	0	20799	19410	128497	27287	981098	39830	107623	0	0	8411	514306	0	0
2024-05-20 08:29:32			0	39369	0	0	0	20810	19410	128453	27202	981107	39807	107627	0	0	8411	514231	0	0
2024-05-20 08:30:32			0	39375	0	0	0	20810	19400	128441	27118	981117	39807	107627	0	0	8412	514032	0	0
2024-05-20 08:31:32			0	39368	0	0	0	20807	19400	128389	26989	981090	39818	107626	0	0	8411	514297	0	0
2024-05-20 08:32:32			0	39392	0	0	0	20810	19410	128357	26956	981151	39796	107627	0	0	8412	513360	0	0
2024-05-20 08:33:32			0	39392	0	0	0	20815	19420	128385	27022	981142	39808	107629	0	0	8412	513332	0	0
2024-05-20 08:34:32			0	39409	0	0	0	20823	19410	128281	27183	981160	39818	107632	0	0	8413	512717	0	0
2024-05-20 08:35:32			0	39411	0	0	0	20815	19410	128313	27100	981133	39807	107629	0	0	8413	512642	0	0
2024-05-20 08:36:32			0	39417	0	0	0	20818	19410	128318	27185	981160	39830	107630	0	0	8414	512415	0	0
2024-05-20 08:37:32			0	39389	0	0	0	20820	19420	128273	27459	981203	39809	107631	0	0	8412	513446	0	0
2024-05-20 08:38:32			0	39424	0	0	0	20823	19420	128310	27428	981229	39820	107632	0	0	8414	512122	0	0
2024-05-20 08:39:32			0	39421	0	0	0	20825	19420	128278	27201	981176	39820	107633	0	0	8414	512235	0	0
2024-05-20 08:40:32			0	39439	0	0	0	20820	19420	128386	27400	981221	39808	107631	0	0	8415	511556	0	0
2024-05-20 08:41:32			0	39422	0	0	0	20818	19420	128270	27183	981142	39819	107630	0	0	8414	512198	0	0
2024-05-20 08:42:32			0	39413	0	0	0	20812	19420	128325	27289	981168	39808	107628	0	0	8414	512538	0	0
2024-05-20 08:43:32			0	39407	0	0	0	20807	19410	128389	27196	981107	39807	107626	0	0	8413	512793	0	0
2024-05-20 08:44:32			0	39418	0	0	0	20812	19420	128337	27085	981115	39797	107628	0	0	8414	512349	0	0
2024-05-20 08:45:32			0	39418	0	0	0	20805	19420	128197	27358	981150	39809	107625	0	0	8414	512349	0	0
2024-05-20 08:46:32			0	39428	0	0	0	20805	19420	128230	27045	981115	39808	107625	0	0	8414	511971	0	0
2024-05-20 08:47:32			0	39414	0	0	0	20807	19420	128261	26939	981176	39820	107626	0	0	8414	512500	0	0
2024-05-20 08:48:32			0	39414	0	0	0	20812	19420	128257	27228	981168	39819	107628	0	0	8414	512500	0	0
2024-05-20 08:49:32			0	39405	0	0	0	20812	19420	128297	26982	981168	39819	107628	0	0	8413	512840	0	0
2024-05-20 08:50:32			0	39408	0	0	0	20815	19410	128257	26930	981204	39807	107629	0	0	8413	512755	0	0
2024-05-20 08:51:32			0	39406	0	0	0	20818	19410	128261	27213	981213	39807	107630	0	0	8413	512831	0	0
2024-05-20 08:52:32			0	39395	0	0	0	20810	19430	128325	27152	981211	39809	107627	0	0	8413	513190	0	0
2024-05-20 08:53:32			0	39407	0	0	0	20805	19410	128265	27034	981080	39818	107625	0	0	8413	512793	0	0
2024-05-20 08:54:32			0	39402	0	0	0	20797	19410	128261	27294	981098	39796	107622	0	0	8413	512982	0	0
2024-05-20 08:55:32			0	39414	0	0	0	20794	19410	128281	27177	981098	39807	107621	0	0	8414	512528	0	0
2024-05-20 08:56:32			0	39408	0	0	0	20805	19420	128345	27352	981062	39808	107625	0	0	8413	512727	0	0
2024-05-20 08:57:32			0	39412	0	0	0	20792	19410	128317	27161	981019	39807	107620	0	0	8414	512604	0	0
2024-05-20 08:58:32			0	39403	0	0	0	20794	19410	128285	27227	981072	39807	107621	0	0	8413	512944	0	0
2024-05-20 08:59:32			0	39415	0	0	0	20799	19400	128445	27258	981117	39807	107623	0	0	8414	512519	0	0
2024-05-20 09:00:32			0	39405	0	0	0	20792	19400	128405	27281	981143	39807	107620	0	0	8413	512897	0	0
2024-05-20 09:01:32			0	39401	0	0	0	20794	19390	128305	27398	981100	39817	107621	0	0	8413	513076	0	0
2024-05-20 09:02:32			0	39412	0	0	0	20802	19410	128365	27275	981133	39807	107624	0	0	8414	512604	0	0
2024-05-20 09:03:32			0	39407	0	0	0	20792	19400	128301	27467	981064	39807	107620	0	0	8413	512821	0	0
2024-05-20 09:04:32			0	39395	0	0	0	20805	19410	128317	27540	981125	39818	107625	0	0	8413	513247	0	0
2024-05-20 09:05:32			0	39406	0	0	0	20794	19410	128321	27137	981125	39796	107621	0	0	8413	512831	0	0
2024-05-20 09:06:32			0	39395	0	0	0	20792	19400	128381	27104	981135	39817	107620	0	0	8413	513275	0	0
2024-05-20 09:07:32			0	39406	0	0	0	20797	19400	128429	27341	981170	39807	107622	0	0	8413	512859	0	0
2024-05-20 09:08:32			0	39378	0	0	0	20802	19400	128389	27242	981143	39807	107624	0	0	8412	513918	0	0
2024-05-20 09:09:32			0	39402	0	0	0	20807	19400	128389	27085	981170	39818	107626	0	0	8413	513010	0	0
2024-05-20 09:10:32			0	39398	0	0	0	20802	19410	128309	27545	981151	39807	107624	0	0	8413	513133	0	0
2024-05-20 09:11:32			0	39379	0	0	0	20805	19410	128365	27235	981133	39818	107625	0	0	8412	513852	0	0
2024-05-20 09:12:32			0	39393	0	0	0	20815	19410	128389	27422	981151	39818	107629	0	0	8412	513322	0	0
2024-05-20 09:13:32			0	39393	0	0	0	20820	19410	128433	27329	981239	39818	107631	0	0	8412	513322	0	0
2024-05-20 09:14:32			0	39380	0	0	0	20828	19420	128505	27015	981248	39819	107634	0	0	8412	513786	0	0
2024-05-20 09:15:32			0	39360	0	0	0	20828	19420	128501	27370	981274	39819	107634	0	0	8411	514543	0	0
2024-05-20 09:16:32			0	39344	0	0	0	20836	19420	128445	27426	981256	39831	107637	0	0	8410	515150	0	0
2024-05-20 09:17:32			0	39371	0	0	0	20844	19420	128549	27353	981203	39820	107640	0	0	8411	514127	0	0
2024-05-20 09:18:32			0	39364	0	0	0	20841	19430	128557	27402	981291	39820	107639	0	0	8411	514364	0	0
2024-05-20 09:19:32			0	39355	0	0	0	20849	19430	128569	27149	981299	39821	107642	0	0	8410	514705	0	0
2024-05-20 09:20:32			0	39353	0	0	0	20846	19430	128617	27116	981291	39820	107641	0	0	8410	514780	0	0
2024-05-20 09:21:32			0	39347	0	0	0	20849	19430	128501	27149	981291	39820	107642	0	0	8410	515008	0	0
2024-05-20 09:22:32			0	39331	0	0	0	20844	19440	128561	27150	981316	39811	107640	0	0	8409	515586	0	0
2024-05-20 09:23:32			0	39339	0	0	0	20841	19430	128661	27119	981326	39821	107639	0	0	8409	515311	0	0
2024-05-20 09:24:32			0	39326	0	0	0	20844	19430	128717	26955	981317	39820	107640	0	0	8409	515804	0	0
2024-05-20 09:25:32			0	39319	0	0	0	20844	19440	128697	27310	981316	39811	107640	0	0	8408	516041	0	0
2024-05-20 09:26:32			0	39327	0	0	0	20841	19450	128677	27281	981324	39822	107639	0	0	8409	515709	0	0
2024-05-20 09:27:32			0	39306	0	0	0	20844	19440	128653	27095	981369	39822	107640	0	0	8408	516535	0	0
2024-05-20 09:28:32			0	39319	0	0	0	20844	19460	128625	27229	981367	39823	107640	0	0	8408	515984	0	0
2024-05-20 09:29:32			0	39315	0	0	0	20851	19450	128585	27060	981385	39823	107643	0	0	8408	516165	0	0
2024-05-20 09:30:32			0	39294	0	0	0	20849	19450	128629	27085	981359	39823	107642	0	0	8407	516962	0	0
2024-05-20 09:31:32			0	39322	0	0	0	20844	19460	128701	27301	981376	39812	107640	0	0	8408	515871	0	0
2024-05-20 09:32:32			0	39292	0	0	0	20849	19450	128629	27372	981324	39811	107642	0	0	8407	517038	0	0
2024-05-20 09:33:32			0	39307	0	0	0	20838	19450	128637	27152	981306	39811	107638	0	0	8408	516468	0	0
2024-05-20 09:34:32			0	39304	0	0	0	20828	19450	128685	27391	981271	39811	107634	0	0	8408	516582	0	0
2024-05-20 09:35:32			0	39293	0	0	0	20820	19450	128701	27156	981324	39799	107631	0	0	8407	517000	0	0
2024-05-20 09:36:32			0	39314	0	0	0	20828	19440	128753	27116	981307	39799	107634	0	0	8408	516231	0	0
2024-05-20 09:37:32			0	39286	0	0	0	20818	19440	128705	27180	981201	39810	107630	0	0	8407	517294	0	0
2024-05-20 09:38:32			0	39317	0	0	0	20815	19440	128693	27355	981201	39821	107629	0	0	8409	516117	0	0
2024-05-20 09:39:32			0	39305	0	0	0	20805	19430	128689	27145	981185	39831	107625	0	0	8408	516601	0	0
2024-05-20 09:40:32			0	39289	0	0	0	20812	19420	128653	27064	981176	39809	107628	0	0	8407	517237	0	0
2024-05-20 09:41:32			0	39305	0	0	0	20802	19430	128717	27442	981132	39798	107624	0	0	8408	516601	0	0
2024-05-20 09:42:32			0	39299	0	0	0	20805	19420	128773	27232	981168	39797	107625	0	0	8408	516857	0	0
2024-05-20 09:43:32			0	39309	0	0	0	20797	19410	128741	27350	981098	39818	107622	0	0	8408	516506	0	0
2024-05-20 09:44:32			0	39286	0	0	0	20799	19410	128833	27012	981133	39796	107623	0	0	8407	517380	0	0
2024-05-20 09:45:32			0	39261	0	0	0	20792	19420	128797	27286	981142	39808	107620	0	0	8406	518302	0	0
2024-05-20 09:46:32			0	39244	0	0	0	20789	19410	128885	27338	981019	39807	107619	0	0	8405	518977	0	0
2024-05-20 09:47:32			0	39252	0	0	0	20789	19410	128917	27144	981098	39807	107619	0	0	8406	518673	0	0
2024-05-20 09:48:32			0	39257	0	0	0	20781	19400	128901	27251	981143	39818	107616	0	0	8406	518511	0	0
2024-05-20 09:49:32			0	39255	0	0	0	20786	19400	128797	27365	981064	39807	107618	0	0	8406	518587	0	0
2024-05-20 09:50:32			0	39272	0	0	0	20792	19400	128901	27301	981117	39807	107620	0	0	8406	517940	0	0
2024-05-20 09:51:32			0	39253	0	0	0	20792	19400	128829	27459	981117	39818	107620	0	0	8405	518663	0	0
2024-05-20 09:52:32			0	39237	0	0	0	20797	19420	128829	27428	981195	39808	107622	0	0	8405	519215	0	0
2024-05-20 09:53:32			0	39237	0	0	0	20807	19410	128913	27234	981266	39818	107626	0	0	8404	519244	0	0
2024-05-20 09:54:32			0	39225	0	0	0	20805	19410	128981	27483	981133	39807	107625	0	0	8404	519701	0	0
2024-05-20 09:55:32			0	39239	0	0	0	20812	19420	128961	27248	981274	39819	107628	0	0	8404	519139	0	0
2024-05-20 09:56:32			0	39234	0	0	0	20820	19430	129049	27111	981326	39821	107631	0	0	8404	519301	0	0
2024-05-20 09:57:32			0	39200	0	0	0	20825	19420	128949	27272	981282	39798	107633	0	0	8402	520625	0	0
2024-05-20 09:58:32			0	39206	0	0	0	20828	19420	129021	27173	981309	39809	107634	0	0	8402	520396	0	0
2024-05-20 09:59:32			0	39188	0	0	0	20838	19430	128961	27324	981379	39821	107638	0	0	8401	521054	0	0
2024-05-20 10:00:32			0	39203	0	0	0	20833	19440	129133	27171	981342	39822	107636	0	0	8402	520454	0	0
2024-05-20 10:01:32			0	39179	0	0	0	20838	19430	129097	27176	981273	39810	107638	0	0	8401	521398	0	0
2024-05-20 10:02:32			0	39176	0	0	0	20838	19440	129121	27222	981210	39822	107638	0	0	8401	521484	0	0
2024-05-20 10:03:32			0	39174	0	0	0	20836	19430	129057	27393	981299	39832	107637	0	0	8401	521589	0	0
2024-05-20 10:04:32			0	39196	0	0	0	20841	19430	129081	27229	981273	39821	107639	0	0	8402	520749	0	0
2024-05-20 10:05:32			0	39188	0	0	0	20851	19430	129133	27237	981326	39810	107643	0	0	8401	521054	0	0
2024-05-20 10:06:32			0	39209	0	0	0	20849	19440	129025	27133	981387	39821	107642	0	0	8402	520225	0	0
2024-05-20 10:07:32			0	39195	0	0	0	20857	19440	129049	27225	981369	39811	107645	0	0	8402	520759	0	0
2024-05-20 10:08:32			0	39211	0	0	0	20849	19440	128993	27154	981307	39810	107642	0	0	8402	520149	0	0
2024-05-20 10:09:32			0	39212	0	0	0	20846	19440	128993	27312	981334	39810	107641	0	0	8403	520110	0	0
2024-05-20 10:10:32			0	39214	0	0	0	20857	19440	128989	27187	981369	39822	107645	0	0	8403	520034	0	0
2024-05-20 10:11:32			0	39215	0	0	0	20864	19450	129021	27124	981377	39822	107648	0	0	8402	519968	0	0
2024-05-20 10:12:32			0	39226	0	0	0	20872	19450	128969	27095	981465	39823	107651	0	0	8403	519548	0	0
2024-05-20 10:13:32			0	39197	0	0	0	20885	19450	128969	27121	981385	39833	107656	0	0	8401	520654	0	0
2024-05-20 10:14:32			0	39247	0	0	0	20885	19460	128945	26958	981394	39811	107656	0	0	8404	518720	0	0
2024-05-20 10:15:32			0	39217	0	0	0	20901	19460	128865	27048	981420	39833	107662	0	0	8402	519863	0	0
2024-05-20 10:16:32			0	39217	0	0	0	20901	19460	128773	27171	981473	39823	107662	0	0	8402	519863	0	0
2024-05-20 10:17:32			0	39241	0	0	0	20906	19460	128829	27163	981508	39824	107664	0	0	8403	518949	0	0
2024-05-20 10:18:32			0	39248	0	0	0	20914	19470	128777	27395	981543	39834	107667	0	0	8403	518654	0	0
2024-05-20 10:19:32			0	39246	0	0	0	20911	19460	128845	27490	981508	39824	107666	0	0	8403	518758	0	0
2024-05-20 10:20:32			0	39258	0	0	0	20906	19480	128785	27485	981480	39813	107664	0	0	8404	518245	0	0
2024-05-20 10:21:32			0	39261	0	0	0	20893	19470	128841	27352	981463	39824	107659	0	0	8404	518159	0	0
2024-05-20 10:22:32			0	39277	0	0	0	20883	19470	128753	27036	981446	39813	107655	0	0	8405	517551	0	0
2024-05-20 10:23:32			0	39290	0	0	0	20880	19470	128697	27486	981393	39835	107654	0	0	8406	517057	0	0
2024-05-20 10:24:32			0	39295	0	0	0	20883	19470	128649	27284	981393	39824	107655	0	0	8406	516867	0	0
2024-05-20 10:25:32			0	39318	0	0	0	20896	19470	128577	27225	981463	39824	107660	0	0	8407	515994	0	0
2024-05-20 10:26:32			0	39318	0	0	0	20901	19480	128533	27440	981542	39825	107662	0	0	8407	515966	0	0
2024-05-20 10:27:32			0	39339	0	0	0	20906	19480	128609	27159	981560	39835	107664	0	0	8408	515169	0	0
2024-05-20 10:28:32			0	39340	0	0	0	20914	19480	128549	27272	981568	39836	107667	0	0	8408	515131	0	0
2024-05-20 10:29:32			0	39349	0	0	0	20911	19490	128529	27241	981497	39826	107666	0	0	8409	514762	0	0
2024-05-20 10:30:32			0	39336	0	0	0	20914	19480	128497	26866	981533	39835	107667	0	0	8408	515283	0	0
2024-05-20 10:31:32			0	39363	0	0	0	20896	19480	128589	27150	981515	39836	107660	0	0	8410	514260	0	0
2024-05-20 10:32:32			0	39344	0	0	0	20898	19480	128565	27478	981533	39824	107661	0	0	8409	514980	0	0
2024-05-20 10:33:32			0	39340	0	0	0	20916	19490	128589	27203	981630	39836	107668	0	0	8408	515103	0	0
2024-05-20 10:34:32			0	39326	0	0	0	20924	19500	128537	27469	981628	39827	107671	0	0	8407	515605	0	0
2024-05-20 10:35:32			0	39322	0	0	0	20935	19500	128637	27204	981646	39837	107675	0	0	8407	515757	0	0
2024-05-20 10:36:32			0	39306	0	0	0	20929	19520	128641	27275	981680	39829	107673	0	0	8406	516307	0	0
2024-05-20 10:37:32			0	39293	0	0	0	20916	19500	128625	27319	981628	39827	107668	0	0	8406	516858	0	0
2024-05-20 10:38:32			0	39291	0	0	0	20919	19510	128645	27211	981610	39828	107669	0	0	8406	516905	0	0
2024-05-20 10:39:32			0	39304	0	0	0	20911	19500	128677	27161	981602	39827	107666	0	0	8407	516440	0	0
2024-05-20 10:40:32			0	39273	0	0	0	20911	19500	128717	27267	981602	39816	107666	0	0	8405	517618	0	0
2024-05-20 10:41:32			0	39271	0	0	0	20909	19500	128817	27296	981567	39827	107665	0	0	8405	517694	0	0
2024-05-20 10:42:32			0	39271	0	0	0	20911	19500	128757	27407	981602	39837	107666	0	0	8405	517694	0	0
2024-05-20 10:43:32			0	39239	0	0	0	20924	19510	128773	27322	981610	39849	107671	0	0	8403	518882	0	0
2024-05-20 10:44:32			0	39250	0	0	0	20932	19510	128845	27331	981689	39838	107674	0	0	8403	518464	0	0
2024-05-20 10:45:32			0	39251	0	0	0	20950	19520	128777	27341	981653	39839	107681	0	0	8403	518397	0	0
2024-05-20 10:46:32			0	39229	0	0	0	20950	19510	128785	27428	981689	39838	107681	0	0	8402	519263	0	0
2024-05-20 10:47:32			0	39233	0	0	0	20958	19520	128805	27126	981733	39850	107684	0	0	8402	519082	0	0
2024-05-20 10:48:32			0	39213	0	0	0	20948	19520	128817	27492	981627	39839	107680	0	0	8401	519844	0	0
2024-05-20 10:49:32			0	39230	0	0	0	20948	19520	128809	27178	981688	39850	107680	0	0	8402	519196	0	0
2024-05-20 10:50:32			0	39233	0	0	0	20950	19520	128909	27234	981714	39850	107681	0	0	8402	519082	0	0
2024-05-20 10:51:32			0	39221	0	0	0	20935	19530	128929	27448	981670	39830	107675	0	0	8402	519510	0	0
2024-05-20 10:52:32			0	39234	0	0	0	20932	19520	128881	27251	981680	39839	107674	0	0	8403	519044	0	0
2024-05-20 10:53:32			0	39223	0	0	0	20922	19520	128925	27287	981635	39829	107670	0	0	8402	519463	0	0
2024-05-20 10:54:32			0	39214	0	0	0	20929	19530	128873	27609	981758	39830	107673	0	0	8402	519777	0	0
2024-05-20 10:55:32			0	39215	0	0	0	20937	19530	128869	27102	981731	39840	107676	0	0	8402	519739	0	0
2024-05-20 10:56:32			0	39221	0	0	0	20942	19530	128917	27296	981749	39830	107678	0	0	8402	519510	0	0
2024-05-20 10:57:32			0	39215	0	0	0	20948	19540	128881	27027	981739	39841	107680	0	0	8401	519710	0	0
2024-05-20 10:58:32			0	39224	0	0	0	20945	19530	128981	27206	981705	39840	107679	0	0	8402	519396	0	0
2024-05-20 10:59:32			0	39210	0	0	0	20937	19540	128981	27239	981774	39852	107676	0	0	8401	519901	0	0
2024-05-20 11:00:32			0	39190	0	0	0	20937	19530	128961	27358	981749	39840	107676	0	0	8400	520692	0	0
2024-05-20 11:01:32			0	39198	0	0	0	20935	19530	128945	27274	981776	39840	107675	0	0	8401	520387	0	0
2024-05-20 11:02:32			0	39180	0	0	0	20932	19530	128989	27443	981696	39840	107674	0	0	8400	521073	0	0
2024-05-20 11:03:32			0	39163	0	0	0	20932	19530	129069	26956	981731	39840	107674	0	0	8399	521722	0	0
2024-05-20 11:04:32			0	39185	0	0	0	20929	19530	129113	26890	981731	39830	107673	0	0	8400	520882	0	0
2024-05-20 11:05:32			0	39174	0	0	0	20929	19530	129069	27071	981784	39818	107673	0	0	8400	521302	0	0
2024-05-20 11:06:32			0	39139	0	0	0	20935	19530	129057	26994	981705	39840	107675	0	0	8398	522639	0	0
2024-05-20 11:07:32			0	39148	0	0	0	20935	19540	129093	26902	981792	39831	107675	0	0	8398	522266	0	0
2024-05-20 11:08:32			0	39152	0	0	0	20940	19540	129061	26951	981766	39831	107677	0	0	8398	522113	0	0
2024-05-20 11:09:32			0	39138	0	0	0	20945	19540	129117	27194	981766	39841	107679	0	0	8397	522648	0	0
2024-05-20 11:10:32			0	39117	0	0	0	20950	19530	129249	27019	981784	39851	107681	0	0	8396	523480	0	0
2024-05-20 11:11:32			0	39118	0	0	0	20968	19540	129241	27576	981827	39841	107688	0	0	8396	523413	0	0
2024-05-20 11:12:32			0	39114	0	0	0	20971	19550	129241	27197	981871	39853	107689	0	0	8396	523537	0	0
2024-05-20 11:13:32			0	39113	0	0	0	20976	19550	129225	27081	981889	39842	107691	0	0	8396	523575	0	0
2024-05-20 11:14:32			0	39101	0	0	0	20974	19550	129221	27286	981862	39842	107690	0	0	8395	524035	0	0
2024-05-20 11:15:32			0	39088	0	0	0	20981	19550	129285	27376	981924	39842	107693	0	0	8394	524532	0	0
2024-05-20 11:16:32			0	39102	0	0	0	20986	19550	129225	27308	981871	39842	107695	0	0	8395	523996	0	0
2024-05-20 11:17:32			0	39074	0	0	0	20979	19570	129325	27213	981984	39855	107692	0	0	8394	525011	0	0
2024-05-20 11:18:32			0	39094	0	0	0	20974	19570	129325	27397	981922	39843	107690	0	0	8395	524245	0	0
2024-05-20 11:19:32			0	39069	0	0	0	20974	19560	129349	27498	981941	39855	107690	0	0	8393	525231	0	0
2024-05-20 11:20:32			0	39064	0	0	0	20974	19560	129333	27282	981941	39833	107690	0	0	8393	525423	0	0
2024-05-20 11:21:32			0	39058	0	0	0	20984	19560	129369	27531	981914	39855	107694	0	0	8393	525653	0	0
2024-05-20 11:22:32			0	39043	0	0	0	20979	19570	129409	27112	981931	39844	107692	0	0	8392	526200	0	0
2024-05-20 11:23:32			0	39040	0	0	0	20992	19580	129409	27313	981974	39845	107697	0	0	8392	526286	0	0
2024-05-20 11:24:32			0	39015	0	0	0	20986	19580	129509	27391	981939	39855	107695	0	0	8391	527246	0	0
2024-05-20 11:25:32			0	39019	0	0	0	20981	19580	129549	27431	981939	39844	107693	0	0	8391	527092	0	0
2024-05-20 11:26:32			0	39019	0	0	0	20989	19580	129581	27467	981921	39834	107696	0	0	8391	527092	0	0
2024-05-20 11:27:32			0	39016	0	0	0	20981	19580	129589	27202	981939	39833	107693	0	0	8391	527207	0	0
2024-05-20 11:28:32			0	39008	0	0	0	20989	19580	129509	27407	982000	39845	107696	0	0	8390	527514	0	0
2024-05-20 11:29:32			0	39006	0	0	0	20984	19580	129569	26896	981947	39845	107694	0	0	8390	527591	0	0
2024-05-20 11:30:32			0	38986	0	0	0	20992	19580	129481	27237	982000	39868	107697	0	0	8389	528360	0	0
2024-05-20 11:31:32			0	38980	0	0	0	20989	19580	129441	27428	982053	39845	107696	0	0	8389	528591	0	0
2024-05-20 11:32:32			0	38990	0	0	0	20981	19580	129593	27171	981947	39834	107693	0	0	8389	528206	0	0
2024-05-20 11:33:32			0	38981	0	0	0	20984	19590	129593	27443	981937	39835	107694	0	0	8389	528523	0	0
2024-05-20 11:34:32			0	38989	0	0	0	20989	19580	129729	27150	981947	39845	107696	0	0	8389	528245	0	0
2024-05-20 11:35:32			0	38965	0	0	0	20992	19580	129685	27239	981974	39834	107697	0	0	8388	529168	0	0
2024-05-20 11:36:32			0	38950	0	0	0	20992	19590	129757	27443	982009	39856	107697	0	0	8387	529717	0	0
2024-05-20 11:37:32			0	38928	0	0	0	20989	19590	129829	27393	981964	39835	107696	0	0	8386	530564	0	0
2024-05-20 11:38:32			0	38927	0	0	0	20994	19590	129845	27478	982009	39856	107698	0	0	8386	530603	0	0
2024-05-20 11:39:32			0	38905	0	0	0	20992	19590	129897	27235	982009	39845	107697	0	0	8385	531452	0	0
2024-05-20 11:40:32			0	38882	0	0	0	20986	19590	129893	27284	982017	39846	107695	0	0	8384	532340	0	0
2024-05-20 11:41:32			0	38874	0	0	0	20986	19580	129985	27251	982000	39834	107695	0	0	8383	532678	0	0
2024-05-20 11:42:32			0	38869	0	0	0	20992	19590	130009	27208	981990	39846	107697	0	0	8383	532842	0	0
2024-05-20 11:43:32			0	38863	0	0	0	20997	19590	130017	27580	982009	39845	107699	0	0	8382	533074	0	0
2024-05-20 11:44:32			0	38835	0	0	0	20994	19590	130057	27218	982070	39835	107698	0	0	8381	534157	0	0
2024-05-20 11:45:32			0	38814	0	0	0	20997	19590	130053	27398	982035	39856	107699	0	0	8380	534971	0	0
2024-05-20 11:46:32			0	38839	0	0	0	20992	19590	130145	27303	982009	39834	107697	0	0	8381	534002	0	0
2024-05-20 11:47:32			0	38806	0	0	0	20992	19590	130149	27466	981956	39845	107697	0	0	8380	535281	0	0
2024-05-20 11:48:32			0	38804	0	0	0	20999	19590	130209	27789	982035	39845	107700	0	0	8379	535358	0	0
2024-05-20 11:49:32			0	38799	0	0	0	20994	19580	130209	27545	981974	39845	107698	0	0	8379	535581	0	0
2024-05-20 11:50:32			0	38795	0	0	0	20992	19590	130225	27289	982017	39846	107697	0	0	8379	535707	0	0
2024-05-20 11:51:32			0	38792	0	0	0	20992	19590	130205	27326	982017	39846	107697	0	0	8379	535823	0	0
2024-05-20 11:52:32			0	38775	0	0	0	20999	19590	130305	27523	982044	39857	107700	0	0	8378	536483	0	0
2024-05-20 11:53:32			0	38779	0	0	0	20997	19600	130265	27536	982087	39836	107699	0	0	8378	536298	0	0
2024-05-20 11:54:32			0	38769	0	0	0	21002	19600	130293	27438	981999	39846	107701	0	0	8378	536686	0	0
2024-05-20 11:55:32			0	38780	0	0	0	20997	19600	130285	27229	982060	39847	107699	0	0	8378	536259	0	0
2024-05-20 11:56:32			0	38786	0	0	0	21005	19600	130369	27248	982087	39869	107702	0	0	8378	536027	0	0
2024-05-20 11:57:32			0	38773	0	0	0	20997	19600	130253	27201	982052	39857	107699	0	0	8378	536531	0	0
2024-05-20 11:58:32			0	38765	0	0	0	20997	19600	130269	27557	982026	39846	107699	0	0	8377	536841	0	0
2024-05-20 11:59:32			0	38758	0	0	0	20997	19600	130281	27398	982026	39846	107699	0	0	8377	537113	0	0
2024-05-20 12:00:32			0	38747	0	0	0	20989	19600	130269	27376	982060	39847	107696	0	0	8377	537541	0	0
2024-05-20 12:01:32			0	38730	0	0	0	20981	19600	130301	27405	982052	39846	107693	0	0	8376	538201	0	0
2024-05-20 12:02:32			0	38725	0	0	0	20989	19590	130408	27369	982035	39845	107696	0	0	8375	538426	0	0
2024-05-20 12:03:32			0	38731	0	0	0	20984	19600	130485	27434	981973	39846	107694	0	0	8376	538163	0	0
2024-05-20 12:04:32			0	38692	0	0	0	20986	19590	130428	27440	981990	39846	107695	0	0	8374	539710	0	0
2024-05-20 12:05:32			0	38714	0	0	0	20981	19590	130508	27334	982017	39835	107693	0	0	8375	538853	0	0
2024-05-20 12:06:32			0	38706	0	0	0	20986	19600	130552	27348	982052	39868	107695	0	0	8374	539135	0	0
2024-05-20 12:07:32			0	38686	0	0	0	20989	19590	130512	27258	982009	39868	107696	0	0	8373	539944	0	0
2024-05-20 12:08:32			0	38694	0	0	0	20992	19600	130512	27403	982052	39846	107697	0	0	8374	539602	0	0
2024-05-20 12:09:32			0	38703	0	0	0	20986	19600	130464	27332	982079	39846	107695	0	0	8374	539252	0	0
2024-05-20 12:10:32			0	38718	0	0	0	20989	19590	130492	27313	982070	39835	107696	0	0	8375	538698	0	0
2024-05-20 12:11:32			0	38711	0	0	0	20997	19590	130580	27389	982017	39846	107699	0	0	8375	538970	0	0
2024-05-20 12:12:32			0	38719	0	0	0	20997	19600	130360	27015	982034	39847	107699	0	0	8375	538629	0	0
2024-05-20 12:13:32			0	38713	0	0	0	20992	19590	130380	27036	982017	39846	107697	0	0	8375	538892	0	0
2024-05-20 12:14:32			0	38724	0	0	0	21002	19590	130425	27381	982017	39846	107701	0	0	8375	538464	0	0
2024-05-20 12:15:32			0	38725	0	0	0	20992	19600	130416	27280	982034	39858	107697	0	0	8375	538396	0	0
2024-05-20 12:16:32			0	38716	0	0	0	20997	19600	130468	27308	982034	39847	107699	0	0	8375	538746	0	0
2024-05-20 12:17:32			0	38720	0	0	0	20994	19600	130496	27189	982026	39835	107698	0	0	8375	538590	0	0
2024-05-20 12:18:32			0	38704	0	0	0	20997	19600	130576	27085	982060	39836	107699	0	0	8374	539213	0	0
2024-05-20 12:19:32			0	38708	0	0	0	20981	19590	130496	27154	981964	39846	107693	0	0	8375	539087	0	0
2024-05-20 12:20:32			0	38717	0	0	0	20984	19600	130560	27417	981999	39835	107694	0	0	8375	538707	0	0
2024-05-20 12:21:32			0	38700	0	0	0	20984	19600	130516	27412	981999	39835	107694	0	0	8374	539369	0	0
2024-05-20 12:22:32			0	38709	0	0	0	20976	19600	130500	27343	982026	39857	107691	0	0	8375	539018	0	0
2024-05-20 12:23:32			0	38728	0	0	0	20984	19590	130533	27365	981964	39846	107694	0	0	8376	538309	0	0
2024-05-20 12:24:32			0	38709	0	0	0	20979	19590	130588	27393	981982	39834	107692	0	0	8375	539048	0	0
2024-05-20 12:25:32			0	38703	0	0	0	20986	19600	130532	27225	982026	39846	107695	0	0	8374	539252	0	0
2024-05-20 12:26:32			0	38712	0	0	0	20981	19590	130472	27062	981964	39846	107693	0	0	8375	538931	0	0
2024-05-20 12:27:32			0	38727	0	0	0	20992	19590	130416	27255	981956	39845	107697	0	0	8375	538348	0	0
2024-05-20 12:28:32			0	38725	0	0	0	20989	19590	130484	27509	982070	39846	107696	0	0	8375	538426	0	0
2024-05-20 12:29:32			0	38732	0	0	0	20989	19580	130492	27261	982000	39834	107696	0	0	8376	538183	0	0
2024-05-20 12:30:32			0	38735	0	0	0	20992	19600	130441	27249	981999	39846	107697	0	0	8376	538007	0	0
2024-05-20 12:31:32			0	38742	0	0	0	20999	19600	130417	27294	982007	39847	107700	0	0	8376	537735	0	0
2024-05-20 12:32:32			0	38751	0	0	0	20994	19590	130421	27552	982035	39856	107698	0	0	8377	537415	0	0
2024-05-20 12:33:32			0	38759	0	0	0	20986	19590	130433	26942	982017	39857	107695	0	0	8377	537104	0	0
2024-05-20 12:34:32			0	38758	0	0	0	20999	19590	130437	27495	982017	39835	107700	0	0	8377	537143	0	0
2024-05-20 12:35:32			0	38738	0	0	0	20997	19590	130377	27260	981982	39856	107699	0	0	8376	537920	0	0
2024-05-20 12:36:32			0	38759	0	0	0	20997	19590	130357	27377	982044	39835	107699	0	0	8377	537104	0	0
2024-05-20 12:37:32			0	38760	0	0	0	20994	19600	130365	27107	982026	39846	107698	0	0	8377	537036	0	0
2024-05-20 12:38:32			0	38759	0	0	0	20997	19600	130321	27488	982052	39846	107699	0	0	8377	537074	0	0
2024-05-20 12:39:32			0	38768	0	0	0	21010	19600	130341	27284	982060	39858	107704	0	0	8377	536725	0	0
2024-05-20 12:40:32			0	38767	0	0	0	21007	19590	130401	27409	982070	39857	107703	0	0	8377	536793	0	0
2024-05-20 12:41:32			0	38775	0	0	0	21010	19610	130317	27317	982148	39859	107704	0	0	8378	536424	0	0
2024-05-20 12:42:32			0	38783	0	0	0	21018	19600	130245	27509	982140	39847	107707	0	0	8378	536143	0	0
2024-05-20 12:43:32			0	38786	0	0	0	21018	19610	130237	27523	982130	39848	107707	0	0	8378	535997	0	0
2024-05-20 12:44:32			0	38757	0	0	0	21015	19620	130245	27331	982112	39859	107706	0	0	8377	537093	0	0
2024-05-20 12:45:32			0	38774	0	0	0	21018	19610	130301	27289	982104	39859	107707	0	0	8378	536463	0	0
2024-05-20 12:46:32			0	38782	0	0	0	21023	19620	130293	27422	982218	39848	107709	0	0	8378	536123	0	0
2024-05-20 12:47:32			0	38790	0	0	0	21023	19620	130245	27156	982147	39860	107709	0	0	8378	535812	0	0
2024-05-20 12:48:32			0	38791	0	0	0	21020	19620	130289	27357	982165	39859	107708	0	0	8378	535774	0	0
2024-05-20 12:49:32			0	38787	0	0	0	21025	19620	130285	27206	982139	39826	107710	0	0	8378	535929	0	0
2024-05-20 12:50:32			0	38803	0	0	0	21031	19620	130225	27377	982112	39859	107712	0	0	8379	535308	0	0
2024-05-20 12:51:32			0	38791	0	0	0	21028	19620	130169	27530	982173	39860	107711	0	0	8378	535774	0	0
2024-05-20 12:52:32			0	38813	0	0	0	21036	19630	130237	27469	982182	39849	107714	0	0	8379	534892	0	0
2024-05-20 12:53:32			0	38808	0	0	0	21023	19630	130181	27478	982182	39849	107709	0	0	8379	535085	0	0
2024-05-20 12:54:32			0	38844	0	0	0	21025	19630	130205	27499	982190	39861	107710	0	0	8381	533691	0	0
2024-05-20 12:55:32			0	38822	0	0	0	21025	19630	130069	27550	982235	39861	107710	0	0	8380	534543	0	0
2024-05-20 12:56:32			0	38825	0	0	0	21033	19630	130033	27441	982261	39849	107713	0	0	8380	534427	0	0
2024-05-20 12:57:32			0	38828	0	0	0	21041	19640	130021	27614	982198	39849	107716	0	0	8380	534281	0	0
2024-05-20 12:58:32			0	38839	0	0	0	21038	19640	129953	27388	982233	39850	107715	0	0	8381	533856	0	0
2024-05-20 12:59:32			0	38867	0	0	0	21049	19640	130025	27531	982225	39849	107719	0	0	8382	532773	0	0
2024-05-20 13:00:32			0	38854	0	0	0	21041	19640	130025	27248	982260	39862	107716	0	0	8381	533275	0	0
2024-05-20 13:01:32			0	38878	0	0	0	21051	19640	129977	27353	982278	39849	107720	0	0	8383	532348	0	0
2024-05-20 13:02:32			0	38889	0	0	0	21057	19650	129849	27440	982295	39851	107722	0	0	8383	531894	0	0
2024-05-20 13:03:32			0	38907	0	0	0	21062	19650	129829	27466	982321	39851	107724	0	0	8384	531199	0	0
2024-05-20 13:04:32			0	38894	0	0	0	21057	19650	129873	27248	982250	39851	107722	0	0	8383	531701	0	0
2024-05-20 13:05:32			0	38905	0	0	0	21062	19660	129817	27398	982311	39863	107724	0	0	8384	531247	0	0
2024-05-20 13:06:32			0	38903	0	0	0	21062	19650	129825	27326	982321	39851	107724	0	0	8384	531353	0	0
2024-05-20 13:07:32			0	38925	0	0	0	21062	19650	129801	27216	982295	39863	107724	0	0	8385	530505	0	0
2024-05-20 13:08:32			0	38941	0	0	0	21062	19660	129737	27360	982417	39851	107724	0	0	8386	529859	0	0
2024-05-20 13:09:32			0	38931	0	0	0	21072	19670	129721	26934	982373	39875	107728	0	0	8385	530215	0	0
2024-05-20 13:10:32			0	38943	0	0	0	21072	19660	129765	27329	982311	39863	107728	0	0	8386	529782	0	0
2024-05-20 13:11:32			0	38940	0	0	0	21075	19670	129777	27119	982407	39864	107729	0	0	8385	529869	0	0
2024-05-20 13:12:32			0	38960	0	0	0	21067	19670	129685	27211	982407	39875	107726	0	0	8387	529099	0	0
2024-05-20 13:13:32			0	38977	0	0	0	21080	19670	129729	27457	982407	39864	107731	0	0	8387	528445	0	0
2024-05-20 13:14:32			0	38982	0	0	0	21075	19670	129629	27396	982381	39875	107729	0	0	8388	528252	0	0
2024-05-20 13:15:32			0	38984	0	0	0	21080	19680	129629	27138	982451	39865	107731	0	0	8388	528146	0	0
2024-05-20 13:16:32			0	38992	0	0	0	21085	19680	129521	27339	982442	39854	107733	0	0	8388	527839	0	0
2024-05-20 13:17:32			0	38998	0	0	0	21083	19680	129485	27171	982451	39865	107732	0	0	8388	527608	0	0
2024-05-20 13:18:32			0	39025	0	0	0	21075	19690	129417	27435	982432	39854	107729	0	0	8390	526543	0	0
2024-05-20 13:19:32			0	39038	0	0	0	21083	19690	129437	27261	982486	39854	107732	0	0	8391	526044	0	0
2024-05-20 13:20:32			0	39045	0	0	0	21090	19690	129353	27083	982459	39865	107735	0	0	8391	525776	0	0
2024-05-20 13:21:32			0	39044	0	0	0	21080	19680	129337	27393	982424	39854	107731	0	0	8391	525843	0	0
2024-05-20 13:22:32			0	39054	0	0	0	21080	19680	129285	27161	982504	39865	107731	0	0	8391	525459	0	0
2024-05-20 13:23:32			0	39076	0	0	0	21088	19700	129313	27469	982502	39867	107734	0	0	8392	524559	0	0
2024-05-20 13:24:32			0	39082	0	0	0	21080	19680	129241	27416	982504	39854	107731	0	0	8393	524387	0	0
2024-05-20 13:25:32			0	39090	0	0	0	21083	19680	129217	27251	982451	39854	107732	0	0	8393	524081	0	0
2024-05-20 13:26:32			0	39096	0	0	0	21093	19690	129169	27524	982388	39866	107736	0	0	8393	523822	0	0
2024-05-20 13:27:32			0	39120	0	0	0	21088	19690	129161	27416	982414	39866	107734	0	0	8395	522905	0	0
2024-05-20 13:28:32			0	39115	0	0	0	21088	19690	129109	27410	982520	39855	107734	0	0	8394	523096	0	0
2024-05-20 13:29:32			0	39108	0	0	0	21093	19700	129145	27305	982582	39867	107736	0	0	8394	523335	0	0
2024-05-20 13:30:32			0	39116	0	0	0	21093	19690	129089	27046	982512	39865	107736	0	0	8394	523058	0	0
2024-05-20 13:31:32			0	39143	0	0	0	21098	19700	129045	27492	982502	39856	107738	0	0	8396	521997	0	0
2024-05-20 13:32:32			0	39130	0	0	0	21098	19690	129017	27438	982520	39866	107738	0	0	8395	522523	0	0
2024-05-20 13:33:32			0	39122	0	0	0	21098	19710	128993	27417	982545	39844	107738	0	0	8395	522771	0	0
2024-05-20 13:34:32			0	39141	0	0	0	21106	19690	129041	27445	982520	39876	107741	0	0	8395	522103	0	0
2024-05-20 13:35:32			0	39143	0	0	0	21116	19710	129069	27171	982572	39877	107745	0	0	8395	521969	0	0
2024-05-20 13:36:32			0	39164	0	0	0	21119	19710	128913	27216	982607	39868	107746	0	0	8397	521167	0	0
2024-05-20 13:37:32			0	39148	0	0	0	21119	19710	128977	27396	982554	39868	107746	0	0	8396	521778	0	0
2024-05-20 13:38:32			0	39152	0	0	0	21122	19700	128961	27194	982590	39867	107747	0	0	8396	521654	0	0
2024-05-20 13:39:32			0	39152	0	0	0	21119	19710	128937	27275	982633	39868	107746	0	0	8396	521625	0	0
2024-05-20 13:40:32			0	39156	0	0	0	21127	19710	128961	27493	982607	39878	107749	0	0	8396	521473	0	0
2024-05-20 13:41:32			0	39169	0	0	0	21137	19720	128873	27222	982642	39869	107753	0	0	8397	520948	0	0
2024-05-20 13:42:32			0	39189	0	0	0	21129	19720	128949	27391	982642	39857	107750	0	0	8398	520186	0	0
2024-05-20 13:43:32			0	39164	0	0	0	21137	19720	128885	27499	982597	39879	107753	0	0	8396	521139	0	0
2024-05-20 13:44:32			0	39170	0	0	0	21145	19730	129037	27341	982693	39858	107756	0	0	8396	520881	0	0
2024-05-20 13:45:32			0	39182	0	0	0	21153	19730	128989	27260	982667	39880	107759	0	0	8397	520424	0	0
2024-05-20 13:46:32			0	39170	0	0	0	21153	19740	128949	27402	982781	39870	107759	0	0	8396	520853	0	0
2024-05-20 13:47:32			0	39171	0	0	0	21161	19740	128921	27571	982737	39871	107762	0	0	8396	520814	0	0
2024-05-20 13:48:32			0	39178	0	0	0	21161	19750	128989	27455	982772	39881	107762	0	0	8397	520519	0	0
2024-05-20 13:49:32			0	39158	0	0	0	21163	19750	128985	27253	982753	39871	107763	0	0	8396	521281	0	0
2024-05-20 13:50:32			0	39188	0	0	0	21166	19750	128989	26994	982806	39881	107764	0	0	8397	520138	0	0
2024-05-20 13:51:32			0	39178	0	0	0	21161	19750	128961	27535	982727	39871	107762	0	0	8397	520519	0	0
2024-05-20 13:52:32			0	39190	0	0	0	21148	19750	128945	27473	982727	39871	107757	0	0	8398	520062	0	0
2024-05-20 13:53:32			0	39193	0	0	0	21145	19750	128873	27308	982772	39871	107756	0	0	8398	519948	0	0
2024-05-20 13:54:32			0	39174	0	0	0	21148	19750	128913	27164	982745	39871	107757	0	0	8397	520671	0	0
2024-05-20 13:55:32			0	39189	0	0	0	21145	19740	128965	27552	982737	39881	107756	0	0	8398	520129	0	0
2024-05-20 13:56:32			0	39176	0	0	0	21135	19750	128877	27196	982692	39860	107752	0	0	8397	520595	0	0
2024-05-20 13:57:32			0	39215	0	0	0	21122	19760	128877	27229	982743	39873	107747	0	0	8399	519081	0	0
2024-05-20 13:58:32			0	39203	0	0	0	21129	19750	128889	27171	982665	39871	107750	0	0	8399	519567	0	0
2024-05-20 13:59:32			0	39215	0	0	0	21124	19750	128865	27062	982718	39881	107748	0	0	8399	519110	0	0
2024-05-20 14:00:32			0	39211	0	0	0	21129	19760	128821	27083	982788	39872	107750	0	0	8399	519234	0	0
2024-05-20 14:01:32			0	39201	0	0	0	21132	19750	128853	27402	982674	39860	107751	0	0	8398	519643	0	0
2024-05-20 14:02:32			0	39210	0	0	0	21137	19750	128829	27412	982718	39860	107753	0	0	8399	519300	0	0
2024-05-20 14:03:32			0	39217	0	0	0	21135	19740	128825	27352	982710	39893	107752	0	0	8399	519063	0	0
2024-05-20 14:04:32			0	39229	0	0	0	21135	19750	128841	27241	982700	39871	107752	0	0	8400	518578	0	0
2024-05-20 14:05:32			0	39212	0	0	0	21137	19750	128813	27327	982665	39881	107753	0	0	8399	519224	0	0
2024-05-20 14:06:32			0	39195	0	0	0	21135	19750	128821	27208	982718	39871	107752	0	0	8398	519871	0	0
2024-05-20 14:07:32			0	39200	0	0	0	21137	19740	128849	27578	982702	39870	107753	0	0	8398	519710	0	0
2024-05-20 14:08:32			0	39202	0	0	0	21137	19740	128877	27561	982702	39870	107753	0	0	8398	519634	0	0
2024-05-20 14:09:32			0	39206	0	0	0	21140	19740	128877	27272	982702	39859	107754	0	0	8398	519481	0	0
2024-05-20 14:10:32			0	39193	0	0	0	21132	19750	128869	27715	982692	39871	107751	0	0	8398	519948	0	0
2024-05-20 14:11:32			0	39177	0	0	0	21142	19750	128881	27469	982727	39871	107755	0	0	8397	520557	0	0
2024-05-20 14:12:32			0	39187	0	0	0	21142	19750	128885	27488	982692	39860	107755	0	0	8398	520176	0	0
2024-05-20 14:13:32			0	39186	0	0	0	21140	19750	128997	27424	982700	39881	107754	0	0	8397	520214	0	0
2024-05-20 14:14:32			0	39151	0	0	0	21137	19750	128973	27182	982700	39881	107753	0	0	8396	521548	0	0
2024-05-20 14:15:32			0	39143	0	0	0	21145	19740	129085	27542	982710	39860	107756	0	0	8395	521883	0	0
2024-05-20 14:16:32			0	39146	0	0	0	21150	19760	128961	27216	982762	39861	107758	0	0	8395	521711	0	0
2024-05-20 14:17:32			0	39122	0	0	0	21145	19740	129125	27124	982710	39871	107756	0	0	8394	522684	0	0
2024-05-20 14:18:32			0	39125	0	0	0	21150	19730	129149	27613	982720	39880	107758	0	0	8394	522599	0	0
2024-05-20 14:19:32			0	39079	0	0	0	21163	19750	129161	27348	982745	39871	107763	0	0	8392	524300	0	0
2024-05-20 14:20:32			0	39039	0	0	0	21166	19760	129313	27275	982788	39872	107764	0	0	8389	525803	0	0
2024-05-20 14:21:32			0	39031	0	0	0	21168	19740	129289	27594	982790	39871	107765	0	0	8389	526168	0	0
2024-05-20 14:22:32			0	38996	0	0	0	21161	19740	129429	27396	982737	39871	107762	0	0	8387	527511	0	0
2024-05-20 14:23:32			0	38975	0	0	0	21148	19750	129469	27547	982745	39871	107757	0	0	8386	528289	0	0
2024-05-20 14:24:32			0	38963	0	0	0	21153	19760	129745	27131	982788	39872	107759	0	0	8386	528721	0	0
2024-05-20 14:25:32			0	38939	0	0	0	21161	19750	129737	27275	982806	39881	107762	0	0	8384	529674	0	0
2024-05-20 14:26:32			0	38902	0	0	0	21168	19760	129813	27369	982841	39872	107765	0	0	8382	531070	0	0
2024-05-20 14:27:32			0	38875	0	0	0	21197	19760	129945	27253	982947	39882	107776	0	0	8380	532112	0	0
2024-05-20 14:28:32			0	38848	0	0	0	21212	19760	129953	27182	982823	39873	107782	0	0	8379	533155	0	0
2024-05-20 14:29:32			0	38820	0	0	0	21202	19770	129953	27606	982884	39873	107778	0	0	8377	534209	0	0
2024-05-20 14:30:32			0	38817	0	0	0	21202	19770	130113	27345	982946	39873	107778	0	0	8377	534325	0	0
2024-05-20 14:31:32			0	38789	0	0	0	21202	19770	130197	27443	982972	39873	107778	0	0	8376	535409	0	0
2024-05-20 14:32:32			0	38774	0	0	0	21212	19790	130269	27329	983050	39896	107782	0	0	8375	535931	0	0
2024-05-20 14:33:32			0	38738	0	0	0	21246	19790	130289	27379	982971	39885	107795	0	0	8373	537328	0	0
2024-05-20 14:34:32			0	38750	0	0	0	21241	19800	130253	27400	983041	39886	107793	0	0	8373	536833	0	0
2024-05-20 14:35:32			0	38722	0	0	0	21246	19810	130344	27429	983092	39888	107795	0	0	8372	537890	0	0
2024-05-20 14:36:32			0	38715	0	0	0	21262	19810	130460	27530	983145	39888	107801	0	0	8371	538162	0	0
2024-05-20 14:37:32			0	38704	0	0	0	21251	19830	130420	26953	983144	39889	107797	0	0	8371	538531	0	0
2024-05-20 14:38:32			0	38696	0	0	0	21257	19830	130484	27142	983125	39878	107799	0	0	8370	538842	0	0
2024-05-20 14:39:32			0	38686	0	0	0	21246	19830	130472	27294	983179	39878	107795	0	0	8370	539231	0	0
2024-05-20 14:40:32			0	38651	0	0	0	21238	19840	130592	27412	983266	39889	107792	0	0	8368	540564	0	0
2024-05-20 14:41:32			0	38648	0	0	0	21225	19850	130580	27331	983204	39891	107787	0	0	8368	540651	0	0
2024-05-20 14:42:32			0	38639	0	0	0	21197	19830	130564	27251	983125	39868	107776	0	0	8368	541061	0	0
2024-05-20 14:43:32			0	38588	0	0	0	21192	19840	130624	27398	983116	39890	107774	0	0	8366	543022	0	0
2024-05-20 14:44:32			0	38585	0	0	0	21179	19830	130740	27471	983046	39868	107769	0	0	8366	543169	0	0
2024-05-20 14:45:32			0	38533	0	0	0	21163	19830	130840	27561	983072	39878	107763	0	0	8363	545204	0	0
2024-05-20 14:46:32			0	38501	0	0	0	21150	19830	130900	27580	983046	39878	107758	0	0	8362	546458	0	0
2024-05-20 14:47:32			0	38473	0	0	0	21135	19830	131044	27479	983038	39878	107752	0	0	8361	547557	0	0
2024-05-20 14:48:32			0	38441	0	0	0	21127	19820	131180	27473	983029	39867	107749	0	0	8359	548845	0	0
2024-05-20 14:49:32			0	38398	0	0	0	21111	19810	131296	27623	982960	39876	107743	0	0	8357	550568	0	0
2024-05-20 14:50:32			0	38352	0	0	0	21114	19810	131436	27514	983004	39888	107744	0	0	8355	552383	0	0
2024-05-20 14:51:32			0	38328	0	0	0	21135	19810	131636	27355	982925	39866	107752	0	0	8353	553331	0	0
2024-05-20 14:52:32			0	38293	0	0	0	21122	19810	131620	27737	982951	39866	107747	0	0	8352	554716	0	0
2024-05-20 14:53:32			0	38259	0	0	0	21124	19810	131784	26955	982853	39866	107748	0	0	8350	556063	0	0
2024-05-20 14:54:32			0	38205	0	0	0	21106	19800	131908	27225	982775	39853	107741	0	0	8347	558237	0	0
2024-05-20 14:55:32			0	38182	0	0	0	21085	19780	131944	27717	982750	39863	107733	0	0	8346	559214	0	0
2024-05-20 14:56:32			0	38157	0	0	0	21064	19790	132100	27492	982732	39852	107725	0	0	8345	560178	0	0
2024-05-20 14:57:32			0	38106	0	0	0	21051	19760	132332	27419	982664	39851	107720	0	0	8343	562305	0	0
2024-05-20 14:58:32			0	38079	0	0	0	21046	19760	132412	27232	982656	39838	107718	0	0	8341	563384	0	0
2024-05-20 14:59:32			0	38034	0	0	0	21046	19750	132568	27646	982665	39849	107718	0	0	8339	565216	0	0
2024-05-20 15:00:32			0	37998	0	0	0	21044	19740	132739	27282	982622	39859	107717	0	0	8337	566691	0	0
2024-05-20 15:01:32			0	37919	0	0	0	21036	19730	132943	27540	982561	39847	107714	0	0	8333	569898	0	0
2024-05-20 15:02:32			0	37884	0	0	0	21025	19720	133115	27012	982544	39835	107710	0	0	8331	571340	0	0
2024-05-20 15:03:32			0	37846	0	0	0	20999	19730	133291	27625	982473	39846	107700	0	0	8330	572843	0	0
2024-05-20 15:04:32			0	37809	0	0	0	20997	19720	133343	27343	982376	39857	107699	0	0	8328	574371	0	0
2024-05-20 15:05:32			0	37780	0	0	0	20989	19710	133467	27769	982439	39844	107696	0	0	8327	575577	0	0
2024-05-20 15:06:32			0	37745	0	0	0	21007	19700	133515	27486	982423	39856	107703	0	0	8324	577028	0	0
2024-05-20 15:07:32			0	37712	0	0	0	21023	19700	133631	27708	982423	39856	107709	0	0	8322	578369	0	0
2024-05-20 15:08:32			0	37656	0	0	0	21020	19690	133771	27338	982379	39854	107708	0	0	8319	580681	0	0
2024-05-20 15:09:32			0	37648	0	0	0	21025	19690	133891	27481	982406	39843	107710	0	0	8319	581007	0	0
2024-05-20 15:10:32			0	37624	0	0	0	21038	19680	133971	27409	982424	39843	107715	0	0	8317	582018	0	0
2024-05-20 15:11:32			0	37579	0	0	0	21044	19690	134075	27178	982459	39854	107717	0	0	8315	583825	0	0
2024-05-20 15:12:32			0	37591	0	0	0	21049	19690	134155	27495	982432	39843	107719	0	0	8316	583334	0	0
2024-05-20 15:13:32			0	37560	0	0	0	21062	19700	134207	27495	982502	39856	107724	0	0	8314	584570	0	0
2024-05-20 15:14:32			0	37526	0	0	0	21064	19690	134239	27303	982539	39854	107725	0	0	8312	585995	0	0
2024-05-20 15:15:32			0	37535	0	0	0	21072	19710	134271	27284	982545	39856	107728	0	0	8312	585562	0	0
2024-05-20 15:16:32			0	37490	0	0	0	21080	19700	134339	27327	982564	39867	107731	0	0	8310	587440	0	0
2024-05-20 15:17:32			0	37472	0	0	0	21085	19700	134519	27410	982564	39856	107733	0	0	8309	588180	0	0
2024-05-20 15:18:32			0	37440	0	0	0	21088	19710	134503	27156	982572	39844	107734	0	0	8307	589464	0	0
2024-05-20 15:19:32			0	37418	0	0	0	21077	19710	134591	27428	982492	39867	107730	0	0	8306	590370	0	0
2024-05-20 15:20:32			0	37434	0	0	0	21064	19700	134707	27291	982476	39844	107725	0	0	8307	589743	0	0
2024-05-20 15:21:32			0	37420	0	0	0	21064	19700	134623	27507	982537	39856	107725	0	0	8306	590320	0	0
2024-05-20 15:22:32			0	37406	0	0	0	21067	19680	134663	27346	982398	39854	107726	0	0	8306	590962	0	0
2024-05-20 15:23:32			0	37401	0	0	0	21046	19700	134787	27395	982476	39856	107718	0	0	8306	591103	0	0
2024-05-20 15:24:32			0	37395	0	0	0	21036	19690	134807	27367	982379	39843	107714	0	0	8305	591383	0	0
2024-05-20 15:25:32			0	37370	0	0	0	21028	19690	134811	27351	982467	39833	107711	0	0	8304	592415	0	0
2024-05-20 15:26:32			0	37364	0	0	0	21031	19690	134871	27419	982467	39855	107712	0	0	8304	592663	0	0
2024-05-20 15:27:32			0	37372	0	0	0	21046	19680	134843	27209	982398	39854	107718	0	0	8304	592365	0	0
2024-05-20 15:28:32			0	37360	0	0	0	21041	19680	134955	27268	982451	39854	107716	0	0	8304	592860	0	0
2024-05-20 15:29:32			0	37337	0	0	0	21038	19690	134871	27393	982432	39843	107715	0	0	8302	593778	0	0
2024-05-20 15:30:32			0	37341	0	0	0	21036	19690	134943	27500	982459	39854	107714	0	0	8303	593613	0	0
2024-05-20 15:31:32			0	37344	0	0	0	21036	19690	134927	27573	982432	39865	107714	0	0	8303	593489	0	0
2024-05-20 15:32:32			0	37318	0	0	0	21051	19690	134990	27604	982547	39866	107720	0	0	8301	594565	0	0
2024-05-20 15:33:32			0	37323	0	0	0	21075	19690	135111	27429	982512	39865	107729	0	0	8301	594358	0	0
2024-05-20 15:34:32			0	37313	0	0	0	21085	19700	135026	27069	982555	39867	107733	0	0	8300	594739	0	0
2024-05-20 15:35:32			0	37313	0	0	0	21093	19710	135038	27324	982625	39867	107736	0	0	8300	594706	0	0
2024-05-20 15:36:32			0	37331	0	0	0	21129	19720	135079	27607	982703	39869	107750	0	0	8301	593929	0	0
2024-05-20 15:37:32			0	37319	0	0	0	21150	19730	135098	27618	982800	39869	107758	0	0	8300	594392	0	0
2024-05-20 15:38:32			0	37312	0	0	0	21171	19740	135074	27305	982808	39859	107766	0	0	8299	594649	0	0
2024-05-20 15:39:32			0	37325	0	0	0	21184	19740	135051	27479	982861	39859	107771	0	0	8300	594111	0	0
2024-05-20 15:40:32			0	37329	0	0	0	21194	19760	135011	27263	982947	39872	107775	0	0	8300	593881	0	0
2024-05-20 15:41:32			0	37325	0	0	0	21187	19760	134927	27466	982876	39883	107772	0	0	8300	594046	0	0
2024-05-20 15:42:32			0	37319	0	0	0	21184	19750	134958	27355	982939	39871	107771	0	0	8299	594327	0	0
2024-05-20 15:43:32			0	37338	0	0	0	21184	19780	134951	27440	982901	39863	107771	0	0	8300	593443	0	0
2024-05-20 15:44:32			0	37371	0	0	0	21176	19780	134859	27365	982981	39863	107768	0	0	8302	592080	0	0
2024-05-20 15:45:32			0	37345	0	0	0	21179	19780	134803	27580	983007	39874	107769	0	0	8301	593154	0	0
2024-05-20 15:46:32			0	37380	0	0	0	21176	19790	134755	27144	983032	39875	107768	0	0	8303	591676	0	0
2024-05-20 15:47:32			0	37360	0	0	0	21197	19790	134675	27352	983050	39875	107776	0	0	8301	592501	0	0
2024-05-20 15:48:32			0	37385	0	0	0	21199	19790	134715	27367	983032	39875	107777	0	0	8303	591470	0	0
2024-05-20 15:49:32			0	37394	0	0	0	21205	19800	134595	27329	983128	39875	107779	0	0	8303	591066	0	0
2024-05-20 15:50:32			0	37404	0	0	0	21212	19820	134695	27753	983180	39899	107782	0	0	8304	590589	0	0
2024-05-20 15:51:32			0	37397	0	0	0	21231	19810	134639	27469	983225	39888	107789	0	0	8303	590910	0	0
2024-05-20 15:52:32			0	37406	0	0	0	21225	19840	134655	27128	983275	39890	107787	0	0	8304	590442	0	0
2024-05-20 15:53:32			0	37405	0	0	0	21223	19840	134595	27687	983266	39878	107786	0	0	8303	590483	0	0
2024-05-20 15:54:32			0	37422	0	0	0	21225	19850	134503	27457	983257	39880	107787	0	0	8304	589750	0	0
2024-05-20 15:55:32			0	37415	0	0	0	21228	19850	134523	27552	983318	39880	107788	0	0	8304	590038	0	0
2024-05-20 15:56:32			0	37449	0	0	0	21231	19860	134431	27665	983335	39892	107789	0	0	8306	588607	0	0
2024-05-20 15:57:32			0	37432	0	0	0	21246	19870	134443	27549	983396	39882	107795	0	0	8305	589274	0	0
2024-05-20 15:58:32			0	37466	0	0	0	21238	19880	134443	27341	983360	39872	107792	0	0	8307	587844	0	0
2024-05-20 15:59:32			0	37453	0	0	0	21249	19890	134423	27237	983483	39883	107796	0	0	8306	588345	0	0
2024-05-20 16:00:32			0	37457	0	0	0	21259	19900	134311	27467	983526	39874	107800	0	0	8306	588148	0	0
2024-05-20 16:01:32			0	37478	0	0	0	21275	19930	134299	27509	983709	39898	107806	0	0	8307	587189	0	0
2024-05-20 16:02:32			0	37480	0	0	0	21283	19930	134347	27538	983717	39888	107809	0	0	8307	587107	0	0
2024-05-20 16:03:32			0	37471	0	0	0	21285	19950	134259	27414	983848	39889	107810	0	0	8306	587412	0	0
2024-05-20 16:04:32			0	37474	0	0	0	21306	19970	134219	27409	983882	39902	107818	0	0	8306	587224	0	0
2024-05-20 16:05:32			0	37495	0	0	0	21311	19990	134135	27372	983960	39892	107820	0	0	8307	586298	0	0
2024-05-20 16:06:32			0	37505	0	0	0	21324	20000	134119	27474	984012	39905	107825	0	0	8308	585855	0	0
2024-05-20 16:07:32			0	37507	0	0	0	21329	20020	134167	27118	984090	39906	107827	0	0	8308	585709	0	0
2024-05-20 16:08:32			0	37515	0	0	0	21327	20040	134083	27668	984150	39896	107826	0	0	8308	585317	0	0
2024-05-20 16:09:32			0	37542	0	0	0	21332	20040	133955	27383	984105	39875	107828	0	0	8310	584212	0	0
2024-05-20 16:10:32			0	37526	0	0	0	21340	20050	133951	27208	984042	39876	107831	0	0	8309	584834	0	0
2024-05-20 16:11:32			0	37559	0	0	0	21324	20050	133955	27329	984007	39853	107825	0	0	8311	583485	0	0
2024-05-20 16:12:32			0	37562	0	0	0	21311	20030	133955	27538	983902	39864	107820	0	0	8311	583427	0	0
2024-05-20 16:13:32			0	37582	0	0	0	21303	20020	133731	27039	983886	39874	107817	0	0	8312	582642	0	0
2024-05-20 16:14:32			0	37602	0	0	0	21290	20010	133751	27379	983781	39839	107812	0	0	8313	581858	0	0
2024-05-20 16:15:32			0	37601	0	0	0	21288	20000	133679	27379	983746	39861	107811	0	0	8313	581931	0	0
2024-05-20 16:16:32			0	37613	0	0	0	21275	19990	133695	27488	983703	39871	107806	0	0	8314	581473	0	0
2024-05-20 16:17:32			0	37652	0	0	0	21267	19980	133655	27443	983713	39859	107803	0	0	8316	579916	0	0
2024-05-20 16:18:32			0	37661	0	0	0	21264	19980	133539	27543	983713	39871	107802	0	0	8317	579550	0	0
2024-05-20 16:19:32			0	37681	0	0	0	21257	19960	133427	27100	983573	39857	107799	0	0	8318	578801	0	0
2024-05-20 16:20:32			0	37692	0	0	0	21262	19960	133391	27550	983547	39857	107801	0	0	8318	578354	0	0
2024-05-20 16:21:32			0	37717	0	0	0	21259	19970	133319	27336	983643	39869	107800	0	0	8320	577306	0	0
2024-05-20 16:22:32			0	37732	0	0	0	21277	19950	133287	27459	983830	39889	107807	0	0	8320	576761	0	0
2024-05-20 16:23:32			0	37743	0	0	0	21345	20000	133247	27133	984109	39904	107833	0	0	8320	576156	0	0
2024-05-20 16:24:32			0	37764	0	0	0	21423	20030	133183	27424	984407	39918	107863	0	0	8320	575210	0	0
2024-05-20 16:25:32			0	37777	0	0	0	21472	20070	133115	27020	984553	39911	107882	0	0	8320	574558	0	0
2024-05-20 16:26:32			0	37786	0	0	0	21449	20100	133099	27315	984542	39914	107873	0	0	8321	574099	0	0
2024-05-20 16:27:32			0	37803	0	0	0	21433	20110	132959	27447	984612	39903	107867	0	0	8322	573380	0	0
2024-05-20 16:28:32			0	37807	0	0	0	21433	20120	132895	27152	984557	39905	107867	0	0	8322	573187	0	0
2024-05-20 16:29:32			0	37815	0	0	0	21462	20140	132879	27409	984723	39907	107878	0	0	8322	572800	0	0
2024-05-20 16:30:32			0	37832	0	0	0	21485	20170	132831	27293	984845	39909	107887	0	0	8323	572019	0	0
2024-05-20 16:31:32			0	37831	0	0	0	21485	20180	132751	27265	984790	39888	107887	0	0	8323	572028	0	0
2024-05-20 16:32:32			0	37860	0	0	0	21464	20190	132715	27391	984886	39911	107879	0	0	8325	570828	0	0
2024-05-20 16:33:32			0	37869	0	0	0	21459	20220	132639	27519	985017	39903	107877	0	0	8325	570371	0	0
2024-05-20 16:34:32			0	37874	0	0	0	21464	20230	132527	27762	985033	39915	107879	0	0	8326	570138	0	0
2024-05-20 16:35:32			0	37916	0	0	0	21480	20240	132551	27189	985148	39904	107885	0	0	8328	568418	0	0
2024-05-20 16:36:32			0	37912	0	0	0	21511	20270	132427	27454	985243	39906	107897	0	0	8327	568485	0	0
2024-05-20 16:37:32			0	37935	0	0	0	21524	20290	132467	27547	985382	39908	107902	0	0	8328	567499	0	0
2024-05-20 16:38:32			0	37936	0	0	0	21509	20300	132379	27353	985240	39910	107896	0	0	8328	567427	0	0
2024-05-20 16:39:32			0	37950	0	0	0	21451	20300	132247	27376	985054	39876	107874	0	0	8330	566866	0	0
2024-05-20 16:40:32			0	37965	0	0	0	21420	20290	132195	27263	985152	39886	107862	0	0	8331	566296	0	0
2024-05-20 16:41:32			0	37969	0	0	0	21420	20290	132171	27289	985117	39886	107862	0	0	8332	566136	0	0
2024-05-20 16:42:32			0	37974	0	0	0	21457	20300	132139	27526	985240	39910	107876	0	0	8331	565904	0	0
2024-05-20 16:43:32			0	38002	0	0	0	21462	20320	132087	27365	985167	39889	107878	0	0	8333	564721	0	0
2024-05-20 16:44:32			0	38024	0	0	0	21511	20310	132000	27171	985265	39899	107897	0	0	8333	563873	0	0
2024-05-20 16:45:32			0	38024	0	0	0	21571	20320	131983	27422	985335	39890	107920	0	0	8332	563842	0	0
2024-05-20 16:46:32			0	38040	0	0	0	21550	20350	131992	27530	985483	39903	107912	0	0	8333	563109	0	0
2024-05-20 16:47:32			0	38043	0	0	0	21586	20360	131984	27448	985534	39905	107926	0	0	8333	562958	0	0
2024-05-20 16:48:32			0	38039	0	0	0	21558	20370	131908	27424	985498	39905	107915	0	0	8333	563087	0	0
2024-05-20 16:49:32			0	38030	0	0	0	21571	20380	131955	27118	985480	39873	107920	0	0	8333	563415	0	0
2024-05-20 16:50:32			0	38029	0	0	0	21571	20370	131959	27298	985304	39882	107920	0	0	8332	563486	0	0
2024-05-20 16:51:32			0	38056	0	0	0	21620	20350	131932	27457	985377	39870	107939	0	0	8333	562471	0	0
2024-05-20 16:52:32			0	38028	0	0	0	21672	20350	132039	27034	985324	39903	107959	0	0	8331	563588	0	0
2024-05-20 16:53:32			0	38026	0	0	0	21696	20340	132080	27350	985413	39902	107968	0	0	8330	563699	0	0
2024-05-20 16:54:32			0	37992	0	0	0	21688	20340	132187	27275	985342	39903	107965	0	0	8328	565059	0	0
2024-05-20 16:55:32			0	37997	0	0	0	21683	20350	132087	27455	985385	39914	107963	0	0	8329	564827	0	0
2024-05-20 16:56:32			0	37976	0	0	0	21680	20340	132215	27109	985395	39903	107962	0	0	8328	565699	0	0
2024-05-20 16:57:32			0	37972	0	0	0	21690	20360	132275	27272	985481	39916	107966	0	0	8327	565797	0	0
2024-05-20 16:58:32			0	37935	0	0	0	21701	20360	132427	27225	985420	39915	107970	0	0	8325	567279	0	0
2024-05-20 16:59:32			0	37941	0	0	0	21693	20360	132463	27339	985393	39925	107967	0	0	8326	567039	0	0
2024-05-20 17:00:32			0	37910	0	0	0	21667	20360	132471	27339	985508	39916	107957	0	0	8325	568283	0	0
2024-05-20 17:01:32			0	37906	0	0	0	21649	20370	132603	27050	985463	39926	107950	0	0	8325	568412	0	0
2024-05-20 17:02:32			0	37882	0	0	0	21649	20360	132527	27286	985428	39905	107950	0	0	8323	569407	0	0
2024-05-20 17:03:32			0	37868	0	0	0	21657	20350	132607	27159	985324	39924	107953	0	0	8322	570002	0	0
2024-05-20 17:04:32			0	37865	0	0	0	21636	20350	132631	27109	985244	39914	107945	0	0	8323	570123	0	0
2024-05-20 17:05:32			0	37872	0	0	0	21597	20330	132663	27452	985165	39901	107930	0	0	8324	569904	0	0
2024-05-20 17:06:32			0	37853	0	0	0	21553	20320	132527	27336	985069	39901	107913	0	0	8323	570700	0	0
2024-05-20 17:07:32			0	37866	0	0	0	21501	20300	132543	27013	984868	39887	107893	0	0	8325	570240	0	0
2024-05-20 17:08:32			0	37869	0	0	0	21423	20260	132491	27312	984677	39884	107863	0	0	8326	570245	0	0
2024-05-20 17:09:32			0	37880	0	0	0	21366	20230	132551	27364	984388	39860	107841	0	0	8328	569897	0	0
2024-05-20 17:10:32			0	37893	0	0	0	21311	20190	132563	27092	984268	39845	107820	0	0	8329	569500	0	0
2024-05-20 17:11:32			0	37872	0	0	0	21262	20150	132531	27045	984050	39863	107801	0	0	8329	570470	0	0
2024-05-20 17:12:32			0	37879	0	0	0	21215	20120	132547	27206	983885	39872	107783	0	0	8330	570283	0	0
2024-05-20 17:13:32			0	37918	0	0	0	21194	20080	132555	27152	983818	39868	107775	0	0	8332	568840	0	0
2024-05-20 17:14:32			0	37905	0	0	0	21181	20060	132499	27128	983714	39844	107770	0	0	8331	569426	0	0
2024-05-20 17:15:32			0	37912	0	0	0	21168	20040	132599	27071	983566	39841	107765	0	0	8332	569207	0	0
2024-05-20 17:16:32			0	37911	0	0	0	21150	20010	132487	26908	983498	39829	107758	0	0	8332	569341	0	0
2024-05-20 17:17:32			0	37927	0	0	0	21135	19990	132583	27289	983376	39859	107752	0	0	8333	568760	0	0
2024-05-20 17:18:32			0	37938	0	0	0	21109	19950	132555	27150	983273	39846	107742	0	0	8334	568444	0	0
2024-05-20 17:19:32			0	37949	0	0	0	21090	19920	132523	27362	983249	39832	107735	0	0	8335	568096	0	0
2024-05-20 17:20:32			0	37955	0	0	0	21088	19900	132475	27213	983163	39852	107734	0	0	8335	567917	0	0
2024-05-20 17:21:32			0	37976	0	0	0	21077	19890	132483	27319	983058	39839	107730	0	0	8336	567105	0	0
2024-05-20 17:22:32			0	37974	0	0	0	21070	19870	132427	27074	982972	39838	107727	0	0	8336	567248	0	0
2024-05-20 17:23:32			0	38005	0	0	0	21075	19850	132371	27241	982912	39847	107729	0	0	8337	566067	0	0
2024-05-20 17:24:32			0	38032	0	0	0	21064	19820	132347	27308	982835	39844	107725	0	0	8339	565078	0	0
2024-05-20 17:25:32			0	38050	0	0	0	21057	19810	132280	27495	982853	39844	107722	0	0	8340	564389	0	0
2024-05-20 17:26:32			0	38048	0	0	0	21062	19810	132232	27182	982765	39844	107724	0	0	8340	564469	0	0
2024-05-20 17:27:32			0	38076	0	0	0	21038	19780	132148	27331	982689	39840	107715	0	0	8341	563442	0	0
2024-05-20 17:28:32			0	38087	0	0	0	21036	19770	132144	27322	982681	39829	107714	0	0	8342	563033	0	0
2024-05-20 17:29:32			0	38090	0	0	0	21028	19750	132156	27281	982594	39838	107711	0	0	8342	562975	0	0
2024-05-20 17:30:32			0	38111	0	0	0	21005	19740	132128	27123	982551	39827	107702	0	0	8344	562167	0	0
2024-05-20 17:31:32			0	38130	0	0	0	21012	19730	132072	27046	982420	39835	107705	0	0	8345	561440	0	0
2024-05-20 17:32:32			0	38124	0	0	0	21018	19720	132032	27296	982509	39846	107707	0	0	8344	561710	0	0
2024-05-20 17:33:32			0	38134	0	0	0	21012	19710	132092	27123	982501	39834	107705	0	0	8345	561342	0	0
2024-05-20 17:34:32			0	38179	0	0	0	21012	19710	131976	27176	982492	39844	107705	0	0	8347	559549	0	0
2024-05-20 17:35:32			0	38184	0	0	0	21010	19700	131940	26991	982431	39833	107704	0	0	8347	559381	0	0
2024-05-20 17:36:32			0	38173	0	0	0	21007	19690	132036	27147	982414	39844	107703	0	0	8347	559849	0	0
2024-05-20 17:37:32			0	38167	0	0	0	20999	19680	131924	27019	982363	39832	107700	0	0	8346	560119	0	0
2024-05-20 17:38:32			0	38188	0	0	0	20997	19680	131996	27573	982389	39843	107699	0	0	8348	559283	0	0
2024-05-20 17:39:32			0	38184	0	0	0	20992	19680	131896	27620	982363	39843	107697	0	0	8348	559442	0	0
2024-05-20 17:40:32			0	38168	0	0	0	20989	19670	131996	27258	982320	39852	107696	0	0	8347	560110	0	0
2024-05-20 17:41:32			0	38217	0	0	0	20994	19650	131900	27017	982303	39840	107698	0	0	8349	558222	0	0
2024-05-20 17:42:32			0	38204	0	0	0	20979	19650	131932	27334	982303	39840	107692	0	0	8349	558739	0	0
2024-05-20 17:43:32			0	38207	0	0	0	20986	19650	131884	27334	982268	39830	107695	0	0	8349	558619	0	0
2024-05-20 17:44:32			0	38221	0	0	0	20992	19640	131892	27192	982198	39838	107697	0	0	8349	558093	0	0
2024-05-20 17:45:32			0	38225	0	0	0	20994	19640	131952	27128	982207	39839	107698	0	0	8349	557934	0	0
2024-05-20 17:46:32			0	38216	0	0	0	20989	19630	131932	27055	982296	39838	107696	0	0	8349	558323	0	0
2024-05-20 17:47:32			0	38226	0	0	0	20986	19630	131944	27244	982208	39849	107695	0	0	8350	557925	0	0
2024-05-20 17:48:32			0	38219	0	0	0	20986	19630	131900	27109	982182	39838	107695	0	0	8349	558203	0	0
2024-05-20 17:49:32			0	38215	0	0	0	20994	19620	131944	27133	982253	39849	107698	0	0	8349	558393	0	0
2024-05-20 17:50:32			0	38212	0	0	0	20986	19620	132012	27135	982218	39848	107695	0	0	8349	558512	0	0
2024-05-20 17:51:32			0	38203	0	0	0	20979	19610	131936	27067	982210	39837	107692	0	0	8348	558901	0	0
2024-05-20 17:52:32			0	38218	0	0	0	20981	19610	131972	27350	982157	39837	107693	0	0	8349	558305	0	0
2024-05-20 17:53:32			0	38189	0	0	0	20984	19610	132024	27085	982175	39837	107694	0	0	8348	559459	0	0
2024-05-20 17:54:32			0	38198	0	0	0	20974	19600	131936	27022	982114	39836	107690	0	0	8348	559131	0	0
2024-05-20 17:55:32			0	38181	0	0	0	20976	19610	132024	27131	982157	39859	107691	0	0	8347	559777	0	0
2024-05-20 17:56:32			0	38167	0	0	0	20971	19600	132104	27419	982052	39857	107689	0	0	8347	560366	0	0
2024-05-20 17:57:32			0	38171	0	0	0	20968	19600	132044	27313	982114	39847	107688	0	0	8347	560206	0	0
2024-05-20 17:58:32			0	38155	0	0	0	20966	19590	132136	27156	982123	39825	107687	0	0	8346	560875	0	0
2024-05-20 17:59:32			0	38157	0	0	0	20963	19590	132200	27319	982062	39845	107686	0	0	8346	560795	0	0
2024-05-20 18:00:32			0	38132	0	0	0	20963	19590	132204	27289	982044	39835	107686	0	0	8345	561793	0	0
2024-05-20 18:01:32			0	38125	0	0	0	20958	19580	132136	27220	982080	39824	107684	0	0	8345	562103	0	0
2024-05-20 18:02:32			0	38129	0	0	0	20963	19590	132156	27390	982088	39845	107686	0	0	8345	561913	0	0
2024-05-20 18:03:32			0	38106	0	0	0	20955	19580	132212	27303	982080	39834	107683	0	0	8344	562862	0	0
2024-05-20 18:04:32			0	38093	0	0	0	20958	19590	132252	27341	982035	39845	107684	0	0	8343	563351	0	0
2024-05-20 18:05:32			0	38093	0	0	0	20958	19580	132360	27164	982072	39833	107684	0	0	8343	563382	0	0
2024-05-20 18:06:32			0	38104	0	0	0	20953	19580	132380	27275	982019	39844	107682	0	0	8344	562942	0	0
2024-05-20 18:07:32			0	38096	0	0	0	20955	19580	132356	27029	982019	39844	107683	0	0	8343	563262	0	0
2024-05-20 18:08:32			0	38101	0	0	0	20958	19570	132360	27005	982063	39844	107684	0	0	8343	563093	0	0
2024-05-20 18:09:32			0	38078	0	0	0	20961	19580	132376	27164	982045	39844	107685	0	0	8342	563982	0	0
2024-05-20 18:10:32			0	38067	0	0	0	20950	19570	132452	27249	982037	39844	107681	0	0	8342	564454	0	0
2024-05-20 18:11:32			0	38064	0	0	0	20937	19570	132440	27703	982037	39823	107676	0	0	8342	564574	0	0
2024-05-20 18:12:32			0	38057	0	0	0	20922	19560	132452	27447	981959	39843	107670	0	0	8342	564885	0	0
2024-05-20 18:13:32			0	38066	0	0	0	20929	19560	132404	27133	982012	39843	107673	0	0	8342	564525	0	0
2024-05-20 18:14:32			0	38073	0	0	0	20916	19550	132496	27450	981897	39842	107668	0	0	8342	564276	0	0
2024-05-20 18:15:32			0	38066	0	0	0	20914	19560	132484	27038	981985	39843	107667	0	0	8342	564525	0	0
2024-05-20 18:16:32			0	38033	0	0	0	20922	19550	132508	27291	981969	39853	107670	0	0	8340	565879	0	0
2024-05-20 18:17:32			0	38056	0	0	0	20901	19540	132624	27201	981907	39831	107662	0	0	8342	564988	0	0
2024-05-20 18:18:32			0	38048	0	0	0	20901	19540	132524	27268	981907	39831	107662	0	0	8341	565308	0	0
2024-05-20 18:19:32			0	38038	0	0	0	20901	19540	132536	27230	981827	39841	107662	0	0	8341	565709	0	0
2024-05-20 18:20:32			0	38022	0	0	0	20888	19530	132527	27353	981829	39830	107657	0	0	8340	566382	0	0
2024-05-20 18:21:32			0	38046	0	0	0	20893	19530	132528	27142	981837	39840	107659	0	0	8341	565419	0	0
2024-05-20 18:22:32			0	38029	0	0	0	20890	19540	132575	27305	981845	39819	107658	0	0	8341	566070	0	0
2024-05-20 18:23:32			0	38017	0	0	0	20888	19520	132595	27107	981741	39829	107657	0	0	8340	566614	0	0
2024-05-20 18:24:32			0	38035	0	0	0	20883	19520	132644	27097	981786	39839	107655	0	0	8341	565892	0	0
2024-05-20 18:25:32			0	38042	0	0	0	20883	19520	132608	26982	981786	39829	107655	0	0	8341	565611	0	0
2024-05-20 18:26:32			0	38009	0	0	0	20883	19510	132599	27116	981724	39849	107655	0	0	8340	566966	0	0
2024-05-20 18:27:32			0	38015	0	0	0	20870	19510	132631	26805	981689	39828	107650	0	0	8340	566726	0	0
2024-05-20 18:28:32			0	38011	0	0	0	20864	19500	132591	27041	981681	39848	107648	0	0	8340	566917	0	0
2024-05-20 18:29:32			0	38006	0	0	0	20864	19500	132675	27147	981655	39837	107648	0	0	8340	567118	0	0
2024-05-20 18:30:32			0	38027	0	0	0	20859	19500	132655	27256	981673	39827	107646	0	0	8341	566275	0	0
2024-05-20 18:31:32			0	38001	0	0	0	20854	19480	132627	27607	981674	39825	107644	0	0	8339	567381	0	0
2024-05-20 18:32:32			0	38005	0	0	0	20846	19470	132651	26968	981605	39835	107641	0	0	8340	567252	0	0
2024-05-20 18:33:32			0	38011	0	0	0	20838	19480	132763	27294	981568	39847	107638	0	0	8340	566980	0	0
2024-05-20 18:34:32			0	38030	0	0	0	20841	19480	132660	27013	981533	39824	107639	0	0	8341	566217	0	0
2024-05-20 18:35:32			0	38008	0	0	0	20831	19470	132727	27298	981463	39824	107635	0	0	8340	567131	0	0
2024-05-20 18:36:32			0	38008	0	0	0	20836	19470	132735	27341	981569	39824	107637	0	0	8340	567131	0	0
2024-05-20 18:37:32			0	38006	0	0	0	20828	19460	132667	26876	981473	39823	107634	0	0	8340	567243	0	0
2024-05-20 18:38:32			0	38006	0	0	0	20828	19460	132791	27312	981500	39823	107634	0	0	8340	567243	0	0
2024-05-20 18:39:32			0	37995	0	0	0	20825	19460	132739	27405	981508	39824	107633	0	0	8340	567685	0	0
2024-05-20 18:40:32			0	37994	0	0	0	20825	19450	132803	27189	981483	39822	107633	0	0	8339	567756	0	0
2024-05-20 18:41:32			0	37980	0	0	0	20825	19450	132859	27060	981563	39833	107633	0	0	8339	568319	0	0
2024-05-20 18:42:32			0	37987	0	0	0	20820	19450	132747	27384	981491	39811	107631	0	0	8339	568038	0	0
2024-05-20 18:43:32			0	37984	0	0	0	20818	19450	132767	27199	981438	39823	107630	0	0	8339	568158	0	0
2024-05-20 18:44:32			0	37973	0	0	0	20818	19440	132839	27111	981475	39822	107630	0	0	8338	568632	0	0
2024-05-20 18:45:32			0	37964	0	0	0	20807	19440	132763	27343	981475	39833	107626	0	0	8338	568994	0	0
2024-05-20 18:46:32			0	37973	0	0	0	20807	19450	132819	27135	981430	39833	107626	0	0	8339	568601	0	0
2024-05-20 18:47:32			0	37962	0	0	0	20805	19430	132875	27358	981423	39820	107625	0	0	8338	569106	0	0
2024-05-20 18:48:32			0	37971	0	0	0	20805	19430	132791	27074	981450	39841	107625	0	0	8339	568744	0	0
2024-05-20 18:49:32			0	37975	0	0	0	20799	19430	132903	27267	981405	39832	107623	0	0	8339	568583	0	0
2024-05-20 18:50:32			0	37947	0	0	0	20792	19420	132867	27261	981388	39820	107620	0	0	8337	569742	0	0
2024-05-20 18:51:32			0	37949	0	0	0	20786	19430	132811	27461	981370	39820	107618	0	0	8338	569630	0	0
2024-05-20 18:52:32			0	37985	0	0	0	20786	19430	132863	27124	981370	39841	107618	0	0	8340	568181	0	0
2024-05-20 18:53:32			0	37949	0	0	0	20784	19420	132731	26996	981335	39841	107617	0	0	8338	569661	0	0
2024-05-20 18:54:32			0	37993	0	0	0	20776	19420	132807	27038	981301	39819	107614	0	0	8340	567890	0	0
2024-05-20 18:55:32			0	37968	0	0	0	20776	19420	132851	26852	981388	39820	107614	0	0	8339	568896	0	0
2024-05-20 18:56:32			0	37971	0	0	0	20779	19410	132883	27305	981284	39830	107615	0	0	8339	568806	0	0
2024-05-20 18:57:32			0	37972	0	0	0	20781	19400	132919	27199	981276	39818	107616	0	0	8339	568797	0	0
2024-05-20 18:58:32			0	37972	0	0	0	20779	19410	133039	27052	981284	39830	107615	0	0	8339	568766	0	0
2024-05-20 18:59:32			0	37977	0	0	0	20768	19400	132863	27348	981223	39840	107611	0	0	8339	568596	0	0
2024-05-20 19:00:32			0	37959	0	0	0	20779	19410	132923	27003	981257	39818	107615	0	0	8338	569290	0	0
2024-05-20 19:01:32			0	37975	0	0	0	20776	19400	132835	27410	981329	39818	107614	0	0	8339	568677	0	0
2024-05-20 19:02:32			0	37979	0	0	0	20768	19400	132867	27277	981267	39817	107611	0	0	8339	568516	0	0
2024-05-20 19:03:32			0	37972	0	0	0	20771	19400	132867	27140	981267	39817	107612	0	0	8339	568797	0	0
2024-05-20 19:04:32			0	37977	0	0	0	20771	19410	132875	27019	981284	39830	107612	0	0	8339	568565	0	0
2024-05-20 19:05:32			0	37968	0	0	0	20776	19390	132899	27391	981259	39817	107614	0	0	8339	568990	0	0
2024-05-20 19:06:32			0	37966	0	0	0	20779	19380	132903	27268	981269	39828	107615	0	0	8338	569101	0	0
2024-05-20 19:07:32			0	37969	0	0	0	20768	19390	132915	27436	981286	39817	107611	0	0	8339	568949	0	0
2024-05-20 19:08:32			0	37988	0	0	0	20771	19390	132875	27121	981251	39828	107612	0	0	8340	568185	0	0
2024-05-20 19:09:32			0	37975	0	0	0	20779	19400	132899	27121	981320	39829	107615	0	0	8339	568677	0	0
2024-05-20 19:10:32			0	37972	0	0	0	20786	19400	132903	27171	981347	39817	107618	0	0	8339	568797	0	0
2024-05-20 19:11:32			0	37972	0	0	0	20792	19400	132891	27086	981320	39839	107620	0	0	8339	568797	0	0
2024-05-20 19:12:32			0	37969	0	0	0	20799	19410	132939	27156	981337	39840	107623	0	0	8338	568887	0	0
2024-05-20 19:13:32			0	37933	0	0	0	20807	19400	132939	27206	981355	39851	107626	0	0	8336	570369	0	0
2024-05-20 19:14:32			0	37965	0	0	0	20805	19410	132939	26880	981363	39830	107625	0	0	8338	569048	0	0
2024-05-20 19:15:32			0	37972	0	0	0	20797	19400	132859	26986	981302	39818	107622	0	0	8339	568797	0	0
2024-05-20 19:16:32			0	37966	0	0	0	20794	19400	132903	27270	981355	39818	107621	0	0	8338	569039	0	0
2024-05-20 19:17:32			0	37967	0	0	0	20794	19390	132887	26838	981312	39828	107621	0	0	8338	569030	0	0
2024-05-20 19:18:32			0	37982	0	0	0	20794	19400	132911	26866	981302	39830	107621	0	0	8339	568395	0	0
2024-05-20 19:19:32			0	37966	0	0	0	20797	19400	132867	27300	981355	39830	107622	0	0	8338	569039	0	0
2024-05-20 19:20:32			0	37965	0	0	0	20797	19390	132879	27064	981286	39838	107622	0	0	8338	569110	0	0
2024-05-20 19:21:32			0	37964	0	0	0	20799	19400	132875	27310	981294	39829	107623	0	0	8338	569119	0	0
2024-05-20 19:22:32			0	37998	0	0	0	20794	19410	132839	27171	981363	39830	107621	0	0	8340	567720	0	0
2024-05-20 19:23:32			0	37973	0	0	0	20802	19400	132787	27213	981329	39840	107624	0	0	8339	568757	0	0
2024-05-20 19:24:32			0	37988	0	0	0	20802	19410	132975	27307	981390	39818	107624	0	0	8339	568122	0	0
2024-05-20 19:25:32			0	37994	0	0	0	20789	19400	132855	26908	981276	39818	107619	0	0	8340	567912	0	0
2024-05-20 19:26:32			0	37990	0	0	0	20789	19390	132871	27072	981277	39817	107619	0	0	8340	568104	0	0
2024-05-20 19:27:32			0	38001	0	0	0	20774	19400	132767	27083	981276	39818	107613	0	0	8340	567631	0	0
2024-05-20 19:28:32			0	38018	0	0	0	20774	19400	132763	27364	981294	39829	107613	0	0	8341	566948	0	0
2024-05-20 19:29:32			0	38020	0	0	0	20771	19390	132719	27201	981277	39817	107612	0	0	8341	566899	0	0
2024-05-20 19:30:32			0	38002	0	0	0	20774	19390	132823	27258	981224	39817	107613	0	0	8341	567622	0	0
2024-05-20 19:31:32			0	38017	0	0	0	20766	19390	132799	27227	981251	39828	107610	0	0	8341	567019	0	0
2024-05-20 19:32:32			0	38020	0	0	0	20753	19380	132699	27345	981269	39817	107605	0	0	8342	566930	0	0
2024-05-20 19:33:32			0	38040	0	0	0	20748	19380	132632	27367	981101	39837	107603	0	0	8343	566127	0	0
2024-05-20 19:34:32			0	38061	0	0	0	20745	19360	132620	27168	981164	39836	107602	0	0	8344	565346	0	0
2024-05-20 19:35:32			0	38050	0	0	0	20740	19380	132624	27178	981181	39805	107600	0	0	8344	565726	0	0
2024-05-20 19:36:32			0	38051	0	0	0	20732	19370	132604	27440	981146	39804	107597	0	0	8344	565716	0	0
2024-05-20 19:37:32			0	38078	0	0	0	20735	19360	132620	27718	981164	39815	107598	0	0	8345	564665	0	0
2024-05-20 19:38:32			0	38055	0	0	0	20729	19360	132588	27286	981156	39814	107596	0	0	8344	565587	0	0
2024-05-20 19:39:32			0	38079	0	0	0	20724	19360	132572	27092	981103	39814	107594	0	0	8345	564625	0	0
2024-05-20 19:40:32			0	38072	0	0	0	20711	19360	132436	26934	981077	39814	107589	0	0	8345	564906	0	0
2024-05-20 19:41:32			0	38082	0	0	0	20711	19360	132488	27355	981050	39814	107589	0	0	8346	564505	0	0
2024-05-20 19:42:32			0	38095	0	0	0	20711	19340	132492	26934	981131	39823	107589	0	0	8346	564046	0	0
2024-05-20 19:43:32			0	38084	0	0	0	20706	19330	132524	26750	981061	39812	107587	0	0	8346	564518	0	0
2024-05-20 19:44:32			0	38072	0	0	0	20709	19350	132416	26734	981033	39802	107588	0	0	8345	564937	0	0
2024-05-20 19:45:32			0	38099	0	0	0	20706	19350	132400	27111	981060	39834	107587	0	0	8347	563855	0	0
2024-05-20 19:46:32			0	38101	0	0	0	20703	19340	132440	26922	981069	39834	107586	0	0	8347	563806	0	0
2024-05-20 19:47:32			0	38091	0	0	0	20706	19340	132416	27066	980990	39823	107587	0	0	8346	564206	0	0
2024-05-20 19:48:32			0	38102	0	0	0	20714	19340	132444	26783	981016	39823	107590	0	0	8347	563766	0	0
2024-05-20 19:49:32			0	38111	0	0	0	20709	19340	132448	27121	981016	39812	107588	0	0	8347	563405	0	0
2024-05-20 19:50:32			0	38117	0	0	0	20709	19330	132536	26764	981035	39823	107588	0	0	8347	563196	0	0
2024-05-20 19:51:32			0	38132	0	0	0	20703	19340	132436	27057	981043	39823	107586	0	0	8348	562566	0	0
2024-05-20 19:52:32			0	38126	0	0	0	20703	19330	132456	27149	981035	39801	107586	0	0	8348	562836	0	0
2024-05-20 19:53:32			0	38108	0	0	0	20719	19340	132432	26911	981016	39823	107592	0	0	8347	563526	0	0
2024-05-20 19:54:32			0	38104	0	0	0	20729	19340	132392	27060	981131	39812	107596	0	0	8346	563686	0	0
2024-05-20 19:55:32			0	38119	0	0	0	20740	19340	132404	27232	981175	39834	107600	0	0	8347	563085	0	0
2024-05-20 19:56:32			0	38113	0	0	0	20766	19340	132496	27185	981184	39823	107610	0	0	8346	563326	0	0
2024-05-20 19:57:32			0	38096	0	0	0	20784	19360	132488	27173	981289	39847	107617	0	0	8345	563944	0	0
2024-05-20 19:58:32			0	38082	0	0	0	20807	19380	132544	27452	981367	39837	107626	0	0	8344	564443	0	0
2024-05-20 19:59:32			0	38067	0	0	0	20831	19400	132640	27287	981461	39851	107635	0	0	8343	564982	0	0
2024-05-20 20:00:32			0	38078	0	0	0	20859	19410	132612	27331	981557	39851	107646	0	0	8343	564510	0	0
2024-05-20 20:01:32			0	38066	0	0	0	20875	19440	132588	27027	981652	39854	107652	0	0	8342	564897	0	0
2024-05-20 20:02:32			0	38065	0	0	0	20916	19450	132480	27237	981783	39867	107668	0	0	8342	564907	0	0
2024-05-20 20:03:32			0	38058	0	0	0	20940	19470	132604	26951	981835	39856	107677	0	0	8341	565125	0	0
2024-05-20 20:04:32			0	38071	0	0	0	20950	19490	132612	27239	981974	39848	107681	0	0	8342	564542	0	0
2024-05-20 20:05:32			0	38039	0	0	0	21005	19500	132504	27253	982026	39860	107702	0	0	8339	565793	0	0
2024-05-20 20:06:32			0	38037	0	0	0	21033	19530	132584	27019	982173	39851	107713	0	0	8339	565780	0	0
2024-05-20 20:07:32			0	38030	0	0	0	21062	19550	132572	27343	982181	39864	107724	0	0	8338	565999	0	0
2024-05-20 20:08:32			0	38017	0	0	0	21111	19550	132727	27152	982295	39864	107743	0	0	8336	566521	0	0
2024-05-20 20:09:32			0	38015	0	0	0	21122	19570	132707	27171	982408	39877	107747	0	0	8336	566539	0	0
2024-05-20 20:10:32			0	37983	0	0	0	21119	19590	132799	27150	982468	39868	107746	0	0	8334	567761	0	0
2024-05-20 20:11:32			0	37979	0	0	0	21116	19600	132855	27306	982485	39869	107745	0	0	8334	567891	0	0
2024-05-20 20:12:32			0	37937	0	0	0	21111	19620	132847	27388	982457	39880	107743	0	0	8332	569518	0	0
2024-05-20 20:13:32			0	37957	0	0	0	21106	19620	132911	27410	982465	39881	107741	0	0	8333	568713	0	0
2024-05-20 20:14:32			0	37931	0	0	0	21090	19630	132939	27400	982482	39882	107735	0	0	8332	569728	0	0
2024-05-20 20:15:32			0	37883	0	0	0	21090	19630	133119	27471	982473	39872	107735	0	0	8330	571664	0	0
2024-05-20 20:16:32			0	37881	0	0	0	21083	19640	133143	27170	982437	39882	107732	0	0	8330	571713	0	0
2024-05-20 20:17:32			0	37841	0	0	0	21080	19640	133195	27102	982464	39849	107731	0	0	8328	573329	0	0
2024-05-20 20:18:32			0	37817	0	0	0	21067	19630	133311	27260	982349	39849	107726	0	0	8327	574331	0	0
2024-05-20 20:19:32			0	37800	0	0	0	21070	19640	133419	27332	982384	39861	107727	0	0	8326	574988	0	0
2024-05-20 20:20:32			0	37791	0	0	0	21062	19640	133387	27421	982445	39873	107724	0	0	8326	575353	0	0
2024-05-20 20:21:32			0	37776	0	0	0	21049	19630	133527	27376	982323	39849	107719	0	0	8325	575993	0	0
2024-05-20 20:22:32			0	37754	0	0	0	21059	19630	133543	27320	982402	39861	107723	0	0	8324	576885	0	0
2024-05-20 20:23:32			0	37741	0	0	0	21041	19640	133623	27249	982419	39873	107716	0	0	8323	577381	0	0
2024-05-20 20:24:32			0	37694	0	0	0	21049	19640	133671	27175	982525	39883	107719	0	0	8321	579292	0	0
2024-05-20 20:25:32			0	37701	0	0	0	21062	19650	133791	27232	982507	39851	107724	0	0	8321	578976	0	0
2024-05-20 20:26:32			0	37695	0	0	0	21051	19650	133823	27457	982489	39863	107720	0	0	8321	579220	0	0
2024-05-20 20:27:32			0	37678	0	0	0	21064	19650	133819	27102	982480	39863	107725	0	0	8320	579912	0	0
2024-05-20 20:28:32			0	37644	0	0	0	21062	19660	133883	27147	982497	39874	107724	0	0	8318	581266	0	0
2024-05-20 20:29:32			0	37644	0	0	0	21064	19650	133819	26968	982462	39863	107725	0	0	8318	581298	0	0
2024-05-20 20:30:32			0	37648	0	0	0	21070	19650	133887	27248	982489	39863	107727	0	0	8318	581135	0	0
2024-05-20 20:31:32			0	37651	0	0	0	21070	19670	133827	27145	982479	39875	107727	0	0	8318	580948	0	0
2024-05-20 20:32:32			0	37637	0	0	0	21077	19650	133847	27201	982480	39863	107730	0	0	8317	581583	0	0
2024-05-20 20:33:32			0	37654	0	0	0	21080	19670	133867	27261	982540	39875	107731	0	0	8318	580826	0	0
2024-05-20 20:34:32			0	37659	0	0	0	21080	19660	133879	27251	982497	39884	107731	0	0	8318	580654	0	0
2024-05-20 20:35:32			0	37657	0	0	0	21075	19670	133815	27310	982505	39875	107729	0	0	8319	580704	0	0
2024-05-20 20:36:32			0	37659	0	0	0	21077	19660	133775	27518	982523	39874	107730	0	0	8319	580654	0	0
2024-05-20 20:37:32			0	37678	0	0	0	21077	19670	133851	27286	982532	39875	107730	0	0	8320	579848	0	0
2024-05-20 20:38:32			0	37694	0	0	0	21077	19670	133795	27185	982532	39885	107730	0	0	8320	579197	0	0
2024-05-20 20:39:32			0	37699	0	0	0	21080	19660	133719	27350	982497	39863	107731	0	0	8321	579025	0	0
2024-05-20 20:40:32			0	37706	0	0	0	21075	19660	133631	27460	982470	39874	107729	0	0	8321	578740	0	0
2024-05-20 20:41:32			0	37706	0	0	0	21093	19670	133619	27279	982540	39875	107736	0	0	8321	578708	0	0
2024-05-20 20:42:32			0	37705	0	0	0	21122	19670	133567	27303	982532	39885	107747	0	0	8320	578749	0	0
2024-05-20 20:43:32			0	37710	0	0	0	21142	19680	133623	27048	982601	39865	107755	0	0	8320	578514	0	0
2024-05-20 20:44:32			0	37706	0	0	0	21168	19670	133691	27253	982699	39875	107765	0	0	8319	578708	0	0
2024-05-20 20:45:32			0	37722	0	0	0	21174	19700	133679	27433	982776	39888	107767	0	0	8320	577962	0	0
2024-05-20 20:46:32			0	37723	0	0	0	21218	19710	133603	27144	982864	39888	107784	0	0	8320	577890	0	0
2024-05-20 20:47:32			0	37738	0	0	0	21231	19720	133547	27005	982960	39890	107789	0	0	8320	577249	0	0
2024-05-20 20:48:32			0	37770	0	0	0	21238	19720	133499	27313	982969	39923	107792	0	0	8322	575951	0	0
2024-05-20 20:49:32			0	37782	0	0	0	21264	19740	133415	27135	983153	39914	107802	0	0	8322	575401	0	0
2024-05-20 20:50:32			0	37799	0	0	0	21296	19760	133371	27249	983168	39916	107814	0	0	8323	574649	0	0
2024-05-20 20:51:32			0	37810	0	0	0	21329	19790	133199	27142	983342	39918	107827	0	0	8323	574109	0	0
2024-05-20 20:52:32			0	37816	0	0	0	21353	19800	133171	27163	983359	39918	107836	0	0	8323	573834	0	0
2024-05-20 20:53:32			0	37850	0	0	0	21392	19810	133087	26908	983437	39910	107851	0	0	8324	572429	0	0
2024-05-20 20:54:32			0	37879	0	0	0	21405	19840	133091	27255	983558	39933	107856	0	0	8325	571164	0	0
2024-05-20 20:55:32			0	37909	0	0	0	21415	19850	132931	27078	983610	39924	107860	0	0	8327	569924	0	0
2024-05-20 20:56:32			0	37934	0	0	0	21428	19880	132811	27687	983705	39916	107865	0	0	8328	568824	0	0
2024-05-20 20:57:32			0	37971	0	0	0	21438	19890	132671	27301	983783	39939	107869	0	0	8330	567306	0	0
2024-05-20 20:58:32			0	37984	0	0	0	21454	19920	132591	27298	983851	39941	107875	0	0	8330	566690	0	0
2024-05-20 20:59:32			0	37989	0	0	0	21459	19930	132567	27488	983903	39943	107877	0	0	8330	566459	0	0
2024-05-20 21:00:32			0	37983	0	0	0	21462	19940	132639	27194	983938	39932	107878	0	0	8330	566668	0	0
2024-05-20 21:01:32			0	37988	0	0	0	21467	19950	132623	27097	983981	39932	107880	0	0	8330	566436	0	0
2024-05-20 21:02:32			0	37964	0	0	0	21462	19970	132587	26878	983979	39934	107878	0	0	8329	567337	0	0
2024-05-20 21:03:32			0	37967	0	0	0	21470	19990	132699	27239	984040	39936	107881	0	0	8329	567154	0	0
2024-05-20 21:04:32			0	37933	0	0	0	21475	19990	132691	27067	983995	39925	107883	0	0	8327	568519	0	0
2024-05-20 21:05:32			0	37919	0	0	0	21467	19990	132711	27182	984040	39925	107880	0	0	8327	569082	0	0
2024-05-20 21:06:32			0	37920	0	0	0	21480	20000	132847	27353	984065	39926	107885	0	0	8327	569011	0	0
2024-05-20 21:07:32			0	37883	0	0	0	21472	20000	132831	27355	984083	39926	107882	0	0	8325	570500	0	0
2024-05-20 21:08:32			0	37906	0	0	0	21483	20010	132867	27433	984073	39938	107886	0	0	8326	569542	0	0
2024-05-20 21:09:32			0	37860	0	0	0	21464	20000	132863	27504	984065	39926	107879	0	0	8324	571426	0	0
2024-05-20 21:10:32			0	37867	0	0	0	21457	20000	132947	27256	984065	39926	107876	0	0	8324	571144	0	0
2024-05-20 21:11:32			0	37852	0	0	0	21449	20010	133003	27239	984002	39916	107873	0	0	8324	571718	0	0
2024-05-20 21:12:32			0	37833	0	0	0	21433	20010	132971	27301	984020	39926	107867	0	0	8323	572484	0	0
2024-05-20 21:13:32			0	37822	0	0	0	21425	20000	133059	27414	984038	39949	107864	0	0	8323	572960	0	0
2024-05-20 21:14:32			0	37819	0	0	0	21425	20000	133099	26986	984091	39926	107864	0	0	8322	573081	0	0
2024-05-20 21:15:32			0	37819	0	0	0	21428	20010	133087	27281	984046	39926	107865	0	0	8322	573050	0	0
2024-05-20 21:16:32			0	37800	0	0	0	21423	20010	133103	27234	984046	39926	107863	0	0	8322	573817	0	0
2024-05-20 21:17:32			0	37824	0	0	0	21423	20010	133063	27263	984028	39939	107863	0	0	8323	572848	0	0
2024-05-20 21:18:32			0	37831	0	0	0	21410	20010	133075	27367	983993	39938	107858	0	0	8323	572565	0	0
2024-05-20 21:19:32			0	37828	0	0	0	21410	20010	133015	27159	984081	39927	107858	0	0	8323	572686	0	0
2024-05-20 21:20:32			0	37805	0	0	0	21415	20030	133043	27029	984106	39928	107860	0	0	8322	573552	0	0
2024-05-20 21:21:32			0	37832	0	0	0	21405	20010	133027	27232	984002	39927	107856	0	0	8323	572525	0	0
2024-05-20 21:22:32			0	37822	0	0	0	21410	20010	133059	26991	983993	39926	107858	0	0	8323	572928	0	0
2024-05-20 21:23:32			0	37816	0	0	0	21392	20020	132975	27367	984037	39916	107851	0	0	8323	573139	0	0
2024-05-20 21:24:32			0	37817	0	0	0	21386	20010	133063	27060	984020	39916	107849	0	0	8323	573130	0	0
2024-05-20 21:25:32			0	37835	0	0	0	21386	20010	133087	27067	983967	39916	107849	0	0	8324	572404	0	0
2024-05-20 21:26:32			0	37849	0	0	0	21374	20010	132995	27305	984028	39906	107844	0	0	8325	571839	0	0
2024-05-20 21:27:32			0	37844	0	0	0	21386	20010	132979	27218	984046	39926	107849	0	0	8324	572040	0	0
2024-05-20 21:28:32			0	37862	0	0	0	21389	20020	133007	27381	984063	39927	107850	0	0	8325	571283	0	0
2024-05-20 21:29:32			0	37837	0	0	0	21410	20010	132927	27526	984028	39927	107858	0	0	8324	572323	0	0
2024-05-20 21:30:32			0	37847	0	0	0	21412	20020	133019	27208	984090	39927	107859	0	0	8324	571888	0	0
2024-05-20 21:31:32			0	37849	0	0	0	21428	20020	132899	27161	984037	39927	107865	0	0	8324	571807	0	0
2024-05-20 21:32:32			0	37851	0	0	0	21433	20030	132871	27026	984080	39928	107867	0	0	8324	571695	0	0
2024-05-20 21:33:32			0	37863	0	0	0	21420	20020	132855	27163	984063	39927	107862	0	0	8325	571243	0	0
2024-05-20 21:34:32			0	37872	0	0	0	21420	20010	132819	27124	984055	39927	107862	0	0	8325	570911	0	0
2024-05-20 21:35:32			0	37890	0	0	0	21418	20020	132867	27346	984045	39907	107861	0	0	8326	570155	0	0
2024-05-20 21:36:32			0	37879	0	0	0	21425	20020	132887	27350	984098	39939	107864	0	0	8326	570598	0	0
2024-05-20 21:37:32			0	37889	0	0	0	21431	20030	132871	27090	984159	39928	107866	0	0	8326	570164	0	0
2024-05-20 21:38:32			0	37892	0	0	0	21459	20030	132767	27549	984168	39952	107877	0	0	8326	570043	0	0
2024-05-20 21:39:32			0	37889	0	0	0	21459	20030	132803	27052	984168	39929	107877	0	0	8326	570164	0	0
2024-05-20 21:40:32			0	37891	0	0	0	21459	20030	132731	27156	984194	39929	107877	0	0	8326	570083	0	0
2024-05-20 21:41:32			0	37908	0	0	0	21451	20040	132687	26941	984158	39930	107874	0	0	8327	569368	0	0
2024-05-20 21:42:32			0	37940	0	0	0	21444	20030	132655	27163	984186	39928	107871	0	0	8329	568113	0	0
2024-05-20 21:43:32			0	37950	0	0	0	21438	20030	132615	27294	984088	39940	107869	0	0	8329	567711	0	0
2024-05-20 21:44:32			0	37962	0	0	0	21436	20030	132651	27274	984141	39952	107868	0	0	8330	567229	0	0
2024-05-20 21:45:32			0	37972	0	0	0	21431	20030	132547	27422	984168	39918	107866	0	0	8330	566828	0	0
2024-05-20 21:46:32			0	38002	0	0	0	21425	20050	132455	27274	984140	39930	107864	0	0	8332	565563	0	0
2024-05-20 21:47:32			0	37995	0	0	0	21428	20040	132435	27306	984150	39918	107865	0	0	8332	565875	0	0
2024-05-20 21:48:32			0	38011	0	0	0	21433	20030	132399	27187	984115	39940	107867	0	0	8332	565265	0	0
2024-05-20 21:49:32			0	38036	0	0	0	21431	20050	132276	27211	984193	39941	107866	0	0	8334	564202	0	0
2024-05-20 21:50:32			0	38052	0	0	0	21420	20040	132292	27524	984070	39929	107862	0	0	8335	563594	0	0
2024-05-20 21:51:32			0	38055	0	0	0	21392	20020	132228	27152	984045	39928	107851	0	0	8335	563536	0	0
2024-05-20 21:52:32			0	38052	0	0	0	21361	20040	132196	27128	983990	39918	107839	0	0	8336	563594	0	0
2024-05-20 21:53:32			0	38082	0	0	0	21355	20030	132224	27381	984053	39928	107837	0	0	8337	562427	0	0
2024-05-20 21:54:32			0	38086	0	0	0	21353	20010	132128	27218	983967	39916	107836	0	0	8338	562329	0	0
2024-05-20 21:55:32			0	38090	0	0	0	21329	20010	132152	27300	983887	39926	107827	0	0	8338	562169	0	0
2024-05-20 21:56:32			0	38084	0	0	0	21329	20000	132080	27112	983871	39904	107827	0	0	8338	562440	0	0
2024-05-20 21:57:32			0	38078	0	0	0	21332	19990	132072	27208	983889	39936	107828	0	0	8337	562710	0	0
2024-05-20 21:58:32			0	38106	0	0	0	21327	19990	132112	27225	983854	39903	107826	0	0	8339	561593	0	0
2024-05-20 21:59:32			0	38090	0	0	0	21324	19980	132040	27208	983819	39903	107825	0	0	8338	562262	0	0
2024-05-20 22:00:32			0	38107	0	0	0	21324	19980	132160	27275	983819	39914	107825	0	0	8339	561584	0	0
2024-05-20 22:01:32			0	38119	0	0	0	21327	19980	132072	27516	983811	39924	107826	0	0	8340	561106	0	0
2024-05-20 22:02:32			0	38108	0	0	0	21329	19970	132132	27460	983794	39913	107827	0	0	8339	561575	0	0
2024-05-20 22:03:32			0	38112	0	0	0	21327	19970	132068	27535	983776	39913	107826	0	0	8339	561416	0	0
2024-05-20 22:04:32			0	38122	0	0	0	21335	19970	132028	27230	983855	39923	107829	0	0	8340	561017	0	0
2024-05-20 22:05:32			0	38131	0	0	0	21335	19960	132064	27504	983785	39912	107829	0	0	8340	560689	0	0
2024-05-20 22:06:32			0	38106	0	0	0	21348	19960	131996	27031	983891	39922	107834	0	0	8339	561686	0	0
2024-05-20 22:07:32			0	38146	0	0	0	21366	19970	132032	27209	983882	39923	107841	0	0	8340	560061	0	0
2024-05-20 22:08:32			0	38114	0	0	0	21384	19970	132088	27163	983847	39923	107848	0	0	8338	561336	0	0
2024-05-20 22:09:32			0	38132	0	0	0	21394	19970	132052	26998	983847	39913	107852	0	0	8339	560619	0	0
2024-05-20 22:10:32			0	38117	0	0	0	21415	19980	131988	27369	983864	39914	107860	0	0	8338	561185	0	0
2024-05-20 22:11:32			0	38119	0	0	0	21433	19980	132044	27211	983943	39946	107867	0	0	8338	561106	0	0
2024-05-20 22:12:32			0	38130	0	0	0	21459	19990	132024	27234	984048	39925	107877	0	0	8338	560636	0	0
2024-05-20 22:13:32			0	38111	0	0	0	21451	20000	132004	27521	984056	39926	107874	0	0	8337	561363	0	0
2024-05-20 22:14:32			0	38130	0	0	0	21467	19990	131940	27204	984048	39925	107880	0	0	8338	560636	0	0
2024-05-20 22:15:32			0	38137	0	0	0	21480	20010	132060	27255	984134	39939	107885	0	0	8338	560296	0	0
2024-05-20 22:16:32			0	38132	0	0	0	21488	20020	131960	27249	984178	39939	107888	0	0	8338	560464	0	0
2024-05-20 22:17:32			0	38129	0	0	0	21490	20030	132020	27086	984239	39939	107889	0	0	8338	560552	0	0
2024-05-20 22:18:32			0	38156	0	0	0	21493	20040	131944	27001	984282	39940	107890	0	0	8339	559447	0	0
2024-05-20 22:19:32			0	38138	0	0	0	21509	20040	131904	27147	984238	39930	107896	0	0	8338	560163	0	0
2024-05-20 22:20:32			0	38151	0	0	0	21498	20050	131944	27057	984352	39941	107892	0	0	8339	559615	0	0
2024-05-20 22:21:32			0	38141	0	0	0	21506	20050	131932	26975	984281	39942	107895	0	0	8338	560013	0	0
2024-05-20 22:22:32			0	38146	0	0	0	21503	20060	131900	27138	984316	39942	107894	0	0	8338	559783	0	0
2024-05-20 22:23:32			0	38163	0	0	0	21509	20060	131964	27183	984324	39943	107896	0	0	8339	559107	0	0
2024-05-20 22:24:32			0	38159	0	0	0	21511	20070	131964	27377	984306	39944	107897	0	0	8339	559235	0	0
2024-05-20 22:25:32			0	38162	0	0	0	21514	20070	131940	27268	984359	39944	107898	0	0	8339	559116	0	0
2024-05-20 22:26:32			0	38125	0	0	0	21514	20080	131868	27130	984376	39933	107898	0	0	8337	560557	0	0
2024-05-20 22:27:32			0	38147	0	0	0	21522	20070	131824	27078	984394	39955	107901	0	0	8338	559712	0	0
2024-05-20 22:28:32			0	38161	0	0	0	21519	20080	131860	27242	984376	39956	107900	0	0	8339	559125	0	0
2024-05-20 22:29:32			0	38126	0	0	0	21511	20090	131848	27345	984366	39957	107897	0	0	8337	560487	0	0
2024-05-20 22:30:32			0	38134	0	0	0	21503	20090	131876	27396	984419	39946	107894	0	0	8338	560168	0	0
2024-05-20 22:31:32			0	38164	0	0	0	21488	20070	131840	27111	984314	39933	107888	0	0	8340	559036	0	0
2024-05-20 22:32:32			0	38157	0	0	0	21483	20070	131836	27067	984314	39944	107886	0	0	8339	559315	0	0
2024-05-20 22:33:32			0	38151	0	0	0	21467	20060	131748	27173	984271	39943	107880	0	0	8339	559584	0	0
2024-05-20 22:34:32			0	38169	0	0	0	21457	20070	131804	27067	984279	39944	107876	0	0	8340	558838	0	0
2024-05-20 22:35:32			0	38172	0	0	0	21449	20050	131784	26902	984228	39931	107873	0	0	8341	558780	0	0
2024-05-20 22:36:32			0	38159	0	0	0	21446	20060	131732	26981	984236	39920	107872	0	0	8340	559266	0	0
2024-05-20 22:37:32			0	38177	0	0	0	21438	20050	131724	27057	984219	39941	107869	0	0	8341	558581	0	0
2024-05-20 22:38:32			0	38182	0	0	0	21451	20060	131772	27050	984289	39931	107874	0	0	8341	558352	0	0
2024-05-20 22:39:32			0	38172	0	0	0	21449	20050	131776	27443	984254	39931	107873	0	0	8341	558780	0	0
2024-05-20 22:40:32			0	38190	0	0	0	21446	20060	131788	27345	984263	39942	107872	0	0	8342	558034	0	0
2024-05-20 22:41:32			0	38192	0	0	0	21451	20050	131768	27133	984307	39942	107874	0	0	8342	557985	0	0
2024-05-20 22:42:32			0	38206	0	0	0	21459	20050	131824	27168	984254	39942	107877	0	0	8342	557429	0	0
2024-05-20 22:43:32			0	38204	0	0	0	21444	20060	131704	27287	984271	39932	107871	0	0	8342	557478	0	0
2024-05-20 22:44:32			0	38225	0	0	0	21444	20050	131676	27072	984219	39930	107871	0	0	8344	556675	0	0
2024-05-20 22:45:32			0	38236	0	0	0	21446	20050	131616	27274	984246	39941	107872	0	0	8344	556239	0	0
2024-05-20 22:46:32			0	38243	0	0	0	21428	20060	131636	27220	984210	39931	107865	0	0	8345	555931	0	0
2024-05-20 22:47:32			0	38249	0	0	0	21436	20050	131616	26984	984175	39931	107868	0	0	8345	555724	0	0
2024-05-20 22:48:32			0	38257	0	0	0	21423	20040	131548	26993	984176	39918	107863	0	0	8345	555438	0	0
2024-05-20 22:49:32			0	38249	0	0	0	21420	20040	131592	27079	984203	39918	107862	0	0	8345	555755	0	0
2024-05-20 22:50:32			0	38275	0	0	0	21423	20040	131572	26941	984176	39929	107863	0	0	8346	554725	0	0
2024-05-20 22:51:32			0	38234	0	0	0	21423	20040	131596	27209	984150	39929	107863	0	0	8344	556349	0	0
2024-05-20 22:52:32			0	38270	0	0	0	21423	20030	131544	26934	984133	39939	107863	0	0	8346	554954	0	0
2024-05-20 22:53:32			0	38282	0	0	0	21415	20030	131524	27300	984115	39940	107860	0	0	8347	554479	0	0
2024-05-20 22:54:32			0	38276	0	0	0	21425	20030	131464	27168	984141	39940	107864	0	0	8346	554716	0	0
2024-05-20 22:55:32			0	38277	0	0	0	21425	20030	131468	27109	984115	39929	107864	0	0	8346	554677	0	0
2024-05-20 22:56:32			0	38271	0	0	0	21436	20020	131396	27312	984098	39939	107868	0	0	8346	554945	0	0
2024-05-20 22:57:32			0	38265	0	0	0	21425	20040	131468	27303	984150	39940	107864	0	0	8346	555121	0	0
2024-05-20 22:58:32			0	38259	0	0	0	21441	20030	131476	27130	984194	39940	107870	0	0	8345	555389	0	0
2024-05-20 22:59:32			0	38299	0	0	0	21444	20040	131476	27130	984229	39952	107871	0	0	8347	553776	0	0
2024-05-20 23:00:32			0	38319	0	0	0	21451	20020	131472	27138	984231	39928	107874	0	0	8348	553047	0	0
2024-05-20 23:01:32			0	38322	0	0	0	21462	20030	131500	27336	984194	39929	107878	0	0	8348	552898	0	0
2024-05-20 23:02:32			0	38309	0	0	0	21467	20030	131484	27197	984168	39952	107880	0	0	8347	553411	0	0
2024-05-20 23:03:32			0	38326	0	0	0	21475	20040	131384	27078	984229	39929	107883	0	0	8348	552709	0	0
2024-05-20 23:04:32			0	38317	0	0	0	21472	20040	131420	27223	984229	39962	107882	0	0	8348	553065	0	0
2024-05-20 23:05:32			0	38340	0	0	0	21475	20040	131376	27261	984238	39941	107883	0	0	8349	552157	0	0
2024-05-20 23:06:32			0	38330	0	0	0	21470	20050	131336	27327	984246	39930	107881	0	0	8349	552521	0	0
2024-05-20 23:07:32			0	38348	0	0	0	21467	20050	131408	27093	984281	39942	107880	0	0	8350	551811	0	0
2024-05-20 23:08:32			0	38353	0	0	0	21472	20050	131232	26892	984281	39953	107882	0	0	8350	551613	0	0
2024-05-20 23:09:32			0	38363	0	0	0	21480	20060	131200	27343	984351	39943	107885	0	0	8350	551189	0	0
2024-05-20 23:10:32			0	38374	0	0	0	21501	20070	131288	27092	984359	39955	107893	0	0	8350	550725	0	0
2024-05-20 23:11:32			0	38387	0	0	0	21509	20070	131296	27374	984385	39944	107896	0	0	8351	550213	0	0
2024-05-20 23:12:32			0	38375	0	0	0	21516	20070	131200	26863	984394	39933	107899	0	0	8350	550686	0	0
2024-05-20 23:13:32			0	38413	0	0	0	21522	20080	131140	27144	984517	39956	107901	0	0	8352	549160	0	0
2024-05-20 23:14:32			0	38430	0	0	0	21522	20080	131176	27152	984464	39945	107901	0	0	8353	548491	0	0
2024-05-20 23:15:32			0	38422	0	0	0	21529	20080	131076	27396	984508	39922	107904	0	0	8352	548806	0	0
2024-05-20 23:16:32			0	38454	0	0	0	21535	20090	130924	27066	984560	39934	107906	0	0	8354	547519	0	0
2024-05-20 23:17:32			0	38448	0	0	0	21537	20090	130840	27334	984525	39934	107907	0	0	8354	547754	0	0
2024-05-20 23:18:32			0	38476	0	0	0	21542	20100	130908	27202	984630	39946	107909	0	0	8355	546625	0	0
2024-05-20 23:19:32			0	38481	0	0	0	21532	20110	130764	27431	984559	39936	107905	0	0	8356	546399	0	0
2024-05-20 23:20:32			0	38524	0	0	0	21537	20100	130624	27072	984524	39958	107907	0	0	8358	544745	0	0
2024-05-20 23:21:32			0	38525	0	0	0	21535	20110	130608	27457	984594	39947	107906	0	0	8358	544676	0	0
2024-05-20 23:22:32			0	38559	0	0	0	21532	20110	130548	27164	984559	39969	107905	0	0	8360	543347	0	0
2024-05-20 23:23:32			0	38587	0	0	0	21532	20110	130492	27216	984612	39936	107905	0	0	8361	542253	0	0
2024-05-20 23:24:32			0	38611	0	0	0	21529	20100	130424	27274	984577	39935	107904	0	0	8362	541347	0	0
2024-05-20 23:25:32			0	38626	0	0	0	21519	20110	130356	27220	984532	39947	107900	0	0	8363	540733	0	0
2024-05-20 23:26:32			0	38639	0	0	0	21524	20110	130220	27203	984567	39947	107902	0	0	8364	540227	0	0
2024-05-20 23:27:32			0	38638	0	0	0	21522	20100	130208	27078	984550	39935	107901	0	0	8364	540296	0	0
2024-05-20 23:28:32			0	38642	0	0	0	21519	20110	130232	27059	984559	39958	107900	0	0	8364	540110	0	0
2024-05-20 23:29:32			0	38665	0	0	0	21522	20110	130304	26946	984541	39936	107901	0	0	8365	539215	0	0
2024-05-20 23:30:32			0	38659	0	0	0	21503	20100	130252	27284	984542	39946	107894	0	0	8365	539478	0	0
2024-05-20 23:31:32			0	38664	0	0	0	21503	20100	130220	27104	984524	39946	107894	0	0	8366	539284	0	0
2024-05-20 23:32:32			0	38659	0	0	0	21498	20100	130248	27258	984444	39946	107892	0	0	8365	539478	0	0
2024-05-20 23:33:32			0	38658	0	0	0	21501	20090	130308	27246	984560	39946	107893	0	0	8365	539547	0	0
2024-05-20 23:34:32			0	38663	0	0	0	21498	20090	130172	27211	984481	39934	107892	0	0	8366	539353	0	0
2024-05-20 23:35:32			0	38654	0	0	0	21498	20100	130192	27383	984444	39958	107892	0	0	8365	539673	0	0
2024-05-20 23:36:32			0	38651	0	0	0	21501	20100	130252	27270	984462	39935	107893	0	0	8365	539790	0	0
2024-05-20 23:37:32			0	38667	0	0	0	21498	20110	130232	27256	984559	39947	107892	0	0	8366	539138	0	0
2024-05-20 23:38:32			0	38660	0	0	0	21503	20090	130228	27312	984507	39934	107894	0	0	8365	539469	0	0
2024-05-20 23:39:32			0	38654	0	0	0	21498	20090	130148	27015	984507	39934	107892	0	0	8365	539703	0	0
2024-05-20 23:40:32			0	38681	0	0	0	21501	20100	130176	27383	984444	39935	107893	0	0	8366	538623	0	0
2024-05-20 23:41:32			0	38658	0	0	0	21506	20090	130160	26994	984507	39934	107895	0	0	8365	539547	0	0
2024-05-20 23:42:32			0	38666	0	0	0	21496	20100	130144	27010	984524	39935	107891	0	0	8366	539206	0	0
2024-05-20 23:43:32			0	38678	0	0	0	21490	20100	130172	27303	984489	39935	107889	0	0	8367	538740	0	0
2024-05-20 23:44:32			0	38672	0	0	0	21490	20100	130168	27237	984462	39935	107889	0	0	8366	538973	0	0
2024-05-20 23:45:32			0	38676	0	0	0	21480	20080	130132	27104	984331	39933	107885	0	0	8367	538877	0	0
2024-05-20 23:46:32			0	38675	0	0	0	21454	20080	130188	26811	984251	39933	107875	0	0	8367	538916	0	0
2024-05-20 23:47:32			0	38678	0	0	0	21444	20070	130192	27291	984288	39933	107871	0	0	8367	538829	0	0
2024-05-20 23:48:32			0	38690	0	0	0	21433	20070	130056	26946	984306	39921	107867	0	0	8368	538363	0	0
2024-05-20 23:49:32			0	38670	0	0	0	21423	20070	130104	27253	984253	39933	107863	0	0	8367	539140	0	0
2024-05-20 23:50:32			0	38687	0	0	0	21420	20060	130084	27130	984244	39932	107862	0	0	8368	538509	0	0
2024-05-20 23:51:32			0	38679	0	0	0	21405	20050	130084	27067	984148	39931	107856	0	0	8368	538849	0	0
2024-05-20 23:52:32			0	38701	0	0	0	21407	20050	130140	27265	984219	39919	107857	0	0	8369	537995	0	0
2024-05-20 23:53:32			0	38690	0	0	0	21407	20050	130092	27204	984193	39930	107857	0	0	8368	538422	0	0
2024-05-20 23:54:32			0	38704	0	0	0	21407	20040	130108	27112	984238	39930	107857	0	0	8369	537908	0	0
2024-05-20 23:55:32			0	38688	0	0	0	21407	20050	130116	27183	984246	39930	107857	0	0	8368	538500	0	0
2024-05-20 23:56:32			0	38679	0	0	0	21407	20040	130032	27301	984229	39929	107857	0	0	8368	538879	0	0
2024-05-20 23:57:32			0	38693	0	0	0	21412	20040	130008	27353	984203	39940	107859	0	0	8368	538335	0	0
2024-05-20 23:58:32			0	38704	0	0	0	21418	20040	130080	27343	984238	39952	107861	0	0	8369	537908	0	0
2024-05-20 23:59:32			0	38704	0	0	0	21428	20040	130084	27013	984238	39941	107865	0	0	8369	537908	0	0
2024-05-21 00:00:32			0	38673	0	0	0	21433	20040	130120	27159	984264	39941	107867	0	0	8367	539112	0	0
2024-05-21 00:01:32			0	38695	0	0	0	21436	20050	130080	27005	984193	39941	107868	0	0	8368	538228	0	0
2024-05-21 00:02:32			0	38687	0	0	0	21441	20050	130044	26922	984272	39952	107870	0	0	8368	538538	0	0
2024-05-21 00:03:32			0	38685	0	0	0	21449	20040	130124	26878	984291	39941	107873	0	0	8367	538646	0	0
2024-05-21 00:04:32			0	38718	0	0	0	21451	20050	130128	27128	984307	39942	107874	0	0	8369	537335	0	0
2024-05-21 00:05:32			0	38691	0	0	0	21457	20060	130136	27130	984263	39920	107876	0	0	8368	538353	0	0
2024-05-21 00:06:32			0	38705	0	0	0	21459	20060	130184	26875	984324	39932	107877	0	0	8368	537810	0	0
2024-05-21 00:07:32			0	38694	0	0	0	21462	20060	130024	26911	984377	39932	107878	0	0	8368	538237	0	0
2024-05-21 00:08:32			0	38712	0	0	0	21464	20050	130032	27137	984254	39942	107879	0	0	8369	537567	0	0
2024-05-21 00:09:32			0	38686	0	0	0	21457	20050	130128	26908	984352	39930	107876	0	0	8367	538577	0	0
2024-05-21 00:10:32			0	38692	0	0	0	21449	20060	130096	27135	984351	39943	107873	0	0	8368	538314	0	0
2024-05-21 00:11:32			0	38700	0	0	0	21449	20050	130100	27095	984334	39931	107873	0	0	8368	538033	0	0
2024-05-21 00:12:32			0	38699	0	0	0	21451	20050	130016	27109	984299	39930	107874	0	0	8368	538072	0	0
2024-05-21 00:13:32			0	38705	0	0	0	21451	20050	130084	26915	984228	39920	107874	0	0	8368	537839	0	0
2024-05-21 00:14:32			0	38711	0	0	0	21446	20050	130084	27097	984193	39941	107872	0	0	8369	537606	0	0
2024-05-21 00:15:32			0	38679	0	0	0	21451	20050	130092	27142	984299	39930	107874	0	0	8367	538849	0	0
2024-05-21 00:16:32			0	38686	0	0	0	21444	20050	130148	27400	984193	39930	107871	0	0	8368	538577	0	0
2024-05-21 00:17:32			0	38707	0	0	0	21449	20050	130176	27131	984272	39930	107873	0	0	8369	537762	0	0
2024-05-21 00:18:32			0	38721	0	0	0	21438	20050	130104	27142	984272	39930	107869	0	0	8369	537218	0	0
2024-05-21 00:19:32			0	38688	0	0	0	21449	20050	130112	26885	984299	39930	107873	0	0	8368	538500	0	0
2024-05-21 00:20:32			0	38702	0	0	0	21444	20050	130084	27357	984299	39941	107871	0	0	8368	537956	0	0
2024-05-21 00:21:32			0	38716	0	0	0	21446	20040	130184	27189	984291	39930	107872	0	0	8369	537442	0	0
2024-05-21 00:22:32			0	38685	0	0	0	21446	20040	130232	27154	984238	39930	107872	0	0	8367	538646	0	0
2024-05-21 00:23:32			0	38687	0	0	0	21459	20050	130180	27166	984246	39941	107877	0	0	8367	538538	0	0
2024-05-21 00:24:32			0	38688	0	0	0	21446	20040	130152	26764	984282	39940	107872	0	0	8368	538529	0	0
2024-05-21 00:25:32			0	38680	0	0	0	21444	20040	130180	27365	984282	39940	107871	0	0	8367	538840	0	0
2024-05-21 00:26:32			0	38685	0	0	0	21444	20040	130244	27000	984238	39930	107871	0	0	8367	538646	0	0
2024-05-21 00:27:32			0	38693	0	0	0	21454	20040	130272	27170	984264	39941	107875	0	0	8368	538335	0	0
2024-05-21 00:28:32			0	38702	0	0	0	21449	20040	130188	27203	984238	39930	107873	0	0	8368	537985	0	0
2024-05-21 00:29:32			0	38665	0	0	0	21451	20050	130204	27215	984326	39930	107874	0	0	8366	539394	0	0
2024-05-21 00:30:32			0	38660	0	0	0	21454	20050	130244	27156	984379	39941	107875	0	0	8366	539588	0	0
2024-05-21 00:31:32			0	38684	0	0	0	21459	20050	130276	27251	984307	39953	107877	0	0	8367	538655	0	0
2024-05-21 00:32:32			0	38681	0	0	0	21457	20050	130288	27203	984352	39930	107876	0	0	8367	538772	0	0
2024-05-21 00:33:32			0	38643	0	0	0	21459	20050	130240	26873	984307	39953	107877	0	0	8365	540250	0	0
2024-05-21 00:34:32			0	38664	0	0	0	21462	20050	130268	27263	984334	39942	107878	0	0	8366	539433	0	0
2024-05-21 00:35:32			0	38665	0	0	0	21467	20050	130308	26868	984334	39942	107880	0	0	8366	539394	0	0
2024-05-21 00:36:32			0	38659	0	0	0	21462	20050	130340	27277	984281	39953	107878	0	0	8366	539627	0	0
2024-05-21 00:37:32			0	38669	0	0	0	21464	20050	130372	27196	984334	39931	107879	0	0	8366	539238	0	0
2024-05-21 00:38:32			0	38631	0	0	0	21462	20060	130428	27206	984430	39954	107878	0	0	8364	540688	0	0
2024-05-21 00:39:32			0	38646	0	0	0	21467	20070	130428	27137	984359	39944	107880	0	0	8365	540074	0	0
2024-05-21 00:40:32			0	38631	0	0	0	21467	20060	130372	27081	984342	39942	107880	0	0	8364	540688	0	0
2024-05-21 00:41:32			0	38627	0	0	0	21462	20080	130460	26861	984402	39945	107878	0	0	8364	540784	0	0
2024-05-21 00:42:32			0	38616	0	0	0	21467	20070	130352	27131	984385	39933	107880	0	0	8364	541242	0	0
2024-05-21 00:43:32			0	38652	0	0	0	21470	20050	130316	27353	984334	39942	107881	0	0	8365	539900	0	0
2024-05-21 00:44:32			0	38645	0	0	0	21475	20060	130312	27126	984324	39932	107883	0	0	8365	540142	0	0
2024-05-21 00:45:32			0	38650	0	0	0	21467	20050	130368	27242	984334	39942	107880	0	0	8365	539977	0	0
2024-05-21 00:46:32			0	38635	0	0	0	21470	20060	130392	27150	984377	39954	107881	0	0	8364	540532	0	0
2024-05-21 00:47:32			0	38653	0	0	0	21477	20060	130256	26963	984324	39954	107884	0	0	8365	539831	0	0
2024-05-21 00:48:32			0	38636	0	0	0	21477	20060	130244	27116	984377	39943	107884	0	0	8364	540493	0	0
2024-05-21 00:49:32			0	38659	0	0	0	21480	20070	130284	27149	984439	39933	107885	0	0	8366	539568	0	0
2024-05-21 00:50:32			0	38664	0	0	0	21490	20070	130256	27104	984385	39933	107889	0	0	8366	539373	0	0
2024-05-21 00:51:32			0	38669	0	0	0	21477	20060	130228	27230	984457	39932	107884	0	0	8366	539209	0	0
2024-05-21 00:52:32			0	38668	0	0	0	21480	20070	130156	27137	984385	39921	107885	0	0	8366	539218	0	0
2024-05-21 00:53:32			0	38679	0	0	0	21485	20060	130212	27286	984316	39942	107887	0	0	8366	538820	0	0
2024-05-21 00:54:32			0	38664	0	0	0	21475	20070	130196	27173	984465	39944	107883	0	0	8366	539373	0	0
2024-05-21 00:55:32			0	38702	0	0	0	21477	20070	130108	26963	984332	39933	107884	0	0	8368	537896	0	0
2024-05-21 00:56:32			0	38718	0	0	0	21480	20070	130176	27315	984394	39933	107885	0	0	8369	537275	0	0
2024-05-21 00:57:32			0	38704	0	0	0	21480	20070	130052	27244	984394	39933	107885	0	0	8368	537819	0	0
2024-05-21 00:58:32			0	38719	0	0	0	21480	20070	130144	27270	984306	39933	107885	0	0	8369	537236	0	0
2024-05-21 00:59:32			0	38723	0	0	0	21467	20070	130060	27279	984359	39933	107880	0	0	8369	537081	0	0
2024-05-21 01:00:32			0	38720	0	0	0	21472	20060	130100	27211	984457	39954	107882	0	0	8369	537227	0	0
2024-05-21 01:01:32			0	38728	0	0	0	21472	20070	130085	27090	984359	39921	107882	0	0	8369	536887	0	0
2024-05-21 01:02:32			0	38730	0	0	0	21467	20070	130093	27102	984394	39933	107880	0	0	8369	536810	0	0
2024-05-21 01:03:32			0	38711	0	0	0	21457	20070	130052	27346	984332	39944	107876	0	0	8369	537547	0	0
2024-05-21 01:04:32			0	38728	0	0	0	21462	20060	130120	26993	984324	39943	107878	0	0	8369	536917	0	0
2024-05-21 01:05:32			0	38724	0	0	0	21462	20050	130072	27348	984334	39942	107878	0	0	8369	537102	0	0
2024-05-21 01:06:32			0	38719	0	0	0	21462	20060	130072	27086	984351	39932	107878	0	0	8369	537266	0	0
2024-05-21 01:07:32			0	38733	0	0	0	21454	20050	130141	26783	984254	39931	107875	0	0	8370	536753	0	0
2024-05-21 01:08:32			0	38729	0	0	0	21446	20060	130029	27261	984263	39942	107872	0	0	8370	536878	0	0
2024-05-21 01:09:32			0	38726	0	0	0	21444	20050	130068	27237	984219	39930	107871	0	0	8370	537024	0	0
2024-05-21 01:10:32			0	38735	0	0	0	21441	20040	130061	27180	984291	39941	107870	0	0	8370	536705	0	0
2024-05-21 01:11:32			0	38721	0	0	0	21438	20050	130092	27383	984326	39941	107869	0	0	8369	537218	0	0
2024-05-21 01:12:32			0	38715	0	0	0	21449	20050	130024	26974	984246	39930	107873	0	0	8369	537451	0	0
2024-05-21 01:13:32			0	38739	0	0	0	21438	20050	130101	27092	984299	39919	107869	0	0	8370	536520	0	0
2024-05-21 01:14:32			0	38724	0	0	0	21444	20030	129980	27403	984247	39940	107871	0	0	8369	537161	0	0
2024-05-21 01:15:32			0	38738	0	0	0	21441	20050	130013	27190	984272	39941	107870	0	0	8370	536559	0	0
2024-05-21 01:16:32			0	38737	0	0	0	21441	20050	130017	27267	984299	39941	107870	0	0	8370	536598	0	0
2024-05-21 01:17:32			0	38739	0	0	0	21441	20050	129992	27187	984272	39930	107870	0	0	8370	536520	0	0
2024-05-21 01:18:32			0	38745	0	0	0	21441	20050	129989	27130	984281	39942	107870	0	0	8371	536287	0	0
2024-05-21 01:19:32			0	38737	0	0	0	21436	20040	129945	26729	984291	39930	107868	0	0	8370	536627	0	0
2024-05-21 01:20:32			0	38751	0	0	0	21444	20040	129997	27078	984229	39940	107871	0	0	8371	536084	0	0
2024-05-21 01:21:32			0	38755	0	0	0	21433	20040	129949	27066	984282	39952	107867	0	0	8371	535929	0	0
2024-05-21 01:22:32			0	38763	0	0	0	21438	20040	129957	26866	984238	39930	107869	0	0	8372	535619	0	0
2024-05-21 01:23:32			0	38761	0	0	0	21449	20040	129965	27319	984282	39929	107873	0	0	8371	535697	0	0
2024-05-21 01:24:32			0	38755	0	0	0	21444	20020	129913	27213	984257	39951	107871	0	0	8371	535988	0	0
2024-05-21 01:25:32			0	38782	0	0	0	21433	20040	129913	27369	984176	39929	107867	0	0	8373	534884	0	0
2024-05-21 01:26:32			0	38774	0	0	0	21436	20020	129913	27277	984204	39928	107868	0	0	8372	535253	0	0
2024-05-21 01:27:32			0	38770	0	0	0	21433	20030	129929	27074	984186	39928	107867	0	0	8372	535378	0	0
2024-05-21 01:28:32			0	38753	0	0	0	21433	20030	129885	27232	984274	39940	107867	0	0	8371	536036	0	0
2024-05-21 01:29:32			0	38792	0	0	0	21436	20030	129957	27114	984168	39929	107868	0	0	8373	534526	0	0
2024-05-21 01:30:32			0	38790	0	0	0	21425	20040	129945	27234	984282	39940	107864	0	0	8373	534574	0	0
2024-05-21 01:31:32			0	38770	0	0	0	21420	20030	129797	27201	984221	39929	107862	0	0	8372	535378	0	0
2024-05-21 01:32:32			0	38795	0	0	0	21425	20010	129813	27296	984134	39939	107864	0	0	8373	534469	0	0
2024-05-21 01:33:32			0	38796	0	0	0	21418	20030	129769	27528	984159	39928	107861	0	0	8374	534372	0	0
2024-05-21 01:34:32			0	38801	0	0	0	21425	20020	129857	27403	984116	39950	107864	0	0	8374	534208	0	0
2024-05-21 01:35:32			0	38791	0	0	0	21428	20030	129849	27467	984213	39939	107865	0	0	8373	534565	0	0
2024-05-21 01:36:32			0	38816	0	0	0	21418	20020	129837	27170	984178	39939	107861	0	0	8375	533628	0	0
2024-05-21 01:37:32			0	38808	0	0	0	21415	20020	129845	27308	984169	39939	107860	0	0	8374	533937	0	0
2024-05-21 01:38:32			0	38807	0	0	0	21410	20010	129769	27372	984108	39927	107858	0	0	8374	534005	0	0
2024-05-21 01:39:32			0	38809	0	0	0	21415	20010	129761	27086	984134	39939	107860	0	0	8374	533928	0	0
2024-05-21 01:40:32			0	38813	0	0	0	21412	20010	129753	27203	984108	39927	107859	0	0	8375	533773	0	0
2024-05-21 01:41:32			0	38797	0	0	0	21410	20010	129765	27343	984046	39949	107858	0	0	8374	534392	0	0
2024-05-21 01:42:32			0	38805	0	0	0	21410	20020	129797	27222	984143	39960	107858	0	0	8374	534053	0	0
2024-05-21 01:43:32			0	38848	0	0	0	21397	20010	129757	27098	984161	39950	107853	0	0	8377	532421	0	0
2024-05-21 01:44:32			0	38851	0	0	0	21402	20020	129761	27177	984116	39927	107855	0	0	8377	532276	0	0
2024-05-21 01:45:32			0	38816	0	0	0	21402	20010	129725	27066	984134	39939	107855	0	0	8375	533657	0	0
2024-05-21 01:46:32			0	38821	0	0	0	21399	20000	129657	27376	984091	39938	107854	0	0	8375	533493	0	0
2024-05-21 01:47:32			0	38841	0	0	0	21397	20000	129697	27421	984056	39937	107853	0	0	8376	532721	0	0
2024-05-21 01:48:32			0	38859	0	0	0	21397	20000	129689	27246	984109	39948	107853	0	0	8377	532026	0	0
2024-05-21 01:49:32			0	38845	0	0	0	21397	20000	129697	27299	984083	39948	107853	0	0	8376	532566	0	0
2024-05-21 01:50:32			0	38834	0	0	0	21392	20010	129661	27182	984100	39926	107851	0	0	8376	532962	0	0
2024-05-21 01:51:32			0	38855	0	0	0	21397	20000	129657	27010	984038	39926	107853	0	0	8377	532180	0	0
2024-05-21 01:52:32			0	38847	0	0	0	21397	19990	129625	27421	984093	39936	107853	0	0	8376	532518	0	0
2024-05-21 01:53:32			0	38866	0	0	0	21402	19990	129681	27270	984021	39914	107855	0	0	8377	531785	0	0
2024-05-21 01:54:32			0	38855	0	0	0	21394	19990	129593	27111	984040	39925	107852	0	0	8377	532210	0	0
2024-05-21 01:55:32			0	38874	0	0	0	21394	19990	129601	27339	984013	39925	107852	0	0	8378	531477	0	0
2024-05-21 01:56:32			0	38883	0	0	0	21392	20000	129545	27192	984065	39938	107851	0	0	8378	531100	0	0
2024-05-21 01:57:32			0	38881	0	0	0	21389	20000	129541	27268	984056	39937	107850	0	0	8378	531177	0	0
2024-05-21 01:58:32			0	38865	0	0	0	21394	19980	129613	27388	984005	39925	107852	0	0	8377	531853	0	0
2024-05-21 01:59:32			0	38884	0	0	0	21392	19990	129549	27163	984040	39936	107851	0	0	8378	531091	0	0
2024-05-21 02:00:32			0	38893	0	0	0	21397	19980	129493	27242	984005	39925	107853	0	0	8379	530774	0	0
2024-05-21 02:01:32			0	38891	0	0	0	21392	19990	129497	27112	984021	39936	107851	0	0	8379	530821	0	0
2024-05-21 02:02:32			0	38908	0	0	0	21389	19990	129501	26998	984048	39936	107850	0	0	8380	530167	0	0
2024-05-21 02:03:32			0	38913	0	0	0	21389	19990	129501	27159	984040	39936	107850	0	0	8380	529974	0	0
2024-05-21 02:04:32			0	38905	0	0	0	21389	19990	129469	27429	984040	39925	107850	0	0	8380	530282	0	0
2024-05-21 02:05:32			0	38937	0	0	0	21386	19990	129481	27345	983987	39936	107849	0	0	8381	529051	0	0
2024-05-21 02:06:32			0	38932	0	0	0	21389	19980	129317	27010	984031	39925	107850	0	0	8381	529272	0	0
2024-05-21 02:07:32			0	38948	0	0	0	21392	19990	129325	27322	984066	39936	107851	0	0	8382	528628	0	0
2024-05-21 02:08:32			0	38934	0	0	0	21381	19980	129409	27279	983952	39947	107847	0	0	8381	529195	0	0
2024-05-21 02:09:32			0	38955	0	0	0	21384	19990	129361	27393	984040	39925	107848	0	0	8382	528359	0	0
2024-05-21 02:10:32			0	38961	0	0	0	21386	19980	129301	27216	983978	39925	107849	0	0	8383	528158	0	0
2024-05-21 02:11:32			0	38960	0	0	0	21384	19980	129341	27410	984058	39947	107848	0	0	8383	528196	0	0
2024-05-21 02:12:32			0	38972	0	0	0	21376	19990	129213	27350	984013	39925	107845	0	0	8383	527706	0	0
2024-05-21 02:13:32			0	38967	0	0	0	21379	19980	129269	27156	983952	39936	107846	0	0	8383	527927	0	0
2024-05-21 02:14:32			0	38980	0	0	0	21371	19980	129293	26727	983996	39924	107843	0	0	8384	527428	0	0
2024-05-21 02:15:32			0	38967	0	0	0	21376	19980	129185	27092	983996	39935	107845	0	0	8383	527927	0	0
2024-05-21 02:16:32			0	38977	0	0	0	21376	19970	129197	27495	983953	39923	107845	0	0	8383	527572	0	0
2024-05-21 02:17:32			0	38995	0	0	0	21366	19990	129213	27208	984040	39936	107841	0	0	8385	526823	0	0
2024-05-21 02:18:32			0	38986	0	0	0	21366	19980	129201	26986	983890	39924	107841	0	0	8384	527198	0	0
2024-05-21 02:19:32			0	39002	0	0	0	21358	19970	129153	27284	983900	39945	107838	0	0	8385	526613	0	0
2024-05-21 02:20:32			0	39000	0	0	0	21358	19960	129145	26981	983945	39922	107838	0	0	8385	526719	0	0
2024-05-21 02:21:32			0	39002	0	0	0	21358	19970	129121	27327	983953	39902	107838	0	0	8385	526613	0	0
2024-05-21 02:22:32			0	38995	0	0	0	21358	19950	129161	27251	983857	39912	107838	0	0	8385	526939	0	0
2024-05-21 02:23:32			0	39013	0	0	0	21348	19950	129073	27114	983883	39922	107834	0	0	8386	526249	0	0
2024-05-21 02:24:32			0	39020	0	0	0	21345	19960	129065	27367	983865	39933	107833	0	0	8386	525952	0	0
2024-05-21 02:25:32			0	39024	0	0	0	21337	19950	129077	27121	983830	39933	107830	0	0	8387	525827	0	0
2024-05-21 02:26:32			0	38998	0	0	0	21337	19940	129077	27053	983813	39932	107830	0	0	8385	526853	0	0
2024-05-21 02:27:32			0	39016	0	0	0	21345	19950	129037	27182	983848	39921	107833	0	0	8386	526134	0	0
2024-05-21 02:28:32			0	39007	0	0	0	21340	19950	129165	27197	983848	39921	107831	0	0	8386	526479	0	0
2024-05-21 02:29:32			0	39029	0	0	0	21337	19950	129073	26885	983822	39932	107830	0	0	8387	525636	0	0
2024-05-21 02:30:32			0	39032	0	0	0	21345	19940	129089	27260	983840	39911	107833	0	0	8387	525550	0	0
2024-05-21 02:31:32			0	39028	0	0	0	21340	19940	129057	26854	983866	39932	107831	0	0	8387	525703	0	0
2024-05-21 02:32:32			0	39025	0	0	0	21340	19940	129073	27230	983866	39921	107831	0	0	8386	525818	0	0
2024-05-21 02:33:32			0	39025	0	0	0	21335	19940	129005	27107	983920	39921	107829	0	0	8387	525818	0	0
2024-05-21 02:34:32			0	39005	0	0	0	21345	19950	129033	27059	983857	39922	107833	0	0	8385	526556	0	0
2024-05-21 02:35:32			0	39028	0	0	0	21350	19940	129085	27154	983893	39932	107835	0	0	8386	525703	0	0
2024-05-21 02:36:32			0	39043	0	0	0	21361	19950	129065	26897	983954	39921	107839	0	0	8387	525100	0	0
2024-05-21 02:37:32			0	39044	0	0	0	21368	19950	129085	27039	983928	39932	107842	0	0	8387	525061	0	0
2024-05-21 02:38:32			0	39047	0	0	0	21374	19960	129021	27409	983998	39933	107844	0	0	8387	524918	0	0
2024-05-21 02:39:32			0	39047	0	0	0	21384	19950	129057	27105	983963	39933	107848	0	0	8387	524946	0	0
2024-05-21 02:40:32			0	39055	0	0	0	21376	19960	129077	26790	983998	39933	107845	0	0	8388	524611	0	0
2024-05-21 02:41:32			0	39054	0	0	0	21384	19970	128961	27196	984006	39934	107848	0	0	8387	524621	0	0
2024-05-21 02:42:32			0	39053	0	0	0	21389	19970	128941	27313	983979	39923	107850	0	0	8387	524659	0	0
2024-05-21 02:43:32			0	39086	0	0	0	21386	19970	129029	27020	984032	39945	107849	0	0	8389	523397	0	0
2024-05-21 02:44:32			0	39060	0	0	0	21386	19970	128985	27194	984015	39934	107849	0	0	8388	524391	0	0
2024-05-21 02:45:32			0	39066	0	0	0	21389	19970	128917	27090	984006	39923	107850	0	0	8388	524162	0	0
2024-05-21 02:46:32			0	39094	0	0	0	21389	19970	128957	27005	984015	39945	107850	0	0	8389	523091	0	0
2024-05-21 02:47:32			0	39081	0	0	0	21389	19980	128949	27173	984076	39924	107850	0	0	8389	523559	0	0
2024-05-21 02:48:32			0	39099	0	0	0	21397	19970	128873	27237	984068	39945	107853	0	0	8389	522901	0	0
2024-05-21 02:49:32			0	39083	0	0	0	21397	19990	128965	27234	984040	39925	107853	0	0	8389	523454	0	0
2024-05-21 02:50:32			0	39088	0	0	0	21397	19980	128941	27398	984031	39958	107853	0	0	8389	523292	0	0
2024-05-21 02:51:32			0	39104	0	0	0	21394	19990	128937	27124	984093	39947	107852	0	0	8390	522652	0	0
2024-05-21 02:52:32			0	39076	0	0	0	21394	19980	128925	27100	984058	39936	107852	0	0	8388	523750	0	0
2024-05-21 02:53:32			0	39085	0	0	0	21402	19980	128901	26922	984058	39925	107855	0	0	8389	523407	0	0
2024-05-21 02:54:32			0	39108	0	0	0	21397	19990	128869	26965	984119	39925	107853	0	0	8390	522499	0	0
2024-05-21 02:55:32			0	39095	0	0	0	21410	19990	128893	26928	984066	39936	107858	0	0	8389	522996	0	0
2024-05-21 02:56:32			0	39093	0	0	0	21399	19990	128953	27239	984146	39947	107854	0	0	8389	523072	0	0
2024-05-21 02:57:32			0	39095	0	0	0	21405	19990	128897	27365	984075	39936	107856	0	0	8389	522996	0	0
2024-05-21 02:58:32			0	39094	0	0	0	21410	20000	128913	27346	984083	39937	107858	0	0	8389	523005	0	0
2024-05-21 02:59:32			0	39104	0	0	0	21410	19990	128913	26916	984119	39925	107858	0	0	8390	522652	0	0
2024-05-21 03:00:32			0	39114	0	0	0	21415	20000	128945	27234	984171	39926	107860	0	0	8390	522241	0	0
2024-05-21 03:01:32			0	39109	0	0	0	21418	20000	128781	27154	984136	39937	107861	0	0	8390	522432	0	0
2024-05-21 03:02:32			0	39104	0	0	0	21420	20010	128861	27194	984126	39926	107862	0	0	8390	522594	0	0
2024-05-21 03:03:32			0	39124	0	0	0	21425	20010	128849	27176	984188	39950	107864	0	0	8390	521831	0	0
2024-05-21 03:04:32			0	39102	0	0	0	21420	20010	128801	27069	984188	39950	107862	0	0	8389	522671	0	0
2024-05-21 03:05:32			0	39105	0	0	0	21423	20000	128869	27293	984171	39949	107863	0	0	8389	522585	0	0
2024-05-21 03:06:32			0	39115	0	0	0	21425	20010	128789	27029	984214	39939	107864	0	0	8390	522174	0	0
2024-05-21 03:07:32			0	39109	0	0	0	21436	20020	128809	27033	984222	39939	107868	0	0	8390	522375	0	0
2024-05-21 03:08:32			0	39131	0	0	0	21433	20020	128749	26904	984249	39960	107867	0	0	8391	521535	0	0
2024-05-21 03:09:32			0	39119	0	0	0	21431	20020	128769	27284	984249	39950	107866	0	0	8390	521993	0	0
2024-05-21 03:10:32			0	39123	0	0	0	21420	20030	128693	27183	984239	39939	107862	0	0	8391	521812	0	0
2024-05-21 03:11:32			0	39116	0	0	0	21433	20010	128773	27377	984188	39971	107867	0	0	8390	522136	0	0
2024-05-21 03:12:32			0	39119	0	0	0	21436	20010	128753	26817	984267	39939	107868	0	0	8390	522022	0	0
2024-05-21 03:13:32			0	39137	0	0	0	21431	20020	128781	27270	984169	39939	107866	0	0	8391	521307	0	0
2024-05-21 03:14:32			0	39136	0	0	0	21436	20030	128713	26873	984213	39939	107868	0	0	8391	521316	0	0
2024-05-21 03:15:32			0	39139	0	0	0	21438	20030	128741	27317	984292	39951	107869	0	0	8391	521202	0	0
2024-05-21 03:16:32			0	39142	0	0	0	21438	20030	128757	27112	984266	39951	107869	0	0	8391	521087	0	0
2024-05-21 03:17:32			0	39150	0	0	0	21444	20030	128741	26693	984213	39928	107871	0	0	8392	520782	0	0
2024-05-21 03:18:32			0	39109	0	0	0	21441	20020	128785	27059	984302	39939	107870	0	0	8389	522375	0	0
2024-05-21 03:19:32			0	39138	0	0	0	21438	20030	128733	27178	984239	39939	107869	0	0	8391	521240	0	0
2024-05-21 03:20:32			0	39122	0	0	0	21433	20020	128825	27090	984204	39961	107867	0	0	8390	521879	0	0
2024-05-21 03:21:32			0	39131	0	0	0	21438	20030	128761	27402	984239	39939	107869	0	0	8391	521507	0	0
2024-05-21 03:22:32			0	39140	0	0	0	21449	20030	128693	27216	984213	39939	107873	0	0	8391	521164	0	0
2024-05-21 03:23:32			0	39127	0	0	0	21446	20040	128733	26928	984282	39952	107872	0	0	8390	521630	0	0
2024-05-21 03:24:32			0	39132	0	0	0	21446	20040	128749	27059	984309	39952	107872	0	0	8391	521440	0	0
2024-05-21 03:25:32			0	39139	0	0	0	21454	20020	128797	27275	984337	39951	107875	0	0	8391	521230	0	0
2024-05-21 03:26:32			0	39130	0	0	0	21444	20030	128817	27072	984300	39952	107871	0	0	8391	521545	0	0
2024-05-21 03:27:32			0	39137	0	0	0	21441	20030	128769	27206	984274	39962	107870	0	0	8391	521278	0	0
2024-05-21 03:28:32			0	39143	0	0	0	21451	20030	128781	27164	984300	39940	107874	0	0	8391	521049	0	0
2024-05-21 03:29:32			0	39120	0	0	0	21446	20030	128681	27190	984247	39940	107872	0	0	8390	521926	0	0
2024-05-21 03:30:32			0	39139	0	0	0	21444	20030	128749	27166	984247	39929	107871	0	0	8391	521202	0	0
2024-05-21 03:31:32			0	39118	0	0	0	21449	20040	128797	27370	984203	39940	107873	0	0	8390	521974	0	0
2024-05-21 03:32:32			0	39120	0	0	0	21438	20040	128785	27284	984309	39962	107869	0	0	8390	521897	0	0
2024-05-21 03:33:32			0	39131	0	0	0	21441	20030	128781	27377	984274	39952	107870	0	0	8391	521507	0	0
2024-05-21 03:34:32			0	39134	0	0	0	21436	20020	128861	27168	984257	39951	107868	0	0	8391	521421	0	0
2024-05-21 03:35:32			0	39147	0	0	0	21433	20030	128829	27355	984266	39928	107867	0	0	8392	520897	0	0
2024-05-21 03:36:32			0	39121	0	0	0	21431	20020	128761	27220	984284	39951	107866	0	0	8390	521917	0	0
2024-05-21 03:37:32			0	39128	0	0	0	21431	20020	128829	26923	984231	39951	107866	0	0	8391	521650	0	0
2024-05-21 03:38:32			0	39153	0	0	0	21425	20020	128785	27150	984204	39928	107864	0	0	8392	520697	0	0
2024-05-21 03:39:32			0	39128	0	0	0	21412	20020	128865	27007	984231	39961	107859	0	0	8391	521650	0	0
2024-05-21 03:40:32			0	39115	0	0	0	21415	20020	128761	27234	984196	39927	107860	0	0	8390	522146	0	0
2024-05-21 03:41:32			0	39132	0	0	0	21405	20020	128881	27166	984143	39939	107856	0	0	8391	521497	0	0
2024-05-21 03:42:32			0	39123	0	0	0	21412	20010	128809	26837	984188	39927	107859	0	0	8391	521869	0	0
2024-05-21 03:43:32			0	39131	0	0	0	21412	20020	128725	27293	984204	39939	107859	0	0	8391	521535	0	0
2024-05-21 03:44:32			0	39142	0	0	0	21402	20000	128797	26981	984171	39938	107855	0	0	8392	521174	0	0
2024-05-21 03:45:32			0	39131	0	0	0	21402	20020	128821	27043	984143	39939	107855	0	0	8391	521535	0	0
2024-05-21 03:46:32			0	39123	0	0	0	21399	20010	128797	27060	984100	39949	107854	0	0	8391	521869	0	0
2024-05-21 03:47:32			0	39141	0	0	0	21399	20000	128717	27431	984109	39948	107854	0	0	8392	521212	0	0
2024-05-21 03:48:32			0	39129	0	0	0	21389	20010	128801	27116	984073	39926	107850	0	0	8391	521640	0	0
2024-05-21 03:49:32			0	39141	0	0	0	21379	19990	128805	27300	984048	39925	107846	0	0	8392	521240	0	0
2024-05-21 03:50:32			0	39138	0	0	0	21384	20010	128809	27248	984073	39938	107848	0	0	8392	521297	0	0
2024-05-21 03:51:32			0	39116	0	0	0	21384	19990	128785	27137	984013	39936	107848	0	0	8391	522194	0	0
2024-05-21 03:52:32			0	39101	0	0	0	21376	19990	128789	26934	984021	39936	107845	0	0	8390	522766	0	0
2024-05-21 03:53:32			0	39142	0	0	0	21384	19990	128805	27222	984013	39958	107848	0	0	8392	521202	0	0
2024-05-21 03:54:32			0	39128	0	0	0	21384	19990	128761	27131	984040	39914	107848	0	0	8391	521736	0	0
2024-05-21 03:55:32			0	39129	0	0	0	21379	19980	128749	27618	984031	39936	107846	0	0	8391	521727	0	0
2024-05-21 03:56:32			0	39129	0	0	0	21371	19980	128773	27343	984049	39935	107843	0	0	8392	521727	0	0
2024-05-21 03:57:32			0	39140	0	0	0	21374	19970	128713	26996	984068	39923	107844	0	0	8392	521336	0	0
2024-05-21 03:58:32			0	39140	0	0	0	21374	19980	128889	27150	984005	39925	107844	0	0	8392	521307	0	0
2024-05-21 03:59:32			0	39120	0	0	0	21368	19970	128757	27017	984015	39945	107842	0	0	8391	522099	0	0
2024-05-21 04:00:32			0	39149	0	0	0	21366	19970	128805	27338	983988	39945	107841	0	0	8393	520993	0	0
2024-05-21 04:01:32			0	39127	0	0	0	21371	19970	128781	27242	983962	39945	107843	0	0	8391	521832	0	0
2024-05-21 04:02:32			0	39148	0	0	0	21374	19980	128773	27216	984076	39946	107844	0	0	8392	521002	0	0
2024-05-21 04:03:32			0	39129	0	0	0	21374	19990	128841	27293	984093	39947	107844	0	0	8392	521698	0	0
2024-05-21 04:04:32			0	39123	0	0	0	21379	19980	128861	26909	984076	39946	107846	0	0	8391	521956	0	0
2024-05-21 04:05:32			0	39102	0	0	0	21384	19980	128845	27012	984076	39946	107848	0	0	8390	522757	0	0
2024-05-21 04:06:32			0	39135	0	0	0	21376	19980	128797	27397	984076	39924	107845	0	0	8392	521498	0	0
2024-05-21 04:07:32			0	39142	0	0	0	21379	19980	128793	27225	984058	39947	107846	0	0	8392	521231	0	0
2024-05-21 04:08:32			0	39131	0	0	0	21381	19980	128893	27410	984076	39935	107847	0	0	8391	521650	0	0
2024-05-21 04:09:32			0	39115	0	0	0	21379	19980	128781	27074	984023	39946	107846	0	0	8391	522261	0	0
2024-05-21 04:10:32			0	39129	0	0	0	21379	19980	128789	27147	984076	39946	107846	0	0	8391	521727	0	0
2024-05-21 04:11:32			0	39115	0	0	0	21384	19980	128821	27268	984031	39936	107848	0	0	8391	522261	0	0
2024-05-21 04:12:32			0	39102	0	0	0	21376	19970	128849	27516	984041	39934	107845	0	0	8390	522786	0	0
2024-05-21 04:13:32			0	39135	0	0	0	21392	19980	128825	27124	984058	39925	107851	0	0	8391	521498	0	0
2024-05-21 04:14:32			0	39110	0	0	0	21397	19980	128901	27251	984076	39924	107853	0	0	8390	522452	0	0
2024-05-21 04:15:32			0	39115	0	0	0	21384	19980	128809	27360	984058	39925	107848	0	0	8391	522261	0	0
2024-05-21 04:16:32			0	39114	0	0	0	21384	19980	128829	27312	984084	39958	107848	0	0	8391	522299	0	0
2024-05-21 04:17:32			0	39109	0	0	0	21389	19990	128693	27270	984066	39947	107850	0	0	8390	522461	0	0
2024-05-21 04:18:32			0	39114	0	0	0	21394	19990	128829	27441	984119	39947	107852	0	0	8390	522270	0	0
2024-05-21 04:19:32			0	39137	0	0	0	21392	19980	128769	27176	984084	39925	107851	0	0	8392	521422	0	0
2024-05-21 04:20:32			0	39142	0	0	0	21386	19990	128789	27388	984093	39947	107849	0	0	8392	521202	0	0
2024-05-21 04:21:32			0	39129	0	0	0	21394	19990	128833	27384	984066	39936	107852	0	0	8391	521698	0	0
2024-05-21 04:22:32			0	39118	0	0	0	21392	19990	128801	27415	984066	39947	107851	0	0	8391	522118	0	0
2024-05-21 04:23:32			0	39139	0	0	0	21392	19980	128789	27320	984058	39925	107851	0	0	8392	521345	0	0
2024-05-21 04:24:32			0	39121	0	0	0	21397	19990	128805	27229	984075	39947	107853	0	0	8391	522003	0	0
2024-05-21 04:25:32			0	39114	0	0	0	21392	19980	128809	27116	984084	39947	107851	0	0	8390	522299	0	0
2024-05-21 04:26:32			0	39122	0	0	0	21402	19990	128821	27320	984119	39936	107855	0	0	8391	521965	0	0
2024-05-21 04:27:32			0	39115	0	0	0	21402	19990	128789	27234	984146	39947	107855	0	0	8390	522232	0	0
2024-05-21 04:28:32			0	39133	0	0	0	21399	19990	128777	27540	984093	39936	107854	0	0	8391	521545	0	0
2024-05-21 04:29:32			0	39130	0	0	0	21394	19990	128817	27497	984075	39925	107852	0	0	8391	521660	0	0
2024-05-21 04:30:32			0	39123	0	0	0	21415	20000	128829	27190	984144	39959	107860	0	0	8391	521898	0	0
2024-05-21 04:31:32			0	39100	0	0	0	21405	20000	128805	27338	984118	39970	107856	0	0	8390	522776	0	0
2024-05-21 04:32:32			0	39146	0	0	0	21415	20000	128857	27469	984216	39948	107860	0	0	8392	521021	0	0
2024-05-21 04:33:32			0	39143	0	0	0	21420	20000	128857	27343	984224	39949	107862	0	0	8392	521135	0	0
2024-05-21 04:34:32			0	39126	0	0	0	21420	20010	128749	26944	984126	39959	107862	0	0	8391	521755	0	0
2024-05-21 04:35:32			0	39131	0	0	0	21412	20020	128737	27249	984249	39927	107859	0	0	8391	521535	0	0
2024-05-21 04:36:32			0	39124	0	0	0	21415	20010	128669	27296	984188	39939	107860	0	0	8391	521831	0	0
2024-05-21 04:37:32			0	39136	0	0	0	21412	20010	128809	27336	984108	39939	107859	0	0	8391	521373	0	0
2024-05-21 04:38:32			0	39127	0	0	0	21410	20010	128749	27138	984126	39949	107858	0	0	8391	521717	0	0
2024-05-21 04:39:32			0	39132	0	0	0	21407	20010	128797	27019	984241	39971	107857	0	0	8391	521526	0	0
2024-05-21 04:40:32			0	39127	0	0	0	21410	20010	128777	27384	984206	39949	107858	0	0	8391	521717	0	0
2024-05-21 04:41:32			0	39121	0	0	0	21423	20010	128777	27062	984153	39938	107863	0	0	8390	521946	0	0
2024-05-21 04:42:32			0	39108	0	0	0	21423	20010	128753	27289	984214	39950	107863	0	0	8390	522442	0	0
2024-05-21 04:43:32			0	39131	0	0	0	21425	20010	128717	27112	984259	39959	107864	0	0	8391	521564	0	0
2024-05-21 04:44:32			0	39117	0	0	0	21420	20020	128777	27234	984249	39950	107862	0	0	8390	522069	0	0
2024-05-21 04:45:32			0	39111	0	0	0	21438	20030	128821	27324	984266	39951	107869	0	0	8390	522269	0	0
2024-05-21 04:46:32			0	39111	0	0	0	21428	20010	128901	27093	984241	39939	107865	0	0	8390	522327	0	0
2024-05-21 04:47:32			0	39069	0	0	0	21433	20030	128993	27345	984327	39973	107867	0	0	8388	523874	0	0
2024-05-21 04:48:32			0	39064	0	0	0	21431	20030	128953	27533	984300	39940	107866	0	0	8387	524065	0	0
2024-05-21 04:49:32			0	39025	0	0	0	21438	20030	128985	27324	984292	39951	107869	0	0	8385	525557	0	0
2024-05-21 04:50:32			0	39032	0	0	0	21438	20030	129049	27275	984300	39952	107869	0	0	8386	525289	0	0
2024-05-21 04:51:32			0	39023	0	0	0	21436	20030	129113	27137	984292	39939	107868	0	0	8385	525634	0	0
2024-05-21 04:52:32			0	39007	0	0	0	21438	20030	129137	27218	984292	39951	107869	0	0	8384	526247	0	0
2024-05-21 04:53:32			0	38986	0	0	0	21441	20020	129157	27369	984257	39951	107870	0	0	8383	527081	0	0
2024-05-21 04:54:32			0	38968	0	0	0	21444	20030	129193	27104	984239	39939	107871	0	0	8382	527743	0	0
2024-05-21 04:55:32			0	38958	0	0	0	21436	20020	129241	27064	984231	39951	107868	0	0	8382	528156	0	0
2024-05-21 04:56:32			0	38945	0	0	0	21431	20020	129361	27109	984178	39961	107866	0	0	8381	528656	0	0
2024-05-21 04:57:32			0	38918	0	0	0	21423	20020	129417	27163	984196	39950	107863	0	0	8380	529694	0	0
2024-05-21 04:58:32			0	38896	0	0	0	21407	20020	129453	27287	984151	39939	107857	0	0	8379	530541	0	0
2024-05-21 04:59:32			0	38887	0	0	0	21412	20020	129497	27019	984143	39927	107859	0	0	8378	530888	0	0
2024-05-21 05:00:32			0	38865	0	0	0	21402	20000	129529	27027	984144	39926	107855	0	0	8377	531794	0	0
2024-05-21 05:01:32			0	38867	0	0	0	21397	20010	129593	27196	984100	39938	107853	0	0	8378	531688	0	0
2024-05-21 05:02:32			0	38849	0	0	0	21389	20000	129641	27114	984091	39949	107850	0	0	8377	532412	0	0
2024-05-21 05:03:32			0	38844	0	0	0	21386	20000	129737	26960	984118	39949	107849	0	0	8377	532605	0	0
2024-05-21 05:04:32			0	38821	0	0	0	21394	19990	129717	27052	984048	39947	107852	0	0	8375	533523	0	0
2024-05-21 05:05:32			0	38815	0	0	0	21374	20000	129701	27275	984056	39937	107844	0	0	8375	533725	0	0
2024-05-21 05:06:32			0	38800	0	0	0	21363	19990	129777	27130	983995	39936	107840	0	0	8375	534335	0	0
2024-05-21 05:07:32			0	38793	0	0	0	21340	19990	129745	27377	984021	39925	107831	0	0	8375	534606	0	0
2024-05-21 05:08:32			0	38789	0	0	0	21337	19990	129813	27287	983933	39925	107830	0	0	8374	534760	0	0
2024-05-21 05:09:32			0	38788	0	0	0	21322	19970	129793	27339	983767	39923	107824	0	0	8375	534858	0	0
2024-05-21 05:10:32			0	38797	0	0	0	21290	19950	129809	27119	983777	39922	107812	0	0	8375	534569	0	0
2024-05-21 05:11:32			0	38798	0	0	0	21267	19930	129837	27128	983611	39899	107803	0	0	8376	534589	0	0
2024-05-21 05:12:32			0	38787	0	0	0	21249	19920	129941	27173	983594	39897	107796	0	0	8376	535044	0	0
2024-05-21 05:13:32			0	38782	0	0	0	21220	19900	129893	27048	983534	39917	107785	0	0	8376	535297	0	0
2024-05-21 05:14:32			0	38776	0	0	0	21199	19890	129885	27144	983509	39916	107777	0	0	8376	535559	0	0
2024-05-21 05:15:32			0	38761	0	0	0	21194	19870	129845	27296	983431	39916	107775	0	0	8375	536199	0	0
2024-05-21 05:16:32			0	38771	0	0	0	21184	19860	129925	27071	983406	39902	107771	0	0	8376	535841	0	0
2024-05-21 05:17:32			0	38781	0	0	0	21189	19860	129985	27036	983388	39903	107773	0	0	8376	535454	0	0
2024-05-21 05:18:32			0	38770	0	0	0	21194	19860	129993	27218	983406	39891	107775	0	0	8375	535880	0	0
2024-05-21 05:19:32			0	38749	0	0	0	21192	19850	130057	27377	983398	39913	107774	0	0	8374	536724	0	0
2024-05-21 05:20:32			0	38747	0	0	0	21210	19850	129977	27282	983504	39935	107781	0	0	8374	536801	0	0
2024-05-21 05:21:32			0	38761	0	0	0	21210	19850	129985	27203	983496	39913	107781	0	0	8375	536258	0	0
2024-05-21 05:22:32			0	38739	0	0	0	21205	19850	130089	27426	983496	39924	107779	0	0	8374	537112	0	0
2024-05-21 05:23:32			0	38733	0	0	0	21223	19850	130072	27296	983531	39924	107786	0	0	8373	537345	0	0
2024-05-21 05:24:32			0	38734	0	0	0	21228	19860	130128	27275	983592	39935	107788	0	0	8373	537276	0	0
2024-05-21 05:25:32			0	38729	0	0	0	21238	19860	130121	27171	983539	39924	107792	0	0	8372	537470	0	0
2024-05-21 05:26:32			0	38719	0	0	0	21244	19850	130112	27289	983496	39913	107794	0	0	8372	537888	0	0
2024-05-21 05:27:32			0	38725	0	0	0	21241	19860	130136	27114	983512	39935	107793	0	0	8372	537626	0	0
2024-05-21 05:28:32			0	38712	0	0	0	21238	19850	130148	27594	983531	39935	107792	0	0	8372	538160	0	0
2024-05-21 05:29:32			0	38700	0	0	0	21223	19850	130144	27388	983469	39902	107786	0	0	8371	538627	0	0
2024-05-21 05:30:32			0	38713	0	0	0	21223	19840	130272	27208	983461	39923	107786	0	0	8372	538151	0	0
2024-05-21 05:31:32			0	38721	0	0	0	21215	19840	130240	27526	983381	39923	107783	0	0	8372	537840	0	0
2024-05-21 05:32:32			0	38688	0	0	0	21205	19840	130288	27286	983373	39912	107779	0	0	8371	539123	0	0
2024-05-21 05:33:32			0	38717	0	0	0	21189	19830	130244	27227	983311	39901	107773	0	0	8373	538025	0	0
2024-05-21 05:34:32			0	38695	0	0	0	21184	19830	130308	27445	983303	39901	107771	0	0	8371	538881	0	0
2024-05-21 05:35:32			0	38685	0	0	0	21171	19820	130388	27190	983260	39920	107766	0	0	8371	539299	0	0
2024-05-21 05:36:32			0	38662	0	0	0	21161	19810	130320	27190	983190	39920	107762	0	0	8370	540225	0	0
2024-05-21 05:37:32			0	38657	0	0	0	21137	19790	130408	27083	983165	39907	107753	0	0	8370	540479	0	0
2024-05-21 05:38:32			0	38676	0	0	0	21135	19790	130432	27097	983165	39907	107752	0	0	8371	539739	0	0
2024-05-21 05:39:32			0	38636	0	0	0	21127	19780	130440	27015	983113	39895	107749	0	0	8369	541327	0	0
2024-05-21 05:40:32			0	38642	0	0	0	21119	19780	130476	26873	983087	39895	107746	0	0	8370	541094	0	0
2024-05-21 05:41:32			0	38637	0	0	0	21119	19770	130492	27256	983078	39906	107746	0	0	8369	541318	0	0
2024-05-21 05:42:32			0	38594	0	0	0	21129	19760	130508	27267	983027	39894	107750	0	0	8367	543027	0	0
2024-05-21 05:43:32			0	38616	0	0	0	21116	19760	130620	27239	983062	39894	107745	0	0	8368	542168	0	0
2024-05-21 05:44:32			0	38592	0	0	0	21106	19760	130688	27466	982956	39894	107741	0	0	8367	543105	0	0
2024-05-21 05:45:32			0	38572	0	0	0	21090	19750	130736	27542	982957	39871	107735	0	0	8366	543917	0	0
2024-05-21 05:46:32			0	38557	0	0	0	21080	19740	130732	27246	982922	39893	107731	0	0	8366	544534	0	0
2024-05-21 05:47:32			0	38523	0	0	0	21070	19730	130856	27377	982906	39891	107727	0	0	8364	545896	0	0
2024-05-21 05:48:32			0	38520	0	0	0	21064	19720	130900	27147	982862	39890	107725	0	0	8364	546044	0	0
2024-05-21 05:49:32			0	38510	0	0	0	21059	19720	130932	27410	982907	39901	107723	0	0	8364	546436	0	0
2024-05-21 05:50:32			0	38479	0	0	0	21049	19710	130956	27012	982872	39900	107719	0	0	8362	547684	0	0
2024-05-21 05:51:32			0	38466	0	0	0	21046	19710	131056	27215	982766	39889	107718	0	0	8361	548195	0	0
2024-05-21 05:52:32			0	38467	0	0	0	21044	19700	131104	27346	982723	39888	107717	0	0	8361	548185	0	0
2024-05-21 05:53:32			0	38439	0	0	0	21036	19690	131192	27306	982680	39876	107714	0	0	8360	549317	0	0
2024-05-21 05:54:32			0	38422	0	0	0	21020	19700	131244	27454	982661	39888	107708	0	0	8360	549956	0	0
2024-05-21 05:55:32			0	38403	0	0	0	21015	19680	131264	27388	982583	39865	107706	0	0	8359	550766	0	0
2024-05-21 05:56:32			0	38399	0	0	0	21012	19680	131276	27284	982663	39886	107705	0	0	8358	550923	0	0
2024-05-21 05:57:32			0	38380	0	0	0	21002	19670	131480	27254	982620	39886	107701	0	0	8358	551703	0	0
2024-05-21 05:58:32			0	38363	0	0	0	20992	19660	131532	27012	982550	39874	107697	0	0	8357	552405	0	0
2024-05-21 05:59:32			0	38338	0	0	0	20984	19650	131564	27478	982515	39874	107694	0	0	8356	553423	0	0
2024-05-21 06:00:32			0	38315	0	0	0	20961	19630	131680	27312	982482	39872	107685	0	0	8355	554394	0	0
2024-05-21 06:01:32			0	38292	0	0	0	20945	19620	131672	27173	982359	39881	107679	0	0	8354	555336	0	0
2024-05-21 06:02:32			0	38281	0	0	0	20924	19600	131736	27367	982220	39879	107671	0	0	8353	555833	0	0
2024-05-21 06:03:32			0	38245	0	0	0	20919	19600	131764	27281	982193	39869	107669	0	0	8352	557262	0	0
2024-05-21 06:04:32			0	38241	0	0	0	20903	19590	131800	27157	982088	39856	107663	0	0	8352	557452	0	0
2024-05-21 06:05:32			0	38227	0	0	0	20883	19570	131892	27114	982116	39855	107655	0	0	8351	558070	0	0
2024-05-21 06:06:32			0	38213	0	0	0	20867	19550	131976	26965	982003	39875	107649	0	0	8351	558688	0	0
2024-05-21 06:07:32			0	38201	0	0	0	20859	19550	131976	27154	981995	39864	107646	0	0	8350	559165	0	0
2024-05-21 06:08:32			0	38188	0	0	0	20841	19530	132068	27514	981864	39851	107639	0	0	8350	559745	0	0
2024-05-21 06:09:32			0	38163	0	0	0	20838	19520	132164	27164	981812	39873	107638	0	0	8348	560772	0	0
2024-05-21 06:10:32			0	38170	0	0	0	20818	19510	132208	27175	981795	39872	107630	0	0	8349	560524	0	0
2024-05-21 06:11:32			0	38112	0	0	0	20807	19490	132264	27379	981762	39870	107626	0	0	8346	562901	0	0
2024-05-21 06:12:32			0	38098	0	0	0	20799	19480	132444	27315	981719	39857	107623	0	0	8345	563492	0	0
2024-05-21 06:13:32			0	38092	0	0	0	20786	19470	132396	27000	981702	39856	107618	0	0	8345	563763	0	0
2024-05-21 06:14:32			0	38079	0	0	0	20784	19460	132536	27196	981667	39856	107617	0	0	8345	564315	0	0
2024-05-21 06:15:32			0	38062	0	0	0	20758	19450	132516	27419	981563	39854	107607	0	0	8344	565027	0	0
2024-05-21 06:16:32			0	38006	0	0	0	20755	19430	132571	27286	981485	39842	107606	0	0	8341	567336	0	0
2024-05-21 06:17:32			0	38029	0	0	0	20750	19420	132800	27296	981468	39853	107604	0	0	8342	566444	0	0
2024-05-21 06:18:32			0	37996	0	0	0	20732	19420	132775	27232	981513	39841	107597	0	0	8341	567770	0	0
2024-05-21 06:19:32			0	37956	0	0	0	20732	19410	132891	27204	981425	39851	107597	0	0	8339	569410	0	0
2024-05-21 06:20:32			0	37945	0	0	0	20719	19400	133055	27255	981373	39850	107592	0	0	8338	569885	0	0
2024-05-21 06:21:32			0	37918	0	0	0	20711	19390	133179	27400	981410	39828	107589	0	0	8337	571005	0	0
2024-05-21 06:22:32			0	37885	0	0	0	20701	19390	133163	27079	981383	39838	107585	0	0	8336	572338	0	0
2024-05-21 06:23:32			0	37847	0	0	0	20703	19370	133359	27248	981332	39836	107586	0	0	8334	573938	0	0
2024-05-21 06:24:32			0	37830	0	0	0	20698	19370	133387	27258	981279	39836	107584	0	0	8333	574626	0	0
2024-05-21 06:25:32			0	37804	0	0	0	20701	19350	133563	27333	981333	39847	107585	0	0	8331	575743	0	0
2024-05-21 06:26:32			0	37769	0	0	0	20696	19350	133555	27218	981307	39858	107583	0	0	8329	577164	0	0
2024-05-21 06:27:32			0	37747	0	0	0	20685	19340	133615	27272	981237	39845	107579	0	0	8328	578090	0	0
2024-05-21 06:28:32			0	37704	0	0	0	20675	19340	133827	27074	981157	39845	107575	0	0	8326	579841	0	0
2024-05-21 06:29:32			0	37665	0	0	0	20667	19330	133931	27365	981194	39845	107572	0	0	8324	581464	0	0
2024-05-21 06:30:32			0	37655	0	0	0	20662	19330	133983	27296	981132	39833	107570	0	0	8324	581872	0	0
2024-05-21 06:31:32			0	37631	0	0	0	20651	19320	134187	27407	981124	39843	107566	0	0	8323	582885	0	0
2024-05-21 06:32:32			0	37596	0	0	0	20636	19310	134231	27492	981028	39833	107560	0	0	8321	584349	0	0
2024-05-21 06:33:32			0	37586	0	0	0	20631	19290	134379	27396	980960	39840	107558	0	0	8321	584823	0	0
2024-05-21 06:34:32			0	37536	0	0	0	20618	19290	134499	27281	980915	39841	107553	0	0	8318	586875	0	0
2024-05-21 06:35:32			0	37500	0	0	0	20612	19280	134595	27512	980943	39829	107551	0	0	8316	588387	0	0
2024-05-21 06:36:32			0	37493	0	0	0	20620	19270	134615	27218	980873	39817	107554	0	0	8316	588707	0	0
2024-05-21 06:37:32			0	37461	0	0	0	20612	19260	134791	27360	980830	39827	107551	0	0	8314	590058	0	0
2024-05-21 06:38:32			0	37434	0	0	0	20605	19260	134783	27119	980910	39837	107548	0	0	8313	591172	0	0
2024-05-21 06:39:32			0	37412	0	0	0	20602	19250	134907	27306	980875	39837	107547	0	0	8312	592113	0	0
2024-05-21 06:40:32			0	37410	0	0	0	20602	19260	135067	27535	980910	39827	107547	0	0	8312	592163	0	0
2024-05-21 06:41:32			0	37372	0	0	0	20602	19250	135055	27246	980954	39837	107547	0	0	8310	593767	0	0
2024-05-21 06:42:32			0	37340	0	0	0	20615	19250	135271	27197	980893	39837	107552	0	0	8308	595092	0	0
2024-05-21 06:43:32			0	37320	0	0	0	20625	19250	135283	26987	980901	39827	107556	0	0	8307	595922	0	0
2024-05-21 06:44:32			0	37288	0	0	0	20625	19260	135350	27429	980910	39859	107556	0	0	8305	597218	0	0
2024-05-21 06:45:32			0	37295	0	0	0	20644	19260	135466	27012	980936	39837	107563	0	0	8305	596927	0	0
2024-05-21 06:46:32			0	37260	0	0	0	20636	19250	135478	27263	980946	39848	107560	0	0	8303	598415	0	0
2024-05-21 06:47:32			0	37229	0	0	0	20641	19250	135490	26967	980928	39827	107562	0	0	8302	599705	0	0
2024-05-21 06:48:32			0	37215	0	0	0	20641	19250	135658	27102	980920	39837	107562	0	0	8301	600289	0	0
2024-05-21 06:49:32			0	37185	0	0	0	20638	19250	135714	27360	980954	39827	107561	0	0	8299	601540	0	0
2024-05-21 06:50:32			0	37183	0	0	0	20646	19250	135778	27459	980981	39827	107564	0	0	8299	601624	0	0
2024-05-21 06:51:32			0	37148	0	0	0	20646	19250	135962	27124	980928	39837	107564	0	0	8297	603086	0	0
2024-05-21 06:52:32			0	37148	0	0	0	20646	19250	135954	27060	980981	39837	107564	0	0	8297	603086	0	0
2024-05-21 06:53:32			0	37122	0	0	0	20649	19260	136002	27156	980971	39828	107565	0	0	8296	604141	0	0
2024-05-21 06:54:32			0	37120	0	0	0	20654	19260	136030	27041	981016	39837	107567	0	0	8296	604225	0	0
2024-05-21 06:55:32			0	37115	0	0	0	20657	19260	136122	27211	981016	39859	107568	0	0	8295	604434	0	0
2024-05-21 06:56:32			0	37090	0	0	0	20654	19270	136206	27104	981006	39850	107567	0	0	8294	605449	0	0
2024-05-21 06:57:32			0	37084	0	0	0	20651	19270	136170	27343	981014	39850	107566	0	0	8294	605700	0	0
2024-05-21 06:58:32			0	37056	0	0	0	20654	19260	136222	27561	980963	39859	107567	0	0	8292	606909	0	0
2024-05-21 06:59:32			0	37042	0	0	0	20649	19260	136258	27145	980998	39849	107565	0	0	8292	607497	0	0
2024-05-21 07:00:32			0	37040	0	0	0	20657	19260	136306	27644	980989	39837	107568	0	0	8291	607581	0	0
2024-05-21 07:01:32			0	37003	0	0	0	20646	19270	136386	27360	980953	39839	107564	0	0	8290	609104	0	0
2024-05-21 07:02:32			0	37000	0	0	0	20657	19270	136410	27105	980961	39839	107568	0	0	8289	609230	0	0
2024-05-21 07:03:32			0	37001	0	0	0	20649	19260	136382	27409	980963	39837	107565	0	0	8289	609221	0	0
2024-05-21 07:04:32			0	36992	0	0	0	20641	19260	136442	27305	980963	39848	107562	0	0	8289	609600	0	0
2024-05-21 07:05:32			0	36969	0	0	0	20636	19260	136470	27114	980963	39837	107560	0	0	8288	610570	0	0
2024-05-21 07:06:32			0	36963	0	0	0	20625	19260	136502	27426	980963	39848	107556	0	0	8288	610823	0	0
2024-05-21 07:07:32			0	36966	0	0	0	20625	19260	136630	27327	980883	39837	107556	0	0	8288	610696	0	0
2024-05-21 07:08:32			0	36949	0	0	0	20615	19250	136614	27331	980893	39837	107552	0	0	8287	611447	0	0
2024-05-21 07:09:32			0	36925	0	0	0	20610	19240	136654	27516	980744	39825	107550	0	0	8286	612494	0	0
2024-05-21 07:10:32			0	36934	0	0	0	20607	19230	136718	27163	980727	39835	107549	0	0	8287	612148	0	0
2024-05-21 07:11:32			0	36934	0	0	0	20597	19230	136742	27410	980754	39825	107545	0	0	8287	612148	0	0
2024-05-21 07:12:32			0	36927	0	0	0	20579	19220	136754	27312	980772	39824	107538	0	0	8287	612477	0	0
2024-05-21 07:13:32			0	36902	0	0	0	20594	19220	136778	27448	980745	39824	107544	0	0	8285	613534	0	0
2024-05-21 07:14:32			0	36909	0	0	0	20592	19220	136754	26982	980745	39824	107543	0	0	8285	613238	0	0
2024-05-21 07:15:32			0	36903	0	0	0	20592	19220	136898	27102	980692	39834	107543	0	0	8285	613492	0	0
2024-05-21 07:16:32			0	36896	0	0	0	20584	19220	136854	27234	980684	39833	107540	0	0	8285	613788	0	0
2024-05-21 07:17:32			0	36890	0	0	0	20574	19210	136918	26928	980622	39822	107536	0	0	8285	614075	0	0
2024-05-21 07:18:32			0	36881	0	0	0	20579	19200	136918	27280	980659	39833	107538	0	0	8284	614490	0	0
2024-05-21 07:19:32			0	36885	0	0	0	20571	19220	136954	27331	980657	39801	107535	0	0	8284	614253	0	0
2024-05-21 07:20:32			0	36856	0	0	0	20576	19200	136918	27533	980659	39833	107537	0	0	8283	615550	0	0
2024-05-21 07:21:32			0	36886	0	0	0	20568	19200	136902	27220	980703	39822	107534	0	0	8285	614278	0	0
2024-05-21 07:22:32			0	36871	0	0	0	20566	19200	137054	27616	980659	39811	107533	0	0	8284	614914	0	0
2024-05-21 07:23:32			0	36860	0	0	0	20563	19190	137062	27426	980616	39832	107532	0	0	8283	615414	0	0
2024-05-21 07:24:32			0	36857	0	0	0	20558	19190	137090	27407	980669	39821	107530	0	0	8283	615541	0	0
2024-05-21 07:25:32			0	36866	0	0	0	20553	19190	136966	27305	980616	39821	107528	0	0	8284	615159	0	0
2024-05-21 07:26:32			0	36843	0	0	0	20540	19180	136958	27500	980591	39831	107523	0	0	8283	616169	0	0
2024-05-21 07:27:32			0	36867	0	0	0	20542	19180	137014	27345	980520	39821	107524	0	0	8284	615151	0	0
2024-05-21 07:28:32			0	36842	0	0	0	20540	19180	137034	27383	980511	39831	107523	0	0	8283	616211	0	0
2024-05-21 07:29:32			0	36841	0	0	0	20535	19160	136990	27332	980513	39819	107521	0	0	8283	616321	0	0
2024-05-21 07:30:32			0	36842	0	0	0	20535	19170	136950	27512	980442	39819	107521	0	0	8283	616245	0	0
2024-05-21 07:31:32			0	36867	0	0	0	20529	19150	137062	27599	980470	39806	107519	0	0	8284	615252	0	0
2024-05-21 07:32:32			0	36857	0	0	0	20529	19150	137050	27450	980470	39817	107519	0	0	8283	615676	0	0
2024-05-21 07:33:32			0	36852	0	0	0	20516	19140	137102	27107	980426	39816	107514	0	0	8283	615922	0	0
2024-05-21 07:34:32			0	36832	0	0	0	20519	19140	137010	27445	980471	39805	107515	0	0	8282	616771	0	0
2024-05-21 07:35:32			0	36852	0	0	0	20516	19130	137078	27457	980383	39815	107514	0	0	8283	615956	0	0
2024-05-21 07:36:32			0	36851	0	0	0	20503	19130	137038	27367	980383	39815	107509	0	0	8283	615998	0	0
2024-05-21 07:37:32			0	36838	0	0	0	20498	19130	137022	27381	980428	39826	107507	0	0	8283	616550	0	0
2024-05-21 07:38:32			0	36833	0	0	0	20501	19130	137078	27109	980410	39815	107508	0	0	8283	616762	0	0
2024-05-21 07:39:32			0	36835	0	0	0	20501	19120	137082	27024	980367	39815	107508	0	0	8283	616711	0	0
2024-05-21 07:40:32			0	36817	0	0	0	20501	19130	137186	27079	980348	39815	107508	0	0	8282	617442	0	0
2024-05-21 07:41:32			0	36809	0	0	0	20488	19120	137126	27320	980314	39815	107503	0	0	8281	617816	0	0
2024-05-21 07:42:32			0	36828	0	0	0	20477	19120	137042	27156	980261	39826	107499	0	0	8283	617008	0	0
2024-05-21 07:43:32			0	36829	0	0	0	20488	19120	137110	27324	980305	39826	107503	0	0	8283	616966	0	0
2024-05-21 07:44:32			0	36862	0	0	0	20475	19110	137110	27438	980324	39825	107498	0	0	8284	615599	0	0
2024-05-21 07:45:32			0	36847	0	0	0	20475	19110	137022	26975	980297	39814	107498	0	0	8284	616236	0	0
2024-05-21 07:46:32			0	36821	0	0	0	20470	19110	137030	27223	980368	39813	107496	0	0	8282	617340	0	0
2024-05-21 07:47:32			0	36844	0	0	0	20464	19100	137066	27244	980254	39834	107494	0	0	8284	616397	0	0
2024-05-21 07:48:32			0	36864	0	0	0	20459	19110	137062	27150	980209	39845	107492	0	0	8285	615514	0	0
2024-05-21 07:49:32			0	36849	0	0	0	20457	19100	137082	27414	980245	39802	107491	0	0	8284	616185	0	0
2024-05-21 07:50:32			0	36865	0	0	0	20449	19100	137090	26915	980219	39813	107488	0	0	8285	615506	0	0
2024-05-21 07:51:32			0	36850	0	0	0	20446	19080	137046	27350	980194	39810	107487	0	0	8284	616210	0	0
2024-05-21 07:52:32			0	36846	0	0	0	20449	19080	137202	27196	980149	39811	107488	0	0	8284	616379	0	0
2024-05-21 07:53:32			0	36866	0	0	0	20436	19080	137138	27223	980061	39810	107483	0	0	8285	615531	0	0
2024-05-21 07:54:32			0	36867	0	0	0	20436	19070	137142	27142	980186	39821	107483	0	0	8285	615522	0	0
2024-05-21 07:55:32			0	36862	0	0	0	20438	19070	137014	27819	980159	39810	107484	0	0	8285	615734	0	0
2024-05-21 07:56:32			0	36870	0	0	0	20446	19070	137126	27447	980151	39821	107487	0	0	8285	615395	0	0
2024-05-21 07:57:32			0	36853	0	0	0	20444	19070	137050	26989	980186	39810	107486	0	0	8284	616116	0	0
2024-05-21 07:58:32			0	36854	0	0	0	20441	19070	136982	27611	980106	39821	107485	0	0	8284	616074	0	0
2024-05-21 07:59:32			0	36883	0	0	0	20441	19070	137026	27229	980151	39821	107485	0	0	8286	614844	0	0
2024-05-21 08:00:32			0	36887	0	0	0	20449	19070	137154	27351	980124	39821	107488	0	0	8286	614674	0	0
2024-05-21 08:01:32			0	36882	0	0	0	20451	19060	137110	27131	980134	39831	107489	0	0	8286	614920	0	0
2024-05-21 08:02:32			0	36870	0	0	0	20470	19080	137054	27405	980406	39832	107496	0	0	8285	615361	0	0
2024-05-21 08:03:32			0	36870	0	0	0	20581	19110	137126	27398	980739	39845	107539	0	0	8283	615260	0	0
2024-05-21 08:04:32			0	36854	0	0	0	20711	19150	137022	27486	980920	39872	107589	0	0	8280	615803	0	0
2024-05-21 08:05:32			0	36871	0	0	0	20737	19190	137034	27424	980960	39853	107599	0	0	8281	614948	0	0
2024-05-21 08:06:32			0	36855	0	0	0	20727	19210	136986	27135	980967	39844	107595	0	0	8280	615558	0	0
2024-05-21 08:07:32			0	36852	0	0	0	20698	19210	137078	27419	980914	39833	107584	0	0	8281	615685	0	0
2024-05-21 08:08:32			0	36869	0	0	0	20657	19210	137066	27128	980773	39833	107568	0	0	8282	614965	0	0
2024-05-21 08:09:32			0	36871	0	0	0	20638	19200	137022	27251	980783	39822	107561	0	0	8283	614914	0	0
2024-05-21 08:10:32			0	36885	0	0	0	20638	19210	137086	27126	980932	39822	107561	0	0	8283	614287	0	0
2024-05-21 08:11:32			0	36874	0	0	0	20763	19230	136974	27241	981204	39879	107609	0	0	8281	614685	0	0
2024-05-21 08:12:32			0	36868	0	0	0	20786	19260	137006	27104	981281	39871	107618	0	0	8280	614838	0	0
2024-05-21 08:13:32			0	36867	0	0	0	20758	19270	137034	27112	981120	39850	107607	0	0	8281	614847	0	0
2024-05-21 08:14:32			0	36880	0	0	0	20727	19270	136918	27293	981085	39850	107595	0	0	8282	614296	0	0
2024-05-21 08:15:32			0	36872	0	0	0	20690	19270	136966	27274	981032	39839	107581	0	0	8282	614635	0	0
2024-05-21 08:16:32			0	36878	0	0	0	20675	19250	136922	27071	980981	39827	107575	0	0	8282	614449	0	0
2024-05-21 08:17:32			0	36887	0	0	0	20649	19250	136862	27277	981007	39848	107565	0	0	8283	614067	0	0
2024-05-21 08:18:32			0	36894	0	0	0	20688	19260	136862	27319	981175	39848	107580	0	0	8283	613737	0	0
2024-05-21 08:19:32			0	36884	0	0	0	20706	19290	136898	27227	981304	39863	107587	0	0	8282	614060	0	0
2024-05-21 08:20:32			0	36904	0	0	0	20737	19300	136862	27327	981374	39875	107599	0	0	8283	613180	0	0
2024-05-21 08:21:32			0	36886	0	0	0	20784	19320	136890	27433	981548	39876	107617	0	0	8281	613874	0	0
2024-05-21 08:22:32			0	36888	0	0	0	20836	19340	136870	27322	981626	39867	107637	0	0	8281	613722	0	0
2024-05-21 08:23:32			0	36885	0	0	0	20831	19360	136882	27355	981580	39869	107635	0	0	8281	613781	0	0
2024-05-21 08:24:32			0	36887	0	0	0	20818	19370	136858	27417	981544	39836	107630	0	0	8281	613663	0	0
2024-05-21 08:25:32			0	36870	0	0	0	20799	19360	136770	27206	981562	39870	107623	0	0	8280	614416	0	0
2024-05-21 08:26:32			0	36860	0	0	0	20818	19380	136838	27450	981640	39872	107630	0	0	8280	614772	0	0
2024-05-21 08:27:32			0	36886	0	0	0	20838	19390	136782	27161	981736	39882	107638	0	0	8281	613638	0	0
2024-05-21 08:28:32			0	36885	0	0	0	20846	19410	136762	27043	981716	39873	107641	0	0	8281	613613	0	0
2024-05-21 08:29:32			0	36893	0	0	0	20831	19410	136778	27287	981682	39862	107635	0	0	8281	613274	0	0
2024-05-21 08:30:32			0	36894	0	0	0	20818	19410	136702	26946	981743	39862	107630	0	0	8282	613232	0	0
2024-05-21 08:31:32			0	36900	0	0	0	20820	19410	136746	26935	981663	39862	107631	0	0	8282	612978	0	0
2024-05-21 08:32:32			0	36885	0	0	0	20815	19420	136746	27059	981698	39863	107629	0	0	8281	613579	0	0
2024-05-21 08:33:32			0	36894	0	0	0	20823	19430	136850	26741	981688	39875	107632	0	0	8282	613165	0	0
2024-05-21 08:34:32			0	36894	0	0	0	20820	19420	136714	26842	981645	39852	107631	0	0	8282	613198	0	0
2024-05-21 08:35:32			0	36894	0	0	0	20810	19420	136686	27213	981725	39852	107627	0	0	8282	613198	0	0
2024-05-21 08:36:32			0	36889	0	0	0	20805	19420	136670	27270	981645	39852	107625	0	0	8282	613410	0	0
2024-05-21 08:37:32			0	36883	0	0	0	20802	19420	136702	27157	981672	39863	107624	0	0	8281	613664	0	0
2024-05-21 08:38:32			0	36894	0	0	0	20799	19430	136666	27161	981688	39875	107623	0	0	8282	613165	0	0
2024-05-21 08:39:32			0	36907	0	0	0	20802	19410	136654	27320	981637	39851	107624	0	0	8283	612682	0	0
2024-05-21 08:40:32			0	36914	0	0	0	20802	19420	136646	27187	981698	39841	107624	0	0	8283	612353	0	0
2024-05-21 08:41:32			0	36892	0	0	0	20794	19420	136658	27135	981672	39863	107621	0	0	8282	613283	0	0
2024-05-21 08:42:32			0	36897	0	0	0	20789	19420	136638	27282	981619	39841	107619	0	0	8282	613072	0	0
2024-05-21 08:43:32			0	36904	0	0	0	20786	19400	136634	27142	981514	39851	107618	0	0	8283	612843	0	0
2024-05-21 08:44:32			0	36909	0	0	0	20763	19400	136706	27036	981479	39861	107609	0	0	8283	612632	0	0
2024-05-21 08:45:32			0	36906	0	0	0	20763	19390	136630	27300	981524	39849	107609	0	0	8283	612792	0	0
2024-05-21 08:46:32			0	36900	0	0	0	20748	19390	136662	27298	981498	39849	107603	0	0	8283	613046	0	0
2024-05-21 08:47:32			0	36927	0	0	0	20737	19390	136626	27476	981445	39849	107599	0	0	8285	611905	0	0
2024-05-21 08:48:32			0	36934	0	0	0	20729	19380	136602	27130	981481	39872	107596	0	0	8285	611643	0	0
2024-05-21 08:49:32			0	36918	0	0	0	20737	19370	136634	27284	981411	39836	107599	0	0	8284	612353	0	0
2024-05-21 08:50:32			0	36941	0	0	0	20724	19380	136634	27296	981420	39848	107594	0	0	8286	611348	0	0
2024-05-21 08:51:32			0	36923	0	0	0	20732	19370	136602	27116	981464	39859	107597	0	0	8284	612141	0	0
2024-05-21 08:52:32			0	36940	0	0	0	20737	19380	136582	27123	981446	39848	107599	0	0	8285	611390	0	0
2024-05-21 08:53:32			0	36954	0	0	0	20742	19360	136654	26979	981429	39859	107601	0	0	8286	610867	0	0
2024-05-21 08:54:32			0	36940	0	0	0	20742	19360	136598	27280	981456	39859	107601	0	0	8285	611457	0	0
2024-05-21 08:55:32			0	36958	0	0	0	20745	19360	136558	27436	981482	39847	107602	0	0	8286	610698	0	0
2024-05-21 08:56:32			0	36946	0	0	0	20740	19360	136538	26942	981429	39847	107600	0	0	8285	611204	0	0
2024-05-21 08:57:32			0	36953	0	0	0	20732	19360	136530	27090	981421	39858	107597	0	0	8286	610909	0	0
2024-05-21 08:58:32			0	36958	0	0	0	20729	19350	136450	27215	981386	39847	107596	0	0	8286	610732	0	0
2024-05-21 08:59:32			0	36959	0	0	0	20735	19360	136538	27332	981403	39847	107598	0	0	8286	610656	0	0
2024-05-21 09:00:32			0	36947	0	0	0	20729	19350	136470	27263	981439	39858	107596	0	0	8286	611196	0	0
2024-05-21 09:01:32			0	36970	0	0	0	20742	19350	136498	27384	981386	39858	107601	0	0	8287	610226	0	0
2024-05-21 09:02:32			0	36963	0	0	0	20737	19350	136486	27201	981360	39869	107599	0	0	8286	610521	0	0
2024-05-21 09:03:32			0	36956	0	0	0	20742	19360	136470	27478	981421	39847	107601	0	0	8286	610782	0	0
2024-05-21 09:04:32			0	36971	0	0	0	20750	19360	136498	27386	981456	39847	107604	0	0	8287	610150	0	0
2024-05-21 09:05:32			0	36980	0	0	0	20745	19350	136418	27260	981413	39858	107602	0	0	8287	609804	0	0
2024-05-21 09:06:32			0	36978	0	0	0	20753	19360	136450	27071	981421	39858	107605	0	0	8287	609855	0	0
2024-05-21 09:07:32			0	36967	0	0	0	20750	19350	136498	27310	981404	39846	107604	0	0	8286	610352	0	0
2024-05-21 09:08:32			0	36981	0	0	0	20735	19360	136362	27383	981395	39869	107598	0	0	8287	609729	0	0
2024-05-21 09:09:32			0	36989	0	0	0	20755	19360	136346	27338	981429	39870	107606	0	0	8287	609392	0	0
2024-05-21 09:10:32			0	36983	0	0	0	20753	19360	136414	27438	981456	39870	107605	0	0	8287	609644	0	0
2024-05-21 09:11:32			0	36990	0	0	0	20755	19360	136338	27187	981448	39858	107606	0	0	8288	609350	0	0
2024-05-21 09:12:32			0	36988	0	0	0	20761	19370	136390	27168	981491	39870	107608	0	0	8287	609401	0	0
2024-05-21 09:13:32			0	37005	0	0	0	20755	19360	136318	27362	981509	39859	107606	0	0	8288	608718	0	0
2024-05-21 09:14:32			0	37001	0	0	0	20768	19370	136302	27166	981438	39859	107611	0	0	8288	608853	0	0
2024-05-21 09:15:32			0	37018	0	0	0	20771	19380	136318	27012	981473	39860	107612	0	0	8289	608105	0	0
2024-05-21 09:16:32			0	37015	0	0	0	20771	19370	136202	27398	981544	39870	107612	0	0	8289	608264	0	0
2024-05-21 09:17:32			0	37024	0	0	0	20776	19380	136230	27403	981526	39848	107614	0	0	8289	607853	0	0
2024-05-21 09:18:32			0	37028	0	0	0	20779	19380	136274	27308	981499	39871	107615	0	0	8289	607685	0	0
2024-05-21 09:19:32			0	37036	0	0	0	20774	19380	136226	27265	981499	39871	107613	0	0	8290	607348	0	0
2024-05-21 09:20:32			0	37024	0	0	0	20771	19370	136234	27346	981491	39836	107612	0	0	8289	607886	0	0
2024-05-21 09:21:32			0	37031	0	0	0	20771	19370	136178	27350	981491	39859	107612	0	0	8289	607592	0	0
2024-05-21 09:22:32			0	37042	0	0	0	20771	19370	136250	27293	981491	39880	107612	0	0	8290	607130	0	0
2024-05-21 09:23:32			0	37045	0	0	0	20774	19380	136210	27467	981499	39871	107613	0	0	8290	606971	0	0
2024-05-21 09:24:32			0	37065	0	0	0	20766	19380	136210	27575	981499	39848	107610	0	0	8291	606131	0	0
2024-05-21 09:25:32			0	37062	0	0	0	20771	19360	136166	27377	981482	39870	107612	0	0	8291	606324	0	0
2024-05-21 09:26:32			0	37064	0	0	0	20776	19360	136166	27154	981456	39880	107614	0	0	8291	606240	0	0
2024-05-21 09:27:32			0	37070	0	0	0	20763	19380	136058	27414	981526	39860	107609	0	0	8292	605921	0	0
2024-05-21 09:28:32			0	37078	0	0	0	20766	19360	136162	27441	981482	39859	107610	0	0	8292	605653	0	0
2024-05-21 09:29:32			0	37079	0	0	0	20766	19360	136074	27244	981456	39880	107610	0	0	8292	605611	0	0
2024-05-21 09:30:32			0	37084	0	0	0	20771	19360	136106	27131	981482	39836	107612	0	0	8292	605401	0	0
2024-05-21 09:31:32			0	37085	0	0	0	20766	19370	136050	27332	981464	39859	107610	0	0	8292	605326	0	0
2024-05-21 09:32:32			0	37109	0	0	0	20761	19380	136074	27531	981526	39871	107608	0	0	8294	604287	0	0
2024-05-21 09:33:32			0	37109	0	0	0	20768	19370	135974	27029	981411	39859	107611	0	0	8294	604320	0	0
2024-05-21 09:34:32			0	37093	0	0	0	20776	19360	136002	27072	981395	39858	107614	0	0	8293	605024	0	0
2024-05-21 09:35:32			0	37103	0	0	0	20766	19370	135966	27319	981491	39870	107610	0	0	8293	604572	0	0
2024-05-21 09:36:32			0	37116	0	0	0	20761	19380	136010	27364	981473	39871	107608	0	0	8294	603994	0	0
2024-05-21 09:37:32			0	37116	0	0	0	20758	19380	135922	27360	981473	39860	107607	0	0	8294	603994	0	0
2024-05-21 09:38:32			0	37122	0	0	0	20755	19370	135890	27450	981517	39870	107606	0	0	8295	603776	0	0
2024-05-21 09:39:32			0	37131	0	0	0	20758	19360	135874	27232	981482	39859	107607	0	0	8295	603433	0	0
2024-05-21 09:40:32			0	37144	0	0	0	20755	19360	135826	27338	981429	39859	107606	0	0	8296	602889	0	0
2024-05-21 09:41:32			0	37148	0	0	0	20745	19360	135818	27369	981429	39870	107602	0	0	8296	602722	0	0
2024-05-21 09:42:32			0	37151	0	0	0	20755	19360	135822	27405	981421	39858	107606	0	0	8296	602597	0	0
2024-05-21 09:43:32			0	37179	0	0	0	20755	19360	135726	27079	981456	39859	107606	0	0	8298	601427	0	0
2024-05-21 09:44:32			0	37161	0	0	0	20755	19350	135750	27248	981413	39858	107606	0	0	8297	602212	0	0
2024-05-21 09:45:32			0	37162	0	0	0	20758	19380	135746	27232	981473	39860	107607	0	0	8297	602071	0	0
2024-05-21 09:46:32			0	37160	0	0	0	20758	19370	135818	27199	981464	39847	107607	0	0	8296	602188	0	0
2024-05-21 09:47:32			0	37176	0	0	0	20758	19360	135758	27289	981429	39859	107607	0	0	8297	601553	0	0
2024-05-21 09:48:32			0	37193	0	0	0	20755	19360	135638	27504	981448	39858	107606	0	0	8298	600843	0	0
2024-05-21 09:49:32			0	37174	0	0	0	20758	19360	135722	27557	981403	39847	107607	0	0	8297	601636	0	0
2024-05-21 09:50:32			0	37188	0	0	0	20753	19360	135738	27182	981421	39858	107605	0	0	8298	601052	0	0
2024-05-21 09:51:32			0	37210	0	0	0	20748	19350	135518	27320	981466	39869	107603	0	0	8299	600167	0	0
2024-05-21 09:52:32			0	37214	0	0	0	20745	19360	135650	27473	981368	39858	107602	0	0	8300	599968	0	0
2024-05-21 09:53:32			0	37209	0	0	0	20748	19350	135606	27315	981351	39857	107603	0	0	8299	600209	0	0
2024-05-21 09:54:32			0	37214	0	0	0	20740	19360	135494	27479	981350	39859	107600	0	0	8300	599968	0	0
2024-05-21 09:55:32			0	37219	0	0	0	20732	19340	135574	27493	981343	39845	107597	0	0	8300	599825	0	0
2024-05-21 09:56:32			0	37233	0	0	0	20737	19340	135506	27241	981387	39845	107599	0	0	8301	599242	0	0
2024-05-21 09:57:32			0	37230	0	0	0	20740	19350	135546	26942	981413	39858	107600	0	0	8300	599334	0	0
2024-05-21 09:58:32			0	37237	0	0	0	20737	19340	135558	27559	981414	39856	107599	0	0	8301	599076	0	0
2024-05-21 09:59:32			0	37247	0	0	0	20735	19340	135498	27258	981369	39845	107598	0	0	8301	598660	0	0
2024-05-21 10:00:32			0	37247	0	0	0	20742	19350	135522	27476	981386	39869	107601	0	0	8301	598627	0	0
2024-05-21 10:01:32			0	37244	0	0	0	20748	19350	135490	27355	981378	39857	107603	0	0	8301	598752	0	0
2024-05-21 10:02:32			0	37261	0	0	0	20737	19350	135494	27213	981333	39858	107599	0	0	8302	598044	0	0
2024-05-21 10:03:32			0	37266	0	0	0	20742	19350	135498	27474	981431	39857	107601	0	0	8302	597837	0	0
2024-05-21 10:04:32			0	37266	0	0	0	20742	19350	135530	27564	981404	39868	107601	0	0	8302	597837	0	0
2024-05-21 10:05:32			0	37285	0	0	0	20740	19350	135410	27504	981378	39846	107600	0	0	8303	597047	0	0
2024-05-21 10:06:32			0	37293	0	0	0	20745	19340	135334	27293	981334	39877	107602	0	0	8304	596748	0	0
2024-05-21 10:07:32			0	37267	0	0	0	20740	19340	135318	27274	981369	39867	107600	0	0	8302	597828	0	0
2024-05-21 10:08:32			0	37297	0	0	0	20735	19350	135430	27244	981351	39857	107598	0	0	8304	596549	0	0
2024-05-21 10:09:32			0	37299	0	0	0	20740	19340	135358	27426	981334	39856	107600	0	0	8304	596498	0	0
2024-05-21 10:10:32			0	37308	0	0	0	20735	19350	135310	27481	981378	39857	107598	0	0	8305	596092	0	0
2024-05-21 10:11:32			0	37317	0	0	0	20737	19350	135322	27237	981404	39868	107599	0	0	8305	595719	0	0
2024-05-21 10:12:32			0	37315	0	0	0	20729	19340	135374	27092	981308	39867	107596	0	0	8305	595835	0	0
2024-05-21 10:13:32			0	37318	0	0	0	20724	19350	135271	27326	981351	39857	107594	0	0	8305	595677	0	0
2024-05-21 10:14:32			0	37332	0	0	0	20727	19330	135247	27313	981371	39866	107595	0	0	8306	595162	0	0
2024-05-21 10:15:32			0	37314	0	0	0	20722	19340	135315	27381	981334	39856	107593	0	0	8305	595876	0	0
2024-05-21 10:16:32			0	37328	0	0	0	20706	19330	135251	27209	981247	39867	107587	0	0	8306	595328	0	0
2024-05-21 10:17:32			0	37320	0	0	0	20690	19330	135238	27364	981212	39844	107581	0	0	8306	595660	0	0
2024-05-21 10:18:32			0	37313	0	0	0	20688	19320	135238	27301	981203	39854	107580	0	0	8306	595983	0	0
2024-05-21 10:19:32			0	37331	0	0	0	20670	19310	135231	27038	981213	39843	107573	0	0	8307	595269	0	0
2024-05-21 10:20:32			0	37351	0	0	0	20657	19320	135131	27204	981169	39843	107568	0	0	8308	594408	0	0
2024-05-21 10:21:32			0	37349	0	0	0	20659	19310	135107	27180	981125	39865	107569	0	0	8308	594523	0	0
2024-05-21 10:22:32			0	37360	0	0	0	20641	19290	135123	27055	981013	39840	107562	0	0	8309	594133	0	0
2024-05-21 10:23:32			0	37360	0	0	0	20628	19290	135135	27416	981021	39853	107557	0	0	8309	594133	0	0
2024-05-21 10:24:32			0	37383	0	0	0	20623	19270	135095	27445	980908	39839	107555	0	0	8310	593246	0	0
2024-05-21 10:25:32			0	37392	0	0	0	20610	19270	135115	27156	980935	39839	107550	0	0	8311	592874	0	0
2024-05-21 10:26:32			0	37382	0	0	0	20605	19260	135135	27279	980989	39837	107548	0	0	8310	593320	0	0
2024-05-21 10:27:32			0	37374	0	0	0	20612	19260	135091	27287	980936	39859	107551	0	0	8310	593651	0	0
2024-05-21 10:28:32			0	37375	0	0	0	20602	19250	135035	27066	980867	39837	107547	0	0	8310	593643	0	0
2024-05-21 10:29:32			0	37390	0	0	0	20597	19260	135083	27530	980910	39837	107545	0	0	8311	592989	0	0
2024-05-21 10:30:32			0	37399	0	0	0	20597	19250	135027	27312	980867	39837	107545	0	0	8311	592650	0	0
2024-05-21 10:31:32			0	37383	0	0	0	20597	19240	135027	27291	980850	39846	107545	0	0	8310	593344	0	0
2024-05-21 10:32:32			0	37383	0	0	0	20592	19240	134995	27371	980850	39825	107543	0	0	8311	593344	0	0
2024-05-21 10:33:32			0	37411	0	0	0	20592	19230	135027	27376	980921	39835	107543	0	0	8312	592219	0	0
2024-05-21 10:34:32			0	37404	0	0	0	20607	19230	135055	26981	980921	39846	107549	0	0	8311	592508	0	0
2024-05-21 10:35:32			0	37388	0	0	0	20615	19240	135007	27072	980911	39858	107552	0	0	8310	593137	0	0
2024-05-21 10:36:32			0	37387	0	0	0	20631	19250	134995	27066	981007	39848	107558	0	0	8310	593146	0	0
2024-05-21 10:37:32			0	37402	0	0	0	20649	19250	135059	27556	980981	39848	107565	0	0	8311	592526	0	0
2024-05-21 10:38:32			0	37392	0	0	0	20657	19250	135159	27298	981034	39871	107568	0	0	8310	592939	0	0
2024-05-21 10:39:32			0	37403	0	0	0	20664	19260	135075	27317	981069	39848	107571	0	0	8310	592452	0	0
2024-05-21 10:40:32			0	37394	0	0	0	20672	19270	135091	27015	981059	39861	107574	0	0	8310	592791	0	0
2024-05-21 10:41:32			0	37385	0	0	0	20662	19260	135191	27298	981042	39848	107570	0	0	8310	593196	0	0
2024-05-21 10:42:32			0	37388	0	0	0	20664	19260	135107	27298	980989	39837	107571	0	0	8310	593072	0	0
2024-05-21 10:43:32			0	37395	0	0	0	20646	19250	135059	27315	980954	39837	107564	0	0	8310	592815	0	0
2024-05-21 10:44:32			0	37406	0	0	0	20636	19250	135119	27154	980893	39848	107560	0	0	8311	592361	0	0
2024-05-21 10:45:32			0	37380	0	0	0	20625	19250	135043	27019	980893	39837	107556	0	0	8310	593436	0	0
2024-05-21 10:46:32			0	37395	0	0	0	20618	19240	135039	27202	980885	39847	107553	0	0	8311	592848	0	0
2024-05-21 10:47:32			0	37397	0	0	0	20625	19230	135127	27552	980868	39846	107556	0	0	8311	592798	0	0
2024-05-21 10:48:32			0	37400	0	0	0	20615	19230	135031	27147	980833	39846	107552	0	0	8311	592673	0	0
2024-05-21 10:49:32			0	37414	0	0	0	20602	19220	135011	27360	980798	39846	107547	0	0	8312	592127	0	0
2024-05-21 10:50:32			0	37410	0	0	0	20597	19230	134959	27156	980780	39835	107545	0	0	8312	592260	0	0
2024-05-21 10:51:32			0	37441	0	0	0	20586	19220	135103	27197	980710	39833	107541	0	0	8314	591012	0	0
2024-05-21 10:52:32			0	37429	0	0	0	20579	19210	135027	27133	980694	39833	107538	0	0	8313	591540	0	0
2024-05-21 10:53:32			0	37412	0	0	0	20563	19210	135003	27255	980747	39833	107532	0	0	8312	592243	0	0
2024-05-21 10:54:32			0	37424	0	0	0	20566	19200	135059	27441	980651	39822	107533	0	0	8313	591779	0	0
2024-05-21 10:55:32			0	37425	0	0	0	20568	19180	135083	27389	980599	39842	107534	0	0	8313	591803	0	0
2024-05-21 10:56:32			0	37430	0	0	0	20555	19200	134999	27012	980677	39833	107529	0	0	8313	591531	0	0
2024-05-21 10:57:32			0	37415	0	0	0	20545	19180	135027	27324	980599	39842	107525	0	0	8313	592216	0	0
2024-05-21 10:58:32			0	37419	0	0	0	20545	19190	135051	27341	980581	39842	107525	0	0	8313	592018	0	0
2024-05-21 10:59:32			0	37423	0	0	0	20537	19170	135075	27248	980574	39840	107522	0	0	8313	591918	0	0
2024-05-21 11:00:32			0	37442	0	0	0	20542	19170	135079	27235	980521	39840	107524	0	0	8314	591133	0	0
2024-05-21 11:01:32			0	37426	0	0	0	20537	19160	134975	27098	980557	39829	107522	0	0	8313	591827	0	0
2024-05-21 11:02:32			0	37423	0	0	0	20545	19160	135035	27204	980584	39839	107525	0	0	8313	591951	0	0
2024-05-21 11:03:32			0	37432	0	0	0	20535	19160	135095	27282	980531	39839	107521	0	0	8314	591579	0	0
2024-05-21 11:04:32			0	37443	0	0	0	20542	19160	135055	27078	980610	39839	107524	0	0	8314	591125	0	0
2024-05-21 11:05:32			0	37436	0	0	0	20548	19160	135107	27412	980610	39839	107526	0	0	8314	591414	0	0
2024-05-21 11:06:32			0	37434	0	0	0	20542	19160	135043	27185	980610	39851	107524	0	0	8314	591496	0	0
2024-05-21 11:07:32			0	37431	0	0	0	20542	19170	135051	26906	980654	39840	107524	0	0	8314	591588	0	0
2024-05-21 11:08:32			0	37441	0	0	0	20563	19170	134931	27345	980627	39840	107532	0	0	8314	591175	0	0
2024-05-21 11:09:32			0	37426	0	0	0	20574	19180	134987	27322	980750	39852	107536	0	0	8313	591762	0	0
2024-05-21 11:10:32			0	37452	0	0	0	20586	19180	134899	27300	980758	39853	107541	0	0	8314	590688	0	0
2024-05-21 11:11:32			0	37444	0	0	0	20597	19190	134951	27364	980713	39853	107545	0	0	8313	590986	0	0
2024-05-21 11:12:32			0	37431	0	0	0	20607	19190	134955	27395	980793	39853	107549	0	0	8313	591523	0	0
2024-05-21 11:13:32			0	37438	0	0	0	20610	19200	134979	26873	980738	39833	107550	0	0	8313	591201	0	0
2024-05-21 11:14:32			0	37439	0	0	0	20612	19200	134943	27428	980783	39865	107551	0	0	8313	591160	0	0
2024-05-21 11:15:32			0	37450	0	0	0	20612	19200	134947	27383	980765	39855	107551	0	0	8314	590706	0	0
2024-05-21 11:16:32			0	37445	0	0	0	20615	19190	134899	27588	980748	39853	107552	0	0	8313	590945	0	0
2024-05-21 11:17:32			0	37446	0	0	0	20607	19210	134907	27431	980826	39855	107549	0	0	8313	590839	0	0
2024-05-21 11:18:32			0	37466	0	0	0	20597	19200	134963	27476	980730	39843	107545	0	0	8315	590046	0	0
2024-05-21 11:19:32			0	37462	0	0	0	20599	19200	134923	27248	980783	39833	107546	0	0	8314	590211	0	0
2024-05-21 11:20:32			0	37456	0	0	0	20602	19200	134883	26935	980791	39855	107547	0	0	8314	590458	0	0
2024-05-21 11:21:32			0	37476	0	0	0	20589	19210	134835	27441	980747	39844	107542	0	0	8315	589601	0	0
2024-05-21 11:22:32			0	37476	0	0	0	20586	19190	134827	27114	980722	39842	107541	0	0	8315	589666	0	0
2024-05-21 11:23:32			0	37483	0	0	0	20589	19210	134775	26908	980773	39844	107542	0	0	8316	589313	0	0
2024-05-21 11:24:32			0	37478	0	0	0	20589	19200	134759	27206	980765	39844	107542	0	0	8315	589551	0	0
2024-05-21 11:25:32			0	37509	0	0	0	20576	19190	134619	27332	980713	39832	107537	0	0	8317	588307	0	0
2024-05-21 11:26:32			0	37513	0	0	0	20574	19190	134667	27327	980695	39842	107536	0	0	8317	588143	0	0
2024-05-21 11:27:32			0	37510	0	0	0	20579	19180	134759	27374	980652	39842	107538	0	0	8317	588299	0	0
2024-05-21 11:28:32			0	37514	0	0	0	20574	19170	134647	27424	980627	39851	107536	0	0	8317	588166	0	0
2024-05-21 11:29:32			0	37545	0	0	0	20566	19180	134675	27364	980652	39832	107533	0	0	8319	586860	0	0
2024-05-21 11:30:32			0	37539	0	0	0	20566	19170	134467	27223	980582	39851	107533	0	0	8319	587138	0	0
2024-05-21 11:31:32			0	37555	0	0	0	20555	19170	134491	27194	980654	39840	107529	0	0	8320	586481	0	0
2024-05-21 11:32:32			0	37560	0	0	0	20555	19160	134439	27098	980566	39840	107529	0	0	8320	586308	0	0
2024-05-21 11:33:32			0	37544	0	0	0	20553	19160	134391	27296	980539	39830	107528	0	0	8319	586965	0	0
2024-05-21 11:34:32			0	37572	0	0	0	20548	19160	134487	27171	980531	39839	107526	0	0	8321	585815	0	0
2024-05-21 11:35:32			0	37557	0	0	0	20542	19150	134331	27376	980602	39839	107524	0	0	8320	586463	0	0
2024-05-21 11:36:32			0	37579	0	0	0	20540	19150	134391	27455	980576	39839	107523	0	0	8321	585560	0	0
2024-05-21 11:37:32			0	37578	0	0	0	20540	19160	134363	27383	980504	39839	107523	0	0	8321	585569	0	0
2024-05-21 11:38:32			0	37610	0	0	0	20542	19160	134395	27218	980619	39840	107524	0	0	8323	584257	0	0
2024-05-21 11:39:32			0	37589	0	0	0	20550	19170	134239	27367	980548	39840	107527	0	0	8322	585086	0	0
2024-05-21 11:40:32			0	37609	0	0	0	20545	19150	134327	27206	980576	39839	107525	0	0	8323	584330	0	0
2024-05-21 11:41:32			0	37622	0	0	0	20542	19160	134199	27137	980610	39839	107524	0	0	8324	583766	0	0
2024-05-21 11:42:32			0	37622	0	0	0	20542	19160	134259	27124	980531	39829	107524	0	0	8324	583766	0	0
2024-05-21 11:43:32			0	37612	0	0	0	20548	19160	134191	26927	980584	39839	107526	0	0	8323	584175	0	0
2024-05-21 11:44:32			0	37635	0	0	0	20545	19150	134191	27154	980629	39839	107525	0	0	8324	583266	0	0
2024-05-21 11:45:32			0	37601	0	0	0	20548	19160	134091	27303	980637	39829	107526	0	0	8322	584626	0	0
2024-05-21 11:46:32			0	37656	0	0	0	20545	19160	134115	26745	980584	39839	107525	0	0	8325	582375	0	0
2024-05-21 11:47:32			0	37639	0	0	0	20550	19150	134119	27371	980602	39828	107527	0	0	8324	583102	0	0
2024-05-21 11:48:32			0	37649	0	0	0	20553	19150	134131	27187	980602	39828	107528	0	0	8325	582693	0	0
2024-05-21 11:49:32			0	37639	0	0	0	20561	19150	134171	27114	980629	39828	107531	0	0	8324	583102	0	0
2024-05-21 11:50:32			0	37664	0	0	0	20555	19150	133987	27190	980602	39850	107529	0	0	8326	582080	0	0
2024-05-21 11:51:32			0	37663	0	0	0	20550	19160	134095	27208	980584	39851	107527	0	0	8326	582089	0	0
2024-05-21 11:52:32			0	37655	0	0	0	20555	19160	134043	27137	980645	39851	107529	0	0	8325	582416	0	0
2024-05-21 11:53:32			0	37661	0	0	0	20555	19160	134083	26927	980672	39830	107529	0	0	8325	582170	0	0
2024-05-21 11:54:32			0	37683	0	0	0	20548	19160	134095	27156	980637	39839	107526	0	0	8327	581272	0	0
2024-05-21 11:55:32			0	37646	0	0	0	20550	19160	134003	27395	980637	39851	107527	0	0	8325	582783	0	0
2024-05-21 11:56:32			0	37676	0	0	0	20558	19160	133987	26994	980610	39839	107530	0	0	8326	581557	0	0
2024-05-21 11:57:32			0	37682	0	0	0	20548	19160	133979	27507	980663	39829	107526	0	0	8327	581312	0	0
2024-05-21 11:58:32			0	37684	0	0	0	20550	19150	134067	27168	980576	39828	107527	0	0	8327	581263	0	0
2024-05-21 11:59:32			0	37698	0	0	0	20550	19160	134031	26627	980592	39830	107527	0	0	8327	580659	0	0
2024-05-21 12:00:32			0	37685	0	0	0	20548	19170	134015	27260	980680	39840	107526	0	0	8327	581158	0	0
2024-05-21 12:01:32			0	37716	0	0	0	20550	19170	134031	27187	980680	39840	107527	0	0	8328	579893	0	0
2024-05-21 12:02:32			0	37711	0	0	0	20571	19180	133907	27052	980644	39852	107535	0	0	8328	580065	0	0
2024-05-21 12:03:32			0	37730	0	0	0	20568	19170	133931	27112	980707	39840	107534	0	0	8329	579323	0	0
2024-05-21 12:04:32			0	37706	0	0	0	20576	19180	133991	27383	980758	39853	107537	0	0	8327	580269	0	0
2024-05-21 12:05:32			0	37717	0	0	0	20586	19190	133939	27352	980801	39853	107541	0	0	8328	579789	0	0
2024-05-21 12:06:32			0	37723	0	0	0	20594	19190	133903	27230	980766	39853	107544	0	0	8328	579544	0	0
2024-05-21 12:07:32			0	37716	0	0	0	20589	19200	133903	27303	980783	39854	107542	0	0	8328	579798	0	0
2024-05-21 12:08:32			0	37699	0	0	0	20602	19190	133895	27196	980775	39853	107547	0	0	8327	580523	0	0
2024-05-21 12:09:32			0	37706	0	0	0	20599	19190	133939	27147	980801	39853	107546	0	0	8327	580237	0	0
2024-05-21 12:10:32			0	37712	0	0	0	20612	19200	133839	27225	980844	39855	107551	0	0	8327	579961	0	0
2024-05-21 12:11:32			0	37726	0	0	0	20607	19190	133827	27031	980775	39842	107549	0	0	8328	579422	0	0
2024-05-21 12:12:32			0	37717	0	0	0	20610	19200	133903	27365	980791	39855	107550	0	0	8328	579757	0	0
2024-05-21 12:13:32			0	37742	0	0	0	20599	19200	133879	27216	980818	39855	107546	0	0	8329	578739	0	0
2024-05-21 12:14:32			0	37716	0	0	0	20607	19200	133835	27514	980765	39833	107549	0	0	8328	579798	0	0
2024-05-21 12:15:32			0	37738	0	0	0	20610	19200	133815	27505	980871	39844	107550	0	0	8329	578901	0	0
2024-05-21 12:16:32			0	37734	0	0	0	20599	19200	133783	27467	980818	39855	107546	0	0	8329	579064	0	0
2024-05-21 12:17:32			0	37751	0	0	0	20592	19200	133815	27422	980738	39855	107543	0	0	8330	578372	0	0
2024-05-21 12:18:32			0	37751	0	0	0	20592	19200	133727	27093	980818	39844	107543	0	0	8330	578372	0	0
2024-05-21 12:19:32			0	37754	0	0	0	20586	19190	133703	27126	980748	39853	107541	0	0	8330	578282	0	0
2024-05-21 12:20:32			0	37766	0	0	0	20589	19200	133715	26878	980730	39854	107542	0	0	8330	577762	0	0
2024-05-21 12:21:32			0	37786	0	0	0	20586	19200	133743	27313	980791	39844	107541	0	0	8332	576949	0	0
2024-05-21 12:22:32			0	37786	0	0	0	20589	19190	133691	27327	980801	39853	107542	0	0	8332	576981	0	0
2024-05-21 12:23:32			0	37780	0	0	0	20584	19200	133715	27081	980756	39854	107540	0	0	8331	577193	0	0
2024-05-21 12:24:32			0	37776	0	0	0	20589	19200	133727	27365	980783	39843	107542	0	0	8331	577355	0	0
2024-05-21 12:25:32			0	37765	0	0	0	20592	19200	133779	27424	980730	39843	107543	0	0	8330	577803	0	0
2024-05-21 12:26:32			0	37781	0	0	0	20592	19200	133639	27348	980783	39843	107543	0	0	8331	577152	0	0
2024-05-21 12:27:32			0	37776	0	0	0	20594	19200	133731	27178	980730	39854	107544	0	0	8331	577355	0	0
2024-05-21 12:28:32			0	37791	0	0	0	20594	19210	133659	27327	980906	39855	107544	0	0	8332	576714	0	0
2024-05-21 12:29:32			0	37769	0	0	0	20599	19200	133659	27249	980871	39844	107546	0	0	8330	577640	0	0
2024-05-21 12:30:32			0	37795	0	0	0	20602	19210	133683	27391	980834	39844	107547	0	0	8332	576552	0	0
2024-05-21 12:31:32			0	37796	0	0	0	20599	19210	133603	27157	980853	39855	107546	0	0	8332	576511	0	0
2024-05-21 12:32:32			0	37793	0	0	0	20597	19200	133639	27194	980871	39844	107545	0	0	8332	576665	0	0
2024-05-21 12:33:32			0	37785	0	0	0	20597	19210	133595	27123	980773	39855	107545	0	0	8331	576958	0	0
2024-05-21 12:34:32			0	37800	0	0	0	20594	19220	133607	27215	980790	39833	107544	0	0	8332	576317	0	0
2024-05-21 12:35:32			0	37783	0	0	0	20592	19210	133655	27348	980773	39844	107543	0	0	8331	577039	0	0
2024-05-21 12:36:32			0	37800	0	0	0	20589	19200	133551	27173	980738	39844	107542	0	0	8332	576380	0	0
2024-05-21 12:37:32			0	37788	0	0	0	20586	19200	133531	27152	980730	39843	107541	0	0	8332	576868	0	0
2024-05-21 12:38:32			0	37799	0	0	0	20584	19190	133563	27306	980722	39864	107540	0	0	8332	576453	0	0
2024-05-21 12:39:32			0	37801	0	0	0	20576	19200	133611	27287	980703	39833	107537	0	0	8333	576340	0	0
2024-05-21 12:40:32			0	37814	0	0	0	20581	19180	133543	27218	980652	39832	107539	0	0	8333	575875	0	0
2024-05-21 12:41:32			0	37804	0	0	0	20579	19190	133583	27105	980687	39842	107538	0	0	8333	576249	0	0
2024-05-21 12:42:32			0	37794	0	0	0	20568	19180	133535	27284	980652	39853	107534	0	0	8332	576687	0	0
2024-05-21 12:43:32			0	37806	0	0	0	20576	19180	133567	27333	980652	39842	107537	0	0	8333	576200	0	0
2024-05-21 12:44:32			0	37799	0	0	0	20568	19190	133487	27576	980687	39842	107534	0	0	8333	576453	0	0
2024-05-21 12:45:32			0	37818	0	0	0	20581	19190	133563	27319	980775	39842	107539	0	0	8333	575681	0	0
2024-05-21 12:46:32			0	37816	0	0	0	20576	19180	133579	27377	980705	39832	107537	0	0	8333	575794	0	0
2024-05-21 12:47:32			0	37806	0	0	0	20581	19190	133631	27234	980775	39842	107539	0	0	8333	576168	0	0
2024-05-21 12:48:32			0	37803	0	0	0	20586	19190	133575	27578	980722	39853	107541	0	0	8332	576290	0	0
2024-05-21 12:49:32			0	37800	0	0	0	20586	19190	133639	27241	980713	39853	107541	0	0	8332	576412	0	0
2024-05-21 12:50:32			0	37809	0	0	0	20586	19190	133639	27582	980748	39842	107541	0	0	8333	576047	0	0
2024-05-21 12:51:32			0	37799	0	0	0	20592	19200	133607	27156	980783	39854	107543	0	0	8332	576421	0	0
2024-05-21 12:52:32			0	37797	0	0	0	20584	19190	133603	27270	980687	39842	107540	0	0	8332	576534	0	0
2024-05-21 12:53:32			0	37781	0	0	0	20579	19190	133619	27479	980713	39853	107538	0	0	8331	577184	0	0
2024-05-21 12:54:32			0	37787	0	0	0	20579	19190	133623	27412	980740	39832	107538	0	0	8332	576940	0	0
2024-05-21 12:55:32			0	37795	0	0	0	20576	19190	133587	27483	980748	39864	107537	0	0	8332	576615	0	0
2024-05-21 12:56:32			0	37790	0	0	0	20576	19180	133659	27291	980785	39864	107537	0	0	8332	576850	0	0
2024-05-21 12:57:32			0	37789	0	0	0	20576	19180	133583	27246	980731	39842	107537	0	0	8332	576890	0	0
2024-05-21 12:58:32			0	37792	0	0	0	20584	19180	133647	27092	980723	39852	107540	0	0	8332	576768	0	0
2024-05-21 12:59:32			0	37782	0	0	0	20584	19200	133675	27557	980730	39843	107540	0	0	8331	577111	0	0
2024-05-21 13:00:32			0	37784	0	0	0	20589	19190	133671	27277	980801	39853	107542	0	0	8331	577062	0	0
2024-05-21 13:01:32			0	37776	0	0	0	20594	19190	133671	27225	980722	39853	107544	0	0	8331	577387	0	0
2024-05-21 13:02:32			0	37769	0	0	0	20584	19190	133635	26831	980793	39853	107540	0	0	8331	577672	0	0
2024-05-21 13:03:32			0	37773	0	0	0	20586	19190	133615	27218	980775	39853	107541	0	0	8331	577509	0	0
2024-05-21 13:04:32			0	37774	0	0	0	20597	19190	133655	26925	980801	39842	107545	0	0	8331	577468	0	0
2024-05-21 13:05:32			0	37785	0	0	0	20605	19190	133663	26918	980801	39853	107548	0	0	8331	577021	0	0
2024-05-21 13:06:32			0	37766	0	0	0	20607	19190	133739	27118	980775	39842	107549	0	0	8330	577794	0	0
2024-05-21 13:07:32			0	37762	0	0	0	20612	19210	133779	27173	980800	39844	107551	0	0	8330	577893	0	0
2024-05-21 13:08:32			0	37752	0	0	0	20605	19210	133667	27424	980826	39866	107548	0	0	8330	578300	0	0
2024-05-21 13:09:32			0	37752	0	0	0	20605	19200	133655	27390	980818	39855	107548	0	0	8329	578332	0	0
2024-05-21 13:10:32			0	37763	0	0	0	20610	19200	133639	26953	980871	39855	107550	0	0	8330	577884	0	0
2024-05-21 13:11:32			0	37752	0	0	0	20605	19210	133699	27334	980879	39866	107548	0	0	8330	578300	0	0
2024-05-21 13:12:32			0	37735	0	0	0	20623	19200	133719	27421	980818	39876	107555	0	0	8328	579024	0	0
2024-05-21 13:13:32			0	37750	0	0	0	20623	19210	133671	27307	980887	39844	107555	0	0	8329	578381	0	0
2024-05-21 13:14:32			0	37748	0	0	0	20625	19220	133719	27232	980878	39846	107556	0	0	8329	578431	0	0
2024-05-21 13:15:32			0	37757	0	0	0	20628	19210	133783	27201	980914	39855	107557	0	0	8329	578096	0	0
2024-05-21 13:16:32			0	37754	0	0	0	20631	19220	133827	27182	980949	39845	107558	0	0	8329	578187	0	0
2024-05-21 13:17:32			0	37754	0	0	0	20633	19220	133731	27346	980922	39845	107559	0	0	8329	578187	0	0
2024-05-21 13:18:32			0	37740	0	0	0	20636	19240	133743	27152	980982	39846	107560	0	0	8329	578693	0	0
2024-05-21 13:19:32			0	37756	0	0	0	20620	19220	133767	27265	980878	39868	107554	0	0	8330	578105	0	0
2024-05-21 13:20:32			0	37757	0	0	0	20612	19220	133807	27369	980922	39856	107551	0	0	8330	578065	0	0
2024-05-21 13:21:32			0	37775	0	0	0	20618	19220	133663	27320	980816	39856	107553	0	0	8331	577333	0	0
2024-05-21 13:22:32			0	37773	0	0	0	20602	19220	133655	27606	980843	39856	107547	0	0	8331	577414	0	0
2024-05-21 13:23:32			0	37773	0	0	0	20607	19220	133711	27260	980869	39845	107549	0	0	8331	577414	0	0
2024-05-21 13:24:32			0	37775	0	0	0	20605	19210	133691	27279	980781	39855	107548	0	0	8331	577364	0	0
2024-05-21 13:25:32			0	37770	0	0	0	20602	19220	133715	26831	980843	39856	107547	0	0	8331	577536	0	0
2024-05-21 13:26:32			0	37775	0	0	0	20610	19210	133667	27306	980826	39855	107550	0	0	8331	577364	0	0
2024-05-21 13:27:32			0	37766	0	0	0	20599	19210	133599	27069	980861	39855	107546	0	0	8330	577730	0	0
2024-05-21 13:28:32			0	37786	0	0	0	20599	19210	133695	27170	980834	39844	107546	0	0	8331	576917	0	0
2024-05-21 13:29:32			0	37799	0	0	0	20602	19200	133627	27218	980791	39855	107547	0	0	8332	576421	0	0
2024-05-21 13:30:32			0	37827	0	0	0	20605	19210	133611	26989	980834	39866	107548	0	0	8333	575253	0	0
2024-05-21 13:31:32			0	37797	0	0	0	20597	19210	133607	27057	980773	39855	107545	0	0	8332	576470	0	0
2024-05-21 13:32:32			0	37813	0	0	0	20594	19200	133535	27078	980871	39855	107544	0	0	8333	575852	0	0
2024-05-21 13:33:32			0	37816	0	0	0	20607	19210	133527	26790	980853	39855	107549	0	0	8333	575699	0	0
2024-05-21 13:34:32			0	37808	0	0	0	20592	19210	133427	27159	980800	39844	107543	0	0	8333	576024	0	0
2024-05-21 13:35:32			0	37829	0	0	0	20592	19200	133523	27112	980765	39855	107543	0	0	8334	575203	0	0
2024-05-21 13:36:32			0	37849	0	0	0	20571	19200	133507	27069	980783	39843	107535	0	0	8335	574393	0	0
2024-05-21 13:37:32			0	37862	0	0	0	20574	19190	133379	27111	980748	39853	107536	0	0	8336	573898	0	0
2024-05-21 13:38:32			0	37844	0	0	0	20574	19190	133411	27241	980713	39853	107536	0	0	8335	574627	0	0
2024-05-21 13:39:32			0	37842	0	0	0	20574	19190	133411	27019	980713	39842	107536	0	0	8335	574708	0	0
2024-05-21 13:40:32			0	37858	0	0	0	20566	19190	133419	27013	980687	39842	107533	0	0	8336	574059	0	0
2024-05-21 13:41:32			0	37870	0	0	0	20563	19180	133391	27253	980705	39842	107532	0	0	8336	573605	0	0
2024-05-21 13:42:32			0	37871	0	0	0	20558	19180	133299	27320	980652	39842	107530	0	0	8336	573565	0	0
2024-05-21 13:43:32			0	37873	0	0	0	20558	19180	133367	27149	980670	39852	107530	0	0	8337	573484	0	0
2024-05-21 13:44:32			0	37874	0	0	0	20553	19180	133243	27384	980670	39852	107528	0	0	8337	573443	0	0
2024-05-21 13:45:32			0	37871	0	0	0	20555	19170	133335	27275	980654	39851	107529	0	0	8336	573596	0	0
2024-05-21 13:46:32			0	37900	0	0	0	20548	19170	133259	26932	980627	39851	107526	0	0	8338	572423	0	0
2024-05-21 13:47:32			0	37888	0	0	0	20545	19170	133231	27171	980654	39840	107525	0	0	8338	572908	0	0
2024-05-21 13:48:32			0	37909	0	0	0	20540	19160	133347	27303	980619	39830	107523	0	0	8339	572090	0	0
2024-05-21 13:49:32			0	37913	0	0	0	20542	19160	133335	27046	980584	39851	107524	0	0	8339	571929	0	0
2024-05-21 13:50:32			0	37897	0	0	0	20537	19160	133227	27211	980557	39839	107522	0	0	8338	572576	0	0
2024-05-21 13:51:32			0	37920	0	0	0	20527	19150	133259	26961	980549	39850	107518	0	0	8339	571677	0	0
2024-05-21 13:52:32			0	37930	0	0	0	20527	19150	133179	27343	980549	39839	107518	0	0	8340	571273	0	0
2024-05-21 13:53:32			0	37935	0	0	0	20535	19140	133083	27024	980604	39827	107521	0	0	8340	571103	0	0
2024-05-21 13:54:32			0	37945	0	0	0	20540	19160	133115	27284	980637	39851	107523	0	0	8341	570637	0	0
2024-05-21 13:55:32			0	37926	0	0	0	20553	19160	133079	26932	980663	39851	107528	0	0	8339	571404	0	0
2024-05-21 13:56:32			0	37952	0	0	0	20568	19170	133143	27020	980688	39840	107534	0	0	8340	570323	0	0
2024-05-21 13:57:32			0	37915	0	0	0	20574	19170	133135	26901	980715	39851	107536	0	0	8338	571816	0	0
2024-05-21 13:58:32			0	37935	0	0	0	20586	19170	133111	26986	980733	39863	107541	0	0	8339	571009	0	0
2024-05-21 13:59:32			0	37943	0	0	0	20584	19170	133135	27282	980768	39851	107540	0	0	8340	570686	0	0
2024-05-21 14:00:32			0	37955	0	0	0	20594	19170	133107	27131	980813	39840	107544	0	0	8340	570202	0	0
2024-05-21 14:01:32			0	37924	0	0	0	20592	19180	133091	27256	980758	39853	107543	0	0	8339	571422	0	0
2024-05-21 14:02:32			0	37958	0	0	0	20589	19190	133163	27138	980846	39864	107542	0	0	8341	570018	0	0
2024-05-21 14:03:32			0	37966	0	0	0	20592	19190	133111	26883	980713	39864	107543	0	0	8341	569696	0	0
2024-05-21 14:04:32			0	37964	0	0	0	20594	19180	133079	26909	980785	39853	107544	0	0	8341	569808	0	0
2024-05-21 14:05:32			0	37969	0	0	0	20594	19180	133059	26913	980731	39853	107544	0	0	8341	569606	0	0
2024-05-21 14:06:32			0	37966	0	0	0	20597	19190	133075	27201	980766	39875	107545	0	0	8341	569696	0	0
2024-05-21 14:07:32			0	37954	0	0	0	20599	19190	133031	26816	980854	39864	107546	0	0	8340	570180	0	0
2024-05-21 14:08:32			0	37980	0	0	0	20602	19190	133003	26906	980828	39853	107547	0	0	8341	569132	0	0
2024-05-21 14:09:32			0	37973	0	0	0	20605	19200	132943	27433	980809	39854	107548	0	0	8341	569382	0	0
2024-05-21 14:10:32			0	37971	0	0	0	20610	19200	132955	27222	980897	39866	107550	0	0	8341	569463	0	0
2024-05-21 14:11:32			0	37995	0	0	0	20615	19210	132855	27246	980906	39855	107552	0	0	8342	568465	0	0
2024-05-21 14:12:32			0	37990	0	0	0	20620	19210	132883	27372	980887	39855	107554	0	0	8342	568666	0	0
2024-05-21 14:13:32			0	37983	0	0	0	20602	19210	132863	27291	980834	39855	107547	0	0	8342	568948	0	0
2024-05-21 14:14:32			0	38017	0	0	0	20610	19220	132967	27372	980869	39877	107550	0	0	8343	567549	0	0
2024-05-21 14:15:32			0	38006	0	0	0	20618	19210	132903	27291	980932	39855	107553	0	0	8343	568022	0	0
2024-05-21 14:16:32			0	37993	0	0	0	20615	19220	132867	27320	980922	39856	107552	0	0	8342	568514	0	0
2024-05-21 14:17:32			0	37999	0	0	0	20618	19220	132887	27144	980896	39867	107553	0	0	8342	568273	0	0
2024-05-21 14:18:32			0	38008	0	0	0	20620	19210	132855	27312	980940	39855	107554	0	0	8343	567942	0	0
2024-05-21 14:19:32			0	38018	0	0	0	20623	19220	132879	27104	980922	39867	107555	0	0	8343	567508	0	0
2024-05-21 14:20:32			0	38025	0	0	0	20633	19230	132847	27036	981019	39869	107559	0	0	8343	567196	0	0
2024-05-21 14:21:32			0	38007	0	0	0	20641	19230	132903	27092	981027	39858	107562	0	0	8342	567920	0	0
2024-05-21 14:22:32			0	38011	0	0	0	20657	19230	132931	26949	980992	39869	107568	0	0	8342	567759	0	0
2024-05-21 14:23:32			0	38013	0	0	0	20657	19240	132807	27327	981044	39858	107568	0	0	8342	567647	0	0
2024-05-21 14:24:32			0	38033	0	0	0	20654	19230	132895	27267	981054	39846	107567	0	0	8343	566874	0	0
2024-05-21 14:25:32			0	38030	0	0	0	20654	19240	132811	27071	981097	39858	107567	0	0	8343	566964	0	0
2024-05-21 14:26:32			0	38017	0	0	0	20664	19250	132763	27230	981052	39871	107571	0	0	8343	567455	0	0
2024-05-21 14:27:32			0	38013	0	0	0	20659	19260	132771	26809	981095	39859	107569	0	0	8342	567585	0	0
2024-05-21 14:28:32			0	38046	0	0	0	20657	19260	132784	26899	981095	39859	107568	0	0	8344	566259	0	0
2024-05-21 14:29:32			0	38039	0	0	0	20664	19250	132764	27400	981079	39881	107571	0	0	8344	566571	0	0
2024-05-21 14:30:32			0	38039	0	0	0	20654	19260	132824	27352	981069	39859	107567	0	0	8344	566540	0	0
2024-05-21 14:31:32			0	38061	0	0	0	20662	19250	132784	27187	981105	39848	107570	0	0	8345	565688	0	0
2024-05-21 14:32:32			0	38067	0	0	0	20659	19250	132644	27415	981113	39859	107569	0	0	8345	565447	0	0
2024-05-21 14:33:32			0	38054	0	0	0	20667	19260	132712	27270	981104	39860	107572	0	0	8344	565938	0	0
2024-05-21 14:34:32			0	38035	0	0	0	20677	19260	132612	27303	981183	39871	107576	0	0	8343	566701	0	0
2024-05-21 14:35:32			0	38047	0	0	0	20672	19270	132736	27100	981112	39883	107574	0	0	8344	566188	0	0
2024-05-21 14:36:32			0	38038	0	0	0	20672	19260	132640	27275	981175	39871	107574	0	0	8344	566580	0	0
2024-05-21 14:37:32			0	38058	0	0	0	20659	19260	132660	27098	981069	39848	107569	0	0	8345	565778	0	0
2024-05-21 14:38:32			0	38086	0	0	0	20664	19260	132656	27424	981130	39882	107571	0	0	8346	564655	0	0
2024-05-21 14:39:32			0	38069	0	0	0	20667	19270	132640	27348	981094	39861	107572	0	0	8345	565305	0	0
2024-05-21 14:40:32			0	38066	0	0	0	20664	19270	132536	27059	981112	39861	107571	0	0	8345	565425	0	0
2024-05-21 14:41:32			0	38089	0	0	0	20667	19270	132488	27306	981165	39872	107572	0	0	8346	564503	0	0
2024-05-21 14:42:32			0	38085	0	0	0	20677	19270	132580	27353	981200	39883	107576	0	0	8346	564664	0	0
2024-05-21 14:43:32			0	38105	0	0	0	20677	19270	132496	27241	981138	39872	107576	0	0	8347	563862	0	0
2024-05-21 14:44:32			0	38099	0	0	0	20672	19260	132544	27291	981148	39859	107574	0	0	8347	564134	0	0
2024-05-21 14:45:32			0	38101	0	0	0	20667	19270	132468	27396	981147	39872	107572	0	0	8347	564023	0	0
2024-05-21 14:46:32			0	38126	0	0	0	20675	19270	132420	27138	981138	39861	107575	0	0	8348	563022	0	0
2024-05-21 14:47:32			0	38131	0	0	0	20670	19270	132336	27001	981138	39872	107573	0	0	8349	562822	0	0
2024-05-21 14:48:32			0	38168	0	0	0	20667	19270	132408	27398	981138	39872	107572	0	0	8350	561343	0	0
2024-05-21 14:49:32			0	38172	0	0	0	20672	19280	132240	26955	981155	39872	107574	0	0	8351	561153	0	0
2024-05-21 14:50:32			0	38210	0	0	0	20672	19270	132148	27220	981147	39850	107574	0	0	8353	559668	0	0
2024-05-21 14:51:32			0	38214	0	0	0	20680	19280	132156	27005	981128	39861	107577	0	0	8353	559478	0	0
2024-05-21 14:52:32			0	38250	0	0	0	20670	19280	131984	27303	981216	39883	107573	0	0	8355	558044	0	0
2024-05-21 14:53:32			0	38252	0	0	0	20672	19270	132024	27189	981191	39850	107574	0	0	8355	557995	0	0
2024-05-21 14:54:32			0	38260	0	0	0	20670	19280	131992	27078	981128	39872	107573	0	0	8355	557647	0	0
2024-05-21 14:55:32			0	38298	0	0	0	20677	19280	131868	27327	981155	39883	107576	0	0	8357	556137	0	0
2024-05-21 14:56:32			0	38317	0	0	0	20667	19280	131812	27215	981190	39873	107572	0	0	8358	555383	0	0
2024-05-21 14:57:32			0	38323	0	0	0	20670	19280	131688	27066	981190	39862	107573	0	0	8359	555145	0	0
2024-05-21 14:58:32			0	38337	0	0	0	20672	19280	131716	27168	981155	39872	107574	0	0	8359	554590	0	0
2024-05-21 14:59:32			0	38338	0	0	0	20662	19270	131656	27575	981173	39883	107570	0	0	8359	554581	0	0
2024-05-21 15:00:32			0	38367	0	0	0	20670	19280	131620	27156	981288	39883	107573	0	0	8361	553402	0	0
2024-05-21 15:01:32			0	38368	0	0	0	20664	19270	131544	27537	981147	39872	107571	0	0	8361	553393	0	0
2024-05-21 15:02:32			0	38378	0	0	0	20672	19270	131600	27159	981200	39872	107574	0	0	8361	552997	0	0
2024-05-21 15:03:32			0	38389	0	0	0	20667	19280	131520	27346	981182	39861	107572	0	0	8362	552532	0	0
2024-05-21 15:04:32			0	38397	0	0	0	20670	19270	131560	27313	981226	39861	107573	0	0	8362	552246	0	0
2024-05-21 15:05:32			0	38411	0	0	0	20672	19270	131460	27204	981173	39872	107574	0	0	8363	551692	0	0
2024-05-21 15:06:32			0	38405	0	0	0	20675	19280	131464	27348	981235	39883	107575	0	0	8363	551899	0	0
2024-05-21 15:07:32			0	38406	0	0	0	20672	19280	131376	27265	981190	39862	107574	0	0	8363	551860	0	0
2024-05-21 15:08:32			0	38407	0	0	0	20680	19280	131404	27376	981182	39872	107577	0	0	8363	551820	0	0
2024-05-21 15:09:32			0	38433	0	0	0	20683	19280	131512	27215	981235	39861	107578	0	0	8364	550794	0	0
2024-05-21 15:10:32			0	38415	0	0	0	20688	19280	131416	27026	981243	39883	107580	0	0	8363	551504	0	0
2024-05-21 15:11:32			0	38436	0	0	0	20677	19280	131416	26935	981243	39873	107576	0	0	8364	550675	0	0
2024-05-21 15:12:32			0	38431	0	0	0	20685	19280	131384	27270	981216	39873	107579	0	0	8364	550872	0	0
2024-05-21 15:13:32			0	38421	0	0	0	20685	19280	131268	27149	981235	39883	107579	0	0	8363	551267	0	0
2024-05-21 15:14:32			0	38468	0	0	0	20685	19290	131320	27317	981233	39864	107579	0	0	8366	549383	0	0
2024-05-21 15:15:32			0	38453	0	0	0	20683	19290	131208	27270	981260	39864	107578	0	0	8365	549974	0	0
2024-05-21 15:16:32			0	38503	0	0	0	20685	19290	131300	27045	981206	39864	107579	0	0	8368	548005	0	0
2024-05-21 15:17:32			0	38492	0	0	0	20688	19290	131260	27281	981198	39884	107580	0	0	8367	548438	0	0
2024-05-21 15:18:32			0	38516	0	0	0	20683	19300	131100	27374	981268	39875	107578	0	0	8369	547464	0	0
2024-05-21 15:19:32			0	38527	0	0	0	20685	19300	131096	27249	981241	39864	107579	0	0	8369	547031	0	0
2024-05-21 15:20:32			0	38527	0	0	0	20693	19290	131020	27118	981260	39885	107582	0	0	8369	547061	0	0
2024-05-21 15:21:32			0	38540	0	0	0	20696	19290	131000	27227	981313	39864	107583	0	0	8370	546551	0	0
2024-05-21 15:22:32			0	38556	0	0	0	20696	19290	130972	27031	981233	39864	107583	0	0	8370	545923	0	0
2024-05-21 15:23:32			0	38578	0	0	0	20685	19300	130964	27351	981268	39885	107579	0	0	8372	545030	0	0
2024-05-21 15:24:32			0	38593	0	0	0	20693	19300	130864	27150	981294	39864	107582	0	0	8372	544442	0	0
2024-05-21 15:25:32			0	38590	0	0	0	20696	19300	130792	27301	981303	39875	107583	0	0	8372	544559	0	0
2024-05-21 15:26:32			0	38607	0	0	0	20690	19300	130756	27177	981268	39875	107581	0	0	8373	543893	0	0
2024-05-21 15:27:32			0	38622	0	0	0	20690	19290	130704	27341	981225	39852	107581	0	0	8374	543336	0	0
2024-05-21 15:28:32			0	38657	0	0	0	20685	19290	130692	27351	981313	39875	107579	0	0	8376	541967	0	0
2024-05-21 15:29:32			0	38655	0	0	0	20690	19290	130668	26797	981286	39885	107581	0	0	8376	542046	0	0
2024-05-21 15:30:32			0	38670	0	0	0	20683	19290	130608	27303	981260	39875	107578	0	0	8376	541460	0	0
2024-05-21 15:31:32			0	38686	0	0	0	20690	19300	130592	27000	981268	39875	107581	0	0	8377	540805	0	0
2024-05-21 15:32:32			0	38682	0	0	0	20693	19300	130524	27076	981294	39875	107582	0	0	8377	540961	0	0
2024-05-21 15:33:32			0	38707	0	0	0	20693	19290	130552	27381	981260	39864	107582	0	0	8378	540016	0	0
2024-05-21 15:34:32			0	38696	0	0	0	20693	19290	130568	27059	981260	39864	107582	0	0	8378	540445	0	0
2024-05-21 15:35:32			0	38709	0	0	0	20698	19290	130528	27454	981286	39875	107584	0	0	8378	539938	0	0
2024-05-21 15:36:32			0	38711	0	0	0	20698	19290	130528	27329	981286	39875	107584	0	0	8378	539860	0	0
2024-05-21 15:37:32			0	38730	0	0	0	20701	19290	130537	27396	981260	39875	107585	0	0	8379	539119	0	0
2024-05-21 15:38:32			0	38708	0	0	0	20701	19290	130464	27448	981313	39864	107585	0	0	8378	539977	0	0
2024-05-21 15:39:32			0	38712	0	0	0	20698	19310	130472	27353	981311	39875	107584	0	0	8379	539761	0	0
2024-05-21 15:40:32			0	38722	0	0	0	20698	19300	130436	27452	981294	39864	107584	0	0	8379	539401	0	0
2024-05-21 15:41:32			0	38740	0	0	0	20701	19290	130393	27453	981286	39864	107585	0	0	8380	538730	0	0
2024-05-21 15:42:32			0	38741	0	0	0	20701	19300	130404	27220	981321	39864	107585	0	0	8380	538661	0	0
2024-05-21 15:43:32			0	38738	0	0	0	20703	19300	130421	27445	981276	39875	107586	0	0	8380	538778	0	0
2024-05-21 15:44:32			0	38735	0	0	0	20701	19310	130413	27203	981338	39886	107585	0	0	8380	538865	0	0
2024-05-21 15:45:32			0	38755	0	0	0	20701	19300	130433	27065	981329	39885	107585	0	0	8381	538116	0	0
2024-05-21 15:46:32			0	38759	0	0	0	20701	19310	130413	27209	981364	39875	107585	0	0	8381	537931	0	0
2024-05-21 15:47:32			0	38748	0	0	0	20701	19310	130385	27076	981372	39865	107585	0	0	8380	538359	0	0
2024-05-21 15:48:32			0	38753	0	0	0	20693	19310	130433	27145	981311	39875	107582	0	0	8381	538165	0	0
2024-05-21 15:49:32			0	38758	0	0	0	20701	19310	130397	27203	981311	39865	107585	0	0	8381	537970	0	0
2024-05-21 15:50:32			0	38757	0	0	0	20698	19310	130405	27377	981311	39875	107584	0	0	8381	538009	0	0
2024-05-21 15:51:32			0	38763	0	0	0	20703	19300	130357	27261	981303	39875	107586	0	0	8381	537805	0	0
2024-05-21 15:52:32			0	38765	0	0	0	20701	19310	130341	27334	981311	39865	107585	0	0	8381	537698	0	0
2024-05-21 15:53:32			0	38762	0	0	0	20693	19300	130413	27183	981321	39875	107582	0	0	8381	537844	0	0
2024-05-21 15:54:32			0	38763	0	0	0	20698	19300	130353	27121	981276	39864	107584	0	0	8381	537805	0	0
2024-05-21 15:55:32			0	38752	0	0	0	20696	19310	130417	27533	981364	39875	107583	0	0	8381	538204	0	0
2024-05-21 15:56:32			0	38763	0	0	0	20698	19310	130445	26968	981284	39865	107584	0	0	8381	537776	0	0
2024-05-21 15:57:32			0	38773	0	0	0	20693	19310	130425	27050	981311	39875	107582	0	0	8382	537387	0	0
2024-05-21 15:58:32			0	38764	0	0	0	20690	19300	130361	27296	981329	39864	107581	0	0	8381	537766	0	0
2024-05-21 15:59:32			0	38757	0	0	0	20685	19300	130445	27190	981303	39875	107579	0	0	8381	538039	0	0
2024-05-21 16:00:32			0	38772	0	0	0	20683	19300	130409	27071	981294	39875	107578	0	0	8382	537455	0	0
2024-05-21 16:01:32			0	38759	0	0	0	20680	19290	130405	27227	981260	39885	107577	0	0	8381	537990	0	0
2024-05-21 16:02:32			0	38760	0	0	0	20688	19300	130353	27287	981329	39875	107580	0	0	8381	537922	0	0
2024-05-21 16:03:32			0	38765	0	0	0	20688	19290	130341	27052	981286	39875	107580	0	0	8381	537757	0	0
2024-05-21 16:04:32			0	38768	0	0	0	20685	19290	130329	27379	981260	39885	107579	0	0	8382	537640	0	0
2024-05-21 16:05:32			0	38783	0	0	0	20683	19300	130245	27286	981303	39875	107578	0	0	8382	537028	0	0
2024-05-21 16:06:32			0	38773	0	0	0	20688	19300	130309	27367	981276	39875	107580	0	0	8382	537416	0	0
2024-05-21 16:07:32			0	38778	0	0	0	20677	19300	130257	27007	981250	39864	107576	0	0	8382	537222	0	0
2024-05-21 16:08:32			0	38781	0	0	0	20670	19290	130229	27118	981206	39864	107573	0	0	8383	537135	0	0
2024-05-21 16:09:32			0	38802	0	0	0	20672	19290	130309	27230	981172	39852	107574	0	0	8384	536319	0	0
2024-05-21 16:10:32			0	38782	0	0	0	20667	19280	130285	27415	981190	39851	107572	0	0	8383	537126	0	0
2024-05-21 16:11:32			0	38791	0	0	0	20662	19270	130273	27547	981165	39861	107570	0	0	8383	536805	0	0
2024-05-21 16:12:32			0	38787	0	0	0	20662	19280	130265	27395	981182	39861	107570	0	0	8383	536931	0	0
2024-05-21 16:13:32			0	38817	0	0	0	20657	19270	130393	27315	981226	39850	107568	0	0	8385	535796	0	0
2024-05-21 16:14:32			0	38791	0	0	0	20646	19280	130285	27429	981208	39883	107564	0	0	8383	536776	0	0
2024-05-21 16:15:32			0	38789	0	0	0	20649	19270	130293	27352	981085	39861	107565	0	0	8383	536883	0	0
2024-05-21 16:16:32			0	38782	0	0	0	20651	19270	130169	27436	981094	39850	107566	0	0	8383	537155	0	0
2024-05-21 16:17:32			0	38790	0	0	0	20646	19260	130245	27367	981104	39849	107564	0	0	8383	536874	0	0
2024-05-21 16:18:32			0	38811	0	0	0	20654	19260	130217	27381	981148	39881	107567	0	0	8384	536058	0	0
2024-05-21 16:19:32			0	38796	0	0	0	20641	19270	130201	27203	981147	39872	107562	0	0	8384	536611	0	0
2024-05-21 16:20:32			0	38791	0	0	0	20649	19270	130133	27289	981120	39861	107565	0	0	8383	536805	0	0
2024-05-21 16:21:32			0	38799	0	0	0	20644	19270	130157	27300	981094	39872	107563	0	0	8384	536495	0	0
2024-05-21 16:22:32			0	38809	0	0	0	20649	19260	130205	27524	981122	39859	107565	0	0	8384	536136	0	0
2024-05-21 16:23:32			0	38818	0	0	0	20651	19270	130173	27279	981191	39861	107566	0	0	8385	535757	0	0
2024-05-21 16:24:32			0	38815	0	0	0	20657	19270	130201	27441	981218	39861	107568	0	0	8384	535874	0	0
2024-05-21 16:25:32			0	38808	0	0	0	20654	19260	130117	27531	981157	39871	107567	0	0	8384	536175	0	0
2024-05-21 16:26:32			0	38810	0	0	0	20670	19270	130101	27128	981200	39872	107573	0	0	8384	536068	0	0
2024-05-21 16:27:32			0	38810	0	0	0	20667	19270	130161	27618	981253	39861	107572	0	0	8384	536068	0	0
2024-05-21 16:28:32			0	38826	0	0	0	20688	19280	130125	27038	981243	39862	107580	0	0	8385	535417	0	0
2024-05-21 16:29:32			0	38823	0	0	0	20688	19280	130165	27364	981269	39873	107580	0	0	8384	535533	0	0
2024-05-21 16:30:32			0	38809	0	0	0	20688	19270	130149	27128	981226	39872	107580	0	0	8384	536106	0	0
2024-05-21 16:31:32			0	38823	0	0	0	20690	19280	130205	27326	981243	39883	107581	0	0	8384	535533	0	0
2024-05-21 16:32:32			0	38827	0	0	0	20706	19280	130125	27377	981243	39883	107587	0	0	8384	535378	0	0
2024-05-21 16:33:32			0	38834	0	0	0	20693	19290	130129	27173	981260	39875	107582	0	0	8385	535078	0	0
2024-05-21 16:34:32			0	38837	0	0	0	20698	19290	130133	27284	981304	39874	107584	0	0	8385	534961	0	0
2024-05-21 16:35:32			0	38850	0	0	0	20693	19300	130181	27434	981276	39875	107582	0	0	8386	534428	0	0
2024-05-21 16:36:32			0	38848	0	0	0	20701	19290	130093	27431	981357	39874	107585	0	0	8385	534535	0	0
2024-05-21 16:37:32			0	38847	0	0	0	20709	19310	130157	27239	981443	39886	107588	0	0	8385	534515	0	0
2024-05-21 16:38:32			0	38861	0	0	0	20716	19310	130045	27390	981399	39898	107591	0	0	8386	533973	0	0
2024-05-21 16:39:32			0	38874	0	0	0	20727	19320	130049	26873	981460	39876	107595	0	0	8387	533440	0	0
2024-05-21 16:40:32			0	38856	0	0	0	20711	19330	130037	27552	981450	39877	107589	0	0	8386	534108	0	0
2024-05-21 16:41:32			0	38863	0	0	0	20711	19320	129949	27159	981407	39876	107589	0	0	8386	533866	0	0
2024-05-21 16:42:32			0	38881	0	0	0	20711	19310	129909	27469	981399	39887	107589	0	0	8387	533198	0	0
2024-05-21 16:43:32			0	38891	0	0	0	20701	19320	129929	27369	981407	39887	107585	0	0	8388	532782	0	0
2024-05-21 16:44:32			0	38891	0	0	0	20698	19330	129893	27199	981424	39855	107584	0	0	8388	532753	0	0
2024-05-21 16:45:32			0	38887	0	0	0	20685	19310	129917	27473	981338	39853	107579	0	0	8388	532966	0	0
2024-05-21 16:46:32			0	38901	0	0	0	20677	19310	129985	27400	981293	39865	107576	0	0	8389	532425	0	0
2024-05-21 16:47:32			0	38899	0	0	0	20667	19310	129885	27677	981338	39865	107572	0	0	8389	532502	0	0
2024-05-21 16:48:32			0	38898	0	0	0	20670	19310	129921	27599	981293	39876	107573	0	0	8389	532541	0	0
2024-05-21 16:49:32			0	38885	0	0	0	20672	19300	129881	27816	981303	39885	107574	0	0	8388	533073	0	0
2024-05-21 16:50:32			0	38904	0	0	0	20675	19300	129873	27479	981250	39864	107575	0	0	8389	532338	0	0
2024-05-21 16:51:32			0	38895	0	0	0	20664	19290	129857	27315	981251	39863	107571	0	0	8389	532715	0	0
2024-05-21 16:52:32			0	38911	0	0	0	20672	19300	129877	27405	981294	39875	107574	0	0	8389	532068	0	0
2024-05-21 16:53:32			0	38903	0	0	0	20664	19290	129865	27689	981260	39864	107571	0	0	8389	532406	0	0
2024-05-21 16:54:32			0	38903	0	0	0	20654	19290	129841	27144	981286	39875	107567	0	0	8389	532406	0	0
2024-05-21 16:55:32			0	38896	0	0	0	20654	19290	129917	27358	981260	39875	107567	0	0	8389	532677	0	0
2024-05-21 16:56:32			0	38894	0	0	0	20664	19290	129881	27594	981304	39874	107571	0	0	8388	532754	0	0
2024-05-21 16:57:32			0	38899	0	0	0	20664	19290	129941	27554	981286	39864	107571	0	0	8389	532561	0	0
2024-05-21 16:58:32			0	38908	0	0	0	20662	19290	129877	27092	981286	39864	107570	0	0	8389	532213	0	0
2024-05-21 16:59:32			0	38925	0	0	0	20675	19290	129885	27237	981313	39875	107575	0	0	8390	531556	0	0
2024-05-21 17:00:32			0	38894	0	0	0	20675	19300	129813	27393	981321	39885	107575	0	0	8388	532725	0	0
2024-05-21 17:01:32			0	38914	0	0	0	20685	19300	129801	27341	981294	39875	107579	0	0	8389	531952	0	0
2024-05-21 17:02:32			0	38897	0	0	0	20685	19300	129821	27157	981329	39875	107579	0	0	8388	532609	0	0
2024-05-21 17:03:32			0	38934	0	0	0	20680	19310	129817	27369	981338	39865	107577	0	0	8390	531150	0	0
2024-05-21 17:04:32			0	38924	0	0	0	20683	19310	129713	27211	981364	39865	107578	0	0	8390	531536	0	0
2024-05-21 17:05:32			0	38919	0	0	0	20690	19310	129861	27398	981338	39875	107581	0	0	8389	531729	0	0
2024-05-21 17:06:32			0	38934	0	0	0	20685	19310	129797	27182	981338	39853	107579	0	0	8390	531150	0	0
2024-05-21 17:07:32			0	38929	0	0	0	20677	19310	129761	27431	981284	39853	107576	0	0	8390	531343	0	0
2024-05-21 17:08:32			0	38926	0	0	0	20680	19300	129777	27131	981303	39853	107577	0	0	8390	531488	0	0
2024-05-21 17:09:32			0	38937	0	0	0	20675	19300	129737	27222	981382	39864	107575	0	0	8391	531063	0	0
2024-05-21 17:10:32			0	38917	0	0	0	20683	19300	129749	27258	981303	39885	107578	0	0	8389	531836	0	0
2024-05-21 17:11:32			0	38933	0	0	0	20688	19300	129697	27357	981356	39885	107580	0	0	8390	531218	0	0
2024-05-21 17:12:32			0	38899	0	0	0	20683	19300	129813	27483	981329	39853	107578	0	0	8388	532531	0	0
2024-05-21 17:13:32			0	38958	0	0	0	20683	19310	129833	27514	981258	39853	107578	0	0	8392	530224	0	0
2024-05-21 17:14:32			0	38957	0	0	0	20675	19300	129805	27199	981303	39864	107575	0	0	8392	530292	0	0
2024-05-21 17:15:32			0	38936	0	0	0	20667	19310	129753	27554	981311	39875	107572	0	0	8391	531073	0	0
2024-05-21 17:16:32			0	38944	0	0	0	20672	19300	129761	27393	981268	39853	107574	0	0	8391	530793	0	0
2024-05-21 17:17:32			0	38933	0	0	0	20672	19290	129729	27178	981313	39864	107574	0	0	8390	531247	0	0
2024-05-21 17:18:32			0	38939	0	0	0	20690	19300	129653	27123	981374	39875	107581	0	0	8390	530986	0	0
2024-05-21 17:19:32			0	38953	0	0	0	20714	19320	129693	27386	981460	39887	107590	0	0	8391	530388	0	0
2024-05-21 17:20:32			0	38927	0	0	0	20722	19320	129749	27119	981460	39887	107593	0	0	8389	531391	0	0
2024-05-21 17:21:32			0	38923	0	0	0	20740	19330	129713	27102	981583	39866	107600	0	0	8389	531516	0	0
2024-05-21 17:22:32			0	38919	0	0	0	20758	19330	129753	27123	981556	39877	107607	0	0	8388	531671	0	0
2024-05-21 17:23:32			0	38929	0	0	0	20779	19340	129765	27377	981546	39867	107615	0	0	8389	531256	0	0
2024-05-21 17:24:32			0	38941	0	0	0	20776	19350	129781	27431	981590	39878	107614	0	0	8389	530763	0	0
2024-05-21 17:25:32			0	38931	0	0	0	20774	19340	129725	27521	981581	39889	107613	0	0	8389	531178	0	0
2024-05-21 17:26:32			0	38921	0	0	0	20774	19340	129745	27140	981555	39867	107613	0	0	8388	531564	0	0
2024-05-21 17:27:32			0	38933	0	0	0	20771	19340	129761	27168	981555	39877	107612	0	0	8389	531101	0	0
2024-05-21 17:28:32			0	38937	0	0	0	20779	19350	129709	27300	981590	39878	107615	0	0	8389	530918	0	0
2024-05-21 17:29:32			0	38929	0	0	0	20771	19350	129649	27105	981545	39879	107612	0	0	8389	531226	0	0
2024-05-21 17:30:32			0	38932	0	0	0	20771	19350	129709	27104	981616	39868	107612	0	0	8389	531111	0	0
2024-05-21 17:31:32			0	38911	0	0	0	20755	19350	129669	27511	981510	39868	107606	0	0	8388	531921	0	0
2024-05-21 17:32:32			0	38923	0	0	0	20748	19350	129733	27345	981545	39879	107603	0	0	8389	531458	0	0
2024-05-21 17:33:32			0	38926	0	0	0	20750	19340	129733	27046	981520	39877	107604	0	0	8389	531371	0	0
2024-05-21 17:34:32			0	38914	0	0	0	20742	19340	129813	27326	981528	39889	107601	0	0	8388	531835	0	0
2024-05-21 17:35:32			0	38897	0	0	0	20737	19320	129777	27076	981468	39876	107599	0	0	8388	532550	0	0
2024-05-21 17:36:32			0	38920	0	0	0	20729	19340	129721	27338	981475	39889	107596	0	0	8389	531603	0	0
2024-05-21 17:37:32			0	38905	0	0	0	20732	19340	129773	27057	981467	39867	107597	0	0	8388	532183	0	0
2024-05-21 17:38:32			0	38883	0	0	0	20719	19340	129793	27265	981467	39889	107592	0	0	8387	533033	0	0
2024-05-21 17:39:32			0	38888	0	0	0	20716	19330	129841	27246	981477	39877	107591	0	0	8387	532869	0	0
2024-05-21 17:40:32			0	38879	0	0	0	20706	19330	129921	26887	981371	39877	107587	0	0	8387	533217	0	0
2024-05-21 17:41:32			0	38853	0	0	0	20706	19320	129897	27081	981407	39865	107587	0	0	8386	534253	0	0
2024-05-21 17:42:32			0	38838	0	0	0	20703	19320	130089	27301	981381	39887	107586	0	0	8385	534834	0	0
2024-05-21 17:43:32			0	38805	0	0	0	20706	19320	130089	27334	981407	39876	107587	0	0	8383	536114	0	0
2024-05-21 17:44:32			0	38803	0	0	0	20711	19330	130185	27317	981424	39866	107589	0	0	8383	536163	0	0
2024-05-21 17:45:32			0	38743	0	0	0	20737	19320	130249	27232	981468	39865	107599	0	0	8380	538524	0	0
2024-05-21 17:46:32			0	38728	0	0	0	20732	19310	130320	26996	981452	39876	107597	0	0	8379	539138	0	0
2024-05-21 17:47:32			0	38687	0	0	0	20740	19320	130436	27379	981407	39887	107600	0	0	8377	540707	0	0
2024-05-21 17:48:32			0	38664	0	0	0	20737	19320	130656	27310	981415	39876	107599	0	0	8375	541604	0	0
2024-05-21 17:49:32			0	38666	0	0	0	20729	19330	130672	27140	981450	39877	107596	0	0	8376	541497	0	0
2024-05-21 17:50:32			0	38659	0	0	0	20732	19310	130752	27438	981478	39876	107597	0	0	8375	541830	0	0
2024-05-21 17:51:32			0	38641	0	0	0	20727	19330	130692	27062	981485	39877	107595	0	0	8374	542474	0	0
2024-05-21 17:52:32			0	38632	0	0	0	20732	19320	130712	26970	981468	39887	107597	0	0	8374	542855	0	0
2024-05-21 17:53:32			0	38587	0	0	0	20727	19330	130828	27076	981503	39877	107595	0	0	8372	544587	0	0
2024-05-21 17:54:32			0	38602	0	0	0	20735	19340	130836	27064	981493	39900	107598	0	0	8372	543970	0	0
2024-05-21 17:55:32			0	38584	0	0	0	20748	19330	130896	27331	981530	39888	107603	0	0	8371	544705	0	0
2024-05-21 17:56:32			0	38561	0	0	0	20768	19330	131040	27327	981477	39888	107611	0	0	8370	545606	0	0
2024-05-21 17:57:32			0	38532	0	0	0	20789	19340	131076	27100	981626	39900	107619	0	0	8368	546715	0	0
2024-05-21 17:58:32			0	38508	0	0	0	20797	19340	131104	27220	981581	39889	107622	0	0	8366	547658	0	0
2024-05-21 17:59:32			0	38514	0	0	0	20792	19350	131088	27343	981563	39901	107620	0	0	8367	547392	0	0
2024-05-21 18:00:32			0	38520	0	0	0	20797	19350	131108	27469	981678	39879	107622	0	0	8367	547156	0	0
2024-05-21 18:01:32			0	38498	0	0	0	20810	19360	131076	27034	981660	39913	107627	0	0	8366	547991	0	0
2024-05-21 18:02:32			0	38511	0	0	0	20812	19360	131180	27183	981686	39890	107628	0	0	8366	547480	0	0
2024-05-21 18:03:32			0	38492	0	0	0	20812	19370	131148	27381	981676	39891	107628	0	0	8365	548197	0	0
2024-05-21 18:04:32			0	38502	0	0	0	20818	19380	131152	27192	981711	39881	107630	0	0	8366	547774	0	0
2024-05-21 18:05:32			0	38508	0	0	0	20812	19380	131212	26932	981746	39893	107628	0	0	8366	547538	0	0
2024-05-21 18:06:32			0	38519	0	0	0	20805	19390	131132	27100	981736	39893	107625	0	0	8367	547075	0	0
2024-05-21 18:07:32			0	38529	0	0	0	20805	19390	131012	27490	981701	39904	107625	0	0	8367	546683	0	0
2024-05-21 18:08:32			0	38527	0	0	0	20802	19380	131016	27124	981746	39904	107624	0	0	8367	546791	0	0
2024-05-21 18:09:32			0	38522	0	0	0	20812	19390	131040	27377	981701	39893	107628	0	0	8367	546958	0	0
2024-05-21 18:10:32			0	38522	0	0	0	20802	19400	131040	27092	981718	39894	107624	0	0	8367	546927	0	0
2024-05-21 18:11:32			0	38519	0	0	0	20786	19390	131032	27305	981728	39893	107618	0	0	8367	547075	0	0
2024-05-21 18:12:32			0	38487	0	0	0	20771	19380	131104	26838	981640	39882	107612	0	0	8366	548364	0	0
2024-05-21 18:13:32			0	38519	0	0	0	20771	19380	131100	27105	981693	39872	107612	0	0	8368	547105	0	0
2024-05-21 18:14:32			0	38462	0	0	0	20771	19390	131196	27324	981683	39882	107612	0	0	8365	549318	0	0
2024-05-21 18:15:32			0	38483	0	0	0	20786	19380	131192	27332	981666	39904	107618	0	0	8365	548521	0	0
2024-05-21 18:16:32			0	38457	0	0	0	20797	19380	131316	27371	981658	39881	107622	0	0	8364	549545	0	0
2024-05-21 18:17:32			0	38450	0	0	0	20786	19390	131324	27008	981630	39893	107618	0	0	8364	549790	0	0
2024-05-21 18:18:32			0	38448	0	0	0	20766	19370	131348	27128	981597	39891	107610	0	0	8364	549930	0	0
2024-05-21 18:19:32			0	38431	0	0	0	20758	19380	131288	27085	981613	39882	107607	0	0	8363	550570	0	0
2024-05-21 18:20:32			0	38419	0	0	0	20761	19360	131352	26826	981615	39891	107608	0	0	8362	551104	0	0
2024-05-21 18:21:32			0	38408	0	0	0	20758	19360	131468	27171	981527	39869	107607	0	0	8362	551538	0	0
2024-05-21 18:22:32			0	38428	0	0	0	20742	19350	131364	27422	981519	39890	107601	0	0	8363	550779	0	0
2024-05-21 18:23:32			0	38433	0	0	0	20737	19350	131428	27157	981572	39890	107599	0	0	8363	550582	0	0
2024-05-21 18:24:32			0	38414	0	0	0	20742	19350	131484	27150	981598	39879	107601	0	0	8362	551331	0	0
2024-05-21 18:25:32			0	38415	0	0	0	20766	19340	131496	27324	981599	39900	107610	0	0	8362	551322	0	0
2024-05-21 18:26:32			0	38405	0	0	0	20779	19340	131536	27265	981634	39889	107615	0	0	8361	551717	0	0
2024-05-21 18:27:32			0	38377	0	0	0	20786	19360	131612	27310	981660	39902	107618	0	0	8360	552763	0	0
2024-05-21 18:28:32			0	38349	0	0	0	20781	19380	131728	27246	981711	39892	107616	0	0	8358	553810	0	0
2024-05-21 18:29:32			0	38311	0	0	0	20779	19360	131856	26970	981694	39902	107615	0	0	8356	555377	0	0
2024-05-21 18:30:32			0	38285	0	0	0	20771	19360	131988	27130	981607	39879	107612	0	0	8355	556408	0	0
2024-05-21 18:31:32			0	38247	0	0	0	20758	19370	131964	27417	981650	39891	107607	0	0	8353	557888	0	0
2024-05-21 18:32:32			0	38250	0	0	0	20748	19370	132100	27150	981623	39891	107603	0	0	8354	557769	0	0
2024-05-21 18:33:32			0	38200	0	0	0	20750	19380	132164	27635	981552	39881	107604	0	0	8351	559728	0	0
2024-05-21 18:34:32			0	38206	0	0	0	20750	19350	132152	27403	981598	39890	107604	0	0	8351	559581	0	0
2024-05-21 18:35:32			0	38193	0	0	0	20745	19350	132180	27246	981598	39879	107602	0	0	8351	560099	0	0
2024-05-21 18:36:32			0	38206	0	0	0	20724	19350	132200	27732	981545	39869	107594	0	0	8352	559581	0	0
2024-05-21 18:37:32			0	38171	0	0	0	20719	19350	132268	27308	981484	39889	107592	0	0	8350	560977	0	0
2024-05-21 18:38:32			0	38160	0	0	0	20703	19340	132280	27317	981502	39867	107586	0	0	8350	561447	0	0
2024-05-21 18:39:32			0	38153	0	0	0	20719	19340	132336	27272	981502	39889	107592	0	0	8349	561726	0	0
2024-05-21 18:40:32			0	38124	0	0	0	20714	19340	132404	27211	981528	39889	107590	0	0	8348	562885	0	0
2024-05-21 18:41:32			0	38084	0	0	0	20727	19330	132572	27571	981512	39877	107595	0	0	8345	564518	0	0
2024-05-21 18:42:32			0	38051	0	0	0	20732	19350	132764	27189	981537	39878	107597	0	0	8344	565779	0	0
2024-05-21 18:43:32			0	38001	0	0	0	20740	19340	132863	27364	981555	39877	107600	0	0	8341	567818	0	0
2024-05-21 18:44:32			0	37959	0	0	0	20737	19350	132995	27057	981616	39878	107599	0	0	8339	569477	0	0
2024-05-21 18:45:32			0	37904	0	0	0	20735	19340	133159	27422	981528	39877	107598	0	0	8336	571727	0	0
2024-05-21 18:46:32			0	37863	0	0	0	20729	19340	133191	27144	981581	39877	107596	0	0	8334	573385	0	0
2024-05-21 18:47:32			0	37819	0	0	0	20722	19340	133415	27509	981555	39867	107593	0	0	8332	575167	0	0
2024-05-21 18:48:32			0	37832	0	0	0	20714	19350	133487	27339	981510	39889	107590	0	0	8332	574608	0	0
2024-05-21 18:49:32			0	37772	0	0	0	20711	19340	133523	27298	981502	39889	107589	0	0	8329	577074	0	0
2024-05-21 18:50:32			0	37785	0	0	0	20709	19330	133683	27538	981379	39889	107588	0	0	8330	576578	0	0
2024-05-21 18:51:32			0	37729	0	0	0	20693	19330	133611	27275	981477	39888	107582	0	0	8327	578855	0	0
2024-05-21 18:52:32			0	37733	0	0	0	20693	19320	133635	27419	981381	39887	107582	0	0	8328	578724	0	0
2024-05-21 18:53:32			0	37726	0	0	0	20685	19320	133731	27348	981309	39876	107579	0	0	8327	579009	0	0
2024-05-21 18:54:32			0	37742	0	0	0	20693	19320	133695	27409	981381	39865	107582	0	0	8328	578357	0	0
2024-05-21 18:55:32			0	37727	0	0	0	20685	19310	133651	27140	981319	39876	107579	0	0	8327	579000	0	0
2024-05-21 18:56:32			0	37728	0	0	0	20698	19310	133759	27199	981364	39865	107584	0	0	8327	578959	0	0
2024-05-21 18:57:32			0	37734	0	0	0	20698	19310	133803	27296	981338	39875	107584	0	0	8327	578715	0	0
2024-05-21 18:58:32			0	37733	0	0	0	20716	19310	133787	27306	981346	39887	107591	0	0	8327	578755	0	0
2024-05-21 18:59:32			0	37721	0	0	0	20724	19310	133875	27457	981417	39875	107594	0	0	8326	579244	0	0
2024-05-21 19:00:32			0	37738	0	0	0	20727	19310	133835	27275	981399	39887	107595	0	0	8327	578552	0	0
2024-05-21 19:01:32			0	37725	0	0	0	20714	19320	133839	27055	981415	39876	107590	0	0	8327	579049	0	0
2024-05-21 19:02:32			0	37747	0	0	0	20703	19310	133827	27339	981390	39897	107586	0	0	8328	578186	0	0
2024-05-21 19:03:32			0	37748	0	0	0	20714	19320	133811	26974	981407	39865	107590	0	0	8328	578113	0	0
2024-05-21 19:04:32			0	37727	0	0	0	20729	19320	133827	27147	981407	39876	107596	0	0	8327	578968	0	0
2024-05-21 19:05:32			0	37697	0	0	0	20735	19310	133899	27235	981425	39876	107598	0	0	8325	580222	0	0
2024-05-21 19:06:32			0	37682	0	0	0	20722	19310	133971	27267	981417	39875	107593	0	0	8324	580834	0	0
2024-05-21 19:07:32			0	37673	0	0	0	20722	19320	134027	27176	981407	39887	107593	0	0	8324	581169	0	0
2024-05-21 19:08:32			0	37682	0	0	0	20735	19320	134015	27327	981460	39876	107598	0	0	8324	580802	0	0
2024-05-21 19:09:32			0	37662	0	0	0	20724	19320	133991	27060	981407	39887	107594	0	0	8323	581618	0	0
2024-05-21 19:10:32			0	37684	0	0	0	20742	19310	134047	27315	981470	39897	107601	0	0	8324	580752	0	0
2024-05-21 19:11:32			0	37661	0	0	0	20748	19320	133955	26892	981495	39887	107603	0	0	8323	581659	0	0
2024-05-21 19:12:32			0	37644	0	0	0	20737	19330	134043	27441	981477	39877	107599	0	0	8322	582321	0	0
2024-05-21 19:13:32			0	37622	0	0	0	20737	19320	134095	27388	981468	39887	107599	0	0	8321	583253	0	0
2024-05-21 19:14:32			0	37589	0	0	0	20735	19330	134335	27232	981459	39877	107598	0	0	8319	584572	0	0
2024-05-21 19:15:32			0	37552	0	0	0	20732	19330	134407	27112	981485	39889	107597	0	0	8317	586089	0	0
2024-05-21 19:16:32			0	37529	0	0	0	20719	19310	134511	27206	981505	39876	107592	0	0	8316	587098	0	0
2024-05-21 19:17:32			0	37507	0	0	0	20711	19320	134531	27476	981468	39876	107589	0	0	8315	587970	0	0
2024-05-21 19:18:32			0	37475	0	0	0	20714	19320	134587	27142	981442	39865	107590	0	0	8314	589287	0	0
2024-05-21 19:19:32			0	37451	0	0	0	20722	19320	134807	27194	981495	39887	107593	0	0	8312	590276	0	0
2024-05-21 19:20:32			0	37401	0	0	0	20729	19330	134831	27234	981530	39866	107596	0	0	8310	592307	0	0
2024-05-21 19:21:32			0	37338	0	0	0	20735	19330	135043	27171	981503	39899	107598	0	0	8306	594914	0	0
2024-05-21 19:22:32			0	37301	0	0	0	20729	19330	135278	27327	981459	39900	107596	0	0	8304	596448	0	0
2024-05-21 19:23:32			0	37261	0	0	0	20740	19330	135354	27100	981450	39888	107600	0	0	8302	598110	0	0
2024-05-21 19:24:32			0	37222	0	0	0	20740	19330	135474	27374	981512	39900	107600	0	0	8300	599733	0	0
2024-05-21 19:25:32			0	37165	0	0	0	20745	19340	135598	27351	981520	39877	107602	0	0	8297	602078	0	0
2024-05-21 19:26:32			0	37123	0	0	0	20766	19340	135870	27168	981581	39889	107610	0	0	8294	603834	0	0
2024-05-21 19:27:32			0	37090	0	0	0	20766	19340	135990	27241	981573	39900	107610	0	0	8293	605216	0	0
2024-05-21 19:28:32			0	37048	0	0	0	20768	19350	136090	27104	981616	39889	107611	0	0	8290	606945	0	0
2024-05-21 19:29:32			0	37003	0	0	0	20763	19340	136194	27164	981608	39889	107609	0	0	8288	608870	0	0
2024-05-21 19:30:32			0	36976	0	0	0	20755	19350	136474	27041	981616	39878	107606	0	0	8287	609973	0	0
2024-05-21 19:31:32			0	36956	0	0	0	20779	19350	136542	27050	981598	39879	107615	0	0	8285	610816	0	0
2024-05-21 19:32:32			0	36907	0	0	0	20774	19360	136722	27355	981660	39902	107613	0	0	8283	612851	0	0
2024-05-21 19:33:32			0	36891	0	0	0	20779	19350	136778	26991	981643	39901	107615	0	0	8282	613561	0	0
2024-05-21 19:34:32			0	36818	0	0	0	20771	19370	136966	27405	981650	39902	107612	0	0	8278	616586	0	0
2024-05-21 19:35:32			0	36768	0	0	0	20779	19370	137154	27185	981623	39891	107615	0	0	8275	618711	0	0
2024-05-21 19:36:32			0	36706	0	0	0	20776	19360	137422	27022	981641	39902	107614	0	0	8272	621386	0	0
2024-05-21 19:37:32			0	36649	0	0	0	20761	19360	137662	27145	981721	39902	107608	0	0	8269	623821	0	0
2024-05-21 19:38:32			0	36584	0	0	0	20761	19360	137825	27229	981615	39891	107608	0	0	8266	626605	0	0
2024-05-21 19:39:32			0	36533	0	0	0	20755	19370	138085	27137	981623	39891	107606	0	0	8263	628762	0	0
2024-05-21 19:40:32			0	36476	0	0	0	20755	19380	138277	27339	981658	39892	107606	0	0	8260	631182	0	0
2024-05-21 19:41:32			0	36445	0	0	0	20748	19370	138449	27140	981570	39880	107603	0	0	8259	632554	0	0
2024-05-21 19:42:32			0	36400	0	0	0	20740	19360	138461	27045	981580	39879	107600	0	0	8256	634535	0	0
2024-05-21 19:43:32			0	36379	0	0	0	20735	19350	138629	27485	981545	39879	107598	0	0	8255	635479	0	0
2024-05-21 19:44:32			0	36343	0	0	0	20729	19360	138753	27187	981668	39891	107596	0	0	8254	637005	0	0
2024-05-21 19:45:32			0	36291	0	0	0	20732	19350	138833	26949	981590	39878	107597	0	0	8251	639299	0	0
2024-05-21 19:46:32			0	36265	0	0	0	20740	19350	138925	27072	981625	39879	107600	0	0	8249	640432	0	0
2024-05-21 19:47:32			0	36228	0	0	0	20735	19350	139097	27069	981572	39890	107598	0	0	8247	642045	0	0
2024-05-21 19:48:32			0	36210	0	0	0	20737	19350	139197	27085	981563	39878	107599	0	0	8246	642830	0	0
2024-05-21 19:49:32			0	36184	0	0	0	20737	19350	139329	27201	981598	39879	107599	0	0	8245	643967	0	0
2024-05-21 19:50:32			0	36138	0	0	0	20742	19350	139409	27334	981598	39902	107601	0	0	8242	645980	0	0
2024-05-21 19:51:32			0	36087	0	0	0	20740	19340	139545	27445	981555	39889	107600	0	0	8240	648254	0	0
2024-05-21 19:52:32			0	35970	0	0	0	20750	19350	140097	27138	981590	39889	107604	0	0	8233	653373	0	0
2024-05-21 19:53:32			0	35788	0	0	0	20740	19350	140788	27457	981537	39889	107600	0	0	8223	661449	0	0
2024-05-21 19:54:32			0	35610	0	0	0	20735	19350	141476	27333	981598	39879	107598	0	0	8214	669417	0	0
2024-05-21 19:55:32			0	35418	0	0	0	20740	19350	142272	27390	981563	39868	107600	0	0	8203	678090	0	0
2024-05-21 19:56:32			0	35240	0	0	0	20737	19350	142924	27211	981563	39889	107599	0	0	8194	686203	0	0
2024-05-21 19:57:32			0	35084	0	0	0	20740	19340	143559	27092	981581	39900	107600	0	0	8185	693410	0	0
2024-05-21 19:58:32			0	34976	0	0	0	20719	19340	144147	27135	981528	39877	107592	0	0	8179	698407	0	0
2024-05-21 19:59:32			0	34860	0	0	0	20716	19340	144483	27402	981520	39867	107591	0	0	8173	703803	0	0
2024-05-21 20:00:32			0	34770	0	0	0	20719	19340	144883	27234	981502	39877	107592	0	0	8168	708012	0	0
2024-05-21 20:01:32			0	34697	0	0	0	20706	19340	145111	27391	981493	39867	107587	0	0	8164	711440	0	0
2024-05-21 20:02:32			0	34649	0	0	0	20711	19340	145403	27537	981493	39877	107589	0	0	8161	713701	0	0
2024-05-21 20:03:32			0	34596	0	0	0	20714	19340	145671	27417	981520	39889	107590	0	0	8158	716203	0	0
2024-05-21 20:04:32			0	34543	0	0	0	20711	19330	145747	27339	981450	39866	107589	0	0	8155	718752	0	0
2024-05-21 20:05:32			0	34515	0	0	0	20719	19330	145931	27086	981477	39877	107592	0	0	8154	720080	0	0
2024-05-21 20:06:32			0	34489	0	0	0	20719	19320	145959	27201	981442	39876	107592	0	0	8152	721355	0	0
2024-05-21 20:07:32			0	34456	0	0	0	20724	19330	146119	27300	981503	39877	107594	0	0	8150	722886	0	0
2024-05-21 20:08:32			0	34464	0	0	0	20732	19330	146191	27379	981530	39899	107597	0	0	8151	722505	0	0
2024-05-21 20:09:32			0	34428	0	0	0	20727	19330	146275	27268	981503	39888	107595	0	0	8149	724220	0	0
2024-05-21 20:10:32			0	34417	0	0	0	20729	19320	146319	27367	981521	39876	107596	0	0	8148	724785	0	0
2024-05-21 20:11:32			0	34385	0	0	0	20719	19330	146379	27253	981477	39899	107592	0	0	8146	726273	0	0
2024-05-21 20:12:32			0	34355	0	0	0	20716	19340	146463	27144	981520	39889	107591	0	0	8145	727668	0	0
2024-05-21 20:13:32			0	34359	0	0	0	20714	19330	146619	27138	981485	39889	107590	0	0	8145	727517	0	0
2024-05-21 20:14:32			0	34329	0	0	0	20719	19330	146766	27114	981450	39899	107592	0	0	8143	728954	0	0
2024-05-21 20:15:32			0	34312	0	0	0	20716	19330	146866	27362	981538	39889	107591	0	0	8142	729769	0	0
2024-05-21 20:16:32			0	34277	0	0	0	20714	19310	146782	27509	981425	39887	107590	0	0	8140	731530	0	0
2024-05-21 20:17:32			0	34279	0	0	0	20719	19320	146954	27041	981442	39898	107592	0	0	8140	731393	0	0
2024-05-21 20:18:32			0	34272	0	0	0	20719	19320	146958	27085	981521	39876	107592	0	0	8140	731730	0	0
2024-05-21 20:19:32			0	34246	0	0	0	20716	19320	147138	27199	981487	39887	107591	0	0	8138	732980	0	0
2024-05-21 20:20:32			0	34249	0	0	0	20716	19320	147198	27053	981521	39887	107591	0	0	8139	732836	0	0
2024-05-21 20:21:32			0	34222	0	0	0	20711	19320	147186	27459	981468	39898	107589	0	0	8137	734136	0	0
2024-05-21 20:22:32			0	34200	0	0	0	20716	19320	147234	27258	981468	39898	107591	0	0	8136	735197	0	0
2024-05-21 20:23:32			0	34192	0	0	0	20709	19320	147310	26939	981521	39887	107588	0	0	8135	735583	0	0
2024-05-21 20:24:32			0	34185	0	0	0	20716	19320	147258	27178	981434	39876	107591	0	0	8135	735921	0	0
2024-05-21 20:25:32			0	34158	0	0	0	20703	19320	147314	27001	981442	39887	107586	0	0	8134	737226	0	0
2024-05-21 20:26:32			0	34145	0	0	0	20701	19320	147458	27241	981442	39898	107585	0	0	8133	737855	0	0
2024-05-21 20:27:32			0	34144	0	0	0	20703	19320	147514	27020	981442	39876	107586	0	0	8133	737903	0	0
2024-05-21 20:28:32			0	34112	0	0	0	20690	19310	147746	27381	981372	39887	107581	0	0	8131	739494	0	0
2024-05-21 20:29:32			0	34066	0	0	0	20703	19310	147814	27142	981372	39887	107586	0	0	8128	741726	0	0
2024-05-21 20:30:32			0	34059	0	0	0	20703	19310	147806	27189	981399	39898	107586	0	0	8128	742066	0	0
2024-05-21 20:31:32			0	34043	0	0	0	20709	19310	147894	27166	981417	39875	107588	0	0	8127	742844	0	0
2024-05-21 20:32:32			0	34025	0	0	0	20706	19320	147982	27211	981407	39898	107587	0	0	8126	743679	0	0
2024-05-21 20:33:32			0	34015	0	0	0	20716	19320	147994	26913	981468	39887	107591	0	0	8125	744167	0	0
2024-05-21 20:34:32			0	34008	0	0	0	20706	19310	148138	27128	981417	39875	107587	0	0	8125	744549	0	0
2024-05-21 20:35:32			0	34007	0	0	0	20701	19310	148158	26755	981470	39865	107585	0	0	8125	744597	0	0
2024-05-21 20:36:32			0	34008	0	0	0	20693	19310	148126	27353	981390	39886	107582	0	0	8125	744549	0	0
2024-05-21 20:37:32			0	33984	0	0	0	20698	19310	148154	27230	981390	39897	107584	0	0	8124	745719	0	0
2024-05-21 20:38:32			0	33995	0	0	0	20693	19310	148162	27208	981390	39886	107582	0	0	8124	745182	0	0
2024-05-21 20:39:32			0	33988	0	0	0	20690	19310	148134	27485	981364	39886	107581	0	0	8124	745524	0	0
2024-05-21 20:40:32			0	34014	0	0	0	20685	19300	148182	26901	981382	39875	107579	0	0	8126	744297	0	0
2024-05-21 20:41:32			0	33995	0	0	0	20696	19310	148274	27407	981443	39886	107583	0	0	8124	745182	0	0
2024-05-21 20:42:32			0	33975	0	0	0	20696	19310	148262	27085	981417	39897	107583	0	0	8123	746158	0	0
2024-05-21 20:43:32			0	33960	0	0	0	20693	19290	148294	27274	981418	39896	107582	0	0	8122	746973	0	0
2024-05-21 20:44:32			0	33940	0	0	0	20688	19300	148386	27346	981374	39875	107580	0	0	8121	747909	0	0
2024-05-21 20:45:32			0	33939	0	0	0	20680	19300	148454	27128	981409	39896	107577	0	0	8121	747958	0	0
2024-05-21 20:46:32			0	33923	0	0	0	20670	19280	148422	26975	981375	39883	107573	0	0	8121	748823	0	0
2024-05-21 20:47:32			0	33936	0	0	0	20670	19290	148590	27033	981313	39885	107573	0	0	8121	748146	0	0
2024-05-21 20:48:32			0	33931	0	0	0	20672	19290	148474	27149	981366	39864	107574	0	0	8121	748391	0	0
2024-05-21 20:49:32			0	33921	0	0	0	20659	19290	148494	27142	981331	39874	107569	0	0	8121	748880	0	0
2024-05-21 20:50:32			0	33907	0	0	0	20654	19280	148578	27383	981288	39872	107567	0	0	8120	749607	0	0
2024-05-21 20:51:32			0	33895	0	0	0	20670	19280	148598	27178	981296	39873	107573	0	0	8119	750195	0	0
2024-05-21 20:52:32			0	33887	0	0	0	20685	19280	148670	27410	981314	39883	107579	0	0	8118	750587	0	0
2024-05-21 20:53:32			0	33881	0	0	0	20680	19280	148674	27447	981322	39883	107577	0	0	8118	750882	0	0
2024-05-21 20:54:32			0	33862	0	0	0	20675	19280	148802	27111	981296	39883	107575	0	0	8117	751815	0	0
2024-05-21 20:55:32			0	33851	0	0	0	20685	19290	148818	27249	981331	39884	107579	0	0	8116	752314	0	0
2024-05-21 20:56:32			0	33859	0	0	0	20675	19280	148834	27350	981296	39895	107575	0	0	8117	751962	0	0
2024-05-21 20:57:32			0	33852	0	0	0	20662	19290	148998	27332	981304	39884	107570	0	0	8117	752264	0	0
2024-05-21 20:58:32			0	33845	0	0	0	20667	19280	148830	27535	981243	39873	107572	0	0	8116	752650	0	0
2024-05-21 20:59:32			0	33832	0	0	0	20664	19280	148878	27533	981261	39883	107571	0	0	8115	753289	0	0
2024-05-21 21:00:32			0	33827	0	0	0	20667	19280	149026	27260	981322	39873	107572	0	0	8115	753535	0	0
2024-05-21 21:01:32			0	33833	0	0	0	20664	19280	148998	27402	981243	39883	107571	0	0	8115	753240	0	0
2024-05-21 21:02:32			0	33808	0	0	0	20662	19280	149066	27178	981296	39883	107570	0	0	8114	754471	0	0
2024-05-21 21:03:32			0	33792	0	0	0	20662	19270	149054	27293	981244	39894	107570	0	0	8113	755300	0	0
2024-05-21 21:04:32			0	33786	0	0	0	20670	19270	149138	27045	981279	39883	107573	0	0	8113	755596	0	0
2024-05-21 21:05:32			0	33768	0	0	0	20659	19270	149162	26958	981306	39883	107569	0	0	8112	756484	0	0
2024-05-21 21:06:32			0	33763	0	0	0	20662	19270	149138	27499	981226	39872	107570	0	0	8111	756731	0	0
2024-05-21 21:07:32			0	33783	0	0	0	20654	19270	149190	27156	981200	39883	107567	0	0	8113	755744	0	0
2024-05-21 21:08:32			0	33773	0	0	0	20654	19270	149230	27397	981306	39883	107567	0	0	8112	756237	0	0
2024-05-21 21:09:32			0	33771	0	0	0	20664	19270	149270	27310	981297	39883	107571	0	0	8112	756336	0	0
2024-05-21 21:10:32			0	33780	0	0	0	20664	19260	149218	27329	981236	39893	107571	0	0	8112	755934	0	0
2024-05-21 21:11:32			0	33793	0	0	0	20685	19270	149246	27026	981226	39883	107579	0	0	8113	755251	0	0
2024-05-21 21:12:32			0	33822	0	0	0	20683	19270	149086	27180	981226	39883	107578	0	0	8114	753823	0	0
2024-05-21 21:13:32			0	33852	0	0	0	20670	19270	148814	27279	981271	39883	107573	0	0	8116	752347	0	0
2024-05-21 21:14:32			0	33920	0	0	0	20672	19270	148454	26963	981253	39872	107574	0	0	8120	749012	0	0
2024-05-21 21:15:32			0	33968	0	0	0	20670	19280	148370	27161	981269	39883	107573	0	0	8123	746623	0	0
2024-05-21 21:16:32			0	33959	0	0	0	20664	19280	148322	27036	981261	39883	107571	0	0	8123	747063	0	0
2024-05-21 21:17:32			0	33946	0	0	0	20649	19270	148530	26948	981253	39883	107565	0	0	8122	747739	0	0
2024-05-21 21:18:32			0	33889	0	0	0	20649	19270	148550	27166	981173	39883	107565	0	0	8119	750531	0	0
2024-05-21 21:19:32			0	33878	0	0	0	20649	19270	148754	27071	981244	39894	107565	0	0	8118	751070	0	0
2024-05-21 21:20:32			0	33832	0	0	0	20659	19260	148914	27216	981236	39871	107569	0	0	8115	753372	0	0
2024-05-21 21:21:32			0	33795	0	0	0	20659	19270	149022	27081	981279	39861	107569	0	0	8113	755152	0	0
2024-05-21 21:22:32			0	33792	0	0	0	20649	19260	149186	27338	981175	39871	107565	0	0	8113	755342	0	0
2024-05-21 21:23:32			0	33750	0	0	0	20662	19270	149178	26901	981191	39872	107570	0	0	8111	757373	0	0
2024-05-21 21:24:32			0	33757	0	0	0	20646	19260	149270	27232	981263	39871	107564	0	0	8111	757069	0	0
2024-05-21 21:25:32			0	33758	0	0	0	20662	19250	149346	26968	981140	39871	107570	0	0	8111	757061	0	0
2024-05-21 21:26:32			0	33762	0	0	0	20667	19260	149254	26856	981210	39871	107572	0	0	8111	756822	0	0
2024-05-21 21:27:32			0	33802	0	0	0	20664	19260	149170	27478	981228	39881	107571	0	0	8114	754849	0	0
2024-05-21 21:28:32			0	33862	0	0	0	20664	19260	149006	27112	981236	39893	107571	0	0	8117	751897	0	0
2024-05-21 21:29:32			0	33916	0	0	0	20659	19270	148662	27038	981271	39883	107569	0	0	8120	749207	0	0
2024-05-21 21:30:32			0	33974	0	0	0	20670	19270	148446	27225	981191	39883	107573	0	0	8123	746371	0	0
2024-05-21 21:31:32			0	34041	0	0	0	20659	19260	148246	27092	981289	39882	107569	0	0	8127	743146	0	0
2024-05-21 21:32:32			0	34025	0	0	0	20664	19260	148118	27013	981201	39892	107571	0	0	8126	743925	0	0
2024-05-21 21:33:32			0	34072	0	0	0	20662	19270	147990	27296	981226	39872	107570	0	0	8129	741598	0	0
2024-05-21 21:34:32			0	34066	0	0	0	20636	19260	148010	27189	981157	39871	107560	0	0	8129	741930	0	0
2024-05-21 21:35:32			0	34033	0	0	0	20641	19260	148158	27564	981201	39871	107562	0	0	8127	743535	0	0
2024-05-21 21:36:32			0	33982	0	0	0	20651	19250	148314	27072	981166	39881	107566	0	0	8124	746062	0	0
2024-05-21 21:37:32			0	33941	0	0	0	20651	19250	148414	27147	981219	39881	107566	0	0	8122	748066	0	0
2024-05-21 21:38:32			0	33914	0	0	0	20662	19260	148574	27471	981281	39881	107570	0	0	8120	749346	0	0
2024-05-21 21:39:32			0	33885	0	0	0	20654	19260	148682	27435	981210	39882	107567	0	0	8119	750768	0	0
2024-05-21 21:40:32			0	33898	0	0	0	20654	19260	148674	27485	981201	39871	107567	0	0	8119	750131	0	0
2024-05-21 21:41:32			0	33902	0	0	0	20644	19240	148602	27241	981203	39880	107563	0	0	8120	750017	0	0
2024-05-21 21:42:32			0	33951	0	0	0	20641	19260	148458	27371	981228	39892	107562	0	0	8123	747536	0	0
2024-05-21 21:43:32			0	33989	0	0	0	20628	19250	148274	27346	981193	39881	107557	0	0	8125	745721	0	0
2024-05-21 21:44:32			0	33944	0	0	0	20638	19260	148366	27109	981175	39881	107561	0	0	8122	747878	0	0
2024-05-21 21:45:32			0	33862	0	0	0	20610	19250	148746	27376	981132	39871	107550	0	0	8118	751938	0	0
2024-05-21 21:46:32			0	33823	0	0	0	20612	19240	148938	27429	981123	39870	107551	0	0	8116	753897	0	0
2024-05-21 21:47:32			0	33774	0	0	0	20597	19240	149182	27246	981070	39870	107545	0	0	8113	756313	0	0
2024-05-21 21:48:32			0	33732	0	0	0	20584	19240	149358	27279	981017	39870	107540	0	0	8111	758388	0	0
2024-05-21 21:49:32			0	33722	0	0	0	20592	19240	149602	27528	981062	39869	107543	0	0	8110	758882	0	0
2024-05-21 21:50:32			0	33662	0	0	0	20594	19230	149710	27396	981019	39869	107544	0	0	8107	761898	0	0
2024-05-21 21:51:32			0	33626	0	0	0	20592	19220	149850	27519	981037	39878	107543	0	0	8104	763728	0	0
2024-05-21 21:52:32			0	33600	0	0	0	20592	19220	149966	27417	981063	39878	107543	0	0	8103	765023	0	0
2024-05-21 21:53:32			0	33576	0	0	0	20628	19230	150062	27282	981072	39890	107557	0	0	8101	766177	0	0
2024-05-21 21:54:32			0	33590	0	0	0	20651	19220	150194	27367	981090	39868	107566	0	0	8101	765521	0	0
2024-05-21 21:55:32			0	33560	0	0	0	20677	19240	150157	27365	981141	39890	107576	0	0	8099	766933	0	0
2024-05-21 21:56:32			0	33593	0	0	0	20664	19230	150226	27521	981160	39913	107571	0	0	8101	765329	0	0
2024-05-21 21:57:32			0	33608	0	0	0	20657	19250	149974	27396	981264	39892	107568	0	0	8102	764498	0	0
2024-05-21 21:58:32			0	33653	0	0	0	20646	19240	149854	27293	981150	39870	107564	0	0	8105	762303	0	0
2024-05-21 21:59:32			0	33682	0	0	0	20649	19250	149658	27428	981185	39881	107565	0	0	8107	760822	0	0
2024-05-21 22:00:32			0	33715	0	0	0	20599	19240	149630	27086	981062	39879	107546	0	0	8110	759229	0	0
2024-05-21 22:01:32			0	33717	0	0	0	20545	19240	149430	27333	981062	39869	107525	0	0	8111	759130	0	0
2024-05-21 22:02:32			0	33737	0	0	0	20568	19230	149522	27246	981027	39858	107534	0	0	8111	758182	0	0
2024-05-21 22:03:32			0	33754	0	0	0	20563	19220	149402	27161	980949	39867	107532	0	0	8112	757383	0	0
2024-05-21 22:04:32			0	33785	0	0	0	20563	19210	149286	27118	980914	39855	107532	0	0	8114	755894	0	0
2024-05-21 22:05:32			0	33798	0	0	0	20568	19210	149274	27381	980967	39855	107534	0	0	8115	755253	0	0
2024-05-21 22:06:32			0	33819	0	0	0	20586	19200	149162	27218	980977	39876	107541	0	0	8116	754260	0	0
2024-05-21 22:07:32			0	33831	0	0	0	20599	19200	149058	27131	980950	39876	107546	0	0	8116	753669	0	0
2024-05-21 22:08:32			0	33837	0	0	0	20594	19210	149050	27145	980932	39866	107544	0	0	8117	753333	0	0
2024-05-21 22:09:32			0	33839	0	0	0	20605	19190	149094	27433	980987	39875	107548	0	0	8116	753317	0	0
2024-05-21 22:10:32			0	33842	0	0	0	20607	19210	148954	27308	980993	39876	107549	0	0	8117	753087	0	0
2024-05-21 22:11:32			0	33869	0	0	0	20612	19210	148962	27319	981012	39876	107551	0	0	8118	751760	0	0
2024-05-21 22:12:32			0	33877	0	0	0	20623	19210	148946	27365	981038	39888	107555	0	0	8118	751367	0	0
2024-05-21 22:13:32			0	33863	0	0	0	20610	19220	148946	27284	981028	39888	107550	0	0	8118	752013	0	0
2024-05-21 22:14:32			0	33864	0	0	0	20612	19210	148950	27227	981065	39888	107551	0	0	8118	752005	0	0
2024-05-21 22:15:32			0	33855	0	0	0	20631	19220	148986	27469	981063	39868	107558	0	0	8117	752406	0	0
2024-05-21 22:16:32			0	33855	0	0	0	20631	19220	148930	27265	981081	39888	107558	0	0	8117	752406	0	0
2024-05-21 22:17:32			0	33857	0	0	0	20636	19220	148978	27199	981081	39888	107560	0	0	8117	752308	0	0
2024-05-21 22:18:32			0	33869	0	0	0	20641	19220	148998	27481	981134	39877	107562	0	0	8118	751718	0	0
2024-05-21 22:19:32			0	33861	0	0	0	20641	19230	148990	27130	981151	39879	107562	0	0	8117	752070	0	0
2024-05-21 22:20:32			0	33841	0	0	0	20644	19230	148978	27161	981098	39869	107563	0	0	8116	753053	0	0
2024-05-21 22:21:32			0	33869	0	0	0	20649	19230	148966	27069	981160	39890	107565	0	0	8118	751677	0	0
2024-05-21 22:22:32			0	33857	0	0	0	20662	19220	148858	27512	981116	39878	107570	0	0	8117	752308	0	0
2024-05-21 22:23:32			0	33886	0	0	0	20654	19230	148866	27455	981160	39879	107567	0	0	8118	750843	0	0
2024-05-21 22:24:32			0	33855	0	0	0	20657	19240	148950	27509	981194	39879	107568	0	0	8117	752324	0	0
2024-05-21 22:25:32			0	33868	0	0	0	20654	19240	148970	27511	981203	39880	107567	0	0	8117	751685	0	0
2024-05-21 22:26:32			0	33863	0	0	0	20644	19240	148846	27313	981176	39891	107563	0	0	8117	751931	0	0
2024-05-21 22:27:32			0	33895	0	0	0	20657	19240	148886	26882	981221	39879	107568	0	0	8119	750360	0	0
2024-05-21 22:28:32			0	33882	0	0	0	20664	19250	148874	27185	981185	39903	107571	0	0	8118	750957	0	0
2024-05-21 22:29:32			0	33888	0	0	0	20677	19240	148870	27729	981274	39869	107576	0	0	8118	750703	0	0
2024-05-21 22:30:32			0	33891	0	0	0	20662	19250	148830	27287	981272	39892	107570	0	0	8119	750515	0	0
2024-05-21 22:31:32			0	33891	0	0	0	20670	19250	148814	27123	981238	39892	107573	0	0	8119	750515	0	0
2024-05-21 22:32:32			0	33898	0	0	0	20667	19250	148802	27459	981246	39881	107572	0	0	8119	750172	0	0
2024-05-21 22:33:32			0	33893	0	0	0	20670	19250	148706	27464	981272	39892	107573	0	0	8119	750417	0	0
2024-05-21 22:34:32			0	33916	0	0	0	20659	19260	148738	27215	981289	39871	107569	0	0	8120	749248	0	0
2024-05-21 22:35:32			0	33903	0	0	0	20670	19260	148722	27490	981228	39881	107573	0	0	8119	749886	0	0
2024-05-21 22:36:32			0	33899	0	0	0	20664	19260	148746	27621	981254	39881	107571	0	0	8119	750082	0	0
2024-05-21 22:37:32			0	33904	0	0	0	20667	19260	148854	27492	981263	39871	107572	0	0	8119	749836	0	0
2024-05-21 22:38:32			0	33882	0	0	0	20667	19260	148842	27431	981228	39892	107572	0	0	8118	750915	0	0
2024-05-21 22:39:32			0	33879	0	0	0	20662	19260	148946	27258	981281	39881	107570	0	0	8118	751062	0	0
2024-05-21 22:40:32			0	33883	0	0	0	20664	19260	148878	27326	981263	39893	107571	0	0	8118	750866	0	0
2024-05-21 22:41:32			0	33891	0	0	0	20667	19260	148794	27322	981263	39893	107572	0	0	8119	750474	0	0
2024-05-21 22:42:32			0	33946	0	0	0	20675	19270	148674	27583	981200	39905	107575	0	0	8122	747739	0	0
2024-05-21 22:43:32			0	34013	0	0	0	20675	19270	148314	27145	981271	39883	107575	0	0	8126	744468	0	0
2024-05-21 22:44:32			0	34066	0	0	0	20677	19270	148062	27490	981244	39883	107576	0	0	8129	741889	0	0
2024-05-21 22:45:32			0	34105	0	0	0	20677	19270	147902	27163	981297	39894	107576	0	0	8131	739996	0	0
2024-05-21 22:46:32			0	34125	0	0	0	20688	19270	147754	26925	981297	39905	107580	0	0	8132	739026	0	0
2024-05-21 22:47:32			0	34156	0	0	0	20683	19280	147566	27293	981288	39872	107578	0	0	8134	737485	0	0
2024-05-21 22:48:32			0	34186	0	0	0	20677	19270	147354	27235	981332	39894	107576	0	0	8135	736075	0	0
2024-05-21 22:49:32			0	34241	0	0	0	20675	19270	147278	27107	981279	39894	107575	0	0	8139	733422	0	0
2024-05-21 22:50:32			0	34221	0	0	0	20670	19270	147406	27338	981332	39883	107573	0	0	8138	734386	0	0
2024-05-21 22:51:32			0	34191	0	0	0	20680	19260	147414	27137	981289	39893	107577	0	0	8136	735874	0	0
2024-05-21 22:52:32			0	34197	0	0	0	20675	19260	147582	27358	981236	39882	107575	0	0	8136	735585	0	0
2024-05-21 22:53:32			0	34164	0	0	0	20672	19270	147566	27331	981350	39883	107574	0	0	8134	737138	0	0
2024-05-21 22:54:32			0	34154	0	0	0	20672	19270	147670	27067	981279	39905	107574	0	0	8134	737622	0	0
2024-05-21 22:55:32			0	34161	0	0	0	20670	19260	147606	27222	981369	39882	107573	0	0	8134	737324	0	0
2024-05-21 22:56:32			0	34158	0	0	0	20675	19270	147678	27112	981279	39883	107575	0	0	8134	737429	0	0
2024-05-21 22:57:32			0	34160	0	0	0	20667	19270	147726	27355	981306	39883	107572	0	0	8134	737332	0	0
2024-05-21 22:58:32			0	34140	0	0	0	20667	19270	147722	26975	981332	39883	107572	0	0	8133	738300	0	0
2024-05-21 22:59:32			0	34153	0	0	0	20659	19270	147710	26993	981332	39894	107569	0	0	8134	737671	0	0
2024-05-21 23:00:32			0	34136	0	0	0	20667	19270	147750	27286	981297	39872	107572	0	0	8133	738493	0	0
2024-05-21 23:01:32			0	34125	0	0	0	20670	19270	147838	26830	981306	39883	107573	0	0	8132	739026	0	0
2024-05-21 23:02:32			0	34104	0	0	0	20662	19270	147894	27225	981306	39883	107570	0	0	8131	740044	0	0
2024-05-21 23:03:32			0	34083	0	0	0	20664	19270	147898	27237	981306	39883	107571	0	0	8130	741063	0	0
2024-05-21 23:04:32			0	34089	0	0	0	20657	19260	147882	27256	981289	39882	107568	0	0	8130	740813	0	0
2024-05-21 23:05:32			0	34089	0	0	0	20664	19280	147934	27234	981235	39883	107571	0	0	8130	740731	0	0
2024-05-21 23:06:32			0	34077	0	0	0	20662	19260	147910	27133	981263	39882	107570	0	0	8129	741395	0	0
2024-05-21 23:07:32			0	34053	0	0	0	20654	19270	148010	27365	981297	39872	107567	0	0	8128	742521	0	0
2024-05-21 23:08:32			0	34048	0	0	0	20654	19260	148002	27156	981263	39893	107567	0	0	8128	742805	0	0
2024-05-21 23:09:32			0	34053	0	0	0	20649	19260	148174	27034	981263	39882	107565	0	0	8128	742562	0	0
2024-05-21 23:10:32			0	34042	0	0	0	20649	19260	148222	27213	981236	39893	107565	0	0	8128	743097	0	0
2024-05-21 23:11:32			0	34041	0	0	0	20641	19260	148178	26842	981289	39871	107562	0	0	8128	743146	0	0
2024-05-21 23:12:32			0	34014	0	0	0	20641	19250	148190	27215	981299	39903	107562	0	0	8126	744501	0	0
2024-05-21 23:13:32			0	34028	0	0	0	20649	19260	148178	27265	981281	39871	107565	0	0	8127	743779	0	0
2024-05-21 23:14:32			0	33993	0	0	0	20670	19260	148290	27452	981254	39881	107573	0	0	8124	745485	0	0
2024-05-21 23:15:32			0	33906	0	0	0	20657	19270	148626	27258	981324	39883	107568	0	0	8120	749697	0	0
2024-05-21 23:16:32			0	33848	0	0	0	20667	19260	148966	27194	981316	39893	107572	0	0	8116	752585	0	0
2024-05-21 23:17:32			0	33787	0	0	0	20667	19260	149250	27253	981307	39892	107572	0	0	8113	755588	0	0
2024-05-21 23:18:32			0	33759	0	0	0	20654	19260	149410	27497	981254	39892	107567	0	0	8111	756970	0	0
2024-05-21 23:19:32			0	33711	0	0	0	20646	19260	149542	27350	981316	39893	107564	0	0	8109	759343	0	0
2024-05-21 23:20:32			0	33698	0	0	0	20644	19260	149678	27005	981281	39881	107563	0	0	8108	759987	0	0
2024-05-21 23:21:32			0	33657	0	0	0	20646	19250	149738	27097	981246	39892	107564	0	0	8105	762062	0	0
2024-05-21 23:22:32			0	33662	0	0	0	20641	19260	149782	27345	981263	39882	107562	0	0	8106	761772	0	0
2024-05-21 23:23:32			0	33659	0	0	0	20646	19260	149846	27154	981307	39892	107564	0	0	8106	761921	0	0
2024-05-21 23:24:32			0	33641	0	0	0	20651	19260	149910	27362	981175	39892	107566	0	0	8104	762815	0	0
2024-05-21 23:25:32			0	33612	0	0	0	20636	19250	149974	27189	981238	39881	107560	0	0	8103	764299	0	0
2024-05-21 23:26:32			0	33598	0	0	0	20628	19250	150006	27298	981219	39892	107557	0	0	8102	764996	0	0
2024-05-21 23:27:32			0	33590	0	0	0	20646	19240	150194	27232	981176	39891	107564	0	0	8101	765437	0	0
2024-05-21 23:28:32			0	33583	0	0	0	20628	19250	150222	26861	981193	39881	107557	0	0	8101	765743	0	0
2024-05-21 23:29:32			0	33568	0	0	0	20618	19240	150302	27201	981229	39891	107553	0	0	8101	766533	0	0
2024-05-21 23:30:32			0	33569	0	0	0	20628	19250	150401	27114	981193	39881	107557	0	0	8101	766442	0	0
2024-05-21 23:31:32			0	33553	0	0	0	20631	19240	150373	27362	981115	39879	107558	0	0	8100	767282	0	0
2024-05-21 23:32:32			0	33562	0	0	0	20631	19240	150281	27163	981150	39880	107558	0	0	8100	766833	0	0
2024-05-21 23:33:32			0	33561	0	0	0	20625	19250	150241	27267	981140	39892	107556	0	0	8100	766841	0	0
2024-05-21 23:34:32			0	33568	0	0	0	20620	19240	150194	27360	981123	39870	107554	0	0	8101	766533	0	0
2024-05-21 23:35:32			0	33556	0	0	0	20620	19240	150209	27178	981123	39880	107554	0	0	8100	767132	0	0
2024-05-21 23:36:32			0	33549	0	0	0	20612	19240	150253	27053	981115	39890	107551	0	0	8100	767482	0	0
2024-05-21 23:37:32			0	33560	0	0	0	20618	19240	150281	27178	981168	39879	107553	0	0	8100	766933	0	0
2024-05-21 23:38:32			0	33561	0	0	0	20610	19240	150253	27530	981115	39869	107550	0	0	8100	766883	0	0
2024-05-21 23:39:32			0	33565	0	0	0	20605	19240	150274	27632	981168	39879	107548	0	0	8101	766683	0	0
2024-05-21 23:40:32			0	33559	0	0	0	20605	19220	150253	27486	981090	39889	107548	0	0	8100	767067	0	0
2024-05-21 23:41:32			0	33528	0	0	0	20618	19220	150505	27452	981090	39868	107553	0	0	8098	768615	0	0
2024-05-21 23:42:32			0	33521	0	0	0	20620	19230	150501	27166	981213	39879	107554	0	0	8098	768923	0	0
2024-05-21 23:43:32			0	33509	0	0	0	20605	19230	150617	27431	981125	39869	107548	0	0	8097	769524	0	0
2024-05-21 23:44:32			0	33505	0	0	0	20605	19230	150601	27039	981125	39869	107548	0	0	8097	769724	0	0
2024-05-21 23:45:32			0	33493	0	0	0	20599	19230	150609	27322	981098	39879	107546	0	0	8097	770325	0	0
2024-05-21 23:46:32			0	33492	0	0	0	20599	19220	150709	27090	981037	39889	107546	0	0	8096	770417	0	0
2024-05-21 23:47:32			0	33487	0	0	0	20594	19220	150625	27208	981055	39877	107544	0	0	8096	770667	0	0
2024-05-21 23:48:32			0	33471	0	0	0	20581	19210	150777	27421	981065	39888	107539	0	0	8095	771512	0	0
2024-05-21 23:49:32			0	33460	0	0	0	20586	19210	150865	27563	981046	39876	107541	0	0	8095	772064	0	0
2024-05-21 23:50:32			0	33448	0	0	0	20574	19210	150957	27289	981091	39866	107536	0	0	8094	772666	0	0
2024-05-21 23:51:32			0	33436	0	0	0	20571	19200	151001	27362	981030	39876	107535	0	0	8094	773311	0	0
2024-05-21 23:52:32			0	33431	0	0	0	20561	19200	150997	27100	981030	39876	107531	0	0	8093	773562	0	0
2024-05-21 23:53:32			0	33393	0	0	0	20566	19200	150961	27322	980942	39865	107533	0	0	8091	775474	0	0
2024-05-21 23:54:32			0	33432	0	0	0	20574	19190	151093	27199	980987	39875	107536	0	0	8093	773555	0	0
2024-05-21 23:55:32			0	33409	0	0	0	20571	19200	151125	27241	980942	39865	107535	0	0	8092	774669	0	0
2024-05-21 23:56:32			0	33393	0	0	0	20566	19190	151085	27467	980899	39886	107533	0	0	8091	775517	0	0
2024-05-21 23:57:32			0	33391	0	0	0	20558	19190	151117	27034	980907	39864	107530	0	0	8091	775617	0	0
2024-05-21 23:58:32			0	33400	0	0	0	20571	19190	151109	27327	980934	39864	107535	0	0	8091	775164	0	0
2024-05-21 23:59:32			0	33404	0	0	0	20574	19180	151113	27003	980909	39885	107536	0	0	8092	775005	0	0
2024-05-22 00:00:32			0	33394	0	0	0	20571	19180	151101	27086	980970	39864	107535	0	0	8091	775509	0	0
2024-05-22 00:01:32			0	33405	0	0	0	20568	19180	151173	27365	980917	39864	107534	0	0	8092	774955	0	0
2024-05-22 00:02:32			0	33398	0	0	0	20563	19170	151125	27393	980866	39884	107532	0	0	8091	775350	0	0
2024-05-22 00:03:32			0	33409	0	0	0	20563	19180	151085	27225	980882	39875	107532	0	0	8092	774754	0	0
2024-05-22 00:04:32			0	33399	0	0	0	20558	19170	151093	27440	980874	39863	107530	0	0	8091	775300	0	0
2024-05-22 00:05:32			0	33392	0	0	0	20550	19190	151169	27235	980872	39886	107527	0	0	8091	775567	0	0
2024-05-22 00:06:32			0	33368	0	0	0	20548	19180	151273	27450	980917	39886	107526	0	0	8090	776819	0	0
2024-05-22 00:07:32			0	33389	0	0	0	20537	19170	151169	27234	980786	39874	107522	0	0	8091	775803	0	0
2024-05-22 00:08:32			0	33363	0	0	0	20542	19160	151253	27327	980778	39863	107524	0	0	8090	777157	0	0
2024-05-22 00:09:32			0	33350	0	0	0	20529	19160	151445	27293	980743	39862	107519	0	0	8089	777813	0	0
2024-05-22 00:10:32			0	33334	0	0	0	20542	19150	151365	27114	980841	39872	107524	0	0	8088	778664	0	0
2024-05-22 00:11:32			0	33314	0	0	0	20535	19150	151517	27133	980761	39861	107521	0	0	8087	779675	0	0
2024-05-22 00:12:32			0	33305	0	0	0	20532	19150	151533	27119	980788	39861	107520	0	0	8086	780130	0	0
2024-05-22 00:13:32			0	33259	0	0	0	20532	19150	151701	27322	980814	39872	107520	0	0	8084	782461	0	0
2024-05-22 00:14:32			0	33241	0	0	0	20535	19150	151905	27197	980735	39872	107521	0	0	8082	783374	0	0
2024-05-22 00:15:32			0	33204	0	0	0	20537	19150	151881	27213	980700	39860	107522	0	0	8080	785255	0	0
2024-05-22 00:16:32			0	33194	0	0	0	20527	19140	152045	27079	980797	39871	107518	0	0	8080	785807	0	0
2024-05-22 00:17:32			0	33168	0	0	0	20529	19140	152181	27415	980718	39893	107519	0	0	8078	787132	0	0
2024-05-22 00:18:32			0	33139	0	0	0	20537	19140	152321	27052	980824	39860	107522	0	0	8076	788612	0	0
2024-05-22 00:19:32			0	33127	0	0	0	20535	19150	152341	27034	980806	39893	107521	0	0	8076	789181	0	0
2024-05-22 00:20:32			0	33138	0	0	0	20535	19150	152417	27327	980806	39881	107521	0	0	8076	788619	0	0
2024-05-22 00:21:32			0	33118	0	0	0	20537	19140	152429	27007	980771	39871	107522	0	0	8075	789684	0	0
2024-05-22 00:22:32			0	33108	0	0	0	20537	19140	152605	27308	980710	39881	107522	0	0	8074	790196	0	0
2024-05-22 00:23:32			0	33110	0	0	0	20537	19150	152637	27405	980832	39860	107522	0	0	8075	790050	0	0
2024-05-22 00:24:32			0	33096	0	0	0	20529	19130	152529	27137	980728	39859	107519	0	0	8074	790853	0	0
2024-05-22 00:25:32			0	33080	0	0	0	20527	19140	152429	27293	980691	39849	107518	0	0	8073	791629	0	0
2024-05-22 00:26:32			0	33093	0	0	0	20511	19140	152661	27194	980718	39871	107512	0	0	8074	790963	0	0
2024-05-22 00:27:32			0	33071	0	0	0	20511	19140	152765	27469	980789	39871	107512	0	0	8073	792090	0	0
2024-05-22 00:28:32			0	33059	0	0	0	20506	19140	152729	27293	980736	39849	107510	0	0	8072	792705	0	0
2024-05-22 00:29:32			0	33042	0	0	0	20496	19120	152873	27422	980650	39858	107506	0	0	8071	793664	0	0
2024-05-22 00:30:32			0	33004	0	0	0	20493	19120	152961	27078	980658	39858	107505	0	0	8069	795617	0	0
2024-05-22 00:31:32			0	33006	0	0	0	20488	19120	152993	27448	980605	39858	107503	0	0	8069	795514	0	0
2024-05-22 00:32:32			0	32978	0	0	0	20480	19120	153097	27161	980676	39870	107500	0	0	8067	796955	0	0
2024-05-22 00:33:32			0	32968	0	0	0	20470	19120	153265	27533	980623	39858	107496	0	0	8067	797471	0	0
2024-05-22 00:34:32			0	32919	0	0	0	20462	19100	153185	27104	980545	39857	107493	0	0	8064	800087	0	0
2024-05-22 00:35:32			0	32899	0	0	0	20467	19110	153321	27026	980588	39869	107495	0	0	8063	801077	0	0
2024-05-22 00:36:32			0	32893	0	0	0	20446	19090	153561	27265	980502	39856	107487	0	0	8063	801475	0	0
2024-05-22 00:37:32			0	32873	0	0	0	20454	19100	153545	27336	980492	39845	107490	0	0	8061	802467	0	0
2024-05-22 00:38:32			0	32863	0	0	0	20436	19080	153641	27467	980485	39854	107483	0	0	8061	803074	0	0
2024-05-22 00:39:32			0	32837	0	0	0	20428	19080	153801	27015	980485	39843	107480	0	0	8060	804422	0	0
2024-05-22 00:40:32			0	32818	0	0	0	20431	19070	153769	27317	980389	39854	107481	0	0	8058	805453	0	0
2024-05-22 00:41:32			0	32822	0	0	0	20420	19080	153925	27351	980485	39843	107477	0	0	8059	805202	0	0
2024-05-22 00:42:32			0	32798	0	0	0	20412	19070	154041	27244	980424	39843	107474	0	0	8058	806493	0	0
2024-05-22 00:43:32			0	32777	0	0	0	20420	19060	154109	26930	980320	39841	107477	0	0	8056	807631	0	0
2024-05-22 00:44:32			0	32769	0	0	0	20415	19060	154176	27293	980373	39863	107475	0	0	8056	808048	0	0
2024-05-22 00:45:32			0	32764	0	0	0	20418	19050	154180	27331	980329	39852	107476	0	0	8055	808353	0	0
2024-05-22 00:46:32			0	32770	0	0	0	20418	19060	154160	27060	980399	39852	107476	0	0	8056	807996	0	0
2024-05-22 00:47:32			0	32782	0	0	0	20428	19040	154157	27358	980321	39851	107480	0	0	8056	807459	0	0
2024-05-22 00:48:32			0	32803	0	0	0	20412	19030	153993	26974	980278	39850	107474	0	0	8058	806410	0	0
2024-05-22 00:49:32			0	32795	0	0	0	20431	19040	154017	27001	980321	39863	107481	0	0	8057	806782	0	0
2024-05-22 00:50:32			0	32822	0	0	0	20415	19050	153977	27395	980435	39852	107475	0	0	8059	805334	0	0
2024-05-22 00:51:32			0	32825	0	0	0	20423	19030	153961	27218	980357	39850	107478	0	0	8059	805266	0	0
2024-05-22 00:52:32			0	32838	0	0	0	20412	19030	153909	27033	980304	39839	107474	0	0	8060	804591	0	0
2024-05-22 00:53:32			0	32855	0	0	0	20431	19020	153769	27178	980367	39850	107481	0	0	8060	803753	0	0
2024-05-22 00:54:32			0	32867	0	0	0	20433	19020	153725	27391	980314	39850	107482	0	0	8061	803130	0	0
2024-05-22 00:55:32			0	32878	0	0	0	20420	19040	153681	27258	980348	39863	107477	0	0	8062	802472	0	0
2024-05-22 00:56:32			0	32883	0	0	0	20433	19030	153781	27407	980278	39862	107482	0	0	8062	802257	0	0
2024-05-22 00:57:32			0	32896	0	0	0	20436	19050	153637	27317	980409	39875	107483	0	0	8063	801496	0	0
2024-05-22 00:58:32			0	32907	0	0	0	20405	19040	153661	27116	980339	39850	107471	0	0	8064	800971	0	0
2024-05-22 00:59:32			0	32896	0	0	0	20423	19020	153613	27296	980288	39850	107478	0	0	8063	801628	0	0
2024-05-22 01:00:32			0	32929	0	0	0	20405	19020	153601	27150	980314	39850	107471	0	0	8065	799921	0	0
2024-05-22 01:01:32			0	32939	0	0	0	20412	19030	153433	27156	980304	39862	107474	0	0	8066	799361	0	0
2024-05-22 01:02:32			0	32953	0	0	0	20428	19030	153401	27215	980296	39850	107480	0	0	8066	798638	0	0
2024-05-22 01:03:32			0	32962	0	0	0	20425	19030	153405	27187	980349	39862	107479	0	0	8067	798174	0	0
2024-05-22 01:04:32			0	32967	0	0	0	20418	19020	153289	27372	980314	39850	107476	0	0	8067	797960	0	0
2024-05-22 01:05:32			0	32979	0	0	0	20436	19020	153293	27398	980288	39850	107483	0	0	8068	797341	0	0
2024-05-22 01:06:32			0	32984	0	0	0	20412	19020	153321	27282	980314	39861	107474	0	0	8068	797083	0	0
2024-05-22 01:07:32			0	32979	0	0	0	20425	19020	153377	27126	980261	39850	107479	0	0	8068	797341	0	0
2024-05-22 01:08:32			0	33010	0	0	0	20436	19030	153221	27279	980349	39862	107483	0	0	8070	795701	0	0
2024-05-22 01:09:32			0	32999	0	0	0	20407	19030	153209	27360	980296	39862	107472	0	0	8070	796267	0	0
2024-05-22 01:10:32			0	32994	0	0	0	20433	19030	153225	27218	980296	39862	107482	0	0	8069	796525	0	0
2024-05-22 01:11:32			0	33025	0	0	0	20420	19020	153137	26972	980279	39849	107477	0	0	8071	794973	0	0
2024-05-22 01:12:32			0	33038	0	0	0	20428	19020	153065	27282	980279	39860	107480	0	0	8071	794305	0	0
2024-05-22 01:13:32			0	33055	0	0	0	20433	19020	152973	27256	980288	39861	107482	0	0	8072	793432	0	0
2024-05-22 01:14:32			0	33080	0	0	0	20433	19030	152917	27549	980296	39862	107482	0	0	8074	792107	0	0
2024-05-22 01:15:32			0	33077	0	0	0	20428	19020	152813	27488	980235	39872	107480	0	0	8074	792304	0	0
2024-05-22 01:16:32			0	33077	0	0	0	20425	19030	152769	27131	980323	39850	107479	0	0	8074	792261	0	0
2024-05-22 01:17:32			0	33101	0	0	0	20441	19030	152701	27298	980349	39850	107485	0	0	8075	791031	0	0
2024-05-22 01:18:32			0	33128	0	0	0	20423	19020	152717	27286	980341	39838	107478	0	0	8077	789693	0	0
2024-05-22 01:19:32			0	33128	0	0	0	20412	19020	152777	27440	980314	39850	107474	0	0	8077	789693	0	0
2024-05-22 01:20:32			0	33132	0	0	0	20441	19020	152697	27050	980314	39872	107485	0	0	8077	789489	0	0
2024-05-22 01:21:32			0	33143	0	0	0	20420	19020	152673	27090	980359	39849	107477	0	0	8078	788926	0	0
2024-05-22 01:22:32			0	33166	0	0	0	20428	19030	152421	27307	980296	39850	107480	0	0	8079	787709	0	0
2024-05-22 01:23:32			0	33179	0	0	0	20428	19020	152449	27396	980261	39850	107480	0	0	8080	787089	0	0
2024-05-22 01:24:32			0	33187	0	0	0	20418	19030	152405	27371	980349	39839	107476	0	0	8081	786638	0	0
2024-05-22 01:25:32			0	33186	0	0	0	20412	19020	152389	27211	980279	39838	107474	0	0	8081	786732	0	0
2024-05-22 01:26:32			0	33179	0	0	0	20405	19010	152489	27725	980236	39848	107471	0	0	8080	787132	0	0
2024-05-22 01:27:32			0	33179	0	0	0	20423	19020	152473	27256	980253	39838	107478	0	0	8080	787089	0	0
2024-05-22 01:28:32			0	33189	0	0	0	20438	19020	152333	27459	980261	39850	107484	0	0	8080	786580	0	0
2024-05-22 01:29:32			0	33218	0	0	0	20415	19030	152293	27206	980270	39862	107475	0	0	8082	785060	0	0
2024-05-22 01:30:32			0	33213	0	0	0	20431	19010	152321	27345	980271	39849	107481	0	0	8082	785400	0	0
2024-05-22 01:31:32			0	33233	0	0	0	20410	19020	152221	27303	980341	39861	107473	0	0	8083	784340	0	0
2024-05-22 01:32:32			0	33234	0	0	0	20431	19020	152185	27722	980288	39850	107481	0	0	8083	784289	0	0
2024-05-22 01:33:32			0	33261	0	0	0	20425	19030	152085	27410	980323	39850	107479	0	0	8085	782875	0	0
2024-05-22 01:34:32			0	33293	0	0	0	20431	19020	152105	27374	980332	39849	107481	0	0	8087	781295	0	0
2024-05-22 01:35:32			0	33268	0	0	0	20433	19020	151957	27345	980341	39850	107482	0	0	8085	782562	0	0
2024-05-22 01:36:32			0	33293	0	0	0	20431	19020	151945	27483	980306	39860	107481	0	0	8087	781295	0	0
2024-05-22 01:37:32			0	33309	0	0	0	20428	19020	151873	27334	980288	39838	107480	0	0	8088	780484	0	0
2024-05-22 01:38:32			0	33297	0	0	0	20420	19010	151797	27334	980298	39860	107477	0	0	8087	781135	0	0
2024-05-22 01:39:32			0	33306	0	0	0	20392	19010	151817	27576	980271	39849	107466	0	0	8088	780679	0	0
2024-05-22 01:40:32			0	33282	0	0	0	20420	19020	151845	27249	980314	39861	107477	0	0	8086	781852	0	0
2024-05-22 01:41:32			0	33292	0	0	0	20415	19010	151913	27369	980271	39871	107475	0	0	8087	781388	0	0
2024-05-22 01:42:32			0	33305	0	0	0	20423	19020	151893	27059	980253	39860	107478	0	0	8087	780687	0	0
2024-05-22 01:43:32			0	33306	0	0	0	20405	19010	151801	27402	980245	39860	107471	0	0	8088	780679	0	0
2024-05-22 01:44:32			0	33318	0	0	0	20425	19020	151797	27388	980306	39849	107479	0	0	8088	780028	0	0
2024-05-22 01:45:32			0	33336	0	0	0	20420	19020	151785	27267	980306	39860	107477	0	0	8089	779118	0	0
2024-05-22 01:46:32			0	33341	0	0	0	20425	19030	151625	27197	980323	39862	107479	0	0	8090	778822	0	0
2024-05-22 01:47:32			0	33349	0	0	0	20433	19010	151569	27220	980298	39871	107482	0	0	8090	778504	0	0
2024-05-22 01:48:32			0	33376	0	0	0	20418	19010	151549	27383	980245	39827	107476	0	0	8092	777140	0	0
2024-05-22 01:49:32			0	33347	0	0	0	20418	19010	151513	27364	980316	39859	107476	0	0	8090	778605	0	0
2024-05-22 01:50:32			0	33370	0	0	0	20418	19020	151601	27390	980253	39860	107476	0	0	8091	777400	0	0
2024-05-22 01:51:32			0	33359	0	0	0	20397	19010	151681	27128	980218	39849	107468	0	0	8091	777998	0	0
2024-05-22 01:52:32			0	33346	0	0	0	20389	19000	151657	27053	980254	39848	107465	0	0	8090	778698	0	0
2024-05-22 01:53:32			0	33376	0	0	0	20402	19000	151525	27355	980228	39848	107470	0	0	8092	777183	0	0
2024-05-22 01:54:32			0	33389	0	0	0	20410	19010	151489	27372	980236	39859	107473	0	0	8093	776485	0	0
2024-05-22 01:55:32			0	33400	0	0	0	20412	19000	151429	27176	980228	39859	107474	0	0	8093	775973	0	0
2024-05-22 01:56:32			0	33424	0	0	0	20412	19010	151401	27166	980245	39849	107474	0	0	8095	774721	0	0
2024-05-22 01:57:32			0	33427	0	0	0	20397	19010	151265	27026	980263	39870	107468	0	0	8095	774571	0	0
2024-05-22 01:58:32			0	33438	0	0	0	20412	19010	151253	27161	980289	39859	107474	0	0	8095	774017	0	0
2024-05-22 01:59:32			0	33461	0	0	0	20410	19000	151289	27457	980246	39847	107473	0	0	8097	772904	0	0
2024-05-22 02:00:32			0	33500	0	0	0	20405	19010	151209	27490	980245	39849	107471	0	0	8099	770904	0	0
2024-05-22 02:01:32			0	33496	0	0	0	20410	19010	151061	27069	980263	39859	107473	0	0	8099	771105	0	0
2024-05-22 02:02:32			0	33493	0	0	0	20420	19000	151025	27026	980254	39848	107477	0	0	8098	771297	0	0
2024-05-22 02:03:32			0	33521	0	0	0	20428	19010	150973	27256	980298	39860	107480	0	0	8100	769852	0	0
2024-05-22 02:04:32			0	33532	0	0	0	20415	19010	150889	26812	980263	39859	107475	0	0	8101	769301	0	0
2024-05-22 02:05:32			0	33546	0	0	0	20410	19010	150833	27098	980263	39848	107473	0	0	8102	768601	0	0
2024-05-22 02:06:32			0	33573	0	0	0	20412	19010	150697	27313	980245	39860	107474	0	0	8103	767252	0	0
2024-05-22 02:07:32			0	33555	0	0	0	20410	19010	150745	27507	980263	39848	107473	0	0	8102	768151	0	0
2024-05-22 02:08:32			0	33574	0	0	0	20410	19000	150589	27100	980246	39847	107473	0	0	8103	767244	0	0
2024-05-22 02:09:32			0	33575	0	0	0	20405	19010	150606	27071	980236	39848	107471	0	0	8104	767152	0	0
2024-05-22 02:10:32			0	33617	0	0	0	20412	19020	150650	27291	980253	39860	107474	0	0	8106	765015	0	0
2024-05-22 02:11:32			0	33598	0	0	0	20428	19010	150522	27190	980218	39860	107480	0	0	8105	766004	0	0
2024-05-22 02:12:32			0	33623	0	0	0	20410	19020	150530	27173	980332	39849	107473	0	0	8106	764716	0	0
2024-05-22 02:13:32			0	33608	0	0	0	20423	19010	150390	26868	980245	39860	107478	0	0	8105	765506	0	0
2024-05-22 02:14:32			0	33643	0	0	0	20420	19000	150382	27220	980281	39859	107477	0	0	8107	763805	0	0
2024-05-22 02:15:32			0	33658	0	0	0	20420	19010	150426	27289	980236	39848	107477	0	0	8108	763017	0	0
2024-05-22 02:16:32			0	33616	0	0	0	20423	19010	150410	27097	980245	39838	107478	0	0	8106	765107	0	0
2024-05-22 02:17:32			0	33639	0	0	0	20410	19010	150378	27274	980271	39860	107473	0	0	8107	763962	0	0
2024-05-22 02:18:32			0	33641	0	0	0	20423	19010	150274	27064	980245	39849	107478	0	0	8107	763862	0	0
2024-05-22 02:19:32			0	33643	0	0	0	20425	19020	150362	27088	980306	39871	107479	0	0	8107	763721	0	0
2024-05-22 02:20:32			0	33636	0	0	0	20410	19010	150350	27067	980298	39849	107473	0	0	8107	764111	0	0
2024-05-22 02:21:32			0	33641	0	0	0	20415	19010	150386	26991	980271	39860	107475	0	0	8107	763862	0	0
2024-05-22 02:22:32			0	33652	0	0	0	20423	19010	150338	27218	980263	39859	107478	0	0	8108	763315	0	0
2024-05-22 02:23:32			0	33640	0	0	0	20425	19010	150314	26930	980324	39849	107479	0	0	8107	763912	0	0
2024-05-22 02:24:32			0	33635	0	0	0	20420	19010	150370	27074	980298	39849	107477	0	0	8107	764161	0	0
2024-05-22 02:25:32			0	33636	0	0	0	20425	19010	150266	27324	980271	39871	107479	0	0	8107	764111	0	0
2024-05-22 02:26:32			0	33655	0	0	0	20410	19020	150366	27057	980279	39860	107473	0	0	8108	763124	0	0
2024-05-22 02:27:32			0	33664	0	0	0	20425	19020	150246	27215	980279	39871	107479	0	0	8108	762677	0	0
2024-05-22 02:28:32			0	33661	0	0	0	20407	19020	150198	27180	980306	39849	107472	0	0	8109	762826	0	0
2024-05-22 02:29:32			0	33651	0	0	0	20415	19010	150234	27197	980271	39838	107475	0	0	8108	763365	0	0
2024-05-22 02:30:32			0	33636	0	0	0	20410	19020	150218	27293	980253	39860	107473	0	0	8107	764069	0	0
2024-05-22 02:31:32			0	33657	0	0	0	20412	19010	150358	27131	980245	39860	107474	0	0	8108	763066	0	0
2024-05-22 02:32:32			0	33651	0	0	0	20418	19010	150226	27163	980236	39837	107476	0	0	8108	763365	0	0
2024-05-22 02:33:32			0	33661	0	0	0	20418	19020	150186	27020	980253	39849	107476	0	0	8108	762826	0	0
2024-05-22 02:34:32			0	33671	0	0	0	20412	19010	150166	27069	980324	39860	107474	0	0	8109	762371	0	0
2024-05-22 02:35:32			0	33686	0	0	0	20428	19010	150074	27206	980289	39848	107480	0	0	8110	761626	0	0
2024-05-22 02:36:32			0	33668	0	0	0	20415	19010	150150	27118	980263	39859	107475	0	0	8109	762520	0	0
2024-05-22 02:37:32			0	33687	0	0	0	20423	19010	150050	27164	980263	39837	107478	0	0	8110	761576	0	0
2024-05-22 02:38:32			0	33687	0	0	0	20420	19010	150110	27339	980245	39849	107477	0	0	8110	761576	0	0
2024-05-22 02:39:32			0	33700	0	0	0	20418	19010	150118	26889	980245	39849	107476	0	0	8111	760931	0	0
2024-05-22 02:40:32			0	33711	0	0	0	20423	19010	150054	27209	980263	39859	107478	0	0	8111	760386	0	0
2024-05-22 02:41:32			0	33711	0	0	0	20415	19010	150026	27434	980271	39849	107475	0	0	8111	760386	0	0
2024-05-22 02:42:32			0	33725	0	0	0	20431	19010	150062	27291	980271	39849	107481	0	0	8112	759692	0	0
2024-05-22 02:43:32			0	33726	0	0	0	20412	19010	149930	27319	980324	39838	107474	0	0	8112	759642	0	0
2024-05-22 02:44:32			0	33724	0	0	0	20412	19010	149958	27137	980289	39859	107474	0	0	8112	759742	0	0
2024-05-22 02:45:32			0	33740	0	0	0	20407	19020	149898	27336	980279	39860	107472	0	0	8113	758907	0	0
2024-05-22 02:46:32			0	33752	0	0	0	20415	19010	149846	26922	980298	39860	107475	0	0	8114	758355	0	0
2024-05-22 02:47:32			0	33747	0	0	0	20405	19010	149766	27222	980298	39881	107471	0	0	8114	758603	0	0
2024-05-22 02:48:32			0	33752	0	0	0	20402	19020	149830	27239	980226	39849	107470	0	0	8114	758314	0	0
2024-05-22 02:49:32			0	33785	0	0	0	20397	19010	149726	27400	980218	39860	107468	0	0	8116	756724	0	0
2024-05-22 02:50:32			0	33760	0	0	0	20399	19000	149786	27301	980281	39848	107469	0	0	8114	758001	0	0
2024-05-22 02:51:32			0	33791	0	0	0	20397	19010	149714	26960	980316	39837	107468	0	0	8116	756428	0	0
2024-05-22 02:52:32			0	33798	0	0	0	20392	19010	149670	27066	980210	39859	107466	0	0	8117	756083	0	0
2024-05-22 02:53:32			0	33808	0	0	0	20399	19020	149670	26955	980332	39860	107469	0	0	8117	755548	0	0
2024-05-22 02:54:32			0	33804	0	0	0	20386	19000	149698	27360	980193	39858	107464	0	0	8117	755828	0	0
2024-05-22 02:55:32			0	33795	0	0	0	20394	19010	149686	27020	980218	39849	107467	0	0	8117	756231	0	0
2024-05-22 02:56:32			0	33834	0	0	0	20394	19000	149546	27102	980228	39870	107467	0	0	8119	754349	0	0
2024-05-22 02:57:32			0	33819	0	0	0	20389	19000	149638	27076	980201	39848	107465	0	0	8118	755088	0	0
2024-05-22 02:58:32			0	33832	0	0	0	20392	19000	149626	27332	980201	39848	107466	0	0	8119	754447	0	0
2024-05-22 02:59:32			0	33834	0	0	0	20381	18980	149506	27026	980142	39857	107462	0	0	8119	754432	0	0
2024-05-22 03:00:32			0	33838	0	0	0	20381	18990	149510	26927	980158	39858	107462	0	0	8119	754193	0	0
2024-05-22 03:01:32			0	33848	0	0	0	20384	18990	149430	27364	980124	39857	107463	0	0	8120	753701	0	0
2024-05-22 03:02:32			0	33835	0	0	0	20386	18990	149442	27137	980132	39847	107464	0	0	8119	754341	0	0
2024-05-22 03:03:32			0	33850	0	0	0	20384	19000	149518	27144	980193	39869	107463	0	0	8120	753561	0	0
2024-05-22 03:04:32			0	33854	0	0	0	20381	18990	149538	27327	980150	39868	107462	0	0	8120	753406	0	0
2024-05-22 03:05:32			0	33856	0	0	0	20381	18980	149386	27003	980133	39845	107462	0	0	8120	753348	0	0
2024-05-22 03:06:32			0	33878	0	0	0	20376	18980	149374	27208	980168	39868	107460	0	0	8122	752267	0	0
2024-05-22 03:07:32			0	33875	0	0	0	20381	18990	149322	27176	980177	39846	107462	0	0	8121	752373	0	0
2024-05-22 03:08:32			0	33870	0	0	0	20371	18990	149302	27281	980203	39868	107458	0	0	8121	752619	0	0
2024-05-22 03:09:32			0	33877	0	0	0	20376	18990	149270	27429	980150	39846	107460	0	0	8121	752274	0	0
2024-05-22 03:10:32			0	33875	0	0	0	20384	18990	149358	27265	980150	39857	107463	0	0	8121	752373	0	0
2024-05-22 03:11:32			0	33876	0	0	0	20376	18980	149338	27059	980115	39857	107460	0	0	8121	752365	0	0
2024-05-22 03:12:32			0	33887	0	0	0	20381	18980	149274	27322	980160	39856	107462	0	0	8122	751824	0	0
2024-05-22 03:13:32			0	33896	0	0	0	20379	18980	149246	27526	980115	39846	107461	0	0	8122	751382	0	0
2024-05-22 03:14:32			0	33908	0	0	0	20399	18980	149306	27272	980186	39868	107469	0	0	8123	750793	0	0
2024-05-22 03:15:32			0	33898	0	0	0	20389	18980	149238	27440	980115	39868	107465	0	0	8122	751284	0	0
2024-05-22 03:16:32			0	33911	0	0	0	20397	18980	149198	27149	980195	39857	107468	0	0	8123	750646	0	0
2024-05-22 03:17:32			0	33935	0	0	0	20399	18990	149114	26941	980203	39846	107469	0	0	8124	749428	0	0
2024-05-22 03:18:32			0	33955	0	0	0	20394	19000	149082	27319	980246	39869	107467	0	0	8126	748407	0	0
2024-05-22 03:19:32			0	33974	0	0	0	20402	18990	149038	27003	980230	39857	107470	0	0	8127	747519	0	0
2024-05-22 03:20:32			0	33977	0	0	0	20407	18990	148930	27345	980256	39846	107472	0	0	8127	747372	0	0
2024-05-22 03:21:32			0	33994	0	0	0	20418	18990	148854	27201	980230	39846	107476	0	0	8128	746541	0	0
2024-05-22 03:22:32			0	34013	0	0	0	20438	18990	148718	27272	980264	39869	107484	0	0	8128	745613	0	0
2024-05-22 03:23:32			0	34038	0	0	0	20436	19010	148718	27322	980263	39848	107483	0	0	8130	744312	0	0
2024-05-22 03:24:32			0	34046	0	0	0	20428	19000	148634	27459	980273	39858	107480	0	0	8130	743963	0	0
2024-05-22 03:25:32			0	34085	0	0	0	20428	19000	148498	27182	980220	39869	107480	0	0	8133	742065	0	0
2024-05-22 03:26:32			0	34089	0	0	0	20433	19010	148518	27578	980289	39859	107482	0	0	8133	741830	0	0
2024-05-22 03:27:32			0	34096	0	0	0	20436	19010	148458	27059	980351	39871	107483	0	0	8133	741490	0	0
2024-05-22 03:28:32			0	34101	0	0	0	20441	19000	148422	27256	980307	39870	107485	0	0	8133	741287	0	0
2024-05-22 03:29:32			0	34127	0	0	0	20454	19010	148230	27085	980377	39849	107490	0	0	8135	739984	0	0
2024-05-22 03:30:32			0	34151	0	0	0	20446	19010	148234	27306	980351	39849	107487	0	0	8136	738821	0	0
2024-05-22 03:31:32			0	34145	0	0	0	20457	19020	148186	27339	980385	39860	107491	0	0	8136	739071	0	0
2024-05-22 03:32:32			0	34153	0	0	0	20451	19010	148058	27088	980377	39849	107489	0	0	8136	738724	0	0
2024-05-22 03:33:32			0	34177	0	0	0	20459	19020	148162	27232	980412	39860	107492	0	0	8137	737521	0	0
2024-05-22 03:34:32			0	34177	0	0	0	20459	19030	148010	27123	980455	39873	107492	0	0	8137	737481	0	0
2024-05-22 03:35:32			0	34196	0	0	0	20454	19030	147994	27280	980410	39873	107490	0	0	8139	736562	0	0
2024-05-22 03:36:32			0	34188	0	0	0	20459	19030	147898	27140	980429	39862	107492	0	0	8138	736949	0	0
2024-05-22 03:37:32			0	34196	0	0	0	20457	19040	147934	27352	980427	39874	107491	0	0	8139	736522	0	0
2024-05-22 03:38:32			0	34207	0	0	0	20467	19030	147910	27441	980463	39862	107495	0	0	8139	736030	0	0
2024-05-22 03:39:32			0	34223	0	0	0	20454	19050	147942	27149	980515	39885	107490	0	0	8140	735177	0	0
2024-05-22 03:40:32			0	34214	0	0	0	20451	19030	148054	27409	980437	39862	107489	0	0	8140	735692	0	0
2024-05-22 03:41:32			0	34221	0	0	0	20470	19050	147938	27298	980488	39863	107496	0	0	8140	735274	0	0
2024-05-22 03:42:32			0	34229	0	0	0	20470	19060	147882	26922	980505	39852	107496	0	0	8140	734847	0	0
2024-05-22 03:43:32			0	34230	0	0	0	20462	19050	147890	27310	980488	39863	107493	0	0	8141	734839	0	0
2024-05-22 03:44:32			0	34246	0	0	0	20467	19050	147822	27367	980497	39863	107495	0	0	8141	734068	0	0
2024-05-22 03:45:32			0	34246	0	0	0	20472	19050	147810	27253	980470	39875	107497	0	0	8141	734068	0	0
2024-05-22 03:46:32			0	34254	0	0	0	20467	19060	147726	27268	980513	39864	107495	0	0	8142	733642	0	0
2024-05-22 03:47:32			0	34263	0	0	0	20477	19060	147710	27256	980505	39875	107499	0	0	8142	733208	0	0
2024-05-22 03:48:32			0	34267	0	0	0	20477	19060	147762	27157	980513	39875	107499	0	0	8142	733016	0	0
2024-05-22 03:49:32			0	34263	0	0	0	20477	19060	147774	27305	980540	39864	107499	0	0	8142	733208	0	0
2024-05-22 03:50:32			0	34257	0	0	0	20480	19070	147774	27272	980548	39865	107500	0	0	8142	733457	0	0
2024-05-22 03:51:32			0	34280	0	0	0	20477	19060	147674	26920	980566	39864	107499	0	0	8143	732390	0	0
2024-05-22 03:52:32			0	34275	0	0	0	20472	19060	147662	27067	980540	39853	107497	0	0	8143	732630	0	0
2024-05-22 03:53:32			0	34283	0	0	0	20477	19070	147670	27242	980495	39854	107499	0	0	8143	732205	0	0
2024-05-22 03:54:32			0	34295	0	0	0	20485	19070	147634	27227	980575	39875	107502	0	0	8144	731628	0	0
2024-05-22 03:55:32			0	34288	0	0	0	20483	19070	147558	27001	980583	39865	107501	0	0	8144	731965	0	0
2024-05-22 03:56:32			0	34294	0	0	0	20488	19080	147602	27029	980591	39886	107503	0	0	8144	731636	0	0
2024-05-22 03:57:32			0	34299	0	0	0	20480	19080	147610	27421	980573	39876	107500	0	0	8144	731396	0	0
2024-05-22 03:58:32			0	34316	0	0	0	20480	19070	147582	27163	980548	39865	107500	0	0	8145	730619	0	0
2024-05-22 03:59:32			0	34292	0	0	0	20477	19080	147618	27291	980591	39865	107499	0	0	8144	731732	0	0
2024-05-22 04:00:32			0	34307	0	0	0	20483	19080	147478	27450	980565	39875	107501	0	0	8145	731011	0	0
2024-05-22 04:01:32			0	34306	0	0	0	20498	19070	147490	27251	980556	39865	107507	0	0	8144	731099	0	0
2024-05-22 04:02:32			0	34320	0	0	0	20475	19070	147502	27355	980530	39865	107498	0	0	8146	730427	0	0
2024-05-22 04:03:32			0	34327	0	0	0	20493	19080	147410	27367	980591	39865	107505	0	0	8146	730051	0	0
2024-05-22 04:04:32			0	34338	0	0	0	20496	19080	147402	27348	980697	39875	107506	0	0	8146	729523	0	0
2024-05-22 04:05:32			0	34349	0	0	0	20501	19080	147479	27433	980644	39875	107508	0	0	8147	728995	0	0
2024-05-22 04:06:32			0	34358	0	0	0	20501	19080	147402	26984	980626	39876	107508	0	0	8147	728564	0	0
2024-05-22 04:07:32			0	34341	0	0	0	20501	19090	147426	26987	980634	39867	107508	0	0	8146	729339	0	0
2024-05-22 04:08:32			0	34357	0	0	0	20496	19080	147319	27390	980644	39875	107506	0	0	8147	728612	0	0
2024-05-22 04:09:32			0	34333	0	0	0	20496	19090	147270	27060	980581	39867	107506	0	0	8146	729723	0	0
2024-05-22 04:10:32			0	34352	0	0	0	20496	19090	147291	26970	980714	39867	107506	0	0	8147	728811	0	0
2024-05-22 04:11:32			0	34358	0	0	0	20485	19090	147283	27168	980634	39856	107502	0	0	8148	728524	0	0
2024-05-22 04:12:32			0	34369	0	0	0	20496	19100	147291	27066	980651	39878	107506	0	0	8148	727957	0	0
2024-05-22 04:13:32			0	34354	0	0	0	20493	19090	147351	26847	980687	39877	107505	0	0	8147	728715	0	0
2024-05-22 04:14:32			0	34363	0	0	0	20498	19090	147275	27086	980661	39856	107507	0	0	8148	728284	0	0
2024-05-22 04:15:32			0	34364	0	0	0	20488	19090	147271	27216	980634	39877	107503	0	0	8148	728236	0	0
2024-05-22 04:16:32			0	34362	0	0	0	20490	19100	147231	27345	980643	39878	107504	0	0	8148	728292	0	0
2024-05-22 04:17:32			0	34369	0	0	0	20501	19090	147231	27112	980634	39877	107508	0	0	8148	727997	0	0
2024-05-22 04:18:32			0	34358	0	0	0	20485	19100	147279	27357	980669	39868	107502	0	0	8148	728484	0	0
2024-05-22 04:19:32			0	34374	0	0	0	20503	19080	147279	27142	980600	39876	107509	0	0	8148	727797	0	0
2024-05-22 04:20:32			0	34371	0	0	0	20498	19100	147275	27147	980643	39868	107507	0	0	8148	727861	0	0
2024-05-22 04:21:32			0	34372	0	0	0	20493	19090	147207	27419	980608	39877	107505	0	0	8148	727853	0	0
2024-05-22 04:22:32			0	34348	0	0	0	20496	19100	147270	27057	980722	39868	107506	0	0	8147	728963	0	0
2024-05-22 04:23:32			0	34356	0	0	0	20490	19100	147343	27369	980704	39857	107504	0	0	8147	728580	0	0
2024-05-22 04:24:32			0	34368	0	0	0	20498	19100	147251	27097	980678	39868	107507	0	0	8148	728005	0	0
2024-05-22 04:25:32			0	34356	0	0	0	20483	19090	147423	27279	980634	39877	107501	0	0	8148	728620	0	0
2024-05-22 04:26:32			0	34341	0	0	0	20503	19100	147250	27364	980651	39845	107509	0	0	8146	729299	0	0
2024-05-22 04:27:32			0	34352	0	0	0	20493	19100	147347	27013	980616	39868	107505	0	0	8147	728771	0	0
2024-05-22 04:28:32			0	34315	0	0	0	20480	19100	147430	27078	980643	39889	107500	0	0	8145	730547	0	0
2024-05-22 04:29:32			0	34329	0	0	0	20490	19100	147422	27220	980616	39878	107504	0	0	8146	729875	0	0
2024-05-22 04:30:32			0	34343	0	0	0	20493	19080	147486	27142	980653	39844	107505	0	0	8147	729283	0	0
2024-05-22 04:31:32			0	34311	0	0	0	20483	19090	147482	27390	980634	39877	107501	0	0	8145	730779	0	0
2024-05-22 04:32:32			0	34301	0	0	0	20472	19090	147594	26942	980634	39877	107497	0	0	8145	731259	0	0
2024-05-22 04:33:32			0	34272	0	0	0	20454	19090	147690	27547	980581	39877	107490	0	0	8143	732654	0	0
2024-05-22 04:34:32			0	34243	0	0	0	20462	19080	147742	27124	980591	39854	107493	0	0	8141	734091	0	0
2024-05-22 04:35:32			0	34241	0	0	0	20472	19080	147874	27201	980600	39866	107497	0	0	8141	734188	0	0
2024-05-22 04:36:32			0	34243	0	0	0	20454	19080	147914	27324	980538	39875	107490	0	0	8142	734091	0	0
2024-05-22 04:37:32			0	34225	0	0	0	20467	19080	147978	27248	980591	39865	107495	0	0	8140	734960	0	0
2024-05-22 04:38:32			0	34224	0	0	0	20444	19080	148002	26934	980618	39875	107486	0	0	8141	735008	0	0
2024-05-22 04:39:32			0	34205	0	0	0	20457	19070	148042	26831	980522	39865	107491	0	0	8139	735965	0	0
2024-05-22 04:40:32			0	34193	0	0	0	20459	19060	148174	26805	980513	39875	107492	0	0	8139	736586	0	0
2024-05-22 04:41:32			0	34162	0	0	0	20436	19060	148198	27057	980460	39864	107483	0	0	8137	738085	0	0
2024-05-22 04:42:32			0	34179	0	0	0	20457	19060	148302	27303	980513	39853	107491	0	0	8138	737263	0	0
2024-05-22 04:43:32			0	34170	0	0	0	20438	19060	148250	27197	980487	39875	107484	0	0	8138	737698	0	0
2024-05-22 04:44:32			0	34166	0	0	0	20444	19060	148194	27246	980487	39853	107486	0	0	8137	737892	0	0
2024-05-22 04:45:32			0	34181	0	0	0	20444	19060	148202	27360	980505	39863	107486	0	0	8138	737166	0	0
2024-05-22 04:46:32			0	34175	0	0	0	20457	19060	148122	27429	980478	39863	107491	0	0	8138	737456	0	0
2024-05-22 04:47:32			0	34194	0	0	0	20470	19060	148078	27007	980566	39864	107496	0	0	8138	736537	0	0
2024-05-22 04:48:32			0	34235	0	0	0	20475	19060	148074	27124	980593	39875	107498	0	0	8141	734558	0	0
2024-05-22 04:49:32			0	34236	0	0	0	20477	19060	148002	27289	980558	39875	107499	0	0	8141	734509	0	0
2024-05-22 04:50:32			0	34238	0	0	0	20470	19060	148014	27256	980593	39853	107496	0	0	8141	734413	0	0
2024-05-22 04:51:32			0	34266	0	0	0	20477	19060	147902	27140	980566	39875	107499	0	0	8142	733064	0	0
2024-05-22 04:52:32			0	34269	0	0	0	20475	19070	147866	27086	980583	39875	107498	0	0	8143	732879	0	0
2024-05-22 04:53:32			0	34258	0	0	0	20475	19070	147790	27291	980575	39865	107498	0	0	8142	733409	0	0
2024-05-22 04:54:32			0	34278	0	0	0	20477	19070	147794	27010	980609	39875	107499	0	0	8143	732446	0	0
2024-05-22 04:55:32			0	34270	0	0	0	20477	19070	147834	27045	980530	39865	107499	0	0	8143	732831	0	0
2024-05-22 04:56:32			0	34255	0	0	0	20470	19070	147842	27012	980609	39865	107496	0	0	8142	733553	0	0
2024-05-22 04:57:32			0	34257	0	0	0	20457	19060	147882	27272	980593	39875	107491	0	0	8142	733497	0	0
2024-05-22 04:58:32			0	34261	0	0	0	20470	19070	147874	26979	980556	39854	107496	0	0	8142	733264	0	0
2024-05-22 04:59:32			0	34268	0	0	0	20467	19070	147818	27083	980556	39865	107495	0	0	8143	732927	0	0
2024-05-22 05:00:32			0	34251	0	0	0	20464	19070	147922	27308	980601	39865	107494	0	0	8142	733746	0	0
2024-05-22 05:01:32			0	34235	0	0	0	20477	19060	147850	27244	980593	39864	107499	0	0	8141	734558	0	0
2024-05-22 05:02:32			0	34254	0	0	0	20470	19070	147970	27388	980575	39865	107496	0	0	8142	733601	0	0
2024-05-22 05:03:32			0	34255	0	0	0	20467	19070	147842	27246	980583	39854	107495	0	0	8142	733553	0	0
2024-05-22 05:04:32			0	34244	0	0	0	20467	19060	147910	27289	980513	39864	107495	0	0	8141	734124	0	0
2024-05-22 05:05:32			0	34275	0	0	0	20470	19070	147862	27516	980575	39875	107496	0	0	8143	732590	0	0
2024-05-22 05:06:32			0	34269	0	0	0	20485	19070	147758	27189	980583	39854	107502	0	0	8142	732879	0	0
2024-05-22 05:07:32			0	34281	0	0	0	20490	19070	147738	27294	980601	39875	107504	0	0	8143	732301	0	0
2024-05-22 05:08:32			0	34287	0	0	0	20470	19060	147654	27199	980619	39864	107496	0	0	8144	732053	0	0
2024-05-22 05:09:32			0	34307	0	0	0	20480	19080	147718	27059	980618	39865	107500	0	0	8145	731011	0	0
2024-05-22 05:10:32			0	34315	0	0	0	20477	19070	147638	27137	980609	39875	107499	0	0	8145	730667	0	0
2024-05-22 05:11:32			0	34320	0	0	0	20483	19070	147658	27093	980662	39854	107501	0	0	8145	730427	0	0
2024-05-22 05:12:32			0	34330	0	0	0	20485	19080	147626	27097	980724	39875	107502	0	0	8146	729906	0	0
2024-05-22 05:13:32			0	34328	0	0	0	20480	19080	147578	27293	980591	39875	107500	0	0	8146	730003	0	0
2024-05-22 05:14:32			0	34331	0	0	0	20488	19080	147658	27367	980618	39865	107503	0	0	8146	729858	0	0
2024-05-22 05:15:32			0	34346	0	0	0	20496	19080	147482	26949	980644	39865	107506	0	0	8147	729139	0	0
2024-05-22 05:16:32			0	34335	0	0	0	20488	19070	147418	27275	980609	39886	107503	0	0	8146	729707	0	0
2024-05-22 05:17:32			0	34394	0	0	0	20496	19080	147375	27351	980679	39887	107506	0	0	8149	726840	0	0
2024-05-22 05:18:32			0	34373	0	0	0	20498	19090	147467	27164	980687	39856	107507	0	0	8148	727805	0	0
2024-05-22 05:19:32			0	34393	0	0	0	20509	19080	147339	27187	980600	39866	107511	0	0	8149	726888	0	0
2024-05-22 05:20:32			0	34403	0	0	0	20493	19100	147235	27523	980669	39868	107505	0	0	8150	726330	0	0
2024-05-22 05:21:32			0	34417	0	0	0	20509	19090	147147	27097	980634	39877	107511	0	0	8151	725700	0	0
2024-05-22 05:22:32			0	34460	0	0	0	20522	19090	147099	26955	980714	39867	107516	0	0	8153	723648	0	0
2024-05-22 05:23:32			0	34469	0	0	0	20511	19100	147011	27142	980731	39878	107512	0	0	8153	723179	0	0
2024-05-22 05:24:32			0	34491	0	0	0	20524	19110	146899	27426	980739	39868	107517	0	0	8155	722092	0	0
2024-05-22 05:25:32			0	34518	0	0	0	20519	19100	146891	27190	980749	39868	107515	0	0	8156	720848	0	0
2024-05-22 05:26:32			0	34528	0	0	0	20532	19110	146819	27083	980792	39868	107520	0	0	8156	720333	0	0
2024-05-22 05:27:32			0	34541	0	0	0	20522	19100	146719	27130	980757	39878	107516	0	0	8157	719755	0	0
2024-05-22 05:28:32			0	34543	0	0	0	20527	19110	146735	27396	980766	39868	107518	0	0	8157	719621	0	0
2024-05-22 05:29:32			0	34551	0	0	0	20527	19120	146659	27320	980756	39891	107518	0	0	8158	719202	0	0
2024-05-22 05:30:32			0	34572	0	0	0	20519	19120	146631	27229	980835	39870	107515	0	0	8159	718206	0	0
2024-05-22 05:31:32			0	34556	0	0	0	20537	19120	146579	27345	980782	39880	107522	0	0	8158	718964	0	0
2024-05-22 05:32:32			0	34556	0	0	0	20532	19120	146603	27192	980809	39891	107520	0	0	8158	718964	0	0
2024-05-22 05:33:32			0	34574	0	0	0	20529	19120	146519	27331	980844	39880	107519	0	0	8159	718111	0	0
2024-05-22 05:34:32			0	34591	0	0	0	20540	19120	146555	26991	980862	39870	107523	0	0	8160	717306	0	0
2024-05-22 05:35:32			0	34620	0	0	0	20550	19120	146555	27149	980844	39880	107527	0	0	8161	715933	0	0
2024-05-22 05:36:32			0	34621	0	0	0	20550	19130	146515	27415	980878	39880	107527	0	0	8161	715847	0	0
2024-05-22 05:37:32			0	34635	0	0	0	20542	19120	146459	27277	980897	39880	107524	0	0	8162	715224	0	0
2024-05-22 05:38:32			0	34628	0	0	0	20545	19120	146355	27381	980870	39891	107525	0	0	8162	715555	0	0
2024-05-22 05:39:32			0	34632	0	0	0	20529	19130	146311	27275	980852	39880	107519	0	0	8162	715327	0	0
2024-05-22 05:40:32			0	34625	0	0	0	20542	19140	146331	27208	980895	39881	107524	0	0	8162	715618	0	0
2024-05-22 05:41:32			0	34659	0	0	0	20529	19140	146367	27222	980895	39893	107519	0	0	8164	714013	0	0
2024-05-22 05:42:32			0	34668	0	0	0	20558	19130	146199	27227	980931	39870	107530	0	0	8164	713627	0	0
2024-05-22 05:43:32			0	34704	0	0	0	20555	19130	146155	27229	980913	39870	107529	0	0	8166	711931	0	0
2024-05-22 05:44:32			0	34694	0	0	0	20566	19150	146107	27438	980912	39893	107533	0	0	8165	712324	0	0
2024-05-22 05:45:32			0	34701	0	0	0	20574	19140	145963	27145	980956	39893	107536	0	0	8166	712033	0	0
2024-05-22 05:46:32			0	34695	0	0	0	20566	19140	146123	26986	981009	39893	107533	0	0	8165	712316	0	0
2024-05-22 05:47:32			0	34724	0	0	0	20576	19150	145971	27199	980912	39904	107537	0	0	8167	710912	0	0
2024-05-22 05:48:32			0	34736	0	0	0	20571	19150	145987	27296	980965	39881	107535	0	0	8168	710348	0	0
2024-05-22 05:49:32			0	34726	0	0	0	20571	19150	145931	27076	981026	39882	107535	0	0	8167	710818	0	0
2024-05-22 05:50:32			0	34742	0	0	0	20576	19150	145895	26975	981026	39916	107537	0	0	8168	710066	0	0
2024-05-22 05:51:32			0	34740	0	0	0	20584	19160	145935	27133	980990	39895	107540	0	0	8168	710121	0	0
2024-05-22 05:52:32			0	34766	0	0	0	20594	19170	145927	27319	981025	39874	107544	0	0	8169	708861	0	0
2024-05-22 05:53:32			0	34767	0	0	0	20592	19160	145807	27303	981043	39895	107543	0	0	8169	708853	0	0
2024-05-22 05:54:32			0	34756	0	0	0	20581	19170	145775	27265	981078	39884	107539	0	0	8169	709330	0	0
2024-05-22 05:55:32			0	34762	0	0	0	20592	19180	145779	27263	981041	39896	107543	0	0	8169	709010	0	0
2024-05-22 05:56:32			0	34762	0	0	0	20584	19160	145827	27351	981069	39884	107540	0	0	8169	709088	0	0
2024-05-22 05:57:32			0	34770	0	0	0	20597	19170	145831	26779	981051	39884	107545	0	0	8169	708673	0	0
2024-05-22 05:58:32			0	34793	0	0	0	20597	19180	145695	27388	981102	39897	107545	0	0	8171	707556	0	0
2024-05-22 05:59:32			0	34778	0	0	0	20589	19180	145763	26899	981094	39896	107542	0	0	8170	708259	0	0
2024-05-22 06:00:32			0	34789	0	0	0	20594	19190	145747	27176	981084	39897	107544	0	0	8170	707705	0	0
2024-05-22 06:01:32			0	34781	0	0	0	20610	19180	145735	27088	981155	39897	107550	0	0	8170	708119	0	0
2024-05-22 06:02:32			0	34787	0	0	0	20602	19190	145711	27050	981137	39897	107547	0	0	8170	707799	0	0
2024-05-22 06:03:32			0	34796	0	0	0	20620	19190	145643	27069	981137	39908	107554	0	0	8170	707377	0	0
2024-05-22 06:04:32			0	34819	0	0	0	20618	19190	145567	27022	981172	39908	107553	0	0	8172	706300	0	0
2024-05-22 06:05:32			0	34826	0	0	0	20607	19190	145507	27343	981199	39897	107549	0	0	8172	705972	0	0
2024-05-22 06:06:32			0	34833	0	0	0	20607	19200	145527	26840	981136	39899	107549	0	0	8173	705606	0	0
2024-05-22 06:07:32			0	34837	0	0	0	20599	19200	145563	27261	981180	39887	107546	0	0	8173	705419	0	0
2024-05-22 06:08:32			0	34844	0	0	0	20607	19200	145523	27255	981136	39899	107549	0	0	8173	705092	0	0
2024-05-22 06:09:32			0	34845	0	0	0	20602	19200	145455	27015	981180	39898	107547	0	0	8173	705045	0	0
2024-05-22 06:10:32			0	34846	0	0	0	20610	19200	145447	27424	981154	39909	107550	0	0	8173	704999	0	0
2024-05-22 06:11:32			0	34841	0	0	0	20615	19200	145419	26975	981215	39888	107552	0	0	8173	705232	0	0
2024-05-22 06:12:32			0	34840	0	0	0	20605	19200	145435	27390	981162	39888	107548	0	0	8173	705279	0	0
2024-05-22 06:13:32			0	34855	0	0	0	20620	19210	145471	26949	981118	39876	107554	0	0	8174	704540	0	0
2024-05-22 06:14:32			0	34849	0	0	0	20610	19200	145419	27107	981215	39888	107550	0	0	8174	704859	0	0
2024-05-22 06:15:32			0	34846	0	0	0	20605	19210	145439	27026	981179	39899	107548	0	0	8173	704960	0	0
2024-05-22 06:16:32			0	34853	0	0	0	20618	19200	145423	27294	981215	39899	107553	0	0	8174	704672	0	0
2024-05-22 06:17:32			0	34873	0	0	0	20612	19210	145523	27353	981224	39899	107551	0	0	8175	703699	0	0
2024-05-22 06:18:32			0	34863	0	0	0	20615	19210	145411	27118	981258	39888	107552	0	0	8174	704166	0	0
2024-05-22 06:19:32			0	34867	0	0	0	20610	19210	145351	27447	981197	39876	107550	0	0	8175	703979	0	0
2024-05-22 06:20:32			0	34869	0	0	0	20605	19210	145391	27379	981171	39899	107548	0	0	8175	703886	0	0
2024-05-22 06:21:32			0	34860	0	0	0	20615	19210	145323	27383	981224	39888	107552	0	0	8174	704306	0	0
2024-05-22 06:22:32			0	34877	0	0	0	20620	19210	145343	27568	981205	39899	107554	0	0	8175	703513	0	0
2024-05-22 06:23:32			0	34872	0	0	0	20625	19210	145323	27422	981224	39888	107556	0	0	8175	703746	0	0
2024-05-22 06:24:32			0	34871	0	0	0	20612	19220	145267	27568	981214	39888	107551	0	0	8175	703754	0	0
2024-05-22 06:25:32			0	34874	0	0	0	20618	19210	145311	27319	981179	39888	107553	0	0	8175	703653	0	0
2024-05-22 06:26:32			0	34882	0	0	0	20620	19210	145171	27072	981205	39899	107554	0	0	8175	703279	0	0
2024-05-22 06:27:32			0	34903	0	0	0	20623	19210	145243	27322	981232	39876	107555	0	0	8176	702301	0	0
2024-05-22 06:28:32			0	34905	0	0	0	20628	19210	145155	27081	981205	39888	107557	0	0	8176	702207	0	0
2024-05-22 06:29:32			0	34904	0	0	0	20610	19210	145143	27046	981152	39899	107550	0	0	8177	702254	0	0
2024-05-22 06:30:32			0	34896	0	0	0	20615	19220	145283	27260	981187	39911	107552	0	0	8176	702588	0	0
2024-05-22 06:31:32			0	34910	0	0	0	20605	19210	145163	27182	981205	39888	107548	0	0	8177	701974	0	0
2024-05-22 06:32:32			0	34905	0	0	0	20618	19220	145239	27166	981214	39888	107553	0	0	8177	702169	0	0
2024-05-22 06:33:32			0	34901	0	0	0	20620	19210	145183	27208	981224	39888	107554	0	0	8176	702394	0	0
2024-05-22 06:34:32			0	34901	0	0	0	20625	19220	145227	27412	981240	39900	107556	0	0	8176	702355	0	0
2024-05-22 06:35:32			0	34888	0	0	0	20625	19220	145215	27022	981222	39901	107556	0	0	8176	702961	0	0
2024-05-22 06:36:32			0	34884	0	0	0	20636	19220	145259	27403	981240	39877	107560	0	0	8175	703148	0	0
2024-05-22 06:37:32			0	34918	0	0	0	20633	19230	145087	27369	981310	39901	107559	0	0	8177	701525	0	0
2024-05-22 06:38:32			0	34902	0	0	0	20636	19220	144975	27118	981275	39901	107560	0	0	8176	702309	0	0
2024-05-22 06:39:32			0	34936	0	0	0	20628	19230	145023	27272	981284	39913	107557	0	0	8178	700687	0	0
2024-05-22 06:40:32			0	34933	0	0	0	20641	19220	145131	27535	981302	39889	107562	0	0	8178	700865	0	0
2024-05-22 06:41:32			0	34939	0	0	0	20636	19220	145051	27355	981275	39889	107560	0	0	8178	700586	0	0
2024-05-22 06:42:32			0	34939	0	0	0	20638	19230	145051	27164	981372	39890	107561	0	0	8178	700548	0	0
2024-05-22 06:43:32			0	34931	0	0	0	20636	19230	145079	27192	981292	39913	107560	0	0	8178	700920	0	0
2024-05-22 06:44:32			0	34931	0	0	0	20651	19230	145023	27176	981319	39890	107566	0	0	8178	700920	0	0
2024-05-22 06:45:32			0	34933	0	0	0	20636	19240	144959	27355	981300	39890	107560	0	0	8178	700789	0	0
2024-05-22 06:46:32			0	34934	0	0	0	20644	19240	144995	27156	981353	39901	107563	0	0	8178	700742	0	0
2024-05-22 06:47:32			0	34951	0	0	0	20644	19220	144971	27140	981302	39901	107563	0	0	8179	700028	0	0
2024-05-22 06:48:32			0	34958	0	0	0	20654	19230	144987	27294	981372	39901	107567	0	0	8179	699665	0	0
2024-05-22 06:49:32			0	34968	0	0	0	20664	19240	144963	27272	981388	39902	107571	0	0	8179	699162	0	0
2024-05-22 06:50:32			0	34957	0	0	0	20654	19250	144899	27180	981397	39903	107567	0	0	8179	699634	0	0
2024-05-22 06:51:32			0	34954	0	0	0	20657	19240	144959	27377	981353	39901	107568	0	0	8179	699812	0	0
2024-05-22 06:52:32			0	34974	0	0	0	20667	19240	144871	27052	981388	39913	107572	0	0	8180	698883	0	0
2024-05-22 06:53:32			0	34973	0	0	0	20657	19240	144855	27397	981388	39891	107568	0	0	8180	698930	0	0
2024-05-22 06:54:32			0	34959	0	0	0	20657	19250	144955	27201	981397	39903	107568	0	0	8179	699541	0	0
2024-05-22 06:55:32			0	34970	0	0	0	20667	19250	144895	27329	981378	39892	107572	0	0	8180	699031	0	0
2024-05-22 06:56:32			0	34976	0	0	0	20677	19260	144935	27234	981448	39915	107576	0	0	8180	698714	0	0
2024-05-22 06:57:32			0	34993	0	0	0	20685	19260	144783	26953	981448	39915	107579	0	0	8181	697925	0	0
2024-05-22 06:58:32			0	34997	0	0	0	20677	19260	144779	27248	981422	39925	107576	0	0	8181	697740	0	0
2024-05-22 06:59:32			0	35014	0	0	0	20670	19260	144779	27384	981475	39893	107573	0	0	8182	696952	0	0
2024-05-22 07:00:32			0	35013	0	0	0	20680	19250	144763	27381	981458	39903	107577	0	0	8182	697037	0	0
2024-05-22 07:01:32			0	35004	0	0	0	20664	19270	144763	27150	981536	39883	107571	0	0	8182	697377	0	0
2024-05-22 07:02:32			0	35025	0	0	0	20685	19270	144727	27230	981465	39905	107579	0	0	8182	696404	0	0
2024-05-22 07:03:32			0	35007	0	0	0	20690	19270	144719	27507	981509	39894	107581	0	0	8181	697238	0	0
2024-05-22 07:04:32			0	35018	0	0	0	20675	19270	144715	27517	981518	39905	107575	0	0	8182	696728	0	0
2024-05-22 07:05:32			0	35025	0	0	0	20683	19280	144903	27293	981473	39905	107578	0	0	8182	696366	0	0
2024-05-22 07:06:32			0	35018	0	0	0	20690	19270	144791	27441	981491	39905	107581	0	0	8182	696728	0	0
2024-05-22 07:07:32			0	35014	0	0	0	20683	19280	144715	27046	981526	39905	107578	0	0	8182	696875	0	0
2024-05-22 07:08:32			0	35030	0	0	0	20680	19290	144679	27405	981516	39917	107577	0	0	8183	696097	0	0
2024-05-22 07:09:32			0	35017	0	0	0	20672	19280	144787	27204	981561	39906	107574	0	0	8182	696737	0	0
2024-05-22 07:10:32			0	35019	0	0	0	20696	19280	144711	27298	981508	39895	107583	0	0	8182	696644	0	0
2024-05-22 07:11:32			0	35018	0	0	0	20683	19270	144723	27189	981518	39905	107578	0	0	8182	696728	0	0
2024-05-22 07:12:32			0	35025	0	0	0	20683	19280	144659	27293	981553	39916	107578	0	0	8182	696366	0	0
2024-05-22 07:13:32			0	35031	0	0	0	20685	19280	144671	27204	981534	39906	107579	0	0	8183	696088	0	0
2024-05-22 07:14:32			0	35022	0	0	0	20683	19280	144675	27329	981508	39906	107578	0	0	8182	696505	0	0
2024-05-22 07:15:32			0	35047	0	0	0	20690	19290	144575	27244	981516	39895	107581	0	0	8184	695310	0	0
2024-05-22 07:16:32			0	35031	0	0	0	20690	19280	144659	27255	981534	39906	107581	0	0	8183	696088	0	0
2024-05-22 07:17:32			0	35035	0	0	0	20688	19280	144663	27552	981534	39906	107580	0	0	8183	695903	0	0
2024-05-22 07:18:32			0	35029	0	0	0	20696	19290	144631	27218	981543	39907	107583	0	0	8182	696143	0	0
2024-05-22 07:19:32			0	35022	0	0	0	20693	19280	144607	27507	981587	39906	107582	0	0	8182	696505	0	0
2024-05-22 07:20:32			0	35036	0	0	0	20683	19300	144639	27371	981533	39896	107578	0	0	8183	695781	0	0
2024-05-22 07:21:32			0	35034	0	0	0	20693	19280	144775	27150	981534	39916	107582	0	0	8183	695950	0	0
2024-05-22 07:22:32			0	35025	0	0	0	20685	19290	144711	27445	981490	39907	107579	0	0	8182	696328	0	0
2024-05-22 07:23:32			0	35027	0	0	0	20696	19290	144707	27540	981569	39917	107583	0	0	8182	696235	0	0
2024-05-22 07:24:32			0	35039	0	0	0	20693	19290	144719	27493	981569	39917	107582	0	0	8183	695680	0	0
2024-05-22 07:25:32			0	35039	0	0	0	20693	19280	144795	27308	981553	39905	107582	0	0	8183	695718	0	0
2024-05-22 07:26:32			0	35047	0	0	0	20696	19290	144719	27409	981596	39895	107583	0	0	8183	695310	0	0
2024-05-22 07:27:32			0	35021	0	0	0	20683	19280	144763	27656	981561	39895	107578	0	0	8182	696551	0	0
2024-05-22 07:28:32			0	35035	0	0	0	20685	19300	144851	27545	981533	39908	107579	0	0	8183	695827	0	0
2024-05-22 07:29:32			0	35035	0	0	0	20696	19290	144787	27562	981569	39895	107583	0	0	8183	695865	0	0
2024-05-22 07:30:32			0	35041	0	0	0	20693	19290	144703	27308	981596	39907	107582	0	0	8183	695588	0	0
2024-05-22 07:31:32			0	35040	0	0	0	20690	19280	144691	27519	981561	39906	107581	0	0	8183	695672	0	0
2024-05-22 07:32:32			0	35041	0	0	0	20680	19280	144803	27261	981534	39906	107577	0	0	8183	695626	0	0
2024-05-22 07:33:32			0	35043	0	0	0	20675	19290	144779	27400	981569	39884	107575	0	0	8184	695495	0	0
2024-05-22 07:34:32			0	35033	0	0	0	20703	19280	144799	27327	981534	39906	107586	0	0	8183	695996	0	0
2024-05-22 07:35:32			0	35053	0	0	0	20685	19290	144775	27682	981569	39907	107579	0	0	8184	695033	0	0
2024-05-22 07:36:32			0	35032	0	0	0	20685	19290	144731	27377	981569	39895	107579	0	0	8183	696004	0	0
2024-05-22 07:37:32			0	35020	0	0	0	20685	19290	144763	27255	981525	39896	107579	0	0	8182	696559	0	0
2024-05-22 07:38:32			0	35040	0	0	0	20688	19300	144683	27673	981559	39908	107580	0	0	8183	695596	0	0
2024-05-22 07:39:32			0	35032	0	0	0	20701	19290	144723	27362	981604	39908	107585	0	0	8183	696004	0	0
2024-05-22 07:40:32			0	35046	0	0	0	20701	19290	144699	27472	981631	39908	107585	0	0	8183	695356	0	0
2024-05-22 07:41:32			0	35093	0	0	0	20683	19290	144675	27545	981622	39907	107578	0	0	8186	693186	0	0
2024-05-22 07:42:32			0	35052	0	0	0	20688	19290	144623	27654	981551	39918	107580	0	0	8184	695079	0	0
2024-05-22 07:43:32			0	35022	0	0	0	20711	19300	144691	27313	981612	39908	107589	0	0	8182	696429	0	0
2024-05-22 07:44:32			0	35073	0	0	0	20706	19300	144591	27390	981586	39896	107587	0	0	8185	694070	0	0
2024-05-22 07:45:32			0	35065	0	0	0	20693	19300	144703	27223	981586	39908	107582	0	0	8185	694440	0	0
2024-05-22 07:46:32			0	35054	0	0	0	20664	19300	144635	27319	981639	39929	107571	0	0	8184	694948	0	0
2024-05-22 07:47:32			0	35022	0	0	0	20677	19300	144719	27450	981621	39908	107576	0	0	8182	696429	0	0
2024-05-22 07:48:32			0	35031	0	0	0	20680	19290	144735	27279	981578	39908	107577	0	0	8183	696050	0	0
2024-05-22 07:49:32			0	35019	0	0	0	20685	19300	144755	27438	981586	39908	107579	0	0	8182	696567	0	0
2024-05-22 07:50:32			0	35022	0	0	0	20685	19300	144743	27417	981621	39908	107579	0	0	8182	696429	0	0
2024-05-22 07:51:32			0	35035	0	0	0	20716	19290	144795	27616	981604	39908	107591	0	0	8182	695865	0	0
2024-05-22 07:52:32			0	35055	0	0	0	20696	19290	144727	27352	981657	39918	107583	0	0	8184	694940	0	0
2024-05-22 07:53:32			0	35109	0	0	0	20735	19290	144555	27324	981604	39918	107598	0	0	8186	692448	0	0
2024-05-22 07:54:32			0	35093	0	0	0	20711	19300	144399	27202	981647	39908	107589	0	0	8186	693148	0	0
2024-05-22 07:55:32			0	35080	0	0	0	20703	19310	144387	27585	981735	39908	107586	0	0	8185	693709	0	0
2024-05-22 07:56:32			0	35086	0	0	0	20672	19310	144543	27152	981611	39898	107574	0	0	8186	693432	0	0
2024-05-22 07:57:32			0	35079	0	0	0	20716	19310	144543	27512	981656	39897	107591	0	0	8185	693756	0	0
2024-05-22 07:58:32			0	35105	0	0	0	20696	19310	144524	27312	981709	39919	107583	0	0	8187	692556	0	0
2024-05-22 07:59:32			0	35109	0	0	0	20719	19310	144416	27249	981656	39908	107592	0	0	8187	692372	0	0
2024-05-22 08:00:32			0	35120	0	0	0	20714	19300	144400	27400	981700	39918	107590	0	0	8187	691903	0	0
2024-05-22 08:01:32			0	35112	0	0	0	20701	19310	144455	27419	981637	39919	107585	0	0	8187	692234	0	0
2024-05-22 08:02:32			0	35091	0	0	0	20719	19300	144563	27301	981639	39908	107592	0	0	8186	693240	0	0
2024-05-22 08:03:32			0	35114	0	0	0	20719	19310	144548	27381	981690	39919	107592	0	0	8187	692141	0	0
2024-05-22 08:04:32			0	35108	0	0	0	20727	19300	144447	27156	981700	39896	107595	0	0	8186	692456	0	0
2024-05-22 08:05:32			0	35147	0	0	0	20719	19310	144332	27431	981690	39909	107592	0	0	8189	690622	0	0
2024-05-22 08:06:32			0	35148	0	0	0	20714	19310	144256	27621	981656	39897	107590	0	0	8189	690576	0	0
2024-05-22 08:07:32			0	35155	0	0	0	20732	19310	144272	27407	981717	39887	107597	0	0	8189	690254	0	0
2024-05-22 08:08:32			0	35164	0	0	0	20740	19310	144228	27633	981743	39909	107600	0	0	8189	689840	0	0
2024-05-22 08:09:32			0	35183	0	0	0	20714	19320	144128	27372	981760	39919	107590	0	0	8191	688930	0	0
2024-05-22 08:10:32			0	35169	0	0	0	20740	19320	144220	27557	981760	39909	107600	0	0	8190	689573	0	0
2024-05-22 08:11:32			0	35173	0	0	0	20716	19320	144192	27765	981707	39898	107591	0	0	8190	689389	0	0
2024-05-22 08:12:32			0	35175	0	0	0	20735	19320	144260	27464	981752	39909	107598	0	0	8190	689297	0	0
2024-05-22 08:13:32			0	35210	0	0	0	20729	19320	144024	27781	981752	39898	107596	0	0	8192	687691	0	0
2024-05-22 08:14:32			0	35194	0	0	0	20740	19320	144036	27272	981760	39919	107600	0	0	8191	688425	0	0
2024-05-22 08:15:32			0	35212	0	0	0	20740	19320	143988	27436	981778	39919	107600	0	0	8192	687599	0	0
2024-05-22 08:16:32			0	35242	0	0	0	20735	19330	143952	27630	981795	39920	107598	0	0	8194	686187	0	0
2024-05-22 08:17:32			0	35234	0	0	0	20755	19340	143892	27235	981812	39921	107606	0	0	8193	686515	0	0
2024-05-22 08:18:32			0	35225	0	0	0	20722	19330	143836	27350	981750	39921	107593	0	0	8193	686965	0	0
2024-05-22 08:19:32			0	35233	0	0	0	20714	19330	143932	27176	981768	39899	107590	0	0	8194	686599	0	0
2024-05-22 08:20:32			0	35227	0	0	0	20750	19330	143980	27473	981795	39920	107604	0	0	8193	686874	0	0
2024-05-22 08:21:32			0	35260	0	0	0	20771	19340	143960	27334	981812	39921	107612	0	0	8194	685325	0	0
2024-05-22 08:22:32			0	35287	0	0	0	20784	19340	143880	27263	981873	39921	107617	0	0	8195	684091	0	0
2024-05-22 08:23:32			0	35258	0	0	0	20732	19350	143844	27428	981882	39912	107597	0	0	8195	685379	0	0
2024-05-22 08:24:32			0	35260	0	0	0	20735	19350	143884	27367	981855	39933	107598	0	0	8195	685288	0	0
2024-05-22 08:25:32			0	35257	0	0	0	20745	19340	143976	27093	981820	39921	107602	0	0	8194	685463	0	0
2024-05-22 08:26:32			0	35254	0	0	0	20742	19350	143884	27511	981882	39922	107601	0	0	8194	685562	0	0
2024-05-22 08:27:32			0	35230	0	0	0	20742	19340	143992	27263	981865	39921	107601	0	0	8193	686698	0	0
2024-05-22 08:28:32			0	35232	0	0	0	20753	19340	143992	27559	981846	39921	107605	0	0	8193	686607	0	0
2024-05-22 08:29:32			0	35253	0	0	0	20750	19350	143852	27310	981961	39912	107604	0	0	8194	685608	0	0
2024-05-22 08:30:32			0	35284	0	0	0	20771	19340	143732	27251	981918	39911	107612	0	0	8195	684228	0	0
2024-05-22 08:31:32			0	35302	0	0	0	20799	19350	143732	27483	981969	39923	107623	0	0	8196	683369	0	0
2024-05-22 08:32:32			0	35339	0	0	0	20784	19350	143588	27498	981969	39913	107617	0	0	8198	681682	0	0
2024-05-22 08:33:32			0	35339	0	0	0	20774	19360	143572	27331	981951	39934	107613	0	0	8199	681644	0	0
2024-05-22 08:34:32			0	35317	0	0	0	20724	19350	143576	27428	981969	39923	107594	0	0	8198	682684	0	0
2024-05-22 08:35:32			0	35301	0	0	0	20771	19360	143564	27275	981960	39914	107612	0	0	8196	683377	0	0
2024-05-22 08:36:32			0	35350	0	0	0	20758	19360	143536	26866	981898	39923	107607	0	0	8199	681143	0	0
2024-05-22 08:37:32			0	35301	0	0	0	20750	19360	143624	26844	981898	39913	107604	0	0	8197	683377	0	0
2024-05-22 08:38:32			0	35315	0	0	0	20797	19360	143648	27085	981898	39923	107622	0	0	8197	682738	0	0
2024-05-22 08:39:32			0	35303	0	0	0	20727	19360	143660	27098	981960	39935	107595	0	0	8197	683286	0	0
2024-05-22 08:40:32			0	35311	0	0	0	20789	19360	143772	27197	981978	39913	107619	0	0	8197	682920	0	0
2024-05-22 08:41:32			0	35343	0	0	0	20786	19370	143596	27140	981994	39924	107618	0	0	8199	681425	0	0
2024-05-22 08:42:32			0	35336	0	0	0	20763	19370	143644	27244	982021	39902	107609	0	0	8199	681743	0	0
2024-05-22 08:43:32			0	35342	0	0	0	20792	19380	143512	27180	982029	39915	107620	0	0	8198	681433	0	0
2024-05-22 08:44:32			0	35351	0	0	0	20789	19370	143636	27190	981968	39914	107619	0	0	8199	681060	0	0
2024-05-22 08:45:32			0	35370	0	0	0	20792	19380	143540	27098	981950	39925	107620	0	0	8200	680158	0	0
2024-05-22 08:46:32			0	35362	0	0	0	20753	19390	143480	27265	982046	39926	107605	0	0	8200	680485	0	0
2024-05-22 08:47:32			0	35376	0	0	0	20802	19390	143456	27298	982046	39926	107624	0	0	8200	679848	0	0
2024-05-22 08:48:32			0	35384	0	0	0	20797	19390	143424	27157	982054	39937	107622	0	0	8201	679484	0	0
2024-05-22 08:49:32			0	35375	0	0	0	20792	19390	143412	27175	982081	39915	107620	0	0	8200	679894	0	0
2024-05-22 08:50:32			0	35369	0	0	0	20786	19390	143420	27485	982019	39937	107618	0	0	8200	680166	0	0
2024-05-22 08:51:32			0	35395	0	0	0	20786	19400	143372	27724	982063	39926	107618	0	0	8202	678947	0	0
2024-05-22 08:52:32			0	35369	0	0	0	20771	19390	143536	27543	982046	39937	107612	0	0	8200	680166	0	0
2024-05-22 08:53:32			0	35346	0	0	0	20774	19400	143656	27308	982063	39916	107613	0	0	8199	681176	0	0
2024-05-22 08:54:32			0	35363	0	0	0	20784	19390	143684	27357	982019	39915	107617	0	0	8200	680439	0	0
2024-05-22 08:55:32			0	35348	0	0	0	20818	19390	143560	27500	982081	39926	107630	0	0	8198	681122	0	0
2024-05-22 08:56:32			0	35381	0	0	0	20820	19400	143480	27514	982124	39939	107631	0	0	8200	679583	0	0
2024-05-22 08:57:32			0	35354	0	0	0	20789	19390	143552	27485	982054	39915	107619	0	0	8199	680849	0	0
2024-05-22 08:58:32			0	35363	0	0	0	20805	19400	143544	27391	982089	39916	107625	0	0	8199	680402	0	0
2024-05-22 08:59:32			0	35325	0	0	0	20799	19400	143580	27777	982018	39916	107623	0	0	8198	682132	0	0
2024-05-22 09:00:32			0	35360	0	0	0	20838	19390	143540	27360	982107	39926	107638	0	0	8199	680576	0	0
2024-05-22 09:01:32			0	35393	0	0	0	20841	19390	143424	27211	982134	39937	107639	0	0	8200	679075	0	0
2024-05-22 09:02:32			0	35415	0	0	0	20833	19410	143356	27590	982132	39916	107636	0	0	8202	678002	0	0
2024-05-22 09:03:32			0	35415	0	0	0	20846	19410	143352	27144	982141	39939	107641	0	0	8202	678002	0	0
2024-05-22 09:04:32			0	35422	0	0	0	20810	19420	143188	26996	982228	39917	107627	0	0	8203	677647	0	0
2024-05-22 09:05:32			0	35416	0	0	0	20841	19420	143244	27244	982149	39928	107639	0	0	8202	677919	0	0
2024-05-22 09:06:32			0	35432	0	0	0	20828	19430	143160	27367	982192	39929	107634	0	0	8203	677157	0	0
2024-05-22 09:07:32			0	35428	0	0	0	20833	19420	143140	27552	982202	39939	107636	0	0	8203	677375	0	0
2024-05-22 09:08:32			0	35453	0	0	0	20849	19420	143128	27469	982263	39929	107642	0	0	8204	676242	0	0
2024-05-22 09:09:32			0	35454	0	0	0	20841	19420	143088	27333	982210	39929	107639	0	0	8204	676197	0	0
2024-05-22 09:10:32			0	35449	0	0	0	20823	19430	143056	27267	982272	39940	107632	0	0	8204	676386	0	0
2024-05-22 09:11:32			0	35450	0	0	0	20838	19430	143124	26975	982219	39918	107638	0	0	8204	676341	0	0
2024-05-22 09:12:32			0	35455	0	0	0	20823	19440	143104	27516	982288	39930	107632	0	0	8204	676077	0	0
2024-05-22 09:13:32			0	35437	0	0	0	20849	19430	143092	27353	982245	39918	107642	0	0	8203	676930	0	0
2024-05-22 09:14:32			0	35470	0	0	0	20841	19430	143100	27326	982219	39940	107639	0	0	8205	675436	0	0
2024-05-22 09:15:32			0	35448	0	0	0	20838	19430	143076	27237	982192	39929	107638	0	0	8204	676432	0	0
2024-05-22 09:16:32			0	35439	0	0	0	20833	19430	143024	27703	982219	39918	107636	0	0	8203	676839	0	0
2024-05-22 09:17:32			0	35449	0	0	0	20851	19420	143068	27339	982184	39918	107643	0	0	8203	676423	0	0
2024-05-22 09:18:32			0	35473	0	0	0	20846	19420	143100	27360	982263	39929	107641	0	0	8205	675337	0	0
2024-05-22 09:19:32			0	35467	0	0	0	20844	19440	143032	27611	982235	39930	107640	0	0	8205	675534	0	0
2024-05-22 09:20:32			0	35458	0	0	0	20857	19440	143048	27282	982262	39919	107645	0	0	8204	675942	0	0
2024-05-22 09:21:32			0	35482	0	0	0	20862	19440	142980	27372	982323	39931	107647	0	0	8205	674856	0	0
2024-05-22 09:22:32			0	35469	0	0	0	20854	19440	143040	27698	982288	39930	107644	0	0	8205	675444	0	0
2024-05-22 09:23:32			0	35458	0	0	0	20851	19450	143036	27317	982358	39931	107643	0	0	8204	675904	0	0
2024-05-22 09:24:32			0	35480	0	0	0	20875	19450	142888	27260	982384	39942	107652	0	0	8205	674909	0	0
2024-05-22 09:25:32			0	35480	0	0	0	20859	19450	142960	27428	982331	39931	107646	0	0	8205	674909	0	0
2024-05-22 09:26:32			0	35470	0	0	0	20844	19450	142928	27211	982331	39920	107640	0	0	8205	675361	0	0
2024-05-22 09:27:32			0	35441	0	0	0	20851	19450	142996	27161	982305	39920	107643	0	0	8203	676674	0	0
2024-05-22 09:28:32			0	35479	0	0	0	20890	19450	142952	27327	982331	39942	107658	0	0	8205	674954	0	0
2024-05-22 09:29:32			0	35478	0	0	0	20890	19460	142960	27618	982401	39932	107658	0	0	8205	674962	0	0
2024-05-22 09:30:32			0	35481	0	0	0	20890	19460	142768	27152	982436	39933	107658	0	0	8205	674827	0	0
2024-05-22 09:31:32			0	35486	0	0	0	20831	19470	142812	27410	982497	39944	107635	0	0	8206	674564	0	0
2024-05-22 09:32:32			0	35484	0	0	0	20867	19460	142928	27343	982428	39943	107649	0	0	8205	674691	0	0
2024-05-22 09:33:32			0	35481	0	0	0	20857	19470	142976	27516	982497	39933	107645	0	0	8205	674790	0	0
2024-05-22 09:34:32			0	35445	0	0	0	20844	19460	143080	27524	982375	39921	107640	0	0	8204	676456	0	0
2024-05-22 09:35:32			0	35445	0	0	0	20870	19460	143104	27272	982330	39933	107650	0	0	8203	676456	0	0
2024-05-22 09:36:32			0	35476	0	0	0	20893	19460	143068	27623	982436	39944	107659	0	0	8204	675053	0	0
2024-05-22 09:37:32			0	35455	0	0	0	20896	19460	143032	27516	982436	39921	107660	0	0	8203	676003	0	0
2024-05-22 09:38:32			0	35500	0	0	0	20922	19480	142908	27303	982541	39945	107670	0	0	8205	673894	0	0
2024-05-22 09:39:32			0	35501	0	0	0	20851	19470	142940	26982	982506	39945	107643	0	0	8207	673886	0	0
2024-05-22 09:40:32			0	35450	0	0	0	20838	19470	143024	27319	982506	39933	107638	0	0	8204	676192	0	0
2024-05-22 09:41:32			0	35412	0	0	0	20794	19470	143140	27098	982400	39922	107621	0	0	8203	677915	0	0
2024-05-22 09:42:32			0	35347	0	0	0	20841	19460	143364	27013	982356	39921	107639	0	0	8198	680905	0	0
2024-05-22 09:43:32			0	35393	0	0	0	20841	19460	143416	27300	982330	39933	107639	0	0	8201	678814	0	0
2024-05-22 09:44:32			0	35378	0	0	0	20875	19460	143420	27301	982383	39933	107652	0	0	8199	679496	0	0
2024-05-22 09:45:32			0	35388	0	0	0	20836	19470	143292	27587	982506	39945	107637	0	0	8201	679004	0	0
2024-05-22 09:46:32			0	35329	0	0	0	20805	19470	143584	27255	982320	39933	107625	0	0	8198	681688	0	0
2024-05-22 09:47:32			0	35372	0	0	0	20896	19460	143532	27414	982375	39921	107660	0	0	8199	679768	0	0
2024-05-22 09:48:32			0	35397	0	0	0	20883	19470	143440	27502	982444	39944	107655	0	0	8200	678595	0	0
2024-05-22 09:49:32			0	35402	0	0	0	20893	19470	143316	27582	982453	39933	107659	0	0	8200	678368	0	0
2024-05-22 09:50:32			0	35411	0	0	0	20880	19470	143300	27350	982559	39945	107654	0	0	8201	677960	0	0
2024-05-22 09:51:32			0	35405	0	0	0	20880	19470	143204	27571	982559	39945	107654	0	0	8201	678232	0	0
2024-05-22 09:52:32			0	35423	0	0	0	20901	19480	143260	27213	982488	39945	107662	0	0	8201	677378	0	0
2024-05-22 09:53:32			0	35453	0	0	0	20927	19490	143108	27360	982558	39946	107672	0	0	8203	675982	0	0
2024-05-22 09:54:32			0	35470	0	0	0	20953	19500	143120	27538	982601	39947	107682	0	0	8203	675176	0	0
2024-05-22 09:55:32			0	35476	0	0	0	20937	19500	142860	27255	982601	39947	107676	0	0	8204	674904	0	0
2024-05-22 09:56:32			0	35528	0	0	0	20955	19510	142908	27381	982652	39937	107683	0	0	8206	672519	0	0
2024-05-22 09:57:32			0	35540	0	0	0	20958	19520	142872	27336	982714	39949	107684	0	0	8207	671941	0	0
2024-05-22 09:58:32			0	35514	0	0	0	20927	19520	142720	27206	982714	39938	107672	0	0	8206	673114	0	0
2024-05-22 09:59:32			0	35514	0	0	0	20937	19510	142804	27417	982732	39948	107676	0	0	8206	673151	0	0
2024-05-22 10:00:32			0	35520	0	0	0	20958	19520	142760	27682	982722	39938	107684	0	0	8206	672843	0	0
2024-05-22 10:01:32			0	35524	0	0	0	20929	19520	142808	27661	982740	39959	107673	0	0	8207	672663	0	0
2024-05-22 10:02:32			0	35510	0	0	0	20940	19520	142864	27568	982695	39938	107677	0	0	8206	673294	0	0
2024-05-22 10:03:32			0	35509	0	0	0	20958	19520	142820	27445	982687	39949	107684	0	0	8205	673340	0	0
2024-05-22 10:04:32			0	35544	0	0	0	20981	19520	142728	27274	982722	39938	107693	0	0	8207	671761	0	0
2024-05-22 10:05:32			0	35546	0	0	0	20942	19540	142600	27402	982782	39940	107678	0	0	8208	671597	0	0
2024-05-22 10:06:32			0	35547	0	0	0	20940	19540	142700	27417	982747	39928	107677	0	0	8208	671552	0	0
2024-05-22 10:07:32			0	35542	0	0	0	20942	19530	142584	27422	982712	39950	107678	0	0	8208	671814	0	0
2024-05-22 10:08:32			0	35558	0	0	0	20942	19540	142660	27296	982773	39951	107678	0	0	8208	671057	0	0
2024-05-22 10:09:32			0	35495	0	0	0	20911	19540	142900	27303	982729	39928	107666	0	0	8206	673897	0	0
2024-05-22 10:10:32			0	35483	0	0	0	20916	19540	142884	27182	982755	39961	107668	0	0	8205	674440	0	0
2024-05-22 10:11:32			0	35490	0	0	0	20953	19540	142900	27428	982720	39940	107682	0	0	8205	674123	0	0
2024-05-22 10:12:32			0	35507	0	0	0	20961	19540	142892	27351	982782	39951	107685	0	0	8205	673356	0	0
2024-05-22 10:13:32			0	35512	0	0	0	20919	19540	142824	27512	982853	39940	107669	0	0	8206	673130	0	0
2024-05-22 10:14:32			0	35470	0	0	0	20994	19550	142916	27462	982772	39962	107698	0	0	8203	674990	0	0
2024-05-22 10:15:32			0	35468	0	0	0	20940	19550	142948	27248	982799	39952	107677	0	0	8204	675081	0	0
2024-05-22 10:16:32			0	35501	0	0	0	20976	19550	142876	27320	982817	39940	107691	0	0	8205	673590	0	0
2024-05-22 10:17:32			0	35536	0	0	0	21020	19550	142816	27308	982905	39940	107708	0	0	8206	672011	0	0
2024-05-22 10:18:32			0	35567	0	0	0	20989	19560	142668	27642	982940	39963	107696	0	0	8208	670578	0	0
2024-05-22 10:19:32			0	35586	0	0	0	20997	19580	142536	27362	982955	39965	107699	0	0	8209	669649	0	0
2024-05-22 10:20:32			0	35592	0	0	0	21049	19580	142584	27131	983008	39965	107719	0	0	8209	669380	0	0
2024-05-22 10:21:32			0	35611	0	0	0	21054	19590	142404	27350	983069	39955	107721	0	0	8210	668489	0	0
2024-05-22 10:22:32			0	35645	0	0	0	21038	19600	142372	27315	983033	39956	107715	0	0	8212	666928	0	0
2024-05-22 10:23:32			0	35651	0	0	0	21080	19600	142324	27415	983121	39967	107731	0	0	8211	666659	0	0
2024-05-22 10:24:32			0	35682	0	0	0	21072	19610	142188	27434	983191	39968	107728	0	0	8213	665234	0	0
2024-05-22 10:25:32			0	35675	0	0	0	21075	19630	142112	27358	983216	39959	107729	0	0	8213	665474	0	0
2024-05-22 10:26:32			0	35705	0	0	0	21059	19620	142084	27505	983287	39958	107723	0	0	8215	664169	0	0
2024-05-22 10:27:32			0	35735	0	0	0	21080	19630	142044	27362	983189	39981	107731	0	0	8216	662793	0	0
2024-05-22 10:28:32			0	35744	0	0	0	21096	19640	142024	27353	983339	39970	107737	0	0	8216	662355	0	0
2024-05-22 10:29:32			0	35755	0	0	0	21116	19630	141940	27107	983304	39981	107745	0	0	8217	661901	0	0
2024-05-22 10:30:32			0	35765	0	0	0	21070	19660	141852	27386	983345	39972	107727	0	0	8218	661347	0	0
2024-05-22 10:31:32			0	35762	0	0	0	21101	19650	142000	27310	983382	39972	107739	0	0	8217	661517	0	0
2024-05-22 10:32:32			0	35753	0	0	0	21088	19660	141808	27372	983292	39960	107734	0	0	8217	661881	0	0
2024-05-22 10:33:32			0	35759	0	0	0	21101	19660	141960	27329	983319	39972	107739	0	0	8217	661614	0	0
2024-05-22 10:34:32			0	35767	0	0	0	21101	19660	141864	27528	983292	39960	107739	0	0	8218	661258	0	0
2024-05-22 10:35:32			0	35789	0	0	0	21103	19680	141716	27393	983424	39963	107740	0	0	8219	660205	0	0
2024-05-22 10:36:32			0	35777	0	0	0	21106	19670	141712	27403	983415	39973	107741	0	0	8218	660776	0	0
2024-05-22 10:37:32			0	35811	0	0	0	21127	19690	141592	27552	983440	39974	107749	0	0	8220	659191	0	0
2024-05-22 10:38:32			0	35810	0	0	0	21119	19690	141612	27069	983467	39974	107746	0	0	8220	659235	0	0
2024-05-22 10:39:32			0	35804	0	0	0	21150	19690	141576	27118	983422	39964	107758	0	0	8219	659502	0	0
2024-05-22 10:40:32			0	35798	0	0	0	21135	19690	141564	27105	983475	39975	107752	0	0	8219	659769	0	0
2024-05-22 10:41:32			0	35815	0	0	0	21137	19700	141508	27921	983492	39976	107753	0	0	8220	658977	0	0
2024-05-22 10:42:32			0	35829	0	0	0	21137	19700	141544	27248	983457	39987	107753	0	0	8221	658355	0	0
2024-05-22 10:43:32			0	35833	0	0	0	21161	19710	141496	27251	983500	39998	107762	0	0	8220	658141	0	0
2024-05-22 10:44:32			0	35857	0	0	0	21150	19720	141485	27275	983596	39966	107758	0	0	8222	657041	0	0
2024-05-22 10:45:32			0	35862	0	0	0	21158	19720	141457	27230	983596	39989	107761	0	0	8222	656819	0	0
2024-05-22 10:46:32			0	35873	0	0	0	21148	19720	141473	27284	983579	39978	107757	0	0	8223	656332	0	0
2024-05-22 10:47:32			0	35854	0	0	0	21150	19720	141484	27699	983605	39978	107758	0	0	8222	657174	0	0
2024-05-22 10:48:32			0	35869	0	0	0	21179	19730	141385	27371	983587	39989	107769	0	0	8222	656473	0	0
2024-05-22 10:49:32			0	35873	0	0	0	21171	19720	141301	27334	983658	39978	107766	0	0	8222	656332	0	0
2024-05-22 10:50:32			0	35869	0	0	0	21171	19730	141325	27376	983666	39978	107766	0	0	8222	656473	0	0
2024-05-22 10:51:32			0	35896	0	0	0	21179	19730	141349	27517	983613	39966	107769	0	0	8224	655277	0	0
2024-05-22 10:52:32			0	35891	0	0	0	21171	19740	141245	27249	983736	39991	107766	0	0	8223	655463	0	0
2024-05-22 10:53:32			0	35878	0	0	0	21187	19740	141209	27156	983718	39992	107772	0	0	8223	656038	0	0
2024-05-22 10:54:32			0	35882	0	0	0	21171	19750	141317	27616	983726	39992	107766	0	0	8223	655825	0	0
2024-05-22 10:55:32			0	35883	0	0	0	21184	19750	141305	27319	983735	39969	107771	0	0	8223	655780	0	0
2024-05-22 10:56:32			0	35911	0	0	0	21192	19750	141249	27298	983761	39969	107774	0	0	8224	654542	0	0
2024-05-22 10:57:32			0	35896	0	0	0	21176	19760	141285	27424	983725	39960	107768	0	0	8224	655169	0	0
2024-05-22 10:58:32			0	35882	0	0	0	21179	19760	141233	27315	983743	39981	107769	0	0	8223	655789	0	0
2024-05-22 10:59:32			0	35876	0	0	0	21176	19760	141205	27599	983778	39993	107768	0	0	8223	656054	0	0
2024-05-22 11:00:32			0	35880	0	0	0	21194	19760	141261	27358	983751	39971	107775	0	0	8223	655877	0	0
2024-05-22 11:01:32			0	35884	0	0	0	21187	19760	141173	27428	983751	39982	107772	0	0	8223	655700	0	0
2024-05-22 11:02:32			0	35877	0	0	0	21207	19760	141145	27665	983778	39971	107780	0	0	8222	656010	0	0
2024-05-22 11:03:32			0	35919	0	0	0	21218	19780	141153	27490	983856	39983	107784	0	0	8224	654080	0	0
2024-05-22 11:04:32			0	35916	0	0	0	21228	19770	141125	27338	983874	39993	107788	0	0	8224	654249	0	0
2024-05-22 11:05:32			0	35922	0	0	0	21223	19770	141113	27343	983901	39982	107786	0	0	8224	653984	0	0
2024-05-22 11:06:32			0	35919	0	0	0	21218	19780	141141	27415	983917	39984	107784	0	0	8224	654080	0	0
2024-05-22 11:07:32			0	35919	0	0	0	21233	19790	141017	27263	983908	39984	107790	0	0	8224	654044	0	0
2024-05-22 11:08:32			0	35915	0	0	0	21225	19800	141141	27424	983942	39985	107787	0	0	8224	654185	0	0
2024-05-22 11:09:32			0	35921	0	0	0	21277	19790	141053	27150	983908	39995	107807	0	0	8224	653956	0	0
2024-05-22 11:10:32			0	35935	0	0	0	21259	19810	141009	27332	983933	39986	107800	0	0	8225	653265	0	0
2024-05-22 11:11:32			0	35961	0	0	0	21270	19810	140925	27407	984047	39986	107804	0	0	8226	652118	0	0
2024-05-22 11:12:32			0	35955	0	0	0	21251	19810	140997	27274	984047	39998	107797	0	0	8226	652383	0	0
2024-05-22 11:13:32			0	35947	0	0	0	21246	19820	140997	27362	983976	39998	107795	0	0	8226	652700	0	0
2024-05-22 11:14:32			0	35936	0	0	0	21254	19830	141005	27336	984107	39999	107798	0	0	8225	653149	0	0
2024-05-22 11:15:32			0	35922	0	0	0	21270	19840	141053	27571	984115	39988	107804	0	0	8224	653731	0	0
2024-05-22 11:16:32			0	35921	0	0	0	21293	19840	140997	27357	984115	39988	107813	0	0	8223	653776	0	0
2024-05-22 11:17:32			0	35925	0	0	0	21311	19840	140913	27343	984177	40000	107820	0	0	8223	653599	0	0
2024-05-22 11:18:32			0	35939	0	0	0	21301	19850	140997	27580	984194	40000	107816	0	0	8224	652945	0	0
2024-05-22 11:19:32			0	35963	0	0	0	21340	19850	140925	27322	984247	39990	107831	0	0	8225	651887	0	0
2024-05-22 11:20:32			0	35965	0	0	0	21335	19870	140889	27322	984280	40014	107829	0	0	8225	651727	0	0
2024-05-22 11:21:32			0	35981	0	0	0	21340	19860	140849	27426	984343	40001	107831	0	0	8226	651058	0	0
2024-05-22 11:22:32			0	36008	0	0	0	21348	19890	140805	27498	984358	40004	107834	0	0	8227	649762	0	0
2024-05-22 11:23:32			0	36030	0	0	0	21355	19880	140701	27346	984376	40003	107837	0	0	8228	648831	0	0
2024-05-22 11:24:32			0	36029	0	0	0	21342	19900	140657	27357	984402	40005	107832	0	0	8229	648804	0	0
2024-05-22 11:25:32			0	36016	0	0	0	21394	19890	140613	27298	984473	40005	107852	0	0	8227	649411	0	0
2024-05-22 11:26:32			0	36011	0	0	0	21374	19900	140677	27493	984481	39994	107844	0	0	8227	649594	0	0
2024-05-22 11:27:32			0	36006	0	0	0	21335	19910	140733	27509	984445	39995	107829	0	0	8228	649779	0	0
2024-05-22 11:28:32			0	36012	0	0	0	21376	19910	140685	27277	984400	40006	107845	0	0	8227	649515	0	0
2024-05-22 11:29:32			0	36013	0	0	0	21386	19920	140621	27272	984496	40006	107849	0	0	8227	649435	0	0
2024-05-22 11:30:32			0	36016	0	0	0	21366	19920	140617	27559	984496	40006	107841	0	0	8228	649303	0	0
2024-05-22 11:31:32			0	36027	0	0	0	21379	19930	140501	27471	984619	40008	107846	0	0	8228	648784	0	0
2024-05-22 11:32:32			0	36046	0	0	0	21399	19940	140477	27419	984628	40019	107854	0	0	8229	647914	0	0
2024-05-22 11:33:32			0	36049	0	0	0	21389	19960	140517	27319	984608	40010	107850	0	0	8229	647711	0	0
2024-05-22 11:34:32			0	36052	0	0	0	21425	19960	140445	27352	984687	40010	107864	0	0	8229	647580	0	0
2024-05-22 11:35:32			0	36059	0	0	0	21423	19960	140401	27383	984687	40021	107863	0	0	8229	647273	0	0
2024-05-22 11:36:32			0	36056	0	0	0	21418	19960	140377	27684	984740	40010	107861	0	0	8229	647404	0	0
2024-05-22 11:37:32			0	36070	0	0	0	21402	19970	140297	27410	984731	40022	107855	0	0	8230	646755	0	0
2024-05-22 11:38:32			0	36077	0	0	0	21433	19980	140333	27595	984686	40023	107867	0	0	8230	646413	0	0
2024-05-22 11:39:32			0	36073	0	0	0	21420	19980	140345	27542	984686	40023	107862	0	0	8230	646588	0	0
2024-05-22 11:40:32			0	36059	0	0	0	21410	19980	140341	27630	984774	40012	107858	0	0	8230	647202	0	0
2024-05-22 11:41:32			0	36060	0	0	0	21415	19990	140389	27197	984791	40024	107860	0	0	8230	647122	0	0
2024-05-22 11:42:32			0	36036	0	0	0	21433	19990	140369	27421	984836	40012	107867	0	0	8228	648175	0	0
2024-05-22 11:43:32			0	36085	0	0	0	21464	19990	140333	27229	984817	40012	107879	0	0	8230	646027	0	0
2024-05-22 11:44:32			0	36093	0	0	0	21477	20010	140245	27493	984869	40014	107884	0	0	8230	645605	0	0
2024-05-22 11:45:32			0	36097	0	0	0	21477	20010	140149	27272	984896	40037	107884	0	0	8231	645430	0	0
2024-05-22 11:46:32			0	36123	0	0	0	21498	20020	140233	27255	984939	40015	107892	0	0	8232	644258	0	0
2024-05-22 11:47:32			0	36138	0	0	0	21498	20030	140161	27258	984982	40016	107892	0	0	8232	643567	0	0
2024-05-22 11:48:32			0	36140	0	0	0	21501	20040	140053	27258	984999	40028	107893	0	0	8233	643444	0	0
2024-05-22 11:49:32			0	36156	0	0	0	21485	20030	140077	27485	985123	40028	107887	0	0	8234	642782	0	0
2024-05-22 11:50:32			0	36138	0	0	0	21516	20050	140045	27315	985095	40040	107899	0	0	8232	643496	0	0
2024-05-22 11:51:32			0	36163	0	0	0	21501	20050	140053	27317	985050	40019	107893	0	0	8234	642405	0	0
2024-05-22 11:52:32			0	36149	0	0	0	21514	20060	140133	27230	985094	40019	107898	0	0	8233	642981	0	0
2024-05-22 11:53:32			0	36153	0	0	0	21550	20060	140073	27450	985173	40031	107912	0	0	8233	642806	0	0
2024-05-22 11:54:32			0	36178	0	0	0	21514	20080	139993	27595	985207	40032	107898	0	0	8235	641645	0	0
2024-05-22 11:55:32			0	36154	0	0	0	21516	20080	140125	27274	985251	40032	107899	0	0	8233	642692	0	0
2024-05-22 11:56:32			0	36165	0	0	0	21509	20070	140013	27355	985137	40032	107896	0	0	8234	642247	0	0
2024-05-22 11:57:32			0	36169	0	0	0	21545	20090	140013	27514	985188	40011	107910	0	0	8234	642002	0	0
2024-05-22 11:58:32			0	36165	0	0	0	21527	20090	139997	27140	985242	40044	107903	0	0	8234	642176	0	0
2024-05-22 11:59:32			0	36170	0	0	0	21548	20100	140053	27500	985312	40034	107911	0	0	8234	641923	0	0
2024-05-22 12:00:32			0	36154	0	0	0	21542	20100	139881	27467	985285	40044	107909	0	0	8233	642621	0	0
2024-05-22 12:01:32			0	36164	0	0	0	21545	20110	140009	27381	985355	40035	107910	0	0	8233	642149	0	0
2024-05-22 12:02:32			0	36172	0	0	0	21558	20100	139909	27322	985293	40023	107915	0	0	8234	641836	0	0
2024-05-22 12:03:32			0	36172	0	0	0	21537	20120	139929	27543	985380	40037	107907	0	0	8234	641765	0	0
2024-05-22 12:04:32			0	36166	0	0	0	21548	20110	139865	27798	985284	40035	107911	0	0	8233	642062	0	0
2024-05-22 12:05:32			0	36187	0	0	0	21563	20120	139933	27343	985292	40036	107917	0	0	8234	641112	0	0
2024-05-22 12:06:32			0	36180	0	0	0	21576	20130	139837	27758	985335	40047	107922	0	0	8234	641381	0	0
2024-05-22 12:07:32			0	36210	0	0	0	21592	20130	139849	27372	985441	40037	107928	0	0	8235	640076	0	0
2024-05-22 12:08:32			0	36206	0	0	0	21610	20130	139849	27263	985495	40037	107935	0	0	8235	640250	0	0
2024-05-22 12:09:32			0	36211	0	0	0	21605	20150	139809	27464	985448	40027	107933	0	0	8235	639962	0	0
2024-05-22 12:10:32			0	36237	0	0	0	21597	20160	139845	27543	985545	40050	107930	0	0	8237	638797	0	0
2024-05-22 12:11:32			0	36207	0	0	0	21605	20150	139801	27663	985483	40049	107933	0	0	8235	640136	0	0
2024-05-22 12:12:32			0	36216	0	0	0	21615	20160	139845	27490	985500	40040	107937	0	0	8235	639709	0	0
2024-05-22 12:13:32			0	36222	0	0	0	21623	20170	139769	27569	985561	40040	107940	0	0	8235	639413	0	0
2024-05-22 12:14:32			0	36245	0	0	0	21620	20170	139713	27268	985561	40029	107939	0	0	8237	638414	0	0
2024-05-22 12:15:32			0	36233	0	0	0	21623	20170	139761	27694	985676	40041	107940	0	0	8236	638935	0	0
2024-05-22 12:16:32			0	36237	0	0	0	21589	20170	139765	27111	985570	40041	107927	0	0	8237	638761	0	0
2024-05-22 12:17:32			0	36241	0	0	0	21594	20170	139777	27218	985543	40030	107929	0	0	8237	638588	0	0
2024-05-22 12:18:32			0	36225	0	0	0	21628	20180	139861	27583	985560	40041	107942	0	0	8236	639247	0	0
2024-05-22 12:19:32			0	36219	0	0	0	21636	20190	139869	27317	985621	40053	107945	0	0	8235	639473	0	0
2024-05-22 12:20:32			0	36227	0	0	0	21618	20190	139741	27376	985648	40042	107938	0	0	8236	639125	0	0
2024-05-22 12:21:32			0	36233	0	0	0	21651	20190	139705	27334	985603	40053	107951	0	0	8236	638864	0	0
2024-05-22 12:22:32			0	36229	0	0	0	21636	20200	139749	27232	985718	40053	107945	0	0	8236	639003	0	0
2024-05-22 12:23:32			0	36228	0	0	0	21607	20210	139689	27199	985681	40044	107934	0	0	8236	639011	0	0
2024-05-22 12:24:32			0	36238	0	0	0	21623	20210	139705	27588	985681	40044	107940	0	0	8237	638577	0	0
2024-05-22 12:25:32			0	36224	0	0	0	21612	20210	139605	27533	985681	40055	107936	0	0	8236	639185	0	0
2024-05-22 12:26:32			0	36246	0	0	0	21670	20210	139717	27533	985761	40044	107958	0	0	8236	638230	0	0
2024-05-22 12:27:32			0	36231	0	0	0	21670	20210	139657	27743	985796	40044	107958	0	0	8235	638881	0	0
2024-05-22 12:28:32			0	36247	0	0	0	21672	20220	139553	27819	985831	40055	107959	0	0	8236	638151	0	0
2024-05-22 12:29:32			0	36258	0	0	0	21659	20230	139641	27296	985768	40045	107954	0	0	8237	637639	0	0
2024-05-22 12:30:32			0	36262	0	0	0	21638	20240	139541	27294	985838	40045	107946	0	0	8238	637430	0	0
2024-05-22 12:31:32			0	36243	0	0	0	21651	20240	139625	27351	985820	40046	107951	0	0	8236	638254	0	0
2024-05-22 12:32:32			0	36253	0	0	0	21675	20240	139593	27400	985838	40045	107960	0	0	8237	637820	0	0
2024-05-22 12:33:32			0	36276	0	0	0	21688	20240	139609	27279	985926	40058	107965	0	0	8238	636823	0	0
2024-05-22 12:34:32			0	36273	0	0	0	21628	20240	139597	27268	985873	40058	107942	0	0	8238	636953	0	0
2024-05-22 12:35:32			0	36243	0	0	0	21641	20240	139637	27668	985899	40046	107947	0	0	8237	638254	0	0
2024-05-22 12:36:32			0	36242	0	0	0	21607	20240	139573	27576	985820	40046	107934	0	0	8237	638297	0	0
2024-05-22 12:37:32			0	36200	0	0	0	21610	20240	139781	27675	985793	40025	107935	0	0	8235	640122	0	0
2024-05-22 12:38:32			0	36220	0	0	0	21628	20240	139729	27668	985785	40035	107942	0	0	8236	639253	0	0
2024-05-22 12:39:32			0	36208	0	0	0	21680	20240	139745	27329	985811	40045	107962	0	0	8234	639774	0	0
2024-05-22 12:40:32			0	36204	0	0	0	21646	20240	139817	27338	985838	40057	107949	0	0	8234	639948	0	0
2024-05-22 12:41:32			0	36216	0	0	0	21644	20250	139845	27703	985828	40047	107948	0	0	8235	639391	0	0
2024-05-22 12:42:32			0	36194	0	0	0	21631	20240	139797	27371	985873	40046	107943	0	0	8234	640383	0	0
2024-05-22 12:43:32			0	36182	0	0	0	21664	20250	139873	27324	985881	40037	107956	0	0	8233	640870	0	0
2024-05-22 12:44:32			0	36203	0	0	0	21631	20260	139805	27336	985916	40048	107943	0	0	8235	639921	0	0
2024-05-22 12:45:32			0	36190	0	0	0	21641	20250	139849	27196	985775	40037	107947	0	0	8234	640522	0	0
2024-05-22 12:46:32			0	36171	0	0	0	21631	20240	139861	27319	985820	40046	107943	0	0	8233	641384	0	0
2024-05-22 12:47:32			0	36153	0	0	0	21558	20240	139913	27499	985793	40046	107915	0	0	8233	642168	0	0
2024-05-22 12:48:32			0	36142	0	0	0	21576	20240	139913	27485	985705	40035	107922	0	0	8232	642647	0	0
2024-05-22 12:49:32			0	36145	0	0	0	21579	20230	140025	27767	985688	40024	107923	0	0	8232	642552	0	0
2024-05-22 12:50:32			0	36135	0	0	0	21620	20240	140041	27400	985732	40035	107939	0	0	8231	642953	0	0
2024-05-22 12:51:32			0	36166	0	0	0	21696	20240	139981	27225	985873	40058	107968	0	0	8232	641602	0	0
2024-05-22 12:52:32			0	36186	0	0	0	21657	20240	139897	27644	985918	40035	107953	0	0	8233	640731	0	0
2024-05-22 12:53:32			0	36190	0	0	0	21735	20240	139849	27242	986032	40046	107983	0	0	8232	640557	0	0
2024-05-22 12:54:32			0	36210	0	0	0	21677	20260	139733	27502	986004	40059	107961	0	0	8234	639617	0	0
2024-05-22 12:55:32			0	36201	0	0	0	21714	20270	139897	27640	985933	40038	107975	0	0	8233	639972	0	0
2024-05-22 12:56:32			0	36205	0	0	0	21631	20270	139713	27450	985933	40048	107943	0	0	8235	639798	0	0
2024-05-22 12:57:32			0	36185	0	0	0	21638	20270	139769	27315	985853	40048	107946	0	0	8234	640668	0	0
2024-05-22 12:58:32			0	36191	0	0	0	21693	20260	139805	27473	985845	40038	107967	0	0	8233	640443	0	0
2024-05-22 12:59:32			0	36194	0	0	0	21724	20260	139889	27623	985943	40048	107979	0	0	8233	640312	0	0
2024-05-22 13:00:32			0	36214	0	0	0	21696	20270	139797	27549	986012	40048	107968	0	0	8234	639407	0	0
2024-05-22 13:01:32			0	36227	0	0	0	21701	20280	139761	27260	986064	40061	107970	0	0	8235	638807	0	0
2024-05-22 13:02:32			0	36206	0	0	0	21693	20280	139829	27505	986064	40050	107967	0	0	8234	639720	0	0
2024-05-22 13:03:32			0	36231	0	0	0	21727	20290	139797	27154	986072	40040	107980	0	0	8235	638599	0	0
2024-05-22 13:04:32			0	36215	0	0	0	21753	20290	139781	27734	986099	40050	107990	0	0	8233	639293	0	0
2024-05-22 13:05:32			0	36233	0	0	0	21714	20300	139745	27412	986124	40063	107975	0	0	8235	638476	0	0
2024-05-22 13:06:32			0	36213	0	0	0	21675	20290	139821	27614	986081	40051	107960	0	0	8235	639380	0	0
2024-05-22 13:07:32			0	36211	0	0	0	21638	20290	139729	27632	986099	40061	107946	0	0	8235	639467	0	0
2024-05-22 13:08:32			0	36182	0	0	0	21633	20300	139849	27824	986018	40041	107944	0	0	8234	640693	0	0
2024-05-22 13:09:32			0	36155	0	0	0	21636	20290	139945	27329	985940	40050	107945	0	0	8232	641904	0	0
2024-05-22 13:10:32			0	36145	0	0	0	21690	20280	139953	27287	985984	40061	107966	0	0	8231	642375	0	0
2024-05-22 13:11:32			0	36178	0	0	0	21677	20280	139889	27607	986056	40050	107961	0	0	8233	640937	0	0
2024-05-22 13:12:32			0	36169	0	0	0	21667	20280	139837	27623	986064	40050	107957	0	0	8232	641329	0	0
2024-05-22 13:13:32			0	36150	0	0	0	21501	20290	139877	27294	985975	40051	107893	0	0	8234	642121	0	0
2024-05-22 13:14:32			0	35991	0	0	0	21363	20280	140425	27398	985737	40028	107840	0	0	8228	649112	0	0
2024-05-22 13:15:32			0	35934	0	0	0	21371	20240	140693	27414	985501	40025	107843	0	0	8225	651762	0	0
2024-05-22 13:16:32			0	35889	0	0	0	21397	20230	140961	27289	985476	40024	107853	0	0	8222	653782	0	0
2024-05-22 13:17:32			0	35900	0	0	0	21431	20200	140941	27547	985452	40020	107866	0	0	8222	653405	0	0
2024-05-22 13:18:32			0	35846	0	0	0	21475	20190	141124	27528	985382	40009	107883	0	0	8218	655827	0	0
2024-05-22 13:19:32			0	35841	0	0	0	21366	20180	141052	27670	985374	40020	107841	0	0	8219	656085	0	0
2024-05-22 13:20:32			0	35863	0	0	0	21493	20160	141245	27627	985314	39996	107890	0	0	8218	655184	0	0
2024-05-22 13:21:32			0	35833	0	0	0	21542	20150	141212	27505	985263	40016	107909	0	0	8216	656547	0	0
2024-05-22 13:22:32			0	35859	0	0	0	21490	20150	141124	27668	985457	40027	107889	0	0	8218	655397	0	0
2024-05-22 13:23:32			0	35836	0	0	0	21412	20160	141272	27339	985412	40028	107859	0	0	8218	656378	0	0
2024-05-22 13:24:32			0	35891	0	0	0	21625	20160	141149	27519	985412	40028	107941	0	0	8218	653947	0	0
2024-05-22 13:25:32			0	35929	0	0	0	21522	20170	140873	27769	985561	40062	107901	0	0	8221	652234	0	0
2024-05-22 13:26:32			0	35925	0	0	0	21540	20170	140993	27668	985570	40030	107908	0	0	8221	652411	0	0
2024-05-22 13:27:32			0	35925	0	0	0	21579	20170	140917	27326	985508	40007	107923	0	0	8220	652411	0	0
2024-05-22 13:28:32			0	35930	0	0	0	21586	20170	140861	27479	985623	40041	107926	0	0	8220	652190	0	0
2024-05-22 13:29:32			0	35974	0	0	0	21599	20170	140741	27235	985649	40030	107931	0	0	8223	650254	0	0
2024-05-22 13:30:32			0	36005	0	0	0	21672	20200	140633	27578	985718	40020	107959	0	0	8223	648784	0	0
2024-05-22 13:31:32			0	36023	0	0	0	21644	20190	140597	27157	985842	40053	107948	0	0	8225	648030	0	0
2024-05-22 13:32:32			0	36057	0	0	0	21719	20210	140517	27543	985822	40044	107977	0	0	8225	646468	0	0
2024-05-22 13:33:32			0	36071	0	0	0	21727	20220	140309	27353	985892	40045	107980	0	0	8226	645820	0	0
2024-05-22 13:34:32			0	36095	0	0	0	21714	20230	140197	27545	985989	40035	107975	0	0	8227	644735	0	0
2024-05-22 13:35:32			0	36103	0	0	0	21753	20250	140277	27538	986040	40070	107990	0	0	8227	644314	0	0
2024-05-22 13:36:32			0	36130	0	0	0	21776	20260	140157	27253	986102	40059	107999	0	0	8228	643100	0	0
2024-05-22 13:37:32			0	36141	0	0	0	21779	20270	140093	27377	986207	40060	108000	0	0	8229	642585	0	0
2024-05-22 13:38:32			0	36163	0	0	0	21774	20280	140077	27163	986188	40061	107998	0	0	8230	641591	0	0
2024-05-22 13:39:32			0	36168	0	0	0	21771	20290	140005	27485	986187	40051	107997	0	0	8231	641337	0	0
2024-05-22 13:40:32			0	36171	0	0	0	21779	20300	139949	27355	986248	40063	108000	0	0	8231	641171	0	0
2024-05-22 13:41:32			0	36174	0	0	0	21771	20310	139901	27473	986247	40052	107997	0	0	8231	641005	0	0
2024-05-22 13:42:32			0	36202	0	0	0	21784	20310	139853	27504	986274	40064	108002	0	0	8232	639788	0	0
2024-05-22 13:43:32			0	36209	0	0	0	21802	20320	139817	27336	986308	40065	108009	0	0	8232	639448	0	0
2024-05-22 13:44:32			0	36211	0	0	0	21810	20330	139913	27194	986352	40054	108012	0	0	8232	639326	0	0
2024-05-22 13:45:32			0	36202	0	0	0	21799	20340	139829	27659	986368	40078	108008	0	0	8232	639682	0	0
2024-05-22 13:46:32			0	36201	0	0	0	21818	20330	139753	27498	986413	40065	108015	0	0	8232	639760	0	0
2024-05-22 13:47:32			0	36206	0	0	0	21820	20360	139785	27422	986402	40068	108016	0	0	8232	639437	0	0
2024-05-22 13:48:32			0	36247	0	0	0	21828	20370	139789	27407	986507	40080	108019	0	0	8234	637623	0	0
2024-05-22 13:49:32			0	36250	0	0	0	21828	20370	139609	27580	986534	40080	108019	0	0	8234	637493	0	0
2024-05-22 13:50:32			0	36234	0	0	0	21838	20370	139669	27656	986480	40069	108023	0	0	8233	638186	0	0
2024-05-22 13:51:32			0	36256	0	0	0	21846	20390	139569	27459	986594	40083	108026	0	0	8234	637162	0	0
2024-05-22 13:52:32			0	36266	0	0	0	21846	20390	139569	27737	986567	40072	108026	0	0	8235	636729	0	0
2024-05-22 13:53:32			0	36243	0	0	0	21877	20400	139685	27435	986575	40083	108038	0	0	8233	637690	0	0
2024-05-22 13:54:32			0	36251	0	0	0	21870	20410	139585	27469	986645	40073	108035	0	0	8234	637308	0	0
2024-05-22 13:55:32			0	36262	0	0	0	21872	20410	139649	27537	986725	40084	108036	0	0	8234	636832	0	0
2024-05-22 13:56:32			0	36259	0	0	0	21890	20410	139577	27433	986733	40084	108043	0	0	8234	636962	0	0
2024-05-22 13:57:32			0	36260	0	0	0	21880	20420	139529	27412	986715	40084	108039	0	0	8234	636883	0	0
2024-05-22 13:58:32			0	36252	0	0	0	21880	20440	139617	27410	986775	40075	108039	0	0	8234	637159	0	0
2024-05-22 13:59:32			0	36237	0	0	0	21896	20440	139693	27255	986775	40075	108045	0	0	8233	637809	0	0
2024-05-22 14:00:32			0	36239	0	0	0	21890	20440	139689	27434	986810	40086	108043	0	0	8233	637723	0	0
2024-05-22 14:01:32			0	36224	0	0	0	21898	20460	139665	27661	986888	40088	108046	0	0	8232	638303	0	0
2024-05-22 14:02:32			0	36248	0	0	0	21906	20450	139617	27663	986854	40088	108049	0	0	8233	637297	0	0
2024-05-22 14:03:32			0	36230	0	0	0	21898	20460	139601	27362	986862	40078	108046	0	0	8233	638043	0	0
2024-05-22 14:04:32			0	36206	0	0	0	21903	20470	139601	27286	986852	40079	108048	0	0	8231	639048	0	0
2024-05-22 14:05:32			0	36207	0	0	0	21909	20470	139653	27665	986906	40079	108050	0	0	8231	639005	0	0
2024-05-22 14:06:32			0	36200	0	0	0	21903	20480	139697	27526	986949	40090	108048	0	0	8231	639274	0	0
2024-05-22 14:07:32			0	36173	0	0	0	21911	20480	139809	27814	986957	40080	108051	0	0	8229	640447	0	0
2024-05-22 14:08:32			0	36175	0	0	0	21901	20490	139729	27265	986966	40080	108047	0	0	8230	640325	0	0
2024-05-22 14:09:32			0	36170	0	0	0	21924	20490	139825	27466	986939	40102	108056	0	0	8229	640542	0	0
2024-05-22 14:10:32			0	36182	0	0	0	21929	20490	139937	27372	987054	40081	108058	0	0	8230	640020	0	0
2024-05-22 14:11:32			0	36150	0	0	0	21932	20490	139801	27533	987027	40081	108059	0	0	8228	641412	0	0
2024-05-22 14:12:32			0	36139	0	0	0	21940	20500	139857	27286	987044	40091	108062	0	0	8227	641856	0	0
2024-05-22 14:13:32			0	36157	0	0	0	21932	20510	139897	27345	987079	40082	108059	0	0	8228	641037	0	0
2024-05-22 14:14:32			0	36142	0	0	0	21940	20500	139865	27810	987097	40081	108062	0	0	8227	641725	0	0
2024-05-22 14:15:32			0	36162	0	0	0	21950	20510	139861	27639	987026	40082	108066	0	0	8228	640819	0	0
2024-05-22 14:16:32			0	36172	0	0	0	21940	20510	139809	27464	987114	40083	108062	0	0	8229	640384	0	0
2024-05-22 14:17:32			0	36179	0	0	0	21955	20520	139749	27393	987122	40061	108068	0	0	8229	640045	0	0
2024-05-22 14:18:32			0	36168	0	0	0	21961	20530	139729	27471	987139	40094	108070	0	0	8228	640487	0	0
2024-05-22 14:19:32			0	36175	0	0	0	21963	20530	139761	27613	987147	40095	108071	0	0	8229	640183	0	0
2024-05-22 14:20:32			0	36176	0	0	0	21979	20530	139741	27727	987174	40106	108077	0	0	8229	640140	0	0
2024-05-22 14:21:32			0	36190	0	0	0	21997	20540	139741	27509	987235	40096	108084	0	0	8229	639496	0	0
2024-05-22 14:22:32			0	36207	0	0	0	21997	20550	139633	27286	987244	40085	108084	0	0	8230	638723	0	0
2024-05-22 14:23:32			0	36199	0	0	0	21999	20560	139589	27528	987242	40109	108085	0	0	8230	639034	0	0
2024-05-22 14:24:32			0	36241	0	0	0	22005	20570	139685	27244	987365	40109	108087	0	0	8232	637178	0	0
2024-05-22 14:25:32			0	36238	0	0	0	22015	20570	139553	27187	987357	40098	108091	0	0	8231	637308	0	0
2024-05-22 14:26:32			0	36255	0	0	0	22010	20570	139533	27237	987392	40098	108089	0	0	8232	636572	0	0
2024-05-22 14:27:32			0	36219	0	0	0	22028	20580	139497	27348	987408	40099	108096	0	0	8230	638096	0	0
2024-05-22 14:28:32			0	36217	0	0	0	22033	20580	139513	27402	987408	40099	108098	0	0	8230	638183	0	0
2024-05-22 14:29:32			0	36229	0	0	0	22036	20590	139477	27493	987417	40099	108099	0	0	8231	637627	0	0
2024-05-22 14:30:32			0	36214	0	0	0	22044	20600	139549	27428	987487	40111	108102	0	0	8230	638242	0	0
2024-05-22 14:31:32			0	36233	0	0	0	22070	20600	139573	27452	987460	40089	108112	0	0	8230	637419	0	0
2024-05-22 14:32:32			0	36236	0	0	0	22059	20610	139545	27587	987512	40102	108108	0	0	8231	637253	0	0
2024-05-22 14:33:32			0	36235	0	0	0	22054	20620	139565	27604	987547	40102	108106	0	0	8231	637261	0	0
2024-05-22 14:34:32			0	36253	0	0	0	22062	20630	139501	27526	987643	40103	108109	0	0	8232	636447	0	0
2024-05-22 14:35:32			0	36228	0	0	0	22051	20620	139465	27663	987582	40103	108105	0	0	8231	637565	0	0
2024-05-22 14:36:32			0	36223	0	0	0	22070	20630	139517	27777	987572	40104	108112	0	0	8230	637746	0	0
2024-05-22 14:37:32			0	36242	0	0	0	22070	20640	139517	27509	987634	40104	108112	0	0	8231	636888	0	0
2024-05-22 14:38:32			0	36220	0	0	0	22059	20650	139533	27364	987677	40117	108108	0	0	8230	637806	0	0
2024-05-22 14:39:32			0	36217	0	0	0	22088	20640	139581	27263	987634	40104	108119	0	0	8229	637971	0	0
2024-05-22 14:40:32			0	36223	0	0	0	22080	20650	139601	27312	987624	40105	108116	0	0	8230	637676	0	0
2024-05-22 14:41:32			0	36221	0	0	0	22080	20650	139525	27580	987685	40105	108116	0	0	8230	637762	0	0
2024-05-22 14:42:32			0	36220	0	0	0	22085	20650	139553	27462	987712	40094	108118	0	0	8230	637806	0	0
2024-05-22 14:43:32			0	36207	0	0	0	22083	20660	139585	27365	987667	40118	108117	0	0	8229	638334	0	0
2024-05-22 14:44:32			0	36223	0	0	0	22096	20670	139541	27457	987710	40107	108122	0	0	8230	637605	0	0
2024-05-22 14:45:32			0	36233	0	0	0	22106	20670	139477	27182	987772	40096	108126	0	0	8230	637172	0	0
2024-05-22 14:46:32			0	36244	0	0	0	22119	20680	139473	27459	987833	40108	108131	0	0	8230	636660	0	0
2024-05-22 14:47:32			0	36254	0	0	0	22127	20680	139333	27443	987868	40108	108134	0	0	8231	636227	0	0
2024-05-22 14:48:32			0	36278	0	0	0	22127	20690	139377	27334	987938	40120	108134	0	0	8232	635155	0	0
2024-05-22 14:49:32			0	36281	0	0	0	22124	20700	139317	27703	987928	40122	108133	0	0	8232	634990	0	0
2024-05-22 14:50:32			0	36293	0	0	0	22155	20690	139261	27590	987912	40109	108145	0	0	8233	634507	0	0
2024-05-22 14:51:32			0	36315	0	0	0	22166	20700	139245	27786	987955	40111	108149	0	0	8234	633522	0	0
2024-05-22 14:52:32			0	36312	0	0	0	22171	20710	139165	27531	988070	40111	108151	0	0	8233	633616	0	0
2024-05-22 14:53:32			0	36304	0	0	0	22168	20710	139245	27452	987999	40111	108150	0	0	8233	633962	0	0
2024-05-22 14:54:32			0	36308	0	0	0	22184	20720	139153	27894	988015	40112	108156	0	0	8233	633754	0	0
2024-05-22 14:55:32			0	36328	0	0	0	22179	20730	139125	27426	988077	40124	108154	0	0	8234	632856	0	0
2024-05-22 14:56:32			0	36309	0	0	0	22176	20730	139045	27725	988138	40125	108153	0	0	8233	633676	0	0
2024-05-22 14:57:32			0	36326	0	0	0	22155	20750	139053	27383	988137	40114	108145	0	0	8235	632872	0	0
2024-05-22 14:58:32			0	36294	0	0	0	22155	20750	139221	27552	988084	40114	108145	0	0	8233	634253	0	0
2024-05-22 14:59:32			0	36312	0	0	0	22181	20750	139193	27549	988119	40115	108155	0	0	8233	633476	0	0
2024-05-22 15:00:32			0	36315	0	0	0	22186	20750	139129	27843	988145	40125	108157	0	0	8233	633347	0	0
2024-05-22 15:01:32			0	36331	0	0	0	22192	20760	139133	27691	988207	40125	108159	0	0	8234	632622	0	0
2024-05-22 15:02:32			0	36335	0	0	0	22220	20770	139077	27609	988277	40127	108170	0	0	8234	632415	0	0
2024-05-22 15:03:32			0	36342	0	0	0	22223	20760	138969	27672	988233	40115	108171	0	0	8234	632148	0	0
2024-05-22 15:04:32			0	36347	0	0	0	22205	20770	139053	27490	988258	40117	108164	0	0	8235	631898	0	0
2024-05-22 15:05:32			0	36331	0	0	0	22218	20780	139129	27698	988373	40127	108169	0	0	8234	632552	0	0
2024-05-22 15:06:32			0	36355	0	0	0	22212	20790	139037	27644	988390	40129	108167	0	0	8235	631484	0	0
2024-05-22 15:07:32			0	36334	0	0	0	22189	20790	139081	27597	988284	40119	108158	0	0	8235	632388	0	0
2024-05-22 15:08:32			0	36312	0	0	0	22184	20780	139105	27873	988302	40118	108156	0	0	8233	633371	0	0
2024-05-22 15:09:32			0	36323	0	0	0	22212	20790	139141	27646	988337	40119	108167	0	0	8234	632862	0	0
2024-05-22 15:10:32			0	36348	0	0	0	22236	20800	139013	27597	988407	40107	108176	0	0	8235	631750	0	0
2024-05-22 15:11:32			0	36365	0	0	0	22244	20810	138873	27557	988423	40131	108179	0	0	8235	630983	0	0
2024-05-22 15:12:32			0	36379	0	0	0	22220	20810	138797	27284	988423	40131	108170	0	0	8237	630381	0	0
2024-05-22 15:13:32			0	36393	0	0	0	22236	20810	138857	27410	988423	40131	108176	0	0	8237	629780	0	0
2024-05-22 15:14:32			0	36374	0	0	0	22241	20810	138765	27692	988423	40120	108178	0	0	8236	630596	0	0
2024-05-22 15:15:32			0	36413	0	0	0	22231	20820	138765	27312	988422	40121	108174	0	0	8238	628887	0	0
2024-05-22 15:16:32			0	36388	0	0	0	22267	20820	138861	27692	988555	40132	108188	0	0	8236	629960	0	0
2024-05-22 15:17:32			0	36426	0	0	0	22262	20840	138733	27389	988580	40133	108186	0	0	8238	628259	0	0
2024-05-22 15:18:32			0	36422	0	0	0	22251	20850	138653	27524	988562	40133	108182	0	0	8238	628396	0	0
2024-05-22 15:19:32			0	36411	0	0	0	22272	20850	138793	27471	988562	40133	108190	0	0	8238	628868	0	0
2024-05-22 15:20:32			0	36410	0	0	0	22257	20840	138709	27434	988554	40123	108184	0	0	8238	628946	0	0
2024-05-22 15:21:32			0	36438	0	0	0	22285	20850	138661	27450	988562	40123	108195	0	0	8239	627710	0	0
2024-05-22 15:22:32			0	36427	0	0	0	22275	20850	138597	27571	988624	40145	108191	0	0	8238	628182	0	0
2024-05-22 15:23:32			0	36425	0	0	0	22272	20860	138705	27462	988587	40135	108190	0	0	8238	628233	0	0
2024-05-22 15:24:32			0	36431	0	0	0	22285	20860	138609	27471	988614	40114	108195	0	0	8238	627975	0	0
2024-05-22 15:25:32			0	36440	0	0	0	22283	20860	138649	27625	988640	40146	108194	0	0	8239	627590	0	0
2024-05-22 15:26:32			0	36434	0	0	0	22285	20880	138617	27204	988639	40125	108195	0	0	8239	627777	0	0
2024-05-22 15:27:32			0	36417	0	0	0	22309	20880	138625	27609	988745	40137	108204	0	0	8237	628506	0	0
2024-05-22 15:28:32			0	36420	0	0	0	22301	20890	138637	27722	988709	40125	108201	0	0	8238	628343	0	0
2024-05-22 15:29:32			0	36428	0	0	0	22288	20880	138457	27237	988700	40137	108196	0	0	8238	628034	0	0
2024-05-22 15:30:32			0	36439	0	0	0	22270	20880	138585	27545	988639	40125	108189	0	0	8239	627563	0	0
2024-05-22 15:31:32			0	36418	0	0	0	22259	20890	138581	27722	988637	40138	108185	0	0	8238	628428	0	0
2024-05-22 15:32:32			0	36405	0	0	0	22277	20880	138613	27535	988700	40148	108192	0	0	8237	629021	0	0
2024-05-22 15:33:32			0	36413	0	0	0	22288	20890	138585	27403	988682	40125	108196	0	0	8238	628643	0	0
2024-05-22 15:34:32			0	36418	0	0	0	22301	20890	138557	27450	988770	40149	108201	0	0	8238	628428	0	0
2024-05-22 15:35:32			0	36422	0	0	0	22293	20900	138541	27485	988779	40139	108198	0	0	8238	628222	0	0
2024-05-22 15:36:32			0	36420	0	0	0	22296	20900	138585	27663	988726	40139	108199	0	0	8238	628308	0	0
2024-05-22 15:37:32			0	36420	0	0	0	22293	20900	138525	27232	988779	40127	108198	0	0	8238	628308	0	0
2024-05-22 15:38:32			0	36417	0	0	0	22285	20900	138605	27633	988787	40139	108195	0	0	8238	628436	0	0
2024-05-22 15:39:32			0	36416	0	0	0	22280	20900	138541	27511	988752	40117	108193	0	0	8238	628479	0	0
2024-05-22 15:40:32			0	36405	0	0	0	22275	20900	138649	27329	988760	40139	108191	0	0	8237	628951	0	0
2024-05-22 15:41:32			0	36398	0	0	0	22283	20900	138593	27474	988760	40139	108194	0	0	8237	629252	0	0
2024-05-22 15:42:32			0	36401	0	0	0	22264	20900	138597	27497	988726	40117	108187	0	0	8237	629123	0	0
2024-05-22 15:43:32			0	36386	0	0	0	22259	20900	138697	27531	988707	40128	108185	0	0	8237	629767	0	0
2024-05-22 15:44:32			0	36360	0	0	0	22254	20900	138761	27727	988646	40139	108183	0	0	8235	630884	0	0
2024-05-22 15:45:32			0	36351	0	0	0	22264	20900	138797	27692	988726	40117	108187	0	0	8235	631271	0	0
2024-05-22 15:46:32			0	36362	0	0	0	22277	20900	138841	27556	988752	40127	108192	0	0	8235	630798	0	0
2024-05-22 15:47:32			0	36352	0	0	0	22280	20900	138805	27826	988726	40127	108193	0	0	8234	631228	0	0
2024-05-22 15:48:32			0	36355	0	0	0	22280	20900	138721	27796	988681	40128	108193	0	0	8235	631099	0	0
2024-05-22 15:49:32			0	36371	0	0	0	22285	20900	138761	27609	988787	40128	108195	0	0	8235	630411	0	0
2024-05-22 15:50:32			0	36356	0	0	0	22293	20910	138745	27698	988804	40128	108198	0	0	8234	631021	0	0
2024-05-22 15:51:32			0	36362	0	0	0	22285	20910	138753	27467	988795	40128	108195	0	0	8235	630763	0	0
2024-05-22 15:52:32			0	36358	0	0	0	22290	20920	138729	27531	988847	40141	108197	0	0	8235	630900	0	0
2024-05-22 15:53:32			0	36364	0	0	0	22324	20910	138749	27576	988910	40139	108210	0	0	8234	630677	0	0
2024-05-22 15:54:32			0	36363	0	0	0	22345	20910	138665	27590	988910	40139	108218	0	0	8234	630720	0	0
2024-05-22 15:55:32			0	36382	0	0	0	22340	20920	138617	27630	988927	40130	108216	0	0	8235	629869	0	0
2024-05-22 15:56:32			0	36406	0	0	0	22327	20920	138621	27422	988927	40130	108211	0	0	8237	628839	0	0
2024-05-22 15:57:32			0	36418	0	0	0	22345	20940	138673	27604	988979	40142	108218	0	0	8237	628254	0	0
2024-05-22 15:58:32			0	36404	0	0	0	22345	20940	138649	27554	989014	40132	108218	0	0	8236	628855	0	0
2024-05-22 15:59:32			0	36403	0	0	0	22337	20940	138517	27760	988960	40132	108215	0	0	8236	628897	0	0
2024-05-22 16:00:32			0	36402	0	0	0	22332	20940	138541	27422	988987	40132	108213	0	0	8236	628940	0	0
2024-05-22 16:01:32			0	36409	0	0	0	22314	20940	138593	27435	988907	40132	108206	0	0	8237	628640	0	0
2024-05-22 16:02:32			0	36387	0	0	0	22353	20940	138589	27324	988952	40142	108221	0	0	8235	629584	0	0
2024-05-22 16:03:32			0	36382	0	0	0	22324	20940	138541	27461	988987	40154	108210	0	0	8235	629799	0	0
2024-05-22 16:04:32			0	36395	0	0	0	22319	20940	138609	27448	988960	40132	108208	0	0	8236	629241	0	0
2024-05-22 16:05:32			0	36397	0	0	0	22358	20950	138569	27543	988995	40143	108223	0	0	8236	629120	0	0
2024-05-22 16:06:32			0	36397	0	0	0	22371	20950	138593	27833	989004	40143	108228	0	0	8236	629120	0	0
2024-05-22 16:07:32			0	36414	0	0	0	22353	20950	138617	27329	989030	40154	108221	0	0	8237	628391	0	0
2024-05-22 16:08:32			0	36418	0	0	0	22329	20960	138581	27625	989039	40144	108212	0	0	8237	628185	0	0
2024-05-22 16:09:32			0	36409	0	0	0	22361	20960	138609	27549	989047	40145	108224	0	0	8236	628570	0	0
2024-05-22 16:10:32			0	36427	0	0	0	22340	20960	138549	28029	988994	40145	108216	0	0	8238	627799	0	0
2024-05-22 16:11:32			0	36375	0	0	0	22290	20960	138605	27549	988968	40133	108197	0	0	8236	630030	0	0
2024-05-22 16:12:32			0	36379	0	0	0	22335	20960	138641	27409	989012	40133	108214	0	0	8235	629858	0	0
2024-05-22 16:13:32			0	36375	0	0	0	22335	20950	138725	27530	989004	40143	108214	0	0	8235	630065	0	0
2024-05-22 16:14:32			0	36394	0	0	0	22348	20960	138621	27547	989012	40133	108219	0	0	8236	629214	0	0
2024-05-22 16:15:32			0	36400	0	0	0	22348	20960	138589	27348	989092	40144	108219	0	0	8236	628956	0	0
2024-05-22 16:16:32			0	36377	0	0	0	22329	20960	138581	27535	989012	40133	108212	0	0	8235	629944	0	0
2024-05-22 16:17:32			0	36403	0	0	0	22335	20970	138645	27556	989082	40146	108214	0	0	8237	628793	0	0
2024-05-22 16:18:32			0	36390	0	0	0	22306	20960	138605	27821	989047	40145	108203	0	0	8236	629386	0	0
2024-05-22 16:19:32			0	36366	0	0	0	22332	20960	138605	27627	988986	40133	108213	0	0	8235	630416	0	0
2024-05-22 16:20:32			0	36384	0	0	0	22332	20960	138665	27585	989047	40156	108213	0	0	8236	629643	0	0
2024-05-22 16:21:32			0	36401	0	0	0	22366	20960	138621	27880	989092	40133	108226	0	0	8236	628914	0	0
2024-05-22 16:22:32			0	36387	0	0	0	22319	20970	138601	27549	989082	40134	108208	0	0	8236	629479	0	0
2024-05-22 16:23:32			0	36380	0	0	0	22345	20960	138581	27350	989092	40122	108218	0	0	8235	629815	0	0
2024-05-22 16:24:32			0	36374	0	0	0	22348	20970	138573	27291	989082	40124	108219	0	0	8235	630038	0	0
2024-05-22 16:25:32			0	36388	0	0	0	22381	20970	138593	27376	989091	40134	108232	0	0	8235	629437	0	0
2024-05-22 16:26:32			0	36413	0	0	0	22381	20980	138541	27447	989205	40134	108232	0	0	8236	628329	0	0
2024-05-22 16:27:32			0	36416	0	0	0	22397	20980	138489	27332	989152	40146	108238	0	0	8236	628201	0	0
2024-05-22 16:28:32			0	36427	0	0	0	22428	20990	138409	27265	989275	40136	108250	0	0	8236	627695	0	0
2024-05-22 16:29:32			0	36452	0	0	0	22428	20990	138421	27410	989257	40147	108250	0	0	8238	626624	0	0
2024-05-22 16:30:32			0	36456	0	0	0	22425	21000	138353	27528	989274	40137	108249	0	0	8238	626418	0	0
2024-05-22 16:31:32			0	36456	0	0	0	22438	21010	138365	27720	989309	40149	108254	0	0	8238	626384	0	0
2024-05-22 16:32:32			0	36458	0	0	0	22444	21020	138357	27550	989361	40161	108256	0	0	8238	626263	0	0
2024-05-22 16:33:32			0	36483	0	0	0	22449	21020	138341	27298	989414	40139	108258	0	0	8239	625195	0	0
2024-05-22 16:34:32			0	36464	0	0	0	22464	21030	138285	27166	989422	40162	108264	0	0	8238	625972	0	0
2024-05-22 16:35:32			0	36474	0	0	0	22467	21020	138289	27512	989493	40161	108265	0	0	8238	625579	0	0
2024-05-22 16:36:32			0	36476	0	0	0	22470	21030	138245	27862	989484	40152	108266	0	0	8238	625459	0	0
2024-05-22 16:37:32			0	36469	0	0	0	22485	21040	138209	27339	989527	40163	108272	0	0	8238	625723	0	0
2024-05-22 16:38:32			0	36498	0	0	0	22498	21050	138237	27559	989535	40153	108277	0	0	8239	624450	0	0
2024-05-22 16:39:32			0	36519	0	0	0	22503	21050	138173	27739	989597	40165	108279	0	0	8240	623554	0	0
2024-05-22 16:40:32			0	36523	0	0	0	22506	21060	138173	27379	989694	40153	108280	0	0	8240	623349	0	0
2024-05-22 16:41:32			0	36536	0	0	0	22514	21060	138057	27566	989640	40165	108283	0	0	8241	622795	0	0
2024-05-22 16:42:32			0	36520	0	0	0	22511	21080	138161	27814	989665	40155	108282	0	0	8240	623408	0	0
2024-05-22 16:43:32			0	36539	0	0	0	22524	21070	138033	27398	989657	40166	108287	0	0	8241	622633	0	0
2024-05-22 16:44:32			0	36531	0	0	0	22519	21080	138085	27371	989674	40166	108285	0	0	8241	622939	0	0
2024-05-22 16:45:32			0	36553	0	0	0	22514	21080	138129	27480	989701	40144	108283	0	0	8242	622002	0	0
2024-05-22 16:46:32			0	36507	0	0	0	22524	21090	138093	27604	989744	40157	108287	0	0	8239	623928	0	0
2024-05-22 16:47:32			0	36523	0	0	0	22537	21100	138097	27550	989761	40147	108292	0	0	8240	623211	0	0
2024-05-22 16:48:32			0	36509	0	0	0	22542	21100	138085	27682	989761	40168	108294	0	0	8239	623808	0	0
2024-05-22 16:49:32			0	36521	0	0	0	22535	21110	138097	27644	989857	40169	108291	0	0	8240	623262	0	0
2024-05-22 16:50:32			0	36523	0	0	0	22535	21110	138185	27303	989849	40168	108291	0	0	8240	623177	0	0
2024-05-22 16:51:32			0	36543	0	0	0	22529	21120	137989	27107	989839	40159	108289	0	0	8241	622290	0	0
2024-05-22 16:52:32			0	36512	0	0	0	22522	21120	138061	27440	989786	40169	108286	0	0	8240	623611	0	0
2024-05-22 16:53:32			0	36490	0	0	0	22535	21120	138181	27360	989866	40159	108291	0	0	8238	624549	0	0
2024-05-22 16:54:32			0	36484	0	0	0	22532	21130	138213	27286	989821	40160	108290	0	0	8238	624771	0	0
2024-05-22 16:55:32			0	36478	0	0	0	22542	21140	138229	27595	989811	40171	108294	0	0	8238	624992	0	0
2024-05-22 16:56:32			0	36500	0	0	0	22545	21110	138117	27557	989804	40159	108295	0	0	8239	624157	0	0
2024-05-22 16:57:32			0	36527	0	0	0	22553	21150	138181	27866	989908	40183	108298	0	0	8240	622868	0	0
2024-05-22 16:58:32			0	36482	0	0	0	22548	21150	138121	27566	989908	40161	108296	0	0	8238	624787	0	0
2024-05-22 16:59:32			0	36471	0	0	0	22535	21150	138229	27395	989890	40172	108291	0	0	8238	625256	0	0
2024-05-22 17:00:32			0	36463	0	0	0	22542	21140	138177	27736	989899	40161	108294	0	0	8237	625633	0	0
2024-05-22 17:01:32			0	36474	0	0	0	22542	21140	138257	27360	989899	40161	108294	0	0	8238	625163	0	0
2024-05-22 17:02:32			0	36460	0	0	0	22540	21140	138289	27670	989953	40172	108293	0	0	8237	625761	0	0
2024-05-22 17:03:32			0	36437	0	0	0	22542	21140	138249	27481	989899	40161	108294	0	0	8236	626745	0	0
2024-05-22 17:04:32			0	36445	0	0	0	22555	21150	138197	27455	989890	40161	108299	0	0	8236	626368	0	0
2024-05-22 17:05:32			0	36454	0	0	0	22540	21150	138301	27687	989934	40161	108293	0	0	8237	625983	0	0
2024-05-22 17:06:32			0	36451	0	0	0	22532	21140	138313	27689	989899	40161	108290	0	0	8236	626146	0	0
2024-05-22 17:07:32			0	36399	0	0	0	22522	21150	138361	27393	989969	40161	108286	0	0	8234	628337	0	0
2024-05-22 17:08:32			0	36397	0	0	0	22548	21150	138445	27256	989855	40161	108296	0	0	8233	628423	0	0
2024-05-22 17:09:32			0	36428	0	0	0	22548	21160	138397	27562	990004	40184	108296	0	0	8235	627060	0	0
2024-05-22 17:10:32			0	36434	0	0	0	22548	21150	138289	27537	989996	40161	108296	0	0	8235	626838	0	0
2024-05-22 17:11:32			0	36427	0	0	0	22563	21150	138317	27258	989934	40161	108302	0	0	8235	627138	0	0
2024-05-22 17:12:32			0	36434	0	0	0	22553	21160	138345	27521	989986	40163	108298	0	0	8235	626803	0	0
2024-05-22 17:13:32			0	36428	0	0	0	22568	21170	138341	27467	990074	40163	108304	0	0	8235	627025	0	0
2024-05-22 17:14:32			0	36436	0	0	0	22579	21160	138265	27722	989978	40172	108308	0	0	8235	626718	0	0
2024-05-22 17:15:32			0	36427	0	0	0	22563	21180	138301	27838	990038	40164	108302	0	0	8235	627033	0	0
2024-05-22 17:16:32			0	36429	0	0	0	22574	21170	138233	27843	990029	40174	108306	0	0	8235	626982	0	0
2024-05-22 17:17:32			0	36453	0	0	0	22561	21170	138277	27535	990029	40174	108301	0	0	8236	625956	0	0
2024-05-22 17:18:32			0	36433	0	0	0	22553	21170	138341	27249	989994	40173	108298	0	0	8235	626811	0	0
2024-05-22 17:19:32			0	36403	0	0	0	22566	21180	138373	27393	990011	40174	108303	0	0	8234	628061	0	0
2024-05-22 17:20:32			0	36400	0	0	0	22563	21180	138425	27457	990099	40165	108302	0	0	8233	628189	0	0
2024-05-22 17:21:32			0	36400	0	0	0	22542	21170	138429	27608	989968	40152	108294	0	0	8234	628224	0	0
2024-05-22 17:22:32			0	36388	0	0	0	22542	21170	138573	27357	990029	40164	108294	0	0	8233	628739	0	0
2024-05-22 17:23:32			0	36353	0	0	0	22537	21170	138677	27391	990021	40173	108292	0	0	8231	630241	0	0
2024-05-22 17:24:32			0	36364	0	0	0	22542	21170	138657	27505	990056	40174	108294	0	0	8232	629768	0	0
2024-05-22 17:25:32			0	36338	0	0	0	22535	21170	138821	27260	990003	40164	108291	0	0	8231	630885	0	0
2024-05-22 17:26:32			0	36337	0	0	0	22558	21170	138697	27440	989994	40152	108300	0	0	8230	630928	0	0
2024-05-22 17:27:32			0	36355	0	0	0	22574	21170	138697	27521	990074	40173	108306	0	0	8231	630155	0	0
2024-05-22 17:28:32			0	36355	0	0	0	22579	21170	138621	27751	989994	40173	108308	0	0	8231	630155	0	0
2024-05-22 17:29:32			0	36360	0	0	0	22571	21180	138569	27204	990073	40165	108305	0	0	8231	629905	0	0
2024-05-22 17:30:32			0	36359	0	0	0	22558	21180	138633	27121	990011	40174	108300	0	0	8231	629948	0	0
2024-05-22 17:31:32			0	36367	0	0	0	22548	21180	138573	27229	990011	40164	108296	0	0	8232	629605	0	0
2024-05-22 17:32:32			0	36375	0	0	0	22558	21170	138669	27407	989968	40173	108300	0	0	8232	629296	0	0
2024-05-22 17:33:32			0	36356	0	0	0	22561	21180	138629	27358	990046	40165	108301	0	0	8231	630077	0	0
2024-05-22 17:34:32			0	36372	0	0	0	22550	21170	138617	27653	990003	40164	108297	0	0	8232	629425	0	0
2024-05-22 17:35:32			0	36356	0	0	0	22548	21170	138709	27523	990029	40174	108296	0	0	8231	630112	0	0
2024-05-22 17:36:32			0	36349	0	0	0	22535	21180	138709	27561	990011	40164	108291	0	0	8231	630377	0	0
2024-05-22 17:37:32			0	36326	0	0	0	22545	21170	138645	27331	990021	40163	108295	0	0	8230	631401	0	0
2024-05-22 17:38:32			0	36333	0	0	0	22550	21180	138673	27720	989985	40164	108297	0	0	8230	631065	0	0
2024-05-22 17:39:32			0	36328	0	0	0	22540	21180	138701	27537	989985	40164	108293	0	0	8230	631280	0	0
2024-05-22 17:40:32			0	36308	0	0	0	22542	21170	138693	27549	989976	40153	108294	0	0	8229	632175	0	0
2024-05-22 17:41:32			0	36330	0	0	0	22537	21170	138697	27774	990029	40141	108292	0	0	8230	631229	0	0
2024-05-22 17:42:32			0	36327	0	0	0	22522	21160	138829	27154	989880	40152	108286	0	0	8230	631393	0	0
2024-05-22 17:43:32			0	36266	0	0	0	22511	21170	138897	27175	989888	40163	108282	0	0	8227	633985	0	0
2024-05-22 17:44:32			0	36265	0	0	0	22485	21160	139053	27258	989906	40173	108272	0	0	8227	634063	0	0
2024-05-22 17:45:32			0	36245	0	0	0	22509	21150	139145	27530	989863	40161	108281	0	0	8226	634961	0	0
2024-05-22 17:46:32			0	36240	0	0	0	22506	21160	139145	27505	989906	40163	108280	0	0	8226	635142	0	0
2024-05-22 17:47:32			0	36231	0	0	0	22506	21140	139157	27493	989846	40150	108280	0	0	8225	635601	0	0
2024-05-22 17:48:32			0	36229	0	0	0	22493	21150	139181	27274	989855	40161	108275	0	0	8225	635652	0	0
2024-05-22 17:49:32			0	36233	0	0	0	22498	21140	139125	27547	989873	40172	108277	0	0	8225	635514	0	0
2024-05-22 17:50:32			0	36226	0	0	0	22501	21140	139253	27538	989873	40161	108278	0	0	8225	635817	0	0
2024-05-22 17:51:32			0	36240	0	0	0	22496	21140	139145	27549	989838	40149	108276	0	0	8226	635212	0	0
2024-05-22 17:52:32			0	36209	0	0	0	22490	21130	139225	27438	989829	40170	108274	0	0	8224	636587	0	0
2024-05-22 17:53:32			0	36232	0	0	0	22490	21120	139273	27315	989813	40159	108274	0	0	8225	635628	0	0
2024-05-22 17:54:32			0	36212	0	0	0	22493	21140	139229	27504	989820	40161	108275	0	0	8224	636422	0	0
2024-05-22 17:55:32			0	36209	0	0	0	22490	21140	139257	27838	989785	40160	108274	0	0	8224	636552	0	0
2024-05-22 17:56:32			0	36201	0	0	0	22488	21130	139293	27423	989883	40160	108273	0	0	8224	636933	0	0
2024-05-22 17:57:32			0	36194	0	0	0	22488	21120	139317	27466	989786	40159	108273	0	0	8223	637272	0	0
2024-05-22 17:58:32			0	36168	0	0	0	22488	21120	139397	27569	989839	40147	108273	0	0	8222	638398	0	0
2024-05-22 17:59:32			0	36180	0	0	0	22488	21120	139337	27057	989786	40159	108273	0	0	8223	637878	0	0
2024-05-22 18:00:32			0	36195	0	0	0	22480	21120	139433	27379	989786	40159	108270	0	0	8224	637228	0	0
2024-05-22 18:01:32			0	36183	0	0	0	22498	21120	139409	27481	989759	40159	108277	0	0	8223	637748	0	0
2024-05-22 18:02:32			0	36197	0	0	0	22496	21110	139481	27459	989804	40159	108276	0	0	8223	637177	0	0
2024-05-22 18:03:32			0	36188	0	0	0	22488	21120	139425	27682	989759	40159	108273	0	0	8223	637531	0	0
2024-05-22 18:04:32			0	36185	0	0	0	22493	21110	139461	27383	989769	40158	108275	0	0	8223	637697	0	0
2024-05-22 18:05:32			0	36183	0	0	0	22490	21110	139405	27684	989822	40158	108274	0	0	8223	637783	0	0
2024-05-22 18:06:32			0	36182	0	0	0	22490	21110	139461	27473	989743	40168	108274	0	0	8223	637827	0	0
2024-05-22 18:07:32			0	36163	0	0	0	22503	21110	139453	27653	989778	40159	108279	0	0	8222	638650	0	0
2024-05-22 18:08:32			0	36155	0	0	0	22514	21110	139437	27554	989822	40168	108283	0	0	8221	638997	0	0
2024-05-22 18:09:32			0	36183	0	0	0	22506	21110	139473	27405	989804	40159	108280	0	0	8223	637783	0	0
2024-05-22 18:10:32			0	36175	0	0	0	22524	21110	139441	27616	989804	40169	108287	0	0	8222	638130	0	0
2024-05-22 18:11:32			0	36181	0	0	0	22527	21120	139521	27395	989839	40159	108288	0	0	8222	637834	0	0
2024-05-22 18:12:32			0	36189	0	0	0	22522	21120	139469	27478	989866	40169	108286	0	0	8223	637488	0	0
2024-05-22 18:13:32			0	36203	0	0	0	22532	21120	139437	27298	989839	40169	108290	0	0	8223	636882	0	0
2024-05-22 18:14:32			0	36184	0	0	0	22529	21130	139409	27173	989883	40170	108289	0	0	8222	637669	0	0
2024-05-22 18:15:32			0	36209	0	0	0	22527	21120	139353	27500	989892	40169	108288	0	0	8224	636623	0	0
2024-05-22 18:16:32			0	36185	0	0	0	22524	21140	139389	27367	989864	40171	108287	0	0	8222	637590	0	0
2024-05-22 18:17:32			0	36200	0	0	0	22519	21130	139397	27310	989794	40170	108285	0	0	8223	636977	0	0
2024-05-22 18:18:32			0	36208	0	0	0	22519	21120	139397	27576	989839	40169	108285	0	0	8224	636666	0	0
2024-05-22 18:19:32			0	36200	0	0	0	22496	21120	139405	27396	989759	40159	108276	0	0	8224	637012	0	0
2024-05-22 18:20:32			0	36191	0	0	0	22493	21120	139357	27706	989786	40169	108275	0	0	8223	637401	0	0
2024-05-22 18:21:32			0	36187	0	0	0	22501	21120	139397	27452	989786	40159	108278	0	0	8223	637575	0	0
2024-05-22 18:22:32			0	36176	0	0	0	22490	21110	139461	27130	989769	40168	108274	0	0	8222	638087	0	0
2024-05-22 18:23:32			0	36160	0	0	0	22488	21110	139441	27618	989743	40158	108273	0	0	8222	638780	0	0
2024-05-22 18:24:32			0	36154	0	0	0	22496	21110	139357	27486	989804	40169	108276	0	0	8221	639040	0	0
2024-05-22 18:25:32			0	36166	0	0	0	22498	21120	139429	27171	989786	40169	108277	0	0	8222	638484	0	0
2024-05-22 18:26:32			0	36181	0	0	0	22506	21100	139469	27168	989787	40168	108280	0	0	8222	637905	0	0
2024-05-22 18:27:32			0	36181	0	0	0	22516	21110	139461	27095	989769	40168	108284	0	0	8222	637870	0	0
2024-05-22 18:28:32			0	36199	0	0	0	22524	21110	139405	27265	989857	40169	108287	0	0	8223	637090	0	0
2024-05-22 18:29:32			0	36179	0	0	0	22519	21110	139377	27286	989831	40169	108285	0	0	8222	637956	0	0
2024-05-22 18:30:32			0	36186	0	0	0	22501	21110	139289	27317	989778	40147	108278	0	0	8223	637653	0	0
2024-05-22 18:31:32			0	36184	0	0	0	22483	21120	139413	27201	989866	40169	108271	0	0	8223	637705	0	0
2024-05-22 18:32:32			0	36178	0	0	0	22485	21110	139385	27448	989778	40159	108272	0	0	8223	638000	0	0
2024-05-22 18:33:32			0	36178	0	0	0	22490	21100	139445	27559	989726	40146	108274	0	0	8223	638035	0	0
2024-05-22 18:34:32			0	36186	0	0	0	22511	21120	139437	27213	989813	40169	108282	0	0	8223	637618	0	0
2024-05-22 18:35:32			0	36195	0	0	0	22509	21110	139473	27287	989743	40168	108281	0	0	8223	637264	0	0
2024-05-22 18:36:32			0	36177	0	0	0	22501	21110	139441	27405	989804	40169	108278	0	0	8222	638043	0	0
2024-05-22 18:37:32			0	36198	0	0	0	22506	21110	139425	27500	989822	40168	108280	0	0	8223	637134	0	0
2024-05-22 18:38:32			0	36173	0	0	0	22516	21110	139457	27319	989769	40168	108284	0	0	8222	638216	0	0
2024-05-22 18:39:32			0	36181	0	0	0	22509	21110	139389	27495	989796	40168	108281	0	0	8222	637870	0	0
2024-05-22 18:40:32			0	36180	0	0	0	22503	21110	139317	27331	989769	40158	108279	0	0	8222	637913	0	0
2024-05-22 18:41:32			0	36192	0	0	0	22506	21110	139385	27168	989804	40169	108280	0	0	8223	637393	0	0
2024-05-22 18:42:32			0	36167	0	0	0	22498	21110	139381	27324	989831	40159	108277	0	0	8222	638476	0	0
2024-05-22 18:43:32			0	36187	0	0	0	22496	21110	139429	27312	989804	40159	108276	0	0	8223	637610	0	0
2024-05-22 18:44:32			0	36182	0	0	0	22493	21110	139385	27251	989743	40158	108275	0	0	8223	637827	0	0
2024-05-22 18:45:32			0	36179	0	0	0	22501	21110	139441	27159	989796	40168	108278	0	0	8222	637956	0	0
2024-05-22 18:46:32			0	36194	0	0	0	22514	21110	139365	27128	989778	40180	108283	0	0	8223	637307	0	0
2024-05-22 18:47:32			0	36174	0	0	0	22506	21110	139309	27305	989743	40158	108280	0	0	8222	638173	0	0
2024-05-22 18:48:32			0	36199	0	0	0	22511	21110	139461	27571	989778	40147	108282	0	0	8223	637090	0	0
2024-05-22 18:49:32			0	36167	0	0	0	22511	21110	139381	27384	989831	40169	108282	0	0	8222	638476	0	0
2024-05-22 18:50:32			0	36197	0	0	0	22516	21100	139373	27393	989753	40167	108284	0	0	8223	637213	0	0
2024-05-22 18:51:32			0	36181	0	0	0	22511	21110	139457	27095	989831	40159	108282	0	0	8222	637870	0	0
2024-05-22 18:52:32			0	36192	0	0	0	22516	21110	139437	27490	989778	40180	108284	0	0	8223	637393	0	0
2024-05-22 18:53:32			0	36198	0	0	0	22524	21110	139437	27391	989804	40169	108287	0	0	8223	637134	0	0
2024-05-22 18:54:32			0	36183	0	0	0	22519	21100	139377	27391	989841	40179	108285	0	0	8222	637819	0	0
2024-05-22 18:55:32			0	36201	0	0	0	22527	21110	139353	27471	989876	40168	108288	0	0	8223	637004	0	0
2024-05-22 18:56:32			0	36204	0	0	0	22501	21110	139377	27301	989831	40159	108278	0	0	8224	636874	0	0
2024-05-22 18:57:32			0	36170	0	0	0	22483	21130	139489	27107	989883	40170	108271	0	0	8222	638276	0	0
2024-05-22 18:58:32			0	36166	0	0	0	22519	21110	139521	27329	989778	40169	108285	0	0	8221	638520	0	0
2024-05-22 18:59:32			0	36177	0	0	0	22535	21110	139453	27183	989831	40169	108291	0	0	8222	638043	0	0
2024-05-22 19:00:32			0	36175	0	0	0	22548	21110	139361	27166	989831	40169	108296	0	0	8221	638130	0	0
2024-05-22 19:01:32			0	36175	0	0	0	22548	21120	139417	27196	989892	40169	108296	0	0	8221	638094	0	0
2024-05-22 19:02:32			0	36194	0	0	0	22550	21130	139333	27199	989883	40181	108297	0	0	8222	637236	0	0
2024-05-22 19:03:32			0	36177	0	0	0	22542	21130	139361	27133	989883	40181	108294	0	0	8222	637972	0	0
2024-05-22 19:04:32			0	36205	0	0	0	22527	21140	139385	27338	989864	40171	108288	0	0	8223	636725	0	0
2024-05-22 19:05:32			0	36181	0	0	0	22529	21130	139353	27282	989874	40160	108289	0	0	8222	637799	0	0
2024-05-22 19:06:32			0	36177	0	0	0	22535	21140	139437	27505	989838	40182	108291	0	0	8222	637937	0	0
2024-05-22 19:07:32			0	36179	0	0	0	22535	21130	139505	27365	989848	40181	108291	0	0	8222	637886	0	0
2024-05-22 19:08:32			0	36176	0	0	0	22524	21140	139429	27281	989918	40171	108287	0	0	8222	637980	0	0
2024-05-22 19:09:32			0	36170	0	0	0	22514	21130	139409	27291	989776	40170	108283	0	0	8222	638276	0	0
2024-05-22 19:10:32			0	36166	0	0	0	22514	21140	139589	27530	989838	40160	108283	0	0	8222	638414	0	0
2024-05-22 19:11:32			0	36152	0	0	0	22501	21120	139557	27460	989813	40159	108278	0	0	8221	639091	0	0
2024-05-22 19:12:32			0	36139	0	0	0	22490	21110	139545	27215	989857	40159	108274	0	0	8220	639691	0	0
2024-05-22 19:13:32			0	36126	0	0	0	22488	21120	139657	27331	989786	40159	108273	0	0	8220	640220	0	0
2024-05-22 19:14:32			0	36120	0	0	0	22496	21110	139669	27039	989769	40168	108276	0	0	8219	640516	0	0
2024-05-22 19:15:32			0	36118	0	0	0	22514	21100	139681	27512	989806	40167	108283	0	0	8219	640638	0	0
2024-05-22 19:16:32			0	36125	0	0	0	22509	21100	139673	27377	989761	40168	108281	0	0	8219	640334	0	0
2024-05-22 19:17:32			0	36121	0	0	0	22498	21100	139693	27305	989753	40167	108277	0	0	8219	640508	0	0
2024-05-22 19:18:32			0	36099	0	0	0	22498	21100	139853	27412	989806	40167	108277	0	0	8218	641464	0	0
2024-05-22 19:19:32			0	36112	0	0	0	22514	21110	139769	27495	989743	40158	108283	0	0	8219	640863	0	0
2024-05-22 19:20:32			0	36110	0	0	0	22506	21100	139845	27183	989779	40178	108280	0	0	8219	640986	0	0
2024-05-22 19:21:32			0	36098	0	0	0	22509	21100	139817	27090	989761	40179	108281	0	0	8218	641508	0	0
2024-05-22 19:22:32			0	36095	0	0	0	22516	21100	139869	27402	989753	40178	108284	0	0	8218	641638	0	0
2024-05-22 19:23:32			0	36095	0	0	0	22501	21100	139785	27279	989726	40178	108278	0	0	8218	641638	0	0
2024-05-22 19:24:32			0	36097	0	0	0	22506	21100	139777	27488	989787	40147	108280	0	0	8218	641551	0	0
2024-05-22 19:25:32			0	36109	0	0	0	22496	21090	139793	27372	989771	40178	108276	0	0	8219	641065	0	0
2024-05-22 19:26:32			0	36096	0	0	0	22488	21090	139853	27441	989744	40167	108273	0	0	8218	641630	0	0
2024-05-22 19:27:32			0	36075	0	0	0	22485	21100	139797	27253	989726	40157	108272	0	0	8217	642508	0	0
2024-05-22 19:28:32			0	36089	0	0	0	22485	21090	139881	27627	989691	40167	108272	0	0	8218	641935	0	0
2024-05-22 19:29:32			0	36081	0	0	0	22470	21090	139857	27524	989629	40166	108266	0	0	8218	642283	0	0
2024-05-22 19:30:32			0	36067	0	0	0	22477	21080	139913	27244	989701	40155	108269	0	0	8217	642928	0	0
2024-05-22 19:31:32			0	36061	0	0	0	22470	21090	139933	27303	989709	40156	108266	0	0	8217	643154	0	0
2024-05-22 19:32:32			0	36044	0	0	0	22462	21070	139985	27352	989604	40166	108263	0	0	8216	643966	0	0
2024-05-22 19:33:32			0	36028	0	0	0	22457	21070	140129	26958	989622	40166	108261	0	0	8215	644664	0	0
2024-05-22 19:34:32			0	36011	0	0	0	22459	21060	140169	27251	989614	40165	108262	0	0	8214	645442	0	0
2024-05-22 19:35:32			0	35992	0	0	0	22464	21070	140157	27455	989622	40166	108264	0	0	8213	646237	0	0
2024-05-22 19:36:32			0	35994	0	0	0	22472	21050	140129	27145	989544	40175	108267	0	0	8213	646221	0	0
2024-05-22 19:37:32			0	35982	0	0	0	22475	21060	140177	27312	989587	40165	108268	0	0	8212	646710	0	0
2024-05-22 19:38:32			0	35994	0	0	0	22475	21070	140241	27353	989596	40166	108268	0	0	8213	646149	0	0
2024-05-22 19:39:32			0	35984	0	0	0	22454	21070	140245	27147	989542	40166	108260	0	0	8213	646586	0	0
2024-05-22 19:40:32			0	35984	0	0	0	22457	21060	140221	27415	989561	40142	108261	0	0	8213	646622	0	0
2024-05-22 19:41:32			0	35987	0	0	0	22454	21060	140133	27015	989552	40165	108260	0	0	8213	646491	0	0
2024-05-22 19:42:32			0	35988	0	0	0	22441	21060	140237	27071	989579	40165	108255	0	0	8213	646447	0	0
2024-05-22 19:43:32			0	35974	0	0	0	22446	21060	140237	27367	989587	40165	108257	0	0	8212	647060	0	0
2024-05-22 19:44:32			0	35977	0	0	0	22436	21060	140213	27604	989579	40165	108253	0	0	8212	646928	0	0
2024-05-22 19:45:32			0	35973	0	0	0	22441	21050	140257	27320	989544	40165	108255	0	0	8212	647139	0	0
2024-05-22 19:46:32			0	35968	0	0	0	22438	21040	140389	27691	989474	40163	108254	0	0	8212	647394	0	0
2024-05-22 19:47:32			0	35981	0	0	0	22436	21050	140325	27173	989535	40141	108253	0	0	8213	646789	0	0
2024-05-22 19:48:32			0	35970	0	0	0	22433	21050	140293	27036	989482	40174	108252	0	0	8212	647270	0	0
2024-05-22 19:49:32			0	35999	0	0	0	22425	21040	140273	27209	989492	40173	108249	0	0	8214	646038	0	0
2024-05-22 19:50:32			0	35967	0	0	0	22449	21040	140345	27409	989500	40152	108258	0	0	8212	647438	0	0
2024-05-22 19:51:32			0	35988	0	0	0	22423	21040	140321	27140	989466	40163	108248	0	0	8213	646519	0	0
2024-05-22 19:52:32			0	35982	0	0	0	22420	21040	140289	27490	989527	40152	108247	0	0	8213	646781	0	0
2024-05-22 19:53:32			0	35987	0	0	0	22407	21030	140305	27076	989510	40173	108242	0	0	8213	646599	0	0
2024-05-22 19:54:32			0	35982	0	0	0	22412	21030	140281	27187	989404	40163	108244	0	0	8213	646817	0	0
2024-05-22 19:55:32			0	36002	0	0	0	22415	21030	140293	26942	989457	40152	108245	0	0	8214	645943	0	0
2024-05-22 19:56:32			0	35996	0	0	0	22410	21030	140265	27383	989369	40151	108243	0	0	8214	646205	0	0
2024-05-22 19:57:32			0	35978	0	0	0	22394	21030	140257	27088	989396	40162	108237	0	0	8213	646992	0	0
2024-05-22 19:58:32			0	35977	0	0	0	22399	21020	140325	27338	989361	40161	108239	0	0	8213	647072	0	0
2024-05-22 19:59:32			0	35960	0	0	0	22389	21020	140373	27097	989326	40160	108235	0	0	8212	647816	0	0
2024-05-22 20:00:32			0	35959	0	0	0	22397	21020	140497	27024	989326	40160	108238	0	0	8212	647860	0	0
2024-05-22 20:01:32			0	35958	0	0	0	22392	21020	140345	27215	989299	40149	108236	0	0	8212	647904	0	0
2024-05-22 20:02:32			0	35963	0	0	0	22392	21010	140345	27126	989291	40160	108236	0	0	8212	647721	0	0
2024-05-22 20:03:32			0	35951	0	0	0	22392	21010	140333	26963	989291	40160	108236	0	0	8212	648246	0	0
2024-05-22 20:04:32			0	35936	0	0	0	22386	21010	140473	27045	989344	40160	108234	0	0	8211	648904	0	0
2024-05-22 20:05:32			0	35923	0	0	0	22384	21010	140517	27170	989282	40149	108233	0	0	8210	649474	0	0
2024-05-22 20:06:32			0	35900	0	0	0	22379	21000	140557	27199	989274	40148	108231	0	0	8209	650520	0	0
2024-05-22 20:07:32			0	35901	0	0	0	22363	20990	140637	27079	989257	40159	108225	0	0	8209	650512	0	0
2024-05-22 20:08:32			0	35874	0	0	0	22363	20990	140641	27235	989231	40159	108225	0	0	8208	651699	0	0
2024-05-22 20:09:32			0	35883	0	0	0	22353	20980	140721	27173	989214	40158	108221	0	0	8208	651339	0	0
2024-05-22 20:10:32			0	35872	0	0	0	22342	20990	140733	27281	989142	40147	108217	0	0	8208	651787	0	0
2024-05-22 20:11:32			0	35911	0	0	0	22350	20990	140549	27241	989151	40147	108220	0	0	8210	650073	0	0
2024-05-22 20:12:32			0	35891	0	0	0	22345	20970	140725	27189	989109	40146	108218	0	0	8209	651024	0	0
2024-05-22 20:13:32			0	35880	0	0	0	22342	20970	140705	27374	989091	40157	108217	0	0	8208	651507	0	0
2024-05-22 20:14:32			0	35853	0	0	0	22340	20970	140712	27057	989109	40157	108216	0	0	8207	652695	0	0
2024-05-22 20:15:32			0	35892	0	0	0	22337	20960	140721	27216	989092	40144	108215	0	0	8209	651016	0	0
2024-05-22 20:16:32			0	35879	0	0	0	22345	20960	140689	27282	989127	40156	108218	0	0	8208	651587	0	0
2024-05-22 20:17:32			0	35908	0	0	0	22329	20950	140653	27338	989083	40132	108212	0	0	8210	650349	0	0
2024-05-22 20:18:32			0	35914	0	0	0	22327	20950	140753	27239	989030	40165	108211	0	0	8210	650085	0	0
2024-05-22 20:19:32			0	35910	0	0	0	22329	20950	140545	27220	989083	40143	108212	0	0	8210	650261	0	0
2024-05-22 20:20:32			0	35939	0	0	0	22332	20950	140541	27211	989030	40154	108213	0	0	8212	648988	0	0
2024-05-22 20:21:32			0	35957	0	0	0	22329	20950	140449	27085	989030	40165	108212	0	0	8213	648199	0	0
2024-05-22 20:22:32			0	35975	0	0	0	22324	20950	140305	27467	989057	40143	108210	0	0	8214	647411	0	0
2024-05-22 20:23:32			0	35987	0	0	0	22327	20950	140393	27197	989048	40154	108211	0	0	8214	646885	0	0
2024-05-22 20:24:32			0	35998	0	0	0	22340	20950	140225	27192	989075	40132	108216	0	0	8215	646404	0	0
2024-05-22 20:25:32			0	36007	0	0	0	22337	20940	140297	27114	989040	40143	108215	0	0	8215	646046	0	0
2024-05-22 20:26:32			0	36015	0	0	0	22319	20940	140229	27287	989014	40154	108208	0	0	8216	645697	0	0
2024-05-22 20:27:32			0	36023	0	0	0	22322	20930	140225	27072	989023	40164	108209	0	0	8216	645383	0	0
2024-05-22 20:28:32			0	36027	0	0	0	22319	20950	140229	27284	989022	40154	108208	0	0	8217	645137	0	0
2024-05-22 20:29:32			0	36043	0	0	0	22337	20940	140157	27079	989014	40154	108215	0	0	8217	644474	0	0
2024-05-22 20:30:32			0	36049	0	0	0	22324	20940	140169	27211	989032	40153	108210	0	0	8218	644212	0	0
2024-05-22 20:31:32			0	36047	0	0	0	22301	20930	140157	27445	988997	40141	108201	0	0	8218	644335	0	0
2024-05-22 20:32:32			0	36025	0	0	0	22303	20940	140277	27402	988979	40164	108202	0	0	8217	645260	0	0
2024-05-22 20:33:32			0	35990	0	0	0	22311	20920	140381	27646	988927	40152	108205	0	0	8215	646862	0	0
2024-05-22 20:34:32			0	35977	0	0	0	22301	20930	140417	27230	988935	40141	108201	0	0	8214	647395	0	0
2024-05-22 20:35:32			0	35975	0	0	0	22311	20920	140465	27371	988892	40152	108205	0	0	8214	647518	0	0
2024-05-22 20:36:32			0	35981	0	0	0	22316	20920	140437	27353	988927	40130	108207	0	0	8214	647256	0	0
2024-05-22 20:37:32			0	35988	0	0	0	22314	20920	140405	27324	988927	40152	108206	0	0	8215	646949	0	0
2024-05-22 20:38:32			0	36015	0	0	0	22306	20920	140297	27443	988918	40163	108203	0	0	8216	645768	0	0
2024-05-22 20:39:32			0	36002	0	0	0	22301	20910	140289	27326	988963	40151	108201	0	0	8215	646373	0	0
2024-05-22 20:40:32			0	35979	0	0	0	22303	20920	140337	27201	988900	40141	108202	0	0	8214	647343	0	0
2024-05-22 20:41:32			0	35954	0	0	0	22301	20920	140457	27242	988927	40141	108201	0	0	8213	648438	0	0
2024-05-22 20:42:32			0	35956	0	0	0	22303	20900	140517	27282	988867	40151	108202	0	0	8213	648422	0	0
2024-05-22 20:43:32			0	35962	0	0	0	22296	20900	140501	27142	988840	40139	108199	0	0	8213	648159	0	0
2024-05-22 20:44:32			0	35935	0	0	0	22301	20910	140553	27396	988937	40151	108201	0	0	8212	649307	0	0
2024-05-22 20:45:32			0	35955	0	0	0	22296	20910	140537	27197	988875	40151	108199	0	0	8213	648430	0	0
2024-05-22 20:46:32			0	35945	0	0	0	22306	20910	140525	27396	988910	40151	108203	0	0	8212	648869	0	0
2024-05-22 20:47:32			0	35958	0	0	0	22309	20910	140457	27223	988937	40151	108204	0	0	8213	648299	0	0
2024-05-22 20:48:32			0	35970	0	0	0	22303	20910	140445	27163	988963	40151	108202	0	0	8214	647773	0	0
2024-05-22 20:49:32			0	35961	0	0	0	22301	20900	140493	27265	988920	40151	108201	0	0	8213	648203	0	0
2024-05-22 20:50:32			0	35954	0	0	0	22301	20920	140585	27416	988918	40140	108201	0	0	8213	648438	0	0
2024-05-22 20:51:32			0	35940	0	0	0	22298	20910	140549	27308	988875	40139	108200	0	0	8212	649088	0	0
2024-05-22 20:52:32			0	35961	0	0	0	22303	20900	140529	27424	988867	40139	108202	0	0	8213	648203	0	0
2024-05-22 20:53:32			0	35952	0	0	0	22293	20910	140509	27279	988884	40151	108198	0	0	8213	648562	0	0
2024-05-22 20:54:32			0	35957	0	0	0	22298	20910	140557	27256	988849	40151	108200	0	0	8213	648343	0	0
2024-05-22 20:55:32			0	35961	0	0	0	22298	20910	140577	27244	988928	40151	108200	0	0	8213	648167	0	0
2024-05-22 20:56:32			0	35960	0	0	0	22296	20900	140565	27504	988893	40139	108199	0	0	8213	648247	0	0
2024-05-22 20:57:32			0	35971	0	0	0	22277	20900	140525	27417	988867	40139	108192	0	0	8214	647765	0	0
2024-05-22 20:58:32			0	35938	0	0	0	22262	20900	140577	27071	988787	40139	108186	0	0	8213	649212	0	0
2024-05-22 20:59:32			0	35889	0	0	0	22275	20900	140709	27393	988814	40139	108191	0	0	8210	651364	0	0
2024-05-22 21:00:32			0	35870	0	0	0	22298	20900	140801	27587	988885	40139	108200	0	0	8208	652200	0	0
2024-05-22 21:01:32			0	35887	0	0	0	22301	20890	140813	26994	988823	40138	108201	0	0	8209	651488	0	0
2024-05-22 21:02:32			0	35901	0	0	0	22288	20890	140617	27137	988842	40148	108196	0	0	8210	650873	0	0
2024-05-22 21:03:32			0	35918	0	0	0	22280	20890	140657	27138	988815	40137	108193	0	0	8211	650126	0	0
2024-05-22 21:04:32			0	35922	0	0	0	22285	20900	140617	27223	988832	40139	108195	0	0	8211	649914	0	0
2024-05-22 21:05:32			0	35902	0	0	0	22293	20900	140589	27142	988832	40127	108198	0	0	8210	650793	0	0
2024-05-22 21:06:32			0	35910	0	0	0	22290	20910	140689	27289	988849	40151	108197	0	0	8211	650405	0	0
2024-05-22 21:07:32			0	35915	0	0	0	22298	20890	140757	27128	988903	40160	108200	0	0	8211	650257	0	0
2024-05-22 21:08:32			0	35924	0	0	0	22298	20900	140673	26986	988805	40150	108200	0	0	8211	649826	0	0
2024-05-22 21:09:32			0	35912	0	0	0	22285	20890	140709	27333	988895	40148	108195	0	0	8211	650389	0	0
2024-05-22 21:10:32			0	35925	0	0	0	22293	20890	140609	27178	988797	40138	108198	0	0	8211	649818	0	0
2024-05-22 21:11:32			0	35930	0	0	0	22283	20900	140633	27396	988858	40150	108194	0	0	8212	649563	0	0
2024-05-22 21:12:32			0	35924	0	0	0	22293	20890	140609	27438	988823	40138	108198	0	0	8211	649862	0	0
2024-05-22 21:13:32			0	35907	0	0	0	22290	20900	140601	27242	988814	40139	108197	0	0	8210	650573	0	0
2024-05-22 21:14:32			0	35906	0	0	0	22283	20890	140689	27398	988823	40138	108194	0	0	8211	650653	0	0
2024-05-22 21:15:32			0	35932	0	0	0	22285	20890	140621	27419	988850	40149	108195	0	0	8212	649511	0	0
2024-05-22 21:16:32			0	35904	0	0	0	22290	20900	140709	27300	988779	40150	108197	0	0	8210	650705	0	0
2024-05-22 21:17:32			0	35913	0	0	0	22277	20890	140849	27324	988842	40148	108192	0	0	8211	650345	0	0
2024-05-22 21:18:32			0	35907	0	0	0	22283	20890	140725	27225	988815	40148	108194	0	0	8211	650609	0	0
2024-05-22 21:19:32			0	35895	0	0	0	22280	20890	140785	27256	988815	40148	108193	0	0	8210	651136	0	0
2024-05-22 21:20:32			0	35904	0	0	0	22275	20890	140813	27358	988868	40148	108191	0	0	8211	650741	0	0
2024-05-22 21:21:32			0	35892	0	0	0	22285	20890	140821	27166	988788	40159	108195	0	0	8210	651268	0	0
2024-05-22 21:22:32			0	35880	0	0	0	22288	20890	140709	27353	988823	40138	108196	0	0	8209	651796	0	0
2024-05-22 21:23:32			0	35901	0	0	0	22270	20890	140781	27343	988815	40148	108189	0	0	8210	650873	0	0
2024-05-22 21:24:32			0	35892	0	0	0	22267	20880	140765	27372	988754	40148	108188	0	0	8210	651304	0	0
2024-05-22 21:25:32			0	35851	0	0	0	22272	20880	140860	27242	988807	40148	108190	0	0	8208	653109	0	0
2024-05-22 21:26:32			0	35856	0	0	0	22262	20880	140984	27272	988807	40137	108186	0	0	8208	652889	0	0
2024-05-22 21:27:32			0	35816	0	0	0	22254	20880	140988	27421	988754	40137	108183	0	0	8206	654652	0	0
2024-05-22 21:28:32			0	35809	0	0	0	22272	20880	141148	27206	988772	40148	108190	0	0	8205	654962	0	0
2024-05-22 21:29:32			0	35784	0	0	0	22257	20880	141088	27201	988772	40148	108184	0	0	8204	656066	0	0
2024-05-22 21:30:32			0	35741	0	0	0	22262	20870	141324	27170	988763	40147	108186	0	0	8202	658005	0	0
2024-05-22 21:31:32			0	35737	0	0	0	22241	20880	141452	27024	988798	40148	108178	0	0	8202	658146	0	0
2024-05-22 21:32:32			0	35710	0	0	0	22241	20860	141508	27333	988720	40146	108178	0	0	8201	659416	0	0
2024-05-22 21:33:32			0	35669	0	0	0	22249	20870	141580	27180	988702	40135	108181	0	0	8198	661200	0	0
2024-05-22 21:34:32			0	35610	0	0	0	22231	20860	141868	27267	988659	40146	108174	0	0	8195	663864	0	0
2024-05-22 21:35:32			0	35566	0	0	0	22223	20860	142020	27213	988667	40135	108171	0	0	8193	665827	0	0
2024-05-22 21:36:32			0	35527	0	0	0	22228	20860	142236	27303	988632	40135	108173	0	0	8191	667572	0	0
2024-05-22 21:37:32			0	35483	0	0	0	22223	20850	142400	27199	988615	40144	108171	0	0	8189	669580	0	0
2024-05-22 21:38:32			0	35432	0	0	0	22205	20850	142572	27353	988562	40144	108164	0	0	8186	671871	0	0
2024-05-22 21:39:32			0	35433	0	0	0	22212	20840	142564	27232	988598	40133	108167	0	0	8186	671864	0	0
2024-05-22 21:40:32			0	35421	0	0	0	22207	20840	142660	26975	988466	40156	108165	0	0	8185	672404	0	0
2024-05-22 21:41:32			0	35414	0	0	0	22205	20840	142640	27177	988527	40123	108164	0	0	8185	672719	0	0
2024-05-22 21:42:32			0	35367	0	0	0	22199	20840	142800	27152	988545	40133	108162	0	0	8183	674837	0	0
2024-05-22 21:43:32			0	35388	0	0	0	22186	20830	142872	27275	988563	40144	108157	0	0	8184	673927	0	0
2024-05-22 21:44:32			0	35382	0	0	0	22184	20820	142748	27277	988502	40132	108156	0	0	8184	674235	0	0
2024-05-22 21:45:32			0	35374	0	0	0	22192	20820	142844	27279	988528	40132	108159	0	0	8183	674596	0	0
2024-05-22 21:46:32			0	35344	0	0	0	22194	20820	142904	27234	988475	40143	108160	0	0	8181	675950	0	0
2024-05-22 21:47:32			0	35344	0	0	0	22210	20810	142944	27274	988432	40131	108166	0	0	8181	675988	0	0
2024-05-22 21:48:32			0	35343	0	0	0	22199	20810	143036	27166	988503	40131	108162	0	0	8181	676033	0	0
2024-05-22 21:49:32			0	35356	0	0	0	22202	20810	142940	27315	988450	40131	108163	0	0	8182	675446	0	0
2024-05-22 21:50:32			0	35337	0	0	0	22205	20810	142928	27322	988476	40131	108164	0	0	8181	676304	0	0
2024-05-22 21:51:32			0	35343	0	0	0	22194	20810	142984	27308	988450	40142	108160	0	0	8181	676033	0	0
2024-05-22 21:52:32			0	35329	0	0	0	22197	20810	142968	27341	988485	40142	108161	0	0	8180	676666	0	0
2024-05-22 21:53:32			0	35351	0	0	0	22199	20800	143008	27268	988407	40140	108162	0	0	8182	675709	0	0
2024-05-22 21:54:32			0	35338	0	0	0	22199	20800	142992	27171	988442	40141	108162	0	0	8181	676296	0	0
2024-05-22 21:55:32			0	35333	0	0	0	22192	20810	142976	27599	988485	40142	108159	0	0	8181	676485	0	0
2024-05-22 21:56:32			0	35333	0	0	0	22197	20790	143004	27421	988451	40119	108161	0	0	8181	676560	0	0
2024-05-22 21:57:32			0	35328	0	0	0	22194	20780	143048	27478	988381	40139	108160	0	0	8180	676823	0	0
2024-05-22 21:58:32			0	35342	0	0	0	22186	20780	143084	27293	988435	40139	108157	0	0	8181	676190	0	0
2024-05-22 21:59:32			0	35334	0	0	0	22192	20800	142944	27341	988433	40119	108159	0	0	8181	676477	0	0
2024-05-22 22:00:32			0	35357	0	0	0	22189	20780	143020	27460	988408	40139	108158	0	0	8182	675513	0	0
2024-05-22 22:01:32			0	35347	0	0	0	22192	20800	142948	27119	988407	40151	108159	0	0	8181	675890	0	0
2024-05-22 22:02:32			0	35328	0	0	0	22184	20790	142920	27274	988398	40151	108156	0	0	8180	676786	0	0
2024-05-22 22:03:32			0	35343	0	0	0	22186	20790	142828	27324	988416	40140	108157	0	0	8181	676108	0	0
2024-05-22 22:04:32			0	35343	0	0	0	22192	20790	142932	27286	988390	40140	108159	0	0	8181	676108	0	0
2024-05-22 22:05:32			0	35352	0	0	0	22184	20780	142916	27312	988381	40128	108156	0	0	8182	675738	0	0
2024-05-22 22:06:32			0	35352	0	0	0	22189	20780	142928	27313	988426	40127	108158	0	0	8182	675738	0	0
2024-05-22 22:07:32			0	35355	0	0	0	22194	20780	142800	27332	988408	40128	108160	0	0	8182	675603	0	0
2024-05-22 22:08:32			0	35338	0	0	0	22179	20780	142956	27076	988381	40139	108154	0	0	8181	676371	0	0
2024-05-22 22:09:32			0	35330	0	0	0	22194	20780	142928	27346	988355	40139	108160	0	0	8180	676733	0	0
2024-05-22 22:10:32			0	35354	0	0	0	22199	20780	143020	27388	988408	40128	108162	0	0	8182	675648	0	0
2024-05-22 22:11:32			0	35363	0	0	0	22202	20780	143020	27222	988400	40138	108163	0	0	8182	675242	0	0
2024-05-22 22:12:32			0	35368	0	0	0	22202	20780	142920	27448	988435	40128	108163	0	0	8182	675016	0	0
2024-05-22 22:13:32			0	35357	0	0	0	22199	20780	142864	27055	988453	40138	108162	0	0	8182	675513	0	0
2024-05-22 22:14:32			0	35378	0	0	0	22207	20800	142892	27320	988486	40151	108165	0	0	8183	674490	0	0
2024-05-22 22:15:32			0	35408	0	0	0	22212	20790	142776	27653	988390	40140	108167	0	0	8184	673175	0	0
2024-05-22 22:16:32			0	35407	0	0	0	22205	20810	142744	27135	988423	40142	108164	0	0	8185	673146	0	0
2024-05-22 22:17:32			0	35436	0	0	0	22215	20800	142516	27460	988460	40129	108168	0	0	8186	671878	0	0
2024-05-22 22:18:32			0	35458	0	0	0	22215	20790	142508	27324	988443	40140	108168	0	0	8187	670926	0	0
2024-05-22 22:19:32			0	35480	0	0	0	22210	20780	142568	27242	988435	40150	108166	0	0	8188	669975	0	0
2024-05-22 22:20:32			0	35486	0	0	0	22223	20810	142392	27279	988556	40153	108171	0	0	8188	669594	0	0
2024-05-22 22:21:32			0	35495	0	0	0	22220	20800	142336	27241	988521	40141	108170	0	0	8189	669228	0	0
2024-05-22 22:22:32			0	35524	0	0	0	22228	20800	142316	27303	988539	40140	108173	0	0	8190	667928	0	0
2024-05-22 22:23:32			0	35541	0	0	0	22220	20810	142204	27367	988530	40142	108170	0	0	8192	667130	0	0
2024-05-22 22:24:32			0	35564	0	0	0	22212	20810	142092	27447	988538	40142	108167	0	0	8193	666101	0	0
2024-05-22 22:25:32			0	35587	0	0	0	22223	20810	142044	27352	988511	40142	108171	0	0	8194	665074	0	0
2024-05-22 22:26:32			0	35610	0	0	0	22231	20800	141900	27270	988495	40152	108174	0	0	8195	664084	0	0
2024-05-22 22:27:32			0	35626	0	0	0	22215	20810	141896	27218	988530	40153	108168	0	0	8196	663334	0	0
2024-05-22 22:28:32			0	35631	0	0	0	22236	20810	141892	27452	988503	40142	108176	0	0	8196	663111	0	0
2024-05-22 22:29:32			0	35636	0	0	0	22233	20810	141824	27180	988511	40142	108175	0	0	8196	662889	0	0
2024-05-22 22:30:32			0	35654	0	0	0	22218	20810	141736	27232	988556	40153	108169	0	0	8198	662087	0	0
2024-05-22 22:31:32			0	35661	0	0	0	22220	20820	141816	27421	988573	40131	108170	0	0	8198	661739	0	0
2024-05-22 22:32:32			0	35671	0	0	0	22223	20810	141644	27306	988530	40142	108171	0	0	8199	661331	0	0
2024-05-22 22:33:32			0	35683	0	0	0	22223	20810	141648	27364	988485	40131	108171	0	0	8199	660798	0	0
2024-05-22 22:34:32			0	35675	0	0	0	22220	20820	141724	26970	988573	40142	108170	0	0	8199	661117	0	0
2024-05-22 22:35:32			0	35647	0	0	0	22210	20820	141776	27343	988581	40132	108166	0	0	8197	662362	0	0
2024-05-22 22:36:32			0	35646	0	0	0	22197	20810	141844	27569	988511	40142	108161	0	0	8198	662443	0	0
2024-05-22 22:37:32			0	35628	0	0	0	22205	20810	141900	27279	988530	40153	108164	0	0	8196	663245	0	0
2024-05-22 22:38:32			0	35610	0	0	0	22199	20810	141916	27159	988458	40142	108162	0	0	8196	664048	0	0
2024-05-22 22:39:32			0	35608	0	0	0	22194	20810	141936	27026	988511	40153	108160	0	0	8196	664137	0	0
2024-05-22 22:40:32			0	35590	0	0	0	22202	20810	142140	27223	988503	40131	108163	0	0	8194	664940	0	0
2024-05-22 22:41:32			0	35579	0	0	0	22194	20800	141904	27251	988486	40140	108160	0	0	8194	665468	0	0
2024-05-22 22:42:32			0	35594	0	0	0	22202	20800	142068	27315	988521	40141	108163	0	0	8195	664798	0	0
2024-05-22 22:43:32			0	35577	0	0	0	22194	20800	142140	27377	988415	40141	108160	0	0	8194	665557	0	0
2024-05-22 22:44:32			0	35561	0	0	0	22197	20800	142140	27345	988495	40130	108161	0	0	8193	666272	0	0
2024-05-22 22:45:32			0	35560	0	0	0	22181	20810	142096	27405	988450	40142	108155	0	0	8193	666280	0	0
2024-05-22 22:46:32			0	35553	0	0	0	22184	20790	142116	27260	988478	40140	108156	0	0	8193	666667	0	0
2024-05-22 22:47:32			0	35553	0	0	0	22186	20800	142132	27246	988460	40140	108157	0	0	8193	666630	0	0
2024-05-22 22:48:32			0	35550	0	0	0	22184	20790	142156	27402	988443	40140	108156	0	0	8193	666801	0	0
2024-05-22 22:49:32			0	35545	0	0	0	22181	20800	142116	27341	988460	40140	108155	0	0	8192	666988	0	0
2024-05-22 22:50:32			0	35560	0	0	0	22186	20790	142252	27447	988443	40129	108157	0	0	8193	666354	0	0
2024-05-22 22:51:32			0	35546	0	0	0	22184	20790	142240	27566	988451	40129	108156	0	0	8192	666980	0	0
2024-05-22 22:52:32			0	35529	0	0	0	22194	20790	142184	27242	988416	40140	108160	0	0	8191	667741	0	0
2024-05-22 22:53:32			0	35541	0	0	0	22189	20790	142252	27317	988416	40140	108158	0	0	8192	667204	0	0
2024-05-22 22:54:32			0	35538	0	0	0	22189	20780	142292	27118	988426	40127	108158	0	0	8192	667375	0	0
2024-05-22 22:55:32			0	35543	0	0	0	22194	20780	142264	26967	988408	40128	108160	0	0	8192	667151	0	0
2024-05-22 22:56:32			0	35560	0	0	0	22199	20790	142112	26764	988451	40140	108162	0	0	8193	666354	0	0
2024-05-22 22:57:32			0	35587	0	0	0	22207	20800	142208	27173	988407	40140	108165	0	0	8194	665111	0	0
2024-05-22 22:58:32			0	35586	0	0	0	22202	20800	142068	27012	988486	40151	108163	0	0	8194	665155	0	0
2024-05-22 22:59:32			0	35590	0	0	0	22202	20780	142008	27204	988488	40139	108163	0	0	8194	665050	0	0
2024-05-22 23:00:32			0	35578	0	0	0	22197	20800	141968	27081	988513	40140	108161	0	0	8194	665513	0	0
2024-05-22 23:01:32			0	35594	0	0	0	22202	20800	142032	27279	988460	40129	108163	0	0	8195	664798	0	0
2024-05-22 23:02:32			0	35586	0	0	0	22192	20790	142000	26767	988443	40140	108159	0	0	8194	665192	0	0
2024-05-22 23:03:32			0	35591	0	0	0	22184	20790	142036	27403	988496	40140	108156	0	0	8195	664969	0	0
2024-05-22 23:04:32			0	35597	0	0	0	22186	20790	142052	27467	988505	40151	108157	0	0	8195	664701	0	0
2024-05-22 23:05:32			0	35578	0	0	0	22179	20770	142060	27140	988498	40138	108154	0	0	8194	665623	0	0
2024-05-22 23:06:32			0	35546	0	0	0	22186	20790	142156	27074	988470	40151	108157	0	0	8192	666980	0	0
2024-05-22 23:07:32			0	35567	0	0	0	22197	20790	142180	27305	988496	40151	108161	0	0	8193	666041	0	0
2024-05-22 23:08:32			0	35584	0	0	0	22192	20800	142096	27265	988433	40129	108159	0	0	8194	665245	0	0
2024-05-22 23:09:32			0	35591	0	0	0	22192	20790	142116	27371	988443	40129	108159	0	0	8195	664969	0	0
2024-05-22 23:10:32			0	35590	0	0	0	22184	20780	142124	27116	988435	40150	108156	0	0	8195	665050	0	0
2024-05-22 23:11:32			0	35598	0	0	0	22174	20790	142024	27360	988390	40151	108152	0	0	8195	664656	0	0
2024-05-22 23:12:32			0	35603	0	0	0	22174	20780	142112	27277	988381	40139	108152	0	0	8196	664470	0	0
2024-05-22 23:13:32			0	35572	0	0	0	22179	20790	142148	26977	988416	40129	108154	0	0	8194	665818	0	0
2024-05-22 23:14:32			0	35546	0	0	0	22184	20780	142248	27128	988347	40127	108156	0	0	8192	667017	0	0
2024-05-22 23:15:32			0	35538	0	0	0	22161	20770	142284	27383	988391	40138	108147	0	0	8192	667412	0	0
2024-05-22 23:16:32			0	35531	0	0	0	22155	20770	142264	27149	988330	40127	108145	0	0	8192	667725	0	0
2024-05-22 23:17:32			0	35528	0	0	0	22148	20770	142372	27126	988356	40127	108142	0	0	8192	667860	0	0
2024-05-22 23:18:32			0	35502	0	0	0	22142	20770	142424	27279	988303	40138	108140	0	0	8191	669025	0	0
2024-05-22 23:19:32			0	35452	0	0	0	22122	20760	142604	27433	988313	40137	108132	0	0	8188	671307	0	0
2024-05-22 23:20:32			0	35398	0	0	0	22122	20760	142844	27305	988242	40137	108132	0	0	8185	673738	0	0
2024-05-22 23:21:32			0	35355	0	0	0	22122	20770	143048	27324	988223	40127	108132	0	0	8183	675641	0	0
2024-05-22 23:22:32			0	35291	0	0	0	22116	20750	143228	27114	988217	40136	108130	0	0	8179	678611	0	0
2024-05-22 23:23:32			0	35254	0	0	0	22132	20750	143448	27078	988217	40136	108136	0	0	8177	680289	0	0
2024-05-22 23:24:32			0	35226	0	0	0	22129	20740	143732	27490	988182	40136	108135	0	0	8176	681599	0	0
2024-05-22 23:25:32			0	35210	0	0	0	22124	20730	143680	27319	988191	40146	108133	0	0	8175	682364	0	0
2024-05-22 23:26:32			0	35192	0	0	0	22129	20740	143652	27230	988261	40136	108135	0	0	8174	683146	0	0
2024-05-22 23:27:32			0	35192	0	0	0	22132	20730	143700	27393	988165	40125	108136	0	0	8174	683184	0	0
2024-05-22 23:28:32			0	35179	0	0	0	22132	20730	143796	27364	988165	40135	108136	0	0	8173	683776	0	0
2024-05-22 23:29:32			0	35156	0	0	0	22132	20740	143896	27092	988173	40135	108136	0	0	8172	684787	0	0
2024-05-22 23:30:32			0	35151	0	0	0	22132	20730	143916	27512	988156	40134	108136	0	0	8171	685053	0	0
2024-05-22 23:31:32			0	35147	0	0	0	22142	20730	143924	27248	988183	40134	108140	0	0	8171	685235	0	0
2024-05-22 23:32:32			0	35132	0	0	0	22140	20740	144000	27010	988200	40125	108139	0	0	8170	685882	0	0
2024-05-22 23:33:32			0	35173	0	0	0	22142	20730	143832	27177	988183	40145	108140	0	0	8172	684049	0	0
2024-05-22 23:34:32			0	35195	0	0	0	22132	20740	143808	26986	988200	40135	108136	0	0	8174	683009	0	0
2024-05-22 23:35:32			0	35224	0	0	0	22129	20730	143680	27161	988191	40135	108135	0	0	8175	681728	0	0
2024-05-22 23:36:32			0	35207	0	0	0	22127	20740	143664	27371	988226	40135	108134	0	0	8175	682463	0	0
2024-05-22 23:37:32			0	35214	0	0	0	22132	20730	143664	27156	988210	40134	108136	0	0	8175	682182	0	0
2024-05-22 23:38:32			0	35187	0	0	0	22124	20740	143800	27358	988200	40125	108133	0	0	8174	683373	0	0
2024-05-22 23:39:32			0	35169	0	0	0	22122	20730	143864	27246	988138	40135	108132	0	0	8173	684232	0	0
2024-05-22 23:40:32			0	35135	0	0	0	22132	20730	143872	27196	988130	40124	108136	0	0	8171	685783	0	0
2024-05-22 23:41:32			0	35124	0	0	0	22127	20730	144040	27059	988191	40135	108134	0	0	8170	686286	0	0
2024-05-22 23:42:32			0	35123	0	0	0	22124	20730	144100	27409	988183	40124	108133	0	0	8170	686331	0	0
2024-05-22 23:43:32			0	35115	0	0	0	22137	20730	144160	27281	988165	40135	108138	0	0	8169	686697	0	0
2024-05-22 23:44:32			0	35120	0	0	0	22116	20730	144136	27135	988218	40135	108130	0	0	8170	686469	0	0
2024-05-22 23:45:32			0	35108	0	0	0	22114	20730	144179	27256	988165	40125	108129	0	0	8169	687017	0	0
2024-05-22 23:46:32			0	35089	0	0	0	22119	20730	144227	27175	988165	40157	108131	0	0	8168	687886	0	0
2024-05-22 23:47:32			0	35092	0	0	0	22116	20730	144199	27332	988103	40134	108130	0	0	8168	687749	0	0
2024-05-22 23:48:32			0	35102	0	0	0	22101	20730	144159	27066	988103	40134	108124	0	0	8169	687292	0	0
2024-05-22 23:49:32			0	35091	0	0	0	22109	20730	144279	27241	988183	40134	108127	0	0	8168	687795	0	0
2024-05-22 23:50:32			0	35074	0	0	0	22114	20720	144251	27474	988095	40134	108129	0	0	8167	688611	0	0
2024-05-22 23:51:32			0	35109	0	0	0	22119	20720	144123	27260	988122	40134	108131	0	0	8169	687009	0	0
2024-05-22 23:52:32			0	35104	0	0	0	22119	20720	144199	27300	988122	40134	108131	0	0	8169	687238	0	0
2024-05-22 23:53:32			0	35093	0	0	0	22114	20710	144291	27545	988105	40122	108129	0	0	8168	687780	0	0
2024-05-22 23:54:32			0	35074	0	0	0	22119	20720	144267	27440	988113	40123	108131	0	0	8167	688611	0	0
2024-05-22 23:55:32			0	35052	0	0	0	22122	20730	144223	27326	988156	40134	108132	0	0	8166	689582	0	0
2024-05-22 23:56:32			0	35048	0	0	0	22129	20720	144371	27384	988087	40144	108135	0	0	8166	689803	0	0
2024-05-22 23:57:32			0	35063	0	0	0	22135	20720	144375	27453	988148	40134	108137	0	0	8166	689116	0	0
2024-05-22 23:58:32			0	35057	0	0	0	22132	20710	144411	27403	988158	40132	108136	0	0	8166	689429	0	0
2024-05-22 23:59:32			0	35048	0	0	0	22145	20720	144255	27190	988193	40144	108141	0	0	8165	689803	0	0
2024-05-23 00:00:32			0	35060	0	0	0	22150	20720	144271	27454	988228	40145	108143	0	0	8166	689253	0	0
2024-05-23 00:01:32			0	35083	0	0	0	22142	20720	144247	27140	988140	40144	108140	0	0	8167	688199	0	0
2024-05-23 00:02:32			0	35090	0	0	0	22122	20730	144191	27041	988156	40134	108132	0	0	8168	687841	0	0
2024-05-23 00:03:32			0	35135	0	0	0	22129	20720	144048	27396	988254	40134	108135	0	0	8171	685821	0	0
2024-05-23 00:04:32			0	35189	0	0	0	22137	20720	143808	27197	988201	40124	108138	0	0	8173	683358	0	0
2024-05-23 00:05:32			0	35249	0	0	0	22135	20730	143524	27105	988210	40134	108137	0	0	8177	680591	0	0
2024-05-23 00:06:32			0	35346	0	0	0	22127	20730	143184	27105	988218	40146	108134	0	0	8182	676197	0	0
2024-05-23 00:07:32			0	35388	0	0	0	22129	20730	143068	26904	988183	40134	108135	0	0	8184	674301	0	0
2024-05-23 00:08:32			0	35430	0	0	0	22124	20720	142828	27178	988201	40124	108133	0	0	8187	672445	0	0
2024-05-23 00:09:32			0	35456	0	0	0	22124	20730	142740	27156	988156	40145	108133	0	0	8188	671239	0	0
2024-05-23 00:10:32			0	35476	0	0	0	22119	20730	142712	27229	988156	40134	108131	0	0	8189	670340	0	0
2024-05-23 00:11:32			0	35485	0	0	0	22124	20710	142632	27396	988105	40122	108133	0	0	8190	670010	0	0
2024-05-23 00:12:32			0	35523	0	0	0	22124	20720	142540	27336	988148	40134	108133	0	0	8192	668269	0	0
2024-05-23 00:13:32			0	35543	0	0	0	22111	20720	142416	27048	988148	40145	108128	0	0	8193	667373	0	0
2024-05-23 00:14:32			0	35563	0	0	0	22129	20720	142284	27291	988122	40124	108135	0	0	8194	666478	0	0
2024-05-23 00:15:32			0	35607	0	0	0	22124	20720	142212	27251	988122	40145	108133	0	0	8196	664512	0	0
2024-05-23 00:16:32			0	35641	0	0	0	22129	20720	141988	27301	988122	40124	108135	0	0	8198	662996	0	0
2024-05-23 00:17:32			0	35655	0	0	0	22129	20720	141928	27173	988087	40133	108135	0	0	8199	662373	0	0
2024-05-23 00:18:32			0	35672	0	0	0	22124	20720	141904	27343	988175	40124	108133	0	0	8200	661616	0	0
2024-05-23 00:19:32			0	35698	0	0	0	22129	20730	141840	27296	988156	40134	108135	0	0	8201	660424	0	0
2024-05-23 00:20:32			0	35716	0	0	0	22124	20720	141792	27112	988140	40133	108133	0	0	8202	659661	0	0
2024-05-23 00:21:32			0	35711	0	0	0	22137	20730	141648	27526	988130	40134	108138	0	0	8202	659847	0	0
2024-05-23 00:22:32			0	35740	0	0	0	22145	20720	141712	27511	988193	40144	108141	0	0	8203	658596	0	0
2024-05-23 00:23:32			0	35728	0	0	0	22140	20720	141644	27450	988166	40133	108139	0	0	8203	659129	0	0
2024-05-23 00:24:32			0	35761	0	0	0	22129	20730	141648	27263	988236	40134	108135	0	0	8205	657629	0	0
2024-05-23 00:25:32			0	35756	0	0	0	22129	20730	141572	27448	988210	40145	108135	0	0	8204	657851	0	0
2024-05-23 00:26:32			0	35752	0	0	0	22114	20720	141520	27556	988201	40134	108129	0	0	8204	658064	0	0
2024-05-23 00:27:32			0	35739	0	0	0	22111	20720	141628	27090	988148	40134	108128	0	0	8204	658641	0	0
2024-05-23 00:28:32			0	35694	0	0	0	22109	20720	141672	27235	988113	40133	108127	0	0	8201	660638	0	0
2024-05-23 00:29:32			0	35677	0	0	0	22103	20720	141788	27124	988166	40144	108125	0	0	8200	661394	0	0
2024-05-23 00:30:32			0	35658	0	0	0	22111	20720	141840	27597	988148	40145	108128	0	0	8199	662239	0	0
2024-05-23 00:31:32			0	35651	0	0	0	22111	20730	141924	27196	988130	40134	108128	0	0	8199	662514	0	0
2024-05-23 00:32:32			0	35644	0	0	0	22103	20720	142080	27531	988113	40133	108125	0	0	8199	662863	0	0
2024-05-23 00:33:32			0	35637	0	0	0	22103	20720	142032	27505	988060	40133	108125	0	0	8198	663174	0	0
2024-05-23 00:34:32			0	35614	0	0	0	22116	20710	142040	27275	988052	40122	108130	0	0	8197	664237	0	0
2024-05-23 00:35:32			0	35633	0	0	0	22111	20710	142160	27372	988070	40132	108128	0	0	8198	663390	0	0
2024-05-23 00:36:32			0	35623	0	0	0	22114	20720	142076	27192	988060	40156	108129	0	0	8197	663799	0	0
2024-05-23 00:37:32			0	35628	0	0	0	22114	20710	142060	27324	988158	40122	108129	0	0	8198	663613	0	0
2024-05-23 00:38:32			0	35615	0	0	0	22106	20710	142092	27183	988016	40132	108126	0	0	8197	664192	0	0
2024-05-23 00:39:32			0	35609	0	0	0	22114	20700	142108	27438	988088	40132	108129	0	0	8197	664497	0	0
2024-05-23 00:40:32			0	35600	0	0	0	22103	20710	142268	27338	988105	40132	108125	0	0	8196	664862	0	0
2024-05-23 00:41:32			0	35589	0	0	0	22101	20710	142208	27498	988105	40132	108124	0	0	8196	665353	0	0
2024-05-23 00:42:32			0	35582	0	0	0	22114	20720	142340	27258	988140	40144	108129	0	0	8195	665629	0	0
2024-05-23 00:43:32			0	35556	0	0	0	22103	20710	142300	27592	988096	40143	108125	0	0	8194	666828	0	0
2024-05-23 00:44:32			0	35542	0	0	0	22103	20710	142320	27204	988016	40132	108125	0	0	8193	667455	0	0
2024-05-23 00:45:32			0	35546	0	0	0	22111	20700	142276	27502	988114	40143	108128	0	0	8193	667312	0	0
2024-05-23 00:46:32			0	35548	0	0	0	22109	20700	142312	26996	988088	40143	108127	0	0	8193	667223	0	0
2024-05-23 00:47:32			0	35554	0	0	0	22096	20710	142316	27409	988158	40132	108122	0	0	8194	666917	0	0
2024-05-23 00:48:32			0	35556	0	0	0	22101	20700	142356	27013	988061	40132	108124	0	0	8194	666865	0	0
2024-05-23 00:49:32			0	35539	0	0	0	22106	20700	142368	27248	988114	40132	108126	0	0	8193	667626	0	0
2024-05-23 00:50:32			0	35556	0	0	0	22098	20700	142400	27124	988061	40143	108123	0	0	8194	666865	0	0
2024-05-23 00:51:32			0	35555	0	0	0	22096	20710	142432	27362	988096	40111	108122	0	0	8194	666873	0	0
2024-05-23 00:52:32			0	35516	0	0	0	22103	20710	142564	27185	988131	40132	108125	0	0	8192	668619	0	0
2024-05-23 00:53:32			0	35528	0	0	0	22101	20700	142432	27312	988061	40132	108124	0	0	8192	668119	0	0
2024-05-23 00:54:32			0	35506	0	0	0	22101	20700	142472	27079	988079	40131	108124	0	0	8191	669105	0	0
2024-05-23 00:55:32			0	35501	0	0	0	22103	20690	142520	27067	988116	40130	108125	0	0	8191	669366	0	0
2024-05-23 00:56:32			0	35500	0	0	0	22103	20710	142464	27537	988123	40155	108125	0	0	8191	669337	0	0
2024-05-23 00:57:32			0	35509	0	0	0	22103	20690	142536	27325	988018	40130	108125	0	0	8191	669007	0	0
2024-05-23 00:58:32			0	35522	0	0	0	22103	20710	142576	27357	988096	40122	108125	0	0	8192	668350	0	0
2024-05-23 00:59:32			0	35524	0	0	0	22101	20710	142588	27279	988131	40132	108124	0	0	8192	668261	0	0
2024-05-23 01:00:32			0	35528	0	0	0	22093	20710	142540	27376	988070	40143	108121	0	0	8193	668081	0	0
2024-05-23 01:01:32			0	35503	0	0	0	22101	20700	142528	27194	988061	40122	108124	0	0	8191	669239	0	0
2024-05-23 01:02:32			0	35525	0	0	0	22098	20700	142628	27277	988088	40122	108123	0	0	8192	668253	0	0
2024-05-23 01:03:32			0	35520	0	0	0	22101	20710	142476	26972	988096	40132	108124	0	0	8192	668440	0	0
2024-05-23 01:04:32			0	35531	0	0	0	22096	20710	142452	27163	988123	40132	108122	0	0	8193	667947	0	0
2024-05-23 01:05:32			0	35536	0	0	0	22103	20700	142440	27303	988026	40121	108125	0	0	8193	667760	0	0
2024-05-23 01:06:32			0	35550	0	0	0	22096	20700	142292	27279	988106	40131	108122	0	0	8194	667133	0	0
2024-05-23 01:07:32			0	35582	0	0	0	22098	20700	142424	27043	988061	40122	108123	0	0	8195	665702	0	0
2024-05-23 01:08:32			0	35592	0	0	0	22093	20700	142288	27244	988079	40131	108121	0	0	8196	665256	0	0
2024-05-23 01:09:32			0	35571	0	0	0	22096	20700	142296	27500	988035	40143	108122	0	0	8195	666194	0	0
2024-05-23 01:10:32			0	35582	0	0	0	22098	20690	142416	27258	988018	40120	108123	0	0	8195	665739	0	0
2024-05-23 01:11:32			0	35549	0	0	0	22098	20700	142364	27192	988026	40121	108123	0	0	8194	667178	0	0
2024-05-23 01:12:32			0	35562	0	0	0	22088	20690	142408	27383	988009	40130	108119	0	0	8194	666633	0	0
2024-05-23 01:13:32			0	35560	0	0	0	22085	20690	142292	27485	987991	40130	108118	0	0	8194	666723	0	0
2024-05-23 01:14:32			0	35567	0	0	0	22083	20690	142368	27462	988044	40130	108117	0	0	8195	666410	0	0
2024-05-23 01:15:32			0	35567	0	0	0	22090	20700	142384	27512	988026	40143	108120	0	0	8195	666373	0	0
2024-05-23 01:16:32			0	35561	0	0	0	22080	20700	142356	27549	988079	40143	108116	0	0	8194	666641	0	0
2024-05-23 01:17:32			0	35566	0	0	0	22083	20690	142404	27201	988044	40142	108117	0	0	8195	666454	0	0
2024-05-23 01:18:32			0	35542	0	0	0	22080	20690	142360	27499	988009	40142	108116	0	0	8193	667528	0	0
2024-05-23 01:19:32			0	35542	0	0	0	22075	20690	142440	27126	988018	40130	108114	0	0	8194	667528	0	0
2024-05-23 01:20:32			0	35534	0	0	0	22070	20690	142612	27220	987983	40130	108112	0	0	8193	667887	0	0
2024-05-23 01:21:32			0	35519	0	0	0	22075	20680	142528	27355	987948	40130	108114	0	0	8192	668596	0	0
2024-05-23 01:22:32			0	35493	0	0	0	22075	20690	142604	27213	988036	40120	108114	0	0	8191	669725	0	0
2024-05-23 01:23:32			0	35488	0	0	0	22062	20680	142624	27173	988001	40130	108109	0	0	8191	669987	0	0
2024-05-23 01:24:32			0	35484	0	0	0	22067	20680	142684	27447	987966	40130	108111	0	0	8190	670166	0	0
2024-05-23 01:25:32			0	35457	0	0	0	22067	20680	142784	27294	987975	40130	108111	0	0	8189	671379	0	0
2024-05-23 01:26:32			0	35475	0	0	0	22070	20670	142732	27369	987949	40107	108112	0	0	8190	670608	0	0
2024-05-23 01:27:32			0	35468	0	0	0	22085	20680	142796	27312	987975	40130	108118	0	0	8189	670885	0	0
2024-05-23 01:28:32			0	35452	0	0	0	22090	20680	142720	27019	987975	40130	108120	0	0	8188	671604	0	0
2024-05-23 01:29:32			0	35448	0	0	0	22085	20670	142864	27350	987976	40129	108118	0	0	8188	671821	0	0
2024-05-23 01:30:32			0	35413	0	0	0	22083	20670	142940	27393	987976	40118	108117	0	0	8186	673397	0	0
2024-05-23 01:31:32			0	35402	0	0	0	22054	20660	142988	27528	987941	40128	108106	0	0	8186	673930	0	0
2024-05-23 01:32:32			0	35378	0	0	0	22038	20670	143048	26920	987931	40129	108100	0	0	8185	674976	0	0
2024-05-23 01:33:32			0	35346	0	0	0	22041	20670	143092	27500	987896	40140	108101	0	0	8183	676421	0	0
2024-05-23 01:34:32			0	35323	0	0	0	22064	20670	143220	27441	987870	40118	108110	0	0	8182	677462	0	0
2024-05-23 01:35:32			0	35322	0	0	0	22067	20670	143216	27495	987896	40129	108111	0	0	8182	677507	0	0
2024-05-23 01:36:32			0	35314	0	0	0	22072	20660	143336	27249	987853	40128	108113	0	0	8181	677907	0	0
2024-05-23 01:37:32			0	35307	0	0	0	22080	20670	143364	27268	987896	40140	108116	0	0	8181	678186	0	0
2024-05-23 01:38:32			0	35295	0	0	0	22070	20650	143396	27194	987898	40138	108112	0	0	8180	678805	0	0
2024-05-23 01:39:32			0	35286	0	0	0	22044	20660	143508	27180	987915	40128	108102	0	0	8180	679176	0	0
2024-05-23 01:40:32			0	35279	0	0	0	22036	20650	143496	27573	987791	40127	108099	0	0	8180	679531	0	0
2024-05-23 01:41:32			0	35280	0	0	0	22044	20650	143540	27279	987818	40127	108102	0	0	8180	679486	0	0
2024-05-23 01:42:32			0	35260	0	0	0	22044	20660	143492	27346	987826	40139	108102	0	0	8179	680356	0	0
2024-05-23 01:43:32			0	35280	0	0	0	22041	20650	143488	27154	987783	40127	108101	0	0	8180	679486	0	0
2024-05-23 01:44:32			0	35296	0	0	0	22072	20650	143372	27407	987818	40138	108113	0	0	8180	678760	0	0
2024-05-23 01:45:32			0	35300	0	0	0	22070	20650	143440	26955	987863	40127	108112	0	0	8180	678579	0	0
2024-05-23 01:46:32			0	35321	0	0	0	22088	20650	143340	27140	987791	40138	108119	0	0	8181	677627	0	0
2024-05-23 01:47:32			0	35316	0	0	0	22064	20650	143328	26965	987836	40127	108110	0	0	8181	677854	0	0
2024-05-23 01:48:32			0	35311	0	0	0	22051	20650	143376	27332	987863	40127	108105	0	0	8181	678080	0	0
2024-05-23 01:49:32			0	35324	0	0	0	22038	20640	143388	27390	987775	40137	108100	0	0	8182	677529	0	0
2024-05-23 01:50:32			0	35321	0	0	0	22015	20640	143276	27081	987801	40126	108091	0	0	8182	677665	0	0
2024-05-23 01:51:32			0	35317	0	0	0	22038	20630	143352	26923	987758	40125	108100	0	0	8182	677883	0	0
2024-05-23 01:52:32			0	35319	0	0	0	22015	20640	143408	27504	987713	40125	108091	0	0	8182	677755	0	0
2024-05-23 01:53:32			0	35300	0	0	0	22010	20630	143468	27471	987705	40125	108089	0	0	8181	678654	0	0
2024-05-23 01:54:32			0	35305	0	0	0	21999	20630	143476	27417	987652	40125	108085	0	0	8182	678427	0	0
2024-05-23 01:55:32			0	35287	0	0	0	22002	20620	143512	27270	987653	40124	108086	0	0	8181	679281	0	0
2024-05-23 01:56:32			0	35283	0	0	0	22041	20620	143592	27568	987680	40146	108101	0	0	8180	679462	0	0
2024-05-23 01:57:32			0	35252	0	0	0	22041	20610	143636	27338	987751	40124	108101	0	0	8178	680907	0	0
2024-05-23 01:58:32			0	35253	0	0	0	22025	20620	143728	27180	987733	40124	108095	0	0	8178	680824	0	0
2024-05-23 01:59:32			0	35252	0	0	0	22005	20620	143620	27286	987688	40125	108087	0	0	8179	680870	0	0
2024-05-23 02:00:32			0	35240	0	0	0	21989	20620	143724	27518	987680	40113	108081	0	0	8178	681415	0	0
2024-05-23 02:01:32			0	35246	0	0	0	21992	20610	143632	27300	987671	40135	108082	0	0	8178	681180	0	0
2024-05-23 02:02:32			0	35245	0	0	0	21997	20620	143720	27223	987733	40113	108084	0	0	8178	681188	0	0
2024-05-23 02:03:32			0	35260	0	0	0	21999	20610	143692	27279	987610	40124	108085	0	0	8179	680544	0	0
2024-05-23 02:04:32			0	35253	0	0	0	22044	20600	143680	27242	987628	40145	108102	0	0	8178	680900	0	0
2024-05-23 02:05:32			0	35262	0	0	0	22072	20610	143744	27255	987671	40113	108113	0	0	8178	680453	0	0
2024-05-23 02:06:32			0	35271	0	0	0	22064	20610	143676	27467	987716	40145	108110	0	0	8179	680044	0	0
2024-05-23 02:07:32			0	35264	0	0	0	22051	20620	143672	27225	987759	40124	108105	0	0	8178	680325	0	0
2024-05-23 02:08:32			0	35257	0	0	0	22046	20630	143720	27395	987776	40136	108103	0	0	8178	680605	0	0
2024-05-23 02:09:32			0	35258	0	0	0	22041	20620	143680	27398	987759	40124	108101	0	0	8178	680597	0	0
2024-05-23 02:10:32			0	35255	0	0	0	22049	20620	143720	27341	987786	40135	108104	0	0	8178	680733	0	0
2024-05-23 02:11:32			0	35262	0	0	0	22070	20620	143772	27222	987759	40135	108112	0	0	8178	680415	0	0
2024-05-23 02:12:32			0	35247	0	0	0	22049	20620	143788	27326	987786	40124	108104	0	0	8178	681097	0	0
2024-05-23 02:13:32			0	35234	0	0	0	22033	20630	143764	27241	987803	40136	108098	0	0	8177	681650	0	0
2024-05-23 02:14:32			0	35234	0	0	0	22028	20630	143792	27350	987750	40136	108096	0	0	8177	681650	0	0
2024-05-23 02:15:32			0	35243	0	0	0	21999	20620	143752	27516	987680	40124	108085	0	0	8178	681279	0	0
2024-05-23 02:16:32			0	35233	0	0	0	22028	20620	143868	27313	987635	40114	108096	0	0	8177	681733	0	0
2024-05-23 02:17:32			0	35222	0	0	0	22005	20620	143904	27360	987733	40135	108087	0	0	8177	682234	0	0
2024-05-23 02:18:32			0	35188	0	0	0	21999	20610	143924	27431	987645	40113	108085	0	0	8175	683820	0	0
2024-05-23 02:19:32			0	35178	0	0	0	21994	20610	143996	27353	987645	40124	108083	0	0	8175	684276	0	0
2024-05-23 02:20:32			0	35151	0	0	0	21971	20620	144140	27192	987662	40136	108074	0	0	8174	685470	0	0
2024-05-23 02:21:32			0	35146	0	0	0	21945	20610	144124	27225	987557	40112	108064	0	0	8174	685736	0	0
2024-05-23 02:22:32			0	35114	0	0	0	21940	20610	144207	27566	987557	40134	108062	0	0	8172	687199	0	0
2024-05-23 02:23:32			0	35070	0	0	0	21953	20590	144347	27685	987496	40111	108067	0	0	8169	689290	0	0
2024-05-23 02:24:32			0	35017	0	0	0	21948	20600	144583	27459	987460	40123	108065	0	0	8167	691686	0	0
2024-05-23 02:25:32			0	34987	0	0	0	21937	20590	144707	27628	987443	40122	108061	0	0	8165	693104	0	0
2024-05-23 02:26:32			0	35005	0	0	0	21940	20580	144751	27320	987453	40121	108062	0	0	8166	692314	0	0
2024-05-23 02:27:32			0	34958	0	0	0	21953	20570	144811	27362	987418	40130	108067	0	0	8163	694517	0	0
2024-05-23 02:28:32			0	34950	0	0	0	21961	20570	144875	27242	987489	40130	108070	0	0	8163	694886	0	0
2024-05-23 02:29:32			0	34928	0	0	0	21968	20580	144903	27218	987480	40131	108073	0	0	8161	695863	0	0
2024-05-23 02:30:32			0	34898	0	0	0	21981	20570	145015	27393	987498	40120	108078	0	0	8159	697288	0	0
2024-05-23 02:31:32			0	34896	0	0	0	21992	20580	145179	27396	987515	40122	108082	0	0	8159	697342	0	0
2024-05-23 02:32:32			0	34859	0	0	0	21997	20580	145263	27310	987594	40122	108084	0	0	8157	699055	0	0
2024-05-23 02:33:32			0	34871	0	0	0	22002	20580	145331	27234	987488	40122	108086	0	0	8157	698499	0	0
2024-05-23 02:34:32			0	34838	0	0	0	22010	20570	145367	27504	987498	40120	108089	0	0	8155	700068	0	0
2024-05-23 02:35:32			0	34822	0	0	0	22018	20580	145367	27166	987533	40121	108092	0	0	8155	700772	0	0
2024-05-23 02:36:32			0	34825	0	0	0	22015	20580	145339	27055	987533	40121	108091	0	0	8155	700632	0	0
2024-05-23 02:37:32			0	34847	0	0	0	22007	20580	145447	26984	987453	40121	108088	0	0	8156	699612	0	0
2024-05-23 02:38:32			0	34827	0	0	0	21986	20580	145447	27144	987568	40132	108080	0	0	8155	700540	0	0
2024-05-23 02:39:32			0	34847	0	0	0	21955	20580	145327	27235	987480	40121	108068	0	0	8157	699612	0	0
2024-05-23 02:40:32			0	34828	0	0	0	21958	20570	145483	27211	987471	40120	108069	0	0	8156	700532	0	0
2024-05-23 02:41:32			0	34818	0	0	0	21955	20570	145431	27232	987445	40109	108068	0	0	8155	700996	0	0
2024-05-23 02:42:32			0	34795	0	0	0	21955	20570	145523	27334	987436	40130	108068	0	0	8154	702065	0	0
2024-05-23 02:43:32			0	34765	0	0	0	21961	20560	145567	27428	987428	40120	108070	0	0	8152	703500	0	0
2024-05-23 02:44:32			0	34753	0	0	0	21958	20560	145759	27405	987455	40130	108069	0	0	8152	704059	0	0
2024-05-23 02:45:32			0	34751	0	0	0	21950	20560	145763	27111	987393	40119	108066	0	0	8152	704152	0	0
2024-05-23 02:46:32			0	34746	0	0	0	21963	20560	145763	27211	987366	40129	108071	0	0	8151	704385	0	0
2024-05-23 02:47:32			0	34758	0	0	0	21940	20560	145767	27189	987446	40119	108062	0	0	8152	703826	0	0
2024-05-23 02:48:32			0	34752	0	0	0	21942	20560	145775	27175	987393	40129	108063	0	0	8152	704105	0	0
2024-05-23 02:49:32			0	34744	0	0	0	21950	20560	145771	27196	987366	40108	108066	0	0	8151	704478	0	0
2024-05-23 02:50:32			0	34760	0	0	0	21935	20560	145795	27119	987366	40108	108060	0	0	8152	703733	0	0
2024-05-23 02:51:32			0	34790	0	0	0	21961	20550	145807	27192	987403	40129	108070	0	0	8154	702375	0	0
2024-05-23 02:52:32			0	34785	0	0	0	21945	20550	145651	27457	987358	40118	108064	0	0	8154	702608	0	0
2024-05-23 02:53:32			0	34804	0	0	0	21940	20550	145571	27258	987403	40118	108062	0	0	8155	701724	0	0
2024-05-23 02:54:32			0	34825	0	0	0	21903	20550	145475	27627	987376	40129	108048	0	0	8156	700749	0	0
2024-05-23 02:55:32			0	34847	0	0	0	21903	20540	145359	27376	987315	40118	108048	0	0	8158	699766	0	0
2024-05-23 02:56:32			0	34861	0	0	0	21909	20540	145267	27594	987288	40129	108050	0	0	8158	699117	0	0
2024-05-23 02:57:32			0	34867	0	0	0	21942	20530	145227	27369	987306	40106	108063	0	0	8158	698878	0	0
2024-05-23 02:58:32			0	34878	0	0	0	21992	20520	145347	27369	987316	40127	108082	0	0	8158	698407	0	0
2024-05-23 02:59:32			0	34885	0	0	0	22007	20530	145239	27177	987218	40117	108088	0	0	8158	698044	0	0
2024-05-23 03:00:32			0	34867	0	0	0	21992	20530	145243	27107	987360	40128	108082	0	0	8157	698878	0	0
2024-05-23 03:01:32			0	34879	0	0	0	21989	20530	145255	27059	987386	40106	108081	0	0	8158	698322	0	0
2024-05-23 03:02:32			0	34892	0	0	0	21997	20540	145235	27369	987395	40129	108084	0	0	8159	697682	0	0
2024-05-23 03:03:32			0	34910	0	0	0	22012	20530	145251	27355	987360	40117	108090	0	0	8159	696888	0	0
2024-05-23 03:04:32			0	34925	0	0	0	21986	20540	145019	27315	987448	40118	108080	0	0	8161	696156	0	0
2024-05-23 03:05:32			0	34953	0	0	0	21963	20530	145007	27320	987333	40128	108071	0	0	8162	694902	0	0
2024-05-23 03:06:32			0	34953	0	0	0	21989	20530	144883	27542	987360	40117	108081	0	0	8162	694902	0	0
2024-05-23 03:07:32			0	34982	0	0	0	21979	20530	144875	27601	987333	40139	108077	0	0	8164	693565	0	0
2024-05-23 03:08:32			0	34981	0	0	0	21981	20530	144855	27495	987325	40127	108078	0	0	8164	693611	0	0
2024-05-23 03:09:32			0	34982	0	0	0	21981	20540	144903	27521	987315	40129	108078	0	0	8164	693526	0	0
2024-05-23 03:10:32			0	34968	0	0	0	21986	20530	144883	27514	987360	40117	108080	0	0	8163	694210	0	0
2024-05-23 03:11:32			0	34978	0	0	0	21984	20540	144855	27133	987368	40129	108079	0	0	8164	693710	0	0
2024-05-23 03:12:32			0	34961	0	0	0	21958	20550	144915	27128	987403	40140	108069	0	0	8163	694456	0	0
2024-05-23 03:13:32			0	34966	0	0	0	21953	20530	144959	27371	987351	40117	108067	0	0	8163	694302	0	0
2024-05-23 03:14:32			0	34957	0	0	0	21929	20530	144887	27284	987306	40117	108058	0	0	8163	694717	0	0
2024-05-23 03:15:32			0	34963	0	0	0	21945	20530	144867	27369	987298	40117	108064	0	0	8163	694440	0	0
2024-05-23 03:16:32			0	34962	0	0	0	21919	20530	144947	27272	987298	40105	108054	0	0	8164	694486	0	0
2024-05-23 03:17:32			0	34959	0	0	0	21922	20520	144923	27078	987316	40117	108055	0	0	8163	694663	0	0
2024-05-23 03:18:32			0	34976	0	0	0	21909	20510	144883	27346	987300	40126	108050	0	0	8165	693918	0	0
2024-05-23 03:19:32			0	34976	0	0	0	21901	20520	144863	27331	987290	40117	108047	0	0	8165	693879	0	0
2024-05-23 03:20:32			0	34992	0	0	0	21893	20530	144815	27507	987245	40127	108044	0	0	8166	693104	0	0
2024-05-23 03:21:32			0	34986	0	0	0	21903	20520	144815	27209	987237	40117	108048	0	0	8165	693419	0	0
2024-05-23 03:22:32			0	34996	0	0	0	21898	20510	144707	27076	987273	40116	108046	0	0	8166	692996	0	0
2024-05-23 03:23:32			0	35004	0	0	0	21877	20510	144683	27196	987211	40104	108038	0	0	8167	692628	0	0
2024-05-23 03:24:32			0	34993	0	0	0	21909	20500	144767	26856	987203	40103	108050	0	0	8165	693173	0	0
2024-05-23 03:25:32			0	35011	0	0	0	21914	20510	144755	26824	987273	40104	108052	0	0	8166	692306	0	0
2024-05-23 03:26:32			0	35010	0	0	0	21922	20500	144695	27133	987203	40114	108055	0	0	8166	692390	0	0
2024-05-23 03:27:32			0	34989	0	0	0	21942	20510	144867	27020	987265	40125	108063	0	0	8165	693319	0	0
2024-05-23 03:28:32			0	34994	0	0	0	21932	20510	144875	27326	987238	40115	108059	0	0	8165	693089	0	0
2024-05-23 03:29:32			0	35005	0	0	0	21924	20510	144831	27144	987300	40126	108056	0	0	8166	692582	0	0
2024-05-23 03:30:32			0	34984	0	0	0	21935	20520	144687	27083	987308	40126	108060	0	0	8165	693511	0	0
2024-05-23 03:31:32			0	35002	0	0	0	21958	20510	144711	26916	987300	40126	108069	0	0	8165	692720	0	0
2024-05-23 03:32:32			0	35032	0	0	0	21958	20510	144699	27393	987273	40116	108069	0	0	8167	691340	0	0
2024-05-23 03:33:32			0	35052	0	0	0	21963	20510	144631	27194	987273	40116	108071	0	0	8168	690422	0	0
2024-05-23 03:34:32			0	35075	0	0	0	21914	20520	144563	27369	987308	40116	108052	0	0	8170	689328	0	0
2024-05-23 03:35:32			0	35096	0	0	0	21888	20520	144423	27351	987308	40116	108042	0	0	8172	688365	0	0
2024-05-23 03:36:32			0	35108	0	0	0	21875	20510	144268	27072	987246	40126	108037	0	0	8172	687854	0	0
2024-05-23 03:37:32			0	35099	0	0	0	21893	20510	144311	27422	987211	40115	108044	0	0	8172	688266	0	0
2024-05-23 03:38:32			0	35091	0	0	0	21872	20500	144259	27388	987230	40114	108036	0	0	8171	688671	0	0
2024-05-23 03:39:32			0	35089	0	0	0	21880	20500	144387	27026	987195	40114	108039	0	0	8171	688762	0	0
2024-05-23 03:40:32			0	35082	0	0	0	21888	20490	144479	27142	987178	40113	108042	0	0	8171	689121	0	0
2024-05-23 03:41:32			0	35094	0	0	0	21872	20500	144451	27086	987230	40103	108036	0	0	8172	688533	0	0
2024-05-23 03:42:32			0	35104	0	0	0	21872	20490	144339	27393	987133	40114	108036	0	0	8172	688113	0	0
2024-05-23 03:43:32			0	35101	0	0	0	21872	20490	144359	27239	987151	40113	108036	0	0	8172	688250	0	0
2024-05-23 03:44:32			0	35101	0	0	0	21872	20490	144271	27225	987160	40114	108036	0	0	8172	688250	0	0
2024-05-23 03:45:32			0	35095	0	0	0	21953	20490	144367	27343	987178	40124	108067	0	0	8170	688525	0	0
2024-05-23 03:46:32			0	35094	0	0	0	21901	20490	144379	27216	987231	40124	108047	0	0	8171	688571	0	0
2024-05-23 03:47:32			0	35086	0	0	0	21916	20500	144455	26942	987256	40125	108053	0	0	8170	688900	0	0
2024-05-23 03:48:32			0	35066	0	0	0	21958	20500	144439	27024	987221	40125	108069	0	0	8169	689817	0	0
2024-05-23 03:49:32			0	35069	0	0	0	21984	20500	144495	26948	987256	40114	108079	0	0	8168	689679	0	0
2024-05-23 03:50:32			0	35049	0	0	0	21997	20510	144623	26982	987344	40125	108084	0	0	8167	690559	0	0
2024-05-23 03:51:32			0	35038	0	0	0	22015	20510	144651	27168	987318	40136	108091	0	0	8166	691065	0	0
2024-05-23 03:52:32			0	35057	0	0	0	22010	20520	144555	27105	987467	40137	108089	0	0	8167	690154	0	0
2024-05-23 03:53:32			0	35063	0	0	0	21924	20520	144427	27107	987396	40117	108056	0	0	8169	689879	0	0
2024-05-23 03:54:32			0	35082	0	0	0	21872	20530	144307	27270	987325	40117	108036	0	0	8171	688969	0	0
2024-05-23 03:55:32			0	35082	0	0	0	21875	20520	144375	27519	987308	40116	108037	0	0	8171	689007	0	0
2024-05-23 03:56:32			0	35036	0	0	0	21851	20520	144563	27123	987281	40116	108028	0	0	8169	691118	0	0
2024-05-23 03:57:32			0	35044	0	0	0	21820	20520	144627	27258	987175	40104	108016	0	0	8170	690751	0	0
2024-05-23 03:58:32			0	34987	0	0	0	21802	20490	144787	27012	987107	40114	108009	0	0	8167	693488	0	0
2024-05-23 03:59:32			0	34942	0	0	0	21810	20490	144983	26963	987072	40113	108012	0	0	8164	695563	0	0
2024-05-23 04:00:32			0	34904	0	0	0	21844	20460	145175	26680	987030	40110	108025	0	0	8161	697435	0	0
2024-05-23 04:01:32			0	34855	0	0	0	21836	20480	145351	27272	987055	40112	108022	0	0	8159	699628	0	0
2024-05-23 04:02:32			0	34820	0	0	0	21815	20460	145447	27218	986977	40099	108014	0	0	8157	701330	0	0
2024-05-23 04:03:32			0	34825	0	0	0	21820	20470	145615	27015	986959	40100	108016	0	0	8158	701059	0	0
2024-05-23 04:04:32			0	34799	0	0	0	21799	20450	145699	26873	986986	40110	108008	0	0	8156	702345	0	0
2024-05-23 04:05:32			0	34800	0	0	0	21758	20450	145611	27182	986960	40110	107992	0	0	8157	702298	0	0
2024-05-23 04:06:32			0	34800	0	0	0	21638	20430	145639	27202	986900	40108	107946	0	0	8159	702376	0	0
2024-05-23 04:07:32			0	34813	0	0	0	21670	20440	145567	27128	986828	40097	107958	0	0	8159	701732	0	0
2024-05-23 04:08:32			0	34791	0	0	0	21748	20430	145547	26915	986865	40108	107988	0	0	8157	702795	0	0
2024-05-23 04:09:32			0	34816	0	0	0	21771	20430	145543	26928	986900	40097	107997	0	0	8158	701632	0	0
2024-05-23 04:10:32			0	34798	0	0	0	21818	20430	145623	26870	986891	40097	108015	0	0	8156	702469	0	0
2024-05-23 04:11:32			0	34793	0	0	0	21755	20430	145651	26993	986847	40108	107991	0	0	8157	702702	0	0
2024-05-23 04:12:32			0	34775	0	0	0	21670	20430	145667	26994	986900	40097	107958	0	0	8157	703539	0	0
2024-05-23 04:13:32			0	34780	0	0	0	21589	20430	145627	27189	986873	40097	107927	0	0	8159	703307	0	0
2024-05-23 04:14:32			0	34777	0	0	0	21488	20420	145599	26896	986715	40084	107888	0	0	8160	703485	0	0
2024-05-23 04:15:32			0	34750	0	0	0	21516	20400	145811	27351	986637	40072	107899	0	0	8158	704822	0	0
2024-05-23 04:16:32			0	34645	0	0	0	21464	20390	146083	27261	986452	40072	107879	0	0	8153	709771	0	0
2024-05-23 04:17:32			0	34520	0	0	0	21415	20380	146471	27064	986329	40070	107860	0	0	8147	715691	0	0
2024-05-23 04:18:32			0	34420	0	0	0	21418	20330	146983	26982	986201	40054	107861	0	0	8141	720621	0	0
2024-05-23 04:19:32			0	34348	0	0	0	21355	20300	147295	27209	986044	40041	107837	0	0	8138	724164	0	0
2024-05-23 04:20:32			0	34306	0	0	0	21311	20280	147534	27048	985931	40050	107820	0	0	8136	726247	0	0
2024-05-23 04:21:32			0	34254	0	0	0	21324	20260	147694	27138	985818	40038	107825	0	0	8133	728813	0	0
2024-05-23 04:22:32			0	34219	0	0	0	21233	20230	147866	27182	985768	40045	107790	0	0	8132	730611	0	0
2024-05-23 04:23:32			0	34209	0	0	0	21238	20220	147994	26911	985627	40034	107792	0	0	8132	731131	0	0
2024-05-23 04:24:32			0	34200	0	0	0	21244	20200	148034	27098	985665	40042	107794	0	0	8131	731643	0	0
2024-05-23 04:25:32			0	34178	0	0	0	21249	20180	148070	27390	985533	40041	107796	0	0	8130	732781	0	0
2024-05-23 04:26:32			0	34156	0	0	0	21316	20170	148210	27142	985543	40041	107822	0	0	8127	733880	0	0
2024-05-23 04:27:32			0	34125	0	0	0	21350	20160	148322	26838	985518	40039	107835	0	0	8125	735414	0	0
2024-05-23 04:28:32			0	34136	0	0	0	21353	20150	148402	27019	985634	40039	107836	0	0	8125	734924	0	0
2024-05-23 04:29:32			0	34123	0	0	0	21361	20140	148510	27216	985564	40048	107839	0	0	8124	735592	0	0
2024-05-23 04:30:32			0	34103	0	0	0	21402	20150	148518	26928	985661	40060	107855	0	0	8123	736516	0	0
2024-05-23 04:31:32			0	34112	0	0	0	21277	20150	148606	27272	985669	40039	107807	0	0	8125	736082	0	0
2024-05-23 04:32:32			0	34079	0	0	0	21249	20150	148642	27189	985616	40049	107796	0	0	8124	737675	0	0
2024-05-23 04:33:32			0	34052	0	0	0	21212	20140	148734	27005	985538	40048	107782	0	0	8123	739022	0	0
2024-05-23 04:34:32			0	34051	0	0	0	21176	20120	148870	27202	985380	40026	107768	0	0	8123	739152	0	0
2024-05-23 04:35:32			0	34033	0	0	0	21122	20100	148850	27279	985179	40023	107747	0	0	8123	740105	0	0
2024-05-23 04:36:32			0	34043	0	0	0	21119	20080	148774	27241	985047	40000	107746	0	0	8124	739703	0	0
2024-05-23 04:37:32			0	34084	0	0	0	21106	20050	148802	27254	984883	39996	107741	0	0	8126	737841	0	0
2024-05-23 04:38:32			0	34110	0	0	0	21083	20020	148566	27145	984780	40004	107732	0	0	8128	736706	0	0
2024-05-23 04:39:32			0	34174	0	0	0	21064	19990	148290	27029	984623	40001	107725	0	0	8132	733742	0	0
2024-05-23 04:40:32			0	34253	0	0	0	21064	19950	147914	26809	984520	40000	107725	0	0	8136	730108	0	0
2024-05-23 04:41:32			0	34330	0	0	0	21062	19930	147746	26946	984407	39987	107724	0	0	8140	726503	0	0
2024-05-23 04:42:32			0	34393	0	0	0	21057	19900	147475	26835	984410	40005	107722	0	0	8144	723618	0	0
2024-05-23 04:43:32			0	34447	0	0	0	21051	19890	147207	26958	984314	39983	107720	0	0	8147	721090	0	0
2024-05-23 04:44:32			0	34485	0	0	0	21062	19880	146967	27133	984262	39993	107724	0	0	8149	719326	0	0
2024-05-23 04:45:32			0	34559	0	0	0	21054	19860	146791	27216	984210	39991	107721	0	0	8153	715903	0	0
2024-05-23 04:46:32			0	34614	0	0	0	21088	19840	146587	26975	984204	39989	107734	0	0	8155	713388	0	0
2024-05-23 04:47:32			0	34669	0	0	0	21088	19830	146335	27043	984240	39977	107734	0	0	8158	710839	0	0
2024-05-23 04:48:32			0	34736	0	0	0	21088	19820	145979	27059	984215	39986	107734	0	0	8162	707736	0	0
2024-05-23 04:49:32			0	34773	0	0	0	21085	19810	145995	27263	984100	40008	107733	0	0	8164	706044	0	0
2024-05-23 04:50:32			0	34801	0	0	0	21090	19800	145839	27272	984110	39997	107735	0	0	8165	704775	0	0
2024-05-23 04:51:32			0	34819	0	0	0	21077	19800	145799	27315	984075	39996	107730	0	0	8167	703935	0	0
2024-05-23 04:52:32			0	34848	0	0	0	21070	19780	145723	27104	984077	39995	107727	0	0	8168	702661	0	0
2024-05-23 04:53:32			0	34812	0	0	0	21083	19790	145731	26965	984058	39995	107732	0	0	8166	704300	0	0
2024-05-23 04:54:32			0	34817	0	0	0	21096	19770	145847	27157	984060	40015	107737	0	0	8166	704145	0	0
2024-05-23 04:55:32			0	34761	0	0	0	21093	19780	145875	26906	984042	39983	107736	0	0	8163	706722	0	0
2024-05-23 04:56:32			0	34764	0	0	0	21096	19770	146055	27218	983998	40003	107737	0	0	8163	706620	0	0
2024-05-23 04:57:32			0	34737	0	0	0	21083	19760	146191	27194	984017	39993	107732	0	0	8162	707923	0	0
2024-05-23 04:58:32			0	34734	0	0	0	21077	19760	146095	26883	983955	40003	107730	0	0	8162	708063	0	0
2024-05-23 04:59:32			0	34718	0	0	0	21090	19760	146215	27300	983982	40003	107735	0	0	8161	708813	0	0
2024-05-23 05:00:32			0	34731	0	0	0	21080	19750	146195	27538	984026	39992	107731	0	0	8162	708243	0	0
2024-05-23 05:01:32			0	34716	0	0	0	21083	19750	146191	27268	983939	39980	107732	0	0	8161	708946	0	0
2024-05-23 05:02:32			0	34750	0	0	0	21083	19750	146103	27308	984000	40002	107732	0	0	8163	707353	0	0
2024-05-23 05:03:32			0	34730	0	0	0	21093	19740	146067	27372	983957	39992	107736	0	0	8161	708329	0	0
2024-05-23 05:04:32			0	34769	0	0	0	21101	19740	145995	27248	983975	40001	107739	0	0	8163	706503	0	0
2024-05-23 05:05:32			0	34813	0	0	0	21088	19740	145907	27429	983975	40012	107734	0	0	8166	704447	0	0
2024-05-23 05:06:32			0	34843	0	0	0	21093	19730	145779	27293	983967	40000	107736	0	0	8167	703087	0	0
2024-05-23 05:07:32			0	34848	0	0	0	21098	19730	145611	27372	983993	40000	107738	0	0	8168	702854	0	0
2024-05-23 05:08:32			0	34881	0	0	0	21109	19740	145583	27196	984001	40001	107742	0	0	8169	701280	0	0
2024-05-23 05:09:32			0	34890	0	0	0	21127	19730	145571	27279	983993	40011	107749	0	0	8169	700900	0	0
2024-05-23 05:10:32			0	34889	0	0	0	21127	19750	145559	27140	984106	40013	107749	0	0	8170	700869	0	0
2024-05-23 05:11:32			0	34854	0	0	0	21129	19750	145663	27460	984106	40013	107750	0	0	8168	702498	0	0
2024-05-23 05:12:32			0	34834	0	0	0	21153	19760	145795	27393	984114	40003	107759	0	0	8166	703391	0	0
2024-05-23 05:13:32			0	34755	0	0	0	21174	19760	146059	27405	984229	40026	107767	0	0	8161	707080	0	0
2024-05-23 05:14:32			0	34685	0	0	0	21197	19770	146467	27345	984272	40037	107776	0	0	8157	710322	0	0
2024-05-23 05:15:32			0	34618	0	0	0	21199	19800	146795	27538	984375	40029	107777	0	0	8153	713356	0	0
2024-05-23 05:16:32			0	34546	0	0	0	21244	19810	147019	27374	984471	40019	107794	0	0	8149	716715	0	0
2024-05-23 05:17:32			0	34510	0	0	0	21251	19830	147171	27345	984584	40021	107797	0	0	8147	718339	0	0
2024-05-23 05:18:32			0	34458	0	0	0	21259	19860	147355	27244	984706	40023	107800	0	0	8144	720686	0	0
2024-05-23 05:19:32			0	34415	0	0	0	21262	19880	147535	27067	984793	40036	107801	0	0	8141	722650	0	0
2024-05-23 05:20:32			0	34407	0	0	0	21283	19900	147635	27438	984853	40027	107809	0	0	8141	722951	0	0
2024-05-23 05:21:32			0	34381	0	0	0	21283	19910	147655	27050	984931	40040	107809	0	0	8139	724150	0	0
2024-05-23 05:22:32			0	34350	0	0	0	21233	19930	147691	27017	985044	40041	107790	0	0	8138	725548	0	0
2024-05-23 05:23:32			0	34329	0	0	0	21267	19940	147802	26955	985034	40042	107803	0	0	8137	726511	0	0
2024-05-23 05:24:32			0	34289	0	0	0	21285	19950	148026	27211	985130	40042	107810	0	0	8134	728383	0	0
2024-05-23 05:25:32			0	34264	0	0	0	21264	19980	148094	26771	985225	40035	107802	0	0	8133	729460	0	0
2024-05-23 05:26:32			0	34252	0	0	0	21249	20000	148222	27312	985197	40036	107796	0	0	8133	729955	0	0
2024-05-23 05:27:32			0	34225	0	0	0	21194	20010	148158	27242	985143	40026	107775	0	0	8132	731210	0	0
2024-05-23 05:28:32			0	34208	0	0	0	21199	20000	148298	27270	985073	40014	107777	0	0	8131	732067	0	0
2024-05-23 05:29:32			0	34210	0	0	0	21205	20020	148286	27241	985133	40038	107779	0	0	8131	731890	0	0
2024-05-23 05:30:32			0	34210	0	0	0	21205	20010	148250	26911	984975	40037	107779	0	0	8131	731930	0	0
2024-05-23 05:31:32			0	34220	0	0	0	21202	19990	148306	27149	984862	40012	107778	0	0	8132	731531	0	0
2024-05-23 05:32:32			0	34244	0	0	0	21194	19990	148074	27218	984836	40001	107775	0	0	8133	730379	0	0
2024-05-23 05:33:32			0	34301	0	0	0	21194	19960	147798	26838	984767	40010	107775	0	0	8136	727769	0	0
2024-05-23 05:34:32			0	34355	0	0	0	21205	19950	147570	27270	984706	40021	107779	0	0	8139	725230	0	0
2024-05-23 05:35:32			0	34467	0	0	0	21212	19950	147283	27135	984777	40009	107782	0	0	8145	719902	0	0
2024-05-23 05:36:32			0	34512	0	0	0	21207	19940	146975	26923	984715	39999	107780	0	0	8148	717809	0	0
2024-05-23 05:37:32			0	34588	0	0	0	21207	19940	146607	26961	984734	40019	107780	0	0	8152	714219	0	0
2024-05-23 05:38:32			0	34659	0	0	0	21205	19930	146383	26991	984725	40008	107779	0	0	8156	710917	0	0
2024-05-23 05:39:32			0	34731	0	0	0	21207	19920	146123	27164	984682	39996	107780	0	0	8160	707580	0	0
2024-05-23 05:40:32			0	34783	0	0	0	21215	19910	145911	27234	984612	39996	107783	0	0	8163	705188	0	0
2024-05-23 05:41:32			0	34853	0	0	0	21218	19900	145591	27379	984596	40016	107784	0	0	8167	701964	0	0
2024-05-23 05:42:32			0	34935	0	0	0	21220	19910	145283	27187	984604	39995	107785	0	0	8171	698118	0	0
2024-05-23 05:43:32			0	34993	0	0	0	21241	19890	145091	27230	984579	40005	107793	0	0	8174	695511	0	0
2024-05-23 05:44:32			0	35059	0	0	0	21246	19900	144731	27027	984587	40016	107795	0	0	8178	692428	0	0
2024-05-23 05:45:32			0	35112	0	0	0	21233	19890	144451	27390	984571	40004	107790	0	0	8181	690028	0	0
2024-05-23 05:46:32			0	35181	0	0	0	21249	19890	144320	27260	984632	40016	107796	0	0	8184	686864	0	0
2024-05-23 05:47:32			0	35223	0	0	0	21280	19880	144220	27109	984668	40025	107808	0	0	8186	684981	0	0
2024-05-23 05:48:32			0	35253	0	0	0	21301	19900	144020	27452	984773	40005	107816	0	0	8187	683536	0	0
2024-05-23 05:49:32			0	35254	0	0	0	21345	19930	143860	27251	984982	40030	107833	0	0	8187	683377	0	0
2024-05-23 05:50:32			0	35220	0	0	0	21368	19940	144088	27057	984999	40030	107842	0	0	8185	684892	0	0
2024-05-23 05:51:32			0	35119	0	0	0	21402	19970	144604	27190	985120	40043	107855	0	0	8179	689403	0	0
2024-05-23 05:52:32			0	34953	0	0	0	21425	19980	145203	27500	985225	40045	107864	0	0	8169	697015	0	0
2024-05-23 05:53:32			0	34781	0	0	0	21399	20010	145779	27260	985267	40025	107854	0	0	8160	704893	0	0
2024-05-23 05:54:32			0	34645	0	0	0	21371	20010	146431	27048	985249	40037	107843	0	0	8153	711261	0	0
2024-05-23 05:55:32			0	34527	0	0	0	21358	20030	146919	27001	985300	40027	107838	0	0	8147	716744	0	0
2024-05-23 05:56:32			0	34384	0	0	0	21335	20030	147427	27343	985309	40028	107829	0	0	8139	723528	0	0
2024-05-23 05:57:32			0	34310	0	0	0	21293	20020	147766	27059	985186	40038	107813	0	0	8136	727098	0	0
2024-05-23 05:58:32			0	34232	0	0	0	21283	20020	148018	27242	985106	40016	107809	0	0	8131	730834	0	0
2024-05-23 05:59:32			0	34190	0	0	0	21262	20000	148170	27298	985046	40025	107801	0	0	8129	732932	0	0
2024-05-23 06:00:32			0	34171	0	0	0	21244	20020	148310	27381	985045	40026	107794	0	0	8129	733765	0	0
2024-05-23 06:01:32			0	34168	0	0	0	21220	19990	148286	27206	984924	40001	107785	0	0	8129	734031	0	0
2024-05-23 06:02:32			0	34152	0	0	0	21215	19990	148274	27421	984862	40012	107783	0	0	8128	734802	0	0
2024-05-23 06:03:32			0	34160	0	0	0	21199	19970	148410	27557	984775	40022	107777	0	0	8128	734497	0	0
2024-05-23 06:04:32			0	34162	0	0	0	21205	19960	148366	27313	984767	40010	107779	0	0	8128	734442	0	0
2024-05-23 06:05:32			0	34175	0	0	0	21220	19940	148246	27341	984742	40009	107785	0	0	8129	733897	0	0
2024-05-23 06:06:32			0	34198	0	0	0	21192	19930	148174	27086	984725	40008	107774	0	0	8131	732830	0	0
2024-05-23 06:07:32			0	34241	0	0	0	21192	19930	148034	27308	984637	40007	107774	0	0	8133	730764	0	0
2024-05-23 06:08:32			0	34278	0	0	0	21207	19920	147874	27248	984674	40017	107780	0	0	8135	729031	0	0
2024-05-23 06:09:32			0	34329	0	0	0	21215	19920	147806	27267	984647	40017	107783	0	0	8137	726591	0	0
2024-05-23 06:10:32			0	34356	0	0	0	21202	19930	147619	27351	984778	40019	107778	0	0	8139	725262	0	0
2024-05-23 06:11:32			0	34417	0	0	0	21171	19910	147299	27362	984665	40006	107766	0	0	8143	722436	0	0
2024-05-23 06:12:32			0	34495	0	0	0	21153	19900	147099	27294	984622	40016	107759	0	0	8148	718773	0	0
2024-05-23 06:13:32			0	34562	0	0	0	21116	19900	146799	27362	984534	39983	107745	0	0	8152	715604	0	0
2024-05-23 06:14:32			0	34633	0	0	0	21109	19900	146503	27100	984543	40005	107742	0	0	8156	712257	0	0
2024-05-23 06:15:32			0	34682	0	0	0	21070	19880	146287	27270	984403	40014	107727	0	0	8160	710033	0	0
2024-05-23 06:16:32			0	34688	0	0	0	21070	19860	146055	27519	984317	39991	107727	0	0	8160	709830	0	0
2024-05-23 06:17:32			0	34686	0	0	0	21075	19860	146223	27119	984308	40011	107729	0	0	8160	709923	0	0
2024-05-23 06:18:32			0	34655	0	0	0	21072	19850	146339	27159	984265	40000	107728	0	0	8158	711419	0	0
2024-05-23 06:19:32			0	34630	0	0	0	21057	19830	146459	27412	984160	39977	107722	0	0	8157	712673	0	0
2024-05-23 06:20:32			0	34553	0	0	0	21051	19830	146607	27303	984160	39999	107720	0	0	8152	716305	0	0
2024-05-23 06:21:32			0	34526	0	0	0	21044	19800	146987	27407	984128	39996	107717	0	0	8151	717700	0	0
2024-05-23 06:22:32			0	34491	0	0	0	21023	19780	147027	27204	983997	39984	107709	0	0	8149	719438	0	0
2024-05-23 06:23:32			0	34463	0	0	0	20989	19770	147271	27412	983848	39971	107696	0	0	8148	720806	0	0
2024-05-23 06:24:32			0	34422	0	0	0	20981	19760	147331	27203	983857	39982	107693	0	0	8146	722795	0	0
2024-05-23 06:25:32			0	34392	0	0	0	20953	19740	147419	27339	983851	39992	107682	0	0	8145	724304	0	0
2024-05-23 06:26:32			0	34378	0	0	0	20979	19730	147387	27119	983754	39979	107692	0	0	8143	725011	0	0
2024-05-23 06:27:32			0	34389	0	0	0	20981	19720	147459	27239	983711	39966	107693	0	0	8144	724526	0	0
2024-05-23 06:28:32			0	34387	0	0	0	20976	19720	147479	27345	983711	39978	107691	0	0	8144	724622	0	0
2024-05-23 06:29:32			0	34387	0	0	0	20989	19710	147527	27255	983686	39976	107696	0	0	8144	724662	0	0
2024-05-23 06:30:32			0	34394	0	0	0	20971	19700	147443	27147	983669	39987	107689	0	0	8144	724368	0	0
2024-05-23 06:31:32			0	34392	0	0	0	20968	19690	147439	27300	983608	39986	107688	0	0	8144	724503	0	0
2024-05-23 06:32:32			0	34397	0	0	0	20968	19680	147603	27123	983583	39974	107688	0	0	8144	724305	0	0
2024-05-23 06:33:32			0	34391	0	0	0	20968	19680	147543	27322	983556	39997	107688	0	0	8144	724591	0	0
2024-05-23 06:34:32			0	34354	0	0	0	20971	19670	147619	27396	983619	39984	107689	0	0	8142	726397	0	0
2024-05-23 06:35:32			0	34348	0	0	0	20963	19670	147743	27298	983548	39985	107686	0	0	8142	726683	0	0
2024-05-23 06:36:32			0	34347	0	0	0	20950	19650	147763	27339	983567	39972	107681	0	0	8142	726811	0	0
2024-05-23 06:37:32			0	34350	0	0	0	20963	19660	147739	27414	983531	39994	107686	0	0	8142	726628	0	0
2024-05-23 06:38:32			0	34366	0	0	0	20948	19650	147547	27421	983496	39983	107680	0	0	8143	725903	0	0
2024-05-23 06:39:32			0	34429	0	0	0	20953	19650	147555	27384	983541	39983	107682	0	0	8146	722900	0	0
2024-05-23 06:40:32			0	34465	0	0	0	20953	19650	147299	27289	983488	39983	107682	0	0	8148	721187	0	0
2024-05-23 06:41:32			0	34499	0	0	0	20958	19650	147015	27336	983470	39994	107684	0	0	8150	719573	0	0
2024-05-23 06:42:32			0	34558	0	0	0	20963	19630	146839	27222	983481	39981	107686	0	0	8153	716858	0	0
2024-05-23 06:43:32			0	34622	0	0	0	20961	19640	146667	27469	983471	39981	107685	0	0	8157	713796	0	0
2024-05-23 06:44:32			0	34671	0	0	0	20935	19640	146379	27502	983551	39992	107675	0	0	8160	711489	0	0
2024-05-23 06:45:32			0	34684	0	0	0	20945	19640	146299	27322	983498	39981	107679	0	0	8161	710878	0	0
2024-05-23 06:46:32			0	34714	0	0	0	20958	19640	146259	27403	983524	39992	107684	0	0	8162	709469	0	0
2024-05-23 06:47:32			0	34714	0	0	0	20963	19630	146167	27213	983516	39981	107686	0	0	8162	709508	0	0
2024-05-23 06:48:32			0	34733	0	0	0	20974	19630	146215	27286	983516	39981	107690	0	0	8163	708617	0	0
2024-05-23 06:49:32			0	34747	0	0	0	20976	19630	146091	27223	983542	40002	107691	0	0	8164	707961	0	0
2024-05-23 06:50:32			0	34740	0	0	0	20992	19640	146175	27313	983586	39993	107697	0	0	8163	708250	0	0
2024-05-23 06:51:32			0	34720	0	0	0	20994	19650	146211	27144	983621	39972	107698	0	0	8162	709149	0	0
2024-05-23 06:52:32			0	34705	0	0	0	20971	19650	146211	26998	983629	39983	107689	0	0	8161	709852	0	0
2024-05-23 06:53:32			0	34704	0	0	0	20948	19640	146183	27046	983577	39981	107680	0	0	8162	709939	0	0
2024-05-23 06:54:32			0	34712	0	0	0	20948	19640	146223	27310	983524	39981	107680	0	0	8162	709563	0	0
2024-05-23 06:55:32			0	34715	0	0	0	20906	19640	146175	27365	983524	39992	107664	0	0	8163	709422	0	0
2024-05-23 06:56:32			0	34711	0	0	0	20909	19630	146195	27426	983508	39992	107665	0	0	8163	709649	0	0
2024-05-23 06:57:32			0	34688	0	0	0	20890	19630	146343	27400	983428	39992	107658	0	0	8162	710729	0	0
2024-05-23 06:58:32			0	34614	0	0	0	20888	19620	146559	27300	983385	39979	107657	0	0	8158	714252	0	0
2024-05-23 06:59:32			0	34543	0	0	0	20875	19610	146915	27071	983368	39990	107652	0	0	8154	717646	0	0
2024-05-23 07:00:32			0	34478	0	0	0	20875	19600	147167	27251	983360	39978	107652	0	0	8150	720768	0	0
2024-05-23 07:01:32			0	34389	0	0	0	20859	19610	147427	27327	983342	39990	107646	0	0	8145	724965	0	0
2024-05-23 07:02:32			0	34346	0	0	0	20857	19590	147734	27440	983316	39978	107645	0	0	8143	727099	0	0
2024-05-23 07:03:32			0	34285	0	0	0	20857	19580	148046	27324	983247	39977	107645	0	0	8139	730061	0	0
2024-05-23 07:04:32			0	34265	0	0	0	20903	19590	148226	27293	983281	39988	107663	0	0	8138	730980	0	0
2024-05-23 07:05:32			0	34211	0	0	0	20955	19580	148414	27573	983273	39988	107683	0	0	8134	733618	0	0
2024-05-23 07:06:32			0	34186	0	0	0	20968	19590	148462	27059	983388	39977	107688	0	0	8132	734782	0	0
2024-05-23 07:07:32			0	34178	0	0	0	20968	19590	148466	27516	983343	39978	107688	0	0	8132	735167	0	0
2024-05-23 07:08:32			0	34177	0	0	0	20966	19600	148542	27123	983378	39966	107687	0	0	8132	735175	0	0
2024-05-23 07:09:32			0	34140	0	0	0	20963	19590	148698	27208	983388	39988	107686	0	0	8129	737002	0	0
2024-05-23 07:10:32			0	34116	0	0	0	20966	19590	148706	27211	983414	39999	107687	0	0	8128	738163	0	0
2024-05-23 07:11:32			0	34104	0	0	0	20948	19600	148902	27031	983439	39990	107680	0	0	8128	738703	0	0
2024-05-23 07:12:32			0	34077	0	0	0	20950	19600	149002	27178	983458	40000	107681	0	0	8126	740011	0	0
2024-05-23 07:13:32			0	34055	0	0	0	20914	19610	148998	27348	983430	39979	107667	0	0	8126	741038	0	0
2024-05-23 07:14:32			0	34057	0	0	0	20888	19600	148998	27412	983360	39990	107657	0	0	8126	740981	0	0
2024-05-23 07:15:32			0	34059	0	0	0	20844	19600	148930	27171	983351	39989	107640	0	0	8127	740884	0	0
2024-05-23 07:16:32			0	34069	0	0	0	20812	19590	148986	27213	983175	39977	107628	0	0	8128	740440	0	0
2024-05-23 07:17:32			0	34057	0	0	0	20794	19580	148942	27538	983087	39965	107621	0	0	8128	741063	0	0
2024-05-23 07:18:32			0	34060	0	0	0	20846	19560	149058	27462	983107	39975	107641	0	0	8127	740999	0	0
2024-05-23 07:19:32			0	34019	0	0	0	20922	19550	149174	27613	983143	39984	107670	0	0	8123	743032	0	0
2024-05-23 07:20:32			0	34012	0	0	0	20955	19570	149278	27275	983230	39998	107683	0	0	8122	743291	0	0
2024-05-23 07:21:32			0	33984	0	0	0	20971	19560	149422	27517	983372	39997	107689	0	0	8120	744695	0	0
2024-05-23 07:22:32			0	33973	0	0	0	20968	19580	149378	27524	983397	39998	107688	0	0	8120	745149	0	0
2024-05-23 07:23:32			0	33987	0	0	0	20963	19590	149410	27455	983388	39988	107686	0	0	8121	744426	0	0
2024-05-23 07:24:32			0	33964	0	0	0	20948	19590	149542	27308	983414	39977	107680	0	0	8120	745547	0	0
2024-05-23 07:25:32			0	33960	0	0	0	20924	19590	149566	27684	983369	40000	107671	0	0	8120	745742	0	0
2024-05-23 07:26:32			0	33927	0	0	0	20893	19590	149622	27505	983388	39988	107659	0	0	8118	747353	0	0
2024-05-23 07:27:32			0	33933	0	0	0	20880	19580	149522	27426	983353	39977	107654	0	0	8119	747101	0	0
2024-05-23 07:28:32			0	33940	0	0	0	20906	19590	149546	27467	983361	39988	107664	0	0	8119	746718	0	0
2024-05-23 07:29:32			0	33926	0	0	0	20968	19590	149594	27597	983449	39989	107688	0	0	8117	747402	0	0
2024-05-23 07:30:32			0	33915	0	0	0	21049	19590	149650	27294	983502	39989	107719	0	0	8115	747940	0	0
2024-05-23 07:31:32			0	33919	0	0	0	21111	19620	149746	26975	983703	39990	107743	0	0	8114	747621	0	0
2024-05-23 07:32:32			0	33912	0	0	0	21163	19630	149738	27279	983755	40002	107763	0	0	8113	747922	0	0
2024-05-23 07:33:32			0	33906	0	0	0	21218	19650	149826	27564	983939	40027	107784	0	0	8112	748133	0	0
2024-05-23 07:34:32			0	33887	0	0	0	21241	19680	149882	27547	984042	40018	107793	0	0	8111	748939	0	0
2024-05-23 07:35:32			0	33860	0	0	0	21231	19690	149962	27479	984085	40019	107789	0	0	8109	750220	0	0
2024-05-23 07:36:32			0	33865	0	0	0	21335	19710	149894	27306	984243	40020	107829	0	0	8108	749892	0	0
2024-05-23 07:37:32			0	33819	0	0	0	21249	19740	150074	27547	984328	40024	107796	0	0	8107	752024	0	0
2024-05-23 07:38:32			0	33797	0	0	0	21244	19760	150262	27289	984494	40037	107794	0	0	8106	753022	0	0
2024-05-23 07:39:32			0	33782	0	0	0	21270	19780	150250	26956	984519	40027	107804	0	0	8105	753677	0	0
2024-05-23 07:40:32			0	33805	0	0	0	21194	19800	150162	27306	984561	40041	107775	0	0	8107	752463	0	0
2024-05-23 07:41:32			0	33809	0	0	0	21194	19820	149950	27043	984612	40030	107775	0	0	8108	752184	0	0
2024-05-23 07:42:32			0	33831	0	0	0	21153	19830	149914	27306	984558	40032	107759	0	0	8110	751063	0	0
2024-05-23 07:43:32			0	33843	0	0	0	21225	19850	149766	27112	984610	40023	107787	0	0	8109	750392	0	0
2024-05-23 07:44:32			0	33856	0	0	0	21212	19850	149686	27485	984636	40023	107782	0	0	8110	749755	0	0
2024-05-23 07:45:32			0	33852	0	0	0	21272	19860	149786	27362	984680	40023	107805	0	0	8109	749909	0	0
2024-05-23 07:46:32			0	33843	0	0	0	21303	19870	149802	27350	984776	40036	107817	0	0	8108	750309	0	0
2024-05-23 07:47:32			0	33840	0	0	0	21264	19870	149850	27111	984758	40025	107802	0	0	8109	750456	0	0
2024-05-23 07:48:32			0	33833	0	0	0	21205	19890	149898	27561	984738	40038	107779	0	0	8109	750717	0	0
2024-05-23 07:49:32			0	33833	0	0	0	21142	19880	149938	27616	984642	40025	107755	0	0	8110	750758	0	0
2024-05-23 07:50:32			0	33825	0	0	0	21103	19880	149950	27166	984615	40025	107740	0	0	8110	751150	0	0
2024-05-23 07:51:32			0	33818	0	0	0	21103	19870	149966	27218	984572	40014	107740	0	0	8110	751535	0	0
2024-05-23 07:52:32			0	33789	0	0	0	21101	19870	149906	27225	984545	40025	107739	0	0	8108	752959	0	0
2024-05-23 07:53:32			0	33798	0	0	0	21093	19860	149774	27478	984502	40023	107736	0	0	8109	752558	0	0
2024-05-23 07:54:32			0	33816	0	0	0	21145	19870	149774	27495	984564	40024	107756	0	0	8109	751633	0	0
2024-05-23 07:55:32			0	33801	0	0	0	21298	19880	149698	27609	984713	40025	107815	0	0	8106	752328	0	0
2024-05-23 07:56:32			0	33809	0	0	0	21462	19890	149902	27440	984871	40027	107878	0	0	8103	751894	0	0
2024-05-23 07:57:32			0	33844	0	0	0	21451	19900	149910	27357	984994	40048	107874	0	0	8106	750136	0	0
2024-05-23 07:58:32			0	33905	0	0	0	21423	19930	149558	27300	985097	40052	107863	0	0	8110	747029	0	0
2024-05-23 07:59:32			0	33974	0	0	0	21522	19950	149334	27376	985157	40065	107901	0	0	8112	743584	0	0
2024-05-23 08:00:32			0	34011	0	0	0	21584	19980	149094	27859	985358	40045	107925	0	0	8113	741663	0	0
2024-05-23 08:01:32			0	34067	0	0	0	21620	20000	148990	27428	985524	40058	107939	0	0	8116	738867	0	0
2024-05-23 08:02:32			0	34116	0	0	0	21579	20030	148666	27241	985566	40071	107923	0	0	8120	736376	0	0
2024-05-23 08:03:32			0	34151	0	0	0	21509	20050	148522	27524	985528	40062	107896	0	0	8123	734607	0	0
2024-05-23 08:04:32			0	34209	0	0	0	21522	20050	148254	27538	985528	40062	107901	0	0	8126	731817	0	0
2024-05-23 08:05:32			0	34252	0	0	0	21506	20060	147974	27189	985545	40063	107895	0	0	8129	729713	0	0
2024-05-23 08:06:32			0	34309	0	0	0	21467	20070	147686	27254	985527	40075	107880	0	0	8133	726945	0	0
2024-05-23 08:07:32			0	34346	0	0	0	21483	20080	147538	27500	985605	40076	107886	0	0	8135	725139	0	0
2024-05-23 08:08:32			0	34370	0	0	0	21545	20080	147339	27443	985623	40076	107910	0	0	8135	723995	0	0
2024-05-23 08:09:32			0	34404	0	0	0	21602	20090	147291	27202	985675	40077	107932	0	0	8136	722337	0	0
2024-05-23 08:10:32			0	34426	0	0	0	21586	20090	147279	27071	985754	40066	107926	0	0	8137	721292	0	0
2024-05-23 08:11:32			0	34438	0	0	0	21529	20110	147135	27319	985753	40068	107904	0	0	8139	720642	0	0
2024-05-23 08:12:32			0	34478	0	0	0	21496	20110	147023	27202	985708	40068	107891	0	0	8142	718746	0	0
2024-05-23 08:13:32			0	34461	0	0	0	21431	20120	146895	27255	985690	40057	107866	0	0	8142	719512	0	0
2024-05-23 08:14:32			0	34483	0	0	0	21293	20120	146791	27459	985672	40058	107813	0	0	8146	718469	0	0
2024-05-23 08:15:32			0	34547	0	0	0	21210	20110	146479	27182	985435	40045	107781	0	0	8151	715483	0	0
2024-05-23 08:16:32			0	34596	0	0	0	21179	20090	146335	27341	985330	40033	107769	0	0	8154	713252	0	0
2024-05-23 08:17:32			0	34635	0	0	0	21189	20080	146279	27453	985331	40032	107773	0	0	8156	711457	0	0
2024-05-23 08:18:32			0	34652	0	0	0	21070	20070	146167	27459	985128	40032	107727	0	0	8159	710697	0	0
2024-05-23 08:19:32			0	34605	0	0	0	21046	20040	146247	27369	984981	40018	107718	0	0	8156	713025	0	0
2024-05-23 08:20:32			0	34522	0	0	0	21059	20010	146635	27265	984877	40026	107723	0	0	8151	717060	0	0
2024-05-23 08:21:32			0	34407	0	0	0	21075	20000	147039	27123	984914	40037	107729	0	0	8145	722553	0	0
2024-05-23 08:22:32			0	34332	0	0	0	21015	19980	147490	27474	984827	40012	107706	0	0	8141	726207	0	0
2024-05-23 08:23:32			0	34237	0	0	0	21010	19980	147734	27244	984819	40012	107704	0	0	8136	730755	0	0
2024-05-23 08:24:32			0	34169	0	0	0	21010	19970	148130	27159	984749	40011	107704	0	0	8132	734064	0	0
2024-05-23 08:25:32			0	34096	0	0	0	20958	19940	148542	27339	984556	39999	107684	0	0	8129	737708	0	0
2024-05-23 08:26:32			0	34028	0	0	0	20909	19920	148798	27274	984461	39985	107665	0	0	8126	741083	0	0
2024-05-23 08:27:32			0	33967	0	0	0	20888	19900	149006	27479	984375	39994	107657	0	0	8122	744129	0	0
2024-05-23 08:28:32			0	33923	0	0	0	20859	19870	149274	27452	984148	39981	107646	0	0	8120	746397	0	0
2024-05-23 08:29:32			0	33865	0	0	0	20823	19840	149342	27490	983912	39967	107632	0	0	8117	749355	0	0
2024-05-23 08:30:32			0	33849	0	0	0	20799	19810	149542	27305	983880	39975	107623	0	0	8117	750263	0	0
2024-05-23 08:31:32			0	33812	0	0	0	20792	19780	149646	27531	983803	39972	107620	0	0	8115	752202	0	0
2024-05-23 08:32:32			0	33793	0	0	0	20768	19760	149846	27317	983698	39960	107611	0	0	8114	753219	0	0
2024-05-23 08:33:32			0	33762	0	0	0	20833	19740	149982	27684	983718	39980	107636	0	0	8111	754827	0	0
2024-05-23 08:34:32			0	33743	0	0	0	20922	19730	150258	27296	983773	39989	107670	0	0	8108	755805	0	0
2024-05-23 08:35:32			0	33735	0	0	0	20968	19740	150518	27519	983922	40001	107688	0	0	8107	756157	0	0
2024-05-23 08:36:32			0	33712	0	0	0	21002	19750	150362	27383	984177	40013	107701	0	0	8105	757251	0	0
2024-05-23 08:37:32			0	33700	0	0	0	21077	19780	150454	27190	984307	40004	107730	0	0	8103	757718	0	0
2024-05-23 08:38:32			0	33683	0	0	0	21028	19790	150394	27571	984465	40016	107711	0	0	8103	758516	0	0
2024-05-23 08:39:32			0	33686	0	0	0	21028	19810	150474	27537	984418	40019	107711	0	0	8103	758285	0	0
2024-05-23 08:40:32			0	33683	0	0	0	20994	19830	150534	27627	984319	39977	107698	0	0	8104	758349	0	0
2024-05-23 08:41:32			0	33676	0	0	0	20979	19840	150478	27460	984354	39999	107692	0	0	8104	758654	0	0
2024-05-23 08:42:32			0	33709	0	0	0	21270	19840	150354	27313	984593	40010	107804	0	0	8101	757024	0	0
2024-05-23 08:43:32			0	33693	0	0	0	21470	19860	150522	27229	984839	40023	107881	0	0	8096	757730	0	0
2024-05-23 08:44:32			0	33758	0	0	0	21605	19900	150386	27029	985118	40038	107933	0	0	8098	754359	0	0
2024-05-23 08:45:32			0	33885	0	0	0	21628	19930	149770	27668	985274	40041	107942	0	0	8105	748006	0	0
2024-05-23 08:46:32			0	34058	0	0	0	21638	19970	149022	27426	985412	40043	107946	0	0	8115	739425	0	0
2024-05-23 08:47:32			0	34188	0	0	0	21662	19990	148478	27540	985560	40045	107955	0	0	8122	733069	0	0
2024-05-23 08:48:32			0	34324	0	0	0	21688	20030	147958	27211	985627	40072	107965	0	0	8130	726389	0	0
2024-05-23 08:49:32			0	34401	0	0	0	21696	20050	147447	27360	985785	40062	107968	0	0	8134	722639	0	0
2024-05-23 08:50:32			0	34492	0	0	0	21703	20080	147111	27149	985862	40065	107971	0	0	8139	718202	0	0
2024-05-23 08:51:32			0	34616	0	0	0	21709	20100	146611	27246	985930	40067	107973	0	0	8146	712272	0	0
2024-05-23 08:52:32			0	34677	0	0	0	21716	20120	146211	27592	986009	40069	107976	0	0	8149	709329	0	0
2024-05-23 08:53:32			0	34763	0	0	0	21706	20130	145895	27431	986113	40081	107972	0	0	8154	705266	0	0
2024-05-23 08:54:32			0	34828	0	0	0	21688	20160	145531	27403	986129	40083	107965	0	0	8159	702120	0	0
2024-05-23 08:55:32			0	34906	0	0	0	21638	20170	145191	27429	986127	40084	107946	0	0	8164	698460	0	0
2024-05-23 08:56:32			0	34988	0	0	0	21696	20180	144743	27121	986117	40075	107968	0	0	8167	694630	0	0
2024-05-23 08:57:32			0	35021	0	0	0	21451	20180	144683	27272	986117	40075	107874	0	0	8173	693108	0	0
2024-05-23 08:58:32			0	35036	0	0	0	21646	20190	144507	27467	986134	40076	107949	0	0	8171	692379	0	0
2024-05-23 08:59:32			0	35058	0	0	0	21358	20190	144423	27431	986028	40076	107838	0	0	8177	691367	0	0
2024-05-23 09:00:32			0	35109	0	0	0	21335	20180	144279	27022	985552	40030	107829	0	0	8180	689063	0	0
2024-05-23 09:01:32			0	35121	0	0	0	21438	20140	144148	27119	985617	40038	107869	0	0	8179	688665	0	0
2024-05-23 09:02:32			0	35125	0	0	0	21176	20120	144132	27085	985486	40047	107768	0	0	8183	688557	0	0
2024-05-23 09:03:32			0	35157	0	0	0	21096	20110	143928	27178	985337	40035	107737	0	0	8186	687129	0	0
2024-05-23 09:04:32			0	35116	0	0	0	21062	20080	143987	27031	985047	40021	107724	0	0	8185	689122	0	0
2024-05-23 09:05:32			0	35090	0	0	0	21137	20050	144211	27306	984989	40006	107753	0	0	8182	690430	0	0
2024-05-23 09:06:32			0	35021	0	0	0	20986	20020	144435	27218	984894	40005	107695	0	0	8180	693720	0	0
2024-05-23 09:07:32			0	34963	0	0	0	21093	20010	144735	27118	984789	40014	107736	0	0	8175	696437	0	0
2024-05-23 09:08:32			0	34896	0	0	0	21020	19980	145063	27050	984721	40012	107708	0	0	8173	699657	0	0
2024-05-23 09:09:32			0	34813	0	0	0	20948	19940	145335	27227	984424	39987	107680	0	0	8169	703672	0	0
2024-05-23 09:10:32			0	34771	0	0	0	20870	19900	145623	27222	984251	39983	107650	0	0	8168	705787	0	0
2024-05-23 09:11:32			0	34700	0	0	0	20844	19870	145719	27137	984033	39980	107640	0	0	8164	709228	0	0
2024-05-23 09:12:32			0	34669	0	0	0	20823	19830	145947	27436	983868	39956	107632	0	0	8163	710839	0	0
2024-05-23 09:13:32			0	34599	0	0	0	20823	19790	146235	27282	983748	39961	107632	0	0	8159	714291	0	0
2024-05-23 09:14:32			0	34563	0	0	0	20805	19760	146487	27486	983619	39971	107625	0	0	8157	716109	0	0
2024-05-23 09:15:32			0	34528	0	0	0	20799	19730	146667	27364	983489	39979	107623	0	0	8155	717882	0	0
2024-05-23 09:16:32			0	34458	0	0	0	20792	19710	146839	27208	983421	39965	107620	0	0	8151	721282	0	0
2024-05-23 09:17:32			0	34419	0	0	0	20799	19680	147079	27386	983326	39985	107623	0	0	8148	723256	0	0
2024-05-23 09:18:32			0	34397	0	0	0	20802	19650	147303	27097	983284	39972	107624	0	0	8147	724424	0	0
2024-05-23 09:19:32			0	34392	0	0	0	20807	19640	147367	27034	983233	39948	107626	0	0	8147	724702	0	0
2024-05-23 09:20:32			0	34370	0	0	0	20792	19620	147391	27478	983146	39968	107620	0	0	8146	725832	0	0
2024-05-23 09:21:32			0	34387	0	0	0	20784	19590	147435	27339	983078	39966	107617	0	0	8147	725140	0	0
2024-05-23 09:22:32			0	34374	0	0	0	20794	19580	147475	27429	983132	39965	107621	0	0	8146	725801	0	0
2024-05-23 09:23:32			0	34383	0	0	0	20807	19590	147503	27066	983149	39977	107626	0	0	8146	725331	0	0
2024-05-23 09:24:32			0	34405	0	0	0	20888	19570	147351	27677	983256	39987	107657	0	0	8146	724362	0	0
2024-05-23 09:25:32			0	34439	0	0	0	20948	19590	147263	27345	983369	39989	107680	0	0	8147	722662	0	0
2024-05-23 09:26:32			0	34449	0	0	0	20999	19600	147247	27545	983458	40000	107700	0	0	8146	722147	0	0
2024-05-23 09:27:32			0	34480	0	0	0	21036	19620	147115	27353	983597	40001	107714	0	0	8148	720594	0	0
2024-05-23 09:28:32			0	34521	0	0	0	21054	19640	146987	27514	983816	40014	107721	0	0	8150	718570	0	0
2024-05-23 09:29:32			0	34503	0	0	0	21122	19660	146999	27324	983929	40015	107747	0	0	8148	719344	0	0
2024-05-23 09:30:32			0	34468	0	0	0	21218	19690	147167	27071	984112	40008	107784	0	0	8144	720886	0	0
2024-05-23 09:31:32			0	34477	0	0	0	21140	19710	147187	27585	984216	40009	107754	0	0	8146	720379	0	0
2024-05-23 09:32:32			0	34439	0	0	0	21135	19720	147163	27244	984215	40022	107752	0	0	8144	722145	0	0
2024-05-23 09:33:32			0	34441	0	0	0	20870	19740	147103	27119	984054	39991	107650	0	0	8149	721971	0	0
2024-05-23 09:34:32			0	34414	0	0	0	21150	19720	147267	27454	984056	39989	107758	0	0	8142	723335	0	0
2024-05-23 09:35:32			0	34413	0	0	0	21132	19730	147311	27284	984064	40000	107751	0	0	8143	723343	0	0
2024-05-23 09:36:32			0	34418	0	0	0	21137	19730	147367	27367	984020	40011	107753	0	0	8143	723105	0	0
2024-05-23 09:37:32			0	34386	0	0	0	21085	19710	147331	27358	983959	40009	107733	0	0	8142	724709	0	0
2024-05-23 09:38:32			0	34440	0	0	0	21096	19720	147199	27274	984056	40010	107737	0	0	8145	722098	0	0
2024-05-23 09:39:32			0	34443	0	0	0	21223	19730	147247	27393	984152	40011	107786	0	0	8143	721915	0	0
2024-05-23 09:40:32			0	34440	0	0	0	21207	19740	147167	27086	984240	40012	107780	0	0	8143	722018	0	0
2024-05-23 09:41:32			0	34475	0	0	0	21233	19760	147151	27291	984274	40014	107790	0	0	8145	720276	0	0
2024-05-23 09:42:32			0	34494	0	0	0	21283	19760	147151	27493	984327	40014	107809	0	0	8145	719375	0	0
2024-05-23 09:43:32			0	34532	0	0	0	21280	19780	147023	27500	984440	40038	107808	0	0	8147	717495	0	0
2024-05-23 09:44:32			0	34559	0	0	0	21306	19790	146823	27183	984483	40028	107818	0	0	8148	716179	0	0
2024-05-23 09:45:32			0	34583	0	0	0	21366	19810	146695	27175	984622	40019	107841	0	0	8149	714967	0	0
2024-05-23 09:46:32			0	34611	0	0	0	21316	19830	146583	27090	984656	40042	107822	0	0	8151	713568	0	0
2024-05-23 09:47:32			0	34633	0	0	0	21202	19830	146527	27206	984611	40032	107778	0	0	8154	712532	0	0
2024-05-23 09:48:32			0	34666	0	0	0	21199	19850	146419	27535	984557	40023	107777	0	0	8156	710902	0	0
2024-05-23 09:49:32			0	34692	0	0	0	21119	19840	146187	27362	984487	40021	107746	0	0	8159	709720	0	0
2024-05-23 09:50:32			0	34755	0	0	0	21106	19830	145975	27085	984364	40021	107741	0	0	8163	706808	0	0
2024-05-23 09:51:32			0	34764	0	0	0	21148	19820	145743	27530	984294	40008	107757	0	0	8163	706426	0	0
2024-05-23 09:52:32			0	34823	0	0	0	21122	19810	145659	27293	984304	40008	107747	0	0	8166	703710	0	0
2024-05-23 09:53:32			0	34820	0	0	0	21158	19800	145623	27305	984375	40018	107761	0	0	8165	703888	0	0
2024-05-23 09:54:32			0	34834	0	0	0	21220	19800	145607	27403	984314	40017	107785	0	0	8165	703236	0	0
2024-05-23 09:55:32			0	34834	0	0	0	21238	19800	145575	27069	984455	40018	107792	0	0	8165	703236	0	0
2024-05-23 09:56:32			0	34828	0	0	0	21254	19810	145559	27126	984410	40019	107798	0	0	8164	703477	0	0
2024-05-23 09:57:32			0	34841	0	0	0	21231	19820	145423	27171	984480	40019	107789	0	0	8165	702832	0	0
2024-05-23 09:58:32			0	34839	0	0	0	21233	19820	145431	27505	984515	40020	107790	0	0	8165	702925	0	0
2024-05-23 09:59:32			0	34863	0	0	0	21246	19840	145383	27377	984513	40042	107795	0	0	8166	701731	0	0
2024-05-23 10:00:32			0	34900	0	0	0	21238	19830	145227	27381	984531	40021	107792	0	0	8169	700049	0	0
2024-05-23 10:01:32			0	34953	0	0	0	21303	19850	144983	27530	984583	40034	107817	0	0	8171	697515	0	0
2024-05-23 10:02:32			0	35000	0	0	0	21264	19840	144799	27287	984655	40033	107802	0	0	8174	695379	0	0
2024-05-23 10:03:32			0	35022	0	0	0	21231	19860	144615	27088	984608	40045	107789	0	0	8176	694286	0	0
2024-05-23 10:04:32			0	35033	0	0	0	21210	19850	144627	27043	984645	40023	107781	0	0	8177	693817	0	0
2024-05-23 10:05:32			0	34954	0	0	0	21233	19870	144823	27585	984590	40036	107790	0	0	8172	697392	0	0
2024-05-23 10:06:32			0	34884	0	0	0	21259	19850	145295	27178	984539	40034	107800	0	0	8167	700716	0	0
2024-05-23 10:07:32			0	34815	0	0	0	21241	19860	145483	27400	984573	40034	107793	0	0	8164	703889	0	0
2024-05-23 10:08:32			0	34792	0	0	0	21202	19850	145667	27168	984592	40044	107778	0	0	8163	705001	0	0
2024-05-23 10:09:32			0	34769	0	0	0	21228	19860	145687	27251	984608	40035	107788	0	0	8162	706036	0	0
2024-05-23 10:10:32			0	34740	0	0	0	21171	19860	145739	27241	984582	40023	107766	0	0	8161	707392	0	0
2024-05-23 10:11:32			0	34757	0	0	0	21220	19860	145759	27104	984582	40023	107785	0	0	8161	706597	0	0
2024-05-23 10:12:32			0	34722	0	0	0	21264	19860	145915	27479	984582	40045	107802	0	0	8158	708236	0	0
2024-05-23 10:13:32			0	34678	0	0	0	21231	19860	145963	27422	984600	40034	107789	0	0	8157	710299	0	0
2024-05-23 10:14:32			0	34690	0	0	0	21194	19860	146007	27183	984547	40023	107775	0	0	8158	709736	0	0
2024-05-23 10:15:32			0	34663	0	0	0	21228	19860	146115	27185	984573	40023	107788	0	0	8156	711004	0	0
2024-05-23 10:16:32			0	34641	0	0	0	21257	19860	146239	27218	984653	40023	107799	0	0	8154	712038	0	0
2024-05-23 10:17:32			0	34609	0	0	0	21218	19860	146307	27462	984582	40023	107784	0	0	8153	713544	0	0
2024-05-23 10:18:32			0	34594	0	0	0	21197	19860	146483	27497	984627	40034	107776	0	0	8152	714251	0	0
2024-05-23 10:19:32			0	34565	0	0	0	21174	19860	146543	27222	984573	40044	107767	0	0	8151	715620	0	0
2024-05-23 10:20:32			0	34525	0	0	0	21059	19860	146667	27317	984520	40023	107723	0	0	8151	717511	0	0
2024-05-23 10:21:32			0	34519	0	0	0	21075	19850	146807	27727	984451	40034	107729	0	0	8150	717834	0	0
2024-05-23 10:22:32			0	34491	0	0	0	21225	19850	146867	27448	984530	40011	107787	0	0	8146	719160	0	0
2024-05-23 10:23:32			0	34465	0	0	0	21116	19850	146975	27462	984512	40034	107745	0	0	8146	720394	0	0
2024-05-23 10:24:32			0	34490	0	0	0	21114	19850	146895	27812	984530	40023	107744	0	0	8148	719208	0	0
2024-05-23 10:25:32			0	34450	0	0	0	21106	19850	146987	27261	984486	40011	107741	0	0	8146	721106	0	0
2024-05-23 10:26:32			0	34438	0	0	0	21067	19850	147143	27287	984398	40034	107726	0	0	8146	721676	0	0
2024-05-23 10:27:32			0	34439	0	0	0	21127	19840	147079	27192	984442	40022	107749	0	0	8145	721668	0	0
2024-05-23 10:28:32			0	34432	0	0	0	21171	19840	147155	27118	984442	40022	107766	0	0	8144	722001	0	0
2024-05-23 10:29:32			0	34448	0	0	0	21109	19840	147099	27498	984495	40033	107742	0	0	8146	721240	0	0
2024-05-23 10:30:32			0	34448	0	0	0	21033	19840	147019	27326	984460	40010	107713	0	0	8147	721240	0	0
2024-05-23 10:31:32			0	34484	0	0	0	21005	19810	146903	27640	984233	40019	107702	0	0	8149	719651	0	0
2024-05-23 10:32:32			0	34477	0	0	0	20971	19790	146867	27634	984067	39995	107689	0	0	8149	720062	0	0
2024-05-23 10:33:32			0	34483	0	0	0	20992	19770	146915	27379	984007	40003	107697	0	0	8149	719857	0	0
2024-05-23 10:34:32			0	34498	0	0	0	21005	19760	146835	27398	983990	39982	107702	0	0	8150	719185	0	0
2024-05-23 10:35:32			0	34509	0	0	0	20976	19750	146835	27156	984000	39992	107691	0	0	8151	718703	0	0
2024-05-23 10:36:32			0	34518	0	0	0	21015	19750	146827	27249	983912	40002	107706	0	0	8151	718277	0	0
2024-05-23 10:37:32			0	34520	0	0	0	20984	19740	146843	27258	983930	39992	107694	0	0	8151	718222	0	0
2024-05-23 10:38:32			0	34511	0	0	0	20961	19750	146899	27381	983912	40002	107685	0	0	8151	718608	0	0
2024-05-23 10:39:32			0	34475	0	0	0	20927	19730	147095	27369	983781	40000	107672	0	0	8150	720395	0	0
2024-05-23 10:40:32			0	34447	0	0	0	20906	19720	147107	27201	983685	40000	107664	0	0	8148	721765	0	0
2024-05-23 10:41:32			0	34439	0	0	0	20896	19690	147207	27265	983608	40008	107660	0	0	8148	722265	0	0
2024-05-23 10:42:32			0	34419	0	0	0	20888	19680	147235	27360	983583	40007	107657	0	0	8147	723256	0	0
2024-05-23 10:43:32			0	34436	0	0	0	20896	19670	147267	27039	983521	39985	107660	0	0	8148	722487	0	0
2024-05-23 10:44:32			0	34426	0	0	0	20922	19640	147243	27441	983506	39982	107670	0	0	8147	723082	0	0
2024-05-23 10:45:32			0	34422	0	0	0	20953	19630	147335	27580	983463	39992	107682	0	0	8146	723312	0	0
2024-05-23 10:46:32			0	34424	0	0	0	20950	19640	147307	27395	983612	40003	107681	0	0	8146	723177	0	0
2024-05-23 10:47:32			0	34414	0	0	0	20924	19640	147379	27374	983533	40003	107671	0	0	8146	723654	0	0
2024-05-23 10:48:32			0	34394	0	0	0	20916	19640	147555	27289	983498	39981	107668	0	0	8145	724607	0	0
2024-05-23 10:49:32			0	34369	0	0	0	20919	19620	147547	27069	983438	39990	107669	0	0	8143	725880	0	0
2024-05-23 10:50:32			0	34359	0	0	0	20896	19620	147595	27211	983491	40001	107660	0	0	8143	726358	0	0
2024-05-23 10:51:32			0	34336	0	0	0	20880	19610	147646	27211	983395	40001	107654	0	0	8142	727497	0	0
2024-05-23 10:52:32			0	34333	0	0	0	20903	19610	147702	27189	983448	39990	107663	0	0	8142	727641	0	0
2024-05-23 10:53:32			0	34350	0	0	0	20880	19610	147623	27443	983448	40001	107654	0	0	8143	726828	0	0
2024-05-23 10:54:32			0	34399	0	0	0	20870	19600	147383	27479	983298	39989	107650	0	0	8146	724528	0	0
2024-05-23 10:55:32			0	34436	0	0	0	20838	19590	147375	27613	983290	40010	107638	0	0	8148	722805	0	0
2024-05-23 10:56:32			0	34453	0	0	0	20849	19580	147215	27320	983220	39965	107642	0	0	8149	722036	0	0
2024-05-23 10:57:32			0	34472	0	0	0	20838	19570	147203	27391	983177	39987	107638	0	0	8150	721172	0	0
2024-05-23 10:58:32			0	34486	0	0	0	20831	19550	147115	27469	983064	39995	107635	0	0	8151	720586	0	0
2024-05-23 10:59:32			0	34508	0	0	0	20831	19550	147071	27516	983109	39984	107635	0	0	8152	719542	0	0
2024-05-23 11:00:32			0	34527	0	0	0	20849	19540	147019	27454	983153	39972	107642	0	0	8153	718681	0	0
2024-05-23 11:01:32			0	34543	0	0	0	20864	19550	146887	27346	983162	39984	107648	0	0	8154	717883	0	0
2024-05-23 11:02:32			0	34545	0	0	0	20888	19540	146975	27312	983206	39983	107657	0	0	8153	717828	0	0
2024-05-23 11:03:32			0	34509	0	0	0	20893	19540	147147	27324	983171	39983	107659	0	0	8151	719534	0	0
2024-05-23 11:04:32			0	34467	0	0	0	20857	19550	147239	27486	983223	39984	107645	0	0	8150	721489	0	0
2024-05-23 11:05:32			0	34449	0	0	0	20825	19540	147279	27402	983145	39995	107633	0	0	8149	722385	0	0
2024-05-23 11:06:32			0	34402	0	0	0	20833	19530	147399	27358	983083	39983	107636	0	0	8146	724664	0	0
2024-05-23 11:07:32			0	34361	0	0	0	20823	19530	147611	27088	983075	39983	107632	0	0	8144	726622	0	0
2024-05-23 11:08:32			0	34353	0	0	0	20815	19510	147707	27464	982936	39970	107629	0	0	8144	727084	0	0
2024-05-23 11:09:32			0	34342	0	0	0	20825	19510	147718	27497	982970	39970	107633	0	0	8143	727610	0	0
2024-05-23 11:10:32			0	34336	0	0	0	20820	19500	147854	27486	982954	39969	107631	0	0	8143	727938	0	0
2024-05-23 11:11:32			0	34327	0	0	0	20815	19510	147914	27345	982962	39981	107629	0	0	8142	728328	0	0
2024-05-23 11:12:32			0	34322	0	0	0	20805	19490	147906	27531	982876	39979	107625	0	0	8142	728648	0	0
2024-05-23 11:13:32			0	34318	0	0	0	20812	19480	147782	27633	982894	39978	107628	0	0	8142	728880	0	0
2024-05-23 11:14:32			0	34319	0	0	0	20836	19480	147802	27376	982859	39977	107637	0	0	8141	728832	0	0
2024-05-23 11:15:32			0	34301	0	0	0	20885	19480	147966	27405	982947	39989	107656	0	0	8139	729695	0	0
2024-05-23 11:16:32			0	34289	0	0	0	20877	19480	147962	27265	982992	40000	107653	0	0	8139	730270	0	0
2024-05-23 11:17:32			0	34264	0	0	0	20880	19500	148074	27599	982998	39991	107654	0	0	8138	731391	0	0
2024-05-23 11:18:32			0	34231	0	0	0	20909	19480	148198	27466	983000	39978	107665	0	0	8135	733058	0	0
2024-05-23 11:19:32			0	34242	0	0	0	20984	19510	148298	27303	983209	39992	107694	0	0	8135	732408	0	0
2024-05-23 11:20:32			0	34221	0	0	0	21088	19530	148350	27684	983446	40015	107734	0	0	8132	733338	0	0
2024-05-23 11:21:32			0	34261	0	0	0	21015	19570	148294	27301	983540	40030	107706	0	0	8135	731253	0	0
2024-05-23 11:22:32			0	34255	0	0	0	20968	19580	148110	27580	983556	39998	107688	0	0	8136	731501	0	0
2024-05-23 11:23:32			0	34265	0	0	0	21007	19580	148078	27341	983459	39999	107703	0	0	8136	731021	0	0
2024-05-23 11:24:32			0	34291	0	0	0	21018	19580	148078	27602	983485	39999	107707	0	0	8137	729773	0	0
2024-05-23 11:25:32			0	34301	0	0	0	21005	19580	147998	27552	983485	39999	107702	0	0	8138	729294	0	0
2024-05-23 11:26:32			0	34346	0	0	0	20999	19590	147882	27466	983475	40000	107700	0	0	8141	727099	0	0
2024-05-23 11:27:32			0	34370	0	0	0	21002	19600	147711	27455	983564	40010	107701	0	0	8142	725912	0	0
2024-05-23 11:28:32			0	34413	0	0	0	21038	19600	147463	27668	983545	40011	107715	0	0	8144	723861	0	0
2024-05-23 11:29:32			0	34437	0	0	0	21080	19630	147363	27822	983799	40014	107731	0	0	8144	722598	0	0
2024-05-23 11:30:32			0	34431	0	0	0	21135	19650	147451	27609	983992	40038	107752	0	0	8143	722804	0	0
2024-05-23 11:31:32			0	34435	0	0	0	21114	19680	147303	27588	984007	40040	107744	0	0	8144	722495	0	0
2024-05-23 11:32:32			0	34456	0	0	0	21161	19690	147283	27582	984077	40018	107762	0	0	8144	721456	0	0
2024-05-23 11:33:32			0	34471	0	0	0	21127	19700	147263	27620	984102	40041	107749	0	0	8146	720704	0	0
2024-05-23 11:34:32			0	34456	0	0	0	21142	19730	147223	27460	984144	40043	107755	0	0	8145	721297	0	0
2024-05-23 11:35:32			0	34475	0	0	0	21194	19720	147139	27450	984233	40033	107775	0	0	8145	720435	0	0
2024-05-23 11:36:32			0	34445	0	0	0	21197	19750	147219	27568	984336	40024	107776	0	0	8144	721741	0	0
2024-05-23 11:37:32			0	34485	0	0	0	21233	19760	147051	27587	984406	40025	107790	0	0	8145	719801	0	0
2024-05-23 11:38:32			0	34486	0	0	0	21199	19780	147139	27329	984466	40038	107777	0	0	8146	719675	0	0
2024-05-23 11:39:32			0	34496	0	0	0	21140	19780	147015	27473	984421	40028	107754	0	0	8148	719201	0	0
2024-05-23 11:40:32			0	34507	0	0	0	21210	19800	146959	27398	984455	40018	107781	0	0	8147	718600	0	0
2024-05-23 11:41:32			0	34524	0	0	0	21148	19810	146875	27573	984463	40030	107757	0	0	8149	717756	0	0
2024-05-23 11:42:32			0	34524	0	0	0	21210	19800	146887	27668	984455	39997	107781	0	0	8148	717795	0	0
2024-05-23 11:43:32			0	34515	0	0	0	21059	19800	146787	27391	984402	40029	107723	0	0	8150	718221	0	0
2024-05-23 11:44:32			0	34525	0	0	0	21150	19810	146891	27597	984357	40019	107758	0	0	8149	717708	0	0
2024-05-23 11:45:32			0	34506	0	0	0	21171	19810	146847	27343	984384	40019	107766	0	0	8148	718608	0	0
2024-05-23 11:46:32			0	34486	0	0	0	21236	19810	146911	27455	984437	40019	107791	0	0	8145	719556	0	0
2024-05-23 11:47:32			0	34478	0	0	0	21205	19810	146987	27569	984471	40030	107779	0	0	8146	719935	0	0
2024-05-23 11:48:32			0	34490	0	0	0	21207	19810	146927	27462	984516	40030	107780	0	0	8146	719366	0	0
2024-05-23 11:49:32			0	34498	0	0	0	21246	19830	146827	27488	984443	40032	107795	0	0	8146	718908	0	0
2024-05-23 11:50:32			0	34504	0	0	0	21236	19820	146815	27512	984427	40041	107791	0	0	8147	718663	0	0
2024-05-23 11:51:32			0	34523	0	0	0	21194	19810	146795	27296	984392	40030	107775	0	0	8148	717803	0	0
2024-05-23 11:52:32			0	34504	0	0	0	22002	19840	147095	27268	984946	40066	108086	0	0	8134	718584	0	0
2024-05-23 11:53:32			0	34645	0	0	0	22335	19910	147071	27229	985886	40127	108214	0	0	8136	711654	0	0
2024-05-23 11:54:32			0	34838	0	0	0	21810	20020	146071	27268	986486	40169	108012	0	0	8156	702197	0	0
2024-05-23 11:55:32			0	34971	0	0	0	21670	20110	145107	27312	986478	40133	107958	0	0	8166	695683	0	0
2024-05-23 11:56:32			0	35093	0	0	0	21335	20130	144407	27112	986140	40102	107829	0	0	8179	689988	0	0
2024-05-23 11:57:32			0	35085	0	0	0	21267	20150	144239	27514	985900	40060	107803	0	0	8180	690279	0	0
2024-05-23 11:58:32			0	35088	0	0	0	21174	20110	144347	27384	985469	40035	107767	0	0	8181	690293	0	0
2024-05-23 11:59:32			0	35020	0	0	0	21220	20070	144479	27469	985296	40042	107785	0	0	8177	693575	0	0
2024-05-23 12:00:32			0	34985	0	0	0	21277	20040	144651	27239	985131	40028	107807	0	0	8174	695305	0	0
2024-05-23 12:01:32			0	34934	0	0	0	21366	20040	144911	27379	985352	40040	107841	0	0	8169	697664	0	0
2024-05-23 12:02:32			0	34869	0	0	0	21428	20050	145239	27225	985546	40062	107865	0	0	8165	700640	0	0
2024-05-23 12:03:32			0	34854	0	0	0	21548	20080	145375	27474	985862	40098	107911	0	0	8162	701221	0	0
2024-05-23 12:04:32			0	34827	0	0	0	21735	20120	145535	27296	986256	40113	107983	0	0	8157	702322	0	0
2024-05-23 12:05:32			0	34857	0	0	0	21425	20190	145451	27365	986585	40119	107864	0	0	8165	700656	0	0
2024-05-23 12:06:32			0	34919	0	0	0	21428	20230	145059	27672	986485	40101	107865	0	0	8168	697627	0	0
2024-05-23 12:07:32			0	34917	0	0	0	21283	20250	144931	27265	986412	40081	107809	0	0	8171	697643	0	0
2024-05-23 12:08:32			0	34911	0	0	0	21324	20240	144819	27514	986165	40036	107825	0	0	8170	697959	0	0
2024-05-23 12:09:32			0	34892	0	0	0	21220	20210	144863	27531	985761	40022	107785	0	0	8170	698955	0	0
2024-05-23 12:10:32			0	34871	0	0	0	21233	20170	145079	27324	985623	40008	107790	0	0	8169	700084	0	0
2024-05-23 12:11:32			0	34805	0	0	0	21698	20170	145423	27206	986101	40063	107969	0	0	8157	703152	0	0
2024-05-23 12:12:32			0	34785	0	0	0	22475	20220	146127	27279	986848	40132	108268	0	0	8143	703890	0	0
2024-05-23 12:13:32			0	34935	0	0	0	22470	20310	145579	27313	987468	40163	108266	0	0	8152	696579	0	0
2024-05-23 12:14:32			0	35061	0	0	0	22449	20390	144863	27518	987921	40170	108258	0	0	8160	690466	0	0
2024-05-23 12:15:32			0	35176	0	0	0	21703	20470	144224	27274	987994	40155	107971	0	0	8179	684897	0	0
2024-05-23 12:16:32			0	35241	0	0	0	21462	20510	143596	27559	987618	40126	107878	0	0	8187	681784	0	0
2024-05-23 12:17:32			0	35274	0	0	0	21381	20470	143300	27672	986887	40068	107847	0	0	8190	680435	0	0
2024-05-23 12:18:32			0	35226	0	0	0	21335	20430	143448	27173	986599	40041	107829	0	0	8188	682769	0	0
2024-05-23 12:19:32			0	35150	0	0	0	21690	20380	143756	27322	986550	40059	107966	0	0	8177	686426	0	0
2024-05-23 12:20:32			0	35058	0	0	0	22470	20390	144583	27362	987257	40104	108266	0	0	8159	690604	0	0
2024-05-23 12:21:32			0	35097	0	0	0	22532	20450	144547	27390	987969	40176	108290	0	0	8160	688586	0	0
2024-05-23 12:22:32			0	35190	0	0	0	22428	20550	144160	27505	988386	40184	108250	0	0	8168	683956	0	0
2024-05-23 12:23:32			0	35254	0	0	0	22438	20620	143880	27206	988777	40191	108254	0	0	8171	680779	0	0
2024-05-23 12:24:32			0	35286	0	0	0	22599	20680	143576	27400	989090	40196	108316	0	0	8171	679101	0	0
2024-05-23 12:25:32			0	35316	0	0	0	22683	20740	143416	27426	989289	40190	108348	0	0	8171	677516	0	0
2024-05-23 12:26:32			0	35360	0	0	0	22696	20790	143264	27209	989567	40195	108353	0	0	8174	675340	0	0
2024-05-23 12:27:32			0	35401	0	0	0	22659	20850	142960	27377	989686	40222	108339	0	0	8177	673267	0	0
2024-05-23 12:28:32			0	35408	0	0	0	22659	20900	142852	27275	989815	40215	108339	0	0	8177	672765	0	0
2024-05-23 12:29:32			0	35444	0	0	0	22716	20940	142784	27474	989935	40230	108361	0	0	8178	670997	0	0
2024-05-23 12:30:32			0	35445	0	0	0	22615	20960	142732	27161	990004	40244	108322	0	0	8180	670878	0	0
2024-05-23 12:31:32			0	35463	0	0	0	22506	21000	142580	27360	989957	40213	108280	0	0	8183	669921	0	0
2024-05-23 12:32:32			0	35458	0	0	0	22438	21020	142436	27426	990070	40204	108254	0	0	8184	670071	0	0
2024-05-23 12:33:32			0	35450	0	0	0	22662	21030	142468	27906	990148	40217	108340	0	0	8180	670393	0	0
2024-05-23 12:34:32			0	35460	0	0	0	21922	21050	142496	27265	990075	40219	108055	0	0	8193	669870	0	0
2024-05-23 12:35:32			0	35512	0	0	0	22023	21060	142096	27324	989845	40186	108094	0	0	8194	667503	0	0
2024-05-23 12:36:32			0	35518	0	0	0	22454	21040	142040	27512	989846	40184	108260	0	0	8187	667308	0	0
2024-05-23 12:37:32			0	35495	0	0	0	22672	21040	142304	27526	989979	40207	108344	0	0	8182	668338	0	0
2024-05-23 12:38:32			0	35476	0	0	0	22540	21060	142276	27410	990031	40208	108293	0	0	8184	669115	0	0
2024-05-23 12:39:32			0	35501	0	0	0	22454	21070	142076	27421	989968	40209	108260	0	0	8187	667958	0	0
2024-05-23 12:40:32			0	35489	0	0	0	22563	21070	142060	27647	990082	40209	108302	0	0	8184	668496	0	0
2024-05-23 12:41:32			0	35461	0	0	0	22407	21090	142244	27331	990223	40222	108242	0	0	8185	669677	0	0
2024-05-23 12:42:32			0	35495	0	0	0	22563	21110	142104	27307	990248	40202	108302	0	0	8185	668079	0	0
2024-05-23 12:43:32			0	35463	0	0	0	22641	21130	142268	27326	990273	40214	108332	0	0	8182	669438	0	0
2024-05-23 12:44:32			0	35461	0	0	0	22755	21140	142308	27164	990405	40238	108376	0	0	8180	669491	0	0
2024-05-23 12:45:32			0	35445	0	0	0	22789	21170	142336	27435	990579	40229	108389	0	0	8178	670097	0	0
2024-05-23 12:46:32			0	35476	0	0	0	22836	21190	142300	27466	990781	40231	108407	0	0	8179	668633	0	0
2024-05-23 12:47:32			0	35480	0	0	0	22880	21220	142252	27495	990983	40233	108424	0	0	8179	668342	0	0
2024-05-23 12:48:32			0	35502	0	0	0	22883	21250	142156	27460	991060	40248	108425	0	0	8180	667247	0	0
2024-05-23 12:49:32			0	35524	0	0	0	22896	21260	142012	27246	991138	40259	108430	0	0	8181	666226	0	0
2024-05-23 12:50:32			0	35536	0	0	0	22901	21290	141876	27289	991207	40250	108432	0	0	8182	665579	0	0
2024-05-23 12:51:32			0	35536	0	0	0	22885	21310	141844	27582	991241	40252	108426	0	0	8182	665506	0	0
2024-05-23 12:52:32			0	35584	0	0	0	22890	21330	141660	27459	991416	40244	108428	0	0	8185	663292	0	0
2024-05-23 12:53:32			0	35566	0	0	0	22901	21340	141628	27227	991246	40256	108432	0	0	8184	664057	0	0
2024-05-23 12:54:32			0	35588	0	0	0	22867	21350	141580	27578	991361	40235	108419	0	0	8186	663040	0	0
2024-05-23 12:55:32			0	35602	0	0	0	22844	21370	141596	27121	991395	40269	108410	0	0	8187	662344	0	0
2024-05-23 12:56:32			0	35606	0	0	0	22857	21370	141472	27445	991350	40248	108415	0	0	8187	662166	0	0
2024-05-23 12:57:32			0	35613	0	0	0	22864	21380	141424	27582	991412	40258	108418	0	0	8187	661818	0	0
2024-05-23 12:58:32			0	35602	0	0	0	22851	21380	141640	27331	991385	40248	108413	0	0	8187	662307	0	0
2024-05-23 12:59:32			0	35563	0	0	0	22857	21380	141656	26955	991385	40248	108415	0	0	8184	664043	0	0
2024-05-23 13:00:32			0	35553	0	0	0	22841	21390	141720	27296	991410	40250	108409	0	0	8184	664452	0	0
2024-05-23 13:01:32			0	35549	0	0	0	22828	21390	141660	26955	991463	40250	108404	0	0	8184	664630	0	0
2024-05-23 13:02:32			0	35532	0	0	0	22825	21400	141660	27112	991445	40238	108403	0	0	8183	665351	0	0
2024-05-23 13:03:32			0	35518	0	0	0	22846	21400	141676	27281	991419	40250	108411	0	0	8182	665976	0	0
2024-05-23 13:04:32			0	35523	0	0	0	22851	21400	141792	27341	991454	40250	108413	0	0	8183	665753	0	0
2024-05-23 13:05:32			0	35492	0	0	0	22851	21390	141884	27346	991437	40250	108413	0	0	8181	667175	0	0
2024-05-23 13:06:32			0	35500	0	0	0	22844	21410	141796	27326	991489	40250	108410	0	0	8181	666743	0	0
2024-05-23 13:07:32			0	35484	0	0	0	22828	21400	141924	27346	991419	40260	108404	0	0	8181	667496	0	0
2024-05-23 13:08:32			0	35470	0	0	0	22823	21400	141892	27360	991400	40272	108402	0	0	8180	668122	0	0
2024-05-23 13:09:32			0	35474	0	0	0	22831	21420	141884	27512	991479	40263	108405	0	0	8180	667869	0	0
2024-05-23 13:10:32			0	35486	0	0	0	22831	21410	141972	27649	991409	40262	108405	0	0	8181	667369	0	0
2024-05-23 13:11:32			0	35469	0	0	0	22818	21400	141856	27402	991427	40261	108400	0	0	8180	668167	0	0
2024-05-23 13:12:32			0	35464	0	0	0	22820	21420	141880	27419	991399	40251	108401	0	0	8180	668316	0	0
2024-05-23 13:13:32			0	35480	0	0	0	22831	21410	141868	27739	991435	40262	108405	0	0	8181	667638	0	0
2024-05-23 13:14:32			0	35473	0	0	0	22836	21420	141916	27452	991417	40263	108407	0	0	8180	667914	0	0
2024-05-23 13:15:32			0	35479	0	0	0	22831	21410	141936	27429	991489	40250	108405	0	0	8181	667682	0	0
2024-05-23 13:16:32			0	35477	0	0	0	22844	21420	141864	27578	991479	40241	108410	0	0	8180	667735	0	0
2024-05-23 13:17:32			0	35486	0	0	0	22849	21420	141880	27341	991505	40251	108412	0	0	8181	667332	0	0
2024-05-23 13:18:32			0	35470	0	0	0	22857	21420	141904	27300	991497	40274	108415	0	0	8180	668048	0	0
2024-05-23 13:19:32			0	35462	0	0	0	22844	21420	141864	27431	991452	40263	108410	0	0	8179	668406	0	0
2024-05-23 13:20:32			0	35472	0	0	0	22838	21430	141892	27329	991461	40263	108408	0	0	8180	667921	0	0
2024-05-23 13:21:32			0	35480	0	0	0	22844	21420	141856	27505	991505	40251	108410	0	0	8180	667600	0	0
2024-05-23 13:22:32			0	35484	0	0	0	22828	21420	141812	27263	991479	40251	108404	0	0	8181	667421	0	0
2024-05-23 13:23:32			0	35467	0	0	0	22833	21430	141788	27443	991434	40251	108406	0	0	8180	668145	0	0
2024-05-23 13:24:32			0	35493	0	0	0	22833	21430	141896	27312	991461	40263	108406	0	0	8181	666982	0	0
2024-05-23 13:25:32			0	35488	0	0	0	22828	21430	141824	27069	991461	40251	108404	0	0	8181	667206	0	0
2024-05-23 13:26:32			0	35502	0	0	0	22841	21430	141756	27124	991487	40251	108409	0	0	8182	666580	0	0
2024-05-23 13:27:32			0	35498	0	0	0	22838	21430	141776	26955	991540	40251	108408	0	0	8182	666759	0	0
2024-05-23 13:28:32			0	35506	0	0	0	22846	21430	141768	27135	991567	40274	108411	0	0	8182	666401	0	0
2024-05-23 13:29:32			0	35525	0	0	0	22854	21430	141768	27204	991496	40263	108414	0	0	8183	665553	0	0
2024-05-23 13:30:32			0	35514	0	0	0	22851	21430	141748	27213	991575	40263	108413	0	0	8182	666044	0	0
2024-05-23 13:31:32			0	35532	0	0	0	22857	21440	141680	27131	991557	40264	108415	0	0	8183	665203	0	0
2024-05-23 13:32:32			0	35562	0	0	0	22857	21440	141600	27287	991531	40264	108415	0	0	8185	663866	0	0
2024-05-23 13:33:32			0	35567	0	0	0	22851	21450	141516	27653	991601	40264	108413	0	0	8185	663607	0	0
2024-05-23 13:34:32			0	35587	0	0	0	22828	21440	141412	27246	991610	40264	108404	0	0	8187	662753	0	0
2024-05-23 13:35:32			0	35615	0	0	0	22851	21440	141384	27105	991637	40264	108413	0	0	8188	661508	0	0
2024-05-23 13:36:32			0	35606	0	0	0	22870	21440	141420	27310	991592	40253	108420	0	0	8187	661908	0	0
2024-05-23 13:37:32			0	35605	0	0	0	22880	21450	141352	27372	991654	40276	108424	0	0	8187	661916	0	0
2024-05-23 13:38:32			0	35615	0	0	0	22885	21460	141252	27429	991759	40277	108426	0	0	8187	661435	0	0
2024-05-23 13:39:32			0	35614	0	0	0	22901	21470	141408	27144	991776	40267	108432	0	0	8187	661442	0	0
2024-05-23 13:40:32			0	35628	0	0	0	22940	21480	141364	27088	991784	40268	108447	0	0	8187	660784	0	0
2024-05-23 13:41:32			0	35626	0	0	0	23015	21480	141300	27405	991926	40280	108476	0	0	8186	660873	0	0
2024-05-23 13:42:32			0	35691	0	0	0	23044	21490	141092	27128	992022	40280	108487	0	0	8189	657955	0	0
2024-05-23 13:43:32			0	35689	0	0	0	23161	21510	141056	27249	992136	40303	108532	0	0	8187	657970	0	0
2024-05-23 13:44:32			0	35690	0	0	0	23057	21550	141100	27350	992407	40319	108492	0	0	8189	657780	0	0
2024-05-23 13:45:32			0	35705	0	0	0	22958	21560	140968	27235	992246	40297	108454	0	0	8191	657080	0	0
2024-05-23 13:46:32			0	35717	0	0	0	22966	21560	140848	27286	992246	40297	108457	0	0	8192	656549	0	0
2024-05-23 13:47:32			0	35741	0	0	0	22958	21560	140680	27639	992193	40276	108454	0	0	8193	655490	0	0
2024-05-23 13:48:32			0	35753	0	0	0	22984	21560	140744	27227	992158	40275	108464	0	0	8193	654960	0	0
2024-05-23 13:49:32			0	35741	0	0	0	23096	21570	140868	27450	992228	40288	108507	0	0	8191	655453	0	0
2024-05-23 13:50:32			0	35692	0	0	0	23145	21580	141040	27218	992387	40278	108526	0	0	8187	657581	0	0
2024-05-23 13:51:32			0	35678	0	0	0	23168	21600	140992	27377	992527	40290	108535	0	0	8186	658128	0	0
2024-05-23 13:52:32			0	35684	0	0	0	23202	21610	140996	27230	992623	40314	108548	0	0	8186	657826	0	0
2024-05-23 13:53:32			0	35696	0	0	0	23267	21640	140876	27545	992719	40304	108573	0	0	8186	657185	0	0
2024-05-23 13:54:32			0	35700	0	0	0	23251	21670	140884	27429	992902	40318	108567	0	0	8187	656899	0	0
2024-05-23 13:55:32			0	35734	0	0	0	23238	21690	140848	27583	992962	40320	108562	0	0	8189	655324	0	0
2024-05-23 13:56:32			0	35768	0	0	0	23176	21710	140684	27633	993094	40310	108538	0	0	8192	653753	0	0
2024-05-23 13:57:32			0	35774	0	0	0	23093	21730	140468	27364	993048	40312	108506	0	0	8193	653416	0	0
2024-05-23 13:58:32			0	35796	0	0	0	23020	21720	140412	27588	992827	40301	108478	0	0	8196	652485	0	0
2024-05-23 13:59:32			0	35768	0	0	0	22976	21720	140480	27185	992712	40290	108461	0	0	8195	653717	0	0
2024-05-23 14:00:32			0	35730	0	0	0	22945	21690	140632	27492	992598	40265	108449	0	0	8193	655501	0	0
2024-05-23 14:01:32			0	35720	0	0	0	22989	21680	140684	27396	992475	40287	108466	0	0	8192	655979	0	0
2024-05-23 14:02:32			0	35689	0	0	0	23002	21660	140876	27706	992521	40285	108471	0	0	8190	657422	0	0
2024-05-23 14:03:32			0	35668	0	0	0	23041	21670	140912	27516	992556	40285	108486	0	0	8188	658314	0	0
2024-05-23 14:04:32			0	35653	0	0	0	23007	21640	141016	27381	992381	40283	108473	0	0	8188	659088	0	0
2024-05-23 14:05:32			0	35637	0	0	0	22979	21660	141040	27324	992433	40285	108462	0	0	8188	659724	0	0
2024-05-23 14:06:32			0	35628	0	0	0	22986	21640	141052	27396	992355	40283	108465	0	0	8187	660196	0	0
2024-05-23 14:07:32			0	35624	0	0	0	22976	21630	141076	27566	992338	40272	108461	0	0	8187	660410	0	0
2024-05-23 14:08:32			0	35627	0	0	0	22961	21630	141128	27403	992383	40282	108455	0	0	8187	660277	0	0
2024-05-23 14:09:32			0	35597	0	0	0	22953	21620	141156	27633	992348	40281	108452	0	0	8186	661646	0	0
2024-05-23 14:10:32			0	35611	0	0	0	22986	21620	141152	27396	992339	40291	108465	0	0	8186	661024	0	0
2024-05-23 14:11:32			0	35599	0	0	0	22979	21610	141192	27298	992277	40281	108462	0	0	8185	661594	0	0
2024-05-23 14:12:32			0	35588	0	0	0	23025	21620	141248	27180	992313	40281	108480	0	0	8184	662046	0	0
2024-05-23 14:13:32			0	35577	0	0	0	23041	21620	141332	27365	992454	40270	108486	0	0	8183	662535	0	0
2024-05-23 14:14:32			0	35569	0	0	0	23088	21620	141356	27317	992427	40281	108504	0	0	8182	662891	0	0
2024-05-23 14:15:32			0	35566	0	0	0	23077	21630	141408	27383	992551	40283	108500	0	0	8182	662987	0	0
2024-05-23 14:16:32			0	35563	0	0	0	23072	21640	141400	27478	992541	40272	108498	0	0	8182	663084	0	0
2024-05-23 14:17:32			0	35550	0	0	0	23046	21640	141356	27436	992514	40283	108488	0	0	8182	663662	0	0
2024-05-23 14:18:32			0	35562	0	0	0	23036	21650	141376	27656	992523	40294	108484	0	0	8183	663091	0	0
2024-05-23 14:19:32			0	35567	0	0	0	23051	21640	141392	27365	992461	40293	108490	0	0	8183	662906	0	0
2024-05-23 14:20:32			0	35550	0	0	0	22971	21640	141336	27381	992426	40283	108459	0	0	8183	663662	0	0
2024-05-23 14:21:32			0	35583	0	0	0	22911	21630	141336	27237	992311	40283	108436	0	0	8186	662231	0	0
2024-05-23 14:22:32			0	35563	0	0	0	22857	21620	141292	27345	992161	40258	108415	0	0	8186	663157	0	0
2024-05-23 14:23:32			0	35591	0	0	0	22833	21610	141244	27464	992030	40269	108406	0	0	8187	661949	0	0
2024-05-23 14:24:32			0	35617	0	0	0	22857	21590	141148	27374	991996	40267	108415	0	0	8188	660868	0	0
2024-05-23 14:25:32			0	35649	0	0	0	22877	21560	141048	27516	991980	40264	108423	0	0	8190	659559	0	0
2024-05-23 14:26:32			0	35665	0	0	0	22896	21560	141048	27052	992007	40253	108430	0	0	8190	658850	0	0
2024-05-23 14:27:32			0	35682	0	0	0	22877	21550	140976	27287	991884	40275	108423	0	0	8191	658134	0	0
2024-05-23 14:28:32			0	35642	0	0	0	22885	21550	141096	27488	991884	40275	108426	0	0	8189	659906	0	0
2024-05-23 14:29:32			0	35644	0	0	0	22940	21550	141096	27557	991963	40275	108447	0	0	8188	659817	0	0
2024-05-23 14:30:32			0	35614	0	0	0	22924	21550	141124	27114	991982	40275	108441	0	0	8187	661148	0	0
2024-05-23 14:31:32			0	35612	0	0	0	22914	21550	141360	27345	992008	40264	108437	0	0	8187	661237	0	0
2024-05-23 14:32:32			0	35591	0	0	0	22911	21550	141172	27230	991937	40264	108436	0	0	8186	662170	0	0
2024-05-23 14:33:32			0	35591	0	0	0	22927	21540	141288	27607	991965	40273	108442	0	0	8186	662207	0	0
2024-05-23 14:34:32			0	35616	0	0	0	22948	21540	141292	27403	991991	40273	108450	0	0	8187	661096	0	0
2024-05-23 14:35:32			0	35600	0	0	0	23033	21550	141344	27386	992061	40275	108483	0	0	8184	661770	0	0
2024-05-23 14:36:32			0	35579	0	0	0	23075	21560	141456	27416	992246	40297	108499	0	0	8182	662667	0	0
2024-05-23 14:37:32			0	35597	0	0	0	23096	21560	141392	27670	992246	40297	108507	0	0	8183	661867	0	0
2024-05-23 14:38:32			0	35617	0	0	0	23090	21590	141296	27705	992422	40300	108505	0	0	8184	660868	0	0
2024-05-23 14:39:32			0	35626	0	0	0	23070	21590	141188	27338	992430	40290	108497	0	0	8185	660469	0	0
2024-05-23 14:40:32			0	35637	0	0	0	23057	21600	141156	27511	992474	40290	108492	0	0	8186	659944	0	0
2024-05-23 14:41:32			0	35635	0	0	0	23046	21610	141208	27400	992517	40291	108488	0	0	8186	659996	0	0
2024-05-23 14:42:32			0	35617	0	0	0	23044	21600	141108	27493	992367	40279	108487	0	0	8185	660831	0	0
2024-05-23 14:43:32			0	35608	0	0	0	23038	21610	141208	27426	992455	40291	108485	0	0	8185	661194	0	0
2024-05-23 14:44:32			0	35586	0	0	0	23028	21610	141276	27493	992357	40270	108481	0	0	8184	662172	0	0
2024-05-23 14:45:32			0	35590	0	0	0	23038	21620	141308	27524	992427	40281	108485	0	0	8184	661957	0	0
2024-05-23 14:46:32			0	35600	0	0	0	23062	21620	141296	27578	992507	40291	108494	0	0	8184	661513	0	0
2024-05-23 14:47:32			0	35577	0	0	0	23114	21620	141344	27474	992534	40281	108514	0	0	8182	662535	0	0
2024-05-23 14:48:32			0	35552	0	0	0	23122	21630	141396	27554	992604	40304	108517	0	0	8181	663610	0	0
2024-05-23 14:49:32			0	35560	0	0	0	23132	21640	141512	27573	992692	40304	108521	0	0	8181	663217	0	0
2024-05-23 14:50:32			0	35549	0	0	0	23142	21650	141496	27485	992717	40317	108525	0	0	8180	663670	0	0
2024-05-23 14:51:32			0	35545	0	0	0	23148	21670	141492	27524	992689	40307	108527	0	0	8180	663774	0	0
2024-05-23 14:52:32			0	35522	0	0	0	23158	21660	141604	27504	992752	40306	108531	0	0	8178	664836	0	0
2024-05-23 14:53:32			0	35527	0	0	0	23161	21680	141560	27604	992794	40320	108532	0	0	8179	664539	0	0
2024-05-23 14:54:32			0	35528	0	0	0	23161	21690	141512	27445	992856	40320	108532	0	0	8179	664457	0	0
2024-05-23 14:55:32			0	35497	0	0	0	23179	21690	141628	27293	992838	40310	108539	0	0	8177	665840	0	0
2024-05-23 14:56:32			0	35497	0	0	0	23184	21700	141744	27573	992953	40310	108541	0	0	8177	665803	0	0
2024-05-23 14:57:32			0	35460	0	0	0	23179	21710	141732	27504	992970	40299	108539	0	0	8175	667418	0	0
2024-05-23 14:58:32			0	35459	0	0	0	23161	21720	141644	27441	992978	40300	108532	0	0	8175	667426	0	0
2024-05-23 14:59:32			0	35469	0	0	0	23202	21730	141760	27428	992968	40312	108548	0	0	8175	666942	0	0
2024-05-23 15:00:32			0	35467	0	0	0	23241	21730	141936	27223	993022	40301	108563	0	0	8174	667031	0	0
2024-05-23 15:01:32			0	35458	0	0	0	23231	21740	141792	27325	993092	40324	108559	0	0	8174	667396	0	0
2024-05-23 15:02:32			0	35444	0	0	0	23199	21740	141912	27209	993100	40314	108547	0	0	8174	668022	0	0
2024-05-23 15:03:32			0	35441	0	0	0	23192	21760	141848	27445	993134	40304	108544	0	0	8174	668082	0	0
2024-05-23 15:04:32			0	35426	0	0	0	23215	21770	141756	27319	993124	40317	108553	0	0	8173	668716	0	0
2024-05-23 15:05:32			0	35417	0	0	0	23223	21780	141792	27265	993194	40318	108556	0	0	8172	669081	0	0
2024-05-23 15:06:32			0	35439	0	0	0	23215	21780	141736	27549	993185	40328	108553	0	0	8174	668097	0	0
2024-05-23 15:07:32			0	35422	0	0	0	23218	21780	141812	27086	993185	40317	108554	0	0	8173	668858	0	0
2024-05-23 15:08:32			0	35430	0	0	0	23067	21790	141784	27646	993202	40285	108496	0	0	8176	668462	0	0
2024-05-23 15:09:32			0	35423	0	0	0	22999	21770	141644	27533	992982	40293	108470	0	0	8176	668850	0	0
2024-05-23 15:10:32			0	35432	0	0	0	23010	21760	141656	27305	992868	40304	108474	0	0	8177	668484	0	0
2024-05-23 15:11:32			0	35456	0	0	0	23054	21750	141608	27305	992877	40292	108491	0	0	8177	667448	0	0
2024-05-23 15:12:32			0	35469	0	0	0	22994	21750	141580	27505	992789	40291	108468	0	0	8179	666867	0	0
2024-05-23 15:13:32			0	35492	0	0	0	22976	21730	141356	27228	992764	40291	108461	0	0	8180	665915	0	0
2024-05-23 15:14:32			0	35507	0	0	0	22929	21710	141296	27353	992597	40289	108443	0	0	8182	665320	0	0
2024-05-23 15:15:32			0	35513	0	0	0	22922	21700	141360	27578	992500	40277	108440	0	0	8182	665089	0	0
2024-05-23 15:16:32			0	35510	0	0	0	22909	21670	141436	27209	992272	40275	108435	0	0	8182	665334	0	0
2024-05-23 15:17:32			0	35519	0	0	0	22898	21650	141336	27457	992256	40272	108431	0	0	8183	665007	0	0
2024-05-23 15:18:32			0	35527	0	0	0	22919	21630	141432	27426	992196	40282	108439	0	0	8183	664724	0	0
2024-05-23 15:19:32			0	35530	0	0	0	22948	21630	141376	27417	992276	40259	108450	0	0	8182	664590	0	0
2024-05-23 15:20:32			0	35538	0	0	0	22922	21620	141364	27100	992259	40258	108440	0	0	8183	664271	0	0
2024-05-23 15:21:32			0	35558	0	0	0	22854	21600	141300	27383	992199	40267	108414	0	0	8185	663454	0	0
2024-05-23 15:22:32			0	35507	0	0	0	22870	21590	141504	27235	992164	40278	108420	0	0	8182	665764	0	0
2024-05-23 15:23:32			0	35465	0	0	0	22883	21590	141460	27497	992076	40267	108425	0	0	8180	667640	0	0
2024-05-23 15:24:32			0	35459	0	0	0	22893	21580	141656	27225	992032	40288	108429	0	0	8179	667946	0	0
2024-05-23 15:25:32			0	35451	0	0	0	22914	21570	141756	27050	992104	40265	108437	0	0	8178	668341	0	0
2024-05-23 15:26:32			0	35460	0	0	0	22927	21560	141696	27235	992113	40243	108442	0	0	8179	667975	0	0
2024-05-23 15:27:32			0	35458	0	0	0	22974	21560	141784	27222	992087	40287	108460	0	0	8178	668065	0	0
2024-05-23 15:28:32			0	35435	0	0	0	22979	21560	141920	27346	992158	40275	108462	0	0	8176	669094	0	0
2024-05-23 15:29:32			0	35419	0	0	0	22953	21560	141960	27376	992185	40286	108452	0	0	8176	669811	0	0
2024-05-23 15:30:32			0	35439	0	0	0	22937	21570	142012	27486	992148	40277	108446	0	0	8177	668878	0	0
2024-05-23 15:31:32			0	35436	0	0	0	22929	21570	141872	27095	992183	40277	108443	0	0	8177	669012	0	0
2024-05-23 15:32:32			0	35421	0	0	0	22916	21560	141832	27338	992105	40275	108438	0	0	8177	669722	0	0
2024-05-23 15:33:32			0	35426	0	0	0	22927	21570	141920	27393	992183	40288	108442	0	0	8177	669461	0	0
2024-05-23 15:34:32			0	35405	0	0	0	22945	21570	141924	27211	992148	40277	108449	0	0	8175	670402	0	0
2024-05-23 15:35:32			0	35434	0	0	0	22961	21560	141900	27199	992140	40276	108455	0	0	8177	669139	0	0
2024-05-23 15:36:32			0	35402	0	0	0	22968	21560	141976	27422	992105	40286	108458	0	0	8175	670574	0	0
2024-05-23 15:37:32			0	35425	0	0	0	22974	21560	142180	27199	992132	40286	108460	0	0	8176	669543	0	0
2024-05-23 15:38:32			0	35421	0	0	0	22971	21560	142044	27448	992220	40287	108459	0	0	8176	669722	0	0
2024-05-23 15:39:32			0	35410	0	0	0	22966	21570	142124	27313	992183	40288	108457	0	0	8175	670178	0	0
2024-05-23 15:40:32			0	35413	0	0	0	22953	21570	142116	27426	992122	40277	108452	0	0	8176	670043	0	0
2024-05-23 15:41:32			0	35422	0	0	0	22953	21560	142044	27092	992140	40287	108452	0	0	8176	669677	0	0
2024-05-23 15:42:32			0	35410	0	0	0	22968	21560	141960	27031	992140	40287	108458	0	0	8175	670215	0	0
2024-05-23 15:43:32			0	35435	0	0	0	22971	21560	142024	27400	992193	40287	108459	0	0	8176	669094	0	0
2024-05-23 15:44:32			0	35413	0	0	0	22974	21560	142068	27377	992220	40276	108460	0	0	8175	670081	0	0
2024-05-23 15:45:32			0	35423	0	0	0	22981	21570	141972	27121	992175	40288	108463	0	0	8176	669595	0	0
2024-05-23 15:46:32			0	35408	0	0	0	23002	21560	142044	27511	992246	40287	108471	0	0	8174	670305	0	0
2024-05-23 15:47:32			0	35395	0	0	0	23038	21580	142104	27109	992351	40288	108485	0	0	8173	670813	0	0
2024-05-23 15:48:32			0	35407	0	0	0	23051	21580	142160	27088	992334	40299	108490	0	0	8174	670275	0	0
2024-05-23 15:49:32			0	35408	0	0	0	23005	21600	142032	27097	992439	40290	108472	0	0	8175	670156	0	0
2024-05-23 15:50:32			0	35424	0	0	0	22976	21590	141940	27353	992324	40300	108461	0	0	8176	669476	0	0
2024-05-23 15:51:32			0	35423	0	0	0	22953	21590	141872	27196	992262	40278	108452	0	0	8176	669520	0	0
2024-05-23 15:52:32			0	35442	0	0	0	22932	21590	141996	27507	992271	40290	108444	0	0	8178	668669	0	0
2024-05-23 15:53:32			0	35451	0	0	0	22927	21580	141872	27348	992147	40266	108442	0	0	8178	668304	0	0
2024-05-23 15:54:32			0	35427	0	0	0	22927	21580	141888	27223	992147	40278	108442	0	0	8177	669378	0	0
2024-05-23 15:55:32			0	35428	0	0	0	22919	21570	141748	27248	992148	40265	108439	0	0	8177	669371	0	0
2024-05-23 15:56:32			0	35426	0	0	0	22885	21570	141864	27230	992104	40277	108426	0	0	8177	669461	0	0
2024-05-23 15:57:32			0	35429	0	0	0	22833	21570	141884	27602	991989	40277	108406	0	0	8178	669326	0	0
2024-05-23 15:58:32			0	35442	0	0	0	22802	21540	141904	27201	991947	40251	108394	0	0	8180	668855	0	0
2024-05-23 15:59:32			0	35448	0	0	0	22812	21530	141892	27277	991850	40250	108398	0	0	8180	668624	0	0
2024-05-23 16:00:32			0	35491	0	0	0	22838	21520	141856	27351	991878	40271	108408	0	0	8182	666738	0	0
2024-05-23 16:01:32			0	35497	0	0	0	22867	21510	141696	27170	991843	40249	108419	0	0	8181	666507	0	0
2024-05-23 16:02:32			0	35476	0	0	0	22836	21510	141788	27248	991843	40259	108407	0	0	8181	667445	0	0
2024-05-23 16:03:32			0	35480	0	0	0	22849	21500	141744	27170	991800	40282	108412	0	0	8181	667304	0	0
2024-05-23 16:04:32			0	35457	0	0	0	22864	21500	141896	27265	991791	40270	108418	0	0	8179	668332	0	0
2024-05-23 16:05:32			0	35465	0	0	0	22862	21490	141900	27124	991836	40269	108417	0	0	8180	668012	0	0
2024-05-23 16:06:32			0	35462	0	0	0	22864	21500	141932	27045	991844	40270	108418	0	0	8179	668109	0	0
2024-05-23 16:07:32			0	35449	0	0	0	22849	21500	141912	27152	991818	40270	108412	0	0	8179	668691	0	0
2024-05-23 16:08:32			0	35452	0	0	0	22836	21490	141880	27286	991783	40257	108407	0	0	8179	668594	0	0
2024-05-23 16:09:32			0	35447	0	0	0	22815	21490	142016	27298	991748	40269	108399	0	0	8179	668817	0	0
2024-05-23 16:10:32			0	35449	0	0	0	22812	21490	141780	26854	991748	40257	108398	0	0	8180	668728	0	0
2024-05-23 16:11:32			0	35477	0	0	0	22820	21480	141856	27043	991740	40257	108401	0	0	8181	667512	0	0
2024-05-23 16:12:32			0	35505	0	0	0	22833	21480	141804	27239	991704	40257	108406	0	0	8182	666261	0	0
2024-05-23 16:13:32			0	35496	0	0	0	22818	21470	141760	27428	991661	40277	108400	0	0	8182	666700	0	0
2024-05-23 16:14:32			0	35506	0	0	0	22758	21460	141780	27312	991626	40266	108377	0	0	8183	666290	0	0
2024-05-23 16:15:32			0	35504	0	0	0	22701	21470	141744	27147	991661	40255	108355	0	0	8184	666342	0	0
2024-05-23 16:16:32			0	35476	0	0	0	22670	21450	141796	27171	991529	40254	108343	0	0	8183	667668	0	0
2024-05-23 16:17:32			0	35481	0	0	0	22662	21440	141760	27215	991486	40253	108340	0	0	8184	667482	0	0
2024-05-23 16:18:32			0	35481	0	0	0	22688	21420	141748	27170	991399	40251	108350	0	0	8183	667556	0	0
2024-05-23 16:19:32			0	35475	0	0	0	22620	21400	141812	27395	991365	40238	108324	0	0	8184	667898	0	0
2024-05-23 16:20:32			0	35493	0	0	0	22537	21390	141792	26960	991277	40238	108292	0	0	8186	667130	0	0
2024-05-23 16:21:32			0	35473	0	0	0	22493	21380	141736	27114	991101	40226	108275	0	0	8186	668062	0	0
2024-05-23 16:22:32			0	35505	0	0	0	22462	21370	141648	27265	991084	40237	108263	0	0	8188	666668	0	0
2024-05-23 16:23:32			0	35514	0	0	0	22379	21350	141616	27204	990917	40235	108231	0	0	8190	666340	0	0
2024-05-23 16:24:32			0	35546	0	0	0	22337	21320	141476	27194	990734	40200	108215	0	0	8192	665022	0	0
2024-05-23 16:25:32			0	35544	0	0	0	22267	21300	141452	27133	990541	40198	108188	0	0	8193	665186	0	0
2024-05-23 16:26:32			0	35533	0	0	0	22205	21280	141396	27272	990366	40195	108164	0	0	8193	665750	0	0
2024-05-23 16:27:32			0	35511	0	0	0	22228	21230	141512	27407	990122	40179	108173	0	0	8192	666918	0	0
2024-05-23 16:28:32			0	35511	0	0	0	22199	21180	141636	27201	989913	40175	108162	0	0	8192	667103	0	0
2024-05-23 16:29:32			0	35523	0	0	0	22181	21140	141684	27535	989785	40182	108155	0	0	8193	666715	0	0
2024-05-23 16:30:32			0	35489	0	0	0	22210	21110	141772	27478	989636	40179	108166	0	0	8190	668347	0	0
2024-05-23 16:31:32			0	35430	0	0	0	22251	21080	142060	27293	989727	40188	108182	0	0	8186	671105	0	0
2024-05-23 16:32:32			0	35368	0	0	0	22267	21080	142472	27395	989719	40188	108188	0	0	8183	673895	0	0
2024-05-23 16:33:32			0	35338	0	0	0	22309	21060	142560	27248	989773	40186	108204	0	0	8180	675322	0	0
2024-05-23 16:34:32			0	35304	0	0	0	22329	21060	142648	27215	989773	40186	108212	0	0	8178	676858	0	0
2024-05-23 16:35:32			0	35291	0	0	0	22298	21050	142748	27317	989756	40175	108200	0	0	8178	677484	0	0
2024-05-23 16:36:32			0	35274	0	0	0	22275	21040	142856	27272	989607	40196	108191	0	0	8177	678291	0	0
2024-05-23 16:37:32			0	35257	0	0	0	22410	21040	143000	27498	989899	40207	108243	0	0	8174	679061	0	0
2024-05-23 16:38:32			0	35319	0	0	0	22223	21050	142676	27301	989642	40197	108171	0	0	8180	676218	0	0
2024-05-23 16:39:32			0	35341	0	0	0	22205	21020	142500	27329	989512	40171	108164	0	0	8182	675337	0	0
2024-05-23 16:40:32			0	35342	0	0	0	22238	20990	142468	27450	989443	40180	108177	0	0	8181	675404	0	0
2024-05-23 16:41:32			0	35300	0	0	0	22296	20980	142672	27488	989506	40179	108199	0	0	8178	677340	0	0
2024-05-23 16:42:32			0	35288	0	0	0	22290	20980	142700	27412	989498	40189	108197	0	0	8177	677883	0	0
2024-05-23 16:43:32			0	35276	0	0	0	22384	20970	142884	27241	989569	40201	108233	0	0	8175	678463	0	0
2024-05-23 16:44:32			0	35269	0	0	0	22540	20980	143028	27248	989764	40211	108293	0	0	8172	678743	0	0
2024-05-23 16:45:32			0	35285	0	0	0	22561	21010	142968	27428	989973	40215	108301	0	0	8173	677906	0	0
2024-05-23 16:46:32			0	35293	0	0	0	22394	21020	142880	27029	989866	40215	108237	0	0	8176	677506	0	0
2024-05-23 16:47:32			0	35322	0	0	0	22470	21020	142700	27124	989812	40215	108266	0	0	8176	676195	0	0
2024-05-23 16:48:32			0	35316	0	0	0	22628	21040	142848	27545	990112	40228	108327	0	0	8173	676391	0	0
2024-05-23 16:49:32			0	35339	0	0	0	22745	21050	142760	27220	990288	40241	108372	0	0	8173	675315	0	0
2024-05-23 16:50:32			0	35348	0	0	0	22654	21090	142700	27360	990454	40254	108337	0	0	8175	674759	0	0
2024-05-23 16:51:32			0	35375	0	0	0	22612	21110	142508	27296	990469	40235	108321	0	0	8177	673467	0	0
2024-05-23 16:52:32			0	35400	0	0	0	22599	21140	142496	27064	990458	40238	108316	0	0	8179	672230	0	0
2024-05-23 16:53:32			0	35395	0	0	0	22649	21140	142284	27053	990564	40249	108335	0	0	8178	672455	0	0
2024-05-23 16:54:32			0	35379	0	0	0	22618	21170	142392	27144	990694	40229	108323	0	0	8178	673063	0	0
2024-05-23 16:55:32			0	35388	0	0	0	22592	21190	142448	27201	990728	40253	108313	0	0	8179	672583	0	0
2024-05-23 16:56:32			0	35392	0	0	0	22519	21200	142340	27161	990745	40232	108285	0	0	8180	672366	0	0
2024-05-23 16:57:32			0	35375	0	0	0	22301	21200	142428	27052	990577	40220	108201	0	0	8183	673131	0	0
2024-05-23 16:58:32			0	35384	0	0	0	22223	21190	142348	27185	990188	40198	108171	0	0	8185	672763	0	0
2024-05-23 16:59:32			0	35403	0	0	0	22210	21150	142196	26979	989908	40183	108166	0	0	8186	672058	0	0
2024-05-23 17:00:32			0	35430	0	0	0	22189	21100	142176	26989	989761	40168	108158	0	0	8187	671031	0	0
2024-05-23 17:01:32			0	35428	0	0	0	22176	21060	142180	27345	989614	40165	108153	0	0	8187	671269	0	0
2024-05-23 17:02:32			0	35428	0	0	0	22163	21030	142140	27421	989457	40173	108148	0	0	8187	671381	0	0
2024-05-23 17:03:32			0	35458	0	0	0	22148	20990	142108	27457	989231	40169	108142	0	0	8189	670183	0	0
2024-05-23 17:04:32			0	35467	0	0	0	22145	20980	142048	27270	989232	40167	108141	0	0	8190	669816	0	0
2024-05-23 17:05:32			0	35457	0	0	0	22153	20960	142108	27168	989145	40177	108144	0	0	8189	670339	0	0
2024-05-23 17:06:32			0	35432	0	0	0	22236	20940	142208	27329	989200	40176	108176	0	0	8186	671536	0	0
2024-05-23 17:07:32			0	35414	0	0	0	22407	20940	142432	27227	989377	40197	108242	0	0	8182	672346	0	0
2024-05-23 17:08:32			0	35396	0	0	0	22366	20950	142636	27464	989482	40208	108226	0	0	8182	673119	0	0
2024-05-23 17:09:32			0	35363	0	0	0	22366	20960	142692	27024	989499	40210	108226	0	0	8180	674569	0	0
2024-05-23 17:10:32			0	35336	0	0	0	22262	20970	142712	27298	989561	40211	108186	0	0	8180	675750	0	0
2024-05-23 17:11:32			0	35325	0	0	0	22210	20970	142776	27357	989481	40201	108166	0	0	8181	676247	0	0
2024-05-23 17:12:32			0	35339	0	0	0	22184	20960	142656	27206	989384	40177	108156	0	0	8182	675652	0	0
2024-05-23 17:13:32			0	35369	0	0	0	22166	20940	142412	26968	989146	40165	108149	0	0	8184	674373	0	0
2024-05-23 17:14:32			0	35409	0	0	0	22184	20910	142420	27249	989123	40172	108156	0	0	8185	672683	0	0
2024-05-23 17:15:32			0	35436	0	0	0	22155	20910	142292	27059	989088	40183	108145	0	0	8187	671468	0	0
2024-05-23 17:16:32			0	35442	0	0	0	22142	20890	142308	27164	989001	40181	108140	0	0	8188	671273	0	0
2024-05-23 17:17:32			0	35418	0	0	0	22080	20870	142272	27163	988896	40169	108116	0	0	8187	672427	0	0
2024-05-23 17:18:32			0	35410	0	0	0	22049	20860	142320	27157	988853	40157	108104	0	0	8188	672824	0	0
2024-05-23 17:19:32			0	35412	0	0	0	22080	20840	142372	27249	988784	40166	108116	0	0	8187	672809	0	0
2024-05-23 17:20:32			0	35410	0	0	0	22145	20830	142360	27159	988829	40166	108141	0	0	8186	672936	0	0
2024-05-23 17:21:32			0	35410	0	0	0	22332	20840	142560	27142	989077	40200	108213	0	0	8183	672899	0	0
2024-05-23 17:22:32			0	35364	0	0	0	22348	20860	142664	27461	989331	40201	108219	0	0	8180	674898	0	0
2024-05-23 17:23:32			0	35350	0	0	0	22335	20890	142704	27317	989373	40213	108214	0	0	8180	675417	0	0
2024-05-23 17:24:32			0	35340	0	0	0	22311	20900	142868	27277	989390	40194	108205	0	0	8179	675831	0	0
2024-05-23 17:25:32			0	35331	0	0	0	22285	20910	142868	27163	989415	40206	108195	0	0	8179	676200	0	0
2024-05-23 17:26:32			0	35311	0	0	0	22257	20920	142844	27362	989432	40185	108184	0	0	8179	677067	0	0
2024-05-23 17:27:32			0	35295	0	0	0	22202	20920	142852	27400	989317	40184	108163	0	0	8179	677791	0	0
2024-05-23 17:28:32			0	35299	0	0	0	22127	20900	142912	27161	989239	40183	108134	0	0	8180	677685	0	0
2024-05-23 17:29:32			0	35304	0	0	0	22098	20890	142728	27138	989036	40182	108123	0	0	8181	677496	0	0
2024-05-23 17:30:32			0	35331	0	0	0	22122	20880	142572	27007	989011	40181	108132	0	0	8182	676313	0	0
2024-05-23 17:31:32			0	35378	0	0	0	22129	20870	142500	27355	989003	40169	108135	0	0	8184	674229	0	0
2024-05-23 17:32:32			0	35415	0	0	0	22218	20860	142452	27435	989012	40168	108169	0	0	8185	672599	0	0
2024-05-23 17:33:32			0	35455	0	0	0	22277	20890	142304	27663	989214	40192	108192	0	0	8186	670689	0	0
2024-05-23 17:34:32			0	35453	0	0	0	22405	20890	142368	27561	989435	40204	108241	0	0	8184	670779	0	0
2024-05-23 17:35:32			0	35413	0	0	0	22451	20910	142424	27388	989601	40216	108259	0	0	8181	672503	0	0
2024-05-23 17:36:32			0	35410	0	0	0	22831	20950	142604	27351	990138	40275	108405	0	0	8175	672489	0	0
2024-05-23 17:37:32			0	35413	0	0	0	22610	21020	142556	27327	990362	40270	108320	0	0	8179	672093	0	0
2024-05-23 17:38:32			0	35455	0	0	0	22776	21060	142360	27490	990483	40252	108384	0	0	8179	670057	0	0
2024-05-23 17:39:32			0	35464	0	0	0	22664	21100	142340	27383	990550	40245	108341	0	0	8181	669505	0	0
2024-05-23 17:40:32			0	35473	0	0	0	22615	21110	142168	27412	990549	40235	108322	0	0	8182	669064	0	0
2024-05-23 17:41:32			0	35478	0	0	0	22581	21150	142148	27653	990607	40227	108309	0	0	8184	668692	0	0
2024-05-23 17:42:32			0	35468	0	0	0	22444	21160	142116	27326	990491	40229	108256	0	0	8185	669103	0	0
2024-05-23 17:43:32			0	35466	0	0	0	22454	21140	142220	27282	990378	40216	108260	0	0	8185	669267	0	0
2024-05-23 17:44:32			0	35459	0	0	0	22363	21140	142136	27334	990343	40204	108225	0	0	8186	669580	0	0
2024-05-23 17:45:32			0	35451	0	0	0	22335	21130	142076	27668	990113	40204	108214	0	0	8186	669976	0	0
2024-05-23 17:46:32			0	35422	0	0	0	22386	21100	142244	27268	990133	40202	108234	0	0	8184	671390	0	0
2024-05-23 17:47:32			0	35416	0	0	0	22402	21100	142240	27362	990098	40211	108240	0	0	8183	671660	0	0
2024-05-23 17:48:32			0	35417	0	0	0	22436	21090	142228	27279	990169	40201	108253	0	0	8182	671652	0	0
2024-05-23 17:49:32			0	35390	0	0	0	22397	21100	142276	27571	990151	40211	108238	0	0	8182	672829	0	0
2024-05-23 17:50:32			0	35410	0	0	0	22423	21100	142324	27462	990213	40212	108248	0	0	8182	671930	0	0
2024-05-23 17:51:32			0	35401	0	0	0	22548	21100	142324	27341	990231	40211	108296	0	0	8180	672334	0	0
2024-05-23 17:52:32			0	35411	0	0	0	22503	21110	142296	27476	990336	40224	108279	0	0	8181	671847	0	0
2024-05-23 17:53:32			0	35418	0	0	0	22620	21150	142316	27524	990572	40249	108324	0	0	8180	671384	0	0
2024-05-23 17:54:32			0	35384	0	0	0	22672	21180	142364	27580	990844	40263	108344	0	0	8177	672801	0	0
2024-05-23 17:55:32			0	35409	0	0	0	22586	21210	142296	27504	991001	40244	108311	0	0	8180	671564	0	0
2024-05-23 17:56:32			0	35392	0	0	0	22696	21240	142296	27500	990972	40247	108353	0	0	8177	672217	0	0
2024-05-23 17:57:32			0	35401	0	0	0	22586	21270	142284	27469	991147	40249	108311	0	0	8180	671700	0	0
2024-05-23 17:58:32			0	35418	0	0	0	22568	21280	142144	27443	991137	40261	108304	0	0	8181	670899	0	0
2024-05-23 17:59:32			0	35411	0	0	0	22428	21290	142212	27248	991056	40218	108250	0	0	8183	671176	0	0
2024-05-23 18:00:32			0	35417	0	0	0	22451	21290	142044	27466	991047	40218	108259	0	0	8183	670907	0	0
2024-05-23 18:01:32			0	35470	0	0	0	22496	21300	141908	27308	991073	40219	108276	0	0	8185	668493	0	0
2024-05-23 18:02:32			0	35502	0	0	0	22558	21320	141808	27281	991231	40231	108300	0	0	8186	666987	0	0
2024-05-23 18:03:32			0	35539	0	0	0	22722	21330	141580	27227	991416	40266	108363	0	0	8185	665298	0	0
2024-05-23 18:04:32			0	35555	0	0	0	22675	21360	141556	27341	991626	40247	108345	0	0	8187	664473	0	0
2024-05-23 18:05:32			0	35566	0	0	0	22870	21390	141556	27376	991774	40250	108420	0	0	8184	663872	0	0
2024-05-23 18:06:32			0	35544	0	0	0	22851	21420	141472	27466	991931	40274	108413	0	0	8184	664742	0	0
2024-05-23 18:07:32			0	35548	0	0	0	22940	21440	141604	27715	992018	40264	108447	0	0	8183	664490	0	0
2024-05-23 18:08:32			0	35525	0	0	0	22844	21470	141644	27526	992202	40267	108410	0	0	8183	665405	0	0
2024-05-23 18:09:32			0	35514	0	0	0	22916	21500	141648	27668	992225	40270	108438	0	0	8181	665785	0	0
2024-05-23 18:10:32			0	35501	0	0	0	23010	21520	141744	27164	992410	40271	108474	0	0	8179	666291	0	0
2024-05-23 18:11:32			0	35485	0	0	0	23179	21560	141852	27320	992752	40253	108539	0	0	8176	666858	0	0
2024-05-23 18:12:32			0	35478	0	0	0	23171	21610	141808	27199	992988	40291	108536	0	0	8176	666985	0	0
2024-05-23 18:13:32			0	35489	0	0	0	23127	21640	141820	27518	993073	40304	108519	0	0	8177	666382	0	0
2024-05-23 18:14:32			0	35503	0	0	0	23262	21680	141664	27417	993265	40297	108571	0	0	8176	665609	0	0
2024-05-23 18:15:32			0	35488	0	0	0	23296	21710	141672	27405	993360	40310	108584	0	0	8174	666167	0	0
2024-05-23 18:16:32			0	35515	0	0	0	23420	21750	141552	27562	993561	40303	108632	0	0	8174	664815	0	0
2024-05-23 18:17:32			0	35510	0	0	0	23467	21800	141508	27225	993672	40318	108650	0	0	8173	664853	0	0
2024-05-23 18:18:32			0	35553	0	0	0	23483	21830	141512	27412	993855	40322	108656	0	0	8175	662827	0	0
2024-05-23 18:19:32			0	35541	0	0	0	23472	21860	141484	27509	993906	40325	108652	0	0	8175	663250	0	0
2024-05-23 18:20:32			0	35529	0	0	0	23462	21880	141392	27668	993966	40315	108648	0	0	8175	663710	0	0
2024-05-23 18:21:32			0	35544	0	0	0	23490	21900	141396	27289	994133	40328	108659	0	0	8175	662969	0	0
2024-05-23 18:22:32			0	35532	0	0	0	23522	21920	141472	27348	994113	40330	108671	0	0	8174	663429	0	0
2024-05-23 18:23:32			0	35531	0	0	0	23516	21940	141368	27268	994235	40332	108669	0	0	8174	663400	0	0
2024-05-23 18:24:32			0	35515	0	0	0	23298	21960	141308	27374	994181	40333	108585	0	0	8177	664038	0	0
2024-05-23 18:25:32			0	35555	0	0	0	23090	21960	141124	27550	993941	40289	108505	0	0	8183	662258	0	0
2024-05-23 18:26:32			0	35554	0	0	0	23150	21940	141084	27485	993641	40298	108528	0	0	8182	662377	0	0
2024-05-23 18:27:32			0	35548	0	0	0	23168	21920	141148	27301	993616	40297	108535	0	0	8181	662717	0	0
2024-05-23 18:28:32			0	35562	0	0	0	23072	21910	141092	27229	993617	40285	108498	0	0	8183	662132	0	0
2024-05-23 18:29:32			0	35604	0	0	0	23002	21880	140844	27469	993389	40293	108471	0	0	8186	660378	0	0
2024-05-23 18:30:32			0	35644	0	0	0	22916	21850	140676	27249	993179	40268	108438	0	0	8190	658716	0	0
2024-05-23 18:31:32			0	35692	0	0	0	22890	21810	140592	27008	992872	40265	108428	0	0	8193	656740	0	0
2024-05-23 18:32:32			0	35741	0	0	0	22890	21780	140348	27072	992715	40262	108428	0	0	8195	654688	0	0
2024-05-23 18:33:32			0	35747	0	0	0	22893	21760	140428	27246	992753	40260	108429	0	0	8195	654496	0	0
2024-05-23 18:34:32			0	35787	0	0	0	22932	21730	140216	27215	992684	40268	108444	0	0	8197	652844	0	0
2024-05-23 18:35:32			0	35817	0	0	0	22986	21730	140176	27384	992817	40279	108465	0	0	8198	651525	0	0
2024-05-23 18:36:32			0	35886	0	0	0	22989	21730	140069	27357	992888	40301	108466	0	0	8201	648500	0	0
2024-05-23 18:37:32			0	35918	0	0	0	22966	21740	139825	27410	992825	40302	108457	0	0	8203	647064	0	0
2024-05-23 18:38:32			0	35956	0	0	0	22976	21740	139669	27388	992825	40280	108461	0	0	8205	645404	0	0
2024-05-23 18:39:32			0	35976	0	0	0	22997	21730	139601	27173	992755	40268	108469	0	0	8206	644568	0	0
2024-05-23 18:40:32			0	35997	0	0	0	22948	21710	139581	27228	992722	40266	108450	0	0	8208	643725	0	0
2024-05-23 18:41:32			0	35992	0	0	0	22924	21710	139557	27215	992615	40266	108441	0	0	8208	643943	0	0
2024-05-23 18:42:32			0	35969	0	0	0	22903	21680	139657	27137	992520	40264	108433	0	0	8207	645053	0	0
2024-05-23 18:43:32			0	35972	0	0	0	22877	21670	139693	27189	992423	40263	108423	0	0	8207	644958	0	0
2024-05-23 18:44:32			0	35928	0	0	0	22883	21640	139833	27320	992381	40250	108425	0	0	8205	646987	0	0
2024-05-23 18:45:32			0	35878	0	0	0	22914	21630	140013	27339	992329	40259	108437	0	0	8202	649211	0	0
2024-05-23 18:46:32			0	35861	0	0	0	22932	21620	140208	27197	992348	40281	108444	0	0	8200	649993	0	0
2024-05-23 18:47:32			0	35833	0	0	0	22940	21620	140176	27362	992374	40281	108447	0	0	8199	651221	0	0
2024-05-23 18:48:32			0	35830	0	0	0	22942	21620	140260	27393	992366	40270	108448	0	0	8199	651353	0	0
2024-05-23 18:49:32			0	35834	0	0	0	22942	21610	140240	27225	992304	40270	108448	0	0	8199	651214	0	0
2024-05-23 18:50:32			0	35858	0	0	0	22922	21600	140172	27317	992261	40257	108440	0	0	8200	650196	0	0
2024-05-23 18:51:32			0	35881	0	0	0	22896	21600	140053	27263	992252	40267	108430	0	0	8202	649188	0	0
2024-05-23 18:52:32			0	35874	0	0	0	22896	21590	140205	27163	992271	40267	108430	0	0	8202	649531	0	0
2024-05-23 18:53:32			0	35874	0	0	0	22888	21580	140081	27256	992147	40266	108427	0	0	8202	649567	0	0
2024-05-23 18:54:32			0	35853	0	0	0	22885	21580	140164	27332	992139	40254	108426	0	0	8201	650488	0	0
2024-05-23 18:55:32			0	35853	0	0	0	22898	21570	140104	27580	992130	40254	108431	0	0	8200	650524	0	0
2024-05-23 18:56:32			0	35864	0	0	0	22916	21570	140225	27168	992183	40277	108438	0	0	8201	650042	0	0
2024-05-23 18:57:32			0	35849	0	0	0	22935	21570	140280	27341	992210	40288	108445	0	0	8199	650700	0	0
2024-05-23 18:58:32			0	35822	0	0	0	22948	21570	140272	27062	992228	40265	108450	0	0	8198	651886	0	0
2024-05-23 18:59:32			0	35837	0	0	0	22945	21570	140268	27164	992202	40288	108449	0	0	8199	651227	0	0
2024-05-23 19:00:32			0	35834	0	0	0	22955	21570	140124	27156	992290	40288	108453	0	0	8198	651359	0	0
2024-05-23 19:01:32			0	35845	0	0	0	22961	21560	140260	27770	992246	40287	108455	0	0	8199	650912	0	0
2024-05-23 19:02:32			0	35851	0	0	0	22955	21570	140280	27524	992237	40277	108453	0	0	8199	650612	0	0
2024-05-23 19:03:32			0	35849	0	0	0	22948	21570	140332	27270	992210	40265	108450	0	0	8199	650700	0	0
2024-05-23 19:04:32			0	35844	0	0	0	22950	21560	140184	27215	992193	40276	108451	0	0	8199	650956	0	0
2024-05-23 19:05:32			0	35847	0	0	0	22963	21570	140196	27453	992290	40277	108456	0	0	8199	650788	0	0
2024-05-23 19:06:32			0	35841	0	0	0	22976	21570	140252	27289	992281	40298	108461	0	0	8198	651051	0	0
2024-05-23 19:07:32			0	35828	0	0	0	22981	21580	140288	27348	992325	40265	108463	0	0	8198	651586	0	0
2024-05-23 19:08:32			0	35795	0	0	0	22976	21580	140468	27192	992378	40288	108461	0	0	8196	653037	0	0
2024-05-23 19:09:32			0	35792	0	0	0	22958	21580	140460	27435	992334	40289	108454	0	0	8196	653169	0	0
2024-05-23 19:10:32			0	35821	0	0	0	22961	21580	140320	27317	992387	40278	108455	0	0	8198	651894	0	0
2024-05-23 19:11:32			0	35846	0	0	0	23005	21580	140288	27234	992307	40278	108472	0	0	8198	650796	0	0
2024-05-23 19:12:32			0	35886	0	0	0	23012	21580	140157	27403	992413	40289	108475	0	0	8200	649041	0	0
2024-05-23 19:13:32			0	35877	0	0	0	22994	21590	140141	27258	992342	40278	108468	0	0	8200	649399	0	0
2024-05-23 19:14:32			0	35854	0	0	0	22999	21600	140412	27102	992465	40290	108470	0	0	8199	650372	0	0
2024-05-23 19:15:32			0	35809	0	0	0	23015	21590	140416	27422	992483	40278	108476	0	0	8196	652385	0	0
2024-05-23 19:16:32			0	35771	0	0	0	22997	21580	140500	27360	992387	40278	108469	0	0	8194	654094	0	0
2024-05-23 19:17:32			0	35740	0	0	0	23007	21590	140632	27448	992430	40300	108473	0	0	8192	655424	0	0
2024-05-23 19:18:32			0	35694	0	0	0	23018	21600	140808	27239	992439	40278	108477	0	0	8190	657420	0	0
2024-05-23 19:19:32			0	35689	0	0	0	23012	21610	140792	27157	992429	40302	108475	0	0	8190	657605	0	0
2024-05-23 19:20:32			0	35642	0	0	0	23007	21610	140920	27275	992464	40281	108473	0	0	8187	659686	0	0
2024-05-23 19:21:32			0	35637	0	0	0	22999	21610	141012	27433	992464	40291	108470	0	0	8187	659907	0	0
2024-05-23 19:22:32			0	35630	0	0	0	23005	21610	141160	27268	992490	40291	108472	0	0	8187	660218	0	0
2024-05-23 19:23:32			0	35666	0	0	0	23007	21600	141008	27419	992439	40300	108473	0	0	8188	658659	0	0
2024-05-23 19:24:32			0	35689	0	0	0	22992	21610	140780	27443	992482	40291	108467	0	0	8190	657605	0	0
2024-05-23 19:25:32			0	35715	0	0	0	22984	21600	140560	27424	992420	40290	108464	0	0	8192	656492	0	0
2024-05-23 19:26:32			0	35780	0	0	0	22989	21600	140536	27526	992420	40312	108466	0	0	8195	653625	0	0
2024-05-23 19:27:32			0	35792	0	0	0	22994	21600	140492	27159	992439	40290	108468	0	0	8195	653097	0	0
2024-05-23 19:28:32			0	35777	0	0	0	22989	21590	140444	27480	992369	40290	108466	0	0	8195	653793	0	0
2024-05-23 19:29:32			0	35777	0	0	0	23007	21600	140436	27223	992420	40301	108473	0	0	8194	653757	0	0
2024-05-23 19:30:32			0	35752	0	0	0	22992	21600	140524	27078	992474	40290	108467	0	0	8193	654859	0	0
2024-05-23 19:31:32			0	35722	0	0	0	22994	21600	140712	27081	992420	40279	108468	0	0	8192	656183	0	0
2024-05-23 19:32:32			0	35694	0	0	0	22986	21590	140760	27060	992395	40290	108465	0	0	8190	657457	0	0
2024-05-23 19:33:32			0	35695	0	0	0	22984	21600	140908	27341	992447	40290	108464	0	0	8190	657376	0	0
2024-05-23 19:34:32			0	35646	0	0	0	22986	21590	140940	27417	992377	40300	108465	0	0	8188	659582	0	0
2024-05-23 19:35:32			0	35625	0	0	0	22989	21590	140944	27580	992315	40278	108466	0	0	8187	660513	0	0
2024-05-23 19:36:32			0	35618	0	0	0	22981	21590	141032	27454	992315	40300	108463	0	0	8186	660824	0	0
2024-05-23 19:37:32			0	35611	0	0	0	22966	21590	141100	27384	992324	40278	108457	0	0	8186	661134	0	0
2024-05-23 19:38:32			0	35605	0	0	0	22976	21590	141136	27086	992297	40300	108461	0	0	8186	661401	0	0
2024-05-23 19:39:32			0	35593	0	0	0	22979	21580	141248	27241	992413	40299	108462	0	0	8185	661971	0	0
2024-05-23 19:40:32			0	35576	0	0	0	22992	21590	141124	27227	992377	40300	108467	0	0	8184	662690	0	0
2024-05-23 19:41:32			0	35587	0	0	0	22984	21580	141224	27251	992440	40289	108464	0	0	8185	662237	0	0
2024-05-23 19:42:32			0	35563	0	0	0	22986	21590	141284	27156	992324	40290	108465	0	0	8183	663268	0	0
2024-05-23 19:43:32			0	35567	0	0	0	22997	21590	141324	27531	992350	40290	108469	0	0	8183	663090	0	0
2024-05-23 19:44:32			0	35543	0	0	0	22989	21580	141316	27537	992360	40289	108466	0	0	8182	664196	0	0
2024-05-23 19:45:32			0	35530	0	0	0	22989	21600	141304	27199	992332	40290	108466	0	0	8181	664701	0	0
2024-05-23 19:46:32			0	35542	0	0	0	22986	21590	141352	27142	992342	40300	108465	0	0	8182	664203	0	0
2024-05-23 19:47:32			0	35527	0	0	0	22989	21590	141364	27150	992377	40290	108466	0	0	8181	664872	0	0
2024-05-23 19:48:32			0	35547	0	0	0	23005	21590	141468	26989	992457	40300	108472	0	0	8182	663981	0	0
2024-05-23 19:49:32			0	35552	0	0	0	23015	21590	141344	27467	992483	40300	108476	0	0	8182	663758	0	0
2024-05-23 19:50:32			0	35538	0	0	0	23020	21590	141468	27443	992475	40311	108478	0	0	8181	664382	0	0
2024-05-23 19:51:32			0	35518	0	0	0	23028	21600	141496	27350	992518	40311	108481	0	0	8180	665236	0	0
2024-05-23 19:52:32			0	35505	0	0	0	23020	21600	141536	27097	992500	40290	108478	0	0	8180	665816	0	0
2024-05-23 19:53:32			0	35499	0	0	0	23015	21600	141652	27150	992465	40311	108476	0	0	8179	666084	0	0
2024-05-23 19:54:32			0	35485	0	0	0	23020	21600	141716	27223	992447	40290	108478	0	0	8178	666709	0	0
2024-05-23 19:55:32			0	35466	0	0	0	22981	21600	141724	27083	992492	40290	108463	0	0	8178	667558	0	0
2024-05-23 19:56:32			0	35471	0	0	0	22979	21600	141644	26984	992385	40300	108462	0	0	8178	667335	0	0
2024-05-23 19:57:32			0	35483	0	0	0	22986	21600	141672	27163	992527	40290	108465	0	0	8179	666799	0	0
2024-05-23 19:58:32			0	35516	0	0	0	22859	21590	141532	26934	992350	40278	108416	0	0	8183	665362	0	0
2024-05-23 19:59:32			0	35538	0	0	0	22693	21580	141316	27350	992147	40266	108352	0	0	8187	664419	0	0
2024-05-23 20:00:32			0	35638	0	0	0	22441	21560	140960	27076	991732	40242	108255	0	0	8196	660046	0	0
2024-05-23 20:01:32			0	35718	0	0	0	22350	21510	140640	27194	991329	40226	108220	0	0	8202	656688	0	0
2024-05-23 20:02:32			0	35762	0	0	0	22174	21440	140364	27060	990812	40188	108152	0	0	8207	655000	0	0
2024-05-23 20:03:32			0	35823	0	0	0	22106	21360	140036	27232	990367	40180	108126	0	0	8211	652603	0	0
2024-05-23 20:04:32			0	35918	0	0	0	22023	21280	139817	26953	990028	40152	108094	0	0	8217	648721	0	0
2024-05-23 20:05:32			0	35969	0	0	0	21958	21210	139645	27062	989610	40144	108069	0	0	8221	646740	0	0
2024-05-23 20:06:32			0	36003	0	0	0	21880	21130	139597	27429	989263	40137	108039	0	0	8224	645541	0	0
2024-05-23 20:07:32			0	35991	0	0	0	21831	21040	139553	27334	988969	40152	108020	0	0	8223	646388	0	0
2024-05-23 20:08:32			0	35993	0	0	0	21799	20990	139709	27201	988770	40136	108008	0	0	8224	646480	0	0
2024-05-23 20:09:32			0	35979	0	0	0	21794	20930	139845	27072	988545	40141	108006	0	0	8223	647307	0	0
2024-05-23 20:10:32			0	35940	0	0	0	21802	20880	140009	27393	988355	40148	108009	0	0	8220	649196	0	0
2024-05-23 20:11:32			0	35910	0	0	0	21792	20840	140197	27121	988226	40156	108005	0	0	8219	650657	0	0
2024-05-23 20:12:32			0	35881	0	0	0	21797	20780	140381	27395	988169	40139	108007	0	0	8217	652149	0	0
2024-05-23 20:13:32			0	35819	0	0	0	21799	20750	140596	27341	988039	40125	108008	0	0	8213	654992	0	0
2024-05-23 20:14:32			0	35822	0	0	0	21789	20710	140648	27190	987892	40132	108004	0	0	8214	655004	0	0
2024-05-23 20:15:32			0	35811	0	0	0	21792	20700	140828	27464	987947	40131	108005	0	0	8213	655526	0	0
2024-05-23 20:16:32			0	35764	0	0	0	21794	20660	140972	27093	987861	40139	108006	0	0	8210	657751	0	0
2024-05-23 20:17:32			0	35744	0	0	0	21771	20640	141036	27197	987722	40126	107997	0	0	8209	658711	0	0
2024-05-23 20:18:32			0	35736	0	0	0	21748	20620	141036	26894	987600	40146	107988	0	0	8209	659138	0	0
2024-05-23 20:19:32			0	35736	0	0	0	21740	20600	141164	27020	987548	40145	107985	0	0	8209	659211	0	0
2024-05-23 20:20:32			0	35698	0	0	0	21763	20580	141228	27324	987594	40132	107994	0	0	8207	660972	0	0
2024-05-23 20:21:32			0	35692	0	0	0	21735	20570	141364	27277	987471	40130	107983	0	0	8207	661276	0	0
2024-05-23 20:22:32			0	35636	0	0	0	21709	20550	141480	27012	987571	40129	107973	0	0	8204	663843	0	0
2024-05-23 20:23:32			0	35613	0	0	0	21706	20550	141704	27176	987544	40140	107972	0	0	8203	664870	0	0
2024-05-23 20:24:32			0	35598	0	0	0	21742	20540	141764	27412	987527	40140	107986	0	0	8202	665577	0	0
2024-05-23 20:25:32			0	35567	0	0	0	21737	20530	141932	27109	987545	40128	107984	0	0	8200	667000	0	0
2024-05-23 20:26:32			0	35555	0	0	0	21753	20530	141948	27334	987511	40138	107990	0	0	8199	667537	0	0
2024-05-23 20:27:32			0	35532	0	0	0	21779	20520	141960	27334	987476	40138	108000	0	0	8197	668605	0	0
2024-05-23 20:28:32			0	35567	0	0	0	21729	20510	141960	27145	987424	40136	107981	0	0	8200	667074	0	0
2024-05-23 20:29:32			0	35564	0	0	0	21703	20500	141924	27206	987354	40135	107971	0	0	8200	667245	0	0
2024-05-23 20:30:32			0	35563	0	0	0	21683	20490	141912	27071	987293	40135	107963	0	0	8200	667327	0	0
2024-05-23 20:31:32			0	35598	0	0	0	21750	20480	141940	27166	987356	40145	107989	0	0	8201	665797	0	0
2024-05-23 20:32:32			0	35588	0	0	0	21870	20490	141836	27124	987505	40135	108035	0	0	8199	666208	0	0
2024-05-23 20:33:32			0	35586	0	0	0	21948	20500	142052	27396	987726	40147	108065	0	0	8197	666260	0	0
2024-05-23 20:34:32			0	35581	0	0	0	21981	20530	142016	27093	987856	40171	108078	0	0	8196	666373	0	0
2024-05-23 20:35:32			0	35579	0	0	0	21981	20530	142040	27050	987856	40160	108078	0	0	8196	666463	0	0
2024-05-23 20:36:32			0	35573	0	0	0	21968	20540	141940	27280	987873	40162	108073	0	0	8196	666694	0	0
2024-05-23 20:37:32			0	35567	0	0	0	21903	20570	141972	27422	987941	40153	108048	0	0	8197	666852	0	0
2024-05-23 20:38:32			0	35589	0	0	0	21844	20570	141896	27315	987896	40164	108025	0	0	8199	665868	0	0
2024-05-23 20:39:32			0	35592	0	0	0	21763	20570	141788	27365	987861	40164	107994	0	0	8201	665734	0	0
2024-05-23 20:40:32			0	35617	0	0	0	21786	20570	141680	26977	987888	40141	108003	0	0	8202	664618	0	0
2024-05-23 20:41:32			0	35628	0	0	0	21851	20570	141600	27685	987835	40130	108028	0	0	8201	664127	0	0
2024-05-23 20:42:32			0	35662	0	0	0	21838	20560	141540	27261	987853	40141	108023	0	0	8203	662648	0	0
2024-05-23 20:43:32			0	35679	0	0	0	21818	20560	141408	27085	987818	40163	108015	0	0	8205	661891	0	0
2024-05-23 20:44:32			0	35731	0	0	0	21807	20560	141296	27052	987853	40153	108011	0	0	8208	659579	0	0
2024-05-23 20:45:32			0	35810	0	0	0	21716	20570	140964	27326	987790	40153	107976	0	0	8214	656042	0	0
2024-05-23 20:46:32			0	35916	0	0	0	21628	20560	140585	26979	987552	40141	107942	0	0	8221	651403	0	0
2024-05-23 20:47:32			0	36015	0	0	0	21594	20530	140165	27284	987439	40117	107929	0	0	8226	647164	0	0
2024-05-23 20:48:32			0	36115	0	0	0	21561	20510	139793	27182	987397	40115	107916	0	0	8232	642866	0	0
2024-05-23 20:49:32			0	36201	0	0	0	21592	20500	139489	27334	987274	40114	107928	0	0	8236	639160	0	0
2024-05-23 20:50:32			0	36254	0	0	0	21615	20470	139277	27248	987304	40111	107937	0	0	8239	636967	0	0
2024-05-23 20:51:32			0	36305	0	0	0	21623	20490	139177	27348	987319	40125	107940	0	0	8241	634690	0	0
2024-05-23 20:52:32			0	36339	0	0	0	21553	20470	139009	27220	987171	40089	107913	0	0	8244	633293	0	0
2024-05-23 20:53:32			0	36370	0	0	0	21579	20440	138829	27310	987067	40108	107923	0	0	8245	632061	0	0
2024-05-23 20:54:32			0	36387	0	0	0	21605	20430	138781	27180	986998	40108	107933	0	0	8246	631364	0	0
2024-05-23 20:55:32			0	36422	0	0	0	21605	20430	138713	27414	987059	40097	107933	0	0	8248	629858	0	0
2024-05-23 20:56:32			0	36389	0	0	0	21558	20420	138545	27145	986981	40106	107915	0	0	8247	631313	0	0
2024-05-23 20:57:32			0	36423	0	0	0	21545	20400	138601	27364	986947	40093	107910	0	0	8249	629920	0	0
2024-05-23 20:58:32			0	36433	0	0	0	21535	20400	138665	27020	986894	40093	107906	0	0	8249	629490	0	0
2024-05-23 20:59:32			0	36413	0	0	0	21545	20380	138661	27464	986895	40092	107910	0	0	8248	630419	0	0
2024-05-23 21:00:32			0	36417	0	0	0	21527	20370	138773	27258	986773	40090	107903	0	0	8248	630282	0	0
2024-05-23 21:01:32			0	36410	0	0	0	21493	20360	138861	27237	986703	40090	107890	0	0	8249	630618	0	0
2024-05-23 21:02:32			0	36375	0	0	0	21436	20340	138897	27220	986448	40044	107868	0	0	8248	632195	0	0
2024-05-23 21:03:32			0	36321	0	0	0	21392	20290	139009	27090	986240	40062	107851	0	0	8245	634700	0	0
2024-05-23 21:04:32			0	36294	0	0	0	21361	20250	139209	27222	986067	40070	107839	0	0	8244	636009	0	0
2024-05-23 21:05:32			0	36269	0	0	0	21405	20230	139465	27379	986201	40057	107856	0	0	8242	637162	0	0
2024-05-23 21:06:32			0	36190	0	0	0	21457	20230	139609	27220	986193	40079	107876	0	0	8237	640592	0	0
2024-05-23 21:07:32			0	36171	0	0	0	21459	20220	139825	27130	986211	40088	107877	0	0	8236	641455	0	0
2024-05-23 21:08:32			0	36126	0	0	0	21537	20210	139913	27119	986327	40088	107907	0	0	8232	643452	0	0
2024-05-23 21:09:32			0	36086	0	0	0	21927	20260	140181	27350	986819	40125	108057	0	0	8223	645021	0	0
2024-05-23 21:10:32			0	36058	0	0	0	21994	20300	140365	27424	987204	40151	108083	0	0	8221	646103	0	0
2024-05-23 21:11:32			0	36017	0	0	0	21999	20350	140489	26922	987509	40155	108085	0	0	8219	647721	0	0
2024-05-23 21:12:32			0	36005	0	0	0	22033	20400	140545	27173	987691	40159	108098	0	0	8218	648068	0	0
2024-05-23 21:13:32			0	35933	0	0	0	22064	20450	140725	27031	987881	40142	108110	0	0	8214	651051	0	0
2024-05-23 21:14:32			0	35921	0	0	0	22114	20500	140801	27038	988098	40168	108129	0	0	8212	651399	0	0
2024-05-23 21:15:32			0	35882	0	0	0	22122	20520	140861	27057	988060	40160	108132	0	0	8210	653044	0	0
2024-05-23 21:16:32			0	35893	0	0	0	22114	20570	140841	27265	988260	40174	108129	0	0	8211	652379	0	0
2024-05-23 21:17:32			0	35880	0	0	0	22090	20580	140773	27284	988223	40154	108120	0	0	8211	652916	0	0
2024-05-23 21:18:32			0	35862	0	0	0	22059	20600	140792	27286	988212	40156	108108	0	0	8211	653637	0	0
2024-05-23 21:19:32			0	35864	0	0	0	22072	20600	140800	27256	988310	40155	108113	0	0	8211	653549	0	0
2024-05-23 21:20:32			0	35850	0	0	0	22085	20640	140768	27237	988625	40181	108118	0	0	8210	654022	0	0
2024-05-23 21:21:32			0	35861	0	0	0	22093	20670	140645	27232	988720	40206	108121	0	0	8210	653428	0	0
2024-05-23 21:22:32			0	35911	0	0	0	22150	20710	140525	27209	989061	40199	108143	0	0	8212	651082	0	0
2024-05-23 21:23:32			0	35966	0	0	0	22168	20760	140293	27326	989190	40192	108150	0	0	8215	648487	0	0
2024-05-23 21:24:32			0	36018	0	0	0	22174	20790	140017	27317	989267	40184	108152	0	0	8218	646102	0	0
2024-05-23 21:25:32			0	36096	0	0	0	22148	20830	139753	27403	989254	40176	108142	0	0	8223	642556	0	0
2024-05-23 21:26:32			0	36145	0	0	0	22129	20840	139577	27286	989351	40177	108135	0	0	8226	640388	0	0
2024-05-23 21:27:32			0	36210	0	0	0	22116	20860	139257	27516	989323	40146	108130	0	0	8229	637498	0	0
2024-05-23 21:28:32			0	36254	0	0	0	22122	20860	139057	27286	989084	40157	108132	0	0	8232	635594	0	0
2024-05-23 21:29:32			0	36290	0	0	0	22101	20840	138993	27183	988899	40133	108124	0	0	8234	634109	0	0
2024-05-23 21:30:32			0	36320	0	0	0	22083	20820	138857	27428	988786	40120	108117	0	0	8236	632886	0	0
2024-05-23 21:31:32			0	36308	0	0	0	22051	20800	138809	27060	988699	40129	108105	0	0	8236	633473	0	0
2024-05-23 21:32:32			0	36342	0	0	0	22028	20770	138877	27192	988577	40127	108096	0	0	8238	632113	0	0
2024-05-23 21:33:32			0	36327	0	0	0	22007	20760	138881	27149	988472	40148	108088	0	0	8237	632794	0	0
2024-05-23 21:34:32			0	36313	0	0	0	22005	20730	138817	27020	988342	40134	108087	0	0	8236	633503	0	0
2024-05-23 21:35:32			0	36318	0	0	0	21992	20710	138825	27013	988344	40155	108082	0	0	8237	633358	0	0
2024-05-23 21:36:32			0	36319	0	0	0	21953	20710	138901	27046	988282	40132	108067	0	0	8237	633314	0	0
2024-05-23 21:37:32			0	36313	0	0	0	21919	20690	138865	27258	988195	40130	108054	0	0	8238	633643	0	0
2024-05-23 21:38:32			0	36352	0	0	0	21906	20680	138821	27535	988179	40130	108049	0	0	8240	631997	0	0
2024-05-23 21:39:32			0	36334	0	0	0	21872	20660	138761	27019	988065	40128	108036	0	0	8239	632843	0	0
2024-05-23 21:40:32			0	36366	0	0	0	21870	20640	138689	27440	987987	40126	108035	0	0	8241	631534	0	0
2024-05-23 21:41:32			0	36404	0	0	0	21877	20640	138549	27471	987979	40136	108038	0	0	8243	629900	0	0
2024-05-23 21:42:32			0	36432	0	0	0	21896	20630	138449	27230	988024	40125	108045	0	0	8244	628733	0	0
2024-05-23 21:43:32			0	36454	0	0	0	21919	20620	138461	27116	987972	40124	108054	0	0	8245	627824	0	0
2024-05-23 21:44:32			0	36474	0	0	0	21911	20610	138369	27495	987884	40135	108051	0	0	8246	627002	0	0
2024-05-23 21:45:32			0	36477	0	0	0	21883	20600	138345	27135	987859	40111	108040	0	0	8247	626908	0	0
2024-05-23 21:46:32			0	36504	0	0	0	21849	20600	138337	27010	987806	40123	108027	0	0	8249	625752	0	0
2024-05-23 21:47:32			0	36517	0	0	0	21831	20580	138313	27199	987754	40132	108020	0	0	8249	625265	0	0
2024-05-23 21:48:32			0	36539	0	0	0	21833	20580	138089	27178	987666	40110	108021	0	0	8251	624325	0	0
2024-05-23 21:49:32			0	36540	0	0	0	21828	20560	138105	27362	987561	40141	108019	0	0	8251	624351	0	0
2024-05-23 21:50:32			0	36535	0	0	0	21828	20550	138133	27256	987571	40118	108019	0	0	8250	624600	0	0
2024-05-23 21:51:32			0	36539	0	0	0	21836	20530	138129	27338	987625	40128	108022	0	0	8250	624498	0	0
2024-05-23 21:52:32			0	36540	0	0	0	21823	20530	138185	27024	987617	40127	108017	0	0	8251	624455	0	0
2024-05-23 21:53:32			0	36536	0	0	0	21786	20520	138161	27225	987520	40116	108003	0	0	8251	624661	0	0
2024-05-23 21:54:32			0	36523	0	0	0	21766	20510	138149	27431	987459	40116	107995	0	0	8251	625251	0	0
2024-05-23 21:55:32			0	36537	0	0	0	21714	20500	138229	27488	987283	40114	107975	0	0	8252	624687	0	0
2024-05-23 21:56:32			0	36523	0	0	0	21680	20490	138205	27121	987258	40113	107962	0	0	8252	625320	0	0
2024-05-23 21:57:32			0	36495	0	0	0	21727	20460	138229	27182	987269	40099	107980	0	0	8250	626622	0	0
2024-05-23 21:58:32			0	36483	0	0	0	21727	20460	138333	27012	987269	40110	107980	0	0	8249	627136	0	0
2024-05-23 21:59:32			0	36475	0	0	0	21711	20460	138353	27327	987287	40132	107974	0	0	8249	627479	0	0
2024-05-23 22:00:32			0	36473	0	0	0	21664	20450	138385	27324	987164	40121	107956	0	0	8249	627599	0	0
2024-05-23 22:01:32			0	36464	0	0	0	21657	20430	138357	27005	987112	40119	107953	0	0	8249	628055	0	0
2024-05-23 22:02:32			0	36468	0	0	0	21628	20420	138365	27163	987095	40118	107942	0	0	8250	627918	0	0
2024-05-23 22:03:32			0	36469	0	0	0	21579	20420	138353	27424	986963	40096	107923	0	0	8250	627875	0	0
2024-05-23 22:04:32			0	36473	0	0	0	21555	20390	138337	27123	986912	40093	107914	0	0	8251	627807	0	0
2024-05-23 22:05:32			0	36482	0	0	0	21535	20370	138449	27360	986738	40102	107906	0	0	8252	627491	0	0
2024-05-23 22:06:32			0	36461	0	0	0	21529	20350	138425	27332	986624	40078	107904	0	0	8251	628461	0	0
2024-05-23 22:07:32			0	36455	0	0	0	21548	20330	138545	27383	986679	40098	107911	0	0	8250	628788	0	0
2024-05-23 22:08:32			0	36438	0	0	0	21545	20330	138605	27173	986670	40098	107910	0	0	8249	629518	0	0
2024-05-23 22:09:32			0	36423	0	0	0	21576	20320	138777	27024	986715	40109	107922	0	0	8248	630198	0	0
2024-05-23 22:10:32			0	36378	0	0	0	21610	20310	138873	27227	986725	40108	107935	0	0	8245	632170	0	0
2024-05-23 22:11:32			0	36350	0	0	0	21576	20310	138949	27315	986645	40108	107922	0	0	8244	633378	0	0
2024-05-23 22:12:32			0	36316	0	0	0	21563	20310	139037	27305	986725	40096	107917	0	0	8242	634846	0	0
2024-05-23 22:13:32			0	36294	0	0	0	21527	20320	139213	27067	986707	40097	107903	0	0	8242	635763	0	0
2024-05-23 22:14:32			0	36237	0	0	0	21737	20330	139381	27097	987095	40121	107984	0	0	8235	638197	0	0
2024-05-23 22:15:32			0	36184	0	0	0	21901	20380	139621	27220	987559	40169	108047	0	0	8230	640323	0	0
2024-05-23 22:16:32			0	36162	0	0	0	21846	20420	139741	27343	987600	40140	108026	0	0	8230	641138	0	0
2024-05-23 22:17:32			0	36120	0	0	0	21820	20450	139853	26906	987650	40154	108016	0	0	8228	642861	0	0
2024-05-23 22:18:32			0	36076	0	0	0	21763	20480	139961	27317	987674	40123	107994	0	0	8227	644674	0	0
2024-05-23 22:19:32			0	36092	0	0	0	21672	20480	139941	27130	987409	40112	107959	0	0	8229	643976	0	0
2024-05-23 22:20:32			0	36043	0	0	0	21623	20480	139973	27138	987329	40101	107940	0	0	8227	646117	0	0
2024-05-23 22:21:32			0	36042	0	0	0	21563	20450	140033	26783	987137	40066	107917	0	0	8228	646268	0	0
2024-05-23 22:22:32			0	36007	0	0	0	21527	20420	140229	27215	986936	40074	107903	0	0	8227	647908	0	0
2024-05-23 22:23:32			0	35989	0	0	0	21516	20390	140221	27365	986833	40083	107899	0	0	8226	648806	0	0
2024-05-23 22:24:32			0	35967	0	0	0	21472	20360	140293	27332	986596	40069	107882	0	0	8225	649879	0	0
2024-05-23 22:25:32			0	35962	0	0	0	21462	20340	140357	27322	986554	40066	107878	0	0	8225	650171	0	0
2024-05-23 22:26:32			0	35962	0	0	0	21441	20310	140305	27357	986345	40063	107870	0	0	8225	650278	0	0
2024-05-23 22:27:32			0	35978	0	0	0	21418	20280	140369	27204	986321	40072	107861	0	0	8226	649683	0	0
2024-05-23 22:28:32			0	36004	0	0	0	21425	20280	140289	27524	986321	40083	107864	0	0	8228	648541	0	0
2024-05-23 22:29:32			0	36025	0	0	0	21441	20240	140301	27447	986510	40080	107870	0	0	8228	647763	0	0
2024-05-23 22:30:32			0	36022	0	0	0	21496	20280	140245	27422	986587	40105	107891	0	0	8227	647752	0	0
2024-05-23 22:31:32			0	36045	0	0	0	21519	20280	140133	27100	986560	40094	107900	0	0	8228	646744	0	0
2024-05-23 22:32:32			0	36083	0	0	0	21550	20300	140077	27027	986894	40128	107912	0	0	8230	645010	0	0
2024-05-23 22:33:32			0	36086	0	0	0	21597	20330	140105	27410	987095	40131	107930	0	0	8229	644772	0	0
2024-05-23 22:34:32			0	36097	0	0	0	21612	20380	140065	27327	987179	40114	107936	0	0	8230	644113	0	0
2024-05-23 22:35:32			0	36120	0	0	0	21815	20420	139957	27383	987724	40150	108014	0	0	8228	642968	0	0
2024-05-23 22:36:32			0	36135	0	0	0	21961	20480	139869	27287	988073	40145	108070	0	0	8226	642101	0	0
2024-05-23 22:37:32			0	36113	0	0	0	22137	20550	139965	27088	988500	40162	108138	0	0	8223	642811	0	0
2024-05-23 22:38:32			0	36064	0	0	0	22090	20610	140077	27270	988681	40167	108120	0	0	8221	644735	0	0
2024-05-23 22:39:32			0	36033	0	0	0	22049	20660	140153	27112	988756	40162	108104	0	0	8220	645911	0	0
2024-05-23 22:40:32			0	35967	0	0	0	22137	20680	140293	27157	988904	40163	108138	0	0	8215	648730	0	0
2024-05-23 22:41:32			0	35944	0	0	0	22041	20720	140289	27194	988884	40156	108101	0	0	8216	649596	0	0
2024-05-23 22:42:32			0	35936	0	0	0	22124	20740	140345	27422	989130	40168	108133	0	0	8214	649875	0	0
2024-05-23 22:43:32			0	35932	0	0	0	22051	20770	140329	27192	989127	40161	108105	0	0	8215	649943	0	0
2024-05-23 22:44:32			0	35941	0	0	0	22072	20800	140269	27204	989204	40151	108113	0	0	8216	649440	0	0
2024-05-23 22:45:32			0	35960	0	0	0	22064	20820	140237	26889	989290	40175	108110	0	0	8217	648535	0	0
2024-05-23 22:46:32			0	35962	0	0	0	22036	20840	140137	27360	989271	40166	108099	0	0	8217	648375	0	0
2024-05-23 22:47:32			0	35982	0	0	0	22023	20850	140133	27416	989093	40144	108094	0	0	8219	647463	0	0
2024-05-23 22:48:32			0	35967	0	0	0	21979	20840	140121	27357	989138	40144	108077	0	0	8219	648156	0	0
2024-05-23 22:49:32			0	35973	0	0	0	21906	20840	140057	27287	988917	40123	108049	0	0	8220	647893	0	0
2024-05-23 22:50:32			0	35986	0	0	0	21976	20830	139993	27298	989015	40132	108076	0	0	8220	647359	0	0
2024-05-23 22:51:32			0	35970	0	0	0	21932	20830	140049	27307	988829	40122	108059	0	0	8220	648060	0	0
2024-05-23 22:52:32			0	35980	0	0	0	21903	20810	140033	27305	988697	40120	108048	0	0	8221	647694	0	0
2024-05-23 22:53:32			0	36007	0	0	0	21911	20780	140013	27166	988700	40139	108051	0	0	8222	646619	0	0
2024-05-23 22:54:32			0	35991	0	0	0	21898	20790	139977	27440	988744	40129	108046	0	0	8221	647284	0	0
2024-05-23 22:55:32			0	35986	0	0	0	21890	20790	139953	27516	988815	40129	108043	0	0	8221	647503	0	0
2024-05-23 22:56:32			0	35998	0	0	0	21896	20800	139925	27154	988779	40129	108045	0	0	8222	646942	0	0
2024-05-23 22:57:32			0	35995	0	0	0	21896	20810	140013	27060	988848	40131	108045	0	0	8221	647037	0	0
2024-05-23 22:58:32			0	35996	0	0	0	21906	20800	139945	26949	988760	40119	108049	0	0	8221	647029	0	0
2024-05-23 22:59:32			0	35995	0	0	0	21919	20810	140049	27223	988742	40120	108054	0	0	8221	647037	0	0
2024-05-23 23:00:32			0	35974	0	0	0	21911	20780	140005	27416	988594	40107	108051	0	0	8220	648064	0	0
2024-05-23 23:01:32			0	35967	0	0	0	21862	20770	140045	27225	988383	40094	108032	0	0	8220	648407	0	0
2024-05-23 23:02:32			0	35985	0	0	0	21812	20740	140045	27274	988280	40091	108013	0	0	8222	647726	0	0
2024-05-23 23:03:32			0	35953	0	0	0	21779	20710	139985	27417	988158	40088	108000	0	0	8221	649237	0	0
2024-05-23 23:04:32			0	35973	0	0	0	21763	20690	139993	27322	987965	40086	107994	0	0	8222	648431	0	0
2024-05-23 23:05:32			0	35969	0	0	0	21748	20650	140157	27488	987863	40094	107988	0	0	8222	648750	0	0
2024-05-23 23:06:32			0	35952	0	0	0	21748	20640	140141	27180	987819	40093	107988	0	0	8221	649532	0	0
2024-05-23 23:07:32			0	35925	0	0	0	21763	20610	140237	27398	987778	40091	107994	0	0	8219	650827	0	0
2024-05-23 23:08:32			0	35918	0	0	0	21771	20600	140257	27256	987814	40101	107997	0	0	8219	651170	0	0
2024-05-23 23:09:32			0	35913	0	0	0	21763	20580	140281	27286	987754	40122	107994	0	0	8218	651463	0	0
2024-05-23 23:10:32			0	35905	0	0	0	21758	20590	140421	27315	987709	40122	107992	0	0	8218	651779	0	0
2024-05-23 23:11:32			0	35889	0	0	0	21711	20580	140425	27249	987692	40110	107974	0	0	8218	652519	0	0
2024-05-23 23:12:32			0	35875	0	0	0	21698	20570	140397	27561	987657	40098	107969	0	0	8217	653172	0	0
2024-05-23 23:13:32			0	35862	0	0	0	21706	20570	140485	27450	987737	40109	107972	0	0	8217	653746	0	0
2024-05-23 23:14:32			0	35856	0	0	0	21750	20570	140608	27279	987817	40109	107989	0	0	8215	654010	0	0
2024-05-23 23:15:32			0	35835	0	0	0	21841	20580	140732	27282	988125	40143	108024	0	0	8213	654901	0	0
2024-05-23 23:16:32			0	35827	0	0	0	21924	20630	140856	27072	988387	40147	108056	0	0	8211	655073	0	0
2024-05-23 23:17:32			0	35824	0	0	0	22036	20670	140780	27012	988693	40162	108099	0	0	8209	655061	0	0
2024-05-23 23:18:32			0	35774	0	0	0	22057	20710	140844	27196	989053	40166	108107	0	0	8206	657127	0	0
2024-05-23 23:19:32			0	35794	0	0	0	21999	20750	140820	27060	989014	40158	108085	0	0	8209	656096	0	0
2024-05-23 23:20:32			0	35786	0	0	0	21937	20760	140904	27090	988906	40160	108061	0	0	8209	656414	0	0
2024-05-23 23:21:32			0	35779	0	0	0	21862	20770	140716	27376	988790	40138	108032	0	0	8210	656687	0	0
2024-05-23 23:22:32			0	35777	0	0	0	21838	20770	140752	27228	988790	40150	108023	0	0	8211	656775	0	0
2024-05-23 23:23:32			0	35769	0	0	0	21784	20780	140708	27329	988639	40106	108002	0	0	8211	657093	0	0
2024-05-23 23:24:32			0	35769	0	0	0	21805	20760	140808	27171	988579	40104	108010	0	0	8211	657166	0	0
2024-05-23 23:25:32			0	35769	0	0	0	21807	20760	140700	27029	988614	40105	108011	0	0	8211	657166	0	0
2024-05-23 23:26:32			0	35772	0	0	0	21831	20740	140716	27147	988580	40103	108020	0	0	8210	657106	0	0
2024-05-23 23:27:32			0	35779	0	0	0	21927	20760	140768	27045	988765	40125	108057	0	0	8209	656723	0	0
2024-05-23 23:28:32			0	35734	0	0	0	22036	20770	140848	27017	989029	40161	108099	0	0	8205	658680	0	0
2024-05-23 23:29:32			0	35735	0	0	0	22059	20800	140912	27081	989106	40130	108108	0	0	8205	658526	0	0
2024-05-23 23:30:32			0	35723	0	0	0	22067	20820	140920	27319	989272	40143	108111	0	0	8204	658985	0	0
2024-05-23 23:31:32			0	35694	0	0	0	22018	20850	141068	26953	989226	40144	108092	0	0	8203	660163	0	0
2024-05-23 23:32:32			0	35674	0	0	0	22010	20850	141152	27493	989022	40113	108089	0	0	8202	661051	0	0
2024-05-23 23:33:32			0	35643	0	0	0	21981	20840	141316	27469	989032	40123	108078	0	0	8201	662467	0	0
2024-05-23 23:34:32			0	35621	0	0	0	21950	20840	141392	27190	988864	40101	108066	0	0	8201	663447	0	0
2024-05-23 23:35:32			0	35567	0	0	0	21914	20810	141560	27128	988716	40109	108052	0	0	8198	665967	0	0
2024-05-23 23:36:32			0	35549	0	0	0	21890	20780	141516	27313	988567	40107	108043	0	0	8197	666883	0	0
2024-05-23 23:37:32			0	35532	0	0	0	21864	20760	141636	27431	988401	40105	108033	0	0	8197	667717	0	0
2024-05-23 23:38:32			0	35518	0	0	0	21836	20750	141612	27371	988323	40092	108022	0	0	8197	668382	0	0
2024-05-23 23:39:32			0	35511	0	0	0	21823	20710	141760	27374	988185	40100	108017	0	0	8196	668843	0	0
2024-05-23 23:40:32			0	35526	0	0	0	21812	20680	141696	27263	988054	40097	108013	0	0	8197	668282	0	0
2024-05-23 23:41:32			0	35542	0	0	0	21794	20660	141668	27138	987906	40106	108006	0	0	8198	667639	0	0
2024-05-23 23:42:32			0	35567	0	0	0	21776	20650	141572	27599	987889	40094	107999	0	0	8200	666557	0	0
2024-05-23 23:43:32			0	35586	0	0	0	21771	20620	141560	27248	987733	40091	107997	0	0	8201	665818	0	0
2024-05-23 23:44:32			0	35607	0	0	0	21745	20600	141508	27313	987699	40100	107987	0	0	8202	664954	0	0
2024-05-23 23:45:32			0	35629	0	0	0	21735	20580	141312	27267	987559	40087	107983	0	0	8203	664045	0	0
2024-05-23 23:46:32			0	35658	0	0	0	21732	20550	141284	27152	987438	40096	107982	0	0	8205	662862	0	0
2024-05-23 23:47:32			0	35695	0	0	0	21711	20530	141224	27409	987378	40073	107974	0	0	8207	661289	0	0
2024-05-23 23:48:32			0	35712	0	0	0	21696	20500	141096	27232	987283	40091	107968	0	0	8208	660642	0	0
2024-05-23 23:49:32			0	35747	0	0	0	21698	20470	141096	27293	987171	40100	107969	0	0	8210	659197	0	0
2024-05-23 23:50:32			0	35762	0	0	0	21688	20460	140964	27343	987163	40099	107965	0	0	8211	658568	0	0
2024-05-23 23:51:32			0	35795	0	0	0	21670	20450	140960	27033	987058	40087	107958	0	0	8213	657142	0	0
2024-05-23 23:52:32			0	35803	0	0	0	21649	20420	140912	27137	987034	40106	107950	0	0	8214	656896	0	0
2024-05-23 23:53:32			0	35814	0	0	0	21628	20410	140796	27350	986911	40106	107942	0	0	8215	656446	0	0
2024-05-23 23:54:32			0	35838	0	0	0	21623	20390	140796	27293	986851	40083	107940	0	0	8216	655457	0	0
2024-05-23 23:55:32			0	35876	0	0	0	21618	20380	140605	27410	986763	40082	107938	0	0	8218	653815	0	0
2024-05-23 23:56:32			0	35901	0	0	0	21589	20360	140585	27336	986703	40080	107927	0	0	8220	652784	0	0
2024-05-23 23:57:32			0	35925	0	0	0	21586	20340	140529	27398	986607	40078	107926	0	0	8221	651799	0	0
2024-05-23 23:58:32			0	35924	0	0	0	21576	20340	140533	27265	986634	40088	107922	0	0	8221	651843	0	0
2024-05-23 23:59:32			0	35931	0	0	0	21586	20310	140417	27434	986592	40085	107926	0	0	8221	651642	0	0
2024-05-24 00:00:32			0	35965	0	0	0	21594	20310	140493	27196	986619	40096	107929	0	0	8223	650147	0	0
2024-05-24 00:01:32			0	35967	0	0	0	21649	20310	140397	27234	986778	40108	107950	0	0	8222	650059	0	0
2024-05-24 00:02:32			0	35948	0	0	0	21703	20310	140437	27294	986858	40096	107971	0	0	8220	650894	0	0
2024-05-24 00:03:32			0	35976	0	0	0	21724	20320	140569	27334	986839	40130	107979	0	0	8221	649627	0	0
2024-05-24 00:04:32			0	35964	0	0	0	21727	20310	140405	27163	986831	40108	107980	0	0	8220	650191	0	0
2024-05-24 00:05:32			0	35958	0	0	0	21711	20330	140469	27426	986891	40109	107974	0	0	8221	650383	0	0
2024-05-24 00:06:32			0	35972	0	0	0	21688	20330	140485	27275	986865	40098	107965	0	0	8222	649767	0	0
2024-05-24 00:07:32			0	35975	0	0	0	21670	20320	140377	27390	986821	40109	107958	0	0	8222	649671	0	0
2024-05-24 00:08:32			0	35981	0	0	0	21651	20320	140385	27248	986760	40120	107951	0	0	8223	649408	0	0
2024-05-24 00:09:32			0	35980	0	0	0	21638	20310	140273	27230	986716	40095	107946	0	0	8223	649488	0	0
2024-05-24 00:10:32			0	35988	0	0	0	21623	20310	140301	27164	986698	40119	107940	0	0	8224	649136	0	0
2024-05-24 00:11:32			0	35982	0	0	0	21625	20310	140325	27351	986796	40118	107941	0	0	8223	649400	0	0
2024-05-24 00:12:32			0	36007	0	0	0	21620	20300	140405	27462	986735	40107	107939	0	0	8225	648338	0	0
2024-05-24 00:13:32			0	35977	0	0	0	21625	20310	140377	27289	986743	40107	107941	0	0	8223	649619	0	0
2024-05-24 00:14:32			0	35975	0	0	0	21631	20300	140429	27327	986726	40107	107943	0	0	8223	649743	0	0
2024-05-24 00:15:32			0	35980	0	0	0	21638	20300	140425	27150	986735	40095	107946	0	0	8223	649523	0	0
2024-05-24 00:16:32			0	35969	0	0	0	21644	20290	140405	27185	986691	40117	107948	0	0	8222	650043	0	0
2024-05-24 00:17:32			0	35964	0	0	0	21657	20300	140449	27639	986735	40107	107953	0	0	8222	650227	0	0
2024-05-24 00:18:32			0	35950	0	0	0	21672	20300	140445	27265	986788	40095	107959	0	0	8221	650842	0	0
2024-05-24 00:19:32			0	35949	0	0	0	21677	20310	140421	27332	986823	40118	107961	0	0	8221	650850	0	0
2024-05-24 00:20:32			0	35957	0	0	0	21680	20310	140485	27569	986743	40095	107962	0	0	8221	650498	0	0
2024-05-24 00:21:32			0	35938	0	0	0	21685	20310	140513	27161	986831	40129	107964	0	0	8220	651334	0	0
2024-05-24 00:22:32			0	35930	0	0	0	21683	20310	140489	27410	986716	40107	107963	0	0	8219	651687	0	0
2024-05-24 00:23:32			0	35939	0	0	0	21677	20310	140537	27161	986778	40108	107961	0	0	8220	651290	0	0
2024-05-24 00:24:32			0	35933	0	0	0	21664	20310	140493	27147	986716	40107	107956	0	0	8220	651555	0	0
2024-05-24 00:25:32			0	35936	0	0	0	21649	20300	140569	27559	986700	40128	107950	0	0	8220	651458	0	0
2024-05-24 00:26:32			0	35926	0	0	0	21649	20290	140589	27396	986665	40117	107950	0	0	8220	651935	0	0
2024-05-24 00:27:32			0	35916	0	0	0	21644	20290	140609	27227	986657	40116	107948	0	0	8219	652375	0	0
2024-05-24 00:28:32			0	35900	0	0	0	21644	20280	140645	27341	986675	40094	107948	0	0	8218	653117	0	0
2024-05-24 00:29:32			0	35918	0	0	0	21638	20280	140661	27528	986595	40105	107946	0	0	8219	652323	0	0
2024-05-24 00:30:32			0	35892	0	0	0	21628	20290	140677	27550	986683	40105	107942	0	0	8218	653434	0	0
2024-05-24 00:31:32			0	35901	0	0	0	21623	20270	140589	27263	986578	40104	107940	0	0	8219	653109	0	0
2024-05-24 00:32:32			0	35887	0	0	0	21618	20270	140637	27460	986605	40115	107938	0	0	8218	653726	0	0
2024-05-24 00:33:32			0	35866	0	0	0	21628	20280	140652	27353	986595	40094	107942	0	0	8217	654617	0	0
2024-05-24 00:34:32			0	35902	0	0	0	21615	20260	140709	27116	986588	40103	107937	0	0	8219	653100	0	0
2024-05-24 00:35:32			0	35883	0	0	0	21625	20260	140653	27459	986535	40103	107941	0	0	8218	653939	0	0
2024-05-24 00:36:32			0	35882	0	0	0	21620	20260	140749	27275	986562	40103	107939	0	0	8218	653983	0	0
2024-05-24 00:37:32			0	35878	0	0	0	21625	20260	140761	27400	986553	40114	107941	0	0	8217	654160	0	0
2024-05-24 00:38:32			0	35851	0	0	0	21618	20250	140736	27485	986492	40125	107938	0	0	8216	655389	0	0
2024-05-24 00:39:32			0	35870	0	0	0	21615	20260	140717	27407	986527	40103	107937	0	0	8217	654513	0	0
2024-05-24 00:40:32			0	35853	0	0	0	21607	20260	140836	27441	986553	40125	107934	0	0	8216	655264	0	0
2024-05-24 00:41:32			0	35865	0	0	0	21605	20250	140697	27090	986518	40114	107933	0	0	8217	654770	0	0
2024-05-24 00:42:32			0	35878	0	0	0	21599	20250	140657	27358	986545	40102	107931	0	0	8218	654196	0	0
2024-05-24 00:43:32			0	35882	0	0	0	21605	20250	140669	27317	986518	40114	107933	0	0	8218	654019	0	0
2024-05-24 00:44:32			0	35884	0	0	0	21605	20240	140697	27263	986502	40112	107933	0	0	8218	653967	0	0
2024-05-24 00:45:32			0	35888	0	0	0	21602	20240	140689	27429	986502	40112	107932	0	0	8218	653790	0	0
2024-05-24 00:46:32			0	35897	0	0	0	21597	20240	140613	27092	986457	40124	107930	0	0	8219	653393	0	0
2024-05-24 00:47:32			0	35894	0	0	0	21597	20240	140509	27218	986510	40124	107930	0	0	8219	653526	0	0
2024-05-24 00:48:32			0	35905	0	0	0	21579	20240	140589	27348	986448	40112	107923	0	0	8220	653040	0	0
2024-05-24 00:49:32			0	35918	0	0	0	21566	20230	140465	26984	986440	40112	107918	0	0	8220	652503	0	0
2024-05-24 00:50:32			0	35931	0	0	0	21573	20230	140465	27216	986440	40101	107921	0	0	8221	651930	0	0
2024-05-24 00:51:32			0	35937	0	0	0	21573	20220	140409	27326	986388	40099	107921	0	0	8221	651702	0	0
2024-05-24 00:52:32			0	35947	0	0	0	21584	20220	140437	27424	986415	40110	107925	0	0	8222	651262	0	0
2024-05-24 00:53:32			0	35933	0	0	0	21579	20220	140401	27275	986344	40111	107923	0	0	8221	651878	0	0
2024-05-24 00:54:32			0	35961	0	0	0	21586	20210	140369	27308	986380	40121	107926	0	0	8222	650682	0	0
2024-05-24 00:55:32			0	35964	0	0	0	21581	20210	140289	27462	986327	40110	107924	0	0	8223	650550	0	0
2024-05-24 00:56:32			0	35989	0	0	0	21594	20210	140369	27142	986371	40110	107929	0	0	8224	649451	0	0
2024-05-24 00:57:32			0	35975	0	0	0	21586	20220	140329	27372	986442	40099	107926	0	0	8223	650030	0	0
2024-05-24 00:58:32			0	35961	0	0	0	21594	20210	140313	27528	986425	40121	107929	0	0	8222	650682	0	0
2024-05-24 00:59:32			0	35962	0	0	0	21589	20220	140301	27171	986415	40121	107927	0	0	8222	650602	0	0
2024-05-24 01:00:32			0	35988	0	0	0	21602	20220	140373	27112	986450	40111	107932	0	0	8224	649459	0	0
2024-05-24 01:01:32			0	35999	0	0	0	21605	20220	140341	27324	986388	40110	107933	0	0	8224	648976	0	0
2024-05-24 01:02:32			0	35985	0	0	0	21607	20220	140361	27327	986476	40122	107934	0	0	8223	649591	0	0
2024-05-24 01:03:32			0	35961	0	0	0	21602	20230	140321	26930	986458	40123	107932	0	0	8222	650610	0	0
2024-05-24 01:04:32			0	35974	0	0	0	21605	20230	140349	26828	986458	40101	107933	0	0	8223	650038	0	0
2024-05-24 01:05:32			0	35987	0	0	0	21605	20210	140297	27352	986459	40110	107933	0	0	8223	649539	0	0
2024-05-24 01:06:32			0	35984	0	0	0	21605	20220	140277	27012	986415	40099	107933	0	0	8223	649635	0	0
2024-05-24 01:07:32			0	35963	0	0	0	21602	20210	140349	27121	986406	40110	107932	0	0	8222	650594	0	0
2024-05-24 01:08:32			0	35967	0	0	0	21599	20210	140281	27454	986380	40110	107931	0	0	8222	650418	0	0
2024-05-24 01:09:32			0	35977	0	0	0	21594	20210	140333	27142	986406	40110	107929	0	0	8223	649978	0	0
2024-05-24 01:10:32			0	35996	0	0	0	21592	20210	140361	27263	986318	40121	107928	0	0	8224	649143	0	0
2024-05-24 01:11:32			0	36003	0	0	0	21594	20210	140293	27187	986292	40110	107929	0	0	8224	648836	0	0
2024-05-24 01:12:32			0	35976	0	0	0	21584	20200	140265	27633	986416	40120	107925	0	0	8223	650058	0	0
2024-05-24 01:13:32			0	35976	0	0	0	21579	20210	140277	27327	986292	40110	107923	0	0	8223	650022	0	0
2024-05-24 01:14:32			0	36003	0	0	0	21579	20200	140281	27562	986283	40120	107923	0	0	8225	648872	0	0
2024-05-24 01:15:32			0	36014	0	0	0	21576	20190	140201	27371	986267	40108	107922	0	0	8225	648425	0	0
2024-05-24 01:16:32			0	36015	0	0	0	21555	20200	140117	27104	986302	40119	107914	0	0	8226	648345	0	0
2024-05-24 01:17:32			0	36027	0	0	0	21566	20190	140101	27175	986267	40097	107918	0	0	8226	647854	0	0
2024-05-24 01:18:32			0	36012	0	0	0	21561	20190	140165	27464	986267	40108	107916	0	0	8225	648512	0	0
2024-05-24 01:19:32			0	36036	0	0	0	21566	20190	140081	27251	986311	40119	107918	0	0	8227	647460	0	0
2024-05-24 01:20:32			0	36019	0	0	0	21592	20190	140097	27504	986285	40119	107928	0	0	8225	648205	0	0
2024-05-24 01:21:32			0	36043	0	0	0	21594	20190	140145	27102	986293	40108	107929	0	0	8226	647153	0	0
2024-05-24 01:22:32			0	36035	0	0	0	21612	20200	140101	27083	986487	40130	107936	0	0	8226	647468	0	0
2024-05-24 01:23:32			0	36031	0	0	0	21615	20210	140129	27301	986459	40143	107937	0	0	8226	647608	0	0
2024-05-24 01:24:32			0	36031	0	0	0	21641	20230	140037	27576	986626	40133	107947	0	0	8225	647536	0	0
2024-05-24 01:25:32			0	36029	0	0	0	21672	20260	140057	27294	986766	40147	107959	0	0	8225	647516	0	0
2024-05-24 01:26:32			0	36022	0	0	0	21672	20270	140149	27383	986844	40137	107959	0	0	8224	647788	0	0
2024-05-24 01:27:32			0	36018	0	0	0	21677	20280	140153	27187	986807	40138	107961	0	0	8224	647927	0	0
2024-05-24 01:28:32			0	36009	0	0	0	21670	20300	140233	27317	986886	40118	107958	0	0	8224	648250	0	0
2024-05-24 01:29:32			0	35990	0	0	0	21662	20310	140233	27296	986823	40139	107955	0	0	8223	649048	0	0
2024-05-24 01:30:32			0	35967	0	0	0	21657	20300	140309	27341	986806	40128	107953	0	0	8222	650095	0	0
2024-05-24 01:31:32			0	35971	0	0	0	21659	20310	140345	26890	986796	40128	107954	0	0	8222	649883	0	0
2024-05-24 01:32:32			0	35956	0	0	0	21670	20310	140353	27419	986823	40128	107958	0	0	8221	650542	0	0
2024-05-24 01:33:32			0	35921	0	0	0	21651	20300	140361	27100	986814	40107	107951	0	0	8219	652119	0	0
2024-05-24 01:34:32			0	35917	0	0	0	21649	20300	140477	26965	986841	40107	107950	0	0	8219	652295	0	0
2024-05-24 01:35:32			0	35900	0	0	0	21654	20310	140553	27055	986743	40128	107952	0	0	8218	653008	0	0
2024-05-24 01:36:32			0	35867	0	0	0	21633	20300	140641	27066	986655	40128	107944	0	0	8217	654501	0	0
2024-05-24 01:37:32			0	35870	0	0	0	21636	20290	140633	27027	986691	40117	107945	0	0	8217	654405	0	0
2024-05-24 01:38:32			0	35838	0	0	0	21644	20290	140756	27147	986710	40116	107948	0	0	8215	655819	0	0
2024-05-24 01:39:32			0	35843	0	0	0	21649	20290	140784	26975	986798	40139	107950	0	0	8215	655598	0	0
2024-05-24 01:40:32			0	35831	0	0	0	21768	20300	140776	27024	987000	40151	107996	0	0	8213	656092	0	0
2024-05-24 01:41:32			0	35782	0	0	0	21838	20340	141060	27201	987280	40166	108023	0	0	8209	658117	0	0
2024-05-24 01:42:32			0	35728	0	0	0	21955	20380	141280	27364	987533	40169	108068	0	0	8204	660369	0	0
2024-05-24 01:43:32			0	35678	0	0	0	21955	20410	141428	27024	987601	40161	108068	0	0	8202	662484	0	0
2024-05-24 01:44:32			0	35668	0	0	0	21955	20440	141488	27124	987740	40174	108068	0	0	8201	662820	0	0
2024-05-24 01:45:32			0	35741	0	0	0	21968	20460	141212	27121	987880	40176	108073	0	0	8205	659500	0	0
2024-05-24 01:46:32			0	35850	0	0	0	21999	20510	140728	27407	988008	40180	108085	0	0	8211	654492	0	0
2024-05-24 01:47:32			0	36003	0	0	0	21989	20530	140061	27467	988050	40183	108081	0	0	8219	647690	0	0
2024-05-24 01:48:32			0	36160	0	0	0	21999	20550	139517	27343	988067	40172	108085	0	0	8227	640764	0	0
2024-05-24 01:49:32			0	36265	0	0	0	22041	20550	138973	27163	988155	40172	108101	0	0	8232	636209	0	0
2024-05-24 01:50:32			0	36343	0	0	0	22041	20570	138729	27265	988207	40185	108101	0	0	8237	632770	0	0
2024-05-24 01:51:32			0	36413	0	0	0	22062	20590	138545	27293	988240	40176	108109	0	0	8240	629688	0	0
2024-05-24 01:52:32			0	36458	0	0	0	22075	20610	138245	27222	988282	40179	108114	0	0	8242	627687	0	0
2024-05-24 01:53:32			0	36476	0	0	0	22025	20600	138177	27355	988212	40166	108095	0	0	8244	626950	0	0
2024-05-24 01:54:32			0	36517	0	0	0	21971	20610	138005	27491	988221	40156	108074	0	0	8247	625162	0	0
2024-05-24 01:55:32			0	36533	0	0	0	21914	20610	137969	27400	988096	40167	108052	0	0	8249	624478	0	0
2024-05-24 01:56:32			0	36576	0	0	0	21890	20600	137809	27352	988018	40166	108043	0	0	8252	622677	0	0
2024-05-24 01:57:32			0	36591	0	0	0	21862	20590	137789	27587	987903	40155	108032	0	0	8253	622073	0	0
2024-05-24 01:58:32			0	36598	0	0	0	21864	20590	137766	27067	988010	40155	108033	0	0	8253	621774	0	0
2024-05-24 01:59:32			0	36619	0	0	0	21857	20590	137658	26922	987948	40155	108030	0	0	8254	620880	0	0
2024-05-24 02:00:32			0	36620	0	0	0	21854	20580	137634	27251	987940	40143	108029	0	0	8255	620872	0	0
2024-05-24 02:01:32			0	36577	0	0	0	21973	20580	137645	27431	988046	40166	108075	0	0	8250	622704	0	0
2024-05-24 02:02:32			0	36576	0	0	0	21932	20580	137773	27163	987940	40155	108059	0	0	8251	622746	0	0
2024-05-24 02:03:32			0	36571	0	0	0	21890	20580	137873	27215	987905	40154	108043	0	0	8251	622960	0	0
2024-05-24 02:04:32			0	36553	0	0	0	21867	20570	137881	27327	987896	40164	108034	0	0	8251	623762	0	0
2024-05-24 02:05:32			0	36560	0	0	0	21844	20570	137865	27015	987808	40153	108025	0	0	8251	623463	0	0
2024-05-24 02:06:32			0	36585	0	0	0	21812	20570	137865	27230	987755	40130	108013	0	0	8253	622397	0	0
2024-05-24 02:07:32			0	36583	0	0	0	21776	20550	137777	27322	987642	40129	107999	0	0	8254	622551	0	0
2024-05-24 02:08:32			0	36597	0	0	0	21763	20520	137658	27483	987502	40127	107994	0	0	8255	622058	0	0
2024-05-24 02:09:32			0	36631	0	0	0	21711	20500	137730	27128	987389	40135	107974	0	0	8257	620679	0	0
2024-05-24 02:10:32			0	36653	0	0	0	21696	20490	137554	27327	987293	40125	107968	0	0	8259	619778	0	0
2024-05-24 02:11:32			0	36673	0	0	0	21677	20460	137470	27170	987207	40132	107961	0	0	8260	619031	0	0
2024-05-24 02:12:32			0	36684	0	0	0	21638	20440	137478	27294	987067	40119	107946	0	0	8261	618632	0	0
2024-05-24 02:13:32			0	36710	0	0	0	21625	20420	137330	27364	986981	40127	107941	0	0	8262	617597	0	0
2024-05-24 02:14:32			0	36744	0	0	0	21615	20410	137254	27324	986911	40127	107937	0	0	8264	616191	0	0
2024-05-24 02:15:32			0	36739	0	0	0	21602	20380	137254	27194	986842	40115	107932	0	0	8264	616505	0	0
2024-05-24 02:16:32			0	36767	0	0	0	21594	20360	137258	27159	986809	40124	107929	0	0	8266	615387	0	0
2024-05-24 02:17:32			0	36791	0	0	0	21589	20340	137186	27521	986669	40111	107927	0	0	8267	614440	0	0
2024-05-24 02:18:32			0	36785	0	0	0	21581	20330	137170	27296	986723	40109	107924	0	0	8267	614728	0	0
2024-05-24 02:19:32			0	36794	0	0	0	21581	20320	137102	27386	986662	40121	107924	0	0	8267	614382	0	0
2024-05-24 02:20:32			0	36816	0	0	0	21592	20310	137114	27445	986610	40118	107928	0	0	8268	613486	0	0
2024-05-24 02:21:32			0	36819	0	0	0	21605	20300	137158	27116	986575	40128	107933	0	0	8268	613393	0	0
2024-05-24 02:22:32			0	36839	0	0	0	21610	20290	137030	27234	986665	40117	107935	0	0	8269	612583	0	0
2024-05-24 02:23:32			0	36818	0	0	0	21636	20300	137098	27289	986682	40118	107945	0	0	8268	613435	0	0
2024-05-24 02:24:32			0	36838	0	0	0	21651	20300	137038	27192	986753	40139	107951	0	0	8268	612592	0	0
2024-05-24 02:25:32			0	36847	0	0	0	21654	20300	137062	27090	986761	40139	107952	0	0	8269	612212	0	0
2024-05-24 02:26:32			0	36857	0	0	0	21659	20300	137038	27239	986735	40128	107954	0	0	8269	611791	0	0
2024-05-24 02:27:32			0	36857	0	0	0	21657	20310	136926	27438	986796	40118	107953	0	0	8269	611757	0	0
2024-05-24 02:28:32			0	36870	0	0	0	21662	20310	136898	27281	986858	40129	107955	0	0	8270	611209	0	0
2024-05-24 02:29:32			0	36892	0	0	0	21672	20310	136854	27300	986884	40140	107959	0	0	8271	610283	0	0
2024-05-24 02:30:32			0	36908	0	0	0	21664	20320	136762	27348	986866	40120	107956	0	0	8272	609576	0	0
2024-05-24 02:31:32			0	36917	0	0	0	21677	20320	136786	27426	986813	40120	107961	0	0	8272	609198	0	0
2024-05-24 02:32:32			0	36913	0	0	0	21690	20330	136726	27190	986891	40131	107966	0	0	8272	609333	0	0
2024-05-24 02:33:32			0	36936	0	0	0	21693	20320	136662	27305	986866	40120	107967	0	0	8273	608400	0	0
2024-05-24 02:34:32			0	36929	0	0	0	21644	20320	136590	27232	986874	40131	107948	0	0	8273	608694	0	0
2024-05-24 02:35:32			0	36953	0	0	0	21636	20310	136530	27526	986716	40139	107945	0	0	8275	607720	0	0
2024-05-24 02:36:32			0	36967	0	0	0	21644	20300	136534	26904	986779	40128	107948	0	0	8275	607167	0	0
2024-05-24 02:37:32			0	36987	0	0	0	21633	20310	136514	27384	986770	40128	107944	0	0	8277	606295	0	0
2024-05-24 02:38:32			0	36994	0	0	0	21636	20290	136402	27142	986771	40139	107945	0	0	8277	606069	0	0
2024-05-24 02:39:32			0	37010	0	0	0	21646	20300	136458	26993	986788	40139	107949	0	0	8277	605366	0	0
2024-05-24 02:40:32			0	37008	0	0	0	21667	20310	136386	27116	986796	40128	107957	0	0	8277	605416	0	0
2024-05-24 02:41:32			0	37008	0	0	0	21672	20300	136386	27201	986841	40151	107959	0	0	8277	605449	0	0
2024-05-24 02:42:32			0	37014	0	0	0	21667	20320	136366	27161	986946	40141	107957	0	0	8277	605131	0	0
2024-05-24 02:43:32			0	37025	0	0	0	21680	20320	136310	27438	986981	40153	107962	0	0	8278	604671	0	0
2024-05-24 02:44:32			0	37007	0	0	0	21667	20330	136366	27429	986989	40131	107957	0	0	8277	605391	0	0
2024-05-24 02:45:32			0	37008	0	0	0	21664	20330	136374	27171	986997	40153	107956	0	0	8277	605349	0	0
2024-05-24 02:46:32			0	37030	0	0	0	21664	20360	136390	26920	987093	40145	107956	0	0	8278	604329	0	0
2024-05-24 02:47:32			0	37025	0	0	0	21662	20360	136386	27078	987048	40134	107955	0	0	8278	604538	0	0
2024-05-24 02:48:32			0	37009	0	0	0	21644	20360	136434	27338	987021	40124	107948	0	0	8278	605207	0	0
2024-05-24 02:49:32			0	37006	0	0	0	21625	20370	136334	27327	987003	40124	107941	0	0	8278	605299	0	0
2024-05-24 02:50:32			0	37019	0	0	0	21620	20370	136354	27308	986977	40124	107939	0	0	8279	604755	0	0
2024-05-24 02:51:32			0	37006	0	0	0	21612	20370	136482	27213	987038	40124	107936	0	0	8278	605299	0	0
2024-05-24 02:52:32			0	37004	0	0	0	21612	20370	136298	27237	986985	40124	107936	0	0	8278	605382	0	0
2024-05-24 02:53:32			0	37015	0	0	0	21615	20350	136274	27157	986916	40122	107937	0	0	8278	604989	0	0
2024-05-24 02:54:32			0	37010	0	0	0	21612	20350	136302	27502	986890	40111	107936	0	0	8278	605198	0	0
2024-05-24 02:55:32			0	37014	0	0	0	21610	20330	136290	27476	986865	40121	107935	0	0	8278	605098	0	0
2024-05-24 02:56:32			0	37021	0	0	0	21618	20340	136354	26984	986953	40121	107938	0	0	8279	604772	0	0
2024-05-24 02:57:32			0	37020	0	0	0	21618	20330	136330	27215	986944	40109	107938	0	0	8279	604847	0	0
2024-05-24 02:58:32			0	37013	0	0	0	21610	20340	136398	27358	986873	40099	107935	0	0	8278	605106	0	0
2024-05-24 02:59:32			0	37017	0	0	0	21610	20320	136330	27339	986848	40121	107935	0	0	8279	605006	0	0
2024-05-24 03:00:32			0	37011	0	0	0	21607	20330	136358	26941	986883	40109	107934	0	0	8278	605223	0	0
2024-05-24 03:01:32			0	37013	0	0	0	21602	20320	136382	26897	986821	40109	107932	0	0	8278	605173	0	0
2024-05-24 03:02:32			0	37021	0	0	0	21599	20310	136446	27275	986805	40108	107931	0	0	8279	604872	0	0
2024-05-24 03:03:32			0	37003	0	0	0	21597	20330	136398	27390	986856	40109	107930	0	0	8278	605558	0	0
2024-05-24 03:04:32			0	37005	0	0	0	21599	20320	136338	27003	986813	40120	107931	0	0	8278	605508	0	0
2024-05-24 03:05:32			0	37006	0	0	0	21602	20320	136434	27022	986680	40120	107932	0	0	8278	605466	0	0
2024-05-24 03:06:32			0	37016	0	0	0	21592	20310	136378	27085	986778	40108	107928	0	0	8279	605081	0	0
2024-05-24 03:07:32			0	37019	0	0	0	21573	20300	136414	27396	986708	40118	107921	0	0	8279	604989	0	0
2024-05-24 03:08:32			0	36992	0	0	0	21558	20290	136390	27303	986665	40106	107915	0	0	8278	606152	0	0
2024-05-24 03:09:32			0	37009	0	0	0	21542	20280	136378	27216	986595	40094	107909	0	0	8279	605474	0	0
2024-05-24 03:10:32			0	37005	0	0	0	21532	20270	136350	27263	986525	40104	107905	0	0	8279	605675	0	0
2024-05-24 03:11:32			0	37042	0	0	0	21522	20260	136290	27265	986474	40103	107901	0	0	8281	604161	0	0
2024-05-24 03:12:32			0	37026	0	0	0	21519	20250	136346	27315	986412	40102	107900	0	0	8280	604863	0	0
2024-05-24 03:13:32			0	37052	0	0	0	21511	20240	136326	27355	986404	40113	107897	0	0	8282	603810	0	0
2024-05-24 03:14:32			0	37038	0	0	0	21501	20230	136250	27348	986352	40079	107893	0	0	8281	604428	0	0
2024-05-24 03:15:32			0	37051	0	0	0	21498	20220	136266	27306	986256	40110	107892	0	0	8282	603918	0	0
2024-05-24 03:16:32			0	37061	0	0	0	21490	20210	136210	27502	986239	40110	107889	0	0	8282	603534	0	0
2024-05-24 03:17:32			0	37066	0	0	0	21485	20200	136246	27450	986222	40108	107887	0	0	8283	603358	0	0
2024-05-24 03:18:32			0	37074	0	0	0	21490	20190	136230	27126	986187	40097	107889	0	0	8283	603057	0	0
2024-05-24 03:19:32			0	37062	0	0	0	21485	20180	136294	27351	986144	40096	107887	0	0	8282	603592	0	0
2024-05-24 03:20:32			0	37067	0	0	0	21483	20180	136254	27234	986170	40096	107886	0	0	8283	603383	0	0
2024-05-24 03:21:32			0	37063	0	0	0	21470	20170	136262	27170	986119	40094	107881	0	0	8283	603583	0	0
2024-05-24 03:22:32			0	37058	0	0	0	21475	20170	136182	27041	986119	40083	107883	0	0	8282	603792	0	0
2024-05-24 03:23:32			0	37053	0	0	0	21477	20160	136262	27059	986182	40105	107884	0	0	8282	604035	0	0
2024-05-24 03:24:32			0	37056	0	0	0	21472	20170	136274	27057	986119	40094	107882	0	0	8282	603876	0	0
2024-05-24 03:25:32			0	37044	0	0	0	21475	20160	136410	27003	986235	40126	107883	0	0	8282	604411	0	0
2024-05-24 03:26:32			0	37036	0	0	0	21470	20150	136430	27133	986067	40093	107881	0	0	8281	604779	0	0
2024-05-24 03:27:32			0	37016	0	0	0	21472	20160	136406	27355	986217	40094	107882	0	0	8280	605582	0	0
2024-05-24 03:28:32			0	37022	0	0	0	21483	20150	136430	27222	986112	40104	107886	0	0	8280	605365	0	0
2024-05-24 03:29:32			0	37007	0	0	0	21501	20150	136534	27405	986165	40104	107893	0	0	8279	605993	0	0
2024-05-24 03:30:32			0	37009	0	0	0	21506	20160	136534	27196	986163	40106	107895	0	0	8279	605875	0	0
2024-05-24 03:31:32			0	36997	0	0	0	21509	20160	136506	27453	986129	40094	107896	0	0	8279	606378	0	0
2024-05-24 03:32:32			0	36999	0	0	0	21503	20150	136594	27279	986173	40093	107894	0	0	8279	606328	0	0
2024-05-24 03:33:32			0	36981	0	0	0	21498	20150	136626	27102	986085	40115	107892	0	0	8278	607082	0	0
2024-05-24 03:34:32			0	36989	0	0	0	21488	20140	136574	27336	986077	40093	107888	0	0	8278	606780	0	0
2024-05-24 03:35:32			0	36984	0	0	0	21470	20150	136590	27112	986067	40104	107881	0	0	8278	606956	0	0
2024-05-24 03:36:32			0	36966	0	0	0	21470	20130	136578	27156	986034	40091	107881	0	0	8277	607779	0	0
2024-05-24 03:37:32			0	36963	0	0	0	21462	20130	136674	26994	985981	40113	107878	0	0	8277	607904	0	0
2024-05-24 03:38:32			0	36958	0	0	0	21454	20120	136722	27438	985929	40101	107875	0	0	8277	608148	0	0
2024-05-24 03:39:32			0	36962	0	0	0	21438	20120	136634	27467	985911	40113	107869	0	0	8278	607980	0	0
2024-05-24 03:40:32			0	36942	0	0	0	21433	20110	136750	27185	985868	40112	107867	0	0	8277	608854	0	0
2024-05-24 03:41:32			0	36922	0	0	0	21418	20100	136758	27298	985824	40088	107861	0	0	8276	609728	0	0
2024-05-24 03:42:32			0	36936	0	0	0	21423	20090	136830	26974	985861	40099	107863	0	0	8276	609173	0	0
2024-05-24 03:43:32			0	36908	0	0	0	21428	20090	136818	27066	985799	40099	107865	0	0	8275	610351	0	0
2024-05-24 03:44:32			0	36918	0	0	0	21431	20090	136734	27274	985799	40099	107866	0	0	8275	609930	0	0
2024-05-24 03:45:32			0	36893	0	0	0	21425	20080	136862	27267	985809	40098	107864	0	0	8274	611016	0	0
2024-05-24 03:46:32			0	36900	0	0	0	21423	20080	136930	27303	985729	40098	107863	0	0	8275	610721	0	0
2024-05-24 03:47:32			0	36883	0	0	0	21425	20070	136918	26698	985686	40097	107864	0	0	8274	611471	0	0
2024-05-24 03:48:32			0	36855	0	0	0	21425	20070	136926	27371	985774	40086	107864	0	0	8272	612652	0	0
2024-05-24 03:49:32			0	36852	0	0	0	21420	20080	137118	27133	985835	40109	107862	0	0	8272	612745	0	0
2024-05-24 03:50:32			0	36878	0	0	0	21425	20070	137086	27415	985765	40097	107864	0	0	8273	611682	0	0
2024-05-24 03:51:32			0	36851	0	0	0	21418	20060	137102	27242	985731	40096	107861	0	0	8272	612855	0	0
2024-05-24 03:52:32			0	36824	0	0	0	21405	20060	137206	27055	985696	40095	107856	0	0	8271	613995	0	0
2024-05-24 03:53:32			0	36812	0	0	0	21397	20060	137266	27421	985669	40106	107853	0	0	8270	614502	0	0
2024-05-24 03:54:32			0	36793	0	0	0	21384	20060	137298	27383	985722	40095	107848	0	0	8269	615306	0	0
2024-05-24 03:55:32			0	36793	0	0	0	21376	20050	137342	27421	985679	40117	107845	0	0	8270	615340	0	0
2024-05-24 03:56:32			0	36796	0	0	0	21361	20040	137286	27708	985609	40083	107839	0	0	8270	615247	0	0
2024-05-24 03:57:32			0	36763	0	0	0	21358	20030	137282	27001	985574	40105	107838	0	0	8268	616679	0	0
2024-05-24 03:58:32			0	36770	0	0	0	21363	20040	137318	27026	985564	40117	107840	0	0	8268	616348	0	0
2024-05-24 03:59:32			0	36762	0	0	0	21361	20030	137326	27362	985574	40093	107839	0	0	8268	616721	0	0
2024-05-24 04:00:32			0	36756	0	0	0	21342	20020	137550	27060	985549	40092	107832	0	0	8268	617010	0	0
2024-05-24 04:01:32			0	36739	0	0	0	21340	20020	137546	27457	985531	40104	107831	0	0	8267	617731	0	0
2024-05-24 04:02:32			0	36728	0	0	0	21319	20020	137574	27440	985531	40092	107823	0	0	8267	618198	0	0
2024-05-24 04:03:32			0	36723	0	0	0	21335	20010	137546	27156	985567	40081	107829	0	0	8266	618444	0	0
2024-05-24 04:04:32			0	36704	0	0	0	21342	20010	137582	27085	985514	40092	107832	0	0	8265	619252	0	0
2024-05-24 04:05:32			0	36692	0	0	0	21337	20010	137634	27020	985479	40102	107830	0	0	8265	619762	0	0
2024-05-24 04:06:32			0	36679	0	0	0	21342	20000	137766	27142	985498	40091	107832	0	0	8264	620349	0	0
2024-05-24 04:07:32			0	36668	0	0	0	21348	20000	137818	27319	985489	40090	107834	0	0	8263	620818	0	0
2024-05-24 04:08:32			0	36650	0	0	0	21355	20010	137870	27374	985479	40102	107837	0	0	8262	621550	0	0
2024-05-24 04:09:32			0	36641	0	0	0	21361	20010	138006	27737	985506	40091	107839	0	0	8262	621934	0	0
2024-05-24 04:10:32			0	36612	0	0	0	21340	20000	137986	27360	985471	40091	107831	0	0	8260	623206	0	0
2024-05-24 04:11:32			0	36630	0	0	0	21335	20010	138030	27232	985506	40091	107829	0	0	8261	622403	0	0
2024-05-24 04:12:32			0	36599	0	0	0	21332	20000	138045	27353	985418	40102	107828	0	0	8260	623761	0	0
2024-05-24 04:13:32			0	36586	0	0	0	21322	20000	138205	27402	985436	40090	107824	0	0	8259	624317	0	0
2024-05-24 04:14:32			0	36577	0	0	0	21322	19980	138161	27512	985350	40088	107824	0	0	8259	624770	0	0
2024-05-24 04:15:32			0	36562	0	0	0	21327	19980	138281	27076	985278	40089	107826	0	0	8258	625412	0	0
2024-05-24 04:16:32			0	36531	0	0	0	21342	20000	138281	27360	985356	40090	107832	0	0	8256	626671	0	0
2024-05-24 04:17:32			0	36525	0	0	0	21353	19980	138277	27530	985438	40068	107836	0	0	8255	626997	0	0
2024-05-24 04:18:32			0	36520	0	0	0	21329	19980	138401	27426	985411	40089	107827	0	0	8256	627212	0	0
2024-05-24 04:19:32			0	36512	0	0	0	21337	19980	138501	27242	985411	40089	107830	0	0	8255	627555	0	0
2024-05-24 04:20:32			0	36483	0	0	0	21355	19980	138489	27189	985456	40099	107837	0	0	8253	628800	0	0
2024-05-24 04:21:32			0	36466	0	0	0	21358	19990	138477	27038	985499	40111	107838	0	0	8252	629496	0	0
2024-05-24 04:22:32			0	36475	0	0	0	21358	20000	138605	27204	985436	40101	107838	0	0	8253	629074	0	0
2024-05-24 04:23:32			0	36457	0	0	0	21353	19990	138601	27357	985428	40100	107836	0	0	8252	629883	0	0
2024-05-24 04:24:32			0	36459	0	0	0	21342	19990	138601	27173	985428	40100	107832	0	0	8252	629797	0	0
2024-05-24 04:25:32			0	36422	0	0	0	21337	19990	138645	27216	985446	40089	107830	0	0	8250	631390	0	0
2024-05-24 04:26:32			0	36424	0	0	0	21335	19980	138725	27203	985411	40079	107829	0	0	8250	631338	0	0
2024-05-24 04:27:32			0	36415	0	0	0	21348	19990	138753	27033	985393	40089	107834	0	0	8250	631691	0	0
2024-05-24 04:28:32			0	36401	0	0	0	21374	19990	138849	27249	985499	40089	107844	0	0	8248	632295	0	0
2024-05-24 04:29:32			0	36392	0	0	0	21389	19980	138857	27550	985491	40100	107850	0	0	8248	632718	0	0
2024-05-24 04:30:32			0	36400	0	0	0	21397	19990	138881	27334	985534	40111	107853	0	0	8248	632338	0	0
2024-05-24 04:31:32			0	36387	0	0	0	21384	19990	138917	27348	985526	40100	107848	0	0	8248	632899	0	0
2024-05-24 04:32:32			0	36363	0	0	0	21384	20000	138917	27291	985516	40101	107848	0	0	8246	633901	0	0
2024-05-24 04:33:32			0	36354	0	0	0	21363	20000	139073	27190	985489	40101	107840	0	0	8246	634289	0	0
2024-05-24 04:34:32			0	36359	0	0	0	21363	20000	139013	27407	985542	40101	107840	0	0	8246	634073	0	0
2024-05-24 04:35:32			0	36330	0	0	0	21350	20000	139029	27467	985489	40101	107835	0	0	8245	635327	0	0
2024-05-24 04:36:32			0	36335	0	0	0	21324	20000	139069	27466	985383	40090	107825	0	0	8246	635111	0	0
2024-05-24 04:37:32			0	36335	0	0	0	21311	19980	139049	27308	985464	40089	107820	0	0	8246	635181	0	0
2024-05-24 04:38:32			0	36303	0	0	0	21285	19990	139137	27223	985313	40089	107810	0	0	8245	636531	0	0
2024-05-24 04:39:32			0	36293	0	0	0	21288	19980	139185	27435	985323	40088	107811	0	0	8244	637000	0	0
2024-05-24 04:40:32			0	36288	0	0	0	21283	19960	139229	27137	985271	40109	107809	0	0	8244	637287	0	0
2024-05-24 04:41:32			0	36276	0	0	0	21285	19970	139297	27320	985253	40077	107810	0	0	8243	637772	0	0
2024-05-24 04:42:32			0	36274	0	0	0	21275	19950	139289	27564	985289	40076	107806	0	0	8243	637930	0	0
2024-05-24 04:43:32			0	36281	0	0	0	21285	19950	139365	27268	985254	40085	107810	0	0	8243	637626	0	0
2024-05-24 04:44:32			0	36247	0	0	0	21283	19950	139421	27350	985175	40085	107809	0	0	8242	639102	0	0
2024-05-24 04:45:32			0	36265	0	0	0	21264	19930	139401	26963	985141	40084	107802	0	0	8243	638391	0	0
2024-05-24 04:46:32			0	36238	0	0	0	21233	19930	139401	27256	985097	40096	107790	0	0	8242	639564	0	0
2024-05-24 04:47:32			0	36243	0	0	0	21225	19930	139437	27166	985088	40084	107787	0	0	8242	639346	0	0
2024-05-24 04:48:32			0	36220	0	0	0	21197	19920	139509	27267	985045	40083	107776	0	0	8241	640382	0	0
2024-05-24 04:49:32			0	36205	0	0	0	21194	19890	139565	26970	984897	40092	107775	0	0	8241	641141	0	0
2024-05-24 04:50:32			0	36204	0	0	0	21179	19890	139649	27104	984915	40059	107769	0	0	8241	641185	0	0
2024-05-24 04:51:32			0	36170	0	0	0	21171	19880	139793	27086	984872	40080	107766	0	0	8239	642702	0	0
2024-05-24 04:52:32			0	36131	0	0	0	21171	19870	139865	27377	984837	40080	107766	0	0	8237	644441	0	0
2024-05-24 04:53:32			0	36092	0	0	0	21161	19860	139941	27372	984847	40067	107762	0	0	8235	646183	0	0
2024-05-24 04:54:32			0	36086	0	0	0	21153	19870	140017	26948	984855	40079	107759	0	0	8235	646410	0	0
2024-05-24 04:55:32			0	36020	0	0	0	21161	19860	140285	26875	984821	40067	107762	0	0	8231	649342	0	0
2024-05-24 04:56:32			0	36028	0	0	0	21163	19840	140453	27105	984778	40086	107763	0	0	8231	649062	0	0
2024-05-24 04:57:32			0	35945	0	0	0	21153	19830	140573	27388	984797	40065	107759	0	0	8227	652752	0	0
2024-05-24 04:58:32			0	35919	0	0	0	21153	19840	140717	27277	984725	40065	107759	0	0	8226	653864	0	0
2024-05-24 04:59:32			0	35888	0	0	0	21153	19830	140785	27244	984735	40065	107759	0	0	8224	655270	0	0
2024-05-24 05:00:32			0	35841	0	0	0	21140	19830	141052	27147	984709	40076	107754	0	0	8222	657352	0	0
2024-05-24 05:01:32			0	35794	0	0	0	21140	19820	141204	26946	984612	40074	107754	0	0	8219	659475	0	0
2024-05-24 05:02:32			0	35752	0	0	0	21148	19810	141388	27213	984649	40074	107757	0	0	8217	661379	0	0
2024-05-24 05:03:32			0	35721	0	0	0	21142	19810	141516	27194	984631	40063	107755	0	0	8215	662761	0	0
2024-05-24 05:04:32			0	35688	0	0	0	21153	19810	141744	27244	984622	40084	107759	0	0	8213	664234	0	0
2024-05-24 05:05:32			0	35616	0	0	0	21153	19790	141888	27433	984589	40072	107759	0	0	8209	667530	0	0
2024-05-24 05:06:32			0	35596	0	0	0	21148	19790	142008	27568	984571	40072	107757	0	0	8208	668427	0	0
2024-05-24 05:07:32			0	35579	0	0	0	21137	19800	142124	27450	984632	40061	107753	0	0	8207	669153	0	0
2024-05-24 05:08:32			0	35535	0	0	0	21140	19790	142272	27220	984571	40072	107754	0	0	8205	671169	0	0
2024-05-24 05:09:32			0	35499	0	0	0	21127	19780	142272	27258	984554	40072	107749	0	0	8203	672828	0	0
2024-05-24 05:10:32			0	35496	0	0	0	21129	19780	142356	27303	984554	40060	107750	0	0	8203	672963	0	0
2024-05-24 05:11:32			0	35481	0	0	0	21116	19780	142444	27244	984527	40072	107745	0	0	8202	673640	0	0
2024-05-24 05:12:32			0	35455	0	0	0	21114	19770	142564	27246	984476	40059	107744	0	0	8201	674851	0	0
2024-05-24 05:13:32			0	35435	0	0	0	21109	19760	142528	27379	984494	40070	107742	0	0	8200	675793	0	0
2024-05-24 05:14:32			0	35431	0	0	0	21106	19770	142620	27481	984458	40070	107741	0	0	8200	675936	0	0
2024-05-24 05:15:32			0	35450	0	0	0	21106	19760	142636	27371	984433	40058	107741	0	0	8201	675114	0	0
2024-05-24 05:16:32			0	35437	0	0	0	21098	19750	142636	27251	984424	40057	107738	0	0	8200	675739	0	0
2024-05-24 05:17:32			0	35432	0	0	0	21090	19760	142644	27203	984433	40069	107735	0	0	8200	675928	0	0
2024-05-24 05:18:32			0	35452	0	0	0	21096	19750	142588	27183	984451	40057	107737	0	0	8201	675061	0	0
2024-05-24 05:19:32			0	35427	0	0	0	21096	19740	142560	27317	984381	40079	107737	0	0	8200	676229	0	0
2024-05-24 05:20:32			0	35450	0	0	0	21083	19730	142572	27447	984311	40066	107732	0	0	8201	675226	0	0
2024-05-24 05:21:32			0	35459	0	0	0	21080	19740	142536	27254	984373	40056	107731	0	0	8202	674782	0	0
2024-05-24 05:22:32			0	35458	0	0	0	21083	19740	142560	27239	984328	40057	107732	0	0	8201	674827	0	0
2024-05-24 05:23:32			0	35466	0	0	0	21088	19730	142616	27142	984364	40066	107734	0	0	8202	674503	0	0
2024-05-24 05:24:32			0	35489	0	0	0	21083	19740	142520	27258	984346	40078	107732	0	0	8203	673427	0	0
2024-05-24 05:25:32			0	35483	0	0	0	21072	19720	142532	27121	984295	40054	107728	0	0	8203	673772	0	0
2024-05-24 05:26:32			0	35480	0	0	0	21067	19730	142516	27289	984338	40055	107726	0	0	8203	673870	0	0
2024-05-24 05:27:32			0	35495	0	0	0	21064	19720	142492	27415	984242	40065	107725	0	0	8204	673230	0	0
2024-05-24 05:28:32			0	35486	0	0	0	21051	19710	142452	27396	984225	40076	107720	0	0	8203	673674	0	0
2024-05-24 05:29:32			0	35468	0	0	0	21067	19710	142484	27124	984269	40064	107726	0	0	8202	674487	0	0
2024-05-24 05:30:32			0	35480	0	0	0	21090	19710	142456	27414	984269	40064	107735	0	0	8202	673945	0	0
2024-05-24 05:31:32			0	35493	0	0	0	21098	19710	142464	27189	984278	40064	107738	0	0	8203	673358	0	0
2024-05-24 05:32:32			0	35483	0	0	0	21101	19710	142416	27124	984304	40053	107739	0	0	8202	673809	0	0
2024-05-24 05:33:32			0	35506	0	0	0	21106	19720	142380	27405	984366	40077	107741	0	0	8204	672734	0	0
2024-05-24 05:34:32			0	35509	0	0	0	21111	19720	142376	27538	984348	40065	107743	0	0	8204	672599	0	0
2024-05-24 05:35:32			0	35479	0	0	0	21116	19720	142412	27552	984339	40065	107745	0	0	8202	673952	0	0
2024-05-24 05:36:32			0	35494	0	0	0	21124	19720	142524	27402	984427	40077	107748	0	0	8203	673276	0	0
2024-05-24 05:37:32			0	35471	0	0	0	21135	19720	142476	27150	984454	40077	107752	0	0	8201	674314	0	0
2024-05-24 05:38:32			0	35484	0	0	0	21119	19730	142440	27374	984444	40066	107746	0	0	8202	673690	0	0
2024-05-24 05:39:32			0	35486	0	0	0	21098	19740	142412	27440	984399	40067	107738	0	0	8203	673562	0	0
2024-05-24 05:40:32			0	35474	0	0	0	21088	19730	142480	27315	984338	40066	107734	0	0	8202	674141	0	0
2024-05-24 05:41:32			0	35482	0	0	0	21067	19730	142468	27279	984356	40054	107726	0	0	8203	673780	0	0
2024-05-24 05:42:32			0	35457	0	0	0	21059	19720	142548	27485	984321	40054	107723	0	0	8202	674946	0	0
2024-05-24 05:43:32			0	35455	0	0	0	21046	19720	142600	27173	984295	40065	107718	0	0	8202	675037	0	0
2024-05-24 05:44:32			0	35436	0	0	0	21054	19710	142636	27414	984225	40053	107721	0	0	8201	675933	0	0
2024-05-24 05:45:32			0	35443	0	0	0	21049	19720	142600	27185	984259	40077	107719	0	0	8201	675580	0	0
2024-05-24 05:46:32			0	35433	0	0	0	21064	19710	142572	27345	984216	40064	107725	0	0	8200	676069	0	0
2024-05-24 05:47:32			0	35426	0	0	0	21070	19700	142628	27405	984287	40064	107727	0	0	8200	676423	0	0
2024-05-24 05:48:32			0	35417	0	0	0	21077	19710	142628	27284	984296	40064	107730	0	0	8199	676794	0	0
2024-05-24 05:49:32			0	35412	0	0	0	21070	19710	142740	27060	984269	40075	107727	0	0	8199	677020	0	0
2024-05-24 05:50:32			0	35405	0	0	0	21070	19710	142764	27308	984269	40052	107727	0	0	8199	677337	0	0
2024-05-24 05:51:32			0	35414	0	0	0	21077	19720	142828	27332	984259	40077	107730	0	0	8199	676892	0	0
2024-05-24 05:52:32			0	35395	0	0	0	21070	19710	142884	27109	984296	40064	107727	0	0	8198	677791	0	0
2024-05-24 05:53:32			0	35396	0	0	0	21057	19710	142728	27249	984251	40064	107722	0	0	8198	677745	0	0
2024-05-24 05:54:32			0	35359	0	0	0	21051	19710	142876	27379	984216	40064	107720	0	0	8196	679424	0	0
2024-05-24 05:55:32			0	35366	0	0	0	21051	19700	142832	27281	984234	40052	107720	0	0	8197	679144	0	0
2024-05-24 05:56:32			0	35366	0	0	0	21038	19700	142884	27390	984155	40064	107715	0	0	8197	679144	0	0
2024-05-24 05:57:32			0	35370	0	0	0	21054	19700	142812	27526	984102	40075	107721	0	0	8197	678962	0	0
2024-05-24 05:58:32			0	35364	0	0	0	21051	19690	142856	27164	984112	40084	107720	0	0	8197	679272	0	0
2024-05-24 05:59:32			0	35351	0	0	0	21046	19690	142860	27229	984130	40051	107718	0	0	8196	679863	0	0
2024-05-24 06:00:32			0	35346	0	0	0	21041	19680	142996	27220	984148	40062	107716	0	0	8196	680127	0	0
2024-05-24 06:01:32			0	35334	0	0	0	21025	19680	142960	27267	984148	40062	107710	0	0	8195	680673	0	0
2024-05-24 06:02:32			0	35330	0	0	0	21018	19670	142892	27232	984131	40061	107707	0	0	8195	680892	0	0
2024-05-24 06:03:32			0	35323	0	0	0	21015	19680	142972	27474	984095	40051	107706	0	0	8195	681173	0	0
2024-05-24 06:04:32			0	35300	0	0	0	21012	19670	143012	27362	984043	40049	107705	0	0	8194	682258	0	0
2024-05-24 06:05:32			0	35295	0	0	0	21020	19680	143100	27476	984087	40062	107708	0	0	8193	682449	0	0
2024-05-24 06:06:32			0	35271	0	0	0	21023	19670	143152	27279	984131	40061	107709	0	0	8192	683581	0	0
2024-05-24 06:07:32			0	35264	0	0	0	21018	19670	143224	27391	984096	40049	107707	0	0	8192	683900	0	0
2024-05-24 06:08:32			0	35257	0	0	0	21005	19670	143284	27138	984043	40071	107702	0	0	8192	684220	0	0
2024-05-24 06:09:32			0	35248	0	0	0	20999	19650	143396	27580	984080	40048	107700	0	0	8191	684706	0	0
2024-05-24 06:10:32			0	35239	0	0	0	20997	19660	143372	27611	984035	40059	107699	0	0	8191	685080	0	0
2024-05-24 06:11:32			0	35218	0	0	0	20984	19660	143480	27287	984035	40059	107694	0	0	8190	686040	0	0
2024-05-24 06:12:32			0	35207	0	0	0	20981	19640	143548	27036	984002	40046	107693	0	0	8189	686619	0	0
2024-05-24 06:13:32			0	35186	0	0	0	20966	19640	143480	27123	983957	40047	107687	0	0	8188	687581	0	0
2024-05-24 06:14:32			0	35186	0	0	0	20968	19630	143656	27038	983879	40046	107688	0	0	8188	687619	0	0
2024-05-24 06:15:32			0	35164	0	0	0	20963	19630	143620	27152	983879	40046	107686	0	0	8187	688628	0	0
2024-05-24 06:16:32			0	35168	0	0	0	20961	19630	143704	27450	983905	40057	107685	0	0	8187	688444	0	0
2024-05-24 06:17:32			0	35135	0	0	0	20958	19610	143804	27384	983827	40044	107684	0	0	8185	690035	0	0
2024-05-24 06:18:32			0	35133	0	0	0	20953	19610	143800	27234	983880	40056	107682	0	0	8185	690127	0	0
2024-05-24 06:19:32			0	35104	0	0	0	20958	19600	143927	27310	983811	40044	107684	0	0	8184	691499	0	0
2024-05-24 06:20:32			0	35112	0	0	0	20950	19600	143903	27300	983784	40055	107681	0	0	8184	691131	0	0
2024-05-24 06:21:32			0	35092	0	0	0	20953	19600	143991	27216	983749	40054	107682	0	0	8183	692052	0	0
2024-05-24 06:22:32			0	35082	0	0	0	20948	19600	143955	27471	983784	40044	107680	0	0	8183	692512	0	0
2024-05-24 06:23:32			0	35083	0	0	0	20945	19590	144047	27185	983741	40043	107679	0	0	8183	692504	0	0
2024-05-24 06:24:32			0	35080	0	0	0	20948	19600	144063	27320	983776	40054	107680	0	0	8182	692604	0	0
2024-05-24 06:25:32			0	35069	0	0	0	20932	19590	144107	27140	983759	40053	107674	0	0	8182	693149	0	0
2024-05-24 06:26:32			0	35060	0	0	0	20929	19580	144127	27173	983716	40041	107673	0	0	8182	693603	0	0
2024-05-24 06:27:32			0	35064	0	0	0	20927	19580	144087	27090	983644	40042	107672	0	0	8182	693418	0	0
2024-05-24 06:28:32			0	35040	0	0	0	20924	19580	144179	27268	983689	40052	107671	0	0	8181	694526	0	0
2024-05-24 06:29:32			0	35046	0	0	0	20919	19570	144223	27164	983681	40041	107669	0	0	8181	694287	0	0
2024-05-24 06:30:32			0	35053	0	0	0	20927	19570	144267	27239	983681	40052	107672	0	0	8181	693964	0	0
2024-05-24 06:31:32			0	35046	0	0	0	20914	19570	144303	27623	983672	40030	107667	0	0	8181	694287	0	0
2024-05-24 06:32:32			0	35047	0	0	0	20911	19570	144255	27332	983646	40051	107666	0	0	8181	694241	0	0
2024-05-24 06:33:32			0	35019	0	0	0	20911	19560	144219	27448	983629	40040	107666	0	0	8179	695573	0	0
2024-05-24 06:34:32			0	35042	0	0	0	20914	19560	144263	27246	983576	40050	107667	0	0	8181	694510	0	0
2024-05-24 06:35:32			0	35026	0	0	0	20914	19550	144287	27474	983541	40050	107667	0	0	8180	695287	0	0
2024-05-24 06:36:32			0	35019	0	0	0	20919	19560	144303	27187	983656	40062	107669	0	0	8179	695573	0	0
2024-05-24 06:37:32			0	35031	0	0	0	20919	19550	144275	27609	983612	40061	107669	0	0	8180	695056	0	0
2024-05-24 06:38:32			0	35029	0	0	0	20914	19540	144299	27237	983657	40049	107667	0	0	8180	695187	0	0
2024-05-24 06:39:32			0	35019	0	0	0	20919	19550	144355	27305	983586	40050	107669	0	0	8179	695611	0	0
2024-05-24 06:40:32			0	35027	0	0	0	20924	19550	144275	27538	983621	40050	107671	0	0	8180	695241	0	0
2024-05-24 06:41:32			0	35037	0	0	0	20922	19550	144171	27142	983594	40028	107670	0	0	8180	694779	0	0
2024-05-24 06:42:32			0	35056	0	0	0	20914	19550	144271	27395	983639	40050	107667	0	0	8181	693902	0	0
2024-05-24 06:43:32			0	35036	0	0	0	20922	19550	144235	27642	983586	40050	107670	0	0	8180	694825	0	0
2024-05-24 06:44:32			0	35065	0	0	0	20919	19530	144247	27614	983534	40059	107669	0	0	8182	693563	0	0
2024-05-24 06:45:32			0	35079	0	0	0	20919	19540	144123	27509	983542	40049	107669	0	0	8183	692879	0	0
2024-05-24 06:46:32			0	35089	0	0	0	20919	19540	144019	27391	983516	40049	107669	0	0	8183	692418	0	0
2024-05-24 06:47:32			0	35119	0	0	0	20919	19540	144056	27256	983551	40060	107669	0	0	8185	691037	0	0
2024-05-24 06:48:32			0	35118	0	0	0	20916	19540	143955	27294	983630	40038	107668	0	0	8185	691083	0	0
2024-05-24 06:49:32			0	35153	0	0	0	20922	19530	143800	27466	983499	40048	107670	0	0	8187	689512	0	0
2024-05-24 06:50:32			0	35184	0	0	0	20927	19530	143708	27329	983579	40048	107672	0	0	8188	688089	0	0
2024-05-24 06:51:32			0	35202	0	0	0	20911	19530	143592	27386	983614	40038	107666	0	0	8189	687264	0	0
2024-05-24 06:52:32			0	35234	0	0	0	20914	19550	143488	27476	983612	40039	107667	0	0	8191	685723	0	0
2024-05-24 06:53:32			0	35271	0	0	0	20914	19540	143432	27417	983524	40060	107667	0	0	8193	684070	0	0
2024-05-24 06:54:32			0	35300	0	0	0	20922	19540	143240	27483	983551	40049	107670	0	0	8195	682747	0	0
2024-05-24 06:55:32			0	35324	0	0	0	20919	19530	143148	27531	983454	40059	107669	0	0	8196	681690	0	0
2024-05-24 06:56:32			0	35370	0	0	0	20911	19540	142996	27234	983516	40049	107666	0	0	8199	679560	0	0
2024-05-24 06:57:32			0	35407	0	0	0	20909	19530	142740	27253	983579	40038	107665	0	0	8201	677918	0	0
2024-05-24 06:58:32			0	35422	0	0	0	20916	19540	142752	27419	983622	40038	107668	0	0	8201	677200	0	0
2024-05-24 06:59:32			0	35462	0	0	0	20909	19530	142492	27474	983579	40048	107665	0	0	8204	675426	0	0
2024-05-24 07:00:32			0	35511	0	0	0	20896	19530	142452	27464	983481	40059	107660	0	0	8207	673212	0	0
2024-05-24 07:01:32			0	35531	0	0	0	20883	19530	142280	27133	983561	40048	107655	0	0	8208	672310	0	0
2024-05-24 07:02:32			0	35549	0	0	0	20888	19520	142232	27396	983544	40047	107657	0	0	8209	671536	0	0
2024-05-24 07:03:32			0	35579	0	0	0	20885	19520	142072	27452	983464	40047	107656	0	0	8210	670185	0	0
2024-05-24 07:04:32			0	35598	0	0	0	20880	19520	141960	27355	983482	40047	107654	0	0	8212	669331	0	0
2024-05-24 07:05:32			0	35635	0	0	0	20890	19520	141952	27324	983482	40047	107658	0	0	8213	667670	0	0
2024-05-24 07:06:32			0	35654	0	0	0	20888	19520	141756	27279	983535	40047	107657	0	0	8214	666818	0	0
2024-05-24 07:07:32			0	35683	0	0	0	20885	19510	141764	27391	983448	40046	107656	0	0	8216	665556	0	0
2024-05-24 07:08:32			0	35684	0	0	0	20885	19520	141724	27737	983464	40047	107656	0	0	8216	665474	0	0
2024-05-24 07:09:32			0	35698	0	0	0	20888	19520	141592	27543	983482	40047	107657	0	0	8217	664848	0	0
2024-05-24 07:10:32			0	35721	0	0	0	20885	19510	141560	27100	983448	40046	107656	0	0	8218	663856	0	0
2024-05-24 07:11:32			0	35721	0	0	0	20875	19510	141544	27452	983474	40036	107652	0	0	8218	663856	0	0
2024-05-24 07:12:32			0	35705	0	0	0	20877	19510	141588	27523	983360	40046	107653	0	0	8217	664571	0	0
2024-05-24 07:13:32			0	35689	0	0	0	20870	19510	141680	27516	983333	40046	107650	0	0	8217	665287	0	0
2024-05-24 07:14:32			0	35686	0	0	0	20857	19500	141648	27182	983396	40035	107645	0	0	8217	665458	0	0
2024-05-24 07:15:32			0	35661	0	0	0	20854	19500	141748	27282	983325	40035	107644	0	0	8215	666577	0	0
2024-05-24 07:16:32			0	35651	0	0	0	20854	19500	141732	27485	983317	40045	107644	0	0	8215	667025	0	0
2024-05-24 07:17:32			0	35644	0	0	0	20849	19480	141820	27436	983318	40043	107642	0	0	8214	667413	0	0
2024-05-24 07:18:32			0	35654	0	0	0	20851	19480	141764	27145	983291	40033	107643	0	0	8215	666964	0	0
2024-05-24 07:19:32			0	35630	0	0	0	20844	19480	141820	27279	983238	40043	107640	0	0	8214	668041	0	0
2024-05-24 07:20:32			0	35624	0	0	0	20849	19480	141872	27261	983257	40043	107642	0	0	8213	668310	0	0
2024-05-24 07:21:32			0	35629	0	0	0	20849	19480	141872	27307	983318	40055	107642	0	0	8214	668086	0	0
2024-05-24 07:22:32			0	35634	0	0	0	20854	19470	141904	27287	983275	40032	107644	0	0	8214	667898	0	0
2024-05-24 07:23:32			0	35613	0	0	0	20859	19470	141956	27265	983301	40043	107646	0	0	8213	668841	0	0
2024-05-24 07:24:32			0	35612	0	0	0	20854	19470	141948	27154	983381	40032	107644	0	0	8213	668886	0	0
2024-05-24 07:25:32			0	35619	0	0	0	20867	19480	142008	27209	983310	40032	107649	0	0	8213	668535	0	0
2024-05-24 07:26:32			0	35614	0	0	0	20872	19480	141924	27362	983310	40043	107651	0	0	8212	668759	0	0
2024-05-24 07:27:32			0	35583	0	0	0	20909	19470	141992	27576	983328	40043	107665	0	0	8210	670190	0	0
2024-05-24 07:28:32			0	35580	0	0	0	20927	19490	142196	27362	983512	40044	107672	0	0	8210	670251	0	0
2024-05-24 07:29:32			0	35495	0	0	0	20932	19500	142496	27343	983423	40056	107674	0	0	8205	674046	0	0
2024-05-24 07:30:32			0	35364	0	0	0	20914	19510	142928	27270	983545	40046	107667	0	0	8198	679945	0	0
2024-05-24 07:31:32			0	35203	0	0	0	20924	19510	143644	27379	983554	40057	107671	0	0	8189	687294	0	0
2024-05-24 07:32:32			0	35034	0	0	0	20927	19510	144331	27319	983554	40057	107672	0	0	8180	695070	0	0
2024-05-24 07:33:32			0	34870	0	0	0	20911	19510	144991	27270	983554	40068	107666	0	0	8171	702680	0	0
2024-05-24 07:34:32			0	34745	0	0	0	20919	19520	145487	27602	983544	40047	107669	0	0	8164	708483	0	0
2024-05-24 07:35:32			0	34596	0	0	0	20911	19520	145975	27557	983482	40047	107666	0	0	8156	715495	0	0
2024-05-24 07:36:32			0	34502	0	0	0	20922	19520	146519	27578	983544	40047	107670	0	0	8150	719946	0	0
2024-05-24 07:37:32			0	34407	0	0	0	20916	19520	146883	27324	983570	40047	107668	0	0	8145	724465	0	0
2024-05-24 07:38:32			0	34303	0	0	0	20927	19530	147278	27350	983579	40048	107672	0	0	8139	729398	0	0
2024-05-24 07:39:32			0	34236	0	0	0	20916	19520	147618	27369	983491	40047	107668	0	0	8135	732656	0	0
2024-05-24 07:40:32			0	34177	0	0	0	20922	19520	147842	27086	983570	40047	107670	0	0	8132	735499	0	0
2024-05-24 07:41:32			0	34139	0	0	0	20919	19510	148010	27152	983554	40036	107669	0	0	8130	737375	0	0
2024-05-24 07:42:32			0	34092	0	0	0	20929	19520	148262	27428	983517	40058	107673	0	0	8127	739610	0	0
2024-05-24 07:43:32			0	34028	0	0	0	20940	19530	148454	27294	983605	40038	107677	0	0	8123	742676	0	0
2024-05-24 07:44:32			0	33977	0	0	0	20948	19530	148762	27215	983614	40048	107680	0	0	8120	745159	0	0
2024-05-24 07:45:32			0	33919	0	0	0	20950	19530	149054	27147	983640	40059	107681	0	0	8117	747991	0	0
2024-05-24 07:46:32			0	33808	0	0	0	20961	19540	149470	27140	983648	40060	107685	0	0	8110	753393	0	0
2024-05-24 07:47:32			0	33714	0	0	0	20935	19540	149894	27059	983622	40082	107675	0	0	8105	758027	0	0
2024-05-24 07:48:32			0	33663	0	0	0	20935	19540	150146	27453	983683	40049	107675	0	0	8102	760551	0	0
2024-05-24 07:49:32			0	33638	0	0	0	20937	19550	150422	27282	983665	40072	107676	0	0	8101	761749	0	0
2024-05-24 07:50:32			0	33597	0	0	0	20911	19550	150574	27447	983665	40050	107666	0	0	8099	763786	0	0
2024-05-24 07:51:32			0	33573	0	0	0	20919	19550	150554	27241	983692	40061	107669	0	0	8097	764980	0	0
2024-05-24 07:52:32			0	33583	0	0	0	20927	19540	150622	27388	983595	40049	107672	0	0	8098	764524	0	0
2024-05-24 07:53:32			0	33601	0	0	0	20919	19550	150542	27381	983639	40050	107669	0	0	8099	763587	0	0
2024-05-24 07:54:32			0	33612	0	0	0	20916	19540	150394	27208	983604	40049	107668	0	0	8100	763082	0	0
2024-05-24 07:55:32			0	33655	0	0	0	20909	19550	150274	27334	983612	40072	107665	0	0	8102	760906	0	0
2024-05-24 07:56:32			0	33689	0	0	0	20919	19540	149970	27497	983542	40049	107669	0	0	8104	759264	0	0
2024-05-24 07:57:32			0	33713	0	0	0	20885	19540	149954	27519	983542	40049	107656	0	0	8106	758077	0	0
2024-05-24 07:58:32			0	33752	0	0	0	20903	19540	149666	27263	983489	40049	107663	0	0	8108	756151	0	0
2024-05-24 07:59:32			0	33783	0	0	0	20898	19530	149550	27459	983534	40059	107661	0	0	8110	754665	0	0
2024-05-24 08:00:32			0	33809	0	0	0	20896	19540	149450	27270	983516	40049	107660	0	0	8111	753344	0	0
2024-05-24 08:01:32			0	33817	0	0	0	20896	19530	149354	27381	983552	40059	107660	0	0	8112	752992	0	0
2024-05-24 08:02:32			0	33826	0	0	0	20883	19520	149362	27524	983509	40037	107655	0	0	8113	752591	0	0
2024-05-24 08:03:32			0	33859	0	0	0	20875	19530	149386	27377	983473	40048	107652	0	0	8115	750929	0	0
2024-05-24 08:04:32			0	33861	0	0	0	20875	19520	149226	27492	983403	40037	107652	0	0	8115	750873	0	0
2024-05-24 08:05:32			0	33855	0	0	0	20867	19520	149238	27270	983429	40047	107649	0	0	8114	751167	0	0
2024-05-24 08:06:32			0	33835	0	0	0	20870	19510	149226	27225	983368	40036	107650	0	0	8113	752190	0	0
2024-05-24 08:07:32			0	33856	0	0	0	20867	19510	149330	27286	983413	40046	107649	0	0	8114	751159	0	0
2024-05-24 08:08:32			0	33868	0	0	0	20867	19510	149230	27270	983386	40036	107649	0	0	8115	750571	0	0
2024-05-24 08:09:32			0	33882	0	0	0	20862	19510	149166	27441	983360	40036	107647	0	0	8116	749884	0	0
2024-05-24 08:10:32			0	33896	0	0	0	20851	19500	149214	27514	983370	40056	107643	0	0	8117	749240	0	0
2024-05-24 08:11:32			0	33888	0	0	0	20857	19490	149154	27466	983353	40056	107645	0	0	8116	749673	0	0
2024-05-24 08:12:32			0	33935	0	0	0	20844	19490	149050	27445	983300	40044	107640	0	0	8119	747373	0	0
2024-05-24 08:13:32			0	33945	0	0	0	20846	19480	148886	27180	983318	40055	107641	0	0	8120	746926	0	0
2024-05-24 08:14:32			0	33979	0	0	0	20844	19480	148766	27531	983336	40043	107640	0	0	8122	745266	0	0
2024-05-24 08:15:32			0	33979	0	0	0	20841	19480	148670	27533	983310	40043	107639	0	0	8122	745266	0	0
2024-05-24 08:16:32			0	34013	0	0	0	20844	19480	148558	27495	983310	40043	107640	0	0	8124	743610	0	0
2024-05-24 08:17:32			0	34029	0	0	0	20870	19470	148458	27384	983354	40043	107650	0	0	8124	742872	0	0
2024-05-24 08:18:32			0	34043	0	0	0	20872	19490	148446	27357	983379	40044	107651	0	0	8125	742110	0	0
2024-05-24 08:19:32			0	34079	0	0	0	20880	19480	148310	27196	983371	40043	107654	0	0	8127	740403	0	0
2024-05-24 08:20:32			0	34082	0	0	0	20875	19480	148282	27267	983416	40043	107652	0	0	8127	740257	0	0
2024-05-24 08:21:32			0	34068	0	0	0	20875	19480	148266	27301	983424	40055	107652	0	0	8126	740936	0	0
2024-05-24 08:22:32			0	34062	0	0	0	20880	19480	148246	27107	983398	40055	107654	0	0	8126	741228	0	0
2024-05-24 08:23:32			0	34076	0	0	0	20872	19480	148302	27334	983389	40054	107651	0	0	8127	740548	0	0
2024-05-24 08:24:32			0	34056	0	0	0	20875	19480	148214	27313	983371	40055	107652	0	0	8126	741519	0	0
2024-05-24 08:25:32			0	34086	0	0	0	20875	19490	148362	27142	983432	40056	107652	0	0	8127	740023	0	0
2024-05-24 08:26:32			0	34077	0	0	0	20903	19480	148346	27088	983398	40043	107663	0	0	8126	740500	0	0
2024-05-24 08:27:32			0	34107	0	0	0	20919	19500	148226	27620	983476	40035	107669	0	0	8128	738964	0	0
2024-05-24 08:28:32			0	34099	0	0	0	20950	19500	148242	27467	983555	40056	107681	0	0	8127	739352	0	0
2024-05-24 08:29:32			0	34086	0	0	0	20953	19510	148314	27346	983625	40057	107682	0	0	8126	739941	0	0
2024-05-24 08:30:32			0	34035	0	0	0	20935	19520	148502	27274	983668	40069	107675	0	0	8124	742376	0	0
2024-05-24 08:31:32			0	34027	0	0	0	20940	19520	148570	27310	983597	40058	107677	0	0	8123	742765	0	0
2024-05-24 08:32:32			0	33966	0	0	0	20942	19530	148802	27422	983640	40048	107678	0	0	8120	745695	0	0
2024-05-24 08:33:32			0	33934	0	0	0	20953	19540	148906	27281	983701	40060	107682	0	0	8118	747217	0	0
2024-05-24 08:34:32			0	33883	0	0	0	20986	19540	149154	27402	983736	40060	107695	0	0	8114	749712	0	0
2024-05-24 08:35:32			0	33893	0	0	0	21012	19550	149238	27241	983780	40072	107705	0	0	8114	749181	0	0
2024-05-24 08:36:32			0	33867	0	0	0	20997	19560	149326	27310	983841	40073	107699	0	0	8113	750413	0	0
2024-05-24 08:37:32			0	33847	0	0	0	21033	19560	149418	27367	983903	40063	107713	0	0	8111	751394	0	0
2024-05-24 08:38:32			0	33792	0	0	0	21044	19570	149514	27552	983946	40075	107717	0	0	8108	754056	0	0
2024-05-24 08:39:32			0	33771	0	0	0	21049	19580	149762	27528	984016	40064	107719	0	0	8107	755048	0	0
2024-05-24 08:40:32			0	33740	0	0	0	21077	19600	149810	26979	984049	40087	107730	0	0	8105	756494	0	0
2024-05-24 08:41:32			0	33730	0	0	0	21093	19610	149842	27488	984119	40056	107736	0	0	8104	756946	0	0
2024-05-24 08:42:32			0	33679	0	0	0	21098	19620	150082	27613	984154	40067	107738	0	0	8101	759425	0	0
2024-05-24 08:43:32			0	33599	0	0	0	21106	19640	150402	27341	984161	40090	107741	0	0	8096	763308	0	0
2024-05-24 08:44:32			0	33554	0	0	0	21103	19630	150541	27345	984232	40080	107740	0	0	8094	765589	0	0
2024-05-24 08:45:32			0	33533	0	0	0	21077	19640	150797	27431	984161	40080	107730	0	0	8093	766594	0	0
2024-05-24 08:46:32			0	33475	0	0	0	21085	19650	150989	27486	984177	40070	107733	0	0	8089	769448	0	0
2024-05-24 08:47:32			0	33450	0	0	0	21088	19650	151117	27260	984177	40082	107734	0	0	8088	770699	0	0
2024-05-24 08:48:32			0	33434	0	0	0	21031	19670	151141	27220	984264	40072	107712	0	0	8088	771416	0	0
2024-05-24 08:49:32			0	33426	0	0	0	21070	19660	151145	27190	984194	40070	107727	0	0	8087	771860	0	0
2024-05-24 08:50:32			0	33410	0	0	0	21083	19670	151281	27403	984237	40061	107732	0	0	8086	772620	0	0
2024-05-24 08:51:32			0	33415	0	0	0	21038	19670	151337	27417	984176	40082	107715	0	0	8087	772369	0	0
2024-05-24 08:52:32			0	33396	0	0	0	21064	19670	151221	27687	984237	40083	107725	0	0	8085	773323	0	0
2024-05-24 08:53:32			0	33388	0	0	0	20989	19660	151357	27563	984168	40082	107696	0	0	8086	773767	0	0
2024-05-24 08:54:32			0	33418	0	0	0	21031	19650	151349	27492	984106	40070	107712	0	0	8087	772303	0	0
2024-05-24 08:55:32			0	33389	0	0	0	21010	19670	151405	27386	984149	40071	107704	0	0	8086	773674	0	0
2024-05-24 08:56:32			0	33396	0	0	0	21007	19660	151289	27466	984115	40059	107703	0	0	8086	773365	0	0
2024-05-24 08:57:32			0	33438	0	0	0	20966	19650	151173	27864	984045	40070	107687	0	0	8089	771301	0	0
2024-05-24 08:58:32			0	33450	0	0	0	21005	19650	150961	27654	984045	40059	107702	0	0	8089	770699	0	0
2024-05-24 08:59:32			0	33492	0	0	0	21051	19650	150929	27594	984071	40070	107720	0	0	8091	768598	0	0
2024-05-24 09:00:32			0	33526	0	0	0	21070	19650	150809	27540	984106	40059	107727	0	0	8093	766901	0	0
2024-05-24 09:01:32			0	33537	0	0	0	21051	19650	150765	27654	984124	40082	107720	0	0	8094	766352	0	0
2024-05-24 09:02:32			0	33548	0	0	0	21062	19670	150721	27244	984123	40071	107724	0	0	8094	765720	0	0
2024-05-24 09:03:32			0	33554	0	0	0	21077	19650	150693	27412	984212	40082	107730	0	0	8094	765505	0	0
2024-05-24 09:04:32			0	33556	0	0	0	21041	19680	150681	27199	984219	40062	107716	0	0	8095	765279	0	0
2024-05-24 09:05:32			0	33577	0	0	0	21044	19670	150518	27348	984202	40082	107717	0	0	8096	764276	0	0
2024-05-24 09:06:32			0	33581	0	0	0	21067	19670	150522	27286	984202	40093	107726	0	0	8096	764077	0	0
2024-05-24 09:07:32			0	33573	0	0	0	21067	19670	150574	27298	984211	40083	107726	0	0	8095	764475	0	0
2024-05-24 09:08:32			0	33530	0	0	0	21088	19680	150757	27334	984219	40073	107734	0	0	8093	766575	0	0
2024-05-24 09:09:32			0	33509	0	0	0	21090	19690	150853	27270	984271	40074	107735	0	0	8091	767580	0	0
2024-05-24 09:10:32			0	33488	0	0	0	21090	19680	151001	26955	984254	40083	107735	0	0	8090	768671	0	0
2024-05-24 09:11:32			0	33494	0	0	0	21098	19690	150993	27355	984315	40083	107738	0	0	8090	768329	0	0
2024-05-24 09:12:32			0	33486	0	0	0	21122	19690	150989	27614	984297	40074	107747	0	0	8090	768729	0	0
2024-05-24 09:13:32			0	33502	0	0	0	21109	19690	150953	27164	984342	40083	107742	0	0	8091	767930	0	0
2024-05-24 09:14:32			0	33512	0	0	0	21114	19700	150873	27121	984385	40075	107744	0	0	8091	767388	0	0
2024-05-24 09:15:32			0	33504	0	0	0	21119	19690	150921	27161	984324	40084	107746	0	0	8091	767830	0	0
2024-05-24 09:16:32			0	33474	0	0	0	21111	19700	150973	27362	984332	40075	107743	0	0	8089	769286	0	0
2024-05-24 09:17:32			0	33471	0	0	0	21119	19700	151065	27362	984306	40096	107746	0	0	8089	769436	0	0
2024-05-24 09:18:32			0	33461	0	0	0	21106	19700	151145	27239	984340	40075	107741	0	0	8088	769937	0	0
2024-05-24 09:19:32			0	33462	0	0	0	21106	19700	151273	27322	984367	40085	107741	0	0	8088	769887	0	0
2024-05-24 09:20:32			0	33437	0	0	0	21114	19700	151273	27431	984306	40075	107744	0	0	8087	771138	0	0
2024-05-24 09:21:32			0	33428	0	0	0	21106	19710	151333	27386	984384	40086	107741	0	0	8086	771547	0	0
2024-05-24 09:22:32			0	33427	0	0	0	21106	19700	151249	27261	984367	40085	107741	0	0	8086	771640	0	0
2024-05-24 09:23:32			0	33445	0	0	0	21109	19710	151325	27426	984375	40075	107742	0	0	8087	770695	0	0
2024-05-24 09:24:32			0	33453	0	0	0	21116	19710	151285	27300	984375	40075	107745	0	0	8088	770295	0	0
2024-05-24 09:25:32			0	33437	0	0	0	21127	19710	151341	27343	984402	40085	107749	0	0	8087	771096	0	0
2024-05-24 09:26:32			0	33438	0	0	0	21129	19720	151253	27078	984472	40087	107750	0	0	8087	771003	0	0
2024-05-24 09:27:32			0	33460	0	0	0	21140	19710	151157	27109	984402	40085	107754	0	0	8088	769944	0	0
2024-05-24 09:28:32			0	33496	0	0	0	21137	19710	150981	27552	984384	40086	107753	0	0	8090	768145	0	0
2024-05-24 09:29:32			0	33509	0	0	0	21150	19720	150865	27518	984445	40098	107758	0	0	8091	767453	0	0
2024-05-24 09:30:32			0	33528	0	0	0	21148	19720	150905	27602	984445	40087	107757	0	0	8092	766506	0	0
2024-05-24 09:31:32			0	33543	0	0	0	21155	19730	150685	27384	984470	40088	107760	0	0	8092	765716	0	0
2024-05-24 09:32:32			0	33559	0	0	0	21168	19730	150665	27467	984524	40099	107765	0	0	8093	764919	0	0
2024-05-24 09:33:32			0	33585	0	0	0	21176	19730	150746	27536	984524	40110	107768	0	0	8095	763626	0	0
2024-05-24 09:34:32			0	33565	0	0	0	21189	19740	150665	27329	984567	40101	107773	0	0	8093	764578	0	0
2024-05-24 09:35:32			0	33583	0	0	0	21184	19750	150630	27327	984575	40101	107771	0	0	8094	763641	0	0
2024-05-24 09:36:32			0	33601	0	0	0	21199	19750	150582	27280	984610	40101	107777	0	0	8095	762747	0	0
2024-05-24 09:37:32			0	33615	0	0	0	21212	19750	150542	27135	984583	40101	107782	0	0	8096	762052	0	0
2024-05-24 09:38:32			0	33590	0	0	0	21202	19760	150582	27428	984733	40102	107778	0	0	8095	763251	0	0
2024-05-24 09:39:32			0	33585	0	0	0	21202	19760	150506	27364	984706	40081	107778	0	0	8094	763500	0	0
2024-05-24 09:40:32			0	33578	0	0	0	21212	19780	150610	27315	984705	40103	107782	0	0	8094	763764	0	0
2024-05-24 09:41:32			0	33562	0	0	0	21223	19780	150585	27388	984705	40092	107786	0	0	8093	764559	0	0
2024-05-24 09:42:32			0	33593	0	0	0	21233	19780	150630	27229	984713	40093	107790	0	0	8094	763018	0	0
2024-05-24 09:43:32			0	33578	0	0	0	21251	19790	150618	27407	984809	40083	107797	0	0	8093	763722	0	0
2024-05-24 09:44:32			0	33573	0	0	0	21259	19790	150617	27187	984809	40083	107800	0	0	8093	763970	0	0
2024-05-24 09:45:32			0	33593	0	0	0	21259	19790	150682	27126	984862	40115	107800	0	0	8094	762976	0	0
2024-05-24 09:46:32			0	33580	0	0	0	21262	19800	150634	27107	984844	40105	107801	0	0	8093	763580	0	0
2024-05-24 09:47:32			0	33583	0	0	0	21267	19800	150614	27410	984932	40095	107803	0	0	8093	763431	0	0
2024-05-24 09:48:32			0	33576	0	0	0	21288	19810	150621	27152	984922	40107	107811	0	0	8093	763737	0	0
2024-05-24 09:49:32			0	33606	0	0	0	21298	19830	150514	27327	985009	40109	107815	0	0	8094	762163	0	0
2024-05-24 09:50:32			0	33625	0	0	0	21314	19840	150342	27339	985026	40109	107821	0	0	8095	761178	0	0
2024-05-24 09:51:32			0	33646	0	0	0	21322	19840	150262	27341	985052	40121	107824	0	0	8096	760138	0	0
2024-05-24 09:52:32			0	33688	0	0	0	21322	19860	150026	27249	985104	40110	107824	0	0	8099	757977	0	0
2024-05-24 09:53:32			0	33721	0	0	0	21319	19860	150002	27308	985104	40110	107823	0	0	8101	756348	0	0
2024-05-24 09:54:32			0	33731	0	0	0	21327	19860	149834	27306	985112	40122	107826	0	0	8101	755855	0	0
2024-05-24 09:55:32			0	33740	0	0	0	21332	19880	149818	27331	985172	40113	107828	0	0	8102	755328	0	0
2024-05-24 09:56:32			0	33747	0	0	0	21345	19880	149794	27415	985146	40124	107833	0	0	8102	754983	0	0
2024-05-24 09:57:32			0	33764	0	0	0	21348	19890	149730	27180	985234	40125	107834	0	0	8103	754105	0	0
2024-05-24 09:58:32			0	33784	0	0	0	21355	19890	149618	27156	985295	40125	107837	0	0	8104	753122	0	0
2024-05-24 09:59:32			0	33824	0	0	0	21358	19900	149506	27711	985277	40115	107838	0	0	8106	751116	0	0
2024-05-24 10:00:32			0	33839	0	0	0	21374	19900	149398	27128	985365	40115	107844	0	0	8107	750381	0	0
2024-05-24 10:01:32			0	33853	0	0	0	21376	19900	149358	27268	985338	40125	107845	0	0	8108	749695	0	0
2024-05-24 10:02:32			0	33867	0	0	0	21389	19920	149174	27208	985363	40127	107850	0	0	8108	748927	0	0
2024-05-24 10:03:32			0	33876	0	0	0	21392	19930	149170	27109	985442	40128	107851	0	0	8109	748446	0	0
2024-05-24 10:04:32			0	33895	0	0	0	21397	19930	149190	27175	985433	40128	107853	0	0	8110	747517	0	0
2024-05-24 10:05:32			0	33884	0	0	0	21410	19940	149090	26741	985397	40118	107858	0	0	8109	748014	0	0
2024-05-24 10:06:32			0	33908	0	0	0	21410	19960	148942	27343	985483	40130	107858	0	0	8110	746759	0	0
2024-05-24 10:07:32			0	33906	0	0	0	21418	19950	149074	27284	985581	40109	107861	0	0	8110	746898	0	0
2024-05-24 10:08:32			0	33942	0	0	0	21407	19960	148870	27055	985483	40130	107857	0	0	8112	745101	0	0
2024-05-24 10:09:32			0	33970	0	0	0	21402	19980	148722	27121	985562	40122	107855	0	0	8114	743655	0	0
2024-05-24 10:10:32			0	33988	0	0	0	21415	19970	148658	27381	985607	40131	107860	0	0	8115	742821	0	0
2024-05-24 10:11:32			0	33992	0	0	0	21423	19980	148618	27275	985650	40133	107863	0	0	8115	742586	0	0
2024-05-24 10:12:32			0	34010	0	0	0	21423	19970	148514	27104	985500	40131	107863	0	0	8116	741752	0	0
2024-05-24 10:13:32			0	34023	0	0	0	21438	19980	148482	27421	985588	40132	107869	0	0	8117	741080	0	0
2024-05-24 10:14:32			0	34021	0	0	0	21433	19990	148314	27038	985658	40111	107867	0	0	8117	741137	0	0
2024-05-24 10:15:32			0	34036	0	0	0	21436	20000	148362	27118	985648	40134	107868	0	0	8117	740368	0	0
2024-05-24 10:16:32			0	34032	0	0	0	21433	19990	148434	27557	985640	40123	107867	0	0	8117	740603	0	0
2024-05-24 10:17:32			0	34077	0	0	0	21446	20010	148166	27258	985692	40135	107872	0	0	8120	738342	0	0
2024-05-24 10:18:32			0	34089	0	0	0	21449	20000	148098	27111	985789	40135	107873	0	0	8120	737802	0	0
2024-05-24 10:19:32			0	34112	0	0	0	21449	20010	148026	27086	985665	40135	107873	0	0	8122	736651	0	0
2024-05-24 10:20:32			0	34111	0	0	0	21438	20010	147934	27241	985700	40125	107869	0	0	8122	736699	0	0
2024-05-24 10:21:32			0	34115	0	0	0	21451	20030	148030	27268	985778	40136	107874	0	0	8122	736424	0	0
2024-05-24 10:22:32			0	34113	0	0	0	21467	20030	147970	27150	985831	40136	107880	0	0	8121	736521	0	0
2024-05-24 10:23:32			0	34114	0	0	0	21477	20030	148042	27322	985831	40125	107884	0	0	8121	736473	0	0
2024-05-24 10:24:32			0	34074	0	0	0	21467	20030	148146	27154	985866	40137	107880	0	0	8119	738406	0	0
2024-05-24 10:25:32			0	34069	0	0	0	21449	20040	148338	27209	985883	40127	107873	0	0	8119	738607	0	0
2024-05-24 10:26:32			0	34035	0	0	0	21472	20050	148306	27291	985865	40149	107882	0	0	8117	740213	0	0
2024-05-24 10:27:32			0	34033	0	0	0	21451	20050	148422	27109	985846	40128	107874	0	0	8117	740310	0	0
2024-05-24 10:28:32			0	34045	0	0	0	21449	20050	148270	27296	985812	40117	107873	0	0	8118	739728	0	0
2024-05-24 10:29:32			0	34084	0	0	0	21436	20050	148162	27185	985846	40139	107868	0	0	8120	737841	0	0
2024-05-24 10:30:32			0	34106	0	0	0	21425	20050	148082	27225	985812	40138	107864	0	0	8122	736778	0	0
2024-05-24 10:31:32			0	34134	0	0	0	21407	20030	147770	27457	985840	40116	107857	0	0	8124	735508	0	0
2024-05-24 10:32:32			0	34179	0	0	0	21407	20040	147758	27152	985742	40126	107857	0	0	8126	733299	0	0
2024-05-24 10:33:32			0	34201	0	0	0	21412	20040	147522	27177	985795	40116	107859	0	0	8127	732242	0	0
2024-05-24 10:34:32			0	34251	0	0	0	21415	20040	147410	27331	985768	40116	107860	0	0	8130	729842	0	0
2024-05-24 10:35:32			0	34287	0	0	0	21415	20040	147262	27495	985795	40126	107860	0	0	8132	728118	0	0
2024-05-24 10:36:32			0	34348	0	0	0	21412	20040	147063	27424	985795	40116	107859	0	0	8136	725204	0	0
2024-05-24 10:37:32			0	34373	0	0	0	21399	20030	147015	27331	985778	40125	107854	0	0	8137	724052	0	0
2024-05-24 10:38:32			0	34396	0	0	0	21402	20030	146759	27294	985707	40148	107855	0	0	8139	722957	0	0
2024-05-24 10:39:32			0	34420	0	0	0	21415	20030	146595	27493	985680	40137	107860	0	0	8140	721816	0	0
2024-05-24 10:40:32			0	34460	0	0	0	21412	20020	146447	27448	985743	40125	107859	0	0	8142	719956	0	0
2024-05-24 10:41:32			0	34504	0	0	0	21423	20020	146447	27085	985717	40125	107863	0	0	8144	717871	0	0
2024-05-24 10:42:32			0	34518	0	0	0	21420	20030	146231	27208	985778	40115	107862	0	0	8145	717169	0	0
2024-05-24 10:43:32			0	34549	0	0	0	21415	20020	146163	27369	985717	40125	107860	0	0	8147	715744	0	0
2024-05-24 10:44:32			0	34554	0	0	0	21425	20030	146039	26993	985805	40136	107864	0	0	8147	715469	0	0
2024-05-24 10:45:32			0	34579	0	0	0	21358	20030	146003	27239	985733	40126	107838	0	0	8150	714289	0	0
2024-05-24 10:46:32			0	34561	0	0	0	21335	20040	146075	27301	985742	40126	107829	0	0	8149	715099	0	0
2024-05-24 10:47:32			0	34569	0	0	0	21246	20020	146007	27156	985682	40114	107795	0	0	8151	714800	0	0
2024-05-24 10:48:32			0	34580	0	0	0	21202	20020	145927	27402	985504	40104	107778	0	0	8152	714281	0	0
2024-05-24 10:49:32			0	34571	0	0	0	21184	20000	146003	27031	985383	40112	107771	0	0	8152	714785	0	0
2024-05-24 10:50:32			0	34543	0	0	0	21166	19980	146095	26982	985252	40111	107764	0	0	8151	716186	0	0
2024-05-24 10:51:32			0	34507	0	0	0	21158	19950	146247	27436	985183	40086	107761	0	0	8149	718006	0	0
2024-05-24 10:52:32			0	34503	0	0	0	21148	19930	146303	27083	985044	40085	107757	0	0	8148	718275	0	0
2024-05-24 10:53:32			0	34500	0	0	0	21145	19910	146327	27211	984984	40094	107756	0	0	8148	718496	0	0
2024-05-24 10:54:32			0	34521	0	0	0	21145	19890	146251	27199	984897	40115	107756	0	0	8149	717581	0	0
2024-05-24 10:55:32			0	34509	0	0	0	21150	19880	146275	27124	984934	40102	107758	0	0	8149	718189	0	0
2024-05-24 10:56:32			0	34522	0	0	0	21148	19870	146247	27020	984882	40079	107757	0	0	8149	717613	0	0
2024-05-24 10:57:32			0	34532	0	0	0	21155	19850	146207	27325	984804	40078	107760	0	0	8150	717219	0	0
2024-05-24 10:58:32			0	34526	0	0	0	21155	19850	146239	27069	984769	40078	107760	0	0	8149	717503	0	0
2024-05-24 10:59:32			0	34550	0	0	0	21158	19840	146195	26880	984805	40086	107761	0	0	8151	716407	0	0
2024-05-24 11:00:32			0	34543	0	0	0	21142	19820	146203	27246	984727	40085	107755	0	0	8150	716817	0	0
2024-05-24 11:01:32			0	34568	0	0	0	21142	19820	146127	26955	984666	40096	107755	0	0	8152	715636	0	0
2024-05-24 11:02:32			0	34566	0	0	0	21132	19820	146079	27086	984692	40084	107751	0	0	8152	715730	0	0
2024-05-24 11:03:32			0	34594	0	0	0	21127	19810	146159	27301	984737	40096	107749	0	0	8153	714448	0	0
2024-05-24 11:04:32			0	34608	0	0	0	21122	19810	146063	27284	984702	40084	107747	0	0	8154	713788	0	0
2024-05-24 11:05:32			0	34613	0	0	0	21124	19800	146067	27107	984606	40094	107748	0	0	8154	713592	0	0
2024-05-24 11:06:32			0	34601	0	0	0	21129	19780	145927	27045	984554	40104	107750	0	0	8154	714236	0	0
2024-05-24 11:07:32			0	34638	0	0	0	21132	19780	145863	27192	984607	40104	107751	0	0	8156	712493	0	0
2024-05-24 11:08:32			0	34657	0	0	0	21140	19780	145919	27194	984599	40092	107754	0	0	8157	711599	0	0
2024-05-24 11:09:32			0	34639	0	0	0	21176	19790	145859	27291	984677	40093	107768	0	0	8155	712407	0	0
2024-05-24 11:10:32			0	34646	0	0	0	21212	19790	145883	27412	984721	40093	107782	0	0	8155	712077	0	0
2024-05-24 11:11:32			0	34668	0	0	0	21257	19790	145799	27098	984809	40093	107799	0	0	8155	711043	0	0
2024-05-24 11:12:32			0	34696	0	0	0	21254	19800	145655	27095	984897	40116	107798	0	0	8157	709689	0	0
2024-05-24 11:13:32			0	34702	0	0	0	21218	19810	145611	27338	984922	40118	107784	0	0	8158	709368	0	0
2024-05-24 11:14:32			0	34735	0	0	0	21233	19810	145519	27045	984949	40107	107790	0	0	8159	707822	0	0
2024-05-24 11:15:32			0	34762	0	0	0	21285	19820	145447	27126	985037	40118	107810	0	0	8160	706519	0	0
2024-05-24 11:16:32			0	34749	0	0	0	21275	19850	145411	27241	985096	40121	107806	0	0	8160	707010	0	0
2024-05-24 11:17:32			0	34738	0	0	0	21280	19850	145367	27093	985087	40110	107808	0	0	8159	707525	0	0
2024-05-24 11:18:32			0	34723	0	0	0	21301	19870	145367	27280	985174	40123	107816	0	0	8158	708150	0	0
2024-05-24 11:19:32			0	34729	0	0	0	21337	19870	145395	27261	985209	40124	107830	0	0	8158	707869	0	0
2024-05-24 11:20:32			0	34672	0	0	0	21355	19880	145711	27095	985244	40134	107837	0	0	8154	710502	0	0
2024-05-24 11:21:32			0	34668	0	0	0	21350	19890	145671	27098	985295	40125	107835	0	0	8154	710651	0	0
2024-05-24 11:22:32			0	34656	0	0	0	21384	19910	145771	27130	985400	40126	107848	0	0	8153	711137	0	0
2024-05-24 11:23:32			0	34594	0	0	0	21379	19910	145935	27492	985453	40137	107846	0	0	8150	714055	0	0
2024-05-24 11:24:32			0	34515	0	0	0	21506	19920	146383	27111	985531	40149	107895	0	0	8143	717747	0	0
2024-05-24 11:25:32			0	34444	0	0	0	21428	19940	146595	27528	985618	40141	107865	0	0	8140	721033	0	0
2024-05-24 11:26:32			0	34387	0	0	0	21415	19970	146931	27545	985660	40142	107860	0	0	8138	723624	0	0
2024-05-24 11:27:32			0	34313	0	0	0	21379	19980	147026	27436	985641	40143	107846	0	0	8134	727115	0	0
2024-05-24 11:28:32			0	34296	0	0	0	21290	19980	147090	27516	985676	40133	107812	0	0	8135	727928	0	0
2024-05-24 11:29:32			0	34285	0	0	0	21296	19980	147058	27268	985615	40110	107814	0	0	8134	728454	0	0
2024-05-24 11:30:32			0	34300	0	0	0	21298	19970	146970	27293	985500	40121	107815	0	0	8135	727777	0	0
2024-05-24 11:31:32			0	34342	0	0	0	21189	19970	146910	27102	985421	40110	107773	0	0	8139	725770	0	0
2024-05-24 11:32:32			0	34357	0	0	0	21168	19950	146747	27050	985236	40098	107765	0	0	8140	725134	0	0
2024-05-24 11:33:32			0	34391	0	0	0	21181	19930	146651	27083	985168	40095	107770	0	0	8142	723594	0	0
2024-05-24 11:34:32			0	34396	0	0	0	21155	19920	146655	27043	985098	40094	107760	0	0	8142	723395	0	0
2024-05-24 11:35:32			0	34408	0	0	0	21137	19910	146639	27215	985063	40094	107753	0	0	8143	722864	0	0
2024-05-24 11:36:32			0	34416	0	0	0	21103	19890	146431	27320	984950	40092	107740	0	0	8144	722563	0	0
2024-05-24 11:37:32			0	34477	0	0	0	21085	19880	146339	27220	984819	40102	107733	0	0	8148	719705	0	0
2024-05-24 11:38:32			0	34510	0	0	0	21083	19850	146303	27535	984777	40088	107732	0	0	8150	718260	0	0
2024-05-24 11:39:32			0	34485	0	0	0	21088	19840	146303	27275	984708	40087	107734	0	0	8148	719484	0	0
2024-05-24 11:40:32			0	34454	0	0	0	21106	19820	146467	27486	984639	40074	107741	0	0	8146	721035	0	0
2024-05-24 11:41:32			0	34417	0	0	0	21106	19800	146647	27275	984659	40072	107741	0	0	8144	722874	0	0
2024-05-24 11:42:32			0	34377	0	0	0	21101	19800	146835	27215	984579	40083	107739	0	0	8142	724780	0	0
2024-05-24 11:43:32			0	34335	0	0	0	21114	19800	146990	27386	984606	40072	107744	0	0	8139	726785	0	0
2024-05-24 11:44:32			0	34310	0	0	0	21116	19790	147178	27268	984615	40083	107745	0	0	8137	728020	0	0
2024-05-24 11:45:32			0	34278	0	0	0	21122	19770	147162	27434	984608	40081	107747	0	0	8135	729633	0	0
2024-05-24 11:46:32			0	34274	0	0	0	21140	19770	147258	27440	984643	40091	107754	0	0	8135	729825	0	0
2024-05-24 11:47:32			0	34256	0	0	0	21158	19770	147310	27293	984696	40102	107761	0	0	8134	730689	0	0
2024-05-24 11:48:32			0	34289	0	0	0	21158	19780	147270	27486	984740	40093	107761	0	0	8136	729066	0	0
2024-05-24 11:49:32			0	34274	0	0	0	21150	19780	147318	27357	984660	40093	107758	0	0	8135	729785	0	0
2024-05-24 11:50:32			0	34306	0	0	0	21153	19780	147238	27516	984713	40093	107759	0	0	8137	728252	0	0
2024-05-24 11:51:32			0	34280	0	0	0	21166	19780	147266	27284	984766	40083	107764	0	0	8135	729497	0	0
2024-05-24 11:52:32			0	34304	0	0	0	21262	19780	147198	27367	984819	40104	107801	0	0	8135	728347	0	0
2024-05-24 11:53:32			0	34334	0	0	0	21236	19800	147162	27416	984959	40095	107791	0	0	8137	726832	0	0
2024-05-24 11:54:32			0	34340	0	0	0	21215	19810	147158	27306	984922	40118	107783	0	0	8138	726506	0	0
2024-05-24 11:55:32			0	34334	0	0	0	21236	19830	147054	27471	985009	40120	107791	0	0	8137	726712	0	0
2024-05-24 11:56:32			0	34314	0	0	0	21272	19840	147066	27358	985150	40109	107805	0	0	8135	727628	0	0
2024-05-24 11:57:32			0	34334	0	0	0	21376	19860	147094	27447	985298	40144	107845	0	0	8135	726592	0	0
2024-05-24 11:58:32			0	34342	0	0	0	21379	19890	146986	27687	985446	40125	107846	0	0	8135	726090	0	0
2024-05-24 11:59:32			0	34331	0	0	0	21438	19900	147038	27277	985498	40125	107869	0	0	8134	726575	0	0
2024-05-24 12:00:32			0	34326	0	0	0	21498	19930	147170	27403	985787	40151	107892	0	0	8133	726694	0	0
2024-05-24 12:01:32			0	34319	0	0	0	21683	19980	147102	27440	986146	40166	107963	0	0	8129	726828	0	0
2024-05-24 12:02:32			0	34316	0	0	0	21906	20030	147190	27447	986468	40180	108049	0	0	8126	726771	0	0
2024-05-24 12:03:32			0	34332	0	0	0	21761	20090	147062	27419	986728	40198	107993	0	0	8129	725767	0	0
2024-05-24 12:04:32			0	34381	0	0	0	21602	20130	146859	27154	986742	40179	107932	0	0	8135	723272	0	0
2024-05-24 12:05:32			0	34433	0	0	0	21553	20150	146651	27426	986651	40159	107913	0	0	8139	720721	0	0
2024-05-24 12:06:32			0	34450	0	0	0	21597	20160	146407	27388	986641	40161	107930	0	0	8139	719874	0	0
2024-05-24 12:07:32			0	34481	0	0	0	21548	20180	146167	27502	986640	40150	107911	0	0	8142	718326	0	0
2024-05-24 12:08:32			0	34513	0	0	0	21825	20200	146171	27272	986859	40174	108018	0	0	8139	716733	0	0
2024-05-24 12:09:32			0	34504	0	0	0	22010	20230	146307	27277	987263	40188	108089	0	0	8135	717040	0	0
2024-05-24 12:10:32			0	34459	0	0	0	22054	20280	146423	27556	987516	40193	108106	0	0	8132	718971	0	0
2024-05-24 12:11:32			0	34442	0	0	0	22051	20320	146435	27429	987697	40208	108105	0	0	8132	719618	0	0
2024-05-24 12:12:32			0	34437	0	0	0	22059	20370	146363	27334	987861	40222	108108	0	0	8131	719656	0	0
2024-05-24 12:13:32			0	34429	0	0	0	22015	20410	146455	27338	987946	40205	108091	0	0	8132	719876	0	0
2024-05-24 12:14:32			0	34440	0	0	0	22096	20430	146287	27452	988015	40207	108122	0	0	8131	719275	0	0
2024-05-24 12:15:32			0	34472	0	0	0	22096	20450	146211	27517	988155	40220	108122	0	0	8133	717681	0	0
2024-05-24 12:16:32			0	34467	0	0	0	22111	20500	146171	27448	988204	40202	108128	0	0	8133	717719	0	0
2024-05-24 12:17:32			0	34469	0	0	0	22093	20510	146135	27424	988300	40235	108121	0	0	8133	717585	0	0
2024-05-24 12:18:32			0	34491	0	0	0	22116	20530	146015	27081	988281	40226	108130	0	0	8134	716466	0	0
2024-05-24 12:19:32			0	34485	0	0	0	22114	20560	145931	27268	988323	40217	108129	0	0	8134	716631	0	0
2024-05-24 12:20:32			0	34519	0	0	0	22093	20570	145835	27267	988339	40218	108121	0	0	8136	714987	0	0
2024-05-24 12:21:32			0	34516	0	0	0	22077	20570	145875	27476	988313	40208	108115	0	0	8136	715128	0	0
2024-05-24 12:22:32			0	34513	0	0	0	22096	20580	145891	27538	988409	40219	108122	0	0	8136	715230	0	0
2024-05-24 12:23:32			0	34517	0	0	0	22093	20590	145851	27383	988435	40221	108121	0	0	8136	715002	0	0
2024-05-24 12:24:32			0	34523	0	0	0	22103	20590	145775	27346	988426	40231	108125	0	0	8136	714719	0	0
2024-05-24 12:25:32			0	34551	0	0	0	22085	20600	145579	27545	988505	40222	108118	0	0	8138	713361	0	0
2024-05-24 12:26:32			0	34591	0	0	0	22059	20610	145515	27410	988442	40223	108108	0	0	8141	711441	0	0
2024-05-24 12:27:32			0	34611	0	0	0	22046	20620	145399	27462	988450	40211	108103	0	0	8142	710463	0	0
2024-05-24 12:28:32			0	34626	0	0	0	22041	20620	145279	27204	988424	40223	108101	0	0	8143	709759	0	0
2024-05-24 12:29:32			0	34625	0	0	0	22038	20630	145175	27253	988387	40223	108100	0	0	8143	709767	0	0
2024-05-24 12:30:32			0	34633	0	0	0	22036	20630	145171	27152	988396	40224	108099	0	0	8144	709392	0	0
2024-05-24 12:31:32			0	34688	0	0	0	22041	20620	145071	27410	988458	40212	108101	0	0	8147	706857	0	0
2024-05-24 12:32:32			0	34699	0	0	0	22046	20620	145043	27436	988397	40234	108103	0	0	8147	706344	0	0
2024-05-24 12:33:32			0	34697	0	0	0	22051	20630	144987	27202	988467	40212	108105	0	0	8147	706398	0	0
2024-05-24 12:34:32			0	34713	0	0	0	22057	20630	144943	27265	988440	40202	108107	0	0	8148	705651	0	0
2024-05-24 12:35:32			0	34715	0	0	0	22070	20630	145015	27623	988449	40213	108112	0	0	8148	705558	0	0
2024-05-24 12:36:32			0	34717	0	0	0	22054	20640	144951	27628	988484	40235	108106	0	0	8148	705425	0	0
2024-05-24 12:37:32			0	34715	0	0	0	21997	20630	144975	27542	988422	40213	108084	0	0	8149	705558	0	0
2024-05-24 12:38:32			0	34712	0	0	0	21966	20640	144991	27298	988377	40203	108072	0	0	8150	705658	0	0
2024-05-24 12:39:32			0	34669	0	0	0	21971	20630	145079	27445	988361	40212	108074	0	0	8147	707707	0	0
2024-05-24 12:40:32			0	34628	0	0	0	21966	20620	145351	27308	988273	40212	108072	0	0	8145	709666	0	0
2024-05-24 12:41:32			0	34598	0	0	0	21976	20630	145371	27516	988334	40202	108076	0	0	8143	711034	0	0
2024-05-24 12:42:32			0	34563	0	0	0	21981	20610	145611	27194	988309	40211	108078	0	0	8141	712757	0	0
2024-05-24 12:43:32			0	34545	0	0	0	22010	20620	145587	27222	988370	40211	108089	0	0	8139	713564	0	0
2024-05-24 12:44:32			0	34520	0	0	0	22023	20620	145643	27348	988379	40212	108094	0	0	8138	714742	0	0
2024-05-24 12:45:32			0	34538	0	0	0	22033	20620	145819	27654	988424	40211	108098	0	0	8139	713894	0	0
2024-05-24 12:46:32			0	34510	0	0	0	22049	20620	145763	27474	988397	40201	108104	0	0	8137	715213	0	0
2024-05-24 12:47:32			0	34527	0	0	0	22062	20620	145719	27528	988432	40223	108109	0	0	8138	714412	0	0
2024-05-24 12:48:32			0	34543	0	0	0	22062	20620	145639	27426	988432	40212	108109	0	0	8138	713659	0	0
2024-05-24 12:49:32			0	34590	0	0	0	22070	20640	145507	27185	988510	40213	108112	0	0	8141	711370	0	0
2024-05-24 12:50:32			0	34615	0	0	0	22064	20640	145451	27239	988492	40204	108110	0	0	8143	710197	0	0
2024-05-24 12:51:32			0	34606	0	0	0	22059	20640	145383	27185	988510	40224	108108	0	0	8142	710619	0	0
2024-05-24 12:52:32			0	34595	0	0	0	22080	20650	145439	27431	988535	40215	108116	0	0	8141	711096	0	0
2024-05-24 12:53:32			0	34606	0	0	0	22090	20650	145399	27196	988553	40215	108120	0	0	8142	710580	0	0
2024-05-24 12:54:32			0	34603	0	0	0	22090	20660	145351	27300	988597	40216	108120	0	0	8141	710681	0	0
2024-05-24 12:55:32			0	34603	0	0	0	22098	20660	145351	27422	988711	40227	108123	0	0	8141	710681	0	0
2024-05-24 12:56:32			0	34579	0	0	0	22101	20660	145395	27552	988658	40227	108124	0	0	8140	711808	0	0
2024-05-24 12:57:32			0	34587	0	0	0	22103	20670	145327	27703	988648	40217	108125	0	0	8140	711393	0	0
2024-05-24 12:58:32			0	34577	0	0	0	22124	20670	145491	27493	988755	40217	108133	0	0	8140	711862	0	0
2024-05-24 12:59:32			0	34549	0	0	0	22135	20680	145519	27280	988710	40229	108137	0	0	8138	713139	0	0
2024-05-24 13:00:32			0	34538	0	0	0	22140	20690	145607	27291	988788	40230	108139	0	0	8137	713617	0	0
2024-05-24 13:01:32			0	34549	0	0	0	22161	20690	145587	27724	988806	40230	108147	0	0	8137	713100	0	0
2024-05-24 13:02:32			0	34570	0	0	0	22161	20700	145367	27528	988823	40219	108147	0	0	8139	712073	0	0
2024-05-24 13:03:32			0	34585	0	0	0	22158	20710	145331	27699	988849	40220	108146	0	0	8140	711329	0	0
2024-05-24 13:04:32			0	34614	0	0	0	22163	20720	145335	27320	988990	40232	108148	0	0	8141	709929	0	0
2024-05-24 13:05:32			0	34608	0	0	0	22176	20720	145275	27666	988892	40222	108153	0	0	8141	710210	0	0
2024-05-24 13:06:32			0	34584	0	0	0	22199	20730	145359	27649	989015	40223	108162	0	0	8139	711297	0	0
2024-05-24 13:07:32			0	34597	0	0	0	22205	20730	145323	27516	989068	40234	108164	0	0	8140	710687	0	0
2024-05-24 13:08:32			0	34604	0	0	0	22207	20740	145411	27739	989085	40235	108165	0	0	8140	710319	0	0
2024-05-24 13:09:32			0	34592	0	0	0	22210	20740	145343	27512	989032	40246	108166	0	0	8139	710882	0	0
2024-05-24 13:10:32			0	34591	0	0	0	22212	20750	145303	27807	989093	40235	108167	0	0	8139	710890	0	0
2024-05-24 13:11:32			0	34573	0	0	0	22210	20770	145371	27540	989127	40226	108166	0	0	8138	711656	0	0
2024-05-24 13:12:32			0	34556	0	0	0	22207	20760	145427	27235	989172	40237	108165	0	0	8137	712494	0	0
2024-05-24 13:13:32			0	34573	0	0	0	22207	20770	145391	27286	989180	40237	108165	0	0	8138	711656	0	0
2024-05-24 13:14:32			0	34564	0	0	0	22238	20770	145407	27398	989162	40237	108177	0	0	8137	712079	0	0
2024-05-24 13:15:32			0	34588	0	0	0	22254	20780	145339	27435	989205	40250	108183	0	0	8138	710913	0	0
2024-05-24 13:16:32			0	34593	0	0	0	22262	20790	145351	27291	989248	40250	108186	0	0	8139	710639	0	0
2024-05-24 13:17:32			0	34639	0	0	0	22264	20800	145311	27473	989363	40261	108187	0	0	8141	708444	0	0
2024-05-24 13:18:32			0	34662	0	0	0	22246	20810	145163	27416	989353	40251	108180	0	0	8143	707329	0	0
2024-05-24 13:19:32			0	34672	0	0	0	22231	20810	145043	27130	989335	40251	108174	0	0	8144	706862	0	0
2024-05-24 13:20:32			0	34723	0	0	0	22254	20830	144795	26956	989440	40243	108183	0	0	8146	704404	0	0
2024-05-24 13:21:32			0	34730	0	0	0	22236	20820	144811	27248	989432	40252	108176	0	0	8147	704117	0	0
2024-05-24 13:22:32			0	34742	0	0	0	22212	20840	144711	27535	989404	40254	108167	0	0	8148	703480	0	0
2024-05-24 13:23:32			0	34745	0	0	0	22205	20840	144603	27066	989404	40232	108164	0	0	8148	703341	0	0
2024-05-24 13:24:32			0	34746	0	0	0	22202	20850	144599	27386	989394	40233	108163	0	0	8148	703255	0	0
2024-05-24 13:25:32			0	34785	0	0	0	22228	20840	144455	27346	989404	40232	108173	0	0	8150	701481	0	0
2024-05-24 13:26:32			0	34803	0	0	0	22228	20850	144555	27460	989386	40254	108173	0	0	8151	700606	0	0
2024-05-24 13:27:32			0	34800	0	0	0	22236	20860	144447	27351	989403	40245	108176	0	0	8151	700707	0	0
2024-05-24 13:28:32			0	34811	0	0	0	22233	20840	144343	27371	989431	40244	108175	0	0	8151	700274	0	0
2024-05-24 13:29:32			0	34853	0	0	0	22257	20850	144291	27168	989492	40244	108184	0	0	8153	698289	0	0
2024-05-24 13:30:32			0	34843	0	0	0	22280	20860	144183	27131	989544	40245	108193	0	0	8153	698713	0	0
2024-05-24 13:31:32			0	34881	0	0	0	22301	20860	144211	27374	989491	40256	108201	0	0	8154	696955	0	0
2024-05-24 13:32:32			0	34862	0	0	0	22285	20870	144119	27301	989667	40246	108195	0	0	8154	697795	0	0
2024-05-24 13:33:32			0	34850	0	0	0	22264	20880	144099	27267	989604	40247	108187	0	0	8153	698312	0	0
2024-05-24 13:34:32			0	34883	0	0	0	22251	20890	144119	27267	989621	40248	108182	0	0	8155	696747	0	0
2024-05-24 13:35:32			0	34854	0	0	0	22288	20890	144119	27173	989612	40236	108196	0	0	8153	698088	0	0
2024-05-24 13:36:32			0	34846	0	0	0	22340	20890	144275	27173	989700	40248	108216	0	0	8152	698458	0	0
2024-05-24 13:37:32			0	34831	0	0	0	22335	20900	144319	27320	989709	40270	108214	0	0	8151	699114	0	0
2024-05-24 13:38:32			0	34796	0	0	0	22316	20910	144439	27216	989787	40260	108207	0	0	8150	700698	0	0
2024-05-24 13:39:32			0	34780	0	0	0	22293	20910	144443	27053	989761	40250	108198	0	0	8149	701441	0	0
2024-05-24 13:40:32			0	34759	0	0	0	22257	20920	144631	27490	989716	40250	108184	0	0	8149	702378	0	0
2024-05-24 13:41:32			0	34752	0	0	0	22267	20910	144623	27222	989672	40260	108188	0	0	8148	702742	0	0
2024-05-24 13:42:32			0	34747	0	0	0	22272	20910	144627	27229	989654	40250	108190	0	0	8148	702975	0	0
2024-05-24 13:43:32			0	34726	0	0	0	22296	20920	144667	27149	989742	40250	108199	0	0	8146	703913	0	0
2024-05-24 13:44:32			0	34722	0	0	0	22296	20920	144615	27303	989724	40273	108199	0	0	8146	704099	0	0
2024-05-24 13:45:32			0	34751	0	0	0	22283	20920	144583	27079	989724	40240	108194	0	0	8148	702750	0	0
2024-05-24 13:46:32			0	34754	0	0	0	22262	20930	144519	27424	989733	40251	108186	0	0	8148	702571	0	0
2024-05-24 13:47:32			0	34768	0	0	0	22257	20910	144415	27390	989654	40260	108184	0	0	8149	701998	0	0
2024-05-24 13:48:32			0	34811	0	0	0	22249	20910	144307	27329	989628	40239	108181	0	0	8152	700002	0	0
2024-05-24 13:49:32			0	34808	0	0	0	22246	20910	144367	27588	989566	40250	108180	0	0	8151	700142	0	0
2024-05-24 13:50:32			0	34837	0	0	0	22246	20900	144131	27478	989576	40226	108180	0	0	8153	698836	0	0
2024-05-24 13:51:32			0	34865	0	0	0	22241	20880	144123	27447	989498	40236	108178	0	0	8154	697618	0	0
2024-05-24 13:52:32			0	34864	0	0	0	22249	20880	144139	27485	989516	40247	108181	0	0	8154	697664	0	0
2024-05-24 13:53:32			0	34888	0	0	0	22283	20890	143967	27448	989594	40237	108194	0	0	8155	696516	0	0
2024-05-24 13:54:32			0	34868	0	0	0	22161	20890	144099	27258	989594	40270	108147	0	0	8156	697440	0	0
2024-05-24 13:55:32			0	34840	0	0	0	21841	20880	144115	27059	989285	40225	108024	0	0	8160	698775	0	0
2024-05-24 13:56:32			0	34843	0	0	0	21958	20850	144091	27118	988934	40221	108069	0	0	8158	698752	0	0
2024-05-24 13:57:32			0	34859	0	0	0	22090	20810	144011	27661	988875	40208	108120	0	0	8156	698166	0	0
2024-05-24 13:58:32			0	34874	0	0	0	22168	20800	143923	27360	988991	40250	108150	0	0	8156	697511	0	0
2024-05-24 13:59:32			0	34908	0	0	0	22127	20800	143939	27734	989044	40228	108134	0	0	8158	695939	0	0
2024-05-24 14:00:32			0	34938	0	0	0	22059	20780	143735	27298	989064	40226	108108	0	0	8161	694632	0	0
2024-05-24 14:01:32			0	35007	0	0	0	22059	20770	143575	27530	988976	40215	108108	0	0	8165	691495	0	0
2024-05-24 14:02:32			0	35037	0	0	0	22127	20780	143491	27331	988958	40226	108134	0	0	8165	690079	0	0
2024-05-24 14:03:32			0	35074	0	0	0	22197	20770	143263	27118	989047	40215	108161	0	0	8166	688421	0	0
2024-05-24 14:04:32			0	35111	0	0	0	22311	20770	143259	27365	989188	40237	108205	0	0	8166	686728	0	0
2024-05-24 14:05:32			0	35131	0	0	0	22329	20800	143188	27327	989372	40250	108212	0	0	8167	685700	0	0
2024-05-24 14:06:32			0	35144	0	0	0	22337	20820	143064	27322	989511	40252	108215	0	0	8168	685031	0	0
2024-05-24 14:07:32			0	35117	0	0	0	22355	20840	143108	27835	989555	40265	108222	0	0	8166	686188	0	0
2024-05-24 14:08:32			0	35080	0	0	0	22397	20860	143307	27557	989695	40267	108238	0	0	8164	687803	0	0
2024-05-24 14:09:32			0	35052	0	0	0	22405	20870	143347	27095	989765	40256	108241	0	0	8162	689047	0	0
2024-05-24 14:10:32			0	35017	0	0	0	22397	20900	143523	27293	989868	40259	108238	0	0	8160	690538	0	0
2024-05-24 14:11:32			0	35005	0	0	0	22397	20910	143551	27322	989920	40260	108238	0	0	8160	691050	0	0
2024-05-24 14:12:32			0	35007	0	0	0	22371	20930	143567	27282	989927	40273	108228	0	0	8160	690882	0	0
2024-05-24 14:13:32			0	35000	0	0	0	22436	20940	143523	27079	990015	40274	108253	0	0	8159	691165	0	0
2024-05-24 14:14:32			0	34981	0	0	0	22394	20960	143623	27279	990075	40264	108237	0	0	8159	691961	0	0
2024-05-24 14:15:32			0	34950	0	0	0	22449	20960	143635	27194	990128	40276	108258	0	0	8156	693387	0	0
2024-05-24 14:16:32			0	34927	0	0	0	22501	20980	143779	27500	990242	40289	108278	0	0	8154	694370	0	0
2024-05-24 14:17:32			0	34911	0	0	0	22550	20990	143943	27592	990347	40268	108297	0	0	8152	695069	0	0
2024-05-24 14:18:32			0	34906	0	0	0	22579	21020	143927	27048	990522	40302	108308	0	0	8152	695184	0	0
2024-05-24 14:19:32			0	34901	0	0	0	22602	21040	143915	27133	990555	40305	108317	0	0	8151	695337	0	0
2024-05-24 14:20:32			0	34889	0	0	0	22638	21050	143963	27244	990713	40285	108331	0	0	8150	695852	0	0
2024-05-24 14:21:32			0	34886	0	0	0	22664	21080	143847	27331	990809	40309	108341	0	0	8149	695875	0	0
2024-05-24 14:22:32			0	34928	0	0	0	22685	21090	143783	27303	990887	40299	108349	0	0	8151	693900	0	0
2024-05-24 14:23:32			0	34966	0	0	0	22703	21140	143699	26979	990954	40303	108356	0	0	8153	691960	0	0
2024-05-24 14:24:32			0	34966	0	0	0	22727	21140	143479	27334	991043	40315	108365	0	0	8153	691960	0	0
2024-05-24 14:25:32			0	34977	0	0	0	22766	21170	143431	27445	991191	40317	108380	0	0	8153	691339	0	0
2024-05-24 14:26:32			0	34968	0	0	0	22820	21200	143375	27086	991348	40308	108401	0	0	8152	691638	0	0
2024-05-24 14:27:32			0	34957	0	0	0	22836	21220	143563	27455	991417	40322	108407	0	0	8151	692066	0	0
2024-05-24 14:28:32			0	34961	0	0	0	22838	21230	143607	27353	991433	40323	108408	0	0	8151	691844	0	0
2024-05-24 14:29:32			0	34946	0	0	0	22833	21260	143535	27156	991537	40347	108406	0	0	8151	692418	0	0
2024-05-24 14:30:32			0	34955	0	0	0	22846	21270	143551	27246	991554	40348	108411	0	0	8151	691966	0	0
2024-05-24 14:31:32			0	34936	0	0	0	22864	21290	143483	27220	991739	40338	108418	0	0	8150	692762	0	0
2024-05-24 14:32:32			0	34938	0	0	0	22867	21320	143523	27171	991771	40332	108419	0	0	8150	692555	0	0
2024-05-24 14:33:32			0	34933	0	0	0	22880	21320	143519	27391	991798	40342	108424	0	0	8149	692785	0	0
2024-05-24 14:34:32			0	34926	0	0	0	22859	21330	143555	27757	991841	40343	108416	0	0	8149	693068	0	0
2024-05-24 14:35:32			0	34976	0	0	0	22851	21360	143247	27145	991883	40333	108413	0	0	8152	690656	0	0
2024-05-24 14:36:32			0	35026	0	0	0	22846	21370	143071	27202	991900	40335	108411	0	0	8155	688327	0	0
2024-05-24 14:37:32			0	35087	0	0	0	22844	21370	142859	27137	991900	40335	108410	0	0	8159	685540	0	0
2024-05-24 14:38:32			0	35126	0	0	0	22844	21380	142652	27543	991917	40346	108410	0	0	8161	683725	0	0
2024-05-24 14:39:32			0	35161	0	0	0	22854	21390	142556	27142	991907	40326	108414	0	0	8163	682095	0	0
2024-05-24 14:40:32			0	35193	0	0	0	22857	21390	142352	27081	991942	40337	108415	0	0	8164	680642	0	0
2024-05-24 14:41:32			0	35201	0	0	0	22867	21400	142328	27481	991986	40338	108419	0	0	8165	680241	0	0
2024-05-24 14:42:32			0	35230	0	0	0	22875	21400	142184	26989	992039	40327	108422	0	0	8166	678927	0	0
2024-05-24 14:43:32			0	35222	0	0	0	22864	21420	142204	27053	992162	40362	108418	0	0	8166	679214	0	0
2024-05-24 14:44:32			0	35259	0	0	0	22875	21430	142072	27412	992161	40340	108422	0	0	8168	677502	0	0
2024-05-24 14:45:32			0	35280	0	0	0	22849	21440	142008	27287	992124	40341	108412	0	0	8170	676515	0	0
2024-05-24 14:46:32			0	35294	0	0	0	22716	21440	141880	27604	992009	40320	108361	0	0	8173	675883	0	0
2024-05-24 14:47:32			0	35279	0	0	0	22612	21420	141928	27215	991798	40295	108321	0	0	8173	676636	0	0
2024-05-24 14:48:32			0	35211	0	0	0	22693	21400	142208	27313	991693	40294	108352	0	0	8168	679788	0	0
2024-05-24 14:49:32			0	35168	0	0	0	22696	21390	142400	27448	991668	40293	108353	0	0	8166	681777	0	0
2024-05-24 14:50:32			0	35115	0	0	0	22709	21370	142524	27352	991661	40302	108358	0	0	8163	684264	0	0
2024-05-24 14:51:32			0	35077	0	0	0	22766	21370	142711	27305	991661	40325	108380	0	0	8160	685997	0	0
2024-05-24 14:52:32			0	35054	0	0	0	22766	21360	142835	27550	991706	40313	108380	0	0	8158	687085	0	0
2024-05-24 14:53:32			0	35045	0	0	0	22786	21370	143055	27280	991741	40313	108388	0	0	8157	687458	0	0
2024-05-24 14:54:32			0	35027	0	0	0	22768	21370	143055	27296	991714	40313	108381	0	0	8157	688282	0	0
2024-05-24 14:55:32			0	35015	0	0	0	22737	21370	143067	27282	991776	40313	108369	0	0	8157	688831	0	0
2024-05-24 14:56:32			0	35025	0	0	0	22732	21370	143011	27488	991696	40313	108367	0	0	8157	688373	0	0
2024-05-24 14:57:32			0	35050	0	0	0	22750	21370	143007	27435	991722	40325	108374	0	0	8158	687230	0	0
2024-05-24 14:58:32			0	35039	0	0	0	22768	21370	142947	27473	991794	40335	108381	0	0	8157	687733	0	0
2024-05-24 14:59:32			0	35053	0	0	0	22766	21370	142939	27486	991847	40335	108380	0	0	8158	687093	0	0
2024-05-24 15:00:32			0	35084	0	0	0	22742	21380	142687	27471	991819	40303	108371	0	0	8160	685639	0	0
2024-05-24 15:01:32			0	35087	0	0	0	22761	21390	142647	27573	991827	40326	108378	0	0	8160	685464	0	0
2024-05-24 15:02:32			0	35089	0	0	0	22802	21390	142567	27594	991942	40337	108394	0	0	8160	685373	0	0
2024-05-24 15:03:32			0	35119	0	0	0	22831	21400	142504	27339	991959	40327	108405	0	0	8161	683968	0	0
2024-05-24 15:04:32			0	35146	0	0	0	22859	21420	142484	27492	992002	40318	108416	0	0	8162	682663	0	0
2024-05-24 15:05:32			0	35143	0	0	0	22846	21410	142452	27393	992127	40338	108411	0	0	8162	682838	0	0
2024-05-24 15:06:32			0	35161	0	0	0	22854	21440	142436	27339	992116	40320	108414	0	0	8163	681906	0	0
2024-05-24 15:07:32			0	35171	0	0	0	22849	21440	142404	27346	992196	40320	108412	0	0	8164	681451	0	0
2024-05-24 15:08:32			0	35189	0	0	0	22867	21440	142324	27500	992151	40341	108419	0	0	8164	680634	0	0
2024-05-24 15:09:32			0	35196	0	0	0	22880	21460	142332	27433	992283	40333	108424	0	0	8165	680241	0	0
2024-05-24 15:10:32			0	35211	0	0	0	22880	21470	142252	27109	992326	40343	108424	0	0	8165	679524	0	0
2024-05-24 15:11:32			0	35232	0	0	0	22903	21470	142176	27332	992335	40333	108433	0	0	8166	678573	0	0
2024-05-24 15:12:32			0	35218	0	0	0	22937	21490	142196	27409	992360	40334	108446	0	0	8165	679131	0	0
2024-05-24 15:13:32			0	35231	0	0	0	22976	21500	142104	27533	992510	40335	108461	0	0	8165	678505	0	0
2024-05-24 15:14:32			0	35217	0	0	0	22994	21520	142124	27514	992570	40337	108468	0	0	8164	679063	0	0
2024-05-24 15:15:32			0	35231	0	0	0	22999	21530	142108	27275	992728	40349	108470	0	0	8165	678391	0	0
2024-05-24 15:16:32			0	35246	0	0	0	23015	21530	142048	26920	992728	40349	108476	0	0	8165	677713	0	0
2024-05-24 15:17:32			0	35271	0	0	0	23012	21550	141984	27206	992762	40352	108475	0	0	8167	676508	0	0
2024-05-24 15:18:32			0	35271	0	0	0	23010	21570	141980	27260	992840	40353	108474	0	0	8167	676433	0	0
2024-05-24 15:19:32			0	35274	0	0	0	22989	21570	142020	27480	992795	40365	108466	0	0	8167	676297	0	0
2024-05-24 15:20:32			0	35254	0	0	0	22974	21580	142020	27566	992866	40343	108460	0	0	8167	677163	0	0
2024-05-24 15:21:32			0	35253	0	0	0	22974	21590	141896	26955	992847	40355	108460	0	0	8167	677170	0	0
2024-05-24 15:22:32			0	35243	0	0	0	22929	21600	141976	27384	992838	40344	108443	0	0	8167	677585	0	0
2024-05-24 15:23:32			0	35240	0	0	0	22911	21600	141876	27203	992846	40333	108436	0	0	8167	677720	0	0
2024-05-24 15:24:32			0	35269	0	0	0	22963	21600	141864	27334	992952	40356	108456	0	0	8168	676410	0	0
2024-05-24 15:25:32			0	35247	0	0	0	22937	21600	141912	27573	992926	40333	108446	0	0	8167	677404	0	0
2024-05-24 15:26:32			0	35258	0	0	0	22966	21620	141844	27237	992898	40335	108457	0	0	8167	676832	0	0
2024-05-24 15:27:32			0	35288	0	0	0	22994	21620	141880	27244	992986	40347	108468	0	0	8168	675477	0	0
2024-05-24 15:28:32			0	35279	0	0	0	23007	21630	141848	27454	993048	40347	108473	0	0	8168	675846	0	0
2024-05-24 15:29:32			0	35301	0	0	0	23005	21640	141796	27582	993100	40348	108472	0	0	8169	674816	0	0
2024-05-24 15:30:32			0	35293	0	0	0	23020	21640	141728	27415	993179	40360	108478	0	0	8168	675177	0	0
2024-05-24 15:31:32			0	35333	0	0	0	23018	21660	141720	27317	993178	40373	108477	0	0	8171	673300	0	0
2024-05-24 15:32:32			0	35348	0	0	0	22979	21670	141636	27327	993230	40330	108462	0	0	8172	672588	0	0
2024-05-24 15:33:32			0	35374	0	0	0	22851	21660	141396	27665	992974	40306	108413	0	0	8176	671457	0	0
2024-05-24 15:34:32			0	35398	0	0	0	22883	21650	141332	27391	992983	40339	108425	0	0	8176	670418	0	0
2024-05-24 15:35:32			0	35436	0	0	0	22914	21640	141160	27557	992985	40327	108437	0	0	8178	668752	0	0
2024-05-24 15:36:32			0	35474	0	0	0	22937	21650	140960	27748	992983	40339	108446	0	0	8180	667015	0	0
2024-05-24 15:37:32			0	35515	0	0	0	22994	21650	140880	27220	993063	40329	108468	0	0	8181	665185	0	0
2024-05-24 15:38:32			0	35562	0	0	0	23020	21660	140752	27272	993125	40361	108478	0	0	8183	663054	0	0
2024-05-24 15:39:32			0	35566	0	0	0	23012	21670	140684	27450	993150	40341	108475	0	0	8183	662840	0	0
2024-05-24 15:40:32			0	35585	0	0	0	23033	21670	140556	27357	993195	40351	108483	0	0	8184	661995	0	0
2024-05-24 15:41:32			0	35623	0	0	0	23049	21680	140432	27307	993273	40341	108489	0	0	8186	660271	0	0
2024-05-24 15:42:32			0	35632	0	0	0	23098	21700	140396	27396	993352	40365	108508	0	0	8186	659799	0	0
2024-05-24 15:43:32			0	35682	0	0	0	23129	21710	140288	27298	993449	40343	108520	0	0	8188	657548	0	0
2024-05-24 15:44:32			0	35703	0	0	0	23153	21720	140212	27448	993457	40355	108529	0	0	8189	656583	0	0
2024-05-24 15:45:32			0	35734	0	0	0	23140	21740	140120	27486	993438	40346	108524	0	0	8191	655142	0	0
2024-05-24 15:46:32			0	35726	0	0	0	23153	21740	140108	27216	993517	40368	108529	0	0	8190	655495	0	0
2024-05-24 15:47:32			0	35757	0	0	0	23158	21750	139856	27372	993516	40348	108531	0	0	8192	654092	0	0
2024-05-24 15:48:32			0	35786	0	0	0	23155	21770	139896	27286	993621	40371	108530	0	0	8193	652743	0	0
2024-05-24 15:49:32			0	35785	0	0	0	23174	21770	139840	27336	993568	40360	108537	0	0	8193	652787	0	0
2024-05-24 15:50:32			0	35832	0	0	0	23171	21760	139676	27313	993666	40360	108536	0	0	8195	650758	0	0
2024-05-24 15:51:32			0	35846	0	0	0	23129	21780	139612	27336	993691	40372	108520	0	0	8197	650072	0	0
2024-05-24 15:52:32			0	35853	0	0	0	23106	21780	139484	27478	993646	40373	108511	0	0	8198	649765	0	0
2024-05-24 15:53:32			0	35880	0	0	0	23106	21800	139501	27320	993672	40351	108511	0	0	8199	648510	0	0
2024-05-24 15:54:32			0	35893	0	0	0	23116	21800	139405	27175	993672	40374	108515	0	0	8200	647941	0	0
2024-05-24 15:55:32			0	35905	0	0	0	23127	21800	139321	27206	993672	40351	108519	0	0	8200	647416	0	0
2024-05-24 15:56:32			0	35928	0	0	0	23142	21800	139149	27345	993680	40352	108525	0	0	8201	646411	0	0
2024-05-24 15:57:32			0	35938	0	0	0	23153	21820	139137	27492	993732	40375	108529	0	0	8202	645902	0	0
2024-05-24 15:58:32			0	35942	0	0	0	23129	21820	139185	27746	993758	40375	108520	0	0	8202	645728	0	0
2024-05-24 15:59:32			0	35950	0	0	0	23090	21820	139065	27479	993740	40342	108505	0	0	8203	645379	0	0
2024-05-24 16:00:32			0	35950	0	0	0	23064	21810	139113	27509	993715	40352	108495	0	0	8204	645415	0	0
2024-05-24 16:01:32			0	35936	0	0	0	23020	21810	139125	27111	993537	40331	108478	0	0	8204	646026	0	0
2024-05-24 16:02:32			0	35947	0	0	0	23005	21810	139145	27315	993529	40330	108472	0	0	8205	645545	0	0
2024-05-24 16:03:32			0	35926	0	0	0	23023	21790	139133	27701	993548	40350	108479	0	0	8203	646534	0	0
2024-05-24 16:04:32			0	35879	0	0	0	23070	21790	139301	27376	993637	40351	108497	0	0	8200	648589	0	0
2024-05-24 16:05:32			0	35874	0	0	0	23033	21800	139509	27502	993653	40363	108483	0	0	8200	648772	0	0
2024-05-24 16:06:32			0	35873	0	0	0	22974	21790	139485	27197	993503	40340	108460	0	0	8201	648852	0	0
2024-05-24 16:07:32			0	35860	0	0	0	22940	21780	139429	27192	993345	40328	108447	0	0	8201	649458	0	0
2024-05-24 16:08:32			0	35878	0	0	0	22849	21760	139481	27466	993213	40316	108412	0	0	8203	648742	0	0
2024-05-24 16:09:32			0	35885	0	0	0	22864	21740	139417	27545	993153	40325	108418	0	0	8203	648507	0	0
2024-05-24 16:10:32			0	35902	0	0	0	22862	21720	139293	27488	993066	40323	108417	0	0	8204	647835	0	0
2024-05-24 16:11:32			0	35926	0	0	0	22857	21710	139297	27543	993068	40322	108415	0	0	8205	646822	0	0
2024-05-24 16:12:32			0	35892	0	0	0	22929	21710	139429	27341	993174	40333	108443	0	0	8202	648309	0	0
2024-05-24 16:13:32			0	35912	0	0	0	22877	21710	139469	27357	993103	40322	108423	0	0	8204	647434	0	0
2024-05-24 16:14:32			0	35848	0	0	0	22859	21690	139492	27469	992971	40310	108416	0	0	8201	650310	0	0
2024-05-24 16:15:32			0	35864	0	0	0	22841	21660	139541	27390	992761	40295	108409	0	0	8202	649717	0	0
2024-05-24 16:16:32			0	35822	0	0	0	22799	21640	139616	27339	992639	40293	108393	0	0	8201	651632	0	0
2024-05-24 16:17:32			0	35789	0	0	0	22753	21620	139912	27441	992560	40303	108375	0	0	8200	653156	0	0
2024-05-24 16:18:32			0	35739	0	0	0	22680	21600	140080	27523	992492	40300	108347	0	0	8198	655432	0	0
2024-05-24 16:19:32			0	35679	0	0	0	22607	21580	140280	27606	992378	40298	108319	0	0	8196	658157	0	0
2024-05-24 16:20:32			0	35662	0	0	0	22576	21560	140296	27429	992193	40287	108307	0	0	8195	658983	0	0
2024-05-24 16:21:32			0	35650	0	0	0	22566	21530	140388	27215	992081	40283	108303	0	0	8195	659624	0	0
2024-05-24 16:22:32			0	35680	0	0	0	22602	21510	140336	27116	992127	40282	108317	0	0	8196	658369	0	0
2024-05-24 16:23:32			0	35720	0	0	0	22615	21500	140112	27294	992146	40282	108322	0	0	8198	656636	0	0
2024-05-24 16:24:32			0	35766	0	0	0	22628	21490	139956	27305	992076	40280	108327	0	0	8200	654642	0	0
2024-05-24 16:25:32			0	35790	0	0	0	22672	21490	139756	27298	992129	40291	108344	0	0	8200	653584	0	0
2024-05-24 16:26:32			0	35836	0	0	0	22693	21490	139652	27466	992094	40280	108352	0	0	8202	651561	0	0
2024-05-24 16:27:32			0	35864	0	0	0	22711	21480	139625	27784	992112	40291	108359	0	0	8204	650367	0	0
2024-05-24 16:28:32			0	35869	0	0	0	22740	21460	139561	27026	992150	40299	108370	0	0	8203	650220	0	0
2024-05-24 16:29:32			0	35871	0	0	0	22737	21480	139689	27355	992077	40301	108369	0	0	8204	650060	0	0
2024-05-24 16:30:32			0	35878	0	0	0	22758	21460	139497	27232	992131	40289	108377	0	0	8203	649825	0	0
2024-05-24 16:31:32			0	35881	0	0	0	22758	21460	139569	27284	992123	40299	108377	0	0	8204	649694	0	0
2024-05-24 16:32:32			0	35853	0	0	0	22740	21470	139552	27263	992060	40310	108370	0	0	8202	650886	0	0
2024-05-24 16:33:32			0	35870	0	0	0	22750	21470	139561	27241	992140	40310	108374	0	0	8203	650140	0	0
2024-05-24 16:34:32			0	35875	0	0	0	22709	21470	139513	27511	992060	40299	108358	0	0	8204	649921	0	0
2024-05-24 16:35:32			0	35892	0	0	0	22659	21460	139465	27779	991998	40277	108339	0	0	8206	649211	0	0
2024-05-24 16:36:32			0	35901	0	0	0	22633	21440	139349	27383	991991	40276	108329	0	0	8207	648889	0	0
2024-05-24 16:37:32			0	35912	0	0	0	22589	21440	139369	27566	991965	40287	108312	0	0	8208	648407	0	0
2024-05-24 16:38:32			0	35932	0	0	0	22612	21430	139277	27640	991913	40285	108321	0	0	8209	647568	0	0
2024-05-24 16:39:32			0	35953	0	0	0	22574	21420	139265	27441	991798	40307	108306	0	0	8210	646685	0	0
2024-05-24 16:40:32			0	35952	0	0	0	22568	21420	139173	27544	991816	40274	108304	0	0	8210	646729	0	0
2024-05-24 16:41:32			0	35960	0	0	0	22553	21390	139181	27326	991676	40282	108298	0	0	8211	646487	0	0
2024-05-24 16:42:32			0	36007	0	0	0	22558	21390	139281	27481	991694	40304	108300	0	0	8213	644435	0	0
2024-05-24 16:43:32			0	35977	0	0	0	22542	21370	139217	27383	991669	40269	108294	0	0	8212	645816	0	0
2024-05-24 16:44:32			0	35996	0	0	0	22589	21360	139141	27429	991599	40291	108312	0	0	8212	645023	0	0
2024-05-24 16:45:32			0	36004	0	0	0	22610	21370	139053	27606	991669	40269	108320	0	0	8212	644638	0	0
2024-05-24 16:46:32			0	36023	0	0	0	23002	21370	139141	27640	991714	40291	108471	0	0	8207	643809	0	0
2024-05-24 16:47:32			0	36002	0	0	0	22373	21370	139173	27543	991634	40291	108229	0	0	8216	644725	0	0
2024-05-24 16:48:32			0	36014	0	0	0	22259	21340	139005	27583	991113	40234	108185	0	0	8219	644309	0	0
2024-05-24 16:49:32			0	35972	0	0	0	22566	21300	139185	27765	990993	40219	108303	0	0	8211	646286	0	0
2024-05-24 16:50:32			0	35881	0	0	0	22675	21280	139693	27601	991243	40272	108345	0	0	8204	650344	0	0
2024-05-24 16:51:32			0	35774	0	0	0	22688	21290	140144	27528	991401	40294	108350	0	0	8198	655017	0	0
2024-05-24 16:52:32			0	35712	0	0	0	22574	21290	140464	27687	991455	40294	108306	0	0	8197	657757	0	0
2024-05-24 16:53:32			0	35609	0	0	0	22415	21300	140656	27620	991285	40286	108245	0	0	8194	662290	0	0
2024-05-24 16:54:32			0	35501	0	0	0	22194	21280	141048	27455	990924	40239	108160	0	0	8192	667180	0	0
2024-05-24 16:55:32			0	35403	0	0	0	22158	21260	141440	27855	990846	40237	108146	0	0	8187	671648	0	0
2024-05-24 16:56:32			0	35331	0	0	0	22438	21210	141756	27672	990647	40243	108254	0	0	8178	675076	0	0
2024-05-24 16:57:32			0	35269	0	0	0	22444	21200	142016	27594	990736	40264	108256	0	0	8175	677915	0	0
2024-05-24 16:58:32			0	35203	0	0	0	22454	21190	142288	27460	990807	40264	108260	0	0	8171	680944	0	0
2024-05-24 16:59:32			0	35167	0	0	0	22428	21190	142424	27543	990754	40264	108250	0	0	8169	682580	0	0
2024-05-24 17:00:32			0	35146	0	0	0	22433	21180	142536	27436	990738	40263	108252	0	0	8168	683574	0	0
2024-05-24 17:01:32			0	35153	0	0	0	22381	21170	142568	27147	990712	40250	108232	0	0	8169	683293	0	0
2024-05-24 17:02:32			0	35121	0	0	0	22407	21160	142644	27523	990704	40273	108242	0	0	8167	684789	0	0
2024-05-24 17:03:32			0	35110	0	0	0	22405	21160	142623	27298	990642	40250	108241	0	0	8166	685290	0	0
2024-05-24 17:04:32			0	35103	0	0	0	22472	21160	142703	27208	990775	40260	108267	0	0	8165	685610	0	0
2024-05-24 17:05:32			0	35098	0	0	0	22467	21160	142671	27602	990775	40250	108265	0	0	8165	685838	0	0
2024-05-24 17:06:32			0	35084	0	0	0	22545	21170	142839	27367	990960	40273	108295	0	0	8163	686439	0	0
2024-05-24 17:07:32			0	35088	0	0	0	22589	21180	142827	27334	991075	40262	108312	0	0	8162	686218	0	0
2024-05-24 17:08:32			0	35089	0	0	0	22641	21190	142895	27460	991206	40297	108332	0	0	8161	686135	0	0
2024-05-24 17:09:32			0	35071	0	0	0	22672	21210	142875	27403	991205	40287	108344	0	0	8160	686881	0	0
2024-05-24 17:10:32			0	35096	0	0	0	22701	21230	142855	27267	991487	40300	108355	0	0	8161	685663	0	0
2024-05-24 17:11:32			0	35095	0	0	0	22711	21260	142863	27428	991555	40292	108359	0	0	8161	685594	0	0
2024-05-24 17:12:32			0	35114	0	0	0	22781	21270	142860	27609	991687	40304	108386	0	0	8161	684690	0	0
2024-05-24 17:13:32			0	35094	0	0	0	22935	21310	142783	27251	991959	40330	108445	0	0	8157	685450	0	0
2024-05-24 17:14:32			0	35101	0	0	0	22994	21340	142811	27647	992169	40321	108468	0	0	8157	685016	0	0
2024-05-24 17:15:32			0	35083	0	0	0	22999	21390	142879	27556	992413	40337	108470	0	0	8156	685647	0	0
2024-05-24 17:16:32			0	35099	0	0	0	22999	21420	142727	27528	992401	40318	108470	0	0	8157	684803	0	0
2024-05-24 17:17:32			0	35134	0	0	0	23005	21450	142636	27384	992505	40331	108472	0	0	8159	683095	0	0
2024-05-24 17:18:32			0	35142	0	0	0	22997	21470	142476	27305	992566	40321	108469	0	0	8160	682656	0	0
2024-05-24 17:19:32			0	35208	0	0	0	22968	21470	142196	27362	992547	40311	108458	0	0	8164	679660	0	0
2024-05-24 17:20:32			0	35294	0	0	0	22927	21480	141836	27351	992449	40312	108442	0	0	8169	675733	0	0
2024-05-24 17:21:32			0	35394	0	0	0	22916	21480	141540	27469	992449	40323	108438	0	0	8175	671231	0	0
2024-05-24 17:22:32			0	35470	0	0	0	22883	21490	141140	27384	992421	40324	108425	0	0	8180	667788	0	0
2024-05-24 17:23:32			0	35537	0	0	0	22872	21490	140864	27281	992440	40324	108421	0	0	8183	664796	0	0
2024-05-24 17:24:32			0	35594	0	0	0	22867	21490	140672	27400	992368	40313	108419	0	0	8186	662258	0	0
2024-05-24 17:25:32			0	35663	0	0	0	22870	21500	140356	27445	992403	40335	108420	0	0	8190	659158	0	0
2024-05-24 17:26:32			0	35726	0	0	0	22862	21500	140120	27265	992358	40314	108417	0	0	8194	656371	0	0
2024-05-24 17:27:32			0	35777	0	0	0	22867	21490	139956	27345	992342	40334	108419	0	0	8196	654157	0	0
2024-05-24 17:28:32			0	35817	0	0	0	22870	21500	139804	27486	992385	40326	108420	0	0	8198	652360	0	0
2024-05-24 17:29:32			0	35830	0	0	0	22864	21510	139736	27464	992473	40314	108418	0	0	8199	651752	0	0
2024-05-24 17:30:32			0	35845	0	0	0	22859	21510	139624	27081	992393	40303	108416	0	0	8200	651093	0	0
2024-05-24 17:31:32			0	35879	0	0	0	22854	21510	139641	27873	992367	40303	108414	0	0	8202	649601	0	0
2024-05-24 17:32:32			0	35872	0	0	0	22815	21500	139545	27379	992332	40303	108399	0	0	8202	649944	0	0
2024-05-24 17:33:32			0	35915	0	0	0	22799	21500	139429	27345	992358	40303	108393	0	0	8205	648060	0	0
2024-05-24 17:34:32			0	35918	0	0	0	22753	21490	139425	27242	992227	40301	108375	0	0	8206	647964	0	0
2024-05-24 17:35:32			0	35921	0	0	0	22755	21480	139425	27505	992138	40301	108376	0	0	8206	647869	0	0
2024-05-24 17:36:32			0	35891	0	0	0	22698	21470	139381	27521	992069	40289	108354	0	0	8205	649219	0	0
2024-05-24 17:37:32			0	35900	0	0	0	22589	21460	139489	27086	991990	40299	108312	0	0	8208	648861	0	0
2024-05-24 17:38:32			0	35862	0	0	0	22540	21440	139525	27672	991797	40276	108293	0	0	8206	650600	0	0
2024-05-24 17:39:32			0	35857	0	0	0	22496	21420	139580	27310	991657	40274	108276	0	0	8207	650892	0	0
2024-05-24 17:40:32			0	35861	0	0	0	22433	21390	139577	27289	991482	40260	108252	0	0	8208	650824	0	0
2024-05-24 17:41:32			0	35851	0	0	0	22342	21350	139668	27206	991281	40268	108217	0	0	8209	651408	0	0
2024-05-24 17:42:32			0	35850	0	0	0	22301	21320	139656	27395	991080	40243	108201	0	0	8209	651561	0	0
2024-05-24 17:43:32			0	35874	0	0	0	22233	21290	139593	27402	990941	40240	108175	0	0	8211	650615	0	0
2024-05-24 17:44:32			0	35879	0	0	0	22163	21250	139529	27235	990714	40248	108148	0	0	8213	650540	0	0
2024-05-24 17:45:32			0	35888	0	0	0	22101	21230	139481	27552	990547	40235	108124	0	0	8214	650217	0	0
2024-05-24 17:46:32			0	35887	0	0	0	21989	21180	139501	27505	990259	40208	108081	0	0	8216	650441	0	0
2024-05-24 17:47:32			0	35896	0	0	0	21997	21130	139505	27483	990122	40204	108084	0	0	8216	650227	0	0
2024-05-24 17:48:32			0	35913	0	0	0	21986	21090	139469	27332	990002	40210	108080	0	0	8217	649625	0	0
2024-05-24 17:49:32			0	35914	0	0	0	22064	21070	139581	27481	990082	40232	108110	0	0	8215	649653	0	0
2024-05-24 17:50:32			0	35924	0	0	0	22181	21070	139545	27166	990242	40221	108155	0	0	8214	649214	0	0
2024-05-24 17:51:32			0	35911	0	0	0	22355	21080	139637	27222	990419	40253	108222	0	0	8210	649748	0	0
2024-05-24 17:52:32			0	35886	0	0	0	22537	21100	139825	27523	990789	40278	108292	0	0	8206	650774	0	0
2024-05-24 17:53:32			0	35884	0	0	0	22664	21120	139753	27239	990956	40279	108341	0	0	8204	650790	0	0
2024-05-24 17:54:32			0	35879	0	0	0	22709	21170	139893	27526	991164	40284	108358	0	0	8203	650829	0	0
2024-05-24 17:55:32			0	35849	0	0	0	22735	21200	139892	27182	991374	40286	108368	0	0	8201	652039	0	0
2024-05-24 17:56:32			0	35873	0	0	0	22742	21230	139817	27300	991380	40279	108371	0	0	8202	650876	0	0
2024-05-24 17:57:32			0	35893	0	0	0	22753	21240	139841	27435	991477	40280	108375	0	0	8203	649961	0	0
2024-05-24 17:58:32			0	35902	0	0	0	22763	21250	139749	27270	991467	40302	108379	0	0	8204	649530	0	0
2024-05-24 17:59:32			0	35917	0	0	0	22763	21280	139769	27383	991616	40283	108379	0	0	8205	648765	0	0
2024-05-24 18:00:32			0	35918	0	0	0	22768	21290	139673	27203	991694	40294	108381	0	0	8205	648685	0	0
2024-05-24 18:01:32			0	35898	0	0	0	22755	21300	139681	27656	991649	40285	108376	0	0	8204	649526	0	0
2024-05-24 18:02:32			0	35914	0	0	0	22716	21310	139549	27409	991639	40286	108361	0	0	8205	648788	0	0
2024-05-24 18:03:32			0	35957	0	0	0	22703	21310	139533	27192	991648	40274	108356	0	0	8208	646906	0	0
2024-05-24 18:04:32			0	35956	0	0	0	22758	21320	139497	27246	991744	40298	108377	0	0	8207	646913	0	0
2024-05-24 18:05:32			0	35973	0	0	0	22776	21330	139469	27585	991788	40310	108384	0	0	8208	646134	0	0
2024-05-24 18:06:32			0	35971	0	0	0	22680	21340	139313	27357	991637	40288	108347	0	0	8209	646186	0	0
2024-05-24 18:07:32			0	35973	0	0	0	22581	21340	139225	27398	991610	40277	108309	0	0	8211	646099	0	0
2024-05-24 18:08:32			0	35991	0	0	0	22412	21320	139097	27329	991532	40276	108244	0	0	8215	645384	0	0
2024-05-24 18:09:32			0	36006	0	0	0	22319	21310	139061	27684	991435	40274	108208	0	0	8217	644765	0	0
2024-05-24 18:10:32			0	36030	0	0	0	22283	21300	138893	27620	991206	40252	108194	0	0	8219	643755	0	0
2024-05-24 18:11:32			0	36040	0	0	0	22301	21290	138829	27519	991180	40262	108201	0	0	8219	643355	0	0
2024-05-24 18:12:32			0	36069	0	0	0	22309	21280	138833	27568	991084	40250	108204	0	0	8221	642128	0	0
2024-05-24 18:13:32			0	36119	0	0	0	22272	21250	138693	27632	990900	40236	108190	0	0	8224	640062	0	0
2024-05-24 18:14:32			0	36141	0	0	0	22251	21220	138585	27521	990770	40233	108182	0	0	8225	639214	0	0
2024-05-24 18:15:32			0	36178	0	0	0	22270	21200	138473	27327	990789	40242	108189	0	0	8227	637681	0	0
2024-05-24 18:16:32			0	36194	0	0	0	22322	21180	138445	27320	990791	40242	108209	0	0	8227	637059	0	0
2024-05-24 18:17:32			0	36228	0	0	0	22342	21190	138245	27180	990746	40242	108217	0	0	8228	635554	0	0
2024-05-24 18:18:32			0	36242	0	0	0	22392	21180	138285	27388	990791	40252	108236	0	0	8228	634985	0	0
2024-05-24 18:19:32			0	36250	0	0	0	22433	21190	138209	27428	990959	40252	108252	0	0	8228	634604	0	0
2024-05-24 18:20:32			0	36281	0	0	0	22449	21190	138165	27261	991020	40264	108258	0	0	8229	633268	0	0
2024-05-24 18:21:32			0	36302	0	0	0	22436	21200	138161	27286	991037	40254	108253	0	0	8230	632328	0	0
2024-05-24 18:22:32			0	36310	0	0	0	22496	21200	138033	27682	991117	40254	108276	0	0	8230	631984	0	0
2024-05-24 18:23:32			0	36326	0	0	0	22602	21220	137997	27220	991284	40267	108317	0	0	8229	631226	0	0
2024-05-24 18:24:32			0	36320	0	0	0	22724	21250	137949	27154	991520	40291	108364	0	0	8227	631379	0	0
2024-05-24 18:25:32			0	36348	0	0	0	22831	21270	138057	27209	991705	40292	108405	0	0	8227	630105	0	0
2024-05-24 18:26:32			0	36338	0	0	0	22883	21320	137957	27255	991975	40297	108425	0	0	8225	630360	0	0
2024-05-24 18:27:32			0	36353	0	0	0	22942	21340	137957	27078	992071	40311	108448	0	0	8225	629646	0	0
2024-05-24 18:28:32			0	36322	0	0	0	22948	21370	137977	27128	992148	40313	108450	0	0	8224	630872	0	0
2024-05-24 18:29:32			0	36347	0	0	0	22961	21390	138033	27164	992253	40337	108455	0	0	8225	629729	0	0
2024-05-24 18:30:32			0	36348	0	0	0	22963	21400	137921	27140	992305	40327	108456	0	0	8225	629651	0	0
2024-05-24 18:31:32			0	36354	0	0	0	22974	21440	138009	27679	992382	40320	108460	0	0	8225	629253	0	0
2024-05-24 18:32:32			0	36359	0	0	0	22976	21450	137981	27286	992399	40341	108461	0	0	8225	629004	0	0
2024-05-24 18:33:32			0	36362	0	0	0	22974	21460	137861	27466	992557	40321	108460	0	0	8226	628840	0	0
2024-05-24 18:34:32			0	36356	0	0	0	22963	21480	137785	27447	992556	40312	108456	0	0	8226	629028	0	0
2024-05-24 18:35:32			0	36394	0	0	0	22955	21500	137609	27353	992589	40335	108453	0	0	8228	627331	0	0
2024-05-24 18:36:32			0	36384	0	0	0	22929	21510	137629	27305	992606	40326	108443	0	0	8228	627724	0	0
2024-05-24 18:37:32			0	36428	0	0	0	22888	21530	137401	27067	992587	40327	108427	0	0	8231	625773	0	0
2024-05-24 18:38:32			0	36462	0	0	0	22794	21510	137357	27085	992561	40326	108391	0	0	8234	624391	0	0
2024-05-24 18:39:32			0	36492	0	0	0	22680	21530	137053	27121	992427	40327	108347	0	0	8238	623043	0	0
2024-05-24 18:40:32			0	36533	0	0	0	22568	21510	136941	27530	992234	40292	108304	0	0	8242	621368	0	0
2024-05-24 18:41:32			0	36539	0	0	0	22446	21490	136841	27345	992022	40291	108257	0	0	8244	621182	0	0
2024-05-24 18:42:32			0	36566	0	0	0	22353	21460	136721	27230	991786	40266	108221	0	0	8247	620139	0	0
2024-05-24 18:43:32			0	36555	0	0	0	22246	21420	136665	27336	991391	40230	108180	0	0	8248	620744	0	0
2024-05-24 18:44:32			0	36569	0	0	0	22158	21360	136665	27171	991032	40212	108146	0	0	8250	620357	0	0
2024-05-24 18:45:32			0	36565	0	0	0	22096	21280	136669	27112	990614	40196	108122	0	0	8251	620802	0	0
2024-05-24 18:46:32			0	36568	0	0	0	22007	21220	136677	27268	990273	40190	108088	0	0	8252	620882	0	0
2024-05-24 18:47:32			0	36588	0	0	0	21986	21170	136693	27164	990083	40185	108080	0	0	8253	620204	0	0
2024-05-24 18:48:32			0	36579	0	0	0	21945	21110	136725	27369	989911	40191	108064	0	0	8253	620793	0	0
2024-05-24 18:49:32			0	36594	0	0	0	21914	21060	136837	27220	989712	40186	108052	0	0	8254	620328	0	0
2024-05-24 18:50:32			0	36612	0	0	0	21890	21010	136770	27190	989450	40182	108043	0	0	8255	619735	0	0
2024-05-24 18:51:32			0	36602	0	0	0	21870	20960	136814	27024	989260	40177	108035	0	0	8255	620332	0	0
2024-05-24 18:52:32			0	36605	0	0	0	21836	20920	136874	27131	989113	40185	108022	0	0	8255	620342	0	0
2024-05-24 18:53:32			0	36617	0	0	0	21818	20880	136878	27450	988940	40159	108015	0	0	8256	619969	0	0
2024-05-24 18:54:32			0	36595	0	0	0	21784	20850	136886	27152	988916	40167	108002	0	0	8256	621008	0	0
2024-05-24 18:55:32			0	36583	0	0	0	21789	20810	136957	27473	988742	40175	108004	0	0	8255	621656	0	0
2024-05-24 18:56:32			0	36570	0	0	0	21784	20780	137093	27308	988692	40171	108002	0	0	8254	622313	0	0
2024-05-24 18:57:32			0	36582	0	0	0	21784	20750	137177	27189	988562	40158	108002	0	0	8254	621905	0	0
2024-05-24 18:58:32			0	36562	0	0	0	21774	20730	137257	27341	988422	40178	107998	0	0	8253	622826	0	0
2024-05-24 18:59:32			0	36548	0	0	0	21771	20700	137325	27171	988353	40166	107997	0	0	8253	623527	0	0
2024-05-24 19:00:32			0	36538	0	0	0	21740	20680	137377	27438	988214	40163	107985	0	0	8253	624023	0	0
2024-05-24 19:01:32			0	36507	0	0	0	21722	20630	137497	27144	988130	40148	107978	0	0	8251	625520	0	0
2024-05-24 19:02:32			0	36494	0	0	0	21732	20620	137617	27277	988052	40167	107982	0	0	8250	626111	0	0
2024-05-24 19:03:32			0	36452	0	0	0	21748	20600	137901	27282	988045	40166	107988	0	0	8247	627979	0	0
2024-05-24 19:04:32			0	36390	0	0	0	21753	20590	138029	27351	988054	40166	107990	0	0	8244	630676	0	0
2024-05-24 19:05:32			0	36357	0	0	0	21792	20570	138189	27137	988082	40174	108005	0	0	8242	632167	0	0
2024-05-24 19:06:32			0	36308	0	0	0	21797	20570	138365	27164	988127	40174	108007	0	0	8239	634280	0	0
2024-05-24 19:07:32			0	36264	0	0	0	21786	20580	138577	27234	988064	40175	108003	0	0	8237	636147	0	0
2024-05-24 19:08:32			0	36244	0	0	0	21797	20560	138801	27457	988030	40173	108007	0	0	8235	637083	0	0
2024-05-24 19:09:32			0	36158	0	0	0	21789	20550	138977	27488	987961	40172	108004	0	0	8231	640851	0	0
2024-05-24 19:10:32			0	36128	0	0	0	21802	20540	139129	27305	988032	40162	108009	0	0	8229	642193	0	0
2024-05-24 19:11:32			0	36099	0	0	0	21815	20540	139197	27364	988005	40162	108014	0	0	8227	643457	0	0
2024-05-24 19:12:32			0	36061	0	0	0	21823	20540	139305	27393	988032	40172	108017	0	0	8225	645116	0	0
2024-05-24 19:13:32			0	36049	0	0	0	21857	20530	139449	27308	988103	40183	108030	0	0	8224	645676	0	0
2024-05-24 19:14:32			0	36021	0	0	0	21880	20550	139621	27253	988120	40184	108039	0	0	8222	646830	0	0
2024-05-24 19:15:32			0	36013	0	0	0	21872	20550	139565	27403	988120	40184	108036	0	0	8222	647180	0	0
2024-05-24 19:16:32			0	35993	0	0	0	21854	20540	139649	27237	988058	40195	108029	0	0	8221	648092	0	0
2024-05-24 19:17:32			0	35981	0	0	0	21844	20530	139725	27507	988077	40194	108025	0	0	8220	648655	0	0
2024-05-24 19:18:32			0	35985	0	0	0	21841	20520	139693	27384	988007	40182	108024	0	0	8221	648515	0	0
2024-05-24 19:19:32			0	35995	0	0	0	21849	20530	139657	27275	988050	40183	108027	0	0	8221	648041	0	0
2024-05-24 19:20:32			0	35983	0	0	0	21838	20520	139709	27464	988033	40182	108023	0	0	8221	648603	0	0
2024-05-24 19:21:32			0	36003	0	0	0	21805	20520	139637	27422	988025	40181	108010	0	0	8222	647726	0	0
2024-05-24 19:22:32			0	35997	0	0	0	21797	20520	139673	27400	987945	40170	108007	0	0	8222	647989	0	0
2024-05-24 19:23:32			0	36023	0	0	0	21789	20510	139633	27268	987982	40180	108004	0	0	8223	646885	0	0
2024-05-24 19:24:32			0	36017	0	0	0	21799	20490	139501	27284	987877	40168	108008	0	0	8223	647220	0	0
2024-05-24 19:25:32			0	36041	0	0	0	21799	20500	139461	27272	987894	40179	108008	0	0	8224	646133	0	0
2024-05-24 19:26:32			0	36064	0	0	0	21789	20490	139453	27059	987842	40190	108004	0	0	8226	645163	0	0
2024-05-24 19:27:32			0	36084	0	0	0	21779	20480	139389	27523	987754	40166	108000	0	0	8227	644325	0	0
2024-05-24 19:28:32			0	36084	0	0	0	21753	20470	139493	27227	987782	40188	107990	0	0	8227	644361	0	0
2024-05-24 19:29:32			0	36092	0	0	0	21724	20460	139185	27053	987747	40176	107979	0	0	8228	644047	0	0
2024-05-24 19:30:32			0	36128	0	0	0	21737	20470	139201	26972	987808	40177	107984	0	0	8230	642441	0	0
2024-05-24 19:31:32			0	36127	0	0	0	21784	20460	139097	27298	987738	40176	108002	0	0	8229	642520	0	0
2024-05-24 19:32:32			0	36158	0	0	0	21792	20450	139081	27225	987756	40176	108005	0	0	8230	641206	0	0
2024-05-24 19:33:32			0	36155	0	0	0	21812	20470	139085	27308	987782	40188	108013	0	0	8230	641265	0	0
2024-05-24 19:34:32			0	36184	0	0	0	21825	20460	139013	27216	987853	40176	108018	0	0	8231	640040	0	0
2024-05-24 19:35:32			0	36185	0	0	0	21833	20460	139013	26863	987845	40165	108021	0	0	8231	639996	0	0
2024-05-24 19:36:32			0	36193	0	0	0	21841	20470	139005	27211	987817	40200	108024	0	0	8232	639613	0	0
2024-05-24 19:37:32			0	36197	0	0	0	21862	20460	139033	27093	987906	40198	108032	0	0	8231	639475	0	0
2024-05-24 19:38:32			0	36199	0	0	0	21823	20470	139033	27464	987950	40189	108017	0	0	8232	639352	0	0
2024-05-24 19:39:32			0	36200	0	0	0	21857	20480	139029	27398	987940	40178	108030	0	0	8232	639274	0	0
2024-05-24 19:40:32			0	36210	0	0	0	21893	20490	138921	27459	988010	40190	108044	0	0	8232	638804	0	0
2024-05-24 19:41:32			0	36214	0	0	0	21903	20480	138937	27357	987993	40189	108048	0	0	8232	638666	0	0
2024-05-24 19:42:32			0	36226	0	0	0	21896	20500	138925	27185	987991	40190	108045	0	0	8233	638075	0	0
2024-05-24 19:43:32			0	36203	0	0	0	21901	20500	138809	27187	987991	40202	108047	0	0	8231	639073	0	0
2024-05-24 19:44:32			0	36225	0	0	0	21877	20500	138861	27152	988026	40190	108038	0	0	8233	638118	0	0
2024-05-24 19:45:32			0	36249	0	0	0	21854	20500	138749	27116	987859	40190	108029	0	0	8234	637078	0	0
2024-05-24 19:46:32			0	36242	0	0	0	21820	20490	138769	27187	987824	40179	108016	0	0	8235	637416	0	0
2024-05-24 19:47:32			0	36252	0	0	0	21799	20480	138713	27268	987807	40178	108008	0	0	8235	637019	0	0
2024-05-24 19:48:32			0	36247	0	0	0	21794	20490	138633	27445	987922	40167	108006	0	0	8235	637200	0	0
2024-05-24 19:49:32			0	36250	0	0	0	21786	20490	138649	27275	987842	40178	108003	0	0	8236	637070	0	0
2024-05-24 19:50:32			0	36262	0	0	0	21763	20480	138713	27544	987772	40178	107994	0	0	8237	636585	0	0
2024-05-24 19:51:32			0	36256	0	0	0	21701	20450	138625	27267	987730	40165	107970	0	0	8237	636951	0	0
2024-05-24 19:52:32			0	36281	0	0	0	21667	20450	138553	27031	987615	40165	107957	0	0	8239	635869	0	0
2024-05-24 19:53:32			0	36299	0	0	0	21667	20440	138557	27222	987580	40164	107957	0	0	8240	635125	0	0
2024-05-24 19:54:32			0	36298	0	0	0	21690	20430	138521	26811	987608	40152	107966	0	0	8240	635204	0	0
2024-05-24 19:55:32			0	36317	0	0	0	21719	20420	138469	27008	987653	40172	107977	0	0	8240	634417	0	0
2024-05-24 19:56:32			0	36316	0	0	0	21732	20430	138429	27284	987582	40163	107982	0	0	8240	634426	0	0
2024-05-24 19:57:32			0	36331	0	0	0	21722	20430	138461	27310	987608	40173	107978	0	0	8241	633778	0	0
2024-05-24 19:58:32			0	36325	0	0	0	21750	20420	138545	27256	987653	40172	107989	0	0	8240	634072	0	0
2024-05-24 19:59:32			0	36333	0	0	0	21807	20420	138481	27286	987733	40172	108011	0	0	8239	633727	0	0
2024-05-24 20:00:32			0	36341	0	0	0	21851	20430	138533	27360	987874	40196	108028	0	0	8239	633346	0	0
2024-05-24 20:01:32			0	36323	0	0	0	21893	20450	138597	27220	987889	40187	108044	0	0	8238	634053	0	0
2024-05-24 20:02:32			0	36301	0	0	0	21937	20460	138609	27000	988039	40208	108061	0	0	8236	634969	0	0
2024-05-24 20:03:32			0	36298	0	0	0	21932	20480	138681	27164	988046	40189	108059	0	0	8236	635028	0	0
2024-05-24 20:04:32			0	36297	0	0	0	21919	20490	138641	27026	988063	40190	108054	0	0	8236	635036	0	0
2024-05-24 20:05:32			0	36278	0	0	0	21927	20500	138717	27331	988080	40190	108057	0	0	8235	635823	0	0
2024-05-24 20:06:32			0	36276	0	0	0	21994	20510	138717	27320	988203	40214	108083	0	0	8234	635874	0	0
2024-05-24 20:07:32			0	36252	0	0	0	22036	20530	138873	27306	988342	40216	108099	0	0	8232	636842	0	0
2024-05-24 20:08:32			0	36262	0	0	0	22049	20550	138813	27343	988421	40216	108104	0	0	8232	636339	0	0
2024-05-24 20:09:32			0	36292	0	0	0	22033	20560	138713	26918	988482	40217	108098	0	0	8234	635006	0	0
2024-05-24 20:10:32			0	36335	0	0	0	22036	20580	138413	27154	988542	40219	108099	0	0	8236	633080	0	0
2024-05-24 20:11:32			0	36402	0	0	0	22044	20590	138253	27251	988532	40220	108102	0	0	8240	630160	0	0
2024-05-24 20:12:32			0	36492	0	0	0	22049	20610	137989	27372	988566	40210	108104	0	0	8245	626231	0	0
2024-05-24 20:13:32			0	36550	0	0	0	22036	20600	137605	27244	988531	40210	108099	0	0	8248	623787	0	0
2024-05-24 20:14:32			0	36625	0	0	0	22049	20610	137394	27227	988575	40223	108104	0	0	8252	620557	0	0
2024-05-24 20:15:32			0	36640	0	0	0	22070	20620	137222	27213	988663	40223	108112	0	0	8252	619885	0	0
2024-05-24 20:16:32			0	36673	0	0	0	22103	20630	137230	27339	988653	40223	108125	0	0	8253	618449	0	0
2024-05-24 20:17:32			0	36699	0	0	0	22122	20640	137106	27537	988749	40224	108132	0	0	8254	617312	0	0
2024-05-24 20:18:32			0	36697	0	0	0	22135	20640	137062	27350	988802	40213	108137	0	0	8254	617397	0	0
2024-05-24 20:19:32			0	36738	0	0	0	22132	20650	136954	27102	988846	40226	108136	0	0	8256	615627	0	0
2024-05-24 20:20:32			0	36728	0	0	0	22124	20650	136974	26804	988748	40226	108133	0	0	8256	616050	0	0
2024-05-24 20:21:32			0	36756	0	0	0	22119	20670	136910	27085	988861	40228	108131	0	0	8258	614798	0	0
2024-05-24 20:22:32			0	36740	0	0	0	22116	20670	136802	27627	988834	40217	108130	0	0	8257	615474	0	0
2024-05-24 20:23:32			0	36762	0	0	0	22111	20670	136782	27092	988888	40217	108128	0	0	8258	614545	0	0
2024-05-24 20:24:32			0	36777	0	0	0	22111	20680	136730	27365	988843	40217	108128	0	0	8259	613877	0	0
2024-05-24 20:25:32			0	36801	0	0	0	22106	20670	136650	27440	988861	40250	108126	0	0	8260	612899	0	0
2024-05-24 20:26:32			0	36863	0	0	0	22075	20670	136422	27067	988781	40217	108114	0	0	8264	610288	0	0
2024-05-24 20:27:32			0	36867	0	0	0	22036	20670	136314	27452	988781	40228	108099	0	0	8265	610120	0	0
2024-05-24 20:28:32			0	36887	0	0	0	22020	20670	136262	27263	988675	40228	108093	0	0	8266	609279	0	0
2024-05-24 20:29:32			0	36899	0	0	0	22007	20670	136162	27189	988675	40217	108088	0	0	8267	608776	0	0
2024-05-24 20:30:32			0	36902	0	0	0	21979	20670	136166	27171	988667	40228	108077	0	0	8268	608650	0	0
2024-05-24 20:31:32			0	36900	0	0	0	21976	20660	136198	27199	988658	40216	108076	0	0	8268	608767	0	0
2024-05-24 20:32:32			0	36910	0	0	0	21986	20660	136062	27159	988597	40216	108080	0	0	8268	608348	0	0
2024-05-24 20:33:32			0	36897	0	0	0	21997	20640	136150	27329	988572	40204	108084	0	0	8267	608961	0	0
2024-05-24 20:34:32			0	36892	0	0	0	22010	20660	136274	27353	988703	40205	108089	0	0	8267	609103	0	0
2024-05-24 20:35:32			0	36880	0	0	0	22012	20650	136322	27616	988615	40215	108090	0	0	8266	609641	0	0
2024-05-24 20:36:32			0	36867	0	0	0	22015	20650	136274	27447	988553	40237	108091	0	0	8265	610187	0	0
2024-05-24 20:37:32			0	36860	0	0	0	22007	20640	136294	27277	988537	40213	108088	0	0	8265	610515	0	0
2024-05-24 20:38:32			0	36856	0	0	0	22007	20650	136342	27180	988607	40226	108088	0	0	8265	610650	0	0
2024-05-24 20:39:32			0	36862	0	0	0	22018	20640	136370	27038	988563	40213	108092	0	0	8265	610431	0	0
2024-05-24 20:40:32			0	36864	0	0	0	22002	20630	136418	27017	988520	40212	108086	0	0	8265	610381	0	0
2024-05-24 20:41:32			0	36864	0	0	0	21989	20630	136590	27215	988555	40224	108081	0	0	8265	610381	0	0
2024-05-24 20:42:32			0	36853	0	0	0	21989	20640	136458	27138	988590	40224	108081	0	0	8265	610810	0	0
2024-05-24 20:43:32			0	36826	0	0	0	21997	20640	136466	27450	988616	40224	108084	0	0	8263	611947	0	0
2024-05-24 20:44:32			0	36837	0	0	0	21999	20640	136510	27516	988537	40213	108085	0	0	8264	611483	0	0
2024-05-24 20:45:32			0	36831	0	0	0	21984	20640	136546	27242	988563	40213	108079	0	0	8264	611736	0	0
2024-05-24 20:46:32			0	36811	0	0	0	21981	20640	136530	27227	988616	40224	108078	0	0	8263	612579	0	0
2024-05-24 20:47:32			0	36809	0	0	0	21971	20640	136626	26993	988643	40224	108074	0	0	8263	612663	0	0
2024-05-24 20:48:32			0	36786	0	0	0	21986	20640	136554	27358	988563	40235	108080	0	0	8261	613633	0	0
2024-05-24 20:49:32			0	36804	0	0	0	22005	20640	136618	27474	988625	40225	108087	0	0	8262	612874	0	0
2024-05-24 20:50:32			0	36790	0	0	0	22018	20640	136686	27111	988598	40225	108092	0	0	8261	613464	0	0
2024-05-24 20:51:32			0	36779	0	0	0	22018	20640	136594	27287	988670	40224	108092	0	0	8260	613929	0	0
2024-05-24 20:52:32			0	36779	0	0	0	22038	20650	136666	27386	988713	40237	108100	0	0	8260	613895	0	0
2024-05-24 20:53:32			0	36792	0	0	0	22049	20650	136690	27261	988721	40237	108104	0	0	8261	613346	0	0
2024-05-24 20:54:32			0	36773	0	0	0	22067	20650	136770	27095	988774	40226	108111	0	0	8259	614148	0	0
2024-05-24 20:55:32			0	36796	0	0	0	22085	20670	136786	27447	988800	40217	108118	0	0	8260	613109	0	0
2024-05-24 20:56:32			0	36777	0	0	0	22101	20680	136758	27211	988896	40240	108124	0	0	8259	613877	0	0
2024-05-24 20:57:32			0	36791	0	0	0	22103	20690	136734	26991	988913	40241	108125	0	0	8260	613252	0	0
2024-05-24 20:58:32			0	36802	0	0	0	22101	20680	136658	27583	988931	40229	108124	0	0	8260	612823	0	0
2024-05-24 20:59:32			0	36818	0	0	0	22101	20690	136678	27320	988992	40218	108124	0	0	8261	612114	0	0
2024-05-24 21:00:32			0	36816	0	0	0	22109	20690	136658	27398	989054	40230	108127	0	0	8261	612199	0	0
2024-05-24 21:01:32			0	36826	0	0	0	22129	20690	136450	27559	989001	40230	108135	0	0	8261	611777	0	0
2024-05-24 21:02:32			0	36838	0	0	0	22137	20710	136502	27386	989008	40243	108138	0	0	8262	611204	0	0
2024-05-24 21:03:32			0	36862	0	0	0	22135	20710	136270	27355	989008	40243	108137	0	0	8263	610195	0	0
2024-05-24 21:04:32			0	36893	0	0	0	22140	20720	136234	27390	989070	40254	108139	0	0	8265	608859	0	0
2024-05-24 21:05:32			0	36950	0	0	0	22148	20710	136054	27466	989035	40231	108142	0	0	8268	606503	0	0
2024-05-24 21:06:32			0	36979	0	0	0	22153	20720	135918	27319	989070	40243	108144	0	0	8269	605256	0	0
2024-05-24 21:07:32			0	37039	0	0	0	22145	20730	135714	27234	989121	40245	108141	0	0	8272	602718	0	0
2024-05-24 21:08:32			0	37115	0	0	0	22140	20730	135498	27123	989060	40244	108139	0	0	8276	599555	0	0
2024-05-24 21:09:32			0	37154	0	0	0	22135	20720	135346	27194	989051	40233	108137	0	0	8279	597970	0	0
2024-05-24 21:10:32			0	37213	0	0	0	22129	20730	135090	27322	989086	40233	108135	0	0	8282	595493	0	0
2024-05-24 21:11:32			0	37252	0	0	0	22114	20720	134922	27417	989016	40232	108129	0	0	8284	593915	0	0
2024-05-24 21:12:32			0	37293	0	0	0	22103	20720	134742	26949	989043	40221	108125	0	0	8286	592224	0	0
2024-05-24 21:13:32			0	37348	0	0	0	22085	20720	134659	27138	988963	40243	108118	0	0	8290	589960	0	0
2024-05-24 21:14:32			0	37383	0	0	0	22077	20720	134415	27308	988945	40233	108115	0	0	8292	588522	0	0
2024-05-24 21:15:32			0	37433	0	0	0	22064	20700	134307	27277	988832	40231	108110	0	0	8294	586538	0	0
2024-05-24 21:16:32			0	37454	0	0	0	22067	20700	134263	27281	988885	40220	108111	0	0	8295	585678	0	0
2024-05-24 21:17:32			0	37484	0	0	0	22064	20700	134103	27488	988744	40230	108110	0	0	8297	584452	0	0
2024-05-24 21:18:32			0	37542	0	0	0	22057	20700	133955	27421	988744	40208	108107	0	0	8300	582086	0	0
2024-05-24 21:19:32			0	37568	0	0	0	22031	20680	133927	27372	988683	40229	108097	0	0	8302	581091	0	0
2024-05-24 21:20:32			0	37583	0	0	0	21976	20680	133819	27324	988604	40229	108076	0	0	8304	580481	0	0
2024-05-24 21:21:32			0	37602	0	0	0	21922	20660	133699	27237	988464	40216	108055	0	0	8305	579772	0	0
2024-05-24 21:22:32			0	37608	0	0	0	21849	20650	133711	27312	988402	40193	108027	0	0	8307	579561	0	0
2024-05-24 21:23:32			0	37594	0	0	0	21799	20630	133671	27492	988281	40202	108008	0	0	8307	580194	0	0
2024-05-24 21:24:32			0	37584	0	0	0	21755	20600	133771	27298	988133	40178	107991	0	0	8307	580697	0	0
2024-05-24 21:25:32			0	37554	0	0	0	21714	20580	133851	27334	987958	40175	107975	0	0	8306	581983	0	0
2024-05-24 21:26:32			0	37533	0	0	0	21667	20560	133879	27457	987791	40173	107957	0	0	8306	582904	0	0
2024-05-24 21:27:32			0	37522	0	0	0	21625	20520	134071	27019	987608	40160	107941	0	0	8306	583482	0	0
2024-05-24 21:28:32			0	37480	0	0	0	21584	20480	134091	27495	987435	40166	107925	0	0	8304	585327	0	0
2024-05-24 21:29:32			0	37473	0	0	0	21545	20450	134091	27227	987217	40153	107910	0	0	8304	585711	0	0
2024-05-24 21:30:32			0	37441	0	0	0	21524	20420	134223	27402	987140	40150	107902	0	0	8303	587119	0	0
2024-05-24 21:31:32			0	37429	0	0	0	21488	20390	134275	27348	987063	40159	107888	0	0	8303	587708	0	0
2024-05-24 21:32:32			0	37419	0	0	0	21475	20360	134435	27334	986915	40167	107883	0	0	8302	588216	0	0
2024-05-24 21:33:32			0	37401	0	0	0	21480	20330	134503	26989	986971	40142	107885	0	0	8301	589053	0	0
2024-05-24 21:34:32			0	37378	0	0	0	21503	20330	134647	27149	987024	40175	107894	0	0	8299	589999	0	0
2024-05-24 21:35:32			0	37357	0	0	0	21535	20320	134787	27092	987007	40164	107906	0	0	8298	590896	0	0
2024-05-24 21:36:32			0	37331	0	0	0	21584	20330	134811	27575	987157	40186	107925	0	0	8296	591934	0	0
2024-05-24 21:37:32			0	37325	0	0	0	21615	20330	134887	27239	987183	40175	107937	0	0	8295	592181	0	0
2024-05-24 21:38:32			0	37300	0	0	0	21602	20330	134966	27346	987157	40142	107932	0	0	8294	593213	0	0
2024-05-24 21:39:32			0	37296	0	0	0	21586	20330	135002	27466	987210	40175	107926	0	0	8294	593378	0	0
2024-05-24 21:40:32			0	37282	0	0	0	21618	20320	135042	27052	987246	40175	107938	0	0	8292	593989	0	0
2024-05-24 21:41:32			0	37276	0	0	0	21594	20330	135118	27048	987157	40175	107929	0	0	8292	594204	0	0
2024-05-24 21:42:32			0	37237	0	0	0	21568	20320	135130	27274	987113	40175	107919	0	0	8291	595850	0	0
2024-05-24 21:43:32			0	37228	0	0	0	21602	20320	135214	27379	987246	40175	107932	0	0	8290	596223	0	0
2024-05-24 21:44:32			0	37211	0	0	0	21737	20320	135226	27352	987352	40175	107984	0	0	8287	596928	0	0
2024-05-24 21:45:32			0	37165	0	0	0	21896	20350	135370	27345	987642	40199	108045	0	0	8282	598737	0	0
2024-05-24 21:46:32			0	37140	0	0	0	21973	20380	135606	27313	987816	40202	108075	0	0	8279	599677	0	0
2024-05-24 21:47:32			0	37121	0	0	0	22028	20410	135754	27229	987999	40215	108096	0	0	8277	600368	0	0
2024-05-24 21:48:32			0	37127	0	0	0	22049	20430	135734	27663	988042	40217	108104	0	0	8277	600052	0	0
2024-05-24 21:49:32			0	37119	0	0	0	22067	20460	135842	27462	988198	40208	108111	0	0	8277	600285	0	0
2024-05-24 21:50:32			0	37104	0	0	0	22064	20480	135810	27320	988285	40200	108110	0	0	8276	600843	0	0
2024-05-24 21:51:32			0	37075	0	0	0	22070	20500	135822	27322	988337	40234	108112	0	0	8275	601984	0	0
2024-05-24 21:52:32			0	37071	0	0	0	22062	20520	135894	27251	988405	40215	108109	0	0	8275	602084	0	0
2024-05-24 21:53:32			0	37089	0	0	0	22062	20530	135818	27357	988414	40215	108109	0	0	8276	601301	0	0
2024-05-24 21:54:32			0	37077	0	0	0	22051	20550	135758	27130	988367	40228	108105	0	0	8275	601734	0	0
2024-05-24 21:55:32			0	37088	0	0	0	22064	20560	135822	27440	988517	40218	108110	0	0	8276	601243	0	0
2024-05-24 21:56:32			0	37083	0	0	0	22075	20560	135750	27358	988437	40229	108114	0	0	8275	601451	0	0
2024-05-24 21:57:32			0	37110	0	0	0	22070	20580	135610	27531	988524	40220	108112	0	0	8277	600261	0	0
2024-05-24 21:58:32			0	37075	0	0	0	22067	20580	135634	27208	988604	40231	108111	0	0	8275	601718	0	0
2024-05-24 21:59:32			0	37131	0	0	0	22070	20610	135582	27343	988619	40233	108112	0	0	8278	599289	0	0
2024-05-24 22:00:32			0	37126	0	0	0	22114	20600	135546	27261	988664	40233	108129	0	0	8277	599529	0	0
2024-05-24 22:01:32			0	37107	0	0	0	22148	20620	135614	27391	988716	40234	108142	0	0	8275	600253	0	0
2024-05-24 22:02:32			0	37096	0	0	0	22153	20630	135610	27331	988786	40246	108144	0	0	8275	600677	0	0
2024-05-24 22:03:32			0	37092	0	0	0	22153	20640	135602	27556	988890	40225	108144	0	0	8275	600810	0	0
2024-05-24 22:04:32			0	37109	0	0	0	22171	20640	135590	26970	988890	40225	108151	0	0	8275	600103	0	0
2024-05-24 22:05:32			0	37118	0	0	0	22223	20660	135538	27339	988977	40249	108171	0	0	8275	599663	0	0
2024-05-24 22:06:32			0	37129	0	0	0	22231	20670	135554	27281	988994	40260	108174	0	0	8275	599173	0	0
2024-05-24 22:07:32			0	37126	0	0	0	22244	20690	135510	27178	989160	40273	108179	0	0	8275	599231	0	0
2024-05-24 22:08:32			0	37165	0	0	0	22241	20710	135462	27324	989168	40275	108178	0	0	8277	597547	0	0
2024-05-24 22:09:32			0	37179	0	0	0	22231	20710	135250	27438	989159	40243	108174	0	0	8278	596966	0	0
2024-05-24 22:10:32			0	37203	0	0	0	22231	20730	135230	27258	989140	40255	108174	0	0	8280	595907	0	0
2024-05-24 22:11:32			0	37230	0	0	0	22220	20730	135086	27281	989166	40255	108170	0	0	8281	594790	0	0
2024-05-24 22:12:32			0	37246	0	0	0	22212	20740	135010	27410	989209	40255	108167	0	0	8282	594097	0	0
2024-05-24 22:13:32			0	37270	0	0	0	22205	20740	135002	27358	989209	40245	108164	0	0	8284	593106	0	0
2024-05-24 22:14:32			0	37279	0	0	0	22184	20750	134846	27338	989208	40236	108156	0	0	8284	592702	0	0
2024-05-24 22:15:32			0	37308	0	0	0	22161	20740	134818	27076	989165	40246	108147	0	0	8286	591540	0	0
2024-05-24 22:16:32			0	37306	0	0	0	22122	20730	134734	27107	989148	40245	108132	0	0	8287	591655	0	0
2024-05-24 22:17:32			0	37333	0	0	0	22072	20730	134639	27209	988980	40244	108113	0	0	8289	590544	0	0
2024-05-24 22:18:32			0	37350	0	0	0	22002	20730	134551	27171	988882	40223	108086	0	0	8291	589845	0	0
2024-05-24 22:19:32			0	37367	0	0	0	21916	20710	134499	27081	988760	40231	108053	0	0	8293	589212	0	0
2024-05-24 22:20:32			0	37414	0	0	0	21797	20690	134327	27069	988602	40218	108007	0	0	8298	587349	0	0
2024-05-24 22:21:32			0	37427	0	0	0	21711	20650	134199	27388	988314	40182	107974	0	0	8300	586946	0	0
2024-05-24 22:22:32			0	37468	0	0	0	21581	20620	134143	27282	987892	40179	107924	0	0	8304	585365	0	0
2024-05-24 22:23:32			0	37475	0	0	0	21506	20570	134027	27274	987702	40164	107895	0	0	8305	585240	0	0
2024-05-24 22:24:32			0	37522	0	0	0	21454	20520	133895	27255	987334	40160	107875	0	0	8309	583482	0	0
2024-05-24 22:25:32			0	37529	0	0	0	21407	20460	133955	27452	987110	40154	107857	0	0	8309	583389	0	0
2024-05-24 22:26:32			0	37551	0	0	0	21368	20410	133939	27090	986866	40139	107842	0	0	8311	582653	0	0
2024-05-24 22:27:32			0	37552	0	0	0	21350	20360	133851	27490	986703	40134	107835	0	0	8311	582773	0	0
2024-05-24 22:28:32			0	37552	0	0	0	21335	20320	133907	27397	986662	40142	107829	0	0	8311	582902	0	0
2024-05-24 22:29:32			0	37556	0	0	0	21311	20280	133939	27469	986489	40149	107820	0	0	8312	582867	0	0
2024-05-24 22:30:32			0	37544	0	0	0	21309	20240	133951	26972	986404	40134	107819	0	0	8311	583486	0	0
2024-05-24 22:31:32			0	37565	0	0	0	21301	20210	134075	27331	986318	40131	107816	0	0	8312	582725	0	0
2024-05-24 22:32:32			0	37547	0	0	0	21303	20190	133983	27448	986267	40141	107817	0	0	8311	583524	0	0
2024-05-24 22:33:32			0	37546	0	0	0	21288	20170	134167	27516	986145	40161	107811	0	0	8311	583630	0	0
2024-05-24 22:34:32			0	37523	0	0	0	21290	20140	134227	27289	986122	40136	107812	0	0	8310	584667	0	0
2024-05-24 22:35:32			0	37534	0	0	0	21285	20130	134275	27405	986113	40135	107810	0	0	8310	584249	0	0
2024-05-24 22:36:32			0	37496	0	0	0	21303	20110	134383	27234	986098	40155	107817	0	0	8308	585869	0	0
2024-05-24 22:37:32			0	37483	0	0	0	21306	20110	134427	27258	986125	40144	107818	0	0	8307	586401	0	0
2024-05-24 22:38:32			0	37441	0	0	0	21303	20100	134483	27246	986108	40143	107817	0	0	8305	588157	0	0
2024-05-24 22:39:32			0	37422	0	0	0	21309	20090	134651	27353	986020	40142	107819	0	0	8304	588970	0	0
2024-05-24 22:40:32			0	37369	0	0	0	21319	20080	134787	27372	985994	40142	107823	0	0	8301	591184	0	0
2024-05-24 22:41:32			0	37324	0	0	0	21306	20070	135039	27428	985951	40141	107818	0	0	8299	593073	0	0
2024-05-24 22:42:32			0	37244	0	0	0	21306	20060	135318	27222	985881	40128	107818	0	0	8295	596416	0	0
2024-05-24 22:43:32			0	37184	0	0	0	21298	20050	135554	27528	985918	40127	107815	0	0	8291	598940	0	0
2024-05-24 22:44:32			0	37110	0	0	0	21293	20040	135786	27391	985821	40126	107813	0	0	8288	602054	0	0
2024-05-24 22:45:32			0	37027	0	0	0	21280	20030	136082	27331	985752	40136	107808	0	0	8283	605556	0	0
2024-05-24 22:46:32			0	36930	0	0	0	21272	20020	136426	27369	985796	40125	107805	0	0	8278	609661	0	0
2024-05-24 22:47:32			0	36843	0	0	0	21264	20010	136854	27216	985753	40125	107802	0	0	8274	613362	0	0
2024-05-24 22:48:32			0	36763	0	0	0	21262	20000	137070	27211	985683	40124	107801	0	0	8270	616781	0	0
2024-05-24 22:49:32			0	36701	0	0	0	21238	19990	137370	27388	985640	40123	107792	0	0	8267	619448	0	0
2024-05-24 22:50:32			0	36618	0	0	0	21233	19970	137722	27516	985518	40131	107790	0	0	8262	623053	0	0
2024-05-24 22:51:32			0	36542	0	0	0	21220	19970	137945	27559	985518	40131	107785	0	0	8258	626303	0	0
2024-05-24 22:52:32			0	36478	0	0	0	21210	19960	138185	27604	985483	40130	107781	0	0	8255	629084	0	0
2024-05-24 22:53:32			0	36422	0	0	0	21207	19950	138413	27744	985449	40130	107780	0	0	8252	631529	0	0
2024-05-24 22:54:32			0	36358	0	0	0	21205	19940	138597	27204	985476	40118	107779	0	0	8249	634326	0	0
2024-05-24 22:55:32			0	36320	0	0	0	21189	19920	138793	27422	985345	40127	107773	0	0	8247	636041	0	0
2024-05-24 22:56:32			0	36270	0	0	0	21197	19910	138973	27466	985355	40116	107776	0	0	8244	638244	0	0
2024-05-24 22:57:32			0	36218	0	0	0	21181	19910	139249	27415	985294	40104	107770	0	0	8242	640504	0	0
2024-05-24 22:58:32			0	36168	0	0	0	21168	19890	139345	27490	985216	40115	107765	0	0	8239	642754	0	0
2024-05-24 22:59:32			0	36112	0	0	0	21155	19880	139401	27241	985111	40124	107760	0	0	8236	645236	0	0
2024-05-24 23:00:32			0	36109	0	0	0	21145	19870	139593	27537	985094	40112	107756	0	0	8236	645403	0	0
2024-05-24 23:01:32			0	36065	0	0	0	21129	19860	139741	27320	985112	40100	107750	0	0	8234	647367	0	0
2024-05-24 23:02:32			0	36056	0	0	0	21101	19840	139869	27642	984973	40098	107739	0	0	8234	647833	0	0
2024-05-24 23:03:32			0	36003	0	0	0	21085	19830	140053	27315	984894	40109	107733	0	0	8231	650197	0	0
2024-05-24 23:04:32			0	35995	0	0	0	21075	19830	140149	27478	984876	40097	107729	0	0	8231	650549	0	0
2024-05-24 23:05:32			0	35955	0	0	0	21067	19800	140209	27227	984800	40095	107726	0	0	8229	652419	0	0
2024-05-24 23:06:32			0	35946	0	0	0	21059	19790	140321	27074	984775	40093	107723	0	0	8229	652852	0	0
2024-05-24 23:07:32			0	35927	0	0	0	21054	19780	140409	27483	984758	40103	107721	0	0	8228	653727	0	0
2024-05-24 23:08:32			0	35904	0	0	0	21031	19760	140521	26989	984680	40102	107712	0	0	8227	654815	0	0
2024-05-24 23:09:32			0	35886	0	0	0	21038	19760	140609	27100	984706	40091	107715	0	0	8226	655611	0	0
2024-05-24 23:10:32			0	35875	0	0	0	21033	19750	140565	27182	984663	40089	107713	0	0	8225	656135	0	0
2024-05-24 23:11:32			0	35858	0	0	0	21031	19750	140669	27402	984628	40101	107712	0	0	8224	656888	0	0
2024-05-24 23:12:32			0	35826	0	0	0	21033	19740	140716	27396	984611	40111	107713	0	0	8222	658343	0	0
2024-05-24 23:13:32			0	35841	0	0	0	21031	19740	140772	27038	984558	40089	107712	0	0	8223	657678	0	0
2024-05-24 23:14:32			0	35805	0	0	0	21018	19720	140868	27466	984586	40109	107707	0	0	8221	659349	0	0
2024-05-24 23:15:32			0	35792	0	0	0	21020	19720	140936	27118	984551	40077	107708	0	0	8221	659927	0	0
2024-05-24 23:16:32			0	35778	0	0	0	21018	19710	140972	27462	984534	40085	107707	0	0	8220	660586	0	0
2024-05-24 23:17:32			0	35776	0	0	0	21015	19700	141088	27348	984473	40096	107706	0	0	8220	660711	0	0
2024-05-24 23:18:32			0	35744	0	0	0	21033	19700	141168	27457	984465	40107	107713	0	0	8218	662137	0	0
2024-05-24 23:19:32			0	35744	0	0	0	21046	19700	141284	27329	984553	40096	107718	0	0	8217	662137	0	0
2024-05-24 23:20:32			0	35734	0	0	0	21064	19710	141320	27358	984641	40096	107725	0	0	8217	662546	0	0
2024-05-24 23:21:32			0	35714	0	0	0	21080	19710	141260	27294	984641	40096	107731	0	0	8215	663439	0	0
2024-05-24 23:22:32			0	35701	0	0	0	21085	19710	141356	27495	984614	40107	107733	0	0	8215	664019	0	0
2024-05-24 23:23:32			0	35696	0	0	0	21090	19710	141388	27476	984641	40107	107735	0	0	8214	664243	0	0
2024-05-24 23:24:32			0	35686	0	0	0	21088	19710	141372	27333	984649	40097	107734	0	0	8214	664689	0	0
2024-05-24 23:25:32			0	35682	0	0	0	21080	19710	141456	27041	984649	40108	107731	0	0	8214	664868	0	0
2024-05-24 23:26:32			0	35682	0	0	0	21093	19720	141440	27133	984710	40120	107736	0	0	8213	664832	0	0
2024-05-24 23:27:32			0	35649	0	0	0	21093	19720	141472	27281	984710	40098	107736	0	0	8212	666308	0	0
2024-05-24 23:28:32			0	35649	0	0	0	21098	19730	141540	27393	984709	40099	107738	0	0	8212	666272	0	0
2024-05-24 23:29:32			0	35607	0	0	0	21088	19720	141740	27284	984657	40109	107734	0	0	8209	668191	0	0
2024-05-24 23:30:32			0	35608	0	0	0	21085	19710	141704	27358	984649	40108	107733	0	0	8209	668183	0	0
2024-05-24 23:31:32			0	35605	0	0	0	21072	19720	141648	27216	984613	40098	107728	0	0	8210	668281	0	0
2024-05-24 23:32:32			0	35597	0	0	0	21051	19730	141712	27187	984621	40109	107720	0	0	8210	668603	0	0
2024-05-24 23:33:32			0	35580	0	0	0	21036	19720	141820	27277	984604	40098	107714	0	0	8209	669403	0	0
2024-05-24 23:34:32			0	35568	0	0	0	21033	19710	141860	27504	984543	40097	107713	0	0	8208	669979	0	0
2024-05-24 23:35:32			0	35568	0	0	0	21031	19710	141820	27067	984543	40108	107712	0	0	8208	669979	0	0
2024-05-24 23:36:32			0	35553	0	0	0	21031	19710	141888	27625	984588	40107	107712	0	0	8207	670654	0	0
2024-05-24 23:37:32			0	35542	0	0	0	21025	19710	141852	27609	984534	40096	107710	0	0	8207	671149	0	0
2024-05-24 23:38:32			0	35522	0	0	0	21031	19690	141888	27490	984483	40095	107712	0	0	8206	672124	0	0
2024-05-24 23:39:32			0	35512	0	0	0	21036	19700	141904	27416	984571	40096	107714	0	0	8205	672538	0	0
2024-05-24 23:40:32			0	35515	0	0	0	21106	19700	141964	27398	984818	40107	107741	0	0	8204	672403	0	0
2024-05-24 23:41:32			0	35489	0	0	0	21184	19730	142084	27149	985027	40132	107771	0	0	8201	673464	0	0
2024-05-24 23:42:32			0	35500	0	0	0	21223	19760	142156	27211	985131	40135	107786	0	0	8201	672857	0	0
2024-05-24 23:43:32			0	35490	0	0	0	21205	19780	142260	27651	985050	40114	107779	0	0	8201	673233	0	0
2024-05-24 23:44:32			0	35458	0	0	0	21199	19800	142200	27388	985083	40105	107777	0	0	8200	674604	0	0
2024-05-24 23:45:32			0	35463	0	0	0	21197	19790	142188	26994	985013	40115	107776	0	0	8200	674415	0	0
2024-05-24 23:46:32			0	35457	0	0	0	21184	19810	142168	27038	985047	40118	107771	0	0	8200	674612	0	0
2024-05-24 23:47:32			0	35457	0	0	0	21179	19790	142272	27128	984960	40115	107769	0	0	8200	674686	0	0
2024-05-24 23:48:32			0	35458	0	0	0	21174	19790	142216	27263	984960	40115	107767	0	0	8200	674641	0	0
2024-05-24 23:49:32			0	35441	0	0	0	21148	19790	142236	27554	985022	40115	107757	0	0	8200	675410	0	0
2024-05-24 23:50:32			0	35466	0	0	0	21140	19790	142128	27308	984960	40104	107754	0	0	8201	674280	0	0
2024-05-24 23:51:32			0	35452	0	0	0	21122	19790	142176	27360	984907	40104	107747	0	0	8201	674912	0	0
2024-05-24 23:52:32			0	35429	0	0	0	21116	19770	142204	27517	984856	40102	107745	0	0	8199	676027	0	0
2024-05-24 23:53:32			0	35444	0	0	0	21106	19770	142208	27313	984794	40102	107741	0	0	8200	675348	0	0
2024-05-24 23:54:32			0	35448	0	0	0	21103	19760	142276	27386	984812	40102	107740	0	0	8201	675205	0	0
2024-05-24 23:55:32			0	35453	0	0	0	21096	19770	142252	27043	984847	40102	107737	0	0	8201	674942	0	0
2024-05-24 23:56:32			0	35443	0	0	0	21090	19760	142224	27516	984786	40102	107735	0	0	8201	675431	0	0
2024-05-24 23:57:32			0	35445	0	0	0	21090	19760	142160	27888	984786	40114	107735	0	0	8201	675340	0	0
2024-05-24 23:58:32			0	35434	0	0	0	21101	19760	142212	27414	984804	40102	107739	0	0	8200	675838	0	0
2024-05-24 23:59:32			0	35435	0	0	0	21103	19760	142268	27308	984751	40124	107740	0	0	8200	675793	0	0
2024-05-25 00:00:32			0	35437	0	0	0	21116	19750	142212	27256	984822	40112	107745	0	0	8200	675739	0	0
2024-05-25 00:01:32			0	35437	0	0	0	21127	19750	142256	27121	984849	40123	107749	0	0	8200	675739	0	0
2024-05-25 00:02:32			0	35440	0	0	0	21135	19760	142256	27324	984945	40114	107752	0	0	8200	675566	0	0
2024-05-25 00:03:32			0	35431	0	0	0	21142	19760	142344	27296	984892	40125	107755	0	0	8199	675974	0	0
2024-05-25 00:04:32			0	35435	0	0	0	21155	19780	142252	27301	985050	40136	107760	0	0	8199	675718	0	0
2024-05-25 00:05:32			0	35453	0	0	0	21168	19780	142292	27478	985031	40137	107765	0	0	8200	674904	0	0
2024-05-25 00:06:32			0	35439	0	0	0	21181	19810	142264	27222	985232	40139	107770	0	0	8199	675426	0	0
2024-05-25 00:07:32			0	35442	0	0	0	21212	19850	142288	27353	985467	40143	107782	0	0	8199	675141	0	0
2024-05-25 00:08:32			0	35439	0	0	0	21280	19870	142324	27164	985819	40157	107808	0	0	8198	675203	0	0
2024-05-25 00:09:32			0	35433	0	0	0	21340	19910	142344	26991	985939	40160	107831	0	0	8197	675325	0	0
2024-05-25 00:10:32			0	35466	0	0	0	21361	19950	142228	27421	986032	40153	107839	0	0	8198	673686	0	0
2024-05-25 00:11:32			0	35445	0	0	0	21379	20000	142240	27157	986179	40145	107846	0	0	8197	674448	0	0
2024-05-25 00:12:32			0	35450	0	0	0	21371	20010	142152	27178	986125	40147	107843	0	0	8197	674185	0	0
2024-05-25 00:13:32			0	35453	0	0	0	21340	20020	142124	27275	986035	40136	107831	0	0	8198	674012	0	0
2024-05-25 00:14:32			0	35456	0	0	0	21319	20010	142156	26883	985904	40124	107823	0	0	8199	673914	0	0
2024-05-25 00:15:32			0	35443	0	0	0	21283	20010	142116	27187	985798	40102	107809	0	0	8198	674501	0	0
2024-05-25 00:16:32			0	35472	0	0	0	21251	20000	142084	27157	985675	40112	107797	0	0	8201	673229	0	0
2024-05-25 00:17:32			0	35471	0	0	0	21218	19970	142060	27253	985580	40121	107784	0	0	8201	673386	0	0
2024-05-25 00:18:32			0	35469	0	0	0	21205	19960	142036	27429	985510	40130	107779	0	0	8201	673513	0	0
2024-05-25 00:19:32			0	35500	0	0	0	21187	19940	141980	27391	985485	40108	107772	0	0	8203	672190	0	0
2024-05-25 00:20:32			0	35493	0	0	0	21228	19940	141988	27429	985671	40119	107788	0	0	8202	672505	0	0
2024-05-25 00:21:32			0	35489	0	0	0	21280	19950	141952	27421	985865	40141	107808	0	0	8201	672648	0	0
2024-05-25 00:22:32			0	35487	0	0	0	21355	19990	142048	27628	986011	40155	107837	0	0	8200	672590	0	0
2024-05-25 00:23:32			0	35489	0	0	0	21366	20000	141960	27215	986028	40135	107841	0	0	8200	672463	0	0
2024-05-25 00:24:32			0	35494	0	0	0	21381	20010	141964	27255	986018	40125	107847	0	0	8200	672201	0	0
2024-05-25 00:25:32			0	35499	0	0	0	21368	20010	141988	27346	985939	40125	107842	0	0	8200	671975	0	0
2024-05-25 00:26:32			0	35521	0	0	0	21348	20010	141928	27521	985904	40124	107834	0	0	8202	670985	0	0
2024-05-25 00:27:32			0	35499	0	0	0	21332	20000	141920	27317	985861	40112	107828	0	0	8201	672012	0	0
2024-05-25 00:28:32			0	35496	0	0	0	21309	20000	141916	27407	985736	40124	107819	0	0	8201	672148	0	0
2024-05-25 00:29:32			0	35504	0	0	0	21275	19980	141796	27398	985641	40110	107806	0	0	8202	671861	0	0
2024-05-25 00:30:32			0	35521	0	0	0	21257	19970	141800	27289	985660	40098	107799	0	0	8203	671133	0	0
2024-05-25 00:31:32			0	35550	0	0	0	21241	19970	141824	27199	985660	40121	107793	0	0	8205	669829	0	0
2024-05-25 00:32:32			0	35528	0	0	0	21249	19970	141772	27272	985739	40121	107796	0	0	8204	670818	0	0
2024-05-25 00:33:32			0	35542	0	0	0	21319	19990	141772	27580	985897	40144	107823	0	0	8203	670115	0	0
2024-05-25 00:34:32			0	35535	0	0	0	21449	20010	141776	27211	986196	40157	107873	0	0	8201	670355	0	0
2024-05-25 00:35:32			0	35543	0	0	0	21545	20030	141780	27275	986415	40159	107910	0	0	8200	669922	0	0
2024-05-25 00:36:32			0	35543	0	0	0	21644	20070	141820	27298	986641	40185	107948	0	0	8198	669774	0	0
2024-05-25 00:37:32			0	35546	0	0	0	21735	20110	141928	27102	986903	40177	107983	0	0	8197	669492	0	0
2024-05-25 00:38:32			0	35551	0	0	0	21748	20150	141748	27100	986916	40180	107988	0	0	8197	669120	0	0
2024-05-25 00:39:32			0	35592	0	0	0	21732	20180	141588	27391	986958	40172	107982	0	0	8200	667170	0	0
2024-05-25 00:40:32			0	35623	0	0	0	21703	20190	141504	27474	986904	40163	107971	0	0	8202	665746	0	0
2024-05-25 00:41:32			0	35661	0	0	0	21662	20190	141296	27211	986789	40152	107955	0	0	8205	664048	0	0
2024-05-25 00:42:32			0	35746	0	0	0	21625	20190	140900	27545	986824	40152	107941	0	0	8210	660262	0	0
2024-05-25 00:43:32			0	35798	0	0	0	21584	20200	140540	27355	986726	40141	107925	0	0	8213	657917	0	0
2024-05-25 00:44:32			0	35886	0	0	0	21529	20180	140213	27086	986595	40163	107904	0	0	8219	654095	0	0
2024-05-25 00:45:32			0	35974	0	0	0	21483	20170	139785	27111	986490	40138	107886	0	0	8225	650254	0	0
2024-05-25 00:46:32			0	36073	0	0	0	21446	20170	139617	27220	986490	40149	107872	0	0	8230	645910	0	0
2024-05-25 00:47:32			0	36126	0	0	0	21457	20160	139365	27322	986535	40138	107876	0	0	8233	643630	0	0
2024-05-25 00:48:32			0	36191	0	0	0	21496	20160	139049	27177	986615	40149	107891	0	0	8236	640796	0	0
2024-05-25 00:49:32			0	36252	0	0	0	21498	20170	138901	27213	986596	40161	107892	0	0	8239	638110	0	0
2024-05-25 00:50:32			0	36321	0	0	0	21470	20160	138645	27237	986482	40149	107881	0	0	8243	635156	0	0
2024-05-25 00:51:32			0	36360	0	0	0	21436	20150	138605	27111	986386	40148	107868	0	0	8246	633506	0	0
2024-05-25 00:52:32			0	36393	0	0	0	21412	20130	138377	27521	986326	40135	107859	0	0	8248	632152	0	0
2024-05-25 00:53:32			0	36421	0	0	0	21428	20130	138257	27256	986423	40146	107865	0	0	8249	630945	0	0
2024-05-25 00:54:32			0	36465	0	0	0	21475	20130	138153	27355	986564	40167	107883	0	0	8251	629053	0	0
2024-05-25 00:55:32			0	36479	0	0	0	21454	20150	138017	27254	986492	40159	107875	0	0	8252	628382	0	0
2024-05-25 00:56:32			0	36512	0	0	0	21394	20150	138033	27308	986412	40148	107852	0	0	8255	626967	0	0
2024-05-25 00:57:32			0	36521	0	0	0	21371	20130	137925	27121	986344	40135	107843	0	0	8256	626650	0	0
2024-05-25 00:58:32			0	36511	0	0	0	21363	20120	137865	26923	986282	40135	107840	0	0	8255	627113	0	0
2024-05-25 00:59:32			0	36552	0	0	0	21319	20100	137877	27326	986134	40132	107823	0	0	8258	625426	0	0
2024-05-25 01:00:32			0	36571	0	0	0	21283	20090	137749	27400	986064	40131	107809	0	0	8259	624648	0	0
2024-05-25 01:01:32			0	36556	0	0	0	21257	20080	137697	27412	985968	40120	107799	0	0	8259	625324	0	0
2024-05-25 01:02:32			0	36578	0	0	0	21205	20050	137781	27383	985812	40117	107779	0	0	8261	624486	0	0
2024-05-25 01:03:32			0	36565	0	0	0	21184	20030	137729	27336	985733	40116	107771	0	0	8261	625111	0	0
2024-05-25 01:04:32			0	36576	0	0	0	21199	20020	137741	26927	985735	40103	107777	0	0	8261	624675	0	0
2024-05-25 01:05:32			0	36583	0	0	0	21212	20010	137717	26863	985665	40113	107782	0	0	8261	624410	0	0
2024-05-25 01:06:32			0	36553	0	0	0	21215	19990	137793	27355	985667	40111	107783	0	0	8259	625763	0	0
2024-05-25 01:07:32			0	36564	0	0	0	21218	19990	137753	27118	985640	40123	107784	0	0	8260	625292	0	0
2024-05-25 01:08:32			0	36570	0	0	0	21179	19970	137853	27213	985527	40121	107769	0	0	8261	625104	0	0
2024-05-25 01:09:32			0	36562	0	0	0	21168	19950	137749	27222	985502	40098	107765	0	0	8260	625516	0	0
2024-05-25 01:10:32			0	36568	0	0	0	21153	19940	137825	27183	985370	40107	107759	0	0	8261	625293	0	0
2024-05-25 01:11:32			0	36543	0	0	0	21140	19920	137889	27272	985284	40094	107754	0	0	8260	626433	0	0
2024-05-25 01:12:32			0	36563	0	0	0	21124	19910	137917	27258	985241	40093	107748	0	0	8261	625611	0	0
2024-05-25 01:13:32			0	36585	0	0	0	21119	19890	137905	27460	985181	40103	107746	0	0	8262	624738	0	0
2024-05-25 01:14:32			0	36555	0	0	0	21127	19880	137993	27338	985305	40102	107749	0	0	8260	626057	0	0
2024-05-25 01:15:32			0	36552	0	0	0	21161	19890	137953	27135	985375	40125	107762	0	0	8260	626151	0	0
2024-05-25 01:16:32			0	36567	0	0	0	21184	19900	137897	27447	985445	40125	107771	0	0	8260	625474	0	0
2024-05-25 01:17:32			0	36566	0	0	0	21197	19910	137889	26941	985426	40116	107776	0	0	8260	625482	0	0
2024-05-25 01:18:32			0	36543	0	0	0	21197	19910	137829	27263	985461	40127	107776	0	0	8259	626468	0	0
2024-05-25 01:19:32			0	36569	0	0	0	21210	19910	137905	27085	985567	40127	107781	0	0	8260	625354	0	0
2024-05-25 01:20:32			0	36568	0	0	0	21212	19930	137873	27260	985619	40117	107782	0	0	8260	625328	0	0
2024-05-25 01:21:32			0	36553	0	0	0	21194	19940	137821	27488	985697	40129	107775	0	0	8259	625935	0	0
2024-05-25 01:22:32			0	36569	0	0	0	21212	19940	137845	27170	985618	40119	107782	0	0	8260	625250	0	0
2024-05-25 01:23:32			0	36581	0	0	0	21187	19930	137821	27116	985495	40107	107772	0	0	8261	624771	0	0
2024-05-25 01:24:32			0	36571	0	0	0	21192	19930	137837	27045	985513	40095	107774	0	0	8260	625199	0	0
2024-05-25 01:25:32			0	36575	0	0	0	21199	19920	137881	27112	985558	40116	107777	0	0	8260	625063	0	0
2024-05-25 01:26:32			0	36568	0	0	0	21207	19930	137809	27369	985574	40118	107780	0	0	8260	625328	0	0
2024-05-25 01:27:32			0	36581	0	0	0	21223	19940	137857	27255	985777	40129	107786	0	0	8260	624737	0	0
2024-05-25 01:28:32			0	36576	0	0	0	21389	19950	137777	27362	985979	40141	107850	0	0	8257	624916	0	0
2024-05-25 01:29:32			0	36545	0	0	0	21527	20000	137901	27308	986267	40167	107903	0	0	8254	626071	0	0
2024-05-25 01:30:32			0	36555	0	0	0	21584	20030	138021	27176	986450	40160	107925	0	0	8253	625539	0	0
2024-05-25 01:31:32			0	36528	0	0	0	21623	20070	138033	27322	986676	40163	107940	0	0	8251	626558	0	0
2024-05-25 01:32:32			0	36534	0	0	0	21662	20100	138061	27086	986692	40166	107955	0	0	8251	626197	0	0
2024-05-25 01:33:32			0	36516	0	0	0	21625	20130	137969	27059	986715	40190	107941	0	0	8251	626865	0	0
2024-05-25 01:34:32			0	36530	0	0	0	21555	20150	137877	27178	986775	40169	107914	0	0	8253	626196	0	0
2024-05-25 01:35:32			0	36542	0	0	0	21537	20170	137777	27367	986809	40149	107907	0	0	8254	625613	0	0
2024-05-25 01:36:32			0	36562	0	0	0	21550	20170	137701	27422	986862	40161	107912	0	0	8255	624757	0	0
2024-05-25 01:37:32			0	36554	0	0	0	21532	20180	137625	27270	986861	40163	107905	0	0	8255	625065	0	0
2024-05-25 01:38:32			0	36560	0	0	0	21584	20200	137685	27242	986965	40163	107925	0	0	8254	624739	0	0
2024-05-25 01:39:32			0	36565	0	0	0	21696	20220	137641	27218	987158	40187	107968	0	0	8253	624456	0	0
2024-05-25 01:40:32			0	36548	0	0	0	21763	20240	137725	27234	987245	40188	107994	0	0	8251	625114	0	0
2024-05-25 01:41:32			0	36538	0	0	0	21805	20260	137745	27298	987331	40202	108010	0	0	8250	625473	0	0
2024-05-25 01:42:32			0	36571	0	0	0	21841	20280	137649	27274	987436	40193	108024	0	0	8251	623993	0	0
2024-05-25 01:43:32			0	36634	0	0	0	21849	20310	137462	27369	987513	40195	108027	0	0	8254	621203	0	0
2024-05-25 01:44:32			0	36702	0	0	0	21825	20320	137162	27521	987538	40197	108018	0	0	8258	618278	0	0
2024-05-25 01:45:32			0	36764	0	0	0	21776	20330	136966	27388	987475	40186	107999	0	0	8262	615616	0	0
2024-05-25 01:46:32			0	36851	0	0	0	21714	20330	136606	27381	987475	40186	107975	0	0	8268	611942	0	0
2024-05-25 01:47:32			0	36898	0	0	0	21646	20330	136478	27185	987414	40186	107949	0	0	8272	609963	0	0
2024-05-25 01:48:32			0	36947	0	0	0	21607	20330	136278	27369	987342	40197	107934	0	0	8275	607905	0	0
2024-05-25 01:49:32			0	36963	0	0	0	21607	20320	136058	27189	987352	40175	107934	0	0	8276	607267	0	0
2024-05-25 01:50:32			0	36987	0	0	0	21641	20320	135926	27079	987370	40185	107947	0	0	8276	606261	0	0
2024-05-25 01:51:32			0	37023	0	0	0	21703	20350	135854	26948	987474	40188	107971	0	0	8277	604655	0	0
2024-05-25 01:52:32			0	37044	0	0	0	21763	20350	135882	27057	987501	40199	107994	0	0	8277	603777	0	0
2024-05-25 01:53:32			0	37035	0	0	0	21794	20340	135722	26993	987537	40198	108006	0	0	8276	604186	0	0
2024-05-25 01:54:32			0	37064	0	0	0	21820	20350	135778	27338	987562	40188	108016	0	0	8278	602942	0	0
2024-05-25 01:55:32			0	37067	0	0	0	21820	20360	135842	27364	987570	40189	108016	0	0	8278	602784	0	0
2024-05-25 01:56:32			0	37056	0	0	0	21815	20370	135786	27067	987622	40201	108014	0	0	8277	603209	0	0
2024-05-25 01:57:32			0	37054	0	0	0	21818	20380	135882	27467	987604	40190	108015	0	0	8277	603259	0	0
2024-05-25 01:58:32			0	37030	0	0	0	21812	20380	135966	27232	987657	40190	108013	0	0	8276	604262	0	0
2024-05-25 01:59:32			0	37026	0	0	0	21815	20380	135998	27156	987692	40202	108014	0	0	8276	604429	0	0
2024-05-25 02:00:32			0	36995	0	0	0	21807	20390	136074	27107	987647	40203	108011	0	0	8274	605692	0	0
2024-05-25 02:01:32			0	36974	0	0	0	21812	20390	136090	27019	987656	40181	108013	0	0	8273	606571	0	0
2024-05-25 02:02:32			0	36953	0	0	0	21818	20380	136142	27229	987639	40213	108015	0	0	8272	607485	0	0
2024-05-25 02:03:32			0	36921	0	0	0	21807	20380	136298	27614	987639	40202	108011	0	0	8270	608828	0	0
2024-05-25 02:04:32			0	36878	0	0	0	21807	20390	136462	27319	987700	40203	108011	0	0	8268	610602	0	0
2024-05-25 02:05:32			0	36831	0	0	0	21812	20390	136674	27138	987603	40192	108013	0	0	8266	612582	0	0
2024-05-25 02:06:32			0	36775	0	0	0	21818	20390	136862	26960	987682	40192	108015	0	0	8263	614947	0	0
2024-05-25 02:07:32			0	36707	0	0	0	21815	20400	137038	27256	987664	40203	108014	0	0	8259	617793	0	0
2024-05-25 02:08:32			0	36669	0	0	0	21807	20400	137250	27029	987637	40203	108011	0	0	8257	619406	0	0
2024-05-25 02:09:32			0	36620	0	0	0	21794	20390	137402	27348	987594	40203	108006	0	0	8255	621525	0	0
2024-05-25 02:10:32			0	36593	0	0	0	21776	20390	137517	27253	987576	40192	107999	0	0	8254	622676	0	0
2024-05-25 02:11:32			0	36557	0	0	0	21779	20390	137505	27381	987603	40214	108000	0	0	8252	624212	0	0
2024-05-25 02:12:32			0	36526	0	0	0	21779	20400	137649	27383	987664	40214	108000	0	0	8250	625503	0	0
2024-05-25 02:13:32			0	36505	0	0	0	21784	20390	137717	27156	987576	40203	108002	0	0	8249	626436	0	0
2024-05-25 02:14:32			0	36512	0	0	0	21792	20390	137761	26994	987629	40203	108005	0	0	8249	626136	0	0
2024-05-25 02:15:32			0	36457	0	0	0	21789	20400	137805	27131	987691	40203	108004	0	0	8246	628459	0	0
2024-05-25 02:16:32			0	36469	0	0	0	21807	20390	137909	27277	987629	40214	108011	0	0	8246	627979	0	0
2024-05-25 02:17:32			0	36450	0	0	0	21807	20400	137937	27341	987593	40214	108011	0	0	8246	628760	0	0
2024-05-25 02:18:32			0	36472	0	0	0	21815	20390	137969	27403	987656	40214	108014	0	0	8247	627850	0	0
2024-05-25 02:19:32			0	36465	0	0	0	21815	20400	137973	27157	987691	40214	108014	0	0	8246	628116	0	0
2024-05-25 02:20:32			0	36476	0	0	0	21797	20400	137949	27573	987672	40214	108007	0	0	8247	627644	0	0
2024-05-25 02:21:32			0	36503	0	0	0	21789	20390	137873	27251	987603	40203	108004	0	0	8249	626522	0	0
2024-05-25 02:22:32			0	36479	0	0	0	21792	20380	137981	27072	987586	40213	108005	0	0	8247	627585	0	0
2024-05-25 02:23:32			0	36480	0	0	0	21784	20390	137921	27500	987576	40214	108002	0	0	8247	627507	0	0
2024-05-25 02:24:32			0	36487	0	0	0	21792	20390	137913	27474	987621	40214	108005	0	0	8248	627207	0	0
2024-05-25 02:25:32			0	36484	0	0	0	21792	20390	137877	27696	987576	40214	108005	0	0	8248	627336	0	0
2024-05-25 02:26:32			0	36488	0	0	0	21781	20390	137901	27500	987629	40203	108001	0	0	8248	627164	0	0
2024-05-25 02:27:32			0	36504	0	0	0	21781	20390	137941	27594	987594	40203	108001	0	0	8249	626479	0	0
2024-05-25 02:28:32			0	36498	0	0	0	21768	20380	137925	27433	987533	40191	107996	0	0	8249	626770	0	0
2024-05-25 02:29:32			0	36522	0	0	0	21768	20380	137889	27493	987480	40202	107996	0	0	8250	625743	0	0
2024-05-25 02:30:32			0	36515	0	0	0	21755	20380	137889	27244	987551	40202	107991	0	0	8250	626043	0	0
2024-05-25 02:31:32			0	36511	0	0	0	21758	20370	137825	27367	987455	40201	107992	0	0	8249	626248	0	0
2024-05-25 02:32:32			0	36522	0	0	0	21742	20370	137713	27540	987481	40201	107986	0	0	8250	625778	0	0
2024-05-25 02:33:32			0	36511	0	0	0	21740	20370	137793	27524	987455	40201	107985	0	0	8250	626248	0	0
2024-05-25 02:34:32			0	36526	0	0	0	21729	20360	137805	27090	987411	40200	107981	0	0	8251	625641	0	0
2024-05-25 02:35:32			0	36544	0	0	0	21711	20360	137713	27163	987446	40201	107974	0	0	8252	624871	0	0
2024-05-25 02:36:32			0	36551	0	0	0	21732	20350	137633	27315	987368	40209	107982	0	0	8252	624606	0	0
2024-05-25 02:37:32			0	36542	0	0	0	21724	20350	137741	27086	987429	40209	107979	0	0	8252	624991	0	0
2024-05-25 02:38:32			0	36536	0	0	0	21732	20330	137661	27556	987369	40208	107982	0	0	8251	625317	0	0
2024-05-25 02:39:32			0	36539	0	0	0	21737	20350	137741	27022	987368	40188	107984	0	0	8251	625119	0	0
2024-05-25 02:40:32			0	36528	0	0	0	21735	20340	137689	27398	987413	40199	107983	0	0	8251	625625	0	0
2024-05-25 02:41:32			0	36537	0	0	0	21727	20340	137601	27459	987333	40199	107980	0	0	8251	625240	0	0
2024-05-25 02:42:32			0	36554	0	0	0	21727	20340	137629	27502	987306	40209	107980	0	0	8252	624513	0	0
2024-05-25 02:43:32			0	36540	0	0	0	21716	20330	137625	27182	987342	40197	107976	0	0	8252	625146	0	0
2024-05-25 02:44:32			0	36594	0	0	0	21716	20320	137569	27588	987299	40186	107976	0	0	8254	622874	0	0
2024-05-25 02:45:32			0	36592	0	0	0	21709	20320	137629	27161	987299	40208	107973	0	0	8254	622959	0	0
2024-05-25 02:46:32			0	36583	0	0	0	21706	20320	137485	27393	987246	40208	107972	0	0	8254	623343	0	0
2024-05-25 02:47:32			0	36591	0	0	0	21698	20320	137513	27405	987291	40218	107969	0	0	8255	623002	0	0
2024-05-25 02:48:32			0	36613	0	0	0	21703	20310	137494	27701	987274	40195	107971	0	0	8256	622098	0	0
2024-05-25 02:49:32			0	36602	0	0	0	21696	20310	137518	27490	987150	40184	107968	0	0	8255	622567	0	0
2024-05-25 02:50:32			0	36623	0	0	0	21690	20310	137466	27286	987229	40195	107966	0	0	8256	621672	0	0
2024-05-25 02:51:32			0	36618	0	0	0	21696	20300	137362	27305	987204	40195	107968	0	0	8256	621919	0	0
2024-05-25 02:52:32			0	36661	0	0	0	21690	20300	137398	27142	987125	40216	107966	0	0	8258	620088	0	0
2024-05-25 02:53:32			0	36648	0	0	0	21685	20300	137338	27118	987133	40206	107964	0	0	8258	620642	0	0
2024-05-25 02:54:32			0	36648	0	0	0	21675	20300	137306	27369	987160	40195	107960	0	0	8258	620642	0	0
2024-05-25 02:55:32			0	36660	0	0	0	21677	20290	137338	26958	987134	40193	107961	0	0	8258	620165	0	0
2024-05-25 02:56:32			0	36667	0	0	0	21675	20290	137382	27429	987090	40171	107960	0	0	8259	619868	0	0
2024-05-25 02:57:32			0	36676	0	0	0	21677	20290	137282	27072	987187	40181	107961	0	0	8259	619485	0	0
2024-05-25 02:58:32			0	36667	0	0	0	21677	20280	137218	27036	987179	40204	107961	0	0	8259	619902	0	0
2024-05-25 02:59:32			0	36695	0	0	0	21677	20290	137218	27218	987222	40182	107961	0	0	8260	618678	0	0
2024-05-25 03:00:32			0	36705	0	0	0	21672	20290	137150	26998	987134	40204	107959	0	0	8261	618253	0	0
2024-05-25 03:01:32			0	36685	0	0	0	21675	20290	137190	27274	987249	40215	107960	0	0	8260	619102	0	0
2024-05-25 03:02:32			0	36713	0	0	0	21672	20280	137182	27284	987126	40204	107959	0	0	8261	617948	0	0
2024-05-25 03:03:32			0	36724	0	0	0	21667	20290	137154	27530	987241	40204	107957	0	0	8262	617447	0	0
2024-05-25 03:04:32			0	36752	0	0	0	21662	20290	137110	27140	987187	40204	107955	0	0	8264	616260	0	0
2024-05-25 03:05:32			0	36739	0	0	0	21657	20290	137030	27027	987196	40194	107953	0	0	8263	616811	0	0
2024-05-25 03:06:32			0	36737	0	0	0	21641	20280	136998	27149	987073	40193	107947	0	0	8263	616930	0	0
2024-05-25 03:07:32			0	36740	0	0	0	21631	20280	136986	27490	987038	40193	107943	0	0	8263	616803	0	0
2024-05-25 03:08:32			0	36752	0	0	0	21618	20270	136938	27300	986977	40181	107938	0	0	8264	616328	0	0
2024-05-25 03:09:32			0	36744	0	0	0	21584	20240	136822	27332	986882	40167	107925	0	0	8264	616770	0	0
2024-05-25 03:10:32			0	36758	0	0	0	21571	20230	136822	27369	986865	40177	107920	0	0	8265	616210	0	0
2024-05-25 03:11:32			0	36800	0	0	0	21563	20220	136834	27100	986768	40166	107917	0	0	8267	614467	0	0
2024-05-25 03:12:32			0	36805	0	0	0	21548	20220	136782	27222	986707	40154	107911	0	0	8268	614256	0	0
2024-05-25 03:13:32			0	36792	0	0	0	21532	20200	136766	27277	986708	40174	107905	0	0	8267	614873	0	0
2024-05-25 03:14:32			0	36825	0	0	0	21529	20190	136762	27301	986603	40174	107904	0	0	8269	613512	0	0
2024-05-25 03:15:32			0	36803	0	0	0	21522	20190	136778	26960	986638	40163	107901	0	0	8268	614442	0	0
2024-05-25 03:16:32			0	36817	0	0	0	21514	20180	136702	27613	986613	40162	107898	0	0	8269	613884	0	0
2024-05-25 03:17:32			0	36825	0	0	0	21501	20170	136698	27412	986605	40183	107893	0	0	8270	613580	0	0
2024-05-25 03:18:32			0	36838	0	0	0	21493	20160	136778	27597	986535	40171	107890	0	0	8270	613065	0	0
2024-05-25 03:19:32			0	36844	0	0	0	21493	20160	136658	27322	986500	40181	107890	0	0	8271	612812	0	0
2024-05-25 03:20:32			0	36853	0	0	0	21485	20150	136710	27190	986518	40180	107887	0	0	8271	612466	0	0
2024-05-25 03:21:32			0	36861	0	0	0	21480	20140	136686	27194	986520	40168	107885	0	0	8272	612162	0	0
2024-05-25 03:22:32			0	36855	0	0	0	21485	20140	136730	27424	986573	40168	107887	0	0	8271	612415	0	0
2024-05-25 03:23:32			0	36851	0	0	0	21480	20130	136662	27576	986511	40179	107885	0	0	8271	612618	0	0
2024-05-25 03:24:32			0	36864	0	0	0	21490	20140	136582	27376	986520	40168	107889	0	0	8272	612036	0	0
2024-05-25 03:25:32			0	36878	0	0	0	21506	20150	136626	27398	986598	40192	107895	0	0	8272	611412	0	0
2024-05-25 03:26:32			0	36891	0	0	0	21540	20160	136570	27147	986659	40193	107908	0	0	8272	610831	0	0
2024-05-25 03:27:32			0	36866	0	0	0	21561	20160	136490	27140	986694	40182	107916	0	0	8271	611884	0	0
2024-05-25 03:28:32			0	36879	0	0	0	21579	20160	136562	27076	986721	40182	107923	0	0	8271	611336	0	0
2024-05-25 03:29:32			0	36872	0	0	0	21584	20170	136594	27301	986729	40171	107925	0	0	8271	611597	0	0
2024-05-25 03:30:32			0	36866	0	0	0	21592	20170	136606	27175	986738	40194	107928	0	0	8270	611850	0	0
2024-05-25 03:31:32			0	36856	0	0	0	21573	20170	136598	27039	986685	40183	107921	0	0	8270	612272	0	0
2024-05-25 03:32:32			0	36857	0	0	0	21573	20180	136566	27230	986719	40205	107921	0	0	8270	612196	0	0
2024-05-25 03:33:32			0	36869	0	0	0	21573	20180	136610	27144	986746	40183	107921	0	0	8271	611690	0	0
2024-05-25 03:34:32			0	36852	0	0	0	21579	20170	136606	26932	986711	40183	107923	0	0	8270	612441	0	0
2024-05-25 03:35:32			0	36863	0	0	0	21586	20170	136626	27012	986729	40182	107926	0	0	8270	611977	0	0
2024-05-25 03:36:32			0	36852	0	0	0	21581	20170	136654	27196	986711	40205	107924	0	0	8270	612441	0	0
2024-05-25 03:37:32			0	36864	0	0	0	21589	20180	136670	27362	986693	40194	107927	0	0	8270	611901	0	0
2024-05-25 03:38:32			0	36856	0	0	0	21579	20170	136594	27081	986729	40182	107923	0	0	8270	612272	0	0
2024-05-25 03:39:32			0	36828	0	0	0	21589	20180	136702	27317	986701	40195	107927	0	0	8268	613420	0	0
2024-05-25 03:40:32			0	36836	0	0	0	21581	20180	136698	27036	986754	40195	107924	0	0	8269	613082	0	0
2024-05-25 03:41:32			0	36819	0	0	0	21584	20180	136814	26991	986693	40194	107925	0	0	8268	613800	0	0
2024-05-25 03:42:32			0	36817	0	0	0	21589	20170	136750	26831	986738	40183	107927	0	0	8268	613918	0	0
2024-05-25 03:43:32			0	36814	0	0	0	21589	20180	136754	27083	986719	40194	107927	0	0	8268	614011	0	0
2024-05-25 03:44:32			0	36798	0	0	0	21584	20180	136818	27194	986746	40183	107925	0	0	8267	614687	0	0
2024-05-25 03:45:32			0	36808	0	0	0	21586	20170	136846	26942	986738	40183	107926	0	0	8267	614299	0	0
2024-05-25 03:46:32			0	36788	0	0	0	21584	20180	136882	27154	986746	40205	107925	0	0	8266	615111	0	0
2024-05-25 03:47:32			0	36783	0	0	0	21581	20180	136806	27199	986746	40172	107924	0	0	8266	615322	0	0
2024-05-25 03:48:32			0	36774	0	0	0	21581	20170	136946	27272	986685	40194	107924	0	0	8266	615737	0	0
2024-05-25 03:49:32			0	36773	0	0	0	21589	20180	136926	27232	986754	40184	107927	0	0	8265	615745	0	0
2024-05-25 03:50:32			0	36775	0	0	0	21584	20180	136846	27327	986728	40184	107925	0	0	8266	615660	0	0
2024-05-25 03:51:32			0	36802	0	0	0	21581	20180	136838	27410	986719	40194	107924	0	0	8267	614518	0	0
2024-05-25 03:52:32			0	36802	0	0	0	21579	20190	136802	27095	986763	40207	107923	0	0	8267	614484	0	0
2024-05-25 03:53:32			0	36818	0	0	0	21584	20190	136770	27239	986736	40185	107925	0	0	8268	613808	0	0
2024-05-25 03:54:32			0	36843	0	0	0	21581	20180	136606	27260	986719	40205	107924	0	0	8269	612787	0	0
2024-05-25 03:55:32			0	36873	0	0	0	21566	20180	136582	27079	986640	40183	107918	0	0	8271	611521	0	0
2024-05-25 03:56:32			0	36890	0	0	0	21540	20170	136502	27313	986570	40171	107908	0	0	8272	610839	0	0
2024-05-25 03:57:32			0	36933	0	0	0	21522	20150	136354	27490	986518	40159	107901	0	0	8275	609097	0	0
2024-05-25 03:58:32			0	36943	0	0	0	21501	20160	136310	27164	986527	40170	107893	0	0	8276	608644	0	0
2024-05-25 03:59:32			0	36969	0	0	0	21488	20140	136238	27031	986493	40179	107888	0	0	8277	607619	0	0
2024-05-25 04:00:32			0	36993	0	0	0	21483	20130	136226	27426	986397	40167	107886	0	0	8279	606646	0	0
2024-05-25 04:01:32			0	36994	0	0	0	21459	20110	136146	27189	986372	40166	107877	0	0	8279	606671	0	0
2024-05-25 04:02:32			0	36999	0	0	0	21451	20110	136098	27052	986284	40177	107874	0	0	8279	606462	0	0
2024-05-25 04:03:32			0	37007	0	0	0	21433	20100	136162	27358	986294	40176	107867	0	0	8280	606160	0	0
2024-05-25 04:04:32			0	37011	0	0	0	21431	20090	136106	27251	986232	40165	107866	0	0	8280	606026	0	0
2024-05-25 04:05:32			0	37026	0	0	0	21415	20080	136042	27346	986233	40174	107860	0	0	8281	605431	0	0
2024-05-25 04:06:32			0	37010	0	0	0	21415	20070	136070	27260	986137	40173	107860	0	0	8280	606135	0	0
2024-05-25 04:07:32			0	37029	0	0	0	21405	20070	136026	27024	986163	40163	107856	0	0	8282	605339	0	0
2024-05-25 04:08:32			0	37023	0	0	0	21407	20060	136042	27085	986102	40162	107857	0	0	8281	605623	0	0
2024-05-25 04:09:32			0	37020	0	0	0	21410	20060	136010	27031	986147	40172	107858	0	0	8281	605749	0	0
2024-05-25 04:10:32			0	37036	0	0	0	21420	20050	135990	27312	986157	40182	107862	0	0	8282	605112	0	0
2024-05-25 04:11:32			0	37032	0	0	0	21444	20070	136038	27067	986243	40173	107871	0	0	8281	605213	0	0
2024-05-25 04:12:32			0	37035	0	0	0	21464	20070	136070	27235	986323	40173	107879	0	0	8281	605088	0	0
2024-05-25 04:13:32			0	37016	0	0	0	21488	20080	136002	27121	986286	40185	107888	0	0	8280	605850	0	0
2024-05-25 04:14:32			0	37035	0	0	0	21501	20080	136114	27384	986393	40185	107893	0	0	8280	605054	0	0
2024-05-25 04:15:32			0	37030	0	0	0	21519	20080	136014	27396	986366	40185	107900	0	0	8280	605264	0	0
2024-05-25 04:16:32			0	37009	0	0	0	21532	20090	136126	27156	986436	40175	107905	0	0	8278	606109	0	0
2024-05-25 04:17:32			0	37022	0	0	0	21558	20090	136106	27183	986436	40186	107915	0	0	8279	605565	0	0
2024-05-25 04:18:32			0	37007	0	0	0	21576	20090	136130	26665	986418	40198	107922	0	0	8278	606193	0	0
2024-05-25 04:19:32			0	37025	0	0	0	21579	20090	136138	26948	986418	40198	107923	0	0	8279	605439	0	0
2024-05-25 04:20:32			0	37015	0	0	0	21571	20100	136222	27012	986514	40187	107920	0	0	8278	605825	0	0
2024-05-25 04:21:32			0	37025	0	0	0	21563	20090	136166	27329	986471	40186	107917	0	0	8279	605439	0	0
2024-05-25 04:22:32			0	36991	0	0	0	21566	20100	136170	26913	986479	40198	107918	0	0	8277	606830	0	0
2024-05-25 04:23:32			0	37017	0	0	0	21566	20100	136230	27043	986461	40198	107918	0	0	8278	605741	0	0
2024-05-25 04:24:32			0	37019	0	0	0	21563	20110	136238	26887	986558	40221	107917	0	0	8279	605624	0	0
2024-05-25 04:25:32			0	37011	0	0	0	21561	20110	136154	26991	986531	40188	107916	0	0	8278	605959	0	0
2024-05-25 04:26:32			0	37013	0	0	0	21568	20120	136322	27416	986548	40201	107919	0	0	8278	605842	0	0
2024-05-25 04:27:32			0	37012	0	0	0	21563	20110	136162	27287	986478	40199	107917	0	0	8278	605917	0	0
2024-05-25 04:28:32			0	37008	0	0	0	21561	20120	136158	27090	986539	40189	107916	0	0	8278	606051	0	0
2024-05-25 04:29:32			0	36992	0	0	0	21550	20120	136250	26979	986521	40179	107912	0	0	8277	606721	0	0
2024-05-25 04:30:32			0	36995	0	0	0	21555	20120	136194	27265	986574	40190	107914	0	0	8277	606596	0	0
2024-05-25 04:31:32			0	36969	0	0	0	21561	20120	136322	27391	986513	40200	107916	0	0	8276	607686	0	0
2024-05-25 04:32:32			0	36970	0	0	0	21558	20130	136242	27346	986591	40179	107915	0	0	8276	607611	0	0
2024-05-25 04:33:32			0	36985	0	0	0	21550	20120	136282	27197	986521	40190	107912	0	0	8277	607015	0	0
2024-05-25 04:34:32			0	36961	0	0	0	21548	20130	136278	27300	986564	40179	107911	0	0	8276	607989	0	0
2024-05-25 04:35:32			0	36963	0	0	0	21545	20120	136322	27131	986495	40179	107910	0	0	8276	607938	0	0
2024-05-25 04:36:32			0	36971	0	0	0	21553	20130	136326	27131	986556	40201	107913	0	0	8276	607569	0	0
2024-05-25 04:37:32			0	36979	0	0	0	21550	20120	136310	27627	986548	40179	107912	0	0	8277	607267	0	0
2024-05-25 04:38:32			0	36955	0	0	0	21555	20130	136394	27370	986644	40190	107914	0	0	8275	608240	0	0
2024-05-25 04:39:32			0	36962	0	0	0	21553	20130	136306	27142	986636	40190	107913	0	0	8276	607946	0	0
2024-05-25 04:40:32			0	36958	0	0	0	21558	20140	136378	27334	986520	40179	107915	0	0	8276	608081	0	0
2024-05-25 04:41:32			0	36942	0	0	0	21561	20140	136390	27144	986626	40179	107916	0	0	8275	608753	0	0
2024-05-25 04:42:32			0	36947	0	0	0	21553	20140	136390	27312	986573	40191	107913	0	0	8275	608543	0	0
2024-05-25 04:43:32			0	36930	0	0	0	21545	20130	136346	27331	986538	40190	107910	0	0	8274	609291	0	0
2024-05-25 04:44:32			0	36944	0	0	0	21548	20130	136442	27003	986503	40179	107911	0	0	8275	608702	0	0
2024-05-25 04:45:32			0	36950	0	0	0	21532	20130	136442	27130	986538	40190	107905	0	0	8276	608450	0	0
2024-05-25 04:46:32			0	36929	0	0	0	21529	20140	136374	27196	986493	40191	107904	0	0	8275	609299	0	0
2024-05-25 04:47:32			0	36937	0	0	0	21509	20130	136326	27303	986476	40190	107896	0	0	8275	608996	0	0
2024-05-25 04:48:32			0	36948	0	0	0	21503	20120	136302	27008	986442	40179	107894	0	0	8276	608568	0	0
2024-05-25 04:49:32			0	36953	0	0	0	21475	20120	136266	27043	986407	40189	107883	0	0	8277	608358	0	0
2024-05-25 04:50:32			0	36939	0	0	0	21464	20110	136322	26859	986319	40177	107879	0	0	8276	608980	0	0
2024-05-25 04:51:32			0	36967	0	0	0	21457	20090	136246	27296	986285	40142	107876	0	0	8278	607871	0	0
2024-05-25 04:52:32			0	36947	0	0	0	21449	20100	136298	27289	986267	40166	107873	0	0	8277	608677	0	0
2024-05-25 04:53:32			0	36972	0	0	0	21431	20080	136306	27149	986154	40174	107866	0	0	8278	607694	0	0
2024-05-25 04:54:32			0	36971	0	0	0	21415	20080	136270	26979	986207	40174	107860	0	0	8278	607736	0	0
2024-05-25 04:55:32			0	36972	0	0	0	21412	20070	136206	26887	986190	40163	107859	0	0	8278	607728	0	0
2024-05-25 04:56:32			0	36991	0	0	0	21410	20070	136270	27003	986163	40163	107858	0	0	8279	606931	0	0
2024-05-25 04:57:32			0	36973	0	0	0	21410	20060	136150	27147	986208	40172	107858	0	0	8279	607720	0	0
2024-05-25 04:58:32			0	36963	0	0	0	21410	20070	136306	27263	986163	40173	107858	0	0	8278	608106	0	0
2024-05-25 04:59:32			0	36954	0	0	0	21412	20050	136258	26857	986138	40183	107859	0	0	8277	608551	0	0
2024-05-25 05:00:32			0	36974	0	0	0	21415	20050	136234	27282	986112	40150	107860	0	0	8278	607711	0	0
2024-05-25 05:01:32			0	36970	0	0	0	21418	20050	136234	27564	986138	40172	107861	0	0	8278	607879	0	0
2024-05-25 05:02:32			0	36986	0	0	0	21410	20040	136210	27163	986122	40149	107858	0	0	8279	607241	0	0
2024-05-25 05:03:32			0	36987	0	0	0	21412	20030	136234	27118	986105	40160	107859	0	0	8279	607233	0	0
2024-05-25 05:04:32			0	37017	0	0	0	21412	20040	136230	27135	986007	40160	107859	0	0	8281	605941	0	0
2024-05-25 05:05:32			0	37012	0	0	0	21410	20040	136210	27286	986113	40160	107858	0	0	8280	606151	0	0
2024-05-25 05:06:32			0	36988	0	0	0	21402	20040	136086	27206	986087	40181	107855	0	0	8279	607157	0	0
2024-05-25 05:07:32			0	37026	0	0	0	21412	20020	136210	27123	986035	40180	107859	0	0	8281	605631	0	0
2024-05-25 05:08:32			0	37013	0	0	0	21405	20020	136178	27152	986062	40180	107856	0	0	8281	606176	0	0
2024-05-25 05:09:32			0	37016	0	0	0	21407	20030	136182	27301	986070	40148	107857	0	0	8281	606017	0	0
2024-05-25 05:10:32			0	37016	0	0	0	21407	20020	136158	27249	986115	40169	107857	0	0	8281	606050	0	0
2024-05-25 05:11:32			0	37016	0	0	0	21407	20030	136162	27473	986044	40180	107857	0	0	8281	606017	0	0
2024-05-25 05:12:32			0	37010	0	0	0	21410	20020	136162	27003	986106	40179	107858	0	0	8280	606302	0	0
2024-05-25 05:13:32			0	37023	0	0	0	21405	20030	136210	27235	986044	40169	107856	0	0	8281	605724	0	0
2024-05-25 05:14:32			0	37007	0	0	0	21402	20020	136258	27369	986000	40168	107855	0	0	8280	606427	0	0
2024-05-25 05:15:32			0	37043	0	0	0	21397	20020	136190	27142	986035	40148	107853	0	0	8282	604920	0	0
2024-05-25 05:16:32			0	37005	0	0	0	21402	20010	136178	27237	985992	40168	107855	0	0	8280	606545	0	0
2024-05-25 05:17:32			0	37011	0	0	0	21402	20010	136194	27329	985912	40168	107855	0	0	8280	606293	0	0
2024-05-25 05:18:32			0	37006	0	0	0	21394	20010	136226	27509	985957	40167	107852	0	0	8280	606503	0	0
2024-05-25 05:19:32			0	36999	0	0	0	21389	20000	136238	27353	985940	40178	107850	0	0	8280	606830	0	0
2024-05-25 05:20:32			0	37006	0	0	0	21392	20000	136206	27360	985940	40166	107851	0	0	8280	606536	0	0
2024-05-25 05:21:32			0	37014	0	0	0	21394	20010	136234	27234	985984	40178	107852	0	0	8281	606167	0	0
2024-05-25 05:22:32			0	37001	0	0	0	21402	20010	136162	27386	985930	40178	107855	0	0	8280	606712	0	0
2024-05-25 05:23:32			0	37002	0	0	0	21397	20000	136274	27201	985967	40178	107853	0	0	8280	606704	0	0
2024-05-25 05:24:32			0	36994	0	0	0	21399	20000	136282	27230	985967	40166	107854	0	0	8280	607039	0	0
2024-05-25 05:25:32			0	37009	0	0	0	21405	19990	136226	27388	985985	40166	107856	0	0	8280	606444	0	0
2024-05-25 05:26:32			0	37011	0	0	0	21407	20000	136214	26965	986055	40190	107857	0	0	8280	606326	0	0
2024-05-25 05:27:32			0	37033	0	0	0	21415	20000	136214	27209	986002	40178	107860	0	0	8281	605405	0	0
2024-05-25 05:28:32			0	37025	0	0	0	21425	20010	136002	27222	986037	40178	107864	0	0	8281	605706	0	0
2024-05-25 05:29:32			0	37054	0	0	0	21423	20010	135998	27358	986090	40178	107863	0	0	8282	604493	0	0
2024-05-25 05:30:32			0	37046	0	0	0	21431	20020	135962	27258	986106	40191	107866	0	0	8282	604794	0	0
2024-05-25 05:31:32			0	37079	0	0	0	21425	20010	135894	27374	986090	40178	107864	0	0	8284	603448	0	0
2024-05-25 05:32:32			0	37085	0	0	0	21438	20020	135906	26889	986080	40168	107869	0	0	8284	603164	0	0
2024-05-25 05:33:32			0	37115	0	0	0	21428	20020	135786	26944	986080	40191	107865	0	0	8286	601912	0	0
2024-05-25 05:34:32			0	37159	0	0	0	21428	20020	135698	27329	986106	40179	107865	0	0	8288	600078	0	0
2024-05-25 05:35:32			0	37133	0	0	0	21425	20020	135686	27119	986080	40191	107864	0	0	8287	601161	0	0
2024-05-25 05:36:32			0	37164	0	0	0	21436	20020	135622	27272	986115	40191	107868	0	0	8288	599870	0	0
2024-05-25 05:37:32			0	37181	0	0	0	21441	20030	135522	27152	986150	40180	107870	0	0	8289	599130	0	0
2024-05-25 05:38:32			0	37173	0	0	0	21446	20030	135514	27317	986150	40169	107872	0	0	8288	599463	0	0
2024-05-25 05:39:32			0	37195	0	0	0	21446	20030	135454	27107	986176	40191	107872	0	0	8289	598548	0	0
2024-05-25 05:40:32			0	37218	0	0	0	21449	20030	135422	27154	986176	40180	107873	0	0	8291	597593	0	0
2024-05-25 05:41:32			0	37220	0	0	0	21451	20030	135350	27010	986176	40180	107874	0	0	8291	597510	0	0
2024-05-25 05:42:32			0	37238	0	0	0	21444	20040	135406	27178	986113	40181	107871	0	0	8292	596731	0	0
2024-05-25 05:43:32			0	37238	0	0	0	21418	20030	135282	27362	986131	40181	107861	0	0	8292	596763	0	0
2024-05-25 05:44:32			0	37240	0	0	0	21415	20030	135286	27346	986123	40180	107860	0	0	8292	596680	0	0
2024-05-25 05:45:32			0	37257	0	0	0	21418	20030	135222	27317	986097	40191	107861	0	0	8293	595976	0	0
2024-05-25 05:46:32			0	37267	0	0	0	21423	20020	135206	27092	986062	40191	107863	0	0	8294	595595	0	0
2024-05-25 05:47:32			0	37280	0	0	0	21423	20020	135202	27203	986080	40179	107863	0	0	8294	595056	0	0
2024-05-25 05:48:32			0	37289	0	0	0	21418	20010	135110	27060	986045	40168	107861	0	0	8295	594716	0	0
2024-05-25 05:49:32			0	37272	0	0	0	21392	20020	135102	27104	986027	40179	107851	0	0	8294	595387	0	0
2024-05-25 05:50:32			0	37309	0	0	0	21366	20010	135090	27460	985904	40167	107841	0	0	8297	593890	0	0
2024-05-25 05:51:32			0	37317	0	0	0	21353	19990	135027	27274	985932	40166	107836	0	0	8297	593624	0	0
2024-05-25 05:52:32			0	37314	0	0	0	21355	20000	135082	27481	985914	40166	107837	0	0	8297	593716	0	0
2024-05-25 05:53:32			0	37326	0	0	0	21348	19990	135063	27206	985950	40166	107834	0	0	8298	593252	0	0
2024-05-25 05:54:32			0	37324	0	0	0	21350	19990	134947	27287	985924	40166	107835	0	0	8298	593335	0	0
2024-05-25 05:55:32			0	37324	0	0	0	21358	19990	135031	27472	985870	40166	107838	0	0	8298	593335	0	0
2024-05-25 05:56:32			0	37331	0	0	0	21361	19990	134947	27114	985897	40144	107839	0	0	8298	593046	0	0
2024-05-25 05:57:32			0	37389	0	0	0	21358	20000	134863	27284	985914	40166	107838	0	0	8301	590621	0	0
2024-05-25 05:58:32			0	37394	0	0	0	21355	19980	134811	27050	985854	40176	107837	0	0	8301	590480	0	0
2024-05-25 05:59:32			0	37409	0	0	0	21353	19980	134623	27215	985880	40176	107836	0	0	8302	589863	0	0
2024-05-25 06:00:32			0	37475	0	0	0	21361	19980	134587	27171	985854	40166	107839	0	0	8305	587150	0	0
2024-05-25 06:01:32			0	37492	0	0	0	21358	19980	134527	27268	985854	40166	107838	0	0	8306	586453	0	0
2024-05-25 06:02:32			0	37518	0	0	0	21361	19980	134391	27757	985880	40166	107839	0	0	8308	585388	0	0
2024-05-25 06:03:32			0	37580	0	0	0	21361	19970	134179	27360	985872	40175	107839	0	0	8311	582884	0	0
2024-05-25 06:04:32			0	37630	0	0	0	21368	19970	134063	27414	985872	40165	107842	0	0	8313	580844	0	0
2024-05-25 06:05:32			0	37653	0	0	0	21353	19980	133895	27260	985827	40176	107836	0	0	8315	579876	0	0
2024-05-25 06:06:32			0	37702	0	0	0	21355	19970	133707	27152	985863	40165	107837	0	0	8317	577915	0	0
2024-05-25 06:07:32			0	37769	0	0	0	21358	19980	133571	27140	985880	40187	107838	0	0	8321	575167	0	0
2024-05-25 06:08:32			0	37790	0	0	0	21361	19970	133467	27287	985872	40186	107839	0	0	8322	574348	0	0
2024-05-25 06:09:32			0	37840	0	0	0	21363	19970	133203	27171	985890	40153	107840	0	0	8324	572328	0	0
2024-05-25 06:10:32			0	37877	0	0	0	21355	19970	133135	27441	985837	40165	107837	0	0	8327	570836	0	0
2024-05-25 06:11:32			0	37919	0	0	0	21361	19970	133059	27414	985863	40165	107839	0	0	8329	569145	0	0
2024-05-25 06:12:32			0	37949	0	0	0	21350	19970	132903	27163	985845	40175	107835	0	0	8330	567939	0	0
2024-05-25 06:13:32			0	37995	0	0	0	21348	19950	132711	27156	985740	40174	107834	0	0	8333	566156	0	0
2024-05-25 06:14:32			0	38024	0	0	0	21337	19950	132660	27216	985767	40164	107830	0	0	8334	564994	0	0
2024-05-25 06:15:32			0	38037	0	0	0	21335	19950	132612	27668	985785	40163	107829	0	0	8335	564474	0	0
2024-05-25 06:16:32			0	38077	0	0	0	21337	19940	132460	27159	985724	40173	107830	0	0	8337	562905	0	0
2024-05-25 06:17:32			0	38109	0	0	0	21329	19940	132448	27229	985671	40173	107827	0	0	8339	561628	0	0
2024-05-25 06:18:32			0	38115	0	0	0	21324	19940	132252	26932	985777	40163	107825	0	0	8339	561389	0	0
2024-05-25 06:19:32			0	38163	0	0	0	21316	19930	132268	27197	985672	40161	107822	0	0	8342	559508	0	0
2024-05-25 06:20:32			0	38192	0	0	0	21322	19940	132248	27128	985689	40162	107824	0	0	8343	558324	0	0
2024-05-25 06:21:32			0	38183	0	0	0	21319	19930	132040	27339	985654	40162	107823	0	0	8343	558712	0	0
2024-05-25 06:22:32			0	38199	0	0	0	21314	19930	132000	27206	985699	40161	107821	0	0	8344	558076	0	0
2024-05-25 06:23:32			0	38229	0	0	0	21309	19930	132024	27107	985627	40162	107819	0	0	8346	556885	0	0
2024-05-25 06:24:32			0	38262	0	0	0	21314	19930	132000	27246	985699	40171	107821	0	0	8347	555577	0	0
2024-05-25 06:25:32			0	38253	0	0	0	21311	19930	131936	27254	985646	40150	107820	0	0	8347	555933	0	0
2024-05-25 06:26:32			0	38276	0	0	0	21303	19920	131860	27203	985637	40160	107817	0	0	8348	555053	0	0
2024-05-25 06:27:32			0	38308	0	0	0	21296	19910	131760	27055	985639	40159	107814	0	0	8350	553817	0	0
2024-05-25 06:28:32			0	38313	0	0	0	21293	19920	131752	27010	985629	40160	107813	0	0	8350	553589	0	0
2024-05-25 06:29:32			0	38347	0	0	0	21296	19910	131700	26968	985567	40160	107814	0	0	8352	552276	0	0
2024-05-25 06:30:32			0	38365	0	0	0	21296	19910	131640	27249	985674	40171	107814	0	0	8353	551566	0	0
2024-05-25 06:31:32			0	38366	0	0	0	21303	19910	131556	27171	985612	40159	107817	0	0	8353	551526	0	0
2024-05-25 06:32:32			0	38393	0	0	0	21296	19900	131492	27296	985551	40159	107814	0	0	8354	550493	0	0
2024-05-25 06:33:32			0	38419	0	0	0	21301	19910	131472	27325	985612	40159	107816	0	0	8355	549439	0	0
2024-05-25 06:34:32			0	38427	0	0	0	21296	19900	131444	27220	985577	40169	107814	0	0	8356	549154	0	0
2024-05-25 06:35:32			0	38421	0	0	0	21290	19910	131380	27085	985586	40148	107812	0	0	8356	549360	0	0
2024-05-25 06:36:32			0	38457	0	0	0	21303	19900	131328	27275	985569	40159	107817	0	0	8357	547975	0	0
2024-05-25 06:37:32			0	38469	0	0	0	21298	19900	131272	27215	985551	40159	107815	0	0	8358	547503	0	0
2024-05-25 06:38:32			0	38472	0	0	0	21293	19900	131136	27229	985551	40147	107813	0	0	8358	547385	0	0
2024-05-25 06:39:32			0	38486	0	0	0	21285	19890	131216	26989	985499	40158	107810	0	0	8359	546866	0	0
2024-05-25 06:40:32			0	38499	0	0	0	21293	19890	131100	27441	985534	40159	107813	0	0	8360	546356	0	0
2024-05-25 06:41:32			0	38514	0	0	0	21280	19900	131124	27196	985569	40169	107808	0	0	8361	545738	0	0
2024-05-25 06:42:32			0	38542	0	0	0	21283	19890	131072	27289	985507	40159	107809	0	0	8362	544671	0	0
2024-05-25 06:43:32			0	38539	0	0	0	21283	19900	131108	27348	985569	40159	107809	0	0	8362	544759	0	0
2024-05-25 06:44:32			0	38535	0	0	0	21277	19890	131120	27031	985507	40159	107807	0	0	8362	544945	0	0
2024-05-25 06:45:32			0	38530	0	0	0	21267	19880	131028	27199	985491	40146	107803	0	0	8362	545171	0	0
2024-05-25 06:46:32			0	38528	0	0	0	21275	19880	130980	27398	985438	40178	107806	0	0	8361	545250	0	0
2024-05-25 06:47:32			0	38548	0	0	0	21275	19880	131036	27230	985517	40157	107806	0	0	8363	544467	0	0
2024-05-25 06:48:32			0	38541	0	0	0	21270	19880	131020	27303	985456	40146	107804	0	0	8362	544741	0	0
2024-05-25 06:49:32			0	38534	0	0	0	21270	19880	130992	27284	985464	40157	107804	0	0	8362	545015	0	0
2024-05-25 06:50:32			0	38552	0	0	0	21267	19880	130936	27386	985562	40157	107803	0	0	8363	544310	0	0
2024-05-25 06:51:32			0	38537	0	0	0	21267	19880	131032	27441	985482	40157	107803	0	0	8362	544897	0	0
2024-05-25 06:52:32			0	38524	0	0	0	21272	19880	131096	27490	985544	40167	107805	0	0	8361	545406	0	0
2024-05-25 06:53:32			0	38524	0	0	0	21277	19880	131044	27353	985509	40157	107807	0	0	8361	545406	0	0
2024-05-25 06:54:32			0	38522	0	0	0	21275	19870	131112	27479	985421	40167	107806	0	0	8361	545515	0	0
2024-05-25 06:55:32			0	38504	0	0	0	21275	19880	131052	27625	985491	40178	107806	0	0	8360	546190	0	0
2024-05-25 06:56:32			0	38506	0	0	0	21270	19880	131200	27689	985456	40157	107804	0	0	8360	546112	0	0
2024-05-25 06:57:32			0	38505	0	0	0	21270	19880	131184	27575	985517	40157	107804	0	0	8360	546151	0	0
2024-05-25 06:58:32			0	38507	0	0	0	21272	19880	131204	27582	985491	40178	107805	0	0	8360	546073	0	0
2024-05-25 06:59:32			0	38521	0	0	0	21275	19870	131180	27556	985447	40167	107806	0	0	8361	545554	0	0
2024-05-25 07:00:32			0	38499	0	0	0	21272	19880	131216	27493	985482	40157	107805	0	0	8360	546386	0	0
2024-05-25 07:01:32			0	38492	0	0	0	21272	19870	131216	27227	985474	40157	107805	0	0	8360	546691	0	0
2024-05-25 07:02:32			0	38473	0	0	0	21280	19870	131172	27398	985492	40166	107808	0	0	8358	547437	0	0
2024-05-25 07:03:32			0	38465	0	0	0	21290	19880	131284	27216	985535	40167	107812	0	0	8358	547721	0	0
2024-05-25 07:04:32			0	38475	0	0	0	21306	19880	131300	27433	985588	40157	107818	0	0	8358	547328	0	0
2024-05-25 07:05:32			0	38454	0	0	0	21309	19890	131296	27274	985605	40179	107819	0	0	8357	548123	0	0
2024-05-25 07:06:32			0	38459	0	0	0	21316	19890	131292	27426	985560	40169	107822	0	0	8357	547926	0	0
2024-05-25 07:07:32			0	38452	0	0	0	21319	19900	131208	27154	985595	40147	107823	0	0	8357	548171	0	0
2024-05-25 07:08:32			0	38471	0	0	0	21316	19890	131228	27173	985587	40169	107822	0	0	8358	547455	0	0
2024-05-25 07:09:32			0	38489	0	0	0	21316	19900	131204	27597	985657	40159	107822	0	0	8359	546718	0	0
2024-05-25 07:10:32			0	38503	0	0	0	21319	19890	131196	27355	985614	40159	107823	0	0	8359	546199	0	0
2024-05-25 07:11:32			0	38502	0	0	0	21311	19900	131128	27222	985595	40159	107820	0	0	8360	546208	0	0
2024-05-25 07:12:32			0	38538	0	0	0	21327	19910	131184	27320	985612	40170	107826	0	0	8361	544768	0	0
2024-05-25 07:13:32			0	38517	0	0	0	21319	19910	131128	27157	985674	40160	107823	0	0	8360	545590	0	0
2024-05-25 07:14:32			0	38511	0	0	0	21324	19910	131028	27260	985639	40159	107825	0	0	8360	545825	0	0
2024-05-25 07:15:32			0	38541	0	0	0	21319	19910	131064	27324	985647	40182	107823	0	0	8362	544651	0	0
2024-05-25 07:16:32			0	38539	0	0	0	21324	19910	131032	27170	985639	40159	107825	0	0	8361	544729	0	0
2024-05-25 07:17:32			0	38534	0	0	0	21319	19910	130992	27031	985620	40171	107823	0	0	8361	544925	0	0
2024-05-25 07:18:32			0	38532	0	0	0	21306	19900	130912	27232	985604	40159	107818	0	0	8361	545033	0	0
2024-05-25 07:19:32			0	38540	0	0	0	21298	19920	130956	27052	985637	40171	107815	0	0	8362	544660	0	0
2024-05-25 07:20:32			0	38562	0	0	0	21293	19910	130868	27062	985594	40149	107813	0	0	8363	543829	0	0
2024-05-25 07:21:32			0	38543	0	0	0	21290	19910	130960	27026	985612	40159	107812	0	0	8362	544572	0	0
2024-05-25 07:22:32			0	38576	0	0	0	21288	19910	130904	27225	985612	40159	107811	0	0	8364	543282	0	0
2024-05-25 07:23:32			0	38565	0	0	0	21280	19900	130916	27298	985542	40159	107808	0	0	8363	543742	0	0
2024-05-25 07:24:32			0	38556	0	0	0	21275	19890	130904	27322	985560	40169	107806	0	0	8363	544124	0	0
2024-05-25 07:25:32			0	38559	0	0	0	21283	19890	130916	27218	985534	40159	107809	0	0	8363	544006	0	0
2024-05-25 07:26:32			0	38556	0	0	0	21280	19880	130940	27459	985509	40157	107808	0	0	8363	544154	0	0
2024-05-25 07:27:32			0	38543	0	0	0	21280	19900	130928	27353	985542	40169	107808	0	0	8362	544602	0	0
2024-05-25 07:28:32			0	38549	0	0	0	21280	19890	130948	27293	985526	40158	107808	0	0	8363	544398	0	0
2024-05-25 07:29:32			0	38532	0	0	0	21283	19890	131036	27046	985473	40158	107809	0	0	8362	545063	0	0
2024-05-25 07:30:32			0	38537	0	0	0	21283	19890	131016	27455	985534	40159	107809	0	0	8362	544867	0	0
2024-05-25 07:31:32			0	38536	0	0	0	21285	19890	131028	27109	985552	40158	107810	0	0	8362	544906	0	0
2024-05-25 07:32:32			0	38519	0	0	0	21283	19890	131040	27228	985526	40158	107809	0	0	8361	545572	0	0
2024-05-25 07:33:32			0	38520	0	0	0	21277	19890	131160	27121	985560	40159	107807	0	0	8361	545533	0	0
2024-05-25 07:34:32			0	38484	0	0	0	21277	19890	131084	27639	985499	40158	107807	0	0	8359	546945	0	0
2024-05-25 07:35:32			0	38491	0	0	0	21280	19880	131140	27365	985509	40178	107808	0	0	8359	546700	0	0
2024-05-25 07:36:32			0	38490	0	0	0	21275	19890	131092	27322	985587	40136	107806	0	0	8360	546709	0	0
2024-05-25 07:37:32			0	38486	0	0	0	21280	19880	131196	27211	985517	40146	107808	0	0	8359	546896	0	0
2024-05-25 07:38:32			0	38492	0	0	0	21264	19890	131096	27627	985481	40159	107802	0	0	8360	546631	0	0
2024-05-25 07:39:32			0	38490	0	0	0	21251	19890	131116	27502	985499	40158	107797	0	0	8360	546709	0	0
2024-05-25 07:40:32			0	38495	0	0	0	21259	19880	131132	27395	985517	40146	107800	0	0	8360	546543	0	0
2024-05-25 07:41:32			0	38486	0	0	0	21259	19890	131120	27481	985499	40146	107800	0	0	8360	546866	0	0
2024-05-25 07:42:32			0	38483	0	0	0	21254	19890	131160	27253	985499	40168	107798	0	0	8360	546984	0	0
2024-05-25 07:43:32			0	38467	0	0	0	21270	19880	131144	27329	985544	40178	107804	0	0	8358	547642	0	0
2024-05-25 07:44:32			0	38492	0	0	0	21267	19880	131272	27478	985570	40157	107803	0	0	8360	546661	0	0
2024-05-25 07:45:32			0	38462	0	0	0	21277	19890	131132	27142	985534	40169	107807	0	0	8358	547808	0	0
2024-05-25 07:46:32			0	38464	0	0	0	21283	19900	131168	27329	985604	40159	107809	0	0	8358	547700	0	0
2024-05-25 07:47:32			0	38462	0	0	0	21296	19890	131184	27362	985587	40169	107814	0	0	8358	547808	0	0
2024-05-25 07:48:32			0	38475	0	0	0	21298	19900	131260	27092	985595	40180	107815	0	0	8358	547268	0	0
2024-05-25 07:49:32			0	38479	0	0	0	21306	19910	131232	27305	985718	40181	107818	0	0	8359	547081	0	0
2024-05-25 07:50:32			0	38480	0	0	0	21306	19920	131256	27521	985743	40160	107818	0	0	8359	547011	0	0
2024-05-25 07:51:32			0	38467	0	0	0	21309	19920	131244	27519	985770	40171	107819	0	0	8358	547521	0	0
2024-05-25 07:52:32			0	38486	0	0	0	21303	19920	131132	27270	985717	40182	107817	0	0	8359	546776	0	0
2024-05-25 07:53:32			0	38466	0	0	0	21296	19930	131212	27355	985725	40161	107814	0	0	8358	547531	0	0
2024-05-25 07:54:32			0	38486	0	0	0	21301	19930	131084	27119	985699	40171	107816	0	0	8359	546746	0	0
2024-05-25 07:55:32			0	38494	0	0	0	21296	19940	131120	27341	985768	40162	107814	0	0	8360	546402	0	0
2024-05-25 07:56:32			0	38511	0	0	0	21301	19920	131108	27369	985664	40171	107816	0	0	8360	545795	0	0
2024-05-25 07:57:32			0	38510	0	0	0	21314	19930	131068	27300	985672	40161	107821	0	0	8360	545805	0	0
2024-05-25 07:58:32			0	38503	0	0	0	21324	19930	131096	27301	985760	40172	107825	0	0	8360	546079	0	0
2024-05-25 07:59:32			0	38487	0	0	0	21332	19930	131112	27358	985805	40150	107828	0	0	8359	546706	0	0
2024-05-25 08:00:32			0	38495	0	0	0	21329	19930	131108	27386	985778	40161	107827	0	0	8359	546393	0	0
2024-05-25 08:01:32			0	38494	0	0	0	21337	19930	131208	27523	985752	40161	107830	0	0	8359	546432	0	0
2024-05-25 08:02:32			0	38490	0	0	0	21348	19930	131200	27339	985866	40162	107834	0	0	8358	546589	0	0
2024-05-25 08:03:32			0	38474	0	0	0	21363	19950	131260	27580	985865	40184	107840	0	0	8357	547156	0	0
2024-05-25 08:04:32			0	38467	0	0	0	21355	19950	131292	27469	985873	40164	107837	0	0	8357	547431	0	0
2024-05-25 08:05:32			0	38435	0	0	0	21363	19950	131304	26942	985865	40173	107840	0	0	8355	548688	0	0
2024-05-25 08:06:32			0	38419	0	0	0	21366	19950	131412	27355	985900	40164	107841	0	0	8355	549317	0	0
2024-05-25 08:07:32			0	38417	0	0	0	21368	19960	131380	27298	985881	40174	107842	0	0	8354	549366	0	0
2024-05-25 08:08:32			0	38390	0	0	0	21363	19960	131528	27414	985881	40164	107840	0	0	8353	550429	0	0
2024-05-25 08:09:32			0	38375	0	0	0	21366	19960	131560	27467	985855	40153	107841	0	0	8352	551020	0	0
2024-05-25 08:10:32			0	38326	0	0	0	21358	19950	131684	27573	985891	40163	107838	0	0	8350	552984	0	0
2024-05-25 08:11:32			0	38307	0	0	0	21368	19950	131816	27635	985820	40174	107842	0	0	8349	553735	0	0
2024-05-25 08:12:32			0	38268	0	0	0	21366	19980	131944	27333	985880	40176	107841	0	0	8347	555186	0	0
2024-05-25 08:13:32			0	38249	0	0	0	21358	19970	131980	27815	985863	40165	107838	0	0	8346	555969	0	0
2024-05-25 08:14:32			0	38225	0	0	0	21363	19970	132092	27367	985810	40165	107840	0	0	8345	556921	0	0
2024-05-25 08:15:32			0	38177	0	0	0	21353	19970	132272	27452	985872	40165	107836	0	0	8342	558828	0	0
2024-05-25 08:16:32			0	38156	0	0	0	21350	19960	132364	27441	985855	40164	107835	0	0	8341	559694	0	0
2024-05-25 08:17:32			0	38104	0	0	0	21345	19970	132500	27524	985819	40165	107833	0	0	8339	561735	0	0
2024-05-25 08:18:32			0	38065	0	0	0	21342	19950	132556	27377	985847	40153	107832	0	0	8336	563354	0	0
2024-05-25 08:19:32			0	38020	0	0	0	21335	19970	132759	27462	985837	40153	107829	0	0	8334	565092	0	0
2024-05-25 08:20:32			0	37978	0	0	0	21345	19960	132835	27474	985855	40164	107833	0	0	8332	566806	0	0
2024-05-25 08:21:32			0	37937	0	0	0	21342	19950	133007	27498	985847	40174	107832	0	0	8330	568484	0	0
2024-05-25 08:22:32			0	37900	0	0	0	21355	19970	133143	27426	985890	40165	107837	0	0	8328	569909	0	0
2024-05-25 08:23:32			0	37861	0	0	0	21355	19970	133239	27505	985898	40165	107837	0	0	8326	571481	0	0
2024-05-25 08:24:32			0	37827	0	0	0	21353	19970	133487	27402	985916	40165	107836	0	0	8324	572853	0	0
2024-05-25 08:25:32			0	37780	0	0	0	21353	19980	133595	27197	985960	40176	107836	0	0	8322	574721	0	0
2024-05-25 08:26:32			0	37746	0	0	0	21363	19970	133727	27246	985925	40165	107840	0	0	8320	576130	0	0
2024-05-25 08:27:32			0	37690	0	0	0	21363	19980	133923	27421	985907	40176	107840	0	0	8317	578371	0	0
2024-05-25 08:28:32			0	37659	0	0	0	21368	19970	133935	27348	985898	40153	107842	0	0	8315	579664	0	0
2024-05-25 08:29:32			0	37625	0	0	0	21376	19980	134119	27459	985933	40176	107845	0	0	8313	581016	0	0
2024-05-25 08:30:32			0	37631	0	0	0	21371	19980	134183	27580	985968	40155	107843	0	0	8313	580772	0	0
2024-05-25 08:31:32			0	37562	0	0	0	21355	19970	134299	27310	985925	40153	107837	0	0	8310	583620	0	0
2024-05-25 08:32:32			0	37538	0	0	0	21350	19980	134443	27467	985880	40176	107835	0	0	8309	584569	0	0
2024-05-25 08:33:32			0	37500	0	0	0	21337	19970	134535	27398	985837	40153	107830	0	0	8307	586157	0	0
2024-05-25 08:34:32			0	37468	0	0	0	21332	19960	134615	27542	985802	40153	107828	0	0	8305	587502	0	0
2024-05-25 08:35:32			0	37426	0	0	0	21311	19950	134747	27177	985820	40153	107820	0	0	8304	589261	0	0
2024-05-25 08:36:32			0	37409	0	0	0	21311	19940	134787	27268	985750	40141	107820	0	0	8303	589993	0	0
2024-05-25 08:37:32			0	37384	0	0	0	21306	19940	134927	27355	985697	40152	107818	0	0	8301	591022	0	0
2024-05-25 08:38:32			0	37342	0	0	0	21296	19940	135027	27059	985715	40162	107814	0	0	8299	592755	0	0
2024-05-25 08:39:32			0	37311	0	0	0	21303	19940	135230	27481	985715	40162	107817	0	0	8298	594036	0	0
2024-05-25 08:40:32			0	37294	0	0	0	21309	19940	135354	27239	985768	40151	107819	0	0	8297	594739	0	0
2024-05-25 08:41:32			0	37244	0	0	0	21306	19930	135422	27428	985733	40172	107818	0	0	8294	596844	0	0
2024-05-25 08:42:32			0	37238	0	0	0	21309	19930	135522	27242	985699	40171	107819	0	0	8294	597093	0	0
2024-05-25 08:43:32			0	37202	0	0	0	21319	19930	135590	27483	985760	40162	107823	0	0	8292	598587	0	0
2024-05-25 08:44:32			0	37149	0	0	0	21327	19930	135718	27239	985787	40162	107826	0	0	8289	600793	0	0
2024-05-25 08:45:32			0	37149	0	0	0	21345	19940	135850	27509	985821	40172	107833	0	0	8288	600760	0	0
2024-05-25 08:46:32			0	37118	0	0	0	21340	19940	135886	27426	985777	40184	107831	0	0	8287	602052	0	0
2024-05-25 08:47:32			0	37098	0	0	0	21348	19950	136010	27189	985838	40184	107834	0	0	8286	602854	0	0
2024-05-25 08:48:32			0	37026	0	0	0	21348	19940	136050	27303	985830	40173	107834	0	0	8282	605898	0	0
2024-05-25 08:49:32			0	37031	0	0	0	21353	19950	136250	27554	985838	40173	107836	0	0	8282	605656	0	0
2024-05-25 08:50:32			0	37020	0	0	0	21366	19960	136390	27284	985881	40164	107841	0	0	8281	606083	0	0
2024-05-25 08:51:32			0	36977	0	0	0	21368	19960	136446	27287	985935	40153	107842	0	0	8279	607887	0	0
2024-05-25 08:52:32			0	36959	0	0	0	21379	19960	136562	27635	985961	40185	107846	0	0	8278	608643	0	0
2024-05-25 08:53:32			0	36924	0	0	0	21379	19980	136590	27327	985968	40166	107846	0	0	8276	610048	0	0
2024-05-25 08:54:32			0	36915	0	0	0	21389	19980	136582	27507	985986	40176	107850	0	0	8275	610426	0	0
2024-05-25 08:55:32			0	36901	0	0	0	21392	19980	136678	27220	985995	40166	107851	0	0	8275	611016	0	0
2024-05-25 08:56:32			0	36887	0	0	0	21389	19990	136766	27201	986003	40166	107850	0	0	8274	611572	0	0
2024-05-25 08:57:32			0	36866	0	0	0	21381	19990	136806	27255	986003	40166	107847	0	0	8273	612458	0	0
2024-05-25 08:58:32			0	36852	0	0	0	21366	19990	136814	27244	985950	40177	107841	0	0	8273	613049	0	0
2024-05-25 08:59:32			0	36860	0	0	0	21350	19970	136898	27415	985898	40153	107835	0	0	8273	612779	0	0
2024-05-25 09:00:32			0	36866	0	0	0	21335	19960	136822	27386	985828	40164	107829	0	0	8274	612559	0	0
2024-05-25 09:01:32			0	36853	0	0	0	21298	19950	136930	27268	985740	40141	107815	0	0	8274	613142	0	0
2024-05-25 09:02:32			0	36847	0	0	0	21254	19940	136910	27222	985715	40162	107798	0	0	8274	613429	0	0
2024-05-25 09:03:32			0	36871	0	0	0	21231	19920	136834	27092	985531	40149	107789	0	0	8276	612483	0	0
2024-05-25 09:04:32			0	36855	0	0	0	21218	19900	136902	26994	985471	40136	107784	0	0	8275	613226	0	0
2024-05-25 09:05:32			0	36857	0	0	0	21212	19910	136854	27248	985559	40148	107782	0	0	8275	613108	0	0
2024-05-25 09:06:32			0	36852	0	0	0	21223	19900	136854	27336	985542	40147	107786	0	0	8275	613353	0	0
2024-05-25 09:07:32			0	36861	0	0	0	21225	19890	136854	27248	985481	40169	107787	0	0	8275	613007	0	0
2024-05-25 09:08:32			0	36859	0	0	0	21228	19880	136790	27168	985464	40134	107788	0	0	8275	613125	0	0
2024-05-25 09:09:32			0	36889	0	0	0	21228	19880	136878	27246	985429	40167	107788	0	0	8276	611859	0	0
2024-05-25 09:10:32			0	36875	0	0	0	21223	19870	136766	27455	985421	40157	107786	0	0	8276	612483	0	0
2024-05-25 09:11:32			0	36905	0	0	0	21218	19880	136794	27137	985429	40157	107784	0	0	8277	611184	0	0
2024-05-25 09:12:32			0	36897	0	0	0	21220	19870	136818	27222	985386	40156	107785	0	0	8277	611555	0	0
2024-05-25 09:13:32			0	36901	0	0	0	21218	19860	136794	27258	985404	40166	107784	0	0	8277	611420	0	0
2024-05-25 09:14:32			0	36898	0	0	0	21210	19860	136774	27376	985378	40144	107781	0	0	8277	611547	0	0
2024-05-25 09:15:32			0	36918	0	0	0	21220	19870	136610	27339	985413	40156	107785	0	0	8278	610670	0	0
2024-05-25 09:16:32			0	36913	0	0	0	21218	19850	136734	27201	985379	40165	107784	0	0	8278	610948	0	0
2024-05-25 09:17:32			0	36939	0	0	0	21212	19850	136638	27255	985361	40165	107782	0	0	8279	609853	0	0
2024-05-25 09:18:32			0	36941	0	0	0	21223	19840	136674	27133	985371	40165	107786	0	0	8279	609803	0	0
2024-05-25 09:19:32			0	36941	0	0	0	21220	19850	136642	27237	985414	40143	107785	0	0	8279	609769	0	0
2024-05-25 09:20:32			0	36979	0	0	0	21223	19850	136558	27396	985414	40165	107786	0	0	8281	608171	0	0
2024-05-25 09:21:32			0	36952	0	0	0	21254	19850	136578	27391	985467	40154	107798	0	0	8279	609306	0	0
2024-05-25 09:22:32			0	36961	0	0	0	21267	19850	136642	27343	985512	40165	107803	0	0	8279	608928	0	0
2024-05-25 09:23:32			0	36975	0	0	0	21280	19850	136614	27242	985520	40154	107808	0	0	8280	608339	0	0
2024-05-25 09:24:32			0	36932	0	0	0	21298	19870	136654	27123	985519	40166	107815	0	0	8277	610081	0	0
2024-05-25 09:25:32			0	36936	0	0	0	21311	19880	136658	27281	985703	40167	107820	0	0	8277	609879	0	0
2024-05-25 09:26:32			0	36929	0	0	0	21332	19890	136638	27114	985667	40180	107828	0	0	8277	610140	0	0
2024-05-25 09:27:32			0	36917	0	0	0	21348	19900	136674	27204	985755	40180	107834	0	0	8276	610611	0	0
2024-05-25 09:28:32			0	36920	0	0	0	21358	19910	136626	27163	985771	40181	107838	0	0	8276	610451	0	0
2024-05-25 09:29:32			0	36902	0	0	0	21368	19920	136798	27397	985815	40171	107842	0	0	8275	611176	0	0
2024-05-25 09:30:32			0	36902	0	0	0	21363	19930	136850	27107	985805	40183	107840	0	0	8275	611142	0	0
2024-05-25 09:31:32			0	36861	0	0	0	21363	19930	136826	27100	985884	40171	107840	0	0	8273	612872	0	0
2024-05-25 09:32:32			0	36850	0	0	0	21392	19940	136874	27357	985928	40172	107851	0	0	8272	613303	0	0
2024-05-25 09:33:32			0	36842	0	0	0	21402	19950	136950	27431	985918	40163	107855	0	0	8271	613607	0	0
2024-05-25 09:34:32			0	36827	0	0	0	21407	19940	136938	27320	985936	40173	107857	0	0	8270	614275	0	0
2024-05-25 09:35:32			0	36815	0	0	0	21332	19950	136974	27282	985873	40164	107828	0	0	8271	614748	0	0
2024-05-25 09:36:32			0	36819	0	0	0	21267	19940	137034	27705	985742	40151	107803	0	0	8272	614613	0	0
2024-05-25 09:37:32			0	36794	0	0	0	21267	19930	137046	27511	985601	40151	107803	0	0	8271	615705	0	0
2024-05-25 09:38:32			0	36808	0	0	0	21306	19910	136994	27208	985647	40160	107818	0	0	8271	615180	0	0
2024-05-25 09:39:32			0	36817	0	0	0	21280	19910	137098	27287	985639	40159	107808	0	0	8272	614799	0	0
2024-05-25 09:40:32			0	36815	0	0	0	21277	19920	137006	27206	985690	40171	107807	0	0	8272	614850	0	0
2024-05-25 09:41:32			0	36810	0	0	0	21309	19900	137014	27253	985630	40169	107819	0	0	8271	615129	0	0
2024-05-25 09:42:32			0	36826	0	0	0	21306	19910	137018	27147	985620	40171	107818	0	0	8272	614418	0	0
2024-05-25 09:43:32			0	36837	0	0	0	21288	19910	136986	27128	985665	40170	107811	0	0	8273	613953	0	0
2024-05-25 09:44:32			0	36849	0	0	0	21285	19910	136938	26883	985700	40160	107810	0	0	8273	613446	0	0
2024-05-25 09:45:32			0	36842	0	0	0	21298	19900	136854	27478	985604	40169	107815	0	0	8273	613776	0	0
2024-05-25 09:46:32			0	36854	0	0	0	21290	19910	136862	27388	985665	40170	107812	0	0	8274	613235	0	0
2024-05-25 09:47:32			0	36866	0	0	0	21296	19900	136830	27225	985710	40169	107814	0	0	8274	612762	0	0
2024-05-25 09:48:32			0	36848	0	0	0	21301	19900	136846	27348	985701	40159	107816	0	0	8273	613522	0	0
2024-05-25 09:49:32			0	36847	0	0	0	21301	19910	136790	27050	985692	40148	107816	0	0	8273	613531	0	0
2024-05-25 09:50:32			0	36896	0	0	0	21311	19900	136790	27176	985683	40180	107820	0	0	8275	611496	0	0
2024-05-25 09:51:32			0	36889	0	0	0	21296	19900	136778	27294	985683	40169	107814	0	0	8275	611791	0	0
2024-05-25 09:52:32			0	36881	0	0	0	21298	19920	136690	27163	985708	40171	107815	0	0	8275	612061	0	0
2024-05-25 09:53:32			0	36906	0	0	0	21306	19910	136726	27495	985727	40171	107818	0	0	8276	611041	0	0
2024-05-25 09:54:32			0	36889	0	0	0	21306	19920	136690	27696	985717	40160	107818	0	0	8275	611724	0	0
2024-05-25 09:55:32			0	36917	0	0	0	21324	19920	136630	27281	985708	40160	107825	0	0	8276	610544	0	0
2024-05-25 09:56:32			0	36890	0	0	0	21324	19920	136658	27443	985708	40149	107825	0	0	8275	611682	0	0
2024-05-25 09:57:32			0	36913	0	0	0	21332	19920	136574	27502	985770	40171	107828	0	0	8276	610713	0	0
2024-05-25 09:58:32			0	36909	0	0	0	21332	19920	136586	27395	985735	40160	107828	0	0	8276	610881	0	0
2024-05-25 09:59:32			0	36932	0	0	0	21335	19920	136514	27402	985690	40160	107829	0	0	8277	609913	0	0
2024-05-25 10:00:32			0	36934	0	0	0	21332	19920	136650	27319	985815	40160	107828	0	0	8277	609829	0	0
2024-05-25 10:01:32			0	36930	0	0	0	21394	19930	136514	27100	985858	40183	107852	0	0	8276	609963	0	0
2024-05-25 10:02:32			0	36950	0	0	0	21454	19950	136562	27454	986024	40184	107875	0	0	8276	609055	0	0
2024-05-25 10:03:32			0	36957	0	0	0	21475	19970	136614	27379	986164	40175	107883	0	0	8276	608693	0	0
2024-05-25 10:04:32			0	36914	0	0	0	21477	19990	136558	27161	986215	40188	107884	0	0	8274	610435	0	0
2024-05-25 10:05:32			0	36933	0	0	0	21459	19980	136638	27194	986127	40188	107877	0	0	8275	609669	0	0
2024-05-25 10:06:32			0	36921	0	0	0	21431	19990	136594	27371	986118	40166	107866	0	0	8275	610140	0	0
2024-05-25 10:07:32			0	36938	0	0	0	21420	20000	136566	27490	986108	40178	107862	0	0	8276	609391	0	0
2024-05-25 10:08:32			0	36933	0	0	0	21412	20000	136486	27523	986134	40190	107859	0	0	8276	609602	0	0
2024-05-25 10:09:32			0	36928	0	0	0	21407	20000	136538	27447	986046	40189	107857	0	0	8276	609812	0	0
2024-05-25 10:10:32			0	36903	0	0	0	21415	20000	136594	27485	986153	40178	107860	0	0	8274	610864	0	0
2024-05-25 10:11:32			0	36944	0	0	0	21425	20010	136554	27364	986116	40190	107864	0	0	8277	609105	0	0
2024-05-25 10:12:32			0	36913	0	0	0	21441	20020	136558	27365	986274	40180	107870	0	0	8275	610376	0	0
2024-05-25 10:13:32			0	36894	0	0	0	21457	20020	136586	27479	986266	40179	107876	0	0	8273	611176	0	0
2024-05-25 10:14:32			0	36877	0	0	0	21464	20020	136630	27644	986301	40180	107879	0	0	8272	611893	0	0
2024-05-25 10:15:32			0	36879	0	0	0	21485	20040	136734	27428	986361	40193	107887	0	0	8272	611741	0	0
2024-05-25 10:16:32			0	36869	0	0	0	21509	20050	136798	27275	986369	40204	107896	0	0	8271	612129	0	0
2024-05-25 10:17:32			0	36846	0	0	0	21516	20060	136694	27293	986465	40183	107899	0	0	8270	613066	0	0
2024-05-25 10:18:32			0	36828	0	0	0	21527	20060	136798	27291	986492	40194	107903	0	0	8269	613826	0	0
2024-05-25 10:19:32			0	36830	0	0	0	21529	20070	136830	27698	986482	40207	107904	0	0	8269	613708	0	0
2024-05-25 10:20:32			0	36812	0	0	0	21548	20080	136858	27322	986605	40197	107911	0	0	8268	614435	0	0
2024-05-25 10:21:32			0	36797	0	0	0	21550	20090	136854	27339	986568	40198	107912	0	0	8267	615035	0	0
2024-05-25 10:22:32			0	36779	0	0	0	21561	20100	136938	27352	986586	40198	107916	0	0	8266	615763	0	0
2024-05-25 10:23:32			0	36772	0	0	0	21566	20100	137094	27296	986594	40198	107918	0	0	8265	616060	0	0
2024-05-25 10:24:32			0	36766	0	0	0	21581	20110	137170	27679	986682	40210	107924	0	0	8265	616280	0	0
2024-05-25 10:25:32			0	36776	0	0	0	21592	20120	137058	27833	986760	40211	107928	0	0	8265	615822	0	0
2024-05-25 10:26:32			0	36779	0	0	0	21610	20130	136898	27377	986795	40223	107935	0	0	8265	615661	0	0
2024-05-25 10:27:32			0	36821	0	0	0	21618	20140	136794	27462	986812	40202	107938	0	0	8267	613851	0	0
2024-05-25 10:28:32			0	36861	0	0	0	21605	20150	136550	27197	986802	40203	107933	0	0	8270	612129	0	0
2024-05-25 10:29:32			0	36921	0	0	0	21602	20150	136330	27367	986828	40192	107932	0	0	8273	609602	0	0
2024-05-25 10:30:32			0	36988	0	0	0	21594	20160	136158	27137	986819	40204	107929	0	0	8277	606755	0	0
2024-05-25 10:31:32			0	37088	0	0	0	21592	20170	135990	27187	986888	40215	107928	0	0	8282	602540	0	0
2024-05-25 10:32:32			0	37133	0	0	0	21586	20170	135554	27218	986897	40227	107926	0	0	8284	600664	0	0
2024-05-25 10:33:32			0	37199	0	0	0	21592	20160	135470	27630	986819	40214	107928	0	0	8288	597953	0	0
2024-05-25 10:34:32			0	37254	0	0	0	21573	20170	135286	27441	986782	40205	107921	0	0	8291	595640	0	0
2024-05-25 10:35:32			0	37282	0	0	0	21555	20170	134930	27118	986791	40216	107914	0	0	8293	594481	0	0
2024-05-25 10:36:32			0	37369	0	0	0	21548	20160	134907	27281	986747	40193	107911	0	0	8297	590923	0	0
2024-05-25 10:37:32			0	37394	0	0	0	21527	20170	134723	26960	986782	40193	107903	0	0	8299	589862	0	0
2024-05-25 10:38:32			0	37432	0	0	0	21527	20160	134663	27274	986721	40193	107903	0	0	8301	588332	0	0
2024-05-25 10:39:32			0	37438	0	0	0	21506	20150	134467	27211	986678	40203	107895	0	0	8302	588118	0	0
2024-05-25 10:40:32			0	37469	0	0	0	21514	20150	134419	27060	986696	40192	107898	0	0	8303	586846	0	0
2024-05-25 10:41:32			0	37505	0	0	0	21496	20130	134347	27225	986564	40190	107891	0	0	8305	585436	0	0
2024-05-25 10:42:32			0	37510	0	0	0	21485	20130	134291	27343	986618	40190	107887	0	0	8306	585231	0	0
2024-05-25 10:43:32			0	37503	0	0	0	21475	20120	134255	27180	986495	40190	107883	0	0	8306	585550	0	0
2024-05-25 10:44:32			0	37511	0	0	0	21480	20120	134327	26873	986548	40211	107885	0	0	8306	585222	0	0
2024-05-25 10:45:32			0	37523	0	0	0	21490	20120	134307	27339	986592	40222	107889	0	0	8306	584731	0	0
2024-05-25 10:46:32			0	37519	0	0	0	21503	20120	134331	27235	986627	40190	107894	0	0	8306	584895	0	0
2024-05-25 10:47:32			0	37502	0	0	0	21503	20120	134355	27232	986619	40210	107894	0	0	8305	585591	0	0
2024-05-25 10:48:32			0	37493	0	0	0	21483	20120	134483	27161	986601	40201	107886	0	0	8305	585959	0	0
2024-05-25 10:49:32			0	37503	0	0	0	21485	20120	134359	26868	986521	40190	107887	0	0	8305	585550	0	0
2024-05-25 10:50:32			0	37494	0	0	0	21488	20120	134387	26998	986548	40179	107888	0	0	8305	585918	0	0
2024-05-25 10:51:32			0	37470	0	0	0	21483	20110	134491	26871	986549	40188	107886	0	0	8304	586934	0	0
2024-05-25 10:52:32			0	37478	0	0	0	21477	20100	134547	27010	986541	40187	107884	0	0	8304	586639	0	0
2024-05-25 10:53:32			0	37470	0	0	0	21485	20100	134579	27416	986514	40187	107887	0	0	8304	586967	0	0
2024-05-25 10:54:32			0	37458	0	0	0	21483	20110	134607	27293	986505	40188	107886	0	0	8303	587427	0	0
2024-05-25 10:55:32			0	37435	0	0	0	21485	20100	134567	27345	986488	40198	107887	0	0	8302	588403	0	0
2024-05-25 10:56:32			0	37411	0	0	0	21483	20100	134599	26911	986514	40198	107886	0	0	8300	589390	0	0
2024-05-25 10:57:32			0	37419	0	0	0	21488	20100	134667	27045	986559	40187	107888	0	0	8301	589061	0	0
2024-05-25 10:58:32			0	37403	0	0	0	21464	20100	134707	27343	986488	40198	107879	0	0	8300	589719	0	0
2024-05-25 10:59:32			0	37397	0	0	0	21464	20090	134759	26890	986462	40198	107879	0	0	8300	589999	0	0
2024-05-25 11:00:32			0	37405	0	0	0	21459	20090	134699	27102	986418	40198	107877	0	0	8301	589669	0	0
2024-05-25 11:01:32			0	37375	0	0	0	21451	20090	134839	27251	986365	40186	107874	0	0	8299	590904	0	0
2024-05-25 11:02:32			0	37358	0	0	0	21433	20080	134847	27343	986401	40164	107867	0	0	8298	591638	0	0
2024-05-25 11:03:32			0	37371	0	0	0	21446	20080	134967	27268	986401	40197	107872	0	0	8299	591102	0	0
2024-05-25 11:04:32			0	37346	0	0	0	21449	20080	134935	26868	986446	40185	107873	0	0	8298	592132	0	0
2024-05-25 11:05:32			0	37314	0	0	0	21441	20070	134958	27390	986384	40196	107870	0	0	8296	593486	0	0
2024-05-25 11:06:32			0	37314	0	0	0	21433	20070	134983	26753	986402	40185	107867	0	0	8296	593486	0	0
2024-05-25 11:07:32			0	37327	0	0	0	21431	20070	135031	27069	986331	40185	107866	0	0	8297	592949	0	0
2024-05-25 11:08:32			0	37303	0	0	0	21410	20070	135046	27369	986296	40185	107858	0	0	8296	593941	0	0
2024-05-25 11:09:32			0	37290	0	0	0	21423	20070	135142	27241	986323	40196	107863	0	0	8295	594478	0	0
2024-05-25 11:10:32			0	37254	0	0	0	21410	20060	135138	27244	986253	40194	107858	0	0	8293	596001	0	0
2024-05-25 11:11:32			0	37253	0	0	0	21423	20060	135274	27157	986306	40183	107863	0	0	8293	596043	0	0
2024-05-25 11:12:32			0	37229	0	0	0	21418	20050	135282	27395	986351	40183	107861	0	0	8292	597071	0	0
2024-05-25 11:13:32			0	37216	0	0	0	21425	20060	135482	27098	986359	40183	107864	0	0	8291	597577	0	0
2024-05-25 11:14:32			0	37203	0	0	0	21418	20060	135470	27157	986306	40183	107861	0	0	8290	598117	0	0
2024-05-25 11:15:32			0	37184	0	0	0	21423	20060	135518	27211	986333	40172	107863	0	0	8289	598906	0	0
2024-05-25 11:16:32			0	37157	0	0	0	21428	20050	135534	27351	986298	40183	107865	0	0	8288	600062	0	0
2024-05-25 11:17:32			0	37148	0	0	0	21441	20050	135646	27074	986324	40183	107870	0	0	8287	600437	0	0
2024-05-25 11:18:32			0	37141	0	0	0	21444	20060	135698	27218	986314	40206	107871	0	0	8287	600696	0	0
2024-05-25 11:19:32			0	37117	0	0	0	21441	20050	135722	27417	986298	40194	107870	0	0	8286	601729	0	0
2024-05-25 11:20:32			0	37114	0	0	0	21438	20050	135754	27267	986324	40183	107869	0	0	8285	601854	0	0
2024-05-25 11:21:32			0	37104	0	0	0	21457	20060	135874	27199	986386	40183	107876	0	0	8285	602238	0	0
2024-05-25 11:22:32			0	37098	0	0	0	21472	20050	135942	27360	986404	40194	107882	0	0	8284	602521	0	0
2024-05-25 11:23:32			0	37087	0	0	0	21485	20060	135918	27505	986367	40195	107887	0	0	8283	602947	0	0
2024-05-25 11:24:32			0	37084	0	0	0	21501	20070	135966	27261	986482	40207	107893	0	0	8283	603039	0	0
2024-05-25 11:25:32			0	37068	0	0	0	21537	20080	135974	27216	986605	40208	107907	0	0	8281	603674	0	0
2024-05-25 11:26:32			0	37058	0	0	0	21550	20090	135982	26923	986657	40198	107912	0	0	8281	604059	0	0
2024-05-25 11:27:32			0	37066	0	0	0	21553	20090	136038	27102	986657	40198	107913	0	0	8281	603725	0	0
2024-05-25 11:28:32			0	37065	0	0	0	21563	20110	135982	27076	986708	40221	107917	0	0	8281	603700	0	0
2024-05-25 11:29:32			0	37021	0	0	0	21555	20110	135998	27145	986717	40232	107914	0	0	8279	605540	0	0
2024-05-25 11:30:32			0	37036	0	0	0	21597	20130	136038	27166	986742	40201	107930	0	0	8279	604846	0	0
2024-05-25 11:31:32			0	37006	0	0	0	21623	20140	136078	27478	986891	40202	107940	0	0	8277	606068	0	0
2024-05-25 11:32:32			0	37021	0	0	0	21620	20160	136146	27263	986986	40215	107939	0	0	8278	605373	0	0
2024-05-25 11:33:32			0	37002	0	0	0	21664	20160	136098	27178	987039	40237	107956	0	0	8276	606169	0	0
2024-05-25 11:34:32			0	36996	0	0	0	21719	20190	136134	27623	987275	40250	107977	0	0	8275	606320	0	0
2024-05-25 11:35:32			0	36989	0	0	0	21779	20220	136210	27443	987450	40242	108000	0	0	8274	606513	0	0
2024-05-25 11:36:32			0	36937	0	0	0	21831	20260	136394	27454	987597	40256	108020	0	0	8270	608560	0	0
2024-05-25 11:37:32			0	36940	0	0	0	21849	20300	136482	27364	987788	40271	108027	0	0	8270	608299	0	0
2024-05-25 11:38:32			0	36883	0	0	0	21831	20320	136554	27261	987795	40250	108020	0	0	8268	610628	0	0
2024-05-25 11:39:32			0	36859	0	0	0	21794	20330	136538	27194	987759	40241	108006	0	0	8267	611605	0	0
2024-05-25 11:40:32			0	36868	0	0	0	21797	20340	136630	27504	987784	40253	108007	0	0	8268	611192	0	0
2024-05-25 11:41:32			0	36835	0	0	0	21794	20350	136642	27552	987793	40243	108006	0	0	8266	612549	0	0
2024-05-25 11:42:32			0	36818	0	0	0	21823	20350	136698	27467	987828	40209	108017	0	0	8265	613266	0	0
2024-05-25 11:43:32			0	36807	0	0	0	21846	20380	136598	27523	987870	40267	108026	0	0	8264	613629	0	0
2024-05-25 11:44:32			0	36805	0	0	0	21875	20390	136758	27450	988019	40269	108037	0	0	8263	613679	0	0
2024-05-25 11:45:32			0	36768	0	0	0	21836	20410	136866	27350	988053	40270	108022	0	0	8262	615175	0	0
2024-05-25 11:46:32			0	36751	0	0	0	21820	20420	136934	27507	988043	40249	108016	0	0	8261	615860	0	0
2024-05-25 11:47:32			0	36721	0	0	0	21831	20430	137018	27152	988166	40261	108020	0	0	8260	617097	0	0
2024-05-25 11:48:32			0	36723	0	0	0	21825	20440	136942	27085	988138	40262	108018	0	0	8260	616978	0	0
2024-05-25 11:49:32			0	36690	0	0	0	21893	20450	137070	27201	988181	40264	108044	0	0	8257	618343	0	0
2024-05-25 11:50:32			0	36663	0	0	0	21958	20450	137142	27046	988261	40264	108069	0	0	8254	619490	0	0
2024-05-25 11:51:32			0	36632	0	0	0	21963	20470	137234	26863	988393	40253	108071	0	0	8253	620739	0	0
2024-05-25 11:52:32			0	36590	0	0	0	22005	20490	137485	27206	988408	40256	108087	0	0	8250	622459	0	0
2024-05-25 11:53:32			0	36569	0	0	0	22031	20510	137565	27320	988486	40279	108097	0	0	8249	623286	0	0
2024-05-25 11:54:32			0	36535	0	0	0	22031	20520	137765	27265	988511	40281	108097	0	0	8247	624703	0	0
2024-05-25 11:55:32			0	36453	0	0	0	22028	20530	137865	27353	988626	40281	108096	0	0	8243	628179	0	0
2024-05-25 11:56:32			0	36414	0	0	0	22020	20550	137993	27339	988678	40272	108093	0	0	8241	629784	0	0
2024-05-25 11:57:32			0	36367	0	0	0	21992	20550	138265	27305	988651	40272	108082	0	0	8239	631806	0	0
2024-05-25 11:58:32			0	36342	0	0	0	21968	20560	138353	27251	988535	40272	108073	0	0	8238	632848	0	0
2024-05-25 11:59:32			0	36298	0	0	0	21971	20560	138457	27116	988543	40262	108074	0	0	8235	634747	0	0
2024-05-25 12:00:32			0	36291	0	0	0	21966	20550	138429	27111	988580	40260	108072	0	0	8235	635085	0	0
2024-05-25 12:01:32			0	36308	0	0	0	21955	20560	138389	26857	988490	40251	108068	0	0	8236	634315	0	0
2024-05-25 12:02:32			0	36345	0	0	0	21945	20550	138261	27585	988474	40260	108064	0	0	8238	632754	0	0
2024-05-25 12:03:32			0	36398	0	0	0	21927	20560	138033	27187	988482	40250	108057	0	0	8241	630437	0	0
2024-05-25 12:04:32			0	36455	0	0	0	21929	20560	137889	27511	988482	40272	108058	0	0	8244	627989	0	0
2024-05-25 12:05:32			0	36519	0	0	0	21932	20550	137629	27293	988421	40260	108059	0	0	8248	625283	0	0
2024-05-25 12:06:32			0	36571	0	0	0	21922	20560	137393	27467	988455	40272	108055	0	0	8251	623028	0	0
2024-05-25 12:07:32			0	36641	0	0	0	21922	20550	137142	27300	988474	40239	108055	0	0	8254	620082	0	0
2024-05-25 12:08:32			0	36688	0	0	0	21927	20540	136886	27289	988457	40272	108057	0	0	8257	618120	0	0
2024-05-25 12:09:32			0	36745	0	0	0	21924	20540	136786	27315	988483	40260	108056	0	0	8260	615706	0	0
2024-05-25 12:10:32			0	36775	0	0	0	21911	20550	136570	27656	988518	40250	108051	0	0	8262	614403	0	0
2024-05-25 12:11:32			0	36794	0	0	0	21911	20550	136434	27431	988439	40260	108051	0	0	8263	613601	0	0
2024-05-25 12:12:32			0	36830	0	0	0	21911	20530	136574	27426	988369	40238	108051	0	0	8264	612150	0	0
2024-05-25 12:13:32			0	36821	0	0	0	21911	20550	136426	27012	988386	40260	108051	0	0	8264	612462	0	0
2024-05-25 12:14:32			0	36823	0	0	0	21922	20530	136478	27294	988422	40259	108055	0	0	8264	612445	0	0
2024-05-25 12:15:32			0	36804	0	0	0	21927	20530	136506	27253	988422	40259	108057	0	0	8263	613247	0	0
2024-05-25 12:16:32			0	36786	0	0	0	21942	20530	136590	27085	988440	40270	108063	0	0	8262	614007	0	0
2024-05-25 12:17:32			0	36767	0	0	0	21945	20530	136738	27124	988475	40282	108064	0	0	8261	614809	0	0
2024-05-25 12:18:32			0	36731	0	0	0	21945	20530	136874	27350	988502	40259	108064	0	0	8259	616332	0	0
2024-05-25 12:19:32			0	36653	0	0	0	21948	20530	137066	27171	988475	40259	108065	0	0	8254	619641	0	0
2024-05-25 12:20:32			0	36616	0	0	0	21953	20540	137322	27227	988457	40260	108067	0	0	8252	621180	0	0
2024-05-25 12:21:32			0	36526	0	0	0	21955	20560	137553	27324	988509	40240	108068	0	0	8248	624950	0	0
2024-05-25 12:22:32			0	36471	0	0	0	21948	20560	137825	27284	988482	40272	108065	0	0	8245	627303	0	0
2024-05-25 12:23:32			0	36391	0	0	0	21945	20550	138097	27152	988553	40272	108064	0	0	8241	630773	0	0
2024-05-25 12:24:32			0	36284	0	0	0	21945	20540	138381	27351	988483	40239	108064	0	0	8235	635422	0	0
2024-05-25 12:25:32			0	36230	0	0	0	21940	20550	138793	27300	988500	40260	108062	0	0	8232	637725	0	0
2024-05-25 12:26:32			0	36129	0	0	0	21945	20550	139033	27260	988518	40260	108064	0	0	8227	642114	0	0
2024-05-25 12:27:32			0	36044	0	0	0	21948	20560	139433	27194	988482	40272	108065	0	0	8222	645788	0	0
2024-05-25 12:28:32			0	35984	0	0	0	21940	20560	139677	27256	988509	40272	108062	0	0	8219	648415	0	0
2024-05-25 12:29:32			0	35892	0	0	0	21940	20550	139901	27147	988545	40272	108062	0	0	8214	652495	0	0
2024-05-25 12:30:32			0	35840	0	0	0	21932	20560	140180	27067	988482	40272	108059	0	0	8211	654753	0	0
2024-05-25 12:31:32			0	35776	0	0	0	21927	20550	140392	27265	988474	40272	108057	0	0	8208	657620	0	0
2024-05-25 12:32:32			0	35747	0	0	0	21927	20550	140572	27386	988447	40260	108057	0	0	8206	658905	0	0
2024-05-25 12:33:32			0	35705	0	0	0	21922	20540	140656	27490	988457	40272	108055	0	0	8204	660807	0	0
2024-05-25 12:34:32			0	35656	0	0	0	21919	20540	140864	27239	988430	40239	108054	0	0	8202	662988	0	0
2024-05-25 12:35:32			0	35610	0	0	0	21922	20540	141048	27421	988430	40283	108055	0	0	8199	665041	0	0
2024-05-25 12:36:32			0	35582	0	0	0	21924	20540	141040	27313	988404	40272	108056	0	0	8198	666292	0	0
2024-05-25 12:37:32			0	35574	0	0	0	21922	20530	141124	27287	988422	40259	108055	0	0	8197	666687	0	0
2024-05-25 12:38:32			0	35541	0	0	0	21919	20530	141288	27100	988395	40271	108054	0	0	8195	668164	0	0
2024-05-25 12:39:32			0	35534	0	0	0	21909	20540	141344	27261	988457	40250	108050	0	0	8195	668441	0	0
2024-05-25 12:40:32			0	35523	0	0	0	21916	20530	141280	27500	988387	40258	108053	0	0	8194	668972	0	0
2024-05-25 12:41:32			0	35543	0	0	0	21909	20530	141396	27549	988414	40258	108050	0	0	8196	668075	0	0
2024-05-25 12:42:32			0	35520	0	0	0	21903	20530	141448	27355	988414	40258	108048	0	0	8195	669106	0	0
2024-05-25 12:43:32			0	35530	0	0	0	21914	20530	141424	27319	988360	40258	108052	0	0	8195	668658	0	0
2024-05-25 12:44:32			0	35523	0	0	0	21909	20520	141240	27319	988379	40258	108050	0	0	8195	669009	0	0
2024-05-25 12:45:32			0	35546	0	0	0	21906	20530	141300	27249	988422	40271	108049	0	0	8196	667940	0	0
2024-05-25 12:46:32			0	35584	0	0	0	21903	20520	141416	27498	988379	40270	108048	0	0	8198	666276	0	0
2024-05-25 12:47:32			0	35568	0	0	0	21901	20520	141280	27440	988379	40270	108047	0	0	8197	666992	0	0
2024-05-25 12:48:32			0	35585	0	0	0	21903	20520	141152	27145	988370	40258	108048	0	0	8198	666232	0	0
2024-05-25 12:49:32			0	35601	0	0	0	21901	20530	141148	27545	988360	40248	108047	0	0	8199	665479	0	0
2024-05-25 12:50:32			0	35609	0	0	0	21911	20530	141012	27424	988360	40281	108051	0	0	8199	665122	0	0
2024-05-25 12:51:32			0	35632	0	0	0	21909	20520	141000	27131	988405	40270	108050	0	0	8200	664132	0	0
2024-05-25 12:52:32			0	35660	0	0	0	21896	20520	140932	27164	988405	40258	108045	0	0	8202	662883	0	0
2024-05-25 12:53:32			0	35664	0	0	0	21903	20520	140940	27607	988344	40258	108048	0	0	8202	662705	0	0
2024-05-25 12:54:32			0	35684	0	0	0	21901	20510	140948	27369	988335	40247	108047	0	0	8203	661851	0	0
2024-05-25 12:55:32			0	35689	0	0	0	21901	20520	140836	27093	988397	40258	108047	0	0	8204	661592	0	0
2024-05-25 12:56:32			0	35677	0	0	0	21898	20510	140860	26824	988309	40258	108046	0	0	8203	662163	0	0
2024-05-25 12:57:32			0	35665	0	0	0	21888	20520	140860	27152	988291	40258	108042	0	0	8203	662661	0	0
2024-05-25 12:58:32			0	35645	0	0	0	21890	20510	140944	27353	988327	40268	108043	0	0	8201	663589	0	0
2024-05-25 12:59:32			0	35628	0	0	0	21883	20510	141052	27393	988309	40258	108040	0	0	8201	664347	0	0
2024-05-25 13:00:32			0	35593	0	0	0	21883	20520	141188	27095	988317	40269	108040	0	0	8199	665874	0	0
2024-05-25 13:01:32			0	35533	0	0	0	21883	20510	141348	27405	988274	40247	108040	0	0	8195	668597	0	0
2024-05-25 13:02:32			0	35519	0	0	0	21885	20510	141520	27557	988309	40258	108041	0	0	8195	669225	0	0
2024-05-25 13:03:32			0	35468	0	0	0	21883	20510	141628	27313	988300	40268	108040	0	0	8192	671516	0	0
2024-05-25 13:04:32			0	35452	0	0	0	21883	20500	141808	27319	988284	40256	108040	0	0	8191	672273	0	0
2024-05-25 13:05:32			0	35417	0	0	0	21885	20500	141952	27412	988265	40267	108041	0	0	8189	673850	0	0
2024-05-25 13:06:32			0	35368	0	0	0	21880	20500	142040	27152	988284	40256	108039	0	0	8186	676063	0	0
2024-05-25 13:07:32			0	35353	0	0	0	21883	20490	142204	27225	988302	40267	108040	0	0	8186	676778	0	0
2024-05-25 13:08:32			0	35312	0	0	0	21880	20500	142232	27088	988284	40256	108039	0	0	8183	678598	0	0
2024-05-25 13:09:32			0	35311	0	0	0	21880	20510	142272	27267	988274	40257	108039	0	0	8183	678606	0	0
2024-05-25 13:10:32			0	35270	0	0	0	21875	20500	142380	27230	988284	40267	108037	0	0	8181	680504	0	0
2024-05-25 13:11:32			0	35273	0	0	0	21880	20500	142552	27215	988257	40256	108039	0	0	8181	680367	0	0
2024-05-25 13:12:32			0	35238	0	0	0	21880	20490	142564	27085	988275	40256	108039	0	0	8179	681996	0	0
2024-05-25 13:13:32			0	35227	0	0	0	21885	20500	142696	26911	988319	40290	108041	0	0	8179	682459	0	0
2024-05-25 13:14:32			0	35193	0	0	0	21903	20490	142720	27372	988302	40267	108048	0	0	8176	684046	0	0
2024-05-25 13:15:32			0	35174	0	0	0	21906	20510	142760	27443	988300	40268	108049	0	0	8175	684837	0	0
2024-05-25 13:16:32			0	35143	0	0	0	21914	20500	142884	27481	988390	40267	108052	0	0	8174	686291	0	0
2024-05-25 13:17:32			0	35126	0	0	0	21932	20510	142888	27154	988442	40269	108059	0	0	8172	687030	0	0
2024-05-25 13:18:32			0	35124	0	0	0	21937	20510	143104	27114	988468	40269	108061	0	0	8172	687122	0	0
2024-05-25 13:19:32			0	35099	0	0	0	21945	20510	143151	26961	988442	40280	108064	0	0	8171	688266	0	0
2024-05-25 13:20:32			0	35083	0	0	0	21953	20530	143163	27156	988546	40258	108067	0	0	8170	688923	0	0
2024-05-25 13:21:32			0	35069	0	0	0	21973	20540	143223	27367	988590	40272	108075	0	0	8169	689527	0	0
2024-05-25 13:22:32			0	35045	0	0	0	22012	20550	143363	27358	988757	40283	108090	0	0	8167	690590	0	0
2024-05-25 13:23:32			0	35022	0	0	0	22049	20560	143323	27666	988729	40273	108104	0	0	8165	691609	0	0
2024-05-25 13:24:32			0	34986	0	0	0	22059	20570	143419	27164	988852	40285	108108	0	0	8163	693227	0	0
2024-05-25 13:25:32			0	34960	0	0	0	22090	20590	143595	27286	988886	40287	108120	0	0	8161	694348	0	0
2024-05-25 13:26:32			0	34970	0	0	0	22106	20610	143635	27286	988938	40277	108126	0	0	8161	693810	0	0
2024-05-25 13:27:32			0	34945	0	0	0	22114	20610	143659	27124	989000	40278	108129	0	0	8160	694963	0	0
2024-05-25 13:28:32			0	34938	0	0	0	22132	20640	143707	27310	989121	40291	108136	0	0	8159	695171	0	0
2024-05-25 13:29:32			0	34924	0	0	0	22155	20640	143687	27289	989174	40301	108145	0	0	8158	695817	0	0
2024-05-25 13:30:32			0	34916	0	0	0	22140	20650	143827	27464	989199	40281	108139	0	0	8158	696148	0	0
2024-05-25 13:31:32			0	34892	0	0	0	22098	20660	143811	27390	989155	40292	108123	0	0	8157	697219	0	0
2024-05-25 13:32:32			0	34924	0	0	0	22085	20660	143755	27116	989083	40282	108118	0	0	8159	695740	0	0
2024-05-25 13:33:32			0	34907	0	0	0	22096	20670	143715	27466	989180	40283	108122	0	0	8158	696487	0	0
2024-05-25 13:34:32			0	34937	0	0	0	22028	20670	143703	27376	989092	40283	108096	0	0	8161	695101	0	0
2024-05-25 13:35:32			0	34976	0	0	0	21961	20670	143503	27268	988932	40293	108070	0	0	8164	693304	0	0
2024-05-25 13:36:32			0	35031	0	0	0	21911	20640	143239	27405	988811	40248	108051	0	0	8168	690889	0	0
2024-05-25 13:37:32			0	35129	0	0	0	21893	20630	142940	27343	988653	40267	108044	0	0	8174	686437	0	0
2024-05-25 13:38:32			0	35184	0	0	0	21953	20620	142644	27531	988769	40278	108067	0	0	8176	683964	0	0
2024-05-25 13:39:32			0	35218	0	0	0	22005	20620	142424	27215	988742	40289	108087	0	0	8177	682416	0	0
2024-05-25 13:40:32			0	35236	0	0	0	22012	20620	142364	27270	988902	40289	108090	0	0	8178	681597	0	0
2024-05-25 13:41:32			0	35268	0	0	0	22129	20620	142348	27194	988937	40267	108135	0	0	8177	680143	0	0
2024-05-25 13:42:32			0	35277	0	0	0	22012	20640	142316	27306	989076	40302	108090	0	0	8180	679659	0	0
2024-05-25 13:43:32			0	35320	0	0	0	21955	20640	142100	27350	988970	40248	108068	0	0	8183	677710	0	0
2024-05-25 13:44:32			0	35348	0	0	0	21883	20630	141948	27274	988812	40246	108040	0	0	8186	676481	0	0
2024-05-25 13:45:32			0	35323	0	0	0	21896	20610	142004	27620	988699	40266	108045	0	0	8184	677687	0	0
2024-05-25 13:46:32			0	35285	0	0	0	21916	20600	142184	27312	988637	40266	108053	0	0	8182	679447	0	0
2024-05-25 13:47:32			0	35281	0	0	0	21942	20600	142272	27213	988629	40265	108063	0	0	8181	679628	0	0
2024-05-25 13:48:32			0	35232	0	0	0	21961	20610	142380	27211	988725	40277	108070	0	0	8178	681816	0	0
2024-05-25 13:49:32			0	35223	0	0	0	21971	20590	142524	27578	988807	40265	108074	0	0	8177	682301	0	0
2024-05-25 13:50:32			0	35165	0	0	0	21992	20600	142576	27144	988735	40276	108082	0	0	8174	684907	0	0
2024-05-25 13:51:32			0	35154	0	0	0	22088	20600	142760	27239	988876	40288	108119	0	0	8172	685409	0	0
2024-05-25 13:52:32			0	35143	0	0	0	22096	20630	142844	27452	989051	40300	108122	0	0	8171	685797	0	0
2024-05-25 13:53:32			0	35121	0	0	0	22103	20640	142960	27329	989076	40291	108125	0	0	8170	686765	0	0
2024-05-25 13:54:32			0	35120	0	0	0	22093	20660	142948	27670	989155	40292	108121	0	0	8170	686735	0	0
2024-05-25 13:55:32			0	35114	0	0	0	22080	20670	142923	27319	989171	40304	108116	0	0	8170	686971	0	0
2024-05-25 13:56:32			0	35108	0	0	0	22116	20680	142992	27270	989268	40284	108130	0	0	8169	687207	0	0
2024-05-25 13:57:32			0	35115	0	0	0	22132	20690	142916	27429	989285	40306	108136	0	0	8169	686849	0	0
2024-05-25 13:58:32			0	35077	0	0	0	22166	20690	143051	27557	989320	40295	108149	0	0	8167	688588	0	0
2024-05-25 13:59:32			0	35063	0	0	0	22179	20710	143191	27412	989451	40319	108154	0	0	8166	689154	0	0
2024-05-25 14:00:32			0	35039	0	0	0	22205	20730	143247	27150	989511	40288	108164	0	0	8164	690178	0	0
2024-05-25 14:01:32			0	35014	0	0	0	22218	20730	143495	27381	989600	40289	108169	0	0	8162	691326	0	0
2024-05-25 14:02:32			0	34990	0	0	0	22236	20740	143491	27493	989616	40290	108176	0	0	8161	692391	0	0
2024-05-25 14:03:32			0	35022	0	0	0	22246	20750	143255	27393	989518	40311	108180	0	0	8162	690882	0	0
2024-05-25 14:04:32			0	35044	0	0	0	22249	20760	143275	27409	989597	40313	108181	0	0	8164	689834	0	0
2024-05-25 14:05:32			0	35059	0	0	0	22259	20770	143135	27569	989685	40303	108185	0	0	8164	689108	0	0
2024-05-25 14:06:32			0	35055	0	0	0	22270	20790	143083	27331	989780	40327	108189	0	0	8164	689215	0	0
2024-05-25 14:07:32			0	35039	0	0	0	22280	20790	143119	27434	989772	40316	108193	0	0	8163	689949	0	0
2024-05-25 14:08:32			0	35062	0	0	0	22272	20810	143175	27131	989858	40318	108190	0	0	8165	688818	0	0
2024-05-25 14:09:32			0	35033	0	0	0	22257	20820	143183	27358	989883	40319	108184	0	0	8163	690109	0	0
2024-05-25 14:10:32			0	35055	0	0	0	22272	20820	142971	27241	989848	40295	108190	0	0	8164	689101	0	0
2024-05-25 14:11:32			0	35070	0	0	0	22275	20820	142979	27502	989857	40319	108191	0	0	8165	688413	0	0
2024-05-25 14:12:32			0	35099	0	0	0	22280	20840	142955	27639	989909	40309	108193	0	0	8167	687010	0	0
2024-05-25 14:13:32			0	35077	0	0	0	22285	20840	142995	27442	989909	40309	108195	0	0	8165	688017	0	0
2024-05-25 14:14:32			0	35091	0	0	0	22288	20840	142895	27305	989935	40309	108196	0	0	8166	687376	0	0
2024-05-25 14:15:32			0	35059	0	0	0	22285	20850	142999	27543	989979	40299	108195	0	0	8164	688803	0	0
2024-05-25 14:16:32			0	35066	0	0	0	22285	20860	142947	26996	989942	40311	108195	0	0	8165	688444	0	0
2024-05-25 14:17:32			0	35074	0	0	0	22288	20860	143043	27239	989996	40300	108196	0	0	8165	688078	0	0
2024-05-25 14:18:32			0	35066	0	0	0	22303	20870	143047	27362	989977	40311	108202	0	0	8164	688406	0	0
2024-05-25 14:19:32			0	35027	0	0	0	22311	20870	143083	27260	990004	40311	108205	0	0	8162	690194	0	0
2024-05-25 14:20:32			0	35022	0	0	0	22298	20880	143151	27152	990021	40313	108200	0	0	8162	690385	0	0
2024-05-25 14:21:32			0	35026	0	0	0	22309	20880	143195	27267	990082	40301	108204	0	0	8162	690201	0	0
2024-05-25 14:22:32			0	34963	0	0	0	22205	20880	143359	27414	990047	40301	108164	0	0	8161	693096	0	0
2024-05-25 14:23:32			0	34936	0	0	0	22150	20880	143435	27020	989949	40301	108143	0	0	8160	694340	0	0
2024-05-25 14:24:32			0	34918	0	0	0	22080	20870	143523	27201	989738	40289	108116	0	0	8160	695208	0	0
2024-05-25 14:25:32			0	34902	0	0	0	22109	20850	143503	27272	989633	40299	108127	0	0	8159	696024	0	0
2024-05-25 14:26:32			0	34867	0	0	0	22116	20830	143735	27339	989626	40287	108130	0	0	8156	697718	0	0
2024-05-25 14:27:32			0	34852	0	0	0	22114	20820	143803	27241	989662	40295	108129	0	0	8156	698451	0	0
2024-05-25 14:28:32			0	34833	0	0	0	22124	20810	143915	27138	989593	40295	108133	0	0	8154	699370	0	0
2024-05-25 14:29:32			0	34805	0	0	0	22132	20800	144007	27161	989523	40293	108136	0	0	8153	700707	0	0
2024-05-25 14:30:32			0	34775	0	0	0	22163	20800	144147	27159	989637	40294	108148	0	0	8150	702101	0	0
2024-05-25 14:31:32			0	34778	0	0	0	22236	20800	144191	27163	989744	40317	108176	0	0	8149	701961	0	0
2024-05-25 14:32:32			0	34785	0	0	0	22355	20810	144263	27390	989840	40318	108222	0	0	8148	701597	0	0
2024-05-25 14:33:32			0	34786	0	0	0	22418	20840	144287	27280	990033	40332	108246	0	0	8147	701434	0	0
2024-05-25 14:34:32			0	34801	0	0	0	22420	20870	144271	27528	990145	40356	108247	0	0	8148	700621	0	0
2024-05-25 14:35:32			0	34783	0	0	0	22425	20890	144187	27090	990303	40334	108249	0	0	8147	701379	0	0
2024-05-25 14:36:32			0	34778	0	0	0	22438	20910	144263	27083	990345	40337	108254	0	0	8146	701534	0	0
2024-05-25 14:37:32			0	34744	0	0	0	22441	20940	144379	27350	990414	40339	108255	0	0	8145	702997	0	0
2024-05-25 14:38:32			0	34689	0	0	0	22451	20950	144627	27357	990484	40340	108259	0	0	8142	705520	0	0
2024-05-25 14:39:32			0	34648	0	0	0	22480	20960	144607	27348	990633	40331	108270	0	0	8139	707396	0	0
2024-05-25 14:40:32			0	34611	0	0	0	22483	20970	144779	27590	990624	40333	108271	0	0	8137	709087	0	0
2024-05-25 14:41:32			0	34610	0	0	0	22480	20990	144847	27339	990658	40345	108270	0	0	8137	709055	0	0
2024-05-25 14:42:32			0	34589	0	0	0	22488	20990	144815	27372	990639	40333	108273	0	0	8136	710039	0	0
2024-05-25 14:43:32			0	34575	0	0	0	22514	21010	145007	27208	990797	40346	108283	0	0	8134	710617	0	0
2024-05-25 14:44:32			0	34543	0	0	0	22524	21010	145163	27092	990832	40346	108287	0	0	8132	712119	0	0
2024-05-25 14:45:32			0	34555	0	0	0	22545	21020	145035	27081	990841	40358	108295	0	0	8133	711516	0	0
2024-05-25 14:46:32			0	34534	0	0	0	22550	21040	145067	27279	990936	40338	108297	0	0	8132	712423	0	0
2024-05-25 14:47:32			0	34534	0	0	0	22555	21050	145095	27192	990918	40350	108299	0	0	8132	712383	0	0
2024-05-25 14:48:32			0	34548	0	0	0	22535	21060	145047	27305	991049	40351	108291	0	0	8133	711686	0	0
2024-05-25 14:49:32			0	34568	0	0	0	22537	21060	144967	26975	991076	40362	108292	0	0	8134	710748	0	0
2024-05-25 14:50:32			0	34549	0	0	0	22529	21080	144903	27267	991057	40353	108289	0	0	8133	711561	0	0
2024-05-25 14:51:32			0	34570	0	0	0	22527	21080	144919	27171	991057	40353	108288	0	0	8134	710575	0	0
2024-05-25 14:52:32			0	34574	0	0	0	22511	21090	144923	27045	991092	40365	108282	0	0	8135	710348	0	0
2024-05-25 14:53:32			0	34562	0	0	0	22501	21100	145015	27296	991029	40343	108278	0	0	8134	710872	0	0
2024-05-25 14:54:32			0	34557	0	0	0	22506	21090	144963	27145	990994	40343	108280	0	0	8134	711146	0	0
2024-05-25 14:55:32			0	34537	0	0	0	22509	21090	145071	27033	991047	40354	108281	0	0	8133	712085	0	0
2024-05-25 14:56:32			0	34521	0	0	0	22527	21100	145083	27076	991108	40354	108288	0	0	8132	712797	0	0
2024-05-25 14:57:32			0	34530	0	0	0	22511	21100	145107	27229	991090	40344	108282	0	0	8132	712374	0	0
2024-05-25 14:58:32			0	34518	0	0	0	22514	21110	145007	26967	991099	40344	108283	0	0	8132	712898	0	0
2024-05-25 14:59:32			0	34523	0	0	0	22498	21100	145059	26939	991010	40355	108277	0	0	8132	712703	0	0
2024-05-25 15:00:32			0	34548	0	0	0	22496	21100	144951	27027	991010	40333	108276	0	0	8134	711529	0	0
2024-05-25 15:01:32			0	34544	0	0	0	22488	21110	144979	27228	991045	40366	108273	0	0	8134	711677	0	0
2024-05-25 15:02:32			0	34536	0	0	0	22490	21090	144823	27079	991047	40343	108274	0	0	8133	712131	0	0
2024-05-25 15:03:32			0	34538	0	0	0	22488	21100	144971	27369	991082	40343	108273	0	0	8133	711998	0	0
2024-05-25 15:04:32			0	34542	0	0	0	22462	21100	144963	27086	991010	40344	108263	0	0	8134	711810	0	0
2024-05-25 15:05:32			0	34534	0	0	0	22462	21100	144979	27294	990984	40344	108263	0	0	8133	712186	0	0
2024-05-25 15:06:32			0	34528	0	0	0	22454	21100	144887	27248	990975	40354	108260	0	0	8133	712468	0	0
2024-05-25 15:07:32			0	34510	0	0	0	22405	21100	144979	27448	991002	40343	108241	0	0	8133	713314	0	0
2024-05-25 15:08:32			0	34535	0	0	0	22441	21090	144991	27374	990905	40332	108255	0	0	8134	712179	0	0
2024-05-25 15:09:32			0	34501	0	0	0	22451	21090	145107	27741	990852	40332	108259	0	0	8132	713777	0	0
2024-05-25 15:10:32			0	34500	0	0	0	22454	21090	145135	27625	990879	40332	108260	0	0	8132	713824	0	0
2024-05-25 15:11:32			0	34477	0	0	0	22457	21080	145299	27441	990924	40331	108261	0	0	8130	714946	0	0
2024-05-25 15:12:32			0	34472	0	0	0	22449	21090	145315	27166	990959	40332	108258	0	0	8130	715143	0	0
2024-05-25 15:13:32			0	34465	0	0	0	22467	21080	145375	27464	990968	40341	108265	0	0	8129	715512	0	0
2024-05-25 15:14:32			0	34462	0	0	0	22459	21080	145319	27242	991003	40341	108262	0	0	8129	715653	0	0
2024-05-25 15:15:32			0	34501	0	0	0	22472	21080	145239	27196	990977	40331	108267	0	0	8131	713817	0	0
2024-05-25 15:16:32			0	34506	0	0	0	22477	21080	145119	27379	991003	40341	108269	0	0	8131	713581	0	0
2024-05-25 15:17:32			0	34508	0	0	0	22462	21100	145015	27426	991002	40343	108263	0	0	8132	713408	0	0
2024-05-25 15:18:32			0	34556	0	0	0	22451	21090	144835	27281	990959	40353	108259	0	0	8135	711193	0	0
2024-05-25 15:19:32			0	34565	0	0	0	22467	21080	144855	27417	990950	40331	108265	0	0	8135	710810	0	0
2024-05-25 15:20:32			0	34568	0	0	0	22433	21090	144851	27540	990985	40342	108252	0	0	8136	710630	0	0
2024-05-25 15:21:32			0	34572	0	0	0	22431	21080	144739	27658	990942	40331	108251	0	0	8136	710482	0	0
2024-05-25 15:22:32			0	34576	0	0	0	22425	21090	144827	27267	990932	40332	108249	0	0	8136	710255	0	0
2024-05-25 15:23:32			0	34572	0	0	0	22418	21080	144827	27429	990915	40331	108246	0	0	8136	710482	0	0
2024-05-25 15:24:32			0	34579	0	0	0	22412	21080	144891	27415	990844	40341	108244	0	0	8137	710153	0	0
2024-05-25 15:25:32			0	34580	0	0	0	22415	21080	144759	27592	990942	40331	108245	0	0	8137	710106	0	0
2024-05-25 15:26:32			0	34583	0	0	0	22420	21060	144843	27251	990810	40318	108247	0	0	8137	710045	0	0
2024-05-25 15:27:32			0	34569	0	0	0	22415	21080	144747	27088	990862	40331	108245	0	0	8136	710622	0	0
2024-05-25 15:28:32			0	34567	0	0	0	22425	21070	144771	27547	990880	40331	108249	0	0	8136	710755	0	0
2024-05-25 15:29:32			0	34585	0	0	0	22418	21070	144767	27550	990845	40330	108246	0	0	8137	709912	0	0
2024-05-25 15:30:32			0	34581	0	0	0	22451	21080	144771	27346	990915	40331	108259	0	0	8136	710060	0	0
2024-05-25 15:31:32			0	34577	0	0	0	22449	21070	144707	27248	990933	40331	108258	0	0	8136	710286	0	0
2024-05-25 15:32:32			0	34557	0	0	0	22449	21080	144755	27346	990950	40331	108258	0	0	8135	711185	0	0
2024-05-25 15:33:32			0	34555	0	0	0	22446	21070	144787	26968	990960	40331	108257	0	0	8135	711318	0	0
2024-05-25 15:34:32			0	34543	0	0	0	22446	21080	144959	27303	990870	40341	108257	0	0	8134	711842	0	0
2024-05-25 15:35:32			0	34519	0	0	0	22459	21080	145015	27374	990888	40331	108262	0	0	8133	712970	0	0
2024-05-25 15:36:32			0	34492	0	0	0	22488	21080	145147	26972	990968	40320	108273	0	0	8131	714240	0	0
2024-05-25 15:37:32			0	34459	0	0	0	22496	21080	145351	27066	990995	40341	108276	0	0	8129	715795	0	0
2024-05-25 15:38:32			0	34425	0	0	0	22501	21080	145411	27286	991030	40341	108278	0	0	8127	717400	0	0
2024-05-25 15:39:32			0	34420	0	0	0	22488	21090	145403	27223	991073	40343	108273	0	0	8127	717596	0	0
2024-05-25 15:40:32			0	34427	0	0	0	22493	21090	145443	27530	991012	40342	108275	0	0	8127	717265	0	0
2024-05-25 15:41:32			0	34446	0	0	0	22488	21100	145359	27251	991055	40354	108273	0	0	8128	716329	0	0
2024-05-25 15:42:32			0	34455	0	0	0	22511	21100	145371	27438	991090	40344	108282	0	0	8128	715904	0	0
2024-05-25 15:43:32			0	34481	0	0	0	22519	21110	145235	27436	991187	40345	108285	0	0	8130	714639	0	0
2024-05-25 15:44:32			0	34501	0	0	0	22566	21140	145135	27488	991247	40358	108303	0	0	8130	713579	0	0
2024-05-25 15:45:32			0	34566	0	0	0	22563	21140	144939	27353	991335	40359	108302	0	0	8134	710526	0	0
2024-05-25 15:46:32			0	34605	0	0	0	22548	21160	144571	27507	991334	40348	108296	0	0	8136	708621	0	0
2024-05-25 15:47:32			0	34659	0	0	0	22568	21160	144403	27498	991395	40361	108304	0	0	8139	706098	0	0
2024-05-25 15:48:32			0	34708	0	0	0	22589	21170	144319	27140	991457	40361	108312	0	0	8141	703775	0	0
2024-05-25 15:49:32			0	34736	0	0	0	22641	21180	144243	27422	991474	40339	108332	0	0	8142	702434	0	0
2024-05-25 15:50:32			0	34761	0	0	0	22641	21190	144027	27620	991525	40341	108332	0	0	8143	701234	0	0
2024-05-25 15:51:32			0	34757	0	0	0	22675	21200	144059	27435	991534	40352	108345	0	0	8143	701381	0	0
2024-05-25 15:52:32			0	34771	0	0	0	22688	21210	143967	27621	991657	40364	108350	0	0	8143	700692	0	0
2024-05-25 15:53:32			0	34762	0	0	0	22685	21220	144087	27661	991674	40375	108349	0	0	8143	701071	0	0
2024-05-25 15:54:32			0	34747	0	0	0	22696	21220	144059	27277	991682	40366	108353	0	0	8142	701767	0	0
2024-05-25 15:55:32			0	34753	0	0	0	22706	21230	143983	27397	991726	40367	108357	0	0	8142	701450	0	0
2024-05-25 15:56:32			0	34735	0	0	0	22706	21240	144087	27438	991787	40368	108357	0	0	8141	702247	0	0
2024-05-25 15:57:32			0	34708	0	0	0	22716	21250	144239	27324	991840	40357	108361	0	0	8139	703463	0	0
2024-05-25 15:58:32			0	34672	0	0	0	22711	21250	144255	27412	991884	40379	108359	0	0	8138	705139	0	0
2024-05-25 15:59:32			0	34658	0	0	0	22701	21260	144415	27303	991901	40380	108355	0	0	8137	705753	0	0
2024-05-25 16:00:32			0	34637	0	0	0	22625	21260	144503	27547	991883	40369	108326	0	0	8137	706732	0	0
2024-05-25 16:01:32			0	34651	0	0	0	22670	21280	144411	27438	991908	40360	108343	0	0	8137	706001	0	0
2024-05-25 16:02:32			0	34657	0	0	0	22641	21280	144375	27343	991828	40381	108332	0	0	8138	705721	0	0
2024-05-25 16:03:32			0	34674	0	0	0	22620	21290	144367	27384	991898	40372	108324	0	0	8139	704889	0	0
2024-05-25 16:04:32			0	34694	0	0	0	22641	21280	144367	27298	991863	40382	108332	0	0	8140	703997	0	0
2024-05-25 16:05:32			0	34670	0	0	0	22633	21290	144303	27209	991880	40361	108329	0	0	8139	705076	0	0
2024-05-25 16:06:32			0	34672	0	0	0	22649	21280	144415	27291	991943	40382	108335	0	0	8139	705022	0	0
2024-05-25 16:07:32			0	34645	0	0	0	22662	21290	144435	27414	991987	40382	108340	0	0	8137	706241	0	0
2024-05-25 16:08:32			0	34630	0	0	0	22703	21300	144639	27149	992003	40374	108356	0	0	8136	706902	0	0
2024-05-25 16:09:32			0	34600	0	0	0	22716	21310	144675	27478	992012	40363	108361	0	0	8134	708265	0	0
2024-05-25 16:10:32			0	34567	0	0	0	22506	21310	144799	27147	992065	40374	108280	0	0	8135	709809	0	0
2024-05-25 16:11:32			0	34537	0	0	0	22405	21320	144887	27455	992055	40375	108241	0	0	8136	711176	0	0
2024-05-25 16:12:32			0	34548	0	0	0	22238	21320	144831	27215	992029	40363	108177	0	0	8139	710660	0	0
2024-05-25 16:13:32			0	34599	0	0	0	22046	21320	144603	27464	991851	40364	108103	0	0	8145	708272	0	0
2024-05-25 16:14:32			0	34634	0	0	0	21999	21310	144343	27538	991719	40363	108085	0	0	8148	706677	0	0
2024-05-25 16:15:32			0	34663	0	0	0	22033	21290	144187	27208	991667	40349	108098	0	0	8149	705402	0	0
2024-05-25 16:16:32			0	34673	0	0	0	22280	21290	144131	27265	991712	40328	108193	0	0	8145	704936	0	0
2024-05-25 16:17:32			0	34691	0	0	0	22412	21280	144163	27405	991775	40349	108244	0	0	8144	704137	0	0
2024-05-25 16:18:32			0	34684	0	0	0	22527	21290	144287	27486	991845	40361	108288	0	0	8142	704424	0	0
2024-05-25 16:19:32			0	34709	0	0	0	22685	21290	144231	27464	991978	40349	108349	0	0	8140	703260	0	0
2024-05-25 16:20:32			0	34697	0	0	0	22729	21310	144319	27260	992020	40363	108366	0	0	8139	703740	0	0
2024-05-25 16:21:32			0	34670	0	0	0	22625	21310	144455	27331	992065	40363	108326	0	0	8139	704998	0	0
2024-05-25 16:22:32			0	34687	0	0	0	22041	21320	144279	27055	992029	40375	108101	0	0	8150	704167	0	0
2024-05-25 16:23:32			0	34713	0	0	0	22012	21310	144019	27241	991799	40330	108090	0	0	8152	702996	0	0
2024-05-25 16:24:32			0	34756	0	0	0	21820	21310	143695	27171	991586	40307	108016	0	0	8158	700999	0	0
2024-05-25 16:25:32			0	34799	0	0	0	21781	21260	143519	27178	991298	40292	108001	0	0	8160	699200	0	0
2024-05-25 16:26:32			0	34787	0	0	0	22038	21250	143535	27149	991379	40291	108100	0	0	8155	699795	0	0
2024-05-25 16:27:32			0	34782	0	0	0	22561	21230	143627	27336	991487	40323	108301	0	0	8146	700104	0	0
2024-05-25 16:28:32			0	34766	0	0	0	22696	21250	143999	27036	991698	40324	108353	0	0	8143	700769	0	0
2024-05-25 16:29:32			0	34760	0	0	0	22722	21260	144099	27131	991795	40336	108363	0	0	8142	701008	0	0
2024-05-25 16:30:32			0	34757	0	0	0	22628	21260	144115	27507	991883	40336	108327	0	0	8144	701147	0	0
2024-05-25 16:31:32			0	34758	0	0	0	22535	21270	144107	26974	991812	40348	108291	0	0	8145	701062	0	0
2024-05-25 16:32:32			0	34761	0	0	0	22657	21270	144059	27267	991847	40326	108338	0	0	8143	700923	0	0
2024-05-25 16:33:32			0	34755	0	0	0	22716	21280	144027	27218	991943	40361	108361	0	0	8142	701162	0	0
2024-05-25 16:34:32			0	34750	0	0	0	22745	21290	144067	27441	992005	40361	108372	0	0	8141	701355	0	0
2024-05-25 16:35:32			0	34709	0	0	0	22799	21290	144099	27390	992040	40372	108393	0	0	8138	703260	0	0
2024-05-25 16:36:32			0	34700	0	0	0	22786	21310	144327	27341	992145	40363	108388	0	0	8138	703601	0	0
2024-05-25 16:37:32			0	34667	0	0	0	22774	21310	144447	27457	992180	40363	108383	0	0	8136	705137	0	0
2024-05-25 16:38:32			0	34642	0	0	0	22763	21330	144487	26892	992240	40375	108379	0	0	8135	706225	0	0
2024-05-25 16:39:32			0	34622	0	0	0	22774	21340	144483	27066	992275	40354	108383	0	0	8134	707119	0	0
2024-05-25 16:40:32			0	34642	0	0	0	22768	21340	144535	27189	992196	40365	108381	0	0	8135	706185	0	0
2024-05-25 16:41:32			0	34612	0	0	0	22784	21360	144623	27274	992229	40388	108387	0	0	8133	707507	0	0
2024-05-25 16:42:32			0	34614	0	0	0	22799	21350	144691	27234	992274	40367	108393	0	0	8133	707453	0	0
2024-05-25 16:43:32			0	34601	0	0	0	22820	21360	144643	26894	992264	40368	108401	0	0	8132	708021	0	0
2024-05-25 16:44:32			0	34613	0	0	0	22836	21370	144551	27336	992334	40369	108407	0	0	8133	707421	0	0
2024-05-25 16:45:32			0	34624	0	0	0	22841	21380	144515	27209	992396	40379	108409	0	0	8133	706868	0	0
2024-05-25 16:46:32			0	34636	0	0	0	22836	21370	144443	27248	992414	40390	108407	0	0	8134	706348	0	0
2024-05-25 16:47:32			0	34671	0	0	0	22849	21380	144299	27222	992396	40390	108412	0	0	8136	704677	0	0
2024-05-25 16:48:32			0	34697	0	0	0	22844	21380	144119	27324	992484	40380	108410	0	0	8137	703467	0	0
2024-05-25 16:49:32			0	34751	0	0	0	22833	21390	143987	26819	992413	40381	108406	0	0	8141	700919	0	0
2024-05-25 16:50:32			0	34768	0	0	0	22825	21400	143951	27027	992483	40381	108403	0	0	8142	700092	0	0
2024-05-25 16:51:32			0	34799	0	0	0	22823	21400	143863	27163	992429	40370	108402	0	0	8143	698657	0	0
2024-05-25 16:52:32			0	34788	0	0	0	22812	21400	143691	27279	992483	40370	108398	0	0	8143	699166	0	0
2024-05-25 16:53:32			0	34809	0	0	0	22789	21400	143675	26949	992376	40370	108389	0	0	8145	698194	0	0
2024-05-25 16:54:32			0	34834	0	0	0	22781	21400	143727	27046	992376	40381	108386	0	0	8146	697039	0	0
2024-05-25 16:55:32			0	34846	0	0	0	22776	21400	143603	26961	992323	40370	108384	0	0	8147	696485	0	0
2024-05-25 16:56:32			0	34859	0	0	0	22766	21380	143567	26899	992263	40369	108380	0	0	8148	695962	0	0
2024-05-25 16:57:32			0	34880	0	0	0	22753	21370	143511	27116	992281	40369	108375	0	0	8149	695032	0	0
2024-05-25 16:58:32			0	34909	0	0	0	22740	21370	143411	26979	992228	40369	108370	0	0	8151	693697	0	0
2024-05-25 16:59:32			0	34945	0	0	0	22735	21370	143251	27126	992193	40369	108368	0	0	8153	692041	0	0
2024-05-25 17:00:32			0	34938	0	0	0	22732	21360	143219	27244	992184	40389	108367	0	0	8152	692401	0	0
2024-05-25 17:01:32			0	34959	0	0	0	22732	21360	143187	27400	992211	40378	108367	0	0	8154	691437	0	0
2024-05-25 17:02:32			0	34942	0	0	0	22729	21350	143183	27024	992133	40377	108366	0	0	8153	692256	0	0
2024-05-25 17:03:32			0	34947	0	0	0	22729	21360	143227	27317	992203	40367	108366	0	0	8153	691988	0	0
2024-05-25 17:04:32			0	34914	0	0	0	22742	21350	143155	27039	992194	40367	108371	0	0	8151	693543	0	0
2024-05-25 17:05:32			0	34940	0	0	0	22729	21350	143111	27052	992141	40367	108366	0	0	8153	692348	0	0
2024-05-25 17:06:32			0	34931	0	0	0	22735	21350	143231	27081	992114	40367	108368	0	0	8152	692762	0	0
2024-05-25 17:07:32			0	34937	0	0	0	22732	21350	143227	27277	992133	40377	108367	0	0	8152	692486	0	0
2024-05-25 17:08:32			0	34935	0	0	0	22750	21350	143163	27391	992186	40388	108374	0	0	8152	692578	0	0
2024-05-25 17:09:32			0	34913	0	0	0	22771	21350	143263	27261	992186	40388	108382	0	0	8150	693590	0	0
2024-05-25 17:10:32			0	34908	0	0	0	22776	21350	143323	27343	992194	40388	108384	0	0	8150	693820	0	0
2024-05-25 17:11:32			0	34892	0	0	0	22794	21360	143343	27036	992256	40377	108391	0	0	8149	694518	0	0
2024-05-25 17:12:32			0	34873	0	0	0	22781	21350	143443	27308	992221	40388	108386	0	0	8148	695432	0	0
2024-05-25 17:13:32			0	34859	0	0	0	22789	21370	143551	27414	992281	40390	108389	0	0	8147	696001	0	0
2024-05-25 17:14:32			0	34850	0	0	0	22784	21370	143723	27147	992299	40379	108387	0	0	8147	696416	0	0
2024-05-25 17:15:32			0	34830	0	0	0	22766	21360	143755	27066	992229	40377	108380	0	0	8146	697378	0	0
2024-05-25 17:16:32			0	34823	0	0	0	22750	21370	143759	27410	992281	40390	108374	0	0	8146	697663	0	0
2024-05-25 17:17:32			0	34798	0	0	0	22750	21370	143831	27419	992254	40379	108374	0	0	8144	698819	0	0
2024-05-25 17:18:32			0	34755	0	0	0	22745	21350	143831	27332	992194	40377	108372	0	0	8142	700890	0	0
2024-05-25 17:19:32			0	34749	0	0	0	22735	21360	144015	27383	992203	40388	108368	0	0	8142	701129	0	0
2024-05-25 17:20:32			0	34688	0	0	0	22727	21370	144179	27346	992166	40390	108365	0	0	8139	703924	0	0
2024-05-25 17:21:32			0	34668	0	0	0	22714	21360	144287	27348	992123	40367	108360	0	0	8138	704895	0	0
2024-05-25 17:22:32			0	34679	0	0	0	22722	21340	144351	27530	992124	40376	108363	0	0	8138	704461	0	0
2024-05-25 17:23:32			0	34654	0	0	0	22690	21340	144287	27571	992071	40376	108351	0	0	8137	705626	0	0
2024-05-25 17:24:32			0	34696	0	0	0	22672	21340	144219	27194	991956	40365	108344	0	0	8140	703669	0	0
2024-05-25 17:25:32			0	34720	0	0	0	22631	21330	144063	27180	991974	40354	108328	0	0	8142	702592	0	0
2024-05-25 17:26:32			0	34716	0	0	0	22625	21320	144039	27471	992002	40363	108326	0	0	8142	702818	0	0
2024-05-25 17:27:32			0	34752	0	0	0	22592	21300	143971	27486	991844	40363	108313	0	0	8144	701223	0	0
2024-05-25 17:28:32			0	34734	0	0	0	22553	21310	143927	27121	991826	40363	108298	0	0	8144	702020	0	0
2024-05-25 17:29:32			0	34751	0	0	0	22509	21290	143911	27294	991694	40349	108281	0	0	8146	701309	0	0
2024-05-25 17:30:32			0	34752	0	0	0	22511	21280	143895	27322	991571	40349	108282	0	0	8146	701301	0	0
2024-05-25 17:31:32			0	34760	0	0	0	22467	21260	143891	27353	991484	40336	108265	0	0	8147	701008	0	0
2024-05-25 17:32:32			0	34760	0	0	0	22441	21240	143947	27372	991415	40345	108255	0	0	8147	701086	0	0
2024-05-25 17:33:32			0	34741	0	0	0	22405	21230	143855	27466	991372	40344	108241	0	0	8146	702007	0	0
2024-05-25 17:34:32			0	34782	0	0	0	22433	21210	143891	27242	991347	40354	108252	0	0	8148	700182	0	0
2024-05-25 17:35:32			0	34777	0	0	0	22436	21190	143847	27248	991260	40341	108253	0	0	8148	700492	0	0
2024-05-25 17:36:32			0	34774	0	0	0	22415	21190	143899	27493	991127	40319	108245	0	0	8148	700631	0	0
2024-05-25 17:37:32			0	34786	0	0	0	22386	21170	143799	27786	991164	40338	108234	0	0	8149	700152	0	0
2024-05-25 17:38:32			0	34819	0	0	0	22358	21150	143779	27601	991086	40326	108223	0	0	8151	698701	0	0
2024-05-25 17:39:32			0	34826	0	0	0	22361	21150	143715	27455	991024	40326	108224	0	0	8152	698377	0	0
2024-05-25 17:40:32			0	34851	0	0	0	22355	21120	143631	26916	990956	40334	108222	0	0	8153	697337	0	0
2024-05-25 17:41:32			0	34853	0	0	0	22311	21120	143499	27396	990903	40312	108205	0	0	8154	697245	0	0
2024-05-25 17:42:32			0	34903	0	0	0	22306	21100	143419	27171	990771	40333	108203	0	0	8157	695014	0	0
2024-05-25 17:43:32			0	34946	0	0	0	22306	21090	143263	27067	990719	40321	108203	0	0	8159	693072	0	0
2024-05-25 17:44:32			0	34971	0	0	0	22280	21070	143195	27367	990720	40320	108193	0	0	8161	691999	0	0
2024-05-25 17:45:32			0	35016	0	0	0	22264	21060	143023	27362	990704	40340	108187	0	0	8163	689971	0	0
2024-05-25 17:46:32			0	35054	0	0	0	22244	21050	142867	27355	990678	40306	108179	0	0	8166	688269	0	0
2024-05-25 17:47:32			0	35101	0	0	0	22267	21040	142723	27249	990609	40328	108188	0	0	8168	686158	0	0
2024-05-25 17:48:32			0	35152	0	0	0	22210	21030	142520	27339	990600	40316	108166	0	0	8171	683870	0	0
2024-05-25 17:49:32			0	35192	0	0	0	22202	21030	142320	27415	990592	40315	108163	0	0	8174	682049	0	0
2024-05-25 17:50:32			0	35240	0	0	0	22145	21030	142204	27149	990618	40327	108141	0	0	8177	679869	0	0
2024-05-25 17:51:32			0	35302	0	0	0	22109	21020	141920	27272	990548	40314	108127	0	0	8181	677099	0	0
2024-05-25 17:52:32			0	35347	0	0	0	22272	21010	141732	26965	990665	40325	108190	0	0	8181	675104	0	0
2024-05-25 17:53:32			0	35359	0	0	0	22366	21020	141684	27312	990761	40325	108226	0	0	8180	674525	0	0
2024-05-25 17:54:32			0	35388	0	0	0	22415	21030	141604	27336	990831	40327	108245	0	0	8181	673181	0	0
2024-05-25 17:55:32			0	35393	0	0	0	22275	21030	141468	27215	990786	40328	108191	0	0	8184	672955	0	0
2024-05-25 17:56:32			0	35446	0	0	0	22145	21040	141280	27055	990768	40328	108141	0	0	8189	670535	0	0
2024-05-25 17:57:32			0	35503	0	0	0	22199	21030	141124	27460	990627	40328	108162	0	0	8191	668017	0	0
2024-05-25 17:58:32			0	35495	0	0	0	22223	21030	141072	27649	990786	40338	108171	0	0	8190	668375	0	0
2024-05-25 17:59:32			0	35509	0	0	0	22373	21040	141128	27301	990848	40338	108229	0	0	8188	667711	0	0
2024-05-25 18:00:32			0	35507	0	0	0	22394	21040	141144	26948	990936	40328	108237	0	0	8188	667801	0	0
2024-05-25 18:01:32			0	35484	0	0	0	22350	21050	141196	27436	990891	40339	108220	0	0	8187	668794	0	0
2024-05-25 18:02:32			0	35498	0	0	0	22184	21050	141232	27322	990891	40339	108156	0	0	8191	668167	0	0
2024-05-25 18:03:32			0	35474	0	0	0	22199	21050	141200	27199	990820	40307	108162	0	0	8189	669242	0	0
2024-05-25 18:04:32			0	35475	0	0	0	22010	21050	141224	27128	990678	40317	108089	0	0	8193	669197	0	0
2024-05-25 18:05:32			0	35429	0	0	0	22077	21030	141276	27409	990539	40283	108115	0	0	8189	671336	0	0
2024-05-25 18:06:32			0	35383	0	0	0	22197	21020	141536	27296	990655	40314	108161	0	0	8184	673443	0	0
2024-05-25 18:07:32			0	35331	0	0	0	22176	21020	141696	27213	990663	40303	108153	0	0	8182	675788	0	0
2024-05-25 18:08:32			0	35333	0	0	0	22166	21010	141768	26958	990699	40302	108149	0	0	8182	675735	0	0
2024-05-25 18:09:32			0	35305	0	0	0	22176	21030	141780	27298	990698	40315	108153	0	0	8180	676926	0	0
2024-05-25 18:10:32			0	35277	0	0	0	22145	21010	141920	27168	990753	40314	108141	0	0	8179	678268	0	0
2024-05-25 18:11:32			0	35278	0	0	0	21984	21020	141904	27123	990663	40326	108079	0	0	8182	678185	0	0
2024-05-25 18:12:32			0	35292	0	0	0	21862	21010	141780	27282	990434	40302	108032	0	0	8185	677589	0	0
2024-05-25 18:13:32			0	35322	0	0	0	21786	20990	141628	27530	990267	40268	108003	0	0	8188	676307	0	0
2024-05-25 18:14:32			0	35361	0	0	0	21797	20970	141476	27405	990207	40277	108007	0	0	8190	674622	0	0
2024-05-25 18:15:32			0	35421	0	0	0	22306	20970	141364	27447	990420	40299	108203	0	0	8184	671919	0	0
2024-05-25 18:16:32			0	35411	0	0	0	22503	20980	141584	27220	990667	40310	108279	0	0	8180	672332	0	0
2024-05-25 18:17:32			0	35400	0	0	0	22485	21000	141616	26776	990816	40313	108272	0	0	8180	672752	0	0
2024-05-25 18:18:32			0	35414	0	0	0	22405	21030	141536	27326	990911	40337	108241	0	0	8182	672011	0	0
2024-05-25 18:19:32			0	35451	0	0	0	22418	21040	141392	27287	990928	40316	108246	0	0	8184	670311	0	0
2024-05-25 18:20:32			0	35453	0	0	0	22498	21050	141352	27327	991032	40329	108277	0	0	8183	670184	0	0
2024-05-25 18:21:32			0	35421	0	0	0	22480	21060	141508	27409	991076	40307	108270	0	0	8182	671584	0	0
2024-05-25 18:22:32			0	35418	0	0	0	22558	21070	141444	27355	991146	40320	108300	0	0	8180	671682	0	0
2024-05-25 18:23:32			0	35375	0	0	0	22527	21100	141636	27457	991241	40333	108288	0	0	8179	673505	0	0
2024-05-25 18:24:32			0	35295	0	0	0	22509	21100	141908	27223	991268	40333	108281	0	0	8175	677115	0	0
2024-05-25 18:25:32			0	35246	0	0	0	22558	21110	142184	27234	991258	40344	108300	0	0	8171	679296	0	0
2024-05-25 18:26:32			0	35166	0	0	0	22566	21130	142468	27326	991292	40334	108303	0	0	8167	682853	0	0
2024-05-25 18:27:32			0	35144	0	0	0	22558	21140	142588	27166	991327	40347	108300	0	0	8166	683817	0	0
2024-05-25 18:28:32			0	35136	0	0	0	22522	21150	142476	27287	991370	40336	108286	0	0	8166	684143	0	0
2024-05-25 18:29:32			0	35158	0	0	0	22522	21150	142524	27081	991397	40336	108286	0	0	8167	683141	0	0
2024-05-25 18:30:32			0	35148	0	0	0	22586	21160	142532	27069	991440	40327	108311	0	0	8165	683559	0	0
2024-05-25 18:31:32			0	35164	0	0	0	22597	21170	142452	27203	991404	40349	108315	0	0	8166	682792	0	0
2024-05-25 18:32:32			0	35147	0	0	0	22607	21170	142496	26948	991457	40338	108319	0	0	8165	683566	0	0
2024-05-25 18:33:32			0	35134	0	0	0	22594	21170	142528	27381	991430	40338	108314	0	0	8165	684158	0	0
2024-05-25 18:34:32			0	35137	0	0	0	22589	21170	142484	27024	991377	40349	108312	0	0	8165	684022	0	0
2024-05-25 18:35:32			0	35144	0	0	0	22597	21170	142484	27022	991483	40349	108315	0	0	8165	683703	0	0
2024-05-25 18:36:32			0	35139	0	0	0	22605	21180	142400	27196	991500	40350	108318	0	0	8165	683893	0	0
2024-05-25 18:37:32			0	35151	0	0	0	22633	21190	142464	27161	991544	40340	108329	0	0	8165	683308	0	0
2024-05-25 18:38:32			0	35146	0	0	0	22636	21180	142400	27372	991562	40351	108330	0	0	8165	683574	0	0
2024-05-25 18:39:32			0	35163	0	0	0	22623	21210	142432	27279	991577	40353	108325	0	0	8166	682687	0	0
2024-05-25 18:40:32			0	35162	0	0	0	22633	21200	142332	27279	991534	40352	108329	0	0	8166	682770	0	0
2024-05-25 18:41:32			0	35176	0	0	0	22620	21200	142432	27093	991534	40341	108324	0	0	8167	682133	0	0
2024-05-25 18:42:32			0	35193	0	0	0	22594	21210	142304	27097	991551	40364	108314	0	0	8168	681323	0	0
2024-05-25 18:43:32			0	35186	0	0	0	22610	21200	142232	27067	991507	40352	108320	0	0	8167	681679	0	0
2024-05-25 18:44:32			0	35205	0	0	0	22602	21200	142252	27249	991507	40352	108317	0	0	8169	680816	0	0
2024-05-25 18:45:32			0	35214	0	0	0	22568	21190	142196	27384	991499	40341	108304	0	0	8170	680445	0	0
2024-05-25 18:46:32			0	35230	0	0	0	22584	21200	142164	27124	991507	40352	108310	0	0	8170	679682	0	0
2024-05-25 18:47:32			0	35235	0	0	0	22599	21200	142096	27379	991454	40352	108316	0	0	8170	679455	0	0
2024-05-25 18:48:32			0	35243	0	0	0	22594	21200	142144	27514	991516	40364	108314	0	0	8171	679092	0	0
2024-05-25 18:49:32			0	35245	0	0	0	22568	21200	142060	27154	991534	40352	108304	0	0	8171	679002	0	0
2024-05-25 18:50:32			0	35262	0	0	0	22537	21200	142020	26922	991534	40341	108292	0	0	8173	678232	0	0
2024-05-25 18:51:32			0	35270	0	0	0	22516	21190	141908	27348	991411	40340	108284	0	0	8173	677908	0	0
2024-05-25 18:52:32			0	35283	0	0	0	22501	21200	141876	27594	991374	40341	108278	0	0	8174	677282	0	0
2024-05-25 18:53:32			0	35274	0	0	0	22501	21180	141884	27227	991341	40339	108278	0	0	8174	677764	0	0
2024-05-25 18:54:32			0	35271	0	0	0	22490	21160	141852	27066	991342	40338	108274	0	0	8174	677975	0	0
2024-05-25 18:55:32			0	35237	0	0	0	22496	21160	142068	27293	991236	40349	108276	0	0	8172	679515	0	0
2024-05-25 18:56:32			0	35206	0	0	0	22493	21160	142140	27478	991227	40337	108275	0	0	8170	680921	0	0
2024-05-25 18:57:32			0	35195	0	0	0	22496	21140	142184	27424	991176	40348	108276	0	0	8170	681497	0	0
2024-05-25 18:58:32			0	35174	0	0	0	22514	21140	142380	27313	991202	40348	108283	0	0	8168	682451	0	0
2024-05-25 18:59:32			0	35159	0	0	0	22511	21140	142404	27317	991255	40348	108282	0	0	8167	683134	0	0
2024-05-25 19:00:32			0	35160	0	0	0	22503	21150	142508	27445	991211	40336	108279	0	0	8168	683050	0	0
2024-05-25 19:01:32			0	35148	0	0	0	22490	21150	142508	27445	991237	40336	108274	0	0	8167	683597	0	0
2024-05-25 19:02:32			0	35147	0	0	0	22485	21130	142452	27296	991185	40334	108272	0	0	8167	683718	0	0
2024-05-25 19:03:32			0	35129	0	0	0	22485	21130	142436	27244	991159	40346	108272	0	0	8166	684538	0	0
2024-05-25 19:04:32			0	35155	0	0	0	22462	21130	142492	27119	991150	40324	108263	0	0	8168	683354	0	0
2024-05-25 19:05:32			0	35146	0	0	0	22444	21100	142412	27284	991037	40322	108256	0	0	8168	683877	0	0
2024-05-25 19:06:32			0	35175	0	0	0	22438	21100	142324	27005	991037	40344	108254	0	0	8169	682557	0	0
2024-05-25 19:07:32			0	35207	0	0	0	22436	21100	142244	27222	991029	40333	108253	0	0	8171	681103	0	0
2024-05-25 19:08:32			0	35224	0	0	0	22418	21090	142164	27133	990940	40343	108246	0	0	8172	680369	0	0
2024-05-25 19:09:32			0	35243	0	0	0	22405	21090	141980	26861	990905	40332	108241	0	0	8173	679507	0	0
2024-05-25 19:10:32			0	35256	0	0	0	22405	21080	142044	27192	990862	40331	108241	0	0	8174	678955	0	0
2024-05-25 19:11:32			0	35254	0	0	0	22397	21070	141988	27076	990872	40330	108238	0	0	8174	679084	0	0
2024-05-25 19:12:32			0	35265	0	0	0	22379	21060	142028	27199	990863	40340	108231	0	0	8175	678623	0	0
2024-05-25 19:13:32			0	35248	0	0	0	22296	21050	142008	26923	990820	40329	108199	0	0	8175	679431	0	0
2024-05-25 19:14:32			0	35248	0	0	0	22254	21050	141976	27322	990678	40328	108183	0	0	8176	679431	0	0
2024-05-25 19:15:32			0	35270	0	0	0	22236	21040	141892	27052	990723	40328	108176	0	0	8178	678472	0	0
2024-05-25 19:16:32			0	35326	0	0	0	22194	21040	141716	27277	990582	40328	108160	0	0	8181	675939	0	0
2024-05-25 19:17:32			0	35365	0	0	0	22142	21020	141572	27095	990557	40303	108140	0	0	8184	674254	0	0
2024-05-25 19:18:32			0	35423	0	0	0	22015	21020	141336	27338	990495	40314	108091	0	0	8190	671643	0	0
2024-05-25 19:19:32			0	35461	0	0	0	21867	21000	141096	27154	990169	40279	108034	0	0	8194	670011	0	0
2024-05-25 19:20:32			0	35503	0	0	0	21815	20960	140864	27547	989924	40265	108014	0	0	8197	668276	0	0
2024-05-25 19:21:32			0	35537	0	0	0	21831	20910	140836	27034	989707	40250	108020	0	0	8198	666939	0	0
2024-05-25 19:22:32			0	35560	0	0	0	21870	20880	140776	27149	989569	40269	108035	0	0	8199	666022	0	0
2024-05-25 19:23:32			0	35579	0	0	0	21916	20850	140744	27041	989580	40266	108053	0	0	8199	665284	0	0
2024-05-25 19:24:32			0	35595	0	0	0	22098	20840	140804	27242	989768	40298	108123	0	0	8197	664606	0	0
2024-05-25 19:25:32			0	35583	0	0	0	22236	20840	140840	27150	989856	40320	108176	0	0	8194	665142	0	0
2024-05-25 19:26:32			0	35583	0	0	0	22262	20860	141036	27119	990040	40322	108186	0	0	8193	665068	0	0
2024-05-25 19:27:32			0	35591	0	0	0	22194	20870	140944	27010	990110	40322	108160	0	0	8195	664674	0	0
2024-05-25 19:28:32			0	35598	0	0	0	22168	20880	140892	26923	990100	40301	108150	0	0	8196	664325	0	0
2024-05-25 19:29:32			0	35602	0	0	0	22096	20880	140796	27246	990082	40291	108122	0	0	8197	664147	0	0
2024-05-25 19:30:32			0	35622	0	0	0	21927	20870	140716	27244	989898	40289	108057	0	0	8201	663292	0	0
2024-05-25 19:31:32			0	35637	0	0	0	21854	20850	140616	27246	989740	40266	108029	0	0	8203	662697	0	0
2024-05-25 19:32:32			0	35653	0	0	0	21820	20840	140564	27164	989582	40288	108016	0	0	8205	662022	0	0
2024-05-25 19:33:32			0	35640	0	0	0	21810	20810	140604	27222	989460	40251	108012	0	0	8204	662711	0	0
2024-05-25 19:34:32			0	35639	0	0	0	21781	20780	140512	27379	989258	40250	108001	0	0	8204	662865	0	0
2024-05-25 19:35:32			0	35650	0	0	0	21755	20750	140536	27300	989128	40236	107991	0	0	8205	662485	0	0
2024-05-25 19:36:32			0	35649	0	0	0	21812	20720	140552	27124	989043	40232	108013	0	0	8204	662640	0	0
2024-05-25 19:37:32			0	35652	0	0	0	22010	20700	140772	27239	989169	40263	108089	0	0	8201	662580	0	0
2024-05-25 19:38:32			0	35653	0	0	0	22241	20710	140748	27281	989451	40287	108178	0	0	8197	662499	0	0
2024-05-25 19:39:32			0	35646	0	0	0	22171	20740	140760	27150	989581	40299	108151	0	0	8198	662700	0	0
2024-05-25 19:40:32			0	35647	0	0	0	22114	20760	140780	27429	989748	40301	108129	0	0	8199	662582	0	0
2024-05-25 19:41:32			0	35650	0	0	0	22106	20770	140744	27249	989853	40314	108126	0	0	8199	662412	0	0
2024-05-25 19:42:32			0	35651	0	0	0	22158	20800	140800	27093	989948	40305	108146	0	0	8198	662258	0	0
2024-05-25 19:43:32			0	35632	0	0	0	22072	20810	140800	27208	989911	40295	108113	0	0	8199	663067	0	0
2024-05-25 19:44:32			0	35590	0	0	0	22137	20820	140876	27256	989928	40306	108138	0	0	8196	664903	0	0
2024-05-25 19:45:32			0	35527	0	0	0	22223	20820	141088	27204	989963	40307	108171	0	0	8191	667720	0	0
2024-05-25 19:46:32			0	35487	0	0	0	22225	20840	141228	27464	990033	40309	108172	0	0	8189	669438	0	0
2024-05-25 19:47:32			0	35426	0	0	0	22228	20840	141540	27220	990095	40298	108173	0	0	8185	672179	0	0
2024-05-25 19:48:32			0	35374	0	0	0	22192	20860	141796	27357	990120	40311	108159	0	0	8183	674446	0	0
2024-05-25 19:49:32			0	35313	0	0	0	22096	20860	141984	27348	990067	40300	108122	0	0	8181	677202	0	0
2024-05-25 19:50:32			0	35267	0	0	0	22088	20860	142204	27524	990014	40300	108119	0	0	8179	679285	0	0
2024-05-25 19:51:32			0	35196	0	0	0	22077	20850	142372	27260	989899	40299	108115	0	0	8175	682548	0	0
2024-05-25 19:52:32			0	35147	0	0	0	22090	20850	142512	27147	989944	40298	108120	0	0	8172	684780	0	0
2024-05-25 19:53:32			0	35126	0	0	0	22103	20850	142676	27402	989944	40288	108125	0	0	8171	685739	0	0
2024-05-25 19:54:32			0	35071	0	0	0	22122	20840	142903	27561	989935	40298	108132	0	0	8168	688291	0	0
2024-05-25 19:55:32			0	35073	0	0	0	22067	20840	142839	27454	989882	40298	108111	0	0	8169	688200	0	0
2024-05-25 19:56:32			0	35088	0	0	0	22038	20830	142927	27438	989865	40275	108100	0	0	8170	687551	0	0
2024-05-25 19:57:32			0	35095	0	0	0	21979	20830	142863	27568	989732	40264	108077	0	0	8171	687231	0	0
2024-05-25 19:58:32			0	35116	0	0	0	22018	20810	142623	27682	989601	40285	108092	0	0	8172	686347	0	0
2024-05-25 19:59:32			0	35177	0	0	0	22158	20800	142464	27303	989717	40294	108146	0	0	8173	683602	0	0
2024-05-25 20:00:32			0	35197	0	0	0	22212	20800	142440	27495	989868	40293	108167	0	0	8173	682691	0	0
2024-05-25 20:01:32			0	35222	0	0	0	22212	20800	142384	27507	989903	40284	108167	0	0	8174	681554	0	0
2024-05-25 20:02:32			0	35260	0	0	0	22238	20810	142308	27301	989965	40295	108177	0	0	8176	679791	0	0
2024-05-25 20:03:32			0	35268	0	0	0	22218	20810	142244	27313	989965	40318	108169	0	0	8177	679428	0	0
2024-05-25 20:04:32			0	35270	0	0	0	22199	20830	142112	27383	989918	40319	108162	0	0	8177	679262	0	0
2024-05-25 20:05:32			0	35260	0	0	0	22228	20840	142132	27481	989954	40298	108173	0	0	8176	679678	0	0
2024-05-25 20:06:32			0	35268	0	0	0	22199	20850	142080	27223	989970	40309	108162	0	0	8177	679277	0	0
2024-05-25 20:07:32			0	35278	0	0	0	22174	20840	142176	27462	989980	40298	108152	0	0	8178	678862	0	0
2024-05-25 20:08:32			0	35263	0	0	0	22168	20830	142200	27225	989998	40297	108150	0	0	8177	679579	0	0
2024-05-25 20:09:32			0	35259	0	0	0	22153	20840	142020	27300	989935	40309	108144	0	0	8177	679723	0	0
2024-05-25 20:10:32			0	35278	0	0	0	22184	20840	142108	27189	989935	40298	108156	0	0	8178	678862	0	0
2024-05-25 20:11:32			0	35289	0	0	0	22163	20840	142072	27066	989954	40309	108148	0	0	8179	678363	0	0
2024-05-25 20:12:32			0	35300	0	0	0	22184	20840	142000	27076	989989	40309	108156	0	0	8179	677865	0	0
2024-05-25 20:13:32			0	35305	0	0	0	22158	20840	141956	27287	989962	40309	108146	0	0	8180	677639	0	0
2024-05-25 20:14:32			0	35308	0	0	0	22101	20840	141928	26916	989847	40298	108124	0	0	8181	677503	0	0
2024-05-25 20:15:32			0	35323	0	0	0	21958	20820	141832	27111	989716	40285	108069	0	0	8184	676899	0	0
2024-05-25 20:16:32			0	35376	0	0	0	21851	20810	141648	27315	989460	40262	108028	0	0	8189	674543	0	0
2024-05-25 20:17:32			0	35394	0	0	0	21786	20770	141460	27459	989313	40270	108003	0	0	8191	673881	0	0
2024-05-25 20:18:32			0	35442	0	0	0	21786	20740	141268	27305	989183	40267	108003	0	0	8193	671831	0	0
2024-05-25 20:19:32			0	35457	0	0	0	21792	20710	141308	27230	989026	40253	108005	0	0	8194	671268	0	0
2024-05-25 20:20:32			0	35469	0	0	0	21768	20690	141300	27488	988921	40241	107996	0	0	8195	670803	0	0
2024-05-25 20:21:32			0	35480	0	0	0	21794	20670	141188	27254	988746	40250	108006	0	0	8195	670383	0	0
2024-05-25 20:22:32			0	35486	0	0	0	21820	20640	141268	27270	988802	40247	108016	0	0	8195	670225	0	0
2024-05-25 20:23:32			0	35492	0	0	0	21867	20640	141356	27229	988882	40268	108034	0	0	8194	669955	0	0
2024-05-25 20:24:32			0	35486	0	0	0	21940	20630	141296	27422	988972	40267	108062	0	0	8192	670262	0	0
2024-05-25 20:25:32			0	35498	0	0	0	22067	20630	141484	27386	989139	40279	108111	0	0	8191	669723	0	0
2024-05-25 20:26:32			0	35470	0	0	0	22096	20650	141500	27455	989306	40303	108122	0	0	8189	670906	0	0
2024-05-25 20:27:32			0	35492	0	0	0	22132	20680	141464	27556	989401	40284	108136	0	0	8190	669807	0	0
2024-05-25 20:28:32			0	35491	0	0	0	22137	20690	141460	27358	989471	40306	108138	0	0	8190	669815	0	0
2024-05-25 20:29:32			0	35503	0	0	0	22101	20700	141432	27066	989434	40286	108124	0	0	8191	669239	0	0
2024-05-25 20:30:32			0	35512	0	0	0	22088	20710	141364	27246	989478	40297	108119	0	0	8192	668799	0	0
2024-05-25 20:31:32			0	35524	0	0	0	22135	20710	141220	27222	989513	40287	108137	0	0	8192	668261	0	0
2024-05-25 20:32:32			0	35529	0	0	0	22148	20710	141180	27138	989539	40297	108142	0	0	8192	668037	0	0
2024-05-25 20:33:32			0	35526	0	0	0	22171	20730	141220	27223	989591	40310	108151	0	0	8191	668097	0	0
2024-05-25 20:34:32			0	35547	0	0	0	22155	20740	141304	27395	989661	40299	108145	0	0	8193	667120	0	0
2024-05-25 20:35:32			0	35535	0	0	0	22189	20750	141228	27488	989678	40300	108158	0	0	8191	667620	0	0
2024-05-25 20:36:32			0	35521	0	0	0	22212	20740	141296	27417	989670	40300	108167	0	0	8190	668284	0	0
2024-05-25 20:37:32			0	35521	0	0	0	22171	20750	141352	27660	989686	40301	108151	0	0	8191	668247	0	0
2024-05-25 20:38:32			0	35500	0	0	0	22155	20760	141280	27267	989676	40302	108145	0	0	8190	669152	0	0
2024-05-25 20:39:32			0	35488	0	0	0	22205	20770	141256	27403	989720	40303	108164	0	0	8189	669653	0	0
2024-05-25 20:40:32			0	35487	0	0	0	22215	20770	141376	27232	989738	40303	108168	0	0	8189	669698	0	0
2024-05-25 20:41:32			0	35469	0	0	0	22192	20770	141428	27460	989746	40314	108159	0	0	8188	670506	0	0
2024-05-25 20:42:32			0	35481	0	0	0	22176	20780	141468	27545	989755	40314	108153	0	0	8189	669930	0	0
2024-05-25 20:43:32			0	35487	0	0	0	22174	20780	141420	27289	989781	40314	108152	0	0	8189	669661	0	0
2024-05-25 20:44:32			0	35472	0	0	0	22127	20780	141404	27317	989710	40293	108134	0	0	8189	670334	0	0
2024-05-25 20:45:32			0	35474	0	0	0	22072	20770	141356	27232	989579	40314	108113	0	0	8190	670281	0	0
2024-05-25 20:46:32			0	35471	0	0	0	22098	20770	141360	27410	989667	40292	108123	0	0	8190	670416	0	0
2024-05-25 20:47:32			0	35456	0	0	0	22153	20770	141524	27033	989605	40303	108144	0	0	8188	671090	0	0
2024-05-25 20:48:32			0	35411	0	0	0	22150	20760	141584	27270	989641	40312	108143	0	0	8185	673152	0	0
2024-05-25 20:49:32			0	35407	0	0	0	22098	20770	141592	27365	989658	40303	108123	0	0	8186	673295	0	0
2024-05-25 20:50:32			0	35395	0	0	0	22119	20770	141704	27208	989667	40303	108131	0	0	8185	673836	0	0
2024-05-25 20:51:32			0	35389	0	0	0	22158	20770	141676	27133	989685	40303	108146	0	0	8184	674106	0	0
2024-05-25 20:52:32			0	35361	0	0	0	22171	20770	141728	27322	989632	40303	108151	0	0	8182	675370	0	0
2024-05-25 20:53:32			0	35362	0	0	0	22077	20780	141844	26752	989595	40292	108115	0	0	8184	675287	0	0
2024-05-25 20:54:32			0	35357	0	0	0	22067	20770	141816	27001	989579	40303	108111	0	0	8184	675550	0	0
2024-05-25 20:55:32			0	35360	0	0	0	22096	20760	141768	27166	989570	40302	108122	0	0	8184	675452	0	0
2024-05-25 20:56:32			0	35364	0	0	0	22106	20760	141792	27057	989623	40291	108126	0	0	8184	675272	0	0
2024-05-25 20:57:32			0	35345	0	0	0	22116	20750	141764	27358	989607	40291	108130	0	0	8182	676167	0	0
2024-05-25 20:58:32			0	35345	0	0	0	22119	20770	141864	27039	989632	40314	108131	0	0	8182	676092	0	0
2024-05-25 20:59:32			0	35360	0	0	0	22122	20760	141808	27279	989615	40301	108132	0	0	8183	675452	0	0
2024-05-25 21:00:32			0	35367	0	0	0	22161	20760	141920	27232	989615	40301	108147	0	0	8183	675136	0	0
2024-05-25 21:01:32			0	35330	0	0	0	22171	20770	141904	27157	989658	40303	108151	0	0	8181	676770	0	0
2024-05-25 21:02:32			0	35325	0	0	0	22176	20760	142000	27114	989676	40302	108153	0	0	8180	677034	0	0
2024-05-25 21:03:32			0	35304	0	0	0	22176	20770	142056	27369	989685	40325	108153	0	0	8179	677947	0	0
2024-05-25 21:04:32			0	35270	0	0	0	22168	20760	142168	27241	989623	40302	108150	0	0	8177	679525	0	0
2024-05-25 21:05:32			0	35284	0	0	0	22163	20760	142204	27343	989703	40313	108148	0	0	8178	678891	0	0
2024-05-25 21:06:32			0	35280	0	0	0	22168	20770	142124	27215	989632	40292	108150	0	0	8178	679034	0	0
2024-05-25 21:07:32			0	35279	0	0	0	22176	20760	142152	27431	989676	40302	108153	0	0	8178	679117	0	0
2024-05-25 21:08:32			0	35282	0	0	0	22176	20760	142068	27168	989650	40313	108153	0	0	8178	678981	0	0
2024-05-25 21:09:32			0	35289	0	0	0	22168	20760	142004	27045	989695	40324	108150	0	0	8178	678664	0	0
2024-05-25 21:10:32			0	35321	0	0	0	22176	20770	141896	27105	989632	40314	108153	0	0	8180	677177	0	0
2024-05-25 21:11:32			0	35319	0	0	0	22179	20750	141964	27218	989686	40291	108154	0	0	8180	677343	0	0
2024-05-25 21:12:32			0	35348	0	0	0	22176	20750	141912	27286	989660	40301	108153	0	0	8182	676032	0	0
2024-05-25 21:13:32			0	35336	0	0	0	22184	20770	141940	27386	989658	40325	108156	0	0	8181	676499	0	0
2024-05-25 21:14:32			0	35331	0	0	0	22181	20760	141940	27483	989676	40313	108155	0	0	8181	676762	0	0
2024-05-25 21:15:32			0	35268	0	0	0	22179	20770	142132	27255	989685	40325	108154	0	0	8177	679578	0	0
2024-05-25 21:16:32			0	35263	0	0	0	22184	20760	142132	27263	989623	40302	108156	0	0	8177	679843	0	0
2024-05-25 21:17:32			0	35258	0	0	0	22184	20760	142236	27105	989703	40313	108156	0	0	8177	680070	0	0
2024-05-25 21:18:32			0	35243	0	0	0	22184	20760	142280	27234	989650	40324	108156	0	0	8176	680751	0	0
2024-05-25 21:19:32			0	35250	0	0	0	22174	20760	142228	27107	989703	40313	108152	0	0	8176	680433	0	0
2024-05-25 21:20:32			0	35273	0	0	0	22176	20760	142276	27443	989623	40313	108153	0	0	8177	679389	0	0
2024-05-25 21:21:32			0	35279	0	0	0	22166	20760	142160	27301	989703	40302	108149	0	0	8178	679117	0	0
2024-05-25 21:22:32			0	35299	0	0	0	22168	20760	142104	27300	989676	40302	108150	0	0	8179	678211	0	0
2024-05-25 21:23:32			0	35261	0	0	0	22171	20760	142228	27440	989650	40302	108151	0	0	8177	679934	0	0
2024-05-25 21:24:32			0	35256	0	0	0	22174	20760	142292	27180	989668	40301	108152	0	0	8177	680161	0	0
2024-05-25 21:25:32			0	35206	0	0	0	22176	20760	142420	27124	989615	40312	108153	0	0	8174	682433	0	0
2024-05-25 21:26:32			0	35183	0	0	0	22150	20760	142552	27325	989623	40313	108143	0	0	8173	683480	0	0
2024-05-25 21:27:32			0	35168	0	0	0	22142	20760	142600	27614	989588	40301	108140	0	0	8172	684164	0	0
2024-05-25 21:28:32			0	35170	0	0	0	22135	20770	142580	27602	989658	40314	108137	0	0	8173	684035	0	0
2024-05-25 21:29:32			0	35186	0	0	0	22098	20760	142560	27390	989650	40313	108123	0	0	8174	683343	0	0
2024-05-25 21:30:32			0	35189	0	0	0	22098	20760	142424	27152	989562	40324	108123	0	0	8174	683207	0	0
2024-05-25 21:31:32			0	35186	0	0	0	22064	20750	142396	27093	989518	40323	108110	0	0	8175	683381	0	0
2024-05-25 21:32:32			0	35182	0	0	0	22059	20740	142544	27140	989483	40311	108108	0	0	8174	683601	0	0
2024-05-25 21:33:32			0	35166	0	0	0	22041	20750	142576	27386	989492	40300	108101	0	0	8174	684293	0	0
2024-05-25 21:34:32			0	35143	0	0	0	22015	20740	142556	27131	989483	40323	108091	0	0	8173	685380	0	0
2024-05-25 21:35:32			0	35140	0	0	0	21932	20730	142600	27319	989379	40298	108059	0	0	8174	685555	0	0
2024-05-25 21:36:32			0	35149	0	0	0	21950	20710	142532	27336	989274	40297	108066	0	0	8174	685220	0	0
2024-05-25 21:37:32			0	35123	0	0	0	22020	20710	142680	27450	989300	40308	108093	0	0	8172	686407	0	0
2024-05-25 21:38:32			0	35134	0	0	0	22051	20700	142568	27241	989336	40308	108105	0	0	8172	685943	0	0
2024-05-25 21:39:32			0	35129	0	0	0	22038	20700	142620	27833	989363	40287	108100	0	0	8172	686171	0	0
2024-05-25 21:40:32			0	35151	0	0	0	21961	20700	142616	27630	989283	40297	108070	0	0	8174	685167	0	0
2024-05-25 21:41:32			0	35150	0	0	0	21929	20700	142532	27260	989275	40286	108058	0	0	8175	685212	0	0
2024-05-25 21:42:32			0	35154	0	0	0	21937	20700	142572	27138	989195	40286	108061	0	0	8175	685030	0	0
2024-05-25 21:43:32			0	35152	0	0	0	21981	20680	142580	27098	989170	40284	108078	0	0	8174	685197	0	0
2024-05-25 21:44:32			0	35170	0	0	0	21950	20680	142536	27286	989143	40294	108066	0	0	8175	684376	0	0
2024-05-25 21:45:32			0	35165	0	0	0	21932	20680	142516	27185	989055	40284	108059	0	0	8175	684603	0	0
2024-05-25 21:46:32			0	35187	0	0	0	21903	20660	142448	27211	989022	40282	108048	0	0	8177	683676	0	0
2024-05-25 21:47:32			0	35191	0	0	0	21924	20640	142396	27182	988944	40280	108056	0	0	8177	683570	0	0
2024-05-25 21:48:32			0	35210	0	0	0	21924	20640	142316	27429	988962	40268	108056	0	0	8178	682704	0	0
2024-05-25 21:49:32			0	35209	0	0	0	21924	20630	142324	27083	988927	40279	108056	0	0	8178	682788	0	0
2024-05-25 21:50:32			0	35240	0	0	0	21875	20630	142268	27234	988865	40279	108037	0	0	8180	681377	0	0
2024-05-25 21:51:32			0	35264	0	0	0	21867	20620	142120	27229	988902	40266	108034	0	0	8182	680325	0	0
2024-05-25 21:52:32			0	35297	0	0	0	21896	20620	142124	27237	988822	40278	108045	0	0	8183	678827	0	0
2024-05-25 21:53:32			0	35309	0	0	0	21922	20600	142088	27324	988842	40276	108055	0	0	8183	678359	0	0
2024-05-25 21:54:32			0	35305	0	0	0	21953	20610	142000	27433	988911	40277	108067	0	0	8182	678502	0	0
2024-05-25 21:55:32			0	35361	0	0	0	21981	20600	142000	27402	988930	40277	108078	0	0	8185	676005	0	0
2024-05-25 21:56:32			0	35390	0	0	0	21880	20610	141816	27232	988991	40298	108039	0	0	8188	674658	0	0
2024-05-25 21:57:32			0	35437	0	0	0	21779	20610	141696	27507	988779	40277	108000	0	0	8192	672540	0	0
2024-05-25 21:58:32			0	35473	0	0	0	21722	20590	141460	27123	988612	40264	107978	0	0	8195	670994	0	0
2024-05-25 21:59:32			0	35482	0	0	0	21735	20570	141252	27249	988472	40262	107983	0	0	8195	670664	0	0
2024-05-25 22:00:32			0	35526	0	0	0	21763	20560	141204	27440	988641	40272	107994	0	0	8197	668726	0	0
2024-05-25 22:01:32			0	35535	0	0	0	21771	20550	141228	27417	988553	40260	107997	0	0	8198	668359	0	0
2024-05-25 22:02:32			0	35570	0	0	0	21823	20550	141128	27637	988518	40272	108017	0	0	8199	666792	0	0
2024-05-25 22:03:32			0	35564	0	0	0	21919	20550	141064	27386	988545	40283	108054	0	0	8197	667060	0	0
2024-05-25 22:04:32			0	35574	0	0	0	21906	20560	141032	27409	988756	40262	108049	0	0	8198	666576	0	0
2024-05-25 22:05:32			0	35592	0	0	0	21932	20560	141048	27076	988774	40272	108059	0	0	8198	665771	0	0
2024-05-25 22:06:32			0	35594	0	0	0	21903	20560	141004	27176	988783	40285	108048	0	0	8199	665682	0	0
2024-05-25 22:07:32			0	35560	0	0	0	21914	20570	141168	27213	988773	40273	108052	0	0	8197	667166	0	0
2024-05-25 22:08:32			0	35486	0	0	0	21919	20560	141468	27274	988756	40295	108054	0	0	8193	670521	0	0
2024-05-25 22:09:32			0	35376	0	0	0	22012	20580	141900	27376	988834	40307	108090	0	0	8185	675402	0	0
2024-05-25 22:10:32			0	35251	0	0	0	22020	20580	142468	27528	988941	40296	108093	0	0	8178	681066	0	0
2024-05-25 22:11:32			0	35111	0	0	0	22051	20580	142987	27371	988941	40296	108105	0	0	8170	687450	0	0
2024-05-25 22:12:32			0	34956	0	0	0	22064	20590	143539	27493	988993	40297	108110	0	0	8161	694533	0	0
2024-05-25 22:13:32			0	34844	0	0	0	22031	20600	144039	27289	989036	40298	108097	0	0	8156	699673	0	0
2024-05-25 22:14:32			0	34777	0	0	0	22046	20610	144323	27393	989044	40298	108103	0	0	8152	702747	0	0
2024-05-25 22:15:32			0	34705	0	0	0	22044	20610	144647	27376	989018	40288	108102	0	0	8148	706102	0	0
2024-05-25 22:16:32			0	34600	0	0	0	22054	20610	145067	27422	989044	40288	108106	0	0	8142	711018	0	0
2024-05-25 22:17:32			0	34492	0	0	0	22025	20610	145447	27332	988991	40298	108095	0	0	8136	716102	0	0
2024-05-25 22:18:32			0	34383	0	0	0	22046	20610	145839	27227	989026	40289	108103	0	0	8130	721261	0	0
2024-05-25 22:19:32			0	34355	0	0	0	22025	20610	145995	27410	989026	40299	108095	0	0	8128	722591	0	0
2024-05-25 22:20:32			0	34354	0	0	0	22018	20620	146031	27497	989008	40289	108092	0	0	8129	722599	0	0
2024-05-25 22:21:32			0	34342	0	0	0	22023	20610	145986	27319	989000	40299	108094	0	0	8128	723209	0	0
2024-05-25 22:22:32			0	34328	0	0	0	22015	20610	146110	27402	988946	40289	108091	0	0	8127	723875	0	0
2024-05-25 22:23:32			0	34332	0	0	0	21999	20620	146126	27419	989034	40289	108085	0	0	8128	723645	0	0
2024-05-25 22:24:32			0	34307	0	0	0	21973	20620	146302	27511	989034	40299	108075	0	0	8127	724835	0	0
2024-05-25 22:25:32			0	34272	0	0	0	21942	20610	146358	27440	988973	40299	108063	0	0	8125	726545	0	0
2024-05-25 22:26:32			0	34251	0	0	0	21961	20620	146394	27244	988963	40279	108070	0	0	8124	727507	0	0
2024-05-25 22:27:32			0	34241	0	0	0	21971	20610	146574	27800	988938	40288	108074	0	0	8123	728025	0	0
2024-05-25 22:28:32			0	34225	0	0	0	21997	20610	146614	27628	988946	40289	108084	0	0	8122	728791	0	0
2024-05-25 22:29:32			0	34219	0	0	0	21989	20600	146626	27312	988868	40287	108081	0	0	8121	729118	0	0
2024-05-25 22:30:32			0	34209	0	0	0	21971	20600	146522	27260	988876	40277	108074	0	0	8121	729597	0	0
2024-05-25 22:31:32			0	34230	0	0	0	21976	20600	146566	27265	988895	40276	108076	0	0	8122	728592	0	0
2024-05-25 22:32:32			0	34241	0	0	0	21968	20600	146574	27291	988895	40287	108073	0	0	8123	728066	0	0
2024-05-25 22:33:32			0	34247	0	0	0	21966	20600	146598	27076	988921	40287	108072	0	0	8123	727779	0	0
2024-05-25 22:34:32			0	34209	0	0	0	21973	20590	146662	27313	988886	40297	108075	0	0	8121	729637	0	0
2024-05-25 22:35:32			0	34193	0	0	0	21984	20600	146742	27519	988868	40287	108079	0	0	8120	730363	0	0
2024-05-25 22:36:32			0	34164	0	0	0	21999	20590	146802	27557	988913	40287	108085	0	0	8118	731795	0	0
2024-05-25 22:37:32			0	34161	0	0	0	22007	20590	146998	27216	988913	40276	108088	0	0	8118	731939	0	0
2024-05-25 22:38:32			0	34133	0	0	0	21999	20580	146878	27422	988896	40286	108085	0	0	8116	733325	0	0
2024-05-25 22:39:32			0	34114	0	0	0	21973	20600	147026	27540	988948	40297	108075	0	0	8116	734158	0	0
2024-05-25 22:40:32			0	34114	0	0	0	21984	20600	147022	27182	988903	40310	108079	0	0	8115	734158	0	0
2024-05-25 22:41:32			0	34102	0	0	0	21986	20590	147186	27147	988904	40286	108080	0	0	8115	734776	0	0
2024-05-25 22:42:32			0	34084	0	0	0	21984	20590	147158	27528	988904	40286	108079	0	0	8114	735643	0	0
2024-05-25 22:43:32			0	34085	0	0	0	22005	20590	147206	27727	988886	40297	108087	0	0	8113	735595	0	0
2024-05-25 22:44:32			0	34085	0	0	0	21986	20590	147106	27357	988966	40297	108080	0	0	8114	735595	0	0
2024-05-25 22:45:32			0	34104	0	0	0	21976	20600	147098	27324	989009	40298	108076	0	0	8115	734639	0	0
2024-05-25 22:46:32			0	34125	0	0	0	21961	20600	147038	27291	988876	40298	108070	0	0	8117	733628	0	0
2024-05-25 22:47:32			0	34150	0	0	0	21914	20590	146922	27209	988913	40297	108052	0	0	8119	732467	0	0
2024-05-25 22:48:32			0	34147	0	0	0	21885	20590	146802	27410	988833	40287	108041	0	0	8119	732612	0	0
2024-05-25 22:49:32			0	34215	0	0	0	21872	20590	146706	27369	988745	40286	108036	0	0	8123	729350	0	0
2024-05-25 22:50:32			0	34251	0	0	0	21875	20570	146422	27364	988632	40285	108037	0	0	8125	727709	0	0
2024-05-25 22:51:32			0	34325	0	0	0	21922	20560	146198	27381	988676	40285	108055	0	0	8128	724218	0	0
2024-05-25 22:52:32			0	34360	0	0	0	21981	20560	145995	27128	988783	40295	108078	0	0	8129	722553	0	0
2024-05-25 22:53:32			0	34420	0	0	0	22010	20560	145899	27383	988854	40294	108089	0	0	8132	719706	0	0
2024-05-25 22:54:32			0	34454	0	0	0	22018	20570	145763	27333	988906	40295	108092	0	0	8134	718056	0	0
2024-05-25 22:55:32			0	34509	0	0	0	22023	20590	145575	27357	988957	40308	108094	0	0	8137	715379	0	0
2024-05-25 22:56:32			0	34489	0	0	0	22023	20590	145503	27329	988993	40297	108094	0	0	8136	716323	0	0
2024-05-25 22:57:32			0	34483	0	0	0	22025	20590	145531	27521	988984	40296	108095	0	0	8136	716606	0	0
2024-05-25 22:58:32			0	34468	0	0	0	22012	20600	145575	27274	988956	40298	108090	0	0	8135	717275	0	0
2024-05-25 22:59:32			0	34466	0	0	0	22025	20600	145711	27376	989054	40297	108095	0	0	8135	717370	0	0
2024-05-25 23:00:32			0	34431	0	0	0	22033	20610	145627	27422	989097	40298	108098	0	0	8133	718986	0	0
2024-05-25 23:01:32			0	34436	0	0	0	22028	20600	145707	27478	988948	40297	108096	0	0	8133	718789	0	0
2024-05-25 23:02:32			0	34453	0	0	0	22031	20610	145595	27338	989079	40299	108097	0	0	8134	717945	0	0
2024-05-25 23:03:32			0	34449	0	0	0	22049	20610	145623	27351	989071	40298	108104	0	0	8133	718134	0	0
2024-05-25 23:04:32			0	34457	0	0	0	22036	20610	145603	27530	989106	40299	108099	0	0	8134	717756	0	0
2024-05-25 23:05:32			0	34507	0	0	0	22028	20620	145539	27112	989043	40322	108096	0	0	8137	715355	0	0
2024-05-25 23:06:32			0	34505	0	0	0	22028	20620	145379	27538	989069	40300	108096	0	0	8137	715449	0	0
2024-05-25 23:07:32			0	34545	0	0	0	22028	20620	145279	27322	989043	40300	108096	0	0	8139	713564	0	0
2024-05-25 23:08:32			0	34552	0	0	0	22023	20620	145183	27150	989088	40289	108094	0	0	8140	713235	0	0
2024-05-25 23:09:32			0	34560	0	0	0	22028	20620	145115	27020	989061	40299	108096	0	0	8140	712859	0	0
2024-05-25 23:10:32			0	34557	0	0	0	22012	20620	145259	27156	989016	40290	108090	0	0	8140	713000	0	0
2024-05-25 23:11:32			0	34556	0	0	0	22012	20620	145263	27027	989088	40310	108090	0	0	8140	713047	0	0
2024-05-25 23:12:32			0	34527	0	0	0	22002	20620	145295	27351	989016	40311	108086	0	0	8139	714412	0	0
2024-05-25 23:13:32			0	34517	0	0	0	21999	20620	145267	27261	989016	40311	108085	0	0	8138	714883	0	0
2024-05-25 23:14:32			0	34501	0	0	0	22002	20620	145343	27338	988981	40299	108086	0	0	8137	715638	0	0
2024-05-25 23:15:32			0	34513	0	0	0	21992	20620	145375	27365	989016	40300	108082	0	0	8138	715072	0	0
2024-05-25 23:16:32			0	34514	0	0	0	21986	20630	145383	27326	988998	40290	108080	0	0	8138	714985	0	0
2024-05-25 23:17:32			0	34510	0	0	0	21984	20610	145415	27287	988991	40288	108079	0	0	8138	715253	0	0
2024-05-25 23:18:32			0	34515	0	0	0	21973	20610	145303	27405	988938	40298	108075	0	0	8138	715017	0	0
2024-05-25 23:19:32			0	34527	0	0	0	21961	20590	145339	27474	988913	40297	108070	0	0	8139	714531	0	0
2024-05-25 23:20:32			0	34538	0	0	0	21955	20600	145283	27213	988921	40287	108068	0	0	8140	713973	0	0
2024-05-25 23:21:32			0	34523	0	0	0	21945	20600	145363	27480	988850	40288	108064	0	0	8139	714680	0	0
2024-05-25 23:22:32			0	34514	0	0	0	21940	20580	145387	27251	988816	40275	108062	0	0	8139	715183	0	0
2024-05-25 23:23:32			0	34479	0	0	0	21929	20590	145447	27189	988745	40286	108058	0	0	8137	716795	0	0
2024-05-25 23:24:32			0	34472	0	0	0	21929	20580	145507	27232	988710	40296	108058	0	0	8137	717166	0	0
2024-05-25 23:25:32			0	34470	0	0	0	21914	20570	145587	27495	988773	40285	108052	0	0	8137	717300	0	0
2024-05-25 23:26:32			0	34459	0	0	0	21906	20570	145563	27121	988711	40285	108049	0	0	8136	717820	0	0
2024-05-25 23:27:32			0	34457	0	0	0	21898	20560	145455	27376	988703	40285	108046	0	0	8136	717954	0	0
2024-05-25 23:28:32			0	34468	0	0	0	21880	20550	145515	27346	988633	40283	108039	0	0	8137	717474	0	0
2024-05-25 23:29:32			0	34508	0	0	0	21883	20560	145407	27192	988668	40284	108040	0	0	8139	715545	0	0
2024-05-25 23:30:32			0	34502	0	0	0	21880	20520	145307	27107	988565	40270	108039	0	0	8139	715987	0	0
2024-05-25 23:31:32			0	34546	0	0	0	21883	20540	145271	27248	988563	40283	108040	0	0	8141	713833	0	0
2024-05-25 23:32:32			0	34578	0	0	0	21862	20530	145111	27289	988520	40291	108032	0	0	8143	712367	0	0
2024-05-25 23:33:32			0	34597	0	0	0	21859	20520	144991	27130	988503	40269	108031	0	0	8144	711513	0	0
2024-05-25 23:34:32			0	34625	0	0	0	21864	20520	144947	27293	988485	40281	108033	0	0	8146	710199	0	0
2024-05-25 23:35:32			0	34665	0	0	0	21851	20510	144787	27185	988495	40280	108028	0	0	8148	708364	0	0
2024-05-25 23:36:32			0	34683	0	0	0	21864	20510	144671	26948	988486	40290	108033	0	0	8149	707522	0	0
2024-05-25 23:37:32			0	34723	0	0	0	21867	20510	144435	27519	988460	40290	108034	0	0	8151	705653	0	0
2024-05-25 23:38:32			0	34766	0	0	0	21872	20490	144451	27260	988453	40289	108036	0	0	8153	703725	0	0
2024-05-25 23:39:32			0	34794	0	0	0	21854	20500	144303	27149	988496	40290	108029	0	0	8155	702383	0	0
2024-05-25 23:40:32			0	34827	0	0	0	21846	20480	144087	26785	988418	40288	108026	0	0	8157	700927	0	0
2024-05-25 23:41:32			0	34872	0	0	0	21849	20490	144015	27104	988435	40290	108027	0	0	8160	698801	0	0
2024-05-25 23:42:32			0	34890	0	0	0	21836	20490	143855	27163	988408	40278	108022	0	0	8161	697967	0	0
2024-05-25 23:43:32			0	34910	0	0	0	21825	20480	143779	27220	988418	40288	108018	0	0	8162	697080	0	0
2024-05-25 23:44:32			0	34927	0	0	0	21818	20480	143551	27067	988285	40277	108015	0	0	8163	696294	0	0
2024-05-25 23:45:32			0	34930	0	0	0	21818	20460	143591	27301	988358	40275	108015	0	0	8163	696233	0	0
2024-05-25 23:46:32			0	34928	0	0	0	21810	20460	143723	27010	988278	40264	108012	0	0	8163	696325	0	0
2024-05-25 23:47:32			0	34928	0	0	0	21802	20460	143667	26880	988252	40264	108009	0	0	8163	696325	0	0
2024-05-25 23:48:32			0	34922	0	0	0	21786	20450	143679	27223	988234	40252	108003	0	0	8163	696641	0	0
2024-05-25 23:49:32			0	34901	0	0	0	21761	20440	143783	27464	988077	40272	107993	0	0	8163	697651	0	0
2024-05-25 23:50:32			0	34896	0	0	0	21753	20430	143799	27263	988095	40272	107990	0	0	8162	697921	0	0
2024-05-25 23:51:32			0	34890	0	0	0	21750	20430	143919	27199	988060	40261	107989	0	0	8162	698199	0	0
2024-05-25 23:52:32			0	34859	0	0	0	21750	20420	144023	26967	988043	40270	107989	0	0	8160	699674	0	0
2024-05-25 23:53:32			0	34847	0	0	0	21735	20420	144119	27064	987990	40259	107983	0	0	8160	700231	0	0
2024-05-25 23:54:32			0	34861	0	0	0	21735	20410	144191	27010	987946	40282	107983	0	0	8161	699620	0	0
2024-05-25 23:55:32			0	34828	0	0	0	21729	20400	144267	27476	988009	40257	107981	0	0	8159	701191	0	0
2024-05-25 23:56:32			0	34813	0	0	0	21729	20390	144239	27199	987921	40269	107981	0	0	8158	701926	0	0
2024-05-25 23:57:32			0	34803	0	0	0	21719	20380	144327	27457	987904	40256	107977	0	0	8158	702430	0	0
2024-05-25 23:58:32			0	34757	0	0	0	21716	20370	144399	26826	987861	40266	107976	0	0	8155	704612	0	0
2024-05-25 23:59:32			0	34732	0	0	0	21709	20370	144619	27374	987879	40255	107973	0	0	8154	705779	0	0
2024-05-26 00:00:32			0	34697	0	0	0	21709	20370	144715	27556	987861	40255	107973	0	0	8152	707414	0	0
2024-05-26 00:01:32			0	34670	0	0	0	21703	20360	144843	26970	987871	40266	107971	0	0	8150	708717	0	0
2024-05-26 00:02:32			0	34643	0	0	0	21711	20360	144887	27104	987863	40254	107974	0	0	8149	709983	0	0
2024-05-26 00:03:32			0	34619	0	0	0	21709	20360	145027	27098	987844	40277	107973	0	0	8147	711109	0	0
2024-05-26 00:04:32			0	34574	0	0	0	21711	20340	145119	27114	987837	40253	107974	0	0	8145	713304	0	0
2024-05-26 00:05:32			0	34557	0	0	0	21703	20350	145311	27026	987766	40253	107971	0	0	8144	714065	0	0
2024-05-26 00:06:32			0	34576	0	0	0	21711	20340	145291	26814	987758	40264	107974	0	0	8145	713209	0	0
2024-05-26 00:07:32			0	34541	0	0	0	21722	20350	145407	27071	987819	40287	107978	0	0	8143	714819	0	0
2024-05-26 00:08:32			0	34527	0	0	0	21727	20340	145471	27161	987723	40263	107980	0	0	8142	715519	0	0
2024-05-26 00:09:32			0	34535	0	0	0	21714	20340	145439	27036	987776	40263	107975	0	0	8143	715141	0	0
2024-05-26 00:10:32			0	34561	0	0	0	21719	20350	145419	27293	987846	40275	107977	0	0	8144	713876	0	0
2024-05-26 00:11:32			0	34567	0	0	0	21724	20350	145335	27093	987846	40264	107979	0	0	8144	713594	0	0
2024-05-26 00:12:32			0	34552	0	0	0	21711	20340	145375	26951	987829	40275	107974	0	0	8144	714340	0	0
2024-05-26 00:13:32			0	34539	0	0	0	21714	20340	145459	27260	987776	40252	107975	0	0	8143	714953	0	0
2024-05-26 00:14:32			0	34527	0	0	0	21701	20350	145523	27142	987828	40253	107970	0	0	8142	715479	0	0
2024-05-26 00:15:32			0	34492	0	0	0	21698	20340	145475	27303	987802	40275	107969	0	0	8140	717172	0	0
2024-05-26 00:16:32			0	34480	0	0	0	21709	20340	145611	27332	987776	40275	107973	0	0	8140	717739	0	0
2024-05-26 00:17:32			0	34475	0	0	0	21714	20330	145735	27443	987794	40251	107975	0	0	8139	718015	0	0
2024-05-26 00:18:32			0	34459	0	0	0	21706	20320	145771	26717	987697	40262	107972	0	0	8138	718812	0	0
2024-05-26 00:19:32			0	34487	0	0	0	21703	20330	145807	27473	987794	40262	107971	0	0	8140	717448	0	0
2024-05-26 00:20:32			0	34477	0	0	0	21703	20320	145795	27223	987742	40262	107971	0	0	8139	717960	0	0
2024-05-26 00:21:32			0	34488	0	0	0	21693	20330	145755	27121	987732	40262	107967	0	0	8140	717401	0	0
2024-05-26 00:22:32			0	34494	0	0	0	21690	20310	145651	27086	987760	40261	107966	0	0	8141	717196	0	0
2024-05-26 00:23:32			0	34503	0	0	0	21683	20320	145683	27350	987697	40274	107963	0	0	8141	716731	0	0
2024-05-26 00:24:32			0	34491	0	0	0	21693	20320	145543	27277	987671	40262	107967	0	0	8140	717298	0	0
2024-05-26 00:25:32			0	34513	0	0	0	21714	20320	145523	27156	987742	40262	107975	0	0	8141	716259	0	0
2024-05-26 00:26:32			0	34539	0	0	0	21727	20310	145459	27161	987760	40261	107980	0	0	8142	715071	0	0
2024-05-26 00:27:32			0	34541	0	0	0	21732	20310	145423	27007	987707	40272	107982	0	0	8142	714977	0	0
2024-05-26 00:28:32			0	34565	0	0	0	21727	20320	145387	27438	987751	40274	107980	0	0	8144	713806	0	0
2024-05-26 00:29:32			0	34573	0	0	0	21740	20320	145271	27301	987804	40274	107985	0	0	8144	713429	0	0
2024-05-26 00:30:32			0	34583	0	0	0	21735	20330	145275	27287	987785	40285	107983	0	0	8145	712919	0	0
2024-05-26 00:31:32			0	34567	0	0	0	21750	20340	145247	27518	987829	40252	107989	0	0	8144	713633	0	0
2024-05-26 00:32:32			0	34554	0	0	0	21737	20340	145299	27272	987802	40263	107984	0	0	8143	714246	0	0
2024-05-26 00:33:32			0	34551	0	0	0	21742	20330	145347	27339	987820	40274	107986	0	0	8143	714426	0	0
2024-05-26 00:34:32			0	34534	0	0	0	21737	20330	145299	27057	987794	40274	107984	0	0	8142	715228	0	0
2024-05-26 00:35:32			0	34529	0	0	0	21748	20330	145479	27374	987794	40262	107988	0	0	8142	715464	0	0
2024-05-26 00:36:32			0	34512	0	0	0	21727	20330	145623	27104	987873	40274	107980	0	0	8141	716266	0	0
2024-05-26 00:37:32			0	34484	0	0	0	21740	20340	145587	27248	987829	40263	107985	0	0	8139	717550	0	0
2024-05-26 00:38:32			0	34447	0	0	0	21742	20340	145663	27350	987855	40263	107986	0	0	8137	719301	0	0
2024-05-26 00:39:32			0	34450	0	0	0	21742	20330	145863	27251	987794	40274	107986	0	0	8137	719199	0	0
2024-05-26 00:40:32			0	34429	0	0	0	21737	20340	145947	27274	987811	40287	107984	0	0	8136	720155	0	0
2024-05-26 00:41:32			0	34410	0	0	0	21737	20340	146027	27267	987837	40275	107984	0	0	8135	721056	0	0
2024-05-26 00:42:32			0	34404	0	0	0	21750	20340	146119	27317	987891	40275	107989	0	0	8135	721341	0	0
2024-05-26 00:43:32			0	34392	0	0	0	21745	20340	146091	27001	987855	40275	107987	0	0	8134	721911	0	0
2024-05-26 00:44:32			0	34371	0	0	0	21745	20340	146155	27072	987891	40287	107987	0	0	8133	722909	0	0
2024-05-26 00:45:32			0	34372	0	0	0	21753	20340	146111	27090	987855	40263	107990	0	0	8133	722862	0	0
2024-05-26 00:46:32			0	34324	0	0	0	21745	20330	146150	27573	987847	40262	107987	0	0	8130	725187	0	0
2024-05-26 00:47:32			0	34320	0	0	0	21753	20340	146326	27388	987855	40275	107990	0	0	8130	725338	0	0
2024-05-26 00:48:32			0	34270	0	0	0	21740	20330	146482	27235	987873	40262	107985	0	0	8127	727766	0	0
2024-05-26 00:49:32			0	34256	0	0	0	21735	20340	146574	27428	987829	40263	107983	0	0	8127	728395	0	0
2024-05-26 00:50:32			0	34231	0	0	0	21740	20340	146694	27254	987891	40264	107985	0	0	8125	729592	0	0
2024-05-26 00:51:32			0	34233	0	0	0	21735	20350	146794	27133	987881	40287	107983	0	0	8125	729456	0	0
2024-05-26 00:52:32			0	34229	0	0	0	21735	20340	146818	27253	987829	40275	107983	0	0	8125	729688	0	0
2024-05-26 00:53:32			0	34193	0	0	0	21737	20340	146850	26970	987855	40263	107984	0	0	8123	731414	0	0
2024-05-26 00:54:32			0	34181	0	0	0	21740	20340	146910	27289	987802	40275	107985	0	0	8122	731990	0	0
2024-05-26 00:55:32			0	34143	0	0	0	21737	20350	147030	27015	987828	40264	107984	0	0	8120	733776	0	0
2024-05-26 00:56:32			0	34122	0	0	0	21737	20330	147166	27133	987820	40262	107984	0	0	8119	734869	0	0
2024-05-26 00:57:32			0	34119	0	0	0	21735	20330	147214	27053	987794	40274	107983	0	0	8119	735013	0	0
2024-05-26 00:58:32			0	34084	0	0	0	21740	20330	147398	27405	987812	40262	107985	0	0	8117	736701	0	0
2024-05-26 00:59:32			0	34046	0	0	0	21724	20330	147494	27100	987794	40274	107979	0	0	8115	738537	0	0
2024-05-26 01:00:32			0	34015	0	0	0	21722	20330	147586	27180	987820	40274	107978	0	0	8113	740038	0	0
2024-05-26 01:01:32			0	33985	0	0	0	21727	20330	147770	27327	987794	40251	107980	0	0	8111	741492	0	0
2024-05-26 01:02:32			0	33977	0	0	0	21727	20330	147766	27464	987847	40285	107980	0	0	8111	741881	0	0
2024-05-26 01:03:32			0	33953	0	0	0	21719	20320	147870	27526	987777	40274	107977	0	0	8109	743087	0	0
2024-05-26 01:04:32			0	33944	0	0	0	21722	20330	147914	27530	987794	40262	107978	0	0	8109	743484	0	0
2024-05-26 01:05:32			0	33941	0	0	0	21727	20330	148058	27383	987865	40262	107980	0	0	8109	743629	0	0
2024-05-26 01:06:32			0	33929	0	0	0	21729	20330	148070	27178	987785	40274	107981	0	0	8108	744213	0	0
2024-05-26 01:07:32			0	33942	0	0	0	21737	20340	148014	27036	987802	40263	107984	0	0	8109	743540	0	0
2024-05-26 01:08:32			0	33925	0	0	0	21716	20330	147926	27078	987820	40285	107976	0	0	8108	744408	0	0
2024-05-26 01:09:32			0	33938	0	0	0	21724	20320	148026	27293	987769	40262	107979	0	0	8109	743817	0	0
2024-05-26 01:10:32			0	33934	0	0	0	21719	20320	148014	27488	987777	40274	107977	0	0	8108	744011	0	0
2024-05-26 01:11:32			0	33922	0	0	0	21722	20330	148066	27504	987785	40274	107978	0	0	8108	744554	0	0
2024-05-26 01:12:32			0	33914	0	0	0	21722	20330	148122	27154	987839	40262	107978	0	0	8107	744943	0	0
2024-05-26 01:13:32			0	33904	0	0	0	21724	20330	148162	27015	987785	40274	107979	0	0	8107	745431	0	0
2024-05-26 01:14:32			0	33901	0	0	0	21724	20330	148246	27317	987767	40262	107979	0	0	8106	745577	0	0
2024-05-26 01:15:32			0	33909	0	0	0	21716	20320	148106	27043	987751	40262	107976	0	0	8107	745228	0	0
2024-05-26 01:16:32			0	33900	0	0	0	21719	20320	148082	27338	987751	40285	107977	0	0	8106	745667	0	0
2024-05-26 01:17:32			0	33922	0	0	0	21698	20330	148014	27261	987732	40262	107969	0	0	8108	744554	0	0
2024-05-26 01:18:32			0	33920	0	0	0	21651	20320	147974	27081	987795	40262	107951	0	0	8109	744693	0	0
2024-05-26 01:19:32			0	33910	0	0	0	21706	20320	148010	27388	987724	40274	107972	0	0	8107	745180	0	0
2024-05-26 01:20:32			0	33925	0	0	0	21711	20310	148098	27192	987707	40272	107974	0	0	8108	744490	0	0
2024-05-26 01:21:32			0	33926	0	0	0	21685	20320	148054	27388	987742	40250	107964	0	0	8108	744401	0	0
2024-05-26 01:22:32			0	33908	0	0	0	21667	20310	148042	27409	987707	40272	107957	0	0	8108	745318	0	0
2024-05-26 01:23:32			0	33912	0	0	0	21670	20310	148082	27417	987707	40261	107958	0	0	8108	745123	0	0
2024-05-26 01:24:32			0	33891	0	0	0	21685	20310	148078	27274	987707	40261	107964	0	0	8106	746147	0	0
2024-05-26 01:25:32			0	33903	0	0	0	21696	20310	148106	27573	987752	40260	107968	0	0	8107	745562	0	0
2024-05-26 01:26:32			0	33892	0	0	0	21662	20310	148190	27310	987672	40260	107955	0	0	8107	746098	0	0
2024-05-26 01:27:32			0	33882	0	0	0	21618	20310	148214	27260	987628	40250	107938	0	0	8107	746586	0	0
2024-05-26 01:28:32			0	33913	0	0	0	21628	20300	148122	27403	987637	40271	107942	0	0	8109	745116	0	0
2024-05-26 01:29:32			0	33926	0	0	0	21654	20300	147998	27393	987584	40250	107952	0	0	8109	744483	0	0
2024-05-26 01:30:32			0	33937	0	0	0	21675	20290	147966	27317	987621	40259	107960	0	0	8109	743988	0	0
2024-05-26 01:31:32			0	33970	0	0	0	21672	20280	147842	27377	987657	40269	107959	0	0	8111	742425	0	0
2024-05-26 01:32:32			0	34008	0	0	0	21672	20300	147686	27708	987629	40260	107959	0	0	8113	740500	0	0
2024-05-26 01:33:32			0	34004	0	0	0	21680	20300	147606	27478	987656	40260	107962	0	0	8113	740694	0	0
2024-05-26 01:34:32			0	34022	0	0	0	21693	20300	147586	27298	987602	40260	107967	0	0	8114	739822	0	0
2024-05-26 01:35:32			0	33999	0	0	0	21685	20290	147682	27537	987665	40258	107964	0	0	8113	740977	0	0
2024-05-26 01:36:32			0	33952	0	0	0	21664	20300	147850	27203	987629	40260	107956	0	0	8110	743218	0	0
2024-05-26 01:37:32			0	33915	0	0	0	21667	20300	148090	27242	987629	40260	107957	0	0	8108	745018	0	0
2024-05-26 01:38:32			0	33850	0	0	0	21664	20290	148274	27059	987639	40280	107956	0	0	8104	748231	0	0
2024-05-26 01:39:32			0	33822	0	0	0	21680	20280	148426	27341	987604	40269	107962	0	0	8102	749642	0	0
2024-05-26 01:40:32			0	33776	0	0	0	21675	20300	148702	27267	987602	40282	107960	0	0	8100	751812	0	0
2024-05-26 01:41:32			0	33739	0	0	0	21649	20300	148778	27208	987629	40271	107950	0	0	8098	753629	0	0
2024-05-26 01:42:32			0	33712	0	0	0	21644	20280	148806	27391	987604	40258	107948	0	0	8097	755041	0	0
2024-05-26 01:43:32			0	33688	0	0	0	21615	20280	148878	27216	987604	40258	107937	0	0	8096	756223	0	0
2024-05-26 01:44:32			0	33698	0	0	0	21610	20270	148878	27227	987534	40257	107935	0	0	8096	755772	0	0
2024-05-26 01:45:32			0	33719	0	0	0	21620	20270	148814	27505	987473	40256	107939	0	0	8097	754738	0	0
2024-05-26 01:46:32			0	33753	0	0	0	21659	20260	148818	27601	987464	40256	107954	0	0	8099	753108	0	0
2024-05-26 01:47:32			0	33761	0	0	0	21657	20280	148642	27213	987498	40258	107953	0	0	8099	752632	0	0
2024-05-26 01:48:32			0	33789	0	0	0	21646	20260	148506	27717	987464	40256	107949	0	0	8101	751341	0	0
2024-05-26 01:49:32			0	33803	0	0	0	21599	20270	148438	27246	987454	40268	107931	0	0	8103	750613	0	0
2024-05-26 01:50:32			0	33814	0	0	0	21638	20260	148490	27189	987464	40246	107946	0	0	8103	750116	0	0
2024-05-26 01:51:32			0	33812	0	0	0	21644	20270	148558	27327	987507	40268	107948	0	0	8102	750172	0	0
2024-05-26 01:52:32			0	33813	0	0	0	21646	20260	148510	27350	987464	40256	107949	0	0	8102	750165	0	0
2024-05-26 01:53:32			0	33797	0	0	0	21651	20250	148614	27571	987501	40255	107951	0	0	8101	750990	0	0
2024-05-26 01:54:32			0	33771	0	0	0	21644	20270	148658	27078	987526	40256	107948	0	0	8100	752183	0	0
2024-05-26 01:55:32			0	33762	0	0	0	21638	20260	148774	27241	987517	40256	107946	0	0	8100	752666	0	0
2024-05-26 01:56:32			0	33707	0	0	0	21644	20270	148954	27228	987499	40256	107948	0	0	8096	755329	0	0
2024-05-26 01:57:32			0	33683	0	0	0	21649	20270	149034	27393	987561	40257	107950	0	0	8095	756511	0	0
2024-05-26 01:58:32			0	33650	0	0	0	21657	20260	149142	27417	987517	40268	107953	0	0	8093	758182	0	0
2024-05-26 01:59:32			0	33645	0	0	0	21662	20270	149258	27320	987552	40256	107955	0	0	8092	758387	0	0
2024-05-26 02:00:32			0	33631	0	0	0	21654	20270	149262	27393	987587	40257	107952	0	0	8092	759079	0	0
2024-05-26 02:01:32			0	33635	0	0	0	21662	20270	149322	27320	987579	40246	107955	0	0	8092	758881	0	0
2024-05-26 02:02:32			0	33615	0	0	0	21659	20270	149342	27540	987587	40257	107954	0	0	8091	759870	0	0
2024-05-26 02:03:32			0	33584	0	0	0	21667	20270	149470	27183	987579	40268	107957	0	0	8089	761405	0	0
2024-05-26 02:04:32			0	33556	0	0	0	21670	20270	149677	27175	987499	40256	107958	0	0	8087	762794	0	0
2024-05-26 02:05:32			0	33504	0	0	0	21667	20270	149921	27140	987526	40246	107957	0	0	8084	765378	0	0
2024-05-26 02:06:32			0	33472	0	0	0	21654	20270	150109	27514	987552	40246	107952	0	0	8083	766972	0	0
2024-05-26 02:07:32			0	33391	0	0	0	21657	20260	150237	27199	987491	40256	107953	0	0	8078	771062	0	0
2024-05-26 02:08:32			0	33389	0	0	0	21644	20260	150449	26909	987456	40256	107948	0	0	8078	771162	0	0
2024-05-26 02:09:32			0	33367	0	0	0	21636	20260	150465	27145	987456	40256	107945	0	0	8077	772264	0	0
2024-05-26 02:10:32			0	33359	0	0	0	21636	20250	150469	27180	987421	40255	107945	0	0	8076	772708	0	0
2024-05-26 02:11:32			0	33371	0	0	0	21623	20250	150409	27164	987394	40267	107940	0	0	8077	772106	0	0
2024-05-26 02:12:32			0	33396	0	0	0	21623	20250	150437	27100	987447	40245	107940	0	0	8079	770854	0	0
2024-05-26 02:13:32			0	33401	0	0	0	21615	20230	150325	27083	987396	40265	107937	0	0	8079	770689	0	0
2024-05-26 02:14:32			0	33430	0	0	0	21623	20230	150117	27462	987369	40276	107940	0	0	8080	769238	0	0
2024-05-26 02:15:32			0	33454	0	0	0	21612	20230	150209	27183	987422	40254	107936	0	0	8082	768040	0	0
2024-05-26 02:16:32			0	33487	0	0	0	21612	20230	149941	27332	987343	40265	107936	0	0	8084	766394	0	0
2024-05-26 02:17:32			0	33532	0	0	0	21610	20220	149793	27005	987318	40252	107935	0	0	8087	764197	0	0
2024-05-26 02:18:32			0	33583	0	0	0	21607	20220	149598	27090	987326	40243	107934	0	0	8090	761665	0	0
2024-05-26 02:19:32			0	33610	0	0	0	21620	20220	149502	27001	987344	40252	107939	0	0	8091	760327	0	0
2024-05-26 02:20:32			0	33634	0	0	0	21631	20220	149350	27618	987379	40264	107943	0	0	8092	759140	0	0
2024-05-26 02:21:32			0	33646	0	0	0	21631	20230	149186	27511	987361	40254	107943	0	0	8093	758505	0	0
2024-05-26 02:22:32			0	33680	0	0	0	21638	20220	149094	27507	987352	40253	107946	0	0	8095	756868	0	0
2024-05-26 02:23:32			0	33680	0	0	0	21641	20230	149030	27443	987414	40254	107947	0	0	8095	756826	0	0
2024-05-26 02:24:32			0	33721	0	0	0	21631	20230	148918	27393	987369	40265	107943	0	0	8097	754806	0	0
2024-05-26 02:25:32			0	33726	0	0	0	21633	20210	148990	27398	987389	40263	107944	0	0	8097	754643	0	0
2024-05-26 02:26:32			0	33726	0	0	0	21633	20220	148898	27339	987432	40264	107944	0	0	8097	754602	0	0
2024-05-26 02:27:32			0	33737	0	0	0	21633	20230	149018	27621	987414	40265	107944	0	0	8098	754019	0	0
2024-05-26 02:28:32			0	33752	0	0	0	21638	20220	148914	27440	987406	40243	107946	0	0	8099	753323	0	0
2024-05-26 02:29:32			0	33744	0	0	0	21638	20230	148934	27173	987414	40254	107946	0	0	8098	753675	0	0
2024-05-26 02:30:32			0	33726	0	0	0	21636	20230	148974	27211	987414	40265	107945	0	0	8097	754560	0	0
2024-05-26 02:31:32			0	33703	0	0	0	21633	20220	148954	27448	987406	40253	107944	0	0	8096	755734	0	0
2024-05-26 02:32:32			0	33713	0	0	0	21631	20230	149022	27114	987467	40254	107943	0	0	8097	755200	0	0
2024-05-26 02:33:32			0	33696	0	0	0	21628	20240	149142	27384	987378	40265	107942	0	0	8096	755996	0	0
2024-05-26 02:34:32			0	33698	0	0	0	21633	20220	149122	27393	987379	40253	107944	0	0	8096	755981	0	0
2024-05-26 02:35:32			0	33657	0	0	0	21623	20230	149094	27320	987387	40254	107940	0	0	8094	757961	0	0
2024-05-26 02:36:32			0	33655	0	0	0	21610	20220	149178	27177	987326	40243	107935	0	0	8094	758102	0	0
2024-05-26 02:37:32			0	33620	0	0	0	21605	20210	149322	27156	987389	40263	107933	0	0	8092	759874	0	0
2024-05-26 02:38:32			0	33595	0	0	0	21597	20230	149526	27215	987290	40265	107930	0	0	8090	761028	0	0
2024-05-26 02:39:32			0	33538	0	0	0	21597	20220	149717	27505	987352	40253	107930	0	0	8087	763899	0	0
2024-05-26 02:40:32			0	33510	0	0	0	21602	20210	149869	27194	987282	40252	107932	0	0	8085	765333	0	0
2024-05-26 02:41:32			0	33475	0	0	0	21589	20210	150117	27507	987282	40252	107927	0	0	8084	767077	0	0
2024-05-26 02:42:32			0	33437	0	0	0	21579	20210	150185	27154	987301	40263	107923	0	0	8081	768974	0	0
2024-05-26 02:43:32			0	33418	0	0	0	21584	20210	150409	27196	987247	40252	107925	0	0	8080	769923	0	0
2024-05-26 02:44:32			0	33381	0	0	0	21592	20210	150557	27556	987247	40252	107928	0	0	8078	771776	0	0
2024-05-26 02:45:32			0	33353	0	0	0	21579	20200	150713	27339	987204	40250	107923	0	0	8076	773222	0	0
2024-05-26 02:46:32			0	33294	0	0	0	21568	20200	150841	27334	987257	40240	107919	0	0	8073	776188	0	0
2024-05-26 02:47:32			0	33265	0	0	0	21573	20200	151177	27164	987292	40262	107921	0	0	8071	777649	0	0
2024-05-26 02:48:32			0	33226	0	0	0	21568	20190	151353	27445	987187	40250	107919	0	0	8069	779661	0	0
2024-05-26 02:49:32			0	33191	0	0	0	21568	20200	151525	27338	987213	40251	107919	0	0	8067	781388	0	0
2024-05-26 02:50:32			0	33118	0	0	0	21573	20190	151769	27246	987196	40240	107921	0	0	8063	785134	0	0
2024-05-26 02:51:32			0	33086	0	0	0	21573	20190	151985	27523	987214	40250	107921	0	0	8061	786762	0	0
2024-05-26 02:52:32			0	33024	0	0	0	21579	20180	152097	27495	987206	40260	107923	0	0	8057	789967	0	0
2024-05-26 02:53:32			0	33001	0	0	0	21571	20190	152397	27360	987187	40261	107920	0	0	8056	791099	0	0
2024-05-26 02:54:32			0	32949	0	0	0	21561	20180	152453	27540	987152	40250	107916	0	0	8053	793806	0	0
2024-05-26 02:55:32			0	32929	0	0	0	21568	20190	152609	27060	987134	40273	107919	0	0	8051	794789	0	0
2024-05-26 02:56:32			0	32899	0	0	0	21558	20180	152809	27291	987171	40227	107915	0	0	8050	796374	0	0
2024-05-26 02:57:32			0	32847	0	0	0	21553	20170	152909	27015	987162	40260	107913	0	0	8047	799096	0	0
2024-05-26 02:58:32			0	32849	0	0	0	21555	20170	153105	27348	987136	40238	107914	0	0	8047	798993	0	0
2024-05-26 02:59:32			0	32856	0	0	0	21550	20170	153137	27263	987048	40249	107912	0	0	8047	798632	0	0
2024-05-26 03:00:32			0	32833	0	0	0	21542	20160	153081	27192	987084	40248	107909	0	0	8046	799863	0	0
2024-05-26 03:01:32			0	32827	0	0	0	21548	20160	153193	27362	987119	40249	107911	0	0	8046	800173	0	0
2024-05-26 03:02:32			0	32840	0	0	0	21537	20150	153185	27142	987067	40235	107907	0	0	8046	799546	0	0
2024-05-26 03:03:32			0	32841	0	0	0	21532	20160	153145	27433	987066	40249	107905	0	0	8047	799450	0	0
2024-05-26 03:04:32			0	32857	0	0	0	21524	20160	153097	27161	987031	40248	107902	0	0	8048	798625	0	0
2024-05-26 03:05:32			0	32855	0	0	0	21516	20150	153101	27177	987041	40235	107899	0	0	8048	798772	0	0
2024-05-26 03:06:32			0	32873	0	0	0	21514	20150	153017	27357	987041	40247	107898	0	0	8049	797844	0	0
2024-05-26 03:07:32			0	32908	0	0	0	21511	20130	152857	27152	986989	40234	107897	0	0	8051	796131	0	0
2024-05-26 03:08:32			0	32963	0	0	0	21503	20130	152621	27291	986883	40245	107894	0	0	8054	793307	0	0
2024-05-26 03:09:32			0	33000	0	0	0	21496	20130	152497	27300	986901	40234	107891	0	0	8057	791412	0	0
2024-05-26 03:10:32			0	33042	0	0	0	21493	20120	152257	27381	986866	40245	107890	0	0	8059	789310	0	0
2024-05-26 03:11:32			0	33099	0	0	0	21501	20120	151953	27796	986911	40254	107893	0	0	8062	786404	0	0
2024-05-26 03:12:32			0	33168	0	0	0	21498	20110	151729	27022	986823	40243	107892	0	0	8067	782942	0	0
2024-05-26 03:13:32			0	33243	0	0	0	21493	20110	151249	27410	986841	40243	107890	0	0	8071	779146	0	0
2024-05-26 03:14:32			0	33320	0	0	0	21496	20120	150989	27168	986911	40233	107891	0	0	8076	775222	0	0
2024-05-26 03:15:32			0	33374	0	0	0	21503	20110	150649	27448	986788	40243	107894	0	0	8079	772553	0	0
2024-05-26 03:16:32			0	33435	0	0	0	21503	20110	150357	27362	986841	40243	107894	0	0	8082	769498	0	0
2024-05-26 03:17:32			0	33492	0	0	0	21503	20100	150025	27384	986824	40242	107894	0	0	8085	766695	0	0
2024-05-26 03:18:32			0	33543	0	0	0	21503	20100	149845	27147	986806	40242	107894	0	0	8088	764156	0	0
2024-05-26 03:19:32			0	33564	0	0	0	21493	20100	149869	27057	986912	40231	107890	0	0	8090	763113	0	0
2024-05-26 03:20:32			0	33551	0	0	0	21485	20100	149837	27305	986780	40231	107887	0	0	8089	763758	0	0
2024-05-26 03:21:32			0	33538	0	0	0	21480	20110	149957	27239	986796	40243	107885	0	0	8089	764362	0	0
2024-05-26 03:22:32			0	33512	0	0	0	21470	20100	150077	26793	986824	40242	107881	0	0	8087	765698	0	0
2024-05-26 03:23:32			0	33432	0	0	0	21470	20100	150261	27286	986771	40231	107881	0	0	8082	769691	0	0
2024-05-26 03:24:32			0	33386	0	0	0	21480	20090	150561	27105	986781	40241	107885	0	0	8080	772036	0	0
2024-05-26 03:25:32			0	33321	0	0	0	21485	20100	150937	27376	986798	40242	107887	0	0	8076	775258	0	0
2024-05-26 03:26:32			0	33257	0	0	0	21480	20090	151205	27483	986763	40241	107885	0	0	8072	778525	0	0
2024-05-26 03:27:32			0	33204	0	0	0	21475	20090	151601	27282	986736	40252	107883	0	0	8069	781204	0	0
2024-05-26 03:28:32			0	33165	0	0	0	21467	20080	151697	27180	986746	40241	107880	0	0	8067	783224	0	0
2024-05-26 03:29:32			0	33121	0	0	0	21470	20080	151849	26845	986772	40241	107881	0	0	8064	785458	0	0
2024-05-26 03:30:32			0	33110	0	0	0	21470	20080	151973	27291	986764	40241	107881	0	0	8063	786018	0	0
2024-05-26 03:31:32			0	33099	0	0	0	21480	20080	152005	27074	986746	40251	107885	0	0	8063	786578	0	0
2024-05-26 03:32:32			0	33081	0	0	0	21462	20080	152105	27322	986711	40241	107878	0	0	8062	787494	0	0
2024-05-26 03:33:32			0	33056	0	0	0	21459	20080	152153	26864	986746	40241	107877	0	0	8060	788769	0	0
2024-05-26 03:34:32			0	33039	0	0	0	21462	20080	152269	27220	986631	40241	107878	0	0	8059	789637	0	0
2024-05-26 03:35:32			0	33011	0	0	0	21464	20080	152325	27008	986711	40241	107879	0	0	8058	791068	0	0
2024-05-26 03:36:32			0	32997	0	0	0	21444	20070	152533	27008	986623	40240	107871	0	0	8057	791828	0	0
2024-05-26 03:37:32			0	32956	0	0	0	21451	20070	152701	27093	986623	40250	107874	0	0	8054	793929	0	0
2024-05-26 03:38:32			0	32908	0	0	0	21449	20070	152813	27230	986721	40228	107873	0	0	8052	796395	0	0
2024-05-26 03:39:32			0	32889	0	0	0	21457	20060	152877	27261	986686	40216	107876	0	0	8050	797416	0	0
2024-05-26 03:40:32			0	32884	0	0	0	21446	20070	153001	26989	986562	40240	107872	0	0	8050	797630	0	0
2024-05-26 03:41:32			0	32858	0	0	0	21454	20070	153057	27209	986641	40217	107875	0	0	8049	798970	0	0
2024-05-26 03:42:32			0	32843	0	0	0	21451	20060	153137	27048	986606	40228	107874	0	0	8048	799788	0	0
2024-05-26 03:43:32			0	32818	0	0	0	21457	20060	153329	27256	986606	40239	107876	0	0	8046	801079	0	0
2024-05-26 03:44:32			0	32782	0	0	0	21464	20060	153485	27064	986686	40239	107879	0	0	8044	802942	0	0
2024-05-26 03:45:32			0	32735	0	0	0	21475	20060	153596	27033	986598	40259	107883	0	0	8041	805379	0	0
2024-05-26 03:46:32			0	32726	0	0	0	21467	20060	153668	27163	986606	40239	107880	0	0	8040	805846	0	0
2024-05-26 03:47:32			0	32745	0	0	0	21467	20070	153568	27201	986694	40240	107880	0	0	8041	804816	0	0
2024-05-26 03:48:32			0	32803	0	0	0	21462	20060	153357	27511	986633	40239	107878	0	0	8045	801855	0	0
2024-05-26 03:49:32			0	32889	0	0	0	21477	20070	152901	27223	986668	40240	107884	0	0	8050	797372	0	0
2024-05-26 03:50:32			0	32936	0	0	0	21470	20060	152669	27376	986712	40250	107881	0	0	8053	794999	0	0
2024-05-26 03:51:32			0	32999	0	0	0	21477	20070	152501	27280	986676	40228	107884	0	0	8057	791726	0	0
2024-05-26 03:52:32			0	33000	0	0	0	21470	20070	152557	27175	986668	40250	107881	0	0	8057	791674	0	0
2024-05-26 03:53:32			0	32961	0	0	0	21475	20070	152709	27261	986676	40250	107883	0	0	8054	793673	0	0
2024-05-26 03:54:32			0	32886	0	0	0	21488	20070	153045	27209	986703	40250	107888	0	0	8050	797527	0	0
2024-05-26 03:55:32			0	32862	0	0	0	21477	20070	153149	27405	986756	40250	107884	0	0	8048	798764	0	0
2024-05-26 03:56:32			0	32816	0	0	0	21475	20060	153329	27294	986678	40238	107883	0	0	8046	801183	0	0
2024-05-26 03:57:32			0	32793	0	0	0	21462	20080	153445	27360	986738	40251	107878	0	0	8045	802284	0	0
2024-05-26 03:58:32			0	32788	0	0	0	21470	20070	153477	27192	986676	40250	107881	0	0	8044	802587	0	0
2024-05-26 03:59:32			0	32811	0	0	0	21446	20070	153465	27486	986703	40228	107872	0	0	8046	801397	0	0
2024-05-26 04:00:32			0	32829	0	0	0	21438	20070	153265	26896	986668	40240	107869	0	0	8047	800467	0	0
2024-05-26 04:01:32			0	32839	0	0	0	21425	20060	153213	27414	986624	40238	107864	0	0	8048	799994	0	0
2024-05-26 04:02:32			0	32804	0	0	0	21438	20060	153345	27100	986545	40238	107869	0	0	8045	801803	0	0
2024-05-26 04:03:32			0	32764	0	0	0	21446	20060	153616	27204	986598	40227	107872	0	0	8043	803874	0	0
2024-05-26 04:04:32			0	32732	0	0	0	21454	20050	153848	27209	986669	40249	107875	0	0	8041	805579	0	0
2024-05-26 04:05:32			0	32716	0	0	0	21436	20050	153900	27358	986555	40237	107868	0	0	8040	806410	0	0
2024-05-26 04:06:32			0	32723	0	0	0	21438	20050	153832	27291	986581	40237	107869	0	0	8041	806047	0	0
2024-05-26 04:07:32			0	32732	0	0	0	21423	20050	153888	27346	986661	40237	107863	0	0	8041	805579	0	0
2024-05-26 04:08:32			0	32715	0	0	0	21438	20050	153884	27668	986608	40237	107869	0	0	8040	806463	0	0
2024-05-26 04:09:32			0	32715	0	0	0	21405	20050	153920	27263	986555	40237	107856	0	0	8041	806463	0	0
2024-05-26 04:10:32			0	32734	0	0	0	21394	20040	153784	27371	986493	40237	107852	0	0	8042	805520	0	0
2024-05-26 04:11:32			0	32715	0	0	0	21407	20040	153804	27500	986467	40248	107857	0	0	8041	806507	0	0
2024-05-26 04:12:32			0	32694	0	0	0	21397	20030	153896	27396	986450	40247	107853	0	0	8039	807644	0	0
2024-05-26 04:13:32			0	32666	0	0	0	21407	20030	154076	27504	986495	40246	107857	0	0	8038	809102	0	0
2024-05-26 04:14:32			0	32622	0	0	0	21392	20020	154152	27081	986460	40246	107851	0	0	8035	811443	0	0
2024-05-26 04:15:32			0	32639	0	0	0	21399	20020	154292	27549	986486	40235	107854	0	0	8036	810555	0	0
2024-05-26 04:16:32			0	32632	0	0	0	21394	20020	154340	27183	986425	40234	107852	0	0	8036	810921	0	0
2024-05-26 04:17:32			0	32657	0	0	0	21386	20020	154252	27123	986460	40235	107849	0	0	8037	809616	0	0
2024-05-26 04:18:32			0	32655	0	0	0	21389	20020	154140	27050	986407	40246	107850	0	0	8037	809720	0	0
2024-05-26 04:19:32			0	32630	0	0	0	21397	20010	154216	26866	986470	40234	107853	0	0	8035	811070	0	0
2024-05-26 04:20:32			0	32651	0	0	0	21397	20000	154268	27039	986347	40245	107853	0	0	8037	810018	0	0
2024-05-26 04:21:32			0	32640	0	0	0	21402	20010	154296	27111	986416	40246	107855	0	0	8036	810548	0	0
2024-05-26 04:22:32			0	32681	0	0	0	21402	20000	154144	27196	986400	40255	107855	0	0	8038	808454	0	0
2024-05-26 04:23:32			0	32686	0	0	0	21407	20010	154032	27417	986461	40222	107857	0	0	8039	808149	0	0
2024-05-26 04:24:32			0	32700	0	0	0	21405	20010	154032	27398	986416	40234	107856	0	0	8040	807421	0	0
2024-05-26 04:25:32			0	32738	0	0	0	21407	20010	153840	27149	986408	40245	107857	0	0	8042	805445	0	0
2024-05-26 04:26:32			0	32759	0	0	0	21394	20010	153800	27277	986408	40245	107852	0	0	8043	804355	0	0
2024-05-26 04:27:32			0	32780	0	0	0	21399	20010	153697	26963	986461	40222	107854	0	0	8044	803267	0	0
2024-05-26 04:28:32			0	32797	0	0	0	21384	20000	153497	26918	986391	40254	107848	0	0	8046	802431	0	0
2024-05-26 04:29:32			0	32825	0	0	0	21371	20010	153505	27362	986382	40222	107843	0	0	8048	800938	0	0
2024-05-26 04:30:32			0	32777	0	0	0	21389	20000	153584	27287	986418	40221	107850	0	0	8044	803467	0	0
2024-05-26 04:31:32			0	32796	0	0	0	21397	20000	153729	27199	986365	40254	107853	0	0	8045	802483	0	0
2024-05-26 04:32:32			0	32806	0	0	0	21402	20010	153597	27469	986435	40234	107855	0	0	8046	801921	0	0
2024-05-26 04:33:32			0	32870	0	0	0	21386	19990	153305	27152	986436	40243	107849	0	0	8050	798704	0	0
2024-05-26 04:34:32			0	32908	0	0	0	21392	20010	153085	27255	986302	40222	107851	0	0	8052	796658	0	0
2024-05-26 04:35:32			0	32977	0	0	0	21381	20000	152777	26955	986365	40233	107847	0	0	8057	793158	0	0
2024-05-26 04:36:32			0	33022	0	0	0	21389	20010	152565	27372	986382	40234	107850	0	0	8059	790811	0	0
2024-05-26 04:37:32			0	33037	0	0	0	21384	19990	152473	27071	986330	40221	107848	0	0	8060	790131	0	0
2024-05-26 04:38:32			0	33036	0	0	0	21386	19990	152541	27095	986356	40243	107849	0	0	8060	790182	0	0
2024-05-26 04:39:32			0	33062	0	0	0	21397	19990	152425	27281	986375	40232	107853	0	0	8061	788854	0	0
2024-05-26 04:40:32			0	33095	0	0	0	21389	19990	152269	27298	986383	40221	107850	0	0	8063	787172	0	0
2024-05-26 04:41:32			0	33119	0	0	0	21394	19990	152161	27322	986383	40221	107852	0	0	8065	785950	0	0
2024-05-26 04:42:32			0	33130	0	0	0	21389	19990	152069	27409	986375	40221	107850	0	0	8065	785391	0	0
2024-05-26 04:43:32			0	33159	0	0	0	21361	20000	152029	27379	986338	40233	107839	0	0	8068	783874	0	0
2024-05-26 04:44:32			0	33124	0	0	0	21368	19990	152209	27286	986322	40221	107842	0	0	8065	785696	0	0
2024-05-26 04:45:32			0	33074	0	0	0	21366	20000	152373	27254	986338	40221	107841	0	0	8063	788199	0	0
2024-05-26 04:46:32			0	33062	0	0	0	21361	19990	152473	27218	986375	40221	107839	0	0	8062	788854	0	0
2024-05-26 04:47:32			0	33084	0	0	0	21358	19980	152289	27310	986313	40221	107838	0	0	8063	787776	0	0
2024-05-26 04:48:32			0	33096	0	0	0	21358	19980	152261	27300	986313	40221	107838	0	0	8064	787164	0	0
2024-05-26 04:49:32			0	33116	0	0	0	21353	19980	152173	27500	986252	40242	107836	0	0	8065	786146	0	0
2024-05-26 04:50:32			0	33136	0	0	0	21348	19980	152137	27561	986313	40232	107834	0	0	8067	785129	0	0
2024-05-26 04:51:32			0	33128	0	0	0	21340	19980	152137	27346	986260	40221	107831	0	0	8066	785536	0	0
2024-05-26 04:52:32			0	33093	0	0	0	21350	19980	152213	27209	986252	40231	107835	0	0	8064	787317	0	0
2024-05-26 04:53:32			0	33087	0	0	0	21329	19970	152205	27173	986261	40241	107827	0	0	8064	787666	0	0
2024-05-26 04:54:32			0	33035	0	0	0	21329	19960	152497	27353	986253	40218	107827	0	0	8061	790364	0	0
2024-05-26 04:55:32			0	32948	0	0	0	21319	19960	152829	27229	986200	40229	107823	0	0	8056	794821	0	0
2024-05-26 04:56:32			0	32891	0	0	0	21324	19960	153177	27339	986147	40229	107825	0	0	8052	797753	0	0
2024-05-26 04:57:32			0	32844	0	0	0	21316	19950	153397	27485	986165	40218	107822	0	0	8049	800221	0	0
2024-05-26 04:58:32			0	32823	0	0	0	21301	19940	153469	27388	986140	40216	107816	0	0	8048	801351	0	0
2024-05-26 04:59:32			0	32799	0	0	0	21309	19930	153657	27331	986070	40226	107819	0	0	8047	802637	0	0
2024-05-26 05:00:32			0	32789	0	0	0	21316	19940	153765	27346	986095	40217	107822	0	0	8046	803110	0	0
2024-05-26 05:01:32			0	32788	0	0	0	21298	19930	153741	27346	986123	40215	107815	0	0	8046	803207	0	0
2024-05-26 05:02:32			0	32783	0	0	0	21301	19930	153717	26948	986078	40216	107816	0	0	8046	803466	0	0
2024-05-26 05:03:32			0	32778	0	0	0	21301	19930	153828	26854	986070	40226	107816	0	0	8046	803725	0	0
2024-05-26 05:04:32			0	32795	0	0	0	21293	19920	153773	27170	986027	40226	107813	0	0	8047	802888	0	0
2024-05-26 05:05:32			0	32793	0	0	0	21311	19920	153741	27244	986088	40214	107820	0	0	8046	802992	0	0
2024-05-26 05:06:32			0	32784	0	0	0	21296	19930	153785	27234	986070	40215	107814	0	0	8046	803414	0	0
2024-05-26 05:07:32			0	32795	0	0	0	21293	19920	153725	27135	986080	40214	107813	0	0	8047	802888	0	0
2024-05-26 05:08:32			0	32782	0	0	0	21288	19920	153801	27244	986080	40214	107811	0	0	8046	803562	0	0
2024-05-26 05:09:32			0	32756	0	0	0	21285	19910	153860	26955	986045	40214	107810	0	0	8044	804955	0	0
2024-05-26 05:10:32			0	32741	0	0	0	21280	19910	153976	27147	985984	40225	107808	0	0	8044	805733	0	0
2024-05-26 05:11:32			0	32716	0	0	0	21267	19900	153980	27331	986002	40224	107803	0	0	8042	807078	0	0
2024-05-26 05:12:32			0	32701	0	0	0	21262	19910	154164	27060	985984	40213	107801	0	0	8041	807814	0	0
2024-05-26 05:13:32			0	32686	0	0	0	21262	19900	154268	27319	985967	40224	107801	0	0	8041	808639	0	0
2024-05-26 05:14:32			0	32660	0	0	0	21254	19900	154356	27322	985949	40224	107798	0	0	8039	809995	0	0
2024-05-26 05:15:32			0	32653	0	0	0	21257	19890	154404	27204	985924	40223	107799	0	0	8039	810405	0	0
2024-05-26 05:16:32			0	32655	0	0	0	21246	19890	154428	27000	985870	40212	107795	0	0	8039	810301	0	0
2024-05-26 05:17:32			0	32611	0	0	0	21241	19880	154512	27241	985801	40222	107793	0	0	8036	812645	0	0
2024-05-26 05:18:32			0	32611	0	0	0	21238	19880	154632	27156	985854	40211	107792	0	0	8036	812645	0	0
2024-05-26 05:19:32			0	32599	0	0	0	21241	19870	154680	27372	985845	40222	107793	0	0	8035	813318	0	0
2024-05-26 05:20:32			0	32627	0	0	0	21238	19860	154564	27590	985855	40209	107792	0	0	8037	811898	0	0
2024-05-26 05:21:32			0	32634	0	0	0	21244	19860	154528	27251	985802	40209	107794	0	0	8037	811532	0	0
2024-05-26 05:22:32			0	32609	0	0	0	21246	19860	154640	27265	985802	40199	107795	0	0	8036	812839	0	0
2024-05-26 05:23:32			0	32606	0	0	0	21225	19860	154672	27353	985820	40219	107787	0	0	8036	812996	0	0
2024-05-26 05:24:32			0	32586	0	0	0	21223	19860	154676	27294	985776	40209	107786	0	0	8035	814044	0	0
2024-05-26 05:25:32			0	32598	0	0	0	21220	19860	154668	27074	985802	40199	107785	0	0	8036	813415	0	0
2024-05-26 05:26:32			0	32598	0	0	0	21202	19850	154760	27362	985679	40208	107778	0	0	8036	813460	0	0
2024-05-26 05:27:32			0	32613	0	0	0	21220	19850	154640	27310	985679	40208	107785	0	0	8037	812675	0	0
2024-05-26 05:28:32			0	32629	0	0	0	21228	19850	154544	27239	985751	40219	107788	0	0	8037	811838	0	0
2024-05-26 05:29:32			0	32662	0	0	0	21215	19840	154336	27265	985707	40218	107783	0	0	8040	810159	0	0
2024-05-26 05:30:32			0	32663	0	0	0	21225	19840	154372	27242	985707	40207	107787	0	0	8039	810107	0	0
2024-05-26 05:31:32			0	32698	0	0	0	21218	19850	154320	27258	985724	40219	107784	0	0	8042	808237	0	0
2024-05-26 05:32:32			0	32706	0	0	0	21218	19840	154332	26993	985707	40207	107784	0	0	8042	807865	0	0
2024-05-26 05:33:32			0	32741	0	0	0	21225	19840	154076	27062	985689	40218	107787	0	0	8044	806044	0	0
2024-05-26 05:34:32			0	32739	0	0	0	21215	19830	154092	27369	985672	40218	107783	0	0	8044	806193	0	0
2024-05-26 05:35:32			0	32724	0	0	0	21223	19830	154012	27383	985699	40207	107786	0	0	8043	806973	0	0
2024-05-26 05:36:32			0	32792	0	0	0	21228	19820	153765	27133	985708	40207	107788	0	0	8047	803486	0	0
2024-05-26 05:37:32			0	32812	0	0	0	21220	19830	153709	27192	985699	40207	107785	0	0	8049	802406	0	0
2024-05-26 05:38:32			0	32821	0	0	0	21194	19820	153777	27452	985727	40206	107775	0	0	8049	801984	0	0
2024-05-26 05:39:32			0	32807	0	0	0	21179	19830	153769	27502	985672	40207	107769	0	0	8049	802665	0	0
2024-05-26 05:40:32			0	32728	0	0	0	21184	19830	154056	27003	985619	40207	107771	0	0	8044	806765	0	0
2024-05-26 05:41:32			0	32720	0	0	0	21199	19820	154108	26878	985602	40207	107777	0	0	8043	807225	0	0
2024-05-26 05:42:32			0	32756	0	0	0	21192	19810	153968	27067	985586	40194	107774	0	0	8045	805398	0	0
2024-05-26 05:43:32			0	32758	0	0	0	21184	19810	153996	27230	985604	40194	107771	0	0	8046	805294	0	0
2024-05-26 05:44:32			0	32729	0	0	0	21184	19800	154160	27289	985622	40194	107771	0	0	8044	806846	0	0
2024-05-26 05:45:32			0	32681	0	0	0	21181	19800	154328	27306	985569	40215	107770	0	0	8041	809346	0	0
2024-05-26 05:46:32			0	32665	0	0	0	21187	19800	154460	26986	985516	40205	107772	0	0	8040	810180	0	0
2024-05-26 05:47:32			0	32680	0	0	0	21194	19790	154460	27086	985552	40203	107775	0	0	8041	809443	0	0
2024-05-26 05:48:32			0	32735	0	0	0	21189	19790	154160	27228	985552	40213	107773	0	0	8044	806578	0	0
2024-05-26 05:49:32			0	32769	0	0	0	21184	19790	153924	27203	985499	40213	107771	0	0	8046	804812	0	0
2024-05-26 05:50:32			0	32763	0	0	0	21189	19790	153996	27074	985526	40203	107773	0	0	8046	805124	0	0
2024-05-26 05:51:32			0	32737	0	0	0	21179	19790	154088	27367	985544	40203	107769	0	0	8044	806474	0	0
2024-05-26 05:52:32			0	32723	0	0	0	21176	19790	154156	27092	985517	40203	107768	0	0	8044	807203	0	0
2024-05-26 05:53:32			0	32722	0	0	0	21176	19790	154184	27388	985491	40203	107768	0	0	8044	807255	0	0
2024-05-26 05:54:32			0	32747	0	0	0	21187	19790	154156	27206	985491	40213	107772	0	0	8045	805955	0	0
2024-05-26 05:55:32			0	32783	0	0	0	21187	19780	154001	27067	985535	40192	107772	0	0	8047	804130	0	0
2024-05-26 05:56:32			0	32846	0	0	0	21176	19790	153593	27029	985517	40203	107768	0	0	8051	800824	0	0
2024-05-26 05:57:32			0	32901	0	0	0	21174	19780	153413	27331	985501	40191	107767	0	0	8054	798029	0	0
2024-05-26 05:58:32			0	32883	0	0	0	21171	19790	153509	27137	985517	40192	107766	0	0	8053	798913	0	0
2024-05-26 05:59:32			0	32893	0	0	0	21179	19790	153473	27282	985499	40213	107769	0	0	8054	798398	0	0
2024-05-26 06:00:32			0	32867	0	0	0	21166	19780	153549	27199	985456	40192	107764	0	0	8052	799783	0	0
2024-05-26 06:01:32			0	32857	0	0	0	21171	19770	153629	27301	985439	40190	107766	0	0	8052	800344	0	0
2024-05-26 06:02:32			0	32845	0	0	0	21174	19780	153697	26861	985482	40203	107767	0	0	8051	800920	0	0
2024-05-26 06:03:32			0	32835	0	0	0	21171	19780	153709	27112	985501	40202	107766	0	0	8050	801437	0	0
2024-05-26 06:04:32			0	32826	0	0	0	21171	19780	153733	27249	985474	40202	107766	0	0	8050	801902	0	0
2024-05-26 06:05:32			0	32811	0	0	0	21171	19780	153817	27190	985447	40212	107766	0	0	8049	802679	0	0
2024-05-26 06:06:32			0	32787	0	0	0	21158	19770	153897	27202	985439	40211	107761	0	0	8048	803967	0	0
2024-05-26 06:07:32			0	32772	0	0	0	21161	19770	153957	27779	985466	40190	107762	0	0	8047	804745	0	0
2024-05-26 06:08:32			0	32780	0	0	0	21158	19770	154053	27190	985431	40211	107761	0	0	8047	804330	0	0
2024-05-26 06:09:32			0	32781	0	0	0	21158	19770	153996	27227	985457	40211	107761	0	0	8047	804278	0	0
2024-05-26 06:10:32			0	32776	0	0	0	21148	19770	154040	27104	985431	40201	107757	0	0	8047	804537	0	0
2024-05-26 06:11:32			0	32761	0	0	0	21153	19770	154076	27417	985431	40211	107759	0	0	8046	805316	0	0
2024-05-26 06:12:32			0	32732	0	0	0	21140	19770	154156	27409	985404	40201	107754	0	0	8045	806823	0	0
2024-05-26 06:13:32			0	32708	0	0	0	21150	19770	154388	27060	985404	40211	107758	0	0	8043	808072	0	0
2024-05-26 06:14:32			0	32704	0	0	0	21145	19760	154352	26942	985414	40200	107756	0	0	8043	808325	0	0
2024-05-26 06:15:32			0	32709	0	0	0	21145	19760	154336	27222	985422	40211	107756	0	0	8043	808065	0	0
2024-05-26 06:16:32			0	32712	0	0	0	21137	19760	154252	27118	985422	40201	107753	0	0	8044	807909	0	0
2024-05-26 06:17:32			0	32721	0	0	0	21142	19760	154332	27497	985396	40211	107755	0	0	8044	807440	0	0
2024-05-26 06:18:32			0	32730	0	0	0	21142	19740	154180	27395	985336	40200	107755	0	0	8044	807061	0	0
2024-05-26 06:19:32			0	32739	0	0	0	21135	19750	154136	27092	985326	40210	107752	0	0	8045	806548	0	0
2024-05-26 06:20:32			0	32710	0	0	0	21132	19750	154292	26902	985406	40188	107751	0	0	8043	808057	0	0
2024-05-26 06:21:32			0	32728	0	0	0	21129	19750	154304	27010	985371	40200	107750	0	0	8045	807120	0	0
2024-05-26 06:22:32			0	32707	0	0	0	21127	19740	154252	27353	985336	40188	107749	0	0	8043	808258	0	0
2024-05-26 06:23:32			0	32720	0	0	0	21129	19750	154252	27194	985318	40188	107750	0	0	8044	807537	0	0
2024-05-26 06:24:32			0	32706	0	0	0	21124	19740	154252	27459	985283	40200	107748	0	0	8043	808310	0	0
2024-05-26 06:25:32			0	32714	0	0	0	21124	19730	154280	27270	985311	40208	107748	0	0	8044	807938	0	0
2024-05-26 06:26:32			0	32718	0	0	0	21119	19740	154216	27824	985283	40210	107746	0	0	8044	807685	0	0
2024-05-26 06:27:32			0	32711	0	0	0	21111	19740	154264	26961	985275	40209	107743	0	0	8044	808050	0	0
2024-05-26 06:28:32			0	32717	0	0	0	21114	19740	154380	27386	985301	40209	107744	0	0	8044	807737	0	0
2024-05-26 06:29:32			0	32702	0	0	0	21119	19740	154416	27568	985309	40200	107746	0	0	8043	808518	0	0
2024-05-26 06:30:32			0	32675	0	0	0	21106	19740	154492	27246	985301	40220	107741	0	0	8042	809926	0	0
2024-05-26 06:31:32			0	32702	0	0	0	21119	19730	154428	27372	985293	40198	107746	0	0	8043	808563	0	0
2024-05-26 06:32:32			0	32702	0	0	0	21109	19730	154384	27244	985240	40198	107742	0	0	8043	808563	0	0
2024-05-26 06:33:32			0	32709	0	0	0	21101	19730	154304	27457	985258	40208	107739	0	0	8044	808198	0	0
2024-05-26 06:34:32			0	32712	0	0	0	21101	19720	154332	27462	985249	40197	107739	0	0	8044	808086	0	0
2024-05-26 06:35:32			0	32705	0	0	0	21098	19720	154372	27289	985249	40197	107738	0	0	8044	808451	0	0
2024-05-26 06:36:32			0	32708	0	0	0	21085	19720	154424	27067	985170	40197	107733	0	0	8044	808295	0	0
2024-05-26 06:37:32			0	32693	0	0	0	21090	19710	154440	27235	985153	40196	107735	0	0	8043	809121	0	0
2024-05-26 06:38:32			0	32701	0	0	0	21083	19720	154552	27211	985188	40197	107732	0	0	8044	808660	0	0
2024-05-26 06:39:32			0	32670	0	0	0	21070	19710	154524	27383	985153	40185	107727	0	0	8042	810321	0	0
2024-05-26 06:40:32			0	32681	0	0	0	21070	19710	154572	27350	985126	40185	107727	0	0	8043	809747	0	0
2024-05-26 06:41:32			0	32662	0	0	0	21054	19700	154504	27220	985163	40206	107721	0	0	8042	810784	0	0
2024-05-26 06:42:32			0	32688	0	0	0	21049	19700	154584	27343	985110	40195	107719	0	0	8043	809426	0	0
2024-05-26 06:43:32			0	32682	0	0	0	21041	19690	154580	27416	985066	40194	107716	0	0	8043	809784	0	0
2024-05-26 06:44:32			0	32677	0	0	0	21044	19690	154532	27206	985093	40183	107717	0	0	8043	810045	0	0
2024-05-26 06:45:32			0	32668	0	0	0	21038	19690	154624	27462	984987	40194	107715	0	0	8042	810515	0	0
2024-05-26 06:46:32			0	32689	0	0	0	21023	19680	154600	27464	984988	40182	107709	0	0	8044	809463	0	0
2024-05-26 06:47:32			0	32701	0	0	0	21025	19670	154444	27473	984953	40181	107710	0	0	8044	808882	0	0
2024-05-26 06:48:32			0	32769	0	0	0	21025	19670	154160	27351	984945	40192	107710	0	0	8048	805344	0	0
2024-05-26 06:49:32			0	32840	0	0	0	21031	19650	153773	27485	984955	40191	107712	0	0	8052	801752	0	0
2024-05-26 06:50:32			0	32925	0	0	0	21044	19650	153433	27332	984920	40191	107717	0	0	8057	797364	0	0
2024-05-26 06:51:32			0	32979	0	0	0	21059	19670	153061	27209	984945	40192	107723	0	0	8060	794499	0	0
2024-05-26 06:52:32			0	33047	0	0	0	21044	19650	152609	27405	985000	40202	107717	0	0	8065	791100	0	0
2024-05-26 06:53:32			0	33073	0	0	0	21046	19670	152705	27242	984998	40192	107718	0	0	8066	789684	0	0
2024-05-26 06:54:32			0	33077	0	0	0	21041	19660	152645	27431	985016	40191	107716	0	0	8067	789523	0	0
2024-05-26 06:55:32			0	33071	0	0	0	21033	19670	152761	27055	984927	40181	107713	0	0	8066	789786	0	0
2024-05-26 06:56:32			0	33053	0	0	0	21046	19650	152877	27334	984920	40191	107718	0	0	8065	790793	0	0
2024-05-26 06:57:32			0	33050	0	0	0	21041	19650	152933	27507	984973	40191	107716	0	0	8065	790947	0	0
2024-05-26 06:58:32			0	33038	0	0	0	21041	19650	152913	27462	984973	40191	107716	0	0	8064	791561	0	0
2024-05-26 06:59:32			0	33028	0	0	0	21049	19640	152949	27237	984965	40190	107719	0	0	8063	792117	0	0
2024-05-26 07:00:32			0	33036	0	0	0	21036	19640	152877	27293	984912	40179	107714	0	0	8064	791707	0	0
2024-05-26 07:01:32			0	33041	0	0	0	21028	19640	152917	27294	984938	40201	107711	0	0	8065	791451	0	0
2024-05-26 07:02:32			0	33041	0	0	0	21025	19650	152865	27454	984928	40191	107710	0	0	8065	791408	0	0
2024-05-26 07:03:32			0	33048	0	0	0	21018	19640	152861	27235	984859	40179	107707	0	0	8065	791093	0	0
2024-05-26 07:04:32			0	33033	0	0	0	21007	19640	152909	27275	984806	40167	107703	0	0	8064	791861	0	0
2024-05-26 07:05:32			0	33023	0	0	0	21010	19640	153009	27242	984832	40190	107704	0	0	8064	792373	0	0
2024-05-26 07:06:32			0	33034	0	0	0	21010	19630	152997	27604	984780	40178	107704	0	0	8064	791853	0	0
2024-05-26 07:07:32			0	33026	0	0	0	20999	19640	152897	27452	984877	40189	107700	0	0	8064	792219	0	0
2024-05-26 07:08:32			0	33024	0	0	0	21002	19630	152877	27338	984807	40178	107701	0	0	8064	792365	0	0
2024-05-26 07:09:32			0	33035	0	0	0	20997	19630	152913	27381	984842	40178	107699	0	0	8065	791802	0	0
2024-05-26 07:10:32			0	33020	0	0	0	21002	19620	153053	27263	984852	40177	107701	0	0	8064	792614	0	0
2024-05-26 07:11:32			0	33023	0	0	0	21002	19610	152949	27514	984808	40198	107701	0	0	8064	792504	0	0
2024-05-26 07:12:32			0	33033	0	0	0	20992	19620	153057	27175	984790	40176	107697	0	0	8065	791948	0	0
2024-05-26 07:13:32			0	33027	0	0	0	21002	19630	153057	27415	984780	40189	107701	0	0	8064	792212	0	0
2024-05-26 07:14:32			0	33040	0	0	0	20981	19620	152941	27545	984790	40187	107693	0	0	8065	791589	0	0
2024-05-26 07:15:32			0	32998	0	0	0	20984	19610	153117	27580	984827	40187	107694	0	0	8063	793786	0	0
2024-05-26 07:16:32			0	32996	0	0	0	20981	19620	153141	27868	984764	40187	107693	0	0	8063	793845	0	0
2024-05-26 07:17:32			0	32986	0	0	0	20979	19600	153217	27149	984730	40185	107692	0	0	8062	794445	0	0
2024-05-26 07:18:32			0	32987	0	0	0	20984	19610	153209	27187	984747	40176	107694	0	0	8062	794350	0	0
2024-05-26 07:19:32			0	33000	0	0	0	20981	19600	153257	27564	984765	40197	107693	0	0	8063	793727	0	0
2024-05-26 07:20:32			0	32999	0	0	0	20989	19610	153301	27201	984667	40176	107696	0	0	8063	793734	0	0
2024-05-26 07:21:32			0	32969	0	0	0	20971	19600	153337	27466	984704	40174	107689	0	0	8061	795319	0	0
2024-05-26 07:22:32			0	32964	0	0	0	20984	19600	153321	27549	984704	40174	107694	0	0	8061	795576	0	0
2024-05-26 07:23:32			0	32979	0	0	0	20976	19600	153281	27346	984659	40186	107691	0	0	8062	794805	0	0
2024-05-26 07:24:32			0	32963	0	0	0	20974	19600	153305	27616	984757	40197	107690	0	0	8061	795627	0	0
2024-05-26 07:25:32			0	32953	0	0	0	20974	19590	153349	27215	984642	40197	107690	0	0	8060	796185	0	0
2024-05-26 07:26:32			0	32955	0	0	0	20974	19600	153405	27473	984704	40185	107690	0	0	8060	796039	0	0
2024-05-26 07:27:32			0	32925	0	0	0	20974	19590	153525	27334	984687	40173	107690	0	0	8058	797627	0	0
2024-05-26 07:28:32			0	32908	0	0	0	20976	19590	153569	27298	984695	40185	107691	0	0	8057	798503	0	0
2024-05-26 07:29:32			0	32891	0	0	0	20968	19600	153657	27170	984651	40197	107688	0	0	8056	799336	0	0
2024-05-26 07:30:32			0	32921	0	0	0	20974	19590	153621	27528	984660	40185	107690	0	0	8058	797833	0	0
2024-05-26 07:31:32			0	32933	0	0	0	20981	19590	153665	27488	984687	40185	107693	0	0	8059	797215	0	0
2024-05-26 07:32:32			0	32901	0	0	0	20974	19590	153597	27196	984669	40174	107690	0	0	8057	798864	0	0
2024-05-26 07:33:32			0	32921	0	0	0	20963	19590	153701	27322	984634	40185	107686	0	0	8058	797833	0	0
2024-05-26 07:34:32			0	32906	0	0	0	20976	19580	153749	27485	984678	40173	107691	0	0	8057	798650	0	0
2024-05-26 07:35:32			0	32920	0	0	0	20961	19590	153625	27291	984713	40173	107685	0	0	8058	797885	0	0
2024-05-26 07:36:32			0	32916	0	0	0	20961	19580	153617	27412	984625	40185	107685	0	0	8058	798135	0	0
2024-05-26 07:37:32			0	32936	0	0	0	20968	19580	153625	27734	984617	40184	107688	0	0	8059	797104	0	0
2024-05-26 07:38:32			0	32931	0	0	0	20968	19590	153561	27493	984687	40185	107688	0	0	8059	797318	0	0
2024-05-26 07:39:32			0	32946	0	0	0	20974	19590	153465	27587	984687	40185	107690	0	0	8060	796546	0	0
2024-05-26 07:40:32			0	32946	0	0	0	20971	19590	153549	27528	984616	40197	107689	0	0	8060	796546	0	0
2024-05-26 07:41:32			0	32937	0	0	0	20974	19580	153481	27640	984697	40184	107690	0	0	8059	797053	0	0
2024-05-26 07:42:32			0	32944	0	0	0	20981	19580	153493	27319	984678	40196	107693	0	0	8059	796692	0	0
2024-05-26 07:43:32			0	32953	0	0	0	20984	19590	153601	27550	984634	40173	107694	0	0	8060	796185	0	0
2024-05-26 07:44:32			0	32960	0	0	0	20992	19580	153613	27537	984678	40173	107697	0	0	8060	795869	0	0
2024-05-26 07:45:32			0	32959	0	0	0	20989	19570	153417	27673	984688	40184	107696	0	0	8060	795964	0	0
2024-05-26 07:46:32			0	32937	0	0	0	20989	19590	153501	27428	984748	40185	107696	0	0	8059	797009	0	0
2024-05-26 07:47:32			0	32949	0	0	0	20979	19580	153493	27581	984678	40196	107692	0	0	8060	796435	0	0
2024-05-26 07:48:32			0	32952	0	0	0	20981	19600	153445	27630	984651	40185	107693	0	0	8060	796193	0	0
2024-05-26 07:49:32			0	32962	0	0	0	20984	19590	153437	27536	984669	40185	107694	0	0	8060	795722	0	0
2024-05-26 07:50:32			0	32956	0	0	0	20986	19590	153333	27687	984722	40185	107695	0	0	8060	796031	0	0
2024-05-26 07:51:32			0	32978	0	0	0	20994	19590	153421	27334	984695	40185	107698	0	0	8061	794900	0	0
2024-05-26 07:52:32			0	32957	0	0	0	21023	19590	153461	27644	984748	40197	107709	0	0	8059	795980	0	0
2024-05-26 07:53:32			0	32963	0	0	0	21005	19600	153509	27372	984818	40186	107702	0	0	8060	795627	0	0
2024-05-26 07:54:32			0	32962	0	0	0	21015	19600	153469	27171	984783	40185	107706	0	0	8060	795679	0	0
2024-05-26 07:55:32			0	32945	0	0	0	21036	19600	153433	27492	984818	40186	107714	0	0	8058	796553	0	0
2024-05-26 07:56:32			0	32966	0	0	0	21018	19610	153477	27358	984800	40187	107707	0	0	8060	795429	0	0
2024-05-26 07:57:32			0	32970	0	0	0	21038	19610	153509	27576	984774	40187	107715	0	0	8060	795224	0	0
2024-05-26 07:58:32			0	32986	0	0	0	21010	19620	153277	27530	984923	40187	107704	0	0	8061	794358	0	0
2024-05-26 07:59:32			0	32999	0	0	0	21025	19620	153285	27682	984825	40188	107710	0	0	8062	793691	0	0
2024-05-26 08:00:32			0	32998	0	0	0	21031	19610	153281	27694	984800	40176	107712	0	0	8062	793786	0	0
2024-05-26 08:01:32			0	33023	0	0	0	21018	19620	153113	27447	984843	40187	107707	0	0	8064	792460	0	0
2024-05-26 08:02:32			0	33054	0	0	0	21031	19620	153073	27523	984878	40199	107712	0	0	8065	790873	0	0
2024-05-26 08:03:32			0	33048	0	0	0	21028	19620	152937	27164	984905	40188	107711	0	0	8065	791180	0	0
2024-05-26 08:04:32			0	33076	0	0	0	21038	19620	152941	27421	984905	40188	107715	0	0	8066	789748	0	0
2024-05-26 08:05:32			0	33112	0	0	0	21028	19630	152833	27201	984860	40189	107711	0	0	8069	787867	0	0
2024-05-26 08:06:32			0	33106	0	0	0	21036	19630	152753	27464	984887	40189	107714	0	0	8068	788173	0	0
2024-05-26 08:07:32			0	33103	0	0	0	21025	19620	152761	27682	984896	40187	107710	0	0	8068	788369	0	0
2024-05-26 08:08:32			0	33108	0	0	0	21044	19630	152697	27545	984860	40189	107717	0	0	8068	788071	0	0
2024-05-26 08:09:32			0	33102	0	0	0	21038	19630	152745	27289	984860	40200	107715	0	0	8068	788377	0	0
2024-05-26 08:10:32			0	33104	0	0	0	21025	19630	152785	27393	984948	40189	107710	0	0	8068	788275	0	0
2024-05-26 08:11:32			0	33101	0	0	0	21046	19640	152773	27393	984930	40200	107718	0	0	8068	788385	0	0
2024-05-26 08:12:32			0	33114	0	0	0	21057	19640	152721	27339	984930	40200	107722	0	0	8068	787722	0	0
2024-05-26 08:13:32			0	33111	0	0	0	21057	19630	152737	27630	985001	40200	107722	0	0	8068	787918	0	0
2024-05-26 08:14:32			0	33110	0	0	0	21124	19650	152709	27613	985026	40212	107748	0	0	8067	787882	0	0
2024-05-26 08:15:32			0	33125	0	0	0	21096	19650	152609	27739	985053	40212	107737	0	0	8068	787118	0	0
2024-05-26 08:16:32			0	33127	0	0	0	21127	19680	152753	27784	985174	40205	107749	0	0	8068	786886	0	0
2024-05-26 08:17:32			0	33118	0	0	0	21109	19680	152657	27409	985156	40205	107742	0	0	8068	787344	0	0
2024-05-26 08:18:32			0	33100	0	0	0	21129	19680	152641	27703	985209	40193	107750	0	0	8067	788262	0	0
2024-05-26 08:19:32			0	33111	0	0	0	21158	19690	152609	27294	985252	40194	107761	0	0	8067	787658	0	0
2024-05-26 08:20:32			0	33130	0	0	0	21135	19700	152633	27429	985260	40206	107752	0	0	8068	786646	0	0
2024-05-26 08:21:32			0	33109	0	0	0	21181	19700	152629	27628	985269	40195	107770	0	0	8066	787716	0	0
2024-05-26 08:22:32			0	33124	0	0	0	21148	19710	152545	27663	985365	40229	107757	0	0	8068	786909	0	0
2024-05-26 08:23:32			0	33139	0	0	0	21168	19710	152573	27341	985330	40217	107765	0	0	8068	786145	0	0
2024-05-26 08:24:32			0	33129	0	0	0	21158	19730	152661	27582	985364	40218	107761	0	0	8068	786567	0	0
2024-05-26 08:25:32			0	33126	0	0	0	21163	19720	152637	27561	985347	40218	107763	0	0	8068	786763	0	0
2024-05-26 08:26:32			0	33116	0	0	0	21176	19740	152641	27036	985381	40199	107768	0	0	8067	787186	0	0
2024-05-26 08:27:32			0	33146	0	0	0	21161	19730	152525	27379	985417	40208	107762	0	0	8069	785702	0	0
2024-05-26 08:28:32			0	33136	0	0	0	21181	19730	152665	27511	985399	40208	107770	0	0	8068	786211	0	0
2024-05-26 08:29:32			0	33130	0	0	0	21187	19740	152569	27251	985434	40199	107772	0	0	8068	786473	0	0
2024-05-26 08:30:32			0	33127	0	0	0	21184	19740	152577	27331	985495	40200	107771	0	0	8068	786626	0	0
2024-05-26 08:31:32			0	33132	0	0	0	21187	19750	152553	27528	985432	40221	107772	0	0	8068	786328	0	0
2024-05-26 08:32:32			0	33122	0	0	0	21166	19750	152497	27621	985485	40210	107764	0	0	8068	786837	0	0
2024-05-26 08:33:32			0	33148	0	0	0	21168	19760	152501	27438	985502	40211	107765	0	0	8069	785471	0	0
2024-05-26 08:34:32			0	33138	0	0	0	21166	19760	152437	27450	985467	40211	107764	0	0	8069	785979	0	0
2024-05-26 08:35:32			0	33153	0	0	0	21135	19760	152497	27535	985441	40211	107752	0	0	8070	785216	0	0
2024-05-26 08:36:32			0	33166	0	0	0	21135	19760	152429	27282	985414	40200	107752	0	0	8071	784555	0	0
2024-05-26 08:37:32			0	33167	0	0	0	21122	19750	152341	27218	985397	40200	107747	0	0	8071	784548	0	0
2024-05-26 08:38:32			0	33159	0	0	0	21116	19760	152361	27649	985334	40211	107745	0	0	8071	784911	0	0
2024-05-26 08:39:32			0	33169	0	0	0	21111	19750	152281	27535	985318	40200	107743	0	0	8071	784446	0	0
2024-05-26 08:40:32			0	33181	0	0	0	21137	19750	152261	27317	985344	40210	107753	0	0	8072	783837	0	0
2024-05-26 08:41:32			0	33175	0	0	0	21124	19750	152353	27258	985397	40200	107748	0	0	8071	784141	0	0
2024-05-26 08:42:32			0	33199	0	0	0	21137	19740	152265	27419	985328	40199	107753	0	0	8073	782966	0	0
2024-05-26 08:43:32			0	33203	0	0	0	21119	19740	152261	27459	985362	40210	107746	0	0	8073	782763	0	0
2024-05-26 08:44:32			0	33226	0	0	0	21140	19740	152117	27417	985336	40210	107754	0	0	8074	781597	0	0
2024-05-26 08:45:32			0	33211	0	0	0	21135	19740	152185	27390	985381	40209	107752	0	0	8073	782358	0	0
2024-05-26 08:46:32			0	33192	0	0	0	21184	19740	152193	27562	985389	40210	107771	0	0	8071	783321	0	0
2024-05-26 08:47:32			0	33191	0	0	0	21187	19740	152285	27133	985442	40221	107772	0	0	8071	783372	0	0
2024-05-26 08:48:32			0	33192	0	0	0	21210	19740	152381	27376	985522	40210	107781	0	0	8071	783321	0	0
2024-05-26 08:49:32			0	33158	0	0	0	21184	19760	152409	27241	985608	40211	107771	0	0	8069	784962	0	0
2024-05-26 08:50:32			0	33161	0	0	0	21205	19760	152453	27424	985520	40222	107779	0	0	8069	784810	0	0
2024-05-26 08:51:32			0	33121	0	0	0	21233	19780	152549	27229	985580	40224	107790	0	0	8067	786758	0	0
2024-05-26 08:52:32			0	33092	0	0	0	21249	19760	152789	27511	985608	40211	107796	0	0	8064	788323	0	0
2024-05-26 08:53:32			0	33042	0	0	0	21267	19780	152893	27348	985642	40213	107803	0	0	8061	790790	0	0
2024-05-26 08:54:32			0	33037	0	0	0	21272	19790	153129	27422	985703	40224	107805	0	0	8061	791002	0	0
2024-05-26 08:55:32			0	33038	0	0	0	21283	19800	153141	27407	985781	40237	107809	0	0	8061	790908	0	0
2024-05-26 08:56:32			0	33012	0	0	0	21285	19810	153189	27562	985763	40216	107810	0	0	8059	792195	0	0
2024-05-26 08:57:32			0	32986	0	0	0	21298	19820	153261	27182	985833	40238	107815	0	0	8058	793484	0	0
2024-05-26 08:58:32			0	32974	0	0	0	21301	19820	153373	27140	985833	40206	107816	0	0	8057	794100	0	0
2024-05-26 08:59:32			0	32952	0	0	0	21311	19840	153533	27187	985928	40241	107820	0	0	8055	795142	0	0
2024-05-26 09:00:32			0	32938	0	0	0	21309	19850	153593	27241	985989	40242	107819	0	0	8055	795817	0	0
2024-05-26 09:01:32			0	32914	0	0	0	21314	19850	153673	27277	985998	40231	107821	0	0	8053	797052	0	0
2024-05-26 09:02:32			0	32900	0	0	0	21309	19870	153669	27428	985996	40244	107819	0	0	8053	797685	0	0
2024-05-26 09:03:32			0	32902	0	0	0	21309	19870	153609	27069	986031	40244	107819	0	0	8053	797582	0	0
2024-05-26 09:04:32			0	32919	0	0	0	21290	19870	153429	27211	985970	40221	107812	0	0	8054	796707	0	0
2024-05-26 09:05:32			0	32944	0	0	0	21293	19880	153413	27384	986039	40222	107813	0	0	8055	795377	0	0
2024-05-26 09:06:32			0	32979	0	0	0	21285	19880	153309	27367	985995	40211	107810	0	0	8058	793581	0	0
2024-05-26 09:07:32			0	32992	0	0	0	21322	19870	153233	27029	986058	40233	107824	0	0	8058	792958	0	0
2024-05-26 09:08:32			0	32983	0	0	0	21311	19870	153305	27365	986031	40222	107820	0	0	8057	793419	0	0
2024-05-26 09:09:32			0	32990	0	0	0	21301	19880	153253	27289	986093	40233	107816	0	0	8058	793016	0	0
2024-05-26 09:10:32			0	32984	0	0	0	21251	19880	153149	27388	986039	40233	107797	0	0	8059	793324	0	0
2024-05-26 09:11:32			0	33056	0	0	0	21202	19890	152913	27293	986030	40212	107778	0	0	8064	789596	0	0
2024-05-26 09:12:32			0	33031	0	0	0	21223	19890	152989	27239	985958	40224	107786	0	0	8062	790874	0	0
2024-05-26 09:13:32			0	33043	0	0	0	21218	19870	152893	27274	985978	40222	107784	0	0	8063	790347	0	0
2024-05-26 09:14:32			0	33090	0	0	0	21161	19880	152641	27206	985968	40233	107762	0	0	8066	787904	0	0
2024-05-26 09:15:32			0	33125	0	0	0	21114	19870	152365	27026	985864	40221	107744	0	0	8069	786165	0	0
2024-05-26 09:16:32			0	33156	0	0	0	21096	19860	152297	27774	985802	40209	107737	0	0	8071	784632	0	0
2024-05-26 09:17:32			0	33159	0	0	0	21098	19840	152321	27270	985689	40208	107738	0	0	8071	784565	0	0
2024-05-26 09:18:32			0	33179	0	0	0	21028	19830	152213	27360	985646	40207	107711	0	0	8074	783593	0	0
2024-05-26 09:19:32			0	33201	0	0	0	20948	19820	152157	27260	985594	40194	107680	0	0	8076	782520	0	0
2024-05-26 09:20:32			0	33187	0	0	0	21025	19800	152181	27345	985410	40205	107710	0	0	8074	783316	0	0
2024-05-26 09:21:32			0	33194	0	0	0	21080	19780	152101	27182	985482	40192	107731	0	0	8073	783047	0	0
2024-05-26 09:22:32			0	33187	0	0	0	21148	19790	152333	27421	985526	40192	107757	0	0	8072	783360	0	0
2024-05-26 09:23:32			0	33193	0	0	0	21135	19780	152169	27303	985562	40203	107752	0	0	8072	783098	0	0
2024-05-26 09:24:32			0	33190	0	0	0	21109	19780	152169	27642	985535	40203	107742	0	0	8073	783251	0	0
2024-05-26 09:25:32			0	33191	0	0	0	21114	19790	152177	27608	985526	40213	107744	0	0	8073	783156	0	0
2024-05-26 09:26:32			0	33213	0	0	0	21174	19790	152201	27315	985597	40203	107767	0	0	8073	782041	0	0
2024-05-26 09:27:32			0	33220	0	0	0	21085	19790	152073	27171	985597	40203	107733	0	0	8075	781686	0	0
2024-05-26 09:28:32			0	33226	0	0	0	21166	19800	152041	27440	985587	40204	107764	0	0	8074	781339	0	0
2024-05-26 09:29:32			0	33243	0	0	0	21163	19790	151925	27135	985650	40224	107763	0	0	8075	780522	0	0
2024-05-26 09:30:32			0	33271	0	0	0	21184	19800	151853	27332	985755	40215	107771	0	0	8076	779063	0	0
2024-05-26 09:31:32			0	33307	0	0	0	21137	19810	151797	27327	985710	40194	107753	0	0	8079	777204	0	0
2024-05-26 09:32:32			0	33277	0	0	0	21181	19800	151781	27322	985720	40204	107770	0	0	8077	778760	0	0
2024-05-26 09:33:32			0	33304	0	0	0	21184	19800	151769	27488	985781	40215	107771	0	0	8078	777398	0	0
2024-05-26 09:34:32			0	33296	0	0	0	21231	19820	151729	27341	985753	40206	107789	0	0	8077	777715	0	0
2024-05-26 09:35:32			0	33311	0	0	0	21228	19820	151669	27419	985788	40207	107788	0	0	8078	776959	0	0
2024-05-26 09:36:32			0	33312	0	0	0	21262	19840	151625	27428	985840	40218	107801	0	0	8078	776823	0	0
2024-05-26 09:37:32			0	33320	0	0	0	21267	19840	151577	27313	985946	40218	107803	0	0	8078	776420	0	0
2024-05-26 09:38:32			0	33316	0	0	0	21340	19860	151689	27244	986006	40219	107831	0	0	8077	776536	0	0
2024-05-26 09:39:32			0	33291	0	0	0	21272	19850	151849	27024	986024	40219	107805	0	0	8076	777839	0	0
2024-05-26 09:40:32			0	33316	0	0	0	21218	19870	151737	27448	986023	40221	107784	0	0	8079	776493	0	0
2024-05-26 09:41:32			0	33291	0	0	0	21215	19860	151685	27398	985900	40219	107783	0	0	8077	777796	0	0
2024-05-26 09:42:32			0	33269	0	0	0	21197	19850	151841	27055	985865	40219	107776	0	0	8076	778950	0	0
2024-05-26 09:43:32			0	33263	0	0	0	21189	19850	151889	27409	985892	40219	107773	0	0	8076	779253	0	0
2024-05-26 09:44:32			0	33256	0	0	0	21220	19850	151853	27300	985857	40231	107785	0	0	8075	779607	0	0
2024-05-26 09:45:32			0	33247	0	0	0	21158	19850	151933	27140	985830	40219	107761	0	0	8076	780062	0	0
2024-05-26 09:46:32			0	33238	0	0	0	21212	19850	152033	27159	985830	40208	107782	0	0	8074	780517	0	0
2024-05-26 09:47:32			0	33225	0	0	0	21238	19850	152061	27343	985838	40219	107792	0	0	8073	781175	0	0
2024-05-26 09:48:32			0	33194	0	0	0	21288	19860	152153	27223	985926	40242	107811	0	0	8070	782702	0	0
2024-05-26 09:49:32			0	33152	0	0	0	21322	19870	152549	27543	986049	40221	107824	0	0	8067	784791	0	0
2024-05-26 09:50:32			0	33134	0	0	0	21293	19860	152581	27274	986014	40232	107813	0	0	8067	785750	0	0
2024-05-26 09:51:32			0	33142	0	0	0	21322	19870	152505	27374	986084	40233	107824	0	0	8067	785300	0	0
2024-05-26 09:52:32			0	33156	0	0	0	21340	19880	152529	27357	986101	40233	107831	0	0	8067	784545	0	0
2024-05-26 09:53:32			0	33130	0	0	0	21363	19890	152549	27490	986171	40235	107840	0	0	8065	785824	0	0
2024-05-26 09:54:32			0	33133	0	0	0	21379	19910	152537	27289	986275	40236	107846	0	0	8065	785584	0	0
2024-05-26 09:55:32			0	33150	0	0	0	21355	19920	152497	27308	986266	40237	107837	0	0	8067	784677	0	0
2024-05-26 09:56:32			0	33181	0	0	0	21374	19930	152337	27429	986335	40249	107844	0	0	8068	783060	0	0
2024-05-26 09:57:32			0	33207	0	0	0	21335	19930	152189	27431	986335	40238	107829	0	0	8071	781742	0	0
2024-05-26 09:58:32			0	33241	0	0	0	21353	19940	151977	27436	986326	40250	107836	0	0	8072	779978	0	0
2024-05-26 09:59:32			0	33259	0	0	0	21340	19940	151817	27447	986379	40250	107831	0	0	8074	779069	0	0
2024-05-26 10:00:32			0	33297	0	0	0	21272	19950	151713	27894	986369	40239	107805	0	0	8077	777108	0	0
2024-05-26 10:01:32			0	33300	0	0	0	21283	19940	151749	27384	986360	40250	107809	0	0	8077	777000	0	0
2024-05-26 10:02:32			0	33325	0	0	0	21262	19950	151557	27279	986324	40229	107801	0	0	8079	775698	0	0
2024-05-26 10:03:32			0	33325	0	0	0	21220	19950	151541	27348	986271	40240	107785	0	0	8080	775698	0	0
2024-05-26 10:04:32			0	33314	0	0	0	21257	19940	151577	27138	986228	40228	107799	0	0	8078	776294	0	0
2024-05-26 10:05:32			0	33301	0	0	0	21288	19940	151669	27310	986326	40227	107811	0	0	8077	776949	0	0
2024-05-26 10:06:32			0	33306	0	0	0	21254	19940	151597	27116	986175	40239	107798	0	0	8078	776697	0	0
2024-05-26 10:07:32			0	33279	0	0	0	21449	19940	151849	27397	986352	40239	107873	0	0	8073	778059	0	0
2024-05-26 10:08:32			0	33249	0	0	0	21516	19950	152045	27511	986483	40251	107899	0	0	8070	779531	0	0
2024-05-26 10:09:32			0	33204	0	0	0	21501	19980	152269	27331	986579	40264	107893	0	0	8068	781679	0	0
2024-05-26 10:10:32			0	33247	0	0	0	21363	20000	151869	27199	986639	40255	107840	0	0	8073	779417	0	0
2024-05-26 10:11:32			0	33296	0	0	0	21397	20000	151697	27476	986551	40221	107853	0	0	8075	776944	0	0
2024-05-26 10:12:32			0	33322	0	0	0	21197	20000	151413	27105	986498	40233	107776	0	0	8080	775635	0	0
2024-05-26 10:13:32			0	33304	0	0	0	21332	20000	151613	27348	986391	40233	107828	0	0	8077	776541	0	0
2024-05-26 10:14:32			0	33277	0	0	0	21535	20000	151793	27092	986551	40233	107906	0	0	8072	777902	0	0
2024-05-26 10:15:32			0	33260	0	0	0	21545	20000	152113	27211	986665	40255	107910	0	0	8071	778760	0	0
2024-05-26 10:16:32			0	33218	0	0	0	21550	20020	152129	27246	986823	40267	107912	0	0	8068	780797	0	0
2024-05-26 10:17:32			0	33187	0	0	0	21545	20030	152257	27301	986928	40269	107910	0	0	8066	782324	0	0
2024-05-26 10:18:32			0	33192	0	0	0	21527	20060	152257	27526	986925	40271	107903	0	0	8067	781941	0	0
2024-05-26 10:19:32			0	33217	0	0	0	21548	20070	152161	27348	986941	40250	107911	0	0	8068	780633	0	0
2024-05-26 10:20:32			0	33178	0	0	0	21503	20070	152269	27154	986986	40250	107894	0	0	8067	782608	0	0
2024-05-26 10:21:32			0	33225	0	0	0	21514	20070	151949	27711	986995	40261	107898	0	0	8069	780228	0	0
2024-05-26 10:22:32			0	33243	0	0	0	21527	20080	151901	27092	986976	40251	107903	0	0	8070	779275	0	0
2024-05-26 10:23:32			0	33263	0	0	0	21553	20070	151953	27454	987048	40272	107913	0	0	8071	778308	0	0
2024-05-26 10:24:32			0	33240	0	0	0	21522	20080	151885	27180	987038	40273	107901	0	0	8070	779427	0	0
2024-05-26 10:25:32			0	33245	0	0	0	21553	20090	151821	27203	987108	40274	107913	0	0	8070	779131	0	0
2024-05-26 10:26:32			0	33226	0	0	0	21571	20110	152005	26875	987107	40265	107920	0	0	8069	780005	0	0
2024-05-26 10:27:32			0	33220	0	0	0	21579	20110	152013	27462	987141	40253	107923	0	0	8068	780309	0	0
2024-05-26 10:28:32			0	33218	0	0	0	21519	20120	152037	27454	987123	40254	107900	0	0	8069	780367	0	0
2024-05-26 10:29:32			0	33211	0	0	0	21597	20120	152165	27402	987238	40266	107930	0	0	8067	780721	0	0
2024-05-26 10:30:32			0	33182	0	0	0	21605	20130	152169	27433	987255	40278	107933	0	0	8066	782146	0	0
2024-05-26 10:31:32			0	33170	0	0	0	21602	20140	152325	27279	987263	40279	107932	0	0	8065	782711	0	0
2024-05-26 10:32:32			0	33188	0	0	0	21586	20140	152185	27531	987236	40256	107926	0	0	8066	781799	0	0
2024-05-26 10:33:32			0	33175	0	0	0	21589	20150	152309	27717	987261	40279	107927	0	0	8066	782414	0	0
2024-05-26 10:34:32			0	33183	0	0	0	21594	20160	152109	27350	987331	40281	107929	0	0	8066	781966	0	0
2024-05-26 10:35:32			0	33176	0	0	0	21602	20160	152197	27499	987331	40303	107932	0	0	8065	782321	0	0
2024-05-26 10:36:32			0	33171	0	0	0	21651	20160	152285	27661	987358	40281	107951	0	0	8064	782574	0	0
2024-05-26 10:37:32			0	33155	0	0	0	21659	20170	152341	27511	987401	40282	107954	0	0	8063	783342	0	0
2024-05-26 10:38:32			0	33131	0	0	0	21657	20190	152369	27575	987514	40273	107953	0	0	8062	784474	0	0
2024-05-26 10:39:32			0	33151	0	0	0	21654	20190	152325	27502	987514	40284	107952	0	0	8063	783459	0	0
2024-05-26 10:40:32			0	33143	0	0	0	21633	20200	152293	27358	987611	40285	107944	0	0	8063	783821	0	0
2024-05-26 10:41:32			0	33139	0	0	0	21646	20200	152253	27545	987558	40273	107949	0	0	8063	784024	0	0
2024-05-26 10:42:32			0	33161	0	0	0	21659	20210	152253	27611	987486	40274	107954	0	0	8064	782865	0	0
2024-05-26 10:43:32			0	33145	0	0	0	21675	20210	152237	27364	987574	40274	107960	0	0	8063	783676	0	0
2024-05-26 10:44:32			0	33149	0	0	0	21690	20210	152337	27499	987627	40286	107966	0	0	8063	783474	0	0
2024-05-26 10:45:32			0	33163	0	0	0	21662	20210	152297	27201	987654	40286	107955	0	0	8064	782764	0	0
2024-05-26 10:46:32			0	33151	0	0	0	21659	20230	152309	27409	987653	40287	107954	0	0	8063	783286	0	0
2024-05-26 10:47:32			0	33177	0	0	0	21680	20230	152249	27267	987626	40298	107962	0	0	8065	781968	0	0
2024-05-26 10:48:32			0	33196	0	0	0	21680	20240	152081	27147	987651	40277	107962	0	0	8066	780963	0	0
2024-05-26 10:49:32			0	33223	0	0	0	21698	20240	151941	27535	987731	40288	107969	0	0	8067	779598	0	0
2024-05-26 10:50:32			0	33254	0	0	0	21706	20250	151765	27441	987739	40278	107972	0	0	8069	777989	0	0
2024-05-26 10:51:32			0	33273	0	0	0	21711	20260	151809	27305	987774	40300	107974	0	0	8070	776989	0	0
2024-05-26 10:52:32			0	33310	0	0	0	21724	20270	151621	27229	987791	40290	107979	0	0	8072	775083	0	0
2024-05-26 10:53:32			0	33312	0	0	0	21727	20270	151477	27552	987844	40300	107980	0	0	8072	774983	0	0
2024-05-26 10:54:32			0	33351	0	0	0	21737	20280	151277	27116	987781	40280	107984	0	0	8074	772981	0	0
2024-05-26 10:55:32			0	33361	0	0	0	21742	20290	151285	27306	987878	40313	107986	0	0	8075	772437	0	0
2024-05-26 10:56:32			0	33370	0	0	0	21750	20300	151333	27397	987868	40293	107989	0	0	8075	771943	0	0
2024-05-26 10:57:32			0	33354	0	0	0	21745	20300	151361	27355	987895	40304	107987	0	0	8074	772746	0	0
2024-05-26 10:58:32			0	33323	0	0	0	21750	20300	151461	27405	987921	40304	107989	0	0	8072	774302	0	0
2024-05-26 10:59:32			0	33331	0	0	0	21750	20300	151429	27348	987956	40293	107989	0	0	8073	773900	0	0
2024-05-26 11:00:32			0	33328	0	0	0	21755	20310	151397	27265	987911	40271	107991	0	0	8073	774008	0	0
2024-05-26 11:01:32			0	33350	0	0	0	21766	20310	151305	27466	987999	40293	107995	0	0	8074	772904	0	0
2024-05-26 11:02:32			0	33378	0	0	0	21768	20320	151221	27317	988016	40295	107996	0	0	8075	771457	0	0
2024-05-26 11:03:32			0	33410	0	0	0	21779	20330	151001	27374	988086	40306	108000	0	0	8077	769813	0	0
2024-05-26 11:04:32			0	33427	0	0	0	21781	20330	151069	27105	988077	40285	108001	0	0	8078	768964	0	0
2024-05-26 11:05:32			0	33446	0	0	0	21794	20340	151033	27053	988068	40296	108006	0	0	8079	767973	0	0
2024-05-26 11:06:32			0	33451	0	0	0	21794	20340	150889	27419	988174	40307	108006	0	0	8079	767723	0	0
2024-05-26 11:07:32			0	33470	0	0	0	21774	20340	150781	27161	988130	40308	107998	0	0	8081	766775	0	0
2024-05-26 11:08:32			0	33507	0	0	0	21779	20350	150741	27118	988138	40297	108000	0	0	8083	764891	0	0
2024-05-26 11:09:32			0	33501	0	0	0	21779	20360	150481	26953	988190	40299	108000	0	0	8083	765147	0	0
2024-05-26 11:10:32			0	33539	0	0	0	21797	20360	150465	27306	988208	40309	108007	0	0	8084	763258	0	0
2024-05-26 11:11:32			0	33525	0	0	0	21794	20370	150373	27163	988224	40299	108006	0	0	8084	763912	0	0
2024-05-26 11:12:32			0	33549	0	0	0	21779	20370	150393	26987	988224	40310	108000	0	0	8085	762720	0	0
2024-05-26 11:13:32			0	33569	0	0	0	21766	20370	150309	26977	988180	40310	107995	0	0	8087	761728	0	0
2024-05-26 11:14:32			0	33571	0	0	0	21820	20380	150210	26993	988294	40300	108016	0	0	8086	761587	0	0
2024-05-26 11:15:32			0	33583	0	0	0	21792	20380	150198	27000	988276	40290	108005	0	0	8087	760992	0	0
2024-05-26 11:16:32			0	33586	0	0	0	21797	20390	150098	27258	988240	40291	108007	0	0	8087	760802	0	0
2024-05-26 11:17:32			0	33615	0	0	0	21789	20390	150062	26807	988285	40301	108004	0	0	8089	759366	0	0
2024-05-26 11:18:32			0	33635	0	0	0	21750	20390	149782	27332	988311	40313	107989	0	0	8091	758378	0	0
2024-05-26 11:19:32			0	33675	0	0	0	21714	20390	149790	27286	988205	40301	107975	0	0	8094	756404	0	0
2024-05-26 11:20:32			0	33683	0	0	0	21776	20380	149694	27137	988223	40290	107999	0	0	8093	756052	0	0
2024-05-26 11:21:32			0	33707	0	0	0	21794	20390	149678	27036	988311	40301	108006	0	0	8094	754828	0	0
2024-05-26 11:22:32			0	33710	0	0	0	21794	20380	149594	27267	988276	40312	108006	0	0	8095	754722	0	0
2024-05-26 11:23:32			0	33703	0	0	0	21831	20400	149598	27417	988354	40301	108020	0	0	8094	754983	0	0
2024-05-26 11:24:32			0	33701	0	0	0	21838	20400	149742	27159	988336	40291	108023	0	0	8093	755082	0	0
2024-05-26 11:25:32			0	33687	0	0	0	21799	20410	149762	27481	988398	40303	108008	0	0	8093	755729	0	0
2024-05-26 11:26:32			0	33692	0	0	0	21844	20400	149650	27315	988416	40302	108025	0	0	8093	755525	0	0
2024-05-26 11:27:32			0	33676	0	0	0	21875	20410	149682	27376	988424	40314	108037	0	0	8091	756271	0	0
2024-05-26 11:28:32			0	33687	0	0	0	21885	20420	149798	27192	988476	40315	108041	0	0	8092	755688	0	0
2024-05-26 11:29:32			0	33676	0	0	0	21872	20420	149750	27412	988503	40304	108036	0	0	8091	756230	0	0
2024-05-26 11:30:32			0	33660	0	0	0	21888	20440	149870	27329	988581	40316	108042	0	0	8090	756935	0	0
2024-05-26 11:31:32			0	33667	0	0	0	21885	20430	149850	27540	988573	40316	108041	0	0	8091	756631	0	0
2024-05-26 11:32:32			0	33674	0	0	0	21901	20440	149826	27268	988661	40316	108047	0	0	8091	756245	0	0
2024-05-26 11:33:32			0	33670	0	0	0	21909	20450	149778	27419	988659	40307	108050	0	0	8091	756400	0	0
2024-05-26 11:34:32			0	33696	0	0	0	21919	20460	149754	26970	988668	40340	108054	0	0	8092	755078	0	0
2024-05-26 11:35:32			0	33705	0	0	0	21906	20460	149574	27170	988694	40296	108049	0	0	8093	754635	0	0
2024-05-26 11:36:32			0	33717	0	0	0	21919	20470	149510	27208	988711	40331	108054	0	0	8093	754003	0	0
2024-05-26 11:37:32			0	33726	0	0	0	21922	20480	149598	27098	988755	40320	108055	0	0	8094	753519	0	0
2024-05-26 11:38:32			0	33718	0	0	0	21924	20480	149594	27402	988737	40332	108056	0	0	8093	753912	0	0
2024-05-26 11:39:32			0	33726	0	0	0	21914	20490	149458	27039	988753	40333	108052	0	0	8094	753477	0	0
2024-05-26 11:40:32			0	33713	0	0	0	21922	20490	149582	27293	988806	40311	108055	0	0	8093	754116	0	0
2024-05-26 11:41:32			0	33695	0	0	0	21932	20480	149650	27319	988710	40320	108059	0	0	8092	755043	0	0
2024-05-26 11:42:32			0	33712	0	0	0	21932	20490	149566	26840	988798	40321	108059	0	0	8093	754165	0	0
2024-05-26 11:43:32			0	33691	0	0	0	21929	20490	149646	27300	988833	40322	108058	0	0	8092	755198	0	0
2024-05-26 11:44:32			0	33720	0	0	0	21919	20500	149590	27353	988815	40322	108054	0	0	8094	753730	0	0
2024-05-26 11:45:32			0	33732	0	0	0	21922	20500	149422	27441	988876	40322	108055	0	0	8094	753141	0	0
2024-05-26 11:46:32			0	33786	0	0	0	21906	20510	149330	27279	988813	40324	108049	0	0	8098	750451	0	0
2024-05-26 11:47:32			0	33789	0	0	0	21927	20510	149206	27649	988858	40333	108057	0	0	8097	750304	0	0
2024-05-26 11:48:32			0	33804	0	0	0	21950	20510	149238	27067	988840	40334	108066	0	0	8098	749570	0	0
2024-05-26 11:49:32			0	33759	0	0	0	21958	20510	149402	27379	988964	40323	108069	0	0	8095	751774	0	0
2024-05-26 11:50:32			0	33750	0	0	0	21945	20530	149442	27249	988918	40335	108064	0	0	8095	752132	0	0
2024-05-26 11:51:32			0	33760	0	0	0	21948	20520	149338	27150	988963	40314	108065	0	0	8095	751684	0	0
2024-05-26 11:52:32			0	33808	0	0	0	21745	20530	149134	27604	988918	40314	107987	0	0	8102	749291	0	0
2024-05-26 11:53:32			0	33818	0	0	0	21786	20520	149158	27261	988901	40324	108003	0	0	8102	748843	0	0
2024-05-26 11:54:32			0	33849	0	0	0	21815	20530	148902	27547	988785	40314	108014	0	0	8103	747288	0	0
2024-05-26 11:55:32			0	33826	0	0	0	21948	20510	149118	27183	988858	40312	108065	0	0	8099	748494	0	0
2024-05-26 11:56:32			0	33805	0	0	0	21942	20520	149146	27326	988857	40325	108063	0	0	8098	749479	0	0
2024-05-26 11:57:32			0	33809	0	0	0	21973	20530	149186	27298	988998	40335	108075	0	0	8098	749242	0	0
2024-05-26 11:58:32			0	33818	0	0	0	21935	20530	149122	27237	988980	40336	108060	0	0	8099	748802	0	0
2024-05-26 11:59:32			0	33806	0	0	0	21989	20550	149186	26844	989050	40337	108081	0	0	8098	749306	0	0
2024-05-26 12:00:32			0	33828	0	0	0	21981	20560	149158	27263	989119	40328	108078	0	0	8099	748189	0	0
2024-05-26 12:01:32			0	33822	0	0	0	21976	20560	149050	27284	989075	40328	108076	0	0	8099	748482	0	0
2024-05-26 12:02:32			0	33844	0	0	0	21901	20570	148898	27395	989136	40328	108047	0	0	8101	747366	0	0
2024-05-26 12:03:32			0	33872	0	0	0	21701	20560	148822	27280	988907	40316	107970	0	0	8106	746042	0	0
2024-05-26 12:04:32			0	33861	0	0	0	21981	20550	148906	27256	988864	40304	108078	0	0	8101	746620	0	0
2024-05-26 12:05:32			0	33823	0	0	0	22007	20540	148990	27400	988908	40315	108088	0	0	8098	748516	0	0
2024-05-26 12:06:32			0	33834	0	0	0	22049	20560	149134	27391	989101	40339	108104	0	0	8098	747896	0	0
2024-05-26 12:07:32			0	33837	0	0	0	22028	20560	148970	27100	989181	40339	108096	0	0	8099	747750	0	0
2024-05-26 12:08:32			0	33850	0	0	0	22036	20580	148906	27324	989215	40330	108099	0	0	8099	747032	0	0
2024-05-26 12:09:32			0	33855	0	0	0	22044	20590	148786	27459	989258	40331	108102	0	0	8100	746747	0	0
2024-05-26 12:10:32			0	33882	0	0	0	21971	20600	148714	27381	989301	40332	108074	0	0	8102	745390	0	0
2024-05-26 12:11:32			0	33872	0	0	0	22070	20610	148750	27060	989292	40333	108112	0	0	8100	745836	0	0
2024-05-26 12:12:32			0	33896	0	0	0	22090	20610	148646	27329	989425	40343	108120	0	0	8101	744667	0	0
2024-05-26 12:13:32			0	33913	0	0	0	22062	20630	148694	27424	989450	40333	108109	0	0	8103	743758	0	0
2024-05-26 12:14:32			0	33922	0	0	0	22088	20630	148562	27159	989485	40323	108119	0	0	8103	743320	0	0
2024-05-26 12:15:32			0	33955	0	0	0	22083	20630	148546	27367	989485	40356	108117	0	0	8105	741718	0	0
2024-05-26 12:16:32			0	33939	0	0	0	22098	20650	148526	27509	989536	40347	108123	0	0	8104	742412	0	0
2024-05-26 12:17:32			0	33931	0	0	0	22153	20660	148566	27346	989588	40336	108144	0	0	8102	742760	0	0
2024-05-26 12:18:32			0	33947	0	0	0	22135	20660	148538	27440	989641	40336	108137	0	0	8104	741983	0	0
2024-05-26 12:19:32			0	33959	0	0	0	22129	20670	148554	27646	989605	40360	108135	0	0	8105	741360	0	0
2024-05-26 12:20:32			0	33964	0	0	0	22135	20690	148410	27334	989657	40361	108137	0	0	8105	741035	0	0
2024-05-26 12:21:32			0	33972	0	0	0	22114	20700	148290	27109	989726	40362	108129	0	0	8106	740607	0	0
2024-05-26 12:22:32			0	33979	0	0	0	22051	20690	148166	27255	989745	40350	108105	0	0	8107	740309	0	0
2024-05-26 12:23:32			0	33996	0	0	0	22096	20710	148126	27279	989796	40352	108122	0	0	8107	739404	0	0
2024-05-26 12:24:32			0	33997	0	0	0	22077	20710	148190	27064	989796	40341	108115	0	0	8108	739355	0	0
2024-05-26 12:25:32			0	34011	0	0	0	22033	20710	148162	27362	989725	40363	108098	0	0	8109	738678	0	0
2024-05-26 12:26:32			0	34049	0	0	0	21670	20710	147746	27355	989664	40352	107958	0	0	8118	736842	0	0
2024-05-26 12:27:32			0	34070	0	0	0	21719	20700	147650	27573	989381	40318	107977	0	0	8118	735870	0	0
2024-05-26 12:28:32			0	34063	0	0	0	21545	20680	147582	27582	989356	40305	107910	0	0	8120	736289	0	0
2024-05-26 12:29:32			0	34052	0	0	0	22002	20670	147946	27223	989304	40316	108086	0	0	8112	736861	0	0
2024-05-26 12:30:32			0	34022	0	0	0	22041	20660	148166	27327	989455	40326	108101	0	0	8110	738351	0	0
2024-05-26 12:31:32			0	34046	0	0	0	21784	20660	147910	27275	989508	40326	108002	0	0	8115	737191	0	0
2024-05-26 12:32:32			0	34084	0	0	0	21555	20670	147658	27488	989198	40304	107914	0	0	8121	735318	0	0
2024-05-26 12:33:32			0	34041	0	0	0	22012	20650	148070	27481	989164	40303	108090	0	0	8111	737473	0	0
2024-05-26 12:34:32			0	34028	0	0	0	22012	20640	148002	27270	989387	40312	108090	0	0	8110	738142	0	0
2024-05-26 12:35:32			0	34034	0	0	0	21945	20640	148014	27300	989422	40324	108064	0	0	8112	737852	0	0
2024-05-26 12:36:32			0	34030	0	0	0	22054	20660	148094	27041	989527	40315	108106	0	0	8110	737964	0	0
2024-05-26 12:37:32			0	34012	0	0	0	21914	20660	148078	27232	989482	40315	108052	0	0	8111	738834	0	0
2024-05-26 12:38:32			0	34031	0	0	0	21870	20660	148030	27039	989455	40326	108035	0	0	8113	737916	0	0
2024-05-26 12:39:32			0	34017	0	0	0	21935	20660	148166	27253	989447	40304	108060	0	0	8111	738592	0	0
2024-05-26 12:40:32			0	34017	0	0	0	21888	20660	148074	27293	989394	40326	108042	0	0	8112	738592	0	0
2024-05-26 12:41:32			0	34014	0	0	0	21971	20650	148082	27218	989430	40325	108074	0	0	8110	738778	0	0
2024-05-26 12:42:32			0	34037	0	0	0	21919	20660	148082	27504	989420	40326	108054	0	0	8113	737626	0	0
2024-05-26 12:43:32			0	34023	0	0	0	21885	20660	148006	27282	989420	40336	108041	0	0	8112	738302	0	0
2024-05-26 12:44:32			0	34027	0	0	0	21989	20650	148062	27369	989510	40325	108081	0	0	8111	738150	0	0
2024-05-26 12:45:32			0	34008	0	0	0	21989	20670	148006	27405	989490	40316	108081	0	0	8110	738987	0	0
2024-05-26 12:46:32			0	34019	0	0	0	21973	20670	148094	27419	989543	40316	108075	0	0	8111	738455	0	0
2024-05-26 12:47:32			0	34031	0	0	0	21971	20670	147986	27383	989472	40304	108074	0	0	8111	737875	0	0
2024-05-26 12:48:32			0	34041	0	0	0	22038	20670	148070	27189	989525	40327	108100	0	0	8111	737392	0	0
2024-05-26 12:49:32			0	34047	0	0	0	22051	20680	148014	27107	989587	40328	108105	0	0	8111	737061	0	0
2024-05-26 12:50:32			0	34049	0	0	0	22072	20680	147938	27549	989587	40338	108113	0	0	8111	736965	0	0
2024-05-26 12:51:32			0	34049	0	0	0	22096	20690	147950	27178	989665	40339	108122	0	0	8110	736924	0	0
2024-05-26 12:52:32			0	34074	0	0	0	22127	20700	147914	27275	989780	40330	108134	0	0	8111	735677	0	0
2024-05-26 12:53:32			0	34067	0	0	0	22163	20700	148014	27471	989841	40352	108148	0	0	8110	736015	0	0
2024-05-26 12:54:32			0	34066	0	0	0	22111	20720	147826	27163	989814	40341	108128	0	0	8111	735982	0	0
2024-05-26 12:55:32			0	34078	0	0	0	22080	20730	147854	27121	989937	40354	108116	0	0	8112	735363	0	0
2024-05-26 12:56:32			0	34083	0	0	0	21973	20730	147854	27499	989865	40322	108075	0	0	8115	735122	0	0
2024-05-26 12:57:32			0	34071	0	0	0	21810	20730	147702	27173	989706	40333	108012	0	0	8117	735700	0	0
2024-05-26 12:58:32			0	34044	0	0	0	21940	20720	148062	27078	989663	40321	108062	0	0	8113	737043	0	0
2024-05-26 12:59:32			0	34027	0	0	0	21997	20720	147918	27315	989654	40331	108084	0	0	8111	737864	0	0
2024-05-26 13:00:32			0	34031	0	0	0	22051	20710	148038	27244	989752	40319	108105	0	0	8110	737712	0	0
2024-05-26 13:01:32			0	34029	0	0	0	22148	20720	148054	27578	989822	40342	108142	0	0	8108	737767	0	0
2024-05-26 13:02:32			0	34035	0	0	0	22148	20720	148086	27130	989902	40342	108142	0	0	8109	737477	0	0
2024-05-26 13:03:32			0	34026	0	0	0	22207	20770	148130	27426	990083	40347	108165	0	0	8108	737708	0	0
2024-05-26 13:04:32			0	34037	0	0	0	22168	20770	148134	27578	990145	40325	108150	0	0	8109	737177	0	0
2024-05-26 13:05:32			0	34040	0	0	0	21958	20770	147758	27326	989977	40336	108069	0	0	8113	737032	0	0
2024-05-26 13:06:32			0	34042	0	0	0	22124	20780	148010	27391	990020	40325	108133	0	0	8110	736895	0	0
2024-05-26 13:07:32			0	34045	0	0	0	21896	20770	147838	26906	990039	40336	108045	0	0	8114	736791	0	0
2024-05-26 13:08:32			0	34049	0	0	0	21690	20770	147614	27542	989746	40325	107966	0	0	8118	736598	0	0
2024-05-26 13:09:32			0	34025	0	0	0	22059	20750	147990	27331	989784	40311	108108	0	0	8110	737838	0	0
2024-05-26 13:10:32			0	34037	0	0	0	22161	20750	148066	27557	989837	40333	108147	0	0	8109	737258	0	0
2024-05-26 13:11:32			0	34041	0	0	0	21880	20760	147798	27502	989987	40334	108039	0	0	8114	737024	0	0
2024-05-26 13:12:32			0	34042	0	0	0	22109	20770	147878	27814	990030	40347	108127	0	0	8110	736935	0	0
2024-05-26 13:13:32			0	34034	0	0	0	22184	20780	147930	27303	990029	40336	108156	0	0	8108	737281	0	0
2024-05-26 13:14:32			0	34030	0	0	0	22319	20790	148094	27329	990197	40327	108208	0	0	8106	737433	0	0
2024-05-26 13:15:32			0	34031	0	0	0	22153	20800	148102	27500	990302	40361	108144	0	0	8109	737344	0	0
2024-05-26 13:16:32			0	34020	0	0	0	22225	20810	148006	27511	990318	40350	108172	0	0	8107	737834	0	0
2024-05-26 13:17:32			0	34051	0	0	0	22202	20840	147838	27360	990432	40364	108163	0	0	8109	736216	0	0
2024-05-26 13:18:32			0	34030	0	0	0	22316	20840	147994	27161	990414	40353	108207	0	0	8106	737229	0	0
2024-05-26 13:19:32			0	34054	0	0	0	22070	20860	147706	27412	990519	40355	108112	0	0	8112	735989	0	0
2024-05-26 13:20:32			0	34094	0	0	0	21986	20850	147614	27268	990263	40332	108080	0	0	8116	734104	0	0
2024-05-26 13:21:32			0	34079	0	0	0	22215	20860	147882	27182	990306	40344	108168	0	0	8111	734785	0	0
2024-05-26 13:22:32			0	34090	0	0	0	21989	20840	147618	27426	990281	40332	108081	0	0	8115	734337	0	0
2024-05-26 13:23:32			0	34089	0	0	0	22249	20850	147758	27327	990263	40342	108181	0	0	8111	734345	0	0
2024-05-26 13:24:32			0	34065	0	0	0	22277	20840	147806	27312	990440	40342	108192	0	0	8109	735541	0	0
2024-05-26 13:25:32			0	34056	0	0	0	22301	20860	147874	27599	990545	40355	108201	0	0	8108	735893	0	0
2024-05-26 13:26:32			0	34059	0	0	0	22366	20870	147914	27358	990650	40367	108226	0	0	8107	735708	0	0
2024-05-26 13:27:32			0	34057	0	0	0	22111	20900	147686	27480	990639	40358	108128	0	0	8112	735682	0	0
2024-05-26 13:28:32			0	34113	0	0	0	21799	20890	147438	27121	990445	40335	108008	0	0	8120	733028	0	0
2024-05-26 13:29:32			0	34105	0	0	0	22218	20880	147678	27550	990366	40334	108169	0	0	8112	733453	0	0
2024-05-26 13:30:32			0	34101	0	0	0	22197	20880	147582	27479	990473	40345	108161	0	0	8112	733645	0	0
2024-05-26 13:31:32			0	34116	0	0	0	22129	20880	147582	27498	990499	40345	108135	0	0	8114	732924	0	0
2024-05-26 13:32:32			0	34138	0	0	0	22005	20880	147330	27379	990393	40334	108087	0	0	8118	731868	0	0
2024-05-26 13:33:32			0	34109	0	0	0	22077	20890	147478	27443	990383	40345	108115	0	0	8115	733220	0	0
2024-05-26 13:34:32			0	34139	0	0	0	21961	20870	147242	27620	990270	40344	108070	0	0	8119	731861	0	0
2024-05-26 13:35:32			0	34142	0	0	0	21903	20860	147334	27388	990155	40322	108048	0	0	8120	731757	0	0
2024-05-26 13:36:32			0	34124	0	0	0	22067	20850	147610	27434	990245	40321	108111	0	0	8116	732662	0	0
2024-05-26 13:37:32			0	34145	0	0	0	21864	20850	147462	27206	990130	40332	108033	0	0	8120	731654	0	0
2024-05-26 13:38:32			0	34136	0	0	0	21812	20840	147286	27530	990007	40320	108013	0	0	8121	732126	0	0
2024-05-26 13:39:32			0	34134	0	0	0	21909	20810	147530	27294	989973	40306	108050	0	0	8119	732344	0	0
2024-05-26 13:40:32			0	34136	0	0	0	21792	20800	147342	27509	989903	40317	108005	0	0	8121	732288	0	0
2024-05-26 13:41:32			0	34155	0	0	0	21750	20780	147302	27352	989683	40304	107989	0	0	8123	731458	0	0
2024-05-26 13:42:32			0	34139	0	0	0	21581	20750	147262	27232	989394	40280	107924	0	0	8124	732347	0	0
2024-05-26 13:43:32			0	34107	0	0	0	21903	20730	147594	27012	989485	40298	108048	0	0	8117	733966	0	0
2024-05-26 13:44:32			0	34146	0	0	0	21555	20720	147350	27140	989388	40309	107914	0	0	8125	732133	0	0
2024-05-26 13:45:32			0	34143	0	0	0	21789	20680	147530	27107	989055	40240	108004	0	0	8121	732439	0	0
2024-05-26 13:46:32			0	34138	0	0	0	21875	20650	147574	26993	989164	40281	108037	0	0	8119	732801	0	0
2024-05-26 13:47:32			0	34141	0	0	0	21664	20650	147398	27249	989146	40281	107956	0	0	8123	732657	0	0
2024-05-26 13:48:32			0	34150	0	0	0	21610	20630	147534	27300	989131	40267	107935	0	0	8124	732305	0	0
2024-05-26 13:49:32			0	34149	0	0	0	21561	20620	147438	27287	988849	40266	107916	0	0	8125	732394	0	0
2024-05-26 13:50:32			0	34159	0	0	0	21597	20590	147526	27602	988585	40220	107930	0	0	8125	732035	0	0
2024-05-26 13:51:32			0	34147	0	0	0	21771	20560	147550	27196	988748	40272	107997	0	0	8121	732733	0	0
2024-05-26 13:52:32			0	34161	0	0	0	21672	20560	147658	27530	988889	40285	107959	0	0	8123	732061	0	0
2024-05-26 13:53:32			0	34146	0	0	0	21763	20560	147678	27336	988907	40284	107994	0	0	8121	732781	0	0
2024-05-26 13:54:32			0	34144	0	0	0	21651	20560	147630	27218	988862	40273	107951	0	0	8123	732877	0	0
2024-05-26 13:55:32			0	34143	0	0	0	21664	20560	147630	27234	988827	40261	107956	0	0	8122	732925	0	0
2024-05-26 13:56:32			0	34161	0	0	0	21602	20550	147610	27227	988819	40272	107932	0	0	8124	732101	0	0
2024-05-26 13:57:32			0	34161	0	0	0	21701	20550	147694	27391	988731	40272	107970	0	0	8123	732101	0	0
2024-05-26 13:58:32			0	34117	0	0	0	21724	20530	147686	27182	988847	40271	107979	0	0	8120	734297	0	0
2024-05-26 13:59:32			0	34147	0	0	0	21576	20530	147586	27294	988873	40282	107922	0	0	8124	732855	0	0
2024-05-26 14:00:32			0	34157	0	0	0	21548	20530	147578	26937	988661	40271	107911	0	0	8125	732374	0	0
2024-05-26 14:01:32			0	34138	0	0	0	21561	20510	147718	27230	988468	40269	107916	0	0	8124	733368	0	0
2024-05-26 14:02:32			0	34135	0	0	0	21818	20490	147922	27211	988479	40234	108015	0	0	8119	733594	0	0
2024-05-26 14:03:32			0	34114	0	0	0	21781	20500	147870	27131	988850	40290	108001	0	0	8118	734564	0	0
2024-05-26 14:04:32			0	34134	0	0	0	21727	20510	147682	27428	988840	40280	107980	0	0	8121	733561	0	0
2024-05-26 14:05:32			0	34123	0	0	0	21885	20520	147850	27457	988963	40291	108041	0	0	8117	734049	0	0
2024-05-26 14:06:32			0	34125	0	0	0	21903	20540	147850	27206	989015	40272	108048	0	0	8117	733872	0	0
2024-05-26 14:07:32			0	34131	0	0	0	21823	20550	147854	27215	989005	40272	108017	0	0	8119	733543	0	0
2024-05-26 14:08:32			0	34143	0	0	0	21789	20550	147822	27293	989050	40293	108004	0	0	8120	732966	0	0
2024-05-26 14:09:32			0	34106	0	0	0	22083	20560	148102	27358	989173	40294	108117	0	0	8113	734705	0	0
2024-05-26 14:10:32			0	34131	0	0	0	21973	20590	147874	27031	989364	40297	108075	0	0	8117	733381	0	0
2024-05-26 14:11:32			0	34113	0	0	0	22122	20610	147954	27085	989531	40310	108132	0	0	8113	734165	0	0
2024-05-26 14:12:32			0	34117	0	0	0	22174	20630	147886	26885	989644	40312	108152	0	0	8113	733891	0	0
2024-05-26 14:13:32			0	34127	0	0	0	22220	20650	147846	27298	989704	40314	108170	0	0	8112	733329	0	0
2024-05-26 14:14:32			0	34139	0	0	0	21997	20680	147726	26899	989879	40317	108084	0	0	8117	732631	0	0
2024-05-26 14:15:32			0	34130	0	0	0	22041	20680	147658	27144	989648	40305	108101	0	0	8116	733063	0	0
2024-05-26 14:16:32			0	34095	0	0	0	22153	20700	147934	27249	989806	40318	108144	0	0	8112	734666	0	0
2024-05-26 14:17:32			0	34083	0	0	0	22142	20700	147874	27079	989841	40308	108140	0	0	8112	735244	0	0
2024-05-26 14:18:32			0	34105	0	0	0	22122	20710	147790	27150	989796	40308	108132	0	0	8113	734144	0	0
2024-05-26 14:19:32			0	34105	0	0	0	22083	20710	147802	26941	989743	40297	108117	0	0	8114	734144	0	0
2024-05-26 14:20:32			0	34085	0	0	0	22059	20710	147878	27005	989779	40319	108108	0	0	8113	735107	0	0
2024-05-26 14:21:32			0	34059	0	0	0	22150	20720	147958	27192	989814	40309	108143	0	0	8110	736319	0	0
2024-05-26 14:22:32			0	34084	0	0	0	22124	20730	147918	26878	989883	40310	108133	0	0	8112	735073	0	0
2024-05-26 14:23:32			0	34073	0	0	0	22015	20730	148022	27213	989910	40321	108091	0	0	8113	735603	0	0
2024-05-26 14:24:32			0	34065	0	0	0	21966	20740	147806	27213	989874	40311	108072	0	0	8114	735948	0	0
2024-05-26 14:25:32			0	34097	0	0	0	21971	20740	147874	26850	989874	40299	108074	0	0	8115	734407	0	0
2024-05-26 14:26:32			0	34082	0	0	0	21919	20740	147758	27012	989714	40299	108054	0	0	8115	735129	0	0
2024-05-26 14:27:32			0	34097	0	0	0	21828	20730	147730	26981	989618	40310	108019	0	0	8118	734448	0	0
2024-05-26 14:28:32			0	34092	0	0	0	21890	20720	147830	27306	989574	40309	108043	0	0	8116	734729	0	0
2024-05-26 14:29:32			0	34085	0	0	0	21815	20690	147854	27078	989452	40295	108014	0	0	8117	735188	0	0
2024-05-26 14:30:32			0	34084	0	0	0	21857	20680	147822	27163	989401	40284	108030	0	0	8116	735277	0	0
2024-05-26 14:31:32			0	34080	0	0	0	21774	20670	147874	27377	989392	40293	107998	0	0	8117	735510	0	0
2024-05-26 14:32:32			0	34052	0	0	0	21875	20670	147942	27019	989411	40283	108037	0	0	8114	736861	0	0
2024-05-26 14:33:32			0	34052	0	0	0	21797	20660	147898	27267	989367	40282	108007	0	0	8115	736902	0	0
2024-05-26 14:34:32			0	34069	0	0	0	21696	20650	147830	27175	989218	40291	107968	0	0	8118	736122	0	0
2024-05-26 14:35:32			0	34059	0	0	0	21641	20630	147906	27083	989086	40279	107947	0	0	8118	736686	0	0
2024-05-26 14:36:32			0	34060	0	0	0	21789	20620	147938	27171	988955	40255	108004	0	0	8116	736678	0	0
2024-05-26 14:37:32			0	34060	0	0	0	21841	20600	147966	27417	988921	40287	108024	0	0	8115	736760	0	0
2024-05-26 14:38:32			0	34040	0	0	0	21789	20590	148146	27202	989010	40296	108004	0	0	8115	737766	0	0
2024-05-26 14:39:32			0	34046	0	0	0	21862	20590	148274	27561	989178	40320	108032	0	0	8114	737477	0	0
2024-05-26 14:40:32			0	34017	0	0	0	21942	20600	148230	27059	989213	40297	108063	0	0	8111	738838	0	0
2024-05-26 14:41:32			0	34016	0	0	0	21846	20610	148178	27274	989336	40310	108026	0	0	8112	738845	0	0
2024-05-26 14:42:32			0	33985	0	0	0	21994	20610	148438	27334	989371	40310	108083	0	0	8108	740346	0	0
2024-05-26 14:43:32			0	33965	0	0	0	22049	20640	148322	27050	989555	40313	108104	0	0	8106	741192	0	0
2024-05-26 14:44:32			0	33957	0	0	0	22077	20640	148490	27469	989528	40313	108115	0	0	8105	741580	0	0
2024-05-26 14:45:32			0	33946	0	0	0	22093	20640	148438	27365	989555	40302	108121	0	0	8104	742114	0	0
2024-05-26 14:46:32			0	33950	0	0	0	22028	20670	148558	27514	989605	40304	108096	0	0	8106	741796	0	0
2024-05-26 14:47:32			0	33942	0	0	0	21888	20670	148562	27303	989570	40316	108042	0	0	8108	742184	0	0
2024-05-26 14:48:32			0	33932	0	0	0	21919	20670	148526	27131	989411	40304	108054	0	0	8107	742670	0	0
2024-05-26 14:49:32			0	33938	0	0	0	21750	20660	148558	27130	989429	40292	107989	0	0	8110	742420	0	0
2024-05-26 14:50:32			0	33920	0	0	0	21859	20640	148470	27175	989262	40302	108031	0	0	8107	743376	0	0
2024-05-26 14:51:32			0	33879	0	0	0	22207	20650	148994	27230	989563	40314	108165	0	0	8099	745330	0	0
2024-05-26 14:52:32			0	33958	0	0	0	21428	20660	148282	27033	989075	40282	107865	0	0	8116	741449	0	0
2024-05-26 14:53:32			0	33915	0	0	0	21846	20590	148650	27431	988700	40253	108026	0	0	8106	743825	0	0
2024-05-26 14:54:32			0	33893	0	0	0	21973	20580	148834	27119	988994	40274	108075	0	0	8103	744937	0	0
2024-05-26 14:55:32			0	33901	0	0	0	21776	20580	148646	27000	989047	40307	107999	0	0	8107	744547	0	0
2024-05-26 14:56:32			0	33890	0	0	0	21896	20580	148874	27064	989241	40308	108045	0	0	8104	745083	0	0
2024-05-26 14:57:32			0	33894	0	0	0	21999	20590	148854	27119	989311	40331	108085	0	0	8103	744847	0	0
2024-05-26 14:58:32			0	33901	0	0	0	21948	20610	148826	27168	989398	40322	108065	0	0	8104	744424	0	0
2024-05-26 14:59:32			0	33904	0	0	0	21883	20620	148734	27493	989327	40310	108040	0	0	8105	744237	0	0
2024-05-26 15:00:32			0	33896	0	0	0	21976	20620	148838	27606	989274	40289	108076	0	0	8103	744626	0	0
2024-05-26 15:01:32			0	33873	0	0	0	22072	20610	148890	27291	989283	40310	108113	0	0	8100	745787	0	0
2024-05-26 15:02:32			0	33891	0	0	0	22059	20620	148910	27289	989486	40299	108108	0	0	8102	744869	0	0
2024-05-26 15:03:32			0	33857	0	0	0	22075	20630	148922	27435	989529	40322	108114	0	0	8099	746484	0	0
2024-05-26 15:04:32			0	33886	0	0	0	22077	20640	148978	27131	989528	40324	108115	0	0	8101	745030	0	0
2024-05-26 15:05:32			0	33873	0	0	0	22127	20640	148926	27263	989520	40334	108134	0	0	8100	745663	0	0
2024-05-26 15:06:32			0	33894	0	0	0	22025	20650	148970	27300	989518	40314	108095	0	0	8102	744599	0	0
2024-05-26 15:07:32			0	33880	0	0	0	21883	20660	148730	26817	989527	40315	108040	0	0	8104	745240	0	0
2024-05-26 15:08:32			0	33904	0	0	0	21605	20670	148530	27105	989437	40304	107933	0	0	8110	744031	0	0
2024-05-26 15:09:32			0	33903	0	0	0	21683	20640	148526	27194	989148	40279	107963	0	0	8109	744203	0	0
2024-05-26 15:10:32			0	33915	0	0	0	21807	20620	148738	27566	989069	40290	108011	0	0	8107	743702	0	0
2024-05-26 15:11:32			0	33890	0	0	0	22080	20610	148906	27566	989204	40288	108116	0	0	8101	744959	0	0
2024-05-26 15:12:32			0	33899	0	0	0	21973	20620	148834	27194	989433	40310	108075	0	0	8104	744480	0	0
2024-05-26 15:13:32			0	33902	0	0	0	21774	20630	148738	27431	989405	40323	107998	0	0	8107	744293	0	0
2024-05-26 15:14:32			0	33905	0	0	0	21877	20630	148722	27173	989211	40290	108038	0	0	8106	744147	0	0
2024-05-26 15:15:32			0	33904	0	0	0	22015	20630	148798	27632	989343	40300	108091	0	0	8103	744195	0	0
2024-05-26 15:16:32			0	33887	0	0	0	22127	20620	148910	27350	989459	40322	108134	0	0	8100	745064	0	0
2024-05-26 15:17:32			0	33915	0	0	0	21981	20630	148830	27287	989503	40311	108078	0	0	8104	743660	0	0
2024-05-26 15:18:32			0	33936	0	0	0	21825	20630	148486	27114	989352	40301	108018	0	0	8108	742640	0	0
2024-05-26 15:19:32			0	33969	0	0	0	21685	20640	148402	27388	989174	40291	107964	0	0	8113	740998	0	0
2024-05-26 15:20:32			0	33949	0	0	0	21766	20620	148462	27203	989141	40278	107995	0	0	8110	742050	0	0
2024-05-26 15:21:32			0	33935	0	0	0	21812	20610	148578	27684	989106	40278	108013	0	0	8108	742771	0	0
2024-05-26 15:22:32			0	33946	0	0	0	21784	20600	148530	27658	989213	40297	108002	0	0	8109	742278	0	0
2024-05-26 15:23:32			0	33933	0	0	0	21903	20590	148686	27320	989125	40287	108048	0	0	8107	742950	0	0
2024-05-26 15:24:32			0	33945	0	0	0	21844	20600	148698	27492	989213	40309	108025	0	0	8108	742326	0	0
2024-05-26 15:25:32			0	33929	0	0	0	21745	20600	148546	27402	989081	40287	107987	0	0	8109	743103	0	0
2024-05-26 15:26:32			0	33944	0	0	0	21870	20600	148750	27415	989134	40287	108035	0	0	8108	742375	0	0
2024-05-26 15:27:32			0	33936	0	0	0	21986	20590	148786	27353	989205	40297	108080	0	0	8105	742805	0	0
2024-05-26 15:28:32			0	33948	0	0	0	21903	20600	148698	27495	989355	40310	108048	0	0	8107	742181	0	0
2024-05-26 15:29:32			0	33950	0	0	0	21857	20620	148546	27443	989300	40322	108030	0	0	8108	742002	0	0
2024-05-26 15:30:32			0	33948	0	0	0	22051	20620	148622	27429	989380	40310	108105	0	0	8105	742099	0	0
2024-05-26 15:31:32			0	33947	0	0	0	22025	20630	148670	27133	989538	40334	108095	0	0	8105	742106	0	0
2024-05-26 15:32:32			0	33969	0	0	0	21880	20640	148438	27504	989466	40301	108039	0	0	8109	740998	0	0
2024-05-26 15:33:32			0	33981	0	0	0	21831	20630	148374	27270	989299	40291	108020	0	0	8111	740457	0	0
2024-05-26 15:34:32			0	33986	0	0	0	21818	20620	148474	27230	989176	40279	108015	0	0	8111	740256	0	0
2024-05-26 15:35:32			0	33969	0	0	0	21805	20600	148422	27478	989089	40266	108010	0	0	8110	741162	0	0
2024-05-26 15:36:32			0	33980	0	0	0	21846	20590	148414	27568	988993	40287	108026	0	0	8110	740670	0	0
2024-05-26 15:37:32			0	33976	0	0	0	21742	20580	148334	27284	988994	40285	107986	0	0	8112	740904	0	0
2024-05-26 15:38:32			0	33993	0	0	0	21737	20570	148342	27428	988844	40273	107984	0	0	8113	740122	0	0
2024-05-26 15:39:32			0	33973	0	0	0	21719	20540	148406	27163	988882	40283	107977	0	0	8112	741214	0	0
2024-05-26 15:40:32			0	34000	0	0	0	21657	20540	148398	27351	988749	40260	107953	0	0	8114	739906	0	0
2024-05-26 15:41:32			0	33999	0	0	0	21693	20520	148514	27498	988636	40247	107967	0	0	8114	740036	0	0
2024-05-26 15:42:32			0	34002	0	0	0	21745	20500	148522	27668	988629	40256	107987	0	0	8113	739972	0	0
2024-05-26 15:43:32			0	34005	0	0	0	21696	20490	148318	27315	988639	40266	107968	0	0	8114	739868	0	0
2024-05-26 15:44:32			0	34035	0	0	0	21724	20480	148414	27376	988551	40265	107979	0	0	8115	738457	0	0
2024-05-26 15:45:32			0	34032	0	0	0	21771	20470	148282	27277	988579	40297	107997	0	0	8114	738643	0	0
2024-05-26 15:46:32			0	34040	0	0	0	21786	20480	148314	27180	988710	40288	108003	0	0	8114	738215	0	0
2024-05-26 15:47:32			0	34037	0	0	0	21737	20480	148234	27305	988710	40277	107984	0	0	8115	738361	0	0
2024-05-26 15:48:32			0	34055	0	0	0	21740	20480	148190	27346	988675	40277	107985	0	0	8116	737491	0	0
2024-05-26 15:49:32			0	34072	0	0	0	21745	20470	148194	27526	988605	40287	107987	0	0	8117	736711	0	0
2024-05-26 15:50:32			0	34053	0	0	0	21774	20460	148222	27192	988703	40286	107998	0	0	8115	737669	0	0
2024-05-26 15:51:32			0	34080	0	0	0	21724	20480	148262	27345	988657	40288	107979	0	0	8117	736284	0	0
2024-05-26 15:52:32			0	34075	0	0	0	21729	20480	148194	27133	988595	40265	107981	0	0	8117	736525	0	0
2024-05-26 15:53:32			0	34066	0	0	0	21698	20470	148158	27575	988605	40264	107969	0	0	8117	737000	0	0
2024-05-26 15:54:32			0	34083	0	0	0	21683	20460	148114	27334	988491	40275	107963	0	0	8118	736221	0	0
2024-05-26 15:55:32			0	34067	0	0	0	21696	20450	148282	27391	988412	40274	107968	0	0	8117	737033	0	0
2024-05-26 15:56:32			0	34070	0	0	0	21781	20440	148326	27204	988510	40273	108001	0	0	8116	736929	0	0
2024-05-26 15:57:32			0	34069	0	0	0	21914	20440	148462	27334	988669	40295	108052	0	0	8113	736978	0	0
2024-05-26 15:58:32			0	34057	0	0	0	21940	20460	148426	27341	988827	40307	108062	0	0	8112	737476	0	0
2024-05-26 15:59:32			0	34083	0	0	0	21961	20490	148322	27469	988984	40310	108070	0	0	8114	736098	0	0
2024-05-26 16:00:32			0	34068	0	0	0	21979	20510	148274	27367	989079	40313	108077	0	0	8113	736741	0	0
2024-05-26 16:01:32			0	34085	0	0	0	21872	20520	148238	27750	989122	40314	108036	0	0	8115	735880	0	0
2024-05-26 16:02:32			0	34096	0	0	0	21937	20540	148214	27424	989147	40304	108061	0	0	8115	735268	0	0
2024-05-26 16:03:32			0	34109	0	0	0	21893	20560	148102	27789	989146	40305	108044	0	0	8117	734561	0	0
2024-05-26 16:04:32			0	34096	0	0	0	21929	20570	148150	27580	989189	40317	108058	0	0	8115	735146	0	0
2024-05-26 16:05:32			0	34099	0	0	0	21792	20560	148098	27519	989154	40306	108005	0	0	8118	735042	0	0
2024-05-26 16:06:32			0	34066	0	0	0	21802	20550	148050	27566	988978	40283	108009	0	0	8116	736674	0	0
2024-05-26 16:07:32			0	34112	0	0	0	21831	20550	148030	27331	988925	40293	108020	0	0	8118	734457	0	0
2024-05-26 16:08:32			0	34107	0	0	0	21745	20540	147978	27235	988935	40272	107987	0	0	8119	734739	0	0
2024-05-26 16:09:32			0	34134	0	0	0	21815	20530	147918	27204	988953	40292	108014	0	0	8119	733480	0	0
2024-05-26 16:10:32			0	34154	0	0	0	21888	20530	147906	27358	988980	40303	108042	0	0	8119	732518	0	0
2024-05-26 16:11:32			0	34178	0	0	0	21797	20540	147702	27353	989015	40293	108007	0	0	8122	731325	0	0
2024-05-26 16:12:32			0	34181	0	0	0	21836	20530	147718	27455	989033	40303	108022	0	0	8121	731222	0	0
2024-05-26 16:13:32			0	34215	0	0	0	21799	20550	147626	27220	989023	40283	108008	0	0	8124	729511	0	0
2024-05-26 16:14:32			0	34219	0	0	0	21794	20550	147586	27367	989023	40293	108006	0	0	8124	729320	0	0
2024-05-26 16:15:32			0	34214	0	0	0	21828	20540	147538	27436	988988	40293	108019	0	0	8124	729600	0	0
2024-05-26 16:16:32			0	34200	0	0	0	21942	20550	147754	26972	989023	40293	108063	0	0	8121	730230	0	0
2024-05-26 16:17:32			0	34211	0	0	0	21916	20550	147622	27189	989103	40304	108053	0	0	8122	729703	0	0
2024-05-26 16:18:32			0	34210	0	0	0	21909	20570	147630	27208	989171	40295	108050	0	0	8122	729670	0	0
2024-05-26 16:19:32			0	34216	0	0	0	21976	20570	147830	27369	989145	40295	108076	0	0	8121	729383	0	0
2024-05-26 16:20:32			0	34214	0	0	0	22090	20580	147578	27319	989400	40308	108120	0	0	8119	729438	0	0
2024-05-26 16:21:32			0	34225	0	0	0	22057	20610	147570	27464	989496	40321	108107	0	0	8121	728791	0	0
2024-05-26 16:22:32			0	34240	0	0	0	21914	20630	147486	27211	989529	40322	108052	0	0	8124	727993	0	0
2024-05-26 16:23:32			0	34224	0	0	0	21880	20640	147502	27166	989520	40301	108039	0	0	8124	728718	0	0
2024-05-26 16:24:32			0	34227	0	0	0	21958	20640	147570	27431	989422	40313	108069	0	0	8123	728574	0	0
2024-05-26 16:25:32			0	34208	0	0	0	21961	20660	147578	27272	989588	40304	108070	0	0	8121	729403	0	0
2024-05-26 16:26:32			0	34222	0	0	0	21968	20660	147526	27462	989580	40304	108073	0	0	8122	728733	0	0
2024-05-26 16:27:32			0	34223	0	0	0	22033	20670	147382	27248	989605	40304	108098	0	0	8121	728645	0	0
2024-05-26 16:28:32			0	34232	0	0	0	22103	20680	147442	27239	989799	40328	108125	0	0	8121	728174	0	0
2024-05-26 16:29:32			0	34262	0	0	0	22059	20690	147354	27225	989843	40317	108108	0	0	8123	726700	0	0
2024-05-26 16:30:32			0	34286	0	0	0	22127	20690	147306	27029	989763	40306	108134	0	0	8123	725555	0	0
2024-05-26 16:31:32			0	34308	0	0	0	22122	20710	147258	27069	989903	40330	108132	0	0	8125	724427	0	0
2024-05-26 16:32:32			0	34322	0	0	0	22093	20730	147026	27007	989963	40321	108121	0	0	8126	723680	0	0
2024-05-26 16:33:32			0	34320	0	0	0	22215	20730	147030	27317	989963	40332	108168	0	0	8124	723775	0	0
2024-05-26 16:34:32			0	34336	0	0	0	22212	20740	146926	26870	990041	40333	108167	0	0	8125	722974	0	0
2024-05-26 16:35:32			0	34378	0	0	0	22225	20760	146903	27512	990208	40346	108172	0	0	8127	720900	0	0
2024-05-26 16:36:32			0	34367	0	0	0	22251	20780	146947	27554	990286	40347	108182	0	0	8126	721342	0	0
2024-05-26 16:37:32			0	34382	0	0	0	22142	20810	146707	27514	990425	40362	108140	0	0	8129	720511	0	0
2024-05-26 16:38:32			0	34388	0	0	0	22116	20810	146799	27543	990371	40339	108130	0	0	8130	720226	0	0
2024-05-26 16:39:32			0	34384	0	0	0	22020	20820	146687	27301	990202	40319	108093	0	0	8131	720376	0	0
2024-05-26 16:40:32			0	34368	0	0	0	22241	20810	146903	27350	990071	40306	108178	0	0	8126	721175	0	0
2024-05-26 16:41:32			0	34362	0	0	0	22280	20810	146915	27055	990310	40339	108193	0	0	8125	721459	0	0
2024-05-26 16:42:32			0	34374	0	0	0	22116	20820	146795	27469	990327	40339	108130	0	0	8129	720850	0	0
2024-05-26 16:43:32			0	34387	0	0	0	22038	20840	146595	27576	990326	40342	108100	0	0	8131	720154	0	0
2024-05-26 16:44:32			0	34388	0	0	0	21955	20840	146567	27312	990326	40332	108068	0	0	8133	720106	0	0
2024-05-26 16:45:32			0	34367	0	0	0	22225	20830	146819	27355	990237	40319	108172	0	0	8127	721142	0	0
2024-05-26 16:46:32			0	34370	0	0	0	22231	20840	146763	27317	990361	40342	108174	0	0	8127	720960	0	0
2024-05-26 16:47:32			0	34370	0	0	0	22174	20850	146791	27071	990422	40353	108152	0	0	8128	720920	0	0
2024-05-26 16:48:32			0	34360	0	0	0	22345	20850	146839	27166	990510	40354	108218	0	0	8124	721394	0	0
2024-05-26 16:49:32			0	34367	0	0	0	22322	20880	146791	27027	990685	40357	108209	0	0	8125	720942	0	0
2024-05-26 16:50:32			0	34382	0	0	0	22311	20900	146795	27246	990701	40359	108205	0	0	8126	720151	0	0
2024-05-26 16:51:32			0	34384	0	0	0	22309	20910	146787	27166	990797	40359	108204	0	0	8127	720017	0	0
2024-05-26 16:52:32			0	34390	0	0	0	22293	20930	146611	27183	990822	40361	108198	0	0	8127	719653	0	0
2024-05-26 16:53:32			0	34416	0	0	0	22280	20930	146543	27329	990769	40350	108193	0	0	8129	718422	0	0
2024-05-26 16:54:32			0	34412	0	0	0	22309	20930	146503	27234	990689	40338	108204	0	0	8128	718611	0	0
2024-05-26 16:55:32			0	34435	0	0	0	22254	20930	146447	27251	990751	40361	108183	0	0	8131	717524	0	0
2024-05-26 16:56:32			0	34437	0	0	0	22109	20940	146267	27329	990786	40362	108127	0	0	8133	717390	0	0
2024-05-26 16:57:32			0	34414	0	0	0	22316	20930	146659	27341	990724	40350	108207	0	0	8128	718517	0	0
2024-05-26 16:58:32			0	34414	0	0	0	22254	20940	146635	27518	990821	40351	108183	0	0	8129	718477	0	0
2024-05-26 16:59:32			0	34427	0	0	0	22158	20950	146607	27272	990829	40351	108146	0	0	8132	717823	0	0
2024-05-26 17:00:32			0	34440	0	0	0	22135	20940	146355	27734	990653	40339	108137	0	0	8133	717248	0	0
2024-05-26 17:01:32			0	34414	0	0	0	22264	20930	146559	27177	990663	40328	108187	0	0	8129	718517	0	0
2024-05-26 17:02:32			0	34428	0	0	0	22319	20940	146587	27258	990901	40351	108208	0	0	8129	717815	0	0
2024-05-26 17:03:32			0	34439	0	0	0	22319	20940	146527	27339	990927	40351	108208	0	0	8130	717295	0	0
2024-05-26 17:04:32			0	34437	0	0	0	22251	20960	146467	27211	990908	40365	108182	0	0	8131	717310	0	0
2024-05-26 17:05:32			0	34436	0	0	0	22327	20970	146427	27355	990890	40365	108211	0	0	8130	717318	0	0
2024-05-26 17:06:32			0	34443	0	0	0	22246	20960	146339	27358	990908	40353	108180	0	0	8131	717027	0	0
2024-05-26 17:07:32			0	34450	0	0	0	22220	20970	146379	27339	990863	40365	108170	0	0	8132	716656	0	0
2024-05-26 17:08:32			0	34426	0	0	0	22285	20970	146475	27022	990890	40343	108195	0	0	8130	717790	0	0
2024-05-26 17:09:32			0	34422	0	0	0	22259	20960	146451	27251	990873	40352	108185	0	0	8130	718019	0	0
2024-05-26 17:10:32			0	34433	0	0	0	22379	20970	146651	27296	990925	40354	108231	0	0	8129	717459	0	0
2024-05-26 17:11:32			0	34399	0	0	0	22366	20970	146611	27440	991004	40365	108226	0	0	8127	719067	0	0
2024-05-26 17:12:32			0	34412	0	0	0	22249	20990	146599	27296	991030	40367	108181	0	0	8130	718373	0	0
2024-05-26 17:13:32			0	34373	0	0	0	22433	20990	146743	27530	990976	40367	108252	0	0	8124	720219	0	0
2024-05-26 17:14:32			0	34360	0	0	0	22394	21000	146791	27201	991179	40356	108237	0	0	8124	720795	0	0
2024-05-26 17:15:32			0	34347	0	0	0	22376	21020	146810	27261	991240	40379	108230	0	0	8124	721332	0	0
2024-05-26 17:16:32			0	34364	0	0	0	22446	21020	146719	27441	991301	40370	108257	0	0	8124	720525	0	0
2024-05-26 17:17:32			0	34368	0	0	0	22451	21030	146759	27398	991283	40371	108259	0	0	8124	720296	0	0
2024-05-26 17:18:32			0	34370	0	0	0	22407	21040	146611	27492	991406	40360	108242	0	0	8125	720161	0	0
2024-05-26 17:19:32			0	34359	0	0	0	22407	21050	146611	27161	991370	40372	108242	0	0	8124	720643	0	0
2024-05-26 17:20:32			0	34364	0	0	0	22438	21060	146647	27402	991519	40384	108254	0	0	8124	720366	0	0
2024-05-26 17:21:32			0	34381	0	0	0	22345	21060	146675	27255	991395	40384	108218	0	0	8127	719560	0	0
2024-05-26 17:22:32			0	34368	0	0	0	22389	21060	146627	27393	991360	40373	108235	0	0	8125	720176	0	0
2024-05-26 17:23:32			0	34374	0	0	0	22488	21060	146679	27079	991421	40373	108273	0	0	8124	719892	0	0
2024-05-26 17:24:32			0	34393	0	0	0	22194	21070	146515	27275	991412	40364	108160	0	0	8130	718952	0	0
2024-05-26 17:25:32			0	34374	0	0	0	22158	21070	146403	27138	991297	40363	108146	0	0	8129	719852	0	0
2024-05-26 17:26:32			0	34386	0	0	0	22186	21060	146463	27069	991235	40373	108157	0	0	8130	719324	0	0
2024-05-26 17:27:32			0	34399	0	0	0	22075	21050	146439	27417	991139	40340	108114	0	0	8132	718748	0	0
2024-05-26 17:28:32			0	34397	0	0	0	22057	21040	146347	27279	991042	40328	108107	0	0	8132	718883	0	0
2024-05-26 17:29:32			0	34408	0	0	0	22025	21020	146363	27400	990902	40336	108095	0	0	8133	718442	0	0
2024-05-26 17:30:32			0	34426	0	0	0	22142	21010	146275	27467	990859	40335	108140	0	0	8132	717631	0	0
2024-05-26 17:31:32			0	34438	0	0	0	22015	21000	146291	27447	990781	40333	108091	0	0	8135	717104	0	0
2024-05-26 17:32:32			0	34408	0	0	0	22103	20980	146271	27426	990676	40322	108125	0	0	8132	718601	0	0
2024-05-26 17:33:32			0	34416	0	0	0	22272	20970	146427	27388	990845	40343	108190	0	0	8129	718263	0	0
2024-05-26 17:34:32			0	34397	0	0	0	22335	20990	146511	27355	990897	40345	108214	0	0	8127	719082	0	0
2024-05-26 17:35:32			0	34421	0	0	0	22233	20990	146395	27140	990932	40356	108175	0	0	8130	717947	0	0
2024-05-26 17:36:32			0	34407	0	0	0	22446	20990	146627	27339	991065	40345	108257	0	0	8126	718609	0	0
2024-05-26 17:37:32			0	34383	0	0	0	22480	21000	146655	27279	991188	40368	108270	0	0	8124	719705	0	0
2024-05-26 17:38:32			0	34378	0	0	0	22574	21020	146775	27807	991407	40370	108306	0	0	8122	719862	0	0
2024-05-26 17:39:32			0	34339	0	0	0	22683	21050	146942	27421	991609	40383	108348	0	0	8118	721591	0	0
2024-05-26 17:40:32			0	34321	0	0	0	22722	21060	147014	27313	991732	40406	108363	0	0	8117	722406	0	0
2024-05-26 17:41:32			0	34253	0	0	0	22732	21110	147406	27748	991896	40399	108367	0	0	8113	725440	0	0
2024-05-26 17:42:32			0	34211	0	0	0	22729	21140	147490	27159	992018	40402	108366	0	0	8111	727322	0	0
2024-05-26 17:43:32			0	34171	0	0	0	22750	21170	147574	27495	992122	40426	108374	0	0	8108	729112	0	0
2024-05-26 17:44:32			0	34146	0	0	0	22742	21180	147710	27507	992200	40384	108371	0	0	8107	730268	0	0
2024-05-26 17:45:32			0	34112	0	0	0	22748	21200	147702	27227	992234	40418	108373	0	0	8105	731817	0	0
2024-05-26 17:46:32			0	34105	0	0	0	22748	21230	147706	27235	992356	40421	108373	0	0	8105	732031	0	0
2024-05-26 17:47:32			0	34098	0	0	0	22774	21240	147786	27286	992399	40433	108383	0	0	8104	732326	0	0
2024-05-26 17:48:32			0	34070	0	0	0	22753	21250	147786	27492	992416	40445	108375	0	0	8103	733630	0	0
2024-05-26 17:49:32			0	34093	0	0	0	22779	21270	147678	27365	992503	40436	108385	0	0	8104	732444	0	0
2024-05-26 17:50:32			0	34093	0	0	0	22768	21280	147746	27538	992520	40437	108381	0	0	8104	732403	0	0
2024-05-26 17:51:32			0	34094	0	0	0	22807	21290	147722	27543	992572	40437	108396	0	0	8104	732315	0	0
2024-05-26 17:52:32			0	34085	0	0	0	22823	21290	147806	27447	992670	40426	108402	0	0	8103	732747	0	0
2024-05-26 17:53:32			0	34050	0	0	0	22823	21320	147902	27237	992720	40429	108402	0	0	8101	734306	0	0
2024-05-26 17:54:32			0	34063	0	0	0	22810	21330	147862	27201	992790	40430	108397	0	0	8102	733641	0	0
2024-05-26 17:55:32			0	34056	0	0	0	22797	21340	147778	27208	992762	40443	108392	0	0	8102	733936	0	0
2024-05-26 17:56:32			0	34068	0	0	0	22807	21350	147726	27429	992744	40432	108396	0	0	8102	733319	0	0
2024-05-26 17:57:32			0	34086	0	0	0	22815	21360	147678	27338	992867	40432	108399	0	0	8103	732414	0	0
2024-05-26 17:58:32			0	34133	0	0	0	22854	21370	147534	27441	992804	40434	108414	0	0	8105	730120	0	0
2024-05-26 17:59:32			0	34059	0	0	0	22779	21380	147858	27371	992901	40445	108385	0	0	8103	733629	0	0
2024-05-26 18:00:32			0	34091	0	0	0	22563	21390	147630	27457	992811	40414	108302	0	0	8108	732052	0	0
2024-05-26 18:01:32			0	34108	0	0	0	22553	21370	147486	27159	992786	40413	108298	0	0	8109	731318	0	0
2024-05-26 18:02:32			0	34147	0	0	0	22444	21370	147334	27492	992538	40401	108256	0	0	8113	729451	0	0
2024-05-26 18:03:32			0	34112	0	0	0	22428	21360	147446	27414	992655	40411	108250	0	0	8111	731167	0	0
2024-05-26 18:04:32			0	34139	0	0	0	22470	21350	147214	27620	992398	40400	108266	0	0	8112	729914	0	0
2024-05-26 18:05:32			0	34162	0	0	0	22103	21330	147042	27396	992320	40409	108125	0	0	8120	728895	0	0
2024-05-26 18:06:32			0	34163	0	0	0	22470	21310	147314	27222	992225	40395	108266	0	0	8113	728928	0	0
2024-05-26 18:07:32			0	34175	0	0	0	22277	21290	147226	27680	992013	40372	108192	0	0	8117	728436	0	0
2024-05-26 18:08:32			0	34234	0	0	0	22270	21260	147038	27381	991910	40369	108189	0	0	8121	725741	0	0
2024-05-26 18:09:32			0	34247	0	0	0	22303	21240	146978	27081	991902	40378	108202	0	0	8121	725202	0	0
2024-05-26 18:10:32			0	34220	0	0	0	22631	21230	147194	27531	991904	40367	108328	0	0	8114	726529	0	0
2024-05-26 18:11:32			0	34137	0	0	0	22748	21230	147610	27088	992098	40399	108373	0	0	8107	730497	0	0
2024-05-26 18:12:32			0	34097	0	0	0	22735	21250	147774	27157	992398	40412	108368	0	0	8105	732333	0	0
2024-05-26 18:13:32			0	34069	0	0	0	22670	21270	147898	27345	992423	40424	108343	0	0	8104	733597	0	0
2024-05-26 18:14:32			0	34073	0	0	0	22670	21290	147882	27403	992483	40416	108343	0	0	8105	733323	0	0
2024-05-26 18:15:32			0	34068	0	0	0	22696	21290	147858	27119	992430	40416	108353	0	0	8104	733563	0	0
2024-05-26 18:16:32			0	34060	0	0	0	22698	21300	147902	27272	992482	40417	108354	0	0	8104	733907	0	0
2024-05-26 18:17:32			0	34081	0	0	0	22690	21290	147866	27150	992465	40405	108351	0	0	8105	732939	0	0
2024-05-26 18:18:32			0	34082	0	0	0	22662	21290	147722	27386	992465	40416	108340	0	0	8105	732891	0	0
2024-05-26 18:19:32			0	34083	0	0	0	22698	21310	147750	27400	992437	40417	108354	0	0	8105	732761	0	0
2024-05-26 18:20:32			0	34065	0	0	0	22753	21310	147742	27128	992517	40417	108375	0	0	8103	733626	0	0
2024-05-26 18:21:32			0	34076	0	0	0	22711	21310	147746	27147	992552	40406	108359	0	0	8104	733097	0	0
2024-05-26 18:22:32			0	34083	0	0	0	22742	21310	147762	27071	992552	40417	108371	0	0	8104	732761	0	0
2024-05-26 18:23:32			0	34074	0	0	0	22709	21310	147846	27305	992579	40406	108358	0	0	8104	733193	0	0
2024-05-26 18:24:32			0	34083	0	0	0	22722	21320	147858	27343	992560	40407	108363	0	0	8105	732721	0	0
2024-05-26 18:25:32			0	34049	0	0	0	22768	21320	147978	27576	992587	40418	108381	0	0	8102	734354	0	0
2024-05-26 18:26:32			0	34014	0	0	0	22729	21330	148090	27227	992604	40430	108366	0	0	8101	735998	0	0
2024-05-26 18:27:32			0	34000	0	0	0	22758	21330	148198	27441	992613	40419	108377	0	0	8099	736673	0	0
2024-05-26 18:28:32			0	33959	0	0	0	22732	21320	148222	27504	992614	40440	108367	0	0	8097	738693	0	0
2024-05-26 18:29:32			0	33957	0	0	0	22719	21330	148314	27445	992692	40431	108362	0	0	8098	738748	0	0
2024-05-26 18:30:32			0	33963	0	0	0	22750	21330	148354	27505	992639	40409	108374	0	0	8097	738459	0	0
2024-05-26 18:31:32			0	33941	0	0	0	22748	21340	148390	27300	992674	40431	108373	0	0	8096	739481	0	0
2024-05-26 18:32:32			0	33901	0	0	0	22750	21340	148410	27062	992709	40420	108374	0	0	8094	741417	0	0
2024-05-26 18:33:32			0	33900	0	0	0	22722	21350	148550	27376	992744	40432	108363	0	0	8094	741424	0	0
2024-05-26 18:34:32			0	33907	0	0	0	22740	21340	148526	27053	992621	40442	108370	0	0	8094	741127	0	0
2024-05-26 18:35:32			0	33891	0	0	0	22732	21350	148686	27076	992638	40421	108367	0	0	8094	741861	0	0
2024-05-26 18:36:32			0	33874	0	0	0	22732	21340	148622	27587	992629	40420	108367	0	0	8093	742727	0	0
2024-05-26 18:37:32			0	33866	0	0	0	22740	21340	148838	27504	992648	40419	108370	0	0	8092	743115	0	0
2024-05-26 18:38:32			0	33858	0	0	0	22722	21350	148706	27289	992664	40432	108363	0	0	8092	743462	0	0
2024-05-26 18:39:32			0	33854	0	0	0	22727	21340	148750	27213	992683	40420	108365	0	0	8092	743698	0	0
2024-05-26 18:40:32			0	33847	0	0	0	22719	21340	148718	27530	992701	40419	108362	0	0	8091	744038	0	0
2024-05-26 18:41:32			0	33852	0	0	0	22727	21350	148762	27036	992585	40432	108365	0	0	8092	743753	0	0
2024-05-26 18:42:32			0	33852	0	0	0	22729	21330	148766	27310	992559	40409	108366	0	0	8091	743836	0	0
2024-05-26 18:43:32			0	33849	0	0	0	22732	21350	148654	27327	992638	40432	108367	0	0	8091	743899	0	0
2024-05-26 18:44:32			0	33847	0	0	0	22755	21330	148822	27249	992613	40419	108376	0	0	8091	744079	0	0
2024-05-26 18:45:32			0	33876	0	0	0	22753	21340	148846	27514	992709	40410	108375	0	0	8092	742630	0	0
2024-05-26 18:46:32			0	33858	0	0	0	22766	21340	148910	27400	992674	40419	108380	0	0	8091	743503	0	0
2024-05-26 18:47:32			0	33844	0	0	0	22786	21350	148814	27460	992699	40432	108388	0	0	8090	744142	0	0
2024-05-26 18:48:32			0	33847	0	0	0	22755	21350	148866	27024	992806	40444	108376	0	0	8091	743996	0	0
2024-05-26 18:49:32			0	33849	0	0	0	22776	21370	148842	27255	992804	40413	108384	0	0	8091	743817	0	0
2024-05-26 18:50:32			0	33863	0	0	0	22815	21360	148734	27072	992823	40445	108399	0	0	8091	743178	0	0
2024-05-26 18:51:32			0	33854	0	0	0	22786	21370	148702	27410	992831	40434	108388	0	0	8091	743574	0	0
2024-05-26 18:52:32			0	33847	0	0	0	22867	21380	148890	27324	992874	40445	108419	0	0	8089	743872	0	0
2024-05-26 18:53:32			0	33837	0	0	0	22870	21380	148874	27235	992954	40445	108420	0	0	8088	744358	0	0
2024-05-26 18:54:32			0	33859	0	0	0	22846	21380	148878	27154	992936	40458	108411	0	0	8090	743290	0	0
2024-05-26 18:55:32			0	33881	0	0	0	22854	21400	148626	27263	993041	40458	108414	0	0	8091	742139	0	0
2024-05-26 18:56:32			0	33865	0	0	0	22862	21400	148698	27390	993068	40436	108417	0	0	8090	742916	0	0
2024-05-26 18:57:32			0	33877	0	0	0	22872	21410	148706	27130	993085	40449	108421	0	0	8091	742292	0	0
2024-05-26 18:58:32			0	33870	0	0	0	22862	21420	148686	27242	993128	40450	108417	0	0	8091	742591	0	0
2024-05-26 18:59:32			0	33869	0	0	0	22857	21430	148698	27557	993092	40461	108415	0	0	8091	742598	0	0
2024-05-26 19:00:32			0	33860	0	0	0	22870	21430	148654	27244	993083	40450	108420	0	0	8090	743035	0	0
2024-05-26 19:01:32			0	33853	0	0	0	22841	21440	148698	27331	993100	40462	108409	0	0	8090	743333	0	0
2024-05-26 19:02:32			0	33840	0	0	0	22815	21440	148690	27303	993100	40440	108399	0	0	8090	743964	0	0
2024-05-26 19:03:32			0	33849	0	0	0	22854	21440	148726	27757	993100	40452	108414	0	0	8090	743527	0	0
2024-05-26 19:04:32			0	33850	0	0	0	22836	21440	148814	27294	993100	40462	108407	0	0	8090	743479	0	0
2024-05-26 19:05:32			0	33846	0	0	0	22849	21440	148818	27289	993073	40452	108412	0	0	8090	743673	0	0
2024-05-26 19:06:32			0	33862	0	0	0	22841	21440	148798	27415	993082	40452	108409	0	0	8091	742896	0	0
2024-05-26 19:07:32			0	33846	0	0	0	22833	21450	148830	27261	993143	40440	108406	0	0	8090	743632	0	0
2024-05-26 19:08:32			0	33827	0	0	0	22838	21440	148774	27516	993108	40462	108408	0	0	8089	744596	0	0
2024-05-26 19:09:32			0	33821	0	0	0	22849	21430	148830	27471	993065	40451	108412	0	0	8088	744929	0	0
2024-05-26 19:10:32			0	33809	0	0	0	22849	21430	148930	27587	993038	40439	108412	0	0	8087	745513	0	0
2024-05-26 19:11:32			0	33807	0	0	0	22838	21440	148882	27379	993100	40452	108408	0	0	8088	745569	0	0
2024-05-26 19:12:32			0	33814	0	0	0	22799	21430	148862	27389	993003	40460	108393	0	0	8089	745270	0	0
2024-05-26 19:13:32			0	33839	0	0	0	22802	21440	148854	27313	993047	40452	108394	0	0	8090	744013	0	0
2024-05-26 19:14:32			0	33841	0	0	0	22755	21420	148814	27557	992968	40450	108376	0	0	8091	743999	0	0
2024-05-26 19:15:32			0	33867	0	0	0	22657	21430	148674	27095	992950	40439	108338	0	0	8094	742695	0	0
2024-05-26 19:16:32			0	33905	0	0	0	22433	21410	148386	27190	992765	40416	108252	0	0	8100	740935	0	0
2024-05-26 19:17:32			0	33952	0	0	0	22348	21380	148182	26960	992404	40402	108219	0	0	8104	738785	0	0
2024-05-26 19:18:32			0	34003	0	0	0	22412	21340	147986	27663	992169	40387	108244	0	0	8105	736488	0	0
2024-05-26 19:19:32			0	33992	0	0	0	22540	21310	148134	27315	992198	40417	108293	0	0	8103	737141	0	0
2024-05-26 19:20:32			0	34032	0	0	0	22501	21300	148038	27483	992216	40417	108278	0	0	8105	735254	0	0
2024-05-26 19:21:32			0	34026	0	0	0	22607	21300	148174	27313	992288	40427	108319	0	0	8103	735543	0	0
2024-05-26 19:22:32			0	34027	0	0	0	22444	21280	148126	27345	992289	40426	108256	0	0	8106	735576	0	0
2024-05-26 19:23:32			0	34055	0	0	0	22433	21280	148114	27111	992121	40415	108252	0	0	8108	734229	0	0
2024-05-26 19:24:32			0	34051	0	0	0	22319	21260	147890	27547	992061	40402	108208	0	0	8109	734503	0	0
2024-05-26 19:25:32			0	34063	0	0	0	22264	21250	147758	27093	991937	40401	108187	0	0	8111	733967	0	0
2024-05-26 19:26:32			0	34095	0	0	0	22259	21220	147782	27163	991682	40387	108185	0	0	8113	732551	0	0
2024-05-26 19:27:32			0	34119	0	0	0	22228	21190	147706	27246	991552	40374	108173	0	0	8114	731522	0	0
2024-05-26 19:28:32			0	34132	0	0	0	22225	21150	147622	27000	991378	40359	108172	0	0	8115	731061	0	0
2024-05-26 19:29:32			0	34129	0	0	0	22215	21140	147650	27483	991273	40369	108168	0	0	8115	731245	0	0
2024-05-26 19:30:32			0	34149	0	0	0	22199	21100	147614	27649	991250	40366	108162	0	0	8116	730449	0	0
2024-05-26 19:31:32			0	34162	0	0	0	22197	21090	147566	27303	991224	40375	108161	0	0	8117	729867	0	0
2024-05-26 19:32:32			0	34199	0	0	0	22192	21060	147534	27223	991049	40373	108159	0	0	8119	728218	0	0
2024-05-26 19:33:32			0	34212	0	0	0	22116	21030	147422	27223	990919	40360	108130	0	0	8121	727718	0	0
2024-05-26 19:34:32			0	34218	0	0	0	22176	21020	147442	27312	990894	40346	108153	0	0	8120	727472	0	0
2024-05-26 19:35:32			0	34208	0	0	0	22264	21010	147486	27218	990992	40369	108187	0	0	8118	727990	0	0
2024-05-26 19:36:32			0	34223	0	0	0	22023	21010	147386	27168	990992	40379	108094	0	0	8123	727274	0	0
2024-05-26 19:37:32			0	34245	0	0	0	22093	20990	147374	27431	990790	40367	108121	0	0	8123	726304	0	0
2024-05-26 19:38:32			0	34263	0	0	0	22020	20980	147258	27183	990747	40376	108093	0	0	8125	725486	0	0
2024-05-26 19:39:32			0	34249	0	0	0	22327	20980	147386	27294	990853	40365	108211	0	0	8119	726154	0	0
2024-05-26 19:40:32			0	34253	0	0	0	21966	20970	147310	27256	990978	40376	108072	0	0	8125	726003	0	0
2024-05-26 19:41:32			0	34252	0	0	0	22046	20980	147234	27673	990941	40366	108103	0	0	8124	726011	0	0
2024-05-26 19:42:32			0	34223	0	0	0	22023	20980	147350	27397	991048	40376	108094	0	0	8123	727394	0	0
2024-05-26 19:43:32			0	34231	0	0	0	21916	20990	147306	27409	990897	40356	108053	0	0	8125	726972	0	0
2024-05-26 19:44:32			0	34242	0	0	0	21911	20980	147382	27505	990800	40365	108051	0	0	8126	726488	0	0
2024-05-26 19:45:32			0	34229	0	0	0	21857	20980	147510	27100	990747	40343	108030	0	0	8126	727108	0	0
2024-05-26 19:46:32			0	34233	0	0	0	21789	20940	147422	27100	990334	40329	108004	0	0	8127	727078	0	0
2024-05-26 19:47:32			0	34236	0	0	0	21722	20910	147422	27322	990151	40293	107978	0	0	8128	727056	0	0
2024-05-26 19:48:32			0	34223	0	0	0	21592	20840	147310	27017	989670	40254	107928	0	0	8129	727959	0	0
2024-05-26 19:49:32			0	34200	0	0	0	21553	20780	147498	27377	989303	40249	107913	0	0	8129	729301	0	0
2024-05-26 19:50:32			0	34167	0	0	0	21553	20720	147578	27381	989016	40243	107913	0	0	8126	731125	0	0
2024-05-26 19:51:32			0	34159	0	0	0	21532	20650	147818	27583	988713	40249	107905	0	0	8126	731792	0	0
2024-05-26 19:52:32			0	34146	0	0	0	21503	20590	147950	27371	988514	40253	107894	0	0	8125	732659	0	0
2024-05-26 19:53:32			0	34145	0	0	0	21485	20530	148110	27291	988369	40259	107887	0	0	8125	732951	0	0
2024-05-26 19:54:32			0	34130	0	0	0	21485	20490	148098	27170	988187	40234	107887	0	0	8124	733834	0	0
2024-05-26 19:55:32			0	34110	0	0	0	21488	20450	148338	27348	988093	40263	107888	0	0	8123	734960	0	0
2024-05-26 19:56:32			0	34116	0	0	0	21462	20420	148234	27242	987937	40259	107878	0	0	8124	734792	0	0
2024-05-26 19:57:32			0	34097	0	0	0	21477	20390	148338	27549	987886	40247	107884	0	0	8122	735830	0	0
2024-05-26 19:58:32			0	34092	0	0	0	21483	20370	148474	27192	987906	40277	107886	0	0	8122	736153	0	0
2024-05-26 19:59:32			0	34088	0	0	0	21472	20340	148510	27341	987829	40275	107882	0	0	8121	736468	0	0
2024-05-26 20:00:32			0	34098	0	0	0	21548	20320	148586	27235	987804	40251	107911	0	0	8121	736066	0	0
2024-05-26 20:01:32			0	34080	0	0	0	21545	20310	148714	27197	987858	40271	107910	0	0	8120	736976	0	0
2024-05-26 20:02:32			0	34102	0	0	0	21701	20300	148598	26861	988009	40282	107970	0	0	8118	735955	0	0
2024-05-26 20:03:32			0	34110	0	0	0	21911	20330	148658	27580	988343	40329	108051	0	0	8115	735447	0	0
2024-05-26 20:04:32			0	34155	0	0	0	21841	20360	148446	27244	988579	40320	108024	0	0	8119	733159	0	0
2024-05-26 20:05:32			0	34197	0	0	0	21903	20390	148242	27237	988736	40324	108048	0	0	8121	731020	0	0
2024-05-26 20:06:32			0	34235	0	0	0	21841	20420	148054	27031	988813	40326	108024	0	0	8124	729078	0	0
2024-05-26 20:07:32			0	34247	0	0	0	21823	20430	147882	27225	988750	40305	108017	0	0	8125	728463	0	0
2024-05-26 20:08:32			0	34277	0	0	0	21927	20440	147826	27355	988873	40316	108057	0	0	8125	726989	0	0
2024-05-26 20:09:32			0	34314	0	0	0	21888	20460	147726	27339	988880	40307	108042	0	0	8128	725143	0	0
2024-05-26 20:10:32			0	34316	0	0	0	21867	20460	147562	27192	988827	40319	108034	0	0	8128	725048	0	0
2024-05-26 20:11:32			0	34369	0	0	0	21898	20460	147511	27355	988889	40307	108046	0	0	8131	722525	0	0
2024-05-26 20:12:32			0	34347	0	0	0	21857	20460	147455	27173	988801	40319	108030	0	0	8130	723571	0	0
2024-05-26 20:13:32			0	34370	0	0	0	21771	20470	147419	27358	988871	40320	107997	0	0	8133	722438	0	0
2024-05-26 20:14:32			0	34336	0	0	0	21807	20470	147458	27436	988711	40308	108011	0	0	8130	724055	0	0
2024-05-26 20:15:32			0	34346	0	0	0	21774	20460	147418	27268	988668	40319	107998	0	0	8132	723619	0	0
2024-05-26 20:16:32			0	34338	0	0	0	21799	20450	147554	27171	988731	40307	108008	0	0	8131	724040	0	0
2024-05-26 20:17:32			0	34332	0	0	0	21753	20440	147582	27161	988608	40305	107990	0	0	8131	724366	0	0
2024-05-26 20:18:32			0	34319	0	0	0	21768	20440	147602	27371	988608	40294	107996	0	0	8130	724985	0	0
2024-05-26 20:19:32			0	34330	0	0	0	21766	20440	147590	27428	988634	40305	107995	0	0	8131	724461	0	0
2024-05-26 20:20:32			0	34305	0	0	0	21761	20440	147598	27178	988608	40305	107993	0	0	8129	725653	0	0
2024-05-26 20:21:32			0	34308	0	0	0	21761	20420	147582	27429	988529	40304	107993	0	0	8129	725590	0	0
2024-05-26 20:22:32			0	34310	0	0	0	21758	20420	147590	27097	988521	40314	107992	0	0	8130	725494	0	0
2024-05-26 20:23:32			0	34318	0	0	0	21797	20420	147646	27128	988548	40303	108007	0	0	8129	725113	0	0
2024-05-26 20:24:32			0	34299	0	0	0	21844	20430	147806	27268	988812	40327	108025	0	0	8128	725979	0	0
2024-05-26 20:25:32			0	34309	0	0	0	21841	20440	147690	27206	988855	40338	108024	0	0	8128	725462	0	0
2024-05-26 20:26:32			0	34304	0	0	0	21836	20460	147698	27093	988862	40319	108022	0	0	8128	725620	0	0
2024-05-26 20:27:32			0	34289	0	0	0	21774	20460	147622	27258	988889	40307	107998	0	0	8128	726336	0	0
2024-05-26 20:28:32			0	34283	0	0	0	21810	20460	147682	27244	988862	40307	108012	0	0	8127	726622	0	0
2024-05-26 20:29:32			0	34288	0	0	0	21776	20470	147702	27222	988879	40309	107999	0	0	8128	726343	0	0
2024-05-26 20:30:32			0	34289	0	0	0	21820	20490	147750	27213	988904	40310	108016	0	0	8128	726215	0	0
2024-05-26 20:31:32			0	34274	0	0	0	21838	20490	147798	27436	989045	40322	108023	0	0	8127	726931	0	0
2024-05-26 20:32:32			0	34267	0	0	0	21825	20500	147818	27327	989142	40322	108018	0	0	8126	727226	0	0
2024-05-26 20:33:32			0	34272	0	0	0	21885	20510	147834	27319	988999	40334	108041	0	0	8126	726947	0	0
2024-05-26 20:34:32			0	34272	0	0	0	21893	20510	147738	27039	989026	40324	108044	0	0	8126	726947	0	0
2024-05-26 20:35:32			0	34280	0	0	0	21903	20520	147702	26901	989087	40302	108048	0	0	8126	726524	0	0
2024-05-26 20:36:32			0	34291	0	0	0	21844	20530	147574	27426	989024	40325	108025	0	0	8128	725959	0	0
2024-05-26 20:37:32			0	34305	0	0	0	21807	20520	147498	27507	988963	40302	108011	0	0	8129	725332	0	0
2024-05-26 20:38:32			0	34316	0	0	0	21784	20510	147526	27241	988832	40301	108002	0	0	8130	724847	0	0
2024-05-26 20:39:32			0	34313	0	0	0	21825	20500	147578	26876	988788	40300	108018	0	0	8129	725031	0	0
2024-05-26 20:40:32			0	34312	0	0	0	21864	20490	147674	27246	988992	40311	108033	0	0	8128	725118	0	0
2024-05-26 20:41:32			0	34301	0	0	0	21802	20500	147506	27275	988929	40311	108009	0	0	8129	725603	0	0
2024-05-26 20:42:32			0	34302	0	0	0	21771	20510	147674	26842	988938	40333	107997	0	0	8129	725515	0	0
2024-05-26 20:43:32			0	34297	0	0	0	21771	20500	147594	27027	988797	40300	107997	0	0	8129	725793	0	0
2024-05-26 20:44:32			0	34276	0	0	0	21766	20480	147678	27126	988781	40309	107995	0	0	8128	726876	0	0
2024-05-26 20:45:32			0	34261	0	0	0	21781	20470	147698	27100	988720	40320	108001	0	0	8127	727633	0	0
2024-05-26 20:46:32			0	34267	0	0	0	21883	20470	147818	27256	988799	40298	108040	0	0	8125	727346	0	0
2024-05-26 20:47:32			0	34254	0	0	0	21838	20500	147822	27105	989001	40333	108023	0	0	8125	727847	0	0
2024-05-26 20:48:32			0	34235	0	0	0	21955	20510	147990	27365	989097	40323	108068	0	0	8122	728715	0	0
2024-05-26 20:49:32			0	34192	0	0	0	21909	20520	148018	26984	989122	40325	108050	0	0	8121	730735	0	0
2024-05-26 20:50:32			0	34182	0	0	0	21937	20530	148190	27365	989237	40335	108061	0	0	8120	731174	0	0
2024-05-26 20:51:32			0	34168	0	0	0	21927	20530	148174	27253	989237	40325	108057	0	0	8119	731846	0	0
2024-05-26 20:52:32			0	34174	0	0	0	21911	20550	148130	26930	989191	40315	108051	0	0	8120	731477	0	0
2024-05-26 20:53:32			0	34167	0	0	0	21885	20550	148186	27090	989085	40315	108041	0	0	8120	731813	0	0
2024-05-26 20:54:32			0	34190	0	0	0	21875	20540	148026	26981	989121	40327	108037	0	0	8121	730750	0	0
2024-05-26 20:55:32			0	34187	0	0	0	21872	20540	148002	27438	989094	40304	108036	0	0	8121	730894	0	0
2024-05-26 20:56:32			0	34182	0	0	0	21883	20530	148090	27355	988980	40315	108040	0	0	8121	731174	0	0
2024-05-26 20:57:32			0	34189	0	0	0	21864	20520	148154	27341	988989	40314	108033	0	0	8121	730879	0	0
2024-05-26 20:58:32			0	34204	0	0	0	21844	20520	147970	27168	988901	40324	108025	0	0	8123	730160	0	0
2024-05-26 20:59:32			0	34215	0	0	0	21820	20510	148058	27303	988893	40313	108016	0	0	8124	729673	0	0
2024-05-26 21:00:32			0	34229	0	0	0	21831	20500	147910	27222	988797	40300	108020	0	0	8124	729043	0	0
2024-05-26 21:01:32			0	34214	0	0	0	21799	20490	147934	27140	988753	40311	108008	0	0	8124	729801	0	0
2024-05-26 21:02:32			0	34223	0	0	0	21789	20490	147918	27062	988833	40311	108004	0	0	8124	729370	0	0
2024-05-26 21:03:32			0	34199	0	0	0	21761	20490	148030	27279	988798	40310	107993	0	0	8124	730520	0	0
2024-05-26 21:04:32			0	34183	0	0	0	21771	20480	148058	27308	988728	40298	107997	0	0	8122	731328	0	0
2024-05-26 21:05:32			0	34167	0	0	0	21828	20470	148190	27150	988773	40320	108019	0	0	8121	732137	0	0
2024-05-26 21:06:32			0	34136	0	0	0	21789	20470	148258	27201	988818	40308	108004	0	0	8119	733627	0	0
2024-05-26 21:07:32			0	34126	0	0	0	21792	20480	148310	27216	988869	40320	108005	0	0	8119	734067	0	0
2024-05-26 21:08:32			0	34121	0	0	0	21771	20480	148358	27336	988781	40309	107997	0	0	8119	734308	0	0
2024-05-26 21:09:32			0	34134	0	0	0	21789	20480	148366	27498	988896	40309	108004	0	0	8119	733682	0	0
2024-05-26 21:10:32			0	34127	0	0	0	21893	20490	148482	27286	988878	40333	108044	0	0	8117	733979	0	0
2024-05-26 21:11:32			0	34100	0	0	0	21807	20490	148450	27218	988931	40321	108011	0	0	8117	735279	0	0
2024-05-26 21:12:32			0	34106	0	0	0	21794	20490	148498	27161	988860	40311	108006	0	0	8118	734990	0	0
2024-05-26 21:13:32			0	34094	0	0	0	21849	20500	148534	27000	988815	40300	108027	0	0	8116	735527	0	0
2024-05-26 21:14:32			0	34092	0	0	0	21836	20480	148614	27376	988843	40309	108022	0	0	8116	735705	0	0
2024-05-26 21:15:32			0	34060	0	0	0	21846	20480	148682	27331	988843	40320	108026	0	0	8114	737249	0	0
2024-05-26 21:16:32			0	34056	0	0	0	21844	20480	148690	27109	988843	40309	108025	0	0	8114	737442	0	0
2024-05-26 21:17:32			0	34052	0	0	0	21789	20470	148710	27294	988773	40298	108004	0	0	8115	737676	0	0
2024-05-26 21:18:32			0	34046	0	0	0	21823	20480	148718	27157	988808	40298	108017	0	0	8114	737925	0	0
2024-05-26 21:19:32			0	34042	0	0	0	21867	20460	148898	27246	988774	40296	108034	0	0	8113	738200	0	0
2024-05-26 21:20:32			0	34025	0	0	0	21844	20470	148890	27313	988818	40320	108025	0	0	8112	738982	0	0
2024-05-26 21:21:32			0	34018	0	0	0	21815	20480	149002	27182	988781	40332	108014	0	0	8112	739280	0	0
2024-05-26 21:22:32			0	34016	0	0	0	21831	20460	148966	27216	988756	40296	108020	0	0	8112	739458	0	0
2024-05-26 21:23:32			0	34011	0	0	0	21838	20460	149078	27308	988809	40319	108023	0	0	8111	739700	0	0
2024-05-26 21:24:32			0	33992	0	0	0	21844	20460	148994	27211	988730	40319	108025	0	0	8110	740621	0	0
2024-05-26 21:25:32			0	33985	0	0	0	21851	20460	148982	27384	988809	40319	108028	0	0	8110	740960	0	0
2024-05-26 21:26:32			0	34008	0	0	0	21849	20460	149090	27124	988694	40319	108027	0	0	8111	739845	0	0
2024-05-26 21:27:32			0	34002	0	0	0	21846	20460	149006	26831	988756	40307	108026	0	0	8111	740136	0	0
2024-05-26 21:28:32			0	33986	0	0	0	21831	20460	149014	27038	988783	40307	108020	0	0	8110	740911	0	0
2024-05-26 21:29:32			0	33991	0	0	0	21828	20450	149054	27362	988712	40319	108019	0	0	8110	740710	0	0
2024-05-26 21:30:32			0	33997	0	0	0	21825	20450	149110	27116	988739	40319	108018	0	0	8111	740419	0	0
2024-05-26 21:31:32			0	33994	0	0	0	21831	20450	149142	27208	988731	40318	108020	0	0	8111	740565	0	0
2024-05-26 21:32:32			0	33998	0	0	0	21818	20450	149126	27343	988678	40307	108015	0	0	8111	740371	0	0
2024-05-26 21:33:32			0	33992	0	0	0	21815	20440	149058	27270	988661	40316	108014	0	0	8111	740702	0	0
2024-05-26 21:34:32			0	34002	0	0	0	21818	20440	149054	27523	988608	40316	108015	0	0	8111	740218	0	0
2024-05-26 21:35:32			0	34000	0	0	0	21815	20440	149150	27085	988696	40328	108014	0	0	8111	740315	0	0
2024-05-26 21:36:32			0	33999	0	0	0	21846	20430	149014	27298	988705	40327	108026	0	0	8110	740404	0	0
2024-05-26 21:37:32			0	34012	0	0	0	21862	20440	149066	27268	988714	40316	108032	0	0	8111	739733	0	0
2024-05-26 21:38:32			0	33994	0	0	0	21872	20450	149030	27301	988784	40329	108036	0	0	8110	740565	0	0
2024-05-26 21:39:32			0	33997	0	0	0	21872	20450	149082	27235	988757	40318	108036	0	0	8110	740419	0	0
2024-05-26 21:40:32			0	33992	0	0	0	21877	20460	149110	27156	988801	40319	108038	0	0	8110	740621	0	0
2024-05-26 21:41:32			0	33990	0	0	0	21872	20450	149026	27377	988837	40329	108036	0	0	8110	740758	0	0
2024-05-26 21:42:32			0	33991	0	0	0	21862	20460	149094	27263	988809	40330	108032	0	0	8110	740669	0	0
2024-05-26 21:43:32			0	33993	0	0	0	21872	20450	149042	27381	988784	40318	108036	0	0	8110	740613	0	0
2024-05-26 21:44:32			0	33991	0	0	0	21867	20460	149102	27286	988756	40340	108034	0	0	8110	740669	0	0
2024-05-26 21:45:32			0	33993	0	0	0	21862	20450	149030	27013	988792	40340	108032	0	0	8110	740613	0	0
2024-05-26 21:46:32			0	33982	0	0	0	21867	20460	149054	27052	988756	40330	108034	0	0	8109	741105	0	0
2024-05-26 21:47:32			0	33975	0	0	0	21872	20450	149034	27291	988845	40330	108036	0	0	8109	741486	0	0
2024-05-26 21:48:32			0	33993	0	0	0	21885	20460	149066	27343	988836	40330	108041	0	0	8110	740572	0	0
2024-05-26 21:49:32			0	33983	0	0	0	21885	20460	149046	27332	988889	40330	108041	0	0	8109	741057	0	0
2024-05-26 21:50:32			0	33969	0	0	0	21896	20470	149102	27320	988844	40341	108045	0	0	8108	741695	0	0
2024-05-26 21:51:32			0	33991	0	0	0	21883	20470	149082	26894	988871	40331	108040	0	0	8110	740628	0	0
2024-05-26 21:52:32			0	33968	0	0	0	21898	20480	149086	27305	988869	40320	108046	0	0	8108	741703	0	0
2024-05-26 21:53:32			0	33973	0	0	0	21906	20480	149010	27083	988941	40332	108049	0	0	8108	741460	0	0
2024-05-26 21:54:32			0	33983	0	0	0	21903	20480	149118	27218	988896	40332	108048	0	0	8109	740975	0	0
2024-05-26 21:55:32			0	33983	0	0	0	21898	20480	148994	26989	988922	40320	108046	0	0	8109	740975	0	0
2024-05-26 21:56:32			0	34000	0	0	0	21888	20490	149022	27112	988931	40333	108042	0	0	8110	740110	0	0
2024-05-26 21:57:32			0	33984	0	0	0	21849	20490	149018	27308	988904	40343	108027	0	0	8110	740885	0	0
2024-05-26 21:58:32			0	33964	0	0	0	21862	20490	149174	26922	988886	40344	108032	0	0	8108	741856	0	0
2024-05-26 21:59:32			0	33974	0	0	0	21849	20480	149126	26993	988843	40332	108027	0	0	8109	741411	0	0
2024-05-26 22:00:32			0	33981	0	0	0	21851	20490	149102	26887	988833	40322	108028	0	0	8110	741031	0	0
2024-05-26 22:01:32			0	33986	0	0	0	21862	20470	149138	27239	988746	40320	108032	0	0	8110	740870	0	0
2024-05-26 22:02:32			0	33985	0	0	0	21875	20470	149010	27156	988818	40320	108037	0	0	8109	740919	0	0
2024-05-26 22:03:32			0	33988	0	0	0	21877	20460	149122	26956	988836	40330	108038	0	0	8109	740815	0	0
2024-05-26 22:04:32			0	33986	0	0	0	21862	20480	149126	27204	988869	40332	108032	0	0	8110	740830	0	0
2024-05-26 22:05:32			0	33968	0	0	0	21888	20480	149130	27187	988896	40332	108042	0	0	8108	741703	0	0
2024-05-26 22:06:32			0	33966	0	0	0	21883	20490	149226	27244	988904	40333	108040	0	0	8108	741759	0	0
2024-05-26 22:07:32			0	33928	0	0	0	21888	20480	149326	27017	988896	40342	108042	0	0	8106	743645	0	0
2024-05-26 22:08:32			0	33952	0	0	0	21877	20480	149378	26894	988896	40320	108038	0	0	8107	742479	0	0
2024-05-26 22:09:32			0	33921	0	0	0	21836	20490	149310	26956	988904	40343	108022	0	0	8106	743945	0	0
2024-05-26 22:10:32			0	33910	0	0	0	21794	20490	149434	26764	988851	40333	108006	0	0	8107	744480	0	0
2024-05-26 22:11:32			0	33900	0	0	0	21792	20470	149422	27364	988853	40320	108005	0	0	8106	745049	0	0
2024-05-26 22:12:32			0	33875	0	0	0	21763	20470	149498	27390	988711	40331	107994	0	0	8105	746267	0	0
2024-05-26 22:13:32			0	33867	0	0	0	21742	20450	149538	27043	988686	40330	107986	0	0	8105	746740	0	0
2024-05-26 22:14:32			0	33884	0	0	0	21703	20460	149554	27059	988721	40319	107971	0	0	8106	745870	0	0
2024-05-26 22:15:32			0	33883	0	0	0	21659	20450	149454	27197	988633	40307	107954	0	0	8107	745960	0	0
2024-05-26 22:16:32			0	33854	0	0	0	21618	20430	149562	27227	988493	40294	107938	0	0	8106	747457	0	0
2024-05-26 22:17:32			0	33832	0	0	0	21631	20420	149758	27298	988362	40303	107943	0	0	8105	748573	0	0
2024-05-26 22:18:32			0	33764	0	0	0	21586	20410	149958	26939	988406	40303	107926	0	0	8101	751944	0	0
2024-05-26 22:19:32			0	33726	0	0	0	21576	20400	150054	27251	988275	40301	107922	0	0	8099	753852	0	0
2024-05-26 22:20:32			0	33696	0	0	0	21548	20390	150310	26899	988178	40291	107911	0	0	8098	755370	0	0
2024-05-26 22:21:32			0	33664	0	0	0	21524	20360	150294	27107	988057	40299	107902	0	0	8096	757072	0	0
2024-05-26 22:22:32			0	33673	0	0	0	21514	20350	150438	27409	987987	40287	107898	0	0	8097	756670	0	0
2024-05-26 22:23:32			0	33634	0	0	0	21480	20320	150522	27227	987901	40294	107885	0	0	8095	758721	0	0
2024-05-26 22:24:32			0	33606	0	0	0	21470	20300	150650	27093	987770	40282	107881	0	0	8094	760190	0	0
2024-05-26 22:25:32			0	33581	0	0	0	21444	20290	150926	27327	987700	40281	107871	0	0	8093	761470	0	0
2024-05-26 22:26:32			0	33547	0	0	0	21436	20260	150993	27144	987562	40256	107868	0	0	8091	763283	0	0
2024-05-26 22:27:32			0	33552	0	0	0	21425	20240	150965	27398	987537	40276	107864	0	0	8091	763119	0	0
2024-05-26 22:28:32			0	33571	0	0	0	21457	20220	150945	27107	987538	40286	107876	0	0	8091	762260	0	0
2024-05-26 22:29:32			0	33573	0	0	0	21454	20220	150949	27403	987556	40296	107875	0	0	8092	762161	0	0
2024-05-26 22:30:32			0	33585	0	0	0	21483	20210	150982	27384	987521	40286	107886	0	0	8092	761608	0	0
2024-05-26 22:31:32			0	33592	0	0	0	21457	20200	150838	27424	987531	40273	107876	0	0	8093	761303	0	0
2024-05-26 22:32:32			0	33609	0	0	0	21472	20200	150826	27409	987558	40285	107882	0	0	8093	760461	0	0
2024-05-26 22:33:32			0	33629	0	0	0	21477	20200	150786	27147	987523	40284	107884	0	0	8094	759471	0	0
2024-05-26 22:34:32			0	33638	0	0	0	21472	20190	150866	27079	987514	40284	107882	0	0	8095	759068	0	0
2024-05-26 22:35:32			0	33611	0	0	0	21488	20180	150898	27066	987524	40272	107888	0	0	8093	760446	0	0
2024-05-26 22:36:32			0	33611	0	0	0	21480	20190	150814	27272	987514	40284	107885	0	0	8093	760404	0	0
2024-05-26 22:37:32			0	33607	0	0	0	21412	20180	150934	27235	987444	40293	107859	0	0	8094	760644	0	0
2024-05-26 22:38:32			0	33606	0	0	0	21386	20180	150990	27109	987410	40271	107849	0	0	8094	760693	0	0
2024-05-26 22:39:32			0	33605	0	0	0	21374	20160	150954	27176	987323	40258	107844	0	0	8094	760827	0	0
2024-05-26 22:40:32			0	33593	0	0	0	21394	20150	150946	27438	987288	40257	107852	0	0	8093	761463	0	0
2024-05-26 22:41:32			0	33599	0	0	0	21337	20130	151062	27486	987201	40266	107830	0	0	8095	761250	0	0
2024-05-26 22:42:32			0	33608	0	0	0	21363	20130	150878	27007	987228	40266	107840	0	0	8095	760804	0	0
2024-05-26 22:43:32			0	33613	0	0	0	21374	20120	150806	27367	987211	40255	107844	0	0	8095	760599	0	0
2024-05-26 22:44:32			0	33596	0	0	0	21384	20120	150886	26944	987176	40265	107848	0	0	8094	761441	0	0
2024-05-26 22:45:32			0	33612	0	0	0	21405	20100	151038	27216	987125	40264	107856	0	0	8094	760732	0	0
2024-05-26 22:46:32			0	33584	0	0	0	21410	20100	151010	27421	987090	40275	107858	0	0	8092	762120	0	0
2024-05-26 22:47:32			0	33586	0	0	0	21410	20090	151122	27282	987073	40252	107858	0	0	8092	762063	0	0
2024-05-26 22:48:32			0	33591	0	0	0	21407	20080	151050	27279	987038	40251	107857	0	0	8093	761857	0	0
2024-05-26 22:49:32			0	33587	0	0	0	21386	20070	151014	27119	987021	40272	107849	0	0	8093	762097	0	0
2024-05-26 22:50:32			0	33596	0	0	0	21376	20060	151050	26960	986925	40271	107845	0	0	8093	761693	0	0
2024-05-26 22:51:32			0	33608	0	0	0	21350	20050	151018	27281	986935	40249	107835	0	0	8095	761140	0	0
2024-05-26 22:52:32			0	33615	0	0	0	21322	20050	150966	27128	986847	40248	107824	0	0	8095	760793	0	0
2024-05-26 22:53:32			0	33606	0	0	0	21296	20040	150934	27263	986856	40258	107814	0	0	8095	761281	0	0
2024-05-26 22:54:32			0	33600	0	0	0	21298	20030	151098	27324	986768	40258	107815	0	0	8095	761621	0	0
2024-05-26 22:55:32			0	33573	0	0	0	21303	20030	151130	27393	986787	40257	107817	0	0	8093	762960	0	0
2024-05-26 22:56:32			0	33547	0	0	0	21324	20020	151181	27199	986752	40257	107825	0	0	8091	764294	0	0
2024-05-26 22:57:32			0	33532	0	0	0	21324	20020	151301	27384	986823	40256	107825	0	0	8090	765040	0	0
2024-05-26 22:58:32			0	33531	0	0	0	21306	20020	151301	27201	986849	40267	107818	0	0	8091	765090	0	0
2024-05-26 22:59:32			0	33542	0	0	0	21306	20020	151257	27267	986770	40256	107818	0	0	8091	764543	0	0
2024-05-26 23:00:32			0	33540	0	0	0	21296	20010	151373	27294	986841	40256	107814	0	0	8091	764685	0	0
2024-05-26 23:01:32			0	33537	0	0	0	21316	20010	151337	27341	986788	40267	107822	0	0	8091	764834	0	0
2024-05-26 23:02:32			0	33552	0	0	0	21290	20010	151209	27409	986727	40255	107812	0	0	8092	764088	0	0
2024-05-26 23:03:32			0	33572	0	0	0	21277	20000	151317	27336	986639	40255	107807	0	0	8093	763136	0	0
2024-05-26 23:04:32			0	33600	0	0	0	21283	19990	151218	27495	986569	40253	107809	0	0	8095	761789	0	0
2024-05-26 23:05:32			0	33583	0	0	0	21283	19980	151194	27249	986632	40253	107809	0	0	8094	762674	0	0
2024-05-26 23:06:32			0	33593	0	0	0	21306	19970	151186	27211	986562	40251	107818	0	0	8094	762220	0	0
2024-05-26 23:07:32			0	33604	0	0	0	21283	19970	151042	27493	986615	40251	107809	0	0	8095	761674	0	0
2024-05-26 23:08:32			0	33633	0	0	0	21254	19970	150942	27571	986588	40263	107798	0	0	8097	760237	0	0
2024-05-26 23:09:32			0	33673	0	0	0	21327	19980	150870	27251	986544	40252	107826	0	0	8098	758217	0	0
2024-05-26 23:10:32			0	33677	0	0	0	21309	19970	150714	27150	986580	40251	107819	0	0	8099	758061	0	0
2024-05-26 23:11:32			0	33694	0	0	0	21301	19970	150638	27358	986606	40263	107816	0	0	8100	757221	0	0
2024-05-26 23:12:32			0	33714	0	0	0	21306	19970	150562	27227	986588	40241	107818	0	0	8101	756235	0	0
2024-05-26 23:13:32			0	33711	0	0	0	21306	19970	150498	27358	986659	40251	107818	0	0	8101	756383	0	0
2024-05-26 23:14:32			0	33742	0	0	0	21290	19970	150550	27218	986659	40251	107812	0	0	8103	754855	0	0
2024-05-26 23:15:32			0	33716	0	0	0	21309	19970	150482	27175	986606	40263	107819	0	0	8101	756136	0	0
2024-05-26 23:16:32			0	33780	0	0	0	21306	19960	150450	27319	986651	40251	107818	0	0	8105	753028	0	0
2024-05-26 23:17:32			0	33780	0	0	0	21316	19970	150286	27239	986580	40251	107822	0	0	8105	752986	0	0
2024-05-26 23:18:32			0	33791	0	0	0	21316	19960	150194	27306	986651	40240	107822	0	0	8105	752487	0	0
2024-05-26 23:19:32			0	33810	0	0	0	21309	19960	150142	27105	986545	40251	107819	0	0	8106	751555	0	0
2024-05-26 23:20:32			0	33824	0	0	0	21272	19950	150122	27315	986528	40272	107805	0	0	8108	750909	0	0
2024-05-26 23:21:32			0	33842	0	0	0	21251	19950	150054	27203	986448	40261	107797	0	0	8109	750027	0	0
2024-05-26 23:22:32			0	33845	0	0	0	21241	19930	150022	27317	986476	40260	107793	0	0	8110	749963	0	0
2024-05-26 23:23:32			0	33861	0	0	0	21225	19920	149938	27242	986372	40258	107787	0	0	8111	749221	0	0
2024-05-26 23:24:32			0	33881	0	0	0	21225	19920	149710	27284	986354	40258	107787	0	0	8112	748243	0	0
2024-05-26 23:25:32			0	33936	0	0	0	21220	19910	149494	27102	986310	40237	107785	0	0	8115	745599	0	0
2024-05-26 23:26:32			0	33958	0	0	0	21205	19910	149370	27033	986284	40248	107779	0	0	8117	744527	0	0
2024-05-26 23:27:32			0	33952	0	0	0	21207	19900	149518	27062	986232	40246	107780	0	0	8116	744860	0	0
2024-05-26 23:28:32			0	33935	0	0	0	21192	19900	149502	27552	986259	40246	107774	0	0	8115	745688	0	0
2024-05-26 23:29:32			0	33939	0	0	0	21163	19880	149514	27326	986154	40222	107763	0	0	8116	745576	0	0
2024-05-26 23:30:32			0	33951	0	0	0	21161	19870	149514	27533	986031	40244	107762	0	0	8117	745032	0	0
2024-05-26 23:31:32			0	33995	0	0	0	21096	19870	149354	27071	986049	40232	107737	0	0	8120	742890	0	0
2024-05-26 23:32:32			0	33984	0	0	0	21090	19860	149246	27447	985980	40242	107735	0	0	8120	743466	0	0
2024-05-26 23:33:32			0	34006	0	0	0	21106	19840	149298	27268	985954	40230	107741	0	0	8121	742478	0	0
2024-05-26 23:34:32			0	33980	0	0	0	21124	19830	149366	27319	985937	40229	107748	0	0	8119	743784	0	0
2024-05-26 23:35:32			0	33991	0	0	0	21083	19830	149314	27462	985876	40240	107732	0	0	8120	743248	0	0
2024-05-26 23:36:32			0	34009	0	0	0	21075	19810	149318	27459	985789	40227	107729	0	0	8121	742455	0	0
2024-05-26 23:37:32			0	33984	0	0	0	21064	19800	149302	27602	985808	40226	107725	0	0	8120	743712	0	0
2024-05-26 23:38:32			0	33993	0	0	0	21096	19780	149294	27414	985668	40224	107737	0	0	8120	743356	0	0
2024-05-26 23:39:32			0	34013	0	0	0	21119	19790	149366	27455	985756	40224	107746	0	0	8121	742342	0	0
2024-05-26 23:40:32			0	33977	0	0	0	21127	19780	149422	27261	985792	40235	107749	0	0	8118	744134	0	0
2024-05-26 23:41:32			0	34001	0	0	0	21137	19770	149478	27362	985704	40234	107753	0	0	8119	743008	0	0
2024-05-26 23:42:32			0	33985	0	0	0	21155	19770	149398	27552	985749	40234	107760	0	0	8118	743786	0	0
2024-05-26 23:43:32			0	34007	0	0	0	21163	19770	149502	27260	985776	40245	107763	0	0	8119	742716	0	0
2024-05-26 23:44:32			0	33996	0	0	0	21199	19780	149490	27275	985907	40236	107777	0	0	8118	743210	0	0
2024-05-26 23:45:32			0	33974	0	0	0	21202	19780	149602	27086	985898	40246	107778	0	0	8117	744281	0	0
2024-05-26 23:46:32			0	33956	0	0	0	21215	19790	149706	27333	985977	40247	107783	0	0	8116	745116	0	0
2024-05-26 23:47:32			0	33953	0	0	0	21212	19800	149714	27142	985967	40249	107782	0	0	8116	745222	0	0
2024-05-26 23:48:32			0	33965	0	0	0	21215	19800	149582	27168	985993	40237	107783	0	0	8116	744637	0	0
2024-05-26 23:49:32			0	33972	0	0	0	21220	19810	149442	27452	986002	40238	107785	0	0	8117	744255	0	0
2024-05-26 23:50:32			0	34013	0	0	0	21223	19810	149386	27222	986081	40249	107786	0	0	8119	742261	0	0
2024-05-26 23:51:32			0	34025	0	0	0	21218	19810	149298	26963	986055	40249	107784	0	0	8120	741678	0	0
2024-05-26 23:52:32			0	34029	0	0	0	21202	19830	149290	27256	986035	40229	107778	0	0	8120	741402	0	0
2024-05-26 23:53:32			0	34036	0	0	0	21215	19820	149206	27419	985992	40249	107783	0	0	8120	741103	0	0
2024-05-26 23:54:32			0	34045	0	0	0	21215	19820	149194	26866	986027	40239	107783	0	0	8121	740666	0	0
2024-05-26 23:55:32			0	34013	0	0	0	21218	19810	149234	26783	985983	40238	107784	0	0	8119	742261	0	0
2024-05-26 23:56:32			0	34037	0	0	0	21236	19820	149246	27206	986027	40239	107791	0	0	8120	741055	0	0
2024-05-26 23:57:32			0	34070	0	0	0	21246	19830	149130	27407	986097	40250	107795	0	0	8122	739414	0	0
2024-05-26 23:58:32			0	34068	0	0	0	21257	19840	149150	27244	986131	40262	107799	0	0	8122	739470	0	0
2024-05-26 23:59:32			0	34074	0	0	0	21264	19840	149090	27298	986131	40240	107802	0	0	8122	739179	0	0
2024-05-27 00:00:32			0	34060	0	0	0	21288	19860	149206	27197	986271	40252	107811	0	0	8121	739776	0	0
2024-05-27 00:01:32			0	34057	0	0	0	21311	19850	149266	27107	986263	40242	107820	0	0	8120	739962	0	0
2024-05-27 00:02:32			0	34041	0	0	0	21329	19870	149354	27228	986288	40254	107827	0	0	8119	740656	0	0
2024-05-27 00:03:32			0	34045	0	0	0	21335	19880	149238	27114	986331	40266	107829	0	0	8119	740422	0	0
2024-05-27 00:04:32			0	34043	0	0	0	21329	19880	149346	27355	986358	40255	107827	0	0	8119	740519	0	0
2024-05-27 00:05:32			0	34027	0	0	0	21311	19880	149354	27144	986313	40255	107820	0	0	8119	741295	0	0
2024-05-27 00:06:32			0	34019	0	0	0	21301	19890	149266	27421	986330	40256	107816	0	0	8118	741642	0	0
2024-05-27 00:07:32			0	34021	0	0	0	21277	19890	149162	27644	986375	40267	107807	0	0	8119	741545	0	0
2024-05-27 00:08:32			0	34026	0	0	0	21272	19890	149178	27133	986375	40256	107805	0	0	8119	741303	0	0
2024-05-27 00:09:32			0	34026	0	0	0	21267	19890	149226	27052	986330	40268	107803	0	0	8119	741303	0	0
2024-05-27 00:10:32			0	34031	0	0	0	21264	19880	149158	27341	986252	40255	107802	0	0	8120	741101	0	0
2024-05-27 00:11:32			0	34062	0	0	0	21257	19880	149150	27319	986287	40244	107799	0	0	8121	739598	0	0
2024-05-27 00:12:32			0	34060	0	0	0	21267	19880	149158	27490	986260	40255	107803	0	0	8121	739695	0	0
2024-05-27 00:13:32			0	34039	0	0	0	21262	19880	149094	27424	986313	40233	107801	0	0	8120	740713	0	0
2024-05-27 00:14:32			0	34056	0	0	0	21264	19880	149062	27493	986260	40255	107802	0	0	8121	739888	0	0
2024-05-27 00:15:32			0	34060	0	0	0	21251	19880	149050	27064	986260	40244	107797	0	0	8121	739695	0	0
2024-05-27 00:16:32			0	34064	0	0	0	21251	19890	149126	27673	986295	40256	107797	0	0	8122	739460	0	0
2024-05-27 00:17:32			0	34096	0	0	0	21251	19870	149078	27348	986190	40244	107797	0	0	8123	737993	0	0
2024-05-27 00:18:32			0	34097	0	0	0	21254	19890	148918	27095	986295	40245	107798	0	0	8124	737863	0	0
2024-05-27 00:19:32			0	34087	0	0	0	21246	19880	148998	27190	986225	40266	107795	0	0	8123	738387	0	0
2024-05-27 00:20:32			0	34050	0	0	0	21251	19870	149002	27398	986243	40255	107797	0	0	8121	740220	0	0
2024-05-27 00:21:32			0	34073	0	0	0	21233	19870	149026	27007	986217	40244	107790	0	0	8122	739106	0	0
2024-05-27 00:22:32			0	34078	0	0	0	21246	19870	149010	27284	986208	40254	107795	0	0	8122	738864	0	0
2024-05-27 00:23:32			0	34064	0	0	0	21246	19870	149018	27038	986190	40244	107795	0	0	8122	739542	0	0
2024-05-27 00:24:32			0	34066	0	0	0	21246	19870	149046	27041	986217	40255	107795	0	0	8122	739445	0	0
2024-05-27 00:25:32			0	34062	0	0	0	21257	19870	149074	27329	986217	40266	107799	0	0	8121	739638	0	0
2024-05-27 00:26:32			0	34051	0	0	0	21257	19870	149094	27338	986270	40255	107799	0	0	8121	740172	0	0
2024-05-27 00:27:32			0	34005	0	0	0	21251	19870	149278	27284	986208	40254	107797	0	0	8118	742404	0	0
2024-05-27 00:28:32			0	33991	0	0	0	21259	19870	149342	27507	986235	40254	107800	0	0	8117	743085	0	0
2024-05-27 00:29:32			0	33988	0	0	0	21262	19860	149434	27436	986227	40264	107801	0	0	8117	743272	0	0
2024-05-27 00:30:32			0	33959	0	0	0	21285	19860	149546	27414	986227	40243	107810	0	0	8115	744683	0	0
2024-05-27 00:31:32			0	33975	0	0	0	21314	19870	149546	27609	986243	40277	107821	0	0	8115	743863	0	0
2024-05-27 00:32:32			0	33966	0	0	0	21345	19880	149598	27355	986393	40277	107833	0	0	8114	744260	0	0
2024-05-27 00:33:32			0	34006	0	0	0	21345	19880	149382	27498	986366	40266	107833	0	0	8117	742315	0	0
2024-05-27 00:34:32			0	34017	0	0	0	21340	19900	149358	27144	986391	40279	107831	0	0	8118	741699	0	0
2024-05-27 00:35:32			0	34021	0	0	0	21332	19900	149282	27324	986506	40256	107828	0	0	8118	741504	0	0
2024-05-27 00:36:32			0	34015	0	0	0	21329	19910	149310	27435	986488	40269	107827	0	0	8118	741755	0	0
2024-05-27 00:37:32			0	34012	0	0	0	21329	19910	149298	27396	986488	40269	107827	0	0	8117	741900	0	0
2024-05-27 00:38:32			0	34025	0	0	0	21306	19920	149198	27473	986451	40269	107818	0	0	8119	741228	0	0
2024-05-27 00:39:32			0	34009	0	0	0	21316	19910	149302	27369	986443	40258	107822	0	0	8118	742046	0	0
2024-05-27 00:40:32			0	34028	0	0	0	21319	19920	149178	27809	986486	40258	107823	0	0	8119	741083	0	0
2024-05-27 00:41:32			0	34028	0	0	0	21329	19920	149158	27440	986478	40258	107827	0	0	8118	741083	0	0
2024-05-27 00:42:32			0	34050	0	0	0	21337	19920	149098	27336	986513	40258	107830	0	0	8120	740016	0	0
2024-05-27 00:43:32			0	34043	0	0	0	21342	19910	149082	27393	986549	40269	107832	0	0	8119	740396	0	0
2024-05-27 00:44:32			0	34038	0	0	0	21340	19920	149054	27524	986451	40258	107831	0	0	8119	740598	0	0
2024-05-27 00:45:32			0	34034	0	0	0	21342	19920	149150	27379	986486	40258	107832	0	0	8119	740792	0	0
2024-05-27 00:46:32			0	34037	0	0	0	21361	19930	149166	27633	986601	40259	107839	0	0	8118	740606	0	0
2024-05-27 00:47:32			0	34043	0	0	0	21366	19930	149058	27627	986521	40270	107841	0	0	8119	740315	0	0
2024-05-27 00:48:32			0	34062	0	0	0	21374	19930	149018	27046	986556	40271	107844	0	0	8120	739394	0	0
2024-05-27 00:49:32			0	34089	0	0	0	21368	19930	148870	27348	986583	40271	107842	0	0	8121	738087	0	0
2024-05-27 00:50:32			0	34086	0	0	0	21381	19950	148882	27118	986661	40272	107847	0	0	8121	738151	0	0
2024-05-27 00:51:32			0	34066	0	0	0	21374	19950	148938	27244	986661	40272	107844	0	0	8120	739119	0	0
2024-05-27 00:52:32			0	34039	0	0	0	21384	19950	149030	27426	986643	40273	107848	0	0	8118	740427	0	0
2024-05-27 00:53:32			0	34015	0	0	0	21394	19960	149286	27471	986677	40273	107852	0	0	8117	741550	0	0
2024-05-27 00:54:32			0	33967	0	0	0	21384	19950	149346	27301	986661	40272	107848	0	0	8114	743924	0	0
2024-05-27 00:55:32			0	33966	0	0	0	21386	19960	149526	27466	986677	40273	107849	0	0	8114	743932	0	0
2024-05-27 00:56:32			0	33926	0	0	0	21405	19960	149662	27398	986677	40262	107856	0	0	8112	745881	0	0
2024-05-27 00:57:32			0	33938	0	0	0	21402	19970	149558	27569	986739	40274	107855	0	0	8112	745254	0	0
2024-05-27 00:58:32			0	33921	0	0	0	21394	19970	149574	27263	986765	40274	107852	0	0	8111	746083	0	0
2024-05-27 00:59:32			0	33914	0	0	0	21399	19980	149538	27109	986817	40276	107854	0	0	8111	746384	0	0
2024-05-27 01:00:32			0	33905	0	0	0	21399	19980	149654	27045	986809	40286	107854	0	0	8111	746823	0	0
2024-05-27 01:01:32			0	33901	0	0	0	21397	19990	149610	27611	986746	40287	107853	0	0	8110	746977	0	0
2024-05-27 01:02:32			0	33921	0	0	0	21394	19980	149562	27116	986782	40275	107852	0	0	8112	746042	0	0
2024-05-27 01:03:32			0	33922	0	0	0	21392	19980	149586	27331	986791	40287	107851	0	0	8112	745993	0	0
2024-05-27 01:04:32			0	33946	0	0	0	21394	19980	149538	27298	986703	40275	107852	0	0	8113	744824	0	0
2024-05-27 01:05:32			0	33940	0	0	0	21389	19990	149434	27433	986799	40287	107850	0	0	8113	745075	0	0
2024-05-27 01:06:32			0	33971	0	0	0	21410	19980	149398	27170	986764	40276	107858	0	0	8114	743607	0	0
2024-05-27 01:07:32			0	33984	0	0	0	21420	19990	149258	27204	986799	40287	107862	0	0	8115	742933	0	0
2024-05-27 01:08:32			0	33994	0	0	0	21415	19990	149150	27171	986799	40276	107860	0	0	8115	742448	0	0
2024-05-27 01:09:32			0	33982	0	0	0	21415	20000	149262	27268	986842	40288	107860	0	0	8115	742990	0	0
2024-05-27 01:10:32			0	33950	0	0	0	21420	20000	149454	27646	986842	40276	107862	0	0	8113	744547	0	0
2024-05-27 01:11:32			0	33920	0	0	0	21431	20000	149498	27168	986851	40277	107866	0	0	8111	746009	0	0
2024-05-27 01:12:32			0	33919	0	0	0	21438	20000	149618	27336	986842	40288	107869	0	0	8111	746058	0	0
2024-05-27 01:13:32			0	33915	0	0	0	21425	20000	149574	27275	986851	40277	107864	0	0	8111	746253	0	0
2024-05-27 01:14:32			0	33931	0	0	0	21428	20010	149474	27512	986886	40277	107865	0	0	8112	745431	0	0
2024-05-27 01:15:32			0	33950	0	0	0	21415	20020	149470	27479	986911	40279	107860	0	0	8113	744465	0	0
2024-05-27 01:16:32			0	33939	0	0	0	21402	20000	149450	27466	986851	40289	107855	0	0	8113	745083	0	0
2024-05-27 01:17:32			0	33911	0	0	0	21410	20000	149642	27514	986851	40266	107858	0	0	8111	746448	0	0
2024-05-27 01:18:32			0	33901	0	0	0	21412	20010	149670	27284	986859	40289	107859	0	0	8110	746895	0	0
2024-05-27 01:19:32			0	33851	0	0	0	21423	20000	149774	27589	986877	40277	107863	0	0	8107	749380	0	0
2024-05-27 01:20:32			0	33855	0	0	0	21418	20000	149990	27312	986851	40277	107861	0	0	8107	749184	0	0
2024-05-27 01:21:32			0	33831	0	0	0	21425	20010	150038	27327	986806	40266	107864	0	0	8106	750318	0	0
2024-05-27 01:22:32			0	33814	0	0	0	21420	20010	149966	27464	986886	40289	107862	0	0	8105	751151	0	0
2024-05-27 01:23:32			0	33801	0	0	0	21420	20010	150074	27149	986886	40277	107862	0	0	8104	751789	0	0
2024-05-27 01:24:32			0	33807	0	0	0	21423	20000	150094	27609	986877	40277	107863	0	0	8105	751536	0	0
2024-05-27 01:25:32			0	33823	0	0	0	21418	20010	149958	27480	986921	40289	107861	0	0	8106	750710	0	0
2024-05-27 01:26:32			0	33859	0	0	0	21425	20010	149838	27242	986868	40300	107864	0	0	8108	748947	0	0
2024-05-27 01:27:32			0	33905	0	0	0	21415	20010	149718	27600	986939	40277	107860	0	0	8110	746699	0	0
2024-05-27 01:28:32			0	33915	0	0	0	21418	20010	149430	27358	986894	40267	107861	0	0	8111	746212	0	0
2024-05-27 01:29:32			0	33970	0	0	0	21423	20020	149322	27659	986902	40289	107863	0	0	8114	743491	0	0
2024-05-27 01:30:32			0	33977	0	0	0	21423	20010	149222	27296	986939	40266	107863	0	0	8114	743192	0	0
2024-05-27 01:31:32			0	34011	0	0	0	21423	20020	149058	27386	986884	40279	107863	0	0	8116	741499	0	0
2024-05-27 01:32:32			0	34034	0	0	0	21431	20010	149026	27114	986894	40289	107866	0	0	8117	740424	0	0
2024-05-27 01:33:32			0	34051	0	0	0	21433	20020	148890	26968	986902	40289	107867	0	0	8118	739560	0	0
2024-05-27 01:34:32			0	34076	0	0	0	21423	20010	148738	27114	986921	40289	107863	0	0	8120	738390	0	0
2024-05-27 01:35:32			0	34112	0	0	0	21415	20020	148706	27367	986929	40300	107860	0	0	8122	736610	0	0
2024-05-27 01:36:32			0	34127	0	0	0	21405	20010	148542	27367	986833	40277	107856	0	0	8123	735926	0	0
2024-05-27 01:37:32			0	34140	0	0	0	21412	20020	148446	27164	986858	40279	107859	0	0	8124	735259	0	0
2024-05-27 01:38:32			0	34190	0	0	0	21397	20020	148274	27324	986929	40289	107853	0	0	8127	732851	0	0
2024-05-27 01:39:32			0	34187	0	0	0	21386	20010	148214	27248	986921	40289	107849	0	0	8127	733036	0	0
2024-05-27 01:40:32			0	34207	0	0	0	21371	20010	148122	27462	986841	40267	107843	0	0	8128	732074	0	0
2024-05-27 01:41:32			0	34237	0	0	0	21358	20020	148050	27343	986849	40278	107838	0	0	8130	730594	0	0
2024-05-27 01:42:32			0	34228	0	0	0	21355	20000	148058	27157	986789	40276	107837	0	0	8130	731106	0	0
2024-05-27 01:43:32			0	34241	0	0	0	21345	20000	148062	27248	986745	40277	107833	0	0	8131	730482	0	0
2024-05-27 01:44:32			0	34222	0	0	0	21335	19990	148018	27254	986701	40264	107829	0	0	8130	731435	0	0
2024-05-27 01:45:32			0	34231	0	0	0	21324	19990	148050	27497	986720	40276	107825	0	0	8130	731003	0	0
2024-05-27 01:46:32			0	34238	0	0	0	21327	19980	147930	27310	986605	40264	107826	0	0	8131	730707	0	0
2024-05-27 01:47:32			0	34265	0	0	0	21340	19980	147866	27443	986623	40264	107831	0	0	8132	729412	0	0
2024-05-27 01:48:32			0	34301	0	0	0	21335	19970	147730	27093	986668	40274	107829	0	0	8134	727729	0	0
2024-05-27 01:49:32			0	34362	0	0	0	21322	19980	147439	27516	986597	40275	107824	0	0	8138	724776	0	0
2024-05-27 01:50:32			0	34389	0	0	0	21314	19970	147411	26930	986580	40263	107821	0	0	8139	723529	0	0
2024-05-27 01:51:32			0	34433	0	0	0	21314	19960	147131	27495	986651	40284	107821	0	0	8142	721476	0	0
2024-05-27 01:52:32			0	34460	0	0	0	21319	19970	147083	27046	986668	40274	107823	0	0	8143	720155	0	0
2024-05-27 01:53:32			0	34466	0	0	0	21303	19960	147011	27066	986598	40273	107817	0	0	8144	719910	0	0
2024-05-27 01:54:32			0	34480	0	0	0	21303	19950	146931	27253	986563	40273	107817	0	0	8145	719286	0	0
2024-05-27 01:55:32			0	34457	0	0	0	21311	19950	146955	27441	986536	40273	107820	0	0	8143	720376	0	0
2024-05-27 01:56:32			0	34469	0	0	0	21324	19940	147099	27008	986546	40272	107825	0	0	8144	719847	0	0
2024-05-27 01:57:32			0	34475	0	0	0	21324	19940	147107	27402	986573	40250	107825	0	0	8144	719562	0	0
2024-05-27 01:58:32			0	34464	0	0	0	21319	19940	147143	27336	986493	40272	107823	0	0	8143	720084	0	0
2024-05-27 01:59:32			0	34437	0	0	0	21322	19940	147163	27403	986493	40261	107824	0	0	8142	721366	0	0
2024-05-27 02:00:32			0	34472	0	0	0	21314	19940	147131	27246	986493	40272	107821	0	0	8144	719704	0	0
2024-05-27 02:01:32			0	34488	0	0	0	21322	19940	147095	27277	986485	40282	107824	0	0	8145	718946	0	0
2024-05-27 02:02:32			0	34510	0	0	0	21319	19930	146975	27232	986495	40270	107823	0	0	8146	717944	0	0
2024-05-27 02:03:32			0	34534	0	0	0	21319	19930	146859	27289	986529	40271	107823	0	0	8147	716808	0	0
2024-05-27 02:04:32			0	34531	0	0	0	21324	19930	146939	26908	986495	40259	107825	0	0	8147	716950	0	0
2024-05-27 02:05:32			0	34532	0	0	0	21327	19930	146815	27301	986529	40271	107826	0	0	8147	716903	0	0
2024-05-27 02:06:32			0	34505	0	0	0	21322	19930	146855	27400	986521	40259	107824	0	0	8146	718180	0	0
2024-05-27 02:07:32			0	34518	0	0	0	21332	19920	146967	27182	986486	40258	107828	0	0	8146	717604	0	0
2024-05-27 02:08:32			0	34489	0	0	0	21335	19930	147071	26965	986556	40260	107829	0	0	8145	718938	0	0
2024-05-27 02:09:32			0	34483	0	0	0	21332	19930	147039	27126	986503	40271	107828	0	0	8144	719222	0	0
2024-05-27 02:10:32			0	34501	0	0	0	21337	19920	147103	27241	986539	40269	107830	0	0	8145	718409	0	0
2024-05-27 02:11:32			0	34490	0	0	0	21337	19930	147027	27466	986521	40270	107830	0	0	8145	718891	0	0
2024-05-27 02:12:32			0	34518	0	0	0	21337	19930	146987	27015	986503	40271	107830	0	0	8146	717565	0	0
2024-05-27 02:13:32			0	34516	0	0	0	21335	19930	146975	26948	986503	40271	107829	0	0	8146	717660	0	0
2024-05-27 02:14:32			0	34490	0	0	0	21332	19930	146991	27232	986548	40270	107828	0	0	8145	718891	0	0
2024-05-27 02:15:32			0	34460	0	0	0	21329	19930	147179	27353	986503	40282	107827	0	0	8143	720313	0	0
2024-05-27 02:16:32			0	34437	0	0	0	21327	19930	147187	27402	986521	40281	107826	0	0	8142	721406	0	0
2024-05-27 02:17:32			0	34423	0	0	0	21324	19930	147335	27279	986423	40271	107825	0	0	8141	722071	0	0
2024-05-27 02:18:32			0	34419	0	0	0	21324	19930	147267	27130	986548	40270	107825	0	0	8141	722261	0	0
2024-05-27 02:19:32			0	34403	0	0	0	21337	19930	147455	27345	986468	40270	107830	0	0	8140	723022	0	0
2024-05-27 02:20:32			0	34374	0	0	0	21340	19930	147503	27211	986556	40271	107831	0	0	8138	724403	0	0
2024-05-27 02:21:32			0	34347	0	0	0	21327	19920	147634	27275	986486	40269	107826	0	0	8137	725731	0	0
2024-05-27 02:22:32			0	34304	0	0	0	21327	19910	147938	27275	986443	40281	107826	0	0	8134	727826	0	0
2024-05-27 02:23:32			0	34252	0	0	0	21327	19920	148082	27345	986610	40281	107826	0	0	8131	730277	0	0
2024-05-27 02:24:32			0	34228	0	0	0	21329	19920	148214	27400	986486	40248	107827	0	0	8130	731429	0	0
2024-05-27 02:25:32			0	34181	0	0	0	21324	19930	148162	27067	986495	40270	107825	0	0	8127	733648	0	0
2024-05-27 02:26:32			0	34194	0	0	0	21329	19920	148246	27549	986478	40269	107827	0	0	8128	733063	0	0
2024-05-27 02:27:32			0	34183	0	0	0	21329	19920	148294	27426	986592	40269	107827	0	0	8127	733592	0	0
2024-05-27 02:28:32			0	34191	0	0	0	21324	19930	148158	27178	986529	40260	107825	0	0	8128	733167	0	0
2024-05-27 02:29:32			0	34180	0	0	0	21329	19920	148334	27486	986504	40269	107827	0	0	8127	733737	0	0
2024-05-27 02:30:32			0	34183	0	0	0	21327	19920	148318	27111	986486	40281	107826	0	0	8127	733592	0	0
2024-05-27 02:31:32			0	34187	0	0	0	21324	19920	148298	27182	986425	40258	107825	0	0	8128	733400	0	0
2024-05-27 02:32:32			0	34190	0	0	0	21324	19920	148418	27656	986513	40281	107825	0	0	8128	733255	0	0
2024-05-27 02:33:32			0	34171	0	0	0	21322	19920	148262	27360	986513	40269	107824	0	0	8127	734170	0	0
2024-05-27 02:34:32			0	34204	0	0	0	21327	19920	148206	27163	986486	40281	107826	0	0	8129	732582	0	0
2024-05-27 02:35:32			0	34223	0	0	0	21319	19920	148162	27453	986486	40281	107823	0	0	8130	731669	0	0
2024-05-27 02:36:32			0	34197	0	0	0	21322	19920	148150	27431	986486	40269	107824	0	0	8128	732919	0	0
2024-05-27 02:37:32			0	34214	0	0	0	21319	19920	148198	27272	986451	40281	107823	0	0	8129	732101	0	0
2024-05-27 02:38:32			0	34221	0	0	0	21316	19920	148110	27144	986504	40281	107822	0	0	8130	731765	0	0
2024-05-27 02:39:32			0	34248	0	0	0	21319	19920	148078	27390	986486	40269	107823	0	0	8131	730469	0	0
2024-05-27 02:40:32			0	34249	0	0	0	21314	19930	147974	27614	986468	40281	107821	0	0	8131	730380	0	0
2024-05-27 02:41:32			0	34268	0	0	0	21306	19920	147934	26958	986504	40281	107818	0	0	8132	729510	0	0
2024-05-27 02:42:32			0	34287	0	0	0	21314	19920	147830	27386	986478	40269	107821	0	0	8133	728600	0	0
2024-05-27 02:43:32			0	34288	0	0	0	21314	19910	147886	27227	986488	40269	107821	0	0	8133	728592	0	0
2024-05-27 02:44:32			0	34288	0	0	0	21314	19910	147878	27150	986469	40281	107821	0	0	8133	728592	0	0
2024-05-27 02:45:32			0	34273	0	0	0	21296	19910	147774	27137	986469	40258	107814	0	0	8133	729310	0	0
2024-05-27 02:46:32			0	34300	0	0	0	21298	19910	147786	27602	986355	40280	107815	0	0	8134	728017	0	0
2024-05-27 02:47:32			0	34320	0	0	0	21298	19900	147746	27462	986347	40290	107815	0	0	8135	727101	0	0
2024-05-27 02:48:32			0	34339	0	0	0	21298	19910	147606	27625	986381	40269	107815	0	0	8137	726153	0	0
2024-05-27 02:49:32			0	34358	0	0	0	21296	19900	147455	27550	986400	40268	107814	0	0	8138	725286	0	0
2024-05-27 02:50:32			0	34358	0	0	0	21290	19900	147515	27086	986426	40279	107812	0	0	8138	725286	0	0
2024-05-27 02:51:32			0	34355	0	0	0	21288	19900	147643	27296	986400	40268	107811	0	0	8138	725429	0	0
2024-05-27 02:52:32			0	34328	0	0	0	21288	19890	147622	27429	986375	40256	107811	0	0	8136	726759	0	0
2024-05-27 02:53:32			0	34322	0	0	0	21277	19900	147686	27173	986338	40279	107807	0	0	8136	727005	0	0
2024-05-27 02:54:32			0	34326	0	0	0	21277	19890	147654	27067	986356	40279	107807	0	0	8136	726854	0	0
2024-05-27 02:55:32			0	34317	0	0	0	21267	19890	147634	27317	986321	40267	107803	0	0	8136	727284	0	0
2024-05-27 02:56:32			0	34309	0	0	0	21270	19890	147762	27268	986348	40278	107804	0	0	8135	727667	0	0
2024-05-27 02:57:32			0	34327	0	0	0	21272	19880	147774	26949	986305	40266	107805	0	0	8136	726847	0	0
2024-05-27 02:58:32			0	34312	0	0	0	21264	19890	147750	27447	986321	40267	107802	0	0	8136	727524	0	0
2024-05-27 02:59:32			0	34309	0	0	0	21262	19870	147678	27305	986270	40266	107801	0	0	8135	727747	0	0
2024-05-27 03:00:32			0	34329	0	0	0	21257	19880	147606	27443	986287	40266	107799	0	0	8137	726751	0	0
2024-05-27 03:01:32			0	34353	0	0	0	21246	19880	147611	27374	986331	40277	107795	0	0	8138	725605	0	0
2024-05-27 03:02:32			0	34356	0	0	0	21241	19880	147570	27575	986287	40266	107793	0	0	8138	725462	0	0
2024-05-27 03:03:32			0	34346	0	0	0	21231	19870	147546	27280	986217	40266	107789	0	0	8138	725979	0	0
2024-05-27 03:04:32			0	34296	0	0	0	21207	19870	147726	26866	986270	40255	107780	0	0	8136	728369	0	0
2024-05-27 03:05:32			0	34253	0	0	0	21218	19870	147978	27093	986243	40266	107784	0	0	8133	730430	0	0
2024-05-27 03:06:32			0	34218	0	0	0	21236	19860	148010	26859	986280	40264	107791	0	0	8131	732151	0	0
2024-05-27 03:07:32			0	34198	0	0	0	21244	19850	148190	26902	986210	40263	107794	0	0	8129	733153	0	0
2024-05-27 03:08:32			0	34166	0	0	0	21238	19860	148382	27237	986200	40264	107792	0	0	8128	734654	0	0
2024-05-27 03:09:32			0	34123	0	0	0	21246	19860	148478	27137	986192	40263	107795	0	0	8125	736728	0	0
2024-05-27 03:10:32			0	34114	0	0	0	21236	19860	148494	26967	986165	40263	107791	0	0	8125	737163	0	0
2024-05-27 03:11:32			0	34118	0	0	0	21236	19850	148430	27201	986236	40252	107791	0	0	8125	737010	0	0
2024-05-27 03:12:32			0	34136	0	0	0	21231	19850	148414	27130	986202	40242	107789	0	0	8126	736141	0	0
2024-05-27 03:13:32			0	34141	0	0	0	21218	19850	148390	27293	986157	40263	107784	0	0	8126	735900	0	0
2024-05-27 03:14:32			0	34090	0	0	0	21199	19850	148638	27150	986175	40252	107777	0	0	8124	738364	0	0
2024-05-27 03:15:32			0	34060	0	0	0	21202	19840	148818	27098	986140	40262	107778	0	0	8122	739858	0	0
2024-05-27 03:16:32			0	34032	0	0	0	21225	19850	148922	27303	986175	40274	107787	0	0	8120	741175	0	0
2024-05-27 03:17:32			0	34010	0	0	0	21223	19850	148962	27164	986183	40274	107786	0	0	8119	742243	0	0
2024-05-27 03:18:32			0	34009	0	0	0	21223	19850	149038	27020	986175	40263	107786	0	0	8119	742292	0	0
2024-05-27 03:19:32			0	34018	0	0	0	21212	19840	148902	27059	986193	40262	107782	0	0	8119	741895	0	0
2024-05-27 03:20:32			0	34028	0	0	0	21207	19840	148834	26987	986167	40251	107780	0	0	8120	741410	0	0
2024-05-27 03:21:32			0	34049	0	0	0	21207	19830	148782	27097	986123	40273	107780	0	0	8121	740432	0	0
2024-05-27 03:22:32			0	34057	0	0	0	21187	19820	148746	27246	986027	40250	107772	0	0	8122	740085	0	0
2024-05-27 03:23:32			0	34073	0	0	0	21153	19840	148750	27436	986025	40273	107759	0	0	8124	739228	0	0
2024-05-27 03:24:32			0	34047	0	0	0	21124	19830	148810	27083	986070	40262	107748	0	0	8123	740529	0	0
2024-05-27 03:25:32			0	33991	0	0	0	21114	19810	149026	27180	986055	40271	107744	0	0	8119	743330	0	0
2024-05-27 03:26:32			0	33976	0	0	0	21137	19810	149150	27255	985983	40260	107753	0	0	8118	744060	0	0
2024-05-27 03:27:32			0	33957	0	0	0	21161	19810	149230	27490	985975	40260	107762	0	0	8117	744986	0	0
2024-05-27 03:28:32			0	33959	0	0	0	21132	19820	149234	27185	986018	40249	107751	0	0	8117	744847	0	0
2024-05-27 03:29:32			0	33980	0	0	0	21132	19800	149118	27069	985993	40237	107751	0	0	8118	743907	0	0
2024-05-27 03:30:32			0	34002	0	0	0	21129	19810	148974	27244	985922	40260	107750	0	0	8120	742795	0	0
2024-05-27 03:31:32			0	34024	0	0	0	21106	19800	148890	27199	985940	40259	107741	0	0	8121	741767	0	0
2024-05-27 03:32:32			0	34045	0	0	0	21080	19800	148782	27306	985905	40248	107731	0	0	8123	740748	0	0
2024-05-27 03:33:32			0	34029	0	0	0	21070	19790	148890	26866	985889	40247	107727	0	0	8122	741565	0	0
2024-05-27 03:34:32			0	33990	0	0	0	21064	19780	149030	27187	985872	40246	107725	0	0	8120	743502	0	0
2024-05-27 03:35:32			0	33969	0	0	0	21067	19780	149110	27334	985792	40246	107726	0	0	8119	744524	0	0
2024-05-27 03:36:32			0	33976	0	0	0	21083	19770	148982	27374	985731	40255	107732	0	0	8119	744224	0	0
2024-05-27 03:37:32			0	34012	0	0	0	21075	19760	149078	27258	985847	40255	107729	0	0	8121	742514	0	0
2024-05-27 03:38:32			0	34006	0	0	0	21064	19760	149034	27092	985767	40267	107725	0	0	8121	742805	0	0
2024-05-27 03:39:32			0	34005	0	0	0	21064	19760	149010	27241	985785	40244	107725	0	0	8121	742854	0	0
2024-05-27 03:40:32			0	34004	0	0	0	21085	19760	149034	27241	985759	40244	107733	0	0	8120	742903	0	0
2024-05-27 03:41:32			0	33967	0	0	0	21080	19760	149182	27267	985732	40233	107731	0	0	8118	744704	0	0
2024-05-27 03:42:32			0	33922	0	0	0	21064	19760	149218	27360	985706	40254	107725	0	0	8116	746898	0	0
2024-05-27 03:43:32			0	33888	0	0	0	21067	19750	149530	27197	985742	40243	107726	0	0	8114	748601	0	0
2024-05-27 03:44:32			0	33833	0	0	0	21067	19740	149654	27138	985654	40243	107726	0	0	8111	751337	0	0
2024-05-27 03:45:32			0	33771	0	0	0	21064	19740	149986	27339	985646	40231	107725	0	0	8107	754384	0	0
2024-05-27 03:46:32			0	33713	0	0	0	21051	19730	150310	27270	985603	40218	107720	0	0	8104	757285	0	0
2024-05-27 03:47:32			0	33671	0	0	0	21051	19720	150458	27024	985612	40229	107720	0	0	8102	759402	0	0
2024-05-27 03:48:32			0	33642	0	0	0	21036	19720	150622	26939	985612	40251	107714	0	0	8100	760839	0	0
2024-05-27 03:49:32			0	33629	0	0	0	21041	19720	150682	27196	985586	40241	107716	0	0	8099	761483	0	0
2024-05-27 03:50:32			0	33651	0	0	0	21036	19710	150694	27215	985577	40229	107714	0	0	8101	760435	0	0
2024-05-27 03:51:32			0	33627	0	0	0	21038	19710	150730	27336	985569	40228	107715	0	0	8099	761624	0	0
2024-05-27 03:52:32			0	33614	0	0	0	21041	19710	150778	26892	985551	40229	107716	0	0	8098	762269	0	0
2024-05-27 03:53:32			0	33602	0	0	0	21059	19710	150962	27272	985551	40229	107723	0	0	8097	762865	0	0
2024-05-27 03:54:32			0	33591	0	0	0	21059	19710	151006	27067	985516	40239	107723	0	0	8097	763412	0	0
2024-05-27 03:55:32			0	33578	0	0	0	21070	19700	151034	26994	985579	40239	107727	0	0	8096	764100	0	0
2024-05-27 03:56:32			0	33620	0	0	0	21080	19710	150814	27242	985569	40239	107731	0	0	8098	761972	0	0
2024-05-27 03:57:32			0	33690	0	0	0	21080	19710	150434	27059	985657	40250	107731	0	0	8102	758505	0	0
2024-05-27 03:58:32			0	33818	0	0	0	21077	19710	149942	27074	985595	40228	107730	0	0	8110	752197	0	0
2024-05-27 03:59:32			0	33948	0	0	0	21085	19720	149310	27265	985639	40229	107733	0	0	8117	745794	0	0
2024-05-27 04:00:32			0	34051	0	0	0	21083	19710	148786	27249	985604	40240	107732	0	0	8123	740824	0	0
2024-05-27 04:01:32			0	34174	0	0	0	21067	19700	148326	27144	985587	40250	107726	0	0	8130	734916	0	0
2024-05-27 04:02:32			0	34244	0	0	0	21067	19720	147938	27083	985586	40241	107726	0	0	8134	731466	0	0
2024-05-27 04:03:32			0	34290	0	0	0	21064	19720	147750	27298	985586	40241	107725	0	0	8137	729259	0	0
2024-05-27 04:04:32			0	34298	0	0	0	21075	19710	147706	27185	985551	40240	107729	0	0	8137	728916	0	0
2024-05-27 04:05:32			0	34317	0	0	0	21088	19700	147754	27119	985534	40239	107734	0	0	8138	728046	0	0
2024-05-27 04:06:32			0	34299	0	0	0	21090	19710	147718	26892	985577	40229	107735	0	0	8137	728868	0	0
2024-05-27 04:07:32			0	34303	0	0	0	21088	19710	147714	27384	985595	40239	107734	0	0	8137	728676	0	0
2024-05-27 04:08:32			0	34308	0	0	0	21090	19710	147798	27471	985595	40239	107735	0	0	8137	728437	0	0
2024-05-27 04:09:32			0	34273	0	0	0	21080	19710	147926	27163	985648	40239	107731	0	0	8136	730114	0	0
2024-05-27 04:10:32			0	34239	0	0	0	21075	19710	148050	27428	985604	40240	107729	0	0	8134	731747	0	0
2024-05-27 04:11:32			0	34217	0	0	0	21080	19710	148146	27483	985604	40240	107731	0	0	8132	732804	0	0
2024-05-27 04:12:32			0	34149	0	0	0	21025	19710	148322	27488	985648	40228	107710	0	0	8130	736081	0	0
2024-05-27 04:13:32			0	34101	0	0	0	20958	19700	148558	27559	985481	40239	107684	0	0	8128	738442	0	0
2024-05-27 04:14:32			0	34083	0	0	0	20942	19710	148594	27464	985569	40239	107678	0	0	8127	739273	0	0
2024-05-27 04:15:32			0	34070	0	0	0	20948	19690	148778	27414	985517	40238	107680	0	0	8126	739984	0	0
2024-05-27 04:16:32			0	34014	0	0	0	20992	19710	149002	27777	985516	40239	107697	0	0	8122	742621	0	0
2024-05-27 04:17:32			0	33965	0	0	0	20924	19690	149238	27514	985491	40238	107671	0	0	8121	745088	0	0
2024-05-27 04:18:32			0	33897	0	0	0	20953	19700	149530	27164	985499	40239	107682	0	0	8116	748367	0	0
2024-05-27 04:19:32			0	33837	0	0	0	20955	19690	149642	27528	985509	40248	107683	0	0	8113	751348	0	0
2024-05-27 04:20:32			0	33811	0	0	0	20940	19690	149842	27476	985464	40227	107677	0	0	8111	752624	0	0
2024-05-27 04:21:32			0	33784	0	0	0	20896	19690	150034	27223	985491	40227	107660	0	0	8111	753952	0	0
2024-05-27 04:22:32			0	33753	0	0	0	20854	19690	150066	27298	985464	40227	107644	0	0	8110	755478	0	0
2024-05-27 04:23:32			0	33700	0	0	0	20883	19690	150202	26906	985403	40237	107655	0	0	8106	758094	0	0
2024-05-27 04:24:32			0	33668	0	0	0	20851	19670	150446	27225	985298	40236	107643	0	0	8105	759760	0	0
2024-05-27 04:25:32			0	33625	0	0	0	20823	19680	150582	27093	985360	40226	107632	0	0	8103	761849	0	0
2024-05-27 04:26:32			0	33609	0	0	0	20812	19660	150746	27320	985175	40212	107628	0	0	8102	762727	0	0
2024-05-27 04:27:32			0	33585	0	0	0	20781	19640	150842	27183	985124	40211	107616	0	0	8101	764004	0	0
2024-05-27 04:28:32			0	33566	0	0	0	20763	19630	150901	27069	984993	40200	107609	0	0	8100	764992	0	0
2024-05-27 04:29:32			0	33563	0	0	0	20732	19610	150945	27476	984933	40209	107597	0	0	8100	765225	0	0
2024-05-27 04:30:32			0	33553	0	0	0	20716	19590	151041	27379	984907	40208	107591	0	0	8100	765807	0	0
2024-05-27 04:31:32			0	33544	0	0	0	20706	19580	151049	27403	984838	40207	107587	0	0	8099	766298	0	0
2024-05-27 04:32:32			0	33564	0	0	0	20742	19570	150961	27479	984847	40206	107601	0	0	8100	765344	0	0
2024-05-27 04:33:32			0	33601	0	0	0	20737	19560	150910	27552	984822	40204	107599	0	0	8102	763545	0	0
2024-05-27 04:34:32			0	33636	0	0	0	20724	19570	150650	27170	984847	40195	107594	0	0	8104	761765	0	0
2024-05-27 04:35:32			0	33685	0	0	0	20737	19560	150542	27372	984831	40194	107599	0	0	8107	759378	0	0
2024-05-27 04:36:32			0	33692	0	0	0	20768	19560	150510	27123	984902	40193	107611	0	0	8107	759032	0	0
2024-05-27 04:37:32			0	33704	0	0	0	20776	19550	150366	27443	984867	40192	107614	0	0	8107	758480	0	0
2024-05-27 04:38:32			0	33701	0	0	0	20750	19550	150418	27488	984840	40214	107604	0	0	8108	758628	0	0
2024-05-27 04:39:32			0	33718	0	0	0	20766	19550	150302	27504	984867	40203	107610	0	0	8108	757788	0	0
2024-05-27 04:40:32			0	33711	0	0	0	20792	19550	150378	27438	984859	40214	107620	0	0	8108	758134	0	0
2024-05-27 04:41:32			0	33690	0	0	0	20771	19550	150462	27265	984912	40203	107612	0	0	8107	759173	0	0
2024-05-27 04:42:32			0	33669	0	0	0	20768	19560	150590	27306	984902	40204	107611	0	0	8106	760170	0	0
2024-05-27 04:43:32			0	33625	0	0	0	20758	19540	150714	27275	984797	40191	107607	0	0	8103	762436	0	0
2024-05-27 04:44:32			0	33574	0	0	0	20758	19530	150921	27303	984780	40179	107607	0	0	8100	765014	0	0
2024-05-27 04:45:32			0	33552	0	0	0	20740	19530	151125	26984	984666	40202	107600	0	0	8099	766110	0	0
2024-05-27 04:46:32			0	33488	0	0	0	20729	19520	151377	27351	984604	40190	107596	0	0	8095	769348	0	0
2024-05-27 04:47:32			0	33449	0	0	0	20714	19500	151641	27379	984510	40188	107590	0	0	8093	771386	0	0
2024-05-27 04:48:32			0	33425	0	0	0	20711	19480	151833	27199	984432	40175	107589	0	0	8092	772674	0	0
2024-05-27 04:49:32			0	33378	0	0	0	20709	19480	152021	27185	984432	40175	107588	0	0	8089	775037	0	0
2024-05-27 04:50:32			0	33335	0	0	0	20714	19460	152089	27187	984336	40183	107590	0	0	8086	777288	0	0
2024-05-27 04:51:32			0	33304	0	0	0	20714	19450	152313	27281	984355	40195	107590	0	0	8085	778896	0	0
2024-05-27 04:52:32			0	33289	0	0	0	20706	19450	152445	27225	984408	40183	107587	0	0	8084	779654	0	0
2024-05-27 04:53:32			0	33240	0	0	0	20719	19450	152577	27086	984346	40194	107592	0	0	8081	782135	0	0
2024-05-27 04:54:32			0	33231	0	0	0	20716	19430	152781	27149	984313	40170	107591	0	0	8080	782678	0	0
2024-05-27 04:55:32			0	33213	0	0	0	20696	19440	152829	27066	984356	40182	107583	0	0	8079	783548	0	0
2024-05-27 04:56:32			0	33223	0	0	0	20683	19430	152793	27352	984260	40181	107578	0	0	8080	783084	0	0
2024-05-27 04:57:32			0	33212	0	0	0	20677	19420	152857	27410	984198	40192	107576	0	0	8080	783685	0	0
2024-05-27 04:58:32			0	33193	0	0	0	20683	19400	152933	26949	984112	40179	107578	0	0	8078	784737	0	0
2024-05-27 04:59:32			0	33202	0	0	0	20654	19400	152857	26915	984077	40178	107567	0	0	8079	784280	0	0
2024-05-27 05:00:32			0	33208	0	0	0	20641	19390	152869	27112	984060	40177	107562	0	0	8080	784018	0	0
2024-05-27 05:01:32			0	33216	0	0	0	20644	19360	152873	26956	984027	40175	107563	0	0	8080	783741	0	0
2024-05-27 05:02:32			0	33189	0	0	0	20638	19360	152913	27348	983966	40164	107561	0	0	8079	785113	0	0
2024-05-27 05:03:32			0	33190	0	0	0	20646	19350	152889	26838	983949	40164	107564	0	0	8078	785105	0	0
2024-05-27 05:04:32			0	33195	0	0	0	20709	19350	153009	27090	984010	40186	107588	0	0	8078	784851	0	0
2024-05-27 05:05:32			0	33181	0	0	0	20685	19350	153013	27185	984010	40175	107579	0	0	8077	785563	0	0
2024-05-27 05:06:32			0	33183	0	0	0	20646	19340	153077	27194	983887	40173	107564	0	0	8078	785504	0	0
2024-05-27 05:07:32			0	33155	0	0	0	20623	19330	153017	27303	983924	40163	107555	0	0	8077	786974	0	0
2024-05-27 05:08:32			0	33200	0	0	0	20605	19320	152849	27293	983854	40171	107548	0	0	8080	784726	0	0
2024-05-27 05:09:32			0	33260	0	0	0	20594	19310	152769	27466	983837	40182	107544	0	0	8083	781723	0	0
2024-05-27 05:10:32			0	33293	0	0	0	20599	19300	152549	27412	983688	40159	107546	0	0	8085	780095	0	0
2024-05-27 05:11:32			0	33328	0	0	0	20594	19300	152317	27107	983733	40180	107544	0	0	8087	778326	0	0
2024-05-27 05:12:32			0	33387	0	0	0	20592	19290	152109	27300	983777	40169	107543	0	0	8091	775393	0	0
2024-05-27 05:13:32			0	33416	0	0	0	20592	19290	151985	27294	983751	40180	107543	0	0	8092	773934	0	0
2024-05-27 05:14:32			0	33461	0	0	0	20592	19280	151773	27013	983673	40156	107543	0	0	8095	771717	0	0
2024-05-27 05:15:32			0	33497	0	0	0	20589	19290	151541	27222	983689	40158	107542	0	0	8097	769870	0	0
2024-05-27 05:16:32			0	33576	0	0	0	20579	19280	151270	27263	983708	40190	107538	0	0	8102	765966	0	0
2024-05-27 05:17:32			0	33629	0	0	0	20574	19270	151058	26975	983691	40167	107536	0	0	8105	763370	0	0
2024-05-27 05:18:32			0	33684	0	0	0	20586	19270	150866	27286	983762	40167	107541	0	0	8108	760639	0	0
2024-05-27 05:19:32			0	33727	0	0	0	20602	19280	150482	26906	983761	40190	107547	0	0	8110	758468	0	0
2024-05-27 05:20:32			0	33759	0	0	0	20618	19280	150390	27046	983779	40189	107553	0	0	8112	756887	0	0
2024-05-27 05:21:32			0	33807	0	0	0	20623	19290	150182	27416	983848	40191	107555	0	0	8115	754478	0	0
2024-05-27 05:22:32			0	33845	0	0	0	20628	19290	150090	26913	983822	40180	107557	0	0	8117	752609	0	0
2024-05-27 05:23:32			0	33858	0	0	0	20651	19300	149870	27112	983892	40192	107566	0	0	8117	751928	0	0
2024-05-27 05:24:32			0	33881	0	0	0	20667	19300	149838	27322	983918	40192	107572	0	0	8118	750799	0	0
2024-05-27 05:25:32			0	33888	0	0	0	20667	19300	149758	27097	983953	40169	107572	0	0	8119	750456	0	0
2024-05-27 05:26:32			0	33895	0	0	0	20654	19320	149818	27177	983978	40193	107567	0	0	8119	750030	0	0
2024-05-27 05:27:32			0	33881	0	0	0	20670	19290	149862	27144	983910	40169	107573	0	0	8118	750841	0	0
2024-05-27 05:28:32			0	33847	0	0	0	20701	19310	149986	27090	983917	40182	107585	0	0	8116	752428	0	0
2024-05-27 05:29:32			0	33777	0	0	0	20711	19320	150234	27027	983952	40182	107589	0	0	8112	755832	0	0
2024-05-27 05:30:32			0	33722	0	0	0	20719	19330	150554	27455	984101	40183	107592	0	0	8108	758507	0	0
2024-05-27 05:31:32			0	33633	0	0	0	20696	19330	150974	27229	984048	40194	107583	0	0	8104	762919	0	0
2024-05-27 05:32:32			0	33572	0	0	0	20737	19340	151333	27242	984126	40195	107599	0	0	8099	765913	0	0
2024-05-27 05:33:32			0	33485	0	0	0	20784	19340	151681	27322	984152	40184	107617	0	0	8093	770260	0	0
2024-05-27 05:34:32			0	33456	0	0	0	20799	19350	151917	27407	984222	40208	107623	0	0	8092	771671	0	0
2024-05-27 05:35:32			0	33458	0	0	0	20786	19360	151805	27398	984213	40187	107618	0	0	8092	771528	0	0
2024-05-27 05:36:32			0	33463	0	0	0	20774	19370	151717	27320	984221	40208	107613	0	0	8093	771235	0	0
2024-05-27 05:37:32			0	33425	0	0	0	20786	19360	151933	27272	984266	40208	107618	0	0	8090	773184	0	0
2024-05-27 05:38:32			0	33366	0	0	0	20786	19370	152201	27156	984247	40187	107618	0	0	8087	776110	0	0
2024-05-27 05:39:32			0	33342	0	0	0	20763	19370	152289	26925	984141	40187	107609	0	0	8086	777320	0	0
2024-05-27 05:40:32			0	33311	0	0	0	20766	19380	152381	27260	984203	40187	107610	0	0	8084	778842	0	0
2024-05-27 05:41:32			0	33261	0	0	0	20789	19380	152705	27182	984238	40200	107619	0	0	8080	781372	0	0
2024-05-27 05:42:32			0	33210	0	0	0	20794	19390	152905	27248	984272	40200	107621	0	0	8077	783916	0	0
2024-05-27 05:43:32			0	33142	0	0	0	20784	19390	153133	27050	984246	40210	107617	0	0	8073	787377	0	0
2024-05-27 05:44:32			0	33087	0	0	0	20781	19370	153357	27152	984247	40175	107616	0	0	8070	790272	0	0
2024-05-27 05:45:32			0	33029	0	0	0	20779	19390	153601	27267	984219	40200	107615	0	0	8067	793155	0	0
2024-05-27 05:46:32			0	32999	0	0	0	20771	19390	153773	26937	984246	40188	107612	0	0	8065	794695	0	0
2024-05-27 05:47:32			0	32978	0	0	0	20774	19390	153961	27066	984246	40200	107613	0	0	8064	795775	0	0
2024-05-27 05:48:32			0	32981	0	0	0	20779	19390	153949	27022	984201	40200	107615	0	0	8064	795620	0	0
2024-05-27 05:49:32			0	33010	0	0	0	20763	19390	153797	27010	984219	40210	107609	0	0	8066	794130	0	0
2024-05-27 05:50:32			0	33075	0	0	0	20761	19380	153429	27159	984211	40200	107608	0	0	8070	790842	0	0
2024-05-27 05:51:32			0	33128	0	0	0	20750	19380	153141	27232	984176	40199	107604	0	0	8073	788134	0	0
2024-05-27 05:52:32			0	33192	0	0	0	20750	19360	152929	27248	984133	40198	107604	0	0	8077	784960	0	0
2024-05-27 05:53:32			0	33242	0	0	0	20745	19360	152829	27138	984186	40198	107602	0	0	8080	782421	0	0
2024-05-27 05:54:32			0	33290	0	0	0	20740	19370	152497	27000	984141	40198	107600	0	0	8083	779947	0	0
2024-05-27 05:55:32			0	33354	0	0	0	20737	19360	152141	27464	984133	40187	107599	0	0	8087	776757	0	0
2024-05-27 05:56:32			0	33405	0	0	0	20735	19360	151929	26928	984125	40197	107598	0	0	8090	774189	0	0
2024-05-27 05:57:32			0	33453	0	0	0	20737	19360	151677	26852	984080	40198	107599	0	0	8093	771779	0	0
2024-05-27 05:58:32			0	33474	0	0	0	20724	19350	151653	27359	984108	40196	107594	0	0	8094	770769	0	0
2024-05-27 05:59:32			0	33475	0	0	0	20740	19350	151745	27170	984063	40208	107600	0	0	8094	770718	0	0
2024-05-27 06:00:32			0	33437	0	0	0	20729	19350	151829	27400	984063	40186	107596	0	0	8092	772624	0	0
2024-05-27 06:01:32			0	33403	0	0	0	20732	19350	151941	27182	984055	40196	107597	0	0	8090	774332	0	0
2024-05-27 06:02:32			0	33379	0	0	0	20727	19360	152061	27450	984072	40208	107595	0	0	8088	775498	0	0
2024-05-27 06:03:32			0	33334	0	0	0	20709	19360	152145	27270	984072	40197	107588	0	0	8086	777766	0	0
2024-05-27 06:04:32			0	33332	0	0	0	20714	19350	152209	27124	984081	40196	107590	0	0	8086	777910	0	0
2024-05-27 06:05:32			0	33338	0	0	0	20696	19350	152169	26842	984028	40207	107583	0	0	8086	777607	0	0
2024-05-27 06:06:32			0	33359	0	0	0	20680	19350	152093	27225	984055	40185	107577	0	0	8088	776548	0	0
2024-05-27 06:07:32			0	33368	0	0	0	20667	19350	151985	27280	984055	40196	107572	0	0	8089	776094	0	0
2024-05-27 06:08:32			0	33406	0	0	0	20646	19340	151921	27410	984011	40206	107564	0	0	8091	774224	0	0
2024-05-27 06:09:32			0	33404	0	0	0	20659	19340	151897	27310	983958	40184	107569	0	0	8091	774325	0	0
2024-05-27 06:10:32			0	33405	0	0	0	20646	19320	151845	26987	983907	40182	107564	0	0	8091	774360	0	0
2024-05-27 06:11:32			0	33363	0	0	0	20623	19330	151985	26994	983889	40183	107555	0	0	8089	776432	0	0
2024-05-27 06:12:32			0	33347	0	0	0	20620	19320	152181	27429	983846	40171	107554	0	0	8088	777281	0	0
2024-05-27 06:13:32			0	33341	0	0	0	20610	19310	152253	27015	983829	40181	107550	0	0	8088	777626	0	0
2024-05-27 06:14:32			0	33321	0	0	0	20615	19300	152281	26797	983786	40203	107552	0	0	8087	778679	0	0
2024-05-27 06:15:32			0	33343	0	0	0	20599	19300	152249	27370	983759	40169	107546	0	0	8088	777568	0	0
2024-05-27 06:16:32			0	33327	0	0	0	20592	19290	152293	27178	983751	40180	107543	0	0	8087	778419	0	0
2024-05-27 06:17:32			0	33339	0	0	0	20584	19280	152261	27293	983734	40190	107540	0	0	8088	777855	0	0
2024-05-27 06:18:32			0	33375	0	0	0	20555	19270	152109	26909	983638	40167	107529	0	0	8091	776083	0	0
2024-05-27 06:19:32			0	33367	0	0	0	20545	19270	152133	27026	983611	40167	107525	0	0	8090	776486	0	0
2024-05-27 06:20:32			0	33380	0	0	0	20537	19260	152037	27149	983586	40166	107522	0	0	8091	775873	0	0
2024-05-27 06:21:32			0	33376	0	0	0	20535	19250	151965	27083	983596	40187	107521	0	0	8091	776117	0	0
2024-05-27 06:22:32			0	33358	0	0	0	20558	19240	152125	26765	983588	40175	107530	0	0	8089	777067	0	0
2024-05-27 06:23:32			0	33340	0	0	0	20651	19230	152309	27235	983624	40174	107566	0	0	8087	778019	0	0
2024-05-27 06:24:32			0	33306	0	0	0	20677	19250	152469	26998	983711	40187	107576	0	0	8084	779651	0	0
2024-05-27 06:25:32			0	33283	0	0	0	20680	19250	152601	27173	983764	40187	107577	0	0	8083	780815	0	0
2024-05-27 06:26:32			0	33337	0	0	0	20664	19260	152329	26944	983745	40187	107571	0	0	8086	778042	0	0
2024-05-27 06:27:32			0	33450	0	0	0	20672	19270	151741	26856	983762	40200	107574	0	0	8093	772311	0	0
2024-05-27 06:28:32			0	33612	0	0	0	20683	19270	151022	27142	983770	40200	107578	0	0	8102	764215	0	0
2024-05-27 06:29:32			0	33709	0	0	0	20688	19260	150522	27020	983798	40176	107580	0	0	8108	759442	0	0
2024-05-27 06:30:32			0	33781	0	0	0	20693	19280	150174	27554	983805	40200	107582	0	0	8112	755801	0	0
2024-05-27 06:31:32			0	33885	0	0	0	20703	19280	149858	27177	983840	40201	107586	0	0	8118	750686	0	0
2024-05-27 06:32:32			0	33886	0	0	0	20696	19280	149834	27360	983814	40190	107583	0	0	8118	750637	0	0
2024-05-27 06:33:32			0	33866	0	0	0	20696	19280	149922	27133	983814	40201	107583	0	0	8117	751618	0	0
2024-05-27 06:34:32			0	33833	0	0	0	20696	19280	149914	27000	983840	40190	107583	0	0	8115	753240	0	0
2024-05-27 06:35:32			0	33784	0	0	0	20683	19280	150190	27265	983858	40210	107578	0	0	8112	755653	0	0
2024-05-27 06:36:32			0	33770	0	0	0	20693	19290	150258	27183	983848	40180	107582	0	0	8111	756302	0	0
2024-05-27 06:37:32			0	33776	0	0	0	20688	19290	150138	26916	983857	40192	107580	0	0	8112	756006	0	0
2024-05-27 06:38:32			0	33755	0	0	0	20675	19290	150306	27045	983795	40180	107575	0	0	8111	757043	0	0
2024-05-27 06:39:32			0	33774	0	0	0	20664	19280	150246	27265	983840	40179	107571	0	0	8112	756147	0	0
2024-05-27 06:40:32			0	33757	0	0	0	20670	19290	150358	27088	983830	40192	107573	0	0	8111	756944	0	0
2024-05-27 06:41:32			0	33668	0	0	0	20677	19290	150826	27027	983769	40191	107576	0	0	8106	761349	0	0
2024-05-27 06:42:32			0	33553	0	0	0	20664	19280	151101	26994	983787	40190	107571	0	0	8099	767113	0	0
2024-05-27 06:43:32			0	33476	0	0	0	20662	19280	151601	26845	983814	40201	107570	0	0	8095	770965	0	0
2024-05-27 06:44:32			0	33400	0	0	0	20672	19280	151845	27005	983805	40189	107574	0	0	8090	774781	0	0
2024-05-27 06:45:32			0	33370	0	0	0	20680	19280	152141	27182	983840	40190	107577	0	0	8088	776292	0	0
2024-05-27 06:46:32			0	33283	0	0	0	20664	19270	152425	27069	983762	40189	107571	0	0	8083	780729	0	0
2024-05-27 06:47:32			0	33239	0	0	0	20662	19270	152737	27105	983815	40189	107570	0	0	8081	782960	0	0
2024-05-27 06:48:32			0	33209	0	0	0	20657	19270	153017	27088	983823	40189	107568	0	0	8079	784484	0	0
2024-05-27 06:49:32			0	33157	0	0	0	20651	19280	153277	27215	983787	40179	107566	0	0	8076	787088	0	0
2024-05-27 06:50:32			0	33154	0	0	0	20654	19280	153301	27154	983752	40189	107567	0	0	8076	787241	0	0
2024-05-27 06:51:32			0	33119	0	0	0	20646	19270	153265	27010	983744	40200	107564	0	0	8074	789070	0	0
2024-05-27 06:52:32			0	33114	0	0	0	20651	19260	153321	27256	983701	40188	107566	0	0	8073	789369	0	0
2024-05-27 06:53:32			0	33119	0	0	0	20651	19270	153277	27171	983823	40189	107566	0	0	8074	789070	0	0
2024-05-27 06:54:32			0	33125	0	0	0	20659	19270	153289	27201	983770	40189	107569	0	0	8074	788763	0	0
2024-05-27 06:55:32			0	33146	0	0	0	20667	19270	153237	27345	983736	40178	107572	0	0	8075	787692	0	0
2024-05-27 06:56:32			0	33170	0	0	0	20662	19260	153193	26960	983727	40199	107570	0	0	8077	786512	0	0
2024-05-27 06:57:32			0	33166	0	0	0	20664	19280	153073	27147	983805	40189	107571	0	0	8076	786629	0	0
2024-05-27 06:58:32			0	33187	0	0	0	20654	19270	152957	27026	983762	40189	107567	0	0	8078	785603	0	0
2024-05-27 06:59:32			0	33178	0	0	0	20659	19270	152893	27369	983762	40189	107569	0	0	8077	786061	0	0
2024-05-27 07:00:32			0	33205	0	0	0	20651	19270	152833	27168	983815	40200	107566	0	0	8079	784687	0	0
2024-05-27 07:01:32			0	33227	0	0	0	20662	19270	152805	27183	983797	40200	107570	0	0	8080	783569	0	0
2024-05-27 07:02:32			0	33216	0	0	0	20675	19280	152881	27034	983779	40189	107575	0	0	8079	784085	0	0
2024-05-27 07:03:32			0	33232	0	0	0	20672	19270	152697	26967	983770	40200	107574	0	0	8080	783316	0	0
2024-05-27 07:04:32			0	33262	0	0	0	20670	19280	152529	27336	983761	40190	107573	0	0	8082	781751	0	0
2024-05-27 07:05:32			0	33295	0	0	0	20667	19270	152469	27419	983823	40189	107572	0	0	8084	780122	0	0
2024-05-27 07:06:32			0	33328	0	0	0	20672	19280	152409	27322	983779	40200	107574	0	0	8086	778411	0	0
2024-05-27 07:07:32			0	33364	0	0	0	20675	19280	152193	27438	983840	40201	107575	0	0	8088	776594	0	0
2024-05-27 07:08:32			0	33392	0	0	0	20670	19280	152005	27161	983832	40189	107573	0	0	8090	775184	0	0
2024-05-27 07:09:32			0	33406	0	0	0	20675	19280	151913	27199	983779	40200	107575	0	0	8090	774479	0	0
2024-05-27 07:10:32			0	33394	0	0	0	20670	19280	151913	27500	983858	40189	107573	0	0	8090	775083	0	0
2024-05-27 07:11:32			0	33369	0	0	0	20672	19290	152085	27121	983848	40191	107574	0	0	8088	776300	0	0
2024-05-27 07:12:32			0	33338	0	0	0	20683	19280	152181	27543	983840	40201	107578	0	0	8086	777906	0	0
2024-05-27 07:13:32			0	33322	0	0	0	20683	19290	152333	27353	983822	40212	107578	0	0	8085	778671	0	0
2024-05-27 07:14:32			0	33278	0	0	0	20672	19280	152521	27249	983840	40179	107574	0	0	8083	780940	0	0
2024-05-27 07:15:32			0	33266	0	0	0	20683	19280	152597	27168	983814	40190	107578	0	0	8082	781548	0	0
2024-05-27 07:16:32			0	33268	0	0	0	20683	19280	152625	27421	983867	40201	107578	0	0	8082	781446	0	0
2024-05-27 07:17:32			0	33280	0	0	0	20677	19290	152469	27459	983875	40191	107576	0	0	8083	780796	0	0
2024-05-27 07:18:32			0	33277	0	0	0	20688	19280	152477	27322	983885	40189	107580	0	0	8083	780990	0	0
2024-05-27 07:19:32			0	33300	0	0	0	20680	19290	152429	27350	983830	40192	107577	0	0	8084	779784	0	0
2024-05-27 07:20:32			0	33282	0	0	0	20685	19280	152445	27258	983840	40201	107579	0	0	8083	780737	0	0
2024-05-27 07:21:32			0	33284	0	0	0	20685	19280	152477	27229	983840	40190	107579	0	0	8083	780636	0	0
2024-05-27 07:22:32			0	33286	0	0	0	20685	19290	152497	27414	983848	40191	107579	0	0	8083	780492	0	0
2024-05-27 07:23:32			0	33282	0	0	0	20690	19290	152465	27388	983883	40203	107581	0	0	8083	780694	0	0
2024-05-27 07:24:32			0	33287	0	0	0	20690	19290	152517	27171	983830	40203	107581	0	0	8083	780441	0	0
2024-05-27 07:25:32			0	33277	0	0	0	20688	19290	152489	27301	983857	40180	107580	0	0	8083	780948	0	0
2024-05-27 07:26:32			0	33274	0	0	0	20688	19290	152525	27490	983857	40203	107580	0	0	8082	781100	0	0
2024-05-27 07:27:32			0	33288	0	0	0	20701	19300	152473	27222	983927	40192	107585	0	0	8083	780348	0	0
2024-05-27 07:28:32			0	33303	0	0	0	20703	19300	152449	27313	983900	40203	107586	0	0	8084	779589	0	0
2024-05-27 07:29:32			0	33288	0	0	0	20698	19290	152485	27156	983936	40224	107584	0	0	8083	780391	0	0
2024-05-27 07:30:32			0	33302	0	0	0	20709	19300	152401	27277	983953	40192	107588	0	0	8084	779640	0	0
2024-05-27 07:31:32			0	33317	0	0	0	20703	19300	152325	27168	983945	40213	107586	0	0	8085	778881	0	0
2024-05-27 07:32:32			0	33355	0	0	0	20711	19300	152133	27403	983953	40192	107589	0	0	8087	776963	0	0
2024-05-27 07:33:32			0	33391	0	0	0	20714	19320	151921	27196	983952	40182	107590	0	0	8089	775064	0	0
2024-05-27 07:34:32			0	33477	0	0	0	20706	19310	151557	27414	983961	40193	107587	0	0	8094	770788	0	0
2024-05-27 07:35:32			0	33513	0	0	0	20698	19310	151385	27455	983935	40204	107584	0	0	8096	768985	0	0
2024-05-27 07:36:32			0	33542	0	0	0	20698	19310	151209	27251	983996	40193	107584	0	0	8098	767536	0	0
2024-05-27 07:37:32			0	33576	0	0	0	20709	19300	151062	27460	983953	40192	107588	0	0	8100	765882	0	0
2024-05-27 07:38:32			0	33583	0	0	0	20709	19310	151094	27450	983961	40204	107588	0	0	8100	765491	0	0
2024-05-27 07:39:32			0	33586	0	0	0	20724	19310	151030	27607	983970	40205	107594	0	0	8100	765342	0	0
2024-05-27 07:40:32			0	33604	0	0	0	20711	19310	150998	27485	983917	40193	107589	0	0	8102	764445	0	0
2024-05-27 07:41:32			0	33603	0	0	0	20729	19310	150942	27187	984023	40205	107596	0	0	8101	764495	0	0
2024-05-27 07:42:32			0	33622	0	0	0	20732	19320	150890	27364	984005	40193	107597	0	0	8102	763508	0	0
2024-05-27 07:43:32			0	33622	0	0	0	20735	19320	150978	27225	984058	40205	107598	0	0	8102	763508	0	0
2024-05-27 07:44:32			0	33611	0	0	0	20732	19320	150938	27405	984092	40215	107597	0	0	8102	764055	0	0
2024-05-27 07:45:32			0	33616	0	0	0	20737	19320	150990	27150	984013	40205	107599	0	0	8102	763806	0	0
2024-05-27 07:46:32			0	33602	0	0	0	20740	19330	151018	27057	984074	40206	107600	0	0	8101	764461	0	0
2024-05-27 07:47:32			0	33577	0	0	0	20745	19330	151121	27178	984056	40195	107602	0	0	8099	765706	0	0
2024-05-27 07:48:32			0	33563	0	0	0	20740	19330	151053	27351	984030	40206	107600	0	0	8099	766404	0	0
2024-05-27 07:49:32			0	33585	0	0	0	20732	19330	151130	27157	984109	40195	107597	0	0	8100	765307	0	0
2024-05-27 07:50:32			0	33573	0	0	0	20740	19340	151085	27209	984064	40217	107600	0	0	8099	765863	0	0
2024-05-27 07:51:32			0	33573	0	0	0	20732	19330	151078	27807	984030	40206	107597	0	0	8099	765905	0	0
2024-05-27 07:52:32			0	33579	0	0	0	20742	19340	151010	27298	984038	40217	107601	0	0	8100	765564	0	0
2024-05-27 07:53:32			0	33601	0	0	0	20740	19340	150938	27535	984126	40206	107600	0	0	8101	764469	0	0
2024-05-27 07:54:32			0	33612	0	0	0	20753	19340	150946	27396	984118	40195	107605	0	0	8101	763921	0	0
2024-05-27 07:55:32			0	33624	0	0	0	20748	19340	150802	27542	984118	40206	107603	0	0	8102	763325	0	0
2024-05-27 07:56:32			0	33656	0	0	0	20755	19340	150614	27528	984126	40195	107606	0	0	8104	761735	0	0
2024-05-27 07:57:32			0	33709	0	0	0	20755	19340	150482	27729	984179	40195	107606	0	0	8107	759109	0	0
2024-05-27 07:58:32			0	33720	0	0	0	20761	19350	150346	27606	984169	40197	107608	0	0	8108	758523	0	0
2024-05-27 07:59:32			0	33749	0	0	0	20763	19330	150282	27388	984136	40206	107609	0	0	8109	757173	0	0
2024-05-27 08:00:32			0	33751	0	0	0	20766	19360	150246	27291	984151	40208	107610	0	0	8109	756949	0	0
2024-05-27 08:01:32			0	33760	0	0	0	20784	19370	150102	27485	984274	40219	107617	0	0	8110	756463	0	0
2024-05-27 08:02:32			0	33780	0	0	0	20779	19360	150154	27263	984231	40218	107615	0	0	8111	755518	0	0
2024-05-27 08:03:32			0	33795	0	0	0	20779	19370	150026	27504	984247	40208	107615	0	0	8112	754738	0	0
2024-05-27 08:04:32			0	33834	0	0	0	20781	19370	149778	27268	984274	40219	107616	0	0	8114	752819	0	0
2024-05-27 08:05:32			0	33870	0	0	0	20779	19370	149602	27305	984247	40198	107615	0	0	8116	751050	0	0
2024-05-27 08:06:32			0	33895	0	0	0	20805	19380	149602	27111	984317	40210	107625	0	0	8117	749783	0	0
2024-05-27 08:07:32			0	33900	0	0	0	20831	19380	149522	27235	984397	40221	107635	0	0	8117	749538	0	0
2024-05-27 08:08:32			0	33887	0	0	0	20854	19390	149518	27256	984360	40210	107644	0	0	8116	750134	0	0
2024-05-27 08:09:32			0	33894	0	0	0	20844	19400	149574	27138	984448	40222	107640	0	0	8117	749750	0	0
2024-05-27 08:10:32			0	33873	0	0	0	20836	19410	149658	27362	984447	40223	107637	0	0	8115	750738	0	0
2024-05-27 08:11:32			0	33872	0	0	0	20836	19420	149686	27386	984455	40224	107637	0	0	8115	750746	0	0
2024-05-27 08:12:32			0	33859	0	0	0	20833	19420	149754	27332	984508	40202	107636	0	0	8115	751384	0	0
2024-05-27 08:13:32			0	33856	0	0	0	20825	19420	149654	27090	984508	40212	107633	0	0	8115	751531	0	0
2024-05-27 08:14:32			0	33877	0	0	0	20831	19420	149622	27360	984463	40203	107635	0	0	8116	750501	0	0
2024-05-27 08:15:32			0	33892	0	0	0	20831	19420	149542	27396	984437	40213	107635	0	0	8117	749766	0	0
2024-05-27 08:16:32			0	33882	0	0	0	20833	19430	149582	27369	984472	40213	107636	0	0	8116	750214	0	0
2024-05-27 08:17:32			0	33877	0	0	0	20818	19420	149726	27152	984463	40213	107630	0	0	8116	750501	0	0
2024-05-27 08:18:32			0	33863	0	0	0	20805	19430	149626	27298	984472	40225	107625	0	0	8116	751146	0	0
2024-05-27 08:19:32			0	33871	0	0	0	20797	19420	149662	27216	984437	40213	107622	0	0	8116	750795	0	0
2024-05-27 08:20:32			0	33877	0	0	0	20794	19420	149626	27272	984384	40213	107621	0	0	8116	750501	0	0
2024-05-27 08:21:32			0	33910	0	0	0	20781	19430	149494	27116	984366	40225	107616	0	0	8119	748843	0	0
2024-05-27 08:22:32			0	33915	0	0	0	20776	19410	149234	27057	984367	40201	107614	0	0	8119	748680	0	0
2024-05-27 08:23:32			0	33943	0	0	0	20784	19410	149262	27086	984367	40201	107617	0	0	8120	747311	0	0
2024-05-27 08:24:32			0	33957	0	0	0	20786	19420	149210	27279	984455	40212	107618	0	0	8121	746586	0	0
2024-05-27 08:25:32			0	33975	0	0	0	20776	19420	149138	27326	984376	40212	107614	0	0	8122	745707	0	0
2024-05-27 08:26:32			0	34005	0	0	0	20807	19420	149090	27426	984437	40213	107626	0	0	8124	744245	0	0
2024-05-27 08:27:32			0	34043	0	0	0	20812	19420	149002	27232	984482	40212	107628	0	0	8126	742396	0	0
2024-05-27 08:28:32			0	34024	0	0	0	20815	19430	148822	27152	984445	40213	107629	0	0	8125	743279	0	0
2024-05-27 08:29:32			0	34060	0	0	0	20823	19430	148874	27512	984507	40214	107632	0	0	8127	741529	0	0
2024-05-27 08:30:32			0	34050	0	0	0	20794	19430	148826	27315	984507	40214	107621	0	0	8126	742015	0	0
2024-05-27 08:31:32			0	34001	0	0	0	20812	19430	149002	27543	984419	40213	107628	0	0	8123	744399	0	0
2024-05-27 08:32:32			0	33973	0	0	0	20844	19430	149170	27242	984480	40214	107640	0	0	8121	745764	0	0
2024-05-27 08:33:32			0	33951	0	0	0	20864	19430	149246	27211	984498	40236	107648	0	0	8120	746838	0	0
2024-05-27 08:34:32			0	33951	0	0	0	20859	19440	149262	27393	984568	40214	107646	0	0	8120	746797	0	0
2024-05-27 08:35:32			0	33932	0	0	0	20854	19440	149222	27166	984576	40226	107644	0	0	8119	747725	0	0
2024-05-27 08:36:32			0	33952	0	0	0	20857	19450	149230	27566	984593	40227	107645	0	0	8120	746707	0	0
2024-05-27 08:37:32			0	33942	0	0	0	20838	19440	149138	27433	984595	40204	107638	0	0	8120	747237	0	0
2024-05-27 08:38:32			0	33953	0	0	0	20831	19450	149230	27537	984540	40227	107635	0	0	8120	746658	0	0
2024-05-27 08:39:32			0	33948	0	0	0	20833	19450	149266	27300	984532	40205	107636	0	0	8120	746902	0	0
2024-05-27 08:40:32			0	33959	0	0	0	20838	19450	149238	27303	984585	40226	107638	0	0	8121	746365	0	0
2024-05-27 08:41:32			0	33939	0	0	0	20844	19450	149266	27066	984585	40215	107640	0	0	8119	747342	0	0
2024-05-27 08:42:32			0	33944	0	0	0	20833	19460	149050	27189	984601	40216	107636	0	0	8120	747057	0	0
2024-05-27 08:43:32			0	33959	0	0	0	20823	19450	149106	27457	984567	40216	107632	0	0	8121	746365	0	0
2024-05-27 08:44:32			0	33963	0	0	0	20815	19460	149078	27431	984601	40227	107629	0	0	8121	746129	0	0
2024-05-27 08:45:32			0	33968	0	0	0	20807	19450	149154	27291	984567	40227	107626	0	0	8122	745926	0	0
2024-05-27 08:46:32			0	33943	0	0	0	20818	19460	149278	27305	984557	40217	107630	0	0	8120	747105	0	0
2024-05-27 08:47:32			0	33914	0	0	0	20812	19450	149434	27516	984479	40205	107628	0	0	8118	748565	0	0
2024-05-27 08:48:32			0	33881	0	0	0	20807	19450	149554	27338	984585	40226	107626	0	0	8117	750181	0	0
2024-05-27 08:49:32			0	33818	0	0	0	20815	19440	149842	27265	984515	40193	107629	0	0	8113	753315	0	0
2024-05-27 08:50:32			0	33801	0	0	0	20820	19450	149906	27211	984567	40216	107631	0	0	8112	754111	0	0
2024-05-27 08:51:32			0	33754	0	0	0	20828	19440	150138	27460	984515	40225	107634	0	0	8109	756468	0	0
2024-05-27 08:52:32			0	33749	0	0	0	20833	19450	150186	27204	984505	40215	107636	0	0	8109	756674	0	0
2024-05-27 08:53:32			0	33723	0	0	0	20833	19440	150222	27034	984523	40226	107636	0	0	8107	757999	0	0
2024-05-27 08:54:32			0	33738	0	0	0	20838	19450	150146	27178	984558	40215	107638	0	0	8108	757217	0	0
2024-05-27 08:55:32			0	33764	0	0	0	20838	19440	150078	27301	984489	40193	107638	0	0	8109	755975	0	0
2024-05-27 08:56:32			0	33785	0	0	0	20841	19450	150018	27296	984532	40215	107639	0	0	8111	754898	0	0
2024-05-27 08:57:32			0	33817	0	0	0	20831	19450	149894	27393	984558	40215	107635	0	0	8113	753323	0	0
2024-05-27 08:58:32			0	33825	0	0	0	20825	19450	149770	27357	984540	40227	107633	0	0	8113	752930	0	0
2024-05-27 08:59:32			0	33826	0	0	0	20818	19440	149674	27293	984523	40226	107630	0	0	8113	752922	0	0
2024-05-27 09:00:32			0	33840	0	0	0	20820	19450	149718	27232	984558	40215	107631	0	0	8114	752193	0	0
2024-05-27 09:01:32			0	33830	0	0	0	20818	19450	149662	27310	984505	40215	107630	0	0	8113	752684	0	0
2024-05-27 09:02:32			0	33824	0	0	0	20815	19440	149738	27050	984497	40215	107629	0	0	8113	753020	0	0
2024-05-27 09:03:32			0	33809	0	0	0	20818	19440	149750	27039	984489	40214	107630	0	0	8112	753758	0	0
2024-05-27 09:04:32			0	33816	0	0	0	20812	19430	149874	27192	984498	40225	107628	0	0	8113	753455	0	0
2024-05-27 09:05:32			0	33792	0	0	0	20812	19440	149802	27614	984489	40225	107628	0	0	8111	754595	0	0
2024-05-27 09:06:32			0	33796	0	0	0	20805	19430	149854	27320	984454	40204	107625	0	0	8112	754440	0	0
2024-05-27 09:07:32			0	33812	0	0	0	20838	19430	149846	27095	984480	40225	107638	0	0	8112	753652	0	0
2024-05-27 09:08:32			0	33851	0	0	0	20818	19430	149710	27502	984507	40204	107630	0	0	8115	751735	0	0
2024-05-27 09:09:32			0	33862	0	0	0	20823	19430	149642	27301	984472	40213	107632	0	0	8115	751195	0	0
2024-05-27 09:10:32			0	33869	0	0	0	20799	19430	149478	27294	984480	40214	107623	0	0	8116	750852	0	0
2024-05-27 09:11:32			0	33897	0	0	0	20805	19430	149378	27388	984498	40203	107625	0	0	8117	749479	0	0
2024-05-27 09:12:32			0	33930	0	0	0	20802	19430	149282	27104	984560	40214	107624	0	0	8119	747864	0	0
2024-05-27 09:13:32			0	33952	0	0	0	20812	19430	149202	26958	984472	40213	107628	0	0	8121	746789	0	0
2024-05-27 09:14:32			0	33950	0	0	0	20812	19430	149202	27251	984472	40225	107628	0	0	8120	746887	0	0
2024-05-27 09:15:32			0	33959	0	0	0	20820	19420	149178	27173	984463	40213	107631	0	0	8121	746488	0	0
2024-05-27 09:16:32			0	33949	0	0	0	20815	19430	149166	27324	984445	40225	107629	0	0	8120	746936	0	0
2024-05-27 09:17:32			0	33954	0	0	0	20786	19430	149158	27384	984454	40214	107618	0	0	8121	746692	0	0
2024-05-27 09:18:32			0	33989	0	0	0	20755	19430	148834	26845	984401	40204	107606	0	0	8124	744984	0	0
2024-05-27 09:19:32			0	34042	0	0	0	20750	19410	148694	27235	984367	40212	107604	0	0	8127	742485	0	0
2024-05-27 09:20:32			0	34076	0	0	0	20761	19420	148498	27008	984376	40202	107608	0	0	8128	740792	0	0
2024-05-27 09:21:32			0	34112	0	0	0	20768	19410	148478	27640	984367	40212	107611	0	0	8130	739088	0	0
2024-05-27 09:22:32			0	34150	0	0	0	20771	19410	148318	26955	984359	40201	107612	0	0	8132	737248	0	0
2024-05-27 09:23:32			0	34141	0	0	0	20771	19410	148274	27403	984385	40201	107612	0	0	8132	737684	0	0
2024-05-27 09:24:32			0	34132	0	0	0	20763	19410	148358	27421	984359	40223	107609	0	0	8132	738119	0	0
2024-05-27 09:25:32			0	34128	0	0	0	20766	19400	148450	27377	984351	40212	107610	0	0	8131	738353	0	0
2024-05-27 09:26:32			0	34097	0	0	0	20763	19400	148594	27130	984316	40222	107609	0	0	8130	739855	0	0
2024-05-27 09:27:32			0	34053	0	0	0	20748	19400	148782	27376	984316	40233	107603	0	0	8127	741991	0	0
2024-05-27 09:28:32			0	34037	0	0	0	20755	19390	148914	27512	984254	40221	107606	0	0	8126	742810	0	0
2024-05-27 09:29:32			0	33947	0	0	0	20748	19390	149178	27296	984281	40200	107603	0	0	8121	747198	0	0
2024-05-27 09:30:32			0	33915	0	0	0	20745	19380	149394	27079	984264	40200	107602	0	0	8119	748804	0	0
2024-05-27 09:31:32			0	33859	0	0	0	20745	19380	149574	27345	984211	40210	107602	0	0	8116	751549	0	0
2024-05-27 09:32:32			0	33823	0	0	0	20740	19380	149842	27192	984256	40220	107600	0	0	8114	753318	0	0
2024-05-27 09:33:32			0	33786	0	0	0	20755	19390	150062	27454	984166	40232	107606	0	0	8112	755098	0	0
2024-05-27 09:34:32			0	33757	0	0	0	20771	19370	150070	27135	984247	40219	107612	0	0	8110	756611	0	0
2024-05-27 09:35:32			0	33729	0	0	0	20774	19380	150130	27313	984317	40210	107613	0	0	8108	757953	0	0
2024-05-27 09:36:32			0	33733	0	0	0	20786	19380	150150	27445	984291	40210	107618	0	0	8108	757755	0	0
2024-05-27 09:37:32			0	33754	0	0	0	20789	19390	150110	27369	984326	40210	107619	0	0	8109	756676	0	0
2024-05-27 09:38:32			0	33742	0	0	0	20815	19380	150134	27301	984317	40221	107629	0	0	8108	757310	0	0
2024-05-27 09:39:32			0	33784	0	0	0	20846	19390	149906	27227	984440	40221	107641	0	0	8110	755197	0	0
2024-05-27 09:40:32			0	33825	0	0	0	20857	19410	149674	27479	984518	40234	107645	0	0	8112	753095	0	0
2024-05-27 09:41:32			0	33918	0	0	0	20851	19420	149418	27410	984508	40246	107643	0	0	8118	748492	0	0
2024-05-27 09:42:32			0	34011	0	0	0	20859	19420	148890	27118	984570	40225	107646	0	0	8123	743952	0	0
2024-05-27 09:43:32			0	34089	0	0	0	20870	19430	148582	27083	984560	40237	107650	0	0	8127	740121	0	0
2024-05-27 09:44:32			0	34151	0	0	0	20870	19440	148354	26944	984542	40237	107650	0	0	8131	737078	0	0
2024-05-27 09:45:32			0	34201	0	0	0	20875	19440	148126	27422	984648	40225	107652	0	0	8134	734664	0	0
2024-05-27 09:46:32			0	34234	0	0	0	20883	19440	147842	27466	984621	40225	107655	0	0	8135	733075	0	0
2024-05-27 09:47:32			0	34244	0	0	0	20880	19460	147870	27112	984716	40228	107654	0	0	8136	732513	0	0
2024-05-27 09:48:32			0	34215	0	0	0	20883	19440	147922	27502	984736	40226	107655	0	0	8134	733990	0	0
2024-05-27 09:49:32			0	34212	0	0	0	20885	19460	148066	27381	984734	40227	107656	0	0	8134	734053	0	0
2024-05-27 09:50:32			0	34169	0	0	0	20914	19460	148174	27303	984716	40217	107667	0	0	8131	736128	0	0
2024-05-27 09:51:32			0	34147	0	0	0	20945	19470	148310	27010	984812	40240	107679	0	0	8130	737150	0	0
2024-05-27 09:52:32			0	34107	0	0	0	20963	19470	148406	27550	984812	40240	107686	0	0	8127	739086	0	0
2024-05-27 09:53:32			0	34056	0	0	0	20974	19500	148686	27256	984907	40243	107690	0	0	8124	741438	0	0
2024-05-27 09:54:32			0	34020	0	0	0	20992	19500	148874	27241	985022	40243	107697	0	0	8122	743188	0	0
2024-05-27 09:55:32			0	33990	0	0	0	21018	19520	148822	27332	985100	40245	107707	0	0	8120	744566	0	0
2024-05-27 09:56:32			0	34014	0	0	0	21036	19530	148890	27287	985143	40256	107714	0	0	8121	743357	0	0
2024-05-27 09:57:32			0	34036	0	0	0	21067	19540	148814	27460	985213	40246	107726	0	0	8122	742246	0	0
2024-05-27 09:58:32			0	34039	0	0	0	21088	19560	148774	27296	985220	40248	107734	0	0	8121	742018	0	0
2024-05-27 09:59:32			0	34088	0	0	0	21116	19570	148522	27222	985298	40260	107745	0	0	8124	739600	0	0
2024-05-27 10:00:32			0	34147	0	0	0	21135	19590	148334	27431	985429	40272	107752	0	0	8127	736664	0	0
2024-05-27 10:01:32			0	34177	0	0	0	21150	19600	148090	27307	985473	40262	107758	0	0	8128	735175	0	0
2024-05-27 10:02:32			0	34221	0	0	0	21187	19610	147866	27211	985543	40264	107772	0	0	8130	733015	0	0
2024-05-27 10:03:32			0	34276	0	0	0	21187	19630	147770	27145	985656	40265	107772	0	0	8134	730292	0	0
2024-05-27 10:04:32			0	34284	0	0	0	21210	19640	147698	27471	985619	40254	107781	0	0	8134	729868	0	0
2024-05-27 10:05:32			0	34303	0	0	0	21228	19650	147530	27196	985724	40267	107788	0	0	8135	728917	0	0
2024-05-27 10:06:32			0	34331	0	0	0	21241	19680	147290	27336	985819	40291	107793	0	0	8136	727456	0	0
2024-05-27 10:07:32			0	34448	0	0	0	21231	19680	146879	27390	985819	40270	107789	0	0	8143	721876	0	0
2024-05-27 10:08:32			0	34569	0	0	0	21238	19710	146379	27369	985967	40283	107792	0	0	8150	716022	0	0
2024-05-27 10:09:32			0	34608	0	0	0	21228	19720	146207	27647	985966	40273	107788	0	0	8152	714142	0	0
2024-05-27 10:10:32			0	34572	0	0	0	21223	19720	146367	27367	985992	40262	107786	0	0	8150	715841	0	0
2024-05-27 10:11:32			0	34491	0	0	0	21238	19740	146591	27428	985999	40276	107792	0	0	8145	719596	0	0
2024-05-27 10:12:32			0	34405	0	0	0	21238	19740	147015	27050	986052	40276	107792	0	0	8141	723684	0	0
2024-05-27 10:13:32			0	34339	0	0	0	21246	19740	147194	27246	986026	40287	107795	0	0	8137	726833	0	0
2024-05-27 10:14:32			0	34324	0	0	0	21244	19760	147358	27230	986006	40289	107794	0	0	8136	727471	0	0
2024-05-27 10:15:32			0	34345	0	0	0	21259	19760	147130	27355	986059	40289	107800	0	0	8137	726467	0	0
2024-05-27 10:16:32			0	34359	0	0	0	21259	19770	147163	27140	986129	40289	107800	0	0	8138	725758	0	0
2024-05-27 10:17:32			0	34417	0	0	0	21254	19780	147035	27462	986119	40268	107798	0	0	8141	722953	0	0
2024-05-27 10:18:32			0	34444	0	0	0	21241	19790	146807	27511	986127	40280	107793	0	0	8143	721629	0	0
2024-05-27 10:19:32			0	34456	0	0	0	21236	19800	146827	27289	986171	40291	107791	0	0	8144	721019	0	0
2024-05-27 10:20:32			0	34448	0	0	0	21241	19790	146747	27218	986136	40280	107793	0	0	8143	721439	0	0
2024-05-27 10:21:32			0	34478	0	0	0	21231	19800	146667	27601	986197	40258	107789	0	0	8145	719975	0	0
2024-05-27 10:22:32			0	34486	0	0	0	21233	19810	146667	27098	986161	40271	107790	0	0	8146	719556	0	0
2024-05-27 10:23:32			0	34519	0	0	0	21228	19800	146483	27232	986206	40270	107788	0	0	8147	718032	0	0
2024-05-27 10:24:32			0	34553	0	0	0	21228	19810	146379	27478	986187	40282	107788	0	0	8149	716384	0	0
2024-05-27 10:25:32			0	34570	0	0	0	21228	19810	146211	27209	986187	40282	107788	0	0	8150	715581	0	0
2024-05-27 10:26:32			0	34571	0	0	0	21236	19810	146155	27386	986187	40271	107791	0	0	8150	715534	0	0
2024-05-27 10:27:32			0	34553	0	0	0	21233	19820	146263	27848	986204	40282	107790	0	0	8149	716344	0	0
2024-05-27 10:28:32			0	34534	0	0	0	21238	19810	146383	27526	986249	40271	107792	0	0	8148	717282	0	0
2024-05-27 10:29:32			0	34521	0	0	0	21238	19810	146411	27255	986196	40282	107792	0	0	8147	717898	0	0
2024-05-27 10:30:32			0	34538	0	0	0	21236	19810	146463	27225	986222	40282	107791	0	0	8148	717093	0	0
2024-05-27 10:31:32			0	34477	0	0	0	21236	19810	146515	27163	986249	40292	107791	0	0	8145	719983	0	0
2024-05-27 10:32:32			0	34458	0	0	0	21233	19830	146547	27450	986256	40284	107790	0	0	8144	720805	0	0
2024-05-27 10:33:32			0	34429	0	0	0	21228	19810	146763	27140	986249	40271	107788	0	0	8142	722263	0	0
2024-05-27 10:34:32			0	34410	0	0	0	21233	19820	146875	27078	986204	40271	107790	0	0	8141	723127	0	0
2024-05-27 10:35:32			0	34378	0	0	0	21233	19810	147051	27627	986222	40271	107790	0	0	8139	724692	0	0
2024-05-27 10:36:32			0	34356	0	0	0	21238	19830	147187	27294	986247	40273	107792	0	0	8138	725662	0	0
2024-05-27 10:37:32			0	34324	0	0	0	21246	19810	147298	27242	986169	40260	107795	0	0	8136	727270	0	0
2024-05-27 10:38:32			0	34293	0	0	0	21244	19830	147354	27436	986229	40294	107794	0	0	8135	728674	0	0
2024-05-27 10:39:32			0	34272	0	0	0	21251	19830	147354	27310	986256	40284	107797	0	0	8133	729680	0	0
2024-05-27 10:40:32			0	34225	0	0	0	21249	19840	147550	27294	986238	40284	107796	0	0	8131	731895	0	0
2024-05-27 10:41:32			0	34229	0	0	0	21251	19840	147698	27507	986264	40284	107797	0	0	8131	731703	0	0
2024-05-27 10:42:32			0	34214	0	0	0	21254	19830	147754	27417	986229	40273	107798	0	0	8130	732464	0	0
2024-05-27 10:43:32			0	34237	0	0	0	21249	19840	147778	27313	986344	40294	107796	0	0	8131	731319	0	0
2024-05-27 10:44:32			0	34275	0	0	0	21251	19840	147450	27291	986273	40285	107797	0	0	8133	729496	0	0
2024-05-27 10:45:32			0	34363	0	0	0	21244	19840	147131	27435	986291	40284	107794	0	0	8139	725287	0	0
2024-05-27 10:46:32			0	34423	0	0	0	21251	19840	146803	27452	986264	40284	107797	0	0	8142	722429	0	0
2024-05-27 10:47:32			0	34478	0	0	0	21251	19840	146579	27138	986299	40285	107797	0	0	8145	719816	0	0
2024-05-27 10:48:32			0	34510	0	0	0	21251	19840	146551	27685	986326	40285	107797	0	0	8147	718300	0	0
2024-05-27 10:49:32			0	34520	0	0	0	21254	19840	146447	27371	986291	40284	107798	0	0	8147	717826	0	0
2024-05-27 10:50:32			0	34528	0	0	0	21254	19840	146391	27227	986299	40285	107798	0	0	8148	717448	0	0
2024-05-27 10:51:32			0	34529	0	0	0	21244	19850	146295	27371	986263	40286	107794	0	0	8148	717361	0	0
2024-05-27 10:52:32			0	34530	0	0	0	21251	19850	146491	27092	986334	40286	107797	0	0	8148	717314	0	0
2024-05-27 10:53:32			0	34519	0	0	0	21249	19840	146399	27398	986326	40295	107796	0	0	8147	717874	0	0
2024-05-27 10:54:32			0	34501	0	0	0	21249	19840	146559	27088	986352	40285	107796	0	0	8146	718726	0	0
2024-05-27 10:55:32			0	34486	0	0	0	21259	19840	146543	27436	986352	40285	107800	0	0	8145	719437	0	0
2024-05-27 10:56:32			0	34477	0	0	0	21264	19850	146667	27033	986316	40296	107802	0	0	8145	719824	0	0
2024-05-27 10:57:32			0	34450	0	0	0	21254	19850	146791	27500	986343	40286	107798	0	0	8143	721106	0	0
2024-05-27 10:58:32			0	34424	0	0	0	21257	19850	146767	27376	986361	40286	107799	0	0	8142	722342	0	0
2024-05-27 10:59:32			0	34445	0	0	0	21254	19860	146811	27492	986351	40286	107798	0	0	8143	721304	0	0
2024-05-27 11:00:32			0	34440	0	0	0	21259	19850	146799	27473	986361	40286	107800	0	0	8143	721581	0	0
2024-05-27 11:01:32			0	34408	0	0	0	21259	19850	146791	27293	986308	40286	107800	0	0	8141	723103	0	0
2024-05-27 11:02:32			0	34409	0	0	0	21259	19850	146927	27166	986316	40286	107800	0	0	8141	723055	0	0
2024-05-27 11:03:32			0	34399	0	0	0	21259	19840	146891	27483	986352	40285	107800	0	0	8140	723571	0	0
2024-05-27 11:04:32			0	34383	0	0	0	21257	19850	146931	27443	986369	40286	107799	0	0	8139	724294	0	0
2024-05-27 11:05:32			0	34365	0	0	0	21267	19850	147003	27175	986308	40286	107803	0	0	8138	725152	0	0
2024-05-27 11:06:32			0	34396	0	0	0	21262	19830	146955	27357	986309	40273	107801	0	0	8140	723754	0	0
2024-05-27 11:07:32			0	34473	0	0	0	21264	19850	146543	27274	986369	40296	107802	0	0	8144	720014	0	0
2024-05-27 11:08:32			0	34510	0	0	0	21267	19860	146439	27556	986377	40286	107803	0	0	8147	718221	0	0
2024-05-27 11:09:32			0	34472	0	0	0	21277	19850	146603	27602	986396	40286	107807	0	0	8144	720062	0	0
2024-05-27 11:10:32			0	34443	0	0	0	21275	19860	146731	27294	986404	40307	107806	0	0	8143	721399	0	0
2024-05-27 11:11:32			0	34389	0	0	0	21283	19850	146963	27575	986369	40274	107809	0	0	8139	724008	0	0
2024-05-27 11:12:32			0	34355	0	0	0	21280	19870	147115	27402	986368	40287	107808	0	0	8138	725549	0	0
2024-05-27 11:13:32			0	34306	0	0	0	21288	19860	147242	27338	986439	40287	107811	0	0	8135	727931	0	0
2024-05-27 11:14:32			0	34293	0	0	0	21301	19870	147446	27185	986500	40298	107816	0	0	8134	728513	0	0
2024-05-27 11:15:32			0	34283	0	0	0	21314	19870	147434	27362	986553	40298	107821	0	0	8133	728992	0	0
2024-05-27 11:16:32			0	34268	0	0	0	21329	19870	147378	27516	986535	40288	107827	0	0	8132	729711	0	0
2024-05-27 11:17:32			0	34304	0	0	0	21353	19870	147390	27227	986588	40299	107836	0	0	8133	727986	0	0
2024-05-27 11:18:32			0	34354	0	0	0	21368	19880	147075	27225	986623	40288	107842	0	0	8136	725557	0	0
2024-05-27 11:19:32			0	34403	0	0	0	21376	19890	146887	27594	986675	40300	107845	0	0	8139	723182	0	0
2024-05-27 11:20:32			0	34418	0	0	0	21392	19910	146755	27502	986753	40312	107851	0	0	8139	722388	0	0
2024-05-27 11:21:32			0	34431	0	0	0	21412	19920	146711	27474	986796	40313	107859	0	0	8140	721730	0	0
2024-05-27 11:22:32			0	34449	0	0	0	21428	19930	146695	27447	986840	40303	107865	0	0	8141	720835	0	0
2024-05-27 11:23:32			0	34437	0	0	0	21501	19930	146687	27488	986954	40293	107893	0	0	8139	721406	0	0
2024-05-27 11:24:32			0	34455	0	0	0	21516	19950	146727	27403	987067	40317	107899	0	0	8140	720471	0	0
2024-05-27 11:25:32			0	34487	0	0	0	21519	19970	146451	27383	987066	40329	107900	0	0	8141	718874	0	0
2024-05-27 11:26:32			0	34548	0	0	0	21524	19990	146259	27293	987153	40308	107902	0	0	8145	715910	0	0
2024-05-27 11:27:32			0	34570	0	0	0	21511	19990	146063	27341	987179	40308	107897	0	0	8146	714871	0	0
2024-05-27 11:28:32			0	34593	0	0	0	21537	20010	145939	27199	987266	40322	107907	0	0	8147	713708	0	0
2024-05-27 11:29:32			0	34597	0	0	0	21540	20020	145975	27228	987282	40323	107908	0	0	8147	713481	0	0
2024-05-27 11:30:32			0	34644	0	0	0	21522	20030	145847	27326	987291	40323	107901	0	0	8150	711230	0	0
2024-05-27 11:31:32			0	34626	0	0	0	21532	20030	145803	27183	987326	40313	107905	0	0	8149	712076	0	0
2024-05-27 11:32:32			0	34651	0	0	0	21537	20050	145631	27481	987298	40335	107907	0	0	8151	710823	0	0
2024-05-27 11:33:32			0	34694	0	0	0	21540	20050	145419	27156	987324	40325	107908	0	0	8153	708805	0	0
2024-05-27 11:34:32			0	34753	0	0	0	21548	20060	145335	27046	987376	40327	107911	0	0	8156	706006	0	0
2024-05-27 11:35:32			0	34772	0	0	0	21545	20070	145131	27019	987490	40327	107910	0	0	8157	705079	0	0
2024-05-27 11:36:32			0	34836	0	0	0	21537	20070	144919	27211	987446	40338	107907	0	0	8161	702097	0	0
2024-05-27 11:37:32			0	34879	0	0	0	21524	20080	144775	27516	987481	40317	107902	0	0	8164	700060	0	0
2024-05-27 11:38:32			0	34941	0	0	0	21511	20080	144659	27485	987428	40339	107897	0	0	8167	697186	0	0
2024-05-27 11:39:32			0	34922	0	0	0	21509	20090	144563	27244	987426	40329	107896	0	0	8166	698027	0	0
2024-05-27 11:40:32			0	34930	0	0	0	21493	20090	144579	27329	987471	40329	107890	0	0	8167	697657	0	0
2024-05-27 11:41:32			0	34880	0	0	0	21496	20090	144779	27258	987418	40329	107891	0	0	8164	699975	0	0
2024-05-27 11:42:32			0	34872	0	0	0	21498	20080	144775	27334	987428	40306	107892	0	0	8164	700385	0	0
2024-05-27 11:43:32			0	34864	0	0	0	21516	20080	144815	27372	987436	40306	107899	0	0	8163	700757	0	0
2024-05-27 11:44:32			0	34820	0	0	0	21490	20080	144923	27209	987428	40317	107889	0	0	8161	702803	0	0
2024-05-27 11:45:32			0	34764	0	0	0	21483	20090	145107	27718	987453	40329	107886	0	0	8158	705375	0	0
2024-05-27 11:46:32			0	34718	0	0	0	21506	20090	145331	27365	987418	40318	107895	0	0	8155	707525	0	0
2024-05-27 11:47:32			0	34672	0	0	0	21615	20100	145531	27601	987488	40330	107937	0	0	8151	709641	0	0
2024-05-27 11:48:32			0	34642	0	0	0	21612	20090	145791	27595	987612	40318	107936	0	0	8149	711089	0	0
2024-05-27 11:49:32			0	34616	0	0	0	21602	20110	145823	27500	987664	40331	107932	0	0	8148	712232	0	0
2024-05-27 11:50:32			0	34618	0	0	0	21573	20120	145771	27327	987662	40333	107921	0	0	8149	712099	0	0
2024-05-27 11:51:32			0	34611	0	0	0	21553	20120	145867	27182	987654	40332	107913	0	0	8149	712428	0	0
2024-05-27 11:52:32			0	34598	0	0	0	21548	20130	145887	27464	987626	40333	107911	0	0	8148	713001	0	0
2024-05-27 11:53:32			0	34557	0	0	0	21548	20130	145979	27319	987653	40321	107911	0	0	8146	714933	0	0
2024-05-27 11:54:32			0	34539	0	0	0	21558	20130	146059	27149	987671	40343	107915	0	0	8144	715782	0	0
2024-05-27 11:55:32			0	34500	0	0	0	21592	20140	146247	27419	987714	40322	107928	0	0	8142	717586	0	0
2024-05-27 11:56:32			0	34464	0	0	0	21610	20150	146335	27154	987837	40345	107935	0	0	8139	719250	0	0
2024-05-27 11:57:32			0	34446	0	0	0	21597	20150	146435	27391	987792	40345	107930	0	0	8139	720104	0	0
2024-05-27 11:58:32			0	34426	0	0	0	21581	20160	146535	27190	987801	40346	107924	0	0	8138	721013	0	0
2024-05-27 11:59:32			0	34436	0	0	0	21561	20150	146499	27557	987713	40323	107916	0	0	8139	720578	0	0
2024-05-27 12:00:32			0	34434	0	0	0	21548	20140	146379	27708	987723	40333	107911	0	0	8139	720713	0	0
2024-05-27 12:01:32			0	34489	0	0	0	21553	20150	146407	27353	987704	40323	107913	0	0	8142	718066	0	0
2024-05-27 12:02:32			0	34531	0	0	0	21555	20160	146119	27635	987721	40346	107914	0	0	8144	716041	0	0
2024-05-27 12:03:32			0	34548	0	0	0	21568	20150	145939	27504	987739	40323	107919	0	0	8145	715278	0	0
2024-05-27 12:04:32			0	34559	0	0	0	21597	20150	145955	27242	987766	40323	107930	0	0	8145	714760	0	0
2024-05-27 12:05:32			0	34559	0	0	0	21628	20170	146043	27396	987818	40335	107942	0	0	8145	714681	0	0
2024-05-27 12:06:32			0	34499	0	0	0	21646	20180	146183	27711	987940	40347	107949	0	0	8141	717474	0	0
2024-05-27 12:07:32			0	34430	0	0	0	21649	20190	146475	27666	988072	40349	107950	0	0	8137	720704	0	0
2024-05-27 12:08:32			0	34358	0	0	0	21628	20200	146743	27604	988000	40338	107942	0	0	8133	724087	0	0
2024-05-27 12:09:32			0	34338	0	0	0	21672	20210	146978	27241	988097	40351	107959	0	0	8132	725000	0	0
2024-05-27 12:10:32			0	34272	0	0	0	21703	20220	147170	27272	988149	40352	107971	0	0	8127	728112	0	0
2024-05-27 12:11:32			0	34204	0	0	0	21711	20230	147446	27696	988263	40353	107974	0	0	8123	731330	0	0
2024-05-27 12:12:32			0	34162	0	0	0	21696	20240	147614	27379	988315	40342	107968	0	0	8121	733308	0	0
2024-05-27 12:13:32			0	34129	0	0	0	21683	20250	147718	27289	988270	40354	107963	0	0	8120	734856	0	0
2024-05-27 12:14:32			0	34102	0	0	0	21675	20260	147838	27137	988287	40344	107960	0	0	8118	736117	0	0
2024-05-27 12:15:32			0	34106	0	0	0	21677	20270	147946	27293	988322	40355	107961	0	0	8119	735884	0	0
2024-05-27 12:16:32			0	34119	0	0	0	21685	20270	147734	27196	988296	40355	107964	0	0	8119	735257	0	0
2024-05-27 12:17:32			0	34143	0	0	0	21677	20270	147546	27457	988251	40334	107961	0	0	8121	734101	0	0
2024-05-27 12:18:32			0	34206	0	0	0	21677	20270	147366	27732	988322	40366	107961	0	0	8124	731073	0	0
2024-05-27 12:19:32			0	34253	0	0	0	21703	20270	147194	27431	988277	40356	107971	0	0	8127	728820	0	0
2024-05-27 12:20:32			0	34306	0	0	0	21716	20280	146938	27497	988286	40335	107976	0	0	8129	726247	0	0
2024-05-27 12:21:32			0	34345	0	0	0	21709	20290	146838	27443	988364	40358	107973	0	0	8132	724346	0	0
2024-05-27 12:22:32			0	34369	0	0	0	21722	20290	146699	27280	988470	40335	107978	0	0	8133	723204	0	0
2024-05-27 12:23:32			0	34395	0	0	0	21727	20300	146567	27588	988399	40359	107980	0	0	8134	721928	0	0
2024-05-27 12:24:32			0	34405	0	0	0	21719	20290	146547	27564	988417	40347	107977	0	0	8135	721493	0	0
2024-05-27 12:25:32			0	34445	0	0	0	21711	20310	146415	27776	988416	40336	107974	0	0	8137	719515	0	0
2024-05-27 12:26:32			0	34506	0	0	0	21716	20300	146035	27433	988399	40348	107976	0	0	8141	716669	0	0
2024-05-27 12:27:32			0	34577	0	0	0	21737	20310	145847	27284	988424	40360	107984	0	0	8144	713281	0	0
2024-05-27 12:28:32			0	34622	0	0	0	21680	20300	145647	27647	988407	40348	107962	0	0	8148	711204	0	0
2024-05-27 12:29:32			0	34656	0	0	0	21651	20310	145447	27346	988398	40337	107951	0	0	8150	709569	0	0
2024-05-27 12:30:32			0	34634	0	0	0	21667	20300	145515	27358	988266	40336	107957	0	0	8149	710641	0	0
2024-05-27 12:31:32			0	34578	0	0	0	21641	20310	145731	27673	988363	40326	107947	0	0	8146	713234	0	0
2024-05-27 12:32:32			0	34535	0	0	0	21657	20310	145983	27731	988389	40336	107953	0	0	8143	715260	0	0
2024-05-27 12:33:32			0	34513	0	0	0	21683	20290	145979	27490	988364	40335	107963	0	0	8142	716377	0	0
2024-05-27 12:34:32			0	34548	0	0	0	21685	20290	146019	27647	988311	40347	107964	0	0	8144	714726	0	0
2024-05-27 12:35:32			0	34516	0	0	0	21677	20290	146007	27824	988364	40347	107961	0	0	8142	716236	0	0
2024-05-27 12:36:32			0	34542	0	0	0	21675	20300	146003	27450	988346	40336	107960	0	0	8143	714969	0	0
2024-05-27 12:37:32			0	34565	0	0	0	21670	20300	145859	27331	988354	40348	107958	0	0	8145	713885	0	0
2024-05-27 12:38:32			0	34593	0	0	0	21670	20300	145759	27459	988346	40336	107958	0	0	8146	712567	0	0
2024-05-27 12:39:32			0	34596	0	0	0	21675	20290	145795	27831	988364	40347	107960	0	0	8146	712465	0	0
2024-05-27 12:40:32			0	34602	0	0	0	21680	20300	145695	27305	988319	40336	107962	0	0	8147	712144	0	0
2024-05-27 12:41:32			0	34628	0	0	0	21683	20300	145659	27760	988319	40348	107963	0	0	8148	710922	0	0
2024-05-27 12:42:32			0	34650	0	0	0	21680	20290	145451	27339	988356	40346	107962	0	0	8149	709929	0	0
2024-05-27 12:43:32			0	34668	0	0	0	21672	20300	145375	27569	988372	40359	107959	0	0	8151	709046	0	0
2024-05-27 12:44:32			0	34676	0	0	0	21675	20300	145383	27386	988346	40348	107960	0	0	8151	708671	0	0
2024-05-27 12:45:32			0	34655	0	0	0	21693	20310	145447	27725	988336	40348	107967	0	0	8149	709616	0	0
2024-05-27 12:46:32			0	34655	0	0	0	21709	20300	145455	27229	988452	40336	107973	0	0	8149	709655	0	0
2024-05-27 12:47:32			0	34607	0	0	0	21701	20300	145563	27694	988425	40336	107970	0	0	8147	711909	0	0
2024-05-27 12:48:32			0	34586	0	0	0	21693	20310	145767	27255	988416	40348	107967	0	0	8146	712857	0	0
2024-05-27 12:49:32			0	34523	0	0	0	21688	20300	146119	27351	988407	40326	107965	0	0	8142	715866	0	0
2024-05-27 12:50:32			0	34474	0	0	0	21688	20310	146187	27452	988363	40336	107965	0	0	8139	718142	0	0
2024-05-27 12:51:32			0	34426	0	0	0	21722	20300	146395	27474	988434	40348	107978	0	0	8136	720456	0	0
2024-05-27 12:52:32			0	34397	0	0	0	21727	20310	146411	27360	988451	40349	107980	0	0	8134	721793	0	0
2024-05-27 12:53:32			0	34396	0	0	0	21709	20320	146555	27537	988432	40338	107973	0	0	8135	721801	0	0
2024-05-27 12:54:32			0	34377	0	0	0	21706	20330	146671	27438	988449	40350	107972	0	0	8134	722664	0	0
2024-05-27 12:55:32			0	34367	0	0	0	21703	20320	146643	27326	988539	40338	107971	0	0	8133	723179	0	0
2024-05-27 12:56:32			0	34345	0	0	0	21703	20320	146734	27493	988432	40349	107971	0	0	8132	724227	0	0
2024-05-27 12:57:32			0	34315	0	0	0	21706	20310	146898	27672	988424	40349	107972	0	0	8130	725697	0	0
2024-05-27 12:58:32			0	34274	0	0	0	21706	20310	147054	27675	988477	40360	107972	0	0	8128	727655	0	0
2024-05-27 12:59:32			0	34238	0	0	0	21706	20320	147138	27263	988520	40350	107972	0	0	8126	729337	0	0
2024-05-27 13:00:32			0	34230	0	0	0	21714	20320	147226	27479	988467	40350	107975	0	0	8125	729720	0	0
2024-05-27 13:01:32			0	34213	0	0	0	21711	20320	147282	27516	988547	40361	107974	0	0	8124	730535	0	0
2024-05-27 13:02:32			0	34215	0	0	0	21727	20330	147366	27414	988537	40350	107980	0	0	8124	730399	0	0
2024-05-27 13:03:32			0	34211	0	0	0	21740	20340	147378	27618	988546	40340	107985	0	0	8124	730551	0	0
2024-05-27 13:04:32			0	34214	0	0	0	21753	20340	147282	27530	988599	40351	107990	0	0	8124	730407	0	0
2024-05-27 13:05:32			0	34241	0	0	0	21761	20340	147202	27118	988661	40352	107993	0	0	8125	729113	0	0
2024-05-27 13:06:32			0	34252	0	0	0	21763	20360	147146	27637	988686	40353	107994	0	0	8126	728506	0	0
2024-05-27 13:07:32			0	34300	0	0	0	21766	20360	146942	27497	988686	40353	107995	0	0	8129	726212	0	0
2024-05-27 13:08:32			0	34311	0	0	0	21748	20360	146906	27199	988686	40353	107988	0	0	8130	725687	0	0
2024-05-27 13:09:32			0	34325	0	0	0	21758	20370	146726	27350	988729	40354	107992	0	0	8130	724979	0	0
2024-05-27 13:10:32			0	34318	0	0	0	21763	20380	146802	27358	988772	40366	107994	0	0	8130	725273	0	0
2024-05-27 13:11:32			0	34322	0	0	0	21771	20380	146798	27367	988781	40356	107997	0	0	8130	725082	0	0
2024-05-27 13:12:32			0	34356	0	0	0	21771	20380	146747	27725	988834	40356	107997	0	0	8132	723463	0	0
2024-05-27 13:13:32			0	34363	0	0	0	21763	20390	146667	27923	988797	40368	107994	0	0	8132	723090	0	0
2024-05-27 13:14:32			0	34362	0	0	0	21763	20400	146591	27680	988788	40357	107994	0	0	8132	723098	0	0
2024-05-27 13:15:32			0	34419	0	0	0	21753	20380	146335	27263	988701	40356	107990	0	0	8136	720470	0	0
2024-05-27 13:16:32			0	34475	0	0	0	21735	20390	146135	27381	988763	40345	107983	0	0	8139	717777	0	0
2024-05-27 13:17:32			0	34521	0	0	0	21722	20380	145907	27796	988648	40344	107978	0	0	8142	715644	0	0
2024-05-27 13:18:32			0	34589	0	0	0	21701	20380	145571	27673	988621	40344	107970	0	0	8146	712440	0	0
2024-05-27 13:19:32			0	34664	0	0	0	21701	20360	145347	27859	988588	40332	107970	0	0	8150	708998	0	0
2024-05-27 13:20:32			0	34717	0	0	0	21701	20360	145019	27433	988553	40342	107970	0	0	8153	706518	0	0
2024-05-27 13:21:32			0	34754	0	0	0	21693	20350	144911	27576	988491	40352	107967	0	0	8155	704830	0	0
2024-05-27 13:22:32			0	34804	0	0	0	21696	20350	144747	27441	988491	40352	107968	0	0	8158	702500	0	0
2024-05-27 13:23:32			0	34820	0	0	0	21701	20330	144751	27625	988458	40339	107970	0	0	8159	701834	0	0
2024-05-27 13:24:32			0	34844	0	0	0	21703	20350	144691	27379	988456	40341	107971	0	0	8160	700641	0	0
2024-05-27 13:25:32			0	34831	0	0	0	21711	20330	144631	27294	988511	40339	107974	0	0	8159	701322	0	0
2024-05-27 13:26:32			0	34846	0	0	0	21714	20330	144663	27395	988502	40339	107975	0	0	8160	700626	0	0
2024-05-27 13:27:32			0	34833	0	0	0	21714	20330	144687	27734	988511	40339	107975	0	0	8159	701229	0	0
2024-05-27 13:28:32			0	34819	0	0	0	21727	20330	144743	27417	988537	40350	107980	0	0	8158	701880	0	0
2024-05-27 13:29:32			0	34808	0	0	0	21724	20320	144891	27326	988520	40350	107979	0	0	8158	702431	0	0
2024-05-27 13:30:32			0	34775	0	0	0	21724	20320	144927	27614	988547	40350	107979	0	0	8156	703967	0	0
2024-05-27 13:31:32			0	34740	0	0	0	21724	20330	145083	27443	988502	40350	107979	0	0	8154	705561	0	0
2024-05-27 13:32:32			0	34697	0	0	0	21722	20330	145191	27549	988502	40350	107978	0	0	8151	707571	0	0
2024-05-27 13:33:32			0	34649	0	0	0	21727	20330	145443	27287	988511	40350	107980	0	0	8149	709819	0	0
2024-05-27 13:34:32			0	34613	0	0	0	21729	20330	145611	27538	988502	40339	107981	0	0	8147	711509	0	0
2024-05-27 13:35:32			0	34588	0	0	0	21740	20340	145619	27235	988546	40340	107985	0	0	8145	712645	0	0
2024-05-27 13:36:32			0	34564	0	0	0	21732	20330	145727	27403	988511	40350	107982	0	0	8144	713814	0	0
2024-05-27 13:37:32			0	34557	0	0	0	21742	20330	145787	27713	988502	40361	107986	0	0	8143	714144	0	0
2024-05-27 13:38:32			0	34570	0	0	0	21742	20340	145743	27400	988599	40351	107986	0	0	8144	713492	0	0
2024-05-27 13:39:32			0	34598	0	0	0	21758	20330	145679	27270	988564	40361	107992	0	0	8145	712214	0	0
2024-05-27 13:40:32			0	34618	0	0	0	21755	20340	145535	27367	988546	40330	107991	0	0	8147	711235	0	0
2024-05-27 13:41:32			0	34622	0	0	0	21750	20340	145395	27296	988554	40341	107989	0	0	8147	711047	0	0
2024-05-27 13:42:32			0	34640	0	0	0	21748	20340	145387	27531	988581	40363	107988	0	0	8148	710202	0	0
2024-05-27 13:43:32			0	34671	0	0	0	21753	20340	145359	27429	988599	40351	107990	0	0	8150	708748	0	0
2024-05-27 13:44:32			0	34674	0	0	0	21758	20340	145315	27637	988581	40352	107992	0	0	8150	708608	0	0
2024-05-27 13:45:32			0	34680	0	0	0	21745	20370	145263	27618	988676	40343	107987	0	0	8150	708210	0	0
2024-05-27 13:46:32			0	34677	0	0	0	21742	20350	145215	27486	988598	40363	107986	0	0	8150	708429	0	0
2024-05-27 13:47:32			0	34718	0	0	0	21745	20340	145139	27450	988607	40352	107987	0	0	8152	706550	0	0
2024-05-27 13:48:32			0	34746	0	0	0	21735	20340	145023	27353	988625	40351	107983	0	0	8154	705242	0	0
2024-05-27 13:49:32			0	34767	0	0	0	21745	20340	144827	27734	988581	40352	107987	0	0	8155	704262	0	0
2024-05-27 13:50:32			0	34797	0	0	0	21750	20350	144759	27234	988642	40363	107989	0	0	8157	702826	0	0
2024-05-27 13:51:32			0	34826	0	0	0	21750	20350	144683	27474	988624	40352	107989	0	0	8158	701477	0	0
2024-05-27 13:52:32			0	34818	0	0	0	21742	20350	144655	27203	988616	40352	107986	0	0	8158	701849	0	0
2024-05-27 13:53:32			0	34850	0	0	0	21748	20360	144731	27556	988606	40364	107988	0	0	8160	700324	0	0
2024-05-27 13:54:32			0	34824	0	0	0	21740	20350	144591	27320	988642	40341	107985	0	0	8158	701570	0	0
2024-05-27 13:55:32			0	34852	0	0	0	21748	20350	144535	27492	988563	40341	107988	0	0	8160	700270	0	0
2024-05-27 13:56:32			0	34852	0	0	0	21737	20350	144607	27500	988598	40341	107984	0	0	8160	700270	0	0
2024-05-27 13:57:32			0	34847	0	0	0	21742	20350	144599	27614	988589	40363	107986	0	0	8160	700502	0	0
2024-05-27 13:58:32			0	34835	0	0	0	21722	20360	144555	27301	988659	40364	107978	0	0	8159	701020	0	0
2024-05-27 13:59:32			0	34863	0	0	0	21716	20340	144631	27197	988554	40352	107976	0	0	8161	699798	0	0
2024-05-27 14:00:32			0	34861	0	0	0	21696	20360	144595	27393	988606	40353	107968	0	0	8161	699813	0	0
2024-05-27 14:01:32			0	34878	0	0	0	21690	20350	144443	27769	988571	40341	107966	0	0	8162	699064	0	0
2024-05-27 14:02:32			0	34886	0	0	0	21698	20340	144391	27606	988475	40352	107969	0	0	8162	698731	0	0
2024-05-27 14:03:32			0	34906	0	0	0	21693	20340	144375	27438	988493	40351	107967	0	0	8164	697805	0	0
2024-05-27 14:04:32			0	34898	0	0	0	21685	20330	144351	27502	988484	40350	107964	0	0	8163	698214	0	0
2024-05-27 14:05:32			0	34858	0	0	0	21688	20330	144399	27343	988449	40350	107965	0	0	8161	700068	0	0
2024-05-27 14:06:32			0	34849	0	0	0	21690	20330	144511	27556	988537	40350	107966	0	0	8160	700486	0	0
2024-05-27 14:07:32			0	34829	0	0	0	21680	20330	144711	27362	988449	40329	107962	0	0	8159	701415	0	0
2024-05-27 14:08:32			0	34813	0	0	0	21677	20320	144727	27166	988459	40338	107961	0	0	8159	702198	0	0
2024-05-27 14:09:32			0	34792	0	0	0	21672	20320	144671	27261	988512	40349	107959	0	0	8158	703175	0	0
2024-05-27 14:10:32			0	34807	0	0	0	21677	20310	144743	27090	988389	40348	107961	0	0	8158	702516	0	0
2024-05-27 14:11:32			0	34798	0	0	0	21677	20300	144779	27538	988407	40326	107961	0	0	8158	702974	0	0
2024-05-27 14:12:32			0	34802	0	0	0	21675	20310	144727	27301	988363	40348	107960	0	0	8158	702749	0	0
2024-05-27 14:13:32			0	34802	0	0	0	21675	20310	144779	27244	988416	40348	107960	0	0	8158	702749	0	0
2024-05-27 14:14:32			0	34796	0	0	0	21667	20300	144855	27166	988434	40336	107957	0	0	8158	703067	0	0
2024-05-27 14:15:32			0	34786	0	0	0	21670	20310	144903	27428	988398	40349	107958	0	0	8157	703494	0	0
2024-05-27 14:16:32			0	34731	0	0	0	21670	20300	145007	27569	988381	40326	107958	0	0	8154	706098	0	0
2024-05-27 14:17:32			0	34689	0	0	0	21667	20310	145243	27504	988389	40348	107957	0	0	8152	708023	0	0
2024-05-27 14:18:32			0	34658	0	0	0	21670	20300	145359	27447	988381	40348	107958	0	0	8150	709514	0	0
2024-05-27 14:19:32			0	34655	0	0	0	21680	20300	145459	27708	988452	40348	107962	0	0	8150	709655	0	0
2024-05-27 14:20:32			0	34628	0	0	0	21683	20310	145427	27331	988389	40348	107963	0	0	8148	710883	0	0
2024-05-27 14:21:32			0	34633	0	0	0	21683	20300	145595	27737	988407	40336	107963	0	0	8148	710687	0	0
2024-05-27 14:22:32			0	34615	0	0	0	21680	20300	145563	27270	988425	40336	107962	0	0	8147	711533	0	0
2024-05-27 14:23:32			0	34605	0	0	0	21693	20310	145583	27265	988398	40349	107967	0	0	8147	711963	0	0
2024-05-27 14:24:32			0	34605	0	0	0	21693	20300	145643	27315	988434	40348	107967	0	0	8147	712003	0	0
2024-05-27 14:25:32			0	34598	0	0	0	21698	20310	145723	27386	988469	40348	107969	0	0	8146	712293	0	0
2024-05-27 14:26:32			0	34583	0	0	0	21688	20310	145663	27639	988442	40348	107965	0	0	8146	712998	0	0
2024-05-27 14:27:32			0	34579	0	0	0	21693	20300	145759	27568	988460	40348	107967	0	0	8145	713226	0	0
2024-05-27 14:28:32			0	34564	0	0	0	21701	20310	145703	27260	988522	40336	107970	0	0	8144	713893	0	0
2024-05-27 14:29:32			0	34593	0	0	0	21711	20320	145719	27326	988512	40338	107974	0	0	8146	712488	0	0
2024-05-27 14:30:32			0	34598	0	0	0	21696	20310	145687	27637	988424	40337	107968	0	0	8146	712293	0	0
2024-05-27 14:31:32			0	34605	0	0	0	21703	20310	145687	27372	988442	40348	107971	0	0	8147	711963	0	0
2024-05-27 14:32:32			0	34585	0	0	0	21698	20320	145603	27585	988459	40361	107969	0	0	8146	712865	0	0
2024-05-27 14:33:32			0	34584	0	0	0	21703	20320	145559	27576	988459	40349	107971	0	0	8145	712912	0	0
2024-05-27 14:34:32			0	34611	0	0	0	21685	20320	145519	27405	988520	40350	107964	0	0	8147	711642	0	0
2024-05-27 14:35:32			0	34622	0	0	0	21688	20310	145475	27384	988557	40360	107965	0	0	8148	711165	0	0
2024-05-27 14:36:32			0	34646	0	0	0	21693	20320	145399	27258	988459	40338	107967	0	0	8149	709999	0	0
2024-05-27 14:37:32			0	34656	0	0	0	21706	20320	145391	27422	988459	40317	107972	0	0	8149	709530	0	0
2024-05-27 14:38:32			0	34660	0	0	0	21714	20330	145387	27400	988502	40361	107975	0	0	8150	709303	0	0
2024-05-27 14:39:32			0	34677	0	0	0	21732	20320	145263	27481	988494	40339	107982	0	0	8150	708546	0	0
2024-05-27 14:40:32			0	34694	0	0	0	21735	20330	145275	27298	988608	40361	107983	0	0	8151	707711	0	0
2024-05-27 14:41:32			0	34725	0	0	0	21748	20340	145075	27223	988625	40351	107988	0	0	8153	706222	0	0
2024-05-27 14:42:32			0	34752	0	0	0	21750	20340	144859	27431	988652	40374	107989	0	0	8154	704962	0	0
2024-05-27 14:43:32			0	34817	0	0	0	21740	20340	144807	27483	988634	40352	107985	0	0	8158	701934	0	0
2024-05-27 14:44:32			0	34830	0	0	0	21732	20350	144723	27102	988677	40352	107982	0	0	8159	701291	0	0
2024-05-27 14:45:32			0	34841	0	0	0	21709	20350	144595	27341	988589	40352	107973	0	0	8160	700780	0	0
2024-05-27 14:46:32			0	34862	0	0	0	21711	20340	144615	27300	988546	40351	107974	0	0	8161	699844	0	0
2024-05-27 14:47:32			0	34852	0	0	0	21711	20350	144499	27246	988616	40352	107974	0	0	8160	700270	0	0
2024-05-27 14:48:32			0	34869	0	0	0	21714	20350	144483	27454	988616	40352	107975	0	0	8161	699481	0	0
2024-05-27 14:49:32			0	34872	0	0	0	21714	20350	144395	27339	988616	40363	107975	0	0	8161	699342	0	0
2024-05-27 14:50:32			0	34888	0	0	0	21716	20350	144363	27118	988624	40363	107976	0	0	8162	698600	0	0
2024-05-27 14:51:32			0	34906	0	0	0	21709	20350	144363	27199	988589	40352	107973	0	0	8163	697767	0	0
2024-05-27 14:52:32			0	34908	0	0	0	21701	20350	144335	27310	988571	40363	107970	0	0	8164	697674	0	0
2024-05-27 14:53:32			0	34916	0	0	0	21709	20350	144187	27144	988589	40341	107973	0	0	8164	697304	0	0
2024-05-27 14:54:32			0	34918	0	0	0	21703	20340	144171	27428	988607	40352	107971	0	0	8164	697250	0	0
2024-05-27 14:55:32			0	34938	0	0	0	21709	20340	144199	27409	988519	40351	107973	0	0	8165	696325	0	0
2024-05-27 14:56:32			0	34954	0	0	0	21685	20340	144159	27462	988599	40351	107964	0	0	8166	695586	0	0
2024-05-27 14:57:32			0	34943	0	0	0	21680	20350	144083	27093	988651	40331	107962	0	0	8166	696055	0	0
2024-05-27 14:58:32			0	34963	0	0	0	21675	20330	144131	27545	988537	40329	107960	0	0	8167	695208	0	0
2024-05-27 14:59:32			0	34940	0	0	0	21677	20340	144171	27429	988528	40352	107961	0	0	8166	696232	0	0
2024-05-27 15:00:32			0	34921	0	0	0	21667	20330	144147	27282	988511	40350	107957	0	0	8165	697149	0	0
2024-05-27 15:01:32			0	34950	0	0	0	21670	20330	144123	27431	988476	40339	107958	0	0	8166	695809	0	0
2024-05-27 15:02:32			0	34936	0	0	0	21664	20330	144187	27352	988502	40339	107956	0	0	8166	696456	0	0
2024-05-27 15:03:32			0	34919	0	0	0	21683	20330	144107	27621	988502	40350	107963	0	0	8164	697242	0	0
2024-05-27 15:04:32			0	34914	0	0	0	21709	20330	144267	27575	988529	40361	107973	0	0	8164	697473	0	0
2024-05-27 15:05:32			0	34917	0	0	0	21685	20320	144259	27436	988467	40339	107964	0	0	8164	697373	0	0
2024-05-27 15:06:32			0	34918	0	0	0	21688	20320	144247	27319	988520	40350	107965	0	0	8164	697327	0	0
2024-05-27 15:07:32			0	34925	0	0	0	21701	20330	144275	27635	988564	40350	107970	0	0	8164	696964	0	0
2024-05-27 15:08:32			0	34913	0	0	0	21714	20330	144319	27140	988555	40350	107975	0	0	8164	697520	0	0
2024-05-27 15:09:32			0	34896	0	0	0	21716	20330	144359	27428	988590	40361	107976	0	0	8163	698307	0	0
2024-05-27 15:10:32			0	34886	0	0	0	21724	20340	144331	27343	988652	40351	107979	0	0	8162	698731	0	0
2024-05-27 15:11:32			0	34889	0	0	0	21716	20340	144411	27168	988599	40340	107976	0	0	8162	698592	0	0
2024-05-27 15:12:32			0	34875	0	0	0	21706	20340	144419	27348	988661	40352	107972	0	0	8162	699241	0	0
2024-05-27 15:13:32			0	34888	0	0	0	21693	20340	144523	27293	988634	40341	107967	0	0	8163	698639	0	0
2024-05-27 15:14:32			0	34865	0	0	0	21696	20350	144523	27277	988642	40352	107968	0	0	8161	699666	0	0
2024-05-27 15:15:32			0	34874	0	0	0	21672	20350	144471	27542	988589	40352	107959	0	0	8162	699249	0	0
2024-05-27 15:16:32			0	34890	0	0	0	21677	20340	144363	27272	988546	40340	107961	0	0	8163	698546	0	0
2024-05-27 15:17:32			0	34893	0	0	0	21680	20330	144355	27397	988537	40350	107962	0	0	8163	698446	0	0
2024-05-27 15:18:32			0	34920	0	0	0	21672	20350	144271	27388	988536	40331	107959	0	0	8165	697119	0	0
2024-05-27 15:19:32			0	34889	0	0	0	21675	20340	144295	27473	988572	40330	107960	0	0	8163	698592	0	0
2024-05-27 15:20:32			0	34906	0	0	0	21680	20330	144347	27530	988511	40339	107962	0	0	8164	697844	0	0
2024-05-27 15:21:32			0	34873	0	0	0	21683	20340	144343	27287	988581	40363	107963	0	0	8162	699334	0	0
2024-05-27 15:22:32			0	34872	0	0	0	21685	20340	144427	27294	988607	40331	107964	0	0	8162	699380	0	0
2024-05-27 15:23:32			0	34849	0	0	0	21683	20350	144567	27611	988589	40341	107963	0	0	8161	700409	0	0
2024-05-27 15:24:32			0	34833	0	0	0	21701	20340	144535	27478	988607	40341	107970	0	0	8159	701191	0	0
2024-05-27 15:25:32			0	34823	0	0	0	21696	20330	144531	27417	988617	40329	107968	0	0	8159	701694	0	0
2024-05-27 15:26:32			0	34803	0	0	0	21703	20340	144763	27229	988599	40340	107971	0	0	8158	702586	0	0
2024-05-27 15:27:32			0	34778	0	0	0	21711	20350	144775	27329	988669	40341	107974	0	0	8156	703711	0	0
2024-05-27 15:28:32			0	34759	0	0	0	21727	20350	144907	27274	988695	40363	107980	0	0	8155	704597	0	0
2024-05-27 15:29:32			0	34720	0	0	0	21748	20360	144911	27549	988747	40354	107988	0	0	8152	706378	0	0
2024-05-27 15:30:32			0	34724	0	0	0	21771	20370	145043	27599	988790	40343	107997	0	0	8152	706152	0	0
2024-05-27 15:31:32			0	34725	0	0	0	21784	20380	144879	27758	988852	40343	108002	0	0	8152	706066	0	0
2024-05-27 15:32:32			0	34760	0	0	0	21792	20380	144867	27267	988913	40344	108005	0	0	8154	704433	0	0
2024-05-27 15:33:32			0	34791	0	0	0	21797	20390	144755	27334	988983	40356	108007	0	0	8156	702950	0	0
2024-05-27 15:34:32			0	34810	0	0	0	21802	20410	144675	27488	988937	40347	108009	0	0	8157	701988	0	0
2024-05-27 15:35:32			0	34849	0	0	0	21815	20410	144567	27258	988955	40347	108014	0	0	8159	700177	0	0
2024-05-27 15:36:32			0	34867	0	0	0	21815	20430	144515	27393	989069	40360	108014	0	0	8160	699264	0	0
2024-05-27 15:37:32			0	34904	0	0	0	21820	20430	144243	27445	989016	40360	108016	0	0	8162	697551	0	0
2024-05-27 15:38:32			0	34953	0	0	0	21841	20440	144111	27365	989139	40360	108024	0	0	8164	695247	0	0
2024-05-27 15:39:32			0	34972	0	0	0	21844	20440	144023	27543	989094	40361	108025	0	0	8165	694371	0	0
2024-05-27 15:40:32			0	35012	0	0	0	21859	20450	144011	27424	989102	40362	108031	0	0	8167	692490	0	0
2024-05-27 15:41:32			0	35022	0	0	0	21859	20460	143907	27440	989199	40351	108031	0	0	8168	691991	0	0
2024-05-27 15:42:32			0	35031	0	0	0	21872	20470	143787	27644	989198	40364	108036	0	0	8168	691539	0	0
2024-05-27 15:43:32			0	35043	0	0	0	21872	20470	143639	27471	989243	40364	108036	0	0	8169	690988	0	0
2024-05-27 15:44:32			0	35059	0	0	0	21867	20470	143759	27483	989269	40364	108034	0	0	8170	690253	0	0
2024-05-27 15:45:32			0	35074	0	0	0	21898	20480	143667	27478	989321	40386	108046	0	0	8170	689526	0	0
2024-05-27 15:46:32			0	35084	0	0	0	21927	20500	143755	27388	989373	40376	108057	0	0	8170	688992	0	0
2024-05-27 15:47:32			0	35079	0	0	0	21940	20500	143607	27218	989434	40366	108062	0	0	8170	689221	0	0
2024-05-27 15:48:32			0	35062	0	0	0	21942	20500	143663	27595	989487	40376	108063	0	0	8169	690001	0	0
2024-05-27 15:49:32			0	35065	0	0	0	21948	20530	143615	27371	989556	40379	108065	0	0	8169	689749	0	0
2024-05-27 15:50:32			0	35045	0	0	0	21961	20550	143747	27462	989581	40381	108070	0	0	8168	690590	0	0
2024-05-27 15:51:32			0	35000	0	0	0	21984	20550	143815	27450	989669	40381	108079	0	0	8165	692659	0	0
2024-05-27 15:52:32			0	34970	0	0	0	21989	20560	143955	27479	989659	40383	108081	0	0	8163	694002	0	0
2024-05-27 15:53:32			0	34978	0	0	0	21997	20570	144071	27324	989747	40361	108084	0	0	8163	693595	0	0
2024-05-27 15:54:32			0	34947	0	0	0	21994	20580	144059	27604	989772	40374	108083	0	0	8162	694986	0	0
2024-05-27 15:55:32			0	34949	0	0	0	22020	20600	144095	27564	989798	40396	108093	0	0	8162	694817	0	0
2024-05-27 15:56:32			0	34950	0	0	0	22057	20600	144039	27485	989851	40385	108107	0	0	8161	694771	0	0
2024-05-27 15:57:32			0	34952	0	0	0	22077	20610	144079	27197	989956	40387	108115	0	0	8161	694640	0	0
2024-05-27 15:58:32			0	34921	0	0	0	22072	20640	144119	27319	990051	40400	108113	0	0	8159	695955	0	0
2024-05-27 15:59:32			0	34912	0	0	0	22106	20640	144127	27595	990112	40401	108126	0	0	8158	696371	0	0
2024-05-27 16:00:32			0	34977	0	0	0	22137	20660	143979	27426	990173	40403	108138	0	0	8161	693296	0	0
2024-05-27 16:01:32			0	35053	0	0	0	22116	20660	143579	27081	990279	40403	108130	0	0	8166	689803	0	0
2024-05-27 16:02:32			0	35117	0	0	0	22116	20690	143316	27307	990303	40394	108130	0	0	8170	686758	0	0
2024-05-27 16:03:32			0	35156	0	0	0	22179	20710	143160	27208	990434	40407	108154	0	0	8171	684900	0	0
2024-05-27 16:04:32			0	35138	0	0	0	22132	20730	143128	27587	990495	40398	108136	0	0	8171	685646	0	0
2024-05-27 16:05:32			0	35151	0	0	0	22059	20730	143140	27377	990362	40398	108108	0	0	8173	685053	0	0
2024-05-27 16:06:32			0	35139	0	0	0	22077	20730	143200	27476	990415	40398	108115	0	0	8172	685601	0	0
2024-05-27 16:07:32			0	35103	0	0	0	22049	20740	143251	27388	990352	40398	108104	0	0	8170	687208	0	0
2024-05-27 16:08:32			0	35090	0	0	0	22038	20730	143327	27296	990335	40386	108100	0	0	8170	687841	0	0
2024-05-27 16:09:32			0	35032	0	0	0	22033	20730	143523	27412	990335	40398	108098	0	0	8167	690499	0	0
2024-05-27 16:10:32			0	35041	0	0	0	22031	20720	143523	27665	990220	40398	108097	0	0	8167	690125	0	0
2024-05-27 16:11:32			0	35038	0	0	0	22036	20730	143611	27441	990255	40375	108099	0	0	8167	690224	0	0
2024-05-27 16:12:32			0	35046	0	0	0	22057	20730	143503	27237	990282	40386	108107	0	0	8167	689857	0	0
2024-05-27 16:13:32			0	35049	0	0	0	22080	20730	143539	27557	990282	40398	108116	0	0	8167	689719	0	0
2024-05-27 16:14:32			0	35037	0	0	0	22096	20730	143571	27656	990290	40376	108122	0	0	8166	690270	0	0
2024-05-27 16:15:32			0	35013	0	0	0	22109	20740	143603	27459	990378	40387	108127	0	0	8164	691334	0	0
2024-05-27 16:16:32			0	35017	0	0	0	22137	20740	143691	27573	990405	40387	108138	0	0	8164	691150	0	0
2024-05-27 16:17:32			0	35007	0	0	0	22150	20740	143559	27346	990440	40388	108143	0	0	8163	691609	0	0
2024-05-27 16:18:32			0	35045	0	0	0	22098	20750	143423	27227	990502	40411	108123	0	0	8166	689826	0	0
2024-05-27 16:19:32			0	35098	0	0	0	22135	20750	143259	27001	990457	40400	108137	0	0	8169	687399	0	0
2024-05-27 16:20:32			0	35126	0	0	0	22171	20760	143104	27369	990580	40412	108151	0	0	8170	686080	0	0
2024-05-27 16:21:32			0	35122	0	0	0	22181	20770	143136	27154	990588	40402	108155	0	0	8169	686225	0	0
2024-05-27 16:22:32			0	35103	0	0	0	22145	20770	143163	27313	990597	40391	108141	0	0	8169	687094	0	0
2024-05-27 16:23:32			0	35092	0	0	0	22205	20790	143215	27272	990622	40381	108164	0	0	8167	687521	0	0
2024-05-27 16:24:32			0	35067	0	0	0	22181	20780	143275	27557	990640	40403	108155	0	0	8166	688703	0	0
2024-05-27 16:25:32			0	35065	0	0	0	22158	20800	143399	27402	990692	40404	108146	0	0	8167	688719	0	0
2024-05-27 16:26:32			0	35081	0	0	0	22176	20810	143219	27154	990682	40394	108153	0	0	8167	687948	0	0
2024-05-27 16:27:32			0	35080	0	0	0	22179	20800	143291	27433	990674	40393	108154	0	0	8167	688032	0	0
2024-05-27 16:28:32			0	35084	0	0	0	22176	20810	143139	27637	990717	40406	108153	0	0	8167	687811	0	0
2024-05-27 16:29:32			0	35099	0	0	0	22210	20830	143119	27762	990795	40407	108166	0	0	8168	687048	0	0
2024-05-27 16:30:32			0	35130	0	0	0	22215	20820	143052	27500	990813	40406	108168	0	0	8169	685670	0	0
2024-05-27 16:31:32			0	35146	0	0	0	22215	20830	143012	27391	990795	40418	108168	0	0	8170	684902	0	0
2024-05-27 16:32:32			0	35160	0	0	0	22199	20820	142972	27561	990813	40395	108162	0	0	8171	684301	0	0
2024-05-27 16:33:32			0	35169	0	0	0	22186	20840	142868	27398	990777	40408	108157	0	0	8172	683815	0	0
2024-05-27 16:34:32			0	35166	0	0	0	22197	20840	142840	27303	990857	40408	108161	0	0	8172	683952	0	0
2024-05-27 16:35:32			0	35184	0	0	0	22194	20850	142804	27201	990847	40397	108160	0	0	8173	683094	0	0
2024-05-27 16:36:32			0	35206	0	0	0	22181	20850	142680	27630	990856	40398	108155	0	0	8174	682093	0	0
2024-05-27 16:37:32			0	35210	0	0	0	22192	20850	142632	27476	990741	40408	108159	0	0	8174	681911	0	0
2024-05-27 16:38:32			0	35196	0	0	0	22192	20840	142692	27627	990759	40397	108159	0	0	8173	682586	0	0
2024-05-27 16:39:32			0	35192	0	0	0	22210	20860	142724	27251	990838	40399	108166	0	0	8173	682692	0	0
2024-05-27 16:40:32			0	35199	0	0	0	22228	20850	142768	27272	990856	40409	108173	0	0	8173	682411	0	0
2024-05-27 16:41:32			0	35175	0	0	0	22218	20860	142784	27192	990891	40410	108169	0	0	8172	683466	0	0
2024-05-27 16:42:32			0	35174	0	0	0	22236	20870	142932	27531	990934	40410	108176	0	0	8172	683474	0	0
2024-05-27 16:43:32			0	35138	0	0	0	22223	20860	143016	27199	990838	40399	108171	0	0	8170	685153	0	0
2024-05-27 16:44:32			0	35130	0	0	0	22244	20870	143072	27391	990934	40410	108179	0	0	8169	685480	0	0
2024-05-27 16:45:32			0	35102	0	0	0	22275	20860	143067	27324	990952	40399	108191	0	0	8167	686797	0	0
2024-05-27 16:46:32			0	35089	0	0	0	22316	20880	143183	27429	990977	40412	108207	0	0	8166	687315	0	0
2024-05-27 16:47:32			0	35070	0	0	0	22314	20890	143275	27308	991082	40434	108206	0	0	8165	688147	0	0
2024-05-27 16:48:32			0	35064	0	0	0	22285	20900	143359	27211	991117	40413	108195	0	0	8165	688383	0	0
2024-05-27 16:49:32			0	35042	0	0	0	22290	20910	143447	27279	991169	40425	108197	0	0	8164	689353	0	0
2024-05-27 16:50:32			0	35053	0	0	0	22303	20910	143331	27303	991249	40414	108202	0	0	8164	688849	0	0
2024-05-27 16:51:32			0	35056	0	0	0	22290	20920	143319	27440	991204	40426	108197	0	0	8164	688673	0	0
2024-05-27 16:52:32			0	35059	0	0	0	22277	20920	143287	27512	991213	40405	108192	0	0	8165	688536	0	0
2024-05-27 16:53:32			0	35076	0	0	0	22259	20920	143115	27303	991186	40405	108185	0	0	8166	687758	0	0
2024-05-27 16:54:32			0	35091	0	0	0	22280	20920	143095	27381	991186	40405	108193	0	0	8166	687071	0	0
2024-05-27 16:55:32			0	35082	0	0	0	22277	20930	143175	27372	991194	40416	108192	0	0	8166	687445	0	0
2024-05-27 16:56:32			0	35029	0	0	0	22288	20930	143339	27298	991203	40416	108196	0	0	8163	689872	0	0
2024-05-27 16:57:32			0	34963	0	0	0	22275	20930	143579	27298	991150	40416	108191	0	0	8160	692904	0	0
2024-05-27 16:58:32			0	34919	0	0	0	22254	20930	143747	27426	991141	40416	108183	0	0	8157	694931	0	0
2024-05-27 16:59:32			0	34862	0	0	0	22257	20930	144043	27422	991123	40405	108184	0	0	8154	697563	0	0
2024-05-27 17:00:32			0	34794	0	0	0	22270	20930	144331	27398	991282	40426	108189	0	0	8150	700713	0	0
2024-05-27 17:01:32			0	34741	0	0	0	22259	20930	144367	27327	991274	40405	108185	0	0	8148	703176	0	0
2024-05-27 17:02:32			0	34704	0	0	0	22241	20930	144643	27390	991150	40416	108178	0	0	8146	704899	0	0
2024-05-27 17:03:32			0	34682	0	0	0	22233	20930	144763	27512	991141	40405	108175	0	0	8145	705925	0	0
2024-05-27 17:04:32			0	34667	0	0	0	22233	20920	144815	27447	991071	40426	108175	0	0	8144	706665	0	0
2024-05-27 17:05:32			0	34643	0	0	0	22264	20930	144891	27467	991115	40416	108187	0	0	8142	707747	0	0
2024-05-27 17:06:32			0	34650	0	0	0	22241	20910	144863	27124	991089	40414	108178	0	0	8143	707498	0	0
2024-05-27 17:07:32			0	34642	0	0	0	22205	20920	144871	27092	991124	40415	108164	0	0	8143	707833	0	0
2024-05-27 17:08:32			0	34643	0	0	0	22207	20920	144871	27175	991071	40404	108165	0	0	8143	707786	0	0
2024-05-27 17:09:32			0	34635	0	0	0	22212	20910	144831	27159	991063	40414	108167	0	0	8142	708200	0	0
2024-05-27 17:10:32			0	34637	0	0	0	22223	20910	144927	27055	991054	40414	108171	0	0	8142	708106	0	0
2024-05-27 17:11:32			0	34648	0	0	0	22241	20910	144919	27554	991036	40392	108178	0	0	8143	707592	0	0
2024-05-27 17:12:32			0	34637	0	0	0	22238	20900	144919	27180	991046	40414	108177	0	0	8142	708145	0	0
2024-05-27 17:13:32			0	34633	0	0	0	22231	20910	144967	27265	991081	40403	108174	0	0	8142	708293	0	0
2024-05-27 17:14:32			0	34647	0	0	0	22215	20910	144915	27390	991108	40414	108168	0	0	8143	707638	0	0
2024-05-27 17:15:32			0	34668	0	0	0	22215	20910	144863	27159	991063	40414	108168	0	0	8144	706657	0	0
2024-05-27 17:16:32			0	34698	0	0	0	22218	20910	144695	27313	991081	40414	108169	0	0	8146	705257	0	0
2024-05-27 17:17:32			0	34718	0	0	0	22251	20910	144639	27204	991116	40414	108182	0	0	8146	704325	0	0
2024-05-27 17:18:32			0	34732	0	0	0	22280	20920	144587	27138	991204	40415	108193	0	0	8147	703634	0	0
2024-05-27 17:19:32			0	34735	0	0	0	22361	20930	144623	27192	991274	40416	108224	0	0	8145	703455	0	0
2024-05-27 17:20:32			0	34714	0	0	0	22402	20940	144675	27180	991424	40439	108240	0	0	8144	704394	0	0
2024-05-27 17:21:32			0	34670	0	0	0	22379	20950	144843	27371	991494	40451	108231	0	0	8142	706407	0	0
2024-05-27 17:22:32			0	34647	0	0	0	22358	20960	144851	27196	991537	40418	108223	0	0	8141	707442	0	0
2024-05-27 17:23:32			0	34661	0	0	0	22389	20970	144895	27379	991563	40431	108235	0	0	8141	706749	0	0
2024-05-27 17:24:32			0	34650	0	0	0	22467	20990	144983	27206	991623	40433	108265	0	0	8139	707184	0	0
2024-05-27 17:25:32			0	34631	0	0	0	22514	21000	144939	27301	991773	40433	108283	0	0	8137	708033	0	0
2024-05-27 17:26:32			0	34638	0	0	0	22516	21020	145047	27107	991851	40446	108284	0	0	8138	707628	0	0
2024-05-27 17:27:32			0	34652	0	0	0	22503	21030	144963	27464	991929	40448	108279	0	0	8139	706934	0	0
2024-05-27 17:28:32			0	34638	0	0	0	22503	21040	145047	27190	991885	40448	108279	0	0	8138	707549	0	0
2024-05-27 17:29:32			0	34611	0	0	0	22514	21050	145047	27293	991963	40450	108283	0	0	8137	708773	0	0
2024-05-27 17:30:32			0	34578	0	0	0	22548	21070	145203	27168	992015	40451	108296	0	0	8134	710240	0	0
2024-05-27 17:31:32			0	34570	0	0	0	22550	21080	145255	27369	992111	40452	108297	0	0	8134	710575	0	0
2024-05-27 17:32:32			0	34569	0	0	0	22566	21080	145195	27131	992173	40452	108303	0	0	8133	710622	0	0
2024-05-27 17:33:32			0	34588	0	0	0	22566	21090	145195	27305	992137	40454	108303	0	0	8135	709692	0	0
2024-05-27 17:34:32			0	34595	0	0	0	22522	21100	145043	27360	992145	40464	108286	0	0	8136	709325	0	0
2024-05-27 17:35:32			0	34628	0	0	0	22470	21110	144975	27161	992189	40432	108266	0	0	8139	707742	0	0
2024-05-27 17:36:32			0	34637	0	0	0	22498	21110	144855	27190	992197	40455	108277	0	0	8139	707321	0	0
2024-05-27 17:37:32			0	34668	0	0	0	22394	21130	144799	27395	992169	40445	108237	0	0	8142	705796	0	0
2024-05-27 17:38:32			0	34689	0	0	0	22350	21140	144727	27441	992045	40457	108220	0	0	8144	704777	0	0
2024-05-27 17:39:32			0	34665	0	0	0	22335	21110	144747	27528	991878	40422	108214	0	0	8143	706014	0	0
2024-05-27 17:40:32			0	34659	0	0	0	22371	21090	144787	27409	991783	40430	108228	0	0	8142	706372	0	0
2024-05-27 17:41:32			0	34663	0	0	0	22379	21090	144783	27291	991783	40430	108231	0	0	8142	706185	0	0
2024-05-27 17:42:32			0	34658	0	0	0	22386	21080	144743	27568	991766	40452	108234	0	0	8141	706458	0	0
2024-05-27 17:43:32			0	34671	0	0	0	22389	21070	144707	27334	991784	40441	108235	0	0	8142	705890	0	0
2024-05-27 17:44:32			0	34685	0	0	0	22407	21070	144719	27618	991829	40451	108242	0	0	8143	705237	0	0
2024-05-27 17:45:32			0	34696	0	0	0	22405	21060	144655	27230	991873	40439	108241	0	0	8143	704764	0	0
2024-05-27 17:46:32			0	34722	0	0	0	22366	21070	144571	27374	991917	40452	108226	0	0	8145	703514	0	0
2024-05-27 17:47:32			0	34722	0	0	0	22506	21080	144499	27369	991925	40452	108280	0	0	8143	703475	0	0
2024-05-27 17:48:32			0	34720	0	0	0	22527	21080	144559	27535	992085	40452	108288	0	0	8143	703568	0	0
2024-05-27 17:49:32			0	34721	0	0	0	22503	21100	144419	27402	992154	40465	108279	0	0	8143	703444	0	0
2024-05-27 17:50:32			0	34745	0	0	0	22498	21110	144463	27334	992144	40465	108277	0	0	8145	702289	0	0
2024-05-27 17:51:32			0	34748	0	0	0	22446	21120	144271	27386	992072	40444	108257	0	0	8146	702110	0	0
2024-05-27 17:52:32			0	34770	0	0	0	22483	21110	144215	27090	992091	40444	108271	0	0	8146	701127	0	0
2024-05-27 17:53:32			0	34785	0	0	0	22516	21120	144155	27410	992179	40444	108284	0	0	8147	700393	0	0
2024-05-27 17:54:32			0	34751	0	0	0	22535	21150	144335	27614	992247	40447	108291	0	0	8144	701854	0	0
2024-05-27 17:55:32			0	34753	0	0	0	22553	21150	144291	27627	992274	40458	108298	0	0	8144	701761	0	0
2024-05-27 17:56:32			0	34748	0	0	0	22599	21150	144419	27524	992362	40447	108316	0	0	8143	701993	0	0
2024-05-27 17:57:32			0	34729	0	0	0	22685	21160	144531	27178	992432	40470	108349	0	0	8141	702837	0	0
2024-05-27 17:58:32			0	34703	0	0	0	22628	21170	144503	27177	992555	40471	108327	0	0	8140	704008	0	0
2024-05-27 17:59:32			0	34689	0	0	0	22615	21190	144635	27492	992536	40461	108322	0	0	8140	704582	0	0
2024-05-27 18:00:32			0	34679	0	0	0	22589	21200	144615	27355	992606	40462	108312	0	0	8140	705009	0	0
2024-05-27 18:01:32			0	34648	0	0	0	22662	21210	144827	27270	992676	40463	108340	0	0	8137	706415	0	0
2024-05-27 18:02:32			0	34626	0	0	0	22714	21220	144875	27279	992666	40464	108360	0	0	8135	707403	0	0
2024-05-27 18:03:32			0	34603	0	0	0	22698	21230	144927	27268	992790	40476	108354	0	0	8134	708439	0	0
2024-05-27 18:04:32			0	34591	0	0	0	22501	21250	144939	27435	992735	40478	108278	0	0	8137	708922	0	0
2024-05-27 18:05:32			0	34588	0	0	0	22462	21240	144891	27220	992532	40456	108263	0	0	8137	709102	0	0
2024-05-27 18:06:32			0	34591	0	0	0	22514	21240	144807	27346	992540	40444	108283	0	0	8136	708961	0	0
2024-05-27 18:07:32			0	34610	0	0	0	22602	21220	144783	27274	992480	40454	108317	0	0	8136	708151	0	0
2024-05-27 18:08:32			0	34621	0	0	0	22657	21220	144851	27597	992613	40464	108338	0	0	8135	707637	0	0
2024-05-27 18:09:32			0	34642	0	0	0	22651	21230	144799	27426	992675	40465	108336	0	0	8137	706617	0	0
2024-05-27 18:10:32			0	34669	0	0	0	22620	21240	144651	27557	992700	40477	108324	0	0	8139	705318	0	0
2024-05-27 18:11:32			0	34682	0	0	0	22659	21250	144551	27424	992655	40478	108339	0	0	8139	704673	0	0
2024-05-27 18:12:32			0	34695	0	0	0	22667	21240	144511	27235	992780	40477	108342	0	0	8140	704107	0	0
2024-05-27 18:13:32			0	34681	0	0	0	22685	21240	144519	27350	992753	40477	108349	0	0	8138	704759	0	0
2024-05-27 18:14:32			0	34681	0	0	0	22667	21270	144551	27279	992822	40491	108342	0	0	8139	704642	0	0
2024-05-27 18:15:32			0	34674	0	0	0	22563	21280	144495	27594	992812	40481	108302	0	0	8140	704928	0	0
2024-05-27 18:16:32			0	34677	0	0	0	22537	21270	144427	27370	992698	40480	108292	0	0	8141	704828	0	0
2024-05-27 18:17:32			0	34682	0	0	0	22631	21250	144607	27389	992717	40478	108328	0	0	8139	704673	0	0
2024-05-27 18:18:32			0	34668	0	0	0	22651	21270	144615	27434	992769	40458	108336	0	0	8138	705247	0	0
2024-05-27 18:19:32			0	34676	0	0	0	22633	21270	144623	27568	992804	40491	108329	0	0	8139	704874	0	0
2024-05-27 18:20:32			0	34695	0	0	0	22636	21280	144511	27383	992812	40469	108330	0	0	8140	703951	0	0
2024-05-27 18:21:32			0	34662	0	0	0	22716	21290	144619	27588	992936	40470	108361	0	0	8137	705449	0	0
2024-05-27 18:22:32			0	34662	0	0	0	22690	21290	144651	27253	992962	40470	108351	0	0	8138	705449	0	0
2024-05-27 18:23:32			0	34670	0	0	0	22607	21300	144579	27267	992926	40471	108319	0	0	8139	705037	0	0
2024-05-27 18:24:32			0	34673	0	0	0	22581	21300	144391	27326	992793	40460	108309	0	0	8140	704897	0	0
2024-05-27 18:25:32			0	34681	0	0	0	22659	21290	144495	27370	992749	40470	108339	0	0	8139	704563	0	0
2024-05-27 18:26:32			0	34668	0	0	0	22641	21290	144623	27102	992864	40459	108332	0	0	8139	705169	0	0
2024-05-27 18:27:32			0	34671	0	0	0	22636	21290	144599	27701	992829	40459	108330	0	0	8139	705029	0	0
2024-05-27 18:28:32			0	34656	0	0	0	22610	21280	144575	27455	992874	40470	108320	0	0	8139	705768	0	0
2024-05-27 18:29:32			0	34663	0	0	0	22581	21280	144555	27286	992821	40470	108309	0	0	8139	705441	0	0
2024-05-27 18:30:32			0	34654	0	0	0	22550	21290	144611	27279	992829	40470	108297	0	0	8139	705822	0	0
2024-05-27 18:31:32			0	34658	0	0	0	22561	21280	144563	27575	992759	40458	108301	0	0	8139	705674	0	0
2024-05-27 18:32:32			0	34682	0	0	0	22542	21280	144547	27492	992786	40469	108294	0	0	8141	704556	0	0
2024-05-27 18:33:32			0	34683	0	0	0	22581	21280	144535	27417	992786	40458	108309	0	0	8141	704509	0	0
2024-05-27 18:34:32			0	34686	0	0	0	22558	21270	144579	27471	992777	40447	108300	0	0	8141	704409	0	0
2024-05-27 18:35:32			0	34665	0	0	0	22571	21280	144475	27317	992786	40458	108305	0	0	8140	705348	0	0
2024-05-27 18:36:32			0	34686	0	0	0	22623	21280	144435	27222	992866	40469	108325	0	0	8140	704369	0	0
2024-05-27 18:37:32			0	34680	0	0	0	22649	21300	144635	27336	992899	40471	108335	0	0	8139	704571	0	0
2024-05-27 18:38:32			0	34679	0	0	0	22659	21290	144583	27402	992891	40481	108339	0	0	8139	704656	0	0
2024-05-27 18:39:32			0	34689	0	0	0	22633	21300	144511	27478	992987	40483	108329	0	0	8140	704152	0	0
2024-05-27 18:40:32			0	34718	0	0	0	22615	21300	144407	27043	992987	40461	108322	0	0	8142	702803	0	0
2024-05-27 18:41:32			0	34726	0	0	0	22703	21300	144411	27173	992934	40483	108356	0	0	8141	702431	0	0
2024-05-27 18:42:32			0	34724	0	0	0	22766	21310	144439	27545	993084	40483	108380	0	0	8140	702485	0	0
2024-05-27 18:43:32			0	34730	0	0	0	22797	21330	144403	27111	993189	40474	108392	0	0	8140	702128	0	0
2024-05-27 18:44:32			0	34756	0	0	0	22867	21340	144271	27504	993294	40487	108419	0	0	8140	700882	0	0
2024-05-27 18:45:32			0	34773	0	0	0	22888	21350	144191	27455	993364	40488	108427	0	0	8141	700055	0	0
2024-05-27 18:46:32			0	34795	0	0	0	22888	21370	144039	27261	993443	40500	108427	0	0	8142	698958	0	0
2024-05-27 18:47:32			0	34826	0	0	0	22885	21380	143875	27085	993486	40500	108426	0	0	8144	697486	0	0
2024-05-27 18:48:32			0	34867	0	0	0	22880	21390	143767	27157	993583	40491	108424	0	0	8146	695554	0	0
2024-05-27 18:49:32			0	34892	0	0	0	22875	21400	143659	27235	993520	40501	108422	0	0	8148	694364	0	0
2024-05-27 18:50:32			0	34886	0	0	0	22880	21420	143579	27440	993652	40515	108424	0	0	8147	694563	0	0
2024-05-27 18:51:32			0	34897	0	0	0	22877	21420	143603	27568	993554	40504	108423	0	0	8148	694056	0	0
2024-05-27 18:52:32			0	34895	0	0	0	22888	21420	143579	27352	993607	40504	108427	0	0	8148	694148	0	0
2024-05-27 18:53:32			0	34891	0	0	0	22911	21430	143627	27222	993650	40505	108436	0	0	8147	694294	0	0
2024-05-27 18:54:32			0	34904	0	0	0	22903	21440	143643	27329	993694	40517	108433	0	0	8148	693657	0	0
2024-05-27 18:55:32			0	34904	0	0	0	22911	21460	143591	27507	993693	40508	108436	0	0	8148	693580	0	0
2024-05-27 18:56:32			0	34916	0	0	0	22901	21450	143623	27597	993702	40506	108432	0	0	8149	693066	0	0
2024-05-27 18:57:32			0	34914	0	0	0	22846	21460	143619	27630	993719	40497	108411	0	0	8150	693120	0	0
2024-05-27 18:58:32			0	34903	0	0	0	22849	21460	143571	27255	993719	40519	108412	0	0	8149	693626	0	0
2024-05-27 18:59:32			0	34907	0	0	0	22844	21460	143511	27367	993639	40486	108410	0	0	8149	693442	0	0
2024-05-27 19:00:32			0	34890	0	0	0	22825	21460	143647	27403	993621	40497	108403	0	0	8149	694224	0	0
2024-05-27 19:01:32			0	34889	0	0	0	22833	21460	143595	27208	993586	40497	108406	0	0	8148	694270	0	0
2024-05-27 19:02:32			0	34877	0	0	0	22823	21460	143711	27675	993533	40497	108402	0	0	8148	694823	0	0
2024-05-27 19:03:32			0	34870	0	0	0	22805	21440	143671	27180	993507	40484	108395	0	0	8148	695223	0	0
2024-05-27 19:04:32			0	34841	0	0	0	22779	21440	143687	27315	993481	40484	108385	0	0	8147	696561	0	0
2024-05-27 19:05:32			0	34850	0	0	0	22771	21430	143791	27391	993437	40483	108382	0	0	8147	696184	0	0
2024-05-27 19:06:32			0	34838	0	0	0	22781	21440	143819	27204	993446	40496	108386	0	0	8146	696699	0	0
2024-05-27 19:07:32			0	34793	0	0	0	22784	21430	143951	27242	993429	40494	108387	0	0	8144	698818	0	0
2024-05-27 19:08:32			0	34787	0	0	0	22805	21420	143979	27237	993421	40494	108395	0	0	8143	699134	0	0
2024-05-27 19:09:32			0	34794	0	0	0	22823	21410	144011	27519	993404	40503	108402	0	0	8143	698849	0	0
2024-05-27 19:10:32			0	34811	0	0	0	22807	21420	144035	27303	993465	40504	108396	0	0	8144	698024	0	0
2024-05-27 19:11:32			0	34816	0	0	0	22825	21410	144023	27268	993484	40503	108403	0	0	8144	697832	0	0
2024-05-27 19:12:32			0	34804	0	0	0	22849	21420	143967	27206	993421	40494	108412	0	0	8143	698348	0	0
2024-05-27 19:13:32			0	34811	0	0	0	22870	21420	143959	27457	993519	40494	108420	0	0	8143	698024	0	0
2024-05-27 19:14:32			0	34834	0	0	0	22877	21420	143991	27235	993633	40504	108423	0	0	8144	696961	0	0
2024-05-27 19:15:32			0	34829	0	0	0	22890	21430	143931	27074	993597	40516	108428	0	0	8144	697153	0	0
2024-05-27 19:16:32			0	34844	0	0	0	22888	21430	143931	27473	993562	40504	108427	0	0	8145	696461	0	0
2024-05-27 19:17:32			0	34821	0	0	0	22880	21440	143923	27256	993694	40506	108424	0	0	8144	697484	0	0
2024-05-27 19:18:32			0	34814	0	0	0	22890	21440	143923	27473	993605	40506	108428	0	0	8143	697808	0	0
2024-05-27 19:19:32			0	34829	0	0	0	22885	21440	143939	27164	993667	40517	108426	0	0	8144	697115	0	0
2024-05-27 19:20:32			0	34801	0	0	0	22885	21440	143931	27069	993640	40506	108426	0	0	8143	698409	0	0
2024-05-27 19:21:32			0	34821	0	0	0	22896	21460	143915	27206	993719	40508	108430	0	0	8144	697407	0	0
2024-05-27 19:22:32			0	34813	0	0	0	22901	21460	143947	27275	993674	40508	108432	0	0	8143	697776	0	0
2024-05-27 19:23:32			0	34821	0	0	0	22909	21460	143859	27338	993719	40508	108435	0	0	8143	697407	0	0
2024-05-27 19:24:32			0	34838	0	0	0	22903	21460	143783	27414	993754	40519	108433	0	0	8144	696621	0	0
2024-05-27 19:25:32			0	34838	0	0	0	22880	21470	143779	27364	993709	40508	108424	0	0	8145	696583	0	0
2024-05-27 19:26:32			0	34862	0	0	0	22888	21470	143803	27367	993771	40498	108427	0	0	8146	695476	0	0
2024-05-27 19:27:32			0	34849	0	0	0	22880	21470	143727	27324	993683	40508	108424	0	0	8146	696075	0	0
2024-05-27 19:28:32			0	34837	0	0	0	22890	21480	143875	27500	993753	40509	108428	0	0	8145	696590	0	0
2024-05-27 19:29:32			0	34814	0	0	0	22857	21470	143983	27371	993744	40509	108415	0	0	8144	697691	0	0
2024-05-27 19:30:32			0	34786	0	0	0	22849	21470	143951	27391	993656	40497	108412	0	0	8143	698987	0	0
2024-05-27 19:31:32			0	34764	0	0	0	22838	21440	144015	27762	993640	40484	108408	0	0	8141	700122	0	0
2024-05-27 19:32:32			0	34760	0	0	0	22833	21460	144047	27554	993639	40497	108406	0	0	8141	700230	0	0
2024-05-27 19:33:32			0	34743	0	0	0	22825	21460	144119	27559	993586	40508	108403	0	0	8141	701018	0	0
2024-05-27 19:34:32			0	34726	0	0	0	22833	21440	144107	27428	993561	40506	108406	0	0	8139	701885	0	0
2024-05-27 19:35:32			0	34737	0	0	0	22831	21440	144167	27228	993481	40517	108405	0	0	8140	701374	0	0
2024-05-27 19:36:32			0	34732	0	0	0	22831	21440	144303	27647	993552	40484	108405	0	0	8140	701606	0	0
2024-05-27 19:37:32			0	34722	0	0	0	22833	21440	144243	27611	993499	40517	108406	0	0	8139	702070	0	0
2024-05-27 19:38:32			0	34732	0	0	0	22838	21440	144171	27209	993587	40506	108408	0	0	8140	701606	0	0
2024-05-27 19:39:32			0	34766	0	0	0	22831	21450	144191	27093	993542	40496	108405	0	0	8142	699990	0	0
2024-05-27 19:40:32			0	34754	0	0	0	22828	21440	144219	27222	993587	40496	108404	0	0	8141	700585	0	0
2024-05-27 19:41:32			0	34764	0	0	0	22831	21440	144163	27270	993552	40506	108405	0	0	8142	700122	0	0
2024-05-27 19:42:32			0	34765	0	0	0	22818	21440	144155	27424	993561	40506	108400	0	0	8142	700076	0	0
2024-05-27 19:43:32			0	34748	0	0	0	22815	21430	144143	27542	993517	40505	108399	0	0	8141	700903	0	0
2024-05-27 19:44:32			0	34746	0	0	0	22815	21440	144191	27102	993526	40506	108399	0	0	8141	700957	0	0
2024-05-27 19:45:32			0	34763	0	0	0	22820	21440	144203	27293	993526	40496	108401	0	0	8142	700168	0	0
2024-05-27 19:46:32			0	34721	0	0	0	22818	21430	144319	27201	993535	40494	108400	0	0	8139	702156	0	0
2024-05-27 19:47:32			0	34722	0	0	0	22818	21430	144363	27289	993509	40504	108400	0	0	8139	702109	0	0
2024-05-27 19:48:32			0	34707	0	0	0	22810	21410	144343	27216	993510	40503	108397	0	0	8139	702884	0	0
2024-05-27 19:49:32			0	34702	0	0	0	22818	21420	144335	27092	993500	40494	108400	0	0	8138	703078	0	0
2024-05-27 19:50:32			0	34700	0	0	0	22807	21420	144431	27187	993421	40504	108396	0	0	8138	703171	0	0
2024-05-27 19:51:32			0	34719	0	0	0	22797	21420	144395	27150	993447	40504	108392	0	0	8139	702288	0	0
2024-05-27 19:52:32			0	34706	0	0	0	22799	21410	144423	27045	993510	40493	108393	0	0	8139	702931	0	0
2024-05-27 19:53:32			0	34725	0	0	0	22799	21400	144339	27779	993369	40492	108393	0	0	8140	702087	0	0
2024-05-27 19:54:32			0	34701	0	0	0	22802	21400	144399	27192	993422	40502	108394	0	0	8138	703202	0	0
2024-05-27 19:55:32			0	34725	0	0	0	22792	21390	144295	27331	993378	40501	108390	0	0	8140	702126	0	0
2024-05-27 19:56:32			0	34763	0	0	0	22802	21400	144211	27403	993334	40501	108394	0	0	8142	700324	0	0
2024-05-27 19:57:32			0	34771	0	0	0	22789	21400	144131	27656	993387	40501	108389	0	0	8142	699953	0	0
2024-05-27 19:58:32			0	34792	0	0	0	22784	21390	144191	27576	993352	40513	108387	0	0	8144	699020	0	0
2024-05-27 19:59:32			0	34777	0	0	0	22781	21390	144103	27462	993290	40501	108386	0	0	8143	699714	0	0
2024-05-27 20:00:32			0	34784	0	0	0	22774	21390	144023	27405	993343	40501	108383	0	0	8143	699390	0	0
2024-05-27 20:01:32			0	34809	0	0	0	22758	21380	143887	27419	993247	40500	108377	0	0	8145	698272	0	0
2024-05-27 20:02:32			0	34810	0	0	0	22763	21390	143939	27086	993264	40501	108379	0	0	8145	698187	0	0
2024-05-27 20:03:32			0	34830	0	0	0	22774	21380	143943	27003	993255	40501	108383	0	0	8146	697301	0	0
2024-05-27 20:04:32			0	34841	0	0	0	22776	21380	143903	27289	993202	40501	108384	0	0	8146	696793	0	0
2024-05-27 20:05:32			0	34812	0	0	0	22774	21370	143999	27010	993238	40500	108383	0	0	8145	698172	0	0
2024-05-27 20:06:32			0	34811	0	0	0	22774	21380	144027	27277	993247	40489	108383	0	0	8145	698179	0	0
2024-05-27 20:07:32			0	34798	0	0	0	22771	21380	144047	27206	993247	40511	108382	0	0	8144	698781	0	0
2024-05-27 20:08:32			0	34826	0	0	0	22768	21370	143971	27116	993336	40500	108381	0	0	8146	697524	0	0
2024-05-27 20:09:32			0	34832	0	0	0	22776	21370	143963	27251	993310	40489	108384	0	0	8146	697247	0	0
2024-05-27 20:10:32			0	34825	0	0	0	22761	21360	143963	27079	993248	40489	108378	0	0	8146	697609	0	0
2024-05-27 20:11:32			0	34857	0	0	0	22768	21370	143855	27310	993177	40489	108381	0	0	8147	696093	0	0
2024-05-27 20:12:32			0	34870	0	0	0	22771	21370	143899	27402	993265	40500	108382	0	0	8148	695493	0	0
2024-05-27 20:13:32			0	34848	0	0	0	22766	21360	143919	27367	993160	40499	108380	0	0	8147	696547	0	0
2024-05-27 20:14:32			0	34840	0	0	0	22763	21360	143907	27196	993222	40510	108379	0	0	8146	696916	0	0
2024-05-27 20:15:32			0	34828	0	0	0	22755	21360	144043	27057	993222	40500	108376	0	0	8146	697471	0	0
2024-05-27 20:16:32			0	34796	0	0	0	22763	21360	144195	27443	993195	40500	108379	0	0	8144	698951	0	0
2024-05-27 20:17:32			0	34779	0	0	0	22761	21370	144283	27312	993257	40500	108378	0	0	8143	699699	0	0
2024-05-27 20:18:32			0	34734	0	0	0	22763	21370	144383	27199	993283	40500	108379	0	0	8141	701786	0	0
2024-05-27 20:19:32			0	34736	0	0	0	22771	21360	144323	27176	993213	40499	108382	0	0	8141	701732	0	0
2024-05-27 20:20:32			0	34761	0	0	0	22761	21360	144323	27459	993222	40500	108378	0	0	8142	700572	0	0
2024-05-27 20:21:32			0	34762	0	0	0	22750	21370	144127	27150	993257	40511	108374	0	0	8142	700487	0	0
2024-05-27 20:22:32			0	34804	0	0	0	22761	21370	144115	27197	993230	40500	108378	0	0	8145	698542	0	0
2024-05-27 20:23:32			0	34792	0	0	0	22761	21350	144043	26902	993231	40509	108378	0	0	8144	699175	0	0
2024-05-27 20:24:32			0	34796	0	0	0	22753	21360	144127	27142	993213	40499	108375	0	0	8144	698951	0	0
2024-05-27 20:25:32			0	34776	0	0	0	22761	21360	144183	26941	993168	40500	108378	0	0	8143	699877	0	0
2024-05-27 20:26:32			0	34782	0	0	0	22766	21350	144167	27395	993152	40499	108380	0	0	8143	699638	0	0
2024-05-27 20:27:32			0	34758	0	0	0	22768	21350	144195	27235	993196	40509	108381	0	0	8142	700750	0	0
2024-05-27 20:28:32			0	34747	0	0	0	22774	21350	144271	27062	993178	40499	108383	0	0	8141	701261	0	0
2024-05-27 20:29:32			0	34749	0	0	0	22779	21360	144303	27206	993222	40500	108385	0	0	8141	701129	0	0
2024-05-27 20:30:32			0	34775	0	0	0	22779	21360	144251	27407	993240	40499	108385	0	0	8143	699923	0	0
2024-05-27 20:31:32			0	34790	0	0	0	22774	21360	144115	27022	993222	40489	108383	0	0	8144	699229	0	0
2024-05-27 20:32:32			0	34823	0	0	0	22781	21360	144047	27234	993293	40499	108386	0	0	8145	697702	0	0
2024-05-27 20:33:32			0	34860	0	0	0	22786	21370	143871	27242	993230	40511	108388	0	0	8147	695954	0	0
2024-05-27 20:34:32			0	34865	0	0	0	22784	21370	143699	27013	993283	40500	108387	0	0	8148	695724	0	0
2024-05-27 20:35:32			0	34908	0	0	0	22789	21360	143623	27215	993328	40489	108389	0	0	8150	693781	0	0
2024-05-27 20:36:32			0	34944	0	0	0	22768	21370	143487	27095	993230	40500	108381	0	0	8152	692087	0	0
2024-05-27 20:37:32			0	34981	0	0	0	22753	21360	143195	27048	993275	40500	108375	0	0	8154	690427	0	0
2024-05-27 20:38:32			0	35032	0	0	0	22748	21370	143059	27180	993150	40500	108373	0	0	8157	688053	0	0
2024-05-27 20:39:32			0	35080	0	0	0	22766	21360	142951	27064	993240	40488	108380	0	0	8160	685898	0	0
2024-05-27 20:40:32			0	35083	0	0	0	22758	21350	142887	27005	993178	40499	108377	0	0	8160	685799	0	0
2024-05-27 20:41:32			0	35053	0	0	0	22748	21350	142851	27232	993196	40509	108373	0	0	8158	687169	0	0
2024-05-27 20:42:32			0	35048	0	0	0	22742	21360	142955	27457	993133	40509	108371	0	0	8158	687359	0	0
2024-05-27 20:43:32			0	35049	0	0	0	22748	21350	142995	27268	993152	40499	108373	0	0	8158	687352	0	0
2024-05-27 20:44:32			0	35051	0	0	0	22753	21340	142939	27190	993135	40508	108375	0	0	8158	687299	0	0
2024-05-27 20:45:32			0	35046	0	0	0	22742	21350	143003	27289	993196	40499	108371	0	0	8158	687489	0	0
2024-05-27 20:46:32			0	35035	0	0	0	22748	21340	143135	27171	993108	40498	108373	0	0	8157	688030	0	0
2024-05-27 20:47:32			0	34999	0	0	0	22750	21340	143211	27242	993135	40508	108374	0	0	8155	689679	0	0
2024-05-27 20:48:32			0	34994	0	0	0	22748	21340	143207	27348	993161	40508	108373	0	0	8155	689908	0	0
2024-05-27 20:49:32			0	34969	0	0	0	22753	21350	143303	27223	993170	40488	108375	0	0	8154	691016	0	0
2024-05-27 20:50:32			0	34971	0	0	0	22750	21330	143303	27405	993198	40507	108374	0	0	8154	691001	0	0
2024-05-27 20:51:32			0	34968	0	0	0	22750	21340	143371	27416	993126	40497	108374	0	0	8154	691100	0	0
2024-05-27 20:52:32			0	34961	0	0	0	22761	21350	143247	27033	993143	40509	108378	0	0	8153	691383	0	0
2024-05-27 20:53:32			0	34955	0	0	0	22761	21350	143343	27237	993143	40499	108378	0	0	8153	691659	0	0
2024-05-27 20:54:32			0	34957	0	0	0	22763	21340	143355	27448	993161	40487	108379	0	0	8153	691605	0	0
2024-05-27 20:55:32			0	34955	0	0	0	22755	21350	143411	27287	993170	40509	108376	0	0	8153	691659	0	0
2024-05-27 20:56:32			0	34905	0	0	0	22755	21340	143575	27313	993188	40487	108376	0	0	8150	693996	0	0
2024-05-27 20:57:32			0	34875	0	0	0	22753	21340	143715	27248	993161	40487	108375	0	0	8148	695379	0	0
2024-05-27 20:58:32			0	34862	0	0	0	22753	21340	143771	27069	993188	40508	108375	0	0	8148	695978	0	0
2024-05-27 20:59:32			0	34837	0	0	0	22745	21340	143931	27197	993161	40508	108372	0	0	8147	697132	0	0
2024-05-27 21:00:32			0	34804	0	0	0	22745	21330	144039	27360	993118	40486	108372	0	0	8145	698697	0	0
2024-05-27 21:01:32			0	34789	0	0	0	22750	21340	143959	27102	993082	40498	108374	0	0	8144	699352	0	0
2024-05-27 21:02:32			0	34770	0	0	0	22740	21340	144067	27286	993188	40508	108370	0	0	8143	700233	0	0
2024-05-27 21:03:32			0	34792	0	0	0	22742	21340	144063	27216	993161	40508	108371	0	0	8144	699214	0	0
2024-05-27 21:04:32			0	34824	0	0	0	22745	21340	143987	27126	993153	40507	108372	0	0	8146	697733	0	0
2024-05-27 21:05:32			0	34878	0	0	0	22748	21340	143611	27196	993188	40498	108373	0	0	8149	695240	0	0
2024-05-27 21:06:32			0	34932	0	0	0	22742	21350	143431	27294	993170	40499	108371	0	0	8152	692716	0	0
2024-05-27 21:07:32			0	35004	0	0	0	22745	21350	143155	27053	993090	40499	108372	0	0	8156	689411	0	0
2024-05-27 21:08:32			0	35053	0	0	0	22748	21340	143063	26918	993188	40508	108373	0	0	8158	687207	0	0
2024-05-27 21:09:32			0	35083	0	0	0	22755	21340	142931	27261	993206	40507	108376	0	0	8160	685837	0	0
2024-05-27 21:10:32			0	35064	0	0	0	22758	21350	142991	27329	993231	40499	108377	0	0	8159	686667	0	0
2024-05-27 21:11:32			0	35029	0	0	0	22755	21340	143119	27013	993215	40498	108376	0	0	8157	688305	0	0
2024-05-27 21:12:32			0	34970	0	0	0	22750	21340	143223	27371	993215	40498	108374	0	0	8154	691008	0	0
2024-05-27 21:13:32			0	34942	0	0	0	22737	21340	143419	26883	993188	40487	108369	0	0	8152	692294	0	0
2024-05-27 21:14:32			0	34891	0	0	0	22742	21340	143607	27022	993135	40498	108371	0	0	8150	694641	0	0
2024-05-27 21:15:32			0	34846	0	0	0	22735	21350	143863	26965	993170	40488	108368	0	0	8147	696678	0	0
2024-05-27 21:16:32			0	34824	0	0	0	22732	21350	143991	27419	993143	40488	108367	0	0	8146	697694	0	0
2024-05-27 21:17:32			0	34776	0	0	0	22729	21350	144047	26925	993178	40499	108366	0	0	8143	699916	0	0
2024-05-27 21:18:32			0	34772	0	0	0	22729	21340	144227	27170	993100	40497	108366	0	0	8143	700140	0	0
2024-05-27 21:19:32			0	34743	0	0	0	22727	21340	144183	27071	993100	40497	108365	0	0	8142	701485	0	0
2024-05-27 21:20:32			0	34732	0	0	0	22732	21340	144275	27428	993188	40487	108367	0	0	8141	701996	0	0
2024-05-27 21:21:32			0	34713	0	0	0	22724	21340	144343	27474	993073	40486	108364	0	0	8140	702879	0	0
2024-05-27 21:22:32			0	34708	0	0	0	22724	21340	144315	27424	993073	40497	108364	0	0	8140	703111	0	0
2024-05-27 21:23:32			0	34788	0	0	0	22727	21330	143967	27364	993118	40507	108365	0	0	8144	699438	0	0
2024-05-27 21:24:32			0	34908	0	0	0	22735	21330	143511	27410	993109	40496	108368	0	0	8151	693897	0	0
2024-05-27 21:25:32			0	35052	0	0	0	22729	21340	142899	27300	993126	40486	108366	0	0	8159	687253	0	0
2024-05-27 21:26:32			0	35163	0	0	0	22729	21330	142520	27260	993118	40507	108366	0	0	8165	682232	0	0
2024-05-27 21:27:32			0	35287	0	0	0	22745	21330	142064	27550	993091	40486	108372	0	0	8171	676613	0	0
2024-05-27 21:28:32			0	35374	0	0	0	22755	21330	141680	27360	993136	40506	108376	0	0	8176	672690	0	0
2024-05-27 21:29:32			0	35490	0	0	0	22761	21340	141336	27274	993161	40498	108378	0	0	8182	667450	0	0
2024-05-27 21:30:32			0	35596	0	0	0	22766	21350	140784	27034	993223	40488	108380	0	0	8188	662684	0	0
2024-05-27 21:31:32			0	35685	0	0	0	22779	21340	140508	26958	993241	40498	108385	0	0	8192	658769	0	0
2024-05-27 21:32:32			0	35731	0	0	0	22774	21350	140256	27008	993196	40509	108383	0	0	8195	656697	0	0
2024-05-27 21:33:32			0	35729	0	0	0	22779	21350	140124	27327	993250	40520	108385	0	0	8195	656786	0	0
2024-05-27 21:34:32			0	35750	0	0	0	22776	21340	140252	27381	993241	40498	108384	0	0	8196	655894	0	0
2024-05-27 21:35:32			0	35730	0	0	0	22776	21340	140324	27203	993180	40497	108384	0	0	8195	656778	0	0
2024-05-27 21:36:32			0	35730	0	0	0	22776	21350	140416	27131	993285	40520	108384	0	0	8195	656741	0	0
2024-05-27 21:37:32			0	35715	0	0	0	22768	21340	140556	27157	993215	40519	108381	0	0	8194	657441	0	0
2024-05-27 21:38:32			0	35702	0	0	0	22766	21350	140500	27109	993250	40499	108380	0	0	8193	657980	0	0
2024-05-27 21:39:32			0	35666	0	0	0	22763	21350	140512	27372	993178	40509	108379	0	0	8192	659575	0	0
2024-05-27 21:40:32			0	35655	0	0	0	22750	21340	140640	27315	993180	40507	108374	0	0	8191	660100	0	0
2024-05-27 21:41:32			0	35638	0	0	0	22761	21340	140796	27253	993180	40497	108378	0	0	8190	660854	0	0
2024-05-27 21:42:32			0	35630	0	0	0	22758	21340	140752	27336	993180	40497	108377	0	0	8190	661209	0	0
2024-05-27 21:43:32			0	35613	0	0	0	22748	21340	140760	27294	993233	40507	108373	0	0	8189	661965	0	0
2024-05-27 21:44:32			0	35635	0	0	0	22748	21340	140724	27388	993188	40498	108373	0	0	8190	660987	0	0
2024-05-27 21:45:32			0	35622	0	0	0	22745	21340	140776	27563	993126	40507	108372	0	0	8189	661565	0	0
2024-05-27 21:46:32			0	35608	0	0	0	22748	21340	140664	27414	993153	40507	108373	0	0	8189	662187	0	0
2024-05-27 21:47:32			0	35583	0	0	0	22748	21340	140852	27533	993180	40519	108373	0	0	8187	663300	0	0
2024-05-27 21:48:32			0	35569	0	0	0	22753	21340	140936	27211	993153	40507	108375	0	0	8186	663923	0	0
2024-05-27 21:49:32			0	35545	0	0	0	22745	21340	140988	27533	993126	40497	108372	0	0	8185	664993	0	0
2024-05-27 21:50:32			0	35536	0	0	0	22745	21330	141148	27227	993091	40497	108372	0	0	8185	665432	0	0
2024-05-27 21:51:32			0	35595	0	0	0	22745	21320	140944	27341	993127	40518	108372	0	0	8188	662839	0	0
2024-05-27 21:52:32			0	35687	0	0	0	22750	21330	140468	27199	993189	40506	108374	0	0	8193	658717	0	0
2024-05-27 21:53:32			0	35764	0	0	0	22745	21330	140256	27157	993189	40496	108372	0	0	8197	655313	0	0
2024-05-27 21:54:32			0	35779	0	0	0	22748	21340	140128	27296	993153	40507	108373	0	0	8198	654614	0	0
2024-05-27 21:55:32			0	35769	0	0	0	22748	21340	140096	27379	993161	40487	108373	0	0	8197	655055	0	0
2024-05-27 21:56:32			0	35767	0	0	0	22755	21340	140220	27528	993180	40497	108376	0	0	8197	655144	0	0
2024-05-27 21:57:32			0	35692	0	0	0	22755	21350	140452	27367	993196	40499	108376	0	0	8193	658423	0	0
2024-05-27 21:58:32			0	35608	0	0	0	22753	21340	140748	27452	993135	40498	108375	0	0	8189	662187	0	0
2024-05-27 21:59:32			0	35529	0	0	0	22758	21330	141048	27479	993216	40485	108377	0	0	8184	665744	0	0
2024-05-27 22:00:32			0	35444	0	0	0	22761	21330	141368	27306	993162	40496	108378	0	0	8179	669547	0	0
2024-05-27 22:01:32			0	35361	0	0	0	22753	21330	141796	27279	993145	40486	108375	0	0	8175	673275	0	0
2024-05-27 22:02:32			0	35297	0	0	0	22753	21330	141940	27352	993171	40507	108375	0	0	8172	676161	0	0
2024-05-27 22:03:32			0	35238	0	0	0	22742	21340	142284	27249	993135	40531	108371	0	0	8169	678791	0	0
2024-05-27 22:04:32			0	35150	0	0	0	22740	21340	142596	27422	993206	40519	108370	0	0	8164	682785	0	0
2024-05-27 22:05:32			0	35094	0	0	0	22745	21330	142735	27552	993091	40507	108372	0	0	8161	685373	0	0
2024-05-27 22:06:32			0	35040	0	0	0	22740	21340	143095	27492	993188	40508	108370	0	0	8158	687802	0	0
2024-05-27 22:07:32			0	34998	0	0	0	22745	21340	143227	27147	993153	40497	108372	0	0	8155	689724	0	0
2024-05-27 22:08:32			0	34960	0	0	0	22729	21330	143503	27067	993118	40519	108366	0	0	8154	691506	0	0
2024-05-27 22:09:32			0	34882	0	0	0	22732	21330	143675	27177	993189	40506	108367	0	0	8149	695094	0	0
2024-05-27 22:10:32			0	34840	0	0	0	22735	21340	143903	27220	993126	40507	108368	0	0	8147	696994	0	0
2024-05-27 22:11:32			0	34776	0	0	0	22742	21330	144115	27339	993083	40485	108371	0	0	8143	699994	0	0
2024-05-27 22:12:32			0	34742	0	0	0	22727	21340	144327	27204	993126	40519	108365	0	0	8142	701532	0	0
2024-05-27 22:13:32			0	34715	0	0	0	22735	21320	144451	27182	993074	40496	108368	0	0	8140	702864	0	0
2024-05-27 22:14:32			0	34685	0	0	0	22724	21320	144575	27436	993074	40518	108364	0	0	8138	704260	0	0
2024-05-27 22:15:32			0	34647	0	0	0	22732	21320	144771	27578	993101	40506	108367	0	0	8136	706031	0	0
2024-05-27 22:16:32			0	34656	0	0	0	22732	21330	144683	27319	993065	40497	108367	0	0	8137	705572	0	0
2024-05-27 22:17:32			0	34649	0	0	0	22724	21320	144703	27176	993066	40495	108364	0	0	8136	705937	0	0
2024-05-27 22:18:32			0	34632	0	0	0	22714	21320	144791	27372	993039	40495	108360	0	0	8136	706731	0	0
2024-05-27 22:19:32			0	34614	0	0	0	22716	21310	144799	27199	993031	40494	108361	0	0	8135	707611	0	0
2024-05-27 22:20:32			0	34632	0	0	0	22714	21320	144823	27223	993048	40496	108360	0	0	8136	706731	0	0
2024-05-27 22:21:32			0	34624	0	0	0	22711	21320	144843	27192	993074	40506	108359	0	0	8135	707104	0	0
2024-05-27 22:22:32			0	34616	0	0	0	22714	21310	144819	27355	993004	40494	108360	0	0	8135	707517	0	0
2024-05-27 22:23:32			0	34617	0	0	0	22714	21320	144887	27307	993066	40506	108360	0	0	8135	707431	0	0
2024-05-27 22:24:32			0	34588	0	0	0	22703	21310	144971	27556	993057	40505	108356	0	0	8133	708826	0	0
2024-05-27 22:25:32			0	34581	0	0	0	22703	21310	145111	27114	993022	40505	108356	0	0	8133	709154	0	0
2024-05-27 22:26:32			0	34553	0	0	0	22696	21310	145079	27497	992969	40494	108353	0	0	8131	710465	0	0
2024-05-27 22:27:32			0	34532	0	0	0	22698	21310	145163	27436	993022	40505	108354	0	0	8130	711450	0	0
2024-05-27 22:28:32			0	34548	0	0	0	22698	21310	145163	27308	992996	40505	108354	0	0	8131	710700	0	0
2024-05-27 22:29:32			0	34503	0	0	0	22696	21300	145235	27208	992926	40494	108353	0	0	8129	712852	0	0
2024-05-27 22:30:32			0	34494	0	0	0	22698	21290	145303	27357	992944	40493	108354	0	0	8128	713314	0	0
2024-05-27 22:31:32			0	34489	0	0	0	22696	21300	145359	27431	992987	40494	108353	0	0	8128	713510	0	0
2024-05-27 22:32:32			0	34486	0	0	0	22693	21300	145459	27414	992952	40482	108352	0	0	8128	713651	0	0
2024-05-27 22:33:32			0	34468	0	0	0	22690	21290	145383	27383	992971	40493	108351	0	0	8127	714537	0	0
2024-05-27 22:34:32			0	34473	0	0	0	22696	21300	145443	27313	992926	40504	108353	0	0	8127	714262	0	0
2024-05-27 22:35:32			0	34481	0	0	0	22698	21300	145419	27447	992952	40482	108354	0	0	8127	713886	0	0
2024-05-27 22:36:32			0	34488	0	0	0	22693	21300	145387	27332	992926	40504	108352	0	0	8128	713557	0	0
2024-05-27 22:37:32			0	34469	0	0	0	22698	21290	145419	27441	992944	40493	108354	0	0	8127	714490	0	0
2024-05-27 22:38:32			0	34490	0	0	0	22693	21290	145299	26913	992891	40493	108352	0	0	8128	713502	0	0
2024-05-27 22:39:32			0	34499	0	0	0	22685	21280	145307	27142	992980	40503	108349	0	0	8128	713119	0	0
2024-05-27 22:40:32			0	34514	0	0	0	22696	21280	145311	27284	992919	40492	108353	0	0	8129	712414	0	0
2024-05-27 22:41:32			0	34513	0	0	0	22693	21290	145379	26998	992909	40503	108352	0	0	8129	712421	0	0
2024-05-27 22:42:32			0	34540	0	0	0	22696	21280	145191	27015	992892	40502	108353	0	0	8131	711193	0	0
2024-05-27 22:43:32			0	34532	0	0	0	22696	21280	145143	27365	992919	40492	108353	0	0	8130	711569	0	0
2024-05-27 22:44:32			0	34568	0	0	0	22693	21280	145107	27170	992927	40503	108352	0	0	8132	709881	0	0
2024-05-27 22:45:32			0	34606	0	0	0	22670	21270	144911	27500	992857	40491	108343	0	0	8135	708142	0	0
2024-05-27 22:46:32			0	34646	0	0	0	22672	21280	144719	27633	992866	40502	108344	0	0	8137	706234	0	0
2024-05-27 22:47:32			0	34693	0	0	0	22675	21290	144503	27294	992856	40514	108345	0	0	8140	704005	0	0
2024-05-27 22:48:32			0	34726	0	0	0	22664	21280	144327	27561	992892	40492	108341	0	0	8141	702509	0	0
2024-05-27 22:49:32			0	34783	0	0	0	22672	21270	144191	27372	992884	40491	108344	0	0	8144	699902	0	0
2024-05-27 22:50:32			0	34816	0	0	0	22672	21270	144003	27528	992849	40501	108344	0	0	8146	698374	0	0
2024-05-27 22:51:32			0	34847	0	0	0	22675	21270	143911	27464	992884	40501	108345	0	0	8148	696941	0	0
2024-05-27 22:52:32			0	34861	0	0	0	22675	21270	143819	27320	992857	40491	108345	0	0	8149	696295	0	0
2024-05-27 22:53:32			0	34838	0	0	0	22675	21270	143819	27227	992857	40501	108345	0	0	8147	697357	0	0
2024-05-27 22:54:32			0	34822	0	0	0	22675	21270	143887	27434	992875	40491	108345	0	0	8147	698097	0	0
2024-05-27 22:55:32			0	34800	0	0	0	22672	21280	143979	27279	992812	40502	108344	0	0	8145	699076	0	0
2024-05-27 22:56:32			0	34798	0	0	0	22662	21270	143967	27419	992822	40491	108340	0	0	8145	699208	0	0
2024-05-27 22:57:32			0	34799	0	0	0	22664	21260	143959	27242	992867	40500	108341	0	0	8145	699200	0	0
2024-05-27 22:58:32			0	34833	0	0	0	22662	21270	143891	27336	992796	40501	108340	0	0	8147	697588	0	0
2024-05-27 22:59:32			0	34875	0	0	0	22659	21260	143695	27074	992832	40490	108339	0	0	8150	695688	0	0
2024-05-27 23:00:32			0	34941	0	0	0	22657	21260	143563	27417	992814	40500	108338	0	0	8153	692648	0	0
2024-05-27 23:01:32			0	34983	0	0	0	22664	21260	143335	27687	992814	40511	108341	0	0	8156	690719	0	0
2024-05-27 23:02:32			0	35018	0	0	0	22654	21260	143227	27372	992805	40500	108337	0	0	8158	689114	0	0
2024-05-27 23:03:32			0	35063	0	0	0	22662	21260	142959	27682	992840	40490	108340	0	0	8160	687056	0	0
2024-05-27 23:04:32			0	35122	0	0	0	22659	21260	142720	27256	992840	40500	108339	0	0	8163	684363	0	0
2024-05-27 23:05:32			0	35139	0	0	0	22649	21260	142744	27260	992814	40479	108335	0	0	8164	683589	0	0
2024-05-27 23:06:32			0	35165	0	0	0	22657	21260	142608	27244	992779	40490	108338	0	0	8166	682406	0	0
2024-05-27 23:07:32			0	35203	0	0	0	22659	21260	142368	26984	992779	40490	108339	0	0	8168	680680	0	0
2024-05-27 23:08:32			0	35267	0	0	0	22657	21260	142132	27000	992779	40479	108338	0	0	8171	677780	0	0
2024-05-27 23:09:32			0	35322	0	0	0	22664	21250	141760	27131	992770	40500	108341	0	0	8174	675333	0	0
2024-05-27 23:10:32			0	35375	0	0	0	22651	21250	141648	27208	992788	40489	108336	0	0	8177	672944	0	0
2024-05-27 23:11:32			0	35428	0	0	0	22662	21250	141520	27357	992744	40489	108340	0	0	8180	670562	0	0
2024-05-27 23:12:32			0	35425	0	0	0	22657	21260	141388	27274	992779	40500	108338	0	0	8180	670660	0	0
2024-05-27 23:13:32			0	35462	0	0	0	22659	21250	141384	27090	992762	40500	108339	0	0	8182	669037	0	0
2024-05-27 23:14:32			0	35497	0	0	0	22654	21250	141188	27433	992797	40489	108337	0	0	8184	667470	0	0
2024-05-27 23:15:32			0	35538	0	0	0	22659	21250	141120	27469	992762	40500	108339	0	0	8186	665638	0	0
2024-05-27 23:16:32			0	35513	0	0	0	22657	21250	141064	27170	992770	40489	108338	0	0	8185	666755	0	0
2024-05-27 23:17:32			0	35469	0	0	0	22654	21250	141244	27090	992797	40500	108337	0	0	8182	668724	0	0
2024-05-27 23:18:32			0	35399	0	0	0	22654	21250	141544	27008	992735	40500	108337	0	0	8178	671865	0	0
2024-05-27 23:19:32			0	35382	0	0	0	22657	21240	141724	27144	992806	40500	108338	0	0	8177	672667	0	0
2024-05-27 23:20:32			0	35330	0	0	0	22649	21250	141844	27455	992841	40500	108335	0	0	8175	674971	0	0
2024-05-27 23:21:32			0	35303	0	0	0	22651	21240	141940	27013	992692	40488	108336	0	0	8173	676228	0	0
2024-05-27 23:22:32			0	35259	0	0	0	22646	21240	142156	27367	992780	40510	108334	0	0	8171	678217	0	0
2024-05-27 23:23:32			0	35238	0	0	0	22646	21240	142344	27338	992753	40500	108334	0	0	8170	679168	0	0
2024-05-27 23:24:32			0	35180	0	0	0	22649	21230	142424	27149	992763	40487	108335	0	0	8167	681838	0	0
2024-05-27 23:25:32			0	35152	0	0	0	22646	21240	142536	27502	992727	40488	108334	0	0	8165	683073	0	0
2024-05-27 23:26:32			0	35107	0	0	0	22654	21240	142735	26901	992753	40488	108337	0	0	8162	685123	0	0
2024-05-27 23:27:32			0	35078	0	0	0	22638	21250	142827	27185	992682	40478	108331	0	0	8161	686408	0	0
2024-05-27 23:28:32			0	35049	0	0	0	22641	21240	142931	27133	992771	40488	108332	0	0	8160	687772	0	0
2024-05-27 23:29:32			0	35075	0	0	0	22641	21240	142991	27379	992727	40488	108332	0	0	8161	686584	0	0
2024-05-27 23:30:32			0	35037	0	0	0	22638	21230	143123	27232	992736	40499	108331	0	0	8159	688359	0	0
2024-05-27 23:31:32			0	35030	0	0	0	22641	21240	143095	27022	992727	40488	108332	0	0	8158	688641	0	0
2024-05-27 23:32:32			0	35057	0	0	0	22646	21240	142955	27415	992771	40477	108334	0	0	8160	687406	0	0
2024-05-27 23:33:32			0	35106	0	0	0	22636	21240	142987	27281	992692	40500	108330	0	0	8163	685169	0	0
2024-05-27 23:34:32			0	35097	0	0	0	22638	21230	142843	27473	992710	40487	108331	0	0	8162	685617	0	0
2024-05-27 23:35:32			0	35135	0	0	0	22636	21230	142848	27088	992710	40487	108330	0	0	8164	683885	0	0
2024-05-27 23:36:32			0	35146	0	0	0	22644	21240	142776	27369	992745	40500	108333	0	0	8165	683346	0	0
2024-05-27 23:37:32			0	35163	0	0	0	22636	21230	142724	27490	992701	40487	108330	0	0	8166	682611	0	0
2024-05-27 23:38:32			0	35188	0	0	0	22636	21240	142644	27220	992727	40500	108330	0	0	8167	681437	0	0
2024-05-27 23:39:32			0	35177	0	0	0	22636	21230	142548	27346	992728	40499	108330	0	0	8167	681974	0	0
2024-05-27 23:40:32			0	35219	0	0	0	22633	21230	142528	27131	992710	40487	108329	0	0	8169	680067	0	0
2024-05-27 23:41:32			0	35224	0	0	0	22638	21240	142400	27334	992700	40500	108331	0	0	8169	679803	0	0
2024-05-27 23:42:32			0	35239	0	0	0	22636	21220	142372	27164	992746	40487	108330	0	0	8170	679198	0	0
2024-05-27 23:43:32			0	35251	0	0	0	22638	21230	142260	27355	992728	40476	108331	0	0	8171	678617	0	0
2024-05-27 23:44:32			0	35273	0	0	0	22638	21220	142268	27121	992693	40498	108331	0	0	8172	677659	0	0
2024-05-27 23:45:32			0	35296	0	0	0	22628	21220	142216	27079	992746	40508	108327	0	0	8173	676619	0	0
2024-05-27 23:46:32			0	35303	0	0	0	22633	21230	141988	27017	992736	40499	108329	0	0	8173	676265	0	0
2024-05-27 23:47:32			0	35342	0	0	0	22628	21230	141984	27305	992710	40499	108327	0	0	8176	674506	0	0
2024-05-27 23:48:32			0	35360	0	0	0	22633	21230	141812	27305	992675	40487	108329	0	0	8177	673694	0	0
2024-05-27 23:49:32			0	35390	0	0	0	22625	21230	141724	27015	992781	40499	108326	0	0	8178	672344	0	0
2024-05-27 23:50:32			0	35402	0	0	0	22625	21230	141688	27020	992701	40499	108326	0	0	8179	671805	0	0
2024-05-27 23:51:32			0	35419	0	0	0	22625	21220	141660	27220	992685	40497	108326	0	0	8180	671078	0	0
2024-05-27 23:52:32			0	35433	0	0	0	22628	21230	141588	26923	992683	40476	108327	0	0	8181	670412	0	0
2024-05-27 23:53:32			0	35466	0	0	0	22633	21220	141496	27138	992711	40497	108329	0	0	8182	668970	0	0
2024-05-27 23:54:32			0	35492	0	0	0	22631	21230	141424	27131	992701	40499	108328	0	0	8184	667768	0	0
2024-05-27 23:55:32			0	35497	0	0	0	22633	21230	141388	27350	992622	40499	108329	0	0	8184	667544	0	0
2024-05-27 23:56:32			0	35522	0	0	0	22625	21220	141224	27256	992631	40507	108326	0	0	8185	666464	0	0
2024-05-27 23:57:32			0	35538	0	0	0	22623	21220	141116	27121	992631	40486	108325	0	0	8186	665749	0	0
2024-05-27 23:58:32			0	35574	0	0	0	22618	21220	141044	27208	992693	40487	108323	0	0	8188	664143	0	0
2024-05-27 23:59:32			0	35573	0	0	0	22620	21220	140948	27326	992631	40497	108324	0	0	8188	664187	0	0
2024-05-28 00:00:32			0	35618	0	0	0	22623	21220	140852	27275	992578	40497	108325	0	0	8191	662184	0	0
2024-05-28 00:01:32			0	35630	0	0	0	22625	21220	140812	27126	992711	40486	108326	0	0	8191	661650	0	0
2024-05-28 00:02:32			0	35674	0	0	0	22628	21220	140796	27339	992666	40508	108327	0	0	8194	659696	0	0
2024-05-28 00:03:32			0	35686	0	0	0	22618	21220	140536	27216	992666	40475	108323	0	0	8194	659164	0	0
2024-05-28 00:04:32			0	35717	0	0	0	22620	21220	140476	27519	992685	40497	108324	0	0	8196	657791	0	0
2024-05-28 00:05:32			0	35798	0	0	0	22618	21210	140484	27147	992641	40496	108323	0	0	8200	654249	0	0
2024-05-28 00:06:32			0	35818	0	0	0	22625	21220	140092	27414	992711	40486	108326	0	0	8201	653331	0	0
2024-05-28 00:07:32			0	35869	0	0	0	22623	21210	139929	27499	992623	40497	108325	0	0	8204	651124	0	0
2024-05-28 00:08:32			0	35935	0	0	0	22623	21220	139737	27182	992613	40508	108325	0	0	8208	648192	0	0
2024-05-28 00:09:32			0	35992	0	0	0	22618	21210	139405	27435	992623	40497	108323	0	0	8211	645735	0	0
2024-05-28 00:10:32			0	36078	0	0	0	22607	21210	139137	27338	992570	40486	108319	0	0	8216	641986	0	0
2024-05-28 00:11:32			0	36139	0	0	0	22610	21230	138825	27254	992648	40487	108320	0	0	8219	639265	0	0
2024-05-28 00:12:32			0	36223	0	0	0	22605	21210	138585	27343	992588	40496	108318	0	0	8223	635700	0	0
2024-05-28 00:13:32			0	36288	0	0	0	22599	21210	138321	27431	992561	40485	108316	0	0	8227	632896	0	0
2024-05-28 00:14:32			0	36362	0	0	0	22607	21220	138037	26771	992658	40507	108319	0	0	8231	629679	0	0
2024-05-28 00:15:32			0	36415	0	0	0	22597	21210	137849	27178	992588	40496	108315	0	0	8234	627443	0	0
2024-05-28 00:16:32			0	36486	0	0	0	22597	21190	137609	27339	992562	40495	108315	0	0	8237	624477	0	0
2024-05-28 00:17:32			0	36514	0	0	0	22602	21200	137517	27329	992606	40485	108317	0	0	8239	623249	0	0
2024-05-28 00:18:32			0	36541	0	0	0	22597	21200	137369	27154	992606	40485	108315	0	0	8240	622099	0	0
2024-05-28 00:19:32			0	36567	0	0	0	22599	21200	137165	27289	992553	40485	108316	0	0	8242	620993	0	0
2024-05-28 00:20:32			0	36620	0	0	0	22586	21200	137090	27405	992518	40495	108311	0	0	8245	618743	0	0
2024-05-28 00:21:32			0	36666	0	0	0	22592	21190	136842	27173	992562	40495	108313	0	0	8247	616829	0	0
2024-05-28 00:22:32			0	36716	0	0	0	22586	21190	136758	27026	992509	40473	108311	0	0	8250	614716	0	0
2024-05-28 00:23:32			0	36757	0	0	0	22571	21190	136570	27334	992483	40495	108305	0	0	8252	612987	0	0
2024-05-28 00:24:32			0	36836	0	0	0	22566	21180	136246	27241	992466	40494	108303	0	0	8256	609698	0	0
2024-05-28 00:25:32			0	36926	0	0	0	22558	21180	135942	27388	992492	40472	108300	0	0	8261	605928	0	0
2024-05-28 00:26:32			0	37004	0	0	0	22561	21170	135666	26998	992369	40493	108301	0	0	8265	602707	0	0
2024-05-28 00:27:32			0	37118	0	0	0	22558	21170	135346	27204	992396	40482	108300	0	0	8271	597970	0	0
2024-05-28 00:28:32			0	37191	0	0	0	22553	21160	134978	27093	992344	40492	108298	0	0	8275	594984	0	0
2024-05-28 00:29:32			0	37288	0	0	0	22566	21170	134722	27213	992414	40481	108303	0	0	8280	590954	0	0
2024-05-28 00:30:32			0	37340	0	0	0	22563	21160	134519	27138	992397	40502	108302	0	0	8283	588851	0	0
2024-05-28 00:31:32			0	37372	0	0	0	22571	21160	134335	27312	992371	40492	108305	0	0	8284	587539	0	0
2024-05-28 00:32:32			0	37414	0	0	0	22576	21160	134307	27251	992371	40480	108307	0	0	8287	585821	0	0
2024-05-28 00:33:32			0	37418	0	0	0	22586	21160	134175	27222	992326	40492	108311	0	0	8287	585657	0	0
2024-05-28 00:34:32			0	37455	0	0	0	22581	21150	134183	27469	992336	40479	108309	0	0	8289	584179	0	0
2024-05-28 00:35:32			0	37432	0	0	0	22581	21150	134211	27402	992362	40491	108309	0	0	8287	585118	0	0
2024-05-28 00:36:32			0	37406	0	0	0	22576	21160	134331	27464	992344	40492	108307	0	0	8286	586148	0	0
2024-05-28 00:37:32			0	37363	0	0	0	22589	21160	134455	27140	992424	40480	108312	0	0	8284	587908	0	0
2024-05-28 00:38:32			0	37324	0	0	0	22589	21150	134546	26901	992362	40491	108312	0	0	8282	589540	0	0
2024-05-28 00:39:32			0	37277	0	0	0	22594	21160	134790	27246	992424	40480	108314	0	0	8279	591439	0	0
2024-05-28 00:40:32			0	37237	0	0	0	22594	21160	134878	27020	992424	40502	108314	0	0	8277	593086	0	0
2024-05-28 00:41:32			0	37182	0	0	0	22602	21160	135110	27059	992397	40480	108317	0	0	8274	595355	0	0
2024-05-28 00:42:32			0	37145	0	0	0	22605	21160	135210	27291	992424	40492	108318	0	0	8272	596885	0	0
2024-05-28 00:43:32			0	37100	0	0	0	22605	21160	135406	27104	992406	40492	108318	0	0	8270	598750	0	0
2024-05-28 00:44:32			0	37050	0	0	0	22612	21170	135670	27239	992494	40492	108321	0	0	8267	600793	0	0
2024-05-28 00:45:32			0	37016	0	0	0	22615	21180	135722	27147	992537	40504	108322	0	0	8265	602174	0	0
2024-05-28 00:46:32			0	36971	0	0	0	22607	21170	135810	27156	992476	40504	108319	0	0	8263	604082	0	0
2024-05-28 00:47:32			0	36945	0	0	0	22610	21170	135898	27135	992476	40482	108320	0	0	8261	605168	0	0
2024-05-28 00:48:32			0	36932	0	0	0	22615	21180	136022	27145	992484	40471	108322	0	0	8261	605677	0	0
2024-05-28 00:49:32			0	36919	0	0	0	22615	21180	135998	27390	992546	40494	108322	0	0	8260	606221	0	0
2024-05-28 00:50:32			0	36912	0	0	0	22610	21180	136074	27319	992537	40504	108320	0	0	8260	606513	0	0
2024-05-28 00:51:32			0	36892	0	0	0	22620	21190	136134	27272	992554	40494	108324	0	0	8259	607317	0	0
2024-05-28 00:52:32			0	36877	0	0	0	22623	21190	136166	27215	992581	40483	108325	0	0	8258	607945	0	0
2024-05-28 00:53:32			0	36899	0	0	0	22618	21190	136086	27424	992554	40494	108323	0	0	8259	607024	0	0
2024-05-28 00:54:32			0	36902	0	0	0	22620	21180	136122	27189	992519	40494	108324	0	0	8259	606932	0	0
2024-05-28 00:55:32			0	36892	0	0	0	22623	21180	136062	27211	992546	40483	108325	0	0	8258	607351	0	0
2024-05-28 00:56:32			0	36914	0	0	0	22620	21190	136170	27005	992581	40516	108324	0	0	8260	606396	0	0
2024-05-28 00:57:32			0	36894	0	0	0	22615	21190	136094	27329	992607	40494	108322	0	0	8259	607233	0	0
2024-05-28 00:58:32			0	36903	0	0	0	22615	21180	136078	27400	992537	40504	108322	0	0	8259	606890	0	0
2024-05-28 00:59:32			0	36918	0	0	0	22612	21190	136078	27345	992554	40504	108321	0	0	8260	606229	0	0
2024-05-28 01:00:32			0	36899	0	0	0	22615	21180	136134	26981	992519	40494	108322	0	0	8259	607058	0	0
2024-05-28 01:01:32			0	36887	0	0	0	22615	21180	136202	27504	992519	40504	108322	0	0	8258	607560	0	0
2024-05-28 01:02:32			0	36868	0	0	0	22615	21180	136238	27516	992537	40471	108322	0	0	8257	608356	0	0
2024-05-28 01:03:32			0	36844	0	0	0	22612	21180	136234	27244	992519	40504	108321	0	0	8256	609362	0	0
2024-05-28 01:04:32			0	36843	0	0	0	22610	21190	136330	27542	992527	40483	108320	0	0	8256	609371	0	0
2024-05-28 01:05:32			0	36818	0	0	0	22610	21190	136286	27390	992483	40495	108320	0	0	8255	610420	0	0
2024-05-28 01:06:32			0	36784	0	0	0	22586	21180	136474	27331	992492	40494	108311	0	0	8253	611884	0	0
2024-05-28 01:07:32			0	36759	0	0	0	22602	21180	136594	27261	992484	40515	108317	0	0	8252	612937	0	0
2024-05-28 01:08:32			0	36735	0	0	0	22597	21180	136730	27355	992492	40483	108315	0	0	8251	613948	0	0
2024-05-28 01:09:32			0	36709	0	0	0	22594	21180	136726	27324	992484	40504	108314	0	0	8249	615045	0	0
2024-05-28 01:10:32			0	36672	0	0	0	22592	21170	136914	27384	992441	40492	108313	0	0	8247	616644	0	0
2024-05-28 01:11:32			0	36666	0	0	0	22597	21170	136954	27492	992449	40493	108315	0	0	8247	616897	0	0
2024-05-28 01:12:32			0	36640	0	0	0	22592	21170	136998	27246	992387	40503	108313	0	0	8246	617998	0	0
2024-05-28 01:13:32			0	36609	0	0	0	22584	21170	137162	27334	992441	40503	108310	0	0	8244	619313	0	0
2024-05-28 01:14:32			0	36591	0	0	0	22586	21160	137237	27201	992406	40492	108311	0	0	8243	620111	0	0
2024-05-28 01:15:32			0	36569	0	0	0	22571	21160	137301	27450	992397	40492	108305	0	0	8242	621046	0	0
2024-05-28 01:16:32			0	36547	0	0	0	22579	21150	137421	27216	992354	40501	108308	0	0	8241	622016	0	0
2024-05-28 01:17:32			0	36530	0	0	0	22589	21150	137545	27845	992362	40491	108312	0	0	8240	622740	0	0
2024-05-28 01:18:32			0	36513	0	0	0	22586	21150	137525	27568	992380	40501	108311	0	0	8239	623464	0	0
2024-05-28 01:19:32			0	36498	0	0	0	22579	21140	137653	27180	992345	40491	108308	0	0	8238	624139	0	0
2024-05-28 01:20:32			0	36473	0	0	0	22576	21140	137733	27561	992345	40501	108307	0	0	8237	625206	0	0
2024-05-28 01:21:32			0	36467	0	0	0	22576	21140	137773	27530	992345	40501	108307	0	0	8237	625462	0	0
2024-05-28 01:22:32			0	36444	0	0	0	22579	21140	137801	27360	992257	40479	108308	0	0	8235	626445	0	0
2024-05-28 01:23:32			0	36430	0	0	0	22566	21130	137861	27239	992267	40489	108303	0	0	8235	627079	0	0
2024-05-28 01:24:32			0	36427	0	0	0	22566	21120	137925	27168	992285	40477	108303	0	0	8235	627242	0	0
2024-05-28 01:25:32			0	36408	0	0	0	22561	21120	137853	27308	992205	40488	108301	0	0	8234	628056	0	0
2024-05-28 01:26:32			0	36393	0	0	0	22566	21120	137905	27258	992259	40499	108303	0	0	8233	628699	0	0
2024-05-28 01:27:32			0	36398	0	0	0	22558	21110	138013	27192	992215	40487	108300	0	0	8233	628519	0	0
2024-05-28 01:28:32			0	36384	0	0	0	22571	21110	138021	27296	992224	40488	108305	0	0	8232	629120	0	0
2024-05-28 01:29:32			0	36382	0	0	0	22571	21110	138073	27203	992277	40488	108305	0	0	8232	629205	0	0
2024-05-28 01:30:32			0	36360	0	0	0	22576	21120	138049	27083	992312	40499	108307	0	0	8231	630115	0	0
2024-05-28 01:31:32			0	36359	0	0	0	22584	21110	138169	27166	992277	40499	108310	0	0	8231	630193	0	0
2024-05-28 01:32:32			0	36334	0	0	0	22563	21120	138121	27067	992285	40499	108302	0	0	8230	631232	0	0
2024-05-28 01:33:32			0	36355	0	0	0	22555	21110	138157	27104	992295	40487	108299	0	0	8231	630365	0	0
2024-05-28 01:34:32			0	36347	0	0	0	22563	21110	138245	27105	992330	40499	108302	0	0	8230	630708	0	0
2024-05-28 01:35:32			0	36340	0	0	0	22563	21120	138229	27471	992259	40488	108302	0	0	8230	630974	0	0
2024-05-28 01:36:32			0	36330	0	0	0	22558	21120	138261	27124	992205	40488	108300	0	0	8230	631404	0	0
2024-05-28 01:37:32			0	36341	0	0	0	22537	21100	138317	27104	992233	40498	108292	0	0	8230	631001	0	0
2024-05-28 01:38:32			0	36323	0	0	0	22542	21100	138209	27436	992127	40476	108294	0	0	8229	631775	0	0
2024-05-28 01:39:32			0	36333	0	0	0	22514	21100	138265	27144	992039	40486	108283	0	0	8230	631345	0	0
2024-05-28 01:40:32			0	36324	0	0	0	22490	21090	138245	27315	992022	40485	108274	0	0	8230	631767	0	0
2024-05-28 01:41:32			0	36320	0	0	0	22457	21080	138161	27138	991925	40484	108261	0	0	8231	631974	0	0
2024-05-28 01:42:32			0	36320	0	0	0	22438	21070	138205	27301	991882	40472	108254	0	0	8231	632009	0	0
2024-05-28 01:43:32			0	36344	0	0	0	22423	21050	138209	27097	991803	40483	108248	0	0	8232	631047	0	0
2024-05-28 01:44:32			0	36359	0	0	0	22399	21040	138281	27486	991778	40481	108239	0	0	8233	630437	0	0
2024-05-28 01:45:32			0	36339	0	0	0	22394	21030	138177	27260	991708	40469	108237	0	0	8232	631332	0	0
2024-05-28 01:46:32			0	36330	0	0	0	22386	21020	138273	27336	991647	40458	108234	0	0	8232	631754	0	0
2024-05-28 01:47:32			0	36313	0	0	0	22363	21010	138385	27338	991595	40467	108225	0	0	8231	632521	0	0
2024-05-28 01:48:32			0	36270	0	0	0	22348	21000	138517	27377	991551	40465	108219	0	0	8229	634410	0	0
2024-05-28 01:49:32			0	36247	0	0	0	22368	20990	138593	27033	991543	40477	108227	0	0	8228	635438	0	0
2024-05-28 01:50:32			0	36214	0	0	0	22392	20990	138665	27159	991596	40477	108236	0	0	8226	636865	0	0
2024-05-28 01:51:32			0	36206	0	0	0	22428	20990	138789	27102	991668	40477	108250	0	0	8225	637211	0	0
2024-05-28 01:52:32			0	36220	0	0	0	22446	21000	138841	27034	991711	40499	108257	0	0	8225	636570	0	0
2024-05-28 01:53:32			0	36199	0	0	0	22464	21010	138881	26791	991781	40489	108264	0	0	8224	637444	0	0
2024-05-28 01:54:32			0	36218	0	0	0	22475	21000	138813	27204	991826	40477	108268	0	0	8224	636657	0	0
2024-05-28 01:55:32			0	36219	0	0	0	22464	21010	138841	27286	991869	40489	108264	0	0	8225	636578	0	0
2024-05-28 01:56:32			0	36219	0	0	0	22488	21010	138833	27152	991869	40500	108273	0	0	8224	636578	0	0
2024-05-28 01:57:32			0	36226	0	0	0	22490	21020	138745	26887	991851	40478	108274	0	0	8225	636240	0	0
2024-05-28 01:58:32			0	36236	0	0	0	22490	21010	138713	27312	991736	40478	108274	0	0	8225	635843	0	0
2024-05-28 01:59:32			0	36261	0	0	0	22477	21000	138617	27343	991773	40489	108269	0	0	8227	634799	0	0
2024-05-28 02:00:32			0	36285	0	0	0	22459	21010	138465	27128	991736	40478	108262	0	0	8228	633728	0	0
2024-05-28 02:01:32			0	36301	0	0	0	22415	21000	138485	27279	991640	40477	108245	0	0	8230	633073	0	0
2024-05-28 02:02:32			0	36320	0	0	0	22394	20990	138473	27353	991561	40477	108237	0	0	8231	632290	0	0
2024-05-28 02:03:32			0	36343	0	0	0	22368	20970	138321	27338	991509	40475	108227	0	0	8233	631370	0	0
2024-05-28 02:04:32			0	36354	0	0	0	22329	20960	138205	27498	991493	40463	108212	0	0	8234	630932	0	0
2024-05-28 02:05:32			0	36394	0	0	0	22309	20960	138181	27320	991440	40463	108204	0	0	8236	629214	0	0
2024-05-28 02:06:32			0	36393	0	0	0	22301	20960	138049	26975	991324	40462	108201	0	0	8237	629257	0	0
2024-05-28 02:07:32			0	36416	0	0	0	22293	20940	138101	27360	991299	40461	108198	0	0	8238	628340	0	0
2024-05-28 02:08:32			0	36413	0	0	0	22288	20930	138041	27286	991282	40459	108196	0	0	8238	628503	0	0
2024-05-28 02:09:32			0	36422	0	0	0	22283	20920	137961	27402	991178	40458	108194	0	0	8238	628152	0	0
2024-05-28 02:10:32			0	36421	0	0	0	22275	20920	137921	27355	991204	40469	108191	0	0	8238	628195	0	0
2024-05-28 02:11:32			0	36405	0	0	0	22280	20910	137993	27118	991240	40469	108193	0	0	8237	628916	0	0
2024-05-28 02:12:32			0	36394	0	0	0	22314	20900	138129	27079	991285	40458	108206	0	0	8236	629423	0	0
2024-05-28 02:13:32			0	36368	0	0	0	22350	20910	138245	27109	991347	40480	108220	0	0	8234	630505	0	0
2024-05-28 02:14:32			0	36311	0	0	0	22361	20920	138549	27327	991310	40469	108224	0	0	8231	632923	0	0
2024-05-28 02:15:32			0	36278	0	0	0	22345	20910	138545	27085	991275	40469	108218	0	0	8229	634381	0	0
2024-05-28 02:16:32			0	36243	0	0	0	22327	20910	138613	27353	991320	40458	108211	0	0	8228	635893	0	0
2024-05-28 02:17:32			0	36247	0	0	0	22301	20910	138713	27225	991187	40469	108201	0	0	8229	635720	0	0
2024-05-28 02:18:32			0	36277	0	0	0	22275	20900	138685	27358	991171	40457	108191	0	0	8231	634460	0	0
2024-05-28 02:19:32			0	36274	0	0	0	22272	20900	138561	27036	991171	40457	108190	0	0	8230	634589	0	0
2024-05-28 02:20:32			0	36285	0	0	0	22270	20900	138517	27381	991171	40457	108189	0	0	8231	634114	0	0
2024-05-28 02:21:32			0	36297	0	0	0	22259	20900	138481	27003	991144	40457	108185	0	0	8232	633597	0	0
2024-05-28 02:22:32			0	36312	0	0	0	22241	20860	138517	27443	991059	40464	108178	0	0	8233	633090	0	0
2024-05-28 02:23:32			0	36301	0	0	0	22223	20870	138649	27566	990987	40454	108171	0	0	8233	633530	0	0
2024-05-28 02:24:32			0	36281	0	0	0	22202	20870	138573	27497	990987	40443	108163	0	0	8232	634392	0	0
2024-05-28 02:25:32			0	36248	0	0	0	22197	20860	138621	27098	990997	40443	108161	0	0	8230	635853	0	0
2024-05-28 02:26:32			0	36232	0	0	0	22199	20850	138725	27460	990901	40452	108162	0	0	8229	636581	0	0
2024-05-28 02:27:32			0	36195	0	0	0	22192	20840	138889	27306	990945	40462	108159	0	0	8227	638218	0	0
2024-05-28 02:28:32			0	36147	0	0	0	22184	20830	138981	27338	990875	40451	108156	0	0	8225	640337	0	0
2024-05-28 02:29:32			0	36149	0	0	0	22181	20830	139157	27365	990875	40461	108155	0	0	8225	640250	0	0
2024-05-28 02:30:32			0	36121	0	0	0	22179	20820	139205	27573	990867	40461	108154	0	0	8223	641503	0	0
2024-05-28 02:31:32			0	36124	0	0	0	22179	20820	139169	27190	990840	40450	108154	0	0	8224	641372	0	0
2024-05-28 02:32:32			0	36107	0	0	0	22166	20810	139217	27364	990770	40438	108149	0	0	8223	642148	0	0
2024-05-28 02:33:32			0	36110	0	0	0	22166	20810	139237	27346	990797	40450	108149	0	0	8223	642017	0	0
2024-05-28 02:34:32			0	36110	0	0	0	22161	20800	139197	27327	990806	40459	108147	0	0	8223	642053	0	0
2024-05-28 02:35:32			0	36095	0	0	0	22155	20780	139225	27163	990720	40458	108145	0	0	8222	642777	0	0
2024-05-28 02:36:32			0	36124	0	0	0	22158	20790	139105	27436	990736	40458	108146	0	0	8224	641479	0	0
2024-05-28 02:37:32			0	36104	0	0	0	22158	20790	139141	27338	990710	40436	108146	0	0	8223	642349	0	0
2024-05-28 02:38:32			0	36130	0	0	0	22158	20780	139225	27220	990720	40436	108146	0	0	8224	641253	0	0
2024-05-28 02:39:32			0	36108	0	0	0	22155	20780	139129	27341	990746	40447	108145	0	0	8223	642211	0	0
2024-05-28 02:40:32			0	36137	0	0	0	22145	20770	139033	27322	990676	40435	108141	0	0	8225	640984	0	0
2024-05-28 02:41:32			0	36117	0	0	0	22148	20770	139085	27244	990676	40446	108142	0	0	8224	641855	0	0
2024-05-28 02:42:32			0	36127	0	0	0	22142	20770	139089	27563	990641	40435	108140	0	0	8224	641419	0	0
2024-05-28 02:43:32			0	36128	0	0	0	22155	20770	139181	27263	990597	40446	108145	0	0	8224	641376	0	0
2024-05-28 02:44:32			0	36140	0	0	0	22148	20760	139093	27462	990651	40444	108142	0	0	8225	640889	0	0
2024-05-28 02:45:32			0	36140	0	0	0	22142	20760	139125	27388	990678	40433	108140	0	0	8225	640889	0	0
2024-05-28 02:46:32			0	36138	0	0	0	22148	20750	139093	27064	990608	40455	108142	0	0	8225	641012	0	0
2024-05-28 02:47:32			0	36166	0	0	0	22135	20760	139061	27003	990651	40444	108137	0	0	8226	639760	0	0
2024-05-28 02:48:32			0	36157	0	0	0	22132	20750	139041	27502	990634	40432	108136	0	0	8226	640186	0	0
2024-05-28 02:49:32			0	36175	0	0	0	22135	20760	139085	27183	990606	40445	108137	0	0	8227	639369	0	0
2024-05-28 02:50:32			0	36193	0	0	0	22122	20750	138873	27296	990608	40443	108132	0	0	8228	638623	0	0
2024-05-28 02:51:32			0	36205	0	0	0	22122	20750	138929	27126	990590	40433	108132	0	0	8229	638103	0	0
2024-05-28 02:52:32			0	36217	0	0	0	22111	20750	138909	27656	990475	40432	108128	0	0	8229	637583	0	0
2024-05-28 02:53:32			0	36222	0	0	0	22119	20740	138793	27504	990538	40442	108131	0	0	8230	637401	0	0
2024-05-28 02:54:32			0	36231	0	0	0	22114	20730	138817	27201	990503	40420	108129	0	0	8230	637047	0	0
2024-05-28 02:55:32			0	36241	0	0	0	22109	20740	138761	27402	990493	40432	108127	0	0	8231	636579	0	0
2024-05-28 02:56:32			0	36239	0	0	0	22119	20730	138793	27391	990468	40442	108131	0	0	8230	636701	0	0
2024-05-28 02:57:32			0	36252	0	0	0	22111	20730	138717	27178	990521	40442	108128	0	0	8231	636138	0	0
2024-05-28 02:58:32			0	36259	0	0	0	22103	20730	138701	27157	990415	40442	108125	0	0	8232	635835	0	0
2024-05-28 02:59:32			0	36268	0	0	0	22098	20720	138549	27234	990504	40441	108123	0	0	8232	635481	0	0
2024-05-28 03:00:32			0	36293	0	0	0	22101	20710	138553	27308	990522	40428	108124	0	0	8234	634436	0	0
2024-05-28 03:01:32			0	36281	0	0	0	22116	20720	138565	27095	990513	40442	108130	0	0	8233	634920	0	0
2024-05-28 03:02:32			0	36292	0	0	0	22098	20720	138489	27343	990451	40452	108123	0	0	8234	634444	0	0
2024-05-28 03:03:32			0	36294	0	0	0	22103	20720	138473	27220	990398	40429	108125	0	0	8234	634358	0	0
2024-05-28 03:04:32			0	36322	0	0	0	22109	20710	138497	27365	990416	40428	108127	0	0	8235	633185	0	0
2024-05-28 03:05:32			0	36305	0	0	0	22116	20720	138389	27505	990371	40441	108130	0	0	8234	633883	0	0
2024-05-28 03:06:32			0	36332	0	0	0	22109	20730	138537	27232	990468	40430	108127	0	0	8236	632684	0	0
2024-05-28 03:07:32			0	36349	0	0	0	22109	20720	138405	27485	990531	40429	108127	0	0	8236	631987	0	0
2024-05-28 03:08:32			0	36352	0	0	0	22116	20710	138249	27230	990443	40440	108130	0	0	8236	631892	0	0
2024-05-28 03:09:32			0	36383	0	0	0	22116	20720	138297	27395	990425	40429	108130	0	0	8238	630524	0	0
2024-05-28 03:10:32			0	36396	0	0	0	22116	20720	138249	27350	990478	40418	108130	0	0	8239	629965	0	0
2024-05-28 03:11:32			0	36412	0	0	0	22122	20710	138201	27086	990416	40440	108132	0	0	8240	629313	0	0
2024-05-28 03:12:32			0	36416	0	0	0	22132	20710	137993	27341	990461	40451	108136	0	0	8240	629141	0	0
2024-05-28 03:13:32			0	36452	0	0	0	22122	20710	138025	27296	990487	40428	108132	0	0	8242	627597	0	0
2024-05-28 03:14:32			0	36472	0	0	0	22127	20720	137885	26953	990486	40453	108134	0	0	8243	626706	0	0
2024-05-28 03:15:32			0	36510	0	0	0	22140	20720	137857	27390	990531	40441	108139	0	0	8244	625080	0	0
2024-05-28 03:16:32			0	36519	0	0	0	22150	20720	137745	27305	990611	40429	108143	0	0	8245	624696	0	0
2024-05-28 03:17:32			0	36541	0	0	0	22168	20720	137669	27183	990513	40453	108150	0	0	8246	623756	0	0
2024-05-28 03:18:32			0	36561	0	0	0	22166	20730	137593	27393	990521	40463	108149	0	0	8247	622869	0	0
2024-05-28 03:19:32			0	36589	0	0	0	22181	20730	137493	27332	990521	40453	108155	0	0	8248	621676	0	0
2024-05-28 03:20:32			0	36631	0	0	0	22192	20730	137398	26928	990609	40442	108159	0	0	8250	619890	0	0
2024-05-28 03:21:32			0	36653	0	0	0	22207	20730	137334	27001	990574	40453	108165	0	0	8251	618955	0	0
2024-05-28 03:22:32			0	36665	0	0	0	22233	20740	137146	27088	990653	40455	108175	0	0	8251	618412	0	0
2024-05-28 03:23:32			0	36709	0	0	0	22277	20740	137054	27199	990759	40455	108192	0	0	8253	616547	0	0
2024-05-28 03:24:32			0	36732	0	0	0	22337	20760	137038	27287	990917	40477	108215	0	0	8253	615506	0	0
2024-05-28 03:25:32			0	36759	0	0	0	22361	20770	136902	27419	990915	40467	108224	0	0	8254	614331	0	0
2024-05-28 03:26:32			0	36794	0	0	0	22397	20790	136898	27043	991127	40480	108238	0	0	8255	612787	0	0
2024-05-28 03:27:32			0	36831	0	0	0	22428	20820	136686	27185	991204	40471	108250	0	0	8257	611127	0	0
2024-05-28 03:28:32			0	36862	0	0	0	22428	20840	136610	27308	991256	40474	108250	0	0	8259	609756	0	0
2024-05-28 03:29:32			0	36888	0	0	0	22444	20850	136426	27095	991361	40474	108256	0	0	8260	608631	0	0
2024-05-28 03:30:32			0	36938	0	0	0	22470	20880	136266	27357	991456	40510	108266	0	0	8262	606435	0	0
2024-05-28 03:31:32			0	36977	0	0	0	22493	20900	136126	27173	991516	40500	108275	0	0	8264	604737	0	0
2024-05-28 03:32:32			0	37004	0	0	0	22506	20930	135842	27130	991779	40493	108280	0	0	8265	603509	0	0
2024-05-28 03:33:32			0	37055	0	0	0	22514	20940	135702	27282	991769	40482	108283	0	0	8268	601351	0	0
2024-05-28 03:34:32			0	37077	0	0	0	22522	20960	135594	27388	991776	40506	108286	0	0	8269	600370	0	0
2024-05-28 03:35:32			0	37059	0	0	0	22506	20970	135686	27027	991828	40507	108280	0	0	8268	601085	0	0
2024-05-28 03:36:32			0	36994	0	0	0	22477	20990	135954	27163	991854	40499	108269	0	0	8265	603726	0	0
2024-05-28 03:37:32			0	36854	0	0	0	22454	21000	136438	27123	991924	40477	108260	0	0	8259	609551	0	0
2024-05-28 03:38:32			0	36630	0	0	0	22451	21000	137146	27171	991870	40488	108259	0	0	8247	619005	0	0
2024-05-28 03:39:32			0	36379	0	0	0	22444	21010	138045	27190	991861	40478	108256	0	0	8234	629683	0	0
2024-05-28 03:40:32			0	36146	0	0	0	22438	21010	138885	27326	991843	40478	108254	0	0	8221	639742	0	0
2024-05-28 03:41:32			0	35896	0	0	0	22438	21010	139817	27218	991887	40478	108254	0	0	8208	650659	0	0
2024-05-28 03:42:32			0	35688	0	0	0	22451	21020	140784	27187	991904	40478	108259	0	0	8197	659807	0	0
2024-05-28 03:43:32			0	35494	0	0	0	22457	21010	141456	27381	991896	40500	108261	0	0	8186	668494	0	0
2024-05-28 03:44:32			0	35284	0	0	0	22451	21020	142284	27365	991851	40489	108259	0	0	8175	677913	0	0
2024-05-28 03:45:32			0	35113	0	0	0	22464	21020	142843	27105	991904	40489	108264	0	0	8165	685686	0	0
2024-05-28 03:46:32			0	34969	0	0	0	22470	21030	143507	27234	991974	40502	108266	0	0	8157	692244	0	0
2024-05-28 03:47:32			0	34834	0	0	0	22464	21020	144031	27142	991912	40479	108264	0	0	8150	698510	0	0
2024-05-28 03:48:32			0	34707	0	0	0	22470	21040	144519	27232	991885	40492	108266	0	0	8143	704330	0	0
2024-05-28 03:49:32			0	34601	0	0	0	22470	21030	145083	27391	991956	40492	108266	0	0	8137	709319	0	0
2024-05-28 03:50:32			0	34484	0	0	0	22475	21030	145395	27000	991929	40502	108268	0	0	8130	714815	0	0
2024-05-28 03:51:32			0	34401	0	0	0	22485	21040	145855	26934	991991	40481	108272	0	0	8125	718693	0	0
2024-05-28 03:52:32			0	34334	0	0	0	22475	21040	146146	27078	991964	40470	108268	0	0	8122	721869	0	0
2024-05-28 03:53:32			0	34269	0	0	0	22483	21040	146442	27336	992026	40492	108271	0	0	8118	724959	0	0
2024-05-28 03:54:32			0	34203	0	0	0	22485	21050	146730	26953	992016	40494	108272	0	0	8114	728067	0	0
2024-05-28 03:55:32			0	34140	0	0	0	22488	21040	146914	27029	991973	40481	108273	0	0	8111	731123	0	0
2024-05-28 03:56:32			0	34110	0	0	0	22483	21050	147238	27213	992043	40483	108271	0	0	8109	732522	0	0
2024-05-28 03:57:32			0	34048	0	0	0	22483	21050	147326	26908	992043	40504	108271	0	0	8105	735504	0	0
2024-05-28 03:58:32			0	34028	0	0	0	22483	21060	147554	27365	992024	40494	108271	0	0	8104	736427	0	0
2024-05-28 03:59:32			0	33962	0	0	0	22475	21050	147606	27421	992087	40493	108268	0	0	8101	739655	0	0
2024-05-28 04:00:32			0	33936	0	0	0	22467	21060	147758	27530	992086	40483	108265	0	0	8099	740873	0	0
2024-05-28 04:01:32			0	33932	0	0	0	22477	21060	147850	27301	992051	40483	108269	0	0	8099	741067	0	0
2024-05-28 04:02:32			0	33919	0	0	0	22475	21050	147918	27180	992016	40494	108268	0	0	8098	741738	0	0
2024-05-28 04:03:32			0	33889	0	0	0	22467	21060	148018	27213	992078	40494	108265	0	0	8097	743153	0	0
2024-05-28 04:04:32			0	33870	0	0	0	22472	21060	148094	27249	992024	40494	108267	0	0	8096	744076	0	0
2024-05-28 04:05:32			0	33861	0	0	0	22462	21050	148214	27253	992043	40483	108263	0	0	8095	744555	0	0
2024-05-28 04:06:32			0	33861	0	0	0	22472	21060	148170	27338	992051	40472	108267	0	0	8095	744514	0	0
2024-05-28 04:07:32			0	33843	0	0	0	22477	21060	148342	26949	992104	40483	108269	0	0	8094	745390	0	0
2024-05-28 04:08:32			0	33831	0	0	0	22467	21060	148330	26951	992024	40494	108265	0	0	8093	745974	0	0
2024-05-28 04:09:32			0	33814	0	0	0	22464	21050	148326	27228	992016	40483	108264	0	0	8092	746844	0	0
2024-05-28 04:10:32			0	33818	0	0	0	22467	21060	148430	27046	992033	40494	108265	0	0	8093	746607	0	0
2024-05-28 04:11:32			0	33806	0	0	0	22467	21060	148390	27130	992051	40494	108265	0	0	8092	747193	0	0
2024-05-28 04:12:32			0	33828	0	0	0	22467	21060	148434	27232	992051	40472	108265	0	0	8093	746120	0	0
2024-05-28 04:13:32			0	33816	0	0	0	22462	21050	148338	27033	992008	40482	108263	0	0	8093	746746	0	0
2024-05-28 04:14:32			0	33822	0	0	0	22462	21060	148354	27104	992024	40494	108263	0	0	8093	746413	0	0
2024-05-28 04:15:32			0	33803	0	0	0	22459	21050	148346	27502	992069	40472	108262	0	0	8092	747380	0	0
2024-05-28 04:16:32			0	33797	0	0	0	22467	21050	148282	27168	992016	40504	108265	0	0	8091	747673	0	0
2024-05-28 04:17:32			0	33808	0	0	0	22462	21050	148394	27196	992043	40494	108263	0	0	8092	747137	0	0
2024-05-28 04:18:32			0	33796	0	0	0	22457	21060	148322	27364	992059	40483	108261	0	0	8092	747680	0	0
2024-05-28 04:19:32			0	33818	0	0	0	22470	21060	148346	27260	992059	40494	108266	0	0	8093	746607	0	0
2024-05-28 04:20:32			0	33834	0	0	0	22464	21070	148286	27241	992041	40495	108264	0	0	8094	745787	0	0
2024-05-28 04:21:32			0	33826	0	0	0	22467	21060	148318	27123	992078	40483	108265	0	0	8093	746218	0	0
2024-05-28 04:22:32			0	33829	0	0	0	22475	21060	148250	26915	992086	40494	108268	0	0	8093	746071	0	0
2024-05-28 04:23:32			0	33815	0	0	0	22475	21060	148314	27045	992086	40483	108268	0	0	8092	746754	0	0
2024-05-28 04:24:32			0	33813	0	0	0	22472	21080	148194	27192	992164	40496	108267	0	0	8092	746768	0	0
2024-05-28 04:25:32			0	33842	0	0	0	22480	21070	148262	27123	992121	40495	108270	0	0	8094	745397	0	0
2024-05-28 04:26:32			0	33837	0	0	0	22483	21060	148186	27289	992113	40483	108271	0	0	8093	745682	0	0
2024-05-28 04:27:32			0	33846	0	0	0	22483	21070	148170	27306	992148	40484	108271	0	0	8094	745202	0	0
2024-05-28 04:28:32			0	33839	0	0	0	22488	21080	148138	27353	992191	40484	108273	0	0	8094	745502	0	0
2024-05-28 04:29:32			0	33865	0	0	0	22488	21070	148162	27119	992103	40484	108273	0	0	8095	744278	0	0
2024-05-28 04:30:32			0	33850	0	0	0	22490	21070	148086	27223	992076	40484	108274	0	0	8094	745008	0	0
2024-05-28 04:31:32			0	33876	0	0	0	22485	21060	148138	27196	992113	40483	108272	0	0	8096	743785	0	0
2024-05-28 04:32:32			0	33871	0	0	0	22480	21070	148034	27481	992076	40506	108270	0	0	8095	743986	0	0
2024-05-28 04:33:32			0	33889	0	0	0	22472	21070	148046	27341	992076	40484	108267	0	0	8097	743112	0	0
2024-05-28 04:34:32			0	33889	0	0	0	22462	21070	147970	27043	992076	40496	108263	0	0	8097	743112	0	0
2024-05-28 04:35:32			0	33896	0	0	0	22459	21070	147878	27301	992103	40506	108262	0	0	8097	742772	0	0
2024-05-28 04:36:32			0	33910	0	0	0	22457	21060	147910	27421	992024	40460	108261	0	0	8098	742134	0	0
2024-05-28 04:37:32			0	33924	0	0	0	22449	21060	147906	27360	992051	40494	108258	0	0	8099	741455	0	0
2024-05-28 04:38:32			0	33919	0	0	0	22444	21060	147926	27454	992024	40483	108256	0	0	8099	741697	0	0
2024-05-28 04:39:32			0	33939	0	0	0	22449	21060	147830	27178	991945	40483	108258	0	0	8100	740728	0	0
2024-05-28 04:40:32			0	33948	0	0	0	22446	21050	147750	27189	992008	40493	108257	0	0	8100	740333	0	0
2024-05-28 04:41:32			0	33960	0	0	0	22446	21060	147722	27334	992051	40494	108257	0	0	8101	739711	0	0
2024-05-28 04:42:32			0	33986	0	0	0	22449	21060	147678	27274	992078	40472	108258	0	0	8103	738454	0	0
2024-05-28 04:43:32			0	33981	0	0	0	22444	21040	147610	27414	992026	40492	108256	0	0	8102	738778	0	0
2024-05-28 04:44:32			0	34008	0	0	0	22446	21040	147582	27225	991973	40481	108257	0	0	8104	737473	0	0
2024-05-28 04:45:32			0	34024	0	0	0	22438	21040	147546	27343	991973	40481	108254	0	0	8105	736701	0	0
2024-05-28 04:46:32			0	34028	0	0	0	22446	21030	147442	27187	991929	40481	108257	0	0	8105	736549	0	0
2024-05-28 04:47:32			0	34042	0	0	0	22441	21050	147442	27253	991981	40493	108255	0	0	8106	735793	0	0
2024-05-28 04:48:32			0	34070	0	0	0	22436	21050	147334	27286	991954	40482	108253	0	0	8107	734445	0	0
2024-05-28 04:49:32			0	34064	0	0	0	22441	21040	147282	27163	991938	40481	108255	0	0	8107	734774	0	0
2024-05-28 04:50:32			0	34094	0	0	0	22444	21040	147190	27291	991911	40481	108256	0	0	8109	733331	0	0
2024-05-28 04:51:32			0	34117	0	0	0	22436	21040	147174	26984	991911	40492	108253	0	0	8110	732227	0	0
2024-05-28 04:52:32			0	34113	0	0	0	22425	21040	147046	27048	991946	40481	108249	0	0	8110	732419	0	0
2024-05-28 04:53:32			0	34151	0	0	0	22436	21030	146942	27126	991841	40469	108253	0	0	8112	730637	0	0
2024-05-28 04:54:32			0	34179	0	0	0	22436	21030	146890	27348	991921	40491	108253	0	0	8114	729296	0	0
2024-05-28 04:55:32			0	34185	0	0	0	22420	21030	146874	27517	991894	40491	108247	0	0	8114	729009	0	0
2024-05-28 04:56:32			0	34202	0	0	0	22420	21030	146834	27177	991903	40502	108247	0	0	8115	728196	0	0
2024-05-28 04:57:32			0	34219	0	0	0	22425	21030	146654	27476	991894	40480	108249	0	0	8116	727384	0	0
2024-05-28 04:58:32			0	34241	0	0	0	22418	21020	146610	27358	991886	40479	108246	0	0	8117	726374	0	0
2024-05-28 04:59:32			0	34250	0	0	0	22410	21020	146486	27441	991833	40468	108243	0	0	8118	725945	0	0
2024-05-28 05:00:32			0	34256	0	0	0	22405	21020	146542	27473	991886	40479	108241	0	0	8118	725659	0	0
2024-05-28 05:01:32			0	34297	0	0	0	22394	21020	146466	27300	991886	40458	108237	0	0	8121	723707	0	0
2024-05-28 05:02:32			0	34328	0	0	0	22386	21020	146354	27218	991824	40478	108234	0	0	8123	722234	0	0
2024-05-28 05:03:32			0	34335	0	0	0	22379	21020	146270	27279	991798	40489	108231	0	0	8123	721901	0	0
2024-05-28 05:04:32			0	34357	0	0	0	22368	21010	146171	27048	991843	40478	108227	0	0	8125	720897	0	0
2024-05-28 05:05:32			0	34408	0	0	0	22366	21020	146011	26996	991824	40478	108226	0	0	8128	718442	0	0
2024-05-28 05:06:32			0	34417	0	0	0	22358	21010	145875	26857	991808	40478	108223	0	0	8128	718056	0	0
2024-05-28 05:07:32			0	34470	0	0	0	22358	21000	145655	27008	991773	40466	108223	0	0	8131	715594	0	0
2024-05-28 05:08:32			0	34500	0	0	0	22355	21010	145487	27161	991701	40489	108222	0	0	8133	714141	0	0
2024-05-28 05:09:32			0	34555	0	0	0	22363	21000	145407	26930	991764	40477	108225	0	0	8136	711595	0	0
2024-05-28 05:10:32			0	34557	0	0	0	22355	20990	145163	27140	991756	40477	108222	0	0	8136	711540	0	0
2024-05-28 05:11:32			0	34615	0	0	0	22353	21000	145027	27376	991817	40477	108221	0	0	8139	708782	0	0
2024-05-28 05:12:32			0	34668	0	0	0	22358	20990	144839	27623	991756	40477	108223	0	0	8142	706344	0	0
2024-05-28 05:13:32			0	34729	0	0	0	22348	21000	144559	27074	991764	40499	108219	0	0	8146	703461	0	0
2024-05-28 05:14:32			0	34787	0	0	0	22358	20990	144363	27296	991668	40455	108223	0	0	8149	700805	0	0
2024-05-28 05:15:32			0	34824	0	0	0	22358	20990	144207	27383	991703	40488	108223	0	0	8151	699090	0	0
2024-05-28 05:16:32			0	34874	0	0	0	22366	20990	143939	27326	991694	40465	108226	0	0	8153	696777	0	0
2024-05-28 05:17:32			0	34948	0	0	0	22358	20990	143599	27225	991703	40465	108223	0	0	8158	693364	0	0
2024-05-28 05:18:32			0	35000	0	0	0	22348	20990	143399	27260	991614	40465	108219	0	0	8161	690973	0	0
2024-05-28 05:19:32			0	35073	0	0	0	22348	20990	143187	27256	991668	40477	108219	0	0	8165	687628	0	0
2024-05-28 05:20:32			0	35113	0	0	0	22345	20990	142927	27027	991614	40465	108218	0	0	8167	685800	0	0
2024-05-28 05:21:32			0	35187	0	0	0	22337	20970	142720	27140	991642	40475	108215	0	0	8171	682503	0	0
2024-05-28 05:22:32			0	35249	0	0	0	22345	20970	142436	27007	991563	40453	108218	0	0	8174	679687	0	0
2024-05-28 05:23:32			0	35316	0	0	0	22345	20970	142204	27557	991554	40464	108218	0	0	8178	676653	0	0
2024-05-28 05:24:32			0	35364	0	0	0	22332	20970	141980	27464	991509	40475	108213	0	0	8181	674486	0	0
2024-05-28 05:25:32			0	35420	0	0	0	22329	20970	141704	26935	991581	40475	108212	0	0	8184	671964	0	0
2024-05-28 05:26:32			0	35476	0	0	0	22335	20960	141572	26828	991590	40484	108214	0	0	8187	669486	0	0
2024-05-28 05:27:32			0	35531	0	0	0	22340	20970	141348	27187	991528	40486	108216	0	0	8190	666986	0	0
2024-05-28 05:28:32			0	35562	0	0	0	22350	20960	141248	27194	991626	40485	108220	0	0	8191	665637	0	0
2024-05-28 05:29:32			0	35597	0	0	0	22358	20970	141032	27320	991607	40464	108223	0	0	8193	664039	0	0
2024-05-28 05:30:32			0	35641	0	0	0	22363	20970	140856	27383	991634	40464	108225	0	0	8195	662079	0	0
2024-05-28 05:31:32			0	35665	0	0	0	22353	20970	140780	27325	991616	40464	108221	0	0	8197	661012	0	0
2024-05-28 05:32:32			0	35697	0	0	0	22350	20970	140696	27138	991589	40475	108220	0	0	8198	659591	0	0
2024-05-28 05:33:32			0	35734	0	0	0	22355	20960	140524	27147	991590	40473	108222	0	0	8200	657987	0	0
2024-05-28 05:34:32			0	35770	0	0	0	22355	20960	140440	27168	991519	40474	108222	0	0	8202	656394	0	0
2024-05-28 05:35:32			0	35790	0	0	0	22358	20960	140304	27201	991626	40463	108223	0	0	8203	655510	0	0
2024-05-28 05:36:32			0	35809	0	0	0	22366	20960	140260	27345	991643	40462	108226	0	0	8204	654671	0	0
2024-05-28 05:37:32			0	35814	0	0	0	22350	20960	140136	27429	991537	40473	108220	0	0	8205	654451	0	0
2024-05-28 05:38:32			0	35846	0	0	0	22348	20960	140036	27350	991546	40485	108219	0	0	8207	653040	0	0
2024-05-28 05:39:32			0	35837	0	0	0	22353	20950	139972	27123	991529	40461	108221	0	0	8206	653473	0	0
2024-05-28 05:40:32			0	35851	0	0	0	22335	20960	139988	27102	991537	40473	108214	0	0	8207	652819	0	0
2024-05-28 05:41:32			0	35884	0	0	0	22350	20960	139889	27197	991590	40473	108220	0	0	8209	651367	0	0
2024-05-28 05:42:32			0	35893	0	0	0	22381	20960	139973	26896	991590	40484	108232	0	0	8208	650972	0	0
2024-05-28 05:43:32			0	35884	0	0	0	22425	20970	139817	26979	991767	40497	108249	0	0	8207	651331	0	0
2024-05-28 05:44:32			0	35887	0	0	0	22441	20990	139909	27145	991827	40488	108255	0	0	8207	651127	0	0
2024-05-28 05:45:32			0	35861	0	0	0	22467	20980	139904	27017	991792	40498	108265	0	0	8205	652307	0	0
2024-05-28 05:46:32			0	35872	0	0	0	22477	20990	139989	27272	991889	40477	108269	0	0	8206	651787	0	0
2024-05-28 05:47:32			0	35848	0	0	0	22488	21000	140032	27312	991977	40509	108273	0	0	8204	652807	0	0
2024-05-28 05:48:32			0	35858	0	0	0	22490	21020	140041	27083	992010	40489	108274	0	0	8205	652294	0	0
2024-05-28 05:49:32			0	35856	0	0	0	22470	21010	140152	27145	991887	40489	108266	0	0	8205	652419	0	0
2024-05-28 05:50:32			0	35841	0	0	0	22415	21000	140160	27206	991711	40465	108245	0	0	8205	653115	0	0
2024-05-28 05:51:32			0	35828	0	0	0	22353	21000	140092	26970	991613	40456	108221	0	0	8206	653688	0	0
2024-05-28 05:52:32			0	35835	0	0	0	22327	20980	140160	27000	991518	40453	108211	0	0	8206	653452	0	0
2024-05-28 05:53:32			0	35787	0	0	0	22314	20950	140228	27256	991361	40451	108206	0	0	8204	655679	0	0
2024-05-28 05:54:32			0	35742	0	0	0	22293	20940	140388	27270	991185	40439	108198	0	0	8202	657706	0	0
2024-05-28 05:55:32			0	35722	0	0	0	22246	20910	140484	27377	991089	40436	108180	0	0	8201	658701	0	0
2024-05-28 05:56:32			0	35704	0	0	0	22210	20900	140628	27580	990931	40457	108166	0	0	8201	659536	0	0
2024-05-28 05:57:32			0	35720	0	0	0	22142	20860	140572	27393	990873	40431	108140	0	0	8203	658972	0	0
2024-05-28 05:58:32			0	35765	0	0	0	22109	20850	140472	27601	990768	40430	108127	0	0	8206	657015	0	0
2024-05-28 05:59:32			0	35790	0	0	0	22085	20820	140396	27246	990619	40460	108118	0	0	8207	656019	0	0
2024-05-28 06:00:32			0	35796	0	0	0	22059	20780	140280	26738	990507	40436	108108	0	0	8208	655899	0	0
2024-05-28 06:01:32			0	35799	0	0	0	22031	20770	140340	27307	990429	40435	108097	0	0	8208	655803	0	0
2024-05-28 06:02:32			0	35751	0	0	0	22002	20750	140360	26986	990316	40432	108086	0	0	8206	657999	0	0
2024-05-28 06:03:32			0	35689	0	0	0	21989	20720	140740	27095	990274	40430	108081	0	0	8203	660860	0	0
2024-05-28 06:04:32			0	35607	0	0	0	21950	20710	141132	27206	990115	40417	108066	0	0	8199	664549	0	0
2024-05-28 06:05:32			0	35525	0	0	0	21929	20680	141392	27431	990047	40416	108058	0	0	8195	668327	0	0
2024-05-28 06:06:32			0	35431	0	0	0	21922	20670	141820	27300	989968	40425	108055	0	0	8190	672586	0	0
2024-05-28 06:07:32			0	35345	0	0	0	21914	20650	142116	27511	989935	40413	108052	0	0	8185	676541	0	0
2024-05-28 06:08:32			0	35302	0	0	0	21909	20630	142436	27305	989803	40411	108050	0	0	8183	678563	0	0
2024-05-28 06:09:32			0	35229	0	0	0	21898	20620	142728	27171	989805	40420	108046	0	0	8179	681915	0	0
2024-05-28 06:10:32			0	35161	0	0	0	21883	20600	142884	27294	989692	40418	108040	0	0	8176	685089	0	0
2024-05-28 06:11:32			0	35111	0	0	0	21877	20580	143175	27026	989666	40407	108038	0	0	8173	687450	0	0
2024-05-28 06:12:32			0	35060	0	0	0	21859	20560	143355	27097	989651	40415	108031	0	0	8170	689863	0	0
2024-05-28 06:13:32			0	35025	0	0	0	21836	20560	143499	27024	989606	40405	108022	0	0	8169	691471	0	0
2024-05-28 06:14:32			0	35009	0	0	0	21838	20550	143667	27291	989589	40414	108023	0	0	8168	692245	0	0
2024-05-28 06:15:32			0	34942	0	0	0	21838	20540	143831	27422	989599	40414	108023	0	0	8164	695371	0	0
2024-05-28 06:16:32			0	34929	0	0	0	21838	20530	143911	26989	989537	40435	108023	0	0	8163	696009	0	0
2024-05-28 06:17:32			0	34918	0	0	0	21846	20530	144011	27367	989529	40402	108026	0	0	8163	696518	0	0
2024-05-28 06:18:32			0	34881	0	0	0	21851	20520	144083	27319	989565	40389	108028	0	0	8160	698268	0	0
2024-05-28 06:19:32			0	34877	0	0	0	21854	20510	144119	26915	989477	40422	108029	0	0	8160	698492	0	0
2024-05-28 06:20:32			0	34888	0	0	0	21841	20510	144147	27319	989477	40412	108024	0	0	8161	697983	0	0
2024-05-28 06:21:32			0	34867	0	0	0	21823	20500	144231	27189	989407	40410	108017	0	0	8160	698994	0	0
2024-05-28 06:22:32			0	34878	0	0	0	21820	20490	144151	27199	989382	40398	108016	0	0	8161	698523	0	0
2024-05-28 06:23:32			0	34932	0	0	0	21815	20480	143987	27230	989374	40397	108014	0	0	8164	696063	0	0
2024-05-28 06:24:32			0	34926	0	0	0	21802	20480	143867	27194	989312	40397	108009	0	0	8163	696341	0	0
2024-05-28 06:25:32			0	34979	0	0	0	21807	20480	143723	27294	989374	40397	108011	0	0	8166	693895	0	0
2024-05-28 06:26:32			0	35009	0	0	0	21807	20460	143563	27057	989287	40407	108011	0	0	8168	692590	0	0
2024-05-28 06:27:32			0	35057	0	0	0	21805	20460	143399	27242	989358	40407	108010	0	0	8171	690383	0	0
2024-05-28 06:28:32			0	35128	0	0	0	21810	20460	143072	27336	989279	40395	108012	0	0	8174	687129	0	0
2024-05-28 06:29:32			0	35207	0	0	0	21815	20460	142944	27445	989332	40407	108014	0	0	8179	683521	0	0
2024-05-28 06:30:32			0	35268	0	0	0	21831	20450	142688	27460	989323	40417	108020	0	0	8182	680783	0	0
2024-05-28 06:31:32			0	35315	0	0	0	21838	20450	142404	27478	989262	40416	108023	0	0	8184	678649	0	0
2024-05-28 06:32:32			0	35373	0	0	0	21841	20440	142280	27415	989360	40416	108024	0	0	8187	676061	0	0
2024-05-28 06:33:32			0	35399	0	0	0	21849	20450	141984	27383	989315	40416	108027	0	0	8188	674849	0	0
2024-05-28 06:34:32			0	35459	0	0	0	21859	20450	141832	27343	989395	40416	108031	0	0	8192	672144	0	0
2024-05-28 06:35:32			0	35511	0	0	0	21862	20450	141632	27282	989376	40428	108032	0	0	8194	669806	0	0
2024-05-28 06:36:32			0	35516	0	0	0	21870	20460	141528	27447	989385	40417	108035	0	0	8195	669545	0	0
2024-05-28 06:37:32			0	35550	0	0	0	21864	20460	141460	27557	989420	40407	108033	0	0	8196	668020	0	0
2024-05-28 06:38:32			0	35580	0	0	0	21867	20450	141404	27495	989368	40394	108034	0	0	8198	666713	0	0
2024-05-28 06:39:32			0	35621	0	0	0	21859	20460	141316	27267	989473	40417	108031	0	0	8200	664843	0	0
2024-05-28 06:40:32			0	35633	0	0	0	21872	20460	141188	27379	989464	40417	108036	0	0	8201	664308	0	0
2024-05-28 06:41:32			0	35654	0	0	0	21875	20460	141088	27334	989526	40417	108037	0	0	8202	663371	0	0
2024-05-28 06:42:32			0	35668	0	0	0	21875	20480	141092	27258	989498	40418	108037	0	0	8203	662674	0	0
2024-05-28 06:43:32			0	35709	0	0	0	21877	20470	140884	27229	989428	40407	108038	0	0	8205	660885	0	0
2024-05-28 06:44:32			0	35716	0	0	0	21880	20490	140832	27265	989489	40419	108039	0	0	8205	660501	0	0
2024-05-28 06:45:32			0	35742	0	0	0	21880	20480	140780	27390	989427	40408	108039	0	0	8207	659382	0	0
2024-05-28 06:46:32			0	35761	0	0	0	21883	20480	140756	27211	989480	40430	108040	0	0	8208	658539	0	0
2024-05-28 06:47:32			0	35744	0	0	0	21893	20480	140716	27071	989498	40418	108044	0	0	8207	659294	0	0
2024-05-28 06:48:32			0	35765	0	0	0	21896	20490	140588	27192	989550	40420	108045	0	0	8208	658326	0	0
2024-05-28 06:49:32			0	35766	0	0	0	21890	20490	140616	27072	989595	40431	108043	0	0	8208	658281	0	0
2024-05-28 06:50:32			0	35767	0	0	0	21898	20490	140568	27371	989497	40410	108046	0	0	8208	658237	0	0
2024-05-28 06:51:32			0	35789	0	0	0	21906	20500	140636	27462	989585	40432	108049	0	0	8209	657226	0	0
2024-05-28 06:52:32			0	35799	0	0	0	21909	20500	140456	27279	989638	40420	108050	0	0	8209	656783	0	0
2024-05-28 06:53:32			0	35828	0	0	0	21911	20500	140384	27192	989620	40410	108051	0	0	8211	655500	0	0
2024-05-28 06:54:32			0	35862	0	0	0	21914	20510	140285	27400	989681	40421	108052	0	0	8213	653962	0	0
2024-05-28 06:55:32			0	35883	0	0	0	21927	20520	140025	27289	989733	40423	108057	0	0	8214	653000	0	0
2024-05-28 06:56:32			0	35943	0	0	0	21935	20520	140001	27412	989725	40412	108060	0	0	8217	650359	0	0
2024-05-28 06:57:32			0	35982	0	0	0	21948	20540	139749	27282	989758	40414	108065	0	0	8219	648575	0	0
2024-05-28 06:58:32			0	36020	0	0	0	21961	20530	139653	27374	989830	40414	108070	0	0	8221	646945	0	0
2024-05-28 06:59:32			0	36088	0	0	0	21950	20550	139417	27267	989793	40414	108066	0	0	8224	643901	0	0
2024-05-28 07:00:32			0	36150	0	0	0	21948	20540	139237	27561	989838	40447	108065	0	0	8228	641235	0	0
2024-05-28 07:01:32			0	36198	0	0	0	21942	20550	138941	27365	989793	40414	108063	0	0	8230	639113	0	0
2024-05-28 07:02:32			0	36253	0	0	0	21935	20550	138745	27203	989740	40414	108060	0	0	8234	636729	0	0
2024-05-28 07:03:32			0	36299	0	0	0	21942	20550	138549	27199	989846	40425	108063	0	0	8236	634739	0	0
2024-05-28 07:04:32			0	36348	0	0	0	21937	20550	138405	27379	989714	40414	108061	0	0	8239	632624	0	0
2024-05-28 07:05:32			0	36396	0	0	0	21942	20550	138201	27225	989749	40414	108063	0	0	8241	630558	0	0
2024-05-28 07:06:32			0	36427	0	0	0	21932	20540	138097	27476	989785	40425	108059	0	0	8243	629261	0	0
2024-05-28 07:07:32			0	36450	0	0	0	21942	20550	138073	27479	989775	40414	108063	0	0	8244	628239	0	0
2024-05-28 07:08:32			0	36483	0	0	0	21940	20550	137933	27466	989793	40436	108062	0	0	8246	626824	0	0
2024-05-28 07:09:32			0	36487	0	0	0	21937	20540	137833	27722	989732	40425	108061	0	0	8246	626687	0	0
2024-05-28 07:10:32			0	36508	0	0	0	21922	20530	137817	27351	989723	40424	108055	0	0	8247	625823	0	0
2024-05-28 07:11:32			0	36534	0	0	0	21935	20550	137665	27402	989740	40403	108060	0	0	8248	624642	0	0
2024-05-28 07:12:32			0	36526	0	0	0	21932	20550	137737	27315	989775	40425	108059	0	0	8248	624984	0	0
2024-05-28 07:13:32			0	36550	0	0	0	21937	20550	137637	27267	989793	40414	108061	0	0	8249	623959	0	0
2024-05-28 07:14:32			0	36540	0	0	0	21937	20540	137641	27298	989758	40403	108061	0	0	8249	624421	0	0
2024-05-28 07:15:32			0	36546	0	0	0	21937	20550	137621	27476	989828	40414	108061	0	0	8249	624130	0	0
2024-05-28 07:16:32			0	36558	0	0	0	21942	20550	137533	27258	989793	40425	108063	0	0	8250	623618	0	0
2024-05-28 07:17:32			0	36575	0	0	0	21940	20550	137549	27486	989793	40414	108062	0	0	8251	622892	0	0
2024-05-28 07:18:32			0	36569	0	0	0	21940	20550	137445	27274	989775	40414	108062	0	0	8250	623148	0	0
2024-05-28 07:19:32			0	36596	0	0	0	21945	20550	137433	27119	989802	40425	108064	0	0	8252	621997	0	0
2024-05-28 07:20:32			0	36625	0	0	0	21953	20550	137358	27192	989767	40436	108067	0	0	8253	620763	0	0
2024-05-28 07:21:32			0	36641	0	0	0	21950	20550	137266	27471	989793	40414	108066	0	0	8254	620082	0	0
2024-05-28 07:22:32			0	36675	0	0	0	21955	20550	137254	27258	989749	40425	108068	0	0	8256	618638	0	0
2024-05-28 07:23:32			0	36674	0	0	0	21955	20550	137130	27459	989802	40425	108068	0	0	8256	618680	0	0
2024-05-28 07:24:32			0	36703	0	0	0	21955	20550	137046	27164	989802	40414	108068	0	0	8257	617450	0	0
2024-05-28 07:25:32			0	36755	0	0	0	21968	20560	136890	27414	989837	40415	108073	0	0	8260	615215	0	0
2024-05-28 07:26:32			0	36774	0	0	0	21976	20560	136798	27142	989863	40426	108076	0	0	8261	614412	0	0
2024-05-28 07:27:32			0	36779	0	0	0	21981	20560	136730	27329	989898	40426	108078	0	0	8261	614200	0	0
2024-05-28 07:28:32			0	36834	0	0	0	21971	20560	136690	27097	989872	40426	108074	0	0	8264	611880	0	0
2024-05-28 07:29:32			0	36853	0	0	0	21971	20570	136586	27460	989933	40426	108074	0	0	8265	611046	0	0
2024-05-28 07:30:32			0	36879	0	0	0	21981	20570	136382	27239	989853	40416	108078	0	0	8266	609953	0	0
2024-05-28 07:31:32			0	36889	0	0	0	21968	20580	136398	27088	989897	40416	108073	0	0	8267	609499	0	0
2024-05-28 07:32:32			0	36920	0	0	0	21984	20570	136290	27163	989941	40438	108079	0	0	8268	608231	0	0
2024-05-28 07:33:32			0	36915	0	0	0	21971	20570	136294	26991	989907	40416	108074	0	0	8268	608441	0	0
2024-05-28 07:34:32			0	36919	0	0	0	21981	20580	136194	27144	989976	40427	108078	0	0	8268	608239	0	0
2024-05-28 07:35:32			0	36917	0	0	0	21979	20580	136154	27500	989923	40416	108077	0	0	8268	608323	0	0
2024-05-28 07:36:32			0	36914	0	0	0	21984	20570	136246	27261	989941	40426	108079	0	0	8268	608483	0	0
2024-05-28 07:37:32			0	36920	0	0	0	21979	20580	136198	27133	989976	40427	108077	0	0	8268	608197	0	0
2024-05-28 07:38:32			0	36907	0	0	0	21973	20580	136270	27072	989897	40427	108075	0	0	8268	608743	0	0
2024-05-28 07:39:32			0	36911	0	0	0	21992	20580	136330	27251	989923	40416	108082	0	0	8268	608575	0	0
2024-05-28 07:40:32			0	36892	0	0	0	21984	20580	136210	27055	989958	40417	108079	0	0	8267	609373	0	0
2024-05-28 07:41:32			0	36908	0	0	0	21989	20580	136254	27225	989897	40427	108081	0	0	8267	608701	0	0
2024-05-28 07:42:32			0	36876	0	0	0	21981	20580	136290	27083	989958	40428	108078	0	0	8266	610045	0	0
2024-05-28 07:43:32			0	36889	0	0	0	21981	20580	136330	27211	989870	40416	108078	0	0	8267	609499	0	0
2024-05-28 07:44:32			0	36882	0	0	0	21976	20580	136286	26765	989852	40417	108076	0	0	8266	609793	0	0
2024-05-28 07:45:32			0	36903	0	0	0	21976	20580	136306	27234	989844	40427	108076	0	0	8267	608911	0	0
2024-05-28 07:46:32			0	36913	0	0	0	21973	20570	136266	27154	989862	40416	108075	0	0	8268	608525	0	0
2024-05-28 07:47:32			0	36903	0	0	0	21971	20580	136286	27230	989897	40427	108074	0	0	8268	608911	0	0
2024-05-28 07:48:32			0	36928	0	0	0	21976	20570	136298	27488	989862	40438	108076	0	0	8269	607895	0	0
2024-05-28 07:49:32			0	36928	0	0	0	21984	20570	136294	27144	989774	40426	108079	0	0	8269	607895	0	0
2024-05-28 07:50:32			0	36922	0	0	0	21973	20570	136202	27479	989835	40426	108075	0	0	8268	608147	0	0
2024-05-28 07:51:32			0	36914	0	0	0	21973	20560	136230	27228	989818	40416	108075	0	0	8268	608516	0	0
2024-05-28 07:52:32			0	36902	0	0	0	21976	20570	136218	27215	989880	40426	108076	0	0	8267	608987	0	0
2024-05-28 07:53:32			0	36924	0	0	0	21973	20570	136302	27428	989862	40426	108075	0	0	8269	608063	0	0
2024-05-28 07:54:32			0	36909	0	0	0	21986	20570	136170	27102	989907	40426	108080	0	0	8268	608693	0	0
2024-05-28 07:55:32			0	36923	0	0	0	21994	20570	136350	27033	989933	40426	108083	0	0	8268	608105	0	0
2024-05-28 07:56:32			0	36914	0	0	0	21984	20570	136294	27130	989915	40426	108079	0	0	8268	608483	0	0
2024-05-28 07:57:32			0	36910	0	0	0	21981	20560	136318	27436	989818	40426	108078	0	0	8268	608684	0	0
2024-05-28 07:58:32			0	36894	0	0	0	21979	20560	136274	27071	989872	40416	108077	0	0	8267	609356	0	0
2024-05-28 07:59:32			0	36906	0	0	0	21973	20570	136326	27286	989933	40416	108075	0	0	8268	608819	0	0
2024-05-28 08:00:32			0	36899	0	0	0	21979	20580	136266	27450	989923	40427	108077	0	0	8267	609079	0	0
2024-05-28 08:01:32			0	36881	0	0	0	21979	20570	136394	26918	989986	40426	108077	0	0	8266	609869	0	0
2024-05-28 08:02:32			0	36863	0	0	0	21984	20580	136330	27168	989923	40416	108079	0	0	8265	610592	0	0
2024-05-28 08:03:32			0	36866	0	0	0	21979	20580	136422	27407	989976	40427	108077	0	0	8265	610466	0	0
2024-05-28 08:04:32			0	36866	0	0	0	21973	20580	136422	27467	990011	40417	108075	0	0	8266	610466	0	0
2024-05-28 08:05:32			0	36858	0	0	0	21979	20580	136446	27216	989985	40451	108077	0	0	8265	610802	0	0
2024-05-28 08:06:32			0	36825	0	0	0	21984	20580	136534	27303	989923	40427	108079	0	0	8263	612192	0	0
2024-05-28 08:07:32			0	36833	0	0	0	21979	20590	136502	27135	989993	40417	108077	0	0	8264	611821	0	0
2024-05-28 08:08:32			0	36842	0	0	0	21979	20590	136518	27291	989940	40440	108077	0	0	8264	611442	0	0
2024-05-28 08:09:32			0	36814	0	0	0	21986	20580	136594	27241	990038	40440	108080	0	0	8263	612656	0	0
2024-05-28 08:10:32			0	36794	0	0	0	21986	20580	136714	27364	989985	40428	108080	0	0	8262	613499	0	0
2024-05-28 08:11:32			0	36785	0	0	0	21984	20580	136654	27338	989985	40451	108079	0	0	8261	613879	0	0
2024-05-28 08:12:32			0	36807	0	0	0	21984	20580	136770	27450	989958	40428	108079	0	0	8262	612951	0	0
2024-05-28 08:13:32			0	36767	0	0	0	21992	20590	136798	27306	990020	40417	108082	0	0	8260	614605	0	0
2024-05-28 08:14:32			0	36769	0	0	0	21992	20590	136806	27336	990028	40429	108082	0	0	8260	614521	0	0
2024-05-28 08:15:32			0	36734	0	0	0	21989	20590	136922	27481	990002	40418	108081	0	0	8258	616001	0	0
2024-05-28 08:16:32			0	36739	0	0	0	21992	20590	137002	27554	989993	40428	108082	0	0	8259	615789	0	0
2024-05-28 08:17:32			0	36715	0	0	0	21989	20600	136946	27024	990037	40429	108081	0	0	8257	616771	0	0
2024-05-28 08:18:32			0	36721	0	0	0	21984	20590	136994	27284	989993	40417	108079	0	0	8258	616551	0	0
2024-05-28 08:19:32			0	36700	0	0	0	21984	20590	137146	27438	990020	40428	108079	0	0	8257	617441	0	0
2024-05-28 08:20:32			0	36682	0	0	0	21992	20600	137094	27372	990037	40429	108082	0	0	8256	618170	0	0
2024-05-28 08:21:32			0	36688	0	0	0	21992	20590	137194	27331	990055	40429	108082	0	0	8256	617950	0	0
2024-05-28 08:22:32			0	36649	0	0	0	21992	20610	137262	27211	989974	40419	108082	0	0	8254	619536	0	0
2024-05-28 08:23:32			0	36625	0	0	0	21997	20590	137410	27066	990028	40429	108084	0	0	8252	620625	0	0
2024-05-28 08:24:32			0	36590	0	0	0	21994	20600	137417	27372	990037	40452	108083	0	0	8251	622081	0	0
2024-05-28 08:25:32			0	36585	0	0	0	21997	20600	137505	27156	990010	40418	108084	0	0	8250	622294	0	0
2024-05-28 08:26:32			0	36557	0	0	0	21999	20610	137625	27277	990107	40430	108085	0	0	8249	623453	0	0
2024-05-28 08:27:32			0	36518	0	0	0	22012	20610	137801	27265	990107	40441	108090	0	0	8247	625119	0	0
2024-05-28 08:28:32			0	36503	0	0	0	22010	20610	137869	27274	990080	40430	108089	0	0	8246	625760	0	0
2024-05-28 08:29:32			0	36471	0	0	0	22010	20600	137921	27185	990117	40429	108089	0	0	8244	627165	0	0
2024-05-28 08:30:32			0	36448	0	0	0	22015	20620	138025	27344	990097	40431	108091	0	0	8243	628081	0	0
2024-05-28 08:31:32			0	36440	0	0	0	22015	20610	138065	27409	990089	40431	108091	0	0	8242	628459	0	0
2024-05-28 08:32:32			0	36424	0	0	0	22025	20610	138213	27562	990089	40409	108095	0	0	8241	629146	0	0
2024-05-28 08:33:32			0	36410	0	0	0	22033	20620	138245	27274	990150	40431	108098	0	0	8241	629712	0	0
2024-05-28 08:34:32			0	36395	0	0	0	22023	20620	138365	27562	990132	40432	108094	0	0	8240	630357	0	0
2024-05-28 08:35:32			0	36384	0	0	0	22031	20620	138241	27258	990124	40431	108097	0	0	8239	630830	0	0
2024-05-28 08:36:32			0	36391	0	0	0	22044	20620	138325	27679	990150	40431	108102	0	0	8239	630529	0	0
2024-05-28 08:37:32			0	36351	0	0	0	22070	20630	138397	27514	990140	40443	108112	0	0	8237	632215	0	0
2024-05-28 08:38:32			0	36347	0	0	0	22064	20620	138477	27237	990212	40432	108110	0	0	8237	632423	0	0
2024-05-28 08:39:32			0	36348	0	0	0	22070	20640	138417	27312	990210	40433	108112	0	0	8237	632310	0	0
2024-05-28 08:40:32			0	36342	0	0	0	22067	20630	138405	27542	990202	40421	108111	0	0	8236	632603	0	0
2024-05-28 08:41:32			0	36356	0	0	0	22062	20640	138385	27656	990210	40465	108109	0	0	8237	631965	0	0
2024-05-28 08:42:32			0	36371	0	0	0	22051	20640	138417	27346	990272	40434	108105	0	0	8238	631319	0	0
2024-05-28 08:43:32			0	36386	0	0	0	22072	20640	138289	27339	990263	40455	108113	0	0	8239	630674	0	0
2024-05-28 08:44:32			0	36395	0	0	0	22054	20640	138281	27422	990245	40434	108106	0	0	8239	630287	0	0
2024-05-28 08:45:32			0	36414	0	0	0	22057	20640	138217	27485	990237	40444	108107	0	0	8240	629471	0	0
2024-05-28 08:46:32			0	36402	0	0	0	22062	20650	138253	27381	990227	40434	108109	0	0	8240	629951	0	0
2024-05-28 08:47:32			0	36411	0	0	0	22064	20650	138149	27602	990227	40434	108110	0	0	8240	629565	0	0
2024-05-28 08:48:32			0	36427	0	0	0	22057	20650	138137	27438	990254	40434	108107	0	0	8241	628878	0	0
2024-05-28 08:49:32			0	36443	0	0	0	22057	20650	138101	27319	990262	40434	108107	0	0	8242	628191	0	0
2024-05-28 08:50:32			0	36454	0	0	0	22057	20640	138065	26963	990272	40434	108107	0	0	8243	627754	0	0
2024-05-28 08:51:32			0	36435	0	0	0	22064	20660	138061	27171	990297	40435	108110	0	0	8241	628500	0	0
2024-05-28 08:52:32			0	36441	0	0	0	22062	20640	137981	27183	990245	40422	108109	0	0	8242	628312	0	0
2024-05-28 08:53:32			0	36452	0	0	0	22067	20650	138045	27381	990254	40434	108111	0	0	8242	627805	0	0
2024-05-28 08:54:32			0	36443	0	0	0	22072	20650	138053	27164	990280	40434	108113	0	0	8242	628191	0	0
2024-05-28 08:55:32			0	36454	0	0	0	22070	20660	138049	27083	990332	40447	108112	0	0	8242	627685	0	0
2024-05-28 08:56:32			0	36424	0	0	0	22088	20670	138089	27190	990314	40447	108119	0	0	8241	628937	0	0
2024-05-28 08:57:32			0	36425	0	0	0	22085	20660	138077	26968	990359	40447	108118	0	0	8241	628929	0	0
2024-05-28 08:58:32			0	36416	0	0	0	22090	20670	138053	27402	990367	40447	108120	0	0	8240	629280	0	0
2024-05-28 08:59:32			0	36404	0	0	0	22088	20670	138117	27431	990349	40447	108119	0	0	8239	629796	0	0
2024-05-28 09:00:32			0	36416	0	0	0	22093	20670	138125	27298	990402	40447	108121	0	0	8240	629280	0	0
2024-05-28 09:01:32			0	36393	0	0	0	22090	20670	138165	27367	990393	40436	108120	0	0	8239	630268	0	0
2024-05-28 09:02:32			0	36416	0	0	0	22103	20680	138113	27267	990331	40448	108125	0	0	8240	629245	0	0
2024-05-28 09:03:32			0	36403	0	0	0	22090	20680	138057	27260	990331	40448	108120	0	0	8239	629804	0	0
2024-05-28 09:04:32			0	36401	0	0	0	22090	20690	138125	27358	990454	40438	108120	0	0	8239	629855	0	0
2024-05-28 09:05:32			0	36415	0	0	0	22088	20680	138129	27192	990419	40437	108119	0	0	8240	629288	0	0
2024-05-28 09:06:32			0	36417	0	0	0	22080	20670	138133	27177	990349	40447	108116	0	0	8240	629237	0	0
2024-05-28 09:07:32			0	36443	0	0	0	22072	20680	138001	27149	990384	40437	108113	0	0	8242	628087	0	0
2024-05-28 09:08:32			0	36415	0	0	0	22072	20680	138161	27320	990339	40437	108113	0	0	8240	629288	0	0
2024-05-28 09:09:32			0	36446	0	0	0	22077	20680	138101	27235	990384	40448	108115	0	0	8242	627958	0	0
2024-05-28 09:10:32			0	36445	0	0	0	22088	20690	138037	27346	990454	40449	108119	0	0	8242	627966	0	0
2024-05-28 09:11:32			0	36425	0	0	0	22101	20690	137961	27518	990435	40471	108124	0	0	8240	628824	0	0
2024-05-28 09:12:32			0	36439	0	0	0	22135	20690	138025	27485	990542	40449	108137	0	0	8241	628224	0	0
2024-05-28 09:13:32			0	36425	0	0	0	22148	20700	138149	27440	990638	40461	108142	0	0	8240	628790	0	0
2024-05-28 09:14:32			0	36404	0	0	0	22137	20710	138137	27287	990629	40451	108138	0	0	8239	629656	0	0
2024-05-28 09:15:32			0	36373	0	0	0	22140	20720	138157	27507	990646	40453	108139	0	0	8237	630954	0	0
2024-05-28 09:16:32			0	36368	0	0	0	22171	20720	138317	27263	990637	40462	108151	0	0	8236	631169	0	0
2024-05-28 09:17:32			0	36340	0	0	0	22189	20720	138353	27649	990699	40463	108158	0	0	8235	632374	0	0
2024-05-28 09:18:32			0	36335	0	0	0	22189	20730	138481	27580	990707	40453	108158	0	0	8234	632555	0	0
2024-05-28 09:19:32			0	36307	0	0	0	22197	20740	138517	27381	990750	40464	108161	0	0	8233	633727	0	0
2024-05-28 09:20:32			0	36292	0	0	0	22197	20740	138533	27521	990777	40454	108161	0	0	8232	634374	0	0
2024-05-28 09:21:32			0	36274	0	0	0	22199	20760	138621	27464	990837	40455	108162	0	0	8231	635081	0	0
2024-05-28 09:22:32			0	36263	0	0	0	22202	20750	138669	27466	990829	40444	108163	0	0	8230	635592	0	0
2024-05-28 09:23:32			0	36251	0	0	0	22210	20760	138697	27213	990811	40466	108166	0	0	8230	636076	0	0
2024-05-28 09:24:32			0	36253	0	0	0	22225	20760	138609	27476	990864	40455	108172	0	0	8230	635989	0	0
2024-05-28 09:25:32			0	36241	0	0	0	22231	20770	138609	27523	990907	40457	108174	0	0	8229	636473	0	0
2024-05-28 09:26:32			0	36235	0	0	0	22254	20770	138645	27215	990881	40467	108183	0	0	8228	636733	0	0
2024-05-28 09:27:32			0	36244	0	0	0	22259	20780	138617	27260	990950	40467	108185	0	0	8229	636308	0	0
2024-05-28 09:28:32			0	36275	0	0	0	22249	20790	138593	27306	990941	40458	108181	0	0	8230	634933	0	0
2024-05-28 09:29:32			0	36316	0	0	0	22249	20800	138461	27426	991011	40469	108181	0	0	8233	633128	0	0
2024-05-28 09:30:32			0	36350	0	0	0	22251	20800	138309	27313	990939	40470	108182	0	0	8234	631664	0	0
2024-05-28 09:31:32			0	36409	0	0	0	22254	20800	138085	27265	990992	40470	108183	0	0	8238	629128	0	0
2024-05-28 09:32:32			0	36436	0	0	0	22280	20810	137977	27351	990974	40482	108193	0	0	8239	627935	0	0
2024-05-28 09:33:32			0	36520	0	0	0	22290	20810	137697	27469	991054	40493	108197	0	0	8243	624342	0	0
2024-05-28 09:34:32			0	36584	0	0	0	22309	20820	137401	27362	991151	40471	108204	0	0	8246	621579	0	0
2024-05-28 09:35:32			0	36664	0	0	0	22303	20830	137106	27248	991220	40484	108202	0	0	8250	618146	0	0
2024-05-28 09:36:32			0	36743	0	0	0	22314	20820	136730	27409	991212	40483	108206	0	0	8254	614837	0	0
2024-05-28 09:37:32			0	36828	0	0	0	22303	20840	136562	27381	991238	40496	108202	0	0	8259	611185	0	0
2024-05-28 09:38:32			0	36887	0	0	0	22303	20840	136242	27031	991211	40485	108202	0	0	8262	608706	0	0
2024-05-28 09:39:32			0	36959	0	0	0	22316	20850	136034	26989	991219	40474	108207	0	0	8266	605657	0	0
2024-05-28 09:40:32			0	37006	0	0	0	22316	20850	135802	27279	991281	40474	108207	0	0	8268	603693	0	0
2024-05-28 09:41:32			0	37007	0	0	0	22306	20850	135838	27144	991254	40474	108203	0	0	8268	603652	0	0
2024-05-28 09:42:32			0	37020	0	0	0	22301	20860	135870	27026	991218	40464	108201	0	0	8269	603076	0	0
2024-05-28 09:43:32			0	36985	0	0	0	22301	20860	135842	27071	991218	40475	108201	0	0	8267	604537	0	0
2024-05-28 09:44:32			0	36959	0	0	0	22306	20870	135926	27312	991226	40464	108203	0	0	8266	605590	0	0
2024-05-28 09:45:32			0	36941	0	0	0	22306	20860	136118	27367	991298	40475	108203	0	0	8265	606376	0	0
2024-05-28 09:46:32			0	36905	0	0	0	22306	20870	136218	27412	991280	40475	108203	0	0	8263	607850	0	0
2024-05-28 09:47:32			0	36866	0	0	0	22316	20870	136406	27098	991280	40487	108207	0	0	8261	609486	0	0
2024-05-28 09:48:32			0	36821	0	0	0	22309	20880	136510	27621	991350	40477	108204	0	0	8259	611344	0	0
2024-05-28 09:49:32			0	36774	0	0	0	22301	20880	136734	27324	991358	40466	108201	0	0	8256	613324	0	0
2024-05-28 09:50:32			0	36722	0	0	0	22309	20880	136906	27360	991296	40488	108204	0	0	8254	615520	0	0
2024-05-28 09:51:32			0	36623	0	0	0	22314	20880	137226	27355	991305	40488	108206	0	0	8248	619714	0	0
2024-05-28 09:52:32			0	36572	0	0	0	22316	20880	137485	27403	991278	40466	108207	0	0	8245	621883	0	0
2024-05-28 09:53:32			0	36487	0	0	0	22306	20880	137693	27644	991385	40477	108203	0	0	8241	625509	0	0
2024-05-28 09:54:32			0	36394	0	0	0	22306	20900	138097	27092	991338	40480	108203	0	0	8236	629423	0	0
2024-05-28 09:55:32			0	36293	0	0	0	22309	20890	138401	27481	991375	40467	108204	0	0	8231	633804	0	0
2024-05-28 09:56:32			0	36230	0	0	0	22303	20890	138637	27267	991401	40467	108202	0	0	8228	636526	0	0
2024-05-28 09:57:32			0	36145	0	0	0	22309	20890	138969	27516	991348	40478	108204	0	0	8223	640211	0	0
2024-05-28 09:58:32			0	36095	0	0	0	22301	20890	139189	27123	991340	40488	108201	0	0	8220	642386	0	0
2024-05-28 09:59:32			0	36060	0	0	0	22316	20880	139417	27196	991305	40488	108207	0	0	8218	643947	0	0
2024-05-28 10:00:32			0	36022	0	0	0	22316	20890	139521	27346	991348	40500	108207	0	0	8216	645570	0	0
2024-05-28 10:01:32			0	36006	0	0	0	22319	20890	139621	27256	991419	40488	108208	0	0	8215	646269	0	0
2024-05-28 10:02:32			0	35996	0	0	0	22332	20900	139685	27345	991445	40491	108213	0	0	8215	646671	0	0
2024-05-28 10:03:32			0	35969	0	0	0	22327	20900	139637	27298	991383	40500	108211	0	0	8213	647853	0	0
2024-05-28 10:04:32			0	35971	0	0	0	22314	20900	139721	27298	991383	40479	108206	0	0	8214	647765	0	0
2024-05-28 10:05:32			0	35973	0	0	0	22296	20900	139693	27029	991410	40500	108199	0	0	8214	647678	0	0
2024-05-28 10:06:32			0	35976	0	0	0	22283	20890	139625	27229	991348	40478	108194	0	0	8214	647582	0	0
2024-05-28 10:07:32			0	35996	0	0	0	22275	20900	139557	27270	991330	40479	108191	0	0	8216	646671	0	0
2024-05-28 10:08:32			0	36042	0	0	0	22272	20890	139285	27275	991268	40467	108190	0	0	8218	644696	0	0
2024-05-28 10:09:32			0	36094	0	0	0	22267	20890	139141	27275	991340	40477	108188	0	0	8221	642429	0	0
2024-05-28 10:10:32			0	36166	0	0	0	22262	20880	139013	27339	991305	40456	108186	0	0	8225	639334	0	0
2024-05-28 10:11:32			0	36153	0	0	0	22262	20890	138909	27486	991322	40478	108186	0	0	8224	639863	0	0
2024-05-28 10:12:32			0	36091	0	0	0	22264	20880	139161	27124	991358	40477	108187	0	0	8221	642595	0	0
2024-05-28 10:13:32			0	36007	0	0	0	22272	20890	139537	27377	991287	40466	108190	0	0	8216	646225	0	0
2024-05-28 10:14:32			0	35913	0	0	0	22288	20880	139913	27493	991305	40477	108196	0	0	8211	650381	0	0
2024-05-28 10:15:32			0	35823	0	0	0	22303	20890	140152	27234	991340	40477	108202	0	0	8206	654307	0	0
2024-05-28 10:16:32			0	35746	0	0	0	22316	20890	140452	27552	991401	40489	108207	0	0	8201	657711	0	0
2024-05-28 10:17:32			0	35664	0	0	0	22309	20900	140688	27227	991410	40468	108204	0	0	8197	661313	0	0
2024-05-28 10:18:32			0	35613	0	0	0	22309	20890	140880	27313	991348	40489	108204	0	0	8194	663620	0	0
2024-05-28 10:19:32			0	35600	0	0	0	22311	20890	140996	27300	991401	40478	108205	0	0	8194	664199	0	0
2024-05-28 10:20:32			0	35567	0	0	0	22316	20910	141056	27585	991461	40480	108207	0	0	8192	665598	0	0
2024-05-28 10:21:32			0	35575	0	0	0	22316	20900	141216	27199	991418	40480	108207	0	0	8192	665278	0	0
2024-05-28 10:22:32			0	35561	0	0	0	22322	20890	141108	27119	991401	40478	108209	0	0	8191	665940	0	0
2024-05-28 10:23:32			0	35598	0	0	0	22316	20900	141092	27157	991445	40480	108207	0	0	8193	664252	0	0
2024-05-28 10:24:32			0	35582	0	0	0	22314	20910	141148	27422	991435	40480	108206	0	0	8193	664929	0	0
2024-05-28 10:25:32			0	35596	0	0	0	22316	20910	141124	27428	991435	40480	108207	0	0	8193	664304	0	0
2024-05-28 10:26:32			0	35638	0	0	0	22329	20920	141004	27045	991496	40469	108212	0	0	8195	662396	0	0
2024-05-28 10:27:32			0	35646	0	0	0	22314	20910	140848	27196	991435	40480	108206	0	0	8196	662077	0	0
2024-05-28 10:28:32			0	35694	0	0	0	22319	20920	140708	27604	991399	40470	108208	0	0	8199	659907	0	0
2024-05-28 10:29:32			0	35722	0	0	0	22324	20910	140500	27248	991426	40469	108210	0	0	8200	658701	0	0
2024-05-28 10:30:32			0	35794	0	0	0	22316	20910	140372	27448	991488	40480	108207	0	0	8204	655515	0	0
2024-05-28 10:31:32			0	35812	0	0	0	22322	20910	140232	27518	991488	40480	108209	0	0	8205	654720	0	0
2024-05-28 10:32:32			0	35884	0	0	0	22337	20930	140045	27576	991487	40470	108215	0	0	8209	651476	0	0
2024-05-28 10:33:32			0	35942	0	0	0	22350	20920	139821	27466	991470	40492	108220	0	0	8211	648964	0	0
2024-05-28 10:34:32			0	35999	0	0	0	22353	20930	139533	27211	991513	40493	108221	0	0	8215	646432	0	0
2024-05-28 10:35:32			0	36029	0	0	0	22350	20930	139465	27222	991575	40503	108220	0	0	8216	645121	0	0
2024-05-28 10:36:32			0	36022	0	0	0	22348	20930	139349	27215	991566	40482	108219	0	0	8216	645427	0	0
2024-05-28 10:37:32			0	36019	0	0	0	22373	20930	139461	27052	991655	40493	108229	0	0	8215	645558	0	0
2024-05-28 10:38:32			0	36039	0	0	0	22397	20950	139437	27137	991733	40495	108238	0	0	8216	644613	0	0
2024-05-28 10:39:32			0	36042	0	0	0	22410	20950	139353	27479	991760	40483	108243	0	0	8216	644482	0	0
2024-05-28 10:40:32			0	36054	0	0	0	22418	20950	139257	27407	991733	40495	108246	0	0	8216	643958	0	0
2024-05-28 10:41:32			0	36060	0	0	0	22425	20960	139237	27606	991838	40507	108249	0	0	8217	643661	0	0
2024-05-28 10:42:32			0	36086	0	0	0	22428	20970	139213	27500	991775	40507	108250	0	0	8218	642493	0	0
2024-05-28 10:43:32			0	36096	0	0	0	22423	20980	139089	27180	991810	40507	108248	0	0	8219	642022	0	0
2024-05-28 10:44:32			0	36099	0	0	0	22420	20990	139029	27261	991854	40499	108247	0	0	8219	641856	0	0
2024-05-28 10:45:32			0	36114	0	0	0	22420	20980	139113	27341	991898	40498	108247	0	0	8220	641239	0	0
2024-05-28 10:46:32			0	36085	0	0	0	22418	20990	139117	27414	991880	40488	108246	0	0	8218	642465	0	0
2024-05-28 10:47:32			0	36036	0	0	0	22428	20990	139209	27066	991880	40499	108250	0	0	8215	644601	0	0
2024-05-28 10:48:32			0	35992	0	0	0	22433	21000	139553	27209	991924	40499	108252	0	0	8213	646487	0	0
2024-05-28 10:49:32			0	35951	0	0	0	22459	21010	139669	27164	991940	40511	108262	0	0	8210	648246	0	0
2024-05-28 10:50:32			0	35878	0	0	0	22462	20990	139929	27196	992022	40499	108263	0	0	8206	651523	0	0
2024-05-28 10:51:32			0	35864	0	0	0	22470	21010	139993	27351	992082	40511	108266	0	0	8206	652067	0	0
2024-05-28 10:52:32			0	35832	0	0	0	22477	21020	140068	27303	992072	40501	108269	0	0	8204	653439	0	0
2024-05-28 10:53:32			0	35842	0	0	0	22488	21020	140084	27497	992125	40501	108273	0	0	8204	652999	0	0
2024-05-28 10:54:32			0	35863	0	0	0	22472	21020	140029	27293	992099	40512	108267	0	0	8206	652074	0	0
2024-05-28 10:55:32			0	35925	0	0	0	22457	21030	139717	27209	992036	40502	108261	0	0	8209	649314	0	0
2024-05-28 10:56:32			0	36019	0	0	0	22454	21040	139357	27320	992071	40492	108260	0	0	8214	645164	0	0
2024-05-28 10:57:32			0	36103	0	0	0	22449	21040	139125	27256	992052	40502	108258	0	0	8219	641504	0	0
2024-05-28 10:58:32			0	36153	0	0	0	22428	21040	138841	27093	992044	40502	108250	0	0	8222	639332	0	0
2024-05-28 10:59:32			0	36199	0	0	0	22428	21030	138605	27511	992080	40502	108250	0	0	8224	637373	0	0
2024-05-28 11:00:32			0	36283	0	0	0	22412	21030	138409	27095	992036	40514	108244	0	0	8229	633744	0	0
2024-05-28 11:01:32			0	36308	0	0	0	22420	21030	138189	27371	992009	40514	108247	0	0	8230	632666	0	0
2024-05-28 11:02:32			0	36355	0	0	0	22412	21030	138053	27329	992001	40491	108244	0	0	8233	630644	0	0
2024-05-28 11:03:32			0	36385	0	0	0	22412	21020	137957	27417	991931	40489	108244	0	0	8235	629391	0	0
2024-05-28 11:04:32			0	36421	0	0	0	22410	21020	137913	27206	991984	40500	108243	0	0	8236	627847	0	0
2024-05-28 11:05:32			0	36417	0	0	0	22410	21020	137789	27263	992019	40490	108243	0	0	8236	628019	0	0
2024-05-28 11:06:32			0	36423	0	0	0	22402	21020	137801	27194	991904	40500	108240	0	0	8237	627761	0	0
2024-05-28 11:07:32			0	36388	0	0	0	22415	21020	137929	27320	991957	40500	108245	0	0	8235	629262	0	0
2024-05-28 11:08:32			0	36361	0	0	0	22407	21020	138093	27402	991957	40489	108242	0	0	8233	630421	0	0
2024-05-28 11:09:32			0	36345	0	0	0	22410	21010	138181	27523	991975	40478	108243	0	0	8232	631144	0	0
2024-05-28 11:10:32			0	36275	0	0	0	22410	21020	138421	27171	991966	40490	108243	0	0	8229	634124	0	0
2024-05-28 11:11:32			0	36216	0	0	0	22415	21020	138637	27312	991984	40489	108245	0	0	8225	636673	0	0
2024-05-28 11:12:32			0	36154	0	0	0	22431	21020	138909	27092	992037	40489	108251	0	0	8222	639359	0	0
2024-05-28 11:13:32			0	36073	0	0	0	22436	21010	139217	26896	992002	40500	108253	0	0	8217	642916	0	0
2024-05-28 11:14:32			0	36024	0	0	0	22438	21020	139485	27575	992010	40489	108254	0	0	8215	645018	0	0
2024-05-28 11:15:32			0	35974	0	0	0	22436	21020	139657	27131	992072	40501	108253	0	0	8212	647203	0	0
2024-05-28 11:16:32			0	35885	0	0	0	22436	21030	139977	27237	992089	40502	108253	0	0	8207	651071	0	0
2024-05-28 11:17:32			0	35800	0	0	0	22441	21030	140256	27093	992054	40502	108255	0	0	8203	654814	0	0
2024-05-28 11:18:32			0	35721	0	0	0	22464	21030	140488	26979	992142	40492	108264	0	0	8198	658308	0	0
2024-05-28 11:19:32			0	35654	0	0	0	22454	21040	140720	27066	992150	40525	108260	0	0	8195	661244	0	0
2024-05-28 11:20:32			0	35617	0	0	0	22470	21050	140848	27296	992114	40493	108266	0	0	8192	662853	0	0
2024-05-28 11:21:32			0	35596	0	0	0	22509	21050	141020	27242	992167	40493	108281	0	0	8191	663788	0	0
2024-05-28 11:22:32			0	35556	0	0	0	22529	21050	141128	27133	992282	40504	108289	0	0	8188	665573	0	0
2024-05-28 11:23:32			0	35518	0	0	0	22542	21060	141208	27131	992290	40504	108294	0	0	8186	667234	0	0
2024-05-28 11:24:32			0	35483	0	0	0	22548	21070	141440	27239	992342	40517	108296	0	0	8184	668764	0	0
2024-05-28 11:25:32			0	35456	0	0	0	22540	21080	141568	27390	992324	40528	108293	0	0	8183	669938	0	0
2024-05-28 11:26:32			0	35429	0	0	0	22535	21080	141576	27284	992377	40517	108291	0	0	8181	671150	0	0
2024-05-28 11:27:32			0	35426	0	0	0	22542	21080	141684	27020	992377	40506	108294	0	0	8181	671285	0	0
2024-05-28 11:28:32			0	35427	0	0	0	22532	21090	141584	26935	992315	40507	108290	0	0	8181	671203	0	0
2024-05-28 11:29:32			0	35432	0	0	0	22514	21090	141648	26968	992323	40519	108283	0	0	8182	670978	0	0
2024-05-28 11:30:32			0	35449	0	0	0	22493	21090	141484	26994	992315	40507	108275	0	0	8183	670215	0	0
2024-05-28 11:31:32			0	35475	0	0	0	22488	21080	141312	27220	992306	40496	108273	0	0	8185	669086	0	0
2024-05-28 11:32:32			0	35513	0	0	0	22470	21090	141248	27244	992296	40497	108266	0	0	8187	667347	0	0
2024-05-28 11:33:32			0	35525	0	0	0	22477	21090	141052	27083	992323	40497	108269	0	0	8188	666810	0	0
2024-05-28 11:34:32			0	35546	0	0	0	22485	21080	141164	27384	992226	40506	108272	0	0	8189	665909	0	0
2024-05-28 11:35:32			0	35561	0	0	0	22496	21080	141012	27559	992244	40517	108276	0	0	8189	665239	0	0
2024-05-28 11:36:32			0	35568	0	0	0	22503	21080	141076	27149	992271	40506	108279	0	0	8189	664927	0	0
2024-05-28 11:37:32			0	35537	0	0	0	22501	21080	141104	27384	992280	40506	108278	0	0	8188	666311	0	0
2024-05-28 11:38:32			0	35501	0	0	0	22509	21090	141260	27296	992288	40518	108281	0	0	8186	667884	0	0
2024-05-28 11:39:32			0	35471	0	0	0	22501	21100	141320	26892	992331	40508	108278	0	0	8184	669191	0	0
2024-05-28 11:40:32			0	35429	0	0	0	22506	21090	141552	27275	992315	40507	108280	0	0	8182	671113	0	0
2024-05-28 11:41:32			0	35394	0	0	0	22519	21080	141712	27412	992280	40517	108285	0	0	8180	672724	0	0
2024-05-28 11:42:32			0	35333	0	0	0	22516	21090	141916	27220	992349	40508	108284	0	0	8176	675436	0	0
2024-05-28 11:43:32			0	35305	0	0	0	22519	21100	142084	27474	992313	40509	108285	0	0	8175	676663	0	0
2024-05-28 11:44:32			0	35256	0	0	0	22514	21090	142208	27180	992349	40519	108283	0	0	8172	678918	0	0
2024-05-28 11:45:32			0	35243	0	0	0	22516	21100	142272	27305	992305	40519	108284	0	0	8172	679469	0	0
2024-05-28 11:46:32			0	35238	0	0	0	22501	21100	142308	27405	992331	40508	108278	0	0	8172	679696	0	0
2024-05-28 11:47:32			0	35261	0	0	0	22501	21100	142300	27455	992278	40508	108278	0	0	8173	678654	0	0
2024-05-28 11:48:32			0	35281	0	0	0	22506	21100	142180	27197	992340	40498	108280	0	0	8174	677748	0	0
2024-05-28 11:49:32			0	35311	0	0	0	22506	21100	142092	27293	992331	40519	108280	0	0	8175	676392	0	0
2024-05-28 11:50:32			0	35363	0	0	0	22501	21090	142004	27549	992349	40519	108278	0	0	8178	674083	0	0
2024-05-28 11:51:32			0	35391	0	0	0	22503	21090	141768	27202	992341	40507	108279	0	0	8180	672822	0	0
2024-05-28 11:52:32			0	35453	0	0	0	22511	21090	141608	27464	992288	40518	108282	0	0	8183	670035	0	0
2024-05-28 11:53:32			0	35475	0	0	0	22488	21100	141468	27123	992358	40497	108273	0	0	8185	669012	0	0
2024-05-28 11:54:32			0	35490	0	0	0	22498	21090	141392	27495	992349	40497	108277	0	0	8185	668377	0	0
2024-05-28 11:55:32			0	35526	0	0	0	22501	21090	141216	27232	992323	40519	108278	0	0	8187	666766	0	0
2024-05-28 11:56:32			0	35534	0	0	0	22496	21090	141208	27452	992349	40508	108276	0	0	8188	666408	0	0
2024-05-28 11:57:32			0	35538	0	0	0	22496	21090	141072	27500	992323	40497	108276	0	0	8188	666229	0	0
2024-05-28 11:58:32			0	35545	0	0	0	22498	21090	141076	27329	992323	40508	108277	0	0	8188	665917	0	0
2024-05-28 11:59:32			0	35560	0	0	0	22498	21100	141000	27331	992331	40508	108277	0	0	8189	665210	0	0
2024-05-28 12:00:32			0	35558	0	0	0	22493	21100	141104	27249	992252	40497	108275	0	0	8189	665299	0	0
2024-05-28 12:01:32			0	35560	0	0	0	22485	21090	141048	27355	992288	40518	108272	0	0	8189	665247	0	0
2024-05-28 12:02:32			0	35568	0	0	0	22488	21100	141092	27234	992305	40497	108273	0	0	8190	664853	0	0
2024-05-28 12:03:32			0	35572	0	0	0	22483	21090	141064	27010	992270	40519	108271	0	0	8190	664711	0	0
2024-05-28 12:04:32			0	35575	0	0	0	22480	21090	140972	27486	992288	40507	108270	0	0	8190	664578	0	0
2024-05-28 12:05:32			0	35597	0	0	0	22490	21090	140872	27222	992323	40519	108274	0	0	8191	663597	0	0
2024-05-28 12:06:32			0	35611	0	0	0	22506	21090	140860	27228	992261	40518	108280	0	0	8192	662973	0	0
2024-05-28 12:07:32			0	35620	0	0	0	22503	21090	140792	27222	992288	40518	108279	0	0	8192	662573	0	0
2024-05-28 12:08:32			0	35638	0	0	0	22503	21100	140812	27346	992305	40497	108279	0	0	8193	661735	0	0
2024-05-28 12:09:32			0	35632	0	0	0	22511	21080	140808	27409	992359	40517	108282	0	0	8193	662075	0	0
2024-05-28 12:10:32			0	35640	0	0	0	22511	21090	140752	27282	992349	40530	108282	0	0	8193	661683	0	0
2024-05-28 12:11:32			0	35619	0	0	0	22522	21090	140896	27100	992376	40519	108286	0	0	8192	662617	0	0
2024-05-28 12:12:32			0	35619	0	0	0	22522	21110	140768	27098	992428	40520	108286	0	0	8192	662544	0	0
2024-05-28 12:13:32			0	35599	0	0	0	22566	21100	140892	27355	992552	40520	108303	0	0	8190	663471	0	0
2024-05-28 12:14:32			0	35548	0	0	0	22623	21120	141064	27377	992631	40521	108325	0	0	8186	665672	0	0
2024-05-28 12:15:32			0	35465	0	0	0	22680	21150	141340	27372	992779	40523	108347	0	0	8181	669274	0	0
2024-05-28 12:16:32			0	35396	0	0	0	22753	21170	141732	27239	992946	40547	108375	0	0	8176	672298	0	0
2024-05-28 12:17:32			0	35313	0	0	0	22836	21200	142052	27216	993217	40561	108407	0	0	8170	675926	0	0
2024-05-28 12:18:32			0	35329	0	0	0	22864	21230	141972	27244	993348	40564	108418	0	0	8171	675092	0	0
2024-05-28 12:19:32			0	35427	0	0	0	22903	21270	141568	27514	993540	40545	108433	0	0	8176	670533	0	0
2024-05-28 12:20:32			0	35515	0	0	0	22963	21310	141316	27498	993767	40560	108456	0	0	8180	666443	0	0
2024-05-28 12:21:32			0	35576	0	0	0	22961	21330	141048	27270	993889	40574	108455	0	0	8183	663648	0	0
2024-05-28 12:22:32			0	35527	0	0	0	22994	21370	141032	27291	993895	40566	108468	0	0	8180	665685	0	0
2024-05-28 12:23:32			0	35509	0	0	0	23020	21390	141320	27319	994035	40579	108478	0	0	8179	666415	0	0
2024-05-28 12:24:32			0	35522	0	0	0	23046	21420	141148	27407	994184	40582	108488	0	0	8179	665724	0	0
2024-05-28 12:25:32			0	35538	0	0	0	23051	21440	141032	27147	994191	40561	108490	0	0	8180	664936	0	0
2024-05-28 12:26:32			0	35528	0	0	0	23062	21460	141028	27628	994225	40574	108494	0	0	8179	665308	0	0
2024-05-28 12:27:32			0	35499	0	0	0	23062	21480	141100	27105	994320	40577	108494	0	0	8178	666529	0	0
2024-05-28 12:28:32			0	35512	0	0	0	23075	21500	141000	27218	994345	40588	108499	0	0	8179	665874	0	0
2024-05-28 12:29:32			0	35541	0	0	0	23090	21510	140944	27215	994477	40589	108505	0	0	8180	664543	0	0
2024-05-28 12:30:32			0	35493	0	0	0	23116	21530	141056	27320	994484	40602	108515	0	0	8177	666611	0	0
2024-05-28 12:31:32			0	35426	0	0	0	23124	21550	141304	27088	994562	40604	108518	0	0	8173	669535	0	0
2024-05-28 12:32:32			0	35386	0	0	0	23109	21560	141468	27379	994694	40605	108512	0	0	8171	671292	0	0
2024-05-28 12:33:32			0	35320	0	0	0	23148	21580	141660	27261	994755	40596	108527	0	0	8167	674185	0	0
2024-05-28 12:34:32			0	35295	0	0	0	23161	21600	141628	27031	994833	40597	108532	0	0	8166	675237	0	0
2024-05-28 12:35:32			0	35299	0	0	0	23174	21620	141656	27398	994894	40611	108537	0	0	8166	674981	0	0
2024-05-28 12:36:32			0	35329	0	0	0	23186	21630	141544	27426	994945	40612	108542	0	0	8167	673593	0	0
2024-05-28 12:37:32			0	35346	0	0	0	23231	21650	141552	27256	995077	40602	108559	0	0	8168	672753	0	0
2024-05-28 12:38:32			0	35380	0	0	0	23218	21670	141388	27372	995111	40615	108554	0	0	8170	671151	0	0
2024-05-28 12:39:32			0	35428	0	0	0	23218	21700	141072	27376	995241	40607	108554	0	0	8172	668887	0	0
2024-05-28 12:40:32			0	35509	0	0	0	23220	21710	140832	27173	995223	40607	108555	0	0	8177	665230	0	0
2024-05-28 12:41:32			0	35567	0	0	0	23220	21720	140572	27126	995214	40608	108555	0	0	8180	662611	0	0
2024-05-28 12:42:32			0	35615	0	0	0	23236	21720	140440	27592	995195	40598	108561	0	0	8182	660479	0	0
2024-05-28 12:43:32			0	35666	0	0	0	23241	21740	140236	27190	995354	40610	108563	0	0	8185	658146	0	0
2024-05-28 12:44:32			0	35731	0	0	0	23241	21750	140052	27251	995397	40600	108563	0	0	8189	655238	0	0
2024-05-28 12:45:32			0	35766	0	0	0	23249	21770	139856	27248	995458	40613	108566	0	0	8191	653623	0	0
2024-05-28 12:46:32			0	35800	0	0	0	23251	21770	139668	27479	995431	40601	108567	0	0	8192	652127	0	0
2024-05-28 12:47:32			0	35826	0	0	0	23246	21770	139444	27384	995458	40590	108565	0	0	8194	650985	0	0
2024-05-28 12:48:32			0	35861	0	0	0	23251	21780	139368	27533	995483	40603	108567	0	0	8196	649414	0	0
2024-05-28 12:49:32			0	35865	0	0	0	23251	21780	139269	27154	995474	40614	108567	0	0	8196	649239	0	0
2024-05-28 12:50:32			0	35853	0	0	0	23251	21790	139356	27355	995526	40604	108567	0	0	8195	649728	0	0
2024-05-28 12:51:32			0	35853	0	0	0	23236	21800	139364	27772	995543	40616	108561	0	0	8196	649692	0	0
2024-05-28 12:52:32			0	35819	0	0	0	23233	21800	139560	27469	995543	40594	108560	0	0	8194	651184	0	0
2024-05-28 12:53:32			0	35754	0	0	0	23236	21810	139748	27492	995472	40616	108561	0	0	8190	654006	0	0
2024-05-28 12:54:32			0	35725	0	0	0	23215	21810	139816	27291	995560	40606	108553	0	0	8189	655284	0	0
2024-05-28 12:55:32			0	35721	0	0	0	23231	21820	139980	27684	995595	40607	108559	0	0	8189	655424	0	0
2024-05-28 12:56:32			0	35663	0	0	0	23241	21820	139992	27637	995542	40596	108563	0	0	8185	657986	0	0
2024-05-28 12:57:32			0	35633	0	0	0	23236	21810	140204	27261	995533	40595	108561	0	0	8184	659350	0	0
2024-05-28 12:58:32			0	35592	0	0	0	23225	21820	140348	27587	995569	40607	108557	0	0	8182	661132	0	0
2024-05-28 12:59:32			0	35574	0	0	0	23212	21820	140520	27123	995515	40596	108552	0	0	8181	661931	0	0
2024-05-28 13:00:32			0	35596	0	0	0	23220	21820	140424	27421	995542	40607	108555	0	0	8182	660954	0	0
2024-05-28 13:01:32			0	35605	0	0	0	23236	21830	140296	27263	995665	40596	108561	0	0	8182	660518	0	0
2024-05-28 13:02:32			0	35649	0	0	0	23228	21830	140108	27687	995647	40596	108558	0	0	8185	658568	0	0
2024-05-28 13:03:32			0	35702	0	0	0	23218	21830	139952	27512	995621	40608	108554	0	0	8188	656226	0	0
2024-05-28 13:04:32			0	35758	0	0	0	23223	21830	139720	27306	995541	40596	108556	0	0	8191	653757	0	0
2024-05-28 13:05:32			0	35788	0	0	0	23238	21820	139640	27137	995577	40596	108562	0	0	8192	652473	0	0
2024-05-28 13:06:32			0	35835	0	0	0	23259	21830	139524	27203	995647	40596	108570	0	0	8194	650373	0	0
2024-05-28 13:07:32			0	35863	0	0	0	23257	21840	139245	27364	995664	40609	108569	0	0	8196	649109	0	0
2024-05-28 13:08:32			0	35933	0	0	0	23262	21840	139037	27326	995656	40609	108571	0	0	8200	646049	0	0
2024-05-28 13:09:32			0	35951	0	0	0	23246	21840	138981	27462	995576	40620	108565	0	0	8201	645263	0	0
2024-05-28 13:10:32			0	35961	0	0	0	23267	21840	138993	27166	995603	40597	108573	0	0	8201	644827	0	0
2024-05-28 13:11:32			0	35895	0	0	0	23241	21830	139205	27069	995594	40596	108563	0	0	8198	647745	0	0
2024-05-28 13:12:32			0	35772	0	0	0	23246	21850	139732	27222	995646	40609	108565	0	0	8191	653068	0	0
2024-05-28 13:13:32			0	35660	0	0	0	23262	21840	140140	27563	995656	40609	108571	0	0	8185	658045	0	0
2024-05-28 13:14:32			0	35576	0	0	0	23285	21850	140484	27241	995673	40609	108580	0	0	8180	661731	0	0
2024-05-28 13:15:32			0	35512	0	0	0	23298	21850	140680	27383	995726	40609	108585	0	0	8176	664578	0	0
2024-05-28 13:16:32			0	35501	0	0	0	23303	21860	140792	27241	995769	40610	108587	0	0	8176	665031	0	0
2024-05-28 13:17:32			0	35504	0	0	0	23293	21860	140684	27229	995849	40610	108583	0	0	8176	664898	0	0
2024-05-28 13:18:32			0	35490	0	0	0	23293	21860	140788	27130	995831	40611	108583	0	0	8175	665522	0	0
2024-05-28 13:19:32			0	35476	0	0	0	23293	21870	140892	27507	995768	40622	108583	0	0	8175	666109	0	0
2024-05-28 13:20:32			0	35459	0	0	0	23314	21870	140900	27428	995821	40622	108591	0	0	8173	666868	0	0
2024-05-28 13:21:32			0	35462	0	0	0	23324	21870	140784	27530	995813	40611	108595	0	0	8173	666734	0	0
2024-05-28 13:22:32			0	35539	0	0	0	23322	21880	140592	27403	995803	40601	108594	0	0	8178	663265	0	0
2024-05-28 13:23:32			0	35616	0	0	0	23335	21890	140188	27086	995900	40624	108599	0	0	8182	659810	0	0
2024-05-28 13:24:32			0	35669	0	0	0	23342	21890	140020	27348	995855	40624	108602	0	0	8184	657464	0	0
2024-05-28 13:25:32			0	35692	0	0	0	23348	21900	140004	27066	996005	40625	108604	0	0	8185	656411	0	0
2024-05-28 13:26:32			0	35672	0	0	0	23355	21900	139980	27027	995978	40615	108607	0	0	8184	657294	0	0
2024-05-28 13:27:32			0	35621	0	0	0	23366	21920	140216	27135	996030	40637	108611	0	0	8181	659478	0	0
2024-05-28 13:28:32			0	35577	0	0	0	23363	21920	140392	27291	996057	40637	108610	0	0	8179	661429	0	0
2024-05-28 13:29:32			0	35514	0	0	0	23371	21920	140596	27313	996065	40627	108613	0	0	8176	664230	0	0
2024-05-28 13:30:32			0	35454	0	0	0	23405	21920	140840	27391	996172	40638	108626	0	0	8172	666906	0	0
2024-05-28 13:31:32			0	35408	0	0	0	23394	21940	141108	27320	996197	40628	108622	0	0	8170	668888	0	0
2024-05-28 13:32:32			0	35392	0	0	0	23397	21940	141136	27308	996206	40629	108623	0	0	8169	669605	0	0
2024-05-28 13:33:32			0	35367	0	0	0	23394	21950	141176	27201	996276	40629	108622	0	0	8167	670688	0	0
2024-05-28 13:34:32			0	35360	0	0	0	23410	21960	141172	27092	996284	40619	108628	0	0	8167	670964	0	0
2024-05-28 13:35:32			0	35356	0	0	0	23410	21960	141144	27130	996346	40630	108628	0	0	8167	671144	0	0
2024-05-28 13:36:32			0	35362	0	0	0	23415	21970	141156	26968	996328	40631	108630	0	0	8167	670837	0	0
2024-05-28 13:37:32			0	35411	0	0	0	23412	21970	140972	27147	996310	40643	108629	0	0	8170	668642	0	0
2024-05-28 13:38:32			0	35447	0	0	0	23420	21980	140768	27280	996318	40621	108632	0	0	8171	666996	0	0
2024-05-28 13:39:32			0	35446	0	0	0	23433	22000	140764	27355	996432	40634	108637	0	0	8171	666966	0	0
2024-05-28 13:40:32			0	35475	0	0	0	23462	22000	140848	27291	996405	40656	108648	0	0	8172	665672	0	0
2024-05-28 13:41:32			0	35482	0	0	0	23483	22010	140720	27319	996547	40634	108656	0	0	8172	665322	0	0
2024-05-28 13:42:32			0	35457	0	0	0	23477	22030	140780	27291	996634	40636	108654	0	0	8171	666363	0	0
2024-05-28 13:43:32			0	35445	0	0	0	23467	22030	140696	27039	996616	40637	108650	0	0	8171	666899	0	0
2024-05-28 13:44:32			0	35429	0	0	0	23472	22040	140820	27364	996571	40637	108652	0	0	8170	667576	0	0
2024-05-28 13:45:32			0	35432	0	0	0	23457	22050	140856	27157	996667	40649	108646	0	0	8170	667405	0	0
2024-05-28 13:46:32			0	35402	0	0	0	23472	22060	140908	26911	996720	40640	108652	0	0	8168	668709	0	0
2024-05-28 13:47:32			0	35386	0	0	0	23488	22060	140972	27267	996791	40639	108658	0	0	8167	669425	0	0
2024-05-28 13:48:32			0	35384	0	0	0	23503	22070	140980	27317	996755	40640	108664	0	0	8167	669477	0	0
2024-05-28 13:49:32			0	35381	0	0	0	23493	22080	141052	27039	996772	40641	108660	0	0	8167	669574	0	0
2024-05-28 13:50:32			0	35386	0	0	0	23454	22080	141048	27284	996719	40630	108645	0	0	8168	669351	0	0
2024-05-28 13:51:32			0	35401	0	0	0	23464	22070	141024	27403	996622	40619	108649	0	0	8169	668717	0	0
2024-05-28 13:52:32			0	35397	0	0	0	23457	22070	141004	27377	996702	40619	108646	0	0	8168	668896	0	0
2024-05-28 13:53:32			0	35384	0	0	0	23433	22070	141044	27322	996710	40629	108637	0	0	8168	669477	0	0
2024-05-28 13:54:32			0	35388	0	0	0	23423	22070	140920	27507	996595	40651	108633	0	0	8169	669298	0	0
2024-05-28 13:55:32			0	35388	0	0	0	23423	22070	140904	27400	996622	40619	108633	0	0	8169	669298	0	0
2024-05-28 13:56:32			0	35380	0	0	0	23428	22070	140940	27357	996622	40629	108635	0	0	8168	669657	0	0
2024-05-28 13:57:32			0	35384	0	0	0	23425	22060	140972	27182	996605	40628	108634	0	0	8168	669515	0	0
2024-05-28 13:58:32			0	35387	0	0	0	23444	22060	140860	27410	996640	40640	108641	0	0	8168	669380	0	0
2024-05-28 13:59:32			0	35427	0	0	0	23462	22060	140800	27521	996640	40640	108648	0	0	8170	667591	0	0
2024-05-28 14:00:32			0	35458	0	0	0	23451	22050	140704	27381	996623	40627	108644	0	0	8172	666244	0	0
2024-05-28 14:01:32			0	35469	0	0	0	23451	22060	140568	27133	996605	40628	108644	0	0	8172	665716	0	0
2024-05-28 14:02:32			0	35512	0	0	0	23449	22060	140476	27235	996613	40640	108643	0	0	8175	663801	0	0
2024-05-28 14:03:32			0	35509	0	0	0	23459	22050	140456	27365	996596	40627	108647	0	0	8174	663972	0	0
2024-05-28 14:04:32			0	35503	0	0	0	23475	22060	140528	27492	996666	40629	108653	0	0	8174	664202	0	0
2024-05-28 14:05:32			0	35490	0	0	0	23464	22070	140528	27364	996702	40640	108649	0	0	8173	664743	0	0
2024-05-28 14:06:32			0	35483	0	0	0	23451	22070	140528	27142	996648	40619	108644	0	0	8173	665055	0	0
2024-05-28 14:07:32			0	35441	0	0	0	23444	22060	140624	27422	996666	40619	108641	0	0	8171	666966	0	0
2024-05-28 14:08:32			0	35451	0	0	0	23449	22060	140688	27253	996693	40629	108643	0	0	8171	666519	0	0
2024-05-28 14:09:32			0	35451	0	0	0	23449	22060	140700	27360	996640	40640	108643	0	0	8171	666519	0	0
2024-05-28 14:10:32			0	35443	0	0	0	23431	22060	140752	27111	996613	40651	108636	0	0	8171	666877	0	0
2024-05-28 14:11:32			0	35436	0	0	0	23454	22070	140672	27249	996675	40629	108645	0	0	8171	667152	0	0
2024-05-28 14:12:32			0	35429	0	0	0	23485	22070	140828	26826	996728	40629	108657	0	0	8170	667465	0	0
2024-05-28 14:13:32			0	35441	0	0	0	23522	22070	140784	27100	996763	40640	108671	0	0	8170	666929	0	0
2024-05-28 14:14:32			0	35423	0	0	0	23537	22090	140816	27253	996877	40653	108677	0	0	8169	667658	0	0
2024-05-28 14:15:32			0	35421	0	0	0	23519	22110	140824	27343	996938	40644	108670	0	0	8169	667673	0	0
2024-05-28 14:16:32			0	35419	0	0	0	23506	22110	140788	27293	996876	40644	108665	0	0	8169	667763	0	0
2024-05-28 14:17:32			0	35432	0	0	0	23511	22120	140704	27400	997053	40644	108667	0	0	8170	667145	0	0
2024-05-28 14:18:32			0	35442	0	0	0	23509	22140	140616	27268	996953	40646	108666	0	0	8170	666624	0	0
2024-05-28 14:19:32			0	35469	0	0	0	23519	22130	140640	27209	996998	40658	108670	0	0	8172	665456	0	0
2024-05-28 14:20:32			0	35478	0	0	0	23509	22140	140544	27388	997015	40658	108666	0	0	8172	665018	0	0
2024-05-28 14:21:32			0	35490	0	0	0	23545	22140	140472	27119	997006	40646	108680	0	0	8172	664484	0	0
2024-05-28 14:22:32			0	35501	0	0	0	23535	22140	140428	27197	997060	40646	108676	0	0	8173	663994	0	0
2024-05-28 14:23:32			0	35530	0	0	0	23519	22150	140364	27258	996997	40637	108670	0	0	8175	662667	0	0
2024-05-28 14:24:32			0	35522	0	0	0	23506	22140	140352	27346	997068	40647	108665	0	0	8175	663060	0	0
2024-05-28 14:25:32			0	35533	0	0	0	23501	22150	140336	27374	996970	40648	108663	0	0	8175	662534	0	0
2024-05-28 14:26:32			0	35537	0	0	0	23514	22140	140348	27286	996935	40636	108668	0	0	8175	662393	0	0
2024-05-28 14:27:32			0	35526	0	0	0	23516	22130	140344	27422	996971	40635	108669	0	0	8175	662919	0	0
2024-05-28 14:28:32			0	35519	0	0	0	23529	22130	140380	27000	996971	40646	108674	0	0	8174	663230	0	0
2024-05-28 14:29:32			0	35523	0	0	0	23566	22150	140340	27312	997130	40648	108688	0	0	8174	662979	0	0
2024-05-28 14:30:32			0	35507	0	0	0	23612	22160	140484	27364	997253	40648	108706	0	0	8172	663653	0	0
2024-05-28 14:31:32			0	35465	0	0	0	23628	22170	140636	27580	997279	40650	108712	0	0	8170	665486	0	0
2024-05-28 14:32:32			0	35458	0	0	0	23625	22180	140604	27209	997349	40651	108711	0	0	8169	665761	0	0
2024-05-28 14:33:32			0	35413	0	0	0	23625	22200	140616	27027	997347	40664	108711	0	0	8167	667695	0	0
2024-05-28 14:34:32			0	35421	0	0	0	23633	22210	140692	26878	997453	40666	108714	0	0	8167	667301	0	0
2024-05-28 14:35:32			0	35376	0	0	0	23633	22220	140800	27379	997488	40666	108714	0	0	8165	669275	0	0
2024-05-28 14:36:32			0	35369	0	0	0	23641	22220	140908	27358	997461	40666	108717	0	0	8164	669589	0	0
2024-05-28 14:37:32			0	35346	0	0	0	23670	22230	140900	27495	997532	40633	108728	0	0	8163	670582	0	0
2024-05-28 14:38:32			0	35343	0	0	0	23646	22240	141020	27282	997575	40656	108719	0	0	8163	670679	0	0
2024-05-28 14:39:32			0	35335	0	0	0	23644	22240	141004	27209	997504	40666	108718	0	0	8163	671037	0	0
2024-05-28 14:40:32			0	35335	0	0	0	23633	22250	140916	27348	997547	40668	108714	0	0	8163	671000	0	0
2024-05-28 14:41:32			0	35329	0	0	0	23628	22250	140976	27319	997467	40668	108712	0	0	8163	671269	0	0
2024-05-28 14:42:32			0	35343	0	0	0	23659	22240	140992	27254	997477	40645	108724	0	0	8163	670679	0	0
2024-05-28 14:43:32			0	35324	0	0	0	23649	22250	141016	27272	997520	40647	108720	0	0	8162	671493	0	0
2024-05-28 14:44:32			0	35353	0	0	0	23649	22250	140972	27204	997600	40668	108720	0	0	8164	670193	0	0
2024-05-28 14:45:32			0	35357	0	0	0	23649	22260	140928	27450	997529	40658	108720	0	0	8164	669977	0	0
2024-05-28 14:46:32			0	35340	0	0	0	23659	22260	140948	27329	997591	40669	108724	0	0	8163	670738	0	0
2024-05-28 14:47:32			0	35365	0	0	0	23628	22260	140936	27092	997537	40659	108712	0	0	8165	669618	0	0
2024-05-28 14:48:32			0	35374	0	0	0	23631	22250	140924	27228	997467	40647	108713	0	0	8165	669253	0	0
2024-05-28 14:49:32			0	35372	0	0	0	23641	22250	140920	27307	997485	40646	108717	0	0	8165	669342	0	0
2024-05-28 14:50:32			0	35369	0	0	0	23607	22250	141028	27090	997485	40646	108704	0	0	8165	669477	0	0
2024-05-28 14:51:32			0	35362	0	0	0	23599	22240	140912	26930	997477	40656	108701	0	0	8165	669827	0	0
2024-05-28 14:52:32			0	35384	0	0	0	23628	22240	140772	26989	997477	40656	108712	0	0	8166	668843	0	0
2024-05-28 14:53:32			0	35423	0	0	0	23628	22240	140676	27154	997477	40656	108712	0	0	8168	667100	0	0
2024-05-28 14:54:32			0	35478	0	0	0	23628	22240	140388	27209	997450	40645	108712	0	0	8171	664647	0	0
2024-05-28 14:55:32			0	35538	0	0	0	23628	22240	140176	27168	997415	40634	108712	0	0	8174	661979	0	0
2024-05-28 14:56:32			0	35582	0	0	0	23615	22230	140088	27036	997407	40656	108707	0	0	8176	660065	0	0
2024-05-28 14:57:32			0	35624	0	0	0	23646	22240	140044	26960	997442	40666	108719	0	0	8178	658169	0	0
2024-05-28 14:58:32			0	35583	0	0	0	23662	22230	140048	27286	997540	40666	108725	0	0	8176	660021	0	0
2024-05-28 14:59:32			0	35580	0	0	0	23690	22240	140028	26937	997495	40656	108736	0	0	8175	660116	0	0
2024-05-28 15:00:32			0	35615	0	0	0	23706	22250	139920	26984	997627	40668	108742	0	0	8177	658530	0	0
2024-05-28 15:01:32			0	35665	0	0	0	23727	22260	139932	27230	997689	40679	108750	0	0	8179	656285	0	0
2024-05-28 15:02:32			0	35678	0	0	0	23716	22260	139736	27279	997724	40669	108746	0	0	8180	655711	0	0
2024-05-28 15:03:32			0	35699	0	0	0	23696	22270	139592	27156	997714	40660	108738	0	0	8182	654749	0	0
2024-05-28 15:04:32			0	35698	0	0	0	23675	22270	139664	27124	997634	40648	108730	0	0	8182	654793	0	0
2024-05-28 15:05:32			0	35679	0	0	0	23670	22270	139616	27550	997732	40680	108728	0	0	8181	655631	0	0
2024-05-28 15:06:32			0	35684	0	0	0	23672	22280	139648	27326	997696	40660	108729	0	0	8181	655374	0	0
2024-05-28 15:07:32			0	35686	0	0	0	23698	22280	139668	27130	997696	40660	108739	0	0	8181	655286	0	0
2024-05-28 15:08:32			0	35681	0	0	0	23693	22280	139660	27396	997723	40681	108737	0	0	8181	655506	0	0
2024-05-28 15:09:32			0	35668	0	0	0	23701	22280	139592	27476	997731	40671	108740	0	0	8180	656079	0	0
2024-05-28 15:10:32			0	35686	0	0	0	23696	22290	139680	27274	997739	40660	108738	0	0	8181	655249	0	0
2024-05-28 15:11:32			0	35668	0	0	0	23693	22290	139736	27417	997713	40660	108737	0	0	8180	656043	0	0
2024-05-28 15:12:32			0	35708	0	0	0	23670	22280	139708	27098	997704	40671	108728	0	0	8183	654317	0	0
2024-05-28 15:13:32			0	35710	0	0	0	23657	22300	139572	27455	997695	40650	108723	0	0	8183	654156	0	0
2024-05-28 15:14:32			0	35712	0	0	0	23659	22280	139492	27277	997643	40660	108724	0	0	8183	654140	0	0
2024-05-28 15:15:32			0	35721	0	0	0	23659	22280	139356	27355	997598	40660	108724	0	0	8183	653744	0	0
2024-05-28 15:16:32			0	35732	0	0	0	23667	22270	139464	27653	997687	40670	108727	0	0	8184	653297	0	0
2024-05-28 15:17:32			0	35742	0	0	0	23654	22280	139448	27194	997678	40638	108722	0	0	8185	652821	0	0
2024-05-28 15:18:32			0	35733	0	0	0	23644	22280	139400	27230	997643	40670	108718	0	0	8184	653217	0	0
2024-05-28 15:19:32			0	35773	0	0	0	23646	22270	139316	27300	997608	40648	108719	0	0	8186	651496	0	0
2024-05-28 15:20:32			0	35778	0	0	0	23636	22270	139264	27192	997554	40670	108715	0	0	8187	651277	0	0
2024-05-28 15:21:32			0	35798	0	0	0	23636	22270	139268	27130	997608	40660	108715	0	0	8188	650399	0	0
2024-05-28 15:22:32			0	35801	0	0	0	23633	22260	139152	27284	997537	40659	108714	0	0	8188	650304	0	0
2024-05-28 15:23:32			0	35812	0	0	0	23625	22260	139244	27521	997582	40647	108711	0	0	8189	649822	0	0
2024-05-28 15:24:32			0	35799	0	0	0	23631	22260	139252	27462	997564	40669	108713	0	0	8188	650392	0	0
2024-05-28 15:25:32			0	35790	0	0	0	23636	22260	139248	27142	997502	40668	108715	0	0	8187	650786	0	0
2024-05-28 15:26:32			0	35782	0	0	0	23625	22250	139208	27039	997459	40646	108711	0	0	8187	651174	0	0
2024-05-28 15:27:32			0	35801	0	0	0	23625	22240	139260	27303	997477	40666	108711	0	0	8188	650377	0	0
2024-05-28 15:28:32			0	35775	0	0	0	23625	22260	139372	27381	997422	40679	108711	0	0	8187	651444	0	0
2024-05-28 15:29:32			0	35771	0	0	0	23631	22250	139252	27339	997485	40657	108713	0	0	8186	651656	0	0
2024-05-28 15:30:32			0	35788	0	0	0	23646	22240	139372	27279	997557	40666	108719	0	0	8187	650947	0	0
2024-05-28 15:31:32			0	35766	0	0	0	23644	22250	139372	27424	997547	40679	108718	0	0	8186	651876	0	0
2024-05-28 15:32:32			0	35781	0	0	0	23649	22250	139276	27294	997547	40679	108720	0	0	8187	651218	0	0
2024-05-28 15:33:32			0	35772	0	0	0	23649	22260	139304	26970	997529	40658	108720	0	0	8186	651576	0	0
2024-05-28 15:34:32			0	35788	0	0	0	23664	22250	139296	27173	997619	40634	108726	0	0	8187	650911	0	0
2024-05-28 15:35:32			0	35778	0	0	0	23706	22260	139268	27109	997635	40668	108742	0	0	8186	651313	0	0
2024-05-28 15:36:32			0	35758	0	0	0	23742	22260	139304	27377	997777	40669	108756	0	0	8184	652191	0	0
2024-05-28 15:37:32			0	35744	0	0	0	23786	22300	139356	27331	997943	40684	108773	0	0	8183	652660	0	0
2024-05-28 15:38:32			0	35780	0	0	0	23838	22320	139292	27026	998083	40697	108793	0	0	8184	651007	0	0
2024-05-28 15:39:32			0	35747	0	0	0	23851	22340	139180	27502	998197	40676	108798	0	0	8182	652383	0	0
2024-05-28 15:40:32			0	35777	0	0	0	23872	22360	139236	27284	998329	40677	108806	0	0	8183	650993	0	0
2024-05-28 15:41:32			0	35801	0	0	0	23903	22390	139200	27536	998406	40681	108818	0	0	8184	649832	0	0
2024-05-28 15:42:32			0	35775	0	0	0	23932	22390	139268	27142	998513	40669	108829	0	0	8182	650972	0	0
2024-05-28 15:43:32			0	35803	0	0	0	23919	22410	139192	27360	998520	40705	108824	0	0	8184	649672	0	0
2024-05-28 15:44:32			0	35835	0	0	0	23898	22440	139060	27194	998597	40707	108816	0	0	8186	648163	0	0
2024-05-28 15:45:32			0	35853	0	0	0	23851	22460	138824	27277	998685	40687	108798	0	0	8188	647304	0	0
2024-05-28 15:46:32			0	35916	0	0	0	23851	22450	138613	27175	998543	40686	108798	0	0	8191	644593	0	0
2024-05-28 15:47:32			0	35954	0	0	0	23896	22470	138413	27109	998648	40688	108815	0	0	8193	642868	0	0
2024-05-28 15:48:32			0	35993	0	0	0	23911	22470	138185	27286	998648	40699	108821	0	0	8195	641175	0	0
2024-05-28 15:49:32			0	36031	0	0	0	23911	22480	138097	27135	998719	40688	108821	0	0	8197	639493	0	0
2024-05-28 15:50:32			0	36058	0	0	0	23924	22490	137973	27371	998736	40701	108826	0	0	8198	638289	0	0
2024-05-28 15:51:32			0	36087	0	0	0	23935	22500	137793	26989	998806	40679	108830	0	0	8199	637000	0	0
2024-05-28 15:52:32			0	36118	0	0	0	23942	22510	137845	27272	998796	40692	108833	0	0	8201	635627	0	0
2024-05-28 15:53:32			0	36122	0	0	0	23950	22510	137737	27235	998858	40692	108836	0	0	8201	635455	0	0
2024-05-28 15:54:32			0	36147	0	0	0	23950	22530	137609	27208	998910	40705	108836	0	0	8202	634307	0	0
2024-05-28 15:55:32			0	36177	0	0	0	23961	22530	137505	27379	998865	40694	108840	0	0	8204	633017	0	0
2024-05-28 15:56:32			0	36212	0	0	0	23986	22540	137501	27582	998900	40705	108850	0	0	8205	631478	0	0
2024-05-28 15:57:32			0	36179	0	0	0	24036	22540	137421	27152	999095	40706	108869	0	0	8203	632896	0	0
2024-05-28 15:58:32			0	36233	0	0	0	24046	22550	137325	27350	999139	40696	108873	0	0	8205	630542	0	0
2024-05-28 15:59:32			0	36242	0	0	0	24070	22580	137205	27043	999235	40708	108882	0	0	8206	630051	0	0
2024-05-28 16:00:32			0	36248	0	0	0	24038	22610	137221	27435	999303	40710	108870	0	0	8207	629689	0	0
2024-05-28 16:01:32			0	36245	0	0	0	24033	22610	137205	27282	999277	40710	108868	0	0	8207	629817	0	0
2024-05-28 16:02:32			0	36288	0	0	0	24023	22610	137173	27346	999250	40700	108864	0	0	8209	627978	0	0
2024-05-28 16:03:32			0	36320	0	0	0	24031	22610	137025	27244	999232	40701	108867	0	0	8211	626611	0	0
2024-05-28 16:04:32			0	36319	0	0	0	24018	22620	136961	27213	999214	40679	108862	0	0	8211	626619	0	0
2024-05-28 16:05:32			0	36358	0	0	0	24015	22620	136821	27261	999222	40702	108861	0	0	8213	624956	0	0
2024-05-28 16:06:32			0	36398	0	0	0	24010	22620	136653	27041	999196	40712	108859	0	0	8215	623254	0	0
2024-05-28 16:07:32			0	36444	0	0	0	24005	22630	136601	27166	999204	40690	108857	0	0	8218	621266	0	0
2024-05-28 16:08:32			0	36438	0	0	0	24005	22630	136513	27284	999231	40702	108857	0	0	8217	621521	0	0
2024-05-28 16:09:32			0	36460	0	0	0	24010	22630	136365	27281	999311	40702	108859	0	0	8218	620588	0	0
2024-05-28 16:10:32			0	36456	0	0	0	24002	22640	136373	27512	999328	40692	108856	0	0	8218	620723	0	0
2024-05-28 16:11:32			0	36455	0	0	0	24007	22640	136381	27492	999363	40693	108858	0	0	8218	620765	0	0
2024-05-28 16:12:32			0	36438	0	0	0	24005	22640	136509	27216	999389	40693	108857	0	0	8217	621486	0	0
2024-05-28 16:13:32			0	36398	0	0	0	23997	22650	136505	27131	999344	40704	108854	0	0	8215	623150	0	0
2024-05-28 16:14:32			0	36380	0	0	0	23989	22650	136645	27066	999344	40704	108851	0	0	8215	623915	0	0
2024-05-28 16:15:32			0	36350	0	0	0	23997	22640	136661	27310	999283	40704	108854	0	0	8213	625227	0	0
2024-05-28 16:16:32			0	36346	0	0	0	24012	22650	136753	27204	999344	40693	108860	0	0	8212	625362	0	0
2024-05-28 16:17:32			0	36345	0	0	0	24023	22650	136825	27481	999380	40704	108864	0	0	8212	625405	0	0
2024-05-28 16:18:32			0	36308	0	0	0	24018	22660	136841	27180	999388	40694	108862	0	0	8210	626948	0	0
2024-05-28 16:19:32			0	36319	0	0	0	24025	22660	136921	27424	999388	40694	108865	0	0	8211	626478	0	0
2024-05-28 16:20:32			0	36341	0	0	0	24033	22660	136869	27083	999415	40694	108868	0	0	8212	625541	0	0
2024-05-28 16:21:32			0	36325	0	0	0	24036	22660	136785	27284	999441	40705	108869	0	0	8211	626223	0	0
2024-05-28 16:22:32			0	36359	0	0	0	24028	22660	136845	27345	999396	40695	108866	0	0	8213	624774	0	0
2024-05-28 16:23:32			0	36360	0	0	0	24023	22670	136685	27045	999378	40695	108864	0	0	8213	624696	0	0
2024-05-28 16:24:32			0	36409	0	0	0	23999	22660	136701	27352	999396	40695	108855	0	0	8216	622647	0	0
2024-05-28 16:25:32			0	36465	0	0	0	23992	22660	136393	27079	999423	40695	108852	0	0	8219	620272	0	0
2024-05-28 16:26:32			0	36532	0	0	0	23968	22660	136157	27241	999370	40695	108843	0	0	8223	617438	0	0
2024-05-28 16:27:32			0	36584	0	0	0	23948	22660	135853	27287	999228	40683	108835	0	0	8226	615244	0	0
2024-05-28 16:28:32			0	36634	0	0	0	23914	22650	135662	27119	999264	40704	108822	0	0	8229	613175	0	0
2024-05-28 16:29:32			0	36685	0	0	0	23940	22650	135602	27038	999264	40693	108832	0	0	8232	611034	0	0
2024-05-28 16:30:32			0	36694	0	0	0	23966	22640	135598	27112	999283	40704	108842	0	0	8232	610691	0	0
2024-05-28 16:31:32			0	36709	0	0	0	23999	22650	135474	27045	999406	40704	108855	0	0	8232	610028	0	0
2024-05-28 16:32:32			0	36723	0	0	0	24023	22660	135446	27161	999495	40683	108864	0	0	8232	609408	0	0
2024-05-28 16:33:32			0	36735	0	0	0	24070	22670	135290	27060	999591	40706	108882	0	0	8232	608871	0	0
2024-05-28 16:34:32			0	36732	0	0	0	24103	22680	135474	27488	999582	40707	108895	0	0	8231	608963	0	0
2024-05-28 16:35:32			0	36743	0	0	0	24127	22690	135358	27152	999660	40697	108904	0	0	8232	608469	0	0
2024-05-28 16:36:32			0	36828	0	0	0	24140	22700	135130	27367	999678	40698	108909	0	0	8236	604888	0	0
2024-05-28 16:37:32			0	36919	0	0	0	24098	22700	134790	27535	999669	40719	108893	0	0	8241	601107	0	0
2024-05-28 16:38:32			0	37045	0	0	0	24077	22700	134354	27282	999651	40709	108885	0	0	8248	595898	0	0
2024-05-28 16:39:32			0	37167	0	0	0	24057	22710	133834	27410	999633	40699	108877	0	0	8255	590849	0	0
2024-05-28 16:40:32			0	37302	0	0	0	24051	22710	133454	27403	999668	40710	108875	0	0	8262	585333	0	0
2024-05-28 16:41:32			0	37359	0	0	0	24054	22710	133127	27237	999633	40699	108876	0	0	8265	583014	0	0
2024-05-28 16:42:32			0	37421	0	0	0	24036	22710	132967	27156	999526	40699	108869	0	0	8269	580498	0	0
2024-05-28 16:43:32			0	37433	0	0	0	24041	22690	132831	27201	999554	40708	108871	0	0	8269	580077	0	0
2024-05-28 16:44:32			0	37462	0	0	0	24057	22700	132751	27156	999571	40698	108877	0	0	8270	578871	0	0
2024-05-28 16:45:32			0	37456	0	0	0	24054	22690	132743	27294	999545	40697	108876	0	0	8270	579146	0	0
2024-05-28 16:46:32			0	37489	0	0	0	24057	22700	132739	27280	999544	40698	108877	0	0	8272	577780	0	0
2024-05-28 16:47:32			0	37461	0	0	0	24059	22690	132779	27098	999545	40685	108878	0	0	8270	578944	0	0
2024-05-28 16:48:32			0	37451	0	0	0	24064	22690	132735	27419	999474	40685	108880	0	0	8270	579349	0	0
2024-05-28 16:49:32			0	37476	0	0	0	24070	22680	132891	27293	999537	40708	108882	0	0	8271	578370	0	0
2024-05-28 16:50:32			0	37435	0	0	0	24072	22690	132891	27060	999599	40708	108883	0	0	8269	579996	0	0
2024-05-28 16:51:32			0	37427	0	0	0	24080	22690	133031	27486	999599	40718	108886	0	0	8268	580320	0	0
2024-05-28 16:52:32			0	37422	0	0	0	24072	22690	132939	27312	999660	40708	108883	0	0	8268	580523	0	0
2024-05-28 16:53:32			0	37412	0	0	0	24077	22700	132991	27471	999624	40709	108885	0	0	8268	580896	0	0
2024-05-28 16:54:32			0	37446	0	0	0	24064	22690	132951	27265	999599	40708	108880	0	0	8269	579551	0	0
2024-05-28 16:55:32			0	37470	0	0	0	24067	22700	132867	27428	999616	40698	108881	0	0	8271	578548	0	0
2024-05-28 16:56:32			0	37477	0	0	0	24067	22690	132795	27457	999554	40718	108881	0	0	8271	578297	0	0
2024-05-28 16:57:32			0	37494	0	0	0	24075	22690	132867	27433	999607	40708	108884	0	0	8272	577610	0	0
2024-05-28 16:58:32			0	37501	0	0	0	24080	22700	132671	27244	999624	40698	108886	0	0	8272	577295	0	0
2024-05-28 16:59:32			0	37505	0	0	0	24085	22700	132683	27137	999651	40709	108888	0	0	8272	577134	0	0
2024-05-28 17:00:32			0	37541	0	0	0	24096	22700	132667	27305	999563	40719	108892	0	0	8274	575682	0	0
2024-05-28 17:01:32			0	37564	0	0	0	24098	22710	132507	27345	999606	40721	108893	0	0	8275	574724	0	0
2024-05-28 17:02:32			0	37579	0	0	0	24103	22690	132403	27003	999580	40708	108895	0	0	8276	574184	0	0
2024-05-28 17:03:32			0	37596	0	0	0	24103	22680	132371	27395	999590	40708	108895	0	0	8277	573533	0	0
2024-05-28 17:04:32			0	37604	0	0	0	24106	22700	132319	27197	999643	40708	108896	0	0	8277	573147	0	0
2024-05-28 17:05:32			0	37635	0	0	0	24124	22710	132159	27128	999713	40710	108903	0	0	8278	571870	0	0
2024-05-28 17:06:32			0	37674	0	0	0	24137	22710	132139	27159	999686	40721	108908	0	0	8280	570307	0	0
2024-05-28 17:07:32			0	37721	0	0	0	24166	22720	131987	27336	999783	40710	108919	0	0	8282	568395	0	0
2024-05-28 17:08:32			0	37784	0	0	0	24168	22720	131807	27237	999836	40710	108920	0	0	8285	565880	0	0
2024-05-28 17:09:32			0	37851	0	0	0	24168	22730	131555	27274	999853	40711	108920	0	0	8289	563183	0	0
2024-05-28 17:10:32			0	37899	0	0	0	24192	22740	131339	27360	999977	40723	108929	0	0	8291	561246	0	0
2024-05-28 17:11:32			0	37964	0	0	0	24197	22750	131131	27383	999967	40724	108931	0	0	8294	558642	0	0
2024-05-28 17:12:32			0	37981	0	0	0	24202	22750	131039	27341	1000002	40724	108933	0	0	8295	557970	0	0
2024-05-28 17:13:32			0	37983	0	0	0	24205	22770	130987	27377	1000081	40715	108934	0	0	8295	557829	0	0
2024-05-28 17:14:32			0	37963	0	0	0	24210	22780	131051	27467	1000044	40727	108936	0	0	8294	558588	0	0
2024-05-28 17:15:32			0	37907	0	0	0	24207	22780	131231	27433	1000071	40727	108935	0	0	8291	560804	0	0
2024-05-28 17:16:32			0	37857	0	0	0	24205	22780	131439	27152	1000026	40716	108934	0	0	8289	562787	0	0
2024-05-28 17:17:32			0	37818	0	0	0	24199	22780	131591	27443	1000000	40738	108932	0	0	8287	564337	0	0
2024-05-28 17:18:32			0	37829	0	0	0	24207	22790	131587	27062	1000043	40718	108935	0	0	8287	563868	0	0
2024-05-28 17:19:32			0	37817	0	0	0	24210	22780	131575	27261	1000053	40727	108936	0	0	8287	564376	0	0
2024-05-28 17:20:32			0	37820	0	0	0	24199	22780	131587	27202	999991	40738	108932	0	0	8287	564257	0	0
2024-05-28 17:21:32			0	37787	0	0	0	24199	22790	131615	27142	1000061	40728	108932	0	0	8285	565539	0	0
2024-05-28 17:22:32			0	37793	0	0	0	24199	22800	131727	27274	1000052	40729	108932	0	0	8286	565268	0	0
2024-05-28 17:23:32			0	37807	0	0	0	24199	22800	131699	27135	1000078	40740	108932	0	0	8286	564711	0	0
2024-05-28 17:24:32			0	37806	0	0	0	24212	22790	131739	27112	1000123	40718	108937	0	0	8286	564783	0	0
2024-05-28 17:25:32			0	37805	0	0	0	24210	22800	131579	27372	1000132	40718	108936	0	0	8286	564791	0	0
2024-05-28 17:26:32			0	37820	0	0	0	24212	22800	131531	27320	1000087	40750	108937	0	0	8287	564194	0	0
2024-05-28 17:27:32			0	37835	0	0	0	24212	22800	131523	26963	1000105	40729	108937	0	0	8288	563598	0	0
2024-05-28 17:28:32			0	37826	0	0	0	24215	22800	131503	27353	1000078	40729	108938	0	0	8287	563955	0	0
2024-05-28 17:29:32			0	37805	0	0	0	24212	22810	131611	27253	1000130	40742	108937	0	0	8286	564759	0	0
2024-05-28 17:30:32			0	37802	0	0	0	24225	22820	131663	27229	1000174	40752	108942	0	0	8286	564847	0	0
2024-05-28 17:31:32			0	37777	0	0	0	24215	22810	131691	27308	1000104	40742	108938	0	0	8285	565874	0	0
2024-05-28 17:32:32			0	37755	0	0	0	24218	22810	131659	27220	1000149	40719	108939	0	0	8283	566751	0	0
2024-05-28 17:33:32			0	37768	0	0	0	24210	22800	131727	27118	1000167	40707	108936	0	0	8284	566264	0	0
2024-05-28 17:34:32			0	37772	0	0	0	24212	22810	131683	27204	1000130	40731	108937	0	0	8284	566073	0	0
2024-05-28 17:35:32			0	37817	0	0	0	24220	22810	131515	27112	1000122	40730	108940	0	0	8287	564282	0	0
2024-05-28 17:36:32			0	37847	0	0	0	24220	22810	131415	27128	1000184	40731	108940	0	0	8288	563089	0	0
2024-05-28 17:37:32			0	37898	0	0	0	24220	22820	131291	27081	1000139	40752	108940	0	0	8291	561035	0	0
2024-05-28 17:38:32			0	37915	0	0	0	24223	22820	131259	27076	1000219	40719	108941	0	0	8292	560361	0	0
2024-05-28 17:39:32			0	37931	0	0	0	24199	22810	131135	27535	1000157	40731	108932	0	0	8293	559759	0	0
2024-05-28 17:40:32			0	37941	0	0	0	24192	22820	131111	27203	1000139	40731	108929	0	0	8294	559332	0	0
2024-05-28 17:41:32			0	37946	0	0	0	24189	22820	131119	27074	1000165	40708	108928	0	0	8294	559135	0	0
2024-05-28 17:42:32			0	37953	0	0	0	24215	22830	131107	26804	1000210	40732	108938	0	0	8294	558827	0	0
2024-05-28 17:43:32			0	37930	0	0	0	24212	22820	131127	26729	1000192	40742	108937	0	0	8293	559767	0	0
2024-05-28 17:44:32			0	37927	0	0	0	24207	22820	131087	27322	1000228	40742	108935	0	0	8293	559886	0	0
2024-05-28 17:45:32			0	37935	0	0	0	24197	22830	131071	27026	1000183	40732	108931	0	0	8293	559538	0	0
2024-05-28 17:46:32			0	37937	0	0	0	24194	22830	131099	27152	1000191	40744	108930	0	0	8293	559459	0	0
2024-05-28 17:47:32			0	37939	0	0	0	24218	22840	131099	27251	1000315	40745	108939	0	0	8293	559349	0	0
2024-05-28 17:48:32			0	37938	0	0	0	24186	22840	131167	26955	1000200	40732	108927	0	0	8294	559388	0	0
2024-05-28 17:49:32			0	37931	0	0	0	24166	22830	131131	27055	1000245	40732	108919	0	0	8294	559697	0	0
2024-05-28 17:50:32			0	37959	0	0	0	24161	22830	131075	27090	1000130	40732	108917	0	0	8295	558589	0	0
2024-05-28 17:51:32			0	37939	0	0	0	24145	22820	131139	27185	1000112	40742	108911	0	0	8294	559411	0	0
2024-05-28 17:52:32			0	37944	0	0	0	24148	22820	131103	27015	1000201	40719	108912	0	0	8295	559214	0	0
2024-05-28 17:53:32			0	37928	0	0	0	24140	22820	131155	27105	1000112	40719	108909	0	0	8294	559846	0	0
2024-05-28 17:54:32			0	37925	0	0	0	24161	22820	131091	27403	1000112	40708	108917	0	0	8293	559965	0	0
2024-05-28 17:55:32			0	37935	0	0	0	24173	22810	131155	27371	1000130	40719	108922	0	0	8294	559601	0	0
2024-05-28 17:56:32			0	37930	0	0	0	24153	22810	131211	27227	1000069	40719	108914	0	0	8294	559799	0	0
2024-05-28 17:57:32			0	37898	0	0	0	24153	22810	131247	27254	1000077	40731	108914	0	0	8292	561066	0	0
2024-05-28 17:58:32			0	37893	0	0	0	24176	22800	131307	27261	1000105	40729	108923	0	0	8291	561295	0	0
2024-05-28 17:59:32			0	37889	0	0	0	24202	22810	131351	27237	1000149	40719	108933	0	0	8291	561423	0	0
2024-05-28 18:00:32			0	37868	0	0	0	24192	22820	131339	27187	1000165	40742	108929	0	0	8290	562224	0	0
2024-05-28 18:01:32			0	37854	0	0	0	24173	22820	131415	27041	1000165	40731	108922	0	0	8289	562780	0	0
2024-05-28 18:02:32			0	37853	0	0	0	24163	22810	131487	27187	1000202	40730	108918	0	0	8289	562851	0	0
2024-05-28 18:03:32			0	37830	0	0	0	24192	22820	131475	26861	1000112	40742	108929	0	0	8288	563733	0	0
2024-05-28 18:04:32			0	37821	0	0	0	24215	22810	131551	27267	1000149	40730	108938	0	0	8287	564123	0	0
2024-05-28 18:05:32			0	37818	0	0	0	24223	22820	131627	27275	1000201	40731	108941	0	0	8287	564210	0	0
2024-05-28 18:06:32			0	37810	0	0	0	24218	22820	131675	27241	1000254	40731	108939	0	0	8286	564529	0	0
2024-05-28 18:07:32			0	37783	0	0	0	24228	22820	131683	27312	1000201	40742	108943	0	0	8285	565603	0	0
2024-05-28 18:08:32			0	37770	0	0	0	24225	22830	131735	27256	1000263	40732	108942	0	0	8284	566090	0	0
2024-05-28 18:09:32			0	37748	0	0	0	24233	22830	131879	27331	1000236	40743	108945	0	0	8283	566967	0	0
2024-05-28 18:10:32			0	37735	0	0	0	24231	22830	131823	27419	1000218	40732	108944	0	0	8282	567485	0	0
2024-05-28 18:11:32			0	37725	0	0	0	24238	22830	131883	27301	1000236	40743	108947	0	0	8282	567885	0	0
2024-05-28 18:12:32			0	37688	0	0	0	24225	22830	131959	27329	1000271	40732	108942	0	0	8280	569364	0	0
2024-05-28 18:13:32			0	37710	0	0	0	24238	22830	132031	27412	1000245	40732	108947	0	0	8281	568484	0	0
2024-05-28 18:14:32			0	37705	0	0	0	24233	22840	132031	27128	1000288	40745	108945	0	0	8281	568652	0	0
2024-05-28 18:15:32			0	37733	0	0	0	24233	22840	131895	27402	1000280	40721	108945	0	0	8282	567533	0	0
2024-05-28 18:16:32			0	37761	0	0	0	24231	22830	131775	27248	1000271	40732	108944	0	0	8284	566448	0	0
2024-05-28 18:17:32			0	37786	0	0	0	24228	22830	131703	27428	1000236	40732	108943	0	0	8285	565452	0	0
2024-05-28 18:18:32			0	37822	0	0	0	24225	22830	131523	27346	1000271	40744	108942	0	0	8287	564020	0	0
2024-05-28 18:19:32			0	37863	0	0	0	24228	22830	131395	27133	1000165	40732	108943	0	0	8289	562391	0	0
2024-05-28 18:20:32			0	37900	0	0	0	24207	22820	131335	27357	1000201	40731	108935	0	0	8291	560955	0	0
2024-05-28 18:21:32			0	37931	0	0	0	24205	22830	131295	27079	1000210	40743	108934	0	0	8293	559697	0	0
2024-05-28 18:22:32			0	37942	0	0	0	24215	22820	131175	26882	1000174	40742	108938	0	0	8293	559293	0	0
2024-05-28 18:23:32			0	37931	0	0	0	24199	22830	131067	27183	1000183	40743	108932	0	0	8293	559697	0	0
2024-05-28 18:24:32			0	37985	0	0	0	24179	22820	131079	27376	1000148	40742	108924	0	0	8296	557594	0	0
2024-05-28 18:25:32			0	37994	0	0	0	24179	22820	131087	26986	1000121	40719	108924	0	0	8297	557239	0	0
2024-05-28 18:26:32			0	37999	0	0	0	24158	22810	130919	27237	1000077	40742	108916	0	0	8297	557072	0	0
2024-05-28 18:27:32			0	38022	0	0	0	24153	22820	130807	27216	1000094	40742	108914	0	0	8298	556135	0	0
2024-05-28 18:28:32			0	38017	0	0	0	24142	22820	130779	27267	1000112	40731	108910	0	0	8298	556332	0	0
2024-05-28 18:29:32			0	38031	0	0	0	24135	22810	130800	27024	1000069	40730	108907	0	0	8299	555811	0	0
2024-05-28 18:30:32			0	38022	0	0	0	24150	22810	130799	27154	1000095	40730	108913	0	0	8298	556166	0	0
2024-05-28 18:31:32			0	38037	0	0	0	24140	22800	130824	27308	1000140	40729	108909	0	0	8299	555606	0	0
2024-05-28 18:32:32			0	38049	0	0	0	24129	22790	130796	27336	1000043	40729	108905	0	0	8300	555164	0	0
2024-05-28 18:33:32			0	38042	0	0	0	24140	22790	130784	27220	1000016	40729	108909	0	0	8300	555440	0	0
2024-05-28 18:34:32			0	38058	0	0	0	24135	22790	130864	27081	1000035	40717	108907	0	0	8301	554810	0	0
2024-05-28 18:35:32			0	38079	0	0	0	24142	22780	130848	27173	1000026	40727	108910	0	0	8301	554015	0	0
2024-05-28 18:36:32			0	38051	0	0	0	24179	22790	130832	27118	1000070	40740	108924	0	0	8299	555086	0	0
2024-05-28 18:37:32			0	38063	0	0	0	24181	22790	130800	27116	1000088	40728	108925	0	0	8300	554614	0	0
2024-05-28 18:38:32			0	38067	0	0	0	24145	22790	130740	27185	1000035	40750	108911	0	0	8301	554456	0	0
2024-05-28 18:39:32			0	38057	0	0	0	24148	22780	130752	27045	999973	40716	108912	0	0	8300	554881	0	0
2024-05-28 18:40:32			0	38052	0	0	0	24132	22780	130712	27003	1000000	40727	108906	0	0	8300	555077	0	0
2024-05-28 18:41:32			0	38079	0	0	0	24137	22760	130732	27466	999886	40725	108908	0	0	8301	554077	0	0
2024-05-28 18:42:32			0	38082	0	0	0	24129	22770	130672	27253	999903	40715	108905	0	0	8302	553928	0	0
2024-05-28 18:43:32			0	38079	0	0	0	24129	22760	130628	27010	999797	40747	108905	0	0	8302	554077	0	0
2024-05-28 18:44:32			0	38059	0	0	0	24127	22750	130648	27229	999789	40724	108904	0	0	8301	554895	0	0
2024-05-28 18:45:32			0	38053	0	0	0	24132	22740	130740	27164	999764	40734	108906	0	0	8300	555162	0	0
2024-05-28 18:46:32			0	38079	0	0	0	24129	22730	130816	27176	999720	40723	108905	0	0	8301	554170	0	0
2024-05-28 18:47:32			0	38060	0	0	0	24142	22730	130732	27114	999800	40711	108910	0	0	8300	554918	0	0
2024-05-28 18:48:32			0	38068	0	0	0	24119	22720	130816	27088	999783	40721	108901	0	0	8301	554634	0	0
2024-05-28 18:49:32			0	38109	0	0	0	24124	22730	130552	27583	999702	40734	108903	0	0	8303	552991	0	0
2024-05-28 18:50:32			0	38131	0	0	0	24103	22720	130604	27481	999676	40721	108895	0	0	8305	552159	0	0
2024-05-28 18:51:32			0	38146	0	0	0	24119	22720	130540	26981	999730	40721	108901	0	0	8305	551570	0	0
2024-05-28 18:52:32			0	38154	0	0	0	24142	22710	130584	27175	999695	40721	108910	0	0	8305	551288	0	0
2024-05-28 18:53:32			0	38134	0	0	0	24153	22720	130552	27062	999756	40732	108914	0	0	8304	552041	0	0
2024-05-28 18:54:32			0	38121	0	0	0	24150	22700	130592	27296	999651	40720	108913	0	0	8303	552613	0	0
2024-05-28 18:55:32			0	38111	0	0	0	24122	22700	130676	27081	999678	40731	108902	0	0	8303	553006	0	0
2024-05-28 18:56:32			0	38121	0	0	0	24119	22700	130564	27422	999651	40720	108901	0	0	8304	552613	0	0
2024-05-28 18:57:32			0	38125	0	0	0	24116	22700	130524	27294	999616	40730	108900	0	0	8304	552456	0	0
2024-05-28 18:58:32			0	38177	0	0	0	24093	22700	130444	27488	999589	40730	108891	0	0	8307	550417	0	0
2024-05-28 18:59:32			0	38224	0	0	0	24070	22690	130204	27261	999572	40729	108882	0	0	8310	548609	0	0
2024-05-28 19:00:32			0	38311	0	0	0	24070	22680	129940	27145	999510	40718	108882	0	0	8314	545246	0	0
2024-05-28 19:01:32			0	38393	0	0	0	24051	22680	129680	27222	999502	40729	108875	0	0	8319	542059	0	0
2024-05-28 19:02:32			0	38429	0	0	0	24033	22670	129536	27571	999440	40716	108868	0	0	8321	540694	0	0
2024-05-28 19:03:32			0	38478	0	0	0	24023	22670	129468	27256	999458	40728	108864	0	0	8324	538798	0	0
2024-05-28 19:04:32			0	38521	0	0	0	24023	22660	129380	27107	999423	40716	108864	0	0	8326	537168	0	0
2024-05-28 19:05:32			0	38550	0	0	0	24020	22650	129300	27531	999406	40715	108863	0	0	8327	536080	0	0
2024-05-28 19:06:32			0	38532	0	0	0	24005	22650	129348	27187	999326	40715	108857	0	0	8327	536773	0	0
2024-05-28 19:07:32			0	38559	0	0	0	23981	22650	129240	27227	999291	40715	108848	0	0	8329	535733	0	0
2024-05-28 19:08:32			0	38563	0	0	0	23974	22640	129272	27303	999248	40714	108845	0	0	8329	535609	0	0
2024-05-28 19:09:32			0	38532	0	0	0	23971	22630	129316	27417	999292	40713	108844	0	0	8327	536833	0	0
2024-05-28 19:10:32			0	38545	0	0	0	23971	22620	129384	27017	999249	40702	108844	0	0	8328	536362	0	0
2024-05-28 19:11:32			0	38531	0	0	0	23968	22620	129444	27029	999214	40712	108843	0	0	8327	536902	0	0
2024-05-28 19:12:32			0	38532	0	0	0	23979	22610	129520	27145	999152	40711	108847	0	0	8327	536893	0	0
2024-05-28 19:13:32			0	38480	0	0	0	23976	22600	129480	27381	999188	40722	108846	0	0	8324	538932	0	0
2024-05-28 19:14:32			0	38486	0	0	0	23971	22600	129508	27157	999135	40710	108844	0	0	8325	538700	0	0
2024-05-28 19:15:32			0	38466	0	0	0	23955	22600	129516	27253	999108	40710	108838	0	0	8324	539473	0	0
2024-05-28 19:16:32			0	38435	0	0	0	23909	22600	129620	27116	999055	40722	108820	0	0	8323	540673	0	0
2024-05-28 19:17:32			0	38413	0	0	0	23877	22580	129740	26845	998995	40698	108808	0	0	8322	541587	0	0
2024-05-28 19:18:32			0	38380	0	0	0	23867	22560	129752	27306	998854	40696	108804	0	0	8321	542928	0	0
2024-05-28 19:19:32			0	38327	0	0	0	23859	22550	129932	27313	998765	40696	108801	0	0	8318	545020	0	0
2024-05-28 19:20:32			0	38305	0	0	0	23857	22550	130060	27145	998810	40707	108800	0	0	8317	545876	0	0
2024-05-28 19:21:32			0	38282	0	0	0	23862	22530	130204	26948	998723	40694	108802	0	0	8316	546835	0	0
2024-05-28 19:22:32			0	38253	0	0	0	23862	22530	130260	26934	998777	40715	108802	0	0	8314	547967	0	0
2024-05-28 19:23:32			0	38228	0	0	0	23854	22520	130348	27190	998706	40714	108799	0	0	8313	548975	0	0
2024-05-28 19:24:32			0	38213	0	0	0	23854	22510	130412	27072	998751	40703	108799	0	0	8312	549592	0	0
2024-05-28 19:25:32			0	38211	0	0	0	23846	22510	130544	27022	998636	40714	108796	0	0	8312	549671	0	0
2024-05-28 19:26:32			0	38206	0	0	0	23833	22500	130612	27300	998646	40690	108791	0	0	8312	549897	0	0
2024-05-28 19:27:32			0	38170	0	0	0	23838	22490	130544	27176	998531	40712	108793	0	0	8310	551339	0	0
2024-05-28 19:28:32			0	38180	0	0	0	23831	22490	130656	27017	998656	40689	108790	0	0	8311	550947	0	0
2024-05-28 19:29:32			0	38117	0	0	0	23820	22480	130776	27085	998567	40701	108786	0	0	8308	553451	0	0
2024-05-28 19:30:32			0	38104	0	0	0	23823	22480	130832	27183	998559	40700	108787	0	0	8307	553962	0	0
2024-05-28 19:31:32			0	38081	0	0	0	23812	22460	130892	27039	998472	40698	108783	0	0	8306	554929	0	0
2024-05-28 19:32:32			0	38048	0	0	0	23815	22450	131020	27098	998490	40686	108784	0	0	8304	556261	0	0
2024-05-28 19:33:32			0	38049	0	0	0	23812	22460	131048	27116	998472	40698	108783	0	0	8304	556190	0	0
2024-05-28 19:34:32			0	38027	0	0	0	23802	22450	131195	27137	998410	40708	108779	0	0	8303	557090	0	0
2024-05-28 19:35:32			0	38011	0	0	0	23799	22450	131111	26970	998401	40686	108778	0	0	8302	557721	0	0
2024-05-28 19:36:32			0	38005	0	0	0	23797	22440	131207	27046	998366	40686	108777	0	0	8302	557990	0	0
2024-05-28 19:37:32			0	37991	0	0	0	23784	22430	131203	27170	998296	40673	108772	0	0	8302	558574	0	0
2024-05-28 19:38:32			0	38018	0	0	0	23786	22420	131163	27218	998377	40694	108773	0	0	8303	557538	0	0
2024-05-28 19:39:32			0	38017	0	0	0	23771	22420	131135	27417	998332	40706	108767	0	0	8303	557578	0	0
2024-05-28 19:40:32			0	38022	0	0	0	23779	22420	131115	27258	998324	40694	108770	0	0	8303	557380	0	0
2024-05-28 19:41:32			0	38037	0	0	0	23773	22410	131168	27518	998280	40694	108768	0	0	8304	556819	0	0
2024-05-28 19:42:32			0	38027	0	0	0	23781	22390	131048	27216	998255	40681	108771	0	0	8303	557276	0	0
2024-05-28 19:43:32			0	38071	0	0	0	23773	22400	131036	27479	998272	40693	108768	0	0	8306	555509	0	0
2024-05-28 19:44:32			0	38053	0	0	0	23773	22400	131068	27341	998263	40681	108768	0	0	8305	556219	0	0
2024-05-28 19:45:32			0	38059	0	0	0	23768	22390	131100	27261	998193	40681	108766	0	0	8305	556014	0	0
2024-05-28 19:46:32			0	38040	0	0	0	23763	22390	131156	27102	998220	40692	108764	0	0	8304	556763	0	0
2024-05-28 19:47:32			0	37990	0	0	0	23766	22370	131291	27066	998141	40701	108765	0	0	8302	558801	0	0
2024-05-28 19:48:32			0	37948	0	0	0	23750	22380	131375	27102	998131	40702	108759	0	0	8300	560433	0	0
2024-05-28 19:49:32			0	37922	0	0	0	23750	22380	131467	27013	998158	40702	108759	0	0	8298	561464	0	0
2024-05-28 19:50:32			0	37889	0	0	0	23737	22360	131543	27190	998116	40688	108754	0	0	8297	562838	0	0
2024-05-28 19:51:32			0	37850	0	0	0	23742	22360	131731	27168	998124	40667	108756	0	0	8295	564389	0	0
2024-05-28 19:52:32			0	37827	0	0	0	23750	22370	131859	27085	998106	40689	108759	0	0	8293	565274	0	0
2024-05-28 19:53:32			0	37797	0	0	0	23761	22360	131943	27241	998071	40711	108763	0	0	8292	566502	0	0
2024-05-28 19:54:32			0	37756	0	0	0	23750	22360	131995	27098	998089	40677	108759	0	0	8290	568139	0	0
2024-05-28 19:55:32			0	37742	0	0	0	23763	22350	132051	27161	998107	40688	108764	0	0	8289	568731	0	0
2024-05-28 19:56:32			0	37750	0	0	0	23761	22360	132131	27119	998116	40699	108763	0	0	8289	568379	0	0
2024-05-28 19:57:32			0	37756	0	0	0	23766	22370	132207	27428	998106	40700	108765	0	0	8289	568108	0	0
2024-05-28 19:58:32			0	37728	0	0	0	23763	22360	132131	27422	998151	40678	108764	0	0	8288	569260	0	0
2024-05-28 19:59:32			0	37749	0	0	0	23768	22360	132147	27246	998116	40688	108766	0	0	8289	568419	0	0
2024-05-28 20:00:32			0	37726	0	0	0	23768	22360	132163	27111	998151	40689	108766	0	0	8288	569340	0	0
2024-05-28 20:01:32			0	37751	0	0	0	23768	22350	132143	26965	998187	40677	108766	0	0	8289	568371	0	0
2024-05-28 20:02:32			0	37775	0	0	0	23773	22350	132087	27175	998081	40688	108768	0	0	8290	567412	0	0
2024-05-28 20:03:32			0	37773	0	0	0	23758	22360	132099	27267	998071	40678	108762	0	0	8290	567460	0	0
2024-05-28 20:04:32			0	37780	0	0	0	23773	22360	132055	27332	998116	40677	108768	0	0	8290	567180	0	0
2024-05-28 20:05:32			0	37777	0	0	0	23766	22360	132091	27329	998116	40688	108765	0	0	8290	567300	0	0
2024-05-28 20:06:32			0	37799	0	0	0	23761	22360	132011	27183	998116	40699	108763	0	0	8292	566422	0	0
2024-05-28 20:07:32			0	37792	0	0	0	23761	22360	131971	27189	998089	40688	108763	0	0	8291	566701	0	0
2024-05-28 20:08:32			0	37788	0	0	0	23763	22350	131955	27268	998107	40688	108764	0	0	8291	566893	0	0
2024-05-28 20:09:32			0	37818	0	0	0	23763	22360	132047	27019	998124	40678	108764	0	0	8293	565664	0	0
2024-05-28 20:10:32			0	37805	0	0	0	23761	22360	132047	27064	998089	40699	108763	0	0	8292	566182	0	0
2024-05-28 20:11:32			0	37815	0	0	0	23742	22350	131879	27000	998107	40688	108756	0	0	8293	565815	0	0
2024-05-28 20:12:32			0	37827	0	0	0	23732	22350	131863	27104	998019	40687	108752	0	0	8294	565337	0	0
2024-05-28 20:13:32			0	37861	0	0	0	23722	22340	131871	27300	998002	40686	108748	0	0	8295	564014	0	0
2024-05-28 20:14:32			0	37852	0	0	0	23727	22340	131763	27175	997976	40686	108750	0	0	8295	564372	0	0
2024-05-28 20:15:32			0	37838	0	0	0	23711	22330	131831	27149	997959	40686	108744	0	0	8294	564962	0	0
2024-05-28 20:16:32			0	37865	0	0	0	23711	22340	131783	27029	998002	40686	108744	0	0	8296	563855	0	0
2024-05-28 20:17:32			0	37869	0	0	0	23709	22320	131691	27227	997897	40686	108743	0	0	8296	563759	0	0
2024-05-28 20:18:32			0	37904	0	0	0	23706	22320	131715	26967	997923	40686	108742	0	0	8298	562367	0	0
2024-05-28 20:19:32			0	37925	0	0	0	23701	22330	131555	26925	997905	40686	108740	0	0	8299	561502	0	0
2024-05-28 20:20:32			0	37925	0	0	0	23711	22310	131523	26968	997906	40684	108744	0	0	8299	561565	0	0
2024-05-28 20:21:32			0	37988	0	0	0	23688	22320	131375	27140	997862	40696	108735	0	0	8303	559037	0	0
2024-05-28 20:22:32			0	38038	0	0	0	23703	22320	131184	27164	997897	40697	108741	0	0	8305	557060	0	0
2024-05-28 20:23:32			0	38043	0	0	0	23696	22310	131100	27168	997845	40684	108738	0	0	8305	556894	0	0
2024-05-28 20:24:32			0	38086	0	0	0	23698	22310	130956	27260	997933	40684	108739	0	0	8307	555198	0	0
2024-05-28 20:25:32			0	38138	0	0	0	23698	22310	130932	27410	997826	40673	108739	0	0	8310	553151	0	0
2024-05-28 20:26:32			0	38149	0	0	0	23711	22310	130716	27215	997933	40673	108744	0	0	8310	552718	0	0
2024-05-28 20:27:32			0	38192	0	0	0	23703	22310	130612	27180	997845	40706	108741	0	0	8313	551030	0	0
2024-05-28 20:28:32			0	38231	0	0	0	23719	22310	130552	27149	997871	40673	108747	0	0	8315	549502	0	0
2024-05-28 20:29:32			0	38235	0	0	0	23729	22300	130468	27256	997916	40684	108751	0	0	8315	549376	0	0
2024-05-28 20:30:32			0	38262	0	0	0	23732	22310	130428	27298	997853	40684	108752	0	0	8316	548289	0	0
2024-05-28 20:31:32			0	38275	0	0	0	23727	22320	130336	27312	997977	40674	108750	0	0	8317	547750	0	0
2024-05-28 20:32:32			0	38304	0	0	0	23724	22310	130264	27232	997898	40684	108749	0	0	8318	546648	0	0
2024-05-28 20:33:32			0	38351	0	0	0	23722	22310	130148	27281	997906	40695	108748	0	0	8321	544816	0	0
2024-05-28 20:34:32			0	38347	0	0	0	23727	22300	130180	26904	997916	40695	108750	0	0	8320	545002	0	0
2024-05-28 20:35:32			0	38352	0	0	0	23737	22310	130192	27556	997925	40673	108754	0	0	8321	544777	0	0
2024-05-28 20:36:32			0	38380	0	0	0	23735	22320	130144	27564	997915	40673	108753	0	0	8322	543657	0	0
2024-05-28 20:37:32			0	38399	0	0	0	23729	22320	130000	27384	997968	40696	108751	0	0	8323	542918	0	0
2024-05-28 20:38:32			0	38408	0	0	0	23727	22310	129924	27043	997906	40695	108750	0	0	8324	542599	0	0
2024-05-28 20:39:32			0	38419	0	0	0	23729	22310	129928	27367	997845	40673	108751	0	0	8324	542172	0	0
2024-05-28 20:40:32			0	38421	0	0	0	23729	22310	129996	27081	997925	40695	108751	0	0	8324	542094	0	0
2024-05-28 20:41:32			0	38445	0	0	0	23722	22310	129776	27152	997880	40695	108748	0	0	8326	541162	0	0
2024-05-28 20:42:32			0	38426	0	0	0	23735	22320	129884	27225	997888	40696	108753	0	0	8324	541869	0	0
2024-05-28 20:43:32			0	38429	0	0	0	23740	22310	129944	27189	997951	40684	108755	0	0	8324	541783	0	0
2024-05-28 20:44:32			0	38426	0	0	0	23737	22320	129860	27147	997968	40696	108754	0	0	8324	541869	0	0
2024-05-28 20:45:32			0	38438	0	0	0	23742	22310	129848	27182	997906	40684	108756	0	0	8325	541434	0	0
2024-05-28 20:46:32			0	38425	0	0	0	23737	22320	129848	27256	997941	40696	108754	0	0	8324	541908	0	0
2024-05-28 20:47:32			0	38419	0	0	0	23735	22310	129952	27218	997933	40695	108753	0	0	8324	542172	0	0
2024-05-28 20:48:32			0	38410	0	0	0	23729	22320	129944	27185	997995	40696	108751	0	0	8324	542491	0	0
2024-05-28 20:49:32			0	38425	0	0	0	23724	22310	129980	27062	997906	40695	108749	0	0	8325	541939	0	0
2024-05-28 20:50:32			0	38419	0	0	0	23724	22320	129952	27183	997968	40696	108749	0	0	8324	542141	0	0
2024-05-28 20:51:32			0	38410	0	0	0	23727	22320	129944	27263	997977	40697	108750	0	0	8324	542491	0	0
2024-05-28 20:52:32			0	38400	0	0	0	23732	22320	130012	26977	998003	40697	108752	0	0	8323	542879	0	0
2024-05-28 20:53:32			0	38419	0	0	0	23735	22320	129988	27232	997977	40697	108753	0	0	8324	542141	0	0
2024-05-28 20:54:32			0	38403	0	0	0	23742	22320	130004	26932	997950	40697	108756	0	0	8323	542763	0	0
2024-05-28 20:55:32			0	38411	0	0	0	23748	22310	129988	27055	997960	40673	108758	0	0	8323	542482	0	0
2024-05-28 20:56:32			0	38432	0	0	0	23758	22320	129996	27033	997968	40685	108762	0	0	8324	541637	0	0
2024-05-28 20:57:32			0	38405	0	0	0	23768	22310	129952	27121	998013	40706	108766	0	0	8323	542715	0	0
2024-05-28 20:58:32			0	38399	0	0	0	23771	22320	130092	27105	997950	40686	108767	0	0	8322	542918	0	0
2024-05-28 20:59:32			0	38406	0	0	0	23773	22320	130036	27154	997977	40697	108768	0	0	8323	542646	0	0
2024-05-28 21:00:32			0	38393	0	0	0	23761	22320	130092	26986	997968	40696	108763	0	0	8322	543151	0	0
2024-05-28 21:01:32			0	38378	0	0	0	23776	22330	130124	27256	998039	40686	108769	0	0	8321	543704	0	0
2024-05-28 21:02:32			0	38377	0	0	0	23776	22320	130000	26972	998056	40697	108769	0	0	8321	543773	0	0
2024-05-28 21:03:32			0	38400	0	0	0	23794	22330	130084	27182	998092	40697	108776	0	0	8322	542849	0	0
2024-05-28 21:04:32			0	38421	0	0	0	23802	22340	130028	27124	998135	40698	108779	0	0	8323	542003	0	0
2024-05-28 21:05:32			0	38404	0	0	0	23818	22340	130024	27116	998170	40709	108785	0	0	8322	542663	0	0
2024-05-28 21:06:32			0	38404	0	0	0	23823	22340	129980	27213	998197	40699	108787	0	0	8322	542663	0	0
2024-05-28 21:07:32			0	38409	0	0	0	23841	22360	129904	27386	998311	40711	108794	0	0	8322	542408	0	0
2024-05-28 21:08:32			0	38410	0	0	0	23844	22380	129892	27291	998363	40701	108795	0	0	8322	542309	0	0
2024-05-28 21:09:32			0	38428	0	0	0	23841	22370	129872	27336	998354	40701	108794	0	0	8323	541640	0	0
2024-05-28 21:10:32			0	38415	0	0	0	23846	22380	129768	27294	998318	40712	108796	0	0	8322	542115	0	0
2024-05-28 21:11:32			0	38447	0	0	0	23851	22390	129788	27312	998406	40713	108798	0	0	8324	540843	0	0
2024-05-28 21:12:32			0	38448	0	0	0	23859	22390	129844	26979	998406	40703	108801	0	0	8324	540804	0	0
2024-05-28 21:13:32			0	38450	0	0	0	23851	22400	129836	27364	998405	40704	108798	0	0	8324	540697	0	0
2024-05-28 21:14:32			0	38433	0	0	0	23862	22390	129876	27150	998415	40692	108802	0	0	8323	541386	0	0
2024-05-28 21:15:32			0	38405	0	0	0	23862	22400	129856	27253	998503	40714	108802	0	0	8322	542443	0	0
2024-05-28 21:16:32			0	38410	0	0	0	23870	22410	129892	26994	998449	40705	108805	0	0	8322	542218	0	0
2024-05-28 21:17:32			0	38402	0	0	0	23867	22420	129860	27124	998457	40716	108804	0	0	8321	542498	0	0
2024-05-28 21:18:32			0	38362	0	0	0	23870	22410	130044	26944	998449	40694	108805	0	0	8319	544084	0	0
2024-05-28 21:19:32			0	38343	0	0	0	23862	22430	130084	27357	998482	40717	108802	0	0	8318	544762	0	0
2024-05-28 21:20:32			0	38291	0	0	0	23870	22420	130208	27412	998519	40716	108805	0	0	8316	546820	0	0
2024-05-28 21:21:32			0	38276	0	0	0	23867	22440	130312	27225	998579	40708	108804	0	0	8315	547344	0	0
2024-05-28 21:22:32			0	38246	0	0	0	23877	22420	130452	26852	998545	40706	108808	0	0	8313	548578	0	0
2024-05-28 21:23:32			0	38209	0	0	0	23862	22440	130580	27098	998579	40719	108802	0	0	8312	549964	0	0
2024-05-28 21:24:32			0	38170	0	0	0	23870	22440	130660	27303	998579	40708	108805	0	0	8309	551493	0	0
2024-05-28 21:25:32			0	38142	0	0	0	23875	22440	130716	27251	998526	40719	108807	0	0	8308	552592	0	0
2024-05-28 21:26:32			0	38117	0	0	0	23870	22440	130904	27270	998518	40707	108805	0	0	8307	553574	0	0
2024-05-28 21:27:32			0	38073	0	0	0	23872	22440	131056	27081	998518	40718	108806	0	0	8304	555306	0	0
2024-05-28 21:28:32			0	38027	0	0	0	23872	22440	131195	27199	998499	40719	108806	0	0	8302	557121	0	0
2024-05-28 21:29:32			0	37991	0	0	0	23862	22450	131283	26876	998561	40719	108802	0	0	8300	558512	0	0
2024-05-28 21:30:32			0	37958	0	0	0	23864	22440	131467	27043	998553	40719	108803	0	0	8298	559849	0	0
2024-05-28 21:31:32			0	37921	0	0	0	23872	22450	131539	27168	998588	40719	108806	0	0	8296	561284	0	0
2024-05-28 21:32:32			0	37887	0	0	0	23859	22440	131635	27268	998659	40719	108801	0	0	8295	562665	0	0
2024-05-28 21:33:32			0	37862	0	0	0	23877	22450	131743	27248	998615	40719	108808	0	0	8293	563628	0	0
2024-05-28 21:34:32			0	37820	0	0	0	23875	22450	131823	26993	998623	40719	108807	0	0	8291	565300	0	0
2024-05-28 21:35:32			0	37770	0	0	0	23867	22450	131955	27128	998623	40708	108804	0	0	8289	567294	0	0
2024-05-28 21:36:32			0	37762	0	0	0	23872	22460	132091	27400	998605	40720	108806	0	0	8288	567582	0	0
2024-05-28 21:37:32			0	37726	0	0	0	23877	22460	132227	27393	998587	40709	108808	0	0	8286	569022	0	0
2024-05-28 21:38:32			0	37675	0	0	0	23870	22470	132355	27405	998595	40709	108805	0	0	8284	571033	0	0
2024-05-28 21:39:32			0	37650	0	0	0	23867	22460	132343	27234	998525	40708	108804	0	0	8282	572068	0	0
2024-05-28 21:40:32			0	37625	0	0	0	23867	22450	132455	27338	998623	40719	108804	0	0	8281	573104	0	0
2024-05-28 21:41:32			0	37579	0	0	0	23877	22460	132623	27067	998552	40708	108808	0	0	8279	574923	0	0
2024-05-28 21:42:32			0	37558	0	0	0	23864	22450	132743	27026	998641	40719	108803	0	0	8278	575802	0	0
2024-05-28 21:43:32			0	37540	0	0	0	23867	22450	132807	27142	998623	40697	108804	0	0	8277	576528	0	0
2024-05-28 21:44:32			0	37492	0	0	0	23870	22450	132947	27360	998570	40708	108805	0	0	8274	578467	0	0
2024-05-28 21:45:32			0	37453	0	0	0	23870	22450	133011	27215	998623	40719	108805	0	0	8272	580046	0	0
2024-05-28 21:46:32			0	37424	0	0	0	23870	22460	133147	27128	998640	40720	108805	0	0	8271	581189	0	0
2024-05-28 21:47:32			0	37403	0	0	0	23867	22460	133307	27159	998605	40708	108804	0	0	8270	582041	0	0
2024-05-28 21:48:32			0	37374	0	0	0	23867	22460	133407	27298	998632	40698	108804	0	0	8268	583220	0	0
2024-05-28 21:49:32			0	37365	0	0	0	23870	22450	133443	27336	998623	40708	108805	0	0	8268	583618	0	0
2024-05-28 21:50:32			0	37299	0	0	0	23864	22460	133578	27093	998552	40720	108803	0	0	8264	586274	0	0
2024-05-28 21:51:32			0	37279	0	0	0	23870	22450	133570	27407	998570	40708	108805	0	0	8263	587123	0	0
2024-05-28 21:52:32			0	37266	0	0	0	23870	22460	133750	27287	998605	40708	108805	0	0	8262	587622	0	0
2024-05-28 21:53:32			0	37230	0	0	0	23875	22460	133858	27369	998613	40709	108807	0	0	8260	589094	0	0
2024-05-28 21:54:32			0	37225	0	0	0	23870	22460	133962	27270	998658	40720	108805	0	0	8260	589299	0	0
2024-05-28 21:55:32			0	37182	0	0	0	23870	22460	134054	27306	998667	40709	108805	0	0	8258	591061	0	0
2024-05-28 21:56:32			0	37164	0	0	0	23870	22450	134186	27319	998676	40719	108805	0	0	8257	591832	0	0
2024-05-28 21:57:32			0	37150	0	0	0	23872	22450	134238	27211	998641	40708	108806	0	0	8256	592407	0	0
2024-05-28 21:58:32			0	37108	0	0	0	23872	22460	134190	27230	998640	40709	108806	0	0	8254	594101	0	0
2024-05-28 21:59:32			0	37101	0	0	0	23883	22460	134394	27220	998632	40698	108810	0	0	8254	594389	0	0
2024-05-28 22:00:32			0	37091	0	0	0	23872	22460	134430	26946	998613	40699	108806	0	0	8253	594801	0	0
2024-05-28 22:01:32			0	37062	0	0	0	23880	22460	134538	26927	998578	40720	108809	0	0	8252	595996	0	0
2024-05-28 22:02:32			0	37023	0	0	0	23875	22460	134586	27092	998685	40708	108807	0	0	8250	597607	0	0
2024-05-28 22:03:32			0	37015	0	0	0	23877	22450	134586	27039	998596	40719	108808	0	0	8249	597971	0	0
2024-05-28 22:04:32			0	37006	0	0	0	23880	22470	134794	27320	998710	40709	108809	0	0	8249	598276	0	0
2024-05-28 22:05:32			0	36999	0	0	0	23883	22470	134754	27358	998684	40709	108810	0	0	8248	598565	0	0
2024-05-28 22:06:32			0	36961	0	0	0	23875	22460	134862	27086	998632	40731	108807	0	0	8246	600172	0	0
2024-05-28 22:07:32			0	36941	0	0	0	23893	22470	134882	27083	998684	40720	108814	0	0	8245	600968	0	0
2024-05-28 22:08:32			0	36928	0	0	0	23890	22470	134954	26918	998710	40720	108813	0	0	8244	601507	0	0
2024-05-28 22:09:32			0	36948	0	0	0	23890	22470	134962	27059	998684	40720	108813	0	0	8245	600677	0	0
2024-05-28 22:10:32			0	36911	0	0	0	23893	22470	134966	27343	998728	40720	108814	0	0	8243	602213	0	0
2024-05-28 22:11:32			0	36900	0	0	0	23896	22480	135038	27046	998745	40710	108815	0	0	8243	602636	0	0
2024-05-28 22:12:32			0	36878	0	0	0	23893	22470	135094	27303	998684	40720	108814	0	0	8242	603585	0	0
2024-05-28 22:13:32			0	36881	0	0	0	23901	22480	135146	27097	998772	40710	108817	0	0	8242	603426	0	0
2024-05-28 22:14:32			0	36853	0	0	0	23893	22480	135098	27305	998772	40733	108814	0	0	8240	604591	0	0
2024-05-28 22:15:32			0	36843	0	0	0	23903	22480	135202	27085	998719	40710	108818	0	0	8240	605008	0	0
2024-05-28 22:16:32			0	36849	0	0	0	23903	22490	135290	26927	998762	40711	108818	0	0	8240	604724	0	0
2024-05-28 22:17:32			0	36845	0	0	0	23909	22480	135262	27111	998727	40733	108820	0	0	8240	604924	0	0
2024-05-28 22:18:32			0	36844	0	0	0	23903	22480	135270	26948	998807	40722	108818	0	0	8240	604966	0	0
2024-05-28 22:19:32			0	36792	0	0	0	23909	22470	135342	27291	998684	40709	108820	0	0	8237	607169	0	0
2024-05-28 22:20:32			0	36810	0	0	0	23901	22490	135258	27229	998736	40733	108817	0	0	8238	606350	0	0
2024-05-28 22:21:32			0	36810	0	0	0	23898	22490	135386	27263	998789	40711	108816	0	0	8238	606350	0	0
2024-05-28 22:22:32			0	36808	0	0	0	23901	22480	135442	27263	998780	40711	108817	0	0	8238	606467	0	0
2024-05-28 22:23:32			0	36790	0	0	0	23898	22480	135382	27178	998745	40733	108816	0	0	8237	607219	0	0
2024-05-28 22:24:32			0	36791	0	0	0	23898	22490	135430	27033	998736	40711	108816	0	0	8237	607143	0	0
2024-05-28 22:25:32			0	36803	0	0	0	23893	22490	135462	27144	998797	40746	108814	0	0	8238	606642	0	0
2024-05-28 22:26:32			0	36791	0	0	0	23898	22490	135446	27152	998789	40711	108816	0	0	8237	607143	0	0
2024-05-28 22:27:32			0	36784	0	0	0	23898	22480	135482	27230	998780	40711	108816	0	0	8237	607469	0	0
2024-05-28 22:28:32			0	36788	0	0	0	23893	22480	135410	27351	998807	40722	108814	0	0	8237	607302	0	0
2024-05-28 22:29:32			0	36784	0	0	0	23906	22490	135410	27393	998816	40711	108819	0	0	8237	607435	0	0
2024-05-28 22:30:32			0	36777	0	0	0	23901	22480	135338	27391	998807	40722	108817	0	0	8236	607762	0	0
2024-05-28 22:31:32			0	36766	0	0	0	23903	22490	135454	27218	998789	40722	108818	0	0	8236	608188	0	0
2024-05-28 22:32:32			0	36780	0	0	0	23901	22480	135362	26935	998754	40722	108817	0	0	8236	607636	0	0
2024-05-28 22:33:32			0	36786	0	0	0	23906	22480	135354	27192	998780	40722	108819	0	0	8237	607386	0	0
2024-05-28 22:34:32			0	36811	0	0	0	23896	22490	135410	27007	998797	40712	108815	0	0	8238	606308	0	0
2024-05-28 22:35:32			0	36795	0	0	0	23901	22490	135410	27327	998771	40723	108817	0	0	8237	606976	0	0
2024-05-28 22:36:32			0	36799	0	0	0	23898	22480	135358	27284	998807	40722	108816	0	0	8238	606843	0	0
2024-05-28 22:37:32			0	36785	0	0	0	23893	22480	135318	27483	998772	40710	108814	0	0	8237	607427	0	0
2024-05-28 22:38:32			0	36824	0	0	0	23896	22480	135346	27256	998745	40721	108815	0	0	8239	605800	0	0
2024-05-28 22:39:32			0	36793	0	0	0	23898	22490	135422	27039	998736	40722	108816	0	0	8237	607059	0	0
2024-05-28 22:40:32			0	36802	0	0	0	23896	22490	135310	27329	998762	40733	108815	0	0	8238	606684	0	0
2024-05-28 22:41:32			0	36804	0	0	0	23901	22480	135282	27376	998754	40733	108817	0	0	8238	606634	0	0
2024-05-28 22:42:32			0	36829	0	0	0	23901	22490	135282	27306	998789	40722	108817	0	0	8239	605557	0	0
2024-05-28 22:43:32			0	36824	0	0	0	23890	22470	135282	27060	998737	40720	108813	0	0	8239	605834	0	0
2024-05-28 22:44:32			0	36830	0	0	0	23890	22480	135338	27083	998727	40711	108813	0	0	8239	605549	0	0
2024-05-28 22:45:32			0	36835	0	0	0	23896	22490	135350	27270	998824	40712	108815	0	0	8240	605307	0	0
2024-05-28 22:46:32			0	36801	0	0	0	23896	22480	135270	27015	998780	40722	108815	0	0	8238	606759	0	0
2024-05-28 22:47:32			0	36830	0	0	0	23896	22490	135370	27144	998789	40722	108815	0	0	8239	605516	0	0
2024-05-28 22:48:32			0	36831	0	0	0	23896	22490	135318	27109	998789	40711	108815	0	0	8239	605474	0	0
2024-05-28 22:49:32			0	36834	0	0	0	23896	22480	135214	26916	998754	40711	108815	0	0	8239	605383	0	0
2024-05-28 22:50:32			0	36835	0	0	0	23901	22480	135210	27260	998754	40745	108817	0	0	8239	605341	0	0
2024-05-28 22:51:32			0	36849	0	0	0	23896	22480	135270	27607	998727	40711	108815	0	0	8240	604758	0	0
2024-05-28 22:52:32			0	36845	0	0	0	23896	22480	135266	27000	998700	40722	108815	0	0	8240	604924	0	0
2024-05-28 22:53:32			0	36844	0	0	0	23885	22480	135194	27211	998745	40721	108811	0	0	8240	604966	0	0
2024-05-28 22:54:32			0	36820	0	0	0	23901	22480	135266	27251	998780	40733	108817	0	0	8239	605966	0	0
2024-05-28 22:55:32			0	36821	0	0	0	23890	22480	135230	27246	998799	40710	108813	0	0	8239	605925	0	0
2024-05-28 22:56:32			0	36838	0	0	0	23896	22480	135262	27034	998745	40700	108815	0	0	8240	605216	0	0
2024-05-28 22:57:32			0	36848	0	0	0	23890	22490	135274	27083	998736	40722	108813	0	0	8240	604766	0	0
2024-05-28 22:58:32			0	36845	0	0	0	23893	22480	135226	27135	998780	40722	108814	0	0	8240	604924	0	0
2024-05-28 22:59:32			0	36836	0	0	0	23901	22490	135258	27253	998789	40722	108817	0	0	8239	605266	0	0
2024-05-28 23:00:32			0	36840	0	0	0	23883	22480	135210	26982	998700	40711	108810	0	0	8240	605133	0	0
2024-05-28 23:01:32			0	36840	0	0	0	23885	22480	135234	27300	998754	40711	108811	0	0	8240	605133	0	0
2024-05-28 23:02:32			0	36844	0	0	0	23890	22490	135182	27175	998816	40711	108813	0	0	8240	604932	0	0
2024-05-28 23:03:32			0	36853	0	0	0	23888	22470	135258	27135	998764	40709	108812	0	0	8241	604625	0	0
2024-05-28 23:04:32			0	36845	0	0	0	23883	22490	135286	27041	998816	40733	108810	0	0	8240	604891	0	0
2024-05-28 23:05:32			0	36853	0	0	0	23877	22480	135246	27294	998799	40721	108808	0	0	8241	604591	0	0
2024-05-28 23:06:32			0	36850	0	0	0	23893	22480	135270	27005	998754	40733	108814	0	0	8240	604716	0	0
2024-05-28 23:07:32			0	36851	0	0	0	23890	22480	135254	27282	998727	40711	108813	0	0	8240	604674	0	0
2024-05-28 23:08:32			0	36865	0	0	0	23885	22470	135198	27130	998737	40720	108811	0	0	8241	604125	0	0
2024-05-28 23:09:32			0	36855	0	0	0	23883	22480	135286	27286	998745	40710	108810	0	0	8241	604508	0	0
2024-05-28 23:10:32			0	36859	0	0	0	23888	22480	135250	27123	998799	40721	108812	0	0	8241	604341	0	0
2024-05-28 23:11:32			0	36861	0	0	0	23883	22480	135170	27277	998719	40710	108810	0	0	8241	604258	0	0
2024-05-28 23:12:32			0	36870	0	0	0	23888	22480	135146	27005	998727	40711	108812	0	0	8241	603884	0	0
2024-05-28 23:13:32			0	36860	0	0	0	23877	22480	135210	27027	998799	40721	108808	0	0	8241	604300	0	0
2024-05-28 23:14:32			0	36886	0	0	0	23883	22470	135074	27053	998755	40720	108810	0	0	8242	603252	0	0
2024-05-28 23:15:32			0	36866	0	0	0	23875	22470	135198	26762	998684	40709	108807	0	0	8241	604084	0	0
2024-05-28 23:16:32			0	36885	0	0	0	23883	22480	135138	26974	998745	40721	108810	0	0	8242	603260	0	0
2024-05-28 23:17:32			0	36874	0	0	0	23880	22470	135170	27379	998764	40720	108809	0	0	8242	603751	0	0
2024-05-28 23:18:32			0	36860	0	0	0	23877	22480	135086	27100	998780	40722	108808	0	0	8241	604300	0	0
2024-05-28 23:19:32			0	36886	0	0	0	23885	22470	135070	27312	998710	40732	108811	0	0	8242	603252	0	0
2024-05-28 23:20:32			0	36878	0	0	0	23872	22470	135118	27308	998737	40743	108806	0	0	8242	603585	0	0
2024-05-28 23:21:32			0	36901	0	0	0	23883	22470	134998	27178	998710	40720	108810	0	0	8243	602628	0	0
2024-05-28 23:22:32			0	36886	0	0	0	23883	22480	135106	26731	998799	40721	108810	0	0	8242	603218	0	0
2024-05-28 23:23:32			0	36909	0	0	0	23877	22470	135006	26946	998675	40720	108808	0	0	8244	602296	0	0
2024-05-28 23:24:32			0	36911	0	0	0	23875	22470	134986	27118	998684	40709	108807	0	0	8244	602213	0	0
2024-05-28 23:25:32			0	36913	0	0	0	23877	22470	134966	27156	998710	40709	108808	0	0	8244	602130	0	0
2024-05-28 23:26:32			0	36910	0	0	0	23883	22470	134962	27242	998710	40720	108810	0	0	8244	602254	0	0
2024-05-28 23:27:32			0	36918	0	0	0	23880	22470	134898	26852	998675	40720	108809	0	0	8244	601922	0	0
2024-05-28 23:28:32			0	36955	0	0	0	23877	22460	134922	27066	998720	40709	108808	0	0	8246	600421	0	0
2024-05-28 23:29:32			0	36941	0	0	0	23877	22470	134818	26932	998702	40732	108808	0	0	8245	600968	0	0
2024-05-28 23:30:32			0	36959	0	0	0	23875	22460	134878	27105	998693	40709	108807	0	0	8246	600255	0	0
2024-05-28 23:31:32			0	36954	0	0	0	23870	22470	134814	27431	998675	40720	108805	0	0	8246	600429	0	0
2024-05-28 23:32:32			0	36970	0	0	0	23872	22470	134774	26998	998728	40709	108806	0	0	8247	599766	0	0
2024-05-28 23:33:32			0	36985	0	0	0	23872	22470	134830	27156	998728	40720	108806	0	0	8248	599145	0	0
2024-05-28 23:34:32			0	36985	0	0	0	23875	22460	134726	27121	998720	40699	108807	0	0	8248	599178	0	0
2024-05-28 23:35:32			0	37000	0	0	0	23877	22460	134726	27493	998667	40732	108808	0	0	8248	598557	0	0
2024-05-28 23:36:32			0	37010	0	0	0	23870	22470	134658	27126	998684	40709	108805	0	0	8249	598111	0	0
2024-05-28 23:37:32			0	37028	0	0	0	23877	22470	134650	27367	998657	40720	108808	0	0	8250	597367	0	0
2024-05-28 23:38:32			0	37009	0	0	0	23875	22480	134586	26989	998745	40721	108807	0	0	8249	598118	0	0
2024-05-28 23:39:32			0	37024	0	0	0	23872	22470	134614	27488	998657	40720	108806	0	0	8250	597532	0	0
2024-05-28 23:40:32			0	37054	0	0	0	23875	22480	134578	27436	998772	40710	108807	0	0	8251	596260	0	0
2024-05-28 23:41:32			0	37049	0	0	0	23877	22480	134538	27279	998692	40710	108808	0	0	8251	596466	0	0
2024-05-28 23:42:32			0	37055	0	0	0	23880	22460	134594	27228	998667	40709	108809	0	0	8251	596285	0	0
2024-05-28 23:43:32			0	37068	0	0	0	23877	22470	134514	27033	998737	40720	108808	0	0	8252	595716	0	0
2024-05-28 23:44:32			0	37085	0	0	0	23880	22470	134458	27222	998710	40720	108809	0	0	8253	595015	0	0
2024-05-28 23:45:32			0	37101	0	0	0	23880	22470	134402	27147	998675	40720	108809	0	0	8254	594356	0	0
2024-05-28 23:46:32			0	37091	0	0	0	23880	22470	134346	27265	998702	40709	108809	0	0	8253	594768	0	0
2024-05-28 23:47:32			0	37127	0	0	0	23875	22470	134270	27303	998702	40720	108807	0	0	8255	593286	0	0
2024-05-28 23:48:32			0	37132	0	0	0	23880	22470	134234	26951	998710	40732	108809	0	0	8255	593081	0	0
2024-05-28 23:49:32			0	37155	0	0	0	23877	22470	134286	27317	998710	40709	108808	0	0	8257	592136	0	0
2024-05-28 23:50:32			0	37175	0	0	0	23877	22470	134186	27135	998782	40709	108808	0	0	8258	591315	0	0
2024-05-28 23:51:32			0	37169	0	0	0	23877	22480	134226	26750	998745	40721	108808	0	0	8257	591528	0	0
2024-05-28 23:52:32			0	37167	0	0	0	23875	22470	134262	26831	998648	40720	108807	0	0	8257	591643	0	0
2024-05-28 23:53:32			0	37204	0	0	0	23875	22470	134038	26887	998675	40720	108807	0	0	8259	590126	0	0
2024-05-28 23:54:32			0	37226	0	0	0	23880	22470	133994	27079	998728	40709	108809	0	0	8260	589225	0	0
2024-05-28 23:55:32			0	37230	0	0	0	23872	22460	133874	26847	998720	40743	108806	0	0	8260	589094	0	0
2024-05-28 23:56:32			0	37227	0	0	0	23867	22470	133942	27003	998604	40709	108804	0	0	8260	589184	0	0
2024-05-28 23:57:32			0	37229	0	0	0	23867	22460	133954	26861	998667	40709	108804	0	0	8261	589135	0	0
2024-05-28 23:58:32			0	37267	0	0	0	23862	22470	133906	27355	998728	40720	108802	0	0	8263	587548	0	0
2024-05-28 23:59:32			0	37263	0	0	0	23872	22470	133730	27197	998790	40720	108806	0	0	8262	587711	0	0
2024-05-29 00:00:32			0	37304	0	0	0	23862	22460	133770	27372	998632	40731	108802	0	0	8265	586070	0	0
2024-05-29 00:01:32			0	37299	0	0	0	23862	22460	133694	27492	998685	40708	108802	0	0	8264	586274	0	0
2024-05-29 00:02:32			0	37319	0	0	0	23859	22460	133651	27204	998712	40708	108801	0	0	8265	585459	0	0
2024-05-29 00:03:32			0	37331	0	0	0	23862	22460	133619	27308	998605	40720	108802	0	0	8266	584970	0	0
2024-05-29 00:04:32			0	37334	0	0	0	23862	22460	133591	27287	998640	40732	108802	0	0	8266	584847	0	0
2024-05-29 00:05:32			0	37353	0	0	0	23862	22470	133519	26894	998648	40720	108802	0	0	8267	584041	0	0
2024-05-29 00:06:32			0	37372	0	0	0	23851	22460	133431	26887	998632	40720	108798	0	0	8268	583301	0	0
2024-05-29 00:07:32			0	37349	0	0	0	23854	22460	133435	27256	998552	40708	108799	0	0	8267	584237	0	0
2024-05-29 00:08:32			0	37369	0	0	0	23833	22450	133447	27147	998543	40708	108791	0	0	8268	583456	0	0
2024-05-29 00:09:32			0	37405	0	0	0	23805	22450	133375	27149	998508	40708	108780	0	0	8271	581993	0	0
2024-05-29 00:10:32			0	37430	0	0	0	23784	22440	133271	27116	998411	40707	108772	0	0	8272	581010	0	0
2024-05-29 00:11:32			0	37451	0	0	0	23766	22420	133303	27102	998332	40706	108765	0	0	8274	580224	0	0
2024-05-29 00:12:32			0	37473	0	0	0	23748	22400	133119	27095	998272	40714	108758	0	0	8275	579398	0	0
2024-05-29 00:13:32			0	37525	0	0	0	23722	22400	132959	26946	998210	40714	108748	0	0	8278	577295	0	0
2024-05-29 00:14:32			0	37550	0	0	0	23719	22380	132803	26589	998211	40712	108747	0	0	8279	576350	0	0
2024-05-29 00:15:32			0	37614	0	0	0	23714	22380	132499	26970	998176	40701	108745	0	0	8283	573771	0	0
2024-05-29 00:16:32			0	37687	0	0	0	23711	22370	132383	26729	998115	40701	108744	0	0	8287	570871	0	0
2024-05-29 00:17:32			0	37738	0	0	0	23706	22370	132171	27230	998159	40700	108742	0	0	8289	568828	0	0
2024-05-29 00:18:32			0	37765	0	0	0	23703	22360	131963	27001	998089	40688	108741	0	0	8291	567780	0	0
2024-05-29 00:19:32			0	37835	0	0	0	23696	22340	131827	27287	998056	40698	108738	0	0	8295	565050	0	0
2024-05-29 00:20:32			0	37866	0	0	0	23696	22340	131667	26974	998064	40699	108738	0	0	8296	563815	0	0
2024-05-29 00:21:32			0	37927	0	0	0	23703	22340	131503	27351	998117	40709	108741	0	0	8299	561391	0	0
2024-05-29 00:22:32			0	37951	0	0	0	23698	22340	131491	27142	998064	40687	108739	0	0	8301	560440	0	0
2024-05-29 00:23:32			0	37990	0	0	0	23714	22340	131427	27213	998082	40686	108745	0	0	8302	558895	0	0
2024-05-29 00:24:32			0	38010	0	0	0	23703	22330	131343	27367	998039	40708	108741	0	0	8303	558135	0	0
2024-05-29 00:25:32			0	38027	0	0	0	23703	22320	131287	27121	998003	40697	108741	0	0	8304	557494	0	0
2024-05-29 00:26:32			0	38033	0	0	0	23698	22330	131287	27187	998012	40697	108739	0	0	8305	557226	0	0
2024-05-29 00:27:32			0	38017	0	0	0	23698	22320	131243	27121	998003	40708	108739	0	0	8304	557890	0	0
2024-05-29 00:28:32			0	38016	0	0	0	23693	22310	131287	26974	997960	40717	108737	0	0	8304	557960	0	0
2024-05-29 00:29:32			0	38016	0	0	0	23698	22310	131287	27170	997951	40695	108739	0	0	8304	557960	0	0
2024-05-29 00:30:32			0	38021	0	0	0	23672	22310	131319	27249	997906	40695	108729	0	0	8304	557763	0	0
2024-05-29 00:31:32			0	37995	0	0	0	23659	22310	131363	26967	997845	40695	108724	0	0	8303	558791	0	0
2024-05-29 00:32:32			0	37959	0	0	0	23623	22300	131511	27147	997783	40706	108710	0	0	8302	560248	0	0
2024-05-29 00:33:32			0	37889	0	0	0	23599	22280	131587	27232	997784	40682	108701	0	0	8299	563089	0	0
2024-05-29 00:34:32			0	37845	0	0	0	23566	22280	131871	26871	997723	40681	108688	0	0	8297	564840	0	0
2024-05-29 00:35:32			0	37705	0	0	0	23535	22270	132271	27265	997661	40692	108676	0	0	8290	570468	0	0
2024-05-29 00:36:32			0	37605	0	0	0	23506	22250	132667	27313	997574	40668	108665	0	0	8285	574550	0	0
2024-05-29 00:37:32			0	37458	0	0	0	23496	22250	133203	27351	997547	40668	108661	0	0	8278	580491	0	0
2024-05-29 00:38:32			0	37303	0	0	0	23475	22240	133630	27131	997530	40666	108653	0	0	8270	586832	0	0
2024-05-29 00:39:32			0	37128	0	0	0	23470	22240	134306	27358	997495	40656	108651	0	0	8261	594008	0	0
2024-05-29 00:40:32			0	36941	0	0	0	23483	22230	135062	27194	997478	40688	108656	0	0	8251	601774	0	0
2024-05-29 00:41:32			0	36734	0	0	0	23477	22230	135662	27319	997513	40678	108654	0	0	8240	610412	0	0
2024-05-29 00:42:32			0	36573	0	0	0	23496	22220	136265	27066	997470	40676	108661	0	0	8231	617224	0	0
2024-05-29 00:43:32			0	36430	0	0	0	23506	22220	136813	27104	997488	40666	108665	0	0	8224	623287	0	0
2024-05-29 00:44:32			0	36291	0	0	0	23511	22220	137249	27244	997515	40666	108667	0	0	8216	629219	0	0
2024-05-29 00:45:32			0	36190	0	0	0	23527	22210	137777	27166	997533	40666	108673	0	0	8210	633590	0	0
2024-05-29 00:46:32			0	36091	0	0	0	23535	22220	138057	27220	997461	40676	108676	0	0	8205	637824	0	0
2024-05-29 00:47:32			0	36009	0	0	0	23524	22220	138433	27428	997461	40676	108672	0	0	8201	641376	0	0
2024-05-29 00:48:32			0	35934	0	0	0	23511	22210	138713	27229	997365	40665	108667	0	0	8197	644674	0	0
2024-05-29 00:49:32			0	35891	0	0	0	23464	22200	138917	27159	997330	40674	108649	0	0	8196	646585	0	0
2024-05-29 00:50:32			0	35818	0	0	0	23407	22180	139132	27364	997180	40661	108627	0	0	8192	649850	0	0
2024-05-29 00:51:32			0	35755	0	0	0	23353	22170	139464	27156	997004	40650	108606	0	0	8190	652650	0	0
2024-05-29 00:52:32			0	35659	0	0	0	23288	22150	139700	27043	996863	40670	108581	0	0	8186	656953	0	0
2024-05-29 00:53:32			0	35600	0	0	0	23264	22130	140012	27275	996883	40635	108572	0	0	8183	659636	0	0
2024-05-29 00:54:32			0	35525	0	0	0	23280	22110	140360	27239	996823	40644	108578	0	0	8179	663038	0	0
2024-05-29 00:55:32			0	35453	0	0	0	23309	22110	140528	27258	996849	40644	108589	0	0	8174	666244	0	0
2024-05-29 00:56:32			0	35372	0	0	0	23306	22090	140832	27332	996789	40653	108588	0	0	8170	669940	0	0
2024-05-29 00:57:32			0	35302	0	0	0	23309	22090	141112	27405	996789	40642	108589	0	0	8166	673082	0	0
2024-05-29 00:58:32			0	35260	0	0	0	23316	22080	141376	27093	996772	40664	108592	0	0	8163	675009	0	0
2024-05-29 00:59:32			0	35192	0	0	0	23306	22080	141620	26953	996745	40641	108588	0	0	8160	678078	0	0
2024-05-29 01:00:32			0	35148	0	0	0	23264	22070	141780	27078	996675	40640	108572	0	0	8158	680107	0	0
2024-05-29 01:01:32			0	35104	0	0	0	23199	22050	141947	27157	996454	40626	108547	0	0	8157	682178	0	0
2024-05-29 01:02:32			0	35066	0	0	0	23129	22030	142123	27203	996296	40604	108520	0	0	8156	683982	0	0
2024-05-29 01:03:32			0	35033	0	0	0	23044	21990	142223	27043	996016	40612	108487	0	0	8155	685637	0	0
2024-05-29 01:04:32			0	34980	0	0	0	22968	21960	142475	27319	995885	40597	108458	0	0	8153	688171	0	0
2024-05-29 01:05:32			0	34957	0	0	0	22877	21910	142671	27152	995489	40583	108423	0	0	8154	689415	0	0
2024-05-29 01:06:32			0	34893	0	0	0	22825	21880	142847	27274	995439	40580	108403	0	0	8151	692466	0	0
2024-05-29 01:07:32			0	34831	0	0	0	22802	21840	143055	27197	995265	40576	108394	0	0	8148	695473	0	0
2024-05-29 01:08:32			0	34776	0	0	0	22805	21820	143291	27107	995258	40574	108395	0	0	8144	698089	0	0
2024-05-29 01:09:32			0	34722	0	0	0	22825	21800	143587	27090	995348	40571	108403	0	0	8141	700666	0	0
2024-05-29 01:10:32			0	34656	0	0	0	22870	21800	143855	26970	995428	40593	108420	0	0	8137	703730	0	0
2024-05-29 01:11:32			0	34602	0	0	0	22935	21800	144063	27313	995535	40604	108445	0	0	8132	706244	0	0
2024-05-29 01:12:32			0	34568	0	0	0	23033	21800	144259	27253	995783	40616	108483	0	0	8129	707831	0	0
2024-05-29 01:13:32			0	34539	0	0	0	23124	21830	144399	27121	995887	40608	108518	0	0	8126	709068	0	0
2024-05-29 01:14:32			0	34497	0	0	0	23194	21850	144535	27071	996072	40621	108545	0	0	8122	710955	0	0
2024-05-29 01:15:32			0	34479	0	0	0	23238	21860	144683	27242	996142	40622	108562	0	0	8121	711760	0	0
2024-05-29 01:16:32			0	34464	0	0	0	23259	21880	144679	27294	996211	40624	108570	0	0	8120	712384	0	0
2024-05-29 01:17:32			0	34455	0	0	0	23272	21890	144763	27225	996201	40624	108575	0	0	8119	712767	0	0
2024-05-29 01:18:32			0	34441	0	0	0	23259	21900	144827	27410	996263	40614	108570	0	0	8118	713385	0	0
2024-05-29 01:19:32			0	34453	0	0	0	23246	21910	144799	27265	996208	40616	108565	0	0	8119	712781	0	0
2024-05-29 01:20:32			0	34440	0	0	0	23244	21920	144719	27334	996278	40627	108564	0	0	8119	713352	0	0
2024-05-29 01:21:32			0	34434	0	0	0	23272	21920	144839	27279	996358	40649	108575	0	0	8118	713634	0	0
2024-05-29 01:22:32			0	34416	0	0	0	23277	21940	144823	27270	996357	40628	108577	0	0	8117	714401	0	0
2024-05-29 01:23:32			0	34420	0	0	0	23296	21940	144951	27336	996445	40629	108584	0	0	8117	714213	0	0
2024-05-29 01:24:32			0	34419	0	0	0	23288	21950	144955	27376	996383	40629	108581	0	0	8117	714220	0	0
2024-05-29 01:25:32			0	34420	0	0	0	23262	21950	144847	27360	996347	40629	108571	0	0	8117	714173	0	0
2024-05-29 01:26:32			0	34395	0	0	0	23259	21950	144919	27066	996320	40629	108570	0	0	8116	715349	0	0
2024-05-29 01:27:32			0	34428	0	0	0	23244	21940	144863	27417	996339	40640	108564	0	0	8118	713836	0	0
2024-05-29 01:28:32			0	34396	0	0	0	23259	21950	144923	27239	996409	40641	108570	0	0	8116	715302	0	0
2024-05-29 01:29:32			0	34414	0	0	0	23272	21960	144919	27185	996444	40629	108575	0	0	8117	714415	0	0
2024-05-29 01:30:32			0	34411	0	0	0	23285	21970	144843	26916	996488	40621	108580	0	0	8117	714516	0	0
2024-05-29 01:31:32			0	34401	0	0	0	23290	21960	144855	27008	996479	40630	108582	0	0	8116	715027	0	0
2024-05-29 01:32:32			0	34419	0	0	0	23285	21960	144819	26828	996453	40630	108580	0	0	8117	714180	0	0
2024-05-29 01:33:32			0	34408	0	0	0	23272	21970	144883	27296	996408	40621	108575	0	0	8117	714658	0	0
2024-05-29 01:34:32			0	34424	0	0	0	23249	21950	144815	27213	996356	40629	108566	0	0	8118	713985	0	0
2024-05-29 01:35:32			0	34441	0	0	0	23246	21950	144683	27225	996320	40629	108565	0	0	8119	713186	0	0
2024-05-29 01:36:32			0	34437	0	0	0	23244	21950	144687	26949	996320	40641	108564	0	0	8119	713374	0	0
2024-05-29 01:37:32			0	34454	0	0	0	23246	21940	144659	27272	996250	40628	108565	0	0	8120	712615	0	0
2024-05-29 01:38:32			0	34469	0	0	0	23238	21940	144615	27005	996224	40617	108562	0	0	8121	711911	0	0
2024-05-29 01:39:32			0	34479	0	0	0	23251	21950	144603	27057	996320	40629	108567	0	0	8121	711403	0	0
2024-05-29 01:40:32			0	34500	0	0	0	23272	21950	144571	27062	996347	40641	108575	0	0	8122	710419	0	0
2024-05-29 01:41:32			0	34515	0	0	0	23267	21960	144439	27305	996391	40629	108573	0	0	8123	709677	0	0
2024-05-29 01:42:32			0	34537	0	0	0	23244	21960	144387	27353	996284	40629	108564	0	0	8124	708648	0	0
2024-05-29 01:43:32			0	34552	0	0	0	23194	21950	144299	27267	996108	40619	108545	0	0	8126	707987	0	0
2024-05-29 01:44:32			0	34560	0	0	0	23114	21920	144219	26762	995852	40594	108514	0	0	8128	707731	0	0
2024-05-29 01:45:32			0	34580	0	0	0	23007	21900	144035	27161	995544	40570	108473	0	0	8130	706877	0	0
2024-05-29 01:46:32			0	34603	0	0	0	22922	21850	144051	27121	995273	40565	108440	0	0	8133	706001	0	0
2024-05-29 01:47:32			0	34621	0	0	0	22857	21790	144011	26887	994941	40539	108415	0	0	8135	705398	0	0
2024-05-29 01:48:32			0	34628	0	0	0	22802	21730	144035	26844	994813	40543	108394	0	0	8136	705308	0	0
2024-05-29 01:49:32			0	34648	0	0	0	22755	21710	144023	26939	994611	40541	108376	0	0	8138	704455	0	0
2024-05-29 01:50:32			0	34673	0	0	0	22711	21660	143919	27176	994517	40537	108359	0	0	8140	703488	0	0
2024-05-29 01:51:32			0	34739	0	0	0	22672	21620	143639	27104	994423	40544	108344	0	0	8144	700580	0	0
2024-05-29 01:52:32			0	34797	0	0	0	22612	21590	143459	27034	994160	40531	108321	0	0	8148	698011	0	0
2024-05-29 01:53:32			0	34879	0	0	0	22548	21560	143211	26996	993949	40517	108296	0	0	8153	694345	0	0
2024-05-29 01:54:32			0	34941	0	0	0	22503	21510	142903	26797	993830	40512	108279	0	0	8157	691686	0	0
2024-05-29 01:55:32			0	35017	0	0	0	22472	21470	142679	26863	993603	40519	108267	0	0	8162	688357	0	0
2024-05-29 01:56:32			0	35048	0	0	0	22441	21420	142499	27265	993359	40504	108255	0	0	8164	687130	0	0
2024-05-29 01:57:32			0	35119	0	0	0	22410	21370	142348	27206	993238	40489	108243	0	0	8168	684082	0	0
2024-05-29 01:58:32			0	35121	0	0	0	22386	21350	142220	27050	993090	40509	108234	0	0	8168	684067	0	0
2024-05-29 01:59:32			0	35158	0	0	0	22376	21310	142096	27114	993004	40505	108230	0	0	8170	682535	0	0
2024-05-29 02:00:32			0	35172	0	0	0	22381	21290	142164	26906	992962	40493	108232	0	0	8171	681974	0	0
2024-05-29 02:01:32			0	35172	0	0	0	22394	21270	142124	27090	992955	40501	108237	0	0	8171	682050	0	0
2024-05-29 02:02:32			0	35166	0	0	0	22405	21240	142212	27064	992931	40510	108241	0	0	8170	682436	0	0
2024-05-29 02:03:32			0	35152	0	0	0	22410	21230	142320	27173	992922	40509	108243	0	0	8169	683111	0	0
2024-05-29 02:04:32			0	35119	0	0	0	22402	21220	142396	26968	992844	40530	108240	0	0	8167	684652	0	0
2024-05-29 02:05:32			0	35081	0	0	0	22412	21210	142559	27282	992889	40507	108244	0	0	8165	686424	0	0
2024-05-29 02:06:32			0	35032	0	0	0	22407	21200	142851	27029	992845	40517	108242	0	0	8162	688703	0	0
2024-05-29 02:07:32			0	34967	0	0	0	22418	21190	143087	26875	992855	40528	108246	0	0	8159	691722	0	0
2024-05-29 02:08:32			0	34894	0	0	0	22410	21190	143355	27185	992767	40516	108243	0	0	8155	695082	0	0
2024-05-29 02:09:32			0	34828	0	0	0	22386	21180	143727	27211	992670	40504	108234	0	0	8151	698168	0	0
2024-05-29 02:10:32			0	34725	0	0	0	22368	21160	144055	27119	992645	40503	108227	0	0	8146	703023	0	0
2024-05-29 02:11:32			0	34672	0	0	0	22324	21150	144399	27441	992566	40491	108210	0	0	8144	705531	0	0
2024-05-29 02:12:32			0	34576	0	0	0	22316	21140	144671	27078	992611	40512	108207	0	0	8138	710058	0	0
2024-05-29 02:13:32			0	34492	0	0	0	22332	21140	145079	27019	992683	40511	108213	0	0	8133	714002	0	0
2024-05-29 02:14:32			0	34426	0	0	0	22350	21130	145427	27391	992674	40510	108220	0	0	8129	717154	0	0
2024-05-29 02:15:32			0	34339	0	0	0	22384	21150	145766	27346	992886	40535	108233	0	0	8124	721191	0	0
2024-05-29 02:16:32			0	34269	0	0	0	22446	21160	146030	27131	993115	40524	108257	0	0	8119	724477	0	0
2024-05-29 02:17:32			0	34193	0	0	0	22522	21190	146390	27007	993254	40539	108286	0	0	8114	727980	0	0
2024-05-29 02:18:32			0	34144	0	0	0	22589	21230	146622	27289	993454	40553	108312	0	0	8110	730161	0	0
2024-05-29 02:19:32			0	34084	0	0	0	22625	21250	146850	27390	993568	40555	108326	0	0	8106	732957	0	0
2024-05-29 02:20:32			0	34059	0	0	0	22625	21270	147050	27239	993575	40545	108326	0	0	8105	734077	0	0
2024-05-29 02:21:32			0	33996	0	0	0	22602	21290	147154	27104	993574	40547	108317	0	0	8102	737030	0	0
2024-05-29 02:22:32			0	33959	0	0	0	22586	21300	147254	27152	993591	40548	108311	0	0	8100	738775	0	0
2024-05-29 02:23:32			0	33923	0	0	0	22610	21310	147422	27353	993696	40538	108320	0	0	8097	740475	0	0
2024-05-29 02:24:32			0	33891	0	0	0	22641	21320	147630	27104	993846	40550	108332	0	0	8095	741984	0	0
2024-05-29 02:25:32			0	33871	0	0	0	22719	21340	147630	27254	993959	40552	108362	0	0	8093	742872	0	0
2024-05-29 02:26:32			0	33836	0	0	0	22768	21360	147842	27208	994073	40554	108381	0	0	8090	744490	0	0
2024-05-29 02:27:32			0	33791	0	0	0	22792	21380	147830	27036	994160	40567	108390	0	0	8087	746597	0	0
2024-05-29 02:28:32			0	33779	0	0	0	22812	21400	147982	27225	994211	40568	108398	0	0	8086	747099	0	0
2024-05-29 02:29:32			0	33754	0	0	0	22828	21430	148022	27234	994289	40560	108404	0	0	8085	748194	0	0
2024-05-29 02:30:32			0	33753	0	0	0	22828	21440	148074	27566	994270	40550	108404	0	0	8085	748201	0	0
2024-05-29 02:31:32			0	33752	0	0	0	22812	21440	148014	27066	994226	40561	108398	0	0	8085	748250	0	0
2024-05-29 02:32:32			0	33743	0	0	0	22792	21460	148090	27166	994251	40563	108390	0	0	8085	748606	0	0
2024-05-29 02:33:32			0	33743	0	0	0	22786	21470	148070	27000	994215	40563	108388	0	0	8085	748564	0	0
2024-05-29 02:34:32			0	33754	0	0	0	22792	21460	148026	27138	994286	40552	108390	0	0	8085	748069	0	0
2024-05-29 02:35:32			0	33746	0	0	0	22786	21460	148002	27203	994225	40563	108388	0	0	8085	748460	0	0
2024-05-29 02:36:32			0	33762	0	0	0	22768	21460	147978	27000	994206	40552	108381	0	0	8086	747679	0	0
2024-05-29 02:37:32			0	33738	0	0	0	22750	21440	147974	27034	994146	40561	108374	0	0	8085	748934	0	0
2024-05-29 02:38:32			0	33760	0	0	0	22750	21460	147874	27013	994206	40552	108374	0	0	8086	747776	0	0
2024-05-29 02:39:32			0	33770	0	0	0	22740	21440	147778	26859	994172	40540	108370	0	0	8087	747372	0	0
2024-05-29 02:40:32			0	33759	0	0	0	22750	21440	147846	27204	994172	40561	108374	0	0	8086	747908	0	0
2024-05-29 02:41:32			0	33795	0	0	0	22763	21450	147798	26975	994154	40550	108379	0	0	8088	746112	0	0
2024-05-29 02:42:32			0	33795	0	0	0	22774	21450	147730	27118	994181	40561	108383	0	0	8088	746112	0	0
2024-05-29 02:43:32			0	33837	0	0	0	22786	21460	147622	27170	994233	40552	108388	0	0	8090	744027	0	0
2024-05-29 02:44:32			0	33868	0	0	0	22784	21460	147538	27118	994251	40552	108387	0	0	8092	742523	0	0
2024-05-29 02:45:32			0	33892	0	0	0	22799	21460	147270	27053	994206	40563	108393	0	0	8093	741359	0	0
2024-05-29 02:46:32			0	33952	0	0	0	22789	21460	147194	27133	994198	40552	108389	0	0	8097	738457	0	0
2024-05-29 02:47:32			0	33992	0	0	0	22758	21460	146962	27291	994180	40574	108377	0	0	8100	736527	0	0
2024-05-29 02:48:32			0	34076	0	0	0	22716	21460	146730	27317	994092	40541	108361	0	0	8105	732487	0	0
2024-05-29 02:49:32			0	34110	0	0	0	22667	21440	146426	27322	993951	40540	108342	0	0	8108	730938	0	0
2024-05-29 02:50:32			0	34181	0	0	0	22623	21420	146102	27182	993846	40538	108325	0	0	8112	727623	0	0
2024-05-29 02:51:32			0	34245	0	0	0	22620	21420	145910	27398	993864	40548	108324	0	0	8116	724573	0	0
2024-05-29 02:52:32			0	34293	0	0	0	22646	21400	145778	27270	993874	40546	108334	0	0	8118	722372	0	0
2024-05-29 02:53:32			0	34345	0	0	0	22651	21390	145494	27312	993884	40535	108336	0	0	8121	719946	0	0
2024-05-29 02:54:32			0	34400	0	0	0	22680	21400	145275	27390	993919	40545	108347	0	0	8124	717306	0	0
2024-05-29 02:55:32			0	34478	0	0	0	22680	21400	145031	27053	993892	40535	108347	0	0	8128	713631	0	0
2024-05-29 02:56:32			0	34516	0	0	0	22677	21400	144767	27275	993892	40545	108346	0	0	8130	711845	0	0
2024-05-29 02:57:32			0	34580	0	0	0	22664	21390	144591	27209	993857	40545	108341	0	0	8134	708885	0	0
2024-05-29 02:58:32			0	34657	0	0	0	22657	21390	144303	27078	993822	40535	108338	0	0	8138	705290	0	0
2024-05-29 02:59:32			0	34692	0	0	0	22667	21380	144151	27322	993859	40533	108342	0	0	8140	703699	0	0
2024-05-29 03:00:32			0	34744	0	0	0	22675	21380	143967	27322	993805	40533	108345	0	0	8143	701283	0	0
2024-05-29 03:01:32			0	34797	0	0	0	22688	21370	143679	27493	993770	40555	108350	0	0	8145	698866	0	0
2024-05-29 03:02:32			0	34883	0	0	0	22672	21360	143419	27154	993700	40543	108344	0	0	8150	694933	0	0
2024-05-29 03:03:32			0	34940	0	0	0	22644	21360	143163	27114	993665	40520	108333	0	0	8154	692309	0	0
2024-05-29 03:04:32			0	34995	0	0	0	22610	21340	142899	27189	993534	40541	108320	0	0	8158	689862	0	0
2024-05-29 03:05:32			0	35029	0	0	0	22561	21330	142811	27107	993384	40530	108301	0	0	8160	688343	0	0
2024-05-29 03:06:32			0	35100	0	0	0	22522	21300	142527	27345	993253	40516	108286	0	0	8165	685214	0	0
2024-05-29 03:07:32			0	35125	0	0	0	22480	21280	142496	27261	993105	40525	108270	0	0	8167	684151	0	0
2024-05-29 03:08:32			0	35164	0	0	0	22451	21260	142380	27248	992991	40500	108259	0	0	8169	682451	0	0
2024-05-29 03:09:32			0	35181	0	0	0	22441	21240	142280	27227	992913	40510	108255	0	0	8170	681754	0	0
2024-05-29 03:10:32			0	35201	0	0	0	22412	21220	142188	27066	992818	40518	108244	0	0	8172	680922	0	0
2024-05-29 03:11:32			0	35193	0	0	0	22386	21200	142220	27395	992712	40496	108234	0	0	8172	681361	0	0
2024-05-29 03:12:32			0	35207	0	0	0	22371	21180	142084	27398	992590	40504	108228	0	0	8172	680801	0	0
2024-05-29 03:13:32			0	35220	0	0	0	22350	21160	142140	27556	992645	40514	108220	0	0	8173	680286	0	0
2024-05-29 03:14:32			0	35211	0	0	0	22327	21140	142104	27163	992452	40479	108211	0	0	8173	680770	0	0
2024-05-29 03:15:32			0	35233	0	0	0	22306	21110	142088	27258	992357	40488	108203	0	0	8175	679885	0	0
2024-05-29 03:16:32			0	35224	0	0	0	22290	21090	142124	27260	992243	40497	108197	0	0	8174	680369	0	0
2024-05-29 03:17:32			0	35228	0	0	0	22254	21070	142168	27052	992094	40484	108183	0	0	8175	680263	0	0
2024-05-29 03:18:32			0	35235	0	0	0	22220	21030	142136	27022	991921	40469	108170	0	0	8176	680096	0	0
2024-05-29 03:19:32			0	35246	0	0	0	22194	21010	142052	27208	991808	40467	108160	0	0	8177	679673	0	0
2024-05-29 03:20:32			0	35267	0	0	0	22166	20980	142104	27260	991571	40464	108149	0	0	8178	678834	0	0
2024-05-29 03:21:32			0	35296	0	0	0	22124	20940	141996	27114	991459	40472	108133	0	0	8180	677671	0	0
2024-05-29 03:22:32			0	35310	0	0	0	22101	20920	141896	27107	991372	40470	108124	0	0	8181	677112	0	0
2024-05-29 03:23:32			0	35325	0	0	0	22088	20890	141836	27163	991295	40467	108119	0	0	8182	676547	0	0
2024-05-29 03:24:32			0	35374	0	0	0	22067	20870	141624	27251	991253	40454	108111	0	0	8185	674409	0	0
2024-05-29 03:25:32			0	35428	0	0	0	22075	20860	141468	27222	991183	40454	108114	0	0	8188	672014	0	0
2024-05-29 03:26:32			0	35468	0	0	0	22070	20820	141392	27320	991159	40483	108112	0	0	8190	670365	0	0
2024-05-29 03:27:32			0	35507	0	0	0	22064	20830	141256	27166	991194	40473	108110	0	0	8192	668578	0	0
2024-05-29 03:28:32			0	35544	0	0	0	22080	20810	141012	27209	991134	40482	108116	0	0	8194	666996	0	0
2024-05-29 03:29:32			0	35586	0	0	0	22080	20800	140932	27208	991117	40480	108116	0	0	8196	665155	0	0
2024-05-29 03:30:32			0	35639	0	0	0	22085	20790	140784	27293	991135	40480	108118	0	0	8199	662828	0	0
2024-05-29 03:31:32			0	35648	0	0	0	22085	20790	140688	27098	991127	40480	108118	0	0	8200	662428	0	0
2024-05-29 03:32:32			0	35675	0	0	0	22088	20780	140532	27320	991136	40479	108119	0	0	8201	661263	0	0
2024-05-29 03:33:32			0	35721	0	0	0	22090	20780	140452	27112	991110	40479	108120	0	0	8203	659220	0	0
2024-05-29 03:34:32			0	35757	0	0	0	22103	20770	140372	27209	991101	40479	108125	0	0	8205	657661	0	0
2024-05-29 03:35:32			0	35788	0	0	0	22116	20770	140248	27097	991128	40500	108130	0	0	8206	656289	0	0
2024-05-29 03:36:32			0	35806	0	0	0	22116	20770	140136	27019	991120	40490	108130	0	0	8207	655493	0	0
2024-05-29 03:37:32			0	35819	0	0	0	22106	20770	140128	27149	991120	40490	108126	0	0	8208	654919	0	0
2024-05-29 03:38:32			0	35834	0	0	0	22111	20770	140056	27289	991128	40490	108128	0	0	8209	654257	0	0
2024-05-29 03:39:32			0	35847	0	0	0	22116	20770	139972	27131	991120	40479	108130	0	0	8210	653683	0	0
2024-05-29 03:40:32			0	35873	0	0	0	22122	20760	140005	27150	991111	40489	108132	0	0	8211	652574	0	0
2024-05-29 03:41:32			0	35879	0	0	0	22116	20760	140009	27284	991138	40489	108130	0	0	8211	652310	0	0
2024-05-29 03:42:32			0	35873	0	0	0	22122	20760	139965	27036	991076	40477	108132	0	0	8211	652574	0	0
2024-05-29 03:43:32			0	35895	0	0	0	22122	20750	139981	27183	991086	40476	108132	0	0	8212	651641	0	0
2024-05-29 03:44:32			0	35877	0	0	0	22114	20750	139945	26960	991015	40488	108129	0	0	8211	652434	0	0
2024-05-29 03:45:32			0	35882	0	0	0	22119	20750	139949	27005	991033	40476	108131	0	0	8211	652214	0	0
2024-05-29 03:46:32			0	35868	0	0	0	22111	20750	140001	27388	991006	40487	108128	0	0	8211	652830	0	0
2024-05-29 03:47:32			0	35861	0	0	0	22111	20740	139988	27171	991078	40498	108128	0	0	8210	653175	0	0
2024-05-29 03:48:32			0	35859	0	0	0	22109	20740	139984	26923	991043	40475	108127	0	0	8210	653263	0	0
2024-05-29 03:49:32			0	35844	0	0	0	22106	20730	140108	27149	991061	40498	108126	0	0	8209	653961	0	0
2024-05-29 03:50:32			0	35844	0	0	0	22103	20730	140112	27182	990920	40474	108125	0	0	8210	653961	0	0
2024-05-29 03:51:32			0	35810	0	0	0	22101	20740	140256	27033	990857	40486	108124	0	0	8208	655425	0	0
2024-05-29 03:52:32			0	35817	0	0	0	22101	20720	140252	27069	990991	40474	108124	0	0	8208	655189	0	0
2024-05-29 03:53:32			0	35775	0	0	0	22096	20720	140272	27180	990929	40462	108122	0	0	8206	657046	0	0
2024-05-29 03:54:32			0	35779	0	0	0	22093	20730	140416	27116	991026	40497	108121	0	0	8206	656832	0	0
2024-05-29 03:55:32			0	35739	0	0	0	22103	20730	140436	27157	991034	40475	108125	0	0	8204	658604	0	0
2024-05-29 03:56:32			0	35728	0	0	0	22114	20750	140500	26953	991086	40476	108129	0	0	8203	659019	0	0
2024-05-29 03:57:32			0	35719	0	0	0	22122	20740	140600	26807	991051	40476	108132	0	0	8203	659455	0	0
2024-05-29 03:58:32			0	35697	0	0	0	22114	20730	140636	27303	991052	40485	108129	0	0	8201	660468	0	0
2024-05-29 03:59:32			0	35679	0	0	0	22114	20730	140700	27092	991087	40498	108129	0	0	8200	661268	0	0
2024-05-29 04:00:32			0	35653	0	0	0	22127	20750	140780	27194	991227	40499	108134	0	0	8199	662352	0	0
2024-05-29 04:01:32			0	35620	0	0	0	22132	20760	140880	27052	991191	40489	108136	0	0	8197	663785	0	0
2024-05-29 04:02:32			0	35598	0	0	0	22212	20780	140992	26892	991508	40511	108167	0	0	8195	664693	0	0
2024-05-29 04:03:32			0	35574	0	0	0	22238	20810	141092	27194	991585	40526	108177	0	0	8193	665654	0	0
2024-05-29 04:04:32			0	35556	0	0	0	22259	20830	141152	27197	991672	40517	108185	0	0	8192	666385	0	0
2024-05-29 04:05:32			0	35527	0	0	0	22290	20870	141216	27281	991891	40519	108197	0	0	8190	667535	0	0
2024-05-29 04:06:32			0	35512	0	0	0	22319	20890	141328	27053	992004	40532	108208	0	0	8189	668132	0	0
2024-05-29 04:07:32			0	35496	0	0	0	22345	20920	141316	26932	992055	40513	108218	0	0	8187	668738	0	0
2024-05-29 04:08:32			0	35472	0	0	0	22358	20940	141432	27229	992141	40515	108223	0	0	8186	669740	0	0
2024-05-29 04:09:32			0	35448	0	0	0	22350	20940	141484	27383	992150	40539	108220	0	0	8185	670817	0	0
2024-05-29 04:10:32			0	35427	0	0	0	22350	20950	141504	27069	992052	40505	108220	0	0	8184	671724	0	0
2024-05-29 04:11:32			0	35392	0	0	0	22335	20960	141532	26847	992131	40518	108214	0	0	8182	673262	0	0
2024-05-29 04:12:32			0	35393	0	0	0	22329	20950	141572	27083	992087	40505	108212	0	0	8182	673254	0	0
2024-05-29 04:13:32			0	35401	0	0	0	22319	20970	141640	27371	992059	40519	108208	0	0	8183	672819	0	0
2024-05-29 04:14:32			0	35376	0	0	0	22314	20960	141760	27128	992077	40518	108206	0	0	8182	673983	0	0
2024-05-29 04:15:32			0	35349	0	0	0	22316	20970	141776	27209	992121	40507	108207	0	0	8180	675163	0	0
2024-05-29 04:16:32			0	35341	0	0	0	22324	20990	141704	26986	992146	40509	108210	0	0	8180	675449	0	0
2024-05-29 04:17:32			0	35310	0	0	0	22324	20980	141876	26935	992191	40508	108210	0	0	8178	676887	0	0
2024-05-29 04:18:32			0	35321	0	0	0	22335	20990	141996	27514	992234	40488	108214	0	0	8178	676353	0	0
2024-05-29 04:19:32			0	35294	0	0	0	22332	21000	141940	27196	992278	40500	108213	0	0	8177	677536	0	0
2024-05-29 04:20:32			0	35297	0	0	0	22340	21000	141960	27128	992198	40510	108216	0	0	8177	677400	0	0
2024-05-29 04:21:32			0	35309	0	0	0	22335	21000	142020	27246	992251	40521	108214	0	0	8178	676858	0	0
2024-05-29 04:22:32			0	35283	0	0	0	22345	21000	142132	27171	992304	40510	108218	0	0	8176	678034	0	0
2024-05-29 04:23:32			0	35257	0	0	0	22342	21010	142072	27152	992286	40522	108217	0	0	8175	679174	0	0
2024-05-29 04:24:32			0	35266	0	0	0	22345	21030	142164	27280	992328	40514	108218	0	0	8175	678691	0	0
2024-05-29 04:25:32			0	35248	0	0	0	22363	21040	142128	27300	992443	40525	108225	0	0	8174	679469	0	0
2024-05-29 04:26:32			0	35273	0	0	0	22386	21050	142208	27490	992548	40515	108234	0	0	8175	678298	0	0
2024-05-29 04:27:32			0	35258	0	0	0	22386	21050	142176	26956	992495	40515	108234	0	0	8174	678978	0	0
2024-05-29 04:28:32			0	35232	0	0	0	22389	21060	142156	27249	992556	40494	108235	0	0	8173	680119	0	0
2024-05-29 04:29:32			0	35250	0	0	0	22389	21050	142100	27081	992433	40503	108235	0	0	8174	679340	0	0
2024-05-29 04:30:32			0	35246	0	0	0	22389	21060	142096	27460	992476	40504	108235	0	0	8174	679484	0	0
2024-05-29 04:31:32			0	35252	0	0	0	22386	21050	142108	27516	992539	40526	108234	0	0	8174	679250	0	0
2024-05-29 04:32:32			0	35230	0	0	0	22381	21050	142168	27433	992441	40527	108232	0	0	8173	680247	0	0
2024-05-29 04:33:32			0	35238	0	0	0	22379	21050	142208	27253	992273	40515	108231	0	0	8173	679885	0	0
2024-05-29 04:34:32			0	35239	0	0	0	22358	21040	142128	27353	992345	40502	108223	0	0	8174	679877	0	0
2024-05-29 04:35:32			0	35242	0	0	0	22350	21030	142076	27414	992248	40502	108220	0	0	8174	679779	0	0
2024-05-29 04:36:32			0	35255	0	0	0	22371	21020	142164	27374	992364	40523	108228	0	0	8174	679227	0	0
2024-05-29 04:37:32			0	35256	0	0	0	22415	21050	142196	27062	992539	40547	108245	0	0	8174	679068	0	0
2024-05-29 04:38:32			0	35237	0	0	0	22454	21060	142148	27435	992644	40538	108260	0	0	8172	679892	0	0
2024-05-29 04:39:32			0	35261	0	0	0	22483	21090	142048	27307	992740	40541	108271	0	0	8173	678691	0	0
2024-05-29 04:40:32			0	35277	0	0	0	22516	21100	142052	27270	992863	40552	108284	0	0	8173	677929	0	0
2024-05-29 04:41:32			0	35309	0	0	0	22563	21130	141912	27346	993046	40554	108302	0	0	8175	676370	0	0
2024-05-29 04:42:32			0	35323	0	0	0	22599	21160	141708	27303	993150	40547	108316	0	0	8175	675625	0	0
2024-05-29 04:43:32			0	35392	0	0	0	22620	21170	141588	27386	993193	40537	108324	0	0	8178	672478	0	0
2024-05-29 04:44:32			0	35505	0	0	0	22610	21180	141124	27260	993157	40548	108320	0	0	8185	667372	0	0
2024-05-29 04:45:32			0	35672	0	0	0	22612	21190	140448	27088	993086	40548	108321	0	0	8194	659895	0	0
2024-05-29 04:46:32			0	35882	0	0	0	22594	21180	139657	27325	993104	40538	108314	0	0	8205	650661	0	0
2024-05-29 04:47:32			0	36064	0	0	0	22594	21180	138877	27147	993104	40527	108314	0	0	8215	642702	0	0
2024-05-29 04:48:32			0	36233	0	0	0	22592	21180	138273	27112	993096	40548	108313	0	0	8224	635373	0	0
2024-05-29 04:49:32			0	36344	0	0	0	22592	21190	137881	27384	993174	40539	108313	0	0	8230	630557	0	0
2024-05-29 04:50:32			0	36396	0	0	0	22594	21190	137709	27317	993121	40549	108314	0	0	8233	628326	0	0
2024-05-29 04:51:32			0	36428	0	0	0	22605	21210	137585	27249	993226	40550	108318	0	0	8234	626886	0	0
2024-05-29 04:52:32			0	36433	0	0	0	22631	21210	137625	27208	993306	40550	108328	0	0	8234	626672	0	0
2024-05-29 04:53:32			0	36389	0	0	0	22672	21230	137733	27168	993428	40575	108344	0	0	8231	628486	0	0
2024-05-29 04:54:32			0	36364	0	0	0	22722	21250	137861	27322	993639	40566	108363	0	0	8229	629489	0	0
2024-05-29 04:55:32			0	36314	0	0	0	22763	21290	138005	27144	993848	40602	108379	0	0	8226	631496	0	0
2024-05-29 04:56:32			0	36217	0	0	0	22820	21310	138357	27365	993953	40593	108401	0	0	8220	635606	0	0
2024-05-29 04:57:32			0	36150	0	0	0	22880	21340	138549	27007	994137	40595	108424	0	0	8215	638398	0	0
2024-05-29 04:58:32			0	36077	0	0	0	22932	21380	138825	27260	994284	40588	108444	0	0	8211	641423	0	0
2024-05-29 04:59:32			0	36028	0	0	0	22961	21400	139133	27154	994398	40589	108455	0	0	8208	643484	0	0
2024-05-29 05:00:32			0	35968	0	0	0	22974	21430	139185	26852	994422	40615	108460	0	0	8205	645994	0	0
2024-05-29 05:01:32			0	35938	0	0	0	22968	21450	139377	27022	994535	40595	108458	0	0	8203	647233	0	0
2024-05-29 05:02:32			0	35886	0	0	0	22961	21470	139389	27441	994463	40596	108455	0	0	8201	649438	0	0
2024-05-29 05:03:32			0	35851	0	0	0	22916	21470	139608	27083	994303	40585	108438	0	0	8199	650974	0	0
2024-05-29 05:04:32			0	35822	0	0	0	22883	21460	139840	27064	994171	40563	108425	0	0	8198	652285	0	0
2024-05-29 05:05:32			0	35783	0	0	0	22844	21440	139872	27357	994093	40572	108410	0	0	8197	654074	0	0
2024-05-29 05:06:32			0	35755	0	0	0	22818	21450	139920	27448	994154	40583	108400	0	0	8196	655273	0	0
2024-05-29 05:07:32			0	35743	0	0	0	22815	21440	139932	27422	994146	40572	108399	0	0	8195	655839	0	0
2024-05-29 05:08:32			0	35738	0	0	0	22799	21440	140000	27492	994066	40572	108393	0	0	8195	656060	0	0
2024-05-29 05:09:32			0	35742	0	0	0	22786	21440	140036	26955	994137	40572	108388	0	0	8196	655883	0	0
2024-05-29 05:10:32			0	35729	0	0	0	22786	21440	140052	27428	994111	40561	108388	0	0	8195	656457	0	0
2024-05-29 05:11:32			0	35737	0	0	0	22781	21440	139928	27176	994191	40583	108386	0	0	8195	656104	0	0
2024-05-29 05:12:32			0	35748	0	0	0	22797	21440	139948	27197	994244	40583	108392	0	0	8196	655618	0	0
2024-05-29 05:13:32			0	35759	0	0	0	22805	21460	139968	27173	994313	40596	108395	0	0	8196	655060	0	0
2024-05-29 05:14:32			0	35759	0	0	0	22812	21460	139860	27351	994339	40584	108398	0	0	8196	655060	0	0
2024-05-29 05:15:32			0	35760	0	0	0	22831	21480	139852	27296	994365	40586	108405	0	0	8196	654943	0	0
2024-05-29 05:16:32			0	35767	0	0	0	22849	21480	139856	27440	994480	40587	108412	0	0	8196	654634	0	0
2024-05-29 05:17:32			0	35764	0	0	0	22872	21490	139836	27150	994515	40587	108421	0	0	8196	654730	0	0
2024-05-29 05:18:32			0	35793	0	0	0	22883	21500	139820	27189	994487	40589	108425	0	0	8197	653416	0	0
2024-05-29 05:19:32			0	35795	0	0	0	22901	21510	139820	27374	994583	40600	108432	0	0	8197	653292	0	0
2024-05-29 05:20:32			0	35799	0	0	0	22929	21530	139756	27661	994697	40580	108443	0	0	8197	653043	0	0
2024-05-29 05:21:32			0	35799	0	0	0	22986	21540	139684	27383	994838	40603	108465	0	0	8196	653006	0	0
2024-05-29 05:22:32			0	35802	0	0	0	23049	21570	139668	27457	995004	40618	108489	0	0	8195	652766	0	0
2024-05-29 05:23:32			0	35832	0	0	0	23085	21580	139772	27524	995074	40607	108503	0	0	8196	651410	0	0
2024-05-29 05:24:32			0	35825	0	0	0	23111	21600	139564	27194	995241	40620	108513	0	0	8195	651645	0	0
2024-05-29 05:25:32			0	35879	0	0	0	23140	21620	139409	27121	995221	40611	108524	0	0	8198	649203	0	0
2024-05-29 05:26:32			0	35936	0	0	0	23161	21640	139121	27322	995326	40634	108532	0	0	8201	646637	0	0
2024-05-29 05:27:32			0	36037	0	0	0	23189	21650	138681	27313	995396	40625	108543	0	0	8206	642199	0	0
2024-05-29 05:28:32			0	36150	0	0	0	23202	21680	138313	27274	995474	40626	108548	0	0	8211	637192	0	0
2024-05-29 05:29:32			0	36290	0	0	0	23199	21690	137745	27062	995526	40639	108547	0	0	8219	631124	0	0
2024-05-29 05:30:32			0	36402	0	0	0	23210	21710	137333	27156	995604	40619	108551	0	0	8225	626256	0	0
2024-05-29 05:31:32			0	36497	0	0	0	23218	21730	137025	27066	995638	40642	108554	0	0	8230	622138	0	0
2024-05-29 05:32:32			0	36542	0	0	0	23220	21730	136769	27341	995665	40620	108555	0	0	8232	620226	0	0
2024-05-29 05:33:32			0	36575	0	0	0	23223	21740	136649	27149	995708	40644	108556	0	0	8234	618793	0	0
2024-05-29 05:34:32			0	36585	0	0	0	23223	21750	136669	27173	995698	40633	108556	0	0	8235	618335	0	0
2024-05-29 05:35:32			0	36595	0	0	0	23241	21770	136593	27142	995724	40645	108563	0	0	8235	617843	0	0
2024-05-29 05:36:32			0	36590	0	0	0	23241	21770	136681	27433	995839	40646	108563	0	0	8235	618054	0	0
2024-05-29 05:37:32			0	36571	0	0	0	23244	21770	136609	27024	995812	40635	108564	0	0	8234	618859	0	0
2024-05-29 05:38:32			0	36570	0	0	0	23241	21790	136629	27109	995758	40636	108563	0	0	8234	618832	0	0
2024-05-29 05:39:32			0	36550	0	0	0	23231	21790	136797	27280	995766	40626	108559	0	0	8233	619680	0	0
2024-05-29 05:40:32			0	36538	0	0	0	23225	21790	136937	27189	995766	40626	108557	0	0	8232	620189	0	0
2024-05-29 05:41:32			0	36523	0	0	0	23223	21810	136937	27246	995844	40649	108556	0	0	8232	620757	0	0
2024-05-29 05:42:32			0	36492	0	0	0	23218	21800	136985	26986	995703	40660	108554	0	0	8230	622108	0	0
2024-05-29 05:43:32			0	36483	0	0	0	23197	21790	136989	27223	995651	40636	108546	0	0	8230	622525	0	0
2024-05-29 05:44:32			0	36494	0	0	0	23181	21790	137081	27039	995624	40614	108540	0	0	8231	622058	0	0
2024-05-29 05:45:32			0	36467	0	0	0	23171	21770	137081	27012	995599	40625	108536	0	0	8229	623276	0	0
2024-05-29 05:46:32			0	36481	0	0	0	23155	21770	137105	26894	995493	40625	108530	0	0	8230	622680	0	0
2024-05-29 05:47:32			0	36476	0	0	0	23129	21760	137129	26828	995467	40623	108520	0	0	8230	622927	0	0
2024-05-29 05:48:32			0	36476	0	0	0	23114	21750	137073	27225	995371	40622	108514	0	0	8231	622962	0	0
2024-05-29 05:49:32			0	36471	0	0	0	23103	21740	137101	27019	995415	40622	108510	0	0	8230	623209	0	0
2024-05-29 05:50:32			0	36471	0	0	0	23093	21720	137041	27239	995302	40620	108506	0	0	8231	623279	0	0
2024-05-29 05:51:32			0	36468	0	0	0	23075	21730	136957	27277	995257	40631	108499	0	0	8231	623372	0	0
2024-05-29 05:52:32			0	36499	0	0	0	23070	21720	137033	26920	995240	40608	108497	0	0	8232	622088	0	0
2024-05-29 05:53:32			0	36478	0	0	0	23070	21720	136949	27000	995267	40630	108497	0	0	8231	622981	0	0
2024-05-29 05:54:32			0	36482	0	0	0	23059	21710	136897	27270	995258	40629	108493	0	0	8232	622845	0	0
2024-05-29 05:55:32			0	36519	0	0	0	23072	21710	136917	27194	995277	40619	108498	0	0	8233	621272	0	0
2024-05-29 05:56:32			0	36503	0	0	0	23059	21700	136941	27196	995295	40618	108493	0	0	8233	621987	0	0
2024-05-29 05:57:32			0	36483	0	0	0	23064	21690	137021	27460	995251	40627	108495	0	0	8232	622872	0	0
2024-05-29 05:58:32			0	36485	0	0	0	23062	21690	136985	27255	995278	40627	108494	0	0	8232	622787	0	0
2024-05-29 05:59:32			0	36501	0	0	0	23067	21700	137025	27364	995321	40628	108496	0	0	8233	622072	0	0
2024-05-29 06:00:32			0	36500	0	0	0	23075	21690	136969	27178	995259	40639	108499	0	0	8232	622149	0	0
2024-05-29 06:01:32			0	36506	0	0	0	23077	21710	136973	26986	995330	40619	108500	0	0	8233	621824	0	0
2024-05-29 06:02:32			0	36501	0	0	0	23077	21700	137037	27320	995321	40628	108500	0	0	8232	622072	0	0
2024-05-29 06:03:32			0	36488	0	0	0	23085	21700	136969	27123	995321	40628	108503	0	0	8232	622625	0	0
2024-05-29 06:04:32			0	36495	0	0	0	23090	21690	136969	27033	995313	40628	108505	0	0	8232	622362	0	0
2024-05-29 06:05:32			0	36494	0	0	0	23072	21710	136981	27064	995277	40629	108498	0	0	8232	622335	0	0
2024-05-29 06:06:32			0	36487	0	0	0	23075	21700	136941	27105	995268	40618	108499	0	0	8232	622667	0	0
2024-05-29 06:07:32			0	36489	0	0	0	23072	21690	137029	26975	995313	40618	108498	0	0	8232	622617	0	0
2024-05-29 06:08:32			0	36502	0	0	0	23062	21690	136901	27033	995313	40628	108494	0	0	8233	622064	0	0
2024-05-29 06:09:32			0	36496	0	0	0	23067	21680	137009	27256	995296	40627	108496	0	0	8232	622354	0	0
2024-05-29 06:10:32			0	36505	0	0	0	23064	21680	137009	26746	995243	40627	108495	0	0	8233	621971	0	0
2024-05-29 06:11:32			0	36492	0	0	0	23067	21680	136977	27053	995261	40626	108496	0	0	8232	622524	0	0
2024-05-29 06:12:32			0	36503	0	0	0	23064	21680	137057	27138	995208	40626	108495	0	0	8233	622056	0	0
2024-05-29 06:13:32			0	36490	0	0	0	23064	21670	136905	26776	995226	40616	108495	0	0	8232	622643	0	0
2024-05-29 06:14:32			0	36495	0	0	0	23070	21680	136957	27194	995296	40638	108497	0	0	8232	622396	0	0
2024-05-29 06:15:32			0	36516	0	0	0	23072	21680	136953	27275	995314	40638	108498	0	0	8233	621503	0	0
2024-05-29 06:16:32			0	36506	0	0	0	23075	21690	136925	26913	995331	40627	108499	0	0	8233	621894	0	0
2024-05-29 06:17:32			0	36544	0	0	0	23077	21680	136913	27015	995296	40627	108500	0	0	8235	620314	0	0
2024-05-29 06:18:32			0	36528	0	0	0	23075	21690	136925	27095	995304	40627	108499	0	0	8234	620959	0	0
2024-05-29 06:19:32			0	36558	0	0	0	23088	21680	136829	27220	995234	40638	108504	0	0	8235	619720	0	0
2024-05-29 06:20:32			0	36557	0	0	0	23080	21690	136777	27159	995313	40618	108501	0	0	8235	619728	0	0
2024-05-29 06:21:32			0	36593	0	0	0	23083	21680	136666	27173	995296	40627	108502	0	0	8237	618237	0	0
2024-05-29 06:22:32			0	36633	0	0	0	23096	21680	136562	27261	995322	40638	108507	0	0	8239	616545	0	0
2024-05-29 06:23:32			0	36627	0	0	0	23093	21690	136522	27170	995357	40638	108506	0	0	8239	616764	0	0
2024-05-29 06:24:32			0	36687	0	0	0	23101	21690	136354	26925	995331	40650	108509	0	0	8242	614232	0	0
2024-05-29 06:25:32			0	36715	0	0	0	23106	21690	136338	26757	995339	40639	108511	0	0	8243	613052	0	0
2024-05-29 06:26:32			0	36744	0	0	0	23111	21690	136190	26915	995393	40639	108513	0	0	8245	611832	0	0
2024-05-29 06:27:32			0	36759	0	0	0	23114	21690	136114	27130	995384	40627	108514	0	0	8245	611202	0	0
2024-05-29 06:28:32			0	36792	0	0	0	23111	21700	135954	27050	995401	40651	108513	0	0	8247	609782	0	0
2024-05-29 06:29:32			0	36853	0	0	0	23116	21710	135854	27220	995383	40629	108515	0	0	8250	607194	0	0
2024-05-29 06:30:32			0	36877	0	0	0	23111	21700	135722	26994	995374	40628	108513	0	0	8252	606224	0	0
2024-05-29 06:31:32			0	36902	0	0	0	23119	21710	135602	27374	995445	40640	108516	0	0	8253	605147	0	0
2024-05-29 06:32:32			0	36952	0	0	0	23122	21700	135398	27222	995454	40639	108517	0	0	8255	603096	0	0
2024-05-29 06:33:32			0	36979	0	0	0	23119	21720	135274	27386	995427	40641	108516	0	0	8257	601906	0	0
2024-05-29 06:34:32			0	37036	0	0	0	23132	21720	135074	27031	995506	40641	108521	0	0	8260	599539	0	0
2024-05-29 06:35:32			0	37069	0	0	0	23145	21730	134990	27327	995497	40653	108526	0	0	8261	598138	0	0
2024-05-29 06:36:32			0	37152	0	0	0	23145	21730	134798	26974	995478	40642	108526	0	0	8266	594709	0	0
2024-05-29 06:37:32			0	37187	0	0	0	23153	21730	134522	27253	995612	40653	108529	0	0	8267	593266	0	0
2024-05-29 06:38:32			0	37255	0	0	0	23158	21730	134362	27213	995523	40653	108531	0	0	8271	590471	0	0
2024-05-29 06:39:32			0	37276	0	0	0	23155	21740	134242	27201	995540	40654	108530	0	0	8272	589576	0	0
2024-05-29 06:40:32			0	37336	0	0	0	23155	21740	134055	27317	995593	40632	108530	0	0	8275	587119	0	0
2024-05-29 06:41:32			0	37386	0	0	0	23145	21740	133863	27263	995567	40643	108526	0	0	8278	585077	0	0
2024-05-29 06:42:32			0	37435	0	0	0	23148	21740	133751	27033	995487	40643	108527	0	0	8280	583080	0	0
2024-05-29 06:43:32			0	37473	0	0	0	23137	21740	133491	27343	995549	40655	108523	0	0	8283	581534	0	0
2024-05-29 06:44:32			0	37503	0	0	0	23142	21740	133387	27718	995540	40643	108525	0	0	8284	580316	0	0
2024-05-29 06:45:32			0	37542	0	0	0	23135	21740	133247	27057	995522	40644	108522	0	0	8286	578735	0	0
2024-05-29 06:46:32			0	37582	0	0	0	23122	21750	133263	27230	995530	40632	108517	0	0	8289	577084	0	0
2024-05-29 06:47:32			0	37592	0	0	0	23098	21740	133167	27450	995549	40644	108508	0	0	8289	576711	0	0
2024-05-29 06:48:32			0	37625	0	0	0	23059	21740	133011	27341	995495	40632	108493	0	0	8292	575379	0	0
2024-05-29 06:49:32			0	37634	0	0	0	23049	21740	132971	27157	995487	40643	108489	0	0	8292	575016	0	0
2024-05-29 06:50:32			0	37623	0	0	0	23072	21740	133019	27060	995513	40643	108498	0	0	8292	575459	0	0
2024-05-29 06:51:32			0	37607	0	0	0	23114	21740	133031	27241	995602	40644	108514	0	0	8290	576105	0	0
2024-05-29 06:52:32			0	37597	0	0	0	23142	21750	133059	27222	995663	40655	108525	0	0	8289	576477	0	0
2024-05-29 06:53:32			0	37616	0	0	0	23155	21760	133055	27403	995707	40623	108530	0	0	8290	575678	0	0
2024-05-29 06:54:32			0	37642	0	0	0	23171	21770	132947	27232	995724	40645	108536	0	0	8291	574597	0	0
2024-05-29 06:55:32			0	37722	0	0	0	23179	21770	132735	27137	995706	40646	108539	0	0	8295	571377	0	0
2024-05-29 06:56:32			0	37729	0	0	0	23186	21770	132515	27215	995804	40645	108542	0	0	8295	571096	0	0
2024-05-29 06:57:32			0	37769	0	0	0	23205	21790	132539	26986	995793	40648	108549	0	0	8297	569427	0	0
2024-05-29 06:58:32			0	37802	0	0	0	23212	21790	132399	27379	995864	40647	108552	0	0	8299	568105	0	0
2024-05-29 06:59:32			0	37825	0	0	0	23218	21800	132303	27046	995881	40648	108554	0	0	8300	567154	0	0
2024-05-29 07:00:32			0	37838	0	0	0	23210	21790	132187	27414	995872	40648	108551	0	0	8301	566666	0	0
2024-05-29 07:01:32			0	37854	0	0	0	23207	21800	132175	27440	995828	40648	108550	0	0	8302	565995	0	0
2024-05-29 07:02:32			0	37861	0	0	0	23205	21800	132047	27208	995836	40649	108549	0	0	8302	565715	0	0
2024-05-29 07:03:32			0	37897	0	0	0	23202	21810	132091	27312	995711	40660	108548	0	0	8304	564248	0	0
2024-05-29 07:04:32			0	37912	0	0	0	23197	21800	131963	27187	995783	40638	108546	0	0	8305	563682	0	0
2024-05-29 07:05:32			0	37938	0	0	0	23186	21800	131843	27280	995809	40638	108542	0	0	8306	562647	0	0
2024-05-29 07:06:32			0	37963	0	0	0	23174	21790	131723	27495	995713	40648	108537	0	0	8308	561684	0	0
2024-05-29 07:07:32			0	37989	0	0	0	23163	21800	131691	27248	995721	40648	108533	0	0	8309	560620	0	0
2024-05-29 07:08:32			0	38027	0	0	0	23148	21790	131580	27229	995758	40647	108527	0	0	8311	559145	0	0
2024-05-29 07:09:32			0	38034	0	0	0	23145	21800	131484	27121	995721	40637	108526	0	0	8312	558836	0	0
2024-05-29 07:10:32			0	38059	0	0	0	23109	21790	131424	26951	995624	40636	108512	0	0	8314	557878	0	0
2024-05-29 07:11:32			0	38071	0	0	0	23098	21780	131408	27152	995581	40635	108508	0	0	8315	557434	0	0
2024-05-29 07:12:32			0	38056	0	0	0	23088	21770	131360	27121	995599	40646	108504	0	0	8314	558058	0	0
2024-05-29 07:13:32			0	38073	0	0	0	23101	21770	131400	27294	995591	40645	108509	0	0	8315	557386	0	0
2024-05-29 07:14:32			0	38080	0	0	0	23103	21780	131336	27377	995616	40647	108510	0	0	8315	557078	0	0
2024-05-29 07:15:32			0	38080	0	0	0	23111	21760	131324	27355	995609	40634	108513	0	0	8315	557140	0	0
2024-05-29 07:16:32			0	38102	0	0	0	23106	21750	131300	27386	995592	40645	108511	0	0	8316	556301	0	0
2024-05-29 07:17:32			0	38108	0	0	0	23109	21760	131196	27376	995627	40623	108512	0	0	8316	556034	0	0
2024-05-29 07:18:32			0	38098	0	0	0	23106	21750	131280	27495	995592	40656	108511	0	0	8316	556460	0	0
2024-05-29 07:19:32			0	38122	0	0	0	23106	21760	131236	27633	995627	40645	108511	0	0	8317	555481	0	0
2024-05-29 07:20:32			0	38123	0	0	0	23109	21760	131152	27303	995609	40634	108512	0	0	8317	555441	0	0
2024-05-29 07:21:32			0	38111	0	0	0	23098	21760	131324	27274	995521	40656	108508	0	0	8317	555915	0	0
2024-05-29 07:22:32			0	38120	0	0	0	23072	21750	131320	27734	995530	40632	108498	0	0	8317	555591	0	0
2024-05-29 07:23:32			0	38110	0	0	0	23051	21740	131316	27357	995442	40622	108490	0	0	8317	556016	0	0
2024-05-29 07:24:32			0	38095	0	0	0	23038	21740	131300	27315	995469	40644	108485	0	0	8317	556609	0	0
2024-05-29 07:25:32			0	38064	0	0	0	23025	21740	131408	27393	995434	40632	108480	0	0	8315	557835	0	0
2024-05-29 07:26:32			0	38047	0	0	0	22992	21730	131444	27358	995417	40620	108467	0	0	8315	558539	0	0
2024-05-29 07:27:32			0	38003	0	0	0	22979	21730	131551	27320	995364	40620	108462	0	0	8313	560283	0	0
2024-05-29 07:28:32			0	37985	0	0	0	22958	21720	131667	27255	995240	40630	108454	0	0	8312	561029	0	0
2024-05-29 07:29:32			0	37962	0	0	0	22924	21710	131823	27060	995170	40607	108441	0	0	8312	561974	0	0
2024-05-29 07:30:32			0	37927	0	0	0	22903	21690	131875	27116	995206	40607	108433	0	0	8310	563430	0	0
2024-05-29 07:31:32			0	37900	0	0	0	22919	21680	131959	27654	995163	40627	108439	0	0	8308	564537	0	0
2024-05-29 07:32:32			0	37891	0	0	0	22961	21680	131975	27410	995243	40617	108455	0	0	8307	564896	0	0
2024-05-29 07:33:32			0	37885	0	0	0	23005	21690	132063	27350	995304	40617	108472	0	0	8306	565104	0	0
2024-05-29 07:34:32			0	37859	0	0	0	23033	21690	132115	27097	995331	40627	108483	0	0	8304	566142	0	0
2024-05-29 07:35:32			0	37842	0	0	0	23088	21700	132255	27227	995428	40639	108504	0	0	8303	566790	0	0
2024-05-29 07:36:32			0	37824	0	0	0	23114	21710	132215	27066	995463	40629	108514	0	0	8301	567478	0	0
2024-05-29 07:37:32			0	37841	0	0	0	23150	21720	132283	27256	995560	40641	108528	0	0	8301	566766	0	0
2024-05-29 07:38:32			0	37853	0	0	0	23153	21720	132227	27334	995541	40642	108529	0	0	8302	566287	0	0
2024-05-29 07:39:32			0	37846	0	0	0	23135	21730	132263	26849	995497	40642	108522	0	0	8302	566535	0	0
2024-05-29 07:40:32			0	37851	0	0	0	23119	21720	132239	27268	995435	40620	108516	0	0	8303	566367	0	0
2024-05-29 07:41:32			0	37850	0	0	0	23098	21720	132219	27365	995355	40631	108508	0	0	8303	566407	0	0
2024-05-29 07:42:32			0	37883	0	0	0	23088	21720	132231	27180	995320	40620	108504	0	0	8305	565089	0	0
2024-05-29 07:43:32			0	37877	0	0	0	23077	21690	132231	27137	995278	40617	108500	0	0	8304	565423	0	0
2024-05-29 07:44:32			0	37854	0	0	0	23077	21690	132275	27287	995304	40617	108500	0	0	8303	566342	0	0
2024-05-29 07:45:32			0	37868	0	0	0	23067	21680	132283	27124	995269	40638	108496	0	0	8304	565814	0	0
2024-05-29 07:46:32			0	37853	0	0	0	23062	21690	132239	27400	995304	40627	108494	0	0	8303	566382	0	0
2024-05-29 07:47:32			0	37881	0	0	0	23064	21690	132235	27256	995304	40638	108495	0	0	8305	565263	0	0
2024-05-29 07:48:32			0	37868	0	0	0	23062	21690	132243	27131	995304	40638	108494	0	0	8304	565782	0	0
2024-05-29 07:49:32			0	37874	0	0	0	23064	21690	132299	27274	995339	40628	108495	0	0	8305	565543	0	0
2024-05-29 07:50:32			0	37856	0	0	0	23067	21690	132211	27131	995278	40627	108496	0	0	8304	566262	0	0
2024-05-29 07:51:32			0	37869	0	0	0	23072	21670	132235	27206	995306	40616	108498	0	0	8304	565805	0	0
2024-05-29 07:52:32			0	37882	0	0	0	23072	21680	132115	27168	995349	40638	108498	0	0	8305	565255	0	0
2024-05-29 07:53:32			0	37895	0	0	0	23072	21680	132163	27138	995296	40627	108498	0	0	8305	564736	0	0
2024-05-29 07:54:32			0	37933	0	0	0	23070	21690	132031	27135	995278	40627	108497	0	0	8308	563191	0	0
2024-05-29 07:55:32			0	37955	0	0	0	23064	21680	131895	27289	995261	40638	108495	0	0	8309	562346	0	0
2024-05-29 07:56:32			0	37977	0	0	0	23054	21670	131867	27164	995084	40615	108491	0	0	8310	561503	0	0
2024-05-29 07:57:32			0	37978	0	0	0	23041	21660	131795	27395	995023	40614	108486	0	0	8310	561495	0	0
2024-05-29 07:58:32			0	37991	0	0	0	23018	21640	131763	27265	994901	40612	108477	0	0	8311	561040	0	0
2024-05-29 07:59:32			0	38040	0	0	0	22992	21630	131732	27281	994884	40612	108467	0	0	8314	559127	0	0
2024-05-29 08:00:32			0	38065	0	0	0	22981	21610	131608	27171	994832	40622	108463	0	0	8316	558199	0	0
2024-05-29 08:01:32			0	38097	0	0	0	22976	21590	131476	27185	994851	40608	108461	0	0	8317	556995	0	0
2024-05-29 08:02:32			0	38142	0	0	0	22971	21580	131420	27180	994746	40618	108459	0	0	8320	555248	0	0
2024-05-29 08:03:32			0	38201	0	0	0	22997	21580	131192	27308	994888	40629	108469	0	0	8322	552922	0	0
2024-05-29 08:04:32			0	38221	0	0	0	23020	21580	131100	27355	994888	40629	108478	0	0	8323	552135	0	0
2024-05-29 08:05:32			0	38285	0	0	0	23044	21590	130824	27177	994985	40630	108487	0	0	8326	549591	0	0
2024-05-29 08:06:32			0	38332	0	0	0	23054	21610	130728	27502	995090	40654	108491	0	0	8328	547689	0	0
2024-05-29 08:07:32			0	38365	0	0	0	23070	21620	130556	27339	995106	40622	108497	0	0	8330	546368	0	0
2024-05-29 08:08:32			0	38410	0	0	0	23088	21610	130444	27229	995071	40643	108504	0	0	8332	544642	0	0
2024-05-29 08:09:32			0	38429	0	0	0	23085	21620	130472	27490	995160	40632	108503	0	0	8333	543871	0	0
2024-05-29 08:10:32			0	38409	0	0	0	23103	21630	130476	27116	995238	40657	108510	0	0	8331	544620	0	0
2024-05-29 08:11:32			0	38410	0	0	0	23109	21640	130524	27100	995255	40645	108512	0	0	8331	544551	0	0
2024-05-29 08:12:32			0	38384	0	0	0	23122	21640	130600	27123	995202	40645	108517	0	0	8330	545565	0	0
2024-05-29 08:13:32			0	38324	0	0	0	23119	21640	130696	27490	995228	40645	108516	0	0	8327	547910	0	0
2024-05-29 08:14:32			0	38269	0	0	0	23116	21650	130960	27374	995210	40646	108515	0	0	8324	550035	0	0
2024-05-29 08:15:32			0	38216	0	0	0	23116	21650	131144	27332	995245	40647	108515	0	0	8321	552117	0	0
2024-05-29 08:16:32			0	38151	0	0	0	23103	21640	131320	27239	995255	40645	108510	0	0	8318	554708	0	0
2024-05-29 08:17:32			0	38082	0	0	0	23106	21640	131444	27353	995175	40645	108511	0	0	8314	557433	0	0
2024-05-29 08:18:32			0	38036	0	0	0	23090	21650	131700	27152	995165	40636	108505	0	0	8312	559224	0	0
2024-05-29 08:19:32			0	37997	0	0	0	23072	21640	131863	27043	995114	40634	108498	0	0	8311	560802	0	0
2024-05-29 08:20:32			0	37941	0	0	0	23054	21640	131991	27248	995167	40634	108491	0	0	8308	563029	0	0
2024-05-29 08:21:32			0	37889	0	0	0	23057	21640	132131	27403	995140	40645	108492	0	0	8305	565101	0	0
2024-05-29 08:22:32			0	37846	0	0	0	23054	21620	132315	27260	994982	40643	108491	0	0	8303	566882	0	0
2024-05-29 08:23:32			0	37826	0	0	0	23038	21620	132423	27454	994973	40632	108485	0	0	8302	567682	0	0
2024-05-29 08:24:32			0	37774	0	0	0	23028	21620	132643	27235	995008	40643	108481	0	0	8300	569766	0	0
2024-05-29 08:25:32			0	37716	0	0	0	23036	21620	132763	27144	995062	40643	108484	0	0	8296	572095	0	0
2024-05-29 08:26:32			0	37700	0	0	0	23049	21620	132851	27372	995053	40643	108489	0	0	8295	572739	0	0
2024-05-29 08:27:32			0	37636	0	0	0	23062	21620	133003	27183	995088	40632	108494	0	0	8292	575319	0	0
2024-05-29 08:28:32			0	37643	0	0	0	23059	21640	133079	27505	995193	40657	108493	0	0	8292	574972	0	0
2024-05-29 08:29:32			0	37620	0	0	0	23067	21640	133091	27147	995167	40634	108496	0	0	8291	575901	0	0
2024-05-29 08:30:32			0	37613	0	0	0	23070	21640	133211	27229	995175	40634	108497	0	0	8291	576184	0	0
2024-05-29 08:31:32			0	37593	0	0	0	23067	21640	133323	27218	995175	40645	108496	0	0	8290	576992	0	0
2024-05-29 08:32:32			0	37587	0	0	0	23046	21630	133207	27277	994990	40633	108488	0	0	8290	577267	0	0
2024-05-29 08:33:32			0	37616	0	0	0	23038	21630	133159	26939	995070	40633	108485	0	0	8291	576094	0	0
2024-05-29 08:34:32			0	37627	0	0	0	23031	21620	133127	27230	995008	40643	108482	0	0	8292	575682	0	0
2024-05-29 08:35:32			0	37629	0	0	0	23033	21630	133107	27386	995123	40623	108483	0	0	8292	575569	0	0
2024-05-29 08:36:32			0	37657	0	0	0	23025	21630	133011	26908	995052	40645	108480	0	0	8294	574440	0	0
2024-05-29 08:37:32			0	37644	0	0	0	23028	21620	133083	27339	995035	40632	108481	0	0	8293	574996	0	0
2024-05-29 08:38:32			0	37647	0	0	0	23028	21620	132891	27168	995008	40643	108481	0	0	8293	574875	0	0
2024-05-29 08:39:32			0	37667	0	0	0	23033	21620	133023	27048	995088	40643	108483	0	0	8294	574068	0	0
2024-05-29 08:40:32			0	37661	0	0	0	23031	21620	133043	27062	995035	40632	108482	0	0	8294	574310	0	0
2024-05-29 08:41:32			0	37652	0	0	0	23023	21620	133043	27422	995053	40632	108479	0	0	8293	574673	0	0
2024-05-29 08:42:32			0	37671	0	0	0	23020	21610	132995	27258	994965	40643	108478	0	0	8294	573939	0	0
2024-05-29 08:43:32			0	37638	0	0	0	23005	21610	132983	27060	994912	40622	108472	0	0	8293	575270	0	0
2024-05-29 08:44:32			0	37663	0	0	0	23010	21610	132967	27029	995018	40632	108474	0	0	8294	574262	0	0
2024-05-29 08:45:32			0	37669	0	0	0	23002	21610	132983	26984	994957	40631	108471	0	0	8295	574020	0	0
2024-05-29 08:46:32			0	37668	0	0	0	23020	21610	132919	27048	995063	40643	108478	0	0	8294	574060	0	0
2024-05-29 08:47:32			0	37697	0	0	0	23023	21610	132859	27079	995045	40643	108479	0	0	8296	572892	0	0
2024-05-29 08:48:32			0	37731	0	0	0	23028	21610	132695	27126	995045	40632	108481	0	0	8297	571524	0	0
2024-05-29 08:49:32			0	37764	0	0	0	23023	21620	132595	26981	995008	40643	108479	0	0	8299	570167	0	0
2024-05-29 08:50:32			0	37830	0	0	0	23005	21610	132447	26785	995045	40611	108472	0	0	8303	567554	0	0
2024-05-29 08:51:32			0	37878	0	0	0	23002	21610	132207	27114	994930	40631	108471	0	0	8305	565635	0	0
2024-05-29 08:52:32			0	37909	0	0	0	22981	21600	132047	27017	994940	40630	108463	0	0	8307	564429	0	0
2024-05-29 08:53:32			0	37995	0	0	0	22981	21600	131899	27194	994842	40620	108463	0	0	8312	561006	0	0
2024-05-29 08:54:32			0	38052	0	0	0	22961	21590	131684	27142	994905	40641	108455	0	0	8315	558776	0	0
2024-05-29 08:55:32			0	38105	0	0	0	22961	21580	131428	27123	994888	40629	108455	0	0	8318	556710	0	0
2024-05-29 08:56:32			0	38189	0	0	0	22953	21580	131184	27282	994826	40628	108452	0	0	8322	553395	0	0
2024-05-29 08:57:32			0	38254	0	0	0	22953	21580	130916	27149	994835	40629	108452	0	0	8326	550838	0	0
2024-05-29 08:58:32			0	38292	0	0	0	22948	21570	130672	27260	994817	40628	108450	0	0	8328	549378	0	0
2024-05-29 08:59:32			0	38362	0	0	0	22945	21570	130560	27019	994738	40628	108449	0	0	8331	546637	0	0
2024-05-29 09:00:32			0	38420	0	0	0	22940	21570	130464	27371	994729	40618	108447	0	0	8335	544373	0	0
2024-05-29 09:01:32			0	38412	0	0	0	22942	21570	130360	27308	994809	40628	108448	0	0	8334	544685	0	0
2024-05-29 09:02:32			0	38441	0	0	0	22955	21560	130300	27211	994774	40638	108453	0	0	8335	543585	0	0
2024-05-29 09:03:32			0	38453	0	0	0	22958	21560	130264	26951	994801	40627	108454	0	0	8336	543118	0	0
2024-05-29 09:04:32			0	38446	0	0	0	22958	21560	130296	27090	994801	40638	108454	0	0	8336	543390	0	0
2024-05-29 09:05:32			0	38415	0	0	0	22961	21560	130372	27467	994801	40638	108455	0	0	8334	544598	0	0
2024-05-29 09:06:32			0	38356	0	0	0	22971	21560	130556	26932	994774	40627	108459	0	0	8331	546902	0	0
2024-05-29 09:07:32			0	38320	0	0	0	22963	21560	130708	27168	994801	40627	108456	0	0	8329	548311	0	0
2024-05-29 09:08:32			0	38293	0	0	0	22971	21560	130924	27171	994854	40627	108459	0	0	8327	549369	0	0
2024-05-29 09:09:32			0	38227	0	0	0	22976	21570	131088	26930	994782	40618	108461	0	0	8324	551930	0	0
2024-05-29 09:10:32			0	38153	0	0	0	22974	21570	131288	27201	994897	40628	108460	0	0	8320	554845	0	0
2024-05-29 09:11:32			0	38118	0	0	0	22989	21560	131368	27161	994792	40637	108466	0	0	8318	556258	0	0
2024-05-29 09:12:32			0	38079	0	0	0	22979	21570	131516	27078	994871	40639	108462	0	0	8316	557769	0	0
2024-05-29 09:13:32			0	38044	0	0	0	22992	21560	131680	26996	994827	40638	108467	0	0	8314	559187	0	0
2024-05-29 09:14:32			0	37986	0	0	0	22989	21570	131751	27161	994844	40639	108466	0	0	8311	561458	0	0
2024-05-29 09:15:32			0	37969	0	0	0	22989	21580	131903	27154	994852	40618	108466	0	0	8310	562102	0	0
2024-05-29 09:16:32			0	37929	0	0	0	22997	21580	131995	26930	994932	40618	108469	0	0	8308	563695	0	0
2024-05-29 09:17:32			0	37947	0	0	0	22997	21580	131987	27033	994888	40651	108469	0	0	8309	562978	0	0
2024-05-29 09:18:32			0	37925	0	0	0	22997	21570	132095	27171	994871	40639	108469	0	0	8308	563886	0	0
2024-05-29 09:19:32			0	37918	0	0	0	22994	21580	132063	27263	994914	40640	108468	0	0	8308	564133	0	0
2024-05-29 09:20:32			0	37909	0	0	0	23002	21580	132095	27038	994861	40629	108471	0	0	8307	564492	0	0
2024-05-29 09:21:32			0	37916	0	0	0	23012	21580	132139	27098	994968	40618	108475	0	0	8307	564213	0	0
2024-05-29 09:22:32			0	37916	0	0	0	23010	21580	132107	26852	994941	40629	108474	0	0	8307	564213	0	0
2024-05-29 09:23:32			0	37895	0	0	0	23002	21580	132211	26934	994968	40629	108471	0	0	8306	565051	0	0
2024-05-29 09:24:32			0	37903	0	0	0	23002	21590	132163	27131	994949	40641	108471	0	0	8307	564700	0	0
2024-05-29 09:25:32			0	37893	0	0	0	23005	21590	132251	27159	994976	40619	108472	0	0	8306	565099	0	0
2024-05-29 09:26:32			0	37888	0	0	0	23002	21600	132263	27312	994940	40641	108471	0	0	8306	565267	0	0
2024-05-29 09:27:32			0	37854	0	0	0	23002	21590	132375	27007	994896	40652	108471	0	0	8304	566657	0	0
2024-05-29 09:28:32			0	37866	0	0	0	23010	21590	132267	27121	994958	40641	108474	0	0	8305	566177	0	0
2024-05-29 09:29:32			0	37842	0	0	0	23012	21600	132367	27400	994948	40653	108475	0	0	8303	567105	0	0
2024-05-29 09:30:32			0	37817	0	0	0	23020	21600	132439	27239	995055	40630	108478	0	0	8302	568105	0	0
2024-05-29 09:31:32			0	37808	0	0	0	23020	21600	132463	27265	994922	40630	108478	0	0	8301	568466	0	0
2024-05-29 09:32:32			0	37796	0	0	0	23015	21600	132475	27114	994966	40641	108476	0	0	8301	568947	0	0
2024-05-29 09:33:32			0	37790	0	0	0	23020	21600	132567	27249	995028	40630	108478	0	0	8301	569187	0	0
2024-05-29 09:34:32			0	37797	0	0	0	23025	21600	132519	27282	995020	40652	108480	0	0	8301	568907	0	0
2024-05-29 09:35:32			0	37791	0	0	0	23033	21610	132651	27422	995116	40631	108483	0	0	8300	569116	0	0
2024-05-29 09:36:32			0	37777	0	0	0	23033	21610	132579	27254	995116	40631	108483	0	0	8300	569677	0	0
2024-05-29 09:37:32			0	37772	0	0	0	23044	21610	132579	27301	995090	40654	108487	0	0	8299	569878	0	0
2024-05-29 09:38:32			0	37763	0	0	0	23051	21620	132603	26849	995115	40632	108490	0	0	8299	570207	0	0
2024-05-29 09:39:32			0	37774	0	0	0	23054	21610	132639	26963	995125	40643	108491	0	0	8299	569797	0	0
2024-05-29 09:40:32			0	37768	0	0	0	23054	21630	132631	27234	995123	40633	108491	0	0	8299	569975	0	0
2024-05-29 09:41:32			0	37751	0	0	0	23059	21630	132679	27137	995185	40645	108493	0	0	8298	570657	0	0
2024-05-29 09:42:32			0	37758	0	0	0	23064	21630	132671	27154	995185	40645	108495	0	0	8298	570376	0	0
2024-05-29 09:43:32			0	37740	0	0	0	23062	21640	132683	27294	995193	40634	108494	0	0	8297	571067	0	0
2024-05-29 09:44:32			0	37766	0	0	0	23070	21640	132607	27137	995220	40645	108497	0	0	8299	570023	0	0
2024-05-29 09:45:32			0	37780	0	0	0	23070	21650	132603	26955	995184	40635	108497	0	0	8299	569430	0	0
2024-05-29 09:46:32			0	37805	0	0	0	23075	21640	132487	26977	995228	40645	108499	0	0	8301	568460	0	0
2024-05-29 09:47:32			0	37815	0	0	0	23083	21650	132455	27078	995237	40635	108502	0	0	8301	568028	0	0
2024-05-29 09:48:32			0	37836	0	0	0	23077	21640	132539	27124	995282	40634	108500	0	0	8302	567219	0	0
2024-05-29 09:49:32			0	37830	0	0	0	23085	21650	132255	27223	995290	40657	108503	0	0	8302	567427	0	0
2024-05-29 09:50:32			0	37860	0	0	0	23088	21650	132267	27265	995325	40647	108504	0	0	8303	566228	0	0
2024-05-29 09:51:32			0	37885	0	0	0	23096	21670	132139	27248	995359	40649	108507	0	0	8304	565167	0	0
2024-05-29 09:52:32			0	37922	0	0	0	23090	21670	132099	27081	995297	40637	108505	0	0	8307	563691	0	0
2024-05-29 09:53:32			0	37947	0	0	0	23101	21670	132051	27235	995377	40659	108509	0	0	8308	562696	0	0
2024-05-29 09:54:32			0	37959	0	0	0	23106	21670	131951	27211	995385	40649	108511	0	0	8308	562219	0	0
2024-05-29 09:55:32			0	37996	0	0	0	23109	21680	131787	27104	995394	40649	108512	0	0	8310	560717	0	0
2024-05-29 09:56:32			0	38015	0	0	0	23109	21680	131659	27145	995394	40670	108512	0	0	8311	559963	0	0
2024-05-29 09:57:32			0	38041	0	0	0	23116	21680	131660	26972	995402	40650	108515	0	0	8312	558932	0	0
2024-05-29 09:58:32			0	38073	0	0	0	23116	21690	131544	26986	995437	40661	108515	0	0	8314	557634	0	0
2024-05-29 09:59:32			0	38068	0	0	0	23124	21690	131520	27043	995411	40650	108518	0	0	8314	557832	0	0
2024-05-29 10:00:32			0	38109	0	0	0	23129	21700	131408	27405	995401	40662	108520	0	0	8316	556180	0	0
2024-05-29 10:01:32			0	38123	0	0	0	23124	21700	131356	27130	995428	40651	108518	0	0	8317	555627	0	0
2024-05-29 10:02:32			0	38133	0	0	0	23119	21710	131196	27039	995418	40673	108516	0	0	8317	555202	0	0
2024-05-29 10:03:32			0	38143	0	0	0	23124	21690	131252	27393	995357	40661	108518	0	0	8318	554869	0	0
2024-05-29 10:04:32			0	38192	0	0	0	23109	21700	131168	27319	995481	40639	108512	0	0	8320	552907	0	0
2024-05-29 10:05:32			0	38169	0	0	0	23116	21690	131164	27209	995419	40651	108515	0	0	8319	553844	0	0
2024-05-29 10:06:32			0	38188	0	0	0	23119	21700	131188	26809	995401	40651	108516	0	0	8320	553065	0	0
2024-05-29 10:07:32			0	38205	0	0	0	23109	21720	131060	27185	995453	40641	108512	0	0	8321	552334	0	0
2024-05-29 10:08:32			0	38200	0	0	0	23103	21700	131112	27074	995321	40672	108510	0	0	8321	552593	0	0
2024-05-29 10:09:32			0	38228	0	0	0	23093	21700	131020	27019	995374	40639	108506	0	0	8323	551492	0	0
2024-05-29 10:10:32			0	38211	0	0	0	23075	21690	131148	27121	995304	40627	108499	0	0	8322	552191	0	0
2024-05-29 10:11:32			0	38227	0	0	0	23090	21690	130900	27249	995331	40638	108505	0	0	8322	551562	0	0
2024-05-29 10:12:32			0	38230	0	0	0	23085	21690	131092	27168	995366	40639	108503	0	0	8323	551444	0	0
2024-05-29 10:13:32			0	38226	0	0	0	23090	21680	130924	27294	995322	40661	108505	0	0	8322	551632	0	0
2024-05-29 10:14:32			0	38240	0	0	0	23077	21690	130972	27161	995331	40661	108500	0	0	8323	551051	0	0
2024-05-29 10:15:32			0	38250	0	0	0	23080	21680	130888	27232	995341	40638	108501	0	0	8324	550689	0	0
2024-05-29 10:16:32			0	38267	0	0	0	23075	21690	131012	27324	995357	40650	108499	0	0	8325	549991	0	0
2024-05-29 10:17:32			0	38284	0	0	0	23088	21680	130892	27017	995322	40650	108504	0	0	8325	549355	0	0
2024-05-29 10:18:32			0	38274	0	0	0	23080	21680	130856	26974	995394	40649	108501	0	0	8325	549747	0	0
2024-05-29 10:19:32			0	38285	0	0	0	23088	21690	130856	27203	995357	40661	108504	0	0	8326	549285	0	0
2024-05-29 10:20:32			0	38273	0	0	0	23083	21680	130828	27019	995341	40649	108502	0	0	8325	549787	0	0
2024-05-29 10:21:32			0	38323	0	0	0	23083	21680	130840	27059	995402	40638	108502	0	0	8328	547828	0	0
2024-05-29 10:22:32			0	38301	0	0	0	23088	21680	130796	27045	995376	40671	108504	0	0	8326	548689	0	0
2024-05-29 10:23:32			0	38312	0	0	0	23096	21690	130832	27473	995384	40661	108507	0	0	8327	548228	0	0
2024-05-29 10:24:32			0	38338	0	0	0	23096	21690	130860	27196	995384	40650	108507	0	0	8328	547210	0	0
2024-05-29 10:25:32			0	38333	0	0	0	23090	21690	130792	27097	995357	40638	108505	0	0	8328	547406	0	0
2024-05-29 10:26:32			0	38328	0	0	0	23093	21690	130732	27261	995357	40638	108506	0	0	8328	547602	0	0
2024-05-29 10:27:32			0	38329	0	0	0	23096	21700	130724	27209	995454	40672	108507	0	0	8328	547532	0	0
2024-05-29 10:28:32			0	38334	0	0	0	23106	21700	130720	27102	995534	40651	108511	0	0	8328	547336	0	0
2024-05-29 10:29:32			0	38331	0	0	0	23114	21710	130752	27133	995498	40673	108514	0	0	8328	547423	0	0
2024-05-29 10:30:32			0	38360	0	0	0	23129	21710	130684	27369	995551	40673	108520	0	0	8329	546290	0	0
2024-05-29 10:31:32			0	38340	0	0	0	23176	21720	130604	27322	995666	40652	108538	0	0	8327	547041	0	0
2024-05-29 10:32:32			0	38349	0	0	0	23220	21740	130588	27079	995753	40687	108555	0	0	8327	546628	0	0
2024-05-29 10:33:32			0	38345	0	0	0	23254	21750	130612	27123	995832	40689	108568	0	0	8326	546754	0	0
2024-05-29 10:34:32			0	38344	0	0	0	23275	21770	130556	27130	995963	40690	108576	0	0	8326	546732	0	0
2024-05-29 10:35:32			0	38373	0	0	0	23275	21790	130588	27183	995891	40658	108576	0	0	8327	545539	0	0
2024-05-29 10:36:32			0	38386	0	0	0	23238	21790	130512	27441	995899	40659	108562	0	0	8329	545032	0	0
2024-05-29 10:37:32			0	38387	0	0	0	23215	21790	130500	27293	995864	40658	108553	0	0	8329	544993	0	0
2024-05-29 10:38:32			0	38398	0	0	0	23210	21790	130396	27407	995891	40669	108551	0	0	8330	544564	0	0
2024-05-29 10:39:32			0	38435	0	0	0	23207	21800	130276	27445	995881	40670	108550	0	0	8332	543093	0	0
2024-05-29 10:40:32			0	38459	0	0	0	23210	21800	130264	27377	995881	40681	108551	0	0	8333	542159	0	0
2024-05-29 10:41:32			0	38483	0	0	0	23205	21800	130084	27255	995828	40659	108549	0	0	8334	541227	0	0
2024-05-29 10:42:32			0	38562	0	0	0	23194	21790	129872	27369	995872	40659	108545	0	0	8338	538195	0	0
2024-05-29 10:43:32			0	38599	0	0	0	23194	21790	129696	27287	995819	40670	108545	0	0	8340	536764	0	0
2024-05-29 10:44:32			0	38668	0	0	0	23181	21800	129616	27159	995801	40670	108540	0	0	8344	534072	0	0
2024-05-29 10:45:32			0	38683	0	0	0	23184	21790	129496	27260	995793	40670	108541	0	0	8345	533524	0	0
2024-05-29 10:46:32			0	38706	0	0	0	23184	21790	129308	27371	995811	40647	108541	0	0	8346	532639	0	0
2024-05-29 10:47:32			0	38729	0	0	0	23186	21800	129317	27180	995943	40671	108542	0	0	8347	531726	0	0
2024-05-29 10:48:32			0	38698	0	0	0	23189	21800	129392	27197	995881	40670	108543	0	0	8346	532917	0	0
2024-05-29 10:49:32			0	38714	0	0	0	23192	21790	129396	26856	995819	40670	108544	0	0	8346	532332	0	0
2024-05-29 10:50:32			0	38695	0	0	0	23186	21800	129444	27137	995801	40681	108542	0	0	8346	533033	0	0
2024-05-29 10:51:32			0	38686	0	0	0	23171	21800	129532	27092	995809	40649	108536	0	0	8345	533379	0	0
2024-05-29 10:52:32			0	38645	0	0	0	23145	21780	129588	27194	995722	40658	108526	0	0	8344	535018	0	0
2024-05-29 10:53:32			0	38599	0	0	0	23122	21770	129836	26953	995706	40646	108517	0	0	8342	536824	0	0
2024-05-29 10:54:32			0	38564	0	0	0	23119	21760	129992	27059	995582	40645	108516	0	0	8340	538207	0	0
2024-05-29 10:55:32			0	38508	0	0	0	23111	21760	130108	27135	995600	40645	108513	0	0	8337	540377	0	0
2024-05-29 10:56:32			0	38444	0	0	0	23116	21760	130256	27253	995574	40656	108515	0	0	8334	542864	0	0
2024-05-29 10:57:32			0	38411	0	0	0	23111	21750	130368	27507	995565	40645	108513	0	0	8332	544179	0	0
2024-05-29 10:58:32			0	38382	0	0	0	23101	21740	130488	27479	995469	40655	108509	0	0	8331	545340	0	0
2024-05-29 10:59:32			0	38359	0	0	0	23103	21750	130568	27357	995504	40655	108510	0	0	8329	546207	0	0
2024-05-29 11:00:32			0	38308	0	0	0	23101	21740	130724	27199	995549	40666	108509	0	0	8327	548232	0	0
2024-05-29 11:01:32			0	38316	0	0	0	23101	21740	130756	27041	995522	40655	108509	0	0	8327	547919	0	0
2024-05-29 11:02:32			0	38280	0	0	0	23114	21730	130808	27055	995558	40653	108514	0	0	8325	549359	0	0
2024-05-29 11:03:32			0	38289	0	0	0	23111	21730	130824	27176	995558	40653	108513	0	0	8325	549006	0	0
2024-05-29 11:04:32			0	38285	0	0	0	23122	21720	130768	27109	995488	40675	108517	0	0	8325	549194	0	0
2024-05-29 11:05:32			0	38259	0	0	0	23124	21730	130904	27105	995585	40653	108518	0	0	8324	550183	0	0
2024-05-29 11:06:32			0	38272	0	0	0	23127	21720	130856	27124	995541	40642	108519	0	0	8324	549703	0	0
2024-05-29 11:07:32			0	38270	0	0	0	23140	21730	130864	26977	995585	40665	108524	0	0	8324	549751	0	0
2024-05-29 11:08:32			0	38276	0	0	0	23137	21730	130892	27076	995603	40653	108523	0	0	8324	549516	0	0
2024-05-29 11:09:32			0	38273	0	0	0	23145	21730	130992	27287	995638	40653	108526	0	0	8324	549634	0	0
2024-05-29 11:10:32			0	38231	0	0	0	23153	21730	130964	27105	995585	40665	108529	0	0	8322	551282	0	0
2024-05-29 11:11:32			0	38225	0	0	0	23155	21740	131104	27076	995673	40654	108530	0	0	8321	551487	0	0
2024-05-29 11:12:32			0	38185	0	0	0	23153	21750	131088	26897	995584	40655	108529	0	0	8319	553029	0	0
2024-05-29 11:13:32			0	38168	0	0	0	23148	21740	131204	27251	995602	40655	108527	0	0	8319	553729	0	0
2024-05-29 11:14:32			0	38170	0	0	0	23129	21740	131348	27201	995620	40643	108520	0	0	8319	553650	0	0
2024-05-29 11:15:32			0	38128	0	0	0	23116	21750	131364	26994	995584	40644	108515	0	0	8317	555275	0	0
2024-05-29 11:16:32			0	38109	0	0	0	23116	21740	131372	27152	995540	40676	108515	0	0	8316	556056	0	0
2024-05-29 11:17:32			0	38093	0	0	0	23106	21720	131444	27211	995541	40642	108511	0	0	8315	556750	0	0
2024-05-29 11:18:32			0	38073	0	0	0	23109	21730	131536	26934	995523	40642	108512	0	0	8314	557510	0	0
2024-05-29 11:19:32			0	38052	0	0	0	23103	21730	131608	26922	995478	40653	108510	0	0	8313	558341	0	0
2024-05-29 11:20:32			0	38037	0	0	0	23096	21720	131616	27225	995506	40641	108507	0	0	8313	558966	0	0
2024-05-29 11:21:32			0	38019	0	0	0	23093	21720	131751	27239	995453	40652	108506	0	0	8312	559680	0	0
2024-05-29 11:22:32			0	38006	0	0	0	23093	21710	131831	27157	995418	40651	108506	0	0	8311	560227	0	0
2024-05-29 11:23:32			0	38009	0	0	0	23085	21720	131903	27059	995427	40652	108503	0	0	8311	560076	0	0
2024-05-29 11:24:32			0	37965	0	0	0	23088	21710	131839	27112	995436	40651	108504	0	0	8309	561855	0	0
2024-05-29 11:25:32			0	37978	0	0	0	23077	21720	131943	27274	995453	40664	108500	0	0	8310	561307	0	0
2024-05-29 11:26:32			0	37947	0	0	0	23096	21710	131955	27150	995436	40663	108507	0	0	8308	562571	0	0
2024-05-29 11:27:32			0	37949	0	0	0	23103	21710	132011	27274	995463	40663	108510	0	0	8308	562491	0	0
2024-05-29 11:28:32			0	37937	0	0	0	23103	21710	132035	27268	995490	40663	108510	0	0	8307	562969	0	0
2024-05-29 11:29:32			0	37935	0	0	0	23098	21720	132071	27261	995506	40630	108508	0	0	8307	563017	0	0
2024-05-29 11:30:32			0	37916	0	0	0	23098	21710	132019	26831	995490	40640	108508	0	0	8306	563805	0	0
2024-05-29 11:31:32			0	37951	0	0	0	23114	21710	132007	27216	995436	40684	108514	0	0	8308	562412	0	0
2024-05-29 11:32:32			0	37947	0	0	0	23111	21710	131975	26816	995516	40663	108513	0	0	8308	562571	0	0
2024-05-29 11:33:32			0	37949	0	0	0	23116	21720	132035	27410	995533	40652	108515	0	0	8308	562460	0	0
2024-05-29 11:34:32			0	37932	0	0	0	23114	21710	131963	27161	995604	40651	108514	0	0	8307	563168	0	0
2024-05-29 11:35:32			0	37952	0	0	0	23122	21720	131959	27112	995480	40664	108517	0	0	8308	562341	0	0
2024-05-29 11:36:32			0	37916	0	0	0	23124	21720	131887	27171	995568	40665	108518	0	0	8306	563774	0	0
2024-05-29 11:37:32			0	37942	0	0	0	23135	21720	131987	27275	995560	40664	108522	0	0	8307	562738	0	0
2024-05-29 11:38:32			0	37954	0	0	0	23124	21720	131995	27095	995488	40665	108518	0	0	8308	562261	0	0
2024-05-29 11:39:32			0	37951	0	0	0	23137	21720	131931	27027	995541	40675	108523	0	0	8307	562380	0	0
2024-05-29 11:40:32			0	37944	0	0	0	23148	21730	132027	26956	995612	40675	108527	0	0	8307	562628	0	0
2024-05-29 11:41:32			0	37951	0	0	0	23150	21730	131991	27083	995630	40675	108528	0	0	8307	562349	0	0
2024-05-29 11:42:32			0	37941	0	0	0	23150	21740	131875	26840	995593	40665	108528	0	0	8307	562716	0	0
2024-05-29 11:43:32			0	37961	0	0	0	23155	21740	131879	27237	995673	40676	108530	0	0	8308	561920	0	0
2024-05-29 11:44:32			0	37969	0	0	0	23150	21740	131951	27149	995567	40654	108528	0	0	8308	561602	0	0
2024-05-29 11:45:32			0	37965	0	0	0	23153	21740	131971	27156	995655	40677	108529	0	0	8308	561761	0	0
2024-05-29 11:46:32			0	37950	0	0	0	23155	21740	131971	27090	995647	40654	108530	0	0	8307	562357	0	0
2024-05-29 11:47:32			0	37950	0	0	0	23153	21730	131887	27237	995612	40686	108529	0	0	8307	562389	0	0
2024-05-29 11:48:32			0	37988	0	0	0	23142	21740	131859	27112	995708	40655	108525	0	0	8309	560848	0	0
2024-05-29 11:49:32			0	37969	0	0	0	23145	21730	131923	27112	995576	40653	108526	0	0	8308	561633	0	0
2024-05-29 11:50:32			0	37975	0	0	0	23140	21740	131967	27301	995628	40666	108524	0	0	8309	561364	0	0
2024-05-29 11:51:32			0	37975	0	0	0	23142	21740	132023	27131	995628	40666	108525	0	0	8309	561364	0	0
2024-05-29 11:52:32			0	37971	0	0	0	23155	21740	131883	26965	995620	40676	108530	0	0	8308	561523	0	0
2024-05-29 11:53:32			0	37977	0	0	0	23140	21740	131947	26882	995628	40688	108524	0	0	8309	561284	0	0
2024-05-29 11:54:32			0	37981	0	0	0	23145	21750	131931	27116	995690	40677	108526	0	0	8309	561094	0	0
2024-05-29 11:55:32			0	37976	0	0	0	23140	21730	131903	27332	995656	40665	108524	0	0	8309	561355	0	0
2024-05-29 11:56:32			0	37997	0	0	0	23148	21750	131851	27206	995672	40677	108527	0	0	8310	560459	0	0
2024-05-29 11:57:32			0	37988	0	0	0	23145	21750	131819	27003	995610	40677	108526	0	0	8309	560816	0	0
2024-05-29 11:58:32			0	37988	0	0	0	23148	21750	131847	27098	995637	40655	108527	0	0	8309	560816	0	0
2024-05-29 11:59:32			0	37970	0	0	0	23140	21750	131735	26958	995584	40655	108524	0	0	8309	561531	0	0
2024-05-29 12:00:32			0	38000	0	0	0	23137	21750	131795	26863	995610	40655	108523	0	0	8310	560340	0	0
2024-05-29 12:01:32			0	37991	0	0	0	23140	21750	131759	27424	995610	40655	108524	0	0	8310	560697	0	0
2024-05-29 12:02:32			0	38016	0	0	0	23132	21740	131823	27109	995549	40666	108521	0	0	8311	559736	0	0
2024-05-29 12:03:32			0	38001	0	0	0	23114	21740	131727	27324	995575	40655	108514	0	0	8311	560331	0	0
2024-05-29 12:04:32			0	38014	0	0	0	23101	21740	131779	26986	995602	40655	108509	0	0	8311	559816	0	0
2024-05-29 12:05:32			0	38038	0	0	0	23077	21730	131772	27090	995576	40665	108500	0	0	8313	558896	0	0
2024-05-29 12:06:32			0	38040	0	0	0	23072	21730	131652	26906	995470	40653	108498	0	0	8313	558816	0	0
2024-05-29 12:07:32			0	38060	0	0	0	23070	21720	131620	26899	995462	40642	108497	0	0	8314	558055	0	0
2024-05-29 12:08:32			0	38072	0	0	0	23064	21720	131580	27398	995506	40630	108495	0	0	8315	557581	0	0
2024-05-29 12:09:32			0	38092	0	0	0	23075	21710	131456	26920	995471	40651	108499	0	0	8316	556821	0	0
2024-05-29 12:10:32			0	38088	0	0	0	23083	21720	131400	27157	995480	40652	108502	0	0	8315	556948	0	0
2024-05-29 12:11:32			0	38118	0	0	0	23098	21710	131408	26826	995471	40651	108508	0	0	8317	555793	0	0
2024-05-29 12:12:32			0	38129	0	0	0	23098	21710	131316	27166	995471	40651	108508	0	0	8317	555359	0	0
2024-05-29 12:13:32			0	38136	0	0	0	23098	21710	131432	27066	995463	40651	108508	0	0	8318	555083	0	0
2024-05-29 12:14:32			0	38123	0	0	0	23101	21710	131240	27334	995445	40673	108509	0	0	8317	555596	0	0
2024-05-29 12:15:32			0	38153	0	0	0	23101	21710	131284	27057	995445	40651	108509	0	0	8319	554413	0	0
2024-05-29 12:16:32			0	38176	0	0	0	23098	21710	131212	27135	995445	40651	108508	0	0	8320	553507	0	0
2024-05-29 12:17:32			0	38174	0	0	0	23098	21710	131148	26925	995498	40640	108508	0	0	8320	553585	0	0
2024-05-29 12:18:32			0	38182	0	0	0	23096	21720	131096	27086	995453	40641	108507	0	0	8320	553239	0	0
2024-05-29 12:19:32			0	38191	0	0	0	23096	21710	131096	27157	995463	40673	108507	0	0	8321	552916	0	0
2024-05-29 12:20:32			0	38208	0	0	0	23101	21700	131156	27199	995481	40651	108509	0	0	8321	552278	0	0
2024-05-29 12:21:32			0	38205	0	0	0	23101	21720	131120	27149	995515	40642	108509	0	0	8321	552334	0	0
2024-05-29 12:22:32			0	38193	0	0	0	23106	21710	131128	26965	995551	40663	108511	0	0	8321	552837	0	0
2024-05-29 12:23:32			0	38180	0	0	0	23114	21710	131100	27001	995569	40673	108514	0	0	8320	553349	0	0
2024-05-29 12:24:32			0	38186	0	0	0	23127	21710	131228	27081	995543	40673	108519	0	0	8320	553113	0	0
2024-05-29 12:25:32			0	38122	0	0	0	23148	21730	131296	27296	995576	40665	108527	0	0	8316	555574	0	0
2024-05-29 12:26:32			0	38129	0	0	0	23153	21720	131244	26991	995675	40675	108529	0	0	8316	555328	0	0
2024-05-29 12:27:32			0	38113	0	0	0	23171	21730	131452	26878	995665	40675	108536	0	0	8315	555929	0	0
2024-05-29 12:28:32			0	38063	0	0	0	23168	21740	131472	26972	995726	40676	108535	0	0	8313	557875	0	0
2024-05-29 12:29:32			0	38074	0	0	0	23179	21740	131544	26887	995726	40676	108539	0	0	8313	557439	0	0
2024-05-29 12:30:32			0	38041	0	0	0	23174	21750	131536	26951	995717	40666	108537	0	0	8312	558714	0	0
2024-05-29 12:31:32			0	38018	0	0	0	23174	21750	131667	27088	995770	40677	108537	0	0	8310	559626	0	0
2024-05-29 12:32:32			0	38017	0	0	0	23197	21760	131723	27381	995848	40678	108546	0	0	8310	559634	0	0
2024-05-29 12:33:32			0	37981	0	0	0	23225	21790	131775	27211	995997	40691	108557	0	0	8308	560969	0	0
2024-05-29 12:34:32			0	37968	0	0	0	23249	21800	131823	27145	996014	40692	108566	0	0	8307	561454	0	0
2024-05-29 12:35:32			0	37933	0	0	0	23288	21810	131959	27185	996111	40682	108581	0	0	8304	562815	0	0
2024-05-29 12:36:32			0	37912	0	0	0	23309	21830	131939	27301	996198	40696	108589	0	0	8303	563588	0	0
2024-05-29 12:37:32			0	37903	0	0	0	23329	21840	132035	27176	996295	40685	108597	0	0	8302	563915	0	0
2024-05-29 12:38:32			0	37868	0	0	0	23361	21850	132035	27007	996338	40697	108609	0	0	8300	565279	0	0
2024-05-29 12:39:32			0	37874	0	0	0	23381	21870	132119	27124	996434	40710	108617	0	0	8300	564976	0	0
2024-05-29 12:40:32			0	37876	0	0	0	23410	21890	132159	27298	996539	40711	108628	0	0	8300	564834	0	0
2024-05-29 12:41:32			0	37843	0	0	0	23433	21900	132171	27216	996582	40723	108637	0	0	8298	566119	0	0
2024-05-29 12:42:32			0	37837	0	0	0	23451	21930	132131	27138	996793	40716	108644	0	0	8297	566264	0	0
2024-05-29 12:43:32			0	37822	0	0	0	23483	21940	132191	27026	996818	40717	108656	0	0	8296	566831	0	0
2024-05-29 12:44:32			0	37831	0	0	0	23493	21950	132235	27083	996888	40718	108660	0	0	8296	566440	0	0
2024-05-29 12:45:32			0	37847	0	0	0	23501	21980	132239	27369	996931	40708	108663	0	0	8297	565707	0	0
2024-05-29 12:46:32			0	37833	0	0	0	23501	21990	132143	26840	997054	40721	108663	0	0	8296	566234	0	0
2024-05-29 12:47:32			0	37835	0	0	0	23503	22000	132203	27126	996991	40700	108664	0	0	8296	566123	0	0
2024-05-29 12:48:32			0	37838	0	0	0	23477	22010	132195	27131	996955	40712	108654	0	0	8297	565971	0	0
2024-05-29 12:49:32			0	37868	0	0	0	23451	22010	132035	27038	996893	40700	108644	0	0	8299	564775	0	0
2024-05-29 12:50:32			0	37865	0	0	0	23425	22010	132007	27319	996866	40700	108634	0	0	8299	564894	0	0
2024-05-29 12:51:32			0	37904	0	0	0	23405	22000	132071	27384	996778	40678	108626	0	0	8302	563372	0	0
2024-05-29 12:52:32			0	37905	0	0	0	23381	21990	131883	27135	996690	40678	108617	0	0	8302	563364	0	0
2024-05-29 12:53:32			0	37923	0	0	0	23363	21980	131819	27265	996646	40676	108610	0	0	8303	562679	0	0
2024-05-29 12:54:32			0	37919	0	0	0	23342	21980	131859	26880	996638	40698	108602	0	0	8303	562838	0	0
2024-05-29 12:55:32			0	37919	0	0	0	23322	21970	131811	27100	996576	40675	108594	0	0	8304	562870	0	0
2024-05-29 12:56:32			0	37926	0	0	0	23322	21960	131727	27279	996524	40696	108594	0	0	8304	562623	0	0
2024-05-29 12:57:32			0	37966	0	0	0	23314	21950	131763	26731	996533	40685	108591	0	0	8306	561065	0	0
2024-05-29 12:58:32			0	37972	0	0	0	23306	21950	131763	27142	996542	40673	108588	0	0	8307	560827	0	0
2024-05-29 12:59:32			0	37984	0	0	0	23301	21950	131635	27137	996480	40685	108586	0	0	8307	560350	0	0
2024-05-29 13:00:32			0	37976	0	0	0	23303	21930	131735	27196	996455	40694	108587	0	0	8307	560730	0	0
2024-05-29 13:01:32			0	38002	0	0	0	23296	21940	131635	27074	996498	40684	108584	0	0	8308	559668	0	0
2024-05-29 13:02:32			0	37993	0	0	0	23290	21930	131519	27033	996455	40694	108582	0	0	8308	560056	0	0
2024-05-29 13:03:32			0	37996	0	0	0	23301	21940	131543	27414	996463	40683	108586	0	0	8308	559906	0	0
2024-05-29 13:04:32			0	37993	0	0	0	23290	21930	131595	26968	996367	40683	108582	0	0	8308	560056	0	0
2024-05-29 13:05:32			0	38013	0	0	0	23283	21910	131655	27393	996395	40681	108579	0	0	8309	559326	0	0
2024-05-29 13:06:32			0	38033	0	0	0	23283	21920	131484	27377	996403	40670	108579	0	0	8310	558502	0	0
2024-05-29 13:07:32			0	38020	0	0	0	23275	21920	131507	27237	996376	40670	108576	0	0	8310	559017	0	0
2024-05-29 13:08:32			0	38040	0	0	0	23280	21910	131608	27319	996360	40680	108578	0	0	8310	558256	0	0
2024-05-29 13:09:32			0	38028	0	0	0	23275	21910	131524	27003	996333	40692	108576	0	0	8310	558731	0	0
2024-05-29 13:10:32			0	38024	0	0	0	23283	21910	131531	27196	996341	40681	108579	0	0	8310	558890	0	0
2024-05-29 13:11:32			0	38034	0	0	0	23267	21910	131539	27149	996395	40670	108573	0	0	8310	558494	0	0
2024-05-29 13:12:32			0	38040	0	0	0	23275	21900	131464	27346	996351	40692	108576	0	0	8310	558287	0	0
2024-05-29 13:13:32			0	38044	0	0	0	23275	21900	131588	27322	996316	40691	108576	0	0	8311	558129	0	0
2024-05-29 13:14:32			0	38056	0	0	0	23272	21900	131520	27447	996343	40679	108575	0	0	8311	557654	0	0
2024-05-29 13:15:32			0	38069	0	0	0	23277	21890	131444	27052	996273	40667	108577	0	0	8312	557171	0	0
2024-05-29 13:16:32			0	38066	0	0	0	23262	21890	131420	27105	996281	40679	108571	0	0	8312	557290	0	0
2024-05-29 13:17:32			0	38068	0	0	0	23254	21900	131364	26982	996289	40702	108568	0	0	8312	557180	0	0
2024-05-29 13:18:32			0	38046	0	0	0	23264	21890	131376	27104	996219	40679	108572	0	0	8311	558081	0	0
2024-05-29 13:19:32			0	38063	0	0	0	23259	21890	131416	27220	996254	40690	108570	0	0	8312	557409	0	0
2024-05-29 13:20:32			0	38078	0	0	0	23264	21880	131352	26736	996176	40700	108572	0	0	8313	556847	0	0
2024-05-29 13:21:32			0	38096	0	0	0	23262	21880	131368	27272	996264	40690	108571	0	0	8314	556136	0	0
2024-05-29 13:22:32			0	38106	0	0	0	23264	21880	131336	27069	996317	40690	108572	0	0	8314	555741	0	0
2024-05-29 13:23:32			0	38096	0	0	0	23262	21880	131324	27176	996237	40679	108571	0	0	8314	556136	0	0
2024-05-29 13:24:32			0	38104	0	0	0	23264	21890	131272	27213	996299	40679	108572	0	0	8314	555789	0	0
2024-05-29 13:25:32			0	38116	0	0	0	23267	21890	131240	27293	996273	40667	108573	0	0	8315	555316	0	0
2024-05-29 13:26:32			0	38121	0	0	0	23280	21880	131220	26989	996309	40678	108578	0	0	8315	555149	0	0
2024-05-29 13:27:32			0	38135	0	0	0	23290	21880	131244	27053	996291	40679	108582	0	0	8315	554597	0	0
2024-05-29 13:28:32			0	38137	0	0	0	23288	21890	131212	27303	996334	40690	108581	0	0	8315	554488	0	0
2024-05-29 13:29:32			0	38138	0	0	0	23296	21900	131224	26991	996343	40691	108584	0	0	8315	554417	0	0
2024-05-29 13:30:32			0	38156	0	0	0	23309	21890	131176	27131	996361	40679	108589	0	0	8316	553739	0	0
2024-05-29 13:31:32			0	38158	0	0	0	23301	21900	131116	27170	996404	40692	108586	0	0	8316	553629	0	0
2024-05-29 13:32:32			0	38145	0	0	0	23309	21900	131128	27152	996369	40691	108589	0	0	8315	554141	0	0
2024-05-29 13:33:32			0	38174	0	0	0	23309	21910	131012	26922	996395	40692	108589	0	0	8317	552969	0	0
2024-05-29 13:34:32			0	38180	0	0	0	23324	21900	131116	27232	996404	40703	108595	0	0	8317	552764	0	0
2024-05-29 13:35:32			0	38177	0	0	0	23316	21910	130988	27279	996439	40692	108592	0	0	8317	552851	0	0
2024-05-29 13:36:32			0	38194	0	0	0	23316	21910	131092	27123	996413	40692	108592	0	0	8318	552183	0	0
2024-05-29 13:37:32			0	38192	0	0	0	23316	21920	131052	27185	996430	40704	108592	0	0	8318	552230	0	0
2024-05-29 13:38:32			0	38193	0	0	0	23309	21920	131048	27350	996456	40670	108589	0	0	8318	552191	0	0
2024-05-29 13:39:32			0	38196	0	0	0	23314	21910	130976	27076	996413	40680	108591	0	0	8318	552104	0	0
2024-05-29 13:40:32			0	38213	0	0	0	23319	21910	130976	27383	996421	40692	108593	0	0	8319	551436	0	0
2024-05-29 13:41:32			0	38204	0	0	0	23319	21920	130916	27138	996456	40704	108593	0	0	8318	551759	0	0
2024-05-29 13:42:32			0	38211	0	0	0	23324	21910	130956	27144	996421	40692	108595	0	0	8319	551515	0	0
2024-05-29 13:43:32			0	38208	0	0	0	23324	21920	130880	27066	996438	40693	108595	0	0	8318	551602	0	0
2024-05-29 13:44:32			0	38210	0	0	0	23332	21920	130840	27263	996483	40692	108598	0	0	8318	551523	0	0
2024-05-29 13:45:32			0	38242	0	0	0	23337	21920	130896	27227	996518	40705	108600	0	0	8320	550267	0	0
2024-05-29 13:46:32			0	38224	0	0	0	23340	21930	130956	27164	996473	40705	108601	0	0	8319	550943	0	0
2024-05-29 13:47:32			0	38226	0	0	0	23342	21930	130868	27326	996535	40683	108602	0	0	8319	550864	0	0
2024-05-29 13:48:32			0	38212	0	0	0	23348	21940	130892	26981	996552	40695	108604	0	0	8318	551383	0	0
2024-05-29 13:49:32			0	38212	0	0	0	23340	21940	130960	27260	996543	40705	108601	0	0	8318	551383	0	0
2024-05-29 13:50:32			0	38224	0	0	0	23324	21930	130976	27144	996455	40672	108595	0	0	8319	550943	0	0
2024-05-29 13:51:32			0	38220	0	0	0	23314	21930	130852	27255	996446	40683	108591	0	0	8319	551100	0	0
2024-05-29 13:52:32			0	38221	0	0	0	23309	21920	130912	27074	996465	40671	108589	0	0	8319	551091	0	0
2024-05-29 13:53:32			0	38201	0	0	0	23303	21920	130912	27150	996403	40681	108587	0	0	8318	551877	0	0
2024-05-29 13:54:32			0	38224	0	0	0	23298	21920	130824	27237	996403	40692	108585	0	0	8320	550973	0	0
2024-05-29 13:55:32			0	38189	0	0	0	23290	21920	130928	27523	996403	40692	108582	0	0	8318	552348	0	0
2024-05-29 13:56:32			0	38217	0	0	0	23290	21910	130940	27244	996413	40680	108582	0	0	8319	551279	0	0
2024-05-29 13:57:32			0	38194	0	0	0	23285	21900	130920	27547	996369	40691	108580	0	0	8318	552213	0	0
2024-05-29 13:58:32			0	38203	0	0	0	23285	21900	130932	27398	996369	40691	108580	0	0	8319	551860	0	0
2024-05-29 13:59:32			0	38188	0	0	0	23285	21910	130988	27239	996333	40692	108580	0	0	8318	552418	0	0
2024-05-29 14:00:32			0	38181	0	0	0	23288	21900	130968	27313	996396	40668	108581	0	0	8318	552724	0	0
2024-05-29 14:01:32			0	38177	0	0	0	23277	21900	131004	27467	996351	40692	108577	0	0	8318	552882	0	0
2024-05-29 14:02:32			0	38189	0	0	0	23280	21890	131012	27315	996326	40690	108578	0	0	8318	552441	0	0
2024-05-29 14:03:32			0	38161	0	0	0	23280	21890	131024	27190	996273	40690	108578	0	0	8317	553542	0	0
2024-05-29 14:04:32			0	38168	0	0	0	23280	21900	131060	27322	996263	40691	108578	0	0	8317	553236	0	0
2024-05-29 14:05:32			0	38146	0	0	0	23272	21900	131092	27220	996263	40691	108575	0	0	8316	554102	0	0
2024-05-29 14:06:32			0	38163	0	0	0	23272	21900	131076	27203	996236	40668	108575	0	0	8317	553433	0	0
2024-05-29 14:07:32			0	38142	0	0	0	23259	21890	131124	27358	996254	40667	108570	0	0	8316	554291	0	0
2024-05-29 14:08:32			0	38146	0	0	0	23262	21880	131160	27381	996237	40679	108571	0	0	8316	554164	0	0
2024-05-29 14:09:32			0	38121	0	0	0	23267	21890	131132	27246	996273	40690	108573	0	0	8315	555118	0	0
2024-05-29 14:10:32			0	38128	0	0	0	23262	21890	131276	27493	996361	40667	108571	0	0	8315	554842	0	0
2024-05-29 14:11:32			0	38134	0	0	0	23267	21880	131212	27150	996344	40690	108573	0	0	8315	554637	0	0
2024-05-29 14:12:32			0	38120	0	0	0	23264	21890	131236	27331	996273	40690	108572	0	0	8315	555158	0	0
2024-05-29 14:13:32			0	38117	0	0	0	23259	21890	131268	27480	996326	40690	108570	0	0	8315	555276	0	0
2024-05-29 14:14:32			0	38132	0	0	0	23270	21890	131236	27249	996326	40701	108574	0	0	8315	554685	0	0
2024-05-29 14:15:32			0	38117	0	0	0	23272	21880	131324	27163	996371	40690	108575	0	0	8314	555307	0	0
2024-05-29 14:16:32			0	38116	0	0	0	23267	21890	131412	27261	996308	40690	108573	0	0	8315	555316	0	0
2024-05-29 14:17:32			0	38098	0	0	0	23275	21880	131308	27393	996291	40701	108576	0	0	8313	556057	0	0
2024-05-29 14:18:32			0	38097	0	0	0	23283	21880	131276	27374	996291	40690	108579	0	0	8313	556096	0	0
2024-05-29 14:19:32			0	38117	0	0	0	23277	21890	131300	27566	996326	40667	108577	0	0	8314	555276	0	0
2024-05-29 14:20:32			0	38108	0	0	0	23288	21890	131320	27227	996387	40690	108581	0	0	8314	555631	0	0
2024-05-29 14:21:32			0	38105	0	0	0	23283	21890	131300	27448	996387	40679	108579	0	0	8314	555750	0	0
2024-05-29 14:22:32			0	38097	0	0	0	23296	21880	131308	27249	996371	40690	108584	0	0	8313	556096	0	0
2024-05-29 14:23:32			0	38104	0	0	0	23290	21890	131344	27095	996379	40690	108582	0	0	8314	555789	0	0
2024-05-29 14:24:32			0	38126	0	0	0	23301	21890	131300	27209	996361	40701	108586	0	0	8314	554921	0	0
2024-05-29 14:25:32			0	38108	0	0	0	23290	21900	131300	27429	996316	40691	108582	0	0	8314	555600	0	0
2024-05-29 14:26:32			0	38111	0	0	0	23301	21910	131260	27287	996439	40692	108586	0	0	8314	555451	0	0
2024-05-29 14:27:32			0	38113	0	0	0	23296	21900	131316	27057	996378	40680	108584	0	0	8314	555403	0	0
2024-05-29 14:28:32			0	38108	0	0	0	23290	21890	131252	27407	996379	40690	108582	0	0	8314	555631	0	0
2024-05-29 14:29:32			0	38131	0	0	0	23285	21890	131220	27242	996334	40690	108580	0	0	8315	554724	0	0
2024-05-29 14:30:32			0	38102	0	0	0	23288	21890	131272	27209	996334	40679	108581	0	0	8313	555868	0	0
2024-05-29 14:31:32			0	38136	0	0	0	23283	21890	131228	27209	996308	40690	108579	0	0	8315	554527	0	0
2024-05-29 14:32:32			0	38109	0	0	0	23270	21890	131240	27441	996281	40690	108574	0	0	8314	555592	0	0
2024-05-29 14:33:32			0	38136	0	0	0	23262	21890	131176	27118	996299	40690	108571	0	0	8316	554527	0	0
2024-05-29 14:34:32			0	38122	0	0	0	23259	21890	131228	27209	996379	40667	108570	0	0	8315	555079	0	0
2024-05-29 14:35:32			0	38100	0	0	0	23251	21890	131224	27396	996352	40690	108567	0	0	8314	555947	0	0
2024-05-29 14:36:32			0	38096	0	0	0	23262	21890	131272	27093	996379	40701	108571	0	0	8314	556105	0	0
2024-05-29 14:37:32			0	38103	0	0	0	23277	21900	131216	27474	996396	40679	108577	0	0	8314	555797	0	0
2024-05-29 14:38:32			0	38113	0	0	0	23275	21900	131244	27454	996396	40691	108576	0	0	8314	555403	0	0
2024-05-29 14:39:32			0	38120	0	0	0	23275	21890	131208	27358	996441	40667	108576	0	0	8315	555158	0	0
2024-05-29 14:40:32			0	38100	0	0	0	23280	21900	131260	27307	996396	40691	108578	0	0	8314	555916	0	0
2024-05-29 14:41:32			0	38098	0	0	0	23275	21910	131212	27121	996386	40692	108576	0	0	8314	555964	0	0
2024-05-29 14:42:32			0	38093	0	0	0	23275	21900	131360	26961	996378	40692	108576	0	0	8313	556192	0	0
2024-05-29 14:43:32			0	38094	0	0	0	23275	21910	131272	27493	996386	40692	108576	0	0	8313	556122	0	0
2024-05-29 14:44:32			0	38074	0	0	0	23277	21900	131360	27357	996404	40669	108577	0	0	8312	556943	0	0
2024-05-29 14:45:32			0	38067	0	0	0	23267	21900	131380	27230	996351	40692	108573	0	0	8312	557219	0	0
2024-05-29 14:46:32			0	38050	0	0	0	23275	21910	131380	27362	996413	40680	108576	0	0	8311	557861	0	0
2024-05-29 14:47:32			0	38057	0	0	0	23272	21910	131424	27159	996474	40692	108575	0	0	8311	557584	0	0
2024-05-29 14:48:32			0	38041	0	0	0	23280	21910	131432	27383	996466	40669	108578	0	0	8310	558217	0	0
2024-05-29 14:49:32			0	38058	0	0	0	23262	21900	131480	27460	996431	40692	108571	0	0	8312	557575	0	0
2024-05-29 14:50:32			0	38016	0	0	0	23257	21910	131551	27206	996360	40669	108569	0	0	8310	559207	0	0
2024-05-29 14:51:32			0	38015	0	0	0	23259	21900	131427	27469	996369	40668	108570	0	0	8309	559278	0	0
2024-05-29 14:52:32			0	38033	0	0	0	23249	21900	131508	27315	996298	40669	108566	0	0	8311	558565	0	0
2024-05-29 14:53:32			0	38009	0	0	0	23246	21900	131523	27216	996369	40691	108565	0	0	8309	559515	0	0
2024-05-29 14:54:32			0	38037	0	0	0	23254	21890	131660	26922	996254	40657	108568	0	0	8311	558437	0	0
2024-05-29 14:55:32			0	38024	0	0	0	23259	21890	131679	27320	996387	40690	108570	0	0	8310	558952	0	0
2024-05-29 14:56:32			0	38011	0	0	0	23270	21890	131599	27208	996387	40667	108574	0	0	8309	559467	0	0
2024-05-29 14:57:32			0	38012	0	0	0	23277	21890	131627	27369	996441	40679	108577	0	0	8309	559427	0	0
2024-05-29 14:58:32			0	38003	0	0	0	23290	21910	131695	27258	996474	40692	108582	0	0	8308	559722	0	0
2024-05-29 14:59:32			0	37991	0	0	0	23301	21910	131599	27275	996439	40680	108586	0	0	8308	560198	0	0
2024-05-29 15:00:32			0	38000	0	0	0	23303	21910	131735	27078	996448	40681	108587	0	0	8308	559841	0	0
2024-05-29 15:01:32			0	38009	0	0	0	23309	21910	131743	27232	996528	40704	108589	0	0	8308	559484	0	0
2024-05-29 15:02:32			0	37978	0	0	0	23322	21930	131639	27166	996606	40694	108594	0	0	8307	560651	0	0
2024-05-29 15:03:32			0	37995	0	0	0	23324	21930	131747	27338	996526	40672	108595	0	0	8307	559977	0	0
2024-05-29 15:04:32			0	37993	0	0	0	23329	21930	131627	27118	996641	40705	108597	0	0	8307	560056	0	0
2024-05-29 15:05:32			0	37970	0	0	0	23329	21940	131707	27369	996623	40694	108597	0	0	8306	560937	0	0
2024-05-29 15:06:32			0	37952	0	0	0	23335	21940	131623	27133	996676	40694	108599	0	0	8305	561652	0	0
2024-05-29 15:07:32			0	37984	0	0	0	23327	21950	131687	27348	996649	40696	108596	0	0	8307	560350	0	0
2024-05-29 15:08:32			0	37974	0	0	0	23327	21950	131679	26916	996649	40673	108596	0	0	8306	560747	0	0
2024-05-29 15:09:32			0	37967	0	0	0	23337	21950	131695	27175	996693	40696	108600	0	0	8306	561025	0	0
2024-05-29 15:10:32			0	37973	0	0	0	23327	21950	131687	27296	996640	40696	108596	0	0	8306	560787	0	0
2024-05-29 15:11:32			0	37976	0	0	0	23337	21960	131699	27142	996719	40697	108600	0	0	8306	560636	0	0
2024-05-29 15:12:32			0	37959	0	0	0	23324	21960	131679	27388	996684	40673	108595	0	0	8306	561311	0	0
2024-05-29 15:13:32			0	37969	0	0	0	23316	21960	131671	27391	996639	40674	108592	0	0	8306	560914	0	0
2024-05-29 15:14:32			0	37954	0	0	0	23309	21960	131707	27265	996612	40674	108589	0	0	8306	561510	0	0
2024-05-29 15:15:32			0	37953	0	0	0	23309	21950	131707	27229	996595	40673	108589	0	0	8306	561581	0	0
2024-05-29 15:16:32			0	37949	0	0	0	23283	21950	131671	27206	996587	40685	108579	0	0	8306	561740	0	0
2024-05-29 15:17:32			0	37976	0	0	0	23272	21940	131715	27140	996517	40672	108575	0	0	8307	560699	0	0
2024-05-29 15:18:32			0	37965	0	0	0	23267	21940	131655	26960	996490	40672	108573	0	0	8307	561136	0	0
2024-05-29 15:19:32			0	37988	0	0	0	23275	21940	131739	27235	996517	40672	108576	0	0	8308	560223	0	0
2024-05-29 15:20:32			0	37962	0	0	0	23262	21930	131663	27388	996508	40661	108571	0	0	8307	561286	0	0
2024-05-29 15:21:32			0	37960	0	0	0	23254	21930	131615	27495	996446	40683	108568	0	0	8307	561366	0	0
2024-05-29 15:22:32			0	37972	0	0	0	23249	21920	131659	27524	996358	40671	108566	0	0	8307	560920	0	0
2024-05-29 15:23:32			0	37980	0	0	0	23241	21930	131719	27256	996393	40683	108563	0	0	8308	560572	0	0
2024-05-29 15:24:32			0	37992	0	0	0	23233	21920	131635	27229	996358	40671	108560	0	0	8309	560127	0	0
2024-05-29 15:25:32			0	38005	0	0	0	23231	21910	131715	27286	996421	40670	108559	0	0	8309	559643	0	0
2024-05-29 15:26:32			0	37991	0	0	0	23228	21910	131743	27168	996368	40681	108558	0	0	8309	560198	0	0
2024-05-29 15:27:32			0	37979	0	0	0	23231	21900	131707	27039	996378	40680	108559	0	0	8308	560705	0	0
2024-05-29 15:28:32			0	37985	0	0	0	23231	21910	131651	27383	996368	40670	108559	0	0	8308	560436	0	0
2024-05-29 15:29:32			0	37977	0	0	0	23231	21910	131659	27317	996360	40669	108559	0	0	8308	560753	0	0
2024-05-29 15:30:32			0	38004	0	0	0	23215	21910	131639	27218	996360	40659	108553	0	0	8310	559682	0	0
2024-05-29 15:31:32			0	38001	0	0	0	23215	21910	131667	27331	996360	40659	108553	0	0	8310	559801	0	0
2024-05-29 15:32:32			0	37972	0	0	0	23207	21910	131559	27180	996306	40669	108550	0	0	8308	560952	0	0
2024-05-29 15:33:32			0	37997	0	0	0	23199	21890	131539	27355	996308	40657	108547	0	0	8309	560022	0	0
2024-05-29 15:34:32			0	38006	0	0	0	23210	21900	131499	27732	996324	40669	108551	0	0	8310	559634	0	0
2024-05-29 15:35:32			0	38010	0	0	0	23215	21890	131555	27277	996308	40679	108553	0	0	8310	559507	0	0
2024-05-29 15:36:32			0	38012	0	0	0	23225	21900	131595	27331	996316	40668	108557	0	0	8310	559396	0	0
2024-05-29 15:37:32			0	38019	0	0	0	23228	21900	131599	27100	996404	40659	108558	0	0	8310	559119	0	0
2024-05-29 15:38:32			0	38018	0	0	0	23236	21890	131515	27296	996334	40667	108561	0	0	8310	559190	0	0
2024-05-29 15:39:32			0	38023	0	0	0	23249	21910	131547	27255	996413	40659	108566	0	0	8310	558929	0	0
2024-05-29 15:40:32			0	38027	0	0	0	23249	21910	131524	27223	996386	40659	108566	0	0	8310	558771	0	0
2024-05-29 15:41:32			0	38023	0	0	0	23259	21910	131515	27057	996413	40692	108570	0	0	8310	558929	0	0
2024-05-29 15:42:32			0	38043	0	0	0	23264	21910	131448	27104	996439	40669	108572	0	0	8311	558138	0	0
2024-05-29 15:43:32			0	38056	0	0	0	23288	21920	131408	27310	996563	40681	108581	0	0	8311	557592	0	0
2024-05-29 15:44:32			0	38042	0	0	0	23311	21930	131372	27079	996588	40694	108590	0	0	8310	558115	0	0
2024-05-29 15:45:32			0	38047	0	0	0	23342	21940	131444	27112	996810	40694	108602	0	0	8310	557886	0	0
2024-05-29 15:46:32			0	38056	0	0	0	23381	21960	131356	27416	996879	40697	108617	0	0	8310	557468	0	0
2024-05-29 15:47:32			0	38048	0	0	0	23415	21970	131380	27183	996994	40698	108630	0	0	8309	557753	0	0
2024-05-29 15:48:32			0	38043	0	0	0	23477	21990	131420	27242	997187	40732	108654	0	0	8308	557889	0	0
2024-05-29 15:49:32			0	38049	0	0	0	23553	22030	131440	27194	997335	40736	108683	0	0	8307	557527	0	0
2024-05-29 15:50:32			0	38015	0	0	0	23586	22070	131499	27355	997536	40717	108696	0	0	8305	558748	0	0
2024-05-29 15:51:32			0	38018	0	0	0	23612	22110	131351	27358	997755	40732	108706	0	0	8305	558504	0	0
2024-05-29 15:52:32			0	38024	0	0	0	23625	22140	131384	27282	997805	40734	108711	0	0	8305	558174	0	0
2024-05-29 15:53:32			0	38011	0	0	0	23641	22150	131347	27105	997884	40736	108717	0	0	8304	558657	0	0
2024-05-29 15:54:32			0	38036	0	0	0	23644	22180	131396	27235	997900	40727	108718	0	0	8305	557574	0	0
2024-05-29 15:55:32			0	38050	0	0	0	23628	22180	131332	27447	997828	40716	108712	0	0	8306	557021	0	0
2024-05-29 15:56:32			0	38038	0	0	0	23599	22180	131332	27320	997722	40695	108701	0	0	8306	557496	0	0
2024-05-29 15:57:32			0	38059	0	0	0	23571	22170	131236	27225	997678	40683	108690	0	0	8308	556697	0	0
2024-05-29 15:58:32			0	38063	0	0	0	23563	22180	131264	27138	997740	40715	108687	0	0	8308	556508	0	0
2024-05-29 15:59:32			0	38082	0	0	0	23550	22190	131200	27234	997703	40728	108682	0	0	8309	555727	0	0
2024-05-29 16:00:32			0	38094	0	0	0	23537	22190	131172	27229	997597	40684	108677	0	0	8310	555254	0	0
2024-05-29 16:01:32			0	38105	0	0	0	23509	22170	131084	27199	997590	40694	108666	0	0	8311	554883	0	0
2024-05-29 16:02:32			0	38112	0	0	0	23480	22160	131188	27390	997413	40692	108655	0	0	8312	554638	0	0
2024-05-29 16:03:32			0	38118	0	0	0	23454	22140	131116	27076	997273	40679	108645	0	0	8312	554463	0	0
2024-05-29 16:04:32			0	38148	0	0	0	23423	22120	130984	27046	997194	40657	108633	0	0	8314	553344	0	0
2024-05-29 16:05:32			0	38153	0	0	0	23402	22100	130960	27512	997152	40665	108625	0	0	8315	553209	0	0
2024-05-29 16:06:32			0	38170	0	0	0	23394	22090	130856	27476	997143	40708	108622	0	0	8316	552572	0	0
2024-05-29 16:07:32			0	38171	0	0	0	23405	22090	130904	27220	997143	40708	108626	0	0	8316	552532	0	0
2024-05-29 16:08:32			0	38187	0	0	0	23402	22090	130800	27334	997250	40697	108625	0	0	8317	551904	0	0
2024-05-29 16:09:32			0	38182	0	0	0	23399	22090	130768	27060	997303	40686	108624	0	0	8317	552100	0	0
2024-05-29 16:10:32			0	38199	0	0	0	23415	22110	130724	27270	997364	40688	108630	0	0	8317	551371	0	0
2024-05-29 16:11:32			0	38213	0	0	0	23441	22130	130788	27105	997549	40723	108640	0	0	8318	550760	0	0
2024-05-29 16:12:32			0	38217	0	0	0	23477	22140	130784	27130	997646	40712	108654	0	0	8317	550572	0	0
2024-05-29 16:13:32			0	38219	0	0	0	23498	22160	130744	27149	997768	40715	108662	0	0	8317	550433	0	0
2024-05-29 16:14:32			0	38208	0	0	0	23511	22180	130684	27098	997828	40695	108667	0	0	8316	550802	0	0
2024-05-29 16:15:32			0	38214	0	0	0	23529	22190	130712	27166	997890	40717	108674	0	0	8316	550536	0	0
2024-05-29 16:16:32			0	38218	0	0	0	23535	22200	130736	27111	997774	40708	108676	0	0	8317	550349	0	0
2024-05-29 16:17:32			0	38205	0	0	0	23503	22190	130700	27128	997659	40697	108664	0	0	8316	550889	0	0
2024-05-29 16:18:32			0	38212	0	0	0	23475	22180	130736	26934	997562	40695	108653	0	0	8317	550646	0	0
2024-05-29 16:19:32			0	38194	0	0	0	23464	22160	130720	27230	997413	40681	108649	0	0	8316	551413	0	0
2024-05-29 16:20:32			0	38201	0	0	0	23444	22140	130728	27421	997326	40668	108641	0	0	8317	551200	0	0
2024-05-29 16:21:32			0	38212	0	0	0	23418	22140	130760	27504	997273	40679	108631	0	0	8318	550768	0	0
2024-05-29 16:22:32			0	38224	0	0	0	23389	22110	130732	27140	997177	40666	108620	0	0	8319	550390	0	0
2024-05-29 16:23:32			0	38225	0	0	0	23361	22090	130696	27045	997055	40675	108609	0	0	8319	550412	0	0
2024-05-29 16:24:32			0	38201	0	0	0	23337	22080	130748	27303	997065	40685	108600	0	0	8319	551385	0	0
2024-05-29 16:25:32			0	38226	0	0	0	23324	22060	130692	27052	996933	40663	108595	0	0	8320	550465	0	0
2024-05-29 16:26:32			0	38216	0	0	0	23316	22050	130672	26991	996934	40670	108592	0	0	8320	550888	0	0
2024-05-29 16:27:32			0	38238	0	0	0	23311	22050	130752	27074	996942	40694	108590	0	0	8321	550025	0	0
2024-05-29 16:28:32			0	38233	0	0	0	23319	22040	130684	27144	996917	40670	108593	0	0	8320	550252	0	0
2024-05-29 16:29:32			0	38241	0	0	0	23329	22030	130780	27322	996908	40669	108597	0	0	8321	549969	0	0
2024-05-29 16:30:32			0	38226	0	0	0	23322	22030	130636	27034	996908	40681	108594	0	0	8320	550557	0	0
2024-05-29 16:31:32			0	38230	0	0	0	23327	22020	130716	27274	996910	40680	108596	0	0	8320	550431	0	0
2024-05-29 16:32:32			0	38207	0	0	0	23337	22030	130676	27190	996935	40692	108600	0	0	8319	551303	0	0
2024-05-29 16:33:32			0	38216	0	0	0	23342	22030	130840	27362	996927	40680	108602	0	0	8319	550950	0	0
2024-05-29 16:34:32			0	38207	0	0	0	23350	22020	130844	27138	996910	40668	108605	0	0	8318	551333	0	0
2024-05-29 16:35:32			0	38199	0	0	0	23348	22020	130912	27256	996892	40668	108604	0	0	8318	551648	0	0
2024-05-29 16:36:32			0	38187	0	0	0	23340	22020	130852	27261	996777	40680	108601	0	0	8318	552119	0	0
2024-05-29 16:37:32			0	38194	0	0	0	23322	22010	130928	27076	996760	40678	108594	0	0	8318	551875	0	0
2024-05-29 16:38:32			0	38187	0	0	0	23324	22000	130976	27357	996831	40678	108595	0	0	8318	552181	0	0
2024-05-29 16:39:32			0	38187	0	0	0	23322	21990	130896	27142	996743	40667	108594	0	0	8318	552211	0	0
2024-05-29 16:40:32			0	38209	0	0	0	23324	22000	130952	27409	996858	40667	108595	0	0	8319	551316	0	0
2024-05-29 16:41:32			0	38194	0	0	0	23337	22010	130908	27227	996901	40679	108600	0	0	8318	551875	0	0
2024-05-29 16:42:32			0	38170	0	0	0	23358	22010	130964	27395	996946	40678	108608	0	0	8316	552818	0	0
2024-05-29 16:43:32			0	38177	0	0	0	23384	22020	131052	26961	997016	40680	108618	0	0	8316	552512	0	0
2024-05-29 16:44:32			0	38184	0	0	0	23386	22030	131032	27241	997033	40668	108619	0	0	8317	552206	0	0
2024-05-29 16:45:32			0	38160	0	0	0	23361	22020	131016	27142	996971	40691	108609	0	0	8316	553181	0	0
2024-05-29 16:46:32			0	38149	0	0	0	23363	22020	131020	27152	996803	40680	108610	0	0	8315	553614	0	0
2024-05-29 16:47:32			0	38161	0	0	0	23350	22010	131080	27364	996840	40678	108605	0	0	8316	553172	0	0
2024-05-29 16:48:32			0	38154	0	0	0	23353	22010	131020	26955	996866	40678	108606	0	0	8316	553448	0	0
2024-05-29 16:49:32			0	38181	0	0	0	23342	22020	130984	27100	996883	40680	108602	0	0	8317	552355	0	0
2024-05-29 16:50:32			0	38172	0	0	0	23345	22010	131040	27029	996875	40679	108603	0	0	8317	552739	0	0
2024-05-29 16:51:32			0	38165	0	0	0	23342	22010	131008	27135	996946	40689	108602	0	0	8316	553015	0	0
2024-05-29 16:52:32			0	38149	0	0	0	23342	22020	130976	27327	996936	40691	108602	0	0	8315	553614	0	0
2024-05-29 16:53:32			0	38137	0	0	0	23345	22020	131140	27379	996883	40668	108603	0	0	8315	554086	0	0
2024-05-29 16:54:32			0	38162	0	0	0	23342	22020	130980	27076	996963	40680	108602	0	0	8316	553102	0	0
2024-05-29 16:55:32			0	38170	0	0	0	23345	22010	130996	27232	996866	40678	108603	0	0	8316	552818	0	0
2024-05-29 16:56:32			0	38150	0	0	0	23335	22010	131088	27235	996840	40678	108599	0	0	8316	553605	0	0
2024-05-29 16:57:32			0	38152	0	0	0	23337	22000	131032	27352	996884	40700	108600	0	0	8316	553557	0	0
2024-05-29 16:58:32			0	38173	0	0	0	23335	21990	131100	27253	996770	40667	108599	0	0	8317	552762	0	0
2024-05-29 16:59:32			0	38153	0	0	0	23332	21980	131036	27415	996646	40699	108598	0	0	8316	553579	0	0
2024-05-29 17:00:32			0	38163	0	0	0	23316	21980	130968	27441	996726	40676	108592	0	0	8316	553186	0	0
2024-05-29 17:01:32			0	38178	0	0	0	23319	21980	131036	27367	996718	40665	108593	0	0	8317	552596	0	0
2024-05-29 17:02:32			0	38183	0	0	0	23337	21980	130960	27123	996851	40698	108600	0	0	8317	552399	0	0
2024-05-29 17:03:32			0	38164	0	0	0	23389	21990	131004	27317	997116	40711	108620	0	0	8315	553116	0	0
2024-05-29 17:04:32			0	38174	0	0	0	23472	22020	130980	27093	997184	40712	108652	0	0	8315	552630	0	0
2024-05-29 17:05:32			0	38179	0	0	0	23490	22050	130932	27202	997280	40726	108659	0	0	8315	552341	0	0
2024-05-29 17:06:32			0	38163	0	0	0	23516	22070	130972	27267	997447	40728	108669	0	0	8313	552908	0	0
2024-05-29 17:07:32			0	38153	0	0	0	23576	22090	130988	27038	997596	40719	108692	0	0	8312	553240	0	0
2024-05-29 17:08:32			0	38154	0	0	0	23625	22120	131044	27118	997692	40721	108711	0	0	8311	553108	0	0
2024-05-29 17:09:32			0	38151	0	0	0	23644	22140	131080	26930	997787	40735	108718	0	0	8311	553164	0	0
2024-05-29 17:10:32			0	38160	0	0	0	23659	22150	131036	27261	997884	40725	108724	0	0	8311	552780	0	0
2024-05-29 17:11:32			0	38142	0	0	0	23675	22180	131052	27213	997988	40739	108730	0	0	8310	553395	0	0
2024-05-29 17:12:32			0	38162	0	0	0	23685	22200	131012	27114	998040	40741	108734	0	0	8311	552547	0	0
2024-05-29 17:13:32			0	38122	0	0	0	23698	22210	131000	27168	998172	40742	108739	0	0	8309	554089	0	0
2024-05-29 17:14:32			0	38133	0	0	0	23711	22220	131048	27157	998127	40742	108744	0	0	8309	553625	0	0
2024-05-29 17:15:32			0	38141	0	0	0	23709	22240	131028	27039	998161	40733	108743	0	0	8310	553249	0	0
2024-05-29 17:16:32			0	38160	0	0	0	23706	22250	130944	27424	998178	40734	108742	0	0	8311	552471	0	0
2024-05-29 17:17:32			0	38150	0	0	0	23711	22250	130964	27249	998186	40735	108744	0	0	8310	552864	0	0
2024-05-29 17:18:32			0	38163	0	0	0	23714	22260	130896	27015	998203	40736	108745	0	0	8311	552323	0	0
2024-05-29 17:19:32			0	38146	0	0	0	23706	22280	130984	26916	998175	40748	108742	0	0	8310	552929	0	0
2024-05-29 17:20:32			0	38143	0	0	0	23690	22260	130916	27059	998150	40724	108736	0	0	8310	553108	0	0
2024-05-29 17:21:32			0	38181	0	0	0	23685	22280	130868	27272	998210	40726	108734	0	0	8312	551554	0	0
2024-05-29 17:22:32			0	38162	0	0	0	23688	22270	130872	26937	998212	40736	108735	0	0	8311	552331	0	0
2024-05-29 17:23:32			0	38177	0	0	0	23677	22270	130788	27164	998167	40748	108731	0	0	8312	551742	0	0
2024-05-29 17:24:32			0	38199	0	0	0	23672	22270	130736	27079	998140	40725	108729	0	0	8314	550879	0	0
2024-05-29 17:25:32			0	38221	0	0	0	23667	22280	130636	26915	998122	40714	108727	0	0	8315	549986	0	0
2024-05-29 17:26:32			0	38235	0	0	0	23677	22300	130624	27015	998201	40727	108731	0	0	8315	549376	0	0
2024-05-29 17:27:32			0	38240	0	0	0	23709	22290	130676	27036	998246	40737	108743	0	0	8315	549211	0	0
2024-05-29 17:28:32			0	38266	0	0	0	23719	22300	130580	27498	998289	40761	108747	0	0	8316	548163	0	0
2024-05-29 17:29:32			0	38279	0	0	0	23714	22310	130420	27131	998377	40728	108745	0	0	8317	547625	0	0
2024-05-29 17:30:32			0	38305	0	0	0	23703	22300	130432	27105	998209	40739	108741	0	0	8319	546640	0	0
2024-05-29 17:31:32			0	38331	0	0	0	23662	22280	130308	27060	998051	40726	108725	0	0	8321	545686	0	0
2024-05-29 17:32:32			0	38341	0	0	0	23625	22270	130332	27282	997954	40714	108711	0	0	8322	545327	0	0
2024-05-29 17:33:32			0	38360	0	0	0	23576	22260	130292	27237	997849	40702	108692	0	0	8323	544617	0	0
2024-05-29 17:34:32			0	38348	0	0	0	23542	22250	130232	27107	997672	40723	108679	0	0	8323	545115	0	0
2024-05-29 17:35:32			0	38371	0	0	0	23485	22210	130224	27227	997533	40687	108657	0	0	8325	544341	0	0
2024-05-29 17:36:32			0	38368	0	0	0	23449	22180	130228	27237	997349	40672	108643	0	0	8326	544549	0	0
2024-05-29 17:37:32			0	38382	0	0	0	23399	22150	130164	27229	997218	40692	108624	0	0	8327	544095	0	0
2024-05-29 17:38:32			0	38387	0	0	0	23358	22130	130200	27268	997078	40690	108608	0	0	8328	543961	0	0
2024-05-29 17:39:32			0	38377	0	0	0	23345	22110	130204	27313	997009	40666	108603	0	0	8328	544411	0	0
2024-05-29 17:40:32			0	38399	0	0	0	23319	22090	130268	27216	997010	40664	108593	0	0	8329	543615	0	0
2024-05-29 17:41:32			0	38398	0	0	0	23324	22060	130168	27010	996959	40684	108595	0	0	8329	543745	0	0
2024-05-29 17:42:32			0	38393	0	0	0	23311	22060	130208	27435	996951	40695	108590	0	0	8329	543940	0	0
2024-05-29 17:43:32			0	38373	0	0	0	23303	22050	130264	27199	996907	40704	108587	0	0	8328	544749	0	0
2024-05-29 17:44:32			0	38382	0	0	0	23309	22030	130284	27293	996802	40681	108589	0	0	8328	544459	0	0
2024-05-29 17:45:32			0	38401	0	0	0	23314	22030	130220	26897	996873	40680	108591	0	0	8329	543720	0	0
2024-05-29 17:46:32			0	38393	0	0	0	23316	22020	130308	27284	996856	40702	108592	0	0	8329	544061	0	0
2024-05-29 17:47:32			0	38414	0	0	0	23322	22010	130268	27353	996875	40679	108594	0	0	8330	543274	0	0
2024-05-29 17:48:32			0	38394	0	0	0	23350	22020	130300	27272	996910	40691	108605	0	0	8328	544022	0	0
2024-05-29 17:49:32			0	38386	0	0	0	23381	22020	130296	27109	997016	40680	108617	0	0	8327	544334	0	0
2024-05-29 17:50:32			0	38401	0	0	0	23410	22030	130328	27324	997060	40735	108628	0	0	8327	543720	0	0
2024-05-29 17:51:32			0	38408	0	0	0	23462	22030	130240	26998	997246	40724	108648	0	0	8327	543447	0	0
2024-05-29 17:52:32			0	38388	0	0	0	23498	22050	130296	27291	997342	40715	108662	0	0	8325	544165	0	0
2024-05-29 17:53:32			0	38421	0	0	0	23522	22070	130340	27298	997429	40739	108671	0	0	8327	542820	0	0
2024-05-29 17:54:32			0	38429	0	0	0	23542	22080	130340	27377	997553	40719	108679	0	0	8327	542479	0	0
2024-05-29 17:55:32			0	38415	0	0	0	23553	22110	130320	27265	997523	40709	108683	0	0	8326	542932	0	0
2024-05-29 17:56:32			0	38428	0	0	0	23561	22120	130240	27019	997612	40733	108686	0	0	8327	542397	0	0
2024-05-29 17:57:32			0	38424	0	0	0	23561	22130	130148	27123	997602	40723	108686	0	0	8327	542522	0	0
2024-05-29 17:58:32			0	38439	0	0	0	23584	22140	130236	27360	997672	40712	108695	0	0	8327	541909	0	0
2024-05-29 17:59:32			0	38452	0	0	0	23584	22150	130180	27346	997716	40725	108695	0	0	8328	541374	0	0
2024-05-29 18:00:32			0	38445	0	0	0	23594	22160	130100	27507	997768	40715	108699	0	0	8327	541616	0	0
2024-05-29 18:01:32			0	38461	0	0	0	23594	22170	130044	27086	997838	40738	108699	0	0	8328	540965	0	0
2024-05-29 18:02:32			0	38464	0	0	0	23607	22180	130096	27291	997855	40750	108704	0	0	8328	540818	0	0
2024-05-29 18:03:32			0	38454	0	0	0	23623	22190	130112	27234	997978	40741	108710	0	0	8327	541176	0	0
2024-05-29 18:04:32			0	38474	0	0	0	23638	22210	129980	27448	998004	40730	108716	0	0	8328	540340	0	0
2024-05-29 18:05:32			0	38453	0	0	0	23662	22220	129988	27535	998127	40742	108725	0	0	8327	541124	0	0
2024-05-29 18:06:32			0	38479	0	0	0	23672	22220	129900	27371	998082	40742	108729	0	0	8328	540116	0	0
2024-05-29 18:07:32			0	38491	0	0	0	23693	22240	129908	27128	998170	40733	108737	0	0	8328	539591	0	0
2024-05-29 18:08:32			0	38465	0	0	0	23716	22260	129960	27511	998310	40747	108746	0	0	8327	540538	0	0
2024-05-29 18:09:32			0	38493	0	0	0	23740	22260	129916	27060	998310	40724	108755	0	0	8328	539453	0	0
2024-05-29 18:10:32			0	38468	0	0	0	23753	22280	129900	27161	998415	40736	108760	0	0	8326	540361	0	0
2024-05-29 18:11:32			0	38480	0	0	0	23758	22300	129968	27332	998440	40760	108762	0	0	8327	539836	0	0
2024-05-29 18:12:32			0	38487	0	0	0	23763	22320	129840	27391	998528	40762	108764	0	0	8327	539505	0	0
2024-05-29 18:13:32			0	38472	0	0	0	23779	22320	129868	27365	998474	40750	108770	0	0	8326	540086	0	0
2024-05-29 18:14:32			0	38488	0	0	0	23766	22330	129892	27369	998465	40751	108765	0	0	8327	539436	0	0
2024-05-29 18:15:32			0	38461	0	0	0	23766	22330	129876	27267	998527	40752	108765	0	0	8326	540482	0	0
2024-05-29 18:16:32			0	38480	0	0	0	23758	22330	129888	27284	998500	40742	108762	0	0	8327	539746	0	0
2024-05-29 18:17:32			0	38486	0	0	0	23766	22340	129856	27412	998562	40763	108765	0	0	8327	539483	0	0
2024-05-29 18:18:32			0	38479	0	0	0	23761	22350	129800	27310	998579	40743	108763	0	0	8327	539724	0	0
2024-05-29 18:19:32			0	38499	0	0	0	23761	22350	129832	27078	998605	40743	108763	0	0	8328	538950	0	0
2024-05-29 18:20:32			0	38478	0	0	0	23763	22350	129764	27289	998587	40744	108764	0	0	8327	539763	0	0
2024-05-29 18:21:32			0	38472	0	0	0	23761	22370	129872	27419	998586	40733	108763	0	0	8327	539935	0	0
2024-05-29 18:22:32			0	38469	0	0	0	23768	22370	129744	27528	998639	40744	108766	0	0	8326	540051	0	0
2024-05-29 18:23:32			0	38495	0	0	0	23766	22380	129784	27433	998656	40756	108765	0	0	8328	539015	0	0
2024-05-29 18:24:32			0	38477	0	0	0	23781	22380	129748	27024	998683	40745	108771	0	0	8327	539711	0	0
2024-05-29 18:25:32			0	38482	0	0	0	23786	22380	129728	27331	998709	40756	108773	0	0	8327	539518	0	0
2024-05-29 18:26:32			0	38507	0	0	0	23789	22390	129888	27281	998753	40747	108774	0	0	8328	538520	0	0
2024-05-29 18:27:32			0	38551	0	0	0	23792	22390	129756	27268	998761	40747	108775	0	0	8330	536821	0	0
2024-05-29 18:28:32			0	38551	0	0	0	23792	22400	129640	27441	998770	40748	108775	0	0	8330	536791	0	0
2024-05-29 18:29:32			0	38578	0	0	0	23792	22400	129508	27076	998778	40748	108775	0	0	8332	535750	0	0
2024-05-29 18:30:32			0	38626	0	0	0	23792	22400	129344	27137	998690	40737	108775	0	0	8334	533902	0	0
2024-05-29 18:31:32			0	38642	0	0	0	23773	22410	129272	27294	998707	40759	108768	0	0	8335	533257	0	0
2024-05-29 18:32:32			0	38697	0	0	0	23763	22400	129084	27448	998610	40737	108764	0	0	8338	531175	0	0
2024-05-29 18:33:32			0	38753	0	0	0	23745	22390	129025	27313	998566	40736	108757	0	0	8342	529060	0	0
2024-05-29 18:34:32			0	38801	0	0	0	23742	22390	128857	27393	998673	40747	108756	0	0	8344	527226	0	0
2024-05-29 18:35:32			0	38842	0	0	0	23753	22380	128785	27145	998611	40735	108760	0	0	8346	525692	0	0
2024-05-29 18:36:32			0	38848	0	0	0	23768	22380	128537	27440	998638	40735	108766	0	0	8346	525463	0	0
2024-05-29 18:37:32			0	38899	0	0	0	23771	22390	128425	27450	998646	40747	108767	0	0	8349	523494	0	0
2024-05-29 18:38:32			0	38944	0	0	0	23786	22400	128397	27166	998743	40758	108773	0	0	8351	521755	0	0
2024-05-29 18:39:32			0	38999	0	0	0	23789	22390	128249	27260	998788	40736	108774	0	0	8354	519701	0	0
2024-05-29 18:40:32			0	39013	0	0	0	23797	22400	128125	27298	998751	40758	108777	0	0	8354	519142	0	0
2024-05-29 18:41:32			0	39057	0	0	0	23786	22400	127989	26996	998716	40758	108773	0	0	8357	517480	0	0
2024-05-29 18:42:32			0	39100	0	0	0	23750	22400	127905	27483	998618	40737	108759	0	0	8359	515858	0	0
2024-05-29 18:43:32			0	39140	0	0	0	23719	22380	127793	26998	998443	40745	108747	0	0	8362	514410	0	0
2024-05-29 18:44:32			0	39165	0	0	0	23688	22360	127701	27239	998462	40732	108735	0	0	8364	513527	0	0
2024-05-29 18:45:32			0	39172	0	0	0	23649	22350	127593	27578	998312	40720	108720	0	0	8365	513293	0	0
2024-05-29 18:46:32			0	39199	0	0	0	23636	22330	127585	27111	998225	40708	108715	0	0	8366	512336	0	0
2024-05-29 18:47:32			0	39199	0	0	0	23615	22330	127625	27154	998234	40742	108707	0	0	8367	512336	0	0
2024-05-29 18:48:32			0	39210	0	0	0	23605	22320	127585	27055	998163	40730	108703	0	0	8367	511952	0	0
2024-05-29 18:49:32			0	39170	0	0	0	23597	22310	127601	27317	998138	40728	108700	0	0	8365	513483	0	0
2024-05-29 18:50:32			0	39176	0	0	0	23584	22310	127633	27206	998164	40717	108695	0	0	8366	513257	0	0
2024-05-29 18:51:32			0	39184	0	0	0	23571	22280	127693	27206	997997	40705	108690	0	0	8366	513043	0	0
2024-05-29 18:52:32			0	39179	0	0	0	23542	22270	127641	27440	997927	40714	108679	0	0	8367	513259	0	0
2024-05-29 18:53:32			0	39164	0	0	0	23519	22250	127745	27260	997778	40701	108670	0	0	8366	513880	0	0
2024-05-29 18:54:32			0	39159	0	0	0	23509	22240	127753	27345	997735	40700	108666	0	0	8366	514097	0	0
2024-05-29 18:55:32			0	39140	0	0	0	23496	22230	127757	27166	997771	40710	108661	0	0	8365	514841	0	0
2024-05-29 18:56:32			0	39155	0	0	0	23501	22210	127773	27473	997852	40731	108663	0	0	8366	514334	0	0
2024-05-29 18:57:32			0	39136	0	0	0	23511	22220	127889	27448	997869	40720	108667	0	0	8365	515020	0	0
2024-05-29 18:58:32			0	39122	0	0	0	23514	22210	127901	27268	997799	40720	108668	0	0	8364	515576	0	0
2024-05-29 18:59:32			0	39106	0	0	0	23506	22210	127889	27194	997658	40719	108665	0	0	8363	516179	0	0
2024-05-29 19:00:32			0	39106	0	0	0	23493	22200	127909	27369	997667	40685	108660	0	0	8363	516208	0	0
2024-05-29 19:01:32			0	39108	0	0	0	23493	22190	127937	27319	997685	40718	108660	0	0	8363	516162	0	0
2024-05-29 19:02:32			0	39087	0	0	0	23493	22180	128025	27346	997588	40716	108660	0	0	8362	516983	0	0
2024-05-29 19:03:32			0	39069	0	0	0	23483	22180	128005	27150	997562	40716	108656	0	0	8361	517662	0	0
2024-05-29 19:04:32			0	39088	0	0	0	23475	22160	128065	27234	997493	40681	108653	0	0	8363	517003	0	0
2024-05-29 19:05:32			0	39060	0	0	0	23470	22150	128117	27334	997529	40703	108651	0	0	8361	518089	0	0
2024-05-29 19:06:32			0	39064	0	0	0	23472	22140	128105	27377	997512	40712	108652	0	0	8361	517967	0	0
2024-05-29 19:07:32			0	39065	0	0	0	23464	22130	128177	27310	997504	40712	108649	0	0	8361	517958	0	0
2024-05-29 19:08:32			0	39049	0	0	0	23472	22140	128217	27300	997486	40723	108652	0	0	8360	518534	0	0
2024-05-29 19:09:32			0	39028	0	0	0	23490	22140	128289	27377	997459	40712	108659	0	0	8359	519328	0	0
2024-05-29 19:10:32			0	39028	0	0	0	23501	22140	128189	27241	997646	40734	108663	0	0	8359	519328	0	0
2024-05-29 19:11:32			0	39024	0	0	0	23509	22150	128277	27308	997609	40736	108666	0	0	8359	519451	0	0
2024-05-29 19:12:32			0	39023	0	0	0	23511	22150	128325	27267	997564	40714	108667	0	0	8358	519489	0	0
2024-05-29 19:13:32			0	39017	0	0	0	23488	22150	128377	27509	997449	40714	108658	0	0	8359	519716	0	0
2024-05-29 19:14:32			0	39019	0	0	0	23480	22130	128261	26965	997397	40690	108655	0	0	8359	519698	0	0
2024-05-29 19:15:32			0	39002	0	0	0	23459	22110	128381	27419	997310	40709	108647	0	0	8358	520400	0	0
2024-05-29 19:16:32			0	39004	0	0	0	23446	22110	128393	27329	997355	40709	108642	0	0	8358	520324	0	0
2024-05-29 19:17:32			0	39016	0	0	0	23444	22110	128293	27447	997364	40709	108641	0	0	8359	519870	0	0
2024-05-29 19:18:32			0	38997	0	0	0	23441	22110	128417	27403	997382	40720	108640	0	0	8358	520590	0	0
2024-05-29 19:19:32			0	38984	0	0	0	23467	22110	128461	27150	997409	40720	108650	0	0	8357	521083	0	0
2024-05-29 19:20:32			0	38976	0	0	0	23490	22100	128477	27566	997445	40708	108659	0	0	8356	521415	0	0
2024-05-29 19:21:32			0	38965	0	0	0	23493	22110	128497	27308	997435	40720	108660	0	0	8356	521803	0	0
2024-05-29 19:22:32			0	38951	0	0	0	23496	22130	128521	27362	997496	40723	108661	0	0	8355	522277	0	0
2024-05-29 19:23:32			0	38931	0	0	0	23501	22120	128545	27348	997585	40733	108663	0	0	8354	523066	0	0
2024-05-29 19:24:32			0	38943	0	0	0	23501	22120	128613	27048	997452	40721	108663	0	0	8354	522610	0	0
2024-05-29 19:25:32			0	38930	0	0	0	23501	22120	128609	27320	997460	40722	108663	0	0	8354	523104	0	0
2024-05-29 19:26:32			0	38918	0	0	0	23509	22120	128621	27237	997567	40722	108666	0	0	8353	523560	0	0
2024-05-29 19:27:32			0	38901	0	0	0	23529	22120	128613	27019	997532	40733	108674	0	0	8352	524207	0	0
2024-05-29 19:28:32			0	38894	0	0	0	23545	22130	128693	27268	997557	40734	108680	0	0	8351	524444	0	0
2024-05-29 19:29:32			0	38881	0	0	0	23558	22140	128709	27402	997592	40723	108685	0	0	8350	524910	0	0
2024-05-29 19:30:32			0	38894	0	0	0	23558	22140	128693	27428	997601	40724	108685	0	0	8351	524415	0	0
2024-05-29 19:31:32			0	38889	0	0	0	23563	22150	128753	27497	997636	40736	108687	0	0	8351	524576	0	0
2024-05-29 19:32:32			0	38868	0	0	0	23571	22160	128877	27282	997626	40736	108690	0	0	8349	525347	0	0
2024-05-29 19:33:32			0	38847	0	0	0	23568	22150	128857	27163	997662	40725	108689	0	0	8348	526177	0	0
2024-05-29 19:34:32			0	38840	0	0	0	23574	22150	128845	27396	997769	40725	108691	0	0	8348	526444	0	0
2024-05-29 19:35:32			0	38857	0	0	0	23584	22160	128841	27365	997768	40737	108695	0	0	8349	525766	0	0
2024-05-29 19:36:32			0	38828	0	0	0	23599	22170	128849	27163	997758	40749	108701	0	0	8347	526843	0	0
2024-05-29 19:37:32			0	38818	0	0	0	23607	22180	128973	27428	997855	40739	108704	0	0	8346	527195	0	0
2024-05-29 19:38:32			0	38791	0	0	0	23602	22180	128941	27156	997775	40716	108702	0	0	8345	528227	0	0
2024-05-29 19:39:32			0	38771	0	0	0	23597	22170	129053	27119	997776	40727	108700	0	0	8344	529022	0	0
2024-05-29 19:40:32			0	38769	0	0	0	23586	22180	129005	27121	997748	40728	108696	0	0	8344	529068	0	0
2024-05-29 19:41:32			0	38779	0	0	0	23579	22170	129065	27145	997731	40727	108693	0	0	8345	528715	0	0
2024-05-29 19:42:32			0	38762	0	0	0	23581	22190	129001	27145	997810	40728	108694	0	0	8344	529307	0	0
2024-05-29 19:43:32			0	38739	0	0	0	23586	22180	129093	27178	997748	40728	108696	0	0	8343	530217	0	0
2024-05-29 19:44:32			0	38762	0	0	0	23571	22180	129121	27178	997775	40728	108690	0	0	8344	529336	0	0
2024-05-29 19:45:32			0	38750	0	0	0	23571	22180	129121	27268	997633	40738	108690	0	0	8343	529796	0	0
2024-05-29 19:46:32			0	38708	0	0	0	23563	22180	129132	27270	997695	40728	108687	0	0	8341	531406	0	0
2024-05-29 19:47:32			0	38716	0	0	0	23563	22180	129236	27315	997713	40727	108687	0	0	8342	531099	0	0
2024-05-29 19:48:32			0	38694	0	0	0	23558	22170	129316	27149	997696	40738	108685	0	0	8341	531973	0	0
2024-05-29 19:49:32			0	38686	0	0	0	23563	22170	129248	27346	997731	40727	108687	0	0	8340	532280	0	0
2024-05-29 19:50:32			0	38684	0	0	0	23553	22170	129336	27052	997723	40749	108683	0	0	8340	532357	0	0
2024-05-29 19:51:32			0	38667	0	0	0	23553	22170	129464	27282	997723	40727	108683	0	0	8339	533010	0	0
2024-05-29 19:52:32			0	38661	0	0	0	23553	22170	129368	27144	997670	40727	108683	0	0	8339	533241	0	0
2024-05-29 19:53:32			0	38672	0	0	0	23542	22160	129424	27234	997599	40725	108679	0	0	8340	532848	0	0
2024-05-29 19:54:32			0	38655	0	0	0	23545	22170	129460	27261	997590	40727	108680	0	0	8339	533472	0	0
2024-05-29 19:55:32			0	38650	0	0	0	23535	22160	129440	27053	997653	40736	108676	0	0	8339	533694	0	0
2024-05-29 19:56:32			0	38635	0	0	0	23506	22150	129460	27438	997485	40725	108665	0	0	8338	534301	0	0
2024-05-29 19:57:32			0	38633	0	0	0	23480	22150	129592	27253	997396	40714	108655	0	0	8339	534378	0	0
2024-05-29 19:58:32			0	38623	0	0	0	23444	22120	129488	27104	997327	40689	108641	0	0	8339	534852	0	0
2024-05-29 19:59:32			0	38622	0	0	0	23431	22090	129468	27357	997330	40708	108636	0	0	8339	534980	0	0
2024-05-29 20:00:32			0	38637	0	0	0	23433	22110	129592	27114	997382	40732	108637	0	0	8340	534343	0	0
2024-05-29 20:01:32			0	38617	0	0	0	23451	22110	129632	27348	997497	40720	108644	0	0	8338	535113	0	0
2024-05-29 20:02:32			0	38604	0	0	0	23459	22110	129596	27095	997409	40720	108647	0	0	8337	535615	0	0
2024-05-29 20:03:32			0	38607	0	0	0	23467	22110	129608	27038	997444	40720	108650	0	0	8338	535499	0	0
2024-05-29 20:04:32			0	38603	0	0	0	23475	22120	129624	27319	997425	40744	108653	0	0	8337	535623	0	0
2024-05-29 20:05:32			0	38596	0	0	0	23475	22110	129668	26944	997409	40720	108653	0	0	8337	535923	0	0
2024-05-29 20:06:32			0	38587	0	0	0	23472	22110	129704	27351	997444	40720	108652	0	0	8336	536270	0	0
2024-05-29 20:07:32			0	38591	0	0	0	23464	22100	129616	27400	997338	40708	108649	0	0	8337	536146	0	0
2024-05-29 20:08:32			0	38594	0	0	0	23441	22090	129712	27377	997303	40697	108640	0	0	8337	536060	0	0
2024-05-29 20:09:32			0	38578	0	0	0	23425	22080	129668	26925	997233	40697	108634	0	0	8337	536707	0	0
2024-05-29 20:10:32			0	38584	0	0	0	23412	22070	129688	27291	997109	40695	108629	0	0	8337	536506	0	0
2024-05-29 20:11:32			0	38596	0	0	0	23397	22060	129716	27183	997084	40706	108623	0	0	8338	536073	0	0
2024-05-29 20:12:32			0	38594	0	0	0	23381	22050	129748	27209	997022	40715	108617	0	0	8338	536180	0	0
2024-05-29 20:13:32			0	38584	0	0	0	23379	22040	129772	27345	997032	40681	108616	0	0	8338	536596	0	0
2024-05-29 20:14:32			0	38576	0	0	0	23379	22030	129796	27242	996908	40703	108616	0	0	8337	536934	0	0
2024-05-29 20:15:32			0	38603	0	0	0	23368	22030	129744	27007	996935	40713	108612	0	0	8339	535892	0	0
2024-05-29 20:16:32			0	38592	0	0	0	23366	22030	129764	27128	997033	40712	108611	0	0	8338	536317	0	0
2024-05-29 20:17:32			0	38586	0	0	0	23358	22020	129784	27031	996971	40712	108608	0	0	8338	536578	0	0
2024-05-29 20:18:32			0	38579	0	0	0	23368	22030	129752	27088	997015	40703	108612	0	0	8337	536819	0	0
2024-05-29 20:19:32			0	38594	0	0	0	23371	22020	129752	26930	997043	40702	108613	0	0	8338	536269	0	0
2024-05-29 20:20:32			0	38572	0	0	0	23371	22020	129820	27126	997078	40712	108613	0	0	8337	537119	0	0
2024-05-29 20:21:32			0	38572	0	0	0	23376	22020	129776	27293	997051	40702	108615	0	0	8337	537119	0	0
2024-05-29 20:22:32			0	38589	0	0	0	23392	22020	129748	27187	997131	40712	108621	0	0	8337	536462	0	0
2024-05-29 20:23:32			0	38578	0	0	0	23410	22040	129732	27078	997263	40737	108628	0	0	8337	536827	0	0
2024-05-29 20:24:32			0	38599	0	0	0	23488	22060	129776	26717	997457	40739	108658	0	0	8337	535957	0	0
2024-05-29 20:25:32			0	38572	0	0	0	23574	22080	129768	27178	997606	40741	108691	0	0	8334	536939	0	0
2024-05-29 20:26:32			0	38543	0	0	0	23625	22110	129708	27046	997737	40753	108711	0	0	8332	537970	0	0
2024-05-29 20:27:32			0	38569	0	0	0	23636	22130	129820	27338	997770	40756	108715	0	0	8333	536905	0	0
2024-05-29 20:28:32			0	38557	0	0	0	23651	22150	129764	27305	997929	40747	108721	0	0	8332	537309	0	0
2024-05-29 20:29:32			0	38565	0	0	0	23654	22160	129764	27263	997892	40747	108722	0	0	8332	536970	0	0
2024-05-29 20:30:32			0	38558	0	0	0	23651	22180	129740	27324	997881	40750	108721	0	0	8332	537180	0	0
2024-05-29 20:31:32			0	38552	0	0	0	23657	22190	129716	27305	998005	40741	108723	0	0	8332	537382	0	0
2024-05-29 20:32:32			0	38566	0	0	0	23638	22190	129672	27410	997952	40729	108716	0	0	8333	536841	0	0
2024-05-29 20:33:32			0	38558	0	0	0	23628	22200	129680	27150	997960	40741	108712	0	0	8333	537120	0	0
2024-05-29 20:34:32			0	38559	0	0	0	23615	22200	129692	27336	997942	40741	108707	0	0	8333	537082	0	0
2024-05-29 20:35:32			0	38555	0	0	0	23628	22210	129692	27258	998004	40730	108712	0	0	8333	537206	0	0
2024-05-29 20:36:32			0	38551	0	0	0	23636	22210	129652	27550	997924	40730	108715	0	0	8332	537361	0	0
2024-05-29 20:37:32			0	38561	0	0	0	23612	22210	129688	27128	997844	40752	108706	0	0	8333	536974	0	0
2024-05-29 20:38:32			0	38558	0	0	0	23594	22190	129644	27388	997792	40718	108699	0	0	8333	537150	0	0
2024-05-29 20:39:32			0	38569	0	0	0	23576	22190	129624	27386	997810	40728	108692	0	0	8334	536726	0	0
2024-05-29 20:40:32			0	38553	0	0	0	23563	22180	129680	27286	997740	40727	108687	0	0	8333	537373	0	0
2024-05-29 20:41:32			0	38566	0	0	0	23555	22180	129664	27256	997713	40749	108684	0	0	8334	536871	0	0
2024-05-29 20:42:32			0	38584	0	0	0	23532	22180	129680	27332	997642	40739	108675	0	0	8336	536177	0	0
2024-05-29 20:43:32			0	38565	0	0	0	23532	22160	129660	26658	997688	40726	108675	0	0	8334	536970	0	0
2024-05-29 20:44:32			0	38581	0	0	0	23516	22160	129660	26935	997688	40726	108669	0	0	8336	536352	0	0
2024-05-29 20:45:32			0	38586	0	0	0	23519	22160	129640	27230	997599	40714	108670	0	0	8336	536159	0	0
2024-05-29 20:46:32			0	38585	0	0	0	23509	22160	129592	27227	997546	40725	108666	0	0	8336	536198	0	0
2024-05-29 20:47:32			0	38589	0	0	0	23480	22140	129596	26949	997486	40723	108655	0	0	8336	536103	0	0
2024-05-29 20:48:32			0	38587	0	0	0	23477	22130	129564	27045	997531	40746	108654	0	0	8336	536210	0	0
2024-05-29 20:49:32			0	38584	0	0	0	23483	22140	129564	26798	997592	40734	108656	0	0	8336	536296	0	0
2024-05-29 20:50:32			0	38587	0	0	0	23493	22140	129548	27258	997566	40734	108660	0	0	8336	536180	0	0
2024-05-29 20:51:32			0	38598	0	0	0	23503	22140	129548	27185	997654	40735	108664	0	0	8337	535756	0	0
2024-05-29 20:52:32			0	38591	0	0	0	23501	22130	129572	26838	997575	40723	108663	0	0	8336	536056	0	0
2024-05-29 20:53:32			0	38568	0	0	0	23496	22130	129512	26915	997557	40723	108661	0	0	8335	536944	0	0
2024-05-29 20:54:32			0	38596	0	0	0	23496	22140	129608	27118	997566	40734	108661	0	0	8337	535833	0	0
2024-05-29 20:55:32			0	38603	0	0	0	23480	22130	129464	27223	997531	40723	108655	0	0	8337	535593	0	0
2024-05-29 20:56:32			0	38606	0	0	0	23483	22120	129520	26965	997460	40734	108656	0	0	8337	535508	0	0
2024-05-29 20:57:32			0	38620	0	0	0	23462	22120	129476	27315	997407	40734	108648	0	0	8338	534968	0	0
2024-05-29 20:58:32			0	38581	0	0	0	23462	22120	129488	27147	997399	40721	108648	0	0	8336	536472	0	0
2024-05-29 20:59:32			0	38607	0	0	0	23451	22100	129516	26994	997392	40731	108644	0	0	8338	535529	0	0
2024-05-29 21:00:32			0	38599	0	0	0	23454	22100	129504	27034	997365	40720	108645	0	0	8337	535837	0	0
2024-05-29 21:01:32			0	38610	0	0	0	23436	22090	129544	27072	997330	40697	108638	0	0	8338	535443	0	0
2024-05-29 21:02:32			0	38615	0	0	0	23425	22090	129412	27388	997295	40719	108634	0	0	8339	535250	0	0
2024-05-29 21:03:32			0	38607	0	0	0	23418	22080	129620	26866	997260	40719	108631	0	0	8338	535589	0	0
2024-05-29 21:04:32			0	38623	0	0	0	23405	22080	129544	27104	997251	40708	108626	0	0	8339	534972	0	0
2024-05-29 21:05:32			0	38627	0	0	0	23394	22050	129476	27166	997102	40705	108622	0	0	8340	534907	0	0
2024-05-29 21:06:32			0	38635	0	0	0	23397	22070	129476	26937	997181	40717	108623	0	0	8340	534539	0	0
2024-05-29 21:07:32			0	38644	0	0	0	23392	22050	129492	27291	997227	40714	108621	0	0	8340	534252	0	0
2024-05-29 21:08:32			0	38644	0	0	0	23397	22050	129452	26974	997147	40714	108623	0	0	8340	534252	0	0
2024-05-29 21:09:32			0	38658	0	0	0	23394	22040	129416	26930	997005	40726	108622	0	0	8341	533743	0	0
2024-05-29 21:10:32			0	38654	0	0	0	23381	22030	129432	27020	996935	40713	108617	0	0	8341	533927	0	0
2024-05-29 21:11:32			0	38680	0	0	0	23373	22030	129388	27121	996927	40702	108614	0	0	8343	532927	0	0
2024-05-29 21:12:32			0	38652	0	0	0	23361	22020	129408	27133	996963	40712	108609	0	0	8341	534034	0	0
2024-05-29 21:13:32			0	38648	0	0	0	23345	22000	129296	27057	996884	40711	108603	0	0	8341	534247	0	0
2024-05-29 21:14:32			0	38670	0	0	0	23329	21980	129336	26835	996753	40699	108597	0	0	8343	533460	0	0
2024-05-29 21:15:32			0	38689	0	0	0	23337	21980	129320	27111	996718	40708	108600	0	0	8343	532729	0	0
2024-05-29 21:16:32			0	38716	0	0	0	23324	21970	129284	27119	996789	40698	108595	0	0	8345	531721	0	0
2024-05-29 21:17:32			0	38719	0	0	0	23319	21970	129288	26812	996701	40708	108593	0	0	8345	531606	0	0
2024-05-29 21:18:32			0	38738	0	0	0	23314	21960	129197	27244	996737	40696	108591	0	0	8346	530907	0	0
2024-05-29 21:19:32			0	38733	0	0	0	23303	21950	129205	27027	996702	40707	108587	0	0	8346	531128	0	0
2024-05-29 21:20:32			0	38782	0	0	0	23303	21950	129185	27298	996613	40707	108587	0	0	8349	529250	0	0
2024-05-29 21:21:32			0	38781	0	0	0	23298	21930	129101	27024	996615	40694	108585	0	0	8349	529347	0	0
2024-05-29 21:22:32			0	38803	0	0	0	23296	21930	129101	27157	996553	40716	108584	0	0	8350	528505	0	0
2024-05-29 21:23:32			0	38807	0	0	0	23296	21930	129109	27114	996580	40716	108584	0	0	8350	528352	0	0
2024-05-29 21:24:32			0	38836	0	0	0	23296	21920	128953	26970	996598	40715	108584	0	0	8352	527272	0	0
2024-05-29 21:25:32			0	38838	0	0	0	23306	21930	128877	27294	996606	40705	108588	0	0	8351	527166	0	0
2024-05-29 21:26:32			0	38881	0	0	0	23301	21930	128873	27209	996606	40705	108586	0	0	8354	525525	0	0
2024-05-29 21:27:32			0	38895	0	0	0	23306	21920	128737	27203	996678	40693	108588	0	0	8354	525021	0	0
2024-05-29 21:28:32			0	38924	0	0	0	23316	21920	128721	27156	996598	40693	108592	0	0	8356	523916	0	0
2024-05-29 21:29:32			0	38955	0	0	0	23314	21920	128669	27320	996589	40725	108591	0	0	8357	522737	0	0
2024-05-29 21:30:32			0	38973	0	0	0	23319	21930	128537	27203	996580	40694	108593	0	0	8358	522024	0	0
2024-05-29 21:31:32			0	39001	0	0	0	23303	21920	128573	27123	996518	40705	108587	0	0	8360	520990	0	0
2024-05-29 21:32:32			0	39008	0	0	0	23306	21920	128453	27066	996536	40704	108588	0	0	8360	520724	0	0
2024-05-29 21:33:32			0	39012	0	0	0	23303	21920	128325	27246	996563	40714	108587	0	0	8361	520572	0	0
2024-05-29 21:34:32			0	39071	0	0	0	23296	21910	128237	27052	996519	40713	108584	0	0	8364	518367	0	0
2024-05-29 21:35:32			0	39089	0	0	0	23303	21910	128233	27417	996528	40704	108587	0	0	8364	517686	0	0
2024-05-29 21:36:32			0	39100	0	0	0	23301	21910	128225	27345	996554	40704	108586	0	0	8365	517270	0	0
2024-05-29 21:37:32			0	39119	0	0	0	23306	21910	128213	27445	996519	40713	108588	0	0	8366	516553	0	0
2024-05-29 21:38:32			0	39133	0	0	0	23298	21900	128013	26977	996511	40713	108585	0	0	8367	516053	0	0
2024-05-29 21:39:32			0	39148	0	0	0	23296	21900	127997	27216	996511	40703	108584	0	0	8368	515488	0	0
2024-05-29 21:40:32			0	39155	0	0	0	23290	21900	127961	27338	996502	40702	108582	0	0	8368	515224	0	0
2024-05-29 21:41:32			0	39180	0	0	0	23288	21900	127957	27183	996502	40712	108581	0	0	8369	514282	0	0
2024-05-29 21:42:32			0	39189	0	0	0	23290	21890	127993	27445	996414	40701	108582	0	0	8370	513972	0	0
2024-05-29 21:43:32			0	39195	0	0	0	23288	21890	127965	27107	996467	40701	108581	0	0	8370	513746	0	0
2024-05-29 21:44:32			0	39206	0	0	0	23283	21900	127885	27308	996449	40702	108579	0	0	8371	513303	0	0
2024-05-29 21:45:32			0	39196	0	0	0	23272	21890	127925	27157	996406	40701	108575	0	0	8370	513708	0	0
2024-05-29 21:46:32			0	39197	0	0	0	23280	21890	127969	27246	996406	40711	108578	0	0	8370	513670	0	0
2024-05-29 21:47:32			0	39187	0	0	0	23280	21880	127981	27267	996389	40722	108578	0	0	8370	514075	0	0
2024-05-29 21:48:32			0	39181	0	0	0	23275	21880	127989	27398	996442	40710	108576	0	0	8370	514301	0	0
2024-05-29 21:49:32			0	39180	0	0	0	23264	21880	127985	27332	996397	40701	108572	0	0	8370	514339	0	0
2024-05-29 21:50:32			0	39169	0	0	0	23280	21880	128045	27346	996397	40711	108578	0	0	8369	514753	0	0
2024-05-29 21:51:32			0	39141	0	0	0	23270	21880	128173	27272	996397	40711	108574	0	0	8368	515809	0	0
2024-05-29 21:52:32			0	39115	0	0	0	23270	21880	128157	27218	996362	40700	108574	0	0	8366	516790	0	0
2024-05-29 21:53:32			0	39130	0	0	0	23275	21870	128149	27036	996380	40710	108576	0	0	8367	516253	0	0
2024-05-29 21:54:32			0	39101	0	0	0	23264	21870	128209	27156	996354	40699	108572	0	0	8366	517348	0	0
2024-05-29 21:55:32			0	39073	0	0	0	23259	21870	128329	27175	996372	40699	108570	0	0	8364	518407	0	0
2024-05-29 21:56:32			0	39049	0	0	0	23267	21880	128413	27159	996389	40710	108573	0	0	8363	519286	0	0
2024-05-29 21:57:32			0	39037	0	0	0	23262	21860	128401	27097	996337	40699	108571	0	0	8362	519799	0	0
2024-05-29 21:58:32			0	39017	0	0	0	23257	21860	128541	27140	996363	40699	108569	0	0	8361	520557	0	0
2024-05-29 21:59:32			0	38995	0	0	0	23254	21860	128593	26953	996390	40699	108568	0	0	8360	521392	0	0
2024-05-29 22:00:32			0	38955	0	0	0	23249	21860	128669	26951	996390	40699	108566	0	0	8358	522911	0	0
2024-05-29 22:01:32			0	38961	0	0	0	23257	21860	128737	27055	996355	40709	108569	0	0	8358	522683	0	0
2024-05-29 22:02:32			0	38903	0	0	0	23249	21860	128797	27171	996328	40709	108566	0	0	8356	524891	0	0
2024-05-29 22:03:32			0	38887	0	0	0	23254	21850	128881	27308	996293	40686	108568	0	0	8355	525530	0	0
2024-05-29 22:04:32			0	38882	0	0	0	23251	21860	128937	27022	996328	40709	108567	0	0	8354	525692	0	0
2024-05-29 22:05:32			0	38829	0	0	0	23249	21850	129033	27104	996320	40697	108566	0	0	8352	527746	0	0
2024-05-29 22:06:32			0	38821	0	0	0	23249	21850	129093	27052	996258	40697	108566	0	0	8351	528052	0	0
2024-05-29 22:07:32			0	38820	0	0	0	23238	21860	129089	27055	996275	40709	108562	0	0	8351	528060	0	0
2024-05-29 22:08:32			0	38806	0	0	0	23246	21850	129205	27248	996232	40697	108565	0	0	8351	528626	0	0
2024-05-29 22:09:32			0	38767	0	0	0	23236	21840	129273	27402	996223	40708	108561	0	0	8349	530149	0	0
2024-05-29 22:10:32			0	38752	0	0	0	23233	21840	129297	27293	996241	40697	108560	0	0	8348	530724	0	0
2024-05-29 22:11:32			0	38735	0	0	0	23228	21840	129337	27157	996241	40697	108558	0	0	8347	531377	0	0
2024-05-29 22:12:32			0	38696	0	0	0	23225	21840	129368	27215	996241	40708	108557	0	0	8345	532876	0	0
2024-05-29 22:13:32			0	38713	0	0	0	23231	21830	129432	26937	996277	40707	108559	0	0	8346	532252	0	0
2024-05-29 22:14:32			0	38674	0	0	0	23225	21840	129412	27390	996276	40708	108557	0	0	8344	533722	0	0
2024-05-29 22:15:32			0	38673	0	0	0	23236	21840	129544	27185	996215	40708	108561	0	0	8344	533761	0	0
2024-05-29 22:16:32			0	38671	0	0	0	23238	21830	129508	27286	996313	40707	108562	0	0	8344	533867	0	0
2024-05-29 22:17:32			0	38656	0	0	0	23233	21840	129532	27248	996241	40708	108560	0	0	8343	534416	0	0
2024-05-29 22:18:32			0	38638	0	0	0	23238	21840	129600	27263	996215	40708	108562	0	0	8342	535109	0	0
2024-05-29 22:19:32			0	38621	0	0	0	23241	21830	129672	27144	996260	40707	108563	0	0	8341	535795	0	0
2024-05-29 22:20:32			0	38623	0	0	0	23238	21840	129704	27190	996250	40708	108562	0	0	8341	535688	0	0
2024-05-29 22:21:32			0	38608	0	0	0	23241	21840	129736	27386	996188	40697	108563	0	0	8340	536267	0	0
2024-05-29 22:22:32			0	38586	0	0	0	23241	21840	129840	26937	996295	40697	108563	0	0	8339	537117	0	0
2024-05-29 22:23:32			0	38575	0	0	0	23249	21840	129924	27215	996268	40708	108566	0	0	8338	537542	0	0
2024-05-29 22:24:32			0	38561	0	0	0	23254	21840	129944	27066	996268	40708	108568	0	0	8338	538083	0	0
2024-05-29 22:25:32			0	38563	0	0	0	23236	21840	130000	27124	996250	40718	108561	0	0	8338	538006	0	0
2024-05-29 22:26:32			0	38555	0	0	0	23246	21840	130004	27255	996295	40708	108565	0	0	8337	538316	0	0
2024-05-29 22:27:32			0	38521	0	0	0	23249	21840	129996	27197	996295	40697	108566	0	0	8336	539632	0	0
2024-05-29 22:28:32			0	38526	0	0	0	23251	21830	130020	27161	996286	40707	108567	0	0	8336	539469	0	0
2024-05-29 22:29:32			0	38518	0	0	0	23249	21840	130084	27185	996268	40708	108566	0	0	8335	539749	0	0
2024-05-29 22:30:32			0	38499	0	0	0	23251	21830	130052	27322	996198	40707	108567	0	0	8334	540516	0	0
2024-05-29 22:31:32			0	38524	0	0	0	23249	21840	130080	27180	996276	40708	108566	0	0	8336	539516	0	0
2024-05-29 22:32:32			0	38488	0	0	0	23244	21840	130168	27046	996268	40708	108564	0	0	8334	540912	0	0
2024-05-29 22:33:32			0	38486	0	0	0	23241	21840	130216	27267	996295	40718	108563	0	0	8334	540990	0	0
2024-05-29 22:34:32			0	38483	0	0	0	23244	21840	130180	27033	996268	40708	108564	0	0	8334	541106	0	0
2024-05-29 22:35:32			0	38452	0	0	0	23241	21840	130240	27206	996303	40718	108563	0	0	8332	542311	0	0
2024-05-29 22:36:32			0	38441	0	0	0	23244	21850	130288	27154	996285	40697	108564	0	0	8332	542708	0	0
2024-05-29 22:37:32			0	38465	0	0	0	23257	21840	130276	27284	996268	40718	108569	0	0	8333	541806	0	0
2024-05-29 22:38:32			0	38451	0	0	0	23254	21840	130352	27123	996295	40708	108568	0	0	8332	542350	0	0
2024-05-29 22:39:32			0	38433	0	0	0	23249	21850	130356	27249	996312	40697	108566	0	0	8331	543020	0	0
2024-05-29 22:40:32			0	38419	0	0	0	23246	21840	130324	27228	996330	40697	108565	0	0	8330	543595	0	0
2024-05-29 22:41:32			0	38425	0	0	0	23238	21830	130396	27163	996286	40707	108562	0	0	8331	543391	0	0
2024-05-29 22:42:32			0	38404	0	0	0	23246	21840	130396	26875	996250	40708	108565	0	0	8330	544179	0	0
2024-05-29 22:43:32			0	38404	0	0	0	23246	21840	130404	26930	996276	40697	108565	0	0	8330	544179	0	0
2024-05-29 22:44:32			0	38408	0	0	0	23246	21840	130524	27163	996250	40708	108565	0	0	8330	544023	0	0
2024-05-29 22:45:32			0	38384	0	0	0	23249	21840	130488	27043	996250	40718	108566	0	0	8329	544958	0	0
2024-05-29 22:46:32			0	38409	0	0	0	23244	21850	130424	27464	996320	40719	108564	0	0	8330	543954	0	0
2024-05-29 22:47:32			0	38386	0	0	0	23254	21840	130416	27229	996303	40708	108568	0	0	8329	544880	0	0
2024-05-29 22:48:32			0	38389	0	0	0	23246	21850	130480	27514	996338	40719	108565	0	0	8329	544733	0	0
2024-05-29 22:49:32			0	38375	0	0	0	23249	21850	130516	27104	996258	40708	108566	0	0	8328	545279	0	0
2024-05-29 22:50:32			0	38380	0	0	0	23236	21840	130436	27400	996241	40708	108561	0	0	8329	545114	0	0
2024-05-29 22:51:32			0	38387	0	0	0	23238	21840	130520	27189	996303	40718	108562	0	0	8329	544841	0	0
2024-05-29 22:52:32			0	38370	0	0	0	23238	21840	130520	26871	996303	40708	108562	0	0	8328	545504	0	0
2024-05-29 22:53:32			0	38361	0	0	0	23228	21830	130516	27152	996180	40707	108558	0	0	8328	545886	0	0
2024-05-29 22:54:32			0	38374	0	0	0	23223	21830	130532	27242	996153	40707	108556	0	0	8328	545379	0	0
2024-05-29 22:55:32			0	38340	0	0	0	23223	21830	130552	26960	996127	40696	108556	0	0	8327	546706	0	0
2024-05-29 22:56:32			0	38356	0	0	0	23210	21830	130476	27256	996198	40684	108551	0	0	8328	546081	0	0
2024-05-29 22:57:32			0	38362	0	0	0	23207	21830	130608	27204	996171	40707	108550	0	0	8328	545847	0	0
2024-05-29 22:58:32			0	38349	0	0	0	23205	21830	130536	27220	996091	40696	108549	0	0	8327	546355	0	0
2024-05-29 22:59:32			0	38337	0	0	0	23199	21820	130632	27059	996101	40684	108547	0	0	8327	546854	0	0
2024-05-29 23:00:32			0	38345	0	0	0	23202	21820	130672	27312	996154	40706	108548	0	0	8327	546541	0	0
2024-05-29 23:01:32			0	38334	0	0	0	23194	21810	130584	27074	996146	40705	108545	0	0	8327	547001	0	0
2024-05-29 23:02:32			0	38360	0	0	0	23189	21810	130640	27086	996137	40704	108543	0	0	8328	545986	0	0
2024-05-29 23:03:32			0	38334	0	0	0	23189	21810	130628	26991	996039	40705	108543	0	0	8327	547001	0	0
2024-05-29 23:04:32			0	38335	0	0	0	23189	21800	130652	27190	996067	40714	108543	0	0	8327	546993	0	0
2024-05-29 23:05:32			0	38340	0	0	0	23189	21800	130600	26821	996049	40704	108543	0	0	8327	546797	0	0
2024-05-29 23:06:32			0	38325	0	0	0	23189	21800	130644	27241	996049	40693	108543	0	0	8326	547384	0	0
2024-05-29 23:07:32			0	38317	0	0	0	23189	21800	130644	27036	996041	40703	108543	0	0	8326	547697	0	0
2024-05-29 23:08:32			0	38335	0	0	0	23184	21790	130632	27303	996059	40703	108541	0	0	8327	547023	0	0
2024-05-29 23:09:32			0	38353	0	0	0	23186	21800	130596	27417	996014	40703	108542	0	0	8328	546289	0	0
2024-05-29 23:10:32			0	38336	0	0	0	23192	21790	130628	27606	996059	40703	108544	0	0	8327	546984	0	0
2024-05-29 23:11:32			0	38329	0	0	0	23189	21790	130640	27315	995997	40703	108543	0	0	8326	547258	0	0
2024-05-29 23:12:32			0	38344	0	0	0	23174	21790	130592	27256	996059	40703	108537	0	0	8328	546671	0	0
2024-05-29 23:13:32			0	38323	0	0	0	23181	21780	130668	27398	996015	40703	108540	0	0	8326	547523	0	0
2024-05-29 23:14:32			0	38335	0	0	0	23186	21790	130580	27194	996050	40703	108542	0	0	8327	547023	0	0
2024-05-29 23:15:32			0	38332	0	0	0	23176	21800	130652	27248	996014	40692	108538	0	0	8327	547110	0	0
2024-05-29 23:16:32			0	38351	0	0	0	23166	21780	130560	27274	995989	40713	108534	0	0	8328	546428	0	0
2024-05-29 23:17:32			0	38336	0	0	0	23161	21780	130656	27223	995962	40703	108532	0	0	8327	547015	0	0
2024-05-29 23:18:32			0	38353	0	0	0	23158	21770	130500	27457	995963	40690	108531	0	0	8328	546381	0	0
2024-05-29 23:19:32			0	38336	0	0	0	23163	21770	130576	27131	995883	40701	108533	0	0	8327	547045	0	0
2024-05-29 23:20:32			0	38354	0	0	0	23150	21760	130604	27133	995928	40701	108528	0	0	8328	546372	0	0
2024-05-29 23:21:32			0	38321	0	0	0	23148	21770	130576	27244	995945	40690	108527	0	0	8327	547632	0	0
2024-05-29 23:22:32			0	38347	0	0	0	23145	21760	130572	27220	995893	40689	108526	0	0	8328	546646	0	0
2024-05-29 23:23:32			0	38333	0	0	0	23140	21750	130516	27360	995850	40688	108524	0	0	8327	547223	0	0
2024-05-29 23:24:32			0	38349	0	0	0	23142	21760	130520	27229	995848	40678	108525	0	0	8328	546568	0	0
2024-05-29 23:25:32			0	38354	0	0	0	23129	21760	130568	27519	995867	40700	108520	0	0	8329	546372	0	0
2024-05-29 23:26:32			0	38355	0	0	0	23135	21770	130480	27298	995910	40690	108522	0	0	8329	546303	0	0
2024-05-29 23:27:32			0	38360	0	0	0	23129	21750	130476	27093	995876	40688	108520	0	0	8329	546168	0	0
2024-05-29 23:28:32			0	38358	0	0	0	23129	21750	130516	27239	995850	40709	108520	0	0	8329	546246	0	0
2024-05-29 23:29:32			0	38355	0	0	0	23142	21750	130552	26859	995885	40710	108525	0	0	8328	546364	0	0
2024-05-29 23:30:32			0	38354	0	0	0	23132	21750	130576	27199	995885	40710	108521	0	0	8329	546403	0	0
2024-05-29 23:31:32			0	38373	0	0	0	23140	21750	130500	27010	995911	40700	108524	0	0	8329	545661	0	0
2024-05-29 23:32:32			0	38380	0	0	0	23148	21760	130528	27119	995920	40710	108527	0	0	8330	545357	0	0
2024-05-29 23:33:32			0	38352	0	0	0	23148	21750	130552	27270	995965	40700	108527	0	0	8328	546481	0	0
2024-05-29 23:34:32			0	38384	0	0	0	23145	21760	130532	27227	995902	40690	108526	0	0	8330	545201	0	0
2024-05-29 23:35:32			0	38368	0	0	0	23153	21750	130492	27154	995850	40699	108529	0	0	8329	545856	0	0
2024-05-29 23:36:32			0	38360	0	0	0	23153	21750	130508	27353	995885	40700	108529	0	0	8329	546168	0	0
2024-05-29 23:37:32			0	38392	0	0	0	23145	21750	130480	26927	995991	40710	108526	0	0	8330	544919	0	0
2024-05-29 23:38:32			0	38384	0	0	0	23155	21760	130496	27218	995893	40721	108530	0	0	8330	545201	0	0
2024-05-29 23:39:32			0	38398	0	0	0	23163	21760	130392	27372	995946	40721	108533	0	0	8330	544655	0	0
2024-05-29 23:40:32			0	38393	0	0	0	23155	21760	130408	27019	995946	40700	108530	0	0	8330	544850	0	0
2024-05-29 23:41:32			0	38396	0	0	0	23166	21770	130404	27156	996017	40701	108534	0	0	8330	544703	0	0
2024-05-29 23:42:32			0	38397	0	0	0	23176	21760	130444	26774	996053	40689	108538	0	0	8330	544694	0	0
2024-05-29 23:43:32			0	38406	0	0	0	23181	21770	130436	26968	996017	40701	108540	0	0	8331	544313	0	0
2024-05-29 23:44:32			0	38426	0	0	0	23186	21770	130456	27175	996043	40701	108542	0	0	8331	543534	0	0
2024-05-29 23:45:32			0	38404	0	0	0	23197	21770	130344	27237	996078	40712	108546	0	0	8330	544391	0	0
2024-05-29 23:46:32			0	38411	0	0	0	23207	21790	130340	27154	996130	40703	108550	0	0	8330	544058	0	0
2024-05-29 23:47:32			0	38416	0	0	0	23199	21780	130320	26889	996095	40703	108547	0	0	8331	543893	0	0
2024-05-29 23:48:32			0	38433	0	0	0	23210	21790	130260	27178	996165	40714	108551	0	0	8332	543201	0	0
2024-05-29 23:49:32			0	38410	0	0	0	23218	21790	130344	27043	996112	40725	108554	0	0	8330	544097	0	0
2024-05-29 23:50:32			0	38426	0	0	0	23218	21800	130324	27284	996147	40703	108554	0	0	8331	543443	0	0
2024-05-29 23:51:32			0	38436	0	0	0	23215	21800	130336	27248	996147	40703	108553	0	0	8332	543054	0	0
2024-05-29 23:52:32			0	38435	0	0	0	23215	21800	130284	27206	996094	40703	108553	0	0	8332	543093	0	0
2024-05-29 23:53:32			0	38448	0	0	0	23215	21800	130300	27182	996120	40703	108553	0	0	8332	542587	0	0
2024-05-29 23:54:32			0	38438	0	0	0	23218	21810	130276	27031	996111	40715	108554	0	0	8332	542946	0	0
2024-05-29 23:55:32			0	38481	0	0	0	23220	21810	130260	27064	996217	40704	108555	0	0	8334	541275	0	0
2024-05-29 23:56:32			0	38471	0	0	0	23218	21810	130336	26760	996164	40704	108554	0	0	8333	541663	0	0
2024-05-29 23:57:32			0	38454	0	0	0	23218	21800	130276	27033	996209	40704	108554	0	0	8333	542354	0	0
2024-05-29 23:58:32			0	38470	0	0	0	23218	21800	130276	26918	996102	40704	108554	0	0	8333	541732	0	0
2024-05-29 23:59:32			0	38482	0	0	0	23215	21810	130176	26951	996137	40693	108553	0	0	8334	541236	0	0
2024-05-30 00:00:32			0	38479	0	0	0	23212	21810	130176	27081	996191	40726	108552	0	0	8334	541352	0	0
2024-05-30 00:01:32			0	38485	0	0	0	23215	21810	130212	26849	996164	40704	108553	0	0	8334	541119	0	0
2024-05-30 00:02:32			0	38472	0	0	0	23215	21800	130144	27085	996102	40715	108553	0	0	8334	541654	0	0
2024-05-30 00:03:32			0	38499	0	0	0	23210	21810	130084	27095	996111	40704	108551	0	0	8335	540576	0	0
2024-05-30 00:04:32			0	38511	0	0	0	23207	21810	130092	27173	996146	40694	108550	0	0	8336	540110	0	0
2024-05-30 00:05:32			0	38511	0	0	0	23199	21800	130076	27474	996102	40693	108547	0	0	8336	540140	0	0
2024-05-30 00:06:32			0	38526	0	0	0	23192	21800	130084	27039	996049	40693	108544	0	0	8337	539559	0	0
2024-05-30 00:07:32			0	38524	0	0	0	23171	21800	129992	27137	996049	40715	108536	0	0	8337	539636	0	0
2024-05-30 00:08:32			0	38506	0	0	0	23166	21790	130060	27196	996006	40703	108534	0	0	8336	540364	0	0
2024-05-30 00:09:32			0	38537	0	0	0	23166	21770	129988	27062	995919	40712	108534	0	0	8338	539223	0	0
2024-05-30 00:10:32			0	38528	0	0	0	23158	21770	130016	27230	995972	40702	108531	0	0	8337	539571	0	0
2024-05-30 00:11:32			0	38548	0	0	0	23150	21770	129988	27289	995998	40712	108528	0	0	8338	538797	0	0
2024-05-30 00:12:32			0	38550	0	0	0	23166	21770	129864	27313	995998	40712	108534	0	0	8338	538719	0	0
2024-05-30 00:13:32			0	38559	0	0	0	23161	21770	129912	27043	995963	40701	108532	0	0	8339	538371	0	0
2024-05-30 00:14:32			0	38568	0	0	0	23168	21790	129848	27211	995997	40691	108535	0	0	8339	537962	0	0
2024-05-30 00:15:32			0	38570	0	0	0	23166	21790	129912	27419	995970	40713	108534	0	0	8339	537885	0	0
2024-05-30 00:16:32			0	38575	0	0	0	23166	21770	129836	27176	995990	40701	108534	0	0	8340	537752	0	0
2024-05-30 00:17:32			0	38598	0	0	0	23163	21770	129868	27256	995937	40711	108533	0	0	8341	536862	0	0
2024-05-30 00:18:32			0	38601	0	0	0	23161	21750	129780	27261	995965	40700	108532	0	0	8341	536806	0	0
2024-05-30 00:19:32			0	38598	0	0	0	23168	21770	129812	27249	995963	40711	108535	0	0	8341	536862	0	0
2024-05-30 00:20:32			0	38623	0	0	0	23163	21750	129744	27183	995991	40689	108533	0	0	8342	535956	0	0
2024-05-30 00:21:32			0	38621	0	0	0	23168	21770	129716	26871	995963	40722	108535	0	0	8342	535974	0	0
2024-05-30 00:22:32			0	38633	0	0	0	23166	21760	129668	27234	995955	40690	108534	0	0	8343	535541	0	0
2024-05-30 00:23:32			0	38625	0	0	0	23168	21760	129712	27229	995973	40710	108535	0	0	8342	535849	0	0
2024-05-30 00:24:32			0	38642	0	0	0	23158	21750	129576	26897	996009	40688	108531	0	0	8343	535223	0	0
2024-05-30 00:25:32			0	38645	0	0	0	23158	21770	129656	27001	995910	40711	108531	0	0	8343	535048	0	0
2024-05-30 00:26:32			0	38652	0	0	0	23150	21760	129660	27307	995920	40710	108528	0	0	8344	534808	0	0
2024-05-30 00:27:32			0	38678	0	0	0	23145	21740	129632	27031	995868	40699	108526	0	0	8345	533865	0	0
2024-05-30 00:28:32			0	38685	0	0	0	23145	21750	129564	27204	995885	40700	108526	0	0	8346	533566	0	0
2024-05-30 00:29:32			0	38696	0	0	0	23148	21750	129604	27428	995876	40709	108527	0	0	8346	533143	0	0
2024-05-30 00:30:32			0	38715	0	0	0	23150	21750	129484	27376	995930	40709	108528	0	0	8347	532412	0	0
2024-05-30 00:31:32			0	38712	0	0	0	23145	21750	129504	27098	995930	40688	108526	0	0	8347	532527	0	0
2024-05-30 00:32:32			0	38716	0	0	0	23142	21740	129424	27069	995948	40699	108525	0	0	8347	532403	0	0
2024-05-30 00:33:32			0	38745	0	0	0	23150	21740	129377	27031	995868	40709	108528	0	0	8349	531289	0	0
2024-05-30 00:34:32			0	38739	0	0	0	23148	21740	129320	27156	995841	40709	108527	0	0	8348	531519	0	0
2024-05-30 00:35:32			0	38787	0	0	0	23140	21750	129357	27322	995850	40699	108524	0	0	8351	529648	0	0
2024-05-30 00:36:32			0	38777	0	0	0	23145	21740	129277	27187	995895	40699	108526	0	0	8350	530061	0	0
2024-05-30 00:37:32			0	38796	0	0	0	23153	21740	129145	27485	995868	40721	108529	0	0	8351	529332	0	0
2024-05-30 00:38:32			0	38810	0	0	0	23145	21740	129185	26965	995886	40687	108526	0	0	8352	528796	0	0
2024-05-30 00:39:32			0	38824	0	0	0	23142	21730	129141	27424	995824	40708	108525	0	0	8353	528290	0	0
2024-05-30 00:40:32			0	38843	0	0	0	23145	21740	129081	27171	995868	40699	108526	0	0	8354	527533	0	0
2024-05-30 00:41:32			0	38843	0	0	0	23137	21730	129109	27244	995851	40697	108523	0	0	8354	527563	0	0
2024-05-30 00:42:32			0	38840	0	0	0	23127	21730	129125	27400	995851	40697	108519	0	0	8354	527678	0	0
2024-05-30 00:43:32			0	38852	0	0	0	23127	21730	129097	27017	995798	40686	108519	0	0	8354	527219	0	0
2024-05-30 00:44:32			0	38870	0	0	0	23119	21730	129041	27007	995824	40697	108516	0	0	8355	526531	0	0
2024-05-30 00:45:32			0	38869	0	0	0	23109	21730	129109	27234	995736	40708	108512	0	0	8356	526569	0	0
2024-05-30 00:46:32			0	38857	0	0	0	23111	21720	129085	27419	995693	40685	108513	0	0	8355	527057	0	0
2024-05-30 00:47:32			0	38864	0	0	0	23111	21710	128921	27041	995764	40684	108513	0	0	8355	526819	0	0
2024-05-30 00:48:32			0	38882	0	0	0	23106	21720	129065	27183	995754	40708	108511	0	0	8356	526102	0	0
2024-05-30 00:49:32			0	38875	0	0	0	23114	21730	129033	27150	995710	40697	108514	0	0	8356	526340	0	0
2024-05-30 00:50:32			0	38865	0	0	0	23101	21720	129009	26902	995773	40696	108509	0	0	8356	526751	0	0
2024-05-30 00:51:32			0	38890	0	0	0	23114	21710	129025	27185	995764	40707	108514	0	0	8357	525826	0	0
2024-05-30 00:52:32			0	38885	0	0	0	23116	21720	129001	27211	995826	40708	108515	0	0	8356	525987	0	0
2024-05-30 00:53:32			0	38901	0	0	0	23109	21720	129017	26993	995773	40718	108512	0	0	8357	525377	0	0
2024-05-30 00:54:32			0	38908	0	0	0	23122	21730	128893	27105	995763	40697	108517	0	0	8357	525081	0	0
2024-05-30 00:55:32			0	38906	0	0	0	23122	21720	128881	27260	995773	40696	108517	0	0	8357	525186	0	0
2024-05-30 00:56:32			0	38899	0	0	0	23124	21720	128837	27372	995754	40697	108518	0	0	8357	525453	0	0
2024-05-30 00:57:32			0	38924	0	0	0	23124	21720	128965	27145	995834	40708	108518	0	0	8358	524500	0	0
2024-05-30 00:58:32			0	38914	0	0	0	23122	21720	128813	27232	995799	40696	108517	0	0	8358	524881	0	0
2024-05-30 00:59:32			0	38913	0	0	0	23116	21720	128869	27046	995799	40708	108515	0	0	8358	524919	0	0
2024-05-30 01:00:32			0	38912	0	0	0	23116	21730	128801	27137	995789	40697	108515	0	0	8358	524928	0	0
2024-05-30 01:01:32			0	38901	0	0	0	23101	21720	128889	26908	995773	40708	108509	0	0	8357	525377	0	0
2024-05-30 01:02:32			0	38916	0	0	0	23106	21720	128757	27298	995799	40696	108511	0	0	8358	524805	0	0
2024-05-30 01:03:32			0	38928	0	0	0	23106	21720	128785	27237	995773	40696	108511	0	0	8359	524347	0	0
2024-05-30 01:04:32			0	38947	0	0	0	23106	21710	128757	27201	995738	40707	108511	0	0	8360	523653	0	0
2024-05-30 01:05:32			0	38934	0	0	0	23109	21720	128877	27209	995773	40708	108512	0	0	8359	524119	0	0
2024-05-30 01:06:32			0	38921	0	0	0	23111	21710	128825	27100	995791	40696	108513	0	0	8358	524643	0	0
2024-05-30 01:07:32			0	38950	0	0	0	23103	21710	128877	27085	995702	40696	108510	0	0	8360	523539	0	0
2024-05-30 01:08:32			0	38958	0	0	0	23106	21700	128685	26788	995720	40695	108511	0	0	8360	523263	0	0
2024-05-30 01:09:32			0	38937	0	0	0	23096	21700	128717	27131	995694	40695	108507	0	0	8359	524063	0	0
2024-05-30 01:10:32			0	38943	0	0	0	23090	21710	128805	27253	995711	40684	108505	0	0	8360	523805	0	0
2024-05-30 01:11:32			0	38951	0	0	0	23098	21700	128797	27298	995774	40695	108508	0	0	8360	523530	0	0
2024-05-30 01:12:32			0	38968	0	0	0	23098	21700	128613	27386	995800	40695	108508	0	0	8361	522883	0	0
2024-05-30 01:13:32			0	38960	0	0	0	23090	21690	128645	27194	995685	40706	108505	0	0	8360	523216	0	0
2024-05-30 01:14:32			0	38972	0	0	0	23098	21690	128645	27041	995685	40695	108508	0	0	8361	522760	0	0
2024-05-30 01:15:32			0	38980	0	0	0	23096	21700	128637	27045	995774	40695	108507	0	0	8361	522427	0	0
2024-05-30 01:16:32			0	39004	0	0	0	23096	21690	128589	27332	995677	40705	108507	0	0	8363	521543	0	0
2024-05-30 01:17:32			0	39020	0	0	0	23103	21700	128613	27270	995747	40683	108510	0	0	8363	520907	0	0
2024-05-30 01:18:32			0	39010	0	0	0	23096	21700	128545	27072	995694	40695	108507	0	0	8363	521287	0	0
2024-05-30 01:19:32			0	38996	0	0	0	23098	21690	128497	27187	995712	40695	108508	0	0	8362	521847	0	0
2024-05-30 01:20:32			0	39051	0	0	0	23116	21690	128513	27034	995712	40695	108515	0	0	8365	519760	0	0
2024-05-30 01:21:32			0	39040	0	0	0	23103	21710	128469	27329	995702	40684	108510	0	0	8365	520119	0	0
2024-05-30 01:22:32			0	39048	0	0	0	23098	21700	128369	27088	995720	40695	108508	0	0	8365	519845	0	0
2024-05-30 01:23:32			0	39070	0	0	0	23098	21710	128357	26970	995729	40707	108508	0	0	8366	518982	0	0
2024-05-30 01:24:32			0	39073	0	0	0	23098	21700	128389	27301	995747	40695	108508	0	0	8366	518898	0	0
2024-05-30 01:25:32			0	39056	0	0	0	23101	21690	128357	27251	995703	40694	108509	0	0	8365	519571	0	0
2024-05-30 01:26:32			0	39086	0	0	0	23101	21700	128293	27053	995720	40683	108509	0	0	8367	518405	0	0
2024-05-30 01:27:32			0	39085	0	0	0	23098	21710	128345	27123	995729	40684	108508	0	0	8367	518414	0	0
2024-05-30 01:28:32			0	39096	0	0	0	23096	21700	128397	27235	995747	40695	108507	0	0	8367	518027	0	0
2024-05-30 01:29:32			0	39093	0	0	0	23085	21710	128277	27209	995702	40684	108503	0	0	8368	518112	0	0
2024-05-30 01:30:32			0	39094	0	0	0	23077	21690	128317	27090	995677	40694	108500	0	0	8368	518131	0	0
2024-05-30 01:31:32			0	39118	0	0	0	23075	21690	128145	27230	995624	40694	108499	0	0	8369	517224	0	0
2024-05-30 01:32:32			0	39124	0	0	0	23077	21690	128169	27194	995605	40695	108500	0	0	8369	516997	0	0
2024-05-30 01:33:32			0	39105	0	0	0	23070	21680	128237	27196	995668	40694	108497	0	0	8368	517744	0	0
2024-05-30 01:34:32			0	39111	0	0	0	23070	21690	128257	27164	995624	40705	108497	0	0	8369	517489	0	0
2024-05-30 01:35:32			0	39107	0	0	0	23064	21670	128229	27081	995563	40681	108495	0	0	8368	517697	0	0
2024-05-30 01:36:32			0	39079	0	0	0	23059	21670	128317	27057	995598	40704	108493	0	0	8367	518757	0	0
2024-05-30 01:37:32			0	39098	0	0	0	23054	21670	128341	27121	995518	40704	108491	0	0	8368	518038	0	0
2024-05-30 01:38:32			0	39078	0	0	0	23057	21670	128361	27353	995590	40692	108492	0	0	8367	518795	0	0
2024-05-30 01:39:32			0	39064	0	0	0	23059	21670	128417	27433	995545	40714	108493	0	0	8366	519325	0	0
2024-05-30 01:40:32			0	39043	0	0	0	23049	21660	128425	27457	995546	40691	108489	0	0	8365	520150	0	0
2024-05-30 01:41:32			0	39026	0	0	0	23049	21650	128457	26994	995530	40690	108489	0	0	8364	520824	0	0
2024-05-30 01:42:32			0	39018	0	0	0	23046	21650	128497	27116	995591	40702	108488	0	0	8364	521128	0	0
2024-05-30 01:43:32			0	39002	0	0	0	23049	21660	128577	26984	995502	40691	108489	0	0	8363	521707	0	0
2024-05-30 01:44:32			0	38996	0	0	0	23044	21650	128701	27111	995538	40691	108487	0	0	8363	521964	0	0
2024-05-30 01:45:32			0	38977	0	0	0	23044	21650	128773	27218	995591	40680	108487	0	0	8362	522686	0	0
2024-05-30 01:46:32			0	38949	0	0	0	23044	21650	128849	27067	995485	40702	108487	0	0	8361	523752	0	0
2024-05-30 01:47:32			0	38911	0	0	0	23049	21650	128901	26833	995556	40701	108489	0	0	8358	525200	0	0
2024-05-30 01:48:32			0	38893	0	0	0	23051	21650	128985	26915	995538	40691	108490	0	0	8358	525887	0	0
2024-05-30 01:49:32			0	38869	0	0	0	23046	21650	128985	27168	995503	40690	108488	0	0	8356	526804	0	0
2024-05-30 01:50:32			0	38848	0	0	0	23041	21650	129073	26939	995511	40702	108486	0	0	8355	527606	0	0
2024-05-30 01:51:32			0	38799	0	0	0	23057	21650	129177	27312	995485	40702	108492	0	0	8353	529483	0	0
2024-05-30 01:52:32			0	38795	0	0	0	23051	21640	129321	26901	995486	40689	108490	0	0	8352	529666	0	0
2024-05-30 01:53:32			0	38744	0	0	0	23051	21650	129385	27358	995485	40702	108490	0	0	8350	531593	0	0
2024-05-30 01:54:32			0	38733	0	0	0	23057	21650	129441	27483	995530	40690	108492	0	0	8349	532016	0	0
2024-05-30 01:55:32			0	38702	0	0	0	23051	21650	129560	27274	995538	40680	108490	0	0	8348	533209	0	0
2024-05-30 01:56:32			0	38649	0	0	0	23051	21650	129628	27265	995530	40690	108490	0	0	8345	535251	0	0
2024-05-30 01:57:32			0	38630	0	0	0	23044	21650	129788	27112	995538	40680	108487	0	0	8344	535984	0	0
2024-05-30 01:58:32			0	38619	0	0	0	23049	21650	129840	27116	995538	40702	108489	0	0	8343	536409	0	0
2024-05-30 01:59:32			0	38557	0	0	0	23041	21640	129904	27322	995460	40701	108486	0	0	8340	538838	0	0
2024-05-30 02:00:32			0	38533	0	0	0	23038	21650	130136	27402	995476	40701	108485	0	0	8339	539738	0	0
2024-05-30 02:01:32			0	38499	0	0	0	23036	21640	130208	27376	995415	40689	108484	0	0	8337	541088	0	0
2024-05-30 02:02:32			0	38449	0	0	0	23028	21640	130304	27357	995415	40689	108481	0	0	8335	543032	0	0
2024-05-30 02:03:32			0	38409	0	0	0	23020	21640	130448	27267	995433	40678	108478	0	0	8333	544590	0	0
2024-05-30 02:04:32			0	38384	0	0	0	23018	21630	130516	27144	995371	40689	108477	0	0	8332	545596	0	0
2024-05-30 02:05:32			0	38321	0	0	0	23018	21620	130724	27315	995408	40676	108477	0	0	8328	548089	0	0
2024-05-30 02:06:32			0	38298	0	0	0	22999	21620	130824	27157	995373	40688	108470	0	0	8327	548990	0	0
2024-05-30 02:07:32			0	38235	0	0	0	22981	21610	130996	27046	995231	40688	108463	0	0	8324	551493	0	0
2024-05-30 02:08:32			0	38209	0	0	0	22971	21600	131172	26746	995267	40674	108459	0	0	8323	552546	0	0
2024-05-30 02:09:32			0	38138	0	0	0	22968	21590	131300	27147	995171	40674	108458	0	0	8319	555375	0	0
2024-05-30 02:10:32			0	38083	0	0	0	22961	21580	131536	26993	995207	40662	108455	0	0	8317	557580	0	0
2024-05-30 02:11:32			0	38027	0	0	0	22958	21580	131720	27196	995065	40672	108454	0	0	8314	559799	0	0
2024-05-30 02:12:32			0	37967	0	0	0	22942	21580	131983	27391	995065	40672	108448	0	0	8311	562182	0	0
2024-05-30 02:13:32			0	37913	0	0	0	22937	21550	132135	27261	994997	40670	108446	0	0	8308	564427	0	0
2024-05-30 02:14:32			0	37846	0	0	0	22922	21550	132355	27282	994970	40693	108440	0	0	8305	567103	0	0
2024-05-30 02:15:32			0	37781	0	0	0	22906	21540	132563	27177	994873	40669	108434	0	0	8302	569738	0	0
2024-05-30 02:16:32			0	37733	0	0	0	22901	21540	132819	27267	994953	40669	108432	0	0	8299	571666	0	0
2024-05-30 02:17:32			0	37648	0	0	0	22888	21520	133067	26913	994760	40679	108427	0	0	8295	575154	0	0
2024-05-30 02:18:32			0	37605	0	0	0	22872	21510	133255	27171	994735	40666	108421	0	0	8293	576924	0	0
2024-05-30 02:19:32			0	37535	0	0	0	22864	21510	133487	27227	994735	40688	108418	0	0	8289	579760	0	0
2024-05-30 02:20:32			0	37492	0	0	0	22857	21490	133655	26925	994683	40665	108415	0	0	8287	581571	0	0
2024-05-30 02:21:32			0	37438	0	0	0	22844	21480	133871	27190	994692	40654	108410	0	0	8285	583802	0	0
2024-05-30 02:22:32			0	37383	0	0	0	22831	21470	133959	27391	994649	40663	108405	0	0	8282	586079	0	0
2024-05-30 02:23:32			0	37344	0	0	0	22846	21470	134159	26791	994622	40663	108411	0	0	8280	587674	0	0
2024-05-30 02:24:32			0	37290	0	0	0	22833	21470	134326	27222	994667	40684	108406	0	0	8277	589888	0	0
2024-05-30 02:25:32			0	37261	0	0	0	22836	21460	134510	27173	994579	40662	108407	0	0	8275	591112	0	0
2024-05-30 02:26:32			0	37217	0	0	0	22831	21470	134634	27326	994614	40662	108405	0	0	8273	592889	0	0
2024-05-30 02:27:32			0	37161	0	0	0	22825	21450	134774	26911	994588	40672	108403	0	0	8270	595264	0	0
2024-05-30 02:28:32			0	37137	0	0	0	22836	21450	134926	27123	994562	40661	108407	0	0	8269	596256	0	0
2024-05-30 02:29:32			0	37107	0	0	0	22825	21450	135138	27346	994562	40672	108403	0	0	8267	597497	0	0
2024-05-30 02:30:32			0	37066	0	0	0	22828	21440	135126	27246	994571	40671	108404	0	0	8265	599228	0	0
2024-05-30 02:31:32			0	37028	0	0	0	22833	21460	135262	27057	994606	40684	108406	0	0	8263	600739	0	0
2024-05-30 02:32:32			0	37011	0	0	0	22851	21460	135270	27320	994650	40672	108413	0	0	8262	601446	0	0
2024-05-30 02:33:32			0	36995	0	0	0	22857	21460	135430	27137	994677	40662	108415	0	0	8261	602111	0	0
2024-05-30 02:34:32			0	36967	0	0	0	22870	21450	135630	27275	994686	40682	108420	0	0	8259	603310	0	0
2024-05-30 02:35:32			0	36930	0	0	0	22867	21460	135594	27164	994792	40662	108419	0	0	8258	604820	0	0
2024-05-30 02:36:32			0	36911	0	0	0	22875	21460	135678	27261	994739	40662	108422	0	0	8256	605613	0	0
2024-05-30 02:37:32			0	36898	0	0	0	22870	21470	135726	27187	994694	40684	108420	0	0	8256	606122	0	0
2024-05-30 02:38:32			0	36905	0	0	0	22872	21450	135778	27251	994660	40649	108421	0	0	8256	605897	0	0
2024-05-30 02:39:32			0	36869	0	0	0	22877	21460	135786	27265	994704	40672	108423	0	0	8254	607369	0	0
2024-05-30 02:40:32			0	36843	0	0	0	22875	21460	135926	27381	994712	40651	108422	0	0	8253	608458	0	0
2024-05-30 02:41:32			0	36840	0	0	0	22859	21460	135986	27072	994712	40672	108416	0	0	8253	608583	0	0
2024-05-30 02:42:32			0	36842	0	0	0	22859	21440	136042	26987	994625	40671	108416	0	0	8253	608567	0	0
2024-05-30 02:43:32			0	36815	0	0	0	22862	21460	136018	26842	994677	40662	108417	0	0	8252	609632	0	0
2024-05-30 02:44:32			0	36809	0	0	0	22862	21460	136014	27230	994677	40684	108417	0	0	8251	609883	0	0
2024-05-30 02:45:32			0	36792	0	0	0	22872	21450	136066	27064	994686	40660	108421	0	0	8250	610631	0	0
2024-05-30 02:46:32			0	36789	0	0	0	22870	21460	136130	27074	994632	40662	108420	0	0	8250	610723	0	0
2024-05-30 02:47:32			0	36765	0	0	0	22880	21470	136182	27185	994667	40672	108424	0	0	8249	611698	0	0
2024-05-30 02:48:32			0	36789	0	0	0	22872	21460	136250	27088	994677	40672	108421	0	0	8250	610723	0	0
2024-05-30 02:49:32			0	36758	0	0	0	22870	21450	136190	27258	994695	40672	108420	0	0	8248	612060	0	0
2024-05-30 02:50:32			0	36765	0	0	0	22877	21460	136262	26986	994712	40684	108423	0	0	8249	611732	0	0
2024-05-30 02:51:32			0	36755	0	0	0	22872	21460	136194	26762	994685	40672	108421	0	0	8248	612152	0	0
2024-05-30 02:52:32			0	36758	0	0	0	22872	21470	136278	27350	994694	40672	108421	0	0	8248	611992	0	0
2024-05-30 02:53:32			0	36749	0	0	0	22862	21470	136210	27504	994676	40652	108417	0	0	8248	612371	0	0
2024-05-30 02:54:32			0	36763	0	0	0	22849	21460	136222	27222	994597	40662	108412	0	0	8249	611816	0	0
2024-05-30 02:55:32			0	36757	0	0	0	22838	21440	136318	27246	994563	40671	108408	0	0	8249	612136	0	0
2024-05-30 02:56:32			0	36753	0	0	0	22825	21440	136270	27216	994571	40671	108403	0	0	8249	612305	0	0
2024-05-30 02:57:32			0	36742	0	0	0	22805	21430	136270	27178	994528	40659	108395	0	0	8249	612802	0	0
2024-05-30 02:58:32			0	36762	0	0	0	22810	21430	136286	27168	994466	40669	108397	0	0	8250	611960	0	0
2024-05-30 02:59:32			0	36770	0	0	0	22805	21420	136254	27502	994423	40659	108395	0	0	8250	611657	0	0
2024-05-30 03:00:32			0	36759	0	0	0	22792	21420	136330	27338	994450	40669	108390	0	0	8250	612120	0	0
2024-05-30 03:01:32			0	36754	0	0	0	22774	21400	136234	26994	994353	40667	108383	0	0	8250	612398	0	0
2024-05-30 03:02:32			0	36787	0	0	0	22766	21410	136130	27177	994335	40658	108380	0	0	8251	610977	0	0
2024-05-30 03:03:32			0	36789	0	0	0	22750	21390	136174	27298	994301	40656	108374	0	0	8252	610961	0	0
2024-05-30 03:04:32			0	36798	0	0	0	22745	21380	136102	27286	994239	40644	108372	0	0	8252	610616	0	0
2024-05-30 03:05:32			0	36846	0	0	0	22742	21380	136010	27038	994258	40654	108371	0	0	8255	608602	0	0
2024-05-30 03:06:32			0	36835	0	0	0	22732	21350	135970	26838	994180	40664	108367	0	0	8254	609165	0	0
2024-05-30 03:07:32			0	36876	0	0	0	22719	21360	136030	27261	994118	40652	108362	0	0	8257	607413	0	0
2024-05-30 03:08:32			0	36897	0	0	0	22698	21350	135918	26925	994048	40641	108354	0	0	8258	606568	0	0
2024-05-30 03:09:32			0	36904	0	0	0	22696	21350	135682	27486	994048	40652	108353	0	0	8259	606276	0	0
2024-05-30 03:10:32			0	36982	0	0	0	22690	21330	135534	27274	994022	40628	108351	0	0	8263	603088	0	0
2024-05-30 03:11:32			0	37028	0	0	0	22680	21330	135314	27055	994022	40651	108347	0	0	8265	601173	0	0
2024-05-30 03:12:32			0	37132	0	0	0	22677	21320	135030	27092	993943	40649	108346	0	0	8271	596893	0	0
2024-05-30 03:13:32			0	37221	0	0	0	22672	21320	134678	27327	993978	40650	108344	0	0	8276	593218	0	0
2024-05-30 03:14:32			0	37330	0	0	0	22680	21320	134259	26908	993970	40649	108347	0	0	8281	588738	0	0
2024-05-30 03:15:32			0	37441	0	0	0	22672	21320	133875	27279	993952	40661	108344	0	0	8287	584199	0	0
2024-05-30 03:16:32			0	37569	0	0	0	22675	21310	133491	27293	993927	40648	108345	0	0	8294	579024	0	0
2024-05-30 03:17:32			0	37702	0	0	0	22675	21310	133139	26979	993953	40648	108345	0	0	8301	573646	0	0
2024-05-30 03:18:32			0	37801	0	0	0	22683	21290	132619	27093	993955	40646	108348	0	0	8306	569727	0	0
2024-05-30 03:19:32			0	37924	0	0	0	22667	21290	132323	27138	993901	40657	108342	0	0	8312	564804	0	0
2024-05-30 03:20:32			0	38035	0	0	0	22672	21300	131899	27441	993918	40659	108344	0	0	8318	560353	0	0
2024-05-30 03:21:32			0	38117	0	0	0	22670	21290	131676	27464	993928	40668	108343	0	0	8322	557132	0	0
2024-05-30 03:22:32			0	38164	0	0	0	22677	21290	131384	27097	993866	40657	108346	0	0	8325	555274	0	0
2024-05-30 03:23:32			0	38236	0	0	0	22672	21300	131184	27447	993883	40647	108344	0	0	8328	552405	0	0
2024-05-30 03:24:32			0	38291	0	0	0	22675	21280	131072	27279	993858	40646	108345	0	0	8331	550303	0	0
2024-05-30 03:25:32			0	38328	0	0	0	22672	21290	130944	27227	993901	40668	108344	0	0	8333	548821	0	0
2024-05-30 03:26:32			0	38361	0	0	0	22675	21280	130804	26965	993911	40646	108345	0	0	8335	547558	0	0
2024-05-30 03:27:32			0	38373	0	0	0	22677	21280	130752	27114	993850	40645	108346	0	0	8335	547088	0	0
2024-05-30 03:28:32			0	38403	0	0	0	22677	21270	130712	27237	993868	40644	108346	0	0	8337	545946	0	0
2024-05-30 03:29:32			0	38389	0	0	0	22672	21280	130704	27062	993858	40635	108344	0	0	8336	546463	0	0
2024-05-30 03:30:32			0	38406	0	0	0	22667	21270	130680	27187	993841	40644	108342	0	0	8337	545828	0	0
2024-05-30 03:31:32			0	38428	0	0	0	22662	21280	130668	26894	993903	40657	108340	0	0	8338	544939	0	0
2024-05-30 03:32:32			0	38407	0	0	0	22664	21270	130780	27246	993841	40644	108341	0	0	8337	545789	0	0
2024-05-30 03:33:32			0	38419	0	0	0	22654	21270	130772	27282	993788	40656	108337	0	0	8338	545321	0	0
2024-05-30 03:34:32			0	38423	0	0	0	22664	21270	130724	27545	993841	40644	108341	0	0	8338	545164	0	0
2024-05-30 03:35:32			0	38431	0	0	0	22654	21280	130728	27384	993823	40657	108337	0	0	8339	544822	0	0
2024-05-30 03:36:32			0	38423	0	0	0	22657	21270	130676	26885	993833	40666	108338	0	0	8338	545164	0	0
2024-05-30 03:37:32			0	38441	0	0	0	22654	21270	130680	27519	993806	40644	108337	0	0	8339	544462	0	0
2024-05-30 03:38:32			0	38442	0	0	0	22651	21260	130688	27232	993798	40655	108336	0	0	8339	544453	0	0
2024-05-30 03:39:32			0	38441	0	0	0	22646	21260	130532	26965	993789	40632	108334	0	0	8339	544492	0	0
2024-05-30 03:40:32			0	38442	0	0	0	22649	21260	130628	26866	993798	40643	108335	0	0	8339	544453	0	0
2024-05-30 03:41:32			0	38445	0	0	0	22646	21260	130628	27313	993798	40643	108334	0	0	8340	544336	0	0
2024-05-30 03:42:32			0	38458	0	0	0	22651	21270	130596	27293	993806	40644	108336	0	0	8340	543799	0	0
2024-05-30 03:43:32			0	38442	0	0	0	22651	21250	130684	27020	993825	40654	108336	0	0	8339	544483	0	0
2024-05-30 03:44:32			0	38446	0	0	0	22649	21250	130588	26854	993754	40643	108335	0	0	8340	544327	0	0
2024-05-30 03:45:32			0	38449	0	0	0	22649	21240	130628	26981	993737	40664	108335	0	0	8340	544240	0	0
2024-05-30 03:46:32			0	38485	0	0	0	22646	21250	130656	27142	993781	40643	108334	0	0	8342	542807	0	0
2024-05-30 03:47:32			0	38482	0	0	0	22644	21240	130556	27022	993764	40630	108333	0	0	8341	542954	0	0
2024-05-30 03:48:32			0	38482	0	0	0	22641	21240	130532	27436	993764	40630	108332	0	0	8341	542954	0	0
2024-05-30 03:49:32			0	38488	0	0	0	22633	21240	130560	27022	993764	40630	108329	0	0	8342	542720	0	0
2024-05-30 03:50:32			0	38480	0	0	0	22646	21250	130452	27301	993746	40643	108334	0	0	8341	543002	0	0
2024-05-30 03:51:32			0	38514	0	0	0	22646	21250	130424	27177	993719	40643	108334	0	0	8343	541678	0	0
2024-05-30 03:52:32			0	38500	0	0	0	22646	21230	130444	27296	993738	40652	108334	0	0	8342	542283	0	0
2024-05-30 03:53:32			0	38506	0	0	0	22641	21250	130420	27145	993719	40631	108332	0	0	8343	541989	0	0
2024-05-30 03:54:32			0	38541	0	0	0	22654	21240	130404	27279	993737	40642	108337	0	0	8344	540659	0	0
2024-05-30 03:55:32			0	38537	0	0	0	22646	21240	130336	27531	993684	40653	108334	0	0	8344	540814	0	0
2024-05-30 03:56:32			0	38568	0	0	0	22644	21250	130444	27395	993772	40654	108333	0	0	8346	539580	0	0
2024-05-30 03:57:32			0	38565	0	0	0	22646	21250	130300	27187	993746	40665	108334	0	0	8346	539697	0	0
2024-05-30 03:58:32			0	38573	0	0	0	22649	21250	130308	27355	993772	40665	108335	0	0	8346	539386	0	0
2024-05-30 03:59:32			0	38599	0	0	0	22651	21250	130164	27429	993834	40665	108336	0	0	8347	538378	0	0
2024-05-30 04:00:32			0	38603	0	0	0	22657	21250	130192	27433	993807	40654	108338	0	0	8348	538223	0	0
2024-05-30 04:01:32			0	38620	0	0	0	22657	21250	130180	27097	993834	40654	108338	0	0	8348	537565	0	0
2024-05-30 04:02:32			0	38621	0	0	0	22662	21250	130128	27440	993807	40665	108340	0	0	8348	537526	0	0
2024-05-30 04:03:32			0	38644	0	0	0	22651	21250	130076	27121	993799	40654	108336	0	0	8350	536636	0	0
2024-05-30 04:04:32			0	38654	0	0	0	22651	21250	129996	27039	993772	40654	108336	0	0	8350	536249	0	0
2024-05-30 04:05:32			0	38658	0	0	0	22649	21250	129952	27150	993781	40643	108335	0	0	8351	536095	0	0
2024-05-30 04:06:32			0	38674	0	0	0	22646	21240	129972	27111	993764	40642	108334	0	0	8351	535506	0	0
2024-05-30 04:07:32			0	38697	0	0	0	22649	21250	129916	27307	993772	40643	108335	0	0	8353	534588	0	0
2024-05-30 04:08:32			0	38708	0	0	0	22654	21250	129888	27417	993746	40654	108337	0	0	8353	534164	0	0
2024-05-30 04:09:32			0	38713	0	0	0	22641	21240	129848	27376	993737	40630	108332	0	0	8353	534001	0	0
2024-05-30 04:10:32			0	38687	0	0	0	22644	21240	129852	27383	993737	40642	108333	0	0	8352	535004	0	0
2024-05-30 04:11:32			0	38726	0	0	0	22638	21240	129817	27060	993702	40653	108331	0	0	8354	533500	0	0
2024-05-30 04:12:32			0	38708	0	0	0	22633	21240	129820	27632	993729	40653	108329	0	0	8353	534194	0	0
2024-05-30 04:13:32			0	38724	0	0	0	22631	21230	129800	27137	993738	40630	108328	0	0	8354	533606	0	0
2024-05-30 04:14:32			0	38719	0	0	0	22625	21240	129724	27209	993755	40642	108326	0	0	8354	533769	0	0
2024-05-30 04:15:32			0	38727	0	0	0	22633	21240	129716	27350	993729	40653	108329	0	0	8354	533461	0	0
2024-05-30 04:16:32			0	38761	0	0	0	22631	21230	129669	27469	993694	40641	108328	0	0	8356	532181	0	0
2024-05-30 04:17:32			0	38760	0	0	0	22628	21230	129613	27300	993712	40652	108327	0	0	8356	532220	0	0
2024-05-30 04:18:32			0	38778	0	0	0	22625	21240	129613	27433	993737	40653	108326	0	0	8357	531498	0	0
2024-05-30 04:19:32			0	38774	0	0	0	22625	21230	129629	27402	993659	40652	108326	0	0	8357	531681	0	0
2024-05-30 04:20:32			0	38785	0	0	0	22623	21230	129633	27196	993659	40652	108325	0	0	8357	531258	0	0
2024-05-30 04:21:32			0	38800	0	0	0	22628	21230	129473	27003	993659	40641	108327	0	0	8358	530682	0	0
2024-05-30 04:22:32			0	38823	0	0	0	22623	21220	129517	27222	993650	40640	108325	0	0	8359	529828	0	0
2024-05-30 04:23:32			0	38824	0	0	0	22612	21230	129441	27338	993605	40652	108321	0	0	8360	529760	0	0
2024-05-30 04:24:32			0	38832	0	0	0	22615	21220	129413	27319	993677	40640	108322	0	0	8360	529482	0	0
2024-05-30 04:25:32			0	38831	0	0	0	22620	21230	129389	27244	993659	40641	108324	0	0	8360	529491	0	0
2024-05-30 04:26:32			0	38860	0	0	0	22612	21210	129449	27324	993598	40649	108321	0	0	8361	528438	0	0
2024-05-30 04:27:32			0	38877	0	0	0	22615	21210	129345	27306	993554	40662	108322	0	0	8362	527787	0	0
2024-05-30 04:28:32			0	38870	0	0	0	22610	21220	129345	27057	993589	40639	108320	0	0	8362	528026	0	0
2024-05-30 04:29:32			0	38877	0	0	0	22615	21210	129309	27156	993607	40650	108322	0	0	8362	527787	0	0
2024-05-30 04:30:32			0	38881	0	0	0	22610	21210	129273	27543	993660	40639	108320	0	0	8363	527634	0	0
2024-05-30 04:31:32			0	38927	0	0	0	22607	21210	129241	27145	993598	40638	108319	0	0	8365	525874	0	0
2024-05-30 04:32:32			0	38909	0	0	0	22612	21210	129205	27279	993607	40662	108321	0	0	8364	526562	0	0
2024-05-30 04:33:32			0	38917	0	0	0	22610	21210	129193	27220	993651	40627	108320	0	0	8364	526256	0	0
2024-05-30 04:34:32			0	38931	0	0	0	22610	21200	129121	27149	993616	40649	108320	0	0	8365	525751	0	0
2024-05-30 04:35:32			0	38943	0	0	0	22605	21210	129097	27157	993598	40649	108318	0	0	8366	525263	0	0
2024-05-30 04:36:32			0	38940	0	0	0	22610	21210	129117	26960	993580	40650	108320	0	0	8366	525378	0	0
2024-05-30 04:37:32			0	38970	0	0	0	22612	21210	129109	27050	993625	40649	108321	0	0	8367	524233	0	0
2024-05-30 04:38:32			0	38964	0	0	0	22610	21210	129085	27170	993651	40649	108320	0	0	8367	524461	0	0
2024-05-30 04:39:32			0	38970	0	0	0	22620	21220	129025	27204	993642	40639	108324	0	0	8367	524204	0	0
2024-05-30 04:40:32			0	38991	0	0	0	22615	21210	128901	27350	993571	40649	108322	0	0	8368	523432	0	0
2024-05-30 04:41:32			0	39003	0	0	0	22612	21210	128941	27019	993607	40650	108321	0	0	8369	522975	0	0
2024-05-30 04:42:32			0	39011	0	0	0	22612	21200	128933	27244	993643	40638	108321	0	0	8369	522699	0	0
2024-05-30 04:43:32			0	39021	0	0	0	22615	21220	128885	27104	993615	40650	108322	0	0	8370	522261	0	0
2024-05-30 04:44:32			0	39035	0	0	0	22620	21200	128789	27419	993643	40638	108324	0	0	8370	521786	0	0
2024-05-30 04:45:32			0	39058	0	0	0	22607	21210	128713	27246	993633	40662	108319	0	0	8372	520883	0	0
2024-05-30 04:46:32			0	39043	0	0	0	22612	21210	128741	27137	993545	40638	108321	0	0	8371	521453	0	0
2024-05-30 04:47:32			0	39051	0	0	0	22612	21210	128689	27386	993625	40661	108321	0	0	8371	521149	0	0
2024-05-30 04:48:32			0	39059	0	0	0	22615	21210	128657	27046	993625	40627	108322	0	0	8372	520845	0	0
2024-05-30 04:49:32			0	39082	0	0	0	22618	21220	128701	27199	993668	40639	108323	0	0	8373	519942	0	0
2024-05-30 04:50:32			0	39091	0	0	0	22628	21210	128673	27364	993633	40650	108327	0	0	8373	519630	0	0
2024-05-30 04:51:32			0	39095	0	0	0	22612	21220	128541	27192	993668	40650	108321	0	0	8374	519449	0	0
2024-05-30 04:52:32			0	39127	0	0	0	22623	21220	128537	26937	993642	40662	108325	0	0	8375	518236	0	0
2024-05-30 04:53:32			0	39119	0	0	0	22618	21220	128437	27303	993668	40639	108323	0	0	8375	518539	0	0
2024-05-30 04:54:32			0	39126	0	0	0	22620	21210	128529	27123	993598	40649	108324	0	0	8375	518303	0	0
2024-05-30 04:55:32			0	39127	0	0	0	22628	21220	128541	27255	993695	40639	108327	0	0	8375	518236	0	0
2024-05-30 04:56:32			0	39119	0	0	0	22623	21210	128565	27159	993651	40649	108325	0	0	8375	518568	0	0
2024-05-30 04:57:32			0	39148	0	0	0	22620	21220	128533	27223	993668	40662	108324	0	0	8376	517441	0	0
2024-05-30 04:58:32			0	39160	0	0	0	22623	21210	128529	27265	993660	40639	108325	0	0	8377	517015	0	0
2024-05-30 04:59:32			0	39163	0	0	0	22628	21220	128477	27092	993597	40651	108327	0	0	8377	516873	0	0
2024-05-30 05:00:32			0	39158	0	0	0	22625	21210	128457	27466	993607	40662	108326	0	0	8377	517091	0	0
2024-05-30 05:01:32			0	39171	0	0	0	22623	21220	128493	27339	993615	40639	108325	0	0	8377	516570	0	0
2024-05-30 05:02:32			0	39164	0	0	0	22618	21210	128397	27400	993704	40638	108323	0	0	8377	516864	0	0
2024-05-30 05:03:32			0	39192	0	0	0	22620	21210	128333	27092	993660	40639	108324	0	0	8379	515805	0	0
2024-05-30 05:04:32			0	39170	0	0	0	22618	21220	128405	27078	993650	40640	108323	0	0	8377	516608	0	0
2024-05-30 05:05:32			0	39190	0	0	0	22618	21220	128401	27280	993695	40650	108323	0	0	8379	515852	0	0
2024-05-30 05:06:32			0	39179	0	0	0	22625	21210	128381	27327	993660	40650	108326	0	0	8378	516297	0	0
2024-05-30 05:07:32			0	39188	0	0	0	22620	21220	128293	27234	993589	40639	108324	0	0	8378	515928	0	0
2024-05-30 05:08:32			0	39200	0	0	0	22612	21210	128297	27317	993598	40638	108321	0	0	8379	515503	0	0
2024-05-30 05:09:32			0	39209	0	0	0	22620	21220	128353	27293	993668	40650	108324	0	0	8379	515135	0	0
2024-05-30 05:10:32			0	39233	0	0	0	22620	21220	128257	27013	993668	40639	108324	0	0	8381	514229	0	0
2024-05-30 05:11:32			0	39217	0	0	0	22620	21220	128181	26960	993615	40639	108324	0	0	8380	514833	0	0
2024-05-30 05:12:32			0	39204	0	0	0	22610	21200	128241	27291	993643	40638	108320	0	0	8379	515381	0	0
2024-05-30 05:13:32			0	39220	0	0	0	22610	21220	128249	27216	993642	40650	108320	0	0	8380	514720	0	0
2024-05-30 05:14:32			0	39235	0	0	0	22618	21210	128221	27157	993625	40649	108323	0	0	8381	514182	0	0
2024-05-30 05:15:32			0	39225	0	0	0	22602	21200	128281	27358	993643	40638	108317	0	0	8381	514588	0	0
2024-05-30 05:16:32			0	39212	0	0	0	22607	21210	128285	27194	993598	40627	108319	0	0	8380	515050	0	0
2024-05-30 05:17:32			0	39228	0	0	0	22610	21210	128333	27095	993598	40649	108320	0	0	8381	514446	0	0
2024-05-30 05:18:32			0	39229	0	0	0	22610	21210	128285	27452	993660	40662	108320	0	0	8381	514409	0	0
2024-05-30 05:19:32			0	39232	0	0	0	22612	21210	128237	27178	993607	40662	108321	0	0	8381	514296	0	0
2024-05-30 05:20:32			0	39234	0	0	0	22605	21210	128277	27081	993651	40649	108318	0	0	8381	514220	0	0
2024-05-30 05:21:32			0	39235	0	0	0	22607	21210	128217	26932	993633	40639	108319	0	0	8381	514182	0	0
2024-05-30 05:22:32			0	39234	0	0	0	22592	21210	128201	27182	993545	40638	108313	0	0	8381	514220	0	0
2024-05-30 05:23:32			0	39248	0	0	0	22607	21200	128129	27306	993563	40649	108319	0	0	8382	513721	0	0
2024-05-30 05:24:32			0	39233	0	0	0	22602	21210	128229	27440	993651	40649	108317	0	0	8381	514258	0	0
2024-05-30 05:25:32			0	39229	0	0	0	22602	21200	128141	27274	993536	40638	108317	0	0	8381	514437	0	0
2024-05-30 05:26:32			0	39205	0	0	0	22594	21210	128149	27111	993545	40649	108314	0	0	8380	515314	0	0
2024-05-30 05:27:32			0	39222	0	0	0	22597	21210	128177	27199	993571	40649	108315	0	0	8381	514673	0	0
2024-05-30 05:28:32			0	39264	0	0	0	22592	21200	128201	27294	993510	40638	108313	0	0	8383	513118	0	0
2024-05-30 05:29:32			0	39258	0	0	0	22594	21200	128149	27066	993563	40649	108314	0	0	8382	513344	0	0
2024-05-30 05:30:32			0	39227	0	0	0	22599	21190	128129	27206	993520	40637	108316	0	0	8381	514541	0	0
2024-05-30 05:31:32			0	39258	0	0	0	22586	21190	128193	27208	993520	40649	108311	0	0	8382	513373	0	0
2024-05-30 05:32:32			0	39247	0	0	0	22592	21190	128101	27192	993573	40637	108313	0	0	8382	513787	0	0
2024-05-30 05:33:32			0	39230	0	0	0	22594	21200	128201	27485	993555	40637	108314	0	0	8381	514400	0	0
2024-05-30 05:34:32			0	39267	0	0	0	22581	21200	128077	27209	993475	40649	108309	0	0	8383	513005	0	0
2024-05-30 05:35:32			0	39259	0	0	0	22589	21190	128081	27135	993538	40636	108312	0	0	8382	513335	0	0
2024-05-30 05:36:32			0	39249	0	0	0	22584	21180	128029	27258	993476	40625	108310	0	0	8382	513740	0	0
2024-05-30 05:37:32			0	39251	0	0	0	22581	21190	128165	27448	993564	40636	108309	0	0	8382	513636	0	0
2024-05-30 05:38:32			0	39245	0	0	0	22592	21180	128081	27253	993476	40636	108313	0	0	8382	513891	0	0
2024-05-30 05:39:32			0	39270	0	0	0	22574	21180	128081	27206	993503	40648	108306	0	0	8383	512949	0	0
2024-05-30 05:40:32			0	39252	0	0	0	22574	21180	128037	27348	993503	40648	108306	0	0	8382	513627	0	0
2024-05-30 05:41:32			0	39286	0	0	0	22574	21180	128053	27371	993494	40658	108306	0	0	8384	512347	0	0
2024-05-30 05:42:32			0	39272	0	0	0	22574	21180	128077	27441	993503	40648	108306	0	0	8383	512874	0	0
2024-05-30 05:43:32			0	39264	0	0	0	22566	21180	128057	27428	993529	40659	108303	0	0	8383	513175	0	0
2024-05-30 05:44:32			0	39248	0	0	0	22581	21180	128089	27268	993494	40635	108309	0	0	8382	513778	0	0
2024-05-30 05:45:32			0	39286	0	0	0	22574	21180	128001	27317	993494	40647	108306	0	0	8384	512347	0	0
2024-05-30 05:46:32			0	39284	0	0	0	22571	21180	128085	27071	993494	40658	108305	0	0	8384	512422	0	0
2024-05-30 05:47:32			0	39256	0	0	0	22574	21170	128113	27239	993451	40646	108306	0	0	8383	513505	0	0
2024-05-30 05:48:32			0	39282	0	0	0	22563	21160	128121	27305	993443	40646	108302	0	0	8384	512554	0	0
2024-05-30 05:49:32			0	39277	0	0	0	22574	21170	128069	27062	993451	40657	108306	0	0	8384	512714	0	0
2024-05-30 05:50:32			0	39276	0	0	0	22576	21170	128057	27256	993478	40635	108307	0	0	8384	512752	0	0
2024-05-30 05:51:32			0	39290	0	0	0	22566	21190	127981	27046	993564	40648	108303	0	0	8384	512168	0	0
2024-05-30 05:52:32			0	39287	0	0	0	22574	21170	127941	27022	993478	40646	108306	0	0	8384	512337	0	0
2024-05-30 05:53:32			0	39289	0	0	0	22566	21170	127969	27145	993486	40647	108303	0	0	8384	512262	0	0
2024-05-30 05:54:32			0	39302	0	0	0	22576	21170	128077	27119	993486	40635	108307	0	0	8385	511773	0	0
2024-05-30 05:55:32			0	39291	0	0	0	22571	21170	128053	27192	993486	40647	108305	0	0	8384	512187	0	0
2024-05-30 05:56:32			0	39297	0	0	0	22571	21170	128049	27027	993478	40635	108305	0	0	8385	511961	0	0
2024-05-30 05:57:32			0	39302	0	0	0	22579	21170	128033	27272	993486	40647	108308	0	0	8385	511773	0	0
2024-05-30 05:58:32			0	39286	0	0	0	22566	21170	128009	27448	993513	40635	108303	0	0	8384	512375	0	0
2024-05-30 05:59:32			0	39283	0	0	0	22574	21170	128013	27001	993478	40635	108306	0	0	8384	512488	0	0
2024-05-30 06:00:32			0	39300	0	0	0	22561	21170	128077	26960	993486	40625	108301	0	0	8385	511848	0	0
2024-05-30 06:01:32			0	39302	0	0	0	22568	21170	127965	27176	993451	40635	108304	0	0	8385	511773	0	0
2024-05-30 06:02:32			0	39297	0	0	0	22566	21160	128001	27336	993408	40645	108303	0	0	8385	511990	0	0
2024-05-30 06:03:32			0	39290	0	0	0	22571	21160	128009	27067	993469	40646	108305	0	0	8384	512253	0	0
2024-05-30 06:04:32			0	39308	0	0	0	22563	21170	127985	27270	993433	40635	108302	0	0	8385	511548	0	0
2024-05-30 06:05:32			0	39321	0	0	0	22566	21170	127933	27569	993451	40657	108303	0	0	8386	511059	0	0
2024-05-30 06:06:32			0	39315	0	0	0	22561	21170	127969	27215	993406	40658	108301	0	0	8386	511284	0	0
2024-05-30 06:07:32			0	39321	0	0	0	22561	21180	127909	27133	993441	40647	108301	0	0	8386	511031	0	0
2024-05-30 06:08:32			0	39324	0	0	0	22566	21170	127929	27391	993451	40646	108303	0	0	8386	510946	0	0
2024-05-30 06:09:32			0	39312	0	0	0	22558	21160	127985	27370	993443	40646	108300	0	0	8386	511425	0	0
2024-05-30 06:10:32			0	39343	0	0	0	22566	21170	127961	27286	993451	40646	108303	0	0	8387	510232	0	0
2024-05-30 06:11:32			0	39331	0	0	0	22553	21170	127917	27341	993424	40646	108298	0	0	8387	510683	0	0
2024-05-30 06:12:32			0	39309	0	0	0	22548	21160	127869	27445	993363	40635	108296	0	0	8386	511538	0	0
2024-05-30 06:13:32			0	39330	0	0	0	22550	21160	127901	27223	993443	40657	108297	0	0	8387	510749	0	0
2024-05-30 06:14:32			0	39339	0	0	0	22555	21160	127889	27138	993443	40646	108299	0	0	8387	510411	0	0
2024-05-30 06:15:32			0	39341	0	0	0	22550	21160	127901	27189	993416	40657	108297	0	0	8387	510336	0	0
2024-05-30 06:16:32			0	39318	0	0	0	22545	21150	127949	27209	993364	40644	108295	0	0	8386	511228	0	0
2024-05-30 06:17:32			0	39341	0	0	0	22558	21150	127881	27350	993373	40655	108300	0	0	8387	510364	0	0
2024-05-30 06:18:32			0	39332	0	0	0	22545	21150	127813	27137	993444	40644	108295	0	0	8387	510702	0	0
2024-05-30 06:19:32			0	39332	0	0	0	22550	21150	127905	26981	993364	40633	108297	0	0	8387	510702	0	0
2024-05-30 06:20:32			0	39328	0	0	0	22548	21150	127897	26955	993426	40644	108296	0	0	8387	510852	0	0
2024-05-30 06:21:32			0	39320	0	0	0	22553	21150	127873	27412	993399	40633	108298	0	0	8386	511153	0	0
2024-05-30 06:22:32			0	39333	0	0	0	22545	21150	127829	27303	993391	40644	108295	0	0	8387	510665	0	0
2024-05-30 06:23:32			0	39354	0	0	0	22550	21150	127821	27552	993346	40633	108297	0	0	8388	509876	0	0
2024-05-30 06:24:32			0	39342	0	0	0	22545	21150	127829	27041	993399	40644	108295	0	0	8387	510327	0	0
2024-05-30 06:25:32			0	39341	0	0	0	22553	21150	127913	27202	993399	40655	108298	0	0	8387	510364	0	0
2024-05-30 06:26:32			0	39336	0	0	0	22548	21160	127789	27156	993416	40646	108296	0	0	8387	510524	0	0
2024-05-30 06:27:32			0	39336	0	0	0	22550	21160	127889	27085	993389	40646	108297	0	0	8387	510524	0	0
2024-05-30 06:28:32			0	39361	0	0	0	22550	21150	127849	27170	993364	40644	108297	0	0	8388	509613	0	0
2024-05-30 06:29:32			0	39372	0	0	0	22548	21150	127829	27171	993373	40633	108296	0	0	8389	509201	0	0
2024-05-30 06:30:32			0	39374	0	0	0	22545	21150	127785	27213	993417	40644	108295	0	0	8389	509126	0	0
2024-05-30 06:31:32			0	39367	0	0	0	22550	21140	127809	27255	993356	40644	108297	0	0	8389	509417	0	0
2024-05-30 06:32:32			0	39357	0	0	0	22548	21150	127773	27436	993452	40655	108296	0	0	8388	509764	0	0
2024-05-30 06:33:32			0	39377	0	0	0	22540	21150	127821	27424	993338	40655	108293	0	0	8389	509013	0	0
2024-05-30 06:34:32			0	39373	0	0	0	22545	21150	127813	27353	993373	40633	108295	0	0	8389	509163	0	0
2024-05-30 06:35:32			0	39350	0	0	0	22542	21140	127801	27142	993382	40633	108294	0	0	8388	510055	0	0
2024-05-30 06:36:32			0	39364	0	0	0	22545	21140	127761	27428	993329	40644	108295	0	0	8388	509529	0	0
2024-05-30 06:37:32			0	39377	0	0	0	22542	21150	127737	27001	993364	40633	108294	0	0	8389	509013	0	0
2024-05-30 06:38:32			0	39379	0	0	0	22550	21150	127821	27270	993364	40644	108297	0	0	8389	508938	0	0
2024-05-30 06:39:32			0	39383	0	0	0	22540	21150	127725	27308	993373	40644	108293	0	0	8390	508788	0	0
2024-05-30 06:40:32			0	39381	0	0	0	22537	21150	127773	27526	993364	40644	108292	0	0	8390	508863	0	0
2024-05-30 06:41:32			0	39381	0	0	0	22537	21150	127825	27138	993391	40644	108292	0	0	8390	508863	0	0
2024-05-30 06:42:32			0	39382	0	0	0	22540	21150	127801	27333	993399	40655	108293	0	0	8390	508826	0	0
2024-05-30 06:43:32			0	39392	0	0	0	22537	21140	127737	27036	993347	40654	108292	0	0	8390	508479	0	0
2024-05-30 06:44:32			0	39398	0	0	0	22548	21150	127749	27107	993338	40655	108296	0	0	8390	508226	0	0
2024-05-30 06:45:32			0	39398	0	0	0	22537	21150	127725	27085	993391	40644	108292	0	0	8390	508226	0	0
2024-05-30 06:46:32			0	39395	0	0	0	22550	21150	127705	27150	993479	40644	108297	0	0	8390	508339	0	0
2024-05-30 06:47:32			0	39402	0	0	0	22555	21150	127725	27166	993426	40644	108299	0	0	8390	508076	0	0
2024-05-30 06:48:32			0	39403	0	0	0	22553	21150	127693	27267	993444	40644	108298	0	0	8390	508039	0	0
2024-05-30 06:49:32			0	39390	0	0	0	22553	21160	127705	27001	993408	40666	108298	0	0	8390	508498	0	0
2024-05-30 06:50:32			0	39395	0	0	0	22553	21150	127729	27261	993399	40644	108298	0	0	8390	508339	0	0
2024-05-30 06:51:32			0	39398	0	0	0	22558	21150	127697	27227	993399	40633	108300	0	0	8390	508226	0	0
2024-05-30 06:52:32			0	39414	0	0	0	22553	21160	127597	27145	993354	40645	108298	0	0	8391	507599	0	0
2024-05-30 06:53:32			0	39414	0	0	0	22561	21160	127609	27175	993434	40645	108301	0	0	8391	507599	0	0
2024-05-30 06:54:32			0	39390	0	0	0	22561	21160	127681	27234	993434	40645	108301	0	0	8390	508498	0	0
2024-05-30 06:55:32			0	39412	0	0	0	22558	21160	127693	27081	993408	40634	108300	0	0	8391	507674	0	0
2024-05-30 06:56:32			0	39418	0	0	0	22558	21160	127577	27298	993443	40657	108300	0	0	8391	507449	0	0
2024-05-30 06:57:32			0	39390	0	0	0	22555	21160	127629	27059	993443	40635	108299	0	0	8390	508498	0	0
2024-05-30 06:58:32			0	39412	0	0	0	22561	21160	127557	27424	993469	40646	108301	0	0	8391	507674	0	0
2024-05-30 06:59:32			0	39413	0	0	0	22568	21170	127573	27260	993531	40635	108304	0	0	8391	507608	0	0
2024-05-30 07:00:32			0	39416	0	0	0	22563	21160	127677	27357	993461	40656	108302	0	0	8391	507524	0	0
2024-05-30 07:01:32			0	39415	0	0	0	22566	21160	127593	27234	993461	40656	108303	0	0	8391	507561	0	0
2024-05-30 07:02:32			0	39423	0	0	0	22574	21170	127597	27076	993478	40646	108306	0	0	8391	507234	0	0
2024-05-30 07:03:32			0	39421	0	0	0	22566	21170	127662	27313	993539	40647	108303	0	0	8391	507309	0	0
2024-05-30 07:04:32			0	39436	0	0	0	22568	21170	127666	26918	993478	40646	108304	0	0	8392	506748	0	0
2024-05-30 07:05:32			0	39424	0	0	0	22568	21160	127625	27377	993443	40635	108304	0	0	8391	507225	0	0
2024-05-30 07:06:32			0	39427	0	0	0	22571	21160	127530	27216	993434	40645	108305	0	0	8391	507113	0	0
2024-05-30 07:07:32			0	39443	0	0	0	22576	21170	127490	27107	993459	40635	108307	0	0	8392	506486	0	0
2024-05-30 07:08:32			0	39430	0	0	0	22568	21170	127554	27402	993486	40647	108304	0	0	8392	506972	0	0
2024-05-30 07:09:32			0	39450	0	0	0	22571	21160	127534	27440	993514	40645	108305	0	0	8393	506252	0	0
2024-05-30 07:10:32			0	39441	0	0	0	22576	21180	127606	27490	993468	40647	108307	0	0	8392	506533	0	0
2024-05-30 07:11:32			0	39449	0	0	0	22566	21170	127562	27206	993478	40657	108303	0	0	8393	506262	0	0
2024-05-30 07:12:32			0	39462	0	0	0	22574	21180	127630	27170	993468	40658	108306	0	0	8393	505748	0	0
2024-05-30 07:13:32			0	39454	0	0	0	22574	21170	127578	27433	993486	40647	108306	0	0	8393	506075	0	0
2024-05-30 07:14:32			0	39439	0	0	0	22568	21180	127554	27119	993494	40647	108304	0	0	8392	506607	0	0
2024-05-30 07:15:32			0	39439	0	0	0	22574	21180	127458	27192	993548	40647	108306	0	0	8392	506607	0	0
2024-05-30 07:16:32			0	39443	0	0	0	22581	21180	127542	26960	993548	40647	108309	0	0	8392	506458	0	0
2024-05-30 07:17:32			0	39470	0	0	0	22579	21180	127478	27270	993556	40648	108308	0	0	8394	505449	0	0
2024-05-30 07:18:32			0	39460	0	0	0	22581	21180	127466	27317	993556	40648	108309	0	0	8393	505823	0	0
2024-05-30 07:19:32			0	39485	0	0	0	22586	21180	127510	27505	993574	40647	108311	0	0	8394	504889	0	0
2024-05-30 07:20:32			0	39466	0	0	0	22586	21190	127442	27542	993538	40659	108311	0	0	8393	505570	0	0
2024-05-30 07:21:32			0	39471	0	0	0	22581	21190	127510	27215	993538	40648	108309	0	0	8394	505384	0	0
2024-05-30 07:22:32			0	39462	0	0	0	22589	21180	127490	27623	993529	40648	108312	0	0	8393	505748	0	0
2024-05-30 07:23:32			0	39486	0	0	0	22581	21190	127442	27102	993511	40648	108309	0	0	8394	504824	0	0
2024-05-30 07:24:32			0	39483	0	0	0	22581	21180	127370	27215	993521	40658	108309	0	0	8394	504964	0	0
2024-05-30 07:25:32			0	39467	0	0	0	22584	21180	127486	27358	993529	40636	108310	0	0	8393	505561	0	0
2024-05-30 07:26:32			0	39482	0	0	0	22579	21180	127462	27571	993494	40647	108308	0	0	8394	505001	0	0
2024-05-30 07:27:32			0	39478	0	0	0	22589	21200	127402	27287	993581	40649	108312	0	0	8394	505094	0	0
2024-05-30 07:28:32			0	39484	0	0	0	22584	21190	127346	27227	993626	40660	108310	0	0	8394	504898	0	0
2024-05-30 07:29:32			0	39483	0	0	0	22594	21190	127398	27364	993618	40648	108314	0	0	8394	504936	0	0
2024-05-30 07:30:32			0	39472	0	0	0	22592	21190	127406	27440	993618	40636	108313	0	0	8394	505346	0	0
2024-05-30 07:31:32			0	39477	0	0	0	22586	21190	127462	27467	993538	40648	108311	0	0	8394	505160	0	0
2024-05-30 07:32:32			0	39509	0	0	0	22589	21190	127370	27367	993573	40660	108312	0	0	8395	503966	0	0
2024-05-30 07:33:32			0	39495	0	0	0	22586	21200	127358	27424	993608	40637	108311	0	0	8395	504460	0	0
2024-05-30 07:34:32			0	39502	0	0	0	22586	21190	127358	27365	993599	40649	108311	0	0	8395	504227	0	0
2024-05-30 07:35:32			0	39483	0	0	0	22589	21190	127430	27542	993626	40660	108312	0	0	8394	504936	0	0
2024-05-30 07:36:32			0	39497	0	0	0	22592	21180	127398	27407	993556	40648	108313	0	0	8395	504441	0	0
2024-05-30 07:37:32			0	39491	0	0	0	22589	21190	127394	27505	993599	40649	108312	0	0	8395	504637	0	0
2024-05-30 07:38:32			0	39486	0	0	0	22584	21200	127390	27665	993634	40649	108310	0	0	8394	504796	0	0
2024-05-30 07:39:32			0	39496	0	0	0	22592	21190	127386	27275	993573	40660	108313	0	0	8395	504451	0	0
2024-05-30 07:40:32			0	39491	0	0	0	22597	21190	127430	27526	993573	40637	108315	0	0	8394	504637	0	0
2024-05-30 07:41:32			0	39480	0	0	0	22592	21190	127410	27274	993626	40649	108313	0	0	8394	505048	0	0
2024-05-30 07:42:32			0	39474	0	0	0	22597	21200	127386	27327	993608	40649	108315	0	0	8394	505244	0	0
2024-05-30 07:43:32			0	39486	0	0	0	22602	21200	127386	27562	993634	40660	108317	0	0	8394	504796	0	0
2024-05-30 07:44:32			0	39496	0	0	0	22602	21200	127346	27405	993688	40649	108317	0	0	8395	504423	0	0
2024-05-30 07:45:32			0	39488	0	0	0	22599	21190	127478	27545	993679	40660	108316	0	0	8394	504749	0	0
2024-05-30 07:46:32			0	39502	0	0	0	22602	21200	127470	27372	993590	40661	108317	0	0	8395	504199	0	0
2024-05-30 07:47:32			0	39477	0	0	0	22594	21210	127454	26882	993633	40672	108314	0	0	8394	505104	0	0
2024-05-30 07:48:32			0	39478	0	0	0	22602	21200	127418	27481	993688	40637	108317	0	0	8394	505094	0	0
2024-05-30 07:49:32			0	39486	0	0	0	22602	21200	127454	27469	993669	40649	108317	0	0	8394	504796	0	0
2024-05-30 07:50:32			0	39482	0	0	0	22602	21210	127454	27351	993625	40661	108317	0	0	8394	504917	0	0
2024-05-30 07:51:32			0	39472	0	0	0	22605	21200	127410	27012	993696	40649	108318	0	0	8393	505318	0	0
2024-05-30 07:52:32			0	39496	0	0	0	22605	21210	127426	27455	993598	40649	108318	0	0	8395	504395	0	0
2024-05-30 07:53:32			0	39482	0	0	0	22607	21200	127442	27358	993669	40638	108319	0	0	8394	504945	0	0
2024-05-30 07:54:32			0	39474	0	0	0	22612	21210	127470	27325	993704	40649	108321	0	0	8393	505216	0	0
2024-05-30 07:55:32			0	39463	0	0	0	22605	21220	127406	27616	993668	40650	108318	0	0	8393	505598	0	0
2024-05-30 07:56:32			0	39461	0	0	0	22612	21200	127402	27159	993696	40649	108321	0	0	8393	505729	0	0
2024-05-30 07:57:32			0	39478	0	0	0	22610	21210	127434	27343	993678	40638	108320	0	0	8394	505066	0	0
2024-05-30 07:58:32			0	39460	0	0	0	22615	21200	127414	27069	993669	40661	108322	0	0	8393	505766	0	0
2024-05-30 07:59:32			0	39465	0	0	0	22612	21210	127414	27156	993678	40638	108321	0	0	8393	505552	0	0
2024-05-30 08:00:32			0	39467	0	0	0	22615	21200	127446	27372	993688	40649	108322	0	0	8393	505505	0	0
2024-05-30 08:01:32			0	39463	0	0	0	22610	21210	127350	27152	993651	40649	108320	0	0	8393	505626	0	0
2024-05-30 08:02:32			0	39455	0	0	0	22605	21210	127530	27379	993713	40639	108318	0	0	8392	505925	0	0
2024-05-30 08:03:32			0	39458	0	0	0	22620	21210	127478	27142	993704	40661	108324	0	0	8392	505813	0	0
2024-05-30 08:04:32			0	39454	0	0	0	22612	21210	127498	27098	993687	40662	108321	0	0	8392	505963	0	0
2024-05-30 08:05:32			0	39449	0	0	0	22618	21210	127450	27466	993660	40650	108323	0	0	8392	506149	0	0
2024-05-30 08:06:32			0	39459	0	0	0	22618	21220	127490	27076	993722	40650	108323	0	0	8393	505748	0	0
2024-05-30 08:07:32			0	39433	0	0	0	22618	21220	127514	27445	993668	40662	108323	0	0	8391	506719	0	0
2024-05-30 08:08:32			0	39453	0	0	0	22620	21220	127482	27485	993775	40650	108324	0	0	8392	505972	0	0
2024-05-30 08:09:32			0	39446	0	0	0	22618	21220	127490	27350	993722	40662	108323	0	0	8392	506233	0	0
2024-05-30 08:10:32			0	39443	0	0	0	22618	21220	127466	27332	993730	40651	108323	0	0	8392	506345	0	0
2024-05-30 08:11:32			0	39440	0	0	0	22620	21220	127526	27575	993775	40650	108324	0	0	8391	506458	0	0
2024-05-30 08:12:32			0	39426	0	0	0	22625	21230	127542	27538	993792	40663	108326	0	0	8391	506953	0	0
2024-05-30 08:13:32			0	39435	0	0	0	22623	21220	127578	27528	993703	40651	108325	0	0	8391	506644	0	0
2024-05-30 08:14:32			0	39427	0	0	0	22638	21220	127602	27595	993783	40651	108331	0	0	8391	506944	0	0
2024-05-30 08:15:32			0	39423	0	0	0	22638	21230	127625	27312	993827	40641	108331	0	0	8390	507065	0	0
2024-05-30 08:16:32			0	39407	0	0	0	22636	21230	127577	27150	993765	40652	108330	0	0	8390	507664	0	0
2024-05-30 08:17:32			0	39400	0	0	0	22636	21220	127633	27471	993783	40651	108330	0	0	8389	507954	0	0
2024-05-30 08:18:32			0	39408	0	0	0	22636	21230	127673	27017	993800	40674	108330	0	0	8390	507626	0	0
2024-05-30 08:19:32			0	39413	0	0	0	22633	21220	127609	27253	993748	40650	108329	0	0	8390	507467	0	0
2024-05-30 08:20:32			0	39403	0	0	0	22628	21230	127677	27104	993747	40652	108327	0	0	8389	507813	0	0
2024-05-30 08:21:32			0	39391	0	0	0	22625	21220	127665	27325	993722	40662	108326	0	0	8389	508291	0	0
2024-05-30 08:22:32			0	39403	0	0	0	22628	21230	127673	27414	993738	40663	108327	0	0	8389	507813	0	0
2024-05-30 08:23:32			0	39416	0	0	0	22625	21220	127729	27147	993783	40640	108326	0	0	8390	507355	0	0
2024-05-30 08:24:32			0	39373	0	0	0	22620	21230	127745	27112	993800	40652	108324	0	0	8388	508937	0	0
2024-05-30 08:25:32			0	39363	0	0	0	22636	21230	127709	27502	993792	40663	108330	0	0	8387	509312	0	0
2024-05-30 08:26:32			0	39375	0	0	0	22636	21230	127741	27197	993818	40652	108330	0	0	8388	508862	0	0
2024-05-30 08:27:32			0	39376	0	0	0	22638	21230	127769	27097	993800	40652	108331	0	0	8388	508825	0	0
2024-05-30 08:28:32			0	39356	0	0	0	22654	21230	127765	27225	993845	40652	108337	0	0	8387	509575	0	0
2024-05-30 08:29:32			0	39368	0	0	0	22651	21240	127765	27307	993862	40664	108336	0	0	8387	509096	0	0
2024-05-30 08:30:32			0	39355	0	0	0	22662	21240	127765	27384	993870	40664	108340	0	0	8386	509584	0	0
2024-05-30 08:31:32			0	39355	0	0	0	22672	21250	127797	27424	993914	40665	108344	0	0	8386	509556	0	0
2024-05-30 08:32:32			0	39361	0	0	0	22683	21250	127729	27282	993914	40665	108348	0	0	8386	509331	0	0
2024-05-30 08:33:32			0	39350	0	0	0	22690	21260	127793	27395	994010	40676	108351	0	0	8386	509715	0	0
2024-05-30 08:34:32			0	39363	0	0	0	22696	21270	127817	27497	993966	40666	108353	0	0	8386	509199	0	0
2024-05-30 08:35:32			0	39372	0	0	0	22703	21260	127817	27277	994037	40655	108356	0	0	8387	508890	0	0
2024-05-30 08:36:32			0	39365	0	0	0	22709	21280	127757	27393	994036	40678	108358	0	0	8386	509096	0	0
2024-05-30 08:37:32			0	39352	0	0	0	22716	21260	127741	27267	993984	40666	108361	0	0	8385	509640	0	0
2024-05-30 08:38:32			0	39350	0	0	0	22714	21280	127797	27559	994062	40667	108360	0	0	8385	509658	0	0
2024-05-30 08:39:32			0	39345	0	0	0	22727	21280	127861	27313	994089	40667	108365	0	0	8385	509846	0	0
2024-05-30 08:40:32			0	39338	0	0	0	22716	21290	127721	27511	994106	40668	108361	0	0	8385	510080	0	0
2024-05-30 08:41:32			0	39368	0	0	0	22727	21300	127833	27346	994104	40669	108365	0	0	8386	508927	0	0
2024-05-30 08:42:32			0	39340	0	0	0	22729	21290	127761	27649	994088	40690	108366	0	0	8385	510005	0	0
2024-05-30 08:43:32			0	39345	0	0	0	22729	21300	127825	27490	994158	40681	108366	0	0	8385	509789	0	0
2024-05-30 08:44:32			0	39324	0	0	0	22722	21300	127877	27594	994051	40669	108363	0	0	8384	510577	0	0
2024-05-30 08:45:32			0	39332	0	0	0	22719	21290	127825	27438	994061	40668	108362	0	0	8384	510306	0	0
2024-05-30 08:46:32			0	39308	0	0	0	22724	21290	127813	27455	994061	40657	108364	0	0	8383	511207	0	0
2024-05-30 08:47:32			0	39318	0	0	0	22716	21290	127909	27390	994088	40679	108361	0	0	8384	510831	0	0
2024-05-30 08:48:32			0	39314	0	0	0	22716	21290	127909	27329	994114	40679	108361	0	0	8384	510981	0	0
2024-05-30 08:49:32			0	39306	0	0	0	22716	21290	128029	27542	994088	40668	108361	0	0	8383	511282	0	0
2024-05-30 08:50:32			0	39301	0	0	0	22714	21290	127913	27377	994053	40657	108360	0	0	8383	511470	0	0
2024-05-30 08:51:32			0	39298	0	0	0	22719	21300	127985	27293	994096	40669	108362	0	0	8383	511554	0	0
2024-05-30 08:52:32			0	39292	0	0	0	22724	21310	127981	27694	994139	40659	108364	0	0	8382	511751	0	0
2024-05-30 08:53:32			0	39296	0	0	0	22724	21310	127929	27341	994139	40669	108364	0	0	8383	511601	0	0
2024-05-30 08:54:32			0	39280	0	0	0	22727	21310	128017	27502	994193	40669	108365	0	0	8382	512203	0	0
2024-05-30 08:55:32			0	39266	0	0	0	22729	21310	127973	27281	994201	40692	108366	0	0	8381	512730	0	0
2024-05-30 08:56:32			0	39270	0	0	0	22740	21310	128029	27374	994121	40681	108370	0	0	8381	512579	0	0
2024-05-30 08:57:32			0	39237	0	0	0	22737	21320	128033	27248	994218	40661	108369	0	0	8379	513793	0	0
2024-05-30 08:58:32			0	39245	0	0	0	22740	21330	128049	27130	994279	40671	108370	0	0	8380	513463	0	0
2024-05-30 08:59:32			0	39225	0	0	0	22740	21320	128149	27263	994236	40693	108370	0	0	8379	514245	0	0
2024-05-30 09:00:32			0	39229	0	0	0	22735	21330	128177	27320	994262	40672	108368	0	0	8379	514066	0	0
2024-05-30 09:01:32			0	39217	0	0	0	22748	21330	128093	27514	994262	40683	108373	0	0	8378	514519	0	0
2024-05-30 09:02:32			0	39231	0	0	0	22753	21330	128169	27717	994262	40672	108375	0	0	8379	513991	0	0
2024-05-30 09:03:32			0	39204	0	0	0	22745	21330	128161	27599	994226	40682	108372	0	0	8378	515009	0	0
2024-05-30 09:04:32			0	39191	0	0	0	22753	21330	128157	27434	994235	40683	108375	0	0	8377	515500	0	0
2024-05-30 09:05:32			0	39211	0	0	0	22753	21330	128297	27471	994262	40683	108375	0	0	8378	514745	0	0
2024-05-30 09:06:32			0	39181	0	0	0	22758	21330	128225	27393	994288	40662	108377	0	0	8376	515877	0	0
2024-05-30 09:07:32			0	39171	0	0	0	22763	21340	128341	27566	994332	40673	108379	0	0	8376	516226	0	0
2024-05-30 09:08:32			0	39157	0	0	0	22761	21340	128397	27060	994332	40673	108378	0	0	8375	516756	0	0
2024-05-30 09:09:32			0	39150	0	0	0	22766	21350	128389	27225	994313	40696	108380	0	0	8374	516992	0	0
2024-05-30 09:10:32			0	39125	0	0	0	22768	21350	128469	27543	994313	40685	108381	0	0	8373	517938	0	0
2024-05-30 09:11:32			0	39132	0	0	0	22776	21350	128465	27497	994322	40664	108384	0	0	8373	517673	0	0
2024-05-30 09:12:32			0	39102	0	0	0	22779	21350	128585	26982	994322	40685	108385	0	0	8372	518809	0	0
2024-05-30 09:13:32			0	39111	0	0	0	22784	21350	128517	27095	994375	40674	108387	0	0	8372	518468	0	0
2024-05-30 09:14:32			0	39084	0	0	0	22786	21360	128637	27319	994437	40674	108388	0	0	8371	519462	0	0
2024-05-30 09:15:32			0	39073	0	0	0	22784	21370	128597	27391	994409	40676	108387	0	0	8370	519851	0	0
2024-05-30 09:16:32			0	39064	0	0	0	22799	21370	128689	27114	994507	40665	108393	0	0	8370	520192	0	0
2024-05-30 09:17:32			0	39034	0	0	0	22794	21360	128741	27339	994419	40686	108391	0	0	8368	521360	0	0
2024-05-30 09:18:32			0	39052	0	0	0	22797	21380	128705	27395	994505	40688	108392	0	0	8369	520619	0	0
2024-05-30 09:19:32			0	39003	0	0	0	22794	21380	128809	27211	994550	40687	108391	0	0	8366	522481	0	0
2024-05-30 09:20:32			0	38990	0	0	0	22802	21380	128797	27050	994505	40688	108394	0	0	8366	522976	0	0
2024-05-30 09:21:32			0	38985	0	0	0	22807	21380	128937	27467	994479	40688	108396	0	0	8365	523166	0	0
2024-05-30 09:22:32			0	38973	0	0	0	22810	21380	128901	27407	994559	40688	108397	0	0	8365	523624	0	0
2024-05-30 09:23:32			0	38952	0	0	0	22807	21390	129013	27296	994514	40689	108396	0	0	8364	524395	0	0
2024-05-30 09:24:32			0	38950	0	0	0	22810	21390	129009	27372	994522	40689	108397	0	0	8364	524471	0	0
2024-05-30 09:25:32			0	38944	0	0	0	22810	21390	129065	27261	994522	40677	108397	0	0	8363	524700	0	0
2024-05-30 09:26:32			0	38916	0	0	0	22812	21390	129129	27457	994540	40677	108398	0	0	8362	525769	0	0
2024-05-30 09:27:32			0	38890	0	0	0	22812	21390	129113	27443	994540	40700	108398	0	0	8360	526762	0	0
2024-05-30 09:28:32			0	38874	0	0	0	22815	21400	129213	27185	994566	40690	108399	0	0	8360	527345	0	0
2024-05-30 09:29:32			0	38854	0	0	0	22818	21390	129273	27192	994602	40689	108400	0	0	8358	528140	0	0
2024-05-30 09:30:32			0	38859	0	0	0	22818	21400	129369	27154	994646	40690	108400	0	0	8359	527919	0	0
2024-05-30 09:31:32			0	38814	0	0	0	22820	21410	129389	27242	994627	40690	108401	0	0	8356	529614	0	0
2024-05-30 09:32:32			0	38806	0	0	0	22820	21410	129481	27222	994601	40690	108401	0	0	8356	529921	0	0
2024-05-30 09:33:32			0	38776	0	0	0	22820	21410	129577	27272	994601	40690	108401	0	0	8354	531073	0	0
2024-05-30 09:34:32			0	38743	0	0	0	22825	21400	129633	27220	994592	40690	108403	0	0	8353	532371	0	0
2024-05-30 09:35:32			0	38740	0	0	0	22823	21410	129597	27355	994574	40679	108402	0	0	8352	532457	0	0
2024-05-30 09:36:32			0	38704	0	0	0	22823	21400	129712	27111	994592	40667	108402	0	0	8351	533873	0	0
2024-05-30 09:37:32			0	38698	0	0	0	22823	21410	129868	27201	994574	40690	108402	0	0	8350	534075	0	0
2024-05-30 09:38:32			0	38679	0	0	0	22818	21410	129944	27260	994601	40690	108400	0	0	8349	534808	0	0
2024-05-30 09:39:32			0	38642	0	0	0	22825	21410	130012	27435	994627	40679	108403	0	0	8347	536236	0	0
2024-05-30 09:40:32			0	38612	0	0	0	22828	21400	130088	27554	994619	40690	108404	0	0	8346	537426	0	0
2024-05-30 09:41:32			0	38576	0	0	0	22828	21410	130144	27305	994627	40668	108404	0	0	8344	538791	0	0
2024-05-30 09:42:32			0	38567	0	0	0	22831	21410	130212	27521	994627	40690	108405	0	0	8343	539140	0	0
2024-05-30 09:43:32			0	38530	0	0	0	22833	21420	130224	27015	994618	40703	108406	0	0	8341	540545	0	0
2024-05-30 09:44:32			0	38514	0	0	0	22831	21420	130416	27234	994724	40703	108405	0	0	8341	541167	0	0
2024-05-30 09:45:32			0	38461	0	0	0	22846	21420	130448	27012	994671	40680	108411	0	0	8338	543229	0	0
2024-05-30 09:46:32			0	38443	0	0	0	22846	21430	130500	26972	994732	40680	108411	0	0	8337	543900	0	0
2024-05-30 09:47:32			0	38410	0	0	0	22846	21430	130708	27145	994767	40692	108411	0	0	8335	545187	0	0
2024-05-30 09:48:32			0	38392	0	0	0	22854	21430	130780	27059	994688	40692	108414	0	0	8334	545890	0	0
2024-05-30 09:49:32			0	38351	0	0	0	22857	21430	130900	27345	994741	40681	108415	0	0	8332	547493	0	0
2024-05-30 09:50:32			0	38321	0	0	0	22857	21440	131048	27403	994723	40682	108415	0	0	8330	548638	0	0
2024-05-30 09:51:32			0	38282	0	0	0	22859	21440	131160	27462	994758	40693	108416	0	0	8328	550167	0	0
2024-05-30 09:52:32			0	38242	0	0	0	22864	21440	131148	27332	994811	40682	108418	0	0	8326	551739	0	0
2024-05-30 09:53:32			0	38211	0	0	0	22870	21450	131292	27164	994801	40694	108420	0	0	8324	552928	0	0
2024-05-30 09:54:32			0	38171	0	0	0	22864	21460	131528	27376	994783	40706	108418	0	0	8322	554474	0	0
2024-05-30 09:55:32			0	38123	0	0	0	22875	21460	131528	27260	994810	40684	108422	0	0	8320	556369	0	0
2024-05-30 09:56:32			0	38100	0	0	0	22864	21460	131704	27336	994837	40706	108418	0	0	8319	557279	0	0
2024-05-30 09:57:32			0	38050	0	0	0	22870	21450	131844	27230	994775	40694	108420	0	0	8316	559291	0	0
2024-05-30 09:58:32			0	38033	0	0	0	22872	21460	131984	27104	994898	40695	108421	0	0	8315	559934	0	0
2024-05-30 09:59:32			0	38001	0	0	0	22864	21460	132019	27208	994837	40695	108418	0	0	8314	561205	0	0
2024-05-30 10:00:32			0	37949	0	0	0	22870	21460	132251	27145	994863	40695	108420	0	0	8311	563274	0	0
2024-05-30 10:01:32			0	37915	0	0	0	22875	21460	132351	27170	994845	40684	108422	0	0	8309	564629	0	0
2024-05-30 10:02:32			0	37865	0	0	0	22872	21460	132567	27020	994837	40695	108421	0	0	8306	566627	0	0
2024-05-30 10:03:32			0	37830	0	0	0	22870	21460	132675	27211	994872	40716	108420	0	0	8305	568027	0	0
2024-05-30 10:04:32			0	37810	0	0	0	22880	21470	132771	27029	994827	40706	108424	0	0	8303	568797	0	0
2024-05-30 10:05:32			0	37788	0	0	0	22883	21460	132883	27079	994863	40684	108425	0	0	8302	569711	0	0
2024-05-30 10:06:32			0	37759	0	0	0	22875	21470	133011	27424	994933	40695	108422	0	0	8301	570844	0	0
2024-05-30 10:07:32			0	37719	0	0	0	22890	21480	133075	27274	994958	40698	108428	0	0	8299	572420	0	0
2024-05-30 10:08:32			0	37679	0	0	0	22898	21480	133223	27289	994879	40708	108431	0	0	8296	574032	0	0
2024-05-30 10:09:32			0	37676	0	0	0	22901	21480	133255	27326	994879	40698	108432	0	0	8296	574153	0	0
2024-05-30 10:10:32			0	37651	0	0	0	22898	21480	133299	27281	994932	40708	108431	0	0	8295	575161	0	0
2024-05-30 10:11:32			0	37600	0	0	0	22896	21470	133407	27057	994915	40696	108430	0	0	8292	577255	0	0
2024-05-30 10:12:32			0	37605	0	0	0	22893	21480	133507	27001	994879	40698	108429	0	0	8293	577020	0	0
2024-05-30 10:13:32			0	37566	0	0	0	22890	21480	133579	27150	994870	40697	108428	0	0	8291	578599	0	0
2024-05-30 10:14:32			0	37553	0	0	0	22890	21480	133707	27208	994932	40698	108428	0	0	8290	579126	0	0
2024-05-30 10:15:32			0	37514	0	0	0	22898	21490	133659	27116	994967	40686	108431	0	0	8288	580677	0	0
2024-05-30 10:16:32			0	37513	0	0	0	22901	21490	133767	27239	994949	40698	108432	0	0	8288	580717	0	0
2024-05-30 10:17:32			0	37491	0	0	0	22901	21490	133939	27287	995020	40698	108432	0	0	8286	581612	0	0
2024-05-30 10:18:32			0	37470	0	0	0	22911	21490	133951	27341	994967	40686	108436	0	0	8285	582466	0	0
2024-05-30 10:19:32			0	37458	0	0	0	22911	21500	133911	27407	994984	40698	108436	0	0	8285	582922	0	0
2024-05-30 10:20:32			0	37450	0	0	0	22909	21490	133907	27332	995055	40698	108435	0	0	8284	583280	0	0
2024-05-30 10:21:32			0	37429	0	0	0	22922	21500	134047	27178	995099	40699	108440	0	0	8283	584104	0	0
2024-05-30 10:22:32			0	37408	0	0	0	22914	21500	133951	27322	994984	40709	108437	0	0	8282	584960	0	0
2024-05-30 10:23:32			0	37405	0	0	0	22924	21510	134095	27261	995054	40699	108441	0	0	8282	585050	0	0
2024-05-30 10:24:32			0	37407	0	0	0	22922	21510	134095	27334	995062	40699	108440	0	0	8282	584969	0	0
2024-05-30 10:25:32			0	37381	0	0	0	22927	21500	134199	27161	995072	40699	108442	0	0	8280	586063	0	0
2024-05-30 10:26:32			0	37366	0	0	0	22927	21510	134179	27473	995080	40688	108442	0	0	8280	586644	0	0
2024-05-30 10:27:32			0	37378	0	0	0	22942	21510	134231	27277	995160	40699	108448	0	0	8280	586153	0	0
2024-05-30 10:28:32			0	37361	0	0	0	22942	21520	134311	27189	995132	40701	108448	0	0	8279	586815	0	0
2024-05-30 10:29:32			0	37346	0	0	0	22942	21520	134323	27064	995132	40711	108448	0	0	8278	587429	0	0
2024-05-30 10:30:32			0	37336	0	0	0	22945	21510	134355	27178	995134	40710	108449	0	0	8278	587871	0	0
2024-05-30 10:31:32			0	37326	0	0	0	22940	21530	134378	27168	995123	40701	108447	0	0	8277	588215	0	0
2024-05-30 10:32:32			0	37333	0	0	0	22935	21530	134371	27060	995114	40701	108445	0	0	8278	587929	0	0
2024-05-30 10:33:32			0	37331	0	0	0	22937	21530	134395	27015	995141	40701	108446	0	0	8278	588010	0	0
2024-05-30 10:34:32			0	37328	0	0	0	22942	21520	134406	27384	995132	40701	108448	0	0	8277	588166	0	0
2024-05-30 10:35:32			0	37314	0	0	0	22932	21520	134318	27126	995177	40700	108444	0	0	8277	588740	0	0
2024-05-30 10:36:32			0	37299	0	0	0	22929	21530	134474	27052	995087	40701	108443	0	0	8276	589322	0	0
2024-05-30 10:37:32			0	37317	0	0	0	22929	21520	134383	27294	995071	40700	108443	0	0	8277	588617	0	0
2024-05-30 10:38:32			0	37305	0	0	0	22924	21520	134458	27034	995132	40723	108441	0	0	8276	589109	0	0
2024-05-30 10:39:32			0	37301	0	0	0	22945	21530	134354	27448	995149	40711	108449	0	0	8276	589240	0	0
2024-05-30 10:40:32			0	37297	0	0	0	22953	21530	134418	26816	995176	40690	108452	0	0	8276	589404	0	0
2024-05-30 10:41:32			0	37296	0	0	0	22968	21540	134474	27588	995184	40691	108458	0	0	8275	589412	0	0
2024-05-30 10:42:32			0	37295	0	0	0	22974	21540	134474	27171	995264	40712	108460	0	0	8275	589453	0	0
2024-05-30 10:43:32			0	37283	0	0	0	22961	21540	134498	27102	995219	40703	108455	0	0	8275	589945	0	0
2024-05-30 10:44:32			0	37287	0	0	0	22966	21550	134442	27019	995174	40704	108457	0	0	8275	589749	0	0
2024-05-30 10:45:32			0	37278	0	0	0	22966	21560	134434	27144	995218	40704	108457	0	0	8275	590085	0	0
2024-05-30 10:46:32			0	37279	0	0	0	22961	21540	134518	26996	995246	40713	108455	0	0	8275	590110	0	0
2024-05-30 10:47:32			0	37295	0	0	0	22961	21550	134482	27239	995254	40714	108455	0	0	8275	589420	0	0
2024-05-30 10:48:32			0	37303	0	0	0	22963	21540	134478	27121	995264	40712	108456	0	0	8276	589125	0	0
2024-05-30 10:49:32			0	37306	0	0	0	22968	21560	134402	27372	995271	40704	108458	0	0	8276	588937	0	0
2024-05-30 10:50:32			0	37301	0	0	0	22974	21550	134494	27100	995236	40704	108460	0	0	8276	589174	0	0
2024-05-30 10:51:32			0	37300	0	0	0	22976	21560	134442	26958	995351	40704	108461	0	0	8276	589183	0	0
2024-05-30 10:52:32			0	37280	0	0	0	22974	21560	134550	27289	995244	40704	108460	0	0	8275	590003	0	0
2024-05-30 10:53:32			0	37299	0	0	0	22981	21560	134434	26991	995271	40704	108463	0	0	8275	589224	0	0
2024-05-30 10:54:32			0	37319	0	0	0	22976	21560	134391	26972	995280	40705	108461	0	0	8277	588404	0	0
2024-05-30 10:55:32			0	37298	0	0	0	22986	21560	134414	27197	995298	40704	108465	0	0	8275	589265	0	0
2024-05-30 10:56:32			0	37289	0	0	0	22994	21570	134426	27074	995341	40716	108468	0	0	8275	589601	0	0
2024-05-30 10:57:32			0	37303	0	0	0	22992	21580	134342	27422	995331	40716	108467	0	0	8275	588994	0	0
2024-05-30 10:58:32			0	37314	0	0	0	22994	21570	134298	27152	995350	40716	108468	0	0	8276	588576	0	0
2024-05-30 10:59:32			0	37325	0	0	0	22997	21580	134367	27124	995393	40695	108469	0	0	8277	588093	0	0
2024-05-30 11:00:32			0	37320	0	0	0	22999	21570	134359	26942	995323	40716	108470	0	0	8276	588330	0	0
2024-05-30 11:01:32			0	37317	0	0	0	23005	21570	134479	27215	995376	40716	108472	0	0	8276	588453	0	0
2024-05-30 11:02:32			0	37315	0	0	0	23005	21590	134339	27171	995428	40718	108472	0	0	8276	588470	0	0
2024-05-30 11:03:32			0	37314	0	0	0	23002	21580	134427	26970	995420	40717	108471	0	0	8276	588543	0	0
2024-05-30 11:04:32			0	37326	0	0	0	23002	21590	134355	27263	995384	40707	108471	0	0	8277	588019	0	0
2024-05-30 11:05:32			0	37313	0	0	0	23012	21590	134391	26951	995437	40718	108475	0	0	8276	588551	0	0
2024-05-30 11:06:32			0	37329	0	0	0	23012	21580	134359	26915	995500	40706	108475	0	0	8277	587929	0	0
2024-05-30 11:07:32			0	37306	0	0	0	23018	21600	134386	27378	995445	40718	108477	0	0	8275	588806	0	0
2024-05-30 11:08:32			0	37315	0	0	0	23028	21590	134314	26876	995490	40729	108481	0	0	8276	588470	0	0
2024-05-30 11:09:32			0	37322	0	0	0	23025	21590	134343	26975	995463	40718	108480	0	0	8276	588183	0	0
2024-05-30 11:10:32			0	37316	0	0	0	23031	21600	134367	27133	995498	40707	108482	0	0	8276	588396	0	0
2024-05-30 11:11:32			0	37336	0	0	0	23036	21610	134343	27194	995515	40719	108484	0	0	8277	587544	0	0
2024-05-30 11:12:32			0	37347	0	0	0	23041	21610	134287	27204	995550	40720	108486	0	0	8277	587094	0	0
2024-05-30 11:13:32			0	37324	0	0	0	23059	21620	134303	26785	995665	40720	108493	0	0	8276	588003	0	0
2024-05-30 11:14:32			0	37336	0	0	0	23070	21610	134211	27062	995630	40720	108497	0	0	8276	587544	0	0
2024-05-30 11:15:32			0	37340	0	0	0	23072	21630	134355	27092	995656	40721	108498	0	0	8276	587315	0	0
2024-05-30 11:16:32			0	37328	0	0	0	23083	21630	134231	27046	995664	40711	108502	0	0	8275	587806	0	0
2024-05-30 11:17:32			0	37337	0	0	0	23093	21630	134199	27312	995709	40721	108506	0	0	8276	587438	0	0
2024-05-30 11:18:32			0	37349	0	0	0	23083	21640	134211	27258	995726	40722	108502	0	0	8277	586915	0	0
2024-05-30 11:19:32			0	37346	0	0	0	23077	21640	134247	27097	995654	40722	108500	0	0	8277	587037	0	0
2024-05-30 11:20:32			0	37362	0	0	0	23085	21650	134255	27005	995724	40724	108503	0	0	8277	586350	0	0
2024-05-30 11:21:32			0	37355	0	0	0	23085	21650	134219	27303	995742	40723	108503	0	0	8277	586637	0	0
2024-05-30 11:22:32			0	37343	0	0	0	23088	21660	134191	27180	995741	40724	108504	0	0	8276	587095	0	0
2024-05-30 11:23:32			0	37363	0	0	0	23088	21670	134215	27090	995803	40736	108504	0	0	8277	586244	0	0
2024-05-30 11:24:32			0	37360	0	0	0	23083	21660	134191	26996	995768	40724	108502	0	0	8277	586400	0	0
2024-05-30 11:25:32			0	37385	0	0	0	23088	21660	134035	27346	995813	40724	108504	0	0	8278	585378	0	0
2024-05-30 11:26:32			0	37377	0	0	0	23085	21670	134179	26937	995785	40714	108503	0	0	8278	585672	0	0
2024-05-30 11:27:32			0	37390	0	0	0	23088	21670	134047	27112	995811	40726	108504	0	0	8279	585142	0	0
2024-05-30 11:28:32			0	37400	0	0	0	23093	21670	134023	27531	995776	40713	108506	0	0	8279	584734	0	0
2024-05-30 11:29:32			0	37379	0	0	0	23090	21670	133983	27071	995758	40714	108505	0	0	8278	585591	0	0
2024-05-30 11:30:32			0	37401	0	0	0	23088	21670	134011	27400	995864	40726	108504	0	0	8279	584693	0	0
2024-05-30 11:31:32			0	37427	0	0	0	23098	21680	133963	27242	995846	40726	108508	0	0	8281	583601	0	0
2024-05-30 11:32:32			0	37401	0	0	0	23109	21670	133955	27137	995864	40726	108512	0	0	8279	584693	0	0
2024-05-30 11:33:32			0	37419	0	0	0	23103	21690	133883	27364	995845	40716	108510	0	0	8280	583894	0	0
2024-05-30 11:34:32			0	37446	0	0	0	23101	21680	133899	27478	995881	40727	108509	0	0	8282	582827	0	0
2024-05-30 11:35:32			0	37433	0	0	0	23111	21690	133851	27168	995872	40727	108513	0	0	8281	583324	0	0
2024-05-30 11:36:32			0	37452	0	0	0	23124	21700	133947	27279	995880	40716	108518	0	0	8282	582518	0	0
2024-05-30 11:37:32			0	37436	0	0	0	23132	21710	133891	27124	996022	40728	108521	0	0	8281	583137	0	0
2024-05-30 11:38:32			0	37466	0	0	0	23142	21710	133895	27249	996057	40740	108525	0	0	8282	581916	0	0
2024-05-30 11:39:32			0	37467	0	0	0	23132	21720	133831	27116	996012	40729	108521	0	0	8282	581843	0	0
2024-05-30 11:40:32			0	37448	0	0	0	23132	21710	133879	27183	996030	40740	108521	0	0	8281	582648	0	0
2024-05-30 11:41:32			0	37485	0	0	0	23124	21720	133811	27291	995932	40729	108518	0	0	8283	581112	0	0
2024-05-30 11:42:32			0	37483	0	0	0	23124	21710	133751	26941	995950	40740	108518	0	0	8283	581225	0	0
2024-05-30 11:43:32			0	37489	0	0	0	23129	21720	133735	27104	995959	40729	108520	0	0	8283	580949	0	0
2024-05-30 11:44:32			0	37504	0	0	0	23106	21720	133779	27462	995985	40718	108511	0	0	8285	580340	0	0
2024-05-30 11:45:32			0	37491	0	0	0	23109	21720	133703	27386	995967	40752	108512	0	0	8284	580868	0	0
2024-05-30 11:46:32			0	37514	0	0	0	23109	21710	133767	27324	995924	40717	108512	0	0	8285	579967	0	0
2024-05-30 11:47:32			0	37530	0	0	0	23101	21710	133603	27483	995897	40728	108509	0	0	8286	579318	0	0
2024-05-30 11:48:32			0	37535	0	0	0	23088	21720	133575	27272	995932	40729	108504	0	0	8287	579083	0	0
2024-05-30 11:49:32			0	37541	0	0	0	23093	21710	133567	27072	995924	40717	108506	0	0	8287	578872	0	0
2024-05-30 11:50:32			0	37560	0	0	0	23090	21700	133511	27301	995907	40716	108505	0	0	8288	578134	0	0
2024-05-30 11:51:32			0	37553	0	0	0	23098	21700	133471	27237	995907	40739	108508	0	0	8287	578418	0	0
2024-05-30 11:52:32			0	37560	0	0	0	23098	21700	133423	27384	995907	40727	108508	0	0	8288	578134	0	0
2024-05-30 11:53:32			0	37567	0	0	0	23103	21710	133403	27383	995915	40740	108510	0	0	8288	577819	0	0
2024-05-30 11:54:32			0	37575	0	0	0	23119	21710	133335	27312	995942	40740	108516	0	0	8288	577495	0	0
2024-05-30 11:55:32			0	37608	0	0	0	23135	21720	133367	27095	996039	40740	108522	0	0	8290	576129	0	0
2024-05-30 11:56:32			0	37591	0	0	0	23127	21720	133315	27301	996021	40741	108519	0	0	8289	576816	0	0
2024-05-30 11:57:32			0	37591	0	0	0	23119	21730	133319	27093	996002	40730	108516	0	0	8289	576784	0	0
2024-05-30 11:58:32			0	37590	0	0	0	23127	21730	133291	27154	996002	40741	108519	0	0	8289	576824	0	0
2024-05-30 11:59:32			0	37620	0	0	0	23127	21730	133227	27157	995949	40730	108519	0	0	8290	575613	0	0
2024-05-30 12:00:32			0	37611	0	0	0	23127	21720	133223	27369	996100	40719	108519	0	0	8290	576008	0	0
2024-05-30 12:01:32			0	37629	0	0	0	23124	21720	133207	27149	995985	40740	108518	0	0	8291	575281	0	0
2024-05-30 12:02:32			0	37644	0	0	0	23142	21730	133127	27588	996029	40730	108525	0	0	8291	574644	0	0
2024-05-30 12:03:32			0	37650	0	0	0	23132	21720	133155	27097	996065	40729	108521	0	0	8292	574434	0	0
2024-05-30 12:04:32			0	37638	0	0	0	23140	21740	133127	27020	996099	40731	108524	0	0	8291	574854	0	0
2024-05-30 12:05:32			0	37662	0	0	0	23142	21730	133035	27168	996002	40719	108525	0	0	8292	573919	0	0
2024-05-30 12:06:32			0	37661	0	0	0	23161	21730	133059	26939	996091	40741	108532	0	0	8292	573959	0	0
2024-05-30 12:07:32			0	37683	0	0	0	23166	21740	132979	27109	996161	40753	108534	0	0	8293	573041	0	0
2024-05-30 12:08:32			0	37680	0	0	0	23186	21750	132899	27428	996169	40732	108542	0	0	8293	573130	0	0
2024-05-30 12:09:32			0	37683	0	0	0	23189	21750	132943	27319	996178	40744	108543	0	0	8293	573009	0	0
2024-05-30 12:10:32			0	37702	0	0	0	23192	21760	132927	27433	996213	40721	108544	0	0	8294	572213	0	0
2024-05-30 12:11:32			0	37672	0	0	0	23194	21760	133023	27620	996248	40734	108545	0	0	8292	573420	0	0
2024-05-30 12:12:32			0	37707	0	0	0	23202	21770	132863	27351	996309	40745	108548	0	0	8294	571980	0	0
2024-05-30 12:13:32			0	37725	0	0	0	23194	21770	132875	27559	996291	40746	108545	0	0	8295	571256	0	0
2024-05-30 12:14:32			0	37706	0	0	0	23194	21770	132823	27545	996265	40735	108545	0	0	8294	572020	0	0
2024-05-30 12:15:32			0	37721	0	0	0	23186	21780	132823	27336	996255	40735	108542	0	0	8295	571385	0	0
2024-05-30 12:16:32			0	37744	0	0	0	23184	21770	132839	27455	996238	40723	108541	0	0	8296	570494	0	0
2024-05-30 12:17:32			0	37735	0	0	0	23184	21770	132763	27455	996283	40734	108541	0	0	8296	570855	0	0
2024-05-30 12:18:32			0	37749	0	0	0	23186	21790	132719	27358	996272	40748	108542	0	0	8296	570229	0	0
2024-05-30 12:19:32			0	37762	0	0	0	23181	21790	132755	27452	996263	40735	108540	0	0	8297	569708	0	0
2024-05-30 12:20:32			0	37747	0	0	0	23174	21780	132655	27495	996246	40723	108537	0	0	8296	570341	0	0
2024-05-30 12:21:32			0	37767	0	0	0	23179	21770	132559	27225	996265	40746	108539	0	0	8297	569571	0	0
2024-05-30 12:22:32			0	37806	0	0	0	23174	21780	132643	27275	996255	40735	108537	0	0	8300	567977	0	0
2024-05-30 12:23:32			0	37793	0	0	0	23168	21770	132539	27550	996185	40723	108535	0	0	8299	568529	0	0
2024-05-30 12:24:32			0	37820	0	0	0	23171	21790	132531	27173	996290	40735	108536	0	0	8300	567385	0	0
2024-05-30 12:25:32			0	37805	0	0	0	23166	21780	132579	27635	996202	40735	108534	0	0	8300	568017	0	0
2024-05-30 12:26:32			0	37815	0	0	0	23161	21770	132519	27635	996185	40735	108532	0	0	8300	567648	0	0
2024-05-30 12:27:32			0	37830	0	0	0	23153	21770	132463	27346	996158	40735	108529	0	0	8301	567048	0	0
2024-05-30 12:28:32			0	37838	0	0	0	23155	21760	132487	27265	996141	40734	108530	0	0	8301	566760	0	0
2024-05-30 12:29:32			0	37844	0	0	0	23158	21770	132439	27388	996150	40734	108531	0	0	8302	566489	0	0
2024-05-30 12:30:32			0	37846	0	0	0	23163	21770	132399	27261	996256	40734	108533	0	0	8302	566409	0	0
2024-05-30 12:31:32			0	37855	0	0	0	23161	21770	132451	27189	996256	40734	108532	0	0	8302	566049	0	0
2024-05-30 12:32:32			0	37844	0	0	0	23163	21770	132427	27150	996203	40745	108533	0	0	8302	566489	0	0
2024-05-30 12:33:32			0	37858	0	0	0	23161	21770	132423	26878	996203	40734	108532	0	0	8302	565930	0	0
2024-05-30 12:34:32			0	37855	0	0	0	23153	21770	132471	27102	996185	40723	108529	0	0	8302	566049	0	0
2024-05-30 12:35:32			0	37871	0	0	0	23158	21760	132243	27190	996221	40722	108531	0	0	8303	565442	0	0
2024-05-30 12:36:32			0	37866	0	0	0	23176	21770	132315	27326	996185	40723	108538	0	0	8303	565610	0	0
2024-05-30 12:37:32			0	37858	0	0	0	23179	21770	132343	26958	996238	40746	108539	0	0	8302	565930	0	0
2024-05-30 12:38:32			0	37856	0	0	0	23184	21780	132299	27196	996326	40735	108541	0	0	8302	565978	0	0
2024-05-30 12:39:32			0	37869	0	0	0	23189	21780	132291	27187	996273	40746	108543	0	0	8303	565459	0	0
2024-05-30 12:40:32			0	37856	0	0	0	23179	21770	132375	27156	996291	40735	108539	0	0	8302	566010	0	0
2024-05-30 12:41:32			0	37847	0	0	0	23184	21790	132475	27251	996290	40735	108541	0	0	8302	566306	0	0
2024-05-30 12:42:32			0	37847	0	0	0	23192	21770	132411	27336	996344	40735	108544	0	0	8301	566369	0	0
2024-05-30 12:43:32			0	37854	0	0	0	23179	21780	132471	27123	996308	40735	108539	0	0	8302	566058	0	0
2024-05-30 12:44:32			0	37839	0	0	0	23181	21790	132455	27287	996263	40735	108540	0	0	8301	566626	0	0
2024-05-30 12:45:32			0	37850	0	0	0	23168	21790	132411	27428	996263	40735	108535	0	0	8302	566186	0	0
2024-05-30 12:46:32			0	37855	0	0	0	23179	21790	132399	27173	996263	40735	108539	0	0	8302	565986	0	0
2024-05-30 12:47:32			0	37848	0	0	0	23210	21780	132455	27357	996308	40724	108551	0	0	8301	566298	0	0
2024-05-30 12:48:32			0	37838	0	0	0	23254	21800	132483	27419	996440	40748	108568	0	0	8300	566634	0	0
2024-05-30 12:49:32			0	37832	0	0	0	23218	21800	132511	27241	996387	40736	108554	0	0	8300	566874	0	0
2024-05-30 12:50:32			0	37836	0	0	0	23215	21800	132567	27036	996342	40737	108553	0	0	8300	566714	0	0
2024-05-30 12:51:32			0	37817	0	0	0	23199	21810	132531	27015	996377	40737	108547	0	0	8300	567442	0	0
2024-05-30 12:52:32			0	37796	0	0	0	23179	21800	132639	27429	996342	40748	108539	0	0	8299	568314	0	0
2024-05-30 12:53:32			0	37791	0	0	0	23176	21800	132567	27393	996333	40748	108538	0	0	8299	568514	0	0
2024-05-30 12:54:32			0	37796	0	0	0	23166	21800	132535	27279	996280	40725	108534	0	0	8299	568314	0	0
2024-05-30 12:55:32			0	37785	0	0	0	23163	21790	132611	27357	996290	40735	108533	0	0	8299	568786	0	0
2024-05-30 12:56:32			0	37809	0	0	0	23161	21800	132551	27062	996307	40758	108532	0	0	8300	567794	0	0
2024-05-30 12:57:32			0	37786	0	0	0	23153	21800	132595	27145	996262	40737	108529	0	0	8299	568714	0	0
2024-05-30 12:58:32			0	37770	0	0	0	23148	21790	132611	27277	996316	40735	108527	0	0	8298	569387	0	0
2024-05-30 12:59:32			0	37785	0	0	0	23148	21790	132603	27298	996237	40735	108527	0	0	8299	568786	0	0
2024-05-30 13:00:32			0	37771	0	0	0	23142	21780	132639	27298	996202	40735	108525	0	0	8298	569379	0	0
2024-05-30 13:01:32			0	37781	0	0	0	23140	21780	132679	27438	996220	40746	108524	0	0	8299	568978	0	0
2024-05-30 13:02:32			0	37782	0	0	0	23142	21770	132687	27064	996176	40734	108525	0	0	8299	568970	0	0
2024-05-30 13:03:32			0	37770	0	0	0	23176	21770	132803	27144	996211	40735	108538	0	0	8298	569451	0	0
2024-05-30 13:04:32			0	37769	0	0	0	23236	21780	132747	27194	996308	40757	108561	0	0	8297	569459	0	0
2024-05-30 13:05:32			0	37793	0	0	0	23218	21800	132651	27111	996387	40758	108554	0	0	8298	568434	0	0
2024-05-30 13:06:32			0	37812	0	0	0	23215	21800	132571	27481	996395	40737	108553	0	0	8299	567673	0	0
2024-05-30 13:07:32			0	37818	0	0	0	23202	21810	132535	27019	996412	40727	108548	0	0	8300	567402	0	0
2024-05-30 13:08:32			0	37814	0	0	0	23207	21810	132519	27112	996430	40726	108550	0	0	8299	567562	0	0
2024-05-30 13:09:32			0	37796	0	0	0	23220	21810	132555	27357	996377	40737	108555	0	0	8298	568282	0	0
2024-05-30 13:10:32			0	37805	0	0	0	23215	21800	132535	27031	996448	40726	108553	0	0	8299	567954	0	0
2024-05-30 13:11:32			0	37795	0	0	0	23215	21810	132535	27415	996403	40737	108553	0	0	8298	568322	0	0
2024-05-30 13:12:32			0	37772	0	0	0	23218	21800	132607	27351	996395	40748	108554	0	0	8297	569275	0	0
2024-05-30 13:13:32			0	37763	0	0	0	23189	21810	132727	27107	996403	40748	108543	0	0	8297	569604	0	0
2024-05-30 13:14:32			0	37732	0	0	0	23199	21820	132799	27161	996420	40750	108547	0	0	8295	570816	0	0
2024-05-30 13:15:32			0	37695	0	0	0	23186	21810	132871	27301	996403	40748	108542	0	0	8294	572335	0	0
2024-05-30 13:16:32			0	37653	0	0	0	23179	21800	133003	27390	996342	40748	108539	0	0	8292	574057	0	0
2024-05-30 13:17:32			0	37596	0	0	0	23181	21810	133111	27479	996350	40748	108540	0	0	8289	576325	0	0
2024-05-30 13:18:32			0	37560	0	0	0	23189	21810	133371	27343	996350	40726	108543	0	0	8287	577781	0	0
2024-05-30 13:19:32			0	37515	0	0	0	23192	21800	133539	27294	996360	40748	108544	0	0	8284	579636	0	0
2024-05-30 13:20:32			0	37480	0	0	0	23205	21810	133683	27088	996324	40737	108549	0	0	8282	581023	0	0
2024-05-30 13:21:32			0	37453	0	0	0	23210	21820	133739	27495	996500	40760	108551	0	0	8281	582088	0	0
2024-05-30 13:22:32			0	37428	0	0	0	23223	21800	133827	27306	996475	40748	108556	0	0	8279	583170	0	0
2024-05-30 13:23:32			0	37440	0	0	0	23220	21810	133771	26987	996430	40748	108555	0	0	8280	582649	0	0
2024-05-30 13:24:32			0	37430	0	0	0	23205	21810	133775	27199	996457	40748	108549	0	0	8279	583056	0	0
2024-05-30 13:25:32			0	37411	0	0	0	23197	21820	133799	27244	996394	40728	108546	0	0	8279	583798	0	0
2024-05-30 13:26:32			0	37391	0	0	0	23186	21820	133951	27543	996340	40760	108542	0	0	8278	584613	0	0
2024-05-30 13:27:32			0	37320	0	0	0	23174	21800	134151	27376	996360	40736	108537	0	0	8274	587578	0	0
2024-05-30 13:28:32			0	37254	0	0	0	23174	21800	134338	27190	996342	40748	108537	0	0	8271	590282	0	0
2024-05-30 13:29:32			0	37175	0	0	0	23166	21810	134642	27483	996359	40749	108534	0	0	8267	593496	0	0
2024-05-30 13:30:32			0	37103	0	0	0	23176	21810	134834	27460	996324	40737	108538	0	0	8263	596466	0	0
2024-05-30 13:31:32			0	37063	0	0	0	23176	21790	135086	27308	996272	40725	108538	0	0	8261	598187	0	0
2024-05-30 13:32:32			0	37030	0	0	0	23176	21800	135166	27137	996360	40748	108538	0	0	8259	599521	0	0
2024-05-30 13:33:32			0	37011	0	0	0	23181	21810	135122	27331	996377	40748	108540	0	0	8258	600275	0	0
2024-05-30 13:34:32			0	36977	0	0	0	23189	21800	135386	27194	996368	40748	108543	0	0	8256	601721	0	0
2024-05-30 13:35:32			0	36944	0	0	0	23184	21800	135554	27189	996368	40737	108541	0	0	8254	603094	0	0
2024-05-30 13:36:32			0	36860	0	0	0	23189	21800	135954	27234	996368	40748	108543	0	0	8250	606597	0	0
2024-05-30 13:37:32			0	36799	0	0	0	23181	21800	136086	27123	996333	40748	108540	0	0	8247	609150	0	0
2024-05-30 13:38:32			0	36742	0	0	0	23181	21800	136302	27381	996413	40736	108540	0	0	8244	611541	0	0
2024-05-30 13:39:32			0	36667	0	0	0	23189	21800	136498	27229	996333	40748	108543	0	0	8240	614698	0	0
2024-05-30 13:40:32			0	36615	0	0	0	23186	21800	136722	27204	996342	40748	108542	0	0	8237	616894	0	0
2024-05-30 13:41:32			0	36579	0	0	0	23199	21800	136897	27261	996333	40736	108547	0	0	8235	618417	0	0
2024-05-30 13:42:32			0	36526	0	0	0	23199	21810	136985	27154	996403	40748	108547	0	0	8232	620629	0	0
2024-05-30 13:43:32			0	36466	0	0	0	23189	21800	137209	27234	996368	40748	108543	0	0	8229	623214	0	0
2024-05-30 13:44:32			0	36414	0	0	0	23194	21800	137449	27369	996368	40737	108545	0	0	8226	625430	0	0
2024-05-30 13:45:32			0	36356	0	0	0	23192	21800	137621	27521	996448	40748	108544	0	0	8223	627909	0	0
2024-05-30 13:46:32			0	36297	0	0	0	23184	21810	137805	27265	996350	40737	108541	0	0	8220	630402	0	0
2024-05-30 13:47:32			0	36258	0	0	0	23189	21810	137985	27504	996324	40737	108543	0	0	8218	632077	0	0
2024-05-30 13:48:32			0	36216	0	0	0	23184	21810	138101	27053	996403	40737	108541	0	0	8216	633884	0	0
2024-05-30 13:49:32			0	36208	0	0	0	23179	21800	138277	27563	996342	40748	108539	0	0	8215	634264	0	0
2024-05-30 13:50:32			0	36191	0	0	0	23184	21810	138301	27538	996377	40748	108541	0	0	8215	634961	0	0
2024-05-30 13:51:32			0	36152	0	0	0	23174	21810	138573	27265	996359	40760	108537	0	0	8213	636645	0	0
2024-05-30 13:52:32			0	36108	0	0	0	23166	21800	138557	27434	996289	40737	108534	0	0	8210	638583	0	0
2024-05-30 13:53:32			0	36084	0	0	0	23158	21800	138649	27176	996368	40748	108531	0	0	8209	639623	0	0
2024-05-30 13:54:32			0	36065	0	0	0	23171	21800	138657	27248	996360	40748	108536	0	0	8208	640447	0	0
2024-05-30 13:55:32			0	36060	0	0	0	23174	21800	138773	27599	996280	40748	108537	0	0	8208	640664	0	0
2024-05-30 13:56:32			0	36037	0	0	0	23166	21790	138809	27092	996272	40736	108534	0	0	8207	641699	0	0
2024-05-30 13:57:32			0	36005	0	0	0	23168	21780	138957	27055	996308	40747	108535	0	0	8205	643126	0	0
2024-05-30 13:58:32			0	36015	0	0	0	23166	21800	138961	27357	996315	40737	108534	0	0	8205	642619	0	0
2024-05-30 13:59:32			0	36001	0	0	0	23155	21790	139013	27545	996263	40747	108530	0	0	8205	643264	0	0
2024-05-30 14:00:32			0	35986	0	0	0	23155	21790	139133	27272	996245	40725	108530	0	0	8204	643917	0	0
2024-05-30 14:01:32			0	35939	0	0	0	23153	21790	139125	27300	996245	40748	108529	0	0	8202	645967	0	0
2024-05-30 14:02:32			0	35953	0	0	0	23155	21790	139077	27377	996237	40735	108530	0	0	8202	645356	0	0
2024-05-30 14:03:32			0	35932	0	0	0	23155	21780	139209	27352	996228	40747	108530	0	0	8201	646308	0	0
2024-05-30 14:04:32			0	35929	0	0	0	23155	21790	139365	27124	996290	40747	108530	0	0	8201	646403	0	0
2024-05-30 14:05:32			0	35916	0	0	0	23153	21770	139373	27263	996238	40735	108529	0	0	8200	647043	0	0
2024-05-30 14:06:32			0	35896	0	0	0	23197	21770	139361	27293	996291	40746	108546	0	0	8198	647918	0	0
2024-05-30 14:07:32			0	35881	0	0	0	23168	21790	139485	27377	996378	40748	108535	0	0	8198	648502	0	0
2024-05-30 14:08:32			0	35877	0	0	0	23168	21790	139437	27097	996298	40736	108535	0	0	8198	648677	0	0
2024-05-30 14:09:32			0	35861	0	0	0	23155	21790	139581	27419	996290	40735	108530	0	0	8197	649378	0	0
2024-05-30 14:10:32			0	35832	0	0	0	23158	21780	139536	27225	996335	40735	108531	0	0	8196	650686	0	0
2024-05-30 14:11:32			0	35831	0	0	0	23153	21780	139572	27133	996220	40735	108529	0	0	8196	650730	0	0
2024-05-30 14:12:32			0	35835	0	0	0	23161	21790	139676	27227	996237	40735	108532	0	0	8196	650518	0	0
2024-05-30 14:13:32			0	35857	0	0	0	23158	21790	139600	27287	996298	40736	108531	0	0	8197	649553	0	0
2024-05-30 14:14:32			0	35854	0	0	0	23158	21770	139684	27488	996230	40734	108531	0	0	8197	649757	0	0
2024-05-30 14:15:32			0	35866	0	0	0	23168	21770	139652	27298	996238	40746	108535	0	0	8197	649231	0	0
2024-05-30 14:16:32			0	35844	0	0	0	23168	21780	139620	27483	996281	40735	108535	0	0	8196	650159	0	0
2024-05-30 14:17:32			0	35824	0	0	0	23161	21770	139692	27085	996265	40735	108532	0	0	8195	651073	0	0
2024-05-30 14:18:32			0	35837	0	0	0	23179	21780	139760	27291	996281	40757	108539	0	0	8196	650466	0	0
2024-05-30 14:19:32			0	35818	0	0	0	23168	21790	139696	27232	996290	40757	108535	0	0	8195	651264	0	0
2024-05-30 14:20:32			0	35825	0	0	0	23176	21780	139756	27384	996308	40724	108538	0	0	8195	650993	0	0
2024-05-30 14:21:32			0	35839	0	0	0	23179	21780	139648	27367	996228	40747	108539	0	0	8196	650379	0	0
2024-05-30 14:22:32			0	35843	0	0	0	23189	21790	139628	27351	996272	40736	108543	0	0	8196	650167	0	0
2024-05-30 14:23:32			0	35873	0	0	0	23184	21790	139605	27341	996316	40757	108541	0	0	8197	648852	0	0
2024-05-30 14:24:32			0	35832	0	0	0	23197	21790	139688	27274	996405	40748	108546	0	0	8195	650649	0	0
2024-05-30 14:25:32			0	35818	0	0	0	23199	21790	139792	27289	996298	40736	108547	0	0	8194	651264	0	0
2024-05-30 14:26:32			0	35754	0	0	0	23199	21810	139916	27386	996403	40748	108547	0	0	8191	654006	0	0
2024-05-30 14:27:32			0	35721	0	0	0	23194	21800	139940	27175	996360	40736	108545	0	0	8189	655497	0	0
2024-05-30 14:28:32			0	35706	0	0	0	23194	21800	140120	27322	996387	40748	108545	0	0	8188	656159	0	0
2024-05-30 14:29:32			0	35697	0	0	0	23205	21810	140088	27154	996350	40748	108549	0	0	8188	656520	0	0
2024-05-30 14:30:32			0	35696	0	0	0	23207	21810	140212	27190	996412	40749	108550	0	0	8188	656564	0	0
2024-05-30 14:31:32			0	35692	0	0	0	23194	21810	140308	27334	996430	40759	108545	0	0	8188	656740	0	0
2024-05-30 14:32:32			0	35667	0	0	0	23202	21810	140380	27559	996412	40749	108548	0	0	8186	657845	0	0
2024-05-30 14:33:32			0	35646	0	0	0	23212	21810	140324	27345	996457	40748	108552	0	0	8185	658775	0	0
2024-05-30 14:34:32			0	35649	0	0	0	23233	21810	140420	27197	996438	40749	108560	0	0	8185	658642	0	0
2024-05-30 14:35:32			0	35662	0	0	0	23212	21810	140192	27348	996457	40748	108552	0	0	8186	658066	0	0
2024-05-30 14:36:32			0	35711	0	0	0	23194	21820	140196	27116	996447	40728	108545	0	0	8189	655865	0	0
2024-05-30 14:37:32			0	35720	0	0	0	23225	21810	140076	27279	996438	40749	108557	0	0	8189	655504	0	0
2024-05-30 14:38:32			0	35738	0	0	0	23202	21820	139988	27222	996455	40750	108548	0	0	8190	654674	0	0
2024-05-30 14:39:32			0	35748	0	0	0	23205	21820	139964	27097	996447	40750	108549	0	0	8191	654233	0	0
2024-05-30 14:40:32			0	35736	0	0	0	23215	21810	139892	27235	996465	40738	108553	0	0	8190	654799	0	0
2024-05-30 14:41:32			0	35731	0	0	0	23186	21820	140032	27171	996474	40739	108542	0	0	8190	654983	0	0
2024-05-30 14:42:32			0	35709	0	0	0	23194	21810	140028	27296	996465	40738	108545	0	0	8189	655990	0	0
2024-05-30 14:43:32			0	35694	0	0	0	23251	21810	140200	27267	996465	40749	108567	0	0	8187	656652	0	0
2024-05-30 14:44:32			0	35674	0	0	0	23264	21820	140308	26977	996509	40760	108572	0	0	8186	657499	0	0
2024-05-30 14:45:32			0	35632	0	0	0	23259	21840	140268	26930	996561	40751	108570	0	0	8183	659284	0	0
2024-05-30 14:46:32			0	35641	0	0	0	23257	21840	140360	27334	996614	40751	108569	0	0	8184	658886	0	0
2024-05-30 14:47:32			0	35655	0	0	0	23241	21840	140364	27048	996508	40751	108563	0	0	8185	658266	0	0
2024-05-30 14:48:32			0	35625	0	0	0	23218	21840	140448	27412	996614	40762	108554	0	0	8184	659594	0	0
2024-05-30 14:49:32			0	35615	0	0	0	23197	21830	140480	27121	996552	40750	108546	0	0	8184	660074	0	0
2024-05-30 14:50:32			0	35603	0	0	0	23186	21830	140520	27170	996499	40750	108542	0	0	8183	660607	0	0
2024-05-30 14:51:32			0	35604	0	0	0	23184	21820	140496	26939	996482	40739	108541	0	0	8183	660599	0	0
2024-05-30 14:52:32			0	35594	0	0	0	23186	21830	140480	27071	996411	40750	108542	0	0	8183	661006	0	0
2024-05-30 14:53:32			0	35596	0	0	0	23176	21820	140512	27286	996455	40750	108538	0	0	8183	660954	0	0
2024-05-30 14:54:32			0	35596	0	0	0	23205	21820	140544	27088	996420	40728	108549	0	0	8182	660954	0	0
2024-05-30 14:55:32			0	35580	0	0	0	23212	21830	140484	27104	996411	40740	108552	0	0	8181	661627	0	0
2024-05-30 14:56:32			0	35583	0	0	0	23184	21820	140632	27246	996455	40750	108541	0	0	8182	661531	0	0
2024-05-30 14:57:32			0	35598	0	0	0	23192	21810	140584	27360	996545	40738	108544	0	0	8183	660902	0	0
2024-05-30 14:58:32			0	35591	0	0	0	23202	21810	140524	27355	996430	40737	108548	0	0	8182	661213	0	0
2024-05-30 14:59:32			0	35568	0	0	0	23220	21810	140564	27239	996518	40738	108555	0	0	8181	662234	0	0
2024-05-30 15:00:32			0	35581	0	0	0	23228	21820	140592	27244	996527	40750	108558	0	0	8181	661620	0	0
2024-05-30 15:01:32			0	35553	0	0	0	23223	21820	140660	26993	996527	40739	108556	0	0	8180	662864	0	0
2024-05-30 15:02:32			0	35567	0	0	0	23236	21820	140680	27045	996527	40750	108561	0	0	8180	662242	0	0
2024-05-30 15:03:32			0	35549	0	0	0	23298	21830	140736	27095	996632	40761	108585	0	0	8178	663005	0	0
2024-05-30 15:04:32			0	35523	0	0	0	23296	21830	140848	27213	996659	40761	108584	0	0	8177	664162	0	0
2024-05-30 15:05:32			0	35549	0	0	0	23275	21840	140704	27585	996702	40762	108576	0	0	8179	662968	0	0
2024-05-30 15:06:32			0	35569	0	0	0	23262	21850	140620	27263	996666	40752	108571	0	0	8180	662042	0	0
2024-05-30 15:07:32			0	35598	0	0	0	23277	21850	140500	27131	996711	40763	108577	0	0	8181	660755	0	0
2024-05-30 15:08:32			0	35643	0	0	0	23270	21850	140396	27100	996693	40774	108574	0	0	8184	658761	0	0
2024-05-30 15:09:32			0	35650	0	0	0	23277	21850	140336	27261	996684	40742	108577	0	0	8184	658451	0	0
2024-05-30 15:10:32			0	35714	0	0	0	23280	21850	140068	27074	996746	40763	108578	0	0	8188	655623	0	0
2024-05-30 15:11:32			0	35744	0	0	0	23283	21870	140008	27388	996745	40776	108579	0	0	8189	654228	0	0
2024-05-30 15:12:32			0	35734	0	0	0	23293	21850	139972	27436	996693	40763	108583	0	0	8188	654741	0	0
2024-05-30 15:13:32			0	35737	0	0	0	23290	21860	140020	27364	996808	40775	108582	0	0	8189	654572	0	0
2024-05-30 15:14:32			0	35711	0	0	0	23293	21860	139988	27369	996781	40764	108583	0	0	8187	655719	0	0
2024-05-30 15:15:32			0	35714	0	0	0	23298	21880	140196	27447	996788	40755	108585	0	0	8187	655513	0	0
2024-05-30 15:16:32			0	35710	0	0	0	23301	21870	140168	27225	996833	40743	108586	0	0	8187	655726	0	0
2024-05-30 15:17:32			0	35710	0	0	0	23311	21880	140176	27403	996841	40755	108590	0	0	8187	655690	0	0
2024-05-30 15:18:32			0	35694	0	0	0	23306	21890	140368	27059	996885	40767	108588	0	0	8186	656359	0	0
2024-05-30 15:19:32			0	35672	0	0	0	23314	21880	140312	27301	996903	40767	108591	0	0	8185	657368	0	0
2024-05-30 15:20:32			0	35657	0	0	0	23314	21880	140428	27088	996823	40755	108591	0	0	8184	658031	0	0
2024-05-30 15:21:32			0	35642	0	0	0	23314	21890	140372	27279	996840	40767	108591	0	0	8183	658658	0	0
2024-05-30 15:22:32			0	35642	0	0	0	23316	21900	140396	27374	996875	40768	108592	0	0	8183	658621	0	0
2024-05-30 15:23:32			0	35667	0	0	0	23322	21900	140268	27383	996928	40756	108594	0	0	8185	657516	0	0
2024-05-30 15:24:32			0	35676	0	0	0	23322	21900	140220	27505	996982	40768	108594	0	0	8185	657118	0	0
2024-05-30 15:25:32			0	35704	0	0	0	23332	21900	140096	27173	996928	40768	108598	0	0	8186	655882	0	0
2024-05-30 15:26:32			0	35740	0	0	0	23332	21910	140044	27118	996945	40757	108598	0	0	8188	654258	0	0
2024-05-30 15:27:32			0	35729	0	0	0	23337	21910	140024	27519	996954	40758	108600	0	0	8188	654743	0	0
2024-05-30 15:28:32			0	35705	0	0	0	23327	21910	140052	27531	996945	40768	108596	0	0	8187	655801	0	0
2024-05-30 15:29:32			0	35723	0	0	0	23332	21910	140076	27327	996980	40769	108598	0	0	8187	655007	0	0
2024-05-30 15:30:32			0	35728	0	0	0	23335	21920	140020	27291	997015	40769	108599	0	0	8188	654750	0	0
2024-05-30 15:31:32			0	35744	0	0	0	23350	21920	140008	27488	997050	40770	108605	0	0	8188	654045	0	0
2024-05-30 15:32:32			0	35703	0	0	0	23342	21930	140052	27561	997032	40771	108602	0	0	8186	655816	0	0
2024-05-30 15:33:32			0	35701	0	0	0	23358	21940	140216	27419	997156	40760	108608	0	0	8186	655868	0	0
2024-05-30 15:34:32			0	35714	0	0	0	23348	21930	140216	27007	997067	40771	108604	0	0	8187	655331	0	0
2024-05-30 15:35:32			0	35698	0	0	0	23355	21930	140112	27171	997041	40771	108607	0	0	8186	656036	0	0
2024-05-30 15:36:32			0	35702	0	0	0	23353	21940	140212	27222	997076	40760	108606	0	0	8186	655824	0	0
2024-05-30 15:37:32			0	35701	0	0	0	23350	21940	140136	27383	997111	40761	108605	0	0	8186	655868	0	0
2024-05-30 15:38:32			0	35677	0	0	0	23363	21940	140184	27381	997049	40771	108610	0	0	8185	656927	0	0
2024-05-30 15:39:32			0	35654	0	0	0	23384	21940	140232	27215	997111	40783	108618	0	0	8183	657944	0	0
2024-05-30 15:40:32			0	35653	0	0	0	23405	21940	140460	27656	997182	40771	108626	0	0	8183	657988	0	0
2024-05-30 15:41:32			0	35625	0	0	0	23379	21950	140464	27126	997172	40784	108616	0	0	8182	659190	0	0
2024-05-30 15:42:32			0	35633	0	0	0	23379	21960	140416	27313	997163	40762	108616	0	0	8182	658799	0	0
2024-05-30 15:43:32			0	35654	0	0	0	23371	21960	140388	27277	997163	40773	108613	0	0	8183	657870	0	0
2024-05-30 15:44:32			0	35655	0	0	0	23371	21960	140368	27017	997225	40774	108613	0	0	8183	657826	0	0
2024-05-30 15:45:32			0	35661	0	0	0	23384	21960	140300	27256	997172	40763	108618	0	0	8183	657561	0	0
2024-05-30 15:46:32			0	35685	0	0	0	23392	21960	140152	27123	997243	40773	108621	0	0	8185	656501	0	0
2024-05-30 15:47:32			0	35714	0	0	0	23389	21960	140132	27239	997216	40762	108620	0	0	8186	655221	0	0
2024-05-30 15:48:32			0	35704	0	0	0	23402	21970	140084	27072	997260	40775	108625	0	0	8185	655626	0	0
2024-05-30 15:49:32			0	35725	0	0	0	23381	21970	139976	27114	997260	40775	108617	0	0	8187	654700	0	0
2024-05-30 15:50:32			0	35740	0	0	0	23394	21960	140040	27400	997172	40774	108622	0	0	8188	654075	0	0
2024-05-30 15:51:32			0	35753	0	0	0	23394	21980	139852	27396	997277	40752	108622	0	0	8188	653431	0	0
2024-05-30 15:52:32			0	35781	0	0	0	23397	21970	139788	27097	997233	40775	108623	0	0	8190	652236	0	0
2024-05-30 15:53:32			0	35804	0	0	0	23399	21980	139768	27398	997250	40775	108624	0	0	8191	651189	0	0
2024-05-30 15:54:32			0	35789	0	0	0	23386	21970	139692	27663	997295	40775	108619	0	0	8190	651884	0	0
2024-05-30 15:55:32			0	35802	0	0	0	23384	21970	139616	27241	997233	40786	108618	0	0	8191	651313	0	0
2024-05-30 15:56:32			0	35813	0	0	0	23379	21980	139628	27450	997223	40775	108616	0	0	8192	650794	0	0
2024-05-30 15:57:32			0	35825	0	0	0	23397	21980	139656	27201	997232	40753	108623	0	0	8192	650268	0	0
2024-05-30 15:58:32			0	35791	0	0	0	23399	21970	139664	27379	997242	40775	108624	0	0	8190	651796	0	0
2024-05-30 15:59:32			0	35795	0	0	0	23384	21960	139836	27459	997225	40774	108618	0	0	8191	651657	0	0
2024-05-30 16:00:32			0	35788	0	0	0	23392	21970	139720	27474	997268	40775	108621	0	0	8190	651928	0	0
2024-05-30 16:01:32			0	35791	0	0	0	23412	21990	139788	27473	997294	40776	108629	0	0	8190	651724	0	0
2024-05-30 16:02:32			0	35812	0	0	0	23399	21980	139684	27343	997303	40775	108624	0	0	8191	650838	0	0
2024-05-30 16:03:32			0	35796	0	0	0	23392	21980	139664	27131	997285	40797	108621	0	0	8191	651540	0	0
2024-05-30 16:04:32			0	35826	0	0	0	23389	21990	139488	27467	997294	40788	108620	0	0	8192	650188	0	0
2024-05-30 16:05:32			0	35863	0	0	0	23399	21990	139512	27372	997320	40776	108624	0	0	8194	648567	0	0
2024-05-30 16:06:32			0	35859	0	0	0	23418	21990	139473	27138	997294	40765	108631	0	0	8194	648742	0	0
2024-05-30 16:07:32			0	35869	0	0	0	23397	21990	139477	27521	997329	40766	108623	0	0	8195	648305	0	0
2024-05-30 16:08:32			0	35869	0	0	0	23433	21990	139572	27459	997347	40776	108637	0	0	8194	648305	0	0
2024-05-30 16:09:32			0	35838	0	0	0	23433	22000	139492	27360	997444	40789	108637	0	0	8192	649626	0	0
2024-05-30 16:10:32			0	35862	0	0	0	23438	22010	139541	27346	997452	40777	108639	0	0	8194	648539	0	0
2024-05-30 16:11:32			0	35856	0	0	0	23405	22010	139468	27307	997399	40777	108626	0	0	8194	648801	0	0
2024-05-30 16:12:32			0	35853	0	0	0	23407	22000	139476	27142	997444	40777	108627	0	0	8194	648969	0	0
2024-05-30 16:13:32			0	35858	0	0	0	23407	22000	139529	27327	997364	40789	108627	0	0	8194	648750	0	0
2024-05-30 16:14:32			0	35846	0	0	0	23402	22010	139524	27409	997381	40767	108625	0	0	8193	649239	0	0
2024-05-30 16:15:32			0	35843	0	0	0	23418	22000	139548	27303	997390	40777	108631	0	0	8193	649407	0	0
2024-05-30 16:16:32			0	35829	0	0	0	23438	22020	139616	27241	997389	40779	108639	0	0	8192	649948	0	0
2024-05-30 16:17:32			0	35825	0	0	0	23425	22010	139620	27398	997434	40790	108634	0	0	8192	650159	0	0
2024-05-30 16:18:32			0	35832	0	0	0	23418	22010	139604	27410	997479	40799	108631	0	0	8192	649852	0	0
2024-05-30 16:19:32			0	35839	0	0	0	23397	22010	139656	27222	997346	40777	108623	0	0	8193	649546	0	0
2024-05-30 16:20:32			0	35821	0	0	0	23412	22020	139676	27578	997416	40779	108629	0	0	8192	650298	0	0
2024-05-30 16:21:32			0	35809	0	0	0	23418	22010	139668	27500	997487	40767	108631	0	0	8191	650861	0	0
2024-05-30 16:22:32			0	35815	0	0	0	23431	22020	139772	27488	997389	40790	108636	0	0	8191	650562	0	0
2024-05-30 16:23:32			0	35805	0	0	0	23425	22010	139744	27500	997381	40790	108634	0	0	8191	651036	0	0
2024-05-30 16:24:32			0	35776	0	0	0	23423	22020	139820	27454	997442	40768	108633	0	0	8189	652274	0	0
2024-05-30 16:25:32			0	35772	0	0	0	23410	22020	139788	27438	997398	40779	108628	0	0	8189	652449	0	0
2024-05-30 16:26:32			0	35820	0	0	0	23394	22020	139688	27133	997416	40768	108622	0	0	8192	650342	0	0
2024-05-30 16:27:32			0	35825	0	0	0	23412	22010	139596	27488	997354	40778	108629	0	0	8192	650159	0	0
2024-05-30 16:28:32			0	35801	0	0	0	23410	22010	139652	27483	997381	40790	108628	0	0	8191	651212	0	0
2024-05-30 16:29:32			0	35805	0	0	0	23405	21990	139664	27459	997409	40777	108626	0	0	8191	651109	0	0
2024-05-30 16:30:32			0	35780	0	0	0	23399	21990	139696	27495	997355	40777	108624	0	0	8190	652207	0	0
2024-05-30 16:31:32			0	35789	0	0	0	23402	22010	139784	27218	997354	40778	108625	0	0	8190	651739	0	0
2024-05-30 16:32:32			0	35779	0	0	0	23423	22010	139796	27428	997381	40767	108633	0	0	8189	652178	0	0
2024-05-30 16:33:32			0	35785	0	0	0	23420	22010	139812	27381	997434	40778	108632	0	0	8190	651915	0	0
2024-05-30 16:34:32			0	35790	0	0	0	23420	22020	139768	27575	997389	40768	108632	0	0	8190	651659	0	0
2024-05-30 16:35:32			0	35801	0	0	0	23431	22020	139800	27557	997442	40768	108636	0	0	8190	651176	0	0
2024-05-30 16:36:32			0	35790	0	0	0	23459	22020	139780	27433	997504	40768	108647	0	0	8189	651659	0	0
2024-05-30 16:37:32			0	35803	0	0	0	23444	22020	139832	27601	997477	40779	108641	0	0	8190	651088	0	0
2024-05-30 16:38:32			0	35801	0	0	0	23462	22030	139736	27604	997548	40780	108648	0	0	8190	651139	0	0
2024-05-30 16:39:32			0	35793	0	0	0	23446	22030	139780	27666	997486	40790	108642	0	0	8190	651491	0	0
2024-05-30 16:40:32			0	35806	0	0	0	23428	22030	139744	27180	997468	40791	108635	0	0	8191	650920	0	0
2024-05-30 16:41:32			0	35796	0	0	0	23431	22030	139616	27474	997486	40790	108636	0	0	8190	651359	0	0
2024-05-30 16:42:32			0	35815	0	0	0	23436	22030	139660	27428	997548	40802	108638	0	0	8191	650525	0	0
2024-05-30 16:43:32			0	35813	0	0	0	23449	22030	139672	27187	997468	40791	108643	0	0	8191	650613	0	0
2024-05-30 16:44:32			0	35809	0	0	0	23467	22030	139688	27338	997468	40780	108650	0	0	8190	650788	0	0
2024-05-30 16:45:32			0	35829	0	0	0	23441	22030	139652	27289	997548	40791	108640	0	0	8192	649911	0	0
2024-05-30 16:46:32			0	35849	0	0	0	23436	22030	139564	27001	997521	40769	108638	0	0	8193	649035	0	0
2024-05-30 16:47:32			0	35841	0	0	0	23462	22030	139652	27227	997548	40791	108648	0	0	8192	649386	0	0
2024-05-30 16:48:32			0	35864	0	0	0	23485	22030	139537	27286	997548	40791	108657	0	0	8193	648379	0	0
2024-05-30 16:49:32			0	35842	0	0	0	23477	22040	139592	27168	997564	40791	108654	0	0	8192	649306	0	0
2024-05-30 16:50:32			0	35843	0	0	0	23464	22060	139592	27161	997643	40804	108649	0	0	8192	649189	0	0
2024-05-30 16:51:32			0	35839	0	0	0	23475	22050	139588	27414	997653	40791	108653	0	0	8192	649401	0	0
2024-05-30 16:52:32			0	35838	0	0	0	23475	22040	139496	27384	997564	40781	108653	0	0	8192	649481	0	0
2024-05-30 16:53:32			0	35829	0	0	0	23464	22050	139532	27563	997600	40781	108649	0	0	8192	649839	0	0
2024-05-30 16:54:32			0	35835	0	0	0	23464	22050	139520	27329	997608	40782	108649	0	0	8192	649576	0	0
2024-05-30 16:55:32			0	35837	0	0	0	23459	22050	139460	27360	997600	40770	108647	0	0	8192	649488	0	0
2024-05-30 16:56:32			0	35829	0	0	0	23454	22060	139540	27251	997652	40794	108645	0	0	8192	649803	0	0
2024-05-30 16:57:32			0	35846	0	0	0	23454	22050	139508	27414	997573	40791	108645	0	0	8193	649094	0	0
2024-05-30 16:58:32			0	35851	0	0	0	23464	22060	139504	27336	997590	40793	108649	0	0	8193	648839	0	0
2024-05-30 16:59:32			0	35859	0	0	0	23462	22050	139540	27521	997608	40782	108648	0	0	8193	648525	0	0
2024-05-30 17:00:32			0	35875	0	0	0	23467	22050	139485	26994	997679	40791	108650	0	0	8194	647825	0	0
2024-05-30 17:01:32			0	35858	0	0	0	23454	22060	139465	27260	997590	40771	108645	0	0	8193	648533	0	0
2024-05-30 17:02:32			0	35858	0	0	0	23444	22050	139512	27331	997581	40792	108641	0	0	8193	648569	0	0
2024-05-30 17:03:32			0	35854	0	0	0	23444	22050	139464	27149	997608	40782	108641	0	0	8193	648744	0	0
2024-05-30 17:04:32			0	35886	0	0	0	23438	22050	139389	27498	997493	40781	108639	0	0	8195	647344	0	0
2024-05-30 17:05:32			0	35853	0	0	0	23433	22040	139404	27287	997485	40791	108637	0	0	8193	648824	0	0
2024-05-30 17:06:32			0	35830	0	0	0	23433	22050	139600	27410	997493	40770	108637	0	0	8192	649795	0	0
2024-05-30 17:07:32			0	35801	0	0	0	23431	22030	139624	27611	997521	40769	108636	0	0	8190	651139	0	0
2024-05-30 17:08:32			0	35793	0	0	0	23436	22040	139804	27294	997485	40770	108638	0	0	8190	651454	0	0
2024-05-30 17:09:32			0	35761	0	0	0	23441	22030	139836	27379	997494	40780	108640	0	0	8188	652896	0	0
2024-05-30 17:10:32			0	35751	0	0	0	23444	22040	139884	27464	997529	40791	108641	0	0	8188	653300	0	0
2024-05-30 17:11:32			0	35765	0	0	0	23446	22040	139848	27324	997564	40791	108642	0	0	8188	652684	0	0
2024-05-30 17:12:32			0	35756	0	0	0	23441	22030	139820	27111	997521	40791	108640	0	0	8188	653116	0	0
2024-05-30 17:13:32			0	35771	0	0	0	23431	22040	139792	27001	997538	40781	108636	0	0	8189	652420	0	0
2024-05-30 17:14:32			0	35764	0	0	0	23428	22040	139740	27369	997529	40791	108635	0	0	8189	652728	0	0
2024-05-30 17:15:32			0	35780	0	0	0	23441	22040	139700	27414	997583	40802	108640	0	0	8189	652025	0	0
2024-05-30 17:16:32			0	35775	0	0	0	23433	22030	139732	27326	997521	40802	108637	0	0	8189	652281	0	0
2024-05-30 17:17:32			0	35795	0	0	0	23431	22040	139736	27364	997511	40781	108636	0	0	8190	651366	0	0
2024-05-30 17:18:32			0	35788	0	0	0	23431	22030	139692	27559	997521	40791	108636	0	0	8190	651710	0	0
2024-05-30 17:19:32			0	35776	0	0	0	23428	22030	139672	27260	997468	40791	108635	0	0	8189	652237	0	0
2024-05-30 17:20:32			0	35786	0	0	0	23438	22020	139712	27561	997451	40790	108639	0	0	8190	651834	0	0
2024-05-30 17:21:32			0	35759	0	0	0	23425	22040	139716	27350	997503	40791	108634	0	0	8188	652948	0	0
2024-05-30 17:22:32			0	35788	0	0	0	23431	22030	139700	27213	997441	40791	108636	0	0	8190	651710	0	0
2024-05-30 17:23:32			0	35770	0	0	0	23425	22030	139696	27543	997468	40769	108634	0	0	8189	652501	0	0
2024-05-30 17:24:32			0	35781	0	0	0	23431	22030	139780	27498	997512	40779	108636	0	0	8189	652018	0	0
2024-05-30 17:25:32			0	35770	0	0	0	23420	22040	139716	27229	997485	40791	108632	0	0	8189	652464	0	0
2024-05-30 17:26:32			0	35783	0	0	0	23436	22030	139692	27248	997459	40801	108638	0	0	8189	651930	0	0
2024-05-30 17:27:32			0	35772	0	0	0	23433	22040	139656	27431	997503	40791	108637	0	0	8189	652377	0	0
2024-05-30 17:28:32			0	35780	0	0	0	23428	22030	139740	27242	997521	40791	108635	0	0	8189	652062	0	0
2024-05-30 17:29:32			0	35764	0	0	0	23428	22020	139776	27353	997451	40790	108635	0	0	8189	652801	0	0
2024-05-30 17:30:32			0	35764	0	0	0	23428	22030	139792	27348	997494	40791	108635	0	0	8189	652765	0	0
2024-05-30 17:31:32			0	35750	0	0	0	23423	22030	139740	27138	997433	40779	108633	0	0	8188	653380	0	0
2024-05-30 17:32:32			0	35736	0	0	0	23423	22020	139776	27239	997424	40790	108633	0	0	8187	654033	0	0
2024-05-30 17:33:32			0	35751	0	0	0	23423	22030	139720	27055	997521	40791	108633	0	0	8188	653336	0	0
2024-05-30 17:34:32			0	35766	0	0	0	23420	22030	139932	27171	997414	40780	108632	0	0	8189	652677	0	0
2024-05-30 17:35:32			0	35765	0	0	0	23420	22020	139928	27530	997477	40790	108632	0	0	8189	652757	0	0
2024-05-30 17:36:32			0	35758	0	0	0	23420	22030	139800	27495	997486	40779	108632	0	0	8188	653028	0	0
2024-05-30 17:37:32			0	35749	0	0	0	23418	22020	139848	27306	997504	40790	108631	0	0	8188	653461	0	0
2024-05-30 17:38:32			0	35757	0	0	0	23420	22020	139840	27350	997496	40779	108632	0	0	8188	653109	0	0
2024-05-30 17:39:32			0	35738	0	0	0	23418	22020	139852	27480	997469	40779	108631	0	0	8187	653945	0	0
2024-05-30 17:40:32			0	35714	0	0	0	23420	22020	139844	27486	997504	40779	108632	0	0	8186	655002	0	0
2024-05-30 17:41:32			0	35739	0	0	0	23425	22020	139884	27274	997398	40790	108634	0	0	8187	653901	0	0
2024-05-30 17:42:32			0	35715	0	0	0	23425	22020	139948	27346	997496	40779	108634	0	0	8186	654958	0	0
2024-05-30 17:43:32			0	35733	0	0	0	23438	22020	139968	27512	997477	40790	108639	0	0	8187	654165	0	0
2024-05-30 17:44:32			0	35731	0	0	0	23425	22020	139940	27412	997504	40790	108634	0	0	8187	654253	0	0
2024-05-30 17:45:32			0	35716	0	0	0	23418	22030	139916	27376	997459	40779	108631	0	0	8186	654877	0	0
2024-05-30 17:46:32			0	35722	0	0	0	23425	22020	139872	27315	997451	40779	108634	0	0	8186	654650	0	0
2024-05-30 17:47:32			0	35710	0	0	0	23420	22030	139972	27227	997486	40779	108632	0	0	8186	655142	0	0
2024-05-30 17:48:32			0	35709	0	0	0	23431	22010	140004	27443	997487	40778	108636	0	0	8185	655259	0	0
2024-05-30 17:49:32			0	35706	0	0	0	23420	22020	140060	27474	997496	40779	108632	0	0	8186	655355	0	0
2024-05-30 17:50:32			0	35693	0	0	0	23412	22020	140092	27698	997477	40790	108629	0	0	8185	655928	0	0
2024-05-30 17:51:32			0	35685	0	0	0	23423	22020	140100	27277	997416	40779	108633	0	0	8184	656281	0	0
2024-05-30 17:52:32			0	35702	0	0	0	23420	22010	140076	27462	997407	40790	108632	0	0	8185	655568	0	0
2024-05-30 17:53:32			0	35686	0	0	0	23425	22030	140044	27196	997459	40768	108634	0	0	8184	656200	0	0
2024-05-30 17:54:32			0	35668	0	0	0	23423	22020	140144	27388	997416	40790	108633	0	0	8183	657032	0	0
2024-05-30 17:55:32			0	35664	0	0	0	23412	22020	140176	27320	997469	40790	108629	0	0	8183	657208	0	0
2024-05-30 17:56:32			0	35669	0	0	0	23423	22020	140140	27464	997477	40801	108633	0	0	8183	656988	0	0
2024-05-30 17:57:32			0	35674	0	0	0	23423	22030	140072	27287	997512	40790	108633	0	0	8184	656730	0	0
2024-05-30 17:58:32			0	35688	0	0	0	23425	22020	140040	27372	997451	40790	108634	0	0	8184	656149	0	0
2024-05-30 17:59:32			0	35694	0	0	0	23420	22020	140000	27119	997451	40790	108632	0	0	8185	655884	0	0
2024-05-30 18:00:32			0	35700	0	0	0	23418	22020	139996	27281	997496	40779	108631	0	0	8185	655619	0	0
2024-05-30 18:01:32			0	35717	0	0	0	23418	22010	139932	27602	997487	40800	108631	0	0	8186	654906	0	0
2024-05-30 18:02:32			0	35710	0	0	0	23418	22020	140028	27303	997451	40790	108631	0	0	8186	655178	0	0
2024-05-30 18:03:32			0	35704	0	0	0	23423	22010	139920	27270	997461	40778	108633	0	0	8185	655480	0	0
2024-05-30 18:04:32			0	35732	0	0	0	23428	22020	139900	27377	997451	40779	108635	0	0	8187	654209	0	0
2024-05-30 18:05:32			0	35757	0	0	0	23412	22020	139876	27237	997477	40790	108629	0	0	8188	653109	0	0
2024-05-30 18:06:32			0	35737	0	0	0	23425	22020	139900	27161	997469	40779	108634	0	0	8187	653989	0	0
2024-05-30 18:07:32			0	35737	0	0	0	23423	22020	139884	27353	997469	40790	108633	0	0	8187	653989	0	0
2024-05-30 18:08:32			0	35755	0	0	0	23418	22020	139892	27322	997416	40790	108631	0	0	8188	653197	0	0
2024-05-30 18:09:32			0	35751	0	0	0	23423	22020	139864	27306	997522	40790	108633	0	0	8188	653373	0	0
2024-05-30 18:10:32			0	35747	0	0	0	23423	22010	139920	27215	997487	40790	108633	0	0	8188	653585	0	0
2024-05-30 18:11:32			0	35760	0	0	0	23423	22020	139828	27307	997451	40790	108633	0	0	8188	652977	0	0
2024-05-30 18:12:32			0	35765	0	0	0	23412	22010	139796	27123	997452	40789	108629	0	0	8189	652793	0	0
2024-05-30 18:13:32			0	35770	0	0	0	23415	22020	139832	27415	997398	40790	108630	0	0	8189	652537	0	0
2024-05-30 18:14:32			0	35754	0	0	0	23420	22020	139808	27119	997442	40768	108632	0	0	8188	653241	0	0
2024-05-30 18:15:32			0	35751	0	0	0	23415	22010	139844	27450	997461	40778	108630	0	0	8188	653409	0	0
2024-05-30 18:16:32			0	35767	0	0	0	23415	22020	139820	27239	997496	40779	108630	0	0	8189	652669	0	0
2024-05-30 18:17:32			0	35765	0	0	0	23415	22020	139900	27339	997469	40790	108630	0	0	8189	652757	0	0
2024-05-30 18:18:32			0	35757	0	0	0	23410	22020	139980	26935	997469	40779	108628	0	0	8188	653109	0	0
2024-05-30 18:19:32			0	35750	0	0	0	23420	22010	139920	27417	997434	40790	108632	0	0	8188	653453	0	0
2024-05-30 18:20:32			0	35725	0	0	0	23415	22020	139948	27258	997424	40790	108630	0	0	8187	654517	0	0
2024-05-30 18:21:32			0	35734	0	0	0	23410	22010	139920	27107	997434	40800	108628	0	0	8187	654157	0	0
2024-05-30 18:22:32			0	35753	0	0	0	23410	22010	139928	27209	997399	40789	108628	0	0	8188	653321	0	0
2024-05-30 18:23:32			0	35728	0	0	0	23410	22010	139940	27284	997407	40778	108628	0	0	8187	654422	0	0
2024-05-30 18:24:32			0	35732	0	0	0	23399	22000	139916	27256	997390	40777	108624	0	0	8187	654282	0	0
2024-05-30 18:25:32			0	35735	0	0	0	23399	22010	139968	27460	997372	40789	108624	0	0	8187	654113	0	0
2024-05-30 18:26:32			0	35725	0	0	0	23407	22010	140008	27433	997372	40789	108627	0	0	8187	654554	0	0
2024-05-30 18:27:32			0	35736	0	0	0	23402	22010	139880	27457	997372	40789	108625	0	0	8187	654069	0	0
2024-05-30 18:28:32			0	35750	0	0	0	23399	22010	139832	27497	997407	40790	108624	0	0	8188	653453	0	0
2024-05-30 18:29:32			0	35757	0	0	0	23394	22010	139840	27428	997407	40790	108622	0	0	8189	653145	0	0
2024-05-30 18:30:32			0	35765	0	0	0	23405	21990	139840	27192	997409	40777	108626	0	0	8189	652866	0	0
2024-05-30 18:31:32			0	35737	0	0	0	23407	22000	139796	27422	997417	40766	108627	0	0	8187	654062	0	0
2024-05-30 18:32:32			0	35749	0	0	0	23407	22010	139792	27348	997399	40789	108627	0	0	8188	653497	0	0
2024-05-30 18:33:32			0	35742	0	0	0	23405	22010	139860	27286	997292	40777	108626	0	0	8188	653805	0	0
2024-05-30 18:34:32			0	35750	0	0	0	23397	22010	139928	27277	997434	40767	108623	0	0	8188	653453	0	0
2024-05-30 18:35:32			0	35735	0	0	0	23399	22010	140016	27391	997434	40778	108624	0	0	8187	654113	0	0
2024-05-30 18:36:32			0	35729	0	0	0	23397	22010	139984	27164	997399	40789	108623	0	0	8187	654378	0	0
2024-05-30 18:37:32			0	35715	0	0	0	23402	22010	140068	27140	997399	40789	108625	0	0	8186	654994	0	0
2024-05-30 18:38:32			0	35696	0	0	0	23407	21990	140092	27469	997347	40776	108627	0	0	8185	655906	0	0
2024-05-30 18:39:32			0	35711	0	0	0	23405	22010	140164	27048	997399	40799	108626	0	0	8186	655171	0	0
2024-05-30 18:40:32			0	35665	0	0	0	23399	22000	140204	27203	997364	40777	108624	0	0	8184	657238	0	0
2024-05-30 18:41:32			0	35645	0	0	0	23394	21990	140212	27090	997435	40777	108622	0	0	8183	658158	0	0
2024-05-30 18:42:32			0	35674	0	0	0	23394	21990	140224	27322	997382	40789	108622	0	0	8184	656877	0	0
2024-05-30 18:43:32			0	35660	0	0	0	23394	22010	140320	27206	997381	40778	108622	0	0	8183	657422	0	0
2024-05-30 18:44:32			0	35653	0	0	0	23394	21990	140228	27286	997355	40777	108622	0	0	8183	657805	0	0
2024-05-30 18:45:32			0	35628	0	0	0	23399	22000	140472	27112	997390	40777	108624	0	0	8182	658874	0	0
2024-05-30 18:46:32			0	35600	0	0	0	23407	22000	140528	27421	997444	40789	108627	0	0	8180	660114	0	0
2024-05-30 18:47:32			0	35561	0	0	0	23405	22000	140628	27144	997364	40777	108626	0	0	8178	661844	0	0
2024-05-30 18:48:32			0	35545	0	0	0	23418	22010	140828	27062	997399	40799	108631	0	0	8177	662518	0	0
2024-05-30 18:49:32			0	35519	0	0	0	23407	21990	140804	27332	997320	40776	108627	0	0	8176	663748	0	0
2024-05-30 18:50:32			0	35496	0	0	0	23405	22010	140896	27322	997399	40789	108626	0	0	8174	664699	0	0
2024-05-30 18:51:32			0	35495	0	0	0	23397	21990	140984	27241	997409	40766	108623	0	0	8174	664817	0	0
2024-05-30 18:52:32			0	35476	0	0	0	23402	22000	140996	27369	997390	40789	108625	0	0	8173	665627	0	0
2024-05-30 18:53:32			0	35467	0	0	0	23394	21990	140976	26984	997409	40789	108622	0	0	8173	666066	0	0
2024-05-30 18:54:32			0	35467	0	0	0	23399	21990	140932	27173	997400	40788	108624	0	0	8173	666066	0	0
2024-05-30 18:55:32			0	35484	0	0	0	23407	21990	140960	27568	997409	40789	108627	0	0	8174	665307	0	0
2024-05-30 18:56:32			0	35482	0	0	0	23402	22000	141024	27284	997417	40789	108625	0	0	8174	665360	0	0
2024-05-30 18:57:32			0	35469	0	0	0	23412	22010	140956	27180	997399	40789	108629	0	0	8173	665902	0	0
2024-05-30 18:58:32			0	35469	0	0	0	23418	22000	141048	27272	997444	40777	108631	0	0	8173	665939	0	0
2024-05-30 18:59:32			0	35463	0	0	0	23407	22000	140988	27352	997390	40799	108627	0	0	8173	666207	0	0
2024-05-30 19:00:32			0	35458	0	0	0	23399	22010	141016	26996	997425	40777	108624	0	0	8172	666393	0	0
2024-05-30 19:01:32			0	35481	0	0	0	23412	22010	141028	27287	997425	40777	108629	0	0	8173	665367	0	0
2024-05-30 19:02:32			0	35493	0	0	0	23410	22000	140928	27069	997470	40789	108628	0	0	8174	664869	0	0
2024-05-30 19:03:32			0	35511	0	0	0	23402	22000	140916	27433	997444	40789	108625	0	0	8175	664067	0	0
2024-05-30 19:04:32			0	35549	0	0	0	23394	21990	140804	27185	997409	40789	108622	0	0	8177	662414	0	0
2024-05-30 19:05:32			0	35545	0	0	0	23389	22000	140700	27069	997337	40789	108620	0	0	8177	662555	0	0
2024-05-30 19:06:32			0	35585	0	0	0	23379	21990	140544	27227	997320	40776	108616	0	0	8180	660816	0	0
2024-05-30 19:07:32			0	35588	0	0	0	23373	21990	140496	26824	997400	40788	108614	0	0	8180	660683	0	0
2024-05-30 19:08:32			0	35584	0	0	0	23376	21990	140564	27149	997400	40776	108615	0	0	8180	660860	0	0
2024-05-30 19:09:32			0	35591	0	0	0	23373	21990	140528	27436	997400	40788	108614	0	0	8180	660550	0	0
2024-05-30 19:10:32			0	35585	0	0	0	23373	21980	140524	27119	997338	40776	108614	0	0	8180	660853	0	0
2024-05-30 19:11:32			0	35600	0	0	0	23368	21990	140444	27140	997294	40765	108612	0	0	8181	660151	0	0
2024-05-30 19:12:32			0	35608	0	0	0	23376	21990	140448	27476	997294	40788	108615	0	0	8181	659796	0	0
2024-05-30 19:13:32			0	35624	0	0	0	23371	21980	140460	27185	997303	40796	108613	0	0	8182	659124	0	0
2024-05-30 19:14:32			0	35607	0	0	0	23361	21980	140464	27222	997338	40787	108609	0	0	8181	659878	0	0
2024-05-30 19:15:32			0	35629	0	0	0	23363	21980	140388	27180	997277	40775	108610	0	0	8182	658903	0	0
2024-05-30 19:16:32			0	35644	0	0	0	23366	21980	140360	27069	997250	40786	108611	0	0	8183	658239	0	0
2024-05-30 19:17:32			0	35621	0	0	0	23355	21970	140276	26949	997233	40763	108607	0	0	8182	659294	0	0
2024-05-30 19:18:32			0	35613	0	0	0	23353	21980	140312	26949	997250	40786	108606	0	0	8181	659612	0	0
2024-05-30 19:19:32			0	35599	0	0	0	23353	21970	140536	27118	997188	40786	108606	0	0	8181	660269	0	0
2024-05-30 19:20:32			0	35593	0	0	0	23345	21970	140552	27216	997162	40786	108603	0	0	8180	660535	0	0
2024-05-30 19:21:32			0	35599	0	0	0	23353	21960	140640	26906	997251	40763	108606	0	0	8181	660306	0	0
2024-05-30 19:22:32			0	35586	0	0	0	23358	21970	140520	27329	997242	40775	108608	0	0	8180	660845	0	0
2024-05-30 19:23:32			0	35539	0	0	0	23358	21960	140732	26996	997278	40774	108608	0	0	8177	662970	0	0
2024-05-30 19:24:32			0	35530	0	0	0	23368	21950	140740	26967	997235	40784	108612	0	0	8177	663407	0	0
2024-05-30 19:25:32			0	35494	0	0	0	23358	21970	140868	27128	997207	40786	108608	0	0	8175	664936	0	0
2024-05-30 19:26:32			0	35466	0	0	0	23355	21950	141028	27410	997199	40784	108607	0	0	8173	666259	0	0
2024-05-30 19:27:32			0	35456	0	0	0	23361	21960	140956	26942	997225	40774	108609	0	0	8173	666668	0	0
2024-05-30 19:28:32			0	35460	0	0	0	23345	21960	141020	27324	997225	40785	108603	0	0	8173	666489	0	0
2024-05-30 19:29:32			0	35464	0	0	0	23345	21950	141032	26844	997146	40750	108603	0	0	8173	666348	0	0
2024-05-30 19:30:32			0	35437	0	0	0	23329	21950	141072	27298	997181	40784	108597	0	0	8172	667554	0	0
2024-05-30 19:31:32			0	35423	0	0	0	23324	21960	141084	26981	997163	40784	108595	0	0	8172	668143	0	0
2024-05-30 19:32:32			0	35436	0	0	0	23327	21940	141064	27105	997137	40772	108596	0	0	8172	667636	0	0
2024-05-30 19:33:32			0	35434	0	0	0	23324	21950	141156	26974	997119	40773	108595	0	0	8172	667688	0	0
2024-05-30 19:34:32			0	35446	0	0	0	23332	21940	141164	27064	997129	40782	108598	0	0	8173	667189	0	0
2024-05-30 19:35:32			0	35434	0	0	0	23332	21940	141128	27131	997049	40793	108598	0	0	8172	667725	0	0
2024-05-30 19:36:32			0	35448	0	0	0	23342	21940	141112	27209	997156	40782	108602	0	0	8173	667100	0	0
2024-05-30 19:37:32			0	35430	0	0	0	23337	21950	141200	27166	997119	40773	108600	0	0	8172	667867	0	0
2024-05-30 19:38:32			0	35429	0	0	0	23340	21930	141160	26930	997112	40782	108601	0	0	8172	667986	0	0
2024-05-30 19:39:32			0	35427	0	0	0	23332	21940	141188	27126	997137	40772	108598	0	0	8172	668038	0	0
2024-05-30 19:40:32			0	35394	0	0	0	23329	21950	141264	27102	997172	40784	108597	0	0	8170	669478	0	0
2024-05-30 19:41:32			0	35367	0	0	0	23337	21940	141316	27090	997191	40783	108600	0	0	8168	670725	0	0
2024-05-30 19:42:32			0	35362	0	0	0	23332	21950	141416	27135	997208	40773	108598	0	0	8168	670912	0	0
2024-05-30 19:43:32			0	35354	0	0	0	23327	21940	141432	26909	997182	40782	108596	0	0	8168	671308	0	0
2024-05-30 19:44:32			0	35326	0	0	0	23322	21940	141592	27324	997129	40760	108594	0	0	8166	672566	0	0
2024-05-30 19:45:32			0	35312	0	0	0	23329	21930	141528	26899	997041	40771	108597	0	0	8165	673233	0	0
2024-05-30 19:46:32			0	35319	0	0	0	23324	21930	141540	27322	997121	40782	108595	0	0	8166	672918	0	0
2024-05-30 19:47:32			0	35317	0	0	0	23316	21920	141556	27504	997042	40781	108592	0	0	8166	673045	0	0
2024-05-30 19:48:32			0	35301	0	0	0	23316	21930	141644	27280	997041	40782	108592	0	0	8165	673727	0	0
2024-05-30 19:49:32			0	35310	0	0	0	23314	21930	141752	27071	997067	40782	108591	0	0	8166	673322	0	0
2024-05-30 19:50:32			0	35286	0	0	0	23322	21930	141636	27293	997059	40771	108594	0	0	8164	674403	0	0
2024-05-30 19:51:32			0	35272	0	0	0	23314	21910	141676	27161	997007	40781	108591	0	0	8163	675108	0	0
2024-05-30 19:52:32			0	35274	0	0	0	23309	21930	141816	26979	997112	40793	108589	0	0	8164	674943	0	0
2024-05-30 19:53:32			0	35268	0	0	0	23311	21920	141768	27279	997042	40791	108590	0	0	8163	675251	0	0
2024-05-30 19:54:32			0	35245	0	0	0	23311	21920	141728	27357	997050	40770	108590	0	0	8162	676288	0	0
2024-05-30 19:55:32			0	35259	0	0	0	23298	21910	141900	27185	997007	40781	108585	0	0	8163	675694	0	0
2024-05-30 19:56:32			0	35237	0	0	0	23298	21910	141876	27150	997007	40781	108585	0	0	8162	676687	0	0
2024-05-30 19:57:32			0	35230	0	0	0	23296	21920	141940	27144	996989	40781	108584	0	0	8161	676965	0	0
2024-05-30 19:58:32			0	35227	0	0	0	23288	21910	142032	27157	997025	40768	108581	0	0	8161	677139	0	0
2024-05-30 19:59:32			0	35208	0	0	0	23296	21910	142104	27019	997025	40780	108584	0	0	8160	677997	0	0
2024-05-30 20:00:32			0	35187	0	0	0	23290	21900	142156	27343	996990	40780	108582	0	0	8159	678985	0	0
2024-05-30 20:01:32			0	35189	0	0	0	23283	21900	142184	26859	996982	40779	108579	0	0	8159	678894	0	0
2024-05-30 20:02:32			0	35154	0	0	0	23283	21910	142244	27078	996972	40768	108579	0	0	8157	680442	0	0
2024-05-30 20:03:32			0	35160	0	0	0	23290	21900	142236	27232	996955	40779	108582	0	0	8158	680208	0	0
2024-05-30 20:04:32			0	35156	0	0	0	23288	21900	142156	26814	996884	40768	108581	0	0	8157	680389	0	0
2024-05-30 20:05:32			0	35147	0	0	0	23283	21890	142276	26986	996885	40778	108579	0	0	8157	680835	0	0
2024-05-30 20:06:32			0	35162	0	0	0	23288	21900	142256	27163	996902	40779	108581	0	0	8158	680117	0	0
2024-05-30 20:07:32			0	35144	0	0	0	23288	21890	142292	27222	996920	40778	108581	0	0	8157	680971	0	0
2024-05-30 20:08:32			0	35147	0	0	0	23272	21890	142360	27185	996885	40778	108575	0	0	8157	680835	0	0
2024-05-30 20:09:32			0	35147	0	0	0	23283	21890	142336	27034	996920	40778	108579	0	0	8157	680835	0	0
2024-05-30 20:10:32			0	35128	0	0	0	23272	21890	142384	27133	996858	40778	108575	0	0	8156	681697	0	0
2024-05-30 20:11:32			0	35111	0	0	0	23280	21900	142472	27329	996928	40779	108578	0	0	8155	682431	0	0
2024-05-30 20:12:32			0	35091	0	0	0	23280	21890	142527	26948	996911	40767	108578	0	0	8154	683378	0	0
2024-05-30 20:13:32			0	35073	0	0	0	23275	21890	142559	26982	996911	40767	108576	0	0	8153	684197	0	0
2024-05-30 20:14:32			0	35068	0	0	0	23283	21890	142647	27294	996947	40767	108579	0	0	8153	684425	0	0
2024-05-30 20:15:32			0	35038	0	0	0	23275	21880	142683	27253	996895	40777	108576	0	0	8151	685830	0	0
2024-05-30 20:16:32			0	35053	0	0	0	23272	21880	142711	26850	996841	40766	108575	0	0	8152	685146	0	0
2024-05-30 20:17:32			0	35034	0	0	0	23272	21880	142727	27248	996823	40767	108575	0	0	8151	686012	0	0
2024-05-30 20:18:32			0	35038	0	0	0	23267	21880	142827	27017	996823	40778	108573	0	0	8151	685830	0	0
2024-05-30 20:19:32			0	35023	0	0	0	23272	21880	142927	27121	996930	40778	108575	0	0	8150	686514	0	0
2024-05-30 20:20:32			0	35003	0	0	0	23267	21880	142907	27274	996868	40766	108573	0	0	8149	687427	0	0
2024-05-30 20:21:32			0	35000	0	0	0	23270	21870	142939	27396	996851	40765	108574	0	0	8149	687602	0	0
2024-05-30 20:22:32			0	34952	0	0	0	23259	21870	143071	27005	996860	40765	108570	0	0	8147	689798	0	0
2024-05-30 20:23:32			0	34933	0	0	0	23267	21870	143099	26935	996913	40776	108573	0	0	8145	690669	0	0
2024-05-30 20:24:32			0	34932	0	0	0	23270	21870	143179	27015	996886	40776	108574	0	0	8145	690715	0	0
2024-05-30 20:25:32			0	34886	0	0	0	23262	21870	143339	27197	996824	40765	108571	0	0	8143	692826	0	0
2024-05-30 20:26:32			0	34878	0	0	0	23262	21870	143363	27095	996878	40776	108571	0	0	8142	693194	0	0
2024-05-30 20:27:32			0	34894	0	0	0	23251	21870	143399	27170	996824	40787	108567	0	0	8144	692458	0	0
2024-05-30 20:28:32			0	34872	0	0	0	23254	21870	143447	27386	996798	40765	108568	0	0	8142	693469	0	0
2024-05-30 20:29:32			0	34871	0	0	0	23264	21860	143447	27189	996789	40765	108572	0	0	8142	693554	0	0
2024-05-30 20:30:32			0	34866	0	0	0	23246	21860	143483	27036	996843	40765	108565	0	0	8142	693784	0	0
2024-05-30 20:31:32			0	34860	0	0	0	23251	21860	143583	27253	996869	40787	108567	0	0	8142	694060	0	0
2024-05-30 20:32:32			0	34846	0	0	0	23262	21850	143531	27234	996844	40763	108571	0	0	8141	694743	0	0
2024-05-30 20:33:32			0	34822	0	0	0	23264	21850	143667	26908	996799	40763	108572	0	0	8139	695849	0	0
2024-05-30 20:34:32			0	34805	0	0	0	23257	21860	143727	27287	996861	40764	108569	0	0	8138	696594	0	0
2024-05-30 20:35:32			0	34815	0	0	0	23264	21870	143727	27260	996824	40776	108572	0	0	8139	696094	0	0
2024-05-30 20:36:32			0	34822	0	0	0	23264	21870	143599	27296	996878	40776	108572	0	0	8139	695771	0	0
2024-05-30 20:37:32			0	34832	0	0	0	23254	21860	143635	27199	996808	40775	108568	0	0	8140	695349	0	0
2024-05-30 20:38:32			0	34817	0	0	0	23251	21850	143591	27187	996791	40774	108567	0	0	8139	696079	0	0
2024-05-30 20:39:32			0	34804	0	0	0	23257	21860	143683	27265	996754	40764	108569	0	0	8138	696640	0	0
2024-05-30 20:40:32			0	34814	0	0	0	23257	21860	143715	27003	996808	40775	108569	0	0	8139	696179	0	0
2024-05-30 20:41:32			0	34824	0	0	0	23254	21860	143563	27395	996816	40765	108568	0	0	8140	695718	0	0
2024-05-30 20:42:32			0	34830	0	0	0	23244	21850	143631	27265	996746	40786	108564	0	0	8140	695480	0	0
2024-05-30 20:43:32			0	34817	0	0	0	23244	21860	143703	26972	996789	40776	108564	0	0	8139	696040	0	0
2024-05-30 20:44:32			0	34807	0	0	0	23251	21860	143719	27095	996736	40787	108567	0	0	8139	696502	0	0
2024-05-30 20:45:32			0	34796	0	0	0	23241	21840	143815	27228	996721	40785	108563	0	0	8138	697087	0	0
2024-05-30 20:46:32			0	34787	0	0	0	23251	21850	143855	26889	996737	40786	108567	0	0	8138	697464	0	0
2024-05-30 20:47:32			0	34783	0	0	0	23254	21840	143799	27010	996782	40785	108568	0	0	8137	697687	0	0
2024-05-30 20:48:32			0	34822	0	0	0	23257	21850	143743	26906	996826	40774	108569	0	0	8139	695849	0	0
2024-05-30 20:49:32			0	34789	0	0	0	23249	21860	143699	26930	996781	40787	108566	0	0	8138	697332	0	0
2024-05-30 20:50:32			0	34799	0	0	0	23246	21850	143683	26922	996799	40774	108565	0	0	8138	696910	0	0
2024-05-30 20:51:32			0	34805	0	0	0	23238	21850	143711	26937	996764	40774	108562	0	0	8139	696633	0	0
2024-05-30 20:52:32			0	34801	0	0	0	23246	21860	143679	26743	996728	40775	108565	0	0	8138	696779	0	0
2024-05-30 20:53:32			0	34800	0	0	0	23238	21860	143755	27086	996781	40775	108562	0	0	8139	696825	0	0
2024-05-30 20:54:32			0	34794	0	0	0	23241	21850	143775	27253	996791	40774	108563	0	0	8138	697141	0	0
2024-05-30 20:55:32			0	34816	0	0	0	23236	21850	143727	27407	996773	40774	108561	0	0	8139	696125	0	0
2024-05-30 20:56:32			0	34816	0	0	0	23231	21850	143715	27019	996711	40763	108559	0	0	8139	696125	0	0
2024-05-30 20:57:32			0	34822	0	0	0	23233	21850	143755	27178	996711	40763	108560	0	0	8140	695849	0	0
2024-05-30 20:58:32			0	34803	0	0	0	23241	21840	143791	27095	996667	40762	108563	0	0	8139	696764	0	0
2024-05-30 20:59:32			0	34801	0	0	0	23233	21850	143879	27005	996719	40774	108560	0	0	8139	696817	0	0
2024-05-30 21:00:32			0	34803	0	0	0	23254	21830	143799	27053	996659	40761	108568	0	0	8138	696803	0	0
2024-05-30 21:01:32			0	34805	0	0	0	23254	21840	143795	26897	996702	40762	108568	0	0	8138	696672	0	0
2024-05-30 21:02:32			0	34829	0	0	0	23246	21840	143727	27105	996774	40785	108565	0	0	8140	695565	0	0
2024-05-30 21:03:32			0	34849	0	0	0	23241	21840	143631	27107	996782	40751	108563	0	0	8141	694644	0	0
2024-05-30 21:04:32			0	34856	0	0	0	23241	21840	143515	27083	996836	40774	108563	0	0	8141	694321	0	0
2024-05-30 21:05:32			0	34890	0	0	0	23259	21840	143447	26911	996756	40762	108570	0	0	8143	692758	0	0
2024-05-30 21:06:32			0	34899	0	0	0	23262	21850	143439	27189	996764	40763	108571	0	0	8144	692306	0	0
2024-05-30 21:07:32			0	34947	0	0	0	23254	21850	143303	27319	996799	40774	108568	0	0	8146	690104	0	0
2024-05-30 21:08:32			0	34967	0	0	0	23244	21850	143091	27001	996746	40786	108564	0	0	8148	689188	0	0
2024-05-30 21:09:32			0	34998	0	0	0	23249	21850	143015	27095	996773	40774	108566	0	0	8149	687770	0	0
2024-05-30 21:10:32			0	35041	0	0	0	23254	21850	142875	27296	996791	40786	108568	0	0	8151	685808	0	0
2024-05-30 21:11:32			0	35092	0	0	0	23241	21850	142691	27177	996791	40763	108563	0	0	8154	683485	0	0
2024-05-30 21:12:32			0	35106	0	0	0	23251	21850	142595	27352	996791	40763	108567	0	0	8155	682848	0	0
2024-05-30 21:13:32			0	35122	0	0	0	23233	21850	142508	27377	996791	40763	108560	0	0	8156	682121	0	0
2024-05-30 21:14:32			0	35115	0	0	0	23233	21840	142372	27281	996729	40762	108560	0	0	8156	682477	0	0
2024-05-30 21:15:32			0	35131	0	0	0	23228	21850	142468	27223	996711	40774	108558	0	0	8157	681713	0	0
2024-05-30 21:16:32			0	35136	0	0	0	23238	21840	142472	27379	996702	40774	108562	0	0	8157	681524	0	0
2024-05-30 21:17:32			0	35149	0	0	0	23231	21840	142428	27197	996809	40774	108559	0	0	8158	680934	0	0
2024-05-30 21:18:32			0	35141	0	0	0	23231	21830	142464	27057	996686	40773	108559	0	0	8157	681335	0	0
2024-05-30 21:19:32			0	35151	0	0	0	23231	21840	142464	27369	996694	40774	108559	0	0	8158	680843	0	0
2024-05-30 21:20:32			0	35148	0	0	0	23244	21840	142472	27398	996774	40774	108564	0	0	8157	680979	0	0
2024-05-30 21:21:32			0	35154	0	0	0	23244	21830	142368	26972	996703	40761	108564	0	0	8158	680745	0	0
2024-05-30 21:22:32			0	35145	0	0	0	23228	21830	142424	27053	996703	40761	108558	0	0	8158	681153	0	0
2024-05-30 21:23:32			0	35165	0	0	0	23228	21830	142328	27015	996712	40773	108558	0	0	8159	680246	0	0
2024-05-30 21:24:32			0	35158	0	0	0	23236	21840	142292	27062	996694	40785	108561	0	0	8158	680526	0	0
2024-05-30 21:25:32			0	35190	0	0	0	23231	21840	142224	27412	996756	40774	108559	0	0	8160	679076	0	0
2024-05-30 21:26:32			0	35197	0	0	0	23225	21840	142288	27189	996747	40762	108557	0	0	8160	678759	0	0
2024-05-30 21:27:32			0	35205	0	0	0	23236	21830	142168	27331	996686	40773	108561	0	0	8161	678435	0	0
2024-05-30 21:28:32			0	35202	0	0	0	23254	21830	142172	27209	996739	40773	108568	0	0	8160	678571	0	0
2024-05-30 21:29:32			0	35227	0	0	0	23254	21840	142116	27001	996747	40762	108568	0	0	8162	677403	0	0
2024-05-30 21:30:32			0	35245	0	0	0	23259	21840	141980	27268	996756	40785	108570	0	0	8162	676590	0	0
2024-05-30 21:31:32			0	35289	0	0	0	23254	21840	141872	27201	996782	40774	108568	0	0	8165	674606	0	0
2024-05-30 21:32:32			0	35297	0	0	0	23262	21840	141784	27258	996756	40774	108571	0	0	8165	674245	0	0
2024-05-30 21:33:32			0	35330	0	0	0	23262	21840	141720	27249	996747	40762	108571	0	0	8167	672761	0	0
2024-05-30 21:34:32			0	35352	0	0	0	23251	21840	141588	27358	996756	40774	108567	0	0	8168	671772	0	0
2024-05-30 21:35:32			0	35360	0	0	0	23249	21840	141600	27175	996782	40774	108566	0	0	8169	671413	0	0
2024-05-30 21:36:32			0	35367	0	0	0	23257	21840	141472	27176	996729	40774	108569	0	0	8169	671099	0	0
2024-05-30 21:37:32			0	35364	0	0	0	23262	21850	141528	27111	996773	40763	108571	0	0	8169	671196	0	0
2024-05-30 21:38:32			0	35388	0	0	0	23270	21850	141460	27161	996817	40763	108574	0	0	8170	670120	0	0
2024-05-30 21:39:32			0	35405	0	0	0	23257	21860	141372	26965	996808	40787	108569	0	0	8171	669321	0	0
2024-05-30 21:40:32			0	35402	0	0	0	23280	21850	141328	27123	996799	40774	108578	0	0	8171	669492	0	0
2024-05-30 21:41:32			0	35429	0	0	0	23288	21860	141236	27526	996834	40775	108581	0	0	8172	668246	0	0
2024-05-30 21:42:32			0	35444	0	0	0	23283	21850	141276	27312	996906	40774	108579	0	0	8173	667613	0	0
2024-05-30 21:43:32			0	35454	0	0	0	23290	21870	141228	26972	996886	40787	108582	0	0	8173	667092	0	0
2024-05-30 21:44:32			0	35470	0	0	0	23290	21860	141216	27246	996914	40787	108582	0	0	8174	666414	0	0
2024-05-30 21:45:32			0	35471	0	0	0	23296	21860	141148	27227	996896	40787	108584	0	0	8174	666370	0	0
2024-05-30 21:46:32			0	35483	0	0	0	23298	21870	141152	27142	996958	40776	108585	0	0	8175	665797	0	0
2024-05-30 21:47:32			0	35501	0	0	0	23290	21870	141128	27332	996931	40776	108582	0	0	8176	664994	0	0
2024-05-30 21:48:32			0	35474	0	0	0	23290	21860	141120	27241	996843	40798	108582	0	0	8174	666236	0	0
2024-05-30 21:49:32			0	35490	0	0	0	23296	21870	141104	26955	996913	40765	108584	0	0	8175	665485	0	0
2024-05-30 21:50:32			0	35505	0	0	0	23301	21880	141128	27154	996921	40777	108586	0	0	8176	664779	0	0
2024-05-30 21:51:32			0	35488	0	0	0	23301	21890	141040	27203	996965	40767	108586	0	0	8175	665500	0	0
2024-05-30 21:52:32			0	35502	0	0	0	23296	21890	140968	26849	996911	40778	108584	0	0	8176	664876	0	0
2024-05-30 21:53:32			0	35508	0	0	0	23296	21890	141172	26809	996991	40789	108584	0	0	8176	664608	0	0
2024-05-30 21:54:32			0	35519	0	0	0	23301	21880	141104	27232	996983	40789	108586	0	0	8177	664155	0	0
2024-05-30 21:55:32			0	35529	0	0	0	23293	21890	141004	27504	996965	40778	108583	0	0	8178	663673	0	0
2024-05-30 21:56:32			0	35513	0	0	0	23298	21880	140980	26844	997010	40778	108585	0	0	8177	664423	0	0
2024-05-30 21:57:32			0	35539	0	0	0	23293	21890	140972	27033	996965	40789	108583	0	0	8178	663228	0	0
2024-05-30 21:58:32			0	35539	0	0	0	23298	21890	140936	27182	996973	40789	108585	0	0	8178	663228	0	0
2024-05-30 21:59:32			0	35541	0	0	0	23306	21900	140928	27190	996955	40779	108588	0	0	8178	663102	0	0
2024-05-30 22:00:32			0	35554	0	0	0	23290	21890	140940	27237	997026	40778	108582	0	0	8179	662561	0	0
2024-05-30 22:01:32			0	35557	0	0	0	23290	21890	140932	27093	996973	40778	108582	0	0	8179	662428	0	0
2024-05-30 22:02:32			0	35535	0	0	0	23290	21890	140808	27126	996991	40778	108582	0	0	8178	663406	0	0
2024-05-30 22:03:32			0	35558	0	0	0	23296	21890	140812	27517	996973	40778	108584	0	0	8179	662384	0	0
2024-05-30 22:04:32			0	35565	0	0	0	23309	21890	140792	27322	997018	40789	108589	0	0	8179	662073	0	0
2024-05-30 22:05:32			0	35582	0	0	0	23303	21890	140872	27251	996973	40789	108587	0	0	8180	661318	0	0
2024-05-30 22:06:32			0	35582	0	0	0	23293	21900	140788	27199	997017	40780	108583	0	0	8180	661281	0	0
2024-05-30 22:07:32			0	35576	0	0	0	23301	21890	140772	27111	996991	40778	108586	0	0	8180	661584	0	0
2024-05-30 22:08:32			0	35576	0	0	0	23296	21900	140680	26680	997008	40779	108584	0	0	8180	661547	0	0
2024-05-30 22:09:32			0	35588	0	0	0	23303	21890	140712	27182	997000	40767	108587	0	0	8181	661051	0	0
2024-05-30 22:10:32			0	35582	0	0	0	23288	21900	140740	27003	996982	40790	108581	0	0	8181	661281	0	0
2024-05-30 22:11:32			0	35594	0	0	0	23293	21890	140684	27107	996965	40767	108583	0	0	8181	660785	0	0
2024-05-30 22:12:32			0	35559	0	0	0	23296	21900	140764	27079	997008	40779	108584	0	0	8179	662302	0	0
2024-05-30 22:13:32			0	35576	0	0	0	23293	21890	140668	27066	996991	40789	108583	0	0	8180	661584	0	0
2024-05-30 22:14:32			0	35581	0	0	0	23301	21900	140728	27428	997035	40790	108586	0	0	8180	661325	0	0
2024-05-30 22:15:32			0	35589	0	0	0	23298	21900	140776	27286	997017	40780	108585	0	0	8181	660970	0	0
2024-05-30 22:16:32			0	35597	0	0	0	23303	21900	140692	27197	996982	40779	108587	0	0	8181	660615	0	0
2024-05-30 22:17:32			0	35590	0	0	0	23288	21900	140716	27312	996982	40790	108581	0	0	8181	660926	0	0
2024-05-30 22:18:32			0	35594	0	0	0	23301	21890	140736	27490	997000	40789	108586	0	0	8181	660785	0	0
2024-05-30 22:19:32			0	35581	0	0	0	23306	21900	140628	27367	996990	40780	108588	0	0	8180	661325	0	0
2024-05-30 22:20:32			0	35573	0	0	0	23290	21900	140660	27098	997043	40801	108582	0	0	8180	661680	0	0
2024-05-30 22:21:32			0	35598	0	0	0	23309	21890	140684	27201	997045	40778	108589	0	0	8181	660608	0	0
2024-05-30 22:22:32			0	35618	0	0	0	23306	21900	140620	27187	996955	40779	108588	0	0	8182	659684	0	0
2024-05-30 22:23:32			0	35615	0	0	0	23309	21890	140608	27310	997026	40767	108589	0	0	8182	659854	0	0
2024-05-30 22:24:32			0	35616	0	0	0	23303	21890	140600	27083	997080	40778	108587	0	0	8182	659810	0	0
2024-05-30 22:25:32			0	35635	0	0	0	23306	21900	140604	27005	997043	40780	108588	0	0	8183	658931	0	0
2024-05-30 22:26:32			0	35637	0	0	0	23303	21900	140464	27338	997008	40790	108587	0	0	8183	658843	0	0
2024-05-30 22:27:32			0	35662	0	0	0	23298	21900	140500	27398	997017	40791	108585	0	0	8185	657737	0	0
2024-05-30 22:28:32			0	35652	0	0	0	23306	21900	140484	27550	997061	40768	108588	0	0	8184	658179	0	0
2024-05-30 22:29:32			0	35638	0	0	0	23309	21890	140456	27232	996973	40778	108589	0	0	8183	658835	0	0
2024-05-30 22:30:32			0	35623	0	0	0	23298	21900	140588	27263	997008	40800	108585	0	0	8183	659463	0	0
2024-05-30 22:31:32			0	35631	0	0	0	23316	21890	140556	27159	997000	40789	108592	0	0	8183	659145	0	0
2024-05-30 22:32:32			0	35634	0	0	0	23316	21910	140488	27452	997025	40801	108592	0	0	8183	658939	0	0
2024-05-30 22:33:32			0	35644	0	0	0	23314	21910	140440	27248	997052	40791	108591	0	0	8183	658496	0	0
2024-05-30 22:34:32			0	35662	0	0	0	23303	21900	140460	27402	997070	40780	108587	0	0	8185	657737	0	0
2024-05-30 22:35:32			0	35680	0	0	0	23309	21900	140360	27483	997043	40780	108589	0	0	8185	656941	0	0
2024-05-30 22:36:32			0	35659	0	0	0	23301	21900	140356	27317	996990	40791	108586	0	0	8184	657869	0	0
2024-05-30 22:37:32			0	35671	0	0	0	23296	21910	140408	27315	997052	40791	108584	0	0	8185	657302	0	0
2024-05-30 22:38:32			0	35666	0	0	0	23311	21900	140360	27405	997035	40779	108590	0	0	8185	657560	0	0
2024-05-30 22:39:32			0	35681	0	0	0	23298	21900	140344	27338	996982	40779	108585	0	0	8186	656897	0	0
2024-05-30 22:40:32			0	35676	0	0	0	23309	21900	140380	27287	997043	40801	108589	0	0	8185	657118	0	0
2024-05-30 22:41:32			0	35694	0	0	0	23301	21910	140340	27239	997078	40791	108586	0	0	8186	656286	0	0
2024-05-30 22:42:32			0	35671	0	0	0	23296	21900	140344	27282	997008	40790	108584	0	0	8185	657339	0	0
2024-05-30 22:43:32			0	35675	0	0	0	23303	21900	140288	27116	996982	40779	108587	0	0	8185	657162	0	0
2024-05-30 22:44:32			0	35694	0	0	0	23298	21900	140300	27739	997017	40780	108585	0	0	8186	656323	0	0
2024-05-30 22:45:32			0	35682	0	0	0	23293	21910	140284	27170	996998	40780	108583	0	0	8186	656816	0	0
2024-05-30 22:46:32			0	35682	0	0	0	23298	21900	140476	27263	996990	40780	108585	0	0	8186	656853	0	0
2024-05-30 22:47:32			0	35690	0	0	0	23306	21900	140380	27202	996982	40779	108588	0	0	8186	656499	0	0
2024-05-30 22:48:32			0	35665	0	0	0	23309	21890	140400	27203	997053	40789	108589	0	0	8185	657641	0	0
2024-05-30 22:49:32			0	35678	0	0	0	23303	21880	140332	27372	997010	40778	108587	0	0	8185	657103	0	0
2024-05-30 22:50:32			0	35694	0	0	0	23309	21890	140348	27390	997053	40767	108589	0	0	8186	656359	0	0
2024-05-30 22:51:32			0	35731	0	0	0	23319	21900	140204	27208	997070	40791	108593	0	0	8188	654691	0	0
2024-05-30 22:52:32			0	35731	0	0	0	23316	21900	140280	27142	997043	40780	108592	0	0	8188	654691	0	0
2024-05-30 22:53:32			0	35749	0	0	0	23311	21900	140224	27284	997061	40779	108590	0	0	8189	653898	0	0
2024-05-30 22:54:32			0	35725	0	0	0	23319	21900	140120	27329	997070	40791	108593	0	0	8188	654955	0	0
2024-05-30 22:55:32			0	35749	0	0	0	23311	21910	140140	27092	997113	40791	108590	0	0	8189	653862	0	0
2024-05-30 22:56:32			0	35749	0	0	0	23319	21910	140028	27149	997132	40780	108593	0	0	8189	653862	0	0
2024-05-30 22:57:32			0	35771	0	0	0	23322	21910	140092	27452	997078	40791	108594	0	0	8190	652893	0	0
2024-05-30 22:58:32			0	35763	0	0	0	23311	21900	140000	27327	997070	40780	108590	0	0	8190	653282	0	0
2024-05-30 22:59:32			0	35777	0	0	0	23311	21900	139944	27175	997097	40780	108590	0	0	8191	652666	0	0
2024-05-30 23:00:32			0	35783	0	0	0	23306	21900	139924	27353	997115	40790	108588	0	0	8191	652402	0	0
2024-05-30 23:01:32			0	35771	0	0	0	23309	21910	139912	27332	997132	40791	108589	0	0	8190	652893	0	0
2024-05-30 23:02:32			0	35772	0	0	0	23303	21910	139896	27364	997113	40781	108587	0	0	8191	652850	0	0
2024-05-30 23:03:32			0	35803	0	0	0	23303	21910	139988	27393	997087	40791	108587	0	0	8192	651487	0	0
2024-05-30 23:04:32			0	35776	0	0	0	23311	21910	140028	27069	997113	40781	108590	0	0	8191	652674	0	0
2024-05-30 23:05:32			0	35787	0	0	0	23303	21900	139960	27270	997097	40768	108587	0	0	8191	652226	0	0
2024-05-30 23:06:32			0	35779	0	0	0	23298	21910	139972	27448	997052	40791	108585	0	0	8191	652542	0	0
2024-05-30 23:07:32			0	35796	0	0	0	23298	21900	139964	27164	997035	40790	108585	0	0	8192	651831	0	0
2024-05-30 23:08:32			0	35788	0	0	0	23296	21900	139904	27227	997088	40790	108584	0	0	8191	652183	0	0
2024-05-30 23:09:32			0	35798	0	0	0	23290	21910	139992	27161	997025	40780	108582	0	0	8192	651707	0	0
2024-05-30 23:10:32			0	35769	0	0	0	23298	21900	139996	27255	997017	40780	108585	0	0	8190	653018	0	0
2024-05-30 23:11:32			0	35772	0	0	0	23306	21900	140124	27369	997070	40780	108588	0	0	8190	652886	0	0
2024-05-30 23:12:32			0	35760	0	0	0	23301	21900	140184	27215	997035	40790	108586	0	0	8190	653414	0	0
2024-05-30 23:13:32			0	35735	0	0	0	23290	21910	140220	27190	997052	40801	108582	0	0	8189	654478	0	0
2024-05-30 23:14:32			0	35735	0	0	0	23298	21900	140208	27523	997035	40790	108585	0	0	8189	654515	0	0
2024-05-30 23:15:32			0	35748	0	0	0	23316	21910	140132	27417	997025	40780	108592	0	0	8189	653905	0	0
2024-05-30 23:16:32			0	35745	0	0	0	23306	21900	140132	27324	997043	40768	108588	0	0	8189	654074	0	0
2024-05-30 23:17:32			0	35775	0	0	0	23327	21900	140104	27521	997035	40779	108596	0	0	8190	652754	0	0
2024-05-30 23:18:32			0	35792	0	0	0	23309	21900	140024	27493	997061	40790	108589	0	0	8191	652007	0	0
2024-05-30 23:19:32			0	35822	0	0	0	23324	21910	139940	27280	997052	40780	108595	0	0	8193	650653	0	0
2024-05-30 23:20:32			0	35841	0	0	0	23342	21900	139700	27390	997097	40780	108602	0	0	8194	649856	0	0
2024-05-30 23:21:32			0	35845	0	0	0	23345	21900	139656	27403	997168	40790	108603	0	0	8194	649681	0	0
2024-05-30 23:22:32			0	35894	0	0	0	23337	21910	139653	27769	997132	40791	108600	0	0	8197	647500	0	0
2024-05-30 23:23:32			0	35907	0	0	0	23332	21910	139609	27585	997140	40791	108598	0	0	8197	646932	0	0
2024-05-30 23:24:32			0	35906	0	0	0	23332	21920	139565	27621	997202	40781	108598	0	0	8197	646940	0	0
2024-05-30 23:25:32			0	35926	0	0	0	23342	21920	139585	27237	997175	40781	108602	0	0	8198	646066	0	0
2024-05-30 23:26:32			0	35933	0	0	0	23358	21920	139469	27310	997148	40791	108608	0	0	8198	645761	0	0
2024-05-30 23:27:32			0	35927	0	0	0	23361	21910	139361	27308	997140	40791	108609	0	0	8198	646059	0	0
2024-05-30 23:28:32			0	35916	0	0	0	23363	21920	139361	27476	997157	40803	108610	0	0	8197	646503	0	0
2024-05-30 23:29:32			0	35923	0	0	0	23361	21930	139437	27116	997165	40793	108609	0	0	8198	646161	0	0
2024-05-30 23:30:32			0	35927	0	0	0	23373	21930	139353	27062	997280	40793	108614	0	0	8198	645987	0	0
2024-05-30 23:31:32			0	35954	0	0	0	23371	21930	139305	27390	997192	40804	108613	0	0	8199	644809	0	0
2024-05-30 23:32:32			0	35983	0	0	0	23358	21940	139229	27415	997235	40793	108608	0	0	8201	643510	0	0
2024-05-30 23:33:32			0	36023	0	0	0	23363	21940	139185	27154	997244	40805	108610	0	0	8203	641771	0	0
2024-05-30 23:34:32			0	36017	0	0	0	23348	21940	139009	27795	997191	40783	108604	0	0	8203	642031	0	0
2024-05-30 23:35:32			0	36054	0	0	0	23342	21940	138973	27317	997235	40782	108602	0	0	8205	640425	0	0
2024-05-30 23:36:32			0	36053	0	0	0	23345	21950	138893	27093	997226	40806	108603	0	0	8205	640432	0	0
2024-05-30 23:37:32			0	36092	0	0	0	23361	21940	138853	26941	997271	40805	108609	0	0	8207	638778	0	0
2024-05-30 23:38:32			0	36085	0	0	0	23361	21940	138677	27215	997262	40782	108609	0	0	8206	639081	0	0
2024-05-30 23:39:32			0	36100	0	0	0	23353	21950	138781	27384	997288	40784	108606	0	0	8207	638396	0	0
2024-05-30 23:40:32			0	36126	0	0	0	23335	21940	138697	26824	997271	40783	108599	0	0	8209	637307	0	0
2024-05-30 23:41:32			0	36131	0	0	0	23332	21940	138605	26857	997164	40783	108598	0	0	8209	637091	0	0
2024-05-30 23:42:32			0	36131	0	0	0	23337	21940	138589	27282	997217	40794	108600	0	0	8209	637091	0	0
2024-05-30 23:43:32			0	36129	0	0	0	23355	21940	138629	27419	997209	40793	108607	0	0	8209	637177	0	0
2024-05-30 23:44:32			0	36160	0	0	0	23361	21940	138545	27253	997271	40794	108609	0	0	8210	635839	0	0
2024-05-30 23:45:32			0	36154	0	0	0	23350	21940	138553	27033	997217	40783	108605	0	0	8210	636098	0	0
2024-05-30 23:46:32			0	36139	0	0	0	23353	21940	138565	27320	997235	40793	108606	0	0	8209	636745	0	0
2024-05-30 23:47:32			0	36137	0	0	0	23355	21940	138577	27229	997191	40794	108607	0	0	8209	636832	0	0
2024-05-30 23:48:32			0	36133	0	0	0	23361	21950	138581	27105	997208	40794	108609	0	0	8209	636969	0	0
2024-05-30 23:49:32			0	36124	0	0	0	23371	21940	138733	27239	997315	40793	108613	0	0	8208	637394	0	0
2024-05-30 23:50:32			0	36114	0	0	0	23363	21950	138633	27114	997252	40784	108610	0	0	8208	637791	0	0
2024-05-30 23:51:32			0	36111	0	0	0	23371	21950	138605	27085	997306	40784	108613	0	0	8208	637920	0	0
2024-05-30 23:52:32			0	36125	0	0	0	23358	21950	138761	27239	997226	40784	108608	0	0	8209	637315	0	0
2024-05-30 23:53:32			0	36115	0	0	0	23345	21950	138701	26880	997226	40794	108603	0	0	8208	637747	0	0
2024-05-30 23:54:32			0	36091	0	0	0	23342	21950	138725	26934	997279	40784	108602	0	0	8207	638786	0	0
2024-05-30 23:55:32			0	36100	0	0	0	23342	21940	138785	27175	997244	40794	108602	0	0	8208	638432	0	0
2024-05-30 23:56:32			0	36085	0	0	0	23355	21950	138817	27031	997288	40794	108607	0	0	8207	639046	0	0
2024-05-30 23:57:32			0	36080	0	0	0	23363	21950	138821	27041	997279	40794	108610	0	0	8206	639262	0	0
2024-05-30 23:58:32			0	36084	0	0	0	23353	21950	138889	27105	997279	40794	108606	0	0	8207	639089	0	0
2024-05-30 23:59:32			0	36076	0	0	0	23368	21950	138889	27248	997288	40817	108612	0	0	8206	639435	0	0
2024-05-31 00:00:32			0	36057	0	0	0	23371	21940	138877	27265	997324	40783	108613	0	0	8205	640295	0	0
2024-05-31 00:01:32			0	36064	0	0	0	23355	21950	138941	26845	997279	40784	108607	0	0	8205	639955	0	0
2024-05-31 00:02:32			0	36039	0	0	0	23350	21950	138905	27287	997314	40784	108605	0	0	8204	641040	0	0
2024-05-31 00:03:32			0	36052	0	0	0	23345	21950	138953	26981	997261	40794	108603	0	0	8205	640476	0	0
2024-05-31 00:04:32			0	36063	0	0	0	23355	21950	138769	27045	997306	40806	108607	0	0	8205	639999	0	0
2024-05-31 00:05:32			0	36072	0	0	0	23350	21950	138809	27189	997288	40784	108605	0	0	8206	639609	0	0
2024-05-31 00:06:32			0	36083	0	0	0	23353	21950	138845	26859	997279	40794	108606	0	0	8207	639132	0	0
2024-05-31 00:07:32			0	36095	0	0	0	23358	21940	138781	27124	997350	40783	108608	0	0	8207	638648	0	0
2024-05-31 00:08:32			0	36096	0	0	0	23361	21960	138753	27298	997296	40817	108609	0	0	8207	638534	0	0
2024-05-31 00:09:32			0	36117	0	0	0	23358	21950	138689	27209	997314	40794	108608	0	0	8208	637661	0	0
2024-05-31 00:10:32			0	36120	0	0	0	23358	21950	138629	27232	997288	40784	108608	0	0	8208	637531	0	0
2024-05-31 00:11:32			0	36121	0	0	0	23358	21950	138637	27284	997288	40794	108608	0	0	8208	637488	0	0
2024-05-31 00:12:32			0	36151	0	0	0	23358	21960	138661	27293	997323	40806	108608	0	0	8210	636156	0	0
2024-05-31 00:13:32			0	36133	0	0	0	23345	21960	138649	27371	997323	40784	108603	0	0	8209	636934	0	0
2024-05-31 00:14:32			0	36131	0	0	0	23327	21950	138585	27201	997279	40794	108596	0	0	8210	637055	0	0
2024-05-31 00:15:32			0	36149	0	0	0	23329	21960	138609	27466	997225	40785	108597	0	0	8211	636243	0	0
2024-05-31 00:16:32			0	36162	0	0	0	23337	21950	138589	26998	997208	40773	108600	0	0	8211	635717	0	0
2024-05-31 00:17:32			0	36160	0	0	0	23332	21950	138505	27270	997226	40784	108598	0	0	8211	635803	0	0
2024-05-31 00:18:32			0	36132	0	0	0	23324	21940	138589	27419	997244	40794	108595	0	0	8210	637048	0	0
2024-05-31 00:19:32			0	36143	0	0	0	23337	21950	138573	27140	997288	40794	108600	0	0	8210	636537	0	0
2024-05-31 00:20:32			0	36131	0	0	0	23350	21940	138573	27322	997262	40782	108605	0	0	8209	637091	0	0
2024-05-31 00:21:32			0	36114	0	0	0	23345	21940	138653	27348	997244	40794	108603	0	0	8208	637826	0	0
2024-05-31 00:22:32			0	36153	0	0	0	23327	21950	138625	27478	997252	40794	108596	0	0	8211	636105	0	0
2024-05-31 00:23:32			0	36109	0	0	0	23309	21940	138721	27410	997217	40794	108589	0	0	8209	638042	0	0
2024-05-31 00:24:32			0	36088	0	0	0	23285	21940	138697	26974	997191	40783	108580	0	0	8208	638951	0	0
2024-05-31 00:25:32			0	36091	0	0	0	23298	21940	138733	27267	997156	40782	108585	0	0	8208	638821	0	0
2024-05-31 00:26:32			0	36066	0	0	0	23296	21930	138841	27533	997200	40782	108584	0	0	8207	639940	0	0
2024-05-31 00:27:32			0	36064	0	0	0	23277	21930	138877	27552	997085	40782	108577	0	0	8207	640027	0	0
2024-05-31 00:28:32			0	36078	0	0	0	23264	21930	138837	27369	997085	40782	108572	0	0	8208	639420	0	0
2024-05-31 00:29:32			0	36046	0	0	0	23244	21910	138853	27357	996927	40781	108564	0	0	8206	640879	0	0
2024-05-31 00:30:32			0	36066	0	0	0	23236	21910	138825	27322	996945	40780	108561	0	0	8207	640011	0	0
2024-05-31 00:31:32			0	36072	0	0	0	23231	21890	138925	27255	996893	40799	108559	0	0	8208	639823	0	0
2024-05-31 00:32:32			0	36068	0	0	0	23231	21900	138917	27048	996955	40790	108559	0	0	8208	639960	0	0
2024-05-31 00:33:32			0	36067	0	0	0	23225	21890	138905	27511	996885	40778	108557	0	0	8208	640039	0	0
2024-05-31 00:34:32			0	36022	0	0	0	23220	21890	139041	27479	996911	40778	108555	0	0	8205	641993	0	0
2024-05-31 00:35:32			0	35993	0	0	0	23207	21870	139137	27241	996851	40776	108550	0	0	8204	643326	0	0
2024-05-31 00:36:32			0	35955	0	0	0	23212	21870	139365	27248	996833	40765	108552	0	0	8202	644981	0	0
2024-05-31 00:37:32			0	35909	0	0	0	23220	21860	139437	27315	996754	40764	108555	0	0	8199	647025	0	0
2024-05-31 00:38:32			0	35876	0	0	0	23207	21860	139733	27206	996736	40776	108550	0	0	8198	648468	0	0
2024-05-31 00:39:32			0	35829	0	0	0	23215	21850	139804	27296	996764	40786	108553	0	0	8195	650564	0	0
2024-05-31 00:40:32			0	35791	0	0	0	23212	21840	139988	26984	996747	40774	108552	0	0	8193	652269	0	0
2024-05-31 00:41:32			0	35736	0	0	0	23215	21840	140136	27433	996782	40762	108553	0	0	8190	654689	0	0
2024-05-31 00:42:32			0	35712	0	0	0	23210	21840	140268	27272	996747	40774	108551	0	0	8189	655748	0	0
2024-05-31 00:43:32			0	35679	0	0	0	23215	21840	140464	27313	996774	40774	108553	0	0	8187	657205	0	0
2024-05-31 00:44:32			0	35643	0	0	0	23207	21830	140608	27274	996765	40784	108550	0	0	8185	658834	0	0
2024-05-31 00:45:32			0	35620	0	0	0	23218	21830	140664	26911	996712	40794	108554	0	0	8183	659853	0	0
2024-05-31 00:46:32			0	35571	0	0	0	23199	21830	140896	27164	996650	40773	108547	0	0	8181	662027	0	0
2024-05-31 00:47:32			0	35560	0	0	0	23179	21820	140828	27149	996668	40772	108539	0	0	8181	662553	0	0
2024-05-31 00:48:32			0	35524	0	0	0	23181	21820	140948	27100	996642	40772	108540	0	0	8179	664155	0	0
2024-05-31 00:49:32			0	35509	0	0	0	23192	21820	141000	27076	996642	40783	108544	0	0	8178	664823	0	0
2024-05-31 00:50:32			0	35510	0	0	0	23205	21810	141104	27300	996678	40760	108549	0	0	8178	664816	0	0
2024-05-31 00:51:32			0	35466	0	0	0	23215	21820	141140	27168	996633	40783	108553	0	0	8175	666742	0	0
2024-05-31 00:52:32			0	35460	0	0	0	23220	21820	141260	27175	996713	40783	108555	0	0	8175	667009	0	0
2024-05-31 00:53:32			0	35427	0	0	0	23215	21830	141292	26956	996730	40784	108553	0	0	8173	668448	0	0
2024-05-31 00:54:32			0	35425	0	0	0	23215	21820	141556	27372	996660	40793	108553	0	0	8173	668574	0	0
2024-05-31 00:55:32			0	35393	0	0	0	23199	21820	141520	27183	996687	40783	108547	0	0	8171	670007	0	0
2024-05-31 00:56:32			0	35374	0	0	0	23212	21810	141648	27135	996678	40782	108552	0	0	8170	670897	0	0
2024-05-31 00:57:32			0	35353	0	0	0	23215	21820	141676	27454	996740	40772	108553	0	0	8169	671802	0	0
2024-05-31 00:58:32			0	35332	0	0	0	23218	21810	141720	27431	996705	40792	108554	0	0	8168	672783	0	0
2024-05-31 00:59:32			0	35331	0	0	0	23228	21810	141756	27275	996731	40771	108558	0	0	8168	672828	0	0
2024-05-31 01:00:32			0	35295	0	0	0	23223	21830	141936	27313	996757	40784	108556	0	0	8166	674373	0	0
2024-05-31 01:01:32			0	35312	0	0	0	23225	21830	141892	27050	996730	40784	108557	0	0	8167	673608	0	0
2024-05-31 01:02:32			0	35272	0	0	0	23246	21830	142012	27381	996677	40784	108565	0	0	8164	675409	0	0
2024-05-31 01:03:32			0	35279	0	0	0	23233	21830	142024	27213	996765	40794	108560	0	0	8165	675094	0	0
2024-05-31 01:04:32			0	35288	0	0	0	23236	21820	142040	27352	996775	40783	108561	0	0	8165	674726	0	0
2024-05-31 01:05:32			0	35256	0	0	0	23241	21830	142036	27173	996757	40784	108563	0	0	8163	676131	0	0
2024-05-31 01:06:32			0	35244	0	0	0	23236	21840	142068	27194	996747	40785	108561	0	0	8163	676635	0	0
2024-05-31 01:07:32			0	35258	0	0	0	23236	21830	142084	27046	996757	40784	108561	0	0	8164	676041	0	0
2024-05-31 01:08:32			0	35270	0	0	0	23241	21830	142016	27289	996792	40784	108563	0	0	8164	675500	0	0
2024-05-31 01:09:32			0	35248	0	0	0	23238	21820	142080	26904	996775	40793	108562	0	0	8163	676530	0	0
2024-05-31 01:10:32			0	35295	0	0	0	23238	21840	141960	27377	996721	40785	108562	0	0	8166	674336	0	0
2024-05-31 01:11:32			0	35310	0	0	0	23236	21830	141872	27069	996792	40773	108561	0	0	8166	673698	0	0
2024-05-31 01:12:32			0	35316	0	0	0	23236	21840	141816	27076	996782	40785	108561	0	0	8167	673390	0	0
2024-05-31 01:13:32			0	35332	0	0	0	23241	21840	141756	27272	996747	40785	108563	0	0	8168	672671	0	0
2024-05-31 01:14:32			0	35324	0	0	0	23244	21830	141860	27395	996765	40773	108564	0	0	8167	673068	0	0
2024-05-31 01:15:32			0	35305	0	0	0	23236	21840	141792	27504	996774	40774	108561	0	0	8166	673885	0	0
2024-05-31 01:16:32			0	35307	0	0	0	23236	21840	141836	27203	996827	40762	108561	0	0	8166	673795	0	0
2024-05-31 01:17:32			0	35289	0	0	0	23238	21840	141960	26930	996800	40785	108562	0	0	8165	674606	0	0
2024-05-31 01:18:32			0	35270	0	0	0	23241	21830	141936	27208	996792	40784	108563	0	0	8164	675500	0	0
2024-05-31 01:19:32			0	35300	0	0	0	23241	21840	141944	27265	996800	40785	108563	0	0	8166	674110	0	0
2024-05-31 01:20:32			0	35293	0	0	0	23246	21840	141876	27189	996774	40785	108565	0	0	8165	674426	0	0
2024-05-31 01:21:32			0	35296	0	0	0	23236	21830	141876	27448	996765	40784	108561	0	0	8166	674328	0	0
2024-05-31 01:22:32			0	35328	0	0	0	23241	21840	141872	27083	996800	40806	108563	0	0	8167	672851	0	0
2024-05-31 01:23:32			0	35329	0	0	0	23244	21840	141832	27050	996774	40785	108564	0	0	8167	672806	0	0
2024-05-31 01:24:32			0	35339	0	0	0	23238	21830	141848	27452	996819	40761	108562	0	0	8168	672394	0	0
2024-05-31 01:25:32			0	35327	0	0	0	23244	21840	141804	27471	996800	40774	108564	0	0	8167	672895	0	0
2024-05-31 01:26:32			0	35303	0	0	0	23233	21840	141880	27109	996774	40774	108560	0	0	8166	673975	0	0
2024-05-31 01:27:32			0	35302	0	0	0	23236	21840	141928	27017	996836	40774	108561	0	0	8166	674020	0	0
2024-05-31 01:28:32			0	35309	0	0	0	23238	21840	141908	27204	996782	40785	108562	0	0	8166	673705	0	0
2024-05-31 01:29:32			0	35303	0	0	0	23233	21840	141888	27293	996827	40785	108560	0	0	8166	673975	0	0
2024-05-31 01:30:32			0	35293	0	0	0	23238	21840	141980	27327	996827	40785	108562	0	0	8165	674426	0	0
2024-05-31 01:31:32			0	35277	0	0	0	23246	21840	141952	27022	996827	40785	108565	0	0	8164	675146	0	0
2024-05-31 01:32:32			0	35287	0	0	0	23238	21830	141960	27263	996739	40784	108562	0	0	8165	674733	0	0
2024-05-31 01:33:32			0	35295	0	0	0	23244	21840	141940	27275	996854	40762	108564	0	0	8165	674336	0	0
2024-05-31 01:34:32			0	35290	0	0	0	23246	21830	141944	27469	996792	40794	108565	0	0	8165	674598	0	0
2024-05-31 01:35:32			0	35277	0	0	0	23241	21840	142000	27507	996862	40785	108563	0	0	8165	675146	0	0
2024-05-31 01:36:32			0	35273	0	0	0	23246	21830	142064	27163	996792	40773	108565	0	0	8164	675364	0	0
2024-05-31 01:37:32			0	35272	0	0	0	23241	21840	142000	27107	996836	40785	108563	0	0	8164	675372	0	0
2024-05-31 01:38:32			0	35269	0	0	0	23238	21840	142004	27509	996836	40785	108562	0	0	8164	675507	0	0
2024-05-31 01:39:32			0	35261	0	0	0	23254	21840	142036	27256	996809	40774	108568	0	0	8163	675868	0	0
2024-05-31 01:40:32			0	35265	0	0	0	23257	21840	142156	26991	996774	40774	108569	0	0	8164	675687	0	0
2024-05-31 01:41:32			0	35251	0	0	0	23249	21830	142028	27621	996845	40794	108566	0	0	8163	676357	0	0
2024-05-31 01:42:32			0	35265	0	0	0	23238	21850	142040	27371	996844	40774	108562	0	0	8164	675650	0	0
2024-05-31 01:43:32			0	35269	0	0	0	23246	21840	142088	27379	996809	40785	108565	0	0	8164	675507	0	0
2024-05-31 01:44:32			0	35244	0	0	0	23244	21830	142144	27317	996792	40794	108564	0	0	8163	676673	0	0
2024-05-31 01:45:32			0	35242	0	0	0	23251	21840	142124	27346	996889	40785	108567	0	0	8162	676725	0	0
2024-05-31 01:46:32			0	35228	0	0	0	23241	21840	142280	27590	996907	40774	108563	0	0	8162	677358	0	0
2024-05-31 01:47:32			0	35231	0	0	0	23241	21850	142244	27386	996844	40786	108563	0	0	8162	677184	0	0
2024-05-31 01:48:32			0	35217	0	0	0	23251	21850	142332	27881	996871	40786	108567	0	0	8161	677817	0	0
2024-05-31 01:49:32			0	35223	0	0	0	23249	21840	142216	27230	996862	40785	108566	0	0	8161	677584	0	0
2024-05-31 01:50:32			0	35194	0	0	0	23246	21850	142228	27435	996844	40796	108565	0	0	8160	678857	0	0
2024-05-31 01:51:32			0	35212	0	0	0	23244	21850	142340	27251	996844	40786	108564	0	0	8161	678043	0	0
2024-05-31 01:52:32			0	35207	0	0	0	23238	21850	142328	27197	996791	40786	108562	0	0	8161	678269	0	0
2024-05-31 01:53:32			0	35210	0	0	0	23238	21850	142232	27256	996844	40796	108562	0	0	8161	678133	0	0
2024-05-31 01:54:32			0	35204	0	0	0	23236	21840	142260	27182	996809	40774	108561	0	0	8161	678443	0	0
2024-05-31 01:55:32			0	35195	0	0	0	23244	21840	142280	27279	996809	40785	108564	0	0	8160	678850	0	0
2024-05-31 01:56:32			0	35194	0	0	0	23244	21840	142328	27026	996836	40774	108564	0	0	8160	678895	0	0
2024-05-31 01:57:32			0	35192	0	0	0	23238	21850	142352	27415	996871	40774	108562	0	0	8160	678948	0	0
2024-05-31 01:58:32			0	35189	0	0	0	23249	21840	142304	27062	996827	40795	108566	0	0	8160	679121	0	0
2024-05-31 01:59:32			0	35159	0	0	0	23251	21850	142448	27178	996817	40786	108567	0	0	8158	680442	0	0
2024-05-31 02:00:32			0	35185	0	0	0	23246	21850	142544	27315	996871	40786	108565	0	0	8159	679265	0	0
2024-05-31 02:01:32			0	35171	0	0	0	23233	21840	142548	27426	996836	40785	108560	0	0	8159	679936	0	0
2024-05-31 02:02:32			0	35161	0	0	0	23241	21840	142568	27583	996836	40762	108563	0	0	8158	680390	0	0
2024-05-31 02:03:32			0	35140	0	0	0	23241	21840	142496	26986	996800	40795	108563	0	0	8157	681342	0	0
2024-05-31 02:04:32			0	35139	0	0	0	23244	21840	142620	27185	996836	40795	108564	0	0	8157	681388	0	0
2024-05-31 02:05:32			0	35113	0	0	0	23238	21840	142727	27628	996809	40774	108562	0	0	8156	682568	0	0
2024-05-31 02:06:32			0	35094	0	0	0	23244	21840	142723	27220	996827	40785	108564	0	0	8154	683432	0	0
2024-05-31 02:07:32			0	35083	0	0	0	23233	21840	142899	27684	996782	40774	108560	0	0	8154	683932	0	0
2024-05-31 02:08:32			0	35074	0	0	0	23244	21840	142783	27585	996862	40785	108564	0	0	8153	684342	0	0
2024-05-31 02:09:32			0	35067	0	0	0	23244	21840	142887	27261	996836	40795	108564	0	0	8153	684661	0	0
2024-05-31 02:10:32			0	35056	0	0	0	23236	21840	142919	27343	996880	40785	108561	0	0	8153	685162	0	0
2024-05-31 02:11:32			0	35051	0	0	0	23238	21840	142999	27267	996809	40785	108562	0	0	8152	685390	0	0
2024-05-31 02:12:32			0	35054	0	0	0	23238	21840	142959	27293	996880	40785	108562	0	0	8152	685253	0	0
2024-05-31 02:13:32			0	35058	0	0	0	23246	21840	143035	27357	996836	40795	108565	0	0	8152	685071	0	0
2024-05-31 02:14:32			0	35046	0	0	0	23249	21840	143043	27130	996862	40785	108566	0	0	8152	685618	0	0
2024-05-31 02:15:32			0	35022	0	0	0	23241	21850	143023	27514	996871	40774	108563	0	0	8151	686674	0	0
2024-05-31 02:16:32			0	35053	0	0	0	23238	21840	142879	27135	996827	40806	108562	0	0	8152	685299	0	0
2024-05-31 02:17:32			0	35085	0	0	0	23244	21840	142767	27398	996782	40785	108564	0	0	8154	683842	0	0
2024-05-31 02:18:32			0	35070	0	0	0	23241	21850	142767	27345	996791	40796	108563	0	0	8153	684486	0	0
2024-05-31 02:19:32			0	35094	0	0	0	23238	21840	142775	27443	996800	40785	108562	0	0	8155	683432	0	0
2024-05-31 02:20:32			0	35098	0	0	0	23225	21840	142795	27074	996782	40785	108557	0	0	8155	683250	0	0
2024-05-31 02:21:32			0	35105	0	0	0	23220	21840	142727	27393	996836	40774	108555	0	0	8156	682932	0	0
2024-05-31 02:22:32			0	35097	0	0	0	23228	21840	142771	27355	996827	40785	108558	0	0	8155	683296	0	0
2024-05-31 02:23:32			0	35066	0	0	0	23223	21840	142819	27213	996721	40785	108556	0	0	8153	684706	0	0
2024-05-31 02:24:32			0	35043	0	0	0	23220	21830	142923	27445	996810	40773	108555	0	0	8152	685793	0	0
2024-05-31 02:25:32			0	35014	0	0	0	23223	21840	143071	27469	996827	40785	108556	0	0	8150	687078	0	0
2024-05-31 02:26:32			0	34996	0	0	0	23220	21840	143067	27547	996800	40785	108555	0	0	8150	687900	0	0
2024-05-31 02:27:32			0	34990	0	0	0	23220	21830	143219	27308	996730	40784	108555	0	0	8149	688213	0	0
2024-05-31 02:28:32			0	34981	0	0	0	23225	21840	143239	27229	996721	40785	108557	0	0	8149	688586	0	0
2024-05-31 02:29:32			0	34954	0	0	0	23223	21830	143339	27010	996765	40794	108556	0	0	8147	689860	0	0
2024-05-31 02:30:32			0	34946	0	0	0	23228	21830	143359	27241	996757	40794	108558	0	0	8147	690227	0	0
2024-05-31 02:31:32			0	34957	0	0	0	23225	21840	143343	27301	996747	40795	108557	0	0	8147	689684	0	0
2024-05-31 02:32:32			0	34933	0	0	0	23223	21830	143311	27166	996792	40773	108556	0	0	8146	690823	0	0
2024-05-31 02:33:32			0	34934	0	0	0	23228	21840	143383	27448	996747	40785	108558	0	0	8146	690738	0	0
2024-05-31 02:34:32			0	34942	0	0	0	23223	21830	143327	27220	996703	40784	108556	0	0	8146	690410	0	0
2024-05-31 02:35:32			0	34950	0	0	0	23225	21830	143395	27208	996765	40794	108557	0	0	8147	690043	0	0
2024-05-31 02:36:32			0	34903	0	0	0	23218	21840	143403	27281	996800	40774	108554	0	0	8144	692161	0	0
2024-05-31 02:37:32			0	34932	0	0	0	23212	21830	143419	27317	996757	40794	108552	0	0	8146	690868	0	0
2024-05-31 02:38:32			0	34906	0	0	0	23215	21820	143523	27029	996748	40783	108553	0	0	8145	692100	0	0
2024-05-31 02:39:32			0	34859	0	0	0	23228	21830	143731	27215	996757	40784	108558	0	0	8142	694222	0	0
2024-05-31 02:40:32			0	34832	0	0	0	23220	21830	143951	27327	996765	40784	108555	0	0	8140	695465	0	0
2024-05-31 02:41:32			0	34822	0	0	0	23215	21830	143879	27194	996757	40784	108553	0	0	8140	695926	0	0
2024-05-31 02:42:32			0	34812	0	0	0	23215	21820	143931	27519	996748	40772	108553	0	0	8139	696426	0	0
2024-05-31 02:43:32			0	34796	0	0	0	23215	21820	144011	27310	996748	40783	108553	0	0	8139	697165	0	0
2024-05-31 02:44:32			0	34756	0	0	0	23225	21820	144011	27072	996766	40783	108557	0	0	8136	699013	0	0
2024-05-31 02:45:32			0	34768	0	0	0	23231	21820	144115	27296	996775	40805	108559	0	0	8137	698458	0	0
2024-05-31 02:46:32			0	34752	0	0	0	23218	21820	144195	27220	996766	40793	108554	0	0	8136	699198	0	0
2024-05-31 02:47:32			0	34715	0	0	0	23223	21820	144307	27466	996740	40783	108556	0	0	8134	700912	0	0
2024-05-31 02:48:32			0	34702	0	0	0	23223	21820	144307	27407	996687	40783	108556	0	0	8133	701515	0	0
2024-05-31 02:49:32			0	34724	0	0	0	23228	21820	144295	27362	996740	40783	108558	0	0	8134	700495	0	0
2024-05-31 02:50:32			0	34818	0	0	0	23225	21820	143939	27398	996775	40783	108557	0	0	8140	696149	0	0
2024-05-31 02:51:32			0	34859	0	0	0	23231	21820	143723	27062	996748	40805	108559	0	0	8142	694261	0	0
2024-05-31 02:52:32			0	34901	0	0	0	23220	21830	143731	27374	996765	40784	108555	0	0	8144	692291	0	0
2024-05-31 02:53:32			0	34911	0	0	0	23223	21830	143519	27329	996757	40794	108556	0	0	8145	691832	0	0
2024-05-31 02:54:32			0	34952	0	0	0	23231	21820	143439	27031	996766	40793	108559	0	0	8147	689990	0	0
2024-05-31 02:55:32			0	34978	0	0	0	23225	21820	143391	27199	996740	40793	108557	0	0	8148	688800	0	0
2024-05-31 02:56:32			0	34979	0	0	0	23225	21840	143279	27540	996800	40785	108557	0	0	8149	688678	0	0
2024-05-31 02:57:32			0	34970	0	0	0	23231	21820	143279	27062	996793	40783	108559	0	0	8148	689166	0	0
2024-05-31 02:58:32			0	34978	0	0	0	23231	21820	143383	27417	996766	40783	108559	0	0	8148	688800	0	0
2024-05-31 02:59:32			0	34980	0	0	0	23225	21830	143331	27383	996757	40773	108557	0	0	8149	688670	0	0
2024-05-31 03:00:32			0	34983	0	0	0	23220	21830	143199	27317	996792	40784	108555	0	0	8149	688533	0	0
2024-05-31 03:01:32			0	35009	0	0	0	23223	21820	143083	27260	996748	40793	108556	0	0	8150	687383	0	0
2024-05-31 03:02:32			0	35040	0	0	0	23223	21830	143087	27639	996783	40805	108556	0	0	8152	685930	0	0
2024-05-31 03:03:32			0	35059	0	0	0	23223	21820	142987	26991	996740	40793	108556	0	0	8153	685102	0	0
2024-05-31 03:04:32			0	35056	0	0	0	23225	21820	142983	27374	996748	40783	108557	0	0	8153	685238	0	0
2024-05-31 03:05:32			0	35070	0	0	0	23220	21830	142923	27206	996757	40784	108555	0	0	8154	684562	0	0
2024-05-31 03:06:32			0	35114	0	0	0	23218	21830	142815	27474	996730	40773	108554	0	0	8156	682561	0	0
2024-05-31 03:07:32			0	35123	0	0	0	23212	21820	142748	27398	996793	40783	108552	0	0	8157	682190	0	0
2024-05-31 03:08:32			0	35133	0	0	0	23223	21830	142664	27334	996783	40794	108556	0	0	8157	681698	0	0
2024-05-31 03:09:32			0	35137	0	0	0	23233	21820	142576	27383	996793	40793	108560	0	0	8157	681554	0	0
2024-05-31 03:10:32			0	35188	0	0	0	23241	21830	142484	27390	996783	40794	108563	0	0	8160	679205	0	0
2024-05-31 03:11:32			0	35269	0	0	0	23238	21820	142192	27398	996828	40783	108562	0	0	8164	675582	0	0
2024-05-31 03:12:32			0	35310	0	0	0	23238	21830	141912	27360	996810	40784	108562	0	0	8166	673698	0	0
2024-05-31 03:13:32			0	35359	0	0	0	23228	21820	141744	27509	996775	40783	108558	0	0	8169	671533	0	0
2024-05-31 03:14:32			0	35375	0	0	0	23236	21830	141664	27346	996765	40784	108561	0	0	8170	670777	0	0
2024-05-31 03:15:32			0	35399	0	0	0	23231	21830	141708	27130	996757	40784	108559	0	0	8171	669701	0	0
2024-05-31 03:16:32			0	35374	0	0	0	23212	21820	141728	27267	996775	40793	108552	0	0	8170	670859	0	0
2024-05-31 03:17:32			0	35373	0	0	0	23212	21820	141768	27046	996748	40783	108552	0	0	8170	670904	0	0
2024-05-31 03:18:32			0	35339	0	0	0	23220	21830	141904	27208	996757	40794	108555	0	0	8168	672394	0	0
2024-05-31 03:19:32			0	35301	0	0	0	23220	21830	142084	27223	996783	40794	108555	0	0	8166	674103	0	0
2024-05-31 03:20:32			0	35261	0	0	0	23223	21830	142092	27152	996757	40794	108556	0	0	8164	675905	0	0
2024-05-31 03:21:32			0	35272	0	0	0	23228	21830	142156	27019	996836	40805	108558	0	0	8164	675409	0	0
2024-05-31 03:22:32			0	35255	0	0	0	23231	21830	142172	27455	996783	40794	108559	0	0	8163	676176	0	0
2024-05-31 03:23:32			0	35268	0	0	0	23238	21820	142204	27325	996748	40783	108562	0	0	8164	675627	0	0
2024-05-31 03:24:32			0	35278	0	0	0	23231	21830	142188	27537	996810	40794	108559	0	0	8165	675139	0	0
2024-05-31 03:25:32			0	35274	0	0	0	23246	21830	142148	27116	996819	40794	108565	0	0	8164	675319	0	0
2024-05-31 03:26:32			0	35295	0	0	0	23246	21840	142136	27530	996800	40785	108565	0	0	8165	674336	0	0
2024-05-31 03:27:32			0	35311	0	0	0	23244	21830	142092	27421	996810	40784	108564	0	0	8166	673653	0	0
2024-05-31 03:28:32			0	35300	0	0	0	23249	21830	142220	27270	996836	40784	108566	0	0	8166	674148	0	0
2024-05-31 03:29:32			0	35251	0	0	0	23236	21840	142224	27379	996854	40795	108561	0	0	8163	676319	0	0
2024-05-31 03:30:32			0	35244	0	0	0	23233	21840	142204	27102	996854	40785	108560	0	0	8163	676635	0	0
2024-05-31 03:31:32			0	35221	0	0	0	23238	21830	142396	27289	996792	40784	108562	0	0	8161	677712	0	0
2024-05-31 03:32:32			0	35120	0	0	0	23238	21820	142620	27364	996855	40793	108562	0	0	8156	682326	0	0
2024-05-31 03:33:32			0	35104	0	0	0	23236	21830	142852	27403	996792	40784	108561	0	0	8155	683015	0	0
2024-05-31 03:34:32			0	35078	0	0	0	23241	21840	142843	27422	996809	40785	108563	0	0	8154	684160	0	0
2024-05-31 03:35:32			0	35021	0	0	0	23246	21840	143035	27441	996827	40785	108565	0	0	8150	686758	0	0
2024-05-31 03:36:32			0	34989	0	0	0	23241	21840	143347	27331	996862	40785	108563	0	0	8149	688220	0	0
2024-05-31 03:37:32			0	34950	0	0	0	23244	21830	143331	27152	996819	40794	108564	0	0	8147	690043	0	0
2024-05-31 03:38:32			0	34942	0	0	0	23244	21830	143451	27253	996845	40784	108564	0	0	8146	690410	0	0
2024-05-31 03:39:32			0	34893	0	0	0	23238	21830	143583	27552	996863	40794	108562	0	0	8144	692658	0	0
2024-05-31 03:40:32			0	34885	0	0	0	23246	21830	143667	27294	996792	40784	108565	0	0	8143	693026	0	0
2024-05-31 03:41:32			0	34857	0	0	0	23241	21840	143823	27170	996836	40785	108563	0	0	8142	694275	0	0
2024-05-31 03:42:32			0	34848	0	0	0	23241	21830	143839	27438	996845	40784	108563	0	0	8141	694728	0	0
2024-05-31 03:43:32			0	34815	0	0	0	23236	21840	143891	27440	996827	40785	108561	0	0	8139	696210	0	0
2024-05-31 03:44:32			0	34810	0	0	0	23236	21840	143995	27556	996836	40774	108561	0	0	8139	696441	0	0
2024-05-31 03:45:32			0	34797	0	0	0	23231	21840	144031	27383	996880	40795	108559	0	0	8138	697041	0	0
2024-05-31 03:46:32			0	34795	0	0	0	23233	21830	144063	27594	996845	40784	108560	0	0	8138	697172	0	0
2024-05-31 03:47:32			0	34767	0	0	0	23231	21840	144163	27424	996836	40762	108559	0	0	8137	698427	0	0
2024-05-31 03:48:32			0	34754	0	0	0	23233	21840	144175	27180	996774	40795	108560	0	0	8136	699028	0	0
2024-05-31 03:49:32			0	34749	0	0	0	23228	21840	144251	27166	996827	40785	108558	0	0	8136	699259	0	0
2024-05-31 03:50:32			0	34761	0	0	0	23228	21830	144223	27308	996792	40805	108558	0	0	8136	698743	0	0
2024-05-31 03:51:32			0	34759	0	0	0	23233	21830	144239	27152	996863	40784	108560	0	0	8136	698836	0	0
2024-05-31 03:52:32			0	34740	0	0	0	23225	21830	144255	27287	996819	40794	108557	0	0	8135	699715	0	0
2024-05-31 03:53:32			0	34723	0	0	0	23231	21840	144379	27190	996827	40785	108559	0	0	8134	700463	0	0
2024-05-31 03:54:32			0	34710	0	0	0	23220	21830	144359	27396	996792	40794	108555	0	0	8134	701105	0	0
2024-05-31 03:55:32			0	34691	0	0	0	23223	21830	144443	27353	996819	40784	108556	0	0	8133	701986	0	0
2024-05-31 03:56:32			0	34652	0	0	0	23223	21840	144595	27237	996800	40806	108556	0	0	8131	703759	0	0
2024-05-31 03:57:32			0	34655	0	0	0	23231	21830	144627	27235	996792	40794	108559	0	0	8130	703659	0	0
2024-05-31 03:58:32			0	34624	0	0	0	23233	21830	144731	27270	996810	40794	108560	0	0	8129	705101	0	0
2024-05-31 03:59:32			0	34600	0	0	0	23231	21820	144799	27653	996801	40793	108559	0	0	8127	706259	0	0
2024-05-31 04:00:32			0	34590	0	0	0	23218	21830	144863	27289	996757	40805	108554	0	0	8127	706686	0	0
2024-05-31 04:01:32			0	34580	0	0	0	23218	21830	144951	27326	996783	40784	108554	0	0	8127	707152	0	0
2024-05-31 04:02:32			0	34569	0	0	0	23220	21830	145047	27218	996819	40784	108555	0	0	8126	707666	0	0
2024-05-31 04:03:32			0	34553	0	0	0	23223	21830	145143	27244	996810	40773	108556	0	0	8125	708413	0	0
2024-05-31 04:04:32			0	34541	0	0	0	23218	21820	145159	27384	996748	40793	108554	0	0	8124	709014	0	0
2024-05-31 04:05:32			0	34559	0	0	0	23220	21820	145123	26920	996801	40772	108555	0	0	8125	708173	0	0
2024-05-31 04:06:32			0	34533	0	0	0	23215	21820	145191	27258	996775	40783	108553	0	0	8124	709388	0	0
2024-05-31 04:07:32			0	34533	0	0	0	23210	21830	145183	27407	996757	40794	108551	0	0	8124	709349	0	0
2024-05-31 04:08:32			0	34528	0	0	0	23210	21820	145251	27466	996775	40772	108551	0	0	8124	709622	0	0
2024-05-31 04:09:32			0	34508	0	0	0	23212	21820	145235	27422	996801	40783	108552	0	0	8123	710559	0	0
2024-05-31 04:10:32			0	34515	0	0	0	23215	21810	145367	27263	996785	40782	108553	0	0	8123	710270	0	0
2024-05-31 04:11:32			0	34496	0	0	0	23202	21820	145359	27100	996740	40783	108548	0	0	8122	711121	0	0
2024-05-31 04:12:32			0	34492	0	0	0	23210	21820	145415	27338	996766	40783	108551	0	0	8122	711308	0	0
2024-05-31 04:13:32			0	34497	0	0	0	23207	21810	145383	27367	996705	40782	108550	0	0	8122	711114	0	0
2024-05-31 04:14:32			0	34485	0	0	0	23207	21820	145443	27296	996801	40793	108550	0	0	8121	711637	0	0
2024-05-31 04:15:32			0	34456	0	0	0	23202	21820	145503	27020	996713	40783	108548	0	0	8120	712998	0	0
2024-05-31 04:16:32			0	34463	0	0	0	23207	21810	145443	27568	996731	40782	108550	0	0	8120	712709	0	0
2024-05-31 04:17:32			0	34467	0	0	0	23207	21810	145491	27182	996723	40791	108550	0	0	8120	712521	0	0
2024-05-31 04:18:32			0	34469	0	0	0	23205	21810	145439	27248	996750	40781	108549	0	0	8120	712427	0	0
2024-05-31 04:19:32			0	34487	0	0	0	23199	21820	145459	27284	996687	40783	108547	0	0	8122	711543	0	0
2024-05-31 04:20:32			0	34488	0	0	0	23205	21820	145427	27100	996766	40783	108549	0	0	8122	711496	0	0
2024-05-31 04:21:32			0	34506	0	0	0	23210	21810	145391	27511	996696	40781	108551	0	0	8122	710692	0	0
2024-05-31 04:22:32			0	34517	0	0	0	23199	21810	145327	27253	996731	40782	108547	0	0	8123	710177	0	0
2024-05-31 04:23:32			0	34524	0	0	0	23202	21810	145279	27216	996731	40804	108548	0	0	8124	709849	0	0
2024-05-31 04:24:32			0	34563	0	0	0	23202	21810	145179	27242	996705	40804	108548	0	0	8126	708025	0	0
2024-05-31 04:25:32			0	34552	0	0	0	23199	21810	145139	27104	996696	40781	108547	0	0	8125	708539	0	0
2024-05-31 04:26:32			0	34551	0	0	0	23199	21810	145123	27263	996750	40791	108547	0	0	8125	708586	0	0
2024-05-31 04:27:32			0	34522	0	0	0	23202	21800	145255	27535	996688	40781	108548	0	0	8123	709982	0	0
2024-05-31 04:28:32			0	34521	0	0	0	23194	21810	145335	27526	996670	40791	108545	0	0	8124	709989	0	0
2024-05-31 04:29:32			0	34493	0	0	0	23202	21800	145435	27317	996688	40781	108548	0	0	8122	711341	0	0
2024-05-31 04:30:32			0	34498	0	0	0	23199	21810	145415	27291	996696	40803	108547	0	0	8122	711067	0	0
2024-05-31 04:31:32			0	34479	0	0	0	23202	21800	145495	27383	996706	40791	108548	0	0	8121	711997	0	0
2024-05-31 04:32:32			0	34451	0	0	0	23189	21800	145599	27315	996626	40802	108543	0	0	8120	713312	0	0
2024-05-31 04:33:32			0	34441	0	0	0	23194	21790	145611	27171	996636	40779	108545	0	0	8119	713822	0	0
2024-05-31 04:34:32			0	34446	0	0	0	23194	21800	145643	26930	996653	40769	108545	0	0	8119	713547	0	0
2024-05-31 04:35:32			0	34455	0	0	0	23192	21800	145719	27263	996706	40780	108544	0	0	8120	713124	0	0
2024-05-31 04:36:32			0	34450	0	0	0	23186	21800	145515	27116	996661	40791	108542	0	0	8120	713359	0	0
2024-05-31 04:37:32			0	34445	0	0	0	23189	21800	145499	27372	996653	40791	108543	0	0	8119	713594	0	0
2024-05-31 04:38:32			0	34450	0	0	0	23181	21790	145543	27138	996671	40802	108540	0	0	8120	713399	0	0
2024-05-31 04:39:32			0	34454	0	0	0	23192	21790	145587	26991	996644	40780	108544	0	0	8120	713211	0	0
2024-05-31 04:40:32			0	34476	0	0	0	23194	21810	145551	27203	996643	40781	108545	0	0	8121	712099	0	0
2024-05-31 04:41:32			0	34464	0	0	0	23189	21800	145467	27360	996714	40791	108543	0	0	8120	712701	0	0
2024-05-31 04:42:32			0	34448	0	0	0	23192	21790	145523	27346	996716	40779	108544	0	0	8119	713493	0	0
2024-05-31 04:43:32			0	34460	0	0	0	23194	21800	145495	27419	996759	40791	108545	0	0	8120	712889	0	0
2024-05-31 04:44:32			0	34448	0	0	0	23194	21790	145571	27338	996698	40791	108545	0	0	8119	713493	0	0
2024-05-31 04:45:32			0	34451	0	0	0	23197	21790	145583	27208	996698	40813	108546	0	0	8120	713352	0	0
2024-05-31 04:46:32			0	34446	0	0	0	23197	21800	145627	27230	996706	40791	108546	0	0	8119	713547	0	0
2024-05-31 04:47:32			0	34439	0	0	0	23199	21800	145603	27287	996679	40780	108547	0	0	8119	713876	0	0
2024-05-31 04:48:32			0	34457	0	0	0	23189	21790	145535	27192	996671	40780	108543	0	0	8120	713070	0	0
2024-05-31 04:49:32			0	34444	0	0	0	23194	21800	145575	27388	996679	40791	108545	0	0	8119	713641	0	0
2024-05-31 04:50:32			0	34441	0	0	0	23210	21790	145587	27201	996671	40791	108551	0	0	8119	713822	0	0
2024-05-31 04:51:32			0	34447	0	0	0	23189	21790	145659	27274	996671	40780	108543	0	0	8119	713540	0	0
2024-05-31 04:52:32			0	34430	0	0	0	23179	21780	145687	27180	996574	40779	108539	0	0	8119	714379	0	0
2024-05-31 04:53:32			0	34428	0	0	0	23186	21790	145663	27346	996618	40802	108542	0	0	8118	714433	0	0
2024-05-31 04:54:32			0	34408	0	0	0	23189	21800	145727	27281	996688	40791	108543	0	0	8117	715335	0	0
2024-05-31 04:55:32			0	34411	0	0	0	23189	21790	145739	27348	996591	40780	108543	0	0	8117	715233	0	0
2024-05-31 04:56:32			0	34397	0	0	0	23194	21800	145819	27383	996661	40791	108545	0	0	8117	715853	0	0
2024-05-31 04:57:32			0	34395	0	0	0	23189	21790	145875	27261	996565	40769	108543	0	0	8117	715987	0	0
2024-05-31 04:58:32			0	34395	0	0	0	23194	21790	145811	27192	996618	40791	108545	0	0	8116	715987	0	0
2024-05-31 04:59:32			0	34379	0	0	0	23192	21790	145779	27448	996583	40791	108544	0	0	8116	716741	0	0
2024-05-31 05:00:32			0	34385	0	0	0	23189	21790	145895	27339	996671	40802	108543	0	0	8116	716459	0	0
2024-05-31 05:01:32			0	34390	0	0	0	23186	21790	145807	27225	996698	40780	108542	0	0	8116	716223	0	0
2024-05-31 05:02:32			0	34379	0	0	0	23189	21790	145923	27241	996644	40780	108543	0	0	8116	716741	0	0
2024-05-31 05:03:32			0	34400	0	0	0	23192	21800	145915	27447	996626	40791	108544	0	0	8117	715712	0	0
2024-05-31 05:04:32			0	34388	0	0	0	23192	21790	145847	27287	996618	40780	108544	0	0	8116	716317	0	0
2024-05-31 05:05:32			0	34418	0	0	0	23194	21790	145799	27166	996663	40779	108545	0	0	8118	714904	0	0
2024-05-31 05:06:32			0	34408	0	0	0	23197	21790	145815	27239	996644	40780	108546	0	0	8117	715375	0	0
2024-05-31 05:07:32			0	34428	0	0	0	23186	21790	145783	27431	996644	40780	108542	0	0	8118	714433	0	0
2024-05-31 05:08:32			0	34418	0	0	0	23192	21810	145759	27223	996696	40781	108544	0	0	8118	714824	0	0
2024-05-31 05:09:32			0	34403	0	0	0	23202	21790	145871	27357	996663	40779	108548	0	0	8117	715610	0	0
2024-05-31 05:10:32			0	34424	0	0	0	23199	21790	145823	27393	996644	40802	108547	0	0	8118	714622	0	0
2024-05-31 05:11:32			0	34429	0	0	0	23194	21800	145803	27201	996679	40780	108545	0	0	8118	714347	0	0
2024-05-31 05:12:32			0	34418	0	0	0	23194	21790	145639	27090	996663	40779	108545	0	0	8118	714904	0	0
2024-05-31 05:13:32			0	34434	0	0	0	23192	21790	145623	27319	996698	40791	108544	0	0	8119	714151	0	0
2024-05-31 05:14:32			0	34443	0	0	0	23194	21790	145607	27112	996671	40780	108545	0	0	8119	713728	0	0
2024-05-31 05:15:32			0	34433	0	0	0	23189	21790	145643	27033	996698	40802	108543	0	0	8119	714198	0	0
2024-05-31 05:16:32			0	34425	0	0	0	23194	21790	145667	27450	996618	40791	108545	0	0	8118	714574	0	0
2024-05-31 05:17:32			0	34440	0	0	0	23199	21800	145711	27142	996653	40780	108547	0	0	8119	713829	0	0
2024-05-31 05:18:32			0	34421	0	0	0	23189	21800	145767	27235	996661	40791	108543	0	0	8118	714723	0	0
2024-05-31 05:19:32			0	34403	0	0	0	23189	21790	145843	27287	996583	40779	108543	0	0	8117	715610	0	0
2024-05-31 05:20:32			0	34408	0	0	0	23186	21790	145855	27371	996698	40791	108542	0	0	8117	715375	0	0
2024-05-31 05:21:32			0	34414	0	0	0	23186	21790	145963	27234	996689	40779	108542	0	0	8118	715092	0	0
2024-05-31 05:22:32			0	34393	0	0	0	23197	21780	145907	27168	996654	40791	108546	0	0	8116	716121	0	0
2024-05-31 05:23:32			0	34397	0	0	0	23194	21800	145839	27263	996653	40802	108545	0	0	8117	715853	0	0
2024-05-31 05:24:32			0	34402	0	0	0	23194	21790	145851	27182	996644	40780	108545	0	0	8117	715657	0	0
2024-05-31 05:25:32			0	34404	0	0	0	23197	21790	145887	27119	996698	40802	108546	0	0	8117	715563	0	0
2024-05-31 05:26:32			0	34394	0	0	0	23199	21800	145727	27013	996679	40791	108547	0	0	8116	715994	0	0
2024-05-31 05:27:32			0	34412	0	0	0	23192	21790	145811	26882	996698	40802	108544	0	0	8117	715186	0	0
2024-05-31 05:28:32			0	34399	0	0	0	23192	21800	145851	27003	996706	40802	108544	0	0	8117	715759	0	0
2024-05-31 05:29:32			0	34398	0	0	0	23192	21790	145887	26927	996644	40791	108544	0	0	8117	715846	0	0
2024-05-31 05:30:32			0	34407	0	0	0	23194	21800	145771	27374	996706	40791	108545	0	0	8117	715382	0	0
2024-05-31 05:31:32			0	34405	0	0	0	23197	21790	145751	26974	996689	40791	108546	0	0	8117	715516	0	0
2024-05-31 05:32:32			0	34418	0	0	0	23194	21790	145783	27244	996671	40780	108545	0	0	8118	714904	0	0
2024-05-31 05:33:32			0	34399	0	0	0	23189	21800	145859	27069	996733	40791	108543	0	0	8117	715759	0	0
2024-05-31 05:34:32			0	34407	0	0	0	23192	21790	145935	27196	996724	40791	108544	0	0	8117	715422	0	0
2024-05-31 05:35:32			0	34403	0	0	0	23181	21800	145823	27289	996679	40813	108540	0	0	8117	715570	0	0
2024-05-31 05:36:32			0	34398	0	0	0	23176	21790	145831	27450	996689	40779	108538	0	0	8117	715846	0	0
2024-05-31 05:37:32			0	34418	0	0	0	23176	21790	145903	27362	996671	40791	108538	0	0	8118	714904	0	0
2024-05-31 05:38:32			0	34406	0	0	0	23184	21790	145887	27270	996609	40768	108541	0	0	8117	715469	0	0
2024-05-31 05:39:32			0	34385	0	0	0	23179	21800	145947	27498	996653	40791	108539	0	0	8116	716419	0	0
2024-05-31 05:40:32			0	34397	0	0	0	23184	21790	145891	27138	996636	40791	108541	0	0	8117	715893	0	0
2024-05-31 05:41:32			0	34402	0	0	0	23179	21780	145951	27341	996627	40779	108539	0	0	8117	715697	0	0
2024-05-31 05:42:32			0	34396	0	0	0	23168	21790	145959	27265	996663	40791	108535	0	0	8117	715940	0	0
2024-05-31 05:43:32			0	34389	0	0	0	23174	21780	145919	27317	996627	40768	108537	0	0	8116	716310	0	0
2024-05-31 05:44:32			0	34395	0	0	0	23171	21790	145879	27369	996556	40791	108536	0	0	8117	715987	0	0
2024-05-31 05:45:32			0	34396	0	0	0	23179	21780	145895	27031	996601	40768	108539	0	0	8117	715980	0	0
2024-05-31 05:46:32			0	34377	0	0	0	23179	21770	146015	27196	996584	40790	108539	0	0	8116	716916	0	0
2024-05-31 05:47:32			0	34388	0	0	0	23179	21790	145907	27171	996636	40791	108539	0	0	8116	716317	0	0
2024-05-31 05:48:32			0	34401	0	0	0	23181	21780	145951	26963	996646	40800	108540	0	0	8117	715744	0	0
2024-05-31 05:49:32			0	34402	0	0	0	23186	21770	145907	27242	996611	40790	108542	0	0	8117	715737	0	0
2024-05-31 05:50:32			0	34439	0	0	0	23181	21790	145863	27107	996663	40801	108540	0	0	8119	713916	0	0
2024-05-31 05:51:32			0	34441	0	0	0	23181	21780	145783	27064	996601	40779	108540	0	0	8119	713862	0	0
2024-05-31 05:52:32			0	34472	0	0	0	23161	21790	145655	27017	996618	40791	108532	0	0	8121	712366	0	0
2024-05-31 05:53:32			0	34477	0	0	0	23168	21780	145639	27204	996646	40790	108535	0	0	8121	712171	0	0
2024-05-31 05:54:32			0	34470	0	0	0	23171	21770	145519	26856	996611	40779	108536	0	0	8121	712539	0	0
2024-05-31 05:55:32			0	34478	0	0	0	23163	21780	145463	27185	996627	40768	108533	0	0	8122	712124	0	0
2024-05-31 05:56:32			0	34484	0	0	0	23158	21780	145595	27346	996601	40791	108531	0	0	8122	711842	0	0
2024-05-31 05:57:32			0	34480	0	0	0	23161	21780	145579	27152	996654	40791	108532	0	0	8122	712030	0	0
2024-05-31 05:58:32			0	34481	0	0	0	23171	21770	145555	27249	996611	40790	108536	0	0	8122	712023	0	0
2024-05-31 05:59:32			0	34491	0	0	0	23163	21780	145599	27244	996574	40791	108533	0	0	8122	711514	0	0
2024-05-31 06:00:32			0	34493	0	0	0	23166	21770	145643	27199	996602	40799	108534	0	0	8122	711460	0	0
2024-05-31 06:01:32			0	34497	0	0	0	23168	21770	145575	26979	996549	40799	108535	0	0	8122	711272	0	0
2024-05-31 06:02:32			0	34485	0	0	0	23163	21770	145531	27124	996655	40799	108533	0	0	8122	711835	0	0
2024-05-31 06:03:32			0	34512	0	0	0	23168	21770	145523	26795	996602	40810	108535	0	0	8123	710569	0	0
2024-05-31 06:04:32			0	34508	0	0	0	23158	21770	145575	27293	996549	40778	108531	0	0	8123	710757	0	0
2024-05-31 06:05:32			0	34502	0	0	0	23158	21770	145559	27060	996611	40800	108531	0	0	8123	711038	0	0
2024-05-31 06:06:32			0	34474	0	0	0	23161	21770	145663	27116	996664	40800	108532	0	0	8121	712351	0	0
2024-05-31 06:07:32			0	34482	0	0	0	23168	21760	145655	27043	996594	40799	108535	0	0	8122	712015	0	0
2024-05-31 06:08:32			0	34493	0	0	0	23171	21770	145543	26790	996549	40789	108536	0	0	8122	711460	0	0
2024-05-31 06:09:32			0	34529	0	0	0	23166	21770	145507	27156	996629	40789	108534	0	0	8124	709773	0	0
2024-05-31 06:10:32			0	34552	0	0	0	23168	21770	145383	27157	996602	40789	108535	0	0	8126	708697	0	0
2024-05-31 06:11:32			0	34552	0	0	0	23176	21770	145371	27196	996584	40790	108538	0	0	8125	708697	0	0
2024-05-31 06:12:32			0	34592	0	0	0	23168	21760	145223	27355	996638	40777	108535	0	0	8128	706868	0	0
2024-05-31 06:13:32			0	34597	0	0	0	23171	21760	145151	27398	996514	40778	108536	0	0	8128	706635	0	0
2024-05-31 06:14:32			0	34610	0	0	0	23174	21770	144999	27429	996602	40789	108537	0	0	8129	705989	0	0
2024-05-31 06:15:32			0	34619	0	0	0	23163	21760	144923	27055	996559	40788	108533	0	0	8129	705609	0	0
2024-05-31 06:16:32			0	34628	0	0	0	23168	21760	144975	26982	996559	40777	108535	0	0	8130	705190	0	0
2024-05-31 06:17:32			0	34658	0	0	0	23174	21770	144843	27360	996602	40789	108537	0	0	8131	703754	0	0
2024-05-31 06:18:32			0	34656	0	0	0	23163	21770	144847	27064	996602	40789	108533	0	0	8131	703847	0	0
2024-05-31 06:19:32			0	34658	0	0	0	23161	21760	144743	27180	996594	40799	108532	0	0	8132	703793	0	0
2024-05-31 06:20:32			0	34674	0	0	0	23166	21760	144623	26968	996620	40810	108534	0	0	8132	703050	0	0
2024-05-31 06:21:32			0	34719	0	0	0	23163	21770	144671	27138	996576	40789	108533	0	0	8135	700922	0	0
2024-05-31 06:22:32			0	34689	0	0	0	23163	21760	144623	27280	996594	40799	108533	0	0	8133	702353	0	0
2024-05-31 06:23:32			0	34688	0	0	0	23168	21760	144643	26844	996559	40798	108535	0	0	8133	702399	0	0
2024-05-31 06:24:32			0	34699	0	0	0	23163	21760	144751	26892	996559	40788	108533	0	0	8134	701889	0	0
2024-05-31 06:25:32			0	34697	0	0	0	23155	21760	144575	26974	996594	40778	108530	0	0	8134	701982	0	0
2024-05-31 06:26:32			0	34680	0	0	0	23166	21770	144735	27296	996576	40799	108534	0	0	8133	702732	0	0
2024-05-31 06:27:32			0	34674	0	0	0	23166	21770	144791	27057	996576	40799	108534	0	0	8132	703010	0	0
2024-05-31 06:28:32			0	34672	0	0	0	23161	21760	144827	26885	996585	40788	108532	0	0	8132	703143	0	0
2024-05-31 06:29:32			0	34672	0	0	0	23163	21770	144819	26755	996576	40778	108533	0	0	8132	703103	0	0
2024-05-31 06:30:32			0	34655	0	0	0	23166	21760	144791	27272	996612	40798	108534	0	0	8131	703933	0	0
2024-05-31 06:31:32			0	34666	0	0	0	23166	21760	144759	27190	996585	40788	108534	0	0	8132	703421	0	0
2024-05-31 06:32:32			0	34671	0	0	0	23161	21760	144859	27052	996559	40788	108532	0	0	8132	703189	0	0
2024-05-31 06:33:32			0	34674	0	0	0	23161	21760	144723	26901	996540	40778	108532	0	0	8132	703050	0	0
2024-05-31 06:34:32			0	34682	0	0	0	23155	21750	144659	26828	996577	40788	108530	0	0	8133	702717	0	0
2024-05-31 06:35:32			0	34711	0	0	0	23168	21760	144571	27457	996647	40789	108535	0	0	8134	701332	0	0
2024-05-31 06:36:32			0	34725	0	0	0	23174	21760	144443	27372	996559	40798	108537	0	0	8135	700683	0	0
2024-05-31 06:37:32			0	34740	0	0	0	23168	21760	144531	26970	996594	40799	108535	0	0	8136	699988	0	0
2024-05-31 06:38:32			0	34708	0	0	0	23176	21770	144619	27365	996557	40790	108538	0	0	8134	701432	0	0
2024-05-31 06:39:32			0	34679	0	0	0	23163	21760	144611	27365	996620	40766	108533	0	0	8133	702817	0	0
2024-05-31 06:40:32			0	34695	0	0	0	23171	21760	144675	27350	996567	40799	108536	0	0	8133	702074	0	0
2024-05-31 06:41:32			0	34697	0	0	0	23163	21770	144583	27097	996576	40789	108533	0	0	8134	701942	0	0
2024-05-31 06:42:32			0	34740	0	0	0	23168	21760	144615	27352	996594	40789	108535	0	0	8136	699988	0	0
2024-05-31 06:43:32			0	34714	0	0	0	23174	21770	144603	27081	996611	40800	108537	0	0	8134	701154	0	0
2024-05-31 06:44:32			0	34724	0	0	0	23163	21760	144543	27069	996594	40778	108533	0	0	8135	700729	0	0
2024-05-31 06:45:32			0	34700	0	0	0	23161	21760	144591	27268	996647	40799	108532	0	0	8134	701842	0	0
2024-05-31 06:46:32			0	34751	0	0	0	23163	21760	144451	27177	996585	40777	108533	0	0	8137	699478	0	0
2024-05-31 06:47:32			0	34733	0	0	0	23171	21760	144447	27204	996594	40789	108536	0	0	8136	700312	0	0
2024-05-31 06:48:32			0	34741	0	0	0	23174	21770	144559	27114	996576	40799	108537	0	0	8136	699902	0	0
2024-05-31 06:49:32			0	34737	0	0	0	23166	21760	144439	27332	996594	40778	108534	0	0	8136	700127	0	0
2024-05-31 06:50:32			0	34755	0	0	0	23176	21760	144399	27076	996567	40810	108538	0	0	8137	699293	0	0
2024-05-31 06:51:32			0	34746	0	0	0	23179	21770	144407	27156	996602	40789	108539	0	0	8136	699671	0	0
2024-05-31 06:52:32			0	34756	0	0	0	23171	21770	144383	27111	996584	40790	108536	0	0	8137	699208	0	0
2024-05-31 06:53:32			0	34788	0	0	0	23174	21770	144279	27192	996611	40811	108537	0	0	8139	697728	0	0
2024-05-31 06:54:32			0	34778	0	0	0	23176	21770	144259	27012	996549	40789	108538	0	0	8138	698191	0	0
2024-05-31 06:55:32			0	34792	0	0	0	23176	21770	144227	27315	996655	40799	108538	0	0	8139	697544	0	0
2024-05-31 06:56:32			0	34804	0	0	0	23174	21770	144155	27194	996576	40789	108537	0	0	8139	696989	0	0
2024-05-31 06:57:32			0	34792	0	0	0	23179	21770	144307	27098	996637	40790	108539	0	0	8139	697544	0	0
2024-05-31 06:58:32			0	34811	0	0	0	23181	21770	144191	27241	996655	40778	108540	0	0	8140	696666	0	0
2024-05-31 06:59:32			0	34816	0	0	0	23184	21770	144135	27410	996629	40789	108541	0	0	8140	696436	0	0
2024-05-31 07:00:32			0	34832	0	0	0	23181	21770	144127	27118	996611	40800	108540	0	0	8141	695698	0	0
2024-05-31 07:01:32			0	34853	0	0	0	23176	21780	144055	27093	996619	40779	108538	0	0	8142	694691	0	0
2024-05-31 07:02:32			0	34840	0	0	0	23186	21770	144063	26934	996611	40790	108542	0	0	8141	695329	0	0
2024-05-31 07:03:32			0	34841	0	0	0	23186	21770	144063	26797	996637	40790	108542	0	0	8141	695283	0	0
2024-05-31 07:04:32			0	34848	0	0	0	23184	21770	144175	27324	996655	40789	108541	0	0	8142	694960	0	0
2024-05-31 07:05:32			0	34872	0	0	0	23184	21770	143983	26831	996629	40778	108541	0	0	8143	693856	0	0
2024-05-31 07:06:32			0	34881	0	0	0	23184	21790	143987	27168	996671	40802	108541	0	0	8144	693364	0	0
2024-05-31 07:07:32			0	34879	0	0	0	23184	21770	143923	27170	996637	40800	108541	0	0	8143	693534	0	0
2024-05-31 07:08:32			0	34871	0	0	0	23179	21770	143931	26928	996637	40800	108539	0	0	8143	693902	0	0
2024-05-31 07:09:32			0	34872	0	0	0	23184	21780	143863	27213	996646	40790	108541	0	0	8143	693817	0	0
2024-05-31 07:10:32			0	34883	0	0	0	23174	21770	143891	26927	996664	40811	108537	0	0	8144	693350	0	0
2024-05-31 07:11:32			0	34885	0	0	0	23184	21790	143947	27242	996698	40769	108541	0	0	8144	693181	0	0
2024-05-31 07:12:32			0	34884	0	0	0	23199	21770	143807	27303	996690	40790	108547	0	0	8143	693304	0	0
2024-05-31 07:13:32			0	34925	0	0	0	23181	21780	143831	27211	996601	40791	108540	0	0	8146	691382	0	0
2024-05-31 07:14:32			0	34936	0	0	0	23184	21790	143735	27074	996671	40802	108541	0	0	8147	690839	0	0
2024-05-31 07:15:32			0	34911	0	0	0	23181	21780	143803	26960	996619	40779	108540	0	0	8145	692025	0	0
2024-05-31 07:16:32			0	34897	0	0	0	23179	21790	143747	27157	996609	40801	108539	0	0	8145	692629	0	0
2024-05-31 07:17:32			0	34867	0	0	0	23179	21780	143927	27365	996627	40791	108539	0	0	8143	694047	0	0
2024-05-31 07:18:32			0	34863	0	0	0	23179	21780	143919	27232	996646	40779	108539	0	0	8143	694231	0	0
2024-05-31 07:19:32			0	34853	0	0	0	23176	21790	144079	26896	996636	40791	108538	0	0	8142	694653	0	0
2024-05-31 07:20:32			0	34851	0	0	0	23174	21790	143987	27007	996636	40791	108537	0	0	8142	694745	0	0
2024-05-31 07:21:32			0	34844	0	0	0	23163	21780	144063	27053	996654	40791	108533	0	0	8142	695106	0	0
2024-05-31 07:22:32			0	34851	0	0	0	23168	21780	144139	26906	996627	40791	108535	0	0	8142	694783	0	0
2024-05-31 07:23:32			0	34825	0	0	0	23168	21790	144091	27171	996609	40791	108535	0	0	8141	695943	0	0
2024-05-31 07:24:32			0	34854	0	0	0	23168	21770	143971	27010	996602	40810	108535	0	0	8142	694684	0	0
2024-05-31 07:25:32			0	34868	0	0	0	23163	21770	144027	27334	996611	40800	108533	0	0	8143	694040	0	0
2024-05-31 07:26:32			0	34850	0	0	0	23168	21770	143995	27144	996576	40789	108535	0	0	8142	694868	0	0
2024-05-31 07:27:32			0	34859	0	0	0	23161	21780	143955	27374	996681	40791	108532	0	0	8143	694415	0	0
2024-05-31 07:28:32			0	34858	0	0	0	23171	21770	143943	27128	996549	40799	108536	0	0	8142	694500	0	0
2024-05-31 07:29:32			0	34856	0	0	0	23161	21770	144107	27455	996576	40799	108532	0	0	8143	694592	0	0
2024-05-31 07:30:32			0	34840	0	0	0	23163	21770	144167	26918	996629	40789	108533	0	0	8142	695329	0	0
2024-05-31 07:31:32			0	34829	0	0	0	23166	21770	144147	27057	996602	40799	108534	0	0	8141	695836	0	0
2024-05-31 07:32:32			0	34808	0	0	0	23150	21780	144151	27227	996592	40790	108528	0	0	8140	696766	0	0
2024-05-31 07:33:32			0	34807	0	0	0	23161	21770	144227	27083	996611	40790	108532	0	0	8140	696851	0	0
2024-05-31 07:34:32			0	34820	0	0	0	23161	21770	144287	27222	996602	40789	108532	0	0	8141	696251	0	0
2024-05-31 07:35:32			0	34806	0	0	0	23158	21750	144247	27161	996630	40777	108531	0	0	8140	696975	0	0
2024-05-31 07:36:32			0	34772	0	0	0	23166	21760	144295	27196	996567	40789	108534	0	0	8138	698507	0	0
2024-05-31 07:37:32			0	34795	0	0	0	23163	21760	144379	26771	996567	40799	108533	0	0	8139	697444	0	0
2024-05-31 07:38:32			0	34743	0	0	0	23155	21750	144527	27253	996577	40788	108530	0	0	8136	699888	0	0
2024-05-31 07:39:32			0	34734	0	0	0	23150	21760	144631	27052	996559	40788	108528	0	0	8136	700266	0	0
2024-05-31 07:40:32			0	34703	0	0	0	23145	21760	144655	27364	996559	40788	108526	0	0	8134	701703	0	0
2024-05-31 07:41:32			0	34689	0	0	0	23145	21750	144795	27180	996550	40788	108526	0	0	8133	702392	0	0
2024-05-31 07:42:32			0	34653	0	0	0	23145	21750	144947	27360	996497	40788	108526	0	0	8131	704065	0	0
2024-05-31 07:43:32			0	34619	0	0	0	23153	21760	145079	27272	996567	40799	108529	0	0	8129	705609	0	0
2024-05-31 07:44:32			0	34602	0	0	0	23148	21750	145047	26982	996550	40798	108527	0	0	8129	706441	0	0
2024-05-31 07:45:32			0	34595	0	0	0	23155	21760	145187	27180	996585	40788	108530	0	0	8128	706728	0	0
2024-05-31 07:46:32			0	34584	0	0	0	23140	21750	145231	27329	996568	40787	108524	0	0	8128	707281	0	0
2024-05-31 07:47:32			0	34522	0	0	0	23142	21750	145479	27384	996568	40809	108525	0	0	8124	710180	0	0
2024-05-31 07:48:32			0	34460	0	0	0	23132	21750	145647	27254	996524	40798	108521	0	0	8121	713088	0	0
2024-05-31 07:49:32			0	34403	0	0	0	23135	21750	145955	27213	996515	40797	108522	0	0	8118	715770	0	0
2024-05-31 07:50:32			0	34348	0	0	0	23137	21750	146135	27388	996489	40787	108523	0	0	8115	718365	0	0
2024-05-31 07:51:32			0	34344	0	0	0	23140	21750	146314	27457	996489	40787	108524	0	0	8114	718554	0	0
2024-05-31 07:52:32			0	34338	0	0	0	23140	21740	146370	27228	996498	40786	108524	0	0	8114	718877	0	0
2024-05-31 07:53:32			0	34318	0	0	0	23145	21740	146358	27261	996507	40797	108526	0	0	8113	719823	0	0
2024-05-31 07:54:32			0	34334	0	0	0	23132	21740	146386	27194	996480	40787	108521	0	0	8114	719066	0	0
2024-05-31 07:55:32			0	34304	0	0	0	23137	21740	146346	27471	996418	40775	108523	0	0	8112	720486	0	0
2024-05-31 07:56:32			0	34280	0	0	0	23140	21740	146394	27220	996533	40776	108524	0	0	8111	721623	0	0
2024-05-31 07:57:32			0	34296	0	0	0	23137	21740	146362	27371	996551	40786	108523	0	0	8112	720865	0	0
2024-05-31 07:58:32			0	34290	0	0	0	23137	21740	146378	27215	996507	40809	108523	0	0	8111	721149	0	0
2024-05-31 07:59:32			0	34285	0	0	0	23137	21740	146466	27466	996498	40808	108523	0	0	8111	721386	0	0
2024-05-31 08:00:32			0	34296	0	0	0	23135	21740	146430	27526	996525	40786	108522	0	0	8112	720865	0	0
2024-05-31 08:01:32			0	34303	0	0	0	23140	21740	146462	27345	996480	40797	108524	0	0	8112	720533	0	0
2024-05-31 08:02:32			0	34307	0	0	0	23135	21740	146390	27263	996507	40776	108522	0	0	8112	720344	0	0
2024-05-31 08:03:32			0	34297	0	0	0	23132	21740	146358	27526	996507	40787	108521	0	0	8112	720817	0	0
2024-05-31 08:04:32			0	34301	0	0	0	23124	21740	146394	27287	996498	40808	108518	0	0	8112	720628	0	0
2024-05-31 08:05:32			0	34296	0	0	0	23135	21730	146398	27263	996481	40796	108522	0	0	8112	720905	0	0
2024-05-31 08:06:32			0	34297	0	0	0	23129	21740	146450	27452	996498	40797	108520	0	0	8112	720817	0	0
2024-05-31 08:07:32			0	34310	0	0	0	23132	21740	146446	27164	996525	40786	108521	0	0	8113	720202	0	0
2024-05-31 08:08:32			0	34294	0	0	0	23127	21740	146346	27305	996472	40808	108519	0	0	8112	720960	0	0
2024-05-31 08:09:32			0	34295	0	0	0	23124	21740	146386	27450	996445	40786	108518	0	0	8112	720912	0	0
2024-05-31 08:10:32			0	34304	0	0	0	23129	21740	146366	27310	996472	40786	108520	0	0	8112	720486	0	0
2024-05-31 08:11:32			0	34296	0	0	0	23129	21730	146390	27429	996516	40785	108520	0	0	8112	720905	0	0
2024-05-31 08:12:32			0	34298	0	0	0	23127	21730	146402	27112	996463	40807	108519	0	0	8112	720810	0	0
2024-05-31 08:13:32			0	34315	0	0	0	23124	21740	146522	27260	996445	40797	108518	0	0	8113	719965	0	0
2024-05-31 08:14:32			0	34320	0	0	0	23129	21740	146394	27357	996445	40808	108520	0	0	8113	719729	0	0
2024-05-31 08:15:32			0	34304	0	0	0	23122	21740	146358	27355	996472	40775	108517	0	0	8112	720486	0	0
2024-05-31 08:16:32			0	34301	0	0	0	23119	21730	146378	27317	996463	40796	108516	0	0	8112	720668	0	0
2024-05-31 08:17:32			0	34316	0	0	0	23122	21730	146470	27246	996463	40785	108517	0	0	8113	719958	0	0
2024-05-31 08:18:32			0	34321	0	0	0	23119	21730	146466	27220	996481	40785	108516	0	0	8113	719721	0	0
2024-05-31 08:19:32			0	34315	0	0	0	23122	21730	146386	27474	996402	40763	108517	0	0	8113	720005	0	0
2024-05-31 08:20:32			0	34343	0	0	0	23119	21720	146202	27149	996446	40774	108516	0	0	8114	718721	0	0
2024-05-31 08:21:32			0	34369	0	0	0	23111	21730	146215	27142	996357	40785	108513	0	0	8116	717453	0	0
2024-05-31 08:22:32			0	34341	0	0	0	23114	21720	146298	27189	996420	40774	108514	0	0	8114	718815	0	0
2024-05-31 08:23:32			0	34342	0	0	0	23106	21720	146310	27352	996446	40796	108511	0	0	8115	718768	0	0
2024-05-31 08:24:32			0	34333	0	0	0	23116	21730	146378	27187	996428	40774	108515	0	0	8114	719154	0	0
2024-05-31 08:25:32			0	34326	0	0	0	23103	21720	146406	27346	996411	40795	108510	0	0	8114	719525	0	0
2024-05-31 08:26:32			0	34356	0	0	0	23114	21730	146415	27111	996428	40785	108514	0	0	8115	718067	0	0
2024-05-31 08:27:32			0	34343	0	0	0	23106	21720	146346	27015	996446	40763	108511	0	0	8115	718721	0	0
2024-05-31 08:28:32			0	34370	0	0	0	23101	21720	146131	27291	996393	40774	108509	0	0	8116	717446	0	0
2024-05-31 08:29:32			0	34367	0	0	0	23101	21710	146159	27343	996296	40784	108509	0	0	8116	717627	0	0
2024-05-31 08:30:32			0	34378	0	0	0	23109	21710	146295	27220	996394	40805	108512	0	0	8117	717108	0	0
2024-05-31 08:31:32			0	34358	0	0	0	23106	21720	146251	27118	996358	40773	108511	0	0	8116	718012	0	0
2024-05-31 08:32:32			0	34372	0	0	0	23103	21710	146219	27286	996403	40784	108510	0	0	8116	717391	0	0
2024-05-31 08:33:32			0	34368	0	0	0	23096	21710	146227	27379	996368	40784	108507	0	0	8116	717580	0	0
2024-05-31 08:34:32			0	34350	0	0	0	23103	21710	146227	27092	996403	40794	108510	0	0	8115	718430	0	0
2024-05-31 08:35:32			0	34397	0	0	0	23103	21720	146199	27319	996385	40795	108510	0	0	8118	716172	0	0
2024-05-31 08:36:32			0	34397	0	0	0	23114	21710	146143	26987	996376	40784	108514	0	0	8118	716212	0	0
2024-05-31 08:37:32			0	34419	0	0	0	23103	21710	146047	27582	996350	40772	108510	0	0	8119	715175	0	0
2024-05-31 08:38:32			0	34408	0	0	0	23101	21710	146095	27183	996288	40794	108509	0	0	8118	715693	0	0
2024-05-31 08:39:32			0	34389	0	0	0	23103	21710	146135	27550	996394	40772	108510	0	0	8117	716589	0	0
2024-05-31 08:40:32			0	34392	0	0	0	23103	21690	146211	27329	996351	40793	108510	0	0	8117	716527	0	0
2024-05-31 08:41:32			0	34382	0	0	0	23098	21710	146167	27559	996368	40772	108508	0	0	8117	716919	0	0
2024-05-31 08:42:32			0	34377	0	0	0	23106	21700	146231	27409	996332	40804	108511	0	0	8117	717195	0	0
2024-05-31 08:43:32			0	34385	0	0	0	23098	21700	146135	27447	996332	40783	108508	0	0	8117	716818	0	0
2024-05-31 08:44:32			0	34423	0	0	0	23103	21700	146111	27429	996332	40793	108510	0	0	8119	715027	0	0
2024-05-31 08:45:32			0	34418	0	0	0	23098	21700	146095	27469	996306	40783	108508	0	0	8119	715262	0	0
2024-05-31 08:46:32			0	34422	0	0	0	23090	21710	145895	27424	996368	40784	108505	0	0	8119	715034	0	0
2024-05-31 08:47:32			0	34441	0	0	0	23098	21690	145999	27306	996351	40793	108508	0	0	8120	714219	0	0
2024-05-31 08:48:32			0	34429	0	0	0	23098	21710	145939	27187	996315	40772	108508	0	0	8120	714704	0	0
2024-05-31 08:49:32			0	34443	0	0	0	23096	21690	145959	27022	996209	40792	108507	0	0	8120	714125	0	0
2024-05-31 08:50:32			0	34421	0	0	0	23101	21690	146007	27315	996271	40760	108509	0	0	8119	715161	0	0
2024-05-31 08:51:32			0	34456	0	0	0	23096	21690	145947	27386	996271	40783	108507	0	0	8121	713514	0	0
2024-05-31 08:52:32			0	34462	0	0	0	23101	21710	145831	27249	996341	40784	108509	0	0	8121	713153	0	0
2024-05-31 08:53:32			0	34482	0	0	0	23098	21690	145747	27545	996271	40793	108508	0	0	8122	712293	0	0
2024-05-31 08:54:32			0	34481	0	0	0	23103	21700	145735	27265	996253	40771	108510	0	0	8122	712300	0	0
2024-05-31 08:55:32			0	34472	0	0	0	23109	21700	145659	27286	996359	40793	108512	0	0	8122	712723	0	0
2024-05-31 08:56:32			0	34494	0	0	0	23111	21710	145739	27414	996315	40784	108513	0	0	8123	711650	0	0
2024-05-31 08:57:32			0	34497	0	0	0	23103	21690	145587	27326	996351	40793	108510	0	0	8123	711589	0	0
2024-05-31 08:58:32			0	34518	0	0	0	23098	21690	145623	27282	996316	40792	108508	0	0	8124	710604	0	0
2024-05-31 08:59:32			0	34514	0	0	0	23109	21710	145783	27338	996421	40784	108512	0	0	8124	710713	0	0
2024-05-31 09:00:32			0	34523	0	0	0	23103	21700	145583	27275	996279	40804	108510	0	0	8125	710331	0	0
2024-05-31 09:01:32			0	34532	0	0	0	23093	21690	145659	27364	996271	40783	108506	0	0	8125	709949	0	0
2024-05-31 09:02:32			0	34485	0	0	0	23101	21690	145603	27327	996316	40803	108509	0	0	8123	712152	0	0
2024-05-31 09:03:32			0	34494	0	0	0	23096	21690	145623	27345	996351	40793	108507	0	0	8123	711730	0	0
2024-05-31 09:04:32			0	34534	0	0	0	23101	21690	145615	26974	996324	40793	108509	0	0	8125	709855	0	0
2024-05-31 09:05:32			0	34530	0	0	0	23103	21690	145599	27564	996342	40771	108510	0	0	8125	710042	0	0
2024-05-31 09:06:32			0	34544	0	0	0	23103	21690	145511	27535	996369	40792	108510	0	0	8126	709387	0	0
2024-05-31 09:07:32			0	34540	0	0	0	23106	21700	145467	27479	996412	40793	108511	0	0	8126	709535	0	0
2024-05-31 09:08:32			0	34568	0	0	0	23114	21710	145471	27346	996456	40784	108514	0	0	8127	708186	0	0
2024-05-31 09:09:32			0	34569	0	0	0	23106	21710	145415	27128	996296	40794	108511	0	0	8127	708139	0	0
2024-05-31 09:10:32			0	34592	0	0	0	23114	21710	145395	27171	996368	40805	108514	0	0	8128	707065	0	0
2024-05-31 09:11:32			0	34611	0	0	0	23119	21700	145259	27242	996386	40783	108516	0	0	8129	706218	0	0
2024-05-31 09:12:32			0	34654	0	0	0	23116	21710	145135	27140	996421	40805	108515	0	0	8132	704176	0	0
2024-05-31 09:13:32			0	34658	0	0	0	23116	21710	145195	27353	996394	40794	108515	0	0	8132	703989	0	0
2024-05-31 09:14:32			0	34667	0	0	0	23119	21700	145123	27483	996439	40804	108516	0	0	8132	703610	0	0
2024-05-31 09:15:32			0	34653	0	0	0	23119	21720	144999	27341	996385	40784	108516	0	0	8132	704183	0	0
2024-05-31 09:16:32			0	34705	0	0	0	23122	21720	144875	27305	996473	40774	108517	0	0	8135	701766	0	0
2024-05-31 09:17:32			0	34717	0	0	0	23135	21720	144915	27189	996438	40817	108522	0	0	8135	701210	0	0
2024-05-31 09:18:32			0	34712	0	0	0	23129	21720	144879	27431	996465	40806	108520	0	0	8135	701442	0	0
2024-05-31 09:19:32			0	34719	0	0	0	23135	21710	144903	27421	996474	40772	108522	0	0	8135	701156	0	0
2024-05-31 09:20:32			0	34721	0	0	0	23129	21710	144759	27327	996368	40784	108520	0	0	8135	701063	0	0
2024-05-31 09:21:32			0	34733	0	0	0	23135	21710	144755	27552	996430	40805	108522	0	0	8136	700507	0	0
2024-05-31 09:22:32			0	34770	0	0	0	23145	21720	144659	27222	996500	40785	108526	0	0	8138	698755	0	0
2024-05-31 09:23:32			0	34793	0	0	0	23137	21730	144467	27095	996481	40774	108523	0	0	8139	697653	0	0
2024-05-31 09:24:32			0	34805	0	0	0	23140	21730	144483	27329	996481	40785	108524	0	0	8140	697098	0	0
2024-05-31 09:25:32			0	34846	0	0	0	23155	21730	144283	27490	996508	40796	108530	0	0	8142	695207	0	0
2024-05-31 09:26:32			0	34894	0	0	0	23174	21730	144035	27072	996516	40796	108537	0	0	8144	692998	0	0
2024-05-31 09:27:32			0	34961	0	0	0	23174	21740	143879	27003	996605	40808	108537	0	0	8148	689885	0	0
2024-05-31 09:28:32			0	34992	0	0	0	23168	21740	143787	27197	996666	40787	108535	0	0	8150	688466	0	0
2024-05-31 09:29:32			0	35018	0	0	0	23174	21740	143563	27630	996587	40787	108537	0	0	8151	687278	0	0
2024-05-31 09:30:32			0	35021	0	0	0	23163	21740	143631	27170	996587	40809	108533	0	0	8151	687141	0	0
2024-05-31 09:31:32			0	34995	0	0	0	23163	21750	143603	27043	996568	40820	108533	0	0	8150	688291	0	0
2024-05-31 09:32:32			0	34994	0	0	0	23166	21740	143679	27261	996613	40809	108534	0	0	8150	688375	0	0
2024-05-31 09:33:32			0	34977	0	0	0	23161	21750	143731	27267	996603	40810	108532	0	0	8149	689114	0	0
2024-05-31 09:34:32			0	34977	0	0	0	23150	21750	143851	27455	996630	40810	108528	0	0	8149	689114	0	0
2024-05-31 09:35:32			0	34928	0	0	0	23145	21750	144015	27509	996595	40787	108526	0	0	8147	691360	0	0
2024-05-31 09:36:32			0	34909	0	0	0	23158	21750	144067	27443	996710	40810	108531	0	0	8145	692232	0	0
2024-05-31 09:37:32			0	34911	0	0	0	23171	21750	143947	27412	996550	40788	108536	0	0	8145	692140	0	0
2024-05-31 09:38:32			0	34911	0	0	0	23158	21740	144023	27312	996587	40787	108531	0	0	8145	692179	0	0
2024-05-31 09:39:32			0	34928	0	0	0	23163	21760	144063	27537	996620	40799	108533	0	0	8146	691321	0	0
2024-05-31 09:40:32			0	34942	0	0	0	23176	21760	143927	27403	996647	40799	108538	0	0	8147	690679	0	0
2024-05-31 09:41:32			0	34974	0	0	0	23189	21760	143743	27234	996665	40798	108543	0	0	8148	689213	0	0
2024-05-31 09:42:32			0	34982	0	0	0	23179	21770	143719	27346	996655	40799	108539	0	0	8149	688809	0	0
2024-05-31 09:43:32			0	34984	0	0	0	23174	21760	143783	27438	996674	40799	108537	0	0	8149	688755	0	0
2024-05-31 09:44:32			0	34990	0	0	0	23176	21770	143647	27220	996629	40810	108538	0	0	8150	688443	0	0
2024-05-31 09:45:32			0	34974	0	0	0	23168	21760	143659	27372	996647	40810	108535	0	0	8149	689213	0	0
2024-05-31 09:46:32			0	34936	0	0	0	23168	21760	143931	27557	996594	40810	108535	0	0	8147	690954	0	0
2024-05-31 09:47:32			0	34939	0	0	0	23176	21770	143987	27199	996682	40822	108538	0	0	8147	690778	0	0
2024-05-31 09:48:32			0	34911	0	0	0	23171	21760	143987	27149	996647	40810	108536	0	0	8145	692102	0	0
2024-05-31 09:49:32			0	34896	0	0	0	23171	21760	144035	27261	996638	40810	108536	0	0	8145	692791	0	0
2024-05-31 09:50:32			0	34895	0	0	0	23163	21760	143935	27763	996647	40810	108533	0	0	8145	692837	0	0
2024-05-31 09:51:32			0	34926	0	0	0	23168	21760	143979	27227	996638	40798	108535	0	0	8146	691413	0	0
2024-05-31 09:52:32			0	34915	0	0	0	23176	21770	143975	27253	996690	40800	108538	0	0	8146	691879	0	0
2024-05-31 09:53:32			0	34913	0	0	0	23163	21770	144023	27450	996690	40811	108533	0	0	8146	691971	0	0
2024-05-31 09:54:32			0	34925	0	0	0	23171	21770	144071	27381	996717	40800	108536	0	0	8146	691421	0	0
2024-05-31 09:55:32			0	34931	0	0	0	23174	21770	143899	27531	996717	40800	108537	0	0	8146	691145	0	0
2024-05-31 09:56:32			0	34931	0	0	0	23176	21780	143835	27223	996654	40801	108538	0	0	8146	691107	0	0
2024-05-31 09:57:32			0	34918	0	0	0	23171	21770	143927	27428	996682	40810	108536	0	0	8146	691742	0	0
2024-05-31 09:58:32			0	34955	0	0	0	23176	21770	143919	27251	996655	40810	108538	0	0	8148	690045	0	0
2024-05-31 09:59:32			0	34963	0	0	0	23179	21770	143835	27281	996717	40790	108539	0	0	8148	689679	0	0
2024-05-31 10:00:32			0	34962	0	0	0	23184	21770	143755	27386	996717	40800	108541	0	0	8148	689724	0	0
2024-05-31 10:01:32			0	34954	0	0	0	23189	21780	143819	27104	996761	40801	108543	0	0	8147	690052	0	0
2024-05-31 10:02:32			0	34973	0	0	0	23192	21770	143711	27336	996744	40800	108544	0	0	8148	689221	0	0
2024-05-31 10:03:32			0	34983	0	0	0	23186	21780	143775	27161	996779	40811	108542	0	0	8149	688725	0	0
2024-05-31 10:04:32			0	34990	0	0	0	23197	21790	143691	27100	996742	40801	108546	0	0	8149	688366	0	0
2024-05-31 10:05:32			0	34997	0	0	0	23192	21770	143763	27369	996709	40778	108544	0	0	8150	688123	0	0
2024-05-31 10:06:32			0	34968	0	0	0	23199	21780	143775	27500	996752	40811	108547	0	0	8148	689411	0	0
2024-05-31 10:07:32			0	34975	0	0	0	23202	21780	143727	27215	996787	40812	108548	0	0	8148	689091	0	0
2024-05-31 10:08:32			0	34980	0	0	0	23202	21790	143703	27322	996796	40791	108548	0	0	8149	688824	0	0
2024-05-31 10:09:32			0	34986	0	0	0	23202	21780	143851	27450	996761	40812	108548	0	0	8149	688587	0	0
2024-05-31 10:10:32			0	34960	0	0	0	23199	21790	143919	27244	996769	40812	108547	0	0	8148	689739	0	0
2024-05-31 10:11:32			0	34982	0	0	0	23202	21800	143703	27665	996786	40802	108548	0	0	8149	688694	0	0
2024-05-31 10:12:32			0	35001	0	0	0	23202	21790	143735	27474	996831	40813	108548	0	0	8150	687863	0	0
2024-05-31 10:13:32			0	34971	0	0	0	23205	21790	143627	27377	996796	40801	108549	0	0	8148	689235	0	0
2024-05-31 10:14:32			0	34993	0	0	0	23197	21790	143739	27277	996804	40802	108546	0	0	8150	688229	0	0
2024-05-31 10:15:32			0	34969	0	0	0	23205	21790	143767	27398	996777	40813	108549	0	0	8148	689327	0	0
2024-05-31 10:16:32			0	34959	0	0	0	23199	21810	143775	27355	996803	40781	108547	0	0	8148	689708	0	0
2024-05-31 10:17:32			0	34962	0	0	0	23207	21800	143703	27031	996821	40825	108550	0	0	8148	689609	0	0
2024-05-31 10:18:32			0	34980	0	0	0	23212	21800	143755	27092	996821	40803	108552	0	0	8149	688785	0	0
2024-05-31 10:19:32			0	34964	0	0	0	23210	21810	143787	27462	996803	40825	108551	0	0	8148	689479	0	0
2024-05-31 10:20:32			0	34961	0	0	0	23202	21790	143691	27296	996849	40812	108548	0	0	8148	689693	0	0
2024-05-31 10:21:32			0	34988	0	0	0	23205	21800	143775	27384	996812	40813	108549	0	0	8149	688419	0	0
2024-05-31 10:22:32			0	34977	0	0	0	23205	21800	143767	27383	996812	40813	108549	0	0	8149	688922	0	0
2024-05-31 10:23:32			0	34975	0	0	0	23207	21810	143775	27327	996883	40814	108550	0	0	8148	688976	0	0
2024-05-31 10:24:32			0	34965	0	0	0	23207	21800	143807	27183	996812	40824	108550	0	0	8148	689472	0	0
2024-05-31 10:25:32			0	34958	0	0	0	23212	21810	143791	27223	996829	40825	108552	0	0	8147	689754	0	0
2024-05-31 10:26:32			0	34952	0	0	0	23207	21800	143815	27201	996821	40814	108550	0	0	8147	690067	0	0
2024-05-31 10:27:32			0	34955	0	0	0	23218	21810	143935	27093	996856	40803	108554	0	0	8147	689891	0	0
2024-05-31 10:28:32			0	34949	0	0	0	23223	21810	143851	27228	996883	40803	108556	0	0	8147	690166	0	0
2024-05-31 10:29:32			0	34952	0	0	0	23236	21800	143827	27286	996919	40824	108561	0	0	8147	690067	0	0
2024-05-31 10:30:32			0	34947	0	0	0	23225	21810	143887	27633	996864	40792	108557	0	0	8147	690258	0	0
2024-05-31 10:31:32			0	34938	0	0	0	23231	21820	143903	27326	996935	40816	108559	0	0	8146	690632	0	0
2024-05-31 10:32:32			0	34933	0	0	0	23233	21820	143879	27372	996935	40827	108560	0	0	8146	690861	0	0
2024-05-31 10:33:32			0	34945	0	0	0	23238	21820	143879	27441	996908	40805	108562	0	0	8146	690311	0	0
2024-05-31 10:34:32			0	34947	0	0	0	23246	21820	143851	27121	996953	40827	108565	0	0	8146	690219	0	0
2024-05-31 10:35:32			0	34931	0	0	0	23236	21830	143963	27216	996996	40817	108561	0	0	8146	690914	0	0
2024-05-31 10:36:32			0	34931	0	0	0	23251	21830	143879	27485	996996	40817	108567	0	0	8145	690914	0	0
2024-05-31 10:37:32			0	34954	0	0	0	23277	21830	143919	27472	996996	40817	108577	0	0	8146	689860	0	0
2024-05-31 10:38:32			0	34939	0	0	0	23257	21830	143903	27305	997005	40805	108569	0	0	8146	690548	0	0
2024-05-31 10:39:32			0	34951	0	0	0	23262	21840	143863	27396	996987	40829	108571	0	0	8146	689959	0	0
2024-05-31 10:40:32			0	34942	0	0	0	23272	21830	143811	27530	997058	40817	108575	0	0	8146	690410	0	0
2024-05-31 10:41:32			0	34953	0	0	0	23264	21840	143895	27059	996995	40829	108572	0	0	8146	689868	0	0
2024-05-31 10:42:32			0	34953	0	0	0	23277	21850	143851	27310	997030	40818	108577	0	0	8146	689829	0	0
2024-05-31 10:43:32			0	34949	0	0	0	23272	21850	143743	27504	997057	40818	108575	0	0	8146	690012	0	0
2024-05-31 10:44:32			0	34963	0	0	0	23285	21850	143795	27651	997057	40830	108580	0	0	8147	689371	0	0
2024-05-31 10:45:32			0	34961	0	0	0	23303	21850	143831	27346	997145	40830	108587	0	0	8146	689463	0	0
2024-05-31 10:46:32			0	34979	0	0	0	23290	21870	143847	27341	997117	40831	108582	0	0	8148	688562	0	0
2024-05-31 10:47:32			0	34979	0	0	0	23285	21860	143695	27336	997162	40820	108580	0	0	8148	688601	0	0
2024-05-31 10:48:32			0	34992	0	0	0	23306	21870	143715	27339	997144	40831	108588	0	0	8148	687968	0	0
2024-05-31 10:49:32			0	34997	0	0	0	23311	21870	143667	27209	997144	40820	108590	0	0	8148	687739	0	0
2024-05-31 10:50:32			0	34993	0	0	0	23327	21880	143751	27081	997241	40832	108596	0	0	8148	687884	0	0
2024-05-31 10:51:32			0	35000	0	0	0	23316	21880	143599	27229	997223	40822	108592	0	0	8148	687564	0	0
2024-05-31 10:52:32			0	35002	0	0	0	23316	21880	143555	27467	997223	40833	108592	0	0	8148	687473	0	0
2024-05-31 10:53:32			0	35023	0	0	0	23340	21890	143551	27514	997319	40822	108601	0	0	8149	686476	0	0
2024-05-31 10:54:32			0	35026	0	0	0	23335	21890	143599	27377	997337	40822	108599	0	0	8149	686339	0	0
2024-05-31 10:55:32			0	35012	0	0	0	23361	21900	143559	27111	997381	40823	108609	0	0	8148	686940	0	0
2024-05-31 10:56:32			0	35040	0	0	0	23358	21900	143483	27398	997336	40834	108608	0	0	8150	685662	0	0
2024-05-31 10:57:32			0	35054	0	0	0	23337	21900	143507	27573	997389	40824	108600	0	0	8151	685024	0	0
2024-05-31 10:58:32			0	35028	0	0	0	23335	21900	143523	27391	997389	40824	108599	0	0	8150	686209	0	0
2024-05-31 10:59:32			0	35022	0	0	0	23311	21910	143435	27249	997380	40825	108590	0	0	8150	686445	0	0
2024-05-31 11:00:32			0	35061	0	0	0	23329	21910	143375	27433	997371	40834	108597	0	0	8152	684667	0	0
2024-05-31 11:01:32			0	35066	0	0	0	23361	21910	143423	27353	997371	40824	108609	0	0	8151	684439	0	0
2024-05-31 11:02:32			0	35083	0	0	0	23363	21920	143387	27473	997415	40835	108610	0	0	8152	683628	0	0
2024-05-31 11:03:32			0	35087	0	0	0	23366	21920	143279	27144	997495	40835	108611	0	0	8152	683446	0	0
2024-05-31 11:04:32			0	35086	0	0	0	23355	21930	143243	27338	997458	40837	108607	0	0	8153	683453	0	0
2024-05-31 11:05:32			0	35090	0	0	0	23366	21930	143235	27332	997458	40815	108611	0	0	8153	683271	0	0
2024-05-31 11:06:32			0	35121	0	0	0	23371	21940	143196	26984	997555	40837	108613	0	0	8154	681825	0	0
2024-05-31 11:07:32			0	35113	0	0	0	23397	21940	143184	27248	997528	40826	108623	0	0	8153	682188	0	0
2024-05-31 11:08:32			0	35139	0	0	0	23397	21950	143148	27043	997625	40850	108623	0	0	8155	680970	0	0
2024-05-31 11:09:32			0	35159	0	0	0	23407	21950	143016	27253	997607	40828	108627	0	0	8156	680063	0	0
2024-05-31 11:10:32			0	35150	0	0	0	23384	21960	142956	27296	997642	40838	108618	0	0	8156	680433	0	0
2024-05-31 11:11:32			0	35159	0	0	0	23392	21950	142956	27450	997607	40828	108621	0	0	8156	680063	0	0
2024-05-31 11:12:32			0	35172	0	0	0	23412	21950	142932	27289	997581	40850	108629	0	0	8156	679475	0	0
2024-05-31 11:13:32			0	35176	0	0	0	23412	21970	142852	27071	997606	40851	108629	0	0	8157	679218	0	0
2024-05-31 11:14:32			0	35197	0	0	0	23392	21970	142752	27438	997668	40840	108621	0	0	8158	678268	0	0
2024-05-31 11:15:32			0	35210	0	0	0	23412	21970	142780	27599	997641	40840	108629	0	0	8159	677680	0	0
2024-05-31 11:16:32			0	35231	0	0	0	23428	21970	142532	27457	997659	40830	108635	0	0	8159	676732	0	0
2024-05-31 11:17:32			0	35235	0	0	0	23438	21980	142512	27274	997685	40831	108639	0	0	8160	676513	0	0
2024-05-31 11:18:32			0	35244	0	0	0	23454	21980	142472	27199	997738	40852	108645	0	0	8160	676107	0	0
2024-05-31 11:19:32			0	35275	0	0	0	23449	22000	142452	27263	997790	40854	108643	0	0	8162	674635	0	0
2024-05-31 11:20:32			0	35288	0	0	0	23483	22010	142436	27320	997905	40854	108656	0	0	8162	674012	0	0
2024-05-31 11:21:32			0	35299	0	0	0	23449	22010	142264	27102	997878	40843	108643	0	0	8163	673517	0	0
2024-05-31 11:22:32			0	35310	0	0	0	23457	22020	142180	27350	997948	40856	108646	0	0	8163	672985	0	0
2024-05-31 11:23:32			0	35316	0	0	0	23449	22030	142208	27415	998000	40857	108643	0	0	8164	672677	0	0
2024-05-31 11:24:32			0	35330	0	0	0	23467	22020	142156	27067	997930	40845	108650	0	0	8164	672086	0	0
2024-05-31 11:25:32			0	35363	0	0	0	23490	22030	142136	27410	998018	40845	108659	0	0	8166	670568	0	0
2024-05-31 11:26:32			0	35348	0	0	0	23477	22030	142100	27644	998027	40834	108654	0	0	8165	671241	0	0
2024-05-31 11:27:32			0	35364	0	0	0	23459	22030	142076	27492	997947	40846	108647	0	0	8166	670523	0	0
2024-05-31 11:28:32			0	35372	0	0	0	23457	22040	142004	27300	997955	40858	108646	0	0	8167	670127	0	0
2024-05-31 11:29:32			0	35382	0	0	0	23467	22040	141956	27022	997982	40835	108650	0	0	8167	669679	0	0
2024-05-31 11:30:32			0	35408	0	0	0	23483	22040	141932	27235	997964	40846	108656	0	0	8168	668515	0	0
2024-05-31 11:31:32			0	35414	0	0	0	23477	22050	141900	27230	997999	40858	108654	0	0	8169	668210	0	0
2024-05-31 11:32:32			0	35415	0	0	0	23464	22050	141916	27216	997999	40846	108649	0	0	8169	668165	0	0
2024-05-31 11:33:32			0	35408	0	0	0	23470	22050	141812	27339	998026	40835	108651	0	0	8169	668478	0	0
2024-05-31 11:34:32			0	35433	0	0	0	23441	22050	141800	27415	998026	40846	108640	0	0	8171	667361	0	0
2024-05-31 11:35:32			0	35412	0	0	0	23457	22050	141736	27490	997999	40825	108646	0	0	8169	668299	0	0
2024-05-31 11:36:32			0	35432	0	0	0	23449	22060	141788	27483	997963	40815	108643	0	0	8170	667368	0	0
2024-05-31 11:37:32			0	35425	0	0	0	23457	22050	141772	27286	998026	40858	108646	0	0	8170	667718	0	0
2024-05-31 11:38:32			0	35457	0	0	0	23438	22050	141676	27268	997999	40858	108639	0	0	8172	666289	0	0
2024-05-31 11:39:32			0	35451	0	0	0	23451	22050	141716	26915	998026	40835	108644	0	0	8171	666557	0	0
2024-05-31 11:40:32			0	35449	0	0	0	23488	22050	141764	27182	998034	40859	108658	0	0	8171	666646	0	0
2024-05-31 11:41:32			0	35473	0	0	0	23475	22050	141660	27365	998034	40847	108653	0	0	8172	665575	0	0
2024-05-31 11:42:32			0	35483	0	0	0	23457	22060	141632	27220	998078	40872	108646	0	0	8173	665092	0	0
2024-05-31 11:43:32			0	35462	0	0	0	23496	22050	141580	27157	998061	40847	108661	0	0	8171	666066	0	0
2024-05-31 11:44:32			0	35496	0	0	0	23472	22060	141632	27559	998105	40849	108652	0	0	8173	664513	0	0
2024-05-31 11:45:32			0	35491	0	0	0	23493	22060	141492	27263	998105	40849	108660	0	0	8173	664736	0	0
2024-05-31 11:46:32			0	35527	0	0	0	23509	22070	141424	27211	998095	40860	108666	0	0	8175	663097	0	0
2024-05-31 11:47:32			0	35549	0	0	0	23496	22070	141336	27062	998140	40860	108661	0	0	8176	662119	0	0
2024-05-31 11:48:32			0	35564	0	0	0	23490	22070	141264	27204	998148	40849	108659	0	0	8177	661453	0	0
2024-05-31 11:49:32			0	35571	0	0	0	23480	22080	141244	27121	998085	40862	108655	0	0	8178	661105	0	0
2024-05-31 11:50:32			0	35563	0	0	0	23511	22080	141212	27211	998219	40840	108667	0	0	8177	661460	0	0
2024-05-31 11:51:32			0	35569	0	0	0	23511	22090	141128	27242	998200	40851	108667	0	0	8177	661157	0	0
2024-05-31 11:52:32			0	35588	0	0	0	23493	22080	141072	27187	998192	40851	108660	0	0	8178	660351	0	0
2024-05-31 11:53:32			0	35615	0	0	0	23524	22090	141060	27319	998209	40851	108672	0	0	8179	659118	0	0
2024-05-31 11:54:32			0	35642	0	0	0	23524	22090	140860	27222	998235	40851	108672	0	0	8181	657924	0	0
2024-05-31 11:55:32			0	35664	0	0	0	23514	22090	140872	27102	998262	40862	108668	0	0	8182	656952	0	0
2024-05-31 11:56:32			0	35666	0	0	0	23475	22090	140772	27187	998182	40840	108653	0	0	8183	656864	0	0
2024-05-31 11:57:32			0	35685	0	0	0	23464	22090	140752	27088	998129	40851	108649	0	0	8184	656025	0	0
2024-05-31 11:58:32			0	35672	0	0	0	23493	22080	140740	27293	998139	40840	108660	0	0	8183	656635	0	0
2024-05-31 11:59:32			0	35694	0	0	0	23516	22080	140744	27327	998139	40840	108669	0	0	8184	655665	0	0
2024-05-31 12:00:32			0	35723	0	0	0	23480	22090	140584	27289	998200	40862	108655	0	0	8186	654350	0	0
2024-05-31 12:01:32			0	35706	0	0	0	23451	22110	140576	26838	998208	40841	108644	0	0	8185	655026	0	0
2024-05-31 12:02:32			0	35707	0	0	0	23488	22080	140592	27178	998085	40818	108658	0	0	8185	655091	0	0
2024-05-31 12:03:32			0	35731	0	0	0	23509	22080	140628	27137	998183	40850	108666	0	0	8186	654034	0	0
2024-05-31 12:04:32			0	35753	0	0	0	23490	22080	140568	27467	998165	40851	108659	0	0	8187	653066	0	0
2024-05-31 12:05:32			0	35776	0	0	0	23457	22080	140436	27211	998192	40862	108646	0	0	8189	652055	0	0
2024-05-31 12:06:32			0	35752	0	0	0	23475	22080	140556	26902	998139	40840	108653	0	0	8187	653110	0	0
2024-05-31 12:07:32			0	35754	0	0	0	23436	22080	140444	27282	998165	40862	108638	0	0	8188	653022	0	0
2024-05-31 12:08:32			0	35728	0	0	0	23451	22080	140464	27293	998050	40850	108644	0	0	8186	654166	0	0
2024-05-31 12:09:32			0	35754	0	0	0	23470	22060	140576	27355	998051	40838	108651	0	0	8187	653095	0	0
2024-05-31 12:10:32			0	35748	0	0	0	23467	22080	140520	27287	998104	40839	108650	0	0	8187	653286	0	0
2024-05-31 12:11:32			0	35773	0	0	0	23488	22080	140512	27097	998112	40851	108658	0	0	8188	652187	0	0
2024-05-31 12:12:32			0	35771	0	0	0	23472	22070	140448	27350	998095	40838	108652	0	0	8188	652311	0	0
2024-05-31 12:13:32			0	35771	0	0	0	23470	22080	140396	27171	998130	40850	108651	0	0	8188	652275	0	0
2024-05-31 12:14:32			0	35786	0	0	0	23464	22070	140348	27123	998060	40849	108649	0	0	8189	651653	0	0
2024-05-31 12:15:32			0	35789	0	0	0	23470	22070	140484	27112	998148	40838	108651	0	0	8189	651521	0	0
2024-05-31 12:16:32			0	35764	0	0	0	23462	22070	140344	27076	998006	40838	108648	0	0	8188	652619	0	0
2024-05-31 12:17:32			0	35772	0	0	0	23441	22070	140392	27275	998033	40838	108640	0	0	8189	652267	0	0
2024-05-31 12:18:32			0	35765	0	0	0	23446	22060	140584	27357	998025	40849	108642	0	0	8188	652611	0	0
2024-05-31 12:19:32			0	35764	0	0	0	23462	22060	140476	27126	998025	40828	108648	0	0	8188	652655	0	0
2024-05-31 12:20:32			0	35759	0	0	0	23467	22060	140456	27114	997990	40848	108650	0	0	8188	652875	0	0
2024-05-31 12:21:32			0	35766	0	0	0	23457	22070	140460	27362	998060	40849	108646	0	0	8188	652531	0	0
2024-05-31 12:22:32			0	35773	0	0	0	23459	22060	140460	27235	998051	40860	108647	0	0	8189	652260	0	0
2024-05-31 12:23:32			0	35765	0	0	0	23464	22060	140500	26911	998078	40849	108649	0	0	8188	652611	0	0
2024-05-31 12:24:32			0	35779	0	0	0	23472	22060	140448	27090	998078	40838	108652	0	0	8189	651996	0	0
2024-05-31 12:25:32			0	35757	0	0	0	23475	22060	140492	27107	997998	40860	108653	0	0	8188	652963	0	0
2024-05-31 12:26:32			0	35774	0	0	0	23477	22060	140496	27062	998078	40849	108654	0	0	8188	652216	0	0
2024-05-31 12:27:32			0	35788	0	0	0	23441	22060	140440	27206	998078	40838	108640	0	0	8190	651601	0	0
2024-05-31 12:28:32			0	35768	0	0	0	23451	22050	140436	27145	998061	40836	108644	0	0	8188	652516	0	0
2024-05-31 12:29:32			0	35769	0	0	0	23457	22060	140516	27326	998043	40848	108646	0	0	8188	652436	0	0
2024-05-31 12:30:32			0	35787	0	0	0	23454	22050	140516	27281	998061	40847	108645	0	0	8189	651681	0	0
2024-05-31 12:31:32			0	35780	0	0	0	23454	22060	140604	27324	998025	40849	108645	0	0	8189	651952	0	0
2024-05-31 12:32:32			0	35770	0	0	0	23457	22060	140640	27360	997990	40848	108646	0	0	8189	652392	0	0
2024-05-31 12:33:32			0	35766	0	0	0	23438	22050	140612	26979	997981	40836	108639	0	0	8189	652604	0	0
2024-05-31 12:34:32			0	35773	0	0	0	23457	22050	140512	27345	997954	40847	108646	0	0	8189	652296	0	0
2024-05-31 12:35:32			0	35761	0	0	0	23438	22050	140580	27400	997981	40847	108639	0	0	8188	652824	0	0
2024-05-31 12:36:32			0	35783	0	0	0	23449	22050	140596	27209	998007	40847	108643	0	0	8189	651857	0	0
2024-05-31 12:37:32			0	35761	0	0	0	23444	22050	140584	27345	997981	40859	108641	0	0	8188	652824	0	0
2024-05-31 12:38:32			0	35764	0	0	0	23433	22050	140460	27255	997954	40847	108637	0	0	8189	652692	0	0
2024-05-31 12:39:32			0	35758	0	0	0	23425	22040	140608	27154	997964	40858	108634	0	0	8188	652992	0	0
2024-05-31 12:40:32			0	35742	0	0	0	23412	22040	140628	27227	997929	40846	108629	0	0	8188	653696	0	0
2024-05-31 12:41:32			0	35768	0	0	0	23425	22040	140648	27159	997902	40846	108634	0	0	8189	652552	0	0
2024-05-31 12:42:32			0	35763	0	0	0	23433	22030	140676	27220	997947	40846	108637	0	0	8188	652809	0	0
2024-05-31 12:43:32			0	35746	0	0	0	23410	22050	140620	27403	997874	40847	108628	0	0	8188	653483	0	0
2024-05-31 12:44:32			0	35736	0	0	0	23410	22040	140596	27227	997884	40846	108628	0	0	8187	653960	0	0
2024-05-31 12:45:32			0	35735	0	0	0	23438	22030	140716	27644	997840	40857	108639	0	0	8187	654040	0	0
2024-05-31 12:46:32			0	35745	0	0	0	23405	22030	140648	27175	997920	40834	108626	0	0	8188	653600	0	0
2024-05-31 12:47:32			0	35733	0	0	0	23438	22030	140700	27033	997894	40824	108639	0	0	8187	654129	0	0
2024-05-31 12:48:32			0	35731	0	0	0	23446	22030	140764	27128	997947	40857	108642	0	0	8186	654217	0	0
2024-05-31 12:49:32			0	35749	0	0	0	23444	22030	140644	27046	997939	40856	108641	0	0	8187	653424	0	0
2024-05-31 12:50:32			0	35747	0	0	0	23454	22040	140592	27343	997982	40846	108645	0	0	8187	653476	0	0
2024-05-31 12:51:32			0	35749	0	0	0	23418	22030	140544	27360	998000	40834	108631	0	0	8188	653424	0	0
2024-05-31 12:52:32			0	35750	0	0	0	23412	22040	140544	27072	997955	40814	108629	0	0	8188	653344	0	0
2024-05-31 12:53:32			0	35755	0	0	0	23412	22040	140660	27287	997929	40835	108629	0	0	8188	653124	0	0
2024-05-31 12:54:32			0	35729	0	0	0	23446	22030	140684	27098	997947	40846	108642	0	0	8186	654305	0	0
2024-05-31 12:55:32			0	35758	0	0	0	23433	22020	140612	27050	997957	40845	108637	0	0	8188	653065	0	0
2024-05-31 12:56:32			0	35759	0	0	0	23438	22020	140548	26996	997877	40845	108639	0	0	8188	653021	0	0
2024-05-31 12:57:32			0	35774	0	0	0	23438	22030	140576	27253	997965	40856	108639	0	0	8189	652325	0	0
2024-05-31 12:58:32			0	35768	0	0	0	23415	22030	140548	27239	997920	40834	108630	0	0	8189	652589	0	0
2024-05-31 12:59:32			0	35771	0	0	0	23423	22030	140504	27156	997947	40834	108633	0	0	8189	652457	0	0
2024-05-31 13:00:32			0	35788	0	0	0	23438	22030	140532	27377	997859	40845	108639	0	0	8190	651710	0	0
2024-05-31 13:01:32			0	35779	0	0	0	23420	22030	140504	27203	997965	40833	108632	0	0	8189	652105	0	0
2024-05-31 13:02:32			0	35786	0	0	0	23420	22020	140500	27467	997922	40833	108632	0	0	8190	651834	0	0
2024-05-31 13:03:32			0	35790	0	0	0	23410	22020	140440	27279	997903	40833	108628	0	0	8190	651659	0	0
2024-05-31 13:04:32			0	35792	0	0	0	23451	22030	140492	27203	997939	40845	108644	0	0	8190	651534	0	0
2024-05-31 13:05:32			0	35778	0	0	0	23407	22020	140504	27621	997903	40823	108627	0	0	8190	652186	0	0
2024-05-31 13:06:32			0	35800	0	0	0	23441	22030	140516	27267	997920	40846	108640	0	0	8190	651183	0	0
2024-05-31 13:07:32			0	35795	0	0	0	23433	22030	140472	27298	997912	40845	108637	0	0	8190	651403	0	0
2024-05-31 13:08:32			0	35790	0	0	0	23436	22030	140548	27246	997939	40845	108638	0	0	8190	651622	0	0
2024-05-31 13:09:32			0	35795	0	0	0	23438	22030	140568	27647	997965	40845	108639	0	0	8190	651403	0	0
2024-05-31 13:10:32			0	35784	0	0	0	23438	22030	140596	27213	997974	40846	108639	0	0	8189	651886	0	0
2024-05-31 13:11:32			0	35772	0	0	0	23441	22030	140640	27530	997939	40845	108640	0	0	8189	652413	0	0
2024-05-31 13:12:32			0	35768	0	0	0	23470	22030	140604	27156	997974	40857	108651	0	0	8188	652589	0	0
2024-05-31 13:13:32			0	35785	0	0	0	23451	22040	140608	27239	997955	40846	108644	0	0	8189	651805	0	0
2024-05-31 13:14:32			0	35787	0	0	0	23462	22030	140520	27338	998053	40857	108648	0	0	8189	651754	0	0
2024-05-31 13:15:32			0	35775	0	0	0	23467	22030	140496	27422	998000	40846	108650	0	0	8188	652281	0	0
2024-05-31 13:16:32			0	35773	0	0	0	23451	22040	140612	27274	998035	40846	108644	0	0	8189	652333	0	0
2024-05-31 13:17:32			0	35765	0	0	0	23454	22040	140576	27509	998017	40825	108645	0	0	8188	652684	0	0
2024-05-31 13:18:32			0	35780	0	0	0	23457	22040	140540	27249	998044	40835	108646	0	0	8189	652025	0	0
2024-05-31 13:19:32			0	35774	0	0	0	23462	22050	140580	27147	998079	40846	108648	0	0	8189	652252	0	0
2024-05-31 13:20:32			0	35776	0	0	0	23464	22040	140560	27519	998017	40835	108649	0	0	8189	652201	0	0
2024-05-31 13:21:32			0	35812	0	0	0	23477	22050	140488	27523	998079	40858	108654	0	0	8190	650584	0	0
2024-05-31 13:22:32			0	35793	0	0	0	23470	22050	140524	27300	998087	40859	108651	0	0	8189	651418	0	0
2024-05-31 13:23:32			0	35794	0	0	0	23470	22050	140496	27436	998007	40847	108651	0	0	8190	651374	0	0
2024-05-31 13:24:32			0	35813	0	0	0	23459	22040	140488	27400	998070	40846	108647	0	0	8191	650577	0	0
2024-05-31 13:25:32			0	35785	0	0	0	23459	22060	140564	27175	998096	40859	108647	0	0	8189	651733	0	0
2024-05-31 13:26:32			0	35795	0	0	0	23464	22050	140508	27294	998034	40859	108649	0	0	8190	651330	0	0
2024-05-31 13:27:32			0	35788	0	0	0	23462	22050	140556	27559	998079	40858	108648	0	0	8189	651638	0	0
2024-05-31 13:28:32			0	35782	0	0	0	23457	22040	140580	27417	998017	40858	108646	0	0	8189	651937	0	0
2024-05-31 13:29:32			0	35783	0	0	0	23462	22050	140552	27332	998034	40870	108648	0	0	8189	651857	0	0
2024-05-31 13:30:32			0	35805	0	0	0	23459	22050	140480	27326	998026	40835	108647	0	0	8190	650891	0	0
2024-05-31 13:31:32			0	35808	0	0	0	23462	22050	140488	27455	998026	40846	108648	0	0	8190	650760	0	0
2024-05-31 13:32:32			0	35807	0	0	0	23472	22060	140464	27161	998016	40848	108652	0	0	8190	650767	0	0
2024-05-31 13:33:32			0	35794	0	0	0	23467	22050	140436	27438	998026	40835	108650	0	0	8190	651374	0	0
2024-05-31 13:34:32			0	35820	0	0	0	23470	22060	140516	27256	998043	40827	108651	0	0	8191	650197	0	0
2024-05-31 13:35:32			0	35829	0	0	0	23449	22060	140388	27417	998051	40849	108643	0	0	8192	649803	0	0
2024-05-31 13:36:32			0	35796	0	0	0	23446	22050	140584	27133	997999	40869	108642	0	0	8190	651286	0	0
2024-05-31 13:37:32			0	35764	0	0	0	23446	22050	140536	27497	997981	40836	108642	0	0	8188	652692	0	0
2024-05-31 13:38:32			0	35783	0	0	0	23462	22050	140640	27583	998034	40826	108648	0	0	8189	651857	0	0
2024-05-31 13:39:32			0	35791	0	0	0	23446	22040	140632	27421	998009	40858	108642	0	0	8190	651542	0	0
2024-05-31 13:40:32			0	35779	0	0	0	23449	22040	140548	27679	998035	40846	108643	0	0	8189	652069	0	0
2024-05-31 13:41:32			0	35759	0	0	0	23467	22050	140668	27286	998052	40846	108650	0	0	8188	652912	0	0
2024-05-31 13:42:32			0	35751	0	0	0	23444	22050	140596	27531	998061	40859	108641	0	0	8188	653264	0	0
2024-05-31 13:43:32			0	35741	0	0	0	23449	22050	140692	27350	998034	40836	108643	0	0	8187	653703	0	0
2024-05-31 13:44:32			0	35741	0	0	0	23462	22050	140692	27613	998034	40847	108648	0	0	8187	653703	0	0
2024-05-31 13:45:32			0	35748	0	0	0	23464	22050	140720	27588	998034	40836	108649	0	0	8187	653395	0	0
2024-05-31 13:46:32			0	35757	0	0	0	23451	22060	140752	27441	998043	40871	108644	0	0	8188	652963	0	0
2024-05-31 13:47:32			0	35758	0	0	0	23449	22050	140736	27334	998061	40859	108643	0	0	8188	652956	0	0
2024-05-31 13:48:32			0	35726	0	0	0	23449	22040	140760	27445	998044	40846	108643	0	0	8186	654400	0	0
2024-05-31 13:49:32			0	35740	0	0	0	23459	22050	140736	27395	998061	40847	108647	0	0	8187	653747	0	0
2024-05-31 13:50:32			0	35729	0	0	0	23459	22050	140788	27182	998034	40847	108647	0	0	8186	654232	0	0
2024-05-31 13:51:32			0	35738	0	0	0	23457	22050	140716	27450	998061	40859	108646	0	0	8187	653836	0	0
2024-05-31 13:52:32			0	35745	0	0	0	23472	22040	140692	27315	998044	40846	108652	0	0	8187	653564	0	0
2024-05-31 13:53:32			0	35743	0	0	0	23470	22050	140752	27502	998052	40846	108651	0	0	8187	653615	0	0
2024-05-31 13:54:32			0	35763	0	0	0	23462	22060	140612	27471	998069	40859	108648	0	0	8188	652699	0	0
2024-05-31 13:55:32			0	35750	0	0	0	23451	22060	140672	27457	998069	40848	108644	0	0	8188	653271	0	0
2024-05-31 13:56:32			0	35751	0	0	0	23449	22050	140720	27232	998061	40836	108643	0	0	8188	653264	0	0
2024-05-31 13:57:32			0	35742	0	0	0	23457	22050	140684	27736	998034	40847	108646	0	0	8187	653659	0	0
2024-05-31 13:58:32			0	35734	0	0	0	23454	22050	140784	27260	998087	40847	108645	0	0	8187	654012	0	0
2024-05-31 13:59:32			0	35747	0	0	0	23457	22050	140732	27575	998061	40847	108646	0	0	8187	653439	0	0
2024-05-31 14:00:32			0	35755	0	0	0	23449	22050	140676	27381	998087	40836	108643	0	0	8188	653087	0	0
2024-05-31 14:01:32			0	35739	0	0	0	23459	22050	140828	27351	998061	40847	108647	0	0	8187	653792	0	0
2024-05-31 14:02:32			0	35762	0	0	0	23462	22050	140736	27443	998034	40859	108648	0	0	8188	652780	0	0
2024-05-31 14:03:32			0	35752	0	0	0	23454	22050	140688	27550	998007	40859	108645	0	0	8188	653219	0	0
2024-05-31 14:04:32			0	35722	0	0	0	23449	22050	140788	27338	997981	40859	108643	0	0	8186	654540	0	0
2024-05-31 14:05:32			0	35720	0	0	0	23444	22050	140848	27320	998007	40859	108641	0	0	8186	654628	0	0
2024-05-31 14:06:32			0	35719	0	0	0	23410	22050	140788	27634	997972	40846	108628	0	0	8187	654672	0	0
2024-05-31 14:07:32			0	35681	0	0	0	23423	22040	140972	27616	997937	40846	108633	0	0	8184	656385	0	0
2024-05-31 14:08:32			0	35694	0	0	0	23418	22040	140952	27692	997964	40846	108631	0	0	8185	655811	0	0
2024-05-31 14:09:32			0	35680	0	0	0	23407	22030	141044	27422	997840	40834	108627	0	0	8184	656465	0	0
2024-05-31 14:10:32			0	35673	0	0	0	23402	22030	141032	27587	997912	40845	108625	0	0	8184	656774	0	0
2024-05-31 14:11:32			0	35662	0	0	0	23399	22030	141008	27201	997912	40856	108624	0	0	8184	657260	0	0
2024-05-31 14:12:32			0	35651	0	0	0	23402	22030	141052	27599	997920	40846	108625	0	0	8183	657746	0	0
2024-05-31 14:13:32			0	35649	0	0	0	23389	22030	141100	27417	997859	40845	108620	0	0	8183	657835	0	0
2024-05-31 14:14:32			0	35635	0	0	0	23389	22020	141132	27602	997868	40845	108620	0	0	8182	658491	0	0
2024-05-31 14:15:32			0	35614	0	0	0	23389	22030	141172	27485	997832	40833	108620	0	0	8181	659383	0	0
2024-05-31 14:16:32			0	35621	0	0	0	23389	22020	141140	27660	997815	40856	108620	0	0	8181	659110	0	0
2024-05-31 14:17:32			0	35623	0	0	0	23405	22020	141264	27511	997903	40845	108626	0	0	8181	659022	0	0
2024-05-31 14:18:32			0	35626	0	0	0	23412	22010	141296	27362	997878	40854	108629	0	0	8181	658926	0	0
2024-05-31 14:19:32			0	35623	0	0	0	23399	22020	141272	27369	997842	40845	108624	0	0	8181	659022	0	0
2024-05-31 14:20:32			0	35615	0	0	0	23431	22010	141240	27102	997887	40844	108636	0	0	8180	659413	0	0
2024-05-31 14:21:32			0	35624	0	0	0	23412	22010	141356	27384	997807	40866	108629	0	0	8181	659014	0	0
2024-05-31 14:22:32			0	35604	0	0	0	23428	22020	141320	27428	997922	40833	108635	0	0	8180	659863	0	0
2024-05-31 14:23:32			0	35633	0	0	0	23415	22020	141284	27623	997903	40845	108630	0	0	8182	658579	0	0
2024-05-31 14:24:32			0	35634	0	0	0	23436	22020	141224	27609	997957	40856	108638	0	0	8181	658535	0	0
2024-05-31 14:25:32			0	35644	0	0	0	23420	22020	141232	27595	997930	40867	108632	0	0	8182	658092	0	0
2024-05-31 14:26:32			0	35639	0	0	0	23433	22020	141276	27415	997877	40845	108637	0	0	8182	658314	0	0
2024-05-31 14:27:32			0	35644	0	0	0	23431	22020	141248	27549	997903	40845	108636	0	0	8182	658092	0	0
2024-05-31 14:28:32			0	35652	0	0	0	23444	22020	141204	27067	997957	40845	108641	0	0	8182	657739	0	0
2024-05-31 14:29:32			0	35649	0	0	0	23431	22030	141160	27492	997974	40857	108636	0	0	8182	657835	0	0
2024-05-31 14:30:32			0	35637	0	0	0	23423	22030	141260	27081	997974	40834	108633	0	0	8182	658365	0	0
2024-05-31 14:31:32			0	35628	0	0	0	23410	22030	141136	27393	997939	40845	108628	0	0	8182	658764	0	0
2024-05-31 14:32:32			0	35632	0	0	0	23425	22020	141252	27355	997930	40833	108634	0	0	8181	658623	0	0
2024-05-31 14:33:32			0	35649	0	0	0	23433	22020	141092	27150	997957	40845	108637	0	0	8182	657871	0	0
2024-05-31 14:34:32			0	35665	0	0	0	23431	22030	141076	27499	997947	40846	108636	0	0	8183	657128	0	0
2024-05-31 14:35:32			0	35678	0	0	0	23436	22030	141092	27137	998000	40868	108638	0	0	8184	656553	0	0
2024-05-31 14:36:32			0	35686	0	0	0	23451	22030	141160	27608	997965	40845	108644	0	0	8184	656200	0	0
2024-05-31 14:37:32			0	35682	0	0	0	23425	22030	141108	27185	997974	40868	108634	0	0	8184	656377	0	0
2024-05-31 14:38:32			0	35642	0	0	0	23420	22030	141096	27161	997974	40857	108632	0	0	8182	658144	0	0
2024-05-31 14:39:32			0	35680	0	0	0	23436	22030	141140	27251	998027	40846	108638	0	0	8184	656465	0	0
2024-05-31 14:40:32			0	35671	0	0	0	23441	22030	141064	27187	997974	40857	108640	0	0	8183	656863	0	0
2024-05-31 14:41:32			0	35677	0	0	0	23457	22030	141068	26930	998000	40846	108646	0	0	8183	656598	0	0
2024-05-31 14:42:32			0	35672	0	0	0	23441	22030	141076	27391	997939	40845	108640	0	0	8183	656818	0	0
2024-05-31 14:43:32			0	35679	0	0	0	23431	22040	140976	27222	998035	40835	108636	0	0	8184	656473	0	0
2024-05-31 14:44:32			0	35679	0	0	0	23431	22030	141096	27308	998000	40846	108636	0	0	8184	656509	0	0
2024-05-31 14:45:32			0	35688	0	0	0	23441	22040	141084	27020	998009	40858	108640	0	0	8184	656076	0	0
2024-05-31 14:46:32			0	35681	0	0	0	23441	22030	141152	27279	998000	40846	108640	0	0	8184	656421	0	0
2024-05-31 14:47:32			0	35668	0	0	0	23454	22030	141096	27131	998000	40824	108645	0	0	8183	656995	0	0
2024-05-31 14:48:32			0	35682	0	0	0	23449	22030	140968	26979	998000	40868	108643	0	0	8184	656377	0	0
2024-05-31 14:49:32			0	35704	0	0	0	23449	22040	140976	26942	998017	40858	108643	0	0	8185	655370	0	0
2024-05-31 14:50:32			0	35731	0	0	0	23467	22040	141024	27336	998009	40846	108650	0	0	8186	654180	0	0
2024-05-31 14:51:32			0	35727	0	0	0	23464	22040	140848	26963	998070	40846	108649	0	0	8186	654356	0	0
2024-05-31 14:52:32			0	35725	0	0	0	23436	22040	140912	27203	998044	40846	108638	0	0	8186	654444	0	0
2024-05-31 14:53:32			0	35733	0	0	0	23454	22050	140892	27201	997999	40835	108645	0	0	8187	654056	0	0
2024-05-31 14:54:32			0	35745	0	0	0	23444	22050	140876	27055	998007	40859	108641	0	0	8187	653528	0	0
2024-05-31 14:55:32			0	35738	0	0	0	23444	22060	140812	27402	998069	40848	108641	0	0	8187	653799	0	0
2024-05-31 14:56:32			0	35744	0	0	0	23449	22050	140840	27296	998026	40835	108643	0	0	8187	653571	0	0
2024-05-31 14:57:32			0	35739	0	0	0	23462	22040	140772	27462	998044	40846	108648	0	0	8187	653828	0	0
2024-05-31 14:58:32			0	35755	0	0	0	23457	22050	140804	27164	998026	40846	108646	0	0	8188	653087	0	0
2024-05-31 14:59:32			0	35754	0	0	0	23457	22050	140784	27410	998052	40846	108646	0	0	8188	653132	0	0
2024-05-31 15:00:32			0	35782	0	0	0	23459	22050	140796	27180	998079	40869	108647	0	0	8189	651901	0	0
2024-05-31 15:01:32			0	35759	0	0	0	23438	22050	140760	27194	998052	40835	108639	0	0	8188	652912	0	0
2024-05-31 15:02:32			0	35771	0	0	0	23446	22040	140744	27133	998017	40846	108642	0	0	8189	652420	0	0
2024-05-31 15:03:32			0	35743	0	0	0	23436	22040	140772	27107	998097	40846	108638	0	0	8187	653652	0	0
2024-05-31 15:04:32			0	35745	0	0	0	23441	22040	140796	27196	998017	40869	108640	0	0	8187	653564	0	0
2024-05-31 15:05:32			0	35750	0	0	0	23433	22050	140776	27131	998026	40858	108637	0	0	8188	653307	0	0
2024-05-31 15:06:32			0	35745	0	0	0	23441	22040	140888	27443	998070	40858	108640	0	0	8187	653564	0	0
2024-05-31 15:07:32			0	35759	0	0	0	23444	22040	140860	27514	998035	40846	108641	0	0	8188	652948	0	0
2024-05-31 15:08:32			0	35760	0	0	0	23444	22040	140892	27367	998044	40846	108641	0	0	8188	652904	0	0
2024-05-31 15:09:32			0	35753	0	0	0	23446	22040	140668	27293	998070	40835	108642	0	0	8188	653212	0	0
2024-05-31 15:10:32			0	35767	0	0	0	23446	22040	140792	27341	998070	40869	108642	0	0	8188	652596	0	0
2024-05-31 15:11:32			0	35748	0	0	0	23454	22050	140824	27377	998034	40847	108645	0	0	8187	653395	0	0
2024-05-31 15:12:32			0	35725	0	0	0	23454	22040	140892	27123	997990	40858	108645	0	0	8186	654444	0	0
2024-05-31 15:13:32			0	35721	0	0	0	23457	22050	140828	27235	998141	40859	108646	0	0	8186	654584	0	0
2024-05-31 15:14:32			0	35733	0	0	0	23451	22050	140920	27216	998087	40847	108644	0	0	8187	654056	0	0
2024-05-31 15:15:32			0	35734	0	0	0	23464	22040	140852	27085	998097	40846	108649	0	0	8186	654048	0	0
2024-05-31 15:16:32			0	35718	0	0	0	23454	22050	140956	27081	998079	40846	108645	0	0	8186	654716	0	0
2024-05-31 15:17:32			0	35707	0	0	0	23464	22050	140968	27310	998114	40847	108649	0	0	8185	655201	0	0
2024-05-31 15:18:32			0	35701	0	0	0	23457	22060	141060	27467	998043	40848	108646	0	0	8185	655429	0	0
2024-05-31 15:19:32			0	35710	0	0	0	23464	22050	140976	27059	998079	40858	108649	0	0	8185	655069	0	0
2024-05-31 15:20:32			0	35690	0	0	0	23459	22040	141040	27215	998044	40858	108647	0	0	8184	655987	0	0
2024-05-31 15:21:32			0	35695	0	0	0	23449	22050	141116	27100	998079	40846	108643	0	0	8185	655730	0	0
2024-05-31 15:22:32			0	35724	0	0	0	23457	22060	141000	27145	998096	40859	108646	0	0	8186	654415	0	0
2024-05-31 15:23:32			0	35686	0	0	0	23470	22060	140992	27182	998096	40871	108651	0	0	8184	656091	0	0
2024-05-31 15:24:32			0	35689	0	0	0	23451	22050	141104	27166	998087	40859	108644	0	0	8184	655995	0	0
2024-05-31 15:25:32			0	35679	0	0	0	23423	22050	141132	27201	998007	40836	108633	0	0	8184	656436	0	0
2024-05-31 15:26:32			0	35705	0	0	0	23441	22050	141124	27360	998061	40847	108640	0	0	8185	655289	0	0
2024-05-31 15:27:32			0	35710	0	0	0	23441	22050	141016	27029	998061	40859	108640	0	0	8186	655069	0	0
2024-05-31 15:28:32			0	35682	0	0	0	23441	22060	141088	27204	998069	40859	108640	0	0	8184	656267	0	0
2024-05-31 15:29:32			0	35669	0	0	0	23433	22050	141156	27121	998026	40858	108637	0	0	8183	656878	0	0
2024-05-31 15:30:32			0	35697	0	0	0	23405	22050	140984	27512	998026	40858	108626	0	0	8185	655642	0	0
2024-05-31 15:31:32			0	35679	0	0	0	23410	22050	141104	27410	997946	40846	108628	0	0	8184	656436	0	0
2024-05-31 15:32:32			0	35686	0	0	0	23397	22040	140984	27038	997964	40858	108623	0	0	8185	656164	0	0
2024-05-31 15:33:32			0	35672	0	0	0	23444	22040	141124	27178	998009	40846	108641	0	0	8183	656782	0	0
2024-05-31 15:34:32			0	35689	0	0	0	23410	22040	141052	27157	998009	40858	108628	0	0	8185	656031	0	0
2024-05-31 15:35:32			0	35685	0	0	0	23340	22030	140976	27410	997867	40846	108601	0	0	8186	656244	0	0
2024-05-31 15:36:32			0	35654	0	0	0	23355	22030	141056	27225	997912	40833	108607	0	0	8184	657614	0	0
2024-05-31 15:37:32			0	35655	0	0	0	23433	22020	141108	27377	997895	40833	108637	0	0	8183	657606	0	0
2024-05-31 15:38:32			0	35688	0	0	0	23337	22030	141004	27137	997939	40845	108600	0	0	8186	656112	0	0
2024-05-31 15:39:32			0	35662	0	0	0	23392	22030	141096	27306	997885	40845	108621	0	0	8184	657260	0	0
2024-05-31 15:40:32			0	35659	0	0	0	23431	22020	141192	27128	997948	40845	108636	0	0	8183	657429	0	0
2024-05-31 15:41:32			0	35666	0	0	0	23436	22030	141248	27100	997965	40845	108638	0	0	8183	657083	0	0
2024-05-31 15:42:32			0	35616	0	0	0	23451	22020	141256	26968	998002	40867	108644	0	0	8180	659332	0	0
2024-05-31 15:43:32			0	35615	0	0	0	23449	22030	141348	27144	998027	40846	108643	0	0	8180	659339	0	0
2024-05-31 15:44:32			0	35621	0	0	0	23418	22040	141336	27300	998035	40858	108631	0	0	8181	659037	0	0
2024-05-31 15:45:32			0	35624	0	0	0	23436	22040	141288	27052	998009	40846	108638	0	0	8181	658904	0	0
2024-05-31 15:46:32			0	35623	0	0	0	23433	22030	141368	27154	998027	40857	108637	0	0	8181	658985	0	0
2024-05-31 15:47:32			0	35620	0	0	0	23410	22030	141372	27187	997947	40857	108628	0	0	8181	659118	0	0
2024-05-31 15:48:32			0	35603	0	0	0	23423	22030	141392	27088	997992	40856	108633	0	0	8180	659871	0	0
2024-05-31 15:49:32			0	35607	0	0	0	23394	22040	141372	27355	997955	40858	108622	0	0	8181	659657	0	0
2024-05-31 15:50:32			0	35599	0	0	0	23392	22030	141324	27227	997965	40845	108621	0	0	8180	660048	0	0
2024-05-31 15:51:32			0	35578	0	0	0	23438	22020	141436	27376	997983	40856	108639	0	0	8178	661016	0	0
2024-05-31 15:52:32			0	35581	0	0	0	23441	22020	141576	27263	997957	40856	108640	0	0	8178	660883	0	0
2024-05-31 15:53:32			0	35571	0	0	0	23415	22020	141600	27152	997957	40856	108630	0	0	8178	661327	0	0
2024-05-31 15:54:32			0	35558	0	0	0	23423	22020	141524	27241	997957	40856	108633	0	0	8177	661904	0	0
2024-05-31 15:55:32			0	35547	0	0	0	23420	22030	141596	27364	997992	40845	108632	0	0	8177	662355	0	0
2024-05-31 15:56:32			0	35523	0	0	0	23412	22030	141728	27085	998027	40857	108629	0	0	8176	663423	0	0
2024-05-31 15:57:32			0	35550	0	0	0	23386	22020	141724	27072	997957	40856	108619	0	0	8178	662259	0	0
2024-05-31 15:58:32			0	35532	0	0	0	23381	22020	141672	27019	997877	40845	108617	0	0	8177	663059	0	0
2024-05-31 15:59:32			0	35504	0	0	0	23373	22010	141748	27173	997887	40855	108614	0	0	8175	664342	0	0
2024-05-31 16:00:32			0	35488	0	0	0	23366	22010	141816	27121	997807	40855	108611	0	0	8175	665055	0	0
2024-05-31 16:01:32			0	35500	0	0	0	23353	22010	141804	27052	997798	40854	108606	0	0	8176	664520	0	0
2024-05-31 16:02:32			0	35484	0	0	0	23348	22000	141780	27074	997763	40833	108604	0	0	8175	665270	0	0
2024-05-31 16:03:32			0	35465	0	0	0	23342	21990	141900	27209	997728	40843	108602	0	0	8174	666155	0	0
2024-05-31 16:04:32			0	35463	0	0	0	23350	21980	141960	26948	997738	40852	108605	0	0	8173	666281	0	0
2024-05-31 16:05:32			0	35423	0	0	0	23332	21980	142024	26946	997729	40840	108598	0	0	8172	668068	0	0
2024-05-31 16:06:32			0	35436	0	0	0	23340	21970	142096	27237	997614	40840	108601	0	0	8172	667524	0	0
2024-05-31 16:07:32			0	35440	0	0	0	23316	21970	142112	27078	997633	40851	108592	0	0	8173	667345	0	0
2024-05-31 16:08:32			0	35418	0	0	0	23319	21950	142092	26911	997581	40838	108593	0	0	8171	668403	0	0
2024-05-31 16:09:32			0	35412	0	0	0	23322	21950	142276	27013	997554	40838	108594	0	0	8171	668672	0	0
2024-05-31 16:10:32			0	35410	0	0	0	23327	21950	142308	27350	997554	40828	108596	0	0	8171	668761	0	0
2024-05-31 16:11:32			0	35398	0	0	0	23316	21950	142304	27131	997625	40838	108592	0	0	8170	669299	0	0
2024-05-31 16:12:32			0	35394	0	0	0	23316	21940	142296	27350	997555	40804	108592	0	0	8170	669515	0	0
2024-05-31 16:13:32			0	35393	0	0	0	23324	21950	142308	27055	997572	40838	108595	0	0	8170	669522	0	0
2024-05-31 16:14:32			0	35388	0	0	0	23319	21930	142304	26977	997493	40837	108593	0	0	8170	669821	0	0
2024-05-31 16:15:32			0	35389	0	0	0	23314	21940	142336	26880	997502	40837	108591	0	0	8170	669739	0	0
2024-05-31 16:16:32			0	35389	0	0	0	23309	21930	142392	27057	997520	40826	108589	0	0	8170	669776	0	0
2024-05-31 16:17:32			0	35371	0	0	0	23314	21920	142484	26984	997556	40836	108591	0	0	8169	670620	0	0
2024-05-31 16:18:32			0	35379	0	0	0	23327	21930	142456	26968	997520	40837	108596	0	0	8169	670224	0	0
2024-05-31 16:19:32			0	35350	0	0	0	23314	21930	142496	27246	997432	40837	108591	0	0	8168	671525	0	0
2024-05-31 16:20:32			0	35353	0	0	0	23303	21920	142412	27187	997476	40836	108587	0	0	8168	671428	0	0
2024-05-31 16:21:32			0	35363	0	0	0	23306	21920	142528	27308	997468	40846	108588	0	0	8168	670979	0	0
2024-05-31 16:22:32			0	35359	0	0	0	23322	21920	142504	26942	997503	40847	108594	0	0	8168	671159	0	0
2024-05-31 16:23:32			0	35369	0	0	0	23327	21930	142496	27034	997511	40837	108596	0	0	8168	670673	0	0
2024-05-31 16:24:32			0	35352	0	0	0	23329	21920	142508	27267	997495	40835	108597	0	0	8167	671473	0	0
2024-05-31 16:25:32			0	35342	0	0	0	23327	21920	142596	27327	997495	40846	108596	0	0	8167	671922	0	0
2024-05-31 16:26:32			0	35360	0	0	0	23322	21920	142512	26875	997521	40825	108594	0	0	8168	671114	0	0
2024-05-31 16:27:32			0	35347	0	0	0	23324	21910	142536	27371	997433	40857	108595	0	0	8167	671735	0	0
2024-05-31 16:28:32			0	35352	0	0	0	23327	21920	142460	27147	997530	40847	108596	0	0	8168	671473	0	0
2024-05-31 16:29:32			0	35369	0	0	0	23316	21920	142456	27376	997503	40836	108592	0	0	8169	670710	0	0
2024-05-31 16:30:32			0	35377	0	0	0	23332	21920	142464	27367	997495	40846	108598	0	0	8169	670351	0	0
2024-05-31 16:31:32			0	35368	0	0	0	23316	21920	142504	27488	997503	40836	108592	0	0	8169	670755	0	0
2024-05-31 16:32:32			0	35369	0	0	0	23314	21920	142488	27415	997468	40835	108591	0	0	8169	670710	0	0
2024-05-31 16:33:32			0	35369	0	0	0	23314	21920	142476	27353	997503	40847	108591	0	0	8169	670710	0	0
2024-05-31 16:34:32			0	35340	0	0	0	23327	21920	142580	27209	997495	40835	108596	0	0	8167	672012	0	0
2024-05-31 16:35:32			0	35358	0	0	0	23322	21930	142484	26864	997511	40837	108594	0	0	8168	671166	0	0
2024-05-31 16:36:32			0	35360	0	0	0	23322	21920	142380	27267	997476	40847	108594	0	0	8168	671114	0	0
2024-05-31 16:37:32			0	35366	0	0	0	23322	21920	142492	27301	997530	40858	108594	0	0	8168	670845	0	0
2024-05-31 16:38:32			0	35372	0	0	0	23337	21920	142452	27417	997495	40835	108600	0	0	8168	670575	0	0
2024-05-31 16:39:32			0	35376	0	0	0	23337	21920	142456	27345	997574	40846	108600	0	0	8169	670396	0	0
2024-05-31 16:40:32			0	35369	0	0	0	23340	21930	142320	27208	997565	40870	108601	0	0	8168	670673	0	0
2024-05-31 16:41:32			0	35385	0	0	0	23342	21930	142348	27235	997600	40837	108602	0	0	8169	669956	0	0
2024-05-31 16:42:32			0	35369	0	0	0	23345	21950	142492	27182	997652	40861	108603	0	0	8168	670598	0	0
2024-05-31 16:43:32			0	35394	0	0	0	23345	21940	142388	27133	997590	40849	108603	0	0	8170	669515	0	0
2024-05-31 16:44:32			0	35380	0	0	0	23342	21930	142348	27209	997653	40848	108602	0	0	8169	670180	0	0
2024-05-31 16:45:32			0	35387	0	0	0	23350	21940	142344	27306	997635	40837	108605	0	0	8169	669828	0	0
2024-05-31 16:46:32			0	35388	0	0	0	23353	21950	142356	27138	997652	40861	108606	0	0	8169	669746	0	0
2024-05-31 16:47:32			0	35391	0	0	0	23353	21950	142356	27376	997678	40838	108606	0	0	8169	669612	0	0
2024-05-31 16:48:32			0	35388	0	0	0	23348	21950	142292	27343	997705	40838	108604	0	0	8169	669746	0	0
2024-05-31 16:49:32			0	35384	0	0	0	23353	21960	142320	27230	997669	40838	108606	0	0	8169	669888	0	0
2024-05-31 16:50:32			0	35388	0	0	0	23355	21960	142376	26996	997722	40850	108607	0	0	8169	669709	0	0
2024-05-31 16:51:32			0	35400	0	0	0	23371	21960	142328	27355	997669	40850	108613	0	0	8170	669172	0	0
2024-05-31 16:52:32			0	35411	0	0	0	23371	21960	142220	27343	997775	40828	108613	0	0	8170	668679	0	0
2024-05-31 16:53:32			0	35402	0	0	0	23368	21970	142284	27135	997712	40840	108612	0	0	8170	669045	0	0
2024-05-31 16:54:32			0	35392	0	0	0	23368	21970	142244	27253	997748	40840	108612	0	0	8169	669493	0	0
2024-05-31 16:55:32			0	35421	0	0	0	23376	21970	142212	26970	997774	40851	108615	0	0	8171	668195	0	0
2024-05-31 16:56:32			0	35420	0	0	0	23376	21960	142260	27190	997757	40829	108615	0	0	8171	668277	0	0
2024-05-31 16:57:32			0	35411	0	0	0	23368	21970	142224	27310	997819	40851	108612	0	0	8170	668642	0	0
2024-05-31 16:58:32			0	35432	0	0	0	23366	21980	142160	27052	997729	40840	108611	0	0	8171	667666	0	0
2024-05-31 16:59:32			0	35408	0	0	0	23386	21970	142240	26887	997694	40851	108619	0	0	8170	668776	0	0
2024-05-31 17:00:32			0	35408	0	0	0	23379	21980	142136	26982	997889	40851	108616	0	0	8170	668739	0	0
2024-05-31 17:01:32			0	35420	0	0	0	23373	21970	142184	26767	997633	40863	108614	0	0	8171	668240	0	0
2024-05-31 17:02:32			0	35436	0	0	0	23361	21970	142148	27017	997739	40851	108609	0	0	8172	667524	0	0
2024-05-31 17:03:32			0	35414	0	0	0	23368	21980	142136	26968	997783	40851	108612	0	0	8170	668470	0	0
2024-05-31 17:04:32			0	35424	0	0	0	23373	21970	142144	26823	997774	40840	108614	0	0	8171	668061	0	0
2024-05-31 17:05:32			0	35454	0	0	0	23389	21980	142160	26726	997756	40863	108620	0	0	8172	666683	0	0
2024-05-31 17:06:32			0	35455	0	0	0	23384	21970	142148	26942	997694	40840	108618	0	0	8172	666675	0	0
2024-05-31 17:07:32			0	35456	0	0	0	23397	21980	142076	27085	997836	40851	108623	0	0	8172	666594	0	0
2024-05-31 17:08:32			0	35476	0	0	0	23394	21980	141980	27104	997809	40851	108622	0	0	8173	665701	0	0
2024-05-31 17:09:32			0	35467	0	0	0	23392	21990	141992	27109	997853	40853	108621	0	0	8173	666066	0	0
2024-05-31 17:10:32			0	35503	0	0	0	23407	21970	142100	27313	997801	40863	108627	0	0	8175	664535	0	0
2024-05-31 17:11:32			0	35491	0	0	0	23405	21990	141996	27263	997879	40842	108626	0	0	8174	664995	0	0
2024-05-31 17:12:32			0	35511	0	0	0	23415	21980	141896	27104	997871	40852	108630	0	0	8175	664142	0	0
2024-05-31 17:13:32			0	35517	0	0	0	23412	21990	141836	27150	997853	40853	108629	0	0	8175	663838	0	0
2024-05-31 17:14:32			0	35508	0	0	0	23392	21980	141828	27138	997844	40831	108621	0	0	8175	664275	0	0
2024-05-31 17:15:32			0	35529	0	0	0	23397	21990	141912	27078	997879	40842	108623	0	0	8176	663304	0	0
2024-05-31 17:16:32			0	35507	0	0	0	23394	21990	141908	27196	997826	40865	108622	0	0	8175	664283	0	0
2024-05-31 17:17:32			0	35500	0	0	0	23399	21990	141944	27209	997853	40853	108624	0	0	8175	664594	0	0
2024-05-31 17:18:32			0	35496	0	0	0	23394	21990	141936	26981	997800	40842	108622	0	0	8175	664773	0	0
2024-05-31 17:19:32			0	35487	0	0	0	23402	21990	141900	26960	997879	40842	108625	0	0	8174	665174	0	0
2024-05-31 17:20:32			0	35509	0	0	0	23386	21990	141856	26873	997861	40854	108619	0	0	8175	664194	0	0
2024-05-31 17:21:32			0	35514	0	0	0	23381	21980	141948	26984	997791	40852	108617	0	0	8176	664008	0	0
2024-05-31 17:22:32			0	35520	0	0	0	23389	21990	141844	26882	997773	40853	108620	0	0	8176	663704	0	0
2024-05-31 17:23:32			0	35521	0	0	0	23373	21990	141824	27131	997853	40832	108614	0	0	8176	663659	0	0
2024-05-31 17:24:32			0	35515	0	0	0	23384	21980	141844	26844	997818	40831	108618	0	0	8176	663964	0	0
2024-05-31 17:25:32			0	35517	0	0	0	23381	21980	141928	27093	997863	40830	108617	0	0	8176	663875	0	0
2024-05-31 17:26:32			0	35528	0	0	0	23376	21970	141880	27154	997827	40863	108615	0	0	8176	663422	0	0
2024-05-31 17:27:32			0	35512	0	0	0	23373	21970	141916	27137	997801	40840	108614	0	0	8176	664134	0	0
2024-05-31 17:28:32			0	35513	0	0	0	23376	21980	141920	26757	997809	40840	108615	0	0	8176	664053	0	0
2024-05-31 17:29:32			0	35507	0	0	0	23350	21980	141852	26967	997756	40851	108605	0	0	8176	664320	0	0
2024-05-31 17:30:32			0	35498	0	0	0	23340	21970	141828	27010	997694	40840	108601	0	0	8175	664758	0	0
2024-05-31 17:31:32			0	35504	0	0	0	23345	21960	141896	26850	997704	40839	108603	0	0	8176	664527	0	0
2024-05-31 17:32:32			0	35498	0	0	0	23340	21960	141908	27078	997651	40839	108601	0	0	8175	664795	0	0
2024-05-31 17:33:32			0	35502	0	0	0	23342	21960	142012	27137	997677	40851	108602	0	0	8176	664617	0	0
2024-05-31 17:34:32			0	35499	0	0	0	23342	21950	142020	26866	997652	40838	108602	0	0	8175	664787	0	0
2024-05-31 17:35:32			0	35483	0	0	0	23335	21950	142080	27352	997581	40828	108599	0	0	8175	665500	0	0
2024-05-31 17:36:32			0	35470	0	0	0	23329	21960	142088	27312	997616	40838	108597	0	0	8174	666043	0	0
2024-05-31 17:37:32			0	35463	0	0	0	23324	21950	142112	27204	997581	40828	108595	0	0	8174	666392	0	0
2024-05-31 17:38:32			0	35454	0	0	0	23306	21940	142136	27057	997537	40849	108588	0	0	8173	666832	0	0
2024-05-31 17:39:32			0	35459	0	0	0	23303	21940	142160	27286	997502	40848	108587	0	0	8174	666608	0	0
2024-05-31 17:40:32			0	35459	0	0	0	23293	21940	142212	26930	997582	40848	108583	0	0	8174	666608	0	0
2024-05-31 17:41:32			0	35435	0	0	0	23301	21940	142156	26918	997528	40826	108586	0	0	8173	667680	0	0
2024-05-31 17:42:32			0	35458	0	0	0	23314	21920	142144	27043	997503	40836	108591	0	0	8173	666727	0	0
2024-05-31 17:43:32			0	35411	0	0	0	23319	21920	142228	27111	997468	40835	108593	0	0	8171	668828	0	0
2024-05-31 17:44:32			0	35422	0	0	0	23270	21910	142244	27242	997406	40835	108574	0	0	8172	668373	0	0
2024-05-31 17:45:32			0	35419	0	0	0	23275	21920	142340	27258	997361	40846	108576	0	0	8172	668470	0	0
2024-05-31 17:46:32			0	35424	0	0	0	23244	21910	142236	27066	997371	40834	108564	0	0	8173	668284	0	0
2024-05-31 17:47:32			0	35402	0	0	0	23249	21910	142364	27216	997345	40845	108566	0	0	8172	669269	0	0
2024-05-31 17:48:32			0	35414	0	0	0	23257	21900	142336	27376	997354	40833	108569	0	0	8172	668769	0	0
2024-05-31 17:49:32			0	35405	0	0	0	23277	21900	142428	27076	997328	40844	108577	0	0	8171	669172	0	0
2024-05-31 17:50:32			0	35374	0	0	0	23283	21890	142480	26817	997399	40833	108579	0	0	8169	670598	0	0
2024-05-31 17:51:32			0	35375	0	0	0	23275	21890	142424	27274	997364	40833	108576	0	0	8170	670553	0	0
2024-05-31 17:52:32			0	35373	0	0	0	23228	21890	142564	27078	997311	40843	108558	0	0	8170	670643	0	0
2024-05-31 17:53:32			0	35363	0	0	0	23223	21880	142540	27265	997223	40843	108556	0	0	8170	671129	0	0
2024-05-31 17:54:32			0	35370	0	0	0	23238	21890	142600	27256	997284	40822	108562	0	0	8170	670777	0	0
2024-05-31 17:55:32			0	35363	0	0	0	23249	21870	142628	27298	997339	40831	108566	0	0	8169	671166	0	0
2024-05-31 17:56:32			0	35354	0	0	0	23231	21870	142652	27121	997224	40820	108559	0	0	8169	671570	0	0
2024-05-31 17:57:32			0	35337	0	0	0	23236	21860	142664	27249	997180	40852	108561	0	0	8168	672371	0	0
2024-05-31 17:58:32			0	35340	0	0	0	23257	21860	142672	26974	997215	40831	108569	0	0	8168	672236	0	0
2024-05-31 17:59:32			0	35314	0	0	0	23225	21860	142760	27135	997234	40841	108557	0	0	8167	673405	0	0
2024-05-31 18:00:32			0	35323	0	0	0	23241	21860	142804	27140	997154	40819	108563	0	0	8167	673000	0	0
2024-05-31 18:01:32			0	35315	0	0	0	23249	21850	142816	27152	997145	40818	108566	0	0	8167	673398	0	0
2024-05-31 18:02:32			0	35311	0	0	0	23257	21850	142816	27267	997225	40818	108569	0	0	8166	673578	0	0
2024-05-31 18:03:32			0	35291	0	0	0	23249	21850	142912	27152	997190	40830	108566	0	0	8165	674478	0	0
2024-05-31 18:04:32			0	35315	0	0	0	23228	21860	142820	27105	997180	40831	108558	0	0	8167	673360	0	0
2024-05-31 18:05:32			0	35293	0	0	0	23246	21850	142868	27142	997190	40851	108565	0	0	8165	674388	0	0
2024-05-31 18:06:32			0	35285	0	0	0	23246	21840	142948	27194	997182	40839	108565	0	0	8165	674786	0	0
2024-05-31 18:07:32			0	35296	0	0	0	23228	21840	142836	27137	997200	40829	108558	0	0	8166	674290	0	0
2024-05-31 18:08:32			0	35295	0	0	0	23233	21850	142960	27248	997217	40851	108560	0	0	8166	674298	0	0
2024-05-31 18:09:32			0	35272	0	0	0	23215	21840	143064	27326	997093	40829	108553	0	0	8165	675372	0	0
2024-05-31 18:10:32			0	35264	0	0	0	23225	21840	143116	27142	997128	40839	108557	0	0	8164	675732	0	0
2024-05-31 18:11:32			0	35253	0	0	0	23218	21840	143108	27076	997147	40839	108554	0	0	8164	676229	0	0
2024-05-31 18:12:32			0	35245	0	0	0	23231	21830	143068	27395	997103	40838	108559	0	0	8163	676628	0	0
2024-05-31 18:13:32			0	35234	0	0	0	23231	21840	143212	27296	997093	40829	108559	0	0	8162	677087	0	0
2024-05-31 18:14:32			0	35237	0	0	0	23215	21830	143132	26934	997138	40849	108553	0	0	8163	676989	0	0
2024-05-31 18:15:32			0	35216	0	0	0	23220	21820	143176	27182	997094	40837	108555	0	0	8161	677975	0	0
2024-05-31 18:16:32			0	35211	0	0	0	23205	21840	143172	27301	997093	40850	108549	0	0	8162	678126	0	0
2024-05-31 18:17:32			0	35199	0	0	0	23192	21830	143204	27180	997103	40828	108544	0	0	8161	678707	0	0
2024-05-31 18:18:32			0	35201	0	0	0	23215	21830	143200	27227	997049	40838	108553	0	0	8161	678616	0	0
2024-05-31 18:19:32			0	35178	0	0	0	23223	21830	143384	26894	997111	40817	108556	0	0	8159	679657	0	0
2024-05-31 18:20:32			0	35188	0	0	0	23231	21820	143348	27100	997068	40849	108559	0	0	8160	679242	0	0
2024-05-31 18:21:32			0	35171	0	0	0	23220	21830	143292	27163	997103	40828	108555	0	0	8159	679974	0	0
2024-05-31 18:22:32			0	35174	0	0	0	23202	21820	143388	27235	997147	40837	108548	0	0	8159	679876	0	0
2024-05-31 18:23:32			0	35170	0	0	0	23212	21820	143408	27199	997094	40827	108552	0	0	8159	680058	0	0
2024-05-31 18:24:32			0	35158	0	0	0	23199	21820	143456	27201	997059	40837	108547	0	0	8159	680602	0	0
2024-05-31 18:25:32			0	35163	0	0	0	23205	21820	143544	26963	997041	40837	108549	0	0	8159	680375	0	0
2024-05-31 18:26:32			0	35147	0	0	0	23197	21820	143492	27197	997068	40827	108546	0	0	8158	681101	0	0
2024-05-31 18:27:32			0	35116	0	0	0	23189	21810	143516	27086	997024	40836	108543	0	0	8156	682546	0	0
2024-05-31 18:28:32			0	35144	0	0	0	23199	21820	143584	27327	997059	40837	108547	0	0	8158	681236	0	0
2024-05-31 18:29:32			0	35146	0	0	0	23194	21810	143564	26831	996989	40835	108545	0	0	8158	681184	0	0
2024-05-31 18:30:32			0	35120	0	0	0	23194	21810	143492	26930	997024	40826	108545	0	0	8157	682364	0	0
2024-05-31 18:31:32			0	35141	0	0	0	23186	21810	143460	27085	996962	40825	108542	0	0	8158	681411	0	0
2024-05-31 18:32:32			0	35134	0	0	0	23194	21810	143560	26989	997016	40825	108545	0	0	8157	681728	0	0
2024-05-31 18:33:32			0	35116	0	0	0	23197	21800	143548	27242	996946	40824	108546	0	0	8156	682584	0	0
2024-05-31 18:34:32			0	35138	0	0	0	23186	21800	143656	27128	996999	40835	108542	0	0	8158	681585	0	0
2024-05-31 18:35:32			0	35135	0	0	0	23181	21800	143624	27177	996981	40847	108540	0	0	8158	681721	0	0
2024-05-31 18:36:32			0	35121	0	0	0	23197	21800	143624	27130	996946	40846	108546	0	0	8157	682357	0	0
2024-05-31 18:37:32			0	35120	0	0	0	23184	21790	143644	27277	996955	40845	108541	0	0	8157	682440	0	0
2024-05-31 18:38:32			0	35107	0	0	0	23181	21790	143575	26977	997017	40835	108540	0	0	8156	683031	0	0
2024-05-31 18:39:32			0	35121	0	0	0	23171	21800	143688	27045	996999	40824	108536	0	0	8157	682357	0	0
2024-05-31 18:40:32			0	35127	0	0	0	23186	21800	143520	26989	996892	40846	108542	0	0	8157	682084	0	0
2024-05-31 18:41:32			0	35142	0	0	0	23184	21790	143528	27279	996990	40824	108541	0	0	8158	681441	0	0
2024-05-31 18:42:32			0	35170	0	0	0	23184	21790	143424	27036	996875	40834	108541	0	0	8159	680171	0	0
2024-05-31 18:43:32			0	35174	0	0	0	23179	21790	143472	27206	996964	40835	108539	0	0	8160	679990	0	0
2024-05-31 18:44:32			0	35168	0	0	0	23181	21800	143560	27109	996946	40824	108540	0	0	8159	680224	0	0
2024-05-31 18:45:32			0	35157	0	0	0	23174	21800	143416	26856	996946	40835	108537	0	0	8159	680723	0	0
2024-05-31 18:46:32			0	35155	0	0	0	23184	21790	143532	27422	996955	40834	108541	0	0	8159	680851	0	0
2024-05-31 18:47:32			0	35155	0	0	0	23184	21790	143520	26897	996937	40835	108541	0	0	8159	680851	0	0
2024-05-31 18:48:32			0	35170	0	0	0	23197	21790	143584	27263	996955	40823	108546	0	0	8159	680171	0	0
2024-05-31 18:49:32			0	35164	0	0	0	23194	21790	143508	27244	997017	40824	108545	0	0	8159	680443	0	0
2024-05-31 18:50:32			0	35168	0	0	0	23194	21790	143432	27043	996990	40846	108545	0	0	8159	680262	0	0
2024-05-31 18:51:32			0	35164	0	0	0	23197	21790	143488	27140	996982	40823	108546	0	0	8159	680443	0	0
2024-05-31 18:52:32			0	35165	0	0	0	23197	21800	143444	26850	997007	40835	108546	0	0	8159	680360	0	0
2024-05-31 18:53:32			0	35162	0	0	0	23205	21800	143500	27208	996999	40835	108549	0	0	8159	680496	0	0
2024-05-31 18:54:32			0	35178	0	0	0	23197	21800	143368	27057	997007	40847	108546	0	0	8160	679771	0	0
2024-05-31 18:55:32			0	35177	0	0	0	23207	21800	143384	27203	997060	40835	108550	0	0	8159	679816	0	0
2024-05-31 18:56:32			0	35183	0	0	0	23223	21800	143348	27235	996972	40835	108556	0	0	8160	679544	0	0
2024-05-31 18:57:32			0	35184	0	0	0	23215	21800	143404	27253	997034	40825	108553	0	0	8160	679499	0	0
2024-05-31 18:58:32			0	35215	0	0	0	23215	21800	143364	27287	997052	40835	108553	0	0	8161	678096	0	0
2024-05-31 18:59:32			0	35190	0	0	0	23212	21810	143364	27268	997042	40835	108552	0	0	8160	679190	0	0
2024-05-31 19:00:32			0	35216	0	0	0	23220	21810	143408	27052	997069	40835	108555	0	0	8161	678013	0	0
2024-05-31 19:01:32			0	35192	0	0	0	23220	21810	143392	27150	997077	40826	108555	0	0	8160	679099	0	0
2024-05-31 19:02:32			0	35192	0	0	0	23223	21810	143372	27064	997149	40825	108556	0	0	8160	679099	0	0
2024-05-31 19:03:32			0	35209	0	0	0	23218	21810	143292	26694	997149	40835	108554	0	0	8161	678330	0	0
2024-05-31 19:04:32			0	35195	0	0	0	23225	21810	143308	26890	997104	40836	108557	0	0	8160	678963	0	0
2024-05-31 19:05:32			0	35181	0	0	0	23231	21820	143348	27251	997112	40849	108559	0	0	8159	679559	0	0
2024-05-31 19:06:32			0	35208	0	0	0	23231	21820	143344	27343	997121	40849	108559	0	0	8161	678337	0	0
2024-05-31 19:07:32			0	35195	0	0	0	23236	21820	143284	27027	997139	40827	108561	0	0	8160	678925	0	0
2024-05-31 19:08:32			0	35229	0	0	0	23244	21820	143212	26913	997147	40849	108564	0	0	8162	677388	0	0
2024-05-31 19:09:32			0	35267	0	0	0	23249	21830	143124	27258	997183	40838	108566	0	0	8164	675635	0	0
2024-05-31 19:10:32			0	35287	0	0	0	23257	21830	142968	27133	997218	40849	108569	0	0	8165	674733	0	0
2024-05-31 19:11:32			0	35301	0	0	0	23251	21830	142840	27012	997165	40828	108567	0	0	8166	674103	0	0
2024-05-31 19:12:32			0	35316	0	0	0	23238	21830	142884	27284	997165	40838	108562	0	0	8167	673428	0	0
2024-05-31 19:13:32			0	35325	0	0	0	23244	21830	142784	26993	997111	40838	108564	0	0	8167	673023	0	0
2024-05-31 19:14:32			0	35352	0	0	0	23244	21840	142696	27161	997147	40839	108564	0	0	8169	671772	0	0
2024-05-31 19:15:32			0	35366	0	0	0	23238	21840	142656	26989	997173	40818	108562	0	0	8169	671144	0	0
2024-05-31 19:16:32			0	35370	0	0	0	23246	21850	142680	27365	997163	40851	108565	0	0	8170	670927	0	0
2024-05-31 19:17:32			0	35397	0	0	0	23254	21830	142516	26967	997218	40838	108568	0	0	8171	669791	0	0
2024-05-31 19:18:32			0	35423	0	0	0	23249	21840	142484	27220	997208	40839	108566	0	0	8172	668589	0	0
2024-05-31 19:19:32			0	35442	0	0	0	23246	21840	142348	26727	997226	40839	108565	0	0	8173	667739	0	0
2024-05-31 19:20:32			0	35435	0	0	0	23236	21840	142312	27093	997235	40839	108561	0	0	8173	668053	0	0
2024-05-31 19:21:32			0	35435	0	0	0	23238	21840	142416	26849	997200	40850	108562	0	0	8173	668053	0	0
2024-05-31 19:22:32			0	35409	0	0	0	23241	21840	142392	26885	997173	40839	108563	0	0	8172	669216	0	0
2024-05-31 19:23:32			0	35434	0	0	0	23251	21840	142376	27320	997182	40839	108567	0	0	8173	668097	0	0
2024-05-31 19:24:32			0	35426	0	0	0	23236	21840	142388	27270	997182	40839	108561	0	0	8173	668455	0	0
2024-05-31 19:25:32			0	35449	0	0	0	23236	21840	142228	26795	997200	40839	108561	0	0	8174	667427	0	0
2024-05-31 19:26:32			0	35483	0	0	0	23236	21840	142216	27090	997235	40862	108561	0	0	8176	665908	0	0
2024-05-31 19:27:32			0	35466	0	0	0	23228	21840	142164	27289	997173	40839	108558	0	0	8175	666667	0	0
2024-05-31 19:28:32			0	35494	0	0	0	23244	21830	142068	26811	997111	40849	108564	0	0	8176	665455	0	0
2024-05-31 19:29:32			0	35490	0	0	0	23236	21840	142064	26979	997200	40829	108561	0	0	8176	665596	0	0
2024-05-31 19:30:32			0	35526	0	0	0	23228	21830	142064	27371	997191	40828	108558	0	0	8178	664029	0	0
2024-05-31 19:31:32			0	35531	0	0	0	23223	21840	141916	27362	997128	40829	108556	0	0	8179	663769	0	0
2024-05-31 19:32:32			0	35566	0	0	0	23225	21840	141820	27261	997200	40839	108557	0	0	8180	662212	0	0
2024-05-31 19:33:32			0	35605	0	0	0	23228	21830	141688	27031	997111	40828	108558	0	0	8182	660518	0	0
2024-05-31 19:34:32			0	35606	0	0	0	23225	21840	141640	27360	997226	40839	108557	0	0	8183	660437	0	0
2024-05-31 19:35:32			0	35561	0	0	0	23231	21830	141756	27220	997165	40828	108559	0	0	8180	662472	0	0
2024-05-31 19:36:32			0	35589	0	0	0	23220	21830	141816	27001	997156	40828	108555	0	0	8182	661228	0	0
2024-05-31 19:37:32			0	35593	0	0	0	23218	21830	141712	27202	997138	40828	108554	0	0	8182	661050	0	0
2024-05-31 19:38:32			0	35600	0	0	0	23223	21840	141748	27265	997120	40829	108556	0	0	8182	660703	0	0
2024-05-31 19:39:32			0	35609	0	0	0	23218	21830	141668	27386	997085	40838	108554	0	0	8183	660340	0	0
2024-05-31 19:40:32			0	35596	0	0	0	23223	21820	141740	27208	997147	40827	108556	0	0	8182	660954	0	0
2024-05-31 19:41:32			0	35597	0	0	0	23215	21830	141780	27407	997085	40828	108553	0	0	8182	660873	0	0
2024-05-31 19:42:32			0	35583	0	0	0	23210	21830	141788	27336	997129	40838	108551	0	0	8182	661494	0	0
2024-05-31 19:43:32			0	35541	0	0	0	23220	21840	141916	27124	997093	40839	108555	0	0	8179	663324	0	0
2024-05-31 19:44:32			0	35544	0	0	0	23215	21830	141888	27045	997076	40838	108553	0	0	8179	663228	0	0
2024-05-31 19:45:32			0	35593	0	0	0	23218	21830	141768	26942	997138	40861	108554	0	0	8182	661050	0	0
2024-05-31 19:46:32			0	35603	0	0	0	23220	21820	141756	27326	997086	40849	108555	0	0	8182	660643	0	0
2024-05-31 19:47:32			0	35596	0	0	0	23218	21830	141716	27026	997076	40838	108554	0	0	8182	660917	0	0
2024-05-31 19:48:32			0	35606	0	0	0	23220	21820	141800	27052	997094	40837	108555	0	0	8183	660510	0	0
2024-05-31 19:49:32			0	35583	0	0	0	23215	21830	141712	27178	997129	40838	108553	0	0	8182	661494	0	0
2024-05-31 19:50:32			0	35614	0	0	0	23215	21830	141724	27331	997129	40838	108553	0	0	8183	660119	0	0
2024-05-31 19:51:32			0	35611	0	0	0	23212	21820	141744	26965	997139	40849	108552	0	0	8183	660289	0	0
2024-05-31 19:52:32			0	35620	0	0	0	23218	21820	141732	27268	997112	40837	108554	0	0	8183	659890	0	0
2024-05-31 19:53:32			0	35615	0	0	0	23215	21820	141680	27287	997112	40837	108553	0	0	8183	660111	0	0
2024-05-31 19:54:32			0	35629	0	0	0	23225	21830	141728	27038	997129	40828	108557	0	0	8184	659454	0	0
2024-05-31 19:55:32			0	35631	0	0	0	23212	21830	141728	27194	997076	40828	108552	0	0	8184	659365	0	0
2024-05-31 19:56:32			0	35601	0	0	0	23215	21820	141776	26837	997059	40827	108553	0	0	8182	660732	0	0
2024-05-31 19:57:32			0	35589	0	0	0	23220	21820	141740	26974	997094	40827	108555	0	0	8182	661265	0	0
2024-05-31 19:58:32			0	35583	0	0	0	23210	21810	141944	27102	997077	40836	108551	0	0	8182	661568	0	0
2024-05-31 19:59:32			0	35606	0	0	0	23210	21820	141748	27279	997112	40837	108551	0	0	8183	660510	0	0
2024-05-31 20:00:32			0	35603	0	0	0	23210	21820	141780	27279	997014	40827	108551	0	0	8183	660643	0	0
2024-05-31 20:01:32			0	35624	0	0	0	23212	21820	141692	27279	997086	40837	108552	0	0	8184	659712	0	0
2024-05-31 20:02:32			0	35642	0	0	0	23202	21810	141680	27007	997069	40835	108548	0	0	8185	658952	0	0
2024-05-31 20:03:32			0	35644	0	0	0	23202	21810	141564	27334	996998	40836	108548	0	0	8185	658863	0	0
2024-05-31 20:04:32			0	35678	0	0	0	23207	21810	141492	26899	997024	40859	108550	0	0	8187	657359	0	0
2024-05-31 20:05:32			0	35671	0	0	0	23199	21810	141600	27440	997104	40836	108547	0	0	8186	657668	0	0
2024-05-31 20:06:32			0	35674	0	0	0	23199	21810	141552	27064	997069	40835	108547	0	0	8187	657536	0	0
2024-05-31 20:07:32			0	35648	0	0	0	23207	21810	141588	27412	997024	40836	108550	0	0	8185	658686	0	0
2024-05-31 20:08:32			0	35630	0	0	0	23210	21820	141752	27157	997086	40827	108551	0	0	8184	659446	0	0
2024-05-31 20:09:32			0	35634	0	0	0	23205	21810	141784	27326	997131	40836	108549	0	0	8184	659306	0	0
2024-05-31 20:10:32			0	35624	0	0	0	23202	21810	141844	27315	997077	40836	108548	0	0	8184	659749	0	0
2024-05-31 20:11:32			0	35634	0	0	0	23197	21810	141708	27029	997016	40835	108546	0	0	8184	659306	0	0
2024-05-31 20:12:32			0	35628	0	0	0	23194	21800	141708	27197	997060	40847	108545	0	0	8184	659609	0	0
2024-05-31 20:13:32			0	35628	0	0	0	23186	21810	141572	27209	996989	40825	108542	0	0	8184	659572	0	0
2024-05-31 20:14:32			0	35610	0	0	0	23186	21810	141768	27320	997016	40847	108542	0	0	8183	660370	0	0
2024-05-31 20:15:32			0	35600	0	0	0	23194	21800	141808	26920	997034	40835	108545	0	0	8183	660850	0	0
2024-05-31 20:16:32			0	35588	0	0	0	23184	21800	141852	27402	997025	40835	108541	0	0	8182	661383	0	0
2024-05-31 20:17:32			0	35564	0	0	0	23181	21800	141892	27173	996981	40847	108540	0	0	8181	662449	0	0
2024-05-31 20:18:32			0	35552	0	0	0	23184	21800	142036	27390	997052	40835	108541	0	0	8180	662983	0	0
2024-05-31 20:19:32			0	35531	0	0	0	23186	21790	142096	27118	996964	40835	108542	0	0	8179	663954	0	0
2024-05-31 20:20:32			0	35537	0	0	0	23189	21790	142160	27312	996964	40824	108543	0	0	8179	663687	0	0
2024-05-31 20:21:32			0	35536	0	0	0	23184	21790	142132	27244	996902	40834	108541	0	0	8179	663731	0	0
2024-05-31 20:22:32			0	35553	0	0	0	23192	21790	142020	27072	996964	40835	108544	0	0	8180	662975	0	0
2024-05-31 20:23:32			0	35556	0	0	0	23186	21790	142008	27194	997009	40834	108542	0	0	8180	662842	0	0
2024-05-31 20:24:32			0	35571	0	0	0	23189	21790	141944	27372	996955	40834	108543	0	0	8181	662175	0	0
2024-05-31 20:25:32			0	35584	0	0	0	23186	21780	141868	27376	996938	40844	108542	0	0	8182	661634	0	0
2024-05-31 20:26:32			0	35564	0	0	0	23179	21790	141856	27249	996955	40834	108539	0	0	8181	662486	0	0
2024-05-31 20:27:32			0	35590	0	0	0	23186	21780	141828	27267	996947	40834	108542	0	0	8182	661368	0	0
2024-05-31 20:28:32			0	35592	0	0	0	23189	21790	141808	27428	996982	40845	108543	0	0	8182	661242	0	0
2024-05-31 20:29:32			0	35588	0	0	0	23192	21790	141848	27267	996937	40846	108544	0	0	8182	661419	0	0
2024-05-31 20:30:32			0	35603	0	0	0	23189	21790	141820	27374	996929	40834	108543	0	0	8183	660754	0	0
2024-05-31 20:31:32			0	35639	0	0	0	23192	21780	141820	27211	996938	40823	108544	0	0	8185	659195	0	0
2024-05-31 20:32:32			0	35618	0	0	0	23194	21780	141668	27293	996973	40834	108545	0	0	8184	660125	0	0
2024-05-31 20:33:32			0	35626	0	0	0	23186	21790	141688	27256	996982	40834	108542	0	0	8184	659734	0	0
2024-05-31 20:34:32			0	35636	0	0	0	23194	21790	141696	27255	997009	40823	108545	0	0	8185	659291	0	0
2024-05-31 20:35:32			0	35638	0	0	0	23189	21780	141644	27138	996920	40823	108543	0	0	8185	659239	0	0
2024-05-31 20:36:32			0	35647	0	0	0	23186	21780	141688	27241	996973	40834	108542	0	0	8185	658840	0	0
2024-05-31 20:37:32			0	35635	0	0	0	23194	21770	141692	27085	996930	40844	108545	0	0	8184	659409	0	0
2024-05-31 20:38:32			0	35627	0	0	0	23189	21790	141652	27333	996955	40834	108543	0	0	8184	659690	0	0
2024-05-31 20:39:32			0	35638	0	0	0	23163	21790	141640	27360	996955	40845	108533	0	0	8185	659202	0	0
2024-05-31 20:40:32			0	35633	0	0	0	23166	21790	141772	27421	996955	40823	108534	0	0	8185	659424	0	0
2024-05-31 20:41:32			0	35601	0	0	0	23163	21790	141740	27568	996955	40834	108533	0	0	8183	660842	0	0
2024-05-31 20:42:32			0	35573	0	0	0	23161	21770	141852	27464	996957	40833	108532	0	0	8182	662160	0	0
2024-05-31 20:43:32			0	35555	0	0	0	23168	21760	141932	27582	996913	40843	108535	0	0	8180	662997	0	0
2024-05-31 20:44:32			0	35555	0	0	0	23150	21760	142104	27367	996905	40821	108528	0	0	8181	662997	0	0
2024-05-31 20:45:32			0	35515	0	0	0	23153	21770	142204	27410	996877	40844	108529	0	0	8179	664741	0	0
2024-05-31 20:46:32			0	35460	0	0	0	23155	21760	142360	27138	996807	40843	108530	0	0	8176	667232	0	0
2024-05-31 20:47:32			0	35447	0	0	0	23150	21760	142468	27338	996825	40842	108528	0	0	8175	667814	0	0
2024-05-31 20:48:32			0	35415	0	0	0	23135	21750	142520	27213	996763	40842	108522	0	0	8173	669283	0	0
2024-05-31 20:49:32			0	35400	0	0	0	23114	21740	142708	27358	996746	40841	108514	0	0	8173	669992	0	0
2024-05-31 20:50:32			0	35325	0	0	0	23109	21750	142908	27481	996701	40831	108512	0	0	8169	673323	0	0
2024-05-31 20:51:32			0	35315	0	0	0	23132	21740	142964	27248	996711	40819	108521	0	0	8168	673810	0	0
2024-05-31 20:52:32			0	35299	0	0	0	23119	21750	143112	27490	996728	40831	108516	0	0	8167	674493	0	0
2024-05-31 20:53:32			0	35270	0	0	0	23137	21740	143072	27209	996720	40820	108523	0	0	8165	675838	0	0
2024-05-31 20:54:32			0	35255	0	0	0	23132	21740	143268	27291	996738	40819	108521	0	0	8165	676515	0	0
2024-05-31 20:55:32			0	35244	0	0	0	23135	21730	143324	27305	996783	40818	108522	0	0	8164	677050	0	0
2024-05-31 20:56:32			0	35209	0	0	0	23129	21750	143396	27206	996755	40831	108520	0	0	8162	678556	0	0
2024-05-31 20:57:32			0	35185	0	0	0	23119	21740	143456	27045	996711	40830	108516	0	0	8161	679681	0	0
2024-05-31 20:58:32			0	35196	0	0	0	23119	21730	143476	27260	996729	40818	108516	0	0	8162	679220	0	0
2024-05-31 20:59:32			0	35187	0	0	0	23116	21730	143556	27360	996721	40829	108515	0	0	8161	679628	0	0
2024-05-31 21:00:32			0	35192	0	0	0	23119	21740	143636	27157	996738	40830	108516	0	0	8162	679364	0	0
2024-05-31 21:01:32			0	35177	0	0	0	23122	21730	143528	26993	996748	40829	108517	0	0	8161	680081	0	0
2024-05-31 21:02:32			0	35137	0	0	0	23114	21720	143564	27074	996713	40818	108514	0	0	8159	681934	0	0
2024-05-31 21:03:32			0	35129	0	0	0	23101	21720	143672	27142	996677	40817	108509	0	0	8158	682297	0	0
2024-05-31 21:04:32			0	35139	0	0	0	23111	21720	143748	27163	996713	40829	108513	0	0	8159	681843	0	0
2024-05-31 21:05:32			0	35130	0	0	0	23106	21720	143788	27268	996704	40817	108511	0	0	8158	682252	0	0
2024-05-31 21:06:32			0	35143	0	0	0	23109	21720	143760	27216	996704	40839	108512	0	0	8159	681661	0	0
2024-05-31 21:07:32			0	35110	0	0	0	23111	21720	143839	26984	996677	40817	108513	0	0	8157	683161	0	0
2024-05-31 21:08:32			0	35117	0	0	0	23111	21720	143772	26960	996713	40829	108513	0	0	8157	682843	0	0
2024-05-31 21:09:32			0	35122	0	0	0	23124	21720	143864	27197	996686	40829	108518	0	0	8158	682615	0	0
2024-05-31 21:10:32			0	35096	0	0	0	23116	21730	143815	27452	996641	40829	108515	0	0	8156	683760	0	0
2024-05-31 21:11:32			0	35108	0	0	0	23114	21720	143940	27261	996651	40817	108514	0	0	8157	683252	0	0
2024-05-31 21:12:32			0	35085	0	0	0	23119	21710	143915	27150	996642	40828	108516	0	0	8156	684337	0	0
2024-05-31 21:13:32			0	35081	0	0	0	23111	21710	143911	27104	996634	40816	108513	0	0	8155	684519	0	0
2024-05-31 21:14:32			0	35113	0	0	0	23103	21710	143819	27225	996661	40838	108510	0	0	8157	683063	0	0
2024-05-31 21:15:32			0	35130	0	0	0	23109	21720	143840	27307	996659	40829	108512	0	0	8158	682252	0	0
2024-05-31 21:16:32			0	35137	0	0	0	23098	21700	143776	27111	996625	40827	108508	0	0	8159	682010	0	0
2024-05-31 21:17:32			0	35110	0	0	0	23103	21710	143927	27225	996669	40838	108510	0	0	8157	683199	0	0
2024-05-31 21:18:32			0	35106	0	0	0	23109	21720	143919	27339	996651	40839	108512	0	0	8157	683343	0	0
2024-05-31 21:19:32			0	35127	0	0	0	23109	21700	143888	27157	996652	40827	108512	0	0	8158	682464	0	0
2024-05-31 21:20:32			0	35147	0	0	0	23119	21710	143820	27111	996634	40838	108516	0	0	8159	681518	0	0
2024-05-31 21:21:32			0	35179	0	0	0	23111	21710	143700	27365	996634	40828	108513	0	0	8161	680066	0	0
2024-05-31 21:22:32			0	35190	0	0	0	23109	21710	143572	27345	996669	40828	108512	0	0	8161	679568	0	0
2024-05-31 21:23:32			0	35201	0	0	0	23114	21710	143648	27109	996616	40838	108514	0	0	8162	679070	0	0
2024-05-31 21:24:32			0	35188	0	0	0	23109	21710	143672	27187	996642	40816	108512	0	0	8161	679658	0	0
2024-05-31 21:25:32			0	35206	0	0	0	23103	21710	143556	27074	996714	40828	108510	0	0	8162	678843	0	0
2024-05-31 21:26:32			0	35182	0	0	0	23093	21700	143584	27192	996599	40837	108506	0	0	8161	679968	0	0
2024-05-31 21:27:32			0	35165	0	0	0	23103	21700	143740	27121	996625	40827	108510	0	0	8160	680739	0	0
2024-05-31 21:28:32			0	35152	0	0	0	23103	21710	143892	27253	996581	40816	108510	0	0	8159	681291	0	0
2024-05-31 21:29:32			0	35113	0	0	0	23114	21700	143955	27230	996625	40815	108514	0	0	8157	683101	0	0
2024-05-31 21:30:32			0	35108	0	0	0	23109	21710	143972	27140	996634	40828	108512	0	0	8157	683290	0	0
2024-05-31 21:31:32			0	35136	0	0	0	23101	21710	143976	27377	996634	40838	108509	0	0	8159	682017	0	0
2024-05-31 21:32:32			0	35140	0	0	0	23085	21710	143824	27019	996634	40849	108503	0	0	8159	681836	0	0
2024-05-31 21:33:32			0	35140	0	0	0	23075	21700	143836	27242	996599	40827	108499	0	0	8159	681874	0	0
2024-05-31 21:34:32			0	35098	0	0	0	23072	21710	143879	27020	996661	40816	108498	0	0	8157	683745	0	0
2024-05-31 21:35:32			0	35096	0	0	0	23070	21690	144071	27256	996528	40826	108497	0	0	8157	683912	0	0
2024-05-31 21:36:32			0	35077	0	0	0	23072	21690	144075	27270	996528	40826	108498	0	0	8156	684777	0	0
2024-05-31 21:37:32			0	35041	0	0	0	23057	21680	144255	27190	996458	40814	108492	0	0	8154	686457	0	0
2024-05-31 21:38:32			0	35035	0	0	0	23057	21680	144347	27201	996493	40814	108492	0	0	8154	686731	0	0
2024-05-31 21:39:32			0	35008	0	0	0	23041	21680	144319	27293	996512	40825	108486	0	0	8152	687965	0	0
2024-05-31 21:40:32			0	34992	0	0	0	23031	21670	144343	27351	996468	40824	108482	0	0	8152	688735	0	0
2024-05-31 21:41:32			0	34998	0	0	0	23041	21660	144431	27486	996406	40812	108486	0	0	8152	688498	0	0
2024-05-31 21:42:32			0	35029	0	0	0	23041	21660	144359	27514	996406	40812	108486	0	0	8154	687081	0	0
2024-05-31 21:43:32			0	35100	0	0	0	23036	21660	144003	27293	996371	40823	108484	0	0	8158	683844	0	0
2024-05-31 21:44:32			0	35130	0	0	0	23038	21650	143844	27079	996408	40822	108485	0	0	8159	682518	0	0
2024-05-31 21:45:32			0	35134	0	0	0	23044	21650	143752	27305	996390	40823	108487	0	0	8159	682336	0	0
2024-05-31 21:46:32			0	35135	0	0	0	23046	21650	143788	27272	996363	40823	108488	0	0	8159	682291	0	0
2024-05-31 21:47:32			0	35139	0	0	0	23041	21640	143872	27000	996373	40799	108486	0	0	8159	682147	0	0
2024-05-31 21:48:32			0	35140	0	0	0	23038	21640	143828	26850	996346	40810	108485	0	0	8160	682101	0	0
2024-05-31 21:49:32			0	35144	0	0	0	23028	21650	143848	27201	996355	40822	108481	0	0	8160	681882	0	0
2024-05-31 21:50:32			0	35175	0	0	0	23033	21650	143888	27405	996408	40822	108483	0	0	8162	680475	0	0
2024-05-31 21:51:32			0	35163	0	0	0	23031	21630	143824	27135	996329	40833	108482	0	0	8161	681095	0	0
2024-05-31 21:52:32			0	35175	0	0	0	23028	21640	143804	27279	996338	40833	108481	0	0	8162	680513	0	0
2024-05-31 21:53:32			0	35191	0	0	0	23028	21640	143696	27267	996284	40810	108481	0	0	8163	679787	0	0
2024-05-31 21:54:32			0	35197	0	0	0	23018	21640	143580	27116	996364	40821	108477	0	0	8163	679515	0	0
2024-05-31 21:55:32			0	35222	0	0	0	23031	21630	143552	27324	996276	40810	108482	0	0	8164	678421	0	0
2024-05-31 21:56:32			0	35218	0	0	0	23033	21620	143616	27293	996259	40820	108483	0	0	8164	678640	0	0
2024-05-31 21:57:32			0	35228	0	0	0	23020	21630	143612	27611	996294	40809	108478	0	0	8165	678150	0	0
2024-05-31 21:58:32			0	35225	0	0	0	23033	21610	143616	27509	996269	40820	108483	0	0	8164	678361	0	0
2024-05-31 21:59:32			0	35191	0	0	0	23012	21630	143672	27111	996321	40798	108475	0	0	8163	679825	0	0
2024-05-31 22:00:32			0	35189	0	0	0	22999	21620	143788	27410	996259	40820	108470	0	0	8163	679954	0	0
2024-05-31 22:01:32			0	35219	0	0	0	22997	21610	143516	27015	996127	40830	108469	0	0	8164	678633	0	0
2024-05-31 22:02:32			0	35225	0	0	0	22984	21620	143436	27357	996198	40820	108464	0	0	8165	678323	0	0
2024-05-31 22:03:32			0	35274	0	0	0	22997	21600	143376	27029	996119	40818	108469	0	0	8167	676184	0	0
2024-05-31 22:04:32			0	35305	0	0	0	22997	21610	143176	26951	996207	40807	108469	0	0	8169	674749	0	0
2024-05-31 22:05:32			0	35328	0	0	0	22971	21610	143148	27642	996127	40807	108459	0	0	8171	673713	0	0
2024-05-31 22:06:32			0	35327	0	0	0	22950	21600	143076	27081	996084	40806	108451	0	0	8171	673795	0	0
2024-05-31 22:07:32			0	35354	0	0	0	22942	21580	142968	27287	996032	40805	108448	0	0	8173	672655	0	0
2024-05-31 22:08:32			0	35375	0	0	0	22940	21580	142956	27293	996005	40805	108447	0	0	8174	671711	0	0
2024-05-31 22:09:32			0	35363	0	0	0	22932	21580	143000	27156	995970	40804	108444	0	0	8173	672251	0	0
2024-05-31 22:10:32			0	35378	0	0	0	22937	21580	142968	26800	995970	40815	108446	0	0	8174	671577	0	0
2024-05-31 22:11:32			0	35342	0	0	0	22919	21570	143080	26828	995908	40815	108439	0	0	8172	673232	0	0
2024-05-31 22:12:32			0	35336	0	0	0	22922	21560	143072	27403	995998	40803	108440	0	0	8172	673540	0	0
2024-05-31 22:13:32			0	35300	0	0	0	22914	21550	143152	26946	995928	40813	108437	0	0	8170	675199	0	0
2024-05-31 22:14:32			0	35304	0	0	0	22924	21550	143264	26984	995875	40813	108441	0	0	8170	675019	0	0
2024-05-31 22:15:32			0	35310	0	0	0	22909	21540	143268	27319	995884	40801	108435	0	0	8171	674786	0	0
2024-05-31 22:16:32			0	35320	0	0	0	22922	21540	143248	27538	995884	40812	108440	0	0	8171	674335	0	0
2024-05-31 22:17:32			0	35286	0	0	0	22909	21540	143340	26736	995884	40801	108435	0	0	8169	675868	0	0
2024-05-31 22:18:32			0	35260	0	0	0	22909	21540	143420	27095	995849	40800	108435	0	0	8168	677043	0	0
2024-05-31 22:19:32			0	35253	0	0	0	22909	21540	143468	27145	995876	40800	108435	0	0	8167	677359	0	0
2024-05-31 22:20:32			0	35224	0	0	0	22903	21530	143496	27447	995841	40799	108433	0	0	8166	678708	0	0
2024-05-31 22:21:32			0	35240	0	0	0	22911	21520	143540	27086	995762	40798	108436	0	0	8167	678022	0	0
2024-05-31 22:22:32			0	35234	0	0	0	22911	21520	143536	27012	995744	40799	108436	0	0	8166	678293	0	0
2024-05-31 22:23:32			0	35231	0	0	0	22916	21530	143544	27033	995806	40799	108438	0	0	8166	678391	0	0
2024-05-31 22:24:32			0	35245	0	0	0	22909	21520	143560	27248	995797	40799	108435	0	0	8167	677796	0	0
2024-05-31 22:25:32			0	35258	0	0	0	22906	21520	143500	27204	995789	40798	108434	0	0	8168	677208	0	0
2024-05-31 22:26:32			0	35245	0	0	0	22929	21520	143448	27185	995797	40811	108443	0	0	8167	677796	0	0
2024-05-31 22:27:32			0	35259	0	0	0	22903	21510	143404	27147	995754	40820	108433	0	0	8168	677201	0	0
2024-05-31 22:28:32			0	35262	0	0	0	22906	21510	143424	27327	995746	40809	108434	0	0	8168	677065	0	0
2024-05-31 22:29:32			0	35264	0	0	0	22901	21510	143380	27093	995692	40798	108432	0	0	8168	676975	0	0
2024-05-31 22:30:32			0	35281	0	0	0	22893	21510	143300	27317	995754	40798	108429	0	0	8169	676207	0	0
2024-05-31 22:31:32			0	35296	0	0	0	22885	21510	143376	26916	995719	40798	108426	0	0	8170	675530	0	0
2024-05-31 22:32:32			0	35302	0	0	0	22880	21500	143268	27345	995710	40809	108424	0	0	8170	675297	0	0
2024-05-31 22:33:32			0	35319	0	0	0	22893	21500	143292	27119	995684	40798	108429	0	0	8171	674530	0	0
2024-05-31 22:34:32			0	35304	0	0	0	22888	21500	143332	27079	995702	40797	108427	0	0	8170	675207	0	0
2024-05-31 22:35:32			0	35311	0	0	0	22890	21500	143164	27168	995737	40798	108428	0	0	8171	674891	0	0
2024-05-31 22:36:32			0	35330	0	0	0	22901	21500	143088	27079	995710	40798	108432	0	0	8172	674035	0	0
2024-05-31 22:37:32			0	35317	0	0	0	22893	21500	143220	27232	995702	40797	108429	0	0	8171	674620	0	0
2024-05-31 22:38:32			0	35300	0	0	0	22885	21490	143260	27227	995614	40796	108426	0	0	8170	675424	0	0
2024-05-31 22:39:32			0	35284	0	0	0	22875	21490	143308	27313	995747	40807	108422	0	0	8170	676146	0	0
2024-05-31 22:40:32			0	35293	0	0	0	22877	21490	143516	27530	995712	40807	108423	0	0	8170	675740	0	0
2024-05-31 22:41:32			0	35283	0	0	0	22880	21490	143440	27388	995632	40796	108424	0	0	8169	676192	0	0
2024-05-31 22:42:32			0	35259	0	0	0	22885	21480	143528	27223	995668	40806	108426	0	0	8168	677314	0	0
2024-05-31 22:43:32			0	35244	0	0	0	22888	21490	143524	27001	995712	40796	108427	0	0	8167	677954	0	0
2024-05-31 22:44:32			0	35266	0	0	0	22883	21490	143432	27211	995659	40796	108425	0	0	8168	676960	0	0
2024-05-31 22:45:32			0	35251	0	0	0	22896	21480	143480	27124	995624	40796	108430	0	0	8167	677675	0	0
2024-05-31 22:46:32			0	35291	0	0	0	22888	21490	143368	27279	995685	40796	108427	0	0	8170	675831	0	0
2024-05-31 22:47:32			0	35279	0	0	0	22890	21490	143464	27114	995694	40796	108428	0	0	8169	676372	0	0
2024-05-31 22:48:32			0	35248	0	0	0	22888	21480	143596	27244	995677	40786	108427	0	0	8167	677811	0	0
2024-05-31 22:49:32			0	35215	0	0	0	22862	21480	143812	27445	995677	40807	108417	0	0	8166	679305	0	0
2024-05-31 22:50:32			0	35184	0	0	0	22844	21480	143852	27642	995570	40807	108410	0	0	8165	680710	0	0
2024-05-31 22:51:32			0	35202	0	0	0	22896	21480	143764	27197	995650	40807	108430	0	0	8165	679894	0	0
2024-05-31 22:52:32			0	35198	0	0	0	22890	21470	143716	27260	995580	40784	108428	0	0	8164	680113	0	0
2024-05-31 22:53:32			0	35188	0	0	0	22909	21470	143864	27296	995598	40804	108435	0	0	8164	680566	0	0
2024-05-31 22:54:32			0	35152	0	0	0	22890	21460	144000	27334	995616	40804	108428	0	0	8162	682239	0	0
2024-05-31 22:55:32			0	35117	0	0	0	22901	21470	144072	27057	995633	40794	108432	0	0	8160	683793	0	0
2024-05-31 22:56:32			0	35101	0	0	0	22922	21480	144207	27395	995642	40817	108440	0	0	8159	684483	0	0
2024-05-31 22:57:32			0	35083	0	0	0	22909	21480	144195	27076	995748	40795	108435	0	0	8158	685304	0	0
2024-05-31 22:58:32			0	35067	0	0	0	22911	21490	144227	27448	995712	40796	108436	0	0	8157	685996	0	0
2024-05-31 22:59:32			0	35051	0	0	0	22922	21480	144243	27355	995703	40807	108440	0	0	8156	686764	0	0
2024-05-31 23:00:32			0	35078	0	0	0	22953	21490	144203	27457	995738	40807	108452	0	0	8157	685494	0	0
2024-05-31 23:01:32			0	35098	0	0	0	22966	21490	144211	27353	995800	40807	108457	0	0	8158	684582	0	0
2024-05-31 23:02:32			0	35105	0	0	0	22929	21500	144108	27112	995844	40820	108443	0	0	8159	684225	0	0
2024-05-31 23:03:32			0	35109	0	0	0	22945	21500	144087	27208	995897	40809	108449	0	0	8159	684043	0	0
2024-05-31 23:04:32			0	35095	0	0	0	22940	21510	144071	27265	995825	40809	108447	0	0	8158	684643	0	0
2024-05-31 23:05:32			0	35135	0	0	0	22922	21510	144188	27090	995825	40798	108440	0	0	8161	682822	0	0
2024-05-31 23:06:32			0	35095	0	0	0	22911	21510	144191	27483	995772	40809	108436	0	0	8159	684643	0	0
2024-05-31 23:07:32			0	35106	0	0	0	22924	21500	144119	27147	995844	40820	108441	0	0	8159	684180	0	0
2024-05-31 23:08:32			0	35116	0	0	0	22914	21500	144067	26953	995710	40809	108437	0	0	8160	683724	0	0
2024-05-31 23:09:32			0	35135	0	0	0	22916	21510	143992	27227	995834	40809	108438	0	0	8161	682822	0	0
2024-05-31 23:10:32			0	35117	0	0	0	22914	21500	143975	27228	995764	40798	108437	0	0	8160	683679	0	0
2024-05-31 23:11:32			0	35116	0	0	0	22914	21500	144064	27234	995755	40797	108437	0	0	8160	683724	0	0
2024-05-31 23:12:32			0	35104	0	0	0	22911	21510	144080	27398	995719	40798	108436	0	0	8159	684233	0	0
2024-05-31 23:13:32			0	35073	0	0	0	22916	21500	144099	27286	995764	40809	108438	0	0	8157	685684	0	0
2024-05-31 23:14:32			0	35039	0	0	0	22916	21490	144251	27348	995747	40807	108438	0	0	8155	687274	0	0
2024-05-31 23:15:32			0	35029	0	0	0	22903	21500	144375	27157	995790	40809	108433	0	0	8155	687693	0	0
2024-05-31 23:16:32			0	35013	0	0	0	22883	21500	144467	27209	995737	40820	108425	0	0	8155	688425	0	0
2024-05-31 23:17:32			0	35000	0	0	0	22903	21500	144411	27294	995702	40808	108433	0	0	8154	689020	0	0
2024-05-31 23:18:32			0	34988	0	0	0	22909	21500	144551	26908	995675	40797	108435	0	0	8153	689569	0	0
2024-05-31 23:19:32			0	35001	0	0	0	22906	21490	144451	27166	995712	40807	108434	0	0	8154	689012	0	0
2024-05-31 23:20:32			0	34977	0	0	0	22901	21500	144583	27351	995755	40797	108432	0	0	8152	690073	0	0
2024-05-31 23:21:32			0	34999	0	0	0	22911	21500	144559	27150	995702	40808	108436	0	0	8153	689066	0	0
2024-05-31 23:22:32			0	34970	0	0	0	22909	21490	144555	27362	995712	40807	108435	0	0	8152	690433	0	0
2024-05-31 23:23:32			0	34957	0	0	0	22922	21500	144735	27180	995755	40786	108440	0	0	8151	690991	0	0
2024-05-31 23:24:32			0	34952	0	0	0	22929	21490	144675	27523	995800	40807	108443	0	0	8150	691259	0	0
2024-05-31 23:25:32			0	34926	0	0	0	22888	21500	144835	27121	995764	40809	108427	0	0	8150	692414	0	0
2024-05-31 23:26:32			0	34909	0	0	0	22885	21500	144867	27405	995675	40797	108426	0	0	8149	693195	0	0
2024-05-31 23:27:32			0	34927	0	0	0	22903	21500	144827	27564	995675	40819	108433	0	0	8150	692368	0	0
2024-05-31 23:28:32			0	34931	0	0	0	22890	21500	144783	27293	995675	40808	108428	0	0	8150	692184	0	0
2024-05-31 23:29:32			0	34920	0	0	0	22885	21490	144831	27206	995667	40796	108426	0	0	8149	692728	0	0
2024-05-31 23:30:32			0	34916	0	0	0	22896	21490	144811	27357	995659	40807	108430	0	0	8149	692912	0	0
2024-05-31 23:31:32			0	34910	0	0	0	22890	21490	144883	27310	995720	40796	108428	0	0	8149	693188	0	0
2024-05-31 23:32:32			0	34903	0	0	0	22872	21480	144947	27204	995668	40795	108421	0	0	8149	693549	0	0
2024-05-31 23:33:32			0	34893	0	0	0	22851	21480	145039	27244	995615	40795	108413	0	0	8148	694009	0	0
2024-05-31 23:34:32			0	34879	0	0	0	22854	21470	145023	27348	995625	40793	108414	0	0	8148	694692	0	0
2024-05-31 23:35:32			0	34869	0	0	0	22859	21480	145031	27421	995589	40806	108416	0	0	8147	695114	0	0
2024-05-31 23:36:32			0	34873	0	0	0	22851	21470	145115	27215	995580	40805	108413	0	0	8147	694968	0	0
2024-05-31 23:37:32			0	34862	0	0	0	22851	21470	145035	27398	995572	40793	108413	0	0	8147	695476	0	0
2024-05-31 23:38:32			0	34882	0	0	0	22854	21470	145147	27417	995553	40817	108414	0	0	8148	694554	0	0
2024-05-31 23:39:32			0	34890	0	0	0	22841	21460	145035	27156	995590	40816	108409	0	0	8148	694224	0	0
2024-05-31 23:40:32			0	34880	0	0	0	22836	21460	144995	27196	995563	40793	108407	0	0	8148	694685	0	0
2024-05-31 23:41:32			0	34889	0	0	0	22823	21440	144923	27431	995503	40803	108402	0	0	8149	694347	0	0
2024-05-31 23:42:32			0	34891	0	0	0	22820	21460	144943	27126	995528	40804	108401	0	0	8149	694178	0	0
2024-05-31 23:43:32			0	34927	0	0	0	22812	21440	144963	27296	995476	40803	108398	0	0	8151	692599	0	0
2024-05-31 23:44:32			0	34885	0	0	0	22807	21430	145051	27393	995379	40780	108396	0	0	8149	694570	0	0
2024-05-31 23:45:32			0	34874	0	0	0	22807	21440	145139	27119	995414	40791	108396	0	0	8148	695038	0	0
2024-05-31 23:46:32			0	34854	0	0	0	22807	21430	145147	26970	995353	40802	108396	0	0	8147	695999	0	0
2024-05-31 23:47:32			0	34823	0	0	0	22810	21420	145363	27192	995389	40801	108397	0	0	8145	697469	0	0
2024-05-31 23:48:32			0	34801	0	0	0	22807	21420	145391	26871	995389	40791	108396	0	0	8144	698487	0	0
2024-05-31 23:49:32			0	34760	0	0	0	22825	21410	145615	27128	995425	40790	108403	0	0	8141	700424	0	0
2024-05-31 23:50:32			0	34688	0	0	0	22818	21420	145787	27166	995354	40801	108400	0	0	8137	703729	0	0
2024-05-31 23:51:32			0	34654	0	0	0	22815	21430	145967	26892	995397	40801	108399	0	0	8136	705273	0	0
2024-05-31 23:52:32			0	34611	0	0	0	22810	21420	146143	27088	995416	40801	108397	0	0	8133	707318	0	0
2024-05-31 23:53:32			0	34629	0	0	0	22828	21420	146251	27289	995381	40801	108404	0	0	8134	706478	0	0
2024-05-31 23:54:32			0	34605	0	0	0	22831	21420	146199	27104	995416	40812	108405	0	0	8133	707599	0	0
2024-05-31 23:55:32			0	34592	0	0	0	22828	21410	146267	27147	995452	40800	108404	0	0	8132	708246	0	0
2024-05-31 23:56:32			0	34558	0	0	0	22825	21430	146415	27060	995424	40791	108403	0	0	8130	709758	0	0
2024-05-31 23:57:32			0	34552	0	0	0	22823	21410	146371	26901	995372	40800	108402	0	0	8130	710118	0	0
2024-05-31 23:58:32			0	34537	0	0	0	22818	21420	146463	27379	995381	40801	108400	0	0	8129	710781	0	0
2024-05-31 23:59:32			0	34547	0	0	0	22805	21420	146427	27400	995434	40791	108395	0	0	8130	710312	0	0
2024-06-01 00:00:32			0	34562	0	0	0	22802	21410	146447	27267	995346	40800	108394	0	0	8131	709649	0	0
2024-06-01 00:01:32			0	34557	0	0	0	22789	21420	146407	26916	995336	40791	108389	0	0	8131	709844	0	0
2024-06-01 00:02:32			0	34606	0	0	0	22794	21400	146199	27107	995337	40810	108391	0	0	8133	707631	0	0
2024-06-01 00:03:32			0	34630	0	0	0	22786	21400	146071	27123	995249	40788	108388	0	0	8135	706510	0	0
2024-06-01 00:04:32			0	34672	0	0	0	22789	21390	145995	27152	995267	40788	108389	0	0	8137	704591	0	0
2024-06-01 00:05:32			0	34686	0	0	0	22786	21390	145803	27234	995285	40788	108388	0	0	8138	703939	0	0
2024-06-01 00:06:32			0	34707	0	0	0	22784	21390	145779	27088	995267	40777	108387	0	0	8139	702962	0	0
2024-06-01 00:07:32			0	34749	0	0	0	22794	21390	145667	27237	995294	40798	108391	0	0	8141	701012	0	0
2024-06-01 00:08:32			0	34761	0	0	0	22786	21390	145591	26798	995267	40798	108388	0	0	8142	700456	0	0
2024-06-01 00:09:32			0	34745	0	0	0	22779	21390	145639	27393	995285	40788	108385	0	0	8141	701198	0	0
2024-06-01 00:10:32			0	34733	0	0	0	22776	21390	145699	27052	995285	40788	108384	0	0	8140	701755	0	0
2024-06-01 00:11:32			0	34697	0	0	0	22766	21390	145875	27187	995259	40788	108380	0	0	8139	703428	0	0
2024-06-01 00:12:32			0	34621	0	0	0	22781	21380	146171	27216	995215	40775	108386	0	0	8134	707009	0	0
2024-06-01 00:13:32			0	34576	0	0	0	22768	21380	146375	27104	995224	40787	108381	0	0	8132	709112	0	0
2024-06-01 00:14:32			0	34543	0	0	0	22761	21380	146523	27086	995189	40796	108378	0	0	8130	710658	0	0
2024-06-01 00:15:32			0	34540	0	0	0	22750	21380	146627	27296	995117	40797	108374	0	0	8130	710798	0	0
2024-06-01 00:16:32			0	34503	0	0	0	22761	21370	146695	27270	995172	40786	108378	0	0	8128	712574	0	0
2024-06-01 00:17:32			0	34457	0	0	0	22755	21370	146855	27218	995180	40786	108376	0	0	8125	714738	0	0
2024-06-01 00:18:32			0	34418	0	0	0	22761	21350	147087	27197	995146	40773	108378	0	0	8123	716656	0	0
2024-06-01 00:19:32			0	34391	0	0	0	22768	21380	147171	27237	995189	40808	108381	0	0	8122	717811	0	0
2024-06-01 00:20:32			0	34344	0	0	0	22758	21360	147338	27232	995137	40796	108377	0	0	8119	720114	0	0
2024-06-01 00:21:32			0	34344	0	0	0	22771	21360	147474	27229	995155	40795	108382	0	0	8119	720114	0	0
2024-06-01 00:22:32			0	34304	0	0	0	22763	21370	147526	27341	995172	40786	108379	0	0	8117	721970	0	0
2024-06-01 00:23:32			0	34256	0	0	0	22766	21370	147742	27076	995145	40796	108380	0	0	8114	724251	0	0
2024-06-01 00:24:32			0	34204	0	0	0	22750	21360	147902	27312	995190	40785	108374	0	0	8111	726768	0	0
2024-06-01 00:25:32			0	34181	0	0	0	22758	21360	148110	27237	995155	40773	108377	0	0	8110	727866	0	0
2024-06-01 00:26:32			0	34201	0	0	0	22755	21360	148046	27189	995128	40784	108376	0	0	8111	726911	0	0
2024-06-01 00:27:32			0	34211	0	0	0	22761	21370	147926	27234	995154	40796	108378	0	0	8111	726394	0	0
2024-06-01 00:28:32			0	34194	0	0	0	22755	21360	148038	26883	995110	40796	108376	0	0	8111	727245	0	0
2024-06-01 00:29:32			0	34196	0	0	0	22745	21360	147934	27156	995155	40806	108372	0	0	8111	727150	0	0
2024-06-01 00:30:32			0	34202	0	0	0	22750	21360	147978	26785	995102	40795	108374	0	0	8111	726863	0	0
2024-06-01 00:31:32			0	34219	0	0	0	22748	21360	147986	27071	995155	40795	108373	0	0	8112	726053	0	0
2024-06-01 00:32:32			0	34223	0	0	0	22742	21350	147922	27055	995120	40784	108371	0	0	8112	725903	0	0
2024-06-01 00:33:32			0	34249	0	0	0	22753	21350	147850	26955	995165	40795	108375	0	0	8114	724664	0	0
2024-06-01 00:34:32			0	34234	0	0	0	22753	21350	147882	26712	995120	40795	108375	0	0	8113	725378	0	0
2024-06-01 00:35:32			0	34203	0	0	0	22758	21340	147946	27376	995156	40794	108377	0	0	8111	726896	0	0
2024-06-01 00:36:32			0	34162	0	0	0	22748	21350	148078	27251	995067	40795	108373	0	0	8109	728814	0	0
2024-06-01 00:37:32			0	34145	0	0	0	22758	21360	148226	27124	995128	40795	108377	0	0	8108	729587	0	0
2024-06-01 00:38:32			0	34100	0	0	0	22753	21350	148282	27027	995146	40795	108375	0	0	8105	731783	0	0
2024-06-01 00:39:32			0	34110	0	0	0	22750	21340	148518	26743	995095	40793	108374	0	0	8106	731344	0	0
2024-06-01 00:40:32			0	34090	0	0	0	22753	21340	148526	26755	995103	40783	108375	0	0	8105	732303	0	0
2024-06-01 00:41:32			0	34096	0	0	0	22740	21350	148554	26942	995093	40773	108370	0	0	8105	731975	0	0
2024-06-01 00:42:32			0	34065	0	0	0	22763	21340	148578	27137	995103	40783	108379	0	0	8103	733504	0	0
2024-06-01 00:43:32			0	34078	0	0	0	22745	21350	148610	27017	995173	40806	108372	0	0	8104	732839	0	0
2024-06-01 00:44:32			0	34077	0	0	0	22727	21340	148510	27438	995095	40793	108365	0	0	8104	732927	0	0
2024-06-01 00:45:32			0	34106	0	0	0	22758	21340	148442	27225	995103	40794	108377	0	0	8105	731536	0	0
2024-06-01 00:46:32			0	34096	0	0	0	22768	21350	148538	26968	995165	40795	108381	0	0	8105	731975	0	0
2024-06-01 00:47:32			0	34065	0	0	0	22761	21350	148634	27114	995111	40795	108378	0	0	8103	733463	0	0
2024-06-01 00:48:32			0	34032	0	0	0	22779	21340	148770	27450	995156	40783	108385	0	0	8101	735091	0	0
2024-06-01 00:49:32			0	34016	0	0	0	22776	21350	148906	27057	995173	40784	108384	0	0	8100	735820	0	0
2024-06-01 00:50:32			0	34001	0	0	0	22789	21350	148902	27412	995173	40795	108389	0	0	8099	736543	0	0
2024-06-01 00:51:32			0	34021	0	0	0	22786	21360	148806	27435	995235	40795	108388	0	0	8100	735539	0	0
2024-06-01 00:52:32			0	34032	0	0	0	22786	21350	148750	27156	995226	40795	108388	0	0	8101	735050	0	0
2024-06-01 00:53:32			0	34068	0	0	0	22792	21360	148690	27396	995217	40796	108390	0	0	8103	733278	0	0
2024-06-01 00:54:32			0	34093	0	0	0	22789	21360	148630	27367	995235	40795	108389	0	0	8104	732078	0	0
2024-06-01 00:55:32			0	34110	0	0	0	22810	21370	148558	27410	995313	40796	108397	0	0	8105	731222	0	0
2024-06-01 00:56:32			0	34139	0	0	0	22812	21380	148358	27372	995268	40808	108398	0	0	8107	729793	0	0
2024-06-01 00:57:32			0	34175	0	0	0	22820	21370	148234	27434	995313	40796	108401	0	0	8108	728112	0	0
2024-06-01 00:58:32			0	34199	0	0	0	22818	21370	148018	27137	995305	40796	108400	0	0	8110	726966	0	0
2024-06-01 00:59:32			0	34225	0	0	0	22815	21380	147870	27112	995348	40796	108399	0	0	8111	725686	0	0
2024-06-01 01:00:32			0	34235	0	0	0	22797	21380	147810	27163	995322	40796	108392	0	0	8112	725210	0	0
2024-06-01 01:01:32			0	34282	0	0	0	22799	21380	147702	27575	995303	40797	108393	0	0	8115	722974	0	0
2024-06-01 01:02:32			0	34295	0	0	0	22805	21380	147646	27270	995295	40808	108395	0	0	8115	722357	0	0
2024-06-01 01:03:32			0	34328	0	0	0	22810	21380	147502	27138	995357	40797	108397	0	0	8117	720792	0	0
2024-06-01 01:04:32			0	34324	0	0	0	22784	21390	147450	27308	995312	40798	108387	0	0	8118	720941	0	0
2024-06-01 01:05:32			0	34357	0	0	0	22794	21380	147455	27282	995224	40797	108391	0	0	8119	719418	0	0
2024-06-01 01:06:32			0	34387	0	0	0	22805	21380	147303	27263	995250	40809	108395	0	0	8121	718000	0	0
2024-06-01 01:07:32			0	34404	0	0	0	22799	21380	147163	27407	995322	40796	108393	0	0	8122	717197	0	0
2024-06-01 01:08:32			0	34402	0	0	0	22797	21370	147179	27440	995287	40796	108392	0	0	8122	717331	0	0
2024-06-01 01:09:32			0	34443	0	0	0	22792	21390	146999	27263	995285	40809	108390	0	0	8124	715318	0	0
2024-06-01 01:10:32			0	34472	0	0	0	22781	21380	146907	27519	995215	40796	108386	0	0	8126	713992	0	0
2024-06-01 01:11:32			0	34500	0	0	0	22792	21390	146847	27282	995259	40798	108390	0	0	8127	712636	0	0
2024-06-01 01:12:32			0	34510	0	0	0	22781	21380	146731	27098	995268	40786	108386	0	0	8128	712206	0	0
2024-06-01 01:13:32			0	34530	0	0	0	22763	21380	146711	26882	995215	40808	108379	0	0	8129	711267	0	0
2024-06-01 01:14:32			0	34541	0	0	0	22771	21380	146623	27261	995242	40808	108382	0	0	8130	710752	0	0
2024-06-01 01:15:32			0	34549	0	0	0	22771	21380	146659	27346	995189	40796	108382	0	0	8130	710377	0	0
2024-06-01 01:16:32			0	34561	0	0	0	22763	21370	146547	27422	995233	40775	108379	0	0	8131	709854	0	0
2024-06-01 01:17:32			0	34569	0	0	0	22768	21370	146563	26984	995198	40796	108381	0	0	8131	709479	0	0
2024-06-01 01:18:32			0	34592	0	0	0	22763	21370	146559	27218	995154	40786	108379	0	0	8133	708403	0	0
2024-06-01 01:19:32			0	34572	0	0	0	22761	21370	146531	27000	995172	40786	108378	0	0	8132	709339	0	0
2024-06-01 01:20:32			0	34563	0	0	0	22761	21360	146575	27182	995163	40796	108378	0	0	8131	709800	0	0
2024-06-01 01:21:32			0	34566	0	0	0	22758	21360	146615	27079	995110	40796	108377	0	0	8131	709659	0	0
2024-06-01 01:22:32			0	34554	0	0	0	22737	21360	146587	27369	995243	40796	108369	0	0	8131	710221	0	0
2024-06-01 01:23:32			0	34536	0	0	0	22748	21360	146603	27275	995190	40785	108373	0	0	8130	711065	0	0
2024-06-01 01:24:32			0	34537	0	0	0	22732	21350	146523	27341	995138	40795	108367	0	0	8130	711058	0	0
2024-06-01 01:25:32			0	34537	0	0	0	22714	21350	146555	27020	995093	40795	108360	0	0	8130	711058	0	0
2024-06-01 01:26:32			0	34512	0	0	0	22727	21350	146699	27112	995146	40795	108365	0	0	8129	712231	0	0
2024-06-01 01:27:32			0	34528	0	0	0	22722	21350	146587	27102	995058	40784	108363	0	0	8130	711480	0	0
2024-06-01 01:28:32			0	34530	0	0	0	22709	21350	146543	27138	995085	40795	108358	0	0	8130	711386	0	0
2024-06-01 01:29:32			0	34525	0	0	0	22706	21330	146631	27105	995033	40783	108357	0	0	8130	711700	0	0
2024-06-01 01:30:32			0	34526	0	0	0	22719	21340	146543	26913	994988	40771	108362	0	0	8130	711613	0	0
2024-06-01 01:31:32			0	34532	0	0	0	22716	21340	146555	27085	994988	40793	108361	0	0	8130	711331	0	0
2024-06-01 01:32:32			0	34558	0	0	0	22703	21320	146511	26981	995016	40782	108356	0	0	8132	710192	0	0
2024-06-01 01:33:32			0	34575	0	0	0	22709	21330	146631	27272	994944	40792	108358	0	0	8133	709356	0	0
2024-06-01 01:34:32			0	34612	0	0	0	22709	21330	146327	27419	994998	40782	108358	0	0	8135	707625	0	0
2024-06-01 01:35:32			0	34630	0	0	0	22719	21320	146239	27100	994981	40791	108362	0	0	8135	706824	0	0
2024-06-01 01:36:32			0	34647	0	0	0	22709	21320	146231	27284	994954	40781	108358	0	0	8137	706031	0	0
2024-06-01 01:37:32			0	34657	0	0	0	22696	21320	145987	27086	994954	40791	108353	0	0	8137	705564	0	0
2024-06-01 01:38:32			0	34671	0	0	0	22696	21320	146067	27454	994936	40782	108353	0	0	8138	704912	0	0
2024-06-01 01:39:32			0	34666	0	0	0	22709	21310	146079	27397	994884	40780	108358	0	0	8138	705184	0	0
2024-06-01 01:40:32			0	34677	0	0	0	22703	21310	146059	27135	994999	40780	108356	0	0	8138	704671	0	0
2024-06-01 01:41:32			0	34712	0	0	0	22701	21310	145971	27041	994937	40791	108355	0	0	8140	703042	0	0
2024-06-01 01:42:32			0	34708	0	0	0	22685	21300	145943	26828	994947	40801	108349	0	0	8140	703268	0	0
2024-06-01 01:43:32			0	34693	0	0	0	22703	21300	145959	27142	994929	40791	108356	0	0	8139	703965	0	0
2024-06-01 01:44:32			0	34695	0	0	0	22677	21300	146059	26961	994894	40790	108346	0	0	8140	703872	0	0
2024-06-01 01:45:32			0	34671	0	0	0	22688	21300	146039	27161	994876	40780	108350	0	0	8138	704990	0	0
2024-06-01 01:46:32			0	34649	0	0	0	22680	21300	146127	27039	994894	40790	108347	0	0	8137	706016	0	0
2024-06-01 01:47:32			0	34645	0	0	0	22680	21300	146223	27251	994841	40790	108347	0	0	8137	706202	0	0
2024-06-01 01:48:32			0	34662	0	0	0	22683	21290	146159	27241	994859	40778	108348	0	0	8138	705449	0	0
2024-06-01 01:49:32			0	34634	0	0	0	22698	21300	146163	27187	994841	40768	108354	0	0	8136	706716	0	0
2024-06-01 01:50:32			0	34647	0	0	0	22688	21290	146171	27066	994824	40767	108350	0	0	8137	706148	0	0
2024-06-01 01:51:32			0	34647	0	0	0	22690	21290	146107	27338	994779	40789	108351	0	0	8137	706148	0	0
2024-06-01 01:52:32			0	34678	0	0	0	22693	21290	146151	27038	994850	40778	108352	0	0	8138	704703	0	0
2024-06-01 01:53:32			0	34675	0	0	0	22698	21300	146083	27512	994894	40779	108354	0	0	8138	704804	0	0
2024-06-01 01:54:32			0	34670	0	0	0	22698	21280	146003	27157	994895	40789	108354	0	0	8138	705115	0	0
2024-06-01 01:55:32			0	34687	0	0	0	22683	21280	146115	26994	994807	40799	108348	0	0	8139	704323	0	0
2024-06-01 01:56:32			0	34685	0	0	0	22690	21280	146155	27272	994842	40789	108351	0	0	8139	704416	0	0
2024-06-01 01:57:32			0	34666	0	0	0	22706	21290	146183	27100	994850	40789	108357	0	0	8137	705262	0	0
2024-06-01 01:58:32			0	34672	0	0	0	22693	21280	146179	27443	994842	40778	108352	0	0	8138	705022	0	0
2024-06-01 01:59:32			0	34694	0	0	0	22703	21290	145987	27279	994912	40789	108356	0	0	8139	703958	0	0
2024-06-01 02:00:32			0	34688	0	0	0	22685	21280	146127	27270	994815	40789	108349	0	0	8139	704276	0	0
2024-06-01 02:01:32			0	34687	0	0	0	22690	21280	146119	27248	994842	40789	108351	0	0	8139	704323	0	0
2024-06-01 02:02:32			0	34686	0	0	0	22698	21280	146075	26961	994815	40789	108354	0	0	8139	704369	0	0
2024-06-01 02:03:32			0	34684	0	0	0	22698	21290	146135	27358	994850	40800	108354	0	0	8139	704424	0	0
2024-06-01 02:04:32			0	34680	0	0	0	22688	21290	146203	27280	994912	40789	108350	0	0	8139	704610	0	0
2024-06-01 02:05:32			0	34686	0	0	0	22690	21280	146111	27213	994815	40789	108351	0	0	8139	704369	0	0
2024-06-01 02:06:32			0	34685	0	0	0	22709	21290	146115	27324	994824	40778	108358	0	0	8138	704377	0	0
2024-06-01 02:07:32			0	34682	0	0	0	22709	21290	146023	27124	994904	40778	108358	0	0	8138	704517	0	0
2024-06-01 02:08:32			0	34708	0	0	0	22711	21290	146019	27232	994912	40800	108359	0	0	8140	703307	0	0
2024-06-01 02:09:32			0	34705	0	0	0	22709	21290	145971	27083	994877	40789	108358	0	0	8140	703446	0	0
2024-06-01 02:10:32			0	34728	0	0	0	22706	21300	146003	27390	994920	40779	108357	0	0	8141	702338	0	0
2024-06-01 02:11:32			0	34734	0	0	0	22709	21290	145903	27203	994877	40778	108358	0	0	8141	702098	0	0
2024-06-01 02:12:32			0	34730	0	0	0	22670	21290	145879	27407	994832	40778	108343	0	0	8142	702284	0	0
2024-06-01 02:13:32			0	34713	0	0	0	22690	21300	145991	27322	994867	40801	108351	0	0	8140	703035	0	0
2024-06-01 02:14:32			0	34694	0	0	0	22690	21280	146027	27315	994842	40789	108351	0	0	8139	703997	0	0
2024-06-01 02:15:32			0	34704	0	0	0	22698	21290	145967	27284	994877	40800	108354	0	0	8140	703493	0	0
2024-06-01 02:16:32			0	34732	0	0	0	22696	21280	145939	27298	994842	40789	108353	0	0	8141	702230	0	0
2024-06-01 02:17:32			0	34712	0	0	0	22698	21280	146015	27388	994869	40789	108354	0	0	8140	703160	0	0
2024-06-01 02:18:32			0	34706	0	0	0	22696	21280	145987	27358	994869	40800	108353	0	0	8140	703439	0	0
2024-06-01 02:19:32			0	34721	0	0	0	22703	21290	145879	27225	994877	40778	108356	0	0	8141	702702	0	0
2024-06-01 02:20:32			0	34726	0	0	0	22696	21300	145995	27248	994867	40790	108353	0	0	8141	702431	0	0
2024-06-01 02:21:32			0	34737	0	0	0	22709	21290	145867	27275	994859	40789	108358	0	0	8141	701959	0	0
2024-06-01 02:22:32			0	34759	0	0	0	22719	21290	145843	27440	994859	40800	108362	0	0	8142	700938	0	0
2024-06-01 02:23:32			0	34781	0	0	0	22714	21300	145747	27455	994947	40801	108360	0	0	8144	699879	0	0
2024-06-01 02:24:32			0	34769	0	0	0	22719	21300	145743	27300	994894	40801	108362	0	0	8143	700435	0	0
2024-06-01 02:25:32			0	34779	0	0	0	22698	21290	145711	27410	994912	40789	108354	0	0	8144	700010	0	0
2024-06-01 02:26:32			0	34782	0	0	0	22701	21300	145799	27360	994947	40779	108355	0	0	8144	699832	0	0
2024-06-01 02:27:32			0	34783	0	0	0	22714	21300	145799	27286	994876	40791	108360	0	0	8144	699786	0	0
2024-06-01 02:28:32			0	34796	0	0	0	22696	21300	145683	27280	994955	40791	108353	0	0	8145	699184	0	0
2024-06-01 02:29:32			0	34771	0	0	0	22696	21290	145691	27358	994859	40767	108353	0	0	8143	700381	0	0
2024-06-01 02:30:32			0	34801	0	0	0	22706	21290	145703	27260	994877	40789	108357	0	0	8145	698991	0	0
2024-06-01 02:31:32			0	34797	0	0	0	22719	21290	145663	26961	994912	40789	108362	0	0	8145	699176	0	0
2024-06-01 02:32:32			0	34821	0	0	0	22719	21300	145591	26833	994955	40801	108362	0	0	8146	698027	0	0
2024-06-01 02:33:32			0	34832	0	0	0	22711	21290	145419	27251	994885	40811	108359	0	0	8147	697557	0	0
2024-06-01 02:34:32			0	34845	0	0	0	22706	21290	145483	27322	994939	40789	108357	0	0	8147	696956	0	0
2024-06-01 02:35:32			0	34879	0	0	0	22716	21310	145347	26967	995017	40801	108361	0	0	8149	695310	0	0
2024-06-01 02:36:32			0	34889	0	0	0	22701	21300	145279	27569	994982	40791	108355	0	0	8150	694888	0	0
2024-06-01 02:37:32			0	34905	0	0	0	22696	21300	145251	27462	994982	40791	108353	0	0	8151	694151	0	0
2024-06-01 02:38:32			0	34898	0	0	0	22714	21300	145215	27383	994974	40801	108360	0	0	8150	694473	0	0
2024-06-01 02:39:32			0	34901	0	0	0	22722	21290	145251	27440	994965	40789	108363	0	0	8150	694373	0	0
2024-06-01 02:40:32			0	34919	0	0	0	22709	21300	145163	27300	994894	40779	108358	0	0	8151	693506	0	0
2024-06-01 02:41:32			0	34915	0	0	0	22703	21300	145127	27253	994920	40790	108356	0	0	8151	693690	0	0
2024-06-01 02:42:32			0	34906	0	0	0	22688	21290	145155	27398	994939	40789	108350	0	0	8151	694143	0	0
2024-06-01 02:43:32			0	34909	0	0	0	22683	21290	145231	27230	994912	40778	108348	0	0	8151	694005	0	0
2024-06-01 02:44:32			0	34923	0	0	0	22670	21290	145203	26963	994885	40778	108343	0	0	8152	693360	0	0
2024-06-01 02:45:32			0	34914	0	0	0	22683	21270	145187	26757	994825	40788	108348	0	0	8152	693852	0	0
2024-06-01 02:46:32			0	34899	0	0	0	22688	21290	145239	27364	994877	40778	108350	0	0	8151	694465	0	0
2024-06-01 02:47:32			0	34906	0	0	0	22706	21290	145139	27072	994859	40800	108357	0	0	8151	694143	0	0
2024-06-01 02:48:32			0	34923	0	0	0	22706	21290	145187	27197	994930	40789	108357	0	0	8152	693360	0	0
2024-06-01 02:49:32			0	34935	0	0	0	22711	21300	145115	27242	994894	40801	108359	0	0	8152	692770	0	0
2024-06-01 02:50:32			0	34958	0	0	0	22709	21290	145067	27383	994965	40789	108358	0	0	8154	691751	0	0
2024-06-01 02:51:32			0	34950	0	0	0	22709	21300	145059	27157	994947	40790	108358	0	0	8153	692080	0	0
2024-06-01 02:52:32			0	34943	0	0	0	22701	21300	145135	27241	994920	40790	108355	0	0	8153	692402	0	0
2024-06-01 02:53:32			0	34953	0	0	0	22690	21300	145035	27235	994929	40791	108351	0	0	8154	691943	0	0
2024-06-01 02:54:32			0	34922	0	0	0	22690	21300	145103	27237	994920	40790	108351	0	0	8152	693368	0	0
2024-06-01 02:55:32			0	34928	0	0	0	22701	21280	145151	27587	994922	40778	108355	0	0	8152	693169	0	0
2024-06-01 02:56:32			0	34924	0	0	0	22696	21290	145203	27031	994885	40789	108353	0	0	8152	693314	0	0
2024-06-01 02:57:32			0	34919	0	0	0	22696	21290	145247	27351	994850	40789	108353	0	0	8152	693545	0	0
2024-06-01 02:58:32			0	34924	0	0	0	22693	21290	145171	27265	994912	40789	108352	0	0	8152	693314	0	0
2024-06-01 02:59:32			0	34912	0	0	0	22698	21290	145231	27216	994877	40789	108354	0	0	8151	693867	0	0
2024-06-01 03:00:32			0	34928	0	0	0	22709	21290	145115	27338	994957	40778	108358	0	0	8152	693130	0	0
2024-06-01 03:01:32			0	34923	0	0	0	22698	21290	145139	27376	994904	40789	108354	0	0	8152	693360	0	0
2024-06-01 03:02:32			0	34918	0	0	0	22662	21290	145131	27104	994939	40800	108340	0	0	8152	693591	0	0
2024-06-01 03:03:32			0	34908	0	0	0	22688	21280	145211	27140	994922	40789	108350	0	0	8151	694089	0	0
2024-06-01 03:04:32			0	34900	0	0	0	22677	21280	145267	27067	994869	40778	108346	0	0	8151	694458	0	0
2024-06-01 03:05:32			0	34876	0	0	0	22662	21280	145387	27131	994869	40789	108340	0	0	8150	695564	0	0
2024-06-01 03:06:32			0	34889	0	0	0	22693	21280	145459	27166	994815	40789	108352	0	0	8150	694965	0	0
2024-06-01 03:07:32			0	34856	0	0	0	22690	21280	145487	27045	994842	40789	108351	0	0	8148	696487	0	0
2024-06-01 03:08:32			0	34846	0	0	0	22685	21290	145463	27239	994877	40789	108349	0	0	8148	696910	0	0
2024-06-01 03:09:32			0	34851	0	0	0	22683	21280	145459	27055	994815	40789	108348	0	0	8148	696718	0	0
2024-06-01 03:10:32			0	34843	0	0	0	22693	21280	145455	27119	994815	40778	108352	0	0	8147	697088	0	0
2024-06-01 03:11:32			0	34882	0	0	0	22688	21280	145475	27268	994895	40800	108350	0	0	8150	695288	0	0
2024-06-01 03:12:32			0	34861	0	0	0	22696	21280	145483	27223	994860	40799	108353	0	0	8148	696256	0	0
2024-06-01 03:13:32			0	34867	0	0	0	22680	21280	145519	27196	994842	40789	108347	0	0	8149	695979	0	0
2024-06-01 03:14:32			0	34866	0	0	0	22680	21270	145419	27078	994772	40788	108347	0	0	8149	696064	0	0
2024-06-01 03:15:32			0	34875	0	0	0	22675	21280	145367	27234	994869	40789	108345	0	0	8150	695610	0	0
2024-06-01 03:16:32			0	34878	0	0	0	22675	21270	145431	27199	994905	40776	108345	0	0	8150	695511	0	0
2024-06-01 03:17:32			0	34871	0	0	0	22662	21280	145443	27393	994834	40777	108340	0	0	8150	695795	0	0
2024-06-01 03:18:32			0	34846	0	0	0	22670	21270	145531	27206	994817	40776	108343	0	0	8148	696988	0	0
2024-06-01 03:19:32			0	34862	0	0	0	22667	21270	145471	27159	994799	40788	108342	0	0	8149	696249	0	0
2024-06-01 03:20:32			0	34831	0	0	0	22662	21270	145667	27313	994825	40798	108340	0	0	8147	697681	0	0
2024-06-01 03:21:32			0	34819	0	0	0	22667	21270	145663	27239	994825	40798	108342	0	0	8147	698236	0	0
2024-06-01 03:22:32			0	34833	0	0	0	22667	21260	145663	27098	994782	40797	108342	0	0	8147	697627	0	0
2024-06-01 03:23:32			0	34838	0	0	0	22670	21270	145571	27414	994790	40776	108343	0	0	8148	697357	0	0
2024-06-01 03:24:32			0	34817	0	0	0	22649	21260	145719	27241	994782	40797	108335	0	0	8147	698367	0	0
2024-06-01 03:25:32			0	34807	0	0	0	22654	21260	145707	27208	994782	40797	108337	0	0	8146	698830	0	0
2024-06-01 03:26:32			0	34819	0	0	0	22662	21260	145687	27001	994800	40787	108340	0	0	8147	698275	0	0
2024-06-01 03:27:32			0	34827	0	0	0	22662	21260	145627	27085	994800	40775	108340	0	0	8147	697905	0	0
2024-06-01 03:28:32			0	34798	0	0	0	22646	21260	145691	27376	994720	40787	108334	0	0	8146	699247	0	0
2024-06-01 03:29:32			0	34810	0	0	0	22651	21260	145643	27415	994755	40775	108336	0	0	8146	698691	0	0
2024-06-01 03:30:32			0	34829	0	0	0	22654	21260	145639	27395	994755	40787	108337	0	0	8147	697812	0	0
2024-06-01 03:31:32			0	34830	0	0	0	22654	21260	145483	27353	994702	40787	108337	0	0	8147	697766	0	0
2024-06-01 03:32:32			0	34847	0	0	0	22651	21250	145615	27393	994712	40786	108336	0	0	8148	697019	0	0
2024-06-01 03:33:32			0	34848	0	0	0	22641	21260	145547	27367	994747	40775	108332	0	0	8149	696934	0	0
2024-06-01 03:34:32			0	34836	0	0	0	22649	21250	145591	27069	994676	40786	108335	0	0	8148	697527	0	0
2024-06-01 03:35:32			0	34856	0	0	0	22641	21250	145543	27095	994703	40775	108332	0	0	8149	696603	0	0
2024-06-01 03:36:32			0	34850	0	0	0	22638	21250	145487	27488	994738	40775	108331	0	0	8149	696880	0	0
2024-06-01 03:37:32			0	34883	0	0	0	22641	21250	145455	26824	994685	40796	108332	0	0	8150	695357	0	0
2024-06-01 03:38:32			0	34865	0	0	0	22636	21250	145491	27071	994676	40775	108330	0	0	8150	696188	0	0
2024-06-01 03:39:32			0	34902	0	0	0	22628	21240	145395	26998	994686	40762	108327	0	0	8152	694520	0	0
2024-06-01 03:40:32			0	34892	0	0	0	22631	21250	145399	27133	994738	40786	108328	0	0	8151	694942	0	0
2024-06-01 03:41:32			0	34883	0	0	0	22646	21240	145443	27298	994694	40774	108334	0	0	8150	695396	0	0
2024-06-01 03:42:32			0	34920	0	0	0	22633	21250	145323	27027	994676	40786	108329	0	0	8153	693653	0	0
2024-06-01 03:43:32			0	34916	0	0	0	22623	21240	145275	26965	994668	40785	108325	0	0	8152	693875	0	0
2024-06-01 03:44:32			0	34931	0	0	0	22631	21230	145259	26899	994678	40784	108328	0	0	8153	693223	0	0
2024-06-01 03:45:32			0	34934	0	0	0	22631	21230	145231	27140	994598	40773	108328	0	0	8153	693085	0	0
2024-06-01 03:46:32			0	34949	0	0	0	22620	21230	145215	27043	994563	40784	108324	0	0	8154	692395	0	0
2024-06-01 03:47:32			0	34961	0	0	0	22625	21230	145219	27355	994589	40794	108326	0	0	8155	691844	0	0
2024-06-01 03:48:32			0	34960	0	0	0	22625	21230	145215	27152	994589	40794	108326	0	0	8155	691890	0	0
2024-06-01 03:49:32			0	34955	0	0	0	22620	21230	145255	27255	994598	40794	108324	0	0	8155	692120	0	0
2024-06-01 03:50:32			0	34971	0	0	0	22623	21240	145183	27076	994606	40774	108325	0	0	8156	691346	0	0
2024-06-01 03:51:32			0	34996	0	0	0	22610	21230	145127	26932	994598	40784	108320	0	0	8157	690238	0	0
2024-06-01 03:52:32			0	34973	0	0	0	22597	21230	145127	27015	994643	40773	108315	0	0	8156	691293	0	0
2024-06-01 03:53:32			0	34940	0	0	0	22607	21210	145255	26941	994529	40792	108319	0	0	8154	692886	0	0
2024-06-01 03:54:32			0	34945	0	0	0	22610	21220	145227	26974	994573	40771	108320	0	0	8154	692618	0	0
2024-06-01 03:55:32			0	34950	0	0	0	22615	21210	145227	27043	994538	40771	108322	0	0	8154	692426	0	0
2024-06-01 03:56:32			0	34953	0	0	0	22597	21210	145199	27521	994484	40782	108315	0	0	8155	692289	0	0
2024-06-01 03:57:32			0	34977	0	0	0	22602	21210	145155	27180	994502	40781	108317	0	0	8156	691186	0	0
2024-06-01 03:58:32			0	34941	0	0	0	22623	21210	145191	27284	994538	40771	108325	0	0	8154	692840	0	0
2024-06-01 03:59:32			0	34974	0	0	0	22599	21220	145115	27402	994599	40771	108316	0	0	8156	691285	0	0
2024-06-01 04:00:32			0	34980	0	0	0	22607	21210	145203	26989	994555	40781	108319	0	0	8156	691048	0	0
2024-06-01 04:01:32			0	34998	0	0	0	22618	21200	145179	27378	994547	40781	108323	0	0	8157	690261	0	0
2024-06-01 04:02:32			0	35002	0	0	0	22597	21220	145147	27116	994546	40771	108315	0	0	8158	690001	0	0
2024-06-01 04:03:32			0	35004	0	0	0	22592	21200	144979	27059	994574	40781	108313	0	0	8158	689986	0	0
2024-06-01 04:04:32			0	35010	0	0	0	22602	21210	145075	27079	994511	40782	108317	0	0	8158	689672	0	0
2024-06-01 04:05:32			0	34981	0	0	0	22592	21200	145163	27263	994485	40791	108313	0	0	8156	691041	0	0
2024-06-01 04:06:32			0	34982	0	0	0	22592	21200	145275	27414	994467	40781	108313	0	0	8156	690995	0	0
2024-06-01 04:07:32			0	34995	0	0	0	22592	21190	145175	27440	994477	40769	108313	0	0	8157	690437	0	0
2024-06-01 04:08:32			0	34990	0	0	0	22589	21200	145251	27277	994485	40769	108312	0	0	8157	690628	0	0
2024-06-01 04:09:32			0	34993	0	0	0	22594	21190	145183	27140	994424	40769	108314	0	0	8157	690528	0	0
2024-06-01 04:10:32			0	34994	0	0	0	22597	21190	145167	27376	994469	40780	108315	0	0	8157	690483	0	0
2024-06-01 04:11:32			0	35007	0	0	0	22584	21190	145099	27322	994469	40780	108310	0	0	8158	689886	0	0
2024-06-01 04:12:32			0	35000	0	0	0	22586	21200	145155	27327	994512	40769	108311	0	0	8158	690169	0	0
2024-06-01 04:13:32			0	34971	0	0	0	22566	21180	145219	27137	994407	40768	108303	0	0	8156	691577	0	0
2024-06-01 04:14:32			0	34971	0	0	0	22563	21190	145247	27263	994389	40780	108302	0	0	8156	691538	0	0
2024-06-01 04:15:32			0	34952	0	0	0	22571	21190	145163	27114	994362	40768	108305	0	0	8155	692411	0	0
2024-06-01 04:16:32			0	34944	0	0	0	22571	21190	145283	27157	994389	40780	108305	0	0	8155	692779	0	0
2024-06-01 04:17:32			0	34961	0	0	0	22579	21170	145279	27241	994363	40767	108308	0	0	8155	692075	0	0
2024-06-01 04:18:32			0	34962	0	0	0	22586	21190	145335	26920	994442	40780	108311	0	0	8155	691952	0	0
2024-06-01 04:19:32			0	34992	0	0	0	22594	21190	145267	26946	994362	40780	108314	0	0	8157	690574	0	0
2024-06-01 04:20:32			0	34997	0	0	0	22592	21190	145099	27050	994469	40780	108313	0	0	8157	690345	0	0
2024-06-01 04:21:32			0	35008	0	0	0	22579	21180	145111	27166	994460	40780	108308	0	0	8158	689879	0	0
2024-06-01 04:22:32			0	35020	0	0	0	22586	21180	145079	27263	994513	40791	108311	0	0	8159	689329	0	0
2024-06-01 04:23:32			0	35017	0	0	0	22579	21180	144967	27199	994433	40780	108308	0	0	8159	689466	0	0
2024-06-01 04:24:32			0	35020	0	0	0	22589	21180	145099	26771	994372	40779	108312	0	0	8159	689329	0	0
2024-06-01 04:25:32			0	35064	0	0	0	22602	21190	144903	27008	994442	40780	108317	0	0	8161	687277	0	0
2024-06-01 04:26:32			0	35048	0	0	0	22605	21190	144971	27057	994450	40791	108318	0	0	8160	688009	0	0
2024-06-01 04:27:32			0	35069	0	0	0	22594	21180	144871	27326	994513	40780	108314	0	0	8161	687086	0	0
2024-06-01 04:28:32			0	35069	0	0	0	22607	21190	144811	27248	994504	40791	108319	0	0	8161	687048	0	0
2024-06-01 04:29:32			0	35076	0	0	0	22597	21190	144799	27048	994504	40791	108315	0	0	8162	686728	0	0
2024-06-01 04:30:32			0	35088	0	0	0	22597	21190	144815	27029	994504	40769	108315	0	0	8162	686180	0	0
2024-06-01 04:31:32			0	35064	0	0	0	22602	21190	144791	27222	994477	40791	108317	0	0	8161	687277	0	0
2024-06-01 04:32:32			0	35069	0	0	0	22597	21190	144811	27079	994530	40780	108315	0	0	8161	687048	0	0
2024-06-01 04:33:32			0	35089	0	0	0	22605	21200	144791	27163	994485	40791	108318	0	0	8162	686097	0	0
2024-06-01 04:34:32			0	35101	0	0	0	22625	21200	144703	26913	994512	40780	108326	0	0	8162	685549	0	0
2024-06-01 04:35:32			0	35114	0	0	0	22618	21190	144608	27471	994477	40780	108323	0	0	8163	684994	0	0
2024-06-01 04:36:32			0	35130	0	0	0	22594	21190	144756	27220	994469	40791	108314	0	0	8165	684265	0	0
2024-06-01 04:37:32			0	35088	0	0	0	22610	21200	144735	27041	994485	40780	108320	0	0	8162	686142	0	0
2024-06-01 04:38:32			0	35117	0	0	0	22620	21200	144756	27152	994592	40791	108324	0	0	8163	684819	0	0
2024-06-01 04:39:32			0	35115	0	0	0	22594	21190	144695	27164	994557	40780	108314	0	0	8164	684948	0	0
2024-06-01 04:40:32			0	35113	0	0	0	22574	21200	144728	27383	994485	40780	108306	0	0	8164	685002	0	0
2024-06-01 04:41:32			0	35092	0	0	0	22574	21190	144703	27163	994450	40780	108306	0	0	8163	685998	0	0
2024-06-01 04:42:32			0	35077	0	0	0	22571	21200	144791	27036	994459	40780	108305	0	0	8162	686645	0	0
2024-06-01 04:43:32			0	35082	0	0	0	22592	21190	144759	27166	994450	40769	108313	0	0	8162	686454	0	0
2024-06-01 04:44:32			0	35055	0	0	0	22576	21180	144935	27180	994460	40780	108307	0	0	8161	687727	0	0
2024-06-01 04:45:32			0	35064	0	0	0	22555	21190	144859	27156	994469	40768	108299	0	0	8162	687277	0	0
2024-06-01 04:46:32			0	35057	0	0	0	22584	21190	144915	27128	994424	40780	108310	0	0	8161	687597	0	0
2024-06-01 04:47:32			0	35039	0	0	0	22607	21180	144907	27254	994407	40768	108319	0	0	8159	688459	0	0
2024-06-01 04:48:32			0	35059	0	0	0	22584	21180	144907	26958	994513	40791	108310	0	0	8161	687544	0	0
2024-06-01 04:49:32			0	35052	0	0	0	22589	21190	144867	26981	994504	40780	108312	0	0	8160	687826	0	0
2024-06-01 04:50:32			0	35050	0	0	0	22597	21180	144879	27284	994487	40791	108315	0	0	8160	687955	0	0
2024-06-01 04:51:32			0	35066	0	0	0	22594	21180	144859	27003	994460	40780	108314	0	0	8161	687224	0	0
2024-06-01 04:52:32			0	35069	0	0	0	22597	21190	144883	27187	994415	40768	108315	0	0	8161	687048	0	0
2024-06-01 04:53:32			0	35080	0	0	0	22589	21180	144803	27175	994513	40791	108312	0	0	8162	686584	0	0
2024-06-01 04:54:32			0	35095	0	0	0	22589	21190	144859	26989	994477	40769	108312	0	0	8163	685861	0	0
2024-06-01 04:55:32			0	35063	0	0	0	22592	21200	144867	27078	994459	40780	108313	0	0	8161	687285	0	0
2024-06-01 04:56:32			0	35084	0	0	0	22576	21180	144975	27412	994433	40791	108307	0	0	8162	686401	0	0
2024-06-01 04:57:32			0	35063	0	0	0	22589	21180	144907	27001	994460	40768	108312	0	0	8161	687361	0	0
2024-06-01 04:58:32			0	35067	0	0	0	22594	21190	144867	27154	994504	40769	108314	0	0	8161	687140	0	0
2024-06-01 04:59:32			0	35082	0	0	0	22579	21180	144951	27414	994460	40791	108308	0	0	8162	686493	0	0
2024-06-01 05:00:32			0	35055	0	0	0	22568	21190	144939	27003	994442	40780	108304	0	0	8161	687688	0	0
2024-06-01 05:01:32			0	35029	0	0	0	22586	21180	144967	26944	994460	40780	108311	0	0	8159	688917	0	0
2024-06-01 05:02:32			0	35060	0	0	0	22599	21190	144843	27239	994522	40757	108316	0	0	8161	687460	0	0
2024-06-01 05:03:32			0	35062	0	0	0	22579	21190	144879	26819	994495	40780	108308	0	0	8161	687368	0	0
2024-06-01 05:04:32			0	35070	0	0	0	22586	21190	144835	27133	994469	40812	108311	0	0	8161	687003	0	0
2024-06-01 05:05:32			0	35060	0	0	0	22586	21180	144767	27020	994452	40779	108311	0	0	8161	687498	0	0
2024-06-01 05:06:32			0	35058	0	0	0	22597	21200	144859	27227	994432	40780	108315	0	0	8161	687513	0	0
2024-06-01 05:07:32			0	35088	0	0	0	22594	21190	144687	27022	994522	40780	108314	0	0	8162	686180	0	0
2024-06-01 05:08:32			0	35079	0	0	0	22579	21190	144723	27074	994504	40791	108308	0	0	8162	686592	0	0
2024-06-01 05:09:32			0	35088	0	0	0	22574	21190	144755	27185	994442	40780	108306	0	0	8163	686180	0	0
2024-06-01 05:10:32			0	35044	0	0	0	22568	21180	144787	27388	994425	40746	108304	0	0	8160	688230	0	0
2024-06-01 05:11:32			0	35020	0	0	0	22566	21180	144811	26951	994398	40790	108303	0	0	8159	689329	0	0
2024-06-01 05:12:32			0	35032	0	0	0	22558	21170	145011	27365	994390	40756	108300	0	0	8160	688817	0	0
2024-06-01 05:13:32			0	35016	0	0	0	22581	21180	145035	27173	994345	40779	108309	0	0	8158	689512	0	0
2024-06-01 05:14:32			0	35038	0	0	0	22602	21180	144851	26762	994452	40779	108317	0	0	8159	688505	0	0
2024-06-01 05:15:32			0	35063	0	0	0	22594	21170	144867	27171	994435	40789	108314	0	0	8161	687399	0	0
2024-06-01 05:16:32			0	35075	0	0	0	22581	21190	144779	27036	994415	40780	108309	0	0	8162	686774	0	0
2024-06-01 05:17:32			0	35050	0	0	0	22579	21180	144915	26956	994452	40767	108308	0	0	8160	687955	0	0
2024-06-01 05:18:32			0	35048	0	0	0	22561	21180	144847	27166	994398	40767	108301	0	0	8161	688047	0	0
2024-06-01 05:19:32			0	35031	0	0	0	22592	21180	144871	27216	994407	40780	108313	0	0	8159	688825	0	0
2024-06-01 05:20:32			0	35050	0	0	0	22571	21180	144923	27324	994380	40791	108305	0	0	8160	687955	0	0
2024-06-01 05:21:32			0	35051	0	0	0	22581	21180	144931	27204	994407	40791	108309	0	0	8160	687910	0	0
2024-06-01 05:22:32			0	35051	0	0	0	22599	21180	144811	27066	994452	40779	108316	0	0	8160	687910	0	0
2024-06-01 05:23:32			0	35066	0	0	0	22571	21180	144703	27182	994452	40767	108305	0	0	8161	687224	0	0
2024-06-01 05:24:32			0	35057	0	0	0	22558	21180	144831	27227	994433	40780	108300	0	0	8161	687635	0	0
2024-06-01 05:25:32			0	35043	0	0	0	22550	21180	144899	26993	994398	40779	108297	0	0	8160	688276	0	0
2024-06-01 05:26:32			0	35038	0	0	0	22568	21170	144943	26896	994363	40767	108304	0	0	8160	688543	0	0
2024-06-01 05:27:32			0	35025	0	0	0	22574	21160	144919	27196	994453	40789	108306	0	0	8159	689176	0	0
2024-06-01 05:28:32			0	35028	0	0	0	22602	21170	145067	26902	994496	40756	108317	0	0	8159	689001	0	0
2024-06-01 05:29:32			0	35054	0	0	0	22589	21180	144919	27083	994407	40780	108312	0	0	8160	687772	0	0
2024-06-01 05:30:32			0	35059	0	0	0	22594	21180	144935	27001	994452	40767	108314	0	0	8161	687544	0	0
2024-06-01 05:31:32			0	35060	0	0	0	22602	21180	144831	26986	994478	40779	108317	0	0	8160	687498	0	0
2024-06-01 05:32:32			0	35056	0	0	0	22576	21190	144799	26866	994495	40780	108307	0	0	8161	687643	0	0
2024-06-01 05:33:32			0	35032	0	0	0	22579	21170	144871	27157	994408	40767	108308	0	0	8159	688817	0	0
2024-06-01 05:34:32			0	35047	0	0	0	22571	21180	144915	27371	994452	40779	108305	0	0	8160	688093	0	0
2024-06-01 05:35:32			0	35022	0	0	0	22581	21180	144939	27154	994425	40779	108309	0	0	8159	689237	0	0
2024-06-01 05:36:32			0	35039	0	0	0	22571	21190	144947	26975	994495	40780	108305	0	0	8160	688421	0	0
2024-06-01 05:37:32			0	35049	0	0	0	22594	21180	144951	27121	994433	40801	108314	0	0	8160	688001	0	0
2024-06-01 05:38:32			0	35027	0	0	0	22581	21180	144959	27412	994478	40779	108309	0	0	8159	689008	0	0
2024-06-01 05:39:32			0	35033	0	0	0	22584	21190	144843	27076	994469	40791	108310	0	0	8159	688695	0	0
2024-06-01 05:40:32			0	35060	0	0	0	22602	21180	144911	26915	994513	40791	108317	0	0	8160	687498	0	0
2024-06-01 05:41:32			0	35056	0	0	0	22571	21180	144823	27286	994398	40790	108305	0	0	8161	687681	0	0
2024-06-01 05:42:32			0	35049	0	0	0	22586	21180	144863	27595	994425	40790	108311	0	0	8160	688001	0	0
2024-06-01 05:43:32			0	35061	0	0	0	22581	21180	144923	26998	994433	40768	108309	0	0	8161	687452	0	0
2024-06-01 05:44:32			0	35042	0	0	0	22589	21170	144823	27189	994417	40779	108312	0	0	8160	688360	0	0
2024-06-01 05:45:32			0	35062	0	0	0	22594	21180	144895	27003	994425	40767	108314	0	0	8161	687406	0	0
2024-06-01 05:46:32			0	35058	0	0	0	22605	21180	144839	27343	994487	40780	108318	0	0	8160	687589	0	0
2024-06-01 05:47:32			0	35075	0	0	0	22592	21190	144847	26817	994495	40791	108313	0	0	8162	686774	0	0
2024-06-01 05:48:32			0	35057	0	0	0	22568	21190	144867	27227	994442	40791	108304	0	0	8161	687597	0	0
2024-06-01 05:49:32			0	35050	0	0	0	22594	21180	144959	27196	994460	40780	108314	0	0	8160	687955	0	0
2024-06-01 05:50:32			0	35049	0	0	0	22602	21180	144855	27085	994487	40780	108317	0	0	8160	688001	0	0
2024-06-01 05:51:32			0	35070	0	0	0	22584	21190	144739	27251	994469	40768	108310	0	0	8161	687003	0	0
2024-06-01 05:52:32			0	35058	0	0	0	22581	21180	144895	27223	994452	40790	108309	0	0	8161	687589	0	0
2024-06-01 05:53:32			0	35036	0	0	0	22561	21180	144887	27306	994460	40780	108301	0	0	8160	688596	0	0
2024-06-01 05:54:32			0	35032	0	0	0	22574	21180	144903	27300	994425	40779	108306	0	0	8159	688779	0	0
2024-06-01 05:55:32			0	35026	0	0	0	22563	21170	144995	27393	994390	40767	108302	0	0	8159	689092	0	0
2024-06-01 05:56:32			0	35026	0	0	0	22579	21170	145019	27395	994470	40779	108308	0	0	8159	689092	0	0
2024-06-01 05:57:32			0	35031	0	0	0	22563	21180	144975	27149	994380	40791	108302	0	0	8160	688825	0	0
2024-06-01 05:58:32			0	35018	0	0	0	22589	21170	144987	27435	994390	40790	108312	0	0	8158	689459	0	0
2024-06-01 05:59:32			0	35012	0	0	0	22579	21170	144971	27365	994408	40778	108308	0	0	8158	689734	0	0
2024-06-01 06:00:32			0	35004	0	0	0	22581	21180	145055	27029	994452	40779	108309	0	0	8158	690062	0	0
2024-06-01 06:01:32			0	35050	0	0	0	22594	21170	145043	27440	994408	40789	108314	0	0	8160	687994	0	0
2024-06-01 06:02:32			0	35029	0	0	0	22594	21170	144923	27400	994461	40778	108314	0	0	8159	688955	0	0
2024-06-01 06:03:32			0	35039	0	0	0	22586	21180	144907	27239	994513	40791	108311	0	0	8160	688459	0	0
2024-06-01 06:04:32			0	35028	0	0	0	22576	21190	144915	27381	994469	40780	108307	0	0	8159	688924	0	0
2024-06-01 06:05:32			0	35012	0	0	0	22561	21170	144983	26982	994470	40767	108301	0	0	8159	689734	0	0
2024-06-01 06:06:32			0	35013	0	0	0	22553	21170	145031	27060	994363	40790	108298	0	0	8159	689688	0	0
2024-06-01 06:07:32			0	34998	0	0	0	22576	21170	145079	27320	994390	40779	108307	0	0	8157	690376	0	0
2024-06-01 06:08:32			0	35003	0	0	0	22574	21170	145155	26974	994470	40779	108306	0	0	8158	690146	0	0
2024-06-01 06:09:32			0	34990	0	0	0	22553	21180	145147	27177	994398	40779	108298	0	0	8157	690704	0	0
2024-06-01 06:10:32			0	34983	0	0	0	22555	21170	145039	26805	994337	40746	108299	0	0	8157	691064	0	0
2024-06-01 06:11:32			0	34975	0	0	0	22563	21160	145139	27178	994320	40778	108302	0	0	8156	691470	0	0
2024-06-01 06:12:32			0	34969	0	0	0	22555	21170	145207	27352	994363	40790	108299	0	0	8156	691707	0	0
2024-06-01 06:13:32			0	34974	0	0	0	22561	21170	145275	27261	994382	40778	108301	0	0	8156	691477	0	0
2024-06-01 06:14:32			0	34982	0	0	0	22574	21170	145207	27144	994470	40779	108306	0	0	8157	691110	0	0
2024-06-01 06:15:32			0	34988	0	0	0	22545	21170	145219	27286	994408	40789	108295	0	0	8157	690835	0	0
2024-06-01 06:16:32			0	34962	0	0	0	22537	21160	145315	27088	994373	40789	108292	0	0	8156	692067	0	0
2024-06-01 06:17:32			0	34936	0	0	0	22548	21160	145291	27088	994320	40767	108296	0	0	8155	693263	0	0
2024-06-01 06:18:32			0	34946	0	0	0	22561	21160	145483	26932	994312	40777	108301	0	0	8155	692803	0	0
2024-06-01 06:19:32			0	34937	0	0	0	22579	21160	145311	27060	994400	40778	108308	0	0	8154	693217	0	0
2024-06-01 06:20:32			0	34971	0	0	0	22553	21170	145243	27232	994390	40790	108298	0	0	8156	691615	0	0
2024-06-01 06:21:32			0	34970	0	0	0	22571	21160	145179	27327	994400	40767	108305	0	0	8156	691699	0	0
2024-06-01 06:22:32			0	34975	0	0	0	22561	21170	145167	27416	994382	40789	108301	0	0	8156	691431	0	0
2024-06-01 06:23:32			0	35006	0	0	0	22579	21170	145135	27724	994382	40778	108308	0	0	8158	690009	0	0
2024-06-01 06:24:32			0	34997	0	0	0	22576	21170	145083	27448	994390	40790	108307	0	0	8157	690421	0	0
2024-06-01 06:25:32			0	35012	0	0	0	22584	21170	145099	27241	994443	40790	108310	0	0	8158	689734	0	0
2024-06-01 06:26:32			0	35031	0	0	0	22574	21170	144971	27185	994417	40800	108306	0	0	8159	688863	0	0
2024-06-01 06:27:32			0	34998	0	0	0	22545	21170	145115	27280	994382	40778	108295	0	0	8158	690376	0	0
2024-06-01 06:28:32			0	35020	0	0	0	22558	21170	145079	27159	994408	40778	108300	0	0	8159	689367	0	0
2024-06-01 06:29:32			0	35014	0	0	0	22566	21170	145099	27095	994408	40767	108303	0	0	8159	689642	0	0
2024-06-01 06:30:32			0	35022	0	0	0	22574	21160	145063	26736	994347	40778	108306	0	0	8159	689314	0	0
2024-06-01 06:31:32			0	35027	0	0	0	22566	21160	144971	27268	994338	40788	108303	0	0	8159	689085	0	0
2024-06-01 06:32:32			0	35020	0	0	0	22542	21160	144979	27156	994373	40778	108294	0	0	8159	689405	0	0
2024-06-01 06:33:32			0	35027	0	0	0	22532	21160	145043	27185	994320	40778	108290	0	0	8160	689085	0	0
2024-06-01 06:34:32			0	35014	0	0	0	22540	21150	145091	27208	994303	40765	108293	0	0	8159	689719	0	0
2024-06-01 06:35:32			0	35019	0	0	0	22553	21150	145035	27595	994197	40776	108298	0	0	8159	689489	0	0
2024-06-01 06:36:32			0	35033	0	0	0	22545	21160	145063	27317	994285	40777	108295	0	0	8160	688810	0	0
2024-06-01 06:37:32			0	35028	0	0	0	22568	21150	145007	27400	994383	40765	108304	0	0	8159	689077	0	0
2024-06-01 06:38:32			0	35047	0	0	0	22555	21150	144943	27211	994383	40776	108299	0	0	8160	688207	0	0
2024-06-01 06:39:32			0	35066	0	0	0	22542	21160	144935	26736	994365	40788	108294	0	0	8162	687300	0	0
2024-06-01 06:40:32			0	35072	0	0	0	22553	21150	144943	27346	994295	40776	108298	0	0	8162	687064	0	0
2024-06-01 06:41:32			0	35056	0	0	0	22529	21150	144759	27039	994268	40765	108289	0	0	8161	687795	0	0
2024-06-01 06:42:32			0	35053	0	0	0	22537	21150	144883	27215	994303	40765	108292	0	0	8161	687933	0	0
2024-06-01 06:43:32			0	35050	0	0	0	22524	21150	144915	27177	994321	40776	108287	0	0	8161	688070	0	0
2024-06-01 06:44:32			0	35023	0	0	0	22535	21150	144983	26849	994268	40776	108291	0	0	8159	689306	0	0
2024-06-01 06:45:32			0	35018	0	0	0	22535	21140	144967	27109	994278	40764	108291	0	0	8159	689574	0	0
2024-06-01 06:46:32			0	35036	0	0	0	22540	21130	145027	26906	994269	40785	108293	0	0	8160	688787	0	0
2024-06-01 06:47:32			0	35029	0	0	0	22527	21150	145075	27003	994242	40787	108288	0	0	8160	689031	0	0
2024-06-01 06:48:32			0	35009	0	0	0	22514	21140	145111	27230	994286	40765	108283	0	0	8159	689986	0	0
2024-06-01 06:49:32			0	35030	0	0	0	22527	21140	145215	26847	994198	40786	108288	0	0	8160	689024	0	0
2024-06-01 06:50:32			0	35016	0	0	0	22550	21140	145159	26986	994278	40786	108297	0	0	8159	689665	0	0
2024-06-01 06:51:32			0	35022	0	0	0	22524	21140	145067	27180	994286	40776	108287	0	0	8160	689390	0	0
2024-06-01 06:52:32			0	35015	0	0	0	22535	21140	145099	26960	994331	40786	108291	0	0	8159	689711	0	0
2024-06-01 06:53:32			0	35035	0	0	0	22527	21130	145095	26909	994243	40763	108288	0	0	8160	688833	0	0
2024-06-01 06:54:32			0	35016	0	0	0	22545	21140	145151	26993	994278	40797	108295	0	0	8159	689665	0	0
2024-06-01 06:55:32			0	35028	0	0	0	22519	21140	145007	27351	994233	40776	108285	0	0	8160	689115	0	0
2024-06-01 06:56:32			0	35018	0	0	0	22532	21150	145107	27352	994268	40776	108290	0	0	8159	689535	0	0
2024-06-01 06:57:32			0	35008	0	0	0	22535	21130	145147	27393	994296	40785	108291	0	0	8159	690070	0	0
2024-06-01 06:58:32			0	34986	0	0	0	22540	21130	145263	27064	994261	40752	108293	0	0	8157	691080	0	0
2024-06-01 06:59:32			0	34982	0	0	0	22535	21120	145251	27455	994279	40785	108291	0	0	8157	691302	0	0
2024-06-01 07:00:32			0	35004	0	0	0	22540	21120	145307	27315	994253	40773	108293	0	0	8158	690292	0	0
2024-06-01 07:01:32			0	34979	0	0	0	22532	21140	145195	26870	994278	40786	108290	0	0	8157	691363	0	0
2024-06-01 07:02:32			0	34969	0	0	0	22532	21140	145167	27312	994251	40775	108290	0	0	8156	691822	0	0
2024-06-01 07:03:32			0	34973	0	0	0	22511	21130	145359	27284	994243	40774	108282	0	0	8157	691677	0	0
2024-06-01 07:04:32			0	34941	0	0	0	22537	21140	145359	27131	994251	40786	108292	0	0	8155	693109	0	0
2024-06-01 07:05:32			0	34954	0	0	0	22519	21120	145439	27253	994226	40785	108285	0	0	8156	692588	0	0
2024-06-01 07:06:32			0	34935	0	0	0	22516	21140	145399	27055	994251	40775	108284	0	0	8155	693385	0	0
2024-06-01 07:07:32			0	34934	0	0	0	22511	21110	145427	27066	994244	40773	108282	0	0	8155	693547	0	0
2024-06-01 07:08:32			0	34933	0	0	0	22509	21110	145475	26942	994164	40773	108281	0	0	8155	693593	0	0
2024-06-01 07:09:32			0	34910	0	0	0	22506	21120	145439	27105	994199	40785	108280	0	0	8154	694614	0	0
2024-06-01 07:10:32			0	34918	0	0	0	22511	21110	145583	27253	994164	40773	108282	0	0	8154	694284	0	0
2024-06-01 07:11:32			0	34900	0	0	0	22516	21110	145723	27371	994138	40773	108284	0	0	8153	695113	0	0
2024-06-01 07:12:32			0	34892	0	0	0	22506	21120	145787	27300	994146	40785	108280	0	0	8153	695444	0	0
2024-06-01 07:13:32			0	34877	0	0	0	22511	21110	145755	27218	994236	40772	108282	0	0	8152	696175	0	0
2024-06-01 07:14:32			0	34884	0	0	0	22522	21110	145715	27242	994164	40762	108286	0	0	8152	695852	0	0
2024-06-01 07:15:32			0	34890	0	0	0	22522	21100	145787	27147	994148	40784	108286	0	0	8152	695613	0	0
2024-06-01 07:16:32			0	34868	0	0	0	22519	21110	145799	27202	994191	40785	108285	0	0	8151	696590	0	0
2024-06-01 07:17:32			0	34879	0	0	0	22509	21110	145899	27036	994183	40761	108281	0	0	8152	696082	0	0
2024-06-01 07:18:32			0	34851	0	0	0	22501	21110	145803	27260	994129	40772	108278	0	0	8150	697376	0	0
2024-06-01 07:19:32			0	34869	0	0	0	22501	21110	145755	27263	994129	40784	108278	0	0	8151	696544	0	0
2024-06-01 07:20:32			0	34852	0	0	0	22506	21110	145919	27249	994156	40772	108280	0	0	8150	697329	0	0
2024-06-01 07:21:32			0	34841	0	0	0	22514	21100	145955	27395	994139	40772	108283	0	0	8150	697877	0	0
2024-06-01 07:22:32			0	34839	0	0	0	22501	21110	145983	26968	994138	40762	108278	0	0	8150	697931	0	0
2024-06-01 07:23:32			0	34817	0	0	0	22490	21110	145939	27034	994129	40784	108274	0	0	8149	698949	0	0
2024-06-01 07:24:32			0	34823	0	0	0	22509	21100	145939	27235	994113	40760	108281	0	0	8149	698710	0	0
2024-06-01 07:25:32			0	34818	0	0	0	22503	21100	146023	27185	994121	40772	108279	0	0	8148	698941	0	0
2024-06-01 07:26:32			0	34829	0	0	0	22503	21100	146047	27216	994201	40772	108279	0	0	8149	698432	0	0
2024-06-01 07:27:32			0	34826	0	0	0	22511	21110	145975	27396	994156	40784	108282	0	0	8149	698532	0	0
2024-06-01 07:28:32			0	34833	0	0	0	22519	21100	146071	27556	994174	40772	108285	0	0	8149	698247	0	0
2024-06-01 07:29:32			0	34824	0	0	0	22529	21110	145939	27263	994209	40794	108289	0	0	8148	698625	0	0
2024-06-01 07:30:32			0	34843	0	0	0	22529	21110	145983	27220	994209	40784	108289	0	0	8149	697746	0	0
2024-06-01 07:31:32			0	34829	0	0	0	22514	21100	145899	27436	994227	40784	108283	0	0	8149	698432	0	0
2024-06-01 07:32:32			0	34826	0	0	0	22516	21110	146019	27260	994138	40773	108284	0	0	8149	698532	0	0
2024-06-01 07:33:32			0	34814	0	0	0	22519	21110	146099	27173	994183	40772	108285	0	0	8148	699088	0	0
2024-06-01 07:34:32			0	34830	0	0	0	22524	21120	146063	27161	994226	40773	108287	0	0	8149	698308	0	0
2024-06-01 07:35:32			0	34824	0	0	0	22522	21110	146047	27175	994262	40772	108286	0	0	8149	698625	0	0
2024-06-01 07:36:32			0	34802	0	0	0	22511	21110	146019	27519	994209	40772	108282	0	0	8147	699644	0	0
2024-06-01 07:37:32			0	34797	0	0	0	22524	21110	146063	27282	994209	40772	108287	0	0	8147	699875	0	0
2024-06-01 07:38:32			0	34814	0	0	0	22532	21120	146055	27182	994226	40773	108290	0	0	8148	699049	0	0
2024-06-01 07:39:32			0	34819	0	0	0	22519	21110	146115	27196	994297	40773	108285	0	0	8148	698856	0	0
2024-06-01 07:40:32			0	34796	0	0	0	22535	21110	146011	27479	994156	40794	108291	0	0	8147	699922	0	0
2024-06-01 07:41:32			0	34805	0	0	0	22532	21110	146171	27448	994271	40785	108290	0	0	8147	699504	0	0
2024-06-01 07:42:32			0	34826	0	0	0	22527	21110	146079	27628	994218	40773	108288	0	0	8149	698532	0	0
2024-06-01 07:43:32			0	34826	0	0	0	22535	21110	146031	27308	994218	40773	108291	0	0	8148	698532	0	0
2024-06-01 07:44:32			0	34822	0	0	0	22537	21130	146047	27187	994261	40785	108292	0	0	8148	698640	0	0
2024-06-01 07:45:32			0	34828	0	0	0	22537	21130	145931	27223	994349	40785	108292	0	0	8149	698362	0	0
2024-06-01 07:46:32			0	34828	0	0	0	22537	21140	145991	27097	994251	40797	108292	0	0	8149	698323	0	0
2024-06-01 07:47:32			0	34843	0	0	0	22542	21110	145903	27133	994324	40773	108294	0	0	8149	697746	0	0
2024-06-01 07:48:32			0	34841	0	0	0	22548	21130	145891	27157	994288	40796	108296	0	0	8149	697761	0	0
2024-06-01 07:49:32			0	34849	0	0	0	22548	21130	145895	27279	994323	40763	108296	0	0	8150	697391	0	0
2024-06-01 07:50:32			0	34859	0	0	0	22545	21140	145767	27137	994278	40786	108295	0	0	8150	696890	0	0
2024-06-01 07:51:32			0	34848	0	0	0	22545	21130	145835	27351	994288	40785	108295	0	0	8150	697437	0	0
2024-06-01 07:52:32			0	34841	0	0	0	22545	21150	145843	27653	994348	40776	108295	0	0	8149	697683	0	0
2024-06-01 07:53:32			0	34847	0	0	0	22550	21140	145803	27086	994305	40797	108297	0	0	8149	697445	0	0
2024-06-01 07:54:32			0	34851	0	0	0	22550	21140	145851	27331	994340	40787	108297	0	0	8150	697260	0	0
2024-06-01 07:55:32			0	34882	0	0	0	22566	21150	145763	27272	994321	40787	108303	0	0	8151	695789	0	0
2024-06-01 07:56:32			0	34894	0	0	0	22563	21150	145771	27092	994356	40776	108302	0	0	8152	695236	0	0
2024-06-01 07:57:32			0	34879	0	0	0	22550	21150	145727	27405	994321	40776	108297	0	0	8151	695928	0	0
2024-06-01 07:58:32			0	34882	0	0	0	22563	21140	145715	27301	994340	40776	108302	0	0	8151	695828	0	0
2024-06-01 07:59:32			0	34894	0	0	0	22558	21150	145695	27419	994375	40776	108300	0	0	8152	695236	0	0
2024-06-01 08:00:32			0	34890	0	0	0	22563	21140	145635	27478	994340	40776	108302	0	0	8152	695459	0	0
2024-06-01 08:01:32			0	34877	0	0	0	22558	21150	145787	27364	994375	40776	108300	0	0	8151	696020	0	0
2024-06-01 08:02:32			0	34901	0	0	0	22561	21150	145675	27164	994463	40787	108301	0	0	8152	694913	0	0
2024-06-01 08:03:32			0	34881	0	0	0	22561	21150	145695	27473	994436	40787	108301	0	0	8151	695836	0	0
2024-06-01 08:04:32			0	34905	0	0	0	22561	21160	145671	27362	994445	40777	108301	0	0	8153	694690	0	0
2024-06-01 08:05:32			0	34903	0	0	0	22568	21160	145643	27391	994365	40777	108304	0	0	8152	694782	0	0
2024-06-01 08:06:32			0	34916	0	0	0	22579	21160	145639	27315	994418	40788	108308	0	0	8153	694183	0	0
2024-06-01 08:07:32			0	34890	0	0	0	22571	21160	145699	27518	994418	40788	108305	0	0	8152	695382	0	0
2024-06-01 08:08:32			0	34900	0	0	0	22571	21160	145787	27377	994445	40788	108305	0	0	8152	694921	0	0
2024-06-01 08:09:32			0	34912	0	0	0	22571	21170	145675	27140	994470	40800	108305	0	0	8153	694329	0	0
2024-06-01 08:10:32			0	34919	0	0	0	22574	21170	145719	27138	994515	40789	108306	0	0	8153	694007	0	0
2024-06-01 08:11:32			0	34903	0	0	0	22579	21170	145639	27436	994461	40789	108308	0	0	8152	694744	0	0
2024-06-01 08:12:32			0	34875	0	0	0	22584	21160	145559	27424	994426	40789	108310	0	0	8151	696074	0	0
2024-06-01 08:13:32			0	34922	0	0	0	22581	21170	145603	27400	994496	40779	108309	0	0	8153	693869	0	0
2024-06-01 08:14:32			0	34922	0	0	0	22584	21170	145595	27085	994470	40779	108310	0	0	8153	693869	0	0
2024-06-01 08:15:32			0	34937	0	0	0	22586	21170	145567	27312	994461	40767	108311	0	0	8154	693178	0	0
2024-06-01 08:16:32			0	34941	0	0	0	22579	21180	145615	27331	994531	40779	108308	0	0	8154	692955	0	0
2024-06-01 08:17:32			0	34913	0	0	0	22574	21170	145495	27386	994470	40779	108306	0	0	8153	694283	0	0
2024-06-01 08:18:32			0	34940	0	0	0	22574	21170	145591	27310	994488	40778	108306	0	0	8154	693040	0	0
2024-06-01 08:19:32			0	34926	0	0	0	22586	21180	145519	27086	994505	40767	108311	0	0	8153	693646	0	0
2024-06-01 08:20:32			0	34943	0	0	0	22592	21180	145543	27505	994425	40779	108313	0	0	8154	692864	0	0
2024-06-01 08:21:32			0	34933	0	0	0	22592	21180	145531	27144	994452	40779	108313	0	0	8154	693324	0	0
2024-06-01 08:22:32			0	34929	0	0	0	22592	21180	145451	27293	994487	40791	108313	0	0	8153	693508	0	0
2024-06-01 08:23:32			0	34930	0	0	0	22592	21180	145459	27296	994505	40800	108313	0	0	8154	693462	0	0
2024-06-01 08:24:32			0	34939	0	0	0	22599	21190	145483	27426	994495	40791	108316	0	0	8154	693009	0	0
2024-06-01 08:25:32			0	34947	0	0	0	22599	21180	145483	27095	994531	40756	108316	0	0	8154	692680	0	0
2024-06-01 08:26:32			0	34967	0	0	0	22605	21190	145371	27533	994601	40791	108318	0	0	8155	691722	0	0
2024-06-01 08:27:32			0	34976	0	0	0	22620	21190	145351	27145	994601	40801	108324	0	0	8156	691309	0	0
2024-06-01 08:28:32			0	35000	0	0	0	22618	21200	145303	27343	994645	40791	108323	0	0	8157	690169	0	0
2024-06-01 08:29:32			0	35001	0	0	0	22615	21190	145243	27395	994583	40791	108322	0	0	8157	690162	0	0
2024-06-01 08:30:32			0	35009	0	0	0	22623	21200	145107	27334	994565	40791	108325	0	0	8157	689756	0	0
2024-06-01 08:31:32			0	35048	0	0	0	22646	21190	145135	27248	994690	40780	108334	0	0	8159	688009	0	0
2024-06-01 08:32:32			0	35092	0	0	0	22631	21200	144835	27417	994627	40792	108328	0	0	8162	685960	0	0
2024-06-01 08:33:32			0	35108	0	0	0	22646	21210	144884	27327	994635	40781	108334	0	0	8163	685191	0	0
2024-06-01 08:34:32			0	35102	0	0	0	22646	21210	144835	27225	994662	40792	108334	0	0	8162	685465	0	0
2024-06-01 08:35:32			0	35103	0	0	0	22651	21210	144807	27166	994688	40781	108336	0	0	8162	685420	0	0
2024-06-01 08:36:32			0	35127	0	0	0	22646	21200	144760	26998	994671	40791	108334	0	0	8164	684363	0	0
2024-06-01 08:37:32			0	35136	0	0	0	22649	21220	144780	27443	994732	40792	108335	0	0	8164	683877	0	0
2024-06-01 08:38:32			0	35120	0	0	0	22646	21220	144724	27298	994741	40793	108334	0	0	8163	684606	0	0
2024-06-01 08:39:32			0	35139	0	0	0	22649	21220	144772	27116	994785	40792	108335	0	0	8164	683741	0	0
2024-06-01 08:40:32			0	35133	0	0	0	22646	21220	144720	26998	994741	40793	108334	0	0	8164	684014	0	0
2024-06-01 08:41:32			0	35124	0	0	0	22644	21220	144824	27114	994714	40793	108333	0	0	8163	684424	0	0
2024-06-01 08:42:32			0	35128	0	0	0	22649	21230	144700	27142	994749	40773	108335	0	0	8164	684204	0	0
2024-06-01 08:43:32			0	35126	0	0	0	22636	21230	144776	27251	994749	40784	108330	0	0	8164	684295	0	0
2024-06-01 08:44:32			0	35087	0	0	0	22636	21220	144879	27282	994732	40792	108330	0	0	8162	686112	0	0
2024-06-01 08:45:32			0	35107	0	0	0	22651	21230	144824	27130	994757	40794	108336	0	0	8162	685161	0	0
2024-06-01 08:46:32			0	35100	0	0	0	22649	21230	144875	27379	994722	40805	108335	0	0	8162	685481	0	0
2024-06-01 08:47:32			0	35113	0	0	0	22657	21230	144796	27034	994784	40805	108338	0	0	8163	684888	0	0
2024-06-01 08:48:32			0	35109	0	0	0	22657	21240	144800	27381	994819	40795	108338	0	0	8163	685032	0	0
2024-06-01 08:49:32			0	35119	0	0	0	22659	21240	144984	27190	994846	40795	108339	0	0	8163	684576	0	0
2024-06-01 08:50:32			0	35147	0	0	0	22651	21240	144744	27123	994819	40806	108336	0	0	8165	683301	0	0
2024-06-01 08:51:32			0	35127	0	0	0	22657	21240	144716	27111	994827	40806	108338	0	0	8164	684212	0	0
2024-06-01 08:52:32			0	35125	0	0	0	22672	21240	144616	27079	994801	40785	108344	0	0	8163	684303	0	0
2024-06-01 08:53:32			0	35163	0	0	0	22672	21240	144572	27010	994801	40806	108344	0	0	8165	682573	0	0
2024-06-01 08:54:32			0	35189	0	0	0	22688	21250	144448	27145	994836	40807	108350	0	0	8166	681353	0	0
2024-06-01 08:55:32			0	35206	0	0	0	22675	21250	144464	27072	994871	40807	108345	0	0	8168	680581	0	0
2024-06-01 08:56:32			0	35233	0	0	0	22672	21260	144288	27170	994853	40819	108344	0	0	8169	679319	0	0
2024-06-01 08:57:32			0	35215	0	0	0	22677	21260	144364	27150	994880	40797	108346	0	0	8168	680135	0	0
2024-06-01 08:58:32			0	35210	0	0	0	22685	21250	144336	27308	994889	40807	108349	0	0	8168	680400	0	0
2024-06-01 08:59:32			0	35220	0	0	0	22690	21250	144348	27185	994924	40807	108351	0	0	8168	679946	0	0
2024-06-01 09:00:32			0	35226	0	0	0	22680	21260	144176	27126	994915	40797	108347	0	0	8169	679637	0	0
2024-06-01 09:01:32			0	35234	0	0	0	22683	21270	144196	27405	994923	40798	108348	0	0	8169	679236	0	0
2024-06-01 09:02:32			0	35240	0	0	0	22677	21260	144168	27060	994941	40808	108346	0	0	8169	679002	0	0
2024-06-01 09:03:32			0	35234	0	0	0	22683	21260	144176	26948	994915	40808	108348	0	0	8169	679274	0	0
2024-06-01 09:04:32			0	35220	0	0	0	22667	21270	144180	27338	994958	40809	108342	0	0	8169	679871	0	0
2024-06-01 09:05:32			0	35211	0	0	0	22675	21260	144224	27410	994853	40797	108345	0	0	8168	680317	0	0
2024-06-01 09:06:32			0	35203	0	0	0	22672	21260	144316	27274	994888	40819	108344	0	0	8168	680680	0	0
2024-06-01 09:07:32			0	35210	0	0	0	22677	21260	144292	27255	994880	40797	108346	0	0	8168	680362	0	0
2024-06-01 09:08:32			0	35225	0	0	0	22667	21270	144252	27429	994931	40798	108342	0	0	8169	679644	0	0
2024-06-01 09:09:32			0	35206	0	0	0	22675	21260	144356	27294	994915	40797	108345	0	0	8168	680544	0	0
2024-06-01 09:10:32			0	35199	0	0	0	22664	21260	144384	27124	994959	40797	108341	0	0	8167	680861	0	0
2024-06-01 09:11:32			0	35202	0	0	0	22683	21280	144392	27176	994967	40810	108348	0	0	8167	680650	0	0
2024-06-01 09:12:32			0	35216	0	0	0	22672	21270	144404	27414	994905	40809	108344	0	0	8168	680052	0	0
2024-06-01 09:13:32			0	35181	0	0	0	22683	21260	144384	27209	994968	40797	108348	0	0	8166	681679	0	0
2024-06-01 09:14:32			0	35193	0	0	0	22680	21270	144424	27251	994905	40809	108347	0	0	8167	681096	0	0
2024-06-01 09:15:32			0	35193	0	0	0	22703	21260	144448	27237	994968	40797	108356	0	0	8166	681134	0	0
2024-06-01 09:16:32			0	35193	0	0	0	22703	21270	144396	27355	994950	40798	108356	0	0	8166	681096	0	0
2024-06-01 09:17:32			0	35210	0	0	0	22693	21270	144368	27007	994931	40798	108352	0	0	8168	680324	0	0
2024-06-01 09:18:32			0	35206	0	0	0	22698	21280	144340	27085	995073	40799	108354	0	0	8167	680468	0	0
2024-06-01 09:19:32			0	35209	0	0	0	22698	21280	144332	27282	994975	40811	108354	0	0	8167	680332	0	0
2024-06-01 09:20:32			0	35203	0	0	0	22714	21280	144288	27313	995028	40811	108360	0	0	8167	680604	0	0
2024-06-01 09:21:32			0	35213	0	0	0	22711	21280	144284	27272	994975	40811	108359	0	0	8167	680150	0	0
2024-06-01 09:22:32			0	35228	0	0	0	22709	21290	144272	27093	995063	40800	108358	0	0	8168	679433	0	0
2024-06-01 09:23:32			0	35217	0	0	0	22716	21290	144268	27163	995063	40822	108361	0	0	8168	679931	0	0
2024-06-01 09:24:32			0	35218	0	0	0	22722	21300	144108	27564	995080	40812	108363	0	0	8168	679848	0	0
2024-06-01 09:25:32			0	35219	0	0	0	22709	21290	144244	27313	995072	40800	108358	0	0	8168	679841	0	0
2024-06-01 09:26:32			0	35237	0	0	0	22719	21300	144244	27258	995080	40812	108362	0	0	8169	678987	0	0
2024-06-01 09:27:32			0	35229	0	0	0	22724	21290	144224	27319	995125	40789	108364	0	0	8168	679387	0	0
2024-06-01 09:28:32			0	35232	0	0	0	22724	21300	144252	27464	995080	40812	108364	0	0	8168	679214	0	0
2024-06-01 09:29:32			0	35249	0	0	0	22737	21310	144092	27540	995150	40813	108369	0	0	8169	678406	0	0
2024-06-01 09:30:32			0	35244	0	0	0	22742	21300	144176	27372	995168	40813	108371	0	0	8169	678670	0	0
2024-06-01 09:31:32			0	35275	0	0	0	22737	21310	144108	27528	995177	40824	108369	0	0	8171	677230	0	0
2024-06-01 09:32:32			0	35260	0	0	0	22735	21310	144148	27485	995150	40824	108368	0	0	8170	677908	0	0
2024-06-01 09:33:32			0	35269	0	0	0	22737	21320	144100	27409	995194	40813	108369	0	0	8170	677464	0	0
2024-06-01 09:34:32			0	35279	0	0	0	22737	21320	144044	27642	995202	40803	108369	0	0	8171	677012	0	0
2024-06-01 09:35:32			0	35276	0	0	0	22732	21320	143992	27175	995175	40814	108367	0	0	8171	677147	0	0
2024-06-01 09:36:32			0	35280	0	0	0	22732	21320	144112	27732	995140	40813	108367	0	0	8171	676966	0	0
2024-06-01 09:37:32			0	35280	0	0	0	22755	21320	144052	27263	995149	40803	108376	0	0	8171	676966	0	0
2024-06-01 09:38:32			0	35300	0	0	0	22761	21320	144024	27272	995194	40813	108378	0	0	8172	676063	0	0
2024-06-01 09:39:32			0	35294	0	0	0	22774	21330	144012	27213	995246	40815	108383	0	0	8171	676296	0	0
2024-06-01 09:40:32			0	35309	0	0	0	22768	21340	143860	27685	995281	40827	108381	0	0	8172	675582	0	0
2024-06-01 09:41:32			0	35306	0	0	0	22776	21340	143792	26849	995281	40815	108384	0	0	8172	675717	0	0
2024-06-01 09:42:32			0	35331	0	0	0	22750	21340	143820	27213	995334	40804	108374	0	0	8174	674589	0	0
2024-06-01 09:43:32			0	35326	0	0	0	22748	21340	143852	27265	995254	40804	108373	0	0	8173	674815	0	0
2024-06-01 09:44:32			0	35288	0	0	0	22748	21340	143868	27587	995289	40805	108373	0	0	8171	676530	0	0
2024-06-01 09:45:32			0	35272	0	0	0	22727	21330	144000	27367	995193	40804	108365	0	0	8171	677290	0	0
2024-06-01 09:46:32			0	35283	0	0	0	22729	21340	144004	27241	995228	40804	108366	0	0	8171	676756	0	0
2024-06-01 09:47:32			0	35264	0	0	0	22737	21340	143956	27438	995254	40815	108369	0	0	8170	677614	0	0
2024-06-01 09:48:32			0	35273	0	0	0	22735	21340	143992	27414	995228	40804	108368	0	0	8171	677208	0	0
2024-06-01 09:49:32			0	35254	0	0	0	22740	21330	144004	27166	995246	40815	108370	0	0	8169	678104	0	0
2024-06-01 09:50:32			0	35264	0	0	0	22745	21340	144032	26981	995254	40815	108372	0	0	8170	677614	0	0
2024-06-01 09:51:32			0	35274	0	0	0	22742	21330	144096	27220	995272	40815	108371	0	0	8171	677200	0	0
2024-06-01 09:52:32			0	35260	0	0	0	22735	21330	144056	27332	995219	40815	108368	0	0	8170	677833	0	0
2024-06-01 09:53:32			0	35259	0	0	0	22729	21330	144056	27447	995246	40804	108366	0	0	8170	677878	0	0
2024-06-01 09:54:32			0	35268	0	0	0	22740	21330	143992	27535	995219	40804	108370	0	0	8170	677471	0	0
2024-06-01 09:55:32			0	35280	0	0	0	22740	21330	143980	27488	995246	40827	108370	0	0	8171	676929	0	0
2024-06-01 09:56:32			0	35258	0	0	0	22742	21330	144072	27223	995272	40815	108371	0	0	8170	677924	0	0
2024-06-01 09:57:32			0	35276	0	0	0	22753	21340	143972	27533	995281	40804	108375	0	0	8170	677072	0	0
2024-06-01 09:58:32			0	35283	0	0	0	22748	21330	144012	27488	995272	40804	108373	0	0	8171	676793	0	0
2024-06-01 09:59:32			0	35280	0	0	0	22748	21340	143984	27190	995281	40815	108373	0	0	8171	676891	0	0
2024-06-01 10:00:32			0	35308	0	0	0	22742	21340	143864	27512	995209	40816	108371	0	0	8172	675627	0	0
2024-06-01 10:01:32			0	35317	0	0	0	22758	21340	143960	27609	995281	40804	108377	0	0	8173	675220	0	0
2024-06-01 10:02:32			0	35302	0	0	0	22768	21340	143888	27393	995228	40815	108381	0	0	8172	675898	0	0
2024-06-01 10:03:32			0	35307	0	0	0	22771	21340	143924	27402	995316	40805	108382	0	0	8172	675672	0	0
2024-06-01 10:04:32			0	35313	0	0	0	22776	21350	143896	27246	995333	40806	108384	0	0	8172	675364	0	0
2024-06-01 10:05:32			0	35311	0	0	0	22784	21350	143860	27353	995306	40817	108387	0	0	8172	675454	0	0
2024-06-01 10:06:32			0	35319	0	0	0	22776	21360	143716	27428	995341	40817	108384	0	0	8173	675055	0	0
2024-06-01 10:07:32			0	35322	0	0	0	22781	21350	143864	27502	995386	40817	108386	0	0	8173	674958	0	0
2024-06-01 10:08:32			0	35329	0	0	0	22776	21360	143912	27336	995341	40828	108384	0	0	8173	674605	0	0
2024-06-01 10:09:32			0	35320	0	0	0	22779	21350	143892	27244	995359	40828	108385	0	0	8172	675048	0	0
2024-06-01 10:10:32			0	35340	0	0	0	22781	21360	143736	26974	995456	40818	108386	0	0	8174	674109	0	0
2024-06-01 10:11:32			0	35337	0	0	0	22802	21360	143824	27415	995429	40807	108394	0	0	8173	674244	0	0
2024-06-01 10:12:32			0	35360	0	0	0	22802	21370	143824	27402	995438	40830	108394	0	0	8174	673171	0	0
2024-06-01 10:13:32			0	35352	0	0	0	22810	21370	143856	27343	995499	40830	108397	0	0	8174	673531	0	0
2024-06-01 10:14:32			0	35345	0	0	0	22799	21370	143764	27034	995499	40830	108393	0	0	8174	673846	0	0
2024-06-01 10:15:32			0	35350	0	0	0	22815	21380	143752	27267	995516	40809	108399	0	0	8174	673584	0	0
2024-06-01 10:16:32			0	35343	0	0	0	22828	21380	143860	27348	995534	40808	108404	0	0	8173	673899	0	0
2024-06-01 10:17:32			0	35339	0	0	0	22851	21380	143840	27232	995543	40831	108413	0	0	8172	674079	0	0
2024-06-01 10:18:32			0	35351	0	0	0	22854	21390	143884	27215	995605	40821	108414	0	0	8173	673501	0	0
2024-06-01 10:19:32			0	35367	0	0	0	22872	21390	143780	27338	995640	40832	108421	0	0	8174	672781	0	0
2024-06-01 10:20:32			0	35373	0	0	0	22857	21400	143700	27336	995710	40822	108415	0	0	8174	672474	0	0
2024-06-01 10:21:32			0	35371	0	0	0	22862	21420	143676	27189	995673	40834	108417	0	0	8174	672489	0	0
2024-06-01 10:22:32			0	35374	0	0	0	22862	21420	143664	27523	995673	40823	108417	0	0	8174	672354	0	0
2024-06-01 10:23:32			0	35399	0	0	0	22883	21420	143612	27824	995735	40823	108425	0	0	8175	671231	0	0
2024-06-01 10:24:32			0	35418	0	0	0	22872	21440	143524	27492	995787	40847	108421	0	0	8177	670303	0	0
2024-06-01 10:25:32			0	35415	0	0	0	22864	21430	143480	27235	995699	40824	108418	0	0	8177	670475	0	0
2024-06-01 10:26:32			0	35435	0	0	0	22867	21440	143452	27154	995760	40825	108419	0	0	8178	669541	0	0
2024-06-01 10:27:32			0	35412	0	0	0	22880	21430	143420	27327	995778	40835	108424	0	0	8176	670610	0	0
2024-06-01 10:28:32			0	35452	0	0	0	22880	21440	143344	27481	995769	40825	108424	0	0	8178	668779	0	0
2024-06-01 10:29:32			0	35451	0	0	0	22890	21450	143360	27338	995785	40826	108428	0	0	8178	668787	0	0
2024-06-01 10:30:32			0	35448	0	0	0	22903	21460	143308	27301	995847	40837	108433	0	0	8178	668884	0	0
2024-06-01 10:31:32			0	35484	0	0	0	22916	21460	143204	27462	995936	40827	108438	0	0	8180	667273	0	0
2024-06-01 10:32:32			0	35508	0	0	0	22927	21470	143172	27246	995899	40838	108442	0	0	8181	666164	0	0
2024-06-01 10:33:32			0	35528	0	0	0	22924	21480	143088	27559	995996	40840	108441	0	0	8182	665234	0	0
2024-06-01 10:34:32			0	35525	0	0	0	22924	21480	142996	27402	996049	40840	108441	0	0	8182	665368	0	0
2024-06-01 10:35:32			0	35554	0	0	0	22916	21480	142944	27287	995988	40829	108438	0	0	8183	664075	0	0
2024-06-01 10:36:32			0	35545	0	0	0	22893	21490	143008	27230	995986	40840	108429	0	0	8183	664439	0	0
2024-06-01 10:37:32			0	35520	0	0	0	22916	21500	143048	27521	996021	40841	108438	0	0	8182	665517	0	0
2024-06-01 10:38:32			0	35547	0	0	0	22911	21500	142888	27549	996075	40852	108436	0	0	8183	664313	0	0
2024-06-01 10:39:32			0	35533	0	0	0	22914	21500	142996	27294	996056	40831	108437	0	0	8182	664937	0	0
2024-06-01 10:40:32			0	35534	0	0	0	22935	21510	142948	27436	996065	40853	108445	0	0	8182	664856	0	0
2024-06-01 10:41:32			0	35549	0	0	0	22922	21510	142900	27639	996065	40842	108440	0	0	8183	664187	0	0
2024-06-01 10:42:32			0	35536	0	0	0	22890	21510	142952	27272	996047	40842	108428	0	0	8183	664766	0	0
2024-06-01 10:43:32			0	35528	0	0	0	22901	21510	143060	27131	996073	40853	108432	0	0	8182	665123	0	0
2024-06-01 10:44:32			0	35525	0	0	0	22906	21510	143076	27471	996038	40820	108434	0	0	8182	665257	0	0
2024-06-01 10:45:32			0	35520	0	0	0	22929	21510	142972	27322	996047	40842	108443	0	0	8182	665480	0	0
2024-06-01 10:46:32			0	35539	0	0	0	22924	21510	142920	27543	995993	40831	108441	0	0	8183	664633	0	0
2024-06-01 10:47:32			0	35564	0	0	0	22924	21500	142884	27383	996083	40820	108441	0	0	8184	663556	0	0
2024-06-01 10:48:32			0	35542	0	0	0	22935	21510	142880	27194	996118	40853	108445	0	0	8183	664499	0	0
2024-06-01 10:49:32			0	35547	0	0	0	22922	21510	142816	27383	996100	40831	108440	0	0	8183	664276	0	0
2024-06-01 10:50:32			0	35532	0	0	0	22911	21520	142960	27230	996117	40833	108436	0	0	8183	664908	0	0
2024-06-01 10:51:32			0	35520	0	0	0	22929	21530	142992	27294	996099	40833	108443	0	0	8182	665406	0	0
2024-06-01 10:52:32			0	35537	0	0	0	22927	21520	142960	27287	996135	40832	108442	0	0	8183	664685	0	0
2024-06-01 10:53:32			0	35528	0	0	0	22937	21530	142900	27041	996160	40843	108446	0	0	8182	665049	0	0
2024-06-01 10:54:32			0	35527	0	0	0	22919	21530	142896	27284	996125	40833	108439	0	0	8182	665094	0	0
2024-06-01 10:55:32			0	35524	0	0	0	22916	21520	142912	27071	996117	40833	108438	0	0	8182	665265	0	0
2024-06-01 10:56:32			0	35510	0	0	0	22919	21530	142920	27294	996125	40833	108439	0	0	8181	665852	0	0
2024-06-01 10:57:32			0	35526	0	0	0	22922	21530	142908	27504	996072	40833	108440	0	0	8182	665138	0	0
2024-06-01 10:58:32			0	35525	0	0	0	22932	21520	142860	27036	996135	40832	108444	0	0	8182	665220	0	0
2024-06-01 10:59:32			0	35518	0	0	0	22937	21540	142884	27196	996142	40833	108446	0	0	8181	665458	0	0
2024-06-01 11:00:32			0	35518	0	0	0	22968	21530	142876	27209	996134	40833	108458	0	0	8181	665495	0	0
2024-06-01 11:01:32			0	35541	0	0	0	22958	21530	142884	27360	996267	40843	108454	0	0	8182	664470	0	0
2024-06-01 11:02:32			0	35544	0	0	0	22979	21530	142792	27384	996187	40833	108462	0	0	8182	664336	0	0
2024-06-01 11:03:32			0	35576	0	0	0	22961	21540	142764	27535	996195	40833	108455	0	0	8184	662874	0	0
2024-06-01 11:04:32			0	35573	0	0	0	22942	21550	142744	27119	996212	40835	108448	0	0	8184	662971	0	0
2024-06-01 11:05:32			0	35545	0	0	0	22935	21550	142784	27235	996221	40846	108445	0	0	8183	664218	0	0
2024-06-01 11:06:32			0	35554	0	0	0	22948	21540	142808	27505	996204	40834	108450	0	0	8183	663853	0	0
2024-06-01 11:07:32			0	35551	0	0	0	22961	21550	142868	27284	996194	40846	108455	0	0	8183	663950	0	0
2024-06-01 11:08:32			0	35549	0	0	0	22974	21550	142764	27455	996239	40835	108460	0	0	8183	664039	0	0
2024-06-01 11:09:32			0	35543	0	0	0	22961	21560	142736	27564	996202	40846	108455	0	0	8182	664270	0	0
2024-06-01 11:10:32			0	35558	0	0	0	22971	21560	142864	27234	996256	40835	108459	0	0	8183	663602	0	0
2024-06-01 11:11:32			0	35542	0	0	0	22981	21560	142840	27447	996291	40858	108463	0	0	8182	664314	0	0
2024-06-01 11:12:32			0	35538	0	0	0	23067	21560	142828	27185	996317	40858	108496	0	0	8180	664492	0	0
2024-06-01 11:13:32			0	35552	0	0	0	23033	21570	142820	27060	996414	40859	108483	0	0	8182	663832	0	0
2024-06-01 11:14:32			0	35576	0	0	0	22992	21580	142708	27098	996449	40848	108467	0	0	8184	662727	0	0
2024-06-01 11:15:32			0	35606	0	0	0	23020	21580	142644	27377	996458	40837	108478	0	0	8185	661393	0	0
2024-06-01 11:16:32			0	35605	0	0	0	23033	21590	142596	27066	996386	40838	108483	0	0	8185	661401	0	0
2024-06-01 11:17:32			0	35623	0	0	0	23036	21600	142512	27121	996518	40851	108484	0	0	8186	660565	0	0
2024-06-01 11:18:32			0	35632	0	0	0	23031	21600	142456	27386	996536	40838	108482	0	0	8186	660166	0	0
2024-06-01 11:19:32			0	35636	0	0	0	23049	21600	142608	27393	996536	40861	108489	0	0	8186	659988	0	0
2024-06-01 11:20:32			0	35644	0	0	0	23015	21610	142436	26989	996508	40852	108476	0	0	8187	659597	0	0
2024-06-01 11:21:32			0	35640	0	0	0	23020	21610	142472	27327	996500	40840	108478	0	0	8187	659774	0	0
2024-06-01 11:22:32			0	35596	0	0	0	23025	21610	142568	27450	996482	40864	108480	0	0	8184	661727	0	0
2024-06-01 11:23:32			0	35595	0	0	0	23015	21620	142596	27322	996525	40864	108476	0	0	8185	661735	0	0
2024-06-01 11:24:32			0	35573	0	0	0	23002	21610	142600	27287	996508	40841	108471	0	0	8184	662749	0	0
2024-06-01 11:25:32			0	35560	0	0	0	23015	21610	142648	27319	996482	40852	108476	0	0	8183	663328	0	0
2024-06-01 11:26:32			0	35563	0	0	0	22999	21610	142644	27237	996455	40831	108470	0	0	8183	663194	0	0
2024-06-01 11:27:32			0	35565	0	0	0	23028	21610	142900	27185	996500	40851	108481	0	0	8183	663105	0	0
2024-06-01 11:28:32			0	35526	0	0	0	23033	21610	142804	27364	996562	40852	108483	0	0	8181	664842	0	0
2024-06-01 11:29:32			0	35544	0	0	0	23020	21620	142788	26883	996517	40841	108478	0	0	8182	664003	0	0
2024-06-01 11:30:32			0	35532	0	0	0	23025	21620	142868	27374	996597	40852	108480	0	0	8181	664538	0	0
2024-06-01 11:31:32			0	35541	0	0	0	23028	21630	142808	27474	996534	40853	108481	0	0	8182	664100	0	0
2024-06-01 11:32:32			0	35532	0	0	0	23007	21610	142840	27374	996562	40841	108473	0	0	8181	664575	0	0
2024-06-01 11:33:32			0	35530	0	0	0	23031	21630	142828	27511	996560	40842	108482	0	0	8181	664590	0	0
2024-06-01 11:34:32			0	35526	0	0	0	23028	21620	142940	27256	996543	40852	108481	0	0	8181	664805	0	0
2024-06-01 11:35:32			0	35535	0	0	0	23041	21620	142912	27223	996605	40852	108486	0	0	8181	664404	0	0
2024-06-01 11:36:32			0	35521	0	0	0	23012	21620	142920	27341	996623	40852	108475	0	0	8181	665028	0	0
2024-06-01 11:37:32			0	35533	0	0	0	23038	21630	143004	27156	996542	40843	108485	0	0	8181	664456	0	0
2024-06-01 11:38:32			0	35527	0	0	0	23072	21630	143036	27595	996614	40842	108498	0	0	8180	664724	0	0
2024-06-01 11:39:32			0	35532	0	0	0	23101	21640	143036	27135	996684	40854	108509	0	0	8180	664464	0	0
2024-06-01 11:40:32			0	35532	0	0	0	23124	21630	142988	27597	996755	40854	108518	0	0	8179	664501	0	0
2024-06-01 11:41:32			0	35529	0	0	0	23098	21640	142940	27157	996825	40865	108508	0	0	8180	664598	0	0
2024-06-01 11:42:32			0	35546	0	0	0	23080	21650	142848	27272	996682	40856	108501	0	0	8181	663803	0	0
2024-06-01 11:43:32			0	35532	0	0	0	23072	21650	142816	27575	996789	40845	108498	0	0	8180	664427	0	0
2024-06-01 11:44:32			0	35564	0	0	0	23088	21660	142852	27502	996752	40856	108504	0	0	8182	662966	0	0
2024-06-01 11:45:32			0	35562	0	0	0	23070	21670	142816	27303	996743	40858	108497	0	0	8182	663018	0	0
2024-06-01 11:46:32			0	35550	0	0	0	23088	21670	142872	27672	996823	40846	108504	0	0	8181	663552	0	0
2024-06-01 11:47:32			0	35558	0	0	0	23088	21670	142908	27284	996849	40869	108504	0	0	8182	663196	0	0
2024-06-01 11:48:32			0	35560	0	0	0	23103	21670	142788	27498	996796	40869	108510	0	0	8181	663106	0	0
2024-06-01 11:49:32			0	35562	0	0	0	23116	21670	142868	27367	996814	40845	108515	0	0	8181	663018	0	0
2024-06-01 11:50:32			0	35550	0	0	0	23116	21670	142844	27547	996876	40858	108515	0	0	8181	663552	0	0
2024-06-01 11:51:32			0	35566	0	0	0	23114	21690	142764	27561	996856	40859	108514	0	0	8182	662766	0	0
2024-06-01 11:52:32			0	35553	0	0	0	23148	21690	142764	27275	996910	40871	108527	0	0	8180	663344	0	0
2024-06-01 11:53:32			0	35583	0	0	0	23129	21690	142740	27578	996901	40859	108520	0	0	8182	662010	0	0
2024-06-01 11:54:32			0	35585	0	0	0	23127	21700	142752	27249	996945	40859	108519	0	0	8183	661884	0	0
2024-06-01 11:55:32			0	35586	0	0	0	23137	21710	142696	27445	996953	40882	108523	0	0	8182	661803	0	0
2024-06-01 11:56:32			0	35579	0	0	0	23137	21710	142688	27720	996953	40860	108523	0	0	8182	662114	0	0
2024-06-01 11:57:32			0	35570	0	0	0	23135	21700	142688	27580	996918	40859	108522	0	0	8182	662551	0	0
2024-06-01 11:58:32			0	35562	0	0	0	23145	21710	142792	27379	997042	40860	108526	0	0	8181	662870	0	0
2024-06-01 11:59:32			0	35574	0	0	0	23142	21720	142756	27441	997103	40883	108525	0	0	8182	662299	0	0
2024-06-01 12:00:32			0	35581	0	0	0	23132	21730	142736	27332	997040	40862	108521	0	0	8182	661952	0	0
2024-06-01 12:01:32			0	35577	0	0	0	23137	21720	142628	27291	997032	40873	108523	0	0	8182	662166	0	0
2024-06-01 12:02:32			0	35569	0	0	0	23161	21730	142704	27024	997067	40862	108532	0	0	8181	662485	0	0
2024-06-01 12:03:32			0	35616	0	0	0	23150	21730	142588	27301	997049	40884	108528	0	0	8184	660398	0	0
2024-06-01 12:04:32			0	35615	0	0	0	23176	21730	142684	27241	997075	40862	108538	0	0	8183	660442	0	0
2024-06-01 12:05:32			0	35606	0	0	0	23184	21740	142672	27135	997084	40863	108541	0	0	8183	660805	0	0
2024-06-01 12:06:32			0	35620	0	0	0	23184	21750	142536	27171	997181	40885	108541	0	0	8184	660147	0	0
2024-06-01 12:07:32			0	35628	0	0	0	23179	21750	142500	27353	997136	40865	108539	0	0	8184	659792	0	0
2024-06-01 12:08:32			0	35610	0	0	0	23194	21750	142536	27282	997216	40875	108545	0	0	8183	660590	0	0
2024-06-01 12:09:32			0	35609	0	0	0	23194	21750	142636	26991	997162	40875	108545	0	0	8183	660635	0	0
2024-06-01 12:10:32			0	35589	0	0	0	23215	21760	142624	27220	997197	40886	108553	0	0	8182	661486	0	0
2024-06-01 12:11:32			0	35580	0	0	0	23218	21760	142628	27201	997206	40876	108554	0	0	8181	661885	0	0
2024-06-01 12:12:32			0	35603	0	0	0	23225	21770	142704	27057	997329	40877	108557	0	0	8182	660827	0	0
2024-06-01 12:13:32			0	35600	0	0	0	23215	21770	142632	27481	997329	40877	108553	0	0	8182	660961	0	0
2024-06-01 12:14:32			0	35597	0	0	0	23251	21780	142616	27246	997373	40878	108567	0	0	8181	661057	0	0
2024-06-01 12:15:32			0	35605	0	0	0	23246	21790	142616	27632	997416	40901	108565	0	0	8182	660665	0	0
2024-06-01 12:16:32			0	35598	0	0	0	23241	21800	142564	27293	997540	40880	108563	0	0	8182	660939	0	0
2024-06-01 12:17:32			0	35597	0	0	0	23251	21810	142568	27499	997468	40869	108567	0	0	8182	660946	0	0
2024-06-01 12:18:32			0	35605	0	0	0	23236	21810	142580	27428	997468	40880	108561	0	0	8182	660592	0	0
2024-06-01 12:19:32			0	35607	0	0	0	23231	21820	142536	27658	997485	40871	108559	0	0	8182	660466	0	0
2024-06-01 12:20:32			0	35608	0	0	0	23220	21820	142492	27324	997467	40881	108555	0	0	8183	660422	0	0
2024-06-01 12:21:32			0	35604	0	0	0	23220	21810	142536	27230	997450	40880	108555	0	0	8182	660636	0	0
2024-06-01 12:22:32			0	35600	0	0	0	23218	21810	142480	27405	997423	40870	108554	0	0	8182	660813	0	0
2024-06-01 12:23:32			0	35606	0	0	0	23205	21820	142520	27656	997387	40881	108549	0	0	8183	660510	0	0
2024-06-01 12:24:32			0	35609	0	0	0	23220	21820	142560	27421	997485	40871	108555	0	0	8183	660377	0	0
2024-06-01 12:25:32			0	35596	0	0	0	23231	21820	142584	27124	997494	40881	108559	0	0	8182	660954	0	0
2024-06-01 12:26:32			0	35582	0	0	0	23246	21820	142508	27303	997512	40871	108565	0	0	8181	661575	0	0
2024-06-01 12:27:32			0	35596	0	0	0	23236	21830	142608	27279	997555	40893	108561	0	0	8182	660917	0	0
2024-06-01 12:28:32			0	35601	0	0	0	23280	21830	142568	27355	997511	40882	108578	0	0	8181	660695	0	0
2024-06-01 12:29:32			0	35617	0	0	0	23293	21840	142528	27164	997572	40883	108583	0	0	8182	659949	0	0
2024-06-01 12:30:32			0	35622	0	0	0	23264	21850	142512	27486	997616	40895	108572	0	0	8183	659691	0	0
2024-06-01 12:31:32			0	35639	0	0	0	23288	21850	142512	27332	997678	40884	108581	0	0	8183	658938	0	0
2024-06-01 12:32:32			0	35631	0	0	0	23259	21850	142460	27315	997545	40895	108570	0	0	8183	659292	0	0
2024-06-01 12:33:32			0	35661	0	0	0	23109	21850	142248	27194	997491	40862	108512	0	0	8188	657964	0	0
2024-06-01 12:34:32			0	35680	0	0	0	23124	21830	142112	27410	997298	40861	108518	0	0	8188	657197	0	0
2024-06-01 12:35:32			0	35690	0	0	0	23251	21830	142300	27229	997422	40861	108567	0	0	8187	656755	0	0
2024-06-01 12:36:32			0	35729	0	0	0	23290	21830	142128	27398	997511	40882	108582	0	0	8188	655034	0	0
2024-06-01 12:37:32			0	35784	0	0	0	23186	21840	141852	27093	997493	40883	108542	0	0	8193	652576	0	0
2024-06-01 12:38:32			0	35766	0	0	0	23181	21840	141824	27336	997466	40862	108540	0	0	8192	653368	0	0
2024-06-01 12:39:32			0	35771	0	0	0	23210	21830	141932	27313	997431	40882	108551	0	0	8192	653185	0	0
2024-06-01 12:40:32			0	35772	0	0	0	23220	21830	141868	27274	997458	40872	108555	0	0	8192	653141	0	0
2024-06-01 12:41:32			0	35750	0	0	0	23262	21830	141912	27485	997484	40872	108571	0	0	8190	654109	0	0
2024-06-01 12:42:32			0	35756	0	0	0	23275	21850	141956	27466	997536	40884	108576	0	0	8190	653772	0	0
2024-06-01 12:43:32			0	35723	0	0	0	23283	21830	141948	27242	997564	40861	108579	0	0	8188	655299	0	0
2024-06-01 12:44:32			0	35726	0	0	0	23327	21840	142128	27154	997661	40906	108596	0	0	8187	655130	0	0
2024-06-01 12:45:32			0	35742	0	0	0	23306	21860	142028	27218	997739	40885	108588	0	0	8189	654352	0	0
2024-06-01 12:46:32			0	35753	0	0	0	23324	21860	142032	27135	997739	40896	108595	0	0	8189	653868	0	0
2024-06-01 12:47:32			0	35756	0	0	0	23340	21880	141988	27353	997800	40898	108601	0	0	8189	653663	0	0
2024-06-01 12:48:32			0	35764	0	0	0	23366	21880	141996	27267	997826	40909	108611	0	0	8189	653311	0	0
2024-06-01 12:49:32			0	35774	0	0	0	23392	21890	141860	27352	997923	40899	108621	0	0	8189	652834	0	0
2024-06-01 12:50:32			0	35811	0	0	0	23532	21910	141844	27310	998063	40901	108675	0	0	8189	651136	0	0
2024-06-01 12:51:32			0	35835	0	0	0	23553	21930	141632	27227	998257	40914	108683	0	0	8190	650011	0	0
2024-06-01 12:52:32			0	35939	0	0	0	23545	21950	141273	27365	998353	40927	108680	0	0	8196	645391	0	0
2024-06-01 12:53:32			0	36015	0	0	0	23342	21970	140865	27105	998333	40907	108602	0	0	8203	642011	0	0
2024-06-01 12:54:32			0	36030	0	0	0	23145	21960	140753	27350	998077	40895	108526	0	0	8207	641395	0	0
2024-06-01 12:55:32			0	35959	0	0	0	23161	21950	141069	27097	997820	40861	108532	0	0	8203	644519	0	0
2024-06-01 12:56:32			0	35878	0	0	0	23353	21920	141353	27078	997849	40891	108606	0	0	8195	648164	0	0
2024-06-01 12:57:32			0	35852	0	0	0	23381	21920	141488	27145	997929	40891	108617	0	0	8194	649302	0	0
2024-06-01 12:58:32			0	35869	0	0	0	23254	21930	141425	27379	997999	40903	108568	0	0	8197	648521	0	0
2024-06-01 12:59:32			0	35848	0	0	0	23197	21930	141476	27362	997919	40881	108546	0	0	8197	649441	0	0
2024-06-01 13:00:32			0	35843	0	0	0	23223	21920	141508	27289	997708	40879	108556	0	0	8196	649696	0	0
2024-06-01 13:01:32			0	35782	0	0	0	23257	21890	141692	27057	997657	40866	108569	0	0	8192	652482	0	0
2024-06-01 13:02:32			0	35763	0	0	0	23275	21890	141904	27424	997772	40888	108576	0	0	8190	653318	0	0
2024-06-01 13:03:32			0	35703	0	0	0	23319	21890	142168	27053	997772	40888	108593	0	0	8186	655962	0	0
2024-06-01 13:04:32			0	35693	0	0	0	23361	21890	142232	27431	997817	40899	108609	0	0	8185	656403	0	0
2024-06-01 13:05:32			0	35662	0	0	0	23342	21900	142196	27121	997860	40888	108602	0	0	8184	657737	0	0
2024-06-01 13:06:32			0	35674	0	0	0	23340	21910	142260	27192	997904	40878	108601	0	0	8185	657170	0	0
2024-06-01 13:07:32			0	35661	0	0	0	23358	21920	142416	27398	997974	40890	108608	0	0	8184	657708	0	0
2024-06-01 13:08:32			0	35656	0	0	0	23337	21910	142396	27346	997939	40879	108600	0	0	8184	657965	0	0
2024-06-01 13:09:32			0	35659	0	0	0	23337	21910	142440	27093	997992	40890	108600	0	0	8184	657833	0	0
2024-06-01 13:10:32			0	35639	0	0	0	23342	21920	142472	26977	997947	40901	108602	0	0	8183	658681	0	0
2024-06-01 13:11:32			0	35635	0	0	0	23373	21930	142376	27107	997911	40903	108614	0	0	8182	658821	0	0
2024-06-01 13:12:32			0	35645	0	0	0	23384	21930	142424	27306	998052	40892	108618	0	0	8182	658379	0	0
2024-06-01 13:13:32			0	35651	0	0	0	23397	21940	142284	27033	998034	40903	108623	0	0	8183	658076	0	0
2024-06-01 13:14:32			0	35673	0	0	0	23412	21940	142216	27445	998202	40915	108629	0	0	8184	657104	0	0
2024-06-01 13:15:32			0	35700	0	0	0	23407	21950	142232	27440	998166	40882	108627	0	0	8185	655875	0	0
2024-06-01 13:16:32			0	35733	0	0	0	23407	21950	142120	27384	998193	40905	108627	0	0	8187	654420	0	0
2024-06-01 13:17:32			0	35728	0	0	0	23381	21970	142068	27232	998165	40917	108617	0	0	8187	654568	0	0
2024-06-01 13:18:32			0	35727	0	0	0	23350	21960	141964	27208	998157	40906	108605	0	0	8188	654648	0	0
2024-06-01 13:19:32			0	35715	0	0	0	23363	21960	142076	27367	998157	40883	108610	0	0	8187	655177	0	0
2024-06-01 13:20:32			0	35707	0	0	0	23376	21960	142164	27019	998148	40882	108615	0	0	8186	655530	0	0
2024-06-01 13:21:32			0	35682	0	0	0	23381	21960	142128	27227	998122	40894	108617	0	0	8185	656633	0	0
2024-06-01 13:22:32			0	35692	0	0	0	23389	21970	142264	27294	998192	40896	108620	0	0	8185	656155	0	0
2024-06-01 13:23:32			0	35689	0	0	0	23379	21960	142176	27355	998183	40906	108616	0	0	8185	656324	0	0
2024-06-01 13:24:32			0	35688	0	0	0	23397	21960	142200	27201	998130	40895	108623	0	0	8185	656368	0	0
2024-06-01 13:25:32			0	35673	0	0	0	23423	21970	142276	27206	998218	40907	108633	0	0	8183	656994	0	0
2024-06-01 13:26:32			0	35682	0	0	0	23425	21970	142268	27327	998253	40907	108634	0	0	8184	656597	0	0
2024-06-01 13:27:32			0	35698	0	0	0	23412	21980	142232	27026	998289	40907	108629	0	0	8185	655854	0	0
2024-06-01 13:28:32			0	35700	0	0	0	23444	21990	142216	27336	998394	40920	108641	0	0	8185	655729	0	0
2024-06-01 13:29:32			0	35715	0	0	0	23428	22000	142204	27580	998322	40909	108635	0	0	8186	655031	0	0
2024-06-01 13:30:32			0	35712	0	0	0	23449	22010	142152	27123	998411	40887	108643	0	0	8185	655127	0	0
2024-06-01 13:31:32			0	35709	0	0	0	23457	22010	142140	27346	998411	40909	108646	0	0	8185	655259	0	0
2024-06-01 13:32:32			0	35721	0	0	0	23485	22020	142200	27445	998489	40900	108657	0	0	8185	654694	0	0
2024-06-01 13:33:32			0	35704	0	0	0	23537	22020	142248	27092	998569	40900	108677	0	0	8183	655443	0	0
2024-06-01 13:34:32			0	35720	0	0	0	23561	22030	142124	27460	998639	40912	108686	0	0	8184	654701	0	0
2024-06-01 13:35:32			0	35761	0	0	0	23592	22050	142068	27150	998745	40923	108698	0	0	8186	652824	0	0
2024-06-01 13:36:32			0	35778	0	0	0	23553	22070	141824	27055	998779	40916	108683	0	0	8187	652004	0	0
2024-06-01 13:37:32			0	35814	0	0	0	23454	22070	141700	27229	998681	40916	108645	0	0	8191	650424	0	0
2024-06-01 13:38:32			0	35834	0	0	0	23459	22080	141592	27229	998671	40917	108647	0	0	8192	649511	0	0
2024-06-01 13:39:32			0	35844	0	0	0	23501	22070	141572	27109	998627	40905	108663	0	0	8192	649109	0	0
2024-06-01 13:40:32			0	35821	0	0	0	23485	22080	141660	27235	998689	40905	108657	0	0	8191	650081	0	0
2024-06-01 13:41:32			0	35816	0	0	0	23545	22080	141748	27447	998689	40916	108680	0	0	8190	650300	0	0
2024-06-01 13:42:32			0	35790	0	0	0	23555	22090	141712	27230	998795	40917	108684	0	0	8188	651404	0	0
2024-06-01 13:43:32			0	35830	0	0	0	23563	22110	141708	27312	998873	40918	108687	0	0	8190	649578	0	0
2024-06-01 13:44:32			0	35792	0	0	0	23519	22110	141676	27105	998882	40918	108670	0	0	8189	651244	0	0
2024-06-01 13:45:32			0	35823	0	0	0	23501	22120	141668	27265	998864	40942	108663	0	0	8191	649848	0	0
2024-06-01 13:46:32			0	35815	0	0	0	23454	22120	141584	27090	998810	40909	108645	0	0	8191	650199	0	0
2024-06-01 13:47:32			0	35778	0	0	0	23496	22120	141772	27222	998837	40909	108661	0	0	8189	651822	0	0
2024-06-01 13:48:32			0	35768	0	0	0	23477	22110	141784	27138	998775	40918	108654	0	0	8188	652298	0	0
2024-06-01 13:49:32			0	35765	0	0	0	23516	22110	141800	27419	998802	40918	108669	0	0	8187	652429	0	0
2024-06-01 13:50:32			0	35738	0	0	0	23542	22110	141828	27171	998847	40918	108679	0	0	8186	653617	0	0
2024-06-01 13:51:32			0	35723	0	0	0	23566	22120	141976	27308	998890	40919	108688	0	0	8184	654240	0	0
2024-06-01 13:52:32			0	35727	0	0	0	23599	22120	141948	27471	998925	40931	108701	0	0	8184	654064	0	0
2024-06-01 13:53:32			0	35711	0	0	0	23615	22140	141996	27260	998924	40932	108707	0	0	8183	654696	0	0
2024-06-01 13:54:32			0	35734	0	0	0	23620	22150	141992	27216	999047	40923	108709	0	0	8184	653647	0	0
2024-06-01 13:55:32			0	35725	0	0	0	23641	22160	141920	27258	999179	40946	108717	0	0	8183	654006	0	0
2024-06-01 13:56:32			0	35755	0	0	0	23654	22170	141948	27114	999215	40925	108722	0	0	8185	652650	0	0
2024-06-01 13:57:32			0	35758	0	0	0	23753	22180	141928	27102	999320	40948	108760	0	0	8183	652482	0	0
2024-06-01 13:58:32			0	35779	0	0	0	23776	22200	141824	27303	999452	40950	108769	0	0	8184	651487	0	0
2024-06-01 13:59:32			0	35831	0	0	0	23758	22220	141500	26955	999574	40940	108762	0	0	8187	649135	0	0
2024-06-01 14:00:32			0	35901	0	0	0	23750	22240	141297	27466	999635	40953	108759	0	0	8191	646004	0	0
2024-06-01 14:01:32			0	35955	0	0	0	23768	22250	141053	27111	999732	40965	108766	0	0	8194	643615	0	0
2024-06-01 14:02:32			0	35963	0	0	0	23779	22270	140881	27083	999757	40956	108770	0	0	8194	643196	0	0
2024-06-01 14:03:32			0	35985	0	0	0	23802	22280	140909	27405	999782	40968	108779	0	0	8195	642203	0	0
2024-06-01 14:04:32			0	36012	0	0	0	23805	22300	140773	27317	999781	40948	108780	0	0	8197	640960	0	0
2024-06-01 14:05:32			0	36062	0	0	0	23823	22310	140553	27175	999958	40959	108787	0	0	8199	638758	0	0
2024-06-01 14:06:32			0	36081	0	0	0	23838	22320	140521	27357	999975	40960	108793	0	0	8200	637901	0	0
2024-06-01 14:07:32			0	36107	0	0	0	23862	22320	140473	27265	999975	40960	108802	0	0	8201	636777	0	0
2024-06-01 14:08:32			0	36139	0	0	0	23859	22350	140277	26967	1000079	40963	108801	0	0	8203	635290	0	0
2024-06-01 14:09:32			0	36162	0	0	0	23857	22350	140137	27175	1000159	40963	108800	0	0	8204	634300	0	0
2024-06-01 14:10:32			0	36171	0	0	0	23854	22380	140113	27182	1000121	40976	108799	0	0	8205	633806	0	0
2024-06-01 14:11:32			0	36180	0	0	0	23857	22380	140069	27431	1000148	40976	108800	0	0	8205	633419	0	0
2024-06-01 14:12:32			0	36221	0	0	0	23870	22380	139933	27029	1000103	40966	108805	0	0	8207	631657	0	0
2024-06-01 14:13:32			0	36205	0	0	0	23870	22390	139905	27156	1000245	40956	108805	0	0	8206	632309	0	0
2024-06-01 14:14:32			0	36227	0	0	0	23901	22410	139889	27036	1000332	40958	108817	0	0	8207	631294	0	0
2024-06-01 14:15:32			0	36246	0	0	0	23898	22410	139825	27336	1000314	40958	108816	0	0	8208	630479	0	0
2024-06-01 14:16:32			0	36246	0	0	0	23890	22430	139717	27190	1000374	40959	108813	0	0	8208	630409	0	0
2024-06-01 14:17:32			0	36256	0	0	0	23911	22450	139741	27033	1000427	40961	108821	0	0	8209	629909	0	0
2024-06-01 14:18:32			0	36287	0	0	0	23893	22460	139517	27166	1000497	40962	108814	0	0	8210	628547	0	0
2024-06-01 14:19:32			0	36305	0	0	0	23851	22460	139501	27334	1000426	40962	108798	0	0	8212	627778	0	0
2024-06-01 14:20:32			0	36300	0	0	0	23885	22470	139517	27144	1000461	40974	108811	0	0	8211	627956	0	0
2024-06-01 14:21:32			0	36302	0	0	0	23909	22470	139573	27022	1000434	40962	108820	0	0	8211	627871	0	0
2024-06-01 14:22:32			0	36293	0	0	0	23932	22470	139585	27072	1000567	40962	108829	0	0	8210	628256	0	0
2024-06-01 14:23:32			0	36295	0	0	0	23922	22470	139497	26970	1000602	40974	108825	0	0	8210	628170	0	0
2024-06-01 14:24:32			0	36297	0	0	0	23922	22480	139537	27255	1000593	40976	108825	0	0	8211	628049	0	0
2024-06-01 14:25:32			0	36314	0	0	0	23909	22490	139397	27358	1000530	40976	108820	0	0	8212	627288	0	0
2024-06-01 14:26:32			0	36338	0	0	0	23916	22500	139365	27213	1000645	40965	108823	0	0	8213	626228	0	0
2024-06-01 14:27:32			0	36372	0	0	0	23888	22510	139249	27303	1000608	40967	108812	0	0	8215	624744	0	0
2024-06-01 14:28:32			0	36371	0	0	0	23838	22490	139221	26991	1000503	40955	108793	0	0	8216	624857	0	0
2024-06-01 14:29:32			0	36353	0	0	0	23802	22490	139245	27369	1000415	40964	108779	0	0	8216	625624	0	0
2024-06-01 14:30:32			0	36325	0	0	0	23703	22470	139309	27135	1000309	40952	108741	0	0	8216	626888	0	0
2024-06-01 14:31:32			0	36295	0	0	0	23758	22460	139497	27464	1000212	40941	108762	0	0	8213	628205	0	0
2024-06-01 14:32:32			0	36216	0	0	0	23745	22450	139665	27095	1000169	40939	108757	0	0	8209	631625	0	0
2024-06-01 14:33:32			0	36206	0	0	0	23729	22450	139809	27234	1000134	40939	108751	0	0	8209	632054	0	0
2024-06-01 14:34:32			0	36176	0	0	0	23672	22430	139901	27076	1000055	40949	108729	0	0	8208	633414	0	0
2024-06-01 14:35:32			0	36142	0	0	0	23662	22410	140037	27152	999994	40936	108725	0	0	8206	634948	0	0
2024-06-01 14:36:32			0	36102	0	0	0	23667	22400	140173	27490	999862	40935	108727	0	0	8204	636709	0	0
2024-06-01 14:37:32			0	36085	0	0	0	23628	22370	140281	27258	999767	40921	108712	0	0	8204	637550	0	0
2024-06-01 14:38:32			0	36044	0	0	0	23623	22360	140529	27107	999803	40920	108710	0	0	8202	639359	0	0
2024-06-01 14:39:32			0	35976	0	0	0	23664	22350	140761	27433	999653	40942	108726	0	0	8197	642343	0	0
2024-06-01 14:40:32			0	35962	0	0	0	23703	22350	140869	27166	999759	40942	108741	0	0	8196	642952	0	0
2024-06-01 14:41:32			0	35944	0	0	0	23706	22340	140885	27173	999814	40928	108742	0	0	8195	643770	0	0
2024-06-01 14:42:32			0	35941	0	0	0	23703	22350	140949	27377	999831	40929	108741	0	0	8195	643865	0	0
2024-06-01 14:43:32			0	35942	0	0	0	23701	22340	140993	26922	999822	40952	108740	0	0	8195	643857	0	0
2024-06-01 14:44:32			0	35942	0	0	0	23709	22340	140885	27033	999796	40941	108743	0	0	8195	643857	0	0
2024-06-01 14:45:32			0	35927	0	0	0	23833	22350	141073	26934	999911	40962	108791	0	0	8192	644475	0	0
2024-06-01 14:46:32			0	35917	0	0	0	23792	22360	140985	27192	1000088	40963	108775	0	0	8192	644874	0	0
2024-06-01 14:47:32			0	35965	0	0	0	23714	22370	140781	27447	1000033	40955	108745	0	0	8196	642750	0	0
2024-06-01 14:48:32			0	35997	0	0	0	23755	22360	140753	27215	999981	40942	108761	0	0	8197	641396	0	0
2024-06-01 14:49:32			0	35954	0	0	0	23823	22370	140813	27336	1000105	40954	108787	0	0	8194	643228	0	0
2024-06-01 14:50:32			0	35961	0	0	0	23703	22370	140861	27379	1000025	40954	108741	0	0	8196	642923	0	0
2024-06-01 14:51:32			0	35980	0	0	0	23550	22360	140729	27334	999795	40930	108682	0	0	8200	642134	0	0
2024-06-01 14:52:32			0	35938	0	0	0	23633	22340	140881	27227	999548	40917	108714	0	0	8196	644032	0	0
2024-06-01 14:53:32			0	35895	0	0	0	23618	22320	141069	27438	999567	40916	108708	0	0	8194	645977	0	0
2024-06-01 14:54:32			0	35873	0	0	0	23620	22300	141081	27428	999559	40936	108709	0	0	8192	647009	0	0
2024-06-01 14:55:32			0	35873	0	0	0	23636	22300	141141	27478	999480	40936	108715	0	0	8192	647009	0	0
2024-06-01 14:56:32			0	35857	0	0	0	23607	22290	141232	27227	999444	40924	108704	0	0	8192	647745	0	0
2024-06-01 14:57:32			0	35848	0	0	0	23599	22280	141240	27300	999454	40923	108701	0	0	8191	648174	0	0
2024-06-01 14:58:32			0	35862	0	0	0	23605	22270	141397	27327	999437	40922	108703	0	0	8192	647598	0	0
2024-06-01 14:59:32			0	35845	0	0	0	23545	22260	141344	27019	999402	40933	108680	0	0	8192	648378	0	0
2024-06-01 15:00:32			0	35833	0	0	0	23620	22260	141364	27282	999367	40921	108709	0	0	8190	648903	0	0
2024-06-01 15:01:32			0	35818	0	0	0	23633	22250	141372	27338	999430	40920	108714	0	0	8189	649596	0	0
2024-06-01 15:02:32			0	35838	0	0	0	23628	22250	141488	27149	999438	40944	108712	0	0	8190	648720	0	0
2024-06-01 15:03:32			0	35831	0	0	0	23722	22250	141472	27253	999403	40954	108748	0	0	8188	649026	0	0
2024-06-01 15:04:32			0	35795	0	0	0	23696	22260	141540	27144	999615	40956	108738	0	0	8187	650567	0	0
2024-06-01 15:05:32			0	35826	0	0	0	23716	22270	141516	27466	999606	40934	108746	0	0	8188	649173	0	0
2024-06-01 15:06:32			0	35803	0	0	0	23766	22280	141524	27379	999667	40957	108765	0	0	8186	650144	0	0
2024-06-01 15:07:32			0	35843	0	0	0	23786	22300	141404	27251	999719	40969	108773	0	0	8188	648321	0	0
2024-06-01 15:08:32			0	35849	0	0	0	23836	22300	141404	27419	999834	40959	108792	0	0	8187	648058	0	0
2024-06-01 15:09:32			0	35878	0	0	0	23885	22320	141281	27265	999948	40960	108811	0	0	8188	646719	0	0
2024-06-01 15:10:32			0	35886	0	0	0	23883	22340	141177	27320	1000160	40973	108810	0	0	8189	646297	0	0
2024-06-01 15:11:32			0	35928	0	0	0	23872	22360	140945	27595	1000176	40975	108806	0	0	8191	644395	0	0
2024-06-01 15:12:32			0	35962	0	0	0	23818	22370	140861	27246	1000220	40965	108785	0	0	8194	642880	0	0
2024-06-01 15:13:32			0	35991	0	0	0	23802	22380	140717	27580	1000236	40966	108779	0	0	8196	641584	0	0
2024-06-01 15:14:32			0	35987	0	0	0	23818	22400	140729	27253	1000209	40957	108785	0	0	8196	641686	0	0
2024-06-01 15:15:32			0	35974	0	0	0	23781	22400	140761	27367	1000209	40946	108771	0	0	8195	642251	0	0
2024-06-01 15:16:32			0	35965	0	0	0	23789	22400	140833	27428	1000217	40957	108774	0	0	8195	642642	0	0
2024-06-01 15:17:32			0	35992	0	0	0	23857	22410	140785	27296	1000314	40958	108800	0	0	8195	641434	0	0
2024-06-01 15:18:32			0	35968	0	0	0	23794	22410	140777	27358	1000279	40947	108776	0	0	8195	642476	0	0
2024-06-01 15:19:32			0	35982	0	0	0	23883	22420	140689	27367	1000269	40958	108810	0	0	8194	641832	0	0
2024-06-01 15:20:32			0	35993	0	0	0	23823	22430	140749	27272	1000374	40959	108787	0	0	8196	641318	0	0
2024-06-01 15:21:32			0	36011	0	0	0	23929	22450	140617	27426	1000400	40961	108828	0	0	8195	640466	0	0
2024-06-01 15:22:32			0	36013	0	0	0	23976	22460	140701	27229	1000577	40984	108846	0	0	8195	640344	0	0
2024-06-01 15:23:32			0	36031	0	0	0	23976	22480	140585	27402	1000717	40963	108846	0	0	8196	639493	0	0
2024-06-01 15:24:32			0	36095	0	0	0	23880	22490	140361	27367	1000734	40987	108809	0	0	8201	636690	0	0
2024-06-01 15:25:32			0	36117	0	0	0	23909	22500	140193	27277	1000645	40944	108820	0	0	8201	635706	0	0
2024-06-01 15:26:32			0	36126	0	0	0	23677	22490	140085	27303	1000503	40955	108731	0	0	8206	635354	0	0
2024-06-01 15:27:32			0	36130	0	0	0	23475	22480	139861	27433	1000113	40943	108653	0	0	8209	635217	0	0
2024-06-01 15:28:32			0	36115	0	0	0	23690	22430	140137	27282	999948	40916	108736	0	0	8205	636041	0	0
2024-06-01 15:29:32			0	36079	0	0	0	23667	22410	140337	27232	999941	40914	108727	0	0	8203	637666	0	0
2024-06-01 15:30:32			0	36067	0	0	0	23675	22390	140361	27518	999872	40934	108730	0	0	8202	638256	0	0
2024-06-01 15:31:32			0	36029	0	0	0	23579	22370	140537	27393	999793	40932	108693	0	0	8202	639972	0	0
2024-06-01 15:32:32			0	35992	0	0	0	23592	22360	140613	27549	999670	40931	108698	0	0	8199	641613	0	0
2024-06-01 15:33:32			0	35986	0	0	0	23589	22350	140665	27540	999671	40918	108697	0	0	8199	641909	0	0
2024-06-01 15:34:32			0	35928	0	0	0	23670	22340	140957	27483	999681	40928	108728	0	0	8195	644467	0	0
2024-06-01 15:35:32			0	35932	0	0	0	23745	22330	141089	27398	999779	40940	108757	0	0	8194	644329	0	0
2024-06-01 15:36:32			0	35933	0	0	0	23810	22340	141109	27440	1000000	40961	108782	0	0	8193	644249	0	0
2024-06-01 15:37:32			0	35922	0	0	0	23833	22360	141057	27307	1000114	40953	108791	0	0	8192	644656	0	0
2024-06-01 15:38:32			0	35972	0	0	0	23864	22380	140913	27471	1000236	40966	108803	0	0	8194	642409	0	0
2024-06-01 15:39:32			0	35978	0	0	0	23893	22380	140777	27234	1000290	40966	108814	0	0	8194	642149	0	0
2024-06-01 15:40:32			0	35998	0	0	0	23942	22410	140769	27319	1000385	40968	108833	0	0	8194	641173	0	0
2024-06-01 15:41:32			0	36016	0	0	0	23838	22430	140793	27523	1000508	40981	108793	0	0	8197	640321	0	0
2024-06-01 15:42:32			0	36054	0	0	0	23735	22450	140517	27255	1000347	40950	108753	0	0	8201	638604	0	0
2024-06-01 15:43:32			0	36067	0	0	0	23693	22440	140389	27460	1000303	40938	108737	0	0	8202	638078	0	0
2024-06-01 15:44:32			0	36046	0	0	0	23662	22440	140433	27410	1000170	40938	108725	0	0	8201	638986	0	0
2024-06-01 15:45:32			0	36041	0	0	0	23589	22420	140473	27531	1000056	40925	108697	0	0	8202	639274	0	0
2024-06-01 15:46:32			0	36037	0	0	0	23433	22390	140533	27422	999774	40912	108637	0	0	8205	639555	0	0
2024-06-01 15:47:32			0	36019	0	0	0	23384	22360	140425	27460	999555	40909	108618	0	0	8204	640442	0	0
2024-06-01 15:48:32			0	36022	0	0	0	23441	22340	140533	27187	999494	40896	108640	0	0	8204	640383	0	0
2024-06-01 15:49:32			0	36019	0	0	0	23490	22310	140533	27478	999496	40904	108659	0	0	8202	640620	0	0
2024-06-01 15:50:32			0	36020	0	0	0	23553	22300	140633	27300	999533	40915	108683	0	0	8201	640613	0	0
2024-06-01 15:51:32			0	35991	0	0	0	23680	22300	140769	27433	999754	40937	108732	0	0	8198	641871	0	0
2024-06-01 15:52:32			0	36004	0	0	0	23576	22320	140797	27653	999780	40916	108692	0	0	8200	641235	0	0
2024-06-01 15:53:32			0	36009	0	0	0	23566	22330	140709	27189	999744	40928	108688	0	0	8201	640983	0	0
2024-06-01 15:54:32			0	36031	0	0	0	23545	22320	140717	27315	999708	40928	108680	0	0	8202	640065	0	0
2024-06-01 15:55:32			0	36008	0	0	0	23579	22310	140769	27376	999638	40926	108693	0	0	8200	641098	0	0
2024-06-01 15:56:32			0	36002	0	0	0	23680	22320	140793	27699	999762	40928	108732	0	0	8198	641322	0	0
2024-06-01 15:57:32			0	35993	0	0	0	23672	22320	140921	27194	999806	40938	108729	0	0	8198	641713	0	0
2024-06-01 15:58:32			0	35992	0	0	0	23561	22320	140769	27448	999762	40939	108686	0	0	8200	641756	0	0
2024-06-01 15:59:32			0	36018	0	0	0	23623	22330	140633	27196	999797	40906	108710	0	0	8200	640592	0	0
2024-06-01 16:00:32			0	35993	0	0	0	23545	22320	140593	27403	999753	40927	108680	0	0	8200	641713	0	0
2024-06-01 16:01:32			0	36005	0	0	0	23574	22320	140689	27691	999842	40939	108691	0	0	8200	641192	0	0
2024-06-01 16:02:32			0	36039	0	0	0	23506	22330	140645	27208	999850	40928	108665	0	0	8203	639682	0	0
2024-06-01 16:03:32			0	36026	0	0	0	23566	22340	140665	27473	999849	40918	108688	0	0	8202	640210	0	0
2024-06-01 16:04:32			0	36006	0	0	0	23807	22340	140713	27507	999902	40929	108781	0	0	8196	641077	0	0
2024-06-01 16:05:32			0	36013	0	0	0	23755	22360	140777	27203	1000141	40942	108761	0	0	8198	640702	0	0
2024-06-01 16:06:32			0	36034	0	0	0	23828	22380	140637	27241	1000290	40944	108789	0	0	8198	639720	0	0
2024-06-01 16:07:32			0	36043	0	0	0	23740	22400	140625	27351	1000368	40957	108755	0	0	8200	639259	0	0
2024-06-01 16:08:32			0	36044	0	0	0	23496	22400	140449	27467	1000164	40923	108661	0	0	8204	639216	0	0
2024-06-01 16:09:32			0	36077	0	0	0	23412	22390	140297	27203	999845	40901	108629	0	0	8207	637824	0	0
2024-06-01 16:10:32			0	36087	0	0	0	23301	22360	140197	27395	999563	40898	108586	0	0	8209	637499	0	0
2024-06-01 16:11:32			0	36114	0	0	0	23153	22330	140061	27338	999219	40863	108529	0	0	8213	636440	0	0
2024-06-01 16:12:32			0	36119	0	0	0	23070	22250	140049	27255	998772	40833	108497	0	0	8215	636508	0	0
2024-06-01 16:13:32			0	36103	0	0	0	23046	22200	140057	27497	998368	40839	108488	0	0	8214	637377	0	0
2024-06-01 16:14:32			0	36076	0	0	0	23044	22140	140205	27095	998152	40823	108487	0	0	8212	638758	0	0
2024-06-01 16:15:32			0	36080	0	0	0	23041	22080	140365	27395	998024	40817	108486	0	0	8212	638799	0	0
2024-06-01 16:16:32			0	36058	0	0	0	23044	22040	140373	27216	997990	40846	108487	0	0	8211	639895	0	0
2024-06-01 16:17:32			0	36030	0	0	0	23189	22020	140689	27601	997930	40845	108543	0	0	8207	641181	0	0
2024-06-01 16:18:32			0	36027	0	0	0	23189	22000	140785	27416	997976	40865	108543	0	0	8207	641382	0	0
2024-06-01 16:19:32			0	36023	0	0	0	23179	21990	140893	27386	998048	40854	108539	0	0	8206	641592	0	0
2024-06-01 16:20:32			0	36005	0	0	0	23194	21980	140889	27694	998022	40863	108545	0	0	8205	642409	0	0
2024-06-01 16:21:32			0	35977	0	0	0	23174	21970	140929	27402	998040	40863	108537	0	0	8204	643663	0	0
2024-06-01 16:22:32			0	35973	0	0	0	23142	21970	140953	27152	997952	40863	108525	0	0	8204	643838	0	0
2024-06-01 16:23:32			0	35988	0	0	0	23129	21940	140965	27668	997795	40859	108520	0	0	8205	643292	0	0
2024-06-01 16:24:32			0	35977	0	0	0	23077	21920	140933	27673	997761	40835	108500	0	0	8205	643843	0	0
2024-06-01 16:25:32			0	35959	0	0	0	23010	21910	140969	27498	997619	40846	108474	0	0	8206	644663	0	0
2024-06-01 16:26:32			0	35963	0	0	0	23007	21890	141037	27124	997532	40843	108473	0	0	8206	644560	0	0
2024-06-01 16:27:32			0	35946	0	0	0	22945	21860	141085	27620	997428	40831	108449	0	0	8206	645409	0	0
2024-06-01 16:28:32			0	35927	0	0	0	22916	21850	141117	27538	997270	40840	108438	0	0	8205	646275	0	0
2024-06-01 16:29:32			0	35905	0	0	0	22883	21810	141129	27575	997157	40826	108425	0	0	8204	647380	0	0
2024-06-01 16:30:32			0	35901	0	0	0	22903	21780	141297	27322	996965	40823	108433	0	0	8204	647663	0	0
2024-06-01 16:31:32			0	35885	0	0	0	22914	21770	141329	27329	996922	40833	108437	0	0	8203	648399	0	0
2024-06-01 16:32:32			0	35876	0	0	0	22922	21750	141461	27519	996914	40831	108440	0	0	8202	648865	0	0
2024-06-01 16:33:32			0	35862	0	0	0	22955	21720	141493	27447	996846	40818	108453	0	0	8200	649587	0	0
2024-06-01 16:34:32			0	35866	0	0	0	22940	21720	141581	27272	996899	40829	108447	0	0	8201	649412	0	0
2024-06-01 16:35:32			0	35843	0	0	0	22984	21720	141588	27550	996899	40840	108464	0	0	8199	650420	0	0
2024-06-01 16:36:32			0	35866	0	0	0	23023	21690	141665	27614	996910	40837	108479	0	0	8199	649520	0	0
2024-06-01 16:37:32			0	35865	0	0	0	23012	21710	141693	27206	997007	40838	108475	0	0	8200	649492	0	0
2024-06-01 16:38:32			0	35903	0	0	0	23010	21700	141597	27267	996945	40837	108474	0	0	8202	647864	0	0
2024-06-01 16:39:32			0	35869	0	0	0	23028	21710	141600	27272	996980	40838	108481	0	0	8200	649317	0	0
2024-06-01 16:40:32			0	35895	0	0	0	22994	21690	141509	27206	996910	40837	108468	0	0	8201	648250	0	0
2024-06-01 16:41:32			0	35900	0	0	0	23012	21690	141493	27533	996883	40837	108475	0	0	8201	648031	0	0
2024-06-01 16:42:32			0	35904	0	0	0	22997	21690	141441	27121	996821	40836	108469	0	0	8202	647856	0	0
2024-06-01 16:43:32			0	35913	0	0	0	22989	21680	141517	27512	996839	40826	108466	0	0	8202	647499	0	0
2024-06-01 16:44:32			0	35899	0	0	0	22986	21680	141513	27559	996778	40846	108465	0	0	8202	648111	0	0
2024-06-01 16:45:32			0	35912	0	0	0	22958	21670	141485	27187	996823	40835	108454	0	0	8203	647578	0	0
2024-06-01 16:46:32			0	35902	0	0	0	22984	21670	141485	27213	996823	40835	108464	0	0	8202	648016	0	0
2024-06-01 16:47:32			0	35912	0	0	0	22966	21670	141473	27497	996814	40834	108457	0	0	8203	647578	0	0
2024-06-01 16:48:32			0	35894	0	0	0	22950	21650	141505	27417	996754	40822	108451	0	0	8202	648438	0	0
2024-06-01 16:49:32			0	35887	0	0	0	22950	21650	141453	27566	996727	40833	108451	0	0	8202	648745	0	0
2024-06-01 16:50:32			0	35904	0	0	0	22955	21640	141441	27410	996719	40843	108453	0	0	8202	648037	0	0
2024-06-01 16:51:32			0	35883	0	0	0	22935	21640	141537	27597	996665	40833	108445	0	0	8202	648956	0	0
2024-06-01 16:52:32			0	35862	0	0	0	22911	21620	141577	27291	996578	40808	108436	0	0	8201	649949	0	0
2024-06-01 16:53:32			0	35839	0	0	0	22914	21620	141800	27265	996525	40820	108437	0	0	8199	650958	0	0
2024-06-01 16:54:32			0	35829	0	0	0	22932	21610	141840	27322	996500	40840	108444	0	0	8199	651434	0	0
2024-06-01 16:55:32			0	35814	0	0	0	22927	21610	141868	27632	996562	40831	108442	0	0	8198	652093	0	0
2024-06-01 16:56:32			0	35831	0	0	0	22932	21600	141944	27651	996491	40839	108444	0	0	8199	651382	0	0
2024-06-01 16:57:32			0	35818	0	0	0	22989	21610	141884	27466	996580	40830	108466	0	0	8197	651917	0	0
2024-06-01 16:58:32			0	35821	0	0	0	22984	21600	141824	27296	996704	40851	108464	0	0	8197	651821	0	0
2024-06-01 16:59:32			0	35866	0	0	0	22950	21620	141717	27281	996703	40841	108451	0	0	8200	649773	0	0
2024-06-01 17:00:32			0	35876	0	0	0	22935	21620	141637	27495	996578	40831	108445	0	0	8201	649335	0	0
2024-06-01 17:01:32			0	35878	0	0	0	22932	21610	141697	27317	996535	40820	108444	0	0	8201	649284	0	0
2024-06-01 17:02:32			0	35885	0	0	0	22945	21610	141621	27573	996562	40841	108449	0	0	8201	648977	0	0
2024-06-01 17:03:32			0	35850	0	0	0	22963	21610	141760	27341	996615	40820	108456	0	0	8199	650511	0	0
2024-06-01 17:04:32			0	35845	0	0	0	22971	21610	141724	27686	996615	40841	108459	0	0	8199	650731	0	0
2024-06-01 17:05:32			0	35849	0	0	0	22955	21610	141752	27609	996695	40841	108453	0	0	8199	650555	0	0
2024-06-01 17:06:32			0	35848	0	0	0	22929	21600	141836	27480	996545	40829	108443	0	0	8200	650635	0	0
2024-06-01 17:07:32			0	35839	0	0	0	22903	21600	141780	27227	996536	40817	108433	0	0	8200	651030	0	0
2024-06-01 17:08:32			0	35823	0	0	0	22932	21600	141788	27500	996456	40828	108444	0	0	8198	651733	0	0
2024-06-01 17:09:32			0	35827	0	0	0	22888	21590	141768	27448	996466	40817	108427	0	0	8199	651594	0	0
2024-06-01 17:10:32			0	35830	0	0	0	22844	21580	141808	27383	996289	40826	108410	0	0	8200	651498	0	0
2024-06-01 17:11:32			0	35813	0	0	0	22823	21560	141804	27331	996264	40814	108402	0	0	8199	652318	0	0
2024-06-01 17:12:32			0	35803	0	0	0	22841	21550	141884	27445	996247	40813	108409	0	0	8198	652794	0	0
2024-06-01 17:13:32			0	35778	0	0	0	22831	21540	142008	27414	996177	40801	108405	0	0	8197	653931	0	0
2024-06-01 17:14:32			0	35761	0	0	0	22831	21530	142048	27365	996152	40822	108405	0	0	8196	654717	0	0
2024-06-01 17:15:32			0	35738	0	0	0	22815	21530	142148	27277	996134	40822	108399	0	0	8195	655732	0	0
2024-06-01 17:16:32			0	35719	0	0	0	22755	21510	142160	27400	996073	40820	108376	0	0	8195	656644	0	0
2024-06-01 17:17:32			0	35724	0	0	0	22818	21510	142240	27175	995958	40809	108400	0	0	8194	656423	0	0
2024-06-01 17:18:32			0	35721	0	0	0	22841	21500	142320	27322	996110	40820	108409	0	0	8194	656592	0	0
2024-06-01 17:19:32			0	35709	0	0	0	22789	21510	142432	27435	996065	40831	108389	0	0	8194	657086	0	0
2024-06-01 17:20:32			0	35705	0	0	0	22870	21500	142376	27381	996048	40819	108420	0	0	8192	657299	0	0
2024-06-01 17:21:32			0	35682	0	0	0	22841	21500	142456	27398	996075	40819	108409	0	0	8192	658317	0	0
2024-06-01 17:22:32			0	35708	0	0	0	22851	21500	142328	27319	996154	40830	108413	0	0	8193	657166	0	0
2024-06-01 17:23:32			0	35700	0	0	0	22857	21500	142336	27507	996243	40831	108415	0	0	8192	657520	0	0
2024-06-01 17:24:32			0	35695	0	0	0	22896	21510	142444	27360	996198	40831	108430	0	0	8192	657705	0	0
2024-06-01 17:25:32			0	35696	0	0	0	22924	21510	142388	27388	996260	40820	108441	0	0	8191	657661	0	0
2024-06-01 17:26:32			0	35710	0	0	0	22979	21520	142320	27190	996356	40843	108462	0	0	8191	657005	0	0
2024-06-01 17:27:32			0	35725	0	0	0	22932	21540	142268	27244	996328	40833	108444	0	0	8193	656269	0	0
2024-06-01 17:28:32			0	35770	0	0	0	22909	21540	142184	27185	996328	40823	108435	0	0	8195	654284	0	0
2024-06-01 17:29:32			0	35805	0	0	0	22875	21530	142092	27464	996267	40822	108422	0	0	8198	652779	0	0
2024-06-01 17:30:32			0	35817	0	0	0	22864	21530	141972	27445	996205	40799	108418	0	0	8199	652251	0	0
2024-06-01 17:31:32			0	35800	0	0	0	22924	21510	141980	27395	996180	40820	108441	0	0	8197	653071	0	0
2024-06-01 17:32:32			0	35793	0	0	0	22888	21520	141968	27353	996188	40810	108427	0	0	8197	653343	0	0
2024-06-01 17:33:32			0	35792	0	0	0	22906	21510	141988	27395	996153	40820	108434	0	0	8197	653424	0	0
2024-06-01 17:34:32			0	35789	0	0	0	22955	21510	142068	27403	996118	40831	108453	0	0	8196	653556	0	0
2024-06-01 17:35:32			0	35775	0	0	0	22981	21510	142128	27185	996304	40842	108463	0	0	8194	654172	0	0
2024-06-01 17:36:32			0	35772	0	0	0	22898	21520	142116	27656	996276	40833	108431	0	0	8196	654268	0	0
2024-06-01 17:37:32			0	35804	0	0	0	22961	21530	141916	27175	996232	40843	108455	0	0	8196	652823	0	0
2024-06-01 17:38:32			0	35811	0	0	0	22916	21530	141960	27428	996258	40833	108438	0	0	8198	652515	0	0
2024-06-01 17:39:32			0	35836	0	0	0	22906	21530	141860	27595	996311	40811	108434	0	0	8199	651416	0	0
2024-06-01 17:40:32			0	35813	0	0	0	22976	21520	141872	27341	996276	40843	108461	0	0	8197	652463	0	0
2024-06-01 17:41:32			0	35824	0	0	0	22958	21540	141844	27635	996355	40856	108454	0	0	8198	651907	0	0
2024-06-01 17:42:32			0	35829	0	0	0	22854	21540	141772	27531	996328	40823	108414	0	0	8200	651687	0	0
2024-06-01 17:43:32			0	35834	0	0	0	22877	21540	141648	27511	996195	40823	108423	0	0	8199	651467	0	0
2024-06-01 17:44:32			0	35847	0	0	0	22898	21540	141780	27583	996222	40833	108431	0	0	8200	650896	0	0
2024-06-01 17:45:32			0	35835	0	0	0	22870	21530	141740	27403	996205	40833	108420	0	0	8200	651460	0	0
2024-06-01 17:46:32			0	35824	0	0	0	22906	21530	141788	27334	996178	40833	108434	0	0	8198	651943	0	0
2024-06-01 17:47:32			0	35803	0	0	0	22896	21520	141940	27597	996215	40832	108430	0	0	8197	652903	0	0
2024-06-01 17:48:32			0	35796	0	0	0	22919	21530	141912	27509	996267	40843	108439	0	0	8197	653175	0	0
2024-06-01 17:49:32			0	35810	0	0	0	22872	21520	141864	27618	996303	40833	108421	0	0	8198	652595	0	0
2024-06-01 17:50:32			0	35800	0	0	0	22914	21530	141796	27267	996285	40833	108437	0	0	8197	652999	0	0
2024-06-01 17:51:32			0	35802	0	0	0	22911	21530	141888	27379	996311	40833	108436	0	0	8197	652911	0	0
2024-06-01 17:52:32			0	35782	0	0	0	22937	21520	141920	27346	996303	40855	108446	0	0	8196	653828	0	0
2024-06-01 17:53:32			0	35788	0	0	0	22898	21540	141952	27234	996363	40845	108431	0	0	8197	653491	0	0
2024-06-01 17:54:32			0	35790	0	0	0	22971	21540	141916	27623	996363	40845	108459	0	0	8196	653403	0	0
2024-06-01 17:55:32			0	35810	0	0	0	22966	21540	141924	27353	996417	40856	108457	0	0	8197	652522	0	0
2024-06-01 17:56:32			0	35824	0	0	0	22950	21550	141776	27390	996407	40846	108451	0	0	8198	651871	0	0
2024-06-01 17:57:32			0	35844	0	0	0	22940	21540	141732	27332	996337	40834	108447	0	0	8199	651028	0	0
2024-06-01 17:58:32			0	35838	0	0	0	22945	21550	141744	27348	996513	40846	108449	0	0	8199	651255	0	0
2024-06-01 17:59:32			0	35853	0	0	0	22820	21550	141556	27329	996380	40825	108401	0	0	8201	650597	0	0
2024-06-01 18:00:32			0	35865	0	0	0	22825	21540	141505	27590	996283	40834	108403	0	0	8202	650106	0	0
2024-06-01 18:01:32			0	35861	0	0	0	22849	21550	141641	27679	996212	40813	108412	0	0	8201	650246	0	0
2024-06-01 18:02:32			0	35871	0	0	0	22896	21540	141561	27263	996230	40834	108430	0	0	8201	649843	0	0
2024-06-01 18:03:32			0	35852	0	0	0	22701	21530	141588	27320	996099	40822	108355	0	0	8203	650713	0	0
2024-06-01 18:04:32			0	35806	0	0	0	22485	21500	141700	27445	995675	40786	108272	0	0	8204	652844	0	0
2024-06-01 18:05:32			0	35751	0	0	0	22511	21460	141912	27320	995475	40760	108282	0	0	8201	655413	0	0
2024-06-01 18:06:32			0	35648	0	0	0	22602	21420	142376	27312	995416	40791	108317	0	0	8194	660117	0	0
2024-06-01 18:07:32			0	35534	0	0	0	22620	21400	142876	27279	995435	40788	108324	0	0	8187	665262	0	0
2024-06-01 18:08:32			0	35467	0	0	0	22581	21390	143128	27390	995418	40798	108309	0	0	8184	668294	0	0
2024-06-01 18:09:32			0	35409	0	0	0	22612	21370	143360	27293	995331	40796	108321	0	0	8180	670968	0	0
2024-06-01 18:10:32			0	35366	0	0	0	22654	21370	143584	27326	995420	40808	108337	0	0	8177	672901	0	0
2024-06-01 18:11:32			0	35353	0	0	0	22677	21360	143784	27396	995403	40807	108346	0	0	8176	673523	0	0
2024-06-01 18:12:32			0	35337	0	0	0	22714	21360	143920	26932	995403	40807	108360	0	0	8175	674244	0	0
2024-06-01 18:13:32			0	35318	0	0	0	22716	21360	143884	27133	995536	40818	108361	0	0	8173	675100	0	0
2024-06-01 18:14:32			0	35335	0	0	0	22825	21370	143836	27140	995624	40819	108403	0	0	8173	674297	0	0
2024-06-01 18:15:32			0	35368	0	0	0	22631	21370	143708	27486	995571	40819	108328	0	0	8178	672811	0	0
2024-06-01 18:16:32			0	35401	0	0	0	22618	21370	143572	27414	995366	40786	108323	0	0	8180	671327	0	0
2024-06-01 18:17:32			0	35390	0	0	0	22742	21350	143492	27473	995377	40806	108371	0	0	8177	671896	0	0
2024-06-01 18:18:32			0	35396	0	0	0	22750	21350	143576	27119	995572	40817	108374	0	0	8177	671627	0	0
2024-06-01 18:19:32			0	35431	0	0	0	22667	21360	143440	27552	995501	40817	108342	0	0	8180	670018	0	0
2024-06-01 18:20:32			0	35437	0	0	0	22706	21350	143396	27569	995386	40806	108357	0	0	8180	669786	0	0
2024-06-01 18:21:32			0	35434	0	0	0	22732	21350	143472	27289	995439	40817	108367	0	0	8179	669921	0	0
2024-06-01 18:22:32			0	35416	0	0	0	22859	21340	143656	27249	995555	40827	108416	0	0	8176	670766	0	0
2024-06-01 18:23:32			0	35395	0	0	0	22774	21370	143656	27353	995659	40830	108383	0	0	8177	671597	0	0
2024-06-01 18:24:32			0	35417	0	0	0	22745	21370	143548	27144	995659	40819	108372	0	0	8178	670609	0	0
2024-06-01 18:25:32			0	35401	0	0	0	22896	21380	143644	27345	995721	40819	108430	0	0	8175	671290	0	0
2024-06-01 18:26:32			0	35391	0	0	0	22916	21400	143628	27024	995941	40842	108438	0	0	8174	671665	0	0
2024-06-01 18:27:32			0	35415	0	0	0	22968	21420	143636	27284	996107	40845	108458	0	0	8175	670512	0	0
2024-06-01 18:28:32			0	35445	0	0	0	22909	21450	143564	27119	996176	40858	108435	0	0	8178	669056	0	0
2024-06-01 18:29:32			0	35457	0	0	0	22963	21470	143420	27185	996130	40837	108456	0	0	8177	668444	0	0
2024-06-01 18:30:32			0	35492	0	0	0	22994	21470	143344	27227	996245	40838	108468	0	0	8179	666878	0	0
2024-06-01 18:31:32			0	35503	0	0	0	22976	21500	143248	27142	996314	40852	108461	0	0	8180	666276	0	0
2024-06-01 18:32:32			0	35507	0	0	0	22950	21510	143212	27268	996384	40842	108451	0	0	8180	666060	0	0
2024-06-01 18:33:32			0	35502	0	0	0	22984	21520	143120	27476	996374	40843	108464	0	0	8180	666247	0	0
2024-06-01 18:34:32			0	35519	0	0	0	22958	21530	143080	27457	996400	40843	108454	0	0	8181	665451	0	0
2024-06-01 18:35:32			0	35543	0	0	0	22846	21530	142920	27523	996258	40843	108411	0	0	8184	664380	0	0
2024-06-01 18:36:32			0	35564	0	0	0	22810	21520	142812	27272	996161	40810	108397	0	0	8186	663482	0	0
2024-06-01 18:37:32			0	35568	0	0	0	22761	21510	142812	27481	996118	40809	108378	0	0	8187	663341	0	0
2024-06-01 18:38:32			0	35568	0	0	0	22701	21500	142776	27550	995942	40830	108355	0	0	8188	663378	0	0
2024-06-01 18:39:32			0	35565	0	0	0	22761	21480	142824	27242	995828	40817	108378	0	0	8187	663585	0	0
2024-06-01 18:40:32			0	35547	0	0	0	22805	21460	142908	27490	995821	40827	108395	0	0	8185	664461	0	0
2024-06-01 18:41:32			0	35498	0	0	0	22812	21450	143068	27469	995857	40835	108398	0	0	8182	666684	0	0
2024-06-01 18:42:32			0	35504	0	0	0	22774	21470	143148	27358	995944	40837	108383	0	0	8183	666342	0	0
2024-06-01 18:43:32			0	35498	0	0	0	22846	21460	143240	27265	995954	40827	108411	0	0	8182	666647	0	0
2024-06-01 18:44:32			0	35494	0	0	0	22854	21470	143196	27334	995997	40816	108414	0	0	8181	666789	0	0
2024-06-01 18:45:32			0	35482	0	0	0	22672	21470	143260	27150	995838	40816	108344	0	0	8184	667326	0	0
2024-06-01 18:46:32			0	35493	0	0	0	22711	21450	143184	27263	995804	40825	108359	0	0	8183	666908	0	0
2024-06-01 18:47:32			0	35490	0	0	0	22610	21440	143212	27079	995742	40814	108320	0	0	8185	667079	0	0
2024-06-01 18:48:32			0	35464	0	0	0	22584	21440	143256	27111	995574	40803	108310	0	0	8184	668242	0	0
2024-06-01 18:49:32			0	35394	0	0	0	22597	21410	143348	27286	995505	40800	108315	0	0	8180	671493	0	0
2024-06-01 18:50:32			0	35360	0	0	0	22633	21390	143524	27020	995507	40809	108329	0	0	8177	673096	0	0
2024-06-01 18:51:32			0	35326	0	0	0	22615	21390	143688	27211	995498	40788	108322	0	0	8176	674627	0	0
2024-06-01 18:52:32			0	35296	0	0	0	22670	21390	143972	27246	995605	40809	108343	0	0	8173	675981	0	0
2024-06-01 18:53:32			0	35275	0	0	0	22771	21390	143968	27390	995578	40809	108382	0	0	8170	676929	0	0
2024-06-01 18:54:32			0	35279	0	0	0	22683	21380	144164	27130	995569	40809	108348	0	0	8172	676786	0	0
2024-06-01 18:55:32			0	35283	0	0	0	22563	21380	144048	27114	995401	40796	108302	0	0	8174	676605	0	0
2024-06-01 18:56:32			0	35276	0	0	0	22615	21360	143936	27447	995288	40784	108322	0	0	8173	676997	0	0
2024-06-01 18:57:32			0	35274	0	0	0	22574	21340	144024	27074	995263	40794	108306	0	0	8173	677162	0	0
2024-06-01 18:58:32			0	35247	0	0	0	22529	21330	144148	27055	995113	40783	108289	0	0	8173	678421	0	0
2024-06-01 18:59:32			0	35216	0	0	0	22561	21310	144164	27220	995159	40780	108301	0	0	8170	679901	0	0
2024-06-01 19:00:32			0	35179	0	0	0	22524	21300	144300	27365	995035	40791	108287	0	0	8169	681618	0	0
2024-06-01 19:01:32			0	35183	0	0	0	22514	21290	144468	27486	994965	40789	108283	0	0	8169	681474	0	0
2024-06-01 19:02:32			0	35142	0	0	0	22555	21260	144532	27204	994888	40797	108299	0	0	8166	683452	0	0
2024-06-01 19:03:32			0	35124	0	0	0	22706	21270	144740	27307	995136	40820	108357	0	0	8163	684234	0	0
2024-06-01 19:04:32			0	35132	0	0	0	22706	21290	144752	26972	995303	40833	108357	0	0	8163	683794	0	0
2024-06-01 19:05:32			0	35136	0	0	0	22740	21290	144764	26972	995338	40811	108370	0	0	8163	683612	0	0
2024-06-01 19:06:32			0	35160	0	0	0	22727	21320	144704	27203	995441	40814	108365	0	0	8164	682406	0	0
2024-06-01 19:07:32			0	35177	0	0	0	22748	21330	144536	27289	995538	40815	108373	0	0	8165	681596	0	0
2024-06-01 19:08:32			0	35206	0	0	0	22610	21340	144372	27232	995440	40815	108320	0	0	8169	680241	0	0
2024-06-01 19:09:32			0	35251	0	0	0	22568	21330	144144	27352	995272	40793	108304	0	0	8172	678240	0	0
2024-06-01 19:10:32			0	35264	0	0	0	22615	21310	143984	27287	995203	40780	108322	0	0	8172	677727	0	0
2024-06-01 19:11:32			0	35286	0	0	0	22509	21300	144040	27441	995088	40780	108281	0	0	8175	676770	0	0
2024-06-01 19:12:32			0	35260	0	0	0	22597	21290	144152	27093	995010	40789	108315	0	0	8172	677984	0	0
2024-06-01 19:13:32			0	35226	0	0	0	22542	21270	144284	27059	994976	40765	108294	0	0	8171	679599	0	0
2024-06-01 19:14:32			0	35184	0	0	0	22511	21260	144428	27334	994986	40787	108282	0	0	8169	681543	0	0
2024-06-01 19:15:32			0	35142	0	0	0	22563	21240	144492	27286	994881	40785	108302	0	0	8166	683528	0	0
2024-06-01 19:16:32			0	35146	0	0	0	22542	21240	144656	27315	994925	40818	108294	0	0	8167	683346	0	0
2024-06-01 19:17:32			0	35123	0	0	0	22535	21240	144744	27339	994952	40795	108291	0	0	8165	684394	0	0
2024-06-01 19:18:32			0	35121	0	0	0	22558	21240	144696	27397	994872	40795	108300	0	0	8165	684485	0	0
2024-06-01 19:19:32			0	35122	0	0	0	22509	21240	144664	27124	994846	40785	108281	0	0	8166	684439	0	0
2024-06-01 19:20:32			0	35126	0	0	0	22527	21220	144788	27320	994759	40782	108288	0	0	8166	684333	0	0
2024-06-01 19:21:32			0	35104	0	0	0	22553	21220	144880	27492	994838	40782	108298	0	0	8164	685336	0	0
2024-06-01 19:22:32			0	35081	0	0	0	22503	21200	144903	27433	994680	40792	108279	0	0	8163	686462	0	0
2024-06-01 19:23:32			0	35061	0	0	0	22496	21200	144963	27307	994725	40780	108276	0	0	8162	687376	0	0
2024-06-01 19:24:32			0	35063	0	0	0	22483	21190	144927	27362	994636	40791	108271	0	0	8163	687323	0	0
2024-06-01 19:25:32			0	35045	0	0	0	22464	21190	144947	27064	994636	40791	108264	0	0	8162	688146	0	0
2024-06-01 19:26:32			0	35035	0	0	0	22472	21180	145047	27159	994566	40791	108267	0	0	8161	688642	0	0
2024-06-01 19:27:32			0	35042	0	0	0	22459	21170	145087	27189	994488	40778	108262	0	0	8162	688360	0	0
2024-06-01 19:28:32			0	35024	0	0	0	22472	21160	145175	27209	994533	40789	108267	0	0	8161	689222	0	0
2024-06-01 19:29:32			0	35018	0	0	0	22524	21150	145179	27358	994543	40797	108287	0	0	8159	689535	0	0
2024-06-01 19:30:32			0	34986	0	0	0	22529	21150	145339	27492	994569	40797	108289	0	0	8158	691003	0	0
2024-06-01 19:31:32			0	34953	0	0	0	22485	21140	145335	27261	994579	40776	108272	0	0	8156	692558	0	0
2024-06-01 19:32:32			0	34925	0	0	0	22496	21150	145479	27500	994561	40787	108276	0	0	8155	693807	0	0
2024-06-01 19:33:32			0	34917	0	0	0	22485	21150	145563	27339	994561	40797	108272	0	0	8154	694176	0	0
2024-06-01 19:34:32			0	34906	0	0	0	22464	21140	145611	27248	994472	40787	108264	0	0	8154	694721	0	0
2024-06-01 19:35:32			0	34895	0	0	0	22451	21140	145643	27033	994411	40764	108259	0	0	8154	695228	0	0
2024-06-01 19:36:32			0	34906	0	0	0	22444	21120	145643	26987	994412	40773	108256	0	0	8154	694798	0	0
2024-06-01 19:37:32			0	34902	0	0	0	22438	21110	145663	26833	994351	40773	108254	0	0	8154	695021	0	0
2024-06-01 19:38:32			0	34868	0	0	0	22431	21110	145675	27281	994316	40784	108251	0	0	8153	696590	0	0
2024-06-01 19:39:32			0	34879	0	0	0	22428	21100	145715	26944	994299	40772	108250	0	0	8153	696121	0	0
2024-06-01 19:40:32			0	34866	0	0	0	22428	21090	145803	27130	994282	40771	108250	0	0	8152	696760	0	0
2024-06-01 19:41:32			0	34849	0	0	0	22449	21080	145959	27215	994185	40781	108258	0	0	8151	697584	0	0
2024-06-01 19:42:32			0	34837	0	0	0	22433	21080	145987	27220	994273	40770	108252	0	0	8151	698139	0	0
2024-06-01 19:43:32			0	34808	0	0	0	22449	21080	146043	27403	994212	40781	108258	0	0	8149	699482	0	0
2024-06-01 19:44:32			0	34812	0	0	0	22464	21080	146127	27282	994238	40781	108264	0	0	8149	699297	0	0
2024-06-01 19:45:32			0	34817	0	0	0	22457	21070	146219	27293	994230	40781	108261	0	0	8149	699104	0	0
2024-06-01 19:46:32			0	34783	0	0	0	22451	21070	146239	27213	994256	40803	108259	0	0	8147	700680	0	0
2024-06-01 19:47:32			0	34770	0	0	0	22454	21060	146143	27287	994293	40768	108260	0	0	8146	701322	0	0
2024-06-01 19:48:32			0	34762	0	0	0	22459	21080	146307	27450	994238	40770	108262	0	0	8146	701616	0	0
2024-06-01 19:49:32			0	34771	0	0	0	22457	21070	146291	27154	994221	40791	108261	0	0	8147	701237	0	0
2024-06-01 19:50:32			0	34782	0	0	0	22457	21060	146275	27170	994266	40779	108261	0	0	8147	700765	0	0
2024-06-01 19:51:32			0	34767	0	0	0	22451	21070	146311	27414	994283	40781	108259	0	0	8146	701422	0	0
2024-06-01 19:52:32			0	34755	0	0	0	22477	21070	146231	27298	994274	40780	108269	0	0	8145	701980	0	0
2024-06-01 19:53:32			0	34770	0	0	0	22477	21060	146315	27490	994266	40790	108269	0	0	8146	701322	0	0
2024-06-01 19:54:32			0	34773	0	0	0	22480	21080	146307	27498	994318	40791	108270	0	0	8146	701105	0	0
2024-06-01 19:55:32			0	34771	0	0	0	22581	21080	146303	27124	994504	40814	108309	0	0	8144	701198	0	0
2024-06-01 19:56:32			0	34797	0	0	0	22483	21100	146279	27140	994565	40804	108271	0	0	8148	699914	0	0
2024-06-01 19:57:32			0	34818	0	0	0	22464	21100	146067	27222	994405	40783	108264	0	0	8149	698941	0	0
2024-06-01 19:58:32			0	34836	0	0	0	22470	21110	145947	27440	994449	40794	108266	0	0	8150	698069	0	0
2024-06-01 19:59:32			0	34838	0	0	0	22477	21100	146003	26830	994413	40784	108269	0	0	8150	698015	0	0
2024-06-01 20:00:32			0	34835	0	0	0	22457	21100	146083	27194	994360	40816	108261	0	0	8150	698154	0	0
2024-06-01 20:01:32			0	34812	0	0	0	22470	21090	146023	27204	994343	40783	108266	0	0	8149	699258	0	0
2024-06-01 20:02:32			0	34811	0	0	0	22454	21100	146103	27046	994432	40783	108260	0	0	8149	699265	0	0
2024-06-01 20:03:32			0	34789	0	0	0	22464	21080	146191	27124	994353	40791	108264	0	0	8147	700363	0	0
2024-06-01 20:04:32			0	34773	0	0	0	22511	21080	146215	27315	994433	40791	108282	0	0	8146	701105	0	0
2024-06-01 20:05:32			0	34763	0	0	0	22506	21100	146323	27098	994538	40793	108280	0	0	8145	701491	0	0
2024-06-01 20:06:32			0	34777	0	0	0	22568	21110	146399	27286	994537	40806	108304	0	0	8145	700803	0	0
2024-06-01 20:07:32			0	34778	0	0	0	22818	21140	146315	27334	994863	40819	108400	0	0	8141	700640	0	0
2024-06-01 20:08:32			0	34790	0	0	0	22981	21190	146467	27258	995399	40856	108463	0	0	8139	699889	0	0
2024-06-01 20:09:32			0	34857	0	0	0	22924	21250	146099	27119	995660	40863	108441	0	0	8144	696557	0	0
2024-06-01 20:10:32			0	34870	0	0	0	23041	21290	145999	27569	995949	40866	108486	0	0	8143	695802	0	0
2024-06-01 20:11:32			0	34906	0	0	0	23020	21350	145931	27317	996264	40883	108478	0	0	8146	693912	0	0
2024-06-01 20:12:32			0	34924	0	0	0	22953	21400	145823	27462	996321	40887	108452	0	0	8148	692891	0	0
2024-06-01 20:13:32			0	34966	0	0	0	22750	21440	145343	27339	996168	40847	108374	0	0	8154	690808	0	0
2024-06-01 20:14:32			0	34998	0	0	0	22867	21440	145235	27244	996088	40835	108419	0	0	8154	689341	0	0
2024-06-01 20:15:32			0	34972	0	0	0	23192	21450	145519	27280	996371	40836	108544	0	0	8147	690495	0	0
2024-06-01 20:16:32			0	34968	0	0	0	22880	21500	145479	27095	996580	40875	108424	0	0	8152	690486	0	0
2024-06-01 20:17:32			0	35006	0	0	0	22789	21510	145131	27396	996446	40853	108389	0	0	8156	688707	0	0
2024-06-01 20:18:32			0	35003	0	0	0	22942	21510	145167	27339	996393	40831	108448	0	0	8153	688844	0	0
2024-06-01 20:19:32			0	34979	0	0	0	22953	21510	145303	27263	996419	40842	108452	0	0	8152	689943	0	0
2024-06-01 20:20:32			0	34951	0	0	0	23007	21540	145491	27156	996656	40868	108473	0	0	8149	691112	0	0
2024-06-01 20:21:32			0	34960	0	0	0	23210	21560	145415	27161	996849	40869	108551	0	0	8146	690623	0	0
2024-06-01 20:22:32			0	34975	0	0	0	23238	21590	145323	27473	996900	40872	108562	0	0	8147	689820	0	0
2024-06-01 20:23:32			0	35009	0	0	0	22792	21610	145195	27244	997041	40875	108390	0	0	8156	688187	0	0
2024-06-01 20:24:32			0	35029	0	0	0	22802	21630	144863	27128	996773	40842	108394	0	0	8157	687196	0	0
2024-06-01 20:25:32			0	34996	0	0	0	22670	21600	144947	27429	996491	40839	108343	0	0	8158	688820	0	0
2024-06-01 20:26:32			0	34964	0	0	0	22644	21590	145075	27086	996386	40828	108333	0	0	8156	690324	0	0
2024-06-01 20:27:32			0	34916	0	0	0	22716	21590	145279	27287	996519	40838	108361	0	0	8153	692527	0	0
2024-06-01 20:28:32			0	34905	0	0	0	22480	21570	145291	27048	996148	40804	108270	0	0	8156	693110	0	0
2024-06-01 20:29:32			0	34885	0	0	0	22457	21540	145319	27043	995805	40768	108261	0	0	8155	694146	0	0
2024-06-01 20:30:32			0	34848	0	0	0	22535	21490	145407	27507	995685	40774	108291	0	0	8151	696044	0	0
2024-06-01 20:31:32			0	34824	0	0	0	22527	21480	145675	27242	995810	40818	108288	0	0	8150	697190	0	0
2024-06-01 20:32:32			0	34816	0	0	0	22441	21460	145775	27284	995502	40793	108255	0	0	8151	697638	0	0
2024-06-01 20:33:32			0	34812	0	0	0	22407	21420	145659	27414	995248	40768	108242	0	0	8151	697978	0	0
2024-06-01 20:34:32			0	34791	0	0	0	22397	21380	145847	27166	995056	40764	108238	0	0	8150	699105	0	0
2024-06-01 20:35:32			0	34772	0	0	0	22407	21330	145963	27360	994900	40750	108242	0	0	8149	700179	0	0
2024-06-01 20:36:32			0	34762	0	0	0	22386	21300	146059	26901	994743	40736	108234	0	0	8148	700759	0	0
2024-06-01 20:37:32			0	34728	0	0	0	22392	21270	146155	27383	994710	40776	108236	0	0	8146	702455	0	0
2024-06-01 20:38:32			0	34719	0	0	0	22415	21240	146199	27022	994641	40774	108245	0	0	8145	702990	0	0
2024-06-01 20:39:32			0	34691	0	0	0	22412	21220	146399	27090	994581	40783	108244	0	0	8144	704371	0	0
2024-06-01 20:40:32			0	34675	0	0	0	22446	21210	146531	27393	994644	40782	108257	0	0	8142	705156	0	0
2024-06-01 20:41:32			0	34670	0	0	0	22392	21200	146603	27327	994520	40770	108236	0	0	8143	705428	0	0
2024-06-01 20:42:32			0	34663	0	0	0	22379	21200	146635	27036	994512	40758	108231	0	0	8142	705755	0	0
2024-06-01 20:43:32			0	34617	0	0	0	22379	21170	146695	27202	994382	40767	108231	0	0	8140	708020	0	0
2024-06-01 20:44:32			0	34628	0	0	0	22366	21150	146727	27300	994277	40754	108226	0	0	8140	707585	0	0
2024-06-01 20:45:32			0	34629	0	0	0	22368	21130	146795	27300	994190	40763	108227	0	0	8140	707616	0	0
2024-06-01 20:46:32			0	34622	0	0	0	22366	21110	146879	27301	994183	40750	108226	0	0	8140	708022	0	0
2024-06-01 20:47:32			0	34608	0	0	0	22368	21090	146843	27300	994096	40759	108227	0	0	8139	708756	0	0
2024-06-01 20:48:32			0	34608	0	0	0	22361	21080	146895	27213	994132	40758	108224	0	0	8139	708795	0	0
2024-06-01 20:49:32			0	34617	0	0	0	22361	21060	146831	27357	994080	40757	108224	0	0	8140	708453	0	0
2024-06-01 20:50:32			0	34605	0	0	0	22363	21060	146947	27369	994045	40757	108225	0	0	8139	709014	0	0
2024-06-01 20:51:32			0	34593	0	0	0	22373	21050	146939	27409	994055	40778	108229	0	0	8138	709616	0	0
2024-06-01 20:52:32			0	34606	0	0	0	22368	21050	147031	27372	994028	40756	108227	0	0	8139	709007	0	0
2024-06-01 20:53:32			0	34558	0	0	0	22371	21040	147143	27414	994073	40766	108228	0	0	8136	711296	0	0
2024-06-01 20:54:32			0	34548	0	0	0	22373	21030	147283	27362	993968	40754	108229	0	0	8135	711805	0	0
2024-06-01 20:55:32			0	34515	0	0	0	22368	21030	147371	27355	994021	40765	108227	0	0	8134	713356	0	0
2024-06-01 20:56:32			0	34515	0	0	0	22376	21030	147523	27540	994021	40765	108230	0	0	8133	713356	0	0
2024-06-01 20:57:32			0	34483	0	0	0	22366	21030	147515	27348	994021	40765	108226	0	0	8132	714862	0	0
2024-06-01 20:58:32			0	34469	0	0	0	22368	21020	147575	27116	993978	40775	108227	0	0	8131	715561	0	0
2024-06-01 20:59:32			0	34456	0	0	0	22361	21010	147555	27052	993854	40764	108224	0	0	8130	716214	0	0
2024-06-01 21:00:32			0	34460	0	0	0	22358	21000	147651	27097	993899	40774	108223	0	0	8131	716065	0	0
2024-06-01 21:01:32			0	34445	0	0	0	22358	21010	147583	27163	993908	40786	108223	0	0	8130	716734	0	0
2024-06-01 21:02:32			0	34466	0	0	0	22368	21010	147623	27383	993916	40764	108227	0	0	8131	715743	0	0
2024-06-01 21:03:32			0	34457	0	0	0	22366	20990	147479	27345	993882	40762	108226	0	0	8130	716247	0	0
2024-06-01 21:04:32			0	34477	0	0	0	22361	21000	147627	27383	993864	40773	108224	0	0	8131	715264	0	0
2024-06-01 21:05:32			0	34452	0	0	0	22361	20990	147607	27246	993847	40762	108224	0	0	8130	716483	0	0
2024-06-01 21:06:32			0	34450	0	0	0	22371	20990	147539	27171	993874	40773	108228	0	0	8130	716577	0	0
2024-06-01 21:07:32			0	34451	0	0	0	22366	20990	147587	27386	993900	40784	108226	0	0	8130	716530	0	0
2024-06-01 21:08:32			0	34438	0	0	0	22389	20980	147663	27388	993865	40783	108235	0	0	8129	717183	0	0
2024-06-01 21:09:32			0	34465	0	0	0	22371	20990	147663	27391	993900	40794	108228	0	0	8131	715869	0	0
2024-06-01 21:10:32			0	34451	0	0	0	22373	20980	147635	27561	993839	40783	108229	0	0	8130	716570	0	0
2024-06-01 21:11:32			0	34444	0	0	0	22373	20980	147691	27357	993865	40761	108229	0	0	8129	716900	0	0
2024-06-01 21:12:32			0	34439	0	0	0	22373	20980	147695	27376	993945	40783	108229	0	0	8129	717136	0	0
2024-06-01 21:13:32			0	34445	0	0	0	22373	20990	147679	27128	993847	40784	108229	0	0	8129	716813	0	0
2024-06-01 21:14:32			0	34445	0	0	0	22384	20980	147771	27661	993865	40783	108233	0	0	8129	716853	0	0
2024-06-01 21:15:32			0	34432	0	0	0	22386	20980	147751	27459	993945	40794	108234	0	0	8128	717467	0	0
2024-06-01 21:16:32			0	34432	0	0	0	22386	21000	147807	27547	993891	40773	108234	0	0	8129	717387	0	0
2024-06-01 21:17:32			0	34423	0	0	0	22384	20990	147875	27274	993962	40784	108233	0	0	8128	717852	0	0
2024-06-01 21:18:32			0	34440	0	0	0	22386	21000	147851	27305	993970	40784	108234	0	0	8129	717009	0	0
2024-06-01 21:19:32			0	34446	0	0	0	22402	20990	147779	27239	994042	40773	108240	0	0	8129	716766	0	0
2024-06-01 21:20:32			0	34442	0	0	0	22379	21000	147743	27384	993952	40795	108231	0	0	8129	716915	0	0
2024-06-01 21:21:32			0	34459	0	0	0	22371	21000	147711	27010	993970	40784	108228	0	0	8130	716113	0	0
2024-06-01 21:22:32			0	34462	0	0	0	22379	21000	147603	27279	993917	40773	108231	0	0	8130	715971	0	0
2024-06-01 21:23:32			0	34453	0	0	0	22363	20990	147691	27350	993927	40784	108225	0	0	8130	716436	0	0
2024-06-01 21:24:32			0	34446	0	0	0	22366	20990	147799	27460	993900	40773	108226	0	0	8130	716766	0	0
2024-06-01 21:25:32			0	34438	0	0	0	22379	20980	147811	27481	993865	40783	108231	0	0	8129	717183	0	0
2024-06-01 21:26:32			0	34445	0	0	0	22373	20990	147859	27145	993927	40773	108229	0	0	8129	716813	0	0
2024-06-01 21:27:32			0	34438	0	0	0	22376	20980	147835	27483	993919	40772	108230	0	0	8129	717183	0	0
2024-06-01 21:28:32			0	34422	0	0	0	22389	20990	147839	27355	993927	40784	108235	0	0	8128	717900	0	0
2024-06-01 21:29:32			0	34405	0	0	0	22368	20990	147983	27388	993874	40784	108227	0	0	8127	718704	0	0
2024-06-01 21:30:32			0	34400	0	0	0	22379	20990	147983	27403	993847	40794	108231	0	0	8127	718940	0	0
2024-06-01 21:31:32			0	34387	0	0	0	22373	20980	147971	27630	993865	40783	108229	0	0	8126	719595	0	0
2024-06-01 21:32:32			0	34391	0	0	0	22373	20990	148047	27405	993900	40773	108229	0	0	8126	719366	0	0
2024-06-01 21:33:32			0	34387	0	0	0	22373	20970	148111	27308	993902	40771	108229	0	0	8126	719635	0	0
2024-06-01 21:34:32			0	34393	0	0	0	22371	20980	148047	27201	993892	40794	108228	0	0	8126	719311	0	0
2024-06-01 21:35:32			0	34392	0	0	0	22366	20980	147963	26944	993892	40783	108226	0	0	8127	719359	0	0
2024-06-01 21:36:32			0	34396	0	0	0	22366	20980	148075	27232	993892	40794	108226	0	0	8127	719169	0	0
2024-06-01 21:37:32			0	34367	0	0	0	22366	20980	148007	27166	993865	40783	108226	0	0	8125	720543	0	0
2024-06-01 21:38:32			0	34359	0	0	0	22379	20980	148031	27242	993972	40772	108231	0	0	8124	720922	0	0
2024-06-01 21:39:32			0	34353	0	0	0	22392	20990	148119	27227	993962	40773	108236	0	0	8124	721167	0	0
2024-06-01 21:40:32			0	34372	0	0	0	22394	20990	148075	27038	993909	40784	108237	0	0	8125	720266	0	0
2024-06-01 21:41:32			0	34344	0	0	0	22376	20990	148178	26948	993954	40773	108230	0	0	8124	721594	0	0
2024-06-01 21:42:32			0	34374	0	0	0	22373	20990	148131	27407	993927	40784	108229	0	0	8125	720171	0	0
2024-06-01 21:43:32			0	34370	0	0	0	22366	20990	148163	27085	993900	40773	108226	0	0	8125	720361	0	0
2024-06-01 21:44:32			0	34364	0	0	0	22381	20980	148227	27232	993919	40794	108232	0	0	8125	720685	0	0
2024-06-01 21:45:32			0	34342	0	0	0	22368	20990	148238	27287	993909	40794	108227	0	0	8124	721689	0	0
2024-06-01 21:46:32			0	34328	0	0	0	22371	20980	148230	27246	993919	40761	108228	0	0	8123	722394	0	0
2024-06-01 21:47:32			0	34324	0	0	0	22371	20970	148350	27431	993875	40782	108228	0	0	8123	722624	0	0
2024-06-01 21:48:32			0	34291	0	0	0	22368	20980	148398	27422	993839	40783	108227	0	0	8121	724153	0	0
2024-06-01 21:49:32			0	34308	0	0	0	22368	20980	148322	27287	993892	40772	108227	0	0	8122	723344	0	0
2024-06-01 21:50:32			0	34296	0	0	0	22363	20980	148498	27370	993839	40783	108225	0	0	8121	723915	0	0
2024-06-01 21:51:32			0	34297	0	0	0	22366	20980	148458	27319	993892	40794	108226	0	0	8121	723867	0	0
2024-06-01 21:52:32			0	34275	0	0	0	22366	20980	148386	27315	993804	40771	108226	0	0	8120	724914	0	0
2024-06-01 21:53:32			0	34275	0	0	0	22366	20970	148414	26909	993875	40793	108226	0	0	8120	724955	0	0
2024-06-01 21:54:32			0	34273	0	0	0	22361	20980	148450	27161	993865	40761	108224	0	0	8120	725010	0	0
2024-06-01 21:55:32			0	34269	0	0	0	22371	20980	148486	27156	993839	40783	108228	0	0	8120	725200	0	0
2024-06-01 21:56:32			0	34304	0	0	0	22376	20980	148446	27395	993857	40782	108230	0	0	8121	723534	0	0
2024-06-01 21:57:32			0	34286	0	0	0	22368	20970	148438	27173	993875	40782	108227	0	0	8120	724431	0	0
2024-06-01 21:58:32			0	34289	0	0	0	22381	20980	148546	27377	993812	40783	108232	0	0	8120	724248	0	0
2024-06-01 21:59:32			0	34307	0	0	0	22376	20980	148474	27119	993857	40782	108230	0	0	8122	723392	0	0
2024-06-01 22:00:32			0	34297	0	0	0	22366	20980	148514	27140	993919	40761	108226	0	0	8121	723867	0	0
2024-06-01 22:01:32			0	34284	0	0	0	22358	20970	148530	27505	993795	40782	108223	0	0	8121	724526	0	0
2024-06-01 22:02:32			0	34291	0	0	0	22353	20970	148466	27500	993795	40793	108221	0	0	8121	724193	0	0
2024-06-01 22:03:32			0	34260	0	0	0	22353	20970	148514	27173	993867	40771	108221	0	0	8119	725670	0	0
2024-06-01 22:04:32			0	34254	0	0	0	22324	20980	148618	27405	993839	40783	108210	0	0	8119	725915	0	0
2024-06-01 22:05:32			0	34239	0	0	0	22327	20970	148674	27355	993814	40760	108211	0	0	8119	726671	0	0
2024-06-01 22:06:32			0	34218	0	0	0	22324	20960	148810	27038	993805	40770	108210	0	0	8117	727714	0	0
2024-06-01 22:07:32			0	34184	0	0	0	22363	20960	148850	27102	993858	40782	108225	0	0	8115	729340	0	0
2024-06-01 22:08:32			0	34191	0	0	0	22363	20980	149010	27046	993830	40782	108225	0	0	8115	728924	0	0
2024-06-01 22:09:32			0	34162	0	0	0	22363	20960	148954	27022	993832	40792	108225	0	0	8113	730393	0	0
2024-06-01 22:10:32			0	34181	0	0	0	22350	20950	149102	27071	993788	40769	108220	0	0	8115	729524	0	0
2024-06-01 22:11:32			0	34154	0	0	0	22350	20960	149002	27454	993770	40769	108220	0	0	8113	730776	0	0
2024-06-01 22:12:32			0	34147	0	0	0	22355	20970	149198	27268	993787	40771	108222	0	0	8113	731072	0	0
2024-06-01 22:13:32			0	34134	0	0	0	22355	20960	149166	27131	993832	40782	108222	0	0	8112	731736	0	0
2024-06-01 22:14:32			0	34147	0	0	0	22353	20960	149098	27294	993770	40781	108221	0	0	8113	731112	0	0
2024-06-01 22:15:32			0	34128	0	0	0	22342	20960	149150	27272	993770	40769	108217	0	0	8112	732024	0	0
2024-06-01 22:16:32			0	34142	0	0	0	22335	20960	149166	27301	993832	40782	108214	0	0	8113	731352	0	0
2024-06-01 22:17:32			0	34136	0	0	0	22348	20950	149130	27142	993735	40780	108219	0	0	8112	731680	0	0
2024-06-01 22:18:32			0	34151	0	0	0	22342	20960	149146	27410	993850	40781	108217	0	0	8113	730920	0	0
2024-06-01 22:19:32			0	34161	0	0	0	22358	20960	149086	27005	993796	40791	108223	0	0	8114	730441	0	0
2024-06-01 22:20:32			0	34147	0	0	0	22358	20960	149174	26963	993823	40781	108223	0	0	8113	731112	0	0
2024-06-01 22:21:32			0	34135	0	0	0	22366	20970	149082	27396	993875	40782	108226	0	0	8112	731647	0	0
2024-06-01 22:22:32			0	34157	0	0	0	22366	20950	149114	27241	993761	40780	108226	0	0	8113	730673	0	0
2024-06-01 22:23:32			0	34187	0	0	0	22361	20970	149062	27097	993840	40793	108224	0	0	8115	729156	0	0
2024-06-01 22:24:32			0	34179	0	0	0	22368	20960	149010	27114	993858	40792	108227	0	0	8114	729579	0	0
2024-06-01 22:25:32			0	34194	0	0	0	22353	20970	148942	26866	993814	40782	108221	0	0	8116	728821	0	0
2024-06-01 22:26:32			0	34205	0	0	0	22353	20960	148982	27031	993832	40792	108221	0	0	8116	728335	0	0
2024-06-01 22:27:32			0	34206	0	0	0	22342	20970	149014	27268	993840	40782	108217	0	0	8116	728247	0	0
2024-06-01 22:28:32			0	34187	0	0	0	22348	20960	148954	27339	993770	40781	108219	0	0	8115	729196	0	0
2024-06-01 22:29:32			0	34208	0	0	0	22353	20970	148994	26896	993814	40793	108221	0	0	8116	728151	0	0
2024-06-01 22:30:32			0	34185	0	0	0	22483	20960	148986	27142	993903	40791	108271	0	0	8113	729292	0	0
2024-06-01 22:31:32			0	34208	0	0	0	22407	20970	148990	27614	994035	40804	108242	0	0	8115	728151	0	0
2024-06-01 22:32:32			0	34229	0	0	0	22415	20990	148946	27261	994007	40784	108245	0	0	8117	727068	0	0
2024-06-01 22:33:32			0	34218	0	0	0	22519	20990	148838	27440	994095	40784	108285	0	0	8114	727593	0	0
2024-06-01 22:34:32			0	34231	0	0	0	22548	21010	149002	27052	994394	40819	108296	0	0	8114	726892	0	0
2024-06-01 22:35:32			0	34304	0	0	0	22381	21020	148618	27280	994252	40797	108232	0	0	8121	723374	0	0
2024-06-01 22:36:32			0	34335	0	0	0	22397	21030	148390	27145	994154	40765	108238	0	0	8123	721861	0	0
2024-06-01 22:37:32			0	34325	0	0	0	22449	21030	148578	27026	994234	40788	108258	0	0	8122	722336	0	0
2024-06-01 22:38:32			0	34277	0	0	0	22410	21030	148606	27229	994269	40789	108243	0	0	8120	724618	0	0
2024-06-01 22:39:32			0	34269	0	0	0	22477	21040	148670	27313	994250	40799	108269	0	0	8118	724959	0	0
2024-06-01 22:40:32			0	34271	0	0	0	22485	21050	148726	27507	994382	40823	108272	0	0	8118	724824	0	0
2024-06-01 22:41:32			0	34224	0	0	0	22667	21070	148854	27190	994549	40825	108342	0	0	8112	726984	0	0
2024-06-01 22:42:32			0	34215	0	0	0	22574	21080	148866	27220	994672	40835	108306	0	0	8113	727373	0	0
2024-06-01 22:43:32			0	34218	0	0	0	22566	21110	148986	27331	994635	40805	108303	0	0	8114	727109	0	0
2024-06-01 22:44:32			0	34214	0	0	0	22501	21110	148890	27440	994661	40805	108278	0	0	8115	727300	0	0
2024-06-01 22:45:32			0	34200	0	0	0	22737	21140	149006	27474	994783	40797	108369	0	0	8110	727847	0	0
2024-06-01 22:46:32			0	34200	0	0	0	22961	21150	149126	27242	995092	40853	108455	0	0	8106	727807	0	0
2024-06-01 22:47:32			0	34333	0	0	0	23158	21210	148822	27019	995646	40880	108531	0	0	8111	721235	0	0
2024-06-01 22:48:32			0	34473	0	0	0	23067	21270	148031	27303	995934	40886	108496	0	0	8121	714381	0	0
2024-06-01 22:49:32			0	34595	0	0	0	22999	21320	147455	27405	996080	40858	108470	0	0	8129	708459	0	0
2024-06-01 22:50:32			0	34681	0	0	0	23057	21350	147123	27255	996157	40883	108492	0	0	8133	704329	0	0
2024-06-01 22:51:32			0	34730	0	0	0	23054	21380	146815	27616	996155	40885	108491	0	0	8136	701933	0	0
2024-06-01 22:52:32			0	34772	0	0	0	23057	21410	146543	27293	996330	40877	108492	0	0	8138	699868	0	0
2024-06-01 22:53:32			0	34828	0	0	0	23051	21430	146307	27504	996382	40867	108490	0	0	8141	697200	0	0
2024-06-01 22:54:32			0	34851	0	0	0	23057	21460	146067	27185	996388	40881	108492	0	0	8143	696022	0	0
2024-06-01 22:55:32			0	34900	0	0	0	23067	21480	145875	27206	996493	40883	108496	0	0	8145	693687	0	0
2024-06-01 22:56:32			0	34947	0	0	0	23049	21490	145727	27376	996510	40884	108489	0	0	8148	691488	0	0
2024-06-01 22:57:32			0	34984	0	0	0	23007	21510	145571	27355	996499	40897	108473	0	0	8151	689714	0	0
2024-06-01 22:58:32			0	34987	0	0	0	22999	21520	145591	27315	996489	40855	108470	0	0	8151	689539	0	0
2024-06-01 22:59:32			0	35006	0	0	0	23010	21520	145507	27402	996454	40887	108474	0	0	8152	688669	0	0
2024-06-01 23:00:32			0	35009	0	0	0	23044	21530	145459	27268	996506	40876	108487	0	0	8152	688493	0	0
2024-06-01 23:01:32			0	35008	0	0	0	23005	21530	145351	27398	996533	40887	108472	0	0	8152	688539	0	0
2024-06-01 23:02:32			0	34977	0	0	0	22994	21550	145499	27260	996585	40879	108468	0	0	8151	689882	0	0
2024-06-01 23:03:32			0	34975	0	0	0	23051	21560	145463	27121	996575	40879	108490	0	0	8150	689935	0	0
2024-06-01 23:04:32			0	34940	0	0	0	23046	21550	145551	27149	996673	40879	108488	0	0	8148	691579	0	0
2024-06-01 23:05:32			0	34961	0	0	0	23028	21570	145527	27376	996698	40881	108481	0	0	8150	690538	0	0
2024-06-01 23:06:32			0	34970	0	0	0	23025	21560	145435	27242	996557	40869	108480	0	0	8150	690164	0	0
2024-06-01 23:07:32			0	34950	0	0	0	22976	21580	145515	27284	996609	40870	108461	0	0	8150	691004	0	0
2024-06-01 23:08:32			0	34959	0	0	0	22994	21570	145451	27050	996627	40859	108468	0	0	8150	690630	0	0
2024-06-01 23:09:32			0	34966	0	0	0	23002	21580	145499	27034	996635	40870	108471	0	0	8150	690271	0	0
2024-06-01 23:10:32			0	34941	0	0	0	22989	21580	145555	27338	996591	40882	108466	0	0	8149	691417	0	0
2024-06-01 23:11:32			0	34950	0	0	0	22932	21580	145667	27170	996644	40871	108444	0	0	8151	691004	0	0
2024-06-01 23:12:32			0	34904	0	0	0	22992	21580	145723	27093	996617	40871	108467	0	0	8147	693117	0	0
2024-06-01 23:13:32			0	34907	0	0	0	22940	21570	145595	27052	996600	40870	108447	0	0	8148	693018	0	0
2024-06-01 23:14:32			0	34921	0	0	0	22950	21570	145655	26890	996565	40870	108451	0	0	8149	692374	0	0
2024-06-01 23:15:32			0	34901	0	0	0	22968	21580	145679	27079	996582	40870	108458	0	0	8147	693255	0	0
2024-06-01 23:16:32			0	34882	0	0	0	22958	21580	145719	27071	996609	40870	108454	0	0	8147	694129	0	0
2024-06-01 23:17:32			0	34884	0	0	0	22974	21570	145655	27346	996574	40870	108460	0	0	8146	694076	0	0
2024-06-01 23:18:32			0	34863	0	0	0	22992	21570	145839	27381	996592	40859	108467	0	0	8145	695043	0	0
2024-06-01 23:19:32			0	34865	0	0	0	22992	21560	145779	27481	996503	40869	108467	0	0	8145	694989	0	0
2024-06-01 23:20:32			0	34864	0	0	0	22997	21570	145823	27126	996600	40881	108469	0	0	8145	694997	0	0
2024-06-01 23:21:32			0	34840	0	0	0	23002	21570	145815	27306	996574	40870	108471	0	0	8143	696103	0	0
2024-06-01 23:22:32			0	34847	0	0	0	23033	21580	145863	27005	996617	40871	108483	0	0	8143	695742	0	0
2024-06-01 23:23:32			0	34828	0	0	0	23012	21580	145939	27426	996688	40870	108475	0	0	8143	696618	0	0
2024-06-01 23:24:32			0	34853	0	0	0	22950	21580	145755	27246	996635	40881	108451	0	0	8145	695465	0	0
2024-06-01 23:25:32			0	34871	0	0	0	22948	21580	145819	27332	996582	40881	108450	0	0	8146	694636	0	0
2024-06-01 23:26:32			0	34851	0	0	0	22942	21570	145851	27126	996467	40848	108448	0	0	8145	695596	0	0
2024-06-01 23:27:32			0	34838	0	0	0	22948	21570	146019	27067	996459	40859	108450	0	0	8144	696196	0	0
2024-06-01 23:28:32			0	34809	0	0	0	22945	21560	146003	27150	996468	40857	108449	0	0	8143	697573	0	0
2024-06-01 23:29:32			0	34816	0	0	0	23010	21570	146179	27448	996565	40859	108474	0	0	8142	697211	0	0
2024-06-01 23:30:32			0	34797	0	0	0	22968	21570	146139	27365	996565	40892	108458	0	0	8142	698089	0	0
2024-06-01 23:31:32			0	34793	0	0	0	22997	21570	146171	27428	996592	40881	108469	0	0	8141	698274	0	0
2024-06-01 23:32:32			0	34772	0	0	0	22989	21580	146155	27180	996582	40870	108466	0	0	8140	699207	0	0
2024-06-01 23:33:32			0	34796	0	0	0	23025	21580	146063	27145	996697	40882	108480	0	0	8141	698097	0	0
2024-06-01 23:34:32			0	34809	0	0	0	23051	21580	146095	27204	996644	40871	108490	0	0	8141	697496	0	0
2024-06-01 23:35:32			0	34824	0	0	0	23023	21590	146011	27483	996652	40882	108479	0	0	8142	696764	0	0
2024-06-01 23:36:32			0	34819	0	0	0	23015	21590	145979	27398	996679	40882	108476	0	0	8142	696995	0	0
2024-06-01 23:37:32			0	34829	0	0	0	23033	21600	145935	27422	996704	40895	108483	0	0	8142	696495	0	0
2024-06-01 23:38:32			0	34839	0	0	0	23046	21590	145935	27322	996706	40872	108488	0	0	8143	696072	0	0
2024-06-01 23:39:32			0	34866	0	0	0	23015	21610	145843	27336	996739	40884	108476	0	0	8145	694750	0	0
2024-06-01 23:40:32			0	34877	0	0	0	23012	21600	145783	27131	996731	40883	108475	0	0	8145	694282	0	0
2024-06-01 23:41:32			0	34883	0	0	0	22976	21600	145731	27215	996651	40873	108461	0	0	8146	694006	0	0
2024-06-01 23:42:32			0	34879	0	0	0	22950	21600	145643	26979	996625	40873	108451	0	0	8147	694190	0	0
2024-06-01 23:43:32			0	34895	0	0	0	22968	21600	145687	26767	996616	40872	108458	0	0	8147	693454	0	0
2024-06-01 23:44:32			0	34876	0	0	0	22955	21590	145755	27459	996608	40861	108453	0	0	8146	694367	0	0
2024-06-01 23:45:32			0	34842	0	0	0	22942	21590	145815	27415	996626	40872	108448	0	0	8145	695934	0	0
2024-06-01 23:46:32			0	34845	0	0	0	22953	21570	145939	27069	996547	40859	108452	0	0	8145	695873	0	0
2024-06-01 23:47:32			0	34821	0	0	0	22955	21580	145899	27339	996529	40859	108453	0	0	8143	696942	0	0
2024-06-01 23:48:32			0	34818	0	0	0	22948	21570	145939	27298	996485	40870	108450	0	0	8143	697119	0	0
2024-06-01 23:49:32			0	34795	0	0	0	22945	21560	146023	27111	996477	40858	108449	0	0	8142	698221	0	0
2024-06-01 23:50:32			0	34807	0	0	0	22948	21570	146015	27242	996459	40881	108450	0	0	8142	697627	0	0
2024-06-01 23:51:32			0	34818	0	0	0	22937	21570	146059	27199	996485	40870	108446	0	0	8143	697119	0	0
2024-06-01 23:52:32			0	34821	0	0	0	22932	21560	145927	27319	996477	40880	108444	0	0	8143	697019	0	0
2024-06-01 23:53:32			0	34838	0	0	0	22940	21560	145939	27417	996442	40857	108447	0	0	8144	696234	0	0
2024-06-01 23:54:32			0	34828	0	0	0	22940	21550	145935	27310	996354	40879	108447	0	0	8144	696735	0	0
2024-06-01 23:55:32			0	34804	0	0	0	22935	21550	146003	27412	996433	40869	108445	0	0	8142	697843	0	0
2024-06-01 23:56:32			0	34810	0	0	0	22932	21550	145931	27556	996372	40857	108444	0	0	8143	697566	0	0
2024-06-01 23:57:32			0	34796	0	0	0	22948	21550	146063	27253	996460	40869	108450	0	0	8142	698213	0	0
2024-06-01 23:58:32			0	34812	0	0	0	22945	21550	146155	27587	996372	40879	108449	0	0	8143	697474	0	0
2024-06-01 23:59:32			0	34817	0	0	0	22945	21540	146231	27192	996381	40856	108449	0	0	8143	697281	0	0
2024-06-02 00:00:32			0	34809	0	0	0	22948	21550	146115	27237	996487	40879	108450	0	0	8143	697612	0	0
2024-06-02 00:01:32			0	34792	0	0	0	22981	21530	146115	27112	996533	40866	108463	0	0	8141	698476	0	0
2024-06-02 00:02:32			0	34785	0	0	0	22999	21550	146171	27166	996513	40879	108470	0	0	8140	698722	0	0
2024-06-02 00:03:32			0	34794	0	0	0	22986	21560	146155	27488	996548	40869	108465	0	0	8141	698267	0	0
2024-06-02 00:04:32			0	34773	0	0	0	22999	21560	146127	27098	996601	40869	108470	0	0	8140	699238	0	0
2024-06-02 00:05:32			0	34791	0	0	0	22986	21560	146067	27587	996575	40879	108465	0	0	8141	698405	0	0
2024-06-02 00:06:32			0	34811	0	0	0	22979	21570	146103	27595	996592	40870	108462	0	0	8142	697442	0	0
2024-06-02 00:07:32			0	34845	0	0	0	22984	21570	145959	27324	996592	40870	108464	0	0	8144	695873	0	0
2024-06-02 00:08:32			0	34836	0	0	0	22989	21560	145871	27275	996557	40858	108466	0	0	8143	696327	0	0
2024-06-02 00:09:32			0	34855	0	0	0	22989	21570	145879	27469	996574	40881	108466	0	0	8144	695412	0	0
2024-06-02 00:10:32			0	34878	0	0	0	22994	21560	145899	27180	996628	40869	108468	0	0	8146	694391	0	0
2024-06-02 00:11:32			0	34856	0	0	0	23010	21570	145927	27457	996627	40892	108474	0	0	8144	695366	0	0
2024-06-02 00:12:32			0	34860	0	0	0	23020	21570	145819	27057	996653	40892	108478	0	0	8144	695181	0	0
2024-06-02 00:13:32			0	34861	0	0	0	23025	21580	145955	27519	996715	40881	108480	0	0	8144	695096	0	0
2024-06-02 00:14:32			0	34827	0	0	0	23023	21580	145927	27267	996724	40871	108479	0	0	8142	696665	0	0
2024-06-02 00:15:32			0	34842	0	0	0	23036	21590	145895	27284	996714	40894	108484	0	0	8143	695934	0	0
2024-06-02 00:16:32			0	34841	0	0	0	23036	21600	145899	27270	996723	40882	108484	0	0	8143	695941	0	0
2024-06-02 00:17:32			0	34932	0	0	0	23041	21610	145615	27471	996793	40874	108486	0	0	8148	691715	0	0
2024-06-02 00:18:32			0	35006	0	0	0	23018	21590	145403	27410	996741	40882	108477	0	0	8152	688401	0	0
2024-06-02 00:19:32			0	35064	0	0	0	23025	21610	145087	27443	996793	40884	108480	0	0	8156	685675	0	0
2024-06-02 00:20:32			0	35109	0	0	0	23005	21600	144944	27248	996758	40895	108472	0	0	8158	683663	0	0
2024-06-02 00:21:32			0	35140	0	0	0	22994	21590	144728	27130	996687	40872	108468	0	0	8160	682291	0	0
2024-06-02 00:22:32			0	35196	0	0	0	22986	21600	144488	27293	996696	40872	108465	0	0	8163	679712	0	0
2024-06-02 00:23:32			0	35198	0	0	0	22955	21580	144392	27048	996644	40871	108453	0	0	8164	679697	0	0
2024-06-02 00:24:32			0	35212	0	0	0	22945	21580	144408	27064	996564	40871	108449	0	0	8165	679063	0	0
2024-06-02 00:25:32			0	35243	0	0	0	22942	21580	144268	27538	996591	40882	108448	0	0	8167	677660	0	0
2024-06-02 00:26:32			0	35228	0	0	0	22922	21560	144356	27372	996503	40869	108440	0	0	8166	678414	0	0
2024-06-02 00:27:32			0	35210	0	0	0	22916	21560	144476	27310	996415	40869	108438	0	0	8165	679229	0	0
2024-06-02 00:28:32			0	35169	0	0	0	22919	21560	144516	27253	996468	40857	108439	0	0	8163	681088	0	0
2024-06-02 00:29:32			0	35166	0	0	0	22909	21560	144580	27260	996415	40879	108435	0	0	8163	681224	0	0
2024-06-02 00:30:32			0	35157	0	0	0	22919	21540	144620	27301	996435	40867	108439	0	0	8162	681708	0	0
2024-06-02 00:31:32			0	35151	0	0	0	22927	21540	144672	27222	996417	40868	108442	0	0	8162	681981	0	0
2024-06-02 00:32:32			0	35145	0	0	0	22919	21540	144728	27057	996381	40867	108439	0	0	8161	682254	0	0
2024-06-02 00:33:32			0	35157	0	0	0	22903	21530	144616	27372	996346	40876	108433	0	0	8162	681746	0	0
2024-06-02 00:34:32			0	35150	0	0	0	22854	21520	144636	27637	996223	40876	108414	0	0	8163	682102	0	0
2024-06-02 00:35:32			0	35138	0	0	0	22789	21510	144628	27507	996233	40853	108389	0	0	8163	682686	0	0
2024-06-02 00:36:32			0	35134	0	0	0	22810	21510	144696	27646	996118	40864	108397	0	0	8163	682868	0	0
2024-06-02 00:37:32			0	35071	0	0	0	22838	21490	144923	27476	996040	40851	108408	0	0	8159	685813	0	0
2024-06-02 00:38:32			0	35024	0	0	0	22846	21480	145215	27511	996156	40851	108411	0	0	8156	687998	0	0
2024-06-02 00:39:32			0	34958	0	0	0	22833	21480	145527	27614	996067	40839	108406	0	0	8152	691022	0	0
2024-06-02 00:40:32			0	34924	0	0	0	22833	21470	145687	27336	996059	40872	108406	0	0	8150	692621	0	0
2024-06-02 00:41:32			0	34879	0	0	0	22846	21480	145887	27301	996067	40873	108411	0	0	8148	694653	0	0
2024-06-02 00:42:32			0	34866	0	0	0	22857	21470	145879	27298	996112	40861	108415	0	0	8147	695291	0	0
2024-06-02 00:43:32			0	34872	0	0	0	22857	21470	145831	27606	996130	40860	108415	0	0	8147	695015	0	0
2024-06-02 00:44:32			0	34906	0	0	0	22854	21470	145763	27642	996059	40849	108414	0	0	8149	693449	0	0
2024-06-02 00:45:32			0	34930	0	0	0	22854	21460	145551	27360	996113	40848	108414	0	0	8150	692384	0	0
2024-06-02 00:46:32			0	34990	0	0	0	22849	21460	145407	27310	996087	40871	108412	0	0	8154	689631	0	0
2024-06-02 00:47:32			0	35003	0	0	0	22864	21460	145163	27447	996087	40848	108418	0	0	8154	689036	0	0
2024-06-02 00:48:32			0	35053	0	0	0	22870	21470	145151	27274	996192	40872	108420	0	0	8157	686711	0	0
2024-06-02 00:49:32			0	35065	0	0	0	22872	21460	145035	27124	996122	40871	108421	0	0	8157	686201	0	0
2024-06-02 00:50:32			0	35077	0	0	0	22859	21470	144975	27346	996139	40861	108416	0	0	8158	685616	0	0
2024-06-02 00:51:32			0	35084	0	0	0	22864	21460	144915	27171	996042	40860	108418	0	0	8159	685335	0	0
2024-06-02 00:52:32			0	35102	0	0	0	22867	21460	144887	27559	996095	40860	108419	0	0	8160	684514	0	0
2024-06-02 00:53:32			0	35111	0	0	0	22859	21460	144951	27227	996122	40860	108416	0	0	8160	684104	0	0
2024-06-02 00:54:32			0	35103	0	0	0	22851	21460	144855	27053	996149	40848	108413	0	0	8160	684468	0	0
2024-06-02 00:55:32			0	35103	0	0	0	22857	21460	144912	27486	996095	40860	108415	0	0	8160	684468	0	0
2024-06-02 00:56:32			0	35095	0	0	0	22867	21470	144855	27653	996104	40860	108419	0	0	8159	684795	0	0
2024-06-02 00:57:32			0	35090	0	0	0	22857	21460	144843	27300	996069	40848	108415	0	0	8159	685061	0	0
2024-06-02 00:58:32			0	35105	0	0	0	22857	21460	144891	27485	996095	40871	108415	0	0	8160	684377	0	0
2024-06-02 00:59:32			0	35091	0	0	0	22854	21460	144891	27473	996034	40860	108414	0	0	8159	685015	0	0
2024-06-02 01:00:32			0	35065	0	0	0	22859	21440	145019	27543	996026	40869	108416	0	0	8158	686278	0	0
2024-06-02 01:01:32			0	35081	0	0	0	22859	21450	145023	27358	996025	40870	108416	0	0	8159	685509	0	0
2024-06-02 01:02:32			0	35059	0	0	0	22862	21460	144939	27213	996122	40871	108417	0	0	8157	686475	0	0
2024-06-02 01:03:32			0	35062	0	0	0	22872	21460	145083	27282	996069	40860	108421	0	0	8157	686338	0	0
2024-06-02 01:04:32			0	35051	0	0	0	22880	21460	145111	27301	996060	40871	108424	0	0	8157	686841	0	0
2024-06-02 01:05:32			0	35033	0	0	0	22872	21460	145235	27481	996095	40860	108421	0	0	8156	687663	0	0
2024-06-02 01:06:32			0	35028	0	0	0	22877	21460	145243	27144	996034	40860	108423	0	0	8155	687892	0	0
2024-06-02 01:07:32			0	35010	0	0	0	22880	21470	145275	27369	996104	40871	108424	0	0	8154	688677	0	0
2024-06-02 01:08:32			0	35015	0	0	0	22872	21480	145271	27524	996147	40873	108421	0	0	8155	688410	0	0
2024-06-02 01:09:32			0	35054	0	0	0	22875	21460	145155	27331	996202	40860	108422	0	0	8157	686704	0	0
2024-06-02 01:10:32			0	35046	0	0	0	22872	21460	145063	27029	996149	40860	108421	0	0	8156	687069	0	0
2024-06-02 01:11:32			0	35056	0	0	0	22877	21460	145047	27351	996095	40871	108423	0	0	8157	686612	0	0
2024-06-02 01:12:32			0	35040	0	0	0	22864	21460	145035	27142	996175	40860	108418	0	0	8156	687343	0	0
2024-06-02 01:13:32			0	35040	0	0	0	22872	21480	145079	27358	996121	40873	108421	0	0	8156	687267	0	0
2024-06-02 01:14:32			0	35057	0	0	0	22870	21470	145103	27324	996130	40871	108420	0	0	8157	686529	0	0
2024-06-02 01:15:32			0	35048	0	0	0	22875	21470	145035	27343	996139	40872	108422	0	0	8157	686939	0	0
2024-06-02 01:16:32			0	35094	0	0	0	22867	21460	144987	27471	996069	40848	108419	0	0	8159	684879	0	0
2024-06-02 01:17:32			0	35052	0	0	0	22851	21460	145055	27135	996095	40860	108413	0	0	8157	686795	0	0
2024-06-02 01:18:32			0	35065	0	0	0	22857	21470	145035	27367	996139	40861	108415	0	0	8158	686163	0	0
2024-06-02 01:19:32			0	35075	0	0	0	22864	21470	145099	27279	996104	40848	108418	0	0	8158	685707	0	0
2024-06-02 01:20:32			0	35083	0	0	0	22849	21470	144935	27365	996130	40848	108412	0	0	8159	685342	0	0
2024-06-02 01:21:32			0	35076	0	0	0	22846	21460	144851	27170	996095	40871	108411	0	0	8159	685699	0	0
2024-06-02 01:22:32			0	35097	0	0	0	22846	21470	144891	27126	996051	40848	108411	0	0	8160	684704	0	0
2024-06-02 01:23:32			0	35073	0	0	0	22836	21460	144911	27256	996060	40848	108407	0	0	8159	685836	0	0
2024-06-02 01:24:32			0	35076	0	0	0	22841	21460	144959	27270	996113	40871	108409	0	0	8159	685699	0	0
2024-06-02 01:25:32			0	35060	0	0	0	22833	21460	144967	27196	996034	40860	108406	0	0	8158	686430	0	0
2024-06-02 01:26:32			0	35066	0	0	0	22846	21450	144971	27272	995990	40858	108411	0	0	8158	686194	0	0
2024-06-02 01:27:32			0	35073	0	0	0	22828	21460	144999	27215	996007	40860	108404	0	0	8159	685836	0	0
2024-06-02 01:28:32			0	35073	0	0	0	22836	21450	144911	27034	996043	40858	108407	0	0	8158	685874	0	0
2024-06-02 01:29:32			0	35078	0	0	0	22833	21440	144855	27310	995946	40847	108406	0	0	8159	685684	0	0
2024-06-02 01:30:32			0	35066	0	0	0	22823	21440	144839	27242	996000	40847	108402	0	0	8158	686232	0	0
2024-06-02 01:31:32			0	35087	0	0	0	22831	21450	144915	26981	996016	40847	108405	0	0	8159	685236	0	0
2024-06-02 01:32:32			0	35097	0	0	0	22823	21440	144967	27229	995973	40858	108402	0	0	8160	684818	0	0
2024-06-02 01:33:32			0	35070	0	0	0	22818	21440	144959	27386	995946	40858	108400	0	0	8159	686049	0	0
2024-06-02 01:34:32			0	35073	0	0	0	22812	21440	145043	27092	996000	40869	108398	0	0	8159	685912	0	0
2024-06-02 01:35:32			0	35048	0	0	0	22810	21420	145059	27438	995913	40856	108397	0	0	8157	687130	0	0
2024-06-02 01:36:32			0	35058	0	0	0	22812	21420	145043	27033	995913	40856	108398	0	0	8158	686674	0	0
2024-06-02 01:37:32			0	35064	0	0	0	22810	21420	144999	27190	995894	40856	108397	0	0	8158	686400	0	0
2024-06-02 01:38:32			0	35042	0	0	0	22810	21430	145019	27254	996009	40856	108397	0	0	8157	687366	0	0
2024-06-02 01:39:32			0	35029	0	0	0	22799	21420	145127	27469	995913	40856	108393	0	0	8157	687999	0	0
2024-06-02 01:40:32			0	35031	0	0	0	22810	21420	145111	27448	995859	40845	108397	0	0	8156	687908	0	0
2024-06-02 01:41:32			0	35006	0	0	0	22792	21420	145095	27039	995939	40834	108390	0	0	8155	689052	0	0
2024-06-02 01:42:32			0	35024	0	0	0	22792	21400	145087	27377	995789	40854	108390	0	0	8156	688304	0	0
2024-06-02 01:43:32			0	35015	0	0	0	22786	21400	145159	27526	995896	40843	108388	0	0	8156	688716	0	0
2024-06-02 01:44:32			0	35024	0	0	0	22786	21400	145207	27400	995843	40854	108388	0	0	8156	688304	0	0
2024-06-02 01:45:32			0	34992	0	0	0	22779	21400	145207	27111	995869	40843	108385	0	0	8155	689769	0	0
2024-06-02 01:46:32			0	35005	0	0	0	22781	21400	145215	27424	995843	40866	108386	0	0	8155	689174	0	0
2024-06-02 01:47:32			0	35026	0	0	0	22776	21400	145131	27237	995869	40843	108384	0	0	8157	688213	0	0
2024-06-02 01:48:32			0	35025	0	0	0	22784	21390	145235	27177	995773	40842	108387	0	0	8156	688297	0	0
2024-06-02 01:49:32			0	35025	0	0	0	22786	21400	145147	27147	995754	40853	108388	0	0	8156	688258	0	0
2024-06-02 01:50:32			0	35024	0	0	0	22792	21400	145219	27256	995781	40853	108390	0	0	8156	688304	0	0
2024-06-02 01:51:32			0	35017	0	0	0	22784	21390	145239	27424	995746	40842	108387	0	0	8156	688663	0	0
2024-06-02 01:52:32			0	35014	0	0	0	22789	21390	145247	27052	995719	40842	108389	0	0	8156	688800	0	0
2024-06-02 01:53:32			0	34993	0	0	0	22786	21400	145227	27176	995781	40865	108388	0	0	8155	689724	0	0
2024-06-02 01:54:32			0	34942	0	0	0	22786	21390	145447	27255	995773	40865	108388	0	0	8152	692102	0	0
2024-06-02 01:55:32			0	34898	0	0	0	22779	21390	145567	27267	995737	40853	108385	0	0	8150	694126	0	0
2024-06-02 01:56:32			0	34863	0	0	0	22779	21380	145787	26902	995747	40840	108385	0	0	8148	695777	0	0
2024-06-02 01:57:32			0	34834	0	0	0	22774	21380	145963	27137	995721	40852	108383	0	0	8146	697116	0	0
2024-06-02 01:58:32			0	34803	0	0	0	22779	21380	146103	27282	995729	40841	108385	0	0	8144	698549	0	0
2024-06-02 01:59:32			0	34752	0	0	0	22768	21380	146235	27374	995729	40864	108381	0	0	8142	700912	0	0
2024-06-02 02:00:32			0	34716	0	0	0	22768	21370	146423	27438	995686	40852	108381	0	0	8140	702622	0	0
2024-06-02 02:01:32			0	34698	0	0	0	22771	21380	146503	27322	995641	40840	108382	0	0	8139	703420	0	0
2024-06-02 02:02:32			0	34698	0	0	0	22761	21370	146587	27244	995712	40852	108378	0	0	8139	703459	0	0
2024-06-02 02:03:32			0	34655	0	0	0	22753	21370	146531	27351	995686	40852	108375	0	0	8136	705461	0	0
2024-06-02 02:04:32			0	34648	0	0	0	22753	21370	146695	27405	995632	40852	108375	0	0	8136	705788	0	0
2024-06-02 02:05:32			0	34601	0	0	0	22758	21370	146871	27376	995677	40852	108377	0	0	8133	707982	0	0
2024-06-02 02:06:32			0	34592	0	0	0	22755	21360	146975	27597	995589	40839	108376	0	0	8133	708442	0	0
2024-06-02 02:07:32			0	34568	0	0	0	22750	21360	146979	27164	995687	40861	108374	0	0	8132	709565	0	0
2024-06-02 02:08:32			0	34574	0	0	0	22753	21360	147111	27402	995660	40828	108375	0	0	8132	709284	0	0
2024-06-02 02:09:32			0	34543	0	0	0	22735	21350	147071	27400	995625	40839	108368	0	0	8130	710776	0	0
2024-06-02 02:10:32			0	34541	0	0	0	22748	21350	147119	27331	995625	40839	108373	0	0	8130	710870	0	0
2024-06-02 02:11:32			0	34555	0	0	0	22740	21350	147171	27303	995625	40839	108370	0	0	8131	710214	0	0
2024-06-02 02:12:32			0	34541	0	0	0	22732	21350	147099	27627	995564	40861	108367	0	0	8130	710870	0	0
2024-06-02 02:13:32			0	34534	0	0	0	22735	21350	147151	27443	995572	40861	108368	0	0	8130	711198	0	0
2024-06-02 02:14:32			0	34530	0	0	0	22732	21360	147107	27279	995554	40850	108367	0	0	8130	711346	0	0
2024-06-02 02:15:32			0	34536	0	0	0	22729	21350	147147	27509	995564	40839	108366	0	0	8130	711104	0	0
2024-06-02 02:16:32			0	34533	0	0	0	22724	21340	147203	27270	995547	40859	108364	0	0	8130	711285	0	0
2024-06-02 02:17:32			0	34532	0	0	0	22724	21340	147191	27341	995520	40848	108364	0	0	8130	711331	0	0
2024-06-02 02:18:32			0	34539	0	0	0	22714	21340	147259	27481	995529	40838	108360	0	0	8131	711003	0	0
2024-06-02 02:19:32			0	34535	0	0	0	22719	21330	147191	27472	995512	40848	108362	0	0	8130	711230	0	0
2024-06-02 02:20:32			0	34543	0	0	0	22719	21340	147287	27680	995467	40848	108362	0	0	8131	710816	0	0
2024-06-02 02:21:32			0	34560	0	0	0	22714	21330	147251	27770	995485	40848	108360	0	0	8132	710058	0	0
2024-06-02 02:22:32			0	34569	0	0	0	22711	21320	147151	27486	995441	40858	108359	0	0	8132	709676	0	0
2024-06-02 02:23:32			0	34574	0	0	0	22716	21330	147091	27526	995476	40836	108361	0	0	8132	709403	0	0
2024-06-02 02:24:32			0	34569	0	0	0	22714	21330	147087	27597	995450	40847	108360	0	0	8132	709637	0	0
2024-06-02 02:25:32			0	34551	0	0	0	22711	21320	147187	27564	995521	40836	108359	0	0	8131	710520	0	0
2024-06-02 02:26:32			0	34560	0	0	0	22709	21320	147187	27509	995433	40835	108358	0	0	8132	710098	0	0
2024-06-02 02:27:32			0	34542	0	0	0	22711	21310	147235	27614	995451	40834	108359	0	0	8131	710981	0	0
2024-06-02 02:28:32			0	34536	0	0	0	22711	21320	147295	27438	995460	40858	108359	0	0	8130	711223	0	0
2024-06-02 02:29:32			0	34515	0	0	0	22714	21320	147347	27384	995513	40835	108360	0	0	8129	712209	0	0
2024-06-02 02:30:32			0	34496	0	0	0	22716	21310	147375	27464	995398	40834	108361	0	0	8128	713141	0	0
2024-06-02 02:31:32			0	34497	0	0	0	22711	21310	147419	27170	995398	40834	108359	0	0	8128	713094	0	0
2024-06-02 02:32:32			0	34475	0	0	0	22703	21310	147423	27467	995451	40845	108356	0	0	8127	714129	0	0
2024-06-02 02:33:32			0	34475	0	0	0	22693	21310	147503	27398	995416	40834	108352	0	0	8127	714129	0	0
2024-06-02 02:34:32			0	34499	0	0	0	22698	21300	147399	27232	995381	40834	108354	0	0	8128	713039	0	0
2024-06-02 02:35:32			0	34504	0	0	0	22696	21310	147279	27286	995416	40824	108353	0	0	8129	712765	0	0
2024-06-02 02:36:32			0	34523	0	0	0	22709	21310	147259	27554	995478	40845	108358	0	0	8130	711873	0	0
2024-06-02 02:37:32			0	34548	0	0	0	22711	21310	147263	27242	995363	40845	108359	0	0	8131	710700	0	0
2024-06-02 02:38:32			0	34548	0	0	0	22703	21310	147127	27012	995478	40845	108356	0	0	8131	710700	0	0
2024-06-02 02:39:32			0	34562	0	0	0	22716	21300	147147	27414	995399	40856	108361	0	0	8132	710083	0	0
2024-06-02 02:40:32			0	34594	0	0	0	22722	21300	147023	27407	995399	40844	108363	0	0	8133	708585	0	0
2024-06-02 02:41:32			0	34621	0	0	0	22716	21310	146879	27209	995469	40834	108361	0	0	8135	707284	0	0
2024-06-02 02:42:32			0	34635	0	0	0	22709	21300	146795	27403	995426	40844	108358	0	0	8136	706669	0	0
2024-06-02 02:43:32			0	34667	0	0	0	22716	21310	146703	27156	995416	40834	108361	0	0	8137	705137	0	0
2024-06-02 02:44:32			0	34660	0	0	0	22706	21300	146631	27519	995461	40845	108357	0	0	8137	705503	0	0
2024-06-02 02:45:32			0	34684	0	0	0	22716	21310	146623	26927	995443	40857	108361	0	0	8138	704345	0	0
2024-06-02 02:46:32			0	34702	0	0	0	22714	21300	146495	27350	995434	40834	108360	0	0	8139	703547	0	0
2024-06-02 02:47:32			0	34690	0	0	0	22714	21310	146491	26958	995389	40845	108360	0	0	8139	704066	0	0
2024-06-02 02:48:32			0	34698	0	0	0	22722	21300	146427	27279	995399	40844	108363	0	0	8139	703733	0	0
2024-06-02 02:49:32			0	34697	0	0	0	22719	21300	146519	27351	995461	40845	108362	0	0	8139	703779	0	0
2024-06-02 02:50:32			0	34707	0	0	0	22714	21310	146531	27389	995469	40845	108360	0	0	8140	703275	0	0
2024-06-02 02:51:32			0	34681	0	0	0	22706	21300	146507	27239	995461	40834	108357	0	0	8138	704524	0	0
2024-06-02 02:52:32			0	34692	0	0	0	22711	21300	146531	27268	995354	40845	108359	0	0	8139	704012	0	0
2024-06-02 02:53:32			0	34684	0	0	0	22706	21290	146487	27246	995364	40855	108357	0	0	8138	704424	0	0
2024-06-02 02:54:32			0	34704	0	0	0	22703	21300	146531	27396	995381	40834	108356	0	0	8140	703454	0	0
2024-06-02 02:55:32			0	34692	0	0	0	22706	21310	146539	27597	995496	40834	108357	0	0	8139	703973	0	0
2024-06-02 02:56:32			0	34713	0	0	0	22706	21300	146427	27410	995399	40833	108357	0	0	8140	703035	0	0
2024-06-02 02:57:32			0	34735	0	0	0	22703	21290	146303	27523	995364	40844	108356	0	0	8141	702052	0	0
2024-06-02 02:58:32			0	34732	0	0	0	22701	21300	146379	27293	995354	40857	108355	0	0	8141	702152	0	0
2024-06-02 02:59:32			0	34759	0	0	0	22688	21290	146363	27199	995391	40844	108350	0	0	8143	700938	0	0
2024-06-02 03:00:32			0	34759	0	0	0	22701	21290	146199	27267	995409	40844	108355	0	0	8143	700938	0	0
2024-06-02 03:01:32			0	34756	0	0	0	22698	21290	146211	27055	995382	40855	108354	0	0	8143	701077	0	0
2024-06-02 03:02:32			0	34761	0	0	0	22701	21290	146275	27161	995444	40855	108355	0	0	8143	700845	0	0
2024-06-02 03:03:32			0	34772	0	0	0	22703	21300	146255	27395	995399	40833	108356	0	0	8143	700296	0	0
2024-06-02 03:04:32			0	34783	0	0	0	22698	21290	146143	27130	995391	40844	108354	0	0	8144	699825	0	0
2024-06-02 03:05:32			0	34768	0	0	0	22703	21290	146155	27374	995391	40855	108356	0	0	8143	700520	0	0
2024-06-02 03:06:32			0	34756	0	0	0	22709	21290	146311	27182	995382	40822	108358	0	0	8142	701077	0	0
2024-06-02 03:07:32			0	34759	0	0	0	22711	21290	146259	27343	995382	40855	108359	0	0	8143	700938	0	0
2024-06-02 03:08:32			0	34744	0	0	0	22703	21280	146391	27178	995374	40844	108356	0	0	8142	701673	0	0
2024-06-02 03:09:32			0	34780	0	0	0	22701	21300	146359	27201	995399	40856	108355	0	0	8144	699925	0	0
2024-06-02 03:10:32			0	34776	0	0	0	22703	21300	146247	27173	995408	40845	108356	0	0	8144	700110	0	0
2024-06-02 03:11:32			0	34764	0	0	0	22701	21290	146307	27414	995382	40855	108355	0	0	8143	700706	0	0
2024-06-02 03:12:32			0	34763	0	0	0	22703	21280	146239	27460	995374	40844	108356	0	0	8143	700791	0	0
2024-06-02 03:13:32			0	34778	0	0	0	22709	21290	146311	27312	995436	40844	108358	0	0	8144	700057	0	0
2024-06-02 03:14:32			0	34769	0	0	0	22690	21300	146199	27398	995399	40844	108351	0	0	8144	700435	0	0
2024-06-02 03:15:32			0	34770	0	0	0	22693	21290	146195	27168	995417	40833	108352	0	0	8143	700427	0	0
2024-06-02 03:16:32			0	34788	0	0	0	22698	21290	146211	27241	995391	40855	108354	0	0	8144	699593	0	0
2024-06-02 03:17:32			0	34777	0	0	0	22706	21290	146251	27126	995364	40844	108357	0	0	8144	700103	0	0
2024-06-02 03:18:32			0	34753	0	0	0	22698	21300	146227	27055	995346	40844	108354	0	0	8142	701177	0	0
2024-06-02 03:19:32			0	34759	0	0	0	22703	21290	146211	26998	995391	40866	108356	0	0	8143	700938	0	0
2024-06-02 03:20:32			0	34759	0	0	0	22703	21300	146263	27131	995399	40833	108356	0	0	8143	700899	0	0
2024-06-02 03:21:32			0	34763	0	0	0	22690	21290	146255	27062	995417	40844	108351	0	0	8143	700752	0	0
2024-06-02 03:22:32			0	34793	0	0	0	22690	21290	146223	27381	995356	40844	108351	0	0	8145	699362	0	0
2024-06-02 03:23:32			0	34806	0	0	0	22680	21290	146059	27346	995391	40844	108347	0	0	8146	698760	0	0
2024-06-02 03:24:32			0	34785	0	0	0	22677	21280	146079	27138	995321	40844	108346	0	0	8145	699771	0	0
2024-06-02 03:25:32			0	34782	0	0	0	22683	21280	146087	27365	995374	40844	108348	0	0	8144	699910	0	0
2024-06-02 03:26:32			0	34775	0	0	0	22685	21280	146203	27327	995347	40833	108349	0	0	8144	700234	0	0
2024-06-02 03:27:32			0	34760	0	0	0	22685	21290	146207	27138	995303	40833	108349	0	0	8143	700891	0	0
2024-06-02 03:28:32			0	34748	0	0	0	22677	21280	146247	27255	995268	40833	108346	0	0	8142	701487	0	0
2024-06-02 03:29:32			0	34735	0	0	0	22675	21280	146315	27277	995339	40854	108345	0	0	8142	702091	0	0
2024-06-02 03:30:32			0	34726	0	0	0	22672	21290	146495	27220	995329	40844	108344	0	0	8141	702470	0	0
2024-06-02 03:31:32			0	34698	0	0	0	22667	21280	146531	27145	995347	40844	108342	0	0	8140	703811	0	0
2024-06-02 03:32:32			0	34673	0	0	0	22672	21270	146603	27346	995242	40832	108344	0	0	8138	705014	0	0
2024-06-02 03:33:32			0	34689	0	0	0	22662	21270	146611	27072	995322	40842	108340	0	0	8139	704269	0	0
2024-06-02 03:34:32			0	34666	0	0	0	22659	21270	146655	27256	995277	40820	108339	0	0	8138	705340	0	0
2024-06-02 03:35:32			0	34657	0	0	0	22662	21270	146751	27459	995251	40842	108340	0	0	8138	705760	0	0
2024-06-02 03:36:32			0	34629	0	0	0	22662	21270	146775	27395	995269	40842	108340	0	0	8136	707067	0	0
2024-06-02 03:37:32			0	34627	0	0	0	22649	21270	146839	27138	995295	40842	108335	0	0	8136	707160	0	0
2024-06-02 03:38:32			0	34625	0	0	0	22646	21260	146715	27498	995260	40841	108334	0	0	8136	707293	0	0
2024-06-02 03:39:32			0	34621	0	0	0	22651	21250	146779	27159	995182	40840	108336	0	0	8136	707519	0	0
2024-06-02 03:40:32			0	34654	0	0	0	22638	21260	146783	27078	995225	40841	108331	0	0	8138	705939	0	0
2024-06-02 03:41:32			0	34640	0	0	0	22636	21250	146703	27310	995155	40830	108330	0	0	8137	706632	0	0
2024-06-02 03:42:32			0	34640	0	0	0	22623	21250	146759	27284	995164	40830	108325	0	0	8137	706632	0	0
2024-06-02 03:43:32			0	34642	0	0	0	22631	21260	146871	27469	995127	40852	108328	0	0	8137	706499	0	0
2024-06-02 03:44:32			0	34643	0	0	0	22633	21250	146755	27034	995235	40830	108329	0	0	8137	706492	0	0
2024-06-02 03:45:32			0	34632	0	0	0	22636	21240	146843	27542	995120	40839	108330	0	0	8137	707045	0	0
2024-06-02 03:46:32			0	34628	0	0	0	22625	21250	146899	27355	995128	40840	108326	0	0	8137	707192	0	0
2024-06-02 03:47:32			0	34611	0	0	0	22618	21250	146903	27476	995155	40830	108323	0	0	8136	707987	0	0
2024-06-02 03:48:32			0	34626	0	0	0	22618	21240	146839	27388	995165	40839	108323	0	0	8137	707325	0	0
2024-06-02 03:49:32			0	34635	0	0	0	22625	21230	146835	27241	995183	40838	108326	0	0	8137	706944	0	0
2024-06-02 03:50:32			0	34636	0	0	0	22618	21230	146943	27372	995130	40828	108323	0	0	8137	706897	0	0
2024-06-02 03:51:32			0	34647	0	0	0	22615	21230	146783	27124	995077	40828	108322	0	0	8138	706384	0	0
2024-06-02 03:52:32			0	34664	0	0	0	22618	21230	146683	27445	995050	40838	108323	0	0	8139	705590	0	0
2024-06-02 03:53:32			0	34675	0	0	0	22618	21230	146655	27653	995103	40838	108323	0	0	8139	705078	0	0
2024-06-02 03:54:32			0	34696	0	0	0	22618	21230	146587	27611	995095	40850	108323	0	0	8140	704099	0	0
2024-06-02 03:55:32			0	34722	0	0	0	22610	21220	146527	27483	995078	40836	108320	0	0	8142	702929	0	0
2024-06-02 03:56:32			0	34716	0	0	0	22607	21220	146587	27251	995060	40849	108319	0	0	8142	703208	0	0
2024-06-02 03:57:32			0	34724	0	0	0	22615	21230	146439	27310	995041	40850	108322	0	0	8142	702797	0	0
2024-06-02 03:58:32			0	34696	0	0	0	22620	21230	146511	27616	995068	40838	108324	0	0	8140	704099	0	0
2024-06-02 03:59:32			0	34692	0	0	0	22620	21230	146575	27659	995068	40838	108324	0	0	8140	704286	0	0
2024-06-02 04:00:32			0	34696	0	0	0	22615	21220	146671	27334	995104	40859	108322	0	0	8140	704139	0	0
2024-06-02 04:01:32			0	34694	0	0	0	22620	21230	146711	27312	995095	40838	108324	0	0	8140	704192	0	0
2024-06-02 04:02:32			0	34670	0	0	0	22607	21230	146691	27398	995095	40850	108319	0	0	8139	705311	0	0
2024-06-02 04:03:32			0	34664	0	0	0	22599	21220	146783	27334	995025	40836	108316	0	0	8139	705630	0	0
2024-06-02 04:04:32			0	34675	0	0	0	22599	21220	146735	27131	995025	40836	108316	0	0	8139	705117	0	0
2024-06-02 04:05:32			0	34642	0	0	0	22599	21210	146763	27260	994954	40836	108316	0	0	8138	706695	0	0
2024-06-02 04:06:32			0	34644	0	0	0	22602	21210	146767	27568	995016	40826	108317	0	0	8138	706602	0	0
2024-06-02 04:07:32			0	34633	0	0	0	22602	21210	146887	27331	994981	40858	108317	0	0	8137	707116	0	0
2024-06-02 04:08:32			0	34614	0	0	0	22610	21210	147011	27360	994928	40836	108320	0	0	8136	708004	0	0
2024-06-02 04:09:32			0	34583	0	0	0	22607	21210	147011	27072	995043	40836	108319	0	0	8134	709454	0	0
2024-06-02 04:10:32			0	34563	0	0	0	22605	21210	147059	27279	994981	40836	108318	0	0	8133	710391	0	0
2024-06-02 04:11:32			0	34557	0	0	0	22592	21210	147251	26783	995034	40825	108313	0	0	8133	710672	0	0
2024-06-02 04:12:32			0	34541	0	0	0	22599	21210	147215	27390	995034	40836	108316	0	0	8132	711423	0	0
2024-06-02 04:13:32			0	34535	0	0	0	22586	21210	147307	27187	995007	40836	108311	0	0	8132	711704	0	0
2024-06-02 04:14:32			0	34539	0	0	0	22599	21200	147335	27251	995052	40847	108316	0	0	8132	711556	0	0
2024-06-02 04:15:32			0	34569	0	0	0	22584	21210	147111	27447	995043	40815	108310	0	0	8134	710110	0	0
2024-06-02 04:16:32			0	34607	0	0	0	22594	21200	146939	27329	994937	40835	108314	0	0	8136	708370	0	0
2024-06-02 04:17:32			0	34622	0	0	0	22592	21200	146819	27606	994991	40835	108313	0	0	8137	707669	0	0
2024-06-02 04:18:32			0	34658	0	0	0	22586	21200	146755	27280	994946	40836	108311	0	0	8139	705988	0	0
2024-06-02 04:19:32			0	34664	0	0	0	22586	21200	146659	27528	994991	40824	108311	0	0	8139	705708	0	0
2024-06-02 04:20:32			0	34677	0	0	0	22579	21190	146647	27060	994956	40824	108308	0	0	8140	705141	0	0
2024-06-02 04:21:32			0	34690	0	0	0	22584	21200	146663	27521	994911	40835	108310	0	0	8140	704496	0	0
2024-06-02 04:22:32			0	34698	0	0	0	22576	21190	146599	27372	994902	40813	108307	0	0	8141	704163	0	0
2024-06-02 04:23:32			0	34682	0	0	0	22563	21200	146631	27048	994884	40835	108302	0	0	8140	704869	0	0
2024-06-02 04:24:32			0	34703	0	0	0	22568	21190	146587	27275	994921	40845	108304	0	0	8141	703930	0	0
2024-06-02 04:25:32			0	34713	0	0	0	22576	21180	146575	27020	994939	40834	108307	0	0	8142	703503	0	0
2024-06-02 04:26:32			0	34707	0	0	0	22571	21180	146607	27197	994930	40833	108305	0	0	8142	703783	0	0
2024-06-02 04:27:32			0	34681	0	0	0	22579	21180	146555	27256	994904	40833	108308	0	0	8140	704994	0	0
2024-06-02 04:28:32			0	34721	0	0	0	22594	21190	146467	27391	994947	40824	108314	0	0	8142	703092	0	0
2024-06-02 04:29:32			0	34732	0	0	0	22592	21180	146495	27237	994886	40824	108313	0	0	8143	702620	0	0
2024-06-02 04:30:32			0	34742	0	0	0	22597	21180	146411	27234	994992	40845	108315	0	0	8143	702155	0	0
2024-06-02 04:31:32			0	34773	0	0	0	22607	21190	146411	27459	994921	40834	108319	0	0	8145	700677	0	0
2024-06-02 04:32:32			0	34788	0	0	0	22599	21190	146247	27405	995009	40835	108316	0	0	8146	699982	0	0
2024-06-02 04:33:32			0	34812	0	0	0	22589	21180	146099	27213	994939	40834	108312	0	0	8147	698909	0	0
2024-06-02 04:34:32			0	34819	0	0	0	22594	21190	146139	27320	994956	40835	108314	0	0	8147	698546	0	0
2024-06-02 04:35:32			0	34831	0	0	0	22594	21190	146031	27149	995009	40824	108314	0	0	8148	697991	0	0
2024-06-02 04:36:32			0	34844	0	0	0	22605	21200	145971	27164	994991	40835	108318	0	0	8149	697351	0	0
2024-06-02 04:37:32			0	34869	0	0	0	22602	21190	145899	27052	994974	40834	108317	0	0	8150	696235	0	0
2024-06-02 04:38:32			0	34891	0	0	0	22612	21180	145799	27150	994965	40824	108321	0	0	8151	695258	0	0
2024-06-02 04:39:32			0	34911	0	0	0	22612	21200	145775	27481	995017	40857	108321	0	0	8152	694260	0	0
2024-06-02 04:40:32			0	34927	0	0	0	22610	21190	145643	27199	995009	40835	108320	0	0	8153	693561	0	0
2024-06-02 04:41:32			0	34949	0	0	0	22592	21200	145559	27459	995017	40835	108313	0	0	8155	692511	0	0
2024-06-02 04:42:32			0	34965	0	0	0	22612	21200	145535	27201	995017	40824	108321	0	0	8155	691776	0	0
2024-06-02 04:43:32			0	34982	0	0	0	22605	21200	145339	27235	994991	40835	108318	0	0	8156	690995	0	0
2024-06-02 04:44:32			0	35001	0	0	0	22599	21200	145327	27119	994991	40835	108316	0	0	8157	690123	0	0
2024-06-02 04:45:32			0	35004	0	0	0	22607	21200	145235	27192	995079	40825	108319	0	0	8157	689986	0	0
2024-06-02 04:46:32			0	35041	0	0	0	22599	21210	145155	27232	994981	40836	108316	0	0	8160	688253	0	0
2024-06-02 04:47:32			0	35063	0	0	0	22607	21200	145127	27144	994972	40847	108319	0	0	8161	687285	0	0
2024-06-02 04:48:32			0	35048	0	0	0	22592	21190	145123	27317	994982	40835	108313	0	0	8160	688009	0	0
2024-06-02 04:49:32			0	35064	0	0	0	22594	21210	145067	27483	995016	40836	108314	0	0	8161	687201	0	0
2024-06-02 04:50:32			0	35062	0	0	0	22605	21190	145023	27064	994974	40845	108318	0	0	8161	687368	0	0
2024-06-02 04:51:32			0	35063	0	0	0	22597	21190	145123	27128	995009	40846	108315	0	0	8161	687323	0	0
2024-06-02 04:52:32			0	35064	0	0	0	22605	21200	145163	27312	994999	40847	108318	0	0	8161	687239	0	0
2024-06-02 04:53:32			0	35069	0	0	0	22599	21200	145031	27542	994991	40835	108316	0	0	8161	687010	0	0
2024-06-02 04:54:32			0	35047	0	0	0	22594	21200	145171	27462	994964	40835	108314	0	0	8160	688016	0	0
2024-06-02 04:55:32			0	35056	0	0	0	22592	21200	145231	27422	994999	40847	108313	0	0	8161	687605	0	0
2024-06-02 04:56:32			0	35043	0	0	0	22586	21190	145151	26958	994974	40834	108311	0	0	8160	688237	0	0
2024-06-02 04:57:32			0	35047	0	0	0	22584	21200	145191	27364	994964	40846	108310	0	0	8160	688016	0	0
2024-06-02 04:58:32			0	35032	0	0	0	22568	21210	145191	27291	994981	40825	108304	0	0	8160	688664	0	0
2024-06-02 04:59:32			0	35040	0	0	0	22568	21190	145247	27048	994956	40835	108304	0	0	8160	688375	0	0
2024-06-02 05:00:32			0	35018	0	0	0	22571	21190	145187	27197	994956	40824	108305	0	0	8159	689382	0	0
2024-06-02 05:01:32			0	35018	0	0	0	22584	21180	145303	27376	994877	40844	108310	0	0	8158	689420	0	0
2024-06-02 05:02:32			0	35006	0	0	0	22568	21190	145267	27447	994929	40846	108304	0	0	8158	689932	0	0
2024-06-02 05:03:32			0	35003	0	0	0	22579	21180	145419	27187	994904	40855	108308	0	0	8158	690108	0	0
2024-06-02 05:04:32			0	35011	0	0	0	22581	21180	145427	27168	994939	40845	108309	0	0	8158	689741	0	0
2024-06-02 05:05:32			0	34999	0	0	0	22594	21170	145447	27313	994807	40843	108314	0	0	8157	690330	0	0
2024-06-02 05:06:32			0	35002	0	0	0	22602	21190	145323	27403	994894	40845	108317	0	0	8157	690116	0	0
2024-06-02 05:07:32			0	34988	0	0	0	22605	21180	145407	27076	994904	40844	108318	0	0	8156	690796	0	0
2024-06-02 05:08:32			0	34990	0	0	0	22581	21180	145411	27225	994877	40844	108309	0	0	8157	690704	0	0
2024-06-02 05:09:32			0	34976	0	0	0	22602	21180	145491	27154	994930	40833	108317	0	0	8156	691347	0	0
2024-06-02 05:10:32			0	34988	0	0	0	22592	21180	145539	27104	994957	40844	108313	0	0	8157	690796	0	0
2024-06-02 05:11:32			0	34968	0	0	0	22612	21190	145519	27379	995027	40834	108321	0	0	8155	691676	0	0
2024-06-02 05:12:32			0	34950	0	0	0	22620	21180	145619	27015	994957	40823	108324	0	0	8154	692542	0	0
2024-06-02 05:13:32			0	34902	0	0	0	22636	21190	145763	26911	995009	40835	108330	0	0	8151	694713	0	0
2024-06-02 05:14:32			0	34862	0	0	0	22644	21190	145867	26960	995027	40845	108333	0	0	8149	696558	0	0
2024-06-02 05:15:32			0	34829	0	0	0	22654	21200	146059	27154	995044	40846	108337	0	0	8147	698045	0	0
2024-06-02 05:16:32			0	34803	0	0	0	22657	21210	146059	27350	995114	40836	108338	0	0	8146	699209	0	0
2024-06-02 05:17:32			0	34816	0	0	0	22657	21200	146223	26927	995070	40824	108338	0	0	8146	698646	0	0
2024-06-02 05:18:32			0	34783	0	0	0	22664	21210	146183	26956	995043	40848	108341	0	0	8144	700136	0	0
2024-06-02 05:19:32			0	34807	0	0	0	22618	21190	146143	27178	995035	40846	108323	0	0	8146	699101	0	0
2024-06-02 05:20:32			0	34828	0	0	0	22618	21210	146115	27069	995087	40847	108323	0	0	8148	698052	0	0
2024-06-02 05:21:32			0	34823	0	0	0	22654	21210	146099	27352	995034	40836	108337	0	0	8147	698283	0	0
2024-06-02 05:22:32			0	34819	0	0	0	22638	21210	146115	27275	995069	40848	108331	0	0	8147	698468	0	0
2024-06-02 05:23:32			0	34821	0	0	0	22636	21210	146103	27173	995061	40836	108330	0	0	8147	698376	0	0
2024-06-02 05:24:32			0	34802	0	0	0	22657	21210	146287	27306	995087	40836	108338	0	0	8145	699256	0	0
2024-06-02 05:25:32			0	34783	0	0	0	22649	21210	146327	27339	995114	40836	108335	0	0	8145	700136	0	0
2024-06-02 05:26:32			0	34749	0	0	0	22659	21200	146427	27265	995159	40836	108339	0	0	8142	701752	0	0
2024-06-02 05:27:32			0	34736	0	0	0	22625	21210	146347	27303	995123	40836	108326	0	0	8142	702317	0	0
2024-06-02 05:28:32			0	34716	0	0	0	22599	21210	146551	26996	995034	40836	108316	0	0	8142	703247	0	0
2024-06-02 05:29:32			0	34705	0	0	0	22602	21210	146615	27360	995034	40836	108317	0	0	8141	703759	0	0
2024-06-02 05:30:32			0	34668	0	0	0	22612	21200	146643	27074	995017	40846	108321	0	0	8139	705521	0	0
2024-06-02 05:31:32			0	34637	0	0	0	22620	21190	146839	27582	995009	40846	108324	0	0	8137	707007	0	0
2024-06-02 05:32:32			0	34636	0	0	0	22615	21190	146955	27400	994947	40834	108322	0	0	8137	707054	0	0
2024-06-02 05:33:32			0	34577	0	0	0	22631	21200	147067	26892	995026	40847	108328	0	0	8133	709774	0	0
2024-06-02 05:34:32			0	34547	0	0	0	22610	21200	147255	27199	994972	40836	108320	0	0	8132	711181	0	0
2024-06-02 05:35:32			0	34556	0	0	0	22615	21190	147271	27052	994974	40845	108322	0	0	8132	710798	0	0
2024-06-02 05:36:32			0	34532	0	0	0	22607	21200	147375	27263	994964	40835	108319	0	0	8131	711885	0	0
2024-06-02 05:37:32			0	34519	0	0	0	22579	21200	147279	27274	994964	40835	108308	0	0	8131	712495	0	0
2024-06-02 05:38:32			0	34506	0	0	0	22579	21180	147455	27239	994939	40834	108308	0	0	8130	713185	0	0
2024-06-02 05:39:32			0	34455	0	0	0	22561	21200	147571	27045	994991	40824	108301	0	0	8128	715507	0	0
2024-06-02 05:40:32			0	34444	0	0	0	22568	21190	147627	27549	994947	40834	108304	0	0	8127	716065	0	0
2024-06-02 05:41:32			0	34422	0	0	0	22568	21190	147783	27251	994947	40834	108304	0	0	8126	717104	0	0
2024-06-02 05:42:32			0	34389	0	0	0	22555	21180	147863	27235	994886	40845	108299	0	0	8124	718703	0	0
2024-06-02 05:43:32			0	34368	0	0	0	22545	21180	147935	27164	994886	40834	108295	0	0	8123	719697	0	0
2024-06-02 05:44:32			0	34342	0	0	0	22561	21170	148086	26892	994816	40844	108301	0	0	8121	720969	0	0
2024-06-02 05:45:32			0	34313	0	0	0	22545	21170	148146	27313	994922	40833	108295	0	0	8120	722345	0	0
2024-06-02 05:46:32			0	34287	0	0	0	22542	21170	148286	27203	994869	40823	108294	0	0	8119	723580	0	0
2024-06-02 05:47:32			0	34279	0	0	0	22529	21160	148374	27223	994825	40843	108289	0	0	8118	724001	0	0
2024-06-02 05:48:32			0	34257	0	0	0	22522	21160	148410	27255	994737	40842	108286	0	0	8117	725048	0	0
2024-06-02 05:49:32			0	34240	0	0	0	22524	21160	148514	27317	994799	40843	108287	0	0	8116	725858	0	0
2024-06-02 05:50:32			0	34227	0	0	0	22529	21160	148634	27365	994772	40843	108289	0	0	8115	726478	0	0
2024-06-02 05:51:32			0	34195	0	0	0	22524	21150	148706	27429	994720	40820	108287	0	0	8114	728046	0	0
2024-06-02 05:52:32			0	34171	0	0	0	22522	21140	148798	27284	994712	40841	108286	0	0	8112	729234	0	0
2024-06-02 05:53:32			0	34185	0	0	0	22532	21150	148914	27414	994747	40831	108290	0	0	8113	728524	0	0
2024-06-02 05:54:32			0	34151	0	0	0	22527	21150	148894	27326	994800	40831	108288	0	0	8111	730150	0	0
2024-06-02 05:55:32			0	34114	0	0	0	22524	21140	149034	26996	994703	40841	108287	0	0	8109	731965	0	0
2024-06-02 05:56:32			0	34117	0	0	0	22522	21150	149018	27281	994720	40831	108286	0	0	8109	731780	0	0
2024-06-02 05:57:32			0	34106	0	0	0	22529	21140	149106	27182	994730	40830	108289	0	0	8108	732349	0	0
2024-06-02 05:58:32			0	34089	0	0	0	22535	21140	149142	27384	994730	40830	108291	0	0	8107	733165	0	0
2024-06-02 05:59:32			0	34079	0	0	0	22532	21140	149210	27284	994677	40841	108290	0	0	8107	733646	0	0
2024-06-02 06:00:32			0	34056	0	0	0	22527	21140	149194	27203	994730	40830	108288	0	0	8106	734752	0	0
2024-06-02 06:01:32			0	34075	0	0	0	22524	21140	149378	27668	994730	40841	108287	0	0	8107	733838	0	0
2024-06-02 06:02:32			0	34055	0	0	0	22535	21140	149378	27275	994730	40819	108291	0	0	8105	734800	0	0
2024-06-02 06:03:32			0	34040	0	0	0	22529	21140	149418	27416	994712	40831	108289	0	0	8105	735522	0	0
2024-06-02 06:04:32			0	34035	0	0	0	22514	21120	149518	27424	994651	40828	108283	0	0	8104	735844	0	0
2024-06-02 06:05:32			0	34027	0	0	0	22509	21110	149522	27369	994635	40838	108281	0	0	8104	736271	0	0
2024-06-02 06:06:32			0	34009	0	0	0	22509	21120	149530	27258	994651	40817	108281	0	0	8103	737098	0	0
2024-06-02 06:07:32			0	33991	0	0	0	22501	21130	149698	27253	994615	40829	108278	0	0	8102	737926	0	0
2024-06-02 06:08:32			0	33993	0	0	0	22516	21110	149718	27140	994670	40828	108284	0	0	8102	737911	0	0
2024-06-02 06:09:32			0	33976	0	0	0	22506	21110	149698	27149	994688	40838	108280	0	0	8101	738732	0	0
2024-06-02 06:10:32			0	33975	0	0	0	22501	21110	149798	27286	994643	40828	108278	0	0	8101	738781	0	0
2024-06-02 06:11:32			0	33967	0	0	0	22498	21120	149730	27353	994678	40839	108277	0	0	8101	739127	0	0
2024-06-02 06:12:32			0	33964	0	0	0	22498	21110	149782	27213	994590	40828	108277	0	0	8101	739313	0	0
2024-06-02 06:13:32			0	33935	0	0	0	22503	21100	149914	27275	994565	40816	108279	0	0	8099	740757	0	0
2024-06-02 06:14:32			0	33922	0	0	0	22490	21100	149814	27272	994600	40828	108274	0	0	8098	741387	0	0
2024-06-02 06:15:32			0	33925	0	0	0	22506	21110	149986	27175	994608	40828	108280	0	0	8098	741201	0	0
2024-06-02 06:16:32			0	33905	0	0	0	22503	21100	149958	27528	994546	40838	108279	0	0	8097	742212	0	0
2024-06-02 06:17:32			0	33901	0	0	0	22496	21110	150034	27277	994608	40828	108276	0	0	8097	742365	0	0
2024-06-02 06:18:32			0	33873	0	0	0	22501	21110	150082	27279	994590	40839	108278	0	0	8095	743724	0	0
2024-06-02 06:19:32			0	33858	0	0	0	22496	21090	150218	27277	994556	40816	108276	0	0	8095	744536	0	0
2024-06-02 06:20:32			0	33844	0	0	0	22488	21100	150306	27367	994573	40828	108273	0	0	8094	745175	0	0
2024-06-02 06:21:32			0	33827	0	0	0	22503	21100	150390	27242	994538	40816	108279	0	0	8093	746003	0	0
2024-06-02 06:22:32			0	33812	0	0	0	22493	21100	150514	27279	994565	40837	108275	0	0	8092	746734	0	0
2024-06-02 06:23:32			0	33805	0	0	0	22498	21090	150494	27017	994583	40827	108277	0	0	8091	747117	0	0
2024-06-02 06:24:32			0	33783	0	0	0	22496	21090	150518	27469	994601	40815	108276	0	0	8090	748190	0	0
2024-06-02 06:25:32			0	33766	0	0	0	22480	21090	150674	27163	994556	40837	108270	0	0	8090	749021	0	0
2024-06-02 06:26:32			0	33752	0	0	0	22496	21090	150778	27267	994556	40837	108276	0	0	8088	749705	0	0
2024-06-02 06:27:32			0	33731	0	0	0	22490	21090	150878	26913	994601	40836	108274	0	0	8087	750733	0	0
2024-06-02 06:28:32			0	33724	0	0	0	22498	21080	150838	27029	994557	40825	108277	0	0	8087	751117	0	0
2024-06-02 06:29:32			0	33709	0	0	0	22498	21090	151054	27244	994609	40804	108277	0	0	8086	751811	0	0
2024-06-02 06:30:32			0	33696	0	0	0	22503	21080	150926	27107	994566	40835	108279	0	0	8085	752490	0	0
2024-06-02 06:31:32			0	33709	0	0	0	22503	21100	150922	27294	994591	40837	108279	0	0	8086	751769	0	0
2024-06-02 06:32:32			0	33700	0	0	0	22506	21100	151034	27282	994618	40827	108280	0	0	8085	752210	0	0
2024-06-02 06:33:32			0	33695	0	0	0	22509	21100	150918	27305	994591	40827	108281	0	0	8085	752455	0	0
2024-06-02 06:34:32			0	33725	0	0	0	22509	21090	150930	27267	994574	40836	108281	0	0	8087	751027	0	0
2024-06-02 06:35:32			0	33728	0	0	0	22514	21090	150998	27326	994574	40826	108283	0	0	8087	750880	0	0
2024-06-02 06:36:32			0	33726	0	0	0	22511	21090	150810	27222	994609	40827	108282	0	0	8087	750978	0	0
2024-06-02 06:37:32			0	33747	0	0	0	22516	21100	150722	26981	994591	40848	108284	0	0	8088	749908	0	0
2024-06-02 06:38:32			0	33796	0	0	0	22519	21110	150634	27625	994661	40828	108285	0	0	8091	747473	0	0
2024-06-02 06:39:32			0	33788	0	0	0	22522	21090	150646	27329	994689	40837	108286	0	0	8090	747947	0	0
2024-06-02 06:40:32			0	33808	0	0	0	22527	21090	150522	27395	994583	40837	108288	0	0	8091	746971	0	0
2024-06-02 06:41:32			0	33817	0	0	0	22527	21100	150442	27360	994618	40837	108288	0	0	8092	746491	0	0
2024-06-02 06:42:32			0	33861	0	0	0	22532	21100	150234	27488	994644	40827	108290	0	0	8094	744349	0	0
2024-06-02 06:43:32			0	33897	0	0	0	22524	21100	150206	27218	994733	40816	108287	0	0	8096	742600	0	0
2024-06-02 06:44:32			0	33917	0	0	0	22527	21110	150110	27237	994635	40828	108288	0	0	8098	741589	0	0
2024-06-02 06:45:32			0	33939	0	0	0	22527	21110	150022	26932	994635	40828	108288	0	0	8099	740523	0	0
2024-06-02 06:46:32			0	33949	0	0	0	22527	21110	149874	27319	994723	40839	108288	0	0	8099	740038	0	0
2024-06-02 06:47:32			0	33982	0	0	0	22519	21110	149710	27452	994688	40828	108285	0	0	8101	738443	0	0
2024-06-02 06:48:32			0	33996	0	0	0	22529	21110	149746	27156	994635	40838	108289	0	0	8102	737766	0	0
2024-06-02 06:49:32			0	34004	0	0	0	22532	21110	149698	27341	994723	40839	108290	0	0	8102	737380	0	0
2024-06-02 06:50:32			0	34014	0	0	0	22519	21100	149658	27561	994679	40828	108285	0	0	8103	736939	0	0
2024-06-02 06:51:32			0	34008	0	0	0	22511	21130	149662	27409	994695	40829	108282	0	0	8103	737105	0	0
2024-06-02 06:52:32			0	34014	0	0	0	22522	21130	149566	27199	994713	40818	108286	0	0	8103	736816	0	0
2024-06-02 06:53:32			0	34024	0	0	0	22532	21120	149502	27469	994678	40839	108290	0	0	8104	736375	0	0
2024-06-02 06:54:32			0	34042	0	0	0	22535	21120	149446	27505	994758	40828	108291	0	0	8105	735507	0	0
2024-06-02 06:55:32			0	34057	0	0	0	22524	21130	149350	27239	994721	40829	108287	0	0	8106	734744	0	0
2024-06-02 06:56:32			0	34062	0	0	0	22540	21110	149414	27216	994643	40828	108293	0	0	8106	734585	0	0
2024-06-02 06:57:32			0	34078	0	0	0	22522	21110	149314	27124	994670	40839	108286	0	0	8107	733816	0	0
2024-06-02 06:58:32			0	34065	0	0	0	22532	21110	149370	27057	994696	40817	108290	0	0	8106	734441	0	0
2024-06-02 06:59:32			0	34070	0	0	0	22532	21140	149350	27194	994730	40830	108290	0	0	8106	734078	0	0
2024-06-02 07:00:32			0	34069	0	0	0	22532	21120	149326	27422	994678	40828	108290	0	0	8106	734208	0	0
2024-06-02 07:01:32			0	34080	0	0	0	22537	21110	149418	27388	994829	40828	108292	0	0	8107	733719	0	0
2024-06-02 07:02:32			0	34077	0	0	0	22529	21130	149378	27396	994713	40829	108289	0	0	8107	733782	0	0
2024-06-02 07:03:32			0	34084	0	0	0	22548	21120	149390	26823	994731	40850	108296	0	0	8107	733486	0	0
2024-06-02 07:04:32			0	34063	0	0	0	22576	21110	149442	27194	994776	40839	108307	0	0	8105	734537	0	0
2024-06-02 07:05:32			0	34066	0	0	0	22550	21140	149326	27715	994810	40830	108297	0	0	8106	734270	0	0
2024-06-02 07:06:32			0	34052	0	0	0	22550	21130	149422	27144	994748	40851	108297	0	0	8105	734985	0	0
2024-06-02 07:07:32			0	34059	0	0	0	22568	21140	149350	27201	994783	40852	108304	0	0	8105	734607	0	0
2024-06-02 07:08:32			0	34074	0	0	0	22568	21140	149514	27041	994792	40841	108304	0	0	8106	733886	0	0
2024-06-02 07:09:32			0	34068	0	0	0	22555	21140	149398	27183	994836	40852	108299	0	0	8106	734174	0	0
2024-06-02 07:10:32			0	34067	0	0	0	22561	21140	149386	27599	994757	40830	108301	0	0	8106	734222	0	0
2024-06-02 07:11:32			0	34083	0	0	0	22568	21140	149414	27450	994810	40830	108304	0	0	8106	733453	0	0
2024-06-02 07:12:32			0	34072	0	0	0	22571	21140	149370	27550	994845	40853	108305	0	0	8106	733982	0	0
2024-06-02 07:13:32			0	34097	0	0	0	22599	21160	149286	27386	994843	40842	108316	0	0	8107	732699	0	0
2024-06-02 07:14:32			0	34103	0	0	0	22599	21150	149286	27623	994827	40831	108316	0	0	8107	732452	0	0
2024-06-02 07:15:32			0	34114	0	0	0	22628	21150	149246	27561	994906	40853	108327	0	0	8107	731924	0	0
2024-06-02 07:16:32			0	34126	0	0	0	22615	21160	149130	27357	994976	40832	108322	0	0	8108	731308	0	0
2024-06-02 07:17:32			0	34132	0	0	0	22605	21160	149082	27287	994932	40843	108318	0	0	8109	731020	0	0
2024-06-02 07:18:32			0	34186	0	0	0	22589	21170	148862	27502	994913	40843	108312	0	0	8112	728395	0	0
2024-06-02 07:19:32			0	34179	0	0	0	22579	21150	148870	27274	994888	40841	108308	0	0	8112	728810	0	0
2024-06-02 07:20:32			0	34170	0	0	0	22605	21160	148870	27398	994905	40854	108318	0	0	8111	729201	0	0
2024-06-02 07:21:32			0	34166	0	0	0	22571	21160	148914	27649	994852	40854	108305	0	0	8111	729392	0	0
2024-06-02 07:22:32			0	34163	0	0	0	22550	21160	149058	27568	994843	40832	108297	0	0	8111	729536	0	0
2024-06-02 07:23:32			0	34207	0	0	0	22612	21160	148938	27485	994870	40832	108321	0	0	8113	727432	0	0
2024-06-02 07:24:32			0	34210	0	0	0	22646	21170	148758	27305	994940	40854	108334	0	0	8112	727249	0	0
2024-06-02 07:25:32			0	34246	0	0	0	22654	21170	148666	27422	994967	40854	108337	0	0	8114	725532	0	0
2024-06-02 07:26:32			0	34312	0	0	0	22657	21170	148510	27308	995028	40867	108338	0	0	8118	722392	0	0
2024-06-02 07:27:32			0	34368	0	0	0	22693	21180	148271	27511	995098	40856	108352	0	0	8121	719697	0	0
2024-06-02 07:28:32			0	34438	0	0	0	22646	21190	147863	27526	995080	40845	108334	0	0	8125	716348	0	0
2024-06-02 07:29:32			0	34436	0	0	0	22628	21190	147847	27627	995062	40846	108327	0	0	8126	716443	0	0
2024-06-02 07:30:32			0	34402	0	0	0	22667	21200	147907	27199	995097	40846	108342	0	0	8123	718009	0	0
2024-06-02 07:31:32			0	34410	0	0	0	22646	21200	147919	27628	995124	40846	108334	0	0	8124	717631	0	0
2024-06-02 07:32:32			0	34417	0	0	0	22610	21200	148055	27391	995097	40857	108320	0	0	8125	717300	0	0
2024-06-02 07:33:32			0	34351	0	0	0	22612	21200	148158	27384	995052	40869	108321	0	0	8121	720422	0	0
2024-06-02 07:34:32			0	34297	0	0	0	22597	21200	148442	27459	995026	40847	108315	0	0	8118	722984	0	0
2024-06-02 07:35:32			0	34252	0	0	0	22607	21200	148662	27208	995044	40846	108319	0	0	8116	725125	0	0
2024-06-02 07:36:32			0	34232	0	0	0	22633	21200	148770	27303	995105	40836	108329	0	0	8114	726078	0	0
2024-06-02 07:37:32			0	34269	0	0	0	22620	21200	148714	27422	995097	40835	108324	0	0	8116	724316	0	0
2024-06-02 07:38:32			0	34238	0	0	0	22599	21200	148746	27435	995017	40857	108316	0	0	8115	725792	0	0
2024-06-02 07:39:32			0	34198	0	0	0	22599	21200	148918	27159	995017	40835	108316	0	0	8113	727700	0	0
2024-06-02 07:40:32			0	34170	0	0	0	22602	21210	149022	26951	995007	40847	108317	0	0	8111	728998	0	0
2024-06-02 07:41:32			0	34181	0	0	0	22641	21210	149006	26909	995061	40836	108332	0	0	8111	728472	0	0
2024-06-02 07:42:32			0	34203	0	0	0	22664	21210	148882	27417	995087	40858	108341	0	0	8112	727421	0	0
2024-06-02 07:43:32			0	34274	0	0	0	22683	21210	148570	27150	995194	40847	108348	0	0	8116	724038	0	0
2024-06-02 07:44:32			0	34351	0	0	0	22688	21220	148299	27123	995237	40859	108350	0	0	8120	720342	0	0
2024-06-02 07:45:32			0	34385	0	0	0	22670	21230	148047	27286	995236	40838	108343	0	0	8122	718693	0	0
2024-06-02 07:46:32			0	34410	0	0	0	22677	21230	148047	27045	995254	40861	108346	0	0	8123	717511	0	0
2024-06-02 07:47:32			0	34379	0	0	0	22664	21240	147971	27135	995218	40850	108341	0	0	8122	718937	0	0
2024-06-02 07:48:32			0	34420	0	0	0	22649	21240	147971	27275	995218	40850	108335	0	0	8125	716999	0	0
2024-06-02 07:49:32			0	34390	0	0	0	22664	21230	148015	27291	995236	40850	108341	0	0	8123	718456	0	0
2024-06-02 07:50:32			0	34394	0	0	0	22696	21240	147963	27416	995306	40862	108353	0	0	8122	718227	0	0
2024-06-02 07:51:32			0	34414	0	0	0	22701	21250	147931	27320	995368	40851	108355	0	0	8123	717242	0	0
2024-06-02 07:52:32			0	34478	0	0	0	22716	21250	147679	27455	995394	40863	108361	0	0	8127	714225	0	0
2024-06-02 07:53:32			0	34547	0	0	0	22724	21250	147387	27317	995430	40851	108364	0	0	8130	710983	0	0
2024-06-02 07:54:32			0	34594	0	0	0	22740	21270	147195	27400	995402	40875	108370	0	0	8133	708703	0	0
2024-06-02 07:55:32			0	34637	0	0	0	22735	21270	147039	27405	995482	40853	108368	0	0	8135	706693	0	0
2024-06-02 07:56:32			0	34671	0	0	0	22703	21280	146787	27268	995445	40865	108356	0	0	8138	705068	0	0
2024-06-02 07:57:32			0	34664	0	0	0	22724	21280	146827	27038	995427	40855	108364	0	0	8137	705394	0	0
2024-06-02 07:58:32			0	34685	0	0	0	22727	21270	146791	26934	995410	40864	108365	0	0	8138	704455	0	0
2024-06-02 07:59:32			0	34688	0	0	0	22732	21280	146759	26948	995525	40865	108367	0	0	8138	704276	0	0
2024-06-02 08:00:32			0	34712	0	0	0	22719	21280	146703	26824	995507	40855	108362	0	0	8140	703160	0	0
2024-06-02 08:01:32			0	34716	0	0	0	22722	21300	146675	27093	995506	40867	108363	0	0	8140	702896	0	0
2024-06-02 08:02:32			0	34704	0	0	0	22727	21290	146655	27157	995444	40866	108365	0	0	8139	703493	0	0
2024-06-02 08:03:32			0	34732	0	0	0	22729	21300	146663	26963	995559	40856	108366	0	0	8141	702152	0	0
2024-06-02 08:04:32			0	34718	0	0	0	22740	21300	146583	27178	995567	40878	108370	0	0	8140	702803	0	0
2024-06-02 08:05:32			0	34729	0	0	0	22753	21310	146595	27364	995522	40868	108375	0	0	8140	702252	0	0
2024-06-02 08:06:32			0	34740	0	0	0	22748	21310	146479	27268	995611	40868	108373	0	0	8141	701741	0	0
2024-06-02 08:07:32			0	34763	0	0	0	22745	21310	146387	27159	995576	40857	108372	0	0	8142	700674	0	0
2024-06-02 08:08:32			0	34768	0	0	0	22740	21320	146371	27034	995628	40870	108370	0	0	8143	700403	0	0
2024-06-02 08:09:32			0	34780	0	0	0	22755	21320	146319	27237	995646	40879	108376	0	0	8143	699847	0	0
2024-06-02 08:10:32			0	34796	0	0	0	22750	21320	146199	27133	995566	40869	108374	0	0	8144	699106	0	0
2024-06-02 08:11:32			0	34807	0	0	0	22737	21320	146183	27232	995619	40879	108369	0	0	8145	698597	0	0
2024-06-02 08:12:32			0	34804	0	0	0	22727	21330	146235	27251	995645	40871	108365	0	0	8145	698697	0	0
2024-06-02 08:13:32			0	34810	0	0	0	22727	21310	146259	27261	995584	40857	108365	0	0	8145	698497	0	0
2024-06-02 08:14:32			0	34802	0	0	0	22729	21310	146247	27071	995584	40857	108366	0	0	8145	698867	0	0
2024-06-02 08:15:32			0	34800	0	0	0	22737	21320	146263	27352	995601	40858	108369	0	0	8145	698921	0	0
2024-06-02 08:16:32			0	34792	0	0	0	22737	21310	146315	27241	995611	40857	108369	0	0	8144	699330	0	0
2024-06-02 08:17:32			0	34784	0	0	0	22732	21320	146351	27253	995539	40858	108367	0	0	8144	699662	0	0
2024-06-02 08:18:32			0	34793	0	0	0	22722	21330	146299	26913	995556	40870	108363	0	0	8144	699206	0	0
2024-06-02 08:19:32			0	34748	0	0	0	22719	21330	146467	27043	995698	40859	108362	0	0	8142	701292	0	0
2024-06-02 08:20:32			0	34714	0	0	0	22722	21320	146447	27074	995574	40858	108363	0	0	8140	702910	0	0
2024-06-02 08:21:32			0	34686	0	0	0	22724	21320	146767	27547	995566	40858	108364	0	0	8138	704213	0	0
2024-06-02 08:22:32			0	34672	0	0	0	22722	21310	146719	27353	995557	40857	108363	0	0	8138	704904	0	0
2024-06-02 08:23:32			0	34682	0	0	0	22737	21320	146811	27237	995566	40869	108369	0	0	8138	704399	0	0
2024-06-02 08:24:32			0	34662	0	0	0	22735	21310	146959	27164	995584	40868	108368	0	0	8137	705370	0	0
2024-06-02 08:25:32			0	34649	0	0	0	22732	21310	146983	27279	995611	40868	108367	0	0	8136	705977	0	0
2024-06-02 08:26:32			0	34640	0	0	0	22727	21310	146923	27542	995584	40868	108365	0	0	8136	706396	0	0
2024-06-02 08:27:32			0	34611	0	0	0	22740	21310	147007	27300	995611	40868	108370	0	0	8134	707751	0	0
2024-06-02 08:28:32			0	34616	0	0	0	22737	21320	147179	27093	995566	40858	108369	0	0	8134	707478	0	0
2024-06-02 08:29:32			0	34600	0	0	0	22742	21310	147095	27204	995637	40857	108371	0	0	8133	708265	0	0
2024-06-02 08:30:32			0	34614	0	0	0	22745	21320	147099	27403	995601	40870	108372	0	0	8134	707571	0	0
2024-06-02 08:31:32			0	34604	0	0	0	22732	21330	147203	27376	995663	40880	108367	0	0	8134	707999	0	0
2024-06-02 08:32:32			0	34600	0	0	0	22737	21320	147187	27046	995539	40858	108369	0	0	8133	708226	0	0
2024-06-02 08:33:32			0	34603	0	0	0	22740	21330	147139	27043	995609	40870	108370	0	0	8134	708046	0	0
2024-06-02 08:34:32			0	34614	0	0	0	22735	21320	147075	27168	995654	40858	108368	0	0	8134	707571	0	0
2024-06-02 08:35:32			0	34593	0	0	0	22737	21320	147151	27339	995707	40870	108369	0	0	8133	708553	0	0
2024-06-02 08:36:32			0	34589	0	0	0	22748	21330	147163	27128	995663	40870	108373	0	0	8133	708701	0	0
2024-06-02 08:37:32			0	34589	0	0	0	22750	21320	147263	27102	995628	40880	108374	0	0	8133	708740	0	0
2024-06-02 08:38:32			0	34600	0	0	0	22750	21330	147163	26941	995636	40870	108374	0	0	8133	708186	0	0
2024-06-02 08:39:32			0	34595	0	0	0	22753	21330	147179	27242	995671	40871	108375	0	0	8133	708420	0	0
2024-06-02 08:40:32			0	34575	0	0	0	22763	21330	147219	27374	995716	40870	108379	0	0	8132	709356	0	0
2024-06-02 08:41:32			0	34580	0	0	0	22761	21330	147307	27131	995663	40858	108378	0	0	8132	709122	0	0
2024-06-02 08:42:32			0	34575	0	0	0	22748	21330	147363	27173	995671	40859	108373	0	0	8132	709356	0	0
2024-06-02 08:43:32			0	34561	0	0	0	22755	21340	147339	27147	995733	40859	108376	0	0	8131	709972	0	0
2024-06-02 08:44:32			0	34549	0	0	0	22753	21340	147399	27367	995680	40859	108375	0	0	8130	710534	0	0
2024-06-02 08:45:32			0	34566	0	0	0	22758	21340	147359	27319	995680	40892	108377	0	0	8131	709738	0	0
2024-06-02 08:46:32			0	34553	0	0	0	22761	21340	147351	27140	995741	40871	108378	0	0	8131	710347	0	0
2024-06-02 08:47:32			0	34561	0	0	0	22763	21340	147335	27341	995680	40859	108379	0	0	8131	709972	0	0
2024-06-02 08:48:32			0	34546	0	0	0	22766	21340	147431	27017	995688	40860	108380	0	0	8130	710675	0	0
2024-06-02 08:49:32			0	34541	0	0	0	22758	21340	147351	27163	995715	40871	108377	0	0	8130	710909	0	0
2024-06-02 08:50:32			0	34550	0	0	0	22766	21340	147343	26967	995795	40871	108380	0	0	8130	710488	0	0
2024-06-02 08:51:32			0	34547	0	0	0	22753	21350	147323	27350	995785	40872	108375	0	0	8130	710589	0	0
2024-06-02 08:52:32			0	34558	0	0	0	22758	21340	147347	27454	995768	40849	108377	0	0	8131	710113	0	0
2024-06-02 08:53:32			0	34545	0	0	0	22750	21340	147391	27377	995680	40859	108374	0	0	8130	710722	0	0
2024-06-02 08:54:32			0	34533	0	0	0	22745	21350	147495	27320	995750	40861	108372	0	0	8130	711245	0	0
2024-06-02 08:55:32			0	34539	0	0	0	22748	21350	147455	27230	995830	40872	108373	0	0	8130	710964	0	0
2024-06-02 08:56:32			0	34547	0	0	0	22750	21350	147307	27357	995697	40861	108374	0	0	8130	710589	0	0
2024-06-02 08:57:32			0	34567	0	0	0	22761	21340	147259	27440	995760	40871	108378	0	0	8131	709691	0	0
2024-06-02 08:58:32			0	34575	0	0	0	22766	21330	147275	27234	995618	40871	108380	0	0	8132	709356	0	0
2024-06-02 08:59:32			0	34574	0	0	0	22763	21350	147259	27239	995776	40872	108379	0	0	8132	709324	0	0
2024-06-02 09:00:32			0	34579	0	0	0	22763	21350	147263	27396	995776	40872	108379	0	0	8132	709090	0	0
2024-06-02 09:01:32			0	34598	0	0	0	22763	21350	147255	27353	995758	40883	108379	0	0	8133	708201	0	0
2024-06-02 09:02:32			0	34612	0	0	0	22766	21360	147167	27526	995820	40861	108380	0	0	8134	707507	0	0
2024-06-02 09:03:32			0	34612	0	0	0	22766	21350	147163	27454	995723	40861	108380	0	0	8134	707547	0	0
2024-06-02 09:04:32			0	34645	0	0	0	22776	21360	147027	27414	995846	40872	108384	0	0	8135	705967	0	0
2024-06-02 09:05:32			0	34656	0	0	0	22768	21360	146979	27471	995873	40861	108381	0	0	8136	705454	0	0
2024-06-02 09:06:32			0	34667	0	0	0	22774	21350	146915	27575	995811	40861	108383	0	0	8137	704981	0	0
2024-06-02 09:07:32			0	34691	0	0	0	22776	21350	146811	27053	995865	40872	108384	0	0	8138	703863	0	0
2024-06-02 09:08:32			0	34714	0	0	0	22776	21360	146675	27088	995802	40873	108384	0	0	8139	702754	0	0
2024-06-02 09:09:32			0	34727	0	0	0	22768	21360	146591	27270	995855	40873	108381	0	0	8140	702150	0	0
2024-06-02 09:10:32			0	34742	0	0	0	22781	21360	146531	27100	995828	40862	108386	0	0	8141	701454	0	0
2024-06-02 09:11:32			0	34750	0	0	0	22776	21370	146567	26963	995810	40874	108384	0	0	8141	701044	0	0
2024-06-02 09:12:32			0	34749	0	0	0	22784	21360	146503	26972	995873	40872	108387	0	0	8141	701129	0	0
2024-06-02 09:13:32			0	34750	0	0	0	22794	21360	146459	27043	995828	40883	108391	0	0	8141	701083	0	0
2024-06-02 09:14:32			0	34777	0	0	0	22794	21370	146459	27213	995952	40874	108391	0	0	8143	699792	0	0
2024-06-02 09:15:32			0	34773	0	0	0	22792	21380	146439	27225	995933	40874	108390	0	0	8142	699938	0	0
2024-06-02 09:16:32			0	34771	0	0	0	22794	21380	146431	27142	995907	40884	108391	0	0	8142	700031	0	0
2024-06-02 09:17:32			0	34754	0	0	0	22789	21370	146451	27244	995898	40863	108389	0	0	8141	700858	0	0
2024-06-02 09:18:32			0	34782	0	0	0	22794	21380	146419	27017	995960	40874	108391	0	0	8143	699521	0	0
2024-06-02 09:19:32			0	34748	0	0	0	22802	21380	146459	27343	995907	40863	108394	0	0	8141	701097	0	0
2024-06-02 09:20:32			0	34757	0	0	0	22810	21380	146511	27170	995889	40908	108397	0	0	8141	700680	0	0
2024-06-02 09:21:32			0	34733	0	0	0	22807	21380	146663	26918	995960	40874	108396	0	0	8140	701794	0	0
2024-06-02 09:22:32			0	34739	0	0	0	22815	21380	146559	27364	995960	40874	108399	0	0	8140	701515	0	0
2024-06-02 09:23:32			0	34724	0	0	0	22823	21380	146595	27433	995995	40875	108402	0	0	8139	702212	0	0
2024-06-02 09:24:32			0	34743	0	0	0	22818	21380	146607	27355	995942	40875	108400	0	0	8140	701330	0	0
2024-06-02 09:25:32			0	34735	0	0	0	22820	21400	146603	27121	996047	40875	108401	0	0	8140	701623	0	0
2024-06-02 09:26:32			0	34746	0	0	0	22823	21390	146471	27123	996039	40875	108402	0	0	8140	701151	0	0
2024-06-02 09:27:32			0	34732	0	0	0	22812	21390	146579	27107	996039	40865	108398	0	0	8140	701801	0	0
2024-06-02 09:28:32			0	34724	0	0	0	22820	21400	146643	27343	996020	40875	108401	0	0	8139	702134	0	0
2024-06-02 09:29:32			0	34726	0	0	0	22815	21390	146703	27097	996039	40875	108399	0	0	8139	702080	0	0
2024-06-02 09:30:32			0	34720	0	0	0	22828	21400	146703	27175	996029	40887	108404	0	0	8139	702319	0	0
2024-06-02 09:31:32			0	34713	0	0	0	22828	21400	146643	27327	996055	40866	108404	0	0	8139	702645	0	0
2024-06-02 09:32:32			0	34725	0	0	0	22851	21420	146623	27157	996099	40889	108413	0	0	8139	702009	0	0
2024-06-02 09:33:32			0	34721	0	0	0	22859	21420	146607	27012	996179	40878	108416	0	0	8139	702195	0	0
2024-06-02 09:34:32			0	34742	0	0	0	22844	21420	146423	27239	996179	40889	108410	0	0	8140	701220	0	0
2024-06-02 09:35:32			0	34758	0	0	0	22849	21410	146527	27298	996117	40877	108412	0	0	8141	700517	0	0
2024-06-02 09:36:32			0	34763	0	0	0	22877	21420	146559	27144	996152	40878	108423	0	0	8141	700246	0	0
2024-06-02 09:37:32			0	34749	0	0	0	22872	21430	146623	27218	996177	40890	108421	0	0	8140	700856	0	0
2024-06-02 09:38:32			0	34751	0	0	0	22893	21430	146603	27473	996222	40889	108429	0	0	8140	700764	0	0
2024-06-02 09:39:32			0	34751	0	0	0	22901	21430	146615	27038	996284	40890	108432	0	0	8140	700764	0	0
2024-06-02 09:40:32			0	34751	0	0	0	22906	21440	146527	27284	996239	40879	108434	0	0	8140	700725	0	0
2024-06-02 09:41:32			0	34721	0	0	0	22888	21460	146567	27431	996326	40892	108427	0	0	8138	702039	0	0
2024-06-02 09:42:32			0	34754	0	0	0	22896	21460	146419	27206	996300	40881	108430	0	0	8140	700507	0	0
2024-06-02 09:43:32			0	34734	0	0	0	22888	21460	146567	27296	996255	40892	108427	0	0	8139	701435	0	0
2024-06-02 09:44:32			0	34750	0	0	0	22893	21460	146539	27524	996441	40881	108429	0	0	8140	700693	0	0
2024-06-02 09:45:32			0	34744	0	0	0	22901	21480	146427	27218	996333	40894	108432	0	0	8139	700893	0	0
2024-06-02 09:46:32			0	34769	0	0	0	22896	21470	146319	27253	996405	40882	108430	0	0	8141	699774	0	0
2024-06-02 09:47:32			0	34740	0	0	0	22898	21470	146355	27474	996352	40893	108431	0	0	8139	701118	0	0
2024-06-02 09:48:32			0	34759	0	0	0	22909	21490	146303	27225	996404	40884	108435	0	0	8140	700159	0	0
2024-06-02 09:49:32			0	34766	0	0	0	22911	21470	146347	27492	996405	40882	108436	0	0	8140	699913	0	0
2024-06-02 09:50:32			0	34763	0	0	0	22911	21490	146219	27300	996412	40884	108436	0	0	8140	699974	0	0
2024-06-02 09:51:32			0	34765	0	0	0	22927	21480	146339	27374	996448	40906	108442	0	0	8140	699920	0	0
2024-06-02 09:52:32			0	34762	0	0	0	22911	21490	146287	27173	996430	40884	108436	0	0	8140	700020	0	0
2024-06-02 09:53:32			0	34769	0	0	0	22929	21500	146407	27364	996474	40896	108443	0	0	8140	699657	0	0
2024-06-02 09:54:32			0	34789	0	0	0	22950	21500	146339	27251	996553	40896	108451	0	0	8141	698731	0	0
2024-06-02 09:55:32			0	34783	0	0	0	22950	21500	146163	27253	996509	40886	108451	0	0	8141	699009	0	0
2024-06-02 09:56:32			0	34798	0	0	0	22942	21510	146167	27220	996544	40886	108448	0	0	8142	698276	0	0
2024-06-02 09:57:32			0	34795	0	0	0	22955	21510	146143	27237	996597	40897	108453	0	0	8141	698415	0	0
2024-06-02 09:58:32			0	34820	0	0	0	22974	21510	146071	27133	996552	40886	108460	0	0	8142	697259	0	0
2024-06-02 09:59:32			0	34838	0	0	0	22966	21520	146015	27173	996649	40887	108457	0	0	8144	696389	0	0
2024-06-02 10:00:32			0	34834	0	0	0	22963	21530	146047	27384	996684	40887	108456	0	0	8144	696535	0	0
2024-06-02 10:01:32			0	34839	0	0	0	22966	21520	145991	27208	996614	40898	108457	0	0	8144	696343	0	0
2024-06-02 10:02:32			0	34850	0	0	0	22961	21540	145907	27481	996594	40921	108455	0	0	8145	695758	0	0
2024-06-02 10:03:32			0	34845	0	0	0	22961	21540	145999	27466	996683	40900	108455	0	0	8144	695989	0	0
2024-06-02 10:04:32			0	34846	0	0	0	22992	21540	145991	27244	996709	40900	108467	0	0	8144	695943	0	0
2024-06-02 10:05:32			0	34841	0	0	0	22994	21550	145891	27294	996673	40901	108468	0	0	8144	696135	0	0
2024-06-02 10:06:32			0	34817	0	0	0	23015	21560	145867	27474	996761	40901	108476	0	0	8142	697204	0	0
2024-06-02 10:07:32			0	34840	0	0	0	23007	21540	146091	27424	996762	40889	108473	0	0	8143	696219	0	0
2024-06-02 10:08:32			0	34842	0	0	0	23005	21560	145899	27466	996796	40913	108472	0	0	8143	696050	0	0
2024-06-02 10:09:32			0	34853	0	0	0	23015	21560	145943	27469	996823	40891	108476	0	0	8144	695542	0	0
2024-06-02 10:10:32			0	34832	0	0	0	23002	21570	145931	27157	996786	40903	108471	0	0	8143	696472	0	0
2024-06-02 10:11:32			0	34863	0	0	0	22999	21570	145927	27315	996866	40881	108470	0	0	8145	695043	0	0
2024-06-02 10:12:32			0	34862	0	0	0	23007	21570	145891	27163	996893	40903	108473	0	0	8145	695089	0	0
2024-06-02 10:13:32			0	34869	0	0	0	23012	21580	145807	27144	996875	40903	108475	0	0	8145	694728	0	0
2024-06-02 10:14:32			0	34880	0	0	0	23023	21570	145775	27694	996866	40914	108479	0	0	8145	694260	0	0
2024-06-02 10:15:32			0	34891	0	0	0	23007	21580	145719	27241	996848	40903	108473	0	0	8146	693715	0	0
2024-06-02 10:16:32			0	34899	0	0	0	23005	21590	145623	27286	996847	40916	108472	0	0	8147	693309	0	0
2024-06-02 10:17:32			0	34896	0	0	0	23007	21590	145671	27355	996892	40905	108473	0	0	8146	693446	0	0
2024-06-02 10:18:32			0	34894	0	0	0	23018	21580	145707	27497	996857	40915	108477	0	0	8146	693577	0	0
2024-06-02 10:19:32			0	34872	0	0	0	23018	21590	145735	27178	996892	40905	108477	0	0	8145	694551	0	0
2024-06-02 10:20:32			0	34895	0	0	0	23023	21590	145727	27059	996954	40905	108479	0	0	8146	693492	0	0
2024-06-02 10:21:32			0	34875	0	0	0	23020	21600	145847	27092	996917	40916	108478	0	0	8145	694374	0	0
2024-06-02 10:22:32			0	34880	0	0	0	23015	21600	145723	27313	996935	40905	108476	0	0	8146	694144	0	0
2024-06-02 10:23:32			0	34874	0	0	0	23015	21590	145659	27331	996927	40894	108476	0	0	8145	694459	0	0
2024-06-02 10:24:32			0	34868	0	0	0	23025	21600	145735	27440	996970	40906	108480	0	0	8145	694697	0	0
2024-06-02 10:25:32			0	34865	0	0	0	23025	21600	145767	27066	996935	40905	108480	0	0	8145	694835	0	0
2024-06-02 10:26:32			0	34870	0	0	0	23020	21610	145831	27305	996979	40917	108478	0	0	8145	694566	0	0
2024-06-02 10:27:32			0	34852	0	0	0	23031	21610	145935	27313	996926	40907	108482	0	0	8144	695395	0	0
2024-06-02 10:28:32			0	34848	0	0	0	23028	21600	145935	27409	996935	40905	108481	0	0	8144	695618	0	0
2024-06-02 10:29:32			0	34851	0	0	0	23031	21600	145935	27284	996970	40906	108482	0	0	8144	695480	0	0
2024-06-02 10:30:32			0	34844	0	0	0	23031	21620	145867	27092	996978	40908	108482	0	0	8143	695725	0	0
2024-06-02 10:31:32			0	34861	0	0	0	23033	21610	145915	27249	997014	40918	108483	0	0	8144	694980	0	0
2024-06-02 10:32:32			0	34855	0	0	0	23041	21620	145931	27216	997004	40908	108486	0	0	8144	695218	0	0
2024-06-02 10:33:32			0	34853	0	0	0	23046	21620	145879	27199	997084	40896	108488	0	0	8144	695310	0	0
2024-06-02 10:34:32			0	34859	0	0	0	23046	21610	145815	27128	997067	40908	108488	0	0	8144	695073	0	0
2024-06-02 10:35:32			0	34850	0	0	0	23046	21620	145895	27228	997084	40918	108488	0	0	8143	695449	0	0
2024-06-02 10:36:32			0	34878	0	0	0	23044	21620	145723	27355	997111	40908	108487	0	0	8145	694159	0	0
2024-06-02 10:37:32			0	34879	0	0	0	23046	21630	145647	27355	997128	40909	108488	0	0	8145	694074	0	0
2024-06-02 10:38:32			0	34887	0	0	0	23036	21640	145707	27150	997056	40920	108484	0	0	8146	693668	0	0
2024-06-02 10:39:32			0	34901	0	0	0	23036	21630	145683	27298	997066	40908	108484	0	0	8146	693062	0	0
2024-06-02 10:40:32			0	34916	0	0	0	23049	21630	145695	27267	997066	40908	108489	0	0	8147	692373	0	0
2024-06-02 10:41:32			0	34919	0	0	0	23059	21620	145687	27059	997084	40918	108493	0	0	8147	692274	0	0
2024-06-02 10:42:32			0	34940	0	0	0	23038	21640	145631	27379	997109	40920	108485	0	0	8149	691233	0	0
2024-06-02 10:43:32			0	34950	0	0	0	23044	21640	145455	27258	997091	40920	108487	0	0	8149	690774	0	0
2024-06-02 10:44:32			0	34956	0	0	0	23051	21640	145387	27072	997171	40898	108490	0	0	8149	690499	0	0
2024-06-02 10:45:32			0	34970	0	0	0	23064	21640	145483	27190	997109	40920	108495	0	0	8150	689857	0	0
2024-06-02 10:46:32			0	34967	0	0	0	23062	21650	145395	27270	997100	40920	108494	0	0	8150	689956	0	0
2024-06-02 10:47:32			0	34957	0	0	0	23075	21650	145355	27301	997161	40921	108499	0	0	8149	690414	0	0
2024-06-02 10:48:32			0	34965	0	0	0	23080	21660	145431	27059	997196	40900	108501	0	0	8149	690009	0	0
2024-06-02 10:49:32			0	34976	0	0	0	23080	21660	145455	27263	997196	40921	108501	0	0	8150	689505	0	0
2024-06-02 10:50:32			0	34955	0	0	0	23090	21640	145451	27209	997304	40920	108505	0	0	8149	690544	0	0
2024-06-02 10:51:32			0	34937	0	0	0	23090	21660	145419	27197	997231	40911	108505	0	0	8148	691293	0	0
2024-06-02 10:52:32			0	34965	0	0	0	23083	21660	145419	27313	997196	40911	108502	0	0	8149	690009	0	0
2024-06-02 10:53:32			0	34968	0	0	0	23085	21670	145327	26979	997222	40913	108503	0	0	8150	689833	0	0
2024-06-02 10:54:32			0	34979	0	0	0	23088	21670	145283	26989	997275	40923	108504	0	0	8150	689330	0	0
2024-06-02 10:55:32			0	34985	0	0	0	23072	21680	145271	27376	997257	40902	108498	0	0	8151	689017	0	0
2024-06-02 10:56:32			0	34988	0	0	0	23064	21670	145267	27497	997293	40901	108495	0	0	8151	688918	0	0
2024-06-02 10:57:32			0	34996	0	0	0	23077	21680	145227	27267	997257	40923	108500	0	0	8151	688513	0	0
2024-06-02 10:58:32			0	35002	0	0	0	23064	21680	145267	27166	997337	40913	108495	0	0	8152	688239	0	0
2024-06-02 10:59:32			0	35013	0	0	0	23064	21680	145255	27305	997318	40903	108495	0	0	8152	687736	0	0
2024-06-02 11:00:32			0	35014	0	0	0	23085	21670	145219	27183	997240	40901	108503	0	0	8152	687729	0	0
2024-06-02 11:01:32			0	35015	0	0	0	23080	21670	145147	27383	997222	40923	108501	0	0	8152	687683	0	0
2024-06-02 11:02:32			0	35001	0	0	0	23093	21680	145319	27414	997337	40913	108506	0	0	8151	688285	0	0
2024-06-02 11:03:32			0	35018	0	0	0	23080	21680	145179	27114	997310	40902	108501	0	0	8152	687507	0	0
2024-06-02 11:04:32			0	35019	0	0	0	23093	21670	145167	27182	997328	40913	108506	0	0	8152	687500	0	0
2024-06-02 11:05:32			0	35038	0	0	0	23119	21680	145187	27306	997372	40914	108516	0	0	8153	686594	0	0
2024-06-02 11:06:32			0	35028	0	0	0	23080	21680	145075	27164	997345	40924	108501	0	0	8153	687051	0	0
2024-06-02 11:07:32			0	35041	0	0	0	23077	21690	145035	27045	997380	40924	108500	0	0	8154	686419	0	0
2024-06-02 11:08:32			0	35037	0	0	0	23093	21690	145091	27303	997327	40914	108506	0	0	8153	686601	0	0
2024-06-02 11:09:32			0	35048	0	0	0	23083	21690	144995	27507	997354	40924	108502	0	0	8154	686099	0	0
2024-06-02 11:10:32			0	35054	0	0	0	23093	21680	144935	27156	997363	40923	108506	0	0	8154	685864	0	0
2024-06-02 11:11:32			0	35083	0	0	0	23096	21690	144911	27265	997389	40915	108507	0	0	8156	684504	0	0
2024-06-02 11:12:32			0	35090	0	0	0	22984	21690	144871	27019	997247	40903	108464	0	0	8158	684185	0	0
2024-06-02 11:13:32			0	35082	0	0	0	22981	21670	144843	27029	997187	40890	108463	0	0	8158	684626	0	0
2024-06-02 11:14:32			0	35100	0	0	0	22989	21660	144891	26930	997090	40911	108466	0	0	8158	683844	0	0
2024-06-02 11:15:32			0	35082	0	0	0	22945	21640	144931	27012	996976	40887	108449	0	0	8158	684740	0	0
2024-06-02 11:16:32			0	35065	0	0	0	22989	21640	144891	27405	996932	40898	108466	0	0	8156	685515	0	0
2024-06-02 11:17:32			0	35057	0	0	0	22981	21630	145051	27263	996968	40898	108463	0	0	8156	685918	0	0
2024-06-02 11:18:32			0	35050	0	0	0	23015	21630	144955	27419	996986	40897	108476	0	0	8155	686237	0	0
2024-06-02 11:19:32			0	35064	0	0	0	22981	21610	145003	27241	996961	40885	108463	0	0	8156	685675	0	0
2024-06-02 11:20:32			0	35061	0	0	0	22966	21620	145035	27033	996924	40896	108457	0	0	8156	685774	0	0
2024-06-02 11:21:32			0	35048	0	0	0	22979	21610	145019	27291	996908	40885	108462	0	0	8155	686405	0	0
2024-06-02 11:22:32			0	35017	0	0	0	22984	21600	145179	27274	996917	40895	108464	0	0	8154	687859	0	0
2024-06-02 11:23:32			0	35005	0	0	0	22999	21600	145195	27211	996856	40905	108470	0	0	8153	688408	0	0
2024-06-02 11:24:32			0	35000	0	0	0	23044	21600	145359	27327	996997	40895	108487	0	0	8152	688637	0	0
2024-06-02 11:25:32			0	34995	0	0	0	23070	21610	145359	27365	997006	40907	108497	0	0	8151	688827	0	0
2024-06-02 11:26:32			0	34985	0	0	0	23070	21620	145439	27112	997076	40908	108497	0	0	8150	689247	0	0
2024-06-02 11:27:32			0	34984	0	0	0	23049	21620	145355	27371	997049	40918	108489	0	0	8151	689292	0	0
2024-06-02 11:28:32			0	35009	0	0	0	23049	21620	145327	27511	997084	40908	108489	0	0	8152	688149	0	0
2024-06-02 11:29:32			0	35020	0	0	0	23051	21620	145271	27234	997111	40918	108490	0	0	8153	687646	0	0
2024-06-02 11:30:32			0	35012	0	0	0	23075	21620	145363	27303	997129	40918	108499	0	0	8152	688011	0	0
2024-06-02 11:31:32			0	35031	0	0	0	23083	21630	145195	27305	997154	40920	108502	0	0	8153	687105	0	0
2024-06-02 11:32:32			0	35043	0	0	0	23067	21630	145191	27338	997181	40909	108496	0	0	8154	686557	0	0
2024-06-02 11:33:32			0	35049	0	0	0	23041	21640	145047	27338	997144	40920	108486	0	0	8155	686245	0	0
2024-06-02 11:34:32			0	35069	0	0	0	22999	21650	144999	27171	997100	40899	108470	0	0	8156	685294	0	0
2024-06-02 11:35:32			0	35085	0	0	0	22999	21640	144927	27338	997030	40898	108470	0	0	8157	684603	0	0
2024-06-02 11:36:32			0	35117	0	0	0	22976	21630	144836	26920	996959	40919	108461	0	0	8159	683185	0	0
2024-06-02 11:37:32			0	35124	0	0	0	22974	21620	144828	27360	996951	40896	108460	0	0	8160	682904	0	0
2024-06-02 11:38:32			0	35114	0	0	0	22984	21610	144863	27116	996934	40908	108464	0	0	8159	683397	0	0
2024-06-02 11:39:32			0	35112	0	0	0	22992	21600	144860	27431	996891	40906	108467	0	0	8159	683526	0	0
2024-06-02 11:40:32			0	35105	0	0	0	22986	21600	144888	27123	996891	40916	108465	0	0	8158	683845	0	0
2024-06-02 11:41:32			0	35105	0	0	0	22976	21600	144880	27310	996891	40916	108461	0	0	8159	683845	0	0
2024-06-02 11:42:32			0	35066	0	0	0	22981	21590	144915	27358	996900	40905	108463	0	0	8156	685660	0	0
2024-06-02 11:43:32			0	35081	0	0	0	23005	21600	144923	27178	996891	40906	108472	0	0	8157	684938	0	0
2024-06-02 11:44:32			0	35076	0	0	0	23010	21600	144975	27098	996864	40906	108474	0	0	8156	685166	0	0
2024-06-02 11:45:32			0	35071	0	0	0	23041	21590	144999	27353	996954	40916	108486	0	0	8156	685432	0	0
2024-06-02 11:46:32			0	35069	0	0	0	23054	21600	145011	27234	997024	40916	108491	0	0	8155	685485	0	0
2024-06-02 11:47:32			0	35057	0	0	0	23080	21610	145107	27286	997120	40908	108501	0	0	8154	685994	0	0
2024-06-02 11:48:32			0	35045	0	0	0	23072	21620	145091	27374	997102	40918	108498	0	0	8154	686504	0	0
2024-06-02 11:49:32			0	35030	0	0	0	23088	21630	145111	27041	997154	40920	108504	0	0	8153	687151	0	0
2024-06-02 11:50:32			0	35031	0	0	0	23075	21640	145171	27150	997189	40920	108499	0	0	8153	687067	0	0
2024-06-02 11:51:32			0	35037	0	0	0	23088	21640	145167	27478	997198	40909	108504	0	0	8153	686792	0	0
2024-06-02 11:52:32			0	35048	0	0	0	23096	21650	145151	27580	997215	40921	108507	0	0	8154	686252	0	0
2024-06-02 11:53:32			0	35068	0	0	0	23098	21660	145047	27476	997231	40921	108508	0	0	8155	685302	0	0
2024-06-02 11:54:32			0	35051	0	0	0	23124	21680	144983	27199	997337	40923	108518	0	0	8153	686001	0	0
2024-06-02 11:55:32			0	35060	0	0	0	23098	21670	144931	27364	997355	40923	108508	0	0	8154	685628	0	0
2024-06-02 11:56:32			0	35069	0	0	0	23135	21680	145039	27156	997398	40914	108522	0	0	8154	685180	0	0
2024-06-02 11:57:32			0	35073	0	0	0	23140	21680	144931	27467	997425	40947	108524	0	0	8154	684998	0	0
2024-06-02 11:58:32			0	35072	0	0	0	23155	21690	144835	27543	997415	40947	108530	0	0	8154	685005	0	0
2024-06-02 11:59:32			0	35119	0	0	0	23153	21700	144836	27346	997477	40925	108529	0	0	8157	682828	0	0
2024-06-02 12:00:32			0	35131	0	0	0	23150	21710	144760	27402	997459	40926	108528	0	0	8158	682244	0	0
2024-06-02 12:01:32			0	35163	0	0	0	23150	21710	144596	27523	997539	40926	108528	0	0	8159	680792	0	0
2024-06-02 12:02:32			0	35173	0	0	0	23145	21720	144608	27215	997529	40927	108526	0	0	8160	680300	0	0
2024-06-02 12:03:32			0	35202	0	0	0	23161	21720	144472	27424	997582	40927	108532	0	0	8161	678987	0	0
2024-06-02 12:04:32			0	35203	0	0	0	23155	21720	144400	27237	997556	40905	108530	0	0	8161	678941	0	0
2024-06-02 12:05:32			0	35212	0	0	0	23161	21720	144380	27362	997538	40916	108532	0	0	8162	678534	0	0
2024-06-02 12:06:32			0	35240	0	0	0	23161	21730	144384	27124	997626	40916	108532	0	0	8163	677230	0	0
2024-06-02 12:07:32			0	35229	0	0	0	23158	21720	144316	27351	997484	40928	108531	0	0	8163	677765	0	0
2024-06-02 12:08:32			0	35256	0	0	0	23163	21730	144328	27498	997626	40928	108533	0	0	8164	676508	0	0
2024-06-02 12:09:32			0	35244	0	0	0	23158	21730	144192	27277	997581	40928	108531	0	0	8164	677050	0	0
2024-06-02 12:10:32			0	35233	0	0	0	23171	21740	144260	27225	997616	40917	108536	0	0	8163	677509	0	0
2024-06-02 12:11:32			0	35241	0	0	0	23168	21740	144136	27390	997625	40929	108535	0	0	8163	677147	0	0
2024-06-02 12:12:32			0	35247	0	0	0	23166	21740	144136	27183	997598	40908	108534	0	0	8164	676876	0	0
2024-06-02 12:13:32			0	35267	0	0	0	23163	21740	144096	27312	997590	40929	108533	0	0	8165	675974	0	0
2024-06-02 12:14:32			0	35268	0	0	0	23166	21750	144120	27190	997633	40929	108534	0	0	8165	675891	0	0
2024-06-02 12:15:32			0	35271	0	0	0	23155	21750	144072	27171	997668	40919	108530	0	0	8165	675755	0	0
2024-06-02 12:16:32			0	35281	0	0	0	23166	21740	144064	27244	997598	40908	108534	0	0	8166	675342	0	0
2024-06-02 12:17:32			0	35273	0	0	0	23171	21750	144196	27327	997668	40930	108536	0	0	8165	675665	0	0
2024-06-02 12:18:32			0	35266	0	0	0	23197	21750	144052	27376	997686	40941	108546	0	0	8164	675981	0	0
2024-06-02 12:19:32			0	35287	0	0	0	23199	21770	144048	27298	997747	40931	108547	0	0	8165	674959	0	0
2024-06-02 12:20:32			0	35304	0	0	0	23176	21760	143992	27479	997756	40942	108538	0	0	8167	674231	0	0
2024-06-02 12:21:32			0	35320	0	0	0	23168	21770	143896	27450	997755	40932	108535	0	0	8168	673473	0	0
2024-06-02 12:22:32			0	35331	0	0	0	23186	21760	143872	27519	997703	40930	108542	0	0	8168	673015	0	0
2024-06-02 12:23:32			0	35313	0	0	0	23197	21770	143888	27400	997747	40931	108546	0	0	8167	673788	0	0
2024-06-02 12:24:32			0	35296	0	0	0	23205	21760	144020	27206	997738	40931	108549	0	0	8166	674591	0	0
2024-06-02 12:25:32			0	35287	0	0	0	23212	21770	144084	27074	997773	40931	108552	0	0	8165	674959	0	0
2024-06-02 12:26:32			0	35261	0	0	0	23218	21790	144092	27171	997834	40933	108554	0	0	8164	676056	0	0
2024-06-02 12:27:32			0	35258	0	0	0	23238	21800	144136	27407	997877	40934	108562	0	0	8163	676154	0	0
2024-06-02 12:28:32			0	35260	0	0	0	23249	21790	144140	27400	997860	40956	108566	0	0	8163	676101	0	0
2024-06-02 12:29:32			0	35265	0	0	0	23254	21800	144256	27235	997939	40946	108568	0	0	8163	675838	0	0
2024-06-02 12:30:32			0	35255	0	0	0	23244	21810	144260	27272	997974	40924	108564	0	0	8163	676251	0	0
2024-06-02 12:31:32			0	35257	0	0	0	23267	21810	144196	27393	997982	40947	108573	0	0	8163	676161	0	0
2024-06-02 12:32:32			0	35265	0	0	0	23270	21820	144248	27199	998018	40937	108574	0	0	8163	675763	0	0
2024-06-02 12:33:32			0	35274	0	0	0	23288	21830	144116	27488	998088	40949	108581	0	0	8164	675319	0	0
2024-06-02 12:34:32			0	35278	0	0	0	23251	21830	144076	27265	998096	40949	108567	0	0	8164	675139	0	0
2024-06-02 12:35:32			0	35269	0	0	0	23233	21830	144012	27197	998114	40937	108560	0	0	8164	675545	0	0
2024-06-02 12:36:32			0	35284	0	0	0	23223	21830	144004	27260	997990	40926	108556	0	0	8165	674868	0	0
2024-06-02 12:37:32			0	35265	0	0	0	23231	21840	144096	27144	998007	40938	108559	0	0	8164	675687	0	0
2024-06-02 12:38:32			0	35276	0	0	0	23264	21830	144180	27010	998070	40937	108572	0	0	8164	675229	0	0
2024-06-02 12:39:32			0	35223	0	0	0	23254	21840	144244	27275	998060	40938	108568	0	0	8161	677584	0	0
2024-06-02 12:40:32			0	35195	0	0	0	23272	21840	144276	27133	998078	40938	108575	0	0	8160	678850	0	0
2024-06-02 12:41:32			0	35176	0	0	0	23275	21840	144404	27211	998087	40938	108576	0	0	8158	679710	0	0
2024-06-02 12:42:32			0	35172	0	0	0	23277	21840	144396	27338	998113	40938	108577	0	0	8158	679891	0	0
2024-06-02 12:43:32			0	35163	0	0	0	23298	21850	144524	27147	998148	40939	108585	0	0	8157	680261	0	0
2024-06-02 12:44:32			0	35161	0	0	0	23288	21850	144452	27187	998148	40939	108581	0	0	8157	680352	0	0
2024-06-02 12:45:32			0	35183	0	0	0	23303	21860	144376	27230	998192	40940	108587	0	0	8158	679317	0	0
2024-06-02 12:46:32			0	35169	0	0	0	23303	21860	144412	27109	998227	40941	108587	0	0	8158	679951	0	0
2024-06-02 12:47:32			0	35196	0	0	0	23319	21860	144392	27020	998200	40952	108593	0	0	8159	678729	0	0
2024-06-02 12:48:32			0	35200	0	0	0	23322	21880	144312	27119	998306	40953	108594	0	0	8159	678472	0	0
2024-06-02 12:49:32			0	35219	0	0	0	23340	21880	144280	27026	998279	40942	108601	0	0	8160	677613	0	0
2024-06-02 12:50:32			0	35227	0	0	0	23342	21890	144200	27291	998376	40954	108602	0	0	8160	677214	0	0
2024-06-02 12:51:32			0	35280	0	0	0	23329	21890	144160	27348	998322	40954	108597	0	0	8163	674823	0	0
2024-06-02 12:52:32			0	35276	0	0	0	23337	21890	144004	27039	998322	40954	108600	0	0	8163	675003	0	0
2024-06-02 12:53:32			0	35313	0	0	0	23340	21900	143928	27289	998366	40944	108601	0	0	8165	673300	0	0
2024-06-02 12:54:32			0	35299	0	0	0	23358	21910	143872	27076	998356	40956	108608	0	0	8164	673892	0	0
2024-06-02 12:55:32			0	35306	0	0	0	23355	21900	143976	26981	998401	40945	108607	0	0	8164	673615	0	0
2024-06-02 12:56:32			0	35323	0	0	0	23376	21910	143764	27391	998410	40956	108615	0	0	8165	672813	0	0
2024-06-02 12:57:32			0	35360	0	0	0	23363	21920	143692	26932	998453	40957	108610	0	0	8167	671114	0	0
2024-06-02 12:58:32			0	35372	0	0	0	23350	21930	143672	26873	998497	40958	108605	0	0	8168	670538	0	0
2024-06-02 12:59:32			0	35401	0	0	0	23355	21920	143580	27085	998435	40958	108607	0	0	8170	669276	0	0
2024-06-02 13:00:32			0	35425	0	0	0	23361	21930	143532	27237	998497	40936	108609	0	0	8171	668165	0	0
2024-06-02 13:01:32			0	35418	0	0	0	23363	21930	143504	26981	998417	40958	108610	0	0	8171	668478	0	0
2024-06-02 13:02:32			0	35440	0	0	0	23355	21930	143340	26984	998505	40958	108607	0	0	8172	667494	0	0
2024-06-02 13:03:32			0	35463	0	0	0	23358	21940	143372	27152	998549	40959	108608	0	0	8173	666430	0	0
2024-06-02 13:04:32			0	35486	0	0	0	23366	21940	143276	26701	998549	40959	108611	0	0	8174	665404	0	0
2024-06-02 13:05:32			0	35489	0	0	0	23368	21940	143140	27249	998549	40948	108612	0	0	8174	665270	0	0
2024-06-02 13:06:32			0	35492	0	0	0	23368	21940	143112	27161	998540	40969	108612	0	0	8175	665136	0	0
2024-06-02 13:07:32			0	35515	0	0	0	23371	21950	143136	27137	998610	40971	108613	0	0	8176	664075	0	0
2024-06-02 13:08:32			0	35548	0	0	0	23368	21950	142964	27156	998584	40949	108612	0	0	8178	662607	0	0
2024-06-02 13:09:32			0	35561	0	0	0	23368	21950	142844	27225	998477	40949	108612	0	0	8178	662029	0	0
2024-06-02 13:10:32			0	35561	0	0	0	23361	21950	142820	27142	998584	40949	108609	0	0	8178	662029	0	0
2024-06-02 13:11:32			0	35565	0	0	0	23363	21950	142816	27253	998557	40971	108610	0	0	8179	661851	0	0
2024-06-02 13:12:32			0	35580	0	0	0	23345	21950	142876	27338	998530	40959	108603	0	0	8180	661185	0	0
2024-06-02 13:13:32			0	35575	0	0	0	23332	21950	142772	27320	998477	40949	108598	0	0	8180	661407	0	0
2024-06-02 13:14:32			0	35540	0	0	0	23332	21950	142892	27178	998477	40949	108598	0	0	8178	662962	0	0
2024-06-02 13:15:32			0	35535	0	0	0	23348	21950	142976	27383	998477	40949	108604	0	0	8177	663185	0	0
2024-06-02 13:16:32			0	35514	0	0	0	23335	21950	142972	27556	998557	40949	108599	0	0	8176	664119	0	0
2024-06-02 13:17:32			0	35501	0	0	0	23306	21940	142976	27196	998460	40947	108588	0	0	8176	664735	0	0
2024-06-02 13:18:32			0	35493	0	0	0	23337	21940	143168	27187	998407	40958	108600	0	0	8175	665092	0	0
2024-06-02 13:19:32			0	35465	0	0	0	23353	21940	143160	26994	998460	40958	108606	0	0	8173	666340	0	0
2024-06-02 13:20:32			0	35485	0	0	0	23350	21940	143232	27308	998495	40948	108605	0	0	8174	665448	0	0
2024-06-02 13:21:32			0	35517	0	0	0	23303	21950	143052	27315	998451	40959	108587	0	0	8177	663986	0	0
2024-06-02 13:22:32			0	35499	0	0	0	23340	21940	143084	26981	998487	40936	108601	0	0	8175	664824	0	0
2024-06-02 13:23:32			0	35499	0	0	0	23309	21950	143132	27267	998477	40949	108589	0	0	8176	664787	0	0
2024-06-02 13:24:32			0	35471	0	0	0	23327	21950	143184	26942	998451	40949	108596	0	0	8174	666036	0	0
2024-06-02 13:25:32			0	35450	0	0	0	23309	21940	143252	27263	998469	40959	108589	0	0	8173	667010	0	0
2024-06-02 13:26:32			0	35448	0	0	0	23301	21940	143364	27315	998407	40936	108586	0	0	8173	667100	0	0
2024-06-02 13:27:32			0	35438	0	0	0	23358	21930	143432	27383	998399	40947	108608	0	0	8172	667584	0	0
2024-06-02 13:28:32			0	35412	0	0	0	23366	21930	143432	27502	998478	40969	108611	0	0	8170	668746	0	0
2024-06-02 13:29:32			0	35451	0	0	0	23337	21950	143312	27060	998557	40949	108600	0	0	8173	666928	0	0
2024-06-02 13:30:32			0	35493	0	0	0	23342	21940	143164	27098	998469	40959	108602	0	0	8175	665092	0	0
2024-06-02 13:31:32			0	35496	0	0	0	23322	21940	143020	26991	998513	40947	108594	0	0	8175	664958	0	0
2024-06-02 13:32:32			0	35531	0	0	0	23322	21940	142968	27448	998513	40958	108594	0	0	8177	663400	0	0
2024-06-02 13:33:32			0	35545	0	0	0	23316	21940	142880	27339	998469	40926	108592	0	0	8178	662777	0	0
2024-06-02 13:34:32			0	35524	0	0	0	23301	21940	142972	27121	998460	40947	108586	0	0	8177	663711	0	0
2024-06-02 13:35:32			0	35519	0	0	0	23309	21940	142924	27377	998469	40948	108589	0	0	8177	663933	0	0
2024-06-02 13:36:32			0	35491	0	0	0	23270	21930	142972	27074	998345	40947	108574	0	0	8176	665218	0	0
2024-06-02 13:37:32			0	35474	0	0	0	23270	21930	143100	27178	998345	40936	108574	0	0	8175	665976	0	0
2024-06-02 13:38:32			0	35454	0	0	0	23285	21930	143172	27209	998390	40936	108580	0	0	8174	666869	0	0
2024-06-02 13:39:32			0	35455	0	0	0	23303	21920	143260	27097	998355	40946	108587	0	0	8174	666861	0	0
2024-06-02 13:40:32			0	35454	0	0	0	23327	21910	143308	27060	998445	40934	108596	0	0	8173	666943	0	0
2024-06-02 13:41:32			0	35444	0	0	0	23337	21920	143280	27282	998435	40958	108600	0	0	8172	667353	0	0
2024-06-02 13:42:32			0	35479	0	0	0	23322	21930	143280	27372	998443	40936	108594	0	0	8175	665753	0	0
2024-06-02 13:43:32			0	35496	0	0	0	23293	21930	143012	27289	998443	40969	108583	0	0	8176	664995	0	0
2024-06-02 13:44:32			0	35519	0	0	0	23246	21930	143084	27298	998337	40947	108565	0	0	8178	663970	0	0
2024-06-02 13:45:32			0	35503	0	0	0	23270	21920	143112	26953	998347	40934	108574	0	0	8177	664720	0	0
2024-06-02 13:46:32			0	35461	0	0	0	23280	21910	143172	26916	998303	40933	108578	0	0	8174	666631	0	0
2024-06-02 13:47:32			0	35455	0	0	0	23267	21910	143236	27199	998223	40945	108573	0	0	8174	666898	0	0
2024-06-02 13:48:32			0	35447	0	0	0	23236	21900	143268	27017	998260	40932	108561	0	0	8174	667293	0	0
2024-06-02 13:49:32			0	35433	0	0	0	23249	21910	143468	27012	998223	40945	108566	0	0	8173	667882	0	0
2024-06-02 13:50:32			0	35424	0	0	0	23236	21890	143408	27142	998216	40943	108561	0	0	8173	668358	0	0
2024-06-02 13:51:32			0	35399	0	0	0	23244	21890	143492	27079	998163	40932	108564	0	0	8171	669478	0	0
2024-06-02 13:52:32			0	35410	0	0	0	23270	21890	143576	27246	998243	40954	108574	0	0	8171	668985	0	0
2024-06-02 13:53:32			0	35409	0	0	0	23259	21880	143508	27431	998234	40943	108570	0	0	8172	669067	0	0
2024-06-02 13:54:32			0	35392	0	0	0	23290	21880	143504	27343	998226	40942	108582	0	0	8170	669828	0	0
2024-06-02 13:55:32			0	35442	0	0	0	23309	21890	143540	27268	998358	40943	108589	0	0	8173	667553	0	0
2024-06-02 13:56:32			0	35457	0	0	0	23288	21900	143388	26991	998366	40944	108581	0	0	8174	666846	0	0
2024-06-02 13:57:32			0	35461	0	0	0	23293	21890	143316	26968	998304	40954	108583	0	0	8174	666705	0	0
2024-06-02 13:58:32			0	35453	0	0	0	23298	21890	143288	27123	998358	40943	108585	0	0	8173	667062	0	0
2024-06-02 13:59:32			0	35470	0	0	0	23309	21900	143448	27230	998348	40945	108589	0	0	8174	666266	0	0
2024-06-02 14:00:32			0	35467	0	0	0	23314	21900	143332	27216	998339	40965	108591	0	0	8174	666400	0	0
2024-06-02 14:01:32			0	35490	0	0	0	23319	21900	143328	27241	998321	40966	108593	0	0	8175	665374	0	0
2024-06-02 14:02:32			0	35484	0	0	0	23290	21900	143324	26925	998401	40956	108582	0	0	8175	665641	0	0
2024-06-02 14:03:32			0	35483	0	0	0	23290	21900	143276	26800	998374	40933	108582	0	0	8175	665686	0	0
2024-06-02 14:04:32			0	35477	0	0	0	23306	21910	143240	27203	998445	40934	108588	0	0	8175	665916	0	0
2024-06-02 14:05:32			0	35491	0	0	0	23342	21910	143240	27041	998356	40956	108602	0	0	8175	665292	0	0
2024-06-02 14:06:32			0	35527	0	0	0	23246	21910	143112	27192	998311	40945	108565	0	0	8178	663688	0	0
2024-06-02 14:07:32			0	35519	0	0	0	23241	21900	143088	27019	998241	40912	108563	0	0	8178	664081	0	0
2024-06-02 14:08:32			0	35482	0	0	0	23251	21890	143268	26946	998198	40920	108567	0	0	8176	665768	0	0
2024-06-02 14:09:32			0	35489	0	0	0	23280	21890	143308	27248	998189	40943	108578	0	0	8176	665455	0	0
2024-06-02 14:10:32			0	35478	0	0	0	23293	21890	143344	26840	998224	40943	108583	0	0	8175	665946	0	0
2024-06-02 14:11:32			0	35481	0	0	0	23257	21890	143340	26878	998269	40932	108569	0	0	8176	665812	0	0
2024-06-02 14:12:32			0	35440	0	0	0	23210	21890	143384	27041	998243	40920	108551	0	0	8174	667643	0	0
2024-06-02 14:13:32			0	35401	0	0	0	23231	21880	143656	26849	998128	40943	108559	0	0	8172	669425	0	0
2024-06-02 14:14:32			0	35375	0	0	0	23228	21870	143768	27289	998156	40930	108558	0	0	8170	670628	0	0
2024-06-02 14:15:32			0	35353	0	0	0	23251	21870	143888	27112	998156	40941	108567	0	0	8169	671615	0	0
2024-06-02 14:16:32			0	35329	0	0	0	23246	21870	143964	26852	998164	40930	108565	0	0	8167	672693	0	0
2024-06-02 14:17:32			0	35312	0	0	0	23262	21870	144048	27088	998129	40952	108571	0	0	8166	673458	0	0
2024-06-02 14:18:32			0	35309	0	0	0	23272	21870	144084	27178	998129	40941	108575	0	0	8166	673593	0	0
2024-06-02 14:19:32			0	35318	0	0	0	23272	21860	144008	27050	998165	40929	108575	0	0	8166	673225	0	0
2024-06-02 14:20:32			0	35301	0	0	0	23264	21860	144144	27478	998174	40941	108572	0	0	8166	673990	0	0
2024-06-02 14:21:32			0	35297	0	0	0	23283	21870	144096	27320	998209	40941	108579	0	0	8165	674133	0	0
2024-06-02 14:22:32			0	35330	0	0	0	23270	21870	143992	27274	998191	40941	108574	0	0	8167	672648	0	0
2024-06-02 14:23:32			0	35337	0	0	0	23277	21870	143904	27140	998235	40941	108577	0	0	8167	672334	0	0
2024-06-02 14:24:32			0	35347	0	0	0	23290	21880	143960	27055	998172	40942	108582	0	0	8168	671847	0	0
2024-06-02 14:25:32			0	35356	0	0	0	23283	21870	143892	26882	998209	40952	108579	0	0	8168	671480	0	0
2024-06-02 14:26:32			0	35395	0	0	0	23272	21880	143796	26805	998252	40953	108575	0	0	8171	669694	0	0
2024-06-02 14:27:32			0	35385	0	0	0	23280	21880	143844	26991	998261	40932	108578	0	0	8170	670142	0	0
2024-06-02 14:28:32			0	35392	0	0	0	23283	21880	143824	27183	998261	40954	108579	0	0	8170	669828	0	0
2024-06-02 14:29:32			0	35392	0	0	0	23275	21880	143752	27013	998279	40942	108576	0	0	8170	669828	0	0
2024-06-02 14:30:32			0	35396	0	0	0	23251	21870	143760	27189	998191	40952	108567	0	0	8171	669687	0	0
2024-06-02 14:31:32			0	35371	0	0	0	23231	21880	143736	26996	998199	40942	108559	0	0	8170	670770	0	0
2024-06-02 14:32:32			0	35367	0	0	0	23238	21880	143872	27150	998172	40942	108562	0	0	8170	670949	0	0
2024-06-02 14:33:32			0	35342	0	0	0	23218	21860	143932	27102	998067	40941	108554	0	0	8169	672146	0	0
2024-06-02 14:34:32			0	35291	0	0	0	23202	21860	143980	26807	998094	40919	108548	0	0	8166	674440	0	0
2024-06-02 14:35:32			0	35278	0	0	0	23215	21850	144160	27112	998015	40928	108553	0	0	8165	675064	0	0
2024-06-02 14:36:32			0	35272	0	0	0	23244	21850	144276	27074	998077	40939	108564	0	0	8164	675334	0	0
2024-06-02 14:37:32			0	35292	0	0	0	23257	21850	144156	27227	998148	40928	108569	0	0	8165	674433	0	0
2024-06-02 14:38:32			0	35324	0	0	0	23267	21860	144080	27421	998200	40952	108573	0	0	8167	672955	0	0
2024-06-02 14:39:32			0	35314	0	0	0	23264	21870	144092	27317	998209	40952	108572	0	0	8166	673368	0	0
2024-06-02 14:40:32			0	35319	0	0	0	23311	21860	143952	27241	998254	40941	108590	0	0	8166	673180	0	0
2024-06-02 14:41:32			0	35351	0	0	0	23275	21870	143828	26894	998297	40963	108576	0	0	8168	671705	0	0
2024-06-02 14:42:32			0	35382	0	0	0	23306	21880	143704	26953	998279	40942	108588	0	0	8169	670277	0	0
2024-06-02 14:43:32			0	35427	0	0	0	23296	21870	143644	26745	998217	40941	108584	0	0	8172	668299	0	0
2024-06-02 14:44:32			0	35418	0	0	0	23316	21890	143592	27124	998269	40954	108592	0	0	8171	668627	0	0
2024-06-02 14:45:32			0	35436	0	0	0	23324	21890	143552	27135	998376	40943	108595	0	0	8172	667822	0	0
2024-06-02 14:46:32			0	35462	0	0	0	23309	21880	143396	27013	998341	40943	108589	0	0	8174	666697	0	0
2024-06-02 14:47:32			0	35480	0	0	0	23319	21900	143364	27013	998393	40932	108593	0	0	8175	665820	0	0
2024-06-02 14:48:32			0	35476	0	0	0	23309	21910	143272	27180	998410	40956	108589	0	0	8175	665961	0	0
2024-06-02 14:49:32			0	35470	0	0	0	23329	21900	143276	27086	998428	40945	108597	0	0	8174	666266	0	0
2024-06-02 14:50:32			0	35511	0	0	0	23348	21900	143224	26816	998419	40944	108604	0	0	8176	664438	0	0
2024-06-02 14:51:32			0	35540	0	0	0	23316	21900	143048	26982	998401	40977	108592	0	0	8178	663147	0	0
2024-06-02 14:52:32			0	35545	0	0	0	23288	21900	143040	27100	998374	40945	108581	0	0	8179	662925	0	0
2024-06-02 14:53:32			0	35529	0	0	0	23316	21900	143096	27157	998401	40945	108592	0	0	8177	663636	0	0
2024-06-02 14:54:32			0	35539	0	0	0	23277	21910	142984	27137	998391	40934	108577	0	0	8178	663154	0	0
2024-06-02 14:55:32			0	35530	0	0	0	23277	21920	143124	27128	998373	40945	108577	0	0	8178	663518	0	0
2024-06-02 14:56:32			0	35484	0	0	0	23272	21900	143208	27178	998348	40945	108575	0	0	8176	665641	0	0
2024-06-02 14:57:32			0	35456	0	0	0	23327	21910	143296	27090	998445	40934	108596	0	0	8173	666854	0	0
2024-06-02 14:58:32			0	35480	0	0	0	23301	21900	143248	27126	998401	40945	108586	0	0	8175	665820	0	0
2024-06-02 14:59:32			0	35480	0	0	0	23277	21910	143216	26939	998391	40934	108577	0	0	8175	665783	0	0
2024-06-02 15:00:32			0	35484	0	0	0	23342	21900	143296	27109	998401	40945	108602	0	0	8174	665641	0	0
2024-06-02 15:01:32			0	35490	0	0	0	23324	21900	143324	27026	998419	40955	108595	0	0	8175	665374	0	0
2024-06-02 15:02:32			0	35503	0	0	0	23337	21920	143156	27046	998462	40946	108600	0	0	8176	664720	0	0
2024-06-02 15:03:32			0	35513	0	0	0	23340	21920	143132	27190	998506	40957	108601	0	0	8176	664275	0	0
2024-06-02 15:04:32			0	35548	0	0	0	23319	21910	142956	27079	998445	40967	108593	0	0	8178	662754	0	0
2024-06-02 15:05:32			0	35561	0	0	0	23296	21920	142964	27149	998453	40945	108584	0	0	8179	662140	0	0
2024-06-02 15:06:32			0	35519	0	0	0	23251	21910	142936	26873	998365	40945	108567	0	0	8178	664044	0	0
2024-06-02 15:07:32			0	35520	0	0	0	23264	21900	143132	26996	998268	40933	108572	0	0	8178	664037	0	0
2024-06-02 15:08:32			0	35468	0	0	0	23257	21900	143256	27091	998268	40933	108569	0	0	8175	666355	0	0
2024-06-02 15:09:32			0	35439	0	0	0	23257	21890	143424	26967	998251	40932	108569	0	0	8173	667688	0	0
2024-06-02 15:10:32			0	35421	0	0	0	23259	21900	143472	27294	998241	40933	108570	0	0	8172	668455	0	0
2024-06-02 15:11:32			0	35415	0	0	0	23257	21890	143632	27097	998251	40943	108569	0	0	8172	668761	0	0
2024-06-02 15:12:32			0	35396	0	0	0	23272	21900	143644	27371	998260	40932	108575	0	0	8171	669575	0	0
2024-06-02 15:13:32			0	35370	0	0	0	23280	21890	143696	27109	998243	40920	108578	0	0	8169	670777	0	0
2024-06-02 15:14:32			0	35369	0	0	0	23306	21890	143676	27305	998243	40954	108588	0	0	8169	670822	0	0
2024-06-02 15:15:32			0	35386	0	0	0	23303	21890	143668	26935	998376	40943	108587	0	0	8170	670060	0	0
2024-06-02 15:16:32			0	35432	0	0	0	23309	21890	143604	27183	998322	40943	108589	0	0	8172	668001	0	0
2024-06-02 15:17:32			0	35428	0	0	0	23316	21900	143464	27022	998374	40945	108592	0	0	8172	668142	0	0
2024-06-02 15:18:32			0	35448	0	0	0	23306	21890	143472	27024	998331	40943	108588	0	0	8173	667285	0	0
2024-06-02 15:19:32			0	35437	0	0	0	23293	21900	143452	27326	998348	40956	108583	0	0	8173	667740	0	0
2024-06-02 15:20:32			0	35436	0	0	0	23296	21900	143460	27305	998401	40945	108584	0	0	8173	667784	0	0
2024-06-02 15:21:32			0	35447	0	0	0	23301	21900	143548	26961	998366	40944	108586	0	0	8173	667293	0	0
2024-06-02 15:22:32			0	35435	0	0	0	23311	21890	143552	27325	998331	40932	108590	0	0	8172	667866	0	0
2024-06-02 15:23:32			0	35444	0	0	0	23314	21900	143552	27410	998339	40965	108591	0	0	8173	667427	0	0
2024-06-02 15:24:32			0	35448	0	0	0	23319	21900	143504	26909	998366	40955	108593	0	0	8173	667248	0	0
2024-06-02 15:25:32			0	35444	0	0	0	23319	21900	143404	27289	998366	40965	108593	0	0	8173	667427	0	0
2024-06-02 15:26:32			0	35445	0	0	0	23303	21900	143480	27260	998313	40944	108587	0	0	8173	667382	0	0
2024-06-02 15:27:32			0	35435	0	0	0	23303	21900	143500	27222	998374	40945	108587	0	0	8172	667829	0	0
2024-06-02 15:28:32			0	35433	0	0	0	23314	21900	143500	27048	998419	40955	108591	0	0	8172	667919	0	0
2024-06-02 15:29:32			0	35429	0	0	0	23309	21900	143584	27381	998401	40945	108589	0	0	8172	668098	0	0
2024-06-02 15:30:32			0	35420	0	0	0	23298	21910	143496	27383	998436	40966	108585	0	0	8172	668463	0	0
2024-06-02 15:31:32			0	35408	0	0	0	23233	21900	143576	27331	998295	40945	108560	0	0	8172	669037	0	0
2024-06-02 15:32:32			0	35392	0	0	0	23233	21890	143700	26915	998216	40932	108560	0	0	8171	669791	0	0
2024-06-02 15:33:32			0	35359	0	0	0	23212	21880	143820	27175	998199	40919	108552	0	0	8170	671308	0	0
2024-06-02 15:34:32			0	35317	0	0	0	23186	21870	143992	26875	998111	40919	108542	0	0	8168	673233	0	0
2024-06-02 15:35:32			0	35262	0	0	0	23176	21860	144136	26941	998041	40941	108538	0	0	8165	675747	0	0
2024-06-02 15:36:32			0	35213	0	0	0	23215	21840	144396	27027	998007	40927	108553	0	0	8161	678035	0	0
2024-06-02 15:37:32			0	35219	0	0	0	23210	21840	144344	27008	998007	40927	108551	0	0	8162	677764	0	0
2024-06-02 15:38:32			0	35214	0	0	0	23184	21840	144376	27365	998007	40950	108541	0	0	8162	677990	0	0
2024-06-02 15:39:32			0	35197	0	0	0	23189	21840	144548	27166	997998	40938	108543	0	0	8161	678759	0	0
2024-06-02 15:40:32			0	35174	0	0	0	23189	21830	144576	27352	997928	40926	108543	0	0	8160	679839	0	0
2024-06-02 15:41:32			0	35151	0	0	0	23186	21820	144724	27268	997920	40925	108542	0	0	8159	680919	0	0
2024-06-02 15:42:32			0	35134	0	0	0	23184	21820	144680	27085	997884	40937	108541	0	0	8158	681690	0	0
2024-06-02 15:43:32			0	35116	0	0	0	23207	21820	144675	27192	997964	40925	108550	0	0	8156	682508	0	0
2024-06-02 15:44:32			0	35117	0	0	0	23192	21810	144860	27026	997903	40924	108544	0	0	8157	682501	0	0
2024-06-02 15:45:32			0	35114	0	0	0	23199	21810	144948	27261	997903	40936	108547	0	0	8156	682637	0	0
2024-06-02 15:46:32			0	35106	0	0	0	23205	21800	144903	27116	997912	40935	108549	0	0	8156	683039	0	0
2024-06-02 15:47:32			0	35120	0	0	0	23202	21810	144892	26982	997929	40936	108548	0	0	8156	682364	0	0
2024-06-02 15:48:32			0	35115	0	0	0	23192	21810	144811	27024	997929	40936	108544	0	0	8156	682591	0	0
2024-06-02 15:49:32			0	35098	0	0	0	23197	21800	144923	26986	997912	40935	108546	0	0	8155	683402	0	0
2024-06-02 15:50:32			0	35093	0	0	0	23202	21800	144931	27187	997886	40924	108548	0	0	8155	683630	0	0
2024-06-02 15:51:32			0	35113	0	0	0	23197	21790	144979	27199	997949	40945	108546	0	0	8156	682758	0	0
2024-06-02 15:52:32			0	35082	0	0	0	23194	21800	144955	27350	997877	40934	108545	0	0	8155	684130	0	0
2024-06-02 15:53:32			0	35084	0	0	0	23192	21800	144947	27034	997886	40935	108544	0	0	8155	684039	0	0
2024-06-02 15:54:32			0	35078	0	0	0	23194	21810	144943	27109	997894	40935	108545	0	0	8154	684274	0	0
2024-06-02 15:55:32			0	35071	0	0	0	23189	21800	144975	27256	997904	40923	108543	0	0	8154	684631	0	0
2024-06-02 15:56:32			0	35075	0	0	0	23197	21800	145043	27022	997939	40935	108546	0	0	8154	684449	0	0
2024-06-02 15:57:32			0	35068	0	0	0	23197	21800	145035	27081	997877	40945	108546	0	0	8154	684768	0	0
2024-06-02 15:58:32			0	35077	0	0	0	23215	21800	144959	27022	997957	40945	108553	0	0	8154	684358	0	0
2024-06-02 15:59:32			0	35073	0	0	0	23218	21810	145063	27232	997894	40935	108554	0	0	8154	684502	0	0
2024-06-02 16:00:32			0	35077	0	0	0	23228	21800	144987	27131	997966	40946	108558	0	0	8154	684358	0	0
2024-06-02 16:01:32			0	35072	0	0	0	23249	21800	145007	26890	997939	40935	108566	0	0	8153	684586	0	0
2024-06-02 16:02:32			0	35100	0	0	0	23246	21800	144947	26873	998019	40946	108565	0	0	8155	683311	0	0
2024-06-02 16:03:32			0	35136	0	0	0	23257	21820	144840	26788	998018	40948	108569	0	0	8156	681600	0	0
2024-06-02 16:04:32			0	35146	0	0	0	23283	21820	144800	27152	998132	40948	108579	0	0	8157	681146	0	0
2024-06-02 16:05:32			0	35140	0	0	0	23306	21830	144704	26828	998168	40949	108588	0	0	8156	681380	0	0
2024-06-02 16:06:32			0	35181	0	0	0	23309	21840	144668	26793	998211	40960	108589	0	0	8158	679484	0	0
2024-06-02 16:07:32			0	35243	0	0	0	23311	21840	144400	27088	998211	40938	108590	0	0	8161	676680	0	0
2024-06-02 16:08:32			0	35287	0	0	0	23309	21850	144184	26946	998290	40951	108589	0	0	8164	674658	0	0
2024-06-02 16:09:32			0	35314	0	0	0	23319	21850	143948	27142	998255	40939	108593	0	0	8165	673443	0	0
2024-06-02 16:10:32			0	35353	0	0	0	23314	21860	143896	26823	998245	40951	108591	0	0	8168	671652	0	0
2024-06-02 16:11:32			0	35371	0	0	0	23316	21860	143732	27112	998307	40952	108592	0	0	8168	670845	0	0
2024-06-02 16:12:32			0	35392	0	0	0	23306	21870	143704	27036	998297	40963	108588	0	0	8170	669866	0	0
2024-06-02 16:13:32			0	35404	0	0	0	23285	21890	143620	27140	998322	40954	108580	0	0	8171	669254	0	0
2024-06-02 16:14:32			0	35401	0	0	0	23280	21870	143692	27083	998262	40952	108578	0	0	8171	669462	0	0
2024-06-02 16:15:32			0	35375	0	0	0	23285	21870	143632	27100	998315	40952	108580	0	0	8169	670628	0	0
2024-06-02 16:16:32			0	35383	0	0	0	23301	21880	143764	26856	998306	40953	108586	0	0	8169	670232	0	0
2024-06-02 16:17:32			0	35364	0	0	0	23298	21870	143836	26736	998297	40963	108585	0	0	8168	671121	0	0
2024-06-02 16:18:32			0	35368	0	0	0	23311	21890	143800	27424	998349	40954	108590	0	0	8169	670867	0	0
2024-06-02 16:19:32			0	35380	0	0	0	23314	21880	143760	27256	998332	40953	108591	0	0	8169	670366	0	0
2024-06-02 16:20:32			0	35379	0	0	0	23322	21880	143692	27263	998306	40942	108594	0	0	8169	670411	0	0
2024-06-02 16:21:32			0	35393	0	0	0	23306	21890	143672	26864	998349	40954	108588	0	0	8170	669746	0	0
2024-06-02 16:22:32			0	35377	0	0	0	23316	21890	143636	27346	998376	40964	108592	0	0	8169	670463	0	0
2024-06-02 16:23:32			0	35389	0	0	0	23322	21890	143728	27235	998358	40964	108594	0	0	8169	669925	0	0
2024-06-02 16:24:32			0	35413	0	0	0	23311	21890	143612	27234	998358	40954	108590	0	0	8171	668851	0	0
2024-06-02 16:25:32			0	35404	0	0	0	23322	21900	143652	27116	998419	40965	108594	0	0	8170	669216	0	0
2024-06-02 16:26:32			0	35434	0	0	0	23322	21900	143556	27013	998419	40965	108594	0	0	8172	667874	0	0
2024-06-02 16:27:32			0	35440	0	0	0	23327	21900	143576	27128	998393	40944	108596	0	0	8172	667606	0	0
2024-06-02 16:28:32			0	35423	0	0	0	23322	21900	143516	27183	998393	40944	108594	0	0	8171	668366	0	0
2024-06-02 16:29:32			0	35450	0	0	0	23314	21900	143468	26908	998393	40955	108591	0	0	8173	667159	0	0
2024-06-02 16:30:32			0	35417	0	0	0	23319	21900	143536	27216	998428	40945	108593	0	0	8171	668634	0	0
2024-06-02 16:31:32			0	35419	0	0	0	23319	21900	143560	26805	998401	40956	108593	0	0	8171	668545	0	0
2024-06-02 16:32:32			0	35410	0	0	0	23311	21900	143552	27249	998393	40944	108590	0	0	8171	668948	0	0
2024-06-02 16:33:32			0	35435	0	0	0	23306	21910	143544	26922	998498	40945	108588	0	0	8172	667792	0	0
2024-06-02 16:34:32			0	35428	0	0	0	23314	21900	143652	27050	998374	40956	108591	0	0	8172	668142	0	0
2024-06-02 16:35:32			0	35423	0	0	0	23303	21900	143652	26946	998446	40955	108587	0	0	8172	668366	0	0
2024-06-02 16:36:32			0	35399	0	0	0	23303	21900	143584	27166	998393	40944	108587	0	0	8170	669440	0	0
2024-06-02 16:37:32			0	35416	0	0	0	23303	21910	143652	27286	998365	40945	108587	0	0	8171	668642	0	0
2024-06-02 16:38:32			0	35416	0	0	0	23301	21910	143632	27046	998418	40957	108586	0	0	8171	668642	0	0
2024-06-02 16:39:32			0	35423	0	0	0	23301	21900	143624	27194	998419	40944	108586	0	0	8172	668366	0	0
2024-06-02 16:40:32			0	35377	0	0	0	23303	21910	143688	27249	998410	40945	108587	0	0	8169	670389	0	0
2024-06-02 16:41:32			0	35371	0	0	0	23309	21900	143764	27154	998393	40955	108589	0	0	8169	670695	0	0
2024-06-02 16:42:32			0	35387	0	0	0	23303	21900	143884	27007	998366	40944	108587	0	0	8170	669978	0	0
2024-06-02 16:43:32			0	35345	0	0	0	23303	21900	143932	27026	998419	40944	108587	0	0	8167	671862	0	0
2024-06-02 16:44:32			0	35323	0	0	0	23293	21910	144016	27144	998383	40956	108583	0	0	8166	672813	0	0
2024-06-02 16:45:32			0	35314	0	0	0	23290	21890	144208	27121	998411	40943	108582	0	0	8166	673293	0	0
2024-06-02 16:46:32			0	35293	0	0	0	23285	21910	144256	27092	998383	40956	108580	0	0	8165	674163	0	0
2024-06-02 16:47:32			0	35245	0	0	0	23285	21890	144324	27225	998304	40954	108580	0	0	8162	676401	0	0
2024-06-02 16:48:32			0	35244	0	0	0	23285	21900	144344	27081	998348	40966	108580	0	0	8162	676409	0	0
2024-06-02 16:49:32			0	35218	0	0	0	23277	21900	144468	27242	998339	40944	108577	0	0	8161	677583	0	0
2024-06-02 16:50:32			0	35220	0	0	0	23277	21890	144384	26797	998269	40954	108577	0	0	8161	677530	0	0
2024-06-02 16:51:32			0	35201	0	0	0	23285	21890	144532	27338	998376	40954	108580	0	0	8160	678389	0	0
2024-06-02 16:52:32			0	35179	0	0	0	23277	21890	144640	27312	998349	40954	108577	0	0	8159	679385	0	0
2024-06-02 16:53:32			0	35170	0	0	0	23283	21890	144612	27390	998331	40954	108579	0	0	8158	679793	0	0
2024-06-02 16:54:32			0	35145	0	0	0	23277	21890	144732	27319	998296	40954	108577	0	0	8157	680926	0	0
2024-06-02 16:55:32			0	35168	0	0	0	23267	21890	144600	27246	998322	40943	108573	0	0	8158	679883	0	0
2024-06-02 16:56:32			0	35159	0	0	0	23272	21880	144572	27256	998287	40943	108575	0	0	8158	680329	0	0
2024-06-02 16:57:32			0	35175	0	0	0	23267	21890	144600	27216	998243	40943	108573	0	0	8159	679566	0	0
2024-06-02 16:58:32			0	35169	0	0	0	23267	21880	144628	27300	998261	40943	108573	0	0	8158	679876	0	0
2024-06-02 16:59:32			0	35164	0	0	0	23262	21890	144644	27535	998269	40943	108571	0	0	8158	680064	0	0
2024-06-02 17:00:32			0	35149	0	0	0	23275	21870	144644	26972	998217	40963	108576	0	0	8157	680820	0	0
2024-06-02 17:01:32			0	35133	0	0	0	23262	21870	144784	27268	998271	40930	108571	0	0	8156	681546	0	0
2024-06-02 17:02:32			0	35132	0	0	0	23259	21880	144724	27303	998279	40931	108570	0	0	8157	681553	0	0
2024-06-02 17:03:32			0	35120	0	0	0	23272	21880	144700	26753	998279	40953	108575	0	0	8156	682098	0	0
2024-06-02 17:04:32			0	35136	0	0	0	23275	21870	144700	27019	998182	40941	108576	0	0	8156	681410	0	0
2024-06-02 17:05:32			0	35132	0	0	0	23259	21870	144612	27362	998217	40941	108570	0	0	8156	681591	0	0
2024-06-02 17:06:32			0	35132	0	0	0	23264	21870	144692	26876	998244	40941	108572	0	0	8156	681591	0	0
2024-06-02 17:07:32			0	35161	0	0	0	23270	21870	144672	27343	998271	40941	108574	0	0	8158	680276	0	0
2024-06-02 17:08:32			0	35135	0	0	0	23270	21880	144648	27351	998252	40953	108574	0	0	8156	681417	0	0
2024-06-02 17:09:32			0	35152	0	0	0	23264	21870	144652	27327	998244	40952	108572	0	0	8157	680684	0	0
2024-06-02 17:10:32			0	35141	0	0	0	23270	21870	144656	27310	998324	40941	108574	0	0	8157	681183	0	0
2024-06-02 17:11:32			0	35153	0	0	0	23270	21870	144680	27398	998209	40952	108574	0	0	8157	680639	0	0
2024-06-02 17:12:32			0	35137	0	0	0	23270	21870	144624	27185	998262	40930	108574	0	0	8157	681364	0	0
2024-06-02 17:13:32			0	35154	0	0	0	23262	21870	144688	27093	998315	40941	108571	0	0	8158	680593	0	0
2024-06-02 17:14:32			0	35165	0	0	0	23257	21880	144644	27092	998279	40963	108569	0	0	8158	680057	0	0
2024-06-02 17:15:32			0	35167	0	0	0	23251	21870	144632	27085	998182	40941	108567	0	0	8159	680004	0	0
2024-06-02 17:16:32			0	35187	0	0	0	23244	21870	144552	27358	998262	40952	108564	0	0	8160	679098	0	0
2024-06-02 17:17:32			0	35177	0	0	0	23186	21860	144468	27164	998147	40941	108542	0	0	8160	679589	0	0
2024-06-02 17:18:32			0	35174	0	0	0	23241	21840	144636	26927	998087	40927	108563	0	0	8159	679801	0	0
2024-06-02 17:19:32			0	35174	0	0	0	23233	21850	144636	27294	998122	40951	108560	0	0	8159	679763	0	0
2024-06-02 17:20:32			0	35173	0	0	0	23244	21850	144632	27086	998183	40939	108564	0	0	8159	679808	0	0
2024-06-02 17:21:32			0	35183	0	0	0	23233	21850	144648	27114	998148	40939	108560	0	0	8160	679355	0	0
2024-06-02 17:22:32			0	35171	0	0	0	23236	21840	144636	27124	998193	40950	108561	0	0	8159	679936	0	0
2024-06-02 17:23:32			0	35187	0	0	0	23264	21850	144608	27306	998175	40951	108572	0	0	8159	679174	0	0
2024-06-02 17:24:32			0	35181	0	0	0	23233	21850	144624	27326	998228	40951	108560	0	0	8159	679446	0	0
2024-06-02 17:25:32			0	35192	0	0	0	23238	21840	144568	27317	998087	40950	108562	0	0	8160	678985	0	0
2024-06-02 17:26:32			0	35201	0	0	0	23192	21850	144484	27350	998157	40939	108544	0	0	8161	678541	0	0
2024-06-02 17:27:32			0	35209	0	0	0	23205	21830	144532	27022	998008	40926	108549	0	0	8161	678254	0	0
2024-06-02 17:28:32			0	35191	0	0	0	23218	21840	144544	27237	998105	40938	108554	0	0	8160	679031	0	0
2024-06-02 17:29:32			0	35211	0	0	0	23210	21850	144552	27019	998095	40961	108551	0	0	8162	678088	0	0
2024-06-02 17:30:32			0	35206	0	0	0	23207	21840	144504	27095	998078	40950	108550	0	0	8161	678352	0	0
2024-06-02 17:31:32			0	35204	0	0	0	23220	21830	144500	26994	998043	40937	108555	0	0	8161	678480	0	0
2024-06-02 17:32:32			0	35231	0	0	0	23220	21820	144496	27026	997991	40937	108555	0	0	8162	677298	0	0
2024-06-02 17:33:32			0	35207	0	0	0	23181	21820	144508	27041	998018	40937	108540	0	0	8162	678382	0	0
2024-06-02 17:34:32			0	35217	0	0	0	23186	21820	144428	27171	997991	40937	108542	0	0	8162	677930	0	0
2024-06-02 17:35:32			0	35242	0	0	0	23197	21820	144460	27157	997938	40948	108546	0	0	8163	676801	0	0
2024-06-02 17:36:32			0	35234	0	0	0	23194	21820	144408	27405	997964	40948	108545	0	0	8163	677162	0	0
2024-06-02 17:37:32			0	35246	0	0	0	23176	21800	144408	27116	997939	40935	108538	0	0	8164	676696	0	0
2024-06-02 17:38:32			0	35250	0	0	0	23161	21810	144384	27175	997921	40924	108532	0	0	8164	676477	0	0
2024-06-02 17:39:32			0	35243	0	0	0	23171	21800	144420	27287	997939	40924	108536	0	0	8164	676831	0	0
2024-06-02 17:40:32			0	35244	0	0	0	23148	21790	144348	26981	997914	40922	108527	0	0	8164	676823	0	0
2024-06-02 17:41:32			0	35272	0	0	0	23145	21790	144484	27010	997762	40934	108526	0	0	8166	675560	0	0
2024-06-02 17:42:32			0	35234	0	0	0	23163	21790	144408	27324	997807	40933	108533	0	0	8163	677275	0	0
2024-06-02 17:43:32			0	35243	0	0	0	23158	21780	144400	27471	997790	40932	108531	0	0	8164	676906	0	0
2024-06-02 17:44:32			0	35242	0	0	0	23174	21770	144380	27282	997835	40943	108537	0	0	8163	676989	0	0
2024-06-02 17:45:32			0	35235	0	0	0	23163	21770	144440	27367	997782	40932	108533	0	0	8163	677305	0	0
2024-06-02 17:46:32			0	35251	0	0	0	23163	21770	144432	26807	997773	40931	108533	0	0	8164	676583	0	0
2024-06-02 17:47:32			0	35273	0	0	0	23163	21770	144372	27428	997808	40932	108533	0	0	8165	675590	0	0
2024-06-02 17:48:32			0	35257	0	0	0	23158	21760	144384	27372	997765	40931	108531	0	0	8164	676349	0	0
2024-06-02 17:49:32			0	35279	0	0	0	23140	21770	144316	26913	997800	40943	108524	0	0	8166	675320	0	0
2024-06-02 17:50:32			0	35252	0	0	0	23140	21760	144396	27235	997738	40931	108524	0	0	8165	676575	0	0
2024-06-02 17:51:32			0	35251	0	0	0	23135	21760	144500	26928	997703	40919	108522	0	0	8165	676620	0	0
2024-06-02 17:52:32			0	35254	0	0	0	23153	21740	144464	27390	997731	40929	108529	0	0	8164	676560	0	0
2024-06-02 17:53:32			0	35275	0	0	0	23161	21740	144332	27150	997678	40941	108532	0	0	8165	675613	0	0
2024-06-02 17:54:32			0	35306	0	0	0	23166	21750	144268	27124	997766	40941	108534	0	0	8167	674178	0	0
2024-06-02 17:55:32			0	35306	0	0	0	23140	21740	144264	27046	997678	40941	108524	0	0	8167	674215	0	0
2024-06-02 17:56:32			0	35296	0	0	0	23122	21750	144228	27142	997695	40930	108517	0	0	8167	674628	0	0
2024-06-02 17:57:32			0	35295	0	0	0	23090	21750	144356	27119	997686	40929	108505	0	0	8168	674674	0	0
2024-06-02 17:58:32			0	35290	0	0	0	23145	21740	144352	27111	997723	40929	108526	0	0	8166	674936	0	0
2024-06-02 17:59:32			0	35303	0	0	0	23132	21740	144264	27306	997696	40940	108521	0	0	8167	674351	0	0
2024-06-02 18:00:32			0	35302	0	0	0	23067	21740	144168	27161	997625	40941	108496	0	0	8168	674396	0	0
2024-06-02 18:01:32			0	35308	0	0	0	23080	21730	144228	27022	997626	40916	108501	0	0	8168	674163	0	0
2024-06-02 18:02:32			0	35309	0	0	0	23111	21720	144152	27284	997538	40928	108513	0	0	8168	674156	0	0
2024-06-02 18:03:32			0	35293	0	0	0	23129	21720	144224	26928	997591	40939	108520	0	0	8167	674876	0	0
2024-06-02 18:04:32			0	35292	0	0	0	23129	21730	144160	27230	997679	40939	108520	0	0	8167	674884	0	0
2024-06-02 18:05:32			0	35317	0	0	0	23088	21720	144188	27107	997617	40939	108504	0	0	8169	673795	0	0
2024-06-02 18:06:32			0	35329	0	0	0	23077	21720	144116	27196	997582	40927	108500	0	0	8170	673255	0	0
2024-06-02 18:07:32			0	35328	0	0	0	23083	21720	144116	26859	997503	40916	108502	0	0	8169	673300	0	0
2024-06-02 18:08:32			0	35317	0	0	0	23083	21710	144092	27313	997494	40926	108502	0	0	8169	673833	0	0
2024-06-02 18:09:32			0	35318	0	0	0	23077	21710	144056	27027	997486	40926	108500	0	0	8169	673788	0	0
2024-06-02 18:10:32			0	35338	0	0	0	23077	21700	144048	27291	997557	40925	108500	0	0	8170	672925	0	0
2024-06-02 18:11:32			0	35329	0	0	0	23067	21700	144148	27111	997503	40936	108496	0	0	8170	673330	0	0
2024-06-02 18:12:32			0	35322	0	0	0	23077	21690	144184	27163	997495	40936	108500	0	0	8169	673683	0	0
2024-06-02 18:13:32			0	35307	0	0	0	23070	21690	144136	27093	997468	40936	108497	0	0	8168	674358	0	0
2024-06-02 18:14:32			0	35317	0	0	0	23059	21690	144084	27050	997433	40914	108493	0	0	8169	673908	0	0
2024-06-02 18:15:32			0	35313	0	0	0	23059	21690	144076	27282	997468	40903	108493	0	0	8169	674088	0	0
2024-06-02 18:16:32			0	35316	0	0	0	23051	21680	144120	27190	997372	40924	108490	0	0	8169	673990	0	0
2024-06-02 18:17:32			0	35328	0	0	0	23044	21680	144100	27109	997416	40934	108487	0	0	8170	673450	0	0
2024-06-02 18:18:32			0	35329	0	0	0	23044	21670	144092	27163	997302	40923	108487	0	0	8170	673443	0	0
2024-06-02 18:19:32			0	35322	0	0	0	23041	21670	144092	26946	997346	40922	108486	0	0	8170	673758	0	0
2024-06-02 18:20:32			0	35343	0	0	0	23051	21650	144092	26902	997294	40921	108490	0	0	8170	672888	0	0
2024-06-02 18:21:32			0	35351	0	0	0	23041	21670	144084	27232	997400	40922	108486	0	0	8171	672453	0	0
2024-06-02 18:22:32			0	35332	0	0	0	23049	21660	144060	27114	997338	40933	108489	0	0	8170	673345	0	0
2024-06-02 18:23:32			0	35331	0	0	0	23028	21650	144080	26816	997366	40943	108481	0	0	8170	673428	0	0
2024-06-02 18:24:32			0	35334	0	0	0	23028	21660	144128	26941	997303	40921	108481	0	0	8170	673255	0	0
2024-06-02 18:25:32			0	35318	0	0	0	23038	21660	144116	27015	997223	40921	108485	0	0	8169	673975	0	0
2024-06-02 18:26:32			0	35329	0	0	0	23028	21640	144144	27242	997278	40931	108481	0	0	8170	673555	0	0
2024-06-02 18:27:32			0	35344	0	0	0	23018	21640	144128	27029	997189	40920	108477	0	0	8171	672880	0	0
2024-06-02 18:28:32			0	35317	0	0	0	23018	21640	144184	27059	997163	40931	108477	0	0	8170	674095	0	0
2024-06-02 18:29:32			0	35338	0	0	0	23012	21630	144244	27086	997181	40920	108475	0	0	8171	673188	0	0
2024-06-02 18:30:32			0	35314	0	0	0	23012	21630	144076	27138	997181	40909	108475	0	0	8169	674268	0	0
2024-06-02 18:31:32			0	35323	0	0	0	23028	21630	144132	27275	997252	40919	108481	0	0	8170	673863	0	0
2024-06-02 18:32:32			0	35334	0	0	0	23018	21630	144220	26830	997172	40908	108477	0	0	8170	673368	0	0
2024-06-02 18:33:32			0	35313	0	0	0	23018	21620	144308	26953	997217	40918	108477	0	0	8169	674351	0	0
2024-06-02 18:34:32			0	35308	0	0	0	23007	21620	144196	27229	997155	40908	108473	0	0	8169	674576	0	0
2024-06-02 18:35:32			0	35318	0	0	0	23002	21630	144128	27020	997172	40919	108471	0	0	8170	674088	0	0
2024-06-02 18:36:32			0	35309	0	0	0	23002	21620	144220	27097	997129	40918	108471	0	0	8169	674531	0	0
2024-06-02 18:37:32			0	35310	0	0	0	23002	21620	144248	27074	997111	40929	108471	0	0	8169	674486	0	0
2024-06-02 18:38:32			0	35314	0	0	0	22994	21610	144256	26982	997094	40929	108468	0	0	8170	674343	0	0
2024-06-02 18:39:32			0	35291	0	0	0	22999	21610	144244	27079	997059	40907	108470	0	0	8168	675380	0	0
2024-06-02 18:40:32			0	35296	0	0	0	22981	21610	144316	27362	997085	40917	108463	0	0	8169	675154	0	0
2024-06-02 18:41:32			0	35281	0	0	0	22989	21600	144200	27149	997104	40916	108466	0	0	8168	675868	0	0
2024-06-02 18:42:32			0	35296	0	0	0	22986	21610	144312	27171	997085	40917	108465	0	0	8169	675154	0	0
2024-06-02 18:43:32			0	35272	0	0	0	22994	21600	144352	27081	997050	40927	108468	0	0	8167	676275	0	0
2024-06-02 18:44:32			0	35271	0	0	0	22989	21600	144412	27015	997077	40916	108466	0	0	8167	676320	0	0
2024-06-02 18:45:32			0	35249	0	0	0	22994	21600	144440	26615	997122	40926	108468	0	0	8166	677313	0	0
2024-06-02 18:46:32			0	35246	0	0	0	22989	21600	144516	27218	997104	40916	108466	0	0	8166	677449	0	0
2024-06-02 18:47:32			0	35241	0	0	0	22986	21590	144456	27222	997087	40916	108465	0	0	8166	677713	0	0
2024-06-02 18:48:32			0	35252	0	0	0	22974	21600	144396	27156	997095	40926	108460	0	0	8167	677178	0	0
2024-06-02 18:49:32			0	35241	0	0	0	22989	21590	144496	26890	997007	40905	108466	0	0	8166	677713	0	0
2024-06-02 18:50:32			0	35248	0	0	0	22984	21590	144508	27045	996945	40916	108464	0	0	8166	677396	0	0
2024-06-02 18:51:32			0	35243	0	0	0	22981	21590	144528	27216	996954	40916	108463	0	0	8166	677622	0	0
2024-06-02 18:52:32			0	35226	0	0	0	22981	21590	144512	26974	997033	40926	108463	0	0	8165	678391	0	0
2024-06-02 18:53:32			0	35241	0	0	0	22976	21590	144556	27062	996972	40926	108461	0	0	8166	677713	0	0
2024-06-02 18:54:32			0	35220	0	0	0	22966	21570	144652	27104	997053	40914	108457	0	0	8165	678738	0	0
2024-06-02 18:55:32			0	35208	0	0	0	22963	21580	144648	26996	997008	40903	108456	0	0	8164	679244	0	0
2024-06-02 18:56:32			0	35180	0	0	0	22974	21580	144740	26935	996981	40914	108460	0	0	8163	680513	0	0
2024-06-02 18:57:32			0	35191	0	0	0	22974	21580	144672	27319	996963	40915	108460	0	0	8163	680014	0	0
2024-06-02 18:58:32			0	35189	0	0	0	22974	21580	144720	26802	996928	40914	108460	0	0	8163	680105	0	0
2024-06-02 18:59:32			0	35171	0	0	0	22968	21580	144820	26925	996981	40925	108458	0	0	8162	680921	0	0
2024-06-02 19:00:32			0	35182	0	0	0	22971	21580	144776	27149	997034	40903	108459	0	0	8163	680422	0	0
2024-06-02 19:01:32			0	35169	0	0	0	22976	21570	144792	26996	997018	40914	108461	0	0	8162	681050	0	0
2024-06-02 19:02:32			0	35154	0	0	0	22981	21570	144872	26828	996964	40914	108463	0	0	8161	681731	0	0
2024-06-02 19:03:32			0	35147	0	0	0	22986	21570	144952	27039	996946	40914	108465	0	0	8161	682049	0	0
2024-06-02 19:04:32			0	35142	0	0	0	22979	21580	144988	27213	997008	40925	108462	0	0	8160	682238	0	0
2024-06-02 19:05:32			0	35140	0	0	0	22974	21570	144916	27180	996938	40925	108460	0	0	8160	682367	0	0
2024-06-02 19:06:32			0	35114	0	0	0	22968	21580	145035	27045	996928	40914	108458	0	0	8159	683511	0	0
2024-06-02 19:07:32			0	35117	0	0	0	22966	21570	145028	27388	996946	40914	108457	0	0	8159	683413	0	0
2024-06-02 19:08:32			0	35117	0	0	0	22974	21580	145024	26951	996937	40937	108460	0	0	8159	683375	0	0
2024-06-02 19:09:32			0	35118	0	0	0	22971	21570	145076	26866	996938	40914	108459	0	0	8159	683367	0	0
2024-06-02 19:10:32			0	35086	0	0	0	22974	21570	145127	26986	996911	40903	108460	0	0	8157	684824	0	0
2024-06-02 19:11:32			0	35085	0	0	0	22976	21570	145155	26854	996973	40914	108461	0	0	8157	684870	0	0
2024-06-02 19:12:32			0	35088	0	0	0	22974	21570	145163	26746	996938	40925	108460	0	0	8158	684733	0	0
2024-06-02 19:13:32			0	35070	0	0	0	22966	21570	145107	27026	996991	40925	108457	0	0	8157	685554	0	0
2024-06-02 19:14:32			0	35059	0	0	0	22971	21560	145127	27029	996982	40924	108459	0	0	8156	686094	0	0
2024-06-02 19:15:32			0	35069	0	0	0	22979	21570	145259	27020	996911	40914	108462	0	0	8156	685599	0	0
2024-06-02 19:16:32			0	35061	0	0	0	22981	21560	145247	27237	996982	40924	108463	0	0	8156	686002	0	0
2024-06-02 19:17:32			0	35042	0	0	0	22968	21580	145315	27163	996981	40903	108458	0	0	8155	686793	0	0
2024-06-02 19:18:32			0	35043	0	0	0	22976	21570	145307	26762	996911	40925	108461	0	0	8155	686786	0	0
2024-06-02 19:19:32			0	35037	0	0	0	22968	21570	145363	27076	996946	40914	108458	0	0	8155	687060	0	0
2024-06-02 19:20:32			0	35022	0	0	0	22966	21560	145363	27208	996929	40913	108457	0	0	8154	687784	0	0
2024-06-02 19:21:32			0	35026	0	0	0	22963	21570	145347	27116	996884	40914	108456	0	0	8154	687563	0	0
2024-06-02 19:22:32			0	35027	0	0	0	22963	21560	145407	27277	996974	40913	108456	0	0	8154	687555	0	0
2024-06-02 19:23:32			0	35011	0	0	0	22968	21560	145431	26819	997009	40924	108458	0	0	8153	688287	0	0
2024-06-02 19:24:32			0	35006	0	0	0	22971	21560	145435	26955	996929	40913	108459	0	0	8153	688515	0	0
2024-06-02 19:25:32			0	35021	0	0	0	22974	21560	145411	27038	996894	40913	108460	0	0	8154	687829	0	0
2024-06-02 19:26:32			0	35004	0	0	0	22966	21570	145563	27325	996991	40914	108457	0	0	8153	688569	0	0
2024-06-02 19:27:32			0	34998	0	0	0	22961	21560	145547	27145	996903	40924	108455	0	0	8153	688882	0	0
2024-06-02 19:28:32			0	35017	0	0	0	22966	21560	145531	27201	996903	40913	108457	0	0	8154	688012	0	0
2024-06-02 19:29:32			0	35004	0	0	0	22966	21560	145583	27351	996929	40913	108457	0	0	8153	688607	0	0
2024-06-02 19:30:32			0	34988	0	0	0	22961	21570	145555	27071	996964	40914	108455	0	0	8152	689301	0	0
2024-06-02 19:31:32			0	34973	0	0	0	22948	21560	145583	27422	996903	40913	108450	0	0	8152	690027	0	0
2024-06-02 19:32:32			0	35005	0	0	0	22958	21560	145675	27350	996823	40913	108454	0	0	8153	688561	0	0
2024-06-02 19:33:32			0	34969	0	0	0	22948	21570	145735	27268	996911	40936	108450	0	0	8151	690171	0	0
2024-06-02 19:34:32			0	34951	0	0	0	22950	21560	145771	27300	996894	40913	108451	0	0	8150	691035	0	0
2024-06-02 19:35:32			0	34952	0	0	0	22955	21560	145735	27034	996868	40923	108453	0	0	8150	690989	0	0
2024-06-02 19:36:32			0	34961	0	0	0	22950	21550	145839	27168	996886	40913	108451	0	0	8151	690615	0	0
2024-06-02 19:37:32			0	34949	0	0	0	22955	21550	145763	27027	996833	40923	108453	0	0	8150	691165	0	0
2024-06-02 19:38:32			0	34940	0	0	0	22963	21550	145971	27176	996886	40913	108456	0	0	8149	691579	0	0
2024-06-02 19:39:32			0	34943	0	0	0	22968	21550	145803	26850	996886	40901	108458	0	0	8150	691441	0	0
2024-06-02 19:40:32			0	34957	0	0	0	22971	21560	145831	26896	996947	40923	108459	0	0	8150	690760	0	0
2024-06-02 19:41:32			0	34937	0	0	0	22955	21550	145895	27234	996851	40934	108453	0	0	8149	691716	0	0
2024-06-02 19:42:32			0	34938	0	0	0	22955	21540	145827	27116	996922	40922	108453	0	0	8149	691709	0	0
2024-06-02 19:43:32			0	34931	0	0	0	22945	21550	145779	26882	996886	40913	108449	0	0	8149	691992	0	0
2024-06-02 19:44:32			0	34928	0	0	0	22945	21550	145859	27320	996859	40923	108449	0	0	8149	692130	0	0
2024-06-02 19:45:32			0	34889	0	0	0	22937	21550	145819	27041	996824	40901	108446	0	0	8147	693923	0	0
2024-06-02 19:46:32			0	34911	0	0	0	22948	21550	145967	26993	996797	40923	108450	0	0	8148	692911	0	0
2024-06-02 19:47:32			0	34891	0	0	0	22942	21540	145943	27248	996869	40912	108448	0	0	8147	693869	0	0
2024-06-02 19:48:32			0	34884	0	0	0	22935	21540	145979	27152	996842	40900	108445	0	0	8147	694192	0	0
2024-06-02 19:49:32			0	34877	0	0	0	22937	21540	146119	27008	996842	40912	108446	0	0	8146	694514	0	0
2024-06-02 19:50:32			0	34854	0	0	0	22948	21540	146015	26991	996842	40933	108450	0	0	8145	695574	0	0
2024-06-02 19:51:32			0	34871	0	0	0	22940	21540	146091	27248	996860	40900	108447	0	0	8146	694790	0	0
2024-06-02 19:52:32			0	34846	0	0	0	22932	21550	146095	27178	996851	40913	108444	0	0	8145	695904	0	0
2024-06-02 19:53:32			0	34851	0	0	0	22932	21540	146119	27277	996816	40912	108444	0	0	8145	695712	0	0
2024-06-02 19:54:32			0	34855	0	0	0	22937	21540	146155	27440	996842	40922	108446	0	0	8145	695528	0	0
2024-06-02 19:55:32			0	34838	0	0	0	22937	21540	146203	27218	996816	40900	108446	0	0	8144	696312	0	0
2024-06-02 19:56:32			0	34858	0	0	0	22937	21540	146203	27185	996781	40911	108446	0	0	8145	695389	0	0
2024-06-02 19:57:32			0	34832	0	0	0	22935	21540	146207	27064	996807	40911	108445	0	0	8144	696589	0	0
2024-06-02 19:58:32			0	34826	0	0	0	22942	21530	146287	27327	996825	40910	108448	0	0	8143	696904	0	0
2024-06-02 19:59:32			0	34806	0	0	0	22942	21530	146447	27130	996799	40920	108448	0	0	8142	697828	0	0
2024-06-02 20:00:32			0	34808	0	0	0	22940	21540	146375	26665	996807	40921	108447	0	0	8143	697697	0	0
2024-06-02 20:01:32			0	34810	0	0	0	22942	21540	146391	27105	996789	40912	108448	0	0	8143	697605	0	0
2024-06-02 20:02:32			0	34806	0	0	0	22940	21540	146347	26892	996807	40911	108447	0	0	8142	697790	0	0
2024-06-02 20:03:32			0	34805	0	0	0	22942	21530	146391	26942	996852	40920	108448	0	0	8142	697875	0	0
2024-06-02 20:04:32			0	34815	0	0	0	22945	21530	146447	27249	996790	40920	108449	0	0	8143	697413	0	0
2024-06-02 20:05:32			0	34791	0	0	0	22945	21530	146475	26733	996852	40910	108449	0	0	8141	698522	0	0
2024-06-02 20:06:32			0	34810	0	0	0	22940	21530	146411	27194	996825	40920	108447	0	0	8143	697643	0	0
2024-06-02 20:07:32			0	34828	0	0	0	22942	21540	146347	27164	996834	40911	108448	0	0	8144	696773	0	0
2024-06-02 20:08:32			0	34824	0	0	0	22942	21530	146343	27312	996825	40910	108448	0	0	8143	696997	0	0
2024-06-02 20:09:32			0	34834	0	0	0	22940	21540	146247	27516	996834	40911	108447	0	0	8144	696496	0	0
2024-06-02 20:10:32			0	34851	0	0	0	22929	21540	146195	26998	996807	40921	108443	0	0	8145	695712	0	0
2024-06-02 20:11:32			0	34861	0	0	0	22924	21530	146259	27312	996799	40910	108441	0	0	8146	695290	0	0
2024-06-02 20:12:32			0	34856	0	0	0	22935	21530	146179	27085	996772	40920	108445	0	0	8145	695520	0	0
2024-06-02 20:13:32			0	34849	0	0	0	22927	21530	146231	27206	996711	40920	108442	0	0	8145	695843	0	0
2024-06-02 20:14:32			0	34807	0	0	0	22924	21530	146331	27057	996719	40910	108441	0	0	8143	697782	0	0
2024-06-02 20:15:32			0	34791	0	0	0	22927	21530	146415	27322	996825	40920	108442	0	0	8142	698522	0	0
2024-06-02 20:16:32			0	34777	0	0	0	22919	21530	146527	27116	996817	40920	108439	0	0	8141	699170	0	0
2024-06-02 20:17:32			0	34749	0	0	0	22927	21530	146675	27067	996772	40920	108442	0	0	8139	700467	0	0
2024-06-02 20:18:32			0	34735	0	0	0	22922	21530	146691	27230	996799	40910	108440	0	0	8139	701116	0	0
2024-06-02 20:19:32			0	34738	0	0	0	22929	21520	146819	27332	996755	40899	108443	0	0	8139	701016	0	0
2024-06-02 20:20:32			0	34714	0	0	0	22919	21520	146863	26753	996800	40909	108439	0	0	8138	702130	0	0
2024-06-02 20:21:32			0	34719	0	0	0	22916	21520	146851	27234	996782	40920	108438	0	0	8138	701897	0	0
2024-06-02 20:22:32			0	34698	0	0	0	22919	21520	146843	26840	996782	40910	108439	0	0	8137	702873	0	0
2024-06-02 20:23:32			0	34700	0	0	0	22916	21520	146819	26906	996747	40909	108438	0	0	8137	702780	0	0
2024-06-02 20:24:32			0	34696	0	0	0	22927	21510	146799	27012	996738	40908	108442	0	0	8136	703005	0	0
2024-06-02 20:25:32			0	34680	0	0	0	22916	21520	146939	27053	996694	40919	108438	0	0	8136	703710	0	0
2024-06-02 20:26:32			0	34682	0	0	0	22914	21510	146963	26840	996730	40908	108437	0	0	8136	703656	0	0
2024-06-02 20:27:32			0	34670	0	0	0	22916	21510	146935	27095	996703	40897	108438	0	0	8135	704214	0	0
2024-06-02 20:28:32			0	34675	0	0	0	22929	21520	146943	26837	996747	40919	108443	0	0	8135	703943	0	0
2024-06-02 20:29:32			0	34673	0	0	0	22919	21510	146887	27138	996712	40918	108439	0	0	8135	704075	0	0
2024-06-02 20:30:32			0	34674	0	0	0	22919	21520	146963	26939	996747	40909	108439	0	0	8135	703989	0	0
2024-06-02 20:31:32			0	34668	0	0	0	22911	21510	146855	27092	996712	40918	108436	0	0	8135	704307	0	0
2024-06-02 20:32:32			0	34671	0	0	0	22924	21510	146955	27279	996792	40908	108441	0	0	8135	704168	0	0
2024-06-02 20:33:32			0	34670	0	0	0	22932	21510	146943	27393	996738	40908	108444	0	0	8135	704214	0	0
2024-06-02 20:34:32			0	34657	0	0	0	22924	21510	147027	27296	996738	40897	108441	0	0	8134	704820	0	0
2024-06-02 20:35:32			0	34663	0	0	0	22914	21510	147023	27170	996685	40908	108437	0	0	8135	704540	0	0
2024-06-02 20:36:32			0	34655	0	0	0	22911	21520	147051	27022	996720	40909	108436	0	0	8134	704874	0	0
2024-06-02 20:37:32			0	34657	0	0	0	22914	21500	147083	27150	996695	40918	108437	0	0	8134	704859	0	0
2024-06-02 20:38:32			0	34640	0	0	0	22911	21510	147191	27043	996685	40908	108436	0	0	8134	705612	0	0
2024-06-02 20:39:32			0	34642	0	0	0	22911	21500	147287	27069	996695	40908	108436	0	0	8134	705558	0	0
2024-06-02 20:40:32			0	34625	0	0	0	22903	21510	147143	27137	996712	40908	108433	0	0	8133	706311	0	0
2024-06-02 20:41:32			0	34617	0	0	0	22911	21510	147227	27208	996738	40918	108436	0	0	8132	706684	0	0
2024-06-02 20:42:32			0	34602	0	0	0	22906	21510	147259	26932	996659	40918	108434	0	0	8132	707385	0	0
2024-06-02 20:43:32			0	34587	0	0	0	22911	21490	147363	27112	996625	40928	108436	0	0	8131	708164	0	0
2024-06-02 20:44:32			0	34578	0	0	0	22916	21510	147391	26916	996703	40908	108438	0	0	8130	708506	0	0
2024-06-02 20:45:32			0	34568	0	0	0	22909	21510	147407	27251	996650	40908	108435	0	0	8130	708974	0	0
2024-06-02 20:46:32			0	34566	0	0	0	22911	21510	147415	26998	996685	40918	108436	0	0	8129	709068	0	0
2024-06-02 20:47:32			0	34548	0	0	0	22911	21500	147495	26863	996668	40918	108436	0	0	8128	709950	0	0
2024-06-02 20:48:32			0	34550	0	0	0	22911	21510	147419	27234	996685	40918	108436	0	0	8129	709817	0	0
2024-06-02 20:49:32			0	34518	0	0	0	22906	21510	147635	27128	996703	40908	108434	0	0	8127	711316	0	0
2024-06-02 20:50:32			0	34549	0	0	0	22903	21510	147607	27187	996685	40897	108433	0	0	8129	709863	0	0
2024-06-02 20:51:32			0	34520	0	0	0	22903	21500	147691	26918	996722	40908	108433	0	0	8127	711262	0	0
2024-06-02 20:52:32			0	34494	0	0	0	22906	21510	147779	27086	996730	40918	108434	0	0	8126	712443	0	0
2024-06-02 20:53:32			0	34475	0	0	0	22890	21500	147783	27121	996660	40907	108428	0	0	8125	713375	0	0
2024-06-02 20:54:32			0	34478	0	0	0	22888	21500	147803	27324	996615	40918	108427	0	0	8125	713234	0	0
2024-06-02 20:55:32			0	34468	0	0	0	22888	21500	147895	27388	996615	40918	108427	0	0	8124	713704	0	0
2024-06-02 20:56:32			0	34469	0	0	0	22883	21500	147943	27319	996660	40907	108425	0	0	8124	713657	0	0
2024-06-02 20:57:32			0	34456	0	0	0	22890	21500	147931	26830	996527	40896	108428	0	0	8124	714268	0	0
2024-06-02 20:58:32			0	34462	0	0	0	22890	21500	147935	27305	996607	40917	108428	0	0	8124	713986	0	0
2024-06-02 20:59:32			0	34474	0	0	0	22888	21500	148003	27220	996553	40907	108427	0	0	8125	713422	0	0
2024-06-02 21:00:32			0	34471	0	0	0	22888	21490	148011	27166	996563	40928	108427	0	0	8124	713603	0	0
2024-06-02 21:01:32			0	34467	0	0	0	22885	21480	147979	27222	996555	40917	108426	0	0	8124	713831	0	0
2024-06-02 21:02:32			0	34478	0	0	0	22880	21490	147847	27123	996563	40906	108424	0	0	8125	713274	0	0
2024-06-02 21:03:32			0	34491	0	0	0	22888	21480	147791	27098	996635	40906	108427	0	0	8126	712702	0	0
2024-06-02 21:04:32			0	34522	0	0	0	22883	21480	147635	27303	996581	40906	108425	0	0	8127	711247	0	0
2024-06-02 21:05:32			0	34513	0	0	0	22885	21490	147827	27078	996670	40917	108426	0	0	8127	711630	0	0
2024-06-02 21:06:32			0	34533	0	0	0	22883	21490	147647	27012	996590	40906	108425	0	0	8128	710692	0	0
2024-06-02 21:07:32			0	34549	0	0	0	22875	21490	147543	26901	996643	40917	108422	0	0	8129	709942	0	0
2024-06-02 21:08:32			0	34545	0	0	0	22883	21480	147507	26986	996600	40905	108425	0	0	8129	710169	0	0
2024-06-02 21:09:32			0	34547	0	0	0	22872	21480	147535	27097	996573	40894	108421	0	0	8129	710075	0	0
2024-06-02 21:10:32			0	34547	0	0	0	22867	21470	147543	27265	996618	40893	108419	0	0	8129	710115	0	0
2024-06-02 21:11:32			0	34529	0	0	0	22875	21480	147503	27104	996520	40894	108422	0	0	8128	710919	0	0
2024-06-02 21:12:32			0	34548	0	0	0	22875	21480	147527	27000	996581	40917	108422	0	0	8129	710029	0	0
2024-06-02 21:13:32			0	34551	0	0	0	22859	21480	147627	27041	996600	40916	108416	0	0	8129	709888	0	0
2024-06-02 21:14:32			0	34560	0	0	0	22862	21470	147539	27119	996538	40926	108417	0	0	8130	709506	0	0
2024-06-02 21:15:32			0	34557	0	0	0	22877	21460	147551	26920	996548	40904	108423	0	0	8129	709686	0	0
2024-06-02 21:16:32			0	34574	0	0	0	22872	21470	147475	26932	996529	40915	108421	0	0	8130	708851	0	0
2024-06-02 21:17:32			0	34580	0	0	0	22862	21470	147383	26949	996618	40905	108417	0	0	8131	708570	0	0
2024-06-02 21:18:32			0	34583	0	0	0	22867	21470	147503	26870	996538	40905	108419	0	0	8131	708430	0	0
2024-06-02 21:19:32			0	34568	0	0	0	22859	21480	147347	27258	996546	40905	108416	0	0	8130	709092	0	0
2024-06-02 21:20:32			0	34583	0	0	0	22867	21470	147331	26961	996529	40904	108419	0	0	8131	708430	0	0
2024-06-02 21:21:32			0	34589	0	0	0	22854	21470	147271	27244	996503	40904	108414	0	0	8132	708150	0	0
2024-06-02 21:22:32			0	34595	0	0	0	22859	21470	147279	27189	996503	40904	108416	0	0	8132	707869	0	0
2024-06-02 21:23:32			0	34599	0	0	0	22862	21460	147195	26927	996521	40904	108417	0	0	8132	707722	0	0
2024-06-02 21:24:32			0	34609	0	0	0	22844	21460	147311	26902	996521	40892	108410	0	0	8133	707254	0	0
2024-06-02 21:25:32			0	34602	0	0	0	22857	21470	147255	26786	996503	40904	108415	0	0	8132	707542	0	0
2024-06-02 21:26:32			0	34608	0	0	0	22857	21460	147383	26800	996441	40904	108415	0	0	8132	707301	0	0
2024-06-02 21:27:32			0	34618	0	0	0	22844	21460	147367	27053	996494	40904	108410	0	0	8133	706834	0	0
2024-06-02 21:28:32			0	34623	0	0	0	22838	21450	147383	27159	996442	40913	108408	0	0	8134	706640	0	0
2024-06-02 21:29:32			0	34591	0	0	0	22849	21450	147315	26974	996469	40902	108412	0	0	8132	708135	0	0
2024-06-02 21:30:32			0	34609	0	0	0	22859	21450	147231	26878	996389	40913	108416	0	0	8132	707294	0	0
2024-06-02 21:31:32			0	34604	0	0	0	22862	21440	147351	27272	996478	40891	108417	0	0	8132	707567	0	0
2024-06-02 21:32:32			0	34610	0	0	0	22859	21440	147427	27029	996434	40891	108416	0	0	8132	707286	0	0
2024-06-02 21:33:32			0	34599	0	0	0	22859	21440	147319	27166	996434	40913	108416	0	0	8132	707800	0	0
2024-06-02 21:34:32			0	34626	0	0	0	22857	21460	147327	26838	996513	40904	108415	0	0	8133	706461	0	0
2024-06-02 21:35:32			0	34637	0	0	0	22849	21440	147251	27067	996452	40902	108412	0	0	8134	706026	0	0
2024-06-02 21:36:32			0	34647	0	0	0	22851	21450	147131	26734	996442	40913	108413	0	0	8135	705521	0	0
2024-06-02 21:37:32			0	34658	0	0	0	22841	21440	147183	27227	996487	40902	108409	0	0	8135	705047	0	0
2024-06-02 21:38:32			0	34643	0	0	0	22854	21440	147075	27055	996452	40902	108414	0	0	8134	705746	0	0
2024-06-02 21:39:32			0	34665	0	0	0	22862	21450	147087	27279	996416	40902	108417	0	0	8136	704682	0	0
2024-06-02 21:40:32			0	34656	0	0	0	22862	21450	147115	26935	996451	40903	108417	0	0	8135	705101	0	0
2024-06-02 21:41:32			0	34679	0	0	0	22859	21440	147095	27201	996460	40913	108416	0	0	8136	704069	0	0
2024-06-02 21:42:32			0	34656	0	0	0	22859	21450	147119	27521	996530	40903	108416	0	0	8135	705101	0	0
2024-06-02 21:43:32			0	34676	0	0	0	22862	21440	147015	27279	996434	40913	108417	0	0	8136	704209	0	0
2024-06-02 21:44:32			0	34681	0	0	0	22857	21460	147059	27066	996513	40925	108415	0	0	8137	703898	0	0
2024-06-02 21:45:32			0	34691	0	0	0	22859	21450	146891	27013	996477	40903	108416	0	0	8137	703472	0	0
2024-06-02 21:46:32			0	34711	0	0	0	22857	21450	146963	27379	996469	40913	108415	0	0	8138	702542	0	0
2024-06-02 21:47:32			0	34727	0	0	0	22854	21460	146907	27388	996486	40904	108414	0	0	8139	701760	0	0
2024-06-02 21:48:32			0	34724	0	0	0	22862	21450	146803	27367	996522	40902	108417	0	0	8139	701939	0	0
2024-06-02 21:49:32			0	34743	0	0	0	22857	21450	146635	27341	996451	40924	108415	0	0	8140	701057	0	0
2024-06-02 21:50:32			0	34784	0	0	0	22854	21450	146739	27319	996416	40913	108414	0	0	8142	699157	0	0
2024-06-02 21:51:32			0	34771	0	0	0	22851	21450	146699	27055	996424	40903	108413	0	0	8142	699759	0	0
2024-06-02 21:52:32			0	34784	0	0	0	22844	21440	146551	26930	996513	40902	108410	0	0	8142	699196	0	0
2024-06-02 21:53:32			0	34783	0	0	0	22846	21440	146623	26982	996407	40891	108411	0	0	8142	699242	0	0
2024-06-02 21:54:32			0	34799	0	0	0	22846	21440	146507	26764	996425	40902	108411	0	0	8143	698501	0	0
2024-06-02 21:55:32			0	34814	0	0	0	22846	21450	146467	27263	996477	40891	108411	0	0	8144	697769	0	0
2024-06-02 21:56:32			0	34817	0	0	0	22846	21450	146487	26864	996442	40902	108411	0	0	8144	697630	0	0
2024-06-02 21:57:32			0	34838	0	0	0	22844	21440	146303	26994	996434	40923	108410	0	0	8145	696699	0	0
2024-06-02 21:58:32			0	34846	0	0	0	22857	21440	146247	26989	996460	40913	108415	0	0	8146	696330	0	0
2024-06-02 21:59:32			0	34877	0	0	0	22849	21440	146115	26927	996407	40913	108412	0	0	8147	694900	0	0
2024-06-02 22:00:32			0	34908	0	0	0	22854	21440	146091	26856	996460	40902	108414	0	0	8149	693473	0	0
2024-06-02 22:01:32			0	34943	0	0	0	22846	21440	146083	26989	996460	40902	108411	0	0	8151	691864	0	0
2024-06-02 22:02:32			0	34935	0	0	0	22851	21440	145903	27052	996540	40902	108413	0	0	8151	692231	0	0
2024-06-02 22:03:32			0	34963	0	0	0	22859	21440	145915	27241	996399	40902	108416	0	0	8152	690946	0	0
2024-06-02 22:04:32			0	34973	0	0	0	22864	21440	145871	26967	996487	40913	108418	0	0	8152	690487	0	0
2024-06-02 22:05:32			0	34983	0	0	0	22857	21440	145763	27168	996460	40902	108415	0	0	8153	690029	0	0
2024-06-02 22:06:32			0	34968	0	0	0	22854	21440	145915	27048	996478	40902	108414	0	0	8152	690716	0	0
2024-06-02 22:07:32			0	34971	0	0	0	22849	21460	145867	27161	996459	40925	108412	0	0	8153	690502	0	0
2024-06-02 22:08:32			0	34949	0	0	0	22846	21440	145831	26916	996434	40913	108411	0	0	8151	691588	0	0
2024-06-02 22:09:32			0	34961	0	0	0	22849	21440	145867	27426	996460	40902	108412	0	0	8152	691038	0	0
2024-06-02 22:10:32			0	34967	0	0	0	22846	21440	145775	27114	996434	40913	108411	0	0	8152	690762	0	0
2024-06-02 22:11:32			0	34976	0	0	0	22841	21430	145843	27253	996443	40912	108409	0	0	8153	690388	0	0
2024-06-02 22:12:32			0	34972	0	0	0	22841	21440	145819	27090	996425	40902	108409	0	0	8153	690533	0	0
2024-06-02 22:13:32			0	34980	0	0	0	22851	21450	145799	27230	996416	40902	108413	0	0	8153	690128	0	0
2024-06-02 22:14:32			0	34968	0	0	0	22849	21450	145835	27324	996469	40913	108412	0	0	8152	690678	0	0
2024-06-02 22:15:32			0	34963	0	0	0	22841	21430	145891	27208	996443	40901	108409	0	0	8152	690984	0	0
2024-06-02 22:16:32			0	34953	0	0	0	22849	21440	145871	26939	996399	40902	108412	0	0	8152	691405	0	0
2024-06-02 22:17:32			0	34944	0	0	0	22851	21440	145955	26942	996399	40902	108413	0	0	8151	691818	0	0
2024-06-02 22:18:32			0	34936	0	0	0	22831	21430	145979	27220	996382	40889	108405	0	0	8151	692224	0	0
2024-06-02 22:19:32			0	34925	0	0	0	22846	21430	145967	27232	996355	40911	108411	0	0	8150	692730	0	0
2024-06-02 22:20:32			0	34907	0	0	0	22838	21430	146099	27208	996390	40901	108408	0	0	8149	693557	0	0
2024-06-02 22:21:32			0	34913	0	0	0	22841	21440	146079	27353	996372	40902	108409	0	0	8150	693243	0	0
2024-06-02 22:22:32			0	34892	0	0	0	22838	21430	146127	27232	996390	40922	108408	0	0	8148	694248	0	0
2024-06-02 22:23:32			0	34888	0	0	0	22846	21430	146259	27426	996390	40922	108411	0	0	8148	694432	0	0
2024-06-02 22:24:32			0	34898	0	0	0	22841	21440	146203	27012	996434	40913	108409	0	0	8149	693933	0	0
2024-06-02 22:25:32			0	34866	0	0	0	22841	21430	146247	27206	996337	40912	108409	0	0	8147	695446	0	0
2024-06-02 22:26:32			0	34853	0	0	0	22836	21430	146207	27339	996417	40901	108407	0	0	8146	696045	0	0
2024-06-02 22:27:32			0	34851	0	0	0	22836	21440	146387	26863	996399	40902	108407	0	0	8146	696099	0	0
2024-06-02 22:28:32			0	34833	0	0	0	22838	21430	146471	27034	996364	40901	108408	0	0	8145	696969	0	0
2024-06-02 22:29:32			0	34823	0	0	0	22833	21440	146459	27419	996425	40923	108406	0	0	8145	697392	0	0
2024-06-02 22:30:32			0	34817	0	0	0	22836	21430	146499	27123	996390	40912	108407	0	0	8144	697708	0	0
2024-06-02 22:31:32			0	34801	0	0	0	22844	21430	146547	27064	996408	40911	108410	0	0	8143	698448	0	0
2024-06-02 22:32:32			0	34807	0	0	0	22825	21430	146623	27324	996364	40912	108403	0	0	8144	698170	0	0
2024-06-02 22:33:32			0	34814	0	0	0	22833	21440	146531	27237	996425	40913	108406	0	0	8144	697808	0	0
2024-06-02 22:34:32			0	34815	0	0	0	22825	21420	146515	27033	996347	40911	108403	0	0	8144	697839	0	0
2024-06-02 22:35:32			0	34817	0	0	0	22836	21430	146523	27057	996355	40900	108407	0	0	8144	697708	0	0
2024-06-02 22:36:32			0	34833	0	0	0	22828	21430	146447	27372	996337	40922	108404	0	0	8145	696969	0	0
2024-06-02 22:37:32			0	34847	0	0	0	22831	21420	146395	27119	996400	40911	108405	0	0	8146	696361	0	0
2024-06-02 22:38:32			0	34852	0	0	0	22823	21420	146391	27590	996320	40900	108402	0	0	8146	696130	0	0
2024-06-02 22:39:32			0	34863	0	0	0	22823	21420	146351	27118	996312	40911	108402	0	0	8147	695623	0	0
2024-06-02 22:40:32			0	34844	0	0	0	22831	21430	146335	27568	996310	40922	108405	0	0	8146	696461	0	0
2024-06-02 22:41:32			0	34865	0	0	0	22825	21420	146255	27114	996373	40911	108403	0	0	8147	695530	0	0
2024-06-02 22:42:32			0	34856	0	0	0	22823	21420	146363	27485	996338	40900	108402	0	0	8147	695946	0	0
2024-06-02 22:43:32			0	34856	0	0	0	22823	21420	146199	27381	996427	40900	108402	0	0	8147	695946	0	0
2024-06-02 22:44:32			0	34862	0	0	0	22825	21420	146267	26809	996347	40911	108403	0	0	8147	695669	0	0
2024-06-02 22:45:32			0	34863	0	0	0	22831	21410	146327	27355	996330	40899	108405	0	0	8147	695662	0	0
2024-06-02 22:46:32			0	34845	0	0	0	22823	21430	146379	27177	996355	40900	108402	0	0	8146	696415	0	0
2024-06-02 22:47:32			0	34863	0	0	0	22823	21420	146279	27159	996373	40900	108402	0	0	8147	695623	0	0
2024-06-02 22:48:32			0	34834	0	0	0	22825	21430	146383	27216	996329	40900	108403	0	0	8145	696922	0	0
2024-06-02 22:49:32			0	34846	0	0	0	22825	21420	146455	27138	996347	40922	108403	0	0	8146	696407	0	0
2024-06-02 22:50:32			0	34835	0	0	0	22825	21400	146451	26960	996375	40920	108403	0	0	8145	696993	0	0
2024-06-02 22:51:32			0	34825	0	0	0	22823	21410	146535	27362	996356	40910	108402	0	0	8145	697416	0	0
2024-06-02 22:52:32			0	34802	0	0	0	22831	21430	146515	27234	996382	40911	108405	0	0	8144	698402	0	0
2024-06-02 22:53:32			0	34816	0	0	0	22823	21410	146531	27194	996383	40910	108402	0	0	8144	697832	0	0
2024-06-02 22:54:32			0	34806	0	0	0	22825	21420	146543	27386	996373	40900	108403	0	0	8144	698255	0	0
2024-06-02 22:55:32			0	34824	0	0	0	22838	21420	146467	27076	996320	40889	108408	0	0	8145	697423	0	0
2024-06-02 22:56:32			0	34823	0	0	0	22844	21420	146543	27339	996320	40900	108410	0	0	8144	697469	0	0
2024-06-02 22:57:32			0	34812	0	0	0	22841	21420	146479	26887	996373	40922	108409	0	0	8144	697978	0	0
2024-06-02 22:58:32			0	34846	0	0	0	22838	21420	146435	27045	996347	40911	108408	0	0	8146	696407	0	0
2024-06-02 22:59:32			0	34847	0	0	0	22836	21420	146347	27128	996391	40911	108407	0	0	8146	696361	0	0
2024-06-02 23:00:32			0	34856	0	0	0	22828	21420	146239	27305	996365	40900	108404	0	0	8147	695946	0	0
2024-06-02 23:01:32			0	34901	0	0	0	22838	21410	146287	27104	996330	40910	108408	0	0	8149	693911	0	0
2024-06-02 23:02:32			0	34909	0	0	0	22841	21410	146179	27036	996330	40910	108409	0	0	8149	693542	0	0
2024-06-02 23:03:32			0	34923	0	0	0	22838	21400	146095	26949	996348	40920	108408	0	0	8150	692937	0	0
2024-06-02 23:04:32			0	34910	0	0	0	22828	21430	145987	27208	996364	40890	108404	0	0	8150	693419	0	0
2024-06-02 23:05:32			0	34923	0	0	0	22841	21420	145971	27211	996400	40900	108409	0	0	8150	692860	0	0
2024-06-02 23:06:32			0	34940	0	0	0	22833	21420	145911	27154	996365	40911	108406	0	0	8151	692079	0	0
2024-06-02 23:07:32			0	34916	0	0	0	22828	21420	145975	27123	996312	40911	108404	0	0	8150	693182	0	0
2024-06-02 23:08:32			0	34917	0	0	0	22815	21420	146115	27027	996347	40900	108399	0	0	8150	693136	0	0
2024-06-02 23:09:32			0	34900	0	0	0	22818	21420	146135	27130	996312	40900	108400	0	0	8149	693918	0	0
2024-06-02 23:10:32			0	34878	0	0	0	22807	21410	146219	27144	996303	40910	108396	0	0	8148	694970	0	0
2024-06-02 23:11:32			0	34852	0	0	0	22802	21410	146231	27289	996330	40910	108394	0	0	8147	696169	0	0
2024-06-02 23:12:32			0	34828	0	0	0	22797	21410	146375	27196	996197	40888	108392	0	0	8145	697277	0	0
2024-06-02 23:13:32			0	34804	0	0	0	22779	21400	146483	27258	996268	40898	108385	0	0	8144	698425	0	0
2024-06-02 23:14:32			0	34816	0	0	0	22776	21400	146567	27137	996242	40898	108384	0	0	8145	697870	0	0
2024-06-02 23:15:32			0	34789	0	0	0	22784	21390	146515	27222	996198	40897	108387	0	0	8143	699158	0	0
2024-06-02 23:16:32			0	34773	0	0	0	22792	21400	146595	26868	996180	40909	108390	0	0	8142	699861	0	0
2024-06-02 23:17:32			0	34788	0	0	0	22784	21390	146619	27284	996172	40919	108387	0	0	8143	699205	0	0
2024-06-02 23:18:32			0	34757	0	0	0	22789	21390	146711	27293	996243	40909	108389	0	0	8142	700641	0	0
2024-06-02 23:19:32			0	34740	0	0	0	22786	21380	146799	27237	996234	40908	108388	0	0	8141	701469	0	0
2024-06-02 23:20:32			0	34732	0	0	0	22792	21390	146839	27109	996190	40909	108390	0	0	8140	701801	0	0
2024-06-02 23:21:32			0	34735	0	0	0	22789	21380	146947	27254	996208	40908	108389	0	0	8140	701701	0	0
2024-06-02 23:22:32			0	34728	0	0	0	22779	21380	146887	26864	996173	40917	108385	0	0	8140	702026	0	0
2024-06-02 23:23:32			0	34725	0	0	0	22781	21380	146851	27015	996173	40907	108386	0	0	8140	702165	0	0
2024-06-02 23:24:32			0	34703	0	0	0	22761	21380	146975	27119	996199	40907	108378	0	0	8139	703188	0	0
2024-06-02 23:25:32			0	34704	0	0	0	22758	21370	146927	26854	996103	40907	108377	0	0	8139	703180	0	0
2024-06-02 23:26:32			0	34712	0	0	0	22771	21370	146971	27124	996138	40896	108382	0	0	8139	702808	0	0
2024-06-02 23:27:32			0	34703	0	0	0	22771	21370	147019	26916	996076	40907	108382	0	0	8139	703227	0	0
2024-06-02 23:28:32			0	34693	0	0	0	22768	21360	147039	27097	996139	40894	108381	0	0	8138	703731	0	0
2024-06-02 23:29:32			0	34695	0	0	0	22766	21370	147111	27012	996138	40907	108380	0	0	8138	703599	0	0
2024-06-02 23:30:32			0	34701	0	0	0	22763	21360	147003	27241	996121	40883	108379	0	0	8139	703359	0	0
2024-06-02 23:31:32			0	34681	0	0	0	22768	21370	147031	27334	996129	40907	108381	0	0	8138	704250	0	0
2024-06-02 23:32:32			0	34688	0	0	0	22768	21360	146991	27253	996086	40894	108381	0	0	8138	703964	0	0
2024-06-02 23:33:32			0	34674	0	0	0	22763	21360	147091	27267	996068	40895	108379	0	0	8137	704615	0	0
2024-06-02 23:34:32			0	34674	0	0	0	22761	21360	146979	26854	996121	40895	108378	0	0	8137	704615	0	0
2024-06-02 23:35:32			0	34691	0	0	0	22761	21370	147111	27291	996076	40917	108378	0	0	8138	703785	0	0
2024-06-02 23:36:32			0	34676	0	0	0	22761	21350	147131	27416	996104	40905	108378	0	0	8137	704561	0	0
2024-06-02 23:37:32			0	34682	0	0	0	22758	21360	147043	27339	996068	40895	108377	0	0	8138	704243	0	0
2024-06-02 23:38:32			0	34683	0	0	0	22758	21360	147019	27296	996041	40895	108377	0	0	8138	704196	0	0
2024-06-02 23:39:32			0	34689	0	0	0	22761	21360	146947	26996	996112	40905	108378	0	0	8138	703917	0	0
2024-06-02 23:40:32			0	34693	0	0	0	22755	21360	147015	27038	996166	40905	108376	0	0	8138	703731	0	0
2024-06-02 23:41:32			0	34696	0	0	0	22766	21360	147023	27059	996148	40906	108380	0	0	8138	703591	0	0
2024-06-02 23:42:32			0	34674	0	0	0	22761	21360	147027	27301	996059	40916	108378	0	0	8137	704615	0	0
2024-06-02 23:43:32			0	34660	0	0	0	22761	21350	147095	27048	996051	40905	108378	0	0	8137	705307	0	0
2024-06-02 23:44:32			0	34672	0	0	0	22755	21360	147143	27223	996201	40906	108376	0	0	8137	704708	0	0
2024-06-02 23:45:32			0	34646	0	0	0	22753	21350	147167	27289	996104	40894	108375	0	0	8136	705960	0	0
2024-06-02 23:46:32			0	34649	0	0	0	22750	21360	147223	27137	996112	40905	108374	0	0	8136	705780	0	0
2024-06-02 23:47:32			0	34632	0	0	0	22761	21360	147291	26849	996059	40894	108378	0	0	8135	706574	0	0
2024-06-02 23:48:32			0	34616	0	0	0	22755	21360	147307	27046	996086	40905	108376	0	0	8134	707321	0	0
2024-06-02 23:49:32			0	34584	0	0	0	22753	21360	147387	27048	996086	40894	108375	0	0	8132	708817	0	0
2024-06-02 23:50:32			0	34558	0	0	0	22748	21350	147423	27066	996051	40905	108373	0	0	8131	710073	0	0
2024-06-02 23:51:32			0	34553	0	0	0	22748	21350	147487	26897	996096	40905	108373	0	0	8131	710307	0	0
2024-06-02 23:52:32			0	34521	0	0	0	22748	21350	147671	27405	996024	40916	108373	0	0	8129	711808	0	0
2024-06-02 23:53:32			0	34481	0	0	0	22750	21350	147851	26909	996024	40894	108374	0	0	8127	713688	0	0
2024-06-02 23:54:32			0	34480	0	0	0	22748	21340	147839	27208	995954	40893	108373	0	0	8127	713774	0	0
2024-06-02 23:55:32			0	34480	0	0	0	22755	21340	147863	27287	996034	40915	108376	0	0	8127	713774	0	0
2024-06-02 23:56:32			0	34465	0	0	0	22755	21350	147871	27265	996069	40905	108376	0	0	8126	714441	0	0
2024-06-02 23:57:32			0	34450	0	0	0	22750	21350	147987	27176	996077	40916	108374	0	0	8125	715147	0	0
2024-06-02 23:58:32			0	34453	0	0	0	22755	21350	148027	27100	996069	40905	108376	0	0	8125	715006	0	0
2024-06-02 23:59:32			0	34427	0	0	0	22748	21350	148119	26963	996077	40905	108373	0	0	8124	716231	0	0
2024-06-03 00:00:32			0	34433	0	0	0	22750	21340	148155	27255	996061	40904	108374	0	0	8124	715988	0	0
2024-06-03 00:01:32			0	34407	0	0	0	22740	21350	148175	27064	996069	40905	108370	0	0	8123	717175	0	0
2024-06-03 00:02:32			0	34385	0	0	0	22735	21340	148263	27381	996026	40903	108368	0	0	8122	718254	0	0
2024-06-03 00:03:32			0	34369	0	0	0	22732	21340	148359	27223	996061	40882	108367	0	0	8121	719010	0	0
2024-06-03 00:04:32			0	34385	0	0	0	22735	21340	148363	27052	995999	40892	108368	0	0	8122	718254	0	0
2024-06-03 00:05:32			0	34354	0	0	0	22722	21330	148375	27163	995991	40881	108363	0	0	8120	719760	0	0
2024-06-03 00:06:32			0	34357	0	0	0	22722	21330	148475	27180	995937	40892	108363	0	0	8120	719618	0	0
2024-06-03 00:07:32			0	34339	0	0	0	22724	21330	148402	26981	995982	40902	108364	0	0	8119	720471	0	0
2024-06-03 00:08:32			0	34319	0	0	0	22727	21330	148506	27093	995982	40902	108365	0	0	8118	721419	0	0
2024-06-03 00:09:32			0	34306	0	0	0	22729	21330	148630	26844	995982	40914	108366	0	0	8117	722036	0	0
2024-06-03 00:10:32			0	34325	0	0	0	22732	21330	148602	27185	995991	40903	108367	0	0	8118	721134	0	0
2024-06-03 00:11:32			0	34301	0	0	0	22737	21330	148662	27100	996017	40892	108369	0	0	8117	722273	0	0
2024-06-03 00:12:32			0	34309	0	0	0	22745	21330	148598	26970	995955	40891	108372	0	0	8117	721893	0	0
2024-06-03 00:13:32			0	34309	0	0	0	22742	21330	148682	27334	995991	40892	108371	0	0	8117	721893	0	0
2024-06-03 00:14:32			0	34317	0	0	0	22740	21340	148706	27261	995999	40892	108370	0	0	8118	721473	0	0
2024-06-03 00:15:32			0	34317	0	0	0	22737	21320	148666	27183	995991	40879	108369	0	0	8118	721554	0	0
2024-06-03 00:16:32			0	34329	0	0	0	22727	21320	148674	27031	995947	40902	108365	0	0	8118	720985	0	0
2024-06-03 00:17:32			0	34340	0	0	0	22722	21330	148638	27166	995911	40892	108363	0	0	8119	720423	0	0
2024-06-03 00:18:32			0	34328	0	0	0	22742	21340	148554	27315	995972	40925	108371	0	0	8118	720952	0	0
2024-06-03 00:19:32			0	34336	0	0	0	22740	21330	148514	27244	996035	40891	108370	0	0	8119	720613	0	0
2024-06-03 00:20:32			0	34358	0	0	0	22737	21330	148451	27237	996035	40891	108369	0	0	8120	719571	0	0
2024-06-03 00:21:32			0	34370	0	0	0	22737	21330	148383	27502	995982	40891	108369	0	0	8121	719003	0	0
2024-06-03 00:22:32			0	34361	0	0	0	22732	21330	148327	27289	995964	40915	108367	0	0	8120	719429	0	0
2024-06-03 00:23:32			0	34395	0	0	0	22732	21320	148251	27121	995973	40891	108367	0	0	8122	717861	0	0
2024-06-03 00:24:32			0	34420	0	0	0	22732	21320	148075	26993	995920	40891	108367	0	0	8123	716681	0	0
2024-06-03 00:25:32			0	34460	0	0	0	22727	21320	148007	27410	995894	40902	108365	0	0	8126	714795	0	0
2024-06-03 00:26:32			0	34486	0	0	0	22719	21330	147783	27239	995955	40902	108362	0	0	8127	713532	0	0
2024-06-03 00:27:32			0	34541	0	0	0	22724	21320	147735	27441	995938	40879	108364	0	0	8130	710988	0	0
2024-06-03 00:28:32			0	34573	0	0	0	22735	21320	147523	27422	995947	40902	108368	0	0	8132	709489	0	0
2024-06-03 00:29:32			0	34568	0	0	0	22735	21320	147531	27270	996000	40902	108368	0	0	8132	709723	0	0
2024-06-03 00:30:32			0	34585	0	0	0	22729	21320	147423	27202	995947	40914	108366	0	0	8133	708927	0	0
2024-06-03 00:31:32			0	34603	0	0	0	22732	21320	147419	27241	995947	40902	108367	0	0	8134	708085	0	0
2024-06-03 00:32:32			0	34620	0	0	0	22729	21320	147351	26920	995947	40902	108366	0	0	8135	707291	0	0
2024-06-03 00:33:32			0	34629	0	0	0	22724	21330	147339	27325	995937	40881	108364	0	0	8135	706831	0	0
2024-06-03 00:34:32			0	34612	0	0	0	22727	21320	147315	27364	995965	40890	108365	0	0	8134	707665	0	0
2024-06-03 00:35:32			0	34630	0	0	0	22722	21320	147267	27232	995894	40902	108363	0	0	8135	706824	0	0
2024-06-03 00:36:32			0	34627	0	0	0	22735	21320	147347	27644	995973	40902	108368	0	0	8135	706964	0	0
2024-06-03 00:37:32			0	34637	0	0	0	22732	21320	147347	26864	995965	40902	108367	0	0	8136	706497	0	0
2024-06-03 00:38:32			0	34608	0	0	0	22727	21320	147219	27076	995965	40902	108365	0	0	8134	707852	0	0
2024-06-03 00:39:32			0	34620	0	0	0	22742	21320	147383	26986	995965	40890	108371	0	0	8134	707291	0	0
2024-06-03 00:40:32			0	34612	0	0	0	22740	21320	147331	27140	995991	40913	108370	0	0	8134	707665	0	0
2024-06-03 00:41:32			0	34629	0	0	0	22722	21320	147371	26731	996000	40891	108363	0	0	8135	706870	0	0
2024-06-03 00:42:32			0	34607	0	0	0	22719	21320	147411	27055	995938	40913	108362	0	0	8134	707898	0	0
2024-06-03 00:43:32			0	34617	0	0	0	22719	21320	147367	26866	995973	40902	108362	0	0	8135	707431	0	0
2024-06-03 00:44:32			0	34622	0	0	0	22706	21310	147347	27189	995903	40901	108357	0	0	8135	707237	0	0
2024-06-03 00:45:32			0	34608	0	0	0	22701	21310	147359	27237	995842	40912	108355	0	0	8134	707891	0	0
2024-06-03 00:46:32			0	34618	0	0	0	22698	21320	147395	27241	995947	40891	108354	0	0	8135	707384	0	0
2024-06-03 00:47:32			0	34637	0	0	0	22696	21300	147263	27050	995860	40901	108353	0	0	8136	706576	0	0
2024-06-03 00:48:32			0	34650	0	0	0	22690	21300	147203	27308	995851	40889	108351	0	0	8137	705969	0	0
2024-06-03 00:49:32			0	34632	0	0	0	22685	21300	147139	27433	995905	40900	108349	0	0	8136	706809	0	0
2024-06-03 00:50:32			0	34634	0	0	0	22685	21300	147167	27206	995798	40900	108349	0	0	8136	706716	0	0
2024-06-03 00:51:32			0	34659	0	0	0	22685	21300	147207	26981	995798	40889	108349	0	0	8138	705549	0	0
2024-06-03 00:52:32			0	34638	0	0	0	22685	21300	147215	27381	995825	40900	108349	0	0	8136	706529	0	0
2024-06-03 00:53:32			0	34654	0	0	0	22677	21290	147131	27067	995843	40888	108346	0	0	8137	705822	0	0
2024-06-03 00:54:32			0	34679	0	0	0	22683	21290	147035	27294	995781	40899	108348	0	0	8139	704656	0	0
2024-06-03 00:55:32			0	34712	0	0	0	22698	21300	146927	27119	995825	40900	108354	0	0	8140	703081	0	0
2024-06-03 00:56:32			0	34737	0	0	0	22703	21290	146779	27301	995790	40888	108356	0	0	8141	701959	0	0
2024-06-03 00:57:32			0	34768	0	0	0	22714	21290	146611	27253	995781	40899	108360	0	0	8143	700520	0	0
2024-06-03 00:58:32			0	34847	0	0	0	22696	21300	146407	27222	995878	40889	108353	0	0	8148	696825	0	0
2024-06-03 00:59:32			0	34874	0	0	0	22701	21300	146291	27256	995878	40889	108355	0	0	8149	695579	0	0
2024-06-03 01:00:32			0	34925	0	0	0	22698	21290	146147	27199	995816	40899	108354	0	0	8152	693268	0	0
2024-06-03 01:01:32			0	34896	0	0	0	22703	21290	146079	27027	995834	40899	108356	0	0	8150	694604	0	0
2024-06-03 01:02:32			0	34927	0	0	0	22703	21290	146059	27466	995888	40888	108356	0	0	8152	693177	0	0
2024-06-03 01:03:32			0	34924	0	0	0	22693	21300	146103	27289	995825	40889	108352	0	0	8152	693276	0	0
2024-06-03 01:04:32			0	34895	0	0	0	22701	21300	146039	27175	995931	40889	108355	0	0	8150	694611	0	0
2024-06-03 01:05:32			0	34909	0	0	0	22696	21290	146239	27505	995790	40910	108353	0	0	8151	694005	0	0
2024-06-03 01:06:32			0	34884	0	0	0	22714	21290	146271	27322	995834	40888	108360	0	0	8149	695157	0	0
2024-06-03 01:07:32			0	34883	0	0	0	22711	21290	146307	27154	995870	40899	108359	0	0	8149	695203	0	0
2024-06-03 01:08:32			0	34879	0	0	0	22716	21290	146371	27352	995896	40888	108361	0	0	8149	695387	0	0
2024-06-03 01:09:32			0	34876	0	0	0	22714	21290	146339	26882	995923	40920	108360	0	0	8149	695526	0	0
2024-06-03 01:10:32			0	34863	0	0	0	22719	21290	146419	27284	995923	40899	108362	0	0	8148	696125	0	0
2024-06-03 01:11:32			0	34848	0	0	0	22719	21300	146479	27301	995913	40901	108362	0	0	8147	696779	0	0
2024-06-03 01:12:32			0	34857	0	0	0	22719	21300	146463	27331	995878	40911	108362	0	0	8148	696364	0	0
2024-06-03 01:13:32			0	34832	0	0	0	22727	21300	146499	27211	995913	40889	108365	0	0	8146	697518	0	0
2024-06-03 01:14:32			0	34824	0	0	0	22724	21300	146499	27232	995878	40911	108364	0	0	8146	697888	0	0
2024-06-03 01:15:32			0	34820	0	0	0	22735	21310	146571	27492	995948	40901	108368	0	0	8146	698034	0	0
2024-06-03 01:16:32			0	34815	0	0	0	22740	21310	146595	27095	995930	40901	108370	0	0	8145	698266	0	0
2024-06-03 01:17:32			0	34820	0	0	0	22740	21310	146535	27396	995948	40889	108370	0	0	8146	698034	0	0
2024-06-03 01:18:32			0	34811	0	0	0	22750	21310	146511	27140	995956	40912	108374	0	0	8145	698451	0	0
2024-06-03 01:19:32			0	34832	0	0	0	22742	21310	146515	27274	996001	40912	108371	0	0	8146	697480	0	0
2024-06-03 01:20:32			0	34829	0	0	0	22748	21320	146527	27168	995973	40902	108373	0	0	8146	697580	0	0
2024-06-03 01:21:32			0	34846	0	0	0	22740	21320	146539	27142	996045	40902	108370	0	0	8147	696794	0	0
2024-06-03 01:22:32			0	34851	0	0	0	22732	21320	146471	26996	996018	40890	108367	0	0	8147	696563	0	0
2024-06-03 01:23:32			0	34867	0	0	0	22745	21320	146359	27473	996026	40914	108372	0	0	8148	695825	0	0
2024-06-03 01:24:32			0	34884	0	0	0	22758	21320	146459	27119	995991	40890	108377	0	0	8149	695041	0	0
2024-06-03 01:25:32			0	34871	0	0	0	22745	21320	146355	27033	996000	40914	108372	0	0	8148	695640	0	0
2024-06-03 01:26:32			0	34887	0	0	0	22742	21320	146355	26963	995973	40902	108371	0	0	8149	694903	0	0
2024-06-03 01:27:32			0	34876	0	0	0	22745	21340	146283	27241	996079	40903	108372	0	0	8149	695333	0	0
2024-06-03 01:28:32			0	34906	0	0	0	22745	21320	146327	26987	996026	40891	108372	0	0	8150	694027	0	0
2024-06-03 01:29:32			0	34913	0	0	0	22740	21320	146343	27265	996053	40902	108370	0	0	8151	693705	0	0
2024-06-03 01:30:32			0	34939	0	0	0	22735	21330	146175	27327	996017	40892	108368	0	0	8152	692471	0	0
2024-06-03 01:31:32			0	34937	0	0	0	22732	21330	146063	27552	996035	40902	108367	0	0	8152	692563	0	0
2024-06-03 01:32:32			0	34970	0	0	0	22737	21330	145991	27157	995991	40903	108369	0	0	8154	691047	0	0
2024-06-03 01:33:32			0	34993	0	0	0	22745	21330	145975	27336	996062	40891	108372	0	0	8155	689992	0	0
2024-06-03 01:34:32			0	35001	0	0	0	22724	21320	145927	27315	995947	40891	108364	0	0	8156	689664	0	0
2024-06-03 01:35:32			0	35026	0	0	0	22711	21320	145719	27107	995973	40902	108359	0	0	8157	688519	0	0
2024-06-03 01:36:32			0	35047	0	0	0	22693	21320	145671	27246	995965	40890	108352	0	0	8159	687558	0	0
2024-06-03 01:37:32			0	35084	0	0	0	22685	21320	145579	27319	995912	40890	108349	0	0	8161	685868	0	0
2024-06-03 01:38:32			0	35099	0	0	0	22701	21310	145539	27268	995903	40889	108355	0	0	8162	685222	0	0
2024-06-03 01:39:32			0	35114	0	0	0	22693	21310	145420	27050	995842	40901	108352	0	0	8163	684538	0	0
2024-06-03 01:40:32			0	35131	0	0	0	22693	21300	145244	27296	995860	40889	108352	0	0	8163	683801	0	0
2024-06-03 01:41:32			0	35144	0	0	0	22688	21310	145248	27287	995895	40889	108350	0	0	8164	683172	0	0
2024-06-03 01:42:32			0	35156	0	0	0	22683	21300	145152	27388	995833	40889	108348	0	0	8165	682664	0	0
2024-06-03 01:43:32			0	35171	0	0	0	22683	21300	145220	27218	995860	40889	108348	0	0	8166	681982	0	0
2024-06-03 01:44:32			0	35169	0	0	0	22685	21300	145196	27322	995825	40900	108349	0	0	8166	682073	0	0
2024-06-03 01:45:32			0	35172	0	0	0	22662	21290	145092	27317	995790	40899	108340	0	0	8166	681974	0	0
2024-06-03 01:46:32			0	35173	0	0	0	22672	21290	145080	27265	995755	40899	108344	0	0	8166	681929	0	0
2024-06-03 01:47:32			0	35147	0	0	0	22690	21280	145144	27199	995826	40910	108351	0	0	8164	683149	0	0
2024-06-03 01:48:32			0	35125	0	0	0	22693	21280	145312	27050	995826	40899	108352	0	0	8163	684151	0	0
2024-06-03 01:49:32			0	35109	0	0	0	22703	21280	145416	27003	995799	40899	108356	0	0	8162	684880	0	0
2024-06-03 01:50:32			0	35080	0	0	0	22706	21290	145595	27189	995834	40910	108357	0	0	8160	686165	0	0
2024-06-03 01:51:32			0	35046	0	0	0	22703	21290	145567	27249	995888	40888	108356	0	0	8159	687718	0	0
2024-06-03 01:52:32			0	35033	0	0	0	22709	21290	145715	27225	995843	40899	108358	0	0	8158	688313	0	0
2024-06-03 01:53:32			0	35035	0	0	0	22711	21290	145835	27092	995870	40899	108359	0	0	8158	688221	0	0
2024-06-03 01:54:32			0	34989	0	0	0	22706	21290	145907	27199	995896	40899	108357	0	0	8155	690329	0	0
2024-06-03 01:55:32			0	34978	0	0	0	22709	21280	145879	27450	995853	40899	108358	0	0	8155	690872	0	0
2024-06-03 01:56:32			0	34960	0	0	0	22693	21290	145979	27085	995870	40899	108352	0	0	8154	691660	0	0
2024-06-03 01:57:32			0	34957	0	0	0	22690	21290	146167	27286	995888	40899	108351	0	0	8154	691797	0	0
2024-06-03 01:58:32			0	34958	0	0	0	22703	21290	146095	27222	995843	40899	108356	0	0	8154	691751	0	0
2024-06-03 01:59:32			0	34954	0	0	0	22690	21290	145955	27164	995861	40888	108351	0	0	8154	691935	0	0
2024-06-03 02:00:32			0	34986	0	0	0	22690	21290	146043	26996	995861	40899	108351	0	0	8155	690466	0	0
2024-06-03 02:01:32			0	34973	0	0	0	22701	21290	145935	27519	995888	40910	108355	0	0	8155	691063	0	0
2024-06-03 02:02:32			0	34975	0	0	0	22703	21290	145863	27253	995781	40899	108356	0	0	8155	690971	0	0
2024-06-03 02:03:32			0	34998	0	0	0	22706	21280	145931	27098	995799	40899	108357	0	0	8156	689954	0	0
2024-06-03 02:04:32			0	34988	0	0	0	22716	21280	145867	27289	995906	40899	108361	0	0	8155	690413	0	0
2024-06-03 02:05:32			0	35001	0	0	0	22722	21280	145867	27124	995879	40899	108363	0	0	8156	689817	0	0
2024-06-03 02:06:32			0	35007	0	0	0	22716	21290	145831	27142	995834	40888	108361	0	0	8156	689503	0	0
2024-06-03 02:07:32			0	35000	0	0	0	22722	21300	145767	27241	995931	40900	108363	0	0	8156	689786	0	0
2024-06-03 02:08:32			0	35006	0	0	0	22729	21290	145831	27315	995896	40910	108366	0	0	8156	689549	0	0
2024-06-03 02:09:32			0	35024	0	0	0	22732	21290	145819	27100	995923	40910	108367	0	0	8157	688725	0	0
2024-06-03 02:10:32			0	35026	0	0	0	22737	21300	145743	27272	995993	40901	108369	0	0	8157	688595	0	0
2024-06-03 02:11:32			0	35031	0	0	0	22729	21300	145611	27275	996019	40901	108366	0	0	8157	688366	0	0
2024-06-03 02:12:32			0	35048	0	0	0	22732	21310	145511	27119	995956	40912	108367	0	0	8158	687550	0	0
2024-06-03 02:13:32			0	35070	0	0	0	22737	21300	145543	26994	995940	40901	108369	0	0	8159	686583	0	0
2024-06-03 02:14:32			0	35087	0	0	0	22737	21310	145411	27353	995975	40901	108369	0	0	8160	685769	0	0
2024-06-03 02:15:32			0	35131	0	0	0	22748	21310	145356	27036	995983	40889	108373	0	0	8163	683763	0	0
2024-06-03 02:16:32			0	35154	0	0	0	22748	21310	145176	27327	996001	40922	108373	0	0	8164	682717	0	0
2024-06-03 02:17:32			0	35176	0	0	0	22748	21320	145136	26991	996018	40902	108373	0	0	8165	681679	0	0
2024-06-03 02:18:32			0	35187	0	0	0	22745	21320	144956	26823	996080	40902	108372	0	0	8166	681179	0	0
2024-06-03 02:19:32			0	35239	0	0	0	22745	21320	144896	26875	996018	40913	108372	0	0	8169	678821	0	0
2024-06-03 02:20:32			0	35238	0	0	0	22740	21310	144736	27187	996001	40912	108370	0	0	8168	678904	0	0
2024-06-03 02:21:32			0	35279	0	0	0	22742	21320	144704	27114	995973	40891	108371	0	0	8171	677012	0	0
2024-06-03 02:22:32			0	35275	0	0	0	22745	21320	144716	27204	996018	40890	108372	0	0	8170	677192	0	0
2024-06-03 02:23:32			0	35289	0	0	0	22748	21330	144664	27176	996035	40914	108373	0	0	8171	676522	0	0
2024-06-03 02:24:32			0	35304	0	0	0	22761	21320	144592	27180	996053	40924	108378	0	0	8172	675882	0	0
2024-06-03 02:25:32			0	35310	0	0	0	22740	21330	144536	27072	996062	40914	108370	0	0	8173	675574	0	0
2024-06-03 02:26:32			0	35312	0	0	0	22742	21320	144608	27045	996026	40914	108371	0	0	8173	675521	0	0
2024-06-03 02:27:32			0	35329	0	0	0	22753	21320	144472	27201	996000	40902	108375	0	0	8173	674754	0	0
2024-06-03 02:28:32			0	35336	0	0	0	22750	21330	144508	26958	996070	40903	108374	0	0	8174	674401	0	0
2024-06-03 02:29:32			0	35325	0	0	0	22737	21320	144532	26786	996018	40902	108369	0	0	8173	674935	0	0
2024-06-03 02:30:32			0	35326	0	0	0	22732	21320	144488	27104	996053	40902	108367	0	0	8173	674890	0	0
2024-06-03 02:31:32			0	35324	0	0	0	22732	21320	144460	27024	996018	40902	108367	0	0	8173	674980	0	0
2024-06-03 02:32:32			0	35318	0	0	0	22742	21320	144416	26941	996080	40902	108371	0	0	8173	675250	0	0
2024-06-03 02:33:32			0	35333	0	0	0	22748	21320	144412	27019	996080	40914	108373	0	0	8174	674574	0	0
2024-06-03 02:34:32			0	35332	0	0	0	22755	21330	144416	27199	996008	40914	108376	0	0	8173	674582	0	0
2024-06-03 02:35:32			0	35320	0	0	0	22755	21330	144508	26759	996062	40902	108376	0	0	8173	675123	0	0
2024-06-03 02:36:32			0	35302	0	0	0	22761	21330	144524	26984	996070	40915	108378	0	0	8172	675935	0	0
2024-06-03 02:37:32			0	35297	0	0	0	22755	21340	144480	27208	996105	40915	108376	0	0	8172	676123	0	0
2024-06-03 02:38:32			0	35278	0	0	0	22753	21330	144548	27007	996044	40915	108375	0	0	8171	677019	0	0
2024-06-03 02:39:32			0	35275	0	0	0	22753	21350	144592	27015	996149	40905	108375	0	0	8170	677079	0	0
2024-06-03 02:40:32			0	35248	0	0	0	22753	21340	144728	26821	996079	40915	108375	0	0	8169	678338	0	0
2024-06-03 02:41:32			0	35217	0	0	0	22750	21320	144788	27279	996106	40891	108374	0	0	8167	679818	0	0
2024-06-03 02:42:32			0	35219	0	0	0	22763	21340	144820	27090	996079	40892	108379	0	0	8167	679652	0	0
2024-06-03 02:43:32			0	35184	0	0	0	22761	21340	144944	26904	996140	40915	108378	0	0	8165	681240	0	0
2024-06-03 02:44:32			0	35171	0	0	0	22758	21330	145092	26887	996150	40915	108377	0	0	8165	681868	0	0
2024-06-03 02:45:32			0	35152	0	0	0	22748	21340	145136	26982	996132	40915	108373	0	0	8164	682694	0	0
2024-06-03 02:46:32			0	35126	0	0	0	22748	21340	145164	26840	996052	40915	108373	0	0	8162	683877	0	0
2024-06-03 02:47:32			0	35096	0	0	0	22748	21340	145227	27090	996105	40903	108373	0	0	8161	685244	0	0
2024-06-03 02:48:32			0	35069	0	0	0	22745	21340	145347	27211	996079	40892	108372	0	0	8159	686476	0	0
2024-06-03 02:49:32			0	35061	0	0	0	22750	21330	145371	26733	996097	40903	108374	0	0	8159	686880	0	0
2024-06-03 02:50:32			0	35060	0	0	0	22740	21340	145503	27261	996079	40915	108370	0	0	8159	686887	0	0
2024-06-03 02:51:32			0	35037	0	0	0	22742	21330	145623	27130	996044	40915	108371	0	0	8158	687977	0	0
2024-06-03 02:52:32			0	35025	0	0	0	22729	21340	145635	27225	996026	40881	108366	0	0	8157	688488	0	0
2024-06-03 02:53:32			0	34990	0	0	0	22722	21330	145635	27564	996008	40891	108363	0	0	8155	690129	0	0
2024-06-03 02:54:32			0	34991	0	0	0	22716	21330	145807	27421	996017	40903	108361	0	0	8155	690084	0	0
2024-06-03 02:55:32			0	34963	0	0	0	22716	21330	145839	27500	996062	40914	108361	0	0	8154	691368	0	0
2024-06-03 02:56:32			0	34980	0	0	0	22719	21320	145839	27225	995973	40902	108362	0	0	8155	690626	0	0
2024-06-03 02:57:32			0	34959	0	0	0	22716	21330	145879	26991	996062	40902	108361	0	0	8154	691552	0	0
2024-06-03 02:58:32			0	34954	0	0	0	22727	21330	145927	27206	995982	40891	108365	0	0	8153	691782	0	0
2024-06-03 02:59:32			0	34936	0	0	0	22727	21320	145899	27216	996026	40902	108365	0	0	8152	692647	0	0
2024-06-03 03:00:32			0	34925	0	0	0	22724	21330	145923	27265	996035	40891	108364	0	0	8152	693114	0	0
2024-06-03 03:01:32			0	34908	0	0	0	22722	21330	146107	27469	996008	40914	108363	0	0	8151	693897	0	0
2024-06-03 03:02:32			0	34907	0	0	0	22722	21320	146115	27027	996026	40914	108363	0	0	8151	693981	0	0
2024-06-03 03:03:32			0	34874	0	0	0	22724	21320	146083	27220	996000	40914	108364	0	0	8149	695502	0	0
2024-06-03 03:04:32			0	34883	0	0	0	22716	21340	146107	27393	995999	40903	108361	0	0	8150	695010	0	0
2024-06-03 03:05:32			0	34875	0	0	0	22719	21320	146187	27412	996018	40913	108362	0	0	8149	695456	0	0
2024-06-03 03:06:32			0	34845	0	0	0	22716	21330	146295	27417	996062	40891	108361	0	0	8147	696802	0	0
2024-06-03 03:07:32			0	34843	0	0	0	22727	21320	146315	27358	996045	40913	108365	0	0	8147	696933	0	0
2024-06-03 03:08:32			0	34833	0	0	0	22722	21320	146391	27175	996026	40891	108363	0	0	8147	697395	0	0
2024-06-03 03:09:32			0	34822	0	0	0	22724	21320	146415	27261	996018	40913	108364	0	0	8146	697903	0	0
2024-06-03 03:10:32			0	34821	0	0	0	22719	21310	146403	27339	995983	40901	108362	0	0	8146	697988	0	0
2024-06-03 03:11:32			0	34807	0	0	0	22729	21320	146467	27327	996000	40902	108366	0	0	8145	698597	0	0
2024-06-03 03:12:32			0	34801	0	0	0	22729	21320	146499	27208	996000	40902	108366	0	0	8145	698875	0	0
2024-06-03 03:13:32			0	34801	0	0	0	22711	21320	146483	26894	995991	40902	108359	0	0	8145	698875	0	0
2024-06-03 03:14:32			0	34780	0	0	0	22698	21310	146471	27352	995877	40901	108354	0	0	8144	699886	0	0
2024-06-03 03:15:32			0	34798	0	0	0	22716	21310	146571	27376	995930	40912	108361	0	0	8145	699052	0	0
2024-06-03 03:16:32			0	34788	0	0	0	22703	21310	146639	27438	995903	40901	108356	0	0	8144	699515	0	0
2024-06-03 03:17:32			0	34789	0	0	0	22709	21310	146663	27305	995956	40901	108358	0	0	8144	699469	0	0
2024-06-03 03:18:32			0	34824	0	0	0	22716	21310	146555	27144	995956	40901	108361	0	0	8146	697849	0	0
2024-06-03 03:19:32			0	34868	0	0	0	22719	21310	146239	27190	995975	40901	108362	0	0	8149	695817	0	0
2024-06-03 03:20:32			0	35002	0	0	0	22732	21310	145711	26864	995983	40912	108367	0	0	8156	689656	0	0
2024-06-03 03:21:32			0	35139	0	0	0	22722	21320	145140	27022	995991	40902	108363	0	0	8163	683361	0	0
2024-06-03 03:22:32			0	35308	0	0	0	22719	21320	144600	27064	995991	40913	108362	0	0	8173	675702	0	0
2024-06-03 03:23:32			0	35394	0	0	0	22719	21310	144120	27313	996001	40922	108362	0	0	8177	671866	0	0
2024-06-03 03:24:32			0	35485	0	0	0	22719	21310	143856	27466	995983	40901	108362	0	0	8182	667785	0	0
2024-06-03 03:25:32			0	35560	0	0	0	22719	21310	143596	27326	995975	40912	108362	0	0	8186	664435	0	0
2024-06-03 03:26:32			0	35583	0	0	0	22716	21310	143376	27104	995921	40901	108361	0	0	8188	663410	0	0
2024-06-03 03:27:32			0	35603	0	0	0	22719	21310	143256	27260	995903	40901	108362	0	0	8189	662520	0	0
2024-06-03 03:28:32			0	35610	0	0	0	22698	21310	143284	27128	995948	40901	108354	0	0	8189	662209	0	0
2024-06-03 03:29:32			0	35613	0	0	0	22690	21300	143264	27130	995886	40912	108351	0	0	8190	662112	0	0
2024-06-03 03:30:32			0	35638	0	0	0	22672	21290	143176	27190	995896	40899	108344	0	0	8191	661038	0	0
2024-06-03 03:31:32			0	35656	0	0	0	22651	21290	143188	27305	995816	40888	108336	0	0	8193	660239	0	0
2024-06-03 03:32:32			0	35679	0	0	0	22641	21290	143036	27471	995816	40888	108332	0	0	8194	659218	0	0
2024-06-03 03:33:32			0	35694	0	0	0	22633	21270	142992	27149	995694	40897	108329	0	0	8195	658627	0	0
2024-06-03 03:34:32			0	35676	0	0	0	22636	21270	142964	27448	995756	40897	108330	0	0	8194	659425	0	0
2024-06-03 03:35:32			0	35731	0	0	0	22623	21270	142832	26795	995668	40886	108325	0	0	8197	656989	0	0
2024-06-03 03:36:32			0	35760	0	0	0	22623	21260	142788	27029	995686	40885	108325	0	0	8199	655744	0	0
2024-06-03 03:37:32			0	35777	0	0	0	22641	21260	142724	27393	995704	40896	108332	0	0	8199	654993	0	0
2024-06-03 03:38:32			0	35789	0	0	0	22641	21260	142592	27374	995704	40896	108332	0	0	8200	654464	0	0
2024-06-03 03:39:32			0	35810	0	0	0	22664	21250	142576	27422	995687	40895	108341	0	0	8200	653575	0	0
2024-06-03 03:40:32			0	35823	0	0	0	22657	21250	142516	27157	995687	40906	108338	0	0	8201	653002	0	0
2024-06-03 03:41:32			0	35864	0	0	0	22670	21260	142369	27293	995739	40896	108343	0	0	8203	651163	0	0
2024-06-03 03:42:32			0	35905	0	0	0	22667	21260	142101	27182	995766	40885	108342	0	0	8206	649363	0	0
2024-06-03 03:43:32			0	35970	0	0	0	22659	21250	141897	27409	995669	40906	108339	0	0	8209	646553	0	0
2024-06-03 03:44:32			0	36025	0	0	0	22654	21260	141693	27434	995651	40885	108337	0	0	8212	644115	0	0
2024-06-03 03:45:32			0	36090	0	0	0	22675	21250	141417	27312	995696	40906	108345	0	0	8215	641321	0	0
2024-06-03 03:46:32			0	36139	0	0	0	22683	21260	141405	27457	995757	40896	108348	0	0	8218	639159	0	0
2024-06-03 03:47:32			0	36127	0	0	0	22688	21260	141297	27235	995784	40907	108350	0	0	8217	639679	0	0
2024-06-03 03:48:32			0	36151	0	0	0	22693	21260	141261	27161	995872	40918	108352	0	0	8218	638638	0	0
2024-06-03 03:49:32			0	36153	0	0	0	22696	21270	141237	27573	995836	40908	108353	0	0	8218	638516	0	0
2024-06-03 03:50:32			0	36165	0	0	0	22685	21270	141049	27176	995854	40886	108349	0	0	8219	637996	0	0
2024-06-03 03:51:32			0	36158	0	0	0	22683	21270	141125	27504	995827	40919	108348	0	0	8219	638300	0	0
2024-06-03 03:52:32			0	36153	0	0	0	22680	21270	141197	27652	995809	40908	108347	0	0	8219	638516	0	0
2024-06-03 03:53:32			0	36158	0	0	0	22683	21270	141229	27069	995756	40908	108348	0	0	8219	638300	0	0
2024-06-03 03:54:32			0	36142	0	0	0	22667	21270	141137	27313	995774	40897	108342	0	0	8218	638993	0	0
2024-06-03 03:55:32			0	36150	0	0	0	22675	21280	141249	27246	995879	40910	108345	0	0	8219	638611	0	0
2024-06-03 03:56:32			0	36145	0	0	0	22672	21270	141101	27199	995827	40897	108344	0	0	8218	638863	0	0
2024-06-03 03:57:32			0	36174	0	0	0	22670	21270	141165	27098	995836	40897	108343	0	0	8220	637607	0	0
2024-06-03 03:58:32			0	36160	0	0	0	22664	21260	141229	27485	995819	40907	108341	0	0	8219	638248	0	0
2024-06-03 03:59:32			0	36128	0	0	0	22675	21260	141157	27258	995792	40896	108345	0	0	8217	639636	0	0
2024-06-03 04:00:32			0	36165	0	0	0	22683	21270	141149	26972	995827	40908	108348	0	0	8219	637996	0	0
2024-06-03 04:01:32			0	36164	0	0	0	22688	21270	141149	27301	995854	40897	108350	0	0	8219	638040	0	0
2024-06-03 04:02:32			0	36165	0	0	0	22685	21280	141133	27379	995818	40898	108349	0	0	8219	637961	0	0
2024-06-03 04:03:32			0	36164	0	0	0	22690	21280	141065	27064	995764	40898	108351	0	0	8219	638004	0	0
2024-06-03 04:04:32			0	36172	0	0	0	22696	21280	141033	27324	995853	40899	108353	0	0	8219	637658	0	0
2024-06-03 04:05:32			0	36178	0	0	0	22701	21270	141017	27039	995809	40897	108355	0	0	8220	637433	0	0
2024-06-03 04:06:32			0	36196	0	0	0	22693	21280	141001	27213	995897	40898	108352	0	0	8221	636619	0	0
2024-06-03 04:07:32			0	36187	0	0	0	22701	21270	141065	27154	995836	40919	108355	0	0	8220	637044	0	0
2024-06-03 04:08:32			0	36201	0	0	0	22693	21280	140945	27137	995818	40909	108352	0	0	8221	636403	0	0
2024-06-03 04:09:32			0	36195	0	0	0	22696	21280	140989	27118	995853	40899	108353	0	0	8221	636663	0	0
2024-06-03 04:10:32			0	36217	0	0	0	22696	21280	140941	27097	995853	40899	108353	0	0	8222	635712	0	0
2024-06-03 04:11:32			0	36230	0	0	0	22703	21290	140877	27178	995870	40899	108356	0	0	8223	635115	0	0
2024-06-03 04:12:32			0	36225	0	0	0	22703	21280	140749	27209	995906	40899	108356	0	0	8222	635366	0	0
2024-06-03 04:13:32			0	36233	0	0	0	22706	21270	140853	27196	995862	40897	108357	0	0	8223	635056	0	0
2024-06-03 04:14:32			0	36235	0	0	0	22701	21290	140933	27078	995861	40910	108355	0	0	8223	634899	0	0
2024-06-03 04:15:32			0	36242	0	0	0	22716	21300	140833	27147	995931	40900	108361	0	0	8223	634562	0	0
2024-06-03 04:16:32			0	36250	0	0	0	22714	21290	140789	27111	995949	40899	108360	0	0	8223	634252	0	0
2024-06-03 04:17:32			0	36254	0	0	0	22719	21290	140801	27001	995923	40899	108362	0	0	8224	634080	0	0
2024-06-03 04:18:32			0	36254	0	0	0	22724	21290	140745	26960	995949	40920	108364	0	0	8223	634080	0	0
2024-06-03 04:19:32			0	36273	0	0	0	22719	21300	140725	27138	995931	40911	108362	0	0	8225	633226	0	0
2024-06-03 04:20:32			0	36277	0	0	0	22719	21300	140829	27284	995966	40912	108362	0	0	8225	633053	0	0
2024-06-03 04:21:32			0	36272	0	0	0	22714	21310	140629	27409	995948	40889	108360	0	0	8225	633234	0	0
2024-06-03 04:22:32			0	36266	0	0	0	22729	21300	140701	27282	995958	40911	108366	0	0	8224	633527	0	0
2024-06-03 04:23:32			0	36259	0	0	0	22719	21300	140681	27123	995966	40912	108362	0	0	8224	633829	0	0
2024-06-03 04:24:32			0	36274	0	0	0	22716	21300	140705	27189	996011	40911	108361	0	0	8225	633183	0	0
2024-06-03 04:25:32			0	36276	0	0	0	22719	21300	140669	27138	995966	40912	108362	0	0	8225	633096	0	0
2024-06-03 04:26:32			0	36270	0	0	0	22722	21300	140649	26830	995966	40901	108363	0	0	8224	633355	0	0
2024-06-03 04:27:32			0	36258	0	0	0	22714	21300	140701	27322	995993	40901	108360	0	0	8224	633872	0	0
2024-06-03 04:28:32			0	36266	0	0	0	22722	21300	140641	26824	995958	40911	108363	0	0	8224	633527	0	0
2024-06-03 04:29:32			0	36267	0	0	0	22724	21310	140697	27258	995975	40912	108364	0	0	8224	633449	0	0
2024-06-03 04:30:32			0	36285	0	0	0	22724	21310	140693	26840	996028	40912	108364	0	0	8225	632674	0	0
2024-06-03 04:31:32			0	36260	0	0	0	22714	21300	140589	26932	995966	40901	108360	0	0	8224	633786	0	0
2024-06-03 04:32:32			0	36251	0	0	0	22719	21300	140697	27227	995966	40901	108362	0	0	8223	634174	0	0
2024-06-03 04:33:32			0	36293	0	0	0	22719	21310	140577	26975	995983	40901	108362	0	0	8226	632329	0	0
2024-06-03 04:34:32			0	36275	0	0	0	22716	21310	140657	27376	995983	40912	108361	0	0	8225	633104	0	0
2024-06-03 04:35:32			0	36271	0	0	0	22716	21300	140661	27415	995984	40900	108361	0	0	8225	633312	0	0
2024-06-03 04:36:32			0	36275	0	0	0	22714	21310	140709	27119	995975	40901	108360	0	0	8225	633104	0	0
2024-06-03 04:37:32			0	36268	0	0	0	22714	21310	140725	27008	995983	40912	108360	0	0	8224	633406	0	0
2024-06-03 04:38:32			0	36288	0	0	0	22711	21310	140625	27445	995948	40901	108359	0	0	8226	632545	0	0
2024-06-03 04:39:32			0	36274	0	0	0	22714	21310	140669	27435	995948	40901	108360	0	0	8225	633147	0	0
2024-06-03 04:40:32			0	36291	0	0	0	22722	21310	140517	27079	996001	40922	108363	0	0	8226	632415	0	0
2024-06-03 04:41:32			0	36286	0	0	0	22716	21300	140637	27583	995966	40901	108361	0	0	8225	632666	0	0
2024-06-03 04:42:32			0	36289	0	0	0	22714	21300	140625	27256	995931	40911	108360	0	0	8226	632537	0	0
2024-06-03 04:43:32			0	36272	0	0	0	22719	21300	140517	27493	995993	40901	108362	0	0	8225	633269	0	0
2024-06-03 04:44:32			0	36279	0	0	0	22709	21310	140605	27561	995948	40901	108358	0	0	8225	632932	0	0
2024-06-03 04:45:32			0	36279	0	0	0	22714	21310	140617	27405	996001	40912	108360	0	0	8225	632932	0	0
2024-06-03 04:46:32			0	36256	0	0	0	22706	21310	140633	27300	995956	40922	108357	0	0	8224	633923	0	0
2024-06-03 04:47:32			0	36274	0	0	0	22711	21300	140593	26972	995958	40900	108359	0	0	8225	633183	0	0
2024-06-03 04:48:32			0	36269	0	0	0	22701	21300	140601	27576	995940	40912	108355	0	0	8225	633398	0	0
2024-06-03 04:49:32			0	36254	0	0	0	22709	21300	140769	27499	995984	40921	108358	0	0	8224	634044	0	0
2024-06-03 04:50:32			0	36250	0	0	0	22709	21300	140745	27213	995993	40912	108358	0	0	8224	634217	0	0
2024-06-03 04:51:32			0	36235	0	0	0	22711	21290	140761	27116	995976	40920	108359	0	0	8223	634899	0	0
2024-06-03 04:52:32			0	36238	0	0	0	22711	21310	140753	27027	995930	40889	108359	0	0	8223	634699	0	0
2024-06-03 04:53:32			0	36201	0	0	0	22711	21300	140841	27213	995993	40912	108359	0	0	8221	636333	0	0
2024-06-03 04:54:32			0	36205	0	0	0	22703	21300	140857	27138	995966	40901	108356	0	0	8221	636160	0	0
2024-06-03 04:55:32			0	36212	0	0	0	22711	21300	140865	27185	995931	40921	108359	0	0	8221	635857	0	0
2024-06-03 04:56:32			0	36214	0	0	0	22706	21300	140885	27178	995958	40900	108357	0	0	8222	635771	0	0
2024-06-03 04:57:32			0	36197	0	0	0	22709	21310	140873	27230	996001	40922	108358	0	0	8221	636470	0	0
2024-06-03 04:58:32			0	36196	0	0	0	22714	21310	140985	27138	995956	40901	108360	0	0	8221	636513	0	0
2024-06-03 04:59:32			0	36203	0	0	0	22714	21300	140973	27303	995886	40901	108360	0	0	8221	636246	0	0
2024-06-03 05:00:32			0	36176	0	0	0	22711	21300	140901	27341	995940	40912	108359	0	0	8220	637414	0	0
2024-06-03 05:01:32			0	36178	0	0	0	22709	21300	141013	27102	995984	40900	108358	0	0	8220	637327	0	0
2024-06-03 05:02:32			0	36174	0	0	0	22711	21300	140997	27372	995966	40912	108359	0	0	8219	637500	0	0
2024-06-03 05:03:32			0	36175	0	0	0	22706	21300	141013	27339	995984	40911	108357	0	0	8220	637457	0	0
2024-06-03 05:04:32			0	36195	0	0	0	22709	21290	141093	27402	995976	40899	108358	0	0	8221	636627	0	0
2024-06-03 05:05:32			0	36161	0	0	0	22709	21290	141041	26849	995923	40910	108358	0	0	8219	638099	0	0
2024-06-03 05:06:32			0	36163	0	0	0	22709	21300	141097	27208	995993	40901	108358	0	0	8219	637977	0	0
2024-06-03 05:07:32			0	36175	0	0	0	22701	21300	141041	27313	995966	40912	108355	0	0	8220	637457	0	0
2024-06-03 05:08:32			0	36180	0	0	0	22701	21290	141005	27043	995976	40910	108355	0	0	8220	637276	0	0
2024-06-03 05:09:32			0	36172	0	0	0	22709	21300	140933	27511	995931	40900	108358	0	0	8219	637587	0	0
2024-06-03 05:10:32			0	36171	0	0	0	22696	21290	141057	27170	995923	40910	108353	0	0	8219	637666	0	0
2024-06-03 05:11:32			0	36182	0	0	0	22701	21290	141081	27317	995967	40910	108355	0	0	8220	637190	0	0
2024-06-03 05:12:32			0	36188	0	0	0	22696	21300	141017	27189	995966	40889	108353	0	0	8220	636895	0	0
2024-06-03 05:13:32			0	36193	0	0	0	22693	21300	141017	27377	995851	40911	108352	0	0	8221	636678	0	0
2024-06-03 05:14:32			0	36181	0	0	0	22696	21290	140945	27220	995914	40899	108353	0	0	8220	637233	0	0
2024-06-03 05:15:32			0	36190	0	0	0	22688	21290	140973	27588	995914	40899	108350	0	0	8221	636844	0	0
2024-06-03 05:16:32			0	36182	0	0	0	22690	21300	140993	27258	995931	40900	108351	0	0	8220	637154	0	0
2024-06-03 05:17:32			0	36196	0	0	0	22701	21290	140981	27229	995888	40920	108355	0	0	8221	636584	0	0
2024-06-03 05:18:32			0	36203	0	0	0	22698	21280	140925	27265	995906	40899	108354	0	0	8221	636317	0	0
2024-06-03 05:19:32			0	36191	0	0	0	22690	21300	141013	27152	995931	40877	108351	0	0	8221	636765	0	0
2024-06-03 05:20:32			0	36191	0	0	0	22693	21280	140941	27272	995906	40899	108352	0	0	8221	636836	0	0
2024-06-03 05:21:32			0	36195	0	0	0	22696	21290	140885	27348	995914	40899	108353	0	0	8221	636627	0	0
2024-06-03 05:22:32			0	36195	0	0	0	22696	21290	140901	27190	995941	40910	108353	0	0	8221	636627	0	0
2024-06-03 05:23:32			0	36206	0	0	0	22688	21290	140909	27052	995923	40899	108350	0	0	8221	636152	0	0
2024-06-03 05:24:32			0	36200	0	0	0	22696	21290	140941	27140	995941	40899	108353	0	0	8221	636411	0	0
2024-06-03 05:25:32			0	36212	0	0	0	22690	21280	140937	27144	995879	40910	108351	0	0	8222	635928	0	0
2024-06-03 05:26:32			0	36187	0	0	0	22688	21290	140961	27313	995870	40899	108350	0	0	8220	636973	0	0
2024-06-03 05:27:32			0	36186	0	0	0	22693	21290	140921	27274	995896	40910	108352	0	0	8220	637017	0	0
2024-06-03 05:28:32			0	36190	0	0	0	22683	21300	140929	27372	995905	40911	108348	0	0	8221	636808	0	0
2024-06-03 05:29:32			0	36177	0	0	0	22693	21280	140997	27081	995826	40899	108352	0	0	8220	637441	0	0
2024-06-03 05:30:32			0	36183	0	0	0	22685	21290	140961	27215	995861	40910	108349	0	0	8220	637146	0	0
2024-06-03 05:31:32			0	36175	0	0	0	22690	21290	141017	27412	995914	40910	108351	0	0	8220	637493	0	0
2024-06-03 05:32:32			0	36171	0	0	0	22690	21290	140945	27109	995914	40899	108351	0	0	8220	637666	0	0
2024-06-03 05:33:32			0	36173	0	0	0	22683	21280	141001	27171	995897	40909	108348	0	0	8220	637614	0	0
2024-06-03 05:34:32			0	36158	0	0	0	22685	21290	141085	27211	995949	40888	108349	0	0	8219	638229	0	0
2024-06-03 05:35:32			0	36151	0	0	0	22693	21280	140977	26833	995791	40898	108352	0	0	8218	638567	0	0
2024-06-03 05:36:32			0	36150	0	0	0	22690	21290	140993	27300	995896	40910	108351	0	0	8218	638575	0	0
2024-06-03 05:37:32			0	36132	0	0	0	22690	21280	141101	27286	995924	40909	108351	0	0	8217	639391	0	0
2024-06-03 05:38:32			0	36099	0	0	0	22690	21280	141189	27050	995897	40898	108351	0	0	8216	640824	0	0
2024-06-03 05:39:32			0	36095	0	0	0	22685	21280	141273	27232	995871	40898	108349	0	0	8216	640997	0	0
2024-06-03 05:40:32			0	36085	0	0	0	22693	21270	141313	27391	995862	40897	108352	0	0	8215	641468	0	0
2024-06-03 05:41:32			0	36092	0	0	0	22690	21280	141437	27464	995897	40898	108351	0	0	8215	641128	0	0
2024-06-03 05:42:32			0	36064	0	0	0	22680	21280	141521	27197	995871	40898	108347	0	0	8214	642345	0	0
2024-06-03 05:43:32			0	36048	0	0	0	22685	21280	141509	27131	995853	40899	108349	0	0	8213	643042	0	0
2024-06-03 05:44:32			0	36034	0	0	0	22688	21290	141489	27168	995861	40899	108350	0	0	8212	643616	0	0
2024-06-03 05:45:32			0	36012	0	0	0	22688	21280	141629	27277	995853	40910	108350	0	0	8211	644611	0	0
2024-06-03 05:46:32			0	35997	0	0	0	22680	21280	141637	26894	995853	40899	108347	0	0	8210	645265	0	0
2024-06-03 05:47:32			0	35984	0	0	0	22685	21280	141749	26996	995906	40910	108349	0	0	8210	645833	0	0
2024-06-03 05:48:32			0	35951	0	0	0	22683	21280	141837	27090	995879	40910	108348	0	0	8208	647276	0	0
2024-06-03 05:49:32			0	35936	0	0	0	22685	21270	141893	27251	995916	40919	108349	0	0	8207	647968	0	0
2024-06-03 05:50:32			0	35906	0	0	0	22680	21270	142025	27045	995881	40886	108347	0	0	8205	649283	0	0
2024-06-03 05:51:32			0	35916	0	0	0	22670	21280	142045	27542	995844	40898	108343	0	0	8206	648809	0	0
2024-06-03 05:52:32			0	35873	0	0	0	22677	21280	142185	27343	995897	40909	108346	0	0	8204	650695	0	0
2024-06-03 05:53:32			0	35879	0	0	0	22680	21280	142201	27327	995879	40910	108347	0	0	8204	650431	0	0
2024-06-03 05:54:32			0	35853	0	0	0	22683	21290	142304	27019	995861	40899	108348	0	0	8203	651537	0	0
2024-06-03 05:55:32			0	35830	0	0	0	22685	21280	142324	27623	995871	40898	108349	0	0	8201	652585	0	0
2024-06-03 05:56:32			0	35813	0	0	0	22680	21290	142536	27267	995888	40920	108347	0	0	8201	653298	0	0
2024-06-03 05:57:32			0	35785	0	0	0	22685	21270	142540	27405	995862	40908	108349	0	0	8199	654604	0	0
2024-06-03 05:58:32			0	35770	0	0	0	22688	21280	142656	27223	995879	40920	108350	0	0	8198	655230	0	0
2024-06-03 05:59:32			0	35754	0	0	0	22685	21270	142820	27358	995881	40886	108349	0	0	8197	655973	0	0
2024-06-03 06:00:32			0	35726	0	0	0	22675	21280	142764	27053	995871	40909	108345	0	0	8196	657174	0	0
2024-06-03 06:01:32			0	35706	0	0	0	22672	21270	142888	27220	995809	40919	108344	0	0	8195	658095	0	0
2024-06-03 06:02:32			0	35689	0	0	0	22677	21270	142980	27435	995836	40897	108346	0	0	8194	658848	0	0
2024-06-03 06:03:32			0	35656	0	0	0	22672	21270	143024	27133	995881	40897	108344	0	0	8192	660312	0	0
2024-06-03 06:04:32			0	35653	0	0	0	22659	21260	143012	27201	995845	40907	108339	0	0	8192	660482	0	0
2024-06-03 06:05:32			0	35622	0	0	0	22675	21270	143212	27286	995854	40908	108345	0	0	8190	661822	0	0
2024-06-03 06:06:32			0	35604	0	0	0	22680	21270	143336	27322	995836	40897	108347	0	0	8189	662623	0	0
2024-06-03 06:07:32			0	35587	0	0	0	22680	21270	143336	27367	995862	40897	108347	0	0	8188	663379	0	0
2024-06-03 06:08:32			0	35585	0	0	0	22670	21260	143400	27234	995792	40918	108343	0	0	8188	663505	0	0
2024-06-03 06:09:32			0	35541	0	0	0	22677	21260	143496	27105	995792	40907	108346	0	0	8186	665467	0	0
2024-06-03 06:10:32			0	35528	0	0	0	22667	21260	143500	27554	995792	40896	108342	0	0	8185	666048	0	0
2024-06-03 06:11:32			0	35501	0	0	0	22675	21270	143568	27341	995809	40897	108345	0	0	8184	667217	0	0
2024-06-03 06:12:32			0	35491	0	0	0	22667	21260	143672	27426	995819	40907	108342	0	0	8183	667702	0	0
2024-06-03 06:13:32			0	35487	0	0	0	22667	21270	143720	27514	995801	40908	108342	0	0	8183	667844	0	0
2024-06-03 06:14:32			0	35477	0	0	0	22667	21260	143820	26975	995819	40907	108342	0	0	8183	668328	0	0
2024-06-03 06:15:32			0	35444	0	0	0	22672	21260	143840	27441	995819	40885	108344	0	0	8181	669807	0	0
2024-06-03 06:16:32			0	35458	0	0	0	22675	21260	143912	27369	995810	40907	108345	0	0	8181	669179	0	0
2024-06-03 06:17:32			0	35420	0	0	0	22664	21260	143948	27367	995819	40907	108341	0	0	8179	670884	0	0
2024-06-03 06:18:32			0	35413	0	0	0	22667	21270	143984	27526	995774	40897	108342	0	0	8179	671161	0	0
2024-06-03 06:19:32			0	35402	0	0	0	22664	21260	144092	27357	995766	40907	108341	0	0	8178	671693	0	0
2024-06-03 06:20:32			0	35399	0	0	0	22662	21260	144112	27298	995766	40896	108340	0	0	8178	671828	0	0
2024-06-03 06:21:32			0	35367	0	0	0	22667	21270	144120	27104	995827	40908	108342	0	0	8177	673230	0	0
2024-06-03 06:22:32			0	35354	0	0	0	22670	21260	144204	27428	995810	40907	108343	0	0	8176	673852	0	0
2024-06-03 06:23:32			0	35359	0	0	0	22667	21260	144192	27246	995819	40896	108342	0	0	8176	673627	0	0
2024-06-03 06:24:32			0	35343	0	0	0	22670	21270	144344	27474	995801	40886	108343	0	0	8175	674311	0	0
2024-06-03 06:25:32			0	35340	0	0	0	22664	21260	144268	27469	995819	40907	108341	0	0	8175	674483	0	0
2024-06-03 06:26:32			0	35338	0	0	0	22667	21260	144348	27185	995845	40907	108342	0	0	8175	674573	0	0
2024-06-03 06:27:32			0	35320	0	0	0	22662	21260	144304	27294	995784	40896	108340	0	0	8174	675385	0	0
2024-06-03 06:28:32			0	35323	0	0	0	22662	21260	144396	27213	995810	40896	108340	0	0	8174	675250	0	0
2024-06-03 06:29:32			0	35300	0	0	0	22664	21260	144516	27308	995792	40896	108341	0	0	8173	676288	0	0
2024-06-03 06:30:32			0	35296	0	0	0	22670	21260	144496	27185	995784	40907	108343	0	0	8173	676469	0	0
2024-06-03 06:31:32			0	35278	0	0	0	22667	21260	144456	27338	995819	40896	108342	0	0	8172	677282	0	0
2024-06-03 06:32:32			0	35262	0	0	0	22667	21260	144524	27409	995872	40907	108342	0	0	8171	678006	0	0
2024-06-03 06:33:32			0	35262	0	0	0	22664	21260	144516	27097	995819	40907	108341	0	0	8171	678006	0	0
2024-06-03 06:34:32			0	35265	0	0	0	22664	21270	144536	27114	995774	40908	108341	0	0	8171	677833	0	0
2024-06-03 06:35:32			0	35266	0	0	0	22672	21250	144632	27364	995802	40917	108344	0	0	8171	677863	0	0
2024-06-03 06:36:32			0	35256	0	0	0	22664	21260	144640	27227	995784	40896	108341	0	0	8171	678278	0	0
2024-06-03 06:37:32			0	35258	0	0	0	22664	21260	144632	27377	995731	40907	108341	0	0	8171	678187	0	0
2024-06-03 06:38:32			0	35237	0	0	0	22659	21260	144680	27130	995784	40907	108339	0	0	8170	679138	0	0
2024-06-03 06:39:32			0	35239	0	0	0	22664	21270	144656	27173	995721	40897	108341	0	0	8170	679010	0	0
2024-06-03 06:40:32			0	35239	0	0	0	22654	21260	144700	27194	995837	40907	108337	0	0	8170	679048	0	0
2024-06-03 06:41:32			0	35241	0	0	0	22649	21260	144800	27324	995819	40907	108335	0	0	8170	678957	0	0
2024-06-03 06:42:32			0	35229	0	0	0	22657	21260	144672	27440	995757	40907	108338	0	0	8169	679501	0	0
2024-06-03 06:43:32			0	35238	0	0	0	22662	21250	144652	26908	995749	40906	108340	0	0	8170	679130	0	0
2024-06-03 06:44:32			0	35242	0	0	0	22651	21250	144560	27343	995775	40906	108336	0	0	8170	678949	0	0
2024-06-03 06:45:32			0	35245	0	0	0	22649	21250	144636	27296	995749	40895	108335	0	0	8170	678813	0	0
2024-06-03 06:46:32			0	35253	0	0	0	22651	21260	144656	27140	995792	40907	108336	0	0	8171	678413	0	0
2024-06-03 06:47:32			0	35271	0	0	0	22664	21250	144640	27383	995687	40895	108341	0	0	8171	677637	0	0
2024-06-03 06:48:32			0	35257	0	0	0	22649	21250	144620	27336	995775	40917	108335	0	0	8171	678270	0	0
2024-06-03 06:49:32			0	35278	0	0	0	22649	21250	144652	27121	995767	40895	108335	0	0	8172	677320	0	0
2024-06-03 06:50:32			0	35279	0	0	0	22649	21250	144660	27384	995775	40906	108335	0	0	8172	677275	0	0
2024-06-03 06:51:32			0	35268	0	0	0	22646	21250	144540	27457	995713	40895	108334	0	0	8171	677772	0	0
2024-06-03 06:52:32			0	35286	0	0	0	22649	21250	144540	27478	995713	40895	108335	0	0	8172	676958	0	0
2024-06-03 06:53:32			0	35286	0	0	0	22657	21250	144640	27293	995767	40906	108338	0	0	8172	676958	0	0
2024-06-03 06:54:32			0	35278	0	0	0	22654	21250	144548	27372	995740	40895	108337	0	0	8172	677320	0	0
2024-06-03 06:55:32			0	35284	0	0	0	22649	21240	144436	27428	995732	40906	108335	0	0	8172	677086	0	0
2024-06-03 06:56:32			0	35307	0	0	0	22646	21250	144436	27000	995713	40917	108334	0	0	8174	676010	0	0
2024-06-03 06:57:32			0	35313	0	0	0	22646	21250	144352	27315	995713	40884	108334	0	0	8174	675739	0	0
2024-06-03 06:58:32			0	35324	0	0	0	22651	21250	144324	27069	995713	40906	108336	0	0	8174	675242	0	0
2024-06-03 06:59:32			0	35318	0	0	0	22644	21240	144396	26968	995758	40894	108333	0	0	8174	675550	0	0
2024-06-03 07:00:32			0	35329	0	0	0	22646	21250	144352	27095	995767	40895	108334	0	0	8175	675017	0	0
2024-06-03 07:01:32			0	35331	0	0	0	22646	21240	144256	27039	995678	40906	108334	0	0	8175	674964	0	0
2024-06-03 07:02:32			0	35361	0	0	0	22646	21240	144208	27204	995785	40906	108334	0	0	8176	673612	0	0
2024-06-03 07:03:32			0	35367	0	0	0	22646	21250	144240	27306	995740	40906	108334	0	0	8177	673304	0	0
2024-06-03 07:04:32			0	35365	0	0	0	22641	21240	144116	27396	995732	40906	108332	0	0	8177	673432	0	0
2024-06-03 07:05:32			0	35373	0	0	0	22641	21240	144092	27092	995750	40906	108332	0	0	8177	673072	0	0
2024-06-03 07:06:32			0	35398	0	0	0	22644	21240	144036	27379	995758	40906	108333	0	0	8179	671947	0	0
2024-06-03 07:07:32			0	35399	0	0	0	22644	21250	144020	27237	995713	40906	108333	0	0	8179	671865	0	0
2024-06-03 07:08:32			0	35389	0	0	0	22649	21240	144020	27284	995732	40906	108335	0	0	8178	672352	0	0
2024-06-03 07:09:32			0	35433	0	0	0	22646	21240	143992	27081	995732	40883	108334	0	0	8180	670375	0	0
2024-06-03 07:10:32			0	35426	0	0	0	22644	21240	143940	27360	995732	40906	108333	0	0	8180	670689	0	0
2024-06-03 07:11:32			0	35429	0	0	0	22633	21240	143952	27222	995732	40906	108329	0	0	8180	670555	0	0
2024-06-03 07:12:32			0	35425	0	0	0	22638	21250	143920	27287	995740	40906	108331	0	0	8180	670697	0	0
2024-06-03 07:13:32			0	35440	0	0	0	22649	21250	143808	27164	995696	40906	108335	0	0	8181	670024	0	0
2024-06-03 07:14:32			0	35442	0	0	0	22646	21240	143840	27725	995785	40906	108334	0	0	8181	669971	0	0
2024-06-03 07:15:32			0	35448	0	0	0	22651	21240	143876	27201	995723	40906	108336	0	0	8181	669702	0	0
2024-06-03 07:16:32			0	35445	0	0	0	22646	21250	143808	27708	995775	40895	108334	0	0	8181	669799	0	0
2024-06-03 07:17:32			0	35452	0	0	0	22644	21240	143720	27542	995732	40916	108333	0	0	8181	669523	0	0
2024-06-03 07:18:32			0	35471	0	0	0	22651	21240	143752	27410	995732	40916	108336	0	0	8182	668671	0	0
2024-06-03 07:19:32			0	35481	0	0	0	22649	21230	143684	26923	995706	40905	108335	0	0	8183	668261	0	0
2024-06-03 07:20:32			0	35478	0	0	0	22641	21240	143668	27322	995785	40894	108332	0	0	8183	668358	0	0
2024-06-03 07:21:32			0	35480	0	0	0	22651	21240	143692	27206	995723	40906	108336	0	0	8183	668268	0	0
2024-06-03 07:22:32			0	35503	0	0	0	22644	21240	143588	27242	995697	40906	108333	0	0	8184	667239	0	0
2024-06-03 07:23:32			0	35497	0	0	0	22659	21240	143600	27511	995705	40906	108339	0	0	8184	667507	0	0
2024-06-03 07:24:32			0	35500	0	0	0	22649	21250	143612	27112	995767	40917	108335	0	0	8184	667336	0	0
2024-06-03 07:25:32			0	35497	0	0	0	22654	21240	143624	27196	995705	40906	108337	0	0	8184	667507	0	0
2024-06-03 07:26:32			0	35494	0	0	0	22651	21240	143676	27481	995758	40906	108336	0	0	8184	667642	0	0
2024-06-03 07:27:32			0	35502	0	0	0	22654	21240	143576	27338	995785	40906	108337	0	0	8184	667284	0	0
2024-06-03 07:28:32			0	35512	0	0	0	22657	21240	143600	27386	995723	40916	108338	0	0	8184	666836	0	0
2024-06-03 07:29:32			0	35503	0	0	0	22646	21250	143552	27183	995767	40917	108334	0	0	8184	667202	0	0
2024-06-03 07:30:32			0	35500	0	0	0	22651	21250	143652	27242	995740	40917	108336	0	0	8184	667336	0	0
2024-06-03 07:31:32			0	35482	0	0	0	22641	21250	143568	27072	995767	40895	108332	0	0	8183	668142	0	0
2024-06-03 07:32:32			0	35496	0	0	0	22651	21240	143656	27371	995732	40906	108336	0	0	8184	667552	0	0
2024-06-03 07:33:32			0	35522	0	0	0	22649	21250	143532	27410	995793	40917	108335	0	0	8185	666353	0	0
2024-06-03 07:34:32			0	35505	0	0	0	22641	21250	143560	27384	995740	40906	108332	0	0	8184	667113	0	0
2024-06-03 07:35:32			0	35515	0	0	0	22654	21250	143636	27293	995713	40917	108337	0	0	8185	666666	0	0
2024-06-03 07:36:32			0	35507	0	0	0	22654	21250	143640	27341	995767	40917	108337	0	0	8184	667023	0	0
2024-06-03 07:37:32			0	35537	0	0	0	22649	21250	143588	27348	995749	40906	108335	0	0	8186	665683	0	0
2024-06-03 07:38:32			0	35503	0	0	0	22659	21240	143564	27454	995732	40906	108339	0	0	8184	667239	0	0
2024-06-03 07:39:32			0	35509	0	0	0	22657	21250	143528	27178	995829	40895	108338	0	0	8184	666934	0	0
2024-06-03 07:40:32			0	35533	0	0	0	22651	21250	143596	27365	995740	40906	108336	0	0	8186	665861	0	0
2024-06-03 07:41:32			0	35520	0	0	0	22657	21240	143556	27452	995785	40906	108338	0	0	8185	666479	0	0
2024-06-03 07:42:32			0	35524	0	0	0	22651	21250	143452	27220	995767	40917	108336	0	0	8185	666263	0	0
2024-06-03 07:43:32			0	35527	0	0	0	22664	21250	143524	27374	995829	40906	108341	0	0	8185	666129	0	0
2024-06-03 07:44:32			0	35545	0	0	0	22659	21250	143484	27275	995802	40906	108339	0	0	8186	665326	0	0
2024-06-03 07:45:32			0	35534	0	0	0	22651	21250	143496	27512	995829	40906	108336	0	0	8186	665817	0	0
2024-06-03 07:46:32			0	35537	0	0	0	22662	21250	143500	27364	995793	40895	108340	0	0	8186	665683	0	0
2024-06-03 07:47:32			0	35555	0	0	0	22646	21250	143440	27159	995749	40906	108334	0	0	8187	664879	0	0
2024-06-03 07:48:32			0	35553	0	0	0	22651	21250	143364	27455	995722	40906	108336	0	0	8187	664969	0	0
2024-06-03 07:49:32			0	35552	0	0	0	22657	21250	143448	27241	995775	40906	108338	0	0	8187	665013	0	0
2024-06-03 07:50:32			0	35564	0	0	0	22651	21250	143340	27255	995793	40906	108336	0	0	8187	664478	0	0
2024-06-03 07:51:32			0	35583	0	0	0	22657	21250	143360	27351	995802	40906	108338	0	0	8188	663631	0	0
2024-06-03 07:52:32			0	35585	0	0	0	22657	21250	143320	27317	995722	40906	108338	0	0	8188	663542	0	0
2024-06-03 07:53:32			0	35589	0	0	0	22659	21250	143264	27469	995740	40917	108339	0	0	8189	663364	0	0
2024-06-03 07:54:32			0	35592	0	0	0	22667	21250	143224	27274	995802	40895	108342	0	0	8189	663230	0	0
2024-06-03 07:55:32			0	35581	0	0	0	22667	21250	143300	27287	995855	40906	108342	0	0	8188	663720	0	0
2024-06-03 07:56:32			0	35592	0	0	0	22667	21260	143196	27230	995810	40896	108342	0	0	8189	663194	0	0
2024-06-03 07:57:32			0	35603	0	0	0	22675	21260	143160	27618	995810	40907	108345	0	0	8189	662704	0	0
2024-06-03 07:58:32			0	35612	0	0	0	22664	21260	143192	27150	995837	40896	108341	0	0	8190	662303	0	0
2024-06-03 07:59:32			0	35600	0	0	0	22664	21250	143080	27187	995820	40917	108341	0	0	8189	662874	0	0
2024-06-03 08:00:32			0	35594	0	0	0	22675	21260	143152	27213	995792	40918	108345	0	0	8189	663104	0	0
2024-06-03 08:01:32			0	35606	0	0	0	22664	21280	143112	27569	995844	40898	108341	0	0	8190	662497	0	0
2024-06-03 08:02:32			0	35595	0	0	0	22667	21260	143148	27270	995837	40907	108342	0	0	8189	663060	0	0
2024-06-03 08:03:32			0	35594	0	0	0	22664	21260	143328	27543	995845	40907	108341	0	0	8189	663104	0	0
2024-06-03 08:04:32			0	35590	0	0	0	22664	21270	143196	27249	995801	40908	108341	0	0	8189	663246	0	0
2024-06-03 08:05:32			0	35567	0	0	0	22667	21270	143300	27324	995854	40897	108342	0	0	8187	664270	0	0
2024-06-03 08:06:32			0	35560	0	0	0	22659	21270	143260	27213	995889	40908	108339	0	0	8187	664583	0	0
2024-06-03 08:07:32			0	35574	0	0	0	22672	21270	143396	27253	995809	40908	108344	0	0	8188	663958	0	0
2024-06-03 08:08:32			0	35555	0	0	0	22670	21260	143384	27369	995872	40907	108343	0	0	8187	664842	0	0
2024-06-03 08:09:32			0	35553	0	0	0	22677	21270	143432	27353	995862	40919	108346	0	0	8186	664895	0	0
2024-06-03 08:10:32			0	35539	0	0	0	22670	21260	143404	27502	995819	40907	108343	0	0	8186	665556	0	0
2024-06-03 08:11:32			0	35527	0	0	0	22680	21260	143456	27400	995872	40918	108347	0	0	8185	666092	0	0
2024-06-03 08:12:32			0	35531	0	0	0	22680	21270	143480	27341	995889	40919	108347	0	0	8185	665877	0	0
2024-06-03 08:13:32			0	35511	0	0	0	22680	21270	143504	27251	995862	40919	108347	0	0	8184	666770	0	0
2024-06-03 08:14:32			0	35514	0	0	0	22693	21280	143556	27543	995924	40909	108352	0	0	8184	666599	0	0
2024-06-03 08:15:32			0	35499	0	0	0	22690	21280	143612	27183	995906	40910	108351	0	0	8183	667270	0	0
2024-06-03 08:16:32			0	35502	0	0	0	22690	21280	143724	27352	995977	40909	108351	0	0	8184	667136	0	0
2024-06-03 08:17:32			0	35484	0	0	0	22688	21280	143544	27255	995906	40910	108350	0	0	8183	667941	0	0
2024-06-03 08:18:32			0	35502	0	0	0	22698	21270	143616	27512	995916	40919	108354	0	0	8183	667173	0	0
2024-06-03 08:19:32			0	35476	0	0	0	22683	21270	143660	27213	995889	40908	108348	0	0	8182	668336	0	0
2024-06-03 08:20:32			0	35456	0	0	0	22683	21280	143740	27587	995844	40898	108348	0	0	8181	669195	0	0
2024-06-03 08:21:32			0	35453	0	0	0	22685	21280	143740	27556	995871	40919	108349	0	0	8181	669329	0	0
2024-06-03 08:22:32			0	35454	0	0	0	22685	21280	143744	27457	995932	40910	108349	0	0	8181	669284	0	0
2024-06-03 08:23:32			0	35436	0	0	0	22680	21270	143824	27675	995889	40908	108347	0	0	8180	670129	0	0
2024-06-03 08:24:32			0	35439	0	0	0	22670	21280	143852	27280	995897	40898	108343	0	0	8180	669957	0	0
2024-06-03 08:25:32			0	35438	0	0	0	22662	21280	143852	27559	995906	40910	108340	0	0	8181	670002	0	0
2024-06-03 08:26:32			0	35437	0	0	0	22672	21270	143948	27391	995836	40908	108344	0	0	8180	670084	0	0
2024-06-03 08:27:32			0	35436	0	0	0	22667	21260	143952	27727	995792	40885	108342	0	0	8180	670166	0	0
2024-06-03 08:28:32			0	35421	0	0	0	22649	21260	143884	27440	995819	40885	108335	0	0	8180	670839	0	0
2024-06-03 08:29:32			0	35409	0	0	0	22638	21260	143912	26942	995731	40896	108331	0	0	8179	671378	0	0
2024-06-03 08:30:32			0	35407	0	0	0	22623	21250	143948	27268	995775	40917	108325	0	0	8179	671505	0	0
2024-06-03 08:31:32			0	35400	0	0	0	22633	21240	143992	27698	995678	40894	108329	0	0	8179	671857	0	0
2024-06-03 08:32:32			0	35390	0	0	0	22631	21250	143968	27175	995713	40906	108328	0	0	8178	672269	0	0
2024-06-03 08:33:32			0	35379	0	0	0	22646	21260	144012	27213	995784	40907	108334	0	0	8178	672727	0	0
2024-06-03 08:34:32			0	35400	0	0	0	22641	21260	143944	27429	995757	40907	108332	0	0	8179	671783	0	0
2024-06-03 08:35:32			0	35454	0	0	0	22649	21250	143780	27374	995749	40895	108335	0	0	8182	669396	0	0
2024-06-03 08:36:32			0	35582	0	0	0	22654	21240	143248	27164	995732	40906	108337	0	0	8188	663713	0	0
2024-06-03 08:37:32			0	35746	0	0	0	22651	21260	142676	27369	995864	40907	108336	0	0	8197	656363	0	0
2024-06-03 08:38:32			0	35895	0	0	0	22662	21260	142129	27216	995837	40896	108340	0	0	8205	649801	0	0
2024-06-03 08:39:32			0	36037	0	0	0	22667	21250	141473	27346	995802	40906	108342	0	0	8213	643628	0	0
2024-06-03 08:40:32			0	36131	0	0	0	22657	21260	141129	27412	995784	40907	108338	0	0	8218	639505	0	0
2024-06-03 08:41:32			0	36194	0	0	0	22659	21260	140821	27242	995819	40918	108339	0	0	8221	636777	0	0
2024-06-03 08:42:32			0	36254	0	0	0	22670	21260	140625	27364	995757	40907	108343	0	0	8224	634185	0	0
2024-06-03 08:43:32			0	36309	0	0	0	22667	21250	140453	27673	995802	40906	108342	0	0	8227	631852	0	0
2024-06-03 08:44:32			0	36338	0	0	0	22664	21270	140221	27478	995801	40908	108341	0	0	8229	630535	0	0
2024-06-03 08:45:32			0	36425	0	0	0	22670	21260	140065	27602	995810	40907	108343	0	0	8233	626841	0	0
2024-06-03 08:46:32			0	36474	0	0	0	22680	21270	139809	27592	995862	40919	108347	0	0	8236	624712	0	0
2024-06-03 08:47:32			0	36533	0	0	0	22670	21270	139665	27445	995881	40919	108343	0	0	8239	622198	0	0
2024-06-03 08:48:32			0	36558	0	0	0	22685	21260	139505	27497	995872	40896	108349	0	0	8240	621169	0	0
2024-06-03 08:49:32			0	36600	0	0	0	22675	21270	139349	27324	995881	40930	108345	0	0	8243	619351	0	0
2024-06-03 08:50:32			0	36613	0	0	0	22675	21270	139346	27540	995809	40908	108345	0	0	8243	618799	0	0
2024-06-03 08:51:32			0	36656	0	0	0	22685	21270	139190	27597	995827	40919	108349	0	0	8245	616978	0	0
2024-06-03 08:52:32			0	36665	0	0	0	22685	21270	139110	27306	995881	40908	108349	0	0	8246	616597	0	0
2024-06-03 08:53:32			0	36700	0	0	0	22693	21280	139050	27284	995871	40898	108352	0	0	8248	615084	0	0
2024-06-03 08:54:32			0	36703	0	0	0	22693	21270	138938	27535	995969	40919	108352	0	0	8248	614992	0	0
2024-06-03 08:55:32			0	36730	0	0	0	22698	21280	138862	27306	995906	40910	108354	0	0	8249	613818	0	0
2024-06-03 08:56:32			0	36750	0	0	0	22688	21280	138806	27130	995977	40909	108350	0	0	8250	612975	0	0
2024-06-03 08:57:32			0	36781	0	0	0	22688	21280	138678	27691	995951	40919	108350	0	0	8252	611670	0	0
2024-06-03 08:58:32			0	36822	0	0	0	22685	21280	138470	27384	995906	40920	108349	0	0	8254	609947	0	0
2024-06-03 08:59:32			0	36874	0	0	0	22685	21280	138214	27476	995871	40909	108349	0	0	8257	607767	0	0
2024-06-03 09:00:32			0	36953	0	0	0	22693	21290	138070	27542	995941	40920	108352	0	0	8261	604431	0	0
2024-06-03 09:01:32			0	37002	0	0	0	22690	21290	137858	27343	995888	40910	108351	0	0	8264	602389	0	0
2024-06-03 09:02:32			0	37036	0	0	0	22698	21280	137618	27486	995924	40919	108354	0	0	8265	601008	0	0
2024-06-03 09:03:32			0	37086	0	0	0	22696	21280	137490	27190	995951	40909	108353	0	0	8268	598932	0	0
2024-06-03 09:04:32			0	37129	0	0	0	22693	21280	137322	27189	995932	40920	108352	0	0	8270	597150	0	0
2024-06-03 09:05:32			0	37180	0	0	0	22703	21290	137258	27464	995941	40910	108356	0	0	8273	595009	0	0
2024-06-03 09:06:32			0	37224	0	0	0	22693	21280	137002	27351	996012	40920	108352	0	0	8275	593227	0	0
2024-06-03 09:07:32			0	37277	0	0	0	22693	21290	136742	27476	996047	40910	108352	0	0	8278	591012	0	0
2024-06-03 09:08:32			0	37339	0	0	0	22693	21280	136651	27469	995959	40920	108352	0	0	8281	588500	0	0
2024-06-03 09:09:32			0	37388	0	0	0	22685	21280	136451	27431	995951	40909	108349	0	0	8284	586494	0	0
2024-06-03 09:10:32			0	37435	0	0	0	22701	21280	136219	27684	995951	40909	108355	0	0	8286	584573	0	0
2024-06-03 09:11:32			0	37487	0	0	0	22709	21290	136135	27627	996029	40910	108358	0	0	8289	582421	0	0
2024-06-03 09:12:32			0	37505	0	0	0	22706	21280	136003	27279	995986	40932	108357	0	0	8290	581721	0	0
2024-06-03 09:13:32			0	37526	0	0	0	22706	21280	136015	27135	996012	40932	108357	0	0	8291	580867	0	0
2024-06-03 09:14:32			0	37535	0	0	0	22716	21290	135839	27402	995994	40910	108361	0	0	8291	580469	0	0
2024-06-03 09:15:32			0	37563	0	0	0	22719	21300	135731	27305	996038	40911	108362	0	0	8293	579300	0	0
2024-06-03 09:16:32			0	37585	0	0	0	22722	21300	135739	27471	996038	40921	108363	0	0	8294	578408	0	0
2024-06-03 09:17:32			0	37615	0	0	0	22727	21290	135707	27507	996056	40920	108365	0	0	8295	577225	0	0
2024-06-03 09:18:32			0	37611	0	0	0	22727	21300	135707	27504	996073	40901	108365	0	0	8295	577355	0	0
2024-06-03 09:19:32			0	37568	0	0	0	22727	21300	135835	27353	996073	40912	108365	0	0	8293	579097	0	0
2024-06-03 09:20:32			0	37546	0	0	0	22724	21310	135879	27360	996054	40922	108364	0	0	8292	579958	0	0
2024-06-03 09:21:32			0	37490	0	0	0	22719	21290	136023	27178	996135	40910	108362	0	0	8289	582299	0	0
2024-06-03 09:22:32			0	37456	0	0	0	22724	21310	136171	27360	996081	40912	108364	0	0	8287	583619	0	0
2024-06-03 09:23:32			0	37410	0	0	0	22724	21310	136351	27291	996134	40922	108364	0	0	8284	585497	0	0
2024-06-03 09:24:32			0	37357	0	0	0	22729	21310	136467	26939	996161	40912	108366	0	0	8282	587665	0	0
2024-06-03 09:25:32			0	37319	0	0	0	22732	21320	136635	27287	996133	40924	108367	0	0	8280	589189	0	0
2024-06-03 09:26:32			0	37280	0	0	0	22729	21310	136766	27071	996134	40901	108366	0	0	8278	590823	0	0
2024-06-03 09:27:32			0	37264	0	0	0	22732	21320	136858	27222	996098	40913	108367	0	0	8277	591448	0	0
2024-06-03 09:28:32			0	37220	0	0	0	22722	21320	136918	27180	996151	40913	108363	0	0	8275	593260	0	0
2024-06-03 09:29:32			0	37228	0	0	0	22737	21310	137006	27052	996063	40922	108369	0	0	8275	592963	0	0
2024-06-03 09:30:32			0	37177	0	0	0	22729	21310	137118	27216	996143	40922	108366	0	0	8272	595066	0	0
2024-06-03 09:31:32			0	37163	0	0	0	22722	21310	137114	27263	996116	40912	108363	0	0	8272	595645	0	0
2024-06-03 09:32:32			0	37187	0	0	0	22719	21330	137230	26873	996088	40914	108362	0	0	8273	594587	0	0
2024-06-03 09:33:32			0	37189	0	0	0	22722	21310	137154	26908	996054	40922	108363	0	0	8273	594571	0	0
2024-06-03 09:34:32			0	37202	0	0	0	22706	21320	137158	27196	996098	40923	108357	0	0	8274	594002	0	0
2024-06-03 09:35:32			0	37180	0	0	0	22714	21300	137130	27161	996073	40912	108360	0	0	8273	594975	0	0
2024-06-03 09:36:32			0	37186	0	0	0	22724	21320	137202	27552	996098	40902	108364	0	0	8273	594662	0	0
2024-06-03 09:37:32			0	37180	0	0	0	22724	21320	137170	27322	996098	40902	108364	0	0	8272	594909	0	0
2024-06-03 09:38:32			0	37184	0	0	0	22724	21310	137194	27542	996089	40922	108364	0	0	8273	594777	0	0
2024-06-03 09:39:32			0	37173	0	0	0	22722	21310	137126	27393	996081	40922	108363	0	0	8272	595232	0	0
2024-06-03 09:40:32			0	37165	0	0	0	22727	21320	137114	27293	996124	40923	108365	0	0	8272	595529	0	0
2024-06-03 09:41:32			0	37176	0	0	0	22729	21310	137162	27168	996089	40922	108366	0	0	8272	595108	0	0
2024-06-03 09:42:32			0	37172	0	0	0	22732	21310	137186	27279	996161	40901	108367	0	0	8272	595273	0	0
2024-06-03 09:43:32			0	37152	0	0	0	22737	21330	137218	27462	996115	40914	108369	0	0	8271	596033	0	0
2024-06-03 09:44:32			0	37189	0	0	0	22732	21320	137198	27046	996106	40914	108367	0	0	8273	594538	0	0
2024-06-03 09:45:32			0	37181	0	0	0	22729	21320	137130	27064	996133	40924	108366	0	0	8272	594868	0	0
2024-06-03 09:46:32			0	37180	0	0	0	22737	21320	137094	27255	996124	40934	108369	0	0	8272	594909	0	0
2024-06-03 09:47:32			0	37192	0	0	0	22724	21310	137062	27308	996116	40912	108364	0	0	8273	594447	0	0
2024-06-03 09:48:32			0	37201	0	0	0	22742	21320	137026	27320	996124	40923	108371	0	0	8273	594043	0	0
2024-06-03 09:49:32			0	37223	0	0	0	22735	21330	136978	27267	996115	40914	108368	0	0	8275	593103	0	0
2024-06-03 09:50:32			0	37220	0	0	0	22735	21320	136974	27235	996106	40902	108368	0	0	8274	593260	0	0
2024-06-03 09:51:32			0	37243	0	0	0	22737	21330	136930	27223	996203	40936	108369	0	0	8276	592279	0	0
2024-06-03 09:52:32			0	37261	0	0	0	22745	21330	136750	27409	996230	40925	108372	0	0	8276	591539	0	0
2024-06-03 09:53:32			0	37292	0	0	0	22745	21330	136766	27537	996177	40925	108372	0	0	8278	590265	0	0
2024-06-03 09:54:32			0	37306	0	0	0	22750	21330	136690	27196	996168	40914	108374	0	0	8279	589690	0	0
2024-06-03 09:55:32			0	37315	0	0	0	22745	21340	136586	27400	996159	40903	108372	0	0	8279	589288	0	0
2024-06-03 09:56:32			0	37341	0	0	0	22742	21330	136495	27469	996195	40902	108371	0	0	8281	588255	0	0
2024-06-03 09:57:32			0	37350	0	0	0	22750	21330	136459	27540	996177	40915	108374	0	0	8281	587886	0	0
2024-06-03 09:58:32			0	37381	0	0	0	22755	21330	136455	27216	996195	40914	108376	0	0	8283	586617	0	0
2024-06-03 09:59:32			0	37384	0	0	0	22750	21330	136375	27305	996168	40924	108374	0	0	8283	586494	0	0
2024-06-03 10:00:32			0	37393	0	0	0	22748	21340	136351	27459	996265	40936	108373	0	0	8283	586094	0	0
2024-06-03 10:01:32			0	37410	0	0	0	22763	21340	136283	27473	996273	40937	108379	0	0	8284	585399	0	0
2024-06-03 10:02:32			0	37419	0	0	0	22763	21340	136263	27253	996220	40926	108379	0	0	8284	585032	0	0
2024-06-03 10:03:32			0	37442	0	0	0	22761	21350	136119	27171	996229	40916	108378	0	0	8286	584060	0	0
2024-06-03 10:04:32			0	37481	0	0	0	22758	21340	136123	27575	996220	40926	108377	0	0	8288	582504	0	0
2024-06-03 10:05:32			0	37517	0	0	0	22766	21350	136035	27464	996282	40916	108380	0	0	8290	581007	0	0
2024-06-03 10:06:32			0	37510	0	0	0	22761	21340	135823	27306	996238	40915	108378	0	0	8289	581324	0	0
2024-06-03 10:07:32			0	37535	0	0	0	22763	21350	135923	27168	996255	40916	108379	0	0	8291	580276	0	0
2024-06-03 10:08:32			0	37525	0	0	0	22766	21350	135935	27163	996282	40938	108380	0	0	8290	580682	0	0
2024-06-03 10:09:32			0	37514	0	0	0	22768	21340	135907	27343	996194	40926	108381	0	0	8289	581161	0	0
2024-06-03 10:10:32			0	37525	0	0	0	22761	21340	135875	27750	996220	40937	108378	0	0	8290	580714	0	0
2024-06-03 10:11:32			0	37524	0	0	0	22763	21350	135967	27234	996229	40916	108379	0	0	8290	580722	0	0
2024-06-03 10:12:32			0	37503	0	0	0	22766	21350	135943	27485	996290	40927	108380	0	0	8289	581576	0	0
2024-06-03 10:13:32			0	37513	0	0	0	22758	21350	135907	26972	996255	40916	108377	0	0	8289	581169	0	0
2024-06-03 10:14:32			0	37509	0	0	0	22761	21350	135875	27409	996237	40916	108378	0	0	8289	581332	0	0
2024-06-03 10:15:32			0	37497	0	0	0	22753	21360	135931	27459	996272	40927	108375	0	0	8289	581788	0	0
2024-06-03 10:16:32			0	37519	0	0	0	22755	21340	135839	27397	996220	40937	108376	0	0	8290	580958	0	0
2024-06-03 10:17:32			0	37532	0	0	0	22761	21350	135919	27313	996255	40927	108378	0	0	8290	580397	0	0
2024-06-03 10:18:32			0	37532	0	0	0	22758	21360	135943	26894	996272	40916	108377	0	0	8291	580365	0	0
2024-06-03 10:19:32			0	37539	0	0	0	22766	21350	135855	27286	996264	40927	108380	0	0	8291	580113	0	0
2024-06-03 10:20:32			0	37532	0	0	0	22758	21350	135863	27190	996290	40927	108377	0	0	8290	580397	0	0
2024-06-03 10:21:32			0	37549	0	0	0	22758	21360	135931	27140	996299	40927	108377	0	0	8291	579675	0	0
2024-06-03 10:22:32			0	37540	0	0	0	22755	21350	135911	27320	996290	40938	108376	0	0	8291	580072	0	0
2024-06-03 10:23:32			0	37543	0	0	0	22755	21350	135871	27390	996282	40916	108376	0	0	8291	579951	0	0
2024-06-03 10:24:32			0	37550	0	0	0	22758	21360	135719	27213	996272	40938	108377	0	0	8291	579634	0	0
2024-06-03 10:25:32			0	37563	0	0	0	22766	21360	135779	27166	996272	40916	108380	0	0	8292	579107	0	0
2024-06-03 10:26:32			0	37554	0	0	0	22758	21350	135787	27246	996317	40927	108377	0	0	8292	579504	0	0
2024-06-03 10:27:32			0	37567	0	0	0	22758	21360	135699	27412	996299	40927	108377	0	0	8292	578945	0	0
2024-06-03 10:28:32			0	37602	0	0	0	22761	21350	135607	27078	996290	40916	108378	0	0	8294	577559	0	0
2024-06-03 10:29:32			0	37598	0	0	0	22755	21360	135631	27192	996325	40927	108376	0	0	8294	577689	0	0
2024-06-03 10:30:32			0	37589	0	0	0	22750	21350	135567	27159	996264	40916	108374	0	0	8294	578085	0	0
2024-06-03 10:31:32			0	37589	0	0	0	22748	21350	135567	27100	996229	40927	108373	0	0	8294	578085	0	0
2024-06-03 10:32:32			0	37603	0	0	0	22748	21340	135619	27203	996273	40937	108373	0	0	8294	577550	0	0
2024-06-03 10:33:32			0	37593	0	0	0	22755	21350	135667	27215	996290	40927	108376	0	0	8294	577923	0	0
2024-06-03 10:34:32			0	37582	0	0	0	22745	21340	135599	27306	996238	40915	108372	0	0	8293	578401	0	0
2024-06-03 10:35:32			0	37556	0	0	0	22748	21340	135663	27312	996212	40915	108373	0	0	8292	579455	0	0
2024-06-03 10:36:32			0	37553	0	0	0	22748	21340	135787	27571	996159	40925	108373	0	0	8292	579577	0	0
2024-06-03 10:37:32			0	37542	0	0	0	22737	21330	135747	27358	996203	40925	108369	0	0	8291	580056	0	0
2024-06-03 10:38:32			0	37545	0	0	0	22735	21340	135727	27043	996212	40903	108368	0	0	8291	579902	0	0
2024-06-03 10:39:32			0	37530	0	0	0	22740	21340	135903	27177	996159	40915	108370	0	0	8291	580511	0	0
2024-06-03 10:40:32			0	37525	0	0	0	22727	21340	135915	27246	996167	40915	108365	0	0	8291	580714	0	0
2024-06-03 10:41:32			0	37503	0	0	0	22727	21340	135895	27393	996159	40925	108365	0	0	8289	581608	0	0
2024-06-03 10:42:32			0	37492	0	0	0	22722	21330	135919	27232	996203	40925	108363	0	0	8289	582088	0	0
2024-06-03 10:43:32			0	37500	0	0	0	22729	21330	135963	27083	996230	40925	108366	0	0	8289	581763	0	0
2024-06-03 10:44:32			0	37476	0	0	0	22724	21330	135959	27284	996141	40914	108364	0	0	8288	582740	0	0
2024-06-03 10:45:32			0	37516	0	0	0	22729	21330	136023	27403	996221	40914	108366	0	0	8290	581112	0	0
2024-06-03 10:46:32			0	37473	0	0	0	22727	21340	135995	27315	996265	40915	108365	0	0	8288	582829	0	0
2024-06-03 10:47:32			0	37465	0	0	0	22727	21340	136011	27260	996132	40925	108365	0	0	8287	583155	0	0
2024-06-03 10:48:32			0	37471	0	0	0	22727	21330	136011	27274	996150	40915	108365	0	0	8288	582943	0	0
2024-06-03 10:49:32			0	37429	0	0	0	22719	21320	136115	27204	996159	40924	108362	0	0	8286	584688	0	0
2024-06-03 10:50:32			0	37443	0	0	0	22724	21320	136183	27371	996186	40924	108364	0	0	8286	584117	0	0
2024-06-03 10:51:32			0	37440	0	0	0	22724	21320	136187	27381	996124	40934	108364	0	0	8286	584239	0	0
2024-06-03 10:52:32			0	37425	0	0	0	22724	21340	136191	27412	996212	40925	108364	0	0	8285	584787	0	0
2024-06-03 10:53:32			0	37429	0	0	0	22711	21320	136247	27076	996124	40923	108359	0	0	8286	584688	0	0
2024-06-03 10:54:32			0	37418	0	0	0	22714	21310	136215	27301	996063	40922	108360	0	0	8285	585170	0	0
2024-06-03 10:55:32			0	37392	0	0	0	22696	21310	136295	27124	996116	40912	108353	0	0	8284	586232	0	0
2024-06-03 10:56:32			0	37395	0	0	0	22696	21310	136335	26993	996063	40901	108353	0	0	8284	586110	0	0
2024-06-03 10:57:32			0	37378	0	0	0	22696	21310	136343	27410	996054	40922	108353	0	0	8283	586805	0	0
2024-06-03 10:58:32			0	37329	0	0	0	22696	21310	136499	27497	996134	40922	108353	0	0	8281	588812	0	0
2024-06-03 10:59:32			0	37267	0	0	0	22690	21310	136634	27438	996108	40922	108351	0	0	8278	591358	0	0
2024-06-03 11:00:32			0	36962	0	0	0	22698	21310	137854	27374	996054	40922	108354	0	0	8261	603988	0	0
2024-06-03 11:01:32			0	36436	0	0	0	22701	21300	139829	27422	996046	40922	108355	0	0	8234	626231	0	0
2024-06-03 11:02:32			0	36118	0	0	0	22711	21300	140969	27187	996099	40922	108359	0	0	8216	639927	0	0
2024-06-03 11:03:32			0	35892	0	0	0	22719	21310	141921	27206	996108	40912	108362	0	0	8204	649753	0	0
2024-06-03 11:04:32			0	35741	0	0	0	22716	21300	142508	27531	996099	40912	108361	0	0	8196	656438	0	0
2024-06-03 11:05:32			0	35644	0	0	0	22714	21300	142908	27367	996073	40922	108360	0	0	8191	660734	0	0
2024-06-03 11:06:32			0	35558	0	0	0	22722	21300	143172	27154	996099	40922	108363	0	0	8186	664561	0	0
2024-06-03 11:07:32			0	35528	0	0	0	22724	21310	143308	27088	996108	40912	108364	0	0	8185	665863	0	0
2024-06-03 11:08:32			0	35485	0	0	0	22735	21310	143544	27050	996089	40922	108368	0	0	8182	667785	0	0
2024-06-03 11:09:32			0	35468	0	0	0	22729	21310	143576	27351	996134	40933	108366	0	0	8181	668546	0	0
2024-06-03 11:10:32			0	35430	0	0	0	22745	21310	143768	27074	996169	40912	108372	0	0	8179	670249	0	0
2024-06-03 11:11:32			0	35417	0	0	0	22755	21320	143844	27074	996204	40923	108376	0	0	8178	670795	0	0
2024-06-03 11:12:32			0	35406	0	0	0	22758	21320	143820	27378	996213	40924	108377	0	0	8177	671289	0	0
2024-06-03 11:13:32			0	35384	0	0	0	22761	21320	143856	27286	996239	40924	108378	0	0	8176	672278	0	0
2024-06-03 11:14:32			0	35397	0	0	0	22758	21320	143876	27055	996266	40924	108377	0	0	8177	671694	0	0
2024-06-03 11:15:32			0	35379	0	0	0	22776	21340	144000	26861	996300	40926	108384	0	0	8176	672428	0	0
2024-06-03 11:16:32			0	35383	0	0	0	22784	21340	143848	27396	996318	40925	108387	0	0	8176	672248	0	0
2024-06-03 11:17:32			0	35407	0	0	0	22786	21340	143796	27102	996273	40937	108388	0	0	8177	671170	0	0
2024-06-03 11:18:32			0	35416	0	0	0	22789	21350	143804	27393	996335	40927	108389	0	0	8178	670728	0	0
2024-06-03 11:19:32			0	35411	0	0	0	22792	21350	143788	27175	996290	40927	108390	0	0	8177	670953	0	0
2024-06-03 11:20:32			0	35419	0	0	0	22786	21350	143820	27140	996343	40927	108388	0	0	8178	670594	0	0
2024-06-03 11:21:32			0	35426	0	0	0	22786	21360	143732	27298	996387	40939	108388	0	0	8178	670242	0	0
2024-06-03 11:22:32			0	35402	0	0	0	22797	21370	143772	27255	996422	40940	108392	0	0	8177	671282	0	0
2024-06-03 11:23:32			0	35414	0	0	0	22797	21370	143740	27156	996449	40928	108392	0	0	8177	670744	0	0
2024-06-03 11:24:32			0	35448	0	0	0	22807	21370	143768	27183	996395	40917	108396	0	0	8179	669219	0	0
2024-06-03 11:25:32			0	35425	0	0	0	22812	21370	143736	27345	996422	40940	108398	0	0	8178	670250	0	0
2024-06-03 11:26:32			0	35429	0	0	0	22818	21370	143688	27376	996457	40940	108400	0	0	8178	670071	0	0
2024-06-03 11:27:32			0	35428	0	0	0	22831	21380	143784	27341	996519	40940	108405	0	0	8178	670078	0	0
2024-06-03 11:28:32			0	35423	0	0	0	22836	21390	143756	27410	996589	40953	108407	0	0	8177	670265	0	0
2024-06-03 11:29:32			0	35383	0	0	0	22828	21380	143836	27282	996527	40918	108404	0	0	8175	672099	0	0
2024-06-03 11:30:32			0	35382	0	0	0	22838	21390	143896	27187	996597	40941	108408	0	0	8175	672106	0	0
2024-06-03 11:31:32			0	35392	0	0	0	22836	21400	143972	27306	996614	40931	108407	0	0	8176	671620	0	0
2024-06-03 11:32:32			0	35383	0	0	0	22851	21400	143960	27445	996614	40931	108413	0	0	8175	672024	0	0
2024-06-03 11:33:32			0	35401	0	0	0	22851	21410	143952	27358	996596	40943	108413	0	0	8176	671178	0	0
2024-06-03 11:34:32			0	35360	0	0	0	22854	21400	144068	27453	996561	40931	108414	0	0	8174	673058	0	0
2024-06-03 11:35:32			0	35359	0	0	0	22862	21410	144096	27352	996649	40932	108417	0	0	8173	673066	0	0
2024-06-03 11:36:32			0	35331	0	0	0	22854	21420	144128	27308	996666	40933	108414	0	0	8172	674289	0	0
2024-06-03 11:37:32			0	35337	0	0	0	22864	21430	144180	27227	996709	40945	108418	0	0	8172	673982	0	0
2024-06-03 11:38:32			0	35290	0	0	0	22870	21420	144264	27293	996719	40933	108420	0	0	8170	676139	0	0
2024-06-03 11:39:32			0	35291	0	0	0	22880	21430	144316	27097	996709	40934	108424	0	0	8170	676056	0	0
2024-06-03 11:40:32			0	35296	0	0	0	22875	21430	144312	27306	996763	40922	108422	0	0	8170	675830	0	0
2024-06-03 11:41:32			0	35295	0	0	0	22877	21440	144240	27308	996745	40935	108423	0	0	8170	675838	0	0
2024-06-03 11:42:32			0	35301	0	0	0	22872	21440	144332	27353	996726	40935	108421	0	0	8170	675567	0	0
2024-06-03 11:43:32			0	35283	0	0	0	22877	21440	144300	27086	996806	40935	108423	0	0	8169	676380	0	0
2024-06-03 11:44:32			0	35296	0	0	0	22883	21440	144256	27415	996771	40946	108425	0	0	8170	675793	0	0
2024-06-03 11:45:32			0	35291	0	0	0	22880	21460	144352	27246	996832	40936	108424	0	0	8170	675943	0	0
2024-06-03 11:46:32			0	35259	0	0	0	22888	21460	144388	27436	996787	40936	108427	0	0	8168	677389	0	0
2024-06-03 11:47:32			0	35279	0	0	0	22896	21460	144372	27228	996779	40948	108430	0	0	8169	676485	0	0
2024-06-03 11:48:32			0	35263	0	0	0	22903	21470	144476	27034	996822	40948	108433	0	0	8168	677170	0	0
2024-06-03 11:49:32			0	35273	0	0	0	22901	21470	144464	27229	996795	40948	108432	0	0	8168	676719	0	0
2024-06-03 11:50:32			0	35270	0	0	0	22909	21460	144420	27391	996840	40948	108435	0	0	8168	676892	0	0
2024-06-03 11:51:32			0	35263	0	0	0	22911	21470	144320	27326	996849	40948	108436	0	0	8168	677170	0	0
2024-06-03 11:52:32			0	35287	0	0	0	22914	21470	144340	27196	996884	40959	108437	0	0	8169	676086	0	0
2024-06-03 11:53:32			0	35315	0	0	0	22922	21480	144200	27312	996972	40949	108440	0	0	8170	674786	0	0
2024-06-03 11:54:32			0	35295	0	0	0	22927	21480	144312	27424	997034	40950	108442	0	0	8169	675688	0	0
2024-06-03 11:55:32			0	35319	0	0	0	22942	21490	144172	27235	997015	40950	108448	0	0	8170	674568	0	0
2024-06-03 11:56:32			0	35332	0	0	0	22935	21480	144184	27535	997007	40950	108445	0	0	8171	674020	0	0
2024-06-03 11:57:32			0	35342	0	0	0	22935	21500	144016	27173	997041	40952	108445	0	0	8172	673494	0	0
2024-06-03 11:58:32			0	35364	0	0	0	22958	21510	144008	27341	997138	40952	108454	0	0	8173	672467	0	0
2024-06-03 11:59:32			0	35364	0	0	0	22974	21510	143980	27272	997138	40952	108460	0	0	8172	672467	0	0
2024-06-03 12:00:32			0	35369	0	0	0	22971	21510	143936	27199	997111	40952	108459	0	0	8173	672243	0	0
2024-06-03 12:01:32			0	35367	0	0	0	22961	21520	143896	27293	997128	40943	108455	0	0	8173	672295	0	0
2024-06-03 12:02:32			0	35372	0	0	0	22971	21530	144012	27322	997189	40964	108459	0	0	8173	672033	0	0
2024-06-03 12:03:32			0	35364	0	0	0	22963	21510	144044	27327	997164	40952	108456	0	0	8172	672467	0	0
2024-06-03 12:04:32			0	35336	0	0	0	22968	21540	144032	27360	997241	40956	108458	0	0	8171	673615	0	0
2024-06-03 12:05:32			0	35346	0	0	0	22981	21530	144036	27455	997251	40964	108463	0	0	8171	673202	0	0
2024-06-03 12:06:32			0	35332	0	0	0	22994	21540	144040	27275	997215	40977	108468	0	0	8170	673795	0	0
2024-06-03 12:07:32			0	35328	0	0	0	23005	21550	144120	27267	997311	40957	108472	0	0	8170	673938	0	0
2024-06-03 12:08:32			0	35344	0	0	0	23007	21550	144092	27178	997303	40957	108473	0	0	8171	673217	0	0
2024-06-03 12:09:32			0	35345	0	0	0	23023	21560	144008	27275	997347	40957	108479	0	0	8171	673135	0	0
2024-06-03 12:10:32			0	35352	0	0	0	23018	21570	144132	27286	997337	40969	108477	0	0	8171	672782	0	0
2024-06-03 12:11:32			0	35345	0	0	0	23007	21570	143972	27455	997452	40969	108473	0	0	8171	673097	0	0
2024-06-03 12:12:32			0	35353	0	0	0	23020	21570	143952	27562	997372	40969	108478	0	0	8171	672738	0	0
2024-06-03 12:13:32			0	35346	0	0	0	23018	21580	143976	27216	997389	40970	108477	0	0	8171	673015	0	0
2024-06-03 12:14:32			0	35323	0	0	0	23020	21580	144160	27436	997354	40947	108478	0	0	8170	674050	0	0
2024-06-03 12:15:32			0	35313	0	0	0	23028	21590	144200	27464	997371	40959	108481	0	0	8169	674463	0	0
2024-06-03 12:16:32			0	35303	0	0	0	23020	21580	144140	27275	997362	40970	108478	0	0	8169	674951	0	0
2024-06-03 12:17:32			0	35286	0	0	0	23038	21590	144228	27253	997398	40959	108485	0	0	8167	675680	0	0
2024-06-03 12:18:32			0	35265	0	0	0	23036	21600	144360	27531	997494	40959	108484	0	0	8166	676591	0	0
2024-06-03 12:19:32			0	35258	0	0	0	23020	21600	144288	27248	997494	40949	108478	0	0	8166	676907	0	0
2024-06-03 12:20:32			0	35256	0	0	0	23036	21600	144336	27355	997556	40971	108484	0	0	8166	676997	0	0
2024-06-03 12:21:32			0	35259	0	0	0	23049	21600	144360	27331	997556	40950	108489	0	0	8166	676862	0	0
2024-06-03 12:22:32			0	35263	0	0	0	23057	21610	144384	27168	997573	40962	108492	0	0	8166	676643	0	0
2024-06-03 12:23:32			0	35241	0	0	0	23046	21610	144396	27017	997538	40972	108488	0	0	8165	677637	0	0
2024-06-03 12:24:32			0	35251	0	0	0	23036	21620	144364	27116	997528	40962	108484	0	0	8166	677148	0	0
2024-06-03 12:25:32			0	35241	0	0	0	23044	21610	144308	27232	997520	40973	108487	0	0	8165	677637	0	0
2024-06-03 12:26:32			0	35261	0	0	0	23054	21620	144320	27327	997608	40962	108491	0	0	8166	676696	0	0
2024-06-03 12:27:32			0	35269	0	0	0	23049	21630	144324	27246	997598	40974	108489	0	0	8166	676297	0	0
2024-06-03 12:28:32			0	35234	0	0	0	23067	21630	144436	27533	997553	40964	108496	0	0	8164	677879	0	0
2024-06-03 12:29:32			0	35226	0	0	0	23059	21630	144312	27746	997633	40975	108493	0	0	8164	678240	0	0
2024-06-03 12:30:32			0	35245	0	0	0	23064	21630	144360	27069	997678	40963	108495	0	0	8165	677381	0	0
2024-06-03 12:31:32			0	35230	0	0	0	23070	21640	144328	27166	997703	40964	108497	0	0	8164	678022	0	0
2024-06-03 12:32:32			0	35252	0	0	0	23083	21640	144360	27109	997668	40964	108502	0	0	8165	677027	0	0
2024-06-03 12:33:32			0	35264	0	0	0	23111	21640	144384	27138	997721	40975	108513	0	0	8165	676485	0	0
2024-06-03 12:34:32			0	35277	0	0	0	23103	21650	144296	27417	997765	40965	108510	0	0	8166	675861	0	0
2024-06-03 12:35:32			0	35285	0	0	0	23119	21660	144088	27587	997764	40977	108516	0	0	8166	675462	0	0
2024-06-03 12:36:32			0	35323	0	0	0	23111	21650	144032	27066	997800	40965	108513	0	0	8168	673788	0	0
2024-06-03 12:37:32			0	35343	0	0	0	23127	21670	143956	27426	997860	40978	108519	0	0	8169	672813	0	0
2024-06-03 12:38:32			0	35357	0	0	0	23111	21680	143848	27209	997824	40968	108513	0	0	8170	672146	0	0
2024-06-03 12:39:32			0	35378	0	0	0	23119	21680	143888	27320	997816	40978	108516	0	0	8171	671203	0	0
2024-06-03 12:40:32			0	35371	0	0	0	23137	21690	143828	27107	997833	40979	108523	0	0	8171	671480	0	0
2024-06-03 12:41:32			0	35352	0	0	0	23119	21690	143828	27079	997912	40991	108516	0	0	8170	672333	0	0
2024-06-03 12:42:32			0	35370	0	0	0	23129	21690	143868	27104	997894	40980	108520	0	0	8171	671525	0	0
2024-06-03 12:43:32			0	35380	0	0	0	23122	21690	143832	27576	997894	40980	108517	0	0	8171	671076	0	0
2024-06-03 12:44:32			0	35382	0	0	0	23140	21710	143848	27241	997920	40970	108524	0	0	8171	670911	0	0
2024-06-03 12:45:32			0	35385	0	0	0	23148	21700	143836	27348	997983	40980	108527	0	0	8171	670814	0	0
2024-06-03 12:46:32			0	35406	0	0	0	23158	21720	143776	27306	998008	40982	108531	0	0	8172	669798	0	0
2024-06-03 12:47:32			0	35438	0	0	0	23174	21720	143692	27168	998008	41004	108537	0	0	8174	668365	0	0
2024-06-03 12:48:32			0	35446	0	0	0	23176	21720	143672	27287	998097	40994	108538	0	0	8174	668007	0	0
2024-06-03 12:49:32			0	35425	0	0	0	23184	21720	143460	27111	998017	40983	108541	0	0	8173	668947	0	0
2024-06-03 12:50:32			0	35440	0	0	0	23181	21730	143544	27090	998132	40983	108540	0	0	8174	668238	0	0
2024-06-03 12:51:32			0	35439	0	0	0	23202	21740	143556	27438	998175	40984	108548	0	0	8174	668246	0	0
2024-06-03 12:52:32			0	35473	0	0	0	23223	21750	143492	27255	998174	40974	108556	0	0	8175	666689	0	0
2024-06-03 12:53:32			0	35491	0	0	0	23210	21750	143400	27348	998227	40986	108551	0	0	8176	665885	0	0
2024-06-03 12:54:32			0	35520	0	0	0	23184	21750	143320	27535	998227	40997	108541	0	0	8178	664592	0	0
2024-06-03 12:55:32			0	35521	0	0	0	23205	21770	143140	27421	998226	40964	108549	0	0	8178	664473	0	0
2024-06-03 12:56:32			0	35519	0	0	0	23212	21770	143112	27336	998234	40987	108552	0	0	8178	664563	0	0
2024-06-03 12:57:32			0	35559	0	0	0	23161	21770	143128	27034	998261	40976	108532	0	0	8181	662782	0	0
2024-06-03 12:58:32			0	35569	0	0	0	23192	21770	142952	27421	998146	40975	108544	0	0	8181	662337	0	0
2024-06-03 12:59:32			0	35577	0	0	0	23140	21780	142928	27478	998269	40976	108524	0	0	8182	661945	0	0
2024-06-03 13:00:32			0	35541	0	0	0	23161	21780	143076	27093	998190	40976	108532	0	0	8180	663546	0	0
2024-06-03 13:01:32			0	35549	0	0	0	23189	21770	143080	27144	998119	40975	108543	0	0	8180	663227	0	0
2024-06-03 13:02:32			0	35514	0	0	0	23163	21770	143224	26961	998119	40987	108533	0	0	8178	664785	0	0
2024-06-03 13:03:32			0	35529	0	0	0	23176	21780	143236	27500	998145	40977	108538	0	0	8179	664080	0	0
2024-06-03 13:04:32			0	35484	0	0	0	23176	21760	143396	27324	998191	40975	108538	0	0	8177	666160	0	0
2024-06-03 13:05:32			0	35427	0	0	0	23176	21770	143556	27383	998226	40975	108538	0	0	8173	668671	0	0
2024-06-03 13:06:32			0	35379	0	0	0	23176	21770	143800	27222	998146	40987	108538	0	0	8171	670822	0	0
2024-06-03 13:07:32			0	35389	0	0	0	23158	21760	143852	27206	998138	40987	108531	0	0	8172	670411	0	0
2024-06-03 13:08:32			0	35385	0	0	0	23181	21770	143780	27187	998208	40976	108540	0	0	8171	670553	0	0
2024-06-03 13:09:32			0	35381	0	0	0	23199	21760	143764	27228	998164	40987	108547	0	0	8171	670770	0	0
2024-06-03 13:10:32			0	35367	0	0	0	23174	21760	143760	27152	998156	40986	108537	0	0	8170	671398	0	0
2024-06-03 13:11:32			0	35371	0	0	0	23161	21760	143788	27185	998138	40975	108532	0	0	8171	671218	0	0
2024-06-03 13:12:32			0	35411	0	0	0	23186	21760	143708	27156	998138	40975	108542	0	0	8172	669425	0	0
2024-06-03 13:13:32			0	35402	0	0	0	23197	21760	143684	27150	998217	40975	108546	0	0	8172	669828	0	0
2024-06-03 13:14:32			0	35387	0	0	0	23181	21770	143704	27286	998208	40976	108540	0	0	8171	670463	0	0
2024-06-03 13:15:32			0	35366	0	0	0	23179	21770	143940	27171	998208	40976	108539	0	0	8170	671405	0	0
2024-06-03 13:16:32			0	35340	0	0	0	23184	21780	143904	27182	998243	40976	108541	0	0	8169	672536	0	0
2024-06-03 13:17:32			0	35320	0	0	0	23202	21770	144028	27390	998208	40987	108548	0	0	8167	673473	0	0
2024-06-03 13:18:32			0	35334	0	0	0	23215	21790	144020	26894	998313	40966	108553	0	0	8168	672768	0	0
2024-06-03 13:19:32			0	35333	0	0	0	23215	21790	144048	27133	998188	40989	108553	0	0	8168	672813	0	0
2024-06-03 13:20:32			0	35326	0	0	0	23215	21780	144124	27462	998376	40987	108553	0	0	8167	673165	0	0
2024-06-03 13:21:32			0	35314	0	0	0	23225	21790	144064	27504	998375	40989	108557	0	0	8167	673668	0	0
2024-06-03 13:22:32			0	35309	0	0	0	23246	21790	144092	27119	998401	40989	108565	0	0	8166	673893	0	0
2024-06-03 13:23:32			0	35298	0	0	0	23262	21790	144076	27168	998481	41000	108571	0	0	8165	674388	0	0
2024-06-03 13:24:32			0	35276	0	0	0	23290	21800	144120	27204	998525	41012	108582	0	0	8163	675342	0	0
2024-06-03 13:25:32			0	35309	0	0	0	23293	21820	144076	27286	998550	40992	108583	0	0	8165	673780	0	0
2024-06-03 13:26:32			0	35293	0	0	0	23329	21830	144112	27300	998602	41003	108597	0	0	8164	674463	0	0
2024-06-03 13:27:32			0	35312	0	0	0	23350	21840	143996	27414	998664	40982	108605	0	0	8165	673570	0	0
2024-06-03 13:28:32			0	35308	0	0	0	23363	21850	143988	27144	998734	41005	108610	0	0	8164	673713	0	0
2024-06-03 13:29:32			0	35339	0	0	0	23366	21870	143964	27076	998741	41007	108611	0	0	8166	672244	0	0
2024-06-03 13:30:32			0	35367	0	0	0	23368	21870	143756	27133	998830	41007	108612	0	0	8167	670987	0	0
2024-06-03 13:31:32			0	35377	0	0	0	23389	21880	143692	27131	998846	41008	108620	0	0	8168	670501	0	0
2024-06-03 13:32:32			0	35398	0	0	0	23420	21900	143544	27317	998952	41021	108632	0	0	8168	669485	0	0
2024-06-03 13:33:32			0	35424	0	0	0	23373	21900	143468	27090	998960	41021	108614	0	0	8171	668321	0	0
2024-06-03 13:34:32			0	35460	0	0	0	23329	21910	143300	27100	998871	41000	108597	0	0	8173	666675	0	0
2024-06-03 13:35:32			0	35500	0	0	0	23355	21910	143180	27260	998915	40989	108607	0	0	8175	664891	0	0
2024-06-03 13:36:32			0	35462	0	0	0	23394	21920	143272	27313	998994	41001	108622	0	0	8172	666549	0	0
2024-06-03 13:37:32			0	35438	0	0	0	23428	21920	143464	27256	999021	41012	108635	0	0	8170	667621	0	0
2024-06-03 13:38:32			0	35393	0	0	0	23425	21940	143596	27060	999108	41014	108634	0	0	8168	669560	0	0
2024-06-03 13:39:32			0	35351	0	0	0	23355	21950	143816	27260	999036	41015	108607	0	0	8167	671405	0	0
2024-06-03 13:40:32			0	35329	0	0	0	23358	21940	143868	27270	999028	41003	108608	0	0	8166	672431	0	0
2024-06-03 13:41:32			0	35324	0	0	0	23311	21940	143860	26965	998921	41003	108590	0	0	8166	672655	0	0
2024-06-03 13:42:32			0	35358	0	0	0	23324	21940	143808	27092	998913	41013	108595	0	0	8168	671129	0	0
2024-06-03 13:43:32			0	35438	0	0	0	23301	21930	143372	27267	998896	40991	108586	0	0	8173	667584	0	0
2024-06-03 13:44:32			0	35484	0	0	0	23288	21920	143240	27126	998861	41001	108581	0	0	8175	665567	0	0
2024-06-03 13:45:32			0	35488	0	0	0	23296	21920	143212	27367	998773	41000	108584	0	0	8175	665389	0	0
2024-06-03 13:46:32			0	35499	0	0	0	23298	21920	143164	27296	998852	41000	108585	0	0	8176	664898	0	0
2024-06-03 13:47:32			0	35522	0	0	0	23309	21910	143156	27251	998817	40990	108589	0	0	8177	663911	0	0
2024-06-03 13:48:32			0	35501	0	0	0	23309	21920	143152	27254	998879	41000	108589	0	0	8176	664809	0	0
2024-06-03 13:49:32			0	35459	0	0	0	23327	21910	143228	27339	998844	40990	108596	0	0	8173	666720	0	0
2024-06-03 13:50:32			0	35410	0	0	0	23332	21920	143476	27020	998879	41000	108598	0	0	8171	668873	0	0
2024-06-03 13:51:32			0	35376	0	0	0	23342	21920	143668	27251	998914	41012	108602	0	0	8169	670396	0	0
2024-06-03 13:52:32			0	35323	0	0	0	23361	21920	143940	27216	998906	41011	108609	0	0	8165	672775	0	0
2024-06-03 13:53:32			0	35269	0	0	0	23397	21930	144124	27183	998976	41002	108623	0	0	8162	675168	0	0
2024-06-03 13:54:32			0	35233	0	0	0	23392	21940	144212	26733	999046	41002	108621	0	0	8160	676754	0	0
2024-06-03 13:55:32			0	35184	0	0	0	23420	21940	144384	27377	999108	41025	108632	0	0	8157	678969	0	0
2024-06-03 13:56:32			0	35184	0	0	0	23433	21960	144500	27305	999213	41026	108637	0	0	8157	678894	0	0
2024-06-03 13:57:32			0	35156	0	0	0	23444	21960	144620	27287	999222	41016	108641	0	0	8155	680162	0	0
2024-06-03 13:58:32			0	35130	0	0	0	23454	21980	144704	27116	999247	41016	108645	0	0	8154	681264	0	0
2024-06-03 13:59:32			0	35121	0	0	0	23454	21980	144700	27031	999300	41028	108645	0	0	8153	681673	0	0
2024-06-03 14:00:32			0	35118	0	0	0	23477	21990	144652	27362	999317	41018	108654	0	0	8153	681771	0	0
2024-06-03 14:01:32			0	35115	0	0	0	23472	22000	144692	27052	999414	41019	108652	0	0	8153	681869	0	0
2024-06-03 14:02:32			0	35118	0	0	0	23454	22010	144703	27281	999343	41019	108645	0	0	8153	681695	0	0
2024-06-03 14:03:32			0	35131	0	0	0	23449	22010	144616	27365	999325	41020	108643	0	0	8154	681105	0	0
2024-06-03 14:04:32			0	35149	0	0	0	23438	22020	144564	27216	999368	41021	108639	0	0	8155	680251	0	0
2024-06-03 14:05:32			0	35168	0	0	0	23425	22020	144528	27319	999341	40999	108634	0	0	8156	679391	0	0
2024-06-03 14:06:32			0	35172	0	0	0	23402	22010	144392	27123	999298	41009	108625	0	0	8157	679247	0	0
2024-06-03 14:07:32			0	35163	0	0	0	23420	22020	144508	27254	999288	41021	108632	0	0	8156	679617	0	0
2024-06-03 14:08:32			0	35143	0	0	0	23428	22020	144608	27124	999360	41021	108635	0	0	8155	680523	0	0
2024-06-03 14:09:32			0	35138	0	0	0	23425	22010	144572	26743	999298	41031	108634	0	0	8155	680788	0	0
2024-06-03 14:10:32			0	35113	0	0	0	23444	22020	144511	27076	999341	41021	108641	0	0	8153	681884	0	0
2024-06-03 14:11:32			0	35105	0	0	0	23449	22020	144675	27118	999360	41021	108643	0	0	8152	682247	0	0
2024-06-03 14:12:32			0	35129	0	0	0	23433	22020	144660	27350	999368	41010	108637	0	0	8154	681158	0	0
2024-06-03 14:13:32			0	35112	0	0	0	23420	22030	144615	27334	999377	41021	108632	0	0	8153	681891	0	0
2024-06-03 14:14:32			0	35120	0	0	0	23449	22020	144696	27296	999421	41010	108643	0	0	8153	681566	0	0
2024-06-03 14:15:32			0	35123	0	0	0	23467	22040	144664	27365	999527	41023	108650	0	0	8153	681354	0	0
2024-06-03 14:16:32			0	35116	0	0	0	23490	22040	144675	27379	999535	41011	108659	0	0	8152	681672	0	0
2024-06-03 14:17:32			0	35123	0	0	0	23493	22050	144684	27324	999517	41034	108660	0	0	8153	681316	0	0
2024-06-03 14:18:32			0	35135	0	0	0	23498	22060	144628	27336	999587	41036	108662	0	0	8153	680734	0	0
2024-06-03 14:19:32			0	35131	0	0	0	23446	22060	144592	27526	999489	41025	108642	0	0	8154	680915	0	0
2024-06-03 14:20:32			0	35172	0	0	0	23327	22050	144504	27338	999357	41000	108596	0	0	8158	679096	0	0
2024-06-03 14:21:32			0	35212	0	0	0	23311	22040	144168	27294	999260	41000	108590	0	0	8161	677325	0	0
2024-06-03 14:22:32			0	35318	0	0	0	23368	22020	143976	27253	999306	41010	108612	0	0	8165	672625	0	0
2024-06-03 14:23:32			0	35349	0	0	0	23389	22030	143748	27131	999297	41021	108620	0	0	8167	671196	0	0
2024-06-03 14:24:32			0	35382	0	0	0	23371	22030	143704	27211	999350	41021	108613	0	0	8169	669716	0	0
2024-06-03 14:25:32			0	35401	0	0	0	23418	22020	143576	27464	999395	41021	108631	0	0	8169	668903	0	0
2024-06-03 14:26:32			0	35413	0	0	0	23402	22030	143504	27133	999385	41033	108625	0	0	8170	668329	0	0
2024-06-03 14:27:32			0	35445	0	0	0	23423	22040	143376	27124	999527	41023	108633	0	0	8171	666862	0	0
2024-06-03 14:28:32			0	35440	0	0	0	23438	22050	143244	26977	999525	41012	108639	0	0	8171	667048	0	0
2024-06-03 14:29:32			0	35475	0	0	0	23459	22060	143288	27282	999587	41024	108647	0	0	8173	665449	0	0
2024-06-03 14:30:32			0	35486	0	0	0	23436	22070	143172	27109	999604	41014	108638	0	0	8174	664922	0	0
2024-06-03 14:31:32			0	35517	0	0	0	23431	22060	143040	26963	999596	41014	108636	0	0	8175	663579	0	0
2024-06-03 14:32:32			0	35547	0	0	0	23459	22070	142864	27003	999604	41025	108647	0	0	8177	662208	0	0
2024-06-03 14:33:32			0	35576	0	0	0	23431	22070	142820	27293	999524	41025	108636	0	0	8179	660920	0	0
2024-06-03 14:34:32			0	35623	0	0	0	23399	22070	142656	27144	999453	41014	108624	0	0	8182	658838	0	0
2024-06-03 14:35:32			0	35661	0	0	0	23371	22060	142464	27000	999374	41002	108613	0	0	8184	657194	0	0
2024-06-03 14:36:32			0	35700	0	0	0	23319	22040	142272	27133	999295	41000	108593	0	0	8187	655546	0	0
2024-06-03 14:37:32			0	35718	0	0	0	23288	22030	142124	27057	999199	40989	108581	0	0	8188	654789	0	0
2024-06-03 14:38:32			0	35723	0	0	0	23335	22020	142164	27190	999235	40999	108599	0	0	8188	654605	0	0
2024-06-03 14:39:32			0	35727	0	0	0	23425	22030	142136	26984	999297	40999	108634	0	0	8187	654393	0	0
2024-06-03 14:40:32			0	35692	0	0	0	23420	22030	142224	27203	999350	41021	108632	0	0	8185	655936	0	0
2024-06-03 14:41:32			0	35697	0	0	0	23433	22030	142384	27208	999358	41000	108637	0	0	8185	655715	0	0
2024-06-03 14:42:32			0	35674	0	0	0	23412	22030	142396	27388	999430	41010	108629	0	0	8184	656730	0	0
2024-06-03 14:43:32			0	35673	0	0	0	23397	22030	142344	27381	999430	41010	108623	0	0	8184	656774	0	0
2024-06-03 14:44:32			0	35665	0	0	0	23405	22020	142436	27059	999341	40999	108626	0	0	8184	657164	0	0
2024-06-03 14:45:32			0	35629	0	0	0	23392	22030	142436	27152	999385	40989	108621	0	0	8182	658719	0	0
2024-06-03 14:46:32			0	35629	0	0	0	23381	22030	142616	27256	999297	40999	108617	0	0	8182	658719	0	0
2024-06-03 14:47:32			0	35577	0	0	0	23371	22020	142728	27327	999306	41021	108613	0	0	8179	661060	0	0
2024-06-03 14:48:32			0	35535	0	0	0	23366	22020	142924	27452	999333	40999	108611	0	0	8177	662926	0	0
2024-06-03 14:49:32			0	35478	0	0	0	23373	22030	143112	27190	999350	41010	108614	0	0	8174	665426	0	0
2024-06-03 14:50:32			0	35466	0	0	0	23371	22010	143256	27069	999245	41009	108613	0	0	8173	666036	0	0
2024-06-03 14:51:32			0	35435	0	0	0	23363	22020	143440	27206	999280	41010	108610	0	0	8172	667383	0	0
2024-06-03 14:52:32			0	35407	0	0	0	23363	22020	143464	26987	999288	41010	108610	0	0	8170	668634	0	0
2024-06-03 14:53:32			0	35378	0	0	0	23358	22000	143492	26941	999228	41008	108608	0	0	8169	670008	0	0
2024-06-03 14:54:32			0	35386	0	0	0	23366	22010	143616	27154	999289	41008	108611	0	0	8169	669612	0	0
2024-06-03 14:55:32			0	35363	0	0	0	23379	22010	143584	27144	999263	40998	108616	0	0	8168	670643	0	0
2024-06-03 14:56:32			0	35366	0	0	0	23373	22010	143632	27305	999316	41030	108614	0	0	8168	670508	0	0
2024-06-03 14:57:32			0	35368	0	0	0	23381	22000	143552	27078	999228	41008	108617	0	0	8168	670456	0	0
2024-06-03 14:58:32			0	35358	0	0	0	23381	22010	143600	27369	999298	41009	108617	0	0	8167	670867	0	0
2024-06-03 14:59:32			0	35359	0	0	0	23392	22010	143716	27109	999316	40998	108621	0	0	8167	670822	0	0
2024-06-03 15:00:32			0	35369	0	0	0	23392	22010	143744	27410	999289	40998	108621	0	0	8168	670374	0	0
2024-06-03 15:01:32			0	35372	0	0	0	23394	22010	143700	27218	999298	41009	108622	0	0	8168	670239	0	0
2024-06-03 15:02:32			0	35355	0	0	0	23412	22010	143676	26930	999404	41009	108629	0	0	8167	671002	0	0
2024-06-03 15:03:32			0	35348	0	0	0	23418	22020	143728	27072	999395	41032	108631	0	0	8166	671278	0	0
2024-06-03 15:04:32			0	35330	0	0	0	23425	22020	143740	27306	999448	41010	108634	0	0	8165	672086	0	0
2024-06-03 15:05:32			0	35317	0	0	0	23431	22030	143828	27222	999492	41022	108636	0	0	8164	672632	0	0
2024-06-03 15:06:32			0	35322	0	0	0	23449	22040	143920	26902	999500	41011	108643	0	0	8164	672371	0	0
2024-06-03 15:07:32			0	35305	0	0	0	23441	22030	143880	27237	999465	41011	108640	0	0	8164	673172	0	0
2024-06-03 15:08:32			0	35298	0	0	0	23405	22040	143908	27251	999482	41011	108626	0	0	8164	673449	0	0
2024-06-03 15:09:32			0	35301	0	0	0	23361	22040	143832	27166	999393	40990	108609	0	0	8165	673314	0	0
2024-06-03 15:10:32			0	35339	0	0	0	23335	22030	143744	27083	999305	41000	108599	0	0	8167	671645	0	0
2024-06-03 15:11:32			0	35377	0	0	0	23337	22020	143524	27039	999235	40999	108600	0	0	8169	669978	0	0
2024-06-03 15:12:32			0	35436	0	0	0	23329	22010	143372	27386	999271	40998	108597	0	0	8172	667375	0	0
2024-06-03 15:13:32			0	35479	0	0	0	23324	22000	143144	27261	999201	40998	108595	0	0	8175	665493	0	0
2024-06-03 15:14:32			0	35521	0	0	0	23329	22000	143000	27313	999174	41008	108597	0	0	8177	663622	0	0
2024-06-03 15:15:32			0	35540	0	0	0	23322	21990	142872	27275	999184	40997	108594	0	0	8178	662814	0	0
2024-06-03 15:16:32			0	35586	0	0	0	23348	21980	142860	27048	999167	41016	108604	0	0	8180	660809	0	0
2024-06-03 15:17:32			0	35611	0	0	0	23353	21980	142716	27114	999141	41005	108606	0	0	8181	659700	0	0
2024-06-03 15:18:32			0	35626	0	0	0	23358	22000	142544	26845	999228	41008	108608	0	0	8182	658962	0	0
2024-06-03 15:19:32			0	35669	0	0	0	23358	21990	142500	27256	999219	40998	108608	0	0	8184	657098	0	0
2024-06-03 15:20:32			0	35696	0	0	0	23358	21990	142348	27530	999246	41008	108608	0	0	8186	655906	0	0
2024-06-03 15:21:32			0	35738	0	0	0	23368	22000	142260	27357	999228	41008	108612	0	0	8188	654018	0	0
2024-06-03 15:22:32			0	35773	0	0	0	23368	21990	142156	27424	999264	40985	108612	0	0	8190	652515	0	0
2024-06-03 15:23:32			0	35804	0	0	0	23366	22000	141800	27229	999281	40998	108611	0	0	8192	651117	0	0
2024-06-03 15:24:32			0	35841	0	0	0	23363	21990	141740	27362	999246	40998	108610	0	0	8194	649530	0	0
2024-06-03 15:25:32			0	35872	0	0	0	23363	22000	141641	27460	999254	41008	108610	0	0	8195	648137	0	0
2024-06-03 15:26:32			0	35915	0	0	0	23361	21990	141513	27357	999264	41018	108609	0	0	8198	646294	0	0
2024-06-03 15:27:32			0	35936	0	0	0	23366	21990	141405	27109	999291	40997	108611	0	0	8199	645378	0	0
2024-06-03 15:28:32			0	35969	0	0	0	23368	21990	141313	27381	999246	40998	108612	0	0	8200	643940	0	0
2024-06-03 15:29:32			0	35975	0	0	0	23353	22010	141233	27305	999236	40998	108606	0	0	8201	643607	0	0
2024-06-03 15:30:32			0	36042	0	0	0	23340	21990	140973	27511	999219	40986	108601	0	0	8205	640767	0	0
2024-06-03 15:31:32			0	36055	0	0	0	23337	21990	140841	27067	999158	40997	108600	0	0	8205	640203	0	0
2024-06-03 15:32:32			0	36083	0	0	0	23337	21990	140829	27241	999184	40997	108600	0	0	8207	638990	0	0
2024-06-03 15:33:32			0	36113	0	0	0	23327	21990	140613	27196	999193	41008	108596	0	0	8209	637691	0	0
2024-06-03 15:34:32			0	36140	0	0	0	23335	21990	140597	27358	999184	40997	108599	0	0	8210	636525	0	0
2024-06-03 15:35:32			0	36151	0	0	0	23340	21990	140529	27454	999193	40998	108601	0	0	8211	636050	0	0
2024-06-03 15:36:32			0	36187	0	0	0	23342	21990	140349	27024	999158	40997	108602	0	0	8212	634497	0	0
2024-06-03 15:37:32			0	36196	0	0	0	23342	21980	140321	27175	999176	40985	108602	0	0	8213	634145	0	0
2024-06-03 15:38:32			0	36211	0	0	0	23345	22000	140293	27365	999174	41008	108603	0	0	8214	633428	0	0
2024-06-03 15:39:32			0	36227	0	0	0	23329	21990	140237	27215	999184	40997	108597	0	0	8215	632775	0	0
2024-06-03 15:40:32			0	36230	0	0	0	23322	21980	140205	27145	999167	40984	108594	0	0	8215	632682	0	0
2024-06-03 15:41:32			0	36264	0	0	0	23306	21990	140225	27455	999158	40997	108588	0	0	8217	631185	0	0
2024-06-03 15:42:32			0	36282	0	0	0	23290	21980	140013	27260	999114	40995	108582	0	0	8218	630448	0	0
2024-06-03 15:43:32			0	36304	0	0	0	23288	21970	140009	27183	999070	40972	108581	0	0	8219	629540	0	0
2024-06-03 15:44:32			0	36298	0	0	0	23264	21970	139997	27003	999070	40995	108572	0	0	8220	629797	0	0
2024-06-03 15:45:32			0	36293	0	0	0	23249	21960	139841	26948	998982	40994	108566	0	0	8220	630047	0	0
2024-06-03 15:46:32			0	36305	0	0	0	23194	21950	139809	27345	998903	40982	108545	0	0	8221	629567	0	0
2024-06-03 15:47:32			0	36329	0	0	0	23186	21940	139857	27000	998860	40969	108542	0	0	8222	628574	0	0
2024-06-03 15:48:32			0	36357	0	0	0	23174	21940	139777	27183	998780	40969	108537	0	0	8224	627377	0	0
2024-06-03 15:49:32			0	36374	0	0	0	23155	21920	139641	26994	998746	40978	108530	0	0	8225	626720	0	0
2024-06-03 15:50:32			0	36385	0	0	0	23132	21910	139629	27263	998649	40956	108521	0	0	8226	626285	0	0
2024-06-03 15:51:32			0	36423	0	0	0	23124	21890	139549	27069	998517	40964	108518	0	0	8228	624733	0	0
2024-06-03 15:52:32			0	36448	0	0	0	23103	21890	139429	27289	998509	40964	108510	0	0	8230	623668	0	0
2024-06-03 15:53:32			0	36438	0	0	0	23103	21860	139429	27367	998458	40951	108510	0	0	8229	624198	0	0
2024-06-03 15:54:32			0	36451	0	0	0	23111	21860	139433	27046	998432	40962	108513	0	0	8230	623644	0	0
2024-06-03 15:55:32			0	36464	0	0	0	23101	21860	139357	27196	998405	40962	108509	0	0	8231	623091	0	0
2024-06-03 15:56:32			0	36415	0	0	0	23096	21840	139477	27274	998344	40960	108507	0	0	8228	625248	0	0
2024-06-03 15:57:32			0	36403	0	0	0	23088	21830	139605	27251	998336	40949	108504	0	0	8228	625795	0	0
2024-06-03 15:58:32			0	36349	0	0	0	23077	21810	139845	27114	998267	40957	108500	0	0	8225	628173	0	0
2024-06-03 15:59:32			0	36326	0	0	0	23077	21810	139881	27066	998249	40958	108500	0	0	8224	629158	0	0
2024-06-03 16:00:32			0	36315	0	0	0	23064	21800	140057	27218	998197	40945	108495	0	0	8223	629665	0	0
2024-06-03 16:01:32			0	36296	0	0	0	23059	21780	140141	27211	998171	40956	108493	0	0	8222	630550	0	0
2024-06-03 16:02:32			0	36279	0	0	0	23051	21770	140169	27196	998128	40965	108490	0	0	8221	631315	0	0
2024-06-03 16:03:32			0	36298	0	0	0	23046	21760	140173	27138	998111	40954	108488	0	0	8222	630534	0	0
2024-06-03 16:04:32			0	36259	0	0	0	23046	21770	140173	27156	998093	40954	108488	0	0	8220	632175	0	0
2024-06-03 16:05:32			0	36295	0	0	0	23057	21760	140101	27336	998049	40942	108492	0	0	8222	630663	0	0
2024-06-03 16:06:32			0	36297	0	0	0	23049	21750	140125	27260	998014	40953	108489	0	0	8222	630612	0	0
2024-06-03 16:07:32			0	36302	0	0	0	23041	21750	140033	26937	998006	40952	108486	0	0	8223	630398	0	0
2024-06-03 16:08:32			0	36292	0	0	0	23044	21740	140117	27371	998015	40961	108487	0	0	8222	630862	0	0
2024-06-03 16:09:32			0	36312	0	0	0	23051	21740	140213	27215	998095	40940	108490	0	0	8223	630004	0	0
2024-06-03 16:10:32			0	36307	0	0	0	23054	21730	140161	27289	998078	40960	108491	0	0	8223	630253	0	0
2024-06-03 16:11:32			0	36301	0	0	0	23054	21730	140161	27124	998007	40960	108491	0	0	8222	630511	0	0
2024-06-03 16:12:32			0	36284	0	0	0	23051	21730	140097	27124	997972	40960	108490	0	0	8221	631241	0	0
2024-06-03 16:13:32			0	36284	0	0	0	23049	21730	140145	27235	997972	40950	108489	0	0	8221	631241	0	0
2024-06-03 16:14:32			0	36291	0	0	0	23038	21720	140241	27313	997955	40959	108485	0	0	8222	630975	0	0
2024-06-03 16:15:32			0	36274	0	0	0	23036	21710	140213	27220	997947	40937	108484	0	0	8221	631741	0	0
2024-06-03 16:16:32			0	36278	0	0	0	23038	21710	140185	27440	997920	40959	108485	0	0	8221	631569	0	0
2024-06-03 16:17:32			0	36254	0	0	0	23044	21710	140213	27260	997947	40970	108487	0	0	8220	632601	0	0
2024-06-03 16:18:32			0	36266	0	0	0	23051	21710	140265	27402	997991	40948	108490	0	0	8220	632085	0	0
2024-06-03 16:19:32			0	36283	0	0	0	23070	21720	140213	27332	997982	40959	108497	0	0	8221	631319	0	0
2024-06-03 16:20:32			0	36262	0	0	0	23083	21720	140377	27611	998061	40959	108502	0	0	8220	632221	0	0
2024-06-03 16:21:32			0	36268	0	0	0	23101	21720	140313	27128	998070	40972	108509	0	0	8220	631963	0	0
2024-06-03 16:22:32			0	36261	0	0	0	23090	21720	140265	27071	998043	40960	108505	0	0	8219	632264	0	0
2024-06-03 16:23:32			0	36265	0	0	0	23085	21730	140185	27177	998087	40960	108503	0	0	8220	632057	0	0
2024-06-03 16:24:32			0	36261	0	0	0	23080	21730	140253	27237	998052	40960	108501	0	0	8220	632229	0	0
2024-06-03 16:25:32			0	36268	0	0	0	23070	21720	140209	27270	998008	40959	108497	0	0	8220	631963	0	0
2024-06-03 16:26:32			0	36291	0	0	0	23072	21730	140169	27253	998052	40960	108498	0	0	8221	630940	0	0
2024-06-03 16:27:32			0	36276	0	0	0	23072	21730	140205	27324	997999	40950	108498	0	0	8221	631584	0	0
2024-06-03 16:28:32			0	36292	0	0	0	23046	21720	140133	27390	997910	40950	108488	0	0	8222	630932	0	0
2024-06-03 16:29:32			0	36305	0	0	0	23049	21710	140101	27203	997893	40937	108489	0	0	8222	630409	0	0
2024-06-03 16:30:32			0	36308	0	0	0	23033	21700	140057	27307	997929	40958	108483	0	0	8223	630316	0	0
2024-06-03 16:31:32			0	36340	0	0	0	23031	21700	140021	27121	997903	40958	108482	0	0	8225	628944	0	0
2024-06-03 16:32:32			0	36350	0	0	0	23028	21710	140065	27434	997885	40948	108481	0	0	8225	628480	0	0
2024-06-03 16:33:32			0	36383	0	0	0	23031	21700	139893	27088	997876	40947	108482	0	0	8227	627103	0	0
2024-06-03 16:34:32			0	36376	0	0	0	23015	21690	139785	27433	997753	40947	108476	0	0	8227	627438	0	0
2024-06-03 16:35:32			0	36401	0	0	0	23012	21670	139705	27341	997834	40957	108475	0	0	8228	626438	0	0
2024-06-03 16:36:32			0	36431	0	0	0	23010	21690	139501	27682	997833	40958	108474	0	0	8230	625088	0	0
2024-06-03 16:37:32			0	36471	0	0	0	22994	21680	139405	27100	997744	40947	108468	0	0	8232	623418	0	0
2024-06-03 16:38:32			0	36528	0	0	0	22997	21670	139297	27479	997692	40934	108469	0	0	8235	621028	0	0
2024-06-03 16:39:32			0	36556	0	0	0	22989	21670	139245	27435	997692	40956	108466	0	0	8237	619840	0	0
2024-06-03 16:40:32			0	36588	0	0	0	22981	21670	139097	27455	997727	40946	108463	0	0	8238	618483	0	0
2024-06-03 16:41:32			0	36605	0	0	0	22981	21660	138986	27414	997675	40944	108463	0	0	8239	617798	0	0
2024-06-03 16:42:32			0	36621	0	0	0	22974	21650	138830	27204	997667	40944	108460	0	0	8240	617155	0	0
2024-06-03 16:43:32			0	36643	0	0	0	22971	21650	138946	27414	997685	40943	108459	0	0	8241	616225	0	0
2024-06-03 16:44:32			0	36619	0	0	0	22974	21650	138922	27305	997632	40954	108460	0	0	8240	617240	0	0
2024-06-03 16:45:32			0	36608	0	0	0	22968	21640	138938	27274	997730	40942	108458	0	0	8240	617740	0	0
2024-06-03 16:46:32			0	36578	0	0	0	22976	21650	139061	27246	997659	40943	108461	0	0	8238	618976	0	0
2024-06-03 16:47:32			0	36552	0	0	0	22976	21640	139113	27467	997615	40931	108461	0	0	8236	620113	0	0
2024-06-03 16:48:32			0	36545	0	0	0	22981	21630	139161	26956	997607	40942	108463	0	0	8236	620444	0	0
2024-06-03 16:49:32			0	36511	0	0	0	22971	21630	139289	27090	997633	40942	108459	0	0	8234	621889	0	0
2024-06-03 16:50:32			0	36491	0	0	0	22976	21630	139429	27111	997633	40953	108461	0	0	8233	622740	0	0
2024-06-03 16:51:32			0	36457	0	0	0	22981	21630	139477	27455	997580	40942	108463	0	0	8231	624188	0	0
2024-06-03 16:52:32			0	36442	0	0	0	22968	21630	139489	27348	997572	40952	108458	0	0	8231	624827	0	0
2024-06-03 16:53:32			0	36430	0	0	0	22984	21630	139625	27407	997598	40952	108464	0	0	8230	625339	0	0
2024-06-03 16:54:32			0	36437	0	0	0	22984	21620	139697	27488	997643	40940	108464	0	0	8230	625075	0	0
2024-06-03 16:55:32			0	36402	0	0	0	22997	21630	139773	27459	997686	40953	108469	0	0	8228	626535	0	0
2024-06-03 16:56:32			0	36406	0	0	0	23020	21640	139789	27152	997721	40942	108478	0	0	8228	626329	0	0
2024-06-03 16:57:32			0	36400	0	0	0	23044	21650	139965	27326	997773	40955	108487	0	0	8227	626551	0	0
2024-06-03 16:58:32			0	36364	0	0	0	23072	21670	139821	27194	997905	40966	108498	0	0	8225	628021	0	0
2024-06-03 16:59:32			0	36360	0	0	0	23109	21680	139873	27237	998064	40968	108512	0	0	8224	628157	0	0
2024-06-03 17:00:32			0	36346	0	0	0	23119	21710	139945	27443	998151	40970	108516	0	0	8223	628652	0	0
2024-06-03 17:01:32			0	36370	0	0	0	23142	21730	139897	27303	998238	40960	108525	0	0	8224	627554	0	0
2024-06-03 17:02:32			0	36355	0	0	0	23171	21750	139893	27267	998387	40986	108536	0	0	8223	628126	0	0
2024-06-03 17:03:32			0	36355	0	0	0	23174	21770	139893	27364	998412	40987	108537	0	0	8223	628057	0	0
2024-06-03 17:04:32			0	36344	0	0	0	23186	21790	139865	27393	998419	40977	108542	0	0	8223	628457	0	0
2024-06-03 17:05:32			0	36350	0	0	0	23197	21790	139929	27443	998588	40967	108546	0	0	8223	628201	0	0
2024-06-03 17:06:32			0	36346	0	0	0	23283	21820	139997	27357	998630	40992	108579	0	0	8221	628267	0	0
2024-06-03 17:07:32			0	36293	0	0	0	23285	21840	139941	27045	998752	40982	108580	0	0	8218	630468	0	0
2024-06-03 17:08:32			0	36319	0	0	0	23257	21850	140001	27263	998707	40972	108569	0	0	8220	629318	0	0
2024-06-03 17:09:32			0	36307	0	0	0	23218	21860	139965	27310	998733	40974	108554	0	0	8220	629797	0	0
2024-06-03 17:10:32			0	36335	0	0	0	23205	21860	139933	27374	998706	40974	108549	0	0	8222	628598	0	0
2024-06-03 17:11:32			0	36316	0	0	0	23212	21870	139965	27178	998795	40974	108552	0	0	8221	629376	0	0
2024-06-03 17:12:32			0	36310	0	0	0	23236	21890	139917	27173	998935	40987	108561	0	0	8220	629563	0	0
2024-06-03 17:13:32			0	36311	0	0	0	23277	21900	139901	27133	999111	40988	108577	0	0	8220	629486	0	0
2024-06-03 17:14:32			0	36298	0	0	0	23381	21930	139993	27211	999384	41002	108617	0	0	8217	629938	0	0
2024-06-03 17:15:32			0	36286	0	0	0	23475	21980	140029	27208	999673	41016	108653	0	0	8215	630277	0	0
2024-06-03 17:16:32			0	36263	0	0	0	23535	22020	140125	27190	999874	41032	108676	0	0	8213	631123	0	0
2024-06-03 17:17:32			0	36236	0	0	0	23550	22050	140237	27281	999951	41012	108682	0	0	8212	632177	0	0
2024-06-03 17:18:32			0	36256	0	0	0	23490	22070	140101	27012	999879	41014	108659	0	0	8214	631247	0	0
2024-06-03 17:19:32			0	36255	0	0	0	23420	22100	139981	27360	999842	41006	108632	0	0	8215	631185	0	0
2024-06-03 17:20:32			0	36289	0	0	0	23366	22080	139793	27364	999737	40972	108611	0	0	8218	629797	0	0
2024-06-03 17:21:32			0	36339	0	0	0	23309	22070	139593	27464	999506	40970	108589	0	0	8221	627691	0	0
2024-06-03 17:22:32			0	36367	0	0	0	23283	22050	139493	27313	999339	40980	108579	0	0	8223	626565	0	0
2024-06-03 17:23:32			0	36381	0	0	0	23238	22030	139457	27350	999217	40955	108562	0	0	8225	626037	0	0
2024-06-03 17:24:32			0	36392	0	0	0	23220	22020	139525	27251	999067	40966	108555	0	0	8226	625602	0	0
2024-06-03 17:25:32			0	36434	0	0	0	23189	21990	139221	26981	998953	40942	108543	0	0	8228	623916	0	0
2024-06-03 17:26:32			0	36430	0	0	0	23181	21970	139333	27223	998866	40972	108540	0	0	8228	624156	0	0
2024-06-03 17:27:32			0	36470	0	0	0	23171	21950	139157	27306	998885	40959	108536	0	0	8230	622523	0	0
2024-06-03 17:28:32			0	36506	0	0	0	23153	21930	139053	26868	998798	40958	108529	0	0	8232	621063	0	0
2024-06-03 17:29:32			0	36509	0	0	0	23148	21930	139057	26930	998843	40958	108527	0	0	8233	620936	0	0
2024-06-03 17:30:32			0	36530	0	0	0	23153	21920	138937	26871	998799	40957	108529	0	0	8234	620079	0	0
2024-06-03 17:31:32			0	36578	0	0	0	23155	21910	138829	27001	998738	40957	108530	0	0	8236	618080	0	0
2024-06-03 17:32:32			0	36626	0	0	0	23142	21910	138698	27140	998649	40956	108525	0	0	8239	616051	0	0
2024-06-03 17:33:32			0	36650	0	0	0	23153	21900	138538	27145	998659	40955	108529	0	0	8240	615073	0	0
2024-06-03 17:34:32			0	36693	0	0	0	23132	21880	138466	27140	998545	40953	108521	0	0	8242	613329	0	0
2024-06-03 17:35:32			0	36724	0	0	0	23116	21870	138314	27013	998502	40963	108515	0	0	8244	612060	0	0
2024-06-03 17:36:32			0	36763	0	0	0	23088	21860	138214	27263	998432	40951	108504	0	0	8247	610455	0	0
2024-06-03 17:37:32			0	36785	0	0	0	23072	21840	137914	27486	998371	40938	108498	0	0	8248	609601	0	0
2024-06-03 17:38:32			0	36835	0	0	0	23067	21820	137814	27419	998292	40948	108496	0	0	8251	607575	0	0
2024-06-03 17:39:32			0	36886	0	0	0	23067	21820	137714	27275	998310	40958	108496	0	0	8253	605444	0	0
2024-06-03 17:40:32			0	36932	0	0	0	23067	21810	137610	27424	998222	40958	108496	0	0	8256	603560	0	0
2024-06-03 17:41:32			0	36984	0	0	0	23059	21810	137350	27417	998275	40947	108493	0	0	8259	601397	0	0
2024-06-03 17:42:32			0	37043	0	0	0	23051	21800	137242	27157	998197	40956	108490	0	0	8262	598982	0	0
2024-06-03 17:43:32			0	37058	0	0	0	23057	21790	137054	27474	998233	40956	108492	0	0	8262	598394	0	0
2024-06-03 17:44:32			0	37123	0	0	0	23072	21780	136954	27322	998216	40965	108498	0	0	8266	595740	0	0
2024-06-03 17:45:32			0	37148	0	0	0	23080	21770	136862	27275	998199	40964	108501	0	0	8267	594741	0	0
2024-06-03 17:46:32			0	37189	0	0	0	23077	21760	136722	27379	998138	40964	108500	0	0	8269	593085	0	0
2024-06-03 17:47:32			0	37232	0	0	0	23077	21760	136706	27388	998164	40954	108500	0	0	8271	591317	0	0
2024-06-03 17:48:32			0	37227	0	0	0	23085	21770	136550	26956	998119	40964	108503	0	0	8271	591489	0	0
2024-06-03 17:49:32			0	37264	0	0	0	23075	21760	136526	27220	998129	40953	108499	0	0	8273	590003	0	0
2024-06-03 17:50:32			0	37280	0	0	0	23059	21760	136354	27317	998138	40954	108493	0	0	8274	589347	0	0
2024-06-03 17:51:32			0	37299	0	0	0	23046	21750	136294	27118	998121	40953	108488	0	0	8275	588601	0	0
2024-06-03 17:52:32			0	37339	0	0	0	23031	21740	136243	27192	998050	40941	108482	0	0	8277	586997	0	0
2024-06-03 17:53:32			0	37360	0	0	0	23020	21740	136063	27019	998042	40951	108478	0	0	8279	586138	0	0
2024-06-03 17:54:32			0	37361	0	0	0	23020	21730	136023	27457	998034	40950	108478	0	0	8279	586130	0	0
2024-06-03 17:55:32			0	37387	0	0	0	23023	21730	136039	27348	998025	40950	108479	0	0	8280	585069	0	0
2024-06-03 17:56:32			0	37393	0	0	0	23020	21730	135979	27251	997999	40960	108478	0	0	8280	584824	0	0
2024-06-03 17:57:32			0	37399	0	0	0	23031	21720	136011	27305	998008	40949	108482	0	0	8280	584612	0	0
2024-06-03 17:58:32			0	37397	0	0	0	23041	21720	135987	27289	998008	40959	108486	0	0	8280	584693	0	0
2024-06-03 17:59:32			0	37417	0	0	0	23049	21720	135963	27261	997937	40960	108489	0	0	8281	583878	0	0
2024-06-03 18:00:32			0	37430	0	0	0	23046	21720	135955	27076	997990	40950	108488	0	0	8282	583348	0	0
2024-06-03 18:01:32			0	37438	0	0	0	23054	21710	135919	27388	997965	40948	108491	0	0	8282	583055	0	0
2024-06-03 18:02:32			0	37437	0	0	0	23046	21720	135943	27261	997982	40938	108488	0	0	8282	583064	0	0
2024-06-03 18:03:32			0	37445	0	0	0	23046	21710	135871	27282	997991	40959	108488	0	0	8283	582770	0	0
2024-06-03 18:04:32			0	37445	0	0	0	23046	21700	135883	27315	997983	40958	108488	0	0	8283	582803	0	0
2024-06-03 18:05:32			0	37449	0	0	0	23054	21720	135831	27281	997955	40971	108491	0	0	8283	582575	0	0
2024-06-03 18:06:32			0	37431	0	0	0	23051	21710	135883	27180	997991	40948	108490	0	0	8282	583340	0	0
2024-06-03 18:07:32			0	37434	0	0	0	23054	21700	135867	27360	997983	40969	108491	0	0	8282	583251	0	0
2024-06-03 18:08:32			0	37454	0	0	0	23059	21710	135923	27353	997965	40948	108493	0	0	8283	582404	0	0
2024-06-03 18:09:32			0	37438	0	0	0	23057	21710	135871	27315	997938	40981	108492	0	0	8282	583055	0	0
2024-06-03 18:10:32			0	37474	0	0	0	23059	21710	135835	27282	998000	40948	108493	0	0	8284	581591	0	0
2024-06-03 18:11:32			0	37459	0	0	0	23067	21710	135855	27339	998000	40948	108496	0	0	8283	582201	0	0
2024-06-03 18:12:32			0	37457	0	0	0	23083	21720	135791	27015	998070	40960	108502	0	0	8283	582250	0	0
2024-06-03 18:13:32			0	37450	0	0	0	23093	21720	135899	27076	998203	40983	108506	0	0	8282	582534	0	0
2024-06-03 18:14:32			0	37433	0	0	0	23111	21740	135783	26842	998255	40973	108513	0	0	8281	583162	0	0
2024-06-03 18:15:32			0	37468	0	0	0	23145	21750	135823	27559	998325	40962	108526	0	0	8282	581705	0	0
2024-06-03 18:16:32			0	37446	0	0	0	23189	21760	135895	27145	998457	40975	108543	0	0	8280	582568	0	0
2024-06-03 18:17:32			0	37429	0	0	0	23231	21790	135935	27059	998499	40988	108559	0	0	8279	583162	0	0
2024-06-03 18:18:32			0	37397	0	0	0	23270	21800	136023	27284	998684	40979	108574	0	0	8277	584433	0	0
2024-06-03 18:19:32			0	37396	0	0	0	23309	21820	136095	27033	998798	41002	108589	0	0	8276	584409	0	0
2024-06-03 18:20:32			0	37356	0	0	0	23324	21840	136207	27196	998877	40994	108595	0	0	8274	585976	0	0
2024-06-03 18:21:32			0	37325	0	0	0	23337	21850	136322	27069	998929	40995	108600	0	0	8272	587209	0	0
2024-06-03 18:22:32			0	37270	0	0	0	23368	21870	136402	27149	998963	40996	108612	0	0	8269	589395	0	0
2024-06-03 18:23:32			0	37257	0	0	0	23399	21890	136426	27367	999130	41008	108624	0	0	8268	589863	0	0
2024-06-03 18:24:32			0	37286	0	0	0	23423	21900	136418	27528	999173	41000	108633	0	0	8269	588642	0	0
2024-06-03 18:25:32			0	37287	0	0	0	23423	21920	136426	27416	999234	41001	108633	0	0	8269	588535	0	0
2024-06-03 18:26:32			0	37245	0	0	0	23431	21940	136582	27369	999286	40991	108636	0	0	8267	590191	0	0
2024-06-03 18:27:32			0	37231	0	0	0	23444	21950	136614	27053	999249	41015	108641	0	0	8266	590732	0	0
2024-06-03 18:28:32			0	37149	0	0	0	23436	21960	136826	27192	999328	41016	108638	0	0	8262	594071	0	0
2024-06-03 18:29:32			0	37091	0	0	0	23433	21960	136990	26972	999355	40994	108637	0	0	8259	596463	0	0
2024-06-03 18:30:32			0	37038	0	0	0	23444	21970	137270	27249	999345	41016	108641	0	0	8256	598622	0	0
2024-06-03 18:31:32			0	36956	0	0	0	23438	21990	137402	27197	999450	41007	108639	0	0	8251	601956	0	0
2024-06-03 18:32:32			0	36891	0	0	0	23444	21990	137698	26703	999424	41007	108641	0	0	8248	604662	0	0
2024-06-03 18:33:32			0	36857	0	0	0	23446	22000	137918	26899	999441	40998	108642	0	0	8246	606047	0	0
2024-06-03 18:34:32			0	36816	0	0	0	23449	22010	138094	27008	999484	41009	108643	0	0	8244	607726	0	0
2024-06-03 18:35:32			0	36783	0	0	0	23446	22020	138234	26958	999519	40999	108642	0	0	8242	609073	0	0
2024-06-03 18:36:32			0	36741	0	0	0	23449	22020	138254	26854	999440	41010	108643	0	0	8240	610834	0	0
2024-06-03 18:37:32			0	36724	0	0	0	23444	22020	138382	27005	999501	41021	108641	0	0	8239	611548	0	0
2024-06-03 18:38:32			0	36711	0	0	0	23446	22020	138418	27050	999440	41021	108642	0	0	8239	612094	0	0
2024-06-03 18:39:32			0	36707	0	0	0	23446	22030	138454	27239	999536	41010	108642	0	0	8238	612228	0	0
2024-06-03 18:40:32			0	36717	0	0	0	23449	22030	138358	27428	999483	40999	108643	0	0	8239	611808	0	0
2024-06-03 18:41:32			0	36759	0	0	0	23438	22030	138282	27164	999510	41021	108639	0	0	8241	610045	0	0
2024-06-03 18:42:32			0	36769	0	0	0	23441	22040	138206	27145	999508	41023	108640	0	0	8242	609592	0	0
2024-06-03 18:43:32			0	36820	0	0	0	23438	22030	137958	27003	999545	41022	108639	0	0	8245	607491	0	0
2024-06-03 18:44:32			0	36879	0	0	0	23433	22030	137834	27003	999545	41000	108637	0	0	8248	605027	0	0
2024-06-03 18:45:32			0	36930	0	0	0	23433	22030	137582	26946	999545	41000	108637	0	0	8250	602903	0	0
2024-06-03 18:46:32			0	37001	0	0	0	23428	22040	137390	27102	999508	41000	108635	0	0	8254	599921	0	0
2024-06-03 18:47:32			0	37072	0	0	0	23425	22050	137186	27305	999544	41011	108634	0	0	8258	596949	0	0
2024-06-03 18:48:32			0	37138	0	0	0	23420	22030	136854	27296	999438	41011	108632	0	0	8262	594292	0	0
2024-06-03 18:49:32			0	37209	0	0	0	23418	22030	136586	27039	999518	41022	108631	0	0	8265	591372	0	0
2024-06-03 18:50:32			0	37243	0	0	0	23412	22040	136446	26948	999455	41000	108629	0	0	8267	589944	0	0
2024-06-03 18:51:32			0	37322	0	0	0	23410	22030	136079	27149	999571	41000	108628	0	0	8271	586743	0	0
2024-06-03 18:52:32			0	37377	0	0	0	23418	22040	135995	27307	999500	41011	108631	0	0	8274	584467	0	0
2024-06-03 18:53:32			0	37460	0	0	0	23425	22040	135599	27152	999482	40990	108634	0	0	8278	581091	0	0
2024-06-03 18:54:32			0	37510	0	0	0	23423	22040	135355	27464	999535	41011	108633	0	0	8281	579063	0	0
2024-06-03 18:55:32			0	37587	0	0	0	23410	22040	135303	27277	999447	41000	108628	0	0	8285	575950	0	0
2024-06-03 18:56:32			0	37610	0	0	0	23405	22030	135067	26863	999465	41011	108626	0	0	8286	575054	0	0
2024-06-03 18:57:32			0	37644	0	0	0	23394	22030	134931	27076	999438	41011	108622	0	0	8288	573684	0	0
2024-06-03 18:58:32			0	37668	0	0	0	23405	22030	134899	27268	999465	41011	108626	0	0	8289	572719	0	0
2024-06-03 18:59:32			0	37674	0	0	0	23397	22030	134879	27008	999430	41010	108623	0	0	8290	572477	0	0
2024-06-03 19:00:32			0	37692	0	0	0	23405	22030	134823	26864	999430	41021	108626	0	0	8291	571754	0	0
2024-06-03 19:01:32			0	37638	0	0	0	23405	22020	134971	27312	999395	40999	108626	0	0	8288	573958	0	0
2024-06-03 19:02:32			0	37651	0	0	0	23397	22020	134959	27121	999421	41021	108623	0	0	8289	573435	0	0
2024-06-03 19:03:32			0	37621	0	0	0	23402	22020	135111	26963	999421	41010	108625	0	0	8287	574643	0	0
2024-06-03 19:04:32			0	37612	0	0	0	23392	22030	135227	27176	999456	41010	108621	0	0	8287	574974	0	0
2024-06-03 19:05:32			0	37581	0	0	0	23392	22010	135299	27114	999351	41009	108621	0	0	8285	576289	0	0
2024-06-03 19:06:32			0	37537	0	0	0	23379	22020	135331	27173	999395	41010	108616	0	0	8283	578035	0	0
2024-06-03 19:07:32			0	37527	0	0	0	23384	22020	135379	27152	999386	41021	108618	0	0	8282	578440	0	0
2024-06-03 19:08:32			0	37497	0	0	0	23376	22010	135575	26975	999404	41009	108615	0	0	8281	579687	0	0
2024-06-03 19:09:32			0	37454	0	0	0	23384	21990	135627	26840	999246	40998	108618	0	0	8278	581497	0	0
2024-06-03 19:10:32			0	37418	0	0	0	23376	22010	135691	27182	999343	41019	108615	0	0	8277	582895	0	0
2024-06-03 19:11:32			0	37395	0	0	0	23373	22010	135903	27095	999263	41008	108614	0	0	8276	583831	0	0
2024-06-03 19:12:32			0	37382	0	0	0	23358	22000	135947	27281	999254	41008	108608	0	0	8275	584393	0	0
2024-06-03 19:13:32			0	37364	0	0	0	23353	21990	136023	27298	999211	41007	108606	0	0	8274	585160	0	0
2024-06-03 19:14:32			0	37329	0	0	0	23353	21990	136067	27150	999219	41019	108606	0	0	8272	586588	0	0
2024-06-03 19:15:32			0	37323	0	0	0	23361	21970	136098	27256	999212	40995	108609	0	0	8272	586899	0	0
2024-06-03 19:16:32			0	37325	0	0	0	23358	21980	136151	27306	999229	40996	108608	0	0	8272	586784	0	0
2024-06-03 19:17:32			0	37315	0	0	0	23350	21980	136202	27019	999221	41005	108605	0	0	8272	587193	0	0
2024-06-03 19:18:32			0	37297	0	0	0	23342	21980	136218	26828	999167	41005	108602	0	0	8271	587929	0	0
2024-06-03 19:19:32			0	37293	0	0	0	23335	21970	136302	27282	999212	41005	108599	0	0	8271	588126	0	0
2024-06-03 19:20:32			0	37291	0	0	0	23335	21960	136210	27079	999195	41004	108599	0	0	8271	588240	0	0
2024-06-03 19:21:32			0	37282	0	0	0	23337	21970	136258	27183	999177	41005	108600	0	0	8270	588576	0	0
2024-06-03 19:22:32			0	37301	0	0	0	23332	21970	136242	26845	999177	41005	108598	0	0	8271	587798	0	0
2024-06-03 19:23:32			0	37290	0	0	0	23327	21960	136286	26961	999080	41003	108596	0	0	8271	588281	0	0
2024-06-03 19:24:32			0	37299	0	0	0	23324	21950	136174	27098	999072	40993	108595	0	0	8271	587946	0	0
2024-06-03 19:25:32			0	37300	0	0	0	23319	21950	136246	27327	999116	40993	108593	0	0	8271	587905	0	0
2024-06-03 19:26:32			0	37331	0	0	0	23314	21950	136299	26883	999098	41003	108591	0	0	8273	586637	0	0
2024-06-03 19:27:32			0	37350	0	0	0	23319	21950	136171	26785	999090	41003	108593	0	0	8274	585861	0	0
2024-06-03 19:28:32			0	37352	0	0	0	23314	21940	136039	27071	999134	41003	108591	0	0	8274	585812	0	0
2024-06-03 19:29:32			0	37360	0	0	0	23309	21930	135971	26797	999029	41013	108589	0	0	8275	585519	0	0
2024-06-03 19:30:32			0	37379	0	0	0	23306	21940	136031	27022	999073	41002	108588	0	0	8276	584711	0	0
2024-06-03 19:31:32			0	37423	0	0	0	23311	21930	135951	26795	999038	41013	108590	0	0	8278	582951	0	0
2024-06-03 19:32:32			0	37440	0	0	0	23306	21930	135883	26665	999029	40991	108588	0	0	8279	582260	0	0
2024-06-03 19:33:32			0	37426	0	0	0	23296	21930	135775	27046	999002	41002	108584	0	0	8278	582829	0	0
2024-06-03 19:34:32			0	37463	0	0	0	23293	21930	135715	26667	998958	41002	108583	0	0	8280	581325	0	0
2024-06-03 19:35:32			0	37494	0	0	0	23277	21930	135659	27197	998896	41002	108577	0	0	8282	580067	0	0
2024-06-03 19:36:32			0	37505	0	0	0	23270	21920	135643	26746	998932	40990	108574	0	0	8283	579653	0	0
2024-06-03 19:37:32			0	37523	0	0	0	23264	21910	135583	26798	998969	40989	108572	0	0	8284	578956	0	0
2024-06-03 19:38:32			0	37522	0	0	0	23257	21900	135459	27293	998800	41000	108569	0	0	8284	579029	0	0
2024-06-03 19:39:32			0	37539	0	0	0	23246	21900	135467	26750	998819	40999	108565	0	0	8285	578341	0	0
2024-06-03 19:40:32			0	37529	0	0	0	23238	21890	135479	27310	998810	40987	108562	0	0	8284	578778	0	0
2024-06-03 19:41:32			0	37537	0	0	0	23244	21890	135491	27083	998802	41008	108564	0	0	8285	578454	0	0
2024-06-03 19:42:32			0	37527	0	0	0	23246	21870	135495	26835	998696	40996	108565	0	0	8284	578923	0	0
2024-06-03 19:43:32			0	37515	0	0	0	23251	21870	135483	27079	998750	41007	108567	0	0	8283	579410	0	0
2024-06-03 19:44:32			0	37514	0	0	0	23244	21880	135607	26899	998758	40997	108564	0	0	8284	579418	0	0
2024-06-03 19:45:32			0	37520	0	0	0	23254	21880	135575	27033	998785	41007	108568	0	0	8284	579175	0	0
2024-06-03 19:46:32			0	37501	0	0	0	23246	21880	135515	26618	998811	40986	108565	0	0	8283	579945	0	0
2024-06-03 19:47:32			0	37494	0	0	0	23262	21870	135543	26793	998776	40985	108571	0	0	8282	580261	0	0
2024-06-03 19:48:32			0	37492	0	0	0	23264	21880	135591	26582	998758	41007	108572	0	0	8282	580310	0	0
2024-06-03 19:49:32			0	37480	0	0	0	23272	21870	135587	26854	998768	41007	108575	0	0	8281	580829	0	0
2024-06-03 19:50:32			0	37478	0	0	0	23272	21880	135643	27072	998811	40997	108575	0	0	8281	580878	0	0
2024-06-03 19:51:32			0	37473	0	0	0	23272	21870	135607	26998	998741	41007	108575	0	0	8281	581114	0	0
2024-06-03 19:52:32			0	37468	0	0	0	23267	21860	135611	26979	998759	40996	108573	0	0	8281	581349	0	0
2024-06-03 19:53:32			0	37454	0	0	0	23270	21860	135631	27079	998786	41007	108574	0	0	8280	581918	0	0
2024-06-03 19:54:32			0	37440	0	0	0	23272	21870	135771	27135	998750	40996	108575	0	0	8279	582455	0	0
2024-06-03 19:55:32			0	37434	0	0	0	23275	21860	135827	27105	998733	40985	108576	0	0	8279	582731	0	0
2024-06-03 19:56:32			0	37423	0	0	0	23272	21870	135787	27050	998803	41007	108575	0	0	8278	583146	0	0
2024-06-03 19:57:32			0	37418	0	0	0	23272	21870	135751	27144	998750	41018	108575	0	0	8278	583350	0	0
2024-06-03 19:58:32			0	37394	0	0	0	23283	21880	135935	26942	998820	41008	108579	0	0	8277	584295	0	0
2024-06-03 19:59:32			0	37392	0	0	0	23306	21880	135835	27178	998838	41019	108588	0	0	8276	584377	0	0
2024-06-03 20:00:32			0	37403	0	0	0	23309	21880	135847	26955	998873	41020	108589	0	0	8277	583928	0	0
2024-06-03 20:01:32			0	37397	0	0	0	23303	21890	135895	27135	998917	41020	108587	0	0	8276	584140	0	0
2024-06-03 20:02:32			0	37380	0	0	0	23311	21900	136015	26788	998925	41009	108590	0	0	8275	584800	0	0
2024-06-03 20:03:32			0	37394	0	0	0	23314	21890	135915	27204	998855	41008	108591	0	0	8276	584262	0	0
2024-06-03 20:04:32			0	37377	0	0	0	23303	21890	135991	27052	998837	41008	108587	0	0	8275	584955	0	0
2024-06-03 20:05:32			0	37383	0	0	0	23301	21900	135971	26882	998934	41021	108586	0	0	8276	584678	0	0
2024-06-03 20:06:32			0	37363	0	0	0	23298	21900	135971	27005	998899	41009	108585	0	0	8275	585494	0	0
2024-06-03 20:07:32			0	37375	0	0	0	23296	21890	135943	27116	998917	41008	108584	0	0	8275	585037	0	0
2024-06-03 20:08:32			0	37357	0	0	0	23298	21900	136035	26989	998925	41009	108585	0	0	8274	585739	0	0
2024-06-03 20:09:32			0	37364	0	0	0	23296	21890	135935	27107	998863	41008	108584	0	0	8275	585486	0	0
2024-06-03 20:10:32			0	37371	0	0	0	23296	21900	135895	27138	998880	41000	108584	0	0	8275	585168	0	0
2024-06-03 20:11:32			0	37358	0	0	0	23309	21900	135875	26729	998925	41009	108589	0	0	8274	585698	0	0
2024-06-03 20:12:32			0	37377	0	0	0	23296	21890	135955	27118	998970	41008	108584	0	0	8276	584955	0	0
2024-06-03 20:13:32			0	37391	0	0	0	23296	21900	136011	26800	998925	41009	108584	0	0	8276	584352	0	0
2024-06-03 20:14:32			0	37396	0	0	0	23303	21900	135891	26819	998899	41009	108587	0	0	8276	584148	0	0
2024-06-03 20:15:32			0	37408	0	0	0	23301	21900	135875	26752	998872	41021	108586	0	0	8277	583659	0	0
2024-06-03 20:16:32			0	37398	0	0	0	23290	21900	135867	26878	998880	41010	108582	0	0	8277	584067	0	0
2024-06-03 20:17:32			0	37415	0	0	0	23293	21900	135811	26991	998845	41009	108583	0	0	8278	583374	0	0
2024-06-03 20:18:32			0	37431	0	0	0	23293	21900	135759	27081	998899	41009	108583	0	0	8278	582723	0	0
2024-06-03 20:19:32			0	37442	0	0	0	23296	21900	135679	26755	998952	40999	108584	0	0	8279	582276	0	0
2024-06-03 20:20:32			0	37455	0	0	0	23288	21900	135675	27083	998899	41009	108581	0	0	8280	581747	0	0
2024-06-03 20:21:32			0	37465	0	0	0	23288	21890	135675	27294	998863	40998	108581	0	0	8280	581374	0	0
2024-06-03 20:22:32			0	37467	0	0	0	23277	21890	135631	27060	998828	40998	108577	0	0	8281	581292	0	0
2024-06-03 20:23:32			0	37498	0	0	0	23283	21880	135539	26739	998846	41020	108579	0	0	8282	580066	0	0
2024-06-03 20:24:32			0	37506	0	0	0	23280	21880	135563	27059	998820	40998	108578	0	0	8282	579742	0	0
2024-06-03 20:25:32			0	37496	0	0	0	23270	21870	135471	27119	998750	41018	108574	0	0	8282	580180	0	0
2024-06-03 20:26:32			0	37511	0	0	0	23270	21890	135491	26887	998775	41020	108574	0	0	8283	579507	0	0
2024-06-03 20:27:32			0	37522	0	0	0	23267	21880	135583	26909	998793	41008	108573	0	0	8284	579094	0	0
2024-06-03 20:28:32			0	37550	0	0	0	23257	21880	135351	26783	998758	41019	108569	0	0	8285	577960	0	0
2024-06-03 20:29:32			0	37553	0	0	0	23267	21870	135347	27050	998750	40996	108573	0	0	8285	577871	0	0
2024-06-03 20:30:32			0	37546	0	0	0	23264	21870	135303	26807	998768	41007	108572	0	0	8285	578154	0	0
2024-06-03 20:31:32			0	37573	0	0	0	23270	21880	135259	26778	998732	41007	108574	0	0	8286	577030	0	0
2024-06-03 20:32:32			0	37606	0	0	0	23264	21860	135263	26878	998813	41007	108572	0	0	8288	575761	0	0
2024-06-03 20:33:32			0	37597	0	0	0	23267	21870	135215	27183	998830	41007	108573	0	0	8287	576092	0	0
2024-06-03 20:34:32			0	37615	0	0	0	23267	21870	135219	27225	998830	41007	108573	0	0	8288	575366	0	0
2024-06-03 20:35:32			0	37611	0	0	0	23264	21870	135159	27029	998795	41018	108572	0	0	8288	575527	0	0
2024-06-03 20:36:32			0	37646	0	0	0	23272	21890	135095	27031	998828	41008	108575	0	0	8290	574052	0	0
2024-06-03 20:37:32			0	37643	0	0	0	23272	21860	134995	26916	998813	40996	108575	0	0	8290	574268	0	0
2024-06-03 20:38:32			0	37673	0	0	0	23257	21870	134939	27222	998741	40996	108569	0	0	8292	573028	0	0
2024-06-03 20:39:32			0	37679	0	0	0	23262	21870	134875	26934	998768	41007	108571	0	0	8292	572787	0	0
2024-06-03 20:40:32			0	37702	0	0	0	23262	21870	134863	26911	998723	40996	108571	0	0	8293	571862	0	0
2024-06-03 20:41:32			0	37715	0	0	0	23257	21870	134887	27026	998741	41018	108569	0	0	8294	571340	0	0
2024-06-03 20:42:32			0	37731	0	0	0	23257	21860	134795	27149	998733	41007	108569	0	0	8295	570729	0	0
2024-06-03 20:43:32			0	37739	0	0	0	23251	21860	134747	27003	998733	41007	108567	0	0	8295	570408	0	0
2024-06-03 20:44:32			0	37762	0	0	0	23251	21860	134647	26963	998698	41017	108567	0	0	8296	569486	0	0
2024-06-03 20:45:32			0	37772	0	0	0	23257	21850	134559	27313	998707	41005	108569	0	0	8297	569117	0	0
2024-06-03 20:46:32			0	37775	0	0	0	23257	21860	134587	27170	998751	40995	108569	0	0	8297	568965	0	0
2024-06-03 20:47:32			0	37794	0	0	0	23257	21860	134563	27072	998786	41007	108569	0	0	8298	568204	0	0
2024-06-03 20:48:32			0	37795	0	0	0	23259	21850	134607	27287	998734	40995	108570	0	0	8298	568196	0	0
2024-06-03 20:49:32			0	37804	0	0	0	23257	21860	134523	26942	998786	40996	108569	0	0	8298	567804	0	0
2024-06-03 20:50:32			0	37826	0	0	0	23264	21860	134495	26849	998751	41006	108572	0	0	8299	566924	0	0
2024-06-03 20:51:32			0	37827	0	0	0	23259	21860	134427	26892	998698	41017	108570	0	0	8300	566884	0	0
2024-06-03 20:52:32			0	37848	0	0	0	23264	21860	134439	27008	998786	40996	108572	0	0	8301	566045	0	0
2024-06-03 20:53:32			0	37819	0	0	0	23262	21870	134459	27067	998768	40996	108571	0	0	8299	567172	0	0
2024-06-03 20:54:32			0	37820	0	0	0	23264	21870	134347	26660	998821	41018	108572	0	0	8299	567132	0	0
2024-06-03 20:55:32			0	37847	0	0	0	23264	21870	134423	27228	998741	40996	108572	0	0	8300	566054	0	0
2024-06-03 20:56:32			0	37854	0	0	0	23262	21860	134375	26993	998778	41006	108571	0	0	8301	565806	0	0
2024-06-03 20:57:32			0	37825	0	0	0	23262	21860	134419	26819	998724	41006	108571	0	0	8299	566964	0	0
2024-06-03 20:58:32			0	37825	0	0	0	23262	21860	134471	27100	998759	41029	108571	0	0	8299	566964	0	0
2024-06-03 20:59:32			0	37826	0	0	0	23257	21860	134411	26802	998733	41007	108569	0	0	8299	566924	0	0
2024-06-03 21:00:32			0	37820	0	0	0	23259	21860	134499	27218	998733	41007	108570	0	0	8299	567164	0	0
2024-06-03 21:01:32			0	37808	0	0	0	23262	21870	134471	26729	998661	41007	108571	0	0	8299	567612	0	0
2024-06-03 21:02:32			0	37787	0	0	0	23259	21860	134499	26660	998706	41018	108570	0	0	8297	568484	0	0
2024-06-03 21:03:32			0	37777	0	0	0	23257	21860	134467	27242	998671	41017	108569	0	0	8297	568885	0	0
2024-06-03 21:04:32			0	37780	0	0	0	23267	21850	134567	27131	998743	41005	108573	0	0	8297	568796	0	0
2024-06-03 21:05:32			0	37768	0	0	0	23251	21860	134535	27223	998751	41006	108567	0	0	8297	569245	0	0
2024-06-03 21:06:32			0	37761	0	0	0	23262	21860	134663	27024	998804	41006	108571	0	0	8296	569526	0	0
2024-06-03 21:07:32			0	37756	0	0	0	23264	21850	134671	27343	998716	41016	108572	0	0	8296	569758	0	0
2024-06-03 21:08:32			0	37747	0	0	0	23272	21860	134715	26908	998698	41028	108575	0	0	8295	570087	0	0
2024-06-03 21:09:32			0	37733	0	0	0	23259	21860	134667	27486	998698	41006	108570	0	0	8295	570649	0	0
2024-06-03 21:10:32			0	37728	0	0	0	23254	21870	134711	27412	998768	40996	108568	0	0	8294	570818	0	0
2024-06-03 21:11:32			0	37720	0	0	0	23254	21860	134723	27093	998733	41007	108568	0	0	8294	571171	0	0
2024-06-03 21:12:32			0	37699	0	0	0	23251	21860	134831	27027	998706	41029	108567	0	0	8293	572015	0	0
2024-06-03 21:13:32			0	37684	0	0	0	23257	21860	134855	27253	998751	41017	108569	0	0	8292	572618	0	0
2024-06-03 21:14:32			0	37668	0	0	0	23264	21860	134971	27372	998724	41017	108572	0	0	8291	573262	0	0
2024-06-03 21:15:32			0	37652	0	0	0	23259	21860	134995	26928	998724	41006	108570	0	0	8290	573906	0	0
2024-06-03 21:16:32			0	37610	0	0	0	23254	21860	135079	27041	998698	41006	108568	0	0	8288	575599	0	0
2024-06-03 21:17:32			0	37602	0	0	0	23262	21860	135083	27189	998724	41017	108571	0	0	8288	575922	0	0
2024-06-03 21:18:32			0	37596	0	0	0	23254	21860	135195	27175	998698	41028	108568	0	0	8288	576165	0	0
2024-06-03 21:19:32			0	37576	0	0	0	23257	21850	135199	27039	998716	40995	108569	0	0	8286	577005	0	0
2024-06-03 21:20:32			0	37558	0	0	0	23251	21850	135231	26991	998716	41005	108567	0	0	8286	577733	0	0
2024-06-03 21:21:32			0	37561	0	0	0	23249	21850	135287	27066	998689	41016	108566	0	0	8286	577611	0	0
2024-06-03 21:22:32			0	37537	0	0	0	23246	21850	135387	27237	998716	41005	108565	0	0	8285	578583	0	0
2024-06-03 21:23:32			0	37549	0	0	0	23249	21850	135375	27246	998743	41005	108566	0	0	8285	578097	0	0
2024-06-03 21:24:32			0	37527	0	0	0	23241	21850	135535	27033	998707	41005	108563	0	0	8284	578988	0	0
2024-06-03 21:25:32			0	37491	0	0	0	23244	21840	135587	27142	998699	41015	108564	0	0	8282	580480	0	0
2024-06-03 21:26:32			0	37504	0	0	0	23236	21850	135551	27081	998663	41005	108561	0	0	8283	579920	0	0
2024-06-03 21:27:32			0	37473	0	0	0	23246	21840	135623	27164	998646	41004	108565	0	0	8281	581211	0	0
2024-06-03 21:28:32			0	37449	0	0	0	23238	21840	135719	27140	998646	41015	108562	0	0	8280	582186	0	0
2024-06-03 21:29:32			0	37444	0	0	0	23246	21840	135627	27020	998717	41015	108565	0	0	8280	582389	0	0
2024-06-03 21:30:32			0	37431	0	0	0	23244	21840	135791	27015	998646	41004	108564	0	0	8279	582918	0	0
2024-06-03 21:31:32			0	37431	0	0	0	23262	21840	135671	27095	998726	41015	108571	0	0	8279	582918	0	0
2024-06-03 21:32:32			0	37415	0	0	0	23244	21850	135735	27012	998743	40995	108564	0	0	8278	583537	0	0
2024-06-03 21:33:32			0	37421	0	0	0	23251	21840	135819	27154	998699	41004	108567	0	0	8278	583325	0	0
2024-06-03 21:34:32			0	37396	0	0	0	23251	21840	135923	27241	998672	40994	108567	0	0	8277	584344	0	0
2024-06-03 21:35:32			0	37401	0	0	0	23251	21850	135879	27256	998734	41005	108567	0	0	8277	584107	0	0
2024-06-03 21:36:32			0	37395	0	0	0	23251	21850	135883	27100	998707	41016	108567	0	0	8277	584352	0	0
2024-06-03 21:37:32			0	37372	0	0	0	23251	21860	135999	27201	998724	40995	108567	0	0	8276	585257	0	0
2024-06-03 21:38:32			0	37350	0	0	0	23251	21860	136067	27204	998724	41006	108567	0	0	8275	586155	0	0
2024-06-03 21:39:32			0	37321	0	0	0	23249	21850	136143	27291	998716	41005	108566	0	0	8273	587373	0	0
2024-06-03 21:40:32			0	37288	0	0	0	23251	21850	136202	27374	998716	41005	108567	0	0	8271	588724	0	0
2024-06-03 21:41:32			0	37255	0	0	0	23251	21850	136278	27093	998716	41016	108567	0	0	8270	590076	0	0
2024-06-03 21:42:32			0	37221	0	0	0	23246	21840	136454	27391	998672	41004	108565	0	0	8268	591505	0	0
2024-06-03 21:43:32			0	37202	0	0	0	23249	21850	136570	26989	998707	41016	108566	0	0	8267	592253	0	0
2024-06-03 21:44:32			0	37167	0	0	0	23241	21850	136718	27097	998734	41016	108563	0	0	8265	593693	0	0
2024-06-03 21:45:32			0	37128	0	0	0	23249	21840	136810	27123	998726	41026	108566	0	0	8263	595334	0	0
2024-06-03 21:46:32			0	37099	0	0	0	23251	21850	136914	26949	998707	41005	108567	0	0	8262	596499	0	0
2024-06-03 21:47:32			0	37061	0	0	0	23251	21840	137158	26908	998691	41004	108567	0	0	8260	598103	0	0
2024-06-03 21:48:32			0	37024	0	0	0	23251	21840	137274	27163	998691	40982	108567	0	0	8258	599636	0	0
2024-06-03 21:49:32			0	37006	0	0	0	23241	21850	137346	27121	998707	41016	108563	0	0	8257	600349	0	0
2024-06-03 21:50:32			0	36978	0	0	0	23241	21850	137430	27000	998716	41005	108563	0	0	8255	601512	0	0
2024-06-03 21:51:32			0	36934	0	0	0	23241	21840	137454	27460	998619	41015	108563	0	0	8253	603376	0	0
2024-06-03 21:52:32			0	36896	0	0	0	23238	21850	137646	27223	998681	41016	108562	0	0	8251	604925	0	0
2024-06-03 21:53:32			0	36864	0	0	0	23238	21840	137802	26760	998691	41004	108562	0	0	8249	606295	0	0
2024-06-03 21:54:32			0	36868	0	0	0	23241	21840	137798	27001	998672	41004	108563	0	0	8250	606128	0	0
2024-06-03 21:55:32			0	36824	0	0	0	23233	21840	137874	27412	998646	41015	108560	0	0	8247	607967	0	0
2024-06-03 21:56:32			0	36800	0	0	0	23236	21840	138006	27431	998619	41004	108561	0	0	8246	608972	0	0
2024-06-03 21:57:32			0	36760	0	0	0	23228	21840	138162	26944	998672	41015	108558	0	0	8244	610649	0	0
2024-06-03 21:58:32			0	36736	0	0	0	23236	21830	138354	27142	998655	41003	108561	0	0	8243	611691	0	0
2024-06-03 21:59:32			0	36697	0	0	0	23231	21840	138418	27176	998672	41015	108559	0	0	8241	613298	0	0
2024-06-03 22:00:32			0	36688	0	0	0	23223	21830	138470	27064	998629	41026	108556	0	0	8240	613711	0	0
2024-06-03 22:01:32			0	36652	0	0	0	23220	21830	138510	27244	998576	41003	108555	0	0	8238	615228	0	0
2024-06-03 22:02:32			0	36646	0	0	0	23212	21830	138590	27105	998602	41014	108552	0	0	8238	615482	0	0
2024-06-03 22:03:32			0	36606	0	0	0	23215	21830	138694	26984	998620	41014	108553	0	0	8236	617171	0	0
2024-06-03 22:04:32			0	36598	0	0	0	23210	21820	138805	27253	998585	41002	108551	0	0	8236	617544	0	0
2024-06-03 22:05:32			0	36582	0	0	0	23215	21820	138877	27365	998558	41002	108553	0	0	8235	618221	0	0
2024-06-03 22:06:32			0	36586	0	0	0	23210	21820	138837	26958	998577	41002	108551	0	0	8235	618052	0	0
2024-06-03 22:07:32			0	36566	0	0	0	23210	21810	138961	27020	998515	41001	108551	0	0	8234	618933	0	0
2024-06-03 22:08:32			0	36564	0	0	0	23205	21820	138989	26925	998523	41013	108549	0	0	8234	618983	0	0
2024-06-03 22:09:32			0	36564	0	0	0	23199	21810	139021	27315	998568	41013	108547	0	0	8234	619018	0	0
2024-06-03 22:10:32			0	36566	0	0	0	23194	21820	138997	26868	998523	41002	108545	0	0	8234	618898	0	0
2024-06-03 22:11:32			0	36557	0	0	0	23184	21810	139057	26788	998506	41000	108541	0	0	8234	619314	0	0
2024-06-03 22:12:32			0	36542	0	0	0	23192	21810	139001	27064	998480	41000	108544	0	0	8233	619950	0	0
2024-06-03 22:13:32			0	36549	0	0	0	23197	21810	138881	27254	998506	41023	108546	0	0	8233	619653	0	0
2024-06-03 22:14:32			0	36556	0	0	0	23197	21810	138993	27203	998488	41001	108546	0	0	8234	619357	0	0
2024-06-03 22:15:32			0	36561	0	0	0	23194	21800	138953	27168	998551	40990	108545	0	0	8234	619179	0	0
2024-06-03 22:16:32			0	36561	0	0	0	23207	21800	139005	27067	998490	41011	108550	0	0	8234	619179	0	0
2024-06-03 22:17:32			0	36543	0	0	0	23189	21800	138905	27095	998498	41000	108543	0	0	8233	619942	0	0
2024-06-03 22:18:32			0	36543	0	0	0	23192	21800	138973	27246	998471	41000	108544	0	0	8233	619942	0	0
2024-06-03 22:19:32			0	36533	0	0	0	23197	21800	139053	27246	998516	41011	108546	0	0	8232	620367	0	0
2024-06-03 22:20:32			0	36550	0	0	0	23192	21800	139001	27202	998471	41000	108544	0	0	8233	619646	0	0
2024-06-03 22:21:32			0	36533	0	0	0	23186	21800	138961	27121	998471	41000	108542	0	0	8233	620367	0	0
2024-06-03 22:22:32			0	36549	0	0	0	23189	21800	139001	27057	998463	41000	108543	0	0	8233	619688	0	0
2024-06-03 22:23:32			0	36547	0	0	0	23186	21800	139037	27213	998463	41011	108542	0	0	8233	619773	0	0
2024-06-03 22:24:32			0	36528	0	0	0	23181	21800	138997	27189	998410	41000	108540	0	0	8232	620579	0	0
2024-06-03 22:25:32			0	36545	0	0	0	23192	21800	138977	26951	998463	41011	108544	0	0	8233	619858	0	0
2024-06-03 22:26:32			0	36532	0	0	0	23189	21800	139001	27064	998498	40990	108543	0	0	8233	620409	0	0
2024-06-03 22:27:32			0	36542	0	0	0	23181	21790	139105	26986	998428	41022	108540	0	0	8233	620019	0	0
2024-06-03 22:28:32			0	36525	0	0	0	23189	21790	139105	27098	998446	41000	108543	0	0	8232	620741	0	0
2024-06-03 22:29:32			0	36517	0	0	0	23181	21790	139085	27230	998454	41011	108540	0	0	8232	621080	0	0
2024-06-03 22:30:32			0	36509	0	0	0	23179	21790	139173	26955	998401	41000	108539	0	0	8231	621420	0	0
2024-06-03 22:31:32			0	36516	0	0	0	23194	21790	139113	26897	998401	41011	108545	0	0	8232	621123	0	0
2024-06-03 22:32:32			0	36518	0	0	0	23176	21780	139061	27069	998438	41010	108538	0	0	8232	621072	0	0
2024-06-03 22:33:32			0	36511	0	0	0	23179	21790	139113	27279	998393	41010	108539	0	0	8232	621335	0	0
2024-06-03 22:34:32			0	36498	0	0	0	23168	21790	139061	26719	998428	40989	108535	0	0	8231	621888	0	0
2024-06-03 22:35:32			0	36503	0	0	0	23176	21780	139105	27060	998304	41000	108538	0	0	8231	621710	0	0
2024-06-03 22:36:32			0	36540	0	0	0	23163	21780	139061	26706	998411	41010	108533	0	0	8233	620139	0	0
2024-06-03 22:37:32			0	36517	0	0	0	23168	21790	139061	27104	998393	40988	108535	0	0	8232	621080	0	0
2024-06-03 22:38:32			0	36540	0	0	0	23158	21780	139045	26752	998376	40999	108531	0	0	8233	620139	0	0
2024-06-03 22:39:32			0	36530	0	0	0	23166	21770	139025	26906	998394	41031	108534	0	0	8233	620598	0	0
2024-06-03 22:40:32			0	36510	0	0	0	23179	21770	139065	27140	998439	40998	108539	0	0	8231	621447	0	0
2024-06-03 22:41:32			0	36523	0	0	0	23184	21770	139145	26927	998474	41009	108541	0	0	8232	620895	0	0
2024-06-03 22:42:32			0	36509	0	0	0	23192	21770	139137	26908	998421	40999	108544	0	0	8231	621489	0	0
2024-06-03 22:43:32			0	36507	0	0	0	23194	21790	139109	27145	998473	41000	108545	0	0	8231	621505	0	0
2024-06-03 22:44:32			0	36500	0	0	0	23194	21770	139089	26731	998421	40987	108545	0	0	8231	621872	0	0
2024-06-03 22:45:32			0	36515	0	0	0	23186	21770	139149	26800	998465	40998	108542	0	0	8232	621235	0	0
2024-06-03 22:46:32			0	36486	0	0	0	23186	21770	139117	26592	998474	40999	108542	0	0	8230	622467	0	0
2024-06-03 22:47:32			0	36487	0	0	0	23197	21790	139245	26894	998454	41022	108546	0	0	8230	622355	0	0
2024-06-03 22:48:32			0	36495	0	0	0	23189	21780	139189	27024	998482	41009	108543	0	0	8230	622050	0	0
2024-06-03 22:49:32			0	36503	0	0	0	23189	21770	139117	27079	998421	41009	108543	0	0	8231	621744	0	0
2024-06-03 22:50:32			0	36522	0	0	0	23184	21780	139025	27147	998384	41010	108541	0	0	8232	620903	0	0
2024-06-03 22:51:32			0	36533	0	0	0	23176	21790	139117	27133	998419	41021	108538	0	0	8233	620401	0	0
2024-06-03 22:52:32			0	36558	0	0	0	23179	21770	139033	26941	998412	40998	108539	0	0	8234	619410	0	0
2024-06-03 22:53:32			0	36549	0	0	0	23168	21770	138929	27072	998421	40999	108535	0	0	8234	619791	0	0
2024-06-03 22:54:32			0	36555	0	0	0	23163	21770	138837	26791	998412	41008	108533	0	0	8234	619537	0	0
2024-06-03 22:55:32			0	36578	0	0	0	23166	21770	138937	27204	998386	41008	108534	0	0	8235	618562	0	0
2024-06-03 22:56:32			0	36575	0	0	0	23179	21780	138877	27253	998402	40999	108539	0	0	8235	618655	0	0
2024-06-03 22:57:32			0	36556	0	0	0	23184	21770	138885	27000	998421	41009	108541	0	0	8234	619495	0	0
2024-06-03 22:58:32			0	36573	0	0	0	23197	21770	138897	27007	998465	40998	108546	0	0	8234	618774	0	0
2024-06-03 22:59:32			0	36596	0	0	0	23189	21770	138938	26715	998359	41008	108543	0	0	8236	617801	0	0
2024-06-03 23:00:32			0	36581	0	0	0	23192	21790	138913	27072	998473	41010	108544	0	0	8235	618367	0	0
2024-06-03 23:01:32			0	36601	0	0	0	23181	21780	138878	27150	998402	40999	108540	0	0	8236	617554	0	0
2024-06-03 23:02:32			0	36579	0	0	0	23184	21770	138909	27256	998394	41009	108541	0	0	8235	618520	0	0
2024-06-03 23:03:32			0	36589	0	0	0	23176	21770	138781	26838	998421	40999	108538	0	0	8236	618097	0	0
2024-06-03 23:04:32			0	36592	0	0	0	23181	21770	138882	27152	998421	41009	108540	0	0	8236	617970	0	0
2024-06-03 23:05:32			0	36584	0	0	0	23174	21780	138885	27033	998429	40999	108537	0	0	8235	618274	0	0
2024-06-03 23:06:32			0	36577	0	0	0	23176	21780	138897	26991	998411	41010	108538	0	0	8235	618570	0	0
2024-06-03 23:07:32			0	36584	0	0	0	23168	21770	138981	27196	998359	41008	108535	0	0	8236	618308	0	0
2024-06-03 23:08:32			0	36565	0	0	0	23176	21780	138997	27279	998402	41009	108538	0	0	8234	619079	0	0
2024-06-03 23:09:32			0	36566	0	0	0	23168	21770	139077	26934	998367	41009	108535	0	0	8235	619071	0	0
2024-06-03 23:10:32			0	36543	0	0	0	23174	21760	139137	27036	998377	40998	108537	0	0	8233	620081	0	0
2024-06-03 23:11:32			0	36494	0	0	0	23176	21770	139061	26653	998394	40999	108538	0	0	8231	622127	0	0
2024-06-03 23:12:32			0	36523	0	0	0	23171	21770	139177	26880	998386	40998	108536	0	0	8232	620895	0	0
2024-06-03 23:13:32			0	36493	0	0	0	23171	21770	139233	27069	998386	41008	108536	0	0	8231	622169	0	0
2024-06-03 23:14:32			0	36479	0	0	0	23171	21770	139241	26883	998386	41008	108536	0	0	8230	622765	0	0
2024-06-03 23:15:32			0	36482	0	0	0	23163	21770	139213	26828	998412	41008	108533	0	0	8230	622637	0	0
2024-06-03 23:16:32			0	36474	0	0	0	23171	21760	139245	26901	998430	41019	108536	0	0	8230	623012	0	0
2024-06-03 23:17:32			0	36458	0	0	0	23176	21770	139337	26902	998412	40998	108538	0	0	8229	623659	0	0
2024-06-03 23:18:32			0	36450	0	0	0	23166	21770	139441	26752	998421	41009	108534	0	0	8228	624000	0	0
2024-06-03 23:19:32			0	36460	0	0	0	23163	21770	139485	26680	998386	40987	108533	0	0	8229	623574	0	0
2024-06-03 23:20:32			0	36441	0	0	0	23158	21760	139473	26727	998342	41007	108531	0	0	8228	624418	0	0
2024-06-03 23:21:32			0	36433	0	0	0	23158	21760	139521	26894	998377	40998	108531	0	0	8228	624759	0	0
2024-06-03 23:22:32			0	36438	0	0	0	23163	21760	139589	27100	998315	40997	108533	0	0	8228	624546	0	0
2024-06-03 23:23:32			0	36438	0	0	0	23161	21770	139541	26946	998306	41008	108532	0	0	8228	624511	0	0
2024-06-03 23:24:32			0	36425	0	0	0	23166	21770	139553	27027	998386	40998	108534	0	0	8227	625066	0	0
2024-06-03 23:25:32			0	36426	0	0	0	23155	21770	139505	26996	998359	41008	108530	0	0	8227	625023	0	0
2024-06-03 23:26:32			0	36425	0	0	0	23161	21760	139477	26915	998377	40998	108532	0	0	8227	625100	0	0
2024-06-03 23:27:32			0	36435	0	0	0	23161	21760	139533	26691	998342	41007	108532	0	0	8228	624674	0	0
2024-06-03 23:28:32			0	36426	0	0	0	23145	21760	139489	26993	998342	40997	108526	0	0	8227	625058	0	0
2024-06-03 23:29:32			0	36427	0	0	0	23150	21760	139517	27119	998289	40986	108528	0	0	8227	625015	0	0
2024-06-03 23:30:32			0	36419	0	0	0	23145	21750	139521	27017	998280	40997	108526	0	0	8227	625391	0	0
2024-06-03 23:31:32			0	36421	0	0	0	23132	21750	139625	27050	998272	40996	108521	0	0	8227	625306	0	0
2024-06-03 23:32:32			0	36420	0	0	0	23135	21750	139625	26915	998254	40997	108522	0	0	8227	625348	0	0
2024-06-03 23:33:32			0	36421	0	0	0	23142	21750	139685	27104	998272	41006	108525	0	0	8227	625306	0	0
2024-06-03 23:34:32			0	36405	0	0	0	23148	21740	139617	27097	998263	41006	108527	0	0	8226	626024	0	0
2024-06-03 23:35:32			0	36380	0	0	0	23137	21750	139649	27124	998245	40996	108523	0	0	8225	627057	0	0
2024-06-03 23:36:32			0	36370	0	0	0	23140	21740	139701	27109	998290	40996	108524	0	0	8225	627520	0	0
2024-06-03 23:37:32			0	36361	0	0	0	23137	21750	139813	27291	998245	40996	108523	0	0	8224	627870	0	0
2024-06-03 23:38:32			0	36324	0	0	0	23129	21750	139773	27067	998272	40996	108520	0	0	8222	629454	0	0
2024-06-03 23:39:32			0	36304	0	0	0	23127	21750	139841	26831	998245	41006	108519	0	0	8221	630312	0	0
2024-06-03 23:40:32			0	36299	0	0	0	23127	21730	139977	27029	998247	41004	108519	0	0	8221	630597	0	0
2024-06-03 23:41:32			0	36278	0	0	0	23129	21740	140053	27017	998202	40995	108520	0	0	8220	631463	0	0
2024-06-03 23:42:32			0	36246	0	0	0	23135	21730	140141	27034	998247	41004	108522	0	0	8218	632875	0	0
2024-06-03 23:43:32			0	36220	0	0	0	23124	21730	140229	26987	998220	40994	108518	0	0	8217	633994	0	0
2024-06-03 23:44:32			0	36195	0	0	0	23119	21730	140409	26817	998247	41004	108516	0	0	8216	635072	0	0
2024-06-03 23:45:32			0	36151	0	0	0	23111	21730	140529	27235	998140	40994	108513	0	0	8213	636972	0	0
2024-06-03 23:46:32			0	36130	0	0	0	23103	21720	140685	26916	998176	40994	108510	0	0	8212	637915	0	0
2024-06-03 23:47:32			0	36100	0	0	0	23096	21720	140885	27116	998176	40994	108507	0	0	8211	639215	0	0
2024-06-03 23:48:32			0	36054	0	0	0	23093	21720	140937	27338	998088	40993	108506	0	0	8208	641210	0	0
2024-06-03 23:49:32			0	36016	0	0	0	23090	21710	141217	27272	998133	40992	108505	0	0	8206	642898	0	0
2024-06-03 23:50:32			0	35954	0	0	0	23090	21720	141437	27000	998115	40982	108505	0	0	8203	645564	0	0
2024-06-03 23:51:32			0	35899	0	0	0	23085	21710	141545	27183	998071	41003	108503	0	0	8200	648003	0	0
2024-06-03 23:52:32			0	35819	0	0	0	23075	21700	141796	27298	998062	40991	108499	0	0	8196	651546	0	0
2024-06-03 23:53:32			0	35757	0	0	0	23072	21700	142024	27164	998062	41002	108498	0	0	8193	654274	0	0
2024-06-03 23:54:32			0	35670	0	0	0	23077	21700	142468	27390	998009	40980	108500	0	0	8188	658116	0	0
2024-06-03 23:55:32			0	35560	0	0	0	23083	21690	142868	26982	998054	41002	108502	0	0	8182	663033	0	0
2024-06-03 23:56:32			0	35453	0	0	0	23080	21690	143388	27215	998001	40991	108501	0	0	8176	667805	0	0
2024-06-03 23:57:32			0	35321	0	0	0	23070	21680	143748	27173	998002	40990	108497	0	0	8169	673765	0	0
2024-06-03 23:58:32			0	35245	0	0	0	23077	21700	144108	26951	998036	41013	108500	0	0	8165	677117	0	0
2024-06-03 23:59:32			0	35162	0	0	0	23072	21680	144464	27026	998064	41001	108498	0	0	8160	680951	0	0
2024-06-04 00:00:32			0	35080	0	0	0	23080	21690	144819	26963	998046	41001	108501	0	0	8156	684641	0	0
2024-06-04 00:01:32			0	35020	0	0	0	23075	21680	145039	27246	998064	41001	108499	0	0	8153	687416	0	0
2024-06-04 00:02:32			0	34972	0	0	0	23070	21690	145191	27086	997966	40991	108497	0	0	8150	689573	0	0
2024-06-04 00:03:32			0	34922	0	0	0	23070	21680	145383	27142	998037	40979	108497	0	0	8147	691905	0	0
2024-06-04 00:04:32			0	34879	0	0	0	23067	21690	145547	27448	998027	41002	108496	0	0	8145	693843	0	0
2024-06-04 00:05:32			0	34854	0	0	0	23070	21680	145771	26715	998002	40990	108497	0	0	8144	695032	0	0
2024-06-04 00:06:32			0	34822	0	0	0	23064	21680	145879	26984	998010	40991	108495	0	0	8142	696508	0	0
2024-06-04 00:07:32			0	34807	0	0	0	23062	21670	145895	26734	998020	40990	108494	0	0	8141	697239	0	0
2024-06-04 00:08:32			0	34772	0	0	0	23057	21660	145923	26887	997923	40999	108492	0	0	8139	698896	0	0
2024-06-04 00:09:32			0	34785	0	0	0	23054	21670	146003	26731	997932	41000	108491	0	0	8140	698256	0	0
2024-06-04 00:10:32			0	34758	0	0	0	23051	21670	146075	27118	997932	40989	108490	0	0	8139	699505	0	0
2024-06-04 00:11:32			0	34747	0	0	0	23054	21660	146283	27039	997950	40988	108491	0	0	8138	700053	0	0
2024-06-04 00:12:32			0	34738	0	0	0	23062	21650	146203	26986	997880	41009	108494	0	0	8137	700509	0	0
2024-06-04 00:13:32			0	34723	0	0	0	23059	21660	146383	26941	997923	40988	108493	0	0	8136	701166	0	0
2024-06-04 00:14:32			0	34709	0	0	0	23057	21660	146295	27067	997862	40988	108492	0	0	8136	701815	0	0
2024-06-04 00:15:32			0	34684	0	0	0	23064	21660	146459	26951	997923	40999	108495	0	0	8134	702976	0	0
2024-06-04 00:16:32			0	34694	0	0	0	23049	21650	146591	26746	997898	40987	108489	0	0	8135	702551	0	0
2024-06-04 00:17:32			0	34657	0	0	0	23046	21660	146535	27088	997915	40999	108488	0	0	8133	704232	0	0
2024-06-04 00:18:32			0	34653	0	0	0	23059	21650	146615	27147	997871	40987	108493	0	0	8132	704457	0	0
2024-06-04 00:19:32			0	34624	0	0	0	23057	21650	146667	26830	997880	40999	108492	0	0	8131	705808	0	0
2024-06-04 00:20:32			0	34626	0	0	0	23049	21650	146811	26949	997871	40998	108489	0	0	8131	705715	0	0
2024-06-04 00:21:32			0	34618	0	0	0	23044	21660	146707	26840	997862	40988	108487	0	0	8131	706048	0	0
2024-06-04 00:22:32			0	34620	0	0	0	23033	21660	146759	27249	997870	40988	108483	0	0	8131	705955	0	0
2024-06-04 00:23:32			0	34604	0	0	0	23038	21640	146827	27272	997855	40997	108485	0	0	8130	706780	0	0
2024-06-04 00:24:32			0	34579	0	0	0	23041	21650	146811	27022	997925	40987	108486	0	0	8129	707908	0	0
2024-06-04 00:25:32			0	34591	0	0	0	23038	21650	146871	27397	997925	40998	108485	0	0	8129	707348	0	0
2024-06-04 00:26:32			0	34571	0	0	0	23049	21640	146971	27201	997890	40997	108489	0	0	8128	708321	0	0
2024-06-04 00:27:32			0	34554	0	0	0	23054	21650	146979	26733	997933	40999	108491	0	0	8127	709077	0	0
2024-06-04 00:28:32			0	34567	0	0	0	23049	21640	146959	26889	997863	40997	108489	0	0	8128	708508	0	0
2024-06-04 00:29:32			0	34548	0	0	0	23054	21650	147051	27154	997845	40998	108491	0	0	8127	709358	0	0
2024-06-04 00:30:32			0	34565	0	0	0	23054	21640	146971	26873	997836	40997	108491	0	0	8128	708602	0	0
2024-06-04 00:31:32			0	34538	0	0	0	23051	21650	147023	26778	997871	40976	108490	0	0	8126	709826	0	0
2024-06-04 00:32:32			0	34523	0	0	0	23059	21640	147027	26791	997908	40997	108493	0	0	8125	710568	0	0
2024-06-04 00:33:32			0	34555	0	0	0	23067	21650	147011	27027	997898	41009	108496	0	0	8127	709030	0	0
2024-06-04 00:34:32			0	34540	0	0	0	23067	21640	147063	26849	997890	40997	108496	0	0	8126	709772	0	0
2024-06-04 00:35:32			0	34522	0	0	0	23064	21650	147123	27216	997898	40987	108495	0	0	8125	710575	0	0
2024-06-04 00:36:32			0	34536	0	0	0	23070	21650	147147	27159	997933	41009	108497	0	0	8126	709919	0	0
2024-06-04 00:37:32			0	34520	0	0	0	23070	21650	147147	27133	997898	40998	108497	0	0	8125	710669	0	0
2024-06-04 00:38:32			0	34549	0	0	0	23067	21650	147131	27031	997951	40987	108496	0	0	8127	709311	0	0
2024-06-04 00:39:32			0	34574	0	0	0	23064	21640	146999	27171	997855	40986	108495	0	0	8128	708181	0	0
2024-06-04 00:40:32			0	34576	0	0	0	23062	21650	146815	27069	997925	40987	108494	0	0	8128	708048	0	0
2024-06-04 00:41:32			0	34620	0	0	0	23064	21660	146711	27093	997915	40977	108495	0	0	8131	705955	0	0
2024-06-04 00:42:32			0	34689	0	0	0	23067	21660	146491	26899	997923	40988	108496	0	0	8134	702744	0	0
2024-06-04 00:43:32			0	34724	0	0	0	23070	21650	146367	27043	997933	40988	108497	0	0	8136	701158	0	0
2024-06-04 00:44:32			0	34785	0	0	0	23062	21650	146031	27137	997986	40988	108494	0	0	8140	698333	0	0
2024-06-04 00:45:32			0	34851	0	0	0	23059	21650	145783	27048	997933	40988	108493	0	0	8143	695286	0	0
2024-06-04 00:46:32			0	34906	0	0	0	23067	21650	145555	26977	997898	40998	108496	0	0	8146	692755	0	0
2024-06-04 00:47:32			0	34958	0	0	0	23054	21640	145319	27078	997863	40986	108491	0	0	8149	690407	0	0
2024-06-04 00:48:32			0	35003	0	0	0	23044	21640	145111	27050	997916	40986	108487	0	0	8152	688346	0	0
2024-06-04 00:49:32			0	35051	0	0	0	23046	21640	144927	27215	997855	40986	108488	0	0	8155	686153	0	0
2024-06-04 00:50:32			0	35089	0	0	0	23046	21640	144795	27220	997801	40986	108488	0	0	8157	684421	0	0
2024-06-04 00:51:32			0	35136	0	0	0	23046	21640	144664	27015	997890	40986	108488	0	0	8159	682283	0	0
2024-06-04 00:52:32			0	35171	0	0	0	23051	21640	144464	27043	997855	40997	108490	0	0	8161	680694	0	0
2024-06-04 00:53:32			0	35179	0	0	0	23051	21640	144420	26946	997783	40997	108490	0	0	8162	680331	0	0
2024-06-04 00:54:32			0	35196	0	0	0	23057	21630	144372	26840	997899	40986	108492	0	0	8162	679599	0	0
2024-06-04 00:55:32			0	35210	0	0	0	23059	21650	144352	27039	997818	40987	108493	0	0	8163	678889	0	0
2024-06-04 00:56:32			0	35222	0	0	0	23059	21640	144292	27185	997890	40986	108493	0	0	8164	678384	0	0
2024-06-04 00:57:32			0	35233	0	0	0	23051	21640	144188	26974	997916	40986	108490	0	0	8164	677886	0	0
2024-06-04 00:58:32			0	35253	0	0	0	23051	21640	144144	27046	997890	40986	108490	0	0	8166	676982	0	0
2024-06-04 00:59:32			0	35251	0	0	0	23059	21640	144160	27267	997836	40997	108493	0	0	8165	677072	0	0
2024-06-04 01:00:32			0	35255	0	0	0	23054	21640	144024	26984	997863	40986	108491	0	0	8166	676892	0	0
2024-06-04 01:01:32			0	35264	0	0	0	23049	21650	144108	27013	997845	40976	108489	0	0	8166	676448	0	0
2024-06-04 01:02:32			0	35280	0	0	0	23044	21650	144108	26975	997871	40987	108487	0	0	8167	675726	0	0
2024-06-04 01:03:32			0	35282	0	0	0	23051	21630	144052	27029	997820	40986	108490	0	0	8167	675710	0	0
2024-06-04 01:04:32			0	35294	0	0	0	23044	21650	143980	26979	997871	40987	108487	0	0	8168	675094	0	0
2024-06-04 01:05:32			0	35313	0	0	0	23041	21640	143876	27265	997828	40986	108486	0	0	8169	674276	0	0
2024-06-04 01:06:32			0	35304	0	0	0	23036	21640	143824	27256	997828	41008	108484	0	0	8169	674681	0	0
2024-06-04 01:07:32			0	35328	0	0	0	23051	21640	143792	26951	997863	40986	108490	0	0	8170	673600	0	0
2024-06-04 01:08:32			0	35327	0	0	0	23046	21650	143824	27001	997845	40998	108488	0	0	8170	673608	0	0
2024-06-04 01:09:32			0	35334	0	0	0	23038	21640	143800	26760	997890	40986	108485	0	0	8170	673330	0	0
2024-06-04 01:10:32			0	35363	0	0	0	23044	21630	143728	27305	997820	40975	108487	0	0	8172	672064	0	0
2024-06-04 01:11:32			0	35361	0	0	0	23041	21640	143520	26724	997828	40986	108486	0	0	8172	672116	0	0
2024-06-04 01:12:32			0	35401	0	0	0	23044	21640	143676	26727	997836	40986	108487	0	0	8174	670320	0	0
2024-06-04 01:13:32			0	35409	0	0	0	23041	21640	143604	26977	997828	41008	108486	0	0	8174	669962	0	0
2024-06-04 01:14:32			0	35405	0	0	0	23046	21640	143504	26979	997836	40986	108488	0	0	8174	670141	0	0
2024-06-04 01:15:32			0	35426	0	0	0	23038	21630	143448	27305	997793	40986	108485	0	0	8175	669237	0	0
2024-06-04 01:16:32			0	35447	0	0	0	23044	21630	143424	27279	997820	41008	108487	0	0	8176	668297	0	0
2024-06-04 01:17:32			0	35462	0	0	0	23036	21630	143356	27043	997846	40997	108484	0	0	8177	667626	0	0
2024-06-04 01:18:32			0	35479	0	0	0	23041	21630	143312	26882	997811	40985	108486	0	0	8178	666866	0	0
2024-06-04 01:19:32			0	35493	0	0	0	23033	21630	143232	26660	997838	40974	108483	0	0	8179	666241	0	0
2024-06-04 01:20:32			0	35506	0	0	0	23044	21620	143172	27187	997803	40984	108487	0	0	8179	665697	0	0
2024-06-04 01:21:32			0	35512	0	0	0	23038	21630	143060	26852	997846	40997	108485	0	0	8180	665393	0	0
2024-06-04 01:22:32			0	35501	0	0	0	23038	21630	143116	26930	997811	40985	108485	0	0	8179	665884	0	0
2024-06-04 01:23:32			0	35533	0	0	0	23031	21620	143096	27211	997829	40984	108482	0	0	8181	664493	0	0
2024-06-04 01:24:32			0	35523	0	0	0	23023	21630	143088	26828	997811	40997	108479	0	0	8181	664902	0	0
2024-06-04 01:25:32			0	35529	0	0	0	23038	21630	143036	26863	997820	40997	108485	0	0	8181	664635	0	0
2024-06-04 01:26:32			0	35529	0	0	0	23023	21630	143076	27121	997811	40985	108479	0	0	8181	664635	0	0
2024-06-04 01:27:32			0	35539	0	0	0	23031	21630	143064	27296	997838	40997	108482	0	0	8181	664189	0	0
2024-06-04 01:28:32			0	35531	0	0	0	23025	21620	142964	27265	997776	41017	108480	0	0	8181	664583	0	0
2024-06-04 01:29:32			0	35541	0	0	0	23020	21610	142960	26911	997786	41006	108478	0	0	8182	664174	0	0
2024-06-04 01:30:32			0	35544	0	0	0	23023	21610	142924	27076	997732	40984	108479	0	0	8182	664040	0	0
2024-06-04 01:31:32			0	35559	0	0	0	23023	21620	142960	26760	997768	40984	108479	0	0	8183	663336	0	0
2024-06-04 01:32:32			0	35548	0	0	0	23010	21610	142952	26982	997706	40984	108474	0	0	8182	663862	0	0
2024-06-04 01:33:32			0	35558	0	0	0	23002	21620	142944	27066	997723	40996	108471	0	0	8183	663380	0	0
2024-06-04 01:34:32			0	35584	0	0	0	22999	21610	142912	27041	997786	40996	108470	0	0	8184	662260	0	0
2024-06-04 01:35:32			0	35563	0	0	0	22989	21600	142952	27192	997636	40983	108466	0	0	8183	663231	0	0
2024-06-04 01:36:32			0	35550	0	0	0	22989	21610	142892	27204	997751	40983	108466	0	0	8183	663773	0	0
2024-06-04 01:37:32			0	35579	0	0	0	22981	21600	142896	27235	997689	40983	108463	0	0	8184	662520	0	0
2024-06-04 01:38:32			0	35586	0	0	0	22979	21590	142916	27374	997592	40970	108462	0	0	8185	662245	0	0
2024-06-04 01:39:32			0	35578	0	0	0	22984	21590	142884	26927	997672	40982	108464	0	0	8184	662601	0	0
2024-06-04 01:40:32			0	35588	0	0	0	22981	21600	142820	27242	997654	40993	108463	0	0	8185	662119	0	0
2024-06-04 01:41:32			0	35580	0	0	0	22992	21600	142832	27384	997574	40970	108467	0	0	8184	662475	0	0
2024-06-04 01:42:32			0	35569	0	0	0	22979	21590	142828	27397	997610	40982	108462	0	0	8184	663001	0	0
2024-06-04 01:43:32			0	35546	0	0	0	22976	21590	142940	27209	997637	40993	108461	0	0	8182	664025	0	0
2024-06-04 01:44:32			0	35526	0	0	0	22976	21580	143056	27287	997602	40970	108461	0	0	8181	664953	0	0
2024-06-04 01:45:32			0	35507	0	0	0	22974	21590	143172	27138	997610	40993	108460	0	0	8180	665764	0	0
2024-06-04 01:46:32			0	35477	0	0	0	22974	21580	143308	27313	997575	41002	108460	0	0	8179	667141	0	0
2024-06-04 01:47:32			0	35450	0	0	0	22971	21580	143484	27381	997567	40969	108459	0	0	8177	668348	0	0
2024-06-04 01:48:32			0	35407	0	0	0	22971	21580	143584	27289	997620	40991	108459	0	0	8175	670275	0	0
2024-06-04 01:49:32			0	35358	0	0	0	22958	21580	143736	27383	997567	40991	108454	0	0	8173	672475	0	0
2024-06-04 01:50:32			0	35348	0	0	0	22966	21570	143860	27180	997523	40980	108457	0	0	8172	672962	0	0
2024-06-04 01:51:32			0	35314	0	0	0	22955	21560	143960	27384	997488	40968	108453	0	0	8170	674531	0	0
2024-06-04 01:52:32			0	35296	0	0	0	22961	21570	144108	27440	997505	40991	108455	0	0	8169	675304	0	0
2024-06-04 01:53:32			0	35257	0	0	0	22945	21560	144224	26835	997480	40967	108449	0	0	8167	677103	0	0
2024-06-04 01:54:32			0	35247	0	0	0	22948	21570	144248	27017	997496	40980	108450	0	0	8167	677517	0	0
2024-06-04 01:55:32			0	35225	0	0	0	22948	21560	144276	27161	997461	40979	108450	0	0	8165	678550	0	0
2024-06-04 01:56:32			0	35210	0	0	0	22955	21560	144392	27414	997515	40990	108453	0	0	8164	679229	0	0
2024-06-04 01:57:32			0	35187	0	0	0	22958	21560	144520	27178	997515	40979	108454	0	0	8163	680271	0	0
2024-06-04 01:58:32			0	35184	0	0	0	22958	21550	144632	27265	997498	41000	108454	0	0	8163	680445	0	0
2024-06-04 01:59:32			0	35140	0	0	0	22958	21560	144608	27390	997480	40989	108454	0	0	8161	682405	0	0
2024-06-04 02:00:32			0	35128	0	0	0	22955	21560	144708	27183	997541	40979	108453	0	0	8160	682951	0	0
2024-06-04 02:01:32			0	35124	0	0	0	22953	21550	144820	27248	997516	40989	108452	0	0	8160	683170	0	0
2024-06-04 02:02:32			0	35107	0	0	0	22958	21550	144763	27079	997489	40978	108454	0	0	8159	683944	0	0
2024-06-04 02:03:32			0	35083	0	0	0	22958	21550	144931	27010	997471	40967	108454	0	0	8157	685037	0	0
2024-06-04 02:04:32			0	35077	0	0	0	22953	21550	144931	26601	997418	40989	108452	0	0	8157	685311	0	0
2024-06-04 02:05:32			0	35061	0	0	0	22961	21560	144967	27142	997480	40967	108455	0	0	8156	686002	0	0
2024-06-04 02:06:32			0	35051	0	0	0	22958	21560	145171	27050	997426	40989	108454	0	0	8156	686459	0	0
2024-06-04 02:07:32			0	35017	0	0	0	22950	21550	145095	27123	997471	40989	108451	0	0	8154	688051	0	0
2024-06-04 02:08:32			0	35005	0	0	0	22953	21550	145231	26845	997551	40978	108452	0	0	8153	688599	0	0
2024-06-04 02:09:32			0	35009	0	0	0	22955	21550	145279	27248	997445	40989	108453	0	0	8153	688417	0	0
2024-06-04 02:10:32			0	35004	0	0	0	22948	21540	145327	27256	997454	40988	108450	0	0	8153	688683	0	0
2024-06-04 02:11:32			0	34974	0	0	0	22935	21550	145375	26868	997445	40967	108445	0	0	8152	690019	0	0
2024-06-04 02:12:32			0	34961	0	0	0	22927	21550	145303	27301	997436	40978	108442	0	0	8151	690615	0	0
2024-06-04 02:13:32			0	34973	0	0	0	22929	21550	145415	26928	997383	40978	108443	0	0	8152	690065	0	0
2024-06-04 02:14:32			0	34979	0	0	0	22927	21550	145519	27270	997409	40989	108442	0	0	8152	689790	0	0
2024-06-04 02:15:32			0	34947	0	0	0	22927	21540	145375	26941	997401	40977	108442	0	0	8150	691296	0	0
2024-06-04 02:16:32			0	34967	0	0	0	22932	21540	145503	26613	997419	40976	108444	0	0	8151	690378	0	0
2024-06-04 02:17:32			0	34960	0	0	0	22932	21530	145383	26958	997331	40964	108444	0	0	8151	690738	0	0
2024-06-04 02:18:32			0	34968	0	0	0	22927	21530	145291	27027	997384	40975	108442	0	0	8152	690371	0	0
2024-06-04 02:19:32			0	34982	0	0	0	22932	21540	145279	27182	997393	40988	108444	0	0	8152	689691	0	0
2024-06-04 02:20:32			0	35007	0	0	0	22929	21530	145175	27027	997358	40987	108443	0	0	8154	688585	0	0
2024-06-04 02:21:32			0	35027	0	0	0	22927	21530	145167	27024	997304	40975	108442	0	0	8155	687670	0	0
2024-06-04 02:22:32			0	35029	0	0	0	22932	21520	145167	27071	997314	40987	108444	0	0	8155	687617	0	0
2024-06-04 02:23:32			0	35019	0	0	0	22927	21540	145159	27135	997393	40976	108442	0	0	8154	687997	0	0
2024-06-04 02:24:32			0	35018	0	0	0	22929	21530	145211	26974	997376	40975	108443	0	0	8154	688081	0	0
2024-06-04 02:25:32			0	35011	0	0	0	22935	21530	145235	27428	997376	40975	108445	0	0	8154	688401	0	0
2024-06-04 02:26:32			0	34993	0	0	0	22937	21530	145319	27081	997358	40987	108446	0	0	8153	689225	0	0
2024-06-04 02:27:32			0	34977	0	0	0	22919	21520	145287	27301	997359	40975	108439	0	0	8152	689997	0	0
2024-06-04 02:28:32			0	34994	0	0	0	22909	21530	145339	27150	997322	40975	108435	0	0	8153	689180	0	0
2024-06-04 02:29:32			0	34969	0	0	0	22909	21510	145387	27069	997271	40962	108435	0	0	8152	690402	0	0
2024-06-04 02:30:32			0	34967	0	0	0	22909	21510	145375	26996	997271	40974	108435	0	0	8152	690494	0	0
2024-06-04 02:31:32			0	34947	0	0	0	22922	21510	145447	26779	997235	40985	108440	0	0	8150	691411	0	0
2024-06-04 02:32:32			0	34949	0	0	0	22911	21520	145535	26568	997332	40975	108436	0	0	8151	691281	0	0
2024-06-04 02:33:32			0	34931	0	0	0	22901	21500	145527	26897	997280	40985	108432	0	0	8150	692184	0	0
2024-06-04 02:34:32			0	34935	0	0	0	22901	21510	145519	27209	997262	40974	108432	0	0	8150	691962	0	0
2024-06-04 02:35:32			0	34945	0	0	0	22903	21500	145479	27275	997254	40974	108433	0	0	8151	691541	0	0
2024-06-04 02:36:32			0	34955	0	0	0	22893	21500	145487	27199	997280	40985	108429	0	0	8151	691082	0	0
2024-06-04 02:37:32			0	34974	0	0	0	22901	21500	145451	27003	997280	40985	108432	0	0	8152	690211	0	0
2024-06-04 02:38:32			0	34965	0	0	0	22898	21510	145515	27157	997289	40996	108431	0	0	8152	690585	0	0
2024-06-04 02:39:32			0	34965	0	0	0	22896	21500	145443	26868	997254	40985	108430	0	0	8152	690624	0	0
2024-06-04 02:40:32			0	34962	0	0	0	22890	21490	145483	27048	997210	40961	108428	0	0	8152	690800	0	0
2024-06-04 02:41:32			0	34950	0	0	0	22890	21500	145535	26984	997227	40974	108428	0	0	8151	691312	0	0
2024-06-04 02:42:32			0	34927	0	0	0	22880	21500	145587	26814	997227	40974	108424	0	0	8150	692368	0	0
2024-06-04 02:43:32			0	34897	0	0	0	22880	21490	145623	27261	997210	40972	108424	0	0	8148	693786	0	0
2024-06-04 02:44:32			0	34918	0	0	0	22877	21490	145707	26944	997184	40972	108423	0	0	8149	692820	0	0
2024-06-04 02:45:32			0	34901	0	0	0	22870	21490	145755	27116	997104	40972	108420	0	0	8149	693602	0	0
2024-06-04 02:46:32			0	34868	0	0	0	22870	21480	145779	27135	997078	40960	108420	0	0	8147	695160	0	0
2024-06-04 02:47:32			0	34851	0	0	0	22870	21480	146031	26849	997105	40982	108420	0	0	8146	695944	0	0
2024-06-04 02:48:32			0	34824	0	0	0	22870	21480	146071	27142	997113	40961	108420	0	0	8144	697190	0	0
2024-06-04 02:49:32			0	34815	0	0	0	22857	21470	145999	26998	997176	40970	108415	0	0	8144	697645	0	0
2024-06-04 02:50:32			0	34797	0	0	0	22857	21480	146087	27048	997105	40960	108415	0	0	8143	698439	0	0
2024-06-04 02:51:32			0	34829	0	0	0	22851	21470	146055	26993	997123	40970	108413	0	0	8145	696999	0	0
2024-06-04 02:52:32			0	34814	0	0	0	22851	21470	146075	27005	997070	40981	108413	0	0	8144	697691	0	0
2024-06-04 02:53:32			0	34839	0	0	0	22859	21470	145923	27187	997088	40992	108416	0	0	8145	696537	0	0
2024-06-04 02:54:32			0	34839	0	0	0	22854	21470	146079	26982	997070	40970	108414	0	0	8145	696537	0	0
2024-06-04 02:55:32			0	34816	0	0	0	22846	21470	146011	27116	997088	40980	108411	0	0	8144	697599	0	0
2024-06-04 02:56:32			0	34814	0	0	0	22846	21460	146083	26927	997053	40980	108411	0	0	8144	697730	0	0
2024-06-04 02:57:32			0	34817	0	0	0	22849	21460	146107	27050	997098	40958	108412	0	0	8144	697592	0	0
2024-06-04 02:58:32			0	34770	0	0	0	22838	21460	146251	26928	997018	40980	108408	0	0	8142	699766	0	0
2024-06-04 02:59:32			0	34747	0	0	0	22825	21440	146351	27118	996992	40957	108403	0	0	8141	700910	0	0
2024-06-04 03:00:32			0	34709	0	0	0	22831	21460	146431	27204	996965	40969	108405	0	0	8139	702596	0	0
2024-06-04 03:01:32			0	34682	0	0	0	22825	21440	146719	27208	996931	40979	108403	0	0	8137	703930	0	0
2024-06-04 03:02:32			0	34642	0	0	0	22825	21440	146891	26960	996957	40957	108403	0	0	8135	705793	0	0
2024-06-04 03:03:32			0	34589	0	0	0	22828	21440	146971	26915	996992	40979	108404	0	0	8132	708268	0	0
2024-06-04 03:04:32			0	34560	0	0	0	22828	21430	147235	27338	996967	40966	108404	0	0	8130	709664	0	0
2024-06-04 03:05:32			0	34538	0	0	0	22841	21440	147291	27071	996957	40979	108409	0	0	8129	710655	0	0
2024-06-04 03:06:32			0	34489	0	0	0	22836	21420	147407	27114	996932	40966	108407	0	0	8126	713034	0	0
2024-06-04 03:07:32			0	34478	0	0	0	22836	21440	147351	27022	996957	40979	108407	0	0	8126	713472	0	0
2024-06-04 03:08:32			0	34483	0	0	0	22838	21420	147527	27147	996959	40955	108408	0	0	8126	713316	0	0
2024-06-04 03:09:32			0	34468	0	0	0	22833	21440	147515	27175	996957	40979	108406	0	0	8125	713942	0	0
2024-06-04 03:10:32			0	34451	0	0	0	22828	21430	147623	27320	996922	40978	108404	0	0	8124	714782	0	0
2024-06-04 03:11:32			0	34448	0	0	0	22820	21420	147611	27185	996959	40966	108401	0	0	8124	714963	0	0
2024-06-04 03:12:32			0	34441	0	0	0	22818	21430	147603	27086	996940	40977	108400	0	0	8124	715253	0	0
2024-06-04 03:13:32			0	34453	0	0	0	22828	21430	147611	27374	996967	40988	108404	0	0	8124	714688	0	0
2024-06-04 03:14:32			0	34452	0	0	0	22825	21440	147575	27324	996957	40979	108403	0	0	8124	714695	0	0
2024-06-04 03:15:32			0	34467	0	0	0	22833	21440	147539	27083	996984	40967	108406	0	0	8125	713989	0	0
2024-06-04 03:16:32			0	34452	0	0	0	22841	21440	147523	27052	996984	40979	108409	0	0	8124	714695	0	0
2024-06-04 03:17:32			0	34462	0	0	0	22841	21430	147487	27027	996994	40977	108409	0	0	8124	714264	0	0
2024-06-04 03:18:32			0	34480	0	0	0	22841	21430	147443	26979	997020	40955	108409	0	0	8125	713418	0	0
2024-06-04 03:19:32			0	34491	0	0	0	22844	21430	147519	26996	996994	40955	108410	0	0	8126	712900	0	0
2024-06-04 03:20:32			0	34487	0	0	0	22854	21430	147415	27296	997002	40967	108414	0	0	8126	713088	0	0
2024-06-04 03:21:32			0	34501	0	0	0	22851	21430	147403	27275	996975	40978	108413	0	0	8126	712431	0	0
2024-06-04 03:22:32			0	34508	0	0	0	22851	21440	147195	27192	997037	40990	108413	0	0	8127	712063	0	0
2024-06-04 03:23:32			0	34517	0	0	0	22841	21430	147175	27093	997002	40978	108409	0	0	8128	711680	0	0
2024-06-04 03:24:32			0	34548	0	0	0	22841	21430	147187	27053	996967	40988	108409	0	0	8129	710226	0	0
2024-06-04 03:25:32			0	34568	0	0	0	22844	21430	147123	26901	997002	40978	108410	0	0	8130	709289	0	0
2024-06-04 03:26:32			0	34565	0	0	0	22857	21440	147139	26944	996957	40990	108415	0	0	8130	709390	0	0
2024-06-04 03:27:32			0	34572	0	0	0	22846	21440	146963	27241	996992	40979	108411	0	0	8131	709063	0	0
2024-06-04 03:28:32			0	34583	0	0	0	22841	21430	147067	27020	996949	40967	108409	0	0	8131	708588	0	0
2024-06-04 03:29:32			0	34592	0	0	0	22838	21430	147019	27161	996949	40978	108408	0	0	8132	708167	0	0
2024-06-04 03:30:32			0	34583	0	0	0	22838	21440	146939	26913	997037	40957	108408	0	0	8131	708548	0	0
2024-06-04 03:31:32			0	34599	0	0	0	22844	21440	146939	27218	997019	40979	108410	0	0	8132	707800	0	0
2024-06-04 03:32:32			0	34588	0	0	0	22838	21440	147019	27215	996957	40979	108408	0	0	8132	708314	0	0
2024-06-04 03:33:32			0	34603	0	0	0	22844	21430	146939	27126	997002	40967	108410	0	0	8132	707653	0	0
2024-06-04 03:34:32			0	34614	0	0	0	22851	21430	146963	27100	996975	40978	108413	0	0	8133	707139	0	0
2024-06-04 03:35:32			0	34614	0	0	0	22849	21430	146867	27079	997002	40967	108412	0	0	8133	707139	0	0
2024-06-04 03:36:32			0	34628	0	0	0	22841	21440	146903	27216	996957	40990	108409	0	0	8134	706446	0	0
2024-06-04 03:37:32			0	34643	0	0	0	22844	21430	146863	27092	996949	40989	108410	0	0	8135	705786	0	0
2024-06-04 03:38:32			0	34631	0	0	0	22838	21430	146867	27279	997029	40978	108408	0	0	8134	706345	0	0
2024-06-04 03:39:32			0	34648	0	0	0	22838	21440	146879	27194	997011	40979	108408	0	0	8135	705513	0	0
2024-06-04 03:40:32			0	34655	0	0	0	22831	21430	146787	27118	996975	40989	108405	0	0	8135	705226	0	0
2024-06-04 03:41:32			0	34658	0	0	0	22838	21430	146739	26981	997002	40978	108408	0	0	8135	705087	0	0
2024-06-04 03:42:32			0	34666	0	0	0	22844	21430	146671	26722	996949	40978	108410	0	0	8136	704714	0	0
2024-06-04 03:43:32			0	34676	0	0	0	22831	21440	146583	27234	996931	40967	108405	0	0	8137	704209	0	0
2024-06-04 03:44:32			0	34685	0	0	0	22823	21430	146599	27055	996975	40967	108402	0	0	8137	703829	0	0
2024-06-04 03:45:32			0	34686	0	0	0	22833	21430	146603	26850	996940	40977	108406	0	0	8137	703783	0	0
2024-06-04 03:46:32			0	34693	0	0	0	22851	21430	146503	26878	997002	40989	108413	0	0	8137	703457	0	0
2024-06-04 03:47:32			0	34688	0	0	0	22841	21430	146463	26746	996994	40977	108409	0	0	8137	703690	0	0
2024-06-04 03:48:32			0	34718	0	0	0	22841	21430	146483	27175	996994	40966	108409	0	0	8139	702295	0	0
2024-06-04 03:49:32			0	34723	0	0	0	22836	21430	146411	27057	997020	40977	108407	0	0	8139	702063	0	0
2024-06-04 03:50:32			0	34717	0	0	0	22846	21430	146391	27055	996940	40955	108411	0	0	8139	702342	0	0
2024-06-04 03:51:32			0	34749	0	0	0	22859	21440	146379	26861	997064	40967	108416	0	0	8140	700817	0	0
2024-06-04 03:52:32			0	34738	0	0	0	22877	21450	146327	26793	997036	40980	108423	0	0	8139	701289	0	0
2024-06-04 03:53:32			0	34749	0	0	0	22880	21450	146363	27066	997116	40968	108424	0	0	8140	700778	0	0
2024-06-04 03:54:32			0	34752	0	0	0	22888	21450	146319	27156	997081	40967	108427	0	0	8140	700639	0	0
2024-06-04 03:55:32			0	34747	0	0	0	22880	21460	146291	27000	997106	40980	108424	0	0	8140	700832	0	0
2024-06-04 03:56:32			0	34752	0	0	0	22870	21460	146351	27039	997159	40980	108420	0	0	8140	700600	0	0
2024-06-04 03:57:32			0	34776	0	0	0	22890	21460	146347	26776	997178	40980	108428	0	0	8141	699488	0	0
2024-06-04 03:58:32			0	34754	0	0	0	22903	21470	146367	27095	997141	40992	108433	0	0	8140	700469	0	0
2024-06-04 03:59:32			0	34777	0	0	0	22911	21470	146379	26908	997195	40992	108436	0	0	8141	699403	0	0
2024-06-04 04:00:32			0	34766	0	0	0	22911	21480	146299	27036	997185	40993	108436	0	0	8140	699874	0	0
2024-06-04 04:01:32			0	34764	0	0	0	22898	21470	146235	26811	997203	40981	108431	0	0	8141	700005	0	0
2024-06-04 04:02:32			0	34779	0	0	0	22901	21470	146295	26809	997203	40993	108432	0	0	8141	699311	0	0
2024-06-04 04:03:32			0	34778	0	0	0	22888	21480	146187	27020	997185	40993	108427	0	0	8141	699318	0	0
2024-06-04 04:04:32			0	34770	0	0	0	22890	21470	146187	27003	997141	40980	108428	0	0	8141	699727	0	0
2024-06-04 04:05:32			0	34768	0	0	0	22875	21480	146227	26668	997158	40982	108422	0	0	8141	699781	0	0
2024-06-04 04:06:32			0	34786	0	0	0	22870	21470	146163	26616	997097	40981	108420	0	0	8142	698987	0	0
2024-06-04 04:07:32			0	34802	0	0	0	22867	21470	146215	26807	997203	40981	108419	0	0	8143	698246	0	0
2024-06-04 04:08:32			0	34777	0	0	0	22872	21470	146127	27197	997141	40969	108421	0	0	8142	699403	0	0
2024-06-04 04:09:32			0	34784	0	0	0	22867	21470	146123	26870	997176	40981	108419	0	0	8142	699079	0	0
2024-06-04 04:10:32			0	34792	0	0	0	22862	21470	146115	26935	997097	40981	108417	0	0	8143	698709	0	0
2024-06-04 04:11:32			0	34809	0	0	0	22867	21470	146051	27126	997115	40980	108419	0	0	8144	697923	0	0
2024-06-04 04:12:32			0	34820	0	0	0	22867	21460	146011	27360	997151	40969	108419	0	0	8144	697453	0	0
2024-06-04 04:13:32			0	34843	0	0	0	22875	21460	146019	27178	997106	40969	108422	0	0	8145	696391	0	0
2024-06-04 04:14:32			0	34816	0	0	0	22862	21470	145907	26857	997115	40980	108417	0	0	8144	697599	0	0
2024-06-04 04:15:32			0	34841	0	0	0	22859	21470	145903	26904	997088	40969	108416	0	0	8145	696444	0	0
2024-06-04 04:16:32			0	34852	0	0	0	22859	21460	145875	26805	997098	40980	108416	0	0	8146	695975	0	0
2024-06-04 04:17:32			0	34866	0	0	0	22846	21460	145787	27038	997080	40969	108411	0	0	8147	695330	0	0
2024-06-04 04:18:32			0	34887	0	0	0	22851	21470	145815	27310	997088	40958	108413	0	0	8148	694324	0	0
2024-06-04 04:19:32			0	34883	0	0	0	22849	21460	145683	27107	997071	40969	108412	0	0	8148	694546	0	0
2024-06-04 04:20:32			0	34897	0	0	0	22838	21450	145619	27183	997036	40968	108408	0	0	8149	693940	0	0
2024-06-04 04:21:32			0	34896	0	0	0	22825	21460	145627	26939	997018	40980	108403	0	0	8149	693948	0	0
2024-06-04 04:22:32			0	34915	0	0	0	22831	21440	145519	26849	996966	40967	108405	0	0	8150	693151	0	0
2024-06-04 04:23:32			0	34915	0	0	0	22825	21440	145571	26845	997037	40967	108403	0	0	8150	693151	0	0
2024-06-04 04:24:32			0	34935	0	0	0	22823	21440	145635	27175	996984	40990	108402	0	0	8151	692231	0	0
2024-06-04 04:25:32			0	34943	0	0	0	22838	21430	145495	27017	996922	40978	108408	0	0	8151	691902	0	0
2024-06-04 04:26:32			0	34952	0	0	0	22846	21430	145535	26844	997002	40989	108411	0	0	8152	691489	0	0
2024-06-04 04:27:32			0	34961	0	0	0	22851	21430	145507	27078	996975	40967	108413	0	0	8152	691076	0	0
2024-06-04 04:28:32			0	34961	0	0	0	22841	21440	145495	26765	997011	40979	108409	0	0	8152	691038	0	0
2024-06-04 04:29:32			0	34957	0	0	0	22849	21440	145455	26759	997019	40979	108412	0	0	8152	691221	0	0
2024-06-04 04:30:32			0	34964	0	0	0	22862	21440	145483	27157	997072	40979	108417	0	0	8152	690900	0	0
2024-06-04 04:31:32			0	34969	0	0	0	22877	21440	145383	26837	997072	40990	108423	0	0	8152	690670	0	0
2024-06-04 04:32:32			0	34962	0	0	0	22888	21440	145471	26856	997125	40990	108427	0	0	8151	690992	0	0
2024-06-04 04:33:32			0	34968	0	0	0	22893	21460	145431	27100	997159	40992	108429	0	0	8152	690640	0	0
2024-06-04 04:34:32			0	34990	0	0	0	22906	21470	145371	27112	997203	40981	108434	0	0	8153	689593	0	0
2024-06-04 04:35:32			0	34973	0	0	0	22911	21470	145443	27046	997248	40980	108436	0	0	8152	690372	0	0
2024-06-04 04:36:32			0	34981	0	0	0	22914	21460	145475	26946	997213	40980	108437	0	0	8152	690044	0	0
2024-06-04 04:37:32			0	34960	0	0	0	22922	21480	145387	27086	997326	40983	108440	0	0	8151	690930	0	0
2024-06-04 04:38:32			0	34972	0	0	0	22937	21480	145547	26821	997300	40994	108446	0	0	8151	690379	0	0
2024-06-04 04:39:32			0	34961	0	0	0	22940	21490	145423	26939	997308	40994	108447	0	0	8151	690846	0	0
2024-06-04 04:40:32			0	34961	0	0	0	22940	21500	145307	26828	997405	40995	108447	0	0	8151	690807	0	0
2024-06-04 04:41:32			0	34968	0	0	0	22935	21490	145339	27171	997343	40972	108445	0	0	8151	690524	0	0
2024-06-04 04:42:32			0	34967	0	0	0	22942	21500	145323	27086	997298	40984	108448	0	0	8151	690532	0	0
2024-06-04 04:43:32			0	34970	0	0	0	22950	21500	145335	26802	997352	40995	108451	0	0	8151	690394	0	0
2024-06-04 04:44:32			0	34987	0	0	0	22955	21510	145271	26849	997430	40985	108453	0	0	8152	689577	0	0
2024-06-04 04:45:32			0	34984	0	0	0	22948	21510	145323	26951	997404	40985	108450	0	0	8152	689714	0	0
2024-06-04 04:46:32			0	34991	0	0	0	22953	21520	145255	26906	997359	40997	108452	0	0	8152	689355	0	0
2024-06-04 04:47:32			0	35002	0	0	0	22948	21520	145307	27170	997439	40986	108450	0	0	8153	688852	0	0
2024-06-04 04:48:32			0	34990	0	0	0	22940	21520	145275	27156	997394	40975	108447	0	0	8152	689401	0	0
2024-06-04 04:49:32			0	35009	0	0	0	22937	21530	145147	27041	997429	40998	108446	0	0	8154	688493	0	0
2024-06-04 04:50:32			0	35008	0	0	0	22942	21520	145271	27015	997420	40998	108448	0	0	8153	688577	0	0
2024-06-04 04:51:32			0	35021	0	0	0	22945	21530	145187	26717	997411	41008	108449	0	0	8154	687944	0	0
2024-06-04 04:52:32			0	35034	0	0	0	22932	21520	145191	27296	997420	40987	108444	0	0	8155	687388	0	0
2024-06-04 04:53:32			0	35043	0	0	0	22935	21520	145067	27395	997385	40986	108445	0	0	8155	686977	0	0
2024-06-04 04:54:32			0	35050	0	0	0	22927	21520	145055	27060	997367	40987	108442	0	0	8156	686657	0	0
2024-06-04 04:55:32			0	35048	0	0	0	22929	21510	145003	27102	997350	40985	108443	0	0	8156	686787	0	0
2024-06-04 04:56:32			0	35057	0	0	0	22919	21530	144975	27052	997402	40998	108439	0	0	8157	686300	0	0
2024-06-04 04:57:32			0	35068	0	0	0	22916	21510	144923	26608	997404	40974	108438	0	0	8157	685874	0	0
2024-06-04 04:58:32			0	35085	0	0	0	22922	21520	144963	26970	997359	40975	108440	0	0	8158	685060	0	0
2024-06-04 04:59:32			0	35088	0	0	0	22911	21510	144991	27175	997377	40985	108436	0	0	8158	684962	0	0
2024-06-04 05:00:32			0	35126	0	0	0	22911	21510	144892	27203	997342	40974	108436	0	0	8160	683231	0	0
2024-06-04 05:01:32			0	35118	0	0	0	22906	21510	144860	27194	997324	40974	108434	0	0	8160	683595	0	0
2024-06-04 05:02:32			0	35126	0	0	0	22901	21510	144860	26927	997315	40974	108432	0	0	8161	683231	0	0
2024-06-04 05:03:32			0	35117	0	0	0	22898	21500	144684	26866	997272	40995	108431	0	0	8160	683679	0	0
2024-06-04 05:04:32			0	35154	0	0	0	22901	21500	144620	26689	997227	41006	108432	0	0	8162	681996	0	0
2024-06-04 05:05:32			0	35163	0	0	0	22896	21490	144608	26918	997237	40983	108430	0	0	8163	681625	0	0
2024-06-04 05:06:32			0	35166	0	0	0	22898	21500	144572	27128	997325	41005	108431	0	0	8163	681451	0	0
2024-06-04 05:07:32			0	35167	0	0	0	22914	21500	144520	26871	997360	40996	108437	0	0	8163	681406	0	0
2024-06-04 05:08:32			0	35184	0	0	0	22914	21510	144612	26961	997342	40985	108437	0	0	8164	680597	0	0
2024-06-04 05:09:32			0	35193	0	0	0	22932	21500	144576	26922	997360	40985	108444	0	0	8164	680226	0	0
2024-06-04 05:10:32			0	35205	0	0	0	22929	21510	144608	26932	997315	40985	108443	0	0	8164	679644	0	0
2024-06-04 05:11:32			0	35206	0	0	0	22922	21500	144428	26890	997333	40974	108440	0	0	8165	679637	0	0
2024-06-04 05:12:32			0	35233	0	0	0	22901	21510	144308	26932	997297	40985	108432	0	0	8166	678376	0	0
2024-06-04 05:13:32			0	35232	0	0	0	22896	21500	144364	26889	997307	40985	108430	0	0	8166	678459	0	0
2024-06-04 05:14:32			0	35262	0	0	0	22893	21490	144296	26752	997255	40983	108429	0	0	8168	677140	0	0
2024-06-04 05:15:32			0	35265	0	0	0	22893	21500	144220	26882	997307	40996	108429	0	0	8168	676967	0	0
2024-06-04 05:16:32			0	35299	0	0	0	22888	21500	144188	26807	997272	40984	108427	0	0	8170	675432	0	0
2024-06-04 05:17:32			0	35301	0	0	0	22890	21500	144112	26873	997272	40973	108428	0	0	8170	675342	0	0
2024-06-04 05:18:32			0	35310	0	0	0	22903	21500	144040	26658	997245	40995	108433	0	0	8171	674936	0	0
2024-06-04 05:19:32			0	35329	0	0	0	22896	21500	143972	27055	997280	40974	108430	0	0	8172	674080	0	0
2024-06-04 05:20:32			0	35348	0	0	0	22909	21510	143924	26757	997289	40985	108435	0	0	8173	673187	0	0
2024-06-04 05:21:32			0	35344	0	0	0	22901	21490	143884	26727	997263	40983	108432	0	0	8172	673442	0	0
2024-06-04 05:22:32			0	35377	0	0	0	22914	21490	143812	26739	997317	40994	108437	0	0	8174	671958	0	0
2024-06-04 05:23:32			0	35382	0	0	0	22922	21490	143704	27121	997343	40983	108440	0	0	8174	671733	0	0
2024-06-04 05:24:32			0	35397	0	0	0	22927	21510	143660	26934	997315	40985	108442	0	0	8175	670985	0	0
2024-06-04 05:25:32			0	35407	0	0	0	22922	21500	143604	26856	997280	40996	108440	0	0	8175	670573	0	0
2024-06-04 05:26:32			0	35443	0	0	0	22922	21510	143512	27060	997342	40985	108440	0	0	8177	668922	0	0
2024-06-04 05:27:32			0	35478	0	0	0	22929	21510	143500	26998	997368	40985	108443	0	0	8179	667356	0	0
2024-06-04 05:28:32			0	35499	0	0	0	22932	21510	143336	27038	997395	40996	108444	0	0	8180	666418	0	0
2024-06-04 05:29:32			0	35525	0	0	0	22929	21520	143168	26828	997385	40986	108443	0	0	8182	665220	0	0
2024-06-04 05:30:32			0	35553	0	0	0	22922	21510	143096	26840	997404	40985	108440	0	0	8183	664009	0	0
2024-06-04 05:31:32			0	35590	0	0	0	22927	21510	143016	27097	997404	40996	108442	0	0	8185	662362	0	0
2024-06-04 05:32:32			0	35607	0	0	0	22922	21510	142816	27000	997377	40985	108440	0	0	8186	661606	0	0
2024-06-04 05:33:32			0	35642	0	0	0	22919	21510	142716	26779	997368	40996	108439	0	0	8188	660053	0	0
2024-06-04 05:34:32			0	35653	0	0	0	22927	21520	142600	27227	997359	40997	108442	0	0	8189	659528	0	0
2024-06-04 05:35:32			0	35703	0	0	0	22922	21510	142520	27111	997289	40985	108440	0	0	8192	657351	0	0
2024-06-04 05:36:32			0	35718	0	0	0	22927	21510	142304	27098	997350	40985	108442	0	0	8192	656688	0	0
2024-06-04 05:37:32			0	35746	0	0	0	22922	21510	142192	26972	997368	40974	108440	0	0	8194	655451	0	0
2024-06-04 05:38:32			0	35776	0	0	0	22916	21510	142116	26996	997324	40996	108438	0	0	8196	654128	0	0
2024-06-04 05:39:32			0	35813	0	0	0	22919	21510	141936	26757	997350	40985	108439	0	0	8197	652499	0	0
2024-06-04 05:40:32			0	35822	0	0	0	22906	21500	141920	27086	997333	40985	108434	0	0	8198	652140	0	0
2024-06-04 05:41:32			0	35852	0	0	0	22909	21500	141800	27277	997333	40996	108435	0	0	8200	650822	0	0
2024-06-04 05:42:32			0	35908	0	0	0	22906	21500	141601	27209	997280	41006	108434	0	0	8203	648366	0	0
2024-06-04 05:43:32			0	35907	0	0	0	22909	21510	141569	26759	997324	41006	108435	0	0	8203	648374	0	0
2024-06-04 05:44:32			0	35920	0	0	0	22909	21510	141529	26724	997342	40996	108435	0	0	8203	647805	0	0
2024-06-04 05:45:32			0	35957	0	0	0	22911	21510	141397	26720	997342	40974	108436	0	0	8205	646187	0	0
2024-06-04 05:46:32			0	35982	0	0	0	22911	21500	141265	27071	997333	40996	108436	0	0	8207	645132	0	0
2024-06-04 05:47:32			0	36000	0	0	0	22916	21500	141149	27022	997387	40985	108438	0	0	8208	644347	0	0
2024-06-04 05:48:32			0	36026	0	0	0	22911	21510	141153	27109	997289	40985	108436	0	0	8209	643178	0	0
2024-06-04 05:49:32			0	36042	0	0	0	22914	21500	141057	27060	997333	40985	108437	0	0	8210	642517	0	0
2024-06-04 05:50:32			0	36073	0	0	0	22914	21500	140889	27097	997360	40996	108437	0	0	8211	641169	0	0
2024-06-04 05:51:32			0	36088	0	0	0	22909	21500	140925	27074	997360	40996	108435	0	0	8212	640518	0	0
2024-06-04 05:52:32			0	36112	0	0	0	22911	21500	140825	26890	997298	40984	108436	0	0	8214	639477	0	0
2024-06-04 05:53:32			0	36124	0	0	0	22914	21490	140777	26861	997290	40994	108437	0	0	8214	638992	0	0
2024-06-04 05:54:32			0	36135	0	0	0	22909	21500	140609	26863	997272	40984	108435	0	0	8215	638480	0	0
2024-06-04 05:55:32			0	36165	0	0	0	22914	21490	140589	27098	997237	40994	108437	0	0	8216	637217	0	0
2024-06-04 05:56:32			0	36184	0	0	0	22898	21500	140513	26859	997333	40996	108431	0	0	8218	636360	0	0
2024-06-04 05:57:32			0	36212	0	0	0	22896	21500	140453	26658	997333	40985	108430	0	0	8219	635151	0	0
2024-06-04 05:58:32			0	36236	0	0	0	22901	21500	140309	27005	997298	40984	108432	0	0	8220	634116	0	0
2024-06-04 05:59:32			0	36253	0	0	0	22896	21490	140173	26944	997290	40983	108430	0	0	8221	633419	0	0
2024-06-04 06:00:32			0	36298	0	0	0	22901	21490	140169	26906	997237	40994	108432	0	0	8224	631482	0	0
2024-06-04 06:01:32			0	36323	0	0	0	22890	21500	139993	26991	997245	40984	108428	0	0	8225	630373	0	0
2024-06-04 06:02:32			0	36327	0	0	0	22901	21500	139989	26913	997280	40985	108432	0	0	8225	630202	0	0
2024-06-04 06:03:32			0	36344	0	0	0	22890	21500	139837	26883	997272	40973	108428	0	0	8226	629472	0	0
2024-06-04 06:04:32			0	36353	0	0	0	22896	21500	139809	26861	997272	40995	108430	0	0	8227	629086	0	0
2024-06-04 06:05:32			0	36375	0	0	0	22896	21490	139757	26873	997237	40961	108430	0	0	8228	628179	0	0
2024-06-04 06:06:32			0	36416	0	0	0	22888	21480	139733	27007	997246	40994	108427	0	0	8230	626459	0	0
2024-06-04 06:07:32			0	36419	0	0	0	22893	21490	139613	26661	997255	40972	108429	0	0	8230	626296	0	0
2024-06-04 06:08:32			0	36439	0	0	0	22885	21480	139481	26679	997273	40983	108426	0	0	8231	625477	0	0
2024-06-04 06:09:32			0	36465	0	0	0	22890	21480	139477	26923	997220	40983	108428	0	0	8233	624367	0	0
2024-06-04 06:10:32			0	36465	0	0	0	22893	21490	139473	26863	997255	40994	108429	0	0	8233	624333	0	0
2024-06-04 06:11:32			0	36479	0	0	0	22888	21480	139385	27003	997211	40993	108427	0	0	8233	623771	0	0
2024-06-04 06:12:32			0	36489	0	0	0	22883	21480	139329	26738	997132	40993	108425	0	0	8234	623345	0	0
2024-06-04 06:13:32			0	36501	0	0	0	22867	21480	139361	26641	997193	40983	108419	0	0	8235	622834	0	0
2024-06-04 06:14:32			0	36481	0	0	0	22880	21490	139369	26935	997228	40983	108424	0	0	8234	623651	0	0
2024-06-04 06:15:32			0	36501	0	0	0	22877	21470	139277	26677	997141	40980	108423	0	0	8235	622868	0	0
2024-06-04 06:16:32			0	36529	0	0	0	22875	21480	139229	26887	997238	40993	108422	0	0	8236	621642	0	0
2024-06-04 06:17:32			0	36503	0	0	0	22875	21470	139293	26719	997176	40981	108422	0	0	8235	622783	0	0
2024-06-04 06:18:32			0	36506	0	0	0	22872	21470	139281	27381	997176	40993	108421	0	0	8235	622655	0	0
2024-06-04 06:19:32			0	36531	0	0	0	22870	21470	139341	27005	997203	40981	108420	0	0	8236	621592	0	0
2024-06-04 06:20:32			0	36516	0	0	0	22872	21470	139257	26922	997168	40992	108421	0	0	8236	622230	0	0
2024-06-04 06:21:32			0	36526	0	0	0	22883	21470	139273	26807	997176	40981	108425	0	0	8236	621804	0	0
2024-06-04 06:22:32			0	36520	0	0	0	22872	21460	139265	27284	997178	40969	108421	0	0	8236	622094	0	0
2024-06-04 06:23:32			0	36502	0	0	0	22877	21470	139297	26844	997230	40981	108423	0	0	8235	622826	0	0
2024-06-04 06:24:32			0	36501	0	0	0	22875	21470	139369	26760	997115	40980	108422	0	0	8235	622868	0	0
2024-06-04 06:25:32			0	36494	0	0	0	22877	21470	139397	26953	997203	40993	108423	0	0	8234	623166	0	0
2024-06-04 06:26:32			0	36478	0	0	0	22880	21470	139433	27060	997221	40980	108424	0	0	8233	623848	0	0
2024-06-04 06:27:32			0	36468	0	0	0	22883	21470	139377	27039	997168	40992	108425	0	0	8233	624274	0	0
2024-06-04 06:28:32			0	36466	0	0	0	22880	21470	139529	27067	997230	40993	108424	0	0	8233	624359	0	0
2024-06-04 06:29:32			0	36459	0	0	0	22888	21470	139489	26856	997230	40981	108427	0	0	8232	624658	0	0
2024-06-04 06:30:32			0	36451	0	0	0	22872	21470	139593	27067	997230	40993	108421	0	0	8232	624999	0	0
2024-06-04 06:31:32			0	36441	0	0	0	22883	21470	139689	26977	997221	40980	108425	0	0	8231	625426	0	0
2024-06-04 06:32:32			0	36444	0	0	0	22875	21470	139521	26606	997203	40981	108422	0	0	8232	625298	0	0
2024-06-04 06:33:32			0	36425	0	0	0	22870	21470	139597	26842	997150	40981	108420	0	0	8231	626110	0	0
2024-06-04 06:34:32			0	36408	0	0	0	22867	21480	139665	27000	997238	40971	108419	0	0	8230	626801	0	0
2024-06-04 06:35:32			0	36408	0	0	0	22877	21460	139753	26960	997159	40992	108423	0	0	8230	626871	0	0
2024-06-04 06:36:32			0	36402	0	0	0	22864	21460	139729	26847	997151	40980	108418	0	0	8230	627128	0	0
2024-06-04 06:37:32			0	36370	0	0	0	22864	21460	139765	27000	997124	41002	108418	0	0	8228	628498	0	0
2024-06-04 06:38:32			0	36364	0	0	0	22857	21470	139925	27050	997168	40980	108415	0	0	8228	628720	0	0
2024-06-04 06:39:32			0	36334	0	0	0	22851	21460	139981	26701	997151	40980	108413	0	0	8226	630041	0	0
2024-06-04 06:40:32			0	36324	0	0	0	22854	21460	140041	26819	997159	40969	108414	0	0	8226	630470	0	0
2024-06-04 06:41:32			0	36315	0	0	0	22854	21450	140077	26771	997089	40980	108414	0	0	8225	630892	0	0
2024-06-04 06:42:32			0	36280	0	0	0	22846	21460	140133	26915	997151	40980	108411	0	0	8223	632362	0	0
2024-06-04 06:43:32			0	36273	0	0	0	22841	21440	140253	27306	997099	40990	108409	0	0	8223	632733	0	0
2024-06-04 06:44:32			0	36259	0	0	0	22846	21450	140257	27050	997142	40991	108411	0	0	8222	633301	0	0
2024-06-04 06:45:32			0	36239	0	0	0	22854	21460	140301	26901	997159	40980	108414	0	0	8221	634128	0	0
2024-06-04 06:46:32			0	36224	0	0	0	22841	21460	140349	27074	997151	40980	108409	0	0	8221	634774	0	0
2024-06-04 06:47:32			0	36218	0	0	0	22854	21450	140413	27093	997054	40979	108414	0	0	8220	635069	0	0
2024-06-04 06:48:32			0	36191	0	0	0	22846	21460	140425	26739	997071	40969	108411	0	0	8219	636199	0	0
2024-06-04 06:49:32			0	36182	0	0	0	22841	21460	140505	27104	997151	40969	108409	0	0	8218	636588	0	0
2024-06-04 06:50:32			0	36184	0	0	0	22849	21450	140585	27213	997054	40979	108412	0	0	8218	636537	0	0
2024-06-04 06:51:32			0	36166	0	0	0	22836	21440	140641	27164	997064	40979	108407	0	0	8217	637351	0	0
2024-06-04 06:52:32			0	36165	0	0	0	22833	21440	140605	26701	997090	41000	108406	0	0	8217	637394	0	0
2024-06-04 06:53:32			0	36135	0	0	0	22844	21460	140713	26717	997071	41002	108410	0	0	8216	638622	0	0
2024-06-04 06:54:32			0	36130	0	0	0	22844	21440	140729	26837	997072	40967	108410	0	0	8215	638910	0	0
2024-06-04 06:55:32			0	36113	0	0	0	22836	21440	140813	26906	997037	40967	108407	0	0	8215	639647	0	0
2024-06-04 06:56:32			0	36105	0	0	0	22833	21430	140869	27098	997055	40978	108406	0	0	8214	640029	0	0
2024-06-04 06:57:32			0	36076	0	0	0	22833	21430	140825	27194	997020	40966	108406	0	0	8213	641289	0	0
2024-06-04 06:58:32			0	36053	0	0	0	22838	21440	141001	26897	997064	40990	108408	0	0	8211	642253	0	0
2024-06-04 06:59:32			0	36057	0	0	0	22825	21440	140969	27050	997011	40979	108403	0	0	8212	642079	0	0
2024-06-04 07:00:32			0	36015	0	0	0	22833	21430	141069	26826	997055	40978	108406	0	0	8209	643943	0	0
2024-06-04 07:01:32			0	35995	0	0	0	22831	21430	141225	27111	997073	40977	108405	0	0	8208	644815	0	0
2024-06-04 07:02:32			0	35971	0	0	0	22836	21430	141265	26975	997020	40977	108407	0	0	8207	645863	0	0
2024-06-04 07:03:32			0	35957	0	0	0	22838	21440	141301	27216	997064	40967	108408	0	0	8206	646439	0	0
2024-06-04 07:04:32			0	35936	0	0	0	22833	21430	141361	26901	997020	40977	108406	0	0	8205	647393	0	0
2024-06-04 07:05:32			0	35922	0	0	0	22833	21420	141473	26807	996985	40977	108406	0	0	8204	648041	0	0
2024-06-04 07:06:32			0	35900	0	0	0	22828	21430	141525	26996	997020	40977	108404	0	0	8203	648969	0	0
2024-06-04 07:07:32			0	35851	0	0	0	22818	21420	141696	27142	997012	40977	108400	0	0	8201	651155	0	0
2024-06-04 07:08:32			0	35865	0	0	0	22807	21420	141701	26861	997012	40966	108396	0	0	8202	650540	0	0
2024-06-04 07:09:32			0	35841	0	0	0	22807	21420	141876	27140	996950	40977	108396	0	0	8200	651594	0	0
2024-06-04 07:10:32			0	35832	0	0	0	22792	21420	141952	27201	996924	40977	108390	0	0	8200	651990	0	0
2024-06-04 07:11:32			0	35809	0	0	0	22794	21400	141952	27098	996951	40963	108391	0	0	8199	653075	0	0
2024-06-04 07:12:32			0	35793	0	0	0	22789	21420	142072	27281	996959	40966	108389	0	0	8198	653707	0	0
2024-06-04 07:13:32			0	35811	0	0	0	22779	21400	142020	26961	996880	40975	108385	0	0	8199	652987	0	0
2024-06-04 07:14:32			0	35790	0	0	0	22781	21400	141920	27053	996774	40964	108386	0	0	8198	653911	0	0
2024-06-04 07:15:32			0	35804	0	0	0	22781	21400	141980	26970	996845	40974	108386	0	0	8199	653295	0	0
2024-06-04 07:16:32			0	35803	0	0	0	22763	21390	142028	26923	996855	40963	108379	0	0	8199	653375	0	0
2024-06-04 07:17:32			0	35813	0	0	0	22758	21380	141904	26850	996846	40984	108377	0	0	8200	652971	0	0
2024-06-04 07:18:32			0	35824	0	0	0	22755	21380	141904	26989	996785	40961	108376	0	0	8200	652487	0	0
2024-06-04 07:19:32			0	35850	0	0	0	22758	21390	141904	27076	996855	40974	108377	0	0	8202	651308	0	0
2024-06-04 07:20:32			0	35850	0	0	0	22763	21390	141784	26727	996810	40963	108379	0	0	8202	651308	0	0
2024-06-04 07:21:32			0	35859	0	0	0	22776	21390	141816	27180	996881	40974	108384	0	0	8202	650912	0	0
2024-06-04 07:22:32			0	35897	0	0	0	22776	21380	141717	26977	996873	40962	108384	0	0	8204	649281	0	0
2024-06-04 07:23:32			0	35910	0	0	0	22784	21390	141653	27104	996855	40985	108387	0	0	8204	648675	0	0
2024-06-04 07:24:32			0	35898	0	0	0	22794	21380	141721	26786	996785	40972	108391	0	0	8204	649237	0	0
2024-06-04 07:25:32			0	35906	0	0	0	22794	21390	141609	26949	996881	40985	108391	0	0	8204	648850	0	0
2024-06-04 07:26:32			0	35907	0	0	0	22792	21390	141597	26741	996881	40985	108390	0	0	8204	648806	0	0
2024-06-04 07:27:32			0	35900	0	0	0	22794	21390	141601	26701	996855	40997	108391	0	0	8204	649113	0	0
2024-06-04 07:28:32			0	35931	0	0	0	22789	21390	141613	26953	996890	40974	108389	0	0	8205	647755	0	0
2024-06-04 07:29:32			0	35947	0	0	0	22768	21380	141465	26960	996864	40972	108381	0	0	8207	647091	0	0
2024-06-04 07:30:32			0	35952	0	0	0	22763	21390	141433	27329	996783	40953	108379	0	0	8207	646837	0	0
2024-06-04 07:31:32			0	35977	0	0	0	22755	21380	141501	26786	996713	40973	108376	0	0	8208	645780	0	0
2024-06-04 07:32:32			0	35967	0	0	0	22745	21370	141429	27043	996776	40972	108372	0	0	8208	646253	0	0
2024-06-04 07:33:32			0	35970	0	0	0	22729	21380	141485	27225	996705	40961	108366	0	0	8209	646086	0	0
2024-06-04 07:34:32			0	35976	0	0	0	22690	21370	141281	27232	996688	40961	108351	0	0	8209	645860	0	0
2024-06-04 07:35:32			0	35976	0	0	0	22670	21370	141417	27074	996582	40961	108343	0	0	8210	645860	0	0
2024-06-04 07:36:32			0	35962	0	0	0	22657	21350	141473	26972	996503	40959	108338	0	0	8209	646543	0	0
2024-06-04 07:37:32			0	35957	0	0	0	22615	21340	141305	27215	996451	40958	108322	0	0	8210	646798	0	0
2024-06-04 07:38:32			0	35980	0	0	0	22605	21320	141373	27301	996399	40958	108318	0	0	8211	645864	0	0
2024-06-04 07:39:32			0	35962	0	0	0	22589	21320	141421	27263	996364	40957	108312	0	0	8210	646651	0	0
2024-06-04 07:40:32			0	35934	0	0	0	22563	21310	141509	26955	996222	40945	108302	0	0	8209	647912	0	0
2024-06-04 07:41:32			0	35936	0	0	0	22535	21300	141529	27234	996144	40955	108291	0	0	8210	647860	0	0
2024-06-04 07:42:32			0	35911	0	0	0	22519	21280	141601	27154	996084	40942	108285	0	0	8209	649028	0	0
2024-06-04 07:43:32			0	35892	0	0	0	22501	21260	141725	27331	995917	40940	108278	0	0	8208	649933	0	0
2024-06-04 07:44:32			0	35878	0	0	0	22488	21240	141749	27208	995971	40938	108273	0	0	8207	650620	0	0
2024-06-04 07:45:32			0	35828	0	0	0	22464	21230	141984	27322	995839	40926	108264	0	0	8205	652855	0	0
2024-06-04 07:46:32			0	35800	0	0	0	22457	21210	141992	27438	995734	40924	108261	0	0	8203	654161	0	0
2024-06-04 07:47:32			0	35765	0	0	0	22444	21190	142296	26937	995700	40934	108256	0	0	8202	655778	0	0
2024-06-04 07:48:32			0	35731	0	0	0	22446	21180	142416	27046	995622	40932	108257	0	0	8200	657317	0	0
2024-06-04 07:49:32			0	35680	0	0	0	22425	21160	142552	27376	995623	40931	108249	0	0	8197	659650	0	0
2024-06-04 07:50:32			0	35654	0	0	0	22431	21160	142720	27111	995535	40942	108251	0	0	8196	660804	0	0
2024-06-04 07:51:32			0	35599	0	0	0	22436	21150	142968	27053	995580	40908	108253	0	0	8193	663287	0	0
2024-06-04 07:52:32			0	35570	0	0	0	22438	21150	143020	26958	995544	40952	108254	0	0	8191	664579	0	0
2024-06-04 07:53:32			0	35553	0	0	0	22490	21150	143160	27036	995704	40952	108274	0	0	8189	665338	0	0
2024-06-04 07:54:32			0	35505	0	0	0	22571	21150	143292	27133	995784	40941	108305	0	0	8185	667483	0	0
2024-06-04 07:55:32			0	35489	0	0	0	22662	21160	143380	27050	995969	40975	108340	0	0	8183	668162	0	0
2024-06-04 07:56:32			0	35484	0	0	0	22688	21180	143620	27372	996056	40977	108350	0	0	8182	668312	0	0
2024-06-04 07:57:32			0	35489	0	0	0	22672	21200	143600	26885	996107	40967	108344	0	0	8183	668014	0	0
2024-06-04 07:58:32			0	35507	0	0	0	22690	21210	143352	27095	996160	40958	108351	0	0	8184	667171	0	0
2024-06-04 07:59:32			0	35526	0	0	0	22722	21230	143292	27211	996291	40970	108363	0	0	8184	666248	0	0
2024-06-04 08:00:32			0	35519	0	0	0	22724	21230	143260	27398	996247	40970	108364	0	0	8184	666561	0	0
2024-06-04 08:01:32			0	35510	0	0	0	22706	21240	143296	27173	996290	40960	108357	0	0	8184	666926	0	0
2024-06-04 08:02:32			0	35507	0	0	0	22690	21250	143344	27187	996334	40961	108351	0	0	8184	667023	0	0
2024-06-04 08:03:32			0	35523	0	0	0	22693	21260	143360	27194	996316	40962	108352	0	0	8185	666271	0	0
2024-06-04 08:04:32			0	35512	0	0	0	22706	21260	143308	27012	996351	40962	108357	0	0	8184	666762	0	0
2024-06-04 08:05:32			0	35526	0	0	0	22724	21260	143216	27019	996369	40962	108364	0	0	8184	666137	0	0
2024-06-04 08:06:32			0	35538	0	0	0	22735	21280	143212	26830	996358	40964	108368	0	0	8185	665527	0	0
2024-06-04 08:07:32			0	35543	0	0	0	22714	21290	143092	27093	996446	40976	108360	0	0	8185	665267	0	0
2024-06-04 08:08:32			0	35562	0	0	0	22680	21290	143124	27112	996455	40964	108347	0	0	8187	664420	0	0
2024-06-04 08:09:32			0	35616	0	0	0	22623	21290	142756	27317	996420	40964	108325	0	0	8191	662015	0	0
2024-06-04 08:10:32			0	35711	0	0	0	22605	21290	142404	27033	996313	40954	108318	0	0	8196	657801	0	0
2024-06-04 08:11:32			0	35796	0	0	0	22607	21270	142176	27346	996288	40963	108319	0	0	8201	654119	0	0
2024-06-04 08:12:32			0	35842	0	0	0	22659	21280	141964	26963	996323	40963	108339	0	0	8202	652057	0	0
2024-06-04 08:13:32			0	35858	0	0	0	22670	21270	141833	27680	996368	40952	108343	0	0	8203	651390	0	0
2024-06-04 08:14:32			0	35845	0	0	0	22636	21280	141852	27059	996350	40963	108330	0	0	8203	651925	0	0
2024-06-04 08:15:32			0	35837	0	0	0	22623	21290	141936	27239	996287	40943	108325	0	0	8203	652241	0	0
2024-06-04 08:16:32			0	35813	0	0	0	22579	21270	142048	27241	996155	40952	108308	0	0	8202	653370	0	0
2024-06-04 08:17:32			0	35773	0	0	0	22566	21260	142060	27263	996111	40940	108303	0	0	8200	655170	0	0
2024-06-04 08:18:32			0	35780	0	0	0	22561	21250	142176	27234	996121	40951	108301	0	0	8201	654898	0	0
2024-06-04 08:19:32			0	35777	0	0	0	22545	21240	142192	27008	996051	40938	108295	0	0	8201	655066	0	0
2024-06-04 08:20:32			0	35782	0	0	0	22571	21230	142180	26901	996025	40949	108305	0	0	8200	654882	0	0
2024-06-04 08:21:32			0	35791	0	0	0	22563	21230	142144	26883	996025	40937	108302	0	0	8201	654485	0	0
2024-06-04 08:22:32			0	35815	0	0	0	22545	21220	142164	27086	995902	40936	108295	0	0	8203	653463	0	0
2024-06-04 08:23:32			0	35817	0	0	0	22522	21220	142048	26908	995929	40936	108286	0	0	8203	653375	0	0
2024-06-04 08:24:32			0	35795	0	0	0	22522	21200	142172	27112	995823	40924	108286	0	0	8202	654418	0	0
2024-06-04 08:25:32			0	35779	0	0	0	22509	21190	142276	26942	995780	40923	108281	0	0	8201	655160	0	0
2024-06-04 08:26:32			0	35737	0	0	0	22509	21190	142272	26720	995771	40933	108281	0	0	8199	657016	0	0
2024-06-04 08:27:32			0	35730	0	0	0	22519	21190	142456	27119	995745	40933	108285	0	0	8198	657325	0	0
2024-06-04 08:28:32			0	35713	0	0	0	22519	21180	142440	27277	995763	40933	108285	0	0	8197	658114	0	0
2024-06-04 08:29:32			0	35688	0	0	0	22535	21170	142536	27055	995791	40931	108291	0	0	8196	659258	0	0
2024-06-04 08:30:32			0	35691	0	0	0	22545	21170	142572	27076	995799	40943	108295	0	0	8196	659125	0	0
2024-06-04 08:31:32			0	35691	0	0	0	22542	21180	142576	27268	995808	40943	108294	0	0	8196	659089	0	0
2024-06-04 08:32:32			0	35723	0	0	0	22581	21170	142372	27215	995826	40943	108309	0	0	8197	657708	0	0
2024-06-04 08:33:32			0	35747	0	0	0	22633	21180	142280	27088	996002	40955	108329	0	0	8197	656610	0	0
2024-06-04 08:34:32			0	35763	0	0	0	22685	21190	142280	27301	996126	40967	108349	0	0	8197	655866	0	0
2024-06-04 08:35:32			0	35787	0	0	0	22659	21200	142104	27069	996134	40967	108339	0	0	8199	654770	0	0
2024-06-04 08:36:32			0	35806	0	0	0	22631	21220	142176	26897	996195	40968	108328	0	0	8201	653860	0	0
2024-06-04 08:37:32			0	35824	0	0	0	22612	21220	141976	27183	996088	40947	108321	0	0	8202	653067	0	0
2024-06-04 08:38:32			0	35847	0	0	0	22610	21210	141928	27504	996027	40958	108320	0	0	8203	652091	0	0
2024-06-04 08:39:32			0	35821	0	0	0	22599	21220	141876	27256	996009	40947	108316	0	0	8202	653199	0	0
2024-06-04 08:40:32			0	35862	0	0	0	22579	21210	141848	27128	996000	40958	108308	0	0	8205	651431	0	0
2024-06-04 08:41:32			0	35852	0	0	0	22545	21200	141700	27303	995895	40945	108295	0	0	8205	651907	0	0
2024-06-04 08:42:32			0	35894	0	0	0	22532	21210	141705	27187	995912	40924	108290	0	0	8207	650026	0	0
2024-06-04 08:43:32			0	35907	0	0	0	22519	21190	141689	26941	995860	40945	108285	0	0	8208	649527	0	0
2024-06-04 08:44:32			0	35897	0	0	0	22522	21190	141701	27107	995745	40933	108286	0	0	8207	649966	0	0
2024-06-04 08:45:32			0	35888	0	0	0	22503	21170	141741	27112	995746	40943	108279	0	0	8207	650433	0	0
2024-06-04 08:46:32			0	35869	0	0	0	22449	21160	141909	26925	995668	40919	108258	0	0	8207	651304	0	0
2024-06-04 08:47:32			0	35812	0	0	0	22420	21150	141968	27312	995571	40929	108247	0	0	8204	653849	0	0
2024-06-04 08:48:32			0	35764	0	0	0	22433	21120	142280	27211	995449	40927	108252	0	0	8201	656077	0	0
2024-06-04 08:49:32			0	35706	0	0	0	22488	21130	142432	27166	995652	40950	108273	0	0	8197	658607	0	0
2024-06-04 08:50:32			0	35677	0	0	0	22503	21140	142628	27173	995634	40951	108279	0	0	8196	659856	0	0
2024-06-04 08:51:32			0	35626	0	0	0	22462	21140	142852	26759	995634	40951	108263	0	0	8194	662122	0	0
2024-06-04 08:52:32			0	35582	0	0	0	22428	21120	143036	27024	995502	40927	108250	0	0	8192	664155	0	0
2024-06-04 08:53:32			0	35557	0	0	0	22501	21110	143132	27008	995618	40926	108278	0	0	8189	665307	0	0
2024-06-04 08:54:32			0	35518	0	0	0	22625	21140	143264	27258	995847	40940	108326	0	0	8185	666938	0	0
2024-06-04 08:55:32			0	35482	0	0	0	22561	21150	143444	27279	995864	40962	108301	0	0	8184	668513	0	0
2024-06-04 08:56:32			0	35497	0	0	0	22527	21160	143340	27202	995809	40954	108288	0	0	8186	667804	0	0
2024-06-04 08:57:32			0	35484	0	0	0	22524	21160	143216	27254	995854	40942	108287	0	0	8185	668386	0	0
2024-06-04 08:58:32			0	35527	0	0	0	22620	21170	143252	26955	996004	40954	108324	0	0	8186	666425	0	0
2024-06-04 08:59:32			0	35539	0	0	0	22610	21170	143188	26750	996012	40955	108320	0	0	8186	665889	0	0
2024-06-04 09:00:32			0	35542	0	0	0	22542	21190	143108	27133	995931	40944	108294	0	0	8188	665681	0	0
2024-06-04 09:01:32			0	35566	0	0	0	22493	21180	143036	27350	995808	40921	108275	0	0	8190	664647	0	0
2024-06-04 09:02:32			0	35600	0	0	0	22475	21160	142828	27003	995694	40930	108268	0	0	8192	663206	0	0
2024-06-04 09:03:32			0	35619	0	0	0	22462	21150	142836	27237	995633	40929	108263	0	0	8193	662397	0	0
2024-06-04 09:04:32			0	35648	0	0	0	22529	21150	142740	26887	995757	40952	108289	0	0	8194	661107	0	0
2024-06-04 09:05:32			0	35640	0	0	0	22628	21160	142716	26613	995854	40953	108327	0	0	8192	661426	0	0
2024-06-04 09:06:32			0	35670	0	0	0	22628	21170	142728	27079	995977	40954	108327	0	0	8193	660057	0	0
2024-06-04 09:07:32			0	35653	0	0	0	22592	21180	142720	26994	995861	40955	108313	0	0	8193	660775	0	0
2024-06-04 09:08:32			0	35667	0	0	0	22524	21180	142660	26960	995834	40932	108287	0	0	8195	660153	0	0
2024-06-04 09:09:32			0	35700	0	0	0	22522	21160	142532	26918	995783	40942	108286	0	0	8197	658763	0	0
2024-06-04 09:10:32			0	35676	0	0	0	22529	21160	142608	26798	995836	40931	108289	0	0	8195	659827	0	0
2024-06-04 09:11:32			0	35705	0	0	0	22555	21160	142472	27067	995889	40931	108299	0	0	8196	658541	0	0
2024-06-04 09:12:32			0	35726	0	0	0	22527	21160	142404	27279	995889	40942	108288	0	0	8198	657612	0	0
2024-06-04 09:13:32			0	35739	0	0	0	22524	21170	142404	26920	995791	40931	108287	0	0	8199	657000	0	0
2024-06-04 09:14:32			0	35748	0	0	0	22535	21160	142336	27076	995756	40942	108291	0	0	8199	656638	0	0
2024-06-04 09:15:32			0	35740	0	0	0	22563	21170	142296	27227	995791	40931	108302	0	0	8198	656956	0	0
2024-06-04 09:16:32			0	35773	0	0	0	22576	21160	142324	27085	995836	40954	108307	0	0	8200	655534	0	0
2024-06-04 09:17:32			0	35768	0	0	0	22527	21160	142220	27194	995801	40942	108288	0	0	8200	655755	0	0
2024-06-04 09:18:32			0	35789	0	0	0	22496	21150	142148	26998	995704	40918	108276	0	0	8202	654864	0	0
2024-06-04 09:19:32			0	35807	0	0	0	22451	21150	142108	27189	995598	40918	108259	0	0	8204	654070	0	0
2024-06-04 09:20:32			0	35810	0	0	0	22431	21140	142024	26835	995563	40929	108251	0	0	8204	653974	0	0
2024-06-04 09:21:32			0	35788	0	0	0	22441	21120	142104	27201	995556	40927	108255	0	0	8203	655017	0	0
2024-06-04 09:22:32			0	35802	0	0	0	22459	21110	142096	27010	995512	40937	108262	0	0	8203	654436	0	0
2024-06-04 09:23:32			0	35799	0	0	0	22462	21100	142224	26941	995504	40937	108263	0	0	8203	654604	0	0
2024-06-04 09:24:32			0	35800	0	0	0	22441	21100	142232	26755	995557	40916	108255	0	0	8203	654560	0	0
2024-06-04 09:25:32			0	35783	0	0	0	22433	21100	142228	26863	995495	40925	108252	0	0	8202	655310	0	0
2024-06-04 09:26:32			0	35772	0	0	0	22425	21080	142132	27152	995337	40913	108249	0	0	8202	655869	0	0
2024-06-04 09:27:32			0	35786	0	0	0	22410	21080	142252	26925	995355	40913	108243	0	0	8203	655251	0	0
2024-06-04 09:28:32			0	35759	0	0	0	22405	21070	142232	26920	995311	40922	108241	0	0	8201	656480	0	0
2024-06-04 09:29:32			0	35766	0	0	0	22449	21070	142216	27145	995418	40922	108258	0	0	8201	656171	0	0
2024-06-04 09:30:32			0	35751	0	0	0	22477	21060	142412	26902	995436	40933	108269	0	0	8200	656870	0	0
2024-06-04 09:31:32			0	35724	0	0	0	22490	21070	142472	27140	995426	40957	108274	0	0	8198	658029	0	0
2024-06-04 09:32:32			0	35705	0	0	0	22490	21080	142592	26857	995567	40946	108274	0	0	8197	658834	0	0
2024-06-04 09:33:32			0	35717	0	0	0	22503	21080	142524	27090	995523	40946	108279	0	0	8197	658302	0	0
2024-06-04 09:34:32			0	35689	0	0	0	22509	21080	142600	27008	995576	40946	108281	0	0	8196	659543	0	0
2024-06-04 09:35:32			0	35666	0	0	0	22509	21090	142656	26849	995531	40935	108281	0	0	8195	660528	0	0
2024-06-04 09:36:32			0	35645	0	0	0	22511	21090	142680	27088	995566	40936	108282	0	0	8193	661461	0	0
2024-06-04 09:37:32			0	35632	0	0	0	22535	21100	142864	27239	995655	40958	108291	0	0	8192	662002	0	0
2024-06-04 09:38:32			0	35600	0	0	0	22545	21090	142880	26824	995646	40936	108295	0	0	8190	663463	0	0
2024-06-04 09:39:32			0	35577	0	0	0	22545	21110	143056	27235	995672	40948	108295	0	0	8189	664415	0	0
2024-06-04 09:40:32			0	35551	0	0	0	22537	21110	143104	27277	995698	40948	108292	0	0	8188	665575	0	0
2024-06-04 09:41:32			0	35578	0	0	0	22527	21120	143068	26897	995688	40927	108288	0	0	8190	664333	0	0
2024-06-04 09:42:32			0	35547	0	0	0	22553	21110	143164	27017	995672	40926	108298	0	0	8188	665753	0	0
2024-06-04 09:43:32			0	35556	0	0	0	22561	21120	143160	27130	995688	40938	108301	0	0	8188	665315	0	0
2024-06-04 09:44:32			0	35564	0	0	0	22553	21130	143080	27041	995750	40939	108298	0	0	8189	664921	0	0
2024-06-04 09:45:32			0	35577	0	0	0	22540	21140	143048	27138	995661	40940	108293	0	0	8190	664304	0	0
2024-06-04 09:46:32			0	35595	0	0	0	22535	21130	143064	26977	995705	40960	108291	0	0	8191	663539	0	0
2024-06-04 09:47:32			0	35599	0	0	0	22558	21140	142916	27081	995740	40961	108300	0	0	8190	663324	0	0
2024-06-04 09:48:32			0	35605	0	0	0	22548	21130	142932	27008	995785	40950	108296	0	0	8191	663093	0	0
2024-06-04 09:49:32			0	35611	0	0	0	22540	21140	142820	27220	995714	40940	108293	0	0	8191	662789	0	0
2024-06-04 09:50:32			0	35625	0	0	0	22522	21130	142772	26670	995732	40950	108286	0	0	8192	662203	0	0
2024-06-04 09:51:32			0	35669	0	0	0	22527	21120	142700	27078	995635	40938	108288	0	0	8195	660285	0	0
2024-06-04 09:52:32			0	35695	0	0	0	22506	21130	142660	26887	995697	40950	108280	0	0	8196	659094	0	0
2024-06-04 09:53:32			0	35690	0	0	0	22511	21110	142544	26840	995574	40938	108282	0	0	8196	659389	0	0
2024-06-04 09:54:32			0	35721	0	0	0	22501	21120	142524	26972	995635	40938	108278	0	0	8198	657979	0	0
2024-06-04 09:55:32			0	35728	0	0	0	22506	21130	142388	27031	995644	40939	108280	0	0	8198	657633	0	0
2024-06-04 09:56:32			0	35736	0	0	0	22509	21110	142336	27203	995653	40938	108281	0	0	8199	657351	0	0
2024-06-04 09:57:32			0	35763	0	0	0	22550	21130	142304	27170	995697	40939	108297	0	0	8199	656085	0	0
2024-06-04 09:58:32			0	35767	0	0	0	22574	21120	142344	26861	995821	40959	108306	0	0	8199	655944	0	0
2024-06-04 09:59:32			0	35759	0	0	0	22615	21130	142248	26779	995830	40960	108322	0	0	8198	656262	0	0
2024-06-04 10:00:32			0	35772	0	0	0	22612	21140	142332	26897	995882	40973	108321	0	0	8199	655651	0	0
2024-06-04 10:01:32			0	35761	0	0	0	22618	21160	142252	27097	995934	40953	108323	0	0	8198	656064	0	0
2024-06-04 10:02:32			0	35754	0	0	0	22620	21150	142312	27192	995925	40962	108324	0	0	8198	656410	0	0
2024-06-04 10:03:32			0	35756	0	0	0	22618	21160	142320	26981	995942	40954	108323	0	0	8198	656285	0	0
2024-06-04 10:04:32			0	35762	0	0	0	22623	21180	142272	27185	995967	40955	108325	0	0	8198	655947	0	0
2024-06-04 10:05:32			0	35739	0	0	0	22612	21170	142252	27013	995959	40955	108321	0	0	8197	657000	0	0
2024-06-04 10:06:32			0	35753	0	0	0	22615	21170	142380	27045	996004	40964	108322	0	0	8198	656381	0	0
2024-06-04 10:07:32			0	35784	0	0	0	22612	21190	142216	27239	996011	40966	108321	0	0	8200	654939	0	0
2024-06-04 10:08:32			0	35834	0	0	0	22618	21190	141920	26691	996011	40955	108323	0	0	8202	652735	0	0
2024-06-04 10:09:32			0	35927	0	0	0	22618	21190	141541	26892	996037	40944	108323	0	0	8207	648651	0	0
2024-06-04 10:10:32			0	35990	0	0	0	22625	21200	141405	27126	996028	40956	108326	0	0	8211	645858	0	0
2024-06-04 10:11:32			0	36039	0	0	0	22646	21200	141281	26923	996089	40957	108334	0	0	8213	643720	0	0
2024-06-04 10:12:32			0	36059	0	0	0	22654	21200	141173	27355	996107	40967	108337	0	0	8214	642848	0	0
2024-06-04 10:13:32			0	36063	0	0	0	22670	21210	141057	27163	996133	40968	108343	0	0	8214	642639	0	0
2024-06-04 10:14:32			0	36112	0	0	0	22659	21220	140881	26948	996123	40969	108339	0	0	8217	640472	0	0
2024-06-04 10:15:32			0	36186	0	0	0	22659	21220	140605	27055	996150	40969	108339	0	0	8221	637264	0	0
2024-06-04 10:16:32			0	36233	0	0	0	22657	21230	140393	27067	996185	40970	108338	0	0	8223	635197	0	0
2024-06-04 10:17:32			0	36242	0	0	0	22657	21230	140393	27457	996185	40959	108338	0	0	8224	634809	0	0
2024-06-04 10:18:32			0	36175	0	0	0	22657	21220	140565	27237	996168	40968	108338	0	0	8220	637740	0	0
2024-06-04 10:19:32			0	36111	0	0	0	22659	21230	140825	26809	996247	40959	108339	0	0	8217	640480	0	0
2024-06-04 10:20:32			0	36061	0	0	0	22672	21240	141109	27142	996264	40960	108344	0	0	8214	642619	0	0
2024-06-04 10:21:32			0	36017	0	0	0	22701	21250	141229	27076	996325	40972	108355	0	0	8211	644500	0	0
2024-06-04 10:22:32			0	35969	0	0	0	22716	21250	141209	27074	996334	40961	108361	0	0	8208	646596	0	0
2024-06-04 10:23:32			0	35975	0	0	0	22724	21270	141453	27192	996412	40952	108364	0	0	8208	646262	0	0
2024-06-04 10:24:32			0	35981	0	0	0	22714	21280	141317	27147	996403	40986	108360	0	0	8209	645964	0	0
2024-06-04 10:25:32			0	36029	0	0	0	22724	21270	141213	27104	996394	40974	108364	0	0	8211	643905	0	0
2024-06-04 10:26:32			0	36063	0	0	0	22714	21280	141029	27128	996429	40963	108360	0	0	8213	642389	0	0
2024-06-04 10:27:32			0	36115	0	0	0	22716	21280	140785	27237	996429	40975	108361	0	0	8216	640129	0	0
2024-06-04 10:28:32			0	36130	0	0	0	22729	21280	140733	26897	996464	40987	108366	0	0	8217	639478	0	0
2024-06-04 10:29:32			0	36149	0	0	0	22729	21280	140529	26904	996491	40964	108366	0	0	8218	638654	0	0
2024-06-04 10:30:32			0	36200	0	0	0	22745	21290	140517	26993	996455	40976	108372	0	0	8220	636411	0	0
2024-06-04 10:31:32			0	36239	0	0	0	22737	21300	140321	27112	996525	40977	108369	0	0	8222	634692	0	0
2024-06-04 10:32:32			0	36281	0	0	0	22742	21300	140161	27026	996551	40966	108371	0	0	8225	632881	0	0
2024-06-04 10:33:32			0	36350	0	0	0	22745	21300	139969	26968	996578	40977	108372	0	0	8228	629915	0	0
2024-06-04 10:34:32			0	36362	0	0	0	22745	21310	139933	27012	996640	40966	108372	0	0	8229	629365	0	0
2024-06-04 10:35:32			0	36348	0	0	0	22758	21320	139837	26993	996603	40978	108377	0	0	8228	629931	0	0
2024-06-04 10:36:32			0	36327	0	0	0	22768	21320	139973	26989	996577	40990	108381	0	0	8227	630832	0	0
2024-06-04 10:37:32			0	36320	0	0	0	22771	21330	140053	27000	996673	40979	108382	0	0	8226	631098	0	0
2024-06-04 10:38:32			0	36348	0	0	0	22776	21320	139977	27232	996691	40979	108384	0	0	8228	629931	0	0
2024-06-04 10:39:32			0	36330	0	0	0	22781	21330	139985	26771	996682	40969	108386	0	0	8227	630668	0	0
2024-06-04 10:40:32			0	36362	0	0	0	22776	21340	139849	27071	996717	40980	108384	0	0	8229	629260	0	0
2024-06-04 10:41:32			0	36423	0	0	0	22779	21340	139665	26916	996779	40958	108385	0	0	8232	626648	0	0
2024-06-04 10:42:32			0	36450	0	0	0	22784	21340	139437	26968	996691	40969	108387	0	0	8233	625494	0	0
2024-06-04 10:43:32			0	36494	0	0	0	22786	21360	139373	26927	996724	40993	108388	0	0	8235	623547	0	0
2024-06-04 10:44:32			0	36528	0	0	0	22792	21350	139177	26953	996796	40982	108390	0	0	8237	622134	0	0
2024-06-04 10:45:32			0	36538	0	0	0	22792	21360	139181	26628	996724	40971	108390	0	0	8238	621674	0	0
2024-06-04 10:46:32			0	36510	0	0	0	22797	21350	139213	26870	996796	40971	108392	0	0	8236	622900	0	0
2024-06-04 10:47:32			0	36503	0	0	0	22786	21360	139305	27005	996831	40993	108388	0	0	8236	623164	0	0
2024-06-04 10:48:32			0	36484	0	0	0	22779	21360	139401	27230	996804	40993	108385	0	0	8235	623973	0	0
2024-06-04 10:49:32			0	36444	0	0	0	22784	21360	139537	27045	996866	40994	108387	0	0	8233	625680	0	0
2024-06-04 10:50:32			0	36368	0	0	0	22792	21370	139673	26948	996821	40984	108390	0	0	8229	628898	0	0
2024-06-04 10:51:32			0	36353	0	0	0	22781	21370	139781	27059	996883	40972	108386	0	0	8228	629541	0	0
2024-06-04 10:52:32			0	36329	0	0	0	22786	21380	139897	27092	996838	40972	108388	0	0	8227	630536	0	0
2024-06-04 10:53:32			0	36313	0	0	0	22789	21370	140081	26946	996856	40984	108389	0	0	8226	631259	0	0
2024-06-04 10:54:32			0	36289	0	0	0	22771	21370	140185	27268	996848	40984	108382	0	0	8225	632291	0	0
2024-06-04 10:55:32			0	36282	0	0	0	22755	21360	140141	26772	996786	40971	108376	0	0	8225	632627	0	0
2024-06-04 10:56:32			0	36229	0	0	0	22753	21360	140205	27168	996706	40983	108375	0	0	8222	634911	0	0
2024-06-04 10:57:32			0	36239	0	0	0	22735	21360	140153	26998	996698	40982	108368	0	0	8223	634480	0	0
2024-06-04 10:58:32			0	36254	0	0	0	22735	21360	140193	26963	996698	40959	108368	0	0	8224	633833	0	0
2024-06-04 10:59:32			0	36249	0	0	0	22727	21360	140201	27145	996644	40971	108365	0	0	8223	634049	0	0
2024-06-04 11:00:32			0	36284	0	0	0	22727	21350	140185	27329	996681	40971	108365	0	0	8225	632576	0	0
2024-06-04 11:01:32			0	36309	0	0	0	22722	21350	140021	27128	996654	40971	108363	0	0	8227	631501	0	0
2024-06-04 11:02:32			0	36367	0	0	0	22727	21350	139777	27008	996654	40982	108365	0	0	8230	629011	0	0
2024-06-04 11:03:32			0	36417	0	0	0	22737	21340	139545	27017	996699	40992	108369	0	0	8232	626904	0	0
2024-06-04 11:04:32			0	36469	0	0	0	22748	21330	139329	26949	996647	40990	108373	0	0	8235	624717	0	0
2024-06-04 11:05:32			0	36503	0	0	0	22742	21340	139293	27170	996611	40958	108371	0	0	8237	623233	0	0
2024-06-04 11:06:32			0	36540	0	0	0	22735	21340	139157	27319	996664	40958	108368	0	0	8239	621658	0	0
2024-06-04 11:07:32			0	36554	0	0	0	22742	21340	139113	27048	996672	40958	108371	0	0	8239	621063	0	0
2024-06-04 11:08:32			0	36550	0	0	0	22737	21340	139153	26977	996664	40980	108369	0	0	8239	621233	0	0
2024-06-04 11:09:32			0	36566	0	0	0	22742	21330	139205	27270	996709	40969	108371	0	0	8240	620587	0	0
2024-06-04 11:10:32			0	36566	0	0	0	22742	21340	139165	27348	996593	40970	108371	0	0	8240	620553	0	0
2024-06-04 11:11:32			0	36561	0	0	0	22750	21330	139097	26783	996655	40969	108374	0	0	8239	620800	0	0
2024-06-04 11:12:32			0	36540	0	0	0	22755	21350	139061	26956	996707	40971	108376	0	0	8238	621623	0	0
2024-06-04 11:13:32			0	36604	0	0	0	22753	21340	138906	27114	996699	40981	108375	0	0	8242	618940	0	0
2024-06-04 11:14:32			0	36621	0	0	0	22758	21340	138846	27038	996699	40970	108377	0	0	8243	618220	0	0
2024-06-04 11:15:32			0	36661	0	0	0	22755	21340	138634	27069	996699	40970	108376	0	0	8245	616527	0	0
2024-06-04 11:16:32			0	36709	0	0	0	22755	21340	138450	26880	996699	40981	108376	0	0	8247	614499	0	0
2024-06-04 11:17:32			0	36744	0	0	0	22766	21350	138542	26706	996707	40982	108380	0	0	8249	612990	0	0
2024-06-04 11:18:32			0	36762	0	0	0	22753	21350	138382	26722	996716	40982	108375	0	0	8250	612232	0	0
2024-06-04 11:19:32			0	36780	0	0	0	22748	21350	138242	27185	996628	40982	108373	0	0	8251	611475	0	0
2024-06-04 11:20:32			0	36809	0	0	0	22766	21340	138170	26902	996752	40981	108380	0	0	8252	610290	0	0
2024-06-04 11:21:32			0	36811	0	0	0	22755	21350	138122	26916	996796	40982	108376	0	0	8253	610172	0	0
2024-06-04 11:22:32			0	36843	0	0	0	22755	21350	138050	27177	996761	40971	108376	0	0	8254	608830	0	0
2024-06-04 11:23:32			0	36842	0	0	0	22755	21350	138010	27286	996787	40971	108376	0	0	8254	608871	0	0
2024-06-04 11:24:32			0	36894	0	0	0	22750	21350	137818	27194	996707	40971	108374	0	0	8257	606694	0	0
2024-06-04 11:25:32			0	36916	0	0	0	22766	21350	137810	26991	996787	40971	108380	0	0	8258	605774	0	0
2024-06-04 11:26:32			0	36928	0	0	0	22774	21350	137774	27083	996761	40982	108383	0	0	8259	605273	0	0
2024-06-04 11:27:32			0	36929	0	0	0	22784	21350	137618	27060	996849	40993	108387	0	0	8258	605231	0	0
2024-06-04 11:28:32			0	36934	0	0	0	22792	21360	137758	27256	996857	40982	108390	0	0	8259	604989	0	0
2024-06-04 11:29:32			0	36944	0	0	0	22792	21360	137666	27123	996839	40983	108390	0	0	8259	604571	0	0
2024-06-04 11:30:32			0	36931	0	0	0	22792	21370	137698	27355	996856	40984	108390	0	0	8258	605080	0	0
2024-06-04 11:31:32			0	36902	0	0	0	22807	21370	137762	26922	996901	40995	108396	0	0	8257	606292	0	0
2024-06-04 11:32:32			0	36913	0	0	0	22805	21360	137874	27293	996866	40994	108395	0	0	8257	605866	0	0
2024-06-04 11:33:32			0	36917	0	0	0	22805	21370	137870	27111	996874	40995	108395	0	0	8258	605665	0	0
2024-06-04 11:34:32			0	36902	0	0	0	22807	21370	137878	27168	996874	40984	108396	0	0	8257	606292	0	0
2024-06-04 11:35:32			0	36865	0	0	0	22815	21380	137926	27116	996918	40984	108399	0	0	8255	607806	0	0
2024-06-04 11:36:32			0	36874	0	0	0	22825	21390	137974	27339	996935	40985	108403	0	0	8255	607396	0	0
2024-06-04 11:37:32			0	36883	0	0	0	22828	21390	137974	27131	997041	40997	108404	0	0	8255	607019	0	0
2024-06-04 11:38:32			0	36865	0	0	0	22838	21390	137954	27178	997049	40974	108408	0	0	8254	607773	0	0
2024-06-04 11:39:32			0	36905	0	0	0	22849	21400	137706	27137	997111	40997	108412	0	0	8256	606065	0	0
2024-06-04 11:40:32			0	36965	0	0	0	22838	21400	137610	27112	997058	41007	108408	0	0	8260	603561	0	0
2024-06-04 11:41:32			0	37008	0	0	0	22851	21420	137526	27033	997057	40977	108413	0	0	8262	601704	0	0
2024-06-04 11:42:32			0	36956	0	0	0	22836	21410	137574	27251	997021	40987	108407	0	0	8259	603903	0	0
2024-06-04 11:43:32			0	36964	0	0	0	22846	21410	137578	27176	997075	40987	108411	0	0	8259	603569	0	0
2024-06-04 11:44:32			0	36964	0	0	0	22859	21430	137614	27239	997100	40999	108416	0	0	8259	603502	0	0
2024-06-04 11:45:32			0	36941	0	0	0	22859	21420	137622	26876	997057	40999	108416	0	0	8258	604495	0	0
2024-06-04 11:46:32			0	36931	0	0	0	22854	21430	137694	27010	997127	40999	108414	0	0	8258	604879	0	0
2024-06-04 11:47:32			0	36908	0	0	0	22864	21430	137794	27095	997215	40989	108418	0	0	8256	605839	0	0
2024-06-04 11:48:32			0	36896	0	0	0	22872	21430	137850	27220	997215	41000	108421	0	0	8256	606341	0	0
2024-06-04 11:49:32			0	36857	0	0	0	22883	21440	137978	27041	997258	41000	108425	0	0	8253	607939	0	0
2024-06-04 11:50:32			0	36825	0	0	0	22896	21440	138086	27187	997232	40990	108430	0	0	8251	609280	0	0
2024-06-04 11:51:32			0	36824	0	0	0	22911	21460	138270	27074	997319	40992	108436	0	0	8251	609254	0	0
2024-06-04 11:52:32			0	36779	0	0	0	22919	21470	138310	26984	997434	41002	108439	0	0	8249	611109	0	0
2024-06-04 11:53:32			0	36765	0	0	0	22937	21470	138190	27239	997363	41025	108446	0	0	8248	611698	0	0
2024-06-04 11:54:32			0	36757	0	0	0	22950	21480	138302	27306	997451	41015	108451	0	0	8247	612000	0	0
2024-06-04 11:55:32			0	36789	0	0	0	22955	21490	138374	27286	997468	40994	108453	0	0	8249	610621	0	0
2024-06-04 11:56:32			0	36793	0	0	0	22953	21480	138194	27550	997433	41005	108452	0	0	8249	610487	0	0
2024-06-04 11:57:32			0	36809	0	0	0	22955	21500	138090	27223	997573	41006	108453	0	0	8250	609748	0	0
2024-06-04 11:58:32			0	36874	0	0	0	22958	21510	138066	27175	997502	41006	108454	0	0	8253	606991	0	0
2024-06-04 11:59:32			0	36902	0	0	0	22953	21510	137842	27372	997555	41006	108452	0	0	8255	605820	0	0
2024-06-04 12:00:32			0	36918	0	0	0	22966	21500	137774	27365	997573	41018	108457	0	0	8255	605186	0	0
2024-06-04 12:01:32			0	36896	0	0	0	22950	21520	137794	27313	997554	41008	108451	0	0	8255	606037	0	0
2024-06-04 12:02:32			0	36890	0	0	0	22950	21520	137862	27343	997633	40998	108451	0	0	8254	606288	0	0
2024-06-04 12:03:32			0	36838	0	0	0	22961	21520	137898	27216	997554	41008	108455	0	0	8251	608464	0	0
2024-06-04 12:04:32			0	36817	0	0	0	22966	21530	138130	27415	997597	41008	108457	0	0	8250	609310	0	0
2024-06-04 12:05:32			0	36757	0	0	0	22999	21540	138206	27204	997738	41032	108470	0	0	8247	611796	0	0
2024-06-04 12:06:32			0	36677	0	0	0	23031	21550	138506	27433	997809	41022	108482	0	0	8242	615132	0	0
2024-06-04 12:07:32			0	36592	0	0	0	23059	21570	138837	27388	997896	41024	108493	0	0	8237	618658	0	0
2024-06-04 12:08:32			0	36517	0	0	0	23080	21580	139157	27365	997921	41025	108501	0	0	8233	621807	0	0
2024-06-04 12:09:32			0	36449	0	0	0	23067	21580	139389	27329	997948	41025	108496	0	0	8229	624702	0	0
2024-06-04 12:10:32			0	36364	0	0	0	23046	21590	139653	27093	997938	41014	108488	0	0	8225	628300	0	0
2024-06-04 12:11:32			0	36312	0	0	0	23038	21600	139917	27306	997920	41026	108485	0	0	8223	630495	0	0
2024-06-04 12:12:32			0	36242	0	0	0	23046	21600	140113	27377	997902	41004	108488	0	0	8219	633505	0	0
2024-06-04 12:13:32			0	36195	0	0	0	23049	21610	140325	27386	997964	41016	108489	0	0	8216	635496	0	0
2024-06-04 12:14:32			0	36118	0	0	0	23036	21600	140525	27613	997955	41004	108484	0	0	8212	638861	0	0
2024-06-04 12:15:32			0	36037	0	0	0	23038	21620	140821	27343	998007	41006	108485	0	0	8208	642306	0	0
2024-06-04 12:16:32			0	35943	0	0	0	23046	21600	141257	27357	997982	41004	108488	0	0	8203	646475	0	0
2024-06-04 12:17:32			0	35872	0	0	0	23057	21620	141445	27353	997989	41040	108492	0	0	8199	649510	0	0
2024-06-04 12:18:32			0	35806	0	0	0	23054	21630	141716	27152	998024	41018	108491	0	0	8195	652372	0	0
2024-06-04 12:19:32			0	35769	0	0	0	23044	21610	141824	27237	997972	41017	108487	0	0	8193	654073	0	0
2024-06-04 12:20:32			0	35731	0	0	0	23057	21620	142016	27097	998007	41028	108492	0	0	8191	655712	0	0
2024-06-04 12:21:32			0	35680	0	0	0	23064	21620	142116	27313	998034	41006	108495	0	0	8188	657966	0	0
2024-06-04 12:22:32			0	35656	0	0	0	23064	21630	142232	27203	998051	41029	108495	0	0	8187	658992	0	0
2024-06-04 12:23:32			0	35627	0	0	0	23088	21630	142392	27474	998112	41019	108504	0	0	8185	660277	0	0
2024-06-04 12:24:32			0	35570	0	0	0	23090	21630	142592	27066	998139	41041	108505	0	0	8182	662809	0	0
2024-06-04 12:25:32			0	35532	0	0	0	23077	21660	142644	27095	998128	41009	108500	0	0	8180	664390	0	0
2024-06-04 12:26:32			0	35523	0	0	0	23096	21650	142868	27434	998164	41031	108507	0	0	8179	664828	0	0
2024-06-04 12:27:32			0	35494	0	0	0	23093	21640	142940	27414	998201	41030	108506	0	0	8178	666159	0	0
2024-06-04 12:28:32			0	35475	0	0	0	23096	21650	142940	27203	998226	41032	108507	0	0	8177	666971	0	0
2024-06-04 12:29:32			0	35465	0	0	0	23103	21660	143180	27310	998208	41021	108510	0	0	8176	667380	0	0
2024-06-04 12:30:32			0	35440	0	0	0	23111	21650	143128	27192	998199	41032	108513	0	0	8175	668536	0	0
2024-06-04 12:31:32			0	35439	0	0	0	23111	21670	143216	27343	998233	41034	108513	0	0	8175	668506	0	0
2024-06-04 12:32:32			0	35439	0	0	0	23114	21680	143236	27261	998242	41044	108514	0	0	8175	668469	0	0
2024-06-04 12:33:32			0	35446	0	0	0	23096	21670	143132	27393	998206	41022	108507	0	0	8175	668193	0	0
2024-06-04 12:34:32			0	35454	0	0	0	23106	21680	143164	27403	998242	41022	108511	0	0	8176	667798	0	0
2024-06-04 12:35:32			0	35451	0	0	0	23119	21680	143108	27485	998330	41023	108516	0	0	8175	667932	0	0
2024-06-04 12:36:32			0	35457	0	0	0	23083	21690	142988	27246	998258	41023	108502	0	0	8176	667626	0	0
2024-06-04 12:37:32			0	35466	0	0	0	23103	21670	143036	27293	998233	41022	108510	0	0	8176	667299	0	0
2024-06-04 12:38:32			0	35461	0	0	0	23088	21680	142864	27398	998250	41023	108504	0	0	8176	667485	0	0
2024-06-04 12:39:32			0	35484	0	0	0	23093	21690	142860	27410	998267	41013	108506	0	0	8178	666420	0	0
2024-06-04 12:40:32			0	35485	0	0	0	23109	21690	142928	27138	998338	41023	108512	0	0	8177	666375	0	0
2024-06-04 12:41:32			0	35497	0	0	0	23090	21680	142832	27469	998330	41035	108505	0	0	8178	665877	0	0
2024-06-04 12:42:32			0	35522	0	0	0	23103	21690	142768	27196	998312	41035	108510	0	0	8179	664725	0	0
2024-06-04 12:43:32			0	35515	0	0	0	23114	21690	142772	27462	998320	41024	108514	0	0	8179	665037	0	0
2024-06-04 12:44:32			0	35532	0	0	0	23077	21710	142604	27263	998364	41025	108500	0	0	8181	664205	0	0
2024-06-04 12:45:32			0	35557	0	0	0	23101	21690	142688	27234	998293	41024	108509	0	0	8181	663166	0	0
2024-06-04 12:46:32			0	35552	0	0	0	23111	21710	142596	27476	998319	41036	108513	0	0	8181	663315	0	0
2024-06-04 12:47:32			0	35550	0	0	0	23111	21700	142604	27362	998329	41013	108513	0	0	8181	663441	0	0
2024-06-04 12:48:32			0	35567	0	0	0	23109	21710	142588	27479	998364	41014	108512	0	0	8182	662648	0	0
2024-06-04 12:49:32			0	35565	0	0	0	23122	21710	142584	27183	998399	41025	108517	0	0	8182	662737	0	0
2024-06-04 12:50:32			0	35562	0	0	0	23124	21710	142672	27601	998399	41025	108518	0	0	8181	662870	0	0
2024-06-04 12:51:32			0	35540	0	0	0	23137	21710	142644	27562	998399	41036	108523	0	0	8180	663849	0	0
2024-06-04 12:52:32			0	35550	0	0	0	23137	21720	142692	27424	998443	41016	108523	0	0	8181	663367	0	0
2024-06-04 12:53:32			0	35527	0	0	0	23150	21720	142820	27020	998487	41037	108528	0	0	8179	664391	0	0
2024-06-04 12:54:32			0	35520	0	0	0	23166	21730	142688	27241	998531	41048	108534	0	0	8178	664666	0	0
2024-06-04 12:55:32			0	35528	0	0	0	23171	21740	142668	27407	998548	41049	108536	0	0	8179	664273	0	0
2024-06-04 12:56:32			0	35505	0	0	0	23163	21750	142712	27336	998565	41040	108533	0	0	8178	665261	0	0
2024-06-04 12:57:32			0	35525	0	0	0	23158	21740	142760	27092	998583	41040	108531	0	0	8179	664406	0	0
2024-06-04 12:58:32			0	35495	0	0	0	23168	21750	142756	27246	998573	41030	108535	0	0	8177	665707	0	0
2024-06-04 12:59:32			0	35504	0	0	0	23184	21750	142884	27213	998600	41041	108541	0	0	8177	665305	0	0
2024-06-04 13:00:32			0	35505	0	0	0	23194	21750	142884	27019	998600	41030	108545	0	0	8177	665261	0	0
2024-06-04 13:01:32			0	35509	0	0	0	23199	21760	142800	27176	998608	41041	108547	0	0	8177	665045	0	0
2024-06-04 13:02:32			0	35504	0	0	0	23205	21770	142792	27173	998625	41041	108549	0	0	8177	665231	0	0
2024-06-04 13:03:32			0	35506	0	0	0	23220	21770	142828	27462	998705	41041	108555	0	0	8177	665142	0	0
2024-06-04 13:04:32			0	35508	0	0	0	23218	21760	142740	27348	998723	41041	108554	0	0	8177	665090	0	0
2024-06-04 13:05:32			0	35497	0	0	0	23228	21790	142760	27500	998765	41054	108558	0	0	8176	665469	0	0
2024-06-04 13:06:32			0	35505	0	0	0	23251	21790	142756	27305	998800	41044	108567	0	0	8177	665112	0	0
2024-06-04 13:07:32			0	35509	0	0	0	23238	21810	142768	27464	998879	41044	108562	0	0	8177	664860	0	0
2024-06-04 13:08:32			0	35518	0	0	0	23259	21810	142720	27261	998852	41056	108570	0	0	8177	664459	0	0
2024-06-04 13:09:32			0	35513	0	0	0	23259	21820	142696	27100	998949	41036	108570	0	0	8177	664645	0	0
2024-06-04 13:10:32			0	35522	0	0	0	23280	21830	142684	27131	998966	41047	108578	0	0	8177	664207	0	0
2024-06-04 13:11:32			0	35548	0	0	0	23285	21830	142612	27244	998966	41047	108580	0	0	8178	663050	0	0
2024-06-04 13:12:32			0	35531	0	0	0	23296	21850	142552	27261	999054	41049	108584	0	0	8177	663732	0	0
2024-06-04 13:13:32			0	35551	0	0	0	23306	21850	142564	27220	999054	41049	108588	0	0	8178	662842	0	0
2024-06-04 13:14:32			0	35556	0	0	0	23303	21850	142508	27348	999062	41060	108587	0	0	8179	662620	0	0
2024-06-04 13:15:32			0	35569	0	0	0	23303	21850	142508	27109	999160	41049	108587	0	0	8179	662042	0	0
2024-06-04 13:16:32			0	35565	0	0	0	23290	21870	142388	27362	999149	41051	108582	0	0	8179	662146	0	0
2024-06-04 13:17:32			0	35577	0	0	0	23303	21870	142392	27197	999114	41062	108587	0	0	8180	661613	0	0
2024-06-04 13:18:32			0	35595	0	0	0	23319	21870	142304	27293	999176	41051	108593	0	0	8181	660814	0	0
2024-06-04 13:19:32			0	35598	0	0	0	23322	21870	142360	27495	999202	41051	108594	0	0	8181	660681	0	0
2024-06-04 13:20:32			0	35586	0	0	0	23303	21880	142296	27320	999158	41063	108587	0	0	8180	661177	0	0
2024-06-04 13:21:32			0	35595	0	0	0	23324	21880	142272	27303	999246	41052	108595	0	0	8181	660777	0	0
2024-06-04 13:22:32			0	35612	0	0	0	23327	21890	142232	27258	999228	41052	108596	0	0	8181	659987	0	0
2024-06-04 13:23:32			0	35625	0	0	0	23316	21880	142260	27327	999193	41052	108592	0	0	8182	659448	0	0
2024-06-04 13:24:32			0	35638	0	0	0	23306	21900	142232	26915	999245	41042	108588	0	0	8183	658798	0	0
2024-06-04 13:25:32			0	35621	0	0	0	23306	21890	142136	27367	999210	41052	108588	0	0	8182	659588	0	0
2024-06-04 13:26:32			0	35647	0	0	0	23298	21900	142048	27260	999253	41066	108585	0	0	8184	658400	0	0
2024-06-04 13:27:32			0	35667	0	0	0	23301	21890	142056	27538	999254	41052	108586	0	0	8185	657552	0	0
2024-06-04 13:28:32			0	35662	0	0	0	23285	21900	142056	26935	999165	41053	108580	0	0	8185	657737	0	0
2024-06-04 13:29:32			0	35671	0	0	0	23262	21890	142136	27280	999103	41041	108571	0	0	8186	657375	0	0
2024-06-04 13:30:32			0	35682	0	0	0	23259	21900	142068	27251	999165	41053	108570	0	0	8186	656853	0	0
2024-06-04 13:31:32			0	35684	0	0	0	23257	21880	141956	27185	999139	41052	108569	0	0	8186	656838	0	0
2024-06-04 13:32:32			0	35717	0	0	0	23257	21890	141772	27222	999130	41064	108569	0	0	8188	655345	0	0
2024-06-04 13:33:32			0	35741	0	0	0	23262	21890	141744	27222	999156	41052	108571	0	0	8190	654287	0	0
2024-06-04 13:34:32			0	35759	0	0	0	23267	21890	141712	27424	999095	41064	108573	0	0	8190	653494	0	0
2024-06-04 13:35:32			0	35776	0	0	0	23254	21880	141548	27230	999104	41052	108568	0	0	8191	652783	0	0
2024-06-04 13:36:32			0	35796	0	0	0	23270	21880	141440	27289	999104	41052	108574	0	0	8192	651904	0	0
2024-06-04 13:37:32			0	35826	0	0	0	23257	21890	141336	27176	999148	41041	108569	0	0	8194	650550	0	0
2024-06-04 13:38:32			0	35879	0	0	0	23267	21890	141329	27339	999095	41041	108573	0	0	8197	648228	0	0
2024-06-04 13:39:32			0	35867	0	0	0	23264	21880	141389	27265	999086	41041	108572	0	0	8196	648790	0	0
2024-06-04 13:40:32			0	35876	0	0	0	23262	21880	141209	27362	999193	41041	108571	0	0	8197	648396	0	0
2024-06-04 13:41:32			0	35874	0	0	0	23259	21870	141169	27618	999176	41051	108570	0	0	8197	648519	0	0
2024-06-04 13:42:32			0	35884	0	0	0	23249	21880	141205	27312	999113	41052	108566	0	0	8197	648046	0	0
2024-06-04 13:43:32			0	35901	0	0	0	23264	21880	141205	27717	999113	41052	108572	0	0	8198	647302	0	0
2024-06-04 13:44:32			0	35891	0	0	0	23259	21880	141209	27417	999139	41052	108570	0	0	8198	647740	0	0
2024-06-04 13:45:32			0	35896	0	0	0	23264	21870	141209	27370	999114	41029	108572	0	0	8198	647557	0	0
2024-06-04 13:46:32			0	35898	0	0	0	23267	21890	141101	27202	999201	41041	108573	0	0	8198	647397	0	0
2024-06-04 13:47:32			0	35890	0	0	0	23257	21890	141161	27476	999068	41041	108569	0	0	8198	647747	0	0
2024-06-04 13:48:32			0	35903	0	0	0	23259	21890	141197	27438	999148	41052	108570	0	0	8198	647179	0	0
2024-06-04 13:49:32			0	35911	0	0	0	23270	21880	141093	27573	999113	41041	108574	0	0	8198	646865	0	0
2024-06-04 13:50:32			0	35893	0	0	0	23301	21870	141133	27222	999096	41051	108586	0	0	8197	647688	0	0
2024-06-04 13:51:32			0	35899	0	0	0	23303	21890	141209	27462	999228	41052	108587	0	0	8197	647354	0	0
2024-06-04 13:52:32			0	35900	0	0	0	23303	21890	141089	27346	999228	41064	108587	0	0	8197	647310	0	0
2024-06-04 13:53:32			0	35908	0	0	0	23288	21890	141065	27426	999210	41041	108581	0	0	8198	646960	0	0
2024-06-04 13:54:32			0	35917	0	0	0	23290	21890	141097	27488	999183	41064	108582	0	0	8198	646567	0	0
2024-06-04 13:55:32			0	35907	0	0	0	23303	21900	141169	27282	999218	41053	108587	0	0	8198	646968	0	0
2024-06-04 13:56:32			0	35901	0	0	0	23322	21900	141237	27178	999333	41054	108594	0	0	8197	647230	0	0
2024-06-04 13:57:32			0	35881	0	0	0	23350	21900	141241	27313	999271	41065	108605	0	0	8196	648105	0	0
2024-06-04 13:58:32			0	35880	0	0	0	23345	21920	141245	27246	999385	41044	108603	0	0	8196	648076	0	0
2024-06-04 13:59:32			0	35867	0	0	0	23335	21920	141221	27216	999393	41056	108599	0	0	8195	648645	0	0
2024-06-04 14:00:32			0	35862	0	0	0	23345	21930	141177	27464	999375	41068	108603	0	0	8195	648828	0	0
2024-06-04 14:01:32			0	35890	0	0	0	23355	21930	141121	27585	999402	41057	108607	0	0	8196	647603	0	0
2024-06-04 14:02:32			0	35886	0	0	0	23379	21940	141173	27253	999472	41068	108616	0	0	8196	647741	0	0
2024-06-04 14:03:32			0	35902	0	0	0	23376	21950	141101	27386	999569	41059	108615	0	0	8196	647006	0	0
2024-06-04 14:04:32			0	35917	0	0	0	23366	21950	141117	27338	999578	41070	108611	0	0	8197	646351	0	0
2024-06-04 14:05:32			0	35930	0	0	0	23350	21960	140957	27237	999506	41059	108605	0	0	8198	645748	0	0
2024-06-04 14:06:32			0	35951	0	0	0	23358	21960	141013	27239	999541	41060	108608	0	0	8199	644832	0	0
2024-06-04 14:07:32			0	35964	0	0	0	23376	21970	140881	27334	999603	41060	108615	0	0	8200	644229	0	0
2024-06-04 14:08:32			0	35990	0	0	0	23379	21970	140861	27130	999603	41072	108616	0	0	8201	643098	0	0
2024-06-04 14:09:32			0	35990	0	0	0	23389	21960	140873	27440	999568	41071	108620	0	0	8201	643133	0	0
2024-06-04 14:10:32			0	35988	0	0	0	23384	21970	140841	27429	999638	41060	108618	0	0	8201	643185	0	0
2024-06-04 14:11:32			0	35993	0	0	0	23381	21980	140845	27274	999708	41061	108617	0	0	8201	642931	0	0
2024-06-04 14:12:32			0	35985	0	0	0	23392	21970	140789	27223	999611	41060	108621	0	0	8201	643315	0	0
2024-06-04 14:13:32			0	35992	0	0	0	23386	21980	140777	27353	999628	41061	108619	0	0	8201	642975	0	0
2024-06-04 14:14:32			0	35971	0	0	0	23371	21980	140865	27157	999620	41060	108613	0	0	8200	643889	0	0
2024-06-04 14:15:32			0	35942	0	0	0	23368	21980	140953	27189	999620	41060	108612	0	0	8199	645152	0	0
2024-06-04 14:16:32			0	35940	0	0	0	23381	21990	141049	26986	999584	41062	108617	0	0	8199	645204	0	0
2024-06-04 14:17:32			0	35935	0	0	0	23418	21990	141053	27310	999717	41095	108631	0	0	8198	645421	0	0
2024-06-04 14:18:32			0	35944	0	0	0	23405	21990	141013	27452	999743	41074	108626	0	0	8198	645029	0	0
2024-06-04 14:19:32			0	35962	0	0	0	23420	21990	140925	27362	999725	41074	108632	0	0	8199	644245	0	0
2024-06-04 14:20:32			0	35986	0	0	0	23441	22010	140845	27265	999795	41096	108640	0	0	8200	643128	0	0
2024-06-04 14:21:32			0	36031	0	0	0	23446	22030	140713	27447	999829	41065	108642	0	0	8203	641101	0	0
2024-06-04 14:22:32			0	36031	0	0	0	23454	22020	140717	27514	999847	41076	108645	0	0	8202	641137	0	0
2024-06-04 14:23:32			0	36024	0	0	0	23444	22040	140757	27211	999873	41100	108641	0	0	8202	641369	0	0
2024-06-04 14:24:32			0	36022	0	0	0	23431	22040	140753	27377	999846	41078	108636	0	0	8202	641456	0	0
2024-06-04 14:25:32			0	36020	0	0	0	23431	22030	140677	27362	999838	41066	108636	0	0	8202	641579	0	0
2024-06-04 14:26:32			0	35977	0	0	0	23425	22040	140749	27069	999873	41067	108634	0	0	8200	643412	0	0
2024-06-04 14:27:32			0	36000	0	0	0	23446	22030	140805	27339	999918	41099	108642	0	0	8201	642448	0	0
2024-06-04 14:28:32			0	35973	0	0	0	23436	22040	140833	27362	999881	41078	108638	0	0	8200	643586	0	0
2024-06-04 14:29:32			0	35991	0	0	0	23431	22040	140889	27343	999899	41056	108636	0	0	8201	642803	0	0
2024-06-04 14:30:32			0	35973	0	0	0	23433	22040	140805	27005	999873	41078	108637	0	0	8200	643586	0	0
2024-06-04 14:31:32			0	35968	0	0	0	23428	22040	140797	27076	999846	41078	108635	0	0	8200	643804	0	0
2024-06-04 14:32:32			0	36009	0	0	0	23425	22030	140773	27256	999864	41066	108634	0	0	8202	642057	0	0
2024-06-04 14:33:32			0	36048	0	0	0	23428	22030	140681	27013	999891	41066	108635	0	0	8204	640364	0	0
2024-06-04 14:34:32			0	36052	0	0	0	23423	22030	140425	27350	999838	41066	108633	0	0	8204	640190	0	0
2024-06-04 14:35:32			0	36046	0	0	0	23423	22040	140525	27405	999766	41067	108633	0	0	8204	640415	0	0
2024-06-04 14:36:32			0	36074	0	0	0	23485	22050	140453	26922	1000050	41100	108657	0	0	8204	639166	0	0
2024-06-04 14:37:32			0	36080	0	0	0	23519	22060	140417	27486	1000147	41080	108670	0	0	8204	638870	0	0
2024-06-04 14:38:32			0	36097	0	0	0	23506	22080	140429	27486	1000128	41082	108665	0	0	8205	638063	0	0
2024-06-04 14:39:32			0	36067	0	0	0	23490	22070	140405	27374	1000119	41069	108659	0	0	8204	639397	0	0
2024-06-04 14:40:32			0	36049	0	0	0	23488	22080	140365	27142	1000101	41070	108658	0	0	8203	640142	0	0
2024-06-04 14:41:32			0	36044	0	0	0	23480	22080	140477	27064	1000154	41070	108655	0	0	8203	640359	0	0
2024-06-04 14:42:32			0	36041	0	0	0	23485	22070	140489	27315	1000119	41058	108657	0	0	8203	640524	0	0
2024-06-04 14:43:32			0	36015	0	0	0	23472	22080	140649	27142	1000109	41071	108652	0	0	8201	641617	0	0
2024-06-04 14:44:32			0	35978	0	0	0	23467	22090	140709	27351	1000126	41083	108650	0	0	8200	643189	0	0
2024-06-04 14:45:32			0	35966	0	0	0	23472	22090	140713	27048	1000065	41083	108652	0	0	8199	643711	0	0
2024-06-04 14:46:32			0	35912	0	0	0	23477	22080	140877	27022	1000136	41083	108654	0	0	8196	646101	0	0
2024-06-04 14:47:32			0	35941	0	0	0	23477	22080	140845	26979	1000109	41071	108654	0	0	8197	644836	0	0
2024-06-04 14:48:32			0	35946	0	0	0	23467	22080	140833	27190	1000074	41070	108650	0	0	8198	644618	0	0
2024-06-04 14:49:32			0	35927	0	0	0	23464	22090	140821	27067	1000118	41071	108649	0	0	8197	645411	0	0
2024-06-04 14:50:32			0	35960	0	0	0	23477	22090	140805	26942	1000118	41071	108654	0	0	8198	643973	0	0
2024-06-04 14:51:32			0	35974	0	0	0	23488	22090	140673	27086	1000233	41083	108658	0	0	8199	643363	0	0
2024-06-04 14:52:32			0	36011	0	0	0	23485	22100	140629	27045	1000215	41094	108657	0	0	8201	641719	0	0
2024-06-04 14:53:32			0	36034	0	0	0	23503	22110	140537	27400	1000232	41073	108664	0	0	8202	640685	0	0
2024-06-04 14:54:32			0	36076	0	0	0	23498	22100	140457	27216	1000223	41073	108662	0	0	8204	638901	0	0
2024-06-04 14:55:32			0	36092	0	0	0	23501	22110	140281	27109	1000258	41073	108663	0	0	8205	638173	0	0
2024-06-04 14:56:32			0	36112	0	0	0	23501	22110	140157	27090	1000213	41073	108663	0	0	8206	637308	0	0
2024-06-04 14:57:32			0	36123	0	0	0	23501	22110	140121	27253	1000267	41083	108663	0	0	8207	636833	0	0
2024-06-04 14:58:32			0	36117	0	0	0	23529	22120	140225	27476	1000328	41107	108674	0	0	8206	637057	0	0
2024-06-04 14:59:32			0	36116	0	0	0	23545	22130	140137	27428	1000292	41076	108680	0	0	8206	637064	0	0
2024-06-04 15:00:32			0	36093	0	0	0	23537	22130	140105	27206	1000407	41086	108677	0	0	8205	638058	0	0
2024-06-04 15:01:32			0	36105	0	0	0	23529	22130	140129	27216	1000354	41076	108674	0	0	8206	637539	0	0
2024-06-04 15:02:32			0	36122	0	0	0	23545	22130	140193	27157	1000354	41076	108680	0	0	8206	636805	0	0
2024-06-04 15:03:32			0	36108	0	0	0	23563	22140	140125	27114	1000424	41087	108687	0	0	8205	637374	0	0
2024-06-04 15:04:32			0	36133	0	0	0	23566	22150	140141	27097	1000433	41088	108688	0	0	8206	636259	0	0
2024-06-04 15:05:32			0	36106	0	0	0	23553	22150	140129	27241	1000468	41077	108683	0	0	8205	637425	0	0
2024-06-04 15:06:32			0	36125	0	0	0	23545	22150	140149	27400	1000441	41088	108680	0	0	8206	636604	0	0
2024-06-04 15:07:32			0	36133	0	0	0	23540	22160	140113	27364	1000423	41077	108678	0	0	8207	636224	0	0
2024-06-04 15:08:32			0	36134	0	0	0	23545	22150	140085	27229	1000494	41077	108680	0	0	8207	636216	0	0
2024-06-04 15:09:32			0	36143	0	0	0	23527	22160	140041	27098	1000449	41066	108673	0	0	8208	635792	0	0
2024-06-04 15:10:32			0	36167	0	0	0	23527	22150	139925	27241	1000334	41077	108673	0	0	8209	634793	0	0
2024-06-04 15:11:32			0	36206	0	0	0	23509	22150	139809	27421	1000326	41077	108666	0	0	8211	633114	0	0
2024-06-04 15:12:32			0	36210	0	0	0	23514	22150	139725	27223	1000414	41077	108668	0	0	8211	632942	0	0
2024-06-04 15:13:32			0	36218	0	0	0	23527	22150	139769	27263	1000379	41077	108673	0	0	8212	632598	0	0
2024-06-04 15:14:32			0	36226	0	0	0	23522	22150	139677	27228	1000388	41088	108671	0	0	8212	632254	0	0
2024-06-04 15:15:32			0	36236	0	0	0	23548	22160	139589	26965	1000405	41089	108681	0	0	8212	631789	0	0
2024-06-04 15:16:32			0	36247	0	0	0	23542	22150	139553	27338	1000521	41066	108679	0	0	8213	631352	0	0
2024-06-04 15:17:32			0	36258	0	0	0	23545	22160	139541	26913	1000529	41077	108680	0	0	8214	630845	0	0
2024-06-04 15:18:32			0	36276	0	0	0	23537	22170	139481	27031	1000546	41068	108677	0	0	8215	630037	0	0
2024-06-04 15:19:32			0	36291	0	0	0	23548	22180	139445	27438	1000537	41079	108681	0	0	8215	629360	0	0
2024-06-04 15:20:32			0	36281	0	0	0	23545	22170	139417	27092	1000581	41079	108680	0	0	8215	629823	0	0
2024-06-04 15:21:32			0	36322	0	0	0	23542	22180	139393	27345	1000572	41080	108679	0	0	8217	628033	0	0
2024-06-04 15:22:32			0	36310	0	0	0	23529	22180	139353	27258	1000483	41090	108674	0	0	8217	628546	0	0
2024-06-04 15:23:32			0	36292	0	0	0	23514	22170	139349	27232	1000448	41068	108668	0	0	8216	629352	0	0
2024-06-04 15:24:32			0	36301	0	0	0	23519	22170	139297	27161	1000466	41068	108670	0	0	8216	628967	0	0
2024-06-04 15:25:32			0	36305	0	0	0	23524	22170	139397	27022	1000395	41079	108672	0	0	8216	628795	0	0
2024-06-04 15:26:32			0	36300	0	0	0	23524	22170	139457	27201	1000440	41068	108672	0	0	8216	629009	0	0
2024-06-04 15:27:32			0	36274	0	0	0	23524	22170	139469	27095	1000413	41079	108672	0	0	8215	630123	0	0
2024-06-04 15:28:32			0	36271	0	0	0	23501	22160	139537	27431	1000423	41077	108663	0	0	8215	630287	0	0
2024-06-04 15:29:32			0	36270	0	0	0	23506	22170	139521	27402	1000422	41068	108665	0	0	8215	630295	0	0
2024-06-04 15:30:32			0	36282	0	0	0	23496	22150	139401	27409	1000379	41077	108661	0	0	8216	629851	0	0
2024-06-04 15:31:32			0	36277	0	0	0	23506	22160	139477	27248	1000423	41077	108665	0	0	8215	630030	0	0
2024-06-04 15:32:32			0	36262	0	0	0	23488	22150	139477	27048	1000281	41066	108658	0	0	8215	630708	0	0
2024-06-04 15:33:32			0	36260	0	0	0	23503	22150	139633	27024	1000326	41066	108664	0	0	8214	630794	0	0
2024-06-04 15:34:32			0	36254	0	0	0	23514	22150	139549	27505	1000353	41077	108668	0	0	8214	631051	0	0
2024-06-04 15:35:32			0	36250	0	0	0	23511	22150	139505	27256	1000353	41077	108667	0	0	8214	631223	0	0
2024-06-04 15:36:32			0	36281	0	0	0	23498	22150	139473	27421	1000379	41066	108662	0	0	8216	629894	0	0
2024-06-04 15:37:32			0	36276	0	0	0	23519	22140	139453	27308	1000344	41077	108670	0	0	8215	630143	0	0
2024-06-04 15:38:32			0	36276	0	0	0	23540	22150	139493	27209	1000459	41088	108678	0	0	8215	630108	0	0
2024-06-04 15:39:32			0	36269	0	0	0	23555	22160	139589	27175	1000583	41077	108684	0	0	8214	630373	0	0
2024-06-04 15:40:32			0	36267	0	0	0	23548	22160	139637	27228	1000511	41078	108681	0	0	8214	630459	0	0
2024-06-04 15:41:32			0	36236	0	0	0	23529	22160	139601	27102	1000538	41100	108674	0	0	8213	631789	0	0
2024-06-04 15:42:32			0	36210	0	0	0	23516	22170	139665	27220	1000475	41079	108669	0	0	8212	632871	0	0
2024-06-04 15:43:32			0	36225	0	0	0	23550	22160	139621	27396	1000564	41089	108682	0	0	8212	632262	0	0
2024-06-04 15:44:32			0	36204	0	0	0	23568	22180	139813	27320	1000590	41090	108689	0	0	8210	633094	0	0
2024-06-04 15:45:32			0	36189	0	0	0	23586	22180	139877	27260	1000678	41090	108696	0	0	8209	633739	0	0
2024-06-04 15:46:32			0	36187	0	0	0	23602	22200	139993	27067	1000757	41092	108702	0	0	8209	633754	0	0
2024-06-04 15:47:32			0	36188	0	0	0	23628	22200	139989	27400	1000792	41082	108712	0	0	8209	633711	0	0
2024-06-04 15:48:32			0	36191	0	0	0	23646	22220	139881	27308	1000844	41105	108719	0	0	8209	633511	0	0
2024-06-04 15:49:32			0	36206	0	0	0	23649	22220	139857	27213	1000880	41083	108720	0	0	8209	632866	0	0
2024-06-04 15:50:32			0	36226	0	0	0	23649	22230	139861	27315	1000896	41085	108720	0	0	8210	631972	0	0
2024-06-04 15:51:32			0	36207	0	0	0	23651	22240	139853	27137	1000932	41074	108721	0	0	8209	632753	0	0
2024-06-04 15:52:32			0	36220	0	0	0	23654	22250	139901	27067	1000922	41108	108722	0	0	8210	632159	0	0
2024-06-04 15:53:32			0	36211	0	0	0	23667	22250	139941	27020	1000975	41075	108727	0	0	8209	632546	0	0
2024-06-04 15:54:32			0	36204	0	0	0	23636	22250	139929	27267	1000895	41097	108715	0	0	8210	632846	0	0
2024-06-04 15:55:32			0	36197	0	0	0	23649	22260	139885	27036	1000974	41087	108720	0	0	8209	633112	0	0
2024-06-04 15:56:32			0	36195	0	0	0	23662	22250	139837	27159	1001010	41098	108725	0	0	8209	633233	0	0
2024-06-04 15:57:32			0	36234	0	0	0	23672	22260	139733	27123	1000992	41086	108729	0	0	8211	631522	0	0
2024-06-04 15:58:32			0	36269	0	0	0	23667	22260	139677	27232	1001001	41087	108727	0	0	8212	630021	0	0
2024-06-04 15:59:32			0	36276	0	0	0	23659	22260	139581	27388	1000947	41087	108724	0	0	8213	629721	0	0
2024-06-04 16:00:32			0	36291	0	0	0	23657	22260	139501	27039	1000947	41098	108723	0	0	8214	629079	0	0
2024-06-04 16:01:32			0	36331	0	0	0	23664	22270	139421	27348	1001036	41087	108726	0	0	8216	627333	0	0
2024-06-04 16:02:32			0	36346	0	0	0	23657	22280	139253	27388	1001079	41088	108723	0	0	8217	626657	0	0
2024-06-04 16:03:32			0	36356	0	0	0	23680	22280	139325	27114	1001079	41099	108732	0	0	8217	626230	0	0
2024-06-04 16:04:32			0	36371	0	0	0	23698	22290	139197	27478	1001150	41089	108739	0	0	8218	625556	0	0
2024-06-04 16:05:32			0	36373	0	0	0	23719	22300	139141	27116	1001105	41113	108747	0	0	8217	625435	0	0
2024-06-04 16:06:32			0	36366	0	0	0	23716	22310	139165	27228	1001202	41091	108746	0	0	8217	625699	0	0
2024-06-04 16:07:32			0	36405	0	0	0	23727	22300	139093	27225	1001273	41091	108750	0	0	8219	624072	0	0
2024-06-04 16:08:32			0	36383	0	0	0	23729	22310	139021	27083	1001237	41091	108751	0	0	8218	624974	0	0
2024-06-04 16:09:32			0	36422	0	0	0	23727	22320	138985	27223	1001298	41103	108750	0	0	8220	623279	0	0
2024-06-04 16:10:32			0	36424	0	0	0	23711	22320	138929	27121	1001254	41104	108744	0	0	8220	623194	0	0
2024-06-04 16:11:32			0	36423	0	0	0	23709	22320	138945	27033	1001307	41093	108743	0	0	8220	623236	0	0
2024-06-04 16:12:32			0	36435	0	0	0	23732	22330	138873	27261	1001289	41093	108752	0	0	8220	622691	0	0
2024-06-04 16:13:32			0	36449	0	0	0	23727	22320	138833	27348	1001280	41093	108750	0	0	8221	622131	0	0
2024-06-04 16:14:32			0	36436	0	0	0	23737	22340	138853	27507	1001386	41105	108754	0	0	8221	622614	0	0
2024-06-04 16:15:32			0	36448	0	0	0	23714	22340	138777	27168	1001306	41105	108745	0	0	8222	622104	0	0
2024-06-04 16:16:32			0	36473	0	0	0	23701	22330	138713	27479	1001271	41094	108740	0	0	8223	621078	0	0
2024-06-04 16:17:32			0	36483	0	0	0	23701	22340	138661	27327	1001279	41094	108740	0	0	8224	620619	0	0
2024-06-04 16:18:32			0	36498	0	0	0	23724	22340	138697	27384	1001341	41106	108749	0	0	8224	619983	0	0
2024-06-04 16:19:32			0	36515	0	0	0	23737	22350	138581	27435	1001323	41094	108754	0	0	8225	619228	0	0
2024-06-04 16:20:32			0	36513	0	0	0	23727	22350	138485	27500	1001350	41106	108750	0	0	8225	619313	0	0
2024-06-04 16:21:32			0	36503	0	0	0	23706	22340	138501	27277	1001314	41094	108742	0	0	8225	619771	0	0
2024-06-04 16:22:32			0	36541	0	0	0	23701	22340	138557	27364	1001341	41083	108740	0	0	8227	618163	0	0
2024-06-04 16:23:32			0	36523	0	0	0	23711	22350	138529	27296	1001350	41083	108744	0	0	8226	618890	0	0
2024-06-04 16:24:32			0	36537	0	0	0	23714	22350	138497	27466	1001278	41107	108745	0	0	8226	618297	0	0
2024-06-04 16:25:32			0	36554	0	0	0	23722	22350	138445	27460	1001305	41118	108748	0	0	8227	617578	0	0
2024-06-04 16:26:32			0	36538	0	0	0	23724	22350	138485	27507	1001403	41083	108749	0	0	8226	618255	0	0
2024-06-04 16:27:32			0	36565	0	0	0	23701	22340	138473	27573	1001306	41094	108740	0	0	8228	617148	0	0
2024-06-04 16:28:32			0	36548	0	0	0	23706	22340	138509	27533	1001288	41094	108742	0	0	8227	617867	0	0
2024-06-04 16:29:32			0	36566	0	0	0	23711	22340	138433	27460	1001235	41083	108744	0	0	8228	617106	0	0
2024-06-04 16:30:32			0	36563	0	0	0	23716	22340	138409	27204	1001306	41083	108746	0	0	8228	617233	0	0
2024-06-04 16:31:32			0	36544	0	0	0	23729	22340	138421	27159	1001333	41094	108751	0	0	8226	618036	0	0
2024-06-04 16:32:32			0	36578	0	0	0	23711	22350	138329	27447	1001323	41094	108744	0	0	8228	616565	0	0
2024-06-04 16:33:32			0	36586	0	0	0	23711	22340	138289	27343	1001333	41105	108744	0	0	8229	616262	0	0
2024-06-04 16:34:32			0	36580	0	0	0	23722	22350	138209	27183	1001331	41107	108748	0	0	8228	616480	0	0
2024-06-04 16:35:32			0	36584	0	0	0	23722	22340	138281	27443	1001341	41094	108748	0	0	8229	616346	0	0
2024-06-04 16:36:32			0	36568	0	0	0	23729	22360	138289	27313	1001367	41095	108751	0	0	8228	616953	0	0
2024-06-04 16:37:32			0	36587	0	0	0	23735	22360	138361	27540	1001313	41107	108753	0	0	8229	616150	0	0
2024-06-04 16:38:32			0	36560	0	0	0	23753	22350	138445	27308	1001358	41107	108760	0	0	8227	617325	0	0
2024-06-04 16:39:32			0	36588	0	0	0	23753	22360	138389	27381	1001446	41107	108760	0	0	8228	616108	0	0
2024-06-04 16:40:32			0	36590	0	0	0	23761	22370	138261	27601	1001463	41107	108763	0	0	8228	615990	0	0
2024-06-04 16:41:32			0	36608	0	0	0	23763	22370	138286	27242	1001517	41107	108764	0	0	8229	615231	0	0
2024-06-04 16:42:32			0	36588	0	0	0	23755	22360	138349	27588	1001508	41107	108761	0	0	8228	616108	0	0
2024-06-04 16:43:32			0	36584	0	0	0	23737	22370	138297	27267	1001543	41096	108754	0	0	8228	616243	0	0
2024-06-04 16:44:32			0	36574	0	0	0	23729	22380	138333	27331	1001480	41097	108751	0	0	8228	616630	0	0
2024-06-04 16:45:32			0	36567	0	0	0	23740	22380	138453	27258	1001454	41097	108755	0	0	8228	616926	0	0
2024-06-04 16:46:32			0	36542	0	0	0	23724	22370	138445	27118	1001383	41107	108749	0	0	8226	618017	0	0
2024-06-04 16:47:32			0	36550	0	0	0	23724	22350	138413	27124	1001385	41107	108749	0	0	8227	617748	0	0
2024-06-04 16:48:32			0	36561	0	0	0	23748	22370	138429	27171	1001437	41085	108758	0	0	8227	617214	0	0
2024-06-04 16:49:32			0	36568	0	0	0	23794	22370	138397	27168	1001490	41096	108776	0	0	8227	616918	0	0
2024-06-04 16:50:32			0	36572	0	0	0	23794	22370	138413	27305	1001525	41108	108776	0	0	8227	616749	0	0
2024-06-04 16:51:32			0	36632	0	0	0	23810	22380	138210	27305	1001560	41130	108782	0	0	8230	614185	0	0
2024-06-04 16:52:32			0	36634	0	0	0	23823	22390	138266	27267	1001631	41110	108787	0	0	8230	614067	0	0
2024-06-04 16:53:32			0	36602	0	0	0	23828	22390	138394	27298	1001604	41110	108789	0	0	8228	615415	0	0
2024-06-04 16:54:32			0	36566	0	0	0	23833	22400	138345	26970	1001701	41100	108791	0	0	8226	616899	0	0
2024-06-04 16:55:32			0	36561	0	0	0	23838	22410	138353	27156	1001718	41101	108793	0	0	8226	617076	0	0
2024-06-04 16:56:32			0	36516	0	0	0	23846	22410	138737	27126	1001700	41112	108796	0	0	8223	618978	0	0
2024-06-04 16:57:32			0	36422	0	0	0	23846	22420	138941	27168	1001743	41134	108796	0	0	8218	622931	0	0
2024-06-04 16:58:32			0	36424	0	0	0	23844	22430	138993	27255	1001813	41102	108795	0	0	8218	622811	0	0
2024-06-04 16:59:32			0	36417	0	0	0	23854	22410	138993	27152	1001833	41112	108799	0	0	8218	623178	0	0
2024-06-04 17:00:32			0	36429	0	0	0	23864	22430	139029	27048	1001805	41114	108803	0	0	8218	622598	0	0
2024-06-04 17:01:32			0	36449	0	0	0	23864	22440	138925	27301	1001769	41115	108803	0	0	8219	621714	0	0
2024-06-04 17:02:32			0	36476	0	0	0	23867	22440	138705	27324	1001822	41136	108804	0	0	8221	620569	0	0
2024-06-04 17:03:32			0	36506	0	0	0	23877	22450	138613	27666	1001901	41137	108808	0	0	8222	619263	0	0
2024-06-04 17:04:32			0	36509	0	0	0	23888	22450	138677	27293	1001874	41116	108812	0	0	8222	619136	0	0
2024-06-04 17:05:32			0	36472	0	0	0	23896	22450	138921	27050	1001928	41137	108815	0	0	8220	620704	0	0
2024-06-04 17:06:32			0	36463	0	0	0	23901	22460	138689	26987	1001971	41139	108817	0	0	8220	621051	0	0
2024-06-04 17:07:32			0	36474	0	0	0	23903	22480	138713	27277	1001970	41140	108818	0	0	8220	620515	0	0
2024-06-04 17:08:32			0	36533	0	0	0	23901	22470	138617	27088	1002068	41128	108817	0	0	8223	618052	0	0
2024-06-04 17:09:32			0	36569	0	0	0	23903	22490	138413	26960	1002067	41119	108818	0	0	8225	616462	0	0
2024-06-04 17:10:32			0	36606	0	0	0	23903	22490	138258	26991	1002075	41109	108818	0	0	8227	614902	0	0
2024-06-04 17:11:32			0	36673	0	0	0	23896	22500	138058	27105	1002119	41121	108815	0	0	8231	612050	0	0
2024-06-04 17:12:32			0	36693	0	0	0	23901	22490	138022	27026	1002049	41130	108817	0	0	8232	611245	0	0
2024-06-04 17:13:32			0	36784	0	0	0	23898	22500	137650	27222	1002039	41131	108816	0	0	8237	607401	0	0
2024-06-04 17:14:32			0	36832	0	0	0	23901	22500	137406	27074	1002012	41121	108817	0	0	8239	605398	0	0
2024-06-04 17:15:32			0	36926	0	0	0	23909	22510	137162	27348	1002056	41111	108820	0	0	8244	601456	0	0
2024-06-04 17:16:32			0	36978	0	0	0	23898	22490	136894	27249	1002022	41130	108816	0	0	8247	599367	0	0
2024-06-04 17:17:32			0	37033	0	0	0	23893	22500	136726	27060	1002039	41131	108814	0	0	8250	597060	0	0
2024-06-04 17:18:32			0	37073	0	0	0	23901	22500	136570	27327	1002092	41142	108817	0	0	8252	595410	0	0
2024-06-04 17:19:32			0	37111	0	0	0	23898	22510	136402	27161	1002163	41132	108816	0	0	8254	593812	0	0
2024-06-04 17:20:32			0	37131	0	0	0	23903	22500	136306	27055	1002137	41130	108818	0	0	8255	593022	0	0
2024-06-04 17:21:32			0	37150	0	0	0	23903	22500	136234	27154	1002119	41121	108818	0	0	8256	592242	0	0
2024-06-04 17:22:32			0	37171	0	0	0	23909	22510	136222	27412	1002154	41122	108820	0	0	8257	591347	0	0
2024-06-04 17:23:32			0	37160	0	0	0	23919	22510	136194	27267	1002154	41122	108824	0	0	8256	591798	0	0
2024-06-04 17:24:32			0	37189	0	0	0	23903	22510	136054	27287	1002163	41122	108818	0	0	8258	590608	0	0
2024-06-04 17:25:32			0	37208	0	0	0	23906	22500	136086	27081	1002146	41110	108819	0	0	8259	589863	0	0
2024-06-04 17:26:32			0	37219	0	0	0	23922	22520	135978	27196	1002180	41123	108825	0	0	8259	589346	0	0
2024-06-04 17:27:32			0	37245	0	0	0	23929	22510	135838	27530	1002163	41132	108828	0	0	8261	588316	0	0
2024-06-04 17:28:32			0	37255	0	0	0	23932	22520	135794	27170	1002224	41132	108829	0	0	8261	587874	0	0
2024-06-04 17:29:32			0	37288	0	0	0	23937	22520	135710	27343	1002198	41122	108831	0	0	8263	586526	0	0
2024-06-04 17:30:32			0	37310	0	0	0	23940	22520	135626	27505	1002206	41133	108832	0	0	8264	585629	0	0
2024-06-04 17:31:32			0	37331	0	0	0	23953	22530	135519	27222	1002295	41124	108837	0	0	8265	584741	0	0
2024-06-04 17:32:32			0	37365	0	0	0	23955	22540	135475	27431	1002293	41124	108838	0	0	8266	583325	0	0
2024-06-04 17:33:32			0	37368	0	0	0	23958	22550	135383	27055	1002382	41125	108839	0	0	8267	583170	0	0
2024-06-04 17:34:32			0	37400	0	0	0	23968	22550	135375	27111	1002329	41136	108843	0	0	8268	581870	0	0
2024-06-04 17:35:32			0	37430	0	0	0	23961	22550	135271	27362	1002417	41136	108840	0	0	8270	580653	0	0
2024-06-04 17:36:32			0	37448	0	0	0	23979	22560	135091	27435	1002399	41147	108847	0	0	8270	579892	0	0
2024-06-04 17:37:32			0	37512	0	0	0	23976	22560	134983	27376	1002434	41137	108846	0	0	8274	577303	0	0
2024-06-04 17:38:32			0	37543	0	0	0	23979	22560	134879	27308	1002434	41148	108847	0	0	8275	576052	0	0
2024-06-04 17:39:32			0	37589	0	0	0	23989	22570	134727	27100	1002442	41137	108851	0	0	8278	574167	0	0
2024-06-04 17:40:32			0	37645	0	0	0	23989	22560	134587	27168	1002434	41148	108851	0	0	8281	571949	0	0
2024-06-04 17:41:32			0	37655	0	0	0	23992	22580	134483	27244	1002451	41138	108852	0	0	8281	571484	0	0
2024-06-04 17:42:32			0	37708	0	0	0	23992	22570	134327	27443	1002496	41126	108852	0	0	8284	569392	0	0
2024-06-04 17:43:32			0	37719	0	0	0	23997	22580	134211	27206	1002460	41127	108854	0	0	8284	568920	0	0
2024-06-04 17:44:32			0	37792	0	0	0	24002	22590	134059	27294	1002530	41128	108856	0	0	8288	565973	0	0
2024-06-04 17:45:32			0	37821	0	0	0	23992	22590	133923	27159	1002521	41127	108852	0	0	8290	564818	0	0
2024-06-04 17:46:32			0	37879	0	0	0	24002	22600	133703	27350	1002538	41140	108856	0	0	8293	562480	0	0
2024-06-04 17:47:32			0	37897	0	0	0	23999	22590	133551	27183	1002477	41151	108855	0	0	8294	561797	0	0
2024-06-04 17:48:32			0	37952	0	0	0	24007	22600	133383	27116	1002538	41151	108858	0	0	8296	559586	0	0
2024-06-04 17:49:32			0	37967	0	0	0	24002	22610	133407	27074	1002555	41151	108856	0	0	8297	558961	0	0
2024-06-04 17:50:32			0	37959	0	0	0	24012	22610	133327	27235	1002529	41151	108860	0	0	8297	559278	0	0
2024-06-04 17:51:32			0	37951	0	0	0	24018	22600	133467	27135	1002627	41140	108862	0	0	8296	559626	0	0
2024-06-04 17:52:32			0	37937	0	0	0	24018	22600	133455	27367	1002574	41119	108862	0	0	8295	560180	0	0
2024-06-04 17:53:32			0	37916	0	0	0	24023	22610	133575	27202	1002671	41141	108864	0	0	8294	560981	0	0
2024-06-04 17:54:32			0	37923	0	0	0	24023	22610	133563	27305	1002662	41151	108864	0	0	8295	560703	0	0
2024-06-04 17:55:32			0	37915	0	0	0	24033	22620	133491	27492	1002688	41142	108868	0	0	8294	560989	0	0
2024-06-04 17:56:32			0	37925	0	0	0	24036	22630	133463	27490	1002696	41153	108869	0	0	8295	560561	0	0
2024-06-04 17:57:32			0	37944	0	0	0	24044	22620	133415	27587	1002741	41131	108872	0	0	8295	559840	0	0
2024-06-04 17:58:32			0	37956	0	0	0	24049	22630	133395	27223	1002758	41154	108874	0	0	8296	559334	0	0
2024-06-04 17:59:32			0	37944	0	0	0	24046	22630	133447	27367	1002704	41132	108873	0	0	8295	559809	0	0
2024-06-04 18:00:32			0	37970	0	0	0	24049	22630	133455	27351	1002704	41154	108874	0	0	8297	558780	0	0
2024-06-04 18:01:32			0	37960	0	0	0	24064	22640	133395	26946	1002775	41166	108880	0	0	8296	559144	0	0
2024-06-04 18:02:32			0	37968	0	0	0	24064	22640	133387	27393	1002793	41166	108880	0	0	8296	558828	0	0
2024-06-04 18:03:32			0	37932	0	0	0	24062	22650	133519	27178	1002818	41156	108879	0	0	8295	560221	0	0
2024-06-04 18:04:32			0	37928	0	0	0	24067	22650	133503	27131	1002818	41156	108881	0	0	8294	560380	0	0
2024-06-04 18:05:32			0	37927	0	0	0	24070	22640	133555	27275	1002855	41156	108882	0	0	8294	560451	0	0
2024-06-04 18:06:32			0	37930	0	0	0	24077	22650	133503	27573	1002818	41166	108885	0	0	8294	560300	0	0
2024-06-04 18:07:32			0	37926	0	0	0	24080	22650	133459	27279	1002863	41156	108886	0	0	8294	560459	0	0
2024-06-04 18:08:32			0	37952	0	0	0	24080	22650	133355	27334	1002872	41156	108886	0	0	8295	559429	0	0
2024-06-04 18:09:32			0	37966	0	0	0	24083	22670	133371	27209	1002870	41168	108887	0	0	8296	558813	0	0
2024-06-04 18:10:32			0	37977	0	0	0	24080	22660	133351	27265	1002889	41135	108886	0	0	8297	558409	0	0
2024-06-04 18:11:32			0	38006	0	0	0	24088	22670	133307	27370	1002959	41168	108889	0	0	8298	557233	0	0
2024-06-04 18:12:32			0	38011	0	0	0	24101	22670	133179	27064	1002879	41168	108894	0	0	8298	557036	0	0
2024-06-04 18:13:32			0	38024	0	0	0	24093	22670	133095	27098	1002906	41158	108891	0	0	8299	556523	0	0
2024-06-04 18:14:32			0	38047	0	0	0	24106	22680	133096	27033	1002976	41160	108896	0	0	8300	555585	0	0
2024-06-04 18:15:32			0	38054	0	0	0	24114	22690	133136	26948	1002984	41137	108899	0	0	8300	555278	0	0
2024-06-04 18:16:32			0	38064	0	0	0	24109	22680	133008	27390	1002976	41160	108897	0	0	8301	554916	0	0
2024-06-04 18:17:32			0	38072	0	0	0	24124	22690	132948	27225	1003046	41160	108903	0	0	8301	554570	0	0
2024-06-04 18:18:32			0	38086	0	0	0	24129	22690	132860	26967	1003046	41170	108905	0	0	8302	554019	0	0
2024-06-04 18:19:32			0	38116	0	0	0	24124	22690	132896	27280	1003038	41160	108903	0	0	8303	552840	0	0
2024-06-04 18:20:32			0	38135	0	0	0	24127	22700	132804	27137	1003028	41160	108904	0	0	8304	552064	0	0
2024-06-04 18:21:32			0	38146	0	0	0	24135	22710	132788	27379	1003125	41184	108907	0	0	8305	551601	0	0
2024-06-04 18:22:32			0	38167	0	0	0	24140	22700	132704	27248	1003143	41139	108909	0	0	8306	550809	0	0
2024-06-04 18:23:32			0	38196	0	0	0	24142	22710	132540	27185	1003134	41151	108910	0	0	8307	549643	0	0
2024-06-04 18:24:32			0	38193	0	0	0	24142	22710	132552	27097	1003134	41162	108910	0	0	8307	549760	0	0
2024-06-04 18:25:32			0	38201	0	0	0	24158	22720	132620	27045	1003151	41173	108916	0	0	8307	549416	0	0
2024-06-04 18:26:32			0	38206	0	0	0	24155	22730	132476	27322	1003213	41164	108915	0	0	8308	549190	0	0
2024-06-04 18:27:32			0	38228	0	0	0	24161	22720	132496	27242	1003177	41163	108917	0	0	8309	548361	0	0
2024-06-04 18:28:32			0	38199	0	0	0	24161	22730	132552	27159	1003168	41174	108917	0	0	8307	549464	0	0
2024-06-04 18:29:32			0	38163	0	0	0	24163	22730	132600	27138	1003221	41174	108918	0	0	8305	550873	0	0
2024-06-04 18:30:32			0	38193	0	0	0	24163	22720	132552	27415	1003204	41163	108918	0	0	8307	549729	0	0
2024-06-04 18:31:32			0	38195	0	0	0	24166	22740	132576	27474	1003203	41164	108919	0	0	8307	549589	0	0
2024-06-04 18:32:32			0	38186	0	0	0	24166	22740	132588	27242	1003256	41186	108919	0	0	8306	549942	0	0
2024-06-04 18:33:32			0	38196	0	0	0	24176	22740	132512	27455	1003203	41174	108923	0	0	8307	549550	0	0
2024-06-04 18:34:32			0	38199	0	0	0	24171	22760	132508	27182	1003245	41177	108921	0	0	8307	549371	0	0
2024-06-04 18:35:32			0	38248	0	0	0	24179	22760	132360	27078	1003272	41177	108924	0	0	8310	547457	0	0
2024-06-04 18:36:32			0	38299	0	0	0	24173	22750	132260	27211	1003273	41166	108922	0	0	8312	545500	0	0
2024-06-04 18:37:32			0	38315	0	0	0	24181	22760	132100	27324	1003290	41176	108925	0	0	8313	544846	0	0
2024-06-04 18:38:32			0	38346	0	0	0	24176	22750	132012	27294	1003246	41187	108923	0	0	8315	543671	0	0
2024-06-04 18:39:32			0	38382	0	0	0	24179	22760	131924	27258	1003317	41176	108924	0	0	8316	542243	0	0
2024-06-04 18:40:32			0	38395	0	0	0	24173	22760	131888	27268	1003352	41177	108922	0	0	8317	541739	0	0
2024-06-04 18:41:32			0	38427	0	0	0	24186	22770	131824	27090	1003307	41178	108927	0	0	8319	540469	0	0
2024-06-04 18:42:32			0	38429	0	0	0	24184	22760	131792	27248	1003317	41166	108926	0	0	8319	540422	0	0
2024-06-04 18:43:32			0	38437	0	0	0	24179	22760	131772	27338	1003325	41166	108924	0	0	8319	540112	0	0
2024-06-04 18:44:32			0	38441	0	0	0	24181	22760	131792	27377	1003325	41177	108925	0	0	8319	539957	0	0
2024-06-04 18:45:32			0	38433	0	0	0	24179	22770	131764	27353	1003334	41178	108924	0	0	8319	540237	0	0
2024-06-04 18:46:32			0	38429	0	0	0	24186	22770	131772	27159	1003414	41178	108927	0	0	8319	540391	0	0
2024-06-04 18:47:32			0	38452	0	0	0	24184	22770	131784	27175	1003334	41167	108926	0	0	8320	539501	0	0
2024-06-04 18:48:32			0	38473	0	0	0	24197	22780	131636	27171	1003404	41179	108931	0	0	8321	538660	0	0
2024-06-04 18:49:32			0	38498	0	0	0	24202	22770	131544	27173	1003396	41189	108933	0	0	8322	537724	0	0
2024-06-04 18:50:32			0	38548	0	0	0	24199	22780	131348	27100	1003386	41179	108932	0	0	8325	535767	0	0
2024-06-04 18:51:32			0	38579	0	0	0	24210	22780	131236	27017	1003413	41179	108936	0	0	8326	534574	0	0
2024-06-04 18:52:32			0	38638	0	0	0	24207	22770	131104	26928	1003342	41178	108935	0	0	8329	532337	0	0
2024-06-04 18:53:32			0	38690	0	0	0	24202	22780	130884	26970	1003377	41179	108933	0	0	8332	530315	0	0
2024-06-04 18:54:32			0	38737	0	0	0	24199	22780	130701	27339	1003404	41167	108932	0	0	8335	528518	0	0
2024-06-04 18:55:32			0	38812	0	0	0	24194	22780	130517	27225	1003413	41190	108930	0	0	8339	525658	0	0
2024-06-04 18:56:32			0	38861	0	0	0	24199	22790	130365	26934	1003474	41168	108932	0	0	8341	523766	0	0
2024-06-04 18:57:32			0	38889	0	0	0	24205	22780	130205	26840	1003439	41167	108934	0	0	8342	522732	0	0
2024-06-04 18:58:32			0	38924	0	0	0	24207	22790	130141	27244	1003421	41168	108935	0	0	8344	521376	0	0
2024-06-04 18:59:32			0	38926	0	0	0	24205	22790	130125	26892	1003448	41168	108934	0	0	8344	521300	0	0
2024-06-04 19:00:32			0	38910	0	0	0	24207	22790	130165	27062	1003456	41169	108935	0	0	8343	521906	0	0
2024-06-04 19:01:32			0	38895	0	0	0	24207	22800	130177	27098	1003438	41169	108935	0	0	8343	522446	0	0
2024-06-04 19:02:32			0	38885	0	0	0	24215	22790	130213	27057	1003483	41181	108938	0	0	8342	522855	0	0
2024-06-04 19:03:32			0	38858	0	0	0	24215	22790	130357	27206	1003483	41192	108938	0	0	8341	523880	0	0
2024-06-04 19:04:32			0	38835	0	0	0	24218	22790	130313	27150	1003456	41169	108939	0	0	8339	524754	0	0
2024-06-04 19:05:32			0	38829	0	0	0	24212	22800	130413	27123	1003491	41169	108937	0	0	8339	524953	0	0
2024-06-04 19:06:32			0	38791	0	0	0	24218	22800	130469	27150	1003438	41192	108939	0	0	8337	526399	0	0
2024-06-04 19:07:32			0	38791	0	0	0	24220	22790	130505	27071	1003483	41192	108940	0	0	8337	526429	0	0
2024-06-04 19:08:32			0	38793	0	0	0	24223	22800	130465	26870	1003438	41181	108941	0	0	8337	526323	0	0
2024-06-04 19:09:32			0	38817	0	0	0	24207	22800	130441	26750	1003500	41181	108935	0	0	8339	525409	0	0
2024-06-04 19:10:32			0	38790	0	0	0	24215	22810	130485	27071	1003455	41181	108938	0	0	8337	526408	0	0
2024-06-04 19:11:32			0	38784	0	0	0	24215	22810	130509	27239	1003482	41181	108938	0	0	8337	526636	0	0
2024-06-04 19:12:32			0	38830	0	0	0	24218	22810	130445	27284	1003517	41194	108939	0	0	8339	524885	0	0
2024-06-04 19:13:32			0	38805	0	0	0	24225	22800	130481	26838	1003473	41169	108942	0	0	8338	525866	0	0
2024-06-04 19:14:32			0	38798	0	0	0	24228	22810	130445	27192	1003543	41194	108943	0	0	8337	526103	0	0
2024-06-04 19:15:32			0	38802	0	0	0	24231	22810	130497	27310	1003570	41182	108944	0	0	8338	525951	0	0
2024-06-04 19:16:32			0	38807	0	0	0	24225	22810	130469	27511	1003535	41181	108942	0	0	8338	525761	0	0
2024-06-04 19:17:32			0	38825	0	0	0	24223	22810	130437	27327	1003543	41171	108941	0	0	8339	525075	0	0
2024-06-04 19:18:32			0	38840	0	0	0	24220	22810	130481	27400	1003508	41181	108940	0	0	8340	524505	0	0
2024-06-04 19:19:32			0	38873	0	0	0	24231	22810	130337	27336	1003508	41181	108944	0	0	8341	523251	0	0
2024-06-04 19:20:32			0	38870	0	0	0	24236	22810	130245	27208	1003517	41194	108946	0	0	8341	523365	0	0
2024-06-04 19:21:32			0	38905	0	0	0	24233	22820	130253	27374	1003561	41182	108945	0	0	8343	522008	0	0
2024-06-04 19:22:32			0	38900	0	0	0	24225	22820	130165	27166	1003587	41194	108942	0	0	8343	522198	0	0
2024-06-04 19:23:32			0	38932	0	0	0	24223	22820	130089	27249	1003561	41182	108941	0	0	8344	520985	0	0
2024-06-04 19:24:32			0	38933	0	0	0	24228	22810	130017	27192	1003543	41194	108943	0	0	8344	520977	0	0
2024-06-04 19:25:32			0	38968	0	0	0	24231	22820	129869	27381	1003632	41215	108944	0	0	8346	519623	0	0
2024-06-04 19:26:32			0	38979	0	0	0	24228	22810	129877	27279	1003562	41193	108943	0	0	8347	519237	0	0
2024-06-04 19:27:32			0	39007	0	0	0	24225	22830	129861	27277	1003596	41172	108942	0	0	8348	518121	0	0
2024-06-04 19:28:32			0	39033	0	0	0	24228	22810	129761	27007	1003517	41182	108943	0	0	8350	517198	0	0
2024-06-04 19:29:32			0	39029	0	0	0	24225	22820	129641	27234	1003525	41182	108942	0	0	8349	517320	0	0
2024-06-04 19:30:32			0	39075	0	0	0	24231	22810	129569	26778	1003543	41161	108944	0	0	8352	515617	0	0
2024-06-04 19:31:32			0	39090	0	0	0	24225	22810	129573	26937	1003543	41182	108942	0	0	8353	515052	0	0
2024-06-04 19:32:32			0	39153	0	0	0	24225	22820	129385	26878	1003525	41194	108942	0	0	8356	512657	0	0
2024-06-04 19:33:32			0	39149	0	0	0	24225	22800	129397	27248	1003580	41181	108942	0	0	8356	512865	0	0
2024-06-04 19:34:32			0	39200	0	0	0	24225	22810	129269	26967	1003597	41194	108942	0	0	8358	510925	0	0
2024-06-04 19:35:32			0	39237	0	0	0	24225	22810	129157	27076	1003508	41181	108942	0	0	8360	509541	0	0
2024-06-04 19:36:32			0	39255	0	0	0	24228	22810	129109	27187	1003508	41193	108943	0	0	8361	508869	0	0
2024-06-04 19:37:32			0	39285	0	0	0	24220	22810	129021	27062	1003543	41171	108940	0	0	8363	507749	0	0
2024-06-04 19:38:32			0	39303	0	0	0	24220	22800	128961	27220	1003500	41159	108940	0	0	8364	507107	0	0
2024-06-04 19:39:32			0	39328	0	0	0	24225	22810	128961	27086	1003517	41182	108942	0	0	8365	506147	0	0
2024-06-04 19:40:32			0	39361	0	0	0	24223	22810	128833	27177	1003535	41193	108941	0	0	8367	504919	0	0
2024-06-04 19:41:32			0	39375	0	0	0	24220	22810	128797	27015	1003535	41193	108940	0	0	8367	504399	0	0
2024-06-04 19:42:32			0	39394	0	0	0	24212	22800	128701	27093	1003491	41181	108937	0	0	8368	503722	0	0
2024-06-04 19:43:32			0	39418	0	0	0	24220	22800	128582	27121	1003500	41169	108940	0	0	8370	502831	0	0
2024-06-04 19:44:32			0	39421	0	0	0	24212	22790	128677	27123	1003456	41203	108937	0	0	8370	502748	0	0
2024-06-04 19:45:32			0	39455	0	0	0	24212	22800	128558	26979	1003545	41192	108937	0	0	8372	501460	0	0
2024-06-04 19:46:32			0	39452	0	0	0	24210	22800	128566	27402	1003518	41192	108936	0	0	8371	501571	0	0
2024-06-04 19:47:32			0	39472	0	0	0	24215	22800	128586	27275	1003580	41181	108938	0	0	8372	500831	0	0
2024-06-04 19:48:32			0	39455	0	0	0	24218	22790	128470	27267	1003430	41192	108939	0	0	8371	501488	0	0
2024-06-04 19:49:32			0	39465	0	0	0	24212	22790	128410	26974	1003483	41181	108937	0	0	8372	501118	0	0
2024-06-04 19:50:32			0	39458	0	0	0	24210	22790	128522	26998	1003483	41181	108936	0	0	8372	501377	0	0
2024-06-04 19:51:32			0	39471	0	0	0	24205	22800	128434	26948	1003518	41169	108934	0	0	8373	500868	0	0
2024-06-04 19:52:32			0	39433	0	0	0	24210	22790	128502	27175	1003456	41192	108936	0	0	8370	502303	0	0
2024-06-04 19:53:32			0	39474	0	0	0	24205	22800	128614	27052	1003491	41159	108934	0	0	8373	500757	0	0
2024-06-04 19:54:32			0	39460	0	0	0	24199	22790	128694	27052	1003456	41181	108932	0	0	8372	501303	0	0
2024-06-04 19:55:32			0	39461	0	0	0	24202	22790	128570	27173	1003403	41192	108933	0	0	8372	501266	0	0
2024-06-04 19:56:32			0	39439	0	0	0	24205	22790	128622	27142	1003421	41180	108934	0	0	8371	502081	0	0
2024-06-04 19:57:32			0	39442	0	0	0	24199	22790	128666	27486	1003456	41192	108932	0	0	8371	501969	0	0
2024-06-04 19:58:32			0	39400	0	0	0	24199	22790	128733	27213	1003421	41180	108932	0	0	8369	503527	0	0
2024-06-04 19:59:32			0	39392	0	0	0	24197	22780	128789	27327	1003439	41190	108931	0	0	8369	503852	0	0
2024-06-04 20:00:32			0	39385	0	0	0	24194	22790	128857	27232	1003448	41191	108930	0	0	8368	504084	0	0
2024-06-04 20:01:32			0	39382	0	0	0	24197	22790	128885	27201	1003456	41181	108931	0	0	8368	504195	0	0
2024-06-04 20:02:32			0	39353	0	0	0	24205	22790	128913	27492	1003403	41192	108934	0	0	8366	505273	0	0
2024-06-04 20:03:32			0	39353	0	0	0	24192	22790	128869	27324	1003501	41180	108929	0	0	8367	505273	0	0
2024-06-04 20:04:32			0	39334	0	0	0	24197	22790	128941	27436	1003474	41202	108931	0	0	8366	505980	0	0
2024-06-04 20:05:32			0	39333	0	0	0	24194	22780	128989	27435	1003439	41179	108930	0	0	8366	506046	0	0
2024-06-04 20:06:32			0	39346	0	0	0	24202	22780	128893	27429	1003404	41201	108933	0	0	8366	505562	0	0
2024-06-04 20:07:32			0	39361	0	0	0	24197	22770	128885	27326	1003449	41178	108931	0	0	8367	505032	0	0
2024-06-04 20:08:32			0	39366	0	0	0	24189	22790	128853	27379	1003448	41180	108928	0	0	8367	504790	0	0
2024-06-04 20:09:32			0	39407	0	0	0	24186	22780	128657	27355	1003351	41190	108927	0	0	8369	503295	0	0
2024-06-04 20:10:32			0	39423	0	0	0	24181	22780	128662	27312	1003404	41190	108925	0	0	8370	502702	0	0
2024-06-04 20:11:32			0	39461	0	0	0	24194	22780	128522	27377	1003413	41201	108930	0	0	8372	501294	0	0
2024-06-04 20:12:32			0	39512	0	0	0	24186	22770	128434	27493	1003342	41189	108927	0	0	8375	499436	0	0
2024-06-04 20:13:32			0	39563	0	0	0	24186	22780	128258	27228	1003351	41179	108927	0	0	8378	497526	0	0
2024-06-04 20:14:32			0	39597	0	0	0	24181	22770	128134	27322	1003396	41178	108925	0	0	8379	496301	0	0
2024-06-04 20:15:32			0	39631	0	0	0	24179	22780	128078	27597	1003404	41190	108924	0	0	8381	495023	0	0
2024-06-04 20:16:32			0	39680	0	0	0	24179	22770	127918	27618	1003396	41200	108924	0	0	8384	493251	0	0
2024-06-04 20:17:32			0	39686	0	0	0	24181	22780	127838	27402	1003377	41179	108925	0	0	8384	493003	0	0
2024-06-04 20:18:32			0	39740	0	0	0	24189	22770	127674	27274	1003360	41189	108928	0	0	8387	491053	0	0
2024-06-04 20:19:32			0	39745	0	0	0	24171	22780	127582	27227	1003324	41167	108921	0	0	8387	490842	0	0
2024-06-04 20:20:32			0	39793	0	0	0	24176	22770	127510	27072	1003307	41178	108923	0	0	8390	489115	0	0
2024-06-04 20:21:32			0	39822	0	0	0	24179	22770	127406	27041	1003422	41189	108924	0	0	8391	488057	0	0
2024-06-04 20:22:32			0	39822	0	0	0	24181	22770	127394	27241	1003360	41178	108925	0	0	8391	488057	0	0
2024-06-04 20:23:32			0	39855	0	0	0	24184	22760	127334	27095	1003352	41188	108926	0	0	8393	486882	0	0
2024-06-04 20:24:32			0	39843	0	0	0	24184	22760	127270	26946	1003299	41177	108926	0	0	8392	487319	0	0
2024-06-04 20:25:32			0	39854	0	0	0	24184	22770	127270	26979	1003396	41178	108926	0	0	8393	486891	0	0
2024-06-04 20:26:32			0	39850	0	0	0	24181	22770	127310	27187	1003387	41189	108925	0	0	8393	487037	0	0
2024-06-04 20:27:32			0	39853	0	0	0	24176	22770	127282	27450	1003369	41200	108923	0	0	8393	486927	0	0
2024-06-04 20:28:32			0	39858	0	0	0	24181	22770	127362	27081	1003360	41189	108925	0	0	8393	486745	0	0
2024-06-04 20:29:32			0	39862	0	0	0	24173	22760	127350	27135	1003352	41177	108922	0	0	8393	486627	0	0
2024-06-04 20:30:32			0	39844	0	0	0	24173	22760	127366	27428	1003325	41188	108922	0	0	8392	487282	0	0
2024-06-04 20:31:32			0	39834	0	0	0	24168	22760	127342	27376	1003325	41177	108920	0	0	8392	487647	0	0
2024-06-04 20:32:32			0	39806	0	0	0	24166	22760	127382	27154	1003290	41176	108919	0	0	8390	488668	0	0
2024-06-04 20:33:32			0	39840	0	0	0	24166	22760	127402	27476	1003325	41199	108919	0	0	8392	487428	0	0
2024-06-04 20:34:32			0	39812	0	0	0	24168	22760	127382	27500	1003317	41187	108920	0	0	8391	488449	0	0
2024-06-04 20:35:32			0	39829	0	0	0	24171	22750	127426	27331	1003300	41187	108921	0	0	8392	487857	0	0
2024-06-04 20:36:32			0	39806	0	0	0	24166	22760	127426	27677	1003317	41187	108919	0	0	8390	488668	0	0
2024-06-04 20:37:32			0	39821	0	0	0	24163	22750	127406	27170	1003273	41199	108918	0	0	8391	488148	0	0
2024-06-04 20:38:32			0	39787	0	0	0	24168	22760	127498	27206	1003370	41187	108920	0	0	8389	489362	0	0
2024-06-04 20:39:32			0	39791	0	0	0	24168	22750	127482	27393	1003300	41187	108920	0	0	8390	489243	0	0
2024-06-04 20:40:32			0	39801	0	0	0	24168	22750	127442	27277	1003273	41166	108920	0	0	8390	488878	0	0
2024-06-04 20:41:32			0	39799	0	0	0	24163	22750	127490	27317	1003273	41187	108918	0	0	8390	488951	0	0
2024-06-04 20:42:32			0	39790	0	0	0	24166	22740	127530	26974	1003256	41186	108919	0	0	8390	489307	0	0
2024-06-04 20:43:32			0	39798	0	0	0	24161	22740	127470	27260	1003265	41186	108917	0	0	8390	489015	0	0
2024-06-04 20:44:32			0	39786	0	0	0	24155	22740	127434	27008	1003230	41174	108915	0	0	8390	489453	0	0
2024-06-04 20:45:32			0	39797	0	0	0	24163	22740	127458	27234	1003265	41186	108918	0	0	8390	489051	0	0
2024-06-04 20:46:32			0	39813	0	0	0	24166	22740	127474	27124	1003230	41174	108919	0	0	8391	488467	0	0
2024-06-04 20:47:32			0	39827	0	0	0	24153	22750	127462	27286	1003335	41187	108914	0	0	8392	487929	0	0
2024-06-04 20:48:32			0	39819	0	0	0	24148	22740	127394	27281	1003265	41186	108912	0	0	8391	488249	0	0
2024-06-04 20:49:32			0	39827	0	0	0	24150	22730	127418	27218	1003266	41186	108913	0	0	8392	487984	0	0
2024-06-04 20:50:32			0	39845	0	0	0	24148	22740	127342	27093	1003203	41186	108912	0	0	8393	487301	0	0
2024-06-04 20:51:32			0	39860	0	0	0	24148	22730	127310	27225	1003301	41174	108912	0	0	8393	486782	0	0
2024-06-04 20:52:32			0	39870	0	0	0	24142	22740	127258	27445	1003203	41197	108910	0	0	8394	486390	0	0
2024-06-04 20:53:32			0	39861	0	0	0	24142	22730	127302	27019	1003213	41197	108910	0	0	8394	486745	0	0
2024-06-04 20:54:32			0	39878	0	0	0	24137	22730	127306	27248	1003194	41174	108908	0	0	8395	486126	0	0
2024-06-04 20:55:32			0	39879	0	0	0	24142	22740	127306	27377	1003203	41186	108910	0	0	8395	486063	0	0
2024-06-04 20:56:32			0	39893	0	0	0	24140	22730	127166	27123	1003159	41174	108909	0	0	8395	485581	0	0
2024-06-04 20:57:32			0	39906	0	0	0	24140	22720	127350	27272	1003177	41196	108909	0	0	8396	485135	0	0
2024-06-04 20:58:32			0	39905	0	0	0	24135	22720	127190	27659	1003151	41173	108907	0	0	8396	485172	0	0
2024-06-04 20:59:32			0	39917	0	0	0	24124	22720	127190	27176	1003142	41172	108903	0	0	8397	484735	0	0
2024-06-04 21:00:32			0	39933	0	0	0	24135	22730	127138	27050	1003213	41186	108907	0	0	8397	484127	0	0
2024-06-04 21:01:32			0	39926	0	0	0	24119	22730	127170	27312	1003133	41186	108901	0	0	8397	484381	0	0
2024-06-04 21:02:32			0	39926	0	0	0	24137	22720	127070	26885	1003151	41173	108908	0	0	8397	484409	0	0
2024-06-04 21:03:32			0	39918	0	0	0	24142	22720	127238	27329	1003204	41173	108910	0	0	8397	484699	0	0
2024-06-04 21:04:32			0	39921	0	0	0	24129	22720	127198	27008	1003169	41184	108905	0	0	8397	484590	0	0
2024-06-04 21:05:32			0	39890	0	0	0	24135	22720	127214	27372	1003089	41195	108907	0	0	8395	485717	0	0
2024-06-04 21:06:32			0	39905	0	0	0	24135	22720	127166	27317	1003169	41172	108907	0	0	8396	485172	0	0
2024-06-04 21:07:32			0	39908	0	0	0	24129	22720	127254	27183	1003116	41195	108905	0	0	8396	485062	0	0
2024-06-04 21:08:32			0	39887	0	0	0	24132	22730	127230	27036	1003186	41174	108906	0	0	8395	485799	0	0
2024-06-04 21:09:32			0	39897	0	0	0	24135	22720	127234	27015	1003124	41173	108907	0	0	8396	485462	0	0
2024-06-04 21:10:32			0	39876	0	0	0	24135	22730	127298	27168	1003213	41186	108907	0	0	8394	486199	0	0
2024-06-04 21:11:32			0	39886	0	0	0	24135	22720	127306	27057	1003169	41184	108907	0	0	8395	485862	0	0
2024-06-04 21:12:32			0	39871	0	0	0	24127	22720	127366	27104	1003116	41172	108904	0	0	8394	486408	0	0
2024-06-04 21:13:32			0	39897	0	0	0	24132	22710	127386	26791	1003080	41184	108906	0	0	8396	485490	0	0
2024-06-04 21:14:32			0	39872	0	0	0	24127	22700	127286	27230	1003064	41194	108904	0	0	8394	486426	0	0
2024-06-04 21:15:32			0	39868	0	0	0	24127	22710	127306	27029	1003134	41172	108904	0	0	8394	486545	0	0
2024-06-04 21:16:32			0	39848	0	0	0	24111	22710	127402	26856	1003045	41172	108898	0	0	8393	487273	0	0
2024-06-04 21:17:32			0	39872	0	0	0	24111	22710	127370	26996	1003099	41172	108898	0	0	8395	486399	0	0
2024-06-04 21:18:32			0	39863	0	0	0	24119	22710	127322	27197	1003080	41172	108901	0	0	8394	486727	0	0
2024-06-04 21:19:32			0	39855	0	0	0	24109	22700	127354	26889	1003064	41172	108897	0	0	8394	487045	0	0
2024-06-04 21:20:32			0	39861	0	0	0	24114	22700	127410	27234	1003055	41171	108899	0	0	8394	486827	0	0
2024-06-04 21:21:32			0	39864	0	0	0	24098	22710	127358	27118	1003045	41172	108893	0	0	8394	486690	0	0
2024-06-04 21:22:32			0	39861	0	0	0	24101	22700	127334	27182	1003064	41194	108894	0	0	8394	486827	0	0
2024-06-04 21:23:32			0	39854	0	0	0	24106	22700	127418	27140	1002975	41182	108896	0	0	8394	487082	0	0
2024-06-04 21:24:32			0	39855	0	0	0	24101	22690	127410	27123	1002984	41170	108894	0	0	8394	487073	0	0
2024-06-04 21:25:32			0	39862	0	0	0	24098	22690	127398	27013	1003064	41181	108893	0	0	8394	486818	0	0
2024-06-04 21:26:32			0	39853	0	0	0	24093	22680	127386	27067	1003056	41181	108891	0	0	8394	487173	0	0
2024-06-04 21:27:32			0	39865	0	0	0	24096	22690	127450	27421	1003038	41170	108892	0	0	8394	486708	0	0
2024-06-04 21:28:32			0	39829	0	0	0	24090	22690	127410	26982	1003020	41181	108890	0	0	8393	488020	0	0
2024-06-04 21:29:32			0	39836	0	0	0	24101	22700	127366	27083	1003028	41182	108894	0	0	8393	487738	0	0
2024-06-04 21:30:32			0	39848	0	0	0	24096	22700	127442	27114	1003055	41182	108892	0	0	8394	487300	0	0
2024-06-04 21:31:32			0	39829	0	0	0	24096	22690	127402	26837	1003020	41170	108892	0	0	8393	488020	0	0
2024-06-04 21:32:32			0	39831	0	0	0	24098	22690	127434	26795	1003011	41170	108893	0	0	8393	487948	0	0
2024-06-04 21:33:32			0	39831	0	0	0	24096	22680	127430	27159	1003029	41170	108892	0	0	8393	487975	0	0
2024-06-04 21:34:32			0	39826	0	0	0	24085	22680	127434	26991	1002949	41181	108888	0	0	8393	488157	0	0
2024-06-04 21:35:32			0	39840	0	0	0	24101	22680	127486	27256	1003029	41181	108894	0	0	8393	487647	0	0
2024-06-04 21:36:32			0	39843	0	0	0	24085	22680	127402	26870	1003003	41170	108888	0	0	8393	487537	0	0
2024-06-04 21:37:32			0	39839	0	0	0	24088	22680	127390	27095	1002976	41181	108889	0	0	8393	487683	0	0
2024-06-04 21:38:32			0	39862	0	0	0	24090	22680	127318	27287	1003003	41192	108890	0	0	8394	486845	0	0
2024-06-04 21:39:32			0	39876	0	0	0	24093	22680	127270	27441	1002994	41159	108891	0	0	8395	486335	0	0
2024-06-04 21:40:32			0	39849	0	0	0	24083	22670	127282	27229	1002959	41168	108887	0	0	8394	487346	0	0
2024-06-04 21:41:32			0	39881	0	0	0	24090	22670	127230	27159	1002906	41179	108890	0	0	8395	486180	0	0
2024-06-04 21:42:32			0	39891	0	0	0	24075	22680	127206	27343	1002967	41169	108884	0	0	8396	485789	0	0
2024-06-04 21:43:32			0	39906	0	0	0	24077	22670	127246	27225	1002924	41179	108885	0	0	8397	485271	0	0
2024-06-04 21:44:32			0	39900	0	0	0	24070	22660	127254	27156	1002889	41168	108882	0	0	8397	485516	0	0
2024-06-04 21:45:32			0	39909	0	0	0	24067	22660	127230	27190	1002889	41179	108881	0	0	8397	485189	0	0
2024-06-04 21:46:32			0	39914	0	0	0	24070	22670	127114	27060	1002906	41168	108882	0	0	8397	484980	0	0
2024-06-04 21:47:32			0	39912	0	0	0	24059	22660	127130	27152	1002889	41179	108878	0	0	8397	485080	0	0
2024-06-04 21:48:32			0	39928	0	0	0	24062	22670	127114	27142	1002906	41179	108879	0	0	8398	484471	0	0
2024-06-04 21:49:32			0	39896	0	0	0	24064	22660	127138	27161	1002942	41179	108880	0	0	8396	485662	0	0
2024-06-04 21:50:32			0	39908	0	0	0	24064	22660	127142	27053	1002933	41167	108880	0	0	8397	485225	0	0
2024-06-04 21:51:32			0	39915	0	0	0	24064	22660	127166	27052	1002907	41178	108880	0	0	8397	484971	0	0
2024-06-04 21:52:32			0	39929	0	0	0	24064	22660	127138	26925	1002835	41191	108880	0	0	8398	484462	0	0
2024-06-04 21:53:32			0	39940	0	0	0	24057	22660	127082	26811	1002880	41178	108877	0	0	8399	484063	0	0
2024-06-04 21:54:32			0	39958	0	0	0	24067	22660	127134	27164	1002907	41178	108881	0	0	8400	483409	0	0
2024-06-04 21:55:32			0	39951	0	0	0	24067	22650	127150	27180	1002898	41166	108881	0	0	8399	483690	0	0
2024-06-04 21:56:32			0	39959	0	0	0	24059	22660	127138	27168	1002854	41190	108878	0	0	8400	483373	0	0
2024-06-04 21:57:32			0	39926	0	0	0	24062	22660	127146	27128	1002933	41190	108879	0	0	8398	484571	0	0
2024-06-04 21:58:32			0	39947	0	0	0	24057	22650	127142	27189	1002863	41166	108877	0	0	8399	483836	0	0
2024-06-04 21:59:32			0	39939	0	0	0	24049	22660	127134	26996	1002907	41178	108874	0	0	8399	484099	0	0
2024-06-04 22:00:32			0	39960	0	0	0	24046	22650	127086	27209	1002872	41166	108873	0	0	8400	483364	0	0
2024-06-04 22:01:32			0	39965	0	0	0	24051	22650	127098	27244	1002837	41177	108875	0	0	8400	483182	0	0
2024-06-04 22:02:32			0	39952	0	0	0	24049	22650	127062	27090	1002818	41166	108874	0	0	8400	483654	0	0
2024-06-04 22:03:32			0	39976	0	0	0	24046	22650	127018	27144	1002810	41166	108873	0	0	8401	482783	0	0
2024-06-04 22:04:32			0	39958	0	0	0	24051	22640	127006	26948	1002801	41156	108875	0	0	8400	483464	0	0
2024-06-04 22:05:32			0	39978	0	0	0	24036	22640	126990	27367	1002793	41166	108869	0	0	8401	482738	0	0
2024-06-04 22:06:32			0	39988	0	0	0	24041	22640	127014	27256	1002740	41177	108871	0	0	8402	482376	0	0
2024-06-04 22:07:32			0	40015	0	0	0	24051	22640	126882	27052	1002828	41189	108875	0	0	8403	481398	0	0
2024-06-04 22:08:32			0	40006	0	0	0	24044	22630	127014	27312	1002838	41187	108872	0	0	8402	481750	0	0
2024-06-04 22:09:32			0	40009	0	0	0	24041	22640	126914	26925	1002820	41177	108871	0	0	8403	481615	0	0
2024-06-04 22:10:32			0	40037	0	0	0	24049	22640	126734	27066	1002820	41166	108874	0	0	8404	480602	0	0
2024-06-04 22:11:32			0	40055	0	0	0	24038	22640	126806	26956	1002793	41177	108870	0	0	8405	479951	0	0
2024-06-04 22:12:32			0	40086	0	0	0	24057	22650	126742	26922	1002863	41166	108877	0	0	8406	478804	0	0
2024-06-04 22:13:32			0	40091	0	0	0	24054	22640	126730	27000	1002855	41166	108876	0	0	8407	478651	0	0
2024-06-04 22:14:32			0	40119	0	0	0	24057	22640	126671	27145	1002881	41177	108877	0	0	8408	477641	0	0
2024-06-04 22:15:32			0	40122	0	0	0	24051	22640	126527	27069	1002793	41177	108875	0	0	8408	477533	0	0
2024-06-04 22:16:32			0	40149	0	0	0	24051	22640	126495	27019	1002793	41177	108875	0	0	8410	476560	0	0
2024-06-04 22:17:32			0	40168	0	0	0	24057	22640	126427	27149	1002820	41177	108877	0	0	8411	475876	0	0
2024-06-04 22:18:32			0	40153	0	0	0	24059	22640	126451	27274	1002775	41177	108878	0	0	8410	476416	0	0
2024-06-04 22:19:32			0	40166	0	0	0	24049	22640	126427	26972	1002820	41177	108874	0	0	8411	475948	0	0
2024-06-04 22:20:32			0	40162	0	0	0	24044	22630	126423	26979	1002784	41176	108872	0	0	8411	476119	0	0
2024-06-04 22:21:32			0	40158	0	0	0	24044	22630	126451	27003	1002838	41154	108872	0	0	8410	476263	0	0
2024-06-04 22:22:32			0	40172	0	0	0	24049	22630	126495	27293	1002784	41187	108874	0	0	8411	475759	0	0
2024-06-04 22:23:32			0	40176	0	0	0	24041	22620	126387	27154	1002821	41165	108871	0	0	8411	475642	0	0
2024-06-04 22:24:32			0	40198	0	0	0	24051	22640	126331	27097	1002793	41166	108875	0	0	8412	474798	0	0
2024-06-04 22:25:32			0	40196	0	0	0	24051	22630	126259	27168	1002829	41175	108875	0	0	8412	474896	0	0
2024-06-04 22:26:32			0	40162	0	0	0	24064	22630	126383	26928	1002838	41187	108880	0	0	8410	476119	0	0
2024-06-04 22:27:32			0	40182	0	0	0	24059	22640	126387	26963	1002828	41177	108878	0	0	8411	475373	0	0
2024-06-04 22:28:32			0	40204	0	0	0	24070	22650	126399	27317	1002917	41189	108882	0	0	8412	474556	0	0
2024-06-04 22:29:32			0	40179	0	0	0	24077	22640	126371	27178	1002908	41177	108885	0	0	8411	475481	0	0
2024-06-04 22:30:32			0	40168	0	0	0	24080	22650	126419	27053	1002917	41189	108886	0	0	8410	475850	0	0
2024-06-04 22:31:32			0	40140	0	0	0	24088	22650	126427	27339	1002925	41177	108889	0	0	8409	476858	0	0
2024-06-04 22:32:32			0	40155	0	0	0	24098	22660	126379	27111	1002969	41179	108893	0	0	8409	476291	0	0
2024-06-04 22:33:32			0	40174	0	0	0	24090	22660	126475	27232	1002969	41179	108890	0	0	8410	475607	0	0
2024-06-04 22:34:32			0	40167	0	0	0	24080	22670	126411	27362	1002950	41179	108886	0	0	8410	475833	0	0
2024-06-04 22:35:32			0	40191	0	0	0	24085	22660	126523	27287	1002889	41179	108888	0	0	8411	474996	0	0
2024-06-04 22:36:32			0	40167	0	0	0	24077	22660	126447	27128	1002942	41168	108885	0	0	8410	475859	0	0
2024-06-04 22:37:32			0	40190	0	0	0	24085	22660	126403	27123	1002827	41178	108888	0	0	8411	475032	0	0
2024-06-04 22:38:32			0	40210	0	0	0	24077	22660	126375	27209	1002880	41178	108885	0	0	8413	474314	0	0
2024-06-04 22:39:32			0	40236	0	0	0	24072	22660	126263	27059	1002880	41190	108883	0	0	8414	473381	0	0
2024-06-04 22:40:32			0	40260	0	0	0	24067	22650	126211	27227	1002872	41177	108881	0	0	8415	472547	0	0
2024-06-04 22:41:32			0	40287	0	0	0	24075	22660	126059	27222	1002933	41178	108884	0	0	8417	471554	0	0
2024-06-04 22:42:32			0	40289	0	0	0	24067	22650	126099	26970	1002917	41200	108881	0	0	8417	471508	0	0
2024-06-04 22:43:32			0	40303	0	0	0	24077	22650	126055	27020	1002925	41177	108885	0	0	8417	471007	0	0
2024-06-04 22:44:32			0	40316	0	0	0	24070	22650	126111	26939	1002845	41166	108882	0	0	8418	470543	0	0
2024-06-04 22:45:32			0	40343	0	0	0	24062	22660	125987	27163	1002880	41167	108879	0	0	8420	469552	0	0
2024-06-04 22:46:32			0	40348	0	0	0	24070	22650	125991	27331	1002898	41177	108882	0	0	8420	469399	0	0
2024-06-04 22:47:32			0	40360	0	0	0	24067	22660	125955	27237	1002907	41167	108881	0	0	8421	468945	0	0
2024-06-04 22:48:32			0	40350	0	0	0	24059	22650	125939	27232	1002917	41166	108878	0	0	8420	469328	0	0
2024-06-04 22:49:32			0	40348	0	0	0	24059	22650	125967	26828	1002898	41166	108878	0	0	8420	469399	0	0
2024-06-04 22:50:32			0	40385	0	0	0	24062	22650	125911	26847	1002845	41166	108879	0	0	8422	468079	0	0
2024-06-04 22:51:32			0	40399	0	0	0	24059	22640	125823	27034	1002855	41166	108878	0	0	8423	467607	0	0
2024-06-04 22:52:32			0	40422	0	0	0	24051	22650	125759	27312	1002890	41189	108875	0	0	8424	466761	0	0
2024-06-04 22:53:32			0	40445	0	0	0	24057	22650	125679	27267	1002872	41166	108877	0	0	8425	465943	0	0
2024-06-04 22:54:32			0	40443	0	0	0	24075	22650	125627	26873	1002925	41189	108884	0	0	8425	466014	0	0
2024-06-04 22:55:32			0	40452	0	0	0	24077	22650	125591	27242	1002898	41177	108885	0	0	8425	465694	0	0
2024-06-04 22:56:32			0	40467	0	0	0	24083	22660	125587	27307	1002960	41178	108887	0	0	8426	465135	0	0
2024-06-04 22:57:32			0	40487	0	0	0	24093	22670	125527	27284	1002950	41191	108891	0	0	8427	464399	0	0
2024-06-04 22:58:32			0	40512	0	0	0	24096	22660	125375	26871	1002969	41179	108892	0	0	8428	463538	0	0
2024-06-04 22:59:32			0	40538	0	0	0	24106	22670	125339	27157	1002977	41179	108896	0	0	8429	462590	0	0
2024-06-04 23:00:32			0	40581	0	0	0	24103	22660	125267	27138	1002969	41191	108895	0	0	8432	461094	0	0
2024-06-04 23:01:32			0	40610	0	0	0	24103	22680	125175	26939	1002994	41180	108895	0	0	8433	460018	0	0
2024-06-04 23:02:32			0	40627	0	0	0	24111	22670	125087	27159	1002959	41191	108898	0	0	8434	459443	0	0
2024-06-04 23:03:32			0	40697	0	0	0	24114	22670	125051	27149	1003012	41179	108899	0	0	8437	456976	0	0
2024-06-04 23:04:32			0	40675	0	0	0	24114	22680	124887	27260	1002994	41191	108899	0	0	8436	457725	0	0
2024-06-04 23:05:32			0	40732	0	0	0	24111	22660	124839	27346	1002969	41191	108898	0	0	8439	455771	0	0
2024-06-04 23:06:32			0	40780	0	0	0	24106	22670	124700	27176	1002950	41191	108896	0	0	8442	454060	0	0
2024-06-04 23:07:32			0	40787	0	0	0	24106	22670	124592	27078	1002950	41168	108896	0	0	8442	453815	0	0
2024-06-04 23:08:32			0	40844	0	0	0	24103	22670	124504	26974	1002977	41179	108895	0	0	8445	451818	0	0
2024-06-04 23:09:32			0	40861	0	0	0	24101	22670	124376	27267	1003012	41191	108894	0	0	8446	451223	0	0
2024-06-04 23:10:32			0	40888	0	0	0	24096	22670	124360	27043	1002986	41202	108892	0	0	8448	450280	0	0
2024-06-04 23:11:32			0	40901	0	0	0	24096	22680	124272	26948	1002967	41169	108892	0	0	8448	449801	0	0
2024-06-04 23:12:32			0	40922	0	0	0	24090	22670	124220	27133	1002986	41179	108890	0	0	8450	449093	0	0
2024-06-04 23:13:32			0	40929	0	0	0	24096	22680	124132	27024	1002994	41180	108892	0	0	8450	448824	0	0
2024-06-04 23:14:32			0	40942	0	0	0	24093	22670	124104	26996	1002924	41191	108891	0	0	8451	448396	0	0
2024-06-04 23:15:32			0	40961	0	0	0	24088	22670	124132	26928	1002986	41179	108889	0	0	8452	447734	0	0
2024-06-04 23:16:32			0	40961	0	0	0	24090	22670	124120	26942	1002950	41191	108890	0	0	8452	447734	0	0
2024-06-04 23:17:32			0	40957	0	0	0	24090	22670	124156	26889	1002950	41179	108890	0	0	8451	447874	0	0
2024-06-04 23:18:32			0	40946	0	0	0	24090	22670	124160	26802	1003030	41191	108890	0	0	8451	448257	0	0
2024-06-04 23:19:32			0	40936	0	0	0	24096	22670	124204	27029	1003012	41202	108892	0	0	8450	448605	0	0
2024-06-04 23:20:32			0	40946	0	0	0	24093	22680	124288	27216	1003074	41191	108891	0	0	8451	448232	0	0
2024-06-04 23:21:32			0	40896	0	0	0	24101	22680	124340	27020	1003029	41181	108894	0	0	8448	449975	0	0
2024-06-04 23:22:32			0	40862	0	0	0	24098	22670	124484	27277	1003004	41202	108893	0	0	8446	451188	0	0
2024-06-04 23:23:32			0	40797	0	0	0	24101	22680	124620	27114	1003047	41191	108894	0	0	8443	453439	0	0
2024-06-04 23:24:32			0	40715	0	0	0	24096	22680	124911	27104	1003047	41191	108892	0	0	8439	456317	0	0
2024-06-04 23:25:32			0	40628	0	0	0	24098	22680	125235	26850	1003056	41181	108893	0	0	8434	459382	0	0
2024-06-04 23:26:32			0	40519	0	0	0	24111	22680	125583	27206	1003029	41181	108898	0	0	8428	463238	0	0
2024-06-04 23:27:32			0	40375	0	0	0	24103	22680	125827	26977	1003074	41191	108895	0	0	8421	468357	0	0
2024-06-04 23:28:32			0	40254	0	0	0	24116	22680	126295	26941	1003056	41204	108900	0	0	8414	472683	0	0
2024-06-04 23:29:32			0	40103	0	0	0	24119	22680	126683	26724	1003074	41180	108901	0	0	8406	478111	0	0
2024-06-04 23:30:32			0	39973	0	0	0	24106	22680	127094	27083	1003021	41191	108896	0	0	8400	482811	0	0
2024-06-04 23:31:32			0	39831	0	0	0	24109	22680	127510	26967	1003047	41191	108897	0	0	8392	487975	0	0
2024-06-04 23:32:32			0	39709	0	0	0	24106	22670	127926	27027	1003039	41202	108896	0	0	8386	492463	0	0
2024-06-04 23:33:32			0	39597	0	0	0	24111	22670	128234	26854	1002959	41191	108898	0	0	8380	496579	0	0
2024-06-04 23:34:32			0	39493	0	0	0	24111	22680	128650	26896	1003029	41170	108898	0	0	8375	500390	0	0
2024-06-04 23:35:32			0	39365	0	0	0	24093	22680	129005	26708	1003021	41191	108891	0	0	8368	505138	0	0
2024-06-04 23:36:32			0	39278	0	0	0	24103	22680	129269	27003	1003101	41191	108895	0	0	8364	508380	0	0
2024-06-04 23:37:32			0	39190	0	0	0	24096	22670	129529	26984	1003004	41191	108892	0	0	8359	511700	0	0
2024-06-04 23:38:32			0	39100	0	0	0	24093	22660	129749	27034	1002995	41191	108891	0	0	8355	515109	0	0
2024-06-04 23:39:32			0	39024	0	0	0	24085	22660	129993	27095	1002942	41191	108888	0	0	8351	517973	0	0
2024-06-04 23:40:32			0	38965	0	0	0	24093	22660	130201	26790	1003049	41179	108891	0	0	8348	520202	0	0
2024-06-04 23:41:32			0	38904	0	0	0	24085	22660	130377	27135	1002942	41191	108888	0	0	8345	522514	0	0
2024-06-04 23:42:32			0	38831	0	0	0	24083	22670	130561	26958	1002977	41191	108887	0	0	8341	525259	0	0
2024-06-04 23:43:32			0	38799	0	0	0	24090	22660	130813	27227	1002933	41178	108890	0	0	8339	526507	0	0
2024-06-04 23:44:32			0	38732	0	0	0	24085	22660	130917	27022	1002942	41202	108888	0	0	8336	529065	0	0
2024-06-04 23:45:32			0	38677	0	0	0	24090	22660	131060	27039	1002960	41190	108890	0	0	8333	531170	0	0
2024-06-04 23:46:32			0	38647	0	0	0	24085	22650	131244	27166	1002952	41200	108888	0	0	8331	532350	0	0
2024-06-04 23:47:32			0	38603	0	0	0	24075	22650	131444	26901	1002890	41177	108884	0	0	8329	534039	0	0
2024-06-04 23:48:32			0	38544	0	0	0	24088	22660	131568	27156	1002987	41178	108889	0	0	8326	536281	0	0
2024-06-04 23:49:32			0	38514	0	0	0	24075	22660	131660	27320	1002880	41178	108884	0	0	8325	537438	0	0
2024-06-04 23:50:32			0	38466	0	0	0	24072	22660	131880	26968	1002907	41190	108883	0	0	8322	539292	0	0
2024-06-04 23:51:32			0	38400	0	0	0	24075	22650	131988	26875	1002898	41189	108884	0	0	8319	541879	0	0
2024-06-04 23:52:32			0	38352	0	0	0	24083	22660	132148	27145	1002880	41178	108887	0	0	8316	543712	0	0
2024-06-04 23:53:32			0	38327	0	0	0	24070	22650	132336	27381	1002890	41189	108882	0	0	8315	544715	0	0
2024-06-04 23:54:32			0	38291	0	0	0	24077	22650	132512	27253	1002952	41189	108885	0	0	8313	546117	0	0
2024-06-04 23:55:32			0	38257	0	0	0	24070	22650	132612	27013	1002917	41166	108882	0	0	8311	547443	0	0
2024-06-04 23:56:32			0	38223	0	0	0	24062	22650	132696	27381	1002792	41177	108879	0	0	8310	548771	0	0
2024-06-04 23:57:32			0	38200	0	0	0	24036	22640	132824	27322	1002766	41177	108869	0	0	8309	549701	0	0
2024-06-04 23:58:32			0	38145	0	0	0	24028	22630	132936	27282	1002731	41176	108866	0	0	8306	551887	0	0
2024-06-04 23:59:32			0	38124	0	0	0	24020	22620	133084	27260	1002706	41186	108863	0	0	8305	552743	0	0
2024-06-05 00:00:32			0	38092	0	0	0	23994	22610	133076	27367	1002671	41185	108853	0	0	8304	554031	0	0
2024-06-05 00:01:32			0	38090	0	0	0	23971	22610	133216	27274	1002635	41163	108844	0	0	8304	554110	0	0
2024-06-05 00:02:32			0	38046	0	0	0	23971	22600	133356	27557	1002627	41173	108844	0	0	8302	555873	0	0
2024-06-05 00:03:32			0	38012	0	0	0	23971	22590	133343	27298	1002548	41171	108844	0	0	8300	557246	0	0
2024-06-05 00:04:32			0	38008	0	0	0	23974	22590	133427	27071	1002575	41171	108845	0	0	8300	557404	0	0
2024-06-05 00:05:32			0	37996	0	0	0	23968	22590	133479	27076	1002575	41171	108843	0	0	8299	557878	0	0
2024-06-05 00:06:32			0	37969	0	0	0	23974	22580	133483	26970	1002558	41183	108845	0	0	8298	558976	0	0
2024-06-05 00:07:32			0	37955	0	0	0	23989	22590	133539	27043	1002601	41171	108851	0	0	8297	559498	0	0
2024-06-05 00:08:32			0	37958	0	0	0	24002	22590	133631	27078	1002628	41183	108856	0	0	8297	559380	0	0
2024-06-05 00:09:32			0	37955	0	0	0	24010	22590	133655	27104	1002708	41171	108859	0	0	8296	559498	0	0
2024-06-05 00:10:32			0	37922	0	0	0	24028	22600	133707	27105	1002760	41184	108866	0	0	8294	560774	0	0
2024-06-05 00:11:32			0	37919	0	0	0	24036	22610	133743	27322	1002822	41184	108869	0	0	8294	560862	0	0
2024-06-05 00:12:32			0	37905	0	0	0	24046	22610	133839	27161	1002769	41184	108873	0	0	8293	561417	0	0
2024-06-05 00:13:32			0	37892	0	0	0	24054	22610	133843	26816	1002777	41164	108876	0	0	8293	561933	0	0
2024-06-05 00:14:32			0	37893	0	0	0	24064	22620	133863	27235	1002866	41197	108880	0	0	8292	561861	0	0
2024-06-05 00:15:32			0	37874	0	0	0	24077	22610	133819	27209	1002857	41196	108885	0	0	8291	562647	0	0
2024-06-05 00:16:32			0	37873	0	0	0	24088	22630	133939	26925	1002918	41187	108889	0	0	8291	562624	0	0
2024-06-05 00:17:32			0	37853	0	0	0	24090	22640	133943	27371	1002953	41188	108890	0	0	8290	563387	0	0
2024-06-05 00:18:32			0	37877	0	0	0	24101	22650	133935	27249	1002996	41210	108894	0	0	8291	562402	0	0
2024-06-05 00:19:32			0	37860	0	0	0	24111	22650	133927	27241	1003050	41200	108898	0	0	8290	563077	0	0
2024-06-05 00:20:32			0	37851	0	0	0	24122	22660	133935	27017	1002995	41191	108902	0	0	8289	563403	0	0
2024-06-05 00:21:32			0	37847	0	0	0	24119	22650	133895	27046	1003005	41200	108901	0	0	8289	563594	0	0
2024-06-05 00:22:32			0	37834	0	0	0	24119	22660	134003	27502	1003040	41190	108901	0	0	8289	564079	0	0
2024-06-05 00:23:32			0	37843	0	0	0	24129	22670	133983	27225	1003012	41191	108905	0	0	8289	563690	0	0
2024-06-05 00:24:32			0	37820	0	0	0	24129	22670	134075	26975	1003092	41191	108905	0	0	8288	564605	0	0
2024-06-05 00:25:32			0	37836	0	0	0	24132	22680	133991	26986	1003056	41192	108906	0	0	8289	563937	0	0
2024-06-05 00:26:32			0	37818	0	0	0	24129	22670	134075	27225	1003066	41191	108905	0	0	8288	564684	0	0
2024-06-05 00:27:32			0	37811	0	0	0	24124	22680	134043	27196	1003029	41204	108903	0	0	8287	564931	0	0
2024-06-05 00:28:32			0	37843	0	0	0	24132	22680	134019	27268	1003047	41191	108906	0	0	8289	563658	0	0
2024-06-05 00:29:32			0	37807	0	0	0	24127	22670	134119	26870	1003066	41202	108904	0	0	8287	565122	0	0
2024-06-05 00:30:32			0	37796	0	0	0	24122	22680	134155	27083	1003109	41204	108902	0	0	8287	565529	0	0
2024-06-05 00:31:32			0	37786	0	0	0	24122	22680	134163	27251	1003109	41192	108902	0	0	8286	565927	0	0
2024-06-05 00:32:32			0	37777	0	0	0	24124	22680	134239	26996	1003029	41204	108903	0	0	8286	566286	0	0
2024-06-05 00:33:32			0	37762	0	0	0	24124	22690	134227	26894	1003073	41192	108903	0	0	8285	566853	0	0
2024-06-05 00:34:32			0	37752	0	0	0	24132	22680	134275	27065	1003109	41181	108906	0	0	8284	567284	0	0
2024-06-05 00:35:32			0	37744	0	0	0	24119	22690	134243	26955	1003038	41192	108901	0	0	8284	567571	0	0
2024-06-05 00:36:32			0	37742	0	0	0	24109	22680	134355	27026	1003074	41191	108897	0	0	8284	567683	0	0
2024-06-05 00:37:32			0	37727	0	0	0	24114	22680	134395	27135	1003029	41192	108899	0	0	8283	568282	0	0
2024-06-05 00:38:32			0	37696	0	0	0	24114	22680	134367	26981	1003083	41204	108899	0	0	8282	569522	0	0
2024-06-05 00:39:32			0	37713	0	0	0	24109	22690	134451	26920	1003064	41204	108897	0	0	8283	568810	0	0
2024-06-05 00:40:32			0	37702	0	0	0	24119	22680	134435	26941	1003074	41203	108901	0	0	8282	569282	0	0
2024-06-05 00:41:32			0	37698	0	0	0	24119	22680	134439	27211	1003021	41191	108901	0	0	8282	569442	0	0
2024-06-05 00:42:32			0	37687	0	0	0	24109	22680	134479	27211	1003047	41180	108897	0	0	8281	569882	0	0
2024-06-05 00:43:32			0	37683	0	0	0	24106	22680	134467	26961	1002976	41192	108896	0	0	8281	570042	0	0
2024-06-05 00:44:32			0	37692	0	0	0	24093	22670	134487	27156	1002959	41191	108891	0	0	8282	569714	0	0
2024-06-05 00:45:32			0	37697	0	0	0	24093	22670	134407	26984	1002959	41191	108891	0	0	8282	569514	0	0
2024-06-05 00:46:32			0	37683	0	0	0	24085	22660	134503	26802	1002915	41179	108888	0	0	8281	570106	0	0
2024-06-05 00:47:32			0	37704	0	0	0	24072	22650	134499	26830	1002872	41177	108883	0	0	8283	569297	0	0
2024-06-05 00:48:32			0	37702	0	0	0	24064	22650	134527	27095	1002943	41210	108880	0	0	8283	569377	0	0
2024-06-05 00:49:32			0	37701	0	0	0	24062	22650	134611	26769	1002970	41189	108879	0	0	8283	569417	0	0
2024-06-05 00:50:32			0	37690	0	0	0	24062	22650	134455	27055	1002890	41177	108879	0	0	8282	569858	0	0
2024-06-05 00:51:32			0	37696	0	0	0	24072	22650	134455	26883	1002890	41189	108883	0	0	8282	569617	0	0
2024-06-05 00:52:32			0	37688	0	0	0	24072	22650	134427	26974	1002845	41189	108883	0	0	8282	569938	0	0
2024-06-05 00:53:32			0	37712	0	0	0	24064	22650	134423	26870	1002810	41189	108880	0	0	8283	568977	0	0
2024-06-05 00:54:32			0	37688	0	0	0	24062	22640	134511	27235	1002855	41189	108879	0	0	8282	569970	0	0
2024-06-05 00:55:32			0	37719	0	0	0	24067	22640	134535	27208	1002793	41188	108881	0	0	8283	568729	0	0
2024-06-05 00:56:32			0	37688	0	0	0	24059	22640	134415	27131	1002820	41188	108878	0	0	8282	569970	0	0
2024-06-05 00:57:32			0	37688	0	0	0	24054	22630	134463	27197	1002704	41187	108876	0	0	8282	570001	0	0
2024-06-05 00:58:32			0	37708	0	0	0	24059	22630	134547	26963	1002723	41208	108878	0	0	8283	569201	0	0
2024-06-05 00:59:32			0	37717	0	0	0	24031	22610	134399	27272	1002635	41173	108867	0	0	8284	568905	0	0
2024-06-05 01:00:32			0	37733	0	0	0	24018	22600	134471	27168	1002618	41184	108862	0	0	8285	568296	0	0
2024-06-05 01:01:32			0	37691	0	0	0	23992	22590	134439	27166	1002548	41161	108852	0	0	8283	570009	0	0
2024-06-05 01:02:32			0	37711	0	0	0	23961	22560	134535	27154	1002407	41169	108840	0	0	8284	569304	0	0
2024-06-05 01:03:32			0	37712	0	0	0	23961	22550	134479	27268	1002390	41168	108840	0	0	8285	569295	0	0
2024-06-05 01:04:32			0	37716	0	0	0	23948	22550	134435	27130	1002382	41180	108835	0	0	8285	569135	0	0
2024-06-05 01:05:32			0	37717	0	0	0	23940	22540	134499	27242	1002373	41179	108832	0	0	8285	569127	0	0
2024-06-05 01:06:32			0	37696	0	0	0	23942	22530	134515	27050	1002295	41189	108833	0	0	8284	570000	0	0
2024-06-05 01:07:32			0	37716	0	0	0	23932	22530	134403	27284	1002295	41167	108829	0	0	8285	569199	0	0
2024-06-05 01:08:32			0	37718	0	0	0	23940	22520	134491	27185	1002260	41177	108832	0	0	8285	569151	0	0
2024-06-05 01:09:32			0	37713	0	0	0	23935	22530	134599	26934	1002428	41189	108830	0	0	8285	569319	0	0
2024-06-05 01:10:32			0	37699	0	0	0	23958	22530	134559	26847	1002436	41189	108839	0	0	8284	569880	0	0
2024-06-05 01:11:32			0	37717	0	0	0	23971	22540	134643	26928	1002498	41189	108844	0	0	8285	569127	0	0
2024-06-05 01:12:32			0	37697	0	0	0	23989	22530	134591	27098	1002543	41189	108851	0	0	8283	569960	0	0
2024-06-05 01:13:32			0	37693	0	0	0	23999	22540	134579	26876	1002587	41201	108855	0	0	8283	570088	0	0
2024-06-05 01:14:32			0	37692	0	0	0	24007	22550	134591	26963	1002568	41191	108858	0	0	8283	570096	0	0
2024-06-05 01:15:32			0	37679	0	0	0	24010	22560	134631	26908	1002612	41191	108859	0	0	8282	570585	0	0
2024-06-05 01:16:32			0	37679	0	0	0	24010	22560	134651	27078	1002532	41191	108859	0	0	8282	570585	0	0
2024-06-05 01:17:32			0	37682	0	0	0	24012	22560	134643	27012	1002559	41180	108860	0	0	8282	570465	0	0
2024-06-05 01:18:32			0	37682	0	0	0	24005	22560	134595	26961	1002505	41191	108857	0	0	8282	570465	0	0
2024-06-05 01:19:32			0	37704	0	0	0	24007	22560	134587	26866	1002514	41169	108858	0	0	8283	569584	0	0
2024-06-05 01:20:32			0	37689	0	0	0	24002	22550	134603	26982	1002497	41168	108856	0	0	8283	570216	0	0
2024-06-05 01:21:32			0	37690	0	0	0	23981	22550	134603	27215	1002462	41180	108848	0	0	8283	570176	0	0
2024-06-05 01:22:32			0	37699	0	0	0	23976	22550	134583	27216	1002408	41180	108846	0	0	8284	569816	0	0
2024-06-05 01:23:32			0	37712	0	0	0	23968	22540	134539	27211	1002418	41178	108843	0	0	8284	569327	0	0
2024-06-05 01:24:32			0	37703	0	0	0	23963	22540	134471	27170	1002480	41190	108841	0	0	8284	569688	0	0
2024-06-05 01:25:32			0	37720	0	0	0	23961	22540	134367	27286	1002418	41189	108840	0	0	8285	569007	0	0
2024-06-05 01:26:32			0	37757	0	0	0	23974	22550	134459	27100	1002488	41191	108845	0	0	8287	567496	0	0
2024-06-05 01:27:32			0	37730	0	0	0	23974	22550	134447	27187	1002550	41180	108845	0	0	8285	568575	0	0
2024-06-05 01:28:32			0	37758	0	0	0	23971	22540	134375	27161	1002445	41178	108844	0	0	8287	567488	0	0
2024-06-05 01:29:32			0	37760	0	0	0	23971	22550	134463	26937	1002488	41180	108844	0	0	8287	567377	0	0
2024-06-05 01:30:32			0	37764	0	0	0	23979	22550	134355	26854	1002488	41191	108847	0	0	8287	567217	0	0
2024-06-05 01:31:32			0	37767	0	0	0	23974	22540	134299	27069	1002480	41179	108845	0	0	8287	567129	0	0
2024-06-05 01:32:32			0	37786	0	0	0	23971	22550	134307	26868	1002524	41180	108844	0	0	8288	566339	0	0
2024-06-05 01:33:32			0	37813	0	0	0	23976	22550	134159	27185	1002524	41191	108846	0	0	8290	565263	0	0
2024-06-05 01:34:32			0	37810	0	0	0	23979	22550	134187	26989	1002462	41191	108847	0	0	8289	565382	0	0
2024-06-05 01:35:32			0	37823	0	0	0	23974	22550	134003	27140	1002470	41180	108845	0	0	8290	564864	0	0
2024-06-05 01:36:32			0	37852	0	0	0	23968	22550	133867	27157	1002515	41180	108843	0	0	8292	563710	0	0
2024-06-05 01:37:32			0	37874	0	0	0	23963	22550	133835	27109	1002497	41191	108841	0	0	8293	562836	0	0
2024-06-05 01:38:32			0	37910	0	0	0	23948	22540	133755	26871	1002480	41179	108835	0	0	8295	561438	0	0
2024-06-05 01:39:32			0	37978	0	0	0	23932	22550	133583	27170	1002435	41180	108829	0	0	8299	558714	0	0
2024-06-05 01:40:32			0	38042	0	0	0	23909	22550	133268	27291	1002470	41180	108820	0	0	8303	556187	0	0
2024-06-05 01:41:32			0	38096	0	0	0	23885	22540	133200	27263	1002427	41179	108811	0	0	8306	554091	0	0
2024-06-05 01:42:32			0	38112	0	0	0	23880	22550	133036	27313	1002417	41168	108809	0	0	8307	553431	0	0
2024-06-05 01:43:32			0	38091	0	0	0	23906	22540	133092	27138	1002427	41168	108819	0	0	8305	554288	0	0
2024-06-05 01:44:32			0	38000	0	0	0	23903	22540	133395	26987	1002320	41157	108818	0	0	8300	557875	0	0
2024-06-05 01:45:32			0	37854	0	0	0	23893	22520	133887	27315	1002251	41176	108814	0	0	8293	563725	0	0
2024-06-05 01:46:32			0	37698	0	0	0	23877	22510	134443	27144	1002189	41166	108808	0	0	8285	569983	0	0
2024-06-05 01:47:32			0	37567	0	0	0	23859	22490	134967	26961	1002040	41163	108801	0	0	8278	575310	0	0
2024-06-05 01:48:32			0	37462	0	0	0	23841	22470	135311	26970	1001988	41161	108794	0	0	8273	579616	0	0
2024-06-05 01:49:32			0	37391	0	0	0	23833	22470	135575	26785	1001900	41161	108791	0	0	8270	582496	0	0
2024-06-05 01:50:32			0	37332	0	0	0	23818	22460	135655	27225	1001918	41161	108785	0	0	8267	584929	0	0
2024-06-05 01:51:32			0	37332	0	0	0	23802	22450	135751	26842	1001892	41170	108779	0	0	8267	584962	0	0
2024-06-05 01:52:32			0	37298	0	0	0	23818	22440	135894	26901	1001910	41170	108785	0	0	8265	586381	0	0
2024-06-05 01:53:32			0	37307	0	0	0	23833	22450	135902	26821	1001892	41170	108791	0	0	8265	585981	0	0
2024-06-05 01:54:32			0	37349	0	0	0	23859	22440	135663	26953	1002017	41170	108801	0	0	8267	584302	0	0
2024-06-05 01:55:32			0	37454	0	0	0	23854	22450	135379	27168	1002061	41160	108799	0	0	8272	580005	0	0
2024-06-05 01:56:32			0	37642	0	0	0	23880	22440	134807	26941	1002070	41181	108809	0	0	8282	572453	0	0
2024-06-05 01:57:32			0	37770	0	0	0	23888	22450	134323	26807	1002079	41181	108812	0	0	8288	567294	0	0
2024-06-05 01:58:32			0	37904	0	0	0	23898	22450	133855	27121	1002141	41170	108816	0	0	8295	561959	0	0
2024-06-05 01:59:32			0	37991	0	0	0	23903	22450	133547	26859	1002088	41181	108818	0	0	8300	558512	0	0
2024-06-05 02:00:32			0	38077	0	0	0	23909	22450	133360	26908	1002114	41181	108820	0	0	8304	555118	0	0
2024-06-05 02:01:32			0	38116	0	0	0	23914	22460	133156	26963	1002104	41172	108822	0	0	8306	553552	0	0
2024-06-05 02:02:32			0	38151	0	0	0	23903	22470	133028	26987	1002086	41161	108818	0	0	8308	552146	0	0
2024-06-05 02:03:32			0	38192	0	0	0	23890	22460	132996	27020	1002016	41182	108813	0	0	8310	550569	0	0
2024-06-05 02:04:32			0	38232	0	0	0	23890	22450	132820	27183	1002052	41170	108813	0	0	8312	549033	0	0
2024-06-05 02:05:32			0	38231	0	0	0	23893	22450	132744	26909	1002088	41181	108814	0	0	8312	549072	0	0
2024-06-05 02:06:32			0	38263	0	0	0	23890	22450	132728	26977	1002079	41181	108813	0	0	8314	547821	0	0
2024-06-05 02:07:32			0	38265	0	0	0	23896	22460	132624	26805	1002123	41171	108815	0	0	8314	547712	0	0
2024-06-05 02:08:32			0	38306	0	0	0	23903	22460	132548	26902	1002123	41182	108818	0	0	8316	546112	0	0
2024-06-05 02:09:32			0	38326	0	0	0	23922	22480	132432	26928	1002236	41184	108825	0	0	8317	545272	0	0
2024-06-05 02:10:32			0	38354	0	0	0	23929	22480	132404	27208	1002218	41196	108828	0	0	8318	544182	0	0
2024-06-05 02:11:32			0	38392	0	0	0	23929	22490	132240	26970	1002280	41185	108828	0	0	8320	542674	0	0
2024-06-05 02:12:32			0	38424	0	0	0	23929	22480	132148	27017	1002272	41174	108828	0	0	8322	541463	0	0
2024-06-05 02:13:32			0	38435	0	0	0	23937	22480	132096	27199	1002218	41174	108831	0	0	8322	541036	0	0
2024-06-05 02:14:32			0	38449	0	0	0	23937	22490	131996	27201	1002280	41185	108831	0	0	8323	540463	0	0
2024-06-05 02:15:32			0	38466	0	0	0	23929	22490	131972	27324	1002307	41196	108828	0	0	8324	539805	0	0
2024-06-05 02:16:32			0	38503	0	0	0	23935	22480	131924	26849	1002272	41196	108830	0	0	8326	538404	0	0
2024-06-05 02:17:32			0	38510	0	0	0	23940	22490	131884	26942	1002342	41174	108832	0	0	8326	538103	0	0
2024-06-05 02:18:32			0	38535	0	0	0	23942	22500	131812	27235	1002386	41187	108833	0	0	8327	537108	0	0
2024-06-05 02:19:32			0	38569	0	0	0	23955	22510	131648	27145	1002509	41176	108838	0	0	8329	535767	0	0
2024-06-05 02:20:32			0	38577	0	0	0	23966	22510	131612	27362	1002482	41176	108842	0	0	8329	535459	0	0
2024-06-05 02:21:32			0	38594	0	0	0	23986	22530	131572	26805	1002535	41201	108850	0	0	8330	534744	0	0
2024-06-05 02:22:32			0	38613	0	0	0	23986	22540	131480	27215	1002613	41190	108850	0	0	8331	533984	0	0
2024-06-05 02:23:32			0	38600	0	0	0	23994	22540	131464	27062	1002613	41190	108853	0	0	8330	534484	0	0
2024-06-05 02:24:32			0	38670	0	0	0	24002	22550	131296	27074	1002622	41202	108856	0	0	8334	531765	0	0
2024-06-05 02:25:32			0	38672	0	0	0	24010	22560	131252	27310	1002665	41191	108859	0	0	8334	531658	0	0
2024-06-05 02:26:32			0	38694	0	0	0	24015	22570	131124	27357	1002709	41193	108861	0	0	8335	530785	0	0
2024-06-05 02:27:32			0	38722	0	0	0	24028	22580	131060	26972	1002798	41194	108866	0	0	8336	529684	0	0
2024-06-05 02:28:32			0	38736	0	0	0	24036	22590	130981	27053	1002823	41195	108869	0	0	8337	529119	0	0
2024-06-05 02:29:32			0	38768	0	0	0	24046	22590	130841	26961	1002797	41195	108873	0	0	8338	527896	0	0
2024-06-05 02:30:32			0	38789	0	0	0	24046	22590	130881	27027	1002797	41206	108873	0	0	8339	527095	0	0
2024-06-05 02:31:32			0	38794	0	0	0	24046	22600	130757	27244	1002832	41196	108873	0	0	8339	526874	0	0
2024-06-05 02:32:32			0	38817	0	0	0	24049	22610	130773	27038	1002804	41196	108874	0	0	8341	525968	0	0
2024-06-05 02:33:32			0	38826	0	0	0	24049	22610	130665	26920	1002857	41185	108874	0	0	8341	525626	0	0
2024-06-05 02:34:32			0	38856	0	0	0	24054	22620	130673	27100	1002866	41197	108876	0	0	8343	524455	0	0
2024-06-05 02:35:32			0	38867	0	0	0	24059	22620	130525	27039	1002892	41186	108878	0	0	8343	524036	0	0
2024-06-05 02:36:32			0	38875	0	0	0	24057	22620	130569	26826	1002892	41197	108877	0	0	8343	523732	0	0
2024-06-05 02:37:32			0	38906	0	0	0	24057	22620	130417	27053	1002892	41208	108877	0	0	8345	522555	0	0
2024-06-05 02:38:32			0	38899	0	0	0	24051	22620	130317	26844	1002901	41197	108875	0	0	8345	522821	0	0
2024-06-05 02:39:32			0	38935	0	0	0	24059	22620	130361	27246	1002901	41197	108878	0	0	8347	521455	0	0
2024-06-05 02:40:32			0	38960	0	0	0	24064	22630	130213	27097	1002864	41209	108880	0	0	8348	520479	0	0
2024-06-05 02:41:32			0	38952	0	0	0	24057	22630	130237	26930	1002936	41186	108877	0	0	8348	520782	0	0
2024-06-05 02:42:32			0	38971	0	0	0	24057	22640	130153	27222	1002953	41199	108877	0	0	8349	520034	0	0
2024-06-05 02:43:32			0	38975	0	0	0	24057	22640	130089	27255	1002900	41199	108877	0	0	8349	519882	0	0
2024-06-05 02:44:32			0	38987	0	0	0	24049	22630	130161	27216	1002891	41187	108874	0	0	8349	519458	0	0
2024-06-05 02:45:32			0	39006	0	0	0	24020	22630	130149	27272	1002864	41198	108863	0	0	8351	518739	0	0
2024-06-05 02:46:32			0	38998	0	0	0	24005	22630	130121	27015	1002731	41187	108857	0	0	8351	519042	0	0
2024-06-05 02:47:32			0	38979	0	0	0	23963	22610	130041	27104	1002644	41174	108841	0	0	8350	519818	0	0
2024-06-05 02:48:32			0	38991	0	0	0	23937	22610	130073	27178	1002591	41174	108831	0	0	8351	519364	0	0
2024-06-05 02:49:32			0	38983	0	0	0	23927	22590	130033	26982	1002610	41183	108827	0	0	8351	519725	0	0
2024-06-05 02:50:32			0	39004	0	0	0	23927	22600	130025	27331	1002618	41173	108827	0	0	8352	518902	0	0
2024-06-05 02:51:32			0	38980	0	0	0	23924	22590	130153	27256	1002601	41171	108826	0	0	8351	519839	0	0
2024-06-05 02:52:32			0	38937	0	0	0	23935	22590	130305	27270	1002637	41183	108830	0	0	8349	521467	0	0
2024-06-05 02:53:32			0	38892	0	0	0	23948	22590	130457	27166	1002717	41172	108835	0	0	8346	523174	0	0
2024-06-05 02:54:32			0	38779	0	0	0	23966	22590	130765	27126	1002655	41183	108842	0	0	8340	527476	0	0
2024-06-05 02:55:32			0	38664	0	0	0	23981	22580	131184	26944	1002620	41183	108848	0	0	8334	531906	0	0
2024-06-05 02:56:32			0	38568	0	0	0	23989	22590	131452	26885	1002601	41183	108851	0	0	8329	535566	0	0
2024-06-05 02:57:32			0	38479	0	0	0	23992	22580	131796	26904	1002620	41171	108852	0	0	8324	539031	0	0
2024-06-05 02:58:32			0	38390	0	0	0	23994	22580	132020	27194	1002638	41171	108853	0	0	8319	542479	0	0
2024-06-05 02:59:32			0	38317	0	0	0	23984	22580	132268	26955	1002558	41183	108849	0	0	8316	545317	0	0
2024-06-05 03:00:32			0	38261	0	0	0	23992	22560	132548	26915	1002621	41181	108852	0	0	8313	547562	0	0
2024-06-05 03:01:32			0	38209	0	0	0	23989	22570	132696	27114	1002602	41182	108851	0	0	8310	549564	0	0
2024-06-05 03:02:32			0	38156	0	0	0	23984	22570	132924	26989	1002602	41193	108849	0	0	8307	551641	0	0
2024-06-05 03:03:32			0	38103	0	0	0	23992	22570	132992	27066	1002656	41193	108852	0	0	8304	553723	0	0
2024-06-05 03:04:32			0	38090	0	0	0	23994	22580	133208	26984	1002638	41183	108853	0	0	8304	554203	0	0
2024-06-05 03:05:32			0	38041	0	0	0	23999	22590	133108	26753	1002655	41194	108855	0	0	8301	556102	0	0
2024-06-05 03:06:32			0	38051	0	0	0	23997	22580	133228	27281	1002646	41171	108854	0	0	8302	555739	0	0
2024-06-05 03:07:32			0	38074	0	0	0	24005	22580	133228	27038	1002638	41171	108857	0	0	8303	554832	0	0
2024-06-05 03:08:32			0	38090	0	0	0	24010	22590	133116	26932	1002681	41171	108859	0	0	8303	554172	0	0
2024-06-05 03:09:32			0	38150	0	0	0	24020	22590	133120	27067	1002681	41194	108863	0	0	8306	551815	0	0
2024-06-05 03:10:32			0	38175	0	0	0	24012	22580	132840	27194	1002753	41194	108860	0	0	8308	550865	0	0
2024-06-05 03:11:32			0	38240	0	0	0	24018	22600	132700	26915	1002752	41173	108862	0	0	8311	548260	0	0
2024-06-05 03:12:32			0	38282	0	0	0	24028	22590	132428	27078	1002663	41183	108866	0	0	8313	546651	0	0
2024-06-05 03:13:32			0	38391	0	0	0	24018	22590	132088	26868	1002690	41206	108862	0	0	8319	542410	0	0
2024-06-05 03:14:32			0	38453	0	0	0	24018	22580	131876	27229	1002700	41183	108862	0	0	8322	540037	0	0
2024-06-05 03:15:32			0	38525	0	0	0	24005	22600	131668	27261	1002672	41184	108857	0	0	8326	537194	0	0
2024-06-05 03:16:32			0	38606	0	0	0	24015	22590	131396	27329	1002690	41183	108861	0	0	8330	534103	0	0
2024-06-05 03:17:32			0	38672	0	0	0	23989	22590	131232	26916	1002575	41183	108851	0	0	8334	531569	0	0
2024-06-05 03:18:32			0	38704	0	0	0	23976	22580	130992	27239	1002585	41183	108846	0	0	8336	530373	0	0
2024-06-05 03:19:32			0	38754	0	0	0	23966	22580	130865	27164	1002540	41183	108842	0	0	8339	528460	0	0
2024-06-05 03:20:32			0	38796	0	0	0	23958	22560	130785	27189	1002452	41180	108839	0	0	8341	526916	0	0
2024-06-05 03:21:32			0	38837	0	0	0	23948	22560	130661	27353	1002532	41180	108835	0	0	8343	525354	0	0
2024-06-05 03:22:32			0	38870	0	0	0	23945	22540	130585	27036	1002453	41190	108834	0	0	8345	524157	0	0
2024-06-05 03:23:32			0	38908	0	0	0	23945	22550	130429	27324	1002515	41191	108834	0	0	8347	522684	0	0
2024-06-05 03:24:32			0	38943	0	0	0	23950	22560	130381	26994	1002452	41180	108836	0	0	8349	521327	0	0
2024-06-05 03:25:32			0	38965	0	0	0	23958	22540	130229	27022	1002480	41201	108839	0	0	8349	520552	0	0
2024-06-05 03:26:32			0	39008	0	0	0	23955	22550	130253	27300	1002470	41202	108838	0	0	8352	518896	0	0
2024-06-05 03:27:32			0	39022	0	0	0	23961	22550	130205	27003	1002550	41191	108840	0	0	8352	518367	0	0
2024-06-05 03:28:32			0	39064	0	0	0	23953	22560	129913	26866	1002559	41180	108837	0	0	8355	516753	0	0
2024-06-05 03:29:32			0	39059	0	0	0	23966	22550	129941	27272	1002550	41191	108842	0	0	8354	516971	0	0
2024-06-05 03:30:32			0	39105	0	0	0	23963	22560	129813	27410	1002639	41180	108841	0	0	8357	515209	0	0
2024-06-05 03:31:32			0	39110	0	0	0	23976	22550	129825	27313	1002524	41191	108846	0	0	8357	515049	0	0
2024-06-05 03:32:32			0	39130	0	0	0	23971	22560	129713	27189	1002541	41181	108844	0	0	8358	514268	0	0
2024-06-05 03:33:32			0	39141	0	0	0	23955	22560	129725	26873	1002505	41180	108838	0	0	8359	513855	0	0
2024-06-05 03:34:32			0	39151	0	0	0	23940	22550	129697	27064	1002408	41191	108832	0	0	8359	513508	0	0
2024-06-05 03:35:32			0	39137	0	0	0	23940	22540	129685	27196	1002418	41178	108832	0	0	8359	514063	0	0
2024-06-05 03:36:32			0	39155	0	0	0	23927	22540	129717	27033	1002392	41178	108827	0	0	8360	513386	0	0
2024-06-05 03:37:32			0	39173	0	0	0	23909	22520	129657	27199	1002313	41177	108820	0	0	8361	512768	0	0
2024-06-05 03:38:32			0	39180	0	0	0	23898	22520	129641	26975	1002313	41166	108816	0	0	8362	512505	0	0
2024-06-05 03:39:32			0	39193	0	0	0	23890	22520	129553	27246	1002251	41176	108813	0	0	8362	512017	0	0
2024-06-05 03:40:32			0	39170	0	0	0	23883	22510	129509	27334	1002269	41166	108810	0	0	8361	512909	0	0
2024-06-05 03:41:32			0	39184	0	0	0	23872	22500	129629	27170	1002226	41175	108806	0	0	8362	512412	0	0
2024-06-05 03:42:32			0	39202	0	0	0	23867	22500	129593	27253	1002226	41175	108804	0	0	8363	511737	0	0
2024-06-05 03:43:32			0	39160	0	0	0	23854	22490	129529	27220	1002147	41174	108799	0	0	8361	513342	0	0
2024-06-05 03:44:32			0	39172	0	0	0	23851	22490	129537	27157	1002200	41163	108798	0	0	8362	512891	0	0
2024-06-05 03:45:32			0	39184	0	0	0	23841	22470	129589	27055	1002015	41150	108794	0	0	8363	512498	0	0
2024-06-05 03:46:32			0	39176	0	0	0	23831	22470	129597	26660	1001962	41161	108790	0	0	8362	512798	0	0
2024-06-05 03:47:32			0	39186	0	0	0	23820	22460	129593	26892	1002025	41172	108786	0	0	8363	512452	0	0
2024-06-05 03:48:32			0	39178	0	0	0	23812	22460	129589	26960	1001971	41150	108783	0	0	8363	512752	0	0
2024-06-05 03:49:32			0	39199	0	0	0	23805	22450	129609	26887	1001892	41160	108780	0	0	8364	511993	0	0
2024-06-05 03:50:32			0	39190	0	0	0	23794	22440	129657	26928	1001884	41181	108776	0	0	8364	512359	0	0
2024-06-05 03:51:32			0	39170	0	0	0	23792	22430	129769	26748	1001893	41147	108775	0	0	8362	513139	0	0
2024-06-05 03:52:32			0	39087	0	0	0	23781	22440	129873	26878	1001822	41147	108771	0	0	8358	516232	0	0
2024-06-05 03:53:32			0	38905	0	0	0	23781	22410	130457	27327	1001798	41166	108771	0	0	8349	523207	0	0
2024-06-05 03:54:32			0	38604	0	0	0	23773	22400	131496	27083	1001781	41166	108768	0	0	8333	534748	0	0
2024-06-05 03:55:32			0	38260	0	0	0	23773	22390	132556	27159	1001692	41166	108768	0	0	8315	548122	0	0
2024-06-05 03:56:32			0	37926	0	0	0	23761	22390	133771	26868	1001666	41166	108763	0	0	8298	561274	0	0
2024-06-05 03:57:32			0	37596	0	0	0	23748	22380	134891	27341	1001569	41153	108758	0	0	8281	574496	0	0
2024-06-05 03:58:32			0	37282	0	0	0	23758	22370	135958	27057	1001597	41152	108762	0	0	8265	587263	0	0
2024-06-05 03:59:32			0	37011	0	0	0	23742	22360	136970	27353	1001580	41162	108756	0	0	8251	598437	0	0
2024-06-05 04:00:32			0	36808	0	0	0	23748	22360	137726	27078	1001562	41152	108758	0	0	8240	606874	0	0
2024-06-05 04:01:32			0	36581	0	0	0	23755	22350	138457	27267	1001571	41172	108761	0	0	8228	616438	0	0
2024-06-05 04:02:32			0	36445	0	0	0	23750	22360	139053	27334	1001606	41172	108759	0	0	8221	622162	0	0
2024-06-05 04:03:32			0	36279	0	0	0	23745	22360	139637	26998	1001633	41172	108757	0	0	8212	629241	0	0
2024-06-05 04:04:32			0	36165	0	0	0	23753	22360	140129	27147	1001633	41162	108760	0	0	8206	634135	0	0
2024-06-05 04:05:32			0	36056	0	0	0	23755	22350	140517	26918	1001651	41162	108761	0	0	8200	638875	0	0
2024-06-05 04:06:32			0	35943	0	0	0	23753	22350	140909	26828	1001571	41172	108760	0	0	8194	643778	0	0
2024-06-05 04:07:32			0	35868	0	0	0	23753	22350	141177	26977	1001616	41171	108760	0	0	8190	647047	0	0
2024-06-05 04:08:32			0	35813	0	0	0	23761	22360	141388	26913	1001580	41162	108763	0	0	8187	649416	0	0
2024-06-05 04:09:32			0	35740	0	0	0	23763	22360	141588	27083	1001606	41151	108764	0	0	8183	652617	0	0
2024-06-05 04:10:32			0	35701	0	0	0	23758	22350	141852	27235	1001571	41151	108762	0	0	8181	654369	0	0
2024-06-05 04:11:32			0	35656	0	0	0	23763	22350	142000	27095	1001651	41172	108764	0	0	8178	656352	0	0
2024-06-05 04:12:32			0	35620	0	0	0	23766	22350	142152	26878	1001598	41172	108765	0	0	8177	657942	0	0
2024-06-05 04:13:32			0	35576	0	0	0	23768	22360	142216	27161	1001615	41163	108766	0	0	8174	659851	0	0
2024-06-05 04:14:32			0	35570	0	0	0	23771	22360	142436	26904	1001668	41163	108767	0	0	8174	660117	0	0
2024-06-05 04:15:32			0	35558	0	0	0	23773	22360	142344	27164	1001615	41163	108768	0	0	8173	660649	0	0
2024-06-05 04:16:32			0	35515	0	0	0	23766	22360	142508	27090	1001580	41162	108765	0	0	8171	662557	0	0
2024-06-05 04:17:32			0	35520	0	0	0	23773	22350	142500	27149	1001669	41161	108768	0	0	8171	662372	0	0
2024-06-05 04:18:32			0	35504	0	0	0	23773	22360	142472	26925	1001660	41172	108768	0	0	8170	663046	0	0
2024-06-05 04:19:32			0	35493	0	0	0	23784	22360	142600	27190	1001740	41172	108772	0	0	8169	663535	0	0
2024-06-05 04:20:32			0	35492	0	0	0	23776	22360	142540	26793	1001721	41173	108769	0	0	8169	663579	0	0
2024-06-05 04:21:32			0	35497	0	0	0	23773	22370	142660	27159	1001730	41163	108768	0	0	8170	663320	0	0
2024-06-05 04:22:32			0	35492	0	0	0	23781	22360	142576	27135	1001668	41184	108771	0	0	8169	663579	0	0
2024-06-05 04:23:32			0	35497	0	0	0	23768	22360	142592	26979	1001721	41152	108766	0	0	8170	663357	0	0
2024-06-05 04:24:32			0	35501	0	0	0	23773	22360	142660	26821	1001668	41163	108768	0	0	8170	663179	0	0
2024-06-05 04:25:32			0	35496	0	0	0	23776	22360	142584	27043	1001668	41152	108769	0	0	8170	663401	0	0
2024-06-05 04:26:32			0	35502	0	0	0	23768	22350	142640	27024	1001651	41172	108766	0	0	8170	663172	0	0
2024-06-05 04:27:32			0	35516	0	0	0	23773	22350	142620	26923	1001678	41172	108768	0	0	8171	662550	0	0
2024-06-05 04:28:32			0	35501	0	0	0	23771	22360	142552	27239	1001695	41163	108767	0	0	8170	663179	0	0
2024-06-05 04:29:32			0	35512	0	0	0	23771	22360	142580	26901	1001695	41163	108767	0	0	8171	662690	0	0
2024-06-05 04:30:32			0	35525	0	0	0	23766	22350	142484	26720	1001625	41162	108765	0	0	8171	662150	0	0
2024-06-05 04:31:32			0	35548	0	0	0	23771	22350	142512	26816	1001651	41172	108767	0	0	8173	661129	0	0
2024-06-05 04:32:32			0	35546	0	0	0	23768	22360	142456	26977	1001633	41172	108766	0	0	8173	661181	0	0
2024-06-05 04:33:32			0	35548	0	0	0	23761	22360	142508	27216	1001713	41195	108763	0	0	8173	661092	0	0
2024-06-05 04:34:32			0	35561	0	0	0	23768	22360	142508	27055	1001686	41162	108766	0	0	8173	660516	0	0
2024-06-05 04:35:32			0	35575	0	0	0	23768	22360	142432	27000	1001740	41162	108766	0	0	8174	659896	0	0
2024-06-05 04:36:32			0	35602	0	0	0	23781	22360	142288	27230	1001695	41163	108771	0	0	8175	658701	0	0
2024-06-05 04:37:32			0	35581	0	0	0	23781	22360	142288	27232	1001641	41163	108771	0	0	8174	659630	0	0
2024-06-05 04:38:32			0	35613	0	0	0	23789	22370	142232	26989	1001738	41174	108774	0	0	8176	658178	0	0
2024-06-05 04:39:32			0	35595	0	0	0	23794	22370	142196	27059	1001730	41173	108776	0	0	8175	658974	0	0
2024-06-05 04:40:32			0	35604	0	0	0	23792	22380	142156	26845	1001800	41174	108775	0	0	8175	658539	0	0
2024-06-05 04:41:32			0	35631	0	0	0	23797	22380	142156	27327	1001827	41153	108777	0	0	8177	657345	0	0
2024-06-05 04:42:32			0	35615	0	0	0	23794	22370	142092	26734	1001765	41164	108776	0	0	8176	658089	0	0
2024-06-05 04:43:32			0	35633	0	0	0	23802	22370	142080	27145	1001810	41173	108779	0	0	8177	657294	0	0
2024-06-05 04:44:32			0	35632	0	0	0	23794	22380	141968	27144	1001747	41164	108776	0	0	8177	657301	0	0
2024-06-05 04:45:32			0	35652	0	0	0	23789	22380	141972	27215	1001747	41174	108774	0	0	8178	656418	0	0
2024-06-05 04:46:32			0	35675	0	0	0	23776	22370	141980	27008	1001650	41163	108769	0	0	8179	655441	0	0
2024-06-05 04:47:32			0	35658	0	0	0	23761	22360	141976	27000	1001641	41163	108763	0	0	8179	656227	0	0
2024-06-05 04:48:32			0	35670	0	0	0	23750	22360	141936	27377	1001588	41152	108759	0	0	8180	655698	0	0
2024-06-05 04:49:32			0	35696	0	0	0	23735	22360	141880	26894	1001535	41173	108753	0	0	8181	654553	0	0
2024-06-05 04:50:32			0	35721	0	0	0	23719	22340	141776	27175	1001554	41150	108747	0	0	8183	653525	0	0
2024-06-05 04:51:32			0	35734	0	0	0	23703	22350	141700	27201	1001536	41150	108741	0	0	8184	652917	0	0
2024-06-05 04:52:32			0	35788	0	0	0	23709	22350	141588	27317	1001483	41161	108743	0	0	8187	650547	0	0
2024-06-05 04:53:32			0	35810	0	0	0	23716	22340	141416	27348	1001493	41149	108746	0	0	8188	649619	0	0
2024-06-05 04:54:32			0	35845	0	0	0	23719	22340	141220	27230	1001493	41160	108747	0	0	8189	648088	0	0
2024-06-05 04:55:32			0	35876	0	0	0	23714	22340	141133	27294	1001493	41149	108745	0	0	8191	646734	0	0
2024-06-05 04:56:32			0	35912	0	0	0	23706	22330	141101	27079	1001476	41159	108742	0	0	8193	645200	0	0
2024-06-05 04:57:32			0	35954	0	0	0	23709	22330	140893	27469	1001511	41149	108743	0	0	8195	643371	0	0
2024-06-05 04:58:32			0	35988	0	0	0	23698	22340	140785	27123	1001546	41160	108739	0	0	8197	641858	0	0
2024-06-05 04:59:32			0	36002	0	0	0	23716	22320	140757	26991	1001573	41159	108746	0	0	8198	641322	0	0
2024-06-05 05:00:32			0	36047	0	0	0	23714	22320	140597	27308	1001467	41148	108745	0	0	8200	639372	0	0
2024-06-05 05:01:32			0	36061	0	0	0	23709	22330	140577	27327	1001422	41159	108743	0	0	8201	638730	0	0
2024-06-05 05:02:32			0	36073	0	0	0	23696	22330	140521	27152	1001396	41148	108738	0	0	8202	638211	0	0
2024-06-05 05:03:32			0	36064	0	0	0	23696	22310	140501	27060	1001423	41157	108738	0	0	8201	638671	0	0
2024-06-05 05:04:32			0	36086	0	0	0	23709	22330	140301	27203	1001511	41160	108743	0	0	8202	637649	0	0
2024-06-05 05:05:32			0	36114	0	0	0	23722	22320	140289	27229	1001538	41158	108748	0	0	8204	636475	0	0
2024-06-05 05:06:32			0	36109	0	0	0	23716	22320	140401	27218	1001512	41136	108746	0	0	8203	636691	0	0
2024-06-05 05:07:32			0	36087	0	0	0	23716	22320	140325	27078	1001493	41170	108746	0	0	8202	637641	0	0
2024-06-05 05:08:32			0	36094	0	0	0	23729	22330	140341	27300	1001502	41159	108751	0	0	8202	637303	0	0
2024-06-05 05:09:32			0	36098	0	0	0	23716	22320	140285	27048	1001493	41159	108746	0	0	8203	637166	0	0
2024-06-05 05:10:32			0	36086	0	0	0	23716	22320	140373	27015	1001467	41159	108746	0	0	8202	637685	0	0
2024-06-05 05:11:32			0	36109	0	0	0	23709	22320	140317	27274	1001520	41148	108743	0	0	8204	636691	0	0
2024-06-05 05:12:32			0	36083	0	0	0	23709	22320	140381	27263	1001512	41147	108743	0	0	8202	637814	0	0
2024-06-05 05:13:32			0	36090	0	0	0	23701	22320	140401	27249	1001512	41158	108740	0	0	8203	637512	0	0
2024-06-05 05:14:32			0	36080	0	0	0	23701	22320	140425	27345	1001432	41136	108740	0	0	8202	637944	0	0
2024-06-05 05:15:32			0	36084	0	0	0	23672	22310	140313	27203	1001308	41157	108729	0	0	8203	637807	0	0
2024-06-05 05:16:32			0	36038	0	0	0	23654	22310	140485	27227	1001308	41146	108722	0	0	8201	639797	0	0
2024-06-05 05:17:32			0	36063	0	0	0	23644	22280	140585	27166	1001221	41144	108718	0	0	8202	638822	0	0
2024-06-05 05:18:32			0	36021	0	0	0	23649	22280	140613	27105	1001328	41166	108720	0	0	8200	640641	0	0
2024-06-05 05:19:32			0	36015	0	0	0	23667	22300	140793	27128	1001344	41157	108727	0	0	8199	640830	0	0
2024-06-05 05:20:32			0	35944	0	0	0	23672	22290	140837	27287	1001336	41156	108729	0	0	8195	643950	0	0
2024-06-05 05:21:32			0	35943	0	0	0	23672	22300	140897	27135	1001318	41157	108729	0	0	8195	643958	0	0
2024-06-05 05:22:32			0	35888	0	0	0	23680	22300	141101	27150	1001380	41157	108732	0	0	8192	646355	0	0
2024-06-05 05:23:32			0	35864	0	0	0	23690	22300	141161	27338	1001371	41145	108736	0	0	8191	647403	0	0
2024-06-05 05:24:32			0	35826	0	0	0	23696	22300	141376	27327	1001371	41157	108738	0	0	8189	649064	0	0
2024-06-05 05:25:32			0	35803	0	0	0	23701	22300	141496	27168	1001371	41145	108740	0	0	8187	650071	0	0
2024-06-05 05:26:32			0	35766	0	0	0	23709	22290	141528	27287	1001363	41156	108743	0	0	8185	651730	0	0
2024-06-05 05:27:32			0	35718	0	0	0	23706	22300	141640	26979	1001380	41168	108742	0	0	8183	653804	0	0
2024-06-05 05:28:32			0	35709	0	0	0	23711	22300	141832	27246	1001478	41167	108744	0	0	8182	654200	0	0
2024-06-05 05:29:32			0	35676	0	0	0	23714	22300	141884	27204	1001380	41168	108745	0	0	8180	655653	0	0
2024-06-05 05:30:32			0	35665	0	0	0	23724	22310	141944	27206	1001441	41168	108749	0	0	8179	656102	0	0
2024-06-05 05:31:32			0	35652	0	0	0	23714	22300	142076	27364	1001433	41168	108745	0	0	8179	656712	0	0
2024-06-05 05:32:32			0	35629	0	0	0	23714	22300	142040	26972	1001460	41157	108745	0	0	8178	657728	0	0
2024-06-05 05:33:32			0	35624	0	0	0	23706	22300	142160	27369	1001353	41146	108742	0	0	8178	657949	0	0
2024-06-05 05:34:32			0	35602	0	0	0	23696	22300	142100	27163	1001353	41135	108738	0	0	8177	658922	0	0
2024-06-05 05:35:32			0	35594	0	0	0	23690	22300	142192	27346	1001326	41146	108736	0	0	8176	659275	0	0
2024-06-05 05:36:32			0	35602	0	0	0	23670	22300	142300	26885	1001291	41145	108728	0	0	8177	658922	0	0
2024-06-05 05:37:32			0	35591	0	0	0	23659	22280	142236	27260	1001239	41155	108724	0	0	8176	659482	0	0
2024-06-05 05:38:32			0	35601	0	0	0	23631	22270	142308	27029	1001151	41144	108713	0	0	8177	659076	0	0
2024-06-05 05:39:32			0	35590	0	0	0	23610	22260	142304	27196	1001107	41131	108705	0	0	8177	659600	0	0
2024-06-05 05:40:32			0	35580	0	0	0	23594	22250	142468	26977	1001090	41142	108699	0	0	8177	660080	0	0
2024-06-05 05:41:32			0	35555	0	0	0	23599	22260	142488	27329	1001152	41153	108701	0	0	8175	661151	0	0
2024-06-05 05:42:32			0	35546	0	0	0	23592	22250	142564	27410	1001135	41141	108698	0	0	8175	661587	0	0
2024-06-05 05:43:32			0	35509	0	0	0	23602	22250	142636	27329	1001197	41164	108702	0	0	8173	663231	0	0
2024-06-05 05:44:32			0	35506	0	0	0	23599	22250	142736	26850	1001082	41152	108701	0	0	8173	663364	0	0
2024-06-05 05:45:32			0	35476	0	0	0	23589	22250	142812	27229	1001082	41141	108697	0	0	8171	664699	0	0
2024-06-05 05:46:32			0	35443	0	0	0	23576	22230	142920	26972	1001056	41129	108692	0	0	8170	666244	0	0
2024-06-05 05:47:32			0	35449	0	0	0	23574	22230	143068	26977	1001003	41140	108691	0	0	8170	665977	0	0
2024-06-05 05:48:32			0	35414	0	0	0	23553	22230	143080	27017	1001030	41140	108683	0	0	8168	667539	0	0
2024-06-05 05:49:32			0	35370	0	0	0	23553	22220	143176	27213	1000951	41138	108683	0	0	8166	669544	0	0
2024-06-05 05:50:32			0	35369	0	0	0	23535	22210	143252	26875	1000881	41126	108676	0	0	8166	669626	0	0
2024-06-05 05:51:32			0	35373	0	0	0	23524	22200	143348	26764	1000810	41115	108672	0	0	8167	669484	0	0
2024-06-05 05:52:32			0	35338	0	0	0	23496	22190	143464	27081	1000722	41125	108661	0	0	8165	671090	0	0
2024-06-05 05:53:32			0	35305	0	0	0	23485	22170	143524	27249	1000653	41134	108657	0	0	8163	672646	0	0
2024-06-05 05:54:32			0	35297	0	0	0	23485	22160	143556	26968	1000618	41133	108657	0	0	8163	673043	0	0
2024-06-05 05:55:32			0	35247	0	0	0	23475	22160	143876	27306	1000644	41111	108653	0	0	8160	675294	0	0
2024-06-05 05:56:32			0	35206	0	0	0	23459	22150	144032	27095	1000566	41110	108647	0	0	8158	677181	0	0
2024-06-05 05:57:32			0	35150	0	0	0	23454	22140	144276	26961	1000496	41130	108645	0	0	8155	679751	0	0
2024-06-05 05:58:32			0	35084	0	0	0	23449	22130	144459	27161	1000425	41130	108643	0	0	8152	682782	0	0
2024-06-05 05:59:32			0	35022	0	0	0	23444	22110	144807	27256	1000365	41106	108641	0	0	8148	685680	0	0
2024-06-05 06:00:32			0	34957	0	0	0	23436	22110	145075	27060	1000320	41106	108638	0	0	8145	688647	0	0
2024-06-05 06:01:32			0	34900	0	0	0	23431	22090	145383	26873	1000393	41115	108636	0	0	8142	691334	0	0
2024-06-05 06:02:32			0	34834	0	0	0	23423	22080	145635	27254	1000296	41126	108633	0	0	8138	694405	0	0
2024-06-05 06:03:32			0	34786	0	0	0	23423	22080	145831	27270	1000261	41114	108633	0	0	8136	696616	0	0
2024-06-05 06:04:32			0	34721	0	0	0	23415	22070	146027	27322	1000217	41125	108630	0	0	8132	699658	0	0
2024-06-05 06:05:32			0	34678	0	0	0	23415	22070	146175	27256	1000190	41114	108630	0	0	8130	701650	0	0
2024-06-05 06:06:32			0	34628	0	0	0	23412	22060	146467	27332	1000208	41125	108629	0	0	8127	704012	0	0
2024-06-05 06:07:32			0	34596	0	0	0	23410	22040	146575	27379	1000148	41122	108628	0	0	8125	705580	0	0
2024-06-05 06:08:32			0	34557	0	0	0	23407	22050	146775	27060	1000129	41100	108627	0	0	8123	707359	0	0
2024-06-05 06:09:32			0	34530	0	0	0	23397	22050	146943	27086	1000156	41122	108623	0	0	8122	708620	0	0
2024-06-05 06:10:32			0	34499	0	0	0	23410	22030	147047	27293	1000157	41121	108628	0	0	8120	710149	0	0
2024-06-05 06:11:32			0	34471	0	0	0	23399	22030	147139	27360	1000131	41110	108624	0	0	8118	711460	0	0
2024-06-05 06:12:32			0	34436	0	0	0	23418	22040	147335	27473	1000112	41122	108631	0	0	8116	713063	0	0
2024-06-05 06:13:32			0	34419	0	0	0	23407	22030	147443	27516	1000131	41110	108627	0	0	8115	713901	0	0
2024-06-05 06:14:32			0	34407	0	0	0	23402	22040	147359	27199	1000139	41122	108625	0	0	8115	714426	0	0
2024-06-05 06:15:32			0	34403	0	0	0	23415	22030	147511	27301	1000184	41110	108630	0	0	8114	714654	0	0
2024-06-05 06:16:32			0	34384	0	0	0	23412	22030	147407	27523	1000157	41110	108629	0	0	8113	715548	0	0
2024-06-05 06:17:32			0	34359	0	0	0	23410	22020	147551	27187	1000114	41109	108628	0	0	8112	716766	0	0
2024-06-05 06:18:32			0	34348	0	0	0	23407	22030	147494	27131	1000149	41120	108627	0	0	8111	717245	0	0
2024-06-05 06:19:32			0	34364	0	0	0	23412	22030	147583	27268	1000157	41121	108629	0	0	8112	716490	0	0
2024-06-05 06:20:32			0	34328	0	0	0	23407	22030	147550	26941	1000184	41110	108627	0	0	8110	718189	0	0
2024-06-05 06:21:32			0	34333	0	0	0	23418	22020	147638	27098	1000167	41109	108631	0	0	8110	717993	0	0
2024-06-05 06:22:32			0	34324	0	0	0	23407	22020	147642	26861	1000185	41120	108627	0	0	8110	718418	0	0
2024-06-05 06:23:32			0	34310	0	0	0	23405	22020	147710	27287	1000140	41120	108626	0	0	8109	719079	0	0
2024-06-05 06:24:32			0	34318	0	0	0	23402	22010	147754	27137	1000062	41129	108625	0	0	8110	718741	0	0
2024-06-05 06:25:32			0	34293	0	0	0	23410	22020	147774	27095	1000105	41120	108628	0	0	8108	719883	0	0
2024-06-05 06:26:32			0	34271	0	0	0	23399	22020	147742	26875	1000087	41120	108624	0	0	8107	720924	0	0
2024-06-05 06:27:32			0	34297	0	0	0	23389	22020	147710	27005	1000034	41120	108620	0	0	8109	719694	0	0
2024-06-05 06:28:32			0	34301	0	0	0	23389	22010	147842	27454	1000035	41119	108620	0	0	8109	719545	0	0
2024-06-05 06:29:32			0	34283	0	0	0	23386	22010	147810	27128	1000150	41119	108619	0	0	8108	720396	0	0
2024-06-05 06:30:32			0	34291	0	0	0	23389	22000	147838	27216	1000027	41119	108620	0	0	8108	720058	0	0
2024-06-05 06:31:32			0	34276	0	0	0	23384	22010	147858	27253	1000035	41119	108618	0	0	8108	720728	0	0
2024-06-05 06:32:32			0	34281	0	0	0	23384	22010	147930	27421	999929	41129	108618	0	0	8108	720491	0	0
2024-06-05 06:33:32			0	34266	0	0	0	23371	21990	147982	27341	999965	41129	108613	0	0	8107	721282	0	0
2024-06-05 06:34:32			0	34265	0	0	0	23368	21990	147898	27022	999930	41106	108612	0	0	8107	721329	0	0
2024-06-05 06:35:32			0	34253	0	0	0	23371	21980	147890	27144	999948	41117	108613	0	0	8106	721939	0	0
2024-06-05 06:36:32			0	34285	0	0	0	23373	21980	147858	27265	999975	41105	108614	0	0	8108	720422	0	0
2024-06-05 06:37:32			0	34275	0	0	0	23366	21980	147870	27374	1000001	41105	108611	0	0	8108	720896	0	0
2024-06-05 06:38:32			0	34289	0	0	0	23373	21990	147882	27265	999930	41128	108614	0	0	8108	720193	0	0
2024-06-05 06:39:32			0	34269	0	0	0	23373	21980	147958	27379	999913	41116	108614	0	0	8107	721180	0	0
2024-06-05 06:40:32			0	34255	0	0	0	23376	21990	147854	27088	999903	41118	108615	0	0	8106	721803	0	0
2024-06-05 06:41:32			0	34265	0	0	0	23371	21980	147850	27116	1000001	41117	108613	0	0	8107	721370	0	0
2024-06-05 06:42:32			0	34260	0	0	0	23386	21980	147930	27183	1000001	41105	108619	0	0	8107	721607	0	0
2024-06-05 06:43:32			0	34274	0	0	0	23376	21980	147958	27227	999913	41105	108615	0	0	8107	720943	0	0
2024-06-05 06:44:32			0	34273	0	0	0	23368	21990	147902	27410	999956	41118	108612	0	0	8108	720950	0	0
2024-06-05 06:45:32			0	34283	0	0	0	23366	21980	147910	27646	999939	41105	108611	0	0	8108	720517	0	0
2024-06-05 06:46:32			0	34280	0	0	0	23366	21980	147822	27208	999975	41117	108611	0	0	8108	720659	0	0
2024-06-05 06:47:32			0	34290	0	0	0	23366	21970	147826	26958	999896	41105	108611	0	0	8109	720226	0	0
2024-06-05 06:48:32			0	34295	0	0	0	23363	21970	147978	26979	999949	41105	108610	0	0	8109	719989	0	0
2024-06-05 06:49:32			0	34281	0	0	0	23355	21970	147878	26925	999878	41126	108607	0	0	8108	720652	0	0
2024-06-05 06:50:32			0	34295	0	0	0	23355	21970	147814	27232	999843	41126	108607	0	0	8109	719989	0	0
2024-06-05 06:51:32			0	34302	0	0	0	23358	21960	147786	27355	999914	41115	108608	0	0	8109	719698	0	0
2024-06-05 06:52:32			0	34311	0	0	0	23363	21970	147718	27365	999843	41105	108610	0	0	8110	719232	0	0
2024-06-05 06:53:32			0	34324	0	0	0	23358	21960	147718	27135	999914	41125	108608	0	0	8110	718658	0	0
2024-06-05 06:54:32			0	34330	0	0	0	23373	21970	147690	26975	999931	41116	108614	0	0	8111	718334	0	0
2024-06-05 06:55:32			0	34349	0	0	0	23363	21970	147603	27414	999816	41105	108610	0	0	8112	717438	0	0
2024-06-05 06:56:32			0	34352	0	0	0	23363	21980	147635	27421	999939	41116	108610	0	0	8112	717256	0	0
2024-06-05 06:57:32			0	34346	0	0	0	23358	21960	147614	27376	999861	41115	108608	0	0	8112	717619	0	0
2024-06-05 06:58:32			0	34353	0	0	0	23355	21980	147583	27041	999939	41116	108607	0	0	8112	717209	0	0
2024-06-05 06:59:32			0	34375	0	0	0	23350	21970	147503	27261	999923	41116	108605	0	0	8114	716211	0	0
2024-06-05 07:00:32			0	34374	0	0	0	23348	21970	147503	27336	999869	41116	108604	0	0	8114	716259	0	0
2024-06-05 07:01:32			0	34387	0	0	0	23345	21960	147467	27107	999887	41104	108603	0	0	8114	715686	0	0
2024-06-05 07:02:32			0	34392	0	0	0	23324	21960	147315	27225	999879	41103	108595	0	0	8115	715451	0	0
2024-06-05 07:03:32			0	34400	0	0	0	23337	21960	147399	27067	999834	41104	108600	0	0	8115	715074	0	0
2024-06-05 07:04:32			0	34431	0	0	0	23337	21960	147251	27204	999887	41104	108600	0	0	8117	713616	0	0
2024-06-05 07:05:32			0	34449	0	0	0	23322	21960	147319	27213	999799	41103	108594	0	0	8118	712770	0	0
2024-06-05 07:06:32			0	34454	0	0	0	23316	21950	147199	27024	999737	41114	108592	0	0	8118	712576	0	0
2024-06-05 07:07:32			0	34470	0	0	0	23327	21950	147027	27246	999782	41114	108596	0	0	8119	711825	0	0
2024-06-05 07:08:32			0	34480	0	0	0	23327	21950	147051	26948	999755	41103	108596	0	0	8120	711356	0	0
2024-06-05 07:09:32			0	34486	0	0	0	23316	21940	146947	27083	999800	41102	108592	0	0	8120	711114	0	0
2024-06-05 07:10:32			0	34526	0	0	0	23327	21950	146875	27060	999888	41114	108596	0	0	8122	709202	0	0
2024-06-05 07:11:32			0	34535	0	0	0	23332	21940	146811	27142	999747	41113	108598	0	0	8123	708821	0	0
2024-06-05 07:12:32			0	34562	0	0	0	23327	21940	146659	26951	999720	41102	108596	0	0	8124	707559	0	0
2024-06-05 07:13:32			0	34603	0	0	0	23324	21940	146583	27185	999773	41113	108595	0	0	8127	705647	0	0
2024-06-05 07:14:32			0	34594	0	0	0	23335	21930	146563	27055	999730	41101	108599	0	0	8126	706106	0	0
2024-06-05 07:15:32			0	34629	0	0	0	23335	21940	146479	27293	999712	41123	108599	0	0	8128	704436	0	0
2024-06-05 07:16:32			0	34670	0	0	0	23345	21940	146367	27493	999738	41112	108603	0	0	8130	702531	0	0
2024-06-05 07:17:32			0	34684	0	0	0	23345	21940	146299	26885	999800	41102	108603	0	0	8131	701881	0	0
2024-06-05 07:18:32			0	34712	0	0	0	23353	21940	146163	27327	999871	41123	108606	0	0	8132	700583	0	0
2024-06-05 07:19:32			0	34724	0	0	0	23350	21940	146143	27062	999792	41123	108605	0	0	8133	700027	0	0
2024-06-05 07:20:32			0	34735	0	0	0	23353	21950	145927	27248	999844	41103	108606	0	0	8133	699479	0	0
2024-06-05 07:21:32			0	34773	0	0	0	23361	21940	145887	27242	999853	41113	108609	0	0	8135	697761	0	0
2024-06-05 07:22:32			0	34792	0	0	0	23353	21950	145899	27523	999915	41114	108606	0	0	8137	696844	0	0
2024-06-05 07:23:32			0	34804	0	0	0	23363	21940	145823	27012	999880	41135	108610	0	0	8137	696330	0	0
2024-06-05 07:24:32			0	34804	0	0	0	23363	21950	145719	26909	999888	41114	108610	0	0	8137	696291	0	0
2024-06-05 07:25:32			0	34819	0	0	0	23358	21950	145591	27057	999862	41125	108608	0	0	8138	695599	0	0
2024-06-05 07:26:32			0	34846	0	0	0	23355	21950	145619	27079	999808	41125	108607	0	0	8140	694356	0	0
2024-06-05 07:27:32			0	34842	0	0	0	23358	21950	145435	27345	999871	41114	108608	0	0	8139	694540	0	0
2024-06-05 07:28:32			0	34868	0	0	0	23350	21950	145323	27107	999950	41125	108605	0	0	8141	693344	0	0
2024-06-05 07:29:32			0	34884	0	0	0	23366	21960	145335	26961	999932	41114	108611	0	0	8141	692570	0	0
2024-06-05 07:30:32			0	34898	0	0	0	23361	21960	145395	27402	999861	41115	108609	0	0	8142	691928	0	0
2024-06-05 07:31:32			0	34919	0	0	0	23355	21950	145215	26982	999844	41114	108607	0	0	8144	691003	0	0
2024-06-05 07:32:32			0	34946	0	0	0	23361	21960	145175	27220	999906	41114	108609	0	0	8145	689727	0	0
2024-06-05 07:33:32			0	34956	0	0	0	23368	21940	145171	27312	999880	41102	108612	0	0	8145	689346	0	0
2024-06-05 07:34:32			0	34983	0	0	0	23366	21960	145031	26949	999932	41114	108611	0	0	8147	688034	0	0
2024-06-05 07:35:32			0	35000	0	0	0	23361	21950	144935	27152	999871	41103	108609	0	0	8148	687296	0	0
2024-06-05 07:36:32			0	35030	0	0	0	23366	21950	144975	27369	999924	41125	108611	0	0	8149	685927	0	0
2024-06-05 07:37:32			0	35028	0	0	0	23363	21960	144787	27154	999914	41115	108610	0	0	8149	685980	0	0
2024-06-05 07:38:32			0	35061	0	0	0	23371	21960	144699	27291	999914	41125	108613	0	0	8151	684476	0	0
2024-06-05 07:39:32			0	35094	0	0	0	23366	21950	144535	26953	999968	41125	108611	0	0	8153	683013	0	0
2024-06-05 07:40:32			0	35121	0	0	0	23368	21960	144516	27024	999941	41115	108612	0	0	8154	681749	0	0
2024-06-05 07:41:32			0	35137	0	0	0	23363	21970	144408	27029	1000002	41105	108610	0	0	8155	680985	0	0
2024-06-05 07:42:32			0	35169	0	0	0	23373	21970	144368	27116	999923	41116	108614	0	0	8157	679535	0	0
2024-06-05 07:43:32			0	35183	0	0	0	23379	21970	144296	27232	999958	41126	108616	0	0	8158	678901	0	0
2024-06-05 07:44:32			0	35206	0	0	0	23379	21960	144244	27331	999967	41136	108616	0	0	8159	677899	0	0
2024-06-05 07:45:32			0	35222	0	0	0	23379	21970	144096	27093	1000002	41126	108616	0	0	8160	677138	0	0
2024-06-05 07:46:32			0	35212	0	0	0	23379	21960	144068	27338	999914	41125	108616	0	0	8159	677627	0	0
2024-06-05 07:47:32			0	35243	0	0	0	23381	21970	143964	27076	999976	41126	108617	0	0	8161	676190	0	0
2024-06-05 07:48:32			0	35259	0	0	0	23381	21970	143792	27235	1000002	41105	108617	0	0	8162	675469	0	0
2024-06-05 07:49:32			0	35268	0	0	0	23384	21970	143884	27112	999976	41116	108618	0	0	8162	675063	0	0
2024-06-05 07:50:32			0	35274	0	0	0	23384	21970	143808	27416	999984	41116	108618	0	0	8163	674793	0	0
2024-06-05 07:51:32			0	35296	0	0	0	23379	21970	143784	27100	999958	41126	108616	0	0	8164	673802	0	0
2024-06-05 07:52:32			0	35288	0	0	0	23392	21970	143612	27505	1000002	41116	108621	0	0	8163	674162	0	0
2024-06-05 07:53:32			0	35298	0	0	0	23386	21980	143612	27218	1000019	41116	108619	0	0	8164	673675	0	0
2024-06-05 07:54:32			0	35300	0	0	0	23384	21980	143528	27105	1000046	41116	108618	0	0	8164	673585	0	0
2024-06-05 07:55:32			0	35305	0	0	0	23386	21980	143704	27581	1000019	41116	108619	0	0	8164	673360	0	0
2024-06-05 07:56:32			0	35306	0	0	0	23394	21980	143580	27322	1000019	41137	108622	0	0	8164	673315	0	0
2024-06-05 07:57:32			0	35307	0	0	0	23394	21990	143668	27211	1000036	41128	108622	0	0	8164	673232	0	0
2024-06-05 07:58:32			0	35294	0	0	0	23384	21980	143640	27249	1000028	41127	108618	0	0	8164	673855	0	0
2024-06-05 07:59:32			0	35286	0	0	0	23384	21990	143648	27112	1000018	41119	108618	0	0	8163	674177	0	0
2024-06-05 08:00:32			0	35306	0	0	0	23399	21990	143684	27495	1000045	41107	108624	0	0	8164	673277	0	0
2024-06-05 08:01:32			0	35289	0	0	0	23389	21980	143624	27390	1000054	41127	108620	0	0	8163	674080	0	0
2024-06-05 08:02:32			0	35303	0	0	0	23386	21980	143740	27353	1000001	41127	108619	0	0	8164	673450	0	0
2024-06-05 08:03:32			0	35286	0	0	0	23389	21990	143628	27493	999983	41128	108620	0	0	8163	674177	0	0
2024-06-05 08:04:32			0	35295	0	0	0	23386	22000	143752	27161	999973	41129	108619	0	0	8164	673735	0	0
2024-06-05 08:05:32			0	35307	0	0	0	23386	21980	143644	27133	1000073	41116	108619	0	0	8164	673270	0	0
2024-06-05 08:06:32			0	35295	0	0	0	23394	21990	143664	27156	1000045	41129	108622	0	0	8164	673772	0	0
2024-06-05 08:07:32			0	35323	0	0	0	23386	21990	143592	27104	1000036	41139	108619	0	0	8165	672513	0	0
2024-06-05 08:08:32			0	35320	0	0	0	23386	21990	143520	27242	1000045	41129	108619	0	0	8165	672648	0	0
2024-06-05 08:09:32			0	35352	0	0	0	23389	21990	143424	27471	1000045	41129	108620	0	0	8167	671211	0	0
2024-06-05 08:10:32			0	35354	0	0	0	23386	21980	143312	27008	1000054	41127	108619	0	0	8167	671159	0	0
2024-06-05 08:11:32			0	35398	0	0	0	23384	21980	143368	27189	1000001	41127	108618	0	0	8169	669187	0	0
2024-06-05 08:12:32			0	35383	0	0	0	23389	21990	143252	27440	1000036	41128	108620	0	0	8168	669821	0	0
2024-06-05 08:13:32			0	35413	0	0	0	23392	21990	143244	27462	1000036	41118	108621	0	0	8170	668478	0	0
2024-06-05 08:14:32			0	35422	0	0	0	23397	22000	143168	27206	1000053	41119	108623	0	0	8170	668038	0	0
2024-06-05 08:15:32			0	35445	0	0	0	23392	21990	143084	27509	1000018	41129	108621	0	0	8172	667048	0	0
2024-06-05 08:16:32			0	35429	0	0	0	23392	21990	143012	27602	1000063	41106	108621	0	0	8171	667762	0	0
2024-06-05 08:17:32			0	35458	0	0	0	23399	21990	143140	27457	1000063	41128	108624	0	0	8172	666467	0	0
2024-06-05 08:18:32			0	35461	0	0	0	23394	21990	143044	27374	1000045	41119	108622	0	0	8173	666333	0	0
2024-06-05 08:19:32			0	35470	0	0	0	23405	21990	142988	27433	1000063	41128	108626	0	0	8173	665932	0	0
2024-06-05 08:20:32			0	35451	0	0	0	23397	21990	142968	27530	1000045	41119	108623	0	0	8172	666780	0	0
2024-06-05 08:21:32			0	35473	0	0	0	23389	21990	142992	27370	1000125	41129	108620	0	0	8173	665798	0	0
2024-06-05 08:22:32			0	35455	0	0	0	23394	21980	142948	27405	1000054	41127	108622	0	0	8172	666638	0	0
2024-06-05 08:23:32			0	35464	0	0	0	23394	21990	142904	27535	1000036	41128	108622	0	0	8173	666199	0	0
2024-06-05 08:24:32			0	35487	0	0	0	23394	21990	142876	27402	1000045	41129	108622	0	0	8174	665174	0	0
2024-06-05 08:25:32			0	35489	0	0	0	23397	21990	142920	27364	1000036	41118	108623	0	0	8174	665085	0	0
2024-06-05 08:26:32			0	35513	0	0	0	23397	21990	142888	27614	1000036	41106	108623	0	0	8175	664016	0	0
2024-06-05 08:27:32			0	35471	0	0	0	23399	21990	142868	27202	1000045	41129	108624	0	0	8173	665887	0	0
2024-06-05 08:28:32			0	35500	0	0	0	23405	22000	142832	27528	1000133	41129	108626	0	0	8175	664557	0	0
2024-06-05 08:29:32			0	35537	0	0	0	23394	21990	142716	27623	1000036	41139	108622	0	0	8177	662948	0	0
2024-06-05 08:30:32			0	35506	0	0	0	23402	22000	142732	27300	1000080	41119	108625	0	0	8175	664290	0	0
2024-06-05 08:31:32			0	35533	0	0	0	23402	22000	142704	27114	1000027	41129	108625	0	0	8176	663089	0	0
2024-06-05 08:32:32			0	35531	0	0	0	23397	21990	142712	27308	1000116	41118	108623	0	0	8176	663215	0	0
2024-06-05 08:33:32			0	35524	0	0	0	23392	21990	142812	27350	1000045	41119	108621	0	0	8176	663526	0	0
2024-06-05 08:34:32			0	35555	0	0	0	23392	21990	142648	27371	1000090	41139	108621	0	0	8178	662148	0	0
2024-06-05 08:35:32			0	35564	0	0	0	23399	21990	142576	27495	1000071	41129	108624	0	0	8178	661748	0	0
2024-06-05 08:36:32			0	35573	0	0	0	23399	21990	142536	27441	1000045	41129	108624	0	0	8179	661348	0	0
2024-06-05 08:37:32			0	35574	0	0	0	23399	21990	142500	27473	999983	41128	108624	0	0	8179	661304	0	0
2024-06-05 08:38:32			0	35596	0	0	0	23405	21990	142496	27211	1000045	41140	108626	0	0	8180	660328	0	0
2024-06-05 08:39:32			0	35600	0	0	0	23415	22000	142424	27223	1000160	41140	108630	0	0	8180	660114	0	0
2024-06-05 08:40:32			0	35592	0	0	0	23418	22000	142420	27377	1000106	41129	108631	0	0	8179	660469	0	0
2024-06-05 08:41:32			0	35632	0	0	0	23407	21990	142364	27251	1000098	41129	108627	0	0	8182	658734	0	0
2024-06-05 08:42:32			0	35634	0	0	0	23392	22000	142244	27199	1000053	41119	108621	0	0	8182	658608	0	0
2024-06-05 08:43:32			0	35641	0	0	0	23402	21990	142204	27263	1000071	41119	108625	0	0	8182	658335	0	0
2024-06-05 08:44:32			0	35668	0	0	0	23412	22010	142204	27144	1000123	41130	108629	0	0	8184	657068	0	0
2024-06-05 08:45:32			0	35701	0	0	0	23412	22010	142100	27286	1000150	41141	108629	0	0	8185	655612	0	0
2024-06-05 08:46:32			0	35714	0	0	0	23415	22000	142064	27218	1000186	41129	108630	0	0	8186	655075	0	0
2024-06-05 08:47:32			0	35757	0	0	0	23410	22010	141968	27267	1000123	41130	108628	0	0	8188	653145	0	0
2024-06-05 08:48:32			0	35774	0	0	0	23410	22010	141864	27369	1000062	41140	108628	0	0	8189	652398	0	0
2024-06-05 08:49:32			0	35822	0	0	0	23399	22010	141656	27329	1000150	41119	108624	0	0	8192	650291	0	0
2024-06-05 08:50:32			0	35862	0	0	0	23410	22010	141513	27369	1000123	41130	108628	0	0	8194	648539	0	0
2024-06-05 08:51:32			0	35905	0	0	0	23431	22000	141253	27322	1000160	41129	108636	0	0	8196	646695	0	0
2024-06-05 08:52:32			0	35952	0	0	0	23431	22010	141057	27275	1000150	41119	108636	0	0	8198	644609	0	0
2024-06-05 08:53:32			0	36006	0	0	0	23433	22020	141045	27364	1000238	41142	108637	0	0	8201	642223	0	0
2024-06-05 08:54:32			0	36015	0	0	0	23423	22020	140885	27059	1000185	41131	108633	0	0	8202	641832	0	0
2024-06-05 08:55:32			0	36025	0	0	0	23410	22020	140781	27666	1000105	41120	108628	0	0	8203	641398	0	0
2024-06-05 08:56:32			0	36080	0	0	0	23412	22010	140677	26961	1000123	41119	108629	0	0	8206	639048	0	0
2024-06-05 08:57:32			0	36120	0	0	0	23405	22020	140417	27123	1000132	41131	108626	0	0	8208	637282	0	0
2024-06-05 08:58:32			0	36205	0	0	0	23407	22020	140101	27085	1000158	41120	108627	0	0	8212	633616	0	0
2024-06-05 08:59:32			0	36333	0	0	0	23397	22020	139609	27298	1000132	41131	108623	0	0	8219	628123	0	0
2024-06-05 09:00:32			0	36458	0	0	0	23386	22000	139201	27436	1000027	41119	108619	0	0	8226	622860	0	0
2024-06-05 09:01:32			0	36560	0	0	0	23392	22000	138821	27059	1000053	41129	108621	0	0	8231	618532	0	0
2024-06-05 09:02:32			0	36631	0	0	0	23381	22000	138482	27206	1000027	41129	108617	0	0	8235	615531	0	0
2024-06-05 09:03:32			0	36748	0	0	0	23386	22000	138210	27241	1000053	41119	108619	0	0	8241	610609	0	0
2024-06-05 09:04:32			0	36825	0	0	0	23381	21990	137898	27039	999991	41129	108617	0	0	8246	607417	0	0
2024-06-05 09:05:32			0	36852	0	0	0	23392	21990	137714	27362	1000045	41119	108621	0	0	8247	606289	0	0
2024-06-05 09:06:32			0	36881	0	0	0	23386	21990	137530	27100	1000010	41118	108619	0	0	8248	605079	0	0
2024-06-05 09:07:32			0	36928	0	0	0	23389	22000	137390	27194	999973	41129	108620	0	0	8251	603087	0	0
2024-06-05 09:08:32			0	36956	0	0	0	23386	22000	137226	27241	1000000	41140	108619	0	0	8252	601923	0	0
2024-06-05 09:09:32			0	36991	0	0	0	23384	21990	137234	27353	1000036	41118	108618	0	0	8254	600503	0	0
2024-06-05 09:10:32			0	37006	0	0	0	23381	21990	137318	26887	1000036	41128	108617	0	0	8255	599881	0	0
2024-06-05 09:11:32			0	37025	0	0	0	23386	21990	137266	27039	1000010	41118	108619	0	0	8256	599094	0	0
2024-06-05 09:12:32			0	37029	0	0	0	23397	21990	137134	27024	1000071	41140	108623	0	0	8256	598928	0	0
2024-06-05 09:13:32			0	37023	0	0	0	23392	22000	137058	27578	1000053	41119	108621	0	0	8256	599143	0	0
2024-06-05 09:14:32			0	37048	0	0	0	23384	21990	137074	27048	1000045	41129	108618	0	0	8257	598141	0	0
2024-06-05 09:15:32			0	37057	0	0	0	23389	21990	136982	27300	1000090	41139	108620	0	0	8258	597769	0	0
2024-06-05 09:16:32			0	37040	0	0	0	23402	21990	137018	27235	1000045	41140	108625	0	0	8257	598472	0	0
2024-06-05 09:17:32			0	37054	0	0	0	23386	21990	136998	27104	1000071	41129	108619	0	0	8258	597893	0	0
2024-06-05 09:18:32			0	37039	0	0	0	23379	21990	136970	27173	1000036	41139	108616	0	0	8257	598514	0	0
2024-06-05 09:19:32			0	37047	0	0	0	23379	21990	137042	27474	999983	41128	108616	0	0	8257	598183	0	0
2024-06-05 09:20:32			0	37030	0	0	0	23376	21980	137110	27289	1000028	41127	108615	0	0	8256	598920	0	0
2024-06-05 09:21:32			0	37057	0	0	0	23389	21980	137078	27209	1000019	41126	108620	0	0	8258	597802	0	0
2024-06-05 09:22:32			0	37049	0	0	0	23379	21980	137006	27203	1000001	41138	108616	0	0	8257	598133	0	0
2024-06-05 09:23:32			0	37048	0	0	0	23389	21990	136966	27156	1000063	41128	108620	0	0	8257	598141	0	0
2024-06-05 09:24:32			0	37058	0	0	0	23399	21980	136950	27381	999966	41126	108624	0	0	8257	597761	0	0
2024-06-05 09:25:32			0	37046	0	0	0	23392	21980	136990	27124	1000028	41138	108621	0	0	8257	598257	0	0
2024-06-05 09:26:32			0	37035	0	0	0	23389	21980	137030	27215	1000054	41127	108620	0	0	8256	598713	0	0
2024-06-05 09:27:32			0	37053	0	0	0	23394	21980	137066	27173	1000001	41138	108622	0	0	8257	597968	0	0
2024-06-05 09:28:32			0	37019	0	0	0	23384	21990	137142	27225	1000010	41128	108618	0	0	8256	599342	0	0
2024-06-05 09:29:32			0	37014	0	0	0	23381	21990	137074	27093	1000010	41139	108617	0	0	8255	599549	0	0
2024-06-05 09:30:32			0	37031	0	0	0	23379	21990	137066	27336	1000010	41139	108616	0	0	8256	598845	0	0
2024-06-05 09:31:32			0	37018	0	0	0	23386	21980	137034	27293	1000028	41138	108619	0	0	8256	599417	0	0
2024-06-05 09:32:32			0	36997	0	0	0	23386	21990	137094	27249	1000018	41107	108619	0	0	8255	600254	0	0
2024-06-05 09:33:32			0	37013	0	0	0	23389	21980	137202	27213	1000019	41137	108620	0	0	8255	599624	0	0
2024-06-05 09:34:32			0	37001	0	0	0	23384	21980	137194	27279	1000054	41138	108618	0	0	8255	600122	0	0
2024-06-05 09:35:32			0	37012	0	0	0	23384	21990	137150	27651	1000036	41118	108618	0	0	8255	599632	0	0
2024-06-05 09:36:32			0	36997	0	0	0	23381	21980	137166	27267	999966	41126	108617	0	0	8255	600288	0	0
2024-06-05 09:37:32			0	36974	0	0	0	23368	21980	137234	27291	1000019	41116	108612	0	0	8254	601242	0	0
2024-06-05 09:38:32			0	36991	0	0	0	23384	21980	137206	27434	1000019	41126	108618	0	0	8254	600537	0	0
2024-06-05 09:39:32			0	36969	0	0	0	23381	21980	137222	27396	1000019	41126	108617	0	0	8253	601450	0	0
2024-06-05 09:40:32			0	36992	0	0	0	23381	21980	137266	27135	1000001	41138	108617	0	0	8254	600495	0	0
2024-06-05 09:41:32			0	36978	0	0	0	23386	21980	137274	27105	1000099	41126	108619	0	0	8253	601076	0	0
2024-06-05 09:42:32			0	36974	0	0	0	23392	21990	137290	27206	1000063	41128	108621	0	0	8253	601209	0	0
2024-06-05 09:43:32			0	36972	0	0	0	23397	21980	137290	27102	1000073	41137	108623	0	0	8253	601325	0	0
2024-06-05 09:44:32			0	36969	0	0	0	23389	21980	137326	27098	1000001	41138	108620	0	0	8253	601450	0	0
2024-06-05 09:45:32			0	36986	0	0	0	23399	21990	137186	27360	1000090	41139	108624	0	0	8254	600711	0	0
2024-06-05 09:46:32			0	36971	0	0	0	23402	21990	137342	27114	1000125	41140	108625	0	0	8253	601333	0	0
2024-06-05 09:47:32			0	36949	0	0	0	23415	22000	137362	27209	1000133	41129	108630	0	0	8252	602214	0	0
2024-06-05 09:48:32			0	36943	0	0	0	23436	22020	137366	27187	1000185	41131	108638	0	0	8251	602396	0	0
2024-06-05 09:49:32			0	36955	0	0	0	23441	22010	137366	27279	1000150	41141	108640	0	0	8251	601931	0	0
2024-06-05 09:50:32			0	36940	0	0	0	23444	22020	137430	27222	1000220	41153	108641	0	0	8251	602521	0	0
2024-06-05 09:51:32			0	36952	0	0	0	23444	22020	137378	27237	1000238	41142	108641	0	0	8251	602022	0	0
2024-06-05 09:52:32			0	36958	0	0	0	23438	22020	137366	27137	1000273	41131	108639	0	0	8252	601773	0	0
2024-06-05 09:53:32			0	36904	0	0	0	23438	22020	137538	27315	1000194	41131	108639	0	0	8249	604019	0	0
2024-06-05 09:54:32			0	36843	0	0	0	23451	22020	137826	27189	1000353	41131	108644	0	0	8245	606564	0	0
2024-06-05 09:55:32			0	36691	0	0	0	23462	22040	138390	27123	1000405	41155	108648	0	0	8237	612867	0	0
2024-06-05 09:56:32			0	36514	0	0	0	23496	22030	138913	27441	1000424	41143	108661	0	0	8227	620378	0	0
2024-06-05 09:57:32			0	36238	0	0	0	23532	22060	140093	27255	1000466	41157	108675	0	0	8212	632056	0	0
2024-06-05 09:58:32			0	35900	0	0	0	23545	22050	141213	27147	1000484	41145	108680	0	0	8194	646733	0	0
2024-06-05 09:59:32			0	35658	0	0	0	23548	22070	142144	27206	1000545	41158	108681	0	0	8181	657290	0	0
2024-06-05 10:00:32			0	35489	0	0	0	23561	22070	143008	27277	1000678	41146	108686	0	0	8172	664788	0	0
2024-06-05 10:01:32			0	35321	0	0	0	23558	22090	143444	27609	1000651	41148	108685	0	0	8163	672228	0	0
2024-06-05 10:02:32			0	35221	0	0	0	23566	22090	144024	27315	1000659	41148	108688	0	0	8157	676730	0	0
2024-06-05 10:03:32			0	35120	0	0	0	23571	22100	144312	27131	1000667	41149	108690	0	0	8152	681262	0	0
2024-06-05 10:04:32			0	35057	0	0	0	23568	22120	144503	26986	1000728	41172	108689	0	0	8148	684048	0	0
2024-06-05 10:05:32			0	35002	0	0	0	23568	22110	144863	27279	1000773	41161	108689	0	0	8145	686592	0	0
2024-06-05 10:06:32			0	34919	0	0	0	23605	22120	145235	27201	1000763	41163	108703	0	0	8140	690348	0	0
2024-06-05 10:07:32			0	34878	0	0	0	23605	22140	145399	27258	1000789	41164	108703	0	0	8138	692151	0	0
2024-06-05 10:08:32			0	34821	0	0	0	23610	22140	145543	27265	1000842	41164	108705	0	0	8135	694771	0	0
2024-06-05 10:09:32			0	34788	0	0	0	23610	22150	145723	26857	1000920	41166	108705	0	0	8133	696252	0	0
2024-06-05 10:10:32			0	34738	0	0	0	23605	22140	145935	27083	1000850	41142	108703	0	0	8130	698599	0	0
2024-06-05 10:11:32			0	34703	0	0	0	23607	22170	146063	27253	1000973	41145	108704	0	0	8128	700101	0	0
2024-06-05 10:12:32			0	34651	0	0	0	23623	22150	146215	27307	1000920	41154	108710	0	0	8125	702590	0	0
2024-06-05 10:13:32			0	34610	0	0	0	23612	22160	146415	27039	1000964	41155	108706	0	0	8123	704456	0	0
2024-06-05 10:14:32			0	34596	0	0	0	23628	22170	146423	27211	1000973	41145	108712	0	0	8122	705068	0	0
2024-06-05 10:15:32			0	34590	0	0	0	23620	22170	146455	27085	1001034	41156	108709	0	0	8122	705348	0	0
2024-06-05 10:16:32			0	34589	0	0	0	23625	22180	146583	27227	1001043	41166	108711	0	0	8122	705355	0	0
2024-06-05 10:17:32			0	34570	0	0	0	23633	22190	146551	27137	1001033	41158	108714	0	0	8121	706200	0	0
2024-06-05 10:18:32			0	34570	0	0	0	23628	22190	146595	27402	1001060	41168	108712	0	0	8121	706200	0	0
2024-06-05 10:19:32			0	34565	0	0	0	23636	22190	146575	27274	1001068	41169	108715	0	0	8120	706434	0	0
2024-06-05 10:20:32			0	34555	0	0	0	23646	22190	146591	27185	1001148	41169	108719	0	0	8120	706900	0	0
2024-06-05 10:21:32			0	34563	0	0	0	23662	22200	146635	27130	1001165	41180	108725	0	0	8120	706487	0	0
2024-06-05 10:22:32			0	34567	0	0	0	23670	22210	146547	27351	1001200	41170	108728	0	0	8120	706261	0	0
2024-06-05 10:23:32			0	34597	0	0	0	23672	22220	146587	27255	1001217	41171	108729	0	0	8122	704825	0	0
2024-06-05 10:24:32			0	34591	0	0	0	23675	22220	146507	26902	1001271	41171	108730	0	0	8121	705104	0	0
2024-06-05 10:25:32			0	34619	0	0	0	23693	22220	146543	27365	1001271	41171	108737	0	0	8122	703802	0	0
2024-06-05 10:26:32			0	34614	0	0	0	23701	22240	146415	27178	1001331	41184	108740	0	0	8122	703956	0	0
2024-06-05 10:27:32			0	34609	0	0	0	23703	22230	146403	27306	1001376	41184	108741	0	0	8122	704227	0	0
2024-06-05 10:28:32			0	34633	0	0	0	23709	22250	146311	27514	1001348	41163	108743	0	0	8123	703034	0	0
2024-06-05 10:29:32			0	34664	0	0	0	23714	22240	146251	27325	1001385	41173	108745	0	0	8125	701634	0	0
2024-06-05 10:30:32			0	34660	0	0	0	23716	22260	146219	27386	1001507	41175	108746	0	0	8125	701741	0	0
2024-06-05 10:31:32			0	34653	0	0	0	23716	22260	146135	27145	1001338	41175	108746	0	0	8124	702066	0	0
2024-06-05 10:32:32			0	34688	0	0	0	23735	22270	146083	27060	1001497	41188	108753	0	0	8126	700405	0	0
2024-06-05 10:33:32			0	34686	0	0	0	23735	22280	146023	27249	1001532	41176	108753	0	0	8126	700458	0	0
2024-06-05 10:34:32			0	34699	0	0	0	23737	22280	145903	27274	1001479	41176	108754	0	0	8126	699856	0	0
2024-06-05 10:35:32			0	34712	0	0	0	23750	22280	145895	27398	1001567	41177	108759	0	0	8127	699255	0	0
2024-06-05 10:36:32			0	34732	0	0	0	23742	22290	145859	27326	1001549	41177	108756	0	0	8128	698292	0	0
2024-06-05 10:37:32			0	34737	0	0	0	23748	22300	145839	27234	1001584	41178	108758	0	0	8128	698022	0	0
2024-06-05 10:38:32			0	34763	0	0	0	23755	22310	145751	27452	1001628	41179	108761	0	0	8130	696783	0	0
2024-06-05 10:39:32			0	34779	0	0	0	23763	22310	145687	27417	1001636	41190	108764	0	0	8131	696045	0	0
2024-06-05 10:40:32			0	34792	0	0	0	23773	22310	145563	27398	1001690	41168	108768	0	0	8131	695446	0	0
2024-06-05 10:41:32			0	34827	0	0	0	23768	22320	145515	27248	1001725	41180	108766	0	0	8133	693797	0	0
2024-06-05 10:42:32			0	34848	0	0	0	23771	22320	145431	27298	1001680	41181	108767	0	0	8134	692832	0	0
2024-06-05 10:43:32			0	34875	0	0	0	23771	22330	145303	27215	1001689	41181	108767	0	0	8136	691555	0	0
2024-06-05 10:44:32			0	34858	0	0	0	23776	22330	145279	27322	1001689	41192	108769	0	0	8135	692334	0	0
2024-06-05 10:45:32			0	34893	0	0	0	23779	22330	145235	27308	1001750	41193	108770	0	0	8137	690729	0	0
2024-06-05 10:46:32			0	34938	0	0	0	23786	22340	145091	27118	1001759	41193	108773	0	0	8139	688632	0	0
2024-06-05 10:47:32			0	34944	0	0	0	23802	22340	145015	27137	1001839	41182	108779	0	0	8139	688357	0	0
2024-06-05 10:48:32			0	35004	0	0	0	23794	22350	144723	27128	1001883	41171	108776	0	0	8143	685581	0	0
2024-06-05 10:49:32			0	35037	0	0	0	23799	22350	144631	27400	1001784	41183	108778	0	0	8144	684079	0	0
2024-06-05 10:50:32			0	35065	0	0	0	23805	22360	144427	27371	1001908	41184	108780	0	0	8146	682769	0	0
2024-06-05 10:51:32			0	35071	0	0	0	23820	22370	144331	27123	1001890	41196	108786	0	0	8146	682458	0	0
2024-06-05 10:52:32			0	35098	0	0	0	23820	22370	144403	27383	1001898	41185	108786	0	0	8147	681233	0	0
2024-06-05 10:53:32			0	35111	0	0	0	23831	22370	144319	27265	1001898	41185	108790	0	0	8148	680644	0	0
2024-06-05 10:54:32			0	35119	0	0	0	23833	22380	144344	27343	1001987	41185	108791	0	0	8148	680243	0	0
2024-06-05 10:55:32			0	35125	0	0	0	23836	22380	144240	27268	1001942	41197	108792	0	0	8149	679972	0	0
2024-06-05 10:56:32			0	35118	0	0	0	23851	22390	144192	27308	1002057	41198	108798	0	0	8148	680251	0	0
2024-06-05 10:57:32			0	35119	0	0	0	23846	22390	144140	27355	1001977	41198	108796	0	0	8148	680205	0	0
2024-06-05 10:58:32			0	35138	0	0	0	23849	22400	144180	27315	1002101	41188	108797	0	0	8149	679307	0	0
2024-06-05 10:59:32			0	35122	0	0	0	23844	22410	144272	27092	1002064	41200	108795	0	0	8148	679993	0	0
2024-06-05 11:00:32			0	35128	0	0	0	23859	22410	144228	27403	1002091	41189	108801	0	0	8149	679722	0	0
2024-06-05 11:01:32			0	35140	0	0	0	23862	22400	144100	27360	1002136	41188	108802	0	0	8149	679217	0	0
2024-06-05 11:02:32			0	35157	0	0	0	23872	22410	144084	27564	1002091	41200	108806	0	0	8150	678410	0	0
2024-06-05 11:03:32			0	35173	0	0	0	23872	22410	143936	27135	1002153	41200	108806	0	0	8151	677687	0	0
2024-06-05 11:04:32			0	35198	0	0	0	23872	22440	144004	27339	1002195	41203	108806	0	0	8152	676446	0	0
2024-06-05 11:05:32			0	35197	0	0	0	23885	22420	143872	27234	1002170	41190	108811	0	0	8152	676566	0	0
2024-06-05 11:06:32			0	35238	0	0	0	23883	22440	143816	26928	1002275	41203	108810	0	0	8154	674644	0	0
2024-06-05 11:07:32			0	35240	0	0	0	23888	22430	143836	27144	1002240	41179	108812	0	0	8154	674591	0	0
2024-06-05 11:08:32			0	35276	0	0	0	23890	22450	143612	27102	1002221	41192	108813	0	0	8156	672897	0	0
2024-06-05 11:09:32			0	35329	0	0	0	23893	22450	143388	26928	1002247	41204	108814	0	0	8159	670520	0	0
2024-06-05 11:10:32			0	35365	0	0	0	23911	22450	143108	27026	1002327	41204	108821	0	0	8161	668908	0	0
2024-06-05 11:11:32			0	35394	0	0	0	23906	22470	143060	26949	1002353	41194	108819	0	0	8162	667537	0	0
2024-06-05 11:12:32			0	35432	0	0	0	23914	22460	143032	26752	1002283	41193	108822	0	0	8164	665879	0	0
2024-06-05 11:13:32			0	35442	0	0	0	23919	22470	143016	26852	1002415	41206	108824	0	0	8165	665396	0	0
2024-06-05 11:14:32			0	35434	0	0	0	23927	22470	142920	27293	1002388	41216	108827	0	0	8164	665753	0	0
2024-06-05 11:15:32			0	35457	0	0	0	23929	22480	142908	27104	1002423	41217	108828	0	0	8166	664691	0	0
2024-06-05 11:16:32			0	35462	0	0	0	23937	22480	142852	27079	1002458	41207	108831	0	0	8166	664469	0	0
2024-06-05 11:17:32			0	35468	0	0	0	23945	22490	142808	27388	1002502	41219	108834	0	0	8166	664164	0	0
2024-06-05 11:18:32			0	35486	0	0	0	23948	22490	142672	27327	1002502	41208	108835	0	0	8167	663364	0	0
2024-06-05 11:19:32			0	35526	0	0	0	23958	22500	142564	27140	1002484	41208	108839	0	0	8169	661551	0	0
2024-06-05 11:20:32			0	35552	0	0	0	23958	22500	142460	27230	1002519	41208	108839	0	0	8170	660398	0	0
2024-06-05 11:21:32			0	35557	0	0	0	23968	22520	142344	27015	1002571	41209	108843	0	0	8170	660103	0	0
2024-06-05 11:22:32			0	35605	0	0	0	23976	22510	142236	27175	1002634	41199	108846	0	0	8173	658016	0	0
2024-06-05 11:23:32			0	35640	0	0	0	23979	22530	142004	27053	1002694	41201	108847	0	0	8175	656398	0	0
2024-06-05 11:24:32			0	35668	0	0	0	23979	22510	142028	26944	1002642	41199	108847	0	0	8176	655237	0	0
2024-06-05 11:25:32			0	35673	0	0	0	23989	22530	142000	27180	1002676	41211	108851	0	0	8176	654943	0	0
2024-06-05 11:26:32			0	35673	0	0	0	23989	22540	141952	27135	1002685	41222	108851	0	0	8176	654907	0	0
2024-06-05 11:27:32			0	35683	0	0	0	23997	22550	141960	27069	1002702	41202	108854	0	0	8177	654430	0	0
2024-06-05 11:28:32			0	35672	0	0	0	23981	22540	141864	26989	1002631	41211	108848	0	0	8177	654950	0	0
2024-06-05 11:29:32			0	35703	0	0	0	23989	22540	141800	27024	1002720	41212	108851	0	0	8178	653586	0	0
2024-06-05 11:30:32			0	35762	0	0	0	23974	22550	141600	27086	1002710	41224	108845	0	0	8182	650960	0	0
2024-06-05 11:31:32			0	35858	0	0	0	23976	22550	141353	27031	1002710	41213	108846	0	0	8187	646760	0	0
2024-06-05 11:32:32			0	35923	0	0	0	23999	22550	141013	27020	1002755	41213	108855	0	0	8190	643928	0	0
2024-06-05 11:33:32			0	35925	0	0	0	23994	22550	140945	27322	1002684	41224	108853	0	0	8190	643841	0	0
2024-06-05 11:34:32			0	35927	0	0	0	23979	22560	141017	26991	1002772	41213	108847	0	0	8190	643719	0	0
2024-06-05 11:35:32			0	35918	0	0	0	23974	22570	140997	27294	1002789	41204	108845	0	0	8190	644074	0	0
2024-06-05 11:36:32			0	35906	0	0	0	23974	22560	141041	27180	1002701	41203	108845	0	0	8189	644632	0	0
2024-06-05 11:37:32			0	35884	0	0	0	23994	22560	141065	27393	1002745	41213	108853	0	0	8188	645591	0	0
2024-06-05 11:38:32			0	35880	0	0	0	23986	22560	141273	27282	1002719	41213	108850	0	0	8188	645765	0	0
2024-06-05 11:39:32			0	35897	0	0	0	23994	22560	141221	27274	1002780	41203	108853	0	0	8188	645024	0	0
2024-06-05 11:40:32			0	35895	0	0	0	23999	22560	141313	27126	1002807	41214	108855	0	0	8188	645111	0	0
2024-06-05 11:41:32			0	35878	0	0	0	24002	22570	141225	27222	1002842	41214	108856	0	0	8187	645816	0	0
2024-06-05 11:42:32			0	35910	0	0	0	23997	22570	141177	26819	1002789	41214	108854	0	0	8189	644422	0	0
2024-06-05 11:43:32			0	35959	0	0	0	23986	22560	140889	27187	1002754	41214	108850	0	0	8192	642328	0	0
2024-06-05 11:44:32			0	36042	0	0	0	23981	22580	140537	27261	1002798	41205	108848	0	0	8197	638659	0	0
2024-06-05 11:45:32			0	36173	0	0	0	23981	22580	140133	27362	1002806	41227	108848	0	0	8203	633012	0	0
2024-06-05 11:46:32			0	36307	0	0	0	23992	22560	139605	27261	1002780	41203	108852	0	0	8210	627341	0	0
2024-06-05 11:47:32			0	36389	0	0	0	23986	22580	139289	27203	1002771	41227	108850	0	0	8215	623776	0	0
2024-06-05 11:48:32			0	36498	0	0	0	23992	22570	138857	26979	1002816	41214	108852	0	0	8220	619186	0	0
2024-06-05 11:49:32			0	36579	0	0	0	24015	22580	138593	27395	1002824	41215	108861	0	0	8224	615731	0	0
2024-06-05 11:50:32			0	36623	0	0	0	24007	22580	138342	27306	1002833	41205	108858	0	0	8227	613877	0	0
2024-06-05 11:51:32			0	36678	0	0	0	24007	22590	138138	27341	1002815	41215	108858	0	0	8230	611532	0	0
2024-06-05 11:52:32			0	36737	0	0	0	24010	22590	138006	27403	1002868	41205	108859	0	0	8233	609060	0	0
2024-06-05 11:53:32			0	36739	0	0	0	24025	22600	137890	27190	1002858	41228	108865	0	0	8233	608943	0	0
2024-06-05 11:54:32			0	36780	0	0	0	23999	22590	137850	27116	1002841	41227	108855	0	0	8235	607263	0	0
2024-06-05 11:55:32			0	36800	0	0	0	24005	22590	137722	27383	1002868	41227	108857	0	0	8236	606428	0	0
2024-06-05 11:56:32			0	36774	0	0	0	23992	22590	137766	27338	1002815	41205	108852	0	0	8235	607513	0	0
2024-06-05 11:57:32			0	36760	0	0	0	23986	22580	137906	27244	1002833	41227	108850	0	0	8234	608132	0	0
2024-06-05 11:58:32			0	36658	0	0	0	23989	22580	138198	27374	1002780	41215	108851	0	0	8229	612406	0	0
2024-06-05 11:59:32			0	36558	0	0	0	23989	22590	138681	27228	1002815	41215	108851	0	0	8224	616582	0	0
2024-06-05 12:00:32			0	36457	0	0	0	23992	22580	139021	27067	1002833	41215	108852	0	0	8218	620888	0	0
2024-06-05 12:01:32			0	36356	0	0	0	23986	22590	139325	27379	1002815	41215	108850	0	0	8213	625146	0	0
2024-06-05 12:02:32			0	36331	0	0	0	23984	22580	139593	27239	1002806	41215	108849	0	0	8212	626247	0	0
2024-06-05 12:03:32			0	36342	0	0	0	23986	22580	139365	26916	1002806	41215	108850	0	0	8212	625778	0	0
2024-06-05 12:04:32			0	36398	0	0	0	23997	22590	139221	27033	1002877	41206	108854	0	0	8215	623359	0	0
2024-06-05 12:05:32			0	36459	0	0	0	23994	22580	139033	26942	1002851	41215	108853	0	0	8218	620804	0	0
2024-06-05 12:06:32			0	36510	0	0	0	24002	22590	138833	27052	1002815	41215	108856	0	0	8221	618610	0	0
2024-06-05 12:07:32			0	36537	0	0	0	23999	22590	138717	27173	1002850	41216	108855	0	0	8222	617468	0	0
2024-06-05 12:08:32			0	36584	0	0	0	23997	22590	138525	27428	1002841	41227	108854	0	0	8225	615485	0	0
2024-06-05 12:09:32			0	36663	0	0	0	24007	22590	138238	27159	1002895	41215	108858	0	0	8229	612162	0	0
2024-06-05 12:10:32			0	36756	0	0	0	24010	22590	137894	27417	1002921	41227	108859	0	0	8234	608266	0	0
2024-06-05 12:11:32			0	36838	0	0	0	24012	22590	137618	27434	1002868	41215	108860	0	0	8238	604844	0	0
2024-06-05 12:12:32			0	36899	0	0	0	24020	22590	137290	27194	1002895	41205	108863	0	0	8241	602307	0	0
2024-06-05 12:13:32			0	36962	0	0	0	24033	22600	137102	27315	1002938	41217	108868	0	0	8244	599661	0	0
2024-06-05 12:14:32			0	36985	0	0	0	24057	22600	137206	27046	1002973	41217	108877	0	0	8245	598709	0	0
2024-06-05 12:15:32			0	36841	0	0	0	24064	22620	137538	27251	1003079	41219	108880	0	0	8238	604618	0	0
2024-06-05 12:16:32			0	36688	0	0	0	24075	22610	138226	27203	1003035	41228	108884	0	0	8229	611045	0	0
2024-06-05 12:17:32			0	36545	0	0	0	24080	22620	138729	27289	1003114	41230	108886	0	0	8222	617027	0	0
2024-06-05 12:18:32			0	36421	0	0	0	24072	22630	139117	27459	1003096	41241	108883	0	0	8215	622242	0	0
2024-06-05 12:19:32			0	36349	0	0	0	24075	22630	139469	26922	1003123	41230	108884	0	0	8211	625305	0	0
2024-06-05 12:20:32			0	36280	0	0	0	24077	22630	139721	27010	1003131	41231	108885	0	0	8208	628249	0	0
2024-06-05 12:21:32			0	36229	0	0	0	24093	22630	139781	27379	1003131	41220	108891	0	0	8205	630432	0	0
2024-06-05 12:22:32			0	36222	0	0	0	24103	22640	139969	27050	1003193	41209	108895	0	0	8204	630697	0	0
2024-06-05 12:23:32			0	36202	0	0	0	24098	22640	139989	27248	1003228	41233	108893	0	0	8203	631554	0	0
2024-06-05 12:24:32			0	36202	0	0	0	24090	22650	139985	26993	1003245	41222	108890	0	0	8203	631519	0	0
2024-06-05 12:25:32			0	36178	0	0	0	24106	22660	140025	27227	1003227	41234	108896	0	0	8202	632514	0	0
2024-06-05 12:26:32			0	36165	0	0	0	24096	22660	140097	27071	1003173	41234	108892	0	0	8201	633072	0	0
2024-06-05 12:27:32			0	36171	0	0	0	24096	22670	140085	26961	1003190	41246	108892	0	0	8202	632779	0	0
2024-06-05 12:28:32			0	36178	0	0	0	24101	22670	140145	27067	1003244	41235	108894	0	0	8202	632478	0	0
2024-06-05 12:29:32			0	36161	0	0	0	24098	22670	140093	27166	1003279	41223	108893	0	0	8201	633209	0	0
2024-06-05 12:30:32			0	36171	0	0	0	24093	22660	140109	27026	1003209	41223	108891	0	0	8202	632814	0	0
2024-06-05 12:31:32			0	36125	0	0	0	24083	22660	140125	27095	1003200	41211	108887	0	0	8200	634793	0	0
2024-06-05 12:32:32			0	36151	0	0	0	24075	22660	140245	27268	1003209	41223	108884	0	0	8201	633674	0	0
2024-06-05 12:33:32			0	36135	0	0	0	24067	22670	140289	27300	1003270	41235	108881	0	0	8200	634327	0	0
2024-06-05 12:34:32			0	36118	0	0	0	24054	22660	140245	27076	1003173	41234	108876	0	0	8200	635094	0	0
2024-06-05 12:35:32			0	36152	0	0	0	24054	22650	140165	26961	1003112	41233	108876	0	0	8201	633666	0	0
2024-06-05 12:36:32			0	36186	0	0	0	24041	22650	140097	26984	1003112	41222	108871	0	0	8203	632206	0	0
2024-06-05 12:37:32			0	36220	0	0	0	24038	22660	139829	27242	1003067	41222	108870	0	0	8205	630712	0	0
2024-06-05 12:38:32			0	36294	0	0	0	24036	22650	139641	27144	1003112	41222	108869	0	0	8209	627581	0	0
2024-06-05 12:39:32			0	36350	0	0	0	24036	22650	139441	27263	1003103	41222	108869	0	0	8212	625192	0	0
2024-06-05 12:40:32			0	36406	0	0	0	24036	22650	139269	26899	1003112	41222	108869	0	0	8215	622810	0	0
2024-06-05 12:41:32			0	36445	0	0	0	24036	22650	139057	27260	1003076	41233	108869	0	0	8217	621154	0	0
2024-06-05 12:42:32			0	36501	0	0	0	24046	22650	138861	27123	1003032	41222	108873	0	0	8220	618783	0	0
2024-06-05 12:43:32			0	36568	0	0	0	24044	22640	138637	26920	1003015	41222	108872	0	0	8224	615988	0	0
2024-06-05 12:44:32			0	36596	0	0	0	24044	22650	138477	27177	1003103	41244	108872	0	0	8225	614773	0	0
2024-06-05 12:45:32			0	36640	0	0	0	24044	22650	138342	27076	1003076	41233	108872	0	0	8227	612923	0	0
2024-06-05 12:46:32			0	36677	0	0	0	24049	22650	138198	27244	1003076	41210	108874	0	0	8229	611369	0	0
2024-06-05 12:47:32			0	36716	0	0	0	24051	22650	138122	27189	1003156	41222	108875	0	0	8231	609735	0	0
2024-06-05 12:48:32			0	36748	0	0	0	24054	22650	138038	26937	1003112	41233	108876	0	0	8233	608396	0	0
2024-06-05 12:49:32			0	36759	0	0	0	24064	22640	137886	27256	1003166	41232	108880	0	0	8233	607970	0	0
2024-06-05 12:50:32			0	36799	0	0	0	24072	22640	137682	27222	1003121	41222	108883	0	0	8235	606300	0	0
2024-06-05 12:51:32			0	36819	0	0	0	24083	22650	137638	26968	1003165	41233	108887	0	0	8236	605432	0	0
2024-06-05 12:52:32			0	36861	0	0	0	24116	22670	137442	26856	1003377	41235	108900	0	0	8238	603616	0	0
2024-06-05 12:53:32			0	36884	0	0	0	24267	22690	137442	27183	1003713	41269	108958	0	0	8237	602593	0	0
2024-06-05 12:54:32			0	36883	0	0	0	24358	22730	137386	27107	1004021	41285	108993	0	0	8235	602500	0	0
2024-06-05 12:55:32			0	36879	0	0	0	24381	22780	137386	27055	1004124	41267	109002	0	0	8235	602497	0	0
2024-06-05 12:56:32			0	36893	0	0	0	24389	22800	137394	27157	1004220	41269	109005	0	0	8236	601848	0	0
2024-06-05 12:57:32			0	36901	0	0	0	24374	22820	137434	27159	1004165	41271	108999	0	0	8236	601449	0	0
2024-06-05 12:58:32			0	36904	0	0	0	24319	22830	137294	26948	1004076	41250	108978	0	0	8237	601291	0	0
2024-06-05 12:59:32			0	36929	0	0	0	24290	22830	137242	26989	1004058	41240	108967	0	0	8239	600255	0	0
2024-06-05 13:00:32			0	36924	0	0	0	24267	22830	137162	27272	1003943	41250	108958	0	0	8239	600462	0	0
2024-06-05 13:01:32			0	36970	0	0	0	24225	22820	137134	27046	1003934	41259	108942	0	0	8242	598592	0	0
2024-06-05 13:02:32			0	36985	0	0	0	24210	22810	137002	27135	1003917	41238	108936	0	0	8243	598006	0	0
2024-06-05 13:03:32			0	37003	0	0	0	24215	22810	136946	27371	1003828	41237	108938	0	0	8244	597263	0	0
2024-06-05 13:04:32			0	37009	0	0	0	24223	22810	136918	27229	1003890	41226	108941	0	0	8244	597015	0	0
2024-06-05 13:05:32			0	37018	0	0	0	24241	22810	136918	27327	1003890	41249	108948	0	0	8245	596644	0	0
2024-06-05 13:06:32			0	37026	0	0	0	24236	22810	136894	27332	1003935	41237	108946	0	0	8245	596314	0	0
2024-06-05 13:07:32			0	37028	0	0	0	24270	22810	136834	27317	1004023	41238	108959	0	0	8245	596231	0	0
2024-06-05 13:08:32			0	37036	0	0	0	24259	22830	136818	26991	1004023	41260	108955	0	0	8245	595835	0	0
2024-06-05 13:09:32			0	37075	0	0	0	24272	22830	136682	26972	1003978	41261	108960	0	0	8247	594229	0	0
2024-06-05 13:10:32			0	37101	0	0	0	24272	22830	136634	27043	1003978	41250	108960	0	0	8249	593160	0	0
2024-06-05 13:11:32			0	37072	0	0	0	24264	22830	136630	27253	1003951	41240	108957	0	0	8247	594352	0	0
2024-06-05 13:12:32			0	36974	0	0	0	24285	22840	137050	27010	1004048	41262	108965	0	0	8242	598360	0	0
2024-06-05 13:13:32			0	36871	0	0	0	24303	22840	137430	27071	1004102	41262	108972	0	0	8236	602627	0	0
2024-06-05 13:14:32			0	36785	0	0	0	24311	22850	137762	27284	1004172	41241	108975	0	0	8231	606171	0	0
2024-06-05 13:15:32			0	36718	0	0	0	24314	22860	138058	27097	1004154	41263	108976	0	0	8228	608935	0	0
2024-06-05 13:16:32			0	36729	0	0	0	24324	22870	138018	27126	1004189	41275	108980	0	0	8228	608441	0	0
2024-06-05 13:17:32			0	36708	0	0	0	24324	22870	138002	26904	1004224	41252	108980	0	0	8227	609319	0	0
2024-06-05 13:18:32			0	36742	0	0	0	24329	22880	137950	27242	1004215	41244	108982	0	0	8229	607863	0	0
2024-06-05 13:19:32			0	36794	0	0	0	24329	22880	137846	27286	1004339	41253	108982	0	0	8232	605694	0	0
2024-06-05 13:20:32			0	36802	0	0	0	24340	22880	137714	27150	1004259	41253	108986	0	0	8232	605361	0	0
2024-06-05 13:21:32			0	36848	0	0	0	24348	22890	137574	26967	1004276	41266	108989	0	0	8234	603413	0	0
2024-06-05 13:22:32			0	36878	0	0	0	24355	22910	137410	27095	1004364	41267	108992	0	0	8236	602100	0	0
2024-06-05 13:23:32			0	36926	0	0	0	24368	22900	137258	27185	1004435	41256	108997	0	0	8238	600144	0	0
2024-06-05 13:24:32			0	36976	0	0	0	24392	22910	137134	27251	1004417	41267	109006	0	0	8240	598043	0	0
2024-06-05 13:25:32			0	36992	0	0	0	24397	22930	136986	27126	1004478	41269	109008	0	0	8241	597315	0	0
2024-06-05 13:26:32			0	37027	0	0	0	24412	22930	136862	27119	1004540	41281	109014	0	0	8243	595872	0	0
2024-06-05 13:27:32			0	37078	0	0	0	24423	22940	136666	27222	1004655	41281	109018	0	0	8245	593740	0	0
2024-06-05 13:28:32			0	37117	0	0	0	24428	22940	136462	27327	1004556	41260	109020	0	0	8247	592138	0	0
2024-06-05 13:29:32			0	37164	0	0	0	24438	22970	136442	27218	1004679	41262	109024	0	0	8250	590112	0	0
2024-06-05 13:30:32			0	37177	0	0	0	24459	22970	136278	26923	1004786	41285	109032	0	0	8250	589580	0	0
2024-06-05 13:31:32			0	37197	0	0	0	24475	22980	136214	27334	1004856	41263	109038	0	0	8251	588729	0	0
2024-06-05 13:32:32			0	37203	0	0	0	24490	22990	136302	27313	1004855	41276	109044	0	0	8251	588451	0	0
2024-06-05 13:33:32			0	37223	0	0	0	24493	23010	136206	27306	1004907	41277	109045	0	0	8252	587568	0	0
2024-06-05 13:34:32			0	37236	0	0	0	24509	23010	136110	27204	1004987	41277	109051	0	0	8252	587038	0	0
2024-06-05 13:35:32			0	37262	0	0	0	24514	23020	135982	27144	1005004	41278	109053	0	0	8254	585945	0	0
2024-06-05 13:36:32			0	37297	0	0	0	24524	23030	135874	26870	1004995	41301	109057	0	0	8255	584488	0	0
2024-06-05 13:37:32			0	37326	0	0	0	24524	23040	135766	27291	1005065	41280	109057	0	0	8257	583276	0	0
2024-06-05 13:38:32			0	37355	0	0	0	24524	23050	135783	27306	1005109	41281	109057	0	0	8258	582067	0	0
2024-06-05 13:39:32			0	37366	0	0	0	24542	23050	135587	27218	1005135	41291	109064	0	0	8259	581620	0	0
2024-06-05 13:40:32			0	37405	0	0	0	24550	23060	135439	27291	1005152	41292	109067	0	0	8261	580008	0	0
2024-06-05 13:41:32			0	37477	0	0	0	24545	23070	135231	27066	1005170	41304	109065	0	0	8265	577067	0	0
2024-06-05 13:42:32			0	37541	0	0	0	24550	23070	135043	27161	1005170	41283	109067	0	0	8268	574490	0	0
2024-06-05 13:43:32			0	37578	0	0	0	24555	23090	134847	27495	1005257	41296	109069	0	0	8270	572939	0	0
2024-06-05 13:44:32			0	37632	0	0	0	24566	23090	134583	27310	1005284	41285	109073	0	0	8272	570774	0	0
2024-06-05 13:45:32			0	37698	0	0	0	24568	23100	134411	27284	1005327	41296	109074	0	0	8276	568103	0	0
2024-06-05 13:46:32			0	37762	0	0	0	24571	23120	134275	27057	1005335	41287	109075	0	0	8279	565488	0	0
2024-06-05 13:47:32			0	37820	0	0	0	24576	23120	134019	27332	1005388	41287	109077	0	0	8282	563183	0	0
2024-06-05 13:48:32			0	37880	0	0	0	24576	23120	133795	27445	1005335	41287	109077	0	0	8285	560804	0	0
2024-06-05 13:49:32			0	37928	0	0	0	24563	23120	133559	27194	1005370	41298	109072	0	0	8288	558906	0	0
2024-06-05 13:50:32			0	38030	0	0	0	24566	23130	133344	26885	1005387	41299	109073	0	0	8293	554854	0	0
2024-06-05 13:51:32			0	38063	0	0	0	24566	23130	133160	27215	1005405	41289	109073	0	0	8295	553558	0	0
2024-06-05 13:52:32			0	38122	0	0	0	24576	23140	132992	27251	1005422	41289	109077	0	0	8298	551213	0	0
2024-06-05 13:53:32			0	38171	0	0	0	24579	23150	132820	27168	1005466	41301	109078	0	0	8300	549265	0	0
2024-06-05 13:54:32			0	38221	0	0	0	24592	23140	132668	26937	1005511	41290	109083	0	0	8303	547344	0	0
2024-06-05 13:55:32			0	38285	0	0	0	24581	23150	132392	27211	1005466	41279	109079	0	0	8306	544822	0	0
2024-06-05 13:56:32			0	38378	0	0	0	24576	23150	132136	26981	1005439	41291	109077	0	0	8311	541214	0	0
2024-06-05 13:57:32			0	38427	0	0	0	24579	23150	131944	27270	1005421	41291	109078	0	0	8314	539319	0	0
2024-06-05 13:58:32			0	38467	0	0	0	24579	23150	131792	27107	1005448	41313	109078	0	0	8316	537775	0	0
2024-06-05 13:59:32			0	38525	0	0	0	24576	23150	131632	27050	1005448	41280	109077	0	0	8319	535541	0	0
2024-06-05 14:00:32			0	38564	0	0	0	24568	23150	131460	27249	1005466	41291	109074	0	0	8321	534042	0	0
2024-06-05 14:01:32			0	38615	0	0	0	24563	23150	131380	27201	1005368	41302	109072	0	0	8324	532085	0	0
2024-06-05 14:02:32			0	38638	0	0	0	24558	23170	131284	26885	1005446	41291	109070	0	0	8325	531145	0	0
2024-06-05 14:03:32			0	38675	0	0	0	24558	23150	131196	27298	1005421	41302	109070	0	0	8327	529789	0	0
2024-06-05 14:04:32			0	38664	0	0	0	24568	23170	131136	27398	1005518	41291	109074	0	0	8326	530150	0	0
2024-06-05 14:05:32			0	38676	0	0	0	24584	23170	131172	27377	1005571	41302	109080	0	0	8326	529692	0	0
2024-06-05 14:06:32			0	38660	0	0	0	24602	23160	131120	27135	1005590	41302	109087	0	0	8325	530333	0	0
2024-06-05 14:07:32			0	38669	0	0	0	24620	23170	131192	27249	1005660	41303	109094	0	0	8326	529959	0	0
2024-06-05 14:08:32			0	38673	0	0	0	24633	23190	131056	26986	1005712	41315	109099	0	0	8326	529747	0	0
2024-06-05 14:09:32			0	38687	0	0	0	24638	23200	131092	27242	1005756	41317	109101	0	0	8326	529183	0	0
2024-06-05 14:10:32			0	38695	0	0	0	24659	23200	131080	27424	1005845	41294	109109	0	0	8326	528877	0	0
2024-06-05 14:11:32			0	38709	0	0	0	24672	23210	131004	27043	1005826	41284	109114	0	0	8327	528313	0	0
2024-06-05 14:12:32			0	38724	0	0	0	24675	23220	131000	27034	1005843	41307	109115	0	0	8328	527711	0	0
2024-06-05 14:13:32			0	38733	0	0	0	24670	23220	130829	27274	1005790	41296	109113	0	0	8328	527368	0	0
2024-06-05 14:14:32			0	38767	0	0	0	24662	23230	130745	27107	1005780	41297	109110	0	0	8330	526044	0	0
2024-06-05 14:15:32			0	38795	0	0	0	24651	23220	130609	27467	1005772	41297	109106	0	0	8332	525009	0	0
2024-06-05 14:16:32			0	38836	0	0	0	24649	23230	130485	27374	1005816	41287	109105	0	0	8334	523423	0	0
2024-06-05 14:17:32			0	38895	0	0	0	24654	23230	130341	27540	1005834	41308	109107	0	0	8337	521188	0	0
2024-06-05 14:18:32			0	38958	0	0	0	24644	23230	130125	27296	1005860	41297	109103	0	0	8340	518807	0	0
2024-06-05 14:19:32			0	39058	0	0	0	24636	23230	129809	27168	1005816	41308	109100	0	0	8346	515042	0	0
2024-06-05 14:20:32			0	39108	0	0	0	24646	23240	129525	27209	1005993	41299	109104	0	0	8348	513137	0	0
2024-06-05 14:21:32			0	39159	0	0	0	24675	23240	129481	26975	1005966	41299	109115	0	0	8350	511227	0	0
2024-06-05 14:22:32			0	39164	0	0	0	24703	23260	129509	27448	1006027	41323	109126	0	0	8350	510982	0	0
2024-06-05 14:23:32			0	39119	0	0	0	24807	23270	129601	27230	1006284	41312	109166	0	0	8346	512638	0	0
2024-06-05 14:24:32			0	39061	0	0	0	24877	23290	129661	27350	1006425	41336	109193	0	0	8342	514756	0	0
2024-06-05 14:25:32			0	39135	0	0	0	24888	23320	129665	27326	1006548	41328	109197	0	0	8346	511895	0	0
2024-06-05 14:26:32			0	39162	0	0	0	24896	23340	129525	27190	1006662	41318	109200	0	0	8347	510828	0	0
2024-06-05 14:27:32			0	39082	0	0	0	24916	23360	129769	27454	1006678	41332	109208	0	0	8343	513766	0	0
2024-06-05 14:28:32			0	38925	0	0	0	24929	23380	130173	27414	1006810	41344	109213	0	0	8334	519616	0	0
2024-06-05 14:29:32			0	38884	0	0	0	24916	23400	130309	27348	1006817	41346	109208	0	0	8333	521106	0	0
2024-06-05 14:30:32			0	38841	0	0	0	24924	23410	130373	27254	1006888	41325	109211	0	0	8330	522705	0	0
2024-06-05 14:31:32			0	38846	0	0	0	24914	23430	130345	27038	1006957	41328	109207	0	0	8331	522457	0	0
2024-06-05 14:32:32			0	38831	0	0	0	24929	23440	130481	27248	1007046	41338	109213	0	0	8330	522995	0	0
2024-06-05 14:33:32			0	38806	0	0	0	24924	23460	130549	26849	1007026	41341	109211	0	0	8329	523885	0	0
2024-06-05 14:34:32			0	38771	0	0	0	24929	23470	130677	27322	1007062	41331	109213	0	0	8327	525184	0	0
2024-06-05 14:35:32			0	38767	0	0	0	24945	23470	130713	27362	1007044	41331	109219	0	0	8326	525336	0	0
2024-06-05 14:36:32			0	38782	0	0	0	24948	23490	130553	27405	1007229	41354	109220	0	0	8327	524707	0	0
2024-06-05 14:37:32			0	38823	0	0	0	24953	23500	130389	27331	1007201	41345	109222	0	0	8329	523122	0	0
2024-06-05 14:38:32			0	38890	0	0	0	24968	23500	130233	27455	1007255	41345	109228	0	0	8332	520587	0	0
2024-06-05 14:39:32			0	38959	0	0	0	24971	23520	130005	27467	1007280	41334	109229	0	0	8336	517925	0	0
2024-06-05 14:40:32			0	39013	0	0	0	24979	23540	129861	27563	1007288	41327	109232	0	0	8339	515835	0	0
2024-06-05 14:41:32			0	39031	0	0	0	24981	23540	129713	27211	1007341	41327	109233	0	0	8340	515159	0	0
2024-06-05 14:42:32			0	39032	0	0	0	24989	23540	129753	27131	1007376	41348	109236	0	0	8340	515121	0	0
2024-06-05 14:43:32			0	39045	0	0	0	24986	23550	129661	27256	1007438	41337	109235	0	0	8340	514605	0	0
2024-06-05 14:44:32			0	39064	0	0	0	24989	23550	129649	27410	1007447	41316	109236	0	0	8341	513892	0	0
2024-06-05 14:45:32			0	39072	0	0	0	25005	23560	129541	27098	1007464	41350	109242	0	0	8341	513563	0	0
2024-06-05 14:46:32			0	39070	0	0	0	25007	23570	129509	27189	1007499	41340	109243	0	0	8341	513609	0	0
2024-06-05 14:47:32			0	39073	0	0	0	24999	23570	129425	27248	1007499	41351	109240	0	0	8342	513497	0	0
2024-06-05 14:48:32			0	39073	0	0	0	25007	23590	129529	27211	1007534	41341	109243	0	0	8342	513439	0	0
2024-06-05 14:49:32			0	39078	0	0	0	25007	23580	129509	27331	1007490	41340	109243	0	0	8342	513281	0	0
2024-06-05 14:50:32			0	39097	0	0	0	25015	23590	129453	27072	1007596	41341	109246	0	0	8343	512540	0	0
2024-06-05 14:51:32			0	39131	0	0	0	25010	23590	129277	27222	1007596	41353	109244	0	0	8345	511268	0	0
2024-06-05 14:52:32			0	39188	0	0	0	25010	23600	129149	26981	1007631	41332	109244	0	0	8348	509112	0	0
2024-06-05 14:53:32			0	39175	0	0	0	24999	23600	129093	27007	1007551	41342	109240	0	0	8347	509597	0	0
2024-06-05 14:54:32			0	39239	0	0	0	24992	23600	128993	27251	1007613	41343	109237	0	0	8350	507212	0	0
2024-06-05 14:55:32			0	39281	0	0	0	24999	23600	128845	27512	1007524	41354	109240	0	0	8352	505651	0	0
2024-06-05 14:56:32			0	39322	0	0	0	25018	23610	128745	27421	1007630	41333	109247	0	0	8354	504102	0	0
2024-06-05 14:57:32			0	39345	0	0	0	25025	23610	128645	27249	1007710	41343	109250	0	0	8355	503249	0	0
2024-06-05 14:58:32			0	39391	0	0	0	25057	23620	128517	26835	1007780	41345	109262	0	0	8357	501519	0	0
2024-06-05 14:59:32			0	39441	0	0	0	25067	23620	128322	26991	1007780	41345	109266	0	0	8360	499673	0	0
2024-06-05 15:00:32			0	39514	0	0	0	25111	23630	128086	27253	1007984	41345	109283	0	0	8363	496957	0	0
2024-06-05 15:01:32			0	39617	0	0	0	25124	23650	127926	27270	1008010	41347	109288	0	0	8368	493123	0	0
2024-06-05 15:02:32			0	39692	0	0	0	25135	23660	127534	26906	1008062	41360	109292	0	0	8372	490355	0	0
2024-06-05 15:03:32			0	39744	0	0	0	25140	23680	127298	27274	1008123	41362	109294	0	0	8374	488405	0	0
2024-06-05 15:04:32			0	39814	0	0	0	25163	23690	127182	27345	1008185	41351	109303	0	0	8378	485833	0	0
2024-06-05 15:05:32			0	39837	0	0	0	25189	23700	127098	27112	1008255	41363	109313	0	0	8378	484972	0	0
2024-06-05 15:06:32			0	39837	0	0	0	25223	23720	127130	27341	1008325	41365	109326	0	0	8378	484917	0	0
2024-06-05 15:07:32			0	39769	0	0	0	25251	23740	127210	27140	1008484	41367	109337	0	0	8374	487331	0	0
2024-06-05 15:08:32			0	39710	0	0	0	25264	23770	127434	27105	1008553	41379	109342	0	0	8371	489395	0	0
2024-06-05 15:09:32			0	39612	0	0	0	25298	23780	127666	27601	1008677	41381	109355	0	0	8365	492945	0	0
2024-06-05 15:10:32			0	39573	0	0	0	25335	23790	127918	27171	1008703	41393	109369	0	0	8363	494345	0	0
2024-06-05 15:11:32			0	39539	0	0	0	25361	23820	127978	26984	1008861	41385	109379	0	0	8361	495508	0	0
2024-06-05 15:12:32			0	39567	0	0	0	25366	23840	127782	27305	1009002	41399	109381	0	0	8362	494426	0	0
2024-06-05 15:13:32			0	39631	0	0	0	25368	23860	127630	26975	1009028	41388	109382	0	0	8365	492029	0	0
2024-06-05 15:14:32			0	39666	0	0	0	25366	23870	127510	27452	1009026	41379	109381	0	0	8367	490723	0	0
2024-06-05 15:15:32			0	39696	0	0	0	25324	23870	127326	26908	1008946	41368	109365	0	0	8370	489630	0	0
2024-06-05 15:16:32			0	39699	0	0	0	25298	23880	127370	27204	1008937	41369	109355	0	0	8370	489493	0	0
2024-06-05 15:17:32			0	39698	0	0	0	25293	23900	127374	26876	1009016	41392	109353	0	0	8370	489474	0	0
2024-06-05 15:18:32			0	39666	0	0	0	25335	23890	127426	27263	1009034	41380	109369	0	0	8368	490668	0	0
2024-06-05 15:19:32			0	39622	0	0	0	25374	23900	127546	27138	1009131	41393	109384	0	0	8365	492247	0	0
2024-06-05 15:20:32			0	39677	0	0	0	25386	23910	127466	27149	1009148	41393	109389	0	0	8368	490212	0	0
2024-06-05 15:21:32			0	39757	0	0	0	25384	23930	127210	27390	1009209	41384	109388	0	0	8372	487245	0	0
2024-06-05 15:22:32			0	39849	0	0	0	25381	23920	126870	26771	1009218	41394	109387	0	0	8377	483937	0	0
2024-06-05 15:23:32			0	39923	0	0	0	25381	23950	126578	27185	1009235	41386	109387	0	0	8381	481182	0	0
2024-06-05 15:24:32			0	39982	0	0	0	25374	23950	126514	27208	1009261	41386	109384	0	0	8384	479056	0	0
2024-06-05 15:25:32			0	40002	0	0	0	25374	23940	126418	27225	1009253	41385	109384	0	0	8385	478363	0	0
2024-06-05 15:26:32			0	40036	0	0	0	25376	23950	126286	27015	1009297	41387	109385	0	0	8387	477115	0	0
2024-06-05 15:27:32			0	40072	0	0	0	25381	23960	126246	27213	1009279	41387	109387	0	0	8388	475796	0	0
2024-06-05 15:28:32			0	40093	0	0	0	25381	23970	126158	27308	1009384	41377	109387	0	0	8390	475017	0	0
2024-06-05 15:29:32			0	40069	0	0	0	25376	23960	126174	26970	1009287	41387	109385	0	0	8388	475904	0	0
2024-06-05 15:30:32			0	40051	0	0	0	25381	23960	126198	27467	1009367	41375	109387	0	0	8387	476550	0	0
2024-06-05 15:31:32			0	40011	0	0	0	25353	23960	126298	27085	1009234	41387	109376	0	0	8386	477986	0	0
2024-06-05 15:32:32			0	40008	0	0	0	25340	23970	126398	27320	1009189	41376	109371	0	0	8386	478067	0	0
2024-06-05 15:33:32			0	39999	0	0	0	25301	23950	126310	27183	1009163	41354	109356	0	0	8386	478444	0	0
2024-06-05 15:34:32			0	40024	0	0	0	25249	23950	126298	27505	1009048	41353	109336	0	0	8388	477546	0	0
2024-06-05 15:35:32			0	40052	0	0	0	25205	23930	126234	27258	1008853	41351	109319	0	0	8390	476594	0	0
2024-06-05 15:36:32			0	40042	0	0	0	25194	23920	126218	27403	1008783	41338	109315	0	0	8390	476980	0	0
2024-06-05 15:37:32			0	40045	0	0	0	25184	23900	126222	27293	1008775	41359	109311	0	0	8390	476926	0	0
2024-06-05 15:38:32			0	40067	0	0	0	25184	23890	126154	27190	1008793	41370	109311	0	0	8391	476163	0	0
2024-06-05 15:39:32			0	40103	0	0	0	25207	23890	126043	27244	1008758	41370	109320	0	0	8393	474873	0	0
2024-06-05 15:40:32			0	40159	0	0	0	25228	23890	125943	27161	1008847	41380	109328	0	0	8395	472870	0	0
2024-06-05 15:41:32			0	40223	0	0	0	25251	23900	125691	27279	1008909	41380	109337	0	0	8398	470559	0	0
2024-06-05 15:42:32			0	40239	0	0	0	25296	23900	125739	27046	1009051	41393	109354	0	0	8398	469989	0	0
2024-06-05 15:43:32			0	40213	0	0	0	25342	23920	125763	27171	1009237	41382	109372	0	0	8396	470863	0	0
2024-06-05 15:44:32			0	40227	0	0	0	25397	23940	125871	27005	1009351	41396	109393	0	0	8396	470311	0	0
2024-06-05 15:45:32			0	40252	0	0	0	25431	23960	125763	27197	1009439	41398	109406	0	0	8397	469368	0	0
2024-06-05 15:46:32			0	40276	0	0	0	25451	23970	125551	27350	1009545	41400	109414	0	0	8398	468488	0	0
2024-06-05 15:47:32			0	40308	0	0	0	25480	24000	125535	27038	1009614	41413	109425	0	0	8399	467272	0	0
2024-06-05 15:48:32			0	40351	0	0	0	25498	24010	125455	27102	1009711	41402	109432	0	0	8401	465721	0	0
2024-06-05 15:49:32			0	40343	0	0	0	25516	24020	125447	27350	1009763	41404	109439	0	0	8401	465978	0	0
2024-06-05 15:50:32			0	40362	0	0	0	25535	24030	125315	27194	1009861	41405	109446	0	0	8401	465279	0	0
2024-06-05 15:51:32			0	40349	0	0	0	25537	24060	125359	27369	1009841	41396	109447	0	0	8401	465661	0	0
2024-06-05 15:52:32			0	40364	0	0	0	25542	24070	125367	27398	1009859	41397	109449	0	0	8401	465103	0	0
2024-06-05 15:53:32			0	40375	0	0	0	25555	24080	125283	27166	1009929	41397	109454	0	0	8402	464688	0	0
2024-06-05 15:54:32			0	40363	0	0	0	25553	24080	125371	27367	1009965	41398	109453	0	0	8401	465112	0	0
2024-06-05 15:55:32			0	40338	0	0	0	25558	24100	125447	27144	1009999	41411	109455	0	0	8400	465945	0	0
2024-06-05 15:56:32			0	40337	0	0	0	25561	24110	125411	27601	1010069	41401	109456	0	0	8400	465954	0	0
2024-06-05 15:57:32			0	40309	0	0	0	25566	24120	125423	27279	1010078	41402	109458	0	0	8398	466921	0	0
2024-06-05 15:58:32			0	40309	0	0	0	25566	24120	125531	27135	1010086	41402	109458	0	0	8398	466921	0	0
2024-06-05 15:59:32			0	40311	0	0	0	25576	24130	125487	27163	1010175	41391	109462	0	0	8398	466823	0	0
2024-06-05 16:00:32			0	40270	0	0	0	25581	24140	125475	27213	1010219	41404	109464	0	0	8396	468252	0	0
2024-06-05 16:01:32			0	40312	0	0	0	25581	24140	125459	26908	1010139	41404	109464	0	0	8398	466761	0	0
2024-06-05 16:02:32			0	40307	0	0	0	25589	24150	125483	27095	1010191	41405	109467	0	0	8398	466912	0	0
2024-06-05 16:03:32			0	40300	0	0	0	25589	24160	125439	27282	1010261	41416	109467	0	0	8398	467134	0	0
2024-06-05 16:04:32			0	40320	0	0	0	25579	24160	125507	27161	1010199	41406	109463	0	0	8399	466425	0	0
2024-06-05 16:05:32			0	40317	0	0	0	25571	24160	125407	27291	1010226	41394	109460	0	0	8399	466531	0	0
2024-06-05 16:06:32			0	40337	0	0	0	25555	24170	125399	27190	1010172	41406	109454	0	0	8400	465796	0	0
2024-06-05 16:07:32			0	40325	0	0	0	25548	24150	125303	27097	1010191	41393	109451	0	0	8400	466274	0	0
2024-06-05 16:08:32			0	40328	0	0	0	25529	24160	125251	27211	1010155	41394	109444	0	0	8400	466142	0	0
2024-06-05 16:09:32			0	40317	0	0	0	25532	24160	125291	26892	1010155	41406	109445	0	0	8399	466531	0	0
2024-06-05 16:10:32			0	40340	0	0	0	25537	24160	125279	27277	1010146	41406	109447	0	0	8401	465717	0	0
2024-06-05 16:11:32			0	40349	0	0	0	25529	24160	125251	27251	1010173	41406	109444	0	0	8401	465398	0	0
2024-06-05 16:12:32			0	40315	0	0	0	25522	24160	125231	27249	1010155	41394	109441	0	0	8399	466602	0	0
2024-06-05 16:13:32			0	40333	0	0	0	25522	24160	125311	27334	1010092	41383	109441	0	0	8400	465964	0	0
2024-06-05 16:14:32			0	40339	0	0	0	25503	24160	125351	27407	1010128	41383	109434	0	0	8401	465752	0	0
2024-06-05 16:15:32			0	40355	0	0	0	25467	24150	125299	27176	1009888	41372	109420	0	0	8402	465212	0	0
2024-06-05 16:16:32			0	40367	0	0	0	25379	24120	125239	27178	1009570	41346	109386	0	0	8404	464866	0	0
2024-06-05 16:17:32			0	40396	0	0	0	25316	24090	125207	27175	1009358	41332	109362	0	0	8407	463919	0	0
2024-06-05 16:18:32			0	40445	0	0	0	25288	24050	124999	27429	1009397	41362	109351	0	0	8410	462293	0	0
2024-06-05 16:19:32			0	40462	0	0	0	25283	24030	124895	27034	1009318	41371	109349	0	0	8411	461745	0	0
2024-06-05 16:20:32			0	40519	0	0	0	25264	24020	124843	27403	1009282	41360	109342	0	0	8414	459764	0	0
2024-06-05 16:21:32			0	40564	0	0	0	25238	24010	124627	27280	1009230	41358	109332	0	0	8417	458208	0	0
2024-06-05 16:22:32			0	40592	0	0	0	25197	23990	124539	27381	1009089	41356	109316	0	0	8419	457277	0	0
2024-06-05 16:23:32			0	40631	0	0	0	25197	23980	124355	27003	1009107	41367	109316	0	0	8421	455935	0	0
2024-06-05 16:24:32			0	40669	0	0	0	25202	23970	124331	27234	1009135	41376	109318	0	0	8423	454631	0	0
2024-06-05 16:25:32			0	40726	0	0	0	25241	23980	124279	27353	1009366	41377	109333	0	0	8425	452614	0	0
2024-06-05 16:26:32			0	40736	0	0	0	25296	24000	124255	27383	1009507	41402	109354	0	0	8425	452214	0	0
2024-06-05 16:27:32			0	40744	0	0	0	25353	24010	124183	27244	1009586	41381	109376	0	0	8424	451909	0	0
2024-06-05 16:28:32			0	40756	0	0	0	25397	24030	124091	27331	1009745	41404	109393	0	0	8424	451440	0	0
2024-06-05 16:29:32			0	40740	0	0	0	25449	24040	124227	27039	1009869	41383	109413	0	0	8422	451972	0	0
2024-06-05 16:30:32			0	40757	0	0	0	25490	24070	124291	27317	1009885	41397	109429	0	0	8423	451303	0	0
2024-06-05 16:31:32			0	40769	0	0	0	25522	24090	124195	27213	1009982	41377	109441	0	0	8423	450835	0	0
2024-06-05 16:32:32			0	40749	0	0	0	25553	24100	124175	27041	1010044	41399	109453	0	0	8421	451506	0	0
2024-06-05 16:33:32			0	40773	0	0	0	25568	24120	124256	27329	1010158	41402	109459	0	0	8422	450619	0	0
2024-06-05 16:34:32			0	40753	0	0	0	25610	24120	124187	27227	1010300	41402	109475	0	0	8421	451315	0	0
2024-06-05 16:35:32			0	40752	0	0	0	25636	24170	124119	27521	1010350	41406	109485	0	0	8420	451223	0	0
2024-06-05 16:36:32			0	40731	0	0	0	25662	24180	124191	27471	1010528	41418	109495	0	0	8419	451929	0	0
2024-06-05 16:37:32			0	40728	0	0	0	25683	24190	124219	27177	1010518	41397	109503	0	0	8418	452008	0	0
2024-06-05 16:38:32			0	40739	0	0	0	25688	24200	124203	27074	1010571	41432	109505	0	0	8419	451599	0	0
2024-06-05 16:39:32			0	40715	0	0	0	25696	24220	124231	27215	1010650	41411	109508	0	0	8418	452385	0	0
2024-06-05 16:40:32			0	40678	0	0	0	25696	24240	124315	27282	1010657	41423	109508	0	0	8416	453624	0	0
2024-06-05 16:41:32			0	40646	0	0	0	25703	24250	124347	27163	1010754	41425	109511	0	0	8414	454717	0	0
2024-06-05 16:42:32			0	40602	0	0	0	25706	24260	124511	27187	1010833	41415	109512	0	0	8412	456230	0	0
2024-06-05 16:43:32			0	40546	0	0	0	25714	24260	124751	27315	1010833	41415	109515	0	0	8409	458193	0	0
2024-06-05 16:44:32			0	40502	0	0	0	25714	24300	124831	27334	1010974	41417	109515	0	0	8407	459635	0	0
2024-06-05 16:45:32			0	40445	0	0	0	25727	24310	124951	27467	1010964	41430	109520	0	0	8403	461615	0	0
2024-06-05 16:46:32			0	40417	0	0	0	25740	24300	124959	27029	1011081	41428	109525	0	0	8402	462628	0	0
2024-06-05 16:47:32			0	40418	0	0	0	25763	24330	125031	27407	1011132	41432	109534	0	0	8401	462515	0	0
2024-06-05 16:48:32			0	40416	0	0	0	25774	24330	125091	27242	1011132	41421	109538	0	0	8401	462585	0	0
2024-06-05 16:49:32			0	40430	0	0	0	25774	24340	124847	27180	1011141	41422	109538	0	0	8402	462065	0	0
2024-06-05 16:50:32			0	40456	0	0	0	25779	24350	124855	27312	1011166	41422	109540	0	0	8403	461123	0	0
2024-06-05 16:51:32			0	40474	0	0	0	25779	24360	124775	27277	1011210	41413	109540	0	0	8404	460464	0	0
2024-06-05 16:52:32			0	40535	0	0	0	25774	24360	124663	27229	1011183	41423	109538	0	0	8407	458321	0	0
2024-06-05 16:53:32			0	40573	0	0	0	25774	24370	124623	27348	1011245	41413	109538	0	0	8409	456962	0	0
2024-06-05 16:54:32			0	40579	0	0	0	25766	24380	124523	27036	1011289	41425	109535	0	0	8410	456726	0	0
2024-06-05 16:55:32			0	40585	0	0	0	25745	24390	124499	27116	1011199	41426	109527	0	0	8411	456490	0	0
2024-06-05 16:56:32			0	40590	0	0	0	25722	24380	124395	27294	1011156	41415	109518	0	0	8411	456341	0	0
2024-06-05 16:57:32			0	40662	0	0	0	25677	24360	124219	27078	1010881	41390	109501	0	0	8416	453875	0	0
2024-06-05 16:58:32			0	40706	0	0	0	25612	24330	124095	27112	1010749	41398	109476	0	0	8419	452417	0	0
2024-06-05 16:59:32			0	40713	0	0	0	25555	24320	124023	27438	1010518	41387	109454	0	0	8420	452199	0	0
2024-06-05 17:00:32			0	40736	0	0	0	25516	24280	123939	27270	1010413	41395	109439	0	0	8422	451500	0	0
2024-06-05 17:01:32			0	40751	0	0	0	25506	24260	123979	27131	1010397	41381	109435	0	0	8423	451029	0	0
2024-06-05 17:02:32			0	40697	0	0	0	25516	24240	124079	27279	1010398	41380	109439	0	0	8420	452961	0	0
2024-06-05 17:03:32			0	40660	0	0	0	25555	24240	124235	27026	1010425	41424	109454	0	0	8417	454253	0	0
2024-06-05 17:04:32			0	40617	0	0	0	25615	24240	124471	27331	1010612	41424	109477	0	0	8414	455757	0	0
2024-06-05 17:05:32			0	40581	0	0	0	25646	24260	124543	27310	1010718	41403	109489	0	0	8412	456966	0	0
2024-06-05 17:06:32			0	40612	0	0	0	25641	24260	124575	27182	1010646	41415	109487	0	0	8413	455880	0	0
2024-06-05 17:07:32			0	40601	0	0	0	25625	24250	124439	27438	1010656	41403	109481	0	0	8413	456291	0	0
2024-06-05 17:08:32			0	40630	0	0	0	25615	24250	124447	27355	1010683	41403	109477	0	0	8415	455276	0	0
2024-06-05 17:09:32			0	40678	0	0	0	25605	24250	124323	27421	1010496	41392	109473	0	0	8417	453599	0	0
2024-06-05 17:10:32			0	40699	0	0	0	25555	24250	124287	27053	1010407	41381	109454	0	0	8419	452866	0	0
2024-06-05 17:11:32			0	40754	0	0	0	25522	24220	123987	26923	1010230	41368	109441	0	0	8423	451026	0	0
2024-06-05 17:12:32			0	40764	0	0	0	25498	24210	123888	27192	1010178	41376	109432	0	0	8424	450703	0	0
2024-06-05 17:13:32			0	40774	0	0	0	25490	24200	123932	27277	1010241	41375	109429	0	0	8424	450381	0	0
2024-06-05 17:14:32			0	40767	0	0	0	25509	24190	123996	27208	1010286	41397	109436	0	0	8423	450650	0	0
2024-06-05 17:15:32			0	40717	0	0	0	25550	24200	124171	27090	1010464	41410	109452	0	0	8420	452366	0	0
2024-06-05 17:16:32			0	40671	0	0	0	25568	24210	124247	27261	1010419	41410	109459	0	0	8417	453946	0	0
2024-06-05 17:17:32			0	40673	0	0	0	25553	24200	124311	27187	1010321	41398	109453	0	0	8418	453901	0	0
2024-06-05 17:18:32			0	40671	0	0	0	25542	24200	124247	27218	1010303	41387	109449	0	0	8418	453971	0	0
2024-06-05 17:19:32			0	40659	0	0	0	25527	24200	124227	27008	1010295	41386	109443	0	0	8417	454390	0	0
2024-06-05 17:20:32			0	40701	0	0	0	25524	24190	124239	27088	1010251	41386	109442	0	0	8420	452950	0	0
2024-06-05 17:21:32			0	40710	0	0	0	25519	24180	124191	26847	1010234	41385	109440	0	0	8420	452661	0	0
2024-06-05 17:22:32			0	40692	0	0	0	25535	24180	124211	27149	1010349	41397	109446	0	0	8419	453289	0	0
2024-06-05 17:23:32			0	40669	0	0	0	25581	24190	124379	27036	1010420	41408	109464	0	0	8417	454067	0	0
2024-06-05 17:24:32			0	40662	0	0	0	25605	24200	124347	27341	1010428	41409	109473	0	0	8416	454286	0	0
2024-06-05 17:25:32			0	40639	0	0	0	25633	24200	124375	27339	1010509	41409	109484	0	0	8415	455090	0	0
2024-06-05 17:26:32			0	40658	0	0	0	25636	24210	124451	27203	1010454	41410	109485	0	0	8416	454400	0	0
2024-06-05 17:27:32			0	40654	0	0	0	25625	24210	124391	27090	1010454	41399	109481	0	0	8416	454540	0	0
2024-06-05 17:28:32			0	40679	0	0	0	25633	24220	124331	27249	1010516	41400	109484	0	0	8417	453641	0	0
2024-06-05 17:29:32			0	40677	0	0	0	25633	24230	124327	27235	1010586	41412	109484	0	0	8417	453685	0	0
2024-06-05 17:30:32			0	40680	0	0	0	25641	24230	124207	27183	1010506	41400	109487	0	0	8417	453580	0	0
2024-06-05 17:31:32			0	40680	0	0	0	25654	24230	124275	27336	1010586	41412	109492	0	0	8417	453580	0	0
2024-06-05 17:32:32			0	40706	0	0	0	25654	24240	124179	26798	1010604	41401	109492	0	0	8418	452647	0	0
2024-06-05 17:33:32			0	40745	0	0	0	25667	24240	124127	27223	1010711	41434	109497	0	0	8420	451288	0	0
2024-06-05 17:34:32			0	40753	0	0	0	25696	24260	124051	27197	1010905	41425	109508	0	0	8420	450959	0	0
2024-06-05 17:35:32			0	40761	0	0	0	25737	24270	124115	27241	1010931	41416	109524	0	0	8420	450655	0	0
2024-06-05 17:36:32			0	40751	0	0	0	25771	24290	124091	27197	1011098	41428	109537	0	0	8419	450952	0	0
2024-06-05 17:37:32			0	40747	0	0	0	25802	24330	124079	27220	1011177	41442	109549	0	0	8418	450989	0	0
2024-06-05 17:38:32			0	40780	0	0	0	25838	24340	124012	27197	1011256	41433	109563	0	0	8419	449817	0	0
2024-06-05 17:39:32			0	40827	0	0	0	25870	24350	123912	27057	1011434	41445	109575	0	0	8421	448160	0	0
2024-06-05 17:40:32			0	40822	0	0	0	25890	24380	123828	27190	1011530	41458	109583	0	0	8421	448257	0	0
2024-06-05 17:41:32			0	40861	0	0	0	25911	24410	123656	27277	1011581	41439	109591	0	0	8422	446830	0	0
2024-06-05 17:42:32			0	40901	0	0	0	25916	24420	123596	26863	1011625	41440	109593	0	0	8424	445421	0	0
2024-06-05 17:43:32			0	40937	0	0	0	25909	24430	123496	26909	1011562	41441	109590	0	0	8427	444152	0	0
2024-06-05 17:44:32			0	40981	0	0	0	25896	24440	123360	27386	1011579	41442	109585	0	0	8429	442610	0	0
2024-06-05 17:45:32			0	40999	0	0	0	25890	24430	123248	27305	1011570	41441	109583	0	0	8430	442015	0	0
2024-06-05 17:46:32			0	41032	0	0	0	25875	24430	123200	27142	1011597	41452	109577	0	0	8432	440880	0	0
2024-06-05 17:47:32			0	41038	0	0	0	25862	24430	123112	27367	1011544	41441	109572	0	0	8433	440674	0	0
2024-06-05 17:48:32			0	41017	0	0	0	25859	24450	123152	27274	1011596	41444	109571	0	0	8432	441346	0	0
2024-06-05 17:49:32			0	40995	0	0	0	25864	24440	123264	27265	1011561	41464	109573	0	0	8430	442128	0	0
2024-06-05 17:50:32			0	40978	0	0	0	25867	24450	123344	27097	1011605	41432	109574	0	0	8429	442689	0	0
2024-06-05 17:51:32			0	40977	0	0	0	25851	24450	123272	27223	1011623	41444	109568	0	0	8430	442723	0	0
2024-06-05 17:52:32			0	40963	0	0	0	25841	24460	123244	27154	1011533	41444	109564	0	0	8429	443180	0	0
2024-06-05 17:53:32			0	40962	0	0	0	25825	24450	123272	27128	1011498	41444	109558	0	0	8429	443240	0	0
2024-06-05 17:54:32			0	41002	0	0	0	25794	24440	123236	27107	1011454	41431	109546	0	0	8432	441887	0	0
2024-06-05 17:55:32			0	40996	0	0	0	25784	24430	123212	27223	1011348	41418	109542	0	0	8432	442119	0	0
2024-06-05 17:56:32			0	40988	0	0	0	25745	24420	123208	27360	1011286	41418	109527	0	0	8432	442419	0	0
2024-06-05 17:57:32			0	40987	0	0	0	25701	24400	123160	27185	1011118	41417	109510	0	0	8433	442504	0	0
2024-06-05 17:58:32			0	40958	0	0	0	25675	24390	123260	27327	1011092	41416	109500	0	0	8431	443528	0	0
2024-06-05 17:59:32			0	40956	0	0	0	25672	24370	123516	27246	1011040	41414	109499	0	0	8431	443647	0	0
2024-06-05 18:00:32			0	40906	0	0	0	25664	24360	123592	27036	1010988	41423	109496	0	0	8429	445399	0	0
2024-06-05 18:01:32			0	40866	0	0	0	25677	24350	123676	27248	1010952	41422	109501	0	0	8426	446808	0	0
2024-06-05 18:02:32			0	40853	0	0	0	25690	24340	123788	27020	1011016	41422	109506	0	0	8425	447284	0	0
2024-06-05 18:03:32			0	40847	0	0	0	25693	24340	123728	27133	1010962	41433	109507	0	0	8425	447492	0	0
2024-06-05 18:04:32			0	40881	0	0	0	25696	24340	123652	27303	1010962	41422	109508	0	0	8427	446314	0	0
2024-06-05 18:05:32			0	40899	0	0	0	25701	24340	123620	27083	1011007	41433	109510	0	0	8428	445692	0	0
2024-06-05 18:06:32			0	40954	0	0	0	25698	24330	123444	27261	1010918	41432	109509	0	0	8431	443817	0	0
2024-06-05 18:07:32			0	41013	0	0	0	25685	24330	123324	27298	1010830	41442	109504	0	0	8434	441783	0	0
2024-06-05 18:08:32			0	41064	0	0	0	25657	24320	123256	27140	1010794	41420	109493	0	0	8437	440054	0	0
2024-06-05 18:09:32			0	41075	0	0	0	25633	24310	123112	27727	1010697	41419	109484	0	0	8438	439701	0	0
2024-06-05 18:10:32			0	41105	0	0	0	25628	24290	123052	27154	1010644	41417	109482	0	0	8440	438721	0	0
2024-06-05 18:11:32			0	41136	0	0	0	25620	24280	123000	27232	1010627	41395	109479	0	0	8441	437683	0	0
2024-06-05 18:12:32			0	41140	0	0	0	25607	24260	122940	27211	1010584	41392	109474	0	0	8442	437595	0	0
2024-06-05 18:13:32			0	41155	0	0	0	25586	24250	122968	27305	1010549	41403	109466	0	0	8443	437106	0	0
2024-06-05 18:14:32			0	41106	0	0	0	25586	24250	123036	27119	1010522	41415	109466	0	0	8440	438786	0	0
2024-06-05 18:15:32			0	41127	0	0	0	25566	24240	123004	27149	1010425	41402	109458	0	0	8442	438090	0	0
2024-06-05 18:16:32			0	41126	0	0	0	25581	24230	123056	27334	1010488	41401	109464	0	0	8441	438149	0	0
2024-06-05 18:17:32			0	41143	0	0	0	25563	24220	123048	27206	1010391	41412	109457	0	0	8442	437591	0	0
2024-06-05 18:18:32			0	41157	0	0	0	25566	24210	122988	27407	1010320	41410	109458	0	0	8443	437136	0	0
2024-06-05 18:19:32			0	41166	0	0	0	25558	24210	122916	27072	1010339	41410	109455	0	0	8444	436828	0	0
2024-06-05 18:20:32			0	41160	0	0	0	25563	24210	122940	27246	1010294	41410	109457	0	0	8443	437033	0	0
2024-06-05 18:21:32			0	41205	0	0	0	25566	24200	122852	27196	1010295	41409	109458	0	0	8445	435518	0	0
2024-06-05 18:22:32			0	41209	0	0	0	25558	24180	122836	27038	1010269	41408	109455	0	0	8446	435431	0	0
2024-06-05 18:23:32			0	41234	0	0	0	25558	24190	122840	27284	1010259	41419	109455	0	0	8447	434552	0	0
2024-06-05 18:24:32			0	41232	0	0	0	25558	24180	122788	27400	1010269	41397	109455	0	0	8447	434645	0	0
2024-06-05 18:25:32			0	41243	0	0	0	25566	24180	122820	26963	1010314	41407	109458	0	0	8447	434269	0	0
2024-06-05 18:26:32			0	41259	0	0	0	25566	24180	122776	27062	1010314	41396	109458	0	0	8448	433723	0	0
2024-06-05 18:27:32			0	41266	0	0	0	25573	24180	122720	27291	1010260	41418	109461	0	0	8449	433484	0	0
2024-06-05 18:28:32			0	41246	0	0	0	25573	24170	122680	27046	1010278	41417	109461	0	0	8447	434191	0	0
2024-06-05 18:29:32			0	41271	0	0	0	25576	24170	122640	27137	1010297	41417	109462	0	0	8449	433338	0	0
2024-06-05 18:30:32			0	41271	0	0	0	25581	24180	122716	27377	1010287	41407	109464	0	0	8449	433314	0	0
2024-06-05 18:31:32			0	41282	0	0	0	25581	24170	122572	27013	1010332	41406	109464	0	0	8449	432963	0	0
2024-06-05 18:32:32			0	41312	0	0	0	25581	24180	122580	27145	1010287	41418	109464	0	0	8451	431917	0	0
2024-06-05 18:33:32			0	41317	0	0	0	25586	24180	122516	27194	1010314	41429	109466	0	0	8451	431747	0	0
2024-06-05 18:34:32			0	41316	0	0	0	25586	24180	122516	27222	1010322	41408	109466	0	0	8451	431781	0	0
2024-06-05 18:35:32			0	41329	0	0	0	25584	24180	122544	27050	1010296	41419	109465	0	0	8452	431338	0	0
2024-06-05 18:36:32			0	41316	0	0	0	25584	24180	122536	27020	1010314	41407	109465	0	0	8451	431781	0	0
2024-06-05 18:37:32			0	41313	0	0	0	25579	24180	122476	27168	1010260	41418	109463	0	0	8451	431883	0	0
2024-06-05 18:38:32			0	41300	0	0	0	25576	24170	122560	27410	1010332	41406	109462	0	0	8450	432350	0	0
2024-06-05 18:39:32			0	41313	0	0	0	25571	24170	122616	27396	1010278	41417	109460	0	0	8451	431907	0	0
2024-06-05 18:40:32			0	41310	0	0	0	25566	24170	122528	27116	1010297	41417	109458	0	0	8451	432009	0	0
2024-06-05 18:41:32			0	41328	0	0	0	25563	24160	122576	27062	1010315	41406	109457	0	0	8452	431421	0	0
2024-06-05 18:42:32			0	41321	0	0	0	25553	24180	122524	27216	1010234	41418	109453	0	0	8452	431610	0	0
2024-06-05 18:43:32			0	41317	0	0	0	25558	24160	122536	27144	1010208	41416	109455	0	0	8451	431795	0	0
2024-06-05 18:44:32			0	41343	0	0	0	25542	24170	122568	27277	1010243	41428	109449	0	0	8453	430886	0	0
2024-06-05 18:45:32			0	41306	0	0	0	25545	24160	122588	27114	1010261	41416	109450	0	0	8451	432170	0	0
2024-06-05 18:46:32			0	41316	0	0	0	25548	24160	122628	26861	1010199	41416	109451	0	0	8452	431829	0	0
2024-06-05 18:47:32			0	41328	0	0	0	25540	24160	122548	26866	1010235	41406	109448	0	0	8452	431421	0	0
2024-06-05 18:48:32			0	41319	0	0	0	25537	24160	122584	27090	1010235	41416	109447	0	0	8452	431727	0	0
2024-06-05 18:49:32			0	41297	0	0	0	25529	24150	122576	26963	1010137	41405	109444	0	0	8451	432501	0	0
2024-06-05 18:50:32			0	41286	0	0	0	25529	24150	122608	27175	1010129	41405	109444	0	0	8450	432876	0	0
2024-06-05 18:51:32			0	41275	0	0	0	25532	24150	122672	27234	1010156	41405	109445	0	0	8450	433251	0	0
2024-06-05 18:52:32			0	41284	0	0	0	25529	24150	122736	27369	1010164	41416	109444	0	0	8450	432944	0	0
2024-06-05 18:53:32			0	41274	0	0	0	25532	24140	122772	27405	1010112	41415	109445	0	0	8449	433309	0	0
2024-06-05 18:54:32			0	41260	0	0	0	25522	24140	122796	26972	1010120	41404	109441	0	0	8449	433787	0	0
2024-06-05 18:55:32			0	41274	0	0	0	25519	24130	122768	27137	1010077	41403	109440	0	0	8450	433334	0	0
2024-06-05 18:56:32			0	41266	0	0	0	25519	24140	122776	27514	1010085	41425	109440	0	0	8449	433582	0	0
2024-06-05 18:57:32			0	41280	0	0	0	25532	24140	122680	27282	1010112	41404	109445	0	0	8450	433105	0	0
2024-06-05 18:58:32			0	41272	0	0	0	25527	24130	122788	27223	1010095	41413	109443	0	0	8449	433402	0	0
2024-06-05 18:59:32			0	41263	0	0	0	25529	24140	122732	27216	1010139	41404	109444	0	0	8449	433685	0	0
2024-06-05 19:00:32			0	41287	0	0	0	25514	24130	122692	27377	1010103	41424	109438	0	0	8450	432890	0	0
2024-06-05 19:01:32			0	41261	0	0	0	25540	24140	122688	27140	1010139	41415	109448	0	0	8449	433753	0	0
2024-06-05 19:02:32			0	41272	0	0	0	25532	24130	122732	27123	1010148	41402	109445	0	0	8449	433402	0	0
2024-06-05 19:03:32			0	41269	0	0	0	25545	24120	122728	27518	1010113	41424	109450	0	0	8449	433529	0	0
2024-06-05 19:04:32			0	41269	0	0	0	25537	24130	122656	27364	1010157	41392	109447	0	0	8449	433504	0	0
2024-06-05 19:05:32			0	41282	0	0	0	25545	24140	122772	27166	1010139	41425	109450	0	0	8450	433036	0	0
2024-06-05 19:06:32			0	41304	0	0	0	25548	24140	122684	27279	1010139	41415	109451	0	0	8451	432287	0	0
2024-06-05 19:07:32			0	41301	0	0	0	25545	24150	122640	27332	1010156	41416	109450	0	0	8451	432365	0	0
2024-06-05 19:08:32			0	41309	0	0	0	25550	24140	122596	27225	1010139	41425	109452	0	0	8451	432117	0	0
2024-06-05 19:09:32			0	41317	0	0	0	25542	24140	122532	27305	1010165	41425	109449	0	0	8452	431844	0	0
2024-06-05 19:10:32			0	41345	0	0	0	25550	24140	122532	27013	1010165	41425	109452	0	0	8453	430891	0	0
2024-06-05 19:11:32			0	41365	0	0	0	25548	24150	122452	27562	1010156	41416	109451	0	0	8454	430187	0	0
2024-06-05 19:12:32			0	41350	0	0	0	25555	24150	122448	27326	1010129	41405	109454	0	0	8453	430697	0	0
2024-06-05 19:13:32			0	41389	0	0	0	25550	24140	122432	27353	1010120	41415	109452	0	0	8455	429396	0	0
2024-06-05 19:14:32			0	41385	0	0	0	25548	24140	122420	27135	1010165	41425	109451	0	0	8455	429532	0	0
2024-06-05 19:15:32			0	41425	0	0	0	25553	24140	122360	26892	1010201	41425	109453	0	0	8457	428175	0	0
2024-06-05 19:16:32			0	41425	0	0	0	25558	24150	122277	27107	1010209	41426	109455	0	0	8457	428151	0	0
2024-06-05 19:17:32			0	41435	0	0	0	25561	24140	122277	26847	1010165	41415	109456	0	0	8458	427836	0	0
2024-06-05 19:18:32			0	41438	0	0	0	25561	24150	122225	27222	1010209	41405	109456	0	0	8458	427710	0	0
2024-06-05 19:19:32			0	41461	0	0	0	25553	24140	122265	27085	1010174	41425	109453	0	0	8459	426955	0	0
2024-06-05 19:20:32			0	41477	0	0	0	25558	24140	122241	26845	1010174	41415	109455	0	0	8460	426414	0	0
2024-06-05 19:21:32			0	41461	0	0	0	25555	24150	122165	27440	1010236	41416	109454	0	0	8459	426931	0	0
2024-06-05 19:22:32			0	41479	0	0	0	25558	24140	122189	27019	1010120	41425	109455	0	0	8460	426346	0	0
2024-06-05 19:23:32			0	41468	0	0	0	25558	24140	122225	27500	1010219	41425	109455	0	0	8459	426718	0	0
2024-06-05 19:24:32			0	41475	0	0	0	25568	24140	122169	27473	1010139	41425	109459	0	0	8460	426481	0	0
2024-06-05 19:25:32			0	41472	0	0	0	25555	24140	122169	27206	1010201	41425	109454	0	0	8460	426583	0	0
2024-06-05 19:26:32			0	41468	0	0	0	25553	24140	122193	27421	1010174	41415	109453	0	0	8459	426718	0	0
2024-06-05 19:27:32			0	41445	0	0	0	25558	24150	122205	27225	1010156	41426	109455	0	0	8458	427473	0	0
2024-06-05 19:28:32			0	41453	0	0	0	25561	24140	122241	27478	1010227	41437	109456	0	0	8458	427226	0	0
2024-06-05 19:29:32			0	41481	0	0	0	25558	24160	122181	27454	1010199	41416	109455	0	0	8460	426230	0	0
2024-06-05 19:30:32			0	41458	0	0	0	25561	24140	122101	27447	1010174	41425	109456	0	0	8459	427057	0	0
2024-06-05 19:31:32			0	41482	0	0	0	25561	24140	122173	27277	1010174	41425	109456	0	0	8460	426245	0	0
2024-06-05 19:32:32			0	41492	0	0	0	25566	24140	122153	27422	1010201	41425	109458	0	0	8460	425906	0	0
2024-06-05 19:33:32			0	41477	0	0	0	25568	24150	122181	27241	1010209	41405	109459	0	0	8460	426390	0	0
2024-06-05 19:34:32			0	41488	0	0	0	25553	24150	122165	27024	1010182	41405	109453	0	0	8460	426018	0	0
2024-06-05 19:35:32			0	41482	0	0	0	25558	24140	122177	27398	1010174	41415	109455	0	0	8460	426245	0	0
2024-06-05 19:36:32			0	41500	0	0	0	25555	24150	122129	27216	1010182	41416	109454	0	0	8461	425612	0	0
2024-06-05 19:37:32			0	41489	0	0	0	25553	24140	122145	27312	1010165	41425	109453	0	0	8461	426008	0	0
2024-06-05 19:38:32			0	41491	0	0	0	25548	24140	122173	27282	1010192	41425	109451	0	0	8461	425940	0	0
2024-06-05 19:39:32			0	41486	0	0	0	25548	24150	122177	26984	1010182	41426	109451	0	0	8460	426085	0	0
2024-06-05 19:40:32			0	41500	0	0	0	25555	24140	122125	27088	1010192	41415	109454	0	0	8461	425636	0	0
2024-06-05 19:41:32			0	41516	0	0	0	25550	24140	122165	27078	1010165	41415	109452	0	0	8462	425095	0	0
2024-06-05 19:42:32			0	41525	0	0	0	25542	24140	122065	27055	1010139	41415	109449	0	0	8463	424791	0	0
2024-06-05 19:43:32			0	41508	0	0	0	25550	24140	122073	27098	1010147	41415	109452	0	0	8462	425366	0	0
2024-06-05 19:44:32			0	41511	0	0	0	25550	24140	122089	27161	1010139	41425	109452	0	0	8462	425264	0	0
2024-06-05 19:45:32			0	41541	0	0	0	25545	24140	122097	26967	1010165	41425	109450	0	0	8463	424251	0	0
2024-06-05 19:46:32			0	41535	0	0	0	25545	24140	122005	27241	1010165	41437	109450	0	0	8463	424454	0	0
2024-06-05 19:47:32			0	41556	0	0	0	25550	24130	122093	26719	1010103	41436	109452	0	0	8464	423769	0	0
2024-06-05 19:48:32			0	41546	0	0	0	25545	24130	122005	27218	1010157	41424	109450	0	0	8464	424106	0	0
2024-06-05 19:49:32			0	41537	0	0	0	25545	24140	122069	26842	1010139	41415	109450	0	0	8463	424386	0	0
2024-06-05 19:50:32			0	41560	0	0	0	25540	24140	122085	27353	1010165	41415	109448	0	0	8464	423610	0	0
2024-06-05 19:51:32			0	41550	0	0	0	25542	24130	121945	27320	1010157	41424	109449	0	0	8464	423972	0	0
2024-06-05 19:52:32			0	41534	0	0	0	25537	24130	121965	27393	1010148	41424	109447	0	0	8463	424512	0	0
2024-06-05 19:53:32			0	41562	0	0	0	25535	24120	121925	27024	1010140	41413	109446	0	0	8465	423591	0	0
2024-06-05 19:54:32			0	41580	0	0	0	25532	24120	121925	27140	1010024	41424	109445	0	0	8466	422984	0	0
2024-06-05 19:55:32			0	41574	0	0	0	25540	24130	121909	27105	1010121	41424	109448	0	0	8465	423162	0	0
2024-06-05 19:56:32			0	41570	0	0	0	25532	24120	121901	27265	1010078	41413	109445	0	0	8465	423321	0	0
2024-06-05 19:57:32			0	41589	0	0	0	25540	24120	121905	27258	1010104	41424	109448	0	0	8466	422681	0	0
2024-06-05 19:58:32			0	41574	0	0	0	25535	24120	121937	26963	1010086	41435	109446	0	0	8465	423186	0	0
2024-06-05 19:59:32			0	41586	0	0	0	25537	24130	121861	26859	1010068	41424	109447	0	0	8466	422758	0	0
2024-06-05 20:00:32			0	41595	0	0	0	25532	24120	121889	27026	1010078	41424	109445	0	0	8466	422479	0	0
2024-06-05 20:01:32			0	41597	0	0	0	25532	24120	121921	27066	1010060	41424	109445	0	0	8467	422411	0	0
2024-06-05 20:02:32			0	41609	0	0	0	25537	24110	121929	27152	1010069	41423	109447	0	0	8467	422031	0	0
2024-06-05 20:03:32			0	41603	0	0	0	25535	24120	121861	27242	1010086	41413	109446	0	0	8467	422209	0	0
2024-06-05 20:04:32			0	41612	0	0	0	25532	24130	121817	26823	1010068	41424	109445	0	0	8467	421883	0	0
2024-06-05 20:05:32			0	41599	0	0	0	25535	24120	121829	27436	1010024	41424	109446	0	0	8467	422344	0	0
2024-06-05 20:06:32			0	41592	0	0	0	25535	24110	121757	26967	1010016	41423	109446	0	0	8466	422604	0	0
2024-06-05 20:07:32			0	41582	0	0	0	25519	24120	121881	27069	1010086	41413	109440	0	0	8466	422917	0	0
2024-06-05 20:08:32			0	41623	0	0	0	25529	24120	121861	27176	1009998	41424	109444	0	0	8468	421536	0	0
2024-06-05 20:09:32			0	41586	0	0	0	25529	24120	121821	27353	1010051	41435	109444	0	0	8466	422782	0	0
2024-06-05 20:10:32			0	41590	0	0	0	25527	24110	121885	27303	1010042	41423	109443	0	0	8466	422671	0	0
2024-06-05 20:11:32			0	41590	0	0	0	25522	24120	121837	27251	1010078	41424	109441	0	0	8466	422647	0	0
2024-06-05 20:12:32			0	41595	0	0	0	25522	24120	121885	26951	1010051	41424	109441	0	0	8467	422479	0	0
2024-06-05 20:13:32			0	41596	0	0	0	25509	24110	121869	27225	1009927	41411	109436	0	0	8467	422469	0	0
2024-06-05 20:14:32			0	41589	0	0	0	25475	24110	121817	27319	1009882	41423	109423	0	0	8467	422705	0	0
2024-06-05 20:15:32			0	41606	0	0	0	25436	24090	121797	27178	1009706	41387	109408	0	0	8468	422180	0	0
2024-06-05 20:16:32			0	41641	0	0	0	25368	24050	121829	27222	1009459	41383	109382	0	0	8471	421097	0	0
2024-06-05 20:17:32			0	41670	0	0	0	25303	24020	121705	27130	1009309	41382	109357	0	0	8474	420194	0	0
2024-06-05 20:18:32			0	41742	0	0	0	25264	24010	121481	27239	1009239	41370	109342	0	0	8478	417801	0	0
2024-06-05 20:19:32			0	41798	0	0	0	25218	23990	121353	27196	1009116	41378	109324	0	0	8482	415974	0	0
2024-06-05 20:20:32			0	41857	0	0	0	25189	23960	121201	27227	1008940	41375	109313	0	0	8486	414074	0	0
2024-06-05 20:21:32			0	41930	0	0	0	25158	23930	120973	27059	1008808	41351	109301	0	0	8490	411711	0	0
2024-06-05 20:22:32			0	42020	0	0	0	25124	23910	120737	27241	1008605	41349	109288	0	0	8495	408767	0	0
2024-06-05 20:23:32			0	42105	0	0	0	25080	23870	120510	27334	1008465	41357	109271	0	0	8500	406044	0	0
2024-06-05 20:24:32			0	42194	0	0	0	25041	23840	120334	27481	1008245	41332	109256	0	0	8506	403175	0	0
2024-06-05 20:25:32			0	42272	0	0	0	25028	23800	120150	27175	1008159	41329	109251	0	0	8510	400699	0	0
2024-06-05 20:26:32			0	42291	0	0	0	25010	23780	120010	27229	1008116	41337	109244	0	0	8511	400120	0	0
2024-06-05 20:27:32			0	42284	0	0	0	24992	23750	120134	27190	1007913	41345	109237	0	0	8511	400417	0	0
2024-06-05 20:28:32			0	42299	0	0	0	24986	23720	120114	27019	1007897	41354	109235	0	0	8512	399992	0	0
2024-06-05 20:29:32			0	42239	0	0	0	24974	23700	120294	26998	1007908	41363	109230	0	0	8509	402010	0	0
2024-06-05 20:30:32			0	42150	0	0	0	24979	23690	120506	27062	1007838	41351	109232	0	0	8504	404968	0	0
2024-06-05 20:31:32			0	42012	0	0	0	24979	23680	120881	27556	1007909	41350	109232	0	0	8496	409563	0	0
2024-06-05 20:32:32			0	41821	0	0	0	25005	23680	121445	27123	1007901	41349	109242	0	0	8486	415931	0	0
2024-06-05 20:33:32			0	41611	0	0	0	25010	23690	121929	27222	1008078	41384	109244	0	0	8474	422963	0	0
2024-06-05 20:34:32			0	41393	0	0	0	25041	23690	122628	27201	1008194	41384	109256	0	0	8462	430350	0	0
2024-06-05 20:35:32			0	41196	0	0	0	25070	23720	123128	27296	1008343	41386	109267	0	0	8452	437007	0	0
2024-06-05 20:36:32			0	40996	0	0	0	25109	23740	123724	27317	1008511	41377	109282	0	0	8440	443843	0	0
2024-06-05 20:37:32			0	40827	0	0	0	25153	23750	124188	27268	1008554	41401	109299	0	0	8431	449679	0	0
2024-06-05 20:38:32			0	40694	0	0	0	25205	23780	124571	27133	1008606	41381	109319	0	0	8423	454243	0	0
2024-06-05 20:39:32			0	40569	0	0	0	25244	23790	124903	27097	1008774	41392	109334	0	0	8416	458600	0	0
2024-06-05 20:40:32			0	40469	0	0	0	25277	23800	125279	27196	1008800	41406	109347	0	0	8410	462097	0	0
2024-06-05 20:41:32			0	40407	0	0	0	25309	23830	125415	27286	1008950	41397	109359	0	0	8407	464210	0	0
2024-06-05 20:42:32			0	40317	0	0	0	25332	23840	125579	27438	1009020	41375	109368	0	0	8402	467374	0	0
2024-06-05 20:43:32			0	40275	0	0	0	25348	23860	125675	27118	1009028	41411	109374	0	0	8399	468814	0	0
2024-06-05 20:44:32			0	40253	0	0	0	25368	23870	125783	27331	1009151	41401	109382	0	0	8398	469570	0	0
2024-06-05 20:45:32			0	40226	0	0	0	25384	23890	125831	27154	1009239	41392	109388	0	0	8396	470479	0	0
2024-06-05 20:46:32			0	40231	0	0	0	25397	23890	125859	27322	1009301	41425	109393	0	0	8396	470301	0	0
2024-06-05 20:47:32			0	40227	0	0	0	25407	23900	125847	27064	1009291	41404	109397	0	0	8396	470417	0	0
2024-06-05 20:48:32			0	40229	0	0	0	25423	23920	125951	27547	1009370	41416	109403	0	0	8396	470293	0	0
2024-06-05 20:49:32			0	40221	0	0	0	25431	23930	125939	26991	1009396	41407	109406	0	0	8395	470551	0	0
2024-06-05 20:50:32			0	40255	0	0	0	25438	23950	125839	27145	1009502	41397	109409	0	0	8397	469287	0	0
2024-06-05 20:51:32			0	40248	0	0	0	25444	23950	125775	27137	1009502	41408	109411	0	0	8397	469537	0	0
2024-06-05 20:52:32			0	40273	0	0	0	25451	23960	125727	27168	1009554	41409	109414	0	0	8398	468621	0	0
2024-06-05 20:53:32			0	40317	0	0	0	25449	23970	125563	27462	1009589	41410	109413	0	0	8400	467032	0	0
2024-06-05 20:54:32			0	40382	0	0	0	25472	23980	125403	27348	1009588	41411	109422	0	0	8403	464702	0	0
2024-06-05 20:55:32			0	40450	0	0	0	25472	23990	125151	27097	1009597	41422	109422	0	0	8407	462273	0	0
2024-06-05 20:56:32			0	40519	0	0	0	25467	24000	125043	27203	1009641	41423	109420	0	0	8410	459816	0	0
2024-06-05 20:57:32			0	40594	0	0	0	25470	23990	124683	27346	1009659	41423	109421	0	0	8414	457206	0	0
2024-06-05 20:58:32			0	40673	0	0	0	25467	24010	124491	27358	1009684	41435	109420	0	0	8419	454388	0	0
2024-06-05 20:59:32			0	40734	0	0	0	25470	24010	124355	27177	1009666	41415	109421	0	0	8422	452258	0	0
2024-06-05 21:00:32			0	40798	0	0	0	25467	24010	124116	27327	1009693	41425	109420	0	0	8425	450029	0	0
2024-06-05 21:01:32			0	40858	0	0	0	25477	24020	123976	27327	1009683	41426	109424	0	0	8428	447919	0	0
2024-06-05 21:02:32			0	40898	0	0	0	25475	24020	123808	27419	1009763	41416	109423	0	0	8430	446532	0	0
2024-06-05 21:03:32			0	40908	0	0	0	25480	24030	123824	27348	1009781	41416	109425	0	0	8431	446160	0	0
2024-06-05 21:04:32			0	40924	0	0	0	25475	24030	123780	27431	1009807	41416	109423	0	0	8432	445606	0	0
2024-06-05 21:05:32			0	40915	0	0	0	25477	24030	123768	27277	1009719	41416	109424	0	0	8431	445918	0	0
2024-06-05 21:06:32			0	40912	0	0	0	25467	24030	123792	27282	1009781	41405	109420	0	0	8431	446022	0	0
2024-06-05 21:07:32			0	40904	0	0	0	25446	24050	123872	27005	1009771	41416	109412	0	0	8431	446248	0	0
2024-06-05 21:08:32			0	40906	0	0	0	25425	24030	123876	27177	1009674	41405	109404	0	0	8432	446229	0	0
2024-06-05 21:09:32			0	40917	0	0	0	25361	24030	123868	26991	1009478	41393	109379	0	0	8433	445849	0	0
2024-06-05 21:10:32			0	40891	0	0	0	25270	24000	123856	27277	1009329	41380	109344	0	0	8433	446825	0	0
2024-06-05 21:11:32			0	40901	0	0	0	25179	23990	123764	27289	1009089	41368	109309	0	0	8435	446503	0	0
2024-06-05 21:12:32			0	40934	0	0	0	25093	23960	123812	27157	1009011	41365	109276	0	0	8438	445436	0	0
2024-06-05 21:13:32			0	40921	0	0	0	25041	23940	123740	27293	1008924	41352	109256	0	0	8438	445936	0	0
2024-06-05 21:14:32			0	40996	0	0	0	25036	23920	123676	27223	1008951	41361	109254	0	0	8442	443393	0	0
2024-06-05 21:15:32			0	41033	0	0	0	25090	23930	123548	27326	1009067	41374	109275	0	0	8443	442091	0	0
2024-06-05 21:16:32			0	41032	0	0	0	25153	23930	123444	27274	1009147	41384	109299	0	0	8442	442126	0	0
2024-06-05 21:17:32			0	41054	0	0	0	25236	23930	123368	27244	1009254	41384	109331	0	0	8442	441368	0	0
2024-06-05 21:18:32			0	41040	0	0	0	25280	23950	123348	27301	1009395	41397	109348	0	0	8441	441800	0	0
2024-06-05 21:19:32			0	41035	0	0	0	25309	23950	123464	27289	1009404	41398	109359	0	0	8440	441973	0	0
2024-06-05 21:20:32			0	41030	0	0	0	25275	23960	123456	27135	1009340	41409	109346	0	0	8440	442120	0	0
2024-06-05 21:21:32			0	41055	0	0	0	25166	23940	123460	27189	1008825	41341	109304	0	0	8443	441309	0	0
2024-06-05 21:22:32			0	41054	0	0	0	25041	23890	123476	27322	1008286	41303	109256	0	0	8445	441467	0	0
2024-06-05 21:23:32			0	40999	0	0	0	24911	23810	123572	26986	1007802	41274	109206	0	0	8444	443564	0	0
2024-06-05 21:24:32			0	40970	0	0	0	24805	23750	123716	27374	1007371	41290	109165	0	0	8444	444717	0	0
2024-06-05 21:25:32			0	40847	0	0	0	24722	23670	123984	27327	1007118	41272	109133	0	0	8439	449185	0	0
2024-06-05 21:26:32			0	40647	0	0	0	24670	23620	124659	27287	1006846	41268	109113	0	0	8429	456299	0	0
2024-06-05 21:27:32			0	40330	0	0	0	24605	23570	125499	27209	1006618	41262	109088	0	0	8413	467622	0	0
2024-06-05 21:28:32			0	40024	0	0	0	24548	23510	126430	27201	1006382	41267	109066	0	0	8398	478730	0	0
2024-06-05 21:29:32			0	39771	0	0	0	24483	23460	127354	26909	1006190	41252	109041	0	0	8386	488026	0	0
2024-06-05 21:30:32			0	39481	0	0	0	24436	23400	128174	27265	1005963	41258	109023	0	0	8372	498816	0	0
2024-06-05 21:31:32			0	39275	0	0	0	24412	23370	128805	27138	1006161	41278	109014	0	0	8361	506529	0	0
2024-06-05 21:32:32			0	39083	0	0	0	24472	23380	129417	27322	1006596	41333	109037	0	0	8350	513670	0	0
2024-06-05 21:33:32			0	38950	0	0	0	24537	23410	129945	27126	1006834	41358	109062	0	0	8342	518585	0	0
2024-06-05 21:34:32			0	38806	0	0	0	24586	23440	130333	27490	1006948	41350	109081	0	0	8334	523943	0	0
2024-06-05 21:35:32			0	38666	0	0	0	24610	23470	130716	27312	1007017	41331	109090	0	0	8327	529182	0	0
2024-06-05 21:36:32			0	38570	0	0	0	24610	23480	131004	27267	1006812	41287	109090	0	0	8322	532823	0	0
2024-06-05 21:37:32			0	38470	0	0	0	24594	23460	131428	27301	1006831	41286	109084	0	0	8317	536724	0	0
2024-06-05 21:38:32			0	38363	0	0	0	24610	23470	131752	27327	1006990	41297	109090	0	0	8311	540822	0	0
2024-06-05 21:39:32			0	38244	0	0	0	24633	23480	132088	27208	1007079	41309	109099	0	0	8305	545406	0	0
2024-06-05 21:40:32			0	38180	0	0	0	24659	23490	132392	27379	1007149	41310	109109	0	0	8301	547866	0	0
2024-06-05 21:41:32			0	38099	0	0	0	24651	23490	132624	27393	1007158	41299	109106	0	0	8297	551030	0	0
2024-06-05 21:42:32			0	38018	0	0	0	24638	23500	132851	27452	1007068	41267	109101	0	0	8293	554173	0	0
2024-06-05 21:43:32			0	37964	0	0	0	24623	23480	133091	27308	1006847	41254	109095	0	0	8290	556359	0	0
2024-06-05 21:44:32			0	37900	0	0	0	24620	23470	133259	27467	1006902	41253	109094	0	0	8287	558913	0	0
2024-06-05 21:45:32			0	37850	0	0	0	24646	23460	133387	27358	1006804	41263	109104	0	0	8284	560921	0	0
2024-06-05 21:46:32			0	37825	0	0	0	24644	23430	133623	27345	1006637	41261	109103	0	0	8282	562005	0	0
2024-06-05 21:47:32			0	37772	0	0	0	24633	23410	133683	27313	1006487	41248	109099	0	0	8280	564171	0	0
2024-06-05 21:48:32			0	37747	0	0	0	24615	23380	133879	27235	1006391	41256	109092	0	0	8279	565260	0	0
2024-06-05 21:49:32			0	37717	0	0	0	24586	23360	134047	27429	1006197	41244	109081	0	0	8278	566518	0	0
2024-06-05 21:50:32			0	37695	0	0	0	24550	23320	134043	27445	1005969	41262	109067	0	0	8277	567522	0	0
2024-06-05 21:51:32			0	37697	0	0	0	24535	23300	134123	27064	1005900	41259	109061	0	0	8277	567506	0	0
2024-06-05 21:52:32			0	37671	0	0	0	24511	23270	134195	27286	1005857	41268	109052	0	0	8276	568639	0	0
2024-06-05 21:53:32			0	37649	0	0	0	24488	23260	134287	27029	1005778	41255	109043	0	0	8275	569550	0	0
2024-06-05 21:54:32			0	37630	0	0	0	24475	23240	134347	27313	1005664	41254	109038	0	0	8274	570374	0	0
2024-06-05 21:55:32			0	37633	0	0	0	24457	23220	134435	27144	1005585	41264	109031	0	0	8275	570318	0	0
2024-06-05 21:56:32			0	37623	0	0	0	24451	23200	134495	27192	1005524	41261	109029	0	0	8274	570782	0	0
2024-06-05 21:57:32			0	37603	0	0	0	24433	23190	134463	27272	1005454	41272	109022	0	0	8274	571615	0	0
2024-06-05 21:58:32			0	37581	0	0	0	24407	23160	134523	27341	1005323	41247	109012	0	0	8273	572594	0	0
2024-06-05 21:59:32			0	37597	0	0	0	24386	23130	134587	27313	1005173	41255	109004	0	0	8274	572048	0	0
2024-06-05 22:00:32			0	37589	0	0	0	24376	23110	134523	27346	1005220	41253	109000	0	0	8273	572433	0	0
2024-06-05 22:01:32			0	37583	0	0	0	24345	23100	134551	27332	1005123	41252	108988	0	0	8274	572706	0	0
2024-06-05 22:02:32			0	37575	0	0	0	24337	23080	134675	27386	1005008	41251	108985	0	0	8273	573091	0	0
2024-06-05 22:03:32			0	37566	0	0	0	24319	23060	134519	27319	1004992	41259	108978	0	0	8273	573517	0	0
2024-06-05 22:04:32			0	37575	0	0	0	24314	23050	134683	27206	1004957	41258	108976	0	0	8273	573188	0	0
2024-06-05 22:05:32			0	37561	0	0	0	24311	23050	134731	27144	1004922	41281	108975	0	0	8273	573750	0	0
2024-06-05 22:06:32			0	37561	0	0	0	24311	23040	134627	27220	1004878	41247	108975	0	0	8273	573782	0	0
2024-06-05 22:07:32			0	37584	0	0	0	24293	23030	134627	27251	1004808	41246	108968	0	0	8274	572891	0	0
2024-06-05 22:08:32			0	37582	0	0	0	24272	23010	134615	27222	1004782	41255	108960	0	0	8274	573035	0	0
2024-06-05 22:09:32			0	37579	0	0	0	24267	23000	134599	27403	1004712	41244	108958	0	0	8274	573188	0	0
2024-06-05 22:10:32			0	37604	0	0	0	24246	22980	134543	26986	1004678	41230	108950	0	0	8276	572249	0	0
2024-06-05 22:11:32			0	37614	0	0	0	24251	22970	134531	27254	1004688	41251	108952	0	0	8276	571880	0	0
2024-06-05 22:12:32			0	37635	0	0	0	24262	22960	134495	27587	1004591	41250	108956	0	0	8277	571070	0	0
2024-06-05 22:13:32			0	37667	0	0	0	24264	22960	134483	27326	1004644	41250	108957	0	0	8279	569789	0	0
2024-06-05 22:14:32			0	37688	0	0	0	24267	22960	134403	27187	1004671	41250	108958	0	0	8280	568949	0	0
2024-06-05 22:15:32			0	37681	0	0	0	24275	22950	134335	27334	1004707	41250	108961	0	0	8279	569261	0	0
2024-06-05 22:16:32			0	37700	0	0	0	24290	22950	134355	27114	1004672	41249	108967	0	0	8280	568501	0	0
2024-06-05 22:17:32			0	37716	0	0	0	24298	22950	134271	27365	1004654	41261	108970	0	0	8281	567862	0	0
2024-06-05 22:18:32			0	37741	0	0	0	24290	22960	134203	27170	1004716	41272	108967	0	0	8282	566833	0	0
2024-06-05 22:19:32			0	37745	0	0	0	24303	22970	134175	27138	1004821	41251	108972	0	0	8282	566642	0	0
2024-06-05 22:20:32			0	37759	0	0	0	24298	22970	134063	27154	1004733	41274	108970	0	0	8283	566084	0	0
2024-06-05 22:21:32			0	37780	0	0	0	24293	22960	133999	27182	1004689	41261	108968	0	0	8284	565279	0	0
2024-06-05 22:22:32			0	37797	0	0	0	24288	22960	133967	27124	1004724	41273	108966	0	0	8285	564603	0	0
2024-06-05 22:23:32			0	37788	0	0	0	24309	22990	133931	27005	1004873	41276	108974	0	0	8284	564866	0	0
2024-06-05 22:24:32			0	37795	0	0	0	24316	22990	133899	27263	1004927	41276	108977	0	0	8285	564588	0	0
2024-06-05 22:25:32			0	37822	0	0	0	24340	22990	133887	27381	1004927	41264	108986	0	0	8286	563514	0	0
2024-06-05 22:26:32			0	37813	0	0	0	24353	23000	133947	27159	1004944	41276	108991	0	0	8285	563840	0	0
2024-06-05 22:27:32			0	37847	0	0	0	24350	23000	133923	27145	1004944	41265	108990	0	0	8287	562490	0	0
2024-06-05 22:28:32			0	37838	0	0	0	24353	23010	133787	27038	1004881	41266	108991	0	0	8286	562816	0	0
2024-06-05 22:29:32			0	37838	0	0	0	24345	23000	133835	27201	1004899	41265	108988	0	0	8286	562847	0	0
2024-06-05 22:30:32			0	37838	0	0	0	24348	23010	133815	27064	1004907	41266	108989	0	0	8286	562816	0	0
2024-06-05 22:31:32			0	37830	0	0	0	24335	23000	133775	27526	1004890	41265	108984	0	0	8286	563165	0	0
2024-06-05 22:32:32			0	37829	0	0	0	24329	23000	133939	27140	1004899	41265	108982	0	0	8286	563205	0	0
2024-06-05 22:33:32			0	37848	0	0	0	24309	23010	133851	27164	1004801	41255	108974	0	0	8288	562419	0	0
2024-06-05 22:34:32			0	37851	0	0	0	24283	23000	133767	27225	1004730	41254	108964	0	0	8288	562331	0	0
2024-06-05 22:35:32			0	37840	0	0	0	24270	22990	133839	27022	1004722	41243	108959	0	0	8288	562799	0	0
2024-06-05 22:36:32			0	37838	0	0	0	24259	22960	133763	27367	1004617	41261	108955	0	0	8288	562973	0	0
2024-06-05 22:37:32			0	37832	0	0	0	24244	22950	133895	27229	1004539	41238	108949	0	0	8288	563243	0	0
2024-06-05 22:38:32			0	37818	0	0	0	24210	22940	133883	27154	1004423	41260	108936	0	0	8287	563831	0	0
2024-06-05 22:39:32			0	37800	0	0	0	24176	22930	133863	27396	1004398	41236	108923	0	0	8287	564578	0	0
2024-06-05 22:40:32			0	37771	0	0	0	24155	22910	133903	27452	1004310	41235	108915	0	0	8286	565796	0	0
2024-06-05 22:41:32			0	37765	0	0	0	24145	22890	134075	27282	1004258	41233	108911	0	0	8286	566099	0	0
2024-06-05 22:42:32			0	37728	0	0	0	24137	22880	134179	27142	1004206	41243	108908	0	0	8284	567606	0	0
2024-06-05 22:43:32			0	37688	0	0	0	24135	22870	134355	27192	1004144	41242	108907	0	0	8282	569236	0	0
2024-06-05 22:44:32			0	37644	0	0	0	24129	22870	134527	27258	1004109	41252	108905	0	0	8279	570997	0	0
2024-06-05 22:45:32			0	37604	0	0	0	24114	22840	134679	27459	1004048	41251	108899	0	0	8278	572698	0	0
2024-06-05 22:46:32			0	37556	0	0	0	24093	22840	134855	27396	1003995	41229	108891	0	0	8275	574627	0	0
2024-06-05 22:47:32			0	37493	0	0	0	24088	22830	134983	27438	1003978	41228	108889	0	0	8272	577198	0	0
2024-06-05 22:48:32			0	37459	0	0	0	24070	22810	135171	27168	1003783	41215	108882	0	0	8271	578636	0	0
2024-06-05 22:49:32			0	37411	0	0	0	24051	22800	135339	27175	1003820	41213	108875	0	0	8268	580611	0	0
2024-06-05 22:50:32			0	37365	0	0	0	24044	22780	135491	27213	1003733	41223	108872	0	0	8266	582542	0	0
2024-06-05 22:51:32			0	37333	0	0	0	24018	22760	135555	27386	1003619	41221	108862	0	0	8265	583907	0	0
2024-06-05 22:52:32			0	37297	0	0	0	23984	22740	135802	27128	1003531	41219	108849	0	0	8263	585438	0	0
2024-06-05 22:53:32			0	37248	0	0	0	23953	22730	135958	27166	1003399	41218	108837	0	0	8261	587469	0	0
2024-06-05 22:54:32			0	37201	0	0	0	23935	22700	136002	27124	1003375	41205	108830	0	0	8259	589490	0	0
2024-06-05 22:55:32			0	37170	0	0	0	23932	22700	136278	27351	1003330	41216	108829	0	0	8257	590759	0	0
2024-06-05 22:56:32			0	37109	0	0	0	23950	22700	136506	27317	1003428	41215	108836	0	0	8254	593263	0	0
2024-06-05 22:57:32			0	37035	0	0	0	23961	22690	136670	26991	1003464	41225	108840	0	0	8250	596343	0	0
2024-06-05 22:58:32			0	36980	0	0	0	23961	22690	136914	27331	1003411	41225	108840	0	0	8247	598614	0	0
2024-06-05 22:59:32			0	36942	0	0	0	23963	22690	137134	27244	1003358	41225	108841	0	0	8245	600187	0	0
2024-06-05 23:00:32			0	36870	0	0	0	23971	22680	137322	27301	1003323	41225	108844	0	0	8241	603208	0	0
2024-06-05 23:01:32			0	36821	0	0	0	23968	22680	137550	27187	1003314	41224	108843	0	0	8238	605247	0	0
2024-06-05 23:02:32			0	36766	0	0	0	23966	22680	137766	27260	1003367	41224	108842	0	0	8236	607542	0	0
2024-06-05 23:03:32			0	36726	0	0	0	23979	22670	137906	27256	1003386	41223	108847	0	0	8233	609248	0	0
2024-06-05 23:04:32			0	36697	0	0	0	23984	22670	138050	27332	1003350	41212	108849	0	0	8232	610462	0	0
2024-06-05 23:05:32			0	36631	0	0	0	23976	22660	138154	26991	1003235	41202	108846	0	0	8228	613266	0	0
2024-06-05 23:06:32			0	36620	0	0	0	23955	22650	138402	27327	1003103	41210	108838	0	0	8228	613763	0	0
2024-06-05 23:07:32			0	36561	0	0	0	23937	22630	138545	27128	1002963	41219	108831	0	0	8225	616317	0	0
2024-06-05 23:08:32			0	36527	0	0	0	23911	22610	138573	27256	1002955	41207	108821	0	0	8224	617822	0	0
2024-06-05 23:09:32			0	36511	0	0	0	23890	22600	138793	27519	1002858	41196	108813	0	0	8223	618533	0	0
2024-06-05 23:10:32			0	36452	0	0	0	23870	22580	138717	26927	1002860	41194	108805	0	0	8220	621101	0	0
2024-06-05 23:11:32			0	36441	0	0	0	23854	22560	138977	27317	1002780	41203	108799	0	0	8220	621637	0	0
2024-06-05 23:12:32			0	36413	0	0	0	23844	22550	139113	27147	1002684	41191	108795	0	0	8218	622861	0	0
2024-06-05 23:13:32			0	36370	0	0	0	23825	22540	139237	27261	1002658	41189	108788	0	0	8216	624725	0	0
2024-06-05 23:14:32			0	36340	0	0	0	23825	22540	139409	27194	1002605	41211	108788	0	0	8215	626003	0	0
2024-06-05 23:15:32			0	36307	0	0	0	23810	22530	139449	27362	1002623	41201	108782	0	0	8213	627447	0	0
2024-06-05 23:16:32			0	36291	0	0	0	23792	22520	139561	27452	1002571	41209	108775	0	0	8213	628165	0	0
2024-06-05 23:17:32			0	36251	0	0	0	23789	22500	139709	27351	1002537	41208	108774	0	0	8211	629948	0	0
2024-06-05 23:18:32			0	36224	0	0	0	23797	22490	139813	27308	1002528	41208	108777	0	0	8209	631140	0	0
2024-06-05 23:19:32			0	36214	0	0	0	23794	22500	140033	27258	1002457	41197	108776	0	0	8208	631534	0	0
2024-06-05 23:20:32			0	36168	0	0	0	23784	22490	140105	27190	1002440	41196	108772	0	0	8206	633545	0	0
2024-06-05 23:21:32			0	36144	0	0	0	23771	22480	140225	27388	1002423	41206	108767	0	0	8205	634614	0	0
2024-06-05 23:22:32			0	36131	0	0	0	23766	22470	140313	27403	1002353	41172	108765	0	0	8204	635209	0	0
2024-06-05 23:23:32			0	36138	0	0	0	23758	22460	140373	27502	1002424	41183	108762	0	0	8205	634943	0	0
2024-06-05 23:24:32			0	36115	0	0	0	23766	22450	140389	27039	1002381	41204	108765	0	0	8203	635970	0	0
2024-06-05 23:25:32			0	36102	0	0	0	23766	22450	140425	27426	1002434	41192	108765	0	0	8203	636531	0	0
2024-06-05 23:26:32			0	36104	0	0	0	23766	22450	140469	27429	1002372	41192	108765	0	0	8203	636444	0	0
2024-06-05 23:27:32			0	36082	0	0	0	23763	22440	140581	27346	1002337	41204	108764	0	0	8202	637430	0	0
2024-06-05 23:28:32			0	36087	0	0	0	23753	22420	140517	27621	1002303	41190	108760	0	0	8202	637285	0	0
2024-06-05 23:29:32			0	36082	0	0	0	23745	22440	140609	27281	1002275	41203	108757	0	0	8202	637430	0	0
2024-06-05 23:30:32			0	36080	0	0	0	23742	22410	140565	27140	1002171	41189	108756	0	0	8202	637623	0	0
2024-06-05 23:31:32			0	36056	0	0	0	23737	22410	140593	27360	1002224	41189	108754	0	0	8201	638661	0	0
2024-06-05 23:32:32			0	36077	0	0	0	23729	22400	140629	27390	1002162	41199	108751	0	0	8202	637788	0	0
2024-06-05 23:33:32			0	36084	0	0	0	23722	22390	140681	27220	1002092	41187	108748	0	0	8202	637522	0	0
2024-06-05 23:34:32			0	36067	0	0	0	23719	22390	140625	27064	1002110	41198	108747	0	0	8201	638256	0	0
2024-06-05 23:35:32			0	36077	0	0	0	23711	22380	140677	27190	1002075	41197	108744	0	0	8202	637860	0	0
2024-06-05 23:36:32			0	36071	0	0	0	23711	22390	140705	27114	1002084	41187	108744	0	0	8202	638083	0	0
2024-06-05 23:37:32			0	36066	0	0	0	23706	22370	140781	27209	1002111	41197	108742	0	0	8202	638371	0	0
2024-06-05 23:38:32			0	36074	0	0	0	23711	22370	140641	27209	1002031	41197	108744	0	0	8202	638025	0	0
2024-06-05 23:39:32			0	36065	0	0	0	23698	22370	140817	27326	1001952	41208	108739	0	0	8202	638414	0	0
2024-06-05 23:40:32			0	36068	0	0	0	23690	22350	140665	27124	1001944	41183	108736	0	0	8202	638356	0	0
2024-06-05 23:41:32			0	36078	0	0	0	23693	22360	140701	27208	1001979	41195	108737	0	0	8202	637888	0	0
2024-06-05 23:42:32			0	36080	0	0	0	23685	22360	140689	27222	1001979	41195	108734	0	0	8203	637801	0	0
2024-06-05 23:43:32			0	36098	0	0	0	23701	22360	140669	27145	1001953	41206	108740	0	0	8203	637024	0	0
2024-06-05 23:44:32			0	36072	0	0	0	23688	22350	140661	27336	1001936	41183	108735	0	0	8202	638183	0	0
2024-06-05 23:45:32			0	36092	0	0	0	23685	22340	140657	26967	1001945	41182	108734	0	0	8203	637354	0	0
2024-06-05 23:46:32			0	36081	0	0	0	23683	22330	140649	27341	1001857	41182	108733	0	0	8203	637865	0	0
2024-06-05 23:47:32			0	36079	0	0	0	23675	22330	140709	27395	1001884	41193	108730	0	0	8203	637951	0	0
2024-06-05 23:48:32			0	36083	0	0	0	23672	22330	140797	27220	1001875	41192	108729	0	0	8203	637778	0	0
2024-06-05 23:49:32			0	36067	0	0	0	23672	22330	140665	27272	1001902	41203	108729	0	0	8202	638470	0	0
2024-06-05 23:50:32			0	36058	0	0	0	23664	22330	140713	27348	1001742	41192	108726	0	0	8202	638860	0	0
2024-06-05 23:51:32			0	36035	0	0	0	23664	22320	140825	27067	1001840	41192	108726	0	0	8200	639891	0	0
2024-06-05 23:52:32			0	36043	0	0	0	23670	22320	140701	27256	1001866	41192	108728	0	0	8201	639545	0	0
2024-06-05 23:53:32			0	36041	0	0	0	23675	22320	140781	27282	1001893	41192	108730	0	0	8200	639631	0	0
2024-06-05 23:54:32			0	36034	0	0	0	23688	22330	140805	27319	1001910	41204	108735	0	0	8200	639899	0	0
2024-06-05 23:55:32			0	36024	0	0	0	23698	22330	140837	27343	1001929	41192	108739	0	0	8199	640332	0	0
2024-06-05 23:56:32			0	36026	0	0	0	23701	22340	140913	27124	1001945	41193	108740	0	0	8199	640210	0	0
2024-06-05 23:57:32			0	36026	0	0	0	23722	22340	140829	27272	1001981	41205	108748	0	0	8199	640210	0	0
2024-06-05 23:58:32			0	35993	0	0	0	23727	22340	140913	27364	1002007	41205	108750	0	0	8197	641641	0	0
2024-06-05 23:59:32			0	36007	0	0	0	23732	22340	140989	27121	1002034	41205	108752	0	0	8198	641034	0	0
2024-06-06 00:00:32			0	35995	0	0	0	23735	22340	140989	27564	1002079	41193	108753	0	0	8197	641554	0	0
2024-06-06 00:01:32			0	36005	0	0	0	23737	22350	141017	27116	1002042	41205	108754	0	0	8198	641084	0	0
2024-06-06 00:02:32			0	35994	0	0	0	23724	22350	141081	27097	1002024	41183	108749	0	0	8197	641562	0	0
2024-06-06 00:03:32			0	35973	0	0	0	23729	22350	141025	27196	1001989	41194	108751	0	0	8196	642474	0	0
2024-06-06 00:04:32			0	36001	0	0	0	23719	22340	141049	27204	1001954	41194	108747	0	0	8198	641294	0	0
2024-06-06 00:05:32			0	35984	0	0	0	23711	22340	141085	27412	1001972	41214	108744	0	0	8197	642032	0	0
2024-06-06 00:06:32			0	35972	0	0	0	23703	22330	140949	27071	1001937	41182	108741	0	0	8196	642589	0	0
2024-06-06 00:07:32			0	35972	0	0	0	23690	22330	141101	27312	1001857	41214	108736	0	0	8197	642589	0	0
2024-06-06 00:08:32			0	35969	0	0	0	23683	22320	141097	27424	1001840	41192	108733	0	0	8197	642755	0	0
2024-06-06 00:09:32			0	35962	0	0	0	23677	22330	141097	27315	1001875	41203	108731	0	0	8196	643023	0	0
2024-06-06 00:10:32			0	35988	0	0	0	23667	22320	141077	27107	1001831	41202	108727	0	0	8198	641930	0	0
2024-06-06 00:11:32			0	35982	0	0	0	23654	22310	141141	27400	1001788	41179	108722	0	0	8198	642226	0	0
2024-06-06 00:12:32			0	35985	0	0	0	23654	22310	141121	27296	1001814	41202	108722	0	0	8198	642096	0	0
2024-06-06 00:13:32			0	35965	0	0	0	23672	22320	141065	27402	1001893	41192	108729	0	0	8196	642929	0	0
2024-06-06 00:14:32			0	35949	0	0	0	23683	22320	141121	27310	1001938	41202	108733	0	0	8195	643625	0	0
2024-06-06 00:15:32			0	35961	0	0	0	23701	22320	140997	27478	1001973	41203	108740	0	0	8196	643103	0	0
2024-06-06 00:16:32			0	35969	0	0	0	23706	22340	141125	27313	1002034	41205	108742	0	0	8196	642683	0	0
2024-06-06 00:17:32			0	35944	0	0	0	23722	22340	141013	27168	1002167	41205	108748	0	0	8195	643770	0	0
2024-06-06 00:18:32			0	35959	0	0	0	23799	22370	141037	27436	1002431	41241	108778	0	0	8194	643010	0	0
2024-06-06 00:19:32			0	35961	0	0	0	23898	22410	141049	27258	1002792	41255	108816	0	0	8193	642780	0	0
2024-06-06 00:20:32			0	35943	0	0	0	23974	22450	141065	27519	1002940	41269	108845	0	0	8191	643418	0	0
2024-06-06 00:21:32			0	35944	0	0	0	24033	22500	141157	27445	1003203	41263	108868	0	0	8190	643195	0	0
2024-06-06 00:22:32			0	35941	0	0	0	24090	22550	141097	27119	1003368	41268	108890	0	0	8189	643146	0	0
2024-06-06 00:23:32			0	35943	0	0	0	24093	22580	141085	27039	1003384	41259	108891	0	0	8189	642951	0	0
2024-06-06 00:24:32			0	35971	0	0	0	24098	22590	141041	27220	1003436	41250	108893	0	0	8191	641699	0	0
2024-06-06 00:25:32			0	35977	0	0	0	24098	22620	140985	27046	1003585	41263	108893	0	0	8191	641331	0	0
2024-06-06 00:26:32			0	36016	0	0	0	24103	22630	140817	27067	1003664	41264	108895	0	0	8193	639606	0	0
2024-06-06 00:27:32			0	36054	0	0	0	24161	22660	140469	27315	1003787	41267	108917	0	0	8194	637855	0	0
2024-06-06 00:28:32			0	36156	0	0	0	24223	22680	140121	27126	1003909	41281	108941	0	0	8199	633388	0	0
2024-06-06 00:29:32			0	36288	0	0	0	24262	22700	139645	27531	1003970	41271	108956	0	0	8205	627661	0	0
2024-06-06 00:30:32			0	36409	0	0	0	24293	22730	139121	27263	1004119	41274	108968	0	0	8211	622403	0	0
2024-06-06 00:31:32			0	36505	0	0	0	24303	22740	138853	26998	1004251	41275	108972	0	0	8216	618302	0	0
2024-06-06 00:32:32			0	36575	0	0	0	24309	22770	138541	27003	1004249	41277	108974	0	0	8220	615245	0	0
2024-06-06 00:33:32			0	36589	0	0	0	24309	22790	138421	27208	1004248	41290	108974	0	0	8221	614586	0	0
2024-06-06 00:34:32			0	36601	0	0	0	24319	22800	138482	27232	1004345	41280	108978	0	0	8221	614047	0	0
2024-06-06 00:35:32			0	36576	0	0	0	24314	22820	138557	27249	1004352	41282	108976	0	0	8220	615030	0	0
2024-06-06 00:36:32			0	36550	0	0	0	24298	22830	138669	27228	1004405	41284	108970	0	0	8219	616091	0	0
2024-06-06 00:37:32			0	36545	0	0	0	24298	22830	138649	27474	1004351	41272	108970	0	0	8219	616302	0	0
2024-06-06 00:38:32			0	36525	0	0	0	24293	22840	138769	27131	1004395	41273	108968	0	0	8218	617111	0	0
2024-06-06 00:39:32			0	36513	0	0	0	24293	22840	138825	27289	1004395	41285	108968	0	0	8217	617618	0	0
2024-06-06 00:40:32			0	36494	0	0	0	24283	22850	138821	27265	1004305	41285	108964	0	0	8217	618386	0	0
2024-06-06 00:41:32			0	36479	0	0	0	24275	22850	138833	27396	1004359	41285	108961	0	0	8216	619020	0	0
2024-06-06 00:42:32			0	36474	0	0	0	24264	22870	138873	27358	1004429	41275	108957	0	0	8216	619162	0	0
2024-06-06 00:43:32			0	36487	0	0	0	24267	22850	138781	27254	1004332	41285	108958	0	0	8216	618682	0	0
2024-06-06 00:44:32			0	36494	0	0	0	24262	22870	138789	27324	1004376	41286	108956	0	0	8217	618317	0	0
2024-06-06 00:45:32			0	36500	0	0	0	24259	22860	138777	27145	1004367	41285	108955	0	0	8217	618098	0	0
2024-06-06 00:46:32			0	36499	0	0	0	24275	22880	138797	26856	1004419	41287	108961	0	0	8217	618071	0	0
2024-06-06 00:47:32			0	36518	0	0	0	24280	22870	138753	27079	1004438	41286	108963	0	0	8218	617303	0	0
2024-06-06 00:48:32			0	36524	0	0	0	24290	22880	138793	27010	1004473	41287	108967	0	0	8218	617015	0	0
2024-06-06 00:49:32			0	36521	0	0	0	24288	22880	138709	27353	1004428	41277	108966	0	0	8218	617142	0	0
2024-06-06 00:50:32			0	36535	0	0	0	24296	22890	138677	27176	1004490	41277	108969	0	0	8219	616517	0	0
2024-06-06 00:51:32			0	36545	0	0	0	24285	22880	138629	27039	1004419	41276	108965	0	0	8219	616129	0	0
2024-06-06 00:52:32			0	36553	0	0	0	24290	22880	138609	27386	1004366	41276	108967	0	0	8220	615792	0	0
2024-06-06 00:53:32			0	36581	0	0	0	24280	22880	138437	27033	1004393	41287	108963	0	0	8221	614613	0	0
2024-06-06 00:54:32			0	36636	0	0	0	24277	22880	138282	27325	1004375	41277	108962	0	0	8224	612302	0	0
2024-06-06 00:55:32			0	36699	0	0	0	24285	22870	138026	27116	1004411	41275	108965	0	0	8227	609695	0	0
2024-06-06 00:56:32			0	36785	0	0	0	24283	22870	137786	27331	1004384	41275	108964	0	0	8232	606103	0	0
2024-06-06 00:57:32			0	36844	0	0	0	24275	22880	137606	27086	1004419	41287	108961	0	0	8235	603613	0	0
2024-06-06 00:58:32			0	36913	0	0	0	24270	22880	137254	27204	1004419	41287	108959	0	0	8239	600750	0	0
2024-06-06 00:59:32			0	36993	0	0	0	24277	22870	137054	27222	1004429	41297	108962	0	0	8243	597475	0	0
2024-06-06 01:00:32			0	37011	0	0	0	24272	22880	136974	27441	1004321	41277	108960	0	0	8244	596698	0	0
2024-06-06 01:01:32			0	37037	0	0	0	24280	22870	136802	27251	1004322	41286	108963	0	0	8245	595660	0	0
2024-06-06 01:02:32			0	37080	0	0	0	24288	22880	136654	27272	1004481	41298	108966	0	0	8247	593857	0	0
2024-06-06 01:03:32			0	37102	0	0	0	24290	22880	136670	27128	1004526	41287	108967	0	0	8249	592953	0	0
2024-06-06 01:04:32			0	37130	0	0	0	24301	22890	136386	27026	1004472	41277	108971	0	0	8250	591770	0	0
2024-06-06 01:05:32			0	37163	0	0	0	24298	22890	136374	27182	1004525	41298	108970	0	0	8252	590418	0	0
2024-06-06 01:06:32			0	37163	0	0	0	24306	22890	136330	26906	1004578	41298	108973	0	0	8251	590418	0	0
2024-06-06 01:07:32			0	37186	0	0	0	24314	22900	136214	27017	1004515	41279	108976	0	0	8253	589443	0	0
2024-06-06 01:08:32			0	37214	0	0	0	24319	22900	136142	27081	1004569	41290	108978	0	0	8254	588299	0	0
2024-06-06 01:09:32			0	37237	0	0	0	24329	22890	136098	27206	1004605	41288	108982	0	0	8255	587392	0	0
2024-06-06 01:10:32			0	37258	0	0	0	24342	22920	136054	27008	1004701	41301	108987	0	0	8256	586437	0	0
2024-06-06 01:11:32			0	37296	0	0	0	24348	22920	135970	27216	1004674	41291	108989	0	0	8258	584889	0	0
2024-06-06 01:12:32			0	37305	0	0	0	24350	22920	135894	26883	1004736	41302	108990	0	0	8258	584523	0	0
2024-06-06 01:13:32			0	37306	0	0	0	24355	22930	135758	27159	1004718	41291	108992	0	0	8258	584449	0	0
2024-06-06 01:14:32			0	37336	0	0	0	24355	22940	135703	27307	1004761	41303	108992	0	0	8260	583197	0	0
2024-06-06 01:15:32			0	37364	0	0	0	24353	22940	135683	27145	1004628	41303	108991	0	0	8261	582060	0	0
2024-06-06 01:16:32			0	37397	0	0	0	24337	22940	135687	27183	1004690	41304	108985	0	0	8263	580723	0	0
2024-06-06 01:17:32			0	37388	0	0	0	24340	22930	135543	27142	1004646	41281	108986	0	0	8263	581120	0	0
2024-06-06 01:18:32			0	37411	0	0	0	24329	22930	135515	27277	1004584	41280	108982	0	0	8264	580188	0	0
2024-06-06 01:19:32			0	37420	0	0	0	24316	22930	135451	27452	1004611	41291	108977	0	0	8265	579824	0	0
2024-06-06 01:20:32			0	37440	0	0	0	24293	22920	135351	27313	1004594	41301	108968	0	0	8266	579048	0	0
2024-06-06 01:21:32			0	37442	0	0	0	24280	22920	135319	27298	1004487	41280	108963	0	0	8267	578967	0	0
2024-06-06 01:22:32			0	37440	0	0	0	24267	22900	135231	27379	1004453	41267	108958	0	0	8267	579112	0	0
2024-06-06 01:23:32			0	37463	0	0	0	24257	22900	135259	27237	1004427	41289	108954	0	0	8268	578183	0	0
2024-06-06 01:24:32			0	37481	0	0	0	24246	22880	135223	27260	1004375	41288	108950	0	0	8269	577521	0	0
2024-06-06 01:25:32			0	37499	0	0	0	24244	22880	135183	27403	1004366	41298	108949	0	0	8270	576794	0	0
2024-06-06 01:26:32			0	37476	0	0	0	24231	22870	135239	27343	1004384	41275	108944	0	0	8269	577755	0	0
2024-06-06 01:27:32			0	37487	0	0	0	24238	22880	135243	27282	1004339	41276	108947	0	0	8269	577279	0	0
2024-06-06 01:28:32			0	37500	0	0	0	24236	22870	135243	26918	1004296	41286	108946	0	0	8270	576786	0	0
2024-06-06 01:29:32			0	37495	0	0	0	24231	22870	135303	26864	1004242	41286	108944	0	0	8270	576988	0	0
2024-06-06 01:30:32			0	37515	0	0	0	24220	22850	135323	27332	1004252	41285	108940	0	0	8271	576246	0	0
2024-06-06 01:31:32			0	37512	0	0	0	24215	22850	135159	27267	1004199	41263	108938	0	0	8271	576367	0	0
2024-06-06 01:32:32			0	37521	0	0	0	24207	22840	135207	27119	1004208	41273	108935	0	0	8272	576037	0	0
2024-06-06 01:33:32			0	37511	0	0	0	24197	22840	135223	27301	1004200	41272	108931	0	0	8271	576440	0	0
2024-06-06 01:34:32			0	37522	0	0	0	24194	22840	135127	27020	1004147	41294	108930	0	0	8272	575996	0	0
2024-06-06 01:35:32			0	37524	0	0	0	24194	22830	135159	26975	1004298	41305	108930	0	0	8272	575948	0	0
2024-06-06 01:36:32			0	37497	0	0	0	24218	22840	135191	26965	1004440	41317	108939	0	0	8270	577004	0	0
2024-06-06 01:37:32			0	37526	0	0	0	24267	22880	135235	27261	1004633	41309	108958	0	0	8271	575706	0	0
2024-06-06 01:38:32			0	37535	0	0	0	24342	22890	135195	27015	1004792	41310	108987	0	0	8270	575311	0	0
2024-06-06 01:39:32			0	37514	0	0	0	24384	22920	135139	27293	1004843	41313	109003	0	0	8269	576061	0	0
2024-06-06 01:40:32			0	37512	0	0	0	24457	22940	135259	27201	1005037	41304	109031	0	0	8267	576077	0	0
2024-06-06 01:41:32			0	37508	0	0	0	24501	22980	135239	27150	1005203	41330	109048	0	0	8267	576109	0	0
2024-06-06 01:42:32			0	37494	0	0	0	24527	22990	135271	27098	1005255	41320	109058	0	0	8265	576641	0	0
2024-06-06 01:43:32			0	37489	0	0	0	24553	23010	135179	27242	1005396	41321	109068	0	0	8265	576778	0	0
2024-06-06 01:44:32			0	37511	0	0	0	24561	23030	135215	26887	1005448	41334	109071	0	0	8266	575826	0	0
2024-06-06 01:45:32			0	37584	0	0	0	24576	23050	134911	26981	1005482	41302	109077	0	0	8270	572827	0	0
2024-06-06 01:46:32			0	37662	0	0	0	24579	23060	134703	27098	1005526	41326	109078	0	0	8274	569669	0	0
2024-06-06 01:47:32			0	37686	0	0	0	24597	23070	134507	27175	1005658	41349	109085	0	0	8275	568678	0	0
2024-06-06 01:48:32			0	37691	0	0	0	24633	23090	134515	27131	1005666	41330	109099	0	0	8274	568415	0	0
2024-06-06 01:49:32			0	37664	0	0	0	24644	23120	134523	27242	1005788	41353	109103	0	0	8273	569398	0	0
2024-06-06 01:50:32			0	37649	0	0	0	24659	23130	134587	27149	1005912	41355	109109	0	0	8272	569966	0	0
2024-06-06 01:51:32			0	37622	0	0	0	24644	23150	134667	27034	1005893	41345	109103	0	0	8271	570982	0	0
2024-06-06 01:52:32			0	37628	0	0	0	24620	23150	134699	27602	1005821	41324	109094	0	0	8271	570742	0	0
2024-06-06 01:53:32			0	37644	0	0	0	24610	23150	134735	27343	1005768	41324	109090	0	0	8272	570102	0	0
2024-06-06 01:54:32			0	37595	0	0	0	24592	23150	134751	27081	1005848	41335	109083	0	0	8270	572064	0	0
2024-06-06 01:55:32			0	37640	0	0	0	24571	23160	134679	27249	1005776	41335	109075	0	0	8273	570230	0	0
2024-06-06 01:56:32			0	37608	0	0	0	24571	23150	134683	27436	1005733	41324	109075	0	0	8271	571543	0	0
2024-06-06 01:57:32			0	37646	0	0	0	24568	23150	134671	27357	1005759	41334	109074	0	0	8273	570022	0	0
2024-06-06 01:58:32			0	37643	0	0	0	24571	23150	134707	27355	1005653	41312	109075	0	0	8273	570142	0	0
2024-06-06 01:59:32			0	37644	0	0	0	24561	23150	134647	27305	1005661	41335	109071	0	0	8273	570102	0	0
2024-06-06 02:00:32			0	37656	0	0	0	24561	23150	134591	26691	1005733	41324	109071	0	0	8274	569622	0	0
2024-06-06 02:01:32			0	37669	0	0	0	24561	23150	134547	27015	1005679	41324	109071	0	0	8275	569102	0	0
2024-06-06 02:02:32			0	37666	0	0	0	24589	23140	134479	27085	1005751	41344	109082	0	0	8274	569254	0	0
2024-06-06 02:03:32			0	37679	0	0	0	24615	23170	134539	27474	1005838	41346	109092	0	0	8274	568639	0	0
2024-06-06 02:04:32			0	37675	0	0	0	24620	23170	134499	27353	1005811	41346	109094	0	0	8274	568798	0	0
2024-06-06 02:05:32			0	37667	0	0	0	24612	23170	134491	26887	1005811	41335	109091	0	0	8274	569118	0	0
2024-06-06 02:06:32			0	37683	0	0	0	24589	23180	134343	27147	1005775	41348	109082	0	0	8275	568447	0	0
2024-06-06 02:07:32			0	37790	0	0	0	24573	23180	134235	27170	1005775	41326	109076	0	0	8281	564185	0	0
2024-06-06 02:08:32			0	37899	0	0	0	24568	23180	133715	26899	1005802	41326	109074	0	0	8287	559864	0	0
2024-06-06 02:09:32			0	38000	0	0	0	24573	23180	133335	27092	1005748	41337	109076	0	0	8292	555879	0	0
2024-06-06 02:10:32			0	38128	0	0	0	24561	23180	133064	27267	1005775	41326	109071	0	0	8299	550854	0	0
2024-06-06 02:11:32			0	38200	0	0	0	24540	23180	132712	27166	1005775	41326	109063	0	0	8303	548041	0	0
2024-06-06 02:12:32			0	38277	0	0	0	24524	23160	132480	27267	1005696	41313	109057	0	0	8307	545103	0	0
2024-06-06 02:13:32			0	38334	0	0	0	24535	23160	132316	27246	1005670	41324	109061	0	0	8310	542889	0	0
2024-06-06 02:14:32			0	38356	0	0	0	24532	23170	132172	27281	1005705	41324	109060	0	0	8311	542005	0	0
2024-06-06 02:15:32			0	38385	0	0	0	24527	23160	132080	27114	1005696	41324	109058	0	0	8312	540913	0	0
2024-06-06 02:16:32			0	38406	0	0	0	24522	23150	132080	27390	1005599	41345	109056	0	0	8313	540131	0	0
2024-06-06 02:17:32			0	38441	0	0	0	24522	23150	131980	27005	1005573	41324	109056	0	0	8315	538778	0	0
2024-06-06 02:18:32			0	38460	0	0	0	24537	23150	131888	27268	1005599	41324	109062	0	0	8316	538045	0	0
2024-06-06 02:19:32			0	38479	0	0	0	24535	23140	131904	26828	1005609	41333	109061	0	0	8317	537342	0	0
2024-06-06 02:20:32			0	38478	0	0	0	24529	23130	131916	27322	1005520	41311	109059	0	0	8317	537411	0	0
2024-06-06 02:21:32			0	38491	0	0	0	24522	23130	131800	27301	1005467	41322	109056	0	0	8318	536910	0	0
2024-06-06 02:22:32			0	38507	0	0	0	24509	23130	131728	27286	1005458	41322	109051	0	0	8319	536294	0	0
2024-06-06 02:23:32			0	38528	0	0	0	24501	23110	131628	27213	1005424	41320	109048	0	0	8320	535546	0	0
2024-06-06 02:24:32			0	38567	0	0	0	24501	23110	131572	27400	1005460	41320	109048	0	0	8322	534046	0	0
2024-06-06 02:25:32			0	38597	0	0	0	24501	23110	131400	27403	1005380	41331	109048	0	0	8324	532895	0	0
2024-06-06 02:26:32			0	38626	0	0	0	24490	23110	131380	27284	1005371	41331	109044	0	0	8325	531783	0	0
2024-06-06 02:27:32			0	38645	0	0	0	24480	23090	131280	27156	1005319	41330	109040	0	0	8326	531115	0	0
2024-06-06 02:28:32			0	38670	0	0	0	24464	23090	131204	27346	1005337	41318	109034	0	0	8328	530159	0	0
2024-06-06 02:29:32			0	38688	0	0	0	24457	23070	131176	27253	1005258	41316	109031	0	0	8329	529530	0	0
2024-06-06 02:30:32			0	38705	0	0	0	24457	23080	131136	27150	1005302	41317	109031	0	0	8330	528851	0	0
2024-06-06 02:31:32			0	38703	0	0	0	24472	23060	131212	27345	1005294	41337	109037	0	0	8329	528987	0	0
2024-06-06 02:32:32			0	38700	0	0	0	24488	23070	131204	27360	1005330	41337	109043	0	0	8329	529072	0	0
2024-06-06 02:33:32			0	38678	0	0	0	24506	23070	131212	26739	1005330	41315	109050	0	0	8328	529913	0	0
2024-06-06 02:34:32			0	38709	0	0	0	24511	23070	131148	27020	1005356	41327	109052	0	0	8329	528728	0	0
2024-06-06 02:35:32			0	38694	0	0	0	24527	23070	131148	26989	1005330	41327	109058	0	0	8328	529301	0	0
2024-06-06 02:36:32			0	38702	0	0	0	24522	23070	131076	27407	1005338	41328	109056	0	0	8328	528996	0	0
2024-06-06 02:37:32			0	38708	0	0	0	24501	23060	130992	27414	1005259	41326	109048	0	0	8329	528796	0	0
2024-06-06 02:38:32			0	38753	0	0	0	24485	23050	130937	27097	1005251	41314	109042	0	0	8332	527109	0	0
2024-06-06 02:39:32			0	38790	0	0	0	24472	23060	130877	27144	1005179	41315	109037	0	0	8334	525671	0	0
2024-06-06 02:40:32			0	38818	0	0	0	24454	23050	130785	26892	1005162	41314	109030	0	0	8336	524636	0	0
2024-06-06 02:41:32			0	38847	0	0	0	24420	23040	130673	27426	1005065	41334	109017	0	0	8338	523564	0	0
2024-06-06 02:42:32			0	38883	0	0	0	24420	23030	130529	26977	1005057	41323	109017	0	0	8339	522228	0	0
2024-06-06 02:43:32			0	38889	0	0	0	24415	23020	130501	27248	1005084	41311	109015	0	0	8340	522030	0	0
2024-06-06 02:44:32			0	38936	0	0	0	24412	23020	130325	26913	1004986	41312	109014	0	0	8342	520250	0	0
2024-06-06 02:45:32			0	38951	0	0	0	24389	23010	130369	26946	1004961	41299	109005	0	0	8343	519713	0	0
2024-06-06 02:46:32			0	38986	0	0	0	24366	23010	130289	27279	1004907	41321	108996	0	0	8346	518391	0	0
2024-06-06 02:47:32			0	38965	0	0	0	24350	23000	130277	27178	1004917	41309	108990	0	0	8345	519213	0	0
2024-06-06 02:48:32			0	38990	0	0	0	24342	22990	130233	27355	1004873	41320	108987	0	0	8346	518298	0	0
2024-06-06 02:49:32			0	38970	0	0	0	24324	22980	130257	27277	1004838	41296	108980	0	0	8345	519082	0	0
2024-06-06 02:50:32			0	38947	0	0	0	24314	22970	130337	27012	1004813	41307	108976	0	0	8344	519980	0	0
2024-06-06 02:51:32			0	38879	0	0	0	24303	22950	130453	27282	1004707	41305	108972	0	0	8341	522614	0	0
2024-06-06 02:52:32			0	38818	0	0	0	24296	22950	130837	27301	1004699	41293	108969	0	0	8338	524930	0	0
2024-06-06 02:53:32			0	38744	0	0	0	24296	22940	131013	27190	1004628	41314	108969	0	0	8334	527778	0	0
2024-06-06 02:54:32			0	38757	0	0	0	24306	22940	131061	27554	1004708	41303	108973	0	0	8334	527282	0	0
2024-06-06 02:55:32			0	38783	0	0	0	24288	22940	130837	27130	1004628	41303	108966	0	0	8336	526291	0	0
2024-06-06 02:56:32			0	38901	0	0	0	24298	22930	130517	27312	1004646	41303	108970	0	0	8342	521838	0	0
2024-06-06 02:57:32			0	39043	0	0	0	24293	22930	130145	27275	1004620	41303	108968	0	0	8349	516474	0	0
2024-06-06 02:58:32			0	39138	0	0	0	24306	22920	129869	27140	1004709	41313	108973	0	0	8354	512933	0	0
2024-06-06 02:59:32			0	39225	0	0	0	24309	22930	129573	27012	1004611	41325	108974	0	0	8359	509647	0	0
2024-06-06 03:00:32			0	39289	0	0	0	24314	22930	129389	27232	1004691	41291	108976	0	0	8362	507259	0	0
2024-06-06 03:01:32			0	39344	0	0	0	24327	22930	129249	27000	1004726	41314	108981	0	0	8364	505212	0	0
2024-06-06 03:02:32			0	39411	0	0	0	24327	22930	129117	27046	1004726	41314	108981	0	0	8368	502725	0	0
2024-06-06 03:03:32			0	39448	0	0	0	24332	22930	129002	27175	1004673	41314	108983	0	0	8370	501354	0	0
2024-06-06 03:04:32			0	39465	0	0	0	24322	22920	128838	27039	1004656	41313	108979	0	0	8371	500753	0	0
2024-06-06 03:05:32			0	39533	0	0	0	24335	22920	128650	27268	1004789	41325	108984	0	0	8374	498241	0	0
2024-06-06 03:06:32			0	39568	0	0	0	24355	22940	128494	27334	1004948	41326	108992	0	0	8376	496896	0	0
2024-06-06 03:07:32			0	39606	0	0	0	24405	22970	128514	27095	1005088	41339	109011	0	0	8377	495414	0	0
2024-06-06 03:08:32			0	39614	0	0	0	24449	22990	128370	27364	1005229	41353	109028	0	0	8377	495065	0	0
2024-06-06 03:09:32			0	39631	0	0	0	24501	23010	128290	27571	1005361	41354	109048	0	0	8377	494385	0	0
2024-06-06 03:10:32			0	39670	0	0	0	24532	23030	128314	27088	1005502	41334	109060	0	0	8378	492899	0	0
2024-06-06 03:11:32			0	39712	0	0	0	24558	23040	128098	27313	1005527	41358	109070	0	0	8380	491334	0	0
2024-06-06 03:12:32			0	39803	0	0	0	24576	23060	127826	27244	1005588	41348	109077	0	0	8385	487957	0	0
2024-06-06 03:13:32			0	39852	0	0	0	24573	23070	127630	27097	1005552	41328	109076	0	0	8387	486146	0	0
2024-06-06 03:14:32			0	39922	0	0	0	24573	23090	127426	26970	1005551	41330	109076	0	0	8391	483550	0	0
2024-06-06 03:15:32			0	39959	0	0	0	24571	23100	127302	27324	1005568	41330	109075	0	0	8393	482183	0	0
2024-06-06 03:16:32			0	39980	0	0	0	24561	23100	127250	27549	1005594	41340	109071	0	0	8394	481423	0	0
2024-06-06 03:17:32			0	39973	0	0	0	24558	23100	127238	27192	1005648	41330	109070	0	0	8394	481676	0	0
2024-06-06 03:18:32			0	39976	0	0	0	24558	23100	127286	27317	1005576	41330	109070	0	0	8394	481568	0	0
2024-06-06 03:19:32			0	39931	0	0	0	24558	23110	127286	27485	1005585	41353	109070	0	0	8392	483170	0	0
2024-06-06 03:20:32			0	39899	0	0	0	24550	23110	127450	27090	1005585	41342	109067	0	0	8390	484330	0	0
2024-06-06 03:21:32			0	39838	0	0	0	24555	23110	127574	26897	1005531	41320	109069	0	0	8387	486546	0	0
2024-06-06 03:22:32			0	39757	0	0	0	24540	23110	127874	27206	1005558	41342	109063	0	0	8383	489497	0	0
2024-06-06 03:23:32			0	39696	0	0	0	24540	23100	128030	27223	1005603	41341	109063	0	0	8380	491754	0	0
2024-06-06 03:24:32			0	39625	0	0	0	24509	23110	128198	27308	1005433	41320	109051	0	0	8377	494328	0	0
2024-06-06 03:25:32			0	39552	0	0	0	24472	23080	128402	27189	1005249	41317	109037	0	0	8373	497095	0	0
2024-06-06 03:26:32			0	39500	0	0	0	24433	23070	128586	27414	1005178	41328	109022	0	0	8371	499040	0	0
2024-06-06 03:27:32			0	39436	0	0	0	24412	23050	128802	27109	1005117	41314	109014	0	0	8368	501461	0	0
2024-06-06 03:28:32			0	39409	0	0	0	24399	23050	129013	27222	1005135	41325	109009	0	0	8367	502460	0	0
2024-06-06 03:29:32			0	39379	0	0	0	24397	23040	129109	27071	1005118	41334	109008	0	0	8366	503601	0	0
2024-06-06 03:30:32			0	39352	0	0	0	24412	23040	129181	27434	1005252	41324	109014	0	0	8364	504603	0	0
2024-06-06 03:31:32			0	39303	0	0	0	24438	23050	129313	27331	1005304	41325	109024	0	0	8361	506397	0	0
2024-06-06 03:32:32			0	39281	0	0	0	24449	23060	129377	27092	1005312	41336	109028	0	0	8360	507187	0	0
2024-06-06 03:33:32			0	39253	0	0	0	24459	23060	129509	27213	1005366	41336	109032	0	0	8358	508231	0	0
2024-06-06 03:34:32			0	39213	0	0	0	24472	23050	129525	27251	1005277	41335	109037	0	0	8356	509752	0	0
2024-06-06 03:35:32			0	39220	0	0	0	24464	23060	129605	27277	1005312	41336	109034	0	0	8356	509462	0	0
2024-06-06 03:36:32			0	39188	0	0	0	24470	23050	129701	27092	1005277	41325	109036	0	0	8354	510687	0	0
2024-06-06 03:37:32			0	39152	0	0	0	24477	23060	129737	27334	1005259	41326	109039	0	0	8352	512006	0	0
2024-06-06 03:38:32			0	39152	0	0	0	24477	23060	129785	27192	1005294	41348	109039	0	0	8352	512006	0	0
2024-06-06 03:39:32			0	39121	0	0	0	24475	23060	129853	27196	1005286	41326	109038	0	0	8351	513168	0	0
2024-06-06 03:40:32			0	39111	0	0	0	24459	23070	129785	27358	1005303	41327	109032	0	0	8351	513514	0	0
2024-06-06 03:41:32			0	39114	0	0	0	24459	23060	129805	27282	1005232	41326	109032	0	0	8351	513430	0	0
2024-06-06 03:42:32			0	39112	0	0	0	24444	23060	129857	26887	1005214	41315	109026	0	0	8351	513505	0	0
2024-06-06 03:43:32			0	39134	0	0	0	24405	23050	129785	27232	1005055	41314	109011	0	0	8353	512709	0	0
2024-06-06 03:44:32			0	39148	0	0	0	24384	23020	129681	27126	1004960	41301	109003	0	0	8354	512270	0	0
2024-06-06 03:45:32			0	39186	0	0	0	24337	23010	129597	27253	1004801	41310	108985	0	0	8356	510876	0	0
2024-06-06 03:46:32			0	39227	0	0	0	24316	23000	129525	27007	1004845	41298	108977	0	0	8359	509372	0	0
2024-06-06 03:47:32			0	39341	0	0	0	24316	22990	129145	27332	1004855	41308	108977	0	0	8365	505153	0	0
2024-06-06 03:48:32			0	39456	0	0	0	24306	22980	128766	27334	1004811	41330	108973	0	0	8371	500917	0	0
2024-06-06 03:49:32			0	39594	0	0	0	24316	22960	128354	27466	1004698	41306	108977	0	0	8378	495883	0	0
2024-06-06 03:50:32			0	39728	0	0	0	24298	22950	128030	27050	1004645	41304	108970	0	0	8385	490996	0	0
2024-06-06 03:51:32			0	39814	0	0	0	24285	22950	127718	27187	1004539	41293	108965	0	0	8390	487857	0	0
2024-06-06 03:52:32			0	39900	0	0	0	24259	22930	127558	27199	1004540	41303	108955	0	0	8394	484783	0	0
2024-06-06 03:53:32			0	39926	0	0	0	24251	22910	127290	27175	1004452	41280	108952	0	0	8396	483893	0	0
2024-06-06 03:54:32			0	39937	0	0	0	24236	22900	127306	27159	1004355	41300	108946	0	0	8397	483521	0	0
2024-06-06 03:55:32			0	39974	0	0	0	24205	22890	127282	27199	1004196	41288	108934	0	0	8399	482208	0	0
2024-06-06 03:56:32			0	39993	0	0	0	24184	22860	127318	26934	1004207	41296	108926	0	0	8400	481601	0	0
2024-06-06 03:57:32			0	39996	0	0	0	24173	22850	127210	27308	1004172	41296	108922	0	0	8401	481519	0	0
2024-06-06 03:58:32			0	39989	0	0	0	24179	22840	127238	27270	1004235	41295	108924	0	0	8400	481800	0	0
2024-06-06 03:59:32			0	40017	0	0	0	24181	22830	127222	27164	1004183	41304	108925	0	0	8401	480814	0	0
2024-06-06 04:00:32			0	40015	0	0	0	24179	22830	127206	27199	1004245	41294	108924	0	0	8401	480886	0	0
2024-06-06 04:01:32			0	40013	0	0	0	24186	22840	127194	27215	1004253	41294	108927	0	0	8401	480931	0	0
2024-06-06 04:02:32			0	40008	0	0	0	24202	22830	127170	27093	1004236	41293	108933	0	0	8401	481139	0	0
2024-06-06 04:03:32			0	40017	0	0	0	24202	22820	127150	27286	1004245	41303	108933	0	0	8401	480841	0	0
2024-06-06 04:04:32			0	40032	0	0	0	24212	22830	127194	27358	1004210	41304	108937	0	0	8402	480271	0	0
2024-06-06 04:05:32			0	40028	0	0	0	24210	22820	127154	27041	1004227	41292	108936	0	0	8401	480443	0	0
2024-06-06 04:06:32			0	40046	0	0	0	24202	22820	127158	27178	1004227	41292	108933	0	0	8403	479792	0	0
2024-06-06 04:07:32			0	40030	0	0	0	24202	22820	127078	27050	1004192	41292	108933	0	0	8402	480371	0	0
2024-06-06 04:08:32			0	40042	0	0	0	24207	22820	127130	26689	1004299	41292	108935	0	0	8402	479937	0	0
2024-06-06 04:09:32			0	40055	0	0	0	24199	22830	127198	26993	1004236	41293	108932	0	0	8403	479441	0	0
2024-06-06 04:10:32			0	40038	0	0	0	24223	22830	127074	27078	1004343	41327	108941	0	0	8402	480055	0	0
2024-06-06 04:11:32			0	40065	0	0	0	24233	22830	127138	27305	1004298	41305	108945	0	0	8403	479080	0	0
2024-06-06 04:12:32			0	40035	0	0	0	24236	22830	127094	27369	1004378	41305	108946	0	0	8401	480163	0	0
2024-06-06 04:13:32			0	40052	0	0	0	24231	22830	127178	27341	1004271	41294	108944	0	0	8402	479549	0	0
2024-06-06 04:14:32			0	40055	0	0	0	24220	22830	127082	26878	1004271	41294	108940	0	0	8403	479441	0	0
2024-06-06 04:15:32			0	40045	0	0	0	24212	22820	127118	26817	1004174	41282	108937	0	0	8402	479829	0	0
2024-06-06 04:16:32			0	40065	0	0	0	24199	22820	127058	27005	1004174	41303	108932	0	0	8404	479106	0	0
2024-06-06 04:17:32			0	40065	0	0	0	24197	22810	127074	27033	1004202	41303	108931	0	0	8404	479133	0	0
2024-06-06 04:18:32			0	40088	0	0	0	24218	22810	127046	27102	1004343	41315	108939	0	0	8404	478304	0	0
2024-06-06 04:19:32			0	40086	0	0	0	24264	22830	127034	27248	1004556	41337	108957	0	0	8404	478322	0	0
2024-06-06 04:20:32			0	40099	0	0	0	24329	22860	127010	26974	1004821	41340	108982	0	0	8403	477773	0	0
2024-06-06 04:21:32			0	40089	0	0	0	24397	22900	126970	27187	1004933	41333	109008	0	0	8402	478026	0	0
2024-06-06 04:22:32			0	40093	0	0	0	24428	22920	126927	27220	1004816	41325	109020	0	0	8402	477829	0	0
2024-06-06 04:23:32			0	40101	0	0	0	24444	22930	126902	27079	1004966	41326	109026	0	0	8402	477514	0	0
2024-06-06 04:24:32			0	40112	0	0	0	24457	22940	126875	27438	1005055	41347	109031	0	0	8402	477091	0	0
2024-06-06 04:25:32			0	40110	0	0	0	24457	22960	126787	27178	1005044	41328	109031	0	0	8402	477110	0	0
2024-06-06 04:26:32			0	40134	0	0	0	24467	22980	126919	27107	1005096	41330	109035	0	0	8403	476193	0	0
2024-06-06 04:27:32			0	40096	0	0	0	24477	22980	126839	27234	1005078	41352	109039	0	0	8401	477560	0	0
2024-06-06 04:28:32			0	40111	0	0	0	24477	23000	126887	27085	1005139	41332	109039	0	0	8402	476967	0	0
2024-06-06 04:29:32			0	40115	0	0	0	24483	23000	126891	27201	1005139	41342	109041	0	0	8402	476823	0	0
2024-06-06 04:30:32			0	40102	0	0	0	24480	23010	126903	27116	1005201	41333	109040	0	0	8402	477264	0	0
2024-06-06 04:31:32			0	40128	0	0	0	24464	23010	126815	27235	1005183	41333	109034	0	0	8403	476328	0	0
2024-06-06 04:32:32			0	40103	0	0	0	24457	23010	126827	26920	1005129	41321	109031	0	0	8402	477228	0	0
2024-06-06 04:33:32			0	40103	0	0	0	24444	23010	126927	27092	1005094	41333	109026	0	0	8402	477228	0	0
2024-06-06 04:34:32			0	40093	0	0	0	24428	23010	126822	27291	1005067	41333	109020	0	0	8402	477588	0	0
2024-06-06 04:35:32			0	40088	0	0	0	24428	23010	126822	27293	1005067	41321	109020	0	0	8402	477768	0	0
2024-06-06 04:36:32			0	40089	0	0	0	24436	23010	126874	27128	1005156	41321	109023	0	0	8402	477732	0	0
2024-06-06 04:37:32			0	40100	0	0	0	24431	23010	126851	27131	1005067	41321	109021	0	0	8402	477336	0	0
2024-06-06 04:38:32			0	40086	0	0	0	24436	23010	126934	27107	1005067	41321	109023	0	0	8401	477840	0	0
2024-06-06 04:39:32			0	40088	0	0	0	24428	23000	126942	27107	1005086	41332	109020	0	0	8402	477795	0	0
2024-06-06 04:40:32			0	40073	0	0	0	24425	23000	127054	27078	1004979	41321	109019	0	0	8401	478335	0	0
2024-06-06 04:41:32			0	40057	0	0	0	24376	22980	126958	27182	1004750	41307	109000	0	0	8401	478966	0	0
2024-06-06 04:42:32			0	40060	0	0	0	24280	22950	127026	27121	1004547	41293	108963	0	0	8402	478938	0	0
2024-06-06 04:43:32			0	40048	0	0	0	24225	22910	127042	27228	1004399	41280	108942	0	0	8403	479478	0	0
2024-06-06 04:44:32			0	40061	0	0	0	24179	22890	127090	27407	1004178	41277	108924	0	0	8404	479063	0	0
2024-06-06 04:45:32			0	40032	0	0	0	24124	22850	127206	27319	1004057	41273	108903	0	0	8403	480217	0	0
2024-06-06 04:46:32			0	40034	0	0	0	24098	22840	127090	27275	1003907	41284	108893	0	0	8404	480172	0	0
2024-06-06 04:47:32			0	40033	0	0	0	24064	22810	127226	27237	1003935	41281	108880	0	0	8404	480289	0	0
2024-06-06 04:48:32			0	40032	0	0	0	24038	22790	127242	27039	1003803	41291	108870	0	0	8404	480379	0	0
2024-06-06 04:49:32			0	40011	0	0	0	24041	22760	127202	27230	1003699	41288	108871	0	0	8403	481219	0	0
2024-06-06 04:50:32			0	40017	0	0	0	24038	22760	127238	27255	1003832	41288	108870	0	0	8404	481002	0	0
2024-06-06 04:51:32			0	40009	0	0	0	24046	22740	127250	27308	1003798	41296	108873	0	0	8403	481345	0	0
2024-06-06 04:52:32			0	40013	0	0	0	24062	22750	127334	27268	1003833	41297	108879	0	0	8403	481174	0	0
2024-06-06 04:53:32			0	39972	0	0	0	24075	22740	127350	27203	1003869	41285	108884	0	0	8401	482685	0	0
2024-06-06 04:54:32			0	39987	0	0	0	24096	22750	127454	27355	1003913	41308	108892	0	0	8401	482115	0	0
2024-06-06 04:55:32			0	39975	0	0	0	24116	22760	127418	27189	1004010	41287	108900	0	0	8400	482523	0	0
2024-06-06 04:56:32			0	39978	0	0	0	24132	22770	127374	27206	1004080	41310	108906	0	0	8400	482387	0	0
2024-06-06 04:57:32			0	40002	0	0	0	24145	22760	127310	27355	1004019	41298	108911	0	0	8401	481545	0	0
2024-06-06 04:58:32			0	40031	0	0	0	24135	22770	127210	27156	1004009	41289	108907	0	0	8403	480469	0	0
2024-06-06 04:59:32			0	40061	0	0	0	24142	22770	127138	27055	1004062	41310	108910	0	0	8404	479385	0	0
2024-06-06 05:00:32			0	40083	0	0	0	24155	22770	127046	27241	1004054	41277	108915	0	0	8405	478591	0	0
2024-06-06 05:01:32			0	40114	0	0	0	24163	22780	126959	27279	1004124	41300	108918	0	0	8407	477447	0	0
2024-06-06 05:02:32			0	40142	0	0	0	24171	22780	126951	27024	1004044	41290	108921	0	0	8408	476439	0	0
2024-06-06 05:03:32			0	40163	0	0	0	24171	22780	126815	27039	1004071	41290	108921	0	0	8409	475684	0	0
2024-06-06 05:04:32			0	40189	0	0	0	24171	22770	126791	26901	1004009	41289	108921	0	0	8410	474776	0	0
2024-06-06 05:05:32			0	40206	0	0	0	24145	22760	126751	27100	1003885	41276	108911	0	0	8412	474192	0	0
2024-06-06 05:06:32			0	40227	0	0	0	24135	22760	126695	26922	1003779	41288	108907	0	0	8413	473439	0	0
2024-06-06 05:07:32			0	40231	0	0	0	24109	22740	126639	27088	1003869	41274	108897	0	0	8413	473348	0	0
2024-06-06 05:08:32			0	40245	0	0	0	24109	22740	126707	26934	1003923	41285	108897	0	0	8414	472846	0	0
2024-06-06 05:09:32			0	40268	0	0	0	24129	22730	126531	27135	1003906	41295	108905	0	0	8415	472049	0	0
2024-06-06 05:10:32			0	40273	0	0	0	24145	22750	126511	27147	1003940	41287	108911	0	0	8415	471817	0	0
2024-06-06 05:11:32			0	40280	0	0	0	24155	22740	126547	27208	1003923	41295	108915	0	0	8415	471593	0	0
2024-06-06 05:12:32			0	40292	0	0	0	24161	22750	126499	27095	1003966	41287	108917	0	0	8416	471137	0	0
2024-06-06 05:13:32			0	40313	0	0	0	24153	22740	126439	27234	1003923	41285	108914	0	0	8417	470413	0	0
2024-06-06 05:14:32			0	40330	0	0	0	24155	22740	126463	27066	1003869	41295	108915	0	0	8418	469805	0	0
2024-06-06 05:15:32			0	40311	0	0	0	24158	22760	126419	27168	1003850	41287	108916	0	0	8417	470432	0	0
2024-06-06 05:16:32			0	40332	0	0	0	24163	22760	126367	27190	1003930	41297	108918	0	0	8418	469682	0	0
2024-06-06 05:17:32			0	40339	0	0	0	24155	22750	126371	26948	1003913	41297	108915	0	0	8418	469458	0	0
2024-06-06 05:18:32			0	40376	0	0	0	24166	22750	126383	26935	1003966	41287	108919	0	0	8420	468138	0	0
2024-06-06 05:19:32			0	40410	0	0	0	24163	22740	126255	27298	1003931	41296	108918	0	0	8422	466953	0	0
2024-06-06 05:20:32			0	40406	0	0	0	24155	22740	126175	27137	1003905	41296	108915	0	0	8422	467096	0	0
2024-06-06 05:21:32			0	40429	0	0	0	24155	22750	126123	26922	1003913	41287	108915	0	0	8423	466251	0	0
2024-06-06 05:22:32			0	40450	0	0	0	24155	22750	126027	26915	1003886	41287	108915	0	0	8424	465505	0	0
2024-06-06 05:23:32			0	40485	0	0	0	24153	22740	125959	27163	1003878	41296	108914	0	0	8426	464288	0	0
2024-06-06 05:24:32			0	40512	0	0	0	24155	22740	125947	27232	1003896	41295	108915	0	0	8427	463330	0	0
2024-06-06 05:25:32			0	40525	0	0	0	24140	22730	125763	26920	1003914	41307	108909	0	0	8428	462895	0	0
2024-06-06 05:26:32			0	40557	0	0	0	24145	22740	125739	27008	1003923	41295	108911	0	0	8430	461737	0	0
2024-06-06 05:27:32			0	40578	0	0	0	24140	22730	125747	27249	1003879	41295	108909	0	0	8431	461020	0	0
2024-06-06 05:28:32			0	40606	0	0	0	24150	22740	125671	27417	1003896	41295	108913	0	0	8432	460005	0	0
2024-06-06 05:29:32			0	40643	0	0	0	24142	22730	125535	27194	1003861	41285	108910	0	0	8434	458725	0	0
2024-06-06 05:30:32			0	40666	0	0	0	24140	22730	125527	27223	1003826	41295	108909	0	0	8436	457914	0	0
2024-06-06 05:31:32			0	40693	0	0	0	24137	22730	125387	27209	1003808	41285	108908	0	0	8437	456963	0	0
2024-06-06 05:32:32			0	40697	0	0	0	24135	22720	125427	27279	1003782	41272	108907	0	0	8437	456848	0	0
2024-06-06 05:33:32			0	40705	0	0	0	24135	22720	125319	27159	1003897	41284	108907	0	0	8438	456567	0	0
2024-06-06 05:34:32			0	40746	0	0	0	24132	22720	125259	27052	1003844	41284	108906	0	0	8440	455126	0	0
2024-06-06 05:35:32			0	40743	0	0	0	24119	22720	125199	27419	1003791	41294	108901	0	0	8440	455231	0	0
2024-06-06 05:36:32			0	40781	0	0	0	24124	22720	125148	27130	1003791	41294	108903	0	0	8442	453898	0	0
2024-06-06 05:37:32			0	40785	0	0	0	24119	22710	125076	26856	1003774	41294	108901	0	0	8442	453783	0	0
2024-06-06 05:38:32			0	40801	0	0	0	24119	22720	125080	27410	1003791	41284	108901	0	0	8443	453197	0	0
2024-06-06 05:39:32			0	40837	0	0	0	24124	22720	124928	27457	1003836	41283	108903	0	0	8445	451936	0	0
2024-06-06 05:40:32			0	40851	0	0	0	24122	22720	124892	27256	1003782	41305	108902	0	0	8446	451447	0	0
2024-06-06 05:41:32			0	40883	0	0	0	24122	22720	124848	27602	1003764	41284	108902	0	0	8447	450329	0	0
2024-06-06 05:42:32			0	40887	0	0	0	24132	22720	124812	27163	1003782	41283	108906	0	0	8447	450189	0	0
2024-06-06 05:43:32			0	40904	0	0	0	24127	22720	124844	27261	1003782	41272	108904	0	0	8448	449596	0	0
2024-06-06 05:44:32			0	40910	0	0	0	24129	22710	124820	27050	1003765	41294	108905	0	0	8449	449411	0	0
2024-06-06 05:45:32			0	40897	0	0	0	24122	22720	124700	27429	1003782	41272	108902	0	0	8448	449840	0	0
2024-06-06 05:46:32			0	40896	0	0	0	24122	22710	124644	27177	1003739	41283	108902	0	0	8448	449900	0	0
2024-06-06 05:47:32			0	40907	0	0	0	24119	22710	124680	27275	1003712	41283	108901	0	0	8449	449516	0	0
2024-06-06 05:48:32			0	40941	0	0	0	24114	22710	124676	27383	1003765	41283	108899	0	0	8450	448331	0	0
2024-06-06 05:49:32			0	40949	0	0	0	24116	22710	124676	27310	1003792	41283	108900	0	0	8451	448052	0	0
2024-06-06 05:50:32			0	40944	0	0	0	24119	22710	124636	27078	1003712	41294	108901	0	0	8450	448226	0	0
2024-06-06 05:51:32			0	40960	0	0	0	24114	22710	124556	27272	1003774	41294	108899	0	0	8451	447669	0	0
2024-06-06 05:52:32			0	40966	0	0	0	24111	22690	124584	27249	1003713	41269	108898	0	0	8452	447510	0	0
2024-06-06 05:53:32			0	40969	0	0	0	24098	22700	124592	27218	1003730	41282	108893	0	0	8452	447381	0	0
2024-06-06 05:54:32			0	40979	0	0	0	24106	22700	124540	27107	1003703	41293	108896	0	0	8452	447033	0	0
2024-06-06 05:55:32			0	40949	0	0	0	24101	22700	124596	27218	1003615	41282	108894	0	0	8451	448077	0	0
2024-06-06 05:56:32			0	40981	0	0	0	24101	22700	124516	27554	1003668	41282	108894	0	0	8453	446963	0	0
2024-06-06 05:57:32			0	40987	0	0	0	24096	22700	124580	27284	1003615	41270	108892	0	0	8453	446754	0	0
2024-06-06 05:58:32			0	40973	0	0	0	24096	22690	124620	27374	1003678	41291	108892	0	0	8452	447267	0	0
2024-06-06 05:59:32			0	40977	0	0	0	24085	22700	124524	27514	1003722	41292	108888	0	0	8453	447102	0	0
2024-06-06 06:00:32			0	40986	0	0	0	24085	22690	124516	27343	1003739	41281	108888	0	0	8453	446814	0	0
2024-06-06 06:01:32			0	40968	0	0	0	24088	22680	124552	27481	1003661	41280	108889	0	0	8452	447466	0	0
2024-06-06 06:02:32			0	40994	0	0	0	24077	22680	124544	27234	1003634	41280	108885	0	0	8454	446561	0	0
2024-06-06 06:03:32			0	40985	0	0	0	24080	22670	124536	27159	1003599	41279	108886	0	0	8453	446899	0	0
2024-06-06 06:04:32			0	40970	0	0	0	24070	22680	124512	27303	1003607	41280	108882	0	0	8453	447396	0	0
2024-06-06 06:05:32			0	40994	0	0	0	24072	22680	124544	27324	1003554	41291	108883	0	0	8454	446561	0	0
2024-06-06 06:06:32			0	40992	0	0	0	24072	22670	124520	27072	1003564	41279	108883	0	0	8454	446656	0	0
2024-06-06 06:07:32			0	41017	0	0	0	24062	22670	124608	27161	1003510	41290	108879	0	0	8455	445787	0	0
2024-06-06 06:08:32			0	40973	0	0	0	24062	22660	124496	26890	1003502	41279	108879	0	0	8453	447342	0	0
2024-06-06 06:09:32			0	40985	0	0	0	24057	22660	124496	27270	1003520	41278	108877	0	0	8453	446924	0	0
2024-06-06 06:10:32			0	41015	0	0	0	24046	22660	124564	27046	1003440	41267	108873	0	0	8455	445881	0	0
2024-06-06 06:11:32			0	41004	0	0	0	24044	22650	124492	27215	1003423	41288	108872	0	0	8455	446288	0	0
2024-06-06 06:12:32			0	41006	0	0	0	24041	22650	124468	26850	1003423	41277	108871	0	0	8455	446219	0	0
2024-06-06 06:13:32			0	41020	0	0	0	24041	22650	124532	27048	1003378	41288	108871	0	0	8456	445732	0	0
2024-06-06 06:14:32			0	41007	0	0	0	24038	22650	124532	26981	1003450	41266	108870	0	0	8455	446184	0	0
2024-06-06 06:15:32			0	41013	0	0	0	24044	22640	124508	27388	1003361	41299	108872	0	0	8455	446000	0	0
2024-06-06 06:16:32			0	40996	0	0	0	24038	22650	124532	26807	1003396	41288	108870	0	0	8454	446567	0	0
2024-06-06 06:17:32			0	41018	0	0	0	24036	22640	124432	27062	1003468	41288	108869	0	0	8456	445827	0	0
2024-06-06 06:18:32			0	40992	0	0	0	24023	22630	124376	27204	1003424	41286	108864	0	0	8454	446756	0	0
2024-06-06 06:19:32			0	41007	0	0	0	24036	22640	124428	27017	1003441	41266	108869	0	0	8455	446209	0	0
2024-06-06 06:20:32			0	41016	0	0	0	24025	22640	124424	27059	1003353	41276	108865	0	0	8456	445896	0	0
2024-06-06 06:21:32			0	41010	0	0	0	24023	22630	124452	27327	1003398	41286	108864	0	0	8455	446130	0	0
2024-06-06 06:22:32			0	41030	0	0	0	24025	22640	124488	26913	1003406	41287	108865	0	0	8456	445410	0	0
2024-06-06 06:23:32			0	41019	0	0	0	24025	22620	124460	27007	1003354	41274	108865	0	0	8456	445842	0	0
2024-06-06 06:24:32			0	41021	0	0	0	24023	22630	124484	26955	1003416	41274	108864	0	0	8456	445747	0	0
2024-06-06 06:25:32			0	41022	0	0	0	24031	22630	124448	27105	1003424	41264	108867	0	0	8456	445713	0	0
2024-06-06 06:26:32			0	41026	0	0	0	24023	22620	124384	27019	1003407	41274	108864	0	0	8456	445598	0	0
2024-06-06 06:27:32			0	41035	0	0	0	24028	22630	124344	27300	1003424	41275	108866	0	0	8456	445261	0	0
2024-06-06 06:28:32			0	41021	0	0	0	24025	22630	124292	27232	1003424	41275	108865	0	0	8456	445747	0	0
2024-06-06 06:29:32			0	41026	0	0	0	24033	22630	124352	27244	1003362	41274	108868	0	0	8456	445574	0	0
2024-06-06 06:30:32			0	41044	0	0	0	24033	22630	124280	27126	1003416	41286	108868	0	0	8457	444949	0	0
2024-06-06 06:31:32			0	41031	0	0	0	24038	22630	124272	27344	1003362	41286	108870	0	0	8456	445400	0	0
2024-06-06 06:32:32			0	41044	0	0	0	24031	22630	124324	27156	1003389	41286	108867	0	0	8457	444949	0	0
2024-06-06 06:33:32			0	41067	0	0	0	24036	22640	124340	27256	1003433	41287	108869	0	0	8458	444126	0	0
2024-06-06 06:34:32			0	41081	0	0	0	24036	22630	124284	27241	1003469	41296	108869	0	0	8459	443665	0	0
2024-06-06 06:35:32			0	41082	0	0	0	24046	22650	124288	26800	1003530	41277	108873	0	0	8459	443581	0	0
2024-06-06 06:36:32			0	41090	0	0	0	24051	22640	124244	26934	1003495	41288	108875	0	0	8459	443328	0	0
2024-06-06 06:37:32			0	41087	0	0	0	24054	22630	124176	27362	1003504	41286	108876	0	0	8459	443457	0	0
2024-06-06 06:38:32			0	41080	0	0	0	24057	22630	124184	27060	1003504	41286	108877	0	0	8458	443700	0	0
2024-06-06 06:39:32			0	41095	0	0	0	24075	22650	124172	27048	1003636	41299	108884	0	0	8459	443130	0	0
2024-06-06 06:40:32			0	41092	0	0	0	24085	22650	124236	27038	1003591	41288	108888	0	0	8459	443234	0	0
2024-06-06 06:41:32			0	41095	0	0	0	24093	22660	124152	27220	1003688	41300	108891	0	0	8459	443106	0	0
2024-06-06 06:42:32			0	41099	0	0	0	24111	22670	124208	27277	1003785	41300	108898	0	0	8459	442942	0	0
2024-06-06 06:43:32			0	41102	0	0	0	24122	22680	124184	27118	1003802	41302	108902	0	0	8459	442814	0	0
2024-06-06 06:44:32			0	41085	0	0	0	24135	22680	124152	27258	1003829	41313	108907	0	0	8458	443402	0	0
2024-06-06 06:45:32			0	41085	0	0	0	24142	22700	124060	27313	1003943	41304	108910	0	0	8457	443353	0	0
2024-06-06 06:46:32			0	41083	0	0	0	24153	22700	124108	27402	1003837	41304	108914	0	0	8457	443422	0	0
2024-06-06 06:47:32			0	41116	0	0	0	24155	22710	124144	27298	1003934	41305	108915	0	0	8459	442255	0	0
2024-06-06 06:48:32			0	41104	0	0	0	24158	22720	124020	27272	1003915	41294	108916	0	0	8458	442645	0	0
2024-06-06 06:49:32			0	41133	0	0	0	24153	22720	124076	27234	1003915	41294	108914	0	0	8460	441642	0	0
2024-06-06 06:50:32			0	41163	0	0	0	24161	22720	123980	27346	1004022	41305	108917	0	0	8461	440606	0	0
2024-06-06 06:51:32			0	41157	0	0	0	24166	22720	123960	27319	1003862	41294	108919	0	0	8461	440813	0	0
2024-06-06 06:52:32			0	41141	0	0	0	24153	22720	124016	27208	1003942	41305	108914	0	0	8460	441366	0	0
2024-06-06 06:53:32			0	41156	0	0	0	24161	22730	123900	27384	1003941	41307	108917	0	0	8461	440823	0	0
2024-06-06 06:54:32			0	41183	0	0	0	24161	22730	123860	27402	1003879	41295	108917	0	0	8462	439891	0	0
2024-06-06 06:55:32			0	41182	0	0	0	24166	22730	123964	27152	1003932	41295	108919	0	0	8462	439925	0	0
2024-06-06 06:56:32			0	41177	0	0	0	24171	22740	123872	27109	1003976	41307	108921	0	0	8462	440073	0	0
2024-06-06 06:57:32			0	41173	0	0	0	24173	22740	123884	27189	1003985	41296	108922	0	0	8462	440211	0	0
2024-06-06 06:58:32			0	41186	0	0	0	24171	22730	123928	27140	1003914	41307	108921	0	0	8462	439787	0	0
2024-06-06 06:59:32			0	41212	0	0	0	24168	22740	123904	27258	1003949	41307	108920	0	0	8464	438866	0	0
2024-06-06 07:00:32			0	41173	0	0	0	24171	22740	123868	27161	1004003	41295	108921	0	0	8462	440211	0	0
2024-06-06 07:01:32			0	41191	0	0	0	24179	22740	123828	27291	1004065	41308	108924	0	0	8463	439590	0	0
2024-06-06 07:02:32			0	41196	0	0	0	24168	22740	123828	27300	1004011	41308	108920	0	0	8463	439418	0	0
2024-06-06 07:03:32			0	41180	0	0	0	24168	22750	123804	27111	1004046	41297	108920	0	0	8462	439945	0	0
2024-06-06 07:04:32			0	41202	0	0	0	24166	22750	123836	27003	1004073	41308	108919	0	0	8463	439186	0	0
2024-06-06 07:05:32			0	41217	0	0	0	24168	22760	123816	27093	1004063	41287	108920	0	0	8464	438645	0	0
2024-06-06 07:06:32			0	41229	0	0	0	24176	22750	123784	27312	1004020	41308	108923	0	0	8465	438256	0	0
2024-06-06 07:07:32			0	41231	0	0	0	24179	22760	123708	27345	1004125	41309	108924	0	0	8465	438163	0	0
2024-06-06 07:08:32			0	41234	0	0	0	24179	22760	123720	27369	1004099	41298	108924	0	0	8465	438059	0	0
2024-06-06 07:09:32			0	41233	0	0	0	24184	22770	123608	27395	1004080	41322	108926	0	0	8465	438069	0	0
2024-06-06 07:10:32			0	41268	0	0	0	24179	22760	123644	27412	1004072	41309	108924	0	0	8467	436890	0	0
2024-06-06 07:11:32			0	41277	0	0	0	24186	22760	123520	27204	1004090	41297	108927	0	0	8467	436580	0	0
2024-06-06 07:12:32			0	41284	0	0	0	24184	22770	123524	27306	1004080	41299	108926	0	0	8468	436315	0	0
2024-06-06 07:13:32			0	41314	0	0	0	24181	22770	123572	27390	1004080	41299	108925	0	0	8469	435285	0	0
2024-06-06 07:14:32			0	41330	0	0	0	24184	22770	123556	27293	1004080	41310	108926	0	0	8470	434736	0	0
2024-06-06 07:15:32			0	41309	0	0	0	24197	22770	123488	27448	1004089	41299	108931	0	0	8469	435457	0	0
2024-06-06 07:16:32			0	41333	0	0	0	24186	22780	123408	27150	1004097	41311	108927	0	0	8470	434609	0	0
2024-06-06 07:17:32			0	41344	0	0	0	24197	22770	123380	27471	1004089	41299	108931	0	0	8470	434256	0	0
2024-06-06 07:18:32			0	41374	0	0	0	24205	22780	123316	27336	1004124	41300	108934	0	0	8472	433205	0	0
2024-06-06 07:19:32			0	41417	0	0	0	24194	22790	123304	27088	1004141	41312	108930	0	0	8474	431710	0	0
2024-06-06 07:20:32			0	41438	0	0	0	24197	22790	123225	27128	1004203	41313	108931	0	0	8476	430992	0	0
2024-06-06 07:21:32			0	41421	0	0	0	24194	22790	123136	27074	1004114	41301	108930	0	0	8475	431573	0	0
2024-06-06 07:22:32			0	41473	0	0	0	24194	22780	123109	27261	1004186	41300	108930	0	0	8477	429822	0	0
2024-06-06 07:23:32			0	41467	0	0	0	24205	22780	123077	27244	1004133	41311	108934	0	0	8477	430027	0	0
2024-06-06 07:24:32			0	41462	0	0	0	24194	22790	123061	27007	1004168	41301	108930	0	0	8477	430173	0	0
2024-06-06 07:25:32			0	41493	0	0	0	24197	22780	122953	27313	1004106	41300	108931	0	0	8478	429141	0	0
2024-06-06 07:26:32			0	41520	0	0	0	24194	22780	123001	27145	1004106	41311	108930	0	0	8480	428221	0	0
2024-06-06 07:27:32			0	41516	0	0	0	24192	22780	122941	26953	1004106	41300	108929	0	0	8480	428358	0	0
2024-06-06 07:28:32			0	41542	0	0	0	24186	22780	122861	27171	1004106	41300	108927	0	0	8481	427473	0	0
2024-06-06 07:29:32			0	41546	0	0	0	24186	22780	122765	27414	1004071	41311	108927	0	0	8481	427337	0	0
2024-06-06 07:30:32			0	41577	0	0	0	24179	22770	122833	26852	1004036	41299	108924	0	0	8483	426308	0	0
2024-06-06 07:31:32			0	41575	0	0	0	24173	22770	122853	27057	1004036	41299	108922	0	0	8483	426375	0	0
2024-06-06 07:32:32			0	41576	0	0	0	24166	22770	122733	27196	1004009	41299	108919	0	0	8483	426342	0	0
2024-06-06 07:33:32			0	41605	0	0	0	24158	22750	122801	27085	1003940	41297	108916	0	0	8485	425405	0	0
2024-06-06 07:34:32			0	41585	0	0	0	24163	22760	122749	27093	1003992	41298	108918	0	0	8484	426060	0	0
2024-06-06 07:35:32			0	41602	0	0	0	24158	22760	122805	27194	1003885	41309	108916	0	0	8485	425483	0	0
2024-06-06 07:36:32			0	41589	0	0	0	24145	22760	122757	27360	1004037	41297	108911	0	0	8484	425924	0	0
2024-06-06 07:37:32			0	41581	0	0	0	24140	22750	122833	27421	1003940	41297	108909	0	0	8484	426219	0	0
2024-06-06 07:38:32			0	41579	0	0	0	24135	22740	122837	27358	1003896	41307	108907	0	0	8484	426311	0	0
2024-06-06 07:39:32			0	41568	0	0	0	24132	22740	122797	27135	1003923	41307	108906	0	0	8483	426685	0	0
2024-06-06 07:40:32			0	41543	0	0	0	24129	22740	122761	27298	1003923	41295	108905	0	0	8482	427535	0	0
2024-06-06 07:41:32			0	41548	0	0	0	24127	22730	122893	27357	1003879	41307	108904	0	0	8482	427388	0	0
2024-06-06 07:42:32			0	41519	0	0	0	24127	22730	122889	27417	1003852	41295	108904	0	0	8481	428375	0	0
2024-06-06 07:43:32			0	41515	0	0	0	24135	22730	122881	26915	1003914	41307	108907	0	0	8480	428512	0	0
2024-06-06 07:44:32			0	41507	0	0	0	24127	22730	122981	27249	1003906	41295	108904	0	0	8480	428784	0	0
2024-06-06 07:45:32			0	41488	0	0	0	24127	22720	123061	26977	1003871	41294	108904	0	0	8479	429455	0	0
2024-06-06 07:46:32			0	41481	0	0	0	24124	22730	123065	27133	1003852	41307	108903	0	0	8479	429670	0	0
2024-06-06 07:47:32			0	41465	0	0	0	24132	22720	123101	27306	1003924	41294	108906	0	0	8478	430240	0	0
2024-06-06 07:48:32			0	41447	0	0	0	24129	22720	123173	27369	1003889	41294	108905	0	0	8477	430854	0	0
2024-06-06 07:49:32			0	41424	0	0	0	24132	22730	123124	27261	1003906	41295	108906	0	0	8476	431615	0	0
2024-06-06 07:50:32			0	41435	0	0	0	24135	22720	123277	27137	1003924	41294	108907	0	0	8476	431264	0	0
2024-06-06 07:51:32			0	41413	0	0	0	24137	22730	123356	27164	1003879	41285	108908	0	0	8475	431992	0	0
2024-06-06 07:52:32			0	41378	0	0	0	24135	22730	123404	27105	1003968	41295	108907	0	0	8473	433189	0	0
2024-06-06 07:53:32			0	41353	0	0	0	24145	22730	123392	27142	1003941	41318	108911	0	0	8472	434045	0	0
2024-06-06 07:54:32			0	41359	0	0	0	24150	22730	123392	27331	1003968	41295	108913	0	0	8472	433840	0	0
2024-06-06 07:55:32			0	41356	0	0	0	24161	22740	123444	27405	1004011	41319	108917	0	0	8472	433918	0	0
2024-06-06 07:56:32			0	41344	0	0	0	24158	22740	123408	27390	1004056	41295	108916	0	0	8471	434329	0	0
2024-06-06 07:57:32			0	41294	0	0	0	24171	22740	123516	27333	1004065	41308	108921	0	0	8468	436045	0	0
2024-06-06 07:58:32			0	41286	0	0	0	24176	22750	123632	27131	1004055	41308	108923	0	0	8468	436295	0	0
2024-06-06 07:59:32			0	41294	0	0	0	24184	22770	123580	27239	1004134	41310	108926	0	0	8468	435972	0	0
2024-06-06 08:00:32			0	41247	0	0	0	24199	22770	123624	27104	1004187	41310	108932	0	0	8465	437587	0	0
2024-06-06 08:01:32			0	41259	0	0	0	24210	22780	123720	27239	1004177	41311	108936	0	0	8466	437150	0	0
2024-06-06 08:02:32			0	41215	0	0	0	24212	22770	123820	27370	1004169	41310	108937	0	0	8463	438689	0	0
2024-06-06 08:03:32			0	41231	0	0	0	24220	22790	123824	27320	1004274	41301	108940	0	0	8464	438089	0	0
2024-06-06 08:04:32			0	41211	0	0	0	24220	22780	123848	27393	1004186	41290	108940	0	0	8463	438802	0	0
2024-06-06 08:05:32			0	41178	0	0	0	24212	22790	123848	27007	1004230	41313	108937	0	0	8462	439915	0	0
2024-06-06 08:06:32			0	41201	0	0	0	24223	22790	123856	26942	1004230	41313	108941	0	0	8463	439122	0	0
2024-06-06 08:07:32			0	41181	0	0	0	24215	22790	123972	27097	1004230	41313	108938	0	0	8462	439812	0	0
2024-06-06 08:08:32			0	41159	0	0	0	24210	22800	123988	27298	1004273	41302	108936	0	0	8461	440546	0	0
2024-06-06 08:09:32			0	41134	0	0	0	24210	22790	123948	27031	1004203	41302	108936	0	0	8459	441435	0	0
2024-06-06 08:10:32			0	41141	0	0	0	24215	22790	123976	27046	1004203	41313	108938	0	0	8460	441193	0	0
2024-06-06 08:11:32			0	41147	0	0	0	24199	22800	124032	27279	1004318	41291	108932	0	0	8460	440961	0	0
2024-06-06 08:12:32			0	41160	0	0	0	24205	22790	124068	27180	1004256	41324	108934	0	0	8461	440537	0	0
2024-06-06 08:13:32			0	41155	0	0	0	24210	22790	124040	27248	1004194	41323	108936	0	0	8460	440709	0	0
2024-06-06 08:14:32			0	41137	0	0	0	24202	22800	124036	27364	1004158	41302	108933	0	0	8460	441306	0	0
2024-06-06 08:15:32			0	41118	0	0	0	24197	22790	124052	27182	1004123	41302	108931	0	0	8459	441988	0	0
2024-06-06 08:16:32			0	41140	0	0	0	24192	22780	124088	27062	1004133	41300	108929	0	0	8460	441252	0	0
2024-06-06 08:17:32			0	41137	0	0	0	24189	22790	124160	27183	1004061	41301	108928	0	0	8460	441331	0	0
2024-06-06 08:18:32			0	41115	0	0	0	24184	22780	124140	26923	1004106	41311	108926	0	0	8459	442116	0	0
2024-06-06 08:19:32			0	41142	0	0	0	24189	22780	124076	27057	1004151	41311	108928	0	0	8460	441183	0	0
2024-06-06 08:20:32			0	41114	0	0	0	24173	22780	124084	27076	1004097	41300	108922	0	0	8459	442151	0	0
2024-06-06 08:21:32			0	41113	0	0	0	24173	22780	124168	27267	1004106	41290	108922	0	0	8459	442185	0	0
2024-06-06 08:22:32			0	41101	0	0	0	24166	22770	124148	27289	1004089	41299	108919	0	0	8458	442625	0	0
2024-06-06 08:23:32			0	41105	0	0	0	24168	22770	124168	27052	1004089	41310	108920	0	0	8458	442487	0	0
2024-06-06 08:24:32			0	41104	0	0	0	24168	22760	124112	27241	1004099	41298	108920	0	0	8458	442546	0	0
2024-06-06 08:25:32			0	41111	0	0	0	24166	22760	124160	27242	1004072	41309	108919	0	0	8459	442304	0	0
2024-06-06 08:26:32			0	41097	0	0	0	24168	22770	124180	27440	1004107	41299	108920	0	0	8458	442764	0	0
2024-06-06 08:27:32			0	41104	0	0	0	24173	22770	124208	27350	1004054	41299	108922	0	0	8458	442521	0	0
2024-06-06 08:28:32			0	41098	0	0	0	24168	22770	124208	27405	1004134	41299	108920	0	0	8458	442729	0	0
2024-06-06 08:29:32			0	41097	0	0	0	24173	22760	124156	26838	1004090	41308	108922	0	0	8458	442789	0	0
2024-06-06 08:30:32			0	41062	0	0	0	24176	22760	124216	27428	1004072	41309	108923	0	0	8456	444001	0	0
2024-06-06 08:31:32			0	41083	0	0	0	24179	22770	124212	27502	1004116	41322	108924	0	0	8457	443248	0	0
2024-06-06 08:32:32			0	41081	0	0	0	24173	22760	124208	27341	1004045	41298	108922	0	0	8457	443342	0	0
2024-06-06 08:33:32			0	41079	0	0	0	24173	22760	124136	27209	1004152	41298	108922	0	0	8457	443412	0	0
2024-06-06 08:34:32			0	41065	0	0	0	24176	22760	124192	27095	1004099	41309	108923	0	0	8456	443897	0	0
2024-06-06 08:35:32			0	41078	0	0	0	24181	22770	124240	27232	1004080	41322	108925	0	0	8457	443422	0	0
2024-06-06 08:36:32			0	41098	0	0	0	24176	22760	124236	27119	1004072	41309	108923	0	0	8458	442754	0	0
2024-06-06 08:37:32			0	41086	0	0	0	24189	22770	124216	27512	1004116	41310	108928	0	0	8457	443145	0	0
2024-06-06 08:38:32			0	41080	0	0	0	24186	22770	124200	27488	1004134	41322	108927	0	0	8457	443352	0	0
2024-06-06 08:39:32			0	41083	0	0	0	24194	22780	124192	27126	1004159	41322	108930	0	0	8457	443224	0	0
2024-06-06 08:40:32			0	41073	0	0	0	24192	22780	124216	27270	1004213	41322	108929	0	0	8456	443570	0	0
2024-06-06 08:41:32			0	41098	0	0	0	24202	22780	124100	27216	1004257	41311	108933	0	0	8457	442704	0	0
2024-06-06 08:42:32			0	41119	0	0	0	24215	22790	124176	27303	1004301	41323	108938	0	0	8458	441953	0	0
2024-06-06 08:43:32			0	41113	0	0	0	24215	22800	124024	27352	1004353	41313	108938	0	0	8458	442136	0	0
2024-06-06 08:44:32			0	41135	0	0	0	24233	22800	124008	27074	1004398	41313	108945	0	0	8459	441375	0	0
2024-06-06 08:45:32			0	41127	0	0	0	24236	22810	124124	27358	1004362	41314	108946	0	0	8459	441627	0	0
2024-06-06 08:46:32			0	41130	0	0	0	24251	22810	124144	27178	1004397	41315	108952	0	0	8458	441523	0	0
2024-06-06 08:47:32			0	41144	0	0	0	24259	22830	124100	27071	1004476	41327	108955	0	0	8459	440990	0	0
2024-06-06 08:48:32			0	41157	0	0	0	24270	22830	123980	27338	1004476	41316	108959	0	0	8460	440541	0	0
2024-06-06 08:49:32			0	41168	0	0	0	24283	22830	123972	27183	1004556	41316	108964	0	0	8460	440162	0	0
2024-06-06 08:50:32			0	41167	0	0	0	24298	22850	123896	27242	1004590	41317	108970	0	0	8460	440147	0	0
2024-06-06 08:51:32			0	41148	0	0	0	24309	22860	123832	27105	1004581	41330	108974	0	0	8459	440778	0	0
2024-06-06 08:52:32			0	41211	0	0	0	24314	22860	123840	27336	1004661	41330	108976	0	0	8462	438606	0	0
2024-06-06 08:53:32			0	41227	0	0	0	24322	22880	123732	27248	1004606	41331	108979	0	0	8463	438006	0	0
2024-06-06 08:54:32			0	41264	0	0	0	24335	22880	123672	27441	1004686	41309	108984	0	0	8464	436733	0	0
2024-06-06 08:55:32			0	41285	0	0	0	24324	22890	123592	27492	1004756	41310	108980	0	0	8466	435988	0	0
2024-06-06 08:56:32			0	41318	0	0	0	24332	22880	123432	27611	1004721	41321	108983	0	0	8467	434880	0	0
2024-06-06 08:57:32			0	41363	0	0	0	24335	22900	123368	27296	1004747	41344	108984	0	0	8470	433290	0	0
2024-06-06 08:58:32			0	41414	0	0	0	24342	22900	123232	27305	1004800	41322	108987	0	0	8472	431546	0	0
2024-06-06 08:59:32			0	41424	0	0	0	24342	22900	123128	27383	1004809	41312	108987	0	0	8473	431205	0	0
2024-06-06 09:00:32			0	41435	0	0	0	24340	22910	123137	27367	1004870	41333	108986	0	0	8473	430805	0	0
2024-06-06 09:01:32			0	41464	0	0	0	24348	22920	123105	27395	1004861	41312	108989	0	0	8475	429792	0	0
2024-06-06 09:02:32			0	41493	0	0	0	24350	22910	122993	27396	1004772	41334	108990	0	0	8476	428828	0	0
2024-06-06 09:03:32			0	41524	0	0	0	24355	22920	122969	27235	1004896	41325	108992	0	0	8478	427750	0	0
2024-06-06 09:04:32			0	41530	0	0	0	24353	22920	122857	27253	1004816	41325	108991	0	0	8478	427546	0	0
2024-06-06 09:05:32			0	41553	0	0	0	24353	22920	122861	27086	1004869	41313	108991	0	0	8480	426764	0	0
2024-06-06 09:06:32			0	41538	0	0	0	24355	22930	122861	27161	1004913	41326	108992	0	0	8479	427250	0	0
2024-06-06 09:07:32			0	41539	0	0	0	24353	22930	122889	27312	1004886	41336	108991	0	0	8479	427216	0	0
2024-06-06 09:08:32			0	41537	0	0	0	24358	22930	122909	27197	1004904	41335	108993	0	0	8479	427284	0	0
2024-06-06 09:09:32			0	41529	0	0	0	24355	22940	122861	27074	1004841	41326	108992	0	0	8478	427532	0	0
2024-06-06 09:10:32			0	41510	0	0	0	24361	22920	122913	26975	1004896	41325	108994	0	0	8477	428226	0	0
2024-06-06 09:11:32			0	41513	0	0	0	24355	22930	122905	27507	1004860	41326	108992	0	0	8477	428100	0	0
2024-06-06 09:12:32			0	41497	0	0	0	24361	22940	122869	27123	1004895	41336	108994	0	0	8476	428620	0	0
2024-06-06 09:13:32			0	41498	0	0	0	24366	22940	122977	26916	1004868	41326	108996	0	0	8476	428586	0	0
2024-06-06 09:14:32			0	41495	0	0	0	24355	22950	123029	27220	1004965	41337	108992	0	0	8477	428664	0	0
2024-06-06 09:15:32			0	41479	0	0	0	24368	22940	123001	27320	1004903	41348	108997	0	0	8475	429233	0	0
2024-06-06 09:16:32			0	41456	0	0	0	24355	22940	123073	26987	1004948	41326	108992	0	0	8474	430017	0	0
2024-06-06 09:17:32			0	41448	0	0	0	24350	22930	123145	27274	1004851	41325	108990	0	0	8474	430313	0	0
2024-06-06 09:18:32			0	41419	0	0	0	24353	22940	123132	27124	1004850	41326	108991	0	0	8472	431279	0	0
2024-06-06 09:19:32			0	41427	0	0	0	24353	22930	123121	26896	1004886	41326	108991	0	0	8473	431030	0	0
2024-06-06 09:20:32			0	41425	0	0	0	24353	22940	123148	27036	1004868	41314	108991	0	0	8473	431074	0	0
2024-06-06 09:21:32			0	41426	0	0	0	24350	22930	123184	27107	1004940	41326	108990	0	0	8473	431064	0	0
2024-06-06 09:22:32			0	41421	0	0	0	24350	22930	123160	27272	1004860	41336	108990	0	0	8473	431235	0	0
2024-06-06 09:23:32			0	41429	0	0	0	24348	22940	123196	27398	1004868	41326	108989	0	0	8473	430938	0	0
2024-06-06 09:24:32			0	41408	0	0	0	24350	22940	123152	27414	1004868	41336	108990	0	0	8472	431654	0	0
2024-06-06 09:25:32			0	41406	0	0	0	24342	22930	123212	27043	1004886	41326	108987	0	0	8472	431747	0	0
2024-06-06 09:26:32			0	41395	0	0	0	24345	22930	123252	26967	1004878	41335	108988	0	0	8471	432123	0	0
2024-06-06 09:27:32			0	41399	0	0	0	24350	22940	123276	27097	1004957	41326	108990	0	0	8471	431962	0	0
2024-06-06 09:28:32			0	41372	0	0	0	24342	22940	123264	27149	1004815	41336	108987	0	0	8470	432885	0	0
2024-06-06 09:29:32			0	41363	0	0	0	24353	22950	123252	27393	1004912	41326	108991	0	0	8470	433169	0	0
2024-06-06 09:30:32			0	41375	0	0	0	24348	22940	123208	27149	1004841	41314	108989	0	0	8470	432782	0	0
2024-06-06 09:31:32			0	41360	0	0	0	24353	22940	123232	27135	1004903	41337	108991	0	0	8469	433295	0	0
2024-06-06 09:32:32			0	41345	0	0	0	24337	22940	123312	27360	1004877	41326	108985	0	0	8469	433809	0	0
2024-06-06 09:33:32			0	41348	0	0	0	24340	22930	123268	27234	1004878	41313	108986	0	0	8469	433730	0	0
2024-06-06 09:34:32			0	41365	0	0	0	24337	22940	123292	27100	1004850	41348	108985	0	0	8470	433124	0	0
2024-06-06 09:35:32			0	41358	0	0	0	24332	22930	123256	27391	1004824	41325	108983	0	0	8470	433388	0	0
2024-06-06 09:36:32			0	41360	0	0	0	24337	22930	123364	27291	1004824	41346	108985	0	0	8470	433320	0	0
2024-06-06 09:37:32			0	41349	0	0	0	24345	22920	123228	27412	1004843	41325	108988	0	0	8469	433721	0	0
2024-06-06 09:38:32			0	41366	0	0	0	24335	22930	123248	27076	1004851	41335	108984	0	0	8470	433114	0	0
2024-06-06 09:39:32			0	41344	0	0	0	24329	22930	123304	27118	1004824	41335	108982	0	0	8469	433867	0	0
2024-06-06 09:40:32			0	41380	0	0	0	24340	22930	123212	27007	1004851	41325	108986	0	0	8471	432635	0	0
2024-06-06 09:41:32			0	41389	0	0	0	24329	22930	123364	27159	1004824	41325	108982	0	0	8471	432328	0	0
2024-06-06 09:42:32			0	41385	0	0	0	24329	22920	123268	27010	1004843	41335	108982	0	0	8471	432489	0	0
2024-06-06 09:43:32			0	41381	0	0	0	24327	22930	123268	27045	1004753	41336	108981	0	0	8471	432601	0	0
2024-06-06 09:44:32			0	41385	0	0	0	24327	22920	123256	27100	1004789	41325	108981	0	0	8471	432489	0	0
2024-06-06 09:45:32			0	41402	0	0	0	24327	22920	123212	26951	1004781	41312	108981	0	0	8472	431908	0	0
2024-06-06 09:46:32			0	41407	0	0	0	24327	22910	123236	27320	1004826	41312	108981	0	0	8472	431761	0	0
2024-06-06 09:47:32			0	41397	0	0	0	24316	22930	123180	27313	1004771	41335	108977	0	0	8472	432055	0	0
2024-06-06 09:48:32			0	41408	0	0	0	24324	22920	123172	27277	1004807	41334	108980	0	0	8472	431703	0	0
2024-06-06 09:49:32			0	41402	0	0	0	24322	22920	123156	27460	1004736	41335	108979	0	0	8472	431908	0	0
2024-06-06 09:50:32			0	41418	0	0	0	24316	22920	123192	27251	1004781	41345	108977	0	0	8473	431361	0	0
2024-06-06 09:51:32			0	41404	0	0	0	24324	22910	123164	27270	1004826	41324	108980	0	0	8472	431864	0	0
2024-06-06 09:52:32			0	41419	0	0	0	24319	22910	123204	26989	1004772	41324	108978	0	0	8473	431351	0	0
2024-06-06 09:53:32			0	41419	0	0	0	24322	22920	123124	27293	1004807	41324	108979	0	0	8473	431327	0	0
2024-06-06 09:54:32			0	41420	0	0	0	24329	22920	123140	27303	1004834	41334	108982	0	0	8473	431293	0	0
2024-06-06 09:55:32			0	41416	0	0	0	24327	22930	123104	27100	1004904	41335	108981	0	0	8473	431405	0	0
2024-06-06 09:56:32			0	41437	0	0	0	24350	22920	123217	27357	1004949	41335	108990	0	0	8473	430713	0	0
2024-06-06 09:57:32			0	41423	0	0	0	24371	22940	123184	27293	1004921	41336	108998	0	0	8472	431142	0	0
2024-06-06 09:58:32			0	41440	0	0	0	24368	22940	123105	27357	1004957	41348	108997	0	0	8473	430562	0	0
2024-06-06 09:59:32			0	41447	0	0	0	24381	22940	123017	27381	1005063	41337	109002	0	0	8473	430323	0	0
2024-06-06 10:00:32			0	41465	0	0	0	24397	22960	123061	27215	1005116	41349	109008	0	0	8474	429662	0	0
2024-06-06 10:01:32			0	41443	0	0	0	24412	22970	123037	27019	1005213	41339	109014	0	0	8473	430387	0	0
2024-06-06 10:02:32			0	41470	0	0	0	24449	22990	123021	27182	1005255	41353	109028	0	0	8474	429419	0	0
2024-06-06 10:03:32			0	41497	0	0	0	24459	23000	122909	27098	1005272	41342	109032	0	0	8475	428476	0	0
2024-06-06 10:04:32			0	41492	0	0	0	24475	23010	122989	27213	1005361	41354	109038	0	0	8475	428622	0	0
2024-06-06 10:05:32			0	41485	0	0	0	24483	23020	122853	27350	1005458	41355	109041	0	0	8474	428836	0	0
2024-06-06 10:06:32			0	41509	0	0	0	24490	23020	122881	27454	1005466	41356	109044	0	0	8475	428020	0	0
2024-06-06 10:07:32			0	41498	0	0	0	24490	23040	122841	27124	1005519	41346	109044	0	0	8475	428346	0	0
2024-06-06 10:08:32			0	41517	0	0	0	24496	23040	122773	27175	1005527	41347	109046	0	0	8476	427700	0	0
2024-06-06 10:09:32			0	41510	0	0	0	24496	23040	122841	27348	1005492	41346	109046	0	0	8475	427938	0	0
2024-06-06 10:10:32			0	41514	0	0	0	24493	23040	122781	27281	1005474	41358	109045	0	0	8476	427802	0	0
2024-06-06 10:11:32			0	41519	0	0	0	24496	23050	122745	27045	1005411	41347	109046	0	0	8476	427608	0	0
2024-06-06 10:12:32			0	41538	0	0	0	24488	23050	122685	27185	1005464	41358	109043	0	0	8477	426963	0	0
2024-06-06 10:13:32			0	41538	0	0	0	24488	23050	122685	27306	1005491	41347	109043	0	0	8477	426963	0	0
2024-06-06 10:14:32			0	41533	0	0	0	24493	23060	122733	27345	1005553	41347	109045	0	0	8477	427108	0	0
2024-06-06 10:15:32			0	41529	0	0	0	24483	23060	122625	27173	1005473	41336	109041	0	0	8477	427244	0	0
2024-06-06 10:16:32			0	41514	0	0	0	24472	23050	122729	27204	1005544	41358	109037	0	0	8476	427778	0	0
2024-06-06 10:17:32			0	41523	0	0	0	24470	23060	122733	27107	1005401	41360	109036	0	0	8476	427448	0	0
2024-06-06 10:18:32			0	41530	0	0	0	24467	23060	122689	27093	1005454	41348	109035	0	0	8477	427210	0	0
2024-06-06 10:19:32			0	41528	0	0	0	24464	23060	122781	27286	1005419	41347	109034	0	0	8477	427278	0	0
2024-06-06 10:20:32			0	41520	0	0	0	24451	23050	122733	27320	1005429	41335	109029	0	0	8477	427574	0	0
2024-06-06 10:21:32			0	41527	0	0	0	24446	23040	122777	27248	1005420	41347	109027	0	0	8477	427360	0	0
2024-06-06 10:22:32			0	41506	0	0	0	24436	23040	122781	27237	1005278	41334	109023	0	0	8476	428074	0	0
2024-06-06 10:23:32			0	41525	0	0	0	24438	23040	122749	27291	1005332	41334	109024	0	0	8477	427428	0	0
2024-06-06 10:24:32			0	41515	0	0	0	24431	23040	122761	27364	1005252	41357	109021	0	0	8477	427768	0	0
2024-06-06 10:25:32			0	41519	0	0	0	24428	23040	122677	27008	1005314	41358	109020	0	0	8477	427632	0	0
2024-06-06 10:26:32			0	41536	0	0	0	24431	23030	122773	27227	1005243	41323	109021	0	0	8478	427078	0	0
2024-06-06 10:27:32			0	41520	0	0	0	24423	23030	122793	27059	1005323	41334	109018	0	0	8477	427622	0	0
2024-06-06 10:28:32			0	41522	0	0	0	24431	23030	122729	27277	1005261	41334	109021	0	0	8477	427554	0	0
2024-06-06 10:29:32			0	41544	0	0	0	24415	23030	122785	27281	1005261	41345	109015	0	0	8478	426807	0	0
2024-06-06 10:30:32			0	41548	0	0	0	24415	23020	122729	27256	1005253	41345	109015	0	0	8479	426695	0	0
2024-06-06 10:31:32			0	41535	0	0	0	24425	23020	122729	27320	1005191	41355	109019	0	0	8478	427136	0	0
2024-06-06 10:32:32			0	41524	0	0	0	24420	23020	122725	27301	1005253	41345	109017	0	0	8477	427510	0	0
2024-06-06 10:33:32			0	41528	0	0	0	24428	23030	122721	27190	1005395	41356	109020	0	0	8477	427350	0	0
2024-06-06 10:34:32			0	41553	0	0	0	24438	23030	122701	27092	1005403	41356	109024	0	0	8479	426501	0	0
2024-06-06 10:35:32			0	41568	0	0	0	24441	23040	122681	27346	1005439	41346	109025	0	0	8479	425968	0	0
2024-06-06 10:36:32			0	41562	0	0	0	24441	23030	122641	27417	1005395	41356	109025	0	0	8479	426196	0	0
2024-06-06 10:37:32			0	41547	0	0	0	24454	23040	122653	27298	1005465	41357	109030	0	0	8478	426681	0	0
2024-06-06 10:38:32			0	41548	0	0	0	24475	23040	122709	27459	1005492	41357	109038	0	0	8478	426647	0	0
2024-06-06 10:39:32			0	41559	0	0	0	24480	23050	122677	27104	1005517	41358	109040	0	0	8478	426250	0	0
2024-06-06 10:40:32			0	41537	0	0	0	24488	23050	122601	26989	1005624	41358	109043	0	0	8477	426996	0	0
2024-06-06 10:41:32			0	41547	0	0	0	24503	23070	122649	26948	1005605	41349	109049	0	0	8477	426609	0	0
2024-06-06 10:42:32			0	41576	0	0	0	24506	23060	122637	27211	1005588	41360	109050	0	0	8479	425649	0	0
2024-06-06 10:43:32			0	41585	0	0	0	24514	23070	122645	27142	1005650	41360	109053	0	0	8479	425320	0	0
2024-06-06 10:44:32			0	41576	0	0	0	24519	23070	122629	27331	1005605	41361	109055	0	0	8479	425625	0	0
2024-06-06 10:45:32			0	41604	0	0	0	24532	23090	122573	27383	1005657	41351	109060	0	0	8480	424629	0	0
2024-06-06 10:46:32			0	41600	0	0	0	24537	23080	122517	27416	1005702	41373	109062	0	0	8480	424788	0	0
2024-06-06 10:47:32			0	41586	0	0	0	24550	23100	122541	27280	1005736	41363	109067	0	0	8479	425215	0	0
2024-06-06 10:48:32			0	41594	0	0	0	24545	23110	122493	27300	1005745	41353	109065	0	0	8479	424920	0	0
2024-06-06 10:49:32			0	41581	0	0	0	24555	23120	122501	27185	1005788	41375	109069	0	0	8478	425336	0	0
2024-06-06 10:50:32			0	41590	0	0	0	24568	23110	122557	27229	1005806	41364	109074	0	0	8479	425055	0	0
2024-06-06 10:51:32			0	41585	0	0	0	24579	23130	122565	27400	1005859	41366	109078	0	0	8478	425177	0	0
2024-06-06 10:52:32			0	41593	0	0	0	24584	23140	122557	27322	1005902	41388	109080	0	0	8479	424882	0	0
2024-06-06 10:53:32			0	41585	0	0	0	24584	23140	122549	27536	1006009	41366	109080	0	0	8478	425153	0	0
2024-06-06 10:54:32			0	41551	0	0	0	24599	23150	122601	27464	1006035	41369	109086	0	0	8476	426282	0	0
2024-06-06 10:55:32			0	41575	0	0	0	24610	23160	122613	27121	1006043	41357	109090	0	0	8477	425444	0	0
2024-06-06 10:56:32			0	41568	0	0	0	24610	23160	122577	27448	1006070	41379	109090	0	0	8477	425681	0	0
2024-06-06 10:57:32			0	41575	0	0	0	24623	23180	122553	27582	1006069	41381	109095	0	0	8477	425396	0	0
2024-06-06 10:58:32			0	41562	0	0	0	24625	23190	122557	27225	1006139	41370	109096	0	0	8476	425813	0	0
2024-06-06 10:59:32			0	41565	0	0	0	24636	23190	122457	27090	1006166	41381	109100	0	0	8476	425712	0	0
2024-06-06 11:00:32			0	41576	0	0	0	24638	23200	122577	27365	1006156	41394	109101	0	0	8477	425315	0	0
2024-06-06 11:01:32			0	41584	0	0	0	24638	23200	122481	27376	1006192	41383	109101	0	0	8477	425044	0	0
2024-06-06 11:02:32			0	41606	0	0	0	24644	23200	122493	27244	1006245	41372	109103	0	0	8478	424299	0	0
2024-06-06 11:03:32			0	41620	0	0	0	24651	23200	122441	27464	1006192	41372	109106	0	0	8479	423826	0	0
2024-06-06 11:04:32			0	41622	0	0	0	24644	23210	122341	27263	1006209	41373	109103	0	0	8479	423734	0	0
2024-06-06 11:05:32			0	41638	0	0	0	24654	23220	122369	27187	1006190	41374	109107	0	0	8480	423169	0	0
2024-06-06 11:06:32			0	41629	0	0	0	24654	23220	122401	27362	1006252	41375	109107	0	0	8480	423474	0	0
2024-06-06 11:07:32			0	41646	0	0	0	24667	23220	122313	26993	1006324	41384	109112	0	0	8480	422899	0	0
2024-06-06 11:08:32			0	41649	0	0	0	24664	23220	122317	27216	1006270	41396	109111	0	0	8481	422798	0	0
2024-06-06 11:09:32			0	41661	0	0	0	24672	23240	122305	27215	1006251	41386	109114	0	0	8481	422345	0	0
2024-06-06 11:10:32			0	41636	0	0	0	24667	23230	122257	27202	1006323	41375	109112	0	0	8480	423213	0	0
2024-06-06 11:11:32			0	41637	0	0	0	24670	23240	122353	27111	1006358	41386	109113	0	0	8480	423156	0	0
2024-06-06 11:12:32			0	41604	0	0	0	24675	23240	122393	27135	1006366	41376	109115	0	0	8478	424272	0	0
2024-06-06 11:13:32			0	41625	0	0	0	24677	23240	122369	27301	1006340	41387	109116	0	0	8479	423561	0	0
2024-06-06 11:14:32			0	41598	0	0	0	24675	23250	122429	27171	1006375	41387	109115	0	0	8478	424451	0	0
2024-06-06 11:15:32			0	41611	0	0	0	24688	23250	122421	27332	1006437	41376	109120	0	0	8478	424011	0	0
2024-06-06 11:16:32			0	41582	0	0	0	24680	23260	122401	26977	1006454	41389	109117	0	0	8477	424968	0	0
2024-06-06 11:17:32			0	41592	0	0	0	24688	23270	122437	27294	1006462	41378	109120	0	0	8477	424606	0	0
2024-06-06 11:18:32			0	41564	0	0	0	24701	23270	122533	27457	1006462	41400	109125	0	0	8476	425554	0	0
2024-06-06 11:19:32			0	41563	0	0	0	24714	23280	122497	27300	1006506	41378	109130	0	0	8475	425564	0	0
2024-06-06 11:20:32			0	41566	0	0	0	24709	23280	122505	27211	1006586	41378	109128	0	0	8476	425463	0	0
2024-06-06 11:21:32			0	41590	0	0	0	24719	23270	122449	27331	1006578	41378	109132	0	0	8477	424674	0	0
2024-06-06 11:22:32			0	41612	0	0	0	24716	23280	122529	27138	1006568	41379	109131	0	0	8478	423906	0	0
2024-06-06 11:23:32			0	41635	0	0	0	24722	23290	122397	26915	1006585	41380	109133	0	0	8479	423105	0	0
2024-06-06 11:24:32			0	41656	0	0	0	24716	23290	122273	27107	1006550	41370	109131	0	0	8480	422396	0	0
2024-06-06 11:25:32			0	41668	0	0	0	24714	23300	122305	27343	1006620	41370	109130	0	0	8481	421967	0	0
2024-06-06 11:26:32			0	41705	0	0	0	24716	23300	122185	27131	1006593	41380	109131	0	0	8483	420719	0	0
2024-06-06 11:27:32			0	41694	0	0	0	24716	23280	122221	27189	1006568	41379	109131	0	0	8482	421137	0	0
2024-06-06 11:28:32			0	41702	0	0	0	24722	23290	122221	27189	1006558	41392	109133	0	0	8483	420844	0	0
2024-06-06 11:29:32			0	41719	0	0	0	24724	23290	122209	27388	1006585	41392	109134	0	0	8483	420271	0	0
2024-06-06 11:30:32			0	41722	0	0	0	24729	23300	122205	27417	1006709	41392	109136	0	0	8484	420147	0	0
2024-06-06 11:31:32			0	41755	0	0	0	24745	23320	122117	27202	1006681	41393	109142	0	0	8485	418989	0	0
2024-06-06 11:32:32			0	41739	0	0	0	24750	23310	122121	27486	1006726	41372	109144	0	0	8484	419551	0	0
2024-06-06 11:33:32			0	41764	0	0	0	24748	23310	122005	27431	1006672	41405	109143	0	0	8486	418711	0	0
2024-06-06 11:34:32			0	41756	0	0	0	24750	23320	122029	27338	1006690	41383	109144	0	0	8485	418956	0	0
2024-06-06 11:35:32			0	41792	0	0	0	24737	23320	121917	27303	1006663	41406	109139	0	0	8487	417747	0	0
2024-06-06 11:36:32			0	41806	0	0	0	24737	23310	121889	27351	1006672	41382	109139	0	0	8488	417300	0	0
2024-06-06 11:37:32			0	41784	0	0	0	24740	23310	121869	27185	1006646	41393	109140	0	0	8487	418039	0	0
2024-06-06 11:38:32			0	41828	0	0	0	24745	23320	121869	27287	1006743	41383	109142	0	0	8489	416539	0	0
2024-06-06 11:39:32			0	41808	0	0	0	24740	23320	121825	27260	1006735	41393	109140	0	0	8488	417210	0	0
2024-06-06 11:40:32			0	41819	0	0	0	24750	23330	121805	27183	1006813	41395	109144	0	0	8489	416817	0	0
2024-06-06 11:41:32			0	41795	0	0	0	24761	23330	121869	27364	1006787	41395	109148	0	0	8487	417622	0	0
2024-06-06 11:42:32			0	41823	0	0	0	24768	23340	121849	27274	1007009	41395	109151	0	0	8488	416660	0	0
2024-06-06 11:43:32			0	41812	0	0	0	24792	23350	121889	27173	1006954	41386	109160	0	0	8488	417005	0	0
2024-06-06 11:44:32			0	41827	0	0	0	24825	23350	121817	27182	1007034	41419	109173	0	0	8488	416502	0	0
2024-06-06 11:45:32			0	41838	0	0	0	24841	23370	121813	26861	1007148	41411	109179	0	0	8488	416087	0	0
2024-06-06 11:46:32			0	41836	0	0	0	24857	23390	121833	27001	1007174	41389	109185	0	0	8488	416107	0	0
2024-06-06 11:47:32			0	41840	0	0	0	24875	23390	121697	26767	1007236	41401	109192	0	0	8488	415973	0	0
2024-06-06 11:48:32			0	41843	0	0	0	24877	23400	121745	27431	1007244	41401	109193	0	0	8488	415849	0	0
2024-06-06 11:49:32			0	41842	0	0	0	24888	23410	121741	27093	1007323	41403	109197	0	0	8488	415859	0	0
2024-06-06 11:50:32			0	41841	0	0	0	24898	23420	121697	27367	1007359	41403	109201	0	0	8488	415869	0	0
2024-06-06 11:51:32			0	41862	0	0	0	24903	23440	121669	27391	1007446	41427	109203	0	0	8489	415120	0	0
2024-06-06 11:52:32			0	41881	0	0	0	24916	23440	121721	27329	1007455	41416	109208	0	0	8489	414484	0	0
2024-06-06 11:53:32			0	41878	0	0	0	24919	23460	121697	27204	1007507	41429	109209	0	0	8489	414538	0	0
2024-06-06 11:54:32			0	41877	0	0	0	24924	23460	121753	27237	1007534	41418	109211	0	0	8489	414572	0	0
2024-06-06 11:55:32			0	41873	0	0	0	24929	23470	121673	27253	1007497	41418	109213	0	0	8489	414682	0	0
2024-06-06 11:56:32			0	41867	0	0	0	24932	23490	121753	27308	1007576	41410	109214	0	0	8489	414836	0	0
2024-06-06 11:57:32			0	41853	0	0	0	24948	23490	121717	27066	1007576	41420	109220	0	0	8488	415304	0	0
2024-06-06 11:58:32			0	41844	0	0	0	24953	23500	121749	27386	1007620	41410	109222	0	0	8487	415582	0	0
2024-06-06 11:59:32			0	41862	0	0	0	24961	23510	121745	27187	1007717	41422	109225	0	0	8488	414957	0	0
2024-06-06 12:00:32			0	41872	0	0	0	24963	23510	121729	27293	1007726	41434	109226	0	0	8488	414622	0	0
2024-06-06 12:01:32			0	41882	0	0	0	24974	23520	121657	27294	1007734	41412	109230	0	0	8489	414265	0	0
2024-06-06 12:02:32			0	41877	0	0	0	24971	23520	121597	27308	1007761	41434	109229	0	0	8489	414432	0	0
2024-06-06 12:03:32			0	41882	0	0	0	24981	23540	121617	27483	1007768	41415	109233	0	0	8489	414218	0	0
2024-06-06 12:04:32			0	41920	0	0	0	24986	23540	121489	27279	1007822	41415	109235	0	0	8491	412949	0	0
2024-06-06 12:05:32			0	41914	0	0	0	24989	23530	121465	27131	1007840	41414	109236	0	0	8490	413173	0	0
2024-06-06 12:06:32			0	41918	0	0	0	24992	23540	121453	27303	1007857	41404	109237	0	0	8491	413016	0	0
2024-06-06 12:07:32			0	41950	0	0	0	24999	23540	121433	27149	1007857	41425	109240	0	0	8492	411949	0	0
2024-06-06 12:08:32			0	41947	0	0	0	25012	23560	121373	27300	1007918	41416	109245	0	0	8492	412003	0	0
2024-06-06 12:09:32			0	42000	0	0	0	25012	23560	121405	27053	1007918	41427	109245	0	0	8495	410238	0	0
2024-06-06 12:10:32			0	42020	0	0	0	25015	23550	121369	27433	1007865	41415	109246	0	0	8496	409596	0	0
2024-06-06 12:11:32			0	41998	0	0	0	25020	23570	121229	27194	1008015	41428	109248	0	0	8494	410282	0	0
2024-06-06 12:12:32			0	42026	0	0	0	25018	23580	121153	27281	1007971	41418	109247	0	0	8496	409328	0	0
2024-06-06 12:13:32			0	42025	0	0	0	25023	23580	121113	27317	1007944	41429	109249	0	0	8496	409361	0	0
2024-06-06 12:14:32			0	42045	0	0	0	25018	23580	121053	27279	1007926	41418	109247	0	0	8497	408697	0	0
2024-06-06 12:15:32			0	42070	0	0	0	25018	23580	120993	27533	1007944	41418	109247	0	0	8498	407868	0	0
2024-06-06 12:16:32			0	42081	0	0	0	25007	23590	120949	27502	1007961	41418	109243	0	0	8499	407480	0	0
2024-06-06 12:17:32			0	42089	0	0	0	25005	23580	121014	27196	1007917	41440	109242	0	0	8500	407238	0	0
2024-06-06 12:18:32			0	42117	0	0	0	25020	23590	120894	27123	1007988	41418	109248	0	0	8501	406288	0	0
2024-06-06 12:19:32			0	42112	0	0	0	25018	23590	120834	27274	1008023	41418	109247	0	0	8501	406453	0	0
2024-06-06 12:20:32			0	42120	0	0	0	25010	23590	120898	27093	1007996	41441	109244	0	0	8501	406188	0	0
2024-06-06 12:21:32			0	42135	0	0	0	25023	23590	120922	26899	1008041	41418	109249	0	0	8502	405692	0	0
2024-06-06 12:22:32			0	42135	0	0	0	25018	23590	120858	27152	1007969	41441	109247	0	0	8502	405692	0	0
2024-06-06 12:23:32			0	42117	0	0	0	25025	23600	120894	27332	1008058	41419	109250	0	0	8501	406265	0	0
2024-06-06 12:24:32			0	42162	0	0	0	25036	23610	120846	26951	1008075	41443	109254	0	0	8503	404754	0	0
2024-06-06 12:25:32			0	42124	0	0	0	25031	23610	120854	27358	1008022	41420	109252	0	0	8501	406010	0	0
2024-06-06 12:26:32			0	42123	0	0	0	25033	23610	120826	27130	1008110	41432	109253	0	0	8501	406043	0	0
2024-06-06 12:27:32			0	42119	0	0	0	25038	23610	120818	27213	1008057	41432	109255	0	0	8501	406176	0	0
2024-06-06 12:28:32			0	42115	0	0	0	25044	23610	120850	27109	1008075	41432	109257	0	0	8501	406308	0	0
2024-06-06 12:29:32			0	42125	0	0	0	25036	23620	120894	26953	1008092	41421	109254	0	0	8501	405954	0	0
2024-06-06 12:30:32			0	42122	0	0	0	25036	23610	120914	27057	1008048	41420	109254	0	0	8501	406077	0	0
2024-06-06 12:31:32			0	42085	0	0	0	25031	23610	120854	27230	1008110	41443	109252	0	0	8499	407302	0	0
2024-06-06 12:32:32			0	42087	0	0	0	25031	23610	120978	27008	1008102	41420	109252	0	0	8499	407235	0	0
2024-06-06 12:33:32			0	42079	0	0	0	25044	23620	120957	27272	1008172	41411	109257	0	0	8499	407478	0	0
2024-06-06 12:34:32			0	42093	0	0	0	25049	23630	120922	27346	1008216	41422	109259	0	0	8499	406991	0	0
2024-06-06 12:35:32			0	42109	0	0	0	25057	23630	120930	27164	1008189	41456	109262	0	0	8500	406461	0	0
2024-06-06 12:36:32			0	42071	0	0	0	25064	23630	120905	27119	1008225	41433	109265	0	0	8498	407720	0	0
2024-06-06 12:37:32			0	42058	0	0	0	25070	23630	120993	27001	1008251	41433	109267	0	0	8497	408151	0	0
2024-06-06 12:38:32			0	42030	0	0	0	25077	23640	121121	27043	1008286	41434	109270	0	0	8495	409057	0	0
2024-06-06 12:39:32			0	41970	0	0	0	25077	23640	121237	27267	1008322	41446	109270	0	0	8492	411052	0	0
2024-06-06 12:40:32			0	41937	0	0	0	25072	23650	121341	26955	1008277	41424	109268	0	0	8491	412127	0	0
2024-06-06 12:41:32			0	41944	0	0	0	25080	23640	121253	27201	1008242	41435	109271	0	0	8491	411917	0	0
2024-06-06 12:42:32			0	41969	0	0	0	25083	23650	121237	27386	1008312	41436	109272	0	0	8492	411062	0	0
2024-06-06 12:43:32			0	42021	0	0	0	25075	23660	121133	27107	1008374	41425	109269	0	0	8495	409310	0	0
2024-06-06 12:44:32			0	42057	0	0	0	25098	23660	120961	27111	1008427	41458	109278	0	0	8497	408115	0	0
2024-06-06 12:45:32			0	42077	0	0	0	25098	23660	120837	26856	1008436	41459	109278	0	0	8498	407452	0	0
2024-06-06 12:46:32			0	42105	0	0	0	25106	23670	120870	27137	1008471	41427	109281	0	0	8499	406502	0	0
2024-06-06 12:47:32			0	42110	0	0	0	25111	23670	120758	27098	1008400	41449	109283	0	0	8499	406337	0	0
2024-06-06 12:48:32			0	42132	0	0	0	25109	23670	120698	27170	1008426	41427	109282	0	0	8501	405609	0	0
2024-06-06 12:49:32			0	42169	0	0	0	25111	23680	120670	26987	1008523	41450	109283	0	0	8503	404364	0	0
2024-06-06 12:50:32			0	42213	0	0	0	25124	23680	120606	27189	1008523	41450	109288	0	0	8505	402912	0	0
2024-06-06 12:51:32			0	42204	0	0	0	25127	23690	120566	27015	1008532	41451	109289	0	0	8504	403186	0	0
2024-06-06 12:52:32			0	42247	0	0	0	25127	23690	120478	27159	1008487	41428	109289	0	0	8507	401769	0	0
2024-06-06 12:53:32			0	42242	0	0	0	25135	23690	120454	27135	1008452	41428	109292	0	0	8506	401934	0	0
2024-06-06 12:54:32			0	42272	0	0	0	25124	23700	120390	27067	1008478	41429	109288	0	0	8508	400924	0	0
2024-06-06 12:55:32			0	42266	0	0	0	25114	23690	120346	27227	1008479	41451	109284	0	0	8508	401144	0	0
2024-06-06 12:56:32			0	42277	0	0	0	25106	23690	120274	26913	1008487	41428	109281	0	0	8508	400783	0	0
2024-06-06 12:57:32			0	42285	0	0	0	25111	23700	120314	26984	1008523	41440	109283	0	0	8509	400497	0	0
2024-06-06 12:58:32			0	42266	0	0	0	25114	23690	120318	27098	1008541	41440	109284	0	0	8508	401144	0	0
2024-06-06 12:59:32			0	42291	0	0	0	25124	23700	120266	27126	1008585	41441	109288	0	0	8509	400300	0	0
2024-06-06 13:00:32			0	42305	0	0	0	25132	23700	120354	27109	1008638	41452	109291	0	0	8510	399840	0	0
2024-06-06 13:01:32			0	42277	0	0	0	25132	23700	120330	27209	1008558	41452	109291	0	0	8508	400760	0	0
2024-06-06 13:02:32			0	42269	0	0	0	25145	23710	120370	26909	1008602	41441	109296	0	0	8507	401000	0	0
2024-06-06 13:03:32			0	42257	0	0	0	25150	23710	120406	27445	1008575	41430	109298	0	0	8507	401395	0	0
2024-06-06 13:04:32			0	42269	0	0	0	25140	23710	120446	27253	1008655	41441	109294	0	0	8508	401000	0	0
2024-06-06 13:05:32			0	42272	0	0	0	25137	23710	120346	27357	1008575	41430	109293	0	0	8508	400902	0	0
2024-06-06 13:06:32			0	42286	0	0	0	25145	23720	120350	27296	1008645	41454	109296	0	0	8508	400419	0	0
2024-06-06 13:07:32			0	42266	0	0	0	25153	23720	120330	27128	1008663	41453	109299	0	0	8507	401077	0	0
2024-06-06 13:08:32			0	42272	0	0	0	25153	23740	120394	27298	1008751	41433	109299	0	0	8508	400834	0	0
2024-06-06 13:09:32			0	42273	0	0	0	25166	23740	120442	26993	1008671	41444	109304	0	0	8507	400801	0	0
2024-06-06 13:10:32			0	42269	0	0	0	25163	23750	120402	27384	1008741	41434	109303	0	0	8507	400910	0	0
2024-06-06 13:11:32			0	42248	0	0	0	25181	23750	120446	27376	1008768	41445	109310	0	0	8506	401601	0	0
2024-06-06 13:12:32			0	42257	0	0	0	25179	23760	120418	27338	1008750	41446	109309	0	0	8506	401282	0	0
2024-06-06 13:13:32			0	42263	0	0	0	25179	23750	120494	27505	1008741	41434	109309	0	0	8507	401108	0	0
2024-06-06 13:14:32			0	42253	0	0	0	25184	23760	120510	27319	1008857	41446	109311	0	0	8506	401414	0	0
2024-06-06 13:15:32			0	42246	0	0	0	25192	23760	120462	27516	1008892	41457	109314	0	0	8506	401644	0	0
2024-06-06 13:16:32			0	42273	0	0	0	25202	23770	120542	27279	1008820	41446	109318	0	0	8507	400734	0	0
2024-06-06 13:17:32			0	42246	0	0	0	25205	23770	120574	27334	1008856	41458	109319	0	0	8505	401621	0	0
2024-06-06 13:18:32			0	42236	0	0	0	25215	23780	120474	27251	1008979	41469	109323	0	0	8505	401928	0	0
2024-06-06 13:19:32			0	42262	0	0	0	25223	23780	120426	27185	1008979	41458	109326	0	0	8506	401073	0	0
2024-06-06 13:20:32			0	42245	0	0	0	25223	23780	120462	27320	1008953	41448	109326	0	0	8505	401632	0	0
2024-06-06 13:21:32			0	42250	0	0	0	25223	23800	120486	27291	1008925	41450	109326	0	0	8505	401422	0	0
2024-06-06 13:22:32			0	42267	0	0	0	25225	23790	120398	27365	1008997	41449	109327	0	0	8506	400886	0	0
2024-06-06 13:23:32			0	42259	0	0	0	25233	23800	120502	27334	1008987	41461	109330	0	0	8506	401126	0	0
2024-06-06 13:24:32			0	42249	0	0	0	25231	23810	120470	27339	1008995	41461	109329	0	0	8505	401432	0	0
2024-06-06 13:25:32			0	42227	0	0	0	25233	23810	120534	27365	1009084	41472	109330	0	0	8504	402156	0	0
2024-06-06 13:26:32			0	42250	0	0	0	25233	23810	120474	27367	1009075	41461	109330	0	0	8505	401399	0	0
2024-06-06 13:27:32			0	42226	0	0	0	25238	23810	120486	27209	1009022	41450	109332	0	0	8504	402189	0	0
2024-06-06 13:28:32			0	42212	0	0	0	25244	23820	120474	27329	1009173	41462	109334	0	0	8503	402627	0	0
2024-06-06 13:29:32			0	42206	0	0	0	25262	23810	120514	27336	1009191	41450	109341	0	0	8502	402848	0	0
2024-06-06 13:30:32			0	42192	0	0	0	25264	23830	120590	27268	1009190	41463	109342	0	0	8502	403264	0	0
2024-06-06 13:31:32			0	42199	0	0	0	25277	23840	120594	27305	1009261	41453	109347	0	0	8502	403010	0	0
2024-06-06 13:32:32			0	42160	0	0	0	25288	23850	120614	27086	1009286	41454	109351	0	0	8500	404273	0	0
2024-06-06 13:33:32			0	42148	0	0	0	25290	23850	120610	27239	1009340	41476	109352	0	0	8499	404670	0	0
2024-06-06 13:34:32			0	42159	0	0	0	25298	23850	120682	26949	1009259	41454	109355	0	0	8499	404307	0	0
2024-06-06 13:35:32			0	42132	0	0	0	25288	23860	120730	27426	1009330	41456	109351	0	0	8498	405175	0	0
2024-06-06 13:36:32			0	42154	0	0	0	25288	23860	120770	27253	1009268	41465	109351	0	0	8499	404449	0	0
2024-06-06 13:37:32			0	42142	0	0	0	25283	23860	120786	26920	1009348	41477	109349	0	0	8499	404845	0	0
2024-06-06 13:38:32			0	42122	0	0	0	25290	23870	120726	27331	1009365	41467	109352	0	0	8498	405483	0	0
2024-06-06 13:39:32			0	42146	0	0	0	25301	23870	120806	27017	1009374	41467	109356	0	0	8499	404690	0	0
2024-06-06 13:40:32			0	42115	0	0	0	25301	23870	120794	27431	1009374	41457	109356	0	0	8497	405714	0	0
2024-06-06 13:41:32			0	42104	0	0	0	25301	23870	120798	27253	1009427	41457	109356	0	0	8497	406078	0	0
2024-06-06 13:42:32			0	42105	0	0	0	25309	23890	120810	27202	1009488	41480	109359	0	0	8497	405999	0	0
2024-06-06 13:43:32			0	42093	0	0	0	25311	23880	120714	27334	1009391	41468	109360	0	0	8496	406418	0	0
2024-06-06 13:44:32			0	42087	0	0	0	25329	23890	120770	27422	1009488	41469	109367	0	0	8495	406594	0	0
2024-06-06 13:45:32			0	42095	0	0	0	25316	23890	120826	27163	1009488	41469	109362	0	0	8496	406329	0	0
2024-06-06 13:46:32			0	42098	0	0	0	25316	23890	120838	27379	1009426	41469	109362	0	0	8496	406230	0	0
2024-06-06 13:47:32			0	42091	0	0	0	25324	23890	120794	27353	1009488	41458	109365	0	0	8496	406462	0	0
2024-06-06 13:48:32			0	42095	0	0	0	25324	23900	120826	27306	1009470	41458	109365	0	0	8496	406307	0	0
2024-06-06 13:49:32			0	42088	0	0	0	25332	23900	120830	27248	1009505	41458	109368	0	0	8495	406538	0	0
2024-06-06 13:50:32			0	42084	0	0	0	25332	23910	120858	27156	1009522	41459	109368	0	0	8495	406647	0	0
2024-06-06 13:51:32			0	42070	0	0	0	25332	23910	120841	27369	1009460	41459	109368	0	0	8494	407111	0	0
2024-06-06 13:52:32			0	42087	0	0	0	25335	23910	120878	27331	1009567	41459	109369	0	0	8495	406548	0	0
2024-06-06 13:53:32			0	42090	0	0	0	25332	23920	120886	27391	1009531	41471	109368	0	0	8495	406426	0	0
2024-06-06 13:54:32			0	42082	0	0	0	25324	23910	120957	27261	1009575	41471	109365	0	0	8495	406714	0	0
2024-06-06 13:55:32			0	42054	0	0	0	25332	23910	120929	27291	1009575	41459	109368	0	0	8493	407640	0	0
2024-06-06 13:56:32			0	42060	0	0	0	25319	23920	120933	27170	1009557	41449	109363	0	0	8494	407419	0	0
2024-06-06 13:57:32			0	42077	0	0	0	25335	23910	120913	27213	1009575	41459	109369	0	0	8495	406879	0	0
2024-06-06 13:58:32			0	42044	0	0	0	25332	23910	120933	27204	1009602	41449	109368	0	0	8493	407972	0	0
2024-06-06 13:59:32			0	42043	0	0	0	25324	23920	120909	27138	1009557	41459	109365	0	0	8493	407982	0	0
2024-06-06 14:00:32			0	42064	0	0	0	25332	23920	120969	27190	1009459	41450	109368	0	0	8494	407286	0	0
2024-06-06 14:01:32			0	42035	0	0	0	25324	23920	120957	27097	1009646	41472	109365	0	0	8493	408247	0	0
2024-06-06 14:02:32			0	42027	0	0	0	25327	23910	121005	27421	1009567	41471	109366	0	0	8492	408535	0	0
2024-06-06 14:03:32			0	42018	0	0	0	25324	23910	121021	27353	1009487	41449	109365	0	0	8492	408834	0	0
2024-06-06 14:04:32			0	42010	0	0	0	25319	23910	121061	27203	1009549	41449	109363	0	0	8491	409099	0	0
2024-06-06 14:05:32			0	42006	0	0	0	25314	23900	121065	27433	1009443	41458	109361	0	0	8491	409255	0	0
2024-06-06 14:06:32			0	42005	0	0	0	25290	23900	121033	27222	1009371	41448	109352	0	0	8492	409288	0	0
2024-06-06 14:07:32			0	41977	0	0	0	25285	23890	121081	27388	1009354	41447	109350	0	0	8490	410241	0	0
2024-06-06 14:08:32			0	41995	0	0	0	25275	23900	121105	27244	1009363	41447	109346	0	0	8491	409620	0	0
2024-06-06 14:09:32			0	41978	0	0	0	25254	23870	121145	27154	1009232	41457	109338	0	0	8491	410254	0	0
2024-06-06 14:10:32			0	41989	0	0	0	25231	23870	121205	27223	1009133	41446	109329	0	0	8492	409888	0	0
2024-06-06 14:11:32			0	41972	0	0	0	25223	23860	121145	27628	1009134	41455	109326	0	0	8491	410476	0	0
2024-06-06 14:12:32			0	41991	0	0	0	25207	23850	121205	27239	1009091	41454	109320	0	0	8492	409868	0	0
2024-06-06 14:13:32			0	42003	0	0	0	25199	23830	121101	27341	1009012	41430	109317	0	0	8493	409516	0	0
2024-06-06 14:14:32			0	41987	0	0	0	25179	23820	121177	27369	1008959	41462	109309	0	0	8492	410070	0	0
2024-06-06 14:15:32			0	41991	0	0	0	25197	23830	121129	27412	1009056	41441	109316	0	0	8492	409914	0	0
2024-06-06 14:16:32			0	41987	0	0	0	25194	23820	121101	27227	1009013	41451	109315	0	0	8492	410070	0	0
2024-06-06 14:17:32			0	42010	0	0	0	25194	23830	121089	27312	1009056	41441	109315	0	0	8493	409283	0	0
2024-06-06 14:18:32			0	42010	0	0	0	25189	23820	121137	27229	1008995	41452	109313	0	0	8493	409307	0	0
2024-06-06 14:19:32			0	41993	0	0	0	25192	23810	121145	27549	1008977	41450	109314	0	0	8492	409894	0	0
2024-06-06 14:20:32			0	41992	0	0	0	25189	23810	121085	27055	1009031	41450	109313	0	0	8492	409927	0	0
2024-06-06 14:21:32			0	41992	0	0	0	25189	23810	121093	27284	1008995	41439	109313	0	0	8492	409927	0	0
2024-06-06 14:22:32			0	42020	0	0	0	25192	23800	121225	27287	1008933	41450	109314	0	0	8494	409021	0	0
2024-06-06 14:23:32			0	42019	0	0	0	25194	23810	121077	27048	1008969	41450	109315	0	0	8494	409031	0	0
2024-06-06 14:24:32			0	42024	0	0	0	25207	23810	121093	27166	1009129	41439	109320	0	0	8494	408865	0	0
2024-06-06 14:25:32			0	42008	0	0	0	25215	23810	121049	27114	1009084	41450	109323	0	0	8493	409396	0	0
2024-06-06 14:26:32			0	42043	0	0	0	25223	23810	121069	27142	1009057	41461	109326	0	0	8494	408235	0	0
2024-06-06 14:27:32			0	42016	0	0	0	25220	23820	120973	27426	1009066	41451	109325	0	0	8493	409107	0	0
2024-06-06 14:28:32			0	42040	0	0	0	25223	23820	121065	27060	1009066	41440	109326	0	0	8494	408311	0	0
2024-06-06 14:29:32			0	42026	0	0	0	25215	23830	121081	26897	1009137	41452	109323	0	0	8494	408752	0	0
2024-06-06 14:30:32			0	42046	0	0	0	25223	23820	120985	27187	1009101	41452	109326	0	0	8495	408112	0	0
2024-06-06 14:31:32			0	42065	0	0	0	25228	23830	120933	27036	1009163	41452	109328	0	0	8496	407460	0	0
2024-06-06 14:32:32			0	42068	0	0	0	25225	23830	120933	27562	1009083	41452	109327	0	0	8496	407360	0	0
2024-06-06 14:33:32			0	42077	0	0	0	25220	23830	120885	26840	1009137	41430	109325	0	0	8496	407062	0	0
2024-06-06 14:34:32			0	42088	0	0	0	25223	23820	120886	27163	1009128	41452	109326	0	0	8497	406721	0	0
2024-06-06 14:35:32			0	42075	0	0	0	25231	23820	120865	27353	1009101	41430	109329	0	0	8496	407152	0	0
2024-06-06 14:36:32			0	42097	0	0	0	25225	23830	120882	27341	1009110	41452	109327	0	0	8497	406401	0	0
2024-06-06 14:37:32			0	42113	0	0	0	25228	23820	120822	27370	1009101	41474	109328	0	0	8498	405894	0	0
2024-06-06 14:38:32			0	42098	0	0	0	25228	23820	120770	27005	1009101	41441	109328	0	0	8497	406390	0	0
2024-06-06 14:39:32			0	42118	0	0	0	25223	23830	120838	27275	1009118	41452	109326	0	0	8498	405706	0	0
2024-06-06 14:40:32			0	42135	0	0	0	25223	23830	120722	27081	1009172	41452	109326	0	0	8499	405145	0	0
2024-06-06 14:41:32			0	42135	0	0	0	25238	23830	120738	27182	1009145	41452	109332	0	0	8499	405145	0	0
2024-06-06 14:42:32			0	42172	0	0	0	25236	23830	120754	27346	1009118	41452	109331	0	0	8501	403923	0	0
2024-06-06 14:43:32			0	42152	0	0	0	25231	23830	120678	27313	1009172	41452	109329	0	0	8500	404583	0	0
2024-06-06 14:44:32			0	42144	0	0	0	25233	23840	120658	27046	1009207	41442	109330	0	0	8500	404824	0	0
2024-06-06 14:45:32			0	42147	0	0	0	25231	23830	120602	27322	1009190	41441	109329	0	0	8500	404748	0	0
2024-06-06 14:46:32			0	42210	0	0	0	25231	23830	120682	27256	1009225	41430	109329	0	0	8503	402671	0	0
2024-06-06 14:47:32			0	42200	0	0	0	25233	23830	120586	27464	1009145	41441	109330	0	0	8503	403000	0	0
2024-06-06 14:48:32			0	42201	0	0	0	25238	23830	120606	27573	1009118	41474	109332	0	0	8503	402967	0	0
2024-06-06 14:49:32			0	42209	0	0	0	25233	23830	120610	27379	1009145	41441	109330	0	0	8503	402704	0	0
2024-06-06 14:50:32			0	42217	0	0	0	25228	23840	120482	26956	1009207	41453	109328	0	0	8504	402418	0	0
2024-06-06 14:51:32			0	42226	0	0	0	25241	23840	120550	27365	1009189	41443	109333	0	0	8504	402121	0	0
2024-06-06 14:52:32			0	42212	0	0	0	25231	23840	120470	27275	1009180	41442	109329	0	0	8503	402582	0	0
2024-06-06 14:53:32			0	42236	0	0	0	25233	23820	120482	27365	1009155	41452	109330	0	0	8505	401837	0	0
2024-06-06 14:54:32			0	42230	0	0	0	25231	23840	120554	27317	1009154	41442	109329	0	0	8504	401990	0	0
2024-06-06 14:55:32			0	42236	0	0	0	25238	23830	120522	27145	1009137	41452	109332	0	0	8505	401815	0	0
2024-06-06 14:56:32			0	42259	0	0	0	25228	23830	120346	27364	1009092	41441	109328	0	0	8506	401058	0	0
2024-06-06 14:57:32			0	42252	0	0	0	25231	23830	120438	27405	1009137	41452	109329	0	0	8506	401289	0	0
2024-06-06 14:58:32			0	42258	0	0	0	25233	23840	120342	27516	1009100	41453	109330	0	0	8506	401069	0	0
2024-06-06 14:59:32			0	42284	0	0	0	25236	23830	120426	27027	1009145	41441	109331	0	0	8507	400237	0	0
2024-06-06 15:00:32			0	42281	0	0	0	25236	23830	120346	27294	1009199	41441	109331	0	0	8507	400335	0	0
2024-06-06 15:01:32			0	42267	0	0	0	25238	23840	120330	27350	1009180	41463	109332	0	0	8506	400773	0	0
2024-06-06 15:02:32			0	42274	0	0	0	25246	23840	120306	27279	1009242	41454	109335	0	0	8507	400543	0	0
2024-06-06 15:03:32			0	42287	0	0	0	25251	23840	120330	27039	1009296	41464	109337	0	0	8507	400116	0	0
2024-06-06 15:04:32			0	42271	0	0	0	25257	23850	120446	26769	1009278	41454	109339	0	0	8506	400619	0	0
2024-06-06 15:05:32			0	42270	0	0	0	25264	23860	120366	27098	1009348	41465	109342	0	0	8506	400629	0	0
2024-06-06 15:06:32			0	42277	0	0	0	25267	23850	120306	27038	1009313	41454	109343	0	0	8506	400422	0	0
2024-06-06 15:07:32			0	42268	0	0	0	25267	23860	120374	26913	1009276	41466	109343	0	0	8506	400695	0	0
2024-06-06 15:08:32			0	42286	0	0	0	25270	23860	120422	27320	1009357	41466	109344	0	0	8507	400104	0	0
2024-06-06 15:09:32			0	42274	0	0	0	25270	23870	120398	26939	1009365	41467	109344	0	0	8506	400475	0	0
2024-06-06 15:10:32			0	42280	0	0	0	25264	23870	120338	27235	1009312	41457	109342	0	0	8507	400278	0	0
2024-06-06 15:11:32			0	42266	0	0	0	25272	23870	120302	27088	1009400	41446	109345	0	0	8506	400738	0	0
2024-06-06 15:12:32			0	42259	0	0	0	25277	23860	120338	27176	1009330	41456	109347	0	0	8505	400991	0	0
2024-06-06 15:13:32			0	42272	0	0	0	25283	23870	120334	27123	1009365	41457	109349	0	0	8506	400541	0	0
2024-06-06 15:14:32			0	42256	0	0	0	25301	23870	120330	27265	1009392	41467	109356	0	0	8505	401067	0	0
2024-06-06 15:15:32			0	42272	0	0	0	25298	23880	120422	27348	1009551	41468	109355	0	0	8506	400518	0	0
2024-06-06 15:16:32			0	42257	0	0	0	25316	23890	120366	27147	1009515	41458	109362	0	0	8505	400988	0	0
2024-06-06 15:17:32			0	42246	0	0	0	25322	23900	120322	27388	1009558	41470	109364	0	0	8504	401327	0	0
2024-06-06 15:18:32			0	42281	0	0	0	25332	23920	120406	26993	1009611	41459	109368	0	0	8506	400132	0	0
2024-06-06 15:19:32			0	42299	0	0	0	25342	23910	120350	27395	1009602	41449	109372	0	0	8507	399564	0	0
2024-06-06 15:20:32			0	42266	0	0	0	25340	23920	120302	27027	1009673	41460	109371	0	0	8505	400625	0	0
2024-06-06 15:21:32			0	42271	0	0	0	25342	23930	120322	27033	1009708	41472	109372	0	0	8505	400438	0	0
2024-06-06 15:22:32			0	42279	0	0	0	25368	23940	120362	27315	1009779	41473	109382	0	0	8505	400153	0	0
2024-06-06 15:23:32			0	42282	0	0	0	25368	23940	120322	27052	1009725	41462	109382	0	0	8505	400055	0	0
2024-06-06 15:24:32			0	42260	0	0	0	25374	23940	120270	26807	1009761	41452	109384	0	0	8504	400777	0	0
2024-06-06 15:25:32			0	42293	0	0	0	25368	23950	120326	27230	1009742	41463	109382	0	0	8506	399671	0	0
2024-06-06 15:26:32			0	42280	0	0	0	25366	23950	120358	27173	1009769	41463	109381	0	0	8505	400098	0	0
2024-06-06 15:27:32			0	42279	0	0	0	25374	23940	120270	27374	1009814	41462	109384	0	0	8505	400153	0	0
2024-06-06 15:28:32			0	42271	0	0	0	25386	23950	120330	27173	1009804	41464	109389	0	0	8504	400393	0	0
2024-06-06 15:29:32			0	42267	0	0	0	25399	23960	120282	27495	1009920	41464	109394	0	0	8504	400502	0	0
2024-06-06 15:30:32			0	42268	0	0	0	25410	23980	120310	27248	1009900	41466	109398	0	0	8504	400424	0	0
2024-06-06 15:31:32			0	42267	0	0	0	25423	23980	120326	27046	1009909	41477	109403	0	0	8504	400457	0	0
2024-06-06 15:32:32			0	42279	0	0	0	25420	23980	120258	27201	1009962	41444	109402	0	0	8504	400063	0	0
2024-06-06 15:33:32			0	42265	0	0	0	25428	23990	120330	27422	1009971	41467	109405	0	0	8504	400500	0	0
2024-06-06 15:34:32			0	42272	0	0	0	25420	23990	120354	27268	1009953	41468	109402	0	0	8504	400270	0	0
2024-06-06 15:35:32			0	42258	0	0	0	25407	23990	120370	27339	1009971	41478	109397	0	0	8504	400730	0	0
2024-06-06 15:36:32			0	42252	0	0	0	25420	23980	120306	27126	1010016	41477	109402	0	0	8503	400949	0	0
2024-06-06 15:37:32			0	42280	0	0	0	25420	23990	120298	27159	1010006	41490	109402	0	0	8504	400007	0	0
2024-06-06 15:38:32			0	42258	0	0	0	25446	24010	120266	27338	1010139	41480	109412	0	0	8503	400685	0	0
2024-06-06 15:39:32			0	42251	0	0	0	25451	24000	120274	27079	1010103	41480	109414	0	0	8502	400937	0	0
2024-06-06 15:40:32			0	42259	0	0	0	25454	24020	120294	27005	1010129	41502	109415	0	0	8503	400629	0	0
2024-06-06 15:41:32			0	42267	0	0	0	25459	24020	120362	27166	1010191	41459	109417	0	0	8503	400367	0	0
2024-06-06 15:42:32			0	42271	0	0	0	25475	24030	120426	27338	1010253	41481	109423	0	0	8503	400213	0	0
2024-06-06 15:43:32			0	42269	0	0	0	25475	24030	120326	26977	1010235	41494	109423	0	0	8503	400278	0	0
2024-06-06 15:44:32			0	42251	0	0	0	25485	24040	120242	26982	1010243	41483	109427	0	0	8502	400847	0	0
2024-06-06 15:45:32			0	42234	0	0	0	25488	24050	120218	27175	1010341	41472	109428	0	0	8501	401382	0	0
2024-06-06 15:46:32			0	42269	0	0	0	25493	24060	120286	27175	1010322	41473	109430	0	0	8503	400210	0	0
2024-06-06 15:47:32			0	42247	0	0	0	25496	24070	120374	27036	1010366	41485	109431	0	0	8502	400910	0	0
2024-06-06 15:48:32			0	42259	0	0	0	25506	24080	120290	27362	1010384	41486	109435	0	0	8502	400494	0	0
2024-06-06 15:49:32			0	42258	0	0	0	25503	24080	120310	27201	1010410	41486	109434	0	0	8502	400526	0	0
2024-06-06 15:50:32			0	42245	0	0	0	25522	24070	120310	27284	1010429	41497	109441	0	0	8501	400976	0	0
2024-06-06 15:51:32			0	42274	0	0	0	25524	24080	120310	27255	1010437	41497	109442	0	0	8503	400001	0	0
2024-06-06 15:52:32			0	42278	0	0	0	25535	24090	120362	27156	1010489	41499	109446	0	0	8503	399848	0	0
2024-06-06 15:53:32			0	42250	0	0	0	25532	24100	120278	27287	1010471	41477	109445	0	0	8501	400744	0	0
2024-06-06 15:54:32			0	42266	0	0	0	25532	24100	120306	27166	1010471	41488	109445	0	0	8502	400219	0	0
2024-06-06 15:55:32			0	42279	0	0	0	25537	24100	120254	27237	1010525	41477	109447	0	0	8503	399792	0	0
2024-06-06 15:56:32			0	42269	0	0	0	25540	24110	120330	27206	1010488	41466	109448	0	0	8502	400098	0	0
2024-06-06 15:57:32			0	42247	0	0	0	25529	24110	120290	27495	1010568	41489	109444	0	0	8501	400820	0	0
2024-06-06 15:58:32			0	42283	0	0	0	25542	24100	120322	26941	1010560	41489	109449	0	0	8503	399661	0	0
2024-06-06 15:59:32			0	42256	0	0	0	25553	24120	120266	27175	1010586	41479	109453	0	0	8501	400502	0	0
2024-06-06 16:00:32			0	42271	0	0	0	25540	24120	120238	27215	1010647	41479	109448	0	0	8502	400009	0	0
2024-06-06 16:01:32			0	42267	0	0	0	25558	24120	120290	26906	1010647	41501	109455	0	0	8502	400141	0	0
2024-06-06 16:02:32			0	42289	0	0	0	25555	24130	120242	27190	1010683	41479	109454	0	0	8503	399397	0	0
2024-06-06 16:03:32			0	42263	0	0	0	25568	24140	120218	27121	1010762	41470	109459	0	0	8502	400227	0	0
2024-06-06 16:04:32			0	42276	0	0	0	25566	24140	120206	27293	1010682	41503	109458	0	0	8502	399800	0	0
2024-06-06 16:05:32			0	42280	0	0	0	25573	24150	120214	27409	1010779	41504	109461	0	0	8503	399647	0	0
2024-06-06 16:06:32			0	42265	0	0	0	25576	24140	120350	27345	1010762	41481	109462	0	0	8502	400161	0	0
2024-06-06 16:07:32			0	42271	0	0	0	25581	24160	120254	26958	1010814	41494	109464	0	0	8502	399919	0	0
2024-06-06 16:08:32			0	42261	0	0	0	25594	24160	120210	27008	1010849	41483	109469	0	0	8501	400247	0	0
2024-06-06 16:09:32			0	42245	0	0	0	25607	24160	120210	27048	1010796	41504	109474	0	0	8500	400772	0	0
2024-06-06 16:10:32			0	42253	0	0	0	25605	24170	120234	27384	1010885	41495	109473	0	0	8501	400487	0	0
2024-06-06 16:11:32			0	42254	0	0	0	25607	24170	120246	27325	1010866	41495	109474	0	0	8501	400454	0	0
2024-06-06 16:12:32			0	42257	0	0	0	25612	24170	120322	27249	1010866	41484	109476	0	0	8501	400356	0	0
2024-06-06 16:13:32			0	42255	0	0	0	25618	24180	120230	27168	1010937	41507	109478	0	0	8501	400399	0	0
2024-06-06 16:14:32			0	42250	0	0	0	25620	24180	120334	27043	1010928	41506	109479	0	0	8500	400563	0	0
2024-06-06 16:15:32			0	42225	0	0	0	25625	24190	120250	27071	1010954	41518	109481	0	0	8499	401361	0	0
2024-06-06 16:16:32			0	42238	0	0	0	25623	24200	120338	27249	1010990	41498	109480	0	0	8500	400912	0	0
2024-06-06 16:17:32			0	42243	0	0	0	25638	24200	120254	27274	1010998	41499	109486	0	0	8500	400748	0	0
2024-06-06 16:18:32			0	42235	0	0	0	25633	24210	120258	26941	1011060	41509	109484	0	0	8499	400988	0	0
2024-06-06 16:19:32			0	42221	0	0	0	25641	24210	120234	26904	1011042	41499	109487	0	0	8498	401447	0	0
2024-06-06 16:20:32			0	42234	0	0	0	25651	24210	120274	27253	1011069	41499	109491	0	0	8499	401020	0	0
2024-06-06 16:21:32			0	42227	0	0	0	25654	24220	120282	27466	1011113	41511	109492	0	0	8499	401228	0	0
2024-06-06 16:22:32			0	42214	0	0	0	25659	24220	120334	27472	1011113	41500	109494	0	0	8498	401655	0	0
2024-06-06 16:23:32			0	42205	0	0	0	25662	24220	120362	27242	1011166	41500	109495	0	0	8497	401950	0	0
2024-06-06 16:24:32			0	42190	0	0	0	25659	24230	120386	27173	1011103	41490	109494	0	0	8496	402421	0	0
2024-06-06 16:25:32			0	42159	0	0	0	25667	24230	120382	27057	1011121	41489	109497	0	0	8495	403441	0	0
2024-06-06 16:26:32			0	42171	0	0	0	25670	24240	120358	27351	1011192	41523	109498	0	0	8495	403023	0	0
2024-06-06 16:27:32			0	42168	0	0	0	25672	24240	120422	27079	1011147	41501	109499	0	0	8495	403122	0	0
2024-06-06 16:28:32			0	42141	0	0	0	25672	24240	120554	27249	1011147	41501	109499	0	0	8494	404011	0	0
2024-06-06 16:29:32			0	42166	0	0	0	25670	24240	120450	27183	1011165	41490	109498	0	0	8495	403188	0	0
2024-06-06 16:30:32			0	42140	0	0	0	25675	24250	120550	27071	1011209	41513	109500	0	0	8494	404021	0	0
2024-06-06 16:31:32			0	42136	0	0	0	25675	24250	120474	27326	1011182	41513	109500	0	0	8493	404153	0	0
2024-06-06 16:32:32			0	42139	0	0	0	25677	24250	120522	26797	1011289	41502	109501	0	0	8494	404054	0	0
2024-06-06 16:33:32			0	42120	0	0	0	25680	24260	120562	27192	1011234	41514	109502	0	0	8492	404658	0	0
2024-06-06 16:34:32			0	42099	0	0	0	25688	24270	120542	27244	1011323	41515	109505	0	0	8491	405327	0	0
2024-06-06 16:35:32			0	42085	0	0	0	25683	24260	120686	27256	1011315	41514	109503	0	0	8491	405812	0	0
2024-06-06 16:36:32			0	42073	0	0	0	25690	24270	120621	27223	1011296	41515	109506	0	0	8490	406186	0	0
2024-06-06 16:37:32			0	42050	0	0	0	25703	24290	120745	27227	1011411	41506	109511	0	0	8488	406900	0	0
2024-06-06 16:38:32			0	42040	0	0	0	25716	24290	120697	27045	1011464	41517	109516	0	0	8488	407230	0	0
2024-06-06 16:39:32			0	42010	0	0	0	25742	24300	120797	27206	1011570	41507	109526	0	0	8486	408200	0	0
2024-06-06 16:40:32			0	42006	0	0	0	25768	24320	120989	26922	1011730	41531	109536	0	0	8485	408286	0	0
2024-06-06 16:41:32			0	41978	0	0	0	25807	24340	120965	27079	1011818	41554	109551	0	0	8483	409167	0	0
2024-06-06 16:42:32			0	41939	0	0	0	25851	24350	120941	26927	1012013	41533	109568	0	0	8480	410438	0	0
2024-06-06 16:43:32			0	41933	0	0	0	25890	24390	121017	27268	1012144	41526	109583	0	0	8479	410544	0	0
2024-06-06 16:44:32			0	41925	0	0	0	25914	24420	121097	27223	1012267	41529	109592	0	0	8479	410740	0	0
2024-06-06 16:45:32			0	41904	0	0	0	25935	24440	121125	27251	1012248	41552	109600	0	0	8477	411391	0	0
2024-06-06 16:46:32			0	41901	0	0	0	25955	24440	121073	27201	1012337	41553	109608	0	0	8477	411490	0	0
2024-06-06 16:47:32			0	41905	0	0	0	25963	24470	121113	27201	1012468	41544	109611	0	0	8477	411288	0	0
2024-06-06 16:48:32			0	41872	0	0	0	25979	24480	121125	27355	1012477	41544	109617	0	0	8475	412361	0	0
2024-06-06 16:49:32			0	41874	0	0	0	25986	24480	121113	27203	1012512	41545	109620	0	0	8475	412294	0	0
2024-06-06 16:50:32			0	41863	0	0	0	25984	24500	121077	27159	1012573	41547	109619	0	0	8474	412613	0	0
2024-06-06 16:51:32			0	41867	0	0	0	25997	24520	121061	26953	1012545	41549	109624	0	0	8475	412434	0	0
2024-06-06 16:52:32			0	41843	0	0	0	25992	24530	121025	26925	1012616	41550	109622	0	0	8473	413209	0	0
2024-06-06 16:53:32			0	41831	0	0	0	25986	24530	121161	27062	1012616	41539	109620	0	0	8473	413608	0	0
2024-06-06 16:54:32			0	41849	0	0	0	25971	24540	121177	26807	1012588	41540	109614	0	0	8474	412986	0	0
2024-06-06 16:55:32			0	41828	0	0	0	25966	24530	121241	27150	1012571	41529	109612	0	0	8473	413708	0	0
2024-06-06 16:56:32			0	41793	0	0	0	25953	24540	121309	27107	1012561	41529	109607	0	0	8471	414851	0	0
2024-06-06 16:57:32			0	41804	0	0	0	25953	24540	121229	26887	1012526	41540	109607	0	0	8472	414484	0	0
2024-06-06 16:58:32			0	41801	0	0	0	25953	24530	121245	27237	1012544	41540	109607	0	0	8472	414608	0	0
2024-06-06 16:59:32			0	41804	0	0	0	25942	24540	121317	26979	1012499	41529	109603	0	0	8472	414484	0	0
2024-06-06 17:00:32			0	41795	0	0	0	25940	24530	121317	27203	1012509	41528	109602	0	0	8472	414808	0	0
2024-06-06 17:01:32			0	41790	0	0	0	25942	24540	121293	27279	1012472	41540	109603	0	0	8471	414951	0	0
2024-06-06 17:02:32			0	41792	0	0	0	25919	24520	121285	27355	1012393	41527	109594	0	0	8472	414931	0	0
2024-06-06 17:03:32			0	41830	0	0	0	25898	24520	121265	27307	1012278	41516	109586	0	0	8474	413665	0	0
2024-06-06 17:04:32			0	41839	0	0	0	25883	24510	121145	27104	1012322	41538	109580	0	0	8475	413389	0	0
2024-06-06 17:05:32			0	41838	0	0	0	25870	24500	121109	27365	1012225	41503	109575	0	0	8475	413445	0	0
2024-06-06 17:06:32			0	41872	0	0	0	25870	24490	120993	27071	1012208	41536	109575	0	0	8477	412338	0	0
2024-06-06 17:07:32			0	41923	0	0	0	25867	24490	120981	27299	1012235	41536	109574	0	0	8480	410644	0	0
2024-06-06 17:08:32			0	41919	0	0	0	25867	24500	120897	27171	1012350	41525	109574	0	0	8479	410753	0	0
2024-06-06 17:09:32			0	41942	0	0	0	25880	24490	120821	27229	1012342	41536	109579	0	0	8480	410013	0	0
2024-06-06 17:10:32			0	41941	0	0	0	25893	24500	120805	27086	1012359	41537	109584	0	0	8480	410023	0	0
2024-06-06 17:11:32			0	41958	0	0	0	25911	24500	120829	27303	1012404	41525	109591	0	0	8481	409460	0	0
2024-06-06 17:12:32			0	41945	0	0	0	25940	24510	120829	26953	1012483	41538	109602	0	0	8480	409868	0	0
2024-06-06 17:13:32			0	41970	0	0	0	25955	24520	120793	26956	1012473	41549	109608	0	0	8481	409016	0	0
2024-06-06 17:14:32			0	41929	0	0	0	25961	24530	120837	27206	1012597	41540	109610	0	0	8479	410352	0	0
2024-06-06 17:15:32			0	41929	0	0	0	25971	24550	120813	26897	1012596	41552	109614	0	0	8478	410305	0	0
2024-06-06 17:16:32			0	41928	0	0	0	25984	24530	120829	26970	1012597	41540	109619	0	0	8478	410385	0	0
2024-06-06 17:17:32			0	41961	0	0	0	25997	24560	120861	27131	1012694	41553	109624	0	0	8480	409222	0	0
2024-06-06 17:18:32			0	41959	0	0	0	26002	24560	120737	27369	1012694	41553	109626	0	0	8480	409288	0	0
2024-06-06 17:19:32			0	41978	0	0	0	26012	24560	120741	27147	1012729	41553	109630	0	0	8480	408659	0	0
2024-06-06 17:20:32			0	41995	0	0	0	26015	24580	120597	27241	1012835	41543	109631	0	0	8481	408050	0	0
2024-06-06 17:21:32			0	42025	0	0	0	26020	24590	120553	26880	1012852	41567	109633	0	0	8483	407036	0	0
2024-06-06 17:22:32			0	42062	0	0	0	26028	24590	120565	27066	1012825	41555	109636	0	0	8485	405814	0	0
2024-06-06 17:23:32			0	42084	0	0	0	26025	24590	120466	27168	1012799	41567	109635	0	0	8486	405089	0	0
2024-06-06 17:24:32			0	42123	0	0	0	26018	24590	120322	27126	1012825	41544	109632	0	0	8488	403805	0	0
2024-06-06 17:25:32			0	42114	0	0	0	26018	24590	120266	27301	1012834	41545	109632	0	0	8488	404101	0	0
2024-06-06 17:26:32			0	42130	0	0	0	26015	24600	120250	27289	1012896	41534	109631	0	0	8489	403552	0	0
2024-06-06 17:27:32			0	42134	0	0	0	26018	24590	120250	27426	1012852	41544	109632	0	0	8489	403443	0	0
2024-06-06 17:28:32			0	42143	0	0	0	26015	24600	120206	27173	1012869	41556	109631	0	0	8489	403124	0	0
2024-06-06 17:29:32			0	42160	0	0	0	26023	24600	120122	26987	1012878	41557	109634	0	0	8490	402565	0	0
2024-06-06 17:30:32			0	42164	0	0	0	26028	24610	120146	27069	1012940	41557	109636	0	0	8490	402411	0	0
2024-06-06 17:31:32			0	42158	0	0	0	26031	24620	120170	27301	1012922	41558	109637	0	0	8490	402586	0	0
2024-06-06 17:32:32			0	42176	0	0	0	26036	24600	120082	27306	1012958	41557	109639	0	0	8491	402040	0	0
2024-06-06 17:33:32			0	42182	0	0	0	26038	24620	120070	27154	1012975	41558	109640	0	0	8491	401798	0	0
2024-06-06 17:34:32			0	42193	0	0	0	26041	24630	120106	27199	1012974	41559	109641	0	0	8492	401414	0	0
2024-06-06 17:35:32			0	42187	0	0	0	26054	24630	120098	27171	1013028	41559	109646	0	0	8491	401611	0	0
2024-06-06 17:36:32			0	42184	0	0	0	26059	24640	120158	26925	1013036	41582	109648	0	0	8491	401686	0	0
2024-06-06 17:37:32			0	42164	0	0	0	26064	24640	120062	26928	1013098	41549	109650	0	0	8490	402343	0	0
2024-06-06 17:38:32			0	42207	0	0	0	26070	24650	120106	26956	1013134	41561	109652	0	0	8492	400909	0	0
2024-06-06 17:39:32			0	42179	0	0	0	26077	24650	120078	27000	1013115	41550	109655	0	0	8490	401828	0	0
2024-06-06 17:40:32			0	42181	0	0	0	26070	24650	120110	27156	1013115	41550	109652	0	0	8491	401762	0	0
2024-06-06 17:41:32			0	42184	0	0	0	26083	24660	120054	27104	1013151	41562	109657	0	0	8491	401641	0	0
2024-06-06 17:42:32			0	42188	0	0	0	26090	24660	120106	27057	1013151	41550	109660	0	0	8491	401510	0	0
2024-06-06 17:43:32			0	42174	0	0	0	26080	24670	120106	27046	1013195	41541	109656	0	0	8490	401946	0	0
2024-06-06 17:44:32			0	42118	0	0	0	26106	24670	120202	27424	1013221	41574	109666	0	0	8487	403787	0	0
2024-06-06 17:45:32			0	42094	0	0	0	26103	24670	120334	27138	1013195	41562	109665	0	0	8486	404576	0	0
2024-06-06 17:46:32			0	42088	0	0	0	26101	24680	120310	27147	1013265	41575	109664	0	0	8485	404751	0	0
2024-06-06 17:47:32			0	42042	0	0	0	26098	24680	120465	26925	1013265	41575	109663	0	0	8483	406267	0	0
2024-06-06 17:48:32			0	42001	0	0	0	26111	24680	120541	26951	1013247	41564	109668	0	0	8480	407621	0	0
2024-06-06 17:49:32			0	41964	0	0	0	26116	24690	120657	26927	1013238	41565	109670	0	0	8478	408822	0	0
2024-06-06 17:50:32			0	41938	0	0	0	26119	24690	120793	27254	1013336	41553	109671	0	0	8477	409682	0	0
2024-06-06 17:51:32			0	41928	0	0	0	26119	24700	120829	27013	1013326	41566	109671	0	0	8476	409990	0	0
2024-06-06 17:52:32			0	41891	0	0	0	26119	24700	120965	27015	1013353	41543	109671	0	0	8474	411217	0	0
2024-06-06 17:53:32			0	41866	0	0	0	26124	24690	120877	27010	1013345	41554	109673	0	0	8473	412071	0	0
2024-06-06 17:54:32			0	41858	0	0	0	26116	24700	120993	26955	1013281	41566	109670	0	0	8473	412313	0	0
2024-06-06 17:55:32			0	41863	0	0	0	26119	24700	120949	27272	1013335	41566	109671	0	0	8473	412147	0	0
2024-06-06 17:56:32			0	41892	0	0	0	26127	24700	120745	27197	1013407	41555	109674	0	0	8474	411184	0	0
2024-06-06 17:57:32			0	41969	0	0	0	26122	24700	120745	27015	1013388	41566	109672	0	0	8479	408633	0	0
2024-06-06 17:58:32			0	42011	0	0	0	26116	24710	120585	27215	1013370	41566	109670	0	0	8481	407222	0	0
2024-06-06 17:59:32			0	42067	0	0	0	26127	24700	120385	27308	1013362	41577	109674	0	0	8484	405397	0	0
2024-06-06 18:00:32			0	42144	0	0	0	26124	24710	120202	26870	1013370	41577	109673	0	0	8488	402840	0	0
2024-06-06 18:01:32			0	42199	0	0	0	26122	24710	119986	26791	1013352	41567	109672	0	0	8491	401035	0	0
2024-06-06 18:02:32			0	42253	0	0	0	26132	24720	119882	26935	1013342	41557	109676	0	0	8494	399244	0	0
2024-06-06 18:03:32			0	42308	0	0	0	26127	24720	119794	26838	1013449	41579	109674	0	0	8497	397447	0	0
2024-06-06 18:04:32			0	42364	0	0	0	26137	24720	119634	27130	1013369	41568	109678	0	0	8500	395620	0	0
2024-06-06 18:05:32			0	42405	0	0	0	26124	24710	119550	26993	1013370	41577	109673	0	0	8502	394308	0	0
2024-06-06 18:06:32			0	42453	0	0	0	26129	24720	119322	27130	1013387	41568	109675	0	0	8505	392726	0	0
2024-06-06 18:07:32			0	42483	0	0	0	26124	24720	119206	27052	1013369	41568	109673	0	0	8506	391752	0	0
2024-06-06 18:08:32			0	42536	0	0	0	26127	24710	119074	26823	1013424	41566	109674	0	0	8509	390057	0	0
2024-06-06 18:09:32			0	42545	0	0	0	26124	24720	119078	26987	1013387	41557	109673	0	0	8510	389744	0	0
2024-06-06 18:10:32			0	42589	0	0	0	26124	24720	118870	27098	1013441	41568	109673	0	0	8512	388321	0	0
2024-06-06 18:11:32			0	42598	0	0	0	26119	24720	118906	26736	1013449	41568	109671	0	0	8513	388031	0	0
2024-06-06 18:12:32			0	42641	0	0	0	26127	24720	118882	26746	1013387	41568	109674	0	0	8515	386644	0	0
2024-06-06 18:13:32			0	42654	0	0	0	26127	24720	118838	26974	1013414	41557	109674	0	0	8516	386225	0	0
2024-06-06 18:14:32			0	42663	0	0	0	26129	24720	118762	27027	1013441	41579	109675	0	0	8516	385935	0	0
2024-06-06 18:15:32			0	42682	0	0	0	26127	24720	118734	27150	1013414	41557	109674	0	0	8517	385323	0	0
2024-06-06 18:16:32			0	42695	0	0	0	26127	24720	118686	27005	1013387	41568	109674	0	0	8518	384905	0	0
2024-06-06 18:17:32			0	42711	0	0	0	26116	24720	118654	27046	1013396	41568	109670	0	0	8519	384390	0	0
2024-06-06 18:18:32			0	42714	0	0	0	26124	24710	118610	26658	1013424	41555	109673	0	0	8519	384315	0	0
2024-06-06 18:19:32			0	42728	0	0	0	26127	24720	118558	27060	1013387	41568	109674	0	0	8520	383844	0	0
2024-06-06 18:20:32			0	42720	0	0	0	26124	24720	118630	26720	1013387	41557	109673	0	0	8519	384101	0	0
2024-06-06 18:21:32			0	42740	0	0	0	26114	24720	118531	26844	1013414	41557	109669	0	0	8520	383458	0	0
2024-06-06 18:22:32			0	42743	0	0	0	26124	24720	118635	26902	1013423	41568	109673	0	0	8520	383362	0	0
2024-06-06 18:23:32			0	42764	0	0	0	26122	24720	118515	26974	1013414	41568	109672	0	0	8522	382688	0	0
2024-06-06 18:24:32			0	42770	0	0	0	26119	24720	118611	26863	1013396	41557	109671	0	0	8522	382495	0	0
2024-06-06 18:25:32			0	42795	0	0	0	26124	24720	118611	26928	1013342	41568	109673	0	0	8523	381694	0	0
2024-06-06 18:26:32			0	42791	0	0	0	26122	24720	118655	27131	1013423	41590	109672	0	0	8523	381822	0	0
2024-06-06 18:27:32			0	42788	0	0	0	26119	24710	118527	27088	1013352	41567	109671	0	0	8523	381940	0	0
2024-06-06 18:28:32			0	42789	0	0	0	26127	24720	118527	26814	1013441	41579	109674	0	0	8523	381886	0	0
2024-06-06 18:29:32			0	42786	0	0	0	26132	24700	118483	27216	1013415	41555	109676	0	0	8523	382025	0	0
2024-06-06 18:30:32			0	42771	0	0	0	26119	24710	118499	27090	1013397	41577	109671	0	0	8522	382485	0	0
2024-06-06 18:31:32			0	42766	0	0	0	26119	24720	118499	26982	1013441	41557	109671	0	0	8522	382624	0	0
2024-06-06 18:32:32			0	42776	0	0	0	26127	24720	118459	27078	1013414	41557	109674	0	0	8522	382303	0	0
2024-06-06 18:33:32			0	42770	0	0	0	26137	24720	118535	27050	1013476	41568	109678	0	0	8522	382495	0	0
2024-06-06 18:34:32			0	42785	0	0	0	26142	24720	118491	27003	1013476	41579	109680	0	0	8522	382014	0	0
2024-06-06 18:35:32			0	42772	0	0	0	26140	24730	118547	27322	1013485	41580	109679	0	0	8522	382409	0	0
2024-06-06 18:36:32			0	42784	0	0	0	26142	24730	118471	27248	1013431	41569	109680	0	0	8522	382025	0	0
2024-06-06 18:37:32			0	42741	0	0	0	26142	24730	118519	27299	1013458	41569	109680	0	0	8520	383404	0	0
2024-06-06 18:38:32			0	42761	0	0	0	26135	24730	118499	27041	1013458	41569	109677	0	0	8521	382762	0	0
2024-06-06 18:39:32			0	42788	0	0	0	26135	24730	118515	27007	1013431	41557	109677	0	0	8523	381896	0	0
2024-06-06 18:40:32			0	42784	0	0	0	26148	24730	118519	27196	1013493	41557	109682	0	0	8522	382025	0	0
2024-06-06 18:41:32			0	42768	0	0	0	26145	24730	118527	26835	1013431	41569	109681	0	0	8522	382538	0	0
2024-06-06 18:42:32			0	42770	0	0	0	26142	24740	118535	27085	1013475	41558	109680	0	0	8522	382452	0	0
2024-06-06 18:43:32			0	42786	0	0	0	26135	24730	118539	27227	1013405	41569	109677	0	0	8523	381961	0	0
2024-06-06 18:44:32			0	42787	0	0	0	26135	24710	118491	27105	1013325	41578	109677	0	0	8523	381972	0	0
2024-06-06 18:45:32			0	42794	0	0	0	26127	24720	118539	27296	1013369	41568	109674	0	0	8523	381726	0	0
2024-06-06 18:46:32			0	42795	0	0	0	26114	24720	118467	27131	1013280	41557	109669	0	0	8524	381694	0	0
2024-06-06 18:47:32			0	42774	0	0	0	26106	24710	118515	26882	1013290	41555	109666	0	0	8522	382389	0	0
2024-06-06 18:48:32			0	42794	0	0	0	26103	24700	118451	26955	1013255	41566	109665	0	0	8524	381769	0	0
2024-06-06 18:49:32			0	42802	0	0	0	26101	24700	118407	26878	1013273	41566	109664	0	0	8524	381513	0	0
2024-06-06 18:50:32			0	42838	0	0	0	26096	24700	118427	26767	1013246	41555	109662	0	0	8526	380360	0	0
2024-06-06 18:51:32			0	42848	0	0	0	26083	24690	118323	27017	1013202	41564	109657	0	0	8527	380061	0	0
2024-06-06 18:52:32			0	42859	0	0	0	26080	24700	118255	26927	1013246	41577	109656	0	0	8528	379688	0	0
2024-06-06 18:53:32			0	42891	0	0	0	26072	24680	118271	27157	1013167	41564	109653	0	0	8529	378708	0	0
2024-06-06 18:54:32			0	42897	0	0	0	26064	24680	118259	27183	1013194	41542	109650	0	0	8530	378517	0	0
2024-06-06 18:55:32			0	42914	0	0	0	26064	24680	118223	26812	1013158	41575	109650	0	0	8531	377974	0	0
2024-06-06 18:56:32			0	42951	0	0	0	26051	24680	118147	27164	1013131	41552	109645	0	0	8533	376794	0	0
2024-06-06 18:57:32			0	42942	0	0	0	26046	24660	118095	27095	1013132	41562	109643	0	0	8532	377124	0	0
2024-06-06 18:58:32			0	42973	0	0	0	26033	24660	118091	27128	1013132	41562	109638	0	0	8534	376136	0	0
2024-06-06 18:59:32			0	42976	0	0	0	26031	24650	118059	27171	1013062	41562	109637	0	0	8535	376062	0	0
2024-06-06 19:00:32			0	42995	0	0	0	26018	24650	118007	27261	1012973	41549	109632	0	0	8536	375457	0	0
2024-06-06 19:01:32			0	43055	0	0	0	26015	24640	117775	27001	1013009	41560	109631	0	0	8539	373571	0	0
2024-06-06 19:02:32			0	43108	0	0	0	26010	24640	117651	27377	1013018	41561	109629	0	0	8542	371889	0	0
2024-06-06 19:03:32			0	43191	0	0	0	26007	24630	117511	27441	1012921	41570	109628	0	0	8547	369284	0	0
2024-06-06 19:04:32			0	43253	0	0	0	25994	24630	117407	26717	1012885	41559	109623	0	0	8550	367328	0	0
2024-06-06 19:05:32			0	43269	0	0	0	25992	24620	117379	27085	1012850	41559	109622	0	0	8551	366844	0	0
2024-06-06 19:06:32			0	43296	0	0	0	25986	24600	117259	27511	1012851	41557	109620	0	0	8553	366035	0	0
2024-06-06 19:07:32			0	43324	0	0	0	25981	24600	117215	27280	1012798	41557	109618	0	0	8555	365155	0	0
2024-06-06 19:08:32			0	43328	0	0	0	25976	24590	117255	27246	1012781	41556	109616	0	0	8555	365050	0	0
2024-06-06 19:09:32			0	43297	0	0	0	25968	24600	117299	27229	1012762	41568	109613	0	0	8553	366004	0	0
2024-06-06 19:10:32			0	43322	0	0	0	25971	24590	117355	26953	1012807	41556	109614	0	0	8555	365238	0	0
2024-06-06 19:11:32			0	43255	0	0	0	25966	24580	117427	27187	1012755	41543	109612	0	0	8551	367368	0	0
2024-06-06 19:12:32			0	43160	0	0	0	25963	24580	117595	26998	1012710	41544	109611	0	0	8546	370369	0	0
2024-06-06 19:13:32			0	43115	0	0	0	25966	24580	117807	26873	1012790	41567	109612	0	0	8543	371794	0	0
2024-06-06 19:14:32			0	43029	0	0	0	25968	24590	117931	26970	1012799	41555	109613	0	0	8538	374503	0	0
2024-06-06 19:15:32			0	42967	0	0	0	25966	24580	118159	27072	1012710	41544	109612	0	0	8535	376497	0	0
2024-06-06 19:16:32			0	42948	0	0	0	25963	24570	118207	26913	1012658	41565	109611	0	0	8534	377124	0	0
2024-06-06 19:17:32			0	42946	0	0	0	25966	24580	118291	27137	1012728	41566	109612	0	0	8534	377167	0	0
2024-06-06 19:18:32			0	42960	0	0	0	25963	24580	118203	27291	1012728	41554	109611	0	0	8535	376720	0	0
2024-06-06 19:19:32			0	42953	0	0	0	25958	24570	118295	27027	1012720	41554	109609	0	0	8534	376965	0	0
2024-06-06 19:20:32			0	42958	0	0	0	25966	24570	118211	27095	1012684	41542	109612	0	0	8534	376805	0	0
2024-06-06 19:21:32			0	42952	0	0	0	25966	24570	118147	27036	1012738	41565	109612	0	0	8534	376997	0	0
2024-06-06 19:22:32			0	42984	0	0	0	25966	24560	118083	27149	1012702	41564	109612	0	0	8536	375998	0	0
2024-06-06 19:23:32			0	43084	0	0	0	25958	24570	117995	27074	1012666	41554	109609	0	0	8541	372798	0	0
2024-06-06 19:24:32			0	43144	0	0	0	25968	24560	117791	27144	1012721	41564	109613	0	0	8545	370917	0	0
2024-06-06 19:25:32			0	43207	0	0	0	25966	24570	117651	27024	1012711	41565	109612	0	0	8548	368904	0	0
2024-06-06 19:26:32			0	43255	0	0	0	25966	24570	117427	27008	1012693	41554	109612	0	0	8551	367389	0	0
2024-06-06 19:27:32			0	43293	0	0	0	25968	24560	117399	27072	1012667	41553	109613	0	0	8553	366213	0	0
2024-06-06 19:28:32			0	43334	0	0	0	25963	24570	117403	26635	1012711	41553	109611	0	0	8555	364902	0	0
2024-06-06 19:29:32			0	43327	0	0	0	25973	24560	117327	26883	1012756	41564	109615	0	0	8555	365143	0	0
2024-06-06 19:30:32			0	43337	0	0	0	25976	24560	117383	27053	1012747	41564	109616	0	0	8555	364828	0	0
2024-06-06 19:31:32			0	43344	0	0	0	25966	24560	117295	27090	1012721	41553	109612	0	0	8556	364608	0	0
2024-06-06 19:32:32			0	43364	0	0	0	25963	24560	117199	26960	1012694	41553	109611	0	0	8557	363980	0	0
2024-06-06 19:33:32			0	43371	0	0	0	25971	24560	117232	27185	1012694	41553	109614	0	0	8557	363760	0	0
2024-06-06 19:34:32			0	43390	0	0	0	25971	24560	117188	26897	1012676	41564	109614	0	0	8558	363164	0	0
2024-06-06 19:35:32			0	43384	0	0	0	25966	24560	117204	27149	1012667	41553	109612	0	0	8558	363352	0	0
2024-06-06 19:36:32			0	43426	0	0	0	25973	24560	117088	27178	1012694	41553	109615	0	0	8560	362035	0	0
2024-06-06 19:37:32			0	43437	0	0	0	25968	24560	117088	27220	1012640	41564	109613	0	0	8561	361691	0	0
2024-06-06 19:38:32			0	43442	0	0	0	25968	24560	117092	26722	1012640	41564	109613	0	0	8561	361534	0	0
2024-06-06 19:39:32			0	43433	0	0	0	25966	24540	117020	27253	1012614	41551	109612	0	0	8561	361857	0	0
2024-06-06 19:40:32			0	43471	0	0	0	25963	24560	117068	27126	1012640	41553	109611	0	0	8563	360627	0	0
2024-06-06 19:41:32			0	43460	0	0	0	25955	24550	117056	26866	1012650	41552	109608	0	0	8562	360991	0	0
2024-06-06 19:42:32			0	43454	0	0	0	25950	24540	117036	27339	1012614	41573	109606	0	0	8562	361199	0	0
2024-06-06 19:43:32			0	43447	0	0	0	25950	24550	117024	27124	1012658	41553	109606	0	0	8562	361398	0	0
2024-06-06 19:44:32			0	43428	0	0	0	25953	24550	117052	27064	1012623	41552	109607	0	0	8561	361993	0	0
2024-06-06 19:45:32			0	43448	0	0	0	25948	24560	117016	27102	1012667	41564	109605	0	0	8562	361346	0	0
2024-06-06 19:46:32			0	43439	0	0	0	25948	24540	117024	27019	1012614	41562	109605	0	0	8561	361669	0	0
2024-06-06 19:47:32			0	43451	0	0	0	25942	24540	117028	27119	1012588	41573	109603	0	0	8562	361293	0	0
2024-06-06 19:48:32			0	43425	0	0	0	25953	24550	117040	27317	1012623	41563	109607	0	0	8560	362087	0	0
2024-06-06 19:49:32			0	43435	0	0	0	25942	24540	117036	27225	1012606	41540	109603	0	0	8561	361794	0	0
2024-06-06 19:50:32			0	43420	0	0	0	25940	24530	117148	27013	1012597	41540	109602	0	0	8560	362285	0	0
2024-06-06 19:51:32			0	43417	0	0	0	25945	24540	117136	27079	1012606	41551	109604	0	0	8560	362358	0	0
2024-06-06 19:52:32			0	43414	0	0	0	25940	24540	117172	26956	1012633	41573	109602	0	0	8560	362452	0	0
2024-06-06 19:53:32			0	43391	0	0	0	25945	24520	117128	26904	1012634	41549	109604	0	0	8559	363215	0	0
2024-06-06 19:54:32			0	43399	0	0	0	25935	24530	117084	26994	1012597	41562	109600	0	0	8559	362943	0	0
2024-06-06 19:55:32			0	43389	0	0	0	25935	24540	117132	26913	1012552	41573	109600	0	0	8559	363237	0	0
2024-06-06 19:56:32			0	43389	0	0	0	25937	24540	117232	27280	1012606	41551	109601	0	0	8559	363237	0	0
2024-06-06 19:57:32			0	43377	0	0	0	25924	24520	117204	26967	1012500	41560	109596	0	0	8558	363654	0	0
2024-06-06 19:58:32			0	43343	0	0	0	25922	24530	117187	27100	1012509	41550	109595	0	0	8556	364702	0	0
2024-06-06 19:59:32			0	43365	0	0	0	25924	24520	117196	27024	1012500	41560	109596	0	0	8557	364031	0	0
2024-06-06 20:00:32			0	43374	0	0	0	25929	24530	117196	27118	1012571	41562	109598	0	0	8558	363728	0	0
2024-06-06 20:01:32			0	43354	0	0	0	25916	24520	117255	27164	1012518	41560	109593	0	0	8557	364377	0	0
2024-06-06 20:02:32			0	43358	0	0	0	25919	24530	117219	26968	1012535	41550	109594	0	0	8557	364230	0	0
2024-06-06 20:03:32			0	43357	0	0	0	25924	24520	117215	26627	1012500	41560	109596	0	0	8557	364282	0	0
2024-06-06 20:04:32			0	43336	0	0	0	25919	24510	117263	27144	1012483	41548	109594	0	0	8556	364963	0	0
2024-06-06 20:05:32			0	43333	0	0	0	25914	24520	117267	27343	1012572	41560	109592	0	0	8556	365037	0	0
2024-06-06 20:06:32			0	43330	0	0	0	25914	24510	117287	27201	1012536	41559	109592	0	0	8556	365152	0	0
2024-06-06 20:07:32			0	43350	0	0	0	25919	24510	117311	26911	1012510	41559	109594	0	0	8557	364523	0	0
2024-06-06 20:08:32			0	43322	0	0	0	25916	24510	117351	27003	1012510	41548	109593	0	0	8555	365403	0	0
2024-06-06 20:09:32			0	43329	0	0	0	25909	24510	117351	26731	1012510	41559	109590	0	0	8556	365183	0	0
2024-06-06 20:10:32			0	43309	0	0	0	25914	24510	117351	27175	1012501	41559	109592	0	0	8554	365813	0	0
2024-06-06 20:11:32			0	43297	0	0	0	25911	24510	117371	27062	1012456	41571	109591	0	0	8554	366190	0	0
2024-06-06 20:12:32			0	43306	0	0	0	25914	24520	117355	27230	1012527	41572	109592	0	0	8554	365886	0	0
2024-06-06 20:13:32			0	43289	0	0	0	25914	24510	117447	26705	1012403	41548	109592	0	0	8553	366442	0	0
2024-06-06 20:14:32			0	43287	0	0	0	25909	24510	117435	26998	1012501	41548	109590	0	0	8553	366505	0	0
2024-06-06 20:15:32			0	43277	0	0	0	25911	24500	117451	27180	1012439	41558	109591	0	0	8553	366841	0	0
2024-06-06 20:16:32			0	43280	0	0	0	25906	24500	117447	27027	1012439	41558	109589	0	0	8553	366747	0	0
2024-06-06 20:17:32			0	43255	0	0	0	25911	24510	117523	26979	1012501	41548	109591	0	0	8552	367514	0	0
2024-06-06 20:18:32			0	43252	0	0	0	25911	24510	117535	26798	1012448	41559	109591	0	0	8551	367609	0	0
2024-06-06 20:19:32			0	43257	0	0	0	25903	24500	117411	26852	1012439	41558	109588	0	0	8552	367472	0	0
2024-06-06 20:20:32			0	43251	0	0	0	25903	24510	117563	26462	1012448	41559	109588	0	0	8551	367640	0	0
2024-06-06 20:21:32			0	43247	0	0	0	25903	24500	117559	27031	1012359	41570	109588	0	0	8551	367787	0	0
2024-06-06 20:22:32			0	43262	0	0	0	25906	24500	117519	27072	1012412	41570	109589	0	0	8552	367314	0	0
2024-06-06 20:23:32			0	43238	0	0	0	25896	24510	117595	26979	1012474	41571	109585	0	0	8551	368050	0	0
2024-06-06 20:24:32			0	43244	0	0	0	25906	24500	117535	26932	1012412	41537	109589	0	0	8551	367882	0	0
2024-06-06 20:25:32			0	43227	0	0	0	25906	24500	117575	26786	1012431	41558	109589	0	0	8550	368418	0	0
2024-06-06 20:26:32			0	43222	0	0	0	25903	24500	117543	26857	1012386	41558	109588	0	0	8550	368576	0	0
2024-06-06 20:27:32			0	43234	0	0	0	25893	24490	117591	26715	1012342	41558	109584	0	0	8551	368218	0	0
2024-06-06 20:28:32			0	43224	0	0	0	25898	24500	117607	26722	1012377	41569	109586	0	0	8550	368513	0	0
2024-06-06 20:29:32			0	43215	0	0	0	25893	24490	117575	26804	1012395	41546	109584	0	0	8550	368818	0	0
2024-06-06 20:30:32			0	43215	0	0	0	25898	24490	117635	26996	1012369	41558	109586	0	0	8549	368818	0	0
2024-06-06 20:31:32			0	43196	0	0	0	25888	24490	117599	26892	1012360	41546	109582	0	0	8549	369419	0	0
2024-06-06 20:32:32			0	43215	0	0	0	25898	24490	117739	26717	1012333	41546	109586	0	0	8549	368818	0	0
2024-06-06 20:33:32			0	43214	0	0	0	25885	24490	117675	26866	1012369	41546	109581	0	0	8550	368850	0	0
2024-06-06 20:34:32			0	43186	0	0	0	25890	24500	117659	26918	1012377	41558	109583	0	0	8548	369714	0	0
2024-06-06 20:35:32			0	43193	0	0	0	25883	24490	117691	27036	1012342	41558	109580	0	0	8548	369513	0	0
2024-06-06 20:36:32			0	43189	0	0	0	25890	24480	117731	26748	1012351	41557	109583	0	0	8548	369661	0	0
2024-06-06 20:37:32			0	43177	0	0	0	25890	24490	117747	27105	1012387	41569	109583	0	0	8547	370020	0	0
2024-06-06 20:38:32			0	43181	0	0	0	25896	24490	117715	26741	1012342	41558	109585	0	0	8548	369893	0	0
2024-06-06 20:39:32			0	43162	0	0	0	25885	24500	117723	27105	1012386	41558	109581	0	0	8547	370473	0	0
2024-06-06 20:40:32			0	43175	0	0	0	25896	24500	117767	27320	1012404	41569	109585	0	0	8547	370062	0	0
2024-06-06 20:41:32			0	43159	0	0	0	25896	24490	117715	26961	1012422	41546	109585	0	0	8546	370589	0	0
2024-06-06 20:42:32			0	43145	0	0	0	25901	24500	117731	26974	1012404	41569	109587	0	0	8546	371011	0	0
2024-06-06 20:43:32			0	43156	0	0	0	25896	24500	117775	27147	1012431	41558	109585	0	0	8546	370663	0	0
2024-06-06 20:44:32			0	43149	0	0	0	25906	24490	117755	27046	1012395	41558	109589	0	0	8546	370906	0	0
2024-06-06 20:45:32			0	43153	0	0	0	25898	24490	117791	26627	1012422	41546	109586	0	0	8546	370779	0	0
2024-06-06 20:46:32			0	43137	0	0	0	25903	24500	117863	26826	1012484	41546	109588	0	0	8545	371265	0	0
2024-06-06 20:47:32			0	43132	0	0	0	25906	24510	117839	27013	1012448	41559	109589	0	0	8545	371402	0	0
2024-06-06 20:48:32			0	43140	0	0	0	25898	24500	117819	27209	1012404	41546	109586	0	0	8545	371170	0	0
2024-06-06 20:49:32			0	43138	0	0	0	25909	24500	117875	27168	1012431	41558	109590	0	0	8545	371233	0	0
2024-06-06 20:50:32			0	43136	0	0	0	25909	24500	117867	26765	1012466	41558	109590	0	0	8545	371297	0	0
2024-06-06 20:51:32			0	43116	0	0	0	25909	24500	117935	27104	1012439	41547	109590	0	0	8544	371930	0	0
2024-06-06 20:52:32			0	43097	0	0	0	25898	24490	117943	27086	1012475	41558	109586	0	0	8543	372554	0	0
2024-06-06 20:53:32			0	43103	0	0	0	25909	24510	117919	27147	1012421	41559	109590	0	0	8543	372322	0	0
2024-06-06 20:54:32			0	43098	0	0	0	25906	24500	117999	27227	1012404	41558	109589	0	0	8543	372501	0	0
2024-06-06 20:55:32			0	43098	0	0	0	25906	24500	117951	26817	1012484	41546	109589	0	0	8543	372501	0	0
2024-06-06 20:56:32			0	43088	0	0	0	25909	24500	117983	27147	1012431	41558	109590	0	0	8542	372819	0	0
2024-06-06 20:57:32			0	43060	0	0	0	25901	24490	117915	26909	1012413	41558	109587	0	0	8541	373729	0	0
2024-06-06 20:58:32			0	43064	0	0	0	25911	24500	117971	27041	1012386	41558	109591	0	0	8541	373581	0	0
2024-06-06 20:59:32			0	43060	0	0	0	25903	24500	118043	27111	1012377	41546	109588	0	0	8541	373708	0	0
2024-06-06 21:00:32			0	43054	0	0	0	25903	24490	118055	26927	1012387	41569	109588	0	0	8540	373920	0	0
2024-06-06 21:01:32			0	43057	0	0	0	25901	24500	118107	26961	1012412	41558	109587	0	0	8541	373803	0	0
2024-06-06 21:02:32			0	43070	0	0	0	25898	24490	118075	26670	1012360	41569	109586	0	0	8541	373411	0	0
2024-06-06 21:03:32			0	43055	0	0	0	25888	24490	118075	27105	1012422	41558	109582	0	0	8541	373888	0	0
2024-06-06 21:04:32			0	43047	0	0	0	25888	24500	118059	27201	1012350	41536	109582	0	0	8540	374121	0	0
2024-06-06 21:05:32			0	43058	0	0	0	25888	24490	118015	27206	1012413	41558	109582	0	0	8541	373793	0	0
2024-06-06 21:06:32			0	43071	0	0	0	25885	24490	117983	26793	1012306	41546	109581	0	0	8542	373379	0	0
2024-06-06 21:07:32			0	43062	0	0	0	25877	24470	117911	26972	1012308	41544	109578	0	0	8541	373708	0	0
2024-06-06 21:08:32			0	43076	0	0	0	25880	24480	117927	27038	1012351	41557	109579	0	0	8542	373242	0	0
2024-06-06 21:09:32			0	43087	0	0	0	25875	24470	117915	27140	1012334	41556	109577	0	0	8543	372913	0	0
2024-06-06 21:10:32			0	43083	0	0	0	25870	24470	117963	26981	1012272	41544	109575	0	0	8543	373041	0	0
2024-06-06 21:11:32			0	43082	0	0	0	25870	24480	117951	27140	1012316	41567	109575	0	0	8543	373051	0	0
2024-06-06 21:12:32			0	43093	0	0	0	25864	24470	117995	26920	1012272	41556	109573	0	0	8543	372723	0	0
2024-06-06 21:13:32			0	43077	0	0	0	25870	24470	117967	26920	1012272	41544	109575	0	0	8542	373231	0	0
2024-06-06 21:14:32			0	43079	0	0	0	25867	24460	118027	27230	1012264	41544	109574	0	0	8542	373189	0	0
2024-06-06 21:15:32			0	43089	0	0	0	25859	24460	118015	27216	1012237	41555	109571	0	0	8543	372871	0	0
2024-06-06 21:16:32			0	43085	0	0	0	25849	24470	117983	27220	1012272	41578	109567	0	0	8543	372977	0	0
2024-06-06 21:17:32			0	43069	0	0	0	25862	24460	117935	26951	1012237	41555	109572	0	0	8542	373506	0	0
2024-06-06 21:18:32			0	43073	0	0	0	25859	24460	118043	26984	1012237	41555	109571	0	0	8542	373379	0	0
2024-06-06 21:19:32			0	43079	0	0	0	25857	24460	117971	27204	1012282	41554	109570	0	0	8542	373189	0	0
2024-06-06 21:20:32			0	43076	0	0	0	25849	24450	118023	26994	1012193	41565	109567	0	0	8542	373305	0	0
2024-06-06 21:21:32			0	43066	0	0	0	25854	24450	117955	27282	1012211	41543	109569	0	0	8542	373623	0	0
2024-06-06 21:22:32			0	43053	0	0	0	25849	24460	117979	26974	1012202	41554	109567	0	0	8541	374015	0	0
2024-06-06 21:23:32			0	43061	0	0	0	25851	24460	118079	27109	1012228	41565	109568	0	0	8542	373761	0	0
2024-06-06 21:24:32			0	43060	0	0	0	25849	24450	118027	27105	1012140	41554	109567	0	0	8542	373813	0	0
2024-06-06 21:25:32			0	43047	0	0	0	25851	24450	118083	27052	1012140	41554	109568	0	0	8541	374227	0	0
2024-06-06 21:26:32			0	43053	0	0	0	25849	24450	118035	27182	1012193	41554	109567	0	0	8541	374036	0	0
2024-06-06 21:27:32			0	43028	0	0	0	25854	24460	118047	26986	1012264	41544	109569	0	0	8540	374810	0	0
2024-06-06 21:28:32			0	43049	0	0	0	25854	24440	118119	27189	1012203	41553	109569	0	0	8541	374184	0	0
2024-06-06 21:29:32			0	43055	0	0	0	25851	24450	118119	27147	1012131	41543	109568	0	0	8541	373972	0	0
2024-06-06 21:30:32			0	43037	0	0	0	25851	24440	118083	26854	1012176	41542	109568	0	0	8540	374566	0	0
2024-06-06 21:31:32			0	43031	0	0	0	25851	24440	118031	27364	1012176	41553	109568	0	0	8540	374757	0	0
2024-06-06 21:32:32			0	43051	0	0	0	25854	24450	118151	27005	1012193	41543	109569	0	0	8541	374100	0	0
2024-06-06 21:33:32			0	43047	0	0	0	25859	24450	118039	27145	1012140	41554	109571	0	0	8541	374227	0	0
2024-06-06 21:34:32			0	43049	0	0	0	25864	24460	118127	27039	1012264	41555	109573	0	0	8541	374142	0	0
2024-06-06 21:35:32			0	43042	0	0	0	25854	24450	118203	27001	1012247	41543	109569	0	0	8540	374386	0	0
2024-06-06 21:36:32			0	43049	0	0	0	25859	24450	118067	27055	1012220	41565	109571	0	0	8541	374163	0	0
2024-06-06 21:37:32			0	43044	0	0	0	25867	24450	118131	27100	1012220	41565	109574	0	0	8540	374322	0	0
2024-06-06 21:38:32			0	43068	0	0	0	25872	24460	118019	27232	1012264	41555	109576	0	0	8542	373538	0	0
2024-06-06 21:39:32			0	43057	0	0	0	25862	24460	118063	27064	1012264	41566	109572	0	0	8541	373888	0	0
2024-06-06 21:40:32			0	43056	0	0	0	25859	24460	118047	26963	1012282	41554	109571	0	0	8541	373919	0	0
2024-06-06 21:41:32			0	43049	0	0	0	25867	24440	118067	26916	1012256	41553	109574	0	0	8541	374184	0	0
2024-06-06 21:42:32			0	43077	0	0	0	25875	24460	118111	26970	1012309	41554	109577	0	0	8542	373252	0	0
2024-06-06 21:43:32			0	43069	0	0	0	25870	24460	117955	27189	1012309	41565	109575	0	0	8542	373506	0	0
2024-06-06 21:44:32			0	43072	0	0	0	25864	24460	117991	26939	1012309	41565	109573	0	0	8542	373411	0	0
2024-06-06 21:45:32			0	43065	0	0	0	25870	24460	118043	27109	1012317	41555	109575	0	0	8541	373633	0	0
2024-06-06 21:46:32			0	43078	0	0	0	25872	24460	117943	27161	1012317	41555	109576	0	0	8542	373221	0	0
2024-06-06 21:47:32			0	43079	0	0	0	25872	24460	118047	27383	1012290	41555	109576	0	0	8542	373189	0	0
2024-06-06 21:48:32			0	43098	0	0	0	25867	24460	117991	26987	1012317	41555	109574	0	0	8543	372586	0	0
2024-06-06 21:49:32			0	43116	0	0	0	25872	24460	117995	26994	1012255	41543	109576	0	0	8544	372015	0	0
2024-06-06 21:50:32			0	43114	0	0	0	25872	24460	117967	27100	1012237	41555	109576	0	0	8544	372078	0	0
2024-06-06 21:51:32			0	43117	0	0	0	25872	24470	117927	27156	1012353	41544	109576	0	0	8544	371962	0	0
2024-06-06 21:52:32			0	43131	0	0	0	25875	24460	117895	27128	1012309	41577	109577	0	0	8545	371539	0	0
2024-06-06 21:53:32			0	43132	0	0	0	25880	24470	117811	27166	1012326	41567	109579	0	0	8545	371486	0	0
2024-06-06 21:54:32			0	43127	0	0	0	25893	24470	117867	26889	1012353	41556	109584	0	0	8545	371645	0	0
2024-06-06 21:55:32			0	43120	0	0	0	25890	24470	117863	26922	1012388	41556	109583	0	0	8544	371867	0	0
2024-06-06 21:56:32			0	43135	0	0	0	25901	24470	117823	27225	1012379	41556	109587	0	0	8545	371391	0	0
2024-06-06 21:57:32			0	43133	0	0	0	25896	24480	117811	26963	1012405	41568	109585	0	0	8545	371434	0	0
2024-06-06 21:58:32			0	43149	0	0	0	25898	24480	117851	27010	1012378	41557	109586	0	0	8546	370927	0	0
2024-06-06 21:59:32			0	43154	0	0	0	25903	24480	117887	27166	1012378	41568	109588	0	0	8546	370768	0	0
2024-06-06 22:00:32			0	43158	0	0	0	25898	24480	117815	27386	1012405	41568	109586	0	0	8546	370642	0	0
2024-06-06 22:01:32			0	43163	0	0	0	25896	24490	117823	26887	1012422	41569	109585	0	0	8547	370463	0	0
2024-06-06 22:02:32			0	43155	0	0	0	25888	24480	117779	27350	1012405	41568	109582	0	0	8546	370737	0	0
2024-06-06 22:03:32			0	43174	0	0	0	25898	24490	117719	27159	1012422	41580	109586	0	0	8547	370114	0	0
2024-06-06 22:04:32			0	43192	0	0	0	25898	24490	117831	27171	1012360	41569	109586	0	0	8548	369545	0	0
2024-06-06 22:05:32			0	43192	0	0	0	25896	24490	117755	27114	1012333	41558	109585	0	0	8548	369545	0	0
2024-06-06 22:06:32			0	43194	0	0	0	25893	24490	117747	27199	1012387	41569	109584	0	0	8548	369482	0	0
2024-06-06 22:07:32			0	43204	0	0	0	25893	24480	117743	27341	1012432	41557	109584	0	0	8549	369187	0	0
2024-06-06 22:08:32			0	43222	0	0	0	25888	24480	117695	27116	1012351	41568	109582	0	0	8550	368618	0	0
2024-06-06 22:09:32			0	43231	0	0	0	25888	24490	117611	27209	1012387	41558	109582	0	0	8550	368313	0	0
2024-06-06 22:10:32			0	43235	0	0	0	25898	24480	117571	27436	1012351	41579	109586	0	0	8551	368207	0	0
2024-06-06 22:11:32			0	43278	0	0	0	25885	24490	117627	27197	1012360	41569	109581	0	0	8553	366830	0	0
2024-06-06 22:12:32			0	43283	0	0	0	25896	24490	117579	27088	1012422	41569	109585	0	0	8553	366673	0	0
2024-06-06 22:13:32			0	43279	0	0	0	25893	24480	117455	27324	1012378	41557	109584	0	0	8553	366820	0	0
2024-06-06 22:14:32			0	43279	0	0	0	25893	24490	117439	27059	1012333	41569	109584	0	0	8553	366799	0	0
2024-06-06 22:15:32			0	43308	0	0	0	25893	24490	117479	27183	1012413	41569	109584	0	0	8555	365886	0	0
2024-06-06 22:16:32			0	43325	0	0	0	25901	24480	117519	27062	1012351	41568	109587	0	0	8555	365371	0	0
2024-06-06 22:17:32			0	43341	0	0	0	25888	24490	117439	27045	1012360	41569	109582	0	0	8557	364847	0	0
2024-06-06 22:18:32			0	43332	0	0	0	25898	24480	117411	27034	1012405	41557	109586	0	0	8556	365151	0	0
2024-06-06 22:19:32			0	43322	0	0	0	25898	24490	117327	26871	1012413	41569	109586	0	0	8555	365445	0	0
2024-06-06 22:20:32			0	43338	0	0	0	25906	24490	117331	27128	1012449	41569	109589	0	0	8556	364942	0	0
2024-06-06 22:21:32			0	43322	0	0	0	25909	24490	117463	26918	1012475	41591	109590	0	0	8555	365445	0	0
2024-06-06 22:22:32			0	43299	0	0	0	25916	24470	117495	27190	1012441	41567	109593	0	0	8554	366210	0	0
2024-06-06 22:23:32			0	43269	0	0	0	25916	24490	117567	26871	1012467	41569	109593	0	0	8552	367114	0	0
2024-06-06 22:24:32			0	43292	0	0	0	25914	24490	117563	27315	1012422	41558	109592	0	0	8553	366389	0	0
2024-06-06 22:25:32			0	43277	0	0	0	25911	24490	117547	27267	1012502	41580	109591	0	0	8553	366862	0	0
2024-06-06 22:26:32			0	43241	0	0	0	25919	24490	117579	26923	1012529	41580	109594	0	0	8551	367997	0	0
2024-06-06 22:27:32			0	43239	0	0	0	25916	24500	117687	26986	1012484	41569	109593	0	0	8551	368040	0	0
2024-06-06 22:28:32			0	43198	0	0	0	25919	24500	117679	27079	1012511	41580	109594	0	0	8548	369335	0	0
2024-06-06 22:29:32			0	43184	0	0	0	25916	24510	117771	26885	1012536	41571	109593	0	0	8547	369756	0	0
2024-06-06 22:30:32			0	43150	0	0	0	25916	24500	117863	27216	1012431	41580	109593	0	0	8546	370853	0	0
2024-06-06 22:31:32			0	43099	0	0	0	25906	24500	117943	27268	1012484	41569	109589	0	0	8543	372470	0	0
2024-06-06 22:32:32			0	43086	0	0	0	25916	24500	118127	26941	1012457	41569	109593	0	0	8542	372882	0	0
2024-06-06 22:33:32			0	43047	0	0	0	25909	24500	118031	27159	1012404	41569	109590	0	0	8540	374121	0	0
2024-06-06 22:34:32			0	43006	0	0	0	25911	24490	118171	26838	1012449	41569	109591	0	0	8538	375446	0	0
2024-06-06 22:35:32			0	42965	0	0	0	25903	24490	118279	26724	1012422	41558	109588	0	0	8536	376753	0	0
2024-06-06 22:36:32			0	42930	0	0	0	25903	24490	118375	27022	1012449	41569	109588	0	0	8534	377869	0	0
2024-06-06 22:37:32			0	42927	0	0	0	25903	24490	118339	27308	1012449	41580	109588	0	0	8533	377965	0	0
2024-06-06 22:38:32			0	42889	0	0	0	25903	24490	118495	26828	1012413	41580	109588	0	0	8531	379179	0	0
2024-06-06 22:39:32			0	42867	0	0	0	25906	24490	118487	27088	1012387	41558	109589	0	0	8530	379883	0	0
2024-06-06 22:40:32			0	42826	0	0	0	25890	24490	118631	27128	1012422	41569	109583	0	0	8528	381196	0	0
2024-06-06 22:41:32			0	42836	0	0	0	25893	24490	118695	26743	1012395	41580	109584	0	0	8529	380876	0	0
2024-06-06 22:42:32			0	42814	0	0	0	25883	24490	118639	27147	1012440	41558	109580	0	0	8528	381581	0	0
2024-06-06 22:43:32			0	42788	0	0	0	25888	24480	118867	27105	1012405	41568	109582	0	0	8526	382437	0	0
2024-06-06 22:44:32			0	42761	0	0	0	25888	24480	118839	26935	1012458	41590	109582	0	0	8525	383304	0	0
2024-06-06 22:45:32			0	42744	0	0	0	25893	24480	118847	27105	1012378	41568	109584	0	0	8524	383851	0	0
2024-06-06 22:46:32			0	42730	0	0	0	25893	24470	118919	27066	1012361	41556	109584	0	0	8523	384323	0	0
2024-06-06 22:47:32			0	42706	0	0	0	25898	24490	119026	27315	1012413	41569	109586	0	0	8521	385051	0	0
2024-06-06 22:48:32			0	42708	0	0	0	25898	24480	119034	27026	1012450	41567	109586	0	0	8521	385009	0	0
2024-06-06 22:49:32			0	42710	0	0	0	25896	24490	119074	27474	1012440	41569	109585	0	0	8522	384923	0	0
2024-06-06 22:50:32			0	42660	0	0	0	25898	24490	119038	27255	1012387	41569	109586	0	0	8519	386534	0	0
2024-06-06 22:51:32			0	42665	0	0	0	25893	24500	119234	27298	1012431	41569	109584	0	0	8519	386351	0	0
2024-06-06 22:52:32			0	42651	0	0	0	25898	24490	119114	27097	1012360	41569	109586	0	0	8518	386824	0	0
2024-06-06 22:53:32			0	42631	0	0	0	25896	24500	119110	27253	1012431	41569	109585	0	0	8517	387448	0	0
2024-06-06 22:54:32			0	42638	0	0	0	25893	24490	119198	27248	1012387	41569	109584	0	0	8518	387244	0	0
2024-06-06 22:55:32			0	42608	0	0	0	25898	24480	119242	27428	1012351	41579	109586	0	0	8516	388235	0	0
2024-06-06 22:56:32			0	42618	0	0	0	25901	24490	119230	26975	1012413	41580	109587	0	0	8517	387890	0	0
2024-06-06 22:57:32			0	42627	0	0	0	25901	24480	119198	27010	1012405	41557	109587	0	0	8517	387621	0	0
2024-06-06 22:58:32			0	42596	0	0	0	25903	24490	119198	27019	1012467	41569	109588	0	0	8515	388601	0	0
2024-06-06 22:59:32			0	42576	0	0	0	25901	24490	119346	26863	1012395	41558	109587	0	0	8514	389248	0	0
2024-06-06 23:00:32			0	42573	0	0	0	25901	24490	119202	27246	1012413	41569	109587	0	0	8514	389345	0	0
2024-06-06 23:01:32			0	42589	0	0	0	25903	24490	119278	27038	1012467	41569	109588	0	0	8515	388827	0	0
2024-06-06 23:02:32			0	42582	0	0	0	25906	24500	119346	27029	1012431	41569	109589	0	0	8515	389032	0	0
2024-06-06 23:03:32			0	42575	0	0	0	25903	24490	119302	27157	1012475	41569	109588	0	0	8514	389280	0	0
2024-06-06 23:04:32			0	42560	0	0	0	25896	24490	119262	27277	1012413	41569	109585	0	0	8513	389766	0	0
2024-06-06 23:05:32			0	42548	0	0	0	25903	24490	119342	26809	1012475	41558	109588	0	0	8513	390154	0	0
2024-06-06 23:06:32			0	42538	0	0	0	25898	24490	119262	27320	1012440	41580	109586	0	0	8512	390478	0	0
2024-06-06 23:07:32			0	42576	0	0	0	25903	24490	119282	27057	1012449	41558	109588	0	0	8514	389248	0	0
2024-06-06 23:08:32			0	42546	0	0	0	25893	24490	119334	26823	1012449	41569	109584	0	0	8513	390219	0	0
2024-06-06 23:09:32			0	42548	0	0	0	25906	24490	119278	27100	1012422	41558	109589	0	0	8513	390154	0	0
2024-06-06 23:10:32			0	42539	0	0	0	25890	24490	119286	27201	1012449	41569	109583	0	0	8512	390446	0	0
2024-06-06 23:11:32			0	42527	0	0	0	25903	24500	119318	27005	1012466	41570	109588	0	0	8512	390813	0	0
2024-06-06 23:12:32			0	42528	0	0	0	25898	24500	119358	27215	1012484	41569	109586	0	0	8512	390780	0	0
2024-06-06 23:13:32			0	42530	0	0	0	25893	24490	119338	27092	1012449	41580	109584	0	0	8512	390737	0	0
2024-06-06 23:14:32			0	42521	0	0	0	25901	24490	119378	27170	1012502	41558	109587	0	0	8511	391029	0	0
2024-06-06 23:15:32			0	42540	0	0	0	25901	24490	119342	27142	1012440	41558	109587	0	0	8512	390413	0	0
2024-06-06 23:16:32			0	42541	0	0	0	25901	24490	119434	26909	1012413	41569	109587	0	0	8512	390381	0	0
2024-06-06 23:17:32			0	42536	0	0	0	25911	24490	119410	26974	1012475	41569	109591	0	0	8512	390543	0	0
2024-06-06 23:18:32			0	42527	0	0	0	25911	24490	119466	27072	1012440	41569	109591	0	0	8511	390835	0	0
2024-06-06 23:19:32			0	42522	0	0	0	25903	24490	119346	26779	1012502	41580	109588	0	0	8511	390997	0	0
2024-06-06 23:20:32			0	42507	0	0	0	25914	24500	119422	27135	1012431	41558	109592	0	0	8510	391461	0	0
2024-06-06 23:21:32			0	42539	0	0	0	25916	24500	119406	27137	1012519	41558	109593	0	0	8512	390424	0	0
2024-06-06 23:22:32			0	42509	0	0	0	25901	24490	119462	27072	1012494	41569	109587	0	0	8511	391419	0	0
2024-06-06 23:23:32			0	42514	0	0	0	25911	24490	119482	26972	1012413	41569	109591	0	0	8511	391256	0	0
2024-06-06 23:24:32			0	42500	0	0	0	25906	24510	119458	27046	1012448	41571	109589	0	0	8510	391666	0	0
2024-06-06 23:25:32			0	42535	0	0	0	25906	24500	119438	27118	1012457	41580	109589	0	0	8512	390553	0	0
2024-06-06 23:26:32			0	42528	0	0	0	25916	24500	119402	27086	1012484	41569	109593	0	0	8511	390780	0	0
2024-06-06 23:27:32			0	42530	0	0	0	25903	24500	119390	26942	1012493	41570	109588	0	0	8512	390715	0	0
2024-06-06 23:28:32			0	42545	0	0	0	25911	24510	119426	26880	1012555	41571	109591	0	0	8513	390207	0	0
2024-06-06 23:29:32			0	42534	0	0	0	25909	24510	119354	27234	1012501	41582	109590	0	0	8512	390564	0	0
2024-06-06 23:30:32			0	42531	0	0	0	25909	24500	119434	26916	1012484	41580	109590	0	0	8512	390683	0	0
2024-06-06 23:31:32			0	42536	0	0	0	25909	24510	119406	27274	1012448	41582	109590	0	0	8512	390499	0	0
2024-06-06 23:32:32			0	42525	0	0	0	25909	24500	119466	27026	1012457	41569	109590	0	0	8511	390877	0	0
2024-06-06 23:33:32			0	42525	0	0	0	25906	24500	119402	27095	1012546	41570	109589	0	0	8511	390877	0	0
2024-06-06 23:34:32			0	42512	0	0	0	25909	24500	119462	27279	1012538	41580	109590	0	0	8511	391299	0	0
2024-06-06 23:35:32			0	42530	0	0	0	25903	24500	119486	27282	1012493	41570	109588	0	0	8512	390715	0	0
2024-06-06 23:36:32			0	42511	0	0	0	25909	24500	119422	26880	1012511	41569	109590	0	0	8511	391331	0	0
2024-06-06 23:37:32			0	42525	0	0	0	25911	24500	119422	26906	1012511	41569	109591	0	0	8511	390877	0	0
2024-06-06 23:38:32			0	42530	0	0	0	25914	24490	119422	27111	1012475	41580	109592	0	0	8512	390737	0	0
2024-06-06 23:39:32			0	42535	0	0	0	25919	24500	119370	27163	1012484	41569	109594	0	0	8512	390553	0	0
2024-06-06 23:40:32			0	42533	0	0	0	25916	24500	119418	26909	1012493	41570	109593	0	0	8512	390618	0	0
2024-06-06 23:41:32			0	42516	0	0	0	25906	24510	119418	26887	1012501	41571	109589	0	0	8511	391147	0	0
2024-06-06 23:42:32			0	42528	0	0	0	25914	24500	119470	27088	1012519	41558	109592	0	0	8511	390780	0	0
2024-06-06 23:43:32			0	42554	0	0	0	25914	24500	119470	26701	1012546	41558	109592	0	0	8513	389938	0	0
2024-06-06 23:44:32			0	42546	0	0	0	25911	24500	119394	26859	1012511	41569	109591	0	0	8513	390197	0	0
2024-06-06 23:45:32			0	42543	0	0	0	25911	24500	119390	27211	1012519	41581	109591	0	0	8512	390294	0	0
2024-06-06 23:46:32			0	42534	0	0	0	25914	24510	119394	27131	1012501	41559	109592	0	0	8512	390564	0	0
2024-06-06 23:47:32			0	42538	0	0	0	25911	24500	119462	27066	1012493	41581	109591	0	0	8512	390456	0	0
2024-06-06 23:48:32			0	42556	0	0	0	25909	24500	119494	27135	1012511	41591	109590	0	0	8513	389873	0	0
2024-06-06 23:49:32			0	42558	0	0	0	25914	24510	119482	27048	1012536	41571	109592	0	0	8513	389786	0	0
2024-06-06 23:50:32			0	42549	0	0	0	25922	24510	119446	27138	1012581	41571	109595	0	0	8513	390078	0	0
2024-06-06 23:51:32			0	42536	0	0	0	25919	24500	119506	27123	1012493	41581	109594	0	0	8512	390521	0	0
2024-06-06 23:52:32			0	42544	0	0	0	25909	24500	119482	27045	1012493	41570	109590	0	0	8512	390262	0	0
2024-06-06 23:53:32			0	42521	0	0	0	25916	24500	119478	27161	1012511	41569	109593	0	0	8511	391007	0	0
2024-06-06 23:54:32			0	42514	0	0	0	25909	24500	119470	27131	1012546	41570	109590	0	0	8511	391234	0	0
2024-06-06 23:55:32			0	42527	0	0	0	25916	24500	119470	27398	1012546	41581	109593	0	0	8511	390813	0	0
2024-06-06 23:56:32			0	42533	0	0	0	25916	24500	119446	27031	1012573	41570	109593	0	0	8512	390618	0	0
2024-06-06 23:57:32			0	42560	0	0	0	25914	24500	119374	26955	1012546	41581	109592	0	0	8513	389744	0	0
2024-06-06 23:58:32			0	42547	0	0	0	25906	24510	119430	27350	1012501	41582	109589	0	0	8513	390143	0	0
2024-06-06 23:59:32			0	42533	0	0	0	25914	24500	119442	27350	1012466	41581	109592	0	0	8512	390618	0	0
2024-06-07 00:00:32			0	42542	0	0	0	25916	24520	119358	27076	1012491	41583	109593	0	0	8512	390282	0	0
2024-06-07 00:01:32			0	42521	0	0	0	25919	24500	119398	27256	1012493	41570	109594	0	0	8511	391007	0	0
2024-06-07 00:02:32			0	42534	0	0	0	25919	24510	119518	27046	1012581	41582	109594	0	0	8512	390564	0	0
2024-06-07 00:03:32			0	42519	0	0	0	25919	24520	119450	27338	1012598	41583	109594	0	0	8511	391028	0	0
2024-06-07 00:04:32			0	42538	0	0	0	25922	24500	119518	27422	1012519	41581	109595	0	0	8512	390456	0	0
2024-06-07 00:05:32			0	42520	0	0	0	25924	24500	119418	27057	1012519	41581	109596	0	0	8511	391040	0	0
2024-06-07 00:06:32			0	42521	0	0	0	25922	24510	119454	27310	1012474	41571	109595	0	0	8511	390985	0	0
2024-06-07 00:07:32			0	42533	0	0	0	25916	24510	119382	26974	1012501	41571	109593	0	0	8512	390596	0	0
2024-06-07 00:08:32			0	42526	0	0	0	25922	24510	119414	27039	1012528	41582	109595	0	0	8511	390823	0	0
2024-06-07 00:09:32			0	42525	0	0	0	25919	24510	119514	26902	1012555	41582	109594	0	0	8511	390855	0	0
2024-06-07 00:10:32			0	42519	0	0	0	25914	24510	119482	26883	1012501	41571	109592	0	0	8511	391050	0	0
2024-06-07 00:11:32			0	42525	0	0	0	25909	24510	119450	27267	1012555	41582	109590	0	0	8511	390855	0	0
2024-06-07 00:12:32			0	42518	0	0	0	25919	24520	119462	27149	1012572	41583	109594	0	0	8511	391060	0	0
2024-06-07 00:13:32			0	42518	0	0	0	25914	24510	119430	27228	1012528	41571	109592	0	0	8511	391082	0	0
2024-06-07 00:14:32			0	42503	0	0	0	25911	24490	119402	26798	1012502	41580	109591	0	0	8510	391613	0	0
2024-06-07 00:15:32			0	42525	0	0	0	25922	24510	119462	27175	1012563	41571	109595	0	0	8511	390855	0	0
2024-06-07 00:16:32			0	42523	0	0	0	25914	24500	119506	27362	1012573	41558	109592	0	0	8511	390942	0	0
2024-06-07 00:17:32			0	42528	0	0	0	25916	24510	119458	27351	1012555	41571	109593	0	0	8511	390758	0	0
2024-06-07 00:18:32			0	42505	0	0	0	25914	24500	119462	27170	1012546	41581	109592	0	0	8510	391526	0	0
2024-06-07 00:19:32			0	42509	0	0	0	25903	24500	119478	27081	1012519	41591	109588	0	0	8511	391396	0	0
2024-06-07 00:20:32			0	42537	0	0	0	25914	24500	119490	27192	1012546	41581	109592	0	0	8512	390489	0	0
2024-06-07 00:21:32			0	42511	0	0	0	25911	24500	119534	27081	1012546	41581	109591	0	0	8511	391331	0	0
2024-06-07 00:22:32			0	42529	0	0	0	25916	24500	119430	27098	1012573	41570	109593	0	0	8512	390748	0	0
2024-06-07 00:23:32			0	42505	0	0	0	25927	24500	119538	27114	1012546	41581	109597	0	0	8510	391526	0	0
2024-06-07 00:24:32			0	42506	0	0	0	25914	24510	119466	27083	1012483	41582	109592	0	0	8510	391471	0	0
2024-06-07 00:25:32			0	42509	0	0	0	25914	24510	119618	26986	1012510	41582	109592	0	0	8510	391374	0	0
2024-06-07 00:26:32			0	42501	0	0	0	25914	24500	119558	26949	1012538	41591	109592	0	0	8510	391656	0	0
2024-06-07 00:27:32			0	42486	0	0	0	25916	24510	119534	27173	1012563	41571	109593	0	0	8509	392121	0	0
2024-06-07 00:28:32			0	42492	0	0	0	25922	24510	119566	27206	1012528	41582	109595	0	0	8509	391926	0	0
2024-06-07 00:29:32			0	42487	0	0	0	25911	24500	119594	27092	1012573	41581	109591	0	0	8509	392110	0	0
2024-06-07 00:30:32			0	42483	0	0	0	25916	24500	119566	27074	1012546	41581	109593	0	0	8509	392240	0	0
2024-06-07 00:31:32			0	42499	0	0	0	25911	24510	119542	27026	1012555	41582	109591	0	0	8510	391699	0	0
2024-06-07 00:32:32			0	42478	0	0	0	25919	24510	119554	27121	1012563	41571	109594	0	0	8509	392380	0	0
2024-06-07 00:33:32			0	42486	0	0	0	25919	24500	119562	27220	1012573	41581	109594	0	0	8509	392143	0	0
2024-06-07 00:34:32			0	42495	0	0	0	25911	24510	119522	26975	1012555	41582	109591	0	0	8510	391828	0	0
2024-06-07 00:35:32			0	42488	0	0	0	25924	24510	119566	26968	1012555	41571	109596	0	0	8509	392056	0	0
2024-06-07 00:36:32			0	42503	0	0	0	25914	24510	119582	27154	1012563	41582	109592	0	0	8510	391569	0	0
2024-06-07 00:37:32			0	42488	0	0	0	25916	24500	119690	27194	1012573	41581	109593	0	0	8509	392078	0	0
2024-06-07 00:38:32			0	42479	0	0	0	25911	24510	119558	27308	1012528	41592	109591	0	0	8509	392348	0	0
2024-06-07 00:39:32			0	42474	0	0	0	25919	24500	119698	27241	1012573	41581	109594	0	0	8508	392532	0	0
2024-06-07 00:40:32			0	42470	0	0	0	25916	24500	119678	27152	1012466	41581	109593	0	0	8508	392662	0	0
2024-06-07 00:41:32			0	42482	0	0	0	25919	24520	119566	27235	1012598	41605	109594	0	0	8509	392228	0	0
2024-06-07 00:42:32			0	42452	0	0	0	25919	24510	119618	27319	1012581	41592	109594	0	0	8507	393225	0	0
2024-06-07 00:43:32			0	42476	0	0	0	25914	24510	119666	27008	1012590	41582	109592	0	0	8509	392445	0	0
2024-06-07 00:44:32			0	42458	0	0	0	25922	24520	119698	27001	1012545	41583	109595	0	0	8508	393008	0	0
2024-06-07 00:45:32			0	42467	0	0	0	25916	24510	119666	27327	1012635	41592	109593	0	0	8508	392738	0	0
2024-06-07 00:46:32			0	42461	0	0	0	25927	24510	119774	27090	1012590	41571	109597	0	0	8508	392933	0	0
2024-06-07 00:47:32			0	42456	0	0	0	25914	24510	119682	27055	1012474	41582	109592	0	0	8508	393095	0	0
2024-06-07 00:48:32			0	42452	0	0	0	25911	24490	119638	27197	1012369	41591	109591	0	0	8507	393270	0	0
2024-06-07 00:49:32			0	42445	0	0	0	25885	24490	119630	27175	1012360	41580	109581	0	0	8507	393497	0	0
2024-06-07 00:50:32			0	42446	0	0	0	25862	24460	119654	27033	1012157	41544	109572	0	0	8508	393531	0	0
2024-06-07 00:51:32			0	42442	0	0	0	25825	24440	119738	27005	1012007	41563	109558	0	0	8508	393706	0	0
2024-06-07 00:52:32			0	42451	0	0	0	25794	24430	119790	27301	1011918	41541	109546	0	0	8509	393435	0	0
2024-06-07 00:53:32			0	42455	0	0	0	25776	24400	119706	26982	1011725	41549	109539	0	0	8509	393372	0	0
2024-06-07 00:54:32			0	42455	0	0	0	25742	24370	119694	27119	1011682	41546	109526	0	0	8510	393439	0	0
2024-06-07 00:55:32			0	42451	0	0	0	25709	24360	119714	27147	1011576	41545	109513	0	0	8510	393591	0	0
2024-06-07 00:56:32			0	42454	0	0	0	25685	24340	119790	27159	1011462	41543	109504	0	0	8511	393538	0	0
2024-06-07 00:57:32			0	42488	0	0	0	25651	24320	119778	27260	1011436	41541	109491	0	0	8513	392477	0	0
2024-06-07 00:58:32			0	42457	0	0	0	25618	24300	119750	27038	1011295	41550	109478	0	0	8512	393529	0	0
2024-06-07 00:59:32			0	42474	0	0	0	25597	24290	119706	27079	1011224	41540	109470	0	0	8513	392999	0	0
2024-06-07 01:00:32			0	42445	0	0	0	25571	24260	119810	27176	1011154	41547	109460	0	0	8512	394009	0	0
2024-06-07 01:01:32			0	42446	0	0	0	25563	24250	119750	27116	1011129	41536	109457	0	0	8512	393999	0	0
2024-06-07 01:02:32			0	42431	0	0	0	25553	24230	119750	27078	1011130	41545	109453	0	0	8511	394532	0	0
2024-06-07 01:03:32			0	42447	0	0	0	25555	24220	119802	27187	1011059	41533	109454	0	0	8512	394033	0	0
2024-06-07 01:04:32			0	42437	0	0	0	25553	24210	119926	27187	1011042	41542	109453	0	0	8512	394381	0	0
2024-06-07 01:05:32			0	42440	0	0	0	25550	24210	119874	26788	1011034	41542	109452	0	0	8512	394283	0	0
2024-06-07 01:06:32			0	42440	0	0	0	25558	24200	119854	27177	1010990	41541	109455	0	0	8512	394305	0	0
2024-06-07 01:07:32			0	42446	0	0	0	25558	24190	119890	27206	1010973	41530	109455	0	0	8512	394132	0	0
2024-06-07 01:08:32			0	42443	0	0	0	25566	24180	119870	26946	1011035	41562	109458	0	0	8512	394252	0	0
2024-06-07 01:09:32			0	42437	0	0	0	25589	24190	119886	27053	1011106	41541	109467	0	0	8511	394425	0	0
2024-06-07 01:10:32			0	42432	0	0	0	25618	24190	119946	26819	1011186	41551	109478	0	0	8510	394588	0	0
2024-06-07 01:11:32			0	42452	0	0	0	25631	24200	119878	27241	1011239	41553	109483	0	0	8511	393914	0	0
2024-06-07 01:12:32			0	42443	0	0	0	25662	24200	119898	27001	1011239	41553	109495	0	0	8510	394207	0	0
2024-06-07 01:13:32			0	42427	0	0	0	25688	24210	119890	27097	1011309	41553	109505	0	0	8509	394707	0	0
2024-06-07 01:14:32			0	42419	0	0	0	25706	24220	119938	27365	1011407	41566	109512	0	0	8508	394945	0	0
2024-06-07 01:15:32			0	42412	0	0	0	25722	24250	119990	27005	1011449	41558	109518	0	0	8508	395106	0	0
2024-06-07 01:16:32			0	42412	0	0	0	25742	24250	119954	27008	1011511	41569	109526	0	0	8507	395106	0	0
2024-06-07 01:17:32			0	42413	0	0	0	25753	24260	119842	27095	1011600	41580	109530	0	0	8507	395052	0	0
2024-06-07 01:18:32			0	42422	0	0	0	25766	24260	119906	27074	1011609	41570	109535	0	0	8507	394758	0	0
2024-06-07 01:19:32			0	42413	0	0	0	25779	24280	119958	26859	1011643	41560	109540	0	0	8507	395007	0	0
2024-06-07 01:20:32			0	42409	0	0	0	25792	24280	119958	27237	1011670	41560	109545	0	0	8506	395137	0	0
2024-06-07 01:21:32			0	42398	0	0	0	25789	24300	120010	27388	1011722	41583	109544	0	0	8506	395451	0	0
2024-06-07 01:22:32			0	42400	0	0	0	25805	24310	120006	27116	1011847	41585	109550	0	0	8506	395364	0	0
2024-06-07 01:23:32			0	42383	0	0	0	25812	24330	119974	27050	1011899	41575	109553	0	0	8505	395874	0	0
2024-06-07 01:24:32			0	42398	0	0	0	25828	24340	120018	27104	1011978	41599	109559	0	0	8505	395362	0	0
2024-06-07 01:25:32			0	42371	0	0	0	25836	24340	119986	27036	1012032	41577	109562	0	0	8504	396243	0	0
2024-06-07 01:26:32			0	42403	0	0	0	25841	24350	120018	26734	1011968	41567	109564	0	0	8505	395177	0	0
2024-06-07 01:27:32			0	42367	0	0	0	25844	24360	120018	27000	1011932	41568	109565	0	0	8503	396328	0	0
2024-06-07 01:28:32			0	42373	0	0	0	25846	24360	120050	26889	1011924	41579	109566	0	0	8504	396133	0	0
2024-06-07 01:29:32			0	42395	0	0	0	25844	24370	119982	26831	1011994	41579	109565	0	0	8505	395393	0	0
2024-06-07 01:30:32			0	42357	0	0	0	25851	24370	120026	27090	1012029	41590	109568	0	0	8503	396633	0	0
2024-06-07 01:31:32			0	42374	0	0	0	25846	24360	120010	26722	1012012	41579	109566	0	0	8504	396100	0	0
2024-06-07 01:32:32			0	42378	0	0	0	25849	24370	120114	27128	1011896	41569	109567	0	0	8504	395947	0	0
2024-06-07 01:33:32			0	42349	0	0	0	25838	24370	120034	27083	1011860	41556	109563	0	0	8503	396894	0	0
2024-06-07 01:34:32			0	42371	0	0	0	25820	24360	120046	26797	1011763	41568	109556	0	0	8504	396198	0	0
2024-06-07 01:35:32			0	42381	0	0	0	25797	24360	120122	26719	1011763	41568	109547	0	0	8505	395872	0	0
2024-06-07 01:36:32			0	42348	0	0	0	25768	24350	120050	27060	1011719	41554	109536	0	0	8504	396971	0	0
2024-06-07 01:37:32			0	42363	0	0	0	25745	24330	120014	27066	1011587	41554	109527	0	0	8505	396526	0	0
2024-06-07 01:38:32			0	42348	0	0	0	25716	24310	120090	26942	1011499	41552	109516	0	0	8504	397061	0	0
2024-06-07 01:39:32			0	42344	0	0	0	25675	24300	120130	27145	1011375	41540	109500	0	0	8505	397214	0	0
2024-06-07 01:40:32			0	42311	0	0	0	25654	24290	120090	26892	1011437	41550	109492	0	0	8503	398316	0	0
2024-06-07 01:41:32			0	42328	0	0	0	25625	24280	120110	27220	1011313	41538	109481	0	0	8505	397782	0	0
2024-06-07 01:42:32			0	42303	0	0	0	25605	24260	120242	27133	1011226	41546	109473	0	0	8504	398645	0	0
2024-06-07 01:43:32			0	42333	0	0	0	25592	24240	120258	27114	1011147	41535	109468	0	0	8505	397709	0	0
2024-06-07 01:44:32			0	42307	0	0	0	25573	24230	120194	26809	1011130	41556	109461	0	0	8504	398582	0	0
2024-06-07 01:45:32			0	42318	0	0	0	25555	24220	120170	26922	1011051	41532	109454	0	0	8505	398244	0	0
2024-06-07 01:46:32			0	42308	0	0	0	25550	24210	120214	27159	1011015	41553	109452	0	0	8505	398594	0	0
2024-06-07 01:47:32			0	42311	0	0	0	25542	24210	120214	26968	1011034	41542	109449	0	0	8505	398496	0	0
2024-06-07 01:48:32			0	42329	0	0	0	25542	24190	120178	26977	1010954	41541	109449	0	0	8506	397952	0	0
2024-06-07 01:49:32			0	42327	0	0	0	25524	24180	120178	26906	1010937	41551	109442	0	0	8506	398040	0	0
2024-06-07 01:50:32			0	42345	0	0	0	25519	24180	120190	27242	1010884	41541	109440	0	0	8507	397451	0	0
2024-06-07 01:51:32			0	42344	0	0	0	25511	24170	120150	27145	1010885	41539	109437	0	0	8507	397506	0	0
2024-06-07 01:52:32			0	42344	0	0	0	25514	24160	120102	27263	1010841	41549	109438	0	0	8507	397528	0	0
2024-06-07 01:53:32			0	42357	0	0	0	25514	24160	120162	26968	1010796	41538	109438	0	0	8508	397103	0	0
2024-06-07 01:54:32			0	42359	0	0	0	25498	24160	120142	26939	1010841	41538	109432	0	0	8508	397038	0	0
2024-06-07 01:55:32			0	42336	0	0	0	25496	24150	120102	27126	1010797	41526	109431	0	0	8507	397812	0	0
2024-06-07 01:56:32			0	42329	0	0	0	25501	24140	120166	27053	1010815	41525	109433	0	0	8506	398064	0	0
2024-06-07 01:57:32			0	42395	0	0	0	25501	24140	120190	26663	1010700	41537	109433	0	0	8510	395907	0	0
2024-06-07 01:58:32			0	42365	0	0	0	25488	24110	120166	26623	1010630	41523	109428	0	0	8508	396954	0	0
2024-06-07 01:59:32			0	42372	0	0	0	25488	24120	120130	26977	1010666	41535	109428	0	0	8509	396703	0	0
2024-06-07 02:00:32			0	42371	0	0	0	25475	24100	120154	26804	1010560	41543	109423	0	0	8509	396780	0	0
2024-06-07 02:01:32			0	42382	0	0	0	25480	24100	120126	27161	1010533	41533	109425	0	0	8509	396420	0	0
2024-06-07 02:02:32			0	42379	0	0	0	25462	24090	120118	26896	1010481	41541	109418	0	0	8509	396541	0	0
2024-06-07 02:03:32			0	42372	0	0	0	25459	24090	120146	27168	1010516	41521	109417	0	0	8509	396770	0	0
2024-06-07 02:04:32			0	42379	0	0	0	25438	24090	120166	27034	1010454	41508	109409	0	0	8510	396541	0	0
2024-06-07 02:05:32			0	42374	0	0	0	25444	24070	120182	26982	1010482	41519	109411	0	0	8509	396749	0	0
2024-06-07 02:06:32			0	42371	0	0	0	25433	24070	120150	27154	1010420	41518	109407	0	0	8509	396847	0	0
2024-06-07 02:07:32			0	42376	0	0	0	25431	24060	120126	27038	1010403	41528	109406	0	0	8510	396706	0	0
2024-06-07 02:08:32			0	42388	0	0	0	25423	24060	120106	26790	1010349	41517	109403	0	0	8511	396314	0	0
2024-06-07 02:09:32			0	42374	0	0	0	25420	24050	120146	27149	1010359	41528	109402	0	0	8510	396794	0	0
2024-06-07 02:10:32			0	42376	0	0	0	25412	24050	120190	27190	1010385	41539	109399	0	0	8510	396728	0	0
2024-06-07 02:11:32			0	42384	0	0	0	25410	24030	120126	26823	1010288	41515	109398	0	0	8510	396512	0	0
2024-06-07 02:12:32			0	42373	0	0	0	25410	24020	120138	27085	1010325	41526	109398	0	0	8510	396894	0	0
2024-06-07 02:13:32			0	42390	0	0	0	25415	24030	120146	26752	1010253	41526	109400	0	0	8511	396316	0	0
2024-06-07 02:14:32			0	42389	0	0	0	25399	24020	120142	27255	1010209	41514	109394	0	0	8511	396371	0	0
2024-06-07 02:15:32			0	42411	0	0	0	25394	24020	120094	26948	1010209	41525	109392	0	0	8512	395652	0	0
2024-06-07 02:16:32			0	42446	0	0	0	25392	24020	120114	26915	1010182	41514	109391	0	0	8514	394510	0	0
2024-06-07 02:17:32			0	42431	0	0	0	25392	24010	120118	27083	1010165	41535	109391	0	0	8513	395022	0	0
2024-06-07 02:18:32			0	42423	0	0	0	25394	23990	120134	27118	1010113	41500	109392	0	0	8513	395327	0	0
2024-06-07 02:19:32			0	42435	0	0	0	25392	24000	120158	26795	1010157	41513	109391	0	0	8513	394913	0	0
2024-06-07 02:20:32			0	42428	0	0	0	25379	24000	120058	27168	1010095	41523	109386	0	0	8513	395142	0	0
2024-06-07 02:21:32			0	42436	0	0	0	25374	24000	120098	26989	1010122	41523	109384	0	0	8514	394881	0	0
2024-06-07 02:22:32			0	42424	0	0	0	25366	23980	120010	27069	1010123	41510	109381	0	0	8513	395317	0	0
2024-06-07 02:23:32			0	42462	0	0	0	25371	23980	119994	27258	1010069	41510	109383	0	0	8515	394077	0	0
2024-06-07 02:24:32			0	42469	0	0	0	25350	23980	120022	27027	1009981	41510	109375	0	0	8516	393849	0	0
2024-06-07 02:25:32			0	42463	0	0	0	25348	23960	120062	26908	1009955	41508	109374	0	0	8515	394089	0	0
2024-06-07 02:26:32			0	42455	0	0	0	25332	23960	119986	27121	1009928	41519	109368	0	0	8515	394350	0	0
2024-06-07 02:27:32			0	42453	0	0	0	25337	23950	119942	26982	1009858	41519	109370	0	0	8515	394438	0	0
2024-06-07 02:28:32			0	42476	0	0	0	25329	23940	120006	27128	1009841	41518	109367	0	0	8516	393710	0	0
2024-06-07 02:29:32			0	42486	0	0	0	25324	23940	120054	27041	1009841	41518	109365	0	0	8517	393384	0	0
2024-06-07 02:30:32			0	42495	0	0	0	25311	23940	119974	27090	1009894	41506	109360	0	0	8518	393091	0	0
2024-06-07 02:31:32			0	42491	0	0	0	25309	23940	119942	26880	1009832	41518	109359	0	0	8518	393221	0	0
2024-06-07 02:32:32			0	42500	0	0	0	25314	23930	119990	27279	1009850	41505	109361	0	0	8518	392951	0	0
2024-06-07 02:33:32			0	42527	0	0	0	25311	23930	119918	27137	1009868	41505	109360	0	0	8519	392072	0	0
2024-06-07 02:34:32			0	42516	0	0	0	25322	23930	120002	27064	1009815	41517	109364	0	0	8519	392430	0	0
2024-06-07 02:35:32			0	42497	0	0	0	25314	23920	119954	27180	1009753	41505	109361	0	0	8518	393070	0	0
2024-06-07 02:36:32			0	42533	0	0	0	25309	23920	119870	27164	1009753	41516	109359	0	0	8520	391899	0	0
2024-06-07 02:37:32			0	42543	0	0	0	25309	23920	119850	26856	1009744	41504	109359	0	0	8520	391574	0	0
2024-06-07 02:38:32			0	42524	0	0	0	25314	23920	119838	27093	1009718	41504	109361	0	0	8519	392192	0	0
2024-06-07 02:39:32			0	42537	0	0	0	25311	23920	119922	26791	1009780	41516	109360	0	0	8520	391769	0	0
2024-06-07 02:40:32			0	42560	0	0	0	25303	23910	119786	26833	1009789	41515	109357	0	0	8521	391044	0	0
2024-06-07 02:41:32			0	42554	0	0	0	25309	23920	119766	27005	1009691	41515	109359	0	0	8521	391216	0	0
2024-06-07 02:42:32			0	42569	0	0	0	25303	23900	119754	26830	1009745	41525	109357	0	0	8522	390773	0	0
2024-06-07 02:43:32			0	42577	0	0	0	25296	23910	119782	27038	1009727	41493	109354	0	0	8522	390492	0	0
2024-06-07 02:44:32			0	42599	0	0	0	25301	23910	119634	27177	1009727	41526	109356	0	0	8523	389778	0	0
2024-06-07 02:45:32			0	42610	0	0	0	25301	23900	119702	27008	1009692	41492	109356	0	0	8524	389443	0	0
2024-06-07 02:46:32			0	42622	0	0	0	25301	23900	119654	26982	1009692	41514	109356	0	0	8525	389054	0	0
2024-06-07 02:47:32			0	42609	0	0	0	25285	23900	119694	26852	1009657	41513	109350	0	0	8524	389475	0	0
2024-06-07 02:48:32			0	42615	0	0	0	25293	23900	119590	27015	1009683	41513	109353	0	0	8524	389281	0	0
2024-06-07 02:49:32			0	42642	0	0	0	25280	23890	119662	27135	1009720	41502	109348	0	0	8526	388428	0	0
2024-06-07 02:50:32			0	42623	0	0	0	25275	23880	119538	27241	1009631	41523	109346	0	0	8525	389065	0	0
2024-06-07 02:51:32			0	42666	0	0	0	25267	23880	119538	26968	1009631	41512	109343	0	0	8528	387673	0	0
2024-06-07 02:52:32			0	42644	0	0	0	25270	23890	119586	27144	1009640	41502	109344	0	0	8526	388363	0	0
2024-06-07 02:53:32			0	42670	0	0	0	25264	23880	119534	27277	1009604	41501	109342	0	0	8528	387544	0	0
2024-06-07 02:54:32			0	42671	0	0	0	25275	23880	119502	27123	1009543	41511	109346	0	0	8528	387511	0	0
2024-06-07 02:55:32			0	42685	0	0	0	25272	23870	119494	26987	1009587	41500	109345	0	0	8529	387080	0	0
2024-06-07 02:56:32			0	42699	0	0	0	25270	23890	119478	27249	1009666	41524	109344	0	0	8529	386584	0	0
2024-06-07 02:57:32			0	42696	0	0	0	25272	23880	119450	27173	1009569	41511	109345	0	0	8529	386703	0	0
2024-06-07 02:58:32			0	42716	0	0	0	25270	23870	119386	27284	1009525	41511	109344	0	0	8530	386078	0	0
2024-06-07 02:59:32			0	42744	0	0	0	25272	23880	119375	27131	1009604	41491	109345	0	0	8532	385153	0	0
2024-06-07 03:00:32			0	42737	0	0	0	25267	23860	119319	27138	1009570	41510	109343	0	0	8531	385422	0	0
2024-06-07 03:01:32			0	42749	0	0	0	25272	23870	119303	27164	1009641	41511	109345	0	0	8532	385013	0	0
2024-06-07 03:02:32			0	42766	0	0	0	25270	23870	119295	26916	1009534	41511	109344	0	0	8533	384465	0	0
2024-06-07 03:03:32			0	42781	0	0	0	25275	23870	119211	26939	1009641	41523	109346	0	0	8534	383981	0	0
2024-06-07 03:04:32			0	42820	0	0	0	25264	23880	119211	27339	1009569	41523	109342	0	0	8536	382704	0	0
2024-06-07 03:05:32			0	42793	0	0	0	25272	23870	119151	27376	1009579	41523	109345	0	0	8534	383595	0	0
2024-06-07 03:06:32			0	42807	0	0	0	25275	23870	119095	27060	1009606	41511	109346	0	0	8535	383144	0	0
2024-06-07 03:07:32			0	42824	0	0	0	25270	23870	119119	26882	1009632	41523	109344	0	0	8536	382597	0	0
2024-06-07 03:08:32			0	42845	0	0	0	25275	23860	119059	26922	1009597	41500	109346	0	0	8537	381943	0	0
2024-06-07 03:09:32			0	42857	0	0	0	25275	23860	119023	27131	1009544	41510	109346	0	0	8538	381558	0	0
2024-06-07 03:10:32			0	42841	0	0	0	25267	23870	119087	27223	1009525	41511	109343	0	0	8537	382050	0	0
2024-06-07 03:11:32			0	42878	0	0	0	25264	23860	119035	27218	1009544	41510	109342	0	0	8539	380883	0	0
2024-06-07 03:12:32			0	42878	0	0	0	25257	23860	119007	27256	1009544	41510	109339	0	0	8539	380883	0	0
2024-06-07 03:13:32			0	42880	0	0	0	25257	23860	119075	26753	1009490	41522	109339	0	0	8539	380819	0	0
2024-06-07 03:14:32			0	42903	0	0	0	25254	23850	119051	26979	1009527	41498	109338	0	0	8541	380102	0	0
2024-06-07 03:15:32			0	42886	0	0	0	25251	23850	118963	27076	1009473	41498	109337	0	0	8540	380648	0	0
2024-06-07 03:16:32			0	42889	0	0	0	25254	23860	118951	27182	1009508	41509	109338	0	0	8540	380530	0	0
2024-06-07 03:17:32			0	42883	0	0	0	25244	23850	118959	27277	1009393	41509	109334	0	0	8540	380744	0	0
2024-06-07 03:18:32			0	42899	0	0	0	25244	23850	118943	26745	1009500	41509	109334	0	0	8541	380231	0	0
2024-06-07 03:19:32			0	42911	0	0	0	25244	23850	118927	27116	1009438	41509	109334	0	0	8541	379846	0	0
2024-06-07 03:20:32			0	42898	0	0	0	25244	23850	118883	27225	1009465	41509	109334	0	0	8541	380263	0	0
2024-06-07 03:21:32			0	42921	0	0	0	25246	23850	118927	27351	1009420	41520	109335	0	0	8542	379525	0	0
2024-06-07 03:22:32			0	42907	0	0	0	25236	23840	118935	26790	1009483	41509	109331	0	0	8541	379995	0	0
2024-06-07 03:23:32			0	42925	0	0	0	25236	23840	118871	27126	1009429	41520	109331	0	0	8542	379418	0	0
2024-06-07 03:24:32			0	42931	0	0	0	25241	23840	118879	26831	1009448	41519	109333	0	0	8542	379226	0	0
2024-06-07 03:25:32			0	42926	0	0	0	25241	23840	118935	27163	1009421	41508	109333	0	0	8542	379386	0	0
2024-06-07 03:26:32			0	42932	0	0	0	25233	23840	118935	27041	1009429	41509	109330	0	0	8543	379194	0	0
2024-06-07 03:27:32			0	42919	0	0	0	25233	23840	118963	26949	1009394	41497	109330	0	0	8542	379611	0	0
2024-06-07 03:28:32			0	42895	0	0	0	25225	23840	118919	27008	1009394	41508	109327	0	0	8541	380380	0	0
2024-06-07 03:29:32			0	42926	0	0	0	25233	23830	118983	26996	1009377	41507	109330	0	0	8542	379408	0	0
2024-06-07 03:30:32			0	42905	0	0	0	25238	23830	118967	26857	1009386	41518	109332	0	0	8541	380081	0	0
2024-06-07 03:31:32			0	42906	0	0	0	25228	23830	118947	26908	1009404	41497	109328	0	0	8541	380049	0	0
2024-06-07 03:32:32			0	42915	0	0	0	25233	23830	118971	27114	1009324	41507	109330	0	0	8542	379760	0	0
2024-06-07 03:33:32			0	42906	0	0	0	25228	23830	119011	27400	1009439	41507	109328	0	0	8541	380049	0	0
2024-06-07 03:34:32			0	42917	0	0	0	25223	23830	118983	27093	1009324	41497	109326	0	0	8542	379696	0	0
2024-06-07 03:35:32			0	42899	0	0	0	25225	23810	118955	27119	1009351	41505	109327	0	0	8541	380316	0	0
2024-06-07 03:36:32			0	42920	0	0	0	25225	23830	118987	27102	1009359	41507	109327	0	0	8542	379600	0	0
2024-06-07 03:37:32			0	42905	0	0	0	25225	23820	118903	26824	1009360	41517	109327	0	0	8541	380102	0	0
2024-06-07 03:38:32			0	42913	0	0	0	25225	23830	118899	27284	1009386	41518	109327	0	0	8542	379824	0	0
2024-06-07 03:39:32			0	42928	0	0	0	25220	23820	118919	27171	1009360	41517	109325	0	0	8543	379365	0	0
2024-06-07 03:40:32			0	42918	0	0	0	25212	23810	118887	27062	1009271	41505	109322	0	0	8542	379707	0	0
2024-06-07 03:41:32			0	42931	0	0	0	25215	23810	118907	27284	1009351	41483	109323	0	0	8543	379290	0	0
2024-06-07 03:42:32			0	42900	0	0	0	25223	23810	118931	27095	1009298	41505	109326	0	0	8541	380284	0	0
2024-06-07 03:43:32			0	42910	0	0	0	25215	23820	118971	27242	1009307	41506	109323	0	0	8542	379942	0	0
2024-06-07 03:44:32			0	42943	0	0	0	25212	23810	118935	27317	1009298	41516	109322	0	0	8543	378906	0	0
2024-06-07 03:45:32			0	42916	0	0	0	25223	23820	118967	27621	1009342	41518	109326	0	0	8542	379750	0	0
2024-06-07 03:46:32			0	42918	0	0	0	25231	23830	118899	27156	1009412	41507	109329	0	0	8542	379664	0	0
2024-06-07 03:47:32			0	42920	0	0	0	25233	23830	118959	27128	1009492	41507	109330	0	0	8542	379600	0	0
2024-06-07 03:48:32			0	42944	0	0	0	25238	23830	118883	26967	1009492	41507	109332	0	0	8543	378831	0	0
2024-06-07 03:49:32			0	42945	0	0	0	25254	23840	118831	27142	1009456	41520	109338	0	0	8543	378778	0	0
2024-06-07 03:50:32			0	42926	0	0	0	25264	23840	118867	26849	1009448	41519	109342	0	0	8542	379386	0	0
2024-06-07 03:51:32			0	42930	0	0	0	25262	23840	118847	27268	1009536	41498	109341	0	0	8542	379258	0	0
2024-06-07 03:52:32			0	42933	0	0	0	25270	23850	118791	27282	1009607	41520	109344	0	0	8542	379141	0	0
2024-06-07 03:53:32			0	42934	0	0	0	25277	23860	118839	27189	1009562	41521	109347	0	0	8542	379087	0	0
2024-06-07 03:54:32			0	42951	0	0	0	25283	23860	118791	27263	1009624	41522	109349	0	0	8543	378543	0	0
2024-06-07 03:55:32			0	42943	0	0	0	25288	23860	118803	27239	1009624	41522	109351	0	0	8542	378799	0	0
2024-06-07 03:56:32			0	42917	0	0	0	25306	23870	118859	27265	1009721	41534	109358	0	0	8541	379611	0	0
2024-06-07 03:57:32			0	42908	0	0	0	25340	23870	118871	27157	1009721	41523	109371	0	0	8540	379899	0	0
2024-06-07 03:58:32			0	42911	0	0	0	25366	23890	118779	27052	1009862	41536	109381	0	0	8539	379760	0	0
2024-06-07 03:59:32			0	42873	0	0	0	25384	23900	118863	27462	1010013	41558	109388	0	0	8537	380958	0	0
2024-06-07 04:00:32			0	42893	0	0	0	25420	23920	118887	27057	1010145	41548	109402	0	0	8538	380273	0	0
2024-06-07 04:01:32			0	42883	0	0	0	25444	23940	118875	26856	1010206	41562	109411	0	0	8537	380551	0	0
2024-06-07 04:02:32			0	42867	0	0	0	25477	23960	118883	26736	1010383	41552	109424	0	0	8535	381022	0	0
2024-06-07 04:03:32			0	42853	0	0	0	25529	23980	118987	27161	1010550	41554	109444	0	0	8534	381428	0	0
2024-06-07 04:04:32			0	42863	0	0	0	25566	24020	118935	27118	1010744	41580	109458	0	0	8534	381021	0	0
2024-06-07 04:05:32			0	42849	0	0	0	25592	24040	118899	27326	1010858	41572	109468	0	0	8533	381428	0	0
2024-06-07 04:06:32			0	42843	0	0	0	25623	24080	118939	27092	1010998	41585	109480	0	0	8532	381534	0	0
2024-06-07 04:07:32			0	42860	0	0	0	25649	24100	118975	27287	1011059	41565	109490	0	0	8533	380945	0	0
2024-06-07 04:08:32			0	42825	0	0	0	25657	24120	118903	27270	1011209	41556	109493	0	0	8531	382026	0	0
2024-06-07 04:09:32			0	42787	0	0	0	25638	24150	118943	26970	1011198	41570	109486	0	0	8529	383183	0	0
2024-06-07 04:10:32			0	42814	0	0	0	25631	24170	118927	27215	1011179	41561	109483	0	0	8531	382272	0	0
2024-06-07 04:11:32			0	42789	0	0	0	25610	24160	119003	26998	1011117	41549	109475	0	0	8530	383097	0	0
2024-06-07 04:12:32			0	42799	0	0	0	25594	24150	119119	27286	1011046	41537	109469	0	0	8530	382797	0	0
2024-06-07 04:13:32			0	42760	0	0	0	25592	24160	119079	27100	1011028	41560	109468	0	0	8528	384030	0	0
2024-06-07 04:14:32			0	42758	0	0	0	25576	24160	119243	27046	1010975	41560	109462	0	0	8528	384094	0	0
2024-06-07 04:15:32			0	42717	0	0	0	25558	24150	119294	27229	1010939	41537	109455	0	0	8526	385437	0	0
2024-06-07 04:16:32			0	42692	0	0	0	25542	24150	119310	26873	1010877	41548	109449	0	0	8525	386243	0	0
2024-06-07 04:17:32			0	42676	0	0	0	25542	24140	119362	27150	1010833	41547	109449	0	0	8524	386782	0	0
2024-06-07 04:18:32			0	42671	0	0	0	25529	24140	119378	27300	1010842	41558	109444	0	0	8524	386943	0	0
2024-06-07 04:19:32			0	42666	0	0	0	25522	24140	119402	27177	1010842	41547	109441	0	0	8524	387105	0	0
2024-06-07 04:20:32			0	42674	0	0	0	25516	24130	119314	27569	1010878	41557	109439	0	0	8525	386868	0	0
2024-06-07 04:21:32			0	42678	0	0	0	25519	24130	119358	27383	1010816	41556	109440	0	0	8525	386739	0	0
2024-06-07 04:22:32			0	42714	0	0	0	25511	24130	119254	27078	1010736	41556	109437	0	0	8527	385577	0	0
2024-06-07 04:23:32			0	42730	0	0	0	25509	24120	119235	27036	1010773	41545	109436	0	0	8528	385083	0	0
2024-06-07 04:24:32			0	42744	0	0	0	25509	24110	119167	27173	1010818	41555	109436	0	0	8529	384653	0	0
2024-06-07 04:25:32			0	42735	0	0	0	25498	24110	119135	27187	1010711	41534	109432	0	0	8528	384944	0	0
2024-06-07 04:26:32			0	42749	0	0	0	25490	24110	119199	27008	1010622	41533	109429	0	0	8529	384492	0	0
2024-06-07 04:27:32			0	42754	0	0	0	25470	24100	119087	26816	1010533	41533	109421	0	0	8530	384353	0	0
2024-06-07 04:28:32			0	42752	0	0	0	25438	24070	119167	27079	1010402	41530	109409	0	0	8530	384483	0	0
2024-06-07 04:29:32			0	42719	0	0	0	25428	24050	119242	26871	1010287	41505	109405	0	0	8528	385590	0	0
2024-06-07 04:30:32			0	42701	0	0	0	25412	24050	119394	27121	1010252	41516	109399	0	0	8528	386171	0	0
2024-06-07 04:31:32			0	42651	0	0	0	25399	24020	119498	27124	1010209	41525	109394	0	0	8525	387852	0	0
2024-06-07 04:32:32			0	42590	0	0	0	25379	24030	119730	27164	1010253	41537	109386	0	0	8522	389806	0	0
2024-06-07 04:33:32			0	42520	0	0	0	25374	24010	119882	27166	1010192	41513	109384	0	0	8518	392123	0	0
2024-06-07 04:34:32			0	42422	0	0	0	25371	24010	120122	27048	1010165	41535	109383	0	0	8513	395315	0	0
2024-06-07 04:35:32			0	42322	0	0	0	25374	24000	120418	26965	1010184	41535	109384	0	0	8508	398608	0	0
2024-06-07 04:36:32			0	42247	0	0	0	25366	24000	120670	27209	1010130	41524	109381	0	0	8504	401068	0	0
2024-06-07 04:37:32			0	42122	0	0	0	25374	24000	120934	27031	1010148	41523	109384	0	0	8497	405186	0	0
2024-06-07 04:38:32			0	42015	0	0	0	25374	24000	121257	26911	1010184	41546	109384	0	0	8491	408726	0	0
2024-06-07 04:39:32			0	41911	0	0	0	25371	23990	121557	26779	1010220	41523	109383	0	0	8485	412204	0	0
2024-06-07 04:40:32			0	41832	0	0	0	25386	24000	121697	26916	1010210	41524	109389	0	0	8481	414814	0	0
2024-06-07 04:41:32			0	41758	0	0	0	25386	24000	121865	27001	1010282	41523	109389	0	0	8477	417289	0	0
2024-06-07 04:42:32			0	41666	0	0	0	25394	24000	122161	26961	1010344	41535	109392	0	0	8472	420375	0	0
2024-06-07 04:43:32			0	41600	0	0	0	25412	24010	122345	27229	1010379	41524	109399	0	0	8468	422572	0	0
2024-06-07 04:44:32			0	41517	0	0	0	25418	24010	122485	27041	1010334	41546	109401	0	0	8464	425373	0	0
2024-06-07 04:45:32			0	41445	0	0	0	25407	24010	122737	27109	1010352	41524	109397	0	0	8460	427811	0	0
2024-06-07 04:46:32			0	41417	0	0	0	25412	24020	122944	27298	1010423	41536	109399	0	0	8459	428736	0	0
2024-06-07 04:47:32			0	41368	0	0	0	25407	24020	123008	27206	1010396	41536	109397	0	0	8456	430401	0	0
2024-06-07 04:48:32			0	41303	0	0	0	25402	24020	123088	27237	1010378	41526	109395	0	0	8453	432614	0	0
2024-06-07 04:49:32			0	41259	0	0	0	25386	24030	123280	27008	1010395	41527	109389	0	0	8451	434090	0	0
2024-06-07 04:50:32			0	41231	0	0	0	25386	24030	123296	26911	1010413	41526	109389	0	0	8449	435047	0	0
2024-06-07 04:51:32			0	41189	0	0	0	25376	24030	123404	27092	1010360	41526	109385	0	0	8447	436484	0	0
2024-06-07 04:52:32			0	41172	0	0	0	25355	24030	123488	27157	1010253	41526	109377	0	0	8447	437066	0	0
2024-06-07 04:53:32			0	41129	0	0	0	25345	24020	123532	27190	1010236	41514	109373	0	0	8445	438566	0	0
2024-06-07 04:54:32			0	41117	0	0	0	25337	24020	123668	26904	1010263	41525	109370	0	0	8444	438978	0	0
2024-06-07 04:55:32			0	41110	0	0	0	25340	24000	123632	27109	1010202	41500	109371	0	0	8444	439268	0	0
2024-06-07 04:56:32			0	41098	0	0	0	25342	24010	123720	27060	1010085	41524	109372	0	0	8443	439655	0	0
2024-06-07 04:57:32			0	41049	0	0	0	25340	23980	123772	27142	1010123	41510	109371	0	0	8440	441416	0	0
2024-06-07 04:58:32			0	41038	0	0	0	25337	23980	123768	26932	1010061	41510	109370	0	0	8440	441795	0	0
2024-06-07 04:59:32			0	41034	0	0	0	25329	23980	123808	27443	1010087	41521	109367	0	0	8440	441932	0	0
2024-06-07 05:00:32			0	41025	0	0	0	25348	23980	123936	26977	1010034	41521	109374	0	0	8439	442243	0	0
2024-06-07 05:01:32			0	41014	0	0	0	25345	23970	123896	26634	1010106	41521	109373	0	0	8438	442647	0	0
2024-06-07 05:02:32			0	41000	0	0	0	25348	23980	123928	27239	1010114	41521	109374	0	0	8438	443105	0	0
2024-06-07 05:03:32			0	40991	0	0	0	25324	23970	123988	27098	1010052	41521	109365	0	0	8437	443441	0	0
2024-06-07 05:04:32			0	40996	0	0	0	25301	23950	124024	27015	1009858	41508	109356	0	0	8438	443318	0	0
2024-06-07 05:05:32			0	40978	0	0	0	25283	23950	124040	26706	1009858	41508	109349	0	0	8437	443940	0	0
2024-06-07 05:06:32			0	40975	0	0	0	25293	23940	124032	27039	1009894	41506	109353	0	0	8437	444068	0	0
2024-06-07 05:07:32			0	40961	0	0	0	25306	23950	124048	27157	1009991	41519	109358	0	0	8436	444527	0	0
2024-06-07 05:08:32			0	40974	0	0	0	25324	23950	124084	26965	1009965	41519	109365	0	0	8436	444078	0	0
2024-06-07 05:09:32			0	40952	0	0	0	25319	23950	124096	27095	1009983	41519	109363	0	0	8435	444838	0	0
2024-06-07 05:10:32			0	40953	0	0	0	25324	23940	124092	27041	1009921	41506	109365	0	0	8435	444829	0	0
2024-06-07 05:11:32			0	40971	0	0	0	25316	23940	124052	27092	1009867	41496	109362	0	0	8436	444207	0	0
2024-06-07 05:12:32			0	40948	0	0	0	25311	23940	124120	27090	1009859	41506	109360	0	0	8435	445002	0	0
2024-06-07 05:13:32			0	40974	0	0	0	25285	23930	124108	26963	1009788	41517	109350	0	0	8437	444128	0	0
2024-06-07 05:14:32			0	40971	0	0	0	25264	23910	124124	27008	1009682	41504	109342	0	0	8437	444282	0	0
2024-06-07 05:15:32			0	40949	0	0	0	25241	23910	124108	27144	1009540	41504	109333	0	0	8436	445042	0	0
2024-06-07 05:16:32			0	40960	0	0	0	25212	23890	124136	27383	1009506	41492	109322	0	0	8437	444712	0	0
2024-06-07 05:17:32			0	40930	0	0	0	25210	23870	124172	27312	1009427	41500	109321	0	0	8436	445801	0	0
2024-06-07 05:18:32			0	40956	0	0	0	25197	23860	124180	26944	1009383	41500	109316	0	0	8437	444926	0	0
2024-06-07 05:19:32			0	40943	0	0	0	25192	23850	124160	27332	1009358	41498	109314	0	0	8437	445401	0	0
2024-06-07 05:20:32			0	40973	0	0	0	25186	23850	124200	26904	1009393	41498	109312	0	0	8438	444363	0	0
2024-06-07 05:21:32			0	40955	0	0	0	25184	23850	124184	26797	1009393	41520	109311	0	0	8437	444985	0	0
2024-06-07 05:22:32			0	40948	0	0	0	25189	23830	124152	26887	1009412	41507	109313	0	0	8437	445278	0	0
2024-06-07 05:23:32			0	40946	0	0	0	25179	23830	124152	26767	1009225	41497	109309	0	0	8437	445347	0	0
2024-06-07 05:24:32			0	40957	0	0	0	25158	23820	124136	27234	1009253	41506	109301	0	0	8438	444991	0	0
2024-06-07 05:25:32			0	40960	0	0	0	25145	23810	124168	27152	1009164	41495	109296	0	0	8438	444913	0	0
2024-06-07 05:26:32			0	40963	0	0	0	25140	23800	124248	27225	1009120	41505	109294	0	0	8438	444834	0	0
2024-06-07 05:27:32			0	40961	0	0	0	25135	23780	124192	27201	1009086	41502	109292	0	0	8438	444953	0	0
2024-06-07 05:28:32			0	40961	0	0	0	25127	23780	124248	27306	1009060	41481	109289	0	0	8438	444953	0	0
2024-06-07 05:29:32			0	40949	0	0	0	25111	23770	124300	27260	1009034	41490	109283	0	0	8438	445394	0	0
2024-06-07 05:30:32			0	40950	0	0	0	25109	23760	124312	27118	1008972	41479	109282	0	0	8438	445384	0	0
2024-06-07 05:31:32			0	40947	0	0	0	25101	23750	124264	27067	1009008	41489	109279	0	0	8438	445513	0	0
2024-06-07 05:32:32			0	40953	0	0	0	25101	23750	124220	26987	1008920	41500	109279	0	0	8438	445305	0	0
2024-06-07 05:33:32			0	40954	0	0	0	25103	23750	124364	27242	1008920	41500	109280	0	0	8438	445271	0	0
2024-06-07 05:34:32			0	40970	0	0	0	25098	23730	124192	27261	1008921	41509	109278	0	0	8439	444767	0	0
2024-06-07 05:35:32			0	40955	0	0	0	25098	23720	124252	27376	1008939	41498	109278	0	0	8438	445311	0	0
2024-06-07 05:36:32			0	40976	0	0	0	25098	23740	124316	27216	1009045	41510	109278	0	0	8440	444534	0	0
2024-06-07 05:37:32			0	40959	0	0	0	25122	23760	124244	27031	1009124	41500	109287	0	0	8438	445072	0	0
2024-06-07 05:38:32			0	40976	0	0	0	25132	23760	124312	27255	1009124	41523	109291	0	0	8439	444484	0	0
2024-06-07 05:39:32			0	40970	0	0	0	25150	23760	124256	27178	1009186	41512	109298	0	0	8438	444692	0	0
2024-06-07 05:40:32			0	40966	0	0	0	25150	23770	124284	27267	1009203	41501	109298	0	0	8438	444805	0	0
2024-06-07 05:41:32			0	40982	0	0	0	25148	23770	124236	27216	1009149	41480	109297	0	0	8439	444252	0	0
2024-06-07 05:42:32			0	41012	0	0	0	25135	23770	124160	26932	1009043	41491	109292	0	0	8441	443215	0	0
2024-06-07 05:43:32			0	40991	0	0	0	25119	23750	124128	26838	1008982	41478	109286	0	0	8440	443991	0	0
2024-06-07 05:44:32			0	41017	0	0	0	25111	23750	124160	27138	1009035	41489	109283	0	0	8442	443092	0	0
2024-06-07 05:45:32			0	40994	0	0	0	25106	23750	124104	27102	1008920	41477	109281	0	0	8440	443887	0	0
2024-06-07 05:46:32			0	41015	0	0	0	25098	23720	124144	26923	1009019	41475	109278	0	0	8442	443236	0	0
2024-06-07 05:47:32			0	41014	0	0	0	25098	23740	124052	27161	1009018	41510	109278	0	0	8442	443221	0	0
2024-06-07 05:48:32			0	41032	0	0	0	25103	23730	123984	27282	1008983	41510	109280	0	0	8442	442624	0	0
2024-06-07 05:49:32			0	41008	0	0	0	25116	23740	124008	27197	1009018	41488	109285	0	0	8441	443428	0	0
2024-06-07 05:50:32			0	41031	0	0	0	25106	23730	124040	27156	1008921	41487	109281	0	0	8442	442659	0	0
2024-06-07 05:51:32			0	41041	0	0	0	25109	23730	124060	27097	1008956	41488	109282	0	0	8443	442314	0	0
2024-06-07 05:52:32			0	41039	0	0	0	25106	23730	124024	27105	1008929	41488	109281	0	0	8443	442383	0	0
2024-06-07 05:53:32			0	41027	0	0	0	25096	23720	124036	26797	1008912	41498	109277	0	0	8442	442822	0	0
2024-06-07 05:54:32			0	41043	0	0	0	25098	23720	123960	27239	1008957	41486	109278	0	0	8443	442270	0	0
2024-06-07 05:55:32			0	41046	0	0	0	25103	23710	123892	27000	1008869	41486	109280	0	0	8443	442191	0	0
2024-06-07 05:56:32			0	41055	0	0	0	25096	23720	123960	27225	1008877	41486	109277	0	0	8444	441856	0	0
2024-06-07 05:57:32			0	41036	0	0	0	25090	23710	124080	27067	1008869	41507	109275	0	0	8443	442536	0	0
2024-06-07 05:58:32			0	41041	0	0	0	25090	23710	124044	26906	1008860	41497	109275	0	0	8443	442363	0	0
2024-06-07 05:59:32			0	41023	0	0	0	25090	23710	124116	26861	1008914	41497	109275	0	0	8442	442985	0	0
2024-06-07 06:00:32			0	41008	0	0	0	25083	23700	124068	27053	1008825	41496	109272	0	0	8441	443528	0	0
2024-06-07 06:01:32			0	41008	0	0	0	25090	23700	124048	27234	1008790	41484	109275	0	0	8441	443528	0	0
2024-06-07 06:02:32			0	41008	0	0	0	25083	23700	124080	27279	1008798	41506	109272	0	0	8441	443528	0	0
2024-06-07 06:03:32			0	40976	0	0	0	25093	23700	124116	27039	1008852	41506	109276	0	0	8440	444634	0	0
2024-06-07 06:04:32			0	40981	0	0	0	25098	23700	124140	27374	1008852	41496	109278	0	0	8440	444462	0	0
2024-06-07 06:05:32			0	40976	0	0	0	25096	23700	124252	27104	1008923	41495	109277	0	0	8439	444634	0	0
2024-06-07 06:06:32			0	40975	0	0	0	25106	23710	124196	27185	1008860	41507	109281	0	0	8439	444644	0	0
2024-06-07 06:07:32			0	40956	0	0	0	25103	23710	124268	27222	1008842	41497	109280	0	0	8438	445302	0	0
2024-06-07 06:08:32			0	40943	0	0	0	25098	23700	124400	27225	1008896	41495	109278	0	0	8438	445777	0	0
2024-06-07 06:09:32			0	40922	0	0	0	25096	23700	124396	27140	1008852	41496	109277	0	0	8437	446505	0	0
2024-06-07 06:10:32			0	40902	0	0	0	25096	23700	124396	27046	1008843	41495	109277	0	0	8436	447199	0	0
2024-06-07 06:11:32			0	40904	0	0	0	25101	23700	124460	26963	1008878	41496	109279	0	0	8436	447129	0	0
2024-06-07 06:12:32			0	40871	0	0	0	25098	23710	124504	26961	1008869	41497	109278	0	0	8434	448250	0	0
2024-06-07 06:13:32			0	40857	0	0	0	25111	23700	124496	26845	1008905	41518	109283	0	0	8433	448762	0	0
2024-06-07 06:14:32			0	40863	0	0	0	25103	23710	124528	26915	1008914	41507	109280	0	0	8433	448528	0	0
2024-06-07 06:15:32			0	40842	0	0	0	25119	23710	124520	26833	1008940	41486	109286	0	0	8432	449258	0	0
2024-06-07 06:16:32			0	40842	0	0	0	25122	23710	124528	26946	1008940	41519	109287	0	0	8432	449258	0	0
2024-06-07 06:17:32			0	40809	0	0	0	25122	23720	124720	26805	1008984	41507	109287	0	0	8430	450381	0	0
2024-06-07 06:18:32			0	40786	0	0	0	25140	23730	124668	26616	1009028	41520	109294	0	0	8429	451157	0	0
2024-06-07 06:19:32			0	40783	0	0	0	25148	23750	124672	26875	1009133	41510	109297	0	0	8429	451211	0	0
2024-06-07 06:20:32			0	40761	0	0	0	25163	23740	124779	27145	1009178	41500	109303	0	0	8427	452004	0	0
2024-06-07 06:21:32			0	40770	0	0	0	25181	23760	124772	27215	1009239	41523	109310	0	0	8427	451639	0	0
2024-06-07 06:22:32			0	40743	0	0	0	25192	23780	124783	27119	1009327	41514	109314	0	0	8426	452530	0	0
2024-06-07 06:23:32			0	40716	0	0	0	25202	23780	124831	27183	1009291	41514	109318	0	0	8424	453473	0	0
2024-06-07 06:24:32			0	40707	0	0	0	25205	23770	124959	26960	1009310	41524	109319	0	0	8424	453813	0	0
2024-06-07 06:25:32			0	40703	0	0	0	25210	23780	124899	27076	1009291	41502	109321	0	0	8424	453928	0	0
2024-06-07 06:26:32			0	40715	0	0	0	25210	23790	124875	27130	1009282	41514	109321	0	0	8424	453483	0	0
2024-06-07 06:27:32			0	40699	0	0	0	25197	23800	124967	27128	1009245	41504	109316	0	0	8424	454016	0	0
2024-06-07 06:28:32			0	40689	0	0	0	25197	23790	124979	27341	1009290	41515	109316	0	0	8423	454392	0	0
2024-06-07 06:29:32			0	40678	0	0	0	25189	23790	125051	27199	1009210	41515	109313	0	0	8423	454777	0	0
2024-06-07 06:30:32			0	40649	0	0	0	25194	23780	125031	27105	1009273	41525	109315	0	0	8421	455818	0	0
2024-06-07 06:31:32			0	40665	0	0	0	25189	23790	125023	27244	1009228	41514	109313	0	0	8422	455232	0	0
2024-06-07 06:32:32			0	40637	0	0	0	25189	23790	125079	26726	1009317	41515	109313	0	0	8420	456213	0	0
2024-06-07 06:33:32			0	40617	0	0	0	25197	23790	125139	27131	1009309	41502	109316	0	0	8419	456914	0	0
2024-06-07 06:34:32			0	40625	0	0	0	25199	23790	125103	27235	1009264	41515	109317	0	0	8420	456634	0	0
2024-06-07 06:35:32			0	40619	0	0	0	25205	23800	125175	27157	1009334	41528	109319	0	0	8419	456819	0	0
2024-06-07 06:36:32			0	40618	0	0	0	25197	23800	125143	27008	1009254	41516	109316	0	0	8419	456854	0	0
2024-06-07 06:37:32			0	40601	0	0	0	25212	23800	125299	27182	1009379	41504	109322	0	0	8418	457450	0	0
2024-06-07 06:38:32			0	40601	0	0	0	25207	23810	125287	27071	1009343	41539	109320	0	0	8418	457425	0	0
2024-06-07 06:39:32			0	40591	0	0	0	25210	23810	125231	27050	1009343	41516	109321	0	0	8418	457776	0	0
2024-06-07 06:40:32			0	40587	0	0	0	25210	23810	125235	26965	1009351	41505	109321	0	0	8418	457916	0	0
2024-06-07 06:41:32			0	40612	0	0	0	25223	23810	125227	26948	1009405	41516	109326	0	0	8419	457038	0	0
2024-06-07 06:42:32			0	40597	0	0	0	25220	23810	125239	26864	1009405	41516	109325	0	0	8418	457565	0	0
2024-06-07 06:43:32			0	40555	0	0	0	25220	23820	125267	26786	1009422	41518	109325	0	0	8416	459015	0	0
2024-06-07 06:44:32			0	40557	0	0	0	25225	23830	125243	26928	1009431	41529	109327	0	0	8416	458919	0	0
2024-06-07 06:45:32			0	40563	0	0	0	25225	23820	125311	26738	1009395	41518	109327	0	0	8416	458734	0	0
2024-06-07 06:46:32			0	40564	0	0	0	25225	23820	125311	26802	1009395	41497	109327	0	0	8416	458699	0	0
2024-06-07 06:47:32			0	40570	0	0	0	25223	23820	125303	26955	1009360	41517	109326	0	0	8417	458488	0	0
2024-06-07 06:48:32			0	40558	0	0	0	25228	23820	125307	26776	1009440	41529	109328	0	0	8416	458910	0	0
2024-06-07 06:49:32			0	40555	0	0	0	25215	23820	125403	26811	1009395	41507	109323	0	0	8416	459015	0	0
2024-06-07 06:50:32			0	40525	0	0	0	25212	23820	125379	26941	1009449	41518	109322	0	0	8414	460071	0	0
2024-06-07 06:51:32			0	40549	0	0	0	25220	23820	125327	27072	1009395	41507	109325	0	0	8415	459226	0	0
2024-06-07 06:52:32			0	40563	0	0	0	25223	23820	125395	26875	1009422	41518	109326	0	0	8416	458734	0	0
2024-06-07 06:53:32			0	40542	0	0	0	25231	23830	125343	26769	1009377	41507	109329	0	0	8415	459447	0	0
2024-06-07 06:54:32			0	40546	0	0	0	25220	23810	125415	26880	1009431	41516	109325	0	0	8415	459358	0	0
2024-06-07 06:55:32			0	40532	0	0	0	25231	23820	125403	26960	1009422	41507	109329	0	0	8414	459824	0	0
2024-06-07 06:56:32			0	40532	0	0	0	25228	23820	125379	26984	1009449	41518	109328	0	0	8414	459824	0	0
2024-06-07 06:57:32			0	40549	0	0	0	25225	23830	125347	27201	1009484	41518	109327	0	0	8415	459200	0	0
2024-06-07 06:58:32			0	40543	0	0	0	25231	23830	125287	26729	1009484	41507	109329	0	0	8415	459411	0	0
2024-06-07 06:59:32			0	40510	0	0	0	25231	23830	125391	26870	1009457	41507	109329	0	0	8413	460573	0	0
2024-06-07 07:00:32			0	40531	0	0	0	25228	23830	125387	26859	1009412	41507	109328	0	0	8414	459834	0	0
2024-06-07 07:01:32			0	40542	0	0	0	25223	23830	125367	26901	1009466	41518	109326	0	0	8415	459447	0	0
2024-06-07 07:02:32			0	40538	0	0	0	25218	23830	125371	27022	1009431	41518	109324	0	0	8415	459587	0	0
2024-06-07 07:03:32			0	40531	0	0	0	25228	23830	125363	26972	1009431	41518	109328	0	0	8414	459834	0	0
2024-06-07 07:04:32			0	40546	0	0	0	25225	23830	125423	27124	1009466	41541	109327	0	0	8415	459306	0	0
2024-06-07 07:05:32			0	40532	0	0	0	25244	23830	125439	26750	1009492	41529	109334	0	0	8414	459798	0	0
2024-06-07 07:06:32			0	40525	0	0	0	25246	23840	125363	26786	1009554	41519	109335	0	0	8414	460019	0	0
2024-06-07 07:07:32			0	40550	0	0	0	25249	23850	125335	27161	1009571	41520	109336	0	0	8415	459113	0	0
2024-06-07 07:08:32			0	40534	0	0	0	25257	23850	125363	26849	1009633	41509	109339	0	0	8414	459676	0	0
2024-06-07 07:09:32			0	40539	0	0	0	25254	23860	125323	27086	1009562	41509	109338	0	0	8415	459474	0	0
2024-06-07 07:10:32			0	40545	0	0	0	25246	23850	125355	27060	1009607	41531	109335	0	0	8415	459289	0	0
2024-06-07 07:11:32			0	40539	0	0	0	25244	23860	125403	26785	1009589	41521	109334	0	0	8415	459474	0	0
2024-06-07 07:12:32			0	40553	0	0	0	25246	23850	125403	26960	1009553	41509	109335	0	0	8415	459008	0	0
2024-06-07 07:13:32			0	40536	0	0	0	25244	23850	125299	27036	1009473	41520	109334	0	0	8414	459606	0	0
2024-06-07 07:14:32			0	40547	0	0	0	25241	23850	125367	27126	1009580	41520	109333	0	0	8415	459219	0	0
2024-06-07 07:15:32			0	40556	0	0	0	25233	23850	125379	26908	1009580	41520	109330	0	0	8416	458902	0	0
2024-06-07 07:16:32			0	40557	0	0	0	25233	23850	125311	27027	1009598	41531	109330	0	0	8416	458867	0	0
2024-06-07 07:17:32			0	40549	0	0	0	25249	23850	125391	27020	1009553	41520	109336	0	0	8415	459149	0	0
2024-06-07 07:18:32			0	40547	0	0	0	25236	23850	125375	26922	1009580	41520	109331	0	0	8415	459219	0	0
2024-06-07 07:19:32			0	40552	0	0	0	25246	23860	125375	27102	1009589	41521	109335	0	0	8415	459017	0	0
2024-06-07 07:20:32			0	40581	0	0	0	25244	23850	125387	26889	1009553	41498	109334	0	0	8417	458024	0	0
2024-06-07 07:21:32			0	40550	0	0	0	25246	23860	125371	27267	1009570	41510	109335	0	0	8415	459088	0	0
2024-06-07 07:22:32			0	40564	0	0	0	25249	23860	125263	26909	1009562	41509	109336	0	0	8416	458595	0	0
2024-06-07 07:23:32			0	40562	0	0	0	25249	23860	125335	26791	1009650	41522	109336	0	0	8416	458666	0	0
2024-06-07 07:24:32			0	40573	0	0	0	25251	23860	125343	26623	1009589	41509	109337	0	0	8416	458279	0	0
2024-06-07 07:25:32			0	40564	0	0	0	25241	23870	125291	27126	1009659	41523	109333	0	0	8416	458570	0	0
2024-06-07 07:26:32			0	40568	0	0	0	25249	23860	125263	27007	1009535	41521	109336	0	0	8416	458455	0	0
2024-06-07 07:27:32			0	40587	0	0	0	25241	23850	125211	26975	1009553	41520	109333	0	0	8417	457813	0	0
2024-06-07 07:28:32			0	40579	0	0	0	25228	23850	125259	27010	1009527	41509	109328	0	0	8417	458094	0	0
2024-06-07 07:29:32			0	40601	0	0	0	25220	23840	125227	27008	1009456	41509	109325	0	0	8418	457347	0	0
2024-06-07 07:30:32			0	40601	0	0	0	25218	23850	125223	26923	1009465	41509	109324	0	0	8418	457321	0	0
2024-06-07 07:31:32			0	40581	0	0	0	25215	23840	125243	27402	1009448	41519	109323	0	0	8417	458050	0	0
2024-06-07 07:32:32			0	40575	0	0	0	25202	23840	125259	27003	1009367	41519	109318	0	0	8417	458260	0	0
2024-06-07 07:33:32			0	40605	0	0	0	25192	23830	125271	27206	1009350	41507	109314	0	0	8419	457233	0	0
2024-06-07 07:34:32			0	40588	0	0	0	25194	23830	125311	27097	1009439	41529	109315	0	0	8418	457829	0	0
2024-06-07 07:35:32			0	40580	0	0	0	25202	23820	125235	27046	1009395	41507	109318	0	0	8417	458136	0	0
2024-06-07 07:36:32			0	40617	0	0	0	25197	23820	125271	27512	1009342	41518	109316	0	0	8419	456837	0	0
2024-06-07 07:37:32			0	40599	0	0	0	25199	23810	125235	27223	1009378	41505	109317	0	0	8418	457495	0	0
2024-06-07 07:38:32			0	40615	0	0	0	25202	23830	125199	27182	1009404	41518	109318	0	0	8419	456882	0	0
2024-06-07 07:39:32			0	40605	0	0	0	25197	23820	125187	27010	1009360	41517	109316	0	0	8419	457258	0	0
2024-06-07 07:40:32			0	40614	0	0	0	25194	23810	125159	27289	1009405	41516	109315	0	0	8419	456968	0	0
2024-06-07 07:41:32			0	40624	0	0	0	25194	23810	125107	27216	1009378	41516	109315	0	0	8420	456618	0	0
2024-06-07 07:42:32			0	40594	0	0	0	25194	23820	125235	26982	1009369	41507	109315	0	0	8418	457644	0	0
2024-06-07 07:43:32			0	40609	0	0	0	25194	23810	125143	27048	1009298	41516	109315	0	0	8419	457144	0	0
2024-06-07 07:44:32			0	40629	0	0	0	25184	23810	125187	27095	1009324	41516	109311	0	0	8420	456442	0	0
2024-06-07 07:45:32			0	40617	0	0	0	25189	23820	125187	26970	1009387	41496	109313	0	0	8420	456837	0	0
2024-06-07 07:46:32			0	40613	0	0	0	25186	23810	125147	27222	1009351	41516	109312	0	0	8419	457003	0	0
2024-06-07 07:47:32			0	40618	0	0	0	25194	23810	125183	27142	1009316	41505	109315	0	0	8419	456828	0	0
2024-06-07 07:48:32			0	40623	0	0	0	25176	23810	125147	27196	1009271	41516	109308	0	0	8420	456653	0	0
2024-06-07 07:49:32			0	40647	0	0	0	25168	23800	124971	27085	1009307	41505	109305	0	0	8421	455837	0	0
2024-06-07 07:50:32			0	40649	0	0	0	25173	23800	125111	26826	1009281	41516	109307	0	0	8421	455767	0	0
2024-06-07 07:51:32			0	40638	0	0	0	25161	23790	125143	27020	1009210	41503	109302	0	0	8421	456178	0	0
2024-06-07 07:52:32			0	40652	0	0	0	25153	23790	125091	26918	1009237	41515	109299	0	0	8422	455687	0	0
2024-06-07 07:53:32			0	40659	0	0	0	25158	23790	125079	27050	1009228	41514	109301	0	0	8422	455442	0	0
2024-06-07 07:54:32			0	40621	0	0	0	25140	23780	125023	26932	1009193	41502	109294	0	0	8420	456800	0	0
2024-06-07 07:55:32			0	40652	0	0	0	25142	23780	125079	27192	1009211	41514	109295	0	0	8422	455713	0	0
2024-06-07 07:56:32			0	40653	0	0	0	25132	23770	125047	26998	1009114	41512	109291	0	0	8422	455704	0	0
2024-06-07 07:57:32			0	40656	0	0	0	25127	23770	125107	27242	1009096	41501	109289	0	0	8422	455599	0	0
2024-06-07 07:58:32			0	40660	0	0	0	25111	23760	125131	26904	1008990	41500	109283	0	0	8423	455484	0	0
2024-06-07 07:59:32			0	40655	0	0	0	25088	23750	124991	26870	1008902	41500	109274	0	0	8423	455685	0	0
2024-06-07 08:00:32			0	40645	0	0	0	25080	23740	125095	27310	1008858	41510	109271	0	0	8423	456061	0	0
2024-06-07 08:01:32			0	40650	0	0	0	25080	23720	125039	27296	1008877	41474	109271	0	0	8423	455937	0	0
2024-06-07 08:02:32			0	40684	0	0	0	25067	23710	125055	27303	1008780	41497	109266	0	0	8425	454772	0	0
2024-06-07 08:03:32			0	40666	0	0	0	25062	23700	125151	27360	1008736	41495	109264	0	0	8424	455428	0	0
2024-06-07 08:04:32			0	40667	0	0	0	25051	23690	125027	27270	1008701	41506	109260	0	0	8424	455418	0	0
2024-06-07 08:05:32			0	40643	0	0	0	25049	23690	125155	27126	1008674	41506	109259	0	0	8423	456259	0	0
2024-06-07 08:06:32			0	40668	0	0	0	25036	23670	125067	27379	1008667	41504	109254	0	0	8424	455434	0	0
2024-06-07 08:07:32			0	40694	0	0	0	25033	23680	125175	27005	1008595	41504	109253	0	0	8426	454498	0	0
2024-06-07 08:08:32			0	40681	0	0	0	25031	23670	125031	27043	1008667	41504	109252	0	0	8425	454979	0	0
2024-06-07 08:09:32			0	40681	0	0	0	25031	23670	125055	27383	1008658	41504	109252	0	0	8425	454979	0	0
2024-06-07 08:10:32			0	40690	0	0	0	25038	23660	125083	27315	1008703	41492	109255	0	0	8425	454690	0	0
2024-06-07 08:11:32			0	40700	0	0	0	25041	23670	125047	27112	1008773	41504	109256	0	0	8426	454314	0	0
2024-06-07 08:12:32			0	40702	0	0	0	25046	23670	125059	27254	1008747	41504	109258	0	0	8426	454244	0	0
2024-06-07 08:13:32			0	40699	0	0	0	25051	23670	125047	27019	1008845	41504	109260	0	0	8426	454349	0	0
2024-06-07 08:14:32			0	40730	0	0	0	25054	23680	125007	26984	1008835	41493	109261	0	0	8427	453239	0	0
2024-06-07 08:15:32			0	40724	0	0	0	25062	23690	124967	27329	1008853	41506	109264	0	0	8427	453424	0	0
2024-06-07 08:16:32			0	40732	0	0	0	25067	23680	124903	27189	1008844	41505	109266	0	0	8427	453169	0	0
2024-06-07 08:17:32			0	40736	0	0	0	25075	23680	124903	26682	1008835	41504	109269	0	0	8427	453030	0	0
2024-06-07 08:18:32			0	40722	0	0	0	25083	23680	124983	27222	1008835	41504	109272	0	0	8426	453519	0	0
2024-06-07 08:19:32			0	40723	0	0	0	25090	23680	124935	27038	1008871	41494	109275	0	0	8426	453484	0	0
2024-06-07 08:20:32			0	40754	0	0	0	25083	23690	124907	26819	1008888	41495	109272	0	0	8428	452375	0	0
2024-06-07 08:21:32			0	40759	0	0	0	25088	23700	124823	27024	1008843	41495	109274	0	0	8428	452176	0	0
2024-06-07 08:22:32			0	40751	0	0	0	25088	23690	124807	27268	1008808	41506	109274	0	0	8428	452480	0	0
2024-06-07 08:23:32			0	40755	0	0	0	25085	23690	124911	27287	1008835	41495	109273	0	0	8428	452341	0	0
2024-06-07 08:24:32			0	40777	0	0	0	25090	23680	124876	27241	1008817	41505	109275	0	0	8429	451598	0	0
2024-06-07 08:25:32			0	40762	0	0	0	25072	23690	124799	27376	1008826	41506	109268	0	0	8429	452096	0	0
2024-06-07 08:26:32			0	40776	0	0	0	25064	23680	124768	27211	1008790	41505	109265	0	0	8429	451633	0	0
2024-06-07 08:27:32			0	40780	0	0	0	25064	23690	124796	27227	1008773	41484	109265	0	0	8430	451468	0	0
2024-06-07 08:28:32			0	40794	0	0	0	25067	23680	124740	27249	1008782	41482	109266	0	0	8430	451006	0	0
2024-06-07 08:29:32			0	40790	0	0	0	25057	23680	124704	27064	1008809	41504	109262	0	0	8430	451145	0	0
2024-06-07 08:30:32			0	40781	0	0	0	25070	23680	124736	27253	1008782	41504	109267	0	0	8430	451459	0	0
2024-06-07 08:31:32			0	40780	0	0	0	25067	23680	124784	27173	1008755	41493	109266	0	0	8430	451494	0	0
2024-06-07 08:32:32			0	40781	0	0	0	25067	23670	124852	27242	1008773	41515	109266	0	0	8430	451484	0	0
2024-06-07 08:33:32			0	40757	0	0	0	25064	23680	124795	26816	1008835	41504	109265	0	0	8428	452296	0	0
2024-06-07 08:34:32			0	40758	0	0	0	25072	23670	124855	27315	1008800	41515	109268	0	0	8428	452287	0	0
2024-06-07 08:35:32			0	40756	0	0	0	25075	23690	124827	27379	1008853	41506	109269	0	0	8428	452306	0	0
2024-06-07 08:36:32			0	40759	0	0	0	25080	23680	124863	27027	1008862	41515	109271	0	0	8428	452226	0	0
2024-06-07 08:37:32			0	40739	0	0	0	25083	23690	124891	27046	1008879	41517	109272	0	0	8427	452899	0	0
2024-06-07 08:38:32			0	40736	0	0	0	25077	23690	124851	27164	1008933	41506	109270	0	0	8427	453004	0	0
2024-06-07 08:39:32			0	40716	0	0	0	25077	23690	124947	26911	1008781	41506	109270	0	0	8426	453703	0	0
2024-06-07 08:40:32			0	40692	0	0	0	25070	23690	124939	27163	1008799	41506	109267	0	0	8425	454543	0	0
2024-06-07 08:41:32			0	40704	0	0	0	25064	23680	124943	26994	1008737	41494	109265	0	0	8426	454148	0	0
2024-06-07 08:42:32			0	40687	0	0	0	25062	23670	124955	27274	1008747	41493	109264	0	0	8425	454769	0	0
2024-06-07 08:43:32			0	40656	0	0	0	25054	23680	124983	26870	1008702	41493	109261	0	0	8423	455829	0	0
2024-06-07 08:44:32			0	40670	0	0	0	25057	23680	125011	27244	1008728	41493	109262	0	0	8424	455339	0	0
2024-06-07 08:45:32			0	40663	0	0	0	25044	23670	125067	27145	1008720	41504	109257	0	0	8424	455610	0	0
2024-06-07 08:46:32			0	40653	0	0	0	25049	23660	125127	27123	1008650	41503	109259	0	0	8423	455986	0	0
2024-06-07 08:47:32			0	40637	0	0	0	25033	23660	125159	26949	1008596	41492	109253	0	0	8423	456547	0	0
2024-06-07 08:48:32			0	40646	0	0	0	25031	23650	125239	27183	1008624	41501	109252	0	0	8423	456257	0	0
2024-06-07 08:49:32			0	40623	0	0	0	25033	23650	125187	27008	1008624	41491	109253	0	0	8422	457064	0	0
2024-06-07 08:50:32			0	40610	0	0	0	25028	23650	125231	26826	1008651	41491	109251	0	0	8421	457521	0	0
2024-06-07 08:51:32			0	40616	0	0	0	25025	23650	125211	27147	1008677	41501	109250	0	0	8422	457310	0	0
2024-06-07 08:52:32			0	40598	0	0	0	25031	23640	125251	27145	1008634	41500	109252	0	0	8421	457968	0	0
2024-06-07 08:53:32			0	40596	0	0	0	25028	23640	125315	26890	1008562	41479	109251	0	0	8420	458038	0	0
2024-06-07 08:54:32			0	40586	0	0	0	25025	23640	125315	27104	1008669	41491	109250	0	0	8420	458390	0	0
2024-06-07 08:55:32			0	40589	0	0	0	25028	23640	125339	26937	1008607	41500	109251	0	0	8420	458284	0	0
2024-06-07 08:56:32			0	40564	0	0	0	25031	23640	125367	27052	1008615	41491	109252	0	0	8419	459164	0	0
2024-06-07 08:57:32			0	40567	0	0	0	25041	23640	125383	27045	1008589	41512	109256	0	0	8419	459058	0	0
2024-06-07 08:58:32			0	40570	0	0	0	25031	23640	125463	27095	1008562	41501	109252	0	0	8419	458953	0	0
2024-06-07 08:59:32			0	40573	0	0	0	25023	23630	125463	27102	1008572	41500	109249	0	0	8419	458873	0	0
2024-06-07 09:00:32			0	40545	0	0	0	25028	23640	125419	27095	1008607	41500	109251	0	0	8418	459833	0	0
2024-06-07 09:01:32			0	40566	0	0	0	25028	23630	125455	26932	1008572	41500	109251	0	0	8419	459119	0	0
2024-06-07 09:02:32			0	40562	0	0	0	25023	23630	125403	27116	1008545	41510	109249	0	0	8419	459260	0	0
2024-06-07 09:03:32			0	40535	0	0	0	25020	23630	125435	27282	1008598	41500	109248	0	0	8417	460211	0	0
2024-06-07 09:04:32			0	40540	0	0	0	25012	23630	125491	26939	1008492	41489	109245	0	0	8418	460035	0	0
2024-06-07 09:05:32			0	40536	0	0	0	25005	23630	125463	27010	1008545	41489	109242	0	0	8418	460176	0	0
2024-06-07 09:06:32			0	40528	0	0	0	25002	23630	125471	26724	1008536	41500	109241	0	0	8417	460457	0	0
2024-06-07 09:07:32			0	40536	0	0	0	24999	23620	125547	26991	1008448	41478	109240	0	0	8418	460201	0	0
2024-06-07 09:08:32			0	40539	0	0	0	24979	23620	125411	27303	1008448	41489	109232	0	0	8418	460096	0	0
2024-06-07 09:09:32			0	40525	0	0	0	24986	23610	125487	27072	1008422	41498	109235	0	0	8417	460615	0	0
2024-06-07 09:10:32			0	40518	0	0	0	24984	23600	125507	27124	1008360	41487	109234	0	0	8417	460888	0	0
2024-06-07 09:11:32			0	40523	0	0	0	24976	23600	125531	27324	1008352	41486	109231	0	0	8417	460711	0	0
2024-06-07 09:12:32			0	40521	0	0	0	24974	23600	125483	27126	1008352	41475	109230	0	0	8417	460782	0	0
2024-06-07 09:13:32			0	40514	0	0	0	24968	23580	125475	27152	1008326	41506	109228	0	0	8417	461081	0	0
2024-06-07 09:14:32			0	40506	0	0	0	24971	23590	125619	27286	1008317	41485	109229	0	0	8417	461337	0	0
2024-06-07 09:15:32			0	40494	0	0	0	24963	23590	125627	27144	1008308	41497	109226	0	0	8416	461761	0	0
2024-06-07 09:16:32			0	40524	0	0	0	24961	23580	125587	27412	1008300	41484	109225	0	0	8418	460728	0	0
2024-06-07 09:17:32			0	40519	0	0	0	24955	23580	125551	27403	1008238	41496	109223	0	0	8417	460904	0	0
2024-06-07 09:18:32			0	40521	0	0	0	24945	23570	125555	26911	1008255	41495	109219	0	0	8418	460860	0	0
2024-06-07 09:19:32			0	40501	0	0	0	24948	23570	125547	27234	1008255	41495	109220	0	0	8417	461565	0	0
2024-06-07 09:20:32			0	40524	0	0	0	24935	23560	125535	27086	1008211	41494	109215	0	0	8418	460780	0	0
2024-06-07 09:21:32			0	40494	0	0	0	24924	23560	125575	27064	1008158	41483	109211	0	0	8417	461839	0	0
2024-06-07 09:22:32			0	40492	0	0	0	24914	23560	125515	26963	1008096	41504	109207	0	0	8417	461909	0	0
2024-06-07 09:23:32			0	40494	0	0	0	24911	23550	125611	27364	1008194	41493	109206	0	0	8417	461865	0	0
2024-06-07 09:24:32			0	40483	0	0	0	24911	23560	125647	27055	1008256	41471	109206	0	0	8416	462227	0	0
2024-06-07 09:25:32			0	40493	0	0	0	24922	23550	125615	27228	1008213	41469	109210	0	0	8417	461900	0	0
2024-06-07 09:26:32			0	40481	0	0	0	24932	23560	125639	27152	1008318	41494	109214	0	0	8416	462298	0	0
2024-06-07 09:27:32			0	40490	0	0	0	24961	23580	125583	27301	1008540	41529	109225	0	0	8416	461928	0	0
2024-06-07 09:28:32			0	40491	0	0	0	25002	23590	125655	27346	1008664	41507	109241	0	0	8415	461866	0	0
2024-06-07 09:29:32			0	40493	0	0	0	25020	23610	125659	26972	1008725	41520	109248	0	0	8415	461744	0	0
2024-06-07 09:30:32			0	40492	0	0	0	25038	23630	125607	27180	1008785	41510	109255	0	0	8415	461727	0	0
2024-06-07 09:31:32			0	40484	0	0	0	25049	23650	125595	27270	1008838	41524	109259	0	0	8414	461958	0	0
2024-06-07 09:32:32			0	40456	0	0	0	25070	23660	125647	27322	1008881	41502	109267	0	0	8413	462921	0	0
2024-06-07 09:33:32			0	40465	0	0	0	25067	23670	125547	27504	1008845	41493	109266	0	0	8413	462577	0	0
2024-06-07 09:34:32			0	40467	0	0	0	25041	23660	125567	27367	1008748	41492	109256	0	0	8414	462532	0	0
2024-06-07 09:35:32			0	40458	0	0	0	25025	23670	125631	27343	1008818	41504	109250	0	0	8413	462824	0	0
2024-06-07 09:36:32			0	40454	0	0	0	25057	23680	125591	27260	1008996	41526	109262	0	0	8413	462939	0	0
2024-06-07 09:37:32			0	40449	0	0	0	25098	23690	125647	27170	1009066	41517	109278	0	0	8412	463090	0	0
2024-06-07 09:38:32			0	40422	0	0	0	25132	23700	125679	26993	1009199	41506	109291	0	0	8410	464019	0	0
2024-06-07 09:39:32			0	40439	0	0	0	25155	23710	125603	27306	1009216	41519	109300	0	0	8410	463391	0	0
2024-06-07 09:40:32			0	40449	0	0	0	25181	23750	125699	27400	1009329	41511	109310	0	0	8411	462934	0	0
2024-06-07 09:41:32			0	40433	0	0	0	25199	23760	125683	27371	1009391	41534	109317	0	0	8410	463473	0	0
2024-06-07 09:42:32			0	40429	0	0	0	25218	23770	125651	27152	1009435	41545	109324	0	0	8409	463588	0	0
2024-06-07 09:43:32			0	40444	0	0	0	25241	23790	125663	27121	1009557	41526	109333	0	0	8410	463006	0	0
2024-06-07 09:44:32			0	40422	0	0	0	25251	23800	125623	27189	1009548	41539	109337	0	0	8408	463758	0	0
2024-06-07 09:45:32			0	40399	0	0	0	25257	23810	125695	27282	1009565	41539	109339	0	0	8407	464545	0	0
2024-06-07 09:46:32			0	40414	0	0	0	25272	23820	125755	27511	1009609	41529	109345	0	0	8408	463988	0	0
2024-06-07 09:47:32			0	40406	0	0	0	25272	23810	125747	27180	1009618	41528	109345	0	0	8407	464298	0	0
2024-06-07 09:48:32			0	40419	0	0	0	25283	23850	125707	27234	1009758	41542	109349	0	0	8408	463733	0	0
2024-06-07 09:49:32			0	40407	0	0	0	25290	23850	125755	27402	1009767	41542	109352	0	0	8407	464158	0	0
2024-06-07 09:50:32			0	40407	0	0	0	25301	23860	125763	27156	1009749	41532	109356	0	0	8407	464131	0	0
2024-06-07 09:51:32			0	40403	0	0	0	25298	23850	125747	26883	1009687	41520	109355	0	0	8407	464299	0	0
2024-06-07 09:52:32			0	40385	0	0	0	25301	23870	125743	27086	1009739	41544	109356	0	0	8406	464884	0	0
2024-06-07 09:53:32			0	40401	0	0	0	25309	23860	125679	27350	1009757	41533	109359	0	0	8406	464344	0	0
2024-06-07 09:54:32			0	40396	0	0	0	25306	23870	125755	27353	1009793	41534	109358	0	0	8406	464495	0	0
2024-06-07 09:55:32			0	40395	0	0	0	25311	23880	125835	27189	1009810	41534	109360	0	0	8406	464504	0	0
2024-06-07 09:56:32			0	40383	0	0	0	25319	23870	125707	27176	1009828	41544	109363	0	0	8405	464955	0	0
2024-06-07 09:57:32			0	40377	0	0	0	25319	23890	125755	27053	1009800	41524	109363	0	0	8405	465115	0	0
2024-06-07 09:58:32			0	40380	0	0	0	25324	23890	125755	27093	1009853	41536	109365	0	0	8405	465009	0	0
2024-06-07 09:59:32			0	40375	0	0	0	25324	23890	125743	27447	1009915	41546	109365	0	0	8405	465186	0	0
2024-06-07 10:00:32			0	40364	0	0	0	25337	23900	125743	27267	1009986	41547	109370	0	0	8404	465549	0	0
2024-06-07 10:01:32			0	40361	0	0	0	25335	23910	125783	27126	1009941	41538	109369	0	0	8404	465629	0	0
2024-06-07 10:02:32			0	40365	0	0	0	25337	23910	125751	27163	1009914	41538	109370	0	0	8404	465487	0	0
2024-06-07 10:03:32			0	40358	0	0	0	25337	23920	125755	27261	1009931	41538	109370	0	0	8404	465709	0	0
2024-06-07 10:04:32			0	40387	0	0	0	25332	23920	125831	27409	1009985	41526	109368	0	0	8406	464682	0	0
2024-06-07 10:05:32			0	40380	0	0	0	25335	23920	125739	27312	1010011	41538	109369	0	0	8405	464930	0	0
2024-06-07 10:06:32			0	40369	0	0	0	25332	23910	125723	27050	1009950	41538	109368	0	0	8405	465346	0	0
2024-06-07 10:07:32			0	40368	0	0	0	25348	23920	125831	27234	1009967	41538	109374	0	0	8404	465355	0	0
2024-06-07 10:08:32			0	40357	0	0	0	25340	23920	125763	27170	1010020	41538	109371	0	0	8404	465745	0	0
2024-06-07 10:09:32			0	40352	0	0	0	25342	23920	125771	27043	1010020	41538	109372	0	0	8404	465922	0	0
2024-06-07 10:10:32			0	40360	0	0	0	25350	23920	125759	27128	1010020	41549	109375	0	0	8404	465638	0	0
2024-06-07 10:11:32			0	40349	0	0	0	25345	23930	125767	27114	1010029	41550	109373	0	0	8403	466002	0	0
2024-06-07 10:12:32			0	40367	0	0	0	25350	23930	125811	27076	1010010	41539	109375	0	0	8404	465364	0	0
2024-06-07 10:13:32			0	40350	0	0	0	25361	23930	125763	27060	1010037	41539	109379	0	0	8403	465967	0	0
2024-06-07 10:14:32			0	40341	0	0	0	25366	23940	125759	26991	1010340	41551	109381	0	0	8403	466259	0	0
2024-06-07 10:15:32			0	40341	0	0	0	25397	23950	125827	26956	1010285	41564	109393	0	0	8402	466233	0	0
2024-06-07 10:16:32			0	40349	0	0	0	25431	23980	125787	27213	1010524	41565	109406	0	0	8402	465871	0	0
2024-06-07 10:17:32			0	40342	0	0	0	25477	23990	125787	27332	1010567	41579	109424	0	0	8401	466093	0	0
2024-06-07 10:18:32			0	40345	0	0	0	25509	24010	125791	27308	1010708	41569	109436	0	0	8401	465934	0	0
2024-06-07 10:19:32			0	40333	0	0	0	25532	24030	125803	27216	1010743	41560	109445	0	0	8400	466306	0	0
2024-06-07 10:20:32			0	40349	0	0	0	25558	24050	125855	27090	1010866	41572	109455	0	0	8400	465687	0	0
2024-06-07 10:21:32			0	40362	0	0	0	25581	24080	125743	26965	1011034	41575	109464	0	0	8401	465148	0	0
2024-06-07 10:22:32			0	40362	0	0	0	25610	24080	125739	27173	1010980	41575	109475	0	0	8400	465148	0	0
2024-06-07 10:23:32			0	40366	0	0	0	25620	24110	125711	27072	1011165	41588	109479	0	0	8400	464927	0	0
2024-06-07 10:24:32			0	40371	0	0	0	25646	24130	125655	27182	1011226	41590	109489	0	0	8400	464698	0	0
2024-06-07 10:25:32			0	40407	0	0	0	25651	24150	125611	26942	1011198	41592	109491	0	0	8402	463373	0	0
2024-06-07 10:26:32			0	40438	0	0	0	25664	24160	125491	27104	1011295	41593	109496	0	0	8404	462253	0	0
2024-06-07 10:27:32			0	40472	0	0	0	25670	24160	125347	27197	1011250	41593	109498	0	0	8405	461055	0	0
2024-06-07 10:28:32			0	40536	0	0	0	25667	24170	125219	27211	1011294	41583	109497	0	0	8409	458777	0	0
2024-06-07 10:29:32			0	40561	0	0	0	25670	24170	125107	27003	1011348	41583	109498	0	0	8410	457900	0	0
2024-06-07 10:30:32			0	40602	0	0	0	25670	24190	124907	27045	1011400	41584	109498	0	0	8412	456411	0	0
2024-06-07 10:31:32			0	40638	0	0	0	25664	24180	124887	27421	1011418	41607	109496	0	0	8414	455176	0	0
2024-06-07 10:32:32			0	40629	0	0	0	25654	24190	124847	27119	1011293	41574	109492	0	0	8414	455465	0	0
2024-06-07 10:33:32			0	40639	0	0	0	25646	24200	124847	27034	1011310	41585	109489	0	0	8414	455090	0	0
2024-06-07 10:34:32			0	40663	0	0	0	25633	24190	124855	27007	1011355	41584	109484	0	0	8416	454276	0	0
2024-06-07 10:35:32			0	40676	0	0	0	25636	24190	124779	27045	1011248	41574	109485	0	0	8417	453822	0	0
2024-06-07 10:36:32			0	40679	0	0	0	25631	24190	124727	27137	1011275	41584	109483	0	0	8417	453717	0	0
2024-06-07 10:37:32			0	40677	0	0	0	25620	24190	124663	27327	1011320	41584	109479	0	0	8417	453787	0	0
2024-06-07 10:38:32			0	40709	0	0	0	25620	24190	124603	26928	1011355	41574	109479	0	0	8419	452670	0	0
2024-06-07 10:39:32			0	40699	0	0	0	25636	24200	124679	27274	1011337	41575	109485	0	0	8418	452994	0	0
2024-06-07 10:40:32			0	40720	0	0	0	25623	24200	124591	27152	1011399	41586	109480	0	0	8419	452261	0	0
2024-06-07 10:41:32			0	40718	0	0	0	25636	24200	124539	27074	1011337	41575	109485	0	0	8419	452331	0	0
2024-06-07 10:42:32			0	40720	0	0	0	25631	24200	124519	27090	1011346	41586	109483	0	0	8419	452261	0	0
2024-06-07 10:43:32			0	40730	0	0	0	25618	24210	124571	27183	1011381	41576	109478	0	0	8420	451887	0	0
2024-06-07 10:44:32			0	40743	0	0	0	25646	24220	124483	27301	1011433	41599	109489	0	0	8420	451409	0	0
2024-06-07 10:45:32			0	40762	0	0	0	25659	24220	124459	26937	1011540	41588	109494	0	0	8421	450748	0	0
2024-06-07 10:46:32			0	40775	0	0	0	25670	24230	124352	27140	1011522	41588	109498	0	0	8421	450270	0	0
2024-06-07 10:47:32			0	40802	0	0	0	25688	24240	124408	27343	1011619	41600	109505	0	0	8422	449306	0	0
2024-06-07 10:48:32			0	40810	0	0	0	25690	24250	124268	26876	1011610	41602	109506	0	0	8423	449003	0	0
2024-06-07 10:49:32			0	40828	0	0	0	25706	24250	124276	27289	1011610	41602	109512	0	0	8424	448378	0	0
2024-06-07 10:50:32			0	40850	0	0	0	25703	24250	124192	27225	1011698	41613	109511	0	0	8425	447615	0	0
2024-06-07 10:51:32			0	40883	0	0	0	25709	24270	124172	27249	1011706	41615	109513	0	0	8426	446421	0	0
2024-06-07 10:52:32			0	40876	0	0	0	25711	24260	124104	26986	1011734	41591	109514	0	0	8426	446689	0	0
2024-06-07 10:53:32			0	40905	0	0	0	25722	24270	124100	26918	1011733	41615	109518	0	0	8427	445660	0	0
2024-06-07 10:54:32			0	40939	0	0	0	25722	24290	123996	27324	1011785	41617	109518	0	0	8429	444435	0	0
2024-06-07 10:55:32			0	40958	0	0	0	25729	24300	123960	27085	1011802	41594	109521	0	0	8430	443754	0	0
2024-06-07 10:56:32			0	40982	0	0	0	25735	24300	123892	27216	1011838	41618	109523	0	0	8431	442926	0	0
2024-06-07 10:57:32			0	41009	0	0	0	25737	24300	123800	26864	1011776	41594	109524	0	0	8433	441996	0	0
2024-06-07 10:58:32			0	41028	0	0	0	25742	24320	123720	27211	1011828	41620	109526	0	0	8434	441292	0	0
2024-06-07 10:59:32			0	41049	0	0	0	25740	24320	123632	27161	1011882	41608	109525	0	0	8435	440570	0	0
2024-06-07 11:00:32			0	41086	0	0	0	25745	24320	123572	27156	1011917	41608	109527	0	0	8437	439299	0	0
2024-06-07 11:01:32			0	41076	0	0	0	25755	24330	123548	27196	1012014	41598	109531	0	0	8436	439617	0	0
2024-06-07 11:02:32			0	41125	0	0	0	25766	24330	123492	27244	1012041	41598	109535	0	0	8438	437936	0	0
2024-06-07 11:03:32			0	41127	0	0	0	25776	24350	123364	26939	1012040	41599	109539	0	0	8438	437818	0	0
2024-06-07 11:04:32			0	41139	0	0	0	25781	24350	123312	27085	1012156	41622	109541	0	0	8439	437407	0	0
2024-06-07 11:05:32			0	41165	0	0	0	25792	24360	123236	26824	1012146	41612	109545	0	0	8440	436492	0	0
2024-06-07 11:06:32			0	41186	0	0	0	25792	24370	123208	27241	1012235	41623	109545	0	0	8441	435749	0	0
2024-06-07 11:07:32			0	41208	0	0	0	25815	24370	123076	26942	1012261	41623	109554	0	0	8442	434998	0	0
2024-06-07 11:08:32			0	41217	0	0	0	25825	24380	123128	26979	1012279	41625	109558	0	0	8442	434666	0	0
2024-06-07 11:09:32			0	41232	0	0	0	25846	24400	123040	27104	1012375	41627	109566	0	0	8443	434105	0	0
2024-06-07 11:10:32			0	41249	0	0	0	25851	24410	122988	27022	1012410	41638	109568	0	0	8444	433501	0	0
2024-06-07 11:11:32			0	41238	0	0	0	25859	24410	123072	27362	1012445	41605	109571	0	0	8443	433876	0	0
2024-06-07 11:12:32			0	41251	0	0	0	25880	24430	122948	27557	1012506	41607	109579	0	0	8444	433384	0	0
2024-06-07 11:13:32			0	41268	0	0	0	25880	24440	122916	27235	1012524	41630	109579	0	0	8444	432780	0	0
2024-06-07 11:14:32			0	41266	0	0	0	25898	24440	122864	27090	1012569	41629	109586	0	0	8444	432848	0	0
2024-06-07 11:15:32			0	41287	0	0	0	25896	24450	122860	27206	1012586	41631	109585	0	0	8445	432109	0	0
2024-06-07 11:16:32			0	41304	0	0	0	25916	24460	122824	27272	1012683	41621	109593	0	0	8446	431506	0	0
2024-06-07 11:17:32			0	41298	0	0	0	25924	24480	122760	27118	1012717	41633	109596	0	0	8445	431661	0	0
2024-06-07 11:18:32			0	41322	0	0	0	25924	24480	122760	26937	1012726	41634	109596	0	0	8447	430846	0	0
2024-06-07 11:19:32			0	41314	0	0	0	25935	24480	122812	26965	1012699	41634	109600	0	0	8446	431118	0	0
2024-06-07 11:20:32			0	41352	0	0	0	25940	24490	122724	27164	1012796	41602	109602	0	0	8448	429803	0	0
2024-06-07 11:21:32			0	41350	0	0	0	25953	24500	122648	27126	1012832	41646	109607	0	0	8448	429846	0	0
2024-06-07 11:22:32			0	41345	0	0	0	25953	24510	122648	27067	1012857	41637	109607	0	0	8448	429992	0	0
2024-06-07 11:23:32			0	41343	0	0	0	25963	24520	122672	27414	1012866	41638	109611	0	0	8447	430035	0	0
2024-06-07 11:24:32			0	41362	0	0	0	25966	24520	122680	26974	1012955	41616	109612	0	0	8448	429391	0	0
2024-06-07 11:25:32			0	41382	0	0	0	25979	24530	122640	26955	1012963	41650	109617	0	0	8449	428688	0	0
2024-06-07 11:26:32			0	41405	0	0	0	25981	24530	122576	26661	1012918	41639	109618	0	0	8450	427910	0	0
2024-06-07 11:27:32			0	41403	0	0	0	25989	24540	122484	27020	1013034	41618	109621	0	0	8450	427953	0	0
2024-06-07 11:28:32			0	41407	0	0	0	25992	24540	122432	27112	1013016	41639	109622	0	0	8450	427817	0	0
2024-06-07 11:29:32			0	41406	0	0	0	25994	24550	122476	26885	1013060	41630	109623	0	0	8450	427827	0	0
2024-06-07 11:30:32			0	41425	0	0	0	26007	24560	122488	27052	1013042	41653	109628	0	0	8451	427160	0	0
2024-06-07 11:31:32			0	41422	0	0	0	26012	24570	122356	27126	1013086	41642	109630	0	0	8451	427237	0	0
2024-06-07 11:32:32			0	41431	0	0	0	26015	24570	122409	26902	1013166	41642	109631	0	0	8451	426933	0	0
2024-06-07 11:33:32			0	41440	0	0	0	26012	24590	122361	27220	1013146	41622	109630	0	0	8452	426581	0	0
2024-06-07 11:34:32			0	41461	0	0	0	26018	24590	122369	27027	1013173	41644	109632	0	0	8453	425871	0	0
2024-06-07 11:35:32			0	41454	0	0	0	26028	24580	122417	26965	1013165	41644	109636	0	0	8452	426132	0	0
2024-06-07 11:36:32			0	41455	0	0	0	26025	24590	122389	26901	1013182	41656	109635	0	0	8452	426074	0	0
2024-06-07 11:37:32			0	41456	0	0	0	26031	24600	122345	27097	1013252	41624	109637	0	0	8452	426016	0	0
2024-06-07 11:38:32			0	41479	0	0	0	26044	24600	122233	27336	1013244	41656	109642	0	0	8453	425240	0	0
2024-06-07 11:39:32			0	41472	0	0	0	26044	24610	122273	26956	1013288	41657	109642	0	0	8453	425452	0	0
2024-06-07 11:40:32			0	41458	0	0	0	26046	24610	122161	26923	1013288	41657	109643	0	0	8452	425924	0	0
2024-06-07 11:41:32			0	41486	0	0	0	26046	24620	122229	27343	1013358	41625	109643	0	0	8454	424955	0	0
2024-06-07 11:42:32			0	41482	0	0	0	26057	24620	122245	27393	1013332	41647	109647	0	0	8453	425090	0	0
2024-06-07 11:43:32			0	41479	0	0	0	26062	24630	122149	27204	1013420	41659	109649	0	0	8453	425167	0	0
2024-06-07 11:44:32			0	41491	0	0	0	26064	24640	122165	27237	1013411	41648	109650	0	0	8454	424739	0	0
2024-06-07 11:45:32			0	41515	0	0	0	26072	24650	122093	27371	1013428	41649	109653	0	0	8455	423906	0	0
2024-06-07 11:46:32			0	41501	0	0	0	26070	24640	122117	27204	1013366	41661	109652	0	0	8454	424401	0	0
2024-06-07 11:47:32			0	41500	0	0	0	26072	24650	122109	27176	1013436	41628	109653	0	0	8454	424411	0	0
2024-06-07 11:48:32			0	41528	0	0	0	26083	24650	122109	27204	1013517	41650	109657	0	0	8456	423468	0	0
2024-06-07 11:49:32			0	41517	0	0	0	26088	24650	122089	27222	1013481	41638	109659	0	0	8455	423838	0	0
2024-06-07 11:50:32			0	41529	0	0	0	26090	24660	122085	27085	1013507	41651	109660	0	0	8456	423410	0	0
2024-06-07 11:51:32			0	41519	0	0	0	26093	24660	122097	27038	1013498	41662	109661	0	0	8455	423747	0	0
2024-06-07 11:52:32			0	41512	0	0	0	26096	24670	122097	27268	1013489	41628	109662	0	0	8455	423959	0	0
2024-06-07 11:53:32			0	41516	0	0	0	26096	24670	122113	27033	1013516	41628	109662	0	0	8455	423824	0	0
2024-06-07 11:54:32			0	41514	0	0	0	26088	24670	122069	27300	1013489	41651	109659	0	0	8455	423892	0	0
2024-06-07 11:55:32			0	41549	0	0	0	26080	24660	122097	27170	1013534	41651	109656	0	0	8457	422737	0	0
2024-06-07 11:56:32			0	41563	0	0	0	26106	24680	122025	27107	1013613	41652	109666	0	0	8457	422219	0	0
2024-06-07 11:57:32			0	41552	0	0	0	26106	24690	122101	27038	1013604	41630	109666	0	0	8457	422565	0	0
2024-06-07 11:58:32			0	41546	0	0	0	26114	24690	122057	27154	1013657	41675	109669	0	0	8456	422766	0	0
2024-06-07 11:59:32			0	41542	0	0	0	26116	24690	121973	27043	1013692	41654	109670	0	0	8456	422901	0	0
2024-06-07 12:00:32			0	41549	0	0	0	26129	24700	121969	27358	1013817	41666	109675	0	0	8456	422642	0	0
2024-06-07 12:01:32			0	41561	0	0	0	26137	24700	121977	27053	1013843	41666	109678	0	0	8457	422238	0	0
2024-06-07 12:02:32			0	41551	0	0	0	26145	24720	122025	27135	1013842	41667	109681	0	0	8456	422527	0	0
2024-06-07 12:03:32			0	41585	0	0	0	26161	24720	122017	27360	1013771	41645	109687	0	0	8458	421384	0	0
2024-06-07 12:04:32			0	41583	0	0	0	26155	24730	121949	27293	1013814	41657	109685	0	0	8458	421427	0	0
2024-06-07 12:05:32			0	41584	0	0	0	26171	24740	121925	26845	1013876	41647	109691	0	0	8457	421370	0	0
2024-06-07 12:06:32			0	41595	0	0	0	26174	24730	121873	27135	1013841	41668	109692	0	0	8458	421025	0	0
2024-06-07 12:07:32			0	41580	0	0	0	26176	24740	121921	26977	1013939	41647	109693	0	0	8457	421504	0	0
2024-06-07 12:08:32			0	41608	0	0	0	26176	24760	121829	27150	1013964	41660	109693	0	0	8459	420517	0	0
2024-06-07 12:09:32			0	41581	0	0	0	26179	24750	121833	27031	1013956	41659	109694	0	0	8457	421447	0	0
2024-06-07 12:10:32			0	41594	0	0	0	26189	24740	121849	27289	1014019	41669	109698	0	0	8458	421034	0	0
2024-06-07 12:11:32			0	41599	0	0	0	26186	24760	121785	27149	1014000	41661	109697	0	0	8458	420819	0	0
2024-06-07 12:12:32			0	41615	0	0	0	26194	24760	121749	27322	1014018	41637	109700	0	0	8459	420282	0	0
2024-06-07 12:13:32			0	41598	0	0	0	26192	24770	121733	27422	1014043	41671	109699	0	0	8458	420829	0	0
2024-06-07 12:14:32			0	41640	0	0	0	26205	24770	121805	27203	1014115	41671	109704	0	0	8460	419421	0	0
2024-06-07 12:15:32			0	41619	0	0	0	26210	24780	121789	27322	1014141	41685	109706	0	0	8459	420100	0	0
2024-06-07 12:16:32			0	41630	0	0	0	26212	24780	121765	27421	1014141	41673	109707	0	0	8459	419732	0	0
2024-06-07 12:17:32			0	41614	0	0	0	26207	24780	121813	27019	1014052	41662	109705	0	0	8459	420268	0	0
2024-06-07 12:18:32			0	41628	0	0	0	26212	24790	121685	27229	1014176	41673	109707	0	0	8459	419775	0	0
2024-06-07 12:19:32			0	41647	0	0	0	26202	24780	121721	27112	1014141	41652	109703	0	0	8460	419163	0	0
2024-06-07 12:20:32			0	41639	0	0	0	26218	24790	121793	27118	1014104	41673	109709	0	0	8460	419407	0	0
2024-06-07 12:21:32			0	41666	0	0	0	26210	24800	121769	27118	1014166	41664	109706	0	0	8461	418479	0	0
2024-06-07 12:22:32			0	41650	0	0	0	26212	24790	121717	27067	1014211	41663	109707	0	0	8460	419038	0	0
2024-06-07 12:23:32			0	41666	0	0	0	26215	24790	121649	26682	1014158	41663	109708	0	0	8461	418503	0	0
2024-06-07 12:24:32			0	41675	0	0	0	26225	24800	121605	26651	1014166	41664	109712	0	0	8462	418178	0	0
2024-06-07 12:25:32			0	41690	0	0	0	26228	24800	121577	27078	1014282	41665	109713	0	0	8462	417677	0	0
2024-06-07 12:26:32			0	41681	0	0	0	26236	24810	121501	27111	1014300	41666	109716	0	0	8462	417954	0	0
2024-06-07 12:27:32			0	41682	0	0	0	26241	24820	121533	26769	1014317	41688	109718	0	0	8462	417897	0	0
2024-06-07 12:28:32			0	41711	0	0	0	26254	24840	121577	26800	1014342	41666	109723	0	0	8463	416880	0	0
2024-06-07 12:29:32			0	41709	0	0	0	26262	24840	121605	27225	1014342	41678	109726	0	0	8463	416947	0	0
2024-06-07 12:30:32			0	41701	0	0	0	26262	24840	121513	26887	1014378	41667	109726	0	0	8462	417214	0	0
2024-06-07 12:31:32			0	41683	0	0	0	26267	24840	121529	27255	1014449	41689	109728	0	0	8461	417816	0	0
2024-06-07 12:32:32			0	41704	0	0	0	26277	24850	121465	27081	1014520	41679	109732	0	0	8462	417091	0	0
2024-06-07 12:33:32			0	41713	0	0	0	26290	24860	121505	27168	1014510	41679	109737	0	0	8463	416766	0	0
2024-06-07 12:34:32			0	41698	0	0	0	26293	24860	121553	27085	1014537	41691	109738	0	0	8462	417267	0	0
2024-06-07 12:35:32			0	41708	0	0	0	26290	24870	121465	27170	1014563	41681	109737	0	0	8462	416910	0	0
2024-06-07 12:36:32			0	41714	0	0	0	26296	24870	121449	27284	1014474	41660	109739	0	0	8463	416709	0	0
2024-06-07 12:37:32			0	41699	0	0	0	26290	24870	121525	27433	1014536	41670	109737	0	0	8462	417210	0	0
2024-06-07 12:38:32			0	41718	0	0	0	26293	24880	121569	27069	1014571	41670	109738	0	0	8463	416552	0	0
2024-06-07 12:39:32			0	41739	0	0	0	26296	24880	121541	27085	1014545	41681	109739	0	0	8464	415852	0	0
2024-06-07 12:40:32			0	41702	0	0	0	26288	24880	121517	27053	1014545	41660	109736	0	0	8462	417087	0	0
2024-06-07 12:41:32			0	41724	0	0	0	26296	24890	121489	27079	1014651	41684	109739	0	0	8463	416328	0	0
2024-06-07 12:42:32			0	41737	0	0	0	26296	24890	121453	26717	1014615	41672	109739	0	0	8464	415895	0	0
2024-06-07 12:43:32			0	41689	0	0	0	26309	24890	121449	27327	1014597	41695	109744	0	0	8461	417497	0	0
2024-06-07 12:44:32			0	41726	0	0	0	26301	24890	121445	27161	1014535	41661	109741	0	0	8463	416262	0	0
2024-06-07 12:45:32			0	41722	0	0	0	26298	24890	121449	27048	1014624	41684	109740	0	0	8463	416395	0	0
2024-06-07 12:46:32			0	41730	0	0	0	26296	24890	121437	26979	1014589	41683	109739	0	0	8464	416128	0	0
2024-06-07 12:47:32			0	41716	0	0	0	26314	24900	121457	27215	1014659	41673	109746	0	0	8463	416572	0	0
2024-06-07 12:48:32			0	41717	0	0	0	26314	24900	121461	27213	1014659	41695	109746	0	0	8463	416539	0	0
2024-06-07 12:49:32			0	41707	0	0	0	26314	24900	121501	27033	1014659	41684	109746	0	0	8462	416872	0	0
2024-06-07 12:50:32			0	41729	0	0	0	26329	24900	121433	27128	1014614	41673	109752	0	0	8463	416138	0	0
2024-06-07 12:51:32			0	41713	0	0	0	26322	24920	121473	27060	1014712	41664	109749	0	0	8462	416625	0	0
2024-06-07 12:52:32			0	41722	0	0	0	26332	24910	121489	27154	1014703	41674	109753	0	0	8463	416348	0	0
2024-06-07 12:53:32			0	41713	0	0	0	26332	24910	121441	27201	1014730	41674	109753	0	0	8462	416648	0	0
2024-06-07 12:54:32			0	41701	0	0	0	26332	24930	121549	27138	1014764	41654	109753	0	0	8462	417002	0	0
2024-06-07 12:55:32			0	41710	0	0	0	26340	24920	121421	26852	1014800	41686	109756	0	0	8462	416725	0	0
2024-06-07 12:56:32			0	41739	0	0	0	26350	24930	121521	27253	1014845	41687	109760	0	0	8463	415734	0	0
2024-06-07 12:57:32			0	41720	0	0	0	26358	24940	121445	27350	1014942	41676	109763	0	0	8462	416344	0	0
2024-06-07 12:58:32			0	41706	0	0	0	26371	24950	121493	26927	1014951	41688	109768	0	0	8461	416787	0	0
2024-06-07 12:59:32			0	41734	0	0	0	26386	24950	121509	27173	1014951	41699	109774	0	0	8463	415853	0	0
2024-06-07 13:00:32			0	41728	0	0	0	26381	24960	121453	27024	1014968	41678	109772	0	0	8462	416030	0	0
2024-06-07 13:01:32			0	41715	0	0	0	26379	24960	121425	26960	1014950	41702	109771	0	0	8462	416464	0	0
2024-06-07 13:02:32			0	41714	0	0	0	26379	24960	121501	26993	1014923	41657	109771	0	0	8462	416497	0	0
2024-06-07 13:03:32			0	41724	0	0	0	26373	24960	121445	27107	1014923	41679	109769	0	0	8462	416163	0	0
2024-06-07 13:04:32			0	41724	0	0	0	26368	24950	121457	27105	1014852	41677	109767	0	0	8462	416187	0	0
2024-06-07 13:05:32			0	41733	0	0	0	26363	24960	121377	26819	1014861	41678	109765	0	0	8463	415863	0	0
2024-06-07 13:06:32			0	41737	0	0	0	26363	24950	121437	26991	1014897	41688	109765	0	0	8463	415754	0	0
2024-06-07 13:07:32			0	41733	0	0	0	26368	24960	121445	26974	1014941	41689	109767	0	0	8463	415863	0	0
2024-06-07 13:08:32			0	41727	0	0	0	26371	24960	121421	27098	1014950	41690	109768	0	0	8462	416063	0	0
2024-06-07 13:09:32			0	41731	0	0	0	26379	24970	121421	26798	1014985	41690	109771	0	0	8463	415906	0	0
2024-06-07 13:10:32			0	41726	0	0	0	26386	24970	121425	26967	1014958	41690	109774	0	0	8462	416073	0	0
2024-06-07 13:11:32			0	41732	0	0	0	26389	24970	121405	27003	1014985	41679	109775	0	0	8462	415873	0	0
2024-06-07 13:12:32			0	41762	0	0	0	26389	24970	121405	27211	1014940	41679	109775	0	0	8464	414873	0	0
2024-06-07 13:13:32			0	41735	0	0	0	26394	24970	121425	27105	1015047	41679	109777	0	0	8463	415773	0	0
2024-06-07 13:14:32			0	41746	0	0	0	26399	24980	121333	26804	1015037	41703	109779	0	0	8463	415383	0	0
2024-06-07 13:15:32			0	41759	0	0	0	26407	24980	121365	27222	1015029	41691	109782	0	0	8464	414950	0	0
2024-06-07 13:16:32			0	41747	0	0	0	26407	24990	121337	27180	1015046	41681	109782	0	0	8463	415326	0	0
2024-06-07 13:17:32			0	41757	0	0	0	26410	24980	121381	26925	1015064	41681	109783	0	0	8463	415017	0	0
2024-06-07 13:18:32			0	41763	0	0	0	26407	24990	121253	27071	1015073	41692	109782	0	0	8464	414793	0	0
2024-06-07 13:19:32			0	41753	0	0	0	26420	25000	121357	26814	1015117	41704	109787	0	0	8463	415103	0	0
2024-06-07 13:20:32			0	41778	0	0	0	26428	25000	121237	27097	1015170	41704	109790	0	0	8464	414270	0	0
2024-06-07 13:21:32			0	41758	0	0	0	26433	25010	121389	26880	1015277	41694	109792	0	0	8463	414913	0	0
2024-06-07 13:22:32			0	41768	0	0	0	26451	25020	121317	27107	1015294	41684	109799	0	0	8464	414556	0	0
2024-06-07 13:23:32			0	41780	0	0	0	26459	25020	121273	26941	1015320	41696	109802	0	0	8464	414157	0	0
2024-06-07 13:24:32			0	41778	0	0	0	26464	25030	121269	27280	1015329	41708	109804	0	0	8464	414200	0	0
2024-06-07 13:25:32			0	41765	0	0	0	26477	25030	121249	27102	1015364	41708	109809	0	0	8463	414633	0	0
2024-06-07 13:26:32			0	41760	0	0	0	26475	25050	121261	27072	1015444	41709	109808	0	0	8463	414752	0	0
2024-06-07 13:27:32			0	41763	0	0	0	26490	25050	121217	27227	1015452	41709	109814	0	0	8463	414652	0	0
2024-06-07 13:28:32			0	41776	0	0	0	26496	25060	121177	27460	1015408	41709	109816	0	0	8463	414196	0	0
2024-06-07 13:29:32			0	41793	0	0	0	26509	25070	121209	27029	1015487	41711	109821	0	0	8464	413607	0	0
2024-06-07 13:30:32			0	41781	0	0	0	26511	25080	121221	27345	1015576	41700	109822	0	0	8463	413983	0	0
2024-06-07 13:31:32			0	41792	0	0	0	26527	25080	121149	27133	1015557	41701	109828	0	0	8464	413617	0	0
2024-06-07 13:32:32			0	41786	0	0	0	26527	25080	121237	27039	1015584	41701	109828	0	0	8463	413816	0	0
2024-06-07 13:33:32			0	41797	0	0	0	26532	25090	121129	27152	1015548	41703	109830	0	0	8464	413427	0	0
2024-06-07 13:34:32			0	41804	0	0	0	26524	25090	121101	27296	1015593	41702	109827	0	0	8464	413195	0	0
2024-06-07 13:35:32			0	41813	0	0	0	26524	25090	121057	27223	1015628	41692	109827	0	0	8465	412896	0	0
2024-06-07 13:36:32			0	41804	0	0	0	26524	25100	121093	26939	1015618	41713	109827	0	0	8465	413171	0	0
2024-06-07 13:37:32			0	41818	0	0	0	26529	25100	121145	27213	1015672	41713	109829	0	0	8465	412707	0	0
2024-06-07 13:38:32			0	41801	0	0	0	26542	25100	121101	27119	1015645	41703	109834	0	0	8464	413271	0	0
2024-06-07 13:39:32			0	41807	0	0	0	26532	25100	121037	27019	1015663	41725	109830	0	0	8465	413072	0	0
2024-06-07 13:40:32			0	41809	0	0	0	26540	25110	121009	26894	1015681	41714	109833	0	0	8465	412982	0	0
2024-06-07 13:41:32			0	41814	0	0	0	26532	25120	121053	26951	1015680	41715	109830	0	0	8465	412793	0	0
2024-06-07 13:42:32			0	41809	0	0	0	26535	25110	121057	26736	1015689	41715	109831	0	0	8465	412982	0	0
2024-06-07 13:43:32			0	41807	0	0	0	26537	25120	121025	26717	1015671	41715	109832	0	0	8465	413025	0	0
2024-06-07 13:44:32			0	41805	0	0	0	26545	25130	121009	27031	1015795	41706	109835	0	0	8464	413068	0	0
2024-06-07 13:45:32			0	41830	0	0	0	26555	25130	121061	27116	1015795	41716	109839	0	0	8465	412238	0	0
2024-06-07 13:46:32			0	41805	0	0	0	26548	25130	121053	27100	1015768	41694	109836	0	0	8464	413068	0	0
2024-06-07 13:47:32			0	41827	0	0	0	26550	25140	121061	27182	1015732	41695	109837	0	0	8465	412314	0	0
2024-06-07 13:48:32			0	41826	0	0	0	26545	25140	121005	27069	1015732	41707	109835	0	0	8465	412347	0	0
2024-06-07 13:49:32			0	41842	0	0	0	26550	25140	120961	27206	1015786	41707	109837	0	0	8466	411817	0	0
2024-06-07 13:50:32			0	41826	0	0	0	26550	25130	120937	27251	1015777	41717	109837	0	0	8465	412371	0	0
2024-06-07 13:51:32			0	41828	0	0	0	26555	25130	120965	27187	1015831	41717	109839	0	0	8465	412304	0	0
2024-06-07 13:52:32			0	41839	0	0	0	26558	25150	121093	27239	1015830	41718	109840	0	0	8466	411893	0	0
2024-06-07 13:53:32			0	41844	0	0	0	26555	25140	120993	27296	1015794	41707	109839	0	0	8466	411750	0	0
2024-06-07 13:54:32			0	41860	0	0	0	26550	25150	121045	27149	1015830	41708	109837	0	0	8467	411196	0	0
2024-06-07 13:55:32			0	41852	0	0	0	26571	25150	120993	27020	1015865	41719	109845	0	0	8466	411462	0	0
2024-06-07 13:56:32			0	41824	0	0	0	26558	25160	121037	26953	1015954	41719	109840	0	0	8465	412367	0	0
2024-06-07 13:57:32			0	41841	0	0	0	26566	25150	121037	26922	1015892	41719	109843	0	0	8466	411826	0	0
2024-06-07 13:58:32			0	41838	0	0	0	26561	25160	121021	26850	1015927	41708	109841	0	0	8466	411902	0	0
2024-06-07 13:59:32			0	41832	0	0	0	26563	25160	121061	27010	1015775	41698	109842	0	0	8466	412101	0	0
2024-06-07 14:00:32			0	41831	0	0	0	26561	25150	120997	27164	1015892	41719	109841	0	0	8466	412158	0	0
2024-06-07 14:01:32			0	41845	0	0	0	26558	25160	120977	27228	1015847	41697	109840	0	0	8466	411670	0	0
2024-06-07 14:02:32			0	41834	0	0	0	26558	25150	121001	26694	1015883	41696	109840	0	0	8466	412059	0	0
2024-06-07 14:03:32			0	41839	0	0	0	26540	25160	121025	26866	1015855	41687	109833	0	0	8466	411869	0	0
2024-06-07 14:04:32			0	41871	0	0	0	26529	25160	120985	27289	1015820	41719	109829	0	0	8468	410809	0	0
2024-06-07 14:05:32			0	41831	0	0	0	26545	25160	120969	26944	1015847	41697	109835	0	0	8466	412135	0	0
2024-06-07 14:06:32			0	41843	0	0	0	26548	25160	121025	26840	1015927	41719	109836	0	0	8466	411737	0	0
2024-06-07 14:07:32			0	41810	0	0	0	26555	25160	121085	27118	1015900	41708	109839	0	0	8465	412832	0	0
2024-06-07 14:08:32			0	41811	0	0	0	26574	25170	121113	27119	1015979	41709	109846	0	0	8464	412775	0	0
2024-06-07 14:09:32			0	41803	0	0	0	26566	25170	121057	27104	1015979	41721	109843	0	0	8464	413041	0	0
2024-06-07 14:10:32			0	41810	0	0	0	26581	25170	121049	27249	1016006	41709	109849	0	0	8464	412808	0	0
2024-06-07 14:11:32			0	41848	0	0	0	26599	25180	121013	27046	1016015	41709	109856	0	0	8466	411524	0	0
2024-06-07 14:12:32			0	41826	0	0	0	26605	25200	120985	27121	1016175	41711	109858	0	0	8465	412207	0	0
2024-06-07 14:13:32			0	41805	0	0	0	26610	25200	121001	26710	1016121	41711	109860	0	0	8463	412904	0	0
2024-06-07 14:14:32			0	41802	0	0	0	26615	25200	121093	27185	1016094	41722	109862	0	0	8463	413003	0	0
2024-06-07 14:15:32			0	41806	0	0	0	26618	25200	121049	26961	1016157	41712	109863	0	0	8463	412871	0	0
2024-06-07 14:16:32			0	41812	0	0	0	26615	25210	121045	27225	1016112	41712	109862	0	0	8464	412648	0	0
2024-06-07 14:17:32			0	41822	0	0	0	26576	25190	121057	27265	1016032	41710	109847	0	0	8465	412363	0	0
2024-06-07 14:18:32			0	41800	0	0	0	26537	25190	121093	27239	1015952	41688	109832	0	0	8464	413093	0	0
2024-06-07 14:19:32			0	41807	0	0	0	26485	25190	121149	27509	1015872	41700	109812	0	0	8466	412861	0	0
2024-06-07 14:20:32			0	41784	0	0	0	26459	25180	121121	27277	1015943	41710	109802	0	0	8465	413648	0	0
2024-06-07 14:21:32			0	41774	0	0	0	26449	25170	121141	27183	1015926	41676	109798	0	0	8464	414004	0	0
2024-06-07 14:22:32			0	41750	0	0	0	26412	25170	121189	27124	1015703	41698	109784	0	0	8464	414802	0	0
2024-06-07 14:23:32			0	41722	0	0	0	26348	25140	121257	26859	1015312	41651	109759	0	0	8463	415805	0	0
2024-06-07 14:24:32			0	41672	0	0	0	26272	25100	121317	27029	1014967	41636	109730	0	0	8462	417568	0	0
2024-06-07 14:25:32			0	41666	0	0	0	26210	25040	121441	27185	1014632	41609	109706	0	0	8462	417910	0	0
2024-06-07 14:26:32			0	41623	0	0	0	26142	24980	121585	27182	1014341	41625	109680	0	0	8461	419491	0	0
2024-06-07 14:27:32			0	41598	0	0	0	26101	24930	121629	27213	1014202	41609	109664	0	0	8460	420447	0	0
2024-06-07 14:28:32			0	41605	0	0	0	26067	24890	121633	27204	1013955	41628	109651	0	0	8461	420308	0	0
2024-06-07 14:29:32			0	41570	0	0	0	26041	24860	121821	27062	1013877	41625	109641	0	0	8459	421554	0	0
2024-06-07 14:30:32			0	41582	0	0	0	26015	24830	121897	26953	1013932	41656	109631	0	0	8460	421222	0	0
2024-06-07 14:31:32			0	41538	0	0	0	26062	24850	121973	27126	1014440	41691	109649	0	0	8457	422653	0	0
2024-06-07 14:32:32			0	41554	0	0	0	26142	24880	121989	27001	1014625	41693	109680	0	0	8457	422043	0	0
2024-06-07 14:33:32			0	41524	0	0	0	26194	24910	122021	27308	1014997	41708	109700	0	0	8454	422979	0	0
2024-06-07 14:34:32			0	41521	0	0	0	26386	24950	121977	27104	1015254	41710	109774	0	0	8451	422984	0	0
2024-06-07 14:35:32			0	41498	0	0	0	26524	25000	122037	27279	1015598	41715	109827	0	0	8448	423638	0	0
2024-06-07 14:36:32			0	41505	0	0	0	26586	25030	122053	26977	1015650	41718	109851	0	0	8447	423330	0	0
2024-06-07 14:37:32			0	41522	0	0	0	26558	25050	122041	26922	1015479	41687	109840	0	0	8449	422711	0	0
2024-06-07 14:38:32			0	41569	0	0	0	26483	25040	121873	27163	1015185	41652	109811	0	0	8452	421157	0	0
2024-06-07 14:39:32			0	41567	0	0	0	26386	25000	121877	27180	1014777	41627	109774	0	0	8454	421320	0	0
2024-06-07 14:40:32			0	41615	0	0	0	26288	24950	121721	27010	1014451	41611	109736	0	0	8458	419830	0	0
2024-06-07 14:41:32			0	41631	0	0	0	26189	24930	121705	26989	1014461	41630	109698	0	0	8460	419342	0	0
2024-06-07 14:42:32			0	41619	0	0	0	26223	24920	121629	26902	1014881	41686	109711	0	0	8459	419767	0	0
2024-06-07 14:43:32			0	41622	0	0	0	26368	24960	121649	27152	1015244	41712	109767	0	0	8457	419572	0	0
2024-06-07 14:44:32			0	41604	0	0	0	26501	25000	121689	27281	1015446	41727	109818	0	0	8454	420080	0	0
2024-06-07 14:45:32			0	41615	0	0	0	26571	25040	121693	27260	1015783	41719	109845	0	0	8453	419616	0	0
2024-06-07 14:46:32			0	41579	0	0	0	26631	25090	121813	27220	1016021	41712	109868	0	0	8451	420703	0	0
2024-06-07 14:47:32			0	41578	0	0	0	26683	25120	121757	27131	1016153	41715	109888	0	0	8450	420665	0	0
2024-06-07 14:48:32			0	41598	0	0	0	26701	25150	121705	27097	1016293	41719	109895	0	0	8451	419923	0	0
2024-06-07 14:49:32			0	41587	0	0	0	26716	25170	121697	27033	1016346	41720	109901	0	0	8450	420244	0	0
2024-06-07 14:50:32			0	41585	0	0	0	26719	25200	121701	27320	1016264	41723	109902	0	0	8450	420239	0	0
2024-06-07 14:51:32			0	41569	0	0	0	26667	25200	121721	27398	1016157	41702	109882	0	0	8450	420775	0	0
2024-06-07 14:52:32			0	41569	0	0	0	26651	25210	121737	27008	1016192	41702	109876	0	0	8450	420751	0	0
2024-06-07 14:53:32			0	41608	0	0	0	26675	25210	121685	27062	1016334	41735	109885	0	0	8452	419445	0	0
2024-06-07 14:54:32			0	41586	0	0	0	26706	25220	121705	27346	1016405	41725	109897	0	0	8450	420158	0	0
2024-06-07 14:55:32			0	41567	0	0	0	26724	25250	121657	27287	1016590	41728	109904	0	0	8449	420723	0	0
2024-06-07 14:56:32			0	41558	0	0	0	26745	25260	121669	27227	1016634	41717	109912	0	0	8448	421000	0	0
2024-06-07 14:57:32			0	41555	0	0	0	26753	25270	121717	27256	1016563	41717	109915	0	0	8448	421077	0	0
2024-06-07 14:58:32			0	41557	0	0	0	26768	25280	121701	27301	1016722	41730	109921	0	0	8448	420986	0	0
2024-06-07 14:59:32			0	41544	0	0	0	26761	25300	121729	27213	1016748	41721	109918	0	0	8447	421374	0	0
2024-06-07 15:00:32			0	41524	0	0	0	26763	25310	121757	27192	1016747	41733	109919	0	0	8446	422021	0	0
2024-06-07 15:01:32			0	41552	0	0	0	26745	25310	121749	27232	1016640	41722	109912	0	0	8448	421082	0	0
2024-06-07 15:02:32			0	41556	0	0	0	26722	25310	121737	27287	1016631	41710	109903	0	0	8449	420948	0	0
2024-06-07 15:03:32			0	41576	0	0	0	26693	25300	121733	27237	1016560	41710	109892	0	0	8450	420302	0	0
2024-06-07 15:04:32			0	41532	0	0	0	26672	25300	121717	26974	1016453	41710	109884	0	0	8448	421776	0	0
2024-06-07 15:05:32			0	41526	0	0	0	26615	25290	121749	27268	1016302	41686	109862	0	0	8449	422001	0	0
2024-06-07 15:06:32			0	41528	0	0	0	26597	25280	121737	27467	1016339	41686	109855	0	0	8449	421958	0	0
2024-06-07 15:07:32			0	41502	0	0	0	26610	25280	121753	27055	1016481	41719	109860	0	0	8448	422831	0	0
2024-06-07 15:08:32			0	41512	0	0	0	26610	25290	121777	27064	1016436	41730	109860	0	0	8448	422471	0	0
2024-06-07 15:09:32			0	41498	0	0	0	26576	25280	121761	27022	1016320	41708	109847	0	0	8448	422965	0	0
2024-06-07 15:10:32			0	41510	0	0	0	26529	25260	121717	26856	1016010	41683	109829	0	0	8449	422610	0	0
2024-06-07 15:11:32			0	41523	0	0	0	26454	25240	121753	27138	1015735	41649	109800	0	0	8451	422222	0	0
2024-06-07 15:12:32			0	41509	0	0	0	26381	25170	121813	27138	1015283	41632	109772	0	0	8452	422860	0	0
2024-06-07 15:13:32			0	41502	0	0	0	26311	25130	121749	27093	1015153	41627	109745	0	0	8452	423191	0	0
2024-06-07 15:14:32			0	41514	0	0	0	26259	25080	121817	26951	1014987	41633	109725	0	0	8453	422908	0	0
2024-06-07 15:15:32			0	41497	0	0	0	26246	25060	121865	27331	1015140	41665	109720	0	0	8453	423527	0	0
2024-06-07 15:16:32			0	41514	0	0	0	26280	25070	121889	27492	1015406	41689	109733	0	0	8453	422932	0	0
2024-06-07 15:17:32			0	41505	0	0	0	26332	25100	121873	27203	1015663	41703	109753	0	0	8452	423162	0	0
2024-06-07 15:18:32			0	41488	0	0	0	26386	25120	121873	26941	1015912	41715	109774	0	0	8450	423686	0	0
2024-06-07 15:19:32			0	41451	0	0	0	26451	25160	121953	27135	1016168	41719	109799	0	0	8447	424835	0	0
2024-06-07 15:20:32			0	41484	0	0	0	26514	25200	121981	27256	1016389	41722	109823	0	0	8448	423628	0	0
2024-06-07 15:21:32			0	41455	0	0	0	26581	25230	121889	27215	1016467	41714	109849	0	0	8446	424531	0	0
2024-06-07 15:22:32			0	41466	0	0	0	26623	25260	121981	27234	1016581	41696	109865	0	0	8446	424089	0	0
2024-06-07 15:23:32			0	41465	0	0	0	26646	25260	121925	27055	1016608	41707	109874	0	0	8445	424123	0	0
2024-06-07 15:24:32			0	41443	0	0	0	26662	25280	121901	27177	1016615	41697	109880	0	0	8444	424814	0	0
2024-06-07 15:25:32			0	41458	0	0	0	26685	25290	121961	27388	1016731	41708	109889	0	0	8444	424286	0	0
2024-06-07 15:26:32			0	41421	0	0	0	26703	25310	121964	27059	1016631	41722	109896	0	0	8442	425483	0	0
2024-06-07 15:27:32			0	41442	0	0	0	26558	25290	122013	27173	1016364	41676	109840	0	0	8445	424824	0	0
2024-06-07 15:28:32			0	41441	0	0	0	26438	25270	121953	27074	1016134	41651	109794	0	0	8447	424906	0	0
2024-06-07 15:29:32			0	41453	0	0	0	26337	25240	121929	27353	1015708	41637	109755	0	0	8450	424575	0	0
2024-06-07 15:30:32			0	41458	0	0	0	26280	25180	121905	26965	1015435	41611	109733	0	0	8451	424551	0	0
2024-06-07 15:31:32			0	41469	0	0	0	26210	25120	121873	27332	1015064	41626	109706	0	0	8452	424325	0	0
2024-06-07 15:32:32			0	41465	0	0	0	26145	25080	121901	27102	1014853	41623	109681	0	0	8453	424556	0	0
2024-06-07 15:33:32			0	41468	0	0	0	26129	25050	121977	27140	1014855	41643	109675	0	0	8453	424527	0	0
2024-06-07 15:34:32			0	41488	0	0	0	26140	25020	121945	27171	1014937	41650	109679	0	0	8454	423926	0	0
2024-06-07 15:35:32			0	41475	0	0	0	26202	25020	122025	27194	1015151	41672	109703	0	0	8452	424364	0	0
2024-06-07 15:36:32			0	41457	0	0	0	26280	25050	122049	27286	1015533	41709	109733	0	0	8450	424898	0	0
2024-06-07 15:37:32			0	41460	0	0	0	26467	25100	122169	27197	1016100	41747	109805	0	0	8447	424676	0	0
2024-06-07 15:38:32			0	41463	0	0	0	26688	25150	122117	27190	1016534	41741	109890	0	0	8444	424455	0	0
2024-06-07 15:39:32			0	41442	0	0	0	26859	25230	122181	27130	1017011	41759	109956	0	0	8440	424969	0	0
2024-06-07 15:40:32			0	41418	0	0	0	26948	25290	122200	27230	1017293	41752	109990	0	0	8438	425632	0	0
2024-06-07 15:41:32			0	41418	0	0	0	26989	25350	122232	27291	1017396	41748	110006	0	0	8437	425487	0	0
2024-06-07 15:42:32			0	41407	0	0	0	26966	25390	122192	27159	1017358	41740	109997	0	0	8437	425761	0	0
2024-06-07 15:43:32			0	41410	0	0	0	26890	25380	122120	27341	1016948	41685	109968	0	0	8439	425684	0	0
2024-06-07 15:44:32			0	41422	0	0	0	26763	25350	122100	27301	1016575	41659	109919	0	0	8441	425353	0	0
2024-06-07 15:45:32			0	41436	0	0	0	26625	25300	122157	26915	1016159	41644	109866	0	0	8444	425002	0	0
2024-06-07 15:46:32			0	41457	0	0	0	26509	25270	121993	27124	1015982	41652	109821	0	0	8447	424368	0	0
2024-06-07 15:47:32			0	41480	0	0	0	26467	25260	121993	27371	1016197	41683	109805	0	0	8449	423618	0	0
2024-06-07 15:48:32			0	41507	0	0	0	26545	25280	121881	26882	1016740	41730	109835	0	0	8449	422663	0	0
2024-06-07 15:49:32			0	41471	0	0	0	26664	25330	121861	27027	1017237	41746	109881	0	0	8445	423752	0	0
2024-06-07 15:50:32			0	41474	0	0	0	26854	25390	121861	27282	1017626	41751	109954	0	0	8443	423507	0	0
2024-06-07 15:51:32			0	41474	0	0	0	26999	25450	121849	27208	1017997	41780	110010	0	0	8440	423363	0	0
2024-06-07 15:52:32			0	41469	0	0	0	27106	25500	121937	27253	1018163	41773	110051	0	0	8438	423410	0	0
2024-06-07 15:53:32			0	41452	0	0	0	27184	25540	121925	27263	1018304	41765	110081	0	0	8436	423885	0	0
2024-06-07 15:54:32			0	41438	0	0	0	27236	25600	121933	26899	1018577	41760	110101	0	0	8435	424211	0	0
2024-06-07 15:55:32			0	41431	0	0	0	27272	25630	122021	27365	1018735	41774	110115	0	0	8434	424373	0	0
2024-06-07 15:56:32			0	41429	0	0	0	27306	25660	121929	27289	1018921	41777	110128	0	0	8434	424368	0	0
2024-06-07 15:57:32			0	41406	0	0	0	27335	25700	121912	26965	1018928	41791	110139	0	0	8432	425045	0	0
2024-06-07 15:58:32			0	41438	0	0	0	27345	25730	121901	27194	1019122	41794	110143	0	0	8434	423897	0	0
2024-06-07 15:59:32			0	41412	0	0	0	27337	25760	121892	26955	1019201	41797	110140	0	0	8433	424698	0	0
2024-06-07 16:00:32			0	41421	0	0	0	27220	25770	121856	27001	1018780	41764	110095	0	0	8435	424371	0	0
2024-06-07 16:01:32			0	41443	0	0	0	27072	25750	121817	27137	1018433	41719	110038	0	0	8439	423681	0	0
2024-06-07 16:02:32			0	41469	0	0	0	26999	25730	121657	27232	1018559	41728	110010	0	0	8441	422856	0	0
2024-06-07 16:03:32			0	41456	0	0	0	27098	25740	121569	27282	1018890	41761	110048	0	0	8439	423268	0	0
2024-06-07 16:04:32			0	41475	0	0	0	27205	25780	121601	27050	1019226	41789	110089	0	0	8438	422535	0	0
2024-06-07 16:05:32			0	41458	0	0	0	27306	25810	121589	27196	1019457	41801	110128	0	0	8436	423033	0	0
2024-06-07 16:06:32			0	41445	0	0	0	27381	25840	121589	27019	1019651	41793	110157	0	0	8434	423396	0	0
2024-06-07 16:07:32			0	41438	0	0	0	27436	25870	121633	27329	1019783	41796	110178	0	0	8433	423559	0	0
2024-06-07 16:08:32			0	41436	0	0	0	27475	25910	121601	27180	1019871	41789	110193	0	0	8432	423530	0	0
2024-06-07 16:09:32			0	41414	0	0	0	27511	25930	121712	27208	1020039	41801	110207	0	0	8430	424219	0	0
2024-06-07 16:10:32			0	41417	0	0	0	27535	25960	121704	26979	1020091	41815	110216	0	0	8430	424046	0	0
2024-06-07 16:11:32			0	41416	0	0	0	27457	25970	121760	27118	1019706	41772	110186	0	0	8432	424056	0	0
2024-06-07 16:12:32			0	41416	0	0	0	27244	25920	121764	27078	1018744	41702	110104	0	0	8435	424176	0	0
2024-06-07 16:13:32			0	41415	0	0	0	26974	25810	121784	26991	1017697	41635	110000	0	0	8439	424476	0	0
2024-06-07 16:14:32			0	41444	0	0	0	26748	25670	121713	27291	1017143	41623	109913	0	0	8444	423840	0	0
2024-06-07 16:15:32			0	41455	0	0	0	26607	25600	121685	27164	1017156	41671	109859	0	0	8446	423639	0	0
2024-06-07 16:16:32			0	41485	0	0	0	26745	25600	121629	27343	1018032	41771	109912	0	0	8446	422633	0	0
2024-06-07 16:17:32			0	41453	0	0	0	27083	25650	121641	27104	1018662	41820	110042	0	0	8439	423586	0	0
2024-06-07 16:18:32			0	41438	0	0	0	27244	25720	121857	27194	1019204	41827	110104	0	0	8435	423921	0	0
2024-06-07 16:19:32			0	41412	0	0	0	27394	25780	121876	27244	1019513	41809	110162	0	0	8432	424649	0	0
2024-06-07 16:20:32			0	41401	0	0	0	27475	25850	121948	27176	1019821	41816	110193	0	0	8430	424850	0	0
2024-06-07 16:21:32			0	41353	0	0	0	27532	25900	121944	27095	1020041	41821	110215	0	0	8427	426343	0	0
2024-06-07 16:22:32			0	41335	0	0	0	27579	25940	121952	27123	1020217	41825	110233	0	0	8425	426852	0	0
2024-06-07 16:23:32			0	41334	0	0	0	27594	25970	121924	27064	1020358	41817	110239	0	0	8425	426812	0	0
2024-06-07 16:24:32			0	41331	0	0	0	27607	26000	121992	27372	1020428	41819	110244	0	0	8425	426840	0	0
2024-06-07 16:25:32			0	41304	0	0	0	27631	26030	122044	27305	1020515	41811	110253	0	0	8423	427677	0	0
2024-06-07 16:26:32			0	41304	0	0	0	27641	26050	121988	27258	1020630	41825	110257	0	0	8423	427628	0	0
2024-06-07 16:27:32			0	41310	0	0	0	27644	26080	121900	27173	1020638	41827	110258	0	0	8423	427353	0	0
2024-06-07 16:28:32			0	41295	0	0	0	27636	26100	121940	27086	1020645	41829	110255	0	0	8423	427809	0	0
2024-06-07 16:29:32			0	41293	0	0	0	27633	26100	121964	26984	1020734	41829	110254	0	0	8423	427877	0	0
2024-06-07 16:30:32			0	41303	0	0	0	27631	26120	121872	26805	1020760	41808	110253	0	0	8423	427491	0	0
2024-06-07 16:31:32			0	41308	0	0	0	27633	26130	122000	26925	1020786	41820	110254	0	0	8423	427298	0	0
2024-06-07 16:32:32			0	41284	0	0	0	27638	26150	121948	27180	1020847	41833	110256	0	0	8422	428058	0	0
2024-06-07 16:33:32			0	41309	0	0	0	27649	26160	121876	26923	1020963	41833	110260	0	0	8423	427191	0	0
2024-06-07 16:34:32			0	41291	0	0	0	27654	26160	121888	27211	1020972	41846	110262	0	0	8422	427797	0	0
2024-06-07 16:35:32			0	41268	0	0	0	27659	26180	121868	27041	1021051	41846	110264	0	0	8421	428524	0	0
2024-06-07 16:36:32			0	41274	0	0	0	27672	26190	121916	27149	1021077	41837	110269	0	0	8421	428297	0	0
2024-06-07 16:37:32			0	41273	0	0	0	27677	26210	121956	27241	1021112	41828	110271	0	0	8421	428282	0	0
2024-06-07 16:38:32			0	41259	0	0	0	27696	26210	121944	27203	1021219	41839	110278	0	0	8420	428754	0	0
2024-06-07 16:39:32			0	41258	0	0	0	27703	26230	122000	27199	1021245	41840	110281	0	0	8420	428739	0	0
2024-06-07 16:40:32			0	41264	0	0	0	27709	26230	121904	27121	1021280	41840	110283	0	0	8420	428536	0	0
2024-06-07 16:41:32			0	41262	0	0	0	27716	26240	121972	27048	1021297	41831	110286	0	0	8420	428579	0	0
2024-06-07 16:42:32			0	41234	0	0	0	27698	26240	121972	27265	1021351	41831	110279	0	0	8419	429524	0	0
2024-06-07 16:43:32			0	41229	0	0	0	27706	26260	121924	27152	1021386	41821	110282	0	0	8419	429644	0	0
2024-06-07 16:44:32			0	41218	0	0	0	27701	26270	122060	27183	1021448	41844	110280	0	0	8418	429991	0	0
2024-06-07 16:45:32			0	41235	0	0	0	27719	26270	122020	27135	1021403	41834	110287	0	0	8419	429417	0	0
2024-06-07 16:46:32			0	41226	0	0	0	27711	26280	122040	27208	1021447	41834	110284	0	0	8418	429696	0	0
2024-06-07 16:47:32			0	41213	0	0	0	27709	26290	121980	27251	1021429	41846	110283	0	0	8418	430110	0	0
2024-06-07 16:48:32			0	41230	0	0	0	27693	26290	121932	27331	1021482	41824	110277	0	0	8419	429536	0	0
2024-06-07 16:49:32			0	41201	0	0	0	27685	26290	122012	27102	1021455	41835	110274	0	0	8418	430516	0	0
2024-06-07 16:50:32			0	41215	0	0	0	27683	26290	122016	27199	1021438	41825	110273	0	0	8418	430043	0	0
2024-06-07 16:51:32			0	41204	0	0	0	27675	26290	122016	27402	1021402	41835	110270	0	0	8418	430414	0	0
2024-06-07 16:52:32			0	41212	0	0	0	27657	26300	122064	27202	1021339	41835	110263	0	0	8419	430119	0	0
2024-06-07 16:53:32			0	41196	0	0	0	27631	26280	121980	27293	1021179	41823	110253	0	0	8418	430709	0	0
2024-06-07 16:54:32			0	41213	0	0	0	27597	26270	122084	27097	1021045	41811	110240	0	0	8420	430159	0	0
2024-06-07 16:55:32			0	41204	0	0	0	27568	26250	121940	27331	1020939	41821	110229	0	0	8420	430513	0	0
2024-06-07 16:56:32			0	41203	0	0	0	27511	26230	122000	26942	1020762	41807	110207	0	0	8420	430596	0	0
2024-06-07 16:57:32			0	41221	0	0	0	27457	26210	122052	27287	1020736	41806	110186	0	0	8422	430037	0	0
2024-06-07 16:58:32			0	41210	0	0	0	27470	26210	122092	27339	1020835	41817	110191	0	0	8421	430408	0	0
2024-06-07 16:59:32			0	41219	0	0	0	27485	26200	122088	27261	1020871	41815	110197	0	0	8422	430129	0	0
2024-06-07 17:00:32			0	41211	0	0	0	27490	26200	121992	27175	1020907	41827	110199	0	0	8421	430399	0	0
2024-06-07 17:01:32			0	41214	0	0	0	27488	26200	122016	27325	1020737	41815	110198	0	0	8421	430298	0	0
2024-06-07 17:02:32			0	41185	0	0	0	27449	26200	122060	27036	1020764	41804	110183	0	0	8420	431278	0	0
2024-06-07 17:03:32			0	41215	0	0	0	27449	26180	122084	27147	1020738	41814	110183	0	0	8422	430313	0	0
2024-06-07 17:04:32			0	41211	0	0	0	27446	26190	121988	27300	1020800	41815	110182	0	0	8422	430424	0	0
2024-06-07 17:05:32			0	41219	0	0	0	27428	26190	121940	27409	1020693	41804	110175	0	0	8422	430153	0	0
2024-06-07 17:06:32			0	41200	0	0	0	27392	26170	121980	27303	1020560	41801	110161	0	0	8422	430845	0	0
2024-06-07 17:07:32			0	41195	0	0	0	27353	26160	121912	27275	1020435	41791	110146	0	0	8422	431038	0	0
2024-06-07 17:08:32			0	41221	0	0	0	27319	26140	121904	27265	1020374	41778	110133	0	0	8424	430208	0	0
2024-06-07 17:09:32			0	41204	0	0	0	27332	26130	121912	27305	1020429	41809	110138	0	0	8423	430808	0	0
2024-06-07 17:10:32			0	41199	0	0	0	27397	26140	121928	27145	1020669	41811	110163	0	0	8422	430952	0	0
2024-06-07 17:11:32			0	41224	0	0	0	27449	26160	121984	27357	1020802	41812	110183	0	0	8422	430058	0	0
2024-06-07 17:12:32			0	41210	0	0	0	27475	26160	122048	27256	1020784	41824	110193	0	0	8421	430531	0	0
2024-06-07 17:13:32			0	41218	0	0	0	27490	26170	122064	27317	1020748	41812	110199	0	0	8421	430236	0	0
2024-06-07 17:14:32			0	41211	0	0	0	27493	26180	121988	27216	1020837	41825	110200	0	0	8421	430448	0	0
2024-06-07 17:15:32			0	41218	0	0	0	27503	26170	122044	27388	1020801	41834	110204	0	0	8421	430236	0	0
2024-06-07 17:16:32			0	41234	0	0	0	27522	26180	122052	27235	1020846	41814	110211	0	0	8422	429671	0	0
2024-06-07 17:17:32			0	41221	0	0	0	27545	26190	122024	27346	1020961	41815	110220	0	0	8421	430086	0	0
2024-06-07 17:18:32			0	41221	0	0	0	27576	26190	121936	27476	1021104	41837	110232	0	0	8420	430086	0	0
2024-06-07 17:19:32			0	41225	0	0	0	27610	26210	121948	27140	1021192	41828	110245	0	0	8420	429902	0	0
2024-06-07 17:20:32			0	41225	0	0	0	27651	26230	121952	26984	1021352	41840	110261	0	0	8419	429852	0	0
2024-06-07 17:21:32			0	41233	0	0	0	27706	26240	121884	27306	1021432	41831	110282	0	0	8419	429558	0	0
2024-06-07 17:22:32			0	41224	0	0	0	27735	26270	121912	27079	1021644	41845	110293	0	0	8418	429788	0	0
2024-06-07 17:23:32			0	41206	0	0	0	27779	26290	121952	27358	1021733	41858	110310	0	0	8416	430347	0	0
2024-06-07 17:24:32			0	41228	0	0	0	27807	26310	121888	27274	1021794	41837	110321	0	0	8417	429555	0	0
2024-06-07 17:25:32			0	41233	0	0	0	27836	26330	121872	27149	1021927	41861	110332	0	0	8417	429337	0	0
2024-06-07 17:26:32			0	41223	0	0	0	27849	26350	121956	27319	1021908	41863	110337	0	0	8416	429625	0	0
2024-06-07 17:27:32			0	41217	0	0	0	27857	26380	122004	27253	1021978	41854	110340	0	0	8416	429754	0	0
2024-06-07 17:28:32			0	41251	0	0	0	27862	26380	121980	27251	1022005	41854	110342	0	0	8418	428608	0	0
2024-06-07 17:29:32			0	41196	0	0	0	27854	26390	121920	26852	1022004	41845	110339	0	0	8415	430439	0	0
2024-06-07 17:30:32			0	41205	0	0	0	27851	26400	121932	27119	1021986	41867	110338	0	0	8415	430110	0	0
2024-06-07 17:31:32			0	41214	0	0	0	27841	26390	121932	27414	1021968	41855	110334	0	0	8416	429831	0	0
2024-06-07 17:32:32			0	41225	0	0	0	27846	26400	121892	27041	1021994	41845	110336	0	0	8417	429435	0	0
2024-06-07 17:33:32			0	41220	0	0	0	27849	26410	121848	27339	1022030	41845	110337	0	0	8416	429579	0	0
2024-06-07 17:34:32			0	41233	0	0	0	27844	26410	121900	27147	1022057	41857	110335	0	0	8417	429141	0	0
2024-06-07 17:35:32			0	41221	0	0	0	27846	26410	121896	27196	1022057	41845	110336	0	0	8416	429545	0	0
2024-06-07 17:36:32			0	41240	0	0	0	27851	26420	121868	27190	1022127	41869	110338	0	0	8417	428880	0	0
2024-06-07 17:37:32			0	41225	0	0	0	27849	26430	121880	27119	1022091	41870	110337	0	0	8417	429362	0	0
2024-06-07 17:38:32			0	41217	0	0	0	27862	26430	121912	27123	1022145	41870	110342	0	0	8416	429631	0	0
2024-06-07 17:39:32			0	41223	0	0	0	27859	26430	121924	27244	1022145	41870	110341	0	0	8416	429429	0	0
2024-06-07 17:40:32			0	41211	0	0	0	27854	26440	121932	27145	1022198	41860	110339	0	0	8416	429809	0	0
2024-06-07 17:41:32			0	41215	0	0	0	27854	26430	121872	27327	1022091	41859	110339	0	0	8416	429699	0	0
2024-06-07 17:42:32			0	41228	0	0	0	27838	26440	121828	27168	1022055	41860	110333	0	0	8417	429236	0	0
2024-06-07 17:43:32			0	41231	0	0	0	27828	26430	121816	27133	1022038	41847	110329	0	0	8417	429159	0	0
2024-06-07 17:44:32			0	41245	0	0	0	27815	26440	121864	27105	1022082	41882	110324	0	0	8418	428663	0	0
2024-06-07 17:45:32			0	41237	0	0	0	27815	26420	121932	26942	1021975	41880	110324	0	0	8418	428981	0	0
2024-06-07 17:46:32			0	41213	0	0	0	27810	26420	121916	27130	1022020	41858	110322	0	0	8417	429791	0	0
2024-06-07 17:47:32			0	41235	0	0	0	27810	26420	121872	27010	1022020	41846	110322	0	0	8418	429049	0	0
2024-06-07 17:48:32			0	41244	0	0	0	27802	26420	121792	27164	1021993	41858	110319	0	0	8418	428745	0	0
2024-06-07 17:49:32			0	41248	0	0	0	27792	26420	121796	27308	1021949	41870	110315	0	0	8419	428611	0	0
2024-06-07 17:50:32			0	41239	0	0	0	27786	26410	121760	27177	1021949	41857	110313	0	0	8418	428939	0	0
2024-06-07 17:51:32			0	41248	0	0	0	27768	26400	121816	26958	1021780	41845	110306	0	0	8419	428660	0	0
2024-06-07 17:52:32			0	41245	0	0	0	27750	26390	121800	27178	1021762	41856	110299	0	0	8419	428785	0	0
2024-06-07 17:53:32			0	41216	0	0	0	27729	26390	121816	27267	1021700	41844	110291	0	0	8418	429763	0	0
2024-06-07 17:54:32			0	41229	0	0	0	27714	26380	121880	26956	1021656	41832	110285	0	0	8419	429349	0	0
2024-06-07 17:55:32			0	41239	0	0	0	27690	26350	121804	27015	1021514	41841	110276	0	0	8420	429086	0	0
2024-06-07 17:56:32			0	41243	0	0	0	27693	26340	121824	27076	1021524	41840	110277	0	0	8420	428975	0	0
2024-06-07 17:57:32			0	41245	0	0	0	27685	26330	121764	27178	1021506	41850	110274	0	0	8420	428932	0	0
2024-06-07 17:58:32			0	41237	0	0	0	27672	26320	121732	26963	1021507	41849	110269	0	0	8420	429227	0	0
2024-06-07 17:59:32			0	41247	0	0	0	27693	26330	121816	27097	1021533	41850	110277	0	0	8420	428865	0	0
2024-06-07 18:00:32			0	41258	0	0	0	27701	26330	121760	27111	1021525	41850	110280	0	0	8420	428494	0	0
2024-06-07 18:01:32			0	41260	0	0	0	27701	26330	121868	27225	1021605	41861	110280	0	0	8421	428427	0	0
2024-06-07 18:02:32			0	41248	0	0	0	27709	26320	121828	27218	1021596	41850	110283	0	0	8420	428856	0	0
2024-06-07 18:03:32			0	41258	0	0	0	27709	26320	121816	27350	1021570	41861	110283	0	0	8420	428519	0	0
2024-06-07 18:04:32			0	41246	0	0	0	27696	26330	121848	27405	1021533	41862	110278	0	0	8420	428899	0	0
2024-06-07 18:05:32			0	41232	0	0	0	27677	26310	121804	27173	1021391	41827	110271	0	0	8419	429420	0	0
2024-06-07 18:06:32			0	41251	0	0	0	27638	26300	121840	27168	1021213	41825	110256	0	0	8421	428803	0	0
2024-06-07 18:07:32			0	41238	0	0	0	27566	26280	121820	27317	1021044	41800	110228	0	0	8421	429291	0	0
2024-06-07 18:08:32			0	41270	0	0	0	27509	26260	121880	27206	1021010	41821	110206	0	0	8424	428261	0	0
2024-06-07 18:09:32			0	41280	0	0	0	27516	26250	121792	27123	1021118	41821	110209	0	0	8424	427948	0	0
2024-06-07 18:10:32			0	41280	0	0	0	27501	26240	121804	27312	1021029	41820	110203	0	0	8425	427973	0	0
2024-06-07 18:11:32			0	41284	0	0	0	27509	26250	121780	26909	1021118	41832	110206	0	0	8425	427814	0	0
2024-06-07 18:12:32			0	41244	0	0	0	27522	26230	121908	27229	1021119	41819	110211	0	0	8422	429211	0	0
2024-06-07 18:13:32			0	41249	0	0	0	27522	26250	121836	26885	1021145	41832	110211	0	0	8423	428993	0	0
2024-06-07 18:14:32			0	41231	0	0	0	27540	26250	121924	27114	1021172	41854	110218	0	0	8421	429601	0	0
2024-06-07 18:15:32			0	41236	0	0	0	27542	26250	121944	27048	1021226	41832	110219	0	0	8422	429432	0	0
2024-06-07 18:16:32			0	41257	0	0	0	27553	26250	121872	27119	1021207	41821	110223	0	0	8423	428724	0	0
2024-06-07 18:17:32			0	41267	0	0	0	27532	26240	121908	27027	1021029	41808	110215	0	0	8423	428411	0	0
2024-06-07 18:18:32			0	41241	0	0	0	27490	26230	121888	27027	1020771	41819	110199	0	0	8423	429312	0	0
2024-06-07 18:19:32			0	41254	0	0	0	27402	26190	121916	27234	1020219	41759	110165	0	0	8425	428972	0	0
2024-06-07 18:20:32			0	41257	0	0	0	27249	26140	121924	27256	1019856	41744	110106	0	0	8427	428993	0	0
2024-06-07 18:21:32			0	41264	0	0	0	27189	26090	121816	27296	1019877	41760	110083	0	0	8428	428879	0	0
2024-06-07 18:22:32			0	41290	0	0	0	27218	26070	121868	27362	1020173	41803	110094	0	0	8429	428051	0	0
2024-06-07 18:23:32			0	41296	0	0	0	27311	26080	121796	27274	1020432	41827	110130	0	0	8428	427824	0	0
2024-06-07 18:24:32			0	41293	0	0	0	27376	26090	121828	27170	1020583	41817	110155	0	0	8427	427901	0	0
2024-06-07 18:25:32			0	41293	0	0	0	27431	26120	121916	27260	1020688	41832	110176	0	0	8426	427828	0	0
2024-06-07 18:26:32			0	41288	0	0	0	27418	26130	121860	27326	1020437	41797	110171	0	0	8426	427972	0	0
2024-06-07 18:27:32			0	41274	0	0	0	27358	26110	121852	27107	1020046	41784	110148	0	0	8426	428493	0	0
2024-06-07 18:28:32			0	41278	0	0	0	27306	26070	121964	27020	1019977	41791	110128	0	0	8427	428456	0	0
2024-06-07 18:29:32			0	41309	0	0	0	27288	26050	121996	26800	1020121	41802	110121	0	0	8429	427460	0	0
2024-06-07 18:30:32			0	41291	0	0	0	27335	26070	121832	27085	1020379	41814	110139	0	0	8427	428017	0	0
2024-06-07 18:31:32			0	41292	0	0	0	27394	26080	121880	26824	1020512	41816	110162	0	0	8426	427959	0	0
2024-06-07 18:32:32			0	41289	0	0	0	27420	26090	121928	26765	1020556	41817	110172	0	0	8426	428036	0	0
2024-06-07 18:33:32			0	41269	0	0	0	27446	26100	121928	26870	1020484	41817	110182	0	0	8424	428686	0	0
2024-06-07 18:34:32			0	41296	0	0	0	27462	26110	121896	27275	1020528	41817	110188	0	0	8426	427751	0	0
2024-06-07 18:35:32			0	41298	0	0	0	27462	26100	121896	26857	1020439	41795	110188	0	0	8426	427708	0	0
2024-06-07 18:36:32			0	41279	0	0	0	27462	26110	121908	27310	1020475	41806	110188	0	0	8425	428324	0	0
2024-06-07 18:37:32			0	41283	0	0	0	27457	26110	121884	27307	1020421	41806	110186	0	0	8425	428189	0	0
2024-06-07 18:38:32			0	41295	0	0	0	27436	26090	121892	26906	1020279	41804	110178	0	0	8426	427834	0	0
2024-06-07 18:39:32			0	41290	0	0	0	27410	26080	121832	27079	1020209	41793	110168	0	0	8426	428027	0	0
2024-06-07 18:40:32			0	41300	0	0	0	27394	26070	121900	27083	1020200	41803	110162	0	0	8427	427714	0	0
2024-06-07 18:41:32			0	41307	0	0	0	27397	26070	121852	27001	1020227	41815	110163	0	0	8427	427478	0	0
2024-06-07 18:42:32			0	41304	0	0	0	27394	26060	121872	26934	1020183	41814	110162	0	0	8427	427604	0	0
2024-06-07 18:43:32			0	41313	0	0	0	27363	26050	121872	27260	1020085	41791	110150	0	0	8428	427325	0	0
2024-06-07 18:44:32			0	41279	0	0	0	27319	26040	121868	26897	1019916	41779	110133	0	0	8427	428495	0	0
2024-06-07 18:45:32			0	41310	0	0	0	27277	26000	121840	27282	1019766	41787	110117	0	0	8429	427548	0	0
2024-06-07 18:46:32			0	41316	0	0	0	27251	26000	121900	26975	1019677	41774	110107	0	0	8430	427345	0	0
2024-06-07 18:47:32			0	41337	0	0	0	27210	25970	121852	26942	1019446	41784	110091	0	0	8432	426711	0	0
2024-06-07 18:48:32			0	41337	0	0	0	27163	25940	121780	26693	1019199	41747	110073	0	0	8432	426784	0	0
2024-06-07 18:49:32			0	41333	0	0	0	27101	25890	121888	27185	1018853	41743	110049	0	0	8433	427041	0	0
2024-06-07 18:50:32			0	41355	0	0	0	27015	25830	121804	27291	1018482	41726	110016	0	0	8435	426446	0	0
2024-06-07 18:51:32			0	41371	0	0	0	26955	25800	121828	26934	1018448	41734	109993	0	0	8437	425980	0	0
2024-06-07 18:52:32			0	41385	0	0	0	26901	25750	121856	26977	1018165	41742	109972	0	0	8438	425630	0	0
2024-06-07 18:53:32			0	41389	0	0	0	26844	25700	121772	27133	1017865	41713	109950	0	0	8439	425617	0	0
2024-06-07 18:54:32			0	41392	0	0	0	26776	25640	121740	26977	1017520	41708	109924	0	0	8440	425661	0	0
2024-06-07 18:55:32			0	41402	0	0	0	26709	25580	121764	27066	1017274	41691	109898	0	0	8442	425470	0	0
2024-06-07 18:56:32			0	41428	0	0	0	26654	25530	121752	26878	1017116	41720	109877	0	0	8444	424716	0	0
2024-06-07 18:57:32			0	41440	0	0	0	26638	25500	121733	26798	1017092	41717	109871	0	0	8445	424385	0	0
2024-06-07 18:58:32			0	41443	0	0	0	26602	25470	121737	27192	1016853	41704	109857	0	0	8445	424356	0	0
2024-06-07 18:59:32			0	41446	0	0	0	26566	25430	121749	27093	1016543	41689	109843	0	0	8446	424352	0	0
2024-06-07 19:00:32			0	41453	0	0	0	26509	25370	121777	26951	1016368	41671	109821	0	0	8447	424261	0	0
2024-06-07 19:01:32			0	41437	0	0	0	26477	25330	121753	27074	1016184	41691	109809	0	0	8447	424896	0	0
2024-06-07 19:02:32			0	41460	0	0	0	26454	25290	121793	26878	1016061	41686	109800	0	0	8448	424219	0	0
2024-06-07 19:03:32			0	41496	0	0	0	26431	25270	121753	27450	1016054	41707	109791	0	0	8450	423057	0	0
2024-06-07 19:04:32			0	41495	0	0	0	26425	25250	121809	27086	1015939	41705	109789	0	0	8450	423138	0	0
2024-06-07 19:05:32			0	41498	0	0	0	26412	25220	121805	27175	1015762	41681	109784	0	0	8451	423109	0	0
2024-06-07 19:06:32			0	41506	0	0	0	26402	25190	121813	26840	1015711	41688	109780	0	0	8451	422913	0	0
2024-06-07 19:07:32			0	41510	0	0	0	26386	25170	121885	27164	1015658	41699	109774	0	0	8451	422826	0	0
2024-06-07 19:08:32			0	41522	0	0	0	26368	25150	121853	27197	1015535	41663	109767	0	0	8452	422471	0	0
2024-06-07 19:09:32			0	41517	0	0	0	26340	25120	121817	27329	1015350	41671	109756	0	0	8452	422711	0	0
2024-06-07 19:10:32			0	41502	0	0	0	26296	25080	121829	27135	1015121	41656	109739	0	0	8452	423311	0	0
2024-06-07 19:11:32			0	41540	0	0	0	26257	25050	121825	27197	1014997	41643	109724	0	0	8455	422106	0	0
2024-06-07 19:12:32			0	41550	0	0	0	26244	25020	121793	27177	1014884	41684	109719	0	0	8455	421843	0	0
2024-06-07 19:13:32			0	41564	0	0	0	26231	24990	121809	27185	1014814	41648	109714	0	0	8456	421444	0	0
2024-06-07 19:14:32			0	41555	0	0	0	26223	24980	121797	27078	1014788	41669	109711	0	0	8456	421770	0	0
2024-06-07 19:15:32			0	41559	0	0	0	26215	24950	121833	27218	1014656	41655	109708	0	0	8456	421708	0	0
2024-06-07 19:16:32			0	41583	0	0	0	26210	24940	121797	27147	1014621	41666	109706	0	0	8457	420926	0	0
2024-06-07 19:17:32			0	41580	0	0	0	26207	24930	121873	27024	1014764	41665	109705	0	0	8457	421051	0	0
2024-06-07 19:18:32			0	41578	0	0	0	26215	24930	121773	26975	1014782	41686	109708	0	0	8457	421118	0	0
2024-06-07 19:19:32			0	41597	0	0	0	26228	24930	121793	27062	1014836	41674	109713	0	0	8458	420481	0	0
2024-06-07 19:20:32			0	41581	0	0	0	26241	24920	121837	26849	1014800	41686	109718	0	0	8457	421041	0	0
2024-06-07 19:21:32			0	41591	0	0	0	26236	24920	121789	27255	1014720	41686	109716	0	0	8457	420706	0	0
2024-06-07 19:22:32			0	41556	0	0	0	26231	24910	121745	26689	1014650	41674	109714	0	0	8456	421904	0	0
2024-06-07 19:23:32			0	41568	0	0	0	26205	24900	121805	26909	1014579	41662	109704	0	0	8457	421525	0	0
2024-06-07 19:24:32			0	41563	0	0	0	26199	24890	121897	26816	1014589	41683	109702	0	0	8456	421717	0	0
2024-06-07 19:25:32			0	41584	0	0	0	26228	24890	121877	27234	1014776	41694	109713	0	0	8457	421012	0	0
2024-06-07 19:26:32			0	41568	0	0	0	26314	24920	121829	27149	1015229	41741	109746	0	0	8455	421477	0	0
2024-06-07 19:27:32			0	41560	0	0	0	26392	24960	121845	27156	1015431	41712	109776	0	0	8453	421650	0	0
2024-06-07 19:28:32			0	41544	0	0	0	26418	24990	121869	27173	1015403	41725	109786	0	0	8452	422116	0	0
2024-06-07 19:29:32			0	41554	0	0	0	26410	25000	121837	27007	1015339	41705	109783	0	0	8453	421756	0	0
2024-06-07 19:30:32			0	41556	0	0	0	26389	25000	121913	27481	1015286	41683	109775	0	0	8453	421689	0	0
2024-06-07 19:31:32			0	41556	0	0	0	26376	24990	121937	27189	1015242	41692	109770	0	0	8453	421713	0	0
2024-06-07 19:32:32			0	41543	0	0	0	26353	24990	121845	27171	1015081	41681	109761	0	0	8453	422149	0	0
2024-06-07 19:33:32			0	41564	0	0	0	26329	24970	121853	27230	1014940	41679	109752	0	0	8455	421492	0	0
2024-06-07 19:34:32			0	41592	0	0	0	26293	24960	121829	27076	1014834	41678	109738	0	0	8457	420577	0	0
2024-06-07 19:35:32			0	41568	0	0	0	26283	24930	121881	27095	1014738	41665	109734	0	0	8455	421453	0	0
2024-06-07 19:36:32			0	41571	0	0	0	26257	24910	121877	27163	1014623	41652	109724	0	0	8456	421401	0	0
2024-06-07 19:37:32			0	41591	0	0	0	26231	24900	121825	27059	1014561	41640	109714	0	0	8457	420754	0	0
2024-06-07 19:38:32			0	41582	0	0	0	26215	24880	121789	26778	1014518	41670	109708	0	0	8457	421103	0	0
2024-06-07 19:39:32			0	41583	0	0	0	26194	24880	121849	27067	1014464	41660	109700	0	0	8457	421070	0	0
2024-06-07 19:40:32			0	41599	0	0	0	26192	24860	121741	27265	1014465	41680	109699	0	0	8458	420581	0	0
2024-06-07 19:41:32			0	41592	0	0	0	26199	24850	121733	27272	1014448	41668	109702	0	0	8458	420839	0	0
2024-06-07 19:42:32			0	41611	0	0	0	26189	24850	121773	27255	1014413	41668	109698	0	0	8459	420202	0	0
2024-06-07 19:43:32			0	41638	0	0	0	26179	24840	121685	26916	1014324	41667	109694	0	0	8461	419321	0	0
2024-06-07 19:44:32			0	41632	0	0	0	26176	24830	121709	27083	1014280	41633	109693	0	0	8460	419546	0	0
2024-06-07 19:45:32			0	41643	0	0	0	26168	24820	121725	27088	1014317	41688	109690	0	0	8461	419201	0	0
2024-06-07 19:46:32			0	41655	0	0	0	26189	24840	121697	27371	1014583	41700	109698	0	0	8461	418752	0	0
2024-06-07 19:47:32			0	41674	0	0	0	26246	24850	121677	27251	1014769	41724	109720	0	0	8461	418093	0	0
2024-06-07 19:48:32			0	41665	0	0	0	26264	24880	121633	27017	1014785	41704	109727	0	0	8461	418323	0	0
2024-06-07 19:49:32			0	41651	0	0	0	26306	24900	121605	26958	1015034	41707	109743	0	0	8459	418744	0	0
2024-06-07 19:50:32			0	41660	0	0	0	26363	24930	121601	27277	1015273	41731	109765	0	0	8459	418372	0	0
2024-06-07 19:51:32			0	41660	0	0	0	26405	24970	121645	27336	1015386	41712	109781	0	0	8458	418277	0	0
2024-06-07 19:52:32			0	41689	0	0	0	26431	24990	121561	27170	1015643	41725	109791	0	0	8460	417260	0	0
2024-06-07 19:53:32			0	41667	0	0	0	26464	25030	121561	27156	1015793	41718	109804	0	0	8458	417901	0	0
2024-06-07 19:54:32			0	41689	0	0	0	26540	25070	121461	27234	1016174	41755	109833	0	0	8458	417071	0	0
2024-06-07 19:55:32			0	41663	0	0	0	26612	25120	121457	27300	1016367	41738	109861	0	0	8456	417821	0	0
2024-06-07 19:56:32			0	41681	0	0	0	26649	25150	121521	26987	1016293	41730	109875	0	0	8456	417149	0	0
2024-06-07 19:57:32			0	41656	0	0	0	26654	25170	121481	27095	1016435	41732	109877	0	0	8455	417936	0	0
2024-06-07 19:58:32			0	41673	0	0	0	26657	25180	121445	27255	1016479	41721	109878	0	0	8456	417345	0	0
2024-06-07 19:59:32			0	41693	0	0	0	26659	25200	121477	26760	1016442	41722	109879	0	0	8457	416630	0	0
2024-06-07 20:00:32			0	41678	0	0	0	26651	25210	121337	26826	1016353	41723	109876	0	0	8456	417107	0	0
2024-06-07 20:01:32			0	41693	0	0	0	26612	25200	121441	26845	1016148	41711	109861	0	0	8458	416630	0	0
2024-06-07 20:02:32			0	41674	0	0	0	26576	25190	121201	26823	1016086	41721	109847	0	0	8457	417288	0	0
2024-06-07 20:03:32			0	41688	0	0	0	26555	25180	121329	26802	1016042	41721	109839	0	0	8458	416844	0	0
2024-06-07 20:04:32			0	41709	0	0	0	26561	25190	121317	27067	1016166	41733	109841	0	0	8459	416121	0	0
2024-06-07 20:05:32			0	41707	0	0	0	26602	25200	121401	27071	1016558	41723	109857	0	0	8458	416164	0	0
2024-06-07 20:06:32			0	41712	0	0	0	26698	25250	121353	27230	1016903	41760	109894	0	0	8457	415879	0	0
2024-06-07 20:07:32			0	41710	0	0	0	26812	25290	121285	27098	1017240	41786	109938	0	0	8455	415851	0	0
2024-06-07 20:08:32			0	41696	0	0	0	26903	25320	121253	26965	1017487	41790	109973	0	0	8453	416247	0	0
2024-06-07 20:09:32			0	41676	0	0	0	26950	25390	121297	26965	1017661	41774	109991	0	0	8452	416747	0	0
2024-06-07 20:10:32			0	41671	0	0	0	26955	25420	121265	27097	1017740	41766	109993	0	0	8451	416843	0	0
2024-06-07 20:11:32			0	41682	0	0	0	26963	25450	121297	27166	1017818	41768	109996	0	0	8452	416405	0	0
2024-06-07 20:12:32			0	41678	0	0	0	26984	25470	121217	27131	1017879	41771	110004	0	0	8451	416491	0	0
2024-06-07 20:13:32			0	41688	0	0	0	27023	25500	121265	26987	1018083	41784	110019	0	0	8451	416087	0	0
2024-06-07 20:14:32			0	41681	0	0	0	27041	25530	121261	27022	1018242	41776	110026	0	0	8451	416249	0	0
2024-06-07 20:15:32			0	41685	0	0	0	27075	25550	121357	27138	1018303	41799	110039	0	0	8451	416069	0	0
2024-06-07 20:16:32			0	41662	0	0	0	27096	25580	121273	27180	1018426	41780	110047	0	0	8449	416764	0	0
2024-06-07 20:17:32			0	41664	0	0	0	27127	25610	121289	27163	1018594	41805	110059	0	0	8449	416626	0	0
2024-06-07 20:18:32			0	41673	0	0	0	27161	25640	121229	27100	1018717	41796	110072	0	0	8449	416255	0	0
2024-06-07 20:19:32			0	41659	0	0	0	27174	25670	121257	26819	1018715	41800	110077	0	0	8448	416650	0	0
2024-06-07 20:20:32			0	41667	0	0	0	27174	25670	121241	27116	1018742	41789	110077	0	0	8448	416384	0	0
2024-06-07 20:21:32			0	41670	0	0	0	27174	25690	121201	27185	1018750	41791	110077	0	0	8449	416237	0	0
2024-06-07 20:22:32			0	41650	0	0	0	27145	25680	121145	26870	1018580	41790	110066	0	0	8448	416926	0	0
2024-06-07 20:23:32			0	41646	0	0	0	27111	25690	121145	27248	1018536	41768	110053	0	0	8448	417036	0	0
2024-06-07 20:24:32			0	41659	0	0	0	27064	25670	121149	27235	1018259	41766	110035	0	0	8450	416650	0	0
2024-06-07 20:25:32			0	41682	0	0	0	27010	25640	121181	27222	1017994	41741	110014	0	0	8452	415956	0	0
2024-06-07 20:26:32			0	41680	0	0	0	26955	25610	121185	26996	1017755	41739	109993	0	0	8453	416093	0	0
2024-06-07 20:27:32			0	41685	0	0	0	26898	25560	121133	27291	1017570	41735	109971	0	0	8454	416045	0	0
2024-06-07 20:28:32			0	41690	0	0	0	26851	25540	121113	27223	1017446	41732	109953	0	0	8455	415926	0	0
2024-06-07 20:29:32			0	41696	0	0	0	26812	25500	121145	27059	1017360	41729	109938	0	0	8455	415821	0	0
2024-06-07 20:30:32			0	41678	0	0	0	26805	25500	121301	26987	1017467	41773	109935	0	0	8455	416420	0	0
2024-06-07 20:31:32			0	41701	0	0	0	26810	25500	121133	27244	1017458	41740	109937	0	0	8456	415655	0	0
2024-06-07 20:32:32			0	41710	0	0	0	26797	25490	121121	27038	1017396	41739	109932	0	0	8456	415379	0	0
2024-06-07 20:33:32			0	41722	0	0	0	26794	25470	121225	27448	1017317	41738	109931	0	0	8457	415027	0	0
2024-06-07 20:34:32			0	41715	0	0	0	26786	25460	121145	27078	1017157	41747	109928	0	0	8457	415283	0	0
2024-06-07 20:35:32			0	41729	0	0	0	26763	25440	121181	27178	1017105	41746	109919	0	0	8458	414865	0	0
2024-06-07 20:36:32			0	41734	0	0	0	26745	25430	121149	26958	1017052	41745	109912	0	0	8458	414722	0	0
2024-06-07 20:37:32			0	41726	0	0	0	26732	25400	121137	27384	1016982	41719	109907	0	0	8458	415059	0	0
2024-06-07 20:38:32			0	41717	0	0	0	26724	25400	121113	27256	1017054	41730	109904	0	0	8458	415358	0	0
2024-06-07 20:39:32			0	41720	0	0	0	26740	25400	121089	27033	1017161	41763	109910	0	0	8458	415259	0	0
2024-06-07 20:40:32			0	41677	0	0	0	26771	25410	121101	27189	1017374	41765	109922	0	0	8455	416667	0	0
2024-06-07 20:41:32			0	41719	0	0	0	26792	25430	121221	27161	1017373	41767	109930	0	0	8457	415221	0	0
2024-06-07 20:42:32			0	41690	0	0	0	26805	25440	121253	27060	1017453	41768	109935	0	0	8455	416163	0	0
2024-06-07 20:43:32			0	41710	0	0	0	26815	25440	121301	27013	1017372	41746	109939	0	0	8456	415497	0	0
2024-06-07 20:44:32			0	41712	0	0	0	26799	25440	121241	26868	1017292	41746	109933	0	0	8456	415430	0	0
2024-06-07 20:45:32			0	41702	0	0	0	26758	25430	121209	27199	1017079	41722	109917	0	0	8456	415787	0	0
2024-06-07 20:46:32			0	41697	0	0	0	26701	25400	121229	27229	1016786	41719	109895	0	0	8457	416024	0	0
2024-06-07 20:47:32			0	41719	0	0	0	26636	25360	121253	27324	1016530	41705	109870	0	0	8459	415386	0	0
2024-06-07 20:48:32			0	41699	0	0	0	26574	25320	121273	27045	1016274	41690	109846	0	0	8459	416146	0	0
2024-06-07 20:49:32			0	41715	0	0	0	26519	25280	121305	27045	1016044	41708	109825	0	0	8461	415708	0	0
2024-06-07 20:50:32			0	41715	0	0	0	26485	25260	121289	26960	1016010	41728	109812	0	0	8461	415755	0	0
2024-06-07 20:51:32			0	41716	0	0	0	26451	25220	121269	27059	1015914	41713	109799	0	0	8462	415816	0	0
2024-06-07 20:52:32			0	41700	0	0	0	26425	25180	121309	27175	1015729	41710	109789	0	0	8461	416444	0	0
2024-06-07 20:53:32			0	41715	0	0	0	26381	25160	121273	27005	1015472	41664	109772	0	0	8462	415991	0	0
2024-06-07 20:54:32			0	41713	0	0	0	26345	25120	121265	27086	1015350	41705	109758	0	0	8463	416153	0	0
2024-06-07 20:55:32			0	41723	0	0	0	26327	25090	121381	27433	1015280	41692	109751	0	0	8463	415890	0	0
2024-06-07 20:56:32			0	41718	0	0	0	26298	25060	121381	27514	1015148	41699	109740	0	0	8464	416128	0	0
2024-06-07 20:57:32			0	41698	0	0	0	26285	25040	121389	27145	1015033	41686	109735	0	0	8463	416842	0	0
2024-06-07 20:58:32			0	41705	0	0	0	26275	25010	121349	27204	1014955	41683	109731	0	0	8463	416679	0	0
2024-06-07 20:59:32			0	41712	0	0	0	26259	25000	121421	26913	1014938	41683	109725	0	0	8464	416469	0	0
2024-06-07 21:00:32			0	41721	0	0	0	26241	24970	121381	26975	1014806	41690	109718	0	0	8464	416240	0	0
2024-06-07 21:01:32			0	41714	0	0	0	26231	24970	121493	27124	1014860	41702	109714	0	0	8464	416473	0	0
2024-06-07 21:02:32			0	41700	0	0	0	26238	24960	121449	27060	1014923	41712	109717	0	0	8463	416964	0	0
2024-06-07 21:03:32			0	41706	0	0	0	26251	24960	121465	27168	1014976	41702	109722	0	0	8463	416764	0	0
2024-06-07 21:04:32			0	41697	0	0	0	26288	24970	121489	27222	1015101	41712	109736	0	0	8462	417041	0	0
2024-06-07 21:05:32			0	41691	0	0	0	26319	24980	121457	27152	1015144	41714	109748	0	0	8461	417217	0	0
2024-06-07 21:06:32			0	41717	0	0	0	26329	24990	121441	27339	1015242	41725	109752	0	0	8463	416326	0	0
2024-06-07 21:07:32			0	41701	0	0	0	26340	25000	121493	27000	1015277	41715	109756	0	0	8462	416836	0	0
2024-06-07 21:08:32			0	41687	0	0	0	26348	25000	121389	27121	1015286	41705	109759	0	0	8461	417304	0	0
2024-06-07 21:09:32			0	41677	0	0	0	26361	25010	121501	26961	1015348	41716	109764	0	0	8460	417614	0	0
2024-06-07 21:10:32			0	41694	0	0	0	26366	25000	121433	27109	1015304	41715	109766	0	0	8461	417070	0	0
2024-06-07 21:11:32			0	41695	0	0	0	26373	25010	121425	27033	1015437	41716	109769	0	0	8461	417013	0	0
2024-06-07 21:12:32			0	41688	0	0	0	26394	25010	121509	27239	1015437	41716	109777	0	0	8460	417246	0	0
2024-06-07 21:13:32			0	41683	0	0	0	26410	25010	121473	26838	1015482	41716	109783	0	0	8460	417414	0	0
2024-06-07 21:14:32			0	41672	0	0	0	26436	25030	121469	27053	1015498	41730	109793	0	0	8459	417733	0	0
2024-06-07 21:15:32			0	41661	0	0	0	26438	25060	121445	27171	1015675	41743	109794	0	0	8458	418030	0	0
2024-06-07 21:16:32			0	41679	0	0	0	26470	25060	121489	26979	1015684	41754	109806	0	0	8459	417429	0	0
2024-06-07 21:17:32			0	41693	0	0	0	26503	25080	121561	27086	1015843	41733	109819	0	0	8459	416914	0	0
2024-06-07 21:18:32			0	41665	0	0	0	26516	25090	121489	27123	1015896	41725	109824	0	0	8457	417825	0	0
2024-06-07 21:19:32			0	41669	0	0	0	26545	25100	121513	26934	1015940	41736	109835	0	0	8457	417668	0	0
2024-06-07 21:20:32			0	41671	0	0	0	26548	25110	121557	26785	1016010	41738	109836	0	0	8457	417577	0	0
2024-06-07 21:21:32			0	41678	0	0	0	26574	25140	121505	26996	1016080	41740	109846	0	0	8457	417273	0	0
2024-06-07 21:22:32			0	41683	0	0	0	26589	25140	121489	26956	1016187	41750	109852	0	0	8457	417106	0	0
2024-06-07 21:23:32			0	41679	0	0	0	26605	25160	121513	27003	1016195	41741	109858	0	0	8457	417192	0	0
2024-06-07 21:24:32			0	41675	0	0	0	26625	25160	121505	27053	1016337	41753	109866	0	0	8456	417325	0	0
2024-06-07 21:25:32			0	41660	0	0	0	26625	25190	121477	27170	1016354	41744	109866	0	0	8455	417755	0	0
2024-06-07 21:26:32			0	41662	0	0	0	26633	25200	121505	27078	1016309	41745	109869	0	0	8455	417665	0	0
2024-06-07 21:27:32			0	41666	0	0	0	26628	25200	121489	27015	1016344	41746	109867	0	0	8456	417531	0	0
2024-06-07 21:28:32			0	41669	0	0	0	26620	25200	121457	26710	1016237	41746	109864	0	0	8456	417431	0	0
2024-06-07 21:29:32			0	41651	0	0	0	26602	25200	121453	27050	1016264	41746	109857	0	0	8455	418032	0	0
2024-06-07 21:30:32			0	41670	0	0	0	26597	25200	121421	27019	1016201	41734	109855	0	0	8457	417398	0	0
2024-06-07 21:31:32			0	41670	0	0	0	26581	25200	121365	27020	1016201	41745	109849	0	0	8457	417398	0	0
2024-06-07 21:32:32			0	41693	0	0	0	26568	25180	121517	27010	1016158	41744	109844	0	0	8458	416678	0	0
2024-06-07 21:33:32			0	41666	0	0	0	26545	25180	121413	27355	1016104	41744	109835	0	0	8457	417578	0	0
2024-06-07 21:34:32			0	41675	0	0	0	26537	25170	121425	26968	1016033	41732	109832	0	0	8458	417302	0	0
2024-06-07 21:35:32			0	41672	0	0	0	26524	25160	121413	27152	1015936	41731	109827	0	0	8458	417425	0	0
2024-06-07 21:36:32			0	41697	0	0	0	26498	25150	121425	26984	1015856	41718	109817	0	0	8459	416615	0	0
2024-06-07 21:37:32			0	41710	0	0	0	26480	25140	121425	26972	1015678	41728	109810	0	0	8460	416205	0	0
2024-06-07 21:38:32			0	41699	0	0	0	26446	25120	121445	27227	1015599	41705	109797	0	0	8460	416619	0	0
2024-06-07 21:39:32			0	41707	0	0	0	26428	25100	121441	27209	1015538	41725	109790	0	0	8461	416400	0	0
2024-06-07 21:40:32			0	41710	0	0	0	26386	25090	121437	27308	1015405	41702	109774	0	0	8462	416323	0	0
2024-06-07 21:41:32			0	41710	0	0	0	26332	25050	121377	27150	1015185	41687	109753	0	0	8463	416418	0	0
2024-06-07 21:42:32			0	41694	0	0	0	26251	25030	121413	26965	1014927	41674	109722	0	0	8463	416999	0	0
2024-06-07 21:43:32			0	41735	0	0	0	26189	24980	121441	27100	1014689	41681	109698	0	0	8466	415749	0	0
2024-06-07 21:44:32			0	41717	0	0	0	26122	24950	121473	27246	1014469	41688	109672	0	0	8466	416421	0	0
2024-06-07 21:45:32			0	41745	0	0	0	26067	24910	121425	27083	1014328	41652	109651	0	0	8468	415581	0	0
2024-06-07 21:46:32			0	41757	0	0	0	26002	24860	121345	27234	1014037	41647	109626	0	0	8470	415299	0	0
2024-06-07 21:47:32			0	41744	0	0	0	25940	24830	121445	27272	1013799	41633	109602	0	0	8470	415803	0	0
2024-06-07 21:48:32			0	41742	0	0	0	25893	24780	121421	27244	1013677	41639	109584	0	0	8471	415987	0	0
2024-06-07 21:49:32			0	41758	0	0	0	25862	24750	121417	26991	1013492	41625	109572	0	0	8472	415524	0	0
2024-06-07 21:50:32			0	41762	0	0	0	25851	24730	121433	27157	1013565	41657	109568	0	0	8472	415438	0	0
2024-06-07 21:51:32			0	41783	0	0	0	25854	24710	121425	27131	1013539	41656	109569	0	0	8473	414785	0	0
2024-06-07 21:52:32			0	41780	0	0	0	25846	24690	121413	27135	1013532	41654	109566	0	0	8473	414932	0	0
2024-06-07 21:53:32			0	41782	0	0	0	25846	24680	121385	27017	1013408	41664	109566	0	0	8473	414889	0	0
2024-06-07 21:54:32			0	41787	0	0	0	25820	24670	121397	27147	1013364	41641	109556	0	0	8474	414746	0	0
2024-06-07 21:55:32			0	41800	0	0	0	25805	24650	121421	27388	1013249	41617	109550	0	0	8475	414359	0	0
2024-06-07 21:56:32			0	41791	0	0	0	25776	24630	121501	27093	1013135	41625	109539	0	0	8475	414706	0	0
2024-06-07 21:57:32			0	41774	0	0	0	25748	24600	121437	27256	1013012	41613	109528	0	0	8474	415343	0	0
2024-06-07 21:58:32			0	41793	0	0	0	25729	24580	121473	27326	1012915	41621	109521	0	0	8475	414757	0	0
2024-06-07 21:59:32			0	41812	0	0	0	25709	24550	121457	27033	1012837	41596	109513	0	0	8477	414194	0	0
2024-06-07 22:00:32			0	41796	0	0	0	25701	24530	121465	27199	1012642	41605	109510	0	0	8476	414774	0	0
2024-06-07 22:01:32			0	41808	0	0	0	25675	24500	121353	27327	1012564	41613	109500	0	0	8477	414445	0	0
2024-06-07 22:02:32			0	41801	0	0	0	25659	24470	121481	27301	1012388	41600	109494	0	0	8477	414748	0	0
2024-06-07 22:03:32			0	41813	0	0	0	25641	24450	121517	27076	1012265	41598	109487	0	0	8477	414395	0	0
2024-06-07 22:04:32			0	41813	0	0	0	25631	24420	121561	26996	1012249	41607	109483	0	0	8477	414465	0	0
2024-06-07 22:05:32			0	41802	0	0	0	25607	24400	121469	27237	1012107	41616	109474	0	0	8477	414879	0	0
2024-06-07 22:06:32			0	41819	0	0	0	25586	24370	121481	27131	1011967	41612	109466	0	0	8478	414382	0	0
2024-06-07 22:07:32			0	41841	0	0	0	25568	24350	121497	26786	1011888	41611	109459	0	0	8480	413696	0	0
2024-06-07 22:08:32			0	41809	0	0	0	25558	24330	121489	27137	1011827	41621	109455	0	0	8478	414810	0	0
2024-06-07 22:09:32			0	41841	0	0	0	25553	24310	121449	27334	1011766	41607	109453	0	0	8480	413789	0	0
2024-06-07 22:10:32			0	41848	0	0	0	25542	24290	121597	27237	1011651	41617	109449	0	0	8480	413603	0	0
2024-06-07 22:11:32			0	41836	0	0	0	25527	24290	121493	27398	1011651	41594	109443	0	0	8480	414003	0	0
2024-06-07 22:12:32			0	41839	0	0	0	25519	24260	121653	27085	1011547	41602	109440	0	0	8480	413973	0	0
2024-06-07 22:13:32			0	41839	0	0	0	25511	24240	121501	27310	1011486	41589	109437	0	0	8480	414020	0	0
2024-06-07 22:14:32			0	41841	0	0	0	25509	24230	121473	27298	1011442	41622	109436	0	0	8480	413976	0	0
2024-06-07 22:15:32			0	41866	0	0	0	25493	24220	121469	27352	1011425	41598	109430	0	0	8482	413167	0	0
2024-06-07 22:16:32			0	41834	0	0	0	25501	24200	121517	27367	1011391	41619	109433	0	0	8480	414280	0	0
2024-06-07 22:17:32			0	41838	0	0	0	25493	24200	121545	27327	1011319	41597	109430	0	0	8480	414147	0	0
2024-06-07 22:18:32			0	41837	0	0	0	25480	24190	121513	27298	1011293	41607	109425	0	0	8480	414203	0	0
2024-06-07 22:19:32			0	41835	0	0	0	25480	24180	121629	27144	1011276	41595	109425	0	0	8480	414293	0	0
2024-06-07 22:20:32			0	41796	0	0	0	25470	24170	121677	27187	1011179	41616	109421	0	0	8478	415618	0	0
2024-06-07 22:21:32			0	41768	0	0	0	25459	24150	121701	26897	1011153	41603	109417	0	0	8477	416601	0	0
2024-06-07 22:22:32			0	41784	0	0	0	25459	24140	121669	27353	1011136	41614	109417	0	0	8478	416090	0	0
2024-06-07 22:23:32			0	41782	0	0	0	25451	24140	121761	26911	1011074	41591	109414	0	0	8478	416157	0	0
2024-06-07 22:24:32			0	41768	0	0	0	25446	24120	121809	27137	1011075	41579	109412	0	0	8477	416672	0	0
2024-06-07 22:25:32			0	41746	0	0	0	25438	24110	121873	26906	1010996	41588	109409	0	0	8476	417432	0	0
2024-06-07 22:26:32			0	41712	0	0	0	25438	24100	121925	27128	1011014	41588	109409	0	0	8474	418594	0	0
2024-06-07 22:27:32			0	41693	0	0	0	25418	24100	121925	27147	1011006	41598	109401	0	0	8473	419232	0	0
2024-06-07 22:28:32			0	41664	0	0	0	25423	24080	122029	27218	1010927	41586	109403	0	0	8472	420253	0	0
2024-06-07 22:29:32			0	41662	0	0	0	25428	24090	122045	27289	1010908	41597	109405	0	0	8472	420296	0	0
2024-06-07 22:30:32			0	41664	0	0	0	25428	24080	122041	27085	1011025	41619	109405	0	0	8472	420253	0	0
2024-06-07 22:31:32			0	41642	0	0	0	25436	24080	122217	27020	1011007	41608	109408	0	0	8470	420992	0	0
2024-06-07 22:32:32			0	41636	0	0	0	25449	24090	122209	27135	1011069	41608	109413	0	0	8470	421170	0	0
2024-06-07 22:33:32			0	41627	0	0	0	25459	24100	122261	27001	1011086	41609	109417	0	0	8469	421449	0	0
2024-06-07 22:34:32			0	41591	0	0	0	25464	24090	122401	26972	1011077	41609	109419	0	0	8467	422685	0	0
2024-06-07 22:35:32			0	41578	0	0	0	25449	24080	122437	26824	1010980	41597	109413	0	0	8467	423147	0	0
2024-06-07 22:36:32			0	41567	0	0	0	25394	24070	122421	27168	1010776	41607	109392	0	0	8467	423541	0	0
2024-06-07 22:37:32			0	41581	0	0	0	25353	24070	122417	26989	1010741	41595	109376	0	0	8468	423070	0	0
2024-06-07 22:38:32			0	41546	0	0	0	25335	24060	122437	27020	1010723	41594	109369	0	0	8467	424274	0	0
2024-06-07 22:39:32			0	41545	0	0	0	25340	24040	122473	27088	1010724	41605	109371	0	0	8467	424356	0	0
2024-06-07 22:40:32			0	41527	0	0	0	25361	24050	122489	26987	1010875	41616	109379	0	0	8465	424940	0	0
2024-06-07 22:41:32			0	41538	0	0	0	25379	24050	122489	27171	1010902	41605	109386	0	0	8466	424568	0	0
2024-06-07 22:42:32			0	41508	0	0	0	25394	24050	122569	27161	1010902	41593	109392	0	0	8464	425582	0	0
2024-06-07 22:43:32			0	41498	0	0	0	25407	24060	122549	27060	1010910	41606	109397	0	0	8463	425896	0	0
2024-06-07 22:44:32			0	41488	0	0	0	25410	24050	122565	26722	1010822	41593	109398	0	0	8463	426258	0	0
2024-06-07 22:45:32			0	41479	0	0	0	25407	24050	122677	27142	1010902	41593	109397	0	0	8462	426563	0	0
2024-06-07 22:46:32			0	41474	0	0	0	25418	24060	122657	27145	1010973	41618	109401	0	0	8462	426708	0	0
2024-06-07 22:47:32			0	41457	0	0	0	25431	24070	122673	26972	1011043	41619	109406	0	0	8461	427259	0	0
2024-06-07 22:48:32			0	41457	0	0	0	25459	24090	122685	27256	1011184	41642	109417	0	0	8460	427211	0	0
2024-06-07 22:49:32			0	41435	0	0	0	25480	24100	122701	27007	1011281	41632	109425	0	0	8459	427932	0	0
2024-06-07 22:50:32			0	41430	0	0	0	25511	24120	122645	27031	1011423	41634	109437	0	0	8458	428054	0	0
2024-06-07 22:51:32			0	41395	0	0	0	25540	24150	122820	27357	1011572	41636	109448	0	0	8456	429168	0	0
2024-06-07 22:52:32			0	41400	0	0	0	25558	24160	122744	27376	1011544	41637	109455	0	0	8456	428974	0	0
2024-06-07 22:53:32			0	41377	0	0	0	25563	24180	122872	26925	1011623	41639	109457	0	0	8455	429707	0	0
2024-06-07 22:54:32			0	41372	0	0	0	25571	24190	122864	27097	1011721	41629	109460	0	0	8454	429852	0	0
2024-06-07 22:55:32			0	41346	0	0	0	25579	24200	122968	27197	1011666	41630	109463	0	0	8453	430711	0	0
2024-06-07 22:56:32			0	41344	0	0	0	25579	24190	122840	27036	1011641	41607	109463	0	0	8453	430804	0	0
2024-06-07 22:57:32			0	41359	0	0	0	25563	24200	123020	27329	1011524	41608	109457	0	0	8454	430270	0	0
2024-06-07 22:58:32			0	41317	0	0	0	25558	24200	122972	27248	1011498	41608	109455	0	0	8452	431698	0	0
2024-06-07 22:59:32			0	41321	0	0	0	25550	24190	122992	26857	1011489	41618	109452	0	0	8452	431586	0	0
2024-06-07 23:00:32			0	41312	0	0	0	25555	24190	122940	26870	1011427	41618	109454	0	0	8451	431892	0	0
2024-06-07 23:01:32			0	41309	0	0	0	25558	24180	122968	27326	1011445	41607	109455	0	0	8451	432019	0	0
2024-06-07 23:02:32			0	41292	0	0	0	25545	24180	123036	27187	1011445	41629	109450	0	0	8450	432598	0	0
2024-06-07 23:03:32			0	41297	0	0	0	25550	24180	123072	27090	1011490	41617	109452	0	0	8451	432428	0	0
2024-06-07 23:04:32			0	41290	0	0	0	25563	24180	123032	27220	1011498	41629	109457	0	0	8450	432666	0	0
2024-06-07 23:05:32			0	41280	0	0	0	25555	24170	123036	27348	1011508	41627	109454	0	0	8450	433031	0	0
2024-06-07 23:06:32			0	41271	0	0	0	25563	24190	123128	27069	1011507	41629	109457	0	0	8449	433289	0	0
2024-06-07 23:07:32			0	41266	0	0	0	25573	24190	123164	27007	1011569	41640	109461	0	0	8449	433460	0	0
2024-06-07 23:08:32			0	41255	0	0	0	25584	24210	123128	27261	1011648	41630	109465	0	0	8448	433786	0	0
2024-06-07 23:09:32			0	41241	0	0	0	25612	24210	123216	27282	1011729	41630	109476	0	0	8447	434264	0	0
2024-06-07 23:10:32			0	41233	0	0	0	25638	24230	123152	26890	1011843	41632	109486	0	0	8446	434488	0	0
2024-06-07 23:11:32			0	41242	0	0	0	25646	24250	123224	27072	1011984	41635	109489	0	0	8446	434132	0	0
2024-06-07 23:12:32			0	41240	0	0	0	25677	24250	123196	27364	1011993	41635	109501	0	0	8446	434200	0	0
2024-06-07 23:13:32			0	41193	0	0	0	25693	24260	123244	27150	1012010	41647	109507	0	0	8443	435781	0	0
2024-06-07 23:14:32			0	41223	0	0	0	25685	24280	123308	27005	1012062	41637	109504	0	0	8445	434707	0	0
2024-06-07 23:15:32			0	41197	0	0	0	25675	24300	123220	27135	1012132	41628	109500	0	0	8444	435546	0	0
2024-06-07 23:16:32			0	41198	0	0	0	25659	24300	123256	27093	1012159	41639	109494	0	0	8444	435512	0	0
2024-06-07 23:17:32			0	41208	0	0	0	25644	24300	123276	27230	1012052	41628	109488	0	0	8445	435170	0	0
2024-06-07 23:18:32			0	41189	0	0	0	25633	24300	123328	27104	1011936	41617	109484	0	0	8444	435819	0	0
2024-06-07 23:19:32			0	41182	0	0	0	25612	24290	123404	27336	1011865	41617	109476	0	0	8444	436083	0	0
2024-06-07 23:20:32			0	41191	0	0	0	25597	24300	123368	26968	1011829	41617	109470	0	0	8445	435751	0	0
2024-06-07 23:21:32			0	41174	0	0	0	25589	24290	123288	27190	1011838	41638	109467	0	0	8444	436357	0	0
2024-06-07 23:22:32			0	41180	0	0	0	25579	24280	123368	27275	1011768	41615	109463	0	0	8444	436176	0	0
2024-06-07 23:23:32			0	41172	0	0	0	25573	24250	123376	27274	1011743	41613	109461	0	0	8444	436524	0	0
2024-06-07 23:24:32			0	41183	0	0	0	25558	24240	123348	27367	1011593	41611	109455	0	0	8445	436172	0	0
2024-06-07 23:25:32			0	41149	0	0	0	25540	24220	123424	27322	1011514	41599	109448	0	0	8443	437386	0	0
2024-06-07 23:26:32			0	41152	0	0	0	25529	24210	123480	27312	1011461	41597	109444	0	0	8443	437307	0	0
2024-06-07 23:27:32			0	41146	0	0	0	25524	24200	123436	27350	1011391	41608	109442	0	0	8443	437538	0	0
2024-06-07 23:28:32			0	41136	0	0	0	25511	24190	123432	27230	1011355	41618	109437	0	0	8443	437905	0	0
2024-06-07 23:29:32			0	41146	0	0	0	25516	24180	123444	27083	1011329	41606	109439	0	0	8443	437587	0	0
2024-06-07 23:30:32			0	41116	0	0	0	25503	24170	123552	26989	1011348	41616	109434	0	0	8442	438641	0	0
2024-06-07 23:31:32			0	41133	0	0	0	25496	24170	123508	27092	1011286	41616	109431	0	0	8443	438058	0	0
2024-06-07 23:32:32			0	41142	0	0	0	25488	24160	123500	26965	1011250	41626	109428	0	0	8443	437774	0	0
2024-06-07 23:33:32			0	41146	0	0	0	25485	24150	123480	27279	1011225	41615	109427	0	0	8444	437661	0	0
2024-06-07 23:34:32			0	41149	0	0	0	25493	24150	123444	27072	1011278	41615	109430	0	0	8444	437558	0	0
2024-06-07 23:35:32			0	41140	0	0	0	25496	24150	123592	27062	1011251	41625	109431	0	0	8443	437867	0	0
2024-06-07 23:36:32			0	41120	0	0	0	25485	24140	123504	26934	1011208	41625	109427	0	0	8442	438578	0	0
2024-06-07 23:37:32			0	41111	0	0	0	25496	24140	123612	27133	1011154	41625	109431	0	0	8441	438887	0	0
2024-06-07 23:38:32			0	41112	0	0	0	25493	24140	123604	27343	1011234	41602	109430	0	0	8442	438852	0	0
2024-06-07 23:39:32			0	41117	0	0	0	25490	24120	123580	27230	1011182	41623	109429	0	0	8442	438730	0	0
2024-06-07 23:40:32			0	41114	0	0	0	25488	24130	123624	27206	1011191	41612	109428	0	0	8442	438808	0	0
2024-06-07 23:41:32			0	41112	0	0	0	25488	24130	123600	27237	1011164	41612	109428	0	0	8442	438877	0	0
2024-06-07 23:42:32			0	41109	0	0	0	25488	24120	123632	26764	1011182	41612	109428	0	0	8441	439005	0	0
2024-06-07 23:43:32			0	41127	0	0	0	25490	24120	123676	26987	1011209	41623	109429	0	0	8442	438387	0	0
2024-06-07 23:44:32			0	41098	0	0	0	25506	24130	123628	26864	1011279	41634	109435	0	0	8441	439358	0	0
2024-06-07 23:45:32			0	41120	0	0	0	25514	24140	123580	27268	1011368	41625	109438	0	0	8442	438578	0	0
2024-06-07 23:46:32			0	41109	0	0	0	25535	24150	123656	26972	1011447	41625	109446	0	0	8441	438930	0	0
2024-06-07 23:47:32			0	41099	0	0	0	25548	24160	123668	27229	1011437	41616	109451	0	0	8440	439249	0	0
2024-06-07 23:48:32			0	41089	0	0	0	25548	24160	123620	26838	1011482	41637	109451	0	0	8440	439592	0	0
2024-06-07 23:49:32			0	41095	0	0	0	25561	24160	123596	26923	1011571	41637	109456	0	0	8440	439386	0	0
2024-06-07 23:50:32			0	41110	0	0	0	25573	24180	123700	26779	1011677	41650	109461	0	0	8440	438822	0	0
2024-06-07 23:51:32			0	41083	0	0	0	25602	24210	123676	26812	1011942	41664	109472	0	0	8439	439675	0	0
2024-06-07 23:52:32			0	41081	0	0	0	25620	24220	123648	26958	1011941	41644	109479	0	0	8438	439718	0	0
2024-06-07 23:53:32			0	41062	0	0	0	25646	24250	123612	26993	1012118	41658	109489	0	0	8437	440297	0	0
2024-06-07 23:54:32			0	41075	0	0	0	25672	24280	123656	27227	1012311	41671	109499	0	0	8437	439776	0	0
2024-06-07 23:55:32			0	41070	0	0	0	25711	24310	123656	27024	1012435	41663	109514	0	0	8436	439873	0	0
2024-06-07 23:56:32			0	41061	0	0	0	25742	24340	123572	27036	1012558	41666	109526	0	0	8435	440107	0	0
2024-06-07 23:57:32			0	41072	0	0	0	25748	24360	123592	27275	1012485	41645	109528	0	0	8436	439680	0	0
2024-06-07 23:58:32			0	41077	0	0	0	25729	24370	123568	27284	1012342	41634	109521	0	0	8437	439483	0	0
2024-06-07 23:59:32			0	41066	0	0	0	25696	24350	123576	27300	1012227	41610	109508	0	0	8437	439911	0	0
2024-06-08 00:00:32			0	41073	0	0	0	25667	24330	123552	27422	1012095	41621	109497	0	0	8437	439720	0	0
2024-06-08 00:01:32			0	41056	0	0	0	25631	24320	123576	27173	1011909	41597	109483	0	0	8437	440329	0	0
2024-06-08 00:02:32			0	41063	0	0	0	25610	24290	123556	27235	1011820	41617	109475	0	0	8438	440163	0	0
2024-06-08 00:03:32			0	41057	0	0	0	25581	24270	123592	27076	1011679	41615	109464	0	0	8438	440419	0	0
2024-06-08 00:04:32			0	41083	0	0	0	25568	24250	123584	27024	1011583	41625	109459	0	0	8439	439575	0	0
2024-06-08 00:05:32			0	41067	0	0	0	25550	24240	123600	27048	1011619	41611	109452	0	0	8439	440150	0	0
2024-06-08 00:06:32			0	41070	0	0	0	25540	24230	123620	27008	1011495	41611	109448	0	0	8439	440072	0	0
2024-06-08 00:07:32			0	41069	0	0	0	25532	24220	123612	27237	1011540	41611	109445	0	0	8439	440131	0	0
2024-06-08 00:08:32			0	41066	0	0	0	25511	24200	123636	27159	1011453	41620	109437	0	0	8439	440284	0	0
2024-06-08 00:09:32			0	41072	0	0	0	25503	24180	123668	27279	1011391	41607	109434	0	0	8439	440127	0	0
2024-06-08 00:10:32			0	41085	0	0	0	25496	24180	123728	27293	1011311	41607	109431	0	0	8440	439680	0	0
2024-06-08 00:11:32			0	41088	0	0	0	25480	24160	123676	27282	1011277	41604	109425	0	0	8441	439627	0	0
2024-06-08 00:12:32			0	41078	0	0	0	25475	24160	123712	27150	1011197	41626	109423	0	0	8440	439970	0	0
2024-06-08 00:13:32			0	41061	0	0	0	25467	24140	123740	27319	1011163	41614	109420	0	0	8439	440605	0	0
2024-06-08 00:14:32			0	41081	0	0	0	25457	24140	123692	27005	1011127	41602	109416	0	0	8441	439917	0	0
2024-06-08 00:15:32			0	41084	0	0	0	25438	24110	123660	27170	1011005	41600	109409	0	0	8441	439888	0	0
2024-06-08 00:16:32			0	41097	0	0	0	25420	24110	123668	27189	1010943	41610	109402	0	0	8442	439442	0	0
2024-06-08 00:17:32			0	41061	0	0	0	25412	24090	123664	27260	1010908	41608	109399	0	0	8440	440729	0	0
2024-06-08 00:18:32			0	41082	0	0	0	25397	24090	123700	27412	1010855	41597	109393	0	0	8441	440007	0	0
2024-06-08 00:19:32			0	41075	0	0	0	25379	24070	123704	27246	1010856	41596	109386	0	0	8441	440297	0	0
2024-06-08 00:20:32			0	41069	0	0	0	25376	24060	123712	27268	1010750	41606	109385	0	0	8441	440528	0	0
2024-06-08 00:21:32			0	41081	0	0	0	25366	24050	123680	27312	1010715	41593	109381	0	0	8442	440140	0	0
2024-06-08 00:22:32			0	41075	0	0	0	25355	24030	123752	27111	1010743	41615	109377	0	0	8442	440396	0	0
2024-06-08 00:23:32			0	41074	0	0	0	25358	24020	123736	27064	1010672	41603	109378	0	0	8441	440456	0	0
2024-06-08 00:24:32			0	41085	0	0	0	25368	24030	123660	27038	1010681	41603	109382	0	0	8442	440052	0	0
2024-06-08 00:25:32			0	41087	0	0	0	25366	24020	123780	26991	1010717	41602	109381	0	0	8442	440008	0	0
2024-06-08 00:26:32			0	41091	0	0	0	25361	24020	123700	27026	1010663	41602	109379	0	0	8442	439871	0	0
2024-06-08 00:27:32			0	41075	0	0	0	25337	24000	123688	26915	1010504	41601	109370	0	0	8442	440471	0	0
2024-06-08 00:28:32			0	41087	0	0	0	25319	23990	123664	27345	1010487	41600	109363	0	0	8443	440083	0	0
2024-06-08 00:29:32			0	41081	0	0	0	25301	23990	123696	27291	1010487	41600	109356	0	0	8443	440289	0	0
2024-06-08 00:30:32			0	41093	0	0	0	25314	23980	123720	27026	1010488	41598	109361	0	0	8443	439901	0	0
2024-06-08 00:31:32			0	41105	0	0	0	25303	23970	123812	26974	1010418	41598	109357	0	0	8444	439514	0	0
2024-06-08 00:32:32			0	41085	0	0	0	25298	23960	123708	26935	1010409	41597	109355	0	0	8443	440226	0	0
2024-06-08 00:33:32			0	41076	0	0	0	25275	23960	123792	27020	1010267	41597	109346	0	0	8443	440536	0	0
2024-06-08 00:34:32			0	41066	0	0	0	25257	23950	123764	27048	1010223	41584	109339	0	0	8442	440905	0	0
2024-06-08 00:35:32			0	41084	0	0	0	25264	23940	123828	27242	1010242	41595	109342	0	0	8443	440310	0	0
2024-06-08 00:36:32			0	41078	0	0	0	25262	23940	123796	27102	1010340	41595	109341	0	0	8443	440517	0	0
2024-06-08 00:37:32			0	41075	0	0	0	25259	23930	123796	27443	1010269	41594	109340	0	0	8443	440645	0	0
2024-06-08 00:38:32			0	41081	0	0	0	25264	23930	123880	27007	1010349	41594	109342	0	0	8443	440438	0	0
2024-06-08 00:39:32			0	41107	0	0	0	25277	23930	123864	27261	1010411	41594	109347	0	0	8444	439544	0	0
2024-06-08 00:40:32			0	41100	0	0	0	25293	23940	123868	27260	1010367	41595	109353	0	0	8444	439760	0	0
2024-06-08 00:41:32			0	41089	0	0	0	25309	23940	123848	26757	1010429	41606	109359	0	0	8443	440138	0	0
2024-06-08 00:42:32			0	41088	0	0	0	25322	23950	123840	27296	1010437	41618	109364	0	0	8442	440148	0	0
2024-06-08 00:43:32			0	41083	0	0	0	25335	23960	123868	27209	1010561	41608	109369	0	0	8442	440295	0	0
2024-06-08 00:44:32			0	41083	0	0	0	25342	23960	123800	27090	1010570	41597	109372	0	0	8442	440295	0	0
2024-06-08 00:45:32			0	41073	0	0	0	25353	23960	123852	27255	1010570	41608	109376	0	0	8441	440639	0	0
2024-06-08 00:46:32			0	41076	0	0	0	25358	23960	123836	27348	1010508	41619	109378	0	0	8441	440536	0	0
2024-06-08 00:47:32			0	41091	0	0	0	25361	23970	123780	27166	1010560	41610	109379	0	0	8442	439995	0	0
2024-06-08 00:48:32			0	41095	0	0	0	25358	23970	123848	26942	1010587	41598	109378	0	0	8442	439857	0	0
2024-06-08 00:49:32			0	41080	0	0	0	25368	23970	123832	27008	1010605	41609	109382	0	0	8441	440373	0	0
2024-06-08 00:50:32			0	41097	0	0	0	25371	23980	123772	26977	1010595	41610	109383	0	0	8442	439764	0	0
2024-06-08 00:51:32			0	41086	0	0	0	25366	23970	123792	27121	1010605	41609	109381	0	0	8442	440167	0	0
2024-06-08 00:52:32			0	41081	0	0	0	25366	23970	123772	26982	1010560	41610	109381	0	0	8441	440339	0	0
2024-06-08 00:53:32			0	41102	0	0	0	25371	23970	123792	27067	1010613	41621	109383	0	0	8442	439617	0	0
2024-06-08 00:54:32			0	41102	0	0	0	25358	23970	123812	27206	1010551	41609	109378	0	0	8443	439617	0	0
2024-06-08 00:55:32			0	41094	0	0	0	25358	23980	123768	27209	1010542	41610	109378	0	0	8442	439867	0	0
2024-06-08 00:56:32			0	41107	0	0	0	25353	23960	123708	27594	1010516	41597	109376	0	0	8443	439470	0	0
2024-06-08 00:57:32			0	41093	0	0	0	25342	23970	123736	27339	1010506	41598	109372	0	0	8442	439926	0	0
2024-06-08 00:58:32			0	41082	0	0	0	25345	23960	123840	27319	1010543	41597	109373	0	0	8442	440329	0	0
2024-06-08 00:59:32			0	41086	0	0	0	25332	23960	123836	27024	1010481	41608	109368	0	0	8442	440192	0	0
2024-06-08 01:00:32			0	41100	0	0	0	25337	23960	123836	27338	1010454	41608	109370	0	0	8443	439710	0	0
2024-06-08 01:01:32			0	41073	0	0	0	25337	23960	123912	27310	1010436	41608	109370	0	0	8441	440639	0	0
2024-06-08 01:02:32			0	41067	0	0	0	25337	23960	123852	27443	1010454	41608	109370	0	0	8441	440846	0	0
2024-06-08 01:03:32			0	41090	0	0	0	25337	23960	123888	27258	1010454	41608	109370	0	0	8442	440054	0	0
2024-06-08 01:04:32			0	41064	0	0	0	25332	23950	123832	27433	1010410	41618	109368	0	0	8441	440974	0	0
2024-06-08 01:05:32			0	41055	0	0	0	25342	23950	123904	27287	1010437	41618	109372	0	0	8440	441284	0	0
2024-06-08 01:06:32			0	41042	0	0	0	25335	23950	123888	26998	1010499	41619	109369	0	0	8440	441731	0	0
2024-06-08 01:07:32			0	41071	0	0	0	25348	23950	123920	27227	1010499	41608	109374	0	0	8441	440733	0	0
2024-06-08 01:08:32			0	41041	0	0	0	25345	23950	123904	26989	1010437	41596	109373	0	0	8440	441766	0	0
2024-06-08 01:09:32			0	41031	0	0	0	25342	23950	123924	27130	1010526	41619	109372	0	0	8439	442111	0	0
2024-06-08 01:10:32			0	41036	0	0	0	25348	23950	124004	27263	1010446	41619	109374	0	0	8439	441938	0	0
2024-06-08 01:11:32			0	41022	0	0	0	25358	23960	124008	27071	1010489	41619	109378	0	0	8438	442396	0	0
2024-06-08 01:12:32			0	40989	0	0	0	25348	23960	124064	27100	1010516	41608	109374	0	0	8437	443535	0	0
2024-06-08 01:13:32			0	40991	0	0	0	25350	23960	124120	27131	1010534	41619	109375	0	0	8437	443466	0	0
2024-06-08 01:14:32			0	40989	0	0	0	25358	23960	124200	27241	1010508	41619	109378	0	0	8437	443535	0	0
2024-06-08 01:15:32			0	40974	0	0	0	25361	23960	124232	26899	1010543	41597	109379	0	0	8436	444053	0	0
2024-06-08 01:16:32			0	40962	0	0	0	25363	23960	124220	27346	1010543	41608	109380	0	0	8435	444468	0	0
2024-06-08 01:17:32			0	40942	0	0	0	25363	23960	124336	27357	1010543	41608	109380	0	0	8434	445159	0	0
2024-06-08 01:18:32			0	40922	0	0	0	25355	23960	124316	27114	1010508	41619	109377	0	0	8433	445851	0	0
2024-06-08 01:19:32			0	40925	0	0	0	25358	23960	124228	26989	1010489	41619	109378	0	0	8433	445748	0	0
2024-06-08 01:20:32			0	40929	0	0	0	25355	23960	124412	26958	1010481	41619	109377	0	0	8434	445609	0	0
2024-06-08 01:21:32			0	40891	0	0	0	25345	23960	124440	27216	1010489	41608	109373	0	0	8432	446926	0	0
2024-06-08 01:22:32			0	40895	0	0	0	25350	23960	124432	26887	1010543	41630	109375	0	0	8432	446787	0	0
2024-06-08 01:23:32			0	40876	0	0	0	25348	23960	124428	27081	1010588	41619	109374	0	0	8431	447446	0	0
2024-06-08 01:24:32			0	40870	0	0	0	25358	23960	124500	27156	1010489	41619	109378	0	0	8430	447654	0	0
2024-06-08 01:25:32			0	40863	0	0	0	25355	23960	124528	26873	1010454	41597	109377	0	0	8430	447897	0	0
2024-06-08 01:26:32			0	40854	0	0	0	25350	23960	124488	27138	1010454	41630	109375	0	0	8430	448209	0	0
2024-06-08 01:27:32			0	40849	0	0	0	25353	23960	124576	27111	1010508	41608	109376	0	0	8429	448383	0	0
2024-06-08 01:28:32			0	40823	0	0	0	25363	23950	124600	27313	1010517	41618	109380	0	0	8428	449311	0	0
2024-06-08 01:29:32			0	40811	0	0	0	25358	23960	124624	26949	1010561	41619	109378	0	0	8427	449703	0	0
2024-06-08 01:30:32			0	40827	0	0	0	25363	23950	124580	27154	1010499	41630	109380	0	0	8428	449172	0	0
2024-06-08 01:31:32			0	40803	0	0	0	25368	23960	124636	27204	1010516	41619	109382	0	0	8427	449981	0	0
2024-06-08 01:32:32			0	40792	0	0	0	25366	23960	124648	27109	1010481	41630	109381	0	0	8426	450364	0	0
2024-06-08 01:33:32			0	40774	0	0	0	25368	23960	124736	26965	1010570	41630	109382	0	0	8425	450991	0	0
2024-06-08 01:34:32			0	40775	0	0	0	25371	23960	124648	26920	1010570	41608	109383	0	0	8425	450956	0	0
2024-06-08 01:35:32			0	40780	0	0	0	25361	23970	124704	27133	1010498	41642	109379	0	0	8426	450757	0	0
2024-06-08 01:36:32			0	40779	0	0	0	25366	23970	124740	27098	1010613	41631	109381	0	0	8426	450792	0	0
2024-06-08 01:37:32			0	40767	0	0	0	25363	23970	124735	27374	1010551	41620	109380	0	0	8425	451210	0	0
2024-06-08 01:38:32			0	40748	0	0	0	25366	23970	124811	26923	1010551	41620	109381	0	0	8424	451872	0	0
2024-06-08 01:39:32			0	40747	0	0	0	25371	23960	124771	27033	1010543	41619	109383	0	0	8424	451932	0	0
2024-06-08 01:40:32			0	40743	0	0	0	25368	23970	124755	26694	1010605	41609	109382	0	0	8424	452046	0	0
2024-06-08 01:41:32			0	40738	0	0	0	25366	23960	124911	27020	1010650	41619	109381	0	0	8423	452246	0	0
2024-06-08 01:42:32			0	40733	0	0	0	25376	23970	124795	27144	1010613	41610	109385	0	0	8423	452395	0	0
2024-06-08 01:43:32			0	40736	0	0	0	25376	23980	124811	27081	1010649	41621	109385	0	0	8423	452265	0	0
2024-06-08 01:44:32			0	40718	0	0	0	25384	23990	124927	26909	1010612	41632	109388	0	0	8422	452867	0	0
2024-06-08 01:45:32			0	40729	0	0	0	25386	23990	124867	26951	1010746	41632	109389	0	0	8423	452483	0	0
2024-06-08 01:46:32			0	40717	0	0	0	25399	24000	124799	26932	1010710	41633	109394	0	0	8422	452877	0	0
2024-06-08 01:47:32			0	40708	0	0	0	25407	23990	124931	27265	1010754	41644	109397	0	0	8421	453216	0	0
2024-06-08 01:48:32			0	40705	0	0	0	25412	24010	124951	26930	1010807	41634	109399	0	0	8421	453270	0	0
2024-06-08 01:49:32			0	40702	0	0	0	25410	24010	124955	27152	1010815	41635	109398	0	0	8421	453375	0	0
2024-06-08 01:50:32			0	40702	0	0	0	25420	24010	124991	27232	1010780	41634	109402	0	0	8421	453375	0	0
2024-06-08 01:51:32			0	40691	0	0	0	25418	24020	124995	27445	1010797	41625	109401	0	0	8420	453733	0	0
2024-06-08 01:52:32			0	40677	0	0	0	25420	24010	124967	27428	1010789	41625	109402	0	0	8420	454248	0	0
2024-06-08 01:53:32			0	40671	0	0	0	25410	24020	124959	27263	1010779	41636	109398	0	0	8419	454432	0	0
2024-06-08 01:54:32			0	40664	0	0	0	25410	24010	125067	27227	1010780	41624	109398	0	0	8419	454703	0	0
2024-06-08 01:55:32			0	40669	0	0	0	25418	24010	125063	27268	1010753	41624	109401	0	0	8419	454528	0	0
2024-06-08 01:56:32			0	40678	0	0	0	25418	24010	124995	27133	1010780	41624	109401	0	0	8420	454213	0	0
2024-06-08 01:57:32			0	40625	0	0	0	25405	24020	125087	27426	1010797	41613	109396	0	0	8417	456042	0	0
2024-06-08 01:58:32			0	40665	0	0	0	25405	24020	125135	27258	1010663	41625	109396	0	0	8419	454642	0	0
2024-06-08 01:59:32			0	40649	0	0	0	25407	24020	125051	27123	1010851	41635	109397	0	0	8418	455202	0	0
2024-06-08 02:00:32			0	40652	0	0	0	25399	24020	125095	27291	1010779	41636	109394	0	0	8419	455097	0	0
2024-06-08 02:01:32			0	40646	0	0	0	25399	24020	124991	27147	1010851	41635	109394	0	0	8418	455307	0	0
2024-06-08 02:02:32			0	40645	0	0	0	25402	24020	125055	27358	1010744	41625	109395	0	0	8418	455342	0	0
2024-06-08 02:03:32			0	40669	0	0	0	25397	24020	125071	27324	1010806	41625	109393	0	0	8420	454502	0	0
2024-06-08 02:04:32			0	40641	0	0	0	25397	24010	125015	27102	1010815	41635	109393	0	0	8418	455508	0	0
2024-06-08 02:05:32			0	40653	0	0	0	25394	24020	125059	27227	1010770	41613	109392	0	0	8419	455062	0	0
2024-06-08 02:06:32			0	40645	0	0	0	25399	24010	125071	27260	1010735	41625	109394	0	0	8418	455368	0	0
2024-06-08 02:07:32			0	40627	0	0	0	25392	24010	125063	26925	1010735	41625	109391	0	0	8417	455998	0	0
2024-06-08 02:08:32			0	40638	0	0	0	25397	24000	125079	27204	1010798	41624	109393	0	0	8418	455639	0	0
2024-06-08 02:09:32			0	40624	0	0	0	25402	24000	125095	27170	1010691	41624	109395	0	0	8417	456129	0	0
2024-06-08 02:10:32			0	40647	0	0	0	25397	24010	125143	27199	1010780	41645	109393	0	0	8418	455298	0	0
2024-06-08 02:11:32			0	40625	0	0	0	25410	24030	125123	27294	1010787	41636	109398	0	0	8417	456017	0	0
2024-06-08 02:12:32			0	40642	0	0	0	25402	24010	125099	27142	1010780	41634	109395	0	0	8418	455473	0	0
2024-06-08 02:13:32			0	40648	0	0	0	25405	24010	125059	27388	1010807	41612	109396	0	0	8418	455263	0	0
2024-06-08 02:14:32			0	40653	0	0	0	25410	24020	125087	27118	1010779	41614	109398	0	0	8418	455062	0	0
2024-06-08 02:15:32			0	40635	0	0	0	25405	24010	125183	27046	1010762	41613	109396	0	0	8418	455718	0	0
2024-06-08 02:16:32			0	40640	0	0	0	25412	24020	125151	27448	1010797	41635	109399	0	0	8418	455517	0	0
2024-06-08 02:17:32			0	40641	0	0	0	25402	24010	125147	27326	1010762	41625	109395	0	0	8418	455508	0	0
2024-06-08 02:18:32			0	40634	0	0	0	25397	24010	125131	27116	1010762	41625	109393	0	0	8418	455753	0	0
2024-06-08 02:19:32			0	40628	0	0	0	25392	24000	125147	27296	1010656	41623	109391	0	0	8417	455989	0	0
2024-06-08 02:20:32			0	40642	0	0	0	25405	24000	125135	27315	1010771	41624	109396	0	0	8418	455499	0	0
2024-06-08 02:21:32			0	40624	0	0	0	25389	24000	125103	27348	1010763	41623	109390	0	0	8417	456129	0	0
2024-06-08 02:22:32			0	40619	0	0	0	25392	24000	125139	27284	1010683	41623	109391	0	0	8417	456304	0	0
2024-06-08 02:23:32			0	40635	0	0	0	25392	24000	125147	27258	1010745	41624	109391	0	0	8418	455744	0	0
2024-06-08 02:24:32			0	40641	0	0	0	25397	24010	125059	27131	1010789	41635	109393	0	0	8418	455508	0	0
2024-06-08 02:25:32			0	40647	0	0	0	25407	24010	125099	27447	1010807	41634	109397	0	0	8418	455298	0	0
2024-06-08 02:26:32			0	40642	0	0	0	25425	24020	125067	27012	1010824	41625	109404	0	0	8418	455447	0	0
2024-06-08 02:27:32			0	40637	0	0	0	25431	24020	125031	27173	1010913	41647	109406	0	0	8417	455622	0	0
2024-06-08 02:28:32			0	40634	0	0	0	25436	24030	125051	26904	1010903	41625	109408	0	0	8417	455701	0	0
2024-06-08 02:29:32			0	40651	0	0	0	25449	24030	125051	27126	1010956	41637	109413	0	0	8418	455106	0	0
2024-06-08 02:30:32			0	40631	0	0	0	25444	24030	125111	27471	1010921	41636	109411	0	0	8417	455807	0	0
2024-06-08 02:31:32			0	40661	0	0	0	25457	24040	125071	27095	1010938	41638	109416	0	0	8418	454731	0	0
2024-06-08 02:32:32			0	40639	0	0	0	25459	24040	125115	27357	1010992	41638	109417	0	0	8417	455501	0	0
2024-06-08 02:33:32			0	40638	0	0	0	25470	24050	125023	27130	1010973	41638	109421	0	0	8417	455510	0	0
2024-06-08 02:34:32			0	40620	0	0	0	25480	24060	125035	27301	1011080	41651	109425	0	0	8416	456115	0	0
2024-06-08 02:35:32			0	40634	0	0	0	25475	24060	125031	27313	1011071	41650	109423	0	0	8417	455624	0	0
2024-06-08 02:36:32			0	40639	0	0	0	25488	24070	124995	27358	1011070	41629	109428	0	0	8417	455424	0	0
2024-06-08 02:37:32			0	40630	0	0	0	25488	24070	124975	27426	1011061	41639	109428	0	0	8416	455739	0	0
2024-06-08 02:38:32			0	40652	0	0	0	25496	24070	125019	27045	1011088	41639	109431	0	0	8417	454969	0	0
2024-06-08 02:39:32			0	40652	0	0	0	25477	24070	125003	27119	1011061	41628	109424	0	0	8417	454969	0	0
2024-06-08 02:40:32			0	40667	0	0	0	25480	24080	125055	27256	1011052	41652	109425	0	0	8418	454419	0	0
2024-06-08 02:41:32			0	40652	0	0	0	25477	24070	125015	27253	1011061	41628	109424	0	0	8417	454969	0	0
2024-06-08 02:42:32			0	40646	0	0	0	25472	24070	125007	27161	1011043	41640	109422	0	0	8417	455179	0	0
2024-06-08 02:43:32			0	40645	0	0	0	25477	24070	124959	27249	1011070	41640	109424	0	0	8417	455214	0	0
2024-06-08 02:44:32			0	40640	0	0	0	25470	24070	124967	27112	1011070	41640	109421	0	0	8417	455389	0	0
2024-06-08 02:45:32			0	40669	0	0	0	25470	24070	125027	27403	1011043	41640	109421	0	0	8418	454374	0	0
2024-06-08 02:46:32			0	40655	0	0	0	25467	24070	124971	27095	1011043	41640	109420	0	0	8418	454864	0	0
2024-06-08 02:47:32			0	40649	0	0	0	25470	24060	124923	27171	1010991	41627	109421	0	0	8417	455099	0	0
2024-06-08 02:48:32			0	40668	0	0	0	25467	24070	124975	27275	1011016	41652	109420	0	0	8418	454409	0	0
2024-06-08 02:49:32			0	40652	0	0	0	25470	24070	124951	26937	1011088	41639	109421	0	0	8418	454969	0	0
2024-06-08 02:50:32			0	40676	0	0	0	25467	24070	124971	27045	1011088	41639	109420	0	0	8419	454130	0	0
2024-06-08 02:51:32			0	40651	0	0	0	25470	24070	124959	27182	1011097	41652	109421	0	0	8418	455004	0	0
2024-06-08 02:52:32			0	40660	0	0	0	25464	24070	124995	27069	1011061	41639	109419	0	0	8418	454689	0	0
2024-06-08 02:53:32			0	40658	0	0	0	25477	24080	124883	27133	1011078	41640	109424	0	0	8418	454733	0	0
2024-06-08 02:54:32			0	40652	0	0	0	25467	24080	124943	27066	1010998	41640	109420	0	0	8418	454943	0	0
2024-06-08 02:55:32			0	40682	0	0	0	25477	24080	124975	27383	1011087	41641	109424	0	0	8419	453894	0	0
2024-06-08 02:56:32			0	40643	0	0	0	25483	24070	124935	26904	1011043	41640	109426	0	0	8417	455284	0	0
2024-06-08 02:57:32			0	40670	0	0	0	25472	24070	124959	26970	1011016	41629	109422	0	0	8419	454339	0	0
2024-06-08 02:58:32			0	40657	0	0	0	25472	24080	124943	27415	1011052	41629	109422	0	0	8418	454768	0	0
2024-06-08 02:59:32			0	40650	0	0	0	25470	24070	124995	27315	1011035	41639	109421	0	0	8417	455039	0	0
2024-06-08 03:00:32			0	40666	0	0	0	25464	24070	124967	27133	1011043	41640	109419	0	0	8418	454479	0	0
2024-06-08 03:01:32			0	40661	0	0	0	25464	24070	124943	26968	1011088	41639	109419	0	0	8418	454654	0	0
2024-06-08 03:02:32			0	40668	0	0	0	25467	24070	124987	27154	1011061	41639	109420	0	0	8418	454409	0	0
2024-06-08 03:03:32			0	40664	0	0	0	25472	24070	124883	27275	1011035	41651	109422	0	0	8418	454549	0	0
2024-06-08 03:04:32			0	40696	0	0	0	25472	24080	124855	27204	1011078	41652	109422	0	0	8420	453405	0	0
2024-06-08 03:05:32			0	40680	0	0	0	25475	24080	124883	27010	1011159	41629	109423	0	0	8419	453964	0	0
2024-06-08 03:06:32			0	40692	0	0	0	25485	24080	124987	27020	1011194	41641	109427	0	0	8419	453545	0	0
2024-06-08 03:07:32			0	40690	0	0	0	25493	24080	124883	27360	1011140	41641	109430	0	0	8419	453615	0	0
2024-06-08 03:08:32			0	40661	0	0	0	25498	24090	124855	27313	1011176	41653	109432	0	0	8418	454603	0	0
2024-06-08 03:09:32			0	40682	0	0	0	25501	24090	124891	27319	1011202	41641	109433	0	0	8419	453869	0	0
2024-06-08 03:10:32			0	40695	0	0	0	25519	24100	124855	27041	1011228	41654	109440	0	0	8419	453389	0	0
2024-06-08 03:11:32			0	40688	0	0	0	25524	24100	124835	27227	1011273	41654	109442	0	0	8419	453634	0	0
2024-06-08 03:12:32			0	40692	0	0	0	25529	24110	124799	27412	1011263	41654	109444	0	0	8419	453468	0	0
2024-06-08 03:13:32			0	40679	0	0	0	25537	24110	124835	27512	1011325	41655	109447	0	0	8418	453922	0	0
2024-06-08 03:14:32			0	40686	0	0	0	25548	24130	124819	27060	1011458	41656	109451	0	0	8418	453627	0	0
2024-06-08 03:15:32			0	40700	0	0	0	25566	24130	124727	27497	1011440	41667	109458	0	0	8419	453138	0	0
2024-06-08 03:16:32			0	40701	0	0	0	25586	24140	124795	27123	1011537	41668	109466	0	0	8418	453077	0	0
2024-06-08 03:17:32			0	40716	0	0	0	25594	24170	124799	27071	1011660	41682	109469	0	0	8419	452477	0	0
2024-06-08 03:18:32			0	40728	0	0	0	25618	24180	124779	27055	1011784	41672	109478	0	0	8419	452034	0	0
2024-06-08 03:19:32			0	40709	0	0	0	25633	24200	124735	26883	1011899	41674	109484	0	0	8418	452645	0	0
2024-06-08 03:20:32			0	40710	0	0	0	25646	24220	124663	27074	1012013	41676	109489	0	0	8418	452559	0	0
2024-06-08 03:21:32			0	40705	0	0	0	25659	24240	124787	27310	1012056	41667	109494	0	0	8418	452682	0	0
2024-06-08 03:22:32			0	40723	0	0	0	25667	24240	124751	27086	1012082	41667	109497	0	0	8419	452055	0	0
2024-06-08 03:23:32			0	40715	0	0	0	25662	24270	124743	26901	1012072	41670	109495	0	0	8418	452257	0	0
2024-06-08 03:24:32			0	40723	0	0	0	25667	24280	124631	27098	1012089	41670	109497	0	0	8419	451953	0	0
2024-06-08 03:25:32			0	40708	0	0	0	25675	24280	124695	26842	1012089	41648	109500	0	0	8418	452475	0	0
2024-06-08 03:26:32			0	40706	0	0	0	25667	24280	124675	27161	1012151	41671	109497	0	0	8418	452545	0	0
2024-06-08 03:27:32			0	40735	0	0	0	25662	24280	124671	27237	1012097	41649	109495	0	0	8420	451535	0	0
2024-06-08 03:28:32			0	40724	0	0	0	25670	24280	124635	27305	1012044	41682	109498	0	0	8419	451918	0	0
2024-06-08 03:29:32			0	40734	0	0	0	25672	24290	124655	26956	1012186	41650	109499	0	0	8419	451544	0	0
2024-06-08 03:30:32			0	40749	0	0	0	25677	24300	124607	26849	1012159	41662	109501	0	0	8420	450996	0	0
2024-06-08 03:31:32			0	40722	0	0	0	25693	24310	124647	27130	1012248	41673	109507	0	0	8418	451911	0	0
2024-06-08 03:32:32			0	40743	0	0	0	25690	24320	124571	26870	1012336	41664	109506	0	0	8420	451154	0	0
2024-06-08 03:33:32			0	40759	0	0	0	25706	24330	124591	26902	1012309	41675	109512	0	0	8420	450572	0	0
2024-06-08 03:34:32			0	40735	0	0	0	25698	24340	124515	27114	1012406	41666	109509	0	0	8419	451382	0	0
2024-06-08 03:35:32			0	40742	0	0	0	25706	24350	124483	26993	1012307	41676	109512	0	0	8419	451113	0	0
2024-06-08 03:36:32			0	40751	0	0	0	25703	24350	124479	26986	1012334	41643	109511	0	0	8420	450799	0	0
2024-06-08 03:37:32			0	40769	0	0	0	25701	24340	124380	26979	1012326	41654	109510	0	0	8421	450199	0	0
2024-06-08 03:38:32			0	40775	0	0	0	25690	24340	124396	27093	1012264	41666	109506	0	0	8421	449990	0	0
2024-06-08 03:39:32			0	40765	0	0	0	25693	24330	124431	26977	1012228	41654	109507	0	0	8421	450363	0	0
2024-06-08 03:40:32			0	40783	0	0	0	25672	24320	124432	27319	1012131	41641	109499	0	0	8422	449763	0	0
2024-06-08 03:41:32			0	40767	0	0	0	25667	24320	124375	26979	1012123	41653	109497	0	0	8421	450319	0	0
2024-06-08 03:42:32			0	40784	0	0	0	25659	24320	124480	27022	1012096	41653	109494	0	0	8422	449728	0	0
2024-06-08 03:43:32			0	40805	0	0	0	25641	24310	124368	27090	1012087	41652	109487	0	0	8424	449024	0	0
2024-06-08 03:44:32			0	40790	0	0	0	25644	24300	124400	27183	1012052	41651	109488	0	0	8423	449571	0	0
2024-06-08 03:45:32			0	40795	0	0	0	25641	24300	124332	26904	1012070	41650	109487	0	0	8423	449397	0	0
2024-06-08 03:46:32			0	40792	0	0	0	25641	24300	124316	27374	1012070	41661	109487	0	0	8423	449501	0	0
2024-06-08 03:47:32			0	40804	0	0	0	25646	24310	124264	27156	1012141	41673	109489	0	0	8424	449059	0	0
2024-06-08 03:48:32			0	40812	0	0	0	25670	24310	124360	27140	1012221	41663	109498	0	0	8424	448781	0	0
2024-06-08 03:49:32			0	40817	0	0	0	25685	24320	124332	26939	1012265	41674	109504	0	0	8424	448583	0	0
2024-06-08 03:50:32			0	40826	0	0	0	25711	24330	124364	27066	1012389	41675	109514	0	0	8424	448245	0	0
2024-06-08 03:51:32			0	40817	0	0	0	25727	24330	124288	26942	1012389	41675	109520	0	0	8423	448557	0	0
2024-06-08 03:52:32			0	40827	0	0	0	25727	24340	124308	27170	1012459	41666	109520	0	0	8423	448185	0	0
2024-06-08 03:53:32			0	40833	0	0	0	25729	24350	124280	27119	1012316	41655	109521	0	0	8424	447952	0	0
2024-06-08 03:54:32			0	40844	0	0	0	25716	24340	124264	27332	1012344	41666	109516	0	0	8425	447596	0	0
2024-06-08 03:55:32			0	40845	0	0	0	25688	24340	124232	27322	1012299	41666	109505	0	0	8425	447561	0	0
2024-06-08 03:56:32			0	40851	0	0	0	25670	24330	124156	27215	1012113	41653	109498	0	0	8426	447378	0	0
2024-06-08 03:57:32			0	40851	0	0	0	25649	24310	124156	26847	1012034	41652	109490	0	0	8426	447429	0	0
2024-06-08 03:58:32			0	40878	0	0	0	25641	24310	124168	27270	1012060	41663	109487	0	0	8427	446494	0	0
2024-06-08 03:59:32			0	40865	0	0	0	25638	24290	124144	27109	1012061	41650	109486	0	0	8427	446994	0	0
2024-06-08 04:00:32			0	40854	0	0	0	25638	24300	124156	27331	1012043	41671	109486	0	0	8426	447350	0	0
2024-06-08 04:01:32			0	40896	0	0	0	25646	24290	124160	27232	1012114	41671	109489	0	0	8428	445921	0	0
2024-06-08 04:02:32			0	40870	0	0	0	25651	24300	124084	27163	1012132	41684	109491	0	0	8427	446796	0	0
2024-06-08 04:03:32			0	40865	0	0	0	25667	24310	124124	27166	1012167	41663	109497	0	0	8426	446944	0	0
2024-06-08 04:04:32			0	40881	0	0	0	25672	24320	124164	27000	1012149	41664	109499	0	0	8427	446364	0	0
2024-06-08 04:05:32			0	40880	0	0	0	25677	24310	124168	27052	1012221	41685	109501	0	0	8427	446424	0	0
2024-06-08 04:06:32			0	40877	0	0	0	25685	24310	124204	27119	1012221	41663	109504	0	0	8427	446528	0	0
2024-06-08 04:07:32			0	40877	0	0	0	25696	24310	124144	27163	1012274	41673	109508	0	0	8426	446528	0	0
2024-06-08 04:08:32			0	40880	0	0	0	25698	24320	124116	27630	1012283	41674	109509	0	0	8427	446399	0	0
2024-06-08 04:09:32			0	40871	0	0	0	25703	24310	124124	27196	1012221	41685	109511	0	0	8426	446736	0	0
2024-06-08 04:10:32			0	40892	0	0	0	25701	24320	124204	27282	1012211	41664	109510	0	0	8427	445984	0	0
2024-06-08 04:11:32			0	40877	0	0	0	25703	24330	124160	27128	1012247	41664	109511	0	0	8426	446478	0	0
2024-06-08 04:12:32			0	40875	0	0	0	25696	24320	124088	27034	1012203	41664	109508	0	0	8426	446572	0	0
2024-06-08 04:13:32			0	40897	0	0	0	25693	24320	124088	27400	1012265	41664	109507	0	0	8428	445811	0	0
2024-06-08 04:14:32			0	40898	0	0	0	25685	24300	124084	27242	1012185	41672	109504	0	0	8428	445827	0	0
2024-06-08 04:15:32			0	40883	0	0	0	25688	24310	124024	27289	1012194	41685	109505	0	0	8427	446321	0	0
2024-06-08 04:16:32			0	40873	0	0	0	25677	24300	124132	27176	1012078	41662	109501	0	0	8427	446692	0	0
2024-06-08 04:17:32			0	40911	0	0	0	25677	24300	124144	27620	1012177	41650	109501	0	0	8429	445377	0	0
2024-06-08 04:18:32			0	40892	0	0	0	25667	24300	124148	27419	1012123	41671	109497	0	0	8428	446034	0	0
2024-06-08 04:19:32			0	40901	0	0	0	25675	24300	124164	27241	1012123	41671	109500	0	0	8428	445723	0	0
2024-06-08 04:20:32			0	40887	0	0	0	25672	24300	124196	27216	1012159	41662	109499	0	0	8427	446207	0	0
2024-06-08 04:21:32			0	40880	0	0	0	25683	24310	124164	27343	1012167	41696	109503	0	0	8427	446424	0	0
2024-06-08 04:22:32			0	40910	0	0	0	25685	24320	124132	27336	1012256	41674	109504	0	0	8428	445362	0	0
2024-06-08 04:23:32			0	40888	0	0	0	25685	24310	124108	27083	1012248	41663	109504	0	0	8427	446148	0	0
2024-06-08 04:24:32			0	40915	0	0	0	25690	24310	124100	27166	1012194	41663	109506	0	0	8429	445214	0	0
2024-06-08 04:25:32			0	40905	0	0	0	25693	24320	124080	27149	1012256	41674	109507	0	0	8428	445534	0	0
2024-06-08 04:26:32			0	40887	0	0	0	25703	24300	124060	26934	1012159	41662	109511	0	0	8427	446207	0	0
2024-06-08 04:27:32			0	40917	0	0	0	25696	24320	124060	27178	1012149	41664	109508	0	0	8429	445119	0	0
2024-06-08 04:28:32			0	40911	0	0	0	25680	24310	123996	27414	1012114	41663	109502	0	0	8429	445352	0	0
2024-06-08 04:29:32			0	40911	0	0	0	25664	24300	124060	26896	1012052	41672	109496	0	0	8429	445377	0	0
2024-06-08 04:30:32			0	40901	0	0	0	25651	24300	124012	26970	1011990	41661	109491	0	0	8428	445723	0	0
2024-06-08 04:31:32			0	40917	0	0	0	25644	24280	124072	27034	1011937	41671	109488	0	0	8429	445220	0	0
2024-06-08 04:32:32			0	40908	0	0	0	25615	24260	124020	26935	1011823	41658	109477	0	0	8429	445581	0	0
2024-06-08 04:33:32			0	40883	0	0	0	25607	24260	124088	27319	1011929	41669	109474	0	0	8428	446447	0	0
2024-06-08 04:34:32			0	40914	0	0	0	25605	24260	124132	27076	1011894	41668	109473	0	0	8430	445374	0	0
2024-06-08 04:35:32			0	40907	0	0	0	25584	24250	124104	27052	1011743	41658	109465	0	0	8430	445641	0	0
2024-06-08 04:36:32			0	40895	0	0	0	25571	24240	124104	27251	1011708	41657	109460	0	0	8429	446082	0	0
2024-06-08 04:37:32			0	40893	0	0	0	25561	24230	124072	27317	1011718	41656	109456	0	0	8429	446176	0	0
2024-06-08 04:38:32			0	40897	0	0	0	25545	24220	124144	27296	1011674	41666	109450	0	0	8430	446063	0	0
2024-06-08 04:39:32			0	40890	0	0	0	25540	24220	124140	27332	1011620	41666	109448	0	0	8429	446305	0	0
2024-06-08 04:40:32			0	40879	0	0	0	25540	24210	124184	27133	1011675	41664	109448	0	0	8429	446711	0	0
2024-06-08 04:41:32			0	40889	0	0	0	25522	24200	124076	27351	1011605	41641	109441	0	0	8430	446390	0	0
2024-06-08 04:42:32			0	40884	0	0	0	25522	24190	124124	27036	1011623	41651	109441	0	0	8429	446588	0	0
2024-06-08 04:43:32			0	40868	0	0	0	25527	24190	124140	27388	1011507	41640	109443	0	0	8428	447143	0	0
2024-06-08 04:44:32			0	40886	0	0	0	25527	24190	124180	27331	1011480	41640	109443	0	0	8429	446519	0	0
2024-06-08 04:45:32			0	40887	0	0	0	25514	24180	124232	27329	1011436	41639	109438	0	0	8430	446510	0	0
2024-06-08 04:46:32			0	40897	0	0	0	25496	24160	124160	27433	1011411	41637	109431	0	0	8430	446214	0	0
2024-06-08 04:47:32			0	40875	0	0	0	25490	24160	124212	27092	1011349	41637	109429	0	0	8429	446976	0	0
2024-06-08 04:48:32			0	40890	0	0	0	25480	24150	124256	27104	1011340	41648	109425	0	0	8430	446481	0	0
2024-06-08 04:49:32			0	40869	0	0	0	25485	24140	124212	27137	1011315	41647	109427	0	0	8429	447234	0	0
2024-06-08 04:50:32			0	40874	0	0	0	25467	24130	124208	27031	1011253	41646	109420	0	0	8429	447086	0	0
2024-06-08 04:51:32			0	40843	0	0	0	25449	24140	124152	27261	1011181	41635	109413	0	0	8428	448136	0	0
2024-06-08 04:52:32			0	40862	0	0	0	25449	24110	124240	27178	1011138	41633	109413	0	0	8429	447553	0	0
2024-06-08 04:53:32			0	40869	0	0	0	25431	24100	124208	27046	1011094	41643	109406	0	0	8430	447335	0	0
2024-06-08 04:54:32			0	40872	0	0	0	25418	24100	124216	27071	1011059	41642	109401	0	0	8430	447231	0	0
2024-06-08 04:55:32			0	40876	0	0	0	25399	24070	124316	27223	1010883	41652	109394	0	0	8431	447168	0	0
2024-06-08 04:56:32			0	40870	0	0	0	25384	24060	124196	27178	1010884	41627	109388	0	0	8430	447401	0	0
2024-06-08 04:57:32			0	40878	0	0	0	25379	24050	124340	27242	1010840	41626	109386	0	0	8431	447149	0	0
2024-06-08 04:58:32			0	40866	0	0	0	25376	24040	124296	26960	1010885	41638	109385	0	0	8430	447591	0	0
2024-06-08 04:59:32			0	40865	0	0	0	25379	24030	124292	27145	1010876	41648	109386	0	0	8430	447650	0	0
2024-06-08 05:00:32			0	40841	0	0	0	25386	24050	124360	26883	1010920	41649	109389	0	0	8429	448433	0	0
2024-06-08 05:01:32			0	40856	0	0	0	25386	24040	124348	27041	1010911	41626	109389	0	0	8430	447938	0	0
2024-06-08 05:02:32			0	40845	0	0	0	25389	24040	124388	27258	1010885	41626	109390	0	0	8429	448319	0	0
2024-06-08 05:03:32			0	40822	0	0	0	25384	24040	124380	27013	1010885	41638	109388	0	0	8428	449118	0	0
2024-06-08 05:04:32			0	40841	0	0	0	25389	24020	124364	27192	1010832	41625	109390	0	0	8429	448509	0	0
2024-06-08 05:05:32			0	40836	0	0	0	25384	24030	124352	27383	1010921	41625	109388	0	0	8429	448657	0	0
2024-06-08 05:06:32			0	40831	0	0	0	25379	24030	124420	26882	1010894	41659	109386	0	0	8428	448831	0	0
2024-06-08 05:07:32			0	40818	0	0	0	25392	24030	124480	27114	1010894	41647	109391	0	0	8427	449283	0	0
2024-06-08 05:08:32			0	40818	0	0	0	25397	24030	124404	26994	1010921	41636	109393	0	0	8427	449283	0	0
2024-06-08 05:09:32			0	40813	0	0	0	25405	24040	124440	27071	1010992	41638	109396	0	0	8427	449431	0	0
2024-06-08 05:10:32			0	40800	0	0	0	25399	24050	124456	26989	1010973	41660	109394	0	0	8426	449858	0	0
2024-06-08 05:11:32			0	40830	0	0	0	25425	24050	124528	27150	1011107	41649	109404	0	0	8428	448815	0	0
2024-06-08 05:12:32			0	40798	0	0	0	25454	24060	124476	26906	1011204	41639	109415	0	0	8425	449902	0	0
2024-06-08 05:13:32			0	40803	0	0	0	25470	24070	124480	27088	1011248	41651	109421	0	0	8425	449702	0	0
2024-06-08 05:14:32			0	40770	0	0	0	25496	24090	124524	27260	1011318	41654	109431	0	0	8423	450800	0	0
2024-06-08 05:15:32			0	40779	0	0	0	25514	24090	124548	27324	1011318	41654	109438	0	0	8424	450487	0	0
2024-06-08 05:16:32			0	40778	0	0	0	25514	24100	124608	27220	1011380	41654	109438	0	0	8424	450496	0	0
2024-06-08 05:17:32			0	40783	0	0	0	25524	24110	124520	27092	1011325	41655	109442	0	0	8424	450297	0	0
2024-06-08 05:18:32			0	40775	0	0	0	25529	24110	124560	26979	1011317	41643	109444	0	0	8423	450575	0	0
2024-06-08 05:19:32			0	40767	0	0	0	25527	24100	124616	26804	1011308	41632	109443	0	0	8423	450879	0	0
2024-06-08 05:20:32			0	40770	0	0	0	25522	24100	124524	27242	1011335	41654	109441	0	0	8423	450774	0	0
2024-06-08 05:21:32			0	40760	0	0	0	25522	24110	124547	26956	1011299	41666	109441	0	0	8423	451097	0	0
2024-06-08 05:22:32			0	40760	0	0	0	25516	24110	124539	26911	1011317	41654	109439	0	0	8423	451097	0	0
2024-06-08 05:23:32			0	40765	0	0	0	25503	24100	124675	27126	1011281	41643	109434	0	0	8423	450948	0	0
2024-06-08 05:24:32			0	40746	0	0	0	25509	24110	124663	26989	1011237	41666	109436	0	0	8422	451585	0	0
2024-06-08 05:25:32			0	40762	0	0	0	25506	24110	124715	26979	1011263	41654	109435	0	0	8423	451028	0	0
2024-06-08 05:26:32			0	40767	0	0	0	25503	24110	124632	27362	1011237	41643	109434	0	0	8423	450854	0	0
2024-06-08 05:27:32			0	40754	0	0	0	25498	24100	124603	27260	1011281	41654	109432	0	0	8423	451332	0	0
2024-06-08 05:28:32			0	40750	0	0	0	25490	24100	124679	26840	1011246	41654	109429	0	0	8422	451471	0	0
2024-06-08 05:29:32			0	40751	0	0	0	25501	24110	124747	27003	1011290	41654	109433	0	0	8422	451411	0	0
2024-06-08 05:30:32			0	40736	0	0	0	25498	24100	124679	26882	1011228	41654	109432	0	0	8422	451959	0	0
2024-06-08 05:31:32			0	40746	0	0	0	25493	24100	124639	26805	1011255	41666	109430	0	0	8422	451610	0	0
2024-06-08 05:32:32			0	40754	0	0	0	25501	24110	124771	27225	1011263	41666	109433	0	0	8423	451306	0	0
2024-06-08 05:33:32			0	40749	0	0	0	25496	24110	124767	26981	1011325	41655	109431	0	0	8422	451480	0	0
2024-06-08 05:34:32			0	40717	0	0	0	25493	24100	124663	26937	1011228	41676	109430	0	0	8421	452621	0	0
2024-06-08 05:35:32			0	40720	0	0	0	25490	24100	124723	27142	1011148	41654	109429	0	0	8421	452517	0	0
2024-06-08 05:36:32			0	40704	0	0	0	25490	24090	124695	27043	1011229	41653	109429	0	0	8420	453101	0	0
2024-06-08 05:37:32			0	40727	0	0	0	25490	24100	124743	26880	1011220	41654	109429	0	0	8421	452272	0	0
2024-06-08 05:38:32			0	40729	0	0	0	25493	24110	124787	27034	1011210	41676	109430	0	0	8421	452177	0	0
2024-06-08 05:39:32			0	40720	0	0	0	25490	24110	124667	27317	1011299	41655	109429	0	0	8421	452491	0	0
2024-06-08 05:40:32			0	40721	0	0	0	25490	24100	124727	27208	1011166	41665	109429	0	0	8421	452482	0	0
2024-06-08 05:41:32			0	40716	0	0	0	25490	24100	124859	27175	1011175	41654	109429	0	0	8421	452656	0	0
2024-06-08 05:42:32			0	40719	0	0	0	25490	24100	124799	26986	1011193	41642	109429	0	0	8421	452551	0	0
2024-06-08 05:43:32			0	40725	0	0	0	25485	24100	124811	27133	1011255	41676	109427	0	0	8421	452342	0	0
2024-06-08 05:44:32			0	40722	0	0	0	25483	24100	124763	27263	1011228	41666	109426	0	0	8421	452447	0	0
2024-06-08 05:45:32			0	40700	0	0	0	25493	24090	124799	27045	1011122	41653	109430	0	0	8420	453240	0	0
2024-06-08 05:46:32			0	40709	0	0	0	25477	24080	124759	27289	1011114	41653	109424	0	0	8420	452952	0	0
2024-06-08 05:47:32			0	40705	0	0	0	25480	24090	124795	27031	1011096	41653	109425	0	0	8420	453065	0	0
2024-06-08 05:48:32			0	40702	0	0	0	25464	24080	124747	27272	1011105	41652	109419	0	0	8420	453196	0	0
2024-06-08 05:49:32			0	40715	0	0	0	25462	24080	124863	27124	1011114	41653	109418	0	0	8421	452742	0	0
2024-06-08 05:50:32			0	40702	0	0	0	25457	24080	124827	27246	1011060	41653	109416	0	0	8420	453196	0	0
2024-06-08 05:51:32			0	40705	0	0	0	25454	24080	124819	27209	1011060	41653	109415	0	0	8421	453091	0	0
2024-06-08 05:52:32			0	40690	0	0	0	25449	24080	124891	26778	1011025	41663	109413	0	0	8420	453615	0	0
2024-06-08 05:53:32			0	40701	0	0	0	25446	24070	124967	27043	1011088	41662	109412	0	0	8421	453256	0	0
2024-06-08 05:54:32			0	40712	0	0	0	25441	24070	124855	26998	1011061	41639	109410	0	0	8421	452872	0	0
2024-06-08 05:55:32			0	40684	0	0	0	25454	24070	124887	27029	1011061	41651	109415	0	0	8420	453850	0	0
2024-06-08 05:56:32			0	40715	0	0	0	25446	24050	124903	27409	1011089	41638	109412	0	0	8421	452819	0	0
2024-06-08 05:57:32			0	40670	0	0	0	25441	24070	124935	27357	1011088	41651	109410	0	0	8419	454339	0	0
2024-06-08 05:58:32			0	40674	0	0	0	25446	24060	124871	27336	1011080	41651	109412	0	0	8419	454225	0	0
2024-06-08 05:59:32			0	40683	0	0	0	25446	24070	124847	27275	1011150	41652	109412	0	0	8420	453885	0	0
2024-06-08 06:00:32			0	40660	0	0	0	25441	24060	124879	27201	1011106	41662	109410	0	0	8418	454715	0	0
2024-06-08 06:01:32			0	40681	0	0	0	25446	24070	124991	27137	1011097	41640	109412	0	0	8420	453955	0	0
2024-06-08 06:02:32			0	40650	0	0	0	25444	24070	124983	27133	1011097	41652	109411	0	0	8418	455039	0	0
2024-06-08 06:03:32			0	40657	0	0	0	25433	24070	124975	26979	1011088	41651	109407	0	0	8418	454794	0	0
2024-06-08 06:04:32			0	40673	0	0	0	25431	24050	124991	27279	1011009	41649	109406	0	0	8419	454286	0	0
2024-06-08 06:05:32			0	40638	0	0	0	25420	24050	124975	26875	1011009	41638	109402	0	0	8418	455510	0	0
2024-06-08 06:06:32			0	40668	0	0	0	25410	24040	125071	27046	1010992	41638	109398	0	0	8419	454486	0	0
2024-06-08 06:07:32			0	40651	0	0	0	25399	24040	124851	26909	1010911	41638	109394	0	0	8419	455081	0	0
2024-06-08 06:08:32			0	40667	0	0	0	25376	24030	125019	27357	1010796	41637	109385	0	0	8420	454547	0	0
2024-06-08 06:09:32			0	40662	0	0	0	25363	24020	125019	27159	1010779	41647	109380	0	0	8420	454747	0	0
2024-06-08 06:10:32			0	40644	0	0	0	25355	24010	124983	27092	1010727	41634	109377	0	0	8419	455403	0	0
2024-06-08 06:11:32			0	40648	0	0	0	25348	24010	125055	27012	1010789	41646	109374	0	0	8419	455263	0	0
2024-06-08 06:12:32			0	40626	0	0	0	25358	24000	125143	26937	1010691	41645	109378	0	0	8418	456059	0	0
2024-06-08 06:13:32			0	40661	0	0	0	25363	24010	125067	27130	1010869	41635	109380	0	0	8420	454808	0	0
2024-06-08 06:14:32			0	40643	0	0	0	25368	24020	125103	27422	1010851	41658	109382	0	0	8419	455412	0	0
2024-06-08 06:15:32			0	40653	0	0	0	25381	24010	125091	27298	1010895	41635	109387	0	0	8419	455088	0	0
2024-06-08 06:16:32			0	40650	0	0	0	25384	24010	125119	27268	1010833	41645	109388	0	0	8419	455193	0	0
2024-06-08 06:17:32			0	40628	0	0	0	25368	24010	125103	27360	1010842	41646	109382	0	0	8418	455963	0	0
2024-06-08 06:18:32			0	40616	0	0	0	25366	24010	125063	27088	1010807	41634	109381	0	0	8417	456383	0	0
2024-06-08 06:19:32			0	40612	0	0	0	25361	24010	125159	27074	1010815	41635	109379	0	0	8417	456524	0	0
2024-06-08 06:20:32			0	40611	0	0	0	25358	24000	125087	27229	1010710	41633	109378	0	0	8417	456584	0	0
2024-06-08 06:21:32			0	40619	0	0	0	25348	23990	125099	27190	1010701	41644	109374	0	0	8418	456330	0	0
2024-06-08 06:22:32			0	40623	0	0	0	25332	23990	125095	27251	1010674	41644	109368	0	0	8418	456190	0	0
2024-06-08 06:23:32			0	40617	0	0	0	25324	23990	125119	27121	1010586	41632	109365	0	0	8418	456400	0	0
2024-06-08 06:24:32			0	40599	0	0	0	25316	23970	125219	27351	1010525	41620	109362	0	0	8417	457083	0	0
2024-06-08 06:25:32			0	40601	0	0	0	25296	23960	125183	27206	1010516	41630	109354	0	0	8417	457038	0	0
2024-06-08 06:26:32			0	40605	0	0	0	25298	23950	125199	27034	1010472	41641	109355	0	0	8418	456924	0	0
2024-06-08 06:27:32			0	40596	0	0	0	25285	23950	125199	27038	1010410	41629	109350	0	0	8417	457239	0	0
2024-06-08 06:28:32			0	40560	0	0	0	25283	23940	125323	27428	1010393	41617	109349	0	0	8415	458529	0	0
2024-06-08 06:29:32			0	40588	0	0	0	25280	23940	125311	27343	1010393	41628	109348	0	0	8417	457546	0	0
2024-06-08 06:30:32			0	40568	0	0	0	25275	23930	125351	27199	1010331	41627	109346	0	0	8416	458274	0	0
2024-06-08 06:31:32			0	40545	0	0	0	25272	23920	125351	27457	1010332	41625	109345	0	0	8415	459108	0	0
2024-06-08 06:32:32			0	40574	0	0	0	25272	23920	125395	27405	1010314	41616	109345	0	0	8416	458089	0	0
2024-06-08 06:33:32			0	40555	0	0	0	25270	23910	125287	27357	1010243	41648	109344	0	0	8415	458782	0	0
2024-06-08 06:34:32			0	40564	0	0	0	25259	23910	125371	27069	1010288	41625	109340	0	0	8416	458466	0	0
2024-06-08 06:35:32			0	40562	0	0	0	25249	23890	125431	27048	1010129	41613	109336	0	0	8416	458588	0	0
2024-06-08 06:36:32			0	40566	0	0	0	25246	23890	125407	27341	1010147	41624	109335	0	0	8416	458447	0	0
2024-06-08 06:37:32			0	40550	0	0	0	25246	23880	125379	26958	1010130	41622	109335	0	0	8415	459036	0	0
2024-06-08 06:38:32			0	40541	0	0	0	25233	23880	125403	27159	1010112	41634	109330	0	0	8415	459352	0	0
2024-06-08 06:39:32			0	40518	0	0	0	25218	23880	125435	27313	1010104	41622	109324	0	0	8414	460162	0	0
2024-06-08 06:40:32			0	40516	0	0	0	25223	23850	125455	27251	1009927	41630	109326	0	0	8414	460310	0	0
2024-06-08 06:41:32			0	40516	0	0	0	25218	23860	125547	27443	1009998	41622	109324	0	0	8414	460284	0	0
2024-06-08 06:42:32			0	40513	0	0	0	25218	23860	125571	27336	1010016	41631	109324	0	0	8414	460390	0	0
2024-06-08 06:43:32			0	40480	0	0	0	25215	23850	125539	27147	1009999	41608	109323	0	0	8412	461579	0	0
2024-06-08 06:44:32			0	40499	0	0	0	25210	23840	125599	27417	1009964	41608	109321	0	0	8413	460935	0	0
2024-06-08 06:45:32			0	40476	0	0	0	25210	23830	125667	27436	1010000	41628	109321	0	0	8412	461772	0	0
2024-06-08 06:46:32			0	40493	0	0	0	25215	23850	125683	27265	1009972	41630	109323	0	0	8413	461121	0	0
2024-06-08 06:47:32			0	40451	0	0	0	25207	23840	125715	26965	1010017	41620	109320	0	0	8411	462629	0	0
2024-06-08 06:48:32			0	40453	0	0	0	25202	23840	125767	27227	1009955	41619	109318	0	0	8411	462558	0	0
2024-06-08 06:49:32			0	40437	0	0	0	25207	23840	125783	27102	1009982	41619	109320	0	0	8410	463123	0	0
2024-06-08 06:50:32			0	40424	0	0	0	25210	23830	125827	27364	1009947	41628	109321	0	0	8409	463609	0	0
2024-06-08 06:51:32			0	40391	0	0	0	25199	23830	125863	26953	1009920	41618	109317	0	0	8408	464776	0	0
2024-06-08 06:52:32			0	40376	0	0	0	25184	23820	125975	27078	1009894	41617	109311	0	0	8407	465334	0	0
2024-06-08 06:53:32			0	40357	0	0	0	25199	23820	125979	27540	1009841	41627	109317	0	0	8406	466007	0	0
2024-06-08 06:54:32			0	40358	0	0	0	25189	23820	126047	27383	1009921	41627	109313	0	0	8406	465972	0	0
2024-06-08 06:55:32			0	40330	0	0	0	25186	23820	126059	27403	1009849	41618	109312	0	0	8405	466965	0	0
2024-06-08 06:56:32			0	40322	0	0	0	25186	23820	126259	27097	1009948	41627	109312	0	0	8404	467249	0	0
2024-06-08 06:57:32			0	40288	0	0	0	25197	23820	126247	27386	1009956	41628	109316	0	0	8402	468457	0	0
2024-06-08 06:58:32			0	40267	0	0	0	25207	23820	126275	27156	1009983	41628	109320	0	0	8401	469204	0	0
2024-06-08 06:59:32			0	40264	0	0	0	25210	23820	126367	27516	1009930	41628	109321	0	0	8401	469311	0	0
2024-06-08 07:00:32			0	40235	0	0	0	25220	23830	126387	27282	1009947	41628	109325	0	0	8399	470317	0	0
2024-06-08 07:01:32			0	40214	0	0	0	25212	23830	126411	27228	1009911	41618	109322	0	0	8398	471066	0	0
2024-06-08 07:02:32			0	40224	0	0	0	25210	23830	126387	27431	1009885	41628	109321	0	0	8399	470709	0	0
2024-06-08 07:03:32			0	40193	0	0	0	25207	23820	126523	27317	1009894	41639	109320	0	0	8397	471842	0	0
2024-06-08 07:04:32			0	40166	0	0	0	25194	23820	126543	27424	1009956	41618	109315	0	0	8396	472806	0	0
2024-06-08 07:05:32			0	40164	0	0	0	25199	23820	126579	27053	1009876	41618	109317	0	0	8396	472878	0	0
2024-06-08 07:06:32			0	40153	0	0	0	25199	23830	126691	27286	1009938	41628	109317	0	0	8395	473244	0	0
2024-06-08 07:07:32			0	40133	0	0	0	25194	23820	126707	27218	1009921	41627	109315	0	0	8394	473986	0	0
2024-06-08 07:08:32			0	40125	0	0	0	25202	23820	126723	27256	1009876	41618	109318	0	0	8394	474273	0	0
2024-06-08 07:09:32			0	40091	0	0	0	25192	23830	126814	27138	1009885	41618	109314	0	0	8392	475464	0	0
2024-06-08 07:10:32			0	40084	0	0	0	25173	23820	126842	26837	1009841	41617	109307	0	0	8392	475741	0	0
2024-06-08 07:11:32			0	40073	0	0	0	25179	23810	126922	27327	1009752	41605	109309	0	0	8391	476163	0	0
2024-06-08 07:12:32			0	40062	0	0	0	25158	23800	126938	27415	1009761	41605	109301	0	0	8391	476584	0	0
2024-06-08 07:13:32			0	40070	0	0	0	25155	23800	126930	27433	1009753	41615	109300	0	0	8392	476297	0	0
2024-06-08 07:14:32			0	40030	0	0	0	25155	23800	126882	26987	1009833	41615	109300	0	0	8389	477734	0	0
2024-06-08 07:15:32			0	40034	0	0	0	25163	23790	127042	27291	1009851	41625	109303	0	0	8389	477617	0	0
2024-06-08 07:16:32			0	40035	0	0	0	25155	23800	127006	27263	1009726	41615	109300	0	0	8390	477554	0	0
2024-06-08 07:17:32			0	40041	0	0	0	25155	23800	127106	27116	1009726	41615	109300	0	0	8390	477339	0	0
2024-06-08 07:18:32			0	40026	0	0	0	25153	23780	127102	27211	1009647	41613	109299	0	0	8389	477931	0	0
2024-06-08 07:19:32			0	40016	0	0	0	25142	23790	127146	27144	1009656	41613	109295	0	0	8389	478264	0	0
2024-06-08 07:20:32			0	40004	0	0	0	25142	23780	127094	27313	1009754	41613	109295	0	0	8388	478723	0	0
2024-06-08 07:21:32			0	40018	0	0	0	25150	23780	127090	27303	1009888	41625	109298	0	0	8389	478219	0	0
2024-06-08 07:22:32			0	39989	0	0	0	25186	23800	127122	27041	1009948	41638	109312	0	0	8387	479209	0	0
2024-06-08 07:23:32			0	39982	0	0	0	25220	23810	127110	27091	1010019	41626	109325	0	0	8386	479434	0	0
2024-06-08 07:24:32			0	39980	0	0	0	25238	23820	127086	27291	1010135	41639	109332	0	0	8386	479479	0	0
2024-06-08 07:25:32			0	39959	0	0	0	25251	23840	127198	27611	1010071	41630	109337	0	0	8384	480181	0	0
2024-06-08 07:26:32			0	39958	0	0	0	25257	23840	127150	27445	1010097	41641	109339	0	0	8384	480217	0	0
2024-06-08 07:27:32			0	39981	0	0	0	25249	23840	127110	27312	1010044	41641	109336	0	0	8385	479389	0	0
2024-06-08 07:28:32			0	39976	0	0	0	25246	23830	127214	27647	1010053	41628	109335	0	0	8385	479596	0	0
2024-06-08 07:29:32			0	39954	0	0	0	25241	23840	127262	27208	1010009	41629	109333	0	0	8384	480362	0	0
2024-06-08 07:30:32			0	39962	0	0	0	25215	23840	127286	26977	1009928	41629	109323	0	0	8385	480073	0	0
2024-06-08 07:31:32			0	39931	0	0	0	25205	23830	127222	27204	1009991	41628	109319	0	0	8384	481218	0	0
2024-06-08 07:32:32			0	39943	0	0	0	25197	23830	127270	27409	1009920	41618	109316	0	0	8384	480785	0	0
2024-06-08 07:33:32			0	39935	0	0	0	25207	23820	127286	27379	1009956	41618	109320	0	0	8384	481101	0	0
2024-06-08 07:34:32			0	39958	0	0	0	25202	23830	127238	27310	1009965	41628	109318	0	0	8385	480244	0	0
2024-06-08 07:35:32			0	39951	0	0	0	25212	23830	127286	27345	1009920	41639	109322	0	0	8385	480497	0	0
2024-06-08 07:36:32			0	39947	0	0	0	25218	23830	127322	27428	1010045	41618	109324	0	0	8384	480641	0	0
2024-06-08 07:37:32			0	39958	0	0	0	25225	23840	127310	27464	1009982	41640	109327	0	0	8385	480217	0	0
2024-06-08 07:38:32			0	39945	0	0	0	25225	23830	127318	27379	1009991	41607	109327	0	0	8384	480713	0	0
2024-06-08 07:39:32			0	39951	0	0	0	25223	23810	127282	27346	1009912	41626	109326	0	0	8384	480551	0	0
2024-06-08 07:40:32			0	39923	0	0	0	25218	23820	127230	27086	1009956	41628	109324	0	0	8383	481534	0	0
2024-06-08 07:41:32			0	39943	0	0	0	25218	23830	127186	27140	1010018	41639	109324	0	0	8384	480785	0	0
2024-06-08 07:42:32			0	39946	0	0	0	25225	23830	127278	27260	1010027	41618	109327	0	0	8384	480677	0	0
2024-06-08 07:43:32			0	39927	0	0	0	25233	23830	127254	27168	1009973	41639	109330	0	0	8383	481363	0	0
2024-06-08 07:44:32			0	39941	0	0	0	25228	23830	127306	27275	1009973	41628	109328	0	0	8384	480857	0	0
2024-06-08 07:45:32			0	39948	0	0	0	25218	23830	127222	27254	1009973	41628	109324	0	0	8384	480605	0	0
2024-06-08 07:46:32			0	39933	0	0	0	25218	23830	127274	27022	1009920	41618	109324	0	0	8383	481146	0	0
2024-06-08 07:47:32			0	39949	0	0	0	25197	23820	127294	27403	1009876	41628	109316	0	0	8385	480596	0	0
2024-06-08 07:48:32			0	39944	0	0	0	25199	23810	127250	27253	1009912	41605	109317	0	0	8384	480803	0	0
2024-06-08 07:49:32			0	39946	0	0	0	25194	23810	127218	27109	1009850	41626	109315	0	0	8384	480731	0	0
2024-06-08 07:50:32			0	39949	0	0	0	25186	23800	127154	27647	1009868	41616	109312	0	0	8385	480650	0	0
2024-06-08 07:51:32			0	39942	0	0	0	25184	23800	127230	27531	1009842	41626	109311	0	0	8384	480903	0	0
2024-06-08 07:52:32			0	39959	0	0	0	25189	23810	127170	27364	1009850	41616	109313	0	0	8385	480263	0	0
2024-06-08 07:53:32			0	39954	0	0	0	25176	23800	127366	27462	1009815	41626	109308	0	0	8385	480470	0	0
2024-06-08 07:54:32			0	39960	0	0	0	25179	23800	127298	27537	1009815	41626	109309	0	0	8385	480254	0	0
2024-06-08 07:55:32			0	39967	0	0	0	25173	23800	127218	27568	1009780	41625	109307	0	0	8386	480001	0	0
2024-06-08 07:56:32			0	39958	0	0	0	25184	23800	127274	27488	1009860	41637	109311	0	0	8385	480326	0	0
2024-06-08 07:57:32			0	39953	0	0	0	25197	23800	127254	27431	1009868	41638	109316	0	0	8385	480506	0	0
2024-06-08 07:58:32			0	39973	0	0	0	25215	23810	127302	27246	1009930	41616	109323	0	0	8386	479758	0	0
2024-06-08 07:59:32			0	39966	0	0	0	25223	23810	127222	27492	1009904	41638	109326	0	0	8385	480010	0	0
2024-06-08 08:00:32			0	39956	0	0	0	25223	23800	127322	27261	1009948	41638	109326	0	0	8384	480398	0	0
2024-06-08 08:01:32			0	39942	0	0	0	25228	23820	127254	27041	1009974	41650	109328	0	0	8384	480848	0	0
2024-06-08 08:02:32			0	39945	0	0	0	25225	23820	127162	27081	1009948	41639	109327	0	0	8384	480740	0	0
2024-06-08 08:03:32			0	39937	0	0	0	25238	23820	127134	27310	1010063	41639	109332	0	0	8383	481029	0	0
2024-06-08 08:04:32			0	39950	0	0	0	25244	23810	127250	27293	1009992	41626	109334	0	0	8384	480587	0	0
2024-06-08 08:05:32			0	39965	0	0	0	25236	23820	127170	27331	1010010	41639	109331	0	0	8385	480019	0	0
2024-06-08 08:06:32			0	39952	0	0	0	25238	23830	127270	27284	1010027	41628	109332	0	0	8384	480461	0	0
2024-06-08 08:07:32			0	39953	0	0	0	25241	23830	127254	27135	1010027	41628	109333	0	0	8384	480425	0	0
2024-06-08 08:08:32			0	39958	0	0	0	25246	23830	127250	27512	1010053	41628	109335	0	0	8384	480244	0	0
2024-06-08 08:09:32			0	39949	0	0	0	25244	23840	127250	27341	1010035	41640	109334	0	0	8384	480542	0	0
2024-06-08 08:10:32			0	39944	0	0	0	25257	23850	127234	27516	1010052	41630	109339	0	0	8383	480695	0	0
2024-06-08 08:11:32			0	39965	0	0	0	25251	23840	127234	27433	1010177	41630	109337	0	0	8385	479965	0	0
2024-06-08 08:12:32			0	39945	0	0	0	25267	23840	127218	27239	1010204	41641	109343	0	0	8383	480686	0	0
2024-06-08 08:13:32			0	39954	0	0	0	25280	23860	127238	26958	1010265	41654	109348	0	0	8384	480307	0	0
2024-06-08 08:14:32			0	39941	0	0	0	25288	23860	127198	27286	1010211	41643	109351	0	0	8383	480776	0	0
2024-06-08 08:15:32			0	39944	0	0	0	25296	23880	127210	27345	1010291	41644	109354	0	0	8383	480614	0	0
2024-06-08 08:16:32			0	39941	0	0	0	25306	23870	127202	27305	1010300	41644	109358	0	0	8383	480749	0	0
2024-06-08 08:17:32			0	39950	0	0	0	25316	23890	127218	27289	1010308	41646	109362	0	0	8383	480370	0	0
2024-06-08 08:18:32			0	39935	0	0	0	25311	23880	127254	27360	1010344	41655	109360	0	0	8382	480938	0	0
2024-06-08 08:19:32			0	39958	0	0	0	25329	23890	127174	27242	1010441	41635	109367	0	0	8383	480082	0	0
2024-06-08 08:20:32			0	39944	0	0	0	25324	23890	127230	27173	1010450	41646	109365	0	0	8382	480587	0	0
2024-06-08 08:21:32			0	39954	0	0	0	25319	23890	127362	27360	1010254	41657	109363	0	0	8383	480226	0	0
2024-06-08 08:22:32			0	39953	0	0	0	25327	23890	127282	27471	1010361	41635	109366	0	0	8383	480262	0	0
2024-06-08 08:23:32			0	39955	0	0	0	25319	23890	127234	27391	1010370	41635	109363	0	0	8383	480190	0	0
2024-06-08 08:24:32			0	39946	0	0	0	25322	23900	127254	27230	1010405	41646	109364	0	0	8383	480488	0	0
2024-06-08 08:25:32			0	39934	0	0	0	25327	23900	127294	27241	1010458	41646	109366	0	0	8382	480920	0	0
2024-06-08 08:26:32			0	39935	0	0	0	25327	23900	127290	27270	1010360	41635	109366	0	0	8382	480884	0	0
2024-06-08 08:27:32			0	39944	0	0	0	25319	23900	127262	27301	1010413	41647	109363	0	0	8383	480560	0	0
2024-06-08 08:28:32			0	39933	0	0	0	25311	23910	127222	27424	1010368	41648	109360	0	0	8382	480929	0	0
2024-06-08 08:29:32			0	39939	0	0	0	25314	23900	127186	27270	1010405	41646	109361	0	0	8382	480740	0	0
2024-06-08 08:30:32			0	39932	0	0	0	25314	23900	127290	27104	1010378	41635	109361	0	0	8382	480992	0	0
2024-06-08 08:31:32			0	39930	0	0	0	25309	23900	127282	27251	1010351	41646	109359	0	0	8382	481065	0	0
2024-06-08 08:32:32			0	39921	0	0	0	25301	23890	127274	27388	1010396	41657	109356	0	0	8382	481416	0	0
2024-06-08 08:33:32			0	39935	0	0	0	25298	23890	127246	27164	1010316	41657	109355	0	0	8382	480911	0	0
2024-06-08 08:34:32			0	39926	0	0	0	25301	23890	127314	27072	1010289	41635	109356	0	0	8382	481236	0	0
2024-06-08 08:35:32			0	39941	0	0	0	25290	23900	127334	27163	1010271	41635	109352	0	0	8383	480668	0	0
2024-06-08 08:36:32			0	39931	0	0	0	25293	23890	127330	27215	1010334	41646	109353	0	0	8382	481056	0	0
2024-06-08 08:37:32			0	39919	0	0	0	25298	23890	127318	27046	1010254	41635	109355	0	0	8382	481489	0	0
2024-06-08 08:38:32			0	39943	0	0	0	25290	23890	127310	27405	1010343	41657	109352	0	0	8383	480623	0	0
2024-06-08 08:39:32			0	39925	0	0	0	25301	23890	127362	27232	1010361	41646	109356	0	0	8382	481272	0	0
2024-06-08 08:40:32			0	39931	0	0	0	25296	23900	127286	27249	1010351	41657	109354	0	0	8382	481029	0	0
2024-06-08 08:41:32			0	39922	0	0	0	25296	23890	127290	27265	1010263	41646	109354	0	0	8382	481380	0	0
2024-06-08 08:42:32			0	39922	0	0	0	25298	23880	127250	27183	1010272	41645	109355	0	0	8382	481407	0	0
2024-06-08 08:43:32			0	39898	0	0	0	25298	23890	127346	27152	1010334	41635	109355	0	0	8381	482247	0	0
2024-06-08 08:44:32			0	39907	0	0	0	25303	23890	127258	27140	1010316	41646	109357	0	0	8381	481922	0	0
2024-06-08 08:45:32			0	39909	0	0	0	25303	23890	127258	27441	1010334	41657	109357	0	0	8381	481850	0	0
2024-06-08 08:46:32			0	39911	0	0	0	25298	23900	127266	27208	1010432	41667	109355	0	0	8381	481750	0	0
2024-06-08 08:47:32			0	39922	0	0	0	25311	23900	127318	27187	1010378	41646	109360	0	0	8382	481353	0	0
2024-06-08 08:48:32			0	39892	0	0	0	25309	23890	127330	27407	1010281	41646	109359	0	0	8380	482464	0	0
2024-06-08 08:49:32			0	39889	0	0	0	25309	23900	127382	27379	1010405	41646	109359	0	0	8380	482545	0	0
2024-06-08 08:50:32			0	39920	0	0	0	25314	23900	127354	27079	1010405	41646	109361	0	0	8381	481425	0	0
2024-06-08 08:51:32			0	39921	0	0	0	25316	23900	127398	27403	1010360	41635	109362	0	0	8381	481389	0	0
2024-06-08 08:52:32			0	39907	0	0	0	25309	23900	127398	27133	1010387	41647	109359	0	0	8381	481895	0	0
2024-06-08 08:53:32			0	39904	0	0	0	25309	23900	127402	27208	1010413	41625	109359	0	0	8381	482003	0	0
2024-06-08 08:54:32			0	39910	0	0	0	25311	23900	127426	27093	1010360	41647	109360	0	0	8381	481786	0	0
2024-06-08 08:55:32			0	39891	0	0	0	25309	23910	127362	27320	1010395	41636	109359	0	0	8380	482445	0	0
2024-06-08 08:56:32			0	39915	0	0	0	25309	23900	127450	27300	1010360	41658	109359	0	0	8381	481606	0	0
2024-06-08 08:57:32			0	39928	0	0	0	25314	23900	127282	27086	1010360	41658	109361	0	0	8382	481137	0	0
2024-06-08 08:58:32			0	39921	0	0	0	25309	23890	127326	27216	1010343	41646	109359	0	0	8382	481416	0	0
2024-06-08 08:59:32			0	39914	0	0	0	25296	23890	127314	27334	1010281	41657	109354	0	0	8381	481669	0	0
2024-06-08 09:00:32			0	39919	0	0	0	25296	23890	127390	27114	1010289	41646	109354	0	0	8382	481489	0	0
2024-06-08 09:01:32			0	39921	0	0	0	25290	23890	127286	26989	1010254	41646	109352	0	0	8382	481416	0	0
2024-06-08 09:02:32			0	39919	0	0	0	25296	23880	127246	27216	1010379	41634	109354	0	0	8382	481516	0	0
2024-06-08 09:03:32			0	39912	0	0	0	25303	23900	127258	27289	1010378	41646	109357	0	0	8381	481714	0	0
2024-06-08 09:04:32			0	39914	0	0	0	25298	23880	127278	27284	1010379	41645	109355	0	0	8381	481696	0	0
2024-06-08 09:05:32			0	39929	0	0	0	25298	23890	127218	26932	1010343	41657	109355	0	0	8382	481128	0	0
2024-06-08 09:06:32			0	39906	0	0	0	25303	23890	127250	27170	1010370	41635	109357	0	0	8381	481958	0	0
2024-06-08 09:07:32			0	39923	0	0	0	25306	23890	127230	27015	1010316	41667	109358	0	0	8382	481344	0	0
2024-06-08 09:08:32			0	39940	0	0	0	25303	23900	127186	27069	1010387	41668	109357	0	0	8383	480704	0	0
2024-06-08 09:09:32			0	39898	0	0	0	25303	23890	127242	27161	1010334	41646	109357	0	0	8380	482247	0	0
2024-06-08 09:10:32			0	39883	0	0	0	25311	23900	127334	27057	1010378	41635	109360	0	0	8380	482762	0	0
2024-06-08 09:11:32			0	39903	0	0	0	25303	23890	127326	26717	1010316	41646	109357	0	0	8381	482066	0	0
2024-06-08 09:12:32			0	39895	0	0	0	25311	23900	127350	27251	1010405	41646	109360	0	0	8380	482328	0	0
2024-06-08 09:13:32			0	39867	0	0	0	25311	23900	127366	27223	1010413	41668	109360	0	0	8379	483340	0	0
2024-06-08 09:14:32			0	39892	0	0	0	25306	23890	127418	27230	1010343	41657	109358	0	0	8380	482464	0	0
2024-06-08 09:15:32			0	39866	0	0	0	25314	23900	127482	27362	1010360	41635	109361	0	0	8379	483376	0	0
2024-06-08 09:16:32			0	39859	0	0	0	25306	23890	127442	27012	1010343	41657	109358	0	0	8378	483657	0	0
2024-06-08 09:17:32			0	39839	0	0	0	25314	23910	127482	27024	1010430	41648	109361	0	0	8377	484326	0	0
2024-06-08 09:18:32			0	39818	0	0	0	25311	23910	127530	26878	1010377	41648	109360	0	0	8376	485087	0	0
2024-06-08 09:19:32			0	39828	0	0	0	25309	23900	127474	27131	1010405	41657	109359	0	0	8377	484752	0	0
2024-06-08 09:20:32			0	39829	0	0	0	25311	23900	127482	27095	1010440	41635	109360	0	0	8377	484716	0	0
2024-06-08 09:21:32			0	39836	0	0	0	25290	23900	127598	27343	1010387	41647	109352	0	0	8378	484462	0	0
2024-06-08 09:22:32			0	39824	0	0	0	25314	23900	127534	27215	1010405	41657	109361	0	0	8376	484897	0	0
2024-06-08 09:23:32			0	39836	0	0	0	25309	23900	127570	27095	1010351	41646	109359	0	0	8377	484462	0	0
2024-06-08 09:24:32			0	39828	0	0	0	25301	23900	127606	27149	1010351	41657	109356	0	0	8377	484752	0	0
2024-06-08 09:25:32			0	39840	0	0	0	25301	23900	127582	27140	1010378	41646	109356	0	0	8378	484317	0	0
2024-06-08 09:26:32			0	39827	0	0	0	25303	23900	127610	27251	1010413	41658	109357	0	0	8377	484788	0	0
2024-06-08 09:27:32			0	39823	0	0	0	25298	23890	127594	27154	1010343	41646	109355	0	0	8377	484960	0	0
2024-06-08 09:28:32			0	39818	0	0	0	25298	23900	127646	27459	1010405	41646	109355	0	0	8376	485114	0	0
2024-06-08 09:29:32			0	39815	0	0	0	25303	23900	127662	26911	1010378	41667	109357	0	0	8376	485223	0	0
2024-06-08 09:30:32			0	39810	0	0	0	25301	23890	127622	27286	1010370	41646	109356	0	0	8376	485431	0	0
2024-06-08 09:31:32			0	39816	0	0	0	25303	23900	127630	26968	1010413	41658	109357	0	0	8376	485187	0	0
2024-06-08 09:32:32			0	39814	0	0	0	25303	23900	127646	27296	1010405	41646	109357	0	0	8376	485259	0	0
2024-06-08 09:33:32			0	39808	0	0	0	25301	23890	127614	26984	1010396	41667	109356	0	0	8376	485504	0	0
2024-06-08 09:34:32			0	39818	0	0	0	25303	23900	127538	26953	1010405	41657	109357	0	0	8376	485114	0	0
2024-06-08 09:35:32			0	39837	0	0	0	25306	23910	127478	27272	1010342	41636	109358	0	0	8377	484398	0	0
2024-06-08 09:36:32			0	39836	0	0	0	25314	23900	127490	27268	1010440	41658	109361	0	0	8377	484462	0	0
2024-06-08 09:37:32			0	39840	0	0	0	25309	23900	127366	27284	1010378	41657	109359	0	0	8377	484317	0	0
2024-06-08 09:38:32			0	39852	0	0	0	25314	23910	127478	27376	1010449	41648	109361	0	0	8378	483855	0	0
2024-06-08 09:39:32			0	39847	0	0	0	25319	23900	127430	27232	1010467	41647	109363	0	0	8378	484064	0	0
2024-06-08 09:40:32			0	39866	0	0	0	25311	23900	127386	27171	1010387	41668	109360	0	0	8379	483376	0	0
2024-06-08 09:41:32			0	39860	0	0	0	25319	23900	127370	26883	1010494	41647	109363	0	0	8378	483593	0	0
2024-06-08 09:42:32			0	39868	0	0	0	25319	23910	127418	27305	1010502	41669	109363	0	0	8379	483277	0	0
2024-06-08 09:43:32			0	39861	0	0	0	25314	23910	127402	27140	1010449	41681	109361	0	0	8378	483530	0	0
2024-06-08 09:44:32			0	39865	0	0	0	25322	23910	127398	27119	1010502	41648	109364	0	0	8379	483385	0	0
2024-06-08 09:45:32			0	39863	0	0	0	25324	23910	127398	27396	1010511	41659	109365	0	0	8378	483458	0	0
2024-06-08 09:46:32			0	39872	0	0	0	25327	23910	127370	27020	1010564	41659	109366	0	0	8379	483132	0	0
2024-06-08 09:47:32			0	39858	0	0	0	25332	23910	127330	26915	1010511	41669	109368	0	0	8378	483638	0	0
2024-06-08 09:48:32			0	39880	0	0	0	25340	23920	127366	26960	1010573	41659	109371	0	0	8379	482816	0	0
2024-06-08 09:49:32			0	39891	0	0	0	25340	23920	127322	26878	1010554	41649	109371	0	0	8380	482418	0	0
2024-06-08 09:50:32			0	39899	0	0	0	25353	23920	127310	27391	1010554	41660	109376	0	0	8380	482129	0	0
2024-06-08 09:51:32			0	39907	0	0	0	25345	23930	127386	27142	1010563	41661	109373	0	0	8380	481813	0	0
2024-06-08 09:52:32			0	39884	0	0	0	25348	23930	127278	26923	1010616	41661	109374	0	0	8379	482644	0	0
2024-06-08 09:53:32			0	39926	0	0	0	25355	23940	127266	27026	1010580	41672	109377	0	0	8381	481100	0	0
2024-06-08 09:54:32			0	39914	0	0	0	25358	23940	127278	26925	1010634	41662	109378	0	0	8381	481533	0	0
2024-06-08 09:55:32			0	39932	0	0	0	25358	23930	127262	27332	1010598	41661	109378	0	0	8381	480911	0	0
2024-06-08 09:56:32			0	39937	0	0	0	25358	23940	127134	27338	1010642	41662	109378	0	0	8382	480704	0	0
2024-06-08 09:57:32			0	39949	0	0	0	25366	23940	127150	26977	1010642	41662	109381	0	0	8382	480271	0	0
2024-06-08 09:58:32			0	39956	0	0	0	25368	23940	127130	26970	1010642	41662	109382	0	0	8383	480019	0	0
2024-06-08 09:59:32			0	39977	0	0	0	25368	23950	127130	27126	1010731	41673	109382	0	0	8384	479236	0	0
2024-06-08 10:00:32			0	39972	0	0	0	25381	23960	127178	26918	1010695	41674	109387	0	0	8383	479389	0	0
2024-06-08 10:01:32			0	39980	0	0	0	25384	23960	126986	27417	1010703	41663	109388	0	0	8384	479101	0	0
2024-06-08 10:02:32			0	40002	0	0	0	25386	23960	126994	27383	1010775	41663	109389	0	0	8385	478309	0	0
2024-06-08 10:03:32			0	40011	0	0	0	25402	23980	126918	27293	1010836	41676	109395	0	0	8385	477932	0	0
2024-06-08 10:04:32			0	40013	0	0	0	25412	23970	126854	27393	1010792	41675	109399	0	0	8385	477887	0	0
2024-06-08 10:05:32			0	40026	0	0	0	25415	23980	126878	27220	1010818	41665	109400	0	0	8386	477393	0	0
2024-06-08 10:06:32			0	40063	0	0	0	25420	23990	126758	27206	1010933	41677	109402	0	0	8387	476039	0	0
2024-06-08 10:07:32			0	40061	0	0	0	25433	23980	126830	26993	1010898	41676	109407	0	0	8387	476137	0	0
2024-06-08 10:08:32			0	40078	0	0	0	25431	23990	126766	26955	1010986	41677	109406	0	0	8388	475501	0	0
2024-06-08 10:09:32			0	40086	0	0	0	25436	24000	126726	26998	1010985	41667	109408	0	0	8388	475188	0	0
2024-06-08 10:10:32			0	40097	0	0	0	25454	24000	126682	27242	1011012	41667	109415	0	0	8389	474794	0	0
2024-06-08 10:11:32			0	40077	0	0	0	25459	24010	126694	27312	1011047	41678	109417	0	0	8388	475483	0	0
2024-06-08 10:12:32			0	40092	0	0	0	25464	24010	126686	27190	1011029	41679	109419	0	0	8388	474946	0	0
2024-06-08 10:13:32			0	40116	0	0	0	25467	24020	126655	27197	1011064	41668	109420	0	0	8390	474060	0	0
2024-06-08 10:14:32			0	40102	0	0	0	25457	24030	126679	27144	1011055	41680	109416	0	0	8389	474534	0	0
2024-06-08 10:15:32			0	40079	0	0	0	25477	24040	126614	26955	1011125	41693	109424	0	0	8388	475331	0	0
2024-06-08 10:16:32			0	40070	0	0	0	25470	24030	126702	26918	1011117	41681	109421	0	0	8387	475680	0	0
2024-06-08 10:17:32			0	40075	0	0	0	25472	24030	126750	27469	1011117	41670	109422	0	0	8387	475501	0	0
2024-06-08 10:18:32			0	40103	0	0	0	25480	24040	126647	27249	1011152	41682	109425	0	0	8389	474472	0	0
2024-06-08 10:19:32			0	40062	0	0	0	25472	24040	126638	27209	1011125	41693	109422	0	0	8387	475940	0	0
2024-06-08 10:20:32			0	40099	0	0	0	25470	24040	126650	27320	1011098	41682	109421	0	0	8389	474615	0	0
2024-06-08 10:21:32			0	40101	0	0	0	25480	24050	126619	27241	1011187	41682	109425	0	0	8389	474517	0	0
2024-06-08 10:22:32			0	40073	0	0	0	25485	24050	126650	27329	1011196	41671	109427	0	0	8387	475519	0	0
2024-06-08 10:23:32			0	40099	0	0	0	25480	24060	126591	27585	1011178	41683	109425	0	0	8389	474561	0	0
2024-06-08 10:24:32			0	40085	0	0	0	25475	24050	126658	27516	1011089	41682	109423	0	0	8388	475089	0	0
2024-06-08 10:25:32			0	40100	0	0	0	25467	24060	126591	27287	1011097	41683	109420	0	0	8389	474526	0	0
2024-06-08 10:26:32			0	40117	0	0	0	25459	24050	126511	27190	1011134	41660	109417	0	0	8390	473944	0	0
2024-06-08 10:27:32			0	40130	0	0	0	25446	24050	126607	27197	1011080	41671	109412	0	0	8391	473479	0	0
2024-06-08 10:28:32			0	40141	0	0	0	25454	24050	126535	27561	1011107	41660	109415	0	0	8391	473086	0	0
2024-06-08 10:29:32			0	40127	0	0	0	25446	24050	126503	27308	1011080	41671	109412	0	0	8391	473587	0	0
2024-06-08 10:30:32			0	40139	0	0	0	25457	24040	126543	27440	1011045	41693	109416	0	0	8391	473185	0	0
2024-06-08 10:31:32			0	40156	0	0	0	25454	24050	126511	27170	1011116	41671	109415	0	0	8392	472551	0	0
2024-06-08 10:32:32			0	40144	0	0	0	25462	24050	126467	27211	1011142	41693	109418	0	0	8391	472979	0	0
2024-06-08 10:33:32			0	40170	0	0	0	25462	24050	126423	27255	1011116	41671	109418	0	0	8393	472051	0	0
2024-06-08 10:34:32			0	40176	0	0	0	25462	24040	126339	26989	1011179	41693	109418	0	0	8393	471863	0	0
2024-06-08 10:35:32			0	40170	0	0	0	25467	24050	126431	27232	1011134	41671	109420	0	0	8392	472051	0	0
2024-06-08 10:36:32			0	40183	0	0	0	25472	24070	126383	27260	1011230	41685	109422	0	0	8393	471534	0	0
2024-06-08 10:37:32			0	40179	0	0	0	25454	24050	126399	27386	1011080	41660	109415	0	0	8393	471730	0	0
2024-06-08 10:38:32			0	40177	0	0	0	25449	24050	126339	27391	1011169	41671	109413	0	0	8393	471801	0	0
2024-06-08 10:39:32			0	40204	0	0	0	25470	24050	126343	27286	1011187	41682	109421	0	0	8394	470838	0	0
2024-06-08 10:40:32			0	40201	0	0	0	25480	24050	126399	27313	1011196	41671	109425	0	0	8394	470945	0	0
2024-06-08 10:41:32			0	40164	0	0	0	25472	24060	126379	27102	1011160	41672	109422	0	0	8392	472238	0	0
2024-06-08 10:42:32			0	40158	0	0	0	25472	24070	126435	27381	1011168	41662	109422	0	0	8392	472426	0	0
2024-06-08 10:43:32			0	40142	0	0	0	25470	24050	126447	27140	1011169	41671	109421	0	0	8391	473051	0	0
2024-06-08 10:44:32			0	40154	0	0	0	25472	24070	126479	27511	1011168	41662	109422	0	0	8392	472569	0	0
2024-06-08 10:45:32			0	40160	0	0	0	25464	24060	126467	27024	1011178	41672	109419	0	0	8392	472381	0	0
2024-06-08 10:46:32			0	40188	0	0	0	25480	24070	126391	27157	1011204	41673	109425	0	0	8393	471356	0	0
2024-06-08 10:47:32			0	40169	0	0	0	25477	24080	126419	27447	1011292	41685	109424	0	0	8392	472007	0	0
2024-06-08 10:48:32			0	40166	0	0	0	25480	24080	126367	27429	1011301	41674	109425	0	0	8392	472114	0	0
2024-06-08 10:49:32			0	40175	0	0	0	25501	24090	126355	27254	1011363	41686	109433	0	0	8392	471766	0	0
2024-06-08 10:50:32			0	40171	0	0	0	25506	24090	126371	27365	1011345	41686	109435	0	0	8392	471909	0	0
2024-06-08 10:51:32			0	40185	0	0	0	25511	24090	126363	27092	1011336	41686	109437	0	0	8393	471409	0	0
2024-06-08 10:52:32			0	40196	0	0	0	25522	24110	126355	27497	1011450	41676	109441	0	0	8393	470964	0	0
2024-06-08 10:53:32			0	40184	0	0	0	25529	24100	126275	27095	1011469	41699	109444	0	0	8392	471418	0	0
2024-06-08 10:54:32			0	40203	0	0	0	25532	24120	126295	27201	1011548	41689	109445	0	0	8393	470688	0	0
2024-06-08 10:55:32			0	40198	0	0	0	25555	24120	126347	27386	1011583	41701	109454	0	0	8393	470866	0	0
2024-06-08 10:56:32			0	40202	0	0	0	25579	24140	126231	27109	1011671	41691	109463	0	0	8393	470671	0	0
2024-06-08 10:57:32			0	40215	0	0	0	25602	24140	126255	26870	1011715	41702	109472	0	0	8393	470208	0	0
2024-06-08 10:58:32			0	40209	0	0	0	25615	24160	126271	27450	1011803	41693	109477	0	0	8392	470368	0	0
2024-06-08 10:59:32			0	40227	0	0	0	25620	24170	126275	27097	1011793	41694	109479	0	0	8393	469701	0	0
2024-06-08 11:00:32			0	40219	0	0	0	25633	24180	126255	27383	1011917	41695	109484	0	0	8393	469959	0	0
2024-06-08 11:01:32			0	40227	0	0	0	25651	24190	126275	27220	1011943	41707	109491	0	0	8393	469648	0	0
2024-06-08 11:02:32			0	40202	0	0	0	25654	24190	126219	27268	1011917	41707	109492	0	0	8392	470538	0	0
2024-06-08 11:03:32			0	40202	0	0	0	25649	24200	126223	26835	1011934	41697	109490	0	0	8392	470511	0	0
2024-06-08 11:04:32			0	40220	0	0	0	25633	24210	126223	27334	1011871	41708	109484	0	0	8393	469844	0	0
2024-06-08 11:05:32			0	40209	0	0	0	25628	24200	126283	27201	1011907	41697	109482	0	0	8392	470262	0	0
2024-06-08 11:06:32			0	40200	0	0	0	25636	24210	126207	27133	1011969	41708	109485	0	0	8392	470556	0	0
2024-06-08 11:07:32			0	40216	0	0	0	25644	24220	126231	27197	1012021	41699	109488	0	0	8393	469960	0	0
2024-06-08 11:08:32			0	40220	0	0	0	25649	24220	126187	26786	1012040	41708	109490	0	0	8393	469818	0	0
2024-06-08 11:09:32			0	40206	0	0	0	25657	24220	126151	26993	1012075	41688	109493	0	0	8392	470316	0	0
2024-06-08 11:10:32			0	40193	0	0	0	25677	24240	126255	27248	1012181	41722	109501	0	0	8391	470725	0	0
2024-06-08 11:11:32			0	40196	0	0	0	25693	24250	126255	27336	1012251	41723	109507	0	0	8391	470592	0	0
2024-06-08 11:12:32			0	40211	0	0	0	25709	24250	126231	26908	1012340	41723	109513	0	0	8391	470058	0	0
2024-06-08 11:13:32			0	40200	0	0	0	25735	24280	126279	26939	1012391	41705	109523	0	0	8390	470370	0	0
2024-06-08 11:14:32			0	40202	0	0	0	25758	24300	126215	27038	1012453	41717	109532	0	0	8390	470246	0	0
2024-06-08 11:15:32			0	40201	0	0	0	25763	24310	126255	27201	1012515	41718	109534	0	0	8390	470255	0	0
2024-06-08 11:16:32			0	40211	0	0	0	25779	24320	126199	27034	1012505	41718	109540	0	0	8390	469872	0	0
2024-06-08 11:17:32			0	40201	0	0	0	25792	24330	126211	26909	1012549	41719	109545	0	0	8390	470202	0	0
2024-06-08 11:18:32			0	40190	0	0	0	25799	24340	126183	26935	1012620	41720	109548	0	0	8389	470567	0	0
2024-06-08 11:19:32			0	40186	0	0	0	25802	24350	126279	27116	1012610	41721	109549	0	0	8389	470682	0	0
2024-06-08 11:20:32			0	40180	0	0	0	25810	24350	126171	27048	1012628	41709	109552	0	0	8388	470896	0	0
2024-06-08 11:21:32			0	40186	0	0	0	25812	24370	126207	27071	1012716	41722	109553	0	0	8389	470629	0	0
2024-06-08 11:22:32			0	40182	0	0	0	25818	24370	126163	27220	1012716	41711	109555	0	0	8388	470772	0	0
2024-06-08 11:23:32			0	40190	0	0	0	25833	24380	126223	27194	1012795	41714	109561	0	0	8389	470460	0	0
2024-06-08 11:24:32			0	40194	0	0	0	25823	24390	126123	26998	1012839	41725	109557	0	0	8389	470291	0	0
2024-06-08 11:25:32			0	40181	0	0	0	25831	24410	126211	26908	1012846	41738	109560	0	0	8388	470701	0	0
2024-06-08 11:26:32			0	40200	0	0	0	25841	24400	126131	27190	1012848	41726	109564	0	0	8389	470051	0	0
2024-06-08 11:27:32			0	40217	0	0	0	25854	24410	126099	27227	1012927	41727	109569	0	0	8390	469420	0	0
2024-06-08 11:28:32			0	40241	0	0	0	25849	24410	126047	27180	1012891	41727	109567	0	0	8391	468568	0	0
2024-06-08 11:29:32			0	40240	0	0	0	25849	24420	125923	26871	1012944	41717	109567	0	0	8391	468577	0	0
2024-06-08 11:30:32			0	40269	0	0	0	25857	24430	125923	26946	1012979	41728	109570	0	0	8392	467521	0	0
2024-06-08 11:31:32			0	40310	0	0	0	25872	24450	125751	27237	1013067	41731	109576	0	0	8394	466016	0	0
2024-06-08 11:32:32			0	40344	0	0	0	25883	24450	125699	27029	1013067	41731	109580	0	0	8396	464813	0	0
2024-06-08 11:33:32			0	40370	0	0	0	25893	24460	125655	27150	1013138	41731	109584	0	0	8397	463868	0	0
2024-06-08 11:34:32			0	40399	0	0	0	25906	24460	125531	27317	1013173	41732	109589	0	0	8399	462845	0	0
2024-06-08 11:35:32			0	40435	0	0	0	25914	24470	125355	27189	1013182	41744	109592	0	0	8400	461550	0	0
2024-06-08 11:36:32			0	40475	0	0	0	25929	24490	125391	27149	1013243	41746	109598	0	0	8402	460091	0	0
2024-06-08 11:37:32			0	40497	0	0	0	25937	24500	125159	27086	1013420	41735	109601	0	0	8403	459291	0	0
2024-06-08 11:38:32			0	40533	0	0	0	25963	24510	125107	27352	1013303	41748	109611	0	0	8405	458002	0	0
2024-06-08 11:39:32			0	40542	0	0	0	25966	24510	125019	27131	1013473	41737	109612	0	0	8405	457687	0	0
2024-06-08 11:40:32			0	40590	0	0	0	25984	24520	124927	27180	1013454	41749	109619	0	0	8407	455980	0	0
2024-06-08 11:41:32			0	40581	0	0	0	25981	24530	124915	27395	1013426	41739	109618	0	0	8407	456269	0	0
2024-06-08 11:42:32			0	40580	0	0	0	25976	24530	124863	27111	1013400	41728	109616	0	0	8407	456304	0	0
2024-06-08 11:43:32			0	40647	0	0	0	25961	24530	124699	27416	1013373	41728	109610	0	0	8411	453963	0	0
2024-06-08 11:44:32			0	40684	0	0	0	25950	24530	124619	27059	1013320	41717	109606	0	0	8413	452673	0	0
2024-06-08 11:45:32			0	40741	0	0	0	25945	24540	124431	27267	1013355	41739	109604	0	0	8416	450663	0	0
2024-06-08 11:46:32			0	40787	0	0	0	25945	24530	124344	26856	1013400	41717	109604	0	0	8418	449091	0	0
2024-06-08 11:47:32			0	40787	0	0	0	25935	24530	124280	27300	1013284	41727	109600	0	0	8419	449091	0	0
2024-06-08 11:48:32			0	40808	0	0	0	25914	24530	124220	27270	1013266	41717	109592	0	0	8420	448362	0	0
2024-06-08 11:49:32			0	40823	0	0	0	25880	24520	124224	27391	1013088	41705	109579	0	0	8421	447868	0	0
2024-06-08 11:50:32			0	40827	0	0	0	25846	24500	124284	27232	1012912	41690	109566	0	0	8422	447780	0	0
2024-06-08 11:51:32			0	40837	0	0	0	25807	24460	124340	27424	1012745	41699	109551	0	0	8423	447535	0	0
2024-06-08 11:52:32			0	40831	0	0	0	25774	24440	124332	27241	1012711	41697	109538	0	0	8423	447793	0	0
2024-06-08 11:53:32			0	40838	0	0	0	25740	24410	124272	27215	1012552	41694	109525	0	0	8424	447626	0	0
2024-06-08 11:54:32			0	40843	0	0	0	25732	24410	124352	27270	1012552	41694	109522	0	0	8424	447453	0	0
2024-06-08 11:55:32			0	40817	0	0	0	25735	24400	124316	26996	1012669	41727	109523	0	0	8423	448380	0	0
2024-06-08 11:56:32			0	40827	0	0	0	25758	24400	124320	27339	1012722	41715	109532	0	0	8423	448033	0	0
2024-06-08 11:57:32			0	40784	0	0	0	25781	24410	124396	27272	1012811	41727	109541	0	0	8421	449500	0	0
2024-06-08 11:58:32			0	40743	0	0	0	25807	24430	124471	27350	1012926	41750	109551	0	0	8418	450874	0	0
2024-06-08 11:59:32			0	40773	0	0	0	25844	24440	124568	27178	1013130	41729	109565	0	0	8419	449806	0	0
2024-06-08 12:00:32			0	40721	0	0	0	25864	24450	124571	27076	1013129	41731	109573	0	0	8416	451588	0	0
2024-06-08 12:01:32			0	40733	0	0	0	25893	24470	124671	27426	1013262	41755	109584	0	0	8416	451120	0	0
2024-06-08 12:02:32			0	40726	0	0	0	25924	24480	124691	27409	1013341	41745	109596	0	0	8415	451338	0	0
2024-06-08 12:03:32			0	40697	0	0	0	25942	24500	124631	27332	1013367	41735	109603	0	0	8414	452296	0	0
2024-06-08 12:04:32			0	40689	0	0	0	25958	24500	124767	27147	1013429	41736	109609	0	0	8413	452575	0	0
2024-06-08 12:05:32			0	40684	0	0	0	25966	24520	124647	27253	1013516	41738	109612	0	0	8413	452698	0	0
2024-06-08 12:06:32			0	40685	0	0	0	25989	24530	124671	26844	1013471	41738	109621	0	0	8412	452638	0	0
2024-06-08 12:07:32			0	40660	0	0	0	26005	24560	124699	27369	1013684	41741	109627	0	0	8411	453432	0	0
2024-06-08 12:08:32			0	40684	0	0	0	26028	24560	124671	27034	1013719	41741	109636	0	0	8412	452596	0	0
2024-06-08 12:09:32			0	40714	0	0	0	26041	24570	124639	27123	1013781	41752	109641	0	0	8413	451526	0	0
2024-06-08 12:10:32			0	40660	0	0	0	26057	24580	124623	27320	1013887	41744	109647	0	0	8410	453381	0	0
2024-06-08 12:11:32			0	40671	0	0	0	26077	24600	124735	27144	1013948	41767	109655	0	0	8410	452946	0	0
2024-06-08 12:12:32			0	40656	0	0	0	26103	24620	124611	27315	1014027	41780	109665	0	0	8409	453418	0	0
2024-06-08 12:13:32			0	40662	0	0	0	26103	24630	124679	27351	1014044	41769	109665	0	0	8410	453183	0	0
2024-06-08 12:14:32			0	40681	0	0	0	26119	24650	124639	27261	1014150	41749	109671	0	0	8410	452470	0	0
2024-06-08 12:15:32			0	40666	0	0	0	26148	24660	124559	27261	1014229	41761	109682	0	0	8409	452967	0	0
2024-06-08 12:16:32			0	40684	0	0	0	26148	24670	124679	27338	1014193	41762	109682	0	0	8410	452314	0	0
2024-06-08 12:17:32			0	40669	0	0	0	26158	24690	124583	27371	1014246	41763	109686	0	0	8409	452785	0	0
2024-06-08 12:18:32			0	40668	0	0	0	26163	24690	124539	27249	1014335	41753	109688	0	0	8409	452820	0	0
2024-06-08 12:19:32			0	40684	0	0	0	26171	24700	124527	27381	1014378	41765	109691	0	0	8410	452237	0	0
2024-06-08 12:20:32			0	40676	0	0	0	26181	24720	124503	27341	1014413	41767	109695	0	0	8409	452465	0	0
2024-06-08 12:21:32			0	40652	0	0	0	26179	24720	124607	27157	1014439	41767	109694	0	0	8408	453301	0	0
2024-06-08 12:22:32			0	40665	0	0	0	26202	24730	124595	27230	1014537	41779	109703	0	0	8408	452822	0	0
2024-06-08 12:23:32			0	40634	0	0	0	26192	24750	124727	27282	1014429	41781	109699	0	0	8407	453851	0	0
2024-06-08 12:24:32			0	40648	0	0	0	26161	24730	124735	27050	1014242	41735	109687	0	0	8408	453415	0	0
2024-06-08 12:25:32			0	40647	0	0	0	26122	24720	124651	27170	1014118	41745	109672	0	0	8409	453475	0	0
2024-06-08 12:26:32			0	40659	0	0	0	26106	24710	124623	27357	1014173	41743	109666	0	0	8410	453082	0	0
2024-06-08 12:27:32			0	40659	0	0	0	26111	24690	124575	27291	1014227	41764	109668	0	0	8410	453134	0	0
2024-06-08 12:28:32			0	40716	0	0	0	26116	24700	124439	27076	1014245	41765	109670	0	0	8412	451124	0	0
2024-06-08 12:29:32			0	40817	0	0	0	26129	24720	124216	27530	1014324	41767	109675	0	0	8418	447569	0	0
2024-06-08 12:30:32			0	40900	0	0	0	26142	24730	123960	27873	1014421	41756	109680	0	0	8422	444675	0	0
2024-06-08 12:31:32			0	40957	0	0	0	26142	24730	123652	27377	1014287	41746	109680	0	0	8425	442711	0	0
2024-06-08 12:32:32			0	41013	0	0	0	26122	24730	123648	27421	1014269	41735	109672	0	0	8428	440785	0	0
2024-06-08 12:33:32			0	41019	0	0	0	26129	24720	123596	27464	1014190	41755	109675	0	0	8428	440604	0	0
2024-06-08 12:34:32			0	41015	0	0	0	26119	24710	123564	27260	1014280	41754	109671	0	0	8428	440766	0	0
2024-06-08 12:35:32			0	41008	0	0	0	26129	24710	123700	27459	1014280	41754	109675	0	0	8428	441007	0	0
2024-06-08 12:36:32			0	40996	0	0	0	26148	24730	123676	27254	1014368	41756	109682	0	0	8427	441369	0	0
2024-06-08 12:37:32			0	41002	0	0	0	26161	24730	123608	27315	1014430	41768	109687	0	0	8427	441163	0	0
2024-06-08 12:38:32			0	41032	0	0	0	26181	24750	123584	27578	1014402	41758	109695	0	0	8428	440083	0	0
2024-06-08 12:39:32			0	41006	0	0	0	26184	24750	123640	27379	1014491	41770	109696	0	0	8427	440975	0	0
2024-06-08 12:40:32			0	40942	0	0	0	26199	24760	123788	27215	1014508	41783	109702	0	0	8423	443152	0	0
2024-06-08 12:41:32			0	40906	0	0	0	26207	24770	123836	27072	1014632	41771	109705	0	0	8421	444367	0	0
2024-06-08 12:42:32			0	40892	0	0	0	26231	24780	124024	27371	1014729	41785	109714	0	0	8420	444825	0	0
2024-06-08 12:43:32			0	40867	0	0	0	26249	24790	124016	27659	1014818	41773	109721	0	0	8418	445663	0	0
2024-06-08 12:44:32			0	40882	0	0	0	26262	24810	123924	27526	1014799	41775	109726	0	0	8419	445095	0	0
2024-06-08 12:45:32			0	40894	0	0	0	26280	24810	123872	27431	1014853	41764	109733	0	0	8419	444681	0	0
2024-06-08 12:46:32			0	40876	0	0	0	26285	24820	123872	27282	1014932	41765	109735	0	0	8418	445277	0	0
2024-06-08 12:47:32			0	40897	0	0	0	26290	24830	123868	27396	1014914	41778	109737	0	0	8420	444527	0	0
2024-06-08 12:48:32			0	40880	0	0	0	26290	24830	124008	26958	1014941	41778	109737	0	0	8419	445113	0	0
2024-06-08 12:49:32			0	40868	0	0	0	26298	24840	123940	27405	1014993	41779	109740	0	0	8418	445502	0	0
2024-06-08 12:50:32			0	40854	0	0	0	26301	24850	124044	27111	1015055	41779	109741	0	0	8417	445960	0	0
2024-06-08 12:51:32			0	40870	0	0	0	26301	24860	123936	27222	1015054	41780	109741	0	0	8418	445383	0	0
2024-06-08 12:52:32			0	40862	0	0	0	26316	24850	123948	27260	1015037	41791	109747	0	0	8417	445684	0	0
2024-06-08 12:53:32			0	40884	0	0	0	26309	24860	123952	27265	1015054	41780	109744	0	0	8419	444900	0	0
2024-06-08 12:54:32			0	40896	0	0	0	26309	24870	124008	27310	1015089	41792	109744	0	0	8419	444461	0	0
2024-06-08 12:55:32			0	40930	0	0	0	26306	24870	123776	27345	1015063	41792	109743	0	0	8421	443289	0	0
2024-06-08 12:56:32			0	41013	0	0	0	26298	24870	123544	27258	1014964	41781	109740	0	0	8426	440436	0	0
2024-06-08 12:57:32			0	41050	0	0	0	26296	24870	123384	27364	1015036	41781	109739	0	0	8428	439167	0	0
2024-06-08 12:58:32			0	41128	0	0	0	26296	24870	123184	27633	1014982	41792	109739	0	0	8432	436498	0	0
2024-06-08 12:59:32			0	41172	0	0	0	26293	24870	123188	27156	1015018	41781	109738	0	0	8434	434996	0	0
2024-06-08 13:00:32			0	41215	0	0	0	26293	24880	122964	27286	1015000	41781	109738	0	0	8436	433506	0	0
2024-06-08 13:01:32			0	41249	0	0	0	26296	24880	122884	27116	1015053	41781	109739	0	0	8438	432350	0	0
2024-06-08 13:02:32			0	41285	0	0	0	26293	24870	122708	27282	1015036	41781	109738	0	0	8440	431151	0	0
2024-06-08 13:03:32			0	41321	0	0	0	26288	24880	122592	27400	1015080	41770	109736	0	0	8442	429905	0	0
2024-06-08 13:04:32			0	41360	0	0	0	26285	24870	122592	27215	1015036	41781	109735	0	0	8444	428609	0	0
2024-06-08 13:05:32			0	41425	0	0	0	26296	24870	122416	27350	1015045	41770	109739	0	0	8447	426411	0	0
2024-06-08 13:06:32			0	41444	0	0	0	26290	24880	122277	27074	1015088	41782	109737	0	0	8449	425746	0	0
2024-06-08 13:07:32			0	41473	0	0	0	26298	24890	122185	27216	1015097	41783	109740	0	0	8450	424744	0	0
2024-06-08 13:08:32			0	41488	0	0	0	26298	24890	122065	27326	1015070	41783	109740	0	0	8451	424239	0	0
2024-06-08 13:09:32			0	41503	0	0	0	26298	24880	122089	27287	1015107	41803	109740	0	0	8451	423758	0	0
2024-06-08 13:10:32			0	41504	0	0	0	26306	24890	122117	27464	1015132	41784	109743	0	0	8451	423700	0	0
2024-06-08 13:11:32			0	41504	0	0	0	26309	24890	122133	27516	1015132	41794	109744	0	0	8451	423700	0	0
2024-06-08 13:12:32			0	41475	0	0	0	26309	24880	122137	27313	1015195	41782	109744	0	0	8450	424701	0	0
2024-06-08 13:13:32			0	41465	0	0	0	26316	24900	122213	27131	1015123	41784	109747	0	0	8449	424990	0	0
2024-06-08 13:14:32			0	41458	0	0	0	26311	24900	122301	27322	1015168	41773	109745	0	0	8449	425225	0	0
2024-06-08 13:15:32			0	41442	0	0	0	26314	24900	122233	27326	1015176	41773	109746	0	0	8448	425765	0	0
2024-06-08 13:16:32			0	41425	0	0	0	26319	24900	122296	27485	1015176	41794	109748	0	0	8447	426339	0	0
2024-06-08 13:17:32			0	41428	0	0	0	26306	24910	122284	27092	1015238	41774	109743	0	0	8448	426213	0	0
2024-06-08 13:18:32			0	41407	0	0	0	26311	24900	122304	27287	1015203	41784	109745	0	0	8446	426946	0	0
2024-06-08 13:19:32			0	41450	0	0	0	26324	24910	122301	27460	1015212	41774	109750	0	0	8448	425471	0	0
2024-06-08 13:20:32			0	41450	0	0	0	26322	24910	122293	27320	1015212	41774	109749	0	0	8448	425471	0	0
2024-06-08 13:21:32			0	41440	0	0	0	26327	24910	122309	27118	1015212	41807	109751	0	0	8448	425809	0	0
2024-06-08 13:22:32			0	41435	0	0	0	26329	24920	122281	27376	1015229	41796	109752	0	0	8448	425953	0	0
2024-06-08 13:23:32			0	41474	0	0	0	26348	24920	122265	27246	1015309	41786	109759	0	0	8449	424638	0	0
2024-06-08 13:24:32			0	41438	0	0	0	26353	24930	122233	27365	1015273	41787	109761	0	0	8447	425828	0	0
2024-06-08 13:25:32			0	41442	0	0	0	26348	24920	122265	27289	1015336	41786	109759	0	0	8448	425717	0	0
2024-06-08 13:26:32			0	41435	0	0	0	26350	24930	122313	27222	1015318	41786	109760	0	0	8447	425929	0	0
2024-06-08 13:27:32			0	41446	0	0	0	26363	24940	122365	27157	1015362	41788	109765	0	0	8448	425534	0	0
2024-06-08 13:28:32			0	41422	0	0	0	26355	24940	122368	27469	1015362	41788	109762	0	0	8446	426343	0	0
2024-06-08 13:29:32			0	41402	0	0	0	26361	24950	122392	27376	1015299	41788	109764	0	0	8445	426994	0	0
2024-06-08 13:30:32			0	41448	0	0	0	26361	24940	122245	27277	1015362	41776	109764	0	0	8448	425466	0	0
2024-06-08 13:31:32			0	41449	0	0	0	26366	24940	122309	27092	1015477	41788	109766	0	0	8448	425432	0	0
2024-06-08 13:32:32			0	41444	0	0	0	26386	24950	122245	27345	1015602	41822	109774	0	0	8447	425577	0	0
2024-06-08 13:33:32			0	41465	0	0	0	26405	24970	122193	27095	1015627	41779	109781	0	0	8448	424821	0	0
2024-06-08 13:34:32			0	41468	0	0	0	26410	24980	122165	27376	1015671	41802	109783	0	0	8448	424696	0	0
2024-06-08 13:35:32			0	41472	0	0	0	26420	25000	122201	27258	1015679	41815	109787	0	0	8448	424513	0	0
2024-06-08 13:36:32			0	41474	0	0	0	26438	25000	122197	27326	1015759	41792	109794	0	0	8448	424446	0	0
2024-06-08 13:37:32			0	41437	0	0	0	26441	25000	122277	27569	1015759	41803	109795	0	0	8446	425692	0	0
2024-06-08 13:38:32			0	41425	0	0	0	26454	25000	122236	27445	1015794	41783	109800	0	0	8445	426097	0	0
2024-06-08 13:39:32			0	41410	0	0	0	26459	25010	122384	27533	1015812	41816	109802	0	0	8444	426579	0	0
2024-06-08 13:40:32			0	41398	0	0	0	26459	25020	122368	27170	1015829	41795	109802	0	0	8444	426960	0	0
2024-06-08 13:41:32			0	41408	0	0	0	26472	25020	122400	27346	1015909	41806	109807	0	0	8444	426622	0	0
2024-06-08 13:42:32			0	41392	0	0	0	26472	25040	122352	27251	1015863	41819	109807	0	0	8443	427114	0	0
2024-06-08 13:43:32			0	41375	0	0	0	26477	25050	122428	27320	1015934	41798	109809	0	0	8442	427664	0	0
2024-06-08 13:44:32			0	41379	0	0	0	26475	25050	122464	27313	1016041	41809	109808	0	0	8443	427529	0	0
2024-06-08 13:45:32			0	41397	0	0	0	26467	25050	122432	27614	1015934	41798	109805	0	0	8444	426921	0	0
2024-06-08 13:46:32			0	41389	0	0	0	26467	25050	122432	27364	1015961	41798	109805	0	0	8443	427191	0	0
2024-06-08 13:47:32			0	41402	0	0	0	26472	25060	122448	27327	1015916	41798	109807	0	0	8444	426728	0	0
2024-06-08 13:48:32			0	41384	0	0	0	26483	25060	122448	27421	1015996	41820	109811	0	0	8443	427336	0	0
2024-06-08 13:49:32			0	41410	0	0	0	26477	25060	122404	27630	1015978	41810	109809	0	0	8444	426458	0	0
2024-06-08 13:50:32			0	41408	0	0	0	26488	25060	122416	27218	1016059	41821	109813	0	0	8444	426526	0	0
2024-06-08 13:51:32			0	41421	0	0	0	26488	25060	122264	27263	1016085	41821	109813	0	0	8445	426087	0	0
2024-06-08 13:52:32			0	41415	0	0	0	26493	25080	122376	27234	1016146	41790	109815	0	0	8444	426241	0	0
2024-06-08 13:53:32			0	41385	0	0	0	26498	25080	122368	27211	1016093	41800	109817	0	0	8443	427254	0	0
2024-06-08 13:54:32			0	41375	0	0	0	26436	25080	122476	27431	1015825	41778	109793	0	0	8443	427592	0	0
2024-06-08 13:55:32			0	41396	0	0	0	26394	25050	122432	27334	1015640	41787	109777	0	0	8445	426955	0	0
2024-06-08 13:56:32			0	41413	0	0	0	26373	25030	122336	27379	1015677	41774	109769	0	0	8446	426430	0	0
2024-06-08 13:57:32			0	41421	0	0	0	26363	25020	122272	27609	1015722	41795	109765	0	0	8447	426184	0	0
2024-06-08 13:58:32			0	41478	0	0	0	26363	25020	122205	27213	1015588	41795	109765	0	0	8450	424263	0	0
2024-06-08 13:59:32			0	41485	0	0	0	26324	25020	122085	27317	1015561	41773	109750	0	0	8451	424027	0	0
2024-06-08 14:00:32			0	41496	0	0	0	26288	24990	122137	27145	1015340	41758	109736	0	0	8452	423729	0	0
2024-06-08 14:01:32			0	41516	0	0	0	26277	24980	122057	27196	1015332	41770	109732	0	0	8453	423081	0	0
2024-06-08 14:02:32			0	41519	0	0	0	26275	24980	121953	26937	1015385	41781	109731	0	0	8453	422980	0	0
2024-06-08 14:03:32			0	41516	0	0	0	26296	24980	122013	26823	1015546	41802	109739	0	0	8453	423081	0	0
2024-06-08 14:04:32			0	41507	0	0	0	26329	24990	122101	27286	1015688	41791	109752	0	0	8452	423359	0	0
2024-06-08 14:05:32			0	41510	0	0	0	26366	25010	122041	27405	1015777	41793	109766	0	0	8451	423210	0	0
2024-06-08 14:06:32			0	41513	0	0	0	26389	25020	122085	27417	1015775	41795	109775	0	0	8451	423085	0	0
2024-06-08 14:07:32			0	41492	0	0	0	26402	25020	122169	27325	1015909	41784	109780	0	0	8450	423792	0	0
2024-06-08 14:08:32			0	41469	0	0	0	26412	25040	122185	27145	1015881	41796	109784	0	0	8448	424518	0	0
2024-06-08 14:09:32			0	41485	0	0	0	26441	25050	122145	27485	1016015	41798	109795	0	0	8449	423955	0	0
2024-06-08 14:10:32			0	41469	0	0	0	26475	25050	122205	27197	1015988	41809	109808	0	0	8447	424494	0	0
2024-06-08 14:11:32			0	41449	0	0	0	26493	25070	122225	27386	1016102	41811	109815	0	0	8446	425119	0	0
2024-06-08 14:12:32			0	41439	0	0	0	26522	25080	122217	27750	1016218	41799	109826	0	0	8445	425432	0	0
2024-06-08 14:13:32			0	41429	0	0	0	26537	25090	122317	27433	1016217	41825	109832	0	0	8444	425745	0	0
2024-06-08 14:14:32			0	41434	0	0	0	26545	25100	122317	27557	1016199	41813	109835	0	0	8445	425552	0	0
2024-06-08 14:15:32			0	41416	0	0	0	26537	25100	122284	27479	1016207	41802	109832	0	0	8444	426159	0	0
2024-06-08 14:16:32			0	41423	0	0	0	26537	25100	122228	27360	1016207	41802	109832	0	0	8444	425923	0	0
2024-06-08 14:17:32			0	41438	0	0	0	26529	25110	122297	27187	1016216	41803	109829	0	0	8445	425393	0	0
2024-06-08 14:18:32			0	41406	0	0	0	26542	25120	122280	27274	1016260	41815	109834	0	0	8443	426448	0	0
2024-06-08 14:19:32			0	41391	0	0	0	26548	25120	122404	27090	1016314	41804	109836	0	0	8442	426954	0	0
2024-06-08 14:20:32			0	41382	0	0	0	26550	25120	122356	27072	1016269	41804	109837	0	0	8442	427258	0	0
2024-06-08 14:21:32			0	41380	0	0	0	26561	25130	122308	27142	1016393	41806	109841	0	0	8442	427301	0	0
2024-06-08 14:22:32			0	41370	0	0	0	26576	25140	122404	27182	1016410	41828	109847	0	0	8441	427615	0	0
2024-06-08 14:23:32			0	41381	0	0	0	26576	25150	122488	27272	1016445	41818	109847	0	0	8441	427219	0	0
2024-06-08 14:24:32			0	41364	0	0	0	26581	25150	122424	27267	1016481	41819	109849	0	0	8440	427793	0	0
2024-06-08 14:25:32			0	41368	0	0	0	26597	25150	122472	26899	1016534	41807	109855	0	0	8440	427658	0	0
2024-06-08 14:26:32			0	41369	0	0	0	26605	25170	122416	27171	1016587	41820	109858	0	0	8440	427576	0	0
2024-06-08 14:27:32			0	41347	0	0	0	26612	25180	122476	27085	1016604	41809	109861	0	0	8439	428295	0	0
2024-06-08 14:28:32			0	41349	0	0	0	26618	25190	122400	27365	1016621	41822	109863	0	0	8439	428203	0	0
2024-06-08 14:29:32			0	41379	0	0	0	26628	25200	122376	27241	1016683	41833	109867	0	0	8441	427165	0	0
2024-06-08 14:30:32			0	41337	0	0	0	26631	25210	122416	27241	1016674	41834	109868	0	0	8438	428560	0	0
2024-06-08 14:31:32			0	41325	0	0	0	26646	25200	122516	27242	1016746	41801	109874	0	0	8437	428990	0	0
2024-06-08 14:32:32			0	41344	0	0	0	26651	25220	122384	27473	1016825	41813	109876	0	0	8438	428299	0	0
2024-06-08 14:33:32			0	41349	0	0	0	26659	25230	122368	27488	1016869	41814	109879	0	0	8439	428106	0	0
2024-06-08 14:34:32			0	41341	0	0	0	26670	25240	122400	27092	1016832	41848	109883	0	0	8438	428352	0	0
2024-06-08 14:35:32			0	41335	0	0	0	26672	25240	122384	27452	1016841	41837	109884	0	0	8438	428555	0	0
2024-06-08 14:36:32			0	41344	0	0	0	26675	25240	122400	27105	1016868	41804	109885	0	0	8438	428251	0	0
2024-06-08 14:37:32			0	41354	0	0	0	26677	25250	122352	27203	1016850	41804	109886	0	0	8439	427888	0	0
2024-06-08 14:38:32			0	41342	0	0	0	26667	25250	122332	27291	1016912	41828	109882	0	0	8438	428294	0	0
2024-06-08 14:39:32			0	41334	0	0	0	26651	25250	122388	27248	1016858	41816	109876	0	0	8438	428564	0	0
2024-06-08 14:40:32			0	41352	0	0	0	26664	25250	122420	27254	1016858	41838	109881	0	0	8439	427956	0	0
2024-06-08 14:41:32			0	41329	0	0	0	26659	25260	122476	27109	1016920	41828	109879	0	0	8438	428709	0	0
2024-06-08 14:42:32			0	41334	0	0	0	26672	25250	122384	27128	1016858	41816	109884	0	0	8438	428564	0	0
2024-06-08 14:43:32			0	41306	0	0	0	26670	25270	122384	27201	1016911	41817	109883	0	0	8436	429463	0	0
2024-06-08 14:44:32			0	41331	0	0	0	26667	25270	122460	27173	1016991	41829	109882	0	0	8438	428617	0	0
2024-06-08 14:45:32			0	41328	0	0	0	26667	25260	122464	27017	1017001	41805	109882	0	0	8437	428743	0	0
2024-06-08 14:46:32			0	41323	0	0	0	26664	25270	122532	27208	1016991	41829	109881	0	0	8437	428888	0	0
2024-06-08 14:47:32			0	41336	0	0	0	26672	25270	122480	27062	1017045	41829	109884	0	0	8438	428448	0	0
2024-06-08 14:48:32			0	41327	0	0	0	26680	25260	122492	27296	1017009	41829	109887	0	0	8437	428777	0	0
2024-06-08 14:49:32			0	41319	0	0	0	26685	25280	122548	27332	1016955	41831	109889	0	0	8437	428999	0	0
2024-06-08 14:50:32			0	41327	0	0	0	26690	25290	122548	27348	1017132	41819	109891	0	0	8437	428704	0	0
2024-06-08 14:51:32			0	41326	0	0	0	26703	25290	122416	27196	1017132	41841	109896	0	0	8437	428737	0	0
2024-06-08 14:52:32			0	41315	0	0	0	26706	25290	122436	27119	1017106	41831	109897	0	0	8436	429109	0	0
2024-06-08 14:53:32			0	41308	0	0	0	26709	25290	122384	27130	1017141	41832	109898	0	0	8436	429346	0	0
2024-06-08 14:54:32			0	41327	0	0	0	26719	25300	122368	27045	1017212	41832	109902	0	0	8437	428679	0	0
2024-06-08 14:55:32			0	41328	0	0	0	26722	25310	122364	27355	1017194	41844	109903	0	0	8437	428621	0	0
2024-06-08 14:56:32			0	41330	0	0	0	26729	25310	122404	27393	1017256	41855	109906	0	0	8437	428553	0	0
2024-06-08 14:57:32			0	41330	0	0	0	26737	25320	122352	27528	1017291	41856	109909	0	0	8437	428529	0	0
2024-06-08 14:58:32			0	41326	0	0	0	26755	25330	122392	27156	1017335	41845	109916	0	0	8436	428640	0	0
2024-06-08 14:59:32			0	41345	0	0	0	26761	25330	122420	27502	1017344	41834	109918	0	0	8437	427998	0	0
2024-06-08 15:00:32			0	41331	0	0	0	26768	25340	122384	27371	1017495	41836	109921	0	0	8436	428447	0	0
2024-06-08 15:01:32			0	41331	0	0	0	26779	25350	122352	27526	1017485	41859	109925	0	0	8436	428422	0	0
2024-06-08 15:02:32			0	41305	0	0	0	26799	25360	122460	27246	1017521	41837	109933	0	0	8434	429277	0	0
2024-06-08 15:03:32			0	41328	0	0	0	26797	25370	122444	27419	1017600	41849	109932	0	0	8436	428475	0	0
2024-06-08 15:04:32			0	41322	0	0	0	26810	25370	122472	27414	1017546	41849	109937	0	0	8435	428678	0	0
2024-06-08 15:05:32			0	41313	0	0	0	26823	25390	122404	27485	1017599	41851	109942	0	0	8435	428933	0	0
2024-06-08 15:06:32			0	41310	0	0	0	26823	25390	122452	27244	1017688	41840	109942	0	0	8434	429035	0	0
2024-06-08 15:07:32			0	41302	0	0	0	26828	25400	122476	27147	1017678	41853	109944	0	0	8434	429281	0	0
2024-06-08 15:08:32			0	41320	0	0	0	26828	25410	122376	27358	1017633	41854	109944	0	0	8435	428648	0	0
2024-06-08 15:09:32			0	41292	0	0	0	26833	25410	122404	27433	1017669	41842	109946	0	0	8433	429595	0	0
2024-06-08 15:10:32			0	41295	0	0	0	26833	25410	122468	27687	1017749	41842	109946	0	0	8434	429493	0	0
2024-06-08 15:11:32			0	41299	0	0	0	26844	25410	122460	27185	1017696	41854	109950	0	0	8434	429358	0	0
2024-06-08 15:12:32			0	41284	0	0	0	26854	25420	122476	27038	1017758	41854	109954	0	0	8433	429841	0	0
2024-06-08 15:13:32			0	41265	0	0	0	26864	25430	122460	27105	1017811	41855	109958	0	0	8431	430460	0	0
2024-06-08 15:14:32			0	41281	0	0	0	26867	25440	122496	26961	1017873	41855	109959	0	0	8432	429894	0	0
2024-06-08 15:15:32			0	41262	0	0	0	26875	25440	122532	27204	1017881	41834	109962	0	0	8431	430537	0	0
2024-06-08 15:16:32			0	41238	0	0	0	26872	25440	122500	27336	1017881	41845	109961	0	0	8430	431351	0	0
2024-06-08 15:17:32			0	41260	0	0	0	26872	25450	122520	27156	1017863	41857	109961	0	0	8431	430581	0	0
2024-06-08 15:18:32			0	41252	0	0	0	26872	25440	122532	27237	1017881	41856	109961	0	0	8431	430876	0	0
2024-06-08 15:19:32			0	41243	0	0	0	26875	25450	122540	27241	1017898	41857	109962	0	0	8430	431157	0	0
2024-06-08 15:20:32			0	41255	0	0	0	26877	25450	122520	27055	1017890	41846	109963	0	0	8431	430750	0	0
2024-06-08 15:21:32			0	41247	0	0	0	26888	25460	122652	27022	1017907	41869	109967	0	0	8430	430996	0	0
2024-06-08 15:22:32			0	41236	0	0	0	26896	25460	122612	27085	1017969	41858	109970	0	0	8430	431369	0	0
2024-06-08 15:23:32			0	41227	0	0	0	26898	25470	122652	26998	1017960	41849	109971	0	0	8429	431650	0	0
2024-06-08 15:24:32			0	41192	0	0	0	26890	25470	122728	27326	1017924	41848	109968	0	0	8427	432838	0	0
2024-06-08 15:25:32			0	41196	0	0	0	26896	25470	122716	27268	1018013	41849	109970	0	0	8427	432702	0	0
2024-06-08 15:26:32			0	41183	0	0	0	26901	25480	122684	27102	1018030	41860	109972	0	0	8427	433119	0	0
2024-06-08 15:27:32			0	41189	0	0	0	26909	25480	122752	26902	1018004	41860	109975	0	0	8427	432915	0	0
2024-06-08 15:28:32			0	41163	0	0	0	26888	25490	122796	27083	1018012	41861	109967	0	0	8426	433774	0	0
2024-06-08 15:29:32			0	41163	0	0	0	26880	25480	122768	26982	1017950	41849	109964	0	0	8426	433798	0	0
2024-06-08 15:30:32			0	41141	0	0	0	26864	25480	122788	27098	1017941	41837	109958	0	0	8425	434547	0	0
2024-06-08 15:31:32			0	41164	0	0	0	26859	25480	122824	27043	1017941	41871	109956	0	0	8426	433764	0	0
2024-06-08 15:32:32			0	41174	0	0	0	26864	25480	122832	27142	1017950	41816	109958	0	0	8427	433425	0	0
2024-06-08 15:33:32			0	41172	0	0	0	26862	25480	122792	27003	1017941	41860	109957	0	0	8427	433493	0	0
2024-06-08 15:34:32			0	41157	0	0	0	26846	25470	122780	26866	1017986	41849	109951	0	0	8426	434027	0	0
2024-06-08 15:35:32			0	41174	0	0	0	26862	25480	122808	27144	1017968	41871	109957	0	0	8427	433425	0	0
2024-06-08 15:36:32			0	41180	0	0	0	26849	25470	122820	27197	1017871	41848	109952	0	0	8427	433245	0	0
2024-06-08 15:37:32			0	41185	0	0	0	26836	25480	122852	27152	1017968	41849	109947	0	0	8428	433051	0	0
2024-06-08 15:38:32			0	41179	0	0	0	26844	25470	122820	26998	1017933	41849	109950	0	0	8427	433279	0	0
2024-06-08 15:39:32			0	41189	0	0	0	26857	25480	122684	27352	1018030	41849	109955	0	0	8428	432915	0	0
2024-06-08 15:40:32			0	41216	0	0	0	26872	25500	122728	27010	1018074	41862	109961	0	0	8429	431949	0	0
2024-06-08 15:41:32			0	41222	0	0	0	26883	25500	122748	27267	1018155	41850	109965	0	0	8429	431746	0	0
2024-06-08 15:42:32			0	41219	0	0	0	26885	25500	122644	26955	1018137	41850	109966	0	0	8429	431848	0	0
2024-06-08 15:43:32			0	41249	0	0	0	26872	25500	122616	26994	1018074	41850	109961	0	0	8431	430831	0	0
2024-06-08 15:44:32			0	41248	0	0	0	26877	25500	122600	26967	1018163	41850	109963	0	0	8431	430864	0	0
2024-06-08 15:45:32			0	41248	0	0	0	26880	25500	122556	27362	1018110	41850	109964	0	0	8431	430864	0	0
2024-06-08 15:46:32			0	41258	0	0	0	26875	25510	122556	27135	1018100	41851	109962	0	0	8431	430501	0	0
2024-06-08 15:47:32			0	41260	0	0	0	26864	25500	122568	27317	1017940	41829	109958	0	0	8431	430458	0	0
2024-06-08 15:48:32			0	41266	0	0	0	26833	25480	122524	27130	1017834	41849	109946	0	0	8432	430304	0	0
2024-06-08 15:49:32			0	41259	0	0	0	26818	25470	122520	27282	1017764	41836	109940	0	0	8432	430565	0	0
2024-06-08 15:50:32			0	41254	0	0	0	26802	25450	122560	27043	1017756	41834	109934	0	0	8432	430784	0	0
2024-06-08 15:51:32			0	41277	0	0	0	26799	25450	122536	27258	1017711	41846	109933	0	0	8433	430005	0	0
2024-06-08 15:52:32			0	41271	0	0	0	26797	25450	122584	27346	1017738	41824	109932	0	0	8433	430208	0	0
2024-06-08 15:53:32			0	41277	0	0	0	26797	25440	122512	27005	1017747	41856	109932	0	0	8433	430029	0	0
2024-06-08 15:54:32			0	41268	0	0	0	26792	25450	122508	27436	1017729	41834	109930	0	0	8433	430310	0	0
2024-06-08 15:55:32			0	41266	0	0	0	26799	25440	122588	27327	1017766	41833	109933	0	0	8433	430402	0	0
2024-06-08 15:56:32			0	41290	0	0	0	26807	25440	122524	27530	1017774	41834	109936	0	0	8434	429589	0	0
2024-06-08 15:57:32			0	41280	0	0	0	26815	25450	122492	27625	1017836	41857	109939	0	0	8433	429903	0	0
2024-06-08 15:58:32			0	41300	0	0	0	26815	25450	122404	27280	1017890	41834	109939	0	0	8434	429227	0	0
2024-06-08 15:59:32			0	41294	0	0	0	26828	25450	122476	27204	1017845	41857	109944	0	0	8434	429430	0	0
2024-06-08 16:00:32			0	41281	0	0	0	26828	25460	122408	27029	1017853	41824	109944	0	0	8433	429845	0	0
2024-06-08 16:01:32			0	41278	0	0	0	26805	25460	122448	27398	1017800	41834	109935	0	0	8433	429947	0	0
2024-06-08 16:02:32			0	41276	0	0	0	26779	25450	122528	27639	1017702	41824	109925	0	0	8434	430039	0	0
2024-06-08 16:03:32			0	41319	0	0	0	26735	25430	122504	27483	1017454	41811	109908	0	0	8436	428633	0	0
2024-06-08 16:04:32			0	41308	0	0	0	26685	25400	122380	27209	1017330	41797	109889	0	0	8437	429078	0	0
2024-06-08 16:05:32			0	41311	0	0	0	26657	25380	122440	27263	1017242	41806	109878	0	0	8437	429026	0	0
2024-06-08 16:06:32			0	41327	0	0	0	26633	25340	122452	27220	1017093	41803	109869	0	0	8438	428582	0	0
2024-06-08 16:07:32			0	41301	0	0	0	26633	25340	122504	27208	1017227	41814	109869	0	0	8437	429461	0	0
2024-06-08 16:08:32			0	41269	0	0	0	26633	25340	122484	27523	1017138	41825	109869	0	0	8435	430545	0	0
2024-06-08 16:09:32			0	41242	0	0	0	26631	25340	122604	27353	1017138	41825	109868	0	0	8434	431460	0	0
2024-06-08 16:10:32			0	41238	0	0	0	26615	25310	122656	27490	1017095	41811	109862	0	0	8434	431669	0	0
2024-06-08 16:11:32			0	41238	0	0	0	26618	25310	122692	27092	1017095	41811	109863	0	0	8434	431669	0	0
2024-06-08 16:12:32			0	41206	0	0	0	26625	25310	122700	27190	1017069	41789	109866	0	0	8432	432756	0	0
2024-06-08 16:13:32			0	41240	0	0	0	26620	25310	122720	27294	1017060	41811	109864	0	0	8434	431601	0	0
2024-06-08 16:14:32			0	41220	0	0	0	26638	25300	122696	27234	1017159	41810	109871	0	0	8432	432305	0	0
2024-06-08 16:15:32			0	41245	0	0	0	26646	25310	122644	27227	1017176	41811	109874	0	0	8434	431432	0	0
2024-06-08 16:16:32			0	41246	0	0	0	26646	25300	122688	27270	1017132	41821	109874	0	0	8434	431423	0	0
2024-06-08 16:17:32			0	41260	0	0	0	26654	25300	122688	27377	1017132	41821	109877	0	0	8434	430948	0	0
2024-06-08 16:18:32			0	41245	0	0	0	26659	25320	122660	27338	1017184	41823	109879	0	0	8433	431407	0	0
2024-06-08 16:19:32			0	41295	0	0	0	26654	25300	122656	27152	1017132	41810	109877	0	0	8436	429762	0	0
2024-06-08 16:20:32			0	41266	0	0	0	26664	25310	122648	27322	1017176	41822	109881	0	0	8434	430720	0	0
2024-06-08 16:21:32			0	41274	0	0	0	26644	25310	122592	27170	1017140	41822	109873	0	0	8435	430449	0	0
2024-06-08 16:22:32			0	41268	0	0	0	26623	25310	122592	27282	1016980	41799	109865	0	0	8435	430652	0	0
2024-06-08 16:23:32			0	41289	0	0	0	26599	25290	122632	27192	1016873	41797	109856	0	0	8437	429989	0	0
2024-06-08 16:24:32			0	41297	0	0	0	26599	25290	122576	27275	1016865	41797	109856	0	0	8437	429719	0	0
2024-06-08 16:25:32			0	41278	0	0	0	26589	25280	122568	27372	1016847	41819	109852	0	0	8436	430387	0	0
2024-06-08 16:26:32			0	41296	0	0	0	26584	25270	122564	27235	1016830	41806	109850	0	0	8437	429801	0	0
2024-06-08 16:27:32			0	41308	0	0	0	26576	25260	122556	27059	1016849	41817	109847	0	0	8438	429420	0	0
2024-06-08 16:28:32			0	41276	0	0	0	26607	25270	122552	26965	1016937	41829	109859	0	0	8436	430479	0	0
2024-06-08 16:29:32			0	41284	0	0	0	26628	25280	122644	27277	1017089	41831	109867	0	0	8436	430183	0	0
2024-06-08 16:30:32			0	41265	0	0	0	26654	25280	122628	27199	1017124	41831	109877	0	0	8434	430827	0	0
2024-06-08 16:31:32			0	41290	0	0	0	26688	25300	122600	27092	1017257	41832	109890	0	0	8435	429931	0	0
2024-06-08 16:32:32			0	41312	0	0	0	26714	25310	122628	27059	1017336	41811	109900	0	0	8436	429162	0	0
2024-06-08 16:33:32			0	41269	0	0	0	26724	25330	122548	27185	1017398	41834	109904	0	0	8434	430569	0	0
2024-06-08 16:34:32			0	41281	0	0	0	26748	25350	122512	27286	1017423	41826	109913	0	0	8434	430114	0	0
2024-06-08 16:35:32			0	41308	0	0	0	26740	25350	122508	27412	1017396	41826	109910	0	0	8436	429200	0	0
2024-06-08 16:36:32			0	41293	0	0	0	26753	25350	122556	27367	1017450	41814	109915	0	0	8435	429708	0	0
2024-06-08 16:37:32			0	41304	0	0	0	26753	25350	122448	26993	1017459	41836	109915	0	0	8435	429335	0	0
2024-06-08 16:38:32			0	41301	0	0	0	26755	25360	122524	27168	1017574	41826	109916	0	0	8435	429413	0	0
2024-06-08 16:39:32			0	41316	0	0	0	26768	25360	122516	27227	1017494	41826	109921	0	0	8436	428905	0	0
2024-06-08 16:40:32			0	41300	0	0	0	26771	25370	122504	27230	1017546	41838	109922	0	0	8435	429422	0	0
2024-06-08 16:41:32			0	41319	0	0	0	26781	25380	122424	27204	1017555	41828	109926	0	0	8436	428755	0	0
2024-06-08 16:42:32			0	41305	0	0	0	26789	25380	122496	26946	1017555	41839	109929	0	0	8435	429228	0	0
2024-06-08 16:43:32			0	41312	0	0	0	26792	25390	122508	27003	1017653	41839	109930	0	0	8435	428967	0	0
2024-06-08 16:44:32			0	41320	0	0	0	26802	25390	122404	27277	1017661	41819	109934	0	0	8435	428697	0	0
2024-06-08 16:45:32			0	41313	0	0	0	26792	25390	122416	27008	1017688	41819	109930	0	0	8435	428933	0	0
2024-06-08 16:46:32			0	41326	0	0	0	26805	25400	122408	27010	1017723	41819	109935	0	0	8436	428470	0	0
2024-06-08 16:47:32			0	41312	0	0	0	26799	25400	122464	27376	1017786	41831	109933	0	0	8435	428943	0	0
2024-06-08 16:48:32			0	41292	0	0	0	26799	25410	122564	27376	1017687	41832	109933	0	0	8434	429595	0	0
2024-06-08 16:49:32			0	41303	0	0	0	26784	25400	122544	27204	1017563	41819	109927	0	0	8435	429247	0	0
2024-06-08 16:50:32			0	41315	0	0	0	26771	25390	122460	27126	1017581	41830	109922	0	0	8436	428866	0	0
2024-06-08 16:51:32			0	41293	0	0	0	26771	25390	122476	27083	1017572	41818	109922	0	0	8434	429610	0	0
2024-06-08 16:52:32			0	41321	0	0	0	26758	25390	122464	27334	1017527	41830	109917	0	0	8436	428663	0	0
2024-06-08 16:53:32			0	41311	0	0	0	26742	25390	122552	27326	1017554	41830	109911	0	0	8436	429001	0	0
2024-06-08 16:54:32			0	41292	0	0	0	26753	25390	122504	27412	1017581	41830	109915	0	0	8435	429644	0	0
2024-06-08 16:55:32			0	41310	0	0	0	26776	25400	122548	27400	1017697	41840	109924	0	0	8435	429010	0	0
2024-06-08 16:56:32			0	41313	0	0	0	26799	25410	122524	27313	1017794	41842	109933	0	0	8435	428885	0	0
2024-06-08 16:57:32			0	41298	0	0	0	26818	25420	122484	27391	1017847	41855	109940	0	0	8434	429368	0	0
2024-06-08 16:58:32			0	41286	0	0	0	26833	25440	122532	27071	1017962	41845	109946	0	0	8433	429725	0	0
2024-06-08 16:59:32			0	41292	0	0	0	26854	25450	122552	27412	1017970	41846	109954	0	0	8433	429497	0	0
2024-06-08 17:00:32			0	41279	0	0	0	26851	25450	122496	27469	1017952	41846	109953	0	0	8433	429937	0	0
2024-06-08 17:01:32			0	41270	0	0	0	26849	25450	122540	27457	1017863	41824	109952	0	0	8432	430242	0	0
2024-06-08 17:02:32			0	41257	0	0	0	26828	25460	122560	27358	1017800	41857	109944	0	0	8432	430658	0	0
2024-06-08 17:03:32			0	41278	0	0	0	26807	25440	122536	27390	1017712	41822	109936	0	0	8433	429995	0	0
2024-06-08 17:04:32			0	41274	0	0	0	26745	25430	122496	27150	1017516	41811	109912	0	0	8434	430155	0	0
2024-06-08 17:05:32			0	41279	0	0	0	26677	25400	122596	26949	1017303	41808	109886	0	0	8435	430059	0	0
2024-06-08 17:06:32			0	41276	0	0	0	26646	25380	122628	27395	1017215	41818	109874	0	0	8436	430210	0	0
2024-06-08 17:07:32			0	41251	0	0	0	26602	25360	122644	27261	1017092	41804	109857	0	0	8435	431106	0	0
2024-06-08 17:08:32			0	41271	0	0	0	26568	25330	122644	26944	1016996	41801	109844	0	0	8436	430501	0	0
2024-06-08 17:09:32			0	41254	0	0	0	26548	25310	122652	27036	1016908	41811	109836	0	0	8436	431127	0	0
2024-06-08 17:10:32			0	41254	0	0	0	26553	25300	122664	27130	1016944	41810	109838	0	0	8436	431151	0	0
2024-06-08 17:11:32			0	41240	0	0	0	26574	25290	122644	26984	1017052	41819	109846	0	0	8435	431650	0	0
2024-06-08 17:12:32			0	41241	0	0	0	26592	25300	122684	27331	1017069	41798	109853	0	0	8434	431592	0	0
2024-06-08 17:13:32			0	41237	0	0	0	26612	25290	122720	27140	1017087	41787	109861	0	0	8434	431752	0	0
2024-06-08 17:14:32			0	41239	0	0	0	26612	25290	122780	27253	1017007	41809	109861	0	0	8434	431684	0	0
2024-06-08 17:15:32			0	41246	0	0	0	26618	25300	122784	26897	1017078	41810	109863	0	0	8434	431423	0	0
2024-06-08 17:16:32			0	41236	0	0	0	26636	25300	122776	27310	1017078	41810	109870	0	0	8433	431762	0	0
2024-06-08 17:17:32			0	41231	0	0	0	26628	25300	122700	27059	1017069	41821	109867	0	0	8433	431931	0	0
2024-06-08 17:18:32			0	41211	0	0	0	26615	25290	122824	27319	1016999	41819	109862	0	0	8432	432635	0	0
2024-06-08 17:19:32			0	41218	0	0	0	26576	25280	122772	27272	1016821	41808	109847	0	0	8433	432422	0	0
2024-06-08 17:20:32			0	41221	0	0	0	26537	25270	122824	27218	1016643	41806	109832	0	0	8434	432344	0	0
2024-06-08 17:21:32			0	41194	0	0	0	26472	25240	122820	27246	1016350	41782	109807	0	0	8434	433336	0	0
2024-06-08 17:22:32			0	41195	0	0	0	26433	25220	122864	27150	1016396	41791	109792	0	0	8434	433351	0	0
2024-06-08 17:23:32			0	41211	0	0	0	26433	25200	122932	27267	1016371	41790	109792	0	0	8435	432856	0	0
2024-06-08 17:24:32			0	41231	0	0	0	26423	25200	122884	27192	1016451	41801	109788	0	0	8436	432177	0	0
2024-06-08 17:25:32			0	41216	0	0	0	26438	25190	122848	27086	1016541	41799	109794	0	0	8435	432711	0	0
2024-06-08 17:26:32			0	41220	0	0	0	26475	25200	122840	27308	1016692	41812	109808	0	0	8435	432550	0	0
2024-06-08 17:27:32			0	41220	0	0	0	26514	25210	122856	27327	1016727	41812	109823	0	0	8434	432526	0	0
2024-06-08 17:28:32			0	41218	0	0	0	26558	25220	122876	27166	1016833	41814	109840	0	0	8433	432569	0	0
2024-06-08 17:29:32			0	41246	0	0	0	26581	25230	122812	27253	1016815	41814	109849	0	0	8434	431594	0	0
2024-06-08 17:30:32			0	41229	0	0	0	26599	25240	122772	27050	1016921	41816	109856	0	0	8433	432146	0	0
2024-06-08 17:31:32			0	41201	0	0	0	26607	25240	122760	27185	1016948	41827	109859	0	0	8432	433098	0	0
2024-06-08 17:32:32			0	41224	0	0	0	26620	25260	122796	27248	1016947	41816	109864	0	0	8433	432267	0	0
2024-06-08 17:33:32			0	41233	0	0	0	26628	25250	122740	27074	1016965	41816	109867	0	0	8433	431986	0	0
2024-06-08 17:34:32			0	41232	0	0	0	26641	25250	122736	27045	1016965	41816	109872	0	0	8433	432020	0	0
2024-06-08 17:35:32			0	41228	0	0	0	26646	25260	122812	27353	1017081	41828	109874	0	0	8433	432131	0	0
2024-06-08 17:36:32			0	41238	0	0	0	26651	25270	122792	27197	1017018	41829	109876	0	0	8433	431767	0	0
2024-06-08 17:37:32			0	41224	0	0	0	26659	25270	122728	27043	1017098	41806	109879	0	0	8432	432243	0	0
2024-06-08 17:38:32			0	41218	0	0	0	26667	25260	122732	27119	1017036	41817	109882	0	0	8432	432471	0	0
2024-06-08 17:39:32			0	41229	0	0	0	26670	25280	122736	27357	1017044	41831	109883	0	0	8432	432048	0	0
2024-06-08 17:40:32			0	41232	0	0	0	26685	25280	122728	27024	1017124	41808	109889	0	0	8432	431946	0	0
2024-06-08 17:41:32			0	41221	0	0	0	26690	25280	122712	27253	1017124	41831	109891	0	0	8432	432320	0	0
2024-06-08 17:42:32			0	41216	0	0	0	26701	25280	122760	26965	1017177	41831	109895	0	0	8431	432490	0	0
2024-06-08 17:43:32			0	41228	0	0	0	26698	25290	122780	27284	1017195	41820	109894	0	0	8432	432058	0	0
2024-06-08 17:44:32			0	41210	0	0	0	26698	25290	122792	27027	1017087	41832	109894	0	0	8431	432669	0	0
2024-06-08 17:45:32			0	41211	0	0	0	26690	25300	122780	27098	1017203	41810	109891	0	0	8431	432611	0	0
2024-06-08 17:46:32			0	41218	0	0	0	26698	25290	122744	27005	1017168	41842	109894	0	0	8431	432397	0	0
2024-06-08 17:47:32			0	41198	0	0	0	26690	25300	122852	27166	1017203	41843	109891	0	0	8430	433052	0	0
2024-06-08 17:48:32			0	41194	0	0	0	26688	25300	122808	27166	1017159	41832	109890	0	0	8430	433188	0	0
2024-06-08 17:49:32			0	41187	0	0	0	26706	25300	122800	27192	1017266	41832	109897	0	0	8430	433426	0	0
2024-06-08 17:50:32			0	41164	0	0	0	26714	25310	122796	27020	1017247	41822	109900	0	0	8428	434184	0	0
2024-06-08 17:51:32			0	41168	0	0	0	26719	25320	122828	27180	1017291	41833	109902	0	0	8428	434023	0	0
2024-06-08 17:52:32			0	41163	0	0	0	26729	25320	122900	27093	1017318	41823	109906	0	0	8428	434193	0	0
2024-06-08 17:53:32			0	41177	0	0	0	26740	25330	122868	27097	1017389	41834	109910	0	0	8429	433692	0	0
2024-06-08 17:54:32			0	41173	0	0	0	26740	25340	122960	27381	1017326	41835	109910	0	0	8428	433804	0	0
2024-06-08 17:55:32			0	41121	0	0	0	26740	25340	122948	27163	1017353	41825	109910	0	0	8426	435574	0	0
2024-06-08 17:56:32			0	41140	0	0	0	26633	25320	122932	26981	1016809	41790	109869	0	0	8428	434976	0	0
2024-06-08 17:57:32			0	41160	0	0	0	26457	25280	122956	27246	1016285	41763	109801	0	0	8432	434394	0	0
2024-06-08 17:58:32			0	41146	0	0	0	26322	25230	122964	27232	1016261	41749	109749	0	0	8434	434994	0	0
2024-06-08 17:59:32			0	41135	0	0	0	26350	25200	122952	27225	1016317	41790	109760	0	0	8432	435443	0	0
2024-06-08 18:00:32			0	41141	0	0	0	26410	25200	122884	27189	1016612	41801	109783	0	0	8432	435239	0	0
2024-06-08 18:01:32			0	41177	0	0	0	26477	25220	122900	27370	1016745	41801	109809	0	0	8433	433963	0	0
2024-06-08 18:02:32			0	41149	0	0	0	26516	25220	122904	26845	1016825	41813	109824	0	0	8430	434917	0	0
2024-06-08 18:03:32			0	41164	0	0	0	26553	25230	122868	27013	1016931	41815	109838	0	0	8431	434381	0	0
2024-06-08 18:04:32			0	41183	0	0	0	26566	25230	122796	27230	1016896	41814	109843	0	0	8431	433735	0	0
2024-06-08 18:05:32			0	41172	0	0	0	26568	25250	122852	27300	1016938	41805	109844	0	0	8431	434059	0	0
2024-06-08 18:06:32			0	41164	0	0	0	26550	25260	122848	27308	1016974	41805	109837	0	0	8431	434307	0	0
2024-06-08 18:07:32			0	41152	0	0	0	26545	25260	122896	27033	1016920	41816	109835	0	0	8430	434716	0	0
2024-06-08 18:08:32			0	41165	0	0	0	26540	25260	122816	27079	1016956	41806	109833	0	0	8431	434273	0	0
2024-06-08 18:09:32			0	41144	0	0	0	26561	25260	122892	27180	1017001	41805	109841	0	0	8430	434988	0	0
2024-06-08 18:10:32			0	41159	0	0	0	26571	25260	122816	27209	1017009	41817	109845	0	0	8430	434477	0	0
2024-06-08 18:11:32			0	41164	0	0	0	26597	25280	122828	27017	1017142	41808	109855	0	0	8430	434258	0	0
2024-06-08 18:12:32			0	41177	0	0	0	26612	25280	122836	26994	1017169	41831	109861	0	0	8431	433815	0	0
2024-06-08 18:13:32			0	41154	0	0	0	26633	25300	122824	27197	1017266	41810	109869	0	0	8429	434549	0	0
2024-06-08 18:14:32			0	41175	0	0	0	26662	25310	122892	27013	1017328	41833	109880	0	0	8430	433810	0	0
2024-06-08 18:15:32			0	41149	0	0	0	26667	25310	122824	27066	1017301	41822	109882	0	0	8428	434694	0	0
2024-06-08 18:16:32			0	41164	0	0	0	26628	25320	122760	26734	1017291	41823	109867	0	0	8430	434159	0	0
2024-06-08 18:17:32			0	41144	0	0	0	26610	25320	122800	26904	1017291	41833	109860	0	0	8429	434840	0	0
2024-06-08 18:18:32			0	41159	0	0	0	26631	25320	122800	27000	1017345	41811	109868	0	0	8429	434329	0	0
2024-06-08 18:19:32			0	41153	0	0	0	26675	25340	122772	27019	1017513	41825	109885	0	0	8428	434484	0	0
2024-06-08 18:20:32			0	41180	0	0	0	26724	25350	122764	27173	1017584	41836	109904	0	0	8429	433541	0	0
2024-06-08 18:21:32			0	41159	0	0	0	26768	25370	122780	27029	1017725	41838	109921	0	0	8427	434206	0	0
2024-06-08 18:22:32			0	41167	0	0	0	26810	25390	122760	27119	1017840	41851	109937	0	0	8427	433884	0	0
2024-06-08 18:23:32			0	41172	0	0	0	26844	25410	122788	26948	1017883	41842	109950	0	0	8427	433665	0	0
2024-06-08 18:24:32			0	41168	0	0	0	26867	25420	122832	27144	1017927	41855	109959	0	0	8426	433776	0	0
2024-06-08 18:25:32			0	41184	0	0	0	26883	25430	122752	27178	1017945	41867	109965	0	0	8427	433208	0	0
2024-06-08 18:26:32			0	41171	0	0	0	26901	25440	122748	26965	1018042	41856	109972	0	0	8426	433625	0	0
2024-06-08 18:27:32			0	41158	0	0	0	26911	25460	122760	27133	1018095	41857	109976	0	0	8425	434018	0	0
2024-06-08 18:28:32			0	41155	0	0	0	26927	25470	122784	26892	1018112	41848	109982	0	0	8425	434095	0	0
2024-06-08 18:29:32			0	41171	0	0	0	26935	25490	122816	27074	1018200	41872	109985	0	0	8426	433502	0	0
2024-06-08 18:30:32			0	41147	0	0	0	26945	25490	122760	27190	1018280	41849	109989	0	0	8424	434318	0	0
2024-06-08 18:31:32			0	41157	0	0	0	26948	25480	122792	27046	1018271	41849	109990	0	0	8425	434002	0	0
2024-06-08 18:32:32			0	41152	0	0	0	26932	25500	122796	27126	1018163	41850	109984	0	0	8425	434123	0	0
2024-06-08 18:33:32			0	41141	0	0	0	26864	25500	122888	26920	1018003	41829	109958	0	0	8425	434497	0	0
2024-06-08 18:34:32			0	41143	0	0	0	26802	25490	122876	27180	1017905	41838	109934	0	0	8426	434454	0	0
2024-06-08 18:35:32			0	41167	0	0	0	26740	25470	122748	26908	1017710	41815	109910	0	0	8429	433687	0	0
2024-06-08 18:36:32			0	41180	0	0	0	26714	25450	122784	26928	1017738	41824	109900	0	0	8430	433295	0	0
2024-06-08 18:37:32			0	41197	0	0	0	26714	25440	122708	26979	1017747	41823	109900	0	0	8430	432742	0	0
2024-06-08 18:38:32			0	41223	0	0	0	26701	25430	122696	26840	1017623	41822	109895	0	0	8432	431884	0	0
2024-06-08 18:39:32			0	41197	0	0	0	26677	25420	122712	27159	1017490	41821	109886	0	0	8431	432791	0	0
2024-06-08 18:40:32			0	41192	0	0	0	26615	25400	122672	27177	1017268	41796	109862	0	0	8432	433010	0	0
2024-06-08 18:41:32			0	41201	0	0	0	26566	25370	122616	27081	1017217	41793	109843	0	0	8433	432778	0	0
2024-06-08 18:42:32			0	41223	0	0	0	26542	25350	122728	27033	1017137	41792	109834	0	0	8434	432080	0	0
2024-06-08 18:43:32			0	41225	0	0	0	26555	25340	122660	27140	1017165	41802	109839	0	0	8434	432037	0	0
2024-06-08 18:44:32			0	41246	0	0	0	26589	25340	122648	27069	1017219	41802	109852	0	0	8435	431324	0	0
2024-06-08 18:45:32			0	41230	0	0	0	26612	25330	122496	27017	1017264	41812	109861	0	0	8433	431892	0	0
2024-06-08 18:46:32			0	41232	0	0	0	26623	25340	122656	27326	1017308	41814	109865	0	0	8433	431799	0	0
2024-06-08 18:47:32			0	41250	0	0	0	26631	25330	122568	27071	1017264	41824	109868	0	0	8434	431213	0	0
2024-06-08 18:48:32			0	41261	0	0	0	26576	25330	122640	27265	1017023	41812	109847	0	0	8436	430840	0	0
2024-06-08 18:49:32			0	41245	0	0	0	26462	25320	122676	27156	1016702	41778	109803	0	0	8437	431407	0	0
2024-06-08 18:50:32			0	41260	0	0	0	26288	25260	122536	27102	1015876	41716	109736	0	0	8440	431046	0	0
2024-06-08 18:51:32			0	41259	0	0	0	26114	25160	122600	27334	1015239	41665	109669	0	0	8443	431324	0	0
2024-06-08 18:52:32			0	41277	0	0	0	25958	25070	122700	27175	1014836	41666	109609	0	0	8446	430934	0	0
2024-06-08 18:53:32			0	41312	0	0	0	25885	25000	122600	27300	1014795	41715	109581	0	0	8449	429918	0	0
2024-06-08 18:54:32			0	41331	0	0	0	25854	24950	122576	26935	1014611	41710	109569	0	0	8450	429396	0	0
2024-06-08 18:55:32			0	41362	0	0	0	25807	24910	122552	27334	1014355	41685	109551	0	0	8452	428444	0	0
2024-06-08 18:56:32			0	41350	0	0	0	25719	24850	122580	27540	1013779	41635	109517	0	0	8453	428996	0	0
2024-06-08 18:57:32			0	41378	0	0	0	25602	24760	122564	26896	1013269	41616	109472	0	0	8456	428266	0	0
2024-06-08 18:58:32			0	41386	0	0	0	25506	24660	122552	27149	1012803	41606	109435	0	0	8458	428238	0	0
2024-06-08 18:59:32			0	41408	0	0	0	25433	24580	122488	26916	1012514	41610	109407	0	0	8460	427687	0	0
2024-06-08 19:00:32			0	41408	0	0	0	25418	24540	122688	26772	1012882	41662	109401	0	0	8460	427784	0	0
2024-06-08 19:01:32			0	41393	0	0	0	25506	24550	122688	27178	1013354	41730	109435	0	0	8458	428267	0	0
2024-06-08 19:02:32			0	41380	0	0	0	25607	24570	122732	27230	1013763	41743	109474	0	0	8455	428659	0	0
2024-06-08 19:03:32			0	41367	0	0	0	25685	24620	122748	26972	1013786	41736	109504	0	0	8454	428978	0	0
2024-06-08 19:04:32			0	41334	0	0	0	25680	24620	122820	26994	1013457	41691	109502	0	0	8452	430097	0	0
2024-06-08 19:05:32			0	41301	0	0	0	25612	24570	122944	27170	1013014	41621	109476	0	0	8451	431340	0	0
2024-06-08 19:06:32			0	41245	0	0	0	25501	24500	122960	27296	1012386	41581	109433	0	0	8450	433417	0	0
2024-06-08 19:07:32			0	41260	0	0	0	25389	24420	123092	27173	1011919	41562	109390	0	0	8452	433102	0	0
2024-06-08 19:08:32			0	41203	0	0	0	25301	24350	123180	27280	1011586	41587	109356	0	0	8450	435218	0	0
2024-06-08 19:09:32			0	41231	0	0	0	25254	24280	123312	26899	1011402	41583	109338	0	0	8452	434434	0	0
2024-06-08 19:10:32			0	41212	0	0	0	25225	24220	123364	26896	1011264	41587	109327	0	0	8452	435230	0	0
2024-06-08 19:11:32			0	41200	0	0	0	25184	24160	123492	26923	1010921	41583	109311	0	0	8452	435788	0	0
2024-06-08 19:12:32			0	41178	0	0	0	25132	24100	123520	27029	1010640	41577	109291	0	0	8451	436688	0	0
2024-06-08 19:13:32			0	41160	0	0	0	25093	24030	123512	27192	1010395	41571	109276	0	0	8450	437478	0	0
2024-06-08 19:14:32			0	41167	0	0	0	25062	23990	123612	27150	1010273	41589	109264	0	0	8451	437336	0	0
2024-06-08 19:15:32			0	41175	0	0	0	25033	23960	123696	27248	1010134	41597	109253	0	0	8452	437136	0	0
2024-06-08 19:16:32			0	41128	0	0	0	25012	23920	123804	26824	1010154	41604	109245	0	0	8450	438847	0	0
2024-06-08 19:17:32			0	41093	0	0	0	25049	23920	123892	27216	1010661	41649	109259	0	0	8447	440050	0	0
2024-06-08 19:18:32			0	41072	0	0	0	25116	23950	124004	27029	1010900	41663	109285	0	0	8445	440698	0	0
2024-06-08 19:19:32			0	41044	0	0	0	25189	23980	123992	27308	1011218	41676	109313	0	0	8443	441588	0	0
2024-06-08 19:20:32			0	40988	0	0	0	25259	24020	124152	27241	1011340	41680	109340	0	0	8439	443419	0	0
2024-06-08 19:21:32			0	40951	0	0	0	25270	24040	124148	27010	1011259	41660	109344	0	0	8437	444647	0	0
2024-06-08 19:22:32			0	40907	0	0	0	25264	24050	124308	26991	1011241	41626	109342	0	0	8434	446144	0	0
2024-06-08 19:23:32			0	40889	0	0	0	25249	24050	124560	26831	1011089	41626	109336	0	0	8434	446768	0	0
2024-06-08 19:24:32			0	40843	0	0	0	25223	24030	124432	27244	1010823	41604	109326	0	0	8432	448414	0	0
2024-06-08 19:25:32			0	40820	0	0	0	25163	23990	124624	27140	1010621	41579	109303	0	0	8431	449314	0	0
2024-06-08 19:26:32			0	40773	0	0	0	25114	23950	124724	27284	1010285	41585	109284	0	0	8429	451051	0	0
2024-06-08 19:27:32			0	40763	0	0	0	25064	23910	124775	27190	1010048	41559	109265	0	0	8430	451502	0	0
2024-06-08 19:28:32			0	40719	0	0	0	25028	23870	124895	27256	1009908	41567	109251	0	0	8428	453139	0	0
2024-06-08 19:29:32			0	40707	0	0	0	24997	23840	125035	27170	1009803	41575	109239	0	0	8428	453635	0	0
2024-06-08 19:30:32			0	40662	0	0	0	24979	23820	125163	27168	1009734	41606	109232	0	0	8425	455260	0	0
2024-06-08 19:31:32			0	40622	0	0	0	24955	23800	125235	27218	1009700	41593	109223	0	0	8424	456713	0	0
2024-06-08 19:32:32			0	40592	0	0	0	24940	23780	125371	27126	1009621	41569	109217	0	0	8422	457818	0	0
2024-06-08 19:33:32			0	40539	0	0	0	24924	23760	125475	27270	1009605	41579	109211	0	0	8420	459733	0	0
2024-06-08 19:34:32			0	40537	0	0	0	24929	23740	125523	27398	1009579	41598	109213	0	0	8419	459856	0	0
2024-06-08 19:35:32			0	40510	0	0	0	24932	23760	125523	27185	1009845	41612	109214	0	0	8418	460755	0	0
2024-06-08 19:36:32			0	40485	0	0	0	25064	23810	125659	27272	1011007	41715	109265	0	0	8415	461507	0	0
2024-06-08 19:37:32			0	40447	0	0	0	25386	23950	125815	27300	1012343	41795	109389	0	0	8408	462483	0	0
2024-06-08 19:38:32			0	40432	0	0	0	25602	24110	125763	27355	1012626	41743	109472	0	0	8404	462595	0	0
2024-06-08 19:39:32			0	40384	0	0	0	25758	24190	125747	27303	1013093	41728	109532	0	0	8399	464081	0	0
2024-06-08 19:40:32			0	40368	0	0	0	25877	24300	125739	27149	1013514	41760	109578	0	0	8397	464358	0	0
2024-06-08 19:41:32			0	40356	0	0	0	25820	24350	125739	26923	1012789	41676	109556	0	0	8397	464651	0	0
2024-06-08 19:42:32			0	40313	0	0	0	25649	24300	125767	26941	1012016	41594	109490	0	0	8398	466305	0	0
2024-06-08 19:43:32			0	40320	0	0	0	25496	24200	125787	27183	1011453	41576	109431	0	0	8400	466320	0	0
2024-06-08 19:44:32			0	40314	0	0	0	25368	24120	125851	27085	1010933	41568	109382	0	0	8402	466743	0	0
2024-06-08 19:45:32			0	40295	0	0	0	25267	24050	125999	26970	1010635	41549	109343	0	0	8402	467602	0	0
2024-06-08 19:46:32			0	40290	0	0	0	25186	24010	126171	26847	1010513	41590	109312	0	0	8403	467885	0	0
2024-06-08 19:47:32			0	40280	0	0	0	25135	23980	126139	26963	1010435	41610	109292	0	0	8403	468319	0	0
2024-06-08 19:48:32			0	40246	0	0	0	25111	23950	126163	26984	1010437	41618	109283	0	0	8402	469608	0	0
2024-06-08 19:49:32			0	40241	0	0	0	25145	23960	126251	27095	1011318	41685	109296	0	0	8401	469759	0	0
2024-06-08 19:50:32			0	40245	0	0	0	25335	24070	126227	26731	1012317	41761	109369	0	0	8399	469326	0	0
2024-06-08 19:51:32			0	40192	0	0	0	25644	24200	126235	26953	1013369	41795	109488	0	0	8391	470867	0	0
2024-06-08 19:52:32			0	40188	0	0	0	25992	24350	126203	27027	1014268	41821	109622	0	0	8386	470611	0	0
2024-06-08 19:53:32			0	40183	0	0	0	26244	24490	126171	27007	1014847	41834	109719	0	0	8382	470417	0	0
2024-06-08 19:54:32			0	40166	0	0	0	26381	24620	126119	27187	1015258	41835	109772	0	0	8379	470676	0	0
2024-06-08 19:55:32			0	40142	0	0	0	26381	24690	126155	27229	1015155	41786	109772	0	0	8378	471343	0	0
2024-06-08 19:56:32			0	40120	0	0	0	26290	24720	126091	26942	1014787	41745	109737	0	0	8379	472047	0	0
2024-06-08 19:57:32			0	40136	0	0	0	26171	24720	125975	27150	1014458	41711	109691	0	0	8381	471477	0	0
2024-06-08 19:58:32			0	40111	0	0	0	26070	24690	126147	27142	1014326	41697	109652	0	0	8382	472447	0	0
2024-06-08 19:59:32			0	40110	0	0	0	26059	24690	126151	27100	1014522	41731	109648	0	0	8382	472483	0	0
2024-06-08 20:00:32			0	40076	0	0	0	26044	24690	126178	27313	1014442	41731	109642	0	0	8380	473696	0	0
2024-06-08 20:01:32			0	40107	0	0	0	26033	24710	126147	27246	1014449	41722	109638	0	0	8382	472537	0	0
2024-06-08 20:02:32			0	40108	0	0	0	26020	24720	126127	27260	1014431	41711	109633	0	0	8383	472474	0	0
2024-06-08 20:03:32			0	40097	0	0	0	26020	24730	126131	27530	1014448	41723	109633	0	0	8382	472839	0	0
2024-06-08 20:04:32			0	40086	0	0	0	25966	24720	126210	27098	1014190	41690	109612	0	0	8382	473259	0	0
2024-06-08 20:05:32			0	40072	0	0	0	25867	24680	126218	27294	1013756	41664	109574	0	0	8383	473865	0	0
2024-06-08 20:06:32			0	40085	0	0	0	25774	24660	126222	26975	1013873	41683	109538	0	0	8385	473455	0	0
2024-06-08 20:07:32			0	40103	0	0	0	25810	24680	126194	27206	1014478	41730	109552	0	0	8386	472759	0	0
2024-06-08 20:08:32			0	40067	0	0	0	26018	24750	126266	27242	1015258	41770	109632	0	0	8381	473856	0	0
2024-06-08 20:09:32			0	40056	0	0	0	26249	24830	126278	26968	1015824	41811	109721	0	0	8376	474034	0	0
2024-06-08 20:10:32			0	40071	0	0	0	26462	24920	126202	27308	1016291	41819	109803	0	0	8374	473257	0	0
2024-06-08 20:11:32			0	40058	0	0	0	26612	24990	126166	27303	1016741	41825	109861	0	0	8371	473533	0	0
2024-06-08 20:12:32			0	40056	0	0	0	26740	25080	126118	26968	1017110	41845	109910	0	0	8369	473363	0	0
2024-06-08 20:13:32			0	40026	0	0	0	26740	25140	126122	27107	1016856	41828	109910	0	0	8368	474271	0	0
2024-06-08 20:14:32			0	40025	0	0	0	26579	25120	126154	27398	1016108	41759	109848	0	0	8370	474361	0	0
2024-06-08 20:15:32			0	40044	0	0	0	26327	25070	126154	27012	1015237	41689	109751	0	0	8375	473818	0	0
2024-06-08 20:16:32			0	40042	0	0	0	26064	24950	126130	27232	1014210	41600	109650	0	0	8379	474211	0	0
2024-06-08 20:17:32			0	40062	0	0	0	25833	24830	126150	27102	1013415	41567	109561	0	0	8384	473820	0	0
2024-06-08 20:18:32			0	40076	0	0	0	25711	24740	126146	27180	1013689	41669	109514	0	0	8386	473562	0	0
2024-06-08 20:19:32			0	40061	0	0	0	25771	24730	126214	27064	1014341	41746	109537	0	0	8384	474124	0	0
2024-06-08 20:20:32			0	40061	0	0	0	25929	24780	126170	27204	1014935	41784	109598	0	0	8382	473990	0	0
2024-06-08 20:21:32			0	40090	0	0	0	26106	24850	126150	27350	1015483	41791	109666	0	0	8381	472768	0	0
2024-06-08 20:22:32			0	40071	0	0	0	26267	24910	126258	27116	1015907	41807	109728	0	0	8377	473284	0	0
2024-06-08 20:23:32			0	40078	0	0	0	26397	24970	126078	27133	1016251	41801	109778	0	0	8376	472874	0	0
2024-06-08 20:24:32			0	40067	0	0	0	26475	25020	126030	26909	1016356	41794	109808	0	0	8374	473132	0	0
2024-06-08 20:25:32			0	40092	0	0	0	26496	25050	126042	27189	1016336	41787	109816	0	0	8375	472161	0	0
2024-06-08 20:26:32			0	40086	0	0	0	26498	25080	125946	27005	1016387	41790	109817	0	0	8375	472294	0	0
2024-06-08 20:27:32			0	40093	0	0	0	26462	25080	125890	27067	1016280	41778	109803	0	0	8376	472045	0	0
2024-06-08 20:28:32			0	40114	0	0	0	26379	25090	125839	27251	1016164	41769	109771	0	0	8378	471271	0	0
2024-06-08 20:29:32			0	40127	0	0	0	26386	25100	125903	26977	1016279	41780	109774	0	0	8379	470782	0	0
2024-06-08 20:30:32			0	40152	0	0	0	26431	25110	125847	27079	1016537	41781	109791	0	0	8379	469868	0	0
2024-06-08 20:31:32			0	40144	0	0	0	26501	25140	125731	26918	1016704	41794	109818	0	0	8378	470072	0	0
2024-06-08 20:32:32			0	40148	0	0	0	26594	25160	125667	27204	1017007	41808	109854	0	0	8377	469876	0	0
2024-06-08 20:33:32			0	40159	0	0	0	26651	25210	125543	27178	1017191	41812	109876	0	0	8376	469353	0	0
2024-06-08 20:34:32			0	40188	0	0	0	26719	25240	125551	27119	1017288	41826	109902	0	0	8377	468245	0	0
2024-06-08 20:35:32			0	40227	0	0	0	26771	25270	125423	26883	1017562	41830	109922	0	0	8378	466785	0	0
2024-06-08 20:36:32			0	40244	0	0	0	26823	25290	125343	27282	1017623	41842	109942	0	0	8378	466132	0	0
2024-06-08 20:37:32			0	40275	0	0	0	26857	25320	125247	26850	1017782	41823	109955	0	0	8379	464958	0	0
2024-06-08 20:38:32			0	40321	0	0	0	26888	25350	125115	27076	1017887	41836	109967	0	0	8381	463258	0	0
2024-06-08 20:39:32			0	40342	0	0	0	26914	25370	124947	27246	1017895	41827	109977	0	0	8382	462466	0	0
2024-06-08 20:40:32			0	40380	0	0	0	26927	25390	124931	27022	1017956	41830	109982	0	0	8384	461078	0	0
2024-06-08 20:41:32			0	40413	0	0	0	26927	25410	124755	27161	1018017	41854	109982	0	0	8386	459868	0	0
2024-06-08 20:42:32			0	40419	0	0	0	26929	25430	124803	27246	1018043	41855	109983	0	0	8386	459606	0	0
2024-06-08 20:43:32			0	40438	0	0	0	26937	25450	124775	27486	1018158	41857	109986	0	0	8387	458888	0	0
2024-06-08 20:44:32			0	40444	0	0	0	26945	25450	124783	27275	1018104	41846	109989	0	0	8387	458678	0	0
2024-06-08 20:45:32			0	40433	0	0	0	26966	25470	124723	27289	1018281	41837	109997	0	0	8386	459011	0	0
2024-06-08 20:46:32			0	40442	0	0	0	26976	25480	124731	27133	1018298	41860	110001	0	0	8387	458670	0	0
2024-06-08 20:47:32			0	40441	0	0	0	26997	25500	124751	26880	1018423	41850	110009	0	0	8386	458653	0	0
2024-06-08 20:48:32			0	40424	0	0	0	27020	25530	124775	27154	1018474	41875	110018	0	0	8385	459169	0	0
2024-06-08 20:49:32			0	40425	0	0	0	27023	25530	124819	27282	1018483	41864	110019	0	0	8385	459134	0	0
2024-06-08 20:50:32			0	40424	0	0	0	27025	25550	124747	27244	1018616	41866	110020	0	0	8385	459117	0	0
2024-06-08 20:51:32			0	40411	0	0	0	27038	25550	124851	27339	1018535	41866	110025	0	0	8384	459573	0	0
2024-06-08 20:52:32			0	40422	0	0	0	27036	25570	124843	27275	1018605	41857	110024	0	0	8385	459135	0	0
2024-06-08 20:53:32			0	40418	0	0	0	27023	25570	124815	27062	1018597	41868	110019	0	0	8385	459275	0	0
2024-06-08 20:54:32			0	40414	0	0	0	27007	25580	124695	27152	1018587	41846	110013	0	0	8385	459389	0	0
2024-06-08 20:55:32			0	40421	0	0	0	27007	25580	124791	27163	1018587	41869	110013	0	0	8385	459144	0	0
2024-06-08 20:56:32			0	40414	0	0	0	27015	25570	124831	27137	1018570	41857	110016	0	0	8385	459415	0	0
2024-06-08 20:57:32			0	40444	0	0	0	27007	25590	124707	26734	1018578	41870	110013	0	0	8387	458313	0	0
2024-06-08 20:58:32			0	40422	0	0	0	27018	25580	124779	27315	1018676	41880	110017	0	0	8385	459109	0	0
2024-06-08 20:59:32			0	40418	0	0	0	27010	25580	124719	27083	1018587	41858	110014	0	0	8385	459249	0	0
2024-06-08 21:00:32			0	40431	0	0	0	27025	25590	124715	27365	1018640	41880	110020	0	0	8386	458768	0	0
2024-06-08 21:01:32			0	40409	0	0	0	27020	25600	124763	27227	1018648	41848	110018	0	0	8385	459512	0	0
2024-06-08 21:02:32			0	40447	0	0	0	27023	25590	124703	27098	1018586	41880	110019	0	0	8387	458208	0	0
2024-06-08 21:03:32			0	40449	0	0	0	26968	25600	124683	27319	1018488	41871	109998	0	0	8388	458112	0	0
2024-06-08 21:04:32			0	40462	0	0	0	26906	25580	124619	27050	1018212	41846	109974	0	0	8389	457710	0	0
2024-06-08 21:05:32			0	40496	0	0	0	26846	25560	124635	27395	1018017	41833	109951	0	0	8392	456574	0	0
2024-06-08 21:06:32			0	40478	0	0	0	26716	25510	124583	27064	1017511	41796	109901	0	0	8393	457333	0	0
2024-06-08 21:07:32			0	40508	0	0	0	26586	25440	124619	27277	1017024	41768	109851	0	0	8397	456466	0	0
2024-06-08 21:08:32			0	40545	0	0	0	26488	25380	124639	27246	1016841	41773	109813	0	0	8400	455331	0	0
2024-06-08 21:09:32			0	40536	0	0	0	26446	25330	124515	27256	1016781	41791	109797	0	0	8400	455774	0	0
2024-06-08 21:10:32			0	40555	0	0	0	26454	25310	124499	27150	1016908	41811	109800	0	0	8401	455163	0	0
2024-06-08 21:11:32			0	40550	0	0	0	26472	25320	124523	27090	1017050	41833	109807	0	0	8400	455312	0	0
2024-06-08 21:12:32			0	40544	0	0	0	26522	25330	124587	27177	1017255	41824	109826	0	0	8399	455495	0	0
2024-06-08 21:13:32			0	40516	0	0	0	26581	25340	124647	27222	1017379	41825	109849	0	0	8397	456446	0	0
2024-06-08 21:14:32			0	40527	0	0	0	26618	25340	124571	27156	1017495	41836	109863	0	0	8397	456062	0	0
2024-06-08 21:15:32			0	40510	0	0	0	26636	25360	124643	26974	1017387	41826	109870	0	0	8396	456604	0	0
2024-06-08 21:16:32			0	40536	0	0	0	26610	25340	124627	27154	1017227	41803	109860	0	0	8397	455748	0	0
2024-06-08 21:17:32			0	40510	0	0	0	26550	25330	124539	26902	1016934	41779	109837	0	0	8397	456682	0	0
2024-06-08 21:18:32			0	40502	0	0	0	26457	25300	124579	27215	1016703	41788	109801	0	0	8398	457039	0	0
2024-06-08 21:19:32			0	40515	0	0	0	26373	25260	124655	26923	1016313	41762	109769	0	0	8400	456689	0	0
2024-06-08 21:20:32			0	40534	0	0	0	26272	25200	124595	27092	1015800	41745	109730	0	0	8402	456180	0	0
2024-06-08 21:21:32			0	40527	0	0	0	26197	25150	124687	27060	1015749	41740	109701	0	0	8403	456555	0	0
2024-06-08 21:22:32			0	40538	0	0	0	26163	25110	124683	26934	1015520	41748	109688	0	0	8404	456274	0	0
2024-06-08 21:23:32			0	40551	0	0	0	26137	25070	124627	27152	1015478	41745	109678	0	0	8405	455923	0	0
2024-06-08 21:24:32			0	40555	0	0	0	26161	25050	124571	27277	1015747	41787	109687	0	0	8405	455835	0	0
2024-06-08 21:25:32			0	40550	0	0	0	26228	25060	124719	27263	1016050	41798	109713	0	0	8403	455984	0	0
2024-06-08 21:26:32			0	40552	0	0	0	26311	25090	124695	27353	1016342	41812	109745	0	0	8402	455837	0	0
2024-06-08 21:27:32			0	40538	0	0	0	26371	25120	124695	27358	1016501	41815	109768	0	0	8401	456248	0	0
2024-06-08 21:28:32			0	40541	0	0	0	26428	25140	124699	27272	1016642	41817	109790	0	0	8400	456091	0	0
2024-06-08 21:29:32			0	40512	0	0	0	26485	25170	124671	27216	1016943	41809	109812	0	0	8397	457027	0	0
2024-06-08 21:30:32			0	40534	0	0	0	26576	25210	124739	27076	1017183	41834	109847	0	0	8397	456155	0	0
2024-06-08 21:31:32			0	40519	0	0	0	26667	25250	124675	27086	1017447	41828	109882	0	0	8395	456575	0	0
2024-06-08 21:32:32			0	40508	0	0	0	26740	25280	124711	27060	1017686	41852	109910	0	0	8393	456882	0	0
2024-06-08 21:33:32			0	40491	0	0	0	26797	25310	124639	27157	1017738	41844	109932	0	0	8392	457398	0	0
2024-06-08 21:34:32			0	40503	0	0	0	26844	25350	124603	27180	1017905	41847	109950	0	0	8392	456875	0	0
2024-06-08 21:35:32			0	40492	0	0	0	26885	25380	124611	27346	1018010	41850	109966	0	0	8390	457181	0	0
2024-06-08 21:36:32			0	40509	0	0	0	26916	25410	124655	27022	1018142	41854	109978	0	0	8391	456509	0	0
2024-06-08 21:37:32			0	40506	0	0	0	26935	25440	124599	27244	1018194	41867	109985	0	0	8391	456536	0	0
2024-06-08 21:38:32			0	40497	0	0	0	26914	25440	124631	27116	1018114	41855	109977	0	0	8390	456850	0	0
2024-06-08 21:39:32			0	40531	0	0	0	26854	25440	124591	26972	1017900	41833	109954	0	0	8393	455664	0	0
2024-06-08 21:40:32			0	40534	0	0	0	26776	25440	124535	27078	1017792	41833	109924	0	0	8395	455559	0	0
2024-06-08 21:41:32			0	40532	0	0	0	26761	25430	124427	27088	1017829	41833	109918	0	0	8395	455655	0	0
2024-06-08 21:42:32			0	40554	0	0	0	26779	25440	124387	27152	1018042	41845	109925	0	0	8396	454862	0	0
2024-06-08 21:43:32			0	40566	0	0	0	26825	25450	124427	27189	1018166	41869	109943	0	0	8396	454418	0	0
2024-06-08 21:44:32			0	40593	0	0	0	26872	25460	124371	27450	1018184	41835	109961	0	0	8396	453452	0	0
2024-06-08 21:45:32			0	40586	0	0	0	26916	25480	124371	26894	1018343	41871	109978	0	0	8395	453644	0	0
2024-06-08 21:46:32			0	40598	0	0	0	26945	25500	124271	27206	1018431	41873	109989	0	0	8395	453175	0	0
2024-06-08 21:47:32			0	40615	0	0	0	26971	25520	124287	27274	1018519	41875	109999	0	0	8396	452533	0	0
2024-06-08 21:48:32			0	40636	0	0	0	26997	25540	124207	27119	1018545	41865	110009	0	0	8397	451752	0	0
2024-06-08 21:49:32			0	40653	0	0	0	26997	25560	124135	27182	1018580	41856	110009	0	0	8398	451111	0	0
2024-06-08 21:50:32			0	40663	0	0	0	26984	25560	124075	27268	1018526	41878	110004	0	0	8398	450764	0	0
2024-06-08 21:51:32			0	40680	0	0	0	26883	25550	123931	26918	1018169	41822	109965	0	0	8401	450200	0	0
2024-06-08 21:52:32			0	40712	0	0	0	26693	25510	123879	27391	1017636	41795	109892	0	0	8406	449194	0	0
2024-06-08 21:53:32			0	40752	0	0	0	26602	25470	123939	27069	1017665	41793	109857	0	0	8409	447913	0	0
2024-06-08 21:54:32			0	40744	0	0	0	26602	25460	123963	27027	1017755	41814	109857	0	0	8409	448215	0	0
2024-06-08 21:55:32			0	40723	0	0	0	26664	25460	123795	27258	1017880	41813	109881	0	0	8407	448941	0	0
2024-06-08 21:56:32			0	40733	0	0	0	26719	25460	123799	27052	1018023	41847	109902	0	0	8406	448595	0	0
2024-06-08 21:57:32			0	40737	0	0	0	26763	25460	123899	26762	1018076	41847	109919	0	0	8406	448457	0	0
2024-06-08 21:58:32			0	40737	0	0	0	26802	25490	123867	27308	1018226	41861	109934	0	0	8405	448380	0	0
2024-06-08 21:59:32			0	40748	0	0	0	26849	25500	123959	27383	1018351	41839	109952	0	0	8405	447974	0	0
2024-06-08 22:00:32			0	40719	0	0	0	26885	25520	123839	27223	1018430	41875	109966	0	0	8403	448926	0	0
2024-06-08 22:01:32			0	40762	0	0	0	26932	25530	123923	27345	1018501	41841	109984	0	0	8404	447414	0	0
2024-06-08 22:02:32			0	40757	0	0	0	26963	25550	123803	27027	1018616	41866	109996	0	0	8404	447536	0	0
2024-06-08 22:03:32			0	40761	0	0	0	26986	25560	123747	27078	1018669	41868	110005	0	0	8403	447372	0	0
2024-06-08 22:04:32			0	40768	0	0	0	27005	25580	123708	26840	1018757	41870	110012	0	0	8404	447080	0	0
2024-06-08 22:05:32			0	40770	0	0	0	27010	25590	123688	27291	1018720	41870	110014	0	0	8404	446986	0	0
2024-06-08 22:06:32			0	40758	0	0	0	27010	25580	123687	26819	1018614	41869	110014	0	0	8403	447425	0	0
2024-06-08 22:07:32			0	40797	0	0	0	26986	25600	123724	27038	1018595	41881	110005	0	0	8406	446029	0	0
2024-06-08 22:08:32			0	40790	0	0	0	26968	25580	123648	27048	1018623	41870	109998	0	0	8405	446321	0	0
2024-06-08 22:09:32			0	40795	0	0	0	26958	25590	123700	26970	1018497	41847	109994	0	0	8406	446123	0	0
2024-06-08 22:10:32			0	40797	0	0	0	26883	25560	123752	26724	1018178	41823	109965	0	0	8407	446130	0	0
2024-06-08 22:11:32			0	40803	0	0	0	26805	25530	123716	26993	1018054	41831	109935	0	0	8409	445999	0	0
2024-06-08 22:12:32			0	40794	0	0	0	26745	25510	123744	27034	1017859	41818	109912	0	0	8409	446361	0	0
2024-06-08 22:13:32			0	40813	0	0	0	26672	25460	123704	26880	1017380	41802	109884	0	0	8411	445832	0	0
2024-06-08 22:14:32			0	40841	0	0	0	26550	25390	123700	27045	1016831	41774	109837	0	0	8414	445044	0	0
2024-06-08 22:15:32			0	40841	0	0	0	26410	25320	123748	27154	1016282	41745	109783	0	0	8416	445221	0	0
2024-06-08 22:16:32			0	40846	0	0	0	26280	25240	123856	26771	1015842	41726	109733	0	0	8419	445251	0	0
2024-06-08 22:17:32			0	40855	0	0	0	26194	25170	123868	27008	1015623	41720	109700	0	0	8420	445118	0	0
2024-06-08 22:18:32			0	40850	0	0	0	26168	25120	123840	27033	1015572	41771	109690	0	0	8420	445416	0	0
2024-06-08 22:19:32			0	40844	0	0	0	26174	25100	123896	26776	1015886	41813	109692	0	0	8420	445674	0	0
2024-06-08 22:20:32			0	40833	0	0	0	26257	25120	123992	26911	1016349	41837	109724	0	0	8418	446003	0	0
2024-06-08 22:21:32			0	40844	0	0	0	26381	25160	124000	26902	1016784	41852	109772	0	0	8416	445522	0	0
2024-06-08 22:22:32			0	40821	0	0	0	26506	25200	123900	27220	1017040	41856	109820	0	0	8413	446215	0	0
2024-06-08 22:23:32			0	40816	0	0	0	26599	25250	123928	27053	1017332	41849	109856	0	0	8412	446261	0	0
2024-06-08 22:24:32			0	40789	0	0	0	26685	25280	123944	26733	1017517	41852	109889	0	0	8409	447117	0	0
2024-06-08 22:25:32			0	40799	0	0	0	26758	25310	123952	26979	1017703	41855	109917	0	0	8408	446695	0	0
2024-06-08 22:26:32			0	40763	0	0	0	26807	25340	124031	27239	1017888	41858	109936	0	0	8406	447863	0	0
2024-06-08 22:27:32			0	40762	0	0	0	26828	25380	124023	27124	1017984	41850	109944	0	0	8406	447796	0	0
2024-06-08 22:28:32			0	40755	0	0	0	26851	25410	124015	27230	1018116	41875	109953	0	0	8405	447962	0	0
2024-06-08 22:29:32			0	40762	0	0	0	26854	25440	123987	27272	1017953	41844	109954	0	0	8405	447643	0	0
2024-06-08 22:30:32			0	40785	0	0	0	26776	25400	123892	27490	1017571	41831	109924	0	0	8408	446951	0	0
2024-06-08 22:31:32			0	40769	0	0	0	26763	25390	123916	27013	1017653	41818	109919	0	0	8407	447529	0	0
2024-06-08 22:32:32			0	40776	0	0	0	26722	25370	123860	26987	1017439	41827	109903	0	0	8408	447338	0	0
2024-06-08 22:33:32			0	40763	0	0	0	26651	25340	123959	27150	1017093	41803	109876	0	0	8408	447863	0	0
2024-06-08 22:34:32			0	40757	0	0	0	26563	25310	124027	26930	1016801	41789	109842	0	0	8409	448147	0	0
2024-06-08 22:35:32			0	40755	0	0	0	26483	25260	124019	27196	1016447	41773	109811	0	0	8410	448343	0	0
2024-06-08 22:36:32			0	40748	0	0	0	26355	25220	124135	26956	1015968	41747	109762	0	0	8412	448688	0	0
2024-06-08 22:37:32			0	40782	0	0	0	26244	25130	124160	27199	1015590	41761	109719	0	0	8415	447740	0	0
2024-06-08 22:38:32			0	40731	0	0	0	26186	25080	124199	27414	1015629	41755	109697	0	0	8414	449634	0	0
2024-06-08 22:39:32			0	40722	0	0	0	26241	25080	124187	27317	1016093	41812	109718	0	0	8412	449946	0	0
2024-06-08 22:40:32			0	40716	0	0	0	26373	25110	124151	27486	1016573	41860	109769	0	0	8410	450077	0	0
2024-06-08 22:41:32			0	40718	0	0	0	26506	25160	124131	27255	1016891	41863	109820	0	0	8408	449880	0	0
2024-06-08 22:42:32			0	40749	0	0	0	26594	25220	124075	27317	1017200	41879	109854	0	0	8408	448653	0	0
2024-06-08 22:43:32			0	40763	0	0	0	26672	25240	123999	26939	1017403	41860	109884	0	0	8408	448118	0	0
2024-06-08 22:44:32			0	40748	0	0	0	26724	25280	124015	27185	1017490	41852	109904	0	0	8406	448535	0	0
2024-06-08 22:45:32			0	40766	0	0	0	26750	25300	123971	27353	1017641	41865	109914	0	0	8407	447861	0	0
2024-06-08 22:46:32			0	40756	0	0	0	26784	25340	123995	27350	1017808	41858	109927	0	0	8406	448105	0	0
2024-06-08 22:47:32			0	40757	0	0	0	26833	25360	123955	27249	1017923	41881	109946	0	0	8405	448020	0	0
2024-06-08 22:48:32			0	40767	0	0	0	26870	25400	123987	27189	1018098	41852	109960	0	0	8405	447572	0	0
2024-06-08 22:49:32			0	40774	0	0	0	26901	25410	123912	26987	1018178	41865	109972	0	0	8405	447305	0	0
2024-06-08 22:50:32			0	40775	0	0	0	26950	25450	123908	27303	1018381	41890	109991	0	0	8404	447169	0	0
2024-06-08 22:51:32			0	40751	0	0	0	26979	25460	123887	27088	1018451	41880	110002	0	0	8403	447973	0	0
2024-06-08 22:52:32			0	40774	0	0	0	27015	25510	123804	27201	1018547	41895	110016	0	0	8403	447051	0	0
2024-06-08 22:53:32			0	40769	0	0	0	27031	25520	123956	27085	1018653	41885	110022	0	0	8403	447198	0	0
2024-06-08 22:54:32			0	40748	0	0	0	27059	25540	123939	26824	1018768	41888	110033	0	0	8401	447872	0	0
2024-06-08 22:55:32			0	40761	0	0	0	27080	25560	123907	26946	1018749	41878	110041	0	0	8402	447372	0	0
2024-06-08 22:56:32			0	40774	0	0	0	27090	25580	123884	27232	1018802	41902	110045	0	0	8402	446873	0	0
2024-06-08 22:57:32			0	40769	0	0	0	27098	25590	123767	26958	1018881	41880	110048	0	0	8402	447020	0	0
2024-06-08 22:58:32			0	40755	0	0	0	27109	25600	123895	27274	1018952	41905	110052	0	0	8401	447478	0	0
2024-06-08 22:59:32			0	40763	0	0	0	27109	25620	123875	27190	1019040	41917	110052	0	0	8402	447151	0	0
2024-06-08 23:00:32			0	40793	0	0	0	27111	25620	123824	27128	1019013	41884	110053	0	0	8403	446116	0	0
2024-06-08 23:01:32			0	40782	0	0	0	27111	25650	123760	27196	1019064	41920	110053	0	0	8403	446419	0	0
2024-06-08 23:02:32			0	40765	0	0	0	27116	25640	123731	26759	1019101	41897	110055	0	0	8402	447031	0	0
2024-06-08 23:03:32			0	40796	0	0	0	27114	25650	123788	27315	1019091	41898	110054	0	0	8404	445936	0	0
2024-06-08 23:04:32			0	40815	0	0	0	27122	25660	123768	27242	1019046	41898	110057	0	0	8404	445256	0	0
2024-06-08 23:05:32			0	40797	0	0	0	27119	25660	123680	27170	1019100	41898	110056	0	0	8404	445876	0	0
2024-06-08 23:06:32			0	40813	0	0	0	27127	25670	123676	27164	1019117	41911	110059	0	0	8404	445300	0	0
2024-06-08 23:07:32			0	40804	0	0	0	27119	25680	123700	27173	1019161	41912	110056	0	0	8404	445584	0	0
2024-06-08 23:08:32			0	40814	0	0	0	27119	25680	123664	27367	1019108	41901	110056	0	0	8404	445240	0	0
2024-06-08 23:09:32			0	40804	0	0	0	27116	25670	123700	26996	1019126	41911	110055	0	0	8404	445610	0	0
2024-06-08 23:10:32			0	40784	0	0	0	27106	25680	123740	26968	1019135	41889	110051	0	0	8403	446274	0	0
2024-06-08 23:11:32			0	40810	0	0	0	27106	25680	123780	26960	1019143	41901	110051	0	0	8404	445378	0	0
2024-06-08 23:12:32			0	40823	0	0	0	27103	25670	123684	26934	1019099	41888	110050	0	0	8405	444955	0	0
2024-06-08 23:13:32			0	40817	0	0	0	27096	25680	123720	27294	1019036	41901	110047	0	0	8405	445137	0	0
2024-06-08 23:14:32			0	40799	0	0	0	27093	25680	123696	27114	1019001	41901	110046	0	0	8404	445757	0	0
2024-06-08 23:15:32			0	40817	0	0	0	27070	25660	123668	27092	1018894	41887	110037	0	0	8405	445187	0	0
2024-06-08 23:16:32			0	40813	0	0	0	27049	25660	123704	27242	1018840	41876	110029	0	0	8406	445325	0	0
2024-06-08 23:17:32			0	40837	0	0	0	27031	25650	123700	27228	1018788	41875	110022	0	0	8407	444524	0	0
2024-06-08 23:18:32			0	40831	0	0	0	27012	25640	123672	27279	1018726	41875	110015	0	0	8407	444756	0	0
2024-06-08 23:19:32			0	40858	0	0	0	27005	25620	123580	26956	1018665	41884	110012	0	0	8408	443877	0	0
2024-06-08 23:20:32			0	40858	0	0	0	26989	25620	123528	27208	1018638	41884	110006	0	0	8409	443877	0	0
2024-06-08 23:21:32			0	40871	0	0	0	26971	25600	123500	27228	1018577	41882	109999	0	0	8410	443481	0	0
2024-06-08 23:22:32			0	40889	0	0	0	26963	25600	123412	27085	1018595	41893	109996	0	0	8411	442863	0	0
2024-06-08 23:23:32			0	40894	0	0	0	26961	25590	123472	27348	1018524	41870	109995	0	0	8411	442716	0	0
2024-06-08 23:24:32			0	40895	0	0	0	26942	25580	123408	27187	1018507	41879	109988	0	0	8411	442707	0	0
2024-06-08 23:25:32			0	40939	0	0	0	26940	25570	123372	27333	1018436	41878	109987	0	0	8414	441222	0	0
2024-06-08 23:26:32			0	40927	0	0	0	26942	25560	123352	27348	1018508	41878	109988	0	0	8413	441659	0	0
2024-06-08 23:27:32			0	40945	0	0	0	26937	25550	123344	27206	1018383	41888	109986	0	0	8414	441067	0	0
2024-06-08 23:28:32			0	40928	0	0	0	26935	25550	123336	27232	1018383	41888	109985	0	0	8413	441650	0	0
2024-06-08 23:29:32			0	40937	0	0	0	26924	25550	123248	27230	1018401	41877	109981	0	0	8414	441341	0	0
2024-06-08 23:30:32			0	40963	0	0	0	26927	25550	123320	27149	1018348	41888	109982	0	0	8415	440450	0	0
2024-06-08 23:31:32			0	40967	0	0	0	26922	25530	123268	27152	1018268	41875	109980	0	0	8415	440363	0	0
2024-06-08 23:32:32			0	40983	0	0	0	26909	25530	123268	27450	1018340	41875	109975	0	0	8416	439815	0	0
2024-06-08 23:33:32			0	40974	0	0	0	26903	25530	123296	27279	1018287	41875	109973	0	0	8416	440123	0	0
2024-06-08 23:34:32			0	40991	0	0	0	26919	25530	123208	27130	1018295	41886	109979	0	0	8417	439541	0	0
2024-06-08 23:35:32			0	40990	0	0	0	26914	25520	123344	27393	1018305	41897	109977	0	0	8417	439600	0	0
2024-06-08 23:36:32			0	40997	0	0	0	26911	25530	123256	27223	1018233	41875	109976	0	0	8417	439336	0	0
2024-06-08 23:37:32			0	40985	0	0	0	26914	25520	123144	27324	1018243	41885	109977	0	0	8416	439772	0	0
2024-06-08 23:38:32			0	40998	0	0	0	26903	25520	123256	26835	1018251	41897	109973	0	0	8417	439327	0	0
2024-06-08 23:39:32			0	41005	0	0	0	26893	25510	123220	26958	1018118	41873	109969	0	0	8418	439112	0	0
2024-06-08 23:40:32			0	41017	0	0	0	26880	25500	123200	26840	1018083	41883	109964	0	0	8418	438727	0	0
2024-06-08 23:41:32			0	41017	0	0	0	26875	25500	123160	27149	1018163	41873	109962	0	0	8419	438727	0	0
2024-06-08 23:42:32			0	41036	0	0	0	26870	25490	123224	27124	1018093	41883	109960	0	0	8420	438102	0	0
2024-06-08 23:43:32			0	41016	0	0	0	26870	25480	123152	27249	1018084	41871	109960	0	0	8418	438811	0	0
2024-06-08 23:44:32			0	41028	0	0	0	26862	25480	123196	27147	1018075	41882	109957	0	0	8419	438401	0	0
2024-06-08 23:45:32			0	41031	0	0	0	26862	25480	123104	27317	1018075	41871	109957	0	0	8419	438298	0	0
2024-06-08 23:46:32			0	41054	0	0	0	26849	25470	123112	27140	1018040	41882	109952	0	0	8421	437537	0	0
2024-06-08 23:47:32			0	41043	0	0	0	26836	25460	123076	26842	1017942	41869	109947	0	0	8420	437938	0	0
2024-06-08 23:48:32			0	41042	0	0	0	26833	25460	123160	27315	1017907	41879	109946	0	0	8420	437972	0	0
2024-06-08 23:49:32			0	41052	0	0	0	26828	25450	123100	27168	1017890	41869	109944	0	0	8421	437655	0	0
2024-06-08 23:50:32			0	41049	0	0	0	26828	25440	123088	26871	1017900	41877	109944	0	0	8421	437782	0	0
2024-06-08 23:51:32			0	41067	0	0	0	26828	25450	123132	27170	1017890	41879	109944	0	0	8422	437143	0	0
2024-06-08 23:52:32			0	41056	0	0	0	26820	25440	123244	26949	1017873	41877	109941	0	0	8421	437543	0	0
2024-06-08 23:53:32			0	41052	0	0	0	26812	25440	123108	27163	1017846	41877	109938	0	0	8421	437680	0	0
2024-06-08 23:54:32			0	41041	0	0	0	26799	25420	123204	27263	1017793	41866	109933	0	0	8421	438106	0	0
2024-06-08 23:55:32			0	41047	0	0	0	26797	25410	123116	27211	1017776	41865	109932	0	0	8421	437925	0	0
2024-06-08 23:56:32			0	41055	0	0	0	26792	25410	123172	27145	1017696	41875	109930	0	0	8422	437652	0	0
2024-06-08 23:57:32			0	41034	0	0	0	26797	25400	123128	27293	1017678	41886	109932	0	0	8420	438395	0	0
2024-06-08 23:58:32			0	41036	0	0	0	26784	25410	123208	27083	1017714	41887	109927	0	0	8421	438301	0	0
2024-06-08 23:59:32			0	41038	0	0	0	26773	25390	123160	26987	1017688	41863	109923	0	0	8421	438283	0	0
2024-06-09 00:00:32			0	40990	0	0	0	26773	25390	123268	27066	1017653	41862	109923	0	0	8418	439925	0	0
2024-06-09 00:01:32			0	41006	0	0	0	26773	25390	123288	27386	1017653	41874	109923	0	0	8419	439377	0	0
2024-06-09 00:02:32			0	41024	0	0	0	26766	25380	123208	27190	1017671	41874	109920	0	0	8420	438787	0	0
2024-06-09 00:03:32			0	41017	0	0	0	26766	25390	123252	26805	1017653	41874	109920	0	0	8420	439001	0	0
2024-06-09 00:04:32			0	41008	0	0	0	26763	25390	123252	27092	1017599	41884	109919	0	0	8420	439309	0	0
2024-06-09 00:05:32			0	40992	0	0	0	26771	25370	123284	27076	1017618	41872	109922	0	0	8418	439907	0	0
2024-06-09 00:06:32			0	41001	0	0	0	26763	25370	123356	27045	1017573	41860	109919	0	0	8419	439599	0	0
2024-06-09 00:07:32			0	41020	0	0	0	26761	25370	123316	27137	1017520	41872	109918	0	0	8420	438948	0	0
2024-06-09 00:08:32			0	41013	0	0	0	26753	25360	123328	26809	1017521	41871	109915	0	0	8420	439213	0	0
2024-06-09 00:09:32			0	40991	0	0	0	26740	25360	123284	27175	1017467	41859	109910	0	0	8419	439966	0	0
2024-06-09 00:10:32			0	40981	0	0	0	26742	25350	123296	26880	1017539	41859	109911	0	0	8418	440334	0	0
2024-06-09 00:11:32			0	40984	0	0	0	26737	25340	123372	26909	1017441	41870	109909	0	0	8419	440256	0	0
2024-06-09 00:12:32			0	40980	0	0	0	26732	25330	123344	27046	1017424	41857	109907	0	0	8418	440418	0	0
2024-06-09 00:13:32			0	41033	0	0	0	26735	25340	123404	27267	1017433	41869	109908	0	0	8421	438578	0	0
2024-06-09 00:14:32			0	40986	0	0	0	26727	25330	123332	27414	1017451	41868	109905	0	0	8419	440212	0	0
2024-06-09 00:15:32			0	41008	0	0	0	26719	25330	123292	27505	1017416	41868	109902	0	0	8420	439459	0	0
2024-06-09 00:16:32			0	41006	0	0	0	26714	25330	123348	27107	1017344	41868	109900	0	0	8420	439527	0	0
2024-06-09 00:17:32			0	40997	0	0	0	26724	25320	123368	27204	1017380	41867	109904	0	0	8419	439860	0	0
2024-06-09 00:18:32			0	40987	0	0	0	26722	25310	123440	26901	1017310	41877	109903	0	0	8419	440228	0	0
2024-06-09 00:19:32			0	40993	0	0	0	26711	25320	123332	27086	1017327	41889	109899	0	0	8419	439998	0	0
2024-06-09 00:20:32			0	40993	0	0	0	26714	25320	123420	27369	1017345	41878	109900	0	0	8419	439998	0	0
2024-06-09 00:21:32			0	40989	0	0	0	26714	25320	123412	27308	1017372	41878	109900	0	0	8419	440135	0	0
2024-06-09 00:22:32			0	40973	0	0	0	26698	25310	123428	26989	1017363	41866	109894	0	0	8418	440708	0	0
2024-06-09 00:23:32			0	40985	0	0	0	26709	25310	123424	27183	1017355	41866	109898	0	0	8419	440297	0	0
2024-06-09 00:24:32			0	40983	0	0	0	26706	25320	123488	27308	1017345	41878	109897	0	0	8419	440340	0	0
2024-06-09 00:25:32			0	40992	0	0	0	26706	25310	123412	27180	1017310	41866	109897	0	0	8419	440057	0	0
2024-06-09 00:26:32			0	40977	0	0	0	26706	25320	123368	27144	1017318	41867	109897	0	0	8419	440546	0	0
2024-06-09 00:27:32			0	40987	0	0	0	26719	25310	123548	27159	1017328	41866	109902	0	0	8419	440228	0	0
2024-06-09 00:28:32			0	40972	0	0	0	26696	25310	123424	26960	1017381	41877	109893	0	0	8418	440742	0	0
2024-06-09 00:29:32			0	40973	0	0	0	26706	25310	123432	27336	1017328	41877	109897	0	0	8418	440708	0	0
2024-06-09 00:30:32			0	40953	0	0	0	26714	25300	123404	27358	1017319	41876	109900	0	0	8417	441419	0	0
2024-06-09 00:31:32			0	40943	0	0	0	26709	25300	123388	27197	1017319	41876	109898	0	0	8417	441762	0	0
2024-06-09 00:32:32			0	40939	0	0	0	26709	25310	123512	27370	1017328	41877	109898	0	0	8416	441875	0	0
2024-06-09 00:33:32			0	40950	0	0	0	26706	25300	123596	27251	1017319	41865	109897	0	0	8417	441522	0	0
2024-06-09 00:34:32			0	40972	0	0	0	26701	25300	123560	27248	1017284	41865	109895	0	0	8418	440767	0	0
2024-06-09 00:35:32			0	40945	0	0	0	26701	25300	123488	27180	1017266	41865	109895	0	0	8417	441694	0	0
2024-06-09 00:36:32			0	40955	0	0	0	26701	25290	123596	27102	1017347	41852	109895	0	0	8417	441376	0	0
2024-06-09 00:37:32			0	40917	0	0	0	26696	25300	123532	27229	1017310	41876	109893	0	0	8416	442656	0	0
2024-06-09 00:38:32			0	40921	0	0	0	26690	25290	123588	27227	1017221	41875	109891	0	0	8416	442543	0	0
2024-06-09 00:39:32			0	40914	0	0	0	26693	25290	123632	27251	1017240	41875	109892	0	0	8415	442784	0	0
2024-06-09 00:40:32			0	40917	0	0	0	26690	25290	123632	27270	1017275	41875	109891	0	0	8416	442681	0	0
2024-06-09 00:41:32			0	40939	0	0	0	26685	25290	123600	27409	1017293	41864	109889	0	0	8417	441925	0	0
2024-06-09 00:42:32			0	40898	0	0	0	26688	25290	123644	27338	1017186	41875	109890	0	0	8415	443334	0	0
2024-06-09 00:43:32			0	40923	0	0	0	26683	25290	123608	27338	1017266	41864	109888	0	0	8416	442475	0	0
2024-06-09 00:44:32			0	40913	0	0	0	26683	25290	123700	27202	1017186	41875	109888	0	0	8415	442818	0	0
2024-06-09 00:45:32			0	40911	0	0	0	26677	25280	123592	27218	1017249	41864	109886	0	0	8415	442912	0	0
2024-06-09 00:46:32			0	40907	0	0	0	26675	25270	123724	27256	1017214	41863	109885	0	0	8415	443075	0	0
2024-06-09 00:47:32			0	40909	0	0	0	26675	25270	123668	27473	1017187	41884	109885	0	0	8415	443006	0	0
2024-06-09 00:48:32			0	40895	0	0	0	26680	25290	123608	27090	1017213	41864	109887	0	0	8415	443437	0	0
2024-06-09 00:49:32			0	40903	0	0	0	26677	25280	123708	27341	1017169	41875	109886	0	0	8415	443187	0	0
2024-06-09 00:50:32			0	40894	0	0	0	26672	25280	123704	27029	1017249	41864	109884	0	0	8415	443497	0	0
2024-06-09 00:51:32			0	40892	0	0	0	26685	25270	123708	27263	1017205	41873	109889	0	0	8414	443591	0	0
2024-06-09 00:52:32			0	40906	0	0	0	26680	25280	123664	27216	1017169	41875	109887	0	0	8415	443084	0	0
2024-06-09 00:53:32			0	40890	0	0	0	26680	25280	123704	27547	1017222	41864	109887	0	0	8414	443634	0	0
2024-06-09 00:54:32			0	40891	0	0	0	26680	25280	123712	27164	1017222	41875	109887	0	0	8414	443600	0	0
2024-06-09 00:55:32			0	40888	0	0	0	26693	25270	123700	27371	1017214	41863	109892	0	0	8414	443728	0	0
2024-06-09 00:56:32			0	40890	0	0	0	26685	25270	123692	27260	1017214	41874	109889	0	0	8414	443660	0	0
2024-06-09 00:57:32			0	40881	0	0	0	26688	25270	123652	27409	1017214	41874	109890	0	0	8414	443969	0	0
2024-06-09 00:58:32			0	40878	0	0	0	26685	25280	123696	27213	1017231	41864	109889	0	0	8414	444048	0	0
2024-06-09 00:59:32			0	40898	0	0	0	26685	25280	123740	27189	1017196	41875	109889	0	0	8415	443359	0	0
2024-06-09 01:00:32			0	40889	0	0	0	26688	25280	123716	27556	1017204	41875	109890	0	0	8414	443669	0	0
2024-06-09 01:01:32			0	40881	0	0	0	26685	25280	123764	27229	1017258	41875	109889	0	0	8414	443944	0	0
2024-06-09 01:02:32			0	40879	0	0	0	26680	25280	123812	27831	1017196	41875	109887	0	0	8414	444013	0	0
2024-06-09 01:03:32			0	40873	0	0	0	26677	25270	123748	27473	1017133	41874	109886	0	0	8413	444245	0	0
2024-06-09 01:04:32			0	40875	0	0	0	26685	25280	123744	27161	1017196	41875	109889	0	0	8413	444151	0	0
2024-06-09 01:05:32			0	40872	0	0	0	26675	25270	123668	27270	1017205	41873	109885	0	0	8413	444279	0	0
2024-06-09 01:06:32			0	40880	0	0	0	26670	25270	123812	27067	1017152	41873	109883	0	0	8414	444004	0	0
2024-06-09 01:07:32			0	40880	0	0	0	26672	25260	123820	27097	1017090	41873	109884	0	0	8414	444029	0	0
2024-06-09 01:08:32			0	40885	0	0	0	26664	25260	124004	27286	1017170	41862	109881	0	0	8414	443857	0	0
2024-06-09 01:09:32			0	40866	0	0	0	26662	25260	123804	27379	1017090	41873	109880	0	0	8413	444511	0	0
2024-06-09 01:10:32			0	40850	0	0	0	26662	25250	123760	27046	1017180	41872	109880	0	0	8412	445088	0	0
2024-06-09 01:11:32			0	40857	0	0	0	26664	25260	123776	27300	1017108	41861	109881	0	0	8413	444821	0	0
2024-06-09 01:12:32			0	40860	0	0	0	26659	25260	123840	27222	1017143	41873	109879	0	0	8413	444718	0	0
2024-06-09 01:13:32			0	40874	0	0	0	26651	25260	123772	27289	1017090	41862	109876	0	0	8414	444236	0	0
2024-06-09 01:14:32			0	40860	0	0	0	26649	25250	123768	27246	1017046	41872	109875	0	0	8413	444743	0	0
2024-06-09 01:15:32			0	40871	0	0	0	26657	25260	123756	27398	1017090	41883	109878	0	0	8414	444339	0	0
2024-06-09 01:16:32			0	40856	0	0	0	26667	25260	123788	27150	1017135	41883	109882	0	0	8413	444856	0	0
2024-06-09 01:17:32			0	40865	0	0	0	26670	25270	123816	27173	1017152	41873	109883	0	0	8413	444520	0	0
2024-06-09 01:18:32			0	40873	0	0	0	26680	25260	123816	27369	1017161	41872	109887	0	0	8413	444270	0	0
2024-06-09 01:19:32			0	40849	0	0	0	26683	25260	123792	27038	1017135	41872	109888	0	0	8412	445097	0	0
2024-06-09 01:20:32			0	40856	0	0	0	26685	25260	123880	27431	1017116	41883	109889	0	0	8412	444856	0	0
2024-06-09 01:21:32			0	40853	0	0	0	26677	25260	123776	27138	1017135	41872	109886	0	0	8412	444959	0	0
2024-06-09 01:22:32			0	40866	0	0	0	26683	25270	123724	27039	1017160	41874	109888	0	0	8413	444486	0	0
2024-06-09 01:23:32			0	40872	0	0	0	26685	25270	123776	27246	1017241	41874	109889	0	0	8413	444279	0	0
2024-06-09 01:24:32			0	40883	0	0	0	26696	25270	123784	27300	1017214	41863	109893	0	0	8414	443901	0	0
2024-06-09 01:25:32			0	40855	0	0	0	26685	25280	123808	27008	1017231	41875	109889	0	0	8412	444840	0	0
2024-06-09 01:26:32			0	40860	0	0	0	26688	25270	123788	27066	1017187	41884	109890	0	0	8413	444693	0	0
2024-06-09 01:27:32			0	40860	0	0	0	26696	25270	123824	27289	1017187	41863	109893	0	0	8412	444693	0	0
2024-06-09 01:28:32			0	40867	0	0	0	26693	25270	123860	26934	1017160	41863	109892	0	0	8413	444452	0	0
2024-06-09 01:29:32			0	40863	0	0	0	26690	25270	123792	26791	1017107	41884	109891	0	0	8413	444589	0	0
2024-06-09 01:30:32			0	40879	0	0	0	26677	25270	123800	27024	1017107	41884	109886	0	0	8414	444038	0	0
2024-06-09 01:31:32			0	40849	0	0	0	26664	25270	123780	27215	1017098	41873	109881	0	0	8412	445072	0	0
2024-06-09 01:32:32			0	40866	0	0	0	26657	25260	123856	27317	1017090	41883	109878	0	0	8413	444511	0	0
2024-06-09 01:33:32			0	40857	0	0	0	26654	25260	123876	27019	1017054	41872	109877	0	0	8413	444821	0	0
2024-06-09 01:34:32			0	40873	0	0	0	26644	25260	123844	27064	1017108	41861	109873	0	0	8414	444270	0	0
2024-06-09 01:35:32			0	40861	0	0	0	26638	25250	123856	27332	1016965	41883	109871	0	0	8413	444709	0	0
2024-06-09 01:36:32			0	40855	0	0	0	26641	25250	123832	27192	1017126	41883	109872	0	0	8413	444915	0	0
2024-06-09 01:37:32			0	40842	0	0	0	26651	25250	123880	27239	1016983	41860	109876	0	0	8412	445364	0	0
2024-06-09 01:38:32			0	40857	0	0	0	26638	25250	123952	27242	1017091	41871	109871	0	0	8413	444847	0	0
2024-06-09 01:39:32			0	40865	0	0	0	26641	25250	123828	27121	1017072	41872	109872	0	0	8414	444571	0	0
2024-06-09 01:40:32			0	40834	0	0	0	26638	25240	123924	27166	1017020	41881	109871	0	0	8412	445665	0	0
2024-06-09 01:41:32			0	40832	0	0	0	26649	25240	123932	27145	1017055	41871	109875	0	0	8412	445734	0	0
2024-06-09 01:42:32			0	40846	0	0	0	26641	25250	123868	27383	1017037	41871	109872	0	0	8413	445226	0	0
2024-06-09 01:43:32			0	40854	0	0	0	26638	25230	123844	27239	1016985	41881	109871	0	0	8413	445000	0	0
2024-06-09 01:44:32			0	40884	0	0	0	26636	25240	123932	27402	1017082	41871	109870	0	0	8415	443942	0	0
2024-06-09 01:45:32			0	40855	0	0	0	26644	25240	123840	27048	1017020	41881	109873	0	0	8413	444941	0	0
2024-06-09 01:46:32			0	40864	0	0	0	26638	25230	123840	27300	1017011	41870	109871	0	0	8413	444656	0	0
2024-06-09 01:47:32			0	40833	0	0	0	26633	25240	123960	27320	1017028	41882	109869	0	0	8412	445699	0	0
2024-06-09 01:48:32			0	40836	0	0	0	26628	25230	123960	27428	1016931	41881	109867	0	0	8412	445621	0	0
2024-06-09 01:49:32			0	40839	0	0	0	26625	25230	123820	27156	1016976	41880	109866	0	0	8412	445518	0	0
2024-06-09 01:50:32			0	40858	0	0	0	26625	25220	123896	27348	1016994	41870	109866	0	0	8413	444888	0	0
2024-06-09 01:51:32			0	40850	0	0	0	26618	25220	123812	27202	1016941	41858	109863	0	0	8413	445164	0	0
2024-06-09 01:52:32			0	40853	0	0	0	26620	25240	123892	26937	1016940	41881	109864	0	0	8413	445010	0	0
2024-06-09 01:53:32			0	40852	0	0	0	26631	25230	123848	27274	1016922	41870	109868	0	0	8413	445069	0	0
2024-06-09 01:54:32			0	40846	0	0	0	26625	25230	123836	27274	1016976	41870	109866	0	0	8413	445276	0	0
2024-06-09 01:55:32			0	40841	0	0	0	26631	25230	123844	27112	1016896	41880	109868	0	0	8412	445449	0	0
2024-06-09 01:56:32			0	40838	0	0	0	26620	25220	123832	27251	1016833	41880	109864	0	0	8412	445577	0	0
2024-06-09 01:57:32			0	40854	0	0	0	26623	25220	123944	27170	1016941	41870	109865	0	0	8413	445026	0	0
2024-06-09 01:58:32			0	40846	0	0	0	26620	25230	123900	26949	1016949	41870	109864	0	0	8413	445276	0	0
2024-06-09 01:59:32			0	40844	0	0	0	26620	25220	123948	26923	1016932	41869	109864	0	0	8413	445371	0	0
2024-06-09 02:00:32			0	40854	0	0	0	26615	25220	123892	26984	1016932	41869	109862	0	0	8413	445026	0	0
2024-06-09 02:01:32			0	40844	0	0	0	26620	25220	123856	27069	1016878	41857	109864	0	0	8413	445371	0	0
2024-06-09 02:02:32			0	40860	0	0	0	26618	25220	123912	27431	1016932	41879	109863	0	0	8414	444819	0	0
2024-06-09 02:03:32			0	40849	0	0	0	26618	25210	123852	27365	1016897	41856	109863	0	0	8413	445223	0	0
2024-06-09 02:04:32			0	40855	0	0	0	26612	25210	123872	27234	1016950	41878	109861	0	0	8413	445016	0	0
2024-06-09 02:05:32			0	40848	0	0	0	26610	25210	123912	27064	1016977	41868	109860	0	0	8413	445258	0	0
2024-06-09 02:06:32			0	40846	0	0	0	26607	25210	123856	26955	1016923	41856	109859	0	0	8413	445327	0	0
2024-06-09 02:07:32			0	40843	0	0	0	26599	25220	123868	27102	1016878	41879	109856	0	0	8413	445405	0	0
2024-06-09 02:08:32			0	40867	0	0	0	26594	25220	123884	27329	1016852	41869	109854	0	0	8414	444578	0	0
2024-06-09 02:09:32			0	40843	0	0	0	26599	25200	123876	27248	1016826	41868	109856	0	0	8413	445456	0	0
2024-06-09 02:10:32			0	40843	0	0	0	26599	25210	123840	27381	1016843	41868	109856	0	0	8413	445430	0	0
2024-06-09 02:11:32			0	40853	0	0	0	26602	25210	123840	27194	1016861	41878	109857	0	0	8413	445085	0	0
2024-06-09 02:12:32			0	40839	0	0	0	26605	25210	123860	27071	1016915	41856	109858	0	0	8413	445568	0	0
2024-06-09 02:13:32			0	40819	0	0	0	26599	25200	123848	27211	1016906	41868	109856	0	0	8412	446284	0	0
2024-06-09 02:14:32			0	40854	0	0	0	26589	25210	123896	27381	1016835	41878	109852	0	0	8414	445051	0	0
2024-06-09 02:15:32			0	40849	0	0	0	26597	25210	123852	27415	1016835	41878	109855	0	0	8413	445223	0	0
2024-06-09 02:16:32			0	40846	0	0	0	26563	25200	123868	27057	1016683	41844	109842	0	0	8414	445352	0	0
2024-06-09 02:17:32			0	40826	0	0	0	26467	25160	123900	27173	1016034	41819	109805	0	0	8414	446143	0	0
2024-06-09 02:18:32			0	40846	0	0	0	26327	25100	123968	27204	1015592	41780	109751	0	0	8417	445605	0	0
2024-06-09 02:19:32			0	40828	0	0	0	26303	25070	123972	27209	1015799	41822	109742	0	0	8417	446302	0	0
2024-06-09 02:20:32			0	40826	0	0	0	26324	25060	124140	27166	1015943	41864	109750	0	0	8416	446397	0	0
2024-06-09 02:21:32			0	40803	0	0	0	26332	25050	124012	27192	1016006	41842	109753	0	0	8415	447217	0	0
2024-06-09 02:22:32			0	40815	0	0	0	26335	25050	124108	27190	1016015	41842	109754	0	0	8415	446802	0	0
2024-06-09 02:23:32			0	40808	0	0	0	26358	25060	124112	27131	1016077	41853	109763	0	0	8415	447019	0	0
2024-06-09 02:24:32			0	40783	0	0	0	26379	25070	124128	27177	1016201	41855	109771	0	0	8413	447858	0	0
2024-06-09 02:25:32			0	40785	0	0	0	26402	25070	124116	27045	1016281	41844	109780	0	0	8413	447789	0	0
2024-06-09 02:26:32			0	40783	0	0	0	26423	25080	124164	27111	1016352	41855	109788	0	0	8412	447832	0	0
2024-06-09 02:27:32			0	40798	0	0	0	26444	25080	124128	27130	1016414	41867	109796	0	0	8413	447314	0	0
2024-06-09 02:28:32			0	40788	0	0	0	26475	25090	124080	27241	1016431	41858	109808	0	0	8412	447634	0	0
2024-06-09 02:29:32			0	40793	0	0	0	26493	25100	123988	27270	1016493	41869	109815	0	0	8412	447436	0	0
2024-06-09 02:30:32			0	40813	0	0	0	26516	25100	124012	27274	1016555	41858	109824	0	0	8412	446744	0	0
2024-06-09 02:31:32			0	40829	0	0	0	26529	25120	123924	27144	1016617	41860	109829	0	0	8413	446141	0	0
2024-06-09 02:32:32			0	40863	0	0	0	26542	25130	123856	27178	1016625	41860	109834	0	0	8415	444943	0	0
2024-06-09 02:33:32			0	40861	0	0	0	26553	25140	123904	27024	1016642	41850	109838	0	0	8414	444986	0	0
2024-06-09 02:34:32			0	40889	0	0	0	26555	25140	123724	27072	1016678	41861	109839	0	0	8416	444022	0	0
2024-06-09 02:35:32			0	40910	0	0	0	26563	25150	123772	27187	1016633	41874	109842	0	0	8417	443274	0	0
2024-06-09 02:36:32			0	40882	0	0	0	26563	25150	123824	26935	1016686	41862	109842	0	0	8415	444237	0	0
2024-06-09 02:37:32			0	40905	0	0	0	26571	25150	123804	27281	1016713	41862	109845	0	0	8416	443446	0	0
2024-06-09 02:38:32			0	40916	0	0	0	26571	25150	123768	27286	1016695	41874	109845	0	0	8417	443067	0	0
2024-06-09 02:39:32			0	40914	0	0	0	26584	25160	123720	27710	1016650	41874	109850	0	0	8417	443111	0	0
2024-06-09 02:40:32			0	40913	0	0	0	26589	25160	123688	27331	1016757	41863	109852	0	0	8417	443145	0	0
2024-06-09 02:41:32			0	40913	0	0	0	26589	25170	123720	27189	1016747	41864	109852	0	0	8417	443120	0	0
2024-06-09 02:42:32			0	40925	0	0	0	26584	25160	123684	26930	1016739	41864	109850	0	0	8417	442732	0	0
2024-06-09 02:43:32			0	40924	0	0	0	26592	25160	123604	27350	1016766	41875	109853	0	0	8417	442767	0	0
2024-06-09 02:44:32			0	40924	0	0	0	26592	25170	123656	27391	1016863	41865	109853	0	0	8417	442742	0	0
2024-06-09 02:45:32			0	40915	0	0	0	26589	25170	123672	27196	1016783	41865	109852	0	0	8417	443051	0	0
2024-06-09 02:46:32			0	40923	0	0	0	26597	25170	123704	27150	1016783	41875	109855	0	0	8417	442776	0	0
2024-06-09 02:47:32			0	40908	0	0	0	26605	25170	123672	27336	1016863	41887	109858	0	0	8416	443292	0	0
2024-06-09 02:48:32			0	40910	0	0	0	26610	25180	123708	27225	1016872	41875	109860	0	0	8416	443198	0	0
2024-06-09 02:49:32			0	40896	0	0	0	26605	25200	123720	27251	1016871	41867	109858	0	0	8416	443630	0	0
2024-06-09 02:50:32			0	40897	0	0	0	26610	25180	123732	27241	1016881	41876	109860	0	0	8415	443645	0	0
2024-06-09 02:51:32			0	40881	0	0	0	26612	25180	123800	27012	1016881	41876	109861	0	0	8415	444196	0	0
2024-06-09 02:52:32			0	40863	0	0	0	26607	25200	123824	27281	1016906	41878	109859	0	0	8414	444766	0	0
2024-06-09 02:53:32			0	40861	0	0	0	26607	25190	123760	27079	1016889	41876	109859	0	0	8414	444860	0	0
2024-06-09 02:54:32			0	40855	0	0	0	26602	25200	123844	27003	1016871	41867	109857	0	0	8413	445042	0	0
2024-06-09 02:55:32			0	40848	0	0	0	26599	25190	123872	27213	1016916	41876	109856	0	0	8413	445309	0	0
2024-06-09 02:56:32			0	40852	0	0	0	26599	25200	123908	26996	1016844	41877	109856	0	0	8413	445145	0	0
2024-06-09 02:57:32			0	40836	0	0	0	26597	25200	123848	27121	1016799	41868	109855	0	0	8413	445697	0	0
2024-06-09 02:58:32			0	40835	0	0	0	26589	25190	123932	27180	1016862	41866	109852	0	0	8413	445757	0	0
2024-06-09 02:59:32			0	40838	0	0	0	26586	25190	123956	27140	1016809	41866	109851	0	0	8413	445653	0	0
2024-06-09 03:00:32			0	40823	0	0	0	26592	25190	123960	27071	1016809	41866	109853	0	0	8412	446171	0	0
2024-06-09 03:01:32			0	40825	0	0	0	26592	25200	123928	27230	1016817	41877	109853	0	0	8412	446077	0	0
2024-06-09 03:02:32			0	40813	0	0	0	26594	25180	124024	27118	1016773	41876	109854	0	0	8411	446542	0	0
2024-06-09 03:03:32			0	40799	0	0	0	26592	25190	124016	27163	1016728	41876	109853	0	0	8411	447000	0	0
2024-06-09 03:04:32			0	40800	0	0	0	26586	25180	124048	27178	1016845	41865	109851	0	0	8411	446991	0	0
2024-06-09 03:05:32			0	40811	0	0	0	26581	25180	124060	27410	1016827	41876	109849	0	0	8411	446611	0	0
2024-06-09 03:06:32			0	40803	0	0	0	26576	25190	124108	27170	1016809	41876	109847	0	0	8411	446862	0	0
2024-06-09 03:07:32			0	40764	0	0	0	26589	25180	124047	26906	1016765	41865	109852	0	0	8409	448236	0	0
2024-06-09 03:08:32			0	40782	0	0	0	26586	25180	124036	27043	1016792	41865	109851	0	0	8410	447613	0	0
2024-06-09 03:09:32			0	40762	0	0	0	26584	25190	124143	27306	1016809	41876	109850	0	0	8409	448279	0	0
2024-06-09 03:10:32			0	40777	0	0	0	26584	25170	124076	27020	1016783	41875	109850	0	0	8410	447811	0	0
2024-06-09 03:11:32			0	40756	0	0	0	26576	25200	124139	27289	1016791	41877	109847	0	0	8409	448462	0	0
2024-06-09 03:12:32			0	40767	0	0	0	26586	25180	124103	26949	1016792	41875	109851	0	0	8409	448132	0	0
2024-06-09 03:13:32			0	40785	0	0	0	26581	25190	124124	27334	1016755	41866	109849	0	0	8410	447484	0	0
2024-06-09 03:14:32			0	40777	0	0	0	26563	25180	124140	27163	1016720	41866	109842	0	0	8410	447786	0	0
2024-06-09 03:15:32			0	40755	0	0	0	26540	25170	124143	27007	1016560	41864	109833	0	0	8409	448573	0	0
2024-06-09 03:16:32			0	40767	0	0	0	26516	25150	124188	27166	1016481	41852	109824	0	0	8410	448208	0	0
2024-06-09 03:17:32			0	40743	0	0	0	26498	25150	124195	27232	1016526	41874	109817	0	0	8409	449039	0	0
2024-06-09 03:18:32			0	40756	0	0	0	26496	25140	124243	27222	1016463	41861	109816	0	0	8410	448614	0	0
2024-06-09 03:19:32			0	40760	0	0	0	26498	25140	124247	27332	1016508	41861	109817	0	0	8410	448476	0	0
2024-06-09 03:20:32			0	40728	0	0	0	26503	25130	124183	27154	1016553	41873	109819	0	0	8408	449610	0	0
2024-06-09 03:21:32			0	40732	0	0	0	26506	25130	124291	27261	1016553	41873	109820	0	0	8408	449471	0	0
2024-06-09 03:22:32			0	40740	0	0	0	26509	25130	124335	27119	1016527	41861	109821	0	0	8409	449194	0	0
2024-06-09 03:23:32			0	40742	0	0	0	26514	25130	124307	27270	1016518	41849	109823	0	0	8409	449125	0	0
2024-06-09 03:24:32			0	40751	0	0	0	26511	25130	124271	27284	1016473	41873	109822	0	0	8409	448813	0	0
2024-06-09 03:25:32			0	40710	0	0	0	26522	25130	124351	26939	1016438	41872	109826	0	0	8407	450234	0	0
2024-06-09 03:26:32			0	40743	0	0	0	26509	25120	124307	27230	1016402	41860	109821	0	0	8409	449116	0	0
2024-06-09 03:27:32			0	40739	0	0	0	26511	25120	124247	27350	1016367	41860	109822	0	0	8409	449254	0	0
2024-06-09 03:28:32			0	40736	0	0	0	26498	25110	124371	27194	1016430	41870	109817	0	0	8409	449384	0	0
2024-06-09 03:29:32			0	40752	0	0	0	26501	25120	124267	27187	1016474	41860	109818	0	0	8409	448804	0	0
2024-06-09 03:30:32			0	40736	0	0	0	26501	25120	124319	27201	1016429	41871	109818	0	0	8409	449358	0	0
2024-06-09 03:31:32			0	40725	0	0	0	26514	25110	124231	27156	1016430	41870	109823	0	0	8408	449765	0	0
2024-06-09 03:32:32			0	40737	0	0	0	26511	25110	124291	27232	1016466	41871	109822	0	0	8408	449349	0	0
2024-06-09 03:33:32			0	40746	0	0	0	26516	25110	124247	27147	1016457	41870	109824	0	0	8409	449037	0	0
2024-06-09 03:34:32			0	40737	0	0	0	26503	25100	124195	27026	1016448	41869	109819	0	0	8409	449375	0	0
2024-06-09 03:35:32			0	40739	0	0	0	26506	25110	124291	26913	1016377	41870	109820	0	0	8409	449280	0	0
2024-06-09 03:36:32			0	40720	0	0	0	26496	25110	124271	27322	1016439	41881	109816	0	0	8408	449938	0	0
2024-06-09 03:37:32			0	40736	0	0	0	26503	25110	124219	27071	1016403	41870	109819	0	0	8409	449384	0	0
2024-06-09 03:38:32			0	40702	0	0	0	26503	25100	124259	27305	1016333	41869	109819	0	0	8407	450588	0	0
2024-06-09 03:39:32			0	40734	0	0	0	26493	25090	124283	27187	1016351	41869	109815	0	0	8409	449504	0	0
2024-06-09 03:40:32			0	40742	0	0	0	26496	25100	124271	27267	1016341	41869	109816	0	0	8409	449201	0	0
2024-06-09 03:41:32			0	40726	0	0	0	26485	25100	124315	27254	1016341	41858	109812	0	0	8408	449756	0	0
2024-06-09 03:42:32			0	40741	0	0	0	26483	25100	124299	27100	1016279	41869	109811	0	0	8409	449236	0	0
2024-06-09 03:43:32			0	40738	0	0	0	26477	25080	124335	26875	1016280	41856	109809	0	0	8409	449391	0	0
2024-06-09 03:44:32			0	40729	0	0	0	26467	25080	124311	27166	1016218	41866	109805	0	0	8409	449703	0	0
2024-06-09 03:45:32			0	40745	0	0	0	26462	25080	124359	27339	1016200	41867	109803	0	0	8410	449148	0	0
2024-06-09 03:46:32			0	40714	0	0	0	26464	25070	124299	27277	1016210	41866	109804	0	0	8408	450249	0	0
2024-06-09 03:47:32			0	40739	0	0	0	26459	25080	124323	27422	1016272	41866	109802	0	0	8409	449356	0	0
2024-06-09 03:48:32			0	40698	0	0	0	26457	25070	124343	27450	1016210	41877	109801	0	0	8407	450804	0	0
2024-06-09 03:49:32			0	40691	0	0	0	26457	25070	124367	27357	1016210	41866	109801	0	0	8407	451047	0	0
2024-06-09 03:50:32			0	40733	0	0	0	26454	25060	124483	27436	1016166	41854	109800	0	0	8409	449615	0	0
2024-06-09 03:51:32			0	40707	0	0	0	26446	25070	124499	27244	1016201	41855	109797	0	0	8408	450492	0	0
2024-06-09 03:52:32			0	40720	0	0	0	26446	25060	124447	27305	1016192	41865	109797	0	0	8409	450066	0	0
2024-06-09 03:53:32			0	40710	0	0	0	26444	25050	124383	26977	1016175	41853	109796	0	0	8408	450439	0	0
2024-06-09 03:54:32			0	40708	0	0	0	26454	25050	124415	27251	1016202	41864	109800	0	0	8408	450508	0	0
2024-06-09 03:55:32			0	40691	0	0	0	26449	25060	124459	27319	1016157	41842	109798	0	0	8407	451073	0	0
2024-06-09 03:56:32			0	40711	0	0	0	26457	25070	124499	27067	1016210	41866	109801	0	0	8408	450353	0	0
2024-06-09 03:57:32			0	40696	0	0	0	26454	25050	124447	27104	1016148	41853	109800	0	0	8407	450925	0	0
2024-06-09 03:58:32			0	40694	0	0	0	26449	25060	124447	27123	1016184	41864	109798	0	0	8407	450968	0	0
2024-06-09 03:59:32			0	40710	0	0	0	26457	25060	124399	27284	1016139	41865	109801	0	0	8408	450413	0	0
2024-06-09 04:00:32			0	40690	0	0	0	26446	25060	124483	27286	1016166	41865	109797	0	0	8407	451107	0	0
2024-06-09 04:01:32			0	40710	0	0	0	26451	25050	124595	27208	1016122	41853	109799	0	0	8408	450439	0	0
2024-06-09 04:02:32			0	40678	0	0	0	26454	25040	124503	26960	1016104	41864	109800	0	0	8406	451575	0	0
2024-06-09 04:03:32			0	40678	0	0	0	26451	25050	124547	26986	1016086	41864	109799	0	0	8406	451550	0	0
2024-06-09 04:04:32			0	40668	0	0	0	26449	25040	124523	27402	1016158	41864	109798	0	0	8406	451923	0	0
2024-06-09 04:05:32			0	40662	0	0	0	26449	25040	124535	27319	1016077	41875	109798	0	0	8405	452132	0	0
2024-06-09 04:06:32			0	40677	0	0	0	26441	25050	124551	27369	1016095	41875	109795	0	0	8406	451585	0	0
2024-06-09 04:07:32			0	40667	0	0	0	26433	25050	124559	27216	1016122	41853	109792	0	0	8406	451932	0	0
2024-06-09 04:08:32			0	40663	0	0	0	26441	25040	124591	27531	1016096	41863	109795	0	0	8406	452097	0	0
2024-06-09 04:09:32			0	40676	0	0	0	26433	25040	124555	27538	1016077	41864	109792	0	0	8406	451645	0	0
2024-06-09 04:10:32			0	40660	0	0	0	26433	25020	124583	27571	1016043	41862	109792	0	0	8405	452253	0	0
2024-06-09 04:11:32			0	40641	0	0	0	26423	25040	124631	27197	1016104	41875	109788	0	0	8405	452862	0	0
2024-06-09 04:12:32			0	40645	0	0	0	26423	25030	124599	27177	1016079	41863	109788	0	0	8405	452749	0	0
2024-06-09 04:13:32			0	40661	0	0	0	26425	25030	124611	27327	1016025	41863	109789	0	0	8406	452192	0	0
2024-06-09 04:14:32			0	40647	0	0	0	26431	25020	124567	27317	1016043	41862	109791	0	0	8405	452705	0	0
2024-06-09 04:15:32			0	40655	0	0	0	26428	25040	124591	27246	1016096	41863	109790	0	0	8405	452375	0	0
2024-06-09 04:16:32			0	40620	0	0	0	26425	25020	124651	27187	1016035	41861	109789	0	0	8403	453645	0	0
2024-06-09 04:17:32			0	40643	0	0	0	26425	25020	124643	27274	1015990	41850	109789	0	0	8405	452844	0	0
2024-06-09 04:18:32			0	40641	0	0	0	26425	25020	124587	27118	1016070	41850	109789	0	0	8405	452914	0	0
2024-06-09 04:19:32			0	40627	0	0	0	26420	25020	124615	27284	1016043	41850	109787	0	0	8404	453401	0	0
2024-06-09 04:20:32			0	40643	0	0	0	26420	25020	124675	27668	1016043	41862	109787	0	0	8405	452844	0	0
2024-06-09 04:21:32			0	40625	0	0	0	26420	25010	124731	27410	1016026	41849	109787	0	0	8404	453497	0	0
2024-06-09 04:22:32			0	40613	0	0	0	26418	25020	124703	26941	1015981	41872	109786	0	0	8403	453889	0	0
2024-06-09 04:23:32			0	40626	0	0	0	26415	25010	124755	26913	1015991	41871	109785	0	0	8404	453462	0	0
2024-06-09 04:24:32			0	40618	0	0	0	26407	25000	124759	27223	1015955	41860	109782	0	0	8404	453766	0	0
2024-06-09 04:25:32			0	40609	0	0	0	26412	25010	124727	27190	1015991	41860	109784	0	0	8403	454054	0	0
2024-06-09 04:26:32			0	40630	0	0	0	26410	25000	124747	27244	1015901	41849	109783	0	0	8404	453348	0	0
2024-06-09 04:27:32			0	40622	0	0	0	26402	25000	124763	27163	1015928	41882	109780	0	0	8404	453627	0	0
2024-06-09 04:28:32			0	40596	0	0	0	26410	25010	124819	27029	1015937	41860	109783	0	0	8402	454507	0	0
2024-06-09 04:29:32			0	40607	0	0	0	26397	25010	124711	26746	1015937	41871	109778	0	0	8403	454124	0	0
2024-06-09 04:30:32			0	40600	0	0	0	26394	25000	124703	27140	1015813	41859	109777	0	0	8403	454394	0	0
2024-06-09 04:31:32			0	40617	0	0	0	26394	24990	124739	26930	1015911	41858	109777	0	0	8404	453827	0	0
2024-06-09 04:32:32			0	40593	0	0	0	26389	24990	124799	27272	1015858	41858	109775	0	0	8403	454664	0	0
2024-06-09 04:33:32			0	40583	0	0	0	26376	24990	124839	27239	1015876	41847	109770	0	0	8402	455013	0	0
2024-06-09 04:34:32			0	40585	0	0	0	26381	24980	124895	27300	1015867	41880	109772	0	0	8402	454969	0	0
2024-06-09 04:35:32			0	40573	0	0	0	26386	24990	124819	27128	1015831	41847	109774	0	0	8402	455362	0	0
2024-06-09 04:36:32			0	40590	0	0	0	26373	24980	124783	27034	1015859	41846	109769	0	0	8403	454794	0	0
2024-06-09 04:37:32			0	40582	0	0	0	26381	24980	124847	26842	1015805	41857	109772	0	0	8402	455073	0	0
2024-06-09 04:38:32			0	40574	0	0	0	26381	24980	124811	27003	1015832	41857	109772	0	0	8402	455352	0	0
2024-06-09 04:39:32			0	40577	0	0	0	26368	24980	124799	27358	1015805	41857	109767	0	0	8402	455248	0	0
2024-06-09 04:40:32			0	40557	0	0	0	26371	24970	124835	27111	1015823	41845	109768	0	0	8401	455972	0	0
2024-06-09 04:41:32			0	40567	0	0	0	26373	24960	124799	27111	1015806	41845	109769	0	0	8401	455649	0	0
2024-06-09 04:42:32			0	40557	0	0	0	26368	24970	124879	26996	1015770	41868	109767	0	0	8401	455972	0	0
2024-06-09 04:43:32			0	40556	0	0	0	26368	24970	124799	27130	1015788	41856	109767	0	0	8401	456007	0	0
2024-06-09 04:44:32			0	40559	0	0	0	26366	24960	124839	27066	1015779	41868	109766	0	0	8401	455928	0	0
2024-06-09 04:45:32			0	40573	0	0	0	26368	24970	124795	26882	1015796	41845	109767	0	0	8402	455413	0	0
2024-06-09 04:46:32			0	40565	0	0	0	26361	24960	124823	27291	1015744	41855	109764	0	0	8401	455719	0	0
2024-06-09 04:47:32			0	40537	0	0	0	26358	24970	124851	27286	1015708	41856	109763	0	0	8400	456671	0	0
2024-06-09 04:48:32			0	40547	0	0	0	26355	24960	124887	27078	1015699	41856	109762	0	0	8401	456347	0	0
2024-06-09 04:49:32			0	40541	0	0	0	26348	24960	124859	27027	1015744	41867	109759	0	0	8400	456557	0	0
2024-06-09 04:50:32			0	40553	0	0	0	26348	24950	124943	27053	1015709	41855	109759	0	0	8401	456164	0	0
2024-06-09 04:51:32			0	40542	0	0	0	26348	24960	124991	27182	1015744	41844	109759	0	0	8400	456522	0	0
2024-06-09 04:52:32			0	40548	0	0	0	26345	24950	124943	27206	1015709	41855	109758	0	0	8401	456338	0	0
2024-06-09 04:53:32			0	40533	0	0	0	26340	24960	124935	26896	1015610	41855	109756	0	0	8400	456837	0	0
2024-06-09 04:54:32			0	40515	0	0	0	26332	24950	125007	27163	1015700	41854	109753	0	0	8399	457493	0	0
2024-06-09 04:55:32			0	40519	0	0	0	26335	24950	124967	26970	1015700	41865	109754	0	0	8399	457353	0	0
2024-06-09 04:56:32			0	40528	0	0	0	26337	24940	124991	27076	1015718	41842	109755	0	0	8400	457064	0	0
2024-06-09 04:57:32			0	40511	0	0	0	26335	24930	125035	27128	1015621	41853	109754	0	0	8399	457685	0	0
2024-06-09 04:58:32			0	40503	0	0	0	26332	24940	125047	27083	1015576	41854	109753	0	0	8399	457939	0	0
2024-06-09 04:59:32			0	40488	0	0	0	26324	24940	124991	26845	1015584	41854	109750	0	0	8398	458464	0	0
2024-06-09 05:00:32			0	40503	0	0	0	26319	24930	125047	27215	1015558	41840	109748	0	0	8399	457965	0	0
2024-06-09 05:01:32			0	40518	0	0	0	26311	24920	125071	26923	1015523	41830	109745	0	0	8400	457465	0	0
2024-06-09 05:02:32			0	40499	0	0	0	26306	24920	125031	27232	1015488	41852	109743	0	0	8399	458131	0	0
2024-06-09 05:03:32			0	40496	0	0	0	26301	24920	125015	27225	1015568	41863	109741	0	0	8399	458236	0	0
2024-06-09 05:04:32			0	40500	0	0	0	26298	24920	125087	26861	1015515	41852	109740	0	0	8399	458096	0	0
2024-06-09 05:05:32			0	40514	0	0	0	26290	24910	125083	27621	1015479	41840	109737	0	0	8400	457631	0	0
2024-06-09 05:06:32			0	40488	0	0	0	26288	24900	124987	27022	1015497	41850	109736	0	0	8398	458568	0	0
2024-06-09 05:07:32			0	40502	0	0	0	26275	24890	124999	27124	1015373	41850	109731	0	0	8399	458104	0	0
2024-06-09 05:08:32			0	40510	0	0	0	26280	24890	125051	27339	1015400	41861	109733	0	0	8400	457823	0	0
2024-06-09 05:09:32			0	40489	0	0	0	26280	24890	125091	27393	1015400	41861	109733	0	0	8399	458559	0	0
2024-06-09 05:10:32			0	40486	0	0	0	26283	24900	125071	27121	1015489	41839	109734	0	0	8398	458638	0	0
2024-06-09 05:11:32			0	40482	0	0	0	26272	24890	125111	27171	1015427	41839	109730	0	0	8398	458805	0	0
2024-06-09 05:12:32			0	40474	0	0	0	26270	24900	125159	27287	1015435	41861	109729	0	0	8398	459059	0	0
2024-06-09 05:13:32			0	40495	0	0	0	26267	24880	125095	27407	1015410	41860	109728	0	0	8399	458375	0	0
2024-06-09 05:14:32			0	40452	0	0	0	26264	24880	125135	27332	1015410	41871	109727	0	0	8397	459883	0	0
2024-06-09 05:15:32			0	40485	0	0	0	26275	24890	125123	27336	1015391	41860	109731	0	0	8398	458699	0	0
2024-06-09 05:16:32			0	40444	0	0	0	26267	24890	125167	27402	1015311	41860	109728	0	0	8396	460138	0	0
2024-06-09 05:17:32			0	40442	0	0	0	26272	24870	125175	27450	1015285	41847	109730	0	0	8396	460260	0	0
2024-06-09 05:18:32			0	40455	0	0	0	26270	24870	125147	27355	1015277	41847	109729	0	0	8397	459804	0	0
2024-06-09 05:19:32			0	40441	0	0	0	26267	24870	125179	27490	1015197	41836	109728	0	0	8396	460296	0	0
2024-06-09 05:20:32			0	40434	0	0	0	26249	24860	125267	27381	1015153	41846	109721	0	0	8396	460568	0	0
2024-06-09 05:21:32			0	40436	0	0	0	26228	24850	125223	27341	1015117	41846	109713	0	0	8397	460523	0	0
2024-06-09 05:22:32			0	40440	0	0	0	26231	24850	125199	27203	1015136	41846	109714	0	0	8397	460383	0	0
2024-06-09 05:23:32			0	40426	0	0	0	26231	24840	125363	27360	1015180	41856	109714	0	0	8396	460901	0	0
2024-06-09 05:24:32			0	40438	0	0	0	26225	24840	125359	27428	1015073	41833	109712	0	0	8397	460479	0	0
2024-06-09 05:25:32			0	40448	0	0	0	26231	24840	125359	27090	1015127	41845	109714	0	0	8397	460128	0	0
2024-06-09 05:26:32			0	40434	0	0	0	26220	24840	125311	27296	1015145	41844	109710	0	0	8397	460620	0	0
2024-06-09 05:27:32			0	40414	0	0	0	26223	24830	125351	27102	1015048	41844	109711	0	0	8395	461349	0	0
2024-06-09 05:28:32			0	40437	0	0	0	26210	24820	125363	27055	1015012	41854	109706	0	0	8397	460567	0	0
2024-06-09 05:29:32			0	40412	0	0	0	26205	24820	125367	27230	1014959	41832	109704	0	0	8396	461446	0	0
2024-06-09 05:30:32			0	40421	0	0	0	26197	24820	125367	27046	1014986	41854	109701	0	0	8396	461129	0	0
2024-06-09 05:31:32			0	40417	0	0	0	26194	24810	125407	27211	1014987	41831	109700	0	0	8396	461296	0	0
2024-06-09 05:32:32			0	40427	0	0	0	26181	24810	125395	27324	1014933	41831	109695	0	0	8397	460944	0	0
2024-06-09 05:33:32			0	40428	0	0	0	26174	24810	125507	27275	1014880	41831	109692	0	0	8397	460909	0	0
2024-06-09 05:34:32			0	40408	0	0	0	26168	24800	125419	27281	1014924	41831	109690	0	0	8396	461639	0	0
2024-06-09 05:35:32			0	40409	0	0	0	26168	24780	125435	27135	1014855	41838	109690	0	0	8396	461656	0	0
2024-06-09 05:36:32			0	40403	0	0	0	26158	24790	125503	27119	1014872	41839	109686	0	0	8396	461841	0	0
2024-06-09 05:37:32			0	40445	0	0	0	26158	24790	125359	27121	1014880	41839	109686	0	0	8398	460364	0	0
2024-06-09 05:38:32			0	40415	0	0	0	26163	24780	125415	27204	1014881	41828	109688	0	0	8396	461444	0	0
2024-06-09 05:39:32			0	40437	0	0	0	26163	24790	125435	27149	1014872	41839	109688	0	0	8397	460645	0	0
2024-06-09 05:40:32			0	40423	0	0	0	26161	24790	125339	27232	1014925	41850	109687	0	0	8397	461137	0	0
2024-06-09 05:41:32			0	40414	0	0	0	26163	24790	125355	26993	1014899	41839	109688	0	0	8396	461454	0	0
2024-06-09 05:42:32			0	40436	0	0	0	26176	24790	125479	27180	1014899	41850	109693	0	0	8397	460680	0	0
2024-06-09 05:43:32			0	40429	0	0	0	26176	24780	125371	27090	1014917	41839	109693	0	0	8397	460952	0	0
2024-06-09 05:44:32			0	40418	0	0	0	26174	24790	125403	27287	1014907	41850	109692	0	0	8396	461313	0	0
2024-06-09 05:45:32			0	40421	0	0	0	26179	24790	125399	27052	1014961	41839	109694	0	0	8396	461207	0	0
2024-06-09 05:46:32			0	40422	0	0	0	26192	24790	125395	27407	1014961	41839	109699	0	0	8396	461172	0	0
2024-06-09 05:47:32			0	40435	0	0	0	26192	24790	125395	27220	1015014	41862	109699	0	0	8397	460715	0	0
2024-06-09 05:48:32			0	40418	0	0	0	26189	24800	125447	27166	1015023	41851	109698	0	0	8396	461287	0	0
2024-06-09 05:49:32			0	40444	0	0	0	26205	24810	125367	27573	1015040	41841	109704	0	0	8397	460347	0	0
2024-06-09 05:50:32			0	40419	0	0	0	26199	24800	125427	27336	1014996	41840	109702	0	0	8396	461252	0	0
2024-06-09 05:51:32			0	40431	0	0	0	26212	24810	125387	27364	1015040	41864	109707	0	0	8396	460803	0	0
2024-06-09 05:52:32			0	40423	0	0	0	26212	24810	125335	27204	1015013	41852	109707	0	0	8396	461085	0	0
2024-06-09 05:53:32			0	40449	0	0	0	26215	24810	125299	27121	1015040	41864	109708	0	0	8397	460171	0	0
2024-06-09 05:54:32			0	40471	0	0	0	26215	24800	125311	27116	1015005	41852	109708	0	0	8398	459425	0	0
2024-06-09 05:55:32			0	40451	0	0	0	26220	24810	125319	27306	1014987	41841	109710	0	0	8397	460101	0	0
2024-06-09 05:56:32			0	40462	0	0	0	26218	24820	125263	27161	1015057	41842	109709	0	0	8398	459688	0	0
2024-06-09 05:57:32			0	40472	0	0	0	26205	24820	125259	27386	1015004	41842	109704	0	0	8399	459337	0	0
2024-06-09 05:58:32			0	40481	0	0	0	26212	24810	125183	27338	1015067	41841	109707	0	0	8399	459048	0	0
2024-06-09 05:59:32			0	40487	0	0	0	26212	24810	125171	27405	1014987	41841	109707	0	0	8399	458837	0	0
2024-06-09 06:00:32			0	40507	0	0	0	26212	24810	125135	27343	1015022	41842	109707	0	0	8400	458136	0	0
2024-06-09 06:01:32			0	40502	0	0	0	26215	24810	125107	27289	1015067	41841	109708	0	0	8400	458311	0	0
2024-06-09 06:02:32			0	40495	0	0	0	26223	24810	125195	27199	1015094	41841	109711	0	0	8400	458557	0	0
2024-06-09 06:03:32			0	40502	0	0	0	26231	24820	125207	27286	1015111	41853	109714	0	0	8400	458285	0	0
2024-06-09 06:04:32			0	40505	0	0	0	26225	24820	125111	27341	1015146	41854	109712	0	0	8400	458180	0	0
2024-06-09 06:05:32			0	40513	0	0	0	26236	24820	125075	27043	1015119	41854	109716	0	0	8400	457900	0	0
2024-06-09 06:06:32			0	40519	0	0	0	26236	24830	125119	27244	1015155	41855	109716	0	0	8401	457664	0	0
2024-06-09 06:07:32			0	40495	0	0	0	26241	24830	125087	27024	1015128	41855	109718	0	0	8399	458505	0	0
2024-06-09 06:08:32			0	40516	0	0	0	26236	24830	125115	27229	1015128	41844	109716	0	0	8401	457769	0	0
2024-06-09 06:09:32			0	40518	0	0	0	26238	24830	125091	27312	1015208	41866	109717	0	0	8401	457699	0	0
2024-06-09 06:10:32			0	40533	0	0	0	26238	24830	125039	27343	1015137	41844	109717	0	0	8401	457174	0	0
2024-06-09 06:11:32			0	40535	0	0	0	26241	24830	124983	26956	1015181	41844	109718	0	0	8401	457104	0	0
2024-06-09 06:12:32			0	40543	0	0	0	26233	24840	125003	27039	1015118	41844	109715	0	0	8402	456798	0	0
2024-06-09 06:13:32			0	40577	0	0	0	26238	24830	124903	27310	1015110	41844	109717	0	0	8404	455635	0	0
2024-06-09 06:14:32			0	40588	0	0	0	26236	24840	124879	26922	1015145	41833	109716	0	0	8404	455225	0	0
2024-06-09 06:15:32			0	40604	0	0	0	26233	24840	124795	27213	1015199	41866	109715	0	0	8405	454666	0	0
2024-06-09 06:16:32			0	40623	0	0	0	26233	24840	124703	27121	1015118	41844	109715	0	0	8406	454003	0	0
2024-06-09 06:17:32			0	40656	0	0	0	26236	24840	124703	27279	1015092	41855	109716	0	0	8408	452854	0	0
2024-06-09 06:18:32			0	40691	0	0	0	26233	24830	124691	26876	1015208	41833	109715	0	0	8410	451661	0	0
2024-06-09 06:19:32			0	40721	0	0	0	26236	24840	124563	27230	1015145	41855	109716	0	0	8411	450593	0	0
2024-06-09 06:20:32			0	40750	0	0	0	26231	24830	124511	27348	1015137	41833	109714	0	0	8413	449612	0	0
2024-06-09 06:21:32			0	40762	0	0	0	26228	24830	124387	27010	1015155	41855	109713	0	0	8413	449195	0	0
2024-06-09 06:22:32			0	40773	0	0	0	26220	24830	124304	27296	1015074	41844	109710	0	0	8414	448814	0	0
2024-06-09 06:23:32			0	40792	0	0	0	26225	24820	124320	27060	1015093	41832	109712	0	0	8415	448181	0	0
2024-06-09 06:24:32			0	40851	0	0	0	26218	24830	124328	27237	1015030	41844	109709	0	0	8418	446115	0	0
2024-06-09 06:25:32			0	40847	0	0	0	26212	24830	124240	27440	1015048	41844	109707	0	0	8418	446253	0	0
2024-06-09 06:26:32			0	40909	0	0	0	26207	24820	124012	27357	1015004	41853	109705	0	0	8422	444138	0	0
2024-06-09 06:27:32			0	40900	0	0	0	26197	24820	124012	27485	1015039	41854	109701	0	0	8421	444448	0	0
2024-06-09 06:28:32			0	40924	0	0	0	26199	24820	123996	27235	1015111	41842	109702	0	0	8422	443621	0	0
2024-06-09 06:29:32			0	40924	0	0	0	26205	24820	123952	27067	1015084	41853	109704	0	0	8422	443621	0	0
2024-06-09 06:30:32			0	40953	0	0	0	26207	24810	123884	27085	1015049	41842	109705	0	0	8424	442648	0	0
2024-06-09 06:31:32			0	40973	0	0	0	26207	24810	123908	27296	1015049	41865	109705	0	0	8425	441960	0	0
2024-06-09 06:32:32			0	40962	0	0	0	26210	24820	123840	27124	1015111	41842	109706	0	0	8424	442313	0	0
2024-06-09 06:33:32			0	40951	0	0	0	26215	24820	123808	27192	1015057	41842	109708	0	0	8424	442691	0	0
2024-06-09 06:34:32			0	40986	0	0	0	26207	24810	123832	27203	1015049	41853	109705	0	0	8426	441513	0	0
2024-06-09 06:35:32			0	40990	0	0	0	26218	24820	123836	27284	1015093	41854	109709	0	0	8426	441350	0	0
2024-06-09 06:36:32			0	40993	0	0	0	26215	24820	123740	27665	1015057	41842	109708	0	0	8426	441247	0	0
2024-06-09 06:37:32			0	41007	0	0	0	26218	24820	123792	27429	1015066	41843	109709	0	0	8426	440766	0	0
2024-06-09 06:38:32			0	41007	0	0	0	26225	24830	123848	27367	1015101	41855	109712	0	0	8426	440741	0	0
2024-06-09 06:39:32			0	40986	0	0	0	26223	24820	123788	27206	1015119	41843	109711	0	0	8425	441488	0	0
2024-06-09 06:40:32			0	41006	0	0	0	26212	24820	123708	27234	1015057	41842	109707	0	0	8427	440801	0	0
2024-06-09 06:41:32			0	40989	0	0	0	26202	24820	123744	27229	1015039	41832	109703	0	0	8426	441385	0	0
2024-06-09 06:42:32			0	40990	0	0	0	26197	24810	123768	27453	1015022	41853	109701	0	0	8426	441375	0	0
2024-06-09 06:43:32			0	41003	0	0	0	26186	24810	123740	27274	1015049	41853	109697	0	0	8427	440929	0	0
2024-06-09 06:44:32			0	40976	0	0	0	26194	24800	123776	27457	1015031	41864	109700	0	0	8425	441882	0	0
2024-06-09 06:45:32			0	41000	0	0	0	26205	24810	123848	27280	1014987	41841	109704	0	0	8426	441032	0	0
2024-06-09 06:46:32			0	40984	0	0	0	26207	24810	123776	27381	1015067	41864	109705	0	0	8425	441582	0	0
2024-06-09 06:47:32			0	40983	0	0	0	26212	24820	123852	27317	1015119	41854	109707	0	0	8425	441591	0	0
2024-06-09 06:48:32			0	40984	0	0	0	26210	24820	123796	27121	1015111	41842	109706	0	0	8425	441557	0	0
2024-06-09 06:49:32			0	40971	0	0	0	26215	24820	123832	27225	1015138	41853	109708	0	0	8425	442003	0	0
2024-06-09 06:50:32			0	40995	0	0	0	26220	24830	123808	27026	1015101	41833	109710	0	0	8426	441154	0	0
2024-06-09 06:51:32			0	40985	0	0	0	26225	24820	123808	27308	1015111	41853	109712	0	0	8425	441522	0	0
2024-06-09 06:52:32			0	40954	0	0	0	26233	24820	123872	27369	1015146	41843	109715	0	0	8423	442588	0	0
2024-06-09 06:53:32			0	40977	0	0	0	26238	24830	123872	27248	1015155	41844	109717	0	0	8425	441772	0	0
2024-06-09 06:54:32			0	40953	0	0	0	26238	24820	123848	27272	1015200	41854	109717	0	0	8423	442623	0	0
2024-06-09 06:55:32			0	40957	0	0	0	26233	24830	123872	27360	1015217	41855	109715	0	0	8424	442460	0	0
2024-06-09 06:56:32			0	40956	0	0	0	26233	24840	123856	27441	1015172	41855	109715	0	0	8424	442469	0	0
2024-06-09 06:57:32			0	40943	0	0	0	26244	24830	123928	27225	1015181	41855	109719	0	0	8423	442942	0	0
2024-06-09 06:58:32			0	40942	0	0	0	26249	24840	123944	27204	1015225	41866	109721	0	0	8423	442951	0	0
2024-06-09 06:59:32			0	40955	0	0	0	26244	24840	123884	27466	1015332	41855	109719	0	0	8423	442504	0	0
2024-06-09 07:00:32			0	40938	0	0	0	26246	24850	123948	27500	1015296	41857	109720	0	0	8422	443064	0	0
2024-06-09 07:01:32			0	40947	0	0	0	26251	24850	123904	27235	1015243	41857	109722	0	0	8423	442754	0	0
2024-06-09 07:02:32			0	40930	0	0	0	26249	24840	123892	27197	1015332	41844	109721	0	0	8422	443364	0	0
2024-06-09 07:03:32			0	40934	0	0	0	26254	24850	123952	27097	1015216	41846	109723	0	0	8422	443202	0	0
2024-06-09 07:04:32			0	40919	0	0	0	26251	24860	123844	27208	1015340	41868	109722	0	0	8421	443693	0	0
2024-06-09 07:05:32			0	40917	0	0	0	26259	24860	123896	27319	1015260	41857	109725	0	0	8421	443762	0	0
2024-06-09 07:06:32			0	40915	0	0	0	26259	24850	123980	27235	1015216	41857	109725	0	0	8421	443856	0	0
2024-06-09 07:07:32			0	40914	0	0	0	26238	24850	124012	27306	1015216	41834	109717	0	0	8421	443890	0	0
2024-06-09 07:08:32			0	40898	0	0	0	26233	24850	123996	27343	1015162	41857	109715	0	0	8421	444442	0	0
2024-06-09 07:09:32			0	40901	0	0	0	26231	24840	124008	27341	1015180	41856	109714	0	0	8421	444364	0	0
2024-06-09 07:10:32			0	40883	0	0	0	26231	24840	124072	27313	1015154	41856	109714	0	0	8420	444985	0	0
2024-06-09 07:11:32			0	40886	0	0	0	26215	24840	124008	27455	1015092	41855	109708	0	0	8420	444881	0	0
2024-06-09 07:12:32			0	40871	0	0	0	26220	24840	124032	27039	1015180	41856	109710	0	0	8419	445399	0	0
2024-06-09 07:13:32			0	40864	0	0	0	26225	24840	124144	27386	1015180	41856	109712	0	0	8419	445641	0	0
2024-06-09 07:14:32			0	40873	0	0	0	26220	24840	124080	27204	1015145	41855	109710	0	0	8419	445330	0	0
2024-06-09 07:15:32			0	40872	0	0	0	26236	24850	124152	27502	1015216	41846	109716	0	0	8419	445339	0	0
2024-06-09 07:16:32			0	40844	0	0	0	26223	24830	124200	27300	1015190	41833	109711	0	0	8418	446357	0	0
2024-06-09 07:17:32			0	40866	0	0	0	26220	24840	124188	27258	1015127	41845	109710	0	0	8419	445571	0	0
2024-06-09 07:18:32			0	40842	0	0	0	26228	24830	124208	27119	1015137	41855	109713	0	0	8418	446426	0	0
2024-06-09 07:19:32			0	40846	0	0	0	26228	24840	124280	27381	1015172	41844	109713	0	0	8418	446262	0	0
2024-06-09 07:20:32			0	40857	0	0	0	26218	24840	124248	27131	1015225	41833	109709	0	0	8419	445882	0	0
2024-06-09 07:21:32			0	40861	0	0	0	26218	24830	124212	27220	1015137	41855	109709	0	0	8419	445769	0	0
2024-06-09 07:22:32			0	40856	0	0	0	26215	24830	124188	27144	1015074	41844	109708	0	0	8419	445942	0	0
2024-06-09 07:23:32			0	40851	0	0	0	26215	24820	124128	27107	1015066	41843	109708	0	0	8418	446140	0	0
2024-06-09 07:24:32			0	40850	0	0	0	26212	24820	124196	27293	1015057	41865	109707	0	0	8418	446175	0	0
2024-06-09 07:25:32			0	40875	0	0	0	26210	24830	124172	26908	1015101	41844	109706	0	0	8420	445286	0	0
2024-06-09 07:26:32			0	40881	0	0	0	26199	24830	124180	27161	1015101	41866	109702	0	0	8420	445079	0	0
2024-06-09 07:27:32			0	40887	0	0	0	26205	24820	124108	27220	1015119	41832	109704	0	0	8420	444897	0	0
2024-06-09 07:28:32			0	40889	0	0	0	26202	24810	124048	27301	1015022	41842	109703	0	0	8421	444853	0	0
2024-06-09 07:29:32			0	40920	0	0	0	26199	24820	124100	27119	1015084	41853	109702	0	0	8422	443759	0	0
2024-06-09 07:30:32			0	40934	0	0	0	26189	24820	124000	27308	1015111	41842	109698	0	0	8423	443277	0	0
2024-06-09 07:31:32			0	40961	0	0	0	26186	24810	123868	27358	1015013	41852	109697	0	0	8425	442373	0	0
2024-06-09 07:32:32			0	40959	0	0	0	26192	24810	123816	27163	1015040	41864	109699	0	0	8424	442441	0	0
2024-06-09 07:33:32			0	40998	0	0	0	26194	24810	123868	27320	1015049	41853	109700	0	0	8426	441100	0	0
2024-06-09 07:34:32			0	40987	0	0	0	26199	24820	123764	26981	1015057	41853	109702	0	0	8426	441453	0	0
2024-06-09 07:35:32			0	41039	0	0	0	26194	24820	123696	27315	1015066	41854	109700	0	0	8429	439668	0	0
2024-06-09 07:36:32			0	41047	0	0	0	26202	24810	123568	27112	1015049	41875	109703	0	0	8429	439419	0	0
2024-06-09 07:37:32			0	41079	0	0	0	26197	24820	123560	27234	1015084	41853	109701	0	0	8431	438298	0	0
2024-06-09 07:38:32			0	41078	0	0	0	26215	24810	123492	27267	1015076	41865	109708	0	0	8430	438357	0	0
2024-06-09 07:39:32			0	41092	0	0	0	26218	24820	123424	27083	1015146	41854	109709	0	0	8431	437853	0	0
2024-06-09 07:40:32			0	41107	0	0	0	26207	24820	123488	27020	1015111	41842	109705	0	0	8432	437339	0	0
2024-06-09 07:41:32			0	41117	0	0	0	26220	24810	123404	27050	1015156	41853	109710	0	0	8432	437022	0	0
2024-06-09 07:42:32			0	41123	0	0	0	26205	24820	123352	27251	1015066	41854	109704	0	0	8433	436792	0	0
2024-06-09 07:43:32			0	41127	0	0	0	26189	24820	123304	27300	1015004	41842	109698	0	0	8433	436656	0	0
2024-06-09 07:44:32			0	41170	0	0	0	26166	24810	123304	27112	1014933	41841	109689	0	0	8436	435212	0	0
2024-06-09 07:45:32			0	41167	0	0	0	26155	24790	123344	27213	1014827	41829	109685	0	0	8436	435364	0	0
2024-06-09 07:46:32			0	41204	0	0	0	26129	24770	123292	27282	1014712	41827	109675	0	0	8438	434151	0	0
2024-06-09 07:47:32			0	41209	0	0	0	26114	24750	123204	27480	1014651	41814	109669	0	0	8439	434030	0	0
2024-06-09 07:48:32			0	41207	0	0	0	26106	24750	123312	27088	1014643	41825	109666	0	0	8439	434098	0	0
2024-06-09 07:49:32			0	41225	0	0	0	26090	24750	123232	26961	1014616	41836	109660	0	0	8440	433485	0	0
2024-06-09 07:50:32			0	41197	0	0	0	26085	24730	123192	27222	1014590	41834	109658	0	0	8438	434488	0	0
2024-06-09 07:51:32			0	41192	0	0	0	26075	24720	123196	27017	1014520	41822	109654	0	0	8438	434683	0	0
2024-06-09 07:52:32			0	41209	0	0	0	26072	24720	123300	26830	1014538	41855	109653	0	0	8439	434104	0	0
2024-06-09 07:53:32			0	41179	0	0	0	26077	24700	123264	26654	1014592	41821	109655	0	0	8437	435176	0	0
2024-06-09 07:54:32			0	41158	0	0	0	26083	24710	123276	26847	1014574	41854	109657	0	0	8436	435868	0	0
2024-06-09 07:55:32			0	41165	0	0	0	26088	24700	123400	27031	1014673	41854	109659	0	0	8437	435654	0	0
2024-06-09 07:56:32			0	41142	0	0	0	26103	24720	123488	26680	1014680	41844	109665	0	0	8435	436390	0	0
2024-06-09 07:57:32			0	41119	0	0	0	26122	24740	123460	26953	1014768	41846	109672	0	0	8434	437127	0	0
2024-06-09 07:58:32			0	41092	0	0	0	26132	24740	123592	26961	1014821	41846	109676	0	0	8432	438051	0	0
2024-06-09 07:59:32			0	41063	0	0	0	26137	24750	123624	26854	1014892	41847	109678	0	0	8430	439020	0	0
2024-06-09 08:00:32			0	41067	0	0	0	26140	24750	123672	27093	1014865	41847	109679	0	0	8431	438882	0	0
2024-06-09 08:01:32			0	41067	0	0	0	26135	24760	123700	26693	1014874	41848	109677	0	0	8431	438858	0	0
2024-06-09 08:02:32			0	41037	0	0	0	26150	24760	123696	26906	1014856	41860	109683	0	0	8429	439886	0	0
2024-06-09 08:03:32			0	40996	0	0	0	26166	24760	123780	27005	1014909	41871	109689	0	0	8427	441294	0	0
2024-06-09 08:04:32			0	40966	0	0	0	26150	24770	123868	26986	1014873	41849	109683	0	0	8425	442301	0	0
2024-06-09 08:05:32			0	40949	0	0	0	26140	24770	123892	26835	1014864	41849	109679	0	0	8425	442886	0	0
2024-06-09 08:06:32			0	40928	0	0	0	26140	24760	124012	27248	1014909	41837	109679	0	0	8423	443634	0	0
2024-06-09 08:07:32			0	40887	0	0	0	26140	24760	124088	27170	1014856	41837	109679	0	0	8421	445048	0	0
2024-06-09 08:08:32			0	40854	0	0	0	26142	24760	124220	26998	1014856	41860	109680	0	0	8419	446188	0	0
2024-06-09 08:09:32			0	40822	0	0	0	26150	24770	124276	27085	1014998	41837	109683	0	0	8418	447269	0	0
2024-06-09 08:10:32			0	40804	0	0	0	26153	24770	124280	27098	1014900	41849	109684	0	0	8417	447892	0	0
2024-06-09 08:11:32			0	40776	0	0	0	26150	24770	124368	27175	1014926	41837	109683	0	0	8415	448863	0	0
2024-06-09 08:12:32			0	40747	0	0	0	26150	24770	124567	26942	1014926	41837	109683	0	0	8414	449869	0	0
2024-06-09 08:13:32			0	40712	0	0	0	26155	24770	124663	27286	1015007	41837	109685	0	0	8412	451084	0	0
2024-06-09 08:14:32			0	40688	0	0	0	26174	24780	124735	27234	1014997	41873	109692	0	0	8410	451893	0	0
2024-06-09 08:15:32			0	40657	0	0	0	26192	24800	124799	27310	1015058	41864	109699	0	0	8408	452921	0	0
2024-06-09 08:16:32			0	40617	0	0	0	26186	24790	124823	27216	1015041	41850	109697	0	0	8406	454341	0	0
2024-06-09 08:17:32			0	40592	0	0	0	26189	24790	124995	27092	1015068	41829	109698	0	0	8405	455214	0	0
2024-06-09 08:18:32			0	40555	0	0	0	26199	24800	125027	26805	1015076	41863	109702	0	0	8403	456481	0	0
2024-06-09 08:19:32			0	40561	0	0	0	26205	24810	125123	27150	1015067	41864	109704	0	0	8403	456246	0	0
2024-06-09 08:20:32			0	40523	0	0	0	26207	24810	125103	27194	1015120	41864	109705	0	0	8401	457576	0	0
2024-06-09 08:21:32			0	40482	0	0	0	26194	24810	125207	27142	1015067	41864	109700	0	0	8399	459013	0	0
2024-06-09 08:22:32			0	40486	0	0	0	26189	24810	125307	27022	1015040	41852	109698	0	0	8400	458872	0	0
2024-06-09 08:23:32			0	40453	0	0	0	26168	24800	125319	26873	1014969	41840	109690	0	0	8398	460057	0	0
2024-06-09 08:24:32			0	40439	0	0	0	26155	24790	125379	27424	1014934	41829	109685	0	0	8398	460574	0	0
2024-06-09 08:25:32			0	40415	0	0	0	26153	24790	125463	27173	1014934	41839	109684	0	0	8396	461418	0	0
2024-06-09 08:26:32			0	40405	0	0	0	26148	24790	125499	27159	1014899	41850	109682	0	0	8396	461770	0	0
2024-06-09 08:27:32			0	40389	0	0	0	26142	24780	125523	27227	1014890	41850	109680	0	0	8395	462360	0	0
2024-06-09 08:28:32			0	40370	0	0	0	26129	24770	125623	27319	1014864	41837	109675	0	0	8394	463055	0	0
2024-06-09 08:29:32			0	40393	0	0	0	26114	24770	125655	27116	1014819	41837	109669	0	0	8396	462245	0	0
2024-06-09 08:30:32			0	40356	0	0	0	26109	24750	125651	27305	1014750	41836	109667	0	0	8394	463602	0	0
2024-06-09 08:31:32			0	40341	0	0	0	26116	24760	125683	27029	1014802	41837	109670	0	0	8393	464104	0	0
2024-06-09 08:32:32			0	40350	0	0	0	26122	24760	125611	27187	1014856	41837	109672	0	0	8394	463787	0	0
2024-06-09 08:33:32			0	40331	0	0	0	26137	24770	125667	26970	1014926	41849	109678	0	0	8392	464431	0	0
2024-06-09 08:34:32			0	40326	0	0	0	26145	24760	125751	27216	1014882	41837	109681	0	0	8392	464634	0	0
2024-06-09 08:35:32			0	40322	0	0	0	26148	24770	125747	27294	1014838	41849	109682	0	0	8392	464749	0	0
2024-06-09 08:36:32			0	40327	0	0	0	26137	24770	125843	27052	1014864	41837	109678	0	0	8392	464572	0	0
2024-06-09 08:37:32			0	40324	0	0	0	26135	24760	125795	27185	1014802	41827	109677	0	0	8392	464705	0	0
2024-06-09 08:38:32			0	40326	0	0	0	26093	24750	125903	27336	1014571	41814	109661	0	0	8393	464660	0	0
2024-06-09 08:39:32			0	40317	0	0	0	26080	24720	125819	27088	1014546	41833	109656	0	0	8392	465057	0	0
2024-06-09 08:40:32			0	40325	0	0	0	26070	24720	125851	27241	1014565	41833	109652	0	0	8393	464774	0	0
2024-06-09 08:41:32			0	40306	0	0	0	26057	24700	125887	27244	1014485	41832	109647	0	0	8392	465499	0	0
2024-06-09 08:42:32			0	40331	0	0	0	26057	24700	125875	27154	1014423	41832	109647	0	0	8393	464615	0	0
2024-06-09 08:43:32			0	40300	0	0	0	26023	24690	125795	27173	1014308	41820	109634	0	0	8392	465737	0	0
2024-06-09 08:44:32			0	40315	0	0	0	25997	24670	125763	27204	1014211	41806	109624	0	0	8393	465260	0	0
2024-06-09 08:45:32			0	40335	0	0	0	25966	24650	125847	27196	1014070	41815	109612	0	0	8395	464605	0	0
2024-06-09 08:46:32			0	40338	0	0	0	25945	24620	125903	27112	1013938	41801	109604	0	0	8395	464578	0	0
2024-06-09 08:47:32			0	40343	0	0	0	25919	24600	125795	27199	1013894	41812	109594	0	0	8396	464454	0	0
2024-06-09 08:48:32			0	40332	0	0	0	25901	24590	125807	27116	1013842	41821	109587	0	0	8396	464869	0	0
2024-06-09 08:49:32			0	40330	0	0	0	25883	24580	125799	26788	1013905	41820	109580	0	0	8396	464966	0	0
2024-06-09 08:50:32			0	40346	0	0	0	25896	24570	125871	27203	1013834	41808	109585	0	0	8396	464427	0	0
2024-06-09 08:51:32			0	40355	0	0	0	25890	24560	125859	26845	1013772	41807	109583	0	0	8397	464135	0	0
2024-06-09 08:52:32			0	40348	0	0	0	25893	24550	125819	27157	1013808	41818	109584	0	0	8396	464409	0	0
2024-06-09 08:53:32			0	40321	0	0	0	25911	24560	125883	27287	1013906	41830	109591	0	0	8395	465337	0	0
2024-06-09 08:54:32			0	40328	0	0	0	25927	24560	125791	26979	1013986	41818	109597	0	0	8395	465089	0	0
2024-06-09 08:55:32			0	40308	0	0	0	25940	24570	125875	27208	1014003	41820	109602	0	0	8394	465770	0	0
2024-06-09 08:56:32			0	40334	0	0	0	25950	24580	125883	26882	1014039	41832	109606	0	0	8395	464825	0	0
2024-06-09 08:57:32			0	40317	0	0	0	25950	24570	125879	27076	1013968	41819	109606	0	0	8394	465452	0	0
2024-06-09 08:58:32			0	40302	0	0	0	25950	24570	125895	27144	1013995	41831	109606	0	0	8393	465983	0	0
2024-06-09 08:59:32			0	40272	0	0	0	25937	24570	125935	27211	1013834	41808	109601	0	0	8392	467045	0	0
2024-06-09 09:00:32			0	40290	0	0	0	25909	24560	125995	27372	1013799	41796	109590	0	0	8393	466434	0	0
2024-06-09 09:01:32			0	40292	0	0	0	25877	24550	125975	27251	1013613	41795	109578	0	0	8394	466389	0	0
2024-06-09 09:02:32			0	40248	0	0	0	25846	24520	126015	27166	1013463	41782	109566	0	0	8392	468028	0	0
2024-06-09 09:03:32			0	40248	0	0	0	25812	24510	126079	27005	1013410	41814	109553	0	0	8392	468055	0	0
2024-06-09 09:04:32			0	40241	0	0	0	25797	24490	126227	27325	1013403	41801	109547	0	0	8392	468356	0	0
2024-06-09 09:05:32			0	40224	0	0	0	25797	24480	126251	27298	1013520	41810	109547	0	0	8391	468986	0	0
2024-06-09 09:06:32			0	40208	0	0	0	25799	24470	126179	27121	1013404	41822	109548	0	0	8390	469581	0	0
2024-06-09 09:07:32			0	40189	0	0	0	25805	24480	126263	27263	1013421	41822	109550	0	0	8389	470230	0	0
2024-06-09 09:08:32			0	40179	0	0	0	25807	24480	126259	27218	1013475	41811	109551	0	0	8389	470586	0	0
2024-06-09 09:09:32			0	40165	0	0	0	25818	24480	126335	27287	1013528	41811	109555	0	0	8388	471084	0	0
2024-06-09 09:10:32			0	40147	0	0	0	25825	24480	126419	27074	1013573	41799	109558	0	0	8387	471725	0	0
2024-06-09 09:11:32			0	40119	0	0	0	25838	24480	126451	27163	1013546	41822	109563	0	0	8385	472724	0	0
2024-06-09 09:12:32			0	40113	0	0	0	25836	24480	126455	26998	1013501	41811	109562	0	0	8385	472938	0	0
2024-06-09 09:13:32			0	40085	0	0	0	25831	24480	126526	27301	1013466	41810	109560	0	0	8384	473937	0	0
2024-06-09 09:14:32			0	40076	0	0	0	25810	24470	126674	27033	1013351	41799	109552	0	0	8383	474286	0	0
2024-06-09 09:15:32			0	40043	0	0	0	25807	24460	126774	27360	1013352	41808	109551	0	0	8382	475493	0	0
2024-06-09 09:16:32			0	40023	0	0	0	25802	24450	126818	27365	1013316	41787	109549	0	0	8381	476236	0	0
2024-06-09 09:17:32			0	40018	0	0	0	25799	24450	126758	27150	1013254	41820	109548	0	0	8381	476415	0	0
2024-06-09 09:18:32			0	40007	0	0	0	25797	24440	126986	27381	1013291	41818	109547	0	0	8380	476836	0	0
2024-06-09 09:19:32			0	39964	0	0	0	25779	24440	126942	27229	1013246	41808	109540	0	0	8378	478379	0	0
2024-06-09 09:20:32			0	39965	0	0	0	25774	24430	126962	27341	1013228	41806	109538	0	0	8378	478370	0	0
2024-06-09 09:21:32			0	39963	0	0	0	25789	24440	127018	27232	1013317	41829	109544	0	0	8378	478415	0	0
2024-06-09 09:22:32			0	39943	0	0	0	25844	24450	127154	27092	1013504	41831	109565	0	0	8376	479106	0	0
2024-06-09 09:23:32			0	39941	0	0	0	25909	24470	127102	27034	1013743	41843	109590	0	0	8375	479124	0	0
2024-06-09 09:24:32			0	39917	0	0	0	25958	24480	127170	27154	1013849	41833	109609	0	0	8373	479960	0	0
2024-06-09 09:25:32			0	39911	0	0	0	25992	24510	127182	27145	1013900	41836	109622	0	0	8372	480094	0	0
2024-06-09 09:26:32			0	39884	0	0	0	26018	24530	127126	27192	1014060	41827	109632	0	0	8370	481012	0	0
2024-06-09 09:27:32			0	39863	0	0	0	26041	24550	127210	27272	1014067	41817	109641	0	0	8369	481714	0	0
2024-06-09 09:28:32			0	39877	0	0	0	26051	24550	127274	26961	1014156	41851	109645	0	0	8369	481210	0	0
2024-06-09 09:29:32			0	39861	0	0	0	26051	24570	127214	27421	1014182	41841	109645	0	0	8369	481732	0	0
2024-06-09 09:30:32			0	39847	0	0	0	26070	24580	127250	27012	1014315	41843	109652	0	0	8368	482209	0	0
2024-06-09 09:31:32			0	39858	0	0	0	26106	24620	127298	27017	1014527	41857	109666	0	0	8368	481703	0	0
2024-06-09 09:32:32			0	39796	0	0	0	26135	24640	127290	26831	1014588	41870	109677	0	0	8364	483886	0	0
2024-06-09 09:33:32			0	39820	0	0	0	26171	24650	127318	27130	1014640	41849	109691	0	0	8365	482992	0	0
2024-06-09 09:34:32			0	39813	0	0	0	26184	24670	127354	27308	1014701	41862	109696	0	0	8364	483190	0	0
2024-06-09 09:35:32			0	39783	0	0	0	26186	24670	127322	27447	1014701	41851	109697	0	0	8363	484273	0	0
2024-06-09 09:36:32			0	39801	0	0	0	26184	24700	127438	27426	1014744	41865	109696	0	0	8364	483541	0	0
2024-06-09 09:37:32			0	39784	0	0	0	26197	24710	127362	27334	1014815	41865	109701	0	0	8363	484127	0	0
2024-06-09 09:38:32			0	39780	0	0	0	26205	24710	127402	27402	1014877	41866	109704	0	0	8362	484272	0	0
2024-06-09 09:39:32			0	39764	0	0	0	26212	24730	127494	27481	1014903	41845	109707	0	0	8361	484795	0	0
2024-06-09 09:40:32			0	39749	0	0	0	26220	24750	127554	27355	1014964	41847	109710	0	0	8361	485283	0	0
2024-06-09 09:41:32			0	39740	0	0	0	26223	24760	127486	27209	1015016	41860	109711	0	0	8360	485581	0	0
2024-06-09 09:42:32			0	39750	0	0	0	26233	24760	127594	27301	1015070	41882	109715	0	0	8361	485219	0	0
2024-06-09 09:43:32			0	39750	0	0	0	26238	24770	127574	27400	1015060	41860	109717	0	0	8360	485192	0	0
2024-06-09 09:44:32			0	39743	0	0	0	26236	24770	127574	27324	1015025	41849	109716	0	0	8360	485445	0	0
2024-06-09 09:45:32			0	39735	0	0	0	26223	24780	127610	27289	1015015	41850	109711	0	0	8360	485707	0	0
2024-06-09 09:46:32			0	39732	0	0	0	26223	24780	127674	27280	1015051	41850	109711	0	0	8360	485816	0	0
2024-06-09 09:47:32			0	39707	0	0	0	26233	24790	127570	27336	1015121	41873	109715	0	0	8358	486693	0	0
2024-06-09 09:48:32			0	39704	0	0	0	26233	24790	127634	27301	1015121	41850	109715	0	0	8358	486802	0	0
2024-06-09 09:49:32			0	39674	0	0	0	26238	24800	127634	27239	1015138	41852	109717	0	0	8357	487862	0	0
2024-06-09 09:50:32			0	39680	0	0	0	26236	24790	127602	27448	1015148	41839	109716	0	0	8357	487672	0	0
2024-06-09 09:51:32			0	39686	0	0	0	26241	24810	127602	27587	1015209	41853	109718	0	0	8357	487399	0	0
2024-06-09 09:52:32			0	39698	0	0	0	26241	24810	127694	27248	1015263	41853	109718	0	0	8358	486964	0	0
2024-06-09 09:53:32			0	39683	0	0	0	26244	24820	127690	27296	1015253	41876	109719	0	0	8357	487480	0	0
2024-06-09 09:54:32			0	39680	0	0	0	26244	24830	127702	27272	1015217	41866	109719	0	0	8357	487562	0	0
2024-06-09 09:55:32			0	39691	0	0	0	26241	24830	127686	27327	1015208	41866	109718	0	0	8358	487163	0	0
2024-06-09 09:56:32			0	39692	0	0	0	26238	24830	127682	27287	1015289	41855	109717	0	0	8358	487126	0	0
2024-06-09 09:57:32			0	39691	0	0	0	26238	24830	127602	27121	1015289	41866	109717	0	0	8358	487163	0	0
2024-06-09 09:58:32			0	39681	0	0	0	26254	24830	127658	27355	1015315	41855	109723	0	0	8357	487525	0	0
2024-06-09 09:59:32			0	39692	0	0	0	26254	24840	127630	27310	1015288	41878	109723	0	0	8357	487099	0	0
2024-06-09 10:00:32			0	39711	0	0	0	26249	24840	127566	27481	1015207	41856	109721	0	0	8359	486411	0	0
2024-06-09 10:01:32			0	39700	0	0	0	26244	24840	127598	27355	1015306	41844	109719	0	0	8358	486809	0	0
2024-06-09 10:02:32			0	39714	0	0	0	26233	24840	127622	27319	1015100	41867	109715	0	0	8359	486302	0	0
2024-06-09 10:03:32			0	39710	0	0	0	26223	24840	127534	27171	1015172	41844	109711	0	0	8359	486447	0	0
2024-06-09 10:04:32			0	39729	0	0	0	26212	24830	127534	27178	1015163	41866	109707	0	0	8360	485787	0	0
2024-06-09 10:05:32			0	39736	0	0	0	26218	24830	127558	27189	1015190	41855	109709	0	0	8360	485533	0	0
2024-06-09 10:06:32			0	39757	0	0	0	26205	24820	127398	27377	1015200	41854	109704	0	0	8362	484801	0	0
2024-06-09 10:07:32			0	39744	0	0	0	26218	24830	127430	27531	1015208	41866	109709	0	0	8361	485244	0	0
2024-06-09 10:08:32			0	39783	0	0	0	26220	24830	127346	27213	1015270	41866	109710	0	0	8363	483835	0	0
2024-06-09 10:09:32			0	39776	0	0	0	26228	24840	127394	27067	1015306	41855	109713	0	0	8362	484060	0	0
2024-06-09 10:10:32			0	39766	0	0	0	26233	24840	127390	27211	1015314	41856	109715	0	0	8362	484421	0	0
2024-06-09 10:11:32			0	39782	0	0	0	26233	24830	127338	27182	1015190	41866	109715	0	0	8362	483871	0	0
2024-06-09 10:12:32			0	39800	0	0	0	26238	24830	127294	27287	1015244	41855	109717	0	0	8363	483221	0	0
2024-06-09 10:13:32			0	39802	0	0	0	26233	24830	127282	27371	1015270	41877	109715	0	0	8363	483149	0	0
2024-06-09 10:14:32			0	39806	0	0	0	26233	24840	127170	27327	1015207	41856	109715	0	0	8364	482977	0	0
2024-06-09 10:15:32			0	39808	0	0	0	26233	24840	127234	27173	1015199	41855	109715	0	0	8364	482905	0	0
2024-06-09 10:16:32			0	39828	0	0	0	26228	24830	127146	27102	1015190	41855	109713	0	0	8365	482212	0	0
2024-06-09 10:17:32			0	39829	0	0	0	26223	24840	127142	27152	1015288	41856	109711	0	0	8365	482148	0	0
2024-06-09 10:18:32			0	39861	0	0	0	26236	24840	127118	27003	1015288	41867	109716	0	0	8367	480996	0	0
2024-06-09 10:19:32			0	39841	0	0	0	26244	24830	127010	27301	1015351	41877	109719	0	0	8365	481743	0	0
2024-06-09 10:20:32			0	39870	0	0	0	26246	24840	127078	26864	1015368	41867	109720	0	0	8367	480672	0	0
2024-06-09 10:21:32			0	39870	0	0	0	26251	24840	127030	27504	1015368	41878	109722	0	0	8367	480672	0	0
2024-06-09 10:22:32			0	39871	0	0	0	26244	24850	126982	27265	1015323	41857	109719	0	0	8367	480609	0	0
2024-06-09 10:23:32			0	39875	0	0	0	26238	24850	126974	27059	1015243	41878	109717	0	0	8367	480465	0	0
2024-06-09 10:24:32			0	39882	0	0	0	26228	24840	126898	27256	1015306	41844	109713	0	0	8368	480241	0	0
2024-06-09 10:25:32			0	39885	0	0	0	26212	24840	127006	27185	1015207	41867	109707	0	0	8368	480133	0	0
2024-06-09 10:26:32			0	39905	0	0	0	26212	24840	126954	27320	1015252	41855	109707	0	0	8369	479414	0	0
2024-06-09 10:27:32			0	39914	0	0	0	26225	24830	127022	27194	1015217	41866	109712	0	0	8369	479118	0	0
2024-06-09 10:28:32			0	39905	0	0	0	26223	24840	126906	27079	1015225	41877	109711	0	0	8369	479414	0	0
2024-06-09 10:29:32			0	39919	0	0	0	26228	24840	126922	26996	1015199	41866	109713	0	0	8370	478911	0	0
2024-06-09 10:30:32			0	39918	0	0	0	26238	24840	126886	27348	1015332	41866	109717	0	0	8369	478947	0	0
2024-06-09 10:31:32			0	39929	0	0	0	26233	24840	126830	27384	1015234	41856	109715	0	0	8370	478552	0	0
2024-06-09 10:32:32			0	39925	0	0	0	26228	24830	126850	27485	1015137	41855	109713	0	0	8370	478723	0	0
2024-06-09 10:33:32			0	39937	0	0	0	26202	24830	126858	27078	1015128	41855	109703	0	0	8371	478292	0	0
2024-06-09 10:34:32			0	39935	0	0	0	26197	24810	126822	27568	1015076	41853	109701	0	0	8371	478418	0	0
2024-06-09 10:35:32			0	39940	0	0	0	26184	24810	126746	27464	1015102	41842	109696	0	0	8371	478239	0	0
2024-06-09 10:36:32			0	39946	0	0	0	26184	24810	126742	27215	1015013	41852	109696	0	0	8372	478024	0	0
2024-06-09 10:37:32			0	39940	0	0	0	26179	24810	126786	27538	1014960	41852	109694	0	0	8371	478239	0	0
2024-06-09 10:38:32			0	39965	0	0	0	26179	24810	126762	27222	1014960	41852	109694	0	0	8373	477343	0	0
2024-06-09 10:39:32			0	39960	0	0	0	26174	24800	126734	27135	1015049	41863	109692	0	0	8373	477549	0	0
2024-06-09 10:40:32			0	39964	0	0	0	26192	24800	126826	26974	1015058	41875	109699	0	0	8372	477405	0	0
2024-06-09 10:41:32			0	39974	0	0	0	26181	24800	126718	27351	1015049	41863	109695	0	0	8373	477047	0	0
2024-06-09 10:42:32			0	39962	0	0	0	26189	24810	126794	27038	1015120	41864	109698	0	0	8372	477450	0	0
2024-06-09 10:43:32			0	39960	0	0	0	26212	24810	126758	27332	1015174	41852	109707	0	0	8372	477522	0	0
2024-06-09 10:44:32			0	39946	0	0	0	26218	24820	126774	27109	1015271	41875	109709	0	0	8371	477997	0	0
2024-06-09 10:45:32			0	39961	0	0	0	26225	24820	126774	26887	1015307	41876	109712	0	0	8372	477459	0	0
2024-06-09 10:46:32			0	39972	0	0	0	26233	24820	126786	27159	1015333	41865	109715	0	0	8372	477065	0	0
2024-06-09 10:47:32			0	39974	0	0	0	26246	24830	126762	27170	1015262	41877	109720	0	0	8372	476966	0	0
2024-06-09 10:48:32			0	39989	0	0	0	26251	24820	126722	27121	1015333	41865	109722	0	0	8373	476456	0	0
2024-06-09 10:49:32			0	39977	0	0	0	26251	24840	126758	27086	1015341	41856	109722	0	0	8372	476832	0	0
2024-06-09 10:50:32			0	39981	0	0	0	26272	24840	126742	27182	1015386	41866	109730	0	0	8372	476688	0	0
2024-06-09 10:51:32			0	39995	0	0	0	26272	24840	126674	27209	1015448	41867	109730	0	0	8373	476187	0	0
2024-06-09 10:52:32			0	39986	0	0	0	26283	24860	126666	27237	1015509	41879	109734	0	0	8372	476455	0	0
2024-06-09 10:53:32			0	39997	0	0	0	26301	24860	126658	27469	1015509	41879	109741	0	0	8373	476062	0	0
2024-06-09 10:54:32			0	39990	0	0	0	26316	24870	126678	27229	1015518	41870	109747	0	0	8372	476285	0	0
2024-06-09 10:55:32			0	39994	0	0	0	26324	24880	126706	27244	1015624	41881	109750	0	0	8372	476115	0	0
2024-06-09 10:56:32			0	39975	0	0	0	26350	24890	126626	27265	1015721	41883	109760	0	0	8371	476768	0	0
2024-06-09 10:57:32			0	39999	0	0	0	26355	24910	126690	27020	1015774	41895	109762	0	0	8372	475855	0	0
2024-06-09 10:58:32			0	40020	0	0	0	26381	24920	126550	27010	1015782	41896	109772	0	0	8373	475078	0	0
2024-06-09 10:59:32			0	39990	0	0	0	26397	24930	126630	27046	1015853	41896	109778	0	0	8371	476123	0	0
2024-06-09 11:00:32			0	40002	0	0	0	26415	24940	126674	27005	1015932	41887	109785	0	0	8371	475667	0	0
2024-06-09 11:01:32			0	39985	0	0	0	26428	24950	126566	27031	1015976	41876	109790	0	0	8370	476248	0	0
2024-06-09 11:02:32			0	40008	0	0	0	26428	24960	126610	27126	1016038	41900	109790	0	0	8371	475399	0	0
2024-06-09 11:03:32			0	39998	0	0	0	26428	24980	126598	27145	1016073	41879	109790	0	0	8371	475702	0	0
2024-06-09 11:04:32			0	39998	0	0	0	26441	24980	126562	26911	1016108	41902	109795	0	0	8371	475702	0	0
2024-06-09 11:05:32			0	40026	0	0	0	26451	24990	126526	27010	1016117	41891	109799	0	0	8372	474675	0	0
2024-06-09 11:06:32			0	39988	0	0	0	26451	24990	126506	26977	1016152	41902	109799	0	0	8370	476033	0	0
2024-06-09 11:07:32			0	40025	0	0	0	26462	24990	126490	27131	1016179	41902	109803	0	0	8372	474711	0	0
2024-06-09 11:08:32			0	40001	0	0	0	26454	25010	126502	26972	1016187	41882	109800	0	0	8371	475514	0	0
2024-06-09 11:09:32			0	40024	0	0	0	26444	25010	126498	27001	1016187	41904	109796	0	0	8372	474693	0	0
2024-06-09 11:10:32			0	40051	0	0	0	26446	25000	126466	27088	1016196	41904	109797	0	0	8373	473756	0	0
2024-06-09 11:11:32			0	40039	0	0	0	26436	25010	126386	27092	1016187	41904	109793	0	0	8373	474157	0	0
2024-06-09 11:12:32			0	40049	0	0	0	26438	25020	126410	26852	1016204	41873	109794	0	0	8374	473774	0	0
2024-06-09 11:13:32			0	40079	0	0	0	26415	25010	126358	27072	1015999	41893	109785	0	0	8375	472731	0	0
2024-06-09 11:14:32			0	40099	0	0	0	26379	25000	126291	27145	1015821	41871	109771	0	0	8377	472046	0	0
2024-06-09 11:15:32			0	40093	0	0	0	26348	24980	126278	27215	1015698	41879	109759	0	0	8377	472313	0	0
2024-06-09 11:16:32			0	40118	0	0	0	26309	24960	126179	27327	1015565	41856	109744	0	0	8379	471476	0	0
2024-06-09 11:17:32			0	40136	0	0	0	26272	24940	126175	27034	1015415	41865	109730	0	0	8381	470889	0	0
2024-06-09 11:18:32			0	40153	0	0	0	26251	24910	126167	27213	1015426	41862	109722	0	0	8382	470365	0	0
2024-06-09 11:19:32			0	40168	0	0	0	26231	24890	126079	27277	1015293	41850	109714	0	0	8383	469886	0	0
2024-06-09 11:20:32			0	40149	0	0	0	26218	24880	126067	27331	1015214	41859	109709	0	0	8382	470588	0	0
2024-06-09 11:21:32			0	40161	0	0	0	26199	24870	126015	27135	1015197	41859	109702	0	0	8383	470188	0	0
2024-06-09 11:22:32			0	40200	0	0	0	26186	24860	125975	27199	1015179	41868	109697	0	0	8385	468829	0	0
2024-06-09 11:23:32			0	40207	0	0	0	26184	24840	125915	27156	1015154	41867	109696	0	0	8385	468634	0	0
2024-06-09 11:24:32			0	40211	0	0	0	26168	24830	125935	27235	1015110	41866	109690	0	0	8386	468519	0	0
2024-06-09 11:25:32			0	40205	0	0	0	26153	24820	125931	27119	1015012	41865	109684	0	0	8386	468758	0	0
2024-06-09 11:26:32			0	40224	0	0	0	26132	24810	126003	27348	1014888	41832	109676	0	0	8387	468111	0	0
2024-06-09 11:27:32			0	40234	0	0	0	26093	24800	125975	27291	1014782	41840	109661	0	0	8388	467783	0	0
2024-06-09 11:28:32			0	40250	0	0	0	26051	24780	126011	27301	1014748	41838	109645	0	0	8390	467269	0	0
2024-06-09 11:29:32			0	40238	0	0	0	26033	24760	126043	27516	1014687	41826	109638	0	0	8389	467747	0	0
2024-06-09 11:30:32			0	40217	0	0	0	26015	24750	125919	27445	1014732	41847	109631	0	0	8388	468518	0	0
2024-06-09 11:31:32			0	40234	0	0	0	26010	24750	125943	27471	1014670	41847	109629	0	0	8389	467915	0	0
2024-06-09 11:32:32			0	40208	0	0	0	26012	24740	125883	27357	1014688	41846	109630	0	0	8388	468864	0	0
2024-06-09 11:33:32			0	40208	0	0	0	26028	24740	125979	27467	1014733	41824	109636	0	0	8388	468864	0	0
2024-06-09 11:34:32			0	40215	0	0	0	26049	24740	126007	27601	1014741	41857	109644	0	0	8388	468616	0	0
2024-06-09 11:35:32			0	40215	0	0	0	26044	24740	125995	27367	1014786	41857	109642	0	0	8388	468616	0	0
2024-06-09 11:36:32			0	40205	0	0	0	26059	24740	125927	27201	1014795	41846	109648	0	0	8387	468971	0	0
2024-06-09 11:37:32			0	40215	0	0	0	26083	24750	125975	27431	1014892	41858	109657	0	0	8387	468589	0	0
2024-06-09 11:38:32			0	40215	0	0	0	26090	24740	126043	27308	1014848	41857	109660	0	0	8387	468616	0	0
2024-06-09 11:39:32			0	40208	0	0	0	26103	24740	125963	27296	1014875	41857	109665	0	0	8386	468864	0	0
2024-06-09 11:40:32			0	40200	0	0	0	26119	24750	125999	27441	1014884	41847	109671	0	0	8386	469122	0	0
2024-06-09 11:41:32			0	40201	0	0	0	25898	24750	126019	27313	1014643	41836	109586	0	0	8390	469086	0	0
2024-06-09 11:42:32			0	40200	0	0	0	25620	24690	125911	27197	1013737	41775	109479	0	0	8394	469281	0	0
2024-06-09 11:43:32			0	40227	0	0	0	25592	24620	125795	27253	1013564	41757	109468	0	0	8396	468508	0	0
2024-06-09 11:44:32			0	40228	0	0	0	25628	24570	125863	27633	1013629	41809	109482	0	0	8395	468605	0	0
2024-06-09 11:45:32			0	40203	0	0	0	25667	24560	125931	27234	1013639	41830	109497	0	0	8393	469520	0	0
2024-06-09 11:46:32			0	40187	0	0	0	25737	24550	126147	27303	1013746	41806	109524	0	0	8391	470115	0	0
2024-06-09 11:47:32			0	40147	0	0	0	25857	24550	126247	27253	1013800	41817	109570	0	0	8387	471539	0	0
2024-06-09 11:48:32			0	40156	0	0	0	25914	24560	126275	27142	1014040	41840	109592	0	0	8386	471191	0	0
2024-06-09 11:49:32			0	40127	0	0	0	26002	24580	126339	27015	1014253	41853	109626	0	0	8383	472171	0	0
2024-06-09 11:50:32			0	40131	0	0	0	26093	24590	126435	27334	1014412	41855	109661	0	0	8382	472002	0	0
2024-06-09 11:51:32			0	40119	0	0	0	26171	24620	126403	27303	1014589	41869	109691	0	0	8380	472349	0	0
2024-06-09 11:52:32			0	40089	0	0	0	26184	24660	126470	27428	1014729	41849	109696	0	0	8379	473312	0	0
2024-06-09 11:53:32			0	40066	0	0	0	26212	24680	126534	27164	1014772	41863	109707	0	0	8377	474080	0	0
2024-06-09 11:54:32			0	40097	0	0	0	26085	24670	126554	27348	1014291	41806	109658	0	0	8381	473000	0	0
2024-06-09 11:55:32			0	40071	0	0	0	26018	24640	126458	27183	1014302	41827	109632	0	0	8380	474008	0	0
2024-06-09 11:56:32			0	40061	0	0	0	26036	24640	126562	27372	1014427	41847	109639	0	0	8379	474366	0	0
2024-06-09 11:57:32			0	40039	0	0	0	26106	24660	126682	27483	1014649	41860	109666	0	0	8377	475098	0	0
2024-06-09 11:58:32			0	40011	0	0	0	26192	24690	126706	27069	1014977	41875	109699	0	0	8374	476019	0	0
2024-06-09 11:59:32			0	39996	0	0	0	26285	24730	126682	27454	1015206	41878	109735	0	0	8372	476448	0	0
2024-06-09 12:00:32			0	39972	0	0	0	26332	24760	126866	27076	1015382	41881	109753	0	0	8370	477227	0	0
2024-06-09 12:01:32			0	39957	0	0	0	26376	24790	126942	27003	1015568	41895	109770	0	0	8369	477683	0	0
2024-06-09 12:02:32			0	39949	0	0	0	26410	24830	126842	27562	1015690	41888	109783	0	0	8368	477862	0	0
2024-06-09 12:03:32			0	39958	0	0	0	26438	24850	126974	27187	1015760	41890	109794	0	0	8368	477485	0	0
2024-06-09 12:04:32			0	39943	0	0	0	26462	24880	126886	27407	1015883	41892	109803	0	0	8367	477942	0	0
2024-06-09 12:05:32			0	39925	0	0	0	26472	24890	126954	26902	1015962	41894	109807	0	0	8366	478560	0	0
2024-06-09 12:06:32			0	39938	0	0	0	26485	24920	126910	27218	1016032	41885	109812	0	0	8367	478013	0	0
2024-06-09 12:07:32			0	39919	0	0	0	26480	24940	126794	27310	1016093	41887	109810	0	0	8366	478640	0	0
2024-06-09 12:08:32			0	39913	0	0	0	26490	24960	126782	27381	1016234	41889	109814	0	0	8365	478801	0	0
2024-06-09 12:09:32			0	39933	0	0	0	26503	24980	126754	27443	1016153	41902	109819	0	0	8366	478029	0	0
2024-06-09 12:10:32			0	39941	0	0	0	26506	24980	126822	27327	1016242	41902	109820	0	0	8367	477743	0	0
2024-06-09 12:11:32			0	39942	0	0	0	26503	25000	126802	27324	1016303	41893	109819	0	0	8367	477653	0	0
2024-06-09 12:12:32			0	39972	0	0	0	26511	25000	126770	27126	1016330	41904	109822	0	0	8368	476578	0	0
2024-06-09 12:13:32			0	39954	0	0	0	26506	25010	126682	27317	1016320	41904	109820	0	0	8367	477196	0	0
2024-06-09 12:14:32			0	39936	0	0	0	26524	25020	126746	27326	1016364	41895	109827	0	0	8366	477814	0	0
2024-06-09 12:15:32			0	39942	0	0	0	26516	25040	126690	27651	1016470	41884	109824	0	0	8367	477544	0	0
2024-06-09 12:16:32			0	39958	0	0	0	26524	25050	126698	27293	1016407	41898	109827	0	0	8368	476944	0	0
2024-06-09 12:17:32			0	39958	0	0	0	26514	25050	126630	27279	1016470	41909	109823	0	0	8368	476944	0	0
2024-06-09 12:18:32			0	39980	0	0	0	26524	25070	126638	26972	1016549	41899	109827	0	0	8369	476103	0	0
2024-06-09 12:19:32			0	39978	0	0	0	26545	25070	126662	27196	1016584	41911	109835	0	0	8368	476175	0	0
2024-06-09 12:20:32			0	39961	0	0	0	26555	25080	126526	27183	1016628	41912	109839	0	0	8367	476756	0	0
2024-06-09 12:21:32			0	40001	0	0	0	26566	25090	126562	27057	1016664	41913	109843	0	0	8369	475299	0	0
2024-06-09 12:22:32			0	40000	0	0	0	26563	25100	126646	27105	1016681	41902	109842	0	0	8369	475307	0	0
2024-06-09 12:23:32			0	40002	0	0	0	26550	25100	126518	27168	1016600	41902	109837	0	0	8370	475236	0	0
2024-06-09 12:24:32			0	39999	0	0	0	26509	25090	126478	27189	1016324	41879	109821	0	0	8370	475370	0	0
2024-06-09 12:25:32			0	40007	0	0	0	26451	25070	126534	27145	1016281	41866	109799	0	0	8371	475138	0	0
2024-06-09 12:26:32			0	40015	0	0	0	26415	25050	126402	27121	1016122	41886	109785	0	0	8372	474906	0	0
2024-06-09 12:27:32			0	40026	0	0	0	26392	25040	126406	27282	1016149	41874	109776	0	0	8373	474540	0	0
2024-06-09 12:28:32			0	40044	0	0	0	26371	25020	126402	27594	1016016	41873	109768	0	0	8374	473952	0	0
2024-06-09 12:29:32			0	40057	0	0	0	26342	25010	126426	27031	1015937	41871	109757	0	0	8376	473515	0	0
2024-06-09 12:30:32			0	40046	0	0	0	26303	24990	126354	26960	1015777	41858	109742	0	0	8376	473961	0	0
2024-06-09 12:31:32			0	40051	0	0	0	26264	24960	126438	27168	1015592	41856	109727	0	0	8376	473863	0	0
2024-06-09 12:32:32			0	40075	0	0	0	26215	24940	126346	27246	1015281	41842	109708	0	0	8378	473061	0	0
2024-06-09 12:33:32			0	40074	0	0	0	26153	24900	126366	27090	1015114	41839	109684	0	0	8379	473204	0	0
2024-06-09 12:34:32			0	40064	0	0	0	26129	24860	126350	27438	1015108	41846	109675	0	0	8379	473668	0	0
2024-06-09 12:35:32			0	40063	0	0	0	26135	24850	126386	27495	1015224	41846	109677	0	0	8379	473731	0	0
2024-06-09 12:36:32			0	40068	0	0	0	26171	24840	126446	27377	1015341	41878	109691	0	0	8378	473579	0	0
2024-06-09 12:37:32			0	40084	0	0	0	26215	24860	126426	27159	1015393	41878	109708	0	0	8379	472955	0	0
2024-06-09 12:38:32			0	40069	0	0	0	26272	24880	126426	27008	1015562	41892	109730	0	0	8377	473436	0	0
2024-06-09 12:39:32			0	40032	0	0	0	26329	24890	126514	27232	1015775	41906	109752	0	0	8374	474730	0	0
2024-06-09 12:40:32			0	40071	0	0	0	26381	24920	126466	27334	1015943	41908	109772	0	0	8375	473257	0	0
2024-06-09 12:41:32			0	40052	0	0	0	26405	24930	126374	27220	1015915	41886	109781	0	0	8374	473908	0	0
2024-06-09 12:42:32			0	40042	0	0	0	26392	24940	126426	27176	1015799	41887	109776	0	0	8374	474238	0	0
2024-06-09 12:43:32			0	40048	0	0	0	26368	24940	126514	27409	1015790	41865	109767	0	0	8374	474024	0	0
2024-06-09 12:44:32			0	40043	0	0	0	26337	24920	126534	26970	1015657	41852	109755	0	0	8375	474256	0	0
2024-06-09 12:45:32			0	40046	0	0	0	26301	24920	126506	27509	1015541	41852	109741	0	0	8375	474149	0	0
2024-06-09 12:46:32			0	40050	0	0	0	26275	24900	126450	27353	1015462	41861	109731	0	0	8376	474060	0	0
2024-06-09 12:47:32			0	40044	0	0	0	26251	24890	126466	27204	1015391	41882	109722	0	0	8376	474301	0	0
2024-06-09 12:48:32			0	40042	0	0	0	26233	24880	126514	27086	1015374	41859	109715	0	0	8376	474400	0	0
2024-06-09 12:49:32			0	40043	0	0	0	26241	24870	126446	27308	1015437	41859	109718	0	0	8376	474391	0	0
2024-06-09 12:50:32			0	40035	0	0	0	26236	24870	126574	27027	1015384	41870	109716	0	0	8376	474676	0	0
2024-06-09 12:51:32			0	40038	0	0	0	26236	24860	126530	27414	1015402	41869	109716	0	0	8376	474596	0	0
2024-06-09 12:52:32			0	40053	0	0	0	26231	24870	126482	27412	1015411	41880	109714	0	0	8377	474034	0	0
2024-06-09 12:53:32			0	40035	0	0	0	26246	24870	126570	27267	1015491	41880	109720	0	0	8376	474676	0	0
2024-06-09 12:54:32			0	40038	0	0	0	26233	24860	126538	27282	1015393	41857	109715	0	0	8376	474596	0	0
2024-06-09 12:55:32			0	40038	0	0	0	26246	24860	126598	27326	1015482	41879	109720	0	0	8376	474596	0	0
2024-06-09 12:56:32			0	40035	0	0	0	26249	24870	126586	27327	1015419	41859	109721	0	0	8375	474676	0	0
2024-06-09 12:57:32			0	40020	0	0	0	26251	24860	126598	27433	1015482	41879	109722	0	0	8375	475239	0	0
2024-06-09 12:58:32			0	40029	0	0	0	26262	24860	126650	27059	1015482	41869	109726	0	0	8375	474918	0	0
2024-06-09 12:59:32			0	40018	0	0	0	26277	24870	126646	27253	1015518	41892	109732	0	0	8374	475284	0	0
2024-06-09 13:00:32			0	40035	0	0	0	26309	24880	126638	27088	1015642	41892	109744	0	0	8374	474650	0	0
2024-06-09 13:01:32			0	40018	0	0	0	26316	24880	126614	27263	1015588	41870	109747	0	0	8373	475257	0	0
2024-06-09 13:02:32			0	39989	0	0	0	26324	24890	126722	27332	1015632	41882	109750	0	0	8372	476267	0	0
2024-06-09 13:03:32			0	40004	0	0	0	26322	24900	126682	27386	1015676	41894	109749	0	0	8373	475703	0	0
2024-06-09 13:04:32			0	40022	0	0	0	26303	24890	126650	27107	1015552	41882	109742	0	0	8374	475087	0	0
2024-06-09 13:05:32			0	40008	0	0	0	26283	24880	126710	27362	1015463	41860	109734	0	0	8374	475614	0	0
2024-06-09 13:06:32			0	39992	0	0	0	26262	24870	126638	27059	1015366	41859	109726	0	0	8373	476214	0	0
2024-06-09 13:07:32			0	40000	0	0	0	26231	24860	126726	27223	1015241	41858	109714	0	0	8374	475954	0	0
2024-06-09 13:08:32			0	40001	0	0	0	26202	24830	126670	27300	1015137	41855	109703	0	0	8374	476000	0	0
2024-06-09 13:09:32			0	40017	0	0	0	26189	24830	126726	27237	1015128	41855	109698	0	0	8375	475427	0	0
2024-06-09 13:10:32			0	40006	0	0	0	26174	24820	126698	27301	1015084	41853	109692	0	0	8375	475848	0	0
2024-06-09 13:11:32			0	40018	0	0	0	26171	24810	126706	27241	1015102	41865	109691	0	0	8376	475445	0	0
2024-06-09 13:12:32			0	40012	0	0	0	26171	24800	126738	27352	1015023	41874	109691	0	0	8375	475687	0	0
2024-06-09 13:13:32			0	39983	0	0	0	26163	24810	126706	27010	1015120	41852	109688	0	0	8374	476698	0	0
2024-06-09 13:14:32			0	39992	0	0	0	26171	24800	126678	27440	1015165	41864	109691	0	0	8374	476403	0	0
2024-06-09 13:15:32			0	40007	0	0	0	26171	24800	126750	27234	1015138	41864	109691	0	0	8375	475866	0	0
2024-06-09 13:16:32			0	39999	0	0	0	26176	24810	126670	26913	1015228	41852	109693	0	0	8375	476125	0	0
2024-06-09 13:17:32			0	40006	0	0	0	26192	24810	126694	27440	1015254	41875	109699	0	0	8375	475875	0	0
2024-06-09 13:18:32			0	39982	0	0	0	26212	24820	126754	26856	1015333	41876	109707	0	0	8373	476707	0	0
2024-06-09 13:19:32			0	39986	0	0	0	26283	24830	126786	26915	1015431	41877	109734	0	0	8372	476536	0	0
2024-06-09 13:20:32			0	39993	0	0	0	26316	24840	126766	27034	1015555	41889	109747	0	0	8372	476259	0	0
2024-06-09 13:21:32			0	39982	0	0	0	26329	24860	126810	27254	1015589	41879	109752	0	0	8371	476599	0	0
2024-06-09 13:22:32			0	39972	0	0	0	26332	24860	126810	27260	1015589	41891	109753	0	0	8371	476957	0	0
2024-06-09 13:23:32			0	39974	0	0	0	26337	24880	126806	27111	1015642	41892	109755	0	0	8371	476831	0	0
2024-06-09 13:24:32			0	39993	0	0	0	26337	24880	126850	26800	1015731	41881	109755	0	0	8372	476151	0	0
2024-06-09 13:25:32			0	39974	0	0	0	26353	24900	126782	27173	1015810	41906	109761	0	0	8371	476777	0	0
2024-06-09 13:26:32			0	39973	0	0	0	26381	24920	126862	27228	1015898	41896	109772	0	0	8370	476759	0	0
2024-06-09 13:27:32			0	39958	0	0	0	26386	24930	126790	27067	1015906	41896	109774	0	0	8369	477269	0	0
2024-06-09 13:28:32			0	39959	0	0	0	26412	24940	126794	27161	1015951	41887	109784	0	0	8369	477206	0	0
2024-06-09 13:29:32			0	39981	0	0	0	26405	24940	126734	27308	1015986	41887	109781	0	0	8370	476418	0	0
2024-06-09 13:30:32			0	39957	0	0	0	26405	24960	126806	27227	1015931	41877	109781	0	0	8369	477224	0	0
2024-06-09 13:31:32			0	39960	0	0	0	26389	24960	126774	27067	1015905	41888	109775	0	0	8370	477116	0	0
2024-06-09 13:32:32			0	39950	0	0	0	26368	24950	126714	26670	1015727	41875	109767	0	0	8369	477501	0	0
2024-06-09 13:33:32			0	39956	0	0	0	26332	24920	126738	27012	1015577	41863	109753	0	0	8370	477368	0	0
2024-06-09 13:34:32			0	39972	0	0	0	26306	24910	126762	27263	1015559	41862	109743	0	0	8371	476822	0	0
2024-06-09 13:35:32			0	39950	0	0	0	26290	24900	126738	26833	1015462	41883	109737	0	0	8370	477637	0	0
2024-06-09 13:36:32			0	39953	0	0	0	26270	24900	126698	27086	1015462	41883	109729	0	0	8371	477529	0	0
2024-06-09 13:37:32			0	39953	0	0	0	26257	24880	126822	27164	1015374	41859	109724	0	0	8371	477583	0	0
2024-06-09 13:38:32			0	39968	0	0	0	26238	24860	126846	27124	1015295	41846	109717	0	0	8372	477100	0	0
2024-06-09 13:39:32			0	39941	0	0	0	26210	24850	126886	27135	1015198	41857	109706	0	0	8371	478095	0	0
2024-06-09 13:40:32			0	39973	0	0	0	26199	24840	126814	26861	1015225	41877	109702	0	0	8373	476975	0	0
2024-06-09 13:41:32			0	39968	0	0	0	26192	24830	126826	27088	1015137	41866	109699	0	0	8373	477181	0	0
2024-06-09 13:42:32			0	39958	0	0	0	26176	24820	126846	27036	1015057	41865	109693	0	0	8372	477566	0	0
2024-06-09 13:43:32			0	39961	0	0	0	26171	24820	126798	27029	1015066	41887	109691	0	0	8373	477459	0	0
2024-06-09 13:44:32			0	39973	0	0	0	26176	24800	126794	27069	1015031	41864	109693	0	0	8373	477083	0	0
2024-06-09 13:45:32			0	39965	0	0	0	26161	24800	126842	26960	1015005	41852	109687	0	0	8373	477370	0	0
2024-06-09 13:46:32			0	39965	0	0	0	26150	24790	126742	27116	1014961	41883	109683	0	0	8373	477397	0	0
2024-06-09 13:47:32			0	39950	0	0	0	26158	24780	126790	27015	1014997	41862	109686	0	0	8372	477962	0	0
2024-06-09 13:48:32			0	39937	0	0	0	26145	24770	126842	27230	1014900	41860	109681	0	0	8372	478455	0	0
2024-06-09 13:49:32			0	39962	0	0	0	26148	24770	126810	27130	1014980	41871	109682	0	0	8373	477558	0	0
2024-06-09 13:50:32			0	39952	0	0	0	26137	24770	126778	27102	1014971	41860	109678	0	0	8373	477917	0	0
2024-06-09 13:51:32			0	39965	0	0	0	26137	24770	126822	27131	1014918	41882	109678	0	0	8373	477451	0	0
2024-06-09 13:52:32			0	39956	0	0	0	26132	24760	126826	26930	1014856	41860	109676	0	0	8373	477800	0	0
2024-06-09 13:53:32			0	39954	0	0	0	26135	24760	126738	27346	1014990	41871	109677	0	0	8373	477872	0	0
2024-06-09 13:54:32			0	39967	0	0	0	26137	24760	126842	26700	1014901	41859	109678	0	0	8373	477406	0	0
2024-06-09 13:55:32			0	39958	0	0	0	26132	24750	126854	26902	1014892	41858	109676	0	0	8373	477756	0	0
2024-06-09 13:56:32			0	39958	0	0	0	26122	24750	126890	26819	1014839	41870	109672	0	0	8373	477756	0	0
2024-06-09 13:57:32			0	39981	0	0	0	26124	24760	126794	27107	1014847	41870	109673	0	0	8374	476904	0	0
2024-06-09 13:58:32			0	39967	0	0	0	26132	24750	126858	27234	1014884	41858	109676	0	0	8373	477433	0	0
2024-06-09 13:59:32			0	39977	0	0	0	26132	24750	126802	27086	1014910	41880	109676	0	0	8374	477075	0	0
2024-06-09 14:00:32			0	39954	0	0	0	26135	24750	126830	27020	1014910	41858	109677	0	0	8373	477899	0	0
2024-06-09 14:01:32			0	39955	0	0	0	26137	24750	126730	27187	1014865	41870	109678	0	0	8373	477863	0	0
2024-06-09 14:02:32			0	39975	0	0	0	26135	24760	126782	26845	1014927	41870	109677	0	0	8374	477119	0	0
2024-06-09 14:03:32			0	39995	0	0	0	26148	24750	126758	27177	1014919	41858	109682	0	0	8375	476430	0	0
2024-06-09 14:04:32			0	39960	0	0	0	26137	24750	126798	27218	1014884	41858	109678	0	0	8373	477684	0	0
2024-06-09 14:05:32			0	39973	0	0	0	26132	24750	126830	27144	1014839	41870	109676	0	0	8374	477218	0	0
2024-06-09 14:06:32			0	39988	0	0	0	26129	24740	126786	27083	1014902	41846	109675	0	0	8375	476708	0	0
2024-06-09 14:07:32			0	39990	0	0	0	26127	24750	126750	27157	1014919	41847	109674	0	0	8375	476609	0	0
2024-06-09 14:08:32			0	39987	0	0	0	26140	24750	126750	26977	1014964	41870	109679	0	0	8374	476717	0	0
2024-06-09 14:09:32			0	39986	0	0	0	26155	24760	126734	27135	1014901	41859	109685	0	0	8374	476725	0	0
2024-06-09 14:10:32			0	39974	0	0	0	26153	24760	126786	27175	1014981	41870	109684	0	0	8373	477155	0	0
2024-06-09 14:11:32			0	39971	0	0	0	26150	24760	126682	26960	1014954	41859	109683	0	0	8373	477263	0	0
2024-06-09 14:12:32			0	39970	0	0	0	26161	24760	126718	27024	1014963	41871	109687	0	0	8373	477299	0	0
2024-06-09 14:13:32			0	39972	0	0	0	26155	24780	126814	27369	1015042	41872	109685	0	0	8373	477173	0	0
2024-06-09 14:14:32			0	39987	0	0	0	26171	24770	126774	27178	1015033	41882	109691	0	0	8374	476663	0	0
2024-06-09 14:15:32			0	39961	0	0	0	26184	24780	126858	27138	1015104	41862	109696	0	0	8372	477567	0	0
2024-06-09 14:16:32			0	39971	0	0	0	26202	24790	126770	27282	1015246	41883	109703	0	0	8373	477182	0	0
2024-06-09 14:17:32			0	39988	0	0	0	26233	24810	126754	27000	1015308	41885	109715	0	0	8373	476519	0	0
2024-06-09 14:18:32			0	39961	0	0	0	26257	24810	126822	27060	1015397	41886	109724	0	0	8371	477486	0	0
2024-06-09 14:19:32			0	39947	0	0	0	26267	24820	126814	26823	1015360	41887	109728	0	0	8370	477961	0	0
2024-06-09 14:20:32			0	39929	0	0	0	26283	24820	126866	26934	1015467	41876	109734	0	0	8369	478607	0	0
2024-06-09 14:21:32			0	39942	0	0	0	26293	24830	126886	27225	1015431	41888	109738	0	0	8370	478113	0	0
2024-06-09 14:22:32			0	39952	0	0	0	26283	24840	126870	27104	1015448	41878	109734	0	0	8370	477727	0	0
2024-06-09 14:23:32			0	39913	0	0	0	26293	24850	126930	27298	1015483	41890	109738	0	0	8368	479100	0	0
2024-06-09 14:24:32			0	39926	0	0	0	26301	24850	126902	27225	1015510	41890	109741	0	0	8369	478633	0	0
2024-06-09 14:25:32			0	39921	0	0	0	26306	24860	126934	27157	1015554	41901	109743	0	0	8369	478785	0	0
2024-06-09 14:26:32			0	39915	0	0	0	26303	24860	126946	27360	1015527	41890	109742	0	0	8368	479001	0	0
2024-06-09 14:27:32			0	39888	0	0	0	26309	24870	127034	27138	1015571	41892	109744	0	0	8367	479943	0	0
2024-06-09 14:28:32			0	39875	0	0	0	26301	24870	126994	27369	1015518	41880	109741	0	0	8366	480411	0	0
2024-06-09 14:29:32			0	39901	0	0	0	26290	24870	126978	27267	1015518	41870	109737	0	0	8368	479476	0	0
2024-06-09 14:30:32			0	39894	0	0	0	26270	24870	126970	27066	1015411	41880	109729	0	0	8368	479728	0	0
2024-06-09 14:31:32			0	39888	0	0	0	26267	24870	127030	27308	1015437	41859	109728	0	0	8368	479943	0	0
2024-06-09 14:32:32			0	39880	0	0	0	26249	24860	127006	26951	1015375	41879	109721	0	0	8367	480258	0	0
2024-06-09 14:33:32			0	39885	0	0	0	26246	24860	127006	27303	1015447	41878	109720	0	0	8368	480078	0	0
2024-06-09 14:34:32			0	39874	0	0	0	26251	24850	127034	27293	1015438	41878	109722	0	0	8367	480501	0	0
2024-06-09 14:35:32			0	39889	0	0	0	26257	24860	127042	27142	1015420	41878	109724	0	0	8368	479934	0	0
2024-06-09 14:36:32			0	39884	0	0	0	26246	24850	127050	27163	1015376	41890	109720	0	0	8368	480141	0	0
2024-06-09 14:37:32			0	39871	0	0	0	26251	24860	127122	27223	1015393	41890	109722	0	0	8367	480582	0	0
2024-06-09 14:38:32			0	39859	0	0	0	26241	24850	126906	27126	1015385	41878	109718	0	0	8366	481041	0	0
2024-06-09 14:39:32			0	39871	0	0	0	26238	24850	127074	27105	1015376	41878	109717	0	0	8367	480609	0	0
2024-06-09 14:40:32			0	39869	0	0	0	26238	24850	127010	27272	1015438	41878	109717	0	0	8367	480681	0	0
2024-06-09 14:41:32			0	39901	0	0	0	26238	24850	127062	27239	1015412	41890	109717	0	0	8369	479530	0	0
2024-06-09 14:42:32			0	39864	0	0	0	26238	24860	127010	27130	1015447	41878	109717	0	0	8367	480833	0	0
2024-06-09 14:43:32			0	39875	0	0	0	26246	24850	127018	27549	1015403	41857	109720	0	0	8367	480465	0	0
2024-06-09 14:44:32			0	39870	0	0	0	26241	24850	127058	26970	1015430	41878	109718	0	0	8367	480645	0	0
2024-06-09 14:45:32			0	39890	0	0	0	26236	24850	127054	27104	1015403	41857	109716	0	0	8368	479926	0	0
2024-06-09 14:46:32			0	39878	0	0	0	26233	24850	127130	27223	1015331	41868	109715	0	0	8368	480357	0	0
2024-06-09 14:47:32			0	39865	0	0	0	26223	24850	127074	27345	1015376	41878	109711	0	0	8367	480825	0	0
2024-06-09 14:48:32			0	39874	0	0	0	26228	24840	127054	27173	1015386	41888	109713	0	0	8367	480528	0	0
2024-06-09 14:49:32			0	39871	0	0	0	26231	24850	127038	27379	1015350	41878	109714	0	0	8367	480609	0	0
2024-06-09 14:50:32			0	39886	0	0	0	26231	24850	127062	27230	1015350	41890	109714	0	0	8368	480069	0	0
2024-06-09 14:51:32			0	39872	0	0	0	26233	24840	127050	27107	1015413	41866	109715	0	0	8367	480600	0	0
2024-06-09 14:52:32			0	39872	0	0	0	26225	24840	127074	27123	1015395	41889	109712	0	0	8367	480600	0	0
2024-06-09 14:53:32			0	39879	0	0	0	26236	24840	127042	27015	1015341	41878	109716	0	0	8367	480348	0	0
2024-06-09 14:54:32			0	39879	0	0	0	26244	24840	127094	26996	1015439	41877	109719	0	0	8367	480348	0	0
2024-06-09 14:55:32			0	39866	0	0	0	26249	24850	127038	27128	1015403	41868	109721	0	0	8367	480789	0	0
2024-06-09 14:56:32			0	39878	0	0	0	26246	24840	127030	26788	1015386	41877	109720	0	0	8367	480384	0	0
2024-06-09 14:57:32			0	39887	0	0	0	26241	24850	127058	26680	1015358	41878	109718	0	0	8368	480033	0	0
2024-06-09 14:58:32			0	39890	0	0	0	26231	24840	127090	26953	1015386	41877	109714	0	0	8368	479953	0	0
2024-06-09 14:59:32			0	39882	0	0	0	26236	24840	127094	26880	1015386	41877	109716	0	0	8368	480241	0	0
2024-06-09 15:00:32			0	39891	0	0	0	26225	24840	127026	27066	1015386	41866	109712	0	0	8368	479917	0	0
2024-06-09 15:01:32			0	39886	0	0	0	26215	24840	126958	26896	1015332	41888	109708	0	0	8368	480097	0	0
2024-06-09 15:02:32			0	39878	0	0	0	26218	24830	127034	27267	1015377	41866	109709	0	0	8368	480412	0	0
2024-06-09 15:03:32			0	39871	0	0	0	26215	24830	126978	27093	1015181	41877	109708	0	0	8367	480663	0	0
2024-06-09 15:04:32			0	39886	0	0	0	26215	24820	127070	27145	1015253	41887	109708	0	0	8368	480151	0	0
2024-06-09 15:05:32			0	39885	0	0	0	26205	24830	127026	27131	1015289	41888	109704	0	0	8368	480160	0	0
2024-06-09 15:06:32			0	39892	0	0	0	26218	24830	127022	27260	1015289	41899	109709	0	0	8368	479908	0	0
2024-06-09 15:07:32			0	39882	0	0	0	26220	24830	126970	27121	1015342	41877	109710	0	0	8368	480268	0	0
2024-06-09 15:08:32			0	39875	0	0	0	26223	24820	126974	27104	1015307	41876	109711	0	0	8367	480547	0	0
2024-06-09 15:09:32			0	39899	0	0	0	26231	24830	127066	27137	1015315	41877	109714	0	0	8369	479657	0	0
2024-06-09 15:10:32			0	39897	0	0	0	26231	24830	126970	27140	1015324	41888	109714	0	0	8368	479729	0	0
2024-06-09 15:11:32			0	39891	0	0	0	26236	24840	127006	27242	1015359	41877	109716	0	0	8368	479917	0	0
2024-06-09 15:12:32			0	39911	0	0	0	26218	24830	127022	27081	1015342	41877	109709	0	0	8369	479226	0	0
2024-06-09 15:13:32			0	39912	0	0	0	26218	24830	127022	26868	1015297	41877	109709	0	0	8369	479190	0	0
2024-06-09 15:14:32			0	39916	0	0	0	26251	24830	126938	27258	1015422	41888	109722	0	0	8369	479046	0	0
2024-06-09 15:15:32			0	39886	0	0	0	26288	24830	127026	27029	1015431	41888	109736	0	0	8367	480124	0	0
2024-06-09 15:16:32			0	39892	0	0	0	26311	24850	127014	26941	1015519	41890	109745	0	0	8367	479854	0	0
2024-06-09 15:17:32			0	39894	0	0	0	26314	24850	127046	27001	1015545	41901	109746	0	0	8367	479782	0	0
2024-06-09 15:18:32			0	39874	0	0	0	26314	24860	127066	27157	1015563	41879	109746	0	0	8366	480474	0	0
2024-06-09 15:19:32			0	39877	0	0	0	26316	24880	126958	27261	1015695	41880	109747	0	0	8366	480311	0	0
2024-06-09 15:20:32			0	39881	0	0	0	26306	24880	127010	26902	1015642	41892	109743	0	0	8367	480168	0	0
2024-06-09 15:21:32			0	39885	0	0	0	26329	24900	127022	27116	1015756	41906	109752	0	0	8366	479970	0	0
2024-06-09 15:22:32			0	39887	0	0	0	26335	24880	127006	26923	1015704	41893	109754	0	0	8366	479952	0	0
2024-06-09 15:23:32			0	39871	0	0	0	26337	24890	127106	27201	1015775	41894	109755	0	0	8366	480500	0	0
2024-06-09 15:24:32			0	39882	0	0	0	26353	24900	126994	27223	1015819	41906	109761	0	0	8366	480077	0	0
2024-06-09 15:25:32			0	39875	0	0	0	26355	24920	126966	27128	1015809	41896	109762	0	0	8366	480274	0	0
2024-06-09 15:26:32			0	39862	0	0	0	26353	24920	126978	26918	1015871	41896	109761	0	0	8365	480742	0	0
2024-06-09 15:27:32			0	39862	0	0	0	26348	24920	127042	27124	1015871	41885	109759	0	0	8365	480742	0	0
2024-06-09 15:28:32			0	39853	0	0	0	26358	24920	127014	27083	1015844	41908	109763	0	0	8364	481066	0	0
2024-06-09 15:29:32			0	39865	0	0	0	26348	24930	127102	27142	1015906	41885	109759	0	0	8365	480607	0	0
2024-06-09 15:30:32			0	39855	0	0	0	26350	24930	127038	27331	1015853	41896	109760	0	0	8365	480967	0	0
2024-06-09 15:31:32			0	39863	0	0	0	26355	24930	127082	27057	1015880	41896	109762	0	0	8365	480679	0	0
2024-06-09 15:32:32			0	39865	0	0	0	26340	24930	127026	27223	1015799	41908	109756	0	0	8365	480607	0	0
2024-06-09 15:33:32			0	39843	0	0	0	26340	24930	127094	27202	1015799	41896	109756	0	0	8364	481398	0	0
2024-06-09 15:34:32			0	39846	0	0	0	26332	24940	127050	26861	1015817	41887	109753	0	0	8365	481263	0	0
2024-06-09 15:35:32			0	39842	0	0	0	26322	24930	127022	27222	1015781	41875	109749	0	0	8364	481434	0	0
2024-06-09 15:36:32			0	39853	0	0	0	26319	24930	126982	27381	1015808	41897	109748	0	0	8365	481038	0	0
2024-06-09 15:37:32			0	39838	0	0	0	26314	24930	126942	26979	1015746	41885	109746	0	0	8364	481578	0	0
2024-06-09 15:38:32			0	39848	0	0	0	26311	24930	127002	27029	1015746	41885	109745	0	0	8365	481218	0	0
2024-06-09 15:39:32			0	39863	0	0	0	26316	24920	127066	27201	1015764	41896	109747	0	0	8366	480706	0	0
2024-06-09 15:40:32			0	39839	0	0	0	26322	24920	127094	27130	1015791	41896	109749	0	0	8364	481570	0	0
2024-06-09 15:41:32			0	39838	0	0	0	26348	24920	127102	27216	1015817	41896	109759	0	0	8364	481606	0	0
2024-06-09 15:42:32			0	39816	0	0	0	26366	24930	127158	27256	1015889	41908	109766	0	0	8362	482371	0	0
2024-06-09 15:43:32			0	39816	0	0	0	26392	24940	127106	27142	1015951	41898	109776	0	0	8362	482343	0	0
2024-06-09 15:44:32			0	39821	0	0	0	26399	24940	127174	27053	1015986	41887	109779	0	0	8362	482163	0	0
2024-06-09 15:45:32			0	39809	0	0	0	26420	24950	127162	27317	1016057	41899	109787	0	0	8361	482568	0	0
2024-06-09 15:46:32			0	39798	0	0	0	26418	24960	127222	27216	1016127	41912	109786	0	0	8361	482937	0	0
2024-06-09 15:47:32			0	39820	0	0	0	26446	24970	127198	27145	1016198	41901	109797	0	0	8361	482117	0	0
2024-06-09 15:48:32			0	39816	0	0	0	26457	24980	127134	27170	1016233	41902	109801	0	0	8361	482234	0	0
2024-06-09 15:49:32			0	39807	0	0	0	26464	25000	127118	27076	1016268	41915	109804	0	0	8361	482504	0	0
2024-06-09 15:50:32			0	39824	0	0	0	26470	24990	127082	27109	1016232	41902	109806	0	0	8361	481918	0	0
2024-06-09 15:51:32			0	39846	0	0	0	26477	24990	127094	27488	1016286	41924	109809	0	0	8362	481127	0	0
2024-06-09 15:52:32			0	39827	0	0	0	26480	25010	127018	27391	1016347	41916	109810	0	0	8361	481756	0	0
2024-06-09 15:53:32			0	39829	0	0	0	26467	25020	127002	27144	1016356	41916	109805	0	0	8362	481657	0	0
2024-06-09 15:54:32			0	39839	0	0	0	26464	25030	127006	26937	1016355	41917	109804	0	0	8362	481269	0	0
2024-06-09 15:55:32			0	39847	0	0	0	26467	25030	127030	27239	1016373	41907	109805	0	0	8363	480982	0	0
2024-06-09 15:56:32			0	39848	0	0	0	26467	25050	127006	27277	1016273	41898	109805	0	0	8363	480891	0	0
2024-06-09 15:57:32			0	39843	0	0	0	26405	25020	126954	27175	1016204	41906	109781	0	0	8363	481153	0	0
2024-06-09 15:58:32			0	39844	0	0	0	26379	25020	126938	27178	1016142	41905	109771	0	0	8364	481117	0	0
2024-06-09 15:59:32			0	39858	0	0	0	26358	25010	126946	27393	1016151	41893	109763	0	0	8365	480640	0	0
2024-06-09 16:00:32			0	39878	0	0	0	26371	25010	126970	27280	1016125	41904	109768	0	0	8366	479922	0	0
2024-06-09 16:01:32			0	39860	0	0	0	26376	24990	126922	27268	1016036	41891	109770	0	0	8365	480623	0	0
2024-06-09 16:02:32			0	39882	0	0	0	26373	24990	126978	26821	1016098	41891	109769	0	0	8366	479832	0	0
2024-06-09 16:03:32			0	39880	0	0	0	26366	24990	127018	27261	1016117	41914	109766	0	0	8366	479904	0	0
2024-06-09 16:04:32			0	39881	0	0	0	26355	24980	126918	26927	1016028	41902	109762	0	0	8366	479896	0	0
2024-06-09 16:05:32			0	39868	0	0	0	26353	24990	126950	27005	1015983	41902	109761	0	0	8366	480336	0	0
2024-06-09 16:06:32			0	39872	0	0	0	26342	24980	126994	27206	1015921	41891	109757	0	0	8366	480219	0	0
2024-06-09 16:07:32			0	39877	0	0	0	26350	24980	126946	27149	1015947	41891	109760	0	0	8366	480039	0	0
2024-06-09 16:08:32			0	39900	0	0	0	26353	24980	126986	27274	1015966	41913	109761	0	0	8367	479213	0	0
2024-06-09 16:09:32			0	39869	0	0	0	26358	24990	126942	27343	1016036	41902	109763	0	0	8365	480300	0	0
2024-06-09 16:10:32			0	39876	0	0	0	26366	24970	126918	27270	1016002	41889	109766	0	0	8366	480102	0	0
2024-06-09 16:11:32			0	39895	0	0	0	26361	24970	126886	27097	1016064	41901	109764	0	0	8367	479420	0	0
2024-06-09 16:12:32			0	39860	0	0	0	26366	24970	126906	27102	1016011	41878	109766	0	0	8365	480678	0	0
2024-06-09 16:13:32			0	39879	0	0	0	26368	24970	126962	26953	1016002	41901	109767	0	0	8366	479995	0	0
2024-06-09 16:14:32			0	39886	0	0	0	26379	24980	126922	26677	1016046	41913	109771	0	0	8366	479716	0	0
2024-06-09 16:15:32			0	39901	0	0	0	26376	24980	126942	27119	1016081	41891	109770	0	0	8367	479177	0	0
2024-06-09 16:16:32			0	39882	0	0	0	26373	24970	127018	26797	1016064	41901	109769	0	0	8366	479887	0	0
2024-06-09 16:17:32			0	39907	0	0	0	26397	24970	126950	27213	1016118	41922	109778	0	0	8367	478989	0	0
2024-06-09 16:18:32			0	39890	0	0	0	26392	24980	127014	26890	1016046	41890	109776	0	0	8366	479572	0	0
2024-06-09 16:19:32			0	39889	0	0	0	26394	24980	126918	26863	1016126	41902	109777	0	0	8366	479608	0	0
2024-06-09 16:20:32			0	39910	0	0	0	26402	24990	126954	27263	1016117	41914	109780	0	0	8367	478827	0	0
2024-06-09 16:21:32			0	39902	0	0	0	26407	24990	126838	27156	1016197	41902	109782	0	0	8366	479114	0	0
2024-06-09 16:22:32			0	39910	0	0	0	26399	24990	126878	27182	1016143	41914	109779	0	0	8367	478827	0	0
2024-06-09 16:23:32			0	39908	0	0	0	26397	24990	127006	27268	1016143	41902	109778	0	0	8367	478899	0	0
2024-06-09 16:24:32			0	39910	0	0	0	26407	24980	126906	27384	1016108	41902	109782	0	0	8367	478854	0	0
2024-06-09 16:25:32			0	39877	0	0	0	26407	24990	126914	26977	1016143	41914	109782	0	0	8365	480012	0	0
2024-06-09 16:26:32			0	39908	0	0	0	26410	25000	126930	27178	1016161	41903	109783	0	0	8367	478872	0	0
2024-06-09 16:27:32			0	39897	0	0	0	26399	24990	126966	27176	1016152	41902	109779	0	0	8366	479294	0	0
2024-06-09 16:28:32			0	39907	0	0	0	26394	24990	126846	27516	1016125	41914	109777	0	0	8367	478935	0	0
2024-06-09 16:29:32			0	39891	0	0	0	26402	24990	126834	27183	1016152	41902	109780	0	0	8366	479509	0	0
2024-06-09 16:30:32			0	39942	0	0	0	26386	24990	126882	27209	1016090	41891	109774	0	0	8369	477680	0	0
2024-06-09 16:31:32			0	39916	0	0	0	26386	25000	126934	27358	1016107	41892	109774	0	0	8367	478585	0	0
2024-06-09 16:32:32			0	39924	0	0	0	26376	24980	126794	27308	1016081	41914	109770	0	0	8368	478352	0	0
2024-06-09 16:33:32			0	39904	0	0	0	26381	24990	126854	27020	1016125	41902	109772	0	0	8367	479043	0	0
2024-06-09 16:34:32			0	39923	0	0	0	26386	24980	126926	27265	1016055	41902	109774	0	0	8368	478388	0	0
2024-06-09 16:35:32			0	39908	0	0	0	26386	24990	126794	27287	1016152	41902	109774	0	0	8367	478899	0	0
2024-06-09 16:36:32			0	39923	0	0	0	26386	24980	126870	27154	1016108	41902	109774	0	0	8368	478388	0	0
2024-06-09 16:37:32			0	39929	0	0	0	26392	24970	126826	27196	1016064	41912	109776	0	0	8368	478200	0	0
2024-06-09 16:38:32			0	39905	0	0	0	26392	25000	126874	27038	1016134	41915	109776	0	0	8367	478979	0	0
2024-06-09 16:39:32			0	39928	0	0	0	26386	24990	126942	27277	1016090	41902	109774	0	0	8368	478181	0	0
2024-06-09 16:40:32			0	39914	0	0	0	26402	24980	126886	27232	1016046	41902	109780	0	0	8367	478711	0	0
2024-06-09 16:41:32			0	39918	0	0	0	26394	24990	126862	27010	1016224	41914	109777	0	0	8367	478540	0	0
2024-06-09 16:42:32			0	39914	0	0	0	26394	25000	126834	27244	1016169	41926	109777	0	0	8367	478656	0	0
2024-06-09 16:43:32			0	39936	0	0	0	26399	24990	126902	27215	1016117	41902	109779	0	0	8368	477895	0	0
2024-06-09 16:44:32			0	39942	0	0	0	26399	24980	126858	27057	1016162	41902	109779	0	0	8369	477707	0	0
2024-06-09 16:45:32			0	39920	0	0	0	26399	24990	126890	27159	1016143	41914	109779	0	0	8367	478469	0	0
2024-06-09 16:46:32			0	39914	0	0	0	26392	24990	126878	26941	1016063	41902	109776	0	0	8367	478684	0	0
2024-06-09 16:47:32			0	39943	0	0	0	26392	24980	126786	26960	1016055	41891	109776	0	0	8369	477671	0	0
2024-06-09 16:48:32			0	39942	0	0	0	26386	24980	126794	26942	1016055	41902	109774	0	0	8369	477707	0	0
2024-06-09 16:49:32			0	39946	0	0	0	26389	24980	126746	27189	1016081	41914	109775	0	0	8369	477564	0	0
2024-06-09 16:50:32			0	39952	0	0	0	26392	24990	126750	26958	1016125	41924	109776	0	0	8369	477322	0	0
2024-06-09 16:51:32			0	39920	0	0	0	26399	24990	126694	27013	1016090	41914	109779	0	0	8367	478469	0	0
2024-06-09 16:52:32			0	39942	0	0	0	26397	24990	126726	27012	1016117	41902	109778	0	0	8369	477680	0	0
2024-06-09 16:53:32			0	39956	0	0	0	26392	24990	126826	27175	1016152	41902	109776	0	0	8369	477178	0	0
2024-06-09 16:54:32			0	39959	0	0	0	26397	24990	126770	27074	1016143	41914	109778	0	0	8369	477071	0	0
2024-06-09 16:55:32			0	39953	0	0	0	26386	24980	126706	27072	1016100	41902	109774	0	0	8369	477313	0	0
2024-06-09 16:56:32			0	39932	0	0	0	26392	24980	126862	27256	1016108	41914	109776	0	0	8368	478065	0	0
2024-06-09 16:57:32			0	39948	0	0	0	26373	24980	126742	26811	1016081	41891	109769	0	0	8369	477492	0	0
2024-06-09 16:58:32			0	39947	0	0	0	26355	24970	126702	27046	1016037	41889	109762	0	0	8369	477555	0	0
2024-06-09 16:59:32			0	39953	0	0	0	26353	24980	126770	27229	1016028	41902	109761	0	0	8370	477313	0	0
2024-06-09 17:00:32			0	39937	0	0	0	26366	24970	126714	26844	1016082	41912	109766	0	0	8369	477913	0	0
2024-06-09 17:01:32			0	39952	0	0	0	26371	24970	126734	27123	1016037	41912	109768	0	0	8369	477376	0	0
2024-06-09 17:02:32			0	39957	0	0	0	26366	24980	126718	27185	1016081	41914	109766	0	0	8370	477169	0	0
2024-06-09 17:03:32			0	39964	0	0	0	26373	24980	126726	26762	1016100	41913	109769	0	0	8370	476919	0	0
2024-06-09 17:04:32			0	39955	0	0	0	26366	24970	126710	26956	1016118	41901	109766	0	0	8370	477268	0	0
2024-06-09 17:05:32			0	39964	0	0	0	26366	24960	126798	26918	1015993	41901	109766	0	0	8370	476973	0	0
2024-06-09 17:06:32			0	39969	0	0	0	26353	24970	126770	27123	1016011	41901	109761	0	0	8371	476767	0	0
2024-06-09 17:07:32			0	39964	0	0	0	26319	24970	126722	27194	1015895	41878	109748	0	0	8371	476946	0	0
2024-06-09 17:08:32			0	39967	0	0	0	26301	24950	126746	27190	1015843	41899	109741	0	0	8371	476893	0	0
2024-06-09 17:09:32			0	39979	0	0	0	26280	24940	126674	27156	1015745	41887	109733	0	0	8372	476490	0	0
2024-06-09 17:10:32			0	39960	0	0	0	26283	24940	126662	27434	1015763	41887	109734	0	0	8371	477170	0	0
2024-06-09 17:11:32			0	39998	0	0	0	26272	24930	126614	27105	1015719	41896	109730	0	0	8373	475837	0	0
2024-06-09 17:12:32			0	39996	0	0	0	26264	24920	126634	27066	1015630	41885	109727	0	0	8373	475936	0	0
2024-06-09 17:13:32			0	40002	0	0	0	26264	24910	126586	27196	1015613	41884	109727	0	0	8374	475748	0	0
2024-06-09 17:14:32			0	40011	0	0	0	26259	24890	126654	27140	1015614	41883	109725	0	0	8374	475480	0	0
2024-06-09 17:15:32			0	39991	0	0	0	26257	24890	126606	26785	1015561	41894	109724	0	0	8373	476196	0	0
2024-06-09 17:16:32			0	40011	0	0	0	26241	24880	126674	26989	1015570	41871	109718	0	0	8374	475507	0	0
2024-06-09 17:17:32			0	40011	0	0	0	26231	24880	126582	27213	1015517	41881	109714	0	0	8375	475507	0	0
2024-06-09 17:18:32			0	39997	0	0	0	26225	24880	126582	26956	1015481	41892	109712	0	0	8374	476008	0	0
2024-06-09 17:19:32			0	40028	0	0	0	26220	24870	126522	27289	1015499	41903	109710	0	0	8376	474927	0	0
2024-06-09 17:20:32			0	40002	0	0	0	26225	24870	126542	27246	1015464	41880	109712	0	0	8374	475856	0	0
2024-06-09 17:21:32			0	40010	0	0	0	26225	24870	126566	27313	1015464	41892	109712	0	0	8375	475570	0	0
2024-06-09 17:22:32			0	40027	0	0	0	26228	24860	126602	27194	1015527	41890	109713	0	0	8375	474989	0	0
2024-06-09 17:23:32			0	40014	0	0	0	26259	24860	126598	27026	1015589	41902	109725	0	0	8374	475454	0	0
2024-06-09 17:24:32			0	40042	0	0	0	26285	24880	126546	27241	1015669	41892	109735	0	0	8375	474400	0	0
2024-06-09 17:25:32			0	40016	0	0	0	26314	24880	126570	26897	1015722	41914	109746	0	0	8373	475328	0	0
2024-06-09 17:26:32			0	40020	0	0	0	26296	24890	126518	27194	1015739	41893	109739	0	0	8374	475159	0	0
2024-06-09 17:27:32			0	40033	0	0	0	26311	24890	126614	27038	1015766	41893	109745	0	0	8374	474694	0	0
2024-06-09 17:28:32			0	40014	0	0	0	26342	24900	126602	27204	1015810	41906	109757	0	0	8373	475346	0	0
2024-06-09 17:29:32			0	40042	0	0	0	26358	24910	126594	27216	1015934	41895	109763	0	0	8374	474319	0	0
2024-06-09 17:30:32			0	40019	0	0	0	26371	24920	126582	27126	1015809	41908	109768	0	0	8373	475113	0	0
2024-06-09 17:31:32			0	40033	0	0	0	26361	24930	126590	26842	1015880	41896	109764	0	0	8374	474586	0	0
2024-06-09 17:32:32			0	40021	0	0	0	26368	24920	126550	26890	1015943	41896	109767	0	0	8373	475042	0	0
2024-06-09 17:33:32			0	40026	0	0	0	26368	24930	126642	26866	1015996	41897	109767	0	0	8373	474837	0	0
2024-06-09 17:34:32			0	40025	0	0	0	26373	24940	126630	27076	1015924	41898	109769	0	0	8373	474845	0	0
2024-06-09 17:35:32			0	40033	0	0	0	26371	24940	126610	26930	1015977	41920	109768	0	0	8374	474560	0	0
2024-06-09 17:36:32			0	40016	0	0	0	26373	24930	126594	26942	1015942	41897	109769	0	0	8373	475194	0	0
2024-06-09 17:37:32			0	40036	0	0	0	26373	24940	126438	27282	1016066	41898	109769	0	0	8374	474453	0	0
2024-06-09 17:38:32			0	40030	0	0	0	26384	24950	126466	27202	1016021	41898	109773	0	0	8373	474640	0	0
2024-06-09 17:39:32			0	40014	0	0	0	26386	24950	126518	26840	1016030	41910	109774	0	0	8372	475211	0	0
2024-06-09 17:40:32			0	40021	0	0	0	26384	24950	126498	27175	1016030	41910	109773	0	0	8373	474961	0	0
2024-06-09 17:41:32			0	40036	0	0	0	26389	24950	126470	27154	1016030	41899	109775	0	0	8373	474426	0	0
2024-06-09 17:42:32			0	40020	0	0	0	26376	24950	126534	27190	1016003	41899	109770	0	0	8373	474997	0	0
2024-06-09 17:43:32			0	40031	0	0	0	26376	24950	126614	27041	1016030	41910	109770	0	0	8373	474604	0	0
2024-06-09 17:44:32			0	40028	0	0	0	26368	24960	126550	27171	1016038	41911	109767	0	0	8373	474684	0	0
2024-06-09 17:45:32			0	40031	0	0	0	26355	24960	126534	27253	1015931	41921	109762	0	0	8374	474577	0	0
2024-06-09 17:46:32			0	40028	0	0	0	26358	24960	126538	26875	1015958	41900	109763	0	0	8374	474684	0	0
2024-06-09 17:47:32			0	40034	0	0	0	26355	24960	126454	27034	1015905	41911	109762	0	0	8374	474470	0	0
2024-06-09 17:48:32			0	40017	0	0	0	26361	24960	126570	27163	1016012	41911	109764	0	0	8373	475077	0	0
2024-06-09 17:49:32			0	40017	0	0	0	26345	24950	126554	26916	1015968	41909	109758	0	0	8373	475104	0	0
2024-06-09 17:50:32			0	40029	0	0	0	26355	24960	126558	27020	1015958	41900	109762	0	0	8374	474649	0	0
2024-06-09 17:51:32			0	40036	0	0	0	26345	24950	126570	26774	1015968	41920	109758	0	0	8374	474426	0	0
2024-06-09 17:52:32			0	40028	0	0	0	26345	24940	126594	27315	1015986	41898	109758	0	0	8374	474738	0	0
2024-06-09 17:53:32			0	40016	0	0	0	26353	24960	126514	26864	1016012	41900	109761	0	0	8373	475113	0	0
2024-06-09 17:54:32			0	40015	0	0	0	26355	24950	126450	27008	1015976	41910	109762	0	0	8373	475176	0	0
2024-06-09 17:55:32			0	40018	0	0	0	26358	24950	126578	26942	1015968	41909	109763	0	0	8373	475068	0	0
2024-06-09 17:56:32			0	40025	0	0	0	26361	24960	126578	26942	1016012	41911	109764	0	0	8373	474791	0	0
2024-06-09 17:57:32			0	40026	0	0	0	26363	24950	126490	27074	1015976	41899	109765	0	0	8373	474783	0	0
2024-06-09 17:58:32			0	40023	0	0	0	26366	24950	126618	27066	1015950	41899	109766	0	0	8373	474890	0	0
2024-06-09 17:59:32			0	40024	0	0	0	26361	24940	126554	27111	1015959	41909	109764	0	0	8373	474881	0	0
2024-06-09 18:00:32			0	39993	0	0	0	26363	24960	126506	27045	1016012	41921	109765	0	0	8372	475935	0	0
2024-06-09 18:01:32			0	40011	0	0	0	26363	24960	126574	27050	1016012	41911	109765	0	0	8373	475292	0	0
2024-06-09 18:02:32			0	40008	0	0	0	26358	24950	126598	26811	1015968	41909	109763	0	0	8373	475426	0	0
2024-06-09 18:03:32			0	40008	0	0	0	26353	24950	126566	26856	1016057	41932	109761	0	0	8373	475426	0	0
2024-06-09 18:04:32			0	40013	0	0	0	26361	24960	126602	27092	1015993	41912	109764	0	0	8373	475220	0	0
2024-06-09 18:05:32			0	40011	0	0	0	26353	24960	126594	26703	1016012	41911	109761	0	0	8373	475292	0	0
2024-06-09 18:06:32			0	40008	0	0	0	26358	24950	126598	26824	1016003	41921	109763	0	0	8373	475426	0	0
2024-06-09 18:07:32			0	40006	0	0	0	26342	24950	126674	27019	1015887	41898	109757	0	0	8373	475497	0	0
2024-06-09 18:08:32			0	39988	0	0	0	26340	24950	126602	27164	1015941	41909	109756	0	0	8372	476141	0	0
2024-06-09 18:09:32			0	40039	0	0	0	26324	24950	126654	26811	1015896	41910	109750	0	0	8375	474318	0	0
2024-06-09 18:10:32			0	40008	0	0	0	26332	24940	126514	27036	1015924	41909	109753	0	0	8373	475453	0	0
2024-06-09 18:11:32			0	40004	0	0	0	26327	24950	126614	27100	1015914	41909	109751	0	0	8373	475569	0	0
2024-06-09 18:12:32			0	40028	0	0	0	26337	24940	126674	27241	1015924	41909	109755	0	0	8374	474738	0	0
2024-06-09 18:13:32			0	40037	0	0	0	26335	24940	126578	27147	1015879	41898	109754	0	0	8374	474417	0	0
2024-06-09 18:14:32			0	40006	0	0	0	26324	24930	126574	26823	1015915	41908	109750	0	0	8373	475551	0	0
2024-06-09 18:15:32			0	40007	0	0	0	26316	24940	126558	26899	1015844	41909	109747	0	0	8373	475489	0	0
2024-06-09 18:16:32			0	40022	0	0	0	26322	24930	126554	26984	1015835	41886	109749	0	0	8374	474979	0	0
2024-06-09 18:17:32			0	40013	0	0	0	26314	24940	126626	27013	1015897	41909	109746	0	0	8373	475274	0	0
2024-06-09 18:18:32			0	40017	0	0	0	26319	24930	126682	26987	1015808	41897	109748	0	0	8374	475158	0	0
2024-06-09 18:19:32			0	40028	0	0	0	26322	24930	126622	27310	1015826	41896	109749	0	0	8374	474765	0	0
2024-06-09 18:20:32			0	40004	0	0	0	26311	24930	126630	27093	1015853	41896	109745	0	0	8373	475623	0	0
2024-06-09 18:21:32			0	40006	0	0	0	26314	24920	126626	27242	1015791	41908	109746	0	0	8373	475578	0	0
2024-06-09 18:22:32			0	40020	0	0	0	26309	24920	126574	27000	1015817	41908	109744	0	0	8374	475078	0	0
2024-06-09 18:23:32			0	40022	0	0	0	26311	24920	126666	26897	1015817	41896	109745	0	0	8374	475006	0	0
2024-06-09 18:24:32			0	40016	0	0	0	26314	24920	126662	27209	1015791	41908	109746	0	0	8374	475221	0	0
2024-06-09 18:25:32			0	40028	0	0	0	26309	24920	126678	27112	1015844	41908	109744	0	0	8374	474792	0	0
2024-06-09 18:26:32			0	39998	0	0	0	26322	24930	126686	27076	1015773	41896	109749	0	0	8373	475837	0	0
2024-06-09 18:27:32			0	40018	0	0	0	26316	24920	126746	27017	1015844	41908	109747	0	0	8374	475149	0	0
2024-06-09 18:28:32			0	39995	0	0	0	26322	24920	126642	27168	1015862	41908	109749	0	0	8372	475972	0	0
2024-06-09 18:29:32			0	40005	0	0	0	26322	24930	126522	27154	1015835	41908	109749	0	0	8373	475587	0	0
2024-06-09 18:30:32			0	40026	0	0	0	26322	24930	126610	27142	1015799	41908	109749	0	0	8374	474837	0	0
2024-06-09 18:31:32			0	40010	0	0	0	26329	24920	126638	27093	1015782	41908	109752	0	0	8373	475435	0	0
2024-06-09 18:32:32			0	40010	0	0	0	26314	24920	126578	27239	1015844	41908	109746	0	0	8373	475435	0	0
2024-06-09 18:33:32			0	40013	0	0	0	26309	24930	126670	26955	1015826	41908	109744	0	0	8374	475301	0	0
2024-06-09 18:34:32			0	40002	0	0	0	26311	24920	126646	27258	1015755	41908	109745	0	0	8373	475721	0	0
2024-06-09 18:35:32			0	40012	0	0	0	26306	24920	126622	27248	1015791	41918	109743	0	0	8373	475364	0	0
2024-06-09 18:36:32			0	40025	0	0	0	26311	24920	126622	27286	1015764	41885	109745	0	0	8374	474899	0	0
2024-06-09 18:37:32			0	40025	0	0	0	26298	24920	126550	27057	1015755	41896	109740	0	0	8374	474899	0	0
2024-06-09 18:38:32			0	40021	0	0	0	26303	24920	126618	27001	1015791	41896	109742	0	0	8374	475042	0	0
2024-06-09 18:39:32			0	40014	0	0	0	26303	24910	126622	27043	1015747	41895	109742	0	0	8374	475319	0	0
2024-06-09 18:40:32			0	40010	0	0	0	26301	24910	126602	27107	1015747	41917	109741	0	0	8373	475462	0	0
2024-06-09 18:41:32			0	40019	0	0	0	26293	24900	126634	26897	1015738	41906	109738	0	0	8374	475167	0	0
2024-06-09 18:42:32			0	40046	0	0	0	26285	24900	126610	27119	1015730	41894	109735	0	0	8376	474203	0	0
2024-06-09 18:43:32			0	40032	0	0	0	26301	24890	126586	27275	1015801	41906	109741	0	0	8374	474730	0	0
2024-06-09 18:44:32			0	40016	0	0	0	26335	24910	126594	27237	1015907	41917	109754	0	0	8373	475248	0	0
2024-06-09 18:45:32			0	40029	0	0	0	26363	24930	126570	27175	1016022	41908	109765	0	0	8373	474729	0	0
2024-06-09 18:46:32			0	40031	0	0	0	26410	24940	126646	26904	1016004	41909	109783	0	0	8373	474631	0	0
2024-06-09 18:47:32			0	40047	0	0	0	26454	24960	126582	26996	1016261	41912	109800	0	0	8373	474006	0	0
2024-06-09 18:48:32			0	40025	0	0	0	26464	24970	126574	27286	1016278	41912	109804	0	0	8372	474765	0	0
2024-06-09 18:49:32			0	40037	0	0	0	26472	24980	126650	27102	1016295	41924	109807	0	0	8372	474309	0	0
2024-06-09 18:50:32			0	40045	0	0	0	26490	24990	126646	27194	1016339	41914	109814	0	0	8372	473997	0	0
2024-06-09 18:51:32			0	40027	0	0	0	26506	25000	126570	27312	1016428	41925	109820	0	0	8371	474612	0	0
2024-06-09 18:52:32			0	40006	0	0	0	26498	25020	126574	27391	1016463	41927	109817	0	0	8370	475309	0	0
2024-06-09 18:53:32			0	40048	0	0	0	26511	25020	126462	27124	1016498	41916	109822	0	0	8372	473809	0	0
2024-06-09 18:54:32			0	40139	0	0	0	26514	25030	126239	26951	1016480	41929	109823	0	0	8377	470543	0	0
2024-06-09 18:55:32			0	40248	0	0	0	26516	25050	125871	27126	1016550	41942	109824	0	0	8383	466625	0	0
2024-06-09 18:56:32			0	40343	0	0	0	26537	25050	125675	27474	1016604	41931	109832	0	0	8387	463272	0	0
2024-06-09 18:57:32			0	40441	0	0	0	26542	25060	125339	27130	1016647	41932	109834	0	0	8392	459800	0	0
2024-06-09 18:58:32			0	40591	0	0	0	26550	25080	125031	26902	1016727	41932	109837	0	0	8400	454501	0	0
2024-06-09 18:59:32			0	40752	0	0	0	26568	25090	124451	26975	1016798	41934	109844	0	0	8408	448880	0	0
2024-06-09 19:00:32			0	40846	0	0	0	26566	25080	124148	27128	1016789	41933	109843	0	0	8413	445655	0	0
2024-06-09 19:01:32			0	40915	0	0	0	26571	25100	123920	27046	1016877	41935	109845	0	0	8417	443227	0	0
2024-06-09 19:02:32			0	40935	0	0	0	26571	25110	123840	27244	1016885	41936	109845	0	0	8418	442514	0	0
2024-06-09 19:03:32			0	40914	0	0	0	26576	25110	123888	27033	1016947	41948	109847	0	0	8417	443237	0	0
2024-06-09 19:04:32			0	40900	0	0	0	26594	25120	123864	27112	1017018	41926	109854	0	0	8416	443693	0	0
2024-06-09 19:05:32			0	40899	0	0	0	26592	25120	123960	27092	1016911	41948	109853	0	0	8416	443728	0	0
2024-06-09 19:06:32			0	40885	0	0	0	26599	25130	124004	27020	1017009	41927	109856	0	0	8415	444185	0	0
2024-06-09 19:07:32			0	40911	0	0	0	26612	25140	123956	27287	1016999	41939	109861	0	0	8416	443264	0	0
2024-06-09 19:08:32			0	40897	0	0	0	26599	25150	123964	26844	1017096	41962	109856	0	0	8416	443721	0	0
2024-06-09 19:09:32			0	40921	0	0	0	26620	25160	123816	27258	1017105	41941	109864	0	0	8416	442870	0	0
2024-06-09 19:10:32			0	40923	0	0	0	26633	25170	123848	26786	1017131	41931	109869	0	0	8416	442776	0	0
2024-06-09 19:11:32			0	40959	0	0	0	26633	25170	123792	27038	1017211	41942	109869	0	0	8418	441539	0	0
2024-06-09 19:12:32			0	40971	0	0	0	26644	25170	123740	27263	1017238	41931	109873	0	0	8419	441127	0	0
2024-06-09 19:13:32			0	40991	0	0	0	26651	25180	123652	27409	1017148	41943	109876	0	0	8420	440416	0	0
2024-06-09 19:14:32			0	41010	0	0	0	26654	25200	123616	26935	1017246	41944	109877	0	0	8421	439715	0	0
2024-06-09 19:15:32			0	41044	0	0	0	26654	25200	123432	27123	1017254	41945	109877	0	0	8423	438551	0	0
2024-06-09 19:16:32			0	41053	0	0	0	26670	25210	123476	27282	1017316	41945	109883	0	0	8423	438218	0	0
2024-06-09 19:17:32			0	41066	0	0	0	26675	25210	123460	27041	1017352	41945	109885	0	0	8423	437774	0	0
2024-06-09 19:18:32			0	41099	0	0	0	26667	25210	123356	27133	1017352	41934	109882	0	0	8425	436646	0	0
2024-06-09 19:19:32			0	41120	0	0	0	26672	25220	123328	27100	1017449	41969	109884	0	0	8426	435905	0	0
2024-06-09 19:20:32			0	41157	0	0	0	26675	25230	123240	26937	1017404	41936	109885	0	0	8428	434619	0	0
2024-06-09 19:21:32			0	41180	0	0	0	26672	25240	123064	27275	1017422	41948	109884	0	0	8430	433812	0	0
2024-06-09 19:22:32			0	41214	0	0	0	26683	25240	123120	27185	1017475	41948	109888	0	0	8431	432656	0	0
2024-06-09 19:23:32			0	41240	0	0	0	26683	25240	122944	27230	1017430	41959	109888	0	0	8432	431773	0	0
2024-06-09 19:24:32			0	41233	0	0	0	26683	25250	122912	27170	1017492	41937	109888	0	0	8432	431986	0	0
2024-06-09 19:25:32			0	41267	0	0	0	26683	25260	122836	27123	1017483	41950	109888	0	0	8434	430808	0	0
2024-06-09 19:26:32			0	41296	0	0	0	26693	25250	122796	27659	1017474	41950	109892	0	0	8435	429850	0	0
2024-06-09 19:27:32			0	41325	0	0	0	26693	25260	122640	27000	1017483	41950	109892	0	0	8437	428844	0	0
2024-06-09 19:28:32			0	41334	0	0	0	26683	25250	122608	27140	1017528	41938	109888	0	0	8437	428564	0	0
2024-06-09 19:29:32			0	41364	0	0	0	26690	25260	122544	27305	1017509	41950	109891	0	0	8439	427526	0	0
2024-06-09 19:30:32			0	41374	0	0	0	26696	25270	122568	27225	1017527	41951	109893	0	0	8439	427165	0	0
2024-06-09 19:31:32			0	41399	0	0	0	26693	25250	122448	27203	1017474	41960	109892	0	0	8441	426370	0	0
2024-06-09 19:32:32			0	41418	0	0	0	26693	25270	122432	27177	1017553	41951	109892	0	0	8442	425681	0	0
2024-06-09 19:33:32			0	41422	0	0	0	26690	25270	122352	27227	1017607	41939	109891	0	0	8442	425546	0	0
2024-06-09 19:34:32			0	41460	0	0	0	26690	25270	122245	27213	1017535	41940	109891	0	0	8444	424267	0	0
2024-06-09 19:35:32			0	41481	0	0	0	26688	25270	122149	26854	1017500	41961	109890	0	0	8445	423561	0	0
2024-06-09 19:36:32			0	41503	0	0	0	26690	25270	122197	27196	1017535	41951	109891	0	0	8446	422822	0	0
2024-06-09 19:37:32			0	41499	0	0	0	26693	25270	122065	27020	1017535	41940	109892	0	0	8446	422956	0	0
2024-06-09 19:38:32			0	41535	0	0	0	26698	25270	122133	27275	1017580	41951	109894	0	0	8448	421747	0	0
2024-06-09 19:39:32			0	41529	0	0	0	26701	25270	122045	27157	1017500	41961	109895	0	0	8448	421949	0	0
2024-06-09 19:40:32			0	41563	0	0	0	26701	25280	122025	27416	1017597	41974	109895	0	0	8449	420785	0	0
2024-06-09 19:41:32			0	41573	0	0	0	26706	25280	121973	27473	1017597	41941	109897	0	0	8450	420450	0	0
2024-06-09 19:42:32			0	41566	0	0	0	26709	25280	121969	27083	1017678	41952	109898	0	0	8449	420684	0	0
2024-06-09 19:43:32			0	41578	0	0	0	26698	25290	121881	27060	1017641	41963	109894	0	0	8450	420259	0	0
2024-06-09 19:44:32			0	41605	0	0	0	26701	25280	121905	27176	1017552	41941	109895	0	0	8452	419379	0	0
2024-06-09 19:45:32			0	41624	0	0	0	26711	25270	121909	27325	1017616	41951	109899	0	0	8452	418768	0	0
2024-06-09 19:46:32			0	41633	0	0	0	26698	25290	121829	27355	1017615	41963	109894	0	0	8453	418419	0	0
2024-06-09 19:47:32			0	41636	0	0	0	26703	25290	121869	26925	1017615	41941	109896	0	0	8453	418319	0	0
2024-06-09 19:48:32			0	41636	0	0	0	26696	25290	121821	26913	1017596	41953	109893	0	0	8453	418319	0	0
2024-06-09 19:49:32			0	41626	0	0	0	26690	25290	121797	27128	1017588	41963	109891	0	0	8453	418653	0	0
2024-06-09 19:50:32			0	41646	0	0	0	26698	25290	121817	27336	1017588	41974	109894	0	0	8454	417985	0	0
2024-06-09 19:51:32			0	41658	0	0	0	26706	25280	121797	27130	1017659	41963	109897	0	0	8454	417608	0	0
2024-06-09 19:52:32			0	41646	0	0	0	26701	25290	121797	27315	1017588	41952	109895	0	0	8454	417985	0	0
2024-06-09 19:53:32			0	41635	0	0	0	26709	25290	121793	27029	1017668	41963	109898	0	0	8453	418353	0	0
2024-06-09 19:54:32			0	41665	0	0	0	26709	25290	121773	27083	1017615	41952	109898	0	0	8455	417351	0	0
2024-06-09 19:55:32			0	41682	0	0	0	26711	25290	121781	27248	1017677	41964	109899	0	0	8456	416784	0	0
2024-06-09 19:56:32			0	41668	0	0	0	26709	25290	121685	27190	1017641	41952	109898	0	0	8455	417251	0	0
2024-06-09 19:57:32			0	41664	0	0	0	26706	25290	121773	27424	1017641	41963	109897	0	0	8455	417384	0	0
2024-06-09 19:58:32			0	41668	0	0	0	26706	25300	121757	27126	1017694	41954	109897	0	0	8455	417227	0	0
2024-06-09 19:59:32			0	41669	0	0	0	26703	25300	121717	26927	1017685	41976	109896	0	0	8455	417194	0	0
2024-06-09 20:00:32			0	41643	0	0	0	26703	25290	121769	27156	1017623	41964	109896	0	0	8454	418085	0	0
2024-06-09 20:01:32			0	41647	0	0	0	26698	25290	121841	27291	1017668	41952	109894	0	0	8454	417952	0	0
2024-06-09 20:02:32			0	41673	0	0	0	26709	25290	121797	27234	1017695	41952	109898	0	0	8455	417084	0	0
2024-06-09 20:03:32			0	41660	0	0	0	26711	25290	121733	27144	1017677	41953	109899	0	0	8454	417518	0	0
2024-06-09 20:04:32			0	41634	0	0	0	26709	25300	121845	27053	1017712	41943	109898	0	0	8453	418362	0	0
2024-06-09 20:05:32			0	41676	0	0	0	26706	25300	121781	26932	1017658	41943	109897	0	0	8455	416961	0	0
2024-06-09 20:06:32			0	41666	0	0	0	26706	25290	121717	27327	1017650	41964	109897	0	0	8455	417318	0	0
2024-06-09 20:07:32			0	41655	0	0	0	26706	25290	121705	27031	1017650	41953	109897	0	0	8454	417685	0	0
2024-06-09 20:08:32			0	41666	0	0	0	26703	25300	121737	26705	1017685	41954	109896	0	0	8455	417294	0	0
2024-06-09 20:09:32			0	41657	0	0	0	26696	25290	121709	27053	1017641	41941	109893	0	0	8455	417618	0	0
2024-06-09 20:10:32			0	41668	0	0	0	26711	25300	121665	27237	1017658	41964	109899	0	0	8455	417227	0	0
2024-06-09 20:11:32			0	41683	0	0	0	26703	25300	121701	27104	1017721	41943	109896	0	0	8456	416727	0	0
2024-06-09 20:12:32			0	41703	0	0	0	26711	25300	121573	26691	1017658	41964	109899	0	0	8457	416061	0	0
2024-06-09 20:13:32			0	41694	0	0	0	26703	25290	121641	27019	1017641	41952	109896	0	0	8456	416384	0	0
2024-06-09 20:14:32			0	41697	0	0	0	26703	25290	121589	26935	1017623	41964	109896	0	0	8457	416284	0	0
2024-06-09 20:15:32			0	41701	0	0	0	26703	25300	121581	26809	1017739	41954	109896	0	0	8457	416127	0	0
2024-06-09 20:16:32			0	41737	0	0	0	26701	25290	121585	27039	1017650	41953	109895	0	0	8459	414952	0	0
2024-06-09 20:17:32			0	41722	0	0	0	26696	25290	121665	26897	1017668	41941	109893	0	0	8458	415451	0	0
2024-06-09 20:18:32			0	41713	0	0	0	26698	25290	121605	27008	1017650	41942	109894	0	0	8457	415751	0	0
2024-06-09 20:19:32			0	41722	0	0	0	26701	25290	121589	26961	1017588	41941	109895	0	0	8458	415451	0	0
2024-06-09 20:20:32			0	41737	0	0	0	26698	25290	121561	26861	1017623	41964	109894	0	0	8459	414952	0	0
2024-06-09 20:21:32			0	41739	0	0	0	26693	25290	121641	27119	1017650	41964	109892	0	0	8459	414886	0	0
2024-06-09 20:22:32			0	41745	0	0	0	26701	25290	121553	27067	1017677	41975	109895	0	0	8459	414686	0	0
2024-06-09 20:23:32			0	41747	0	0	0	26703	25290	121445	27209	1017677	41953	109896	0	0	8459	414619	0	0
2024-06-09 20:24:32			0	41742	0	0	0	26703	25290	121573	27064	1017668	41952	109896	0	0	8459	414786	0	0
2024-06-09 20:25:32			0	41736	0	0	0	26696	25290	121557	27164	1017668	41952	109893	0	0	8459	414986	0	0
2024-06-09 20:26:32			0	41740	0	0	0	26703	25280	121573	26951	1017686	41952	109896	0	0	8459	414876	0	0
2024-06-09 20:27:32			0	41738	0	0	0	26701	25300	121533	27128	1017658	41954	109895	0	0	8459	414895	0	0
2024-06-09 20:28:32			0	41743	0	0	0	26706	25290	121477	27100	1017703	41964	109897	0	0	8459	414753	0	0
2024-06-09 20:29:32			0	41752	0	0	0	26703	25290	121457	26854	1017668	41952	109896	0	0	8459	414453	0	0
2024-06-09 20:30:32			0	41784	0	0	0	26714	25290	121449	26892	1017668	41952	109900	0	0	8461	413390	0	0
2024-06-09 20:31:32			0	41775	0	0	0	26711	25290	121525	27182	1017730	41953	109899	0	0	8461	413689	0	0
2024-06-09 20:32:32			0	41771	0	0	0	26709	25290	121481	27154	1017677	41942	109898	0	0	8460	413822	0	0
2024-06-09 20:33:32			0	41774	0	0	0	26706	25300	121441	27060	1017658	41964	109897	0	0	8461	413699	0	0
2024-06-09 20:34:32			0	41793	0	0	0	26706	25290	121457	26876	1017677	41942	109897	0	0	8462	413091	0	0
2024-06-09 20:35:32			0	41778	0	0	0	26701	25290	121437	26809	1017677	41942	109895	0	0	8461	413589	0	0
2024-06-09 20:36:32			0	41795	0	0	0	26696	25290	121297	27126	1017668	41952	109893	0	0	8462	413025	0	0
2024-06-09 20:37:32			0	41824	0	0	0	26693	25290	121245	27211	1017623	41953	109892	0	0	8463	412063	0	0
2024-06-09 20:38:32			0	41801	0	0	0	26701	25280	121357	27313	1017633	41963	109895	0	0	8462	412849	0	0
2024-06-09 20:39:32			0	41814	0	0	0	26696	25290	121349	26974	1017650	41953	109893	0	0	8463	412394	0	0
2024-06-09 20:40:32			0	41814	0	0	0	26693	25290	121349	27088	1017668	41930	109892	0	0	8463	412394	0	0
2024-06-09 20:41:32			0	41810	0	0	0	26688	25280	121361	27223	1017597	41952	109890	0	0	8463	412550	0	0
2024-06-09 20:42:32			0	41812	0	0	0	26688	25290	121349	27114	1017615	41963	109890	0	0	8463	412461	0	0
2024-06-09 20:43:32			0	41818	0	0	0	26680	25280	121373	27364	1017606	41963	109887	0	0	8463	412285	0	0
2024-06-09 20:44:32			0	41829	0	0	0	26688	25280	121321	27272	1017606	41952	109890	0	0	8464	411920	0	0
2024-06-09 20:45:32			0	41829	0	0	0	26688	25290	121329	26911	1017641	41952	109890	0	0	8464	411897	0	0
2024-06-09 20:46:32			0	41818	0	0	0	26677	25280	121357	26896	1017579	41941	109886	0	0	8463	412285	0	0
2024-06-09 20:47:32			0	41811	0	0	0	26680	25280	121281	26901	1017597	41952	109887	0	0	8463	412517	0	0
2024-06-09 20:48:32			0	41820	0	0	0	26672	25280	121325	27244	1017651	41941	109884	0	0	8464	412219	0	0
2024-06-09 20:49:32			0	41821	0	0	0	26677	25280	121325	27111	1017597	41952	109886	0	0	8464	412185	0	0
2024-06-09 20:50:32			0	41809	0	0	0	26677	25280	121329	26982	1017571	41941	109886	0	0	8463	412584	0	0
2024-06-09 20:51:32			0	41803	0	0	0	26672	25280	121401	27211	1017571	41952	109884	0	0	8463	412783	0	0
2024-06-09 20:52:32			0	41822	0	0	0	26677	25270	121329	26800	1017553	41939	109886	0	0	8464	412176	0	0
2024-06-09 20:53:32			0	41809	0	0	0	26675	25280	121365	26738	1017552	41952	109885	0	0	8463	412584	0	0
2024-06-09 20:54:32			0	41811	0	0	0	26662	25270	121385	26885	1017553	41951	109880	0	0	8463	412541	0	0
2024-06-09 20:55:32			0	41814	0	0	0	26667	25260	121373	27267	1017518	41951	109882	0	0	8463	412465	0	0
2024-06-09 20:56:32			0	41819	0	0	0	26672	25280	121325	27187	1017571	41941	109884	0	0	8463	412252	0	0
2024-06-09 20:57:32			0	41832	0	0	0	26667	25270	121333	27381	1017562	41962	109882	0	0	8464	411844	0	0
2024-06-09 20:58:32			0	41824	0	0	0	26664	25280	121309	27078	1017544	41952	109881	0	0	8464	412086	0	0
2024-06-09 20:59:32			0	41852	0	0	0	26670	25270	121453	27476	1017527	41972	109883	0	0	8465	411181	0	0
2024-06-09 21:00:32			0	41825	0	0	0	26664	25270	121329	26883	1017500	41951	109881	0	0	8464	412076	0	0
2024-06-09 21:01:32			0	41845	0	0	0	26657	25270	121317	27142	1017473	41951	109878	0	0	8465	411413	0	0
2024-06-09 21:02:32			0	41827	0	0	0	26667	25270	121325	27393	1017500	41951	109882	0	0	8464	412010	0	0
2024-06-09 21:03:32			0	41854	0	0	0	26664	25260	121301	27085	1017545	41961	109881	0	0	8465	411139	0	0
2024-06-09 21:04:32			0	41850	0	0	0	26670	25270	121209	26946	1017527	41951	109883	0	0	8465	411248	0	0
2024-06-09 21:05:32			0	41855	0	0	0	26680	25270	121153	27272	1017535	41962	109887	0	0	8465	411082	0	0
2024-06-09 21:06:32			0	41852	0	0	0	26675	25270	121209	27319	1017473	41961	109885	0	0	8465	411181	0	0
2024-06-09 21:07:32			0	41859	0	0	0	26667	25270	121245	27012	1017446	41961	109882	0	0	8466	410950	0	0
2024-06-09 21:08:32			0	41881	0	0	0	26662	25260	121273	26710	1017509	41960	109880	0	0	8467	410245	0	0
2024-06-09 21:09:32			0	41854	0	0	0	26667	25250	121205	26776	1017554	41971	109882	0	0	8465	411162	0	0
2024-06-09 21:10:32			0	41856	0	0	0	26664	25260	121161	27022	1017456	41950	109881	0	0	8466	411072	0	0
2024-06-09 21:11:32			0	41866	0	0	0	26662	25270	121193	26875	1017527	41951	109880	0	0	8466	410718	0	0
2024-06-09 21:12:32			0	41884	0	0	0	26662	25260	121221	27140	1017518	41951	109880	0	0	8467	410145	0	0
2024-06-09 21:13:32			0	41881	0	0	0	26662	25260	121197	27279	1017491	41961	109880	0	0	8467	410245	0	0
2024-06-09 21:14:32			0	41872	0	0	0	26662	25260	121229	27147	1017509	41960	109880	0	0	8466	410543	0	0
2024-06-09 21:15:32			0	41887	0	0	0	26667	25260	121237	27145	1017491	41951	109882	0	0	8467	410046	0	0
2024-06-09 21:16:32			0	41904	0	0	0	26659	25250	121269	27180	1017492	41959	109879	0	0	8468	409507	0	0
2024-06-09 21:17:32			0	41894	0	0	0	26659	25260	121185	27140	1017545	41951	109879	0	0	8468	409815	0	0
2024-06-09 21:18:32			0	41880	0	0	0	26659	25260	121181	27227	1017572	41961	109879	0	0	8467	410278	0	0
2024-06-09 21:19:32			0	41901	0	0	0	26654	25250	121109	26965	1017519	41970	109877	0	0	8468	409606	0	0
2024-06-09 21:20:32			0	41887	0	0	0	26651	25250	121181	27289	1017492	41959	109876	0	0	8467	410069	0	0
2024-06-09 21:21:32			0	41895	0	0	0	26649	25250	121149	26706	1017474	41960	109875	0	0	8468	409805	0	0
2024-06-09 21:22:32			0	41891	0	0	0	26649	25250	121221	26748	1017474	41960	109875	0	0	8468	409937	0	0
2024-06-09 21:23:32			0	41885	0	0	0	26649	25240	121085	27126	1017430	41959	109875	0	0	8467	410159	0	0
2024-06-09 21:24:32			0	41893	0	0	0	26644	25240	121257	27116	1017448	41936	109873	0	0	8468	409894	0	0
2024-06-09 21:25:32			0	41877	0	0	0	26644	25240	121221	27265	1017430	41949	109873	0	0	8467	410424	0	0
2024-06-09 21:26:32			0	41907	0	0	0	26651	25240	121157	27296	1017502	41948	109876	0	0	8468	409431	0	0
2024-06-09 21:27:32			0	41909	0	0	0	26651	25240	121105	27003	1017457	41937	109876	0	0	8469	409365	0	0
2024-06-09 21:28:32			0	41875	0	0	0	26646	25240	121197	27067	1017457	41959	109874	0	0	8467	410490	0	0
2024-06-09 21:29:32			0	41905	0	0	0	26641	25230	121165	26970	1017413	41958	109872	0	0	8468	409521	0	0
2024-06-09 21:30:32			0	41909	0	0	0	26646	25240	121237	27332	1017430	41949	109874	0	0	8469	409365	0	0
2024-06-09 21:31:32			0	41897	0	0	0	26641	25240	121225	27092	1017368	41958	109872	0	0	8468	409762	0	0
2024-06-09 21:32:32			0	41901	0	0	0	26633	25240	121245	27100	1017341	41936	109869	0	0	8468	409630	0	0
2024-06-09 21:33:32			0	41908	0	0	0	26633	25230	121137	26844	1017467	41958	109869	0	0	8469	409421	0	0
2024-06-09 21:34:32			0	41914	0	0	0	26633	25240	121153	26811	1017368	41958	109869	0	0	8469	409200	0	0
2024-06-09 21:35:32			0	41921	0	0	0	26623	25230	121085	27079	1017351	41947	109865	0	0	8470	408992	0	0
2024-06-09 21:36:32			0	41917	0	0	0	26623	25220	121069	26937	1017342	41947	109865	0	0	8469	409147	0	0
2024-06-09 21:37:32			0	41916	0	0	0	26631	25230	121197	27045	1017378	41947	109868	0	0	8469	409157	0	0
2024-06-09 21:38:32			0	41939	0	0	0	26625	25230	121257	27064	1017378	41958	109866	0	0	8471	408397	0	0
2024-06-09 21:39:32			0	41920	0	0	0	26618	25220	121117	26831	1017280	41957	109863	0	0	8470	409048	0	0
2024-06-09 21:40:32			0	41920	0	0	0	26618	25220	121097	27175	1017342	41947	109863	0	0	8470	409048	0	0
2024-06-09 21:41:32			0	41924	0	0	0	26620	25230	121161	26892	1017378	41947	109864	0	0	8470	408893	0	0
2024-06-09 21:42:32			0	41945	0	0	0	26623	25210	121161	26963	1017325	41956	109865	0	0	8471	408245	0	0
2024-06-09 21:43:32			0	41926	0	0	0	26631	25230	121105	26930	1017404	41958	109868	0	0	8470	408827	0	0
2024-06-09 21:44:32			0	41909	0	0	0	26636	25230	121117	26838	1017378	41980	109870	0	0	8469	409388	0	0
2024-06-09 21:45:32			0	41928	0	0	0	26631	25230	121177	26854	1017431	41958	109868	0	0	8470	408760	0	0
2024-06-09 21:46:32			0	41929	0	0	0	26633	25240	121145	27121	1017448	41958	109869	0	0	8470	408704	0	0
2024-06-09 21:47:32			0	41913	0	0	0	26631	25230	121197	27196	1017378	41958	109868	0	0	8469	409256	0	0
2024-06-09 21:48:32			0	41938	0	0	0	26646	25230	121149	26899	1017404	41958	109874	0	0	8470	408430	0	0
2024-06-09 21:49:32			0	41931	0	0	0	26638	25230	121125	27135	1017431	41969	109871	0	0	8470	408661	0	0
2024-06-09 21:50:32			0	41917	0	0	0	26638	25240	121109	26734	1017422	41936	109871	0	0	8469	409101	0	0
2024-06-09 21:51:32			0	41917	0	0	0	26636	25230	121037	27424	1017386	41948	109870	0	0	8469	409124	0	0
2024-06-09 21:52:32			0	41927	0	0	0	26638	25240	121069	27097	1017430	41949	109871	0	0	8470	408770	0	0
2024-06-09 21:53:32			0	41919	0	0	0	26633	25230	121077	27038	1017413	41958	109869	0	0	8469	409058	0	0
2024-06-09 21:54:32			0	41942	0	0	0	26641	25230	121061	27107	1017378	41947	109872	0	0	8470	408298	0	0
2024-06-09 21:55:32			0	41940	0	0	0	26631	25230	121097	26783	1017386	41936	109868	0	0	8470	408364	0	0
2024-06-09 21:56:32			0	41940	0	0	0	26633	25230	121109	27248	1017324	41936	109869	0	0	8470	408364	0	0
2024-06-09 21:57:32			0	41926	0	0	0	26628	25230	121049	26781	1017351	41969	109867	0	0	8470	408827	0	0
2024-06-09 21:58:32			0	41940	0	0	0	26628	25230	121109	26956	1017386	41958	109867	0	0	8471	408364	0	0
2024-06-09 21:59:32			0	41923	0	0	0	26631	25230	121097	27033	1017351	41947	109868	0	0	8470	408926	0	0
2024-06-09 22:00:32			0	41929	0	0	0	26623	25210	121077	27345	1017316	41956	109865	0	0	8470	408774	0	0
2024-06-09 22:01:32			0	41922	0	0	0	26612	25220	121117	26745	1017280	41946	109861	0	0	8470	408982	0	0
2024-06-09 22:02:32			0	41921	0	0	0	26615	25210	121077	27313	1017272	41945	109862	0	0	8470	409038	0	0
2024-06-09 22:03:32			0	41928	0	0	0	26620	25200	121117	26932	1017281	41945	109864	0	0	8470	408830	0	0
2024-06-09 22:04:32			0	41915	0	0	0	26607	25210	121145	27057	1017245	41945	109859	0	0	8469	409237	0	0
2024-06-09 22:05:32			0	41919	0	0	0	26610	25210	121125	27119	1017290	41967	109860	0	0	8470	409104	0	0
2024-06-09 22:06:32			0	41921	0	0	0	26607	25210	121069	26852	1017191	41967	109859	0	0	8470	409038	0	0
2024-06-09 22:07:32			0	41949	0	0	0	26605	25210	121109	27027	1017290	41956	109858	0	0	8471	408113	0	0
2024-06-09 22:08:32			0	41919	0	0	0	26607	25210	121161	26953	1017263	41956	109859	0	0	8470	409104	0	0
2024-06-09 22:09:32			0	41918	0	0	0	26612	25200	121181	26963	1017254	41945	109861	0	0	8469	409161	0	0
2024-06-09 22:10:32			0	41917	0	0	0	26610	25220	121181	27114	1017227	41957	109860	0	0	8470	409147	0	0
2024-06-09 22:11:32			0	41909	0	0	0	26599	25210	121189	27220	1017316	41956	109856	0	0	8469	409435	0	0
2024-06-09 22:12:32			0	41911	0	0	0	26605	25210	121241	26946	1017290	41956	109858	0	0	8469	409369	0	0
2024-06-09 22:13:32			0	41914	0	0	0	26599	25210	121157	27213	1017263	41956	109856	0	0	8470	409269	0	0
2024-06-09 22:14:32			0	41898	0	0	0	26602	25200	121113	26788	1017273	41944	109857	0	0	8469	409822	0	0
2024-06-09 22:15:32			0	41928	0	0	0	26597	25210	121117	27123	1017209	41967	109855	0	0	8470	408807	0	0
2024-06-09 22:16:32			0	41898	0	0	0	26589	25200	121173	26890	1017254	41945	109852	0	0	8469	409822	0	0
2024-06-09 22:17:32			0	41915	0	0	0	26597	25190	121261	27241	1017237	41943	109855	0	0	8470	409283	0	0
2024-06-09 22:18:32			0	41908	0	0	0	26589	25200	121217	26939	1017273	41956	109852	0	0	8469	409491	0	0
2024-06-09 22:19:32			0	41896	0	0	0	26597	25200	121149	26745	1017219	41944	109855	0	0	8469	409888	0	0
2024-06-09 22:20:32			0	41920	0	0	0	26579	25190	121241	27147	1017264	41943	109848	0	0	8470	409118	0	0
2024-06-09 22:21:32			0	41916	0	0	0	26597	25190	121233	27088	1017210	41943	109855	0	0	8470	409250	0	0
2024-06-09 22:22:32			0	41901	0	0	0	26589	25190	121137	26833	1017184	41943	109852	0	0	8469	409746	0	0
2024-06-09 22:23:32			0	41885	0	0	0	26586	25200	121213	27119	1017246	41944	109851	0	0	8468	410252	0	0
2024-06-09 22:24:32			0	41903	0	0	0	26594	25200	121281	26684	1017192	41956	109854	0	0	8469	409656	0	0
2024-06-09 22:25:32			0	41902	0	0	0	26592	25180	121261	27114	1017148	41943	109853	0	0	8469	409736	0	0
2024-06-09 22:26:32			0	41908	0	0	0	26592	25180	121221	26892	1017202	41943	109853	0	0	8469	409538	0	0
2024-06-09 22:27:32			0	41906	0	0	0	26589	25190	121197	27027	1017210	41955	109852	0	0	8469	409581	0	0
2024-06-09 22:28:32			0	41909	0	0	0	26592	25190	121181	26975	1017210	41955	109853	0	0	8469	409481	0	0
2024-06-09 22:29:32			0	41918	0	0	0	26589	25180	121273	26922	1017202	41955	109852	0	0	8470	409207	0	0
2024-06-09 22:30:32			0	41895	0	0	0	26586	25190	121253	27202	1017210	41955	109851	0	0	8469	409944	0	0
2024-06-09 22:31:32			0	41896	0	0	0	26589	25180	121297	27320	1017166	41942	109852	0	0	8469	409935	0	0
2024-06-09 22:32:32			0	41886	0	0	0	26589	25190	121329	26823	1017237	41955	109852	0	0	8468	410242	0	0
2024-06-09 22:33:32			0	41881	0	0	0	26594	25190	121297	26963	1017237	41955	109854	0	0	8468	410408	0	0
2024-06-09 22:34:32			0	41896	0	0	0	26597	25200	121221	27060	1017246	41956	109855	0	0	8469	409888	0	0
2024-06-09 22:35:32			0	41885	0	0	0	26592	25190	121273	26934	1017237	41943	109853	0	0	8468	410275	0	0
2024-06-09 22:36:32			0	41884	0	0	0	26599	25180	121257	26762	1017175	41955	109856	0	0	8468	410332	0	0
2024-06-09 22:37:32			0	41882	0	0	0	26592	25180	121309	27118	1017148	41965	109853	0	0	8468	410398	0	0
2024-06-09 22:38:32			0	41873	0	0	0	26586	25180	121329	27211	1017229	41965	109851	0	0	8467	410696	0	0
2024-06-09 22:39:32			0	41877	0	0	0	26597	25180	121417	27003	1017202	41943	109855	0	0	8467	410564	0	0
2024-06-09 22:40:32			0	41894	0	0	0	26597	25190	121321	26785	1017237	41955	109855	0	0	8468	409977	0	0
2024-06-09 22:41:32			0	41870	0	0	0	26602	25200	121345	27216	1017273	41956	109857	0	0	8467	410749	0	0
2024-06-09 22:42:32			0	41891	0	0	0	26605	25200	121373	27090	1017326	41944	109858	0	0	8468	410053	0	0
2024-06-09 22:43:32			0	41868	0	0	0	26602	25200	121365	27137	1017273	41956	109857	0	0	8467	410815	0	0
2024-06-09 22:44:32			0	41872	0	0	0	26602	25190	121373	26802	1017210	41943	109857	0	0	8467	410706	0	0
2024-06-09 22:45:32			0	41871	0	0	0	26599	25190	121377	27097	1017264	41955	109856	0	0	8467	410739	0	0
2024-06-09 22:46:32			0	41886	0	0	0	26597	25200	121409	26998	1017192	41944	109855	0	0	8468	410219	0	0
2024-06-09 22:47:32			0	41871	0	0	0	26602	25180	121457	27116	1017229	41955	109857	0	0	8467	410762	0	0
2024-06-09 22:48:32			0	41868	0	0	0	26597	25190	121317	27046	1017210	41955	109855	0	0	8467	410838	0	0
2024-06-09 22:49:32			0	41849	0	0	0	26607	25200	121405	27166	1017281	41956	109859	0	0	8466	411444	0	0
2024-06-09 22:50:32			0	41861	0	0	0	26605	25200	121349	26958	1017219	41956	109858	0	0	8467	411047	0	0
2024-06-09 22:51:32			0	41849	0	0	0	26599	25190	121393	26967	1017237	41955	109856	0	0	8466	411468	0	0
2024-06-09 22:52:32			0	41854	0	0	0	26607	25200	121481	27067	1017228	41945	109859	0	0	8466	411279	0	0
2024-06-09 22:53:32			0	41862	0	0	0	26597	25200	121393	26887	1017165	41944	109855	0	0	8467	411014	0	0
2024-06-09 22:54:32			0	41862	0	0	0	26597	25180	121405	26909	1017229	41943	109855	0	0	8467	411060	0	0
2024-06-09 22:55:32			0	41873	0	0	0	26597	25190	121481	27111	1017237	41943	109855	0	0	8467	410673	0	0
2024-06-09 22:56:32			0	41857	0	0	0	26592	25190	121389	26963	1017237	41943	109853	0	0	8467	411203	0	0
2024-06-09 22:57:32			0	41844	0	0	0	26594	25180	121397	26899	1017220	41964	109854	0	0	8466	411657	0	0
2024-06-09 22:58:32			0	41831	0	0	0	26597	25200	121417	27024	1017219	41944	109855	0	0	8465	412041	0	0
2024-06-09 22:59:32			0	41860	0	0	0	26599	25180	121405	27157	1017202	41943	109856	0	0	8467	411126	0	0
2024-06-09 23:00:32			0	41852	0	0	0	26599	25180	121333	27100	1017202	41955	109856	0	0	8466	411391	0	0
2024-06-09 23:01:32			0	41836	0	0	0	26602	25190	121445	26779	1017264	41943	109857	0	0	8465	411899	0	0
2024-06-09 23:02:32			0	41859	0	0	0	26599	25180	121437	26930	1017202	41955	109856	0	0	8466	411160	0	0
2024-06-09 23:03:32			0	41852	0	0	0	26584	25200	121377	27138	1017165	41944	109850	0	0	8466	411345	0	0
2024-06-09 23:04:32			0	41841	0	0	0	26594	25190	121457	27112	1017237	41943	109854	0	0	8466	411733	0	0
2024-06-09 23:05:32			0	41838	0	0	0	26605	25180	121405	27216	1017255	41965	109858	0	0	8465	411856	0	0
2024-06-09 23:06:32			0	41833	0	0	0	26599	25180	121501	26833	1017255	41955	109856	0	0	8465	412021	0	0
2024-06-09 23:07:32			0	41831	0	0	0	26594	25200	121465	27086	1017246	41956	109854	0	0	8465	412041	0	0
2024-06-09 23:08:32			0	41824	0	0	0	26592	25190	121501	27038	1017157	41965	109853	0	0	8465	412297	0	0
2024-06-09 23:09:32			0	41835	0	0	0	26592	25180	121413	26974	1017140	41964	109853	0	0	8465	411955	0	0
2024-06-09 23:10:32			0	41832	0	0	0	26584	25200	121449	27147	1017192	41956	109850	0	0	8465	412008	0	0
2024-06-09 23:11:32			0	41838	0	0	0	26579	25180	121417	26989	1017121	41932	109848	0	0	8466	411856	0	0
2024-06-09 23:12:32			0	41811	0	0	0	26574	25180	121409	26779	1017113	41954	109846	0	0	8464	412752	0	0
2024-06-09 23:13:32			0	41847	0	0	0	26571	25170	121493	27239	1017050	41954	109845	0	0	8466	411581	0	0
2024-06-09 23:14:32			0	41797	0	0	0	26568	25170	121545	26961	1017077	41954	109844	0	0	8464	413240	0	0
2024-06-09 23:15:32			0	41808	0	0	0	26558	25170	121529	27102	1017024	41954	109840	0	0	8464	412875	0	0
2024-06-09 23:16:32			0	41818	0	0	0	26550	25160	121581	26896	1017078	41952	109837	0	0	8465	412566	0	0
2024-06-09 23:17:32			0	41832	0	0	0	26563	25150	121505	27074	1017096	41941	109842	0	0	8466	412125	0	0
2024-06-09 23:18:32			0	41799	0	0	0	26558	25170	121589	26750	1017095	41930	109840	0	0	8464	413173	0	0
2024-06-09 23:19:32			0	41823	0	0	0	26571	25160	121557	26989	1017140	41953	109845	0	0	8465	412400	0	0
2024-06-09 23:20:32			0	41803	0	0	0	26566	25150	121629	27010	1017096	41962	109843	0	0	8464	413087	0	0
2024-06-09 23:21:32			0	41802	0	0	0	26571	25160	121541	26760	1017051	41941	109845	0	0	8464	413097	0	0
2024-06-09 23:22:32			0	41794	0	0	0	26563	25160	121633	26892	1017060	41963	109842	0	0	8464	413363	0	0
2024-06-09 23:23:32			0	41783	0	0	0	26563	25160	121609	26911	1017087	41941	109842	0	0	8463	413728	0	0
2024-06-09 23:24:32			0	41786	0	0	0	26563	25160	121577	26866	1017033	41953	109842	0	0	8463	413629	0	0
2024-06-09 23:25:32			0	41809	0	0	0	26555	25150	121633	27085	1017016	41941	109839	0	0	8464	412888	0	0
2024-06-09 23:26:32			0	41782	0	0	0	26550	25150	121629	27017	1016981	41940	109837	0	0	8463	413785	0	0
2024-06-09 23:27:32			0	41785	0	0	0	26553	25150	121685	27277	1017034	41940	109838	0	0	8463	413685	0	0
2024-06-09 23:28:32			0	41784	0	0	0	26553	25150	121629	27190	1017008	41951	109838	0	0	8463	413719	0	0
2024-06-09 23:29:32			0	41752	0	0	0	26545	25150	121641	26916	1017008	41961	109835	0	0	8462	414783	0	0
2024-06-09 23:30:32			0	41761	0	0	0	26540	25140	121681	27116	1016990	41950	109833	0	0	8462	414507	0	0
2024-06-09 23:31:32			0	41762	0	0	0	26540	25140	121721	26764	1016972	41939	109833	0	0	8462	414474	0	0
2024-06-09 23:32:32			0	41747	0	0	0	26537	25140	121709	26915	1017017	41939	109832	0	0	8461	414973	0	0
2024-06-09 23:33:32			0	41748	0	0	0	26535	25140	121737	27111	1016999	41939	109831	0	0	8461	414940	0	0
2024-06-09 23:34:32			0	41739	0	0	0	26542	25150	121741	27022	1017008	41961	109834	0	0	8461	415216	0	0
2024-06-09 23:35:32			0	41755	0	0	0	26540	25140	121697	27024	1016990	41950	109833	0	0	8462	414706	0	0
2024-06-09 23:36:32			0	41733	0	0	0	26532	25140	121801	26700	1016937	41939	109830	0	0	8461	415439	0	0
2024-06-09 23:37:32			0	41717	0	0	0	26532	25140	121865	26894	1016964	41950	109830	0	0	8460	415972	0	0
2024-06-09 23:38:32			0	41739	0	0	0	26529	25130	121753	27008	1016982	41950	109829	0	0	8461	415263	0	0
2024-06-09 23:39:32			0	41735	0	0	0	26540	25130	121817	27142	1016955	41950	109833	0	0	8461	415396	0	0
2024-06-09 23:40:32			0	41720	0	0	0	26532	25130	121801	27093	1016982	41950	109830	0	0	8460	415896	0	0
2024-06-09 23:41:32			0	41738	0	0	0	26535	25130	121853	27130	1017009	41950	109831	0	0	8461	415296	0	0
2024-06-09 23:42:32			0	41730	0	0	0	26529	25130	121797	27128	1016955	41950	109829	0	0	8461	415562	0	0
2024-06-09 23:43:32			0	41720	0	0	0	26524	25130	121841	26890	1017000	41960	109827	0	0	8460	415896	0	0
2024-06-09 23:44:32			0	41726	0	0	0	26529	25140	121853	27239	1016990	41960	109829	0	0	8460	415672	0	0
2024-06-09 23:45:32			0	41726	0	0	0	26540	25140	121845	26719	1016964	41939	109833	0	0	8460	415672	0	0
2024-06-09 23:46:32			0	41729	0	0	0	26542	25130	121893	26844	1017000	41938	109834	0	0	8460	415596	0	0
2024-06-09 23:47:32			0	41734	0	0	0	26540	25140	121833	27223	1017097	41960	109833	0	0	8461	415406	0	0
2024-06-09 23:48:32			0	41740	0	0	0	26553	25140	121897	26965	1017044	41950	109838	0	0	8461	415206	0	0
2024-06-09 23:49:32			0	41748	0	0	0	26553	25150	121857	26902	1017088	41951	109838	0	0	8461	414916	0	0
2024-06-09 23:50:32			0	41717	0	0	0	26561	25140	121817	26606	1017079	41950	109841	0	0	8459	415972	0	0
2024-06-09 23:51:32			0	41715	0	0	0	26555	25140	121817	26942	1017106	41950	109839	0	0	8459	416039	0	0
2024-06-09 23:52:32			0	41724	0	0	0	26563	25150	121753	27100	1017096	41952	109842	0	0	8460	415715	0	0
2024-06-09 23:53:32			0	41725	0	0	0	26568	25150	121909	26680	1017008	41951	109844	0	0	8460	415682	0	0
2024-06-09 23:54:32			0	41728	0	0	0	26574	25150	121837	27109	1017070	41952	109846	0	0	8460	415582	0	0
2024-06-09 23:55:32			0	41714	0	0	0	26563	25160	121845	26953	1017140	41941	109842	0	0	8459	416025	0	0
2024-06-09 23:56:32			0	41710	0	0	0	26561	25150	121933	26925	1017096	41952	109841	0	0	8459	416182	0	0
2024-06-09 23:57:32			0	41728	0	0	0	26568	25160	121865	26927	1017159	41952	109844	0	0	8460	415558	0	0
2024-06-09 23:58:32			0	41708	0	0	0	26574	25150	121877	26802	1017096	41962	109846	0	0	8459	416248	0	0
2024-06-09 23:59:32			0	41694	0	0	0	26566	25150	121817	26767	1017096	41962	109843	0	0	8458	416715	0	0
2024-06-10 00:00:32			0	41706	0	0	0	26574	25160	121845	27222	1017159	41952	109846	0	0	8459	416291	0	0
2024-06-10 00:01:32			0	41705	0	0	0	26574	25160	121933	27208	1017140	41953	109846	0	0	8459	416325	0	0
2024-06-10 00:02:32			0	41688	0	0	0	26566	25160	121957	26948	1017105	41941	109843	0	0	8458	416892	0	0
2024-06-10 00:03:32			0	41657	0	0	0	26568	25160	121945	27078	1017185	41952	109844	0	0	8456	417926	0	0
2024-06-10 00:04:32			0	41683	0	0	0	26568	25160	121953	27161	1017140	41953	109844	0	0	8458	417059	0	0
2024-06-10 00:05:32			0	41677	0	0	0	26574	25170	122089	27145	1017149	41963	109846	0	0	8457	417235	0	0
2024-06-10 00:06:32			0	41672	0	0	0	26571	25170	121949	27144	1017149	41941	109845	0	0	8457	417402	0	0
2024-06-10 00:07:32			0	41662	0	0	0	26574	25160	122037	26975	1017140	41953	109846	0	0	8456	417759	0	0
2024-06-10 00:08:32			0	41667	0	0	0	26581	25170	122025	27319	1017158	41954	109849	0	0	8457	417569	0	0
2024-06-10 00:09:32			0	41664	0	0	0	26574	25170	122057	26927	1017211	41964	109846	0	0	8456	417669	0	0
2024-06-10 00:10:32			0	41640	0	0	0	26576	25160	122029	26941	1017167	41941	109847	0	0	8455	418494	0	0
2024-06-10 00:11:32			0	41648	0	0	0	26576	25160	122041	26937	1017167	41963	109847	0	0	8456	418227	0	0
2024-06-10 00:12:32			0	41647	0	0	0	26568	25160	122025	27206	1017140	41941	109844	0	0	8456	418261	0	0
2024-06-10 00:13:32			0	41659	0	0	0	26568	25160	121997	27074	1017105	41962	109844	0	0	8456	417860	0	0
2024-06-10 00:14:32			0	41667	0	0	0	26561	25160	121997	26993	1017060	41963	109841	0	0	8457	417593	0	0
2024-06-10 00:15:32			0	41648	0	0	0	26561	25160	122089	27098	1017159	41962	109841	0	0	8456	418227	0	0
2024-06-10 00:16:32			0	41650	0	0	0	26558	25150	122017	27145	1017123	41941	109840	0	0	8456	418184	0	0
2024-06-10 00:17:32			0	41643	0	0	0	26558	25160	122085	26830	1017132	41974	109840	0	0	8456	418394	0	0
2024-06-10 00:18:32			0	41620	0	0	0	26568	25160	122049	27097	1017051	41941	109844	0	0	8454	419163	0	0
2024-06-10 00:19:32			0	41630	0	0	0	26561	25150	122025	26745	1017043	41941	109841	0	0	8455	418852	0	0
2024-06-10 00:20:32			0	41618	0	0	0	26555	25160	122101	26859	1017159	41962	109839	0	0	8454	419230	0	0
2024-06-10 00:21:32			0	41622	0	0	0	26558	25160	122029	27192	1017105	41952	109840	0	0	8454	419096	0	0
2024-06-10 00:22:32			0	41609	0	0	0	26550	25140	122137	27194	1017053	41950	109837	0	0	8454	419579	0	0
2024-06-10 00:23:32			0	41621	0	0	0	26540	25150	122169	27209	1017016	41952	109833	0	0	8455	419153	0	0
2024-06-10 00:24:32			0	41608	0	0	0	26537	25140	122093	27152	1016999	41950	109832	0	0	8454	419612	0	0
2024-06-10 00:25:32			0	41600	0	0	0	26535	25150	122109	26949	1017034	41951	109831	0	0	8454	419856	0	0
2024-06-10 00:26:32			0	41615	0	0	0	26529	25140	122129	26769	1016990	41950	109829	0	0	8455	419378	0	0
2024-06-10 00:27:32			0	41599	0	0	0	26532	25130	122185	26791	1017009	41950	109830	0	0	8454	419937	0	0
2024-06-10 00:28:32			0	41582	0	0	0	26519	25140	122081	26812	1017017	41950	109825	0	0	8453	420483	0	0
2024-06-10 00:29:32			0	41611	0	0	0	26524	25130	122185	27187	1016920	41949	109827	0	0	8454	419536	0	0
2024-06-10 00:30:32			0	41593	0	0	0	26522	25130	122181	27041	1016920	41949	109826	0	0	8453	420138	0	0
2024-06-10 00:31:32			0	41610	0	0	0	26519	25120	122193	26979	1016911	41948	109825	0	0	8454	419593	0	0
2024-06-10 00:32:32			0	41601	0	0	0	26519	25130	122181	27033	1016920	41960	109825	0	0	8454	419870	0	0
2024-06-10 00:33:32			0	41615	0	0	0	26522	25120	122237	27166	1016876	41959	109826	0	0	8455	419426	0	0
2024-06-10 00:34:32			0	41587	0	0	0	26519	25120	122261	27060	1016938	41959	109825	0	0	8453	420363	0	0
2024-06-10 00:35:32			0	41602	0	0	0	26511	25120	122193	27177	1016876	41948	109822	0	0	8454	419861	0	0
2024-06-10 00:36:32			0	41598	0	0	0	26511	25120	122245	27144	1016929	41937	109822	0	0	8454	419995	0	0
2024-06-10 00:37:32			0	41579	0	0	0	26511	25110	122189	27336	1016859	41947	109822	0	0	8453	420655	0	0
2024-06-10 00:38:32			0	41591	0	0	0	26498	25110	122193	26830	1016832	41947	109817	0	0	8454	420253	0	0
2024-06-10 00:39:32			0	41588	0	0	0	26493	25110	122093	27053	1016859	41947	109815	0	0	8454	420353	0	0
2024-06-10 00:40:32			0	41603	0	0	0	26496	25110	122197	26755	1016867	41948	109816	0	0	8454	419851	0	0
2024-06-10 00:41:32			0	41591	0	0	0	26490	25110	122237	26963	1016912	41925	109814	0	0	8454	420253	0	0
2024-06-10 00:42:32			0	41598	0	0	0	26496	25110	122177	27163	1016814	41959	109816	0	0	8454	420018	0	0
2024-06-10 00:43:32			0	41600	0	0	0	26488	25100	122221	26925	1016796	41946	109813	0	0	8454	419975	0	0
2024-06-10 00:44:32			0	41598	0	0	0	26488	25100	122225	27067	1016930	41958	109813	0	0	8454	420042	0	0
2024-06-10 00:45:32			0	41591	0	0	0	26493	25090	122245	26889	1016851	41934	109815	0	0	8454	420300	0	0
2024-06-10 00:46:32			0	41607	0	0	0	26496	25090	122225	27071	1016833	41935	109816	0	0	8454	419765	0	0
2024-06-10 00:47:32			0	41582	0	0	0	26493	25090	122237	26915	1016779	41935	109815	0	0	8453	420602	0	0
2024-06-10 00:48:32			0	41594	0	0	0	26496	25100	122213	27062	1016796	41968	109816	0	0	8454	420176	0	0
2024-06-10 00:49:32			0	41589	0	0	0	26490	25090	122241	26741	1016753	41946	109814	0	0	8454	420368	0	0
2024-06-10 00:50:32			0	41584	0	0	0	26498	25090	122265	26831	1016833	41958	109817	0	0	8453	420535	0	0
2024-06-10 00:51:32			0	41573	0	0	0	26493	25090	122313	27105	1016806	41946	109815	0	0	8453	420904	0	0
2024-06-10 00:52:32			0	41615	0	0	0	26496	25100	122237	27133	1016815	41946	109816	0	0	8455	419473	0	0
2024-06-10 00:53:32			0	41603	0	0	0	26498	25100	122249	27211	1016823	41968	109817	0	0	8454	419875	0	0
2024-06-10 00:54:32			0	41570	0	0	0	26503	25090	122273	26951	1016833	41958	109819	0	0	8452	421004	0	0
2024-06-10 00:55:32			0	41577	0	0	0	26514	25100	122265	27270	1016895	41958	109823	0	0	8453	420746	0	0
2024-06-10 00:56:32			0	41579	0	0	0	26516	25100	122221	27133	1016895	41946	109824	0	0	8453	420679	0	0
2024-06-10 00:57:32			0	41572	0	0	0	26514	25100	122261	27216	1016877	41958	109823	0	0	8452	420913	0	0
2024-06-10 00:58:32			0	41592	0	0	0	26519	25100	122201	26833	1016877	41958	109825	0	0	8453	420243	0	0
2024-06-10 00:59:32			0	41569	0	0	0	26522	25110	122257	27001	1016912	41969	109826	0	0	8452	420990	0	0
2024-06-10 01:00:32			0	41569	0	0	0	26527	25100	122281	26878	1016877	41958	109828	0	0	8452	421014	0	0
2024-06-10 01:01:32			0	41572	0	0	0	26524	25120	122289	26682	1016956	41959	109827	0	0	8452	420866	0	0
2024-06-10 01:02:32			0	41591	0	0	0	26524	25110	122245	26667	1016894	41948	109827	0	0	8453	420253	0	0
2024-06-10 01:03:32			0	41577	0	0	0	26527	25110	122209	26876	1016947	41959	109828	0	0	8452	420722	0	0
2024-06-10 01:04:32			0	41559	0	0	0	26535	25110	122229	27036	1016947	41959	109831	0	0	8451	421325	0	0
2024-06-10 01:05:32			0	41566	0	0	0	26524	25130	122261	26618	1016973	41949	109827	0	0	8452	421043	0	0
2024-06-10 01:06:32			0	41565	0	0	0	26535	25120	122209	26706	1016956	41948	109831	0	0	8452	421100	0	0
2024-06-10 01:07:32			0	41559	0	0	0	26527	25110	122253	26967	1016947	41959	109828	0	0	8451	421325	0	0
2024-06-10 01:08:32			0	41574	0	0	0	26529	25110	122341	26837	1016966	41958	109829	0	0	8452	420822	0	0
2024-06-10 01:09:32			0	41561	0	0	0	26524	25120	122305	27053	1016903	41948	109827	0	0	8452	421234	0	0
2024-06-10 01:10:32			0	41540	0	0	0	26532	25110	122293	26819	1016947	41948	109830	0	0	8450	421963	0	0
2024-06-10 01:11:32			0	41554	0	0	0	26527	25120	122257	27121	1016903	41959	109828	0	0	8451	421469	0	0
2024-06-10 01:12:32			0	41553	0	0	0	26527	25120	122385	26830	1016956	41948	109828	0	0	8451	421503	0	0
2024-06-10 01:13:32			0	41548	0	0	0	26532	25120	122313	27055	1016911	41959	109830	0	0	8451	421670	0	0
2024-06-10 01:14:32			0	41543	0	0	0	26524	25120	122337	26537	1016929	41959	109827	0	0	8451	421838	0	0
2024-06-10 01:15:32			0	41528	0	0	0	26524	25120	122309	27178	1016903	41948	109827	0	0	8450	422342	0	0
2024-06-10 01:16:32			0	41538	0	0	0	26516	25120	122417	26850	1016965	41948	109824	0	0	8451	422006	0	0
2024-06-10 01:17:32			0	41529	0	0	0	26522	25120	122393	26644	1016903	41948	109826	0	0	8450	422308	0	0
2024-06-10 01:18:32			0	41521	0	0	0	26516	25110	122477	26915	1016840	41948	109824	0	0	8450	422601	0	0
2024-06-10 01:19:32			0	41508	0	0	0	26514	25100	122489	26824	1016930	41958	109823	0	0	8449	423062	0	0
2024-06-10 01:20:32			0	41510	0	0	0	26514	25110	122465	26684	1016867	41948	109823	0	0	8449	422970	0	0
2024-06-10 01:21:32			0	41526	0	0	0	26516	25110	122449	26902	1016921	41937	109824	0	0	8450	422433	0	0
2024-06-10 01:22:32			0	41509	0	0	0	26506	25100	122405	26941	1016850	41958	109820	0	0	8449	423028	0	0
2024-06-10 01:23:32			0	41501	0	0	0	26503	25100	122501	26835	1016850	41958	109819	0	0	8449	423297	0	0
2024-06-10 01:24:32			0	41510	0	0	0	26496	25100	122485	27190	1016877	41958	109816	0	0	8449	422994	0	0
2024-06-10 01:25:32			0	41518	0	0	0	26501	25100	122457	27218	1016850	41958	109818	0	0	8450	422726	0	0
2024-06-10 01:26:32			0	41495	0	0	0	26498	25100	122577	26828	1016877	41968	109817	0	0	8449	423499	0	0
2024-06-10 01:27:32			0	41465	0	0	0	26503	25100	122481	26942	1016850	41946	109819	0	0	8447	424508	0	0
2024-06-10 01:28:32			0	41511	0	0	0	26501	25100	122513	26809	1016868	41958	109818	0	0	8449	422961	0	0
2024-06-10 01:29:32			0	41485	0	0	0	26496	25100	122493	26896	1016841	41958	109816	0	0	8448	423835	0	0
2024-06-10 01:30:32			0	41488	0	0	0	26514	25110	122521	26830	1016885	41947	109823	0	0	8448	423710	0	0
2024-06-10 01:31:32			0	41474	0	0	0	26524	25100	122501	26987	1016975	41958	109827	0	0	8447	424205	0	0
2024-06-10 01:32:32			0	41501	0	0	0	26532	25110	122557	26746	1016912	41947	109830	0	0	8448	423273	0	0
2024-06-10 01:33:32			0	41487	0	0	0	26535	25120	122485	26765	1017010	41970	109831	0	0	8448	423720	0	0
2024-06-10 01:34:32			0	41477	0	0	0	26550	25120	122469	26722	1017018	41948	109837	0	0	8447	424056	0	0
2024-06-10 01:35:32			0	41480	0	0	0	26558	25130	122545	27059	1017009	41950	109840	0	0	8447	423931	0	0
2024-06-10 01:36:32			0	41474	0	0	0	26561	25120	122433	26847	1017117	41959	109841	0	0	8446	424157	0	0
2024-06-10 01:37:32			0	41473	0	0	0	26550	25120	122521	26734	1017045	41959	109837	0	0	8447	424190	0	0
2024-06-10 01:38:32			0	41477	0	0	0	26558	25120	122541	27079	1017045	41959	109840	0	0	8447	424056	0	0
2024-06-10 01:39:32			0	41470	0	0	0	26537	25120	122533	26733	1016965	41959	109832	0	0	8447	424291	0	0
2024-06-10 01:40:32			0	41471	0	0	0	26535	25120	122521	27111	1016965	41970	109831	0	0	8447	424258	0	0
2024-06-10 01:41:32			0	41475	0	0	0	26529	25110	122577	27124	1016947	41959	109829	0	0	8447	424147	0	0
2024-06-10 01:42:32			0	41475	0	0	0	26550	25120	122517	26809	1017036	41948	109837	0	0	8447	424123	0	0
2024-06-10 01:43:32			0	41469	0	0	0	26553	25130	122477	26892	1017054	41971	109838	0	0	8446	424301	0	0
2024-06-10 01:44:32			0	41477	0	0	0	26558	25120	122517	26882	1016991	41970	109840	0	0	8447	424056	0	0
2024-06-10 01:45:32			0	41483	0	0	0	26550	25120	122461	27081	1017018	41959	109837	0	0	8447	423854	0	0
2024-06-10 01:46:32			0	41482	0	0	0	26558	25120	122605	26885	1016991	41959	109840	0	0	8447	423888	0	0
2024-06-10 01:47:32			0	41488	0	0	0	26555	25130	122697	27209	1017000	41971	109839	0	0	8447	423662	0	0
2024-06-10 01:48:32			0	41476	0	0	0	26563	25130	122633	27007	1017035	41960	109842	0	0	8447	424065	0	0
2024-06-10 01:49:32			0	41462	0	0	0	26561	25140	122561	26961	1017133	41972	109841	0	0	8446	424512	0	0
2024-06-10 01:50:32			0	41457	0	0	0	26576	25140	122593	26958	1017160	41960	109847	0	0	8445	424681	0	0
2024-06-10 01:51:32			0	41456	0	0	0	26592	25150	122621	26772	1017222	41973	109853	0	0	8445	424690	0	0
2024-06-10 01:52:32			0	41459	0	0	0	26594	25160	122697	26890	1017247	41986	109854	0	0	8445	424565	0	0
2024-06-10 01:53:32			0	41442	0	0	0	26610	25160	122621	27033	1017301	41963	109860	0	0	8444	425138	0	0
2024-06-10 01:54:32			0	41430	0	0	0	26605	25170	122696	26776	1017256	41986	109858	0	0	8444	425518	0	0
2024-06-10 01:55:32			0	41413	0	0	0	26605	25170	122656	27119	1017203	41986	109858	0	0	8443	426091	0	0
2024-06-10 01:56:32			0	41417	0	0	0	26610	25170	122644	27114	1017265	41954	109860	0	0	8443	425956	0	0
2024-06-10 01:57:32			0	41420	0	0	0	26610	25180	122704	27041	1017327	41964	109860	0	0	8443	425831	0	0
2024-06-10 01:58:32			0	41429	0	0	0	26618	25170	122712	26798	1017265	41954	109863	0	0	8443	425552	0	0
2024-06-10 01:59:32			0	41423	0	0	0	26615	25180	122716	26913	1017309	41976	109862	0	0	8443	425730	0	0
2024-06-10 02:00:32			0	41411	0	0	0	26618	25190	122724	27177	1017291	41976	109863	0	0	8442	426110	0	0
2024-06-10 02:01:32			0	41408	0	0	0	26615	25180	122816	27164	1017362	41965	109862	0	0	8442	426235	0	0
2024-06-10 02:02:32			0	41395	0	0	0	26618	25200	122820	26904	1017361	41978	109863	0	0	8442	426625	0	0
2024-06-10 02:03:32			0	41407	0	0	0	26620	25200	122860	26960	1017335	41978	109864	0	0	8442	426221	0	0
2024-06-10 02:04:32			0	41369	0	0	0	26618	25190	122804	27190	1017344	41976	109863	0	0	8440	427527	0	0
2024-06-10 02:05:32			0	41371	0	0	0	26628	25200	122872	27121	1017353	41977	109867	0	0	8440	427436	0	0
2024-06-10 02:06:32			0	41377	0	0	0	26620	25210	122876	27059	1017397	41989	109864	0	0	8441	427209	0	0
2024-06-10 02:07:32			0	41353	0	0	0	26631	25200	122924	27135	1017460	41977	109868	0	0	8439	428044	0	0
2024-06-10 02:08:32			0	41336	0	0	0	26633	25200	122760	27107	1017442	41967	109869	0	0	8438	428618	0	0
2024-06-10 02:09:32			0	41368	0	0	0	26633	25220	123016	26942	1017414	41990	109869	0	0	8440	427488	0	0
2024-06-10 02:10:32			0	41340	0	0	0	26638	25210	122956	27017	1017424	41978	109871	0	0	8438	428459	0	0
2024-06-10 02:11:32			0	41326	0	0	0	26638	25220	122964	27066	1017503	41969	109871	0	0	8438	428908	0	0
2024-06-10 02:12:32			0	41336	0	0	0	26644	25220	122868	26863	1017449	41980	109873	0	0	8438	428570	0	0
2024-06-10 02:13:32			0	41339	0	0	0	26644	25220	122840	27088	1017476	41969	109873	0	0	8438	428468	0	0
2024-06-10 02:14:32			0	41351	0	0	0	26646	25220	122848	26684	1017503	41980	109874	0	0	8439	428063	0	0
2024-06-10 02:15:32			0	41315	0	0	0	26654	25220	122884	26982	1017449	41980	109877	0	0	8437	429280	0	0
2024-06-10 02:16:32			0	41318	0	0	0	26649	25230	122960	27355	1017485	41958	109875	0	0	8437	429154	0	0
2024-06-10 02:17:32			0	41316	0	0	0	26649	25230	122908	26968	1017511	41969	109875	0	0	8437	429222	0	0
2024-06-10 02:18:32			0	41327	0	0	0	26654	25230	122828	26955	1017467	41970	109877	0	0	8438	428850	0	0
2024-06-10 02:19:32			0	41325	0	0	0	26644	25230	122928	27208	1017485	41969	109873	0	0	8438	428917	0	0
2024-06-10 02:20:32			0	41326	0	0	0	26649	25230	122884	26856	1017511	41980	109875	0	0	8438	428884	0	0
2024-06-10 02:21:32			0	41324	0	0	0	26646	25230	122984	27131	1017538	41958	109874	0	0	8437	428951	0	0
2024-06-10 02:22:32			0	41325	0	0	0	26644	25230	122972	26989	1017458	41980	109873	0	0	8438	428917	0	0
2024-06-10 02:23:32			0	41323	0	0	0	26644	25230	122924	27112	1017493	41958	109873	0	0	8437	428985	0	0
2024-06-10 02:24:32			0	41311	0	0	0	26646	25240	122876	26868	1017529	41970	109874	0	0	8437	429367	0	0
2024-06-10 02:25:32			0	41314	0	0	0	26654	25240	122964	27272	1017537	41982	109877	0	0	8437	429265	0	0
2024-06-10 02:26:32			0	41304	0	0	0	26654	25240	122916	26928	1017582	41970	109877	0	0	8436	429604	0	0
2024-06-10 02:27:32			0	41318	0	0	0	26649	25240	122944	27255	1017448	41992	109875	0	0	8437	429130	0	0
2024-06-10 02:28:32			0	41309	0	0	0	26664	25250	122964	27206	1017599	41970	109881	0	0	8436	429410	0	0
2024-06-10 02:29:32			0	41292	0	0	0	26657	25240	122996	26694	1017609	41970	109878	0	0	8436	430010	0	0
2024-06-10 02:30:32			0	41296	0	0	0	26664	25250	123028	26996	1017626	41959	109881	0	0	8436	429850	0	0
2024-06-10 02:31:32			0	41264	0	0	0	26664	25250	123024	26871	1017599	41993	109881	0	0	8434	430934	0	0
2024-06-10 02:32:32			0	41272	0	0	0	26667	25250	123008	26667	1017626	41982	109882	0	0	8434	430663	0	0
2024-06-10 02:33:32			0	41267	0	0	0	26657	25240	123040	27128	1017591	41970	109878	0	0	8434	430857	0	0
2024-06-10 02:34:32			0	41279	0	0	0	26664	25250	123020	27201	1017599	41993	109881	0	0	8435	430426	0	0
2024-06-10 02:35:32			0	41246	0	0	0	26672	25250	123120	27265	1017635	41971	109884	0	0	8433	431545	0	0
2024-06-10 02:36:32			0	41237	0	0	0	26664	25250	123216	27008	1017635	41983	109881	0	0	8433	431850	0	0
2024-06-10 02:37:32			0	41226	0	0	0	26675	25250	123212	27100	1017626	41982	109885	0	0	8432	432224	0	0
2024-06-10 02:38:32			0	41219	0	0	0	26672	25260	123260	27031	1017572	41984	109884	0	0	8432	432437	0	0
2024-06-10 02:39:32			0	41224	0	0	0	26675	25260	123328	26984	1017670	41960	109885	0	0	8432	432267	0	0
2024-06-10 02:40:32			0	41198	0	0	0	26667	25260	123300	26934	1017670	41994	109882	0	0	8431	433150	0	0
2024-06-10 02:41:32			0	41201	0	0	0	26683	25260	123328	26859	1017643	41971	109888	0	0	8431	433048	0	0
2024-06-10 02:42:32			0	41182	0	0	0	26677	25260	123328	27111	1017724	41983	109886	0	0	8430	433694	0	0
2024-06-10 02:43:32			0	41174	0	0	0	26675	25260	123336	26852	1017670	41983	109885	0	0	8429	433967	0	0
2024-06-10 02:44:32			0	41164	0	0	0	26683	25260	123356	27145	1017643	41983	109888	0	0	8429	434307	0	0
2024-06-10 02:45:32			0	41151	0	0	0	26675	25270	123356	26911	1017714	41972	109885	0	0	8428	434725	0	0
2024-06-10 02:46:32			0	41144	0	0	0	26677	25260	123400	27149	1017724	41983	109886	0	0	8428	434988	0	0
2024-06-10 02:47:32			0	41133	0	0	0	26683	25260	123444	27059	1017679	41984	109888	0	0	8427	435363	0	0
2024-06-10 02:48:32			0	41136	0	0	0	26680	25270	123380	26948	1017661	41984	109887	0	0	8427	435236	0	0
2024-06-10 02:49:32			0	41125	0	0	0	26675	25260	123508	27045	1017697	41971	109885	0	0	8427	435636	0	0
2024-06-10 02:50:32			0	41101	0	0	0	26672	25260	123564	27218	1017705	41984	109884	0	0	8425	436454	0	0
2024-06-10 02:51:32			0	41132	0	0	0	26688	25260	123524	26701	1017652	41995	109890	0	0	8427	435397	0	0
2024-06-10 02:52:32			0	41092	0	0	0	26680	25260	123568	26760	1017732	41972	109887	0	0	8425	436761	0	0
2024-06-10 02:53:32			0	41115	0	0	0	26664	25260	123560	27017	1017679	41984	109881	0	0	8426	435976	0	0
2024-06-10 02:54:32			0	41098	0	0	0	26672	25260	123620	26932	1017705	41984	109884	0	0	8425	436557	0	0
2024-06-10 02:55:32			0	41074	0	0	0	26672	25260	123608	27171	1017679	41972	109884	0	0	8424	437376	0	0
2024-06-10 02:56:32			0	41108	0	0	0	26672	25270	123676	27140	1017661	41972	109884	0	0	8426	436191	0	0
2024-06-10 02:57:32			0	41088	0	0	0	26670	25260	123692	26958	1017625	41972	109883	0	0	8425	436898	0	0
2024-06-10 02:58:32			0	41072	0	0	0	26670	25260	123624	26887	1017625	41972	109883	0	0	8424	437444	0	0
2024-06-10 02:59:32			0	41074	0	0	0	26672	25270	123676	27190	1017669	41984	109884	0	0	8424	437351	0	0
2024-06-10 03:00:32			0	41062	0	0	0	26675	25270	123700	27005	1017634	41972	109885	0	0	8423	437761	0	0
2024-06-10 03:01:32			0	41059	0	0	0	26675	25260	123712	26951	1017679	41972	109885	0	0	8423	437889	0	0
2024-06-10 03:02:32			0	41039	0	0	0	26677	25260	123696	27048	1017670	41983	109886	0	0	8422	438572	0	0
2024-06-10 03:03:32			0	41055	0	0	0	26664	25260	123716	26847	1017643	41983	109881	0	0	8423	438025	0	0
2024-06-10 03:04:32			0	41050	0	0	0	26657	25250	123696	26847	1017546	41970	109878	0	0	8423	438221	0	0
2024-06-10 03:05:32			0	41056	0	0	0	26654	25260	123696	26790	1017643	41983	109877	0	0	8423	437991	0	0
2024-06-10 03:06:32			0	41051	0	0	0	26646	25250	123748	27213	1017554	41971	109874	0	0	8423	438187	0	0
2024-06-10 03:07:32			0	41050	0	0	0	26646	25250	123792	26831	1017528	41960	109874	0	0	8423	438221	0	0
2024-06-10 03:08:32			0	41047	0	0	0	26644	25250	123840	27076	1017599	41959	109873	0	0	8423	438324	0	0
2024-06-10 03:09:32			0	41044	0	0	0	26644	25250	123820	27045	1017554	41971	109873	0	0	8423	438426	0	0
2024-06-10 03:10:32			0	41045	0	0	0	26633	25240	123808	27027	1017475	41981	109869	0	0	8423	438417	0	0
2024-06-10 03:11:32			0	41042	0	0	0	26618	25230	123808	26800	1017440	41958	109863	0	0	8423	438544	0	0
2024-06-10 03:12:32			0	41045	0	0	0	26620	25220	123744	27071	1017476	41958	109864	0	0	8423	438467	0	0
2024-06-10 03:13:32			0	41036	0	0	0	26615	25230	123776	26767	1017485	41969	109862	0	0	8423	438750	0	0
2024-06-10 03:14:32			0	41050	0	0	0	26618	25240	123708	27003	1017555	41981	109863	0	0	8424	438246	0	0
2024-06-10 03:15:32			0	41026	0	0	0	26623	25230	123800	27001	1017511	41980	109865	0	0	8422	439092	0	0
2024-06-10 03:16:32			0	41042	0	0	0	26623	25220	123760	26944	1017476	41980	109865	0	0	8423	438569	0	0
2024-06-10 03:17:32			0	41038	0	0	0	26636	25230	123748	26911	1017511	41980	109870	0	0	8423	438681	0	0
2024-06-10 03:18:32			0	41013	0	0	0	26633	25240	123748	26915	1017582	41992	109869	0	0	8421	439512	0	0
2024-06-10 03:19:32			0	41034	0	0	0	26641	25240	123820	27031	1017555	41981	109872	0	0	8422	438793	0	0
2024-06-10 03:20:32			0	41027	0	0	0	26641	25250	123756	27232	1017519	41982	109872	0	0	8422	439008	0	0
2024-06-10 03:21:32			0	41034	0	0	0	26641	25240	123828	27220	1017537	41970	109872	0	0	8422	438793	0	0
2024-06-10 03:22:32			0	41023	0	0	0	26654	25240	123764	26970	1017582	41970	109877	0	0	8422	439170	0	0
2024-06-10 03:23:32			0	41033	0	0	0	26654	25250	123796	27130	1017608	41971	109877	0	0	8422	438803	0	0
2024-06-10 03:24:32			0	41026	0	0	0	26662	25260	123772	27131	1017617	41983	109880	0	0	8422	439017	0	0
2024-06-10 03:25:32			0	41011	0	0	0	26646	25240	123792	27230	1017510	41982	109874	0	0	8421	439581	0	0
2024-06-10 03:26:32			0	41030	0	0	0	26638	25240	123812	27033	1017484	41982	109871	0	0	8422	438930	0	0
2024-06-10 03:27:32			0	41021	0	0	0	26615	25230	123936	27088	1017431	41969	109862	0	0	8422	439263	0	0
2024-06-10 03:28:32			0	41004	0	0	0	26605	25220	123828	27038	1017342	41969	109858	0	0	8421	439870	0	0
2024-06-10 03:29:32			0	41024	0	0	0	26592	25210	123868	27072	1017325	41967	109853	0	0	8423	439211	0	0
2024-06-10 03:30:32			0	41008	0	0	0	26589	25210	123764	27022	1017352	41978	109852	0	0	8422	439758	0	0
2024-06-10 03:31:32			0	41022	0	0	0	26586	25210	123732	26956	1017343	41956	109851	0	0	8423	439279	0	0
2024-06-10 03:32:32			0	41021	0	0	0	26586	25210	123788	27116	1017379	41978	109851	0	0	8422	439313	0	0
2024-06-10 03:33:32			0	41042	0	0	0	26584	25180	123700	27052	1017309	41965	109850	0	0	8424	438669	0	0
2024-06-10 03:34:32			0	41040	0	0	0	26581	25210	123728	27274	1017298	41967	109849	0	0	8424	438663	0	0
2024-06-10 03:35:32			0	41032	0	0	0	26576	25190	123756	27185	1017291	41965	109847	0	0	8423	438986	0	0
2024-06-10 03:36:32			0	41031	0	0	0	26581	25200	123784	26878	1017299	41977	109849	0	0	8423	438996	0	0
2024-06-10 03:37:32			0	41031	0	0	0	26555	25180	123756	26913	1017255	41965	109839	0	0	8423	439046	0	0
2024-06-10 03:38:32			0	41028	0	0	0	26568	25180	123732	27095	1017202	41965	109844	0	0	8423	439148	0	0
2024-06-10 03:39:32			0	41024	0	0	0	26555	25170	123832	27178	1017176	41974	109839	0	0	8423	439310	0	0
2024-06-10 03:40:32			0	41008	0	0	0	26548	25170	123748	26906	1017131	41964	109836	0	0	8422	439858	0	0
2024-06-10 03:41:32			0	41015	0	0	0	26550	25160	123732	27256	1017140	41963	109837	0	0	8423	439643	0	0
2024-06-10 03:42:32			0	41025	0	0	0	26542	25160	123720	26859	1017167	41963	109834	0	0	8423	439301	0	0
2024-06-10 03:43:32			0	41025	0	0	0	26542	25170	123836	27166	1017149	41963	109834	0	0	8423	439276	0	0
2024-06-10 03:44:32			0	41025	0	0	0	26545	25150	123780	27019	1017123	41952	109835	0	0	8423	439326	0	0
2024-06-10 03:45:32			0	41032	0	0	0	26529	25150	123832	27022	1017061	41961	109829	0	0	8424	439086	0	0
2024-06-10 03:46:32			0	41015	0	0	0	26524	25140	123864	27111	1017079	41950	109827	0	0	8423	439693	0	0
2024-06-10 03:47:32			0	41026	0	0	0	26522	25140	123804	27031	1017044	41960	109826	0	0	8424	439316	0	0
2024-06-10 03:48:32			0	41017	0	0	0	26519	25140	123788	27008	1017017	41950	109825	0	0	8423	439625	0	0
2024-06-10 03:49:32			0	41042	0	0	0	26514	25140	123772	27086	1016990	41960	109823	0	0	8425	438769	0	0
2024-06-10 03:50:32			0	41030	0	0	0	26509	25120	123776	27315	1016884	41959	109821	0	0	8424	439229	0	0
2024-06-10 03:51:32			0	41029	0	0	0	26498	25110	123768	27206	1016894	41948	109817	0	0	8424	439288	0	0
2024-06-10 03:52:32			0	41049	0	0	0	26498	25110	123828	27267	1016859	41958	109817	0	0	8425	438604	0	0
2024-06-10 03:53:32			0	41023	0	0	0	26483	25100	123856	27123	1016868	41946	109811	0	0	8424	439519	0	0
2024-06-10 03:54:32			0	41043	0	0	0	26480	25100	123856	27005	1016850	41968	109810	0	0	8425	438834	0	0
2024-06-10 03:55:32			0	41031	0	0	0	26467	25090	123860	27138	1016771	41946	109805	0	0	8425	439270	0	0
2024-06-10 03:56:32			0	41020	0	0	0	26457	25090	123908	27369	1016779	41958	109801	0	0	8424	439647	0	0
2024-06-10 03:57:32			0	41024	0	0	0	26454	25080	123728	27303	1016762	41945	109800	0	0	8424	439535	0	0
2024-06-10 03:58:32			0	41027	0	0	0	26446	25070	123712	27189	1016718	41955	109797	0	0	8425	439457	0	0
2024-06-10 03:59:32			0	41013	0	0	0	26438	25060	123892	26996	1016674	41954	109794	0	0	8424	439961	0	0
2024-06-10 04:00:32			0	41012	0	0	0	26433	25060	123828	26958	1016594	41954	109792	0	0	8424	439996	0	0
2024-06-10 04:01:32			0	41016	0	0	0	26420	25060	123852	27076	1016594	41954	109787	0	0	8424	439859	0	0
2024-06-10 04:02:32			0	41028	0	0	0	26410	25050	123788	26960	1016514	41953	109783	0	0	8425	439472	0	0
2024-06-10 04:03:32			0	41010	0	0	0	26418	25030	123868	26932	1016542	41951	109786	0	0	8424	440139	0	0
2024-06-10 04:04:32			0	41029	0	0	0	26410	25040	123840	27079	1016533	41952	109783	0	0	8425	439463	0	0
2024-06-10 04:05:32			0	41017	0	0	0	26407	25020	123844	27140	1016525	41950	109782	0	0	8425	439924	0	0
2024-06-10 04:06:32			0	41015	0	0	0	26420	25020	123912	26897	1016525	41950	109787	0	0	8424	439993	0	0
2024-06-10 04:07:32			0	41032	0	0	0	26407	25030	123900	26880	1016542	41940	109782	0	0	8425	439385	0	0
2024-06-10 04:08:32			0	41005	0	0	0	26415	25030	123944	26965	1016480	41951	109785	0	0	8424	440311	0	0
2024-06-10 04:09:32			0	41004	0	0	0	26415	25020	123976	26854	1016552	41961	109785	0	0	8424	440370	0	0
2024-06-10 04:10:32			0	41020	0	0	0	26418	25020	123900	26804	1016605	41950	109786	0	0	8425	439821	0	0
2024-06-10 04:11:32			0	41013	0	0	0	26420	25020	123892	26967	1016579	41950	109787	0	0	8424	440061	0	0
2024-06-10 04:12:32			0	40994	0	0	0	26428	25020	123852	27017	1016632	41972	109790	0	0	8423	440713	0	0
2024-06-10 04:13:32			0	41003	0	0	0	26431	25030	123936	26795	1016614	41962	109791	0	0	8423	440379	0	0
2024-06-10 04:14:32			0	40990	0	0	0	26441	25020	123952	26748	1016632	41961	109795	0	0	8423	440850	0	0
2024-06-10 04:15:32			0	41005	0	0	0	26441	25040	123996	27003	1016666	41963	109795	0	0	8423	440286	0	0
2024-06-10 04:16:32			0	40990	0	0	0	26436	25030	123976	27039	1016667	41962	109793	0	0	8423	440825	0	0
2024-06-10 04:17:32			0	40999	0	0	0	26457	25030	123896	27209	1016667	41951	109801	0	0	8423	440516	0	0
2024-06-10 04:18:32			0	40990	0	0	0	26459	25040	124020	27187	1016693	41963	109802	0	0	8422	440800	0	0
2024-06-10 04:19:32			0	40992	0	0	0	26467	25050	124016	27107	1016737	41964	109805	0	0	8422	440707	0	0
2024-06-10 04:20:32			0	40955	0	0	0	26480	25050	124008	26899	1016764	41964	109810	0	0	8420	441977	0	0
2024-06-10 04:21:32			0	40971	0	0	0	26480	25040	124008	26840	1016747	41963	109810	0	0	8421	441453	0	0
2024-06-10 04:22:32			0	40975	0	0	0	26483	25050	124040	26791	1016729	41953	109811	0	0	8421	441290	0	0
2024-06-10 04:23:32			0	40977	0	0	0	26477	25060	124020	27194	1016755	41976	109809	0	0	8421	441197	0	0
2024-06-10 04:24:32			0	40965	0	0	0	26470	25060	124072	26840	1016692	41975	109806	0	0	8421	441609	0	0
2024-06-10 04:25:32			0	40966	0	0	0	26462	25050	124044	27145	1016684	41964	109803	0	0	8421	441599	0	0
2024-06-10 04:26:32			0	40977	0	0	0	26438	25050	124096	27308	1016621	41964	109794	0	0	8422	441222	0	0
2024-06-10 04:27:32			0	40960	0	0	0	26433	25040	124068	27031	1016613	41941	109792	0	0	8421	441830	0	0
2024-06-10 04:28:32			0	40958	0	0	0	26428	25050	124044	26901	1016595	41953	109790	0	0	8421	441874	0	0
2024-06-10 04:29:32			0	40963	0	0	0	26428	25030	124120	26793	1016542	41951	109790	0	0	8421	441752	0	0
2024-06-10 04:30:32			0	40956	0	0	0	26425	25020	124072	27258	1016579	41950	109789	0	0	8421	442018	0	0
2024-06-10 04:31:32			0	40944	0	0	0	26415	25030	124060	26831	1016453	41951	109785	0	0	8421	442405	0	0
2024-06-10 04:32:32			0	40958	0	0	0	26410	25020	124080	26831	1016471	41961	109783	0	0	8421	441949	0	0
2024-06-10 04:33:32			0	40938	0	0	0	26410	25020	124060	26793	1016463	41960	109783	0	0	8420	442637	0	0
2024-06-10 04:34:32			0	40952	0	0	0	26410	25020	124044	26920	1016490	41960	109783	0	0	8421	442156	0	0
2024-06-10 04:35:32			0	40936	0	0	0	26407	25030	124136	26811	1016534	41951	109782	0	0	8420	442681	0	0
2024-06-10 04:36:32			0	40933	0	0	0	26405	25020	124128	27105	1016409	41960	109781	0	0	8420	442809	0	0
2024-06-10 04:37:32			0	40930	0	0	0	26394	25020	124192	27067	1016463	41960	109777	0	0	8420	442912	0	0
2024-06-10 04:38:32			0	40936	0	0	0	26389	25010	124132	26930	1016454	41959	109775	0	0	8421	442731	0	0
2024-06-10 04:39:32			0	40934	0	0	0	26392	25010	124188	27005	1016446	41959	109776	0	0	8420	442800	0	0
2024-06-10 04:40:32			0	40943	0	0	0	26394	25010	124180	27076	1016401	41937	109777	0	0	8421	442490	0	0
2024-06-10 04:41:32			0	40931	0	0	0	26394	25010	124228	27255	1016392	41949	109777	0	0	8420	442903	0	0
2024-06-10 04:42:32			0	40911	0	0	0	26389	24990	124172	27298	1016339	41958	109775	0	0	8419	443642	0	0
2024-06-10 04:43:32			0	40929	0	0	0	26379	25000	124176	27403	1016357	41949	109771	0	0	8420	442997	0	0
2024-06-10 04:44:32			0	40902	0	0	0	26373	25000	124224	26800	1016321	41958	109769	0	0	8419	443926	0	0
2024-06-10 04:45:32			0	40926	0	0	0	26386	24990	124260	26889	1016393	41958	109774	0	0	8420	443125	0	0
2024-06-10 04:46:32			0	40923	0	0	0	26381	24990	124236	27138	1016366	41958	109772	0	0	8420	443228	0	0
2024-06-10 04:47:32			0	40923	0	0	0	26384	24990	124216	26793	1016358	41936	109773	0	0	8420	443228	0	0
2024-06-10 04:48:32			0	40877	0	0	0	26386	24990	124204	27118	1016358	41958	109774	0	0	8417	444813	0	0
2024-06-10 04:49:32			0	40891	0	0	0	26386	25000	124208	27022	1016455	41958	109774	0	0	8418	444306	0	0
2024-06-10 04:50:32			0	40905	0	0	0	26386	24990	124336	26987	1016393	41958	109774	0	0	8419	443848	0	0
2024-06-10 04:51:32			0	40901	0	0	0	26397	24990	124288	27050	1016384	41958	109778	0	0	8419	443986	0	0
2024-06-10 04:52:32			0	40902	0	0	0	26386	24990	124292	27098	1016384	41947	109774	0	0	8419	443952	0	0
2024-06-10 04:53:32			0	40882	0	0	0	26384	24980	124292	26800	1016429	41958	109773	0	0	8418	444666	0	0
2024-06-10 04:54:32			0	40878	0	0	0	26373	24980	124284	26750	1016322	41947	109769	0	0	8418	444804	0	0
2024-06-10 04:55:32			0	40885	0	0	0	26368	24980	124256	27203	1016322	41947	109767	0	0	8418	444563	0	0
2024-06-10 04:56:32			0	40876	0	0	0	26373	24980	124356	27232	1016340	41957	109769	0	0	8418	444873	0	0
2024-06-10 04:57:32			0	40878	0	0	0	26358	24980	124360	26696	1016287	41946	109763	0	0	8418	444804	0	0
2024-06-10 04:58:32			0	40874	0	0	0	26358	24970	124336	27100	1016305	41945	109763	0	0	8418	444967	0	0
2024-06-10 04:59:32			0	40890	0	0	0	26361	24970	124248	27069	1016296	41956	109764	0	0	8418	444415	0	0
2024-06-10 05:00:32			0	40869	0	0	0	26355	24970	124280	26791	1016216	41956	109762	0	0	8417	445140	0	0
2024-06-10 05:01:32			0	40872	0	0	0	26358	24960	124312	26800	1016208	41945	109763	0	0	8418	445061	0	0
2024-06-10 05:02:32			0	40881	0	0	0	26353	24960	124328	27008	1016234	41956	109761	0	0	8418	444751	0	0
2024-06-10 05:03:32			0	40882	0	0	0	26348	24960	124380	26927	1016172	41944	109759	0	0	8418	444716	0	0
2024-06-10 05:04:32			0	40869	0	0	0	26348	24960	124312	26949	1016208	41945	109759	0	0	8418	445165	0	0
2024-06-10 05:05:32			0	40875	0	0	0	26350	24970	124316	27111	1016243	41945	109760	0	0	8418	444933	0	0
2024-06-10 05:06:32			0	40870	0	0	0	26342	24950	124304	27121	1016190	41943	109757	0	0	8418	445156	0	0
2024-06-10 05:07:32			0	40884	0	0	0	26345	24950	124332	26913	1016137	41932	109758	0	0	8418	444673	0	0
2024-06-10 05:08:32			0	40866	0	0	0	26329	24960	124316	27149	1016154	41967	109752	0	0	8418	445268	0	0
2024-06-10 05:09:32			0	40877	0	0	0	26327	24960	124280	27052	1016119	41956	109751	0	0	8418	444889	0	0
2024-06-10 05:10:32			0	40878	0	0	0	26332	24950	124336	27079	1016128	41942	109753	0	0	8418	444880	0	0
2024-06-10 05:11:32			0	40872	0	0	0	26324	24940	124296	26705	1016120	41942	109750	0	0	8418	445112	0	0
2024-06-10 05:12:32			0	40876	0	0	0	26340	24940	124324	27123	1016165	41964	109756	0	0	8418	444974	0	0
2024-06-10 05:13:32			0	40855	0	0	0	26340	24940	124396	27098	1016147	41954	109756	0	0	8417	445699	0	0
2024-06-10 05:14:32			0	40862	0	0	0	26332	24940	124420	27112	1016191	41942	109753	0	0	8417	445457	0	0
2024-06-10 05:15:32			0	40891	0	0	0	26337	24940	124356	26977	1016120	41942	109755	0	0	8419	444457	0	0
2024-06-10 05:16:32			0	40870	0	0	0	26342	24950	124348	26870	1016209	41954	109757	0	0	8418	445156	0	0
2024-06-10 05:17:32			0	40878	0	0	0	26345	24950	124312	27152	1016102	41954	109758	0	0	8418	444880	0	0
2024-06-10 05:18:32			0	40852	0	0	0	26340	24940	124344	26857	1016147	41954	109756	0	0	8417	445802	0	0
2024-06-10 05:19:32			0	40863	0	0	0	26342	24940	124460	26987	1016191	41954	109757	0	0	8417	445422	0	0
2024-06-10 05:20:32			0	40869	0	0	0	26327	24940	124384	26986	1016084	41954	109751	0	0	8418	445215	0	0
2024-06-10 05:21:32			0	40871	0	0	0	26342	24930	124380	26724	1016156	41941	109757	0	0	8418	445172	0	0
2024-06-10 05:22:32			0	40858	0	0	0	26329	24930	124352	27180	1016129	41953	109752	0	0	8417	445620	0	0
2024-06-10 05:23:32			0	40880	0	0	0	26329	24940	124448	27074	1016093	41954	109752	0	0	8418	444836	0	0
2024-06-10 05:24:32			0	40873	0	0	0	26335	24940	124416	27046	1016165	41942	109754	0	0	8418	445077	0	0
2024-06-10 05:25:32			0	40879	0	0	0	26335	24930	124396	26968	1016129	41941	109754	0	0	8418	444896	0	0
2024-06-10 05:26:32			0	40882	0	0	0	26322	24940	124440	27039	1016084	41964	109749	0	0	8419	444767	0	0
2024-06-10 05:27:32			0	40884	0	0	0	26319	24930	124388	26694	1016129	41941	109748	0	0	8419	444723	0	0
2024-06-10 05:28:32			0	40861	0	0	0	26329	24930	124392	27497	1016049	41953	109752	0	0	8417	445517	0	0
2024-06-10 05:29:32			0	40871	0	0	0	26327	24930	124416	27060	1016094	41962	109751	0	0	8418	445172	0	0
2024-06-10 05:30:32			0	40879	0	0	0	26324	24930	124444	27365	1016094	41940	109750	0	0	8418	444896	0	0
2024-06-10 05:31:32			0	40867	0	0	0	26327	24930	124404	26986	1016120	41940	109751	0	0	8418	445310	0	0
2024-06-10 05:32:32			0	40871	0	0	0	26322	24930	124256	27301	1016067	41940	109749	0	0	8418	445172	0	0
2024-06-10 05:33:32			0	40856	0	0	0	26322	24930	124352	27138	1016103	41941	109749	0	0	8417	445689	0	0
2024-06-10 05:34:32			0	40891	0	0	0	26322	24930	124388	26896	1016103	41953	109749	0	0	8419	444482	0	0
2024-06-10 05:35:32			0	40868	0	0	0	26327	24930	124484	27157	1016156	41963	109751	0	0	8418	445275	0	0
2024-06-10 05:36:32			0	40870	0	0	0	26324	24940	124384	27104	1016058	41954	109750	0	0	8418	445181	0	0
2024-06-10 05:37:32			0	40860	0	0	0	26324	24930	124468	26963	1016103	41974	109750	0	0	8417	445551	0	0
2024-06-10 05:38:32			0	40886	0	0	0	26332	24930	124412	27301	1016067	41952	109753	0	0	8419	444654	0	0
2024-06-10 05:39:32			0	40853	0	0	0	26335	24930	124380	27147	1016103	41953	109754	0	0	8417	445793	0	0
2024-06-10 05:40:32			0	40864	0	0	0	26332	24930	124396	27170	1016129	41953	109753	0	0	8417	445413	0	0
2024-06-10 05:41:32			0	40862	0	0	0	26337	24930	124360	26896	1016103	41953	109755	0	0	8417	445482	0	0
2024-06-10 05:42:32			0	40856	0	0	0	26322	24940	124448	27059	1016138	41954	109749	0	0	8417	445664	0	0
2024-06-10 05:43:32			0	40842	0	0	0	26327	24930	124400	27234	1016103	41941	109751	0	0	8416	446173	0	0
2024-06-10 05:44:32			0	40842	0	0	0	26327	24930	124424	26819	1016067	41952	109751	0	0	8416	446173	0	0
2024-06-10 05:45:32			0	40853	0	0	0	26319	24930	124408	26661	1016156	41941	109748	0	0	8417	445793	0	0
2024-06-10 05:46:32			0	40855	0	0	0	26306	24930	124372	26946	1016067	41952	109743	0	0	8417	445724	0	0
2024-06-10 05:47:32			0	40852	0	0	0	26306	24930	124408	27029	1016094	41962	109743	0	0	8417	445827	0	0
2024-06-10 05:48:32			0	40849	0	0	0	26311	24920	124424	27235	1016085	41940	109745	0	0	8417	445956	0	0
2024-06-10 05:49:32			0	40848	0	0	0	26314	24920	124520	26946	1016023	41952	109746	0	0	8417	445991	0	0
2024-06-10 05:50:32			0	40846	0	0	0	26309	24920	124440	26870	1015996	41952	109744	0	0	8417	446060	0	0
2024-06-10 05:51:32			0	40836	0	0	0	26309	24930	124528	26691	1016067	41940	109744	0	0	8416	446380	0	0
2024-06-10 05:52:32			0	40840	0	0	0	26309	24920	124460	26970	1015978	41952	109744	0	0	8417	446267	0	0
2024-06-10 05:53:32			0	40829	0	0	0	26298	24920	124496	26807	1015996	41940	109740	0	0	8416	446648	0	0
2024-06-10 05:54:32			0	40832	0	0	0	26301	24920	124520	26996	1016023	41952	109741	0	0	8416	446544	0	0
2024-06-10 05:55:32			0	40808	0	0	0	26298	24910	124496	27159	1016014	41940	109740	0	0	8415	447399	0	0
2024-06-10 05:56:32			0	40841	0	0	0	26296	24920	124452	26968	1016023	41940	109739	0	0	8417	446233	0	0
2024-06-10 05:57:32			0	40844	0	0	0	26306	24920	124440	27206	1015996	41952	109743	0	0	8417	446129	0	0
2024-06-10 05:58:32			0	40818	0	0	0	26311	24900	124468	27348	1015997	41960	109745	0	0	8415	447078	0	0
2024-06-10 05:59:32			0	40821	0	0	0	26314	24910	124584	26847	1016014	41961	109746	0	0	8415	446949	0	0
2024-06-10 06:00:32			0	40841	0	0	0	26311	24920	124568	27147	1016023	41952	109745	0	0	8417	446233	0	0
2024-06-10 06:01:32			0	40820	0	0	0	26324	24920	124484	27062	1016103	41940	109750	0	0	8415	446959	0	0
2024-06-10 06:02:32			0	40824	0	0	0	26335	24910	124572	27213	1016068	41961	109754	0	0	8415	446846	0	0
2024-06-10 06:03:32			0	40832	0	0	0	26335	24920	124556	26696	1016085	41952	109754	0	0	8416	446544	0	0
2024-06-10 06:04:32			0	40819	0	0	0	26327	24920	124576	27194	1016058	41952	109751	0	0	8415	446993	0	0
2024-06-10 06:05:32			0	40796	0	0	0	26316	24910	124536	26715	1016014	41951	109747	0	0	8414	447814	0	0
2024-06-10 06:06:32			0	40817	0	0	0	26298	24900	124488	26856	1016059	41939	109740	0	0	8415	447113	0	0
2024-06-10 06:07:32			0	40784	0	0	0	26301	24910	124588	27034	1016014	41961	109741	0	0	8414	448230	0	0
2024-06-10 06:08:32			0	40793	0	0	0	26301	24910	124516	26811	1016122	41951	109741	0	0	8414	447918	0	0
2024-06-10 06:09:32			0	40794	0	0	0	26296	24910	124504	26703	1016014	41940	109739	0	0	8414	447884	0	0
2024-06-10 06:10:32			0	40790	0	0	0	26283	24900	124524	26975	1015979	41939	109734	0	0	8414	448047	0	0
2024-06-10 06:11:32			0	40779	0	0	0	26290	24890	124648	26897	1015935	41939	109737	0	0	8414	448454	0	0
2024-06-10 06:12:32			0	40780	0	0	0	26290	24900	124712	26788	1015997	41939	109737	0	0	8414	448394	0	0
2024-06-10 06:13:32			0	40776	0	0	0	26290	24900	124656	26981	1016006	41950	109737	0	0	8413	448532	0	0
2024-06-10 06:14:32			0	40742	0	0	0	26298	24890	124703	26765	1015980	41949	109740	0	0	8411	449736	0	0
2024-06-10 06:15:32			0	40761	0	0	0	26296	24900	124743	26863	1015971	41960	109739	0	0	8413	449052	0	0
2024-06-10 06:16:32			0	40755	0	0	0	26311	24900	124695	26511	1016033	41950	109745	0	0	8412	449260	0	0
2024-06-10 06:17:32			0	40775	0	0	0	26306	24900	124776	27173	1015997	41939	109743	0	0	8413	448567	0	0
2024-06-10 06:18:32			0	40738	0	0	0	26303	24900	124803	26849	1015997	41939	109742	0	0	8411	449850	0	0
2024-06-10 06:19:32			0	40737	0	0	0	26298	24900	124835	27057	1016024	41950	109740	0	0	8411	449884	0	0
2024-06-10 06:20:32			0	40756	0	0	0	26301	24900	124863	26826	1015971	41960	109741	0	0	8412	449225	0	0
2024-06-10 06:21:32			0	40722	0	0	0	26311	24900	124835	26687	1016006	41960	109745	0	0	8410	450405	0	0
2024-06-10 06:22:32			0	40714	0	0	0	26314	24900	124855	27130	1016033	41950	109746	0	0	8410	450683	0	0
2024-06-10 06:23:32			0	40711	0	0	0	26314	24910	124835	26965	1016041	41951	109746	0	0	8410	450762	0	0
2024-06-10 06:24:32			0	40721	0	0	0	26319	24910	124819	26916	1015988	41961	109748	0	0	8410	450414	0	0
2024-06-10 06:25:32			0	40729	0	0	0	26316	24920	124863	27095	1016058	41974	109747	0	0	8411	450111	0	0
2024-06-10 06:26:32			0	40709	0	0	0	26319	24910	124811	27223	1016014	41961	109748	0	0	8409	450831	0	0
2024-06-10 06:27:32			0	40703	0	0	0	26319	24910	124927	27177	1015988	41961	109748	0	0	8409	451039	0	0
2024-06-10 06:28:32			0	40688	0	0	0	26311	24920	124967	27071	1016050	41962	109745	0	0	8409	451535	0	0
2024-06-10 06:29:32			0	40667	0	0	0	26324	24910	124927	27114	1016014	41961	109750	0	0	8407	452291	0	0
2024-06-10 06:30:32			0	40690	0	0	0	26319	24910	124959	27062	1016041	41961	109748	0	0	8409	451491	0	0
2024-06-10 06:31:32			0	40668	0	0	0	26319	24910	124859	27189	1016014	41961	109748	0	0	8407	452256	0	0
2024-06-10 06:32:32			0	40677	0	0	0	26316	24920	125055	26807	1016023	41962	109747	0	0	8408	451918	0	0
2024-06-10 06:33:32			0	40677	0	0	0	26322	24920	124971	27001	1016050	41940	109749	0	0	8408	451918	0	0
2024-06-10 06:34:32			0	40671	0	0	0	26319	24920	124979	26902	1016103	41952	109748	0	0	8408	452126	0	0
2024-06-10 06:35:32			0	40651	0	0	0	26322	24930	125043	26944	1016040	41962	109749	0	0	8406	452797	0	0
2024-06-10 06:36:32			0	40645	0	0	0	26332	24920	124975	27033	1016058	41952	109753	0	0	8406	453031	0	0
2024-06-10 06:37:32			0	40669	0	0	0	26332	24910	125003	27211	1016095	41951	109753	0	0	8407	452222	0	0
2024-06-10 06:38:32			0	40658	0	0	0	26332	24920	125075	27041	1016112	41952	109753	0	0	8407	452579	0	0
2024-06-10 06:39:32			0	40638	0	0	0	26332	24930	125051	26977	1016094	41952	109753	0	0	8406	453249	0	0
2024-06-10 06:40:32			0	40640	0	0	0	26337	24920	125039	27039	1016112	41940	109755	0	0	8406	453206	0	0
2024-06-10 06:41:32			0	40623	0	0	0	26335	24930	125087	26996	1016129	41963	109754	0	0	8405	453772	0	0
2024-06-10 06:42:32			0	40626	0	0	0	26332	24920	125091	26927	1016085	41952	109753	0	0	8405	453693	0	0
2024-06-10 06:43:32			0	40632	0	0	0	26329	24920	125063	27235	1016085	41962	109752	0	0	8405	453484	0	0
2024-06-10 06:44:32			0	40632	0	0	0	26324	24930	125107	27010	1016129	41953	109750	0	0	8405	453458	0	0
2024-06-10 06:45:32			0	40619	0	0	0	26329	24930	125119	27319	1016103	41941	109752	0	0	8405	453912	0	0
2024-06-10 06:46:32			0	40629	0	0	0	26327	24930	125071	27161	1016094	41952	109751	0	0	8405	453563	0	0
2024-06-10 06:47:32			0	40625	0	0	0	26324	24930	125055	27176	1016129	41963	109750	0	0	8405	453702	0	0
2024-06-10 06:48:32			0	40638	0	0	0	26329	24930	125111	26972	1016120	41962	109752	0	0	8406	453249	0	0
2024-06-10 06:49:32			0	40626	0	0	0	26324	24920	125095	27225	1016112	41952	109750	0	0	8405	453693	0	0
2024-06-10 06:50:32			0	40625	0	0	0	26327	24930	125075	27351	1016040	41952	109751	0	0	8405	453702	0	0
2024-06-10 06:51:32			0	40636	0	0	0	26319	24930	125103	27211	1016103	41963	109748	0	0	8406	453319	0	0
2024-06-10 06:52:32			0	40640	0	0	0	26316	24930	125067	27036	1016067	41962	109747	0	0	8406	453180	0	0
2024-06-10 06:53:32			0	40644	0	0	0	26316	24930	124991	27010	1016067	41952	109747	0	0	8406	453040	0	0
2024-06-10 06:54:32			0	40649	0	0	0	26301	24920	125035	26939	1016005	41962	109741	0	0	8407	452892	0	0
2024-06-10 06:55:32			0	40646	0	0	0	26314	24920	124939	27100	1016050	41962	109746	0	0	8406	452996	0	0
2024-06-10 06:56:32			0	40641	0	0	0	26303	24930	125011	27170	1016040	41962	109742	0	0	8406	453145	0	0
2024-06-10 06:57:32			0	40677	0	0	0	26309	24930	125027	26946	1016067	41962	109744	0	0	8408	451892	0	0
2024-06-10 06:58:32			0	40691	0	0	0	26301	24910	124991	27111	1016095	41951	109741	0	0	8409	451456	0	0
2024-06-10 06:59:32			0	40674	0	0	0	26306	24910	124971	26826	1016068	41951	109743	0	0	8408	452048	0	0
2024-06-10 07:00:32			0	40679	0	0	0	26298	24920	124915	27150	1016058	41974	109740	0	0	8408	451848	0	0
2024-06-10 07:01:32			0	40697	0	0	0	26306	24900	124979	27140	1015952	41950	109743	0	0	8409	451274	0	0
2024-06-10 07:02:32			0	40704	0	0	0	26298	24900	124939	27267	1015997	41950	109740	0	0	8410	451030	0	0
2024-06-10 07:03:32			0	40688	0	0	0	26298	24920	124907	27157	1016023	41952	109740	0	0	8409	451535	0	0
2024-06-10 07:04:32			0	40699	0	0	0	26298	24910	124907	27059	1016014	41951	109740	0	0	8409	451178	0	0
2024-06-10 07:05:32			0	40697	0	0	0	26303	24900	124931	27410	1016033	41950	109742	0	0	8409	451274	0	0
2024-06-10 07:06:32			0	40709	0	0	0	26309	24910	124891	27112	1016041	41951	109744	0	0	8410	450831	0	0
2024-06-10 07:07:32			0	40726	0	0	0	26311	24910	124919	27001	1015988	41961	109745	0	0	8411	450241	0	0
2024-06-10 07:08:32			0	40706	0	0	0	26311	24900	124947	26868	1016006	41950	109745	0	0	8409	450961	0	0
2024-06-10 07:09:32			0	40727	0	0	0	26303	24910	124811	27220	1016014	41973	109742	0	0	8411	450206	0	0
2024-06-10 07:10:32			0	40701	0	0	0	26311	24910	124831	26998	1016014	41973	109745	0	0	8409	451109	0	0
2024-06-10 07:11:32			0	40729	0	0	0	26316	24910	124807	26890	1016014	41951	109747	0	0	8411	450136	0	0
2024-06-10 07:12:32			0	40718	0	0	0	26316	24910	124879	27072	1016068	41951	109747	0	0	8410	450518	0	0
2024-06-10 07:13:32			0	40715	0	0	0	26314	24900	124855	26993	1016024	41960	109746	0	0	8410	450648	0	0
2024-06-10 07:14:32			0	40716	0	0	0	26306	24910	124759	26745	1016041	41940	109743	0	0	8410	450588	0	0
2024-06-10 07:15:32			0	40737	0	0	0	26314	24910	124875	27154	1016041	41961	109746	0	0	8411	449859	0	0
2024-06-10 07:16:32			0	40740	0	0	0	26314	24900	124891	26911	1016059	41950	109746	0	0	8411	449780	0	0
2024-06-10 07:17:32			0	40753	0	0	0	26303	24900	124855	26857	1016006	41950	109742	0	0	8412	449329	0	0
2024-06-10 07:18:32			0	40752	0	0	0	26306	24900	124831	27235	1016006	41950	109743	0	0	8412	449364	0	0
2024-06-10 07:19:32			0	40745	0	0	0	26298	24890	124807	27121	1016042	41960	109740	0	0	8412	449632	0	0
2024-06-10 07:20:32			0	40737	0	0	0	26298	24920	124895	26930	1016050	41952	109740	0	0	8411	449833	0	0
2024-06-10 07:21:32			0	40755	0	0	0	26301	24910	124803	27163	1016014	41951	109741	0	0	8412	449235	0	0
2024-06-10 07:22:32			0	40753	0	0	0	26298	24910	124815	27187	1016014	41961	109740	0	0	8412	449304	0	0
2024-06-10 07:23:32			0	40745	0	0	0	26306	24900	124771	27234	1016006	41960	109743	0	0	8412	449607	0	0
2024-06-10 07:24:32			0	40739	0	0	0	26303	24900	124783	27338	1016033	41927	109742	0	0	8411	449815	0	0
2024-06-10 07:25:32			0	40764	0	0	0	26301	24900	124843	26781	1016024	41950	109741	0	0	8413	448948	0	0
2024-06-10 07:26:32			0	40746	0	0	0	26309	24900	124827	27135	1016033	41972	109744	0	0	8412	449572	0	0
2024-06-10 07:27:32			0	40744	0	0	0	26306	24900	124807	26859	1016059	41950	109743	0	0	8412	449642	0	0
2024-06-10 07:28:32			0	40742	0	0	0	26301	24900	124859	26811	1015944	41950	109741	0	0	8411	449711	0	0
2024-06-10 07:29:32			0	40717	0	0	0	26290	24910	124739	26791	1016014	41951	109737	0	0	8410	450553	0	0
2024-06-10 07:30:32			0	40760	0	0	0	26283	24890	124827	27085	1015989	41939	109734	0	0	8413	449112	0	0
2024-06-10 07:31:32			0	40741	0	0	0	26277	24900	124811	26882	1015971	41950	109732	0	0	8412	449746	0	0
2024-06-10 07:32:32			0	40743	0	0	0	26280	24890	124903	26757	1015962	41939	109733	0	0	8412	449702	0	0
2024-06-10 07:33:32			0	40728	0	0	0	26288	24890	124851	26798	1015989	41972	109736	0	0	8411	450222	0	0
2024-06-10 07:34:32			0	40752	0	0	0	26298	24900	124819	26703	1015917	41960	109740	0	0	8412	449364	0	0
2024-06-10 07:35:32			0	40708	0	0	0	26298	24890	124847	27003	1015962	41960	109740	0	0	8410	450917	0	0
2024-06-10 07:36:32			0	40751	0	0	0	26293	24900	124879	27008	1015997	41960	109738	0	0	8412	449399	0	0
2024-06-10 07:37:32			0	40733	0	0	0	26275	24900	124747	26932	1015971	41950	109731	0	0	8411	450023	0	0
2024-06-10 07:38:32			0	40782	0	0	0	26254	24880	124764	26885	1015838	41948	109723	0	0	8414	448375	0	0
2024-06-10 07:39:32			0	40759	0	0	0	26246	24880	124719	26897	1015802	41947	109720	0	0	8413	449172	0	0
2024-06-10 07:40:32			0	40765	0	0	0	26236	24880	124759	27102	1015776	41936	109716	0	0	8414	448964	0	0
2024-06-10 07:41:32			0	40752	0	0	0	26225	24870	124755	26982	1015759	41958	109712	0	0	8413	449440	0	0
2024-06-10 07:42:32			0	40776	0	0	0	26207	24870	124688	26972	1015759	41947	109705	0	0	8415	448608	0	0
2024-06-10 07:43:32			0	40759	0	0	0	26215	24850	124759	26967	1015697	41946	109708	0	0	8414	449249	0	0
2024-06-10 07:44:32			0	40775	0	0	0	26202	24840	124768	26717	1015716	41945	109703	0	0	8415	448719	0	0
2024-06-10 07:45:32			0	40792	0	0	0	26202	24850	124752	26545	1015671	41934	109703	0	0	8416	448105	0	0
2024-06-10 07:46:32			0	40779	0	0	0	26205	24850	124740	26830	1015697	41957	109704	0	0	8415	448555	0	0
2024-06-10 07:47:32			0	40768	0	0	0	26218	24850	124744	27085	1015644	41946	109709	0	0	8414	448936	0	0
2024-06-10 07:48:32			0	40769	0	0	0	26218	24830	124692	26861	1015591	41944	109709	0	0	8414	448953	0	0
2024-06-10 07:49:32			0	40785	0	0	0	26207	24840	124760	26946	1015627	41944	109705	0	0	8415	448373	0	0
2024-06-10 07:50:32			0	40752	0	0	0	26212	24830	124839	27105	1015645	41944	109707	0	0	8413	449542	0	0
2024-06-10 07:51:32			0	40777	0	0	0	26218	24830	124756	27183	1015636	41944	109709	0	0	8414	448676	0	0
2024-06-10 07:52:32			0	40778	0	0	0	26215	24830	124836	27150	1015618	41955	109708	0	0	8415	448641	0	0
2024-06-10 07:53:32			0	40772	0	0	0	26233	24830	124732	27081	1015672	41955	109715	0	0	8414	448849	0	0
2024-06-10 07:54:32			0	40773	0	0	0	26244	24830	124744	26741	1015725	41944	109719	0	0	8414	448814	0	0
2024-06-10 07:55:32			0	40778	0	0	0	26264	24830	124816	27033	1015752	41955	109727	0	0	8414	448641	0	0
2024-06-10 07:56:32			0	40772	0	0	0	26270	24840	124796	26821	1015769	41945	109729	0	0	8413	448823	0	0
2024-06-10 07:57:32			0	40774	0	0	0	26249	24840	124752	27071	1015742	41956	109721	0	0	8414	448754	0	0
2024-06-10 07:58:32			0	40763	0	0	0	26257	24850	124719	26934	1015751	41957	109724	0	0	8413	449110	0	0
2024-06-10 07:59:32			0	40780	0	0	0	26231	24850	124760	26833	1015805	41946	109714	0	0	8414	448521	0	0
2024-06-10 08:00:32			0	40796	0	0	0	26225	24850	124724	27237	1015697	41957	109712	0	0	8415	447966	0	0
2024-06-10 08:01:32			0	40800	0	0	0	26225	24840	124660	26864	1015662	41956	109712	0	0	8416	447853	0	0
2024-06-10 08:02:32			0	40789	0	0	0	26233	24860	124748	27104	1015741	41946	109715	0	0	8415	448184	0	0
2024-06-10 08:03:32			0	40815	0	0	0	26249	24840	124752	26781	1015716	41933	109721	0	0	8416	447334	0	0
2024-06-10 08:04:32			0	40818	0	0	0	26251	24840	124752	27017	1015769	41956	109722	0	0	8416	447230	0	0
2024-06-10 08:05:32			0	40816	0	0	0	26257	24850	124604	26734	1015805	41967	109724	0	0	8416	447274	0	0
2024-06-10 08:06:32			0	40811	0	0	0	26264	24850	124692	26961	1015805	41957	109727	0	0	8416	447447	0	0
2024-06-10 08:07:32			0	40804	0	0	0	26285	24850	124756	27128	1015840	41957	109735	0	0	8415	447689	0	0
2024-06-10 08:08:32			0	40813	0	0	0	26285	24850	124712	27090	1015867	41957	109735	0	0	8415	447378	0	0
2024-06-10 08:09:32			0	40807	0	0	0	26246	24850	124668	26922	1015760	41946	109720	0	0	8416	447586	0	0
2024-06-10 08:10:32			0	40827	0	0	0	26228	24850	124708	27020	1015671	41946	109713	0	0	8417	446894	0	0
2024-06-10 08:11:32			0	40795	0	0	0	26231	24840	124636	26948	1015716	41956	109714	0	0	8415	448027	0	0
2024-06-10 08:12:32			0	40792	0	0	0	26236	24850	124800	26913	1015724	41957	109716	0	0	8415	448105	0	0
2024-06-10 08:13:32			0	40797	0	0	0	26225	24840	124732	26991	1015689	41956	109712	0	0	8415	447957	0	0
2024-06-10 08:14:32			0	40772	0	0	0	26228	24850	124832	27100	1015724	41934	109713	0	0	8414	448798	0	0
2024-06-10 08:15:32			0	40815	0	0	0	26225	24840	124732	27260	1015716	41966	109712	0	0	8416	447334	0	0
2024-06-10 08:16:32			0	40821	0	0	0	26238	24830	124760	26975	1015698	41944	109717	0	0	8416	447152	0	0
2024-06-10 08:17:32			0	40798	0	0	0	26236	24840	124740	26916	1015742	41956	109716	0	0	8415	447923	0	0
2024-06-10 08:18:32			0	40813	0	0	0	26212	24850	124728	27161	1015751	41957	109707	0	0	8417	447378	0	0
2024-06-10 08:19:32			0	40818	0	0	0	26205	24830	124676	26911	1015663	41955	109704	0	0	8417	447256	0	0
2024-06-10 08:20:32			0	40621	0	0	0	26212	24830	125247	27121	1015618	41944	109707	0	0	8406	454099	0	0
2024-06-10 08:21:32			0	40474	0	0	0	26215	24830	125671	26896	1015698	41944	109708	0	0	8399	459241	0	0
2024-06-10 08:22:32			0	40503	0	0	0	26218	24830	125675	27308	1015672	41955	109709	0	0	8400	458224	0	0
2024-06-10 08:23:32			0	40533	0	0	0	26192	24830	125551	27111	1015636	41932	109699	0	0	8402	457174	0	0
2024-06-10 08:24:32			0	40564	0	0	0	26197	24830	125503	27055	1015610	41944	109701	0	0	8404	456089	0	0
2024-06-10 08:25:32			0	40540	0	0	0	26202	24830	125435	26956	1015663	41944	109703	0	0	8402	456929	0	0
2024-06-10 08:26:32			0	40276	0	0	0	26194	24820	126259	26890	1015566	41963	109700	0	0	8389	466243	0	0
2024-06-10 08:27:32			0	40162	0	0	0	26207	24820	126515	27010	1015548	41943	109705	0	0	8383	470285	0	0
2024-06-10 08:28:32			0	40163	0	0	0	26233	24820	126579	26977	1015700	41963	109715	0	0	8382	470250	0	0
2024-06-10 08:29:32			0	40204	0	0	0	26231	24820	126643	26965	1015628	41943	109714	0	0	8384	468794	0	0
2024-06-10 08:30:32			0	40224	0	0	0	26212	24810	126543	27090	1015664	41942	109707	0	0	8386	468111	0	0
2024-06-10 08:31:32			0	40214	0	0	0	26199	24820	126447	26927	1015601	41954	109702	0	0	8385	468439	0	0
2024-06-10 08:32:32			0	40241	0	0	0	26202	24820	126563	27164	1015619	41942	109703	0	0	8387	467482	0	0
2024-06-10 08:33:32			0	40196	0	0	0	26223	24820	126599	26984	1015655	41943	109711	0	0	8384	469078	0	0
2024-06-10 08:34:32			0	40187	0	0	0	26225	24810	126539	27126	1015637	41963	109712	0	0	8384	469424	0	0
2024-06-10 08:35:32			0	40184	0	0	0	26225	24820	126631	27076	1015673	41953	109712	0	0	8383	469504	0	0
2024-06-10 08:36:32			0	40168	0	0	0	26197	24810	126647	26982	1015602	41941	109701	0	0	8383	470099	0	0
2024-06-10 08:37:32			0	40135	0	0	0	26205	24810	126703	27178	1015637	41953	109704	0	0	8381	471272	0	0
2024-06-10 08:38:32			0	40065	0	0	0	26223	24820	126866	26932	1015646	41963	109711	0	0	8377	473740	0	0
2024-06-10 08:39:32			0	40015	0	0	0	26199	24810	127118	26955	1015584	41942	109702	0	0	8375	475553	0	0
2024-06-10 08:40:32			0	39977	0	0	0	26207	24820	127182	27464	1015619	41953	109705	0	0	8373	476886	0	0
2024-06-10 08:41:32			0	39913	0	0	0	26223	24820	127390	26774	1015646	41942	109711	0	0	8369	479181	0	0
2024-06-10 08:42:32			0	39802	0	0	0	26231	24820	127770	27176	1015673	41942	109714	0	0	8363	483176	0	0
2024-06-10 08:43:32			0	39830	0	0	0	26228	24810	127746	27019	1015611	41953	109713	0	0	8365	482194	0	0
2024-06-10 08:44:32			0	39776	0	0	0	26236	24820	127830	27057	1015700	41953	109716	0	0	8362	484115	0	0
2024-06-10 08:45:32			0	39739	0	0	0	26225	24820	127854	27326	1015681	41954	109712	0	0	8360	485452	0	0
2024-06-10 08:46:32			0	39703	0	0	0	26254	24820	128058	26686	1015646	41953	109723	0	0	8358	486756	0	0
2024-06-10 08:47:32			0	39722	0	0	0	26220	24830	127998	27180	1015690	41955	109710	0	0	8360	486040	0	0
2024-06-10 08:48:32			0	39736	0	0	0	26231	24820	128086	27582	1015681	41954	109714	0	0	8360	485561	0	0
2024-06-10 08:49:32			0	39703	0	0	0	26251	24820	128090	27112	1015681	41943	109722	0	0	8358	486756	0	0
2024-06-10 08:50:32			0	39734	0	0	0	26244	24830	128018	27180	1015725	41965	109719	0	0	8360	485606	0	0
2024-06-10 08:51:32			0	39746	0	0	0	26241	24830	127886	27012	1015743	41944	109718	0	0	8360	485172	0	0
2024-06-10 08:52:32			0	39745	0	0	0	26223	24830	127882	27007	1015690	41955	109711	0	0	8361	485208	0	0
2024-06-10 08:53:32			0	39736	0	0	0	26241	24820	128038	27128	1015762	41954	109718	0	0	8360	485561	0	0
2024-06-10 08:54:32			0	39708	0	0	0	26236	24820	128118	26925	1015681	41954	109716	0	0	8359	486574	0	0
2024-06-10 08:55:32			0	39661	0	0	0	26233	24830	128226	27105	1015698	41955	109715	0	0	8356	488251	0	0
2024-06-10 08:56:32			0	39649	0	0	0	26238	24820	128254	26935	1015708	41954	109717	0	0	8355	488714	0	0
2024-06-10 08:57:32			0	39660	0	0	0	26244	24840	128210	27003	1015734	41965	109719	0	0	8356	488259	0	0
2024-06-10 08:58:32			0	39663	0	0	0	26257	24830	128158	27092	1015725	41955	109724	0	0	8356	488178	0	0
2024-06-10 08:59:32			0	39684	0	0	0	26225	24830	128098	26949	1015725	41965	109712	0	0	8358	487417	0	0
2024-06-10 09:00:32			0	39657	0	0	0	26231	24830	128286	26583	1015725	41955	109714	0	0	8356	488396	0	0
2024-06-10 09:01:32			0	39608	0	0	0	26238	24840	128366	26961	1015769	41956	109717	0	0	8353	490148	0	0
2024-06-10 09:02:32			0	39612	0	0	0	26241	24830	128402	26868	1015698	41965	109718	0	0	8354	490031	0	0
2024-06-10 09:03:32			0	39630	0	0	0	26246	24830	128290	27074	1015743	41977	109720	0	0	8354	489377	0	0
2024-06-10 09:04:32			0	39637	0	0	0	26241	24840	128282	26861	1015761	41955	109718	0	0	8355	489094	0	0
2024-06-10 09:05:32			0	39606	0	0	0	26231	24830	128266	26642	1015698	41965	109714	0	0	8353	490249	0	0
2024-06-10 09:06:32			0	39582	0	0	0	26233	24830	128510	26857	1015725	41965	109715	0	0	8352	491123	0	0
2024-06-10 09:07:32			0	39583	0	0	0	26241	24840	128442	27074	1015761	41955	109718	0	0	8352	491058	0	0
2024-06-10 09:08:32			0	39562	0	0	0	26251	24840	128490	26831	1015742	41956	109722	0	0	8351	491823	0	0
2024-06-10 09:09:32			0	39583	0	0	0	26264	24840	128398	26634	1015761	41965	109727	0	0	8352	491058	0	0
2024-06-10 09:10:32			0	39587	0	0	0	26254	24840	128398	27133	1015796	41956	109723	0	0	8352	490913	0	0
2024-06-10 09:11:32			0	39584	0	0	0	26257	24840	128402	27199	1015769	41956	109724	0	0	8352	491022	0	0
2024-06-10 09:12:32			0	39577	0	0	0	26259	24840	128526	26769	1015787	41965	109725	0	0	8351	491277	0	0
2024-06-10 09:13:32			0	39555	0	0	0	26262	24850	128390	26854	1015805	41934	109726	0	0	8350	492050	0	0
2024-06-10 09:14:32			0	39560	0	0	0	26267	24850	128494	27130	1015813	41967	109728	0	0	8350	491868	0	0
2024-06-10 09:15:32			0	39552	0	0	0	26264	24850	128474	26866	1015831	41967	109727	0	0	8350	492160	0	0
2024-06-10 09:16:32			0	39558	0	0	0	26264	24850	128498	27060	1015867	41967	109727	0	0	8350	491941	0	0
2024-06-10 09:17:32			0	39540	0	0	0	26272	24850	128498	26852	1015893	41957	109730	0	0	8349	492597	0	0
2024-06-10 09:18:32			0	39557	0	0	0	26267	24850	128550	27100	1015805	41957	109728	0	0	8350	491978	0	0
2024-06-10 09:19:32			0	39519	0	0	0	26275	24860	128574	26864	1015822	41967	109731	0	0	8348	493336	0	0
2024-06-10 09:20:32			0	39510	0	0	0	26275	24860	128618	26961	1015822	41967	109731	0	0	8348	493664	0	0
2024-06-10 09:21:32			0	39525	0	0	0	26280	24860	128702	26850	1015875	41946	109733	0	0	8348	493117	0	0
2024-06-10 09:22:32			0	39512	0	0	0	26275	24870	128614	26880	1015919	41958	109731	0	0	8348	493563	0	0
2024-06-10 09:23:32			0	39535	0	0	0	26283	24860	128582	26989	1015902	41957	109734	0	0	8349	492752	0	0
2024-06-10 09:24:32			0	39550	0	0	0	26298	24870	128538	27164	1015919	41947	109740	0	0	8350	492177	0	0
2024-06-10 09:25:32			0	39568	0	0	0	26298	24870	128470	26757	1015928	41947	109740	0	0	8350	491521	0	0
2024-06-10 09:26:32			0	39597	0	0	0	26293	24870	128298	26674	1015981	41947	109738	0	0	8352	490465	0	0
2024-06-10 09:27:32			0	39608	0	0	0	26301	24880	128318	27057	1015936	41958	109741	0	0	8353	490037	0	0
2024-06-10 09:28:32			0	39614	0	0	0	26309	24880	128238	26908	1015963	41969	109744	0	0	8353	489819	0	0
2024-06-10 09:29:32			0	39615	0	0	0	26306	24880	128342	26977	1015998	41981	109743	0	0	8353	489783	0	0
2024-06-10 09:30:32			0	39623	0	0	0	26306	24880	128274	26823	1015963	41969	109743	0	0	8353	489492	0	0
2024-06-10 09:31:32			0	39628	0	0	0	26316	24890	128166	26845	1016034	41959	109747	0	0	8353	489283	0	0
2024-06-10 09:32:32			0	39661	0	0	0	26319	24890	128178	26771	1016007	41959	109748	0	0	8355	488085	0	0
2024-06-10 09:33:32			0	39675	0	0	0	26324	24900	128158	26786	1016051	41950	109750	0	0	8356	487549	0	0
2024-06-10 09:34:32			0	39695	0	0	0	26314	24900	128038	27067	1016051	41960	109746	0	0	8357	486825	0	0
2024-06-10 09:35:32			0	39679	0	0	0	26316	24890	128106	26968	1016042	41960	109747	0	0	8356	487432	0	0
2024-06-10 09:36:32			0	39679	0	0	0	26327	24910	128070	26750	1016095	41961	109751	0	0	8356	487377	0	0
2024-06-10 09:37:32			0	39675	0	0	0	26324	24900	128066	26958	1016059	41950	109750	0	0	8356	487549	0	0
2024-06-10 09:38:32			0	39683	0	0	0	26332	24910	128002	26680	1016095	41951	109753	0	0	8356	487232	0	0
2024-06-10 09:39:32			0	39751	0	0	0	26335	24910	127890	27005	1016175	41973	109754	0	0	8359	484771	0	0
2024-06-10 09:40:32			0	39789	0	0	0	26348	24920	127698	27066	1016184	41974	109759	0	0	8361	483371	0	0
2024-06-10 09:41:32			0	39831	0	0	0	26340	24920	127606	27227	1016157	41974	109756	0	0	8364	481858	0	0
2024-06-10 09:42:32			0	39875	0	0	0	26358	24920	127594	26788	1016157	41974	109763	0	0	8366	480274	0	0
2024-06-10 09:43:32			0	39877	0	0	0	26348	24930	127446	27081	1016174	41962	109759	0	0	8366	480175	0	0
2024-06-10 09:44:32			0	39908	0	0	0	26353	24930	127390	26909	1016201	41974	109761	0	0	8367	479062	0	0
2024-06-10 09:45:32			0	39948	0	0	0	26368	24930	127262	26727	1016308	41962	109767	0	0	8369	477627	0	0
2024-06-10 09:46:32			0	39980	0	0	0	26368	24940	127246	27046	1016272	41964	109767	0	0	8371	476454	0	0
2024-06-10 09:47:32			0	40016	0	0	0	26379	24940	127130	27074	1016272	41964	109771	0	0	8373	475167	0	0
2024-06-10 09:48:32			0	40046	0	0	0	26371	24950	126970	26845	1016289	41975	109768	0	0	8374	474069	0	0
2024-06-10 09:49:32			0	40079	0	0	0	26368	24950	126822	26637	1016342	41975	109767	0	0	8376	472892	0	0
2024-06-10 09:50:32			0	40134	0	0	0	26373	24950	126723	26824	1016342	41975	109769	0	0	8379	470934	0	0
2024-06-10 09:51:32			0	40151	0	0	0	26379	24950	126631	26687	1016378	41965	109771	0	0	8380	470330	0	0
2024-06-10 09:52:32			0	40181	0	0	0	26381	24960	126511	27036	1016386	41966	109772	0	0	8381	469238	0	0
2024-06-10 09:53:32			0	40214	0	0	0	26389	24950	126391	26885	1016378	41955	109775	0	0	8383	468094	0	0
2024-06-10 09:54:32			0	40235	0	0	0	26389	24960	126263	27242	1016360	41956	109775	0	0	8384	467324	0	0
2024-06-10 09:55:32			0	40260	0	0	0	26384	24960	126275	26928	1016306	41966	109773	0	0	8385	466439	0	0
2024-06-10 09:56:32			0	40279	0	0	0	26394	24960	126275	27036	1016368	41978	109777	0	0	8386	465767	0	0
2024-06-10 09:57:32			0	40319	0	0	0	26392	24960	126119	27105	1016368	41967	109776	0	0	8388	464355	0	0
2024-06-10 09:58:32			0	40353	0	0	0	26394	24970	126011	26908	1016404	41967	109777	0	0	8390	463130	0	0
2024-06-10 09:59:32			0	40379	0	0	0	26399	24970	125895	26932	1016404	41978	109779	0	0	8391	462214	0	0
2024-06-10 10:00:32			0	40408	0	0	0	26397	24980	125863	27116	1016501	41979	109778	0	0	8393	461168	0	0
2024-06-10 10:01:32			0	40413	0	0	0	26405	24980	125755	27022	1016429	41991	109781	0	0	8393	460992	0	0
2024-06-10 10:02:32			0	40453	0	0	0	26402	24980	125639	27156	1016456	41980	109780	0	0	8395	459588	0	0
2024-06-10 10:03:32			0	40483	0	0	0	26405	24980	125671	26993	1016510	41969	109781	0	0	8397	458535	0	0
2024-06-10 10:04:32			0	40499	0	0	0	26405	24970	125551	26948	1016466	41989	109781	0	0	8397	458001	0	0
2024-06-10 10:05:32			0	40499	0	0	0	26405	24980	125575	27060	1016536	41969	109781	0	0	8397	457975	0	0
2024-06-10 10:06:32			0	40512	0	0	0	26410	24990	125483	26918	1016545	41969	109783	0	0	8398	457494	0	0
2024-06-10 10:07:32			0	40529	0	0	0	26399	24980	125363	27031	1016536	41969	109779	0	0	8399	456925	0	0
2024-06-10 10:08:32			0	40517	0	0	0	26397	24980	125503	26948	1016474	41979	109778	0	0	8398	457345	0	0
2024-06-10 10:09:32			0	40513	0	0	0	26397	24990	125575	27005	1016465	41991	109778	0	0	8398	457459	0	0
2024-06-10 10:10:32			0	40515	0	0	0	26394	24980	125515	27001	1016483	41969	109777	0	0	8398	457415	0	0
2024-06-10 10:11:32			0	40480	0	0	0	26402	24980	125623	27253	1016456	41980	109780	0	0	8396	458641	0	0
2024-06-10 10:12:32			0	40495	0	0	0	26410	24990	125631	26991	1016545	41980	109783	0	0	8397	458089	0	0
2024-06-10 10:13:32			0	40517	0	0	0	26407	24990	125507	26859	1016465	41969	109782	0	0	8398	457319	0	0
2024-06-10 10:14:32			0	40555	0	0	0	26402	24990	125439	27150	1016545	41980	109780	0	0	8400	455990	0	0
2024-06-10 10:15:32			0	40550	0	0	0	26405	24990	125439	27069	1016580	41980	109781	0	0	8400	456165	0	0
2024-06-10 10:16:32			0	40567	0	0	0	26407	24990	125387	27043	1016553	41980	109782	0	0	8401	455571	0	0
2024-06-10 10:17:32			0	40544	0	0	0	26402	24980	125363	26675	1016456	41969	109780	0	0	8400	456401	0	0
2024-06-10 10:18:32			0	40595	0	0	0	26402	24990	125291	26885	1016580	41958	109780	0	0	8402	454594	0	0
2024-06-10 10:19:32			0	40598	0	0	0	26405	24990	125411	26956	1016572	41958	109781	0	0	8403	454489	0	0
2024-06-10 10:20:32			0	40639	0	0	0	26407	24990	125255	27064	1016553	41969	109782	0	0	8405	453060	0	0
2024-06-10 10:21:32			0	40644	0	0	0	26415	25000	125299	27135	1016589	41969	109785	0	0	8405	452861	0	0
2024-06-10 10:22:32			0	40674	0	0	0	26415	24990	125127	27036	1016553	41958	109785	0	0	8406	451843	0	0
2024-06-10 10:23:32			0	40690	0	0	0	26415	25000	125063	26719	1016589	41969	109785	0	0	8407	451261	0	0
2024-06-10 10:24:32			0	40702	0	0	0	26420	24990	125091	27024	1016553	41969	109787	0	0	8408	450870	0	0
2024-06-10 10:25:32			0	40708	0	0	0	26420	25000	125035	26981	1016624	41982	109787	0	0	8408	450636	0	0
2024-06-10 10:26:32			0	40712	0	0	0	26415	25010	124975	27135	1016499	41982	109785	0	0	8408	450471	0	0
2024-06-10 10:27:32			0	40746	0	0	0	26425	25000	124907	26811	1016624	41993	109789	0	0	8410	449317	0	0
2024-06-10 10:28:32			0	40764	0	0	0	26423	25010	124839	26925	1016642	41982	109788	0	0	8411	448668	0	0
2024-06-10 10:29:32			0	40775	0	0	0	26420	25000	124807	26889	1016589	41981	109787	0	0	8412	448313	0	0
2024-06-10 10:30:32			0	40774	0	0	0	26423	25010	124824	27189	1016633	41959	109788	0	0	8412	448322	0	0
2024-06-10 10:31:32			0	40801	0	0	0	26423	25010	124724	27270	1016606	41982	109788	0	0	8413	447388	0	0
2024-06-10 10:32:32			0	40824	0	0	0	26428	25010	124684	26955	1016660	41970	109790	0	0	8414	446592	0	0
2024-06-10 10:33:32			0	40842	0	0	0	26420	25000	124728	27150	1016624	41982	109787	0	0	8415	445996	0	0
2024-06-10 10:34:32			0	40845	0	0	0	26423	25010	124700	27043	1016588	41970	109788	0	0	8415	445867	0	0
2024-06-10 10:35:32			0	40856	0	0	0	26428	25010	124680	26706	1016642	41982	109790	0	0	8416	445487	0	0
2024-06-10 10:36:32			0	40855	0	0	0	26425	25010	124556	26812	1016668	41982	109789	0	0	8416	445522	0	0
2024-06-10 10:37:32			0	40879	0	0	0	26433	25010	124504	27111	1016642	41993	109792	0	0	8417	444694	0	0
2024-06-10 10:38:32			0	40897	0	0	0	26438	25020	124508	26590	1016739	41972	109794	0	0	8418	444048	0	0
2024-06-10 10:39:32			0	40896	0	0	0	26431	25010	124508	26857	1016633	41970	109791	0	0	8418	444108	0	0
2024-06-10 10:40:32			0	40894	0	0	0	26436	25010	124440	26760	1016740	41982	109793	0	0	8418	444177	0	0
2024-06-10 10:41:32			0	40897	0	0	0	26431	25020	124444	27216	1016659	41984	109791	0	0	8418	444048	0	0
2024-06-10 10:42:32			0	40927	0	0	0	26436	25020	124440	26635	1016686	41972	109793	0	0	8419	443015	0	0
2024-06-10 10:43:32			0	40900	0	0	0	26444	25010	124416	27059	1016695	41982	109796	0	0	8418	443970	0	0
2024-06-10 10:44:32			0	40934	0	0	0	26444	25020	124400	26791	1016784	41960	109796	0	0	8420	442775	0	0
2024-06-10 10:45:32			0	40913	0	0	0	26451	25020	124428	26989	1016731	41994	109799	0	0	8418	443497	0	0
2024-06-10 10:46:32			0	40923	0	0	0	26467	25030	124404	27365	1016775	41973	109805	0	0	8419	443128	0	0
2024-06-10 10:47:32			0	40920	0	0	0	26459	25020	124392	26828	1016686	41995	109802	0	0	8419	443256	0	0
2024-06-10 10:48:32			0	40914	0	0	0	26457	25030	124488	27085	1016748	41984	109801	0	0	8418	443438	0	0
2024-06-10 10:49:32			0	40916	0	0	0	26464	25040	124456	27007	1016827	41985	109804	0	0	8418	443344	0	0
2024-06-10 10:50:32			0	40928	0	0	0	26467	25040	124396	26769	1016800	41985	109805	0	0	8419	442931	0	0
2024-06-10 10:51:32			0	40893	0	0	0	26462	25050	124476	27161	1016862	41986	109803	0	0	8417	444110	0	0
2024-06-10 10:52:32			0	40917	0	0	0	26477	25050	124488	26778	1016836	41998	109809	0	0	8418	443284	0	0
2024-06-10 10:53:32			0	40900	0	0	0	26470	25050	124528	27227	1016845	41998	109806	0	0	8417	443869	0	0
2024-06-10 10:54:32			0	40886	0	0	0	26483	25050	124552	27227	1016836	41998	109811	0	0	8417	444352	0	0
2024-06-10 10:55:32			0	40902	0	0	0	26475	25050	124420	26977	1016818	41975	109808	0	0	8418	443801	0	0
2024-06-10 10:56:32			0	40903	0	0	0	26493	25060	124456	27152	1016826	41998	109815	0	0	8417	443741	0	0
2024-06-10 10:57:32			0	40901	0	0	0	26483	25060	124420	26932	1016853	41998	109811	0	0	8417	443810	0	0
2024-06-10 10:58:32			0	40860	0	0	0	26493	25070	124516	27166	1016977	41988	109815	0	0	8415	445198	0	0
2024-06-10 10:59:32			0	40892	0	0	0	26493	25080	124452	27013	1016914	41988	109815	0	0	8417	444070	0	0
2024-06-10 11:00:32			0	40908	0	0	0	26501	25060	124368	26965	1016942	41998	109818	0	0	8417	443569	0	0
2024-06-10 11:01:32			0	40921	0	0	0	26514	25080	124336	26847	1016941	41988	109823	0	0	8418	443071	0	0
2024-06-10 11:02:32			0	40948	0	0	0	26506	25070	124280	27031	1016924	41988	109820	0	0	8419	442168	0	0
2024-06-10 11:03:32			0	40941	0	0	0	26519	25080	124244	27192	1017003	41989	109825	0	0	8419	442383	0	0
2024-06-10 11:04:32			0	40948	0	0	0	26519	25090	124340	26602	1017012	41990	109825	0	0	8419	442117	0	0
2024-06-10 11:05:32			0	40966	0	0	0	26511	25090	124288	26948	1017074	41991	109822	0	0	8420	441499	0	0
2024-06-10 11:06:32			0	40995	0	0	0	26522	25090	124232	26833	1017047	41979	109826	0	0	8422	440504	0	0
2024-06-10 11:07:32			0	40949	0	0	0	26527	25090	124300	27029	1017074	42001	109828	0	0	8419	442083	0	0
2024-06-10 11:08:32			0	40925	0	0	0	26529	25090	124400	27076	1017065	41990	109829	0	0	8418	442908	0	0
2024-06-10 11:09:32			0	40927	0	0	0	26524	25100	124340	27022	1017145	41991	109827	0	0	8418	442815	0	0
2024-06-10 11:10:32			0	40957	0	0	0	26529	25110	124312	26975	1017100	42002	109829	0	0	8420	441758	0	0
2024-06-10 11:11:32			0	40941	0	0	0	26527	25100	124288	27211	1017118	41991	109828	0	0	8419	442333	0	0
2024-06-10 11:12:32			0	40930	0	0	0	26524	25100	124260	27364	1017064	41991	109827	0	0	8418	442711	0	0
2024-06-10 11:13:32			0	40941	0	0	0	26535	25100	124272	26873	1017171	42001	109831	0	0	8419	442333	0	0
2024-06-10 11:14:32			0	40951	0	0	0	26535	25100	124304	27412	1017118	41979	109831	0	0	8419	441989	0	0
2024-06-10 11:15:32			0	40933	0	0	0	26545	25110	124296	27183	1017162	41993	109835	0	0	8418	442583	0	0
2024-06-10 11:16:32			0	40954	0	0	0	26535	25130	124256	27012	1017241	42004	109831	0	0	8420	441811	0	0
2024-06-10 11:17:32			0	40948	0	0	0	26548	25120	124212	27208	1017170	41993	109836	0	0	8419	442042	0	0
2024-06-10 11:18:32			0	40954	0	0	0	26542	25110	124288	26837	1017215	42003	109834	0	0	8419	441861	0	0
2024-06-10 11:19:32			0	40958	0	0	0	26537	25120	124176	27003	1017197	41993	109832	0	0	8420	441699	0	0
2024-06-10 11:20:32			0	40972	0	0	0	26537	25120	124284	27131	1017251	42003	109832	0	0	8420	441218	0	0
2024-06-10 11:21:32			0	40985	0	0	0	26548	25120	124216	27128	1017251	42003	109836	0	0	8421	440772	0	0
2024-06-10 11:22:32			0	40969	0	0	0	26568	25130	124232	27010	1017214	42015	109844	0	0	8420	441296	0	0
2024-06-10 11:23:32			0	40977	0	0	0	26555	25120	124212	26989	1017232	41981	109839	0	0	8420	441046	0	0
2024-06-10 11:24:32			0	40975	0	0	0	26563	25130	124152	27034	1017241	42004	109842	0	0	8420	441090	0	0
2024-06-10 11:25:32			0	40965	0	0	0	26561	25130	124176	27019	1017276	42005	109841	0	0	8420	441433	0	0
2024-06-10 11:26:32			0	41006	0	0	0	26558	25140	124120	27024	1017285	41994	109840	0	0	8422	440002	0	0
2024-06-10 11:27:32			0	41027	0	0	0	26558	25140	124012	26960	1017213	42005	109840	0	0	8423	439282	0	0
2024-06-10 11:28:32			0	41005	0	0	0	26581	25130	124168	26918	1017330	42005	109849	0	0	8421	440061	0	0
2024-06-10 11:29:32			0	41007	0	0	0	26584	25140	124100	27248	1017293	42016	109850	0	0	8422	439967	0	0
2024-06-10 11:30:32			0	40990	0	0	0	26584	25150	124216	26875	1017329	42006	109850	0	0	8421	440525	0	0
2024-06-10 11:31:32			0	41021	0	0	0	26584	25150	124164	27322	1017436	42006	109850	0	0	8422	439463	0	0
2024-06-10 11:32:32			0	41005	0	0	0	26592	25150	124208	26864	1017391	41996	109853	0	0	8421	440011	0	0
2024-06-10 11:33:32			0	41014	0	0	0	26586	25160	124132	27050	1017328	41986	109851	0	0	8422	439678	0	0
2024-06-10 11:34:32			0	41027	0	0	0	26584	25160	124132	27215	1017400	41996	109850	0	0	8423	439232	0	0
2024-06-10 11:35:32			0	41022	0	0	0	26599	25170	124088	27003	1017417	41997	109856	0	0	8422	439379	0	0
2024-06-10 11:36:32			0	41039	0	0	0	26589	25160	124100	26908	1017346	41996	109852	0	0	8423	438821	0	0
2024-06-10 11:37:32			0	41044	0	0	0	26597	25170	124044	27197	1017390	42008	109855	0	0	8423	438626	0	0
2024-06-10 11:38:32			0	41026	0	0	0	26599	25170	124124	27029	1017532	42020	109856	0	0	8422	439242	0	0
2024-06-10 11:39:32			0	41028	0	0	0	26592	25170	124084	27024	1017443	41997	109853	0	0	8423	439173	0	0
2024-06-10 11:40:32			0	41047	0	0	0	26612	25180	124064	27126	1017488	42008	109861	0	0	8423	438498	0	0
2024-06-10 11:41:32			0	41034	0	0	0	26597	25180	124072	26772	1017515	42008	109855	0	0	8423	438943	0	0
2024-06-10 11:42:32			0	41065	0	0	0	26594	25180	123960	26743	1017515	41998	109854	0	0	8425	437882	0	0
2024-06-10 11:43:32			0	41064	0	0	0	26607	25170	124028	26759	1017452	41998	109859	0	0	8424	437941	0	0
2024-06-10 11:44:32			0	41077	0	0	0	26602	25170	123932	27001	1017452	41998	109857	0	0	8425	437497	0	0
2024-06-10 11:45:32			0	41099	0	0	0	26592	25180	123940	27206	1017496	42009	109853	0	0	8426	436721	0	0
2024-06-10 11:46:32			0	41103	0	0	0	26605	25170	123876	26861	1017524	42008	109858	0	0	8426	436609	0	0
2024-06-10 11:47:32			0	41091	0	0	0	26623	25180	123816	26991	1017550	41999	109865	0	0	8425	436994	0	0
2024-06-10 11:48:32			0	41095	0	0	0	26615	25170	123940	26866	1017532	42008	109862	0	0	8426	436882	0	0
2024-06-10 11:49:32			0	41079	0	0	0	26620	25180	123960	27033	1017550	41988	109864	0	0	8425	437404	0	0
2024-06-10 11:50:32			0	41117	0	0	0	26610	25200	123904	26974	1017567	42010	109860	0	0	8427	436057	0	0
2024-06-10 11:51:32			0	41117	0	0	0	26628	25200	123836	27036	1017549	42000	109867	0	0	8427	436057	0	0
2024-06-10 11:52:32			0	41107	0	0	0	26623	25200	123856	27020	1017594	42000	109865	0	0	8426	436398	0	0
2024-06-10 11:53:32			0	41100	0	0	0	26623	25200	123880	26948	1017576	42000	109865	0	0	8426	436637	0	0
2024-06-10 11:54:32			0	41128	0	0	0	26625	25200	123888	27284	1017567	41989	109866	0	0	8427	435682	0	0
2024-06-10 11:55:32			0	41118	0	0	0	26625	25200	123884	27078	1017576	42000	109866	0	0	8427	436023	0	0
2024-06-10 11:56:32			0	41136	0	0	0	26649	25200	123816	27166	1017576	42000	109875	0	0	8427	435409	0	0
2024-06-10 11:57:32			0	41133	0	0	0	26641	25210	123852	27242	1017665	42011	109872	0	0	8427	435487	0	0
2024-06-10 11:58:32			0	41112	0	0	0	26628	25220	123820	27119	1017628	42001	109867	0	0	8427	436178	0	0
2024-06-10 11:59:32			0	41120	0	0	0	26636	25210	123792	27255	1017620	42022	109870	0	0	8427	435930	0	0
2024-06-10 12:00:32			0	41119	0	0	0	26646	25220	123772	27218	1017637	42002	109874	0	0	8427	435939	0	0
2024-06-10 12:01:32			0	41119	0	0	0	26644	25210	123772	27255	1017646	42011	109873	0	0	8427	435964	0	0
2024-06-10 12:02:32			0	41124	0	0	0	26657	25230	123832	27345	1017726	42002	109878	0	0	8427	435744	0	0
2024-06-10 12:03:32			0	41116	0	0	0	26654	25230	123840	27170	1017753	42024	109877	0	0	8426	436017	0	0
2024-06-10 12:04:32			0	41129	0	0	0	26657	25230	123760	27095	1017708	42002	109878	0	0	8427	435573	0	0
2024-06-10 12:05:32			0	41154	0	0	0	26646	25230	123760	27338	1017788	42025	109874	0	0	8429	434721	0	0
2024-06-10 12:06:32			0	41134	0	0	0	26646	25220	123768	27154	1017690	42002	109874	0	0	8427	435428	0	0
2024-06-10 12:07:32			0	41128	0	0	0	26633	25220	123824	27251	1017717	42002	109869	0	0	8427	435632	0	0
2024-06-10 12:08:32			0	41158	0	0	0	26651	25230	123740	27460	1017753	42002	109876	0	0	8429	434585	0	0
2024-06-10 12:09:32			0	41170	0	0	0	26641	25240	123708	27289	1017716	42002	109872	0	0	8430	434152	0	0
2024-06-10 12:10:32			0	41152	0	0	0	26654	25240	123700	27196	1017689	42014	109877	0	0	8428	434765	0	0
2024-06-10 12:11:32			0	41163	0	0	0	26644	25230	123732	27223	1017734	42002	109873	0	0	8429	434415	0	0
2024-06-10 12:12:32			0	41158	0	0	0	26646	25230	123736	27346	1017681	42002	109874	0	0	8429	434585	0	0
2024-06-10 12:13:32			0	41171	0	0	0	26641	25230	123684	27052	1017681	42025	109872	0	0	8430	434143	0	0
2024-06-10 12:14:32			0	41152	0	0	0	26657	25230	123708	27124	1017681	42014	109878	0	0	8428	434790	0	0
2024-06-10 12:15:32			0	41157	0	0	0	26649	25240	123652	26942	1017778	42003	109875	0	0	8429	434595	0	0
2024-06-10 12:16:32			0	41168	0	0	0	26649	25240	123668	27048	1017743	42002	109875	0	0	8429	434220	0	0
2024-06-10 12:17:32			0	41183	0	0	0	26670	25240	123768	27455	1017743	42014	109883	0	0	8430	433710	0	0
2024-06-10 12:18:32			0	41145	0	0	0	26654	25250	123636	27131	1017760	42015	109877	0	0	8428	434979	0	0
2024-06-10 12:19:32			0	41140	0	0	0	26664	25240	123732	27213	1017796	42014	109881	0	0	8428	435174	0	0
2024-06-10 12:20:32			0	41165	0	0	0	26670	25230	123700	27227	1017788	42014	109883	0	0	8429	434347	0	0
2024-06-10 12:21:32			0	41153	0	0	0	26667	25250	123744	26857	1017814	42015	109882	0	0	8428	434706	0	0
2024-06-10 12:22:32			0	41163	0	0	0	26683	25250	123748	27124	1017840	42003	109888	0	0	8428	434366	0	0
2024-06-10 12:23:32			0	41145	0	0	0	26683	25250	123752	27199	1017840	42015	109888	0	0	8428	434979	0	0
2024-06-10 12:24:32			0	41144	0	0	0	26672	25250	123712	26755	1017849	42016	109884	0	0	8428	435013	0	0
2024-06-10 12:25:32			0	41124	0	0	0	26664	25260	123764	26821	1017831	42004	109881	0	0	8427	435670	0	0
2024-06-10 12:26:32			0	41159	0	0	0	26667	25260	123712	26942	1017858	42027	109882	0	0	8429	434477	0	0
2024-06-10 12:27:32			0	41170	0	0	0	26654	25260	123696	27229	1017804	42004	109877	0	0	8429	434103	0	0
2024-06-10 12:28:32			0	41153	0	0	0	26680	25260	123732	27189	1017813	42005	109887	0	0	8428	434682	0	0
2024-06-10 12:29:32			0	41167	0	0	0	26693	25260	123640	27223	1017866	42017	109892	0	0	8429	434205	0	0
2024-06-10 12:30:32			0	41165	0	0	0	26698	25260	123732	26989	1017866	42028	109894	0	0	8428	434273	0	0
2024-06-10 12:31:32			0	41133	0	0	0	26701	25270	123680	26757	1017902	42005	109895	0	0	8427	435338	0	0
2024-06-10 12:32:32			0	41157	0	0	0	26685	25270	123764	26739	1017937	42017	109889	0	0	8428	434521	0	0
2024-06-10 12:33:32			0	41153	0	0	0	26683	25260	123692	26632	1017866	42017	109888	0	0	8428	434682	0	0
2024-06-10 12:34:32			0	41157	0	0	0	26688	25270	123632	26904	1017875	42005	109890	0	0	8428	434521	0	0
2024-06-10 12:35:32			0	41174	0	0	0	26683	25260	123736	27066	1017866	42017	109888	0	0	8429	433967	0	0
2024-06-10 12:36:32			0	41177	0	0	0	26693	25270	123696	27123	1017902	42028	109892	0	0	8429	433840	0	0
2024-06-10 12:37:32			0	41160	0	0	0	26690	25270	123720	27048	1017910	42017	109891	0	0	8428	434419	0	0
2024-06-10 12:38:32			0	41157	0	0	0	26724	25270	123744	26854	1017990	42029	109904	0	0	8428	434521	0	0
2024-06-10 12:39:32			0	41163	0	0	0	26719	25270	123728	27038	1018035	42028	109902	0	0	8428	434316	0	0
2024-06-10 12:40:32			0	41155	0	0	0	26706	25280	123732	27150	1018008	42018	109897	0	0	8428	434564	0	0
2024-06-10 12:41:32			0	41149	0	0	0	26732	25290	123716	27140	1017989	42018	109907	0	0	8427	434744	0	0
2024-06-10 12:42:32			0	41143	0	0	0	26727	25290	123732	26948	1018016	42030	109905	0	0	8427	434948	0	0
2024-06-10 12:43:32			0	41153	0	0	0	26729	25300	123712	27111	1018060	42020	109906	0	0	8427	434583	0	0
2024-06-10 12:44:32			0	41155	0	0	0	26735	25300	123708	27189	1018033	42032	109908	0	0	8427	434515	0	0
2024-06-10 12:45:32			0	41136	0	0	0	26724	25300	123724	26942	1018060	42032	109904	0	0	8427	435162	0	0
2024-06-10 12:46:32			0	41148	0	0	0	26729	25300	123624	27121	1018123	42020	109906	0	0	8427	434753	0	0
2024-06-10 12:47:32			0	41139	0	0	0	26729	25300	123628	26986	1018042	42009	109906	0	0	8427	435059	0	0
2024-06-10 12:48:32			0	41154	0	0	0	26740	25290	123796	27208	1018078	42031	109910	0	0	8427	434573	0	0
2024-06-10 12:49:32			0	41152	0	0	0	26729	25300	123760	27241	1018087	42032	109906	0	0	8427	434617	0	0
2024-06-10 12:50:32			0	41137	0	0	0	26729	25310	123724	27171	1018104	42033	109906	0	0	8427	435103	0	0
2024-06-10 12:51:32			0	41160	0	0	0	26758	25320	123696	26909	1018175	42022	109917	0	0	8427	434295	0	0
2024-06-10 12:52:32			0	41147	0	0	0	26745	25310	123764	26981	1018104	42021	109912	0	0	8427	434762	0	0
2024-06-10 12:53:32			0	41138	0	0	0	26742	25320	123728	26856	1018237	42033	109911	0	0	8426	435044	0	0
2024-06-10 12:54:32			0	41142	0	0	0	26742	25310	123684	27114	1018167	42021	109911	0	0	8427	434933	0	0
2024-06-10 12:55:32			0	41135	0	0	0	26750	25320	123640	27436	1018175	42011	109914	0	0	8426	435146	0	0
2024-06-10 12:56:32			0	41131	0	0	0	26750	25320	123724	27121	1018229	42022	109914	0	0	8426	435283	0	0
2024-06-10 12:57:32			0	41115	0	0	0	26750	25320	123780	27168	1018157	42011	109914	0	0	8425	435828	0	0
2024-06-10 12:58:32			0	41122	0	0	0	26758	25330	123812	27072	1018228	42023	109917	0	0	8425	435565	0	0
2024-06-10 12:59:32			0	41124	0	0	0	26761	25330	123680	27230	1018255	42034	109918	0	0	8425	435497	0	0
2024-06-10 13:00:32			0	41123	0	0	0	26761	25330	123728	26974	1018219	42023	109918	0	0	8425	435530	0	0
2024-06-10 13:01:32			0	41110	0	0	0	26771	25330	123884	26850	1018228	42012	109922	0	0	8425	435974	0	0
2024-06-10 13:02:32			0	41090	0	0	0	26776	25330	123840	27085	1018228	42012	109924	0	0	8423	436656	0	0
2024-06-10 13:03:32			0	41088	0	0	0	26789	25340	123940	27145	1018299	42025	109929	0	0	8423	436699	0	0
2024-06-10 13:04:32			0	41074	0	0	0	26771	25350	123804	26932	1018280	42025	109922	0	0	8423	437152	0	0
2024-06-10 13:05:32			0	41080	0	0	0	26786	25340	123868	27341	1018325	42036	109928	0	0	8423	436972	0	0
2024-06-10 13:06:32			0	41063	0	0	0	26779	25340	123868	27138	1018379	42025	109925	0	0	8422	437553	0	0
2024-06-10 13:07:32			0	41064	0	0	0	26786	25350	123908	27355	1018369	42036	109928	0	0	8422	437494	0	0
2024-06-10 13:08:32			0	41068	0	0	0	26789	25370	123860	27319	1018341	42027	109929	0	0	8422	437308	0	0
2024-06-10 13:09:32			0	41056	0	0	0	26805	25360	123896	27230	1018440	42027	109935	0	0	8421	437742	0	0
2024-06-10 13:10:32			0	41059	0	0	0	26797	25360	123880	27074	1018458	42026	109932	0	0	8422	437640	0	0
2024-06-10 13:11:32			0	41046	0	0	0	26805	25360	123828	27391	1018378	42026	109935	0	0	8421	438084	0	0
2024-06-10 13:12:32			0	41047	0	0	0	26810	25370	123964	26993	1018457	42038	109937	0	0	8421	438025	0	0
2024-06-10 13:13:32			0	41036	0	0	0	26810	25380	123928	27107	1018439	42027	109937	0	0	8420	438376	0	0
2024-06-10 13:14:32			0	41013	0	0	0	26815	25380	123932	27118	1018528	42028	109939	0	0	8419	439163	0	0
2024-06-10 13:15:32			0	41033	0	0	0	26820	25380	123996	27142	1018474	42050	109941	0	0	8420	438479	0	0
2024-06-10 13:16:32			0	41043	0	0	0	26812	25390	123992	27059	1018545	42041	109938	0	0	8421	438112	0	0
2024-06-10 13:17:32			0	41013	0	0	0	26825	25390	124008	27114	1018572	42041	109943	0	0	8419	439138	0	0
2024-06-10 13:18:32			0	41037	0	0	0	26823	25400	124008	27341	1018554	42029	109942	0	0	8420	438292	0	0
2024-06-10 13:19:32			0	41016	0	0	0	26828	25390	124024	27474	1018545	42041	109944	0	0	8419	439035	0	0
2024-06-10 13:20:32			0	41009	0	0	0	26836	25390	123992	27079	1018572	42041	109947	0	0	8418	439275	0	0
2024-06-10 13:21:32			0	40973	0	0	0	26828	25400	124076	27216	1018581	42041	109944	0	0	8417	440483	0	0
2024-06-10 13:22:32			0	40979	0	0	0	26836	25400	124136	27234	1018581	42029	109947	0	0	8417	440277	0	0
2024-06-10 13:23:32			0	40965	0	0	0	26831	25400	124176	27112	1018607	42051	109945	0	0	8416	440757	0	0
2024-06-10 13:24:32			0	40994	0	0	0	26831	25410	124196	27199	1018633	42041	109945	0	0	8418	439738	0	0
2024-06-10 13:25:32			0	40966	0	0	0	26864	25420	124168	27024	1018722	42031	109958	0	0	8416	440673	0	0
2024-06-10 13:26:32			0	40961	0	0	0	26849	25410	124232	27133	1018767	42020	109952	0	0	8416	440869	0	0
2024-06-10 13:27:32			0	40942	0	0	0	26862	25430	124240	27123	1018695	42033	109957	0	0	8415	441471	0	0
2024-06-10 13:28:32			0	40981	0	0	0	26859	25420	124316	26953	1018704	42054	109956	0	0	8417	440159	0	0
2024-06-10 13:29:32			0	40975	0	0	0	26864	25430	124128	27039	1018766	42043	109958	0	0	8416	440339	0	0
2024-06-10 13:30:32			0	40984	0	0	0	26883	25440	124136	27095	1018730	42033	109965	0	0	8416	440006	0	0
2024-06-10 13:31:32			0	40975	0	0	0	26872	25430	124108	26892	1018748	42043	109961	0	0	8416	440339	0	0
2024-06-10 13:32:32			0	40999	0	0	0	26875	25430	124108	26902	1018775	42033	109962	0	0	8417	439517	0	0
2024-06-10 13:33:32			0	41000	0	0	0	26864	25440	124140	26892	1018784	42043	109958	0	0	8418	439458	0	0
2024-06-10 13:34:32			0	40987	0	0	0	26872	25440	124100	27144	1018765	42044	109961	0	0	8417	439903	0	0
2024-06-10 13:35:32			0	41003	0	0	0	26875	25450	124140	27052	1018854	42056	109962	0	0	8418	439330	0	0
2024-06-10 13:36:32			0	40980	0	0	0	26883	25440	124144	26941	1018873	42044	109965	0	0	8416	440143	0	0
2024-06-10 13:37:32			0	40975	0	0	0	26890	25450	124152	26979	1018863	42056	109968	0	0	8416	440289	0	0
2024-06-10 13:38:32			0	40982	0	0	0	26906	25450	124104	27017	1018828	42035	109974	0	0	8416	440049	0	0
2024-06-10 13:39:32			0	40984	0	0	0	26911	25460	124116	26953	1018925	42045	109976	0	0	8416	439956	0	0
2024-06-10 13:40:32			0	40992	0	0	0	26901	25460	124112	26868	1018925	42045	109972	0	0	8417	439682	0	0
2024-06-10 13:41:32			0	41000	0	0	0	26914	25470	124060	26795	1018915	42058	109977	0	0	8417	439383	0	0
2024-06-10 13:42:32			0	40987	0	0	0	26896	25470	124044	27024	1018969	42047	109970	0	0	8416	439828	0	0
2024-06-10 13:43:32			0	40997	0	0	0	26888	25470	124000	27128	1018942	42047	109967	0	0	8417	439486	0	0
2024-06-10 13:44:32			0	40960	0	0	0	26888	25470	123988	26908	1018951	42038	109967	0	0	8415	440753	0	0
2024-06-10 13:45:32			0	40974	0	0	0	26890	25480	124088	27284	1018941	42048	109968	0	0	8416	440248	0	0
2024-06-10 13:46:32			0	40988	0	0	0	26898	25490	124048	27235	1019003	42049	109971	0	0	8417	439744	0	0
2024-06-10 13:47:32			0	40966	0	0	0	26903	25480	124092	27305	1018959	42048	109973	0	0	8415	440522	0	0
2024-06-10 13:48:32			0	40993	0	0	0	26893	25480	123996	27043	1018941	42059	109969	0	0	8417	439598	0	0
2024-06-10 13:49:32			0	40999	0	0	0	26890	25480	124040	27142	1019048	42048	109968	0	0	8417	439392	0	0
2024-06-10 13:50:32			0	40983	0	0	0	26888	25480	124076	27137	1018933	42038	109967	0	0	8416	439940	0	0
2024-06-10 13:51:32			0	40966	0	0	0	26893	25480	124040	27180	1018914	42038	109969	0	0	8415	440522	0	0
2024-06-10 13:52:32			0	40987	0	0	0	26872	25490	123992	27183	1018896	42038	109961	0	0	8417	439778	0	0
2024-06-10 13:53:32			0	40993	0	0	0	26859	25480	124004	27130	1018941	42026	109956	0	0	8417	439598	0	0
2024-06-10 13:54:32			0	40988	0	0	0	26857	25470	123972	26982	1018835	42037	109955	0	0	8417	439794	0	0
2024-06-10 13:55:32			0	40983	0	0	0	26922	25480	124040	27178	1018906	42038	109980	0	0	8416	439940	0	0
2024-06-10 13:56:32			0	40991	0	0	0	26916	25480	124060	27015	1018825	42038	109978	0	0	8416	439666	0	0
2024-06-10 13:57:32			0	40997	0	0	0	26859	25480	124072	26876	1018968	42038	109956	0	0	8418	439461	0	0
2024-06-10 13:58:32			0	40996	0	0	0	26883	25480	124028	27325	1018986	42026	109965	0	0	8417	439495	0	0
2024-06-10 13:59:32			0	40999	0	0	0	26893	25480	124096	27208	1018941	42026	109969	0	0	8417	439392	0	0
2024-06-10 14:00:32			0	40996	0	0	0	26870	25480	124076	26873	1018933	42038	109960	0	0	8417	439495	0	0
2024-06-10 14:01:32			0	40989	0	0	0	26883	25480	124116	27163	1018959	42038	109965	0	0	8417	439735	0	0
2024-06-10 14:02:32			0	41005	0	0	0	26898	25480	124088	27185	1018986	42038	109971	0	0	8417	439187	0	0
2024-06-10 14:03:32			0	40986	0	0	0	26890	25480	124064	27218	1019022	42038	109968	0	0	8417	439837	0	0
2024-06-10 14:04:32			0	40977	0	0	0	26851	25510	124060	27154	1019002	42050	109953	0	0	8417	440070	0	0
2024-06-10 14:05:32			0	40982	0	0	0	26932	25500	124152	27066	1018994	42039	109984	0	0	8416	439924	0	0
2024-06-10 14:06:32			0	40984	0	0	0	26862	25490	124108	26899	1018977	42027	109957	0	0	8417	439881	0	0
2024-06-10 14:07:32			0	40961	0	0	0	26888	25480	124072	27152	1018914	42026	109967	0	0	8415	440694	0	0
2024-06-10 14:08:32			0	40969	0	0	0	26890	25480	124120	26899	1018995	42048	109968	0	0	8416	440420	0	0
2024-06-10 14:09:32			0	40975	0	0	0	26937	25490	124180	26897	1018977	42038	109986	0	0	8415	440189	0	0
2024-06-10 14:10:32			0	40965	0	0	0	26927	25500	124164	26713	1019092	42050	109982	0	0	8415	440507	0	0
2024-06-10 14:11:32			0	40970	0	0	0	26903	25500	124148	26866	1019066	42050	109973	0	0	8416	440335	0	0
2024-06-10 14:12:32			0	40985	0	0	0	26883	25510	124088	27123	1019091	42051	109965	0	0	8417	439797	0	0
2024-06-10 14:13:32			0	40994	0	0	0	26955	25510	124120	27246	1019145	42040	109993	0	0	8416	439488	0	0
2024-06-10 14:14:32			0	40996	0	0	0	26888	25510	124144	27405	1019091	42040	109967	0	0	8417	439420	0	0
2024-06-10 14:15:32			0	40996	0	0	0	26942	25510	124128	26840	1019091	42040	109988	0	0	8416	439420	0	0
2024-06-10 14:16:32			0	40983	0	0	0	26948	25520	124148	27163	1019127	42051	109990	0	0	8416	439840	0	0
2024-06-10 14:17:32			0	40990	0	0	0	26911	25530	124120	27178	1019198	42051	109976	0	0	8417	439575	0	0
2024-06-10 14:18:32			0	41015	0	0	0	26966	25520	124108	26845	1019162	42030	109997	0	0	8417	438745	0	0
2024-06-10 14:19:32			0	40979	0	0	0	26948	25520	124192	27149	1019180	42041	109990	0	0	8415	439977	0	0
2024-06-10 14:20:32			0	40979	0	0	0	26955	25530	124164	26833	1019198	42063	109993	0	0	8415	439952	0	0
2024-06-10 14:21:32			0	41000	0	0	0	26927	25530	124036	27220	1019144	42051	109982	0	0	8417	439233	0	0
2024-06-10 14:22:32			0	41033	0	0	0	26953	25530	123944	27076	1019171	42063	109992	0	0	8418	438105	0	0
2024-06-10 14:23:32			0	41079	0	0	0	26927	25530	123940	27074	1019224	42051	109982	0	0	8421	436535	0	0
2024-06-10 14:24:32			0	41088	0	0	0	26909	25540	123784	27131	1019215	42065	109975	0	0	8422	436203	0	0
2024-06-10 14:25:32			0	41110	0	0	0	26922	25530	123796	27239	1019117	42063	109980	0	0	8423	435478	0	0
2024-06-10 14:26:32			0	41112	0	0	0	26948	25530	123812	27020	1019171	42030	109990	0	0	8422	435410	0	0
2024-06-10 14:27:32			0	41068	0	0	0	26929	25530	123920	27112	1019198	42051	109983	0	0	8420	436910	0	0
2024-06-10 14:28:32			0	41064	0	0	0	26888	25530	123924	27251	1019117	42051	109967	0	0	8421	437047	0	0
2024-06-10 14:29:32			0	41036	0	0	0	26950	25520	123904	26975	1019135	42051	109991	0	0	8418	438027	0	0
2024-06-10 14:30:32			0	41075	0	0	0	26948	25520	123876	27187	1019162	42051	109990	0	0	8420	436696	0	0
2024-06-10 14:31:32			0	41086	0	0	0	26966	25530	123960	27293	1019206	42052	109997	0	0	8421	436296	0	0
2024-06-10 14:32:32			0	41059	0	0	0	26961	25540	123844	27131	1019250	42054	109995	0	0	8419	437192	0	0
2024-06-10 14:33:32			0	41032	0	0	0	26979	25540	123976	26994	1019242	42042	110002	0	0	8418	438114	0	0
2024-06-10 14:34:32			0	41028	0	0	0	26922	25540	123932	26837	1019277	42054	109980	0	0	8418	438251	0	0
2024-06-10 14:35:32			0	41037	0	0	0	27005	25550	124004	27118	1019294	42054	110012	0	0	8418	437919	0	0
2024-06-10 14:36:32			0	41034	0	0	0	27002	25550	124108	26622	1019375	42054	110011	0	0	8417	438021	0	0
2024-06-10 14:37:32			0	41015	0	0	0	27002	25560	124112	26948	1019365	42067	110011	0	0	8417	438645	0	0
2024-06-10 14:38:32			0	40998	0	0	0	26997	25560	124100	27170	1019357	42055	110009	0	0	8416	439227	0	0
2024-06-10 14:39:32			0	41004	0	0	0	26948	25580	124068	27026	1019373	42047	109990	0	0	8417	438971	0	0
2024-06-10 14:40:32			0	41019	0	0	0	26974	25560	124044	26922	1019365	42034	110000	0	0	8417	438509	0	0
2024-06-10 14:41:32			0	41003	0	0	0	26963	25560	124104	27079	1019365	42067	109996	0	0	8417	439056	0	0
2024-06-10 14:42:32			0	41020	0	0	0	26916	25550	124092	27024	1019294	42054	109978	0	0	8418	438499	0	0
2024-06-10 14:43:32			0	40999	0	0	0	26950	25560	124040	26986	1019330	42044	109991	0	0	8417	439192	0	0
2024-06-10 14:44:32			0	41024	0	0	0	26942	25560	124092	26958	1019303	42055	109988	0	0	8418	438338	0	0
2024-06-10 14:45:32			0	41012	0	0	0	26981	25570	124024	26920	1019320	42045	110003	0	0	8417	438723	0	0
2024-06-10 14:46:32			0	41014	0	0	0	26986	25560	124024	27183	1019338	42067	110005	0	0	8417	438679	0	0
2024-06-10 14:47:32			0	40993	0	0	0	26989	25560	124244	26939	1019357	42055	110006	0	0	8416	439398	0	0
2024-06-10 14:48:32			0	41022	0	0	0	26955	25570	124180	27036	1019409	42067	109993	0	0	8418	438381	0	0
2024-06-10 14:49:32			0	40997	0	0	0	26976	25570	124084	26842	1019401	42056	110001	0	0	8416	439236	0	0
2024-06-10 14:50:32			0	40987	0	0	0	26966	25560	124128	26771	1019437	42044	109997	0	0	8416	439603	0	0
2024-06-10 14:51:32			0	40998	0	0	0	26997	25570	124108	26989	1019409	42056	110009	0	0	8416	439202	0	0
2024-06-10 14:52:32			0	40987	0	0	0	26966	25570	124120	26958	1019436	42056	109997	0	0	8416	439578	0	0
2024-06-10 14:53:32			0	40984	0	0	0	26986	25570	124176	26991	1019382	42056	110005	0	0	8415	439681	0	0
2024-06-10 14:54:32			0	40987	0	0	0	26986	25580	124204	26987	1019400	42069	110005	0	0	8415	439553	0	0
2024-06-10 14:55:32			0	40972	0	0	0	26901	25580	124188	26871	1019391	42046	109972	0	0	8416	440067	0	0
2024-06-10 14:56:32			0	40969	0	0	0	26984	25570	124144	27029	1019275	42045	110004	0	0	8414	440194	0	0
2024-06-10 14:57:32			0	40964	0	0	0	26901	25570	124128	27050	1019382	42056	109972	0	0	8416	440365	0	0
2024-06-10 14:58:32			0	40960	0	0	0	26932	25570	124228	27074	1019409	42045	109984	0	0	8415	440502	0	0
2024-06-10 14:59:32			0	40971	0	0	0	26851	25560	124228	27190	1019249	42044	109953	0	0	8417	440151	0	0
2024-06-10 15:00:32			0	41007	0	0	0	26768	25550	124064	26913	1019080	42033	109921	0	0	8420	438944	0	0
2024-06-10 15:01:32			0	40984	0	0	0	26763	25520	124104	27159	1018921	42018	109919	0	0	8419	439806	0	0
2024-06-10 15:02:32			0	40973	0	0	0	26916	25520	124152	27168	1019055	42041	109978	0	0	8416	440182	0	0
2024-06-10 15:03:32			0	40975	0	0	0	26789	25530	124164	27085	1019064	42041	109929	0	0	8418	440089	0	0
2024-06-10 15:04:32			0	40999	0	0	0	26802	25520	124136	27019	1019001	42030	109934	0	0	8419	439292	0	0
2024-06-10 15:05:32			0	41030	0	0	0	26768	25510	123972	27400	1018957	42029	109921	0	0	8421	438257	0	0
2024-06-10 15:06:32			0	41029	0	0	0	26890	25480	124072	27277	1018941	42026	109968	0	0	8419	438366	0	0
2024-06-10 15:07:32			0	41033	0	0	0	26877	25500	124024	27282	1019047	42028	109963	0	0	8419	438180	0	0
2024-06-10 15:08:32			0	41025	0	0	0	26748	25510	123920	27229	1018976	42028	109913	0	0	8421	438428	0	0
2024-06-10 15:09:32			0	41052	0	0	0	26942	25490	123920	27350	1018896	42027	109988	0	0	8419	437556	0	0
2024-06-10 15:10:32			0	41034	0	0	0	26732	25500	123972	27211	1018851	42028	109907	0	0	8422	438145	0	0
2024-06-10 15:11:32			0	41054	0	0	0	26716	25480	123864	26753	1018718	42026	109901	0	0	8423	437512	0	0
2024-06-10 15:12:32			0	41060	0	0	0	26727	25460	123904	27074	1018639	42013	109905	0	0	8423	437357	0	0
2024-06-10 15:13:32			0	41056	0	0	0	26724	25450	123976	26837	1018622	42023	109904	0	0	8423	437519	0	0
2024-06-10 15:14:32			0	41064	0	0	0	26719	25440	123860	27150	1018516	42010	109902	0	0	8423	437270	0	0
2024-06-10 15:15:32			0	41050	0	0	0	26750	25430	123948	26968	1018579	42033	109914	0	0	8422	437773	0	0
2024-06-10 15:16:32			0	41056	0	0	0	26654	25420	123932	27326	1018463	42009	109877	0	0	8424	437593	0	0
2024-06-10 15:17:32			0	41064	0	0	0	26683	25410	123916	27355	1018383	41998	109888	0	0	8424	437345	0	0
2024-06-10 15:18:32			0	41084	0	0	0	26683	25400	123904	27182	1018313	42007	109888	0	0	8425	436687	0	0
2024-06-10 15:19:32			0	41086	0	0	0	26646	25380	124032	27130	1018225	42016	109874	0	0	8426	436668	0	0
2024-06-10 15:20:32			0	41080	0	0	0	26644	25370	123884	27145	1018100	42015	109873	0	0	8425	436898	0	0
2024-06-10 15:21:32			0	41083	0	0	0	26662	25350	123872	26729	1018146	42013	109880	0	0	8425	436845	0	0
2024-06-10 15:22:32			0	41078	0	0	0	26698	25350	123888	27022	1018227	42013	109894	0	0	8424	437016	0	0
2024-06-10 15:23:32			0	41098	0	0	0	26688	25340	123880	27013	1018210	42024	109890	0	0	8425	436358	0	0
2024-06-10 15:24:32			0	41084	0	0	0	26667	25340	123860	26916	1018129	42001	109882	0	0	8425	436836	0	0
2024-06-10 15:25:32			0	41092	0	0	0	26685	25330	123844	27358	1018166	42012	109889	0	0	8425	436588	0	0
2024-06-10 15:26:32			0	41095	0	0	0	26688	25330	123832	26882	1018112	42023	109890	0	0	8425	436485	0	0
2024-06-10 15:27:32			0	41117	0	0	0	26672	25320	123860	27156	1018095	42022	109884	0	0	8427	435760	0	0
2024-06-10 15:28:32			0	41126	0	0	0	26646	25320	123852	27140	1018041	42011	109874	0	0	8427	435453	0	0
2024-06-10 15:29:32			0	41135	0	0	0	26644	25310	123808	27206	1018051	42010	109873	0	0	8428	435171	0	0
2024-06-10 15:30:32			0	41133	0	0	0	26657	25300	123848	27104	1017989	42020	109878	0	0	8428	435264	0	0
2024-06-10 15:31:32			0	41135	0	0	0	26670	25310	123736	27637	1018078	42033	109883	0	0	8427	435171	0	0
2024-06-10 15:32:32			0	41147	0	0	0	26729	25300	123752	27215	1018096	42020	109906	0	0	8427	434787	0	0
2024-06-10 15:33:32			0	41135	0	0	0	26709	25310	123724	26935	1018158	42021	109898	0	0	8427	435171	0	0
2024-06-10 15:34:32			0	41159	0	0	0	26662	25310	123740	27128	1018131	42021	109880	0	0	8429	434354	0	0
2024-06-10 15:35:32			0	41138	0	0	0	26709	25310	123712	26911	1018131	42021	109898	0	0	8427	435069	0	0
2024-06-10 15:36:32			0	41150	0	0	0	26716	25310	123620	26961	1018193	42021	109901	0	0	8427	434660	0	0
2024-06-10 15:37:32			0	41155	0	0	0	26714	25320	123676	27185	1018202	42033	109900	0	0	8428	434465	0	0
2024-06-10 15:38:32			0	41175	0	0	0	26703	25310	123612	27085	1018140	42021	109896	0	0	8429	433810	0	0
2024-06-10 15:39:32			0	41188	0	0	0	26696	25320	123608	27000	1018148	42022	109893	0	0	8430	433343	0	0
2024-06-10 15:40:32			0	41175	0	0	0	26693	25310	123652	26859	1018131	42010	109892	0	0	8429	433810	0	0
2024-06-10 15:41:32			0	41170	0	0	0	26662	25310	123628	27046	1018078	42021	109880	0	0	8429	433980	0	0
2024-06-10 15:42:32			0	41204	0	0	0	26659	25310	123620	27208	1017971	42010	109879	0	0	8431	432824	0	0
2024-06-10 15:43:32			0	41224	0	0	0	26670	25290	123576	27159	1017998	42019	109883	0	0	8432	432194	0	0
2024-06-10 15:44:32			0	41232	0	0	0	26651	25300	123516	27185	1018060	42020	109876	0	0	8433	431897	0	0
2024-06-10 15:45:32			0	41236	0	0	0	26662	25290	123548	26937	1018016	42007	109880	0	0	8433	431786	0	0
2024-06-10 15:46:32			0	41229	0	0	0	26659	25290	123468	26817	1017971	42008	109879	0	0	8433	432024	0	0
2024-06-10 15:47:32			0	41242	0	0	0	26659	25290	123440	27012	1017971	42019	109879	0	0	8433	431583	0	0
2024-06-10 15:48:32			0	41266	0	0	0	26683	25280	123472	27003	1018034	42018	109888	0	0	8434	430793	0	0
2024-06-10 15:49:32			0	41257	0	0	0	26722	25300	123420	27100	1018167	42020	109903	0	0	8433	431049	0	0
2024-06-10 15:50:32			0	41259	0	0	0	26745	25300	123472	26852	1018230	42042	109912	0	0	8433	430982	0	0
2024-06-10 15:51:32			0	41281	0	0	0	26823	25310	123416	27190	1018381	42043	109942	0	0	8433	430212	0	0
2024-06-10 15:52:32			0	41269	0	0	0	26890	25340	123404	26949	1018620	42046	109968	0	0	8431	430545	0	0
2024-06-10 15:53:32			0	41255	0	0	0	26911	25370	123460	27095	1018690	42048	109976	0	0	8430	430946	0	0
2024-06-10 15:54:32			0	41253	0	0	0	26953	25390	123440	27105	1018786	42041	109992	0	0	8429	430965	0	0
2024-06-10 15:55:32			0	41201	0	0	0	26971	25410	123656	27126	1018973	42076	109999	0	0	8426	432680	0	0
2024-06-10 15:56:32			0	41189	0	0	0	26950	25420	123724	27111	1018972	42042	109991	0	0	8426	433063	0	0
2024-06-10 15:57:32			0	41168	0	0	0	26971	25440	123832	27163	1019051	42055	109999	0	0	8425	433727	0	0
2024-06-10 15:58:32			0	41133	0	0	0	26958	25460	123804	27062	1019068	42046	109994	0	0	8423	434868	0	0
2024-06-10 15:59:32			0	41120	0	0	0	26997	25480	123860	26909	1019201	42048	110009	0	0	8422	435262	0	0
2024-06-10 16:00:32			0	41100	0	0	0	27012	25490	123884	26956	1019271	42060	110015	0	0	8421	435918	0	0
2024-06-10 16:01:32			0	41093	0	0	0	27023	25510	123992	26958	1019297	42050	110019	0	0	8420	436107	0	0
2024-06-10 16:02:32			0	41057	0	0	0	27033	25510	124024	27036	1019333	42062	110023	0	0	8418	437335	0	0
2024-06-10 16:03:32			0	41066	0	0	0	27023	25540	123952	26984	1019376	42065	110019	0	0	8419	436953	0	0
2024-06-10 16:04:32			0	41070	0	0	0	27031	25540	123936	26927	1019438	42077	110022	0	0	8419	436817	0	0
2024-06-10 16:05:32			0	41078	0	0	0	27023	25560	123896	27121	1019491	42066	110019	0	0	8419	436495	0	0
2024-06-10 16:06:32			0	41066	0	0	0	27012	25560	123844	26890	1019491	42078	110015	0	0	8419	436904	0	0
2024-06-10 16:07:32			0	41059	0	0	0	27077	25570	123872	26852	1019561	42067	110040	0	0	8418	437118	0	0
2024-06-10 16:08:32			0	41061	0	0	0	27083	25580	123908	26986	1019659	42068	110042	0	0	8418	437025	0	0
2024-06-10 16:09:32			0	41040	0	0	0	27085	25590	123960	26953	1019730	42081	110043	0	0	8417	437716	0	0
2024-06-10 16:10:32			0	41038	0	0	0	27041	25600	123984	26814	1019702	42060	110026	0	0	8417	437760	0	0
2024-06-10 16:11:32			0	41031	0	0	0	27088	25610	123992	26863	1019719	42072	110044	0	0	8416	437974	0	0
2024-06-10 16:12:32			0	41034	0	0	0	27101	25630	123920	26845	1019772	42074	110049	0	0	8416	437822	0	0
2024-06-10 16:13:32			0	41021	0	0	0	27106	25630	124024	26928	1019799	42062	110051	0	0	8415	438266	0	0
2024-06-10 16:14:32			0	41029	0	0	0	27101	25640	123964	27338	1019878	42075	110049	0	0	8416	437968	0	0
2024-06-10 16:15:32			0	41028	0	0	0	27085	25650	123992	26932	1019895	42076	110043	0	0	8416	437977	0	0
2024-06-10 16:16:32			0	41036	0	0	0	27088	25650	123868	27182	1019949	42064	110044	0	0	8417	437704	0	0
2024-06-10 16:17:32			0	41039	0	0	0	27096	25660	123864	27211	1019877	42076	110047	0	0	8417	437576	0	0
2024-06-10 16:18:32			0	41061	0	0	0	27103	25660	123868	27145	1019966	42065	110050	0	0	8418	436826	0	0
2024-06-10 16:19:32			0	41074	0	0	0	27028	25670	123836	26932	1019921	42066	110021	0	0	8420	436358	0	0
2024-06-10 16:20:32			0	41109	0	0	0	26961	25660	123668	27209	1019778	42054	109995	0	0	8423	435190	0	0
2024-06-10 16:21:32			0	41181	0	0	0	26963	25650	123484	27246	1019726	42076	109996	0	0	8426	432768	0	0
2024-06-10 16:22:32			0	41210	0	0	0	27010	25650	123440	27052	1019788	42064	110014	0	0	8427	431784	0	0
2024-06-10 16:23:32			0	41233	0	0	0	27010	25660	123400	26785	1019797	42064	110014	0	0	8428	430980	0	0
2024-06-10 16:24:32			0	41259	0	0	0	26927	25650	123272	27100	1019681	42041	109982	0	0	8431	430125	0	0
2024-06-10 16:25:32			0	41262	0	0	0	26966	25650	123260	27300	1019672	42053	109997	0	0	8430	430023	0	0
2024-06-10 16:26:32			0	41283	0	0	0	26963	25640	123212	27216	1019655	42062	109996	0	0	8432	429338	0	0
2024-06-10 16:27:32			0	41293	0	0	0	27020	25640	123244	26922	1019682	42051	110018	0	0	8431	429000	0	0
2024-06-10 16:28:32			0	41302	0	0	0	27015	25640	123188	27270	1019690	42052	110016	0	0	8432	428696	0	0
2024-06-10 16:29:32			0	41311	0	0	0	26877	25640	123160	27355	1019548	42041	109963	0	0	8434	428392	0	0
2024-06-10 16:30:32			0	41328	0	0	0	26942	25630	123120	27291	1019611	42051	109988	0	0	8434	427842	0	0
2024-06-10 16:31:32			0	41335	0	0	0	27010	25630	123028	27088	1019754	42074	110014	0	0	8433	427606	0	0
2024-06-10 16:32:32			0	41354	0	0	0	26927	25630	123020	27010	1019646	42051	109982	0	0	8436	426965	0	0
2024-06-10 16:33:32			0	41357	0	0	0	26825	25630	122956	27057	1019423	42029	109943	0	0	8438	426864	0	0
2024-06-10 16:34:32			0	41369	0	0	0	26825	25600	122916	27422	1019354	42038	109943	0	0	8438	426532	0	0
2024-06-10 16:35:32			0	41393	0	0	0	26864	25600	122936	26854	1019452	42047	109958	0	0	8439	425724	0	0
2024-06-10 16:36:32			0	41397	0	0	0	26870	25600	122920	27020	1019372	42059	109960	0	0	8439	425590	0	0
2024-06-10 16:37:32			0	41394	0	0	0	26883	25590	122912	27263	1019417	42047	109965	0	0	8439	425715	0	0
2024-06-10 16:38:32			0	41374	0	0	0	26851	25600	122912	26904	1019345	42037	109953	0	0	8438	426364	0	0
2024-06-10 16:39:32			0	41390	0	0	0	26831	25570	122748	26809	1019213	42023	109945	0	0	8439	425898	0	0
2024-06-10 16:40:32			0	41411	0	0	0	26833	25570	122796	26809	1019240	42023	109946	0	0	8440	425191	0	0
2024-06-10 16:41:32			0	41409	0	0	0	26812	25550	122808	26774	1019044	42010	109938	0	0	8440	425307	0	0
2024-06-10 16:42:32			0	41427	0	0	0	26799	25520	122829	26845	1019082	42041	109933	0	0	8441	424774	0	0
2024-06-10 16:43:32			0	41399	0	0	0	26864	25540	122820	27397	1019223	42033	109958	0	0	8439	425668	0	0
2024-06-10 16:44:32			0	41417	0	0	0	26940	25550	122916	27114	1019339	42043	109987	0	0	8439	425038	0	0
2024-06-10 16:45:32			0	41399	0	0	0	26945	25550	122920	27138	1019366	42043	109989	0	0	8438	425643	0	0
2024-06-10 16:46:32			0	41387	0	0	0	26984	25560	122908	26769	1019446	42045	110004	0	0	8436	426023	0	0
2024-06-10 16:47:32			0	41378	0	0	0	27036	25600	122884	27246	1019613	42037	110024	0	0	8435	426229	0	0
2024-06-10 16:48:32			0	41368	0	0	0	27067	25600	122944	27230	1019801	42070	110036	0	0	8434	426566	0	0
2024-06-10 16:49:32			0	41370	0	0	0	27137	25630	122984	26899	1019879	42062	110063	0	0	8433	426426	0	0
2024-06-10 16:50:32			0	41331	0	0	0	27127	25630	122988	27043	1019914	42062	110059	0	0	8431	427741	0	0
2024-06-10 16:51:32			0	41331	0	0	0	27122	25650	123056	26819	1019967	42064	110057	0	0	8431	427692	0	0
2024-06-10 16:52:32			0	41307	0	0	0	27096	25660	123068	27038	1020020	42065	110047	0	0	8431	428478	0	0
2024-06-10 16:53:32			0	41301	0	0	0	27067	25660	123116	27190	1019939	42054	110036	0	0	8431	428681	0	0
2024-06-10 16:54:32			0	41280	0	0	0	27033	25670	123100	26944	1019948	42066	110023	0	0	8430	429366	0	0
2024-06-10 16:55:32			0	41249	0	0	0	26994	25680	123112	26838	1019858	42056	110008	0	0	8429	430390	0	0
2024-06-10 16:56:32			0	41274	0	0	0	26935	25660	123116	26800	1019725	42054	109985	0	0	8432	429593	0	0
2024-06-10 16:57:32			0	41272	0	0	0	27007	25650	123132	27178	1019788	42041	110013	0	0	8430	429685	0	0
2024-06-10 16:58:32			0	41258	0	0	0	26927	25650	123016	26788	1019592	42041	109982	0	0	8431	430159	0	0
2024-06-10 16:59:32			0	41261	0	0	0	26948	25650	123120	26781	1019645	42053	109990	0	0	8431	430057	0	0
2024-06-10 17:00:32			0	41318	0	0	0	26906	25630	123044	26965	1019512	42029	109974	0	0	8434	428180	0	0
2024-06-10 17:01:32			0	41307	0	0	0	26846	25610	122940	26961	1019371	42028	109951	0	0	8435	428600	0	0
2024-06-10 17:02:32			0	41339	0	0	0	26828	25600	122940	27263	1019291	42047	109944	0	0	8437	427544	0	0
2024-06-10 17:03:32			0	41368	0	0	0	26807	25580	122876	27180	1019185	42025	109936	0	0	8438	426615	0	0
2024-06-10 17:04:32			0	41367	0	0	0	26779	25550	122740	27159	1019026	41999	109925	0	0	8439	426721	0	0
2024-06-10 17:05:32			0	41383	0	0	0	26779	25550	122804	27102	1019018	42021	109925	0	0	8440	426182	0	0
2024-06-10 17:06:32			0	41394	0	0	0	26771	25530	122808	27376	1018983	42030	109922	0	0	8440	425860	0	0
2024-06-10 17:07:32			0	41384	0	0	0	26753	25510	122860	26970	1018877	42029	109915	0	0	8440	426245	0	0
2024-06-10 17:08:32			0	41391	0	0	0	26724	25500	122776	26812	1018771	42017	109904	0	0	8441	426034	0	0
2024-06-10 17:09:32			0	41407	0	0	0	26729	25470	122732	27128	1018674	41992	109906	0	0	8441	425567	0	0
2024-06-10 17:10:32			0	41404	0	0	0	26714	25450	122824	27098	1018595	42012	109900	0	0	8441	425717	0	0
2024-06-10 17:11:32			0	41410	0	0	0	26716	25450	122788	27112	1018533	42023	109901	0	0	8442	425515	0	0
2024-06-10 17:12:32			0	41413	0	0	0	26709	25420	122852	26965	1018490	42009	109898	0	0	8442	425487	0	0
2024-06-10 17:13:32			0	41446	0	0	0	26706	25420	122793	26854	1018490	42021	109897	0	0	8444	424376	0	0
2024-06-10 17:14:32			0	41420	0	0	0	26706	25400	122824	27313	1018420	42018	109897	0	0	8442	425299	0	0
2024-06-10 17:15:32			0	41431	0	0	0	26703	25390	122857	27197	1018456	42006	109896	0	0	8443	424953	0	0
2024-06-10 17:16:32			0	41437	0	0	0	26714	25400	122825	27211	1018554	42018	109900	0	0	8443	424727	0	0
2024-06-10 17:17:32			0	41432	0	0	0	26714	25390	122769	27128	1018492	42018	109900	0	0	8443	424919	0	0
2024-06-10 17:18:32			0	41421	0	0	0	26724	25390	122812	27137	1018518	42007	109904	0	0	8442	425290	0	0
2024-06-10 17:19:32			0	41415	0	0	0	26805	25390	122848	27064	1018625	42029	109935	0	0	8440	425492	0	0
2024-06-10 17:20:32			0	41441	0	0	0	26797	25410	122965	27263	1018732	42041	109932	0	0	8442	424568	0	0
2024-06-10 17:21:32			0	41437	0	0	0	26781	25420	122957	27045	1018722	42031	109926	0	0	8442	424679	0	0
2024-06-10 17:22:32			0	41445	0	0	0	26841	25420	122869	27130	1018784	42042	109949	0	0	8441	424410	0	0
2024-06-10 17:23:32			0	41440	0	0	0	26864	25440	122801	27081	1018891	42033	109958	0	0	8441	424530	0	0
2024-06-10 17:24:32			0	41448	0	0	0	26831	25440	122845	26850	1018784	42033	109945	0	0	8442	424260	0	0
2024-06-10 17:25:32			0	41430	0	0	0	26906	25450	122805	26755	1019015	42045	109974	0	0	8440	424842	0	0
2024-06-10 17:26:32			0	41449	0	0	0	26968	25470	122857	26797	1019192	42059	109998	0	0	8440	424154	0	0
2024-06-10 17:27:32			0	41454	0	0	0	26924	25480	122821	27260	1019129	42048	109981	0	0	8441	423962	0	0
2024-06-10 17:28:32			0	41434	0	0	0	26872	25490	122765	27137	1019030	42038	109961	0	0	8440	424611	0	0
2024-06-10 17:29:32			0	41469	0	0	0	26841	25480	122793	27055	1019022	42026	109949	0	0	8443	423458	0	0
2024-06-10 17:30:32			0	41480	0	0	0	26984	25480	122769	27098	1019147	42038	110004	0	0	8441	423089	0	0
2024-06-10 17:31:32			0	41454	0	0	0	27038	25500	122809	27078	1019396	42050	110025	0	0	8439	423914	0	0
2024-06-10 17:32:32			0	41443	0	0	0	27028	25530	122845	27183	1019501	42064	110021	0	0	8438	424211	0	0
2024-06-10 17:33:32			0	41446	0	0	0	27031	25550	122881	26908	1019509	42066	110022	0	0	8439	424062	0	0
2024-06-10 17:34:32			0	41441	0	0	0	27041	25550	122857	26916	1019536	42043	110026	0	0	8438	424230	0	0
2024-06-10 17:35:32			0	41431	0	0	0	27059	25570	122833	27267	1019615	42067	110033	0	0	8437	424518	0	0
2024-06-10 17:36:32			0	41432	0	0	0	27049	25580	122857	26915	1019614	42058	110029	0	0	8438	424461	0	0
2024-06-10 17:37:32			0	41440	0	0	0	27057	25590	122773	26942	1019676	42069	110032	0	0	8438	424168	0	0
2024-06-10 17:38:32			0	41423	0	0	0	27051	25600	122812	27149	1019693	42059	110030	0	0	8437	424715	0	0
2024-06-10 17:39:32			0	41409	0	0	0	27057	25600	122824	27053	1019729	42082	110032	0	0	8436	425186	0	0
2024-06-10 17:40:32			0	41382	0	0	0	27057	25610	122928	27083	1019773	42061	110032	0	0	8435	426070	0	0
2024-06-10 17:41:32			0	41355	0	0	0	27041	25610	123028	27140	1019719	42072	110026	0	0	8434	426980	0	0
2024-06-10 17:42:32			0	41335	0	0	0	27015	25620	123060	26993	1019683	42073	110016	0	0	8433	427630	0	0
2024-06-10 17:43:32			0	41313	0	0	0	27018	25620	123036	26998	1019674	42049	110017	0	0	8432	428373	0	0
2024-06-10 17:44:32			0	41268	0	0	0	27015	25620	123176	27013	1019701	42061	110016	0	0	8430	429894	0	0
2024-06-10 17:45:32			0	41251	0	0	0	27015	25620	123320	27069	1019656	42062	110016	0	0	8429	430469	0	0
2024-06-10 17:46:32			0	41231	0	0	0	27085	25620	123376	26975	1019736	42062	110043	0	0	8427	431146	0	0
2024-06-10 17:47:32			0	41180	0	0	0	27114	25640	123464	27196	1019843	42074	110054	0	0	8424	432827	0	0
2024-06-10 17:48:32			0	41175	0	0	0	27109	25640	123616	26887	1019905	42096	110052	0	0	8423	432996	0	0
2024-06-10 17:49:32			0	41157	0	0	0	27038	25650	123640	27102	1019833	42064	110025	0	0	8424	433583	0	0
2024-06-10 17:50:32			0	41132	0	0	0	26994	25660	123668	27138	1019797	42053	110008	0	0	8423	434408	0	0
2024-06-10 17:51:32			0	41136	0	0	0	27007	25640	123620	27296	1019744	42052	110013	0	0	8423	434321	0	0
2024-06-10 17:52:32			0	41103	0	0	0	27098	25640	123840	27275	1019798	42075	110048	0	0	8420	435444	0	0
2024-06-10 17:53:32			0	41116	0	0	0	27122	25660	123792	27097	1019957	42076	110057	0	0	8420	434952	0	0
2024-06-10 17:54:32			0	41112	0	0	0	27145	25670	123780	26963	1020028	42088	110066	0	0	8420	435064	0	0
2024-06-10 17:55:32			0	41121	0	0	0	27158	25680	123752	27142	1020126	42089	110071	0	0	8420	434733	0	0
2024-06-10 17:56:32			0	41132	0	0	0	27140	25690	123732	26975	1020152	42069	110064	0	0	8421	434334	0	0
2024-06-10 17:57:32			0	41110	0	0	0	27109	25700	123672	27178	1020196	42069	110052	0	0	8420	435057	0	0
2024-06-10 17:58:32			0	41114	0	0	0	27109	25690	123728	27078	1020179	42057	110052	0	0	8420	434946	0	0
2024-06-10 17:59:32			0	41107	0	0	0	27116	25700	123764	26785	1020143	42080	110055	0	0	8420	435159	0	0
2024-06-10 18:00:32			0	41110	0	0	0	27106	25710	123728	27064	1020098	42081	110051	0	0	8420	435033	0	0
2024-06-10 18:01:32			0	41120	0	0	0	27135	25710	123720	26774	1020160	42071	110062	0	0	8420	434692	0	0
2024-06-10 18:02:32			0	41138	0	0	0	27135	25720	123732	27012	1020249	42082	110062	0	0	8421	434056	0	0
2024-06-10 18:03:32			0	41090	0	0	0	27142	25710	123620	27232	1020213	42082	110065	0	0	8419	435713	0	0
2024-06-10 18:04:32			0	41123	0	0	0	27119	25720	123660	27112	1020123	42082	110056	0	0	8421	434566	0	0
2024-06-10 18:05:32			0	41157	0	0	0	27109	25710	123672	27067	1020160	42071	110052	0	0	8423	433435	0	0
2024-06-10 18:06:32			0	41179	0	0	0	27103	25730	123520	26922	1020132	42071	110050	0	0	8424	432639	0	0
2024-06-10 18:07:32			0	41179	0	0	0	27111	25710	123488	26795	1020133	42082	110053	0	0	8424	432688	0	0
2024-06-10 18:08:32			0	41188	0	0	0	27111	25720	123468	26765	1020034	42071	110053	0	0	8424	432358	0	0
2024-06-10 18:09:32			0	41211	0	0	0	27093	25720	123492	26750	1020150	42071	110046	0	0	8426	431579	0	0
2024-06-10 18:10:32			0	41243	0	0	0	27098	25710	123320	27225	1020133	42071	110048	0	0	8427	430519	0	0
2024-06-10 18:11:32			0	41267	0	0	0	27096	25720	123372	26713	1020142	42071	110047	0	0	8429	429683	0	0
2024-06-10 18:12:32			0	41269	0	0	0	27088	25720	123252	27100	1020142	42082	110044	0	0	8429	429615	0	0
2024-06-10 18:13:32			0	41273	0	0	0	27075	25710	123268	26979	1020071	42081	110039	0	0	8429	429505	0	0
2024-06-10 18:14:32			0	41266	0	0	0	27059	25700	123112	27007	1020035	42057	110033	0	0	8429	429766	0	0
2024-06-10 18:15:32			0	41285	0	0	0	27085	25710	123148	26870	1020071	42081	110043	0	0	8430	429099	0	0
2024-06-10 18:16:32			0	41305	0	0	0	27093	25710	123120	26961	1020124	42081	110046	0	0	8431	428424	0	0
2024-06-10 18:17:32			0	41330	0	0	0	27077	25700	123092	27059	1020107	42080	110040	0	0	8432	427604	0	0
2024-06-10 18:18:32			0	41305	0	0	0	27090	25710	123076	26998	1020151	42081	110045	0	0	8431	428424	0	0
2024-06-10 18:19:32			0	41315	0	0	0	27101	25710	123084	26875	1020098	42070	110049	0	0	8431	428086	0	0
2024-06-10 18:20:32			0	41318	0	0	0	27077	25710	123020	26934	1020071	42081	110040	0	0	8432	427985	0	0
2024-06-10 18:21:32			0	41315	0	0	0	27070	25700	123052	26942	1020000	42069	110037	0	0	8432	428110	0	0
2024-06-10 18:22:32			0	41347	0	0	0	27062	25700	123020	27116	1020027	42069	110034	0	0	8433	427031	0	0
2024-06-10 18:23:32			0	41361	0	0	0	27051	25700	122960	26928	1019946	42080	110030	0	0	8434	426559	0	0
2024-06-10 18:24:32			0	41370	0	0	0	27049	25690	122932	27093	1019911	42069	110029	0	0	8435	426281	0	0
2024-06-10 18:25:32			0	41368	0	0	0	27062	25690	122916	27232	1019929	42056	110034	0	0	8435	426348	0	0
2024-06-10 18:26:32			0	41383	0	0	0	27075	25690	122952	27017	1020036	42068	110039	0	0	8435	425843	0	0
2024-06-10 18:27:32			0	41381	0	0	0	27093	25700	122960	27171	1020080	42080	110046	0	0	8435	425886	0	0
2024-06-10 18:28:32			0	41371	0	0	0	27098	25700	122820	27192	1020035	42057	110048	0	0	8434	426223	0	0
2024-06-10 18:29:32			0	41370	0	0	0	27088	25690	122904	27074	1020045	42090	110044	0	0	8434	426281	0	0
2024-06-10 18:30:32			0	41387	0	0	0	27093	25700	122948	27287	1020089	42080	110046	0	0	8435	425684	0	0
2024-06-10 18:31:32			0	41392	0	0	0	27085	25700	122792	27237	1020054	42080	110043	0	0	8435	425516	0	0
2024-06-10 18:32:32			0	41378	0	0	0	27098	25700	122964	26963	1020062	42080	110048	0	0	8435	425987	0	0
2024-06-10 18:33:32			0	41408	0	0	0	27103	25710	122904	27126	1020124	42081	110050	0	0	8436	424953	0	0
2024-06-10 18:34:32			0	41397	0	0	0	27085	25700	122936	27093	1020089	42080	110043	0	0	8436	425347	0	0
2024-06-10 18:35:32			0	41392	0	0	0	27098	25700	123000	27282	1020035	42069	110048	0	0	8435	425516	0	0
2024-06-10 18:36:32			0	41380	0	0	0	27111	25710	122912	27261	1020017	42081	110053	0	0	8434	425895	0	0
2024-06-10 18:37:32			0	41399	0	0	0	27101	25700	122912	27119	1020089	42080	110049	0	0	8436	425280	0	0
2024-06-10 18:38:32			0	41398	0	0	0	27098	25700	122908	27112	1020080	42090	110048	0	0	8436	425314	0	0
2024-06-10 18:39:32			0	41411	0	0	0	27111	25710	122960	27317	1020124	42081	110053	0	0	8436	424852	0	0
2024-06-10 18:40:32			0	41399	0	0	0	27114	25710	122944	27178	1020124	42091	110054	0	0	8435	425256	0	0
2024-06-10 18:41:32			0	41389	0	0	0	27109	25710	123000	27428	1020133	42082	110052	0	0	8435	425592	0	0
2024-06-10 18:42:32			0	41397	0	0	0	27122	25710	123004	27069	1020098	42091	110057	0	0	8435	425323	0	0
2024-06-10 18:43:32			0	41393	0	0	0	27122	25720	122972	27029	1020222	42092	110057	0	0	8435	425433	0	0
2024-06-10 18:44:32			0	41379	0	0	0	27111	25710	123036	27015	1020178	42081	110053	0	0	8434	425929	0	0
2024-06-10 18:45:32			0	41368	0	0	0	27103	25720	122948	27178	1020115	42082	110050	0	0	8434	426275	0	0
2024-06-10 18:46:32			0	41363	0	0	0	27096	25710	123104	27178	1020079	42092	110047	0	0	8434	426468	0	0
2024-06-10 18:47:32			0	41370	0	0	0	27103	25710	123020	27085	1020098	42091	110050	0	0	8434	426232	0	0
2024-06-10 18:48:32			0	41325	0	0	0	27090	25710	123036	27121	1020071	42081	110045	0	0	8432	427749	0	0
2024-06-10 18:49:32			0	41338	0	0	0	27072	25710	123016	27402	1020044	42070	110038	0	0	8433	427310	0	0
2024-06-10 18:50:32			0	41300	0	0	0	27044	25700	123108	27053	1019982	42069	110027	0	0	8431	428617	0	0
2024-06-10 18:51:32			0	41278	0	0	0	27018	25700	123112	27253	1019946	42069	110017	0	0	8431	429360	0	0
2024-06-10 18:52:32			0	41278	0	0	0	26971	25700	123080	27371	1019839	42069	109999	0	0	8431	429360	0	0
2024-06-10 18:53:32			0	41292	0	0	0	26935	25660	123132	26935	1019644	42065	109985	0	0	8433	428985	0	0
2024-06-10 18:54:32			0	41303	0	0	0	26914	25650	123160	27203	1019600	42053	109977	0	0	8433	428637	0	0
2024-06-10 18:55:32			0	41319	0	0	0	26919	25650	123032	27185	1019592	42064	109979	0	0	8434	428097	0	0
2024-06-10 18:56:32			0	41331	0	0	0	26922	25630	123116	27209	1019620	42051	109980	0	0	8435	427741	0	0
2024-06-10 18:57:32			0	41360	0	0	0	26919	25620	123032	27419	1019576	42062	109979	0	0	8436	426787	0	0
2024-06-10 18:58:32			0	41342	0	0	0	26922	25610	122960	27187	1019523	42061	109980	0	0	8435	427418	0	0
2024-06-10 18:59:32			0	41338	0	0	0	26893	25600	123016	27469	1019452	42059	109969	0	0	8435	427578	0	0
2024-06-10 19:00:32			0	41357	0	0	0	26870	25590	122996	26916	1019336	42047	109960	0	0	8437	426961	0	0
2024-06-10 19:01:32			0	41361	0	0	0	26875	25580	122968	27315	1019364	42046	109962	0	0	8437	426851	0	0
2024-06-10 19:02:32			0	41354	0	0	0	26859	25560	123068	27012	1019204	42045	109956	0	0	8437	427135	0	0
2024-06-10 19:03:32			0	41365	0	0	0	26862	25550	123060	27144	1019178	42043	109957	0	0	8437	426789	0	0
2024-06-10 19:04:32			0	41349	0	0	0	26880	25550	122996	27111	1019286	42043	109964	0	0	8436	427328	0	0
2024-06-10 19:05:32			0	41346	0	0	0	26896	25540	122964	27206	1019197	42077	109970	0	0	8436	427454	0	0
2024-06-10 19:06:32			0	41356	0	0	0	26880	25540	123100	27111	1019215	42042	109964	0	0	8436	427116	0	0
2024-06-10 19:07:32			0	41365	0	0	0	26849	25550	123028	26909	1019205	42043	109952	0	0	8437	426789	0	0
2024-06-10 19:08:32			0	41389	0	0	0	26825	25520	122964	27402	1019109	42051	109943	0	0	8439	426053	0	0
2024-06-10 19:09:32			0	41400	0	0	0	26885	25520	122936	27393	1019162	42063	109966	0	0	8439	425682	0	0
2024-06-10 19:10:32			0	41407	0	0	0	26888	25520	122908	27275	1019135	42051	109967	0	0	8439	425446	0	0
2024-06-10 19:11:32			0	41406	0	0	0	26870	25510	122864	27225	1019145	42040	109960	0	0	8439	425504	0	0
2024-06-10 19:12:32			0	41427	0	0	0	26859	25520	122896	27062	1019073	42051	109956	0	0	8440	424774	0	0
2024-06-10 19:13:32			0	41445	0	0	0	26859	25510	122765	26811	1019118	42051	109956	0	0	8441	424192	0	0
2024-06-10 19:14:32			0	41446	0	0	0	26859	25510	122701	27123	1019163	42050	109956	0	0	8441	424159	0	0
2024-06-10 19:15:32			0	41488	0	0	0	26854	25510	122757	27170	1019083	42061	109954	0	0	8444	422748	0	0
2024-06-10 19:16:32			0	41464	0	0	0	26844	25500	122745	27538	1019047	42039	109950	0	0	8443	423578	0	0
2024-06-10 19:17:32			0	41488	0	0	0	26818	25490	122673	27310	1018977	42049	109940	0	0	8444	422796	0	0
2024-06-10 19:18:32			0	41497	0	0	0	26838	25480	122673	27204	1018933	42038	109948	0	0	8444	422518	0	0
2024-06-10 19:19:32			0	41502	0	0	0	26844	25480	122641	26786	1019013	42048	109950	0	0	8445	422351	0	0
2024-06-10 19:20:32			0	41517	0	0	0	26849	25480	122645	27088	1019040	42048	109952	0	0	8445	421848	0	0
2024-06-10 19:21:32			0	41517	0	0	0	26844	25470	122665	27142	1018978	42048	109950	0	0	8445	421872	0	0
2024-06-10 19:22:32			0	41509	0	0	0	26838	25470	122653	27145	1018915	42047	109948	0	0	8445	422140	0	0
2024-06-10 19:23:32			0	41519	0	0	0	26836	25470	122673	27031	1018942	42047	109947	0	0	8446	421805	0	0
2024-06-10 19:24:32			0	41531	0	0	0	26831	25470	122577	27204	1018870	42048	109945	0	0	8446	421403	0	0
2024-06-10 19:25:32			0	41519	0	0	0	26838	25450	122681	27107	1018890	42056	109948	0	0	8445	421853	0	0
2024-06-10 19:26:32			0	41498	0	0	0	26828	25450	122689	27268	1018881	42056	109944	0	0	8444	422557	0	0
2024-06-10 19:27:32			0	41509	0	0	0	26836	25450	122673	27230	1018863	42045	109947	0	0	8445	422188	0	0
2024-06-10 19:28:32			0	41533	0	0	0	26841	25450	122621	26767	1018890	42035	109949	0	0	8446	421383	0	0
2024-06-10 19:29:32			0	41536	0	0	0	26857	25450	122585	27045	1018908	42056	109955	0	0	8446	421283	0	0
2024-06-10 19:30:32			0	41514	0	0	0	26862	25450	122585	27469	1018916	42045	109957	0	0	8445	422020	0	0
2024-06-10 19:31:32			0	41508	0	0	0	26862	25460	122673	27222	1018960	42069	109957	0	0	8444	422198	0	0
2024-06-10 19:32:32			0	41507	0	0	0	26851	25460	122721	27280	1018925	42045	109953	0	0	8445	422231	0	0
2024-06-10 19:33:32			0	41537	0	0	0	26841	25460	122665	27170	1018952	42045	109949	0	0	8446	421225	0	0
2024-06-10 19:34:32			0	41508	0	0	0	26831	25450	122633	26849	1018890	42056	109945	0	0	8445	422222	0	0
2024-06-10 19:35:32			0	41511	0	0	0	26846	25450	122681	27001	1018890	42056	109951	0	0	8445	422121	0	0
2024-06-10 19:36:32			0	41519	0	0	0	26857	25450	122713	27157	1018970	42045	109955	0	0	8445	421853	0	0
2024-06-10 19:37:32			0	41518	0	0	0	26875	25450	122749	26967	1018961	42056	109962	0	0	8445	421886	0	0
2024-06-10 19:38:32			0	41502	0	0	0	26859	25460	122733	26977	1018925	42056	109956	0	0	8444	422399	0	0
2024-06-10 19:39:32			0	41502	0	0	0	26854	25460	122757	27135	1019005	42045	109954	0	0	8444	422399	0	0
2024-06-10 19:40:32			0	41475	0	0	0	26851	25460	122825	26757	1018952	42056	109953	0	0	8443	423305	0	0
2024-06-10 19:41:32			0	41482	0	0	0	26854	25460	122809	27293	1018987	42057	109954	0	0	8443	423070	0	0
2024-06-10 19:42:32			0	41456	0	0	0	26836	25460	122817	27235	1018952	42068	109947	0	0	8442	423943	0	0
2024-06-10 19:43:32			0	41433	0	0	0	26859	25460	122833	26831	1019005	42056	109956	0	0	8441	424717	0	0
2024-06-10 19:44:32			0	41424	0	0	0	26896	25460	122876	27033	1019032	42056	109970	0	0	8439	425019	0	0
2024-06-10 19:45:32			0	41431	0	0	0	26898	25470	122981	27270	1019112	42059	109971	0	0	8440	424760	0	0
2024-06-10 19:46:32			0	41369	0	0	0	26909	25480	123088	27012	1019067	42071	109975	0	0	8436	426824	0	0
2024-06-10 19:47:32			0	41328	0	0	0	26893	25480	123208	27175	1019120	42071	109969	0	0	8435	428207	0	0
2024-06-10 19:48:32			0	41293	0	0	0	26898	25480	123364	27039	1019048	42048	109971	0	0	8433	429390	0	0
2024-06-10 19:49:32			0	41243	0	0	0	26901	25480	123392	26958	1019075	42071	109972	0	0	8430	431083	0	0
2024-06-10 19:50:32			0	41204	0	0	0	26903	25490	123544	26996	1019111	42071	109973	0	0	8428	432381	0	0
2024-06-10 19:51:32			0	41175	0	0	0	26898	25500	123628	27083	1019092	42061	109971	0	0	8426	433341	0	0
2024-06-10 19:52:32			0	41163	0	0	0	26901	25500	123716	26918	1019092	42072	109972	0	0	8426	433749	0	0
2024-06-10 19:53:32			0	41132	0	0	0	26911	25500	123648	26835	1019173	42072	109976	0	0	8424	434804	0	0
2024-06-10 19:54:32			0	41127	0	0	0	26911	25500	123716	27034	1019181	42061	109976	0	0	8424	434974	0	0
2024-06-10 19:55:32			0	41143	0	0	0	26919	25510	123772	26993	1019136	42061	109979	0	0	8424	434404	0	0
2024-06-10 19:56:32			0	41116	0	0	0	26916	25510	123764	27067	1019136	42072	109978	0	0	8423	435324	0	0
2024-06-10 19:57:32			0	41115	0	0	0	26916	25500	123772	26927	1019173	42061	109978	0	0	8423	435382	0	0
2024-06-10 19:58:32			0	41104	0	0	0	26919	25510	123808	27100	1019163	42072	109979	0	0	8422	435732	0	0
2024-06-10 19:59:32			0	41156	0	0	0	26916	25510	123696	26866	1019145	42073	109978	0	0	8425	433963	0	0
2024-06-10 20:00:32			0	41149	0	0	0	26927	25510	123688	26859	1019217	42072	109982	0	0	8425	434201	0	0
2024-06-10 20:01:32			0	41144	0	0	0	26924	25510	123688	27142	1019199	42073	109981	0	0	8424	434371	0	0
2024-06-10 20:02:32			0	41140	0	0	0	26929	25520	123608	26844	1019296	42074	109983	0	0	8424	434482	0	0
2024-06-10 20:03:32			0	41165	0	0	0	26940	25510	123680	27020	1019217	42061	109987	0	0	8425	433656	0	0
2024-06-10 20:04:32			0	41192	0	0	0	26924	25520	123640	27055	1019261	42051	109981	0	0	8427	432715	0	0
2024-06-10 20:05:32			0	41196	0	0	0	26909	25510	123512	27081	1019199	42073	109975	0	0	8427	432604	0	0
2024-06-10 20:06:32			0	41199	0	0	0	26911	25510	123412	26646	1019225	42073	109976	0	0	8428	432502	0	0
2024-06-10 20:07:32			0	41229	0	0	0	26906	25510	123408	26850	1019199	42062	109974	0	0	8429	431484	0	0
2024-06-10 20:08:32			0	41236	0	0	0	26890	25520	123460	26852	1019216	42074	109968	0	0	8430	431222	0	0
2024-06-10 20:09:32			0	41274	0	0	0	26867	25510	123464	26778	1019136	42061	109959	0	0	8432	429960	0	0
2024-06-10 20:10:32			0	41271	0	0	0	26864	25500	123340	27157	1019039	42072	109958	0	0	8432	430086	0	0
2024-06-10 20:11:32			0	41295	0	0	0	26828	25500	123288	26687	1019012	42061	109944	0	0	8434	429274	0	0
2024-06-10 20:12:32			0	41306	0	0	0	26818	25480	123300	27133	1018933	42038	109940	0	0	8435	428951	0	0
2024-06-10 20:13:32			0	41329	0	0	0	26794	25460	123156	27105	1018853	42046	109931	0	0	8436	428222	0	0
2024-06-10 20:14:32			0	41350	0	0	0	26781	25470	123116	26660	1018835	42058	109926	0	0	8438	427489	0	0
2024-06-10 20:15:32			0	41354	0	0	0	26818	25450	123068	27114	1018916	42056	109940	0	0	8437	427403	0	0
2024-06-10 20:16:32			0	41353	0	0	0	26846	25460	123092	26897	1018925	42056	109951	0	0	8437	427412	0	0
2024-06-10 20:17:32			0	41364	0	0	0	26854	25460	123052	27024	1019014	42057	109954	0	0	8437	427041	0	0
2024-06-10 20:18:32			0	41366	0	0	0	26841	25460	123096	26963	1018898	42056	109949	0	0	8437	426973	0	0
2024-06-10 20:19:32			0	41352	0	0	0	26807	25450	123112	26979	1018916	42056	109936	0	0	8437	427470	0	0
2024-06-10 20:20:32			0	41385	0	0	0	26805	25450	123076	26845	1018801	42045	109935	0	0	8439	426357	0	0
2024-06-10 20:21:32			0	41385	0	0	0	26807	25450	123064	26859	1018854	42056	109936	0	0	8439	426357	0	0
2024-06-10 20:22:32			0	41404	0	0	0	26815	25440	123016	26904	1018864	42055	109939	0	0	8440	425741	0	0
2024-06-10 20:23:32			0	41410	0	0	0	26823	25440	123056	26807	1018891	42055	109942	0	0	8440	425539	0	0
2024-06-10 20:24:32			0	41418	0	0	0	26838	25450	123044	26889	1018828	42068	109948	0	0	8440	425246	0	0
2024-06-10 20:25:32			0	41406	0	0	0	26838	25440	122956	26772	1018891	42043	109948	0	0	8439	425674	0	0
2024-06-10 20:26:32			0	41410	0	0	0	26836	25440	122988	27147	1018864	42055	109947	0	0	8440	425539	0	0
2024-06-10 20:27:32			0	41413	0	0	0	26838	25450	122956	26956	1018908	42056	109948	0	0	8440	425414	0	0
2024-06-10 20:28:32			0	41437	0	0	0	26844	25450	123013	26736	1018997	42056	109950	0	0	8441	424606	0	0
2024-06-10 20:29:32			0	41423	0	0	0	26857	25440	123016	26838	1018953	42056	109955	0	0	8440	425101	0	0
2024-06-10 20:30:32			0	41422	0	0	0	26851	25450	122996	27097	1018961	42068	109953	0	0	8440	425111	0	0
2024-06-10 20:31:32			0	41419	0	0	0	26851	25450	122936	27085	1018916	42068	109953	0	0	8440	425212	0	0
2024-06-10 20:32:32			0	41407	0	0	0	26844	25450	122892	27090	1018908	42056	109950	0	0	8439	425616	0	0
2024-06-10 20:33:32			0	41401	0	0	0	26849	25450	123004	26944	1018881	42056	109952	0	0	8439	425818	0	0
2024-06-10 20:34:32			0	41404	0	0	0	26844	25440	122992	26977	1018899	42056	109950	0	0	8439	425741	0	0
2024-06-10 20:35:32			0	41401	0	0	0	26846	25450	123004	27182	1018943	42056	109951	0	0	8439	425818	0	0
2024-06-10 20:36:32			0	41400	0	0	0	26870	25440	122972	26771	1018980	42056	109960	0	0	8439	425876	0	0
2024-06-10 20:37:32			0	41378	0	0	0	26888	25450	123140	26840	1018997	42068	109967	0	0	8437	426593	0	0
2024-06-10 20:38:32			0	41354	0	0	0	26877	25450	123164	27291	1019015	42068	109963	0	0	8436	427403	0	0
2024-06-10 20:39:32			0	41321	0	0	0	26903	25460	123192	27114	1019121	42080	109973	0	0	8434	428493	0	0
2024-06-10 20:40:32			0	41329	0	0	0	26922	25470	123196	27209	1019085	42071	109980	0	0	8434	428198	0	0
2024-06-10 20:41:32			0	41325	0	0	0	26906	25470	123168	26870	1019049	42081	109974	0	0	8434	428333	0	0
2024-06-10 20:42:32			0	41318	0	0	0	26901	25480	123256	26684	1019093	42048	109972	0	0	8434	428545	0	0
2024-06-10 20:43:32			0	41321	0	0	0	26896	25480	123216	27017	1019075	42071	109970	0	0	8434	428444	0	0
2024-06-10 20:44:32			0	41313	0	0	0	26903	25470	123244	26961	1019085	42071	109973	0	0	8434	428738	0	0
2024-06-10 20:45:32			0	41327	0	0	0	26909	25480	123260	26998	1019120	42071	109975	0	0	8434	428241	0	0
2024-06-10 20:46:32			0	41326	0	0	0	26903	25480	123140	27128	1019156	42071	109973	0	0	8434	428275	0	0
2024-06-10 20:47:32			0	41310	0	0	0	26896	25490	123208	26932	1019137	42083	109970	0	0	8434	428791	0	0
2024-06-10 20:48:32			0	41344	0	0	0	26903	25500	123168	27114	1019200	42072	109973	0	0	8435	427618	0	0
2024-06-10 20:49:32			0	41336	0	0	0	26906	25500	123168	26930	1019208	42072	109974	0	0	8435	427889	0	0
2024-06-10 20:50:32			0	41334	0	0	0	26911	25500	123144	27055	1019226	42072	109976	0	0	8435	427956	0	0
2024-06-10 20:51:32			0	41342	0	0	0	26927	25500	123188	27197	1019200	42072	109982	0	0	8435	427686	0	0
2024-06-10 20:52:32			0	41315	0	0	0	26932	25500	123128	27019	1019200	42061	109984	0	0	8433	428598	0	0
2024-06-10 20:53:32			0	41315	0	0	0	26929	25510	123180	26779	1019225	42062	109983	0	0	8433	428573	0	0
2024-06-10 20:54:32			0	41337	0	0	0	26924	25510	123128	27137	1019163	42072	109981	0	0	8435	427830	0	0
2024-06-10 20:55:32			0	41353	0	0	0	26927	25510	123180	26993	1019217	42072	109982	0	0	8435	427290	0	0
2024-06-10 20:56:32			0	41317	0	0	0	26932	25510	123156	26930	1019244	42072	109984	0	0	8433	428506	0	0
2024-06-10 20:57:32			0	41319	0	0	0	26935	25520	123224	26906	1019323	42074	109985	0	0	8433	428414	0	0
2024-06-10 20:58:32			0	41297	0	0	0	26950	25520	123268	27178	1019296	42074	109991	0	0	8432	429157	0	0
2024-06-10 20:59:32			0	41314	0	0	0	26961	25520	123252	27107	1019350	42074	109995	0	0	8433	428583	0	0
2024-06-10 21:00:32			0	41305	0	0	0	26961	25520	123252	26989	1019350	42074	109995	0	0	8432	428887	0	0
2024-06-10 21:01:32			0	41309	0	0	0	26963	25530	123300	26961	1019367	42085	109996	0	0	8433	428727	0	0
2024-06-10 21:02:32			0	41298	0	0	0	26955	25540	123344	26812	1019402	42065	109993	0	0	8432	429075	0	0
2024-06-10 21:03:32			0	41301	0	0	0	26953	25530	123312	27027	1019313	42075	109992	0	0	8432	428998	0	0
2024-06-10 21:04:32			0	41255	0	0	0	26945	25530	123312	27130	1019332	42085	109989	0	0	8430	430554	0	0
2024-06-10 21:05:32			0	41257	0	0	0	26945	25530	123296	27201	1019394	42085	109989	0	0	8430	430486	0	0
2024-06-10 21:06:32			0	41244	0	0	0	26950	25530	123320	26935	1019420	42085	109991	0	0	8429	430927	0	0
2024-06-10 21:07:32			0	41263	0	0	0	26966	25530	123400	27145	1019367	42085	109997	0	0	8430	430283	0	0
2024-06-10 21:08:32			0	41260	0	0	0	26971	25550	123456	27059	1019393	42077	109999	0	0	8430	430336	0	0
2024-06-10 21:09:32			0	41242	0	0	0	26971	25540	123372	27230	1019438	42066	109999	0	0	8429	430970	0	0
2024-06-10 21:10:32			0	41269	0	0	0	26986	25550	123404	27074	1019482	42087	110005	0	0	8430	430031	0	0
2024-06-10 21:11:32			0	41268	0	0	0	26992	25560	123348	26899	1019491	42078	110007	0	0	8430	430041	0	0
2024-06-10 21:12:32			0	41275	0	0	0	26994	25560	123368	27185	1019526	42079	110008	0	0	8430	429804	0	0
2024-06-10 21:13:32			0	41307	0	0	0	27002	25570	123440	27045	1019535	42089	110011	0	0	8432	428697	0	0
2024-06-10 21:14:32			0	41291	0	0	0	26997	25560	123372	27138	1019517	42088	110009	0	0	8431	429262	0	0
2024-06-10 21:15:32			0	41268	0	0	0	27002	25570	123356	27111	1019615	42079	110011	0	0	8430	430016	0	0
2024-06-10 21:16:32			0	41273	0	0	0	27005	25570	123288	27074	1019588	42089	110012	0	0	8430	429847	0	0
2024-06-10 21:17:32			0	41269	0	0	0	27002	25580	123396	27185	1019605	42090	110011	0	0	8430	429958	0	0
2024-06-10 21:18:32			0	41225	0	0	0	26997	25580	123480	26934	1019614	42081	110009	0	0	8428	431448	0	0
2024-06-10 21:19:32			0	41230	0	0	0	27010	25600	123516	27126	1019613	42081	110014	0	0	8428	431229	0	0
2024-06-10 21:20:32			0	41220	0	0	0	27002	25580	123516	26930	1019668	42069	110011	0	0	8427	431617	0	0
2024-06-10 21:21:32			0	41202	0	0	0	26986	25590	123588	27384	1019578	42081	110005	0	0	8427	432203	0	0
2024-06-10 21:22:32			0	41238	0	0	0	26984	25590	123548	27388	1019542	42102	110004	0	0	8429	430983	0	0
2024-06-10 21:23:32			0	41222	0	0	0	26974	25590	123472	27095	1019551	42081	110000	0	0	8428	431525	0	0
2024-06-10 21:24:32			0	41213	0	0	0	26984	25580	123540	27149	1019525	42080	110004	0	0	8427	431854	0	0
2024-06-10 21:25:32			0	41192	0	0	0	26999	25580	123504	26998	1019552	42080	110010	0	0	8426	432567	0	0
2024-06-10 21:26:32			0	41197	0	0	0	26992	25580	123568	27065	1019579	42090	110007	0	0	8426	432397	0	0
2024-06-10 21:27:32			0	41198	0	0	0	26994	25580	123548	27216	1019641	42081	110008	0	0	8426	432363	0	0
2024-06-10 21:28:32			0	41195	0	0	0	27005	25580	123584	27348	1019605	42080	110012	0	0	8426	432465	0	0
2024-06-10 21:29:32			0	41200	0	0	0	27010	25600	123632	27121	1019613	42081	110014	0	0	8426	432246	0	0
2024-06-10 21:30:32			0	41205	0	0	0	27010	25590	123628	27235	1019604	42081	110014	0	0	8426	432101	0	0
2024-06-10 21:31:32			0	41170	0	0	0	27002	25600	123612	27232	1019667	42081	110011	0	0	8425	433265	0	0
2024-06-10 21:32:32			0	41173	0	0	0	26992	25600	123748	27185	1019586	42092	110007	0	0	8425	433163	0	0
2024-06-10 21:33:32			0	41140	0	0	0	26989	25580	123620	27557	1019587	42091	110006	0	0	8423	434334	0	0
2024-06-10 21:34:32			0	41150	0	0	0	26986	25600	123688	27343	1019533	42081	110005	0	0	8424	433944	0	0
2024-06-10 21:35:32			0	41133	0	0	0	26986	25600	123804	27263	1019640	42092	110005	0	0	8423	434522	0	0
2024-06-10 21:36:32			0	41093	0	0	0	26986	25590	123804	27026	1019542	42102	110005	0	0	8421	435909	0	0
2024-06-10 21:37:32			0	41076	0	0	0	26997	25590	123876	27190	1019631	42102	110009	0	0	8420	436488	0	0
2024-06-10 21:38:32			0	41086	0	0	0	26997	25580	124004	27133	1019668	42102	110009	0	0	8420	436172	0	0
2024-06-10 21:39:32			0	41057	0	0	0	26984	25580	124000	27064	1019587	42091	110004	0	0	8419	437161	0	0
2024-06-10 21:40:32			0	41039	0	0	0	26971	25590	124040	27072	1019569	42069	109999	0	0	8418	437751	0	0
2024-06-10 21:41:32			0	41032	0	0	0	26955	25580	124044	27225	1019471	42080	109993	0	0	8418	438015	0	0
2024-06-10 21:42:32			0	41038	0	0	0	26942	25570	124096	27123	1019516	42067	109988	0	0	8419	437835	0	0
2024-06-10 21:43:32			0	41027	0	0	0	26935	25570	124088	26982	1019463	42067	109985	0	0	8418	438210	0	0
2024-06-10 21:44:32			0	41015	0	0	0	26927	25560	124136	27079	1019392	42079	109982	0	0	8418	438645	0	0
2024-06-10 21:45:32			0	40995	0	0	0	26935	25560	124144	27239	1019392	42089	109985	0	0	8417	439329	0	0
2024-06-10 21:46:32			0	40994	0	0	0	26940	25550	124204	26844	1019348	42066	109987	0	0	8416	439388	0	0
2024-06-10 21:47:32			0	40972	0	0	0	26942	25550	124224	27253	1019428	42077	109988	0	0	8415	440142	0	0
2024-06-10 21:48:32			0	40984	0	0	0	26935	25550	124244	27190	1019402	42077	109985	0	0	8416	439731	0	0
2024-06-10 21:49:32			0	40949	0	0	0	26927	25540	124276	27020	1019384	42077	109982	0	0	8414	440955	0	0
2024-06-10 21:50:32			0	40947	0	0	0	26916	25550	124284	27242	1019366	42077	109978	0	0	8414	440998	0	0
2024-06-10 21:51:32			0	40966	0	0	0	26922	25550	124348	27355	1019420	42077	109980	0	0	8415	440347	0	0
2024-06-10 21:52:32			0	40958	0	0	0	26922	25540	124188	27281	1019376	42076	109980	0	0	8415	440646	0	0
2024-06-10 21:53:32			0	41004	0	0	0	26911	25530	124220	27326	1019251	42074	109976	0	0	8417	439096	0	0
2024-06-10 21:54:32			0	41025	0	0	0	26903	25540	124180	27007	1019295	42076	109973	0	0	8419	438353	0	0
2024-06-10 21:55:32			0	41080	0	0	0	26903	25530	124032	27327	1019251	42074	109973	0	0	8421	436501	0	0
2024-06-10 21:56:32			0	41062	0	0	0	26890	25530	123952	27192	1019287	42075	109968	0	0	8421	437115	0	0
2024-06-10 21:57:32			0	41091	0	0	0	26883	25520	123968	27313	1019269	42085	109965	0	0	8422	436151	0	0
2024-06-10 21:58:32			0	41116	0	0	0	26901	25520	123888	27085	1019234	42074	109972	0	0	8423	435299	0	0
2024-06-10 21:59:32			0	41094	0	0	0	26893	25520	123864	27147	1019234	42074	109969	0	0	8422	436048	0	0
2024-06-10 22:00:32			0	41122	0	0	0	26888	25520	123784	26729	1019288	42074	109967	0	0	8424	435094	0	0
2024-06-10 22:01:32			0	41136	0	0	0	26875	25510	123832	26967	1019145	42073	109962	0	0	8425	434643	0	0
2024-06-10 22:02:32			0	41118	0	0	0	26875	25500	123780	27043	1019181	42072	109962	0	0	8424	435280	0	0
2024-06-10 22:03:32			0	41140	0	0	0	26877	25510	123788	27166	1019190	42061	109963	0	0	8425	434507	0	0
2024-06-10 22:04:32			0	41150	0	0	0	26877	25510	123816	26993	1019163	42083	109963	0	0	8426	434166	0	0
2024-06-10 22:05:32			0	41168	0	0	0	26880	25510	123744	27241	1019163	42072	109964	0	0	8426	433555	0	0
2024-06-10 22:06:32			0	41149	0	0	0	26883	25500	123792	27246	1019200	42083	109965	0	0	8425	434225	0	0
2024-06-10 22:07:32			0	41165	0	0	0	26877	25500	123776	27261	1019119	42083	109963	0	0	8426	433681	0	0
2024-06-10 22:08:32			0	41171	0	0	0	26880	25500	123668	26831	1019208	42072	109964	0	0	8427	433477	0	0
2024-06-10 22:09:32			0	41176	0	0	0	26888	25500	123732	27085	1019155	42083	109967	0	0	8427	433307	0	0
2024-06-10 22:10:32			0	41172	0	0	0	26883	25500	123752	27338	1019146	42083	109965	0	0	8427	433443	0	0
2024-06-10 22:11:32			0	41162	0	0	0	26880	25500	123708	27204	1019173	42061	109964	0	0	8426	433783	0	0
2024-06-10 22:12:32			0	41136	0	0	0	26906	25500	123788	27048	1019200	42083	109974	0	0	8424	434667	0	0
2024-06-10 22:13:32			0	41150	0	0	0	26916	25500	123724	26790	1019226	42072	109978	0	0	8425	434191	0	0
2024-06-10 22:14:32			0	41140	0	0	0	26885	25490	123744	27274	1019164	42071	109966	0	0	8425	434556	0	0
2024-06-10 22:15:32			0	41135	0	0	0	26864	25500	123768	27201	1019092	42083	109958	0	0	8425	434701	0	0
2024-06-10 22:16:32			0	41123	0	0	0	26870	25490	123836	27128	1019111	42083	109960	0	0	8424	435135	0	0
2024-06-10 22:17:32			0	41125	0	0	0	26896	25490	123860	27182	1019137	42093	109970	0	0	8424	435067	0	0
2024-06-10 22:18:32			0	41123	0	0	0	26893	25500	123876	27166	1019101	42072	109969	0	0	8424	435110	0	0
2024-06-10 22:19:32			0	41132	0	0	0	26888	25500	123852	27069	1019208	42072	109967	0	0	8424	434804	0	0
2024-06-10 22:20:32			0	41112	0	0	0	26885	25490	123876	27417	1019164	42093	109966	0	0	8423	435509	0	0
2024-06-10 22:21:32			0	41119	0	0	0	26880	25490	123932	27020	1019164	42071	109964	0	0	8424	435271	0	0
2024-06-10 22:22:32			0	41109	0	0	0	26851	25480	123896	26927	1019048	42059	109953	0	0	8424	435636	0	0
2024-06-10 22:23:32			0	41109	0	0	0	26872	25470	123876	26916	1019058	42071	109961	0	0	8423	435661	0	0
2024-06-10 22:24:32			0	41080	0	0	0	26877	25480	123920	26906	1019040	42082	109963	0	0	8422	436625	0	0
2024-06-10 22:25:32			0	41076	0	0	0	26859	25480	123908	27161	1019040	42071	109956	0	0	8422	436761	0	0
2024-06-10 22:26:32			0	41061	0	0	0	26854	25480	124036	27017	1019067	42071	109954	0	0	8421	437273	0	0
2024-06-10 22:27:32			0	41063	0	0	0	26851	25460	123984	27289	1019041	42080	109953	0	0	8421	437255	0	0
2024-06-10 22:28:32			0	41069	0	0	0	26877	25470	124000	27346	1019049	42081	109963	0	0	8421	437025	0	0
2024-06-10 22:29:32			0	41032	0	0	0	26870	25460	124028	27345	1019068	42080	109960	0	0	8419	438314	0	0
2024-06-10 22:30:32			0	41040	0	0	0	26846	25470	124116	27083	1019049	42058	109951	0	0	8420	438015	0	0
2024-06-10 22:31:32			0	41036	0	0	0	26846	25470	124144	27239	1019049	42081	109951	0	0	8420	438152	0	0
2024-06-10 22:32:32			0	40984	0	0	0	26851	25470	124232	27256	1019049	42058	109953	0	0	8417	439931	0	0
2024-06-10 22:33:32			0	40989	0	0	0	26844	25470	124188	27126	1019004	42082	109950	0	0	8417	439760	0	0
2024-06-10 22:34:32			0	40977	0	0	0	26841	25470	124324	27022	1018969	42070	109949	0	0	8417	440171	0	0
2024-06-10 22:35:32			0	40949	0	0	0	26844	25460	124388	27220	1018987	42080	109950	0	0	8415	441155	0	0
2024-06-10 22:36:32			0	40925	0	0	0	26831	25460	124488	27076	1018960	42069	109945	0	0	8414	441979	0	0
2024-06-10 22:37:32			0	40867	0	0	0	26812	25460	124500	26941	1018925	42068	109938	0	0	8412	443972	0	0
2024-06-10 22:38:32			0	40827	0	0	0	26799	25440	124688	27263	1018873	42067	109933	0	0	8410	445400	0	0
2024-06-10 22:39:32			0	40775	0	0	0	26797	25440	124888	27086	1018784	42043	109932	0	0	8407	447194	0	0
2024-06-10 22:40:32			0	40732	0	0	0	26810	25440	125051	27119	1018837	42066	109937	0	0	8404	448681	0	0
2024-06-10 22:41:32			0	40667	0	0	0	26836	25430	125163	27365	1018855	42077	109947	0	0	8401	450958	0	0
2024-06-10 22:42:32			0	40608	0	0	0	26825	25430	125275	27135	1018882	42066	109943	0	0	8398	453008	0	0
2024-06-10 22:43:32			0	40560	0	0	0	26846	25440	125463	27140	1018917	42077	109951	0	0	8395	454653	0	0
2024-06-10 22:44:32			0	40522	0	0	0	26836	25430	125563	27225	1018882	42066	109947	0	0	8393	456004	0	0
2024-06-10 22:45:32			0	40488	0	0	0	26789	25430	125651	26847	1018847	42055	109929	0	0	8392	457191	0	0
2024-06-10 22:46:32			0	40452	0	0	0	26776	25420	125811	27166	1018776	42076	109924	0	0	8390	458476	0	0
2024-06-10 22:47:32			0	40423	0	0	0	26768	25410	125851	27119	1018713	42064	109921	0	0	8389	459518	0	0
2024-06-10 22:48:32			0	40377	0	0	0	26753	25410	126047	27265	1018660	42053	109915	0	0	8387	461131	0	0
2024-06-10 22:49:32			0	40365	0	0	0	26740	25400	126043	27204	1018643	42052	109910	0	0	8386	461579	0	0
2024-06-10 22:50:32			0	40367	0	0	0	26771	25400	126163	26842	1018607	42062	109922	0	0	8386	461509	0	0
2024-06-10 22:51:32			0	40324	0	0	0	26766	25380	126235	26920	1018608	42050	109920	0	0	8384	463073	0	0
2024-06-10 22:52:32			0	40328	0	0	0	26766	25390	126207	27076	1018670	42050	109920	0	0	8384	462906	0	0
2024-06-10 22:53:32			0	40303	0	0	0	26768	25380	126355	27176	1018608	42073	109921	0	0	8383	463813	0	0
2024-06-10 22:54:32			0	40269	0	0	0	26773	25380	126395	27325	1018582	42073	109923	0	0	8381	465011	0	0
2024-06-10 22:55:32			0	40248	0	0	0	26786	25380	126507	27286	1018608	42073	109928	0	0	8379	465752	0	0
2024-06-10 22:56:32			0	40214	0	0	0	26797	25390	126563	27237	1018652	42074	109932	0	0	8378	466927	0	0
2024-06-10 22:57:32			0	40202	0	0	0	26823	25390	126707	27313	1018697	42073	109942	0	0	8376	467351	0	0
2024-06-10 22:58:32			0	40165	0	0	0	26859	25390	126739	27059	1018786	42084	109956	0	0	8374	468661	0	0
2024-06-10 22:59:32			0	40117	0	0	0	26846	25410	126895	27154	1018839	42076	109951	0	0	8372	470309	0	0
2024-06-10 23:00:32			0	40097	0	0	0	26825	25410	126951	27088	1018758	42076	109943	0	0	8371	471019	0	0
2024-06-10 23:01:32			0	40086	0	0	0	26846	25420	126882	27175	1018883	42053	109951	0	0	8370	471383	0	0
2024-06-10 23:02:32			0	40083	0	0	0	26862	25420	126910	27242	1018910	42076	109957	0	0	8370	471490	0	0
2024-06-10 23:03:32			0	40057	0	0	0	26870	25420	127038	27036	1018910	42064	109960	0	0	8368	472414	0	0
2024-06-10 23:04:32			0	40034	0	0	0	26854	25420	127034	27230	1018918	42076	109954	0	0	8367	473233	0	0
2024-06-10 23:05:32			0	40021	0	0	0	26846	25420	127094	27138	1018945	42076	109951	0	0	8367	473696	0	0
2024-06-10 23:06:32			0	39982	0	0	0	26844	25430	127030	27308	1018936	42066	109950	0	0	8365	475060	0	0
2024-06-10 23:07:32			0	39985	0	0	0	26812	25430	127146	27163	1018847	42066	109938	0	0	8366	474952	0	0
2024-06-10 23:08:32			0	40007	0	0	0	26802	25420	127162	27215	1018865	42087	109934	0	0	8367	474195	0	0
2024-06-10 23:09:32			0	39973	0	0	0	26831	25420	127294	27230	1018838	42054	109945	0	0	8365	475408	0	0
2024-06-10 23:10:32			0	39966	0	0	0	26841	25410	127242	27312	1018794	42086	109949	0	0	8364	475685	0	0
2024-06-10 23:11:32			0	39973	0	0	0	26846	25440	127206	27118	1018917	42077	109951	0	0	8364	475354	0	0
2024-06-10 23:12:32			0	39957	0	0	0	26802	25420	127250	27059	1018856	42086	109934	0	0	8364	475979	0	0
2024-06-10 23:13:32			0	39951	0	0	0	26802	25430	127238	26942	1018802	42066	109934	0	0	8364	476166	0	0
2024-06-10 23:14:32			0	39953	0	0	0	26825	25420	127230	27048	1018838	42065	109943	0	0	8364	476122	0	0
2024-06-10 23:15:32			0	39934	0	0	0	26836	25420	127338	26802	1018802	42076	109947	0	0	8362	476801	0	0
2024-06-10 23:16:32			0	39959	0	0	0	26831	25420	127302	27171	1018856	42076	109945	0	0	8364	475908	0	0
2024-06-10 23:17:32			0	39962	0	0	0	26818	25430	127378	27034	1018900	42066	109940	0	0	8364	475773	0	0
2024-06-10 23:18:32			0	39927	0	0	0	26797	25420	127382	27161	1018811	42054	109932	0	0	8363	477052	0	0
2024-06-10 23:19:32			0	39920	0	0	0	26802	25410	127430	27015	1018767	42076	109934	0	0	8362	477329	0	0
2024-06-10 23:20:32			0	39878	0	0	0	26794	25410	127490	27001	1018758	42076	109931	0	0	8360	478833	0	0
2024-06-10 23:21:32			0	39868	0	0	0	26836	25420	127646	27249	1018829	42076	109947	0	0	8359	479165	0	0
2024-06-10 23:22:32			0	39839	0	0	0	26841	25410	127642	27324	1018812	42086	109949	0	0	8357	480232	0	0
2024-06-10 23:23:32			0	39839	0	0	0	26844	25420	127642	26859	1018856	42086	109950	0	0	8357	480205	0	0
2024-06-10 23:24:32			0	39839	0	0	0	26844	25430	127678	26804	1018882	42088	109950	0	0	8357	480178	0	0
2024-06-10 23:25:32			0	39839	0	0	0	26841	25420	127706	26970	1018918	42076	109949	0	0	8357	480205	0	0
2024-06-10 23:26:32			0	39830	0	0	0	26833	25430	127582	27057	1018874	42077	109946	0	0	8357	480501	0	0
2024-06-10 23:27:32			0	39851	0	0	0	26828	25420	127642	26864	1018910	42076	109944	0	0	8358	479774	0	0
2024-06-10 23:28:32			0	39840	0	0	0	26815	25420	127630	26979	1018910	42076	109939	0	0	8358	480169	0	0
2024-06-10 23:29:32			0	39865	0	0	0	26802	25420	127626	27121	1018829	42076	109934	0	0	8359	479272	0	0
2024-06-10 23:30:32			0	39891	0	0	0	26789	25420	127474	27064	1018784	42076	109929	0	0	8361	478340	0	0
2024-06-10 23:31:32			0	39876	0	0	0	26789	25410	127514	26987	1018740	42053	109929	0	0	8360	478905	0	0
2024-06-10 23:32:32			0	39939	0	0	0	26789	25410	127322	27203	1018732	42064	109929	0	0	8363	476650	0	0
2024-06-10 23:33:32			0	39935	0	0	0	26761	25410	127266	26878	1018732	42076	109918	0	0	8364	476792	0	0
2024-06-10 23:34:32			0	39943	0	0	0	26758	25400	127270	27177	1018634	42074	109917	0	0	8364	476534	0	0
2024-06-10 23:35:32			0	39941	0	0	0	26722	25400	127318	27090	1018581	42051	109903	0	0	8365	476605	0	0
2024-06-10 23:36:32			0	39960	0	0	0	26690	25390	127218	27279	1018563	42061	109891	0	0	8366	475953	0	0
2024-06-10 23:37:32			0	39991	0	0	0	26670	25370	127214	26913	1018449	42060	109883	0	0	8368	474900	0	0
2024-06-10 23:38:32			0	40024	0	0	0	26610	25350	127082	26795	1018334	42046	109860	0	0	8371	473777	0	0
2024-06-10 23:39:32			0	40028	0	0	0	26631	25340	126982	27371	1018263	42035	109868	0	0	8370	473662	0	0
2024-06-10 23:40:32			0	40084	0	0	0	26602	25320	126902	27029	1018148	42044	109857	0	0	8374	471722	0	0
2024-06-10 23:41:32			0	40115	0	0	0	26612	25310	126855	26885	1018140	42033	109861	0	0	8375	470647	0	0
2024-06-10 23:42:32			0	40118	0	0	0	26602	25300	126779	27152	1018096	42053	109857	0	0	8375	470568	0	0
2024-06-10 23:43:32			0	40160	0	0	0	26563	25290	126743	27253	1018070	42030	109842	0	0	8378	469104	0	0
2024-06-10 23:44:32			0	40179	0	0	0	26399	25280	126655	26864	1017901	42030	109779	0	0	8382	468457	0	0
2024-06-10 23:45:32			0	40207	0	0	0	26366	25250	126555	27097	1017573	42037	109766	0	0	8384	467546	0	0
2024-06-10 23:46:32			0	40230	0	0	0	26155	25210	126431	27294	1017245	41989	109685	0	0	8388	466838	0	0
2024-06-10 23:47:32			0	40251	0	0	0	26109	25150	126347	27116	1016829	41962	109667	0	0	8390	466255	0	0
2024-06-10 23:48:32			0	40278	0	0	0	26116	25080	126351	27149	1016575	41978	109670	0	0	8391	465486	0	0
2024-06-10 23:49:32			0	40232	0	0	0	26070	25040	126431	26733	1016345	41985	109652	0	0	8389	467218	0	0
2024-06-10 23:50:32			0	40197	0	0	0	26067	25000	126639	26870	1016241	41992	109651	0	0	8387	468564	0	0
2024-06-10 23:51:32			0	40120	0	0	0	26064	24970	126807	27156	1016198	41989	109650	0	0	8383	471379	0	0
2024-06-10 23:52:32			0	40098	0	0	0	26070	24950	126951	27008	1016128	41975	109652	0	0	8382	472215	0	0
2024-06-10 23:53:32			0	40049	0	0	0	26015	24930	127090	26991	1016013	41985	109631	0	0	8380	474015	0	0
2024-06-10 23:54:32			0	40049	0	0	0	25992	24890	127166	27135	1015882	41983	109622	0	0	8381	474123	0	0
2024-06-10 23:55:32			0	40038	0	0	0	26020	24860	127206	27329	1015750	41979	109633	0	0	8379	474596	0	0
2024-06-10 23:56:32			0	40002	0	0	0	26049	24840	127334	26963	1015742	41989	109644	0	0	8377	475937	0	0
2024-06-10 23:57:32			0	39991	0	0	0	26228	24840	127450	26875	1015921	41999	109713	0	0	8373	476330	0	0
2024-06-10 23:58:32			0	39908	0	0	0	26150	24830	127634	26889	1015913	41999	109683	0	0	8370	479333	0	0
2024-06-10 23:59:32			0	39842	0	0	0	26192	24830	128010	27204	1016065	42010	109699	0	0	8366	481707	0	0
2024-06-11 00:00:32			0	39737	0	0	0	26228	24840	128206	26850	1016090	42000	109713	0	0	8360	485470	0	0
2024-06-11 00:01:32			0	39717	0	0	0	26137	24840	128334	26850	1016090	42011	109678	0	0	8361	486193	0	0
2024-06-11 00:02:32			0	39659	0	0	0	26148	24860	128418	27303	1016063	42000	109682	0	0	8358	488240	0	0
2024-06-11 00:03:32			0	39615	0	0	0	26127	24830	128638	26871	1015939	41988	109674	0	0	8356	489922	0	0
2024-06-11 00:04:32			0	39525	0	0	0	26140	24830	128774	26786	1015877	41999	109679	0	0	8351	493200	0	0
2024-06-11 00:05:32			0	39535	0	0	0	26155	24820	128826	26958	1015922	41998	109685	0	0	8351	492864	0	0
2024-06-11 00:06:32			0	39468	0	0	0	26168	24810	128962	26807	1015843	42007	109690	0	0	8347	495340	0	0
2024-06-11 00:07:32			0	39437	0	0	0	26184	24810	129174	27046	1015905	42008	109696	0	0	8345	496475	0	0
2024-06-11 00:08:32			0	39403	0	0	0	26085	24810	129205	26889	1015825	41998	109658	0	0	8345	497721	0	0
2024-06-11 00:09:32			0	39380	0	0	0	26111	24800	129253	26708	1015754	41997	109668	0	0	8344	498594	0	0
2024-06-11 00:10:32			0	39376	0	0	0	26122	24790	129313	26975	1015737	41983	109672	0	0	8343	498769	0	0
2024-06-11 00:11:32			0	39355	0	0	0	26119	24790	129317	26857	1015710	41983	109671	0	0	8342	499541	0	0
2024-06-11 00:12:32			0	39336	0	0	0	26109	24770	129457	27038	1015622	41993	109667	0	0	8341	500297	0	0
2024-06-11 00:13:32			0	39309	0	0	0	26090	24770	129485	26850	1015595	41993	109660	0	0	8340	501291	0	0
2024-06-11 00:14:32			0	39318	0	0	0	26083	24760	129549	26934	1015543	41992	109657	0	0	8341	500988	0	0
2024-06-11 00:15:32			0	39300	0	0	0	26062	24750	129529	26974	1015641	41991	109649	0	0	8340	501679	0	0
2024-06-11 00:16:32			0	39327	0	0	0	26077	24740	129661	27131	1015437	41979	109655	0	0	8341	500713	0	0
2024-06-11 00:17:32			0	39295	0	0	0	26075	24730	129693	26587	1015553	41989	109654	0	0	8340	501921	0	0
2024-06-11 00:18:32			0	39271	0	0	0	26057	24730	129713	27060	1015446	41989	109647	0	0	8339	502806	0	0
2024-06-11 00:19:32			0	39274	0	0	0	26077	24730	129737	26771	1015473	41989	109655	0	0	8338	502695	0	0
2024-06-11 00:20:32			0	39282	0	0	0	26064	24730	129697	26847	1015438	42000	109650	0	0	8339	502400	0	0
2024-06-11 00:21:32			0	39255	0	0	0	26080	24720	129741	26656	1015474	41988	109656	0	0	8337	503425	0	0
2024-06-11 00:22:32			0	39269	0	0	0	26072	24720	129773	26871	1015510	41977	109653	0	0	8338	502908	0	0
2024-06-11 00:23:32			0	39252	0	0	0	26101	24720	129677	26828	1015456	41988	109664	0	0	8337	503536	0	0
2024-06-11 00:24:32			0	39272	0	0	0	26090	24710	129685	26679	1015466	41987	109660	0	0	8338	502826	0	0
2024-06-11 00:25:32			0	39313	0	0	0	26070	24720	129557	26923	1015421	41988	109652	0	0	8341	501285	0	0
2024-06-11 00:26:32			0	39310	0	0	0	26051	24700	129669	26915	1015288	41975	109645	0	0	8341	501453	0	0
2024-06-11 00:27:32			0	39279	0	0	0	26059	24700	129765	26791	1015306	41998	109648	0	0	8339	502596	0	0
2024-06-11 00:28:32			0	39267	0	0	0	26057	24690	129697	26911	1015369	41996	109647	0	0	8338	503068	0	0
2024-06-11 00:29:32			0	39240	0	0	0	26064	24680	129717	27038	1015280	42006	109650	0	0	8337	504094	0	0
2024-06-11 00:30:32			0	39251	0	0	0	26031	24690	129785	26951	1015289	41985	109637	0	0	8338	503659	0	0
2024-06-11 00:31:32			0	39244	0	0	0	26023	24680	129917	27196	1015245	41984	109634	0	0	8338	503946	0	0
2024-06-11 00:32:32			0	39239	0	0	0	26028	24680	129861	27072	1015218	41984	109636	0	0	8337	504131	0	0
2024-06-11 00:33:32			0	39234	0	0	0	26023	24670	129881	27052	1015174	41972	109634	0	0	8337	504344	0	0
2024-06-11 00:34:32			0	39234	0	0	0	26049	24670	129973	27007	1015228	41983	109644	0	0	8337	504344	0	0
2024-06-11 00:35:32			0	39217	0	0	0	26054	24670	129925	27130	1015228	41983	109646	0	0	8336	504973	0	0
2024-06-11 00:36:32			0	39205	0	0	0	26064	24670	129929	26797	1015174	41983	109650	0	0	8335	505418	0	0
2024-06-11 00:37:32			0	39227	0	0	0	26080	24660	129869	26724	1015264	41982	109656	0	0	8336	504632	0	0
2024-06-11 00:38:32			0	39264	0	0	0	26044	24670	129861	27038	1015281	41972	109642	0	0	8338	503235	0	0
2024-06-11 00:39:32			0	39249	0	0	0	26064	24670	129821	26927	1015201	41972	109650	0	0	8337	503790	0	0
2024-06-11 00:40:32			0	39275	0	0	0	26064	24670	129873	26873	1015254	41994	109650	0	0	8338	502829	0	0
2024-06-11 00:41:32			0	39265	0	0	0	26046	24670	129865	27114	1015263	41995	109643	0	0	8338	503199	0	0
2024-06-11 00:42:32			0	39292	0	0	0	26044	24660	129845	26861	1015211	41982	109642	0	0	8340	502230	0	0
2024-06-11 00:43:32			0	39289	0	0	0	26046	24670	129693	26866	1015236	41984	109643	0	0	8340	502312	0	0
2024-06-11 00:44:32			0	39316	0	0	0	26046	24660	129689	26906	1015192	41983	109643	0	0	8341	501345	0	0
2024-06-11 00:45:32			0	39313	0	0	0	26041	24650	129661	27092	1015148	41982	109641	0	0	8341	501484	0	0
2024-06-11 00:46:32			0	39315	0	0	0	26046	24660	129693	26788	1015184	41982	109643	0	0	8341	501382	0	0
2024-06-11 00:47:32			0	39328	0	0	0	26046	24660	129729	27102	1015211	41993	109643	0	0	8341	500903	0	0
2024-06-11 00:48:32			0	39320	0	0	0	26049	24660	129677	27142	1015273	42005	109644	0	0	8341	501198	0	0
2024-06-11 00:49:32			0	39305	0	0	0	26049	24650	129801	27395	1015167	41981	109644	0	0	8340	501779	0	0
2024-06-11 00:50:32			0	39320	0	0	0	26033	24660	129649	27083	1015192	41983	109638	0	0	8341	501198	0	0
2024-06-11 00:51:32			0	39326	0	0	0	26036	24660	129729	27235	1015184	41993	109639	0	0	8342	500976	0	0
2024-06-11 00:52:32			0	39305	0	0	0	26018	24650	129653	27170	1015175	41982	109632	0	0	8341	501779	0	0
2024-06-11 00:53:32			0	39276	0	0	0	26038	24650	129709	27410	1015148	41993	109640	0	0	8339	502849	0	0
2024-06-11 00:54:32			0	39301	0	0	0	26036	24650	129781	27239	1015148	41982	109639	0	0	8340	501927	0	0
2024-06-11 00:55:32			0	39282	0	0	0	26041	24650	129813	26998	1015086	41981	109641	0	0	8339	502628	0	0
2024-06-11 00:56:32			0	39273	0	0	0	26031	24640	129721	27039	1015185	41981	109637	0	0	8339	502988	0	0
2024-06-11 00:57:32			0	39273	0	0	0	26036	24650	129821	27220	1015113	41992	109639	0	0	8339	502960	0	0
2024-06-11 00:58:32			0	39244	0	0	0	26054	24650	129865	26840	1015140	42003	109646	0	0	8337	504032	0	0
2024-06-11 00:59:32			0	39263	0	0	0	26015	24650	129933	27208	1015113	41981	109631	0	0	8339	503329	0	0
2024-06-11 01:00:32			0	39225	0	0	0	26025	24650	130005	27386	1015113	41981	109635	0	0	8336	504734	0	0
2024-06-11 01:01:32			0	39233	0	0	0	26018	24640	129977	26830	1015105	41981	109632	0	0	8337	504467	0	0
2024-06-11 01:02:32			0	39198	0	0	0	26033	24640	130037	27168	1015096	41992	109638	0	0	8335	505763	0	0
2024-06-11 01:03:32			0	39183	0	0	0	26031	24640	130145	26911	1015096	41992	109637	0	0	8334	506319	0	0
2024-06-11 01:04:32			0	39160	0	0	0	26010	24640	130133	26975	1015123	41992	109629	0	0	8333	507172	0	0
2024-06-11 01:05:32			0	39140	0	0	0	26028	24630	130161	26790	1015087	41991	109636	0	0	8332	507943	0	0
2024-06-11 01:06:32			0	39159	0	0	0	26023	24640	130289	27216	1015069	41992	109634	0	0	8333	507209	0	0
2024-06-11 01:07:32			0	39130	0	0	0	26033	24630	130285	26925	1015087	41979	109638	0	0	8331	508315	0	0
2024-06-11 01:08:32			0	39144	0	0	0	26015	24630	130209	26960	1015114	41979	109631	0	0	8332	507794	0	0
2024-06-11 01:09:32			0	39107	0	0	0	26025	24640	130317	26786	1015096	41969	109635	0	0	8330	509141	0	0
2024-06-11 01:10:32			0	39112	0	0	0	26020	24630	130325	27038	1015114	41979	109633	0	0	8331	508984	0	0
2024-06-11 01:11:32			0	39111	0	0	0	26018	24630	130341	27235	1015061	41979	109632	0	0	8331	509021	0	0
2024-06-11 01:12:32			0	39101	0	0	0	26012	24640	130317	26897	1015069	41980	109630	0	0	8330	509364	0	0
2024-06-11 01:13:32			0	39090	0	0	0	26023	24630	130457	27024	1015052	41979	109634	0	0	8329	509802	0	0
2024-06-11 01:14:32			0	39087	0	0	0	26025	24630	130469	27026	1015114	41991	109635	0	0	8329	509914	0	0
2024-06-11 01:15:32			0	39077	0	0	0	26028	24630	130401	27003	1015061	41991	109636	0	0	8329	510286	0	0
2024-06-11 01:16:32			0	39077	0	0	0	26028	24630	130449	27234	1015079	41991	109636	0	0	8329	510286	0	0
2024-06-11 01:17:32			0	39099	0	0	0	26038	24630	130501	26726	1015061	41991	109640	0	0	8330	509467	0	0
2024-06-11 01:18:32			0	39110	0	0	0	26041	24630	130373	27124	1015141	41991	109641	0	0	8330	509058	0	0
2024-06-11 01:19:32			0	39110	0	0	0	26015	24630	130265	26819	1015087	41991	109631	0	0	8331	509058	0	0
2024-06-11 01:20:32			0	39121	0	0	0	26031	24640	130349	27036	1015176	41992	109637	0	0	8331	508620	0	0
2024-06-11 01:21:32			0	39126	0	0	0	26038	24630	130297	26963	1015079	42001	109640	0	0	8331	508463	0	0
2024-06-11 01:22:32			0	39147	0	0	0	26046	24630	130301	27211	1015168	42001	109643	0	0	8332	507683	0	0
2024-06-11 01:23:32			0	39167	0	0	0	26051	24630	130221	27171	1015141	41979	109645	0	0	8333	506941	0	0
2024-06-11 01:24:32			0	39190	0	0	0	26064	24640	130189	26762	1015185	42003	109650	0	0	8334	506059	0	0
2024-06-11 01:25:32			0	39213	0	0	0	26057	24640	130041	26984	1015203	41992	109647	0	0	8335	505207	0	0
2024-06-11 01:26:32			0	39276	0	0	0	26067	24640	129965	26922	1015158	41992	109651	0	0	8338	502878	0	0
2024-06-11 01:27:32			0	39322	0	0	0	26062	24650	129765	27062	1015193	41981	109649	0	0	8341	501152	0	0
2024-06-11 01:28:32			0	39352	0	0	0	26072	24650	129681	26703	1015220	41992	109653	0	0	8342	500047	0	0
2024-06-11 01:29:32			0	39385	0	0	0	26062	24650	129453	26767	1015247	41992	109649	0	0	8344	498834	0	0
2024-06-11 01:30:32			0	39435	0	0	0	26077	24660	129286	26920	1015211	41982	109655	0	0	8346	496970	0	0
2024-06-11 01:31:32			0	39463	0	0	0	26085	24650	129202	26760	1015255	41993	109658	0	0	8348	495972	0	0
2024-06-11 01:32:32			0	39485	0	0	0	26088	24660	129162	26896	1015237	42004	109659	0	0	8349	495138	0	0
2024-06-11 01:33:32			0	39524	0	0	0	26080	24660	129066	27265	1015237	41993	109656	0	0	8351	493712	0	0
2024-06-11 01:34:32			0	39553	0	0	0	26085	24660	129042	26935	1015318	42004	109658	0	0	8352	492653	0	0
2024-06-11 01:35:32			0	39553	0	0	0	26083	24660	128942	27298	1015299	41994	109657	0	0	8352	492653	0	0
2024-06-11 01:36:32			0	39574	0	0	0	26083	24670	128770	26880	1015281	41983	109657	0	0	8354	491859	0	0
2024-06-11 01:37:32			0	39618	0	0	0	26080	24670	128798	27074	1015281	41994	109656	0	0	8356	490257	0	0
2024-06-11 01:38:32			0	39641	0	0	0	26080	24670	128734	26849	1015290	41995	109656	0	0	8357	489420	0	0
2024-06-11 01:39:32			0	39632	0	0	0	26077	24680	128654	26793	1015352	42006	109655	0	0	8357	489720	0	0
2024-06-11 01:40:32			0	39636	0	0	0	26062	24670	128726	26960	1015343	41995	109649	0	0	8357	489602	0	0
2024-06-11 01:41:32			0	39622	0	0	0	26057	24670	128770	26648	1015254	41994	109647	0	0	8357	490111	0	0
2024-06-11 01:42:32			0	39614	0	0	0	26080	24670	128802	27112	1015210	41984	109656	0	0	8356	490402	0	0
2024-06-11 01:43:32			0	39628	0	0	0	26064	24670	128754	27296	1015254	41994	109650	0	0	8357	489893	0	0
2024-06-11 01:44:32			0	39632	0	0	0	26072	24670	128794	27059	1015308	41972	109653	0	0	8357	489747	0	0
2024-06-11 01:45:32			0	39639	0	0	0	26075	24670	128626	26993	1015228	41994	109654	0	0	8357	489493	0	0
2024-06-11 01:46:32			0	39624	0	0	0	26067	24670	128694	26651	1015290	42006	109651	0	0	8356	490038	0	0
2024-06-11 01:47:32			0	39638	0	0	0	26072	24670	128702	27308	1015281	42005	109653	0	0	8357	489529	0	0
2024-06-11 01:48:32			0	39630	0	0	0	26054	24670	128710	27027	1015263	42017	109646	0	0	8357	489820	0	0
2024-06-11 01:49:32			0	39613	0	0	0	26067	24670	128738	26889	1015201	41994	109651	0	0	8356	490439	0	0
2024-06-11 01:50:32			0	39611	0	0	0	26051	24660	128838	27157	1015246	41994	109645	0	0	8356	490539	0	0
2024-06-11 01:51:32			0	39634	0	0	0	26059	24670	128818	27081	1015263	42006	109648	0	0	8357	489675	0	0
2024-06-11 01:52:32			0	39634	0	0	0	26062	24670	128754	26944	1015254	41994	109649	0	0	8357	489675	0	0
2024-06-11 01:53:32			0	39648	0	0	0	26036	24660	128774	27267	1015246	42005	109639	0	0	8358	489193	0	0
2024-06-11 01:54:32			0	39618	0	0	0	26049	24670	128770	27078	1015174	41994	109644	0	0	8356	490257	0	0
2024-06-11 01:55:32			0	39621	0	0	0	26054	24660	128858	26916	1015211	41993	109646	0	0	8356	490175	0	0
2024-06-11 01:56:32			0	39611	0	0	0	26041	24650	128798	27123	1015282	41982	109641	0	0	8356	490567	0	0
2024-06-11 01:57:32			0	39629	0	0	0	26051	24660	128846	26899	1015237	42004	109645	0	0	8357	489884	0	0
2024-06-11 01:58:32			0	39615	0	0	0	26033	24650	128762	26835	1015202	41982	109638	0	0	8356	490421	0	0
2024-06-11 01:59:32			0	39611	0	0	0	26044	24660	128862	27116	1015157	41993	109642	0	0	8356	490539	0	0
2024-06-11 02:00:32			0	39633	0	0	0	26062	24650	128762	26908	1015202	41993	109649	0	0	8357	489766	0	0
2024-06-11 02:01:32			0	39634	0	0	0	26038	24660	128674	27164	1015211	41993	109640	0	0	8357	489702	0	0
2024-06-11 02:02:32			0	39605	0	0	0	26049	24640	128798	27128	1015212	41992	109644	0	0	8356	490813	0	0
2024-06-11 02:03:32			0	39623	0	0	0	26049	24640	128710	27097	1015150	42002	109644	0	0	8357	490158	0	0
2024-06-11 02:04:32			0	39636	0	0	0	26025	24650	128750	27034	1015148	42004	109635	0	0	8358	489657	0	0
2024-06-11 02:05:32			0	39610	0	0	0	26038	24640	128698	26915	1015123	42002	109640	0	0	8356	490631	0	0
2024-06-11 02:06:32			0	39640	0	0	0	26041	24650	128762	27109	1015175	41993	109641	0	0	8358	489512	0	0
2024-06-11 02:07:32			0	39651	0	0	0	26054	24650	128630	26987	1015193	41992	109646	0	0	8358	489112	0	0
2024-06-11 02:08:32			0	39673	0	0	0	26051	24650	128606	27142	1015202	41993	109645	0	0	8359	488313	0	0
2024-06-11 02:09:32			0	39704	0	0	0	26036	24640	128514	27045	1015158	41992	109639	0	0	8361	487216	0	0
2024-06-11 02:10:32			0	39690	0	0	0	26033	24640	128478	27166	1015185	41992	109638	0	0	8360	487723	0	0
2024-06-11 02:11:32			0	39705	0	0	0	26049	24650	128502	27041	1015148	41993	109644	0	0	8361	487152	0	0
2024-06-11 02:12:32			0	39713	0	0	0	26044	24650	128534	27118	1015220	41992	109642	0	0	8361	486862	0	0
2024-06-11 02:13:32			0	39749	0	0	0	26038	24640	128418	26686	1015185	41992	109640	0	0	8363	485585	0	0
2024-06-11 02:14:32			0	39748	0	0	0	25999	24640	128358	27159	1015158	41992	109625	0	0	8364	485621	0	0
2024-06-11 02:15:32			0	39725	0	0	0	26038	24640	128418	27059	1015096	41980	109640	0	0	8362	486454	0	0
2024-06-11 02:16:32			0	39711	0	0	0	26028	24640	128426	27083	1015123	41992	109636	0	0	8361	486962	0	0
2024-06-11 02:17:32			0	39717	0	0	0	25992	24650	128410	27024	1015148	41993	109622	0	0	8362	486717	0	0
2024-06-11 02:18:32			0	39685	0	0	0	26012	24630	128650	26805	1015106	42001	109630	0	0	8360	487932	0	0
2024-06-11 02:19:32			0	39667	0	0	0	25979	24630	128662	27005	1015087	41991	109617	0	0	8360	488586	0	0
2024-06-11 02:20:32			0	39649	0	0	0	26020	24630	128666	27001	1015087	41991	109633	0	0	8358	489240	0	0
2024-06-11 02:21:32			0	39642	0	0	0	26007	24630	128670	26856	1015079	42001	109628	0	0	8358	489495	0	0
2024-06-11 02:22:32			0	39651	0	0	0	25973	24620	128674	27281	1014990	42001	109615	0	0	8359	489195	0	0
2024-06-11 02:23:32			0	39617	0	0	0	25963	24620	128798	27177	1015017	41991	109611	0	0	8358	490432	0	0
2024-06-11 02:24:32			0	39590	0	0	0	26023	24630	128878	27197	1015025	42001	109634	0	0	8355	491387	0	0
2024-06-11 02:25:32			0	39619	0	0	0	25981	24630	128786	27176	1015079	42001	109618	0	0	8357	490331	0	0
2024-06-11 02:26:32			0	39604	0	0	0	26005	24610	128834	27303	1015026	41989	109627	0	0	8356	490933	0	0
2024-06-11 02:27:32			0	39595	0	0	0	25984	24610	128814	26982	1015026	41989	109619	0	0	8356	491261	0	0
2024-06-11 02:28:32			0	39580	0	0	0	26002	24600	128882	27090	1015018	41978	109626	0	0	8355	491835	0	0
2024-06-11 02:29:32			0	39597	0	0	0	25973	24620	128842	26955	1014981	41978	109615	0	0	8356	491160	0	0
2024-06-11 02:30:32			0	39556	0	0	0	25976	24600	128966	26923	1014884	41989	109616	0	0	8354	492711	0	0
2024-06-11 02:31:32			0	39563	0	0	0	25994	24600	128994	26991	1014964	41989	109623	0	0	8354	492455	0	0
2024-06-11 02:32:32			0	39552	0	0	0	25979	24600	129002	27324	1014956	41988	109617	0	0	8354	492857	0	0
2024-06-11 02:33:32			0	39555	0	0	0	25984	24600	128986	27161	1014929	41988	109619	0	0	8354	492747	0	0
2024-06-11 02:34:32			0	39529	0	0	0	25976	24600	129062	27261	1014822	41999	109616	0	0	8353	493697	0	0
2024-06-11 02:35:32			0	39529	0	0	0	25992	24590	129098	27081	1014947	41999	109622	0	0	8352	493725	0	0
2024-06-11 02:36:32			0	39527	0	0	0	25968	24590	129094	27066	1014867	41988	109613	0	0	8353	493798	0	0
2024-06-11 02:37:32			0	39548	0	0	0	25999	24590	129042	26951	1014920	41988	109625	0	0	8353	493031	0	0
2024-06-11 02:38:32			0	39561	0	0	0	25997	24600	129038	27152	1014902	41999	109624	0	0	8354	492528	0	0
2024-06-11 02:39:32			0	39636	0	0	0	25992	24590	128810	27001	1015001	41988	109622	0	0	8358	489824	0	0
2024-06-11 02:40:32			0	39648	0	0	0	26044	24600	128790	27197	1015009	41999	109642	0	0	8358	489359	0	0
2024-06-11 02:41:32			0	39712	0	0	0	26038	24610	128622	27079	1015053	42000	109640	0	0	8361	487008	0	0
2024-06-11 02:42:32			0	39767	0	0	0	26036	24600	128366	27052	1015071	41989	109639	0	0	8364	485044	0	0
2024-06-11 02:43:32			0	39788	0	0	0	26062	24620	128378	27201	1015142	42000	109649	0	0	8365	484230	0	0
2024-06-11 02:44:32			0	39827	0	0	0	26072	24620	128266	27206	1015177	42001	109653	0	0	8367	482821	0	0
2024-06-11 02:45:32			0	39850	0	0	0	26077	24620	128162	27310	1015177	42012	109655	0	0	8368	481992	0	0
2024-06-11 02:46:32			0	39872	0	0	0	26046	24640	128106	27204	1015150	41992	109643	0	0	8370	481145	0	0
2024-06-11 02:47:32			0	39890	0	0	0	26093	24640	128050	27213	1015238	42014	109661	0	0	8370	480497	0	0
2024-06-11 02:48:32			0	39920	0	0	0	26085	24650	127814	27045	1015274	42014	109658	0	0	8371	479391	0	0
2024-06-11 02:49:32			0	39961	0	0	0	26101	24640	127782	26981	1015257	42002	109664	0	0	8373	477946	0	0
2024-06-11 02:50:32			0	39974	0	0	0	26137	24650	127642	26805	1015354	42014	109678	0	0	8373	477453	0	0
2024-06-11 02:51:32			0	40072	0	0	0	26148	24660	127490	27088	1015451	42026	109682	0	0	8378	473919	0	0
2024-06-11 02:52:32			0	40108	0	0	0	26140	24670	127415	26837	1015450	42028	109679	0	0	8380	472608	0	0
2024-06-11 02:53:32			0	40120	0	0	0	26163	24680	127263	27220	1015468	42029	109688	0	0	8381	472153	0	0
2024-06-11 02:54:32			0	40170	0	0	0	26129	24690	127171	27050	1015557	42018	109675	0	0	8384	470347	0	0
2024-06-11 02:55:32			0	40138	0	0	0	26163	24700	127215	26991	1015529	41998	109688	0	0	8382	471459	0	0
2024-06-11 02:56:32			0	40175	0	0	0	26129	24700	127051	27255	1015556	42008	109675	0	0	8384	470143	0	0
2024-06-11 02:57:32			0	40170	0	0	0	26148	24700	127071	27095	1015520	42020	109682	0	0	8383	470320	0	0
2024-06-11 02:58:32			0	40164	0	0	0	26163	24700	127131	27168	1015556	42008	109688	0	0	8383	470534	0	0
2024-06-11 02:59:32			0	40184	0	0	0	26145	24720	127123	26883	1015688	42000	109681	0	0	8384	469770	0	0
2024-06-11 03:00:32			0	40191	0	0	0	26137	24710	127083	27119	1015511	42008	109678	0	0	8385	469547	0	0
2024-06-11 03:01:32			0	40185	0	0	0	26148	24730	127127	27173	1015679	42022	109682	0	0	8384	469707	0	0
2024-06-11 03:02:32			0	40184	0	0	0	26168	24730	127075	27024	1015705	42011	109690	0	0	8384	469743	0	0
2024-06-11 03:03:32			0	40178	0	0	0	26153	24730	127031	26875	1015679	42034	109684	0	0	8384	469956	0	0
2024-06-11 03:04:32			0	40198	0	0	0	26163	24730	127035	27197	1015705	42011	109688	0	0	8385	469246	0	0
2024-06-11 03:05:32			0	40199	0	0	0	26176	24740	127039	27215	1015642	42023	109693	0	0	8385	469184	0	0
2024-06-11 03:06:32			0	40209	0	0	0	26163	24740	127023	27176	1015749	42023	109688	0	0	8385	468829	0	0
2024-06-11 03:07:32			0	40212	0	0	0	26161	24740	127107	26906	1015616	42023	109687	0	0	8386	468722	0	0
2024-06-11 03:08:32			0	40214	0	0	0	26181	24740	127011	27064	1015704	42001	109695	0	0	8385	468651	0	0
2024-06-11 03:09:32			0	40209	0	0	0	26184	24750	126979	27246	1015775	42013	109696	0	0	8385	468802	0	0
2024-06-11 03:10:32			0	40220	0	0	0	26194	24750	126903	27135	1015802	42001	109700	0	0	8386	468412	0	0
2024-06-11 03:11:32			0	40241	0	0	0	26197	24760	127023	26911	1015757	42014	109701	0	0	8387	467641	0	0
2024-06-11 03:12:32			0	40263	0	0	0	26192	24760	126895	27282	1015784	42014	109699	0	0	8388	466862	0	0
2024-06-11 03:13:32			0	40285	0	0	0	26194	24770	126819	26934	1015908	42015	109700	0	0	8389	466057	0	0
2024-06-11 03:14:32			0	40277	0	0	0	26194	24770	126795	27138	1015801	42026	109700	0	0	8389	466340	0	0
2024-06-11 03:15:32			0	40273	0	0	0	26174	24770	126771	27062	1015809	42015	109692	0	0	8389	466481	0	0
2024-06-11 03:16:32			0	40249	0	0	0	26186	24770	126907	27092	1015801	42026	109697	0	0	8387	467331	0	0
2024-06-11 03:17:32			0	40269	0	0	0	26194	24770	126855	26885	1015863	42015	109700	0	0	8388	466623	0	0
2024-06-11 03:18:32			0	40281	0	0	0	26184	24780	126735	26819	1015907	42016	109696	0	0	8389	466172	0	0
2024-06-11 03:19:32			0	40282	0	0	0	26199	24770	126739	26981	1015863	42037	109702	0	0	8389	466163	0	0
2024-06-11 03:20:32			0	40291	0	0	0	26192	24790	126771	27358	1015862	42028	109699	0	0	8389	465792	0	0
2024-06-11 03:21:32			0	40307	0	0	0	26174	24780	126751	27145	1015871	42027	109692	0	0	8390	465253	0	0
2024-06-11 03:22:32			0	40278	0	0	0	26171	24780	126699	27095	1015880	42028	109691	0	0	8389	466278	0	0
2024-06-11 03:23:32			0	40296	0	0	0	26197	24780	126671	27066	1015880	42016	109701	0	0	8390	465641	0	0
2024-06-11 03:24:32			0	40298	0	0	0	26184	24790	126699	27130	1015835	42028	109696	0	0	8390	465544	0	0
2024-06-11 03:25:32			0	40272	0	0	0	26163	24790	126667	27261	1015862	42005	109688	0	0	8389	466464	0	0
2024-06-11 03:26:32			0	40269	0	0	0	26161	24780	126755	27209	1015853	42005	109687	0	0	8389	466596	0	0
2024-06-11 03:27:32			0	40226	0	0	0	26181	24770	126875	27306	1015783	42015	109695	0	0	8386	468146	0	0
2024-06-11 03:28:32			0	40236	0	0	0	26194	24770	126887	27078	1015756	42003	109700	0	0	8386	467792	0	0
2024-06-11 03:29:32			0	40242	0	0	0	26163	24770	126867	27209	1015801	42015	109688	0	0	8387	467579	0	0
2024-06-11 03:30:32			0	40230	0	0	0	26186	24780	126815	27253	1015826	42005	109697	0	0	8386	467978	0	0
2024-06-11 03:31:32			0	40259	0	0	0	26174	24780	126679	27223	1015871	42004	109692	0	0	8388	466950	0	0
2024-06-11 03:32:32			0	40254	0	0	0	26192	24770	126867	27263	1015783	42015	109699	0	0	8387	467154	0	0
2024-06-11 03:33:32			0	40257	0	0	0	26171	24790	126799	27076	1015808	42028	109691	0	0	8388	466995	0	0
2024-06-11 03:34:32			0	40232	0	0	0	26174	24770	126939	26791	1015828	42015	109692	0	0	8387	467933	0	0
2024-06-11 03:35:32			0	40262	0	0	0	26179	24770	126871	27111	1015801	42015	109694	0	0	8388	466871	0	0
2024-06-11 03:36:32			0	40283	0	0	0	26210	24770	126767	26960	1015783	42015	109706	0	0	8389	466127	0	0
2024-06-11 03:37:32			0	40309	0	0	0	26181	24770	126703	26930	1015836	42003	109695	0	0	8390	465208	0	0
2024-06-11 03:38:32			0	40305	0	0	0	26194	24780	126683	27038	1015880	42016	109700	0	0	8390	465323	0	0
2024-06-11 03:39:32			0	40344	0	0	0	26205	24790	126499	27069	1015889	42016	109704	0	0	8392	463920	0	0
2024-06-11 03:40:32			0	40327	0	0	0	26194	24780	126631	27100	1015907	42028	109700	0	0	8391	464546	0	0
2024-06-11 03:41:32			0	40305	0	0	0	26199	24780	126687	27071	1015853	42016	109702	0	0	8390	465323	0	0
2024-06-11 03:42:32			0	40339	0	0	0	26171	24790	126595	26896	1015889	42005	109691	0	0	8392	464096	0	0
2024-06-11 03:43:32			0	40306	0	0	0	26168	24770	126587	27173	1015863	42015	109690	0	0	8390	465314	0	0
2024-06-11 03:44:32			0	40303	0	0	0	26166	24780	126739	27128	1015871	42016	109689	0	0	8390	465394	0	0
2024-06-11 03:45:32			0	40270	0	0	0	26153	24770	126727	26816	1015756	42037	109684	0	0	8389	466587	0	0
2024-06-11 03:46:32			0	40258	0	0	0	26148	24770	126863	26951	1015756	41993	109682	0	0	8388	467012	0	0
2024-06-11 03:47:32			0	40248	0	0	0	26166	24780	126823	27216	1015800	42016	109689	0	0	8388	467340	0	0
2024-06-11 03:48:32			0	40251	0	0	0	26140	24770	126899	26944	1015747	42026	109679	0	0	8388	467260	0	0
2024-06-11 03:49:32			0	40244	0	0	0	26166	24770	126955	26883	1015747	42015	109689	0	0	8387	467508	0	0
2024-06-11 03:50:32			0	40239	0	0	0	26135	24760	126859	27131	1015784	42002	109677	0	0	8388	467712	0	0
2024-06-11 03:51:32			0	40235	0	0	0	26142	24770	126935	27060	1015783	42026	109680	0	0	8387	467827	0	0
2024-06-11 03:52:32			0	40215	0	0	0	26150	24760	127055	27163	1015677	42002	109683	0	0	8386	468563	0	0
2024-06-11 03:53:32			0	40216	0	0	0	26150	24760	127027	27197	1015765	42003	109683	0	0	8386	468527	0	0
2024-06-11 03:54:32			0	40219	0	0	0	26158	24760	126967	26949	1015730	42014	109686	0	0	8386	468421	0	0
2024-06-11 03:55:32			0	40231	0	0	0	26161	24760	127023	27223	1015765	42015	109687	0	0	8387	467995	0	0
2024-06-11 03:56:32			0	40225	0	0	0	26161	24760	126995	26902	1015792	42015	109687	0	0	8386	468208	0	0
2024-06-11 03:57:32			0	40261	0	0	0	26137	24760	126943	27319	1015819	42015	109678	0	0	8389	466932	0	0
2024-06-11 03:58:32			0	40260	0	0	0	26166	24770	126843	27415	1015774	42015	109689	0	0	8388	466941	0	0
2024-06-11 03:59:32			0	40246	0	0	0	26119	24760	126847	27156	1015757	42014	109671	0	0	8388	467464	0	0
2024-06-11 04:00:32			0	40217	0	0	0	26114	24760	126979	27050	1015703	42014	109669	0	0	8387	468492	0	0
2024-06-11 04:01:32			0	40218	0	0	0	26142	24760	126979	27098	1015703	42014	109680	0	0	8386	468456	0	0
2024-06-11 04:02:32			0	40213	0	0	0	26129	24740	126947	27204	1015678	42023	109675	0	0	8386	468687	0	0
2024-06-11 04:03:32			0	40234	0	0	0	26145	24750	127067	27180	1015668	42001	109681	0	0	8387	467915	0	0
2024-06-11 04:04:32			0	40225	0	0	0	26142	24750	126975	27142	1015695	42013	109680	0	0	8387	468235	0	0
2024-06-11 04:05:32			0	40219	0	0	0	26106	24750	126999	27046	1015686	42013	109666	0	0	8387	468447	0	0
2024-06-11 04:06:32			0	40185	0	0	0	26122	24750	127143	26913	1015606	42013	109672	0	0	8385	469654	0	0
2024-06-11 04:07:32			0	40204	0	0	0	26119	24740	127023	26880	1015616	42023	109671	0	0	8386	469006	0	0
2024-06-11 04:08:32			0	40158	0	0	0	26119	24740	127131	27267	1015589	42012	109671	0	0	8384	470641	0	0
2024-06-11 04:09:32			0	40188	0	0	0	26106	24740	127159	27090	1015597	42012	109666	0	0	8385	469574	0	0
2024-06-11 04:10:32			0	40166	0	0	0	26122	24740	127139	27026	1015616	42012	109672	0	0	8384	470356	0	0
2024-06-11 04:11:32			0	40137	0	0	0	26122	24730	127275	27159	1015580	42011	109672	0	0	8382	471414	0	0
2024-06-11 04:12:32			0	40155	0	0	0	26088	24730	127131	26916	1015572	42011	109659	0	0	8384	470774	0	0
2024-06-11 04:13:32			0	40161	0	0	0	26106	24720	127299	26968	1015590	42000	109666	0	0	8384	470587	0	0
2024-06-11 04:14:32			0	40158	0	0	0	26090	24710	127363	26830	1015537	42008	109660	0	0	8384	470720	0	0
2024-06-11 04:15:32			0	40164	0	0	0	26114	24720	127227	27199	1015590	42021	109669	0	0	8384	470480	0	0
2024-06-11 04:16:32			0	40186	0	0	0	26122	24710	127215	27065	1015573	42009	109672	0	0	8385	469725	0	0
2024-06-11 04:17:32			0	40146	0	0	0	26098	24720	127187	27277	1015536	42021	109663	0	0	8383	471121	0	0
2024-06-11 04:18:32			0	40159	0	0	0	26096	24730	127243	27313	1015545	42011	109662	0	0	8384	470632	0	0
2024-06-11 04:19:32			0	40156	0	0	0	26096	24720	127327	27225	1015581	42000	109662	0	0	8384	470765	0	0
2024-06-11 04:20:32			0	40121	0	0	0	26096	24720	127347	26849	1015501	42021	109662	0	0	8382	472011	0	0
2024-06-11 04:21:32			0	40123	0	0	0	26101	24700	127363	27315	1015449	42008	109664	0	0	8382	471993	0	0
2024-06-11 04:22:32			0	40098	0	0	0	26077	24700	127435	27130	1015556	42031	109655	0	0	8381	472884	0	0
2024-06-11 04:23:32			0	40083	0	0	0	26101	24710	127446	27043	1015511	41998	109664	0	0	8380	473392	0	0
2024-06-11 04:24:32			0	40085	0	0	0	26077	24710	127358	26996	1015457	42020	109655	0	0	8380	473321	0	0
2024-06-11 04:25:32			0	40070	0	0	0	26096	24700	127422	27105	1015467	41987	109662	0	0	8379	473883	0	0
2024-06-11 04:26:32			0	40071	0	0	0	26093	24700	127434	27140	1015520	42008	109661	0	0	8379	473848	0	0
2024-06-11 04:27:32			0	40096	0	0	0	26077	24700	127371	27119	1015440	42020	109655	0	0	8381	472955	0	0
2024-06-11 04:28:32			0	40082	0	0	0	26080	24690	127506	27045	1015485	42007	109656	0	0	8380	473482	0	0
2024-06-11 04:29:32			0	40072	0	0	0	26090	24700	127602	27364	1015493	42008	109660	0	0	8379	473812	0	0
2024-06-11 04:30:32			0	40086	0	0	0	26075	24700	127522	27149	1015467	42008	109654	0	0	8380	473312	0	0
2024-06-11 04:31:32			0	40050	0	0	0	26070	24690	127538	27109	1015396	41996	109652	0	0	8379	474624	0	0
2024-06-11 04:32:32			0	40053	0	0	0	26085	24690	127590	27102	1015431	42007	109658	0	0	8378	474517	0	0
2024-06-11 04:33:32			0	40033	0	0	0	26098	24690	127586	27175	1015423	42006	109663	0	0	8377	475232	0	0
2024-06-11 04:34:32			0	40071	0	0	0	26083	24680	127510	26970	1015441	41996	109657	0	0	8379	473901	0	0
2024-06-11 04:35:32			0	40113	0	0	0	26098	24690	127447	27157	1015458	42019	109663	0	0	8381	472376	0	0
2024-06-11 04:36:32			0	40104	0	0	0	26075	24680	127371	26883	1015468	42006	109654	0	0	8381	472724	0	0
2024-06-11 04:37:32			0	40048	0	0	0	26075	24680	127530	27138	1015441	41996	109654	0	0	8378	474723	0	0
2024-06-11 04:38:32			0	40037	0	0	0	26067	24690	127690	27206	1015378	42007	109651	0	0	8378	475089	0	0
2024-06-11 04:39:32			0	40033	0	0	0	26077	24690	127742	27209	1015396	41996	109655	0	0	8378	475232	0	0
2024-06-11 04:40:32			0	40020	0	0	0	26054	24680	127714	27256	1015405	42017	109646	0	0	8377	475724	0	0
2024-06-11 04:41:32			0	40024	0	0	0	26070	24670	127778	27242	1015424	42006	109652	0	0	8377	475608	0	0
2024-06-11 04:42:32			0	40016	0	0	0	26064	24680	127762	27156	1015388	42018	109650	0	0	8377	475867	0	0
2024-06-11 04:43:32			0	40020	0	0	0	26075	24680	127678	27027	1015432	42006	109654	0	0	8377	475724	0	0
2024-06-11 04:44:32			0	40014	0	0	0	26062	24680	127730	27270	1015432	41995	109649	0	0	8377	475939	0	0
2024-06-11 04:45:32			0	39987	0	0	0	26038	24680	127810	26863	1015379	41995	109640	0	0	8376	476906	0	0
2024-06-11 04:46:32			0	39967	0	0	0	26049	24680	127862	27235	1015334	42006	109644	0	0	8375	477622	0	0
2024-06-11 04:47:32			0	39973	0	0	0	26067	24670	127818	27225	1015335	42005	109651	0	0	8375	477434	0	0
2024-06-11 04:48:32			0	40000	0	0	0	26051	24670	127774	27185	1015397	42006	109645	0	0	8376	476467	0	0
2024-06-11 04:49:32			0	39984	0	0	0	26057	24670	127806	27234	1015370	42006	109647	0	0	8375	477040	0	0
2024-06-11 04:50:32			0	39972	0	0	0	26059	24670	127738	27045	1015343	42017	109648	0	0	8375	477470	0	0
2024-06-11 04:51:32			0	39946	0	0	0	26036	24660	127914	27227	1015326	41994	109639	0	0	8374	478430	0	0
2024-06-11 04:52:32			0	39939	0	0	0	26051	24670	127870	27402	1015308	42005	109645	0	0	8373	478654	0	0
2024-06-11 04:53:32			0	39946	0	0	0	26051	24660	127890	27215	1015291	42004	109645	0	0	8373	478430	0	0
2024-06-11 04:54:32			0	39943	0	0	0	26049	24670	127946	27260	1015281	42016	109644	0	0	8373	478510	0	0
2024-06-11 04:55:32			0	39939	0	0	0	26044	24660	127970	27066	1015273	42005	109642	0	0	8373	478681	0	0
2024-06-11 04:56:32			0	39916	0	0	0	26031	24650	127962	27249	1015309	42004	109637	0	0	8372	479535	0	0
2024-06-11 04:57:32			0	39929	0	0	0	26036	24660	127930	27275	1015246	42005	109639	0	0	8373	479040	0	0
2024-06-11 04:58:32			0	39915	0	0	0	26044	24650	127994	27033	1015282	42004	109642	0	0	8372	479570	0	0
2024-06-11 04:59:32			0	39926	0	0	0	26033	24650	128054	27272	1015255	42004	109638	0	0	8373	479175	0	0
2024-06-11 05:00:32			0	39917	0	0	0	26033	24650	128122	26909	1015202	42015	109638	0	0	8372	479499	0	0
2024-06-11 05:01:32			0	39899	0	0	0	26023	24650	128038	27168	1015282	41993	109634	0	0	8371	480146	0	0
2024-06-11 05:02:32			0	39864	0	0	0	26028	24650	128302	27012	1015167	42003	109636	0	0	8369	481406	0	0
2024-06-11 05:03:32			0	39850	0	0	0	26033	24640	128266	26896	1015158	41992	109638	0	0	8369	481937	0	0
2024-06-11 05:04:32			0	39853	0	0	0	26031	24640	128290	27197	1015185	42003	109637	0	0	8369	481829	0	0
2024-06-11 05:05:32			0	39869	0	0	0	26028	24640	128202	26930	1015230	42002	109636	0	0	8370	481253	0	0
2024-06-11 05:06:32			0	39829	0	0	0	26018	24640	128182	26956	1015212	41992	109632	0	0	8368	482694	0	0
2024-06-11 05:07:32			0	39823	0	0	0	26020	24640	128366	27246	1015230	41980	109633	0	0	8367	482911	0	0
2024-06-11 05:08:32			0	39831	0	0	0	26028	24640	128314	27170	1015150	41992	109636	0	0	8368	482622	0	0
2024-06-11 05:09:32			0	39840	0	0	0	26018	24640	128298	27327	1015230	41992	109632	0	0	8368	482298	0	0
2024-06-11 05:10:32			0	39821	0	0	0	26025	24640	128298	26674	1015203	41992	109635	0	0	8367	482983	0	0
2024-06-11 05:11:32			0	39884	0	0	0	26025	24630	128162	27261	1015141	41991	109635	0	0	8370	480740	0	0
2024-06-11 05:12:32			0	39873	0	0	0	26010	24640	128166	26974	1015150	42002	109629	0	0	8370	481109	0	0
2024-06-11 05:13:32			0	39849	0	0	0	26005	24620	128194	26977	1015151	42001	109627	0	0	8369	482028	0	0
2024-06-11 05:14:32			0	39818	0	0	0	26007	24630	128314	27107	1015141	41991	109628	0	0	8367	483119	0	0
2024-06-11 05:15:32			0	39827	0	0	0	25997	24630	128378	26993	1015221	42001	109624	0	0	8368	482794	0	0
2024-06-11 05:16:32			0	39796	0	0	0	25994	24620	128442	27310	1015035	42011	109623	0	0	8366	483940	0	0
2024-06-11 05:17:32			0	39804	0	0	0	26002	24620	128422	27150	1015142	41990	109626	0	0	8367	483651	0	0
2024-06-11 05:18:32			0	39784	0	0	0	25997	24620	128550	27152	1015115	42000	109624	0	0	8366	484374	0	0
2024-06-11 05:19:32			0	39769	0	0	0	25989	24620	128454	26802	1015097	41991	109621	0	0	8365	484916	0	0
2024-06-11 05:20:32			0	39736	0	0	0	25994	24610	128694	26994	1015080	41989	109623	0	0	8363	486138	0	0
2024-06-11 05:21:32			0	39760	0	0	0	25994	24610	128642	27161	1015080	42000	109623	0	0	8364	485270	0	0
2024-06-11 05:22:32			0	39728	0	0	0	25992	24610	128686	27109	1015107	42010	109622	0	0	8363	486428	0	0
2024-06-11 05:23:32			0	39728	0	0	0	25997	24610	128674	27100	1015080	42000	109624	0	0	8363	486428	0	0
2024-06-11 05:24:32			0	39711	0	0	0	25986	24600	128694	27220	1015018	42000	109620	0	0	8362	487072	0	0
2024-06-11 05:25:32			0	39709	0	0	0	25979	24590	128710	27196	1015027	41988	109617	0	0	8362	487172	0	0
2024-06-11 05:26:32			0	39675	0	0	0	25961	24600	128878	26956	1015036	41999	109610	0	0	8361	488378	0	0
2024-06-11 05:27:32			0	39656	0	0	0	25981	24590	128878	27235	1015001	41999	109618	0	0	8359	489096	0	0
2024-06-11 05:28:32			0	39633	0	0	0	25966	24590	128938	26994	1015019	42009	109612	0	0	8358	489933	0	0
2024-06-11 05:29:32			0	39662	0	0	0	25989	24590	128966	27156	1014992	41987	109621	0	0	8359	488878	0	0
2024-06-11 05:30:32			0	39687	0	0	0	25979	24600	128834	27045	1015063	42010	109617	0	0	8361	487943	0	0
2024-06-11 05:31:32			0	39651	0	0	0	25973	24590	128894	26986	1015027	42010	109615	0	0	8359	489278	0	0
2024-06-11 05:32:32			0	39641	0	0	0	25981	24590	128978	26772	1014974	41988	109618	0	0	8358	489642	0	0
2024-06-11 05:33:32			0	39629	0	0	0	25973	24590	129006	26878	1015001	42010	109615	0	0	8358	490078	0	0
2024-06-11 05:34:32			0	39618	0	0	0	25979	24580	129050	27036	1014957	41998	109617	0	0	8357	490506	0	0
2024-06-11 05:35:32			0	39634	0	0	0	25981	24590	128974	27253	1014992	41998	109618	0	0	8358	489896	0	0
2024-06-11 05:36:32			0	39628	0	0	0	25966	24580	128962	27142	1014957	41987	109612	0	0	8358	490142	0	0
2024-06-11 05:37:32			0	39606	0	0	0	25981	24580	128998	27041	1014957	41998	109618	0	0	8357	490943	0	0
2024-06-11 05:38:32			0	39634	0	0	0	25981	24590	128958	27381	1014974	41988	109618	0	0	8358	489896	0	0
2024-06-11 05:39:32			0	39631	0	0	0	25966	24580	128958	27265	1015010	41998	109612	0	0	8358	490033	0	0
2024-06-11 05:40:32			0	39634	0	0	0	25981	24580	128982	27287	1015002	41986	109618	0	0	8358	489924	0	0
2024-06-11 05:41:32			0	39590	0	0	0	25963	24580	129046	26795	1014930	41998	109611	0	0	8356	491526	0	0
2024-06-11 05:42:32			0	39591	0	0	0	25955	24590	129218	26764	1014974	41999	109608	0	0	8356	491462	0	0
2024-06-11 05:43:32			0	39540	0	0	0	25968	24580	129358	27183	1014921	41997	109613	0	0	8353	493351	0	0
2024-06-11 05:44:32			0	39558	0	0	0	25979	24580	129130	27296	1014975	41986	109617	0	0	8354	492694	0	0
2024-06-11 05:45:32			0	39552	0	0	0	25963	24580	129170	26965	1014930	41998	109611	0	0	8354	492913	0	0
2024-06-11 05:46:32			0	39534	0	0	0	25966	24570	129194	27062	1014913	42008	109612	0	0	8353	493598	0	0
2024-06-11 05:47:32			0	39544	0	0	0	25968	24570	129186	26923	1014966	41986	109613	0	0	8354	493233	0	0
2024-06-11 05:48:32			0	39593	0	0	0	25979	24570	129122	27213	1014940	41986	109617	0	0	8356	491445	0	0
2024-06-11 05:49:32			0	39546	0	0	0	25963	24570	129270	27123	1014940	42008	109611	0	0	8354	493159	0	0
2024-06-11 05:50:32			0	39567	0	0	0	25961	24570	129254	27036	1014913	41997	109610	0	0	8355	492393	0	0
2024-06-11 05:51:32			0	39554	0	0	0	25955	24570	129166	26928	1014913	41997	109608	0	0	8354	492867	0	0
2024-06-11 05:52:32			0	39548	0	0	0	25966	24580	129246	27112	1014948	41997	109612	0	0	8354	493059	0	0
2024-06-11 05:53:32			0	39546	0	0	0	25976	24570	129310	26986	1014940	41986	109616	0	0	8354	493159	0	0
2024-06-11 05:54:32			0	39542	0	0	0	25953	24570	129166	26909	1014958	41996	109607	0	0	8354	493306	0	0
2024-06-11 05:55:32			0	39526	0	0	0	25953	24570	129234	26896	1014913	41997	109607	0	0	8353	493890	0	0
2024-06-11 05:56:32			0	39528	0	0	0	25961	24560	129338	27218	1014896	41996	109610	0	0	8353	493845	0	0
2024-06-11 05:57:32			0	39556	0	0	0	25953	24560	129186	27164	1014923	41996	109607	0	0	8354	492822	0	0
2024-06-11 05:58:32			0	39543	0	0	0	25950	24570	129238	27126	1014940	41997	109606	0	0	8354	493269	0	0
2024-06-11 05:59:32			0	39548	0	0	0	25955	24560	129202	26913	1014807	41996	109608	0	0	8354	493114	0	0
2024-06-11 06:00:32			0	39551	0	0	0	25948	24560	129214	27263	1014896	41996	109605	0	0	8354	493005	0	0
2024-06-11 06:01:32			0	39573	0	0	0	25937	24570	129146	27050	1014851	41996	109601	0	0	8356	492174	0	0
2024-06-11 06:02:32			0	39511	0	0	0	25955	24560	129330	27072	1014869	41996	109608	0	0	8352	494467	0	0
2024-06-11 06:03:32			0	39518	0	0	0	25942	24550	129470	27289	1014745	42006	109603	0	0	8353	494239	0	0
2024-06-11 06:04:32			0	39518	0	0	0	25950	24560	129386	27199	1014976	41996	109606	0	0	8353	494211	0	0
2024-06-11 06:05:32			0	39503	0	0	0	25945	24550	129378	26812	1014825	41984	109604	0	0	8352	494787	0	0
2024-06-11 06:06:32			0	39496	0	0	0	25935	24550	129326	26840	1014852	42006	109600	0	0	8352	495044	0	0
2024-06-11 06:07:32			0	39523	0	0	0	25940	24550	129330	26646	1014852	41996	109602	0	0	8353	494056	0	0
2024-06-11 06:08:32			0	39486	0	0	0	25927	24550	129454	26897	1014825	41996	109597	0	0	8351	495410	0	0
2024-06-11 06:09:32			0	39447	0	0	0	25927	24550	129530	26753	1014709	41995	109597	0	0	8349	496839	0	0
2024-06-11 06:10:32			0	39452	0	0	0	25924	24550	129622	27126	1014798	42006	109596	0	0	8350	496656	0	0
2024-06-11 06:11:32			0	39463	0	0	0	25929	24540	129470	26928	1014727	42015	109598	0	0	8350	496280	0	0
2024-06-11 06:12:32			0	39446	0	0	0	25927	24550	129510	27222	1014825	41996	109597	0	0	8349	496876	0	0
2024-06-11 06:13:32			0	39456	0	0	0	25932	24550	129558	27138	1014771	42006	109599	0	0	8350	496509	0	0
2024-06-11 06:14:32			0	39475	0	0	0	25935	24550	129434	26956	1014816	41995	109600	0	0	8351	495813	0	0
2024-06-11 06:15:32			0	39469	0	0	0	25927	24540	129494	26955	1014808	41994	109597	0	0	8350	496060	0	0
2024-06-11 06:16:32			0	39472	0	0	0	25922	24540	129510	26889	1014727	42004	109595	0	0	8351	495950	0	0
2024-06-11 06:17:32			0	39469	0	0	0	25927	24540	129514	26627	1014826	41994	109597	0	0	8350	496060	0	0
2024-06-11 06:18:32			0	39454	0	0	0	25919	24540	129562	27345	1014692	41994	109594	0	0	8350	496610	0	0
2024-06-11 06:19:32			0	39379	0	0	0	25903	24530	129805	26739	1014684	41994	109588	0	0	8346	499393	0	0
2024-06-11 06:20:32			0	39391	0	0	0	25922	24530	129721	26890	1014755	42003	109595	0	0	8346	498952	0	0
2024-06-11 06:21:32			0	39382	0	0	0	25919	24520	129665	26960	1014666	41992	109594	0	0	8346	499311	0	0
2024-06-11 06:22:32			0	39390	0	0	0	25916	24530	129753	26840	1014657	42004	109593	0	0	8346	498989	0	0
2024-06-11 06:23:32			0	39393	0	0	0	25911	24540	129817	26844	1014674	42004	109591	0	0	8347	498850	0	0
2024-06-11 06:24:32			0	39366	0	0	0	25922	24530	129893	27216	1014675	41993	109595	0	0	8345	499871	0	0
2024-06-11 06:25:32			0	39413	0	0	0	25914	24530	129789	26772	1014755	42003	109592	0	0	8348	498143	0	0
2024-06-11 06:26:32			0	39427	0	0	0	25911	24530	129710	26885	1014657	41982	109591	0	0	8348	497629	0	0
2024-06-11 06:27:32			0	39389	0	0	0	25898	24530	129793	27147	1014657	41994	109586	0	0	8347	499025	0	0
2024-06-11 06:28:32			0	39341	0	0	0	25903	24520	129977	26842	1014613	41981	109588	0	0	8344	500821	0	0
2024-06-11 06:29:32			0	39334	0	0	0	25916	24510	129957	27265	1014596	41991	109593	0	0	8343	501107	0	0
2024-06-11 06:30:32			0	39324	0	0	0	25903	24520	129929	27441	1014631	42002	109588	0	0	8343	501447	0	0
2024-06-11 06:31:32			0	39307	0	0	0	25906	24520	130105	26941	1014604	41992	109589	0	0	8342	502074	0	0
2024-06-11 06:32:32			0	39288	0	0	0	25909	24510	130081	26911	1014649	41980	109590	0	0	8341	502804	0	0
2024-06-11 06:33:32			0	39277	0	0	0	25909	24530	130205	26982	1014648	41993	109590	0	0	8341	503154	0	0
2024-06-11 06:34:32			0	39298	0	0	0	25909	24510	130133	27131	1014649	42001	109590	0	0	8342	502435	0	0
2024-06-11 06:35:32			0	39305	0	0	0	25916	24510	130089	27274	1014596	41980	109593	0	0	8342	502177	0	0
2024-06-11 06:36:32			0	39291	0	0	0	25909	24510	130141	27331	1014623	41991	109590	0	0	8341	502693	0	0
2024-06-11 06:37:32			0	39238	0	0	0	25909	24520	130277	26873	1014613	41992	109590	0	0	8339	504624	0	0
2024-06-11 06:38:32			0	39215	0	0	0	25919	24510	130309	26965	1014587	42001	109594	0	0	8337	505505	0	0
2024-06-11 06:39:32			0	39274	0	0	0	25916	24530	130141	27124	1014755	42003	109593	0	0	8340	503265	0	0
2024-06-11 06:40:32			0	39314	0	0	0	25916	24530	129997	27246	1014702	41993	109593	0	0	8342	501788	0	0
2024-06-11 06:41:32			0	39292	0	0	0	25922	24520	130065	27123	1014666	41992	109595	0	0	8341	502628	0	0
2024-06-11 06:42:32			0	39295	0	0	0	25906	24510	130081	27326	1014676	41991	109589	0	0	8342	502546	0	0
2024-06-11 06:43:32			0	39296	0	0	0	25914	24530	130021	26875	1014675	42003	109592	0	0	8342	502452	0	0
2024-06-11 06:44:32			0	39264	0	0	0	25898	24520	130125	26807	1014658	41981	109586	0	0	8340	503663	0	0
2024-06-11 06:45:32			0	39229	0	0	0	25911	24530	130249	26837	1014702	41982	109591	0	0	8338	504929	0	0
2024-06-11 06:46:32			0	39200	0	0	0	25903	24530	130273	27268	1014675	41993	109588	0	0	8337	506003	0	0
2024-06-11 06:47:32			0	39219	0	0	0	25909	24510	130325	26996	1014649	41991	109590	0	0	8338	505356	0	0
2024-06-11 06:48:32			0	39208	0	0	0	25916	24520	130225	27242	1014604	41992	109593	0	0	8337	505735	0	0
2024-06-11 06:49:32			0	39201	0	0	0	25911	24520	130241	26823	1014666	41992	109591	0	0	8337	505995	0	0
2024-06-11 06:50:32			0	39219	0	0	0	25903	24510	130269	26984	1014623	42001	109588	0	0	8338	505356	0	0
2024-06-11 06:51:32			0	39224	0	0	0	25909	24520	130317	27107	1014711	41992	109590	0	0	8338	505143	0	0
2024-06-11 06:52:32			0	39222	0	0	0	25903	24520	130265	27182	1014631	42002	109588	0	0	8338	505217	0	0
2024-06-11 06:53:32			0	39223	0	0	0	25901	24520	130201	26928	1014640	42002	109587	0	0	8338	505180	0	0
2024-06-11 06:54:32			0	39221	0	0	0	25896	24510	130357	27209	1014623	41980	109585	0	0	8338	505282	0	0
2024-06-11 06:55:32			0	39236	0	0	0	25906	24520	130345	27197	1014604	42002	109589	0	0	8339	504698	0	0
2024-06-11 06:56:32			0	39238	0	0	0	25916	24510	130369	27157	1014596	42013	109593	0	0	8338	504653	0	0
2024-06-11 06:57:32			0	39236	0	0	0	25901	24510	130337	27043	1014587	41991	109587	0	0	8339	504727	0	0
2024-06-11 06:58:32			0	39241	0	0	0	25890	24510	130385	26956	1014649	41980	109583	0	0	8339	504542	0	0
2024-06-11 06:59:32			0	39212	0	0	0	25896	24510	130329	26583	1014587	41980	109585	0	0	8337	505616	0	0
2024-06-11 07:00:32			0	39250	0	0	0	25896	24510	130289	26861	1014596	42001	109585	0	0	8339	504209	0	0
2024-06-11 07:01:32			0	39254	0	0	0	25890	24510	130337	26994	1014676	42001	109583	0	0	8340	504061	0	0
2024-06-11 07:02:32			0	39226	0	0	0	25890	24510	130293	27033	1014641	42001	109583	0	0	8338	505097	0	0
2024-06-11 07:03:32			0	39208	0	0	0	25896	24500	130425	26946	1014632	41990	109585	0	0	8337	505793	0	0
2024-06-11 07:04:32			0	39231	0	0	0	25911	24500	130341	26911	1014579	41979	109591	0	0	8338	504941	0	0
2024-06-11 07:05:32			0	39221	0	0	0	25880	24500	130393	27001	1014543	41989	109579	0	0	8338	505311	0	0
2024-06-11 07:06:32			0	39217	0	0	0	25906	24510	130317	27197	1014614	41991	109589	0	0	8338	505431	0	0
2024-06-11 07:07:32			0	39233	0	0	0	25893	24510	130289	27222	1014614	42001	109584	0	0	8339	504838	0	0
2024-06-11 07:08:32			0	39228	0	0	0	25885	24490	130321	27196	1014535	42000	109581	0	0	8338	505080	0	0
2024-06-11 07:09:32			0	39221	0	0	0	25880	24500	130349	26623	1014579	41990	109579	0	0	8338	505311	0	0
2024-06-11 07:10:32			0	39216	0	0	0	25875	24500	130369	27305	1014579	41990	109577	0	0	8338	505496	0	0
2024-06-11 07:11:32			0	39206	0	0	0	25862	24510	130397	27093	1014534	41980	109572	0	0	8338	505838	0	0
2024-06-11 07:12:32			0	39203	0	0	0	25888	24500	130473	27183	1014517	41989	109582	0	0	8337	505978	0	0
2024-06-11 07:13:32			0	39242	0	0	0	25893	24500	130321	27170	1014579	42001	109584	0	0	8339	504533	0	0
2024-06-11 07:14:32			0	39247	0	0	0	25893	24500	130329	27209	1014624	42000	109584	0	0	8339	504348	0	0
2024-06-11 07:15:32			0	39230	0	0	0	25877	24500	130321	26866	1014517	41989	109578	0	0	8339	504978	0	0
2024-06-11 07:16:32			0	39197	0	0	0	25885	24490	130377	27301	1014535	42000	109581	0	0	8337	506229	0	0
2024-06-11 07:17:32			0	39208	0	0	0	25870	24500	130341	27256	1014543	41989	109575	0	0	8338	505793	0	0
2024-06-11 07:18:32			0	39217	0	0	0	25885	24490	130437	27003	1014508	41967	109581	0	0	8338	505488	0	0
2024-06-11 07:19:32			0	39198	0	0	0	25857	24490	130361	27114	1014508	42000	109570	0	0	8337	506192	0	0
2024-06-11 07:20:32			0	39193	0	0	0	25875	24490	130409	27242	1014473	41978	109577	0	0	8337	506377	0	0
2024-06-11 07:21:32			0	39190	0	0	0	25880	24490	130513	26963	1014508	42000	109579	0	0	8336	506489	0	0
2024-06-11 07:22:32			0	39209	0	0	0	25880	24480	130433	26958	1014544	41988	109579	0	0	8337	505813	0	0
2024-06-11 07:23:32			0	39237	0	0	0	25870	24490	130333	26863	1014508	42000	109575	0	0	8339	504747	0	0
2024-06-11 07:24:32			0	39207	0	0	0	25872	24490	130345	27201	1014500	42000	109576	0	0	8337	505858	0	0
2024-06-11 07:25:32			0	39216	0	0	0	25867	24490	130369	26817	1014562	42000	109574	0	0	8338	505525	0	0
2024-06-11 07:26:32			0	39199	0	0	0	25854	24490	130425	27069	1014473	41989	109569	0	0	8337	506155	0	0
2024-06-11 07:27:32			0	39188	0	0	0	25857	24480	130449	26805	1014482	41987	109570	0	0	8337	506592	0	0
2024-06-11 07:28:32			0	39160	0	0	0	25862	24470	130565	27315	1014394	42009	109572	0	0	8335	507660	0	0
2024-06-11 07:29:32			0	39150	0	0	0	25862	24480	130649	27133	1014509	41976	109572	0	0	8335	508002	0	0
2024-06-11 07:30:32			0	39200	0	0	0	25862	24470	130485	27189	1014527	42009	109572	0	0	8337	506175	0	0
2024-06-11 07:31:32			0	39196	0	0	0	25859	24480	130441	26989	1014509	42009	109571	0	0	8337	506295	0	0
2024-06-11 07:32:32			0	39195	0	0	0	25846	24470	130449	26875	1014474	41987	109566	0	0	8337	506361	0	0
2024-06-11 07:33:32			0	39193	0	0	0	25854	24470	130473	26955	1014474	41987	109569	0	0	8337	506435	0	0
2024-06-11 07:34:32			0	39198	0	0	0	25864	24470	130513	26798	1014447	41999	109573	0	0	8337	506249	0	0
2024-06-11 07:35:32			0	39221	0	0	0	25867	24470	130461	26741	1014447	41987	109574	0	0	8338	505397	0	0
2024-06-11 07:36:32			0	39184	0	0	0	25844	24480	130477	26861	1014402	41987	109565	0	0	8337	506740	0	0
2024-06-11 07:37:32			0	39166	0	0	0	25846	24470	130545	26916	1014412	41965	109566	0	0	8336	507437	0	0
2024-06-11 07:38:32			0	39158	0	0	0	25849	24470	130537	27144	1014438	41987	109567	0	0	8335	507734	0	0
2024-06-11 07:39:32			0	39140	0	0	0	25844	24470	130573	27322	1014385	41987	109565	0	0	8334	508403	0	0
2024-06-11 07:40:32			0	39147	0	0	0	25851	24470	130613	27175	1014385	41987	109568	0	0	8335	508143	0	0
2024-06-11 07:41:32			0	39180	0	0	0	25854	24470	130569	27131	1014447	41987	109569	0	0	8336	506917	0	0
2024-06-11 07:42:32			0	39201	0	0	0	25838	24460	130541	26748	1014430	41986	109563	0	0	8338	506167	0	0
2024-06-11 07:43:32			0	39163	0	0	0	25825	24470	130613	27055	1014412	41976	109558	0	0	8336	507548	0	0
2024-06-11 07:44:32			0	39143	0	0	0	25831	24460	130613	27104	1014376	41986	109560	0	0	8335	508320	0	0
2024-06-11 07:45:32			0	39137	0	0	0	25828	24460	130617	26981	1014376	41986	109559	0	0	8334	508543	0	0
2024-06-11 07:46:32			0	39133	0	0	0	25841	24460	130693	27156	1014403	41986	109564	0	0	8334	508692	0	0
2024-06-11 07:47:32			0	39112	0	0	0	25820	24450	130729	26934	1014413	41986	109556	0	0	8333	509502	0	0
2024-06-11 07:48:32			0	39138	0	0	0	25841	24450	130673	27163	1014333	41986	109564	0	0	8334	508535	0	0
2024-06-11 07:49:32			0	39112	0	0	0	25841	24440	130737	27072	1014369	41973	109564	0	0	8333	509531	0	0
2024-06-11 07:50:32			0	39117	0	0	0	25857	24450	130625	26951	1014333	41986	109570	0	0	8333	509316	0	0
2024-06-11 07:51:32			0	39146	0	0	0	25857	24450	130589	26703	1014333	41997	109570	0	0	8334	508237	0	0
2024-06-11 07:52:32			0	39151	0	0	0	25849	24450	130613	27190	1014333	41997	109567	0	0	8335	508051	0	0
2024-06-11 07:53:32			0	39137	0	0	0	25818	24450	130661	27097	1014306	41997	109555	0	0	8335	508572	0	0
2024-06-11 07:54:32			0	39121	0	0	0	25823	24450	130689	26720	1014306	41974	109557	0	0	8334	509167	0	0
2024-06-11 07:55:32			0	39128	0	0	0	25841	24450	130729	26767	1014324	41986	109564	0	0	8334	508907	0	0
2024-06-11 07:56:32			0	39140	0	0	0	25831	24450	130633	27163	1014324	41986	109560	0	0	8335	508460	0	0
2024-06-11 07:57:32			0	39113	0	0	0	25815	24450	130753	27038	1014324	41997	109554	0	0	8333	509465	0	0
2024-06-11 07:58:32			0	39093	0	0	0	25823	24430	130797	27237	1014271	41983	109557	0	0	8332	510268	0	0
2024-06-11 07:59:32			0	39126	0	0	0	25823	24440	130685	26830	1014315	41985	109557	0	0	8334	509010	0	0
2024-06-11 08:00:32			0	39116	0	0	0	25815	24440	130725	27097	1014262	41996	109554	0	0	8334	509382	0	0
2024-06-11 08:01:32			0	39104	0	0	0	25823	24440	130797	27102	1014315	41996	109557	0	0	8333	509829	0	0
2024-06-11 08:02:32			0	39104	0	0	0	25812	24440	130821	27260	1014253	41995	109553	0	0	8333	509829	0	0
2024-06-11 08:03:32			0	39102	0	0	0	25792	24440	130773	27154	1014289	41996	109545	0	0	8333	509903	0	0
2024-06-11 08:04:32			0	39111	0	0	0	25810	24440	130773	27159	1014262	41962	109552	0	0	8333	509568	0	0
2024-06-11 08:05:32			0	39113	0	0	0	25825	24430	130769	27258	1014298	41983	109558	0	0	8333	509523	0	0
2024-06-11 08:06:32			0	39090	0	0	0	25812	24430	130797	27187	1014271	41994	109553	0	0	8332	510379	0	0
2024-06-11 08:07:32			0	39094	0	0	0	25818	24430	130841	27149	1014271	41972	109555	0	0	8332	510230	0	0
2024-06-11 08:08:32			0	39115	0	0	0	25818	24420	130845	27057	1014308	41983	109555	0	0	8333	509477	0	0
2024-06-11 08:09:32			0	39091	0	0	0	25794	24430	130829	26873	1014298	41994	109546	0	0	8333	510342	0	0
2024-06-11 08:10:32			0	39098	0	0	0	25805	24430	130841	26949	1014271	41983	109550	0	0	8333	510081	0	0
2024-06-11 08:11:32			0	39091	0	0	0	25799	24420	130877	26849	1014147	41983	109548	0	0	8332	510371	0	0
2024-06-11 08:12:32			0	39076	0	0	0	25805	24420	130857	26897	1014227	42004	109550	0	0	8332	510930	0	0
2024-06-11 08:13:32			0	39097	0	0	0	25812	24420	130813	26856	1014192	41993	109553	0	0	8333	510147	0	0
2024-06-11 08:14:32			0	39107	0	0	0	25820	24410	130801	26961	1014202	41981	109556	0	0	8333	509804	0	0
2024-06-11 08:15:32			0	39121	0	0	0	25807	24420	130849	26817	1014227	41983	109551	0	0	8334	509254	0	0
2024-06-11 08:16:32			0	39105	0	0	0	25799	24430	130845	26984	1014209	41994	109548	0	0	8333	509820	0	0
2024-06-11 08:17:32			0	39105	0	0	0	25784	24420	130833	26824	1014219	41993	109542	0	0	8333	509849	0	0
2024-06-11 08:18:32			0	39090	0	0	0	25766	24410	130949	26901	1014183	41981	109535	0	0	8333	510437	0	0
2024-06-11 08:19:32			0	39091	0	0	0	25789	24420	130925	27145	1014174	41983	109544	0	0	8333	510371	0	0
2024-06-11 08:20:32			0	39098	0	0	0	25776	24410	130877	27140	1014130	41981	109539	0	0	8333	510139	0	0
2024-06-11 08:21:32			0	39080	0	0	0	25799	24400	130921	26894	1014166	41981	109548	0	0	8332	510838	0	0
2024-06-11 08:22:32			0	39079	0	0	0	25792	24410	130973	27109	1014148	41981	109545	0	0	8332	510847	0	0
2024-06-11 08:23:32			0	39067	0	0	0	25779	24410	130865	27334	1014148	41981	109540	0	0	8332	511295	0	0
2024-06-11 08:24:32			0	39080	0	0	0	25786	24400	130825	27090	1014078	41980	109543	0	0	8332	510838	0	0
2024-06-11 08:25:32			0	39086	0	0	0	25776	24400	130941	26894	1014078	41980	109539	0	0	8333	510615	0	0
2024-06-11 08:26:32			0	39074	0	0	0	25792	24400	130969	27232	1014140	41992	109545	0	0	8332	511062	0	0
2024-06-11 08:27:32			0	39093	0	0	0	25802	24390	131021	27069	1014096	41979	109549	0	0	8332	510383	0	0
2024-06-11 08:28:32			0	39112	0	0	0	25805	24400	130937	27208	1014185	42002	109550	0	0	8333	509646	0	0
2024-06-11 08:29:32			0	39109	0	0	0	25797	24400	130805	27059	1014158	41969	109547	0	0	8333	509758	0	0
2024-06-11 08:30:32			0	39115	0	0	0	25781	24400	130781	27171	1014158	41969	109541	0	0	8334	509534	0	0
2024-06-11 08:31:32			0	39089	0	0	0	25766	24400	130953	27055	1014104	42002	109535	0	0	8333	510503	0	0
2024-06-11 08:32:32			0	39067	0	0	0	25768	24410	130937	27234	1014068	41981	109536	0	0	8332	511295	0	0
2024-06-11 08:33:32			0	39063	0	0	0	25792	24400	130981	27305	1014104	41980	109545	0	0	8331	511473	0	0
2024-06-11 08:34:32			0	39045	0	0	0	25768	24390	130973	27254	1014069	41979	109536	0	0	8330	512174	0	0
2024-06-11 08:35:32			0	39046	0	0	0	25763	24390	131065	27312	1014069	41968	109534	0	0	8331	512136	0	0
2024-06-11 08:36:32			0	39069	0	0	0	25768	24390	131049	26680	1014069	41991	109536	0	0	8332	511278	0	0
2024-06-11 08:37:32			0	39061	0	0	0	25761	24370	131025	27216	1014088	41977	109533	0	0	8331	511634	0	0
2024-06-11 08:38:32			0	39045	0	0	0	25781	24400	130973	27284	1014024	41991	109541	0	0	8330	512145	0	0
2024-06-11 08:39:32			0	39098	0	0	0	25789	24400	130913	26989	1014104	41980	109544	0	0	8333	510168	0	0
2024-06-11 08:40:32			0	39100	0	0	0	25776	24380	130921	27260	1014079	41991	109539	0	0	8333	510151	0	0
2024-06-11 08:41:32			0	39115	0	0	0	25774	24380	130889	27062	1014052	41979	109538	0	0	8334	509592	0	0
2024-06-11 08:42:32			0	39106	0	0	0	25758	24390	130953	26824	1014114	41979	109532	0	0	8334	509898	0	0
2024-06-11 08:43:32			0	39096	0	0	0	25779	24390	130853	27022	1014087	41979	109540	0	0	8333	510271	0	0
2024-06-11 08:44:32			0	39100	0	0	0	25786	24380	130909	27085	1014097	41978	109543	0	0	8333	510151	0	0
2024-06-11 08:45:32			0	39104	0	0	0	25761	24400	130841	26897	1014131	41991	109533	0	0	8334	509944	0	0
2024-06-11 08:46:32			0	39117	0	0	0	25766	24390	130893	27066	1014096	41968	109535	0	0	8334	509489	0	0
2024-06-11 08:47:32			0	39130	0	0	0	25776	24390	130917	27163	1014034	41979	109539	0	0	8335	509005	0	0
2024-06-11 08:48:32			0	39125	0	0	0	25774	24370	130881	26979	1014061	41977	109538	0	0	8334	509249	0	0
2024-06-11 08:49:32			0	39138	0	0	0	25766	24380	130889	27157	1014043	41978	109535	0	0	8335	508736	0	0
2024-06-11 08:50:32			0	39122	0	0	0	25766	24380	130841	26729	1014025	41979	109535	0	0	8334	509331	0	0
2024-06-11 08:51:32			0	39132	0	0	0	25774	24370	130841	26925	1014088	41977	109538	0	0	8335	508988	0	0
2024-06-11 08:52:32			0	39144	0	0	0	25774	24370	130829	27180	1014035	41977	109538	0	0	8335	508542	0	0
2024-06-11 08:53:32			0	39128	0	0	0	25776	24380	130741	27045	1014043	41978	109539	0	0	8335	509108	0	0
2024-06-11 08:54:32			0	39149	0	0	0	25779	24380	130701	27232	1014105	41979	109540	0	0	8336	508327	0	0
2024-06-11 08:55:32			0	39172	0	0	0	25774	24390	130717	27140	1014060	41991	109538	0	0	8337	507443	0	0
2024-06-11 08:56:32			0	39170	0	0	0	25779	24380	130697	26974	1014150	42000	109540	0	0	8337	507546	0	0
2024-06-11 08:57:32			0	39175	0	0	0	25784	24380	130721	26972	1014070	41978	109542	0	0	8337	507361	0	0
2024-06-11 08:58:32			0	39193	0	0	0	25779	24390	130733	26870	1014096	41991	109540	0	0	8338	506664	0	0
2024-06-11 08:59:32			0	39144	0	0	0	25758	24390	130641	26956	1014087	41991	109532	0	0	8336	508484	0	0
2024-06-11 09:00:32			0	39162	0	0	0	25774	24390	130681	27140	1014060	41979	109538	0	0	8336	507815	0	0
2024-06-11 09:01:32			0	39147	0	0	0	25768	24380	130617	27166	1014070	41967	109536	0	0	8336	508401	0	0
2024-06-11 09:02:32			0	39166	0	0	0	25768	24380	130689	27204	1014079	41991	109536	0	0	8337	507695	0	0
2024-06-11 09:03:32			0	39168	0	0	0	25776	24390	130705	27500	1014087	41991	109539	0	0	8337	507592	0	0
2024-06-11 09:04:32			0	39152	0	0	0	25768	24390	130657	26890	1014087	41979	109536	0	0	8336	508187	0	0
2024-06-11 09:05:32			0	39181	0	0	0	25789	24390	130637	26923	1014141	41979	109544	0	0	8337	507109	0	0
2024-06-11 09:06:32			0	39179	0	0	0	25779	24390	130637	27138	1014123	41991	109540	0	0	8337	507183	0	0
2024-06-11 09:07:32			0	39182	0	0	0	25792	24390	130633	27078	1014123	41991	109545	0	0	8337	507072	0	0
2024-06-11 09:08:32			0	39181	0	0	0	25781	24390	130645	27119	1014141	41979	109541	0	0	8337	507109	0	0
2024-06-11 09:09:32			0	39179	0	0	0	25792	24380	130561	27196	1014150	41990	109545	0	0	8337	507212	0	0
2024-06-11 09:10:32			0	39171	0	0	0	25794	24390	130637	27360	1014123	42001	109546	0	0	8337	507481	0	0
2024-06-11 09:11:32			0	39200	0	0	0	25792	24390	130657	27211	1014149	41991	109545	0	0	8338	506404	0	0
2024-06-11 09:12:32			0	39194	0	0	0	25802	24400	130685	27168	1014140	42003	109549	0	0	8338	506598	0	0
2024-06-11 09:13:32			0	39206	0	0	0	25797	24400	130601	27173	1014104	41980	109547	0	0	8338	506153	0	0
2024-06-11 09:14:32			0	39210	0	0	0	25797	24400	130569	27289	1014166	42003	109547	0	0	8339	506005	0	0
2024-06-11 09:15:32			0	39233	0	0	0	25805	24410	130509	27190	1014175	41992	109550	0	0	8340	505123	0	0
2024-06-11 09:16:32			0	39240	0	0	0	25812	24410	130513	27320	1014255	41992	109553	0	0	8340	504864	0	0
2024-06-11 09:17:32			0	39253	0	0	0	25802	24410	130545	26833	1014202	41981	109549	0	0	8341	504383	0	0
2024-06-11 09:18:32			0	39214	0	0	0	25810	24410	130617	27204	1014175	41992	109552	0	0	8339	505828	0	0
2024-06-11 09:19:32			0	39242	0	0	0	25812	24410	130533	27029	1014202	41981	109553	0	0	8340	504790	0	0
2024-06-11 09:20:32			0	39248	0	0	0	25815	24410	130473	27284	1014228	41992	109554	0	0	8340	504568	0	0
2024-06-11 09:21:32			0	39254	0	0	0	25802	24410	130545	26892	1014237	41992	109549	0	0	8341	504346	0	0
2024-06-11 09:22:32			0	39239	0	0	0	25815	24410	130457	27140	1014228	41981	109554	0	0	8340	504901	0	0
2024-06-11 09:23:32			0	39241	0	0	0	25815	24410	130493	27261	1014237	41992	109554	0	0	8340	504827	0	0
2024-06-11 09:24:32			0	39249	0	0	0	25825	24410	130529	26847	1014317	42003	109558	0	0	8340	504531	0	0
2024-06-11 09:25:32			0	39253	0	0	0	25831	24410	130409	27118	1014210	41981	109560	0	0	8340	504383	0	0
2024-06-11 09:26:32			0	39262	0	0	0	25841	24420	130389	27251	1014281	41983	109564	0	0	8341	504021	0	0
2024-06-11 09:27:32			0	39245	0	0	0	25841	24420	130405	26949	1014308	42004	109564	0	0	8340	504651	0	0
2024-06-11 09:28:32			0	39264	0	0	0	25833	24430	130409	26838	1014298	41983	109561	0	0	8341	503919	0	0
2024-06-11 09:29:32			0	39261	0	0	0	25836	24420	130505	27034	1014281	41994	109562	0	0	8341	504058	0	0
2024-06-11 09:30:32			0	39246	0	0	0	25854	24430	130465	26981	1014351	41994	109569	0	0	8340	504585	0	0
2024-06-11 09:31:32			0	39263	0	0	0	25846	24450	130401	27175	1014378	41997	109566	0	0	8341	503899	0	0
2024-06-11 09:32:32			0	39252	0	0	0	25854	24440	130469	27081	1014396	41985	109569	0	0	8340	504334	0	0
2024-06-11 09:33:32			0	39256	0	0	0	25846	24430	130449	27109	1014351	41994	109566	0	0	8340	504215	0	0
2024-06-11 09:34:32			0	39252	0	0	0	25849	24440	130401	27074	1014369	41985	109567	0	0	8340	504334	0	0
2024-06-11 09:35:32			0	39265	0	0	0	25854	24440	130437	27020	1014342	42006	109569	0	0	8341	503854	0	0
2024-06-11 09:36:32			0	39257	0	0	0	25859	24450	130421	27102	1014378	42007	109571	0	0	8340	504121	0	0
2024-06-11 09:37:32			0	39262	0	0	0	25862	24450	130413	27039	1014431	41974	109572	0	0	8340	503936	0	0
2024-06-11 09:38:32			0	39258	0	0	0	25862	24450	130381	27206	1014413	41986	109572	0	0	8340	504084	0	0
2024-06-11 09:39:32			0	39236	0	0	0	25867	24450	130369	27324	1014440	41986	109574	0	0	8339	504898	0	0
2024-06-11 09:40:32			0	39250	0	0	0	25877	24460	130421	27208	1014430	42008	109578	0	0	8340	504351	0	0
2024-06-11 09:41:32			0	39245	0	0	0	25877	24450	130441	26937	1014413	41997	109578	0	0	8339	504565	0	0
2024-06-11 09:42:32			0	39266	0	0	0	25872	24460	130429	26788	1014502	41997	109576	0	0	8340	503760	0	0
2024-06-11 09:43:32			0	39271	0	0	0	25872	24460	130389	26974	1014510	42031	109576	0	0	8341	503575	0	0
2024-06-11 09:44:32			0	39255	0	0	0	25877	24460	130353	27095	1014457	41986	109578	0	0	8340	504166	0	0
2024-06-11 09:45:32			0	39263	0	0	0	25888	24470	130333	27138	1014581	41999	109582	0	0	8340	503842	0	0
2024-06-11 09:46:32			0	39274	0	0	0	25890	24480	130373	26937	1014563	41987	109583	0	0	8341	503407	0	0
2024-06-11 09:47:32			0	39244	0	0	0	25890	24480	130409	26982	1014563	41999	109583	0	0	8339	504516	0	0
2024-06-11 09:48:32			0	39261	0	0	0	25898	24480	130321	26923	1014571	42010	109586	0	0	8340	503887	0	0
2024-06-11 09:49:32			0	39280	0	0	0	25896	24480	130325	27242	1014563	41999	109585	0	0	8341	503185	0	0
2024-06-11 09:50:32			0	39259	0	0	0	25896	24480	130377	26833	1014544	42000	109585	0	0	8340	503962	0	0
2024-06-11 09:51:32			0	39260	0	0	0	25901	24490	130337	27307	1014713	42011	109587	0	0	8340	503896	0	0
2024-06-11 09:52:32			0	39295	0	0	0	25916	24490	130305	27216	1014660	42000	109593	0	0	8341	502603	0	0
2024-06-11 09:53:32			0	39284	0	0	0	25911	24480	130329	27138	1014598	42010	109591	0	0	8341	503037	0	0
2024-06-11 09:54:32			0	39268	0	0	0	25914	24500	130385	27007	1014650	42011	109592	0	0	8340	503572	0	0
2024-06-11 09:55:32			0	39278	0	0	0	25919	24500	130341	26844	1014686	42012	109594	0	0	8340	503202	0	0
2024-06-11 09:56:32			0	39273	0	0	0	25919	24510	130381	27092	1014694	42001	109594	0	0	8340	503358	0	0
2024-06-11 09:57:32			0	39274	0	0	0	25922	24500	130277	27194	1014659	42001	109595	0	0	8340	503350	0	0
2024-06-11 09:58:32			0	39268	0	0	0	25927	24510	130257	27128	1014667	42001	109597	0	0	8340	503543	0	0
2024-06-11 09:59:32			0	39259	0	0	0	25924	24510	130377	26883	1014783	42001	109596	0	0	8339	503876	0	0
2024-06-11 10:00:32			0	39278	0	0	0	25935	24510	130301	27241	1014801	42001	109600	0	0	8340	503174	0	0
2024-06-11 10:01:32			0	39285	0	0	0	25932	24510	130305	27294	1014801	42024	109599	0	0	8341	502915	0	0
2024-06-11 10:02:32			0	39316	0	0	0	25940	24520	130261	27326	1014773	42014	109602	0	0	8342	501742	0	0
2024-06-11 10:03:32			0	39280	0	0	0	25927	24510	130257	27220	1014801	42013	109597	0	0	8340	503100	0	0
2024-06-11 10:04:32			0	39301	0	0	0	25932	24520	130169	27118	1014773	42014	109599	0	0	8341	502296	0	0
2024-06-11 10:05:32			0	39284	0	0	0	25935	24520	130237	27329	1014818	42002	109600	0	0	8341	502924	0	0
2024-06-11 10:06:32			0	39289	0	0	0	25945	24520	130245	27409	1014827	42002	109604	0	0	8341	502739	0	0
2024-06-11 10:07:32			0	39289	0	0	0	25945	24510	130169	27313	1014837	42013	109604	0	0	8341	502767	0	0
2024-06-11 10:08:32			0	39289	0	0	0	25932	24520	130213	27020	1014827	41992	109599	0	0	8341	502739	0	0
2024-06-11 10:09:32			0	39293	0	0	0	25929	24530	130189	27007	1014817	42004	109598	0	0	8341	502563	0	0
2024-06-11 10:10:32			0	39273	0	0	0	25932	24530	130313	27055	1014835	42015	109599	0	0	8340	503302	0	0
2024-06-11 10:11:32			0	39278	0	0	0	25935	24530	130317	26811	1014835	42015	109600	0	0	8340	503117	0	0
2024-06-11 10:12:32			0	39280	0	0	0	25942	24530	130253	27003	1014702	42003	109603	0	0	8340	503043	0	0
2024-06-11 10:13:32			0	39269	0	0	0	25935	24530	130365	26956	1014844	42004	109600	0	0	8340	503449	0	0
2024-06-11 10:14:32			0	39270	0	0	0	25940	24530	130261	26948	1014844	42015	109602	0	0	8340	503412	0	0
2024-06-11 10:15:32			0	39275	0	0	0	25924	24530	130333	27008	1014835	42003	109596	0	0	8340	503228	0	0
2024-06-11 10:16:32			0	39257	0	0	0	25935	24530	130341	27147	1014817	42004	109600	0	0	8339	503893	0	0
2024-06-11 10:17:32			0	39251	0	0	0	25935	24530	130409	27138	1014844	42015	109600	0	0	8339	504115	0	0
2024-06-11 10:18:32			0	39266	0	0	0	25935	24540	130325	27152	1014853	42004	109600	0	0	8340	503532	0	0
2024-06-11 10:19:32			0	39259	0	0	0	25932	24540	130401	27114	1014799	42004	109599	0	0	8339	503791	0	0
2024-06-11 10:20:32			0	39240	0	0	0	25932	24540	130393	26998	1014888	41994	109599	0	0	8338	504493	0	0
2024-06-11 10:21:32			0	39242	0	0	0	25924	24540	130397	26987	1014861	42015	109596	0	0	8339	504419	0	0
2024-06-11 10:22:32			0	39234	0	0	0	25922	24530	130341	26842	1014817	42004	109595	0	0	8338	504744	0	0
2024-06-11 10:23:32			0	39251	0	0	0	25914	24530	130381	27121	1014782	42003	109592	0	0	8339	504115	0	0
2024-06-11 10:24:32			0	39242	0	0	0	25914	24530	130425	26951	1014835	41993	109592	0	0	8339	504448	0	0
2024-06-11 10:25:32			0	39257	0	0	0	25924	24530	130405	27230	1014835	42003	109596	0	0	8339	503893	0	0
2024-06-11 10:26:32			0	39240	0	0	0	25935	24540	130425	27090	1014808	42004	109600	0	0	8338	504493	0	0
2024-06-11 10:27:32			0	39255	0	0	0	25935	24540	130521	27029	1014826	42004	109600	0	0	8339	503938	0	0
2024-06-11 10:28:32			0	39216	0	0	0	25940	24540	130433	27248	1014834	42027	109602	0	0	8337	505382	0	0
2024-06-11 10:29:32			0	39215	0	0	0	25948	24540	130629	27066	1014853	42004	109605	0	0	8337	505419	0	0
2024-06-11 10:30:32			0	39221	0	0	0	25942	24540	130613	26797	1014879	42004	109603	0	0	8337	505197	0	0
2024-06-11 10:31:32			0	39214	0	0	0	25935	24540	130541	27400	1014915	42015	109600	0	0	8337	505456	0	0
2024-06-11 10:32:32			0	39210	0	0	0	25942	24540	130485	27251	1014879	42015	109603	0	0	8337	505604	0	0
2024-06-11 10:33:32			0	39222	0	0	0	25945	24540	130597	27150	1014915	42015	109604	0	0	8337	505160	0	0
2024-06-11 10:34:32			0	39228	0	0	0	25950	24540	130485	27076	1014834	42015	109606	0	0	8337	504937	0	0
2024-06-11 10:35:32			0	39221	0	0	0	25950	24540	130501	26913	1014906	42004	109606	0	0	8337	505197	0	0
2024-06-11 10:36:32			0	39212	0	0	0	25955	24540	130553	26771	1014941	42015	109608	0	0	8337	505530	0	0
2024-06-11 10:37:32			0	39201	0	0	0	25958	24550	130521	27208	1014959	42017	109609	0	0	8336	505909	0	0
2024-06-11 10:38:32			0	39214	0	0	0	25966	24550	130453	27053	1015012	42017	109612	0	0	8337	505427	0	0
2024-06-11 10:39:32			0	39193	0	0	0	25968	24560	130533	27215	1015003	42006	109613	0	0	8335	506177	0	0
2024-06-11 10:40:32			0	39214	0	0	0	25984	24560	130497	27088	1015021	42017	109619	0	0	8336	505399	0	0
2024-06-11 10:41:32			0	39205	0	0	0	25976	24550	130605	27320	1014959	42006	109616	0	0	8336	505761	0	0
2024-06-11 10:42:32			0	39188	0	0	0	25971	24560	130593	26889	1014967	42006	109614	0	0	8335	506363	0	0
2024-06-11 10:43:32			0	39205	0	0	0	25981	24560	130553	27036	1014976	42017	109618	0	0	8336	505732	0	0
2024-06-11 10:44:32			0	39208	0	0	0	25984	24560	130557	27066	1015083	42006	109619	0	0	8336	505621	0	0
2024-06-11 10:45:32			0	39213	0	0	0	25981	24570	130501	26911	1015047	42019	109618	0	0	8336	505407	0	0
2024-06-11 10:46:32			0	39220	0	0	0	25981	24570	130497	26981	1015073	42041	109618	0	0	8337	505148	0	0
2024-06-11 10:47:32			0	39201	0	0	0	25992	24570	130541	27313	1015073	42008	109622	0	0	8335	505852	0	0
2024-06-11 10:48:32			0	39223	0	0	0	25992	24570	130513	27291	1015073	42019	109622	0	0	8337	505037	0	0
2024-06-11 10:49:32			0	39198	0	0	0	25984	24580	130457	27067	1015109	42019	109619	0	0	8335	505934	0	0
2024-06-11 10:50:32			0	39222	0	0	0	25989	24580	130541	26989	1015055	42008	109621	0	0	8337	505045	0	0
2024-06-11 10:51:32			0	39216	0	0	0	26002	24580	130485	27339	1015091	42031	109626	0	0	8336	505268	0	0
2024-06-11 10:52:32			0	39221	0	0	0	26012	24580	130489	27272	1015117	42009	109630	0	0	8336	505082	0	0
2024-06-11 10:53:32			0	39226	0	0	0	26007	24580	130517	27327	1015171	42020	109628	0	0	8337	504897	0	0
2024-06-11 10:54:32			0	39222	0	0	0	26018	24580	130521	27010	1015144	42009	109632	0	0	8336	505045	0	0
2024-06-11 10:55:32			0	39222	0	0	0	26020	24600	130577	27076	1015223	42021	109633	0	0	8336	504988	0	0
2024-06-11 10:56:32			0	39219	0	0	0	26015	24600	130521	27024	1015178	42022	109631	0	0	8336	505099	0	0
2024-06-11 10:57:32			0	39227	0	0	0	26025	24600	130513	26937	1015250	42021	109635	0	0	8336	504803	0	0
2024-06-11 10:58:32			0	39236	0	0	0	26033	24600	130429	27005	1015259	42022	109638	0	0	8337	504470	0	0
2024-06-11 10:59:32			0	39222	0	0	0	26033	24600	130513	27187	1015232	42022	109638	0	0	8336	504988	0	0
2024-06-11 11:00:32			0	39215	0	0	0	26038	24620	130437	27312	1015303	42023	109640	0	0	8336	505190	0	0
2024-06-11 11:01:32			0	39235	0	0	0	26038	24620	130461	27353	1015276	42044	109640	0	0	8337	504450	0	0
2024-06-11 11:02:32			0	39224	0	0	0	26046	24620	130409	27322	1015311	42035	109643	0	0	8336	504857	0	0
2024-06-11 11:03:32			0	39238	0	0	0	26036	24620	130461	27376	1015303	42000	109639	0	0	8337	504339	0	0
2024-06-11 11:04:32			0	39230	0	0	0	26028	24620	130521	27189	1015311	42012	109636	0	0	8337	504635	0	0
2024-06-11 11:05:32			0	39238	0	0	0	26033	24620	130421	27241	1015338	42035	109638	0	0	8337	504339	0	0
2024-06-11 11:06:32			0	39226	0	0	0	26036	24630	130485	27140	1015248	42045	109639	0	0	8336	504754	0	0
2024-06-11 11:07:32			0	39229	0	0	0	26033	24620	130361	27564	1015311	42024	109638	0	0	8336	504672	0	0
2024-06-11 11:08:32			0	39233	0	0	0	26044	24620	130429	27277	1015338	42024	109642	0	0	8336	504524	0	0
2024-06-11 11:09:32			0	39230	0	0	0	26054	24630	130497	27175	1015373	42012	109646	0	0	8336	504607	0	0
2024-06-11 11:10:32			0	39230	0	0	0	26046	24640	130453	27365	1015399	42037	109643	0	0	8336	504578	0	0
2024-06-11 11:11:32			0	39221	0	0	0	26054	24640	130437	27242	1015417	42036	109646	0	0	8336	504911	0	0
2024-06-11 11:12:32			0	39228	0	0	0	26057	24630	130417	27053	1015462	42035	109647	0	0	8336	504680	0	0
2024-06-11 11:13:32			0	39238	0	0	0	26070	24640	130357	27334	1015452	42025	109652	0	0	8336	504282	0	0
2024-06-11 11:14:32			0	39231	0	0	0	26077	24650	130397	27033	1015443	42015	109655	0	0	8336	504512	0	0
2024-06-11 11:15:32			0	39212	0	0	0	26075	24660	130445	27329	1015451	42026	109654	0	0	8335	505187	0	0
2024-06-11 11:16:32			0	39234	0	0	0	26090	24650	130469	27211	1015443	42026	109660	0	0	8336	504401	0	0
2024-06-11 11:17:32			0	39234	0	0	0	26080	24660	130385	27358	1015505	42026	109656	0	0	8336	504373	0	0
2024-06-11 11:18:32			0	39225	0	0	0	26080	24660	130421	27293	1015487	42039	109656	0	0	8336	504706	0	0
2024-06-11 11:19:32			0	39252	0	0	0	26090	24670	130461	27358	1015522	42016	109660	0	0	8337	503679	0	0
2024-06-11 11:20:32			0	39246	0	0	0	26093	24660	130321	27424	1015540	42027	109661	0	0	8336	503929	0	0
2024-06-11 11:21:32			0	39234	0	0	0	26088	24670	130277	27371	1015557	42040	109659	0	0	8336	504344	0	0
2024-06-11 11:22:32			0	39227	0	0	0	26101	24660	130309	27329	1015594	42039	109664	0	0	8335	504632	0	0
2024-06-11 11:23:32			0	39236	0	0	0	26119	24670	130437	27133	1015611	42017	109671	0	0	8336	504270	0	0
2024-06-11 11:24:32			0	39224	0	0	0	26119	24680	130385	27105	1015602	42040	109671	0	0	8335	504686	0	0
2024-06-11 11:25:32			0	39213	0	0	0	26103	24690	130465	27059	1015610	42051	109665	0	0	8335	505064	0	0
2024-06-11 11:26:32			0	39225	0	0	0	26114	24690	130425	27036	1015672	42052	109669	0	0	8335	504620	0	0
2024-06-11 11:27:32			0	39236	0	0	0	26119	24690	130449	27038	1015645	42052	109671	0	0	8336	504213	0	0
2024-06-11 11:28:32			0	39243	0	0	0	26122	24700	130429	27267	1015708	42031	109672	0	0	8336	503926	0	0
2024-06-11 11:29:32			0	39250	0	0	0	26122	24700	130457	27076	1015681	42031	109672	0	0	8336	503667	0	0
2024-06-11 11:30:32			0	39234	0	0	0	26116	24700	130405	27003	1015716	42020	109670	0	0	8336	504259	0	0
2024-06-11 11:31:32			0	39254	0	0	0	26109	24710	130385	27020	1015671	42020	109667	0	0	8337	503491	0	0
2024-06-11 11:32:32			0	39246	0	0	0	26116	24720	130361	27041	1015769	42033	109670	0	0	8336	503758	0	0
2024-06-11 11:33:32			0	39252	0	0	0	26114	24710	130345	27104	1015751	42053	109669	0	0	8337	503565	0	0
2024-06-11 11:34:32			0	39254	0	0	0	26122	24700	130337	27170	1015716	42041	109672	0	0	8337	503519	0	0
2024-06-11 11:35:32			0	39248	0	0	0	26132	24700	130413	27225	1015743	42053	109676	0	0	8336	503741	0	0
2024-06-11 11:36:32			0	39242	0	0	0	26124	24710	130369	27152	1015725	42031	109673	0	0	8336	503934	0	0
2024-06-11 11:37:32			0	39262	0	0	0	26127	24720	130321	27301	1015831	42033	109674	0	0	8337	503167	0	0
2024-06-11 11:38:32			0	39253	0	0	0	26116	24720	130305	27199	1015769	42054	109670	0	0	8337	503499	0	0
2024-06-11 11:39:32			0	39266	0	0	0	26111	24720	130393	27128	1015769	42033	109668	0	0	8337	503019	0	0
2024-06-11 11:40:32			0	39254	0	0	0	26111	24720	130385	26960	1015777	42010	109668	0	0	8337	503462	0	0
2024-06-11 11:41:32			0	39243	0	0	0	26116	24720	130381	27020	1015769	42033	109670	0	0	8336	503869	0	0
2024-06-11 11:42:32			0	39255	0	0	0	26122	24720	130385	27176	1015724	42033	109672	0	0	8337	503425	0	0
2024-06-11 11:43:32			0	39255	0	0	0	26103	24720	130317	27012	1015742	42033	109665	0	0	8337	503425	0	0
2024-06-11 11:44:32			0	39269	0	0	0	26122	24720	130449	26911	1015715	42033	109672	0	0	8337	502908	0	0
2024-06-11 11:45:32			0	39250	0	0	0	26124	24730	130457	26684	1015794	42022	109673	0	0	8336	503582	0	0
2024-06-11 11:46:32			0	39278	0	0	0	26106	24720	130409	26849	1015724	42043	109666	0	0	8338	502576	0	0
2024-06-11 11:47:32			0	39257	0	0	0	26124	24730	130377	27045	1015679	42034	109673	0	0	8337	503323	0	0
2024-06-11 11:48:32			0	39248	0	0	0	26129	24720	130385	26913	1015831	42033	109675	0	0	8336	503684	0	0
2024-06-11 11:49:32			0	39251	0	0	0	26111	24720	130401	27079	1015750	42043	109668	0	0	8337	503573	0	0
2024-06-11 11:50:32			0	39232	0	0	0	26116	24720	130325	26939	1015715	42021	109670	0	0	8336	504276	0	0
2024-06-11 11:51:32			0	39261	0	0	0	26119	24720	130321	27163	1015831	42054	109671	0	0	8337	503204	0	0
2024-06-11 11:52:32			0	39271	0	0	0	26122	24730	130353	26831	1015759	42034	109672	0	0	8338	502806	0	0
2024-06-11 11:53:32			0	39247	0	0	0	26114	24730	130305	27071	1015759	42034	109669	0	0	8336	503692	0	0
2024-06-11 11:54:32			0	39255	0	0	0	26116	24730	130385	27104	1015759	42034	109670	0	0	8337	503397	0	0
2024-06-11 11:55:32			0	39238	0	0	0	26114	24720	130473	27131	1015715	42021	109669	0	0	8336	504054	0	0
2024-06-11 11:56:32			0	39237	0	0	0	26109	24730	130337	27303	1015759	42044	109667	0	0	8336	504062	0	0
2024-06-11 11:57:32			0	39235	0	0	0	26111	24720	130401	27013	1015742	42033	109668	0	0	8336	504165	0	0
2024-06-11 11:58:32			0	39241	0	0	0	26098	24730	130441	27171	1015759	42044	109663	0	0	8336	503914	0	0
2024-06-11 11:59:32			0	39239	0	0	0	26111	24720	130477	27105	1015742	42054	109668	0	0	8336	504017	0	0
2024-06-11 12:00:32			0	39259	0	0	0	26101	24710	130465	27036	1015680	42020	109664	0	0	8337	503306	0	0
2024-06-11 12:01:32			0	39224	0	0	0	26093	24720	130409	27048	1015688	42043	109661	0	0	8336	504572	0	0
2024-06-11 12:02:32			0	39242	0	0	0	26096	24720	130461	26913	1015688	42033	109662	0	0	8336	503906	0	0
2024-06-11 12:03:32			0	39228	0	0	0	26090	24720	130525	27124	1015662	42033	109660	0	0	8336	504423	0	0
2024-06-11 12:04:32			0	39211	0	0	0	26083	24700	130541	27322	1015663	42031	109657	0	0	8335	505110	0	0
2024-06-11 12:05:32			0	39204	0	0	0	26096	24700	130541	27130	1015654	42031	109662	0	0	8334	505369	0	0
2024-06-11 12:06:32			0	39193	0	0	0	26093	24710	130509	27116	1015671	42020	109661	0	0	8334	505748	0	0
2024-06-11 12:07:32			0	39180	0	0	0	26083	24710	130573	27216	1015671	42053	109657	0	0	8333	506229	0	0
2024-06-11 12:08:32			0	39186	0	0	0	26096	24700	130561	27041	1015681	42020	109662	0	0	8333	506036	0	0
2024-06-11 12:09:32			0	39171	0	0	0	26096	24700	130597	27232	1015654	42053	109662	0	0	8333	506592	0	0
2024-06-11 12:10:32			0	39180	0	0	0	26085	24710	130653	27208	1015618	42031	109658	0	0	8333	506229	0	0
2024-06-11 12:11:32			0	39180	0	0	0	26098	24710	130609	27119	1015644	42041	109663	0	0	8333	506229	0	0
2024-06-11 12:12:32			0	39157	0	0	0	26088	24710	130737	27313	1015706	42042	109659	0	0	8332	507082	0	0
2024-06-11 12:13:32			0	39146	0	0	0	26103	24700	130625	27324	1015663	42031	109665	0	0	8331	507519	0	0
2024-06-11 12:14:32			0	39167	0	0	0	26080	24700	130693	27007	1015601	42041	109656	0	0	8333	506740	0	0
2024-06-11 12:15:32			0	39148	0	0	0	26077	24700	130669	27043	1015636	42008	109655	0	0	8332	507445	0	0
2024-06-11 12:16:32			0	39144	0	0	0	26101	24700	130713	26981	1015663	42041	109664	0	0	8331	507593	0	0
2024-06-11 12:17:32			0	39135	0	0	0	26109	24700	130781	27095	1015743	42031	109667	0	0	8331	507928	0	0
2024-06-11 12:18:32			0	39115	0	0	0	26096	24710	130749	27072	1015698	42031	109662	0	0	8330	508642	0	0
2024-06-11 12:19:32			0	39118	0	0	0	26085	24710	130845	27078	1015733	42032	109658	0	0	8330	508530	0	0
2024-06-11 12:20:32			0	39110	0	0	0	26106	24710	130757	27263	1015733	42020	109666	0	0	8329	508828	0	0
2024-06-11 12:21:32			0	39113	0	0	0	26114	24710	130829	27171	1015778	42041	109669	0	0	8329	508716	0	0
2024-06-11 12:22:32			0	39093	0	0	0	26116	24700	130941	26911	1015734	42041	109670	0	0	8328	509489	0	0
2024-06-11 12:23:32			0	39088	0	0	0	26122	24700	130849	27312	1015743	42064	109672	0	0	8328	509675	0	0
2024-06-11 12:24:32			0	39102	0	0	0	26109	24720	130861	27130	1015769	42033	109667	0	0	8329	509096	0	0
2024-06-11 12:25:32			0	39096	0	0	0	26122	24710	130885	27428	1015805	42053	109672	0	0	8328	509348	0	0
2024-06-11 12:26:32			0	39096	0	0	0	26127	24710	130965	27258	1015698	42031	109674	0	0	8328	509348	0	0
2024-06-11 12:27:32			0	39089	0	0	0	26103	24720	130937	27043	1015742	42033	109665	0	0	8328	509580	0	0
2024-06-11 12:28:32			0	39071	0	0	0	26101	24710	130973	27046	1015725	42041	109664	0	0	8327	510279	0	0
2024-06-11 12:29:32			0	39069	0	0	0	26103	24700	130949	27289	1015743	42031	109665	0	0	8327	510382	0	0
2024-06-11 12:30:32			0	39069	0	0	0	26106	24710	130989	27222	1015698	42031	109666	0	0	8327	510353	0	0
2024-06-11 12:31:32			0	39061	0	0	0	26098	24700	130993	27256	1015716	42020	109663	0	0	8327	510680	0	0
2024-06-11 12:32:32			0	39045	0	0	0	26088	24710	131041	27182	1015698	42053	109659	0	0	8326	511248	0	0
2024-06-11 12:33:32			0	39032	0	0	0	26106	24710	130985	27407	1015778	42031	109666	0	0	8325	511732	0	0
2024-06-11 12:34:32			0	39041	0	0	0	26114	24700	131145	27171	1015681	42020	109669	0	0	8326	511426	0	0
2024-06-11 12:35:32			0	39045	0	0	0	26098	24720	131213	27293	1015742	42021	109663	0	0	8326	511219	0	0
2024-06-11 12:36:32			0	39032	0	0	0	26101	24720	131145	27326	1015769	42033	109664	0	0	8326	511703	0	0
2024-06-11 12:37:32			0	39031	0	0	0	26098	24700	131045	27398	1015716	42053	109663	0	0	8325	511799	0	0
2024-06-11 12:38:32			0	38985	0	0	0	26101	24700	131085	26951	1015689	42031	109664	0	0	8323	513516	0	0
2024-06-11 12:39:32			0	39011	0	0	0	26106	24700	131149	27377	1015689	42031	109666	0	0	8324	512545	0	0
2024-06-11 12:40:32			0	39014	0	0	0	26109	24700	131241	27405	1015689	42053	109667	0	0	8324	512433	0	0
2024-06-11 12:41:32			0	39007	0	0	0	26101	24700	131297	27124	1015716	42031	109664	0	0	8324	512694	0	0
2024-06-11 12:42:32			0	38998	0	0	0	26116	24700	131273	27045	1015743	42031	109670	0	0	8323	513030	0	0
2024-06-11 12:43:32			0	39010	0	0	0	26129	24720	131253	27403	1015742	42021	109675	0	0	8324	512524	0	0
2024-06-11 12:44:32			0	39013	0	0	0	26114	24720	131233	27043	1015769	42054	109669	0	0	8324	512412	0	0
2024-06-11 12:45:32			0	39000	0	0	0	26127	24720	131257	27296	1015777	42033	109674	0	0	8323	512898	0	0
2024-06-11 12:46:32			0	39005	0	0	0	26122	24720	131321	27244	1015777	42033	109672	0	0	8324	512711	0	0
2024-06-11 12:47:32			0	38991	0	0	0	26150	24720	131277	27156	1015795	42054	109683	0	0	8323	513234	0	0
2024-06-11 12:48:32			0	39016	0	0	0	26158	24730	131241	27211	1015839	42055	109686	0	0	8324	512271	0	0
2024-06-11 12:49:32			0	39013	0	0	0	26148	24730	131217	27124	1015866	42034	109682	0	0	8324	512383	0	0
2024-06-11 12:50:32			0	39009	0	0	0	26119	24730	131073	27256	1015875	42034	109671	0	0	8324	512533	0	0
2024-06-11 12:51:32			0	39026	0	0	0	26116	24730	131049	27170	1015794	42044	109670	0	0	8325	511898	0	0
2024-06-11 12:52:32			0	39012	0	0	0	26114	24730	131173	26977	1015794	42034	109669	0	0	8324	512421	0	0
2024-06-11 12:53:32			0	39014	0	0	0	26114	24730	131137	27274	1015839	42034	109669	0	0	8324	512346	0	0
2024-06-11 12:54:32			0	38984	0	0	0	26124	24730	131093	27260	1015794	42034	109673	0	0	8323	513466	0	0
2024-06-11 12:55:32			0	38967	0	0	0	26142	24730	131157	27614	1015821	42055	109680	0	0	8322	514102	0	0
2024-06-11 12:56:32			0	39000	0	0	0	26111	24730	131157	27480	1015812	42022	109668	0	0	8324	512869	0	0
2024-06-11 12:57:32			0	39016	0	0	0	26111	24730	131065	27248	1015786	42055	109668	0	0	8325	512271	0	0
2024-06-11 12:58:32			0	39018	0	0	0	26122	24730	131085	27303	1015821	42044	109672	0	0	8324	512197	0	0
2024-06-11 12:59:32			0	39000	0	0	0	26161	24730	131157	27312	1015866	42034	109687	0	0	8323	512869	0	0
2024-06-11 13:00:32			0	39036	0	0	0	26153	24740	131113	27395	1015883	42045	109684	0	0	8325	511496	0	0
2024-06-11 13:01:32			0	39022	0	0	0	26161	24740	131061	27112	1015856	42035	109687	0	0	8324	512018	0	0
2024-06-11 13:02:32			0	39017	0	0	0	26194	24740	131133	27661	1015972	42056	109700	0	0	8323	512205	0	0
2024-06-11 13:03:32			0	39033	0	0	0	26161	24750	131053	27137	1015981	42046	109687	0	0	8325	511579	0	0
2024-06-11 13:04:32			0	39056	0	0	0	26163	24750	131029	27358	1015936	42057	109688	0	0	8326	510722	0	0
2024-06-11 13:05:32			0	39064	0	0	0	26179	24760	130933	27450	1015971	42036	109694	0	0	8326	510395	0	0
2024-06-11 13:06:32			0	39065	0	0	0	26184	24760	130941	27249	1015998	42036	109696	0	0	8326	510358	0	0
2024-06-11 13:07:32			0	39063	0	0	0	26166	24770	130973	27400	1016015	42048	109689	0	0	8326	510403	0	0
2024-06-11 13:08:32			0	39077	0	0	0	26171	24760	130849	27066	1016006	42037	109691	0	0	8327	509911	0	0
2024-06-11 13:09:32			0	39095	0	0	0	26179	24770	130873	27145	1016042	42037	109694	0	0	8328	509213	0	0
2024-06-11 13:10:32			0	39088	0	0	0	26186	24770	130825	26944	1016015	42059	109697	0	0	8327	509473	0	0
2024-06-11 13:11:32			0	39120	0	0	0	26168	24780	130737	27071	1016059	42038	109690	0	0	8329	508255	0	0
2024-06-11 13:12:32			0	39125	0	0	0	26166	24770	130733	27246	1015988	42048	109689	0	0	8329	508098	0	0
2024-06-11 13:13:32			0	39128	0	0	0	26155	24760	130713	27055	1015980	42026	109685	0	0	8330	508015	0	0
2024-06-11 13:14:32			0	39149	0	0	0	26150	24770	130661	27241	1016042	42037	109683	0	0	8331	507207	0	0
2024-06-11 13:15:32			0	39142	0	0	0	26153	24770	130649	27286	1016015	42026	109684	0	0	8331	507467	0	0
2024-06-11 13:16:32			0	39136	0	0	0	26194	24770	130709	27473	1016015	42059	109700	0	0	8330	507689	0	0
2024-06-11 13:17:32			0	39147	0	0	0	26176	24770	130705	27209	1016015	42037	109693	0	0	8330	507281	0	0
2024-06-11 13:18:32			0	39179	0	0	0	26158	24770	130617	27234	1016077	42048	109686	0	0	8332	506094	0	0
2024-06-11 13:19:32			0	39152	0	0	0	26186	24780	130569	27324	1016112	42038	109697	0	0	8331	507067	0	0
2024-06-11 13:20:32			0	39195	0	0	0	26199	24780	130481	27370	1016059	42038	109702	0	0	8333	505473	0	0
2024-06-11 13:21:32			0	39177	0	0	0	26194	24790	130573	27197	1016129	42061	109700	0	0	8332	506111	0	0
2024-06-11 13:22:32			0	39194	0	0	0	26181	24790	130533	27033	1016076	42061	109695	0	0	8333	505482	0	0
2024-06-11 13:23:32			0	39208	0	0	0	26192	24790	130525	26876	1016103	42028	109699	0	0	8333	504963	0	0
2024-06-11 13:24:32			0	39214	0	0	0	26192	24780	130429	27218	1016094	42039	109699	0	0	8334	504770	0	0
2024-06-11 13:25:32			0	39191	0	0	0	26194	24780	130513	26987	1016201	42028	109700	0	0	8332	505621	0	0
2024-06-11 13:26:32			0	39200	0	0	0	26181	24790	130425	27339	1016138	42061	109695	0	0	8333	505259	0	0
2024-06-11 13:27:32			0	39208	0	0	0	26166	24800	130457	27327	1016120	42050	109689	0	0	8334	504935	0	0
2024-06-11 13:28:32			0	39216	0	0	0	26176	24780	130409	27001	1016041	42039	109693	0	0	8334	504696	0	0
2024-06-11 13:29:32			0	39211	0	0	0	26210	24790	130409	27060	1016111	42061	109706	0	0	8333	504852	0	0
2024-06-11 13:30:32			0	39204	0	0	0	26210	24790	130413	26948	1016192	42049	109706	0	0	8333	505111	0	0
2024-06-11 13:31:32			0	39212	0	0	0	26212	24800	130469	27213	1016200	42040	109707	0	0	8333	504787	0	0
2024-06-11 13:32:32			0	39228	0	0	0	26197	24800	130381	27116	1016155	42051	109701	0	0	8334	504195	0	0
2024-06-11 13:33:32			0	39228	0	0	0	26202	24790	130329	27190	1016192	42061	109703	0	0	8334	504224	0	0
2024-06-11 13:34:32			0	39243	0	0	0	26212	24800	130377	27294	1016235	42063	109707	0	0	8335	503641	0	0
2024-06-11 13:35:32			0	39241	0	0	0	26202	24800	130337	27235	1016173	42040	109703	0	0	8335	503715	0	0
2024-06-11 13:36:32			0	39265	0	0	0	26244	24800	130377	27206	1016235	42030	109719	0	0	8335	502828	0	0
2024-06-11 13:37:32			0	39260	0	0	0	26223	24810	130357	27215	1016298	42041	109711	0	0	8336	502984	0	0
2024-06-11 13:38:32			0	39252	0	0	0	26225	24810	130293	27312	1016298	42041	109712	0	0	8335	503280	0	0
2024-06-11 13:39:32			0	39259	0	0	0	26199	24810	130313	27114	1016306	42052	109702	0	0	8336	503021	0	0
2024-06-11 13:40:32			0	39244	0	0	0	26194	24820	130373	27043	1016261	42041	109700	0	0	8335	503547	0	0
2024-06-11 13:41:32			0	39245	0	0	0	26181	24820	130309	27275	1016288	42041	109695	0	0	8336	503510	0	0
2024-06-11 13:42:32			0	39249	0	0	0	26189	24810	130333	27017	1016244	42051	109698	0	0	8336	503391	0	0
2024-06-11 13:43:32			0	39245	0	0	0	26207	24800	130409	27298	1016227	42040	109705	0	0	8335	503567	0	0
2024-06-11 13:44:32			0	39217	0	0	0	26181	24820	130437	27317	1016181	42041	109695	0	0	8334	504545	0	0
2024-06-11 13:45:32			0	39201	0	0	0	26215	24810	130425	26974	1016298	42041	109708	0	0	8333	505165	0	0
2024-06-11 13:46:32			0	39224	0	0	0	26207	24810	130513	27000	1016253	42041	109705	0	0	8334	504314	0	0
2024-06-11 13:47:32			0	39190	0	0	0	26192	24810	130437	26996	1016226	42063	109699	0	0	8332	505572	0	0
2024-06-11 13:48:32			0	39191	0	0	0	26231	24820	130529	27322	1016261	42075	109714	0	0	8332	505507	0	0
2024-06-11 13:49:32			0	39189	0	0	0	26215	24810	130525	27192	1016244	42030	109708	0	0	8332	505609	0	0
2024-06-11 13:50:32			0	39199	0	0	0	26225	24820	130453	26948	1016297	42053	109712	0	0	8332	505211	0	0
2024-06-11 13:51:32			0	39202	0	0	0	26189	24820	130377	27161	1016315	42063	109698	0	0	8333	505100	0	0
2024-06-11 13:52:32			0	39204	0	0	0	26202	24810	130529	27131	1016271	42041	109703	0	0	8333	505054	0	0
2024-06-11 13:53:32			0	39194	0	0	0	26249	24810	130605	27329	1016333	42041	109721	0	0	8332	505424	0	0
2024-06-11 13:54:32			0	39202	0	0	0	26223	24820	130553	27220	1016369	42075	109711	0	0	8333	505100	0	0
2024-06-11 13:55:32			0	39186	0	0	0	26262	24830	130517	27020	1016386	42065	109726	0	0	8331	505663	0	0
2024-06-11 13:56:32			0	39192	0	0	0	26262	24830	130541	27338	1016359	42032	109726	0	0	8331	505441	0	0
2024-06-11 13:57:32			0	39191	0	0	0	26259	24840	130553	27126	1016403	42065	109725	0	0	8332	505449	0	0
2024-06-11 13:58:32			0	39208	0	0	0	26298	24850	130501	27171	1016500	42067	109740	0	0	8332	504792	0	0
2024-06-11 13:59:32			0	39199	0	0	0	26246	24850	130497	27124	1016474	42067	109720	0	0	8332	505125	0	0
2024-06-11 14:00:32			0	39210	0	0	0	26251	24850	130417	27467	1016455	42044	109722	0	0	8333	504718	0	0
2024-06-11 14:01:32			0	39226	0	0	0	26275	24850	130429	27253	1016509	42044	109731	0	0	8333	504126	0	0
2024-06-11 14:02:32			0	39209	0	0	0	26254	24860	130433	27173	1016464	42044	109723	0	0	8333	504726	0	0
2024-06-11 14:03:32			0	39212	0	0	0	26277	24860	130385	26982	1016544	42044	109732	0	0	8332	504615	0	0
2024-06-11 14:04:32			0	39197	0	0	0	26293	24860	130477	27388	1016598	42056	109738	0	0	8331	505170	0	0
2024-06-11 14:05:32			0	39210	0	0	0	26319	24880	130469	27060	1016632	42058	109748	0	0	8332	504632	0	0
2024-06-11 14:06:32			0	39220	0	0	0	26290	24880	130361	27319	1016659	42058	109737	0	0	8333	504262	0	0
2024-06-11 14:07:32			0	39225	0	0	0	26316	24880	130449	27431	1016632	42069	109747	0	0	8332	504078	0	0
2024-06-11 14:08:32			0	39219	0	0	0	26340	24880	130417	27204	1016641	42081	109756	0	0	8332	504299	0	0
2024-06-11 14:09:32			0	39223	0	0	0	26327	24890	130405	27150	1016685	42060	109751	0	0	8332	504123	0	0
2024-06-11 14:10:32			0	39245	0	0	0	26353	24890	130329	27105	1016738	42049	109761	0	0	8333	503310	0	0
2024-06-11 14:11:32			0	39257	0	0	0	26353	24900	130269	27251	1016800	42060	109761	0	0	8334	502839	0	0
2024-06-11 14:12:32			0	39224	0	0	0	26376	24910	130293	27102	1016817	42083	109770	0	0	8332	504029	0	0
2024-06-11 14:13:32			0	39241	0	0	0	26314	24920	130401	26979	1016781	42074	109746	0	0	8334	503372	0	0
2024-06-11 14:14:32			0	39238	0	0	0	26340	24920	130233	27409	1016772	42062	109756	0	0	8333	503483	0	0
2024-06-11 14:15:32			0	39241	0	0	0	26384	24930	130241	27237	1016923	42051	109773	0	0	8332	503344	0	0
2024-06-11 14:16:32			0	39261	0	0	0	26384	24930	130269	27145	1016932	42074	109773	0	0	8333	502606	0	0
2024-06-11 14:17:32			0	39254	0	0	0	26397	24950	130253	26967	1016985	42064	109778	0	0	8333	502807	0	0
2024-06-11 14:18:32			0	39281	0	0	0	26355	24940	130153	26845	1016950	42064	109762	0	0	8335	501840	0	0
2024-06-11 14:19:32			0	39269	0	0	0	26394	24950	130245	27185	1016958	42064	109777	0	0	8334	502254	0	0
2024-06-11 14:20:32			0	39264	0	0	0	26353	24950	130213	26835	1016993	42076	109761	0	0	8334	502438	0	0
2024-06-11 14:21:32			0	39271	0	0	0	26350	24960	130221	26908	1016948	42055	109760	0	0	8335	502151	0	0
2024-06-11 14:22:32			0	39281	0	0	0	26371	24950	130133	26854	1016967	42054	109768	0	0	8335	501811	0	0
2024-06-11 14:23:32			0	39263	0	0	0	26415	24960	130209	27157	1017064	42078	109785	0	0	8333	502446	0	0
2024-06-11 14:24:32			0	39288	0	0	0	26423	24960	130161	27118	1017064	42078	109788	0	0	8334	501525	0	0
2024-06-11 14:25:32			0	39312	0	0	0	26386	24970	130149	26949	1017073	42088	109774	0	0	8336	500613	0	0
2024-06-11 14:26:32			0	39303	0	0	0	26407	24970	130089	27086	1017046	42067	109782	0	0	8335	500944	0	0
2024-06-11 14:27:32			0	39316	0	0	0	26415	24980	130077	27118	1017143	42068	109785	0	0	8336	500437	0	0
2024-06-11 14:28:32			0	39316	0	0	0	26371	24980	129973	27244	1017090	42079	109768	0	0	8337	500437	0	0
2024-06-11 14:29:32			0	39331	0	0	0	26399	24980	130029	26930	1017045	42090	109779	0	0	8337	499885	0	0
2024-06-11 14:30:32			0	39320	0	0	0	26425	24980	130029	27119	1017045	42080	109789	0	0	8336	500290	0	0
2024-06-11 14:31:32			0	39321	0	0	0	26451	24980	129973	27036	1017232	42057	109799	0	0	8336	500253	0	0
2024-06-11 14:32:32			0	39329	0	0	0	26454	24990	129929	27320	1017276	42080	109800	0	0	8336	499931	0	0
2024-06-11 14:33:32			0	39351	0	0	0	26454	25000	129917	27001	1017293	42059	109800	0	0	8337	499094	0	0
2024-06-11 14:34:32			0	39332	0	0	0	26431	25010	130045	27029	1017329	42070	109791	0	0	8337	499764	0	0
2024-06-11 14:35:32			0	39327	0	0	0	26529	25010	130041	27013	1017338	42082	109829	0	0	8335	499948	0	0
2024-06-11 14:36:32			0	39365	0	0	0	26496	25040	129841	27076	1017470	42074	109816	0	0	8337	498467	0	0
2024-06-11 14:37:32			0	39416	0	0	0	26462	25040	129765	27305	1017407	42083	109803	0	0	8341	496597	0	0
2024-06-11 14:38:32			0	39453	0	0	0	26485	25040	129622	27048	1017470	42074	109812	0	0	8342	495243	0	0
2024-06-11 14:39:32			0	39475	0	0	0	26444	25050	129510	27241	1017425	42085	109796	0	0	8344	494411	0	0
2024-06-11 14:40:32			0	39480	0	0	0	26438	25040	129550	26896	1017389	42084	109794	0	0	8344	494256	0	0
2024-06-11 14:41:32			0	39496	0	0	0	26501	25050	129494	27024	1017398	42097	109818	0	0	8344	493644	0	0
2024-06-11 14:42:32			0	39513	0	0	0	26509	25050	129486	27161	1017541	42085	109821	0	0	8345	493023	0	0
2024-06-11 14:43:32			0	39465	0	0	0	26480	25060	129598	26937	1017522	42097	109810	0	0	8343	494748	0	0
2024-06-11 14:44:32			0	39469	0	0	0	26485	25070	129582	27168	1017513	42077	109812	0	0	8343	494574	0	0
2024-06-11 14:45:32			0	39483	0	0	0	26501	25070	129646	26793	1017486	42110	109818	0	0	8343	494062	0	0
2024-06-11 14:46:32			0	39479	0	0	0	26519	25060	129582	27135	1017558	42086	109825	0	0	8343	494236	0	0
2024-06-11 14:47:32			0	39503	0	0	0	26514	25080	129562	27203	1017646	42066	109823	0	0	8344	493304	0	0
2024-06-11 14:48:32			0	39487	0	0	0	26563	25080	129618	26958	1017726	42088	109842	0	0	8343	493888	0	0
2024-06-11 14:49:32			0	39499	0	0	0	26542	25100	129590	27241	1017725	42090	109834	0	0	8344	493394	0	0
2024-06-11 14:50:32			0	39474	0	0	0	26542	25090	129522	27159	1017716	42090	109834	0	0	8342	494335	0	0
2024-06-11 14:51:32			0	39494	0	0	0	26522	25110	129642	27246	1017742	42080	109826	0	0	8344	493549	0	0
2024-06-11 14:52:32			0	39489	0	0	0	26509	25120	129486	27076	1017652	42081	109821	0	0	8344	493703	0	0
2024-06-11 14:53:32			0	39529	0	0	0	26503	25110	129382	27209	1017697	42081	109819	0	0	8346	492272	0	0
2024-06-11 14:54:32			0	39535	0	0	0	26519	25110	129342	27263	1017715	42091	109825	0	0	8346	492054	0	0
2024-06-11 14:55:32			0	39525	0	0	0	26511	25100	129362	27189	1017698	42079	109822	0	0	8346	492446	0	0
2024-06-11 14:56:32			0	39536	0	0	0	26532	25110	129318	27209	1017697	42092	109830	0	0	8346	492017	0	0
2024-06-11 14:57:32			0	39532	0	0	0	26537	25120	129350	27175	1017732	42103	109832	0	0	8346	492135	0	0
2024-06-11 14:58:32			0	39522	0	0	0	26527	25120	129394	27239	1017706	42103	109828	0	0	8345	492500	0	0
2024-06-11 14:59:32			0	39514	0	0	0	26540	25120	129434	27071	1017706	42103	109833	0	0	8345	492791	0	0
2024-06-11 15:00:32			0	39479	0	0	0	26540	25110	129470	27111	1017777	42103	109833	0	0	8343	494096	0	0
2024-06-11 15:01:32			0	39499	0	0	0	26553	25130	129458	26925	1017839	42105	109838	0	0	8344	493310	0	0
2024-06-11 15:02:32			0	39508	0	0	0	26555	25130	129554	27090	1017830	42104	109839	0	0	8344	492982	0	0
2024-06-11 15:03:32			0	39495	0	0	0	26545	25130	129470	27083	1017865	42094	109835	0	0	8344	493456	0	0
2024-06-11 15:04:32			0	39479	0	0	0	26553	25130	129474	26870	1017830	42093	109838	0	0	8343	494040	0	0
2024-06-11 15:05:32			0	39494	0	0	0	26550	25150	129378	27026	1017864	42094	109837	0	0	8343	493437	0	0
2024-06-11 15:06:32			0	39518	0	0	0	26545	25130	129434	27131	1017830	42093	109835	0	0	8345	492617	0	0
2024-06-11 15:07:32			0	39504	0	0	0	26566	25140	129450	27097	1017883	42094	109843	0	0	8344	493100	0	0
2024-06-11 15:08:32			0	39496	0	0	0	26574	25140	129498	27152	1017909	42105	109846	0	0	8343	493392	0	0
2024-06-11 15:09:32			0	39494	0	0	0	26568	25150	129474	26934	1017945	42106	109844	0	0	8343	493437	0	0
2024-06-11 15:10:32			0	39510	0	0	0	26589	25150	129526	27352	1017998	42094	109852	0	0	8344	492853	0	0
2024-06-11 15:11:32			0	39486	0	0	0	26597	25140	129454	26935	1017990	42083	109855	0	0	8342	493757	0	0
2024-06-11 15:12:32			0	39520	0	0	0	26615	25160	129354	27060	1018042	42118	109862	0	0	8344	492461	0	0
2024-06-11 15:13:32			0	39540	0	0	0	26625	25170	129350	27048	1018121	42109	109866	0	0	8345	491704	0	0
2024-06-11 15:14:32			0	39535	0	0	0	26641	25170	129270	27067	1018202	42109	109872	0	0	8344	491886	0	0
2024-06-11 15:15:32			0	39538	0	0	0	26651	25200	129362	27189	1018245	42111	109876	0	0	8344	491693	0	0
2024-06-11 15:16:32			0	39572	0	0	0	26664	25200	129362	26909	1018245	42111	109881	0	0	8346	490457	0	0
2024-06-11 15:17:32			0	39583	0	0	0	26636	25200	129206	26930	1018272	42111	109870	0	0	8347	490057	0	0
2024-06-11 15:18:32			0	39560	0	0	0	26641	25210	129138	27053	1018280	42100	109872	0	0	8346	490865	0	0
2024-06-11 15:19:32			0	39619	0	0	0	26657	25230	129102	27098	1018288	42113	109878	0	0	8348	488667	0	0
2024-06-11 15:20:32			0	39650	0	0	0	26649	25220	129042	27067	1018333	42090	109875	0	0	8350	487571	0	0
2024-06-11 15:21:32			0	39660	0	0	0	26618	25220	128870	26680	1018271	42112	109863	0	0	8351	487208	0	0
2024-06-11 15:22:32			0	39698	0	0	0	26607	25230	128854	27126	1018288	42113	109859	0	0	8353	485806	0	0
2024-06-11 15:23:32			0	39706	0	0	0	26610	25230	128786	27154	1018270	42103	109860	0	0	8354	485517	0	0
2024-06-11 15:24:32			0	39732	0	0	0	26623	25220	128658	27107	1018253	42102	109865	0	0	8355	484605	0	0
2024-06-11 15:25:32			0	39756	0	0	0	26607	25220	128586	26982	1018253	42102	109859	0	0	8356	483739	0	0
2024-06-11 15:26:32			0	39775	0	0	0	26615	25210	128602	26873	1018209	42100	109862	0	0	8357	483081	0	0
2024-06-11 15:27:32			0	39756	0	0	0	26651	25210	128642	27100	1018316	42111	109876	0	0	8356	483767	0	0
2024-06-11 15:28:32			0	39742	0	0	0	26651	25230	128698	26823	1018288	42124	109876	0	0	8355	484217	0	0
2024-06-11 15:29:32			0	39696	0	0	0	26636	25230	128794	27109	1018315	42102	109870	0	0	8353	485878	0	0
2024-06-11 15:30:32			0	39706	0	0	0	26636	25230	128778	27007	1018323	42103	109870	0	0	8353	485517	0	0
2024-06-11 15:31:32			0	39688	0	0	0	26641	25230	128838	27052	1018323	42103	109872	0	0	8352	486167	0	0
2024-06-11 15:32:32			0	39700	0	0	0	26631	25230	128930	27015	1018288	42113	109868	0	0	8353	485733	0	0
2024-06-11 15:33:32			0	39690	0	0	0	26628	25240	128886	26762	1018332	42103	109867	0	0	8353	486068	0	0
2024-06-11 15:34:32			0	39652	0	0	0	26644	25230	128902	26975	1018297	42091	109873	0	0	8350	487470	0	0
2024-06-11 15:35:32			0	39672	0	0	0	26646	25240	128894	27222	1018386	42103	109874	0	0	8351	486719	0	0
2024-06-11 15:36:32			0	39669	0	0	0	26649	25240	128922	27107	1018305	42114	109875	0	0	8351	486827	0	0
2024-06-11 15:37:32			0	39676	0	0	0	26644	25240	128894	26928	1018341	42103	109873	0	0	8352	486574	0	0
2024-06-11 15:38:32			0	39673	0	0	0	26651	25250	128930	27069	1018376	42103	109876	0	0	8351	486655	0	0
2024-06-11 15:39:32			0	39699	0	0	0	26659	25250	128850	26899	1018403	42103	109879	0	0	8353	485715	0	0
2024-06-11 15:40:32			0	39690	0	0	0	26664	25250	128786	27001	1018456	42103	109881	0	0	8352	486040	0	0
2024-06-11 15:41:32			0	39691	0	0	0	26654	25250	128770	26876	1018349	42115	109877	0	0	8352	486004	0	0
2024-06-11 15:42:32			0	39685	0	0	0	26659	25250	128954	27057	1018403	42103	109879	0	0	8352	486221	0	0
2024-06-11 15:43:32			0	39681	0	0	0	26662	25250	128958	26814	1018385	42104	109880	0	0	8352	486365	0	0
2024-06-11 15:44:32			0	39672	0	0	0	26667	25250	128950	26670	1018438	42116	109882	0	0	8351	486691	0	0
2024-06-11 15:45:32			0	39675	0	0	0	26677	25260	128862	26925	1018474	42104	109886	0	0	8351	486555	0	0
2024-06-11 15:46:32			0	39692	0	0	0	26675	25260	128770	27206	1018455	42105	109885	0	0	8352	485940	0	0
2024-06-11 15:47:32			0	39741	0	0	0	26667	25260	128782	27234	1018420	42116	109882	0	0	8355	484170	0	0
2024-06-11 15:48:32			0	39757	0	0	0	26683	25270	128702	26745	1018544	42117	109888	0	0	8355	483566	0	0
2024-06-11 15:49:32			0	39772	0	0	0	26688	25260	128622	27090	1018509	42117	109890	0	0	8356	483052	0	0
2024-06-11 15:50:32			0	39779	0	0	0	26693	25270	128574	26762	1018571	42083	109892	0	0	8356	482773	0	0
2024-06-11 15:51:32			0	39777	0	0	0	26698	25270	128566	26928	1018544	42117	109894	0	0	8356	482845	0	0
2024-06-11 15:52:32			0	39792	0	0	0	26711	25270	128514	26852	1018544	42127	109899	0	0	8357	482305	0	0
2024-06-11 15:53:32			0	39785	0	0	0	26706	25280	128522	27057	1018624	42118	109897	0	0	8356	482529	0	0
2024-06-11 15:54:32			0	39804	0	0	0	26722	25280	128466	26791	1018650	42118	109903	0	0	8357	481845	0	0
2024-06-11 15:55:32			0	39789	0	0	0	26709	25290	128514	27216	1018659	42107	109898	0	0	8357	482358	0	0
2024-06-11 15:56:32			0	39792	0	0	0	26683	25290	128482	27043	1018579	42118	109888	0	0	8357	482250	0	0
2024-06-11 15:57:32			0	39782	0	0	0	26690	25280	128426	27083	1018597	42118	109891	0	0	8357	482637	0	0
2024-06-11 15:58:32			0	39781	0	0	0	26688	25290	128410	27150	1018587	42108	109890	0	0	8357	482646	0	0
2024-06-11 15:59:32			0	39804	0	0	0	26696	25290	128442	26863	1018605	42118	109893	0	0	8358	481818	0	0
2024-06-11 16:00:32			0	39784	0	0	0	26703	25290	128526	26885	1018587	42108	109896	0	0	8356	482538	0	0
2024-06-11 16:01:32			0	39786	0	0	0	26709	25300	128558	26994	1018685	42109	109898	0	0	8356	482439	0	0
2024-06-11 16:02:32			0	39780	0	0	0	26709	25290	128590	26883	1018641	42097	109898	0	0	8356	482682	0	0
2024-06-11 16:03:32			0	39768	0	0	0	26735	25290	128598	27086	1018641	42108	109908	0	0	8355	483114	0	0
2024-06-11 16:04:32			0	39756	0	0	0	26727	25300	128634	26694	1018703	42131	109905	0	0	8355	483519	0	0
2024-06-11 16:05:32			0	39769	0	0	0	26732	25310	128674	27020	1018720	42121	109907	0	0	8355	483023	0	0
2024-06-11 16:06:32			0	39776	0	0	0	26742	25310	128514	26974	1018720	42121	109911	0	0	8355	482771	0	0
2024-06-11 16:07:32			0	39784	0	0	0	26748	25310	128642	26902	1018783	42110	109913	0	0	8356	482483	0	0
2024-06-11 16:08:32			0	39777	0	0	0	26716	25320	128606	26693	1018746	42132	109901	0	0	8356	482708	0	0
2024-06-11 16:09:32			0	39791	0	0	0	26711	25330	128558	26887	1018755	42133	109899	0	0	8357	482176	0	0
2024-06-11 16:10:32			0	39757	0	0	0	26706	25310	128558	26913	1018675	42132	109897	0	0	8355	483456	0	0
2024-06-11 16:11:32			0	39803	0	0	0	26680	25310	128494	27232	1018675	42121	109887	0	0	8358	481799	0	0
2024-06-11 16:12:32			0	39785	0	0	0	26670	25300	128422	27140	1018649	42109	109883	0	0	8357	482475	0	0
2024-06-11 16:13:32			0	39782	0	0	0	26672	25300	128418	26897	1018632	42086	109884	0	0	8357	482583	0	0
2024-06-11 16:14:32			0	39808	0	0	0	26654	25290	128542	27171	1018605	42096	109877	0	0	8359	481674	0	0
2024-06-11 16:15:32			0	39793	0	0	0	26636	25290	128442	27126	1018534	42130	109870	0	0	8358	482214	0	0
2024-06-11 16:16:32			0	39800	0	0	0	26615	25290	128438	27017	1018471	42096	109862	0	0	8359	481962	0	0
2024-06-11 16:17:32			0	39806	0	0	0	26625	25270	128446	27045	1018419	42106	109866	0	0	8359	481801	0	0
2024-06-11 16:18:32			0	39777	0	0	0	26646	25270	128418	27163	1018446	42084	109874	0	0	8357	482845	0	0
2024-06-11 16:19:32			0	39786	0	0	0	26654	25260	128398	27267	1018402	42094	109877	0	0	8357	482548	0	0
2024-06-11 16:20:32			0	39778	0	0	0	26651	25270	128402	26925	1018491	42105	109876	0	0	8357	482809	0	0
2024-06-11 16:21:32			0	39806	0	0	0	26657	25270	128414	26844	1018437	42117	109878	0	0	8358	481801	0	0
2024-06-11 16:22:32			0	39804	0	0	0	26657	25270	128410	27050	1018464	42105	109878	0	0	8358	481873	0	0
2024-06-11 16:23:32			0	39799	0	0	0	26662	25270	128326	27029	1018499	42118	109880	0	0	8358	482053	0	0
2024-06-11 16:24:32			0	39811	0	0	0	26670	25270	128334	27187	1018464	42105	109883	0	0	8358	481621	0	0
2024-06-11 16:25:32			0	39810	0	0	0	26680	25280	128342	27183	1018561	42107	109887	0	0	8358	481630	0	0
2024-06-11 16:26:32			0	39821	0	0	0	26688	25280	128366	27180	1018481	42118	109890	0	0	8359	481234	0	0
2024-06-11 16:27:32			0	39836	0	0	0	26696	25290	128358	27088	1018605	42118	109893	0	0	8359	480668	0	0
2024-06-11 16:28:32			0	39832	0	0	0	26696	25280	128314	26821	1018597	42107	109893	0	0	8359	480839	0	0
2024-06-11 16:29:32			0	39830	0	0	0	26698	25290	128322	26993	1018552	42118	109894	0	0	8359	480883	0	0
2024-06-11 16:30:32			0	39854	0	0	0	26696	25290	128226	26798	1018641	42119	109893	0	0	8360	480021	0	0
2024-06-11 16:31:32			0	39868	0	0	0	26698	25290	128314	27046	1018632	42118	109894	0	0	8361	479519	0	0
2024-06-11 16:32:32			0	39879	0	0	0	26698	25290	128290	27029	1018641	42097	109894	0	0	8361	479124	0	0
2024-06-11 16:33:32			0	39859	0	0	0	26706	25300	128202	27149	1018703	42098	109897	0	0	8360	479814	0	0
2024-06-11 16:34:32			0	39861	0	0	0	26706	25290	128314	26982	1018686	42118	109897	0	0	8360	479770	0	0
2024-06-11 16:35:32			0	39860	0	0	0	26714	25300	128306	26844	1018658	42120	109900	0	0	8360	479778	0	0
2024-06-11 16:36:32			0	39863	0	0	0	26714	25300	128206	26887	1018649	42098	109900	0	0	8360	479671	0	0
2024-06-11 16:37:32			0	39884	0	0	0	26716	25300	128222	27150	1018730	42109	109901	0	0	8361	478917	0	0
2024-06-11 16:38:32			0	39865	0	0	0	26711	25300	128158	27026	1018676	42109	109899	0	0	8361	479599	0	0
2024-06-11 16:39:32			0	39883	0	0	0	26716	25310	128290	26915	1018667	42132	109901	0	0	8361	478926	0	0
2024-06-11 16:40:32			0	39882	0	0	0	26719	25310	128210	26833	1018720	42110	109902	0	0	8361	478962	0	0
2024-06-11 16:41:32			0	39876	0	0	0	26722	25310	128154	26668	1018756	42110	109903	0	0	8361	479177	0	0
2024-06-11 16:42:32			0	39870	0	0	0	26722	25310	128242	26986	1018729	42121	109903	0	0	8361	479392	0	0
2024-06-11 16:43:32			0	39863	0	0	0	26716	25310	128094	26864	1018801	42121	109901	0	0	8360	479644	0	0
2024-06-11 16:44:32			0	39856	0	0	0	26729	25310	128206	27281	1018747	42110	109906	0	0	8360	479895	0	0
2024-06-11 16:45:32			0	39864	0	0	0	26737	25320	128262	27144	1018800	42099	109909	0	0	8360	479580	0	0
2024-06-11 16:46:32			0	39852	0	0	0	26735	25320	128274	26967	1018800	42099	109908	0	0	8360	480011	0	0
2024-06-11 16:47:32			0	39834	0	0	0	26732	25320	128246	26689	1018791	42122	109907	0	0	8359	480657	0	0
2024-06-11 16:48:32			0	39845	0	0	0	26742	25320	128278	26849	1018818	42111	109911	0	0	8359	480262	0	0
2024-06-11 16:49:32			0	39846	0	0	0	26742	25330	128242	27085	1018835	42112	109911	0	0	8359	480199	0	0
2024-06-11 16:50:32			0	39837	0	0	0	26742	25330	128234	27052	1018835	42112	109911	0	0	8359	480522	0	0
2024-06-11 16:51:32			0	39834	0	0	0	26745	25340	128322	27194	1018852	42124	109912	0	0	8359	480603	0	0
2024-06-11 16:52:32			0	39834	0	0	0	26735	25340	128246	26956	1018826	42124	109908	0	0	8359	480603	0	0
2024-06-11 16:53:32			0	39829	0	0	0	26758	25340	128186	27183	1018852	42113	109917	0	0	8358	480783	0	0
2024-06-11 16:54:32			0	39821	0	0	0	26758	25330	128326	27133	1018817	42123	109917	0	0	8358	481097	0	0
2024-06-11 16:55:32			0	39813	0	0	0	26761	25340	128426	27260	1018888	42125	109918	0	0	8357	481358	0	0
2024-06-11 16:56:32			0	39818	0	0	0	26758	25340	128470	27005	1018861	42125	109917	0	0	8357	481178	0	0
2024-06-11 16:57:32			0	39794	0	0	0	26761	25340	128406	27007	1018968	42114	109918	0	0	8356	482041	0	0
2024-06-11 16:58:32			0	39779	0	0	0	26755	25350	128370	27203	1018950	42102	109916	0	0	8356	482554	0	0
2024-06-11 16:59:32			0	39791	0	0	0	26753	25350	128426	27026	1018896	42102	109915	0	0	8356	482122	0	0
2024-06-11 17:00:32			0	39766	0	0	0	26766	25350	128418	27358	1018959	42135	109920	0	0	8355	483022	0	0
2024-06-11 17:01:32			0	39773	0	0	0	26768	25370	128474	27150	1019011	42115	109921	0	0	8355	482715	0	0
2024-06-11 17:02:32			0	39773	0	0	0	26771	25350	128450	27152	1018959	42125	109922	0	0	8355	482770	0	0
2024-06-11 17:03:32			0	39757	0	0	0	26755	25370	128494	27065	1019011	42104	109916	0	0	8354	483291	0	0
2024-06-11 17:04:32			0	39764	0	0	0	26766	25360	128534	26859	1018940	42114	109920	0	0	8355	483066	0	0
2024-06-11 17:05:32			0	39742	0	0	0	26779	25370	128590	27121	1018984	42115	109925	0	0	8353	483832	0	0
2024-06-11 17:06:32			0	39746	0	0	0	26781	25370	128546	27300	1019038	42115	109926	0	0	8353	483688	0	0
2024-06-11 17:07:32			0	39730	0	0	0	26781	25370	128450	26882	1019011	42104	109926	0	0	8353	484265	0	0
2024-06-11 17:08:32			0	39742	0	0	0	26771	25370	128634	27109	1019020	42137	109922	0	0	8353	483832	0	0
2024-06-11 17:09:32			0	39726	0	0	0	26771	25370	128558	26850	1019011	42093	109922	0	0	8353	484409	0	0
2024-06-11 17:10:32			0	39719	0	0	0	26776	25380	128650	26816	1018983	42117	109924	0	0	8352	484634	0	0
2024-06-11 17:11:32			0	39704	0	0	0	26776	25380	128514	26871	1018948	42116	109924	0	0	8351	485175	0	0
2024-06-11 17:12:32			0	39717	0	0	0	26763	25370	128538	27069	1018993	42115	109919	0	0	8352	484734	0	0
2024-06-11 17:13:32			0	39735	0	0	0	26755	25380	128574	27005	1018948	42127	109916	0	0	8353	484057	0	0
2024-06-11 17:14:32			0	39750	0	0	0	26758	25370	128562	26875	1018931	42093	109917	0	0	8354	483543	0	0
2024-06-11 17:15:32			0	39741	0	0	0	26755	25370	128542	26805	1018904	42115	109916	0	0	8354	483868	0	0
2024-06-11 17:16:32			0	39761	0	0	0	26740	25370	128498	26911	1018984	42126	109910	0	0	8355	483147	0	0
2024-06-11 17:17:32			0	39765	0	0	0	26753	25370	128474	27029	1018984	42093	109915	0	0	8355	483003	0	0
2024-06-11 17:18:32			0	39770	0	0	0	26742	25380	128462	26833	1019001	42127	109911	0	0	8355	482795	0	0
2024-06-11 17:19:32			0	39781	0	0	0	26740	25370	128410	26883	1018958	42115	109910	0	0	8356	482427	0	0
2024-06-11 17:20:32			0	39773	0	0	0	26735	25360	128402	26715	1018940	42125	109908	0	0	8356	482742	0	0
2024-06-11 17:21:32			0	39795	0	0	0	26742	25350	128414	26651	1018977	42135	109911	0	0	8357	481978	0	0
2024-06-11 17:22:32			0	39786	0	0	0	26748	25350	128390	27235	1018985	42125	109913	0	0	8356	482302	0	0
2024-06-11 17:23:32			0	39790	0	0	0	26761	25350	128438	27031	1018950	42114	109918	0	0	8356	482158	0	0
2024-06-11 17:24:32			0	39800	0	0	0	26766	25360	128358	27237	1018940	42114	109920	0	0	8356	481770	0	0
2024-06-11 17:25:32			0	39809	0	0	0	26742	25350	128326	26790	1018932	42135	109911	0	0	8357	481474	0	0
2024-06-11 17:26:32			0	39806	0	0	0	26750	25350	128334	26840	1018932	42114	109914	0	0	8357	481582	0	0
2024-06-11 17:27:32			0	39804	0	0	0	26742	25360	128314	27003	1018976	42115	109911	0	0	8357	481627	0	0
2024-06-11 17:28:32			0	39822	0	0	0	26732	25360	128298	26840	1018860	42125	109907	0	0	8358	480979	0	0
2024-06-11 17:29:32			0	39824	0	0	0	26727	25350	128326	26776	1018825	42125	109905	0	0	8358	480935	0	0
2024-06-11 17:30:32			0	39827	0	0	0	26724	25350	128270	26772	1018878	42091	109904	0	0	8359	480827	0	0
2024-06-11 17:31:32			0	39849	0	0	0	26716	25350	128366	27138	1018843	42125	109901	0	0	8360	480037	0	0
2024-06-11 17:32:32			0	39838	0	0	0	26729	25340	128302	26928	1018834	42114	109906	0	0	8359	480459	0	0
2024-06-11 17:33:32			0	39857	0	0	0	26724	25330	128314	27130	1018808	42123	109904	0	0	8360	479804	0	0
2024-06-11 17:34:32			0	39872	0	0	0	26732	25350	128286	26837	1018843	42135	109907	0	0	8361	479212	0	0
2024-06-11 17:35:32			0	39863	0	0	0	26732	25330	128362	27060	1018844	42123	109907	0	0	8360	479589	0	0
2024-06-11 17:36:32			0	39847	0	0	0	26735	25340	128258	27043	1018915	42114	109908	0	0	8359	480136	0	0
2024-06-11 17:37:32			0	39870	0	0	0	26727	25340	128246	27183	1018834	42114	109905	0	0	8361	479311	0	0
2024-06-11 17:38:32			0	39873	0	0	0	26722	25340	128126	26861	1018852	42113	109903	0	0	8361	479203	0	0
2024-06-11 17:39:32			0	39874	0	0	0	26732	25340	128270	26918	1018852	42113	109907	0	0	8361	479167	0	0
2024-06-11 17:40:32			0	39888	0	0	0	26729	25340	128178	27128	1018826	42101	109906	0	0	8362	478665	0	0
2024-06-11 17:41:32			0	39875	0	0	0	26729	25330	128190	27041	1018817	42112	109906	0	0	8361	479158	0	0
2024-06-11 17:42:32			0	39877	0	0	0	26724	25330	128186	27013	1018808	42123	109904	0	0	8361	479087	0	0
2024-06-11 17:43:32			0	39856	0	0	0	26724	25330	128222	26746	1018871	42112	109904	0	0	8360	479840	0	0
2024-06-11 17:44:32			0	39870	0	0	0	26724	25330	128198	27078	1018782	42112	109904	0	0	8361	479338	0	0
2024-06-11 17:45:32			0	39873	0	0	0	26735	25330	128258	27026	1018790	42133	109908	0	0	8361	479230	0	0
2024-06-11 17:46:32			0	39864	0	0	0	26724	25330	128330	27267	1018817	42123	109904	0	0	8360	479553	0	0
2024-06-11 17:47:32			0	39849	0	0	0	26716	25330	128298	26920	1018835	42112	109901	0	0	8360	480092	0	0
2024-06-11 17:48:32			0	39851	0	0	0	26714	25330	128310	27208	1018844	42112	109900	0	0	8360	480020	0	0
2024-06-11 17:49:32			0	39844	0	0	0	26719	25320	128302	26939	1018764	42122	109902	0	0	8359	480298	0	0
2024-06-11 17:50:32			0	39821	0	0	0	26722	25330	128330	27015	1018755	42100	109903	0	0	8358	481097	0	0
2024-06-11 17:51:32			0	39825	0	0	0	26719	25330	128374	27261	1018808	42123	109902	0	0	8358	480954	0	0
2024-06-11 17:52:32			0	39835	0	0	0	26716	25320	128338	27178	1018800	42122	109901	0	0	8359	480622	0	0
2024-06-11 17:53:32			0	39832	0	0	0	26711	25320	128354	26904	1018773	42111	109899	0	0	8359	480729	0	0
2024-06-11 17:54:32			0	39813	0	0	0	26711	25320	128490	27104	1018773	42122	109899	0	0	8358	481412	0	0
2024-06-11 17:55:32			0	39789	0	0	0	26714	25330	128418	27007	1018755	42112	109900	0	0	8357	482248	0	0
2024-06-11 17:56:32			0	39802	0	0	0	26714	25320	128430	27072	1018764	42132	109900	0	0	8357	481808	0	0
2024-06-11 17:57:32			0	39792	0	0	0	26716	25310	128486	27222	1018774	42121	109901	0	0	8357	482195	0	0
2024-06-11 17:58:32			0	39797	0	0	0	26716	25320	128518	27331	1018791	42111	109901	0	0	8357	481988	0	0
2024-06-11 17:59:32			0	39782	0	0	0	26709	25310	128478	27083	1018729	42121	109898	0	0	8356	482555	0	0
2024-06-11 18:00:32			0	39781	0	0	0	26709	25310	128474	27074	1018756	42121	109898	0	0	8356	482591	0	0
2024-06-11 18:01:32			0	39772	0	0	0	26701	25310	128530	26781	1018702	42121	109895	0	0	8356	482915	0	0
2024-06-11 18:02:32			0	39792	0	0	0	26696	25310	128478	27246	1018694	42110	109893	0	0	8357	482195	0	0
2024-06-11 18:03:32			0	39770	0	0	0	26690	25310	128570	26979	1018694	42121	109891	0	0	8356	482987	0	0
2024-06-11 18:04:32			0	39775	0	0	0	26696	25300	128522	26844	1018632	42109	109893	0	0	8356	482835	0	0
2024-06-11 18:05:32			0	39761	0	0	0	26685	25300	128602	27027	1018649	42120	109889	0	0	8356	483339	0	0
2024-06-11 18:06:32			0	39771	0	0	0	26685	25300	128562	27130	1018685	42120	109889	0	0	8356	482979	0	0
2024-06-11 18:07:32			0	39759	0	0	0	26688	25290	128566	27170	1018659	42107	109890	0	0	8355	483439	0	0
2024-06-11 18:08:32			0	39770	0	0	0	26696	25300	128498	27057	1018676	42098	109893	0	0	8356	483015	0	0
2024-06-11 18:09:32			0	39774	0	0	0	26693	25290	128578	26928	1018668	42119	109892	0	0	8356	482898	0	0
2024-06-11 18:10:32			0	39766	0	0	0	26685	25300	128582	26720	1018649	42120	109889	0	0	8356	483159	0	0
2024-06-11 18:11:32			0	39777	0	0	0	26685	25290	128530	26965	1018641	42108	109889	0	0	8356	482790	0	0
2024-06-11 18:12:32			0	39764	0	0	0	26693	25300	128514	27012	1018596	42120	109892	0	0	8356	483231	0	0
2024-06-11 18:13:32			0	39784	0	0	0	26685	25290	128650	26968	1018641	42119	109889	0	0	8357	482538	0	0
2024-06-11 18:14:32			0	39778	0	0	0	26683	25300	128662	26987	1018703	42131	109888	0	0	8357	482727	0	0
2024-06-11 18:15:32			0	39773	0	0	0	26685	25290	128526	26835	1018605	42129	109889	0	0	8356	482934	0	0
2024-06-11 18:16:32			0	39780	0	0	0	26680	25300	128606	27194	1018596	42098	109887	0	0	8357	482655	0	0
2024-06-11 18:17:32			0	39765	0	0	0	26683	25290	128582	27111	1018659	42107	109888	0	0	8356	483222	0	0
2024-06-11 18:18:32			0	39767	0	0	0	26685	25290	128510	27284	1018659	42118	109889	0	0	8356	483150	0	0
2024-06-11 18:19:32			0	39767	0	0	0	26683	25290	128554	27185	1018668	42108	109888	0	0	8356	483150	0	0
2024-06-11 18:20:32			0	39775	0	0	0	26677	25290	128502	27291	1018605	42084	109886	0	0	8356	482862	0	0
2024-06-11 18:21:32			0	39787	0	0	0	26688	25290	128530	27164	1018659	42107	109890	0	0	8357	482430	0	0
2024-06-11 18:22:32			0	39763	0	0	0	26677	25290	128522	27234	1018632	42129	109886	0	0	8356	483294	0	0
2024-06-11 18:23:32			0	39775	0	0	0	26672	25280	128534	26942	1018624	42107	109884	0	0	8356	482889	0	0
2024-06-11 18:24:32			0	39790	0	0	0	26670	25290	128522	26948	1018605	42118	109883	0	0	8357	482322	0	0
2024-06-11 18:25:32			0	39796	0	0	0	26670	25290	128478	27239	1018605	42118	109883	0	0	8358	482106	0	0
2024-06-11 18:26:32			0	39793	0	0	0	26680	25280	128494	26930	1018597	42118	109887	0	0	8357	482241	0	0
2024-06-11 18:27:32			0	39795	0	0	0	26688	25280	128530	27208	1018624	42118	109890	0	0	8357	482169	0	0
2024-06-11 18:28:32			0	39821	0	0	0	26693	25280	128514	27213	1018704	42129	109892	0	0	8358	481234	0	0
2024-06-11 18:29:32			0	39807	0	0	0	26696	25280	128510	26863	1018624	42084	109893	0	0	8358	481738	0	0
2024-06-11 18:30:32			0	39797	0	0	0	26696	25280	128534	26930	1018624	42118	109893	0	0	8357	482097	0	0
2024-06-11 18:31:32			0	39807	0	0	0	26685	25280	128526	27178	1018615	42129	109889	0	0	8358	481738	0	0
2024-06-11 18:32:32			0	39818	0	0	0	26696	25290	128442	27197	1018659	42129	109893	0	0	8358	481314	0	0
2024-06-11 18:33:32			0	39815	0	0	0	26696	25290	128478	26953	1018694	42108	109893	0	0	8358	481422	0	0
2024-06-11 18:34:32			0	39841	0	0	0	26701	25280	128346	27379	1018588	42118	109895	0	0	8359	480515	0	0
2024-06-11 18:35:32			0	39816	0	0	0	26690	25290	128402	27157	1018641	42085	109891	0	0	8358	481386	0	0
2024-06-11 18:36:32			0	39825	0	0	0	26690	25300	128406	27109	1018676	42120	109891	0	0	8359	481036	0	0
2024-06-11 18:37:32			0	39810	0	0	0	26696	25300	128338	26880	1018649	42120	109893	0	0	8358	481575	0	0
2024-06-11 18:38:32			0	39823	0	0	0	26683	25280	128390	26868	1018615	42118	109888	0	0	8359	481162	0	0
2024-06-11 18:39:32			0	39816	0	0	0	26680	25280	128330	26890	1018561	42129	109887	0	0	8358	481414	0	0
2024-06-11 18:40:32			0	39835	0	0	0	26683	25290	128338	27046	1018605	42107	109888	0	0	8359	480703	0	0
2024-06-11 18:41:32			0	39844	0	0	0	26672	25280	128378	27190	1018624	42118	109884	0	0	8360	480407	0	0
2024-06-11 18:42:32			0	39852	0	0	0	26677	25280	128390	27074	1018543	42107	109886	0	0	8360	480120	0	0
2024-06-11 18:43:32			0	39860	0	0	0	26685	25280	128374	26963	1018588	42118	109889	0	0	8361	479833	0	0
2024-06-11 18:44:32			0	39840	0	0	0	26683	25290	128306	26974	1018632	42107	109888	0	0	8360	480524	0	0
2024-06-11 18:45:32			0	39862	0	0	0	26675	25280	128274	27137	1018597	42118	109885	0	0	8361	479761	0	0
2024-06-11 18:46:32			0	39851	0	0	0	26680	25280	128314	27085	1018516	42118	109887	0	0	8360	480156	0	0
2024-06-11 18:47:32			0	39876	0	0	0	26683	25280	128194	27015	1018543	42129	109888	0	0	8362	479259	0	0
2024-06-11 18:48:32			0	39869	0	0	0	26675	25280	128246	27131	1018588	42118	109885	0	0	8361	479510	0	0
2024-06-11 18:49:32			0	39895	0	0	0	26670	25270	128230	27249	1018598	42105	109883	0	0	8363	478605	0	0
2024-06-11 18:50:32			0	39899	0	0	0	26657	25270	128198	27142	1018499	42118	109878	0	0	8363	478461	0	0
2024-06-11 18:51:32			0	39892	0	0	0	26662	25270	128130	27059	1018517	42105	109880	0	0	8363	478712	0	0
2024-06-11 18:52:32			0	39909	0	0	0	26659	25270	128082	26743	1018580	42128	109879	0	0	8364	478103	0	0
2024-06-11 18:53:32			0	39930	0	0	0	26659	25270	128038	26965	1018499	42106	109879	0	0	8365	477351	0	0
2024-06-11 18:54:32			0	39943	0	0	0	26664	25270	128046	26996	1018571	42117	109881	0	0	8365	476886	0	0
2024-06-11 18:55:32			0	39938	0	0	0	26664	25270	128046	27327	1018580	42128	109881	0	0	8365	477065	0	0
2024-06-11 18:56:32			0	39947	0	0	0	26662	25260	127994	27180	1018581	42104	109880	0	0	8365	476770	0	0
2024-06-11 18:57:32			0	39955	0	0	0	26667	25260	128042	27225	1018527	42126	109882	0	0	8366	476483	0	0
2024-06-11 18:58:32			0	39960	0	0	0	26654	25260	127990	27263	1018482	42117	109877	0	0	8366	476305	0	0
2024-06-11 18:59:32			0	39974	0	0	0	26649	25270	128014	27209	1018517	42117	109875	0	0	8367	475777	0	0
2024-06-11 19:00:32			0	39964	0	0	0	26651	25260	127926	27163	1018455	42117	109876	0	0	8367	476162	0	0
2024-06-11 19:01:32			0	39980	0	0	0	26649	25270	127982	27154	1018491	42117	109875	0	0	8367	475563	0	0
2024-06-11 19:02:32			0	39965	0	0	0	26644	25260	127930	27045	1018455	42138	109873	0	0	8367	476126	0	0
2024-06-11 19:03:32			0	39969	0	0	0	26631	25260	127886	27007	1018420	42116	109868	0	0	8367	475983	0	0
2024-06-11 19:04:32			0	39979	0	0	0	26625	25260	127914	27222	1018447	42104	109866	0	0	8368	475626	0	0
2024-06-11 19:05:32			0	39992	0	0	0	26628	25260	128006	27131	1018474	42104	109867	0	0	8368	475161	0	0
2024-06-11 19:06:32			0	39988	0	0	0	26628	25250	127902	27251	1018403	42115	109867	0	0	8368	475331	0	0
2024-06-11 19:07:32			0	39955	0	0	0	26631	25250	127918	27078	1018430	42115	109868	0	0	8366	476510	0	0
2024-06-11 19:08:32			0	39993	0	0	0	26633	25240	127914	26918	1018394	42115	109869	0	0	8368	475180	0	0
2024-06-11 19:09:32			0	39971	0	0	0	26615	25250	127954	27320	1018403	42115	109862	0	0	8367	475939	0	0
2024-06-11 19:10:32			0	39984	0	0	0	26625	25240	127914	27128	1018412	42114	109866	0	0	8368	475501	0	0
2024-06-11 19:11:32			0	39983	0	0	0	26620	25250	127942	27170	1018430	42103	109864	0	0	8368	475510	0	0
2024-06-11 19:12:32			0	39971	0	0	0	26623	25240	127998	27149	1018359	42103	109865	0	0	8367	475966	0	0
2024-06-11 19:13:32			0	39987	0	0	0	26618	25220	127930	27398	1018360	42102	109863	0	0	8368	475448	0	0
2024-06-11 19:14:32			0	39965	0	0	0	26625	25230	127946	26994	1018350	42114	109866	0	0	8367	476207	0	0
2024-06-11 19:15:32			0	39978	0	0	0	26625	25230	127938	27329	1018368	42102	109866	0	0	8368	475742	0	0
2024-06-11 19:16:32			0	39988	0	0	0	26615	25220	127946	26909	1018324	42112	109862	0	0	8368	475412	0	0
2024-06-11 19:17:32			0	39956	0	0	0	26623	25220	127966	26750	1018253	42102	109865	0	0	8366	476556	0	0
2024-06-11 19:18:32			0	39975	0	0	0	26623	25230	127978	26946	1018377	42114	109865	0	0	8367	475850	0	0
2024-06-11 19:19:32			0	39973	0	0	0	26636	25230	128062	27138	1018342	42113	109870	0	0	8367	475921	0	0
2024-06-11 19:20:32			0	39952	0	0	0	26631	25220	128010	26897	1018360	42113	109868	0	0	8366	476699	0	0
2024-06-11 19:21:32			0	39967	0	0	0	26628	25220	128046	27196	1018333	42124	109867	0	0	8367	476163	0	0
2024-06-11 19:22:32			0	39961	0	0	0	26628	25230	127994	27185	1018368	42113	109867	0	0	8367	476350	0	0
2024-06-11 19:23:32			0	39978	0	0	0	26625	25230	127906	27062	1018368	42113	109866	0	0	8368	475742	0	0
2024-06-11 19:24:32			0	39984	0	0	0	26618	25230	127914	26849	1018368	42102	109863	0	0	8368	475528	0	0
2024-06-11 19:25:32			0	39979	0	0	0	26607	25220	127862	27215	1018360	42102	109859	0	0	8368	475734	0	0
2024-06-11 19:26:32			0	39990	0	0	0	26612	25220	127874	27159	1018306	42102	109861	0	0	8368	475341	0	0
2024-06-11 19:27:32			0	39989	0	0	0	26584	25220	127830	26708	1018271	42123	109850	0	0	8369	475377	0	0
2024-06-11 19:28:32			0	40012	0	0	0	26566	25220	127810	27123	1018226	42102	109843	0	0	8370	474555	0	0
2024-06-11 19:29:32			0	40001	0	0	0	26566	25220	127874	27150	1018217	42112	109843	0	0	8370	474948	0	0
2024-06-11 19:30:32			0	40006	0	0	0	26576	25210	127778	27173	1018200	42111	109847	0	0	8370	474796	0	0
2024-06-11 19:31:32			0	40019	0	0	0	26576	25210	127822	27007	1018200	42111	109847	0	0	8370	474333	0	0
2024-06-11 19:32:32			0	40017	0	0	0	26571	25200	127790	26786	1018165	42100	109845	0	0	8370	474431	0	0
2024-06-11 19:33:32			0	40019	0	0	0	26584	25210	127818	26658	1018147	42123	109850	0	0	8370	474333	0	0
2024-06-11 19:34:32			0	40026	0	0	0	26586	25200	127762	26774	1018183	42110	109851	0	0	8371	474110	0	0
2024-06-11 19:35:32			0	40054	0	0	0	26586	25210	127758	26802	1018200	42100	109851	0	0	8372	473085	0	0
2024-06-11 19:36:32			0	40071	0	0	0	26586	25200	127642	26904	1018156	42132	109851	0	0	8373	472506	0	0
2024-06-11 19:37:32			0	40058	0	0	0	26581	25180	127762	26960	1018166	42109	109849	0	0	8372	473023	0	0
2024-06-11 19:38:32			0	40061	0	0	0	26574	25190	127706	27088	1018148	42098	109846	0	0	8373	472889	0	0
2024-06-11 19:39:32			0	40075	0	0	0	26574	25180	127578	26996	1018166	42109	109846	0	0	8373	472418	0	0
2024-06-11 19:40:32			0	40093	0	0	0	26579	25180	127610	27203	1018166	42131	109848	0	0	8374	471777	0	0
2024-06-11 19:41:32			0	40070	0	0	0	26576	25180	127562	26913	1018166	42121	109847	0	0	8373	472596	0	0
2024-06-11 19:42:32			0	40087	0	0	0	26579	25190	127530	27078	1018148	42109	109848	0	0	8374	471964	0	0
2024-06-11 19:43:32			0	40116	0	0	0	26579	25180	127587	26955	1018139	42109	109848	0	0	8375	470959	0	0
2024-06-11 19:44:32			0	40123	0	0	0	26579	25170	127563	26955	1018041	42075	109848	0	0	8376	470737	0	0
2024-06-11 19:45:32			0	40141	0	0	0	26571	25180	127475	26904	1018085	42098	109845	0	0	8377	470071	0	0
2024-06-11 19:46:32			0	40131	0	0	0	26555	25180	127447	27312	1018050	42109	109839	0	0	8376	470427	0	0
2024-06-11 19:47:32			0	40139	0	0	0	26537	25170	127439	26868	1017988	42109	109832	0	0	8377	470169	0	0
2024-06-11 19:48:32			0	40155	0	0	0	26535	25160	127371	27005	1018051	42096	109831	0	0	8378	469628	0	0
2024-06-11 19:49:32			0	40136	0	0	0	26535	25150	127351	27003	1018007	42107	109831	0	0	8377	470329	0	0
2024-06-11 19:50:32			0	40159	0	0	0	26532	25150	127387	27053	1017926	42107	109830	0	0	8378	469513	0	0
2024-06-11 19:51:32			0	40164	0	0	0	26519	25150	127383	27012	1017891	42106	109825	0	0	8379	469335	0	0
2024-06-11 19:52:32			0	40168	0	0	0	26524	25140	127403	27114	1017936	42116	109827	0	0	8379	469220	0	0
2024-06-11 19:53:32			0	40147	0	0	0	26529	25140	127391	27145	1017874	42094	109829	0	0	8378	469965	0	0
2024-06-11 19:54:32			0	40147	0	0	0	26511	25140	127363	27156	1017981	42094	109822	0	0	8378	469965	0	0
2024-06-11 19:55:32			0	40157	0	0	0	26514	25140	127395	27358	1017883	42116	109823	0	0	8378	469610	0	0
2024-06-11 19:56:32			0	40167	0	0	0	26506	25140	127379	26993	1017820	42094	109820	0	0	8379	469255	0	0
2024-06-11 19:57:32			0	40161	0	0	0	26509	25130	127363	27319	1017839	42116	109821	0	0	8379	469495	0	0
2024-06-11 19:58:32			0	40150	0	0	0	26514	25120	127447	27345	1017813	42103	109823	0	0	8378	469912	0	0
2024-06-11 19:59:32			0	40176	0	0	0	26522	25110	127371	27039	1017858	42092	109826	0	0	8379	469016	0	0
2024-06-11 20:00:32			0	40154	0	0	0	26519	25130	127387	26961	1017857	42093	109825	0	0	8378	469743	0	0
2024-06-11 20:01:32			0	40153	0	0	0	26519	25130	127455	26779	1017892	42105	109825	0	0	8378	469779	0	0
2024-06-11 20:02:32			0	40171	0	0	0	26522	25120	127391	26960	1017848	42103	109826	0	0	8379	469167	0	0
2024-06-11 20:03:32			0	40171	0	0	0	26519	25120	127383	27445	1017840	42103	109825	0	0	8379	469167	0	0
2024-06-11 20:04:32			0	40156	0	0	0	26524	25130	127499	27102	1017884	42115	109827	0	0	8378	469672	0	0
2024-06-11 20:05:32			0	40159	0	0	0	26532	25130	127399	27038	1017830	42093	109830	0	0	8378	469566	0	0
2024-06-11 20:06:32			0	40120	0	0	0	26524	25120	127395	27156	1017866	42103	109827	0	0	8376	470978	0	0
2024-06-11 20:07:32			0	40139	0	0	0	26529	25130	127471	27424	1017884	42104	109829	0	0	8377	470276	0	0
2024-06-11 20:08:32			0	40143	0	0	0	26537	25130	127463	27429	1017892	42094	109832	0	0	8377	470134	0	0
2024-06-11 20:09:32			0	40152	0	0	0	26540	25130	127447	27403	1017884	42104	109833	0	0	8378	469814	0	0
2024-06-11 20:10:32			0	40152	0	0	0	26529	25130	127427	27312	1017884	42104	109829	0	0	8378	469814	0	0
2024-06-11 20:11:32			0	40146	0	0	0	26524	25120	127495	26935	1017848	42114	109827	0	0	8378	470054	0	0
2024-06-11 20:12:32			0	40135	0	0	0	26524	25120	127419	27152	1017848	42092	109827	0	0	8377	470445	0	0
2024-06-11 20:13:32			0	40161	0	0	0	26522	25120	127447	27235	1017875	42092	109826	0	0	8378	469522	0	0
2024-06-11 20:14:32			0	40156	0	0	0	26503	25120	127467	27215	1017848	42103	109819	0	0	8378	469699	0	0
2024-06-11 20:15:32			0	40140	0	0	0	26496	25120	127463	27116	1017840	42092	109816	0	0	8378	470267	0	0
2024-06-11 20:16:32			0	40153	0	0	0	26483	25110	127419	27215	1017769	42080	109811	0	0	8379	469832	0	0
2024-06-11 20:17:32			0	40129	0	0	0	26483	25110	127443	27177	1017742	42091	109811	0	0	8377	470684	0	0
2024-06-11 20:18:32			0	40141	0	0	0	26480	25110	127387	27178	1017769	42102	109810	0	0	8378	470258	0	0
2024-06-11 20:19:32			0	40135	0	0	0	26477	25090	127443	27171	1017690	42090	109809	0	0	8378	470525	0	0
2024-06-11 20:20:32			0	40148	0	0	0	26480	25100	127471	27053	1017698	42090	109810	0	0	8378	470036	0	0
2024-06-11 20:21:32			0	40147	0	0	0	26467	25090	127439	26835	1017663	42090	109805	0	0	8378	470099	0	0
2024-06-11 20:22:32			0	40144	0	0	0	26470	25080	127439	27268	1017672	42099	109806	0	0	8378	470232	0	0
2024-06-11 20:23:32			0	40137	0	0	0	26470	25080	127467	27274	1017672	42099	109806	0	0	8378	470480	0	0
2024-06-11 20:24:32			0	40158	0	0	0	26472	25080	127519	27441	1017672	42088	109807	0	0	8379	469735	0	0
2024-06-11 20:25:32			0	40144	0	0	0	26470	25090	127535	27192	1017681	42100	109806	0	0	8378	470205	0	0
2024-06-11 20:26:32			0	40134	0	0	0	26477	25080	127443	27258	1017637	42098	109809	0	0	8378	470587	0	0
2024-06-11 20:27:32			0	40128	0	0	0	26459	25080	127483	27293	1017619	42099	109802	0	0	8378	470800	0	0
2024-06-11 20:28:32			0	40131	0	0	0	26467	25080	127475	27029	1017664	42087	109805	0	0	8378	470694	0	0
2024-06-11 20:29:32			0	40130	0	0	0	26462	25080	127491	27159	1017610	42110	109803	0	0	8378	470729	0	0
2024-06-11 20:30:32			0	40136	0	0	0	26462	25080	127511	27244	1017610	42087	109803	0	0	8378	470516	0	0
2024-06-11 20:31:32			0	40137	0	0	0	26462	25080	127495	27007	1017637	42098	109803	0	0	8378	470480	0	0
2024-06-11 20:32:32			0	40150	0	0	0	26470	25070	127547	27107	1017566	42087	109806	0	0	8378	470045	0	0
2024-06-11 20:33:32			0	40124	0	0	0	26446	25060	127499	27131	1017531	42098	109797	0	0	8377	470996	0	0
2024-06-11 20:34:32			0	40128	0	0	0	26444	25070	127463	27088	1017620	42087	109796	0	0	8378	470827	0	0
2024-06-11 20:35:32			0	40128	0	0	0	26431	25050	127483	27079	1017541	42064	109791	0	0	8378	470880	0	0
2024-06-11 20:36:32			0	40140	0	0	0	26436	25050	127507	27222	1017514	42097	109793	0	0	8378	470454	0	0
2024-06-11 20:37:32			0	40110	0	0	0	26433	25060	127615	27156	1017549	42097	109792	0	0	8377	471494	0	0
2024-06-11 20:38:32			0	40130	0	0	0	26444	25060	127551	27088	1017549	42108	109796	0	0	8378	470782	0	0
2024-06-11 20:39:32			0	40127	0	0	0	26449	25060	127527	27180	1017504	42098	109798	0	0	8378	470889	0	0
2024-06-11 20:40:32			0	40111	0	0	0	26454	25050	127575	26849	1017585	42108	109800	0	0	8377	471485	0	0
2024-06-11 20:41:32			0	40115	0	0	0	26462	25060	127631	26975	1017629	42108	109803	0	0	8377	471316	0	0
2024-06-11 20:42:32			0	40124	0	0	0	26446	25060	127583	26720	1017603	42097	109797	0	0	8377	470996	0	0
2024-06-11 20:43:32			0	40121	0	0	0	26457	25060	127595	26875	1017558	42098	109801	0	0	8377	471102	0	0
2024-06-11 20:44:32			0	40095	0	0	0	26446	25060	127626	26830	1017531	42086	109797	0	0	8376	472027	0	0
2024-06-11 20:45:32			0	40095	0	0	0	26449	25050	127638	26979	1017541	42097	109798	0	0	8376	472054	0	0
2024-06-11 20:46:32			0	40112	0	0	0	26446	25050	127615	27175	1017541	42085	109797	0	0	8377	471449	0	0
2024-06-11 20:47:32			0	40108	0	0	0	26446	25050	127595	27119	1017541	42085	109797	0	0	8377	471591	0	0
2024-06-11 20:48:32			0	40112	0	0	0	26454	25050	127667	27107	1017621	42085	109800	0	0	8377	471449	0	0
2024-06-11 20:49:32			0	40106	0	0	0	26444	25060	127639	27161	1017603	42108	109796	0	0	8377	471636	0	0
2024-06-11 20:50:32			0	40082	0	0	0	26451	25050	127678	27020	1017514	42108	109799	0	0	8375	472517	0	0
2024-06-11 20:51:32			0	40109	0	0	0	26444	25060	127659	26920	1017549	42085	109796	0	0	8377	471529	0	0
2024-06-11 20:52:32			0	40078	0	0	0	26433	25050	127658	26984	1017594	42097	109792	0	0	8375	472659	0	0
2024-06-11 20:53:32			0	40090	0	0	0	26428	25050	127622	26715	1017505	42108	109790	0	0	8376	472232	0	0
2024-06-11 20:54:32			0	40085	0	0	0	26438	25050	127634	27185	1017478	42108	109794	0	0	8376	472410	0	0
2024-06-11 20:55:32			0	40072	0	0	0	26438	25050	127674	26772	1017541	42108	109794	0	0	8375	472873	0	0
2024-06-11 20:56:32			0	40073	0	0	0	26441	25050	127682	26953	1017558	42108	109795	0	0	8375	472837	0	0
2024-06-11 20:57:32			0	40089	0	0	0	26449	25040	127770	27019	1017523	42107	109798	0	0	8376	472294	0	0
2024-06-11 20:58:32			0	40082	0	0	0	26446	25050	127706	27116	1017567	42097	109797	0	0	8375	472517	0	0
2024-06-11 20:59:32			0	40051	0	0	0	26454	25050	127662	26708	1017541	42097	109800	0	0	8374	473622	0	0
2024-06-11 21:00:32			0	40058	0	0	0	26459	25050	127670	26755	1017567	42097	109802	0	0	8374	473372	0	0
2024-06-11 21:01:32			0	40044	0	0	0	26467	25050	127702	27112	1017585	42097	109805	0	0	8373	473871	0	0
2024-06-11 21:02:32			0	40075	0	0	0	26467	25050	127794	27000	1017648	42085	109805	0	0	8375	472766	0	0
2024-06-11 21:03:32			0	40050	0	0	0	26470	25070	127706	27131	1017700	42087	109806	0	0	8373	473604	0	0
2024-06-11 21:04:32			0	40053	0	0	0	26480	25070	127678	26693	1017647	42098	109810	0	0	8373	473497	0	0
2024-06-11 21:05:32			0	40050	0	0	0	26477	25060	127786	26819	1017665	42109	109809	0	0	8373	473630	0	0
2024-06-11 21:06:32			0	40064	0	0	0	26483	25070	127730	26920	1017620	42110	109811	0	0	8374	473105	0	0
2024-06-11 21:07:32			0	40040	0	0	0	26488	25070	127762	27076	1017700	42110	109813	0	0	8372	473960	0	0
2024-06-11 21:08:32			0	40056	0	0	0	26488	25070	127722	27027	1017620	42098	109813	0	0	8373	473390	0	0
2024-06-11 21:09:32			0	40036	0	0	0	26488	25070	127750	26928	1017682	42098	109813	0	0	8372	474103	0	0
2024-06-11 21:10:32			0	40038	0	0	0	26493	25080	127734	26987	1017798	42121	109815	0	0	8372	474005	0	0
2024-06-11 21:11:32			0	40029	0	0	0	26498	25080	127802	26993	1017753	42111	109817	0	0	8372	474326	0	0
2024-06-11 21:12:32			0	40028	0	0	0	26498	25090	127758	26878	1017788	42112	109817	0	0	8372	474335	0	0
2024-06-11 21:13:32			0	40027	0	0	0	26506	25090	127786	26814	1017735	42123	109820	0	0	8372	474370	0	0
2024-06-11 21:14:32			0	40019	0	0	0	26501	25080	127822	26894	1017753	42099	109818	0	0	8371	474683	0	0
2024-06-11 21:15:32			0	40026	0	0	0	26501	25080	127818	26986	1017753	42111	109818	0	0	8372	474433	0	0
2024-06-11 21:16:32			0	40018	0	0	0	26503	25090	127846	26996	1017815	42100	109819	0	0	8371	474691	0	0
2024-06-11 21:17:32			0	40027	0	0	0	26506	25080	127850	26908	1017806	42111	109820	0	0	8372	474397	0	0
2024-06-11 21:18:32			0	40007	0	0	0	26511	25090	127798	26982	1017770	42124	109822	0	0	8370	475084	0	0
2024-06-11 21:19:32			0	40001	0	0	0	26511	25100	127874	26960	1017805	42124	109822	0	0	8370	475272	0	0
2024-06-11 21:20:32			0	40012	0	0	0	26509	25100	127854	26996	1017867	42124	109821	0	0	8371	474879	0	0
2024-06-11 21:21:32			0	40000	0	0	0	26519	25100	127866	26892	1017805	42113	109825	0	0	8370	475307	0	0
2024-06-11 21:22:32			0	39995	0	0	0	26516	25100	127830	27062	1017832	42101	109824	0	0	8370	475486	0	0
2024-06-11 21:23:32			0	39995	0	0	0	26514	25090	127882	27005	1017823	42113	109823	0	0	8370	475513	0	0
2024-06-11 21:24:32			0	39979	0	0	0	26516	25110	127910	27149	1017822	42113	109824	0	0	8369	476031	0	0
2024-06-11 21:25:32			0	39995	0	0	0	26511	25100	127858	27005	1017867	42113	109822	0	0	8370	475486	0	0
2024-06-11 21:26:32			0	39981	0	0	0	26503	25100	127898	27053	1017787	42101	109819	0	0	8369	475986	0	0
2024-06-11 21:27:32			0	39993	0	0	0	26506	25090	127934	26684	1017797	42101	109820	0	0	8370	475584	0	0
2024-06-11 21:28:32			0	39970	0	0	0	26506	25090	127990	26986	1017797	42101	109820	0	0	8369	476407	0	0
2024-06-11 21:29:32			0	39976	0	0	0	26498	25090	127950	27161	1017761	42089	109817	0	0	8369	476192	0	0
2024-06-11 21:30:32			0	39987	0	0	0	26488	25090	127878	27038	1017788	42100	109813	0	0	8370	475799	0	0
2024-06-11 21:31:32			0	39965	0	0	0	26490	25090	127846	27034	1017770	42101	109814	0	0	8369	476586	0	0
2024-06-11 21:32:32			0	39981	0	0	0	26483	25100	127734	26819	1017760	42113	109811	0	0	8370	475986	0	0
2024-06-11 21:33:32			0	39972	0	0	0	26490	25090	127858	26750	1017716	42101	109814	0	0	8369	476335	0	0
2024-06-11 21:34:32			0	40010	0	0	0	26480	25080	127838	26748	1017753	42099	109810	0	0	8371	475004	0	0
2024-06-11 21:35:32			0	40024	0	0	0	26480	25090	127734	27017	1017770	42113	109810	0	0	8372	474477	0	0
2024-06-11 21:36:32			0	39995	0	0	0	26475	25080	127790	27104	1017726	42099	109808	0	0	8370	475540	0	0
2024-06-11 21:37:32			0	40012	0	0	0	26467	25070	127718	27124	1017682	42098	109805	0	0	8371	474960	0	0
2024-06-11 21:38:32			0	40059	0	0	0	26475	25080	127738	27029	1017699	42111	109808	0	0	8374	473256	0	0
2024-06-11 21:39:32			0	40039	0	0	0	26477	25090	127670	26953	1017788	42112	109809	0	0	8373	473942	0	0
2024-06-11 21:40:32			0	40067	0	0	0	26477	25080	127674	26981	1017672	42099	109809	0	0	8374	472971	0	0
2024-06-11 21:41:32			0	40070	0	0	0	26477	25070	127530	26838	1017709	42098	109809	0	0	8374	472891	0	0
2024-06-11 21:42:32			0	40099	0	0	0	26477	25080	127527	27168	1017691	42098	109809	0	0	8376	471831	0	0
2024-06-11 21:43:32			0	40099	0	0	0	26483	25090	127439	26996	1017708	42100	109811	0	0	8376	471805	0	0
2024-06-11 21:44:32			0	40134	0	0	0	26472	25070	127435	26856	1017647	42110	109807	0	0	8378	470614	0	0
2024-06-11 21:45:32			0	40137	0	0	0	26477	25080	127295	27156	1017699	42111	109809	0	0	8378	470480	0	0
2024-06-11 21:46:32			0	40148	0	0	0	26475	25080	127347	26871	1017610	42110	109808	0	0	8378	470090	0	0
2024-06-11 21:47:32			0	40184	0	0	0	26472	25070	127351	27270	1017647	42110	109807	0	0	8380	468839	0	0
2024-06-11 21:48:32			0	40166	0	0	0	26470	25070	127283	27036	1017602	42087	109806	0	0	8379	469477	0	0
2024-06-11 21:49:32			0	40196	0	0	0	26464	25070	127311	26934	1017655	42110	109804	0	0	8381	468414	0	0
2024-06-11 21:50:32			0	40202	0	0	0	26475	25070	127323	26863	1017709	42110	109808	0	0	8381	468201	0	0
2024-06-11 21:51:32			0	40197	0	0	0	26470	25070	127255	27317	1017682	42121	109806	0	0	8381	468378	0	0
2024-06-11 21:52:32			0	40237	0	0	0	26464	25080	127139	27046	1017691	42098	109804	0	0	8383	466935	0	0
2024-06-11 21:53:32			0	40223	0	0	0	26467	25070	127151	27137	1017673	42098	109805	0	0	8382	467457	0	0
2024-06-11 21:54:32			0	40249	0	0	0	26464	25070	127095	27303	1017673	42098	109804	0	0	8384	466537	0	0
2024-06-11 21:55:32			0	40245	0	0	0	26464	25070	127127	26824	1017602	42077	109804	0	0	8384	466679	0	0
2024-06-11 21:56:32			0	40253	0	0	0	26464	25070	127107	26915	1017655	42098	109804	0	0	8384	466396	0	0
2024-06-11 21:57:32			0	40261	0	0	0	26462	25070	127083	27041	1017620	42098	109803	0	0	8384	466113	0	0
2024-06-11 21:58:32			0	40291	0	0	0	26459	25060	127111	27022	1017558	42098	109802	0	0	8386	465079	0	0
2024-06-11 21:59:32			0	40285	0	0	0	26454	25060	126991	27079	1017549	42119	109800	0	0	8386	465291	0	0
2024-06-11 22:00:32			0	40289	0	0	0	26451	25060	127003	26759	1017603	42108	109799	0	0	8386	465150	0	0
2024-06-11 22:01:32			0	40313	0	0	0	26444	25060	126971	27185	1017611	42109	109796	0	0	8387	464303	0	0
2024-06-11 22:02:32			0	40318	0	0	0	26449	25050	126971	26941	1017558	42097	109798	0	0	8387	464153	0	0
2024-06-11 22:03:32			0	40329	0	0	0	26436	25050	127019	26887	1017541	42097	109793	0	0	8388	463765	0	0
2024-06-11 22:04:32			0	40331	0	0	0	26433	25040	126819	27029	1017550	42107	109792	0	0	8388	463721	0	0
2024-06-11 22:05:32			0	40345	0	0	0	26436	25050	126775	27246	1017585	42097	109793	0	0	8389	463201	0	0
2024-06-11 22:06:32			0	40356	0	0	0	26433	25030	126819	27223	1017506	42095	109792	0	0	8390	462867	0	0
2024-06-11 22:07:32			0	40349	0	0	0	26431	25040	126855	27067	1017550	42107	109791	0	0	8389	463087	0	0
2024-06-11 22:08:32			0	40342	0	0	0	26425	25040	126735	26987	1017568	42106	109789	0	0	8389	463333	0	0
2024-06-11 22:09:32			0	40362	0	0	0	26438	25020	126847	27306	1017427	42083	109794	0	0	8390	462681	0	0
2024-06-11 22:10:32			0	40345	0	0	0	26431	25030	126799	27176	1017471	42106	109791	0	0	8389	463254	0	0
2024-06-11 22:11:32			0	40344	0	0	0	26431	25040	126787	27121	1017514	42083	109791	0	0	8389	463263	0	0
2024-06-11 22:12:32			0	40367	0	0	0	26428	25030	126835	27074	1017524	42095	109790	0	0	8390	462479	0	0
2024-06-11 22:13:32			0	40358	0	0	0	26433	25040	126751	27237	1017434	42083	109792	0	0	8390	462770	0	0
2024-06-11 22:14:32			0	40367	0	0	0	26420	25030	126727	26949	1017471	42106	109787	0	0	8390	462479	0	0
2024-06-11 22:15:32			0	40380	0	0	0	26423	25020	126875	27081	1017480	42104	109788	0	0	8391	462048	0	0
2024-06-11 22:16:32			0	40377	0	0	0	26423	25020	126767	27062	1017489	42117	109788	0	0	8391	462154	0	0
2024-06-11 22:17:32			0	40363	0	0	0	26425	25020	126679	27157	1017427	42104	109789	0	0	8390	462646	0	0
2024-06-11 22:18:32			0	40376	0	0	0	26420	25020	126755	26935	1017453	42093	109787	0	0	8391	462189	0	0
2024-06-11 22:19:32			0	40385	0	0	0	26423	25010	126759	26892	1017418	42092	109788	0	0	8391	461898	0	0
2024-06-11 22:20:32			0	40360	0	0	0	26415	25020	126703	27275	1017427	42093	109785	0	0	8390	462752	0	0
2024-06-11 22:21:32			0	40388	0	0	0	26412	25010	126699	26941	1017472	42092	109784	0	0	8392	461793	0	0
2024-06-11 22:22:32			0	40362	0	0	0	26420	25010	126739	26680	1017463	42103	109787	0	0	8390	462708	0	0
2024-06-11 22:23:32			0	40378	0	0	0	26412	25000	126691	27007	1017374	42082	109784	0	0	8391	462171	0	0
2024-06-11 22:24:32			0	40395	0	0	0	26384	25010	126643	27379	1017302	42103	109773	0	0	8392	461546	0	0
2024-06-11 22:25:32			0	40397	0	0	0	26376	25000	126679	27027	1017285	42091	109770	0	0	8393	461502	0	0
2024-06-11 22:26:32			0	40398	0	0	0	26368	24990	126739	26975	1017268	42090	109767	0	0	8393	461493	0	0
2024-06-11 22:27:32			0	40390	0	0	0	26353	24990	126691	27234	1017223	42090	109761	0	0	8393	461775	0	0
2024-06-11 22:28:32			0	40395	0	0	0	26358	24990	126747	26977	1017321	42090	109763	0	0	8393	461599	0	0
2024-06-11 22:29:32			0	40393	0	0	0	26350	24980	126707	27253	1017197	42112	109760	0	0	8393	461695	0	0
2024-06-11 22:30:32			0	40411	0	0	0	26342	24970	126715	27154	1017215	42122	109757	0	0	8394	461089	0	0
2024-06-11 22:31:32			0	40401	0	0	0	26340	24970	126659	26953	1017153	42088	109756	0	0	8393	461440	0	0
2024-06-11 22:32:32			0	40392	0	0	0	26345	24970	126699	26965	1017126	42111	109758	0	0	8393	461757	0	0
2024-06-11 22:33:32			0	40404	0	0	0	26340	24960	126707	27310	1017091	42078	109756	0	0	8393	461361	0	0
2024-06-11 22:34:32			0	40389	0	0	0	26348	24970	126811	26838	1017180	42088	109759	0	0	8393	461862	0	0
2024-06-11 22:35:32			0	40367	0	0	0	26353	24970	126823	26734	1017153	42100	109761	0	0	8391	462637	0	0
2024-06-11 22:36:32			0	40374	0	0	0	26358	24960	126775	26955	1017225	42088	109763	0	0	8392	462416	0	0
2024-06-11 22:37:32			0	40351	0	0	0	26348	24950	126863	26889	1017154	42087	109759	0	0	8391	463253	0	0
2024-06-11 22:38:32			0	40368	0	0	0	26353	24960	126943	26986	1017198	42111	109761	0	0	8391	462628	0	0
2024-06-11 22:39:32			0	40382	0	0	0	26361	24960	126791	27131	1017189	42099	109764	0	0	8392	462135	0	0
2024-06-11 22:40:32			0	40408	0	0	0	26350	24960	126727	26981	1017216	42099	109760	0	0	8393	461220	0	0
2024-06-11 22:41:32			0	40442	0	0	0	26363	24950	126595	27088	1017181	42098	109765	0	0	8395	460052	0	0
2024-06-11 22:42:32			0	40455	0	0	0	26363	24960	126495	26804	1017163	42087	109765	0	0	8396	459569	0	0
2024-06-11 22:43:32			0	40501	0	0	0	26355	24950	126467	26798	1017101	42109	109762	0	0	8398	457983	0	0
2024-06-11 22:44:32			0	40508	0	0	0	26361	24960	126307	26965	1017163	42077	109764	0	0	8398	457712	0	0
2024-06-11 22:45:32			0	40521	0	0	0	26361	24960	126347	27121	1017144	42100	109764	0	0	8399	457257	0	0
2024-06-11 22:46:32			0	40550	0	0	0	26348	24960	126267	27062	1017144	42100	109759	0	0	8401	456243	0	0
2024-06-11 22:47:32			0	40585	0	0	0	26355	24960	126191	26991	1017109	42099	109762	0	0	8403	455020	0	0
2024-06-11 22:48:32			0	40589	0	0	0	26361	24950	126115	26944	1017092	42108	109764	0	0	8403	454906	0	0
2024-06-11 22:49:32			0	40610	0	0	0	26355	24960	126115	27225	1017136	42087	109762	0	0	8404	454148	0	0
2024-06-11 22:50:32			0	40623	0	0	0	26358	24960	126019	26949	1017189	42110	109763	0	0	8405	453695	0	0
2024-06-11 22:51:32			0	40633	0	0	0	26361	24950	126043	27270	1017181	42087	109764	0	0	8405	453372	0	0
2024-06-11 22:52:32			0	40645	0	0	0	26358	24950	125935	27267	1017199	42086	109763	0	0	8406	452954	0	0
2024-06-11 22:53:32			0	40657	0	0	0	26358	24950	125899	27199	1017154	42087	109763	0	0	8406	452537	0	0
2024-06-11 22:54:32			0	40667	0	0	0	26363	24960	125891	27013	1017216	42077	109765	0	0	8407	452163	0	0
2024-06-11 22:55:32			0	40691	0	0	0	26355	24940	125851	27253	1017164	42097	109762	0	0	8408	451380	0	0
2024-06-11 22:56:32			0	40686	0	0	0	26353	24960	125899	27020	1017144	42100	109761	0	0	8408	451502	0	0
2024-06-11 22:57:32			0	40688	0	0	0	26345	24950	125747	27234	1017145	42086	109758	0	0	8408	451458	0	0
2024-06-11 22:58:32			0	40711	0	0	0	26345	24960	125759	27209	1017109	42099	109758	0	0	8409	450634	0	0
2024-06-11 22:59:32			0	40729	0	0	0	26337	24950	125723	27128	1017065	42086	109755	0	0	8410	450034	0	0
2024-06-11 23:00:32			0	40719	0	0	0	26332	24940	125791	26835	1017030	42086	109753	0	0	8410	450407	0	0
2024-06-11 23:01:32			0	40736	0	0	0	26322	24940	125811	27137	1017003	42086	109749	0	0	8411	449817	0	0
2024-06-11 23:02:32			0	40732	0	0	0	26319	24930	125787	27194	1017030	42107	109748	0	0	8411	449981	0	0
2024-06-11 23:03:32			0	40740	0	0	0	26319	24940	125719	27189	1016968	42086	109748	0	0	8411	449678	0	0
2024-06-11 23:04:32			0	40757	0	0	0	26314	24930	125655	27339	1016906	42085	109746	0	0	8412	449114	0	0
2024-06-11 23:05:32			0	40750	0	0	0	26309	24930	125595	26930	1017013	42085	109744	0	0	8412	449357	0	0
2024-06-11 23:06:32			0	40760	0	0	0	26309	24930	125667	27086	1017013	42096	109744	0	0	8412	449010	0	0
2024-06-11 23:07:32			0	40778	0	0	0	26322	24930	125588	27227	1017066	42085	109749	0	0	8413	448387	0	0
2024-06-11 23:08:32			0	40780	0	0	0	26324	24920	125632	26935	1017022	42084	109750	0	0	8413	448343	0	0
2024-06-11 23:09:32			0	40799	0	0	0	26337	24940	125656	26977	1017075	42108	109755	0	0	8414	447634	0	0
2024-06-11 23:10:32			0	40786	0	0	0	26335	24940	125516	27118	1017075	42097	109754	0	0	8413	448084	0	0
2024-06-11 23:11:32			0	40784	0	0	0	26335	24940	125552	27154	1017048	42097	109754	0	0	8413	448153	0	0
2024-06-11 23:12:32			0	40767	0	0	0	26329	24930	125596	27029	1017057	42095	109752	0	0	8412	448768	0	0
2024-06-11 23:13:32			0	40801	0	0	0	26322	24930	125504	27201	1016986	42085	109749	0	0	8414	447591	0	0
2024-06-11 23:14:32			0	40808	0	0	0	26319	24930	125616	27142	1016977	42084	109748	0	0	8415	447348	0	0
2024-06-11 23:15:32			0	40823	0	0	0	26322	24930	125528	27178	1016986	42096	109749	0	0	8415	446829	0	0
2024-06-11 23:16:32			0	40831	0	0	0	26319	24930	125520	27038	1017004	42084	109748	0	0	8416	446553	0	0
2024-06-11 23:17:32			0	40816	0	0	0	26314	24930	125416	27445	1016950	42095	109746	0	0	8415	447072	0	0
2024-06-11 23:18:32			0	40837	0	0	0	26306	24920	125492	27104	1016995	42095	109743	0	0	8416	446371	0	0
2024-06-11 23:19:32			0	40842	0	0	0	26301	24920	125496	26932	1016942	42084	109741	0	0	8417	446198	0	0
2024-06-11 23:20:32			0	40810	0	0	0	26303	24920	125492	27067	1016933	42095	109742	0	0	8415	447304	0	0
2024-06-11 23:21:32			0	40836	0	0	0	26306	24920	125488	27123	1016960	42084	109743	0	0	8416	446406	0	0
2024-06-11 23:22:32			0	40850	0	0	0	26306	24900	125424	26615	1016943	42083	109743	0	0	8417	445972	0	0
2024-06-11 23:23:32			0	40838	0	0	0	26303	24920	125460	27072	1016995	42084	109742	0	0	8417	446336	0	0
2024-06-11 23:24:32			0	40839	0	0	0	26316	24910	125476	27216	1016978	42094	109747	0	0	8416	446327	0	0
2024-06-11 23:25:32			0	40831	0	0	0	26316	24910	125428	27013	1017005	42094	109747	0	0	8416	446603	0	0
2024-06-11 23:26:32			0	40842	0	0	0	26324	24920	125400	27083	1017049	42084	109750	0	0	8416	446198	0	0
2024-06-11 23:27:32			0	40846	0	0	0	26322	24920	125444	27135	1016995	42107	109749	0	0	8417	446060	0	0
2024-06-11 23:28:32			0	40836	0	0	0	26342	24920	125484	27090	1017022	42107	109757	0	0	8416	446406	0	0
2024-06-11 23:29:32			0	40815	0	0	0	26340	24930	125452	27031	1017138	42107	109756	0	0	8415	447106	0	0
2024-06-11 23:30:32			0	40832	0	0	0	26348	24930	125488	27204	1017138	42095	109759	0	0	8416	446518	0	0
2024-06-11 23:31:32			0	40826	0	0	0	26342	24940	125508	27251	1017190	42086	109757	0	0	8415	446700	0	0
2024-06-11 23:32:32			0	40810	0	0	0	26348	24940	125448	26908	1017083	42097	109759	0	0	8414	447254	0	0
2024-06-11 23:33:32			0	40807	0	0	0	26353	24940	125604	27050	1017190	42097	109761	0	0	8414	447357	0	0
2024-06-11 23:34:32			0	40778	0	0	0	26368	24950	125584	26875	1017261	42109	109767	0	0	8412	448336	0	0
2024-06-11 23:35:32			0	40775	0	0	0	26389	24960	125584	26694	1017243	42110	109775	0	0	8412	448414	0	0
2024-06-11 23:36:32			0	40735	0	0	0	26379	24960	125659	26812	1017278	42111	109771	0	0	8410	449801	0	0
2024-06-11 23:37:32			0	40725	0	0	0	26371	24960	125783	26972	1017251	42088	109768	0	0	8410	450148	0	0
2024-06-11 23:38:32			0	40678	0	0	0	26371	24970	125843	27140	1017126	42100	109768	0	0	8407	451755	0	0
2024-06-11 23:39:32			0	40662	0	0	0	26368	24950	125959	27131	1017208	42087	109767	0	0	8406	452363	0	0
2024-06-11 23:40:32			0	40643	0	0	0	26353	24960	126055	27208	1017163	42077	109761	0	0	8406	452998	0	0
2024-06-11 23:41:32			0	40596	0	0	0	26345	24960	126111	27104	1017136	42099	109758	0	0	8403	454636	0	0
2024-06-11 23:42:32			0	40587	0	0	0	26342	24950	126195	26897	1017145	42086	109757	0	0	8403	454976	0	0
2024-06-11 23:43:32			0	40552	0	0	0	26329	24940	126351	27324	1017057	42108	109752	0	0	8401	456224	0	0
2024-06-11 23:44:32			0	40504	0	0	0	26319	24940	126439	26932	1017048	42086	109748	0	0	8399	457904	0	0
2024-06-11 23:45:32			0	40468	0	0	0	26316	24940	126551	27511	1016976	42108	109747	0	0	8397	459166	0	0
2024-06-11 23:46:32			0	40440	0	0	0	26316	24920	126615	27223	1016995	42107	109747	0	0	8396	460200	0	0
2024-06-11 23:47:32			0	40414	0	0	0	26301	24930	126767	27036	1016959	42085	109741	0	0	8394	461088	0	0
2024-06-11 23:48:32			0	40371	0	0	0	26283	24920	126875	26739	1016808	42084	109734	0	0	8393	462627	0	0
2024-06-11 23:49:32			0	40352	0	0	0	26257	24910	126939	27126	1016764	42083	109724	0	0	8392	463322	0	0
2024-06-11 23:50:32			0	40306	0	0	0	26244	24890	127039	26953	1016730	42071	109719	0	0	8390	464998	0	0
2024-06-11 23:51:32			0	40307	0	0	0	26231	24890	127143	26791	1016649	42082	109714	0	0	8390	464963	0	0
2024-06-11 23:52:32			0	40250	0	0	0	26210	24870	127275	27097	1016535	42069	109706	0	0	8387	467031	0	0
2024-06-11 23:53:32			0	40224	0	0	0	26197	24850	127443	26911	1016527	42079	109701	0	0	8386	468005	0	0
2024-06-11 23:54:32			0	40186	0	0	0	26181	24840	127471	27069	1016537	42077	109695	0	0	8384	469379	0	0
2024-06-11 23:55:32			0	40156	0	0	0	26174	24830	127559	27185	1016493	42065	109692	0	0	8383	470472	0	0
2024-06-11 23:56:32			0	40132	0	0	0	26174	24830	127695	27107	1016466	42087	109692	0	0	8382	471325	0	0
2024-06-11 23:57:32			0	40109	0	0	0	26179	24820	127743	27182	1016538	42086	109694	0	0	8380	472171	0	0
2024-06-11 23:58:32			0	40072	0	0	0	26181	24830	127910	26981	1016493	42098	109695	0	0	8378	473463	0	0
2024-06-11 23:59:32			0	40051	0	0	0	26192	24810	127938	26713	1016521	42108	109699	0	0	8377	474266	0	0
2024-06-12 00:00:32			0	40030	0	0	0	26192	24820	128014	27244	1016502	42075	109699	0	0	8376	474990	0	0
2024-06-12 00:01:32			0	40009	0	0	0	26189	24820	128066	26845	1016502	42075	109698	0	0	8375	475740	0	0
2024-06-12 00:02:32			0	39978	0	0	0	26181	24820	128054	26738	1016457	42076	109695	0	0	8373	476850	0	0
2024-06-12 00:03:32			0	39938	0	0	0	26176	24810	128142	26805	1016467	42075	109693	0	0	8371	478311	0	0
2024-06-12 00:04:32			0	39930	0	0	0	26174	24810	128170	27133	1016405	42084	109692	0	0	8371	478598	0	0
2024-06-12 00:05:32			0	39912	0	0	0	26179	24800	128266	26864	1016450	42074	109694	0	0	8370	479271	0	0
2024-06-12 00:06:32			0	39901	0	0	0	26168	24800	128398	26628	1016361	42062	109690	0	0	8370	479666	0	0
2024-06-12 00:07:32			0	39894	0	0	0	26181	24800	128438	27142	1016530	42074	109695	0	0	8369	479918	0	0
2024-06-12 00:08:32			0	39872	0	0	0	26176	24800	128406	27008	1016414	42073	109693	0	0	8368	480709	0	0
2024-06-12 00:09:32			0	39857	0	0	0	26174	24800	128466	27199	1016450	42084	109692	0	0	8367	481249	0	0
2024-06-12 00:10:32			0	39836	0	0	0	26181	24800	128542	27078	1016476	42084	109695	0	0	8366	482005	0	0
2024-06-12 00:11:32			0	39831	0	0	0	26176	24800	128674	26774	1016414	42083	109693	0	0	8366	482185	0	0
2024-06-12 00:12:32			0	39812	0	0	0	26176	24800	128610	27029	1016503	42074	109693	0	0	8365	482870	0	0
2024-06-12 00:13:32			0	39801	0	0	0	26197	24800	128650	26986	1016521	42083	109701	0	0	8364	483267	0	0
2024-06-12 00:14:32			0	39784	0	0	0	26186	24810	128710	27175	1016458	42084	109697	0	0	8363	483853	0	0
2024-06-12 00:15:32			0	39771	0	0	0	26199	24820	128770	26781	1016556	42096	109702	0	0	8362	484296	0	0
2024-06-12 00:16:32			0	39755	0	0	0	26199	24810	128814	27183	1016485	42084	109702	0	0	8362	484901	0	0
2024-06-12 00:17:32			0	39755	0	0	0	26184	24810	128830	27222	1016458	42063	109696	0	0	8362	484901	0	0
2024-06-12 00:18:32			0	39732	0	0	0	26186	24810	128854	26896	1016432	42063	109697	0	0	8361	485733	0	0
2024-06-12 00:19:32			0	39733	0	0	0	26163	24800	128830	27239	1016361	42073	109688	0	0	8361	485724	0	0
2024-06-12 00:20:32			0	39728	0	0	0	26158	24790	128894	27081	1016299	42072	109686	0	0	8361	485933	0	0
2024-06-12 00:21:32			0	39713	0	0	0	26145	24780	128926	26963	1016201	42072	109681	0	0	8360	486503	0	0
2024-06-12 00:22:32			0	39710	0	0	0	26132	24770	128998	27130	1016211	42070	109676	0	0	8360	486640	0	0
2024-06-12 00:23:32			0	39698	0	0	0	26122	24760	128950	27048	1016194	42059	109672	0	0	8360	487102	0	0
2024-06-12 00:24:32			0	39685	0	0	0	26124	24760	129026	27027	1016158	42058	109673	0	0	8359	487573	0	0
2024-06-12 00:25:32			0	39711	0	0	0	26103	24750	129042	26946	1016141	42068	109665	0	0	8361	486659	0	0
2024-06-12 00:26:32			0	39704	0	0	0	26106	24750	129026	27033	1016061	42080	109666	0	0	8360	486912	0	0
2024-06-12 00:27:32			0	39674	0	0	0	26103	24740	129102	26864	1016070	42068	109665	0	0	8359	488028	0	0
2024-06-12 00:28:32			0	39684	0	0	0	26101	24730	129134	27126	1016035	42055	109664	0	0	8359	487693	0	0
2024-06-12 00:29:32			0	39656	0	0	0	26103	24730	129082	26949	1016115	42067	109665	0	0	8358	488709	0	0
2024-06-12 00:30:32			0	39662	0	0	0	26111	24740	129146	26906	1016044	42068	109668	0	0	8358	488463	0	0
2024-06-12 00:31:32			0	39657	0	0	0	26103	24730	129158	27126	1016080	42055	109665	0	0	8358	488673	0	0
2024-06-12 00:32:32			0	39657	0	0	0	26111	24730	129150	26816	1016115	42067	109668	0	0	8358	488673	0	0
2024-06-12 00:33:32			0	39646	0	0	0	26109	24730	129250	27225	1016107	42067	109667	0	0	8357	489072	0	0
2024-06-12 00:34:32			0	39648	0	0	0	26109	24730	129166	26887	1016142	42067	109667	0	0	8357	489000	0	0
2024-06-12 00:35:32			0	39619	0	0	0	26116	24730	129294	26932	1016169	42088	109670	0	0	8356	490054	0	0
2024-06-12 00:36:32			0	39627	0	0	0	26122	24740	129298	27270	1016151	42068	109672	0	0	8356	489735	0	0
2024-06-12 00:37:32			0	39602	0	0	0	26127	24730	129318	27097	1016169	42100	109674	0	0	8355	490672	0	0
2024-06-12 00:38:32			0	39619	0	0	0	26137	24740	129310	27043	1016231	42079	109678	0	0	8355	490026	0	0
2024-06-12 00:39:32			0	39591	0	0	0	26140	24750	129230	26941	1016275	42090	109679	0	0	8354	491017	0	0
2024-06-12 00:40:32			0	39595	0	0	0	26127	24750	129338	26942	1016168	42080	109674	0	0	8354	490872	0	0
2024-06-12 00:41:32			0	39598	0	0	0	26114	24740	129370	26989	1016124	42056	109669	0	0	8355	490790	0	0
2024-06-12 00:42:32			0	39602	0	0	0	26096	24720	129398	27046	1015929	42066	109662	0	0	8355	490700	0	0
2024-06-12 00:43:32			0	39563	0	0	0	26077	24720	129378	27128	1015876	42054	109655	0	0	8353	492121	0	0
2024-06-12 00:44:32			0	39567	0	0	0	26064	24700	129462	27390	1015815	42041	109650	0	0	8354	492031	0	0
2024-06-12 00:45:32			0	39575	0	0	0	26046	24680	129502	27229	1015753	42061	109643	0	0	8354	491795	0	0
2024-06-12 00:46:32			0	39552	0	0	0	26038	24680	129522	27230	1015780	42061	109640	0	0	8353	492634	0	0
2024-06-12 00:47:32			0	39556	0	0	0	26025	24670	129486	26951	1015683	42060	109635	0	0	8354	492516	0	0
2024-06-12 00:48:32			0	39537	0	0	0	26010	24670	129514	27222	1015602	42060	109629	0	0	8353	493209	0	0
2024-06-12 00:49:32			0	39526	0	0	0	25992	24650	129610	27017	1015550	42059	109622	0	0	8353	493667	0	0
2024-06-12 00:50:32			0	39559	0	0	0	25979	24640	129510	27112	1015613	42058	109617	0	0	8354	492490	0	0
2024-06-12 00:51:32			0	39530	0	0	0	25984	24640	129642	27138	1015497	42046	109619	0	0	8353	493549	0	0
2024-06-12 00:52:32			0	39512	0	0	0	25958	24620	129678	27036	1015418	42045	109609	0	0	8352	494262	0	0
2024-06-12 00:53:32			0	39501	0	0	0	25945	24590	129746	27293	1015348	42021	109604	0	0	8352	494749	0	0
2024-06-12 00:54:32			0	39493	0	0	0	25919	24590	129686	27319	1015206	42053	109594	0	0	8352	495041	0	0
2024-06-12 00:55:32			0	39497	0	0	0	25906	24570	129694	27064	1015100	42041	109589	0	0	8352	494951	0	0
2024-06-12 00:56:32			0	39489	0	0	0	25890	24560	129702	27225	1015128	42050	109583	0	0	8352	495272	0	0
2024-06-12 00:57:32			0	39487	0	0	0	25888	24540	129790	27291	1015022	42027	109582	0	0	8352	495401	0	0
2024-06-12 00:58:32			0	39486	0	0	0	25880	24530	129854	27289	1015005	42027	109579	0	0	8352	495466	0	0
2024-06-12 00:59:32			0	39470	0	0	0	25867	24520	129890	27360	1014907	42036	109574	0	0	8351	496080	0	0
2024-06-12 01:00:32			0	39450	0	0	0	25844	24510	129962	27289	1014890	42035	109565	0	0	8351	496841	0	0
2024-06-12 01:01:32			0	39433	0	0	0	25841	24510	130018	27071	1014962	42046	109564	0	0	8350	497465	0	0
2024-06-12 01:02:32			0	39423	0	0	0	25836	24490	130018	26982	1014829	42044	109562	0	0	8349	497888	0	0
2024-06-12 01:03:32			0	39428	0	0	0	25818	24480	130034	27109	1014777	42053	109555	0	0	8350	497733	0	0
2024-06-12 01:04:32			0	39419	0	0	0	25818	24470	130017	27144	1014733	42032	109555	0	0	8349	498092	0	0
2024-06-12 01:05:32			0	39400	0	0	0	25823	24460	130009	27057	1014778	42041	109557	0	0	8348	498818	0	0
2024-06-12 01:06:32			0	39384	0	0	0	25812	24470	130137	26864	1014733	42009	109553	0	0	8348	499379	0	0
2024-06-12 01:07:32			0	39371	0	0	0	25810	24460	130241	27352	1014742	42030	109552	0	0	8347	499885	0	0
2024-06-12 01:08:32			0	39351	0	0	0	25815	24460	130253	27166	1014742	42041	109554	0	0	8346	500622	0	0
2024-06-12 01:09:32			0	39354	0	0	0	25825	24450	130225	27284	1014779	42030	109558	0	0	8346	500540	0	0
2024-06-12 01:10:32			0	39341	0	0	0	25823	24450	130301	27277	1014725	42052	109557	0	0	8345	501019	0	0
2024-06-12 01:11:32			0	39326	0	0	0	25812	24450	130305	27055	1014760	42030	109553	0	0	8344	501572	0	0
2024-06-12 01:12:32			0	39314	0	0	0	25828	24460	130441	26994	1014849	42041	109559	0	0	8344	501986	0	0
2024-06-12 01:13:32			0	39291	0	0	0	25831	24450	130385	27029	1014894	42041	109560	0	0	8342	502864	0	0
2024-06-12 01:14:32			0	39284	0	0	0	25846	24450	130325	27190	1014841	42030	109566	0	0	8342	503123	0	0
2024-06-12 01:15:32			0	39282	0	0	0	25849	24470	130541	27379	1014893	42042	109567	0	0	8342	503140	0	0
2024-06-12 01:16:32			0	39253	0	0	0	25862	24470	130589	27166	1014893	42053	109572	0	0	8340	504212	0	0
2024-06-12 01:17:32			0	39246	0	0	0	25877	24480	130597	27159	1014964	42042	109578	0	0	8339	504442	0	0
2024-06-12 01:18:32			0	39213	0	0	0	25880	24490	130633	27170	1014954	42044	109579	0	0	8338	505636	0	0
2024-06-12 01:19:32			0	39196	0	0	0	25888	24480	130645	27251	1015017	42042	109582	0	0	8337	506295	0	0
2024-06-12 01:20:32			0	39198	0	0	0	25888	24480	130725	27291	1015106	42043	109582	0	0	8337	506221	0	0
2024-06-12 01:21:32			0	39169	0	0	0	25896	24510	130729	27417	1015095	42057	109585	0	0	8335	507211	0	0
2024-06-12 01:22:32			0	39181	0	0	0	25909	24510	130729	27334	1015149	42057	109590	0	0	8336	506765	0	0
2024-06-12 01:23:32			0	39145	0	0	0	25929	24520	130909	27378	1015201	42058	109598	0	0	8333	508073	0	0
2024-06-12 01:24:32			0	39137	0	0	0	25935	24520	130885	27371	1015166	42047	109600	0	0	8333	508371	0	0
2024-06-12 01:25:32			0	39134	0	0	0	25937	24530	130917	27192	1015165	42048	109601	0	0	8333	508454	0	0
2024-06-12 01:26:32			0	39087	0	0	0	25927	24530	130965	27260	1015183	42059	109597	0	0	8331	510203	0	0
2024-06-12 01:27:32			0	39092	0	0	0	25924	24520	131005	27074	1015193	42047	109596	0	0	8331	510045	0	0
2024-06-12 01:28:32			0	39084	0	0	0	25914	24530	131121	27052	1015112	42048	109592	0	0	8331	510314	0	0
2024-06-12 01:29:32			0	39050	0	0	0	25896	24520	131129	27355	1015006	42036	109585	0	0	8329	511611	0	0
2024-06-12 01:30:32			0	39070	0	0	0	25898	24510	131157	26922	1015131	42057	109586	0	0	8330	510894	0	0
2024-06-12 01:31:32			0	39049	0	0	0	25896	24510	131113	26864	1015069	42035	109585	0	0	8329	511677	0	0
2024-06-12 01:32:32			0	39039	0	0	0	25885	24510	131277	27665	1015024	42035	109581	0	0	8329	512050	0	0
2024-06-12 01:33:32			0	39032	0	0	0	25888	24510	131273	27267	1015042	42046	109582	0	0	8328	512312	0	0
2024-06-12 01:34:32			0	39020	0	0	0	25890	24510	131297	27237	1015042	42057	109583	0	0	8328	512760	0	0
2024-06-12 01:35:32			0	39009	0	0	0	25883	24510	131249	27069	1014988	42057	109580	0	0	8327	513171	0	0
2024-06-12 01:36:32			0	38994	0	0	0	25883	24500	131285	27377	1014926	42034	109580	0	0	8326	513761	0	0
2024-06-12 01:37:32			0	38984	0	0	0	25875	24500	131373	27256	1015033	42067	109577	0	0	8326	514135	0	0
2024-06-12 01:38:32			0	38978	0	0	0	25885	24510	131357	27107	1015042	42057	109581	0	0	8326	514331	0	0
2024-06-12 01:39:32			0	38967	0	0	0	25883	24500	131493	27277	1015007	42045	109580	0	0	8325	514771	0	0
2024-06-12 01:40:32			0	38960	0	0	0	25880	24500	131537	26913	1015060	42034	109579	0	0	8325	515034	0	0
2024-06-12 01:41:32			0	38941	0	0	0	25885	24510	131529	27097	1015069	42046	109581	0	0	8324	515717	0	0
2024-06-12 01:42:32			0	38939	0	0	0	25893	24500	131537	27053	1015087	42045	109584	0	0	8323	515821	0	0
2024-06-12 01:43:32			0	38917	0	0	0	25893	24510	131573	27353	1015015	42057	109584	0	0	8322	516617	0	0
2024-06-12 01:44:32			0	38917	0	0	0	25888	24510	131653	27175	1015069	42057	109582	0	0	8322	516617	0	0
2024-06-12 01:45:32			0	38909	0	0	0	25893	24510	131621	27345	1015104	42046	109584	0	0	8322	516917	0	0
2024-06-12 01:46:32			0	38892	0	0	0	25898	24500	131605	27376	1015060	42056	109586	0	0	8321	517585	0	0
2024-06-12 01:47:32			0	38906	0	0	0	25893	24500	131605	27209	1015052	42033	109584	0	0	8322	517059	0	0
2024-06-12 01:48:32			0	38888	0	0	0	25885	24500	131673	26896	1015025	42033	109581	0	0	8321	517735	0	0
2024-06-12 01:49:32			0	38885	0	0	0	25888	24500	131645	27258	1015007	42045	109582	0	0	8321	517848	0	0
2024-06-12 01:50:32			0	38883	0	0	0	25883	24500	131717	27142	1015033	42056	109580	0	0	8321	517923	0	0
2024-06-12 01:51:32			0	38872	0	0	0	25890	24500	131713	27275	1015025	42044	109583	0	0	8320	518337	0	0
2024-06-12 01:52:32			0	38884	0	0	0	25888	24510	131757	27267	1015042	42046	109582	0	0	8321	517856	0	0
2024-06-12 01:53:32			0	38877	0	0	0	25883	24500	131725	27147	1015060	42045	109580	0	0	8320	518149	0	0
2024-06-12 01:54:32			0	38877	0	0	0	25880	24510	131897	27064	1015042	42046	109579	0	0	8320	518119	0	0
2024-06-12 01:55:32			0	38846	0	0	0	25870	24500	131813	27079	1014945	42033	109575	0	0	8319	519315	0	0
2024-06-12 01:56:32			0	38834	0	0	0	25872	24500	131733	27154	1014918	42055	109576	0	0	8318	519767	0	0
2024-06-12 01:57:32			0	38845	0	0	0	25870	24490	131877	27135	1015008	42055	109575	0	0	8319	519382	0	0
2024-06-12 01:58:32			0	38827	0	0	0	25877	24490	131825	26849	1014990	42066	109578	0	0	8318	520060	0	0
2024-06-12 01:59:32			0	38852	0	0	0	25877	24490	131837	27206	1014981	42055	109578	0	0	8319	519118	0	0
2024-06-12 02:00:32			0	38814	0	0	0	25880	24500	131897	27204	1015087	42056	109579	0	0	8317	520520	0	0
2024-06-12 02:01:32			0	38825	0	0	0	25903	24510	131865	27156	1015122	42068	109588	0	0	8317	520076	0	0
2024-06-12 02:02:32			0	38804	0	0	0	25909	24520	131917	27012	1015193	42047	109590	0	0	8316	520838	0	0
2024-06-12 02:03:32			0	38821	0	0	0	25919	24520	131825	27024	1015220	42058	109594	0	0	8317	520198	0	0
2024-06-12 02:04:32			0	38823	0	0	0	25927	24530	131893	27251	1015192	42048	109597	0	0	8317	520093	0	0
2024-06-12 02:05:32			0	38808	0	0	0	25937	24530	131901	26934	1015263	42059	109601	0	0	8316	520658	0	0
2024-06-12 02:06:32			0	38802	0	0	0	25937	24530	131881	26975	1015165	42048	109601	0	0	8316	520884	0	0
2024-06-12 02:07:32			0	38813	0	0	0	25924	24530	131941	27177	1015192	42048	109596	0	0	8316	520470	0	0
2024-06-12 02:08:32			0	38789	0	0	0	25914	24520	131897	27244	1015094	42047	109592	0	0	8315	521404	0	0
2024-06-12 02:09:32			0	38803	0	0	0	25901	24520	131973	27201	1015094	42036	109587	0	0	8316	520876	0	0
2024-06-12 02:10:32			0	38801	0	0	0	25880	24530	131985	27229	1015076	42047	109579	0	0	8317	520922	0	0
2024-06-12 02:11:32			0	38792	0	0	0	25870	24500	131961	27355	1014945	42033	109575	0	0	8316	521350	0	0
2024-06-12 02:12:32			0	38804	0	0	0	25859	24510	132037	27121	1015015	42046	109571	0	0	8317	520868	0	0
2024-06-12 02:13:32			0	38818	0	0	0	25862	24490	131993	27144	1014936	42044	109572	0	0	8318	520399	0	0
2024-06-12 02:14:32			0	38805	0	0	0	25854	24480	132001	27306	1014892	42033	109569	0	0	8317	520919	0	0
2024-06-12 02:15:32			0	38778	0	0	0	25846	24490	132021	27291	1014901	42044	109566	0	0	8316	521908	0	0
2024-06-12 02:16:32			0	38796	0	0	0	25849	24470	132013	27445	1014875	42053	109567	0	0	8317	521288	0	0
2024-06-12 02:17:32			0	38797	0	0	0	25854	24470	132017	26922	1014875	42053	109569	0	0	8317	521250	0	0
2024-06-12 02:18:32			0	38783	0	0	0	25841	24490	131985	27012	1014847	42044	109564	0	0	8316	521719	0	0
2024-06-12 02:19:32			0	38788	0	0	0	25849	24480	132049	27095	1014857	42053	109567	0	0	8316	521560	0	0
2024-06-12 02:20:32			0	38780	0	0	0	25849	24480	132037	27119	1014865	42043	109567	0	0	8316	521862	0	0
2024-06-12 02:21:32			0	38773	0	0	0	25851	24480	132005	27053	1014892	42054	109568	0	0	8315	522126	0	0
2024-06-12 02:22:32			0	38769	0	0	0	25851	24470	131981	26883	1014893	42053	109568	0	0	8315	522307	0	0
2024-06-12 02:23:32			0	38798	0	0	0	25851	24470	132025	27024	1014893	42042	109568	0	0	8317	521212	0	0
2024-06-12 02:24:32			0	38791	0	0	0	25854	24470	132049	27053	1014875	42042	109569	0	0	8316	521476	0	0
2024-06-12 02:25:32			0	38780	0	0	0	25859	24470	132013	27062	1014840	42053	109571	0	0	8316	521892	0	0
2024-06-12 02:26:32			0	38779	0	0	0	25857	24470	132025	27133	1014875	42053	109570	0	0	8316	521929	0	0
2024-06-12 02:27:32			0	38782	0	0	0	25854	24470	132049	26996	1014875	42032	109569	0	0	8316	521816	0	0
2024-06-12 02:28:32			0	38783	0	0	0	25857	24470	132069	26765	1014875	42053	109570	0	0	8316	521778	0	0
2024-06-12 02:29:32			0	38798	0	0	0	25859	24470	132033	26894	1014840	42053	109571	0	0	8317	521212	0	0
2024-06-12 02:30:32			0	38767	0	0	0	25859	24470	132045	26922	1014902	42042	109571	0	0	8315	522383	0	0
2024-06-12 02:31:32			0	38770	0	0	0	25857	24460	131985	26918	1014858	42031	109570	0	0	8315	522299	0	0
2024-06-12 02:32:32			0	38785	0	0	0	25857	24470	132109	26733	1014875	42042	109570	0	0	8316	521703	0	0
2024-06-12 02:33:32			0	38763	0	0	0	25854	24460	132049	27147	1014885	42052	109569	0	0	8315	522563	0	0
2024-06-12 02:34:32			0	38763	0	0	0	25857	24470	132193	27007	1014893	42053	109570	0	0	8315	522534	0	0
2024-06-12 02:35:32			0	38743	0	0	0	25867	24470	132029	26824	1014866	42042	109574	0	0	8314	523290	0	0
2024-06-12 02:36:32			0	38771	0	0	0	25870	24470	132105	27235	1014875	42053	109575	0	0	8315	522231	0	0
2024-06-12 02:37:32			0	38744	0	0	0	25859	24470	132085	27066	1014893	42042	109571	0	0	8314	523252	0	0
2024-06-12 02:38:32			0	38748	0	0	0	25864	24460	132169	26986	1014938	42041	109573	0	0	8314	523130	0	0
2024-06-12 02:39:32			0	38752	0	0	0	25862	24480	132157	26965	1014884	42042	109572	0	0	8314	522920	0	0
2024-06-12 02:40:32			0	38728	0	0	0	25870	24480	132236	27137	1014884	42042	109575	0	0	8313	523828	0	0
2024-06-12 02:41:32			0	38700	0	0	0	25875	24480	132156	26970	1014910	42053	109577	0	0	8311	524888	0	0
2024-06-12 02:42:32			0	38708	0	0	0	25875	24480	132192	27133	1014991	42042	109577	0	0	8312	524585	0	0
2024-06-12 02:43:32			0	38719	0	0	0	25875	24480	132140	27511	1014972	42043	109577	0	0	8312	524168	0	0
2024-06-12 02:44:32			0	38703	0	0	0	25875	24480	132124	27017	1014972	42054	109577	0	0	8311	524774	0	0
2024-06-12 02:45:32			0	38699	0	0	0	25875	24490	132096	27092	1015034	42044	109577	0	0	8311	524896	0	0
2024-06-12 02:46:32			0	38694	0	0	0	25885	24480	132200	27170	1014946	42054	109581	0	0	8311	525115	0	0
2024-06-12 02:47:32			0	38686	0	0	0	25888	24490	132264	27161	1015034	42055	109582	0	0	8310	525389	0	0
2024-06-12 02:48:32			0	38669	0	0	0	25890	24490	132232	27164	1014981	42055	109583	0	0	8309	526034	0	0
2024-06-12 02:49:32			0	38664	0	0	0	25896	24490	132404	27088	1015034	42044	109585	0	0	8309	526223	0	0
2024-06-12 02:50:32			0	38657	0	0	0	25890	24500	132300	27287	1015025	42055	109583	0	0	8309	526459	0	0
2024-06-12 02:51:32			0	38652	0	0	0	25896	24490	132420	27024	1015043	42066	109585	0	0	8308	526679	0	0
2024-06-12 02:52:32			0	38641	0	0	0	25906	24510	132404	27391	1015104	42046	109589	0	0	8308	527037	0	0
2024-06-12 02:53:32			0	38649	0	0	0	25919	24510	132416	26942	1015149	42080	109594	0	0	8308	526733	0	0
2024-06-12 02:54:32			0	38624	0	0	0	25935	24520	132440	27182	1015193	42081	109600	0	0	8306	527653	0	0
2024-06-12 02:55:32			0	38615	0	0	0	25929	24520	132508	27370	1015113	42069	109598	0	0	8306	527995	0	0
2024-06-12 02:56:32			0	38628	0	0	0	25942	24520	132536	27105	1015175	42058	109603	0	0	8307	527501	0	0
2024-06-12 02:57:32			0	38622	0	0	0	25937	24520	132528	27196	1015193	42058	109601	0	0	8306	527729	0	0
2024-06-12 02:58:32			0	38621	0	0	0	25937	24530	132476	27133	1015156	42070	109601	0	0	8306	527737	0	0
2024-06-12 02:59:32			0	38596	0	0	0	25937	24530	132556	27201	1015272	42060	109601	0	0	8305	528688	0	0
2024-06-12 03:00:32			0	38584	0	0	0	25940	24530	132556	27301	1015138	42060	109602	0	0	8304	529145	0	0
2024-06-12 03:01:32			0	38583	0	0	0	25950	24530	132616	26828	1015210	42070	109606	0	0	8304	529183	0	0
2024-06-12 03:02:32			0	38596	0	0	0	25948	24540	132608	26970	1015209	42071	109605	0	0	8305	528658	0	0
2024-06-12 03:03:32			0	38582	0	0	0	25940	24540	132628	27326	1015254	42071	109602	0	0	8304	529191	0	0
2024-06-12 03:04:32			0	38581	0	0	0	25940	24540	132600	27124	1015227	42071	109602	0	0	8304	529229	0	0
2024-06-12 03:05:32			0	38560	0	0	0	25940	24530	132624	26859	1015245	42071	109602	0	0	8303	530059	0	0
2024-06-12 03:06:32			0	38576	0	0	0	25927	24530	132596	27085	1015210	42070	109597	0	0	8304	529449	0	0
2024-06-12 03:07:32			0	38569	0	0	0	25916	24530	132576	27124	1015156	42059	109593	0	0	8304	529716	0	0
2024-06-12 03:08:32			0	38569	0	0	0	25901	24530	132616	26913	1015103	42047	109587	0	0	8304	529716	0	0
2024-06-12 03:09:32			0	38557	0	0	0	25880	24520	132640	27114	1015041	42047	109579	0	0	8304	530203	0	0
2024-06-12 03:10:32			0	38556	0	0	0	25862	24510	132724	27026	1014935	42046	109572	0	0	8304	530271	0	0
2024-06-12 03:11:32			0	38562	0	0	0	25857	24510	132660	27100	1014935	42046	109570	0	0	8305	530043	0	0
2024-06-12 03:12:32			0	38565	0	0	0	25838	24500	132632	27303	1014864	42044	109563	0	0	8305	529958	0	0
2024-06-12 03:13:32			0	38551	0	0	0	25838	24490	132712	27261	1014882	42044	109563	0	0	8304	530522	0	0
2024-06-12 03:14:32			0	38549	0	0	0	25833	24490	132680	27083	1014829	42044	109561	0	0	8304	530598	0	0
2024-06-12 03:15:32			0	38551	0	0	0	25812	24480	132652	27206	1014812	42033	109553	0	0	8305	530552	0	0
2024-06-12 03:16:32			0	38551	0	0	0	25807	24470	132676	27192	1014741	42053	109551	0	0	8305	530582	0	0
2024-06-12 03:17:32			0	38565	0	0	0	25815	24460	132632	27353	1014751	42041	109554	0	0	8305	530078	0	0
2024-06-12 03:18:32			0	38552	0	0	0	25805	24470	132644	26896	1014786	42053	109550	0	0	8305	530544	0	0
2024-06-12 03:19:32			0	38560	0	0	0	25802	24450	132668	26923	1014760	42041	109549	0	0	8305	530299	0	0
2024-06-12 03:20:32			0	38565	0	0	0	25799	24450	132780	27313	1014725	42019	109548	0	0	8305	530108	0	0
2024-06-12 03:21:32			0	38556	0	0	0	25797	24440	132784	27251	1014743	42051	109547	0	0	8305	530481	0	0
2024-06-12 03:22:32			0	38554	0	0	0	25797	24440	132664	27171	1014663	42040	109547	0	0	8305	530558	0	0
2024-06-12 03:23:32			0	38569	0	0	0	25789	24440	132700	27064	1014663	42040	109544	0	0	8306	529986	0	0
2024-06-12 03:24:32			0	38569	0	0	0	25792	24440	132616	27310	1014655	42028	109545	0	0	8306	529986	0	0
2024-06-12 03:25:32			0	38562	0	0	0	25781	24430	132656	26937	1014637	42060	109541	0	0	8306	530282	0	0
2024-06-12 03:26:32			0	38546	0	0	0	25774	24420	132712	26987	1014548	42038	109538	0	0	8305	530923	0	0
2024-06-12 03:27:32			0	38572	0	0	0	25768	24410	132636	26880	1014478	42047	109536	0	0	8306	529961	0	0
2024-06-12 03:28:32			0	38563	0	0	0	25766	24410	132660	27448	1014558	42037	109535	0	0	8306	530304	0	0
2024-06-12 03:29:32			0	38570	0	0	0	25763	24400	132644	27391	1014487	42037	109534	0	0	8306	530067	0	0
2024-06-12 03:30:32			0	38568	0	0	0	25763	24410	132680	27027	1014496	42037	109534	0	0	8306	530114	0	0
2024-06-12 03:31:32			0	38575	0	0	0	25771	24410	132728	27140	1014549	42037	109537	0	0	8306	529847	0	0
2024-06-12 03:32:32			0	38586	0	0	0	25763	24400	132660	27164	1014479	42036	109534	0	0	8307	529458	0	0
2024-06-12 03:33:32			0	38591	0	0	0	25758	24390	132592	27267	1014470	42035	109532	0	0	8307	529297	0	0
2024-06-12 03:34:32			0	38599	0	0	0	25753	24400	132604	27225	1014425	42036	109530	0	0	8308	528962	0	0
2024-06-12 03:35:32			0	38585	0	0	0	25755	24390	132684	27239	1014443	42045	109531	0	0	8307	529526	0	0
2024-06-12 03:36:32			0	38584	0	0	0	25761	24380	132592	26920	1014525	42044	109533	0	0	8307	529594	0	0
2024-06-12 03:37:32			0	38573	0	0	0	25755	24380	132612	27249	1014400	42024	109531	0	0	8306	530013	0	0
2024-06-12 03:38:32			0	38605	0	0	0	25755	24370	132656	27339	1014382	42033	109531	0	0	8308	528824	0	0
2024-06-12 03:39:32			0	38587	0	0	0	25753	24370	132596	27092	1014409	42043	109530	0	0	8307	529509	0	0
2024-06-12 03:40:32			0	38613	0	0	0	25761	24370	132628	27131	1014436	42033	109533	0	0	8308	528519	0	0
2024-06-12 03:41:32			0	38612	0	0	0	25753	24380	132548	27258	1014418	42044	109530	0	0	8308	528527	0	0
2024-06-12 03:42:32			0	38611	0	0	0	25755	24370	132532	26923	1014436	42043	109531	0	0	8308	528595	0	0
2024-06-12 03:43:32			0	38606	0	0	0	25753	24380	132536	27355	1014444	42034	109530	0	0	8308	528756	0	0
2024-06-12 03:44:32			0	38621	0	0	0	25763	24370	132564	27403	1014382	42033	109534	0	0	8309	528215	0	0
2024-06-12 03:45:32			0	38628	0	0	0	25750	24360	132488	27182	1014339	42042	109529	0	0	8309	527978	0	0
2024-06-12 03:46:32			0	38634	0	0	0	25745	24380	132536	27265	1014444	42044	109527	0	0	8310	527691	0	0
2024-06-12 03:47:32			0	38628	0	0	0	25732	24370	132432	27211	1014382	42055	109522	0	0	8309	527949	0	0
2024-06-12 03:48:32			0	38666	0	0	0	25714	24350	132380	27095	1014259	42019	109515	0	0	8312	526564	0	0
2024-06-12 03:49:32			0	38640	0	0	0	25701	24350	132424	27133	1014268	42031	109510	0	0	8311	527552	0	0
2024-06-12 03:50:32			0	38661	0	0	0	25706	24340	132360	27367	1014224	42041	109512	0	0	8312	526784	0	0
2024-06-12 03:51:32			0	38668	0	0	0	25711	24350	132404	27013	1014286	42041	109514	0	0	8312	526488	0	0
2024-06-12 03:52:32			0	38682	0	0	0	25709	24350	132388	27173	1014268	42041	109513	0	0	8313	525957	0	0
2024-06-12 03:53:32			0	38682	0	0	0	25716	24340	132392	27324	1014278	42041	109516	0	0	8312	525986	0	0
2024-06-12 03:54:32			0	38692	0	0	0	25732	24350	132340	27197	1014313	42052	109522	0	0	8313	525577	0	0
2024-06-12 03:55:32			0	38667	0	0	0	25729	24350	132364	27235	1014286	42052	109521	0	0	8311	526526	0	0
2024-06-12 03:56:32			0	38686	0	0	0	25735	24350	132320	27223	1014295	42041	109523	0	0	8312	525805	0	0
2024-06-12 03:57:32			0	38679	0	0	0	25727	24340	132308	26989	1014251	42030	109520	0	0	8312	526100	0	0
2024-06-12 03:58:32			0	38695	0	0	0	25732	24350	132280	27258	1014375	42041	109522	0	0	8313	525463	0	0
2024-06-12 03:59:32			0	38695	0	0	0	25737	24340	132308	27041	1014331	42030	109524	0	0	8313	525493	0	0
2024-06-12 04:00:32			0	38708	0	0	0	25737	24350	132276	27045	1014340	42041	109524	0	0	8313	524970	0	0
2024-06-12 04:01:32			0	38709	0	0	0	25727	24350	132252	26982	1014321	42041	109520	0	0	8314	524933	0	0
2024-06-12 04:02:32			0	38701	0	0	0	25737	24350	132400	27301	1014233	42041	109524	0	0	8313	525236	0	0
2024-06-12 04:03:32			0	38707	0	0	0	25740	24350	132208	27319	1014321	42031	109525	0	0	8313	525008	0	0
2024-06-12 04:04:32			0	38701	0	0	0	25724	24340	132268	27222	1014278	42019	109519	0	0	8313	525265	0	0
2024-06-12 04:05:32			0	38722	0	0	0	25727	24350	132224	27274	1014233	42030	109520	0	0	8314	524440	0	0
2024-06-12 04:06:32			0	38739	0	0	0	25722	24340	132233	27046	1014296	42030	109518	0	0	8315	523826	0	0
2024-06-12 04:07:32			0	38700	0	0	0	25722	24350	132212	27145	1014206	42041	109518	0	0	8313	525274	0	0
2024-06-12 04:08:32			0	38699	0	0	0	25722	24340	132236	27298	1014251	42041	109518	0	0	8313	525341	0	0
2024-06-12 04:09:32			0	38715	0	0	0	25716	24330	132224	27324	1014207	42029	109516	0	0	8314	524764	0	0
2024-06-12 04:10:32			0	38699	0	0	0	25714	24340	132216	27102	1014296	42041	109515	0	0	8313	525341	0	0
2024-06-12 04:11:32			0	38708	0	0	0	25714	24330	132240	27008	1014207	42029	109515	0	0	8314	525030	0	0
2024-06-12 04:12:32			0	38700	0	0	0	25714	24330	132196	26974	1014180	42051	109515	0	0	8313	525333	0	0
2024-06-12 04:13:32			0	38705	0	0	0	25716	24330	132292	27180	1014234	42041	109516	0	0	8314	525143	0	0
2024-06-12 04:14:32			0	38734	0	0	0	25716	24330	132212	27064	1014207	42041	109516	0	0	8315	524045	0	0
2024-06-12 04:15:32			0	38717	0	0	0	25714	24330	132280	27294	1014234	42029	109515	0	0	8314	524689	0	0
2024-06-12 04:16:32			0	38686	0	0	0	25706	24330	132316	27150	1014234	42041	109512	0	0	8313	525864	0	0
2024-06-12 04:17:32			0	38705	0	0	0	25714	24340	132272	27355	1014296	42041	109515	0	0	8314	525114	0	0
2024-06-12 04:18:32			0	38675	0	0	0	25714	24330	132384	27194	1014260	42041	109515	0	0	8312	526282	0	0
2024-06-12 04:19:32			0	38694	0	0	0	25716	24340	132348	27237	1014242	42041	109516	0	0	8313	525531	0	0
2024-06-12 04:20:32			0	38683	0	0	0	25716	24340	132320	27400	1014269	42030	109516	0	0	8312	525948	0	0
2024-06-12 04:21:32			0	38693	0	0	0	25711	24330	132388	27170	1014260	42041	109514	0	0	8313	525599	0	0
2024-06-12 04:22:32			0	38668	0	0	0	25719	24330	132384	27303	1014279	42040	109517	0	0	8312	526548	0	0
2024-06-12 04:23:32			0	38699	0	0	0	25719	24330	132380	27261	1014260	42051	109517	0	0	8313	525371	0	0
2024-06-12 04:24:32			0	38669	0	0	0	25714	24340	132356	27301	1014269	42030	109515	0	0	8312	526480	0	0
2024-06-12 04:25:32			0	38694	0	0	0	25711	24330	132392	26956	1014225	42028	109514	0	0	8313	525561	0	0
2024-06-12 04:26:32			0	38665	0	0	0	25711	24340	132476	27296	1014296	42041	109514	0	0	8312	526632	0	0
2024-06-12 04:27:32			0	38646	0	0	0	25719	24330	132428	27062	1014234	42041	109517	0	0	8310	527383	0	0
2024-06-12 04:28:32			0	38664	0	0	0	25716	24340	132372	26821	1014278	42030	109516	0	0	8312	526670	0	0
2024-06-12 04:29:32			0	38663	0	0	0	25722	24330	132336	27066	1014287	42029	109518	0	0	8311	526737	0	0
2024-06-12 04:30:32			0	38665	0	0	0	25722	24330	132428	27036	1014225	42040	109518	0	0	8311	526661	0	0
2024-06-12 04:31:32			0	38649	0	0	0	25727	24320	132388	27168	1014243	42040	109520	0	0	8310	527299	0	0
2024-06-12 04:32:32			0	38645	0	0	0	25716	24330	132528	26951	1014252	42040	109516	0	0	8310	527421	0	0
2024-06-12 04:33:32			0	38650	0	0	0	25716	24330	132460	27204	1014252	42028	109516	0	0	8311	527231	0	0
2024-06-12 04:34:32			0	38620	0	0	0	25722	24330	132432	26991	1014252	42050	109518	0	0	8309	528372	0	0
2024-06-12 04:35:32			0	38624	0	0	0	25727	24320	132516	27150	1014243	42040	109520	0	0	8309	528250	0	0
2024-06-12 04:36:32			0	38630	0	0	0	25719	24330	132536	27364	1014207	42029	109517	0	0	8310	527992	0	0
2024-06-12 04:37:32			0	38607	0	0	0	25716	24340	132456	27369	1014215	42041	109516	0	0	8309	528837	0	0
2024-06-12 04:38:32			0	38633	0	0	0	25711	24340	132536	27310	1014242	42030	109514	0	0	8310	527848	0	0
2024-06-12 04:39:32			0	38613	0	0	0	25706	24330	132592	26989	1014207	42029	109512	0	0	8309	528639	0	0
2024-06-12 04:40:32			0	38615	0	0	0	25703	24320	132500	27116	1014190	42040	109511	0	0	8309	528592	0	0
2024-06-12 04:41:32			0	38598	0	0	0	25693	24320	132536	26913	1014128	42040	109507	0	0	8308	529240	0	0
2024-06-12 04:42:32			0	38603	0	0	0	25685	24330	132532	26857	1014172	42028	109504	0	0	8309	529019	0	0
2024-06-12 04:43:32			0	38599	0	0	0	25680	24310	132612	27086	1014173	42039	109502	0	0	8309	529232	0	0
2024-06-12 04:44:32			0	38593	0	0	0	25685	24310	132676	26942	1014092	42028	109504	0	0	8308	529460	0	0
2024-06-12 04:45:32			0	38587	0	0	0	25690	24320	132592	27100	1014136	42040	109506	0	0	8308	529659	0	0
2024-06-12 04:46:32			0	38590	0	0	0	25685	24300	132656	26928	1014164	42038	109504	0	0	8308	529604	0	0
2024-06-12 04:47:32			0	38566	0	0	0	25690	24300	132688	26965	1014084	42038	109506	0	0	8307	530519	0	0
2024-06-12 04:48:32			0	38577	0	0	0	25690	24310	132648	26661	1014119	42039	109506	0	0	8307	530070	0	0
2024-06-12 04:49:32			0	38558	0	0	0	25690	24310	132784	26873	1014173	42049	109506	0	0	8306	530795	0	0
2024-06-12 04:50:32			0	38566	0	0	0	25703	24320	132784	27161	1014128	42028	109511	0	0	8307	530460	0	0
2024-06-12 04:51:32			0	38550	0	0	0	25696	24300	132832	27274	1014191	42038	109508	0	0	8306	531130	0	0
2024-06-12 04:52:32			0	38565	0	0	0	25690	24310	132876	27055	1014199	42061	109506	0	0	8307	530528	0	0
2024-06-12 04:53:32			0	38559	0	0	0	25690	24310	132848	26965	1014146	42049	109506	0	0	8306	530757	0	0
2024-06-12 04:54:32			0	38555	0	0	0	25688	24300	132800	27050	1014128	42037	109505	0	0	8306	530939	0	0
2024-06-12 04:55:32			0	38520	0	0	0	25688	24300	132820	26797	1014137	42027	109505	0	0	8304	532276	0	0
2024-06-12 04:56:32			0	38529	0	0	0	25683	24310	132836	27187	1014092	42039	109503	0	0	8305	531902	0	0
2024-06-12 04:57:32			0	38511	0	0	0	25675	24300	132880	26939	1014128	42037	109500	0	0	8304	532620	0	0
2024-06-12 04:58:32			0	38524	0	0	0	25677	24290	132820	27079	1014120	42047	109501	0	0	8305	532153	0	0
2024-06-12 04:59:32			0	38496	0	0	0	25675	24300	132996	26911	1014128	42037	109500	0	0	8303	533194	0	0
2024-06-12 05:00:32			0	38519	0	0	0	25670	24290	132924	26592	1014146	42037	109498	0	0	8305	532344	0	0
2024-06-12 05:01:32			0	38490	0	0	0	25667	24300	132968	26760	1014102	42037	109497	0	0	8303	533424	0	0
2024-06-12 05:02:32			0	38488	0	0	0	25685	24300	132964	27121	1014155	42037	109504	0	0	8303	533500	0	0
2024-06-12 05:03:32			0	38500	0	0	0	25724	24310	132916	26979	1014253	42049	109519	0	0	8303	533011	0	0
2024-06-12 05:04:32			0	38466	0	0	0	25753	24320	133120	26746	1014315	42040	109530	0	0	8301	534283	0	0
2024-06-12 05:05:32			0	38461	0	0	0	25763	24340	133112	27097	1014429	42052	109534	0	0	8300	534414	0	0
2024-06-12 05:06:32			0	38468	0	0	0	25768	24340	133128	26915	1014456	42052	109536	0	0	8301	534146	0	0
2024-06-12 05:07:32			0	38467	0	0	0	25771	24340	133104	26944	1014376	42063	109537	0	0	8300	534184	0	0
2024-06-12 05:08:32			0	38471	0	0	0	25753	24330	133220	26909	1014332	42040	109530	0	0	8301	534061	0	0
2024-06-12 05:09:32			0	38458	0	0	0	25755	24350	133200	27053	1014393	42041	109531	0	0	8300	534499	0	0
2024-06-12 05:10:32			0	38448	0	0	0	25758	24350	133220	27111	1014482	42041	109532	0	0	8300	534882	0	0
2024-06-12 05:11:32			0	38435	0	0	0	25758	24350	133184	26963	1014447	42041	109532	0	0	8299	535380	0	0
2024-06-12 05:12:32			0	38432	0	0	0	25753	24360	133232	27156	1014357	42042	109530	0	0	8299	535465	0	0
2024-06-12 05:13:32			0	38415	0	0	0	25727	24350	133292	26854	1014286	42041	109520	0	0	8299	536148	0	0
2024-06-12 05:14:32			0	38415	0	0	0	25625	24340	133276	27265	1014002	42008	109481	0	0	8300	536178	0	0
2024-06-12 05:15:32			0	38416	0	0	0	25506	24300	133244	27293	1013701	41981	109435	0	0	8302	536261	0	0
2024-06-12 05:16:32			0	38399	0	0	0	25438	24250	133260	26765	1013463	41978	109409	0	0	8302	537066	0	0
2024-06-12 05:17:32			0	38388	0	0	0	25415	24210	133340	26909	1013386	41985	109400	0	0	8302	537610	0	0
2024-06-12 05:18:32			0	38383	0	0	0	25412	24190	133344	26923	1013307	41983	109399	0	0	8302	537863	0	0
2024-06-12 05:19:32			0	38367	0	0	0	25402	24170	133560	27020	1013210	42014	109395	0	0	8301	538540	0	0
2024-06-12 05:20:32			0	38353	0	0	0	25399	24140	133516	26894	1013221	42022	109394	0	0	8300	539171	0	0
2024-06-12 05:21:32			0	38363	0	0	0	25402	24130	133560	26750	1013177	42010	109395	0	0	8300	538816	0	0
2024-06-12 05:22:32			0	38360	0	0	0	25410	24120	133636	26928	1013133	42009	109398	0	0	8300	538962	0	0
2024-06-12 05:23:32			0	38332	0	0	0	25407	24100	133672	27199	1013045	41986	109397	0	0	8299	540102	0	0
2024-06-12 05:24:32			0	38323	0	0	0	25412	24110	133776	27005	1013001	41997	109399	0	0	8298	540419	0	0
2024-06-12 05:25:32			0	38329	0	0	0	25405	24090	133708	27041	1013046	41995	109396	0	0	8298	540249	0	0
2024-06-12 05:26:32			0	38322	0	0	0	25415	24090	133784	26930	1012966	42006	109400	0	0	8298	540519	0	0
2024-06-12 05:27:32			0	38313	0	0	0	25407	24080	133808	26849	1013065	42017	109397	0	0	8298	540897	0	0
2024-06-12 05:28:32			0	38307	0	0	0	25407	24060	133832	26689	1012968	42014	109397	0	0	8297	541190	0	0
2024-06-12 05:29:32			0	38324	0	0	0	25405	24050	133812	26875	1012986	42002	109396	0	0	8298	540563	0	0
2024-06-12 05:30:32			0	38319	0	0	0	25405	24060	133760	26797	1012941	42003	109396	0	0	8298	540726	0	0
2024-06-12 05:31:32			0	38318	0	0	0	25410	24040	133792	26812	1012916	41992	109398	0	0	8298	540826	0	0
2024-06-12 05:32:32			0	38303	0	0	0	25399	24040	133860	26937	1012942	42002	109394	0	0	8297	541405	0	0
2024-06-12 05:33:32			0	38307	0	0	0	25399	24050	133864	26918	1012924	42013	109394	0	0	8297	541220	0	0
2024-06-12 05:34:32			0	38294	0	0	0	25412	24040	133844	26776	1012889	42002	109399	0	0	8296	541753	0	0
2024-06-12 05:35:32			0	38310	0	0	0	25405	24030	133832	27034	1012907	42001	109396	0	0	8297	541165	0	0
2024-06-12 05:36:32			0	38302	0	0	0	25412	24040	133796	26941	1012916	42002	109399	0	0	8297	541444	0	0
2024-06-12 05:37:32			0	38315	0	0	0	25415	24030	133828	26833	1012979	41990	109400	0	0	8297	540972	0	0
2024-06-12 05:38:32			0	38298	0	0	0	25423	24030	133816	27369	1012899	42000	109403	0	0	8296	541629	0	0
2024-06-12 05:39:32			0	38289	0	0	0	25425	24020	133860	27232	1012863	41990	109404	0	0	8296	542008	0	0
2024-06-12 05:40:32			0	38283	0	0	0	25418	24030	133812	27291	1012907	42024	109401	0	0	8296	542209	0	0
2024-06-12 05:41:32			0	38274	0	0	0	25420	24030	133892	26812	1012979	41979	109402	0	0	8295	542558	0	0
2024-06-12 05:42:32			0	38276	0	0	0	25431	24020	134012	26674	1012917	42000	109406	0	0	8295	542511	0	0
2024-06-12 05:43:32			0	38260	0	0	0	25433	24020	133896	26752	1012917	42000	109407	0	0	8294	543130	0	0
2024-06-12 05:44:32			0	38260	0	0	0	25433	24030	133924	26975	1012934	42001	109407	0	0	8294	543100	0	0
2024-06-12 05:45:32			0	38251	0	0	0	25438	24030	134060	26918	1012987	42024	109409	0	0	8294	543448	0	0
2024-06-12 05:46:32			0	38236	0	0	0	25446	24030	134012	26925	1013006	42000	109412	0	0	8293	544030	0	0
2024-06-12 05:47:32			0	38226	0	0	0	25451	24030	134068	26726	1012961	42012	109414	0	0	8292	544417	0	0
2024-06-12 05:48:32			0	38212	0	0	0	25467	24050	134140	26899	1013138	42002	109420	0	0	8291	544899	0	0
2024-06-12 05:49:32			0	38202	0	0	0	25490	24050	134144	26844	1013200	42013	109429	0	0	8290	545287	0	0
2024-06-12 05:50:32			0	38201	0	0	0	25522	24070	134192	26842	1013226	42026	109441	0	0	8290	545264	0	0
2024-06-12 05:51:32			0	38199	0	0	0	25542	24070	134208	26604	1013261	42027	109449	0	0	8289	545342	0	0
2024-06-12 05:52:32			0	38173	0	0	0	25561	24080	134260	26989	1013323	42039	109456	0	0	8288	546321	0	0
2024-06-12 05:53:32			0	38170	0	0	0	25566	24100	134292	26927	1013384	42029	109458	0	0	8288	546376	0	0
2024-06-12 05:54:32			0	38176	0	0	0	25579	24100	134368	26809	1013438	42029	109463	0	0	8288	546143	0	0
2024-06-12 05:55:32			0	38166	0	0	0	25579	24120	134356	26793	1013499	42021	109463	0	0	8287	546470	0	0
2024-06-12 05:56:32			0	38147	0	0	0	25568	24120	134296	26928	1013427	42009	109459	0	0	8286	547209	0	0
2024-06-12 05:57:32			0	38151	0	0	0	25550	24120	134280	26963	1013312	42021	109452	0	0	8287	547053	0	0
2024-06-12 05:58:32			0	38144	0	0	0	25550	24110	134272	27102	1013437	41998	109452	0	0	8287	547356	0	0
2024-06-12 05:59:32			0	38137	0	0	0	25537	24120	134268	27241	1013400	42009	109447	0	0	8286	547598	0	0
2024-06-12 06:00:32			0	38150	0	0	0	25537	24120	134340	26847	1013400	42021	109447	0	0	8287	547092	0	0
2024-06-12 06:01:32			0	38148	0	0	0	25527	24120	134332	27019	1013285	42021	109443	0	0	8287	547170	0	0
2024-06-12 06:02:32			0	38123	0	0	0	25527	24120	134352	27170	1013400	42032	109443	0	0	8286	548143	0	0
2024-06-12 06:03:32			0	38137	0	0	0	25542	24120	134400	26878	1013400	42032	109449	0	0	8286	547598	0	0
2024-06-12 06:04:32			0	38145	0	0	0	25550	24130	134324	27062	1013391	42033	109452	0	0	8287	547256	0	0
2024-06-12 06:05:32			0	38130	0	0	0	25563	24130	134360	27022	1013436	42021	109457	0	0	8286	547840	0	0
2024-06-12 06:06:32			0	38146	0	0	0	25566	24130	134396	27008	1013498	42043	109458	0	0	8286	547217	0	0
2024-06-12 06:07:32			0	38134	0	0	0	25584	24150	134328	26791	1013523	42035	109465	0	0	8286	547622	0	0
2024-06-12 06:08:32			0	38161	0	0	0	25599	24140	134328	26852	1013595	42022	109471	0	0	8287	546603	0	0
2024-06-12 06:09:32			0	38176	0	0	0	25597	24150	134228	27007	1013577	42045	109470	0	0	8288	545989	0	0
2024-06-12 06:10:32			0	38223	0	0	0	25612	24170	133968	27034	1013638	42036	109476	0	0	8290	544104	0	0
2024-06-12 06:11:32			0	38275	0	0	0	25602	24160	133788	27227	1013603	42024	109472	0	0	8293	542121	0	0
2024-06-12 06:12:32			0	38311	0	0	0	25594	24170	133716	27019	1013558	42014	109469	0	0	8295	540699	0	0
2024-06-12 06:13:32			0	38362	0	0	0	25592	24170	133560	26863	1013611	42036	109468	0	0	8297	538733	0	0
2024-06-12 06:14:32			0	38390	0	0	0	25573	24170	133492	27086	1013531	42025	109461	0	0	8299	537655	0	0
2024-06-12 06:15:32			0	38424	0	0	0	25568	24170	133344	27400	1013558	42025	109459	0	0	8301	536347	0	0
2024-06-12 06:16:32			0	38455	0	0	0	25561	24160	133240	26915	1013496	42024	109456	0	0	8303	535187	0	0
2024-06-12 06:17:32			0	38457	0	0	0	25563	24160	133188	27078	1013594	42036	109457	0	0	8303	535111	0	0
2024-06-12 06:18:32			0	38478	0	0	0	25584	24170	133140	27064	1013620	42025	109465	0	0	8303	534275	0	0
2024-06-12 06:19:32			0	38515	0	0	0	25589	24170	133100	26949	1013611	42036	109467	0	0	8305	532858	0	0
2024-06-12 06:20:32			0	38541	0	0	0	25602	24180	133108	27190	1013690	42038	109472	0	0	8306	531834	0	0
2024-06-12 06:21:32			0	38529	0	0	0	25623	24180	133044	27194	1013717	42038	109480	0	0	8305	532293	0	0
2024-06-12 06:22:32			0	38534	0	0	0	25646	24190	132948	26987	1013761	42038	109489	0	0	8305	532072	0	0
2024-06-12 06:23:32			0	38548	0	0	0	25659	24210	132896	27170	1013840	42029	109494	0	0	8306	531476	0	0
2024-06-12 06:24:32			0	38596	0	0	0	25667	24210	132856	27050	1013876	42050	109497	0	0	8308	529645	0	0
2024-06-12 06:25:32			0	38578	0	0	0	25672	24210	132792	26937	1013849	42050	109499	0	0	8307	530331	0	0
2024-06-12 06:26:32			0	38594	0	0	0	25670	24210	132780	27057	1013795	42040	109498	0	0	8308	529721	0	0
2024-06-12 06:27:32			0	38601	0	0	0	25667	24210	132796	27177	1013876	42040	109497	0	0	8309	529454	0	0
2024-06-12 06:28:32			0	38628	0	0	0	25667	24230	132632	26864	1013901	42052	109497	0	0	8310	528366	0	0
2024-06-12 06:29:32			0	38641	0	0	0	25670	24230	132552	27130	1013928	42041	109498	0	0	8311	527871	0	0
2024-06-12 06:30:32			0	38645	0	0	0	25667	24230	132508	27286	1013937	42053	109497	0	0	8311	527719	0	0
2024-06-12 06:31:32			0	38646	0	0	0	25664	24230	132516	26814	1013963	42032	109496	0	0	8311	527681	0	0
2024-06-12 06:32:32			0	38653	0	0	0	25667	24240	132524	27220	1013927	42033	109497	0	0	8311	527385	0	0
2024-06-12 06:33:32			0	38696	0	0	0	25677	24240	132492	27048	1013980	42043	109501	0	0	8313	525752	0	0
2024-06-12 06:34:32			0	38706	0	0	0	25688	24240	132344	26802	1013954	42043	109505	0	0	8314	525372	0	0
2024-06-12 06:35:32			0	38701	0	0	0	25677	24260	132376	27220	1013979	42044	109501	0	0	8314	525503	0	0
2024-06-12 06:36:32			0	38733	0	0	0	25677	24260	132233	27279	1014006	42044	109501	0	0	8315	524290	0	0
2024-06-12 06:37:32			0	38748	0	0	0	25675	24260	132181	27112	1014060	42033	109500	0	0	8316	523722	0	0
2024-06-12 06:38:32			0	38755	0	0	0	25670	24250	132241	27182	1013998	42044	109498	0	0	8317	523486	0	0
2024-06-12 06:39:32			0	38770	0	0	0	25664	24260	132173	27395	1013953	42033	109496	0	0	8318	522889	0	0
2024-06-12 06:40:32			0	38773	0	0	0	25659	24260	132153	27284	1013926	42033	109494	0	0	8318	522776	0	0
2024-06-12 06:41:32			0	38778	0	0	0	25649	24260	132081	26977	1013899	42044	109490	0	0	8318	522587	0	0
2024-06-12 06:42:32			0	38780	0	0	0	25638	24250	132065	26977	1013891	42033	109486	0	0	8318	522541	0	0
2024-06-12 06:43:32			0	38790	0	0	0	25620	24230	131997	27114	1013749	42032	109479	0	0	8319	522221	0	0
2024-06-12 06:44:32			0	38795	0	0	0	25597	24240	132029	27046	1013758	42032	109470	0	0	8320	522003	0	0
2024-06-12 06:45:32			0	38810	0	0	0	25581	24220	132025	26925	1013697	42030	109464	0	0	8321	521495	0	0
2024-06-12 06:46:32			0	38826	0	0	0	25579	24220	131961	26679	1013670	42030	109463	0	0	8322	520891	0	0
2024-06-12 06:47:32			0	38824	0	0	0	25571	24210	132077	27060	1013707	42040	109460	0	0	8322	520996	0	0
2024-06-12 06:48:32			0	38846	0	0	0	25586	24210	131909	27086	1013733	42029	109466	0	0	8323	520166	0	0
2024-06-12 06:49:32			0	38832	0	0	0	25581	24210	132001	27140	1013707	42040	109464	0	0	8322	520694	0	0
2024-06-12 06:50:32			0	38809	0	0	0	25579	24200	131961	26828	1013690	42039	109463	0	0	8321	521592	0	0
2024-06-12 06:51:32			0	38819	0	0	0	25576	24180	131977	27138	1013610	42016	109462	0	0	8321	521273	0	0
2024-06-12 06:52:32			0	38844	0	0	0	25571	24180	131921	26833	1013610	42027	109460	0	0	8323	520330	0	0
2024-06-12 06:53:32			0	38861	0	0	0	25571	24190	131961	27027	1013672	42016	109460	0	0	8324	519660	0	0
2024-06-12 06:54:32			0	38876	0	0	0	25561	24180	131845	27065	1013557	42027	109456	0	0	8324	519124	0	0
2024-06-12 06:55:32			0	38879	0	0	0	25558	24180	131801	27038	1013548	42026	109455	0	0	8325	519011	0	0
2024-06-12 06:56:32			0	38897	0	0	0	25555	24180	131697	27341	1013521	42026	109454	0	0	8326	518333	0	0
2024-06-12 06:57:32			0	38907	0	0	0	25550	24180	131745	27194	1013450	42027	109452	0	0	8326	517957	0	0
2024-06-12 06:58:32			0	38943	0	0	0	25555	24180	131677	27616	1013602	42048	109454	0	0	8328	516604	0	0
2024-06-12 06:59:32			0	38929	0	0	0	25545	24160	131705	27209	1013496	42046	109450	0	0	8327	517188	0	0
2024-06-12 07:00:32			0	38937	0	0	0	25545	24160	131661	27467	1013522	42036	109450	0	0	8328	516887	0	0
2024-06-12 07:01:32			0	38956	0	0	0	25548	24160	131601	27078	1013522	42024	109451	0	0	8329	516174	0	0
2024-06-12 07:02:32			0	38965	0	0	0	25548	24160	131549	27206	1013514	42024	109451	0	0	8329	515836	0	0
2024-06-12 07:03:32			0	38990	0	0	0	25548	24160	131465	27072	1013522	42024	109451	0	0	8330	514898	0	0
2024-06-12 07:04:32			0	38997	0	0	0	25550	24160	131417	27060	1013487	42036	109452	0	0	8331	514636	0	0
2024-06-12 07:05:32			0	39014	0	0	0	25550	24160	131469	27149	1013549	42036	109452	0	0	8332	513999	0	0
2024-06-12 07:06:32			0	39022	0	0	0	25555	24170	131365	27078	1013531	42036	109454	0	0	8332	513671	0	0
2024-06-12 07:07:32			0	39042	0	0	0	25558	24170	131441	27242	1013620	42036	109455	0	0	8333	512923	0	0
2024-06-12 07:08:32			0	39023	0	0	0	25594	24180	131397	27170	1013682	42026	109469	0	0	8331	513604	0	0
2024-06-12 07:09:32			0	39056	0	0	0	25597	24180	131297	27289	1013690	42038	109470	0	0	8333	512370	0	0
2024-06-12 07:10:32			0	39062	0	0	0	25610	24200	131321	27305	1013770	42039	109475	0	0	8333	512088	0	0
2024-06-12 07:11:32			0	39072	0	0	0	25615	24190	131269	27223	1013753	42038	109477	0	0	8334	511744	0	0
2024-06-12 07:12:32			0	39092	0	0	0	25615	24200	131229	27206	1013770	42028	109477	0	0	8335	510968	0	0
2024-06-12 07:13:32			0	39089	0	0	0	25628	24200	131149	27152	1013805	42040	109482	0	0	8334	511080	0	0
2024-06-12 07:14:32			0	39109	0	0	0	25623	24210	131045	27083	1013769	42040	109480	0	0	8336	510305	0	0
2024-06-12 07:15:32			0	39107	0	0	0	25631	24220	131037	27182	1013777	42041	109483	0	0	8335	510351	0	0
2024-06-12 07:16:32			0	39136	0	0	0	25631	24210	130997	27211	1013814	42029	109483	0	0	8337	509299	0	0
2024-06-12 07:17:32			0	39138	0	0	0	25628	24210	131009	27183	1013795	42029	109482	0	0	8337	509225	0	0
2024-06-12 07:18:32			0	39135	0	0	0	25636	24220	130953	27303	1013919	42041	109485	0	0	8337	509308	0	0
2024-06-12 07:19:32			0	39132	0	0	0	25636	24220	130953	27192	1013831	42041	109485	0	0	8337	509419	0	0
2024-06-12 07:20:32			0	39126	0	0	0	25631	24210	130945	27121	1013849	42040	109483	0	0	8336	509672	0	0
2024-06-12 07:21:32			0	39145	0	0	0	25633	24220	131005	27268	1013839	42052	109484	0	0	8337	508935	0	0
2024-06-12 07:22:32			0	39134	0	0	0	25631	24210	130941	27209	1013822	42040	109483	0	0	8337	509374	0	0
2024-06-12 07:23:32			0	39163	0	0	0	25641	24220	130961	27291	1013866	42041	109487	0	0	8338	508266	0	0
2024-06-12 07:24:32			0	39137	0	0	0	25651	24220	130965	27201	1013893	42052	109491	0	0	8337	509233	0	0
2024-06-12 07:25:32			0	39145	0	0	0	25651	24230	131037	27272	1013910	42032	109491	0	0	8337	508907	0	0
2024-06-12 07:26:32			0	39139	0	0	0	25649	24240	130985	26804	1013945	42053	109490	0	0	8337	509101	0	0
2024-06-12 07:27:32			0	39117	0	0	0	25649	24230	131029	27038	1013875	42041	109490	0	0	8336	509949	0	0
2024-06-12 07:28:32			0	39149	0	0	0	25644	24240	131001	26894	1013972	42020	109488	0	0	8337	508729	0	0
2024-06-12 07:29:32			0	39121	0	0	0	25649	24240	130901	26927	1013892	42042	109490	0	0	8336	509772	0	0
2024-06-12 07:30:32			0	39126	0	0	0	25631	24230	130965	27076	1013848	42041	109483	0	0	8336	509614	0	0
2024-06-12 07:31:32			0	39120	0	0	0	25599	24220	130981	27466	1013804	42030	109471	0	0	8337	509866	0	0
2024-06-12 07:32:32			0	39132	0	0	0	25589	24220	130969	27386	1013777	42018	109467	0	0	8337	509419	0	0
2024-06-12 07:33:32			0	39134	0	0	0	25561	24220	130885	27067	1013759	42041	109456	0	0	8338	509345	0	0
2024-06-12 07:34:32			0	39124	0	0	0	25532	24210	130977	27398	1013626	42006	109445	0	0	8338	509746	0	0
2024-06-12 07:35:32			0	39140	0	0	0	25472	24190	130921	27296	1013494	42004	109422	0	0	8340	509208	0	0
2024-06-12 07:36:32			0	39152	0	0	0	25415	24190	130769	27157	1013405	42016	109400	0	0	8341	508761	0	0
2024-06-12 07:37:32			0	39127	0	0	0	25355	24170	130889	26857	1013210	42003	109377	0	0	8341	509749	0	0
2024-06-12 07:38:32			0	39108	0	0	0	25277	24140	130925	27222	1012972	41978	109347	0	0	8341	510544	0	0
2024-06-12 07:39:32			0	39085	0	0	0	25192	24100	130945	27242	1012725	41975	109314	0	0	8341	511518	0	0
2024-06-12 07:40:32			0	39078	0	0	0	25140	24070	131085	26996	1012505	41949	109294	0	0	8341	511866	0	0
2024-06-12 07:41:32			0	39041	0	0	0	25064	24020	131297	26854	1012267	41933	109265	0	0	8341	513394	0	0
2024-06-12 07:42:32			0	39001	0	0	0	25010	23980	131365	27118	1012011	41930	109244	0	0	8339	515009	0	0
2024-06-12 07:43:32			0	38958	0	0	0	24955	23920	131593	26844	1011721	41923	109223	0	0	8338	516798	0	0
2024-06-12 07:44:32			0	38921	0	0	0	24924	23880	131797	26949	1011573	41909	109211	0	0	8336	518306	0	0
2024-06-12 07:45:32			0	38836	0	0	0	24901	23850	131993	26804	1011468	41917	109202	0	0	8332	521601	0	0
2024-06-12 07:46:32			0	38775	0	0	0	24903	23800	132205	27126	1011311	41936	109203	0	0	8329	524058	0	0
2024-06-12 07:47:32			0	38716	0	0	0	24880	23790	132396	27232	1011232	41900	109194	0	0	8326	526327	0	0
2024-06-12 07:48:32			0	38666	0	0	0	24851	23740	132672	27062	1011128	41908	109183	0	0	8324	528378	0	0
2024-06-12 07:49:32			0	38596	0	0	0	24833	23710	132944	26684	1010917	41905	109176	0	0	8320	531140	0	0
2024-06-12 07:50:32			0	38519	0	0	0	24810	23680	133192	27208	1010785	41902	109167	0	0	8317	534178	0	0
2024-06-12 07:51:32			0	38450	0	0	0	24774	23650	133528	27206	1010654	41910	109153	0	0	8314	536920	0	0
2024-06-12 07:52:32			0	38370	0	0	0	24771	23620	133740	26833	1010611	41919	109152	0	0	8309	540096	0	0
2024-06-12 07:53:32			0	38300	0	0	0	24771	23600	134040	27102	1010542	41906	109152	0	0	8306	542865	0	0
2024-06-12 07:54:32			0	38226	0	0	0	24779	23580	134256	26878	1010569	41915	109155	0	0	8302	545799	0	0
2024-06-12 07:55:32			0	38162	0	0	0	24781	23570	134564	27138	1010517	41947	109156	0	0	8298	548322	0	0
2024-06-12 07:56:32			0	38099	0	0	0	24784	23560	134756	27211	1010473	41913	109157	0	0	8295	550813	0	0
2024-06-12 07:57:32			0	38004	0	0	0	24792	23560	135015	27131	1010392	41924	109160	0	0	8290	554536	0	0
2024-06-12 07:58:32			0	37959	0	0	0	24799	23530	135279	26977	1010403	41932	109163	0	0	8287	556399	0	0
2024-06-12 07:59:32			0	37907	0	0	0	24786	23530	135439	27007	1010368	41920	109158	0	0	8285	558448	0	0
2024-06-12 08:00:32			0	37847	0	0	0	24779	23510	135595	27239	1010289	41909	109155	0	0	8282	560882	0	0
2024-06-12 08:01:32			0	37798	0	0	0	24774	23500	135831	27542	1010263	41907	109153	0	0	8279	562854	0	0
2024-06-12 08:02:32			0	37753	0	0	0	24766	23490	135959	27296	1010166	41928	109150	0	0	8277	564672	0	0
2024-06-12 08:03:32			0	37716	0	0	0	24761	23470	136091	27033	1010167	41926	109148	0	0	8275	566207	0	0
2024-06-12 08:04:32			0	37668	0	0	0	24758	23460	136219	26994	1010150	41904	109147	0	0	8273	568152	0	0
2024-06-12 08:05:32			0	37654	0	0	0	24755	23460	136351	26915	1010142	41925	109146	0	0	8272	568711	0	0
2024-06-12 08:06:32			0	37615	0	0	0	24761	23440	136399	27105	1010089	41923	109148	0	0	8270	570333	0	0
2024-06-12 08:07:32			0	37602	0	0	0	24763	23440	136643	27239	1010089	41934	109149	0	0	8269	570853	0	0
2024-06-12 08:08:32			0	37577	0	0	0	24755	23430	136731	26939	1010045	41912	109146	0	0	8268	571886	0	0
2024-06-12 08:09:32			0	37529	0	0	0	24768	23430	136767	27341	1010134	41923	109151	0	0	8265	573812	0	0
2024-06-12 08:10:32			0	37514	0	0	0	24779	23420	136915	27189	1010090	41933	109155	0	0	8264	574446	0	0
2024-06-12 08:11:32			0	37479	0	0	0	24794	23430	136975	27182	1010125	41945	109161	0	0	8262	575822	0	0
2024-06-12 08:12:32			0	37471	0	0	0	24825	23430	137139	26925	1010285	41945	109173	0	0	8261	576144	0	0
2024-06-12 08:13:32			0	37424	0	0	0	24877	23450	137167	26984	1010427	41947	109193	0	0	8258	577973	0	0
2024-06-12 08:14:32			0	37420	0	0	0	24940	23470	137279	27476	1010586	41937	109217	0	0	8257	578069	0	0
2024-06-12 08:15:32			0	37412	0	0	0	24968	23500	137299	27433	1010690	41961	109228	0	0	8256	578295	0	0
2024-06-12 08:16:32			0	37396	0	0	0	24999	23510	137267	27076	1010708	41952	109240	0	0	8255	578908	0	0
2024-06-12 08:17:32			0	37377	0	0	0	25020	23530	137339	27107	1010875	41954	109248	0	0	8253	579610	0	0
2024-06-12 08:18:32			0	37368	0	0	0	25023	23530	137371	27123	1010884	41965	109249	0	0	8253	579974	0	0
2024-06-12 08:19:32			0	37349	0	0	0	25031	23550	137463	27322	1010909	41966	109252	0	0	8252	580677	0	0
2024-06-12 08:20:32			0	37349	0	0	0	25049	23560	137391	27307	1010988	41958	109259	0	0	8251	580645	0	0
2024-06-12 08:21:32			0	37338	0	0	0	25064	23580	137499	27218	1011041	41958	109265	0	0	8251	581024	0	0
2024-06-12 08:22:32			0	37360	0	0	0	25077	23600	137415	27201	1011209	41971	109270	0	0	8252	580069	0	0
2024-06-12 08:23:32			0	37328	0	0	0	25059	23600	137430	26965	1011138	41961	109263	0	0	8250	581364	0	0
2024-06-12 08:24:32			0	37367	0	0	0	25049	23610	137459	27149	1011119	41961	109259	0	0	8253	579753	0	0
2024-06-12 08:25:32			0	37335	0	0	0	25054	23610	137419	27102	1011146	41961	109261	0	0	8251	581048	0	0
2024-06-12 08:26:32			0	37304	0	0	0	25064	23620	137406	26923	1011217	41952	109265	0	0	8249	582270	0	0
2024-06-12 08:27:32			0	37318	0	0	0	25036	23620	137510	27041	1011225	41963	109254	0	0	8250	581703	0	0
2024-06-12 08:28:32			0	37284	0	0	0	24986	23620	137506	27157	1011092	41974	109235	0	0	8249	583081	0	0
2024-06-12 08:29:32			0	37305	0	0	0	24974	23620	137510	27178	1011065	41953	109230	0	0	8251	582230	0	0
2024-06-12 08:30:32			0	37320	0	0	0	24971	23620	137611	27095	1011003	41952	109229	0	0	8252	581622	0	0
2024-06-12 08:31:32			0	37292	0	0	0	24984	23620	137654	27223	1011003	41952	109234	0	0	8250	582757	0	0
2024-06-12 08:32:32			0	37277	0	0	0	25041	23620	137682	27209	1011163	41962	109256	0	0	8248	583365	0	0
2024-06-12 08:33:32			0	37287	0	0	0	25077	23630	137778	27074	1011207	41963	109270	0	0	8248	582927	0	0
2024-06-12 08:34:32			0	37251	0	0	0	25093	23640	137742	26878	1011251	41964	109276	0	0	8246	584355	0	0
2024-06-12 08:35:32			0	37267	0	0	0	25098	23640	137754	26996	1011304	41954	109278	0	0	8247	583705	0	0
2024-06-12 08:36:32			0	37240	0	0	0	25119	23650	137818	27180	1011330	41966	109286	0	0	8245	584769	0	0
2024-06-12 08:37:32			0	37228	0	0	0	25111	23650	137794	26809	1011437	41955	109283	0	0	8244	585257	0	0
2024-06-12 08:38:32			0	37196	0	0	0	25122	23660	137846	27156	1011392	41966	109287	0	0	8243	586526	0	0
2024-06-12 08:39:32			0	37158	0	0	0	25145	23670	138042	27197	1011436	41979	109296	0	0	8240	588041	0	0
2024-06-12 08:40:32			0	37105	0	0	0	25238	23680	138302	26875	1011541	41991	109332	0	0	8236	590173	0	0
2024-06-12 08:41:32			0	37130	0	0	0	25264	23700	138258	27029	1011736	41993	109342	0	0	8237	589085	0	0
2024-06-12 08:42:32			0	37163	0	0	0	25280	23730	138198	27039	1011859	41984	109348	0	0	8239	587639	0	0
2024-06-12 08:43:32			0	37173	0	0	0	25184	23750	137958	27081	1011840	41986	109311	0	0	8241	587165	0	0
2024-06-12 08:44:32			0	37207	0	0	0	25277	23760	137910	26783	1011884	41987	109347	0	0	8241	585748	0	0
2024-06-12 08:45:32			0	37230	0	0	0	25236	23780	137818	27064	1011909	41989	109331	0	0	8243	584747	0	0
2024-06-12 08:46:32			0	37185	0	0	0	25264	23790	137846	27138	1011953	42000	109342	0	0	8240	586544	0	0
2024-06-12 08:47:32			0	37248	0	0	0	25290	23780	137666	27177	1011936	41978	109352	0	0	8243	584016	0	0
2024-06-12 08:48:32			0	37338	0	0	0	25171	23790	137443	26870	1011908	41978	109306	0	0	8250	580338	0	0
2024-06-12 08:49:32			0	37368	0	0	0	25116	23790	137371	26908	1011766	41956	109285	0	0	8252	579126	0	0
2024-06-12 08:50:32			0	37365	0	0	0	25153	23790	137259	27310	1011739	41978	109299	0	0	8251	579247	0	0
2024-06-12 08:51:32			0	37323	0	0	0	25145	23780	137415	26979	1011704	41978	109296	0	0	8249	580977	0	0
2024-06-12 08:52:32			0	37291	0	0	0	25145	23760	137534	27102	1011661	41987	109296	0	0	8248	582338	0	0
2024-06-12 08:53:32			0	37302	0	0	0	25122	23770	137546	27202	1011652	41976	109287	0	0	8249	581860	0	0
2024-06-12 08:54:32			0	37286	0	0	0	25122	23760	137498	26977	1011590	41976	109287	0	0	8248	582541	0	0
2024-06-12 08:55:32			0	37244	0	0	0	25111	23750	137602	26890	1011599	41975	109283	0	0	8246	584278	0	0
2024-06-12 08:56:32			0	37220	0	0	0	25090	23740	137742	27398	1011502	41952	109275	0	0	8245	585286	0	0
2024-06-12 08:57:32			0	37182	0	0	0	25103	23730	137810	27234	1011574	41962	109280	0	0	8243	586865	0	0
2024-06-12 08:58:32			0	37159	0	0	0	25088	23720	137974	27431	1011476	41961	109274	0	0	8242	587835	0	0
2024-06-12 08:59:32			0	37126	0	0	0	25124	23720	138110	26982	1011521	41971	109288	0	0	8239	589182	0	0
2024-06-12 09:00:32			0	37132	0	0	0	25096	23720	138110	27235	1011503	41972	109277	0	0	8240	588937	0	0
2024-06-12 09:01:32			0	37124	0	0	0	25080	23730	138098	27215	1011538	41973	109271	0	0	8240	589230	0	0
2024-06-12 09:02:32			0	37108	0	0	0	25101	23730	138122	27460	1011520	41985	109279	0	0	8239	589884	0	0
2024-06-12 09:03:32			0	37083	0	0	0	25153	23710	138242	27034	1011566	41982	109299	0	0	8236	590973	0	0
2024-06-12 09:04:32			0	37147	0	0	0	25093	23710	137950	27334	1011486	41971	109276	0	0	8241	588358	0	0
2024-06-12 09:05:32			0	37168	0	0	0	25101	23720	138058	27281	1011530	41983	109279	0	0	8242	587468	0	0
2024-06-12 09:06:32			0	37131	0	0	0	25148	23720	138170	27251	1011521	41971	109297	0	0	8239	588978	0	0
2024-06-12 09:07:32			0	37082	0	0	0	25106	23710	138062	27339	1011566	41971	109281	0	0	8237	591014	0	0
2024-06-12 09:08:32			0	37140	0	0	0	25098	23710	138074	27157	1011566	41960	109278	0	0	8240	588643	0	0
2024-06-12 09:09:32			0	37102	0	0	0	25163	23720	138218	26972	1011476	41983	109303	0	0	8237	590162	0	0
2024-06-12 09:10:32			0	37080	0	0	0	25173	23730	138362	27083	1011645	41984	109307	0	0	8236	591029	0	0
2024-06-12 09:11:32			0	37110	0	0	0	25215	23730	138270	27324	1011627	41996	109323	0	0	8237	589802	0	0
2024-06-12 09:12:32			0	37159	0	0	0	25181	23740	138070	27229	1011716	41985	109310	0	0	8240	587769	0	0
2024-06-12 09:13:32			0	37183	0	0	0	25142	23750	137894	27249	1011698	41974	109295	0	0	8242	586758	0	0
2024-06-12 09:14:32			0	37211	0	0	0	25161	23750	137790	27093	1011671	41974	109302	0	0	8243	585619	0	0
2024-06-12 09:15:32			0	37213	0	0	0	25176	23760	137714	26875	1011723	41976	109308	0	0	8243	585504	0	0
2024-06-12 09:16:32			0	37247	0	0	0	25140	23760	137750	26850	1011715	41976	109294	0	0	8245	584123	0	0
2024-06-12 09:17:32			0	37239	0	0	0	25158	23750	137682	27381	1011653	41975	109301	0	0	8245	584481	0	0
2024-06-12 09:18:32			0	37234	0	0	0	25179	23760	137690	27145	1011661	41976	109309	0	0	8244	584651	0	0
2024-06-12 09:19:32			0	37216	0	0	0	25184	23750	137802	27294	1011680	41986	109311	0	0	8243	585415	0	0
2024-06-12 09:20:32			0	37214	0	0	0	25176	23760	137714	27154	1011750	41987	109308	0	0	8243	585464	0	0
2024-06-12 09:21:32			0	37242	0	0	0	25192	23760	137754	27594	1011723	41998	109314	0	0	8244	584326	0	0
2024-06-12 09:22:32			0	37253	0	0	0	25197	23770	137730	26986	1011785	41976	109316	0	0	8245	583846	0	0
2024-06-12 09:23:32			0	37255	0	0	0	25205	23760	137642	27248	1011750	41987	109319	0	0	8245	583798	0	0
2024-06-12 09:24:32			0	37269	0	0	0	25197	23780	137518	26922	1011802	41978	109316	0	0	8246	583164	0	0
2024-06-12 09:25:32			0	37307	0	0	0	25181	23770	137542	27079	1011767	41988	109310	0	0	8248	581658	0	0
2024-06-12 09:26:32			0	37325	0	0	0	25173	23780	137447	27204	1011864	41978	109307	0	0	8249	580896	0	0
2024-06-12 09:27:32			0	37326	0	0	0	25179	23780	137363	27119	1011829	41966	109309	0	0	8249	580856	0	0
2024-06-12 09:28:32			0	37363	0	0	0	25220	23780	137303	27164	1011811	42000	109325	0	0	8250	579361	0	0
2024-06-12 09:29:32			0	37419	0	0	0	25192	23780	137059	27353	1011856	41978	109314	0	0	8254	577102	0	0
2024-06-12 09:30:32			0	37444	0	0	0	25179	23780	136935	27100	1011838	41989	109309	0	0	8255	576096	0	0
2024-06-12 09:31:32			0	37473	0	0	0	25186	23780	136903	27388	1011776	41989	109312	0	0	8257	574930	0	0
2024-06-12 09:32:32			0	37455	0	0	0	25202	23790	136807	27294	1011873	42000	109318	0	0	8255	575621	0	0
2024-06-12 09:33:32			0	37473	0	0	0	25197	23790	136835	27279	1011846	42000	109316	0	0	8256	574898	0	0
2024-06-12 09:34:32			0	37492	0	0	0	25202	23780	136783	27350	1011811	42000	109318	0	0	8257	574167	0	0
2024-06-12 09:35:32			0	37478	0	0	0	25218	23800	136699	27647	1011917	42001	109324	0	0	8256	574664	0	0
2024-06-12 09:36:32			0	37530	0	0	0	25228	23800	136667	27731	1011979	41980	109328	0	0	8259	572578	0	0
2024-06-12 09:37:32			0	37557	0	0	0	25199	23800	136551	27060	1011890	41991	109317	0	0	8261	571497	0	0
2024-06-12 09:38:32			0	37561	0	0	0	25205	23800	136479	27249	1011890	41991	109319	0	0	8261	571337	0	0
2024-06-12 09:39:32			0	37556	0	0	0	25205	23790	136475	27019	1011908	42000	109319	0	0	8261	571569	0	0
2024-06-12 09:40:32			0	37548	0	0	0	25212	23790	136467	27287	1011828	41978	109322	0	0	8260	571890	0	0
2024-06-12 09:41:32			0	37556	0	0	0	25218	23800	136479	27315	1011890	41979	109324	0	0	8260	571537	0	0
2024-06-12 09:42:32			0	37576	0	0	0	25223	23800	136555	26908	1011952	42002	109326	0	0	8261	570737	0	0
2024-06-12 09:43:32			0	37558	0	0	0	25223	23810	136459	27436	1011934	41992	109326	0	0	8260	571425	0	0
2024-06-12 09:44:32			0	37573	0	0	0	25212	23800	136507	27305	1011845	42002	109322	0	0	8261	570857	0	0
2024-06-12 09:45:32			0	37579	0	0	0	25215	23810	136463	27436	1011934	41980	109323	0	0	8262	570585	0	0
2024-06-12 09:46:32			0	37596	0	0	0	25212	23810	136431	27199	1011961	41992	109322	0	0	8263	569906	0	0
2024-06-12 09:47:32			0	37594	0	0	0	25218	23810	136335	27163	1011961	42002	109324	0	0	8262	569986	0	0
2024-06-12 09:48:32			0	37619	0	0	0	25212	23810	136407	27438	1011942	41980	109322	0	0	8264	568987	0	0
2024-06-12 09:49:32			0	37608	0	0	0	25225	23810	136351	27325	1011942	42002	109327	0	0	8263	569426	0	0
2024-06-12 09:50:32			0	37627	0	0	0	25233	23820	136347	27144	1011925	41992	109330	0	0	8264	568636	0	0
2024-06-12 09:51:32			0	37620	0	0	0	25231	23810	136335	27239	1011942	42002	109329	0	0	8264	568948	0	0
2024-06-12 09:52:32			0	37621	0	0	0	25215	23820	136295	27305	1012005	41981	109323	0	0	8264	568876	0	0
2024-06-12 09:53:32			0	37667	0	0	0	25231	23820	136207	27386	1011960	42015	109329	0	0	8266	567042	0	0
2024-06-12 09:54:32			0	37677	0	0	0	25236	23820	136255	27416	1012067	42004	109331	0	0	8266	566644	0	0
2024-06-12 09:55:32			0	37677	0	0	0	25238	23820	136171	27436	1012093	42004	109332	0	0	8266	566644	0	0
2024-06-12 09:56:32			0	37695	0	0	0	25233	23820	136111	27109	1012031	42003	109330	0	0	8267	565928	0	0
2024-06-12 09:57:32			0	37713	0	0	0	25233	23830	136091	27422	1012102	42015	109330	0	0	8268	565181	0	0
2024-06-12 09:58:32			0	37727	0	0	0	25236	23820	135959	26823	1012058	41992	109331	0	0	8269	564656	0	0
2024-06-12 09:59:32			0	37717	0	0	0	25249	23840	135995	27308	1012092	42005	109336	0	0	8268	564990	0	0
2024-06-12 10:00:32			0	37745	0	0	0	25249	23830	135875	27166	1012110	41993	109336	0	0	8270	563910	0	0
2024-06-12 10:01:32			0	37751	0	0	0	25257	23830	135863	27052	1012110	41993	109339	0	0	8270	563672	0	0
2024-06-12 10:02:32			0	37775	0	0	0	25249	23840	135715	27371	1012074	42005	109336	0	0	8271	562689	0	0
2024-06-12 10:03:32			0	37779	0	0	0	25249	23840	135719	27390	1012128	41995	109336	0	0	8272	562531	0	0
2024-06-12 10:04:32			0	37775	0	0	0	25254	23840	135743	27538	1012128	41995	109338	0	0	8271	562689	0	0
2024-06-12 10:05:32			0	37811	0	0	0	25264	23840	135719	27312	1012128	41995	109342	0	0	8273	561264	0	0
2024-06-12 10:06:32			0	37799	0	0	0	25259	23840	135699	27168	1012146	41983	109340	0	0	8272	561739	0	0
2024-06-12 10:07:32			0	37832	0	0	0	25272	23850	135615	27528	1012171	41995	109345	0	0	8274	560402	0	0
2024-06-12 10:08:32			0	37824	0	0	0	25272	23850	135503	27481	1012198	41995	109345	0	0	8274	560718	0	0
2024-06-12 10:09:32			0	37860	0	0	0	25267	23860	135531	27272	1012233	42006	109343	0	0	8276	559265	0	0
2024-06-12 10:10:32			0	37844	0	0	0	25259	23860	135479	27352	1012233	41996	109340	0	0	8275	559897	0	0
2024-06-12 10:11:32			0	37847	0	0	0	25277	23850	135559	27053	1012198	42005	109347	0	0	8275	559810	0	0
2024-06-12 10:12:32			0	37840	0	0	0	25280	23860	135519	26830	1012207	42018	109348	0	0	8274	560055	0	0
2024-06-12 10:13:32			0	37854	0	0	0	25296	23860	135563	27109	1012269	41997	109354	0	0	8275	559502	0	0
2024-06-12 10:14:32			0	37860	0	0	0	25301	23870	135595	27022	1012259	42008	109356	0	0	8275	559233	0	0
2024-06-12 10:15:32			0	37873	0	0	0	25298	23870	135499	27034	1012259	42020	109355	0	0	8276	558721	0	0
2024-06-12 10:16:32			0	37880	0	0	0	25296	23870	135451	27265	1012312	42008	109354	0	0	8276	558444	0	0
2024-06-12 10:17:32			0	37872	0	0	0	25298	23880	135379	26965	1012321	41998	109355	0	0	8276	558728	0	0
2024-06-12 10:18:32			0	37879	0	0	0	25296	23880	135367	27034	1012356	41999	109354	0	0	8276	558452	0	0
2024-06-12 10:19:32			0	37901	0	0	0	25303	23880	135403	27235	1012321	42008	109357	0	0	8277	557586	0	0
2024-06-12 10:20:32			0	37909	0	0	0	25301	23890	135363	27154	1012347	42010	109356	0	0	8278	557239	0	0
2024-06-12 10:21:32			0	37912	0	0	0	25306	23890	135271	27020	1012285	42000	109358	0	0	8278	557121	0	0
2024-06-12 10:22:32			0	37942	0	0	0	25314	23890	135175	27081	1012427	42000	109361	0	0	8279	555941	0	0
2024-06-12 10:23:32			0	37929	0	0	0	25322	23890	135203	27197	1012347	42021	109364	0	0	8278	556452	0	0
2024-06-12 10:24:32			0	37938	0	0	0	25311	23890	135267	27145	1012400	42000	109360	0	0	8279	556098	0	0
2024-06-12 10:25:32			0	37946	0	0	0	25316	23900	135287	26816	1012435	42010	109362	0	0	8279	555752	0	0
2024-06-12 10:26:32			0	37946	0	0	0	25319	23900	135175	27138	1012409	42000	109363	0	0	8279	555752	0	0
2024-06-12 10:27:32			0	37966	0	0	0	25324	23900	135107	27147	1012417	42022	109365	0	0	8280	554967	0	0
2024-06-12 10:28:32			0	37962	0	0	0	25324	23910	135199	26963	1012399	42012	109365	0	0	8280	555092	0	0
2024-06-12 10:29:32			0	37956	0	0	0	25322	23910	135159	26882	1012479	42012	109364	0	0	8280	555328	0	0
2024-06-12 10:30:32			0	37946	0	0	0	25324	23900	135099	27334	1012497	42011	109365	0	0	8279	555752	0	0
2024-06-12 10:31:32			0	37973	0	0	0	25337	23910	135083	26920	1012488	42001	109370	0	0	8280	554661	0	0
2024-06-12 10:32:32			0	37963	0	0	0	25324	23910	135139	27203	1012488	42001	109365	0	0	8280	555053	0	0
2024-06-12 10:33:32			0	37965	0	0	0	25342	23920	135151	27267	1012443	42012	109372	0	0	8280	554943	0	0
2024-06-12 10:34:32			0	37963	0	0	0	25329	23910	135083	27265	1012479	42012	109367	0	0	8280	555053	0	0
2024-06-12 10:35:32			0	37965	0	0	0	25335	23910	135039	27216	1012488	42001	109369	0	0	8280	554975	0	0
2024-06-12 10:36:32			0	37979	0	0	0	25348	23920	135067	27457	1012505	42001	109374	0	0	8281	554394	0	0
2024-06-12 10:37:32			0	37978	0	0	0	25342	23920	135119	27294	1012505	42001	109372	0	0	8281	554433	0	0
2024-06-12 10:38:32			0	37986	0	0	0	25358	23920	134979	27069	1012496	42001	109378	0	0	8281	554119	0	0
2024-06-12 10:39:32			0	37995	0	0	0	25353	23930	134903	27293	1012540	42014	109376	0	0	8281	553735	0	0
2024-06-12 10:40:32			0	37990	0	0	0	25355	23920	134955	27190	1012585	42013	109377	0	0	8281	553962	0	0
2024-06-12 10:41:32			0	37998	0	0	0	25361	23930	134971	27027	1012567	42002	109379	0	0	8281	553617	0	0
2024-06-12 10:42:32			0	38000	0	0	0	25353	23930	135035	27010	1012647	42014	109376	0	0	8282	553539	0	0
2024-06-12 10:43:32			0	37981	0	0	0	25358	23930	134903	27305	1012620	42014	109378	0	0	8281	554284	0	0
2024-06-12 10:44:32			0	38011	0	0	0	25345	23940	134911	27140	1012611	42003	109373	0	0	8282	553077	0	0
2024-06-12 10:45:32			0	37990	0	0	0	25342	23940	134887	26970	1012664	42015	109372	0	0	8281	553900	0	0
2024-06-12 10:46:32			0	38009	0	0	0	25361	23930	134831	26878	1012567	42014	109379	0	0	8282	553186	0	0
2024-06-12 10:47:32			0	37996	0	0	0	25353	23940	134943	27279	1012620	42015	109376	0	0	8281	553665	0	0
2024-06-12 10:48:32			0	38043	0	0	0	25363	23950	134792	26982	1012601	42016	109380	0	0	8284	551793	0	0
2024-06-12 10:49:32			0	38025	0	0	0	25368	23940	134871	27124	1012664	42026	109382	0	0	8283	552528	0	0
2024-06-12 10:50:32			0	38021	0	0	0	25368	23940	134867	26987	1012646	42015	109382	0	0	8283	552685	0	0
2024-06-12 10:51:32			0	38020	0	0	0	25363	23940	134851	27383	1012593	42003	109380	0	0	8283	552724	0	0
2024-06-12 10:52:32			0	38005	0	0	0	25374	23950	134891	26942	1012628	42016	109384	0	0	8282	553281	0	0
2024-06-12 10:53:32			0	38017	0	0	0	25366	23950	134823	27029	1012637	41995	109381	0	0	8282	552811	0	0
2024-06-12 10:54:32			0	38004	0	0	0	25371	23950	134899	27033	1012655	42016	109383	0	0	8282	553320	0	0
2024-06-12 10:55:32			0	38010	0	0	0	25374	23960	134835	27020	1012672	42005	109384	0	0	8282	553054	0	0
2024-06-12 10:56:32			0	38012	0	0	0	25374	23950	134863	27161	1012717	42005	109384	0	0	8282	553006	0	0
2024-06-12 10:57:32			0	38032	0	0	0	25379	23960	134892	27348	1012707	42016	109386	0	0	8283	552192	0	0
2024-06-12 10:58:32			0	38019	0	0	0	25376	23960	134911	27107	1012779	42016	109385	0	0	8282	552701	0	0
2024-06-12 10:59:32			0	38048	0	0	0	25379	23960	134804	27209	1012699	42028	109386	0	0	8284	551566	0	0
2024-06-12 11:00:32			0	38023	0	0	0	25374	23960	134867	27157	1012752	42016	109384	0	0	8283	552545	0	0
2024-06-12 11:01:32			0	38006	0	0	0	25379	23960	134855	27338	1012787	42005	109386	0	0	8282	553210	0	0
2024-06-12 11:02:32			0	38027	0	0	0	25394	23960	134863	27062	1012734	42016	109392	0	0	8282	552388	0	0
2024-06-12 11:03:32			0	38019	0	0	0	25394	23960	134800	27308	1012761	42028	109392	0	0	8282	552701	0	0
2024-06-12 11:04:32			0	38040	0	0	0	25402	23970	134808	27263	1012796	42017	109395	0	0	8283	551848	0	0
2024-06-12 11:05:32			0	38049	0	0	0	25397	23980	134764	26939	1012848	42030	109393	0	0	8284	551465	0	0
2024-06-12 11:06:32			0	38047	0	0	0	25381	23970	134816	27079	1012831	42018	109387	0	0	8284	551574	0	0
2024-06-12 11:07:32			0	38054	0	0	0	25386	23960	134760	27495	1012707	42028	109389	0	0	8284	551332	0	0
2024-06-12 11:08:32			0	38050	0	0	0	25384	23980	134808	27189	1012813	42007	109388	0	0	8284	551426	0	0
2024-06-12 11:09:32			0	38048	0	0	0	25384	23970	134800	27230	1012805	42030	109388	0	0	8284	551535	0	0
2024-06-12 11:10:32			0	38060	0	0	0	25386	23980	134792	27286	1012795	42007	109389	0	0	8284	551035	0	0
2024-06-12 11:11:32			0	38027	0	0	0	25389	23970	134772	26861	1012823	42029	109390	0	0	8283	552357	0	0
2024-06-12 11:12:32			0	38042	0	0	0	25392	23980	134812	27069	1012813	41997	109391	0	0	8283	551739	0	0
2024-06-12 11:13:32			0	38051	0	0	0	25407	23980	134780	27263	1012813	42007	109397	0	0	8284	551387	0	0
2024-06-12 11:14:32			0	38042	0	0	0	25407	23980	134760	26871	1012848	42007	109397	0	0	8283	551739	0	0
2024-06-12 11:15:32			0	38075	0	0	0	25405	24000	134672	26923	1012927	42020	109396	0	0	8285	550387	0	0
2024-06-12 11:16:32			0	38067	0	0	0	25405	23990	134668	27248	1012892	42020	109396	0	0	8284	550730	0	0
2024-06-12 11:17:32			0	38063	0	0	0	25397	23980	134640	27279	1012902	42030	109393	0	0	8284	550918	0	0
2024-06-12 11:18:32			0	38059	0	0	0	25402	23980	134660	27225	1012875	42007	109395	0	0	8284	551074	0	0
2024-06-12 11:19:32			0	38075	0	0	0	25407	23990	134672	27312	1012946	42031	109397	0	0	8285	550418	0	0
2024-06-12 11:20:32			0	38074	0	0	0	25407	23990	134664	27272	1012803	42019	109397	0	0	8285	550457	0	0
2024-06-12 11:21:32			0	38062	0	0	0	25399	23990	134648	26894	1012857	42019	109394	0	0	8284	550926	0	0
2024-06-12 11:22:32			0	38051	0	0	0	25410	23990	134708	27234	1012919	42031	109398	0	0	8284	551356	0	0
2024-06-12 11:23:32			0	38054	0	0	0	25407	23990	134748	27045	1012857	42019	109397	0	0	8284	551238	0	0
2024-06-12 11:24:32			0	38065	0	0	0	25407	23990	134716	26993	1012830	42019	109397	0	0	8284	550809	0	0
2024-06-12 11:25:32			0	38062	0	0	0	25425	24000	134752	27211	1012874	42020	109404	0	0	8284	550895	0	0
2024-06-12 11:26:32			0	38082	0	0	0	25412	23990	134568	27369	1012946	42031	109399	0	0	8285	550144	0	0
2024-06-12 11:27:32			0	38066	0	0	0	25446	24000	134652	27345	1012963	42010	109412	0	0	8284	550738	0	0
2024-06-12 11:28:32			0	38076	0	0	0	25428	24000	134684	27121	1012954	42020	109405	0	0	8285	550348	0	0
2024-06-12 11:29:32			0	38091	0	0	0	25441	24010	134700	27079	1013025	42021	109410	0	0	8285	549731	0	0
2024-06-12 11:30:32			0	38078	0	0	0	25428	24010	134664	26951	1012998	42032	109405	0	0	8285	550239	0	0
2024-06-12 11:31:32			0	38070	0	0	0	25438	24010	134644	26889	1012945	42043	109409	0	0	8284	550551	0	0
2024-06-12 11:32:32			0	38064	0	0	0	25418	24010	134636	27331	1012998	42010	109401	0	0	8284	550785	0	0
2024-06-12 11:33:32			0	38084	0	0	0	25425	24010	134540	27241	1013007	42000	109404	0	0	8285	550004	0	0
2024-06-12 11:34:32			0	38101	0	0	0	25420	24010	134564	26899	1013025	42032	109402	0	0	8286	549341	0	0
2024-06-12 11:35:32			0	38080	0	0	0	25412	24000	134540	27486	1012883	42021	109399	0	0	8285	550191	0	0
2024-06-12 11:36:32			0	38089	0	0	0	25410	24000	134524	27324	1012936	42021	109398	0	0	8286	549840	0	0
2024-06-12 11:37:32			0	38085	0	0	0	25431	24020	134644	27220	1012962	42022	109406	0	0	8285	549934	0	0
2024-06-12 11:38:32			0	38118	0	0	0	25433	24000	134556	27377	1012963	42032	109407	0	0	8287	548709	0	0
2024-06-12 11:39:32			0	38103	0	0	0	25407	24010	134652	27492	1013025	42010	109397	0	0	8286	549263	0	0
2024-06-12 11:40:32			0	38083	0	0	0	25433	24020	134624	27331	1013015	42022	109407	0	0	8285	550012	0	0
2024-06-12 11:41:32			0	38084	0	0	0	25436	24010	134688	27166	1012953	42033	109408	0	0	8285	550004	0	0
2024-06-12 11:42:32			0	38098	0	0	0	25433	24010	134716	27274	1013060	42022	109407	0	0	8286	549458	0	0
2024-06-12 11:43:32			0	38107	0	0	0	25459	24020	134600	27261	1013069	42033	109417	0	0	8286	549076	0	0
2024-06-12 11:44:32			0	38098	0	0	0	25449	24030	134572	27268	1013059	42034	109413	0	0	8286	549396	0	0
2024-06-12 11:45:32			0	38089	0	0	0	25446	24020	134528	27331	1013050	42011	109412	0	0	8285	549778	0	0
2024-06-12 11:46:32			0	38064	0	0	0	25470	24020	134700	27272	1013131	42034	109421	0	0	8283	550754	0	0
2024-06-12 11:47:32			0	38095	0	0	0	25441	24030	134556	27313	1013086	42011	109410	0	0	8285	549513	0	0
2024-06-12 11:48:32			0	38096	0	0	0	25449	24040	134560	27152	1013103	42025	109413	0	0	8285	549443	0	0
2024-06-12 11:49:32			0	38089	0	0	0	25464	24030	134660	27242	1013174	42035	109419	0	0	8285	549747	0	0
2024-06-12 11:50:32			0	38105	0	0	0	25483	24040	134600	27443	1013130	42036	109426	0	0	8285	549092	0	0
2024-06-12 11:51:32			0	38076	0	0	0	25488	24040	134580	27171	1013210	42025	109428	0	0	8284	550224	0	0
2024-06-12 11:52:32			0	38071	0	0	0	25483	24050	134572	27055	1013245	42025	109426	0	0	8284	550388	0	0
2024-06-12 11:53:32			0	38096	0	0	0	25498	24050	134528	27197	1013192	42036	109432	0	0	8285	549412	0	0
2024-06-12 11:54:32			0	38101	0	0	0	25501	24070	134632	27225	1013253	42038	109433	0	0	8285	549155	0	0
2024-06-12 11:55:32			0	38101	0	0	0	25477	24070	134564	27393	1013253	42026	109424	0	0	8285	549155	0	0
2024-06-12 11:56:32			0	38114	0	0	0	25509	24070	134444	27384	1013306	42038	109436	0	0	8285	548648	0	0
2024-06-12 11:57:32			0	38118	0	0	0	25524	24070	134496	27230	1013306	42038	109442	0	0	8285	548492	0	0
2024-06-12 11:58:32			0	38124	0	0	0	25535	24080	134544	27445	1013385	42028	109446	0	0	8286	548228	0	0
2024-06-12 11:59:32			0	38126	0	0	0	25506	24090	134596	27156	1013421	42040	109435	0	0	8286	548119	0	0
2024-06-12 12:00:32			0	38125	0	0	0	25496	24090	134444	27535	1013429	42040	109431	0	0	8286	548158	0	0
2024-06-12 12:01:32			0	38151	0	0	0	25537	24090	134404	27156	1013367	42040	109447	0	0	8287	547146	0	0
2024-06-12 12:02:32			0	38143	0	0	0	25501	24090	134316	27258	1013376	42040	109433	0	0	8287	547457	0	0
2024-06-12 12:03:32			0	38130	0	0	0	25537	24100	134420	26887	1013393	42030	109447	0	0	8286	547932	0	0
2024-06-12 12:04:32			0	38146	0	0	0	25529	24100	134364	27135	1013473	42041	109444	0	0	8287	547310	0	0
2024-06-12 12:05:32			0	38128	0	0	0	25516	24110	134600	27372	1013437	42031	109439	0	0	8286	547979	0	0
2024-06-12 12:06:32			0	38134	0	0	0	25516	24110	134432	27300	1013428	42019	109439	0	0	8287	547746	0	0
2024-06-12 12:07:32			0	38137	0	0	0	25527	24100	134416	27156	1013473	42041	109443	0	0	8286	547660	0	0
2024-06-12 12:08:32			0	38139	0	0	0	25566	24110	134464	27485	1013455	42041	109458	0	0	8286	547551	0	0
2024-06-12 12:09:32			0	38149	0	0	0	25573	24110	134464	27296	1013570	42041	109461	0	0	8286	547162	0	0
2024-06-12 12:10:32			0	38156	0	0	0	25553	24130	134428	27400	1013623	42032	109453	0	0	8287	546828	0	0
2024-06-12 12:11:32			0	38169	0	0	0	25550	24120	134416	27317	1013534	42021	109452	0	0	8288	546354	0	0
2024-06-12 12:12:32			0	38140	0	0	0	25548	24120	134420	27216	1013507	42032	109451	0	0	8286	547481	0	0
2024-06-12 12:13:32			0	38152	0	0	0	25566	24140	134312	27422	1013586	42044	109458	0	0	8287	546953	0	0
2024-06-12 12:14:32			0	38139	0	0	0	25558	24140	134264	27453	1013560	42034	109455	0	0	8286	547458	0	0
2024-06-12 12:15:32			0	38152	0	0	0	25579	24140	134348	27300	1013640	42034	109463	0	0	8287	546953	0	0
2024-06-12 12:16:32			0	38173	0	0	0	25563	24140	134348	27182	1013702	42055	109457	0	0	8288	546136	0	0
2024-06-12 12:17:32			0	38173	0	0	0	25592	24150	134208	27289	1013657	42045	109468	0	0	8287	546106	0	0
2024-06-12 12:18:32			0	38174	0	0	0	25573	24150	134312	27376	1013657	42045	109461	0	0	8288	546067	0	0
2024-06-12 12:19:32			0	38176	0	0	0	25586	24160	134296	27298	1013763	42046	109466	0	0	8288	545958	0	0
2024-06-12 12:20:32			0	38192	0	0	0	25566	24160	134192	26981	1013647	42046	109458	0	0	8289	545337	0	0
2024-06-12 12:21:32			0	38193	0	0	0	25602	24160	134184	26974	1013728	42057	109472	0	0	8288	545298	0	0
2024-06-12 12:22:32			0	38205	0	0	0	25612	24160	134168	27081	1013763	42057	109476	0	0	8289	544832	0	0
2024-06-12 12:23:32			0	38217	0	0	0	25592	24170	134140	27251	1013771	42025	109468	0	0	8290	544336	0	0
2024-06-12 12:24:32			0	38194	0	0	0	25592	24170	134184	27298	1013745	42036	109468	0	0	8289	545229	0	0
2024-06-12 12:25:32			0	38198	0	0	0	25566	24170	134168	27123	1013745	42036	109458	0	0	8289	545073	0	0
2024-06-12 12:26:32			0	38191	0	0	0	25594	24170	134176	27246	1013798	42047	109469	0	0	8288	545345	0	0
2024-06-12 12:27:32			0	38205	0	0	0	25592	24180	134152	27322	1013815	42026	109468	0	0	8289	544771	0	0
2024-06-12 12:28:32			0	38215	0	0	0	25589	24180	134156	27173	1013815	42026	109467	0	0	8290	544383	0	0
2024-06-12 12:29:32			0	38199	0	0	0	25592	24170	134172	26901	1013771	42036	109468	0	0	8289	545034	0	0
2024-06-12 12:30:32			0	38198	0	0	0	25610	24180	134220	27088	1013789	42026	109475	0	0	8289	545042	0	0
2024-06-12 12:31:32			0	38223	0	0	0	25592	24180	134180	26934	1013815	42048	109468	0	0	8290	544073	0	0
2024-06-12 12:32:32			0	38208	0	0	0	25602	24180	134172	27164	1013824	42049	109472	0	0	8289	544655	0	0
2024-06-12 12:33:32			0	38207	0	0	0	25625	24180	134088	27225	1013797	42027	109481	0	0	8289	544693	0	0
2024-06-12 12:34:32			0	38212	0	0	0	25615	24190	134108	27263	1013886	42060	109477	0	0	8289	544469	0	0
2024-06-12 12:35:32			0	38216	0	0	0	25633	24190	134168	27357	1013868	42060	109484	0	0	8289	544314	0	0
2024-06-12 12:36:32			0	38225	0	0	0	25612	24190	134056	27107	1013895	42049	109476	0	0	8290	543965	0	0
2024-06-12 12:37:32			0	38215	0	0	0	25592	24200	134072	27229	1013903	42050	109468	0	0	8290	544322	0	0
2024-06-12 12:38:32			0	38223	0	0	0	25607	24200	134076	27079	1013796	42039	109474	0	0	8290	544012	0	0
2024-06-12 12:39:32			0	38225	0	0	0	25644	24190	134132	27041	1013895	42049	109488	0	0	8289	543965	0	0
2024-06-12 12:40:32			0	38211	0	0	0	25631	24200	134096	27062	1013939	42062	109483	0	0	8289	544477	0	0
2024-06-12 12:41:32			0	38224	0	0	0	25612	24200	134076	27229	1013912	42040	109476	0	0	8290	543973	0	0
2024-06-12 12:42:32			0	38237	0	0	0	25607	24200	134040	27422	1013885	42040	109474	0	0	8291	543469	0	0
2024-06-12 12:43:32			0	38236	0	0	0	25615	24210	134104	27232	1013867	42040	109477	0	0	8291	543477	0	0
2024-06-12 12:44:32			0	38244	0	0	0	25636	24210	134064	27057	1013921	42062	109485	0	0	8291	543168	0	0
2024-06-12 12:45:32			0	38226	0	0	0	25659	24210	134032	27419	1013956	42062	109494	0	0	8289	543865	0	0
2024-06-12 12:46:32			0	38252	0	0	0	25644	24210	134076	26977	1014001	42050	109488	0	0	8291	542858	0	0
2024-06-12 12:47:32			0	38241	0	0	0	25649	24220	134104	27022	1014000	42052	109490	0	0	8290	543253	0	0
2024-06-12 12:48:32			0	38247	0	0	0	25633	24220	134048	27088	1014018	42063	109484	0	0	8291	543021	0	0
2024-06-12 12:49:32			0	38242	0	0	0	25659	24230	134136	27206	1014008	42041	109494	0	0	8290	543184	0	0
2024-06-12 12:50:32			0	38240	0	0	0	25628	24230	134028	27469	1014062	42052	109482	0	0	8291	543261	0	0
2024-06-12 12:51:32			0	38245	0	0	0	25628	24220	134004	27319	1013938	42051	109482	0	0	8291	543098	0	0
2024-06-12 12:52:32			0	38243	0	0	0	25685	24230	133932	27119	1014008	42052	109504	0	0	8290	543145	0	0
2024-06-12 12:53:32			0	38242	0	0	0	25688	24230	134004	27059	1014070	42053	109505	0	0	8290	543184	0	0
2024-06-12 12:54:32			0	38244	0	0	0	25688	24250	133980	27312	1014096	42055	109505	0	0	8290	543045	0	0
2024-06-12 12:55:32			0	38238	0	0	0	25685	24250	134108	27277	1014149	42078	109504	0	0	8290	543277	0	0
2024-06-12 12:56:32			0	38247	0	0	0	25698	24250	134012	27124	1014149	42055	109509	0	0	8290	542929	0	0
2024-06-12 12:57:32			0	38237	0	0	0	25693	24260	134020	27331	1014175	42056	109507	0	0	8290	543285	0	0
2024-06-12 12:58:32			0	38238	0	0	0	25680	24250	134040	27301	1014185	42066	109502	0	0	8290	543277	0	0
2024-06-12 12:59:32			0	38258	0	0	0	25654	24270	133956	27364	1014184	42057	109492	0	0	8291	542442	0	0
2024-06-12 13:00:32			0	38245	0	0	0	25672	24260	133972	27459	1014193	42044	109499	0	0	8290	542976	0	0
2024-06-12 13:01:32			0	38262	0	0	0	25657	24260	133940	27435	1014140	42055	109493	0	0	8291	542318	0	0
2024-06-12 13:02:32			0	38248	0	0	0	25636	24260	133864	27286	1014122	42056	109485	0	0	8291	542859	0	0
2024-06-12 13:03:32			0	38256	0	0	0	25657	24260	133804	27509	1014148	42045	109493	0	0	8291	542550	0	0
2024-06-12 13:04:32			0	38284	0	0	0	25659	24280	133864	27142	1014147	42068	109494	0	0	8293	541406	0	0
2024-06-12 13:05:32			0	38280	0	0	0	25662	24280	133832	27270	1014201	42068	109495	0	0	8292	541561	0	0
2024-06-12 13:06:32			0	38272	0	0	0	25651	24280	133916	27232	1014121	42057	109491	0	0	8292	541870	0	0
2024-06-12 13:07:32			0	38278	0	0	0	25625	24250	133828	27088	1014105	42044	109481	0	0	8293	541730	0	0
2024-06-12 13:08:32			0	38272	0	0	0	25633	24250	133792	26977	1014096	42055	109484	0	0	8292	541962	0	0
2024-06-12 13:09:32			0	38270	0	0	0	25683	24250	133880	27038	1014185	42044	109503	0	0	8291	542039	0	0
2024-06-12 13:10:32			0	38265	0	0	0	25703	24250	133984	27204	1014185	42066	109511	0	0	8291	542232	0	0
2024-06-12 13:11:32			0	38256	0	0	0	25693	24270	133856	27176	1014192	42057	109507	0	0	8291	542519	0	0
2024-06-12 13:12:32			0	38308	0	0	0	25703	24270	133704	26880	1014219	42057	109511	0	0	8293	540510	0	0
2024-06-12 13:13:32			0	38304	0	0	0	25672	24290	133792	27237	1014271	42047	109499	0	0	8293	540603	0	0
2024-06-12 13:14:32			0	38292	0	0	0	25701	24280	133844	27015	1014254	42057	109510	0	0	8292	541097	0	0
2024-06-12 13:15:32			0	38294	0	0	0	25654	24270	133876	27242	1014166	42046	109492	0	0	8293	541051	0	0
2024-06-12 13:16:32			0	38311	0	0	0	25677	24270	133756	27390	1014192	42046	109501	0	0	8294	540394	0	0
2024-06-12 13:17:32			0	38288	0	0	0	25659	24280	133856	27352	1014236	42058	109494	0	0	8293	541252	0	0
2024-06-12 13:18:32			0	38278	0	0	0	25664	24280	133940	27310	1014174	42057	109496	0	0	8292	541638	0	0
2024-06-12 13:19:32			0	38270	0	0	0	25677	24270	133800	27218	1014184	42057	109501	0	0	8292	541978	0	0
2024-06-12 13:20:32			0	38278	0	0	0	25709	24280	133772	27254	1014281	42057	109513	0	0	8291	541638	0	0
2024-06-12 13:21:32			0	38277	0	0	0	25719	24280	133820	27220	1014263	42058	109517	0	0	8291	541677	0	0
2024-06-12 13:22:32			0	38273	0	0	0	25722	24290	133796	27206	1014280	42059	109518	0	0	8291	541801	0	0
2024-06-12 13:23:32			0	38279	0	0	0	25735	24290	133836	27241	1014387	42059	109523	0	0	8291	541569	0	0
2024-06-12 13:24:32			0	38255	0	0	0	25732	24300	133928	27251	1014423	42070	109522	0	0	8290	542466	0	0
2024-06-12 13:25:32			0	38272	0	0	0	25727	24300	133816	27310	1014449	42047	109520	0	0	8291	541809	0	0
2024-06-12 13:26:32			0	38280	0	0	0	25735	24300	133860	27178	1014431	42060	109523	0	0	8291	541500	0	0
2024-06-12 13:27:32			0	38283	0	0	0	25688	24320	133744	26930	1014350	42061	109505	0	0	8292	541323	0	0
2024-06-12 13:28:32			0	38285	0	0	0	25685	24300	133700	27287	1014262	42070	109504	0	0	8292	541306	0	0
2024-06-12 13:29:32			0	38313	0	0	0	25709	24300	133824	27235	1014289	42047	109513	0	0	8293	540226	0	0
2024-06-12 13:30:32			0	38282	0	0	0	25659	24310	133652	27027	1014306	42049	109494	0	0	8293	541392	0	0
2024-06-12 13:31:32			0	38322	0	0	0	25748	24300	133740	27239	1014316	42070	109528	0	0	8293	539879	0	0
2024-06-12 13:32:32			0	38308	0	0	0	25753	24310	133768	27007	1014467	42072	109530	0	0	8292	540388	0	0
2024-06-12 13:33:32			0	38314	0	0	0	25672	24320	133740	27268	1014457	42061	109499	0	0	8294	540126	0	0
2024-06-12 13:34:32			0	38354	0	0	0	25633	24320	133604	27317	1014315	42061	109484	0	0	8297	538585	0	0
2024-06-12 13:35:32			0	38349	0	0	0	25685	24300	133572	27578	1014378	42060	109504	0	0	8296	538838	0	0
2024-06-12 13:36:32			0	38334	0	0	0	25670	24300	133636	27319	1014316	42047	109498	0	0	8295	539416	0	0
2024-06-12 13:37:32			0	38338	0	0	0	25654	24300	133708	27142	1014316	42059	109492	0	0	8296	539262	0	0
2024-06-12 13:38:32			0	38324	0	0	0	25646	24300	133716	27547	1014235	42047	109489	0	0	8295	539801	0	0
2024-06-12 13:39:32			0	38340	0	0	0	25711	24300	133712	27376	1014271	42060	109514	0	0	8295	539185	0	0
2024-06-12 13:40:32			0	38333	0	0	0	25675	24300	133688	27225	1014396	42059	109500	0	0	8295	539454	0	0
2024-06-12 13:41:32			0	38303	0	0	0	25646	24300	133620	26968	1014271	42060	109489	0	0	8294	540611	0	0
2024-06-12 13:42:32			0	38353	0	0	0	25688	24290	133540	27253	1014253	42059	109505	0	0	8296	538714	0	0
2024-06-12 13:43:32			0	38359	0	0	0	25709	24300	133524	27060	1014316	42059	109513	0	0	8296	538453	0	0
2024-06-12 13:44:32			0	38354	0	0	0	25685	24300	133592	27332	1014316	42059	109504	0	0	8296	538645	0	0
2024-06-12 13:45:32			0	38378	0	0	0	25703	24300	133612	27114	1014369	42070	109511	0	0	8297	537722	0	0
2024-06-12 13:46:32			0	38384	0	0	0	25698	24310	133588	27441	1014360	42061	109509	0	0	8297	537461	0	0
2024-06-12 13:47:32			0	38375	0	0	0	25664	24300	133452	27275	1014378	42060	109496	0	0	8297	537837	0	0
2024-06-12 13:48:32			0	38426	0	0	0	25677	24300	133384	26977	1014351	42060	109501	0	0	8300	535877	0	0
2024-06-12 13:49:32			0	38420	0	0	0	25667	24300	133224	26854	1014289	42047	109497	0	0	8300	536108	0	0
2024-06-12 13:50:32			0	38443	0	0	0	25677	24300	133284	27180	1014235	42059	109501	0	0	8301	535225	0	0
2024-06-12 13:51:32			0	38427	0	0	0	25672	24310	133288	27234	1014333	42049	109499	0	0	8300	535809	0	0
2024-06-12 13:52:32			0	38425	0	0	0	25680	24300	133352	27112	1014369	42070	109502	0	0	8300	535916	0	0
2024-06-12 13:53:32			0	38432	0	0	0	25698	24320	133308	27092	1014422	42061	109509	0	0	8300	535586	0	0
2024-06-12 13:54:32			0	38429	0	0	0	25768	24320	133256	27341	1014511	42073	109536	0	0	8298	535701	0	0
2024-06-12 13:55:32			0	38422	0	0	0	25706	24330	133388	27171	1014546	42061	109512	0	0	8299	535940	0	0
2024-06-12 13:56:32			0	38434	0	0	0	25683	24330	133328	27270	1014466	42050	109503	0	0	8300	535479	0	0
2024-06-12 13:57:32			0	38434	0	0	0	25706	24320	133308	26904	1014430	42061	109512	0	0	8300	535510	0	0
2024-06-12 13:58:32			0	38444	0	0	0	25714	24320	133288	27422	1014529	42061	109515	0	0	8300	535126	0	0
2024-06-12 13:59:32			0	38430	0	0	0	25701	24310	133224	27234	1014333	42061	109510	0	0	8300	535693	0	0
2024-06-12 14:00:32			0	38446	0	0	0	25662	24320	133212	27208	1014323	42050	109495	0	0	8301	535049	0	0
2024-06-12 14:01:32			0	38457	0	0	0	25659	24320	133128	26991	1014288	42061	109494	0	0	8302	534628	0	0
2024-06-12 14:02:32			0	38454	0	0	0	25664	24320	133212	26875	1014288	42061	109496	0	0	8301	534743	0	0
2024-06-12 14:03:32			0	38452	0	0	0	25683	24310	133136	27197	1014360	42061	109503	0	0	8301	534849	0	0
2024-06-12 14:04:32			0	38475	0	0	0	25698	24320	133200	27270	1014449	42061	109509	0	0	8302	533938	0	0
2024-06-12 14:05:32			0	38463	0	0	0	25714	24320	133224	27274	1014350	42061	109515	0	0	8301	534398	0	0
2024-06-12 14:06:32			0	38449	0	0	0	25714	24320	133152	27284	1014422	42061	109515	0	0	8300	534934	0	0
2024-06-12 14:07:32			0	38465	0	0	0	25740	24320	133264	27005	1014457	42073	109525	0	0	8301	534321	0	0
2024-06-12 14:08:32			0	38461	0	0	0	25750	24320	133212	27275	1014502	42061	109529	0	0	8300	534474	0	0
2024-06-12 14:09:32			0	38461	0	0	0	25748	24330	133252	27209	1014555	42051	109528	0	0	8300	534444	0	0
2024-06-12 14:10:32			0	38459	0	0	0	25753	24340	133272	27017	1014510	42052	109530	0	0	8300	534490	0	0
2024-06-12 14:11:32			0	38466	0	0	0	25774	24330	133232	27102	1014555	42074	109538	0	0	8300	534253	0	0
2024-06-12 14:12:32			0	38438	0	0	0	25784	24340	133336	26991	1014652	42063	109542	0	0	8299	535296	0	0
2024-06-12 14:13:32			0	38464	0	0	0	25797	24350	133228	27336	1014722	42064	109547	0	0	8300	534269	0	0
2024-06-12 14:14:32			0	38471	0	0	0	25794	24370	133332	27440	1014695	42076	109546	0	0	8300	533940	0	0
2024-06-12 14:15:32			0	38476	0	0	0	25761	24360	133264	27232	1014678	42065	109533	0	0	8301	533779	0	0
2024-06-12 14:16:32			0	38480	0	0	0	25784	24370	133212	27251	1014695	42054	109542	0	0	8301	533596	0	0
2024-06-12 14:17:32			0	38477	0	0	0	25774	24370	133128	27178	1014650	42066	109538	0	0	8301	533710	0	0
2024-06-12 14:18:32			0	38467	0	0	0	25786	24370	133204	27159	1014757	42066	109543	0	0	8300	534093	0	0
2024-06-12 14:19:32			0	38467	0	0	0	25794	24370	133136	27173	1014757	42077	109546	0	0	8300	534093	0	0
2024-06-12 14:20:32			0	38499	0	0	0	25812	24390	133092	27357	1014782	42056	109553	0	0	8302	532808	0	0
2024-06-12 14:21:32			0	38483	0	0	0	25794	24390	133072	27010	1014818	42068	109546	0	0	8301	533420	0	0
2024-06-12 14:22:32			0	38479	0	0	0	25802	24390	133088	27012	1014845	42079	109549	0	0	8301	533574	0	0
2024-06-12 14:23:32			0	38512	0	0	0	25807	24390	133060	27201	1014791	42079	109551	0	0	8302	532311	0	0
2024-06-12 14:24:32			0	38524	0	0	0	25802	24400	133072	27161	1014835	42058	109549	0	0	8303	531823	0	0
2024-06-12 14:25:32			0	38493	0	0	0	25797	24400	132992	27100	1014808	42081	109547	0	0	8302	533008	0	0
2024-06-12 14:26:32			0	38509	0	0	0	25812	24410	132972	27187	1014817	42081	109553	0	0	8302	532366	0	0
2024-06-12 14:27:32			0	38492	0	0	0	25831	24400	133096	27170	1014888	42081	109560	0	0	8301	533046	0	0
2024-06-12 14:28:32			0	38516	0	0	0	25849	24400	133088	27268	1014942	42081	109567	0	0	8302	532129	0	0
2024-06-12 14:29:32			0	38492	0	0	0	25849	24430	133032	27239	1014958	42083	109567	0	0	8301	532956	0	0
2024-06-12 14:30:32			0	38501	0	0	0	25859	24430	133012	27564	1015020	42083	109571	0	0	8301	532612	0	0
2024-06-12 14:31:32			0	38521	0	0	0	25859	24430	133056	27218	1015100	42083	109571	0	0	8302	531847	0	0
2024-06-12 14:32:32			0	38520	0	0	0	25849	24430	133012	27196	1015020	42083	109567	0	0	8302	531885	0	0
2024-06-12 14:33:32			0	38515	0	0	0	25872	24440	132952	27069	1015091	42073	109576	0	0	8302	532046	0	0
2024-06-12 14:34:32			0	38509	0	0	0	25872	24440	132956	27371	1015091	42073	109576	0	0	8301	532276	0	0
2024-06-12 14:35:32			0	38526	0	0	0	25864	24450	132932	27284	1015188	42074	109573	0	0	8302	531596	0	0
2024-06-12 14:36:32			0	38525	0	0	0	25864	24450	132940	26765	1015100	42074	109573	0	0	8302	531634	0	0
2024-06-12 14:37:32			0	38539	0	0	0	25870	24460	132912	27156	1015143	42074	109575	0	0	8303	531070	0	0
2024-06-12 14:38:32			0	38550	0	0	0	25867	24460	132888	26991	1015117	42074	109574	0	0	8304	530650	0	0
2024-06-12 14:39:32			0	38546	0	0	0	25862	24460	132776	27043	1015125	42075	109572	0	0	8303	530803	0	0
2024-06-12 14:40:32			0	38549	0	0	0	25867	24470	132852	26984	1015241	42098	109574	0	0	8304	530658	0	0
2024-06-12 14:41:32			0	38568	0	0	0	25854	24470	132784	26920	1015107	42076	109569	0	0	8305	529934	0	0
2024-06-12 14:42:32			0	38567	0	0	0	25859	24470	132852	27183	1015107	42076	109571	0	0	8305	529972	0	0
2024-06-12 14:43:32			0	38569	0	0	0	25893	24470	132828	27281	1015214	42086	109584	0	0	8304	529896	0	0
2024-06-12 14:44:32			0	38535	0	0	0	25898	24470	132772	27396	1015214	42086	109586	0	0	8302	531192	0	0
2024-06-12 14:45:32			0	38547	0	0	0	25893	24480	132748	27237	1015258	42086	109584	0	0	8303	530705	0	0
2024-06-12 14:46:32			0	38554	0	0	0	25862	24480	132660	27258	1015285	42065	109572	0	0	8304	530438	0	0
2024-06-12 14:47:32			0	38562	0	0	0	25841	24470	132708	27351	1015169	42065	109564	0	0	8305	530163	0	0
2024-06-12 14:48:32			0	38588	0	0	0	25825	24480	132696	27313	1015106	42054	109558	0	0	8306	529142	0	0
2024-06-12 14:49:32			0	38584	0	0	0	25823	24480	132696	27201	1015151	42065	109557	0	0	8306	529294	0	0
2024-06-12 14:50:32			0	38579	0	0	0	25838	24470	132564	27225	1015116	42076	109563	0	0	8306	529515	0	0
2024-06-12 14:51:32			0	38603	0	0	0	25844	24480	132708	27152	1015151	42076	109565	0	0	8307	528571	0	0
2024-06-12 14:52:32			0	38589	0	0	0	25859	24470	132636	27279	1015214	42076	109571	0	0	8306	529134	0	0
2024-06-12 14:53:32			0	38594	0	0	0	25849	24470	132644	27114	1015161	42076	109567	0	0	8306	528944	0	0
2024-06-12 14:54:32			0	38621	0	0	0	25844	24470	132708	27064	1015107	42086	109565	0	0	8308	527916	0	0
2024-06-12 14:55:32			0	38618	0	0	0	25838	24470	132592	26981	1015142	42076	109563	0	0	8308	528030	0	0
2024-06-12 14:56:32			0	38620	0	0	0	25844	24470	132624	27284	1015134	42076	109565	0	0	8308	527954	0	0
2024-06-12 14:57:32			0	38620	0	0	0	25828	24460	132568	27284	1015099	42085	109559	0	0	8308	527984	0	0
2024-06-12 14:58:32			0	38619	0	0	0	25812	24470	132624	26897	1015116	42076	109553	0	0	8308	527992	0	0
2024-06-12 14:59:32			0	38631	0	0	0	25812	24470	132564	27131	1015054	42065	109553	0	0	8309	527536	0	0
2024-06-12 15:00:32			0	38645	0	0	0	25799	24460	132500	27222	1015036	42074	109548	0	0	8310	527034	0	0
2024-06-12 15:01:32			0	38644	0	0	0	25828	24460	132516	26930	1015072	42052	109559	0	0	8309	527072	0	0
2024-06-12 15:02:32			0	38658	0	0	0	25851	24460	132632	27093	1015152	42085	109568	0	0	8309	526540	0	0
2024-06-12 15:03:32			0	38636	0	0	0	25893	24470	132620	27185	1015223	42086	109584	0	0	8308	527346	0	0
2024-06-12 15:04:32			0	38652	0	0	0	25893	24480	132452	26989	1015160	42087	109584	0	0	8308	526709	0	0
2024-06-12 15:05:32			0	38644	0	0	0	25911	24480	132624	26974	1015267	42066	109591	0	0	8308	527012	0	0
2024-06-12 15:06:32			0	38636	0	0	0	25922	24490	132580	27196	1015355	42078	109595	0	0	8307	527286	0	0
2024-06-12 15:07:32			0	38629	0	0	0	25893	24500	132588	27286	1015328	42067	109584	0	0	8307	527523	0	0
2024-06-12 15:08:32			0	38636	0	0	0	25896	24490	132496	27059	1015284	42088	109585	0	0	8308	527286	0	0
2024-06-12 15:09:32			0	38647	0	0	0	25896	24510	132488	27118	1015309	42080	109585	0	0	8308	526809	0	0
2024-06-12 15:10:32			0	38628	0	0	0	25888	24500	132560	27197	1015346	42088	109582	0	0	8307	527561	0	0
2024-06-12 15:11:32			0	38641	0	0	0	25919	24510	132536	27060	1015363	42080	109594	0	0	8308	527037	0	0
2024-06-12 15:12:32			0	38667	0	0	0	25924	24500	132516	27019	1015328	42079	109596	0	0	8309	526080	0	0
2024-06-12 15:13:32			0	38654	0	0	0	25911	24510	132468	27279	1015398	42090	109591	0	0	8308	526543	0	0
2024-06-12 15:14:32			0	38658	0	0	0	25916	24520	132464	27369	1015434	42081	109593	0	0	8309	526362	0	0
2024-06-12 15:15:32			0	38671	0	0	0	25948	24510	132436	27317	1015452	42101	109605	0	0	8309	525898	0	0
2024-06-12 15:16:32			0	38655	0	0	0	25961	24530	132524	27105	1015477	42081	109610	0	0	8308	526446	0	0
2024-06-12 15:17:32			0	38654	0	0	0	25971	24530	132484	27235	1015566	42104	109614	0	0	8307	526484	0	0
2024-06-12 15:18:32			0	38652	0	0	0	25989	24530	132508	27298	1015620	42082	109621	0	0	8307	526560	0	0
2024-06-12 15:19:32			0	38651	0	0	0	25997	24540	132452	27305	1015637	42115	109624	0	0	8307	526568	0	0
2024-06-12 15:20:32			0	38669	0	0	0	26010	24560	132480	27435	1015690	42083	109629	0	0	8308	525825	0	0
2024-06-12 15:21:32			0	38639	0	0	0	25989	24560	132552	27223	1015690	42094	109621	0	0	8306	526964	0	0
2024-06-12 15:22:32			0	38652	0	0	0	25979	24570	132504	26951	1015707	42095	109617	0	0	8307	526441	0	0
2024-06-12 15:23:32			0	38643	0	0	0	25976	24570	132388	26963	1015680	42084	109616	0	0	8307	526782	0	0
2024-06-12 15:24:32			0	38665	0	0	0	25958	24570	132448	27289	1015662	42085	109609	0	0	8308	525947	0	0
2024-06-12 15:25:32			0	38661	0	0	0	25937	24570	132412	27086	1015573	42095	109601	0	0	8309	526099	0	0
2024-06-12 15:26:32			0	38675	0	0	0	25924	24570	132340	26991	1015573	42074	109596	0	0	8309	525568	0	0
2024-06-12 15:27:32			0	38676	0	0	0	25924	24560	132320	27064	1015618	42094	109596	0	0	8309	525560	0	0
2024-06-12 15:28:32			0	38676	0	0	0	25924	24560	132204	26942	1015583	42083	109596	0	0	8309	525560	0	0
2024-06-12 15:29:32			0	38676	0	0	0	25893	24560	132304	27057	1015556	42083	109584	0	0	8310	525560	0	0
2024-06-12 15:30:32			0	38704	0	0	0	25888	24560	132248	27393	1015476	42083	109582	0	0	8312	524499	0	0
2024-06-12 15:31:32			0	38698	0	0	0	25885	24540	132332	27069	1015441	42071	109581	0	0	8311	524786	0	0
2024-06-12 15:32:32			0	38631	0	0	0	25888	24530	132412	27282	1015379	42082	109582	0	0	8308	527357	0	0
2024-06-12 15:33:32			0	38592	0	0	0	25890	24540	132712	27225	1015414	42082	109583	0	0	8306	528810	0	0
2024-06-12 15:34:32			0	38540	0	0	0	25885	24530	132804	26979	1015433	42082	109581	0	0	8303	530822	0	0
2024-06-12 15:35:32			0	38527	0	0	0	25875	24530	132816	27332	1015424	42081	109577	0	0	8303	531318	0	0
2024-06-12 15:36:32			0	38511	0	0	0	25888	24530	132888	27417	1015424	42070	109582	0	0	8301	531928	0	0
2024-06-12 15:37:32			0	38493	0	0	0	25901	24530	132952	27211	1015397	42092	109587	0	0	8300	532616	0	0
2024-06-12 15:38:32			0	38493	0	0	0	25901	24530	132924	27234	1015424	42081	109587	0	0	8300	532616	0	0
2024-06-12 15:39:32			0	38506	0	0	0	25922	24540	132892	27147	1015468	42082	109595	0	0	8301	532089	0	0
2024-06-12 15:40:32			0	38522	0	0	0	25948	24540	132876	27345	1015557	42093	109605	0	0	8301	531478	0	0
2024-06-12 15:41:32			0	38531	0	0	0	25953	24540	132832	27204	1015637	42093	109607	0	0	8301	531135	0	0
2024-06-12 15:42:32			0	38531	0	0	0	25950	24550	132868	27112	1015592	42083	109606	0	0	8302	531105	0	0
2024-06-12 15:43:32			0	38512	0	0	0	25945	24550	132864	27081	1015512	42094	109604	0	0	8301	531830	0	0
2024-06-12 15:44:32			0	38544	0	0	0	25958	24550	132780	26932	1015592	42083	109609	0	0	8302	530609	0	0
2024-06-12 15:45:32			0	38550	0	0	0	25984	24550	132792	27050	1015761	42083	109619	0	0	8302	530380	0	0
2024-06-12 15:46:32			0	38533	0	0	0	26018	24560	132856	27272	1015752	42094	109632	0	0	8301	530999	0	0
2024-06-12 15:47:32			0	38532	0	0	0	26041	24580	132972	27013	1015866	42097	109641	0	0	8300	530977	0	0
2024-06-12 15:48:32			0	38494	0	0	0	26049	24590	132872	27159	1015937	42087	109644	0	0	8298	532397	0	0
2024-06-12 15:49:32			0	38518	0	0	0	26075	24600	132968	27256	1015981	42088	109654	0	0	8299	531451	0	0
2024-06-12 15:50:32			0	38505	0	0	0	26088	24620	132976	27395	1016052	42100	109659	0	0	8298	531887	0	0
2024-06-12 15:51:32			0	38493	0	0	0	26093	24620	133028	27171	1016060	42112	109661	0	0	8297	532345	0	0
2024-06-12 15:52:32			0	38510	0	0	0	26098	24640	132896	26986	1016086	42091	109663	0	0	8298	531636	0	0
2024-06-12 15:53:32			0	38515	0	0	0	26098	24650	132832	27289	1016165	42115	109663	0	0	8299	531415	0	0
2024-06-12 15:54:32			0	38540	0	0	0	26106	24650	132804	27364	1016165	42104	109666	0	0	8300	530461	0	0
2024-06-12 15:55:32			0	38528	0	0	0	26106	24660	132828	27218	1016200	42115	109666	0	0	8299	530889	0	0
2024-06-12 15:56:32			0	38506	0	0	0	26098	24660	132948	27270	1016236	42105	109663	0	0	8298	531728	0	0
2024-06-12 15:57:32			0	38555	0	0	0	26098	24680	132780	27294	1016208	42105	109663	0	0	8301	529800	0	0
2024-06-12 15:58:32			0	38589	0	0	0	26109	24670	132704	27287	1016253	42105	109667	0	0	8302	528536	0	0
2024-06-12 15:59:32			0	38636	0	0	0	26119	24680	132428	27438	1016261	42094	109671	0	0	8305	526720	0	0
2024-06-12 16:00:32			0	38675	0	0	0	26116	24690	132344	26993	1016332	42095	109670	0	0	8307	525211	0	0
2024-06-12 16:01:32			0	38690	0	0	0	26116	24690	132320	27324	1016341	42107	109670	0	0	8308	524643	0	0
2024-06-12 16:02:32			0	38692	0	0	0	26122	24700	132360	27069	1016296	42108	109672	0	0	8308	524538	0	0
2024-06-12 16:03:32			0	38682	0	0	0	26111	24700	132296	27194	1016350	42097	109668	0	0	8307	524917	0	0
2024-06-12 16:04:32			0	38645	0	0	0	26111	24690	132364	27066	1016341	42107	109668	0	0	8305	526349	0	0
2024-06-12 16:05:32			0	38644	0	0	0	26109	24700	132468	27360	1016358	42120	109667	0	0	8305	526357	0	0
2024-06-12 16:06:32			0	38654	0	0	0	26116	24700	132352	27286	1016323	42108	109670	0	0	8306	525978	0	0
2024-06-12 16:07:32			0	38643	0	0	0	26119	24710	132368	27118	1016420	42097	109671	0	0	8305	526365	0	0
2024-06-12 16:08:32			0	38646	0	0	0	26116	24700	132412	27133	1016358	42108	109670	0	0	8305	526281	0	0
2024-06-12 16:09:32			0	38635	0	0	0	26124	24710	132340	27111	1016375	42109	109673	0	0	8305	526669	0	0
2024-06-12 16:10:32			0	38628	0	0	0	26122	24720	132396	27415	1016384	42110	109672	0	0	8304	526905	0	0
2024-06-12 16:11:32			0	38603	0	0	0	26116	24710	132424	27209	1016420	42097	109670	0	0	8303	527884	0	0
2024-06-12 16:12:32			0	38633	0	0	0	26127	24720	132448	27364	1016419	42087	109674	0	0	8305	526715	0	0
2024-06-12 16:13:32			0	38612	0	0	0	26101	24730	132404	27038	1016374	42111	109664	0	0	8304	527482	0	0
2024-06-12 16:14:32			0	38615	0	0	0	26101	24730	132492	27345	1016455	42100	109664	0	0	8304	527368	0	0
2024-06-12 16:15:32			0	38589	0	0	0	26109	24720	132560	27211	1016384	42099	109667	0	0	8303	528386	0	0
2024-06-12 16:16:32			0	38608	0	0	0	26106	24720	132476	27376	1016419	42099	109666	0	0	8304	527664	0	0
2024-06-12 16:17:32			0	38569	0	0	0	26096	24730	132544	27455	1016401	42111	109662	0	0	8302	529117	0	0
2024-06-12 16:18:32			0	38590	0	0	0	26088	24720	132500	27505	1016357	42110	109659	0	0	8303	528348	0	0
2024-06-12 16:19:32			0	38579	0	0	0	26075	24710	132532	27478	1016242	42076	109654	0	0	8303	528796	0	0
2024-06-12 16:20:32			0	38609	0	0	0	26059	24700	132476	27322	1016224	42097	109648	0	0	8304	527686	0	0
2024-06-12 16:21:32			0	38600	0	0	0	26046	24700	132560	27353	1016251	42086	109643	0	0	8304	528028	0	0
2024-06-12 16:22:32			0	38600	0	0	0	26057	24690	132556	27147	1016181	42085	109647	0	0	8304	528058	0	0
2024-06-12 16:23:32			0	38600	0	0	0	26051	24690	132500	27268	1016207	42085	109645	0	0	8304	528058	0	0
2024-06-12 16:24:32			0	38616	0	0	0	26054	24690	132364	27119	1016207	42107	109646	0	0	8305	527450	0	0
2024-06-12 16:25:32			0	38620	0	0	0	26051	24690	132424	27281	1016225	42095	109645	0	0	8305	527298	0	0
2024-06-12 16:26:32			0	38610	0	0	0	26057	24680	132392	27112	1016181	42083	109647	0	0	8304	527707	0	0
2024-06-12 16:27:32			0	38631	0	0	0	26046	24680	132420	27001	1016154	42094	109643	0	0	8306	526910	0	0
2024-06-12 16:28:32			0	38643	0	0	0	26051	24670	132320	27137	1016173	42094	109645	0	0	8306	526484	0	0
2024-06-12 16:29:32			0	38660	0	0	0	26041	24670	132300	27516	1016146	42094	109641	0	0	8307	525840	0	0
2024-06-12 16:30:32			0	38661	0	0	0	26044	24670	132280	27013	1016164	42083	109642	0	0	8307	525802	0	0
2024-06-12 16:31:32			0	38676	0	0	0	26046	24670	132248	27267	1016173	42105	109643	0	0	8308	525233	0	0
2024-06-12 16:32:32			0	38693	0	0	0	26059	24670	132232	27315	1016146	42105	109648	0	0	8309	524589	0	0
2024-06-12 16:33:32			0	38703	0	0	0	26075	24680	132120	27372	1016181	42105	109654	0	0	8309	524181	0	0
2024-06-12 16:34:32			0	38726	0	0	0	26090	24690	132172	27166	1016314	42107	109660	0	0	8310	523281	0	0
2024-06-12 16:35:32			0	38720	0	0	0	26119	24690	132232	27495	1016368	42119	109671	0	0	8309	523508	0	0
2024-06-12 16:36:32			0	38711	0	0	0	26145	24690	132108	27176	1016395	42119	109681	0	0	8308	523849	0	0
2024-06-12 16:37:32			0	38715	0	0	0	26168	24710	132124	27379	1016482	42098	109690	0	0	8308	523638	0	0
2024-06-12 16:38:32			0	38722	0	0	0	26192	24730	132072	27360	1016562	42122	109699	0	0	8308	523314	0	0
2024-06-12 16:39:32			0	38732	0	0	0	26197	24750	132037	27241	1016623	42124	109701	0	0	8309	522877	0	0
2024-06-12 16:40:32			0	38764	0	0	0	26202	24750	132037	27428	1016650	42113	109703	0	0	8310	521669	0	0
2024-06-12 16:41:32			0	38763	0	0	0	26186	24750	131961	27274	1016596	42101	109697	0	0	8310	521707	0	0
2024-06-12 16:42:32			0	38787	0	0	0	26184	24760	131901	27464	1016640	42091	109696	0	0	8312	520772	0	0
2024-06-12 16:43:32			0	38771	0	0	0	26186	24750	131901	27407	1016631	42101	109697	0	0	8311	521405	0	0
2024-06-12 16:44:32			0	38806	0	0	0	26181	24760	131749	27234	1016640	42102	109695	0	0	8313	520056	0	0
2024-06-12 16:45:32			0	38815	0	0	0	26186	24760	131769	27346	1016648	42115	109697	0	0	8313	519718	0	0
2024-06-12 16:46:32			0	38828	0	0	0	26192	24770	131681	27268	1016657	42115	109699	0	0	8314	519199	0	0
2024-06-12 16:47:32			0	38837	0	0	0	26197	24770	131609	27396	1016666	42125	109701	0	0	8314	518860	0	0
2024-06-12 16:48:32			0	38828	0	0	0	26197	24780	131605	27424	1016763	42105	109701	0	0	8314	519170	0	0
2024-06-12 16:49:32			0	38861	0	0	0	26199	24780	131621	27135	1016763	42116	109702	0	0	8315	517929	0	0
2024-06-12 16:50:32			0	38859	0	0	0	26202	24770	131613	27168	1016719	42115	109703	0	0	8315	518033	0	0
2024-06-12 16:51:32			0	38872	0	0	0	26210	24790	131569	27048	1016745	42127	109706	0	0	8316	517487	0	0
2024-06-12 16:52:32			0	38868	0	0	0	26210	24790	131493	26927	1016772	42116	109706	0	0	8316	517637	0	0
2024-06-12 16:53:32			0	38851	0	0	0	26218	24790	131585	27121	1016772	42116	109709	0	0	8314	518275	0	0
2024-06-12 16:54:32			0	38870	0	0	0	26210	24780	131485	27022	1016790	42116	109706	0	0	8316	517591	0	0
2024-06-12 16:55:32			0	38876	0	0	0	26212	24800	131493	27229	1016869	42117	109707	0	0	8316	517307	0	0
2024-06-12 16:56:32			0	38871	0	0	0	26218	24800	131557	27324	1016923	42128	109709	0	0	8316	517495	0	0
2024-06-12 16:57:32			0	38895	0	0	0	26231	24810	131573	27393	1016860	42129	109714	0	0	8317	516565	0	0
2024-06-12 16:58:32			0	38878	0	0	0	26238	24810	131561	27183	1016922	42130	109717	0	0	8316	517203	0	0
2024-06-12 16:59:32			0	38883	0	0	0	26241	24820	131541	27274	1016966	42130	109718	0	0	8316	516986	0	0
2024-06-12 17:00:32			0	38881	0	0	0	26249	24820	131605	27020	1016966	42120	109721	0	0	8316	517061	0	0
2024-06-12 17:01:32			0	38876	0	0	0	26241	24830	131525	27149	1016974	42121	109718	0	0	8316	517219	0	0
2024-06-12 17:02:32			0	38876	0	0	0	26244	24820	131533	27076	1016966	42120	109719	0	0	8315	517249	0	0
2024-06-12 17:03:32			0	38877	0	0	0	26241	24830	131573	26944	1016974	42121	109718	0	0	8316	517182	0	0
2024-06-12 17:04:32			0	38857	0	0	0	26238	24820	131581	27043	1016912	42130	109717	0	0	8315	517962	0	0
2024-06-12 17:05:32			0	38868	0	0	0	26241	24830	131545	27107	1016948	42121	109718	0	0	8315	517520	0	0
2024-06-12 17:06:32			0	38864	0	0	0	26238	24840	131601	27189	1017018	42121	109717	0	0	8315	517640	0	0
2024-06-12 17:07:32			0	38849	0	0	0	26236	24830	131685	27277	1016948	42131	109716	0	0	8314	518233	0	0
2024-06-12 17:08:32			0	38852	0	0	0	26241	24830	131641	27062	1017001	42121	109718	0	0	8314	518120	0	0
2024-06-12 17:09:32			0	38863	0	0	0	26241	24840	131601	27294	1017045	42121	109718	0	0	8315	517678	0	0
2024-06-12 17:10:32			0	38875	0	0	0	26238	24830	131637	27144	1016974	42121	109717	0	0	8316	517257	0	0
2024-06-12 17:11:32			0	38868	0	0	0	26244	24830	131561	27268	1016974	42131	109719	0	0	8315	517520	0	0
2024-06-12 17:12:32			0	38861	0	0	0	26249	24830	131545	27034	1017001	42121	109721	0	0	8315	517782	0	0
2024-06-12 17:13:32			0	38873	0	0	0	26241	24840	131477	27196	1016992	42131	109718	0	0	8315	517303	0	0
2024-06-12 17:14:32			0	38844	0	0	0	26246	24840	131629	27225	1017018	42131	109720	0	0	8314	518392	0	0
2024-06-12 17:15:32			0	38821	0	0	0	26257	24830	131705	27293	1016983	42131	109724	0	0	8312	519286	0	0
2024-06-12 17:16:32			0	38813	0	0	0	26254	24860	131729	27324	1017053	42111	109723	0	0	8312	519498	0	0
2024-06-12 17:17:32			0	38832	0	0	0	26257	24850	131741	27206	1017017	42123	109724	0	0	8313	518813	0	0
2024-06-12 17:18:32			0	38832	0	0	0	26257	24850	131737	27367	1017089	42123	109724	0	0	8313	518813	0	0
2024-06-12 17:19:32			0	38836	0	0	0	26264	24850	131709	27407	1017071	42123	109727	0	0	8313	518663	0	0
2024-06-12 17:20:32			0	38826	0	0	0	26264	24860	131641	27201	1017106	42133	109727	0	0	8313	519010	0	0
2024-06-12 17:21:32			0	38860	0	0	0	26264	24860	131557	27454	1017133	42144	109727	0	0	8314	517732	0	0
2024-06-12 17:22:32			0	38872	0	0	0	26270	24860	131557	27481	1017115	42134	109729	0	0	8315	517282	0	0
2024-06-12 17:23:32			0	38861	0	0	0	26272	24870	131581	27265	1017097	42125	109730	0	0	8314	517665	0	0
2024-06-12 17:24:32			0	38883	0	0	0	26257	24860	131561	27301	1017133	42123	109724	0	0	8316	516869	0	0
2024-06-12 17:25:32			0	38889	0	0	0	26262	24860	131461	27395	1017115	42134	109726	0	0	8316	516644	0	0
2024-06-12 17:26:32			0	38913	0	0	0	26272	24870	131329	27079	1017123	42135	109730	0	0	8317	515715	0	0
2024-06-12 17:27:32			0	38909	0	0	0	26264	24860	131289	27220	1017142	42124	109727	0	0	8317	515894	0	0
2024-06-12 17:28:32			0	38909	0	0	0	26277	24870	131369	27112	1017105	42125	109732	0	0	8317	515865	0	0
2024-06-12 17:29:32			0	38920	0	0	0	26283	24870	131393	27327	1017123	42125	109734	0	0	8317	515453	0	0
2024-06-12 17:30:32			0	38942	0	0	0	26272	24870	131389	27209	1017159	42125	109730	0	0	8319	514629	0	0
2024-06-12 17:31:32			0	38945	0	0	0	26270	24870	131397	27097	1017212	42125	109729	0	0	8319	514517	0	0
2024-06-12 17:32:32			0	38934	0	0	0	26246	24870	131277	26767	1017159	42113	109720	0	0	8319	514929	0	0
2024-06-12 17:33:32			0	38948	0	0	0	26244	24860	131265	26838	1017115	42124	109719	0	0	8319	514434	0	0
2024-06-12 17:34:32			0	38944	0	0	0	26254	24870	131321	27071	1017123	42125	109723	0	0	8319	514555	0	0
2024-06-12 17:35:32			0	38943	0	0	0	26257	24870	131285	27308	1017105	42135	109724	0	0	8319	514592	0	0
2024-06-12 17:36:32			0	38961	0	0	0	26259	24870	131229	27170	1017123	42102	109725	0	0	8320	513919	0	0
2024-06-12 17:37:32			0	38959	0	0	0	26267	24870	131169	27291	1017159	42125	109728	0	0	8320	513994	0	0
2024-06-12 17:38:32			0	38955	0	0	0	26270	24880	131265	27248	1017167	42125	109729	0	0	8319	514114	0	0
2024-06-12 17:39:32			0	38961	0	0	0	26272	24880	131269	27173	1017167	42135	109730	0	0	8320	513890	0	0
2024-06-12 17:40:32			0	38964	0	0	0	26257	24880	131233	26876	1017087	42125	109724	0	0	8320	513778	0	0
2024-06-12 17:41:32			0	38985	0	0	0	26244	24870	131117	27223	1017078	42125	109719	0	0	8321	513022	0	0
2024-06-12 17:42:32			0	38986	0	0	0	26246	24870	131169	27403	1017043	42125	109720	0	0	8321	512985	0	0
2024-06-12 17:43:32			0	38978	0	0	0	26246	24870	131137	27140	1017070	42135	109720	0	0	8321	513284	0	0
2024-06-12 17:44:32			0	38983	0	0	0	26249	24860	131129	27223	1017026	42111	109721	0	0	8321	513126	0	0
2024-06-12 17:45:32			0	39007	0	0	0	26238	24850	131133	26722	1016955	42123	109717	0	0	8322	512259	0	0
2024-06-12 17:46:32			0	38977	0	0	0	26215	24850	131177	27076	1016955	42123	109708	0	0	8321	513379	0	0
2024-06-12 17:47:32			0	38989	0	0	0	26210	24840	131129	26974	1016920	42111	109706	0	0	8322	512960	0	0
2024-06-12 17:48:32			0	39007	0	0	0	26199	24830	131129	27223	1016876	42098	109702	0	0	8323	512317	0	0
2024-06-12 17:49:32			0	39003	0	0	0	26176	24830	131077	27081	1016769	42110	109693	0	0	8323	512466	0	0
2024-06-12 17:50:32			0	39009	0	0	0	26171	24820	131093	27410	1016779	42120	109691	0	0	8324	512272	0	0
2024-06-12 17:51:32			0	39016	0	0	0	26161	24810	131085	27424	1016735	42108	109687	0	0	8324	512039	0	0
2024-06-12 17:52:32			0	39002	0	0	0	26155	24810	131053	27069	1016726	42107	109685	0	0	8323	512562	0	0
2024-06-12 17:53:32			0	39016	0	0	0	26153	24800	131069	27007	1016709	42128	109684	0	0	8324	512068	0	0
2024-06-12 17:54:32			0	39024	0	0	0	26155	24790	131069	27079	1016727	42105	109685	0	0	8324	511799	0	0
2024-06-12 17:55:32			0	39036	0	0	0	26161	24800	131061	27331	1016735	42117	109687	0	0	8325	511322	0	0
2024-06-12 17:56:32			0	39038	0	0	0	26150	24790	131085	27486	1016700	42105	109683	0	0	8325	511277	0	0
2024-06-12 17:57:32			0	39016	0	0	0	26150	24780	131029	27007	1016656	42116	109683	0	0	8324	512126	0	0
2024-06-12 17:58:32			0	39030	0	0	0	26142	24780	131109	27279	1016656	42116	109680	0	0	8325	511604	0	0
2024-06-12 17:59:32			0	39030	0	0	0	26158	24780	131001	27291	1016683	42105	109686	0	0	8325	511604	0	0
2024-06-12 18:00:32			0	39039	0	0	0	26163	24780	131101	27239	1016647	42126	109688	0	0	8325	511269	0	0
2024-06-12 18:01:32			0	39013	0	0	0	26163	24790	131161	27268	1016691	42116	109688	0	0	8324	512209	0	0
2024-06-12 18:02:32			0	39035	0	0	0	26163	24780	131089	27112	1016736	42116	109688	0	0	8325	511418	0	0
2024-06-12 18:03:32			0	39025	0	0	0	26166	24780	131125	26902	1016656	42116	109689	0	0	8324	511791	0	0
2024-06-12 18:04:32			0	39005	0	0	0	26171	24780	131073	27066	1016710	42116	109691	0	0	8323	512537	0	0
2024-06-12 18:05:32			0	39003	0	0	0	26176	24790	131129	26934	1016718	42127	109693	0	0	8323	512583	0	0
2024-06-12 18:06:32			0	39000	0	0	0	26189	24790	131153	26998	1016798	42127	109698	0	0	8323	512695	0	0
2024-06-12 18:07:32			0	38981	0	0	0	26189	24790	131149	27050	1016727	42105	109698	0	0	8322	513404	0	0
2024-06-12 18:08:32			0	39005	0	0	0	26194	24800	131149	26930	1016789	42117	109700	0	0	8323	512479	0	0
2024-06-12 18:09:32			0	39005	0	0	0	26194	24790	131209	26972	1016780	42127	109700	0	0	8323	512508	0	0
2024-06-12 18:10:32			0	39005	0	0	0	26194	24790	131093	27263	1016798	42116	109700	0	0	8323	512508	0	0
2024-06-12 18:11:32			0	39005	0	0	0	26199	24800	131069	27189	1016896	42117	109702	0	0	8323	512479	0	0
2024-06-12 18:12:32			0	39008	0	0	0	26197	24800	131197	27128	1016842	42106	109701	0	0	8323	512367	0	0
2024-06-12 18:13:32			0	39007	0	0	0	26197	24800	131189	26892	1016824	42118	109701	0	0	8323	512404	0	0
2024-06-12 18:14:32			0	39009	0	0	0	26189	24800	131133	27275	1016816	42106	109698	0	0	8323	512330	0	0
2024-06-12 18:15:32			0	39003	0	0	0	26194	24790	131161	27130	1016745	42127	109700	0	0	8323	512583	0	0
2024-06-12 18:16:32			0	38987	0	0	0	26197	24800	131205	26752	1016762	42117	109701	0	0	8322	513151	0	0
2024-06-12 18:17:32			0	39000	0	0	0	26186	24790	131185	26975	1016772	42116	109697	0	0	8323	512695	0	0
2024-06-12 18:18:32			0	38993	0	0	0	26181	24790	131193	26965	1016753	42116	109695	0	0	8322	512956	0	0
2024-06-12 18:19:32			0	38991	0	0	0	26184	24790	131185	27275	1016798	42138	109696	0	0	8322	513031	0	0
2024-06-12 18:20:32			0	38996	0	0	0	26186	24790	131165	27116	1016834	42105	109697	0	0	8323	512844	0	0
2024-06-12 18:21:32			0	38990	0	0	0	26197	24800	131217	27036	1016762	42128	109701	0	0	8322	513039	0	0
2024-06-12 18:22:32			0	39009	0	0	0	26192	24800	131261	27213	1016797	42118	109699	0	0	8323	512330	0	0
2024-06-12 18:23:32			0	38996	0	0	0	26202	24800	131157	27197	1016816	42128	109703	0	0	8322	512815	0	0
2024-06-12 18:24:32			0	38994	0	0	0	26189	24790	131197	27208	1016780	42116	109698	0	0	8322	512919	0	0
2024-06-12 18:25:32			0	39003	0	0	0	26197	24800	131309	26892	1016789	42128	109701	0	0	8323	512553	0	0
2024-06-12 18:26:32			0	38953	0	0	0	26186	24790	131217	27008	1016780	42116	109697	0	0	8320	514451	0	0
2024-06-12 18:27:32			0	38974	0	0	0	26194	24790	131317	27216	1016772	42127	109700	0	0	8321	513666	0	0
2024-06-12 18:28:32			0	38956	0	0	0	26181	24800	131161	27225	1016789	42106	109695	0	0	8321	514310	0	0
2024-06-12 18:29:32			0	38965	0	0	0	26179	24770	131257	26897	1016719	42125	109694	0	0	8321	514060	0	0
2024-06-12 18:30:32			0	38986	0	0	0	26174	24790	131241	26955	1016753	42116	109692	0	0	8322	513217	0	0
2024-06-12 18:31:32			0	38986	0	0	0	26163	24780	131197	27015	1016736	42116	109688	0	0	8322	513246	0	0
2024-06-12 18:32:32			0	39011	0	0	0	26150	24770	131121	27112	1016711	42115	109683	0	0	8324	512342	0	0
2024-06-12 18:33:32			0	39026	0	0	0	26161	24780	131089	26861	1016701	42104	109687	0	0	8324	511753	0	0
2024-06-12 18:34:32			0	39024	0	0	0	26155	24770	131125	27154	1016630	42103	109685	0	0	8324	511857	0	0
2024-06-12 18:35:32			0	39028	0	0	0	26163	24780	131069	27215	1016710	42105	109688	0	0	8325	511679	0	0
2024-06-12 18:36:32			0	39023	0	0	0	26171	24770	131081	27279	1016666	42125	109691	0	0	8324	511894	0	0
2024-06-12 18:37:32			0	39023	0	0	0	26168	24780	130977	27261	1016656	42116	109690	0	0	8324	511865	0	0
2024-06-12 18:38:32			0	38999	0	0	0	26166	24780	131061	27182	1016647	42116	109689	0	0	8323	512761	0	0
2024-06-12 18:39:32			0	39005	0	0	0	26142	24760	131141	27256	1016560	42114	109680	0	0	8324	512595	0	0
2024-06-12 18:40:32			0	38981	0	0	0	26137	24760	131149	27291	1016560	42114	109678	0	0	8322	513491	0	0
2024-06-12 18:41:32			0	38999	0	0	0	26127	24760	131061	26977	1016586	42114	109674	0	0	8324	512819	0	0
2024-06-12 18:42:32			0	38993	0	0	0	26122	24750	131165	27189	1016498	42113	109672	0	0	8323	513072	0	0
2024-06-12 18:43:32			0	39005	0	0	0	26101	24740	131145	27229	1016472	42101	109664	0	0	8324	512653	0	0
2024-06-12 18:44:32			0	38995	0	0	0	26101	24740	131133	27445	1016480	42123	109664	0	0	8324	513026	0	0
2024-06-12 18:45:32			0	38986	0	0	0	26088	24740	131061	27053	1016392	42112	109659	0	0	8323	513363	0	0
2024-06-12 18:46:32			0	39008	0	0	0	26075	24730	131049	27222	1016383	42111	109654	0	0	8325	512570	0	0
2024-06-12 18:47:32			0	38977	0	0	0	26064	24720	131065	27220	1016357	42110	109650	0	0	8323	513757	0	0
2024-06-12 18:48:32			0	38997	0	0	0	26096	24720	131085	27312	1016419	42121	109662	0	0	8324	513010	0	0
2024-06-12 18:49:32			0	39016	0	0	0	26103	24720	130993	27107	1016491	42110	109665	0	0	8325	512300	0	0
2024-06-12 18:50:32			0	39027	0	0	0	26090	24720	131121	27161	1016411	42099	109660	0	0	8325	511890	0	0
2024-06-12 18:51:32			0	39022	0	0	0	26090	24720	131033	27111	1016384	42110	109660	0	0	8325	512076	0	0
2024-06-12 18:52:32			0	39029	0	0	0	26083	24720	131109	26734	1016411	42121	109657	0	0	8326	511815	0	0
2024-06-12 18:53:32			0	39050	0	0	0	26098	24720	131029	27176	1016411	42121	109663	0	0	8326	511032	0	0
2024-06-12 18:54:32			0	39071	0	0	0	26111	24720	130961	27045	1016411	42099	109668	0	0	8327	510250	0	0
2024-06-12 18:55:32			0	39035	0	0	0	26096	24720	130977	27100	1016437	42110	109662	0	0	8326	511591	0	0
2024-06-12 18:56:32			0	39058	0	0	0	26096	24700	131013	27046	1016412	42108	109662	0	0	8327	510792	0	0
2024-06-12 18:57:32			0	39060	0	0	0	26070	24700	130993	27085	1016305	42120	109652	0	0	8327	510717	0	0
2024-06-12 18:58:32			0	39080	0	0	0	26075	24700	130893	27175	1016350	42108	109654	0	0	8328	509972	0	0
2024-06-12 18:59:32			0	39065	0	0	0	26072	24710	130925	26944	1016394	42108	109653	0	0	8328	510502	0	0
2024-06-12 19:00:32			0	39063	0	0	0	26070	24700	130913	27045	1016278	42130	109652	0	0	8328	510606	0	0
2024-06-12 19:01:32			0	39055	0	0	0	26070	24680	130893	27053	1016324	42095	109652	0	0	8327	510962	0	0
2024-06-12 19:02:32			0	39057	0	0	0	26067	24690	130969	27033	1016288	42119	109651	0	0	8327	510858	0	0
2024-06-12 19:03:32			0	39090	0	0	0	26064	24680	130873	26896	1016288	42117	109650	0	0	8329	509658	0	0
2024-06-12 19:04:32			0	39098	0	0	0	26057	24690	130881	27043	1016252	42095	109647	0	0	8330	509332	0	0
2024-06-12 19:05:32			0	39087	0	0	0	26064	24680	130881	27048	1016235	42105	109650	0	0	8329	509770	0	0
2024-06-12 19:06:32			0	39071	0	0	0	26067	24680	130849	27085	1016297	42106	109651	0	0	8328	510365	0	0
2024-06-12 19:07:32			0	39090	0	0	0	26088	24690	130825	27310	1016368	42119	109659	0	0	8329	509629	0	0
2024-06-12 19:08:32			0	39095	0	0	0	26093	24690	130849	27182	1016332	42106	109661	0	0	8329	509443	0	0
2024-06-12 19:09:32			0	39080	0	0	0	26101	24680	130873	27400	1016351	42118	109664	0	0	8328	510030	0	0
2024-06-12 19:10:32			0	39096	0	0	0	26098	24690	130889	27213	1016368	42119	109663	0	0	8329	509406	0	0
2024-06-12 19:11:32			0	39083	0	0	0	26098	24690	130953	27209	1016332	42106	109663	0	0	8328	509890	0	0
2024-06-12 19:12:32			0	39090	0	0	0	26103	24700	130785	27232	1016385	42108	109665	0	0	8328	509600	0	0
2024-06-12 19:13:32			0	39087	0	0	0	26119	24700	130849	27083	1016385	42108	109671	0	0	8328	509712	0	0
2024-06-12 19:14:32			0	39103	0	0	0	26103	24700	130905	27190	1016403	42120	109665	0	0	8329	509117	0	0
2024-06-12 19:15:32			0	39099	0	0	0	26111	24690	130793	26852	1016368	42107	109668	0	0	8329	509294	0	0
2024-06-12 19:16:32			0	39109	0	0	0	26111	24700	130897	27053	1016376	42108	109668	0	0	8329	508894	0	0
2024-06-12 19:17:32			0	39112	0	0	0	26111	24700	130873	26953	1016403	42097	109668	0	0	8329	508782	0	0
2024-06-12 19:18:32			0	39116	0	0	0	26106	24700	130861	27211	1016323	42120	109666	0	0	8330	508633	0	0
2024-06-12 19:19:32			0	39111	0	0	0	26103	24690	130809	26819	1016332	42106	109665	0	0	8329	508848	0	0
2024-06-12 19:20:32			0	39149	0	0	0	26093	24700	130841	27053	1016358	42097	109661	0	0	8332	507408	0	0
2024-06-12 19:21:32			0	39129	0	0	0	26106	24700	130785	27149	1016403	42108	109666	0	0	8330	508150	0	0
2024-06-12 19:22:32			0	39140	0	0	0	26101	24690	130765	27038	1016341	42096	109664	0	0	8331	507771	0	0
2024-06-12 19:23:32			0	39148	0	0	0	26103	24690	130801	27268	1016359	42118	109665	0	0	8331	507474	0	0
2024-06-12 19:24:32			0	39150	0	0	0	26101	24690	130689	27223	1016359	42106	109664	0	0	8331	507399	0	0
2024-06-12 19:25:32			0	39161	0	0	0	26096	24700	130665	27355	1016376	42108	109662	0	0	8332	506963	0	0
2024-06-12 19:26:32			0	39145	0	0	0	26088	24690	130657	27232	1016288	42119	109659	0	0	8331	507585	0	0
2024-06-12 19:27:32			0	39139	0	0	0	26090	24700	130637	27072	1016331	42120	109660	0	0	8331	507779	0	0
2024-06-12 19:28:32			0	39185	0	0	0	26083	24690	130577	26949	1016252	42118	109657	0	0	8334	506101	0	0
2024-06-12 19:29:32			0	39163	0	0	0	26075	24680	130641	26798	1016270	42106	109654	0	0	8333	506946	0	0
2024-06-12 19:30:32			0	39171	0	0	0	26067	24680	130649	26828	1016270	42106	109651	0	0	8333	506649	0	0
2024-06-12 19:31:32			0	39177	0	0	0	26064	24680	130621	26781	1016297	42106	109650	0	0	8333	506427	0	0
2024-06-12 19:32:32			0	39186	0	0	0	26062	24680	130569	27038	1016181	42105	109649	0	0	8334	506093	0	0
2024-06-12 19:33:32			0	39175	0	0	0	26046	24660	130645	27275	1016155	42116	109643	0	0	8334	506558	0	0
2024-06-12 19:34:32			0	39183	0	0	0	26044	24660	130657	27178	1016075	42093	109642	0	0	8334	506261	0	0
2024-06-12 19:35:32			0	39163	0	0	0	26025	24660	130557	27164	1016102	42105	109635	0	0	8333	507003	0	0
2024-06-12 19:36:32			0	39167	0	0	0	26020	24650	130669	27105	1016138	42115	109633	0	0	8334	506883	0	0
2024-06-12 19:37:32			0	39165	0	0	0	26028	24650	130553	27121	1016103	42125	109636	0	0	8333	506958	0	0
2024-06-12 19:38:32			0	39168	0	0	0	26028	24650	130685	26844	1016103	42103	109636	0	0	8333	506846	0	0
2024-06-12 19:39:32			0	39137	0	0	0	26028	24650	130769	26701	1016050	42091	109636	0	0	8332	507997	0	0
2024-06-12 19:40:32			0	39126	0	0	0	26023	24650	130793	26998	1015996	42103	109634	0	0	8331	508406	0	0
2024-06-12 19:41:32			0	39075	0	0	0	26015	24630	130901	26927	1016024	42090	109631	0	0	8329	510361	0	0
2024-06-12 19:42:32			0	39053	0	0	0	26002	24640	131025	27142	1016059	42102	109626	0	0	8328	511152	0	0
2024-06-12 19:43:32			0	39039	0	0	0	26002	24630	131053	27275	1015962	42124	109626	0	0	8327	511703	0	0
2024-06-12 19:44:32			0	39046	0	0	0	25992	24630	131125	27338	1015988	42090	109622	0	0	8328	511442	0	0
2024-06-12 19:45:32			0	39017	0	0	0	25989	24620	131157	27291	1015980	42112	109621	0	0	8326	512553	0	0
2024-06-12 19:46:32			0	38985	0	0	0	25986	24620	131261	27270	1015873	42112	109620	0	0	8325	513749	0	0
2024-06-12 19:47:32			0	38993	0	0	0	25989	24620	131253	27010	1015926	42112	109621	0	0	8325	513450	0	0
2024-06-12 19:48:32			0	38977	0	0	0	25992	24610	131329	27274	1015909	42110	109622	0	0	8324	514077	0	0
2024-06-12 19:49:32			0	38963	0	0	0	25984	24610	131301	27345	1015936	42099	109619	0	0	8323	514601	0	0
2024-06-12 19:50:32			0	38976	0	0	0	25986	24610	131305	27123	1015882	42099	109620	0	0	8324	514114	0	0
2024-06-12 19:51:32			0	38980	0	0	0	25981	24600	131281	27086	1015901	42110	109618	0	0	8324	513994	0	0
2024-06-12 19:52:32			0	38971	0	0	0	25984	24590	131261	27064	1015910	42098	109619	0	0	8324	514360	0	0
2024-06-12 19:53:32			0	38952	0	0	0	25973	24590	131381	27104	1015795	42097	109615	0	0	8323	515071	0	0
2024-06-12 19:54:32			0	38961	0	0	0	25979	24580	131337	27112	1015813	42097	109617	0	0	8323	514763	0	0
2024-06-12 19:55:32			0	38964	0	0	0	25971	24580	131353	27161	1015840	42109	109614	0	0	8324	514651	0	0
2024-06-12 19:56:32			0	38967	0	0	0	25966	24590	131309	26920	1015875	42097	109612	0	0	8324	514510	0	0
2024-06-12 19:57:32			0	38975	0	0	0	25968	24590	131317	27150	1015883	42098	109613	0	0	8324	514210	0	0
2024-06-12 19:58:32			0	38985	0	0	0	25961	24580	131277	26837	1015777	42108	109610	0	0	8325	513865	0	0
2024-06-12 19:59:32			0	38986	0	0	0	25963	24580	131325	27201	1015733	42097	109611	0	0	8325	513828	0	0
2024-06-12 20:00:32			0	38994	0	0	0	25963	24570	131317	26882	1015715	42096	109611	0	0	8325	513558	0	0
2024-06-12 20:01:32			0	38993	0	0	0	25958	24570	131317	27327	1015742	42108	109609	0	0	8325	513595	0	0
2024-06-12 20:02:32			0	39014	0	0	0	25961	24570	131229	27253	1015787	42095	109610	0	0	8326	512810	0	0
2024-06-12 20:03:32			0	39006	0	0	0	25955	24570	131253	27086	1015742	42108	109608	0	0	8326	513109	0	0
2024-06-12 20:04:32			0	39006	0	0	0	25958	24570	131269	27078	1015787	42107	109609	0	0	8326	513109	0	0
2024-06-12 20:05:32			0	39020	0	0	0	25955	24570	131213	27294	1015760	42095	109608	0	0	8327	512586	0	0
2024-06-12 20:06:32			0	39028	0	0	0	25953	24570	131197	27003	1015707	42107	109607	0	0	8327	512287	0	0
2024-06-12 20:07:32			0	39023	0	0	0	25945	24560	131081	26797	1015698	42094	109604	0	0	8327	512503	0	0
2024-06-12 20:08:32			0	39054	0	0	0	25942	24570	131065	27005	1015680	42095	109603	0	0	8329	511317	0	0
2024-06-12 20:09:32			0	39072	0	0	0	25932	24560	131053	27194	1015636	42094	109599	0	0	8330	510675	0	0
2024-06-12 20:10:32			0	39069	0	0	0	25919	24550	131029	26876	1015538	42094	109594	0	0	8330	510816	0	0
2024-06-12 20:11:32			0	39089	0	0	0	25890	24540	130973	27209	1015476	42082	109583	0	0	8331	510099	0	0
2024-06-12 20:12:32			0	39092	0	0	0	25864	24530	130901	27128	1015424	42103	109573	0	0	8332	510016	0	0
2024-06-12 20:13:32			0	39128	0	0	0	25846	24530	130873	27177	1015424	42103	109566	0	0	8334	508677	0	0
2024-06-12 20:14:32			0	39116	0	0	0	25833	24510	130765	27157	1015371	42090	109561	0	0	8334	509181	0	0
2024-06-12 20:15:32			0	39130	0	0	0	25851	24500	130849	26885	1015479	42088	109568	0	0	8334	508688	0	0
2024-06-12 20:16:32			0	39102	0	0	0	25854	24510	130873	27222	1015452	42090	109569	0	0	8332	509702	0	0
2024-06-12 20:17:32			0	39141	0	0	0	25864	24510	130789	26783	1015371	42080	109573	0	0	8334	508251	0	0
2024-06-12 20:18:32			0	39173	0	0	0	25846	24500	130781	27300	1015328	42079	109566	0	0	8336	507091	0	0
2024-06-12 20:19:32			0	39174	0	0	0	25815	24490	130697	26932	1015257	42088	109554	0	0	8337	507082	0	0
2024-06-12 20:20:32			0	39173	0	0	0	25802	24490	130685	26923	1015222	42088	109549	0	0	8337	507120	0	0
2024-06-12 20:21:32			0	39149	0	0	0	25807	24470	130725	27168	1015223	42076	109551	0	0	8336	508068	0	0
2024-06-12 20:22:32			0	39193	0	0	0	25820	24470	130861	27260	1015241	42098	109556	0	0	8338	506435	0	0
2024-06-12 20:23:32			0	39170	0	0	0	25838	24470	130725	27043	1015303	42086	109563	0	0	8336	507288	0	0
2024-06-12 20:24:32			0	39185	0	0	0	25851	24470	130749	27364	1015276	42098	109568	0	0	8337	506731	0	0
2024-06-12 20:25:32			0	39191	0	0	0	25844	24460	130773	27149	1015259	42064	109565	0	0	8337	506537	0	0
2024-06-12 20:26:32			0	39182	0	0	0	25836	24470	130709	27088	1015241	42076	109562	0	0	8337	506843	0	0
2024-06-12 20:27:32			0	39178	0	0	0	25846	24460	130681	27187	1015205	42085	109566	0	0	8336	507020	0	0
2024-06-12 20:28:32			0	39196	0	0	0	25846	24460	130717	27244	1015224	42085	109566	0	0	8337	506352	0	0
2024-06-12 20:29:32			0	39213	0	0	0	25849	24460	130741	27053	1015197	42085	109567	0	0	8338	505722	0	0
2024-06-12 20:30:32			0	39189	0	0	0	25854	24460	130713	27300	1015277	42085	109569	0	0	8337	506612	0	0
2024-06-12 20:31:32			0	39211	0	0	0	25851	24460	130689	26994	1015232	42085	109568	0	0	8338	505796	0	0
2024-06-12 20:32:32			0	39200	0	0	0	25844	24470	130669	26889	1015241	42109	109565	0	0	8338	506175	0	0
2024-06-12 20:33:32			0	39216	0	0	0	25828	24450	130677	27199	1015162	42096	109559	0	0	8339	505639	0	0
2024-06-12 20:34:32			0	39216	0	0	0	25828	24460	130741	26935	1015170	42074	109559	0	0	8339	505611	0	0
2024-06-12 20:35:32			0	39223	0	0	0	25828	24440	130733	27190	1015091	42084	109559	0	0	8339	505408	0	0
2024-06-12 20:36:32			0	39212	0	0	0	25820	24440	130657	27197	1015118	42095	109556	0	0	8338	505816	0	0
2024-06-12 20:37:32			0	39214	0	0	0	25812	24440	130737	27019	1015038	42073	109553	0	0	8339	505742	0	0
2024-06-12 20:38:32			0	39208	0	0	0	25807	24430	130685	27041	1015100	42083	109551	0	0	8338	505993	0	0
2024-06-12 20:39:32			0	39224	0	0	0	25807	24440	130693	27312	1015118	42084	109551	0	0	8339	505371	0	0
2024-06-12 20:40:32			0	39190	0	0	0	25805	24430	130781	27187	1015127	42093	109550	0	0	8338	506661	0	0
2024-06-12 20:41:32			0	39178	0	0	0	25807	24440	130665	27046	1015163	42083	109551	0	0	8337	507077	0	0
2024-06-12 20:42:32			0	39184	0	0	0	25810	24440	130765	27074	1015082	42094	109552	0	0	8337	506855	0	0
2024-06-12 20:43:32			0	39192	0	0	0	25789	24420	130713	27066	1014976	42083	109544	0	0	8338	506615	0	0
2024-06-12 20:44:32			0	39183	0	0	0	25789	24420	130737	26863	1014976	42060	109544	0	0	8337	506949	0	0
2024-06-12 20:45:32			0	39173	0	0	0	25789	24420	130821	26925	1015003	42083	109544	0	0	8337	507320	0	0
2024-06-12 20:46:32			0	39143	0	0	0	25779	24420	130773	27159	1014923	42071	109540	0	0	8335	508435	0	0
2024-06-12 20:47:32			0	39133	0	0	0	25774	24410	130813	26876	1014959	42070	109538	0	0	8335	508836	0	0
2024-06-12 20:48:32			0	39136	0	0	0	25771	24400	130933	26908	1014888	42081	109537	0	0	8335	508753	0	0
2024-06-12 20:49:32			0	39120	0	0	0	25771	24410	130857	27138	1014950	42081	109537	0	0	8334	509320	0	0
2024-06-12 20:50:32			0	39124	0	0	0	25776	24400	131065	27119	1014969	42070	109539	0	0	8334	509199	0	0
2024-06-12 20:51:32			0	39108	0	0	0	25771	24400	131053	27111	1014915	42070	109537	0	0	8334	509795	0	0
2024-06-12 20:52:32			0	39079	0	0	0	25776	24400	131069	26899	1014960	42080	109539	0	0	8332	510876	0	0
2024-06-12 20:53:32			0	39075	0	0	0	25774	24390	131137	27242	1014898	42079	109538	0	0	8332	511054	0	0
2024-06-12 20:54:32			0	39077	0	0	0	25771	24400	131145	27168	1014907	42080	109537	0	0	8332	510951	0	0
2024-06-12 20:55:32			0	39049	0	0	0	25763	24400	131101	26885	1014880	42090	109534	0	0	8331	511995	0	0
2024-06-12 20:56:32			0	39059	0	0	0	25768	24390	131257	27128	1014871	42068	109536	0	0	8331	511651	0	0
2024-06-12 20:57:32			0	39034	0	0	0	25758	24380	131225	27135	1014827	42089	109532	0	0	8330	512614	0	0
2024-06-12 20:58:32			0	39023	0	0	0	25766	24380	131309	26925	1014854	42089	109535	0	0	8329	513025	0	0
2024-06-12 20:59:32			0	39030	0	0	0	25763	24380	131345	27222	1014899	42078	109534	0	0	8330	512763	0	0
2024-06-12 21:00:32			0	39019	0	0	0	25768	24390	131277	27183	1014898	42079	109536	0	0	8329	513145	0	0
2024-06-12 21:01:32			0	39023	0	0	0	25755	24370	131393	26882	1014890	42077	109531	0	0	8329	513054	0	0
2024-06-12 21:02:32			0	39006	0	0	0	25774	24380	131425	26984	1014872	42088	109538	0	0	8328	513660	0	0
2024-06-12 21:03:32			0	38996	0	0	0	25766	24390	131421	26897	1014889	42089	109535	0	0	8328	514006	0	0
2024-06-12 21:04:32			0	38982	0	0	0	25776	24380	131449	26994	1014846	42088	109539	0	0	8327	514559	0	0
2024-06-12 21:05:32			0	38964	0	0	0	25766	24370	131489	27209	1014864	42077	109535	0	0	8326	515262	0	0
2024-06-12 21:06:32			0	38972	0	0	0	25779	24370	131533	27204	1014864	42066	109540	0	0	8326	514963	0	0
2024-06-12 21:07:32			0	38962	0	0	0	25776	24380	131505	26856	1014899	42088	109539	0	0	8326	515308	0	0
2024-06-12 21:08:32			0	38963	0	0	0	25776	24390	131493	26844	1014916	42079	109539	0	0	8326	515241	0	0
2024-06-12 21:09:32			0	38963	0	0	0	25774	24380	131561	27313	1014872	42067	109538	0	0	8326	515271	0	0
2024-06-12 21:10:32			0	38952	0	0	0	25768	24370	131633	26854	1014917	42088	109536	0	0	8326	515712	0	0
2024-06-12 21:11:32			0	38952	0	0	0	25786	24390	131673	27027	1014916	42089	109543	0	0	8325	515654	0	0
2024-06-12 21:12:32			0	38944	0	0	0	25786	24390	131585	26826	1014978	42089	109543	0	0	8325	515954	0	0
2024-06-12 21:13:32			0	38937	0	0	0	25797	24390	131605	26876	1014925	42089	109547	0	0	8324	516217	0	0
2024-06-12 21:14:32			0	38940	0	0	0	25794	24390	131605	26805	1014943	42089	109546	0	0	8325	516104	0	0
2024-06-12 21:15:32			0	38919	0	0	0	25792	24400	131621	27097	1014942	42081	109545	0	0	8324	516863	0	0
2024-06-12 21:16:32			0	38926	0	0	0	25789	24390	131697	27090	1014978	42079	109544	0	0	8324	516629	0	0
2024-06-12 21:17:32			0	38913	0	0	0	25799	24400	131601	26641	1014933	42080	109548	0	0	8323	517088	0	0
2024-06-12 21:18:32			0	38913	0	0	0	25799	24400	131673	27034	1014987	42080	109548	0	0	8323	517088	0	0
2024-06-12 21:19:32			0	38928	0	0	0	25797	24410	131681	27074	1014950	42081	109547	0	0	8324	516496	0	0
2024-06-12 21:20:32			0	38929	0	0	0	25802	24400	131737	26838	1015022	42070	109549	0	0	8324	516488	0	0
2024-06-12 21:21:32			0	38894	0	0	0	25812	24410	131685	27270	1015057	42081	109553	0	0	8322	517773	0	0
2024-06-12 21:22:32			0	38898	0	0	0	25815	24400	131669	26953	1015022	42091	109554	0	0	8322	517652	0	0
2024-06-12 21:23:32			0	38916	0	0	0	25812	24420	131661	26934	1015075	42082	109553	0	0	8323	516917	0	0
2024-06-12 21:24:32			0	38904	0	0	0	25810	24420	131613	27005	1015075	42092	109552	0	0	8323	517368	0	0
2024-06-12 21:25:32			0	38922	0	0	0	25815	24420	131633	26883	1015021	42082	109554	0	0	8323	516692	0	0
2024-06-12 21:26:32			0	38908	0	0	0	25815	24410	131749	27203	1015057	42091	109554	0	0	8323	517247	0	0
2024-06-12 21:27:32			0	38892	0	0	0	25815	24410	131721	27105	1015057	42103	109554	0	0	8322	517848	0	0
2024-06-12 21:28:32			0	38912	0	0	0	25807	24410	131721	27213	1015031	42091	109551	0	0	8323	517097	0	0
2024-06-12 21:29:32			0	38878	0	0	0	25812	24410	131749	26958	1015039	42081	109553	0	0	8321	518375	0	0
2024-06-12 21:30:32			0	38890	0	0	0	25802	24410	131809	26932	1015004	42081	109549	0	0	8322	517923	0	0
2024-06-12 21:31:32			0	38880	0	0	0	25789	24410	131777	27036	1015013	42081	109544	0	0	8322	518299	0	0
2024-06-12 21:32:32			0	38870	0	0	0	25774	24400	131709	26993	1014862	42081	109538	0	0	8321	518705	0	0
2024-06-12 21:33:32			0	38894	0	0	0	25745	24390	131729	27041	1014764	42068	109527	0	0	8323	517831	0	0
2024-06-12 21:34:32			0	38882	0	0	0	25716	24370	131737	26849	1014596	42055	109516	0	0	8323	518341	0	0
2024-06-12 21:35:32			0	38898	0	0	0	25688	24360	131785	27078	1014597	42065	109505	0	0	8324	517769	0	0
2024-06-12 21:36:32			0	38876	0	0	0	25672	24350	131729	27059	1014553	42075	109499	0	0	8323	518626	0	0
2024-06-12 21:37:32			0	38883	0	0	0	25667	24340	131661	26755	1014572	42075	109497	0	0	8324	518392	0	0
2024-06-12 21:38:32			0	38870	0	0	0	25664	24340	131765	26767	1014563	42063	109496	0	0	8323	518881	0	0
2024-06-12 21:39:32			0	38890	0	0	0	25662	24330	131881	26760	1014626	42073	109495	0	0	8324	518158	0	0
2024-06-12 21:40:32			0	38891	0	0	0	25654	24320	131701	26811	1014511	42061	109492	0	0	8324	518149	0	0
2024-06-12 21:41:32			0	38878	0	0	0	25636	24320	131657	26719	1014449	42073	109485	0	0	8324	518638	0	0
2024-06-12 21:42:32			0	38881	0	0	0	25620	24310	131761	27072	1014413	42061	109479	0	0	8324	518555	0	0
2024-06-12 21:43:32			0	38876	0	0	0	25610	24290	131809	26916	1014280	42047	109475	0	0	8324	518801	0	0
2024-06-12 21:44:32			0	38851	0	0	0	25602	24260	131881	27001	1014175	42067	109472	0	0	8323	519831	0	0
2024-06-12 21:45:32			0	38850	0	0	0	25589	24250	131717	26805	1014211	42033	109467	0	0	8323	519898	0	0
2024-06-12 21:46:32			0	38857	0	0	0	25576	24250	131857	27142	1014096	42066	109462	0	0	8323	519634	0	0
2024-06-12 21:47:32			0	38870	0	0	0	25568	24230	131825	27119	1014070	42042	109459	0	0	8324	519203	0	0
2024-06-12 21:48:32			0	38866	0	0	0	25561	24230	131877	27204	1014044	42064	109456	0	0	8324	519354	0	0
2024-06-12 21:49:32			0	38854	0	0	0	25566	24230	131897	27145	1014035	42052	109458	0	0	8323	519806	0	0
2024-06-12 21:50:32			0	38843	0	0	0	25573	24220	131897	26955	1014133	42064	109461	0	0	8323	520250	0	0
2024-06-12 21:51:32			0	38839	0	0	0	25579	24220	131929	27126	1014098	42063	109463	0	0	8322	520401	0	0
2024-06-12 21:52:32			0	38850	0	0	0	25571	24210	131969	26696	1014116	42050	109460	0	0	8323	520016	0	0
2024-06-12 21:53:32			0	38837	0	0	0	25573	24220	131981	26765	1014045	42051	109461	0	0	8322	520476	0	0
2024-06-12 21:54:32			0	38830	0	0	0	25561	24210	132037	27197	1014001	42050	109456	0	0	8322	520770	0	0
2024-06-12 21:55:32			0	38826	0	0	0	25558	24210	131985	26894	1013921	42040	109455	0	0	8322	520921	0	0
2024-06-12 21:56:32			0	38825	0	0	0	25545	24190	132041	27222	1013886	42049	109450	0	0	8322	521017	0	0
2024-06-12 21:57:32			0	38822	0	0	0	25537	24180	132073	27206	1013877	42038	109447	0	0	8322	521160	0	0
2024-06-12 21:58:32			0	38809	0	0	0	25524	24180	132037	27149	1013824	42038	109442	0	0	8322	521651	0	0
2024-06-12 21:59:32			0	38810	0	0	0	25529	24170	132149	26743	1013834	42047	109444	0	0	8322	521643	0	0
2024-06-12 22:00:32			0	38798	0	0	0	25532	24170	132137	27140	1013834	42047	109445	0	0	8321	522096	0	0
2024-06-12 22:01:32			0	38792	0	0	0	25535	24180	132093	26856	1013922	42048	109446	0	0	8321	522293	0	0
2024-06-12 22:02:32			0	38793	0	0	0	25535	24170	132157	27230	1013932	42047	109446	0	0	8321	522285	0	0
2024-06-12 22:03:32			0	38774	0	0	0	25527	24160	132261	26953	1013870	42069	109443	0	0	8320	523033	0	0
2024-06-12 22:04:32			0	38786	0	0	0	25545	24170	132297	26885	1013887	42047	109450	0	0	8320	522550	0	0
2024-06-12 22:05:32			0	38749	0	0	0	25540	24160	132357	27176	1013835	42046	109448	0	0	8318	523979	0	0
2024-06-12 22:06:32			0	38736	0	0	0	25540	24170	132245	26994	1013852	42058	109448	0	0	8317	524443	0	0
2024-06-12 22:07:32			0	38750	0	0	0	25532	24160	132245	27020	1013843	42057	109445	0	0	8318	523942	0	0
2024-06-12 22:08:32			0	38714	0	0	0	25532	24160	132336	27015	1013754	42057	109445	0	0	8316	525306	0	0
2024-06-12 22:09:32			0	38706	0	0	0	25527	24140	132372	26719	1013800	42055	109443	0	0	8316	525669	0	0
2024-06-12 22:10:32			0	38718	0	0	0	25524	24150	132440	27156	1013826	42045	109442	0	0	8317	525184	0	0
2024-06-12 22:11:32			0	38697	0	0	0	25532	24140	132408	27031	1013729	42044	109445	0	0	8315	526011	0	0
2024-06-12 22:12:32			0	38690	0	0	0	25532	24150	132464	26795	1013764	42045	109445	0	0	8315	526247	0	0
2024-06-12 22:13:32			0	38678	0	0	0	25529	24150	132516	26875	1013791	42045	109444	0	0	8315	526703	0	0
2024-06-12 22:14:32			0	38675	0	0	0	25519	24140	132564	26937	1013774	42044	109440	0	0	8315	526847	0	0
2024-06-12 22:15:32			0	38656	0	0	0	25516	24140	132660	27085	1013782	42034	109439	0	0	8314	527569	0	0
2024-06-12 22:16:32			0	38665	0	0	0	25519	24130	132592	27268	1013685	42066	109440	0	0	8314	527256	0	0
2024-06-12 22:17:32			0	38610	0	0	0	25524	24130	132704	26979	1013738	42055	109442	0	0	8311	529350	0	0
2024-06-12 22:18:32			0	38635	0	0	0	25519	24130	132736	27310	1013818	42055	109440	0	0	8312	528398	0	0
2024-06-12 22:19:32			0	38606	0	0	0	25527	24140	132824	27059	1013827	42055	109443	0	0	8311	529473	0	0
2024-06-12 22:20:32			0	38623	0	0	0	25529	24140	132864	27258	1013809	42055	109444	0	0	8312	528825	0	0
2024-06-12 22:21:32			0	38604	0	0	0	25537	24150	132836	27034	1013817	42056	109447	0	0	8311	529519	0	0
2024-06-12 22:22:32			0	38595	0	0	0	25527	24150	132868	27036	1013844	42056	109443	0	0	8310	529862	0	0
2024-06-12 22:23:32			0	38598	0	0	0	25532	24140	132836	27114	1013809	42055	109445	0	0	8310	529778	0	0
2024-06-12 22:24:32			0	38569	0	0	0	25540	24140	132844	26944	1013809	42044	109448	0	0	8309	530884	0	0
2024-06-12 22:25:32			0	38571	0	0	0	25535	24150	132920	26960	1013817	42079	109446	0	0	8309	530778	0	0
2024-06-12 22:26:32			0	38557	0	0	0	25537	24140	132948	26935	1013800	42055	109447	0	0	8308	531343	0	0
2024-06-12 22:27:32			0	38541	0	0	0	25540	24140	133008	27036	1013827	42055	109448	0	0	8307	531954	0	0
2024-06-12 22:28:32			0	38545	0	0	0	25555	24150	132900	26790	1013853	42056	109454	0	0	8307	531771	0	0
2024-06-12 22:29:32			0	38541	0	0	0	25561	24150	133056	27109	1013879	42068	109456	0	0	8307	531924	0	0
2024-06-12 22:30:32			0	38554	0	0	0	25576	24160	133108	27020	1013950	42057	109462	0	0	8307	531397	0	0
2024-06-12 22:31:32			0	38531	0	0	0	25581	24170	133044	27268	1013932	42058	109464	0	0	8306	532246	0	0
2024-06-12 22:32:32			0	38511	0	0	0	25576	24160	133060	27355	1013950	42057	109462	0	0	8305	533041	0	0
2024-06-12 22:33:32			0	38514	0	0	0	25584	24180	133084	26970	1013949	42059	109465	0	0	8305	532867	0	0
2024-06-12 22:34:32			0	38487	0	0	0	25573	24160	133124	27010	1013923	42069	109461	0	0	8304	533961	0	0
2024-06-12 22:35:32			0	38520	0	0	0	25579	24170	133188	27105	1013967	42069	109463	0	0	8306	532667	0	0
2024-06-12 22:36:32			0	38507	0	0	0	25576	24170	133228	26826	1013959	42047	109462	0	0	8305	533164	0	0
2024-06-12 22:37:32			0	38489	0	0	0	25579	24180	133180	26970	1013949	42048	109463	0	0	8304	533824	0	0
2024-06-12 22:38:32			0	38497	0	0	0	25576	24180	133228	27048	1013949	42048	109462	0	0	8305	533517	0	0
2024-06-12 22:39:32			0	38477	0	0	0	25571	24160	133176	27215	1013950	42046	109460	0	0	8304	534344	0	0
2024-06-12 22:40:32			0	38480	0	0	0	25571	24170	133228	26930	1013959	42047	109460	0	0	8304	534199	0	0
2024-06-12 22:41:32			0	38466	0	0	0	25576	24170	133244	26942	1013914	42069	109462	0	0	8303	534735	0	0
2024-06-12 22:42:32			0	38482	0	0	0	25568	24180	133232	26984	1013922	42059	109459	0	0	8304	534092	0	0
2024-06-12 22:43:32			0	38471	0	0	0	25563	24160	133244	27048	1013835	42057	109457	0	0	8303	534574	0	0
2024-06-12 22:44:32			0	38470	0	0	0	25561	24170	133256	27024	1013914	42069	109456	0	0	8303	534582	0	0
2024-06-12 22:45:32			0	38456	0	0	0	25555	24160	133344	26826	1013888	42057	109454	0	0	8303	535149	0	0
2024-06-12 22:46:32			0	38452	0	0	0	25550	24150	133256	26842	1013826	42056	109452	0	0	8303	535333	0	0
2024-06-12 22:47:32			0	38450	0	0	0	25548	24160	133280	27161	1013861	42069	109451	0	0	8303	535379	0	0
2024-06-12 22:48:32			0	38453	0	0	0	25561	24170	133252	26928	1013878	42069	109456	0	0	8303	535234	0	0
2024-06-12 22:49:32			0	38440	0	0	0	25548	24160	133272	26850	1013861	42046	109451	0	0	8302	535763	0	0
2024-06-12 22:50:32			0	38447	0	0	0	25553	24150	133320	26838	1013844	42045	109453	0	0	8302	535525	0	0
2024-06-12 22:51:32			0	38431	0	0	0	25535	24150	133340	27187	1013817	42068	109446	0	0	8302	536139	0	0
2024-06-12 22:52:32			0	38465	0	0	0	25535	24140	133360	27241	1013702	42055	109446	0	0	8303	534864	0	0
2024-06-12 22:53:32			0	38441	0	0	0	25527	24140	133364	26975	1013782	42055	109443	0	0	8302	535785	0	0
2024-06-12 22:54:32			0	38433	0	0	0	25529	24140	133352	27092	1013693	42055	109444	0	0	8302	536092	0	0
2024-06-12 22:55:32			0	38441	0	0	0	25524	24130	133328	27272	1013730	42042	109442	0	0	8302	535815	0	0
2024-06-12 22:56:32			0	38429	0	0	0	25522	24130	133316	27294	1013703	42054	109441	0	0	8302	536276	0	0
2024-06-12 22:57:32			0	38432	0	0	0	25511	24130	133312	27163	1013730	42054	109437	0	0	8302	536161	0	0
2024-06-12 22:58:32			0	38427	0	0	0	25509	24130	133376	27168	1013703	42065	109436	0	0	8302	536353	0	0
2024-06-12 22:59:32			0	38429	0	0	0	25509	24130	133368	27232	1013650	42054	109436	0	0	8302	536276	0	0
2024-06-12 23:00:32			0	38414	0	0	0	25498	24110	133376	26998	1013677	42041	109432	0	0	8301	536913	0	0
2024-06-12 23:01:32			0	38440	0	0	0	25501	24120	133372	27229	1013659	42042	109433	0	0	8303	535884	0	0
2024-06-12 23:02:32			0	38447	0	0	0	25498	24120	133392	27031	1013659	42054	109432	0	0	8303	535615	0	0
2024-06-12 23:03:32			0	38436	0	0	0	25488	24110	133440	26991	1013597	42041	109428	0	0	8303	536068	0	0
2024-06-12 23:04:32			0	38418	0	0	0	25485	24100	133404	26817	1013598	42051	109427	0	0	8302	536790	0	0
2024-06-12 23:05:32			0	38425	0	0	0	25488	24100	133500	27010	1013580	42063	109428	0	0	8302	536521	0	0
2024-06-12 23:06:32			0	38429	0	0	0	25483	24090	133504	27209	1013590	42051	109426	0	0	8302	536397	0	0
2024-06-12 23:07:32			0	38420	0	0	0	25477	24100	133492	26967	1013571	42040	109424	0	0	8302	536713	0	0
2024-06-12 23:08:32			0	38416	0	0	0	25480	24090	133480	27203	1013608	42028	109425	0	0	8302	536897	0	0
2024-06-12 23:09:32			0	38416	0	0	0	25477	24090	133408	26974	1013616	42062	109424	0	0	8302	536897	0	0
2024-06-12 23:10:32			0	38413	0	0	0	25488	24090	133428	26930	1013616	42051	109428	0	0	8301	537012	0	0
2024-06-12 23:11:32			0	38402	0	0	0	25493	24090	133480	26977	1013590	42051	109430	0	0	8301	537435	0	0
2024-06-12 23:12:32			0	38421	0	0	0	25488	24090	133488	26958	1013563	42062	109428	0	0	8302	536705	0	0
2024-06-12 23:13:32			0	38415	0	0	0	25496	24100	133492	27298	1013625	42040	109431	0	0	8301	536905	0	0
2024-06-12 23:14:32			0	38414	0	0	0	25485	24100	133516	27170	1013625	42051	109427	0	0	8302	536944	0	0
2024-06-12 23:15:32			0	38406	0	0	0	25493	24090	133468	27052	1013554	42061	109430	0	0	8301	537282	0	0
2024-06-12 23:16:32			0	38420	0	0	0	25485	24090	133484	27189	1013608	42050	109427	0	0	8302	536743	0	0
2024-06-12 23:17:32			0	38413	0	0	0	25496	24090	133536	27149	1013474	42061	109431	0	0	8301	537012	0	0
2024-06-12 23:18:32			0	38405	0	0	0	25493	24090	133584	27490	1013581	42050	109430	0	0	8301	537320	0	0
2024-06-12 23:19:32			0	38409	0	0	0	25485	24080	133592	27078	1013572	42061	109427	0	0	8301	537197	0	0
2024-06-12 23:20:32			0	38405	0	0	0	25498	24090	133508	27119	1013590	42051	109432	0	0	8301	537320	0	0
2024-06-12 23:21:32			0	38412	0	0	0	25490	24080	133664	27287	1013519	42040	109429	0	0	8301	537081	0	0
2024-06-12 23:22:32			0	38398	0	0	0	25483	24090	133536	27180	1013581	42040	109426	0	0	8301	537589	0	0
2024-06-12 23:23:32			0	38398	0	0	0	25480	24080	133600	27357	1013537	42039	109425	0	0	8301	537620	0	0
2024-06-12 23:24:32			0	38394	0	0	0	25480	24080	133584	27031	1013492	42050	109425	0	0	8300	537774	0	0
2024-06-12 23:25:32			0	38412	0	0	0	25464	24080	133624	27052	1013430	42049	109419	0	0	8302	537081	0	0
2024-06-12 23:26:32			0	38406	0	0	0	25462	24060	133636	27322	1013351	42048	109418	0	0	8301	537373	0	0
2024-06-12 23:27:32			0	38375	0	0	0	25454	24060	133632	27128	1013378	42048	109415	0	0	8300	538566	0	0
2024-06-12 23:28:32			0	38400	0	0	0	25444	24060	133740	27433	1013289	42047	109411	0	0	8301	537603	0	0
2024-06-12 23:29:32			0	38422	0	0	0	25428	24050	133656	27364	1013334	42046	109405	0	0	8303	536787	0	0
2024-06-12 23:30:32			0	38411	0	0	0	25428	24050	133564	27017	1013325	42046	109405	0	0	8302	537211	0	0
2024-06-12 23:31:32			0	38411	0	0	0	25425	24040	133672	27315	1013370	42036	109404	0	0	8302	537241	0	0
2024-06-12 23:32:32			0	38418	0	0	0	25431	24030	133592	27130	1013308	42035	109406	0	0	8302	537002	0	0
2024-06-12 23:33:32			0	38402	0	0	0	25436	24040	133644	27249	1013343	42046	109408	0	0	8301	537587	0	0
2024-06-12 23:34:32			0	38415	0	0	0	25415	24030	133560	27251	1013335	42068	109400	0	0	8302	537117	0	0
2024-06-12 23:35:32			0	38403	0	0	0	25425	24040	133672	27246	1013317	42058	109404	0	0	8302	537549	0	0
2024-06-12 23:36:32			0	38416	0	0	0	25431	24030	133628	27088	1013326	42056	109406	0	0	8302	537079	0	0
2024-06-12 23:37:32			0	38385	0	0	0	25436	24040	133572	27071	1013317	42046	109408	0	0	8301	538242	0	0
2024-06-12 23:38:32			0	38391	0	0	0	25433	24040	133580	27324	1013290	42058	109407	0	0	8301	538011	0	0
2024-06-12 23:39:32			0	38387	0	0	0	25441	24040	133572	27334	1013370	42046	109410	0	0	8301	538165	0	0
2024-06-12 23:40:32			0	38397	0	0	0	25441	24040	133692	27246	1013370	42046	109410	0	0	8301	537780	0	0
2024-06-12 23:41:32			0	38392	0	0	0	25446	24030	133444	27092	1013361	42057	109412	0	0	8301	538002	0	0
2024-06-12 23:42:32			0	38381	0	0	0	25436	24030	133492	27286	1013335	42035	109408	0	0	8300	538426	0	0
2024-06-12 23:43:32			0	38391	0	0	0	25446	24040	133616	27111	1013370	42058	109412	0	0	8301	538011	0	0
2024-06-12 23:44:32			0	38373	0	0	0	25446	24030	133628	27161	1013308	42045	109412	0	0	8300	538734	0	0
2024-06-12 23:45:32			0	38380	0	0	0	25436	24030	133628	27170	1013308	42045	109408	0	0	8300	538464	0	0
2024-06-12 23:46:32			0	38385	0	0	0	25431	24030	133608	27225	1013308	42045	109406	0	0	8301	538272	0	0
2024-06-12 23:47:32			0	38390	0	0	0	25433	24040	133716	27138	1013343	42046	109407	0	0	8301	538049	0	0
2024-06-12 23:48:32			0	38386	0	0	0	25428	24030	133648	27029	1013273	42044	109405	0	0	8301	538233	0	0
2024-06-12 23:49:32			0	38374	0	0	0	25436	24030	133688	27287	1013228	42045	109408	0	0	8300	538696	0	0
2024-06-12 23:50:32			0	38363	0	0	0	25431	24030	133684	26979	1013273	42056	109406	0	0	8300	539120	0	0
2024-06-12 23:51:32			0	38370	0	0	0	25433	24030	133536	27079	1013273	42056	109407	0	0	8300	538850	0	0
2024-06-12 23:52:32			0	38369	0	0	0	25431	24020	133648	27213	1013264	42034	109406	0	0	8300	538919	0	0
2024-06-12 23:53:32			0	38371	0	0	0	25431	24030	133764	27376	1013299	42067	109406	0	0	8300	538811	0	0
2024-06-12 23:54:32			0	38364	0	0	0	25420	24020	133664	27142	1013256	42033	109402	0	0	8300	539112	0	0
2024-06-12 23:55:32			0	38356	0	0	0	25425	24020	133724	27095	1013211	42044	109404	0	0	8299	539420	0	0
2024-06-12 23:56:32			0	38380	0	0	0	25418	24030	133724	27001	1013246	42044	109401	0	0	8301	538464	0	0
2024-06-12 23:57:32			0	38343	0	0	0	25412	24020	133748	27041	1013256	42055	109399	0	0	8299	539922	0	0
2024-06-12 23:58:32			0	38349	0	0	0	25418	24010	133736	27254	1013140	42044	109401	0	0	8299	539720	0	0
2024-06-12 23:59:32			0	38359	0	0	0	25402	24010	133784	27182	1013194	42033	109395	0	0	8300	539335	0	0
2024-06-13 00:00:32			0	38363	0	0	0	25392	24010	133784	27206	1013167	42055	109391	0	0	8300	539180	0	0
2024-06-13 00:01:32			0	38331	0	0	0	25394	24000	133660	27492	1013168	42053	109392	0	0	8298	540446	0	0
2024-06-13 00:02:32			0	38342	0	0	0	25399	24010	133664	27173	1013185	42054	109394	0	0	8299	539991	0	0
2024-06-13 00:03:32			0	38339	0	0	0	25399	24000	133752	27216	1013141	42053	109394	0	0	8299	540137	0	0
2024-06-13 00:04:32			0	38342	0	0	0	25389	24000	133696	27287	1013177	42054	109390	0	0	8299	540021	0	0
2024-06-13 00:05:32			0	38347	0	0	0	25405	23990	133812	27398	1013213	42042	109396	0	0	8299	539858	0	0
2024-06-13 00:06:32			0	38339	0	0	0	25386	24000	133728	27118	1013123	42032	109389	0	0	8299	540137	0	0
2024-06-13 00:07:32			0	38327	0	0	0	25392	24000	133704	27124	1013115	42042	109391	0	0	8298	540600	0	0
2024-06-13 00:08:32			0	38339	0	0	0	25394	24000	133808	27178	1013123	42054	109392	0	0	8299	540137	0	0
2024-06-13 00:09:32			0	38333	0	0	0	25397	24000	133844	26944	1013177	42043	109393	0	0	8298	540368	0	0
2024-06-13 00:10:32			0	38314	0	0	0	25399	23990	133892	26984	1013097	42041	109394	0	0	8297	541133	0	0
2024-06-13 00:11:32			0	38333	0	0	0	25394	23990	133760	27166	1013186	42053	109392	0	0	8298	540399	0	0
2024-06-13 00:12:32			0	38328	0	0	0	25399	23990	133800	27232	1013151	42041	109394	0	0	8298	540592	0	0
2024-06-13 00:13:32			0	38321	0	0	0	25394	24000	133896	27138	1013195	42042	109392	0	0	8298	540832	0	0
2024-06-13 00:14:32			0	38300	0	0	0	25394	23990	133832	27085	1013097	42052	109392	0	0	8297	541674	0	0
2024-06-13 00:15:32			0	38297	0	0	0	25386	23990	133852	27090	1013151	42041	109389	0	0	8297	541790	0	0
2024-06-13 00:16:32			0	38320	0	0	0	25397	23990	133896	27150	1013151	42041	109393	0	0	8298	540901	0	0
2024-06-13 00:17:32			0	38297	0	0	0	25392	23990	133864	26634	1013178	42041	109391	0	0	8297	541790	0	0
2024-06-13 00:18:32			0	38310	0	0	0	25392	23990	133864	26842	1013133	42031	109391	0	0	8297	541287	0	0
2024-06-13 00:19:32			0	38292	0	0	0	25394	23980	133932	26861	1013142	42041	109392	0	0	8296	542014	0	0
2024-06-13 00:20:32			0	38306	0	0	0	25386	23990	133988	27130	1013097	42041	109389	0	0	8297	541442	0	0
2024-06-13 00:21:32			0	38277	0	0	0	25397	23990	133996	27168	1013106	42053	109393	0	0	8295	542564	0	0
2024-06-13 00:22:32			0	38288	0	0	0	25384	23980	133932	27173	1013142	42030	109388	0	0	8296	542169	0	0
2024-06-13 00:23:32			0	38274	0	0	0	25389	23980	133928	26930	1013142	42051	109390	0	0	8295	542711	0	0
2024-06-13 00:24:32			0	38270	0	0	0	25392	23990	133972	27057	1013159	42042	109391	0	0	8295	542835	0	0
2024-06-13 00:25:32			0	38282	0	0	0	25386	23980	133860	27196	1013169	42051	109389	0	0	8296	542401	0	0
2024-06-13 00:26:32			0	38274	0	0	0	25389	23990	133984	27209	1013097	42063	109390	0	0	8295	542680	0	0
2024-06-13 00:27:32			0	38278	0	0	0	25381	23980	133968	26736	1013062	42051	109387	0	0	8296	542556	0	0
2024-06-13 00:28:32			0	38265	0	0	0	25381	23980	134028	27192	1013116	42041	109387	0	0	8295	543059	0	0
2024-06-13 00:29:32			0	38258	0	0	0	25376	23980	133976	26996	1013062	42051	109385	0	0	8295	543330	0	0
2024-06-13 00:30:32			0	38266	0	0	0	25379	23980	134056	26736	1013062	42041	109386	0	0	8295	543020	0	0
2024-06-13 00:31:32			0	38254	0	0	0	25376	23980	134028	26970	1013054	42030	109385	0	0	8295	543485	0	0
2024-06-13 00:32:32			0	38253	0	0	0	25381	23980	133988	27072	1013107	42041	109387	0	0	8294	543524	0	0
2024-06-13 00:33:32			0	38254	0	0	0	25366	23980	134028	26880	1013062	42063	109381	0	0	8295	543485	0	0
2024-06-13 00:34:32			0	38251	0	0	0	25368	23970	134088	27152	1013045	42051	109382	0	0	8295	543632	0	0
2024-06-13 00:35:32			0	38248	0	0	0	25379	23970	134032	27036	1013045	42051	109386	0	0	8294	543748	0	0
2024-06-13 00:36:32			0	38242	0	0	0	25374	23970	134048	27315	1013018	42051	109384	0	0	8294	543981	0	0
2024-06-13 00:37:32			0	38253	0	0	0	25371	23980	134100	27164	1013027	42030	109383	0	0	8295	543524	0	0
2024-06-13 00:38:32			0	38243	0	0	0	25361	23970	134076	27216	1012992	42051	109379	0	0	8294	543942	0	0
2024-06-13 00:39:32			0	38243	0	0	0	25353	23970	134064	27362	1012956	42029	109376	0	0	8294	543942	0	0
2024-06-13 00:40:32			0	38244	0	0	0	25348	23960	134136	27116	1012974	42049	109374	0	0	8294	543934	0	0
2024-06-13 00:41:32			0	38252	0	0	0	25340	23950	134148	26785	1012957	42049	109371	0	0	8295	543655	0	0
2024-06-13 00:42:32			0	38235	0	0	0	25335	23960	134168	27341	1012912	42039	109369	0	0	8294	544283	0	0
2024-06-13 00:43:32			0	38234	0	0	0	25314	23940	134200	27007	1012807	42037	109361	0	0	8294	544383	0	0
2024-06-13 00:44:32			0	38244	0	0	0	25311	23950	134132	27109	1012850	42039	109360	0	0	8295	543965	0	0
2024-06-13 00:45:32			0	38241	0	0	0	25296	23930	134152	26911	1012816	42036	109354	0	0	8295	544142	0	0
2024-06-13 00:46:32			0	38224	0	0	0	25290	23920	134204	27164	1012710	42023	109352	0	0	8294	544833	0	0
2024-06-13 00:47:32			0	38226	0	0	0	25298	23920	134204	26937	1012745	42035	109355	0	0	8294	544755	0	0
2024-06-13 00:48:32			0	38206	0	0	0	25290	23910	134168	26989	1012675	42045	109352	0	0	8293	545562	0	0
2024-06-13 00:49:32			0	38207	0	0	0	25277	23900	134220	27208	1012631	42022	109347	0	0	8294	545554	0	0
2024-06-13 00:50:32			0	38221	0	0	0	25275	23900	134296	26890	1012658	42022	109346	0	0	8294	545010	0	0
2024-06-13 00:51:32			0	38225	0	0	0	25270	23890	134252	27180	1012587	42033	109344	0	0	8295	544886	0	0
2024-06-13 00:52:32			0	38202	0	0	0	25257	23880	134320	26987	1012535	42031	109339	0	0	8294	545810	0	0
2024-06-13 00:53:32			0	38220	0	0	0	25254	23870	134216	26804	1012580	42031	109338	0	0	8294	545141	0	0
2024-06-13 00:54:32			0	38214	0	0	0	25238	23870	134384	27036	1012500	42008	109332	0	0	8294	545374	0	0
2024-06-13 00:55:32			0	38200	0	0	0	25241	23860	134340	27140	1012482	42030	109333	0	0	8294	545949	0	0
2024-06-13 00:56:32			0	38193	0	0	0	25228	23860	134304	27398	1012509	42030	109328	0	0	8293	546221	0	0
2024-06-13 00:57:32			0	38198	0	0	0	25228	23850	134328	26762	1012492	42017	109328	0	0	8294	546058	0	0
2024-06-13 00:58:32			0	38196	0	0	0	25228	23860	134316	27015	1012447	42018	109328	0	0	8294	546105	0	0
2024-06-13 00:59:32			0	38173	0	0	0	25228	23860	134420	26956	1012394	42029	109328	0	0	8292	546999	0	0
2024-06-13 01:00:32			0	38179	0	0	0	25220	23850	134456	27211	1012430	42028	109325	0	0	8293	546797	0	0
2024-06-13 01:01:32			0	38162	0	0	0	25220	23840	134444	27194	1012341	42039	109325	0	0	8292	547489	0	0
2024-06-13 01:02:32			0	38150	0	0	0	25215	23840	134444	26908	1012413	42016	109323	0	0	8291	547956	0	0
2024-06-13 01:03:32			0	38154	0	0	0	25215	23840	134448	27241	1012333	42027	109323	0	0	8292	547801	0	0
2024-06-13 01:04:32			0	38149	0	0	0	25215	23830	134488	26880	1012342	42026	109323	0	0	8291	548026	0	0
2024-06-13 01:05:32			0	38141	0	0	0	25210	23820	134568	27291	1012307	42026	109321	0	0	8291	548369	0	0
2024-06-13 01:06:32			0	38135	0	0	0	25212	23830	134528	27201	1012396	42038	109322	0	0	8291	548572	0	0
2024-06-13 01:07:32			0	38125	0	0	0	25207	23820	134588	27163	1012307	42026	109320	0	0	8290	548993	0	0
2024-06-13 01:08:32			0	38127	0	0	0	25212	23820	134596	27119	1012325	42037	109322	0	0	8290	548915	0	0
2024-06-13 01:09:32			0	38120	0	0	0	25199	23820	134616	27182	1012272	42025	109317	0	0	8290	549188	0	0
2024-06-13 01:10:32			0	38116	0	0	0	25205	23820	134712	26958	1012325	42037	109319	0	0	8290	549344	0	0
2024-06-13 01:11:32			0	38109	0	0	0	25210	23820	134744	27338	1012334	42015	109321	0	0	8289	549617	0	0
2024-06-13 01:12:32			0	38090	0	0	0	25202	23810	134772	26805	1012290	42013	109318	0	0	8288	550390	0	0
2024-06-13 01:13:32			0	38085	0	0	0	25194	23810	134792	26809	1012174	42024	109315	0	0	8288	550585	0	0
2024-06-13 01:14:32			0	38077	0	0	0	25197	23810	134764	26996	1012263	42024	109316	0	0	8288	550898	0	0
2024-06-13 01:15:32			0	38084	0	0	0	25199	23800	134840	27177	1012246	42024	109317	0	0	8288	550656	0	0
2024-06-13 01:16:32			0	38071	0	0	0	25189	23790	134832	27187	1012202	42011	109313	0	0	8288	551195	0	0
2024-06-13 01:17:32			0	38071	0	0	0	25186	23800	134836	27197	1012166	42024	109312	0	0	8288	551164	0	0
2024-06-13 01:18:32			0	38045	0	0	0	25184	23800	134880	27393	1012166	42024	109311	0	0	8286	552181	0	0
2024-06-13 01:19:32			0	38054	0	0	0	25179	23800	134900	26852	1012219	42024	109309	0	0	8287	551829	0	0
2024-06-13 01:20:32			0	38051	0	0	0	25179	23790	134892	26835	1012255	42011	109309	0	0	8287	551977	0	0
2024-06-13 01:21:32			0	38042	0	0	0	25179	23800	134888	26878	1012157	42024	109309	0	0	8286	552299	0	0
2024-06-13 01:22:32			0	38028	0	0	0	25176	23790	134927	27126	1012149	42011	109308	0	0	8286	552878	0	0
2024-06-13 01:23:32			0	38019	0	0	0	25171	23800	134959	27138	1012130	42024	109306	0	0	8285	553200	0	0
2024-06-13 01:24:32			0	38041	0	0	0	25176	23800	135012	26975	1012166	42024	109308	0	0	8286	552338	0	0
2024-06-13 01:25:32			0	38015	0	0	0	25161	23780	134951	26786	1012185	42033	109302	0	0	8285	553419	0	0
2024-06-13 01:26:32			0	37996	0	0	0	25166	23780	135071	26772	1012131	42022	109304	0	0	8284	554164	0	0
2024-06-13 01:27:32			0	37985	0	0	0	25161	23780	134963	27260	1012078	42010	109302	0	0	8283	554596	0	0
2024-06-13 01:28:32			0	37995	0	0	0	25155	23780	135055	27246	1012096	42022	109300	0	0	8284	554203	0	0
2024-06-13 01:29:32			0	37968	0	0	0	25161	23780	135183	27118	1012043	42010	109302	0	0	8283	555263	0	0
2024-06-13 01:30:32			0	37992	0	0	0	25158	23770	135151	26885	1012061	42021	109301	0	0	8284	554352	0	0
2024-06-13 01:31:32			0	37979	0	0	0	25163	23770	135155	26762	1012141	42021	109303	0	0	8283	554863	0	0
2024-06-13 01:32:32			0	37947	0	0	0	25150	23780	135183	27048	1012070	42022	109298	0	0	8282	556089	0	0
2024-06-13 01:33:32			0	37959	0	0	0	25163	23770	135275	27085	1012034	42009	109303	0	0	8282	555648	0	0
2024-06-13 01:34:32			0	37934	0	0	0	25155	23770	135239	26993	1011999	42020	109300	0	0	8281	556632	0	0
2024-06-13 01:35:32			0	37932	0	0	0	25153	23770	135167	27372	1012052	42009	109299	0	0	8281	556710	0	0
2024-06-13 01:36:32			0	37929	0	0	0	25153	23760	135263	26873	1012017	42020	109299	0	0	8281	556860	0	0
2024-06-13 01:37:32			0	37935	0	0	0	25155	23760	135267	26878	1012009	42031	109300	0	0	8281	556624	0	0
2024-06-13 01:38:32			0	37907	0	0	0	25150	23760	135431	27327	1012044	42020	109298	0	0	8280	557726	0	0
2024-06-13 01:39:32			0	37894	0	0	0	25145	23760	135455	27173	1012017	41998	109296	0	0	8279	558239	0	0
2024-06-13 01:40:32			0	37911	0	0	0	25150	23780	135459	27123	1012123	42043	109298	0	0	8280	557506	0	0
2024-06-13 01:41:32			0	37904	0	0	0	25153	23750	135459	27052	1012027	42019	109299	0	0	8279	557876	0	0
2024-06-13 01:42:32			0	37890	0	0	0	25153	23770	135451	26939	1012026	42031	109299	0	0	8279	558365	0	0
2024-06-13 01:43:32			0	37886	0	0	0	25158	23760	135527	26857	1012044	42031	109301	0	0	8278	558554	0	0
2024-06-13 01:44:32			0	37881	0	0	0	25145	23760	135539	27107	1012089	42020	109296	0	0	8278	558751	0	0
2024-06-13 01:45:32			0	37881	0	0	0	25150	23760	135487	27227	1012044	42031	109298	0	0	8278	558751	0	0
2024-06-13 01:46:32			0	37894	0	0	0	25153	23760	135415	26778	1012035	42020	109299	0	0	8279	558239	0	0
2024-06-13 01:47:32			0	37865	0	0	0	25153	23760	135491	26951	1012044	42020	109299	0	0	8277	559383	0	0
2024-06-13 01:48:32			0	37864	0	0	0	25155	23760	135631	27102	1012097	42031	109300	0	0	8277	559422	0	0
2024-06-13 01:49:32			0	37875	0	0	0	25155	23760	135627	27085	1012097	42020	109300	0	0	8278	558988	0	0
2024-06-13 01:50:32			0	37861	0	0	0	25153	23760	135603	27199	1012044	42009	109299	0	0	8277	559541	0	0
2024-06-13 01:51:32			0	37849	0	0	0	25148	23750	135611	27001	1012053	42019	109297	0	0	8277	560046	0	0
2024-06-13 01:52:32			0	37860	0	0	0	25140	23760	135595	27069	1012017	42009	109294	0	0	8277	559580	0	0
2024-06-13 01:53:32			0	37856	0	0	0	25148	23750	135575	26982	1012080	42008	109297	0	0	8277	559769	0	0
2024-06-13 01:54:32			0	37864	0	0	0	25145	23760	135703	27081	1012035	42009	109296	0	0	8277	559422	0	0
2024-06-13 01:55:32			0	37838	0	0	0	25145	23750	135611	26772	1012053	42008	109296	0	0	8276	560481	0	0
2024-06-13 01:56:32			0	37846	0	0	0	25140	23750	135651	27008	1012027	42030	109294	0	0	8277	560164	0	0
2024-06-13 01:57:32			0	37848	0	0	0	25142	23750	135603	27281	1012045	42018	109295	0	0	8277	560086	0	0
2024-06-13 01:58:32			0	37843	0	0	0	25142	23750	135671	27234	1012018	42007	109295	0	0	8276	560283	0	0
2024-06-13 01:59:32			0	37846	0	0	0	25140	23760	135695	27093	1012115	42020	109294	0	0	8277	560133	0	0
2024-06-13 02:00:32			0	37843	0	0	0	25142	23740	135659	27128	1012010	42029	109295	0	0	8276	560315	0	0
2024-06-13 02:01:32			0	37850	0	0	0	25132	23740	135679	27263	1011983	42007	109291	0	0	8277	560038	0	0
2024-06-13 02:02:32			0	37850	0	0	0	25142	23740	135639	27178	1012036	42018	109295	0	0	8277	560038	0	0
2024-06-13 02:03:32			0	37850	0	0	0	25142	23740	135591	27170	1011956	41996	109295	0	0	8277	560038	0	0
2024-06-13 02:04:32			0	37846	0	0	0	25137	23750	135675	27171	1011965	42007	109293	0	0	8277	560164	0	0
2024-06-13 02:05:32			0	37850	0	0	0	25140	23750	135575	27027	1011973	42019	109294	0	0	8277	560007	0	0
2024-06-13 02:06:32			0	37828	0	0	0	25135	23750	135691	27067	1011965	42018	109292	0	0	8276	560876	0	0
2024-06-13 02:07:32			0	37849	0	0	0	25140	23750	135599	27111	1011965	42029	109294	0	0	8277	560046	0	0
2024-06-13 02:08:32			0	37833	0	0	0	25137	23730	135671	27178	1011948	42018	109293	0	0	8276	560741	0	0
2024-06-13 02:09:32			0	37857	0	0	0	25142	23750	135647	27185	1012000	42019	109295	0	0	8277	559730	0	0
2024-06-13 02:10:32			0	37845	0	0	0	25145	23740	135555	26949	1012010	42018	109296	0	0	8276	560236	0	0
2024-06-13 02:11:32			0	37840	0	0	0	25135	23730	135767	27015	1011948	42029	109292	0	0	8276	560465	0	0
2024-06-13 02:12:32			0	37822	0	0	0	25140	23750	135723	26925	1011991	42007	109294	0	0	8275	561113	0	0
2024-06-13 02:13:32			0	37844	0	0	0	25140	23740	135683	27192	1011956	42018	109294	0	0	8276	560275	0	0
2024-06-13 02:14:32			0	37829	0	0	0	25127	23740	135679	26918	1011930	42029	109289	0	0	8276	560868	0	0
2024-06-13 02:15:32			0	37824	0	0	0	25114	23720	135695	26894	1011877	42016	109284	0	0	8276	561129	0	0
2024-06-13 02:16:32			0	37855	0	0	0	25093	23720	135643	27059	1011788	41994	109276	0	0	8278	559903	0	0
2024-06-13 02:17:32			0	37839	0	0	0	25075	23710	135671	26984	1011745	42004	109269	0	0	8277	560567	0	0
2024-06-13 02:18:32			0	37839	0	0	0	25070	23700	135595	27230	1011647	42002	109267	0	0	8277	560599	0	0
2024-06-13 02:19:32			0	37869	0	0	0	25046	23680	135595	26993	1011666	42000	109258	0	0	8279	559477	0	0
2024-06-13 02:20:32			0	37886	0	0	0	25033	23670	135607	27057	1011604	41990	109253	0	0	8280	558837	0	0
2024-06-13 02:21:32			0	37846	0	0	0	25023	23670	135647	27031	1011551	42000	109249	0	0	8278	560417	0	0
2024-06-13 02:22:32			0	37856	0	0	0	25012	23650	135583	26842	1011543	41988	109245	0	0	8279	560085	0	0
2024-06-13 02:23:32			0	37870	0	0	0	24999	23660	135595	27345	1011445	42000	109240	0	0	8280	559500	0	0
2024-06-13 02:24:32			0	37868	0	0	0	24992	23650	135691	27093	1011455	41999	109237	0	0	8280	559611	0	0
2024-06-13 02:25:32			0	37850	0	0	0	24984	23640	135687	26731	1011464	42008	109234	0	0	8279	560353	0	0
2024-06-13 02:26:32			0	37857	0	0	0	24979	23630	135663	27123	1011447	42007	109232	0	0	8279	560108	0	0
2024-06-13 02:27:32			0	37851	0	0	0	24979	23620	135631	27211	1011412	41997	109232	0	0	8279	560377	0	0
2024-06-13 02:28:32			0	37853	0	0	0	24971	23620	135691	27353	1011377	41985	109229	0	0	8279	560298	0	0
2024-06-13 02:29:32			0	37872	0	0	0	24984	23610	135671	26935	1011333	41995	109234	0	0	8280	559578	0	0
2024-06-13 02:30:32			0	37844	0	0	0	24976	23620	135679	27152	1011323	41996	109231	0	0	8279	560653	0	0
2024-06-13 02:31:32			0	37873	0	0	0	24976	23600	135635	27131	1011351	42005	109231	0	0	8280	559570	0	0
2024-06-13 02:32:32			0	37859	0	0	0	24979	23610	135727	26916	1011306	42005	109232	0	0	8279	560092	0	0
2024-06-13 02:33:32			0	37877	0	0	0	24968	23600	135695	26524	1011298	42005	109228	0	0	8280	559413	0	0
2024-06-13 02:34:32			0	37873	0	0	0	24974	23600	135823	26968	1011289	41994	109230	0	0	8280	559570	0	0
2024-06-13 02:35:32			0	37855	0	0	0	24968	23600	135679	26826	1011316	41994	109228	0	0	8279	560282	0	0
2024-06-13 02:36:32			0	37860	0	0	0	24963	23590	135715	26965	1011281	42015	109226	0	0	8280	560116	0	0
2024-06-13 02:37:32			0	37870	0	0	0	24958	23590	135711	26923	1011299	41993	109224	0	0	8280	559720	0	0
2024-06-13 02:38:32			0	37868	0	0	0	24963	23590	135687	27050	1011272	42003	109226	0	0	8280	559799	0	0
2024-06-13 02:39:32			0	37868	0	0	0	24950	23580	135715	26955	1011282	41992	109221	0	0	8280	559831	0	0
2024-06-13 02:40:32			0	37857	0	0	0	24961	23590	135695	27088	1011245	42026	109225	0	0	8279	560234	0	0
2024-06-13 02:41:32			0	37855	0	0	0	24963	23570	135663	27041	1011219	42002	109226	0	0	8279	560376	0	0
2024-06-13 02:42:32			0	37874	0	0	0	24955	23580	135699	27109	1011264	41992	109223	0	0	8280	559594	0	0
2024-06-13 02:43:32			0	37874	0	0	0	24950	23580	135751	26935	1011202	41981	109221	0	0	8280	559594	0	0
2024-06-13 02:44:32			0	37861	0	0	0	24945	23570	135691	27187	1011166	42002	109219	0	0	8280	560139	0	0
2024-06-13 02:45:32			0	37875	0	0	0	24940	23570	135667	27095	1011158	41991	109217	0	0	8281	559586	0	0
2024-06-13 02:46:32			0	37864	0	0	0	24937	23560	135639	26838	1011095	42001	109216	0	0	8280	560052	0	0
2024-06-13 02:47:32			0	37869	0	0	0	24929	23550	135623	26875	1011105	42011	109213	0	0	8280	559886	0	0
2024-06-13 02:48:32			0	37870	0	0	0	24927	23550	135715	26920	1011078	42000	109212	0	0	8281	559846	0	0
2024-06-13 02:49:32			0	37894	0	0	0	24924	23540	135747	27142	1011008	41989	109211	0	0	8282	558930	0	0
2024-06-13 02:50:32			0	37878	0	0	0	24927	23540	135615	27074	1011008	41989	109212	0	0	8281	559562	0	0
2024-06-13 02:51:32			0	37891	0	0	0	24916	23540	135603	27062	1011026	41989	109208	0	0	8282	559049	0	0
2024-06-13 02:52:32			0	37871	0	0	0	24906	23530	135635	26977	1010991	41988	109204	0	0	8281	559870	0	0
2024-06-13 02:53:32			0	37885	0	0	0	24909	23530	135683	27197	1011009	41987	109205	0	0	8282	559317	0	0
2024-06-13 02:54:32			0	37886	0	0	0	24906	23530	135675	27211	1010929	41987	109204	0	0	8282	559277	0	0
2024-06-13 02:55:32			0	37895	0	0	0	24903	23520	135599	27052	1011000	41987	109203	0	0	8282	558953	0	0
2024-06-13 02:56:32			0	37896	0	0	0	24896	23510	135495	27060	1010930	41986	109200	0	0	8282	558945	0	0
2024-06-13 02:57:32			0	37914	0	0	0	24893	23520	135539	26922	1010920	41987	109199	0	0	8283	558204	0	0
2024-06-13 02:58:32			0	37923	0	0	0	24893	23520	135535	26739	1010885	41997	109199	0	0	8284	557849	0	0
2024-06-13 02:59:32			0	37941	0	0	0	24885	23510	135503	26830	1010876	41986	109196	0	0	8285	557171	0	0
2024-06-13 03:00:32			0	37949	0	0	0	24877	23510	135531	26955	1010894	41996	109193	0	0	8285	556856	0	0
2024-06-13 03:01:32			0	37951	0	0	0	24883	23510	135511	27001	1010903	41997	109195	0	0	8285	556777	0	0
2024-06-13 03:02:32			0	37967	0	0	0	24875	23500	135431	27270	1010877	41984	109192	0	0	8286	556178	0	0
2024-06-13 03:03:32			0	37998	0	0	0	24880	23500	135359	27211	1010877	41995	109194	0	0	8288	554959	0	0
2024-06-13 03:04:32			0	37981	0	0	0	24880	23500	135303	27092	1010904	41973	109194	0	0	8287	555628	0	0
2024-06-13 03:05:32			0	38017	0	0	0	24883	23510	135147	27208	1010975	41996	109195	0	0	8289	554182	0	0
2024-06-13 03:06:32			0	38037	0	0	0	24877	23500	135148	26986	1010904	41984	109193	0	0	8290	553428	0	0
2024-06-13 03:07:32			0	38050	0	0	0	24875	23500	135024	27388	1010859	41996	109192	0	0	8291	552918	0	0
2024-06-13 03:08:32			0	38107	0	0	0	24883	23500	134988	27268	1010851	41995	109195	0	0	8293	550686	0	0
2024-06-13 03:09:32			0	38127	0	0	0	24880	23500	134940	27258	1010877	41984	109194	0	0	8294	549904	0	0
2024-06-13 03:10:32			0	38169	0	0	0	24885	23500	134812	26998	1010851	41995	109196	0	0	8297	548265	0	0
2024-06-13 03:11:32			0	38180	0	0	0	24880	23490	134692	27079	1010869	42006	109194	0	0	8297	547866	0	0
2024-06-13 03:12:32			0	38208	0	0	0	24893	23490	134736	27164	1010869	42006	109199	0	0	8298	546776	0	0
2024-06-13 03:13:32			0	38221	0	0	0	24888	23500	134548	27204	1010877	41995	109197	0	0	8299	546239	0	0
2024-06-13 03:14:32			0	38244	0	0	0	24885	23490	134532	27024	1010815	41995	109196	0	0	8300	545375	0	0
2024-06-13 03:15:32			0	38261	0	0	0	24883	23500	134436	27239	1010877	41995	109195	0	0	8301	544684	0	0
2024-06-13 03:16:32			0	38292	0	0	0	24883	23500	134380	27109	1010851	41995	109195	0	0	8303	543481	0	0
2024-06-13 03:17:32			0	38314	0	0	0	24885	23490	134220	27255	1010887	41983	109196	0	0	8304	542658	0	0
2024-06-13 03:18:32			0	38321	0	0	0	24877	23490	134096	27419	1010860	42005	109193	0	0	8304	542387	0	0
2024-06-13 03:19:32			0	38368	0	0	0	24877	23490	134108	27281	1010842	42006	109193	0	0	8307	540568	0	0
2024-06-13 03:20:32			0	38377	0	0	0	24872	23490	133976	27159	1010807	41994	109191	0	0	8307	540220	0	0
2024-06-13 03:21:32			0	38419	0	0	0	24862	23480	133984	27313	1010790	41982	109187	0	0	8310	538629	0	0
2024-06-13 03:22:32			0	38429	0	0	0	24854	23490	133876	27232	1010834	41983	109184	0	0	8310	538213	0	0
2024-06-13 03:23:32			0	38443	0	0	0	24867	23480	133776	26974	1010798	41972	109189	0	0	8311	537703	0	0
2024-06-13 03:24:32			0	38472	0	0	0	24862	23480	133716	27029	1010772	41983	109187	0	0	8313	536587	0	0
2024-06-13 03:25:32			0	38494	0	0	0	24851	23470	133620	27137	1010728	41981	109183	0	0	8314	535770	0	0
2024-06-13 03:26:32			0	38507	0	0	0	24844	23470	133592	26915	1010746	41993	109180	0	0	8315	535271	0	0
2024-06-13 03:27:32			0	38525	0	0	0	24846	23470	133544	27098	1010826	41981	109181	0	0	8315	534579	0	0
2024-06-13 03:28:32			0	38550	0	0	0	24851	23460	133536	27081	1010737	41993	109183	0	0	8317	533650	0	0
2024-06-13 03:29:32			0	38582	0	0	0	24849	23470	133432	27371	1010755	41993	109182	0	0	8318	532393	0	0
2024-06-13 03:30:32			0	38588	0	0	0	24846	23460	133364	27234	1010737	41970	109181	0	0	8319	532193	0	0
2024-06-13 03:31:32			0	38575	0	0	0	24854	23460	133352	27092	1010764	42003	109184	0	0	8318	532691	0	0
2024-06-13 03:32:32			0	38605	0	0	0	24857	23460	133300	27170	1010764	41981	109185	0	0	8319	531543	0	0
2024-06-13 03:33:32			0	38645	0	0	0	24849	23470	133276	27118	1010728	41993	109182	0	0	8322	529983	0	0
2024-06-13 03:34:32			0	38632	0	0	0	24844	23460	133232	27391	1010684	41993	109180	0	0	8321	530510	0	0
2024-06-13 03:35:32			0	38651	0	0	0	24838	23450	133172	27369	1010694	41991	109178	0	0	8322	529814	0	0
2024-06-13 03:36:32			0	38669	0	0	0	24836	23460	133100	27454	1010676	41992	109177	0	0	8323	529097	0	0
2024-06-13 03:37:32			0	38679	0	0	0	24825	23440	133032	27331	1010685	42001	109173	0	0	8324	528775	0	0
2024-06-13 03:38:32			0	38690	0	0	0	24823	23450	133008	27182	1010667	41979	109172	0	0	8324	528326	0	0
2024-06-13 03:39:32			0	38709	0	0	0	24831	23450	132976	27130	1010640	41991	109175	0	0	8325	527601	0	0
2024-06-13 03:40:32			0	38732	0	0	0	24823	23430	132921	27270	1010641	41979	109172	0	0	8326	526785	0	0
2024-06-13 03:41:32			0	38771	0	0	0	24825	23430	132789	27055	1010561	41979	109173	0	0	8328	525302	0	0
2024-06-13 03:42:32			0	38815	0	0	0	24823	23440	132665	27462	1010605	41979	109172	0	0	8331	523602	0	0
2024-06-13 03:43:32			0	38842	0	0	0	24818	23430	132481	26870	1010641	41990	109170	0	0	8332	522608	0	0
2024-06-13 03:44:32			0	38903	0	0	0	24823	23430	132389	27150	1010588	41979	109172	0	0	8335	520300	0	0
2024-06-13 03:45:32			0	38941	0	0	0	24820	23430	132121	26951	1010668	41990	109171	0	0	8337	518866	0	0
2024-06-13 03:46:32			0	38983	0	0	0	24820	23430	132105	27039	1010614	41979	109171	0	0	8339	517283	0	0
2024-06-13 03:47:32			0	39003	0	0	0	24815	23430	132089	27180	1010526	41966	109169	0	0	8341	516530	0	0
2024-06-13 03:48:32			0	38975	0	0	0	24820	23420	132045	27270	1010571	41989	109171	0	0	8339	517614	0	0
2024-06-13 03:49:32			0	38988	0	0	0	24818	23420	132101	27220	1010624	41978	109170	0	0	8340	517124	0	0
2024-06-13 03:50:32			0	38944	0	0	0	24807	23420	132185	27414	1010597	41989	109166	0	0	8338	518782	0	0
2024-06-13 03:51:32			0	38904	0	0	0	24807	23420	132205	27457	1010571	41978	109166	0	0	8336	520292	0	0
2024-06-13 03:52:32			0	38872	0	0	0	24805	23410	132301	27189	1010473	41977	109165	0	0	8334	521531	0	0
2024-06-13 03:53:32			0	38873	0	0	0	24815	23420	132485	27209	1010535	41988	109169	0	0	8334	521464	0	0
2024-06-13 03:54:32			0	38849	0	0	0	24799	23420	132517	27258	1010482	41999	109163	0	0	8333	522372	0	0
2024-06-13 03:55:32			0	38802	0	0	0	24799	23410	132597	27274	1010518	41976	109163	0	0	8330	524184	0	0
2024-06-13 03:56:32			0	38802	0	0	0	24802	23410	132625	27112	1010447	41977	109164	0	0	8330	524184	0	0
2024-06-13 03:57:32			0	38792	0	0	0	24794	23410	132701	27175	1010492	41976	109161	0	0	8330	524563	0	0
2024-06-13 03:58:32			0	38742	0	0	0	24794	23400	132721	27398	1010501	41975	109161	0	0	8327	526493	0	0
2024-06-13 03:59:32			0	38747	0	0	0	24789	23400	132765	27038	1010501	41998	109159	0	0	8328	526303	0	0
2024-06-13 04:00:32			0	38735	0	0	0	24776	23400	132873	27105	1010474	41986	109154	0	0	8327	526759	0	0
2024-06-13 04:01:32			0	38733	0	0	0	24794	23390	132936	27370	1010413	41986	109161	0	0	8327	526865	0	0
2024-06-13 04:02:32			0	38708	0	0	0	24781	23390	132848	27303	1010431	41974	109156	0	0	8326	527817	0	0
2024-06-13 04:03:32			0	38734	0	0	0	24784	23400	132949	27350	1010501	41986	109157	0	0	8327	526798	0	0
2024-06-13 04:04:32			0	38722	0	0	0	24789	23390	132992	27336	1010493	42008	109159	0	0	8326	527284	0	0
2024-06-13 04:05:32			0	38721	0	0	0	24792	23400	132952	27190	1010528	41986	109160	0	0	8326	527293	0	0
2024-06-13 04:06:32			0	38724	0	0	0	24802	23400	132921	26998	1010563	41975	109164	0	0	8326	527178	0	0
2024-06-13 04:07:32			0	38700	0	0	0	24815	23410	132956	27190	1010598	42009	109169	0	0	8325	528063	0	0
2024-06-13 04:08:32			0	38727	0	0	0	24831	23420	132948	27421	1010571	41989	109175	0	0	8326	527005	0	0
2024-06-13 04:09:32			0	38717	0	0	0	24825	23420	133012	27055	1010597	42000	109173	0	0	8326	527386	0	0
2024-06-13 04:10:32			0	38719	0	0	0	24828	23410	132948	27088	1010607	41988	109174	0	0	8326	527339	0	0
2024-06-13 04:11:32			0	38733	0	0	0	24823	23420	132949	26922	1010589	41988	109172	0	0	8326	526776	0	0
2024-06-13 04:12:32			0	38721	0	0	0	24838	23420	132952	26972	1010651	41978	109178	0	0	8326	527233	0	0
2024-06-13 04:13:32			0	38736	0	0	0	24838	23430	132936	27066	1010694	41990	109178	0	0	8326	526633	0	0
2024-06-13 04:14:32			0	38731	0	0	0	24841	23430	132925	26974	1010686	41989	109179	0	0	8326	526823	0	0
2024-06-13 04:15:32			0	38753	0	0	0	24846	23440	132817	27336	1010677	42000	109181	0	0	8327	525956	0	0
2024-06-13 04:16:32			0	38753	0	0	0	24854	23430	132777	26870	1010748	41990	109184	0	0	8327	525986	0	0
2024-06-13 04:17:32			0	38744	0	0	0	24862	23440	132853	27135	1010730	41990	109187	0	0	8326	526299	0	0
2024-06-13 04:18:32			0	38756	0	0	0	24859	23440	132821	26941	1010685	41991	109186	0	0	8327	525842	0	0
2024-06-13 04:19:32			0	38784	0	0	0	24851	23440	132749	27171	1010605	41979	109183	0	0	8329	524778	0	0
2024-06-13 04:20:32			0	38797	0	0	0	24841	23430	132697	27183	1010641	41979	109179	0	0	8329	524314	0	0
2024-06-13 04:21:32			0	38787	0	0	0	24823	23430	132717	27355	1010588	41967	109172	0	0	8329	524694	0	0
2024-06-13 04:22:32			0	38840	0	0	0	24802	23430	132545	27126	1010588	41990	109164	0	0	8332	522684	0	0
2024-06-13 04:23:32			0	38833	0	0	0	24797	23420	132537	27289	1010402	41988	109162	0	0	8332	522978	0	0
2024-06-13 04:24:32			0	38833	0	0	0	24781	23410	132485	27022	1010393	41977	109156	0	0	8332	523008	0	0
2024-06-13 04:25:32			0	38854	0	0	0	24779	23400	132501	27312	1010368	41986	109155	0	0	8333	522242	0	0
2024-06-13 04:26:32			0	38868	0	0	0	24768	23400	132377	27022	1010474	41975	109151	0	0	8334	521712	0	0
2024-06-13 04:27:32			0	38882	0	0	0	24766	23380	132361	27034	1010342	41973	109150	0	0	8335	521241	0	0
2024-06-13 04:28:32			0	38910	0	0	0	24755	23380	132309	26845	1010315	41984	109146	0	0	8337	520182	0	0
2024-06-13 04:29:32			0	38918	0	0	0	24753	23380	132213	26955	1010342	41984	109145	0	0	8337	519880	0	0
2024-06-13 04:30:32			0	38930	0	0	0	24750	23370	132225	27391	1010298	41984	109144	0	0	8338	519456	0	0
2024-06-13 04:31:32			0	38951	0	0	0	24750	23370	132189	27119	1010298	41984	109144	0	0	8339	518664	0	0
2024-06-13 04:32:32			0	38946	0	0	0	24755	23370	132189	27286	1010378	41984	109146	0	0	8338	518852	0	0
2024-06-13 04:33:32			0	38965	0	0	0	24755	23370	132005	27091	1010272	41984	109146	0	0	8339	518136	0	0
2024-06-13 04:34:32			0	38981	0	0	0	24745	23370	132057	27152	1010325	41973	109142	0	0	8340	517533	0	0
2024-06-13 04:35:32			0	38966	0	0	0	24745	23370	132037	27270	1010263	41983	109142	0	0	8340	518098	0	0
2024-06-13 04:36:32			0	38961	0	0	0	24755	23370	132029	27355	1010290	41972	109146	0	0	8339	518287	0	0
2024-06-13 04:37:32			0	38954	0	0	0	24753	23370	132121	27428	1010370	41995	109145	0	0	8339	518550	0	0
2024-06-13 04:38:32			0	38947	0	0	0	24766	23370	132113	27033	1010316	41972	109150	0	0	8338	518815	0	0
2024-06-13 04:39:32			0	38960	0	0	0	24763	23360	132097	27131	1010308	41983	109149	0	0	8339	518353	0	0
2024-06-13 04:40:32			0	38943	0	0	0	24771	23370	132065	27474	1010423	41983	109152	0	0	8338	518965	0	0
2024-06-13 04:41:32			0	38953	0	0	0	24776	23370	132145	27227	1010432	41984	109154	0	0	8338	518588	0	0
2024-06-13 04:42:32			0	38954	0	0	0	24789	23370	132089	27135	1010458	41996	109159	0	0	8338	518550	0	0
2024-06-13 04:43:32			0	38951	0	0	0	24792	23390	132061	27227	1010466	41998	109160	0	0	8338	518605	0	0
2024-06-13 04:44:32			0	38962	0	0	0	24802	23380	132005	27209	1010502	41996	109164	0	0	8338	518220	0	0
2024-06-13 04:45:32			0	38981	0	0	0	24818	23400	131989	27008	1010536	41975	109170	0	0	8339	517446	0	0
2024-06-13 04:46:32			0	38981	0	0	0	24825	23400	132029	27118	1010608	41986	109173	0	0	8339	517446	0	0
2024-06-13 04:47:32			0	38995	0	0	0	24833	23410	131929	27267	1010687	41988	109176	0	0	8340	516890	0	0
2024-06-13 04:48:32			0	38976	0	0	0	24854	23420	131981	27218	1010695	41999	109184	0	0	8338	517576	0	0
2024-06-13 04:49:32			0	39001	0	0	0	24849	23420	131997	27131	1010624	41989	109182	0	0	8340	516635	0	0
2024-06-13 04:50:32			0	38982	0	0	0	24862	23420	132013	27284	1010731	42000	109187	0	0	8339	517350	0	0
2024-06-13 04:51:32			0	38994	0	0	0	24854	23430	132021	27345	1010668	42000	109184	0	0	8339	516869	0	0
2024-06-13 04:52:32			0	38978	0	0	0	24859	23440	131977	27390	1010703	42000	109186	0	0	8339	517442	0	0
2024-06-13 04:53:32			0	39009	0	0	0	24851	23430	131933	27331	1010766	41989	109183	0	0	8340	516305	0	0
2024-06-13 04:54:32			0	38972	0	0	0	24859	23430	131881	27216	1010694	42000	109186	0	0	8338	517697	0	0
2024-06-13 04:55:32			0	38996	0	0	0	24849	23440	131897	27464	1010703	42000	109182	0	0	8340	516765	0	0
2024-06-13 04:56:32			0	38981	0	0	0	24859	23450	131961	27396	1010747	42001	109186	0	0	8339	517300	0	0
2024-06-13 04:57:32			0	38991	0	0	0	24864	23450	132009	27227	1010774	41991	109188	0	0	8339	516924	0	0
2024-06-13 04:58:32			0	38988	0	0	0	24875	23440	131985	27071	1010765	41991	109192	0	0	8339	517066	0	0
2024-06-13 04:59:32			0	38966	0	0	0	24880	23460	131985	27417	1010889	41980	109194	0	0	8338	517836	0	0
2024-06-13 05:00:32			0	38983	0	0	0	24883	23470	131981	27279	1010861	41993	109195	0	0	8339	517167	0	0
2024-06-13 05:01:32			0	38996	0	0	0	24896	23470	132073	27322	1010915	41993	109200	0	0	8339	516678	0	0
2024-06-13 05:02:32			0	38973	0	0	0	24909	23470	131989	27419	1010915	42025	109205	0	0	8338	517543	0	0
2024-06-13 05:03:32			0	38967	0	0	0	24911	23490	131981	27161	1010914	42016	109206	0	0	8337	517711	0	0
2024-06-13 05:04:32			0	38971	0	0	0	24914	23500	131917	27248	1010984	42017	109207	0	0	8338	517531	0	0
2024-06-13 05:05:32			0	38984	0	0	0	24924	23500	131941	27424	1010931	42006	109211	0	0	8338	517042	0	0
2024-06-13 05:06:32			0	38977	0	0	0	24929	23500	131873	27338	1011019	42007	109213	0	0	8338	517305	0	0
2024-06-13 05:07:32			0	38973	0	0	0	24932	23510	131985	27230	1011036	42007	109214	0	0	8337	517427	0	0
2024-06-13 05:08:32			0	38973	0	0	0	24940	23520	131917	27322	1011045	41997	109217	0	0	8337	517398	0	0
2024-06-13 05:09:32			0	38993	0	0	0	24929	23520	131941	27454	1011098	42007	109213	0	0	8338	516645	0	0
2024-06-13 05:10:32			0	38993	0	0	0	24937	23520	131877	27308	1011054	42008	109216	0	0	8338	516645	0	0
2024-06-13 05:11:32			0	38981	0	0	0	24945	23520	131853	27324	1011107	42020	109219	0	0	8338	517097	0	0
2024-06-13 05:12:32			0	39002	0	0	0	24945	23530	131873	27324	1011169	42008	109219	0	0	8339	516278	0	0
2024-06-13 05:13:32			0	38994	0	0	0	24953	23530	131941	27185	1011231	42009	109222	0	0	8338	516579	0	0
2024-06-13 05:14:32			0	39018	0	0	0	24961	23530	131901	26977	1011204	42009	109225	0	0	8339	515676	0	0
2024-06-13 05:15:32			0	39013	0	0	0	24958	23530	131881	27033	1011258	42009	109224	0	0	8339	515864	0	0
2024-06-13 05:16:32			0	39014	0	0	0	24966	23550	131837	27339	1011256	42000	109227	0	0	8339	515769	0	0
2024-06-13 05:17:32			0	39020	0	0	0	24968	23550	131897	26981	1011310	42000	109228	0	0	8339	515543	0	0
2024-06-13 05:18:32			0	39015	0	0	0	24981	23560	131861	26967	1011282	42001	109233	0	0	8339	515702	0	0
2024-06-13 05:19:32			0	39022	0	0	0	24986	23570	131893	27331	1011318	42036	109235	0	0	8339	515410	0	0
2024-06-13 05:20:32			0	39031	0	0	0	24992	23580	131865	27036	1011308	42036	109237	0	0	8340	515043	0	0
2024-06-13 05:21:32			0	39043	0	0	0	24992	23570	131825	27024	1011326	42013	109237	0	0	8340	514622	0	0
2024-06-13 05:22:32			0	39043	0	0	0	24994	23570	131765	27190	1011300	42002	109238	0	0	8340	514622	0	0
2024-06-13 05:23:32			0	39056	0	0	0	24994	23580	131757	27010	1011415	42014	109238	0	0	8341	514105	0	0
2024-06-13 05:24:32			0	39050	0	0	0	25005	23590	131757	27062	1011459	42015	109242	0	0	8340	514301	0	0
2024-06-13 05:25:32			0	39051	0	0	0	25012	23590	131721	27007	1011441	42015	109245	0	0	8340	514264	0	0
2024-06-13 05:26:32			0	39059	0	0	0	25005	23590	131693	27098	1011406	41993	109242	0	0	8341	513964	0	0
2024-06-13 05:27:32			0	39048	0	0	0	25007	23590	131629	27327	1011388	42015	109243	0	0	8340	514376	0	0
2024-06-13 05:28:32			0	39077	0	0	0	25007	23590	131605	27357	1011468	42015	109243	0	0	8342	513289	0	0
2024-06-13 05:29:32			0	39083	0	0	0	25015	23600	131673	27020	1011476	42027	109246	0	0	8342	513036	0	0
2024-06-13 05:30:32			0	39067	0	0	0	25012	23600	131753	27332	1011396	42016	109245	0	0	8341	513635	0	0
2024-06-13 05:31:32			0	39078	0	0	0	25023	23590	131637	27497	1011414	42015	109249	0	0	8342	513252	0	0
2024-06-13 05:32:32			0	39080	0	0	0	25020	23610	131633	27223	1011467	42028	109248	0	0	8342	513119	0	0
2024-06-13 05:33:32			0	39100	0	0	0	25018	23600	131609	27332	1011396	42016	109247	0	0	8343	512399	0	0
2024-06-13 05:34:32			0	39112	0	0	0	25020	23600	131557	27386	1011405	42005	109248	0	0	8343	511950	0	0
2024-06-13 05:35:32			0	39093	0	0	0	25010	23610	131577	27241	1011448	42017	109244	0	0	8343	512632	0	0
2024-06-13 05:36:32			0	39094	0	0	0	25007	23610	131609	27298	1011467	42017	109243	0	0	8343	512595	0	0
2024-06-13 05:37:32			0	39100	0	0	0	25015	23600	131585	27182	1011423	42004	109246	0	0	8343	512399	0	0
2024-06-13 05:38:32			0	39114	0	0	0	25018	23610	131509	27353	1011475	42005	109247	0	0	8344	511847	0	0
2024-06-13 05:39:32			0	39123	0	0	0	25012	23600	131545	26923	1011485	42005	109245	0	0	8344	511539	0	0
2024-06-13 05:40:32			0	39122	0	0	0	25010	23600	131581	27317	1011405	42017	109244	0	0	8344	511576	0	0
2024-06-13 05:41:32			0	39125	0	0	0	25018	23610	131601	27057	1011386	42017	109247	0	0	8344	511435	0	0
2024-06-13 05:42:32			0	39137	0	0	0	25010	23610	131473	27178	1011413	42017	109244	0	0	8345	510987	0	0
2024-06-13 05:43:32			0	39136	0	0	0	25007	23610	131469	26968	1011502	42028	109243	0	0	8345	511024	0	0
2024-06-13 05:44:32			0	39131	0	0	0	25015	23610	131445	27460	1011422	42005	109246	0	0	8345	511211	0	0
2024-06-13 05:45:32			0	39128	0	0	0	25015	23610	131505	27412	1011467	42017	109246	0	0	8344	511323	0	0
2024-06-13 05:46:32			0	39141	0	0	0	25007	23600	131449	26859	1011405	42028	109243	0	0	8345	510866	0	0
2024-06-13 05:47:32			0	39153	0	0	0	25005	23600	131429	27327	1011431	42028	109242	0	0	8346	510418	0	0
2024-06-13 05:48:32			0	39142	0	0	0	25002	23600	131417	27118	1011378	42028	109241	0	0	8345	510829	0	0
2024-06-13 05:49:32			0	39149	0	0	0	25010	23610	131385	27161	1011467	42005	109244	0	0	8346	510538	0	0
2024-06-13 05:50:32			0	39152	0	0	0	25005	23600	131481	27098	1011423	42016	109242	0	0	8346	510455	0	0
2024-06-13 05:51:32			0	39161	0	0	0	24999	23590	131485	27173	1011361	42003	109240	0	0	8346	510148	0	0
2024-06-13 05:52:32			0	39136	0	0	0	25005	23610	131437	27026	1011413	42017	109242	0	0	8345	511024	0	0
2024-06-13 05:53:32			0	39140	0	0	0	24999	23600	131361	27074	1011458	42017	109240	0	0	8345	510903	0	0
2024-06-13 05:54:32			0	39140	0	0	0	25002	23590	131485	27175	1011352	42026	109241	0	0	8345	510932	0	0
2024-06-13 05:55:32			0	39151	0	0	0	24994	23600	131437	27161	1011396	42016	109238	0	0	8346	510492	0	0
2024-06-13 05:56:32			0	39151	0	0	0	24992	23590	131453	27187	1011388	42015	109237	0	0	8346	510521	0	0
2024-06-13 05:57:32			0	39186	0	0	0	25002	23600	131461	27514	1011378	42017	109241	0	0	8348	509186	0	0
2024-06-13 05:58:32			0	39172	0	0	0	24986	23600	131501	27079	1011396	42016	109235	0	0	8347	509709	0	0
2024-06-13 05:59:32			0	39172	0	0	0	24989	23590	131349	26972	1011361	42003	109236	0	0	8347	509737	0	0
2024-06-13 06:00:32			0	39145	0	0	0	24981	23600	131453	27255	1011378	42017	109233	0	0	8346	510717	0	0
2024-06-13 06:01:32			0	39166	0	0	0	25002	23590	131497	27317	1011334	42026	109241	0	0	8346	509961	0	0
2024-06-13 06:02:32			0	39167	0	0	0	24986	23590	131429	27161	1011361	42003	109235	0	0	8347	509924	0	0
2024-06-13 06:03:32			0	39159	0	0	0	24984	23590	131433	27020	1011388	42003	109234	0	0	8346	510222	0	0
2024-06-13 06:04:32			0	39162	0	0	0	24979	23580	131465	27343	1011344	42003	109232	0	0	8347	510139	0	0
2024-06-13 06:05:32			0	39175	0	0	0	24979	23590	131397	27194	1011307	42003	109232	0	0	8347	509625	0	0
2024-06-13 06:06:32			0	39157	0	0	0	24981	23580	131369	27377	1011344	42003	109233	0	0	8346	510326	0	0
2024-06-13 06:07:32			0	39149	0	0	0	24981	23590	131405	27547	1011388	42015	109233	0	0	8346	510596	0	0
2024-06-13 06:08:32			0	39166	0	0	0	24979	23580	131401	27452	1011389	42014	109232	0	0	8347	509990	0	0
2024-06-13 06:09:32			0	39168	0	0	0	24986	23580	131449	27284	1011344	42036	109235	0	0	8347	509915	0	0
2024-06-13 06:10:32			0	39164	0	0	0	24968	23590	131429	27159	1011379	42015	109228	0	0	8347	510036	0	0
2024-06-13 06:11:32			0	39159	0	0	0	24979	23590	131441	27599	1011352	42015	109232	0	0	8346	510222	0	0
2024-06-13 06:12:32			0	39159	0	0	0	24976	23590	131393	27064	1011388	42003	109231	0	0	8347	510222	0	0
2024-06-13 06:13:32			0	39147	0	0	0	24979	23580	131453	27206	1011415	42003	109232	0	0	8346	510699	0	0
2024-06-13 06:14:32			0	39165	0	0	0	24986	23580	131389	27377	1011370	42014	109235	0	0	8347	510027	0	0
2024-06-13 06:15:32			0	39127	0	0	0	24986	23590	131385	27390	1011326	42026	109235	0	0	8345	511418	0	0
2024-06-13 06:16:32			0	39145	0	0	0	24989	23580	131541	27270	1011362	42014	109236	0	0	8346	510774	0	0
2024-06-13 06:17:32			0	39146	0	0	0	24981	23590	131321	27258	1011432	42003	109233	0	0	8346	510708	0	0
2024-06-13 06:18:32			0	39153	0	0	0	24986	23580	131545	27085	1011370	42014	109235	0	0	8346	510475	0	0
2024-06-13 06:19:32			0	39158	0	0	0	24989	23590	131493	27462	1011379	42015	109236	0	0	8346	510260	0	0
2024-06-13 06:20:32			0	39106	0	0	0	24979	23580	131509	27722	1011344	42003	109232	0	0	8344	512232	0	0
2024-06-13 06:21:32			0	39129	0	0	0	24986	23600	131457	27438	1011369	42027	109235	0	0	8345	511314	0	0
2024-06-13 06:22:32			0	39123	0	0	0	24989	23590	131537	27464	1011388	42015	109236	0	0	8344	511567	0	0
2024-06-13 06:23:32			0	39115	0	0	0	24992	23590	131525	27398	1011414	42003	109237	0	0	8344	511867	0	0
2024-06-13 06:24:32			0	39113	0	0	0	24984	23590	131545	27291	1011432	42003	109234	0	0	8344	511942	0	0
2024-06-13 06:25:32			0	39105	0	0	0	24997	23590	131505	27137	1011406	42015	109239	0	0	8343	512241	0	0
2024-06-13 06:26:32			0	39091	0	0	0	24994	23590	131577	27067	1011414	42015	109238	0	0	8343	512765	0	0
2024-06-13 06:27:32			0	39073	0	0	0	24992	23590	131557	27059	1011406	42015	109237	0	0	8342	513439	0	0
2024-06-13 06:28:32			0	39050	0	0	0	24994	23590	131529	27237	1011414	41993	109238	0	0	8341	514301	0	0
2024-06-13 06:29:32			0	39077	0	0	0	24997	23580	131609	27267	1011344	42025	109239	0	0	8342	513318	0	0
2024-06-13 06:30:32			0	39064	0	0	0	24992	23590	131669	27237	1011441	42003	109237	0	0	8341	513776	0	0
2024-06-13 06:31:32			0	39062	0	0	0	24999	23590	131737	26909	1011379	42026	109240	0	0	8341	513851	0	0
2024-06-13 06:32:32			0	39036	0	0	0	24989	23590	131749	26916	1011388	42015	109236	0	0	8340	514827	0	0
2024-06-13 06:33:32			0	39049	0	0	0	24989	23590	131709	26878	1011361	42015	109236	0	0	8341	514339	0	0
2024-06-13 06:34:32			0	39046	0	0	0	24992	23590	131705	27072	1011379	42015	109237	0	0	8340	514451	0	0
2024-06-13 06:35:32			0	39056	0	0	0	24989	23590	131777	27421	1011432	42003	109236	0	0	8341	514076	0	0
2024-06-13 06:36:32			0	39023	0	0	0	24989	23590	131905	27324	1011414	42015	109236	0	0	8339	515315	0	0
2024-06-13 06:37:32			0	39000	0	0	0	24986	23580	131821	26963	1011424	42014	109235	0	0	8338	516208	0	0
2024-06-13 06:38:32			0	38999	0	0	0	24984	23580	131865	27050	1011370	42014	109234	0	0	8338	516245	0	0
2024-06-13 06:39:32			0	38984	0	0	0	24989	23580	131877	27466	1011317	42025	109236	0	0	8337	516809	0	0
2024-06-13 06:40:32			0	38993	0	0	0	24989	23590	131917	27253	1011406	42003	109236	0	0	8338	516442	0	0
2024-06-13 06:41:32			0	38983	0	0	0	24984	23600	132001	27454	1011396	42027	109234	0	0	8337	516789	0	0
2024-06-13 06:42:32			0	38962	0	0	0	24984	23590	131937	27298	1011334	42015	109234	0	0	8336	517608	0	0
2024-06-13 06:43:32			0	38952	0	0	0	24994	23590	132013	27064	1011299	42026	109238	0	0	8336	517985	0	0
2024-06-13 06:44:32			0	38941	0	0	0	24986	23580	132037	27163	1011344	42003	109235	0	0	8335	518428	0	0
2024-06-13 06:45:32			0	38931	0	0	0	24984	23580	132097	27171	1011370	42025	109234	0	0	8335	518805	0	0
2024-06-13 06:46:32			0	38940	0	0	0	24989	23580	132053	27215	1011397	42014	109236	0	0	8335	518466	0	0
2024-06-13 06:47:32			0	38909	0	0	0	24979	23590	132149	27357	1011326	42026	109232	0	0	8334	519606	0	0
2024-06-13 06:48:32			0	38917	0	0	0	24984	23590	132141	27237	1011388	42015	109234	0	0	8334	519304	0	0
2024-06-13 06:49:32			0	38909	0	0	0	24984	23590	132137	27301	1011379	42015	109234	0	0	8333	519606	0	0
2024-06-13 06:50:32			0	38902	0	0	0	24979	23590	132201	27524	1011379	42015	109232	0	0	8333	519870	0	0
2024-06-13 06:51:32			0	38917	0	0	0	24986	23580	132193	27452	1011317	42014	109235	0	0	8334	519333	0	0
2024-06-13 06:52:32			0	38900	0	0	0	24981	23580	132285	27109	1011335	42003	109233	0	0	8333	519975	0	0
2024-06-13 06:53:32			0	38871	0	0	0	24984	23580	132197	27239	1011308	42014	109234	0	0	8331	521071	0	0
2024-06-13 06:54:32			0	38870	0	0	0	24986	23570	132369	26958	1011326	42013	109235	0	0	8331	521138	0	0
2024-06-13 06:55:32			0	38858	0	0	0	24971	23590	132301	26889	1011352	42015	109229	0	0	8331	521533	0	0
2024-06-13 06:56:32			0	38852	0	0	0	24979	23580	132261	26994	1011424	42003	109232	0	0	8331	521789	0	0
2024-06-13 06:57:32			0	38856	0	0	0	24984	23580	132301	27274	1011335	42025	109234	0	0	8331	521638	0	0
2024-06-13 06:58:32			0	38815	0	0	0	24984	23590	132405	27414	1011406	42015	109234	0	0	8329	523161	0	0
2024-06-13 06:59:32			0	38850	0	0	0	24986	23580	132369	27287	1011362	42025	109235	0	0	8330	521865	0	0
2024-06-13 07:00:32			0	38849	0	0	0	24984	23580	132345	27126	1011424	42003	109234	0	0	8330	521903	0	0
2024-06-13 07:01:32			0	38835	0	0	0	24981	23590	132429	27341	1011352	42015	109233	0	0	8330	522403	0	0
2024-06-13 07:02:32			0	38836	0	0	0	24979	23600	132457	26788	1011343	42016	109232	0	0	8330	522336	0	0
2024-06-13 07:03:32			0	38788	0	0	0	24981	23590	132481	27095	1011379	42026	109233	0	0	8327	524184	0	0
2024-06-13 07:04:32			0	38800	0	0	0	24968	23580	132489	27048	1011282	42014	109228	0	0	8328	523759	0	0
2024-06-13 07:05:32			0	38808	0	0	0	24974	23580	132513	27196	1011370	42014	109230	0	0	8328	523455	0	0
2024-06-13 07:06:32			0	38801	0	0	0	24963	23590	132549	27229	1011326	42026	109226	0	0	8328	523691	0	0
2024-06-13 07:07:32			0	38798	0	0	0	24958	23570	132529	27074	1011273	42013	109224	0	0	8328	523864	0	0
2024-06-13 07:08:32			0	38784	0	0	0	24958	23570	132573	27230	1011291	42024	109224	0	0	8327	524395	0	0
2024-06-13 07:09:32			0	38773	0	0	0	24958	23560	132597	27272	1011255	42001	109224	0	0	8327	524842	0	0
2024-06-13 07:10:32			0	38766	0	0	0	24953	23550	132577	26946	1011185	42011	109222	0	0	8326	525137	0	0
2024-06-13 07:11:32			0	38774	0	0	0	24950	23560	132621	27298	1011140	42012	109221	0	0	8327	524804	0	0
2024-06-13 07:12:32			0	38776	0	0	0	24935	23560	132609	27293	1011220	42001	109215	0	0	8327	524728	0	0
2024-06-13 07:13:32			0	38760	0	0	0	24929	23560	132637	27296	1011193	42023	109213	0	0	8327	525336	0	0
2024-06-13 07:14:32			0	38763	0	0	0	24929	23550	132629	27111	1011176	42010	109213	0	0	8327	525251	0	0
2024-06-13 07:15:32			0	38766	0	0	0	24935	23560	132693	27358	1011193	42001	109215	0	0	8327	525108	0	0
2024-06-13 07:16:32			0	38738	0	0	0	24929	23550	132641	27421	1011176	42010	109213	0	0	8325	526202	0	0
2024-06-13 07:17:32			0	38737	0	0	0	24927	23550	132629	27197	1011123	42000	109212	0	0	8325	526239	0	0
2024-06-13 07:18:32			0	38736	0	0	0	24919	23530	132705	27229	1011089	42008	109209	0	0	8325	526337	0	0
2024-06-13 07:19:32			0	38725	0	0	0	24916	23540	132700	27081	1011106	42010	109208	0	0	8325	526726	0	0
2024-06-13 07:20:32			0	38728	0	0	0	24914	23530	132740	27133	1011151	42009	109207	0	0	8325	526641	0	0
2024-06-13 07:21:32			0	38688	0	0	0	24916	23530	132792	27367	1011071	41999	109208	0	0	8323	528164	0	0
2024-06-13 07:22:32			0	38724	0	0	0	24914	23530	132841	27400	1011071	42009	109207	0	0	8325	526793	0	0
2024-06-13 07:23:32			0	38704	0	0	0	24911	23530	132848	27249	1011142	42008	109206	0	0	8324	527555	0	0
2024-06-13 07:24:32			0	38737	0	0	0	24906	23520	132921	27010	1011045	42007	109204	0	0	8326	526328	0	0
2024-06-13 07:25:32			0	38719	0	0	0	24911	23520	132892	26731	1011098	42019	109206	0	0	8325	527013	0	0
2024-06-13 07:26:32			0	38685	0	0	0	24909	23530	132920	27074	1011089	41998	109205	0	0	8323	528279	0	0
2024-06-13 07:27:32			0	38689	0	0	0	24906	23520	133000	27170	1011072	41997	109204	0	0	8323	528156	0	0
2024-06-13 07:28:32			0	38697	0	0	0	24911	23520	132968	26842	1011098	41997	109206	0	0	8323	527851	0	0
2024-06-13 07:29:32			0	38689	0	0	0	24914	23520	132936	26953	1011107	42020	109207	0	0	8323	528156	0	0
2024-06-13 07:30:32			0	38664	0	0	0	24914	23520	132884	27029	1011098	42019	109207	0	0	8322	529109	0	0
2024-06-13 07:31:32			0	38690	0	0	0	24916	23520	133000	27402	1011098	41997	109208	0	0	8323	528118	0	0
2024-06-13 07:32:32			0	38668	0	0	0	24922	23520	133052	27126	1011134	42008	109210	0	0	8322	528957	0	0
2024-06-13 07:33:32			0	38661	0	0	0	24916	23520	133100	27222	1011107	42008	109208	0	0	8322	529224	0	0
2024-06-13 07:34:32			0	38658	0	0	0	24914	23520	133084	26967	1011098	41997	109207	0	0	8321	529338	0	0
2024-06-13 07:35:32			0	38656	0	0	0	24914	23520	133100	27213	1011160	42008	109207	0	0	8321	529415	0	0
2024-06-13 07:36:32			0	38667	0	0	0	24909	23520	133060	27300	1011107	41998	109205	0	0	8322	528995	0	0
2024-06-13 07:37:32			0	38651	0	0	0	24922	23530	133108	27358	1011089	41998	109210	0	0	8321	529576	0	0
2024-06-13 07:38:32			0	38645	0	0	0	24919	23520	133072	27234	1011054	42008	109209	0	0	8321	529834	0	0
2024-06-13 07:39:32			0	38650	0	0	0	24914	23530	133036	27076	1011071	42009	109207	0	0	8321	529614	0	0
2024-06-13 07:40:32			0	38657	0	0	0	24914	23520	133048	27189	1011080	42020	109207	0	0	8321	529376	0	0
2024-06-13 07:41:32			0	38634	0	0	0	24922	23520	133128	27072	1011080	42008	109210	0	0	8320	530255	0	0
2024-06-13 07:42:32			0	38640	0	0	0	24922	23520	133096	26920	1011080	42008	109210	0	0	8320	530025	0	0
2024-06-13 07:43:32			0	38629	0	0	0	24911	23520	133124	27286	1011107	41998	109206	0	0	8320	530446	0	0
2024-06-13 07:44:32			0	38629	0	0	0	24919	23520	133168	27130	1011107	42008	109209	0	0	8320	530446	0	0
2024-06-13 07:45:32			0	38642	0	0	0	24916	23530	133116	27000	1011116	41998	109208	0	0	8321	529919	0	0
2024-06-13 07:46:32			0	38613	0	0	0	24924	23520	133136	27180	1011134	41998	109211	0	0	8319	531057	0	0
2024-06-13 07:47:32			0	38631	0	0	0	24922	23520	133160	26850	1011125	41997	109210	0	0	8320	530369	0	0
2024-06-13 07:48:32			0	38605	0	0	0	24919	23510	133192	26899	1011143	42007	109209	0	0	8319	531393	0	0
2024-06-13 07:49:32			0	38626	0	0	0	24927	23530	133208	27137	1011124	41999	109212	0	0	8320	530530	0	0
2024-06-13 07:50:32			0	38612	0	0	0	24932	23520	133248	27199	1011134	42008	109214	0	0	8319	531096	0	0
2024-06-13 07:51:32			0	38617	0	0	0	24929	23530	133228	27279	1011196	42008	109213	0	0	8319	530875	0	0
2024-06-13 07:52:32			0	38610	0	0	0	24937	23530	133188	27255	1011116	42008	109216	0	0	8319	531142	0	0
2024-06-13 07:53:32			0	38589	0	0	0	24932	23530	133272	26939	1011177	42021	109214	0	0	8318	531946	0	0
2024-06-13 07:54:32			0	38585	0	0	0	24935	23540	133312	26927	1011159	41989	109215	0	0	8317	532069	0	0
2024-06-13 07:55:32			0	38587	0	0	0	24932	23540	133348	27072	1011213	42010	109214	0	0	8318	531992	0	0
2024-06-13 07:56:32			0	38587	0	0	0	24940	23540	133300	27232	1011186	42000	109217	0	0	8317	531992	0	0
2024-06-13 07:57:32			0	38582	0	0	0	24937	23550	133328	26890	1011230	42010	109216	0	0	8317	532154	0	0
2024-06-13 07:58:32			0	38582	0	0	0	24940	23540	133472	27102	1011221	42022	109217	0	0	8317	532184	0	0
2024-06-13 07:59:32			0	38584	0	0	0	24948	23530	133416	27069	1011231	42009	109220	0	0	8317	532137	0	0
2024-06-13 08:00:32			0	38563	0	0	0	24942	23540	133328	27088	1011186	42010	109218	0	0	8316	532912	0	0
2024-06-13 08:01:32			0	38552	0	0	0	24937	23540	133308	27138	1011213	42022	109216	0	0	8316	533333	0	0
2024-06-13 08:02:32			0	38547	0	0	0	24942	23540	133408	27031	1011195	42010	109218	0	0	8315	533525	0	0
2024-06-13 08:03:32			0	38551	0	0	0	24945	23550	133520	27013	1011230	42010	109219	0	0	8315	533342	0	0
2024-06-13 08:04:32			0	38549	0	0	0	24948	23540	133436	27088	1011195	42010	109220	0	0	8315	533448	0	0
2024-06-13 08:05:32			0	38542	0	0	0	24942	23540	133520	26956	1011195	42010	109218	0	0	8315	533717	0	0
2024-06-13 08:06:32			0	38516	0	0	0	24940	23540	133480	27090	1011195	42010	109217	0	0	8314	534714	0	0
2024-06-13 08:07:32			0	38508	0	0	0	24942	23540	133472	27209	1011239	42022	109218	0	0	8313	535022	0	0
2024-06-13 08:08:32			0	38529	0	0	0	24937	23550	133540	27232	1011230	42022	109216	0	0	8314	534185	0	0
2024-06-13 08:09:32			0	38522	0	0	0	24945	23540	133500	27289	1011159	42033	109219	0	0	8314	534484	0	0
2024-06-13 08:10:32			0	38498	0	0	0	24937	23540	133664	27338	1011195	42010	109216	0	0	8313	535406	0	0
2024-06-13 08:11:32			0	38497	0	0	0	24940	23530	133708	27119	1011204	41999	109217	0	0	8313	535474	0	0
2024-06-13 08:12:32			0	38509	0	0	0	24945	23540	133524	27268	1011195	42022	109219	0	0	8313	534983	0	0
2024-06-13 08:13:32			0	38485	0	0	0	24945	23540	133656	27289	1011221	42000	109219	0	0	8312	535906	0	0
2024-06-13 08:14:32			0	38497	0	0	0	24937	23540	133656	27289	1011195	42022	109216	0	0	8313	535444	0	0
2024-06-13 08:15:32			0	38481	0	0	0	24948	23540	133792	27227	1011186	42010	109220	0	0	8312	536059	0	0
2024-06-13 08:16:32			0	38477	0	0	0	24945	23540	133812	27208	1011213	42000	109219	0	0	8312	536213	0	0
2024-06-13 08:17:32			0	38490	0	0	0	24945	23540	133752	27251	1011213	42010	109219	0	0	8312	535713	0	0
2024-06-13 08:18:32			0	38475	0	0	0	24948	23540	133716	27024	1011213	42000	109220	0	0	8311	536290	0	0
2024-06-13 08:19:32			0	38460	0	0	0	24940	23530	133712	27100	1011204	41999	109217	0	0	8311	536898	0	0
2024-06-13 08:20:32			0	38445	0	0	0	24937	23550	133736	27270	1011203	42010	109216	0	0	8310	537415	0	0
2024-06-13 08:21:32			0	38462	0	0	0	24942	23540	133716	27150	1011195	42022	109218	0	0	8311	536790	0	0
2024-06-13 08:22:32			0	38440	0	0	0	24942	23550	133672	27216	1011185	42000	109218	0	0	8310	537607	0	0
2024-06-13 08:23:32			0	38440	0	0	0	24937	23540	133744	27206	1011133	42010	109216	0	0	8310	537638	0	0
2024-06-13 08:24:32			0	38458	0	0	0	24935	23540	133712	27524	1011213	42000	109215	0	0	8311	536944	0	0
2024-06-13 08:25:32			0	38441	0	0	0	24937	23550	133756	27222	1011150	42010	109216	0	0	8310	537569	0	0
2024-06-13 08:26:32			0	38429	0	0	0	24927	23540	133728	27284	1011159	42022	109212	0	0	8309	538061	0	0
2024-06-13 08:27:32			0	38419	0	0	0	24932	23540	133772	27301	1011159	42000	109214	0	0	8309	538447	0	0
2024-06-13 08:28:32			0	38448	0	0	0	24929	23540	133848	27194	1011106	42000	109213	0	0	8310	537329	0	0
2024-06-13 08:29:32			0	38410	0	0	0	24927	23530	133808	27369	1011204	42021	109212	0	0	8308	538824	0	0
2024-06-13 08:30:32			0	38395	0	0	0	24922	23530	133796	27067	1011124	42021	109210	0	0	8308	539403	0	0
2024-06-13 08:31:32			0	38438	0	0	0	24922	23530	133880	27045	1011062	42008	109210	0	0	8310	537745	0	0
2024-06-13 08:32:32			0	38423	0	0	0	24914	23520	133840	27306	1011080	42020	109207	0	0	8309	538353	0	0
2024-06-13 08:33:32			0	38417	0	0	0	24922	23520	133856	27168	1011080	41998	109210	0	0	8309	538585	0	0
2024-06-13 08:34:32			0	38405	0	0	0	24914	23520	133880	27448	1011080	41998	109207	0	0	8308	539048	0	0
2024-06-13 08:35:32			0	38402	0	0	0	24927	23520	133968	27279	1011125	42019	109212	0	0	8308	539164	0	0
2024-06-13 08:36:32			0	38411	0	0	0	24929	23510	133924	27235	1011117	42019	109213	0	0	8308	538847	0	0
2024-06-13 08:37:32			0	38420	0	0	0	24932	23520	133888	27126	1011179	42007	109214	0	0	8309	538469	0	0
2024-06-13 08:38:32			0	38404	0	0	0	24919	23530	133928	27416	1011142	42008	109209	0	0	8308	539056	0	0
2024-06-13 08:39:32			0	38376	0	0	0	24922	23520	133992	27365	1011125	42007	109210	0	0	8307	540168	0	0
2024-06-13 08:40:32			0	38389	0	0	0	24903	23520	133972	27402	1011072	42019	109203	0	0	8308	539665	0	0
2024-06-13 08:41:32			0	38397	0	0	0	24916	23520	133880	27279	1011080	41998	109208	0	0	8308	539357	0	0
2024-06-13 08:42:32			0	38388	0	0	0	24916	23520	133892	27071	1011125	42019	109208	0	0	8307	539704	0	0
2024-06-13 08:43:32			0	38394	0	0	0	24924	23520	133908	27197	1011179	42007	109211	0	0	8308	539472	0	0
2024-06-13 08:44:32			0	38385	0	0	0	24924	23520	134004	27171	1011080	42008	109211	0	0	8307	539820	0	0
2024-06-13 08:45:32			0	38395	0	0	0	24922	23530	134024	27293	1011169	42008	109210	0	0	8308	539403	0	0
2024-06-13 08:46:32			0	38393	0	0	0	24935	23530	133984	27041	1011249	41998	109215	0	0	8307	539481	0	0
2024-06-13 08:47:32			0	38393	0	0	0	24929	23530	133984	27260	1011222	42008	109213	0	0	8307	539481	0	0
2024-06-13 08:48:32			0	38389	0	0	0	24935	23530	133896	27194	1011204	42009	109215	0	0	8307	539635	0	0
2024-06-13 08:49:32			0	38387	0	0	0	24940	23540	133852	27301	1011221	42000	109217	0	0	8307	539682	0	0
2024-06-13 08:50:32			0	38384	0	0	0	24945	23540	133976	27448	1011221	42000	109219	0	0	8307	539798	0	0
2024-06-13 08:51:32			0	38385	0	0	0	24937	23530	133912	27422	1011177	42021	109216	0	0	8307	539790	0	0
2024-06-13 08:52:32			0	38382	0	0	0	24940	23540	133940	27149	1011186	42000	109217	0	0	8307	539875	0	0
2024-06-13 08:53:32			0	38384	0	0	0	24937	23530	133960	27076	1011222	42008	109216	0	0	8307	539828	0	0
2024-06-13 08:54:32			0	38373	0	0	0	24942	23540	133976	27178	1011213	42010	109218	0	0	8306	540223	0	0
2024-06-13 08:55:32			0	38387	0	0	0	24935	23540	134044	27460	1011239	42000	109215	0	0	8307	539682	0	0
2024-06-13 08:56:32			0	38374	0	0	0	24937	23540	134076	27164	1011213	42000	109216	0	0	8306	540184	0	0
2024-06-13 08:57:32			0	38378	0	0	0	24937	23540	134072	27289	1011186	42022	109216	0	0	8307	540030	0	0
2024-06-13 08:58:32			0	38376	0	0	0	24942	23540	133976	27438	1011213	42022	109218	0	0	8306	540107	0	0
2024-06-13 08:59:32			0	38384	0	0	0	24940	23540	133988	27001	1011159	42000	109217	0	0	8307	539798	0	0
2024-06-13 09:00:32			0	38370	0	0	0	24932	23530	133976	27255	1011169	42008	109214	0	0	8306	540369	0	0
2024-06-13 09:01:32			0	38369	0	0	0	24935	23530	134000	27182	1011177	41999	109215	0	0	8306	540408	0	0
2024-06-13 09:02:32			0	38354	0	0	0	24932	23540	134000	27121	1011213	42010	109214	0	0	8305	540957	0	0
2024-06-13 09:03:32			0	38365	0	0	0	24935	23530	133948	27537	1011249	42008	109215	0	0	8306	540562	0	0
2024-06-13 09:04:32			0	38375	0	0	0	24945	23540	133940	27438	1011248	42010	109219	0	0	8306	540145	0	0
2024-06-13 09:05:32			0	38374	0	0	0	24948	23530	133944	27176	1011258	42021	109220	0	0	8306	540215	0	0
2024-06-13 09:06:32			0	38376	0	0	0	24948	23550	134036	27055	1011310	42010	109220	0	0	8306	540077	0	0
2024-06-13 09:07:32			0	38376	0	0	0	24953	23540	133964	27098	1011248	42010	109222	0	0	8306	540107	0	0
2024-06-13 09:08:32			0	38371	0	0	0	24948	23540	133972	27384	1011248	42010	109220	0	0	8306	540300	0	0
2024-06-13 09:09:32			0	38382	0	0	0	24955	23560	133964	27133	1011300	42035	109223	0	0	8307	539814	0	0
2024-06-13 09:10:32			0	38376	0	0	0	24958	23550	134036	27355	1011292	42022	109224	0	0	8306	540077	0	0
2024-06-13 09:11:32			0	38372	0	0	0	24961	23550	133956	27346	1011310	42010	109225	0	0	8306	540231	0	0
2024-06-13 09:12:32			0	38341	0	0	0	24961	23550	134020	26972	1011318	42011	109225	0	0	8304	541430	0	0
2024-06-13 09:13:32			0	38385	0	0	0	24961	23560	133924	27201	1011354	42012	109225	0	0	8307	539699	0	0
2024-06-13 09:14:32			0	38367	0	0	0	24971	23560	133988	27085	1011327	41990	109229	0	0	8306	540394	0	0
2024-06-13 09:15:32			0	38369	0	0	0	24966	23570	133872	27300	1011344	42013	109227	0	0	8306	540286	0	0
2024-06-13 09:16:32			0	38367	0	0	0	24968	23560	134004	27649	1011282	42023	109228	0	0	8306	540394	0	0
2024-06-13 09:17:32			0	38362	0	0	0	24966	23560	133964	27365	1011362	42035	109227	0	0	8305	540587	0	0
2024-06-13 09:18:32			0	38367	0	0	0	24968	23570	134004	27397	1011371	42013	109228	0	0	8306	540363	0	0
2024-06-13 09:19:32			0	38341	0	0	0	24971	23560	134008	27386	1011354	42023	109229	0	0	8304	541399	0	0
2024-06-13 09:20:32			0	38365	0	0	0	24976	23570	133988	27140	1011425	42002	109231	0	0	8305	540441	0	0
2024-06-13 09:21:32			0	38362	0	0	0	24971	23570	133976	27209	1011318	42036	109229	0	0	8305	540557	0	0
2024-06-13 09:22:32			0	38352	0	0	0	24971	23560	133984	27229	1011336	42012	109229	0	0	8305	540974	0	0
2024-06-13 09:23:32			0	38361	0	0	0	24971	23570	134004	27130	1011344	42024	109229	0	0	8305	540595	0	0
2024-06-13 09:24:32			0	38372	0	0	0	24974	23560	134008	27003	1011336	42012	109230	0	0	8306	540201	0	0
2024-06-13 09:25:32			0	38378	0	0	0	24974	23560	134044	27398	1011309	42023	109230	0	0	8306	539969	0	0
2024-06-13 09:26:32			0	38364	0	0	0	24971	23570	134044	27208	1011380	42013	109229	0	0	8305	540480	0	0
2024-06-13 09:27:32			0	38368	0	0	0	24974	23570	134116	27346	1011318	42013	109230	0	0	8306	540325	0	0
2024-06-13 09:28:32			0	38346	0	0	0	24974	23570	133988	27118	1011326	42024	109230	0	0	8304	541175	0	0
2024-06-13 09:29:32			0	38346	0	0	0	24968	23570	134016	27048	1011380	42036	109228	0	0	8305	541175	0	0
2024-06-13 09:30:32			0	38376	0	0	0	24961	23570	134040	27008	1011371	42013	109225	0	0	8306	540016	0	0
2024-06-13 09:31:32			0	38366	0	0	0	24958	23570	133980	27289	1011318	42013	109224	0	0	8306	540402	0	0
2024-06-13 09:32:32			0	38352	0	0	0	24963	23560	133988	26958	1011309	42012	109226	0	0	8305	540974	0	0
2024-06-13 09:33:32			0	38367	0	0	0	24966	23560	133940	26968	1011282	42001	109227	0	0	8306	540394	0	0
2024-06-13 09:34:32			0	38366	0	0	0	24955	23550	133980	26906	1011265	42011	109223	0	0	8306	540463	0	0
2024-06-13 09:35:32			0	38367	0	0	0	24955	23560	133980	27251	1011336	42001	109223	0	0	8306	540394	0	0
2024-06-13 09:36:32			0	38362	0	0	0	24958	23560	134060	27345	1011336	42023	109224	0	0	8306	540587	0	0
2024-06-13 09:37:32			0	38365	0	0	0	24955	23570	133908	27019	1011264	42013	109223	0	0	8306	540441	0	0
2024-06-13 09:38:32			0	38354	0	0	0	24953	23560	134040	27324	1011274	42012	109222	0	0	8305	540897	0	0
2024-06-13 09:39:32			0	38344	0	0	0	24950	23560	133992	27246	1011274	42023	109221	0	0	8305	541283	0	0
2024-06-13 09:40:32			0	38367	0	0	0	24953	23570	134008	27225	1011344	42013	109222	0	0	8306	540363	0	0
2024-06-13 09:41:32			0	38362	0	0	0	24955	23560	134032	27216	1011274	42023	109223	0	0	8306	540587	0	0
2024-06-13 09:42:32			0	38358	0	0	0	24955	23560	134024	27173	1011300	42012	109223	0	0	8305	540742	0	0
2024-06-13 09:43:32			0	38361	0	0	0	24955	23560	134048	26965	1011327	42001	109223	0	0	8306	540626	0	0
2024-06-13 09:44:32			0	38338	0	0	0	24955	23560	134080	27050	1011336	42023	109223	0	0	8304	541515	0	0
2024-06-13 09:45:32			0	38341	0	0	0	24961	23570	134012	26996	1011318	42024	109225	0	0	8304	541369	0	0
2024-06-13 09:46:32			0	38340	0	0	0	24963	23560	134044	27142	1011282	42012	109226	0	0	8304	541438	0	0
2024-06-13 09:47:32			0	38338	0	0	0	24974	23570	134104	26885	1011371	42013	109230	0	0	8304	541485	0	0
2024-06-13 09:48:32			0	38348	0	0	0	24968	23570	134244	27100	1011371	42013	109228	0	0	8305	541098	0	0
2024-06-13 09:49:32			0	38332	0	0	0	24966	23560	134148	27164	1011309	42012	109227	0	0	8304	541748	0	0
2024-06-13 09:50:32			0	38324	0	0	0	24961	23580	134064	27220	1011335	42025	109225	0	0	8304	541996	0	0
2024-06-13 09:51:32			0	38326	0	0	0	24966	23570	134132	27057	1011371	42002	109227	0	0	8304	541949	0	0
2024-06-13 09:52:32			0	38327	0	0	0	24963	23560	134104	26705	1011389	42023	109226	0	0	8304	541941	0	0
2024-06-13 09:53:32			0	38306	0	0	0	24968	23570	134116	26937	1011318	42013	109228	0	0	8303	542724	0	0
2024-06-13 09:54:32			0	38301	0	0	0	24966	23570	134164	26901	1011353	42036	109227	0	0	8302	542918	0	0
2024-06-13 09:55:32			0	38301	0	0	0	24963	23570	134172	27495	1011344	42013	109226	0	0	8302	542918	0	0
2024-06-13 09:56:32			0	38311	0	0	0	24958	23570	134152	27251	1011344	42013	109224	0	0	8303	542530	0	0
2024-06-13 09:57:32			0	38291	0	0	0	24961	23560	134144	27119	1011327	42012	109225	0	0	8302	543336	0	0
2024-06-13 09:58:32			0	38289	0	0	0	24958	23570	134224	27485	1011326	42024	109224	0	0	8302	543383	0	0
2024-06-13 09:59:32			0	38272	0	0	0	24955	23560	134204	27372	1011354	42012	109223	0	0	8301	544073	0	0
2024-06-13 10:00:32			0	38277	0	0	0	24955	23560	134296	27112	1011336	42012	109223	0	0	8301	543879	0	0
2024-06-13 10:01:32			0	38279	0	0	0	24955	23560	134316	26944	1011327	42012	109223	0	0	8301	543802	0	0
2024-06-13 10:02:32			0	38256	0	0	0	24963	23560	134296	27336	1011336	42012	109226	0	0	8300	544694	0	0
2024-06-13 10:03:32			0	38236	0	0	0	24961	23570	134404	26934	1011344	42013	109225	0	0	8299	545441	0	0
2024-06-13 10:04:32			0	38243	0	0	0	24961	23560	134360	27345	1011309	42023	109225	0	0	8299	545199	0	0
2024-06-13 10:05:32			0	38245	0	0	0	24963	23560	134456	27241	1011336	42035	109226	0	0	8299	545122	0	0
2024-06-13 10:06:32			0	38232	0	0	0	24961	23580	134432	27081	1011362	42014	109225	0	0	8299	545566	0	0
2024-06-13 10:07:32			0	38215	0	0	0	24955	23570	134432	27360	1011353	42013	109223	0	0	8298	546257	0	0
2024-06-13 10:08:32			0	38219	0	0	0	24961	23550	134544	27095	1011318	42022	109225	0	0	8298	546163	0	0
2024-06-13 10:09:32			0	38205	0	0	0	24958	23570	134444	27445	1011318	42013	109224	0	0	8297	546646	0	0
2024-06-13 10:10:32			0	38202	0	0	0	24968	23560	134508	27471	1011380	42012	109228	0	0	8297	546794	0	0
2024-06-13 10:11:32			0	38199	0	0	0	24955	23560	134624	27232	1011362	42012	109223	0	0	8297	546911	0	0
2024-06-13 10:12:32			0	38166	0	0	0	24968	23560	134584	27267	1011362	42023	109228	0	0	8295	548197	0	0
2024-06-13 10:13:32			0	38174	0	0	0	24968	23570	134636	27526	1011398	42024	109228	0	0	8296	547854	0	0
2024-06-13 10:14:32			0	38163	0	0	0	24963	23560	134740	27095	1011354	42012	109226	0	0	8295	548314	0	0
2024-06-13 10:15:32			0	38157	0	0	0	24968	23570	134676	27053	1011371	42024	109228	0	0	8295	548517	0	0
2024-06-13 10:16:32			0	38140	0	0	0	24955	23560	134712	27486	1011362	42023	109223	0	0	8294	549211	0	0
2024-06-13 10:17:32			0	38127	0	0	0	24953	23550	134704	27220	1011256	42022	109222	0	0	8293	549750	0	0
2024-06-13 10:18:32			0	38127	0	0	0	24937	23550	134744	27244	1011265	42011	109216	0	0	8294	549750	0	0
2024-06-13 10:19:32			0	38140	0	0	0	24937	23550	134680	27131	1011238	42022	109216	0	0	8294	549242	0	0
2024-06-13 10:20:32			0	38127	0	0	0	24929	23540	134772	27222	1011248	42010	109213	0	0	8294	549781	0	0
2024-06-13 10:21:32			0	38100	0	0	0	24942	23560	134884	27261	1011274	42012	109218	0	0	8292	550774	0	0
2024-06-13 10:22:32			0	38108	0	0	0	24940	23540	134900	27258	1011248	42010	109217	0	0	8293	550523	0	0
2024-06-13 10:23:32			0	38121	0	0	0	24940	23540	134840	27454	1011248	42022	109217	0	0	8293	550015	0	0
2024-06-13 10:24:32			0	38095	0	0	0	24942	23550	134920	27258	1011256	42010	109218	0	0	8292	551000	0	0
2024-06-13 10:25:32			0	38083	0	0	0	24955	23540	134832	27173	1011301	42010	109223	0	0	8291	551501	0	0
2024-06-13 10:26:32			0	38088	0	0	0	24953	23540	134896	26928	1011275	42022	109222	0	0	8291	551305	0	0
2024-06-13 10:27:32			0	38084	0	0	0	24948	23540	134896	27090	1011275	42022	109220	0	0	8291	551462	0	0
2024-06-13 10:28:32			0	38075	0	0	0	24955	23550	134996	26972	1011292	42011	109223	0	0	8291	551783	0	0
2024-06-13 10:29:32			0	38068	0	0	0	24950	23540	134864	27192	1011239	42010	109221	0	0	8290	552088	0	0
2024-06-13 10:30:32			0	38074	0	0	0	24948	23550	134964	27100	1011318	42011	109220	0	0	8291	551822	0	0
2024-06-13 10:31:32			0	38089	0	0	0	24948	23540	134960	27144	1011266	42033	109220	0	0	8291	551266	0	0
2024-06-13 10:32:32			0	38067	0	0	0	24937	23540	135000	27308	1011221	42022	109216	0	0	8291	552127	0	0
2024-06-13 10:33:32			0	38079	0	0	0	24935	23530	135020	27137	1011204	42009	109215	0	0	8291	551689	0	0
2024-06-13 10:34:32			0	38067	0	0	0	24927	23540	135044	27085	1011213	42000	109212	0	0	8291	552127	0	0
2024-06-13 10:35:32			0	38065	0	0	0	24927	23540	134984	26946	1011213	42010	109212	0	0	8291	552206	0	0
2024-06-13 10:36:32			0	38056	0	0	0	24919	23540	135016	27138	1011186	42010	109209	0	0	8290	552559	0	0
2024-06-13 10:37:32			0	38079	0	0	0	24924	23530	135020	27241	1011196	42020	109211	0	0	8291	551689	0	0
2024-06-13 10:38:32			0	38080	0	0	0	24937	23540	135012	27237	1011266	42010	109216	0	0	8291	551618	0	0
2024-06-13 10:39:32			0	38070	0	0	0	24948	23530	135024	27279	1011284	42021	109220	0	0	8290	552041	0	0
2024-06-13 10:40:32			0	38052	0	0	0	24945	23540	135004	27043	1011266	42022	109219	0	0	8290	552715	0	0
2024-06-13 10:41:32			0	38049	0	0	0	24953	23540	135036	27102	1011275	42010	109222	0	0	8289	552833	0	0
2024-06-13 10:42:32			0	38054	0	0	0	24958	23540	135004	27239	1011275	42022	109224	0	0	8290	552637	0	0
2024-06-13 10:43:32			0	38058	0	0	0	24961	23540	135016	27031	1011266	42022	109225	0	0	8290	552480	0	0
2024-06-13 10:44:32			0	38057	0	0	0	24958	23550	135000	27319	1011256	42010	109224	0	0	8290	552488	0	0
2024-06-13 10:45:32			0	38053	0	0	0	24961	23540	135080	27199	1011266	42022	109225	0	0	8289	552676	0	0
2024-06-13 10:46:32			0	38052	0	0	0	24958	23550	134972	27260	1011318	42022	109224	0	0	8289	552684	0	0
2024-06-13 10:47:32			0	38063	0	0	0	24961	23540	135000	26915	1011301	42033	109225	0	0	8290	552284	0	0
2024-06-13 10:48:32			0	38040	0	0	0	24958	23550	135008	27121	1011372	42000	109224	0	0	8289	553155	0	0
2024-06-13 10:49:32			0	38052	0	0	0	24955	23550	135020	27159	1011318	42022	109223	0	0	8289	552684	0	0
2024-06-13 10:50:32			0	38058	0	0	0	24955	23550	135072	27644	1011292	42011	109223	0	0	8290	552449	0	0
2024-06-13 10:51:32			0	38072	0	0	0	24958	23550	134996	27222	1011256	42010	109224	0	0	8290	551901	0	0
2024-06-13 10:52:32			0	38049	0	0	0	24953	23540	135076	27450	1011248	42000	109222	0	0	8289	552833	0	0
2024-06-13 10:53:32			0	38083	0	0	0	24955	23550	134948	27194	1011292	42011	109223	0	0	8291	551470	0	0
2024-06-13 10:54:32			0	38057	0	0	0	24953	23550	134984	26972	1011283	42022	109222	0	0	8290	552488	0	0
2024-06-13 10:55:32			0	38036	0	0	0	24948	23550	135072	27315	1011310	42010	109220	0	0	8289	553311	0	0
2024-06-13 10:56:32			0	38077	0	0	0	24950	23550	134992	27105	1011318	42022	109221	0	0	8291	551705	0	0
2024-06-13 10:57:32			0	38064	0	0	0	24955	23550	135060	27331	1011318	42022	109223	0	0	8290	552214	0	0
2024-06-13 10:58:32			0	38074	0	0	0	24963	23560	135032	27268	1011300	42012	109226	0	0	8291	551791	0	0
2024-06-13 10:59:32			0	38062	0	0	0	24971	23560	135120	27317	1011354	42023	109229	0	0	8290	552261	0	0
2024-06-13 11:00:32			0	38063	0	0	0	24971	23570	135048	27126	1011344	42024	109229	0	0	8290	552191	0	0
2024-06-13 11:01:32			0	38062	0	0	0	24971	23560	135076	27371	1011336	42023	109229	0	0	8290	552261	0	0
2024-06-13 11:02:32			0	38067	0	0	0	24979	23560	135024	27346	1011380	42023	109232	0	0	8290	552065	0	0
2024-06-13 11:03:32			0	38065	0	0	0	24976	23580	134956	27327	1011442	42025	109231	0	0	8290	552082	0	0
2024-06-13 11:04:32			0	38057	0	0	0	24992	23570	135016	27514	1011425	42024	109237	0	0	8289	552426	0	0
2024-06-13 11:05:32			0	38051	0	0	0	24992	23570	134996	26911	1011460	42024	109237	0	0	8289	552661	0	0
2024-06-13 11:06:32			0	38080	0	0	0	24992	23580	134992	27060	1011495	42025	109237	0	0	8290	551494	0	0
2024-06-13 11:07:32			0	38064	0	0	0	24999	23580	134928	27365	1011504	42025	109240	0	0	8289	552121	0	0
2024-06-13 11:08:32			0	38083	0	0	0	24997	23580	134928	27026	1011495	42036	109239	0	0	8291	551377	0	0
2024-06-13 11:09:32			0	38066	0	0	0	25002	23580	134948	27460	1011424	42036	109241	0	0	8290	552042	0	0
2024-06-13 11:10:32			0	38074	0	0	0	24999	23580	134924	27350	1011442	42036	109240	0	0	8290	551729	0	0
2024-06-13 11:11:32			0	38071	0	0	0	25007	23580	134908	27272	1011531	42003	109243	0	0	8290	551847	0	0
2024-06-13 11:12:32			0	38091	0	0	0	25002	23590	134940	27123	1011494	42015	109241	0	0	8291	551033	0	0
2024-06-13 11:13:32			0	38077	0	0	0	25002	23590	134900	27473	1011432	42037	109241	0	0	8290	551581	0	0
2024-06-13 11:14:32			0	38094	0	0	0	25007	23580	134896	27232	1011477	42025	109243	0	0	8291	550947	0	0
2024-06-13 11:15:32			0	38093	0	0	0	25002	23600	134936	27268	1011476	42016	109241	0	0	8291	550924	0	0
2024-06-13 11:16:32			0	38078	0	0	0	25007	23590	134900	27315	1011539	42037	109243	0	0	8290	551542	0	0
2024-06-13 11:17:32			0	38069	0	0	0	25002	23610	134928	26935	1011547	42028	109241	0	0	8290	551832	0	0
2024-06-13 11:18:32			0	38097	0	0	0	25005	23580	134820	27528	1011504	42025	109242	0	0	8291	550829	0	0
2024-06-13 11:19:32			0	38103	0	0	0	25005	23600	134892	26987	1011476	42027	109242	0	0	8291	550533	0	0
2024-06-13 11:20:32			0	38107	0	0	0	25005	23600	134816	27170	1011476	42038	109242	0	0	8292	550376	0	0
2024-06-13 11:21:32			0	38085	0	0	0	24994	23580	134796	27369	1011531	42014	109238	0	0	8291	551299	0	0
2024-06-13 11:22:32			0	38101	0	0	0	24997	23600	134920	27395	1011511	42049	109239	0	0	8292	550611	0	0
2024-06-13 11:23:32			0	38126	0	0	0	25005	23590	134804	27116	1011494	42026	109242	0	0	8293	549665	0	0
2024-06-13 11:24:32			0	38085	0	0	0	25002	23590	134916	27244	1011494	42037	109241	0	0	8291	551268	0	0
2024-06-13 11:25:32			0	38118	0	0	0	24997	23590	134708	27353	1011486	42015	109239	0	0	8292	549977	0	0
2024-06-13 11:26:32			0	38112	0	0	0	24994	23590	134864	26974	1011406	42003	109238	0	0	8292	550212	0	0
2024-06-13 11:27:32			0	38133	0	0	0	24974	23580	134712	27322	1011317	42014	109230	0	0	8293	549423	0	0
2024-06-13 11:28:32			0	38122	0	0	0	24942	23570	134696	27232	1011264	41991	109218	0	0	8293	549883	0	0
2024-06-13 11:29:32			0	38138	0	0	0	24903	23550	134764	27019	1011150	42000	109203	0	0	8295	549320	0	0
2024-06-13 11:30:32			0	38145	0	0	0	24872	23540	134676	27253	1011088	42010	109191	0	0	8296	549078	0	0
2024-06-13 11:31:32			0	38147	0	0	0	24862	23520	134640	27138	1011000	41987	109187	0	0	8296	549061	0	0
2024-06-13 11:32:32			0	38154	0	0	0	24849	23520	134608	27332	1010965	41997	109182	0	0	8296	548788	0	0
2024-06-13 11:33:32			0	38156	0	0	0	24838	23500	134612	27176	1010966	41996	109178	0	0	8297	548772	0	0
2024-06-13 11:34:32			0	38184	0	0	0	24825	23490	134656	27287	1010860	41994	109173	0	0	8298	547711	0	0
2024-06-13 11:35:32			0	38182	0	0	0	24823	23490	134648	27502	1010807	42005	109172	0	0	8298	547789	0	0
2024-06-13 11:36:32			0	38175	0	0	0	24810	23480	134636	27180	1010790	42004	109167	0	0	8298	548092	0	0
2024-06-13 11:37:32			0	38178	0	0	0	24815	23460	134672	27209	1010711	42003	109169	0	0	8298	548037	0	0
2024-06-13 11:38:32			0	38176	0	0	0	24792	23440	134620	27190	1010685	42001	109160	0	0	8298	548177	0	0
2024-06-13 11:39:32			0	38185	0	0	0	24776	23440	134576	27398	1010623	42011	109154	0	0	8299	547825	0	0
2024-06-13 11:40:32			0	38185	0	0	0	24761	23420	134632	27235	1010509	41977	109148	0	0	8299	547887	0	0
2024-06-13 11:41:32			0	38191	0	0	0	24735	23390	134604	27495	1010359	41975	109138	0	0	8300	547745	0	0
2024-06-13 11:42:32			0	38189	0	0	0	24706	23380	134564	27241	1010253	41984	109127	0	0	8300	547854	0	0
2024-06-13 11:43:32			0	38203	0	0	0	24680	23360	134604	27559	1010201	41994	109117	0	0	8301	547370	0	0
2024-06-13 11:44:32			0	38225	0	0	0	24670	23350	134580	27166	1010202	42003	109113	0	0	8302	546544	0	0
2024-06-13 11:45:32			0	38232	0	0	0	24654	23340	134548	27060	1010185	41980	109107	0	0	8303	546302	0	0
2024-06-13 11:46:32			0	38281	0	0	0	24651	23320	134388	26977	1010124	41967	109106	0	0	8306	544458	0	0
2024-06-13 11:47:32			0	38333	0	0	0	24659	23320	134140	27402	1010098	41978	109109	0	0	8308	542440	0	0
2024-06-13 11:48:32			0	38409	0	0	0	24670	23310	133976	26979	1010115	41978	109113	0	0	8312	539530	0	0
2024-06-13 11:49:32			0	38454	0	0	0	24677	23300	133848	27396	1010152	41988	109116	0	0	8314	537823	0	0
2024-06-13 11:50:32			0	38499	0	0	0	24683	23300	133620	26906	1010152	42000	109118	0	0	8316	536090	0	0
2024-06-13 11:51:32			0	38557	0	0	0	24693	23320	133360	27300	1010124	41989	109122	0	0	8319	533801	0	0
2024-06-13 11:52:32			0	38587	0	0	0	24693	23310	133404	27497	1010062	41978	109122	0	0	8321	532680	0	0
2024-06-13 11:53:32			0	38598	0	0	0	24690	23290	133344	27350	1010135	41976	109121	0	0	8321	532319	0	0
2024-06-13 11:54:32			0	38620	0	0	0	24698	23300	133248	27098	1010152	41977	109124	0	0	8322	531446	0	0
2024-06-13 11:55:32			0	38622	0	0	0	24716	23290	133352	27183	1010135	41999	109131	0	0	8322	531399	0	0
2024-06-13 11:56:32			0	38616	0	0	0	24727	23310	133368	27100	1010320	42011	109135	0	0	8322	531569	0	0
2024-06-13 11:57:32			0	38577	0	0	0	24763	23320	133432	27235	1010426	42012	109149	0	0	8319	533034	0	0
2024-06-13 11:58:32			0	38570	0	0	0	24786	23330	133480	27192	1010550	42024	109158	0	0	8318	533272	0	0
2024-06-13 11:59:32			0	38560	0	0	0	24825	23350	133508	27289	1010691	42026	109173	0	0	8317	533596	0	0
2024-06-13 12:00:32			0	38528	0	0	0	24851	23370	133516	27034	1010744	42028	109183	0	0	8315	534765	0	0
2024-06-13 12:01:32			0	38514	0	0	0	24864	23390	133612	27362	1010751	42018	109188	0	0	8314	535242	0	0
2024-06-13 12:02:32			0	38498	0	0	0	24870	23390	133712	27341	1010706	42019	109190	0	0	8313	535857	0	0
2024-06-13 12:03:32			0	38474	0	0	0	24872	23390	133732	27196	1010786	42019	109191	0	0	8312	536781	0	0
2024-06-13 12:04:32			0	38483	0	0	0	24880	23410	133808	27097	1010812	42009	109194	0	0	8312	536374	0	0
2024-06-13 12:05:32			0	38472	0	0	0	24885	23400	133816	27161	1010741	42008	109196	0	0	8312	536828	0	0
2024-06-13 12:06:32			0	38442	0	0	0	24872	23410	133776	27064	1010705	42009	109191	0	0	8311	537954	0	0
2024-06-13 12:07:32			0	38437	0	0	0	24859	23410	133800	27274	1010678	42009	109186	0	0	8310	538146	0	0
2024-06-13 12:08:32			0	38436	0	0	0	24849	23400	133784	27235	1010715	41998	109182	0	0	8311	538215	0	0
2024-06-13 12:09:32			0	38438	0	0	0	24849	23380	133880	27150	1010636	41996	109182	0	0	8311	538199	0	0
2024-06-13 12:10:32			0	38427	0	0	0	24836	23390	133864	27216	1010626	42019	109177	0	0	8310	538593	0	0
2024-06-13 12:11:32			0	38441	0	0	0	24831	23380	133812	26935	1010609	41996	109175	0	0	8311	538083	0	0
2024-06-13 12:12:32			0	38463	0	0	0	24815	23380	133840	27104	1010582	42017	109169	0	0	8312	537235	0	0
2024-06-13 12:13:32			0	38455	0	0	0	24823	23390	133832	27130	1010591	41997	109172	0	0	8312	537513	0	0
2024-06-13 12:14:32			0	38445	0	0	0	24818	23390	133824	27258	1010599	42008	109170	0	0	8311	537898	0	0
2024-06-13 12:15:32			0	38444	0	0	0	24828	23390	133820	27277	1010706	42019	109174	0	0	8311	537937	0	0
2024-06-13 12:16:32			0	38446	0	0	0	24854	23400	133836	27298	1010768	42019	109184	0	0	8311	537830	0	0
2024-06-13 12:17:32			0	38446	0	0	0	24867	23410	133872	27159	1010812	42020	109189	0	0	8311	537799	0	0
2024-06-13 12:18:32			0	38448	0	0	0	24875	23410	133840	27013	1010847	42010	109192	0	0	8311	537722	0	0
2024-06-13 12:19:32			0	38438	0	0	0	24888	23430	133772	27060	1010873	42033	109197	0	0	8310	538047	0	0
2024-06-13 12:20:32			0	38435	0	0	0	24888	23430	133744	27145	1010855	42023	109197	0	0	8310	538163	0	0
2024-06-13 12:21:32			0	38456	0	0	0	24890	23440	133752	27124	1010970	42011	109198	0	0	8311	537323	0	0
2024-06-13 12:22:32			0	38477	0	0	0	24888	23440	133712	26765	1010997	42011	109197	0	0	8312	536515	0	0
2024-06-13 12:23:32			0	38491	0	0	0	24901	23440	133720	26835	1011032	42024	109202	0	0	8313	535976	0	0
2024-06-13 12:24:32			0	38486	0	0	0	24906	23460	133772	27074	1011004	42014	109204	0	0	8312	536108	0	0
2024-06-13 12:25:32			0	38466	0	0	0	24906	23460	133712	26989	1011058	42047	109204	0	0	8311	536878	0	0
2024-06-13 12:26:32			0	38458	0	0	0	24922	23480	133700	27098	1011119	42016	109210	0	0	8311	537126	0	0
2024-06-13 12:27:32			0	38479	0	0	0	24924	23480	133628	27048	1011057	42026	109211	0	0	8312	536317	0	0
2024-06-13 12:28:32			0	38476	0	0	0	24922	23480	133632	27170	1011145	42016	109210	0	0	8312	536433	0	0
2024-06-13 12:29:32			0	38484	0	0	0	24919	23490	133624	26993	1011163	42028	109209	0	0	8312	536095	0	0
2024-06-13 12:30:32			0	38486	0	0	0	24929	23500	133596	27486	1011144	42028	109213	0	0	8312	535988	0	0
2024-06-13 12:31:32			0	38497	0	0	0	24935	23500	133640	27303	1011126	42029	109215	0	0	8313	535565	0	0
2024-06-13 12:32:32			0	38488	0	0	0	24932	23500	133552	27105	1011206	42029	109214	0	0	8312	535911	0	0
2024-06-13 12:33:32			0	38494	0	0	0	24935	23520	133656	27364	1011205	42030	109215	0	0	8313	535620	0	0
2024-06-13 12:34:32			0	38494	0	0	0	24932	23520	133640	27223	1011232	42030	109214	0	0	8313	535620	0	0
2024-06-13 12:35:32			0	38479	0	0	0	24940	23510	133544	27116	1011135	42007	109217	0	0	8312	536227	0	0
2024-06-13 12:36:32			0	38486	0	0	0	24935	23520	133576	27206	1011205	42019	109215	0	0	8312	535927	0	0
2024-06-13 12:37:32			0	38510	0	0	0	24940	23520	133476	27396	1011232	42007	109217	0	0	8313	535005	0	0
2024-06-13 12:38:32			0	38506	0	0	0	24935	23520	133496	27305	1011241	42020	109215	0	0	8313	535159	0	0
2024-06-13 12:39:32			0	38509	0	0	0	24940	23520	133596	27521	1011259	42030	109217	0	0	8313	535043	0	0
2024-06-13 12:40:32			0	38502	0	0	0	24937	23520	133608	27495	1011241	42020	109216	0	0	8313	535312	0	0
2024-06-13 12:41:32			0	38502	0	0	0	24940	23520	133508	27313	1011205	42007	109217	0	0	8313	535312	0	0
2024-06-13 12:42:32			0	38508	0	0	0	24935	23530	133540	27402	1011204	42021	109215	0	0	8313	535052	0	0
2024-06-13 12:43:32			0	38503	0	0	0	24935	23530	133628	27338	1011222	42031	109215	0	0	8313	535244	0	0
2024-06-13 12:44:32			0	38486	0	0	0	24945	23530	133544	27234	1011249	42020	109219	0	0	8312	535897	0	0
2024-06-13 12:45:32			0	38485	0	0	0	24940	23540	133568	26838	1011266	42033	109217	0	0	8312	535906	0	0
2024-06-13 12:46:32			0	38473	0	0	0	24935	23530	133596	27244	1011249	42008	109215	0	0	8312	536397	0	0
2024-06-13 12:47:32			0	38471	0	0	0	24942	23530	133648	27518	1011311	42021	109218	0	0	8311	536474	0	0
2024-06-13 12:48:32			0	38484	0	0	0	24945	23530	133748	27498	1011284	42021	109219	0	0	8312	535974	0	0
2024-06-13 12:49:32			0	38432	0	0	0	24948	23530	133576	27386	1011276	42008	109220	0	0	8309	537976	0	0
2024-06-13 12:50:32			0	38450	0	0	0	24940	23530	133832	27332	1011231	42032	109217	0	0	8310	537283	0	0
2024-06-13 12:51:32			0	38423	0	0	0	24950	23530	133756	27206	1011258	42032	109221	0	0	8309	538323	0	0
2024-06-13 12:52:32			0	38429	0	0	0	24945	23540	133872	26930	1011266	42043	109219	0	0	8309	538061	0	0
2024-06-13 12:53:32			0	38407	0	0	0	24940	23540	133844	27123	1011266	42010	109217	0	0	8308	538910	0	0
2024-06-13 12:54:32			0	38387	0	0	0	24945	23540	133912	27357	1011239	42022	109219	0	0	8307	539682	0	0
2024-06-13 12:55:32			0	38366	0	0	0	24940	23540	133944	27270	1011275	42010	109217	0	0	8306	540493	0	0
2024-06-13 12:56:32			0	38331	0	0	0	24942	23540	134132	27164	1011266	42033	109218	0	0	8304	541847	0	0
2024-06-13 12:57:32			0	38303	0	0	0	24937	23530	134228	27308	1011284	42032	109216	0	0	8303	542962	0	0
2024-06-13 12:58:32			0	38292	0	0	0	24942	23530	134232	27454	1011258	42009	109218	0	0	8302	543389	0	0
2024-06-13 12:59:32			0	38268	0	0	0	24945	23540	134320	27123	1011239	42033	109219	0	0	8301	544290	0	0
2024-06-13 13:00:32			0	38236	0	0	0	24935	23530	134372	27256	1011276	42008	109215	0	0	8299	545563	0	0
2024-06-13 13:01:32			0	38202	0	0	0	24942	23540	134528	27376	1011301	42022	109218	0	0	8297	546856	0	0
2024-06-13 13:02:32			0	38186	0	0	0	24942	23540	134644	27225	1011239	42010	109218	0	0	8297	547479	0	0
2024-06-13 13:03:32			0	38148	0	0	0	24948	23550	134708	27376	1011256	42033	109220	0	0	8295	548930	0	0
2024-06-13 13:04:32			0	38099	0	0	0	24942	23540	134760	27258	1011239	42033	109218	0	0	8292	550875	0	0
2024-06-13 13:05:32			0	38101	0	0	0	24942	23540	134860	27319	1011239	42033	109218	0	0	8292	550797	0	0
2024-06-13 13:06:32			0	38061	0	0	0	24950	23540	135012	27163	1011301	42033	109221	0	0	8290	552362	0	0
2024-06-13 13:07:32			0	38038	0	0	0	24940	23540	135044	27203	1011301	42010	109217	0	0	8289	553264	0	0
2024-06-13 13:08:32			0	37983	0	0	0	24937	23540	135179	27471	1011301	42033	109216	0	0	8286	555424	0	0
2024-06-13 13:09:32			0	37976	0	0	0	24940	23540	135335	27391	1011275	42022	109217	0	0	8286	555699	0	0
2024-06-13 13:10:32			0	37948	0	0	0	24942	23550	135447	27043	1011292	42022	109218	0	0	8284	556770	0	0
2024-06-13 13:11:32			0	37922	0	0	0	24948	23550	135423	27156	1011265	42022	109220	0	0	8283	557794	0	0
2024-06-13 13:12:32			0	37887	0	0	0	24942	23550	135547	27175	1011310	42022	109218	0	0	8281	559175	0	0
2024-06-13 13:13:32			0	37873	0	0	0	24945	23550	135555	27142	1011283	42022	109219	0	0	8280	559728	0	0
2024-06-13 13:14:32			0	37837	0	0	0	24953	23550	135703	27229	1011283	42022	109222	0	0	8278	561151	0	0
2024-06-13 13:15:32			0	37834	0	0	0	24945	23560	135811	27253	1011354	42012	109219	0	0	8278	561239	0	0
2024-06-13 13:16:32			0	37784	0	0	0	24948	23560	135959	27133	1011380	42012	109220	0	0	8276	563219	0	0
2024-06-13 13:17:32			0	37771	0	0	0	24948	23550	135995	27192	1011292	42022	109220	0	0	8275	563767	0	0
2024-06-13 13:18:32			0	37754	0	0	0	24942	23540	136059	27336	1011301	42022	109218	0	0	8274	564474	0	0
2024-06-13 13:19:32			0	37725	0	0	0	24950	23550	136103	27085	1011310	42022	109221	0	0	8273	565595	0	0
2024-06-13 13:20:32			0	37715	0	0	0	24953	23550	136303	27348	1011310	42022	109222	0	0	8272	565992	0	0
2024-06-13 13:21:32			0	37701	0	0	0	24945	23540	136359	27478	1011320	42010	109219	0	0	8271	566582	0	0
2024-06-13 13:22:32			0	37675	0	0	0	24950	23550	136391	27329	1011310	42010	109221	0	0	8270	567586	0	0
2024-06-13 13:23:32			0	37647	0	0	0	24942	23560	136463	27192	1011300	42001	109218	0	0	8269	568670	0	0
2024-06-13 13:24:32			0	37649	0	0	0	24948	23550	136491	27152	1011337	42010	109220	0	0	8269	568623	0	0
2024-06-13 13:25:32			0	37606	0	0	0	24950	23550	136475	27111	1011345	42011	109221	0	0	8266	570340	0	0
2024-06-13 13:26:32			0	37599	0	0	0	24950	23550	136635	27022	1011318	42011	109221	0	0	8266	570620	0	0
2024-06-13 13:27:32			0	37582	0	0	0	24945	23550	136667	27294	1011292	42011	109219	0	0	8265	571300	0	0
2024-06-13 13:28:32			0	37570	0	0	0	24955	23560	136735	27064	1011327	42035	109223	0	0	8265	571749	0	0
2024-06-13 13:29:32			0	37570	0	0	0	24953	23550	136811	27111	1011363	42022	109222	0	0	8265	571781	0	0
2024-06-13 13:30:32			0	37554	0	0	0	24955	23560	136783	26951	1011327	42023	109223	0	0	8264	572390	0	0
2024-06-13 13:31:32			0	37553	0	0	0	24955	23550	136803	27180	1011345	42022	109223	0	0	8264	572462	0	0
2024-06-13 13:32:32			0	37512	0	0	0	24958	23560	136911	27064	1011354	42023	109224	0	0	8261	574075	0	0
2024-06-13 13:33:32			0	37529	0	0	0	24953	23560	136919	27211	1011336	42012	109222	0	0	8262	573392	0	0
2024-06-13 13:34:32			0	37503	0	0	0	24955	23560	136947	27128	1011327	42023	109223	0	0	8261	574436	0	0
2024-06-13 13:35:32			0	37505	0	0	0	24958	23560	136999	26958	1011354	42023	109224	0	0	8261	574356	0	0
2024-06-13 13:36:32			0	37493	0	0	0	24958	23550	137039	27038	1011337	42022	109224	0	0	8260	574870	0	0
2024-06-13 13:37:32			0	37475	0	0	0	24966	23560	136983	27246	1011416	42012	109227	0	0	8259	575562	0	0
2024-06-13 13:38:32			0	37470	0	0	0	24961	23560	137063	27222	1011336	42035	109225	0	0	8259	575763	0	0
2024-06-13 13:39:32			0	37472	0	0	0	24968	23560	137083	27107	1011442	42035	109228	0	0	8259	575682	0	0
2024-06-13 13:40:32			0	37464	0	0	0	24971	23560	137171	27105	1011416	42012	109229	0	0	8259	576004	0	0
2024-06-13 13:41:32			0	37434	0	0	0	24971	23570	137171	27291	1011398	42024	109229	0	0	8257	577180	0	0
2024-06-13 13:42:32			0	37438	0	0	0	24961	23570	137207	27150	1011406	42002	109225	0	0	8258	577019	0	0
2024-06-13 13:43:32			0	37437	0	0	0	24966	23570	137219	27196	1011398	42013	109227	0	0	8257	577059	0	0
2024-06-13 13:44:32			0	37423	0	0	0	24971	23570	137255	27239	1011433	42013	109229	0	0	8257	577623	0	0
2024-06-13 13:45:32			0	37424	0	0	0	24974	23560	137191	27001	1011434	42012	109230	0	0	8257	577616	0	0
2024-06-13 13:46:32			0	37418	0	0	0	24968	23570	137263	27123	1011451	42013	109228	0	0	8256	577825	0	0
2024-06-13 13:47:32			0	37405	0	0	0	24976	23570	137239	26991	1011451	42036	109231	0	0	8256	578349	0	0
2024-06-13 13:48:32			0	37407	0	0	0	24974	23560	137255	27396	1011442	42035	109230	0	0	8256	578301	0	0
2024-06-13 13:49:32			0	37403	0	0	0	24976	23580	137303	27416	1011469	42025	109231	0	0	8256	578398	0	0
2024-06-13 13:50:32			0	37403	0	0	0	24979	23560	137343	27178	1011416	42023	109232	0	0	8255	578463	0	0
2024-06-13 13:51:32			0	37389	0	0	0	24984	23570	137339	27133	1011486	42013	109234	0	0	8255	578995	0	0
2024-06-13 13:52:32			0	37402	0	0	0	24979	23580	137371	27166	1011495	42014	109232	0	0	8255	578438	0	0
2024-06-13 13:53:32			0	37391	0	0	0	24984	23570	137439	27059	1011513	42036	109234	0	0	8255	578914	0	0
2024-06-13 13:54:32			0	37393	0	0	0	24984	23570	137395	27098	1011433	42024	109234	0	0	8255	578834	0	0
2024-06-13 13:55:32			0	37368	0	0	0	24986	23580	137363	27081	1011477	42036	109235	0	0	8254	579811	0	0
2024-06-13 13:56:32			0	37393	0	0	0	24997	23590	137375	27067	1011486	42026	109239	0	0	8255	578769	0	0
2024-06-13 13:57:32			0	37366	0	0	0	24989	23570	137379	26779	1011540	42013	109236	0	0	8253	579924	0	0
2024-06-13 13:58:32			0	37387	0	0	0	24997	23590	137463	26955	1011566	42026	109239	0	0	8254	579011	0	0
2024-06-13 13:59:32			0	37374	0	0	0	25002	23590	137391	27286	1011459	42037	109241	0	0	8254	579536	0	0
2024-06-13 14:00:32			0	37375	0	0	0	24994	23580	137355	27187	1011531	42036	109238	0	0	8254	579528	0	0
2024-06-13 14:01:32			0	37381	0	0	0	24999	23590	137419	27244	1011601	42037	109240	0	0	8254	579253	0	0
2024-06-13 14:02:32			0	37360	0	0	0	25015	23580	137463	26991	1011557	42025	109246	0	0	8253	580134	0	0
2024-06-13 14:03:32			0	37364	0	0	0	25012	23600	137367	27341	1011610	42027	109245	0	0	8253	579907	0	0
2024-06-13 14:04:32			0	37360	0	0	0	25012	23590	137415	27192	1011574	42026	109245	0	0	8253	580102	0	0
2024-06-13 14:05:32			0	37347	0	0	0	25012	23590	137347	27229	1011601	42037	109245	0	0	8252	580627	0	0
2024-06-13 14:06:32			0	37361	0	0	0	25007	23600	137383	27050	1011565	42039	109243	0	0	8253	580029	0	0
2024-06-13 14:07:32			0	37373	0	0	0	25012	23600	137399	27175	1011672	42039	109245	0	0	8253	579544	0	0
2024-06-13 14:08:32			0	37351	0	0	0	25010	23590	137351	27308	1011574	42026	109244	0	0	8252	580466	0	0
2024-06-13 14:09:32			0	37380	0	0	0	25015	23610	137371	27308	1011627	42039	109246	0	0	8254	579228	0	0
2024-06-13 14:10:32			0	37363	0	0	0	25025	23600	137403	27559	1011556	42038	109250	0	0	8253	579948	0	0
2024-06-13 14:11:32			0	37366	0	0	0	25005	23610	137283	27561	1011653	42028	109242	0	0	8253	579794	0	0
2024-06-13 14:12:32			0	37377	0	0	0	25012	23600	137315	27497	1011698	42017	109245	0	0	8254	579382	0	0
2024-06-13 14:13:32			0	37373	0	0	0	25012	23600	137367	27407	1011645	42039	109245	0	0	8253	579544	0	0
2024-06-13 14:14:32			0	37364	0	0	0	25020	23620	137335	27391	1011644	42029	109248	0	0	8253	579842	0	0
2024-06-13 14:15:32			0	37362	0	0	0	25020	23620	137383	27431	1011671	42040	109248	0	0	8253	579923	0	0
2024-06-13 14:16:32			0	37360	0	0	0	25020	23610	137411	27092	1011582	42017	109248	0	0	8253	580036	0	0
2024-06-13 14:17:32			0	37354	0	0	0	25020	23610	137351	27293	1011689	42028	109248	0	0	8252	580279	0	0
2024-06-13 14:18:32			0	37376	0	0	0	25031	23620	137343	27410	1011617	42029	109252	0	0	8253	579357	0	0
2024-06-13 14:19:32			0	37363	0	0	0	25020	23620	137407	27429	1011652	42041	109248	0	0	8253	579883	0	0
2024-06-13 14:20:32			0	37371	0	0	0	25025	23620	137419	27263	1011724	42017	109250	0	0	8253	579559	0	0
2024-06-13 14:21:32			0	37349	0	0	0	25025	23620	137375	27083	1011697	42029	109250	0	0	8252	580449	0	0
2024-06-13 14:22:32			0	37357	0	0	0	25023	23630	137355	27353	1011688	42041	109249	0	0	8253	580093	0	0
2024-06-13 14:23:32			0	37369	0	0	0	25028	23620	137363	27388	1011706	42051	109251	0	0	8253	579640	0	0
2024-06-13 14:24:32			0	37350	0	0	0	25020	23620	137371	27291	1011671	42029	109248	0	0	8252	580408	0	0
2024-06-13 14:25:32			0	37361	0	0	0	25020	23620	137455	26934	1011679	42030	109248	0	0	8253	579963	0	0
2024-06-13 14:26:32			0	37375	0	0	0	25028	23620	137363	27275	1011652	42030	109251	0	0	8253	579398	0	0
2024-06-13 14:27:32			0	37360	0	0	0	25020	23620	137307	27008	1011759	42030	109248	0	0	8253	580004	0	0
2024-06-13 14:28:32			0	37363	0	0	0	25023	23620	137299	27149	1011724	42040	109249	0	0	8253	579883	0	0
2024-06-13 14:29:32			0	37394	0	0	0	25031	23630	137375	26904	1011768	42041	109252	0	0	8254	578598	0	0
2024-06-13 14:30:32			0	37378	0	0	0	25044	23630	137303	26996	1011768	42051	109257	0	0	8253	579244	0	0
2024-06-13 14:31:32			0	37385	0	0	0	25044	23630	137319	26953	1011795	42041	109257	0	0	8254	578961	0	0
2024-06-13 14:32:32			0	37375	0	0	0	25051	23640	137383	27305	1011838	42031	109260	0	0	8253	579333	0	0
2024-06-13 14:33:32			0	37391	0	0	0	25057	23640	137375	27336	1011847	42032	109262	0	0	8254	578687	0	0
2024-06-13 14:34:32			0	37370	0	0	0	25067	23660	137359	27194	1011953	42033	109266	0	0	8253	579469	0	0
2024-06-13 14:35:32			0	37371	0	0	0	25077	23650	137339	27138	1011917	42033	109270	0	0	8252	579462	0	0
2024-06-13 14:36:32			0	37393	0	0	0	25096	23670	137387	26889	1011996	42034	109277	0	0	8253	578508	0	0
2024-06-13 14:37:32			0	37379	0	0	0	25114	23670	137311	27315	1012077	42056	109284	0	0	8252	579073	0	0
2024-06-13 14:38:32			0	37369	0	0	0	25122	23680	137295	27211	1012094	42034	109287	0	0	8252	579445	0	0
2024-06-13 14:39:32			0	37378	0	0	0	25119	23690	137263	27300	1012084	42046	109286	0	0	8252	579049	0	0
2024-06-13 14:40:32			0	37373	0	0	0	25122	23690	137163	27180	1012093	42046	109287	0	0	8252	579250	0	0
2024-06-13 14:41:32			0	37380	0	0	0	25124	23700	137271	27234	1012101	42036	109288	0	0	8252	578935	0	0
2024-06-13 14:42:32			0	37393	0	0	0	25122	23700	137243	27159	1012101	42025	109287	0	0	8253	578410	0	0
2024-06-13 14:43:32			0	37374	0	0	0	25129	23710	137191	27180	1012119	42027	109290	0	0	8252	579145	0	0
2024-06-13 14:44:32			0	37380	0	0	0	25129	23700	137231	26854	1012110	42026	109290	0	0	8252	578935	0	0
2024-06-13 14:45:32			0	37377	0	0	0	25137	23710	137247	27076	1012199	42048	109293	0	0	8252	579024	0	0
2024-06-13 14:46:32			0	37381	0	0	0	25137	23710	137075	27313	1012252	42060	109293	0	0	8252	578862	0	0
2024-06-13 14:47:32			0	37406	0	0	0	25140	23720	137191	27112	1012278	42039	109294	0	0	8254	577821	0	0
2024-06-13 14:48:32			0	37403	0	0	0	25145	23720	137171	26918	1012278	42028	109296	0	0	8253	577942	0	0
2024-06-13 14:49:32			0	37406	0	0	0	25155	23740	137211	27144	1012303	42051	109300	0	0	8253	577756	0	0
2024-06-13 14:50:32			0	37398	0	0	0	25155	23740	137107	27280	1012330	42029	109300	0	0	8253	578079	0	0
2024-06-13 14:51:32			0	37402	0	0	0	25173	23750	137135	27246	1012374	42052	109307	0	0	8253	577885	0	0
2024-06-13 14:52:32			0	37396	0	0	0	25168	23750	137155	27124	1012374	42041	109305	0	0	8253	578127	0	0
2024-06-13 14:53:32			0	37395	0	0	0	25176	23760	137123	26868	1012356	42053	109308	0	0	8253	578135	0	0
2024-06-13 14:54:32			0	37411	0	0	0	25171	23760	137035	27128	1012391	42041	109306	0	0	8253	577490	0	0
2024-06-13 14:55:32			0	37396	0	0	0	25176	23770	137039	27517	1012373	42053	109308	0	0	8253	578062	0	0
2024-06-13 14:56:32			0	37428	0	0	0	25179	23770	137023	27239	1012426	42041	109309	0	0	8254	576772	0	0
2024-06-13 14:57:32			0	37416	0	0	0	25171	23760	137127	27298	1012364	42041	109306	0	0	8254	577288	0	0
2024-06-13 14:58:32			0	37438	0	0	0	25171	23770	137063	27192	1012355	42065	109306	0	0	8255	576370	0	0
2024-06-13 14:59:32			0	37404	0	0	0	25171	23770	137011	27398	1012373	42041	109306	0	0	8253	577739	0	0
2024-06-13 15:00:32			0	37428	0	0	0	25176	23780	137115	27298	1012390	42043	109308	0	0	8254	576740	0	0
2024-06-13 15:01:32			0	37440	0	0	0	25179	23770	137075	27353	1012381	42054	109309	0	0	8255	576289	0	0
2024-06-13 15:02:32			0	37439	0	0	0	25184	23780	137035	27308	1012497	42033	109311	0	0	8255	576297	0	0
2024-06-13 15:03:32			0	37428	0	0	0	25184	23780	136979	27402	1012497	42043	109311	0	0	8254	576740	0	0
2024-06-13 15:04:32			0	37441	0	0	0	25197	23790	137019	27192	1012576	42055	109316	0	0	8255	576184	0	0
2024-06-13 15:05:32			0	37449	0	0	0	25197	23790	136971	27355	1012469	42044	109316	0	0	8255	575862	0	0
2024-06-13 15:06:32			0	37448	0	0	0	25192	23790	136955	27286	1012541	42055	109314	0	0	8255	575902	0	0
2024-06-13 15:07:32			0	37451	0	0	0	25199	23790	136983	27331	1012514	42033	109317	0	0	8255	575782	0	0
2024-06-13 15:08:32			0	37468	0	0	0	25199	23790	136975	27137	1012567	42055	109317	0	0	8256	575099	0	0
2024-06-13 15:09:32			0	37459	0	0	0	25197	23800	136979	26968	1012478	42045	109316	0	0	8256	575428	0	0
2024-06-13 15:10:32			0	37456	0	0	0	25194	23800	136983	27256	1012558	42045	109315	0	0	8256	575548	0	0
2024-06-13 15:11:32			0	37461	0	0	0	25194	23800	136935	27124	1012585	42045	109315	0	0	8256	575348	0	0
2024-06-13 15:12:32			0	37458	0	0	0	25197	23790	136999	27218	1012594	42055	109316	0	0	8256	575500	0	0
2024-06-13 15:13:32			0	37455	0	0	0	25199	23800	136875	27197	1012531	42035	109317	0	0	8255	575589	0	0
2024-06-13 15:14:32			0	37484	0	0	0	25202	23800	136951	27211	1012620	42036	109318	0	0	8257	574423	0	0
2024-06-13 15:15:32			0	37465	0	0	0	25202	23810	137015	27171	1012602	42046	109318	0	0	8256	575154	0	0
2024-06-13 15:16:32			0	37472	0	0	0	25205	23800	136907	27538	1012620	42057	109319	0	0	8256	574905	0	0
2024-06-13 15:17:32			0	37482	0	0	0	25207	23810	136927	27301	1012628	42036	109320	0	0	8257	574472	0	0
2024-06-13 15:18:32			0	37481	0	0	0	25202	23810	136787	27422	1012602	42036	109318	0	0	8257	574512	0	0
2024-06-13 15:19:32			0	37496	0	0	0	25205	23820	136755	26953	1012566	42058	109319	0	0	8258	573877	0	0
2024-06-13 15:20:32			0	37496	0	0	0	25205	23810	136751	26970	1012610	42046	109319	0	0	8258	573909	0	0
2024-06-13 15:21:32			0	37492	0	0	0	25212	23810	136807	27074	1012682	42057	109322	0	0	8257	574070	0	0
2024-06-13 15:22:32			0	37495	0	0	0	25218	23830	136731	26984	1012645	42059	109324	0	0	8257	573885	0	0
2024-06-13 15:23:32			0	37498	0	0	0	25225	23820	136727	27320	1012708	42048	109327	0	0	8257	573797	0	0
2024-06-13 15:24:32			0	37511	0	0	0	25236	23830	136651	26993	1012805	42059	109331	0	0	8258	573243	0	0
2024-06-13 15:25:32			0	37518	0	0	0	25246	23840	136751	27215	1012822	42061	109335	0	0	8258	572930	0	0
2024-06-13 15:26:32			0	37532	0	0	0	25264	23860	136715	27059	1012928	42062	109342	0	0	8259	572305	0	0
2024-06-13 15:27:32			0	37519	0	0	0	25303	23870	136687	26977	1013052	42064	109357	0	0	8257	572793	0	0
2024-06-13 15:28:32			0	37502	0	0	0	25329	23870	136659	27369	1013114	42064	109367	0	0	8256	573475	0	0
2024-06-13 15:29:32			0	37513	0	0	0	25353	23900	136755	27230	1013183	42066	109376	0	0	8256	572937	0	0
2024-06-13 15:30:32			0	37523	0	0	0	25361	23900	136719	27072	1013245	42088	109379	0	0	8257	572536	0	0
2024-06-13 15:31:32			0	37521	0	0	0	25371	23920	136767	27383	1013226	42080	109383	0	0	8256	572552	0	0
2024-06-13 15:32:32			0	37529	0	0	0	25366	23930	136467	27057	1013181	42058	109381	0	0	8257	572199	0	0
2024-06-13 15:33:32			0	37530	0	0	0	25355	23920	136599	27225	1013173	42068	109377	0	0	8257	572192	0	0
2024-06-13 15:34:32			0	37524	0	0	0	25340	23930	136447	27222	1013181	42058	109371	0	0	8257	572399	0	0
2024-06-13 15:35:32			0	37546	0	0	0	25322	23930	136467	27374	1013048	42058	109364	0	0	8259	571519	0	0
2024-06-13 15:36:32			0	37525	0	0	0	25298	23910	136479	27289	1013022	42034	109355	0	0	8258	572424	0	0
2024-06-13 15:37:32			0	37542	0	0	0	25290	23910	136451	27144	1012960	42056	109352	0	0	8259	571743	0	0
2024-06-13 15:38:32			0	37541	0	0	0	25280	23900	136519	27357	1012916	42043	109348	0	0	8259	571815	0	0
2024-06-13 15:39:32			0	37540	0	0	0	25272	23880	136459	27241	1012917	42042	109345	0	0	8259	571920	0	0
2024-06-13 15:40:32			0	37556	0	0	0	25262	23890	136419	27220	1012899	42043	109341	0	0	8260	571248	0	0
2024-06-13 15:41:32			0	37559	0	0	0	25249	23880	136391	27100	1012864	42065	109336	0	0	8260	571160	0	0
2024-06-13 15:42:32			0	37562	0	0	0	25244	23870	136447	26955	1012820	42052	109334	0	0	8261	571072	0	0
2024-06-13 15:43:32			0	37582	0	0	0	25249	23870	136351	27067	1012793	42041	109336	0	0	8261	570272	0	0
2024-06-13 15:44:32			0	37569	0	0	0	25236	23870	136435	27128	1012812	42052	109331	0	0	8261	570792	0	0
2024-06-13 15:45:32			0	37573	0	0	0	25241	23870	136347	27280	1012785	42041	109333	0	0	8261	570632	0	0
2024-06-13 15:46:32			0	37585	0	0	0	25238	23860	136399	27355	1012856	42041	109332	0	0	8262	570185	0	0
2024-06-13 15:47:32			0	37585	0	0	0	25249	23860	136327	27339	1012856	42063	109336	0	0	8262	570185	0	0
2024-06-13 15:48:32			0	37599	0	0	0	25251	23870	136299	27303	1012785	42052	109337	0	0	8262	569593	0	0
2024-06-13 15:49:32			0	37592	0	0	0	25251	23860	136331	27291	1012856	42052	109337	0	0	8262	569905	0	0
2024-06-13 15:50:32			0	37592	0	0	0	25254	23860	136343	27008	1012803	42041	109338	0	0	8262	569905	0	0
2024-06-13 15:51:32			0	37618	0	0	0	25249	23870	136235	27121	1012838	42041	109336	0	0	8263	568835	0	0
2024-06-13 15:52:32			0	37622	0	0	0	25251	23870	136235	27041	1012838	42064	109337	0	0	8264	568675	0	0
2024-06-13 15:53:32			0	37599	0	0	0	25254	23870	136319	27126	1012900	42064	109338	0	0	8262	569593	0	0
2024-06-13 15:54:32			0	37602	0	0	0	25262	23870	136179	27414	1013007	42052	109341	0	0	8262	569474	0	0
2024-06-13 15:55:32			0	37619	0	0	0	25296	23890	136295	27414	1013113	42077	109354	0	0	8263	568731	0	0
2024-06-13 15:56:32			0	37611	0	0	0	25329	23910	136263	27131	1013227	42079	109367	0	0	8262	568986	0	0
2024-06-13 15:57:32			0	37624	0	0	0	25379	23920	136163	27462	1013306	42080	109386	0	0	8262	568436	0	0
2024-06-13 15:58:32			0	37611	0	0	0	25407	23950	136195	27163	1013465	42072	109397	0	0	8261	568858	0	0
2024-06-13 15:59:32			0	37621	0	0	0	25423	23950	136231	27225	1013465	42083	109403	0	0	8261	568459	0	0
2024-06-13 16:00:32			0	37604	0	0	0	25431	23960	136191	27263	1013500	42083	109406	0	0	8260	569105	0	0
2024-06-13 16:01:32			0	37613	0	0	0	25446	23980	136115	27329	1013561	42074	109412	0	0	8260	568682	0	0
2024-06-13 16:02:32			0	37611	0	0	0	25462	23980	136207	27524	1013570	42074	109418	0	0	8260	568762	0	0
2024-06-13 16:03:32			0	37616	0	0	0	25470	24000	136219	26916	1013702	42076	109421	0	0	8260	568498	0	0
2024-06-13 16:04:32			0	37601	0	0	0	25496	24010	136211	27367	1013693	42098	109431	0	0	8259	569064	0	0
2024-06-13 16:05:32			0	37607	0	0	0	25503	24010	136135	27145	1013808	42099	109434	0	0	8259	568825	0	0
2024-06-13 16:06:32			0	37617	0	0	0	25522	24050	136107	27228	1013886	42080	109441	0	0	8259	568298	0	0
2024-06-13 16:07:32			0	37624	0	0	0	25522	24040	136159	27248	1013851	42091	109441	0	0	8260	568051	0	0
2024-06-13 16:08:32			0	37634	0	0	0	25527	24060	136079	27372	1013993	42071	109443	0	0	8260	567589	0	0
2024-06-13 16:09:32			0	37627	0	0	0	25527	24070	136071	27225	1013894	42092	109443	0	0	8260	567836	0	0
2024-06-13 16:10:32			0	37667	0	0	0	25529	24080	136063	26805	1013938	42093	109444	0	0	8262	566212	0	0
2024-06-13 16:11:32			0	37677	0	0	0	25537	24070	135919	27265	1013983	42072	109447	0	0	8262	565846	0	0
2024-06-13 16:12:32			0	37740	0	0	0	25537	24080	135723	27227	1014045	42093	109447	0	0	8266	563314	0	0
2024-06-13 16:13:32			0	37798	0	0	0	25527	24100	135447	27237	1014034	42074	109443	0	0	8269	560956	0	0
2024-06-13 16:14:32			0	37900	0	0	0	25524	24090	135175	27209	1013929	42083	109442	0	0	8274	556965	0	0
2024-06-13 16:15:32			0	37964	0	0	0	25511	24100	134947	27320	1013946	42084	109437	0	0	8278	554420	0	0
2024-06-13 16:16:32			0	38024	0	0	0	25511	24100	134748	27424	1013927	42074	109437	0	0	8281	552069	0	0
2024-06-13 16:17:32			0	38077	0	0	0	25516	24100	134508	27313	1013901	42085	109439	0	0	8284	549998	0	0
2024-06-13 16:18:32			0	38099	0	0	0	25503	24090	134420	27313	1013857	42073	109434	0	0	8285	549171	0	0
2024-06-13 16:19:32			0	38149	0	0	0	25493	24090	134220	27398	1013910	42073	109430	0	0	8288	547224	0	0
2024-06-13 16:20:32			0	38182	0	0	0	25485	24080	134156	27348	1013831	42083	109427	0	0	8289	545972	0	0
2024-06-13 16:21:32			0	38210	0	0	0	25457	24080	134080	27176	1013760	42083	109416	0	0	8291	544884	0	0
2024-06-13 16:22:32			0	38191	0	0	0	25459	24070	134128	27031	1013761	42092	109417	0	0	8290	545653	0	0
2024-06-13 16:23:32			0	38200	0	0	0	25444	24080	134204	27260	1013751	42060	109411	0	0	8291	545273	0	0
2024-06-13 16:24:32			0	38177	0	0	0	25436	24060	134184	27202	1013752	42071	109408	0	0	8290	546228	0	0
2024-06-13 16:25:32			0	38157	0	0	0	25425	24050	134312	27409	1013654	42069	109404	0	0	8289	547036	0	0
2024-06-13 16:26:32			0	38132	0	0	0	25405	24040	134444	27410	1013611	42058	109396	0	0	8288	548040	0	0
2024-06-13 16:27:32			0	38110	0	0	0	25389	24030	134436	27209	1013593	42078	109390	0	0	8287	548928	0	0
2024-06-13 16:28:32			0	38102	0	0	0	25394	24040	134552	27161	1013557	42080	109392	0	0	8287	549209	0	0
2024-06-13 16:29:32			0	38090	0	0	0	25363	24020	134568	27255	1013363	42055	109380	0	0	8287	549739	0	0
2024-06-13 16:30:32			0	38057	0	0	0	25319	24000	134644	27206	1013230	42054	109363	0	0	8285	551090	0	0
2024-06-13 16:31:32			0	38056	0	0	0	25283	23980	134604	27182	1013142	42041	109349	0	0	8286	551191	0	0
2024-06-13 16:32:32			0	38054	0	0	0	25254	23970	134676	27196	1013090	42040	109338	0	0	8286	551301	0	0
2024-06-13 16:33:32			0	38051	0	0	0	25249	23950	134720	27078	1013109	42048	109336	0	0	8286	551480	0	0
2024-06-13 16:34:32			0	38037	0	0	0	25246	23940	134828	27116	1013047	42037	109335	0	0	8285	552059	0	0
2024-06-13 16:35:32			0	38030	0	0	0	25220	23930	134716	27296	1012941	42036	109325	0	0	8285	552364	0	0
2024-06-13 16:36:32			0	38042	0	0	0	25186	23910	134704	27241	1012827	42045	109312	0	0	8287	551956	0	0
2024-06-13 16:37:32			0	38045	0	0	0	25173	23890	134812	27183	1012712	42043	109307	0	0	8287	551901	0	0
2024-06-13 16:38:32			0	38062	0	0	0	25158	23880	134772	27180	1012668	42031	109301	0	0	8288	551267	0	0
2024-06-13 16:39:32			0	38067	0	0	0	25150	23870	134804	27215	1012687	42041	109298	0	0	8288	551103	0	0
2024-06-13 16:40:32			0	38062	0	0	0	25145	23850	134768	27163	1012644	42028	109296	0	0	8288	551361	0	0
2024-06-13 16:41:32			0	38075	0	0	0	25137	23850	134736	27048	1012590	42039	109293	0	0	8289	550852	0	0
2024-06-13 16:42:32			0	38071	0	0	0	25137	23840	134652	27194	1012573	42027	109293	0	0	8289	551040	0	0
2024-06-13 16:43:32			0	38088	0	0	0	25140	23820	134692	26979	1012574	42038	109294	0	0	8289	550437	0	0
2024-06-13 16:44:32			0	38082	0	0	0	25150	23820	134776	27137	1012628	42048	109298	0	0	8289	550672	0	0
2024-06-13 16:45:32			0	38057	0	0	0	25186	23840	134692	27050	1012814	42060	109312	0	0	8287	551587	0	0
2024-06-13 16:46:32			0	38101	0	0	0	25241	23850	134668	27372	1012991	42072	109333	0	0	8288	549836	0	0
2024-06-13 16:47:32			0	38071	0	0	0	25316	23880	134648	26956	1013149	42075	109362	0	0	8286	550916	0	0
2024-06-13 16:48:32			0	38089	0	0	0	25374	23900	134724	27374	1013299	42078	109384	0	0	8286	550150	0	0
2024-06-13 16:49:32			0	38081	0	0	0	25425	23920	134724	27175	1013387	42068	109404	0	0	8285	550401	0	0
2024-06-13 16:50:32			0	38067	0	0	0	25446	23930	134688	27454	1013457	42081	109412	0	0	8284	550917	0	0
2024-06-13 16:51:32			0	38071	0	0	0	25464	23950	134820	27013	1013518	42094	109419	0	0	8284	550698	0	0
2024-06-13 16:52:32			0	38057	0	0	0	25483	23970	134708	26958	1013606	42095	109426	0	0	8283	551183	0	0
2024-06-13 16:53:32			0	38069	0	0	0	25496	23980	134732	27345	1013722	42095	109431	0	0	8283	550683	0	0
2024-06-13 16:54:32			0	38072	0	0	0	25524	24010	134820	27255	1013755	42077	109442	0	0	8283	550473	0	0
2024-06-13 16:55:32			0	38076	0	0	0	25540	24020	134632	27312	1013825	42078	109448	0	0	8283	550286	0	0
2024-06-13 16:56:32			0	38066	0	0	0	25537	24030	134684	27090	1013949	42079	109447	0	0	8282	550645	0	0
2024-06-13 16:57:32			0	38066	0	0	0	25537	24050	134672	27312	1013886	42091	109447	0	0	8282	550583	0	0
2024-06-13 16:58:32			0	38059	0	0	0	25537	24050	134636	26906	1013868	42080	109447	0	0	8282	550857	0	0
2024-06-13 16:59:32			0	38060	0	0	0	25527	24060	134632	27159	1013850	42070	109443	0	0	8282	550786	0	0
2024-06-13 17:00:32			0	38057	0	0	0	25519	24060	134604	27128	1013886	42082	109440	0	0	8282	550904	0	0
2024-06-13 17:01:32			0	38047	0	0	0	25503	24070	134624	27038	1013814	42092	109434	0	0	8282	551263	0	0
2024-06-13 17:02:32			0	38070	0	0	0	25490	24060	134488	26934	1013797	42081	109429	0	0	8283	550396	0	0
2024-06-13 17:03:32			0	38045	0	0	0	25475	24070	134688	26975	1013814	42082	109423	0	0	8282	551342	0	0
2024-06-13 17:04:32			0	38043	0	0	0	25457	24050	134612	26840	1013708	42058	109416	0	0	8283	551482	0	0
2024-06-13 17:05:32			0	38032	0	0	0	25462	24060	134724	27052	1013859	42082	109418	0	0	8282	551881	0	0
2024-06-13 17:06:32			0	38040	0	0	0	25462	24050	134680	27254	1013788	42069	109418	0	0	8282	551599	0	0
2024-06-13 17:07:32			0	38021	0	0	0	25459	24060	134831	27092	1013797	42058	109417	0	0	8281	552311	0	0
2024-06-13 17:08:32			0	38014	0	0	0	25464	24070	134811	27248	1013814	42071	109419	0	0	8281	552554	0	0
2024-06-13 17:09:32			0	38017	0	0	0	25467	24060	134851	27438	1013806	42082	109420	0	0	8281	552468	0	0
2024-06-13 17:10:32			0	38005	0	0	0	25480	24070	134875	27305	1013841	42071	109425	0	0	8280	552907	0	0
2024-06-13 17:11:32			0	38009	0	0	0	25477	24080	134847	27209	1013858	42093	109424	0	0	8281	552719	0	0
2024-06-13 17:12:32			0	38013	0	0	0	25477	24070	134775	27595	1013787	42071	109424	0	0	8281	552593	0	0
2024-06-13 17:13:32			0	37997	0	0	0	25470	24080	134827	27293	1013831	42072	109421	0	0	8280	553189	0	0
2024-06-13 17:14:32			0	37985	0	0	0	25467	24070	134859	27396	1013796	42083	109420	0	0	8280	553690	0	0
2024-06-13 17:15:32			0	38017	0	0	0	25467	24070	134867	27267	1013841	42082	109420	0	0	8281	552437	0	0
2024-06-13 17:16:32			0	38005	0	0	0	25470	24070	134771	27360	1013868	42071	109421	0	0	8281	552907	0	0
2024-06-13 17:17:32			0	38019	0	0	0	25472	24080	134839	27467	1013885	42093	109422	0	0	8281	552327	0	0
2024-06-13 17:18:32			0	37997	0	0	0	25485	24080	134775	27275	1013911	42083	109427	0	0	8280	553189	0	0
2024-06-13 17:19:32			0	37998	0	0	0	25493	24080	134895	27105	1013911	42093	109430	0	0	8280	553149	0	0
2024-06-13 17:20:32			0	38009	0	0	0	25493	24090	134771	27441	1013955	42061	109430	0	0	8280	552688	0	0
2024-06-13 17:21:32			0	37997	0	0	0	25506	24090	134847	27511	1013982	42083	109435	0	0	8280	553157	0	0
2024-06-13 17:22:32			0	38002	0	0	0	25522	24100	134871	27336	1014079	42084	109441	0	0	8280	552931	0	0
2024-06-13 17:23:32			0	38001	0	0	0	25527	24090	134811	27552	1014009	42083	109443	0	0	8279	553001	0	0
2024-06-13 17:24:32			0	37993	0	0	0	25529	24100	134839	27386	1014168	42096	109444	0	0	8279	553283	0	0
2024-06-13 17:25:32			0	37980	0	0	0	25519	24100	134843	27376	1014034	42085	109440	0	0	8279	553792	0	0
2024-06-13 17:26:32			0	37989	0	0	0	25511	24110	134843	27251	1014070	42074	109437	0	0	8279	553408	0	0
2024-06-13 17:27:32			0	37998	0	0	0	25509	24110	134783	27436	1014016	42085	109436	0	0	8280	553056	0	0
2024-06-13 17:28:32			0	37997	0	0	0	25511	24100	134871	27396	1014008	42074	109437	0	0	8280	553126	0	0
2024-06-13 17:29:32			0	37995	0	0	0	25511	24110	134951	27410	1013990	42074	109437	0	0	8279	553173	0	0
2024-06-13 17:30:32			0	37977	0	0	0	25514	24110	134843	27350	1014070	42085	109438	0	0	8278	553879	0	0
2024-06-13 17:31:32			0	38000	0	0	0	25509	24110	134907	27492	1014070	42085	109436	0	0	8280	552978	0	0
2024-06-13 17:32:32			0	38010	0	0	0	25527	24110	134871	27185	1014132	42097	109443	0	0	8280	552586	0	0
2024-06-13 17:33:32			0	38001	0	0	0	25542	24120	134907	27438	1014176	42086	109449	0	0	8279	552907	0	0
2024-06-13 17:34:32			0	38010	0	0	0	25548	24120	134879	27400	1014140	42086	109451	0	0	8280	552555	0	0
2024-06-13 17:35:32			0	38020	0	0	0	25561	24120	134927	27253	1014202	42086	109456	0	0	8280	552164	0	0
2024-06-13 17:36:32			0	37990	0	0	0	25561	24140	134903	27039	1014201	42088	109456	0	0	8278	553276	0	0
2024-06-13 17:37:32			0	38019	0	0	0	25566	24140	134879	27391	1014255	42088	109458	0	0	8280	552140	0	0
2024-06-13 17:38:32			0	38016	0	0	0	25571	24140	134787	27150	1014263	42100	109460	0	0	8280	552258	0	0
2024-06-13 17:39:32			0	38020	0	0	0	25576	24140	134875	27237	1014281	42078	109462	0	0	8280	552101	0	0
2024-06-13 17:40:32			0	38028	0	0	0	25579	24150	134879	27391	1014280	42079	109463	0	0	8280	551757	0	0
2024-06-13 17:41:32			0	38024	0	0	0	25576	24150	134772	27208	1014299	42089	109462	0	0	8280	551914	0	0
2024-06-13 17:42:32			0	38020	0	0	0	25573	24150	134731	27244	1014272	42089	109461	0	0	8280	552070	0	0
2024-06-13 17:43:32			0	38063	0	0	0	25568	24150	134736	27069	1014280	42079	109459	0	0	8282	550390	0	0
2024-06-13 17:44:32			0	38046	0	0	0	25581	24150	134808	27008	1014254	42101	109464	0	0	8281	551054	0	0
2024-06-13 17:45:32			0	38044	0	0	0	25589	24160	134700	27237	1014298	42102	109467	0	0	8281	551101	0	0
2024-06-13 17:46:32			0	38049	0	0	0	25584	24160	134780	27090	1014342	42090	109465	0	0	8281	550905	0	0
2024-06-13 17:47:32			0	38050	0	0	0	25579	24160	134756	26987	1014298	42124	109463	0	0	8281	550866	0	0
2024-06-13 17:48:32			0	38052	0	0	0	25584	24170	134652	27107	1014333	42091	109465	0	0	8281	550757	0	0
2024-06-13 17:49:32			0	38061	0	0	0	25594	24170	134616	27171	1014386	42091	109469	0	0	8282	550406	0	0
2024-06-13 17:50:32			0	38039	0	0	0	25589	24170	134760	27301	1014360	42102	109467	0	0	8281	551265	0	0
2024-06-13 17:51:32			0	38058	0	0	0	25589	24170	134632	27246	1014360	42091	109467	0	0	8282	550523	0	0
2024-06-13 17:52:32			0	38058	0	0	0	25602	24170	134584	26944	1014395	42091	109472	0	0	8281	550523	0	0
2024-06-13 17:53:32			0	38079	0	0	0	25599	24180	134556	27088	1014403	42115	109471	0	0	8283	549672	0	0
2024-06-13 17:54:32			0	38072	0	0	0	25605	24180	134592	27230	1014465	42104	109473	0	0	8282	549945	0	0
2024-06-13 17:55:32			0	38082	0	0	0	25599	24180	134608	26967	1014465	42104	109471	0	0	8283	549555	0	0
2024-06-13 17:56:32			0	38064	0	0	0	25599	24180	134544	27008	1014465	42104	109471	0	0	8282	550258	0	0
2024-06-13 17:57:32			0	38065	0	0	0	25607	24190	134588	26831	1014421	42104	109474	0	0	8282	550187	0	0
2024-06-13 17:58:32			0	38078	0	0	0	25610	24190	134564	27015	1014536	42104	109475	0	0	8282	549680	0	0
2024-06-13 17:59:32			0	38096	0	0	0	25618	24180	134516	27170	1014519	42116	109478	0	0	8283	549009	0	0
2024-06-13 18:00:32			0	38078	0	0	0	25620	24200	134488	27083	1014545	42094	109479	0	0	8282	549649	0	0
2024-06-13 18:01:32			0	38101	0	0	0	25612	24190	134536	27123	1014456	42104	109476	0	0	8284	548783	0	0
2024-06-13 18:02:32			0	38097	0	0	0	25594	24200	134528	27364	1014438	42105	109469	0	0	8284	548908	0	0
2024-06-13 18:03:32			0	38092	0	0	0	25594	24200	134488	27121	1014465	42094	109469	0	0	8283	549103	0	0
2024-06-13 18:04:32			0	38128	0	0	0	25602	24190	134416	26998	1014448	42104	109472	0	0	8285	547732	0	0
2024-06-13 18:05:32			0	38102	0	0	0	25607	24200	134440	27249	1014465	42105	109474	0	0	8284	548713	0	0
2024-06-13 18:06:32			0	38118	0	0	0	25586	24200	134480	27249	1014438	42094	109466	0	0	8285	548090	0	0
2024-06-13 18:07:32			0	38107	0	0	0	25586	24190	134452	27268	1014483	42093	109466	0	0	8284	548550	0	0
2024-06-13 18:08:32			0	38093	0	0	0	25594	24190	134400	27220	1014474	42104	109469	0	0	8283	549095	0	0
2024-06-13 18:09:32			0	38092	0	0	0	25581	24190	134432	27265	1014448	42093	109464	0	0	8284	549134	0	0
2024-06-13 18:10:32			0	38106	0	0	0	25589	24180	134384	27064	1014484	42092	109467	0	0	8284	548620	0	0
2024-06-13 18:11:32			0	38109	0	0	0	25610	24190	134364	27192	1014510	42104	109475	0	0	8284	548472	0	0
2024-06-13 18:12:32			0	38109	0	0	0	25628	24200	134388	27062	1014580	42117	109482	0	0	8284	548441	0	0
2024-06-13 18:13:32			0	38130	0	0	0	25628	24210	134404	27182	1014589	42106	109482	0	0	8285	547592	0	0
2024-06-13 18:14:32			0	38113	0	0	0	25633	24210	134412	27317	1014589	42106	109484	0	0	8284	548254	0	0
2024-06-13 18:15:32			0	38134	0	0	0	25607	24210	134440	27150	1014562	42095	109474	0	0	8285	547437	0	0
2024-06-13 18:16:32			0	38133	0	0	0	25605	24200	134372	27026	1014527	42095	109473	0	0	8285	547506	0	0
2024-06-13 18:17:32			0	38120	0	0	0	25605	24200	134420	27102	1014545	42105	109473	0	0	8285	548012	0	0
2024-06-13 18:18:32			0	38131	0	0	0	25610	24190	134324	27092	1014403	42104	109475	0	0	8285	547615	0	0
2024-06-13 18:19:32			0	38125	0	0	0	25607	24190	134324	26930	1014501	42093	109474	0	0	8285	547849	0	0
2024-06-13 18:20:32			0	38145	0	0	0	25602	24200	134452	27183	1014465	42105	109472	0	0	8286	547040	0	0
2024-06-13 18:21:32			0	38128	0	0	0	25592	24190	134372	27022	1014510	42104	109468	0	0	8285	547732	0	0
2024-06-13 18:22:32			0	38145	0	0	0	25599	24200	134340	27010	1014527	42106	109471	0	0	8286	547040	0	0
2024-06-13 18:23:32			0	38132	0	0	0	25576	24200	134316	27355	1014473	42095	109462	0	0	8286	547545	0	0
2024-06-13 18:24:32			0	38119	0	0	0	25584	24190	134344	27215	1014528	42083	109465	0	0	8285	548082	0	0
2024-06-13 18:25:32			0	38131	0	0	0	25599	24190	134324	27026	1014448	42104	109471	0	0	8285	547615	0	0
2024-06-13 18:26:32			0	38137	0	0	0	25586	24200	134352	27376	1014411	42094	109466	0	0	8286	547351	0	0
2024-06-13 18:27:32			0	38130	0	0	0	25558	24180	134316	26975	1014332	42093	109455	0	0	8286	547685	0	0
2024-06-13 18:28:32			0	38144	0	0	0	25537	24170	134328	27135	1014261	42081	109447	0	0	8287	547171	0	0
2024-06-13 18:29:32			0	38141	0	0	0	25524	24160	134356	27111	1014191	42090	109442	0	0	8287	547319	0	0
2024-06-13 18:30:32			0	38129	0	0	0	25516	24160	134336	27043	1014262	42090	109439	0	0	8287	547786	0	0
2024-06-13 18:31:32			0	38140	0	0	0	25514	24160	134272	26994	1014244	42090	109438	0	0	8287	547358	0	0
2024-06-13 18:32:32			0	38141	0	0	0	25511	24160	134308	27060	1014262	42090	109437	0	0	8287	547319	0	0
2024-06-13 18:33:32			0	38155	0	0	0	25511	24150	134380	27397	1014174	42089	109437	0	0	8288	546805	0	0
2024-06-13 18:34:32			0	38128	0	0	0	25485	24140	134384	27452	1014094	42078	109427	0	0	8287	547887	0	0
2024-06-13 18:35:32			0	38134	0	0	0	25472	24120	134380	27326	1014069	42086	109422	0	0	8287	547715	0	0
2024-06-13 18:36:32			0	38150	0	0	0	25467	24120	134292	27272	1013980	42086	109420	0	0	8288	547092	0	0
2024-06-13 18:37:32			0	38159	0	0	0	25446	24110	134364	27178	1013883	42074	109412	0	0	8289	546773	0	0
2024-06-13 18:38:32			0	38129	0	0	0	25444	24110	134300	27398	1013829	42063	109411	0	0	8288	547940	0	0
2024-06-13 18:39:32			0	38166	0	0	0	25420	24090	134336	27062	1013803	42062	109402	0	0	8290	546563	0	0
2024-06-13 18:40:32			0	38160	0	0	0	25412	24080	134372	27126	1013885	42072	109399	0	0	8290	546827	0	0
2024-06-13 18:41:32			0	38135	0	0	0	25412	24080	134360	27235	1013858	42072	109399	0	0	8288	547800	0	0
2024-06-13 18:42:32			0	38149	0	0	0	25392	24070	134424	26941	1013627	42059	109391	0	0	8289	547286	0	0
2024-06-13 18:43:32			0	38146	0	0	0	25363	24050	134304	27149	1013539	42058	109380	0	0	8290	547464	0	0
2024-06-13 18:44:32			0	38143	0	0	0	25332	24030	134436	27331	1013513	42056	109368	0	0	8290	547642	0	0
2024-06-13 18:45:32			0	38141	0	0	0	25314	24010	134424	27495	1013399	42065	109361	0	0	8290	547782	0	0
2024-06-13 18:46:32			0	38125	0	0	0	25306	24010	134436	27175	1013426	42077	109358	0	0	8289	548405	0	0
2024-06-13 18:47:32			0	38111	0	0	0	25324	23990	134524	27105	1013400	42064	109365	0	0	8288	549013	0	0
2024-06-13 18:48:32			0	38100	0	0	0	25335	23990	134600	27296	1013534	42064	109369	0	0	8287	549442	0	0
2024-06-13 18:49:32			0	38074	0	0	0	25342	23990	134688	27241	1013498	42063	109372	0	0	8286	550457	0	0
2024-06-13 18:50:32			0	38072	0	0	0	25355	23980	134680	27003	1013570	42063	109377	0	0	8286	550566	0	0
2024-06-13 18:51:32			0	38066	0	0	0	25394	24000	134640	27031	1013658	42077	109392	0	0	8285	550738	0	0
2024-06-13 18:52:32			0	38060	0	0	0	25425	24000	134620	27177	1013658	42087	109404	0	0	8284	550973	0	0
2024-06-13 18:53:32			0	38053	0	0	0	25415	24010	134780	26925	1013621	42077	109400	0	0	8284	551215	0	0
2024-06-13 18:54:32			0	38034	0	0	0	25399	24000	134764	27272	1013577	42065	109394	0	0	8283	551989	0	0
2024-06-13 18:55:32			0	38036	0	0	0	25394	24010	134868	27074	1013533	42077	109392	0	0	8283	551880	0	0
2024-06-13 18:56:32			0	38021	0	0	0	25381	24000	134860	26901	1013577	42077	109387	0	0	8283	552498	0	0
2024-06-13 18:57:32			0	38015	0	0	0	25392	24000	134795	27497	1013604	42077	109391	0	0	8282	552733	0	0
2024-06-13 18:58:32			0	37994	0	0	0	25389	24010	134951	27156	1013568	42077	109390	0	0	8281	553525	0	0
2024-06-13 18:59:32			0	37995	0	0	0	25399	24000	134923	27305	1013569	42064	109394	0	0	8281	553517	0	0
2024-06-13 19:00:32			0	38000	0	0	0	25397	24000	135055	27196	1013577	42077	109393	0	0	8281	553321	0	0
2024-06-13 19:01:32			0	37971	0	0	0	25402	24010	134983	27336	1013639	42087	109395	0	0	8280	554427	0	0
2024-06-13 19:02:32			0	37962	0	0	0	25415	24010	134999	27277	1013586	42077	109400	0	0	8279	554780	0	0
2024-06-13 19:03:32			0	37949	0	0	0	25399	24000	135087	27166	1013551	42077	109394	0	0	8279	555321	0	0
2024-06-13 19:04:32			0	37936	0	0	0	25392	23990	135075	27300	1013560	42076	109391	0	0	8278	555863	0	0
2024-06-13 19:05:32			0	37940	0	0	0	25368	23990	135163	27109	1013534	42064	109382	0	0	8279	555706	0	0
2024-06-13 19:06:32			0	37932	0	0	0	25348	23990	135087	26977	1013391	42052	109374	0	0	8278	556021	0	0
2024-06-13 19:07:32			0	37921	0	0	0	25329	23970	135179	27308	1013366	42051	109367	0	0	8278	556516	0	0
2024-06-13 19:08:32			0	37934	0	0	0	25290	23960	135183	27204	1013242	42049	109352	0	0	8279	556036	0	0
2024-06-13 19:09:32			0	37907	0	0	0	25267	23970	135215	27092	1013277	42040	109343	0	0	8278	557067	0	0
2024-06-13 19:10:32			0	37882	0	0	0	25220	23930	135207	27452	1012976	42025	109325	0	0	8278	558177	0	0
2024-06-13 19:11:32			0	37890	0	0	0	25181	23910	135279	27147	1012835	42045	109310	0	0	8279	557925	0	0
2024-06-13 19:12:32			0	37892	0	0	0	25161	23880	135299	26894	1012757	42032	109302	0	0	8279	557940	0	0
2024-06-13 19:13:32			0	37870	0	0	0	25132	23850	135311	27476	1012572	42028	109291	0	0	8278	558902	0	0
2024-06-13 19:14:32			0	37850	0	0	0	25101	23840	135423	27391	1012493	42027	109279	0	0	8278	559723	0	0
2024-06-13 19:15:32			0	37844	0	0	0	25093	23810	135463	27230	1012396	42024	109276	0	0	8277	560054	0	0
2024-06-13 19:16:32			0	37841	0	0	0	25067	23800	135475	27001	1012317	42024	109266	0	0	8278	560204	0	0
2024-06-13 19:17:32			0	37813	0	0	0	25054	23770	135583	27455	1012221	42042	109261	0	0	8276	561406	0	0
2024-06-13 19:18:32			0	37808	0	0	0	25036	23760	135631	27036	1012204	42020	109254	0	0	8276	561636	0	0
2024-06-13 19:19:32			0	37793	0	0	0	25049	23750	135563	27331	1012160	42030	109259	0	0	8275	562261	0	0
2024-06-13 19:20:32			0	37812	0	0	0	25031	23730	135699	27256	1012135	42029	109252	0	0	8277	561572	0	0
2024-06-13 19:21:32			0	37777	0	0	0	25028	23710	135775	27074	1012145	42038	109251	0	0	8275	563022	0	0
2024-06-13 19:22:32			0	37768	0	0	0	25036	23700	135787	27180	1012137	42037	109254	0	0	8274	563410	0	0
2024-06-13 19:23:32			0	37774	0	0	0	25057	23700	135799	27076	1012128	42036	109262	0	0	8274	563173	0	0
2024-06-13 19:24:32			0	37764	0	0	0	25057	23710	135771	27194	1012172	42038	109262	0	0	8274	563537	0	0
2024-06-13 19:25:32			0	37764	0	0	0	25062	23700	135795	27400	1012083	42047	109264	0	0	8273	563569	0	0
2024-06-13 19:26:32			0	37747	0	0	0	25059	23700	135911	27490	1012182	42036	109263	0	0	8273	564244	0	0
2024-06-13 19:27:32			0	37744	0	0	0	25077	23710	135907	27215	1012279	42048	109270	0	0	8272	564331	0	0
2024-06-13 19:28:32			0	37747	0	0	0	25114	23720	135923	27628	1012331	42060	109284	0	0	8272	564180	0	0
2024-06-13 19:29:32			0	37713	0	0	0	25124	23750	136011	27176	1012446	42062	109288	0	0	8270	565435	0	0
2024-06-13 19:30:32			0	37712	0	0	0	25161	23760	136007	27381	1012578	42064	109302	0	0	8269	565443	0	0
2024-06-13 19:31:32			0	37693	0	0	0	25176	23770	136011	27272	1012640	42064	109308	0	0	8268	566167	0	0
2024-06-13 19:32:32			0	37685	0	0	0	25244	23780	136059	27390	1012826	42066	109334	0	0	8267	566453	0	0
2024-06-13 19:33:32			0	37682	0	0	0	25290	23810	136051	27038	1012896	42046	109352	0	0	8266	566477	0	0
2024-06-13 19:34:32			0	37672	0	0	0	25303	23810	136111	27092	1012976	42069	109357	0	0	8265	566875	0	0
2024-06-13 19:35:32			0	37677	0	0	0	25309	23830	136123	27001	1012965	42071	109359	0	0	8265	566612	0	0
2024-06-13 19:36:32			0	37669	0	0	0	25322	23840	136251	27431	1013009	42072	109364	0	0	8265	566899	0	0
2024-06-13 19:37:32			0	37677	0	0	0	25342	23850	136159	27203	1013080	42061	109372	0	0	8265	566548	0	0
2024-06-13 19:38:32			0	37688	0	0	0	25368	23870	136235	27352	1013186	42075	109382	0	0	8265	566047	0	0
2024-06-13 19:39:32			0	37654	0	0	0	25371	23870	136147	27253	1013221	42075	109383	0	0	8263	567400	0	0
2024-06-13 19:40:32			0	37653	0	0	0	25381	23890	136247	27263	1013282	42066	109387	0	0	8263	567376	0	0
2024-06-13 19:41:32			0	37642	0	0	0	25376	23900	136263	27203	1013272	42088	109385	0	0	8263	567782	0	0
2024-06-13 19:42:32			0	37638	0	0	0	25368	23910	136199	27251	1013236	42079	109382	0	0	8263	567909	0	0
2024-06-13 19:43:32			0	37635	0	0	0	25361	23920	136211	27471	1013244	42067	109379	0	0	8263	567997	0	0
2024-06-13 19:44:32			0	37651	0	0	0	25376	23920	136199	27223	1013325	42079	109385	0	0	8263	567360	0	0
2024-06-13 19:45:32			0	37631	0	0	0	25389	23930	136203	27438	1013342	42081	109390	0	0	8262	568124	0	0
2024-06-13 19:46:32			0	37630	0	0	0	25407	23930	136227	27331	1013404	42069	109397	0	0	8262	568164	0	0
2024-06-13 19:47:32			0	37612	0	0	0	25402	23930	136279	27319	1013404	42047	109395	0	0	8261	568882	0	0
2024-06-13 19:48:32			0	37631	0	0	0	25402	23950	136283	27417	1013438	42072	109395	0	0	8262	568060	0	0
2024-06-13 19:49:32			0	37617	0	0	0	25402	23940	136199	27114	1013475	42092	109395	0	0	8261	568651	0	0
2024-06-13 19:50:32			0	37622	0	0	0	25405	23950	136143	27190	1013438	42072	109396	0	0	8261	568419	0	0
2024-06-13 19:51:32			0	37620	0	0	0	25402	23950	136227	27317	1013465	42094	109395	0	0	8261	568499	0	0
2024-06-13 19:52:32			0	37640	0	0	0	25402	23960	136203	27360	1013474	42072	109395	0	0	8262	567670	0	0
2024-06-13 19:53:32			0	37636	0	0	0	25397	23970	136155	27013	1013499	42084	109393	0	0	8262	567797	0	0
2024-06-13 19:54:32			0	37626	0	0	0	25394	23960	136219	27029	1013509	42083	109392	0	0	8262	568228	0	0
2024-06-13 19:55:32			0	37636	0	0	0	25392	23970	136119	26993	1013517	42062	109391	0	0	8262	567797	0	0
2024-06-13 19:56:32			0	37639	0	0	0	25386	23960	136131	27230	1013509	42083	109389	0	0	8263	567710	0	0
2024-06-13 19:57:32			0	37642	0	0	0	25386	23970	136239	27372	1013491	42073	109389	0	0	8263	567558	0	0
2024-06-13 19:58:32			0	37654	0	0	0	25389	23980	136051	27001	1013481	42063	109390	0	0	8263	567048	0	0
2024-06-13 19:59:32			0	37660	0	0	0	25397	23960	136007	27291	1013536	42072	109393	0	0	8263	566873	0	0
2024-06-13 20:00:32			0	37694	0	0	0	25399	23970	135911	27229	1013473	42084	109394	0	0	8265	565490	0	0
2024-06-13 20:01:32			0	37711	0	0	0	25410	23980	135855	27235	1013481	42084	109398	0	0	8266	564783	0	0
2024-06-13 20:02:32			0	37731	0	0	0	25407	23980	135755	27429	1013535	42074	109397	0	0	8267	563989	0	0
2024-06-13 20:03:32			0	37773	0	0	0	25410	23980	135755	27005	1013543	42084	109398	0	0	8269	562325	0	0
2024-06-13 20:04:32			0	37786	0	0	0	25410	23980	135575	27102	1013508	42084	109398	0	0	8270	561810	0	0
2024-06-13 20:05:32			0	37819	0	0	0	25410	23980	135479	27118	1013535	42084	109398	0	0	8272	560505	0	0
2024-06-13 20:06:32			0	37834	0	0	0	25415	23980	135399	27296	1013516	42074	109400	0	0	8272	559913	0	0
2024-06-13 20:07:32			0	37873	0	0	0	25410	23980	135299	27248	1013561	42084	109398	0	0	8274	558374	0	0
2024-06-13 20:08:32			0	37899	0	0	0	25407	23990	135223	27466	1013525	42085	109397	0	0	8276	557319	0	0
2024-06-13 20:09:32			0	37960	0	0	0	25407	23990	135095	27149	1013578	42075	109397	0	0	8279	554921	0	0
2024-06-13 20:10:32			0	37968	0	0	0	25412	23990	135051	27131	1013498	42075	109399	0	0	8279	554607	0	0
2024-06-13 20:11:32			0	38004	0	0	0	25405	23980	134851	27124	1013543	42074	109396	0	0	8281	553226	0	0
2024-06-13 20:12:32			0	38014	0	0	0	25399	23990	134819	26819	1013560	42086	109394	0	0	8282	552803	0	0
2024-06-13 20:13:32			0	38040	0	0	0	25397	23990	134672	27026	1013525	42096	109393	0	0	8283	551786	0	0
2024-06-13 20:14:32			0	38054	0	0	0	25397	23990	134748	26797	1013525	42075	109393	0	0	8284	551238	0	0
2024-06-13 20:15:32			0	38047	0	0	0	25389	23990	134736	26982	1013525	42075	109390	0	0	8284	551512	0	0
2024-06-13 20:16:32			0	38087	0	0	0	25381	23980	134656	27296	1013516	42084	109387	0	0	8286	549980	0	0
2024-06-13 20:17:32			0	38074	0	0	0	25384	23980	134508	27265	1013490	42084	109388	0	0	8285	550488	0	0
2024-06-13 20:18:32			0	38088	0	0	0	25389	23980	134488	27062	1013490	42074	109390	0	0	8286	549941	0	0
2024-06-13 20:19:32			0	38094	0	0	0	25381	23970	134556	27260	1013499	42074	109387	0	0	8286	549738	0	0
2024-06-13 20:20:32			0	38085	0	0	0	25386	23970	134604	27253	1013446	42084	109389	0	0	8286	550089	0	0
2024-06-13 20:21:32			0	38088	0	0	0	25392	23980	134556	27163	1013454	42084	109391	0	0	8286	549941	0	0
2024-06-13 20:22:32			0	38089	0	0	0	25379	23970	134592	27131	1013437	42094	109386	0	0	8286	549933	0	0
2024-06-13 20:23:32			0	38102	0	0	0	25363	23970	134516	27343	1013473	42074	109380	0	0	8287	549426	0	0
2024-06-13 20:24:32			0	38124	0	0	0	25355	23960	134484	27067	1013402	42072	109377	0	0	8288	548599	0	0
2024-06-13 20:25:32			0	38114	0	0	0	25384	23970	134512	27046	1013446	42084	109388	0	0	8287	548958	0	0
2024-06-13 20:26:32			0	38110	0	0	0	25368	23970	134492	27310	1013437	42083	109382	0	0	8287	549114	0	0
2024-06-13 20:27:32			0	38116	0	0	0	25368	23960	134408	27088	1013429	42072	109382	0	0	8288	548911	0	0
2024-06-13 20:28:32			0	38095	0	0	0	25371	23970	134472	27024	1013419	42107	109383	0	0	8286	549699	0	0
2024-06-13 20:29:32			0	38114	0	0	0	25368	23960	134616	26991	1013429	42083	109382	0	0	8287	548989	0	0
2024-06-13 20:30:32			0	38133	0	0	0	25361	23960	134436	27017	1013367	42083	109379	0	0	8289	548248	0	0
2024-06-13 20:31:32			0	38123	0	0	0	25371	23960	134400	27119	1013429	42083	109383	0	0	8288	548638	0	0
2024-06-13 20:32:32			0	38129	0	0	0	25366	23960	134448	26998	1013455	42094	109381	0	0	8288	548404	0	0
2024-06-13 20:33:32			0	38169	0	0	0	25371	23960	134360	27142	1013402	42094	109383	0	0	8290	546847	0	0
2024-06-13 20:34:32			0	38156	0	0	0	25368	23960	134408	27060	1013429	42072	109382	0	0	8290	547353	0	0
2024-06-13 20:35:32			0	38152	0	0	0	25361	23960	134236	27079	1013393	42083	109379	0	0	8289	547508	0	0
2024-06-13 20:36:32			0	38166	0	0	0	25363	23960	134296	27041	1013402	42083	109380	0	0	8290	546963	0	0
2024-06-13 20:37:32			0	38176	0	0	0	25358	23960	134224	26795	1013393	42072	109378	0	0	8291	546574	0	0
2024-06-13 20:38:32			0	38207	0	0	0	25358	23960	134164	27107	1013393	42072	109378	0	0	8292	545370	0	0
2024-06-13 20:39:32			0	38210	0	0	0	25363	23950	134164	27163	1013323	42071	109380	0	0	8292	545284	0	0
2024-06-13 20:40:32			0	38240	0	0	0	25350	23950	134132	27400	1013331	42072	109375	0	0	8294	544120	0	0
2024-06-13 20:41:32			0	38239	0	0	0	25345	23940	134064	27244	1013341	42081	109373	0	0	8294	544189	0	0
2024-06-13 20:42:32			0	38249	0	0	0	25345	23950	134024	27391	1013323	42071	109373	0	0	8295	543771	0	0
2024-06-13 20:43:32			0	38264	0	0	0	25335	23940	133920	27350	1013341	42070	109369	0	0	8296	543220	0	0
2024-06-13 20:44:32			0	38282	0	0	0	25335	23930	133988	27027	1013243	42058	109369	0	0	8297	542554	0	0
2024-06-13 20:45:32			0	38291	0	0	0	25327	23930	133856	26989	1013270	42069	109366	0	0	8297	542205	0	0
2024-06-13 20:46:32			0	38305	0	0	0	25327	23930	133824	27324	1013262	42091	109366	0	0	8298	541664	0	0
2024-06-13 20:47:32			0	38307	0	0	0	25335	23940	133780	27175	1013252	42070	109369	0	0	8298	541556	0	0
2024-06-13 20:48:32			0	38313	0	0	0	25322	23930	133896	26904	1013297	42081	109364	0	0	8298	541355	0	0
2024-06-13 20:49:32			0	38307	0	0	0	25329	23930	133828	27111	1013324	42081	109367	0	0	8298	541586	0	0
2024-06-13 20:50:32			0	38323	0	0	0	25335	23930	133804	26923	1013315	42081	109369	0	0	8299	540968	0	0
2024-06-13 20:51:32			0	38337	0	0	0	25332	23930	133840	27185	1013297	42069	109368	0	0	8299	540427	0	0
2024-06-13 20:52:32			0	38330	0	0	0	25340	23930	133832	27116	1013235	42069	109371	0	0	8299	540697	0	0
2024-06-13 20:53:32			0	38340	0	0	0	25327	23920	133856	26955	1013173	42068	109366	0	0	8300	540342	0	0
2024-06-13 20:54:32			0	38340	0	0	0	25322	23920	133848	27275	1013191	42079	109364	0	0	8300	540342	0	0
2024-06-13 20:55:32			0	38353	0	0	0	25296	23920	133792	26994	1013138	42067	109354	0	0	8301	539840	0	0
2024-06-13 20:56:32			0	38330	0	0	0	25290	23920	133832	27211	1013164	42067	109352	0	0	8300	540728	0	0
2024-06-13 20:57:32			0	38345	0	0	0	25283	23900	133688	27187	1013130	42054	109349	0	0	8301	540210	0	0
2024-06-13 20:58:32			0	38337	0	0	0	25283	23900	133852	27348	1013103	42066	109349	0	0	8300	540518	0	0
2024-06-13 20:59:32			0	38360	0	0	0	25267	23900	133724	26975	1013050	42066	109343	0	0	8302	539631	0	0
2024-06-13 21:00:32			0	38350	0	0	0	25270	23890	133756	27142	1013041	42077	109344	0	0	8301	540047	0	0
2024-06-13 21:01:32			0	38371	0	0	0	25270	23870	133848	27422	1013034	42052	109344	0	0	8302	539297	0	0
2024-06-13 21:02:32			0	38350	0	0	0	25267	23890	133816	27351	1013041	42066	109343	0	0	8301	540047	0	0
2024-06-13 21:03:32			0	38322	0	0	0	25262	23880	133864	27274	1013051	42076	109341	0	0	8300	541159	0	0
2024-06-13 21:04:32			0	38360	0	0	0	25272	23880	133844	27367	1012998	42065	109345	0	0	8301	539691	0	0
2024-06-13 21:05:32			0	38351	0	0	0	25262	23880	133856	27001	1012989	42064	109341	0	0	8301	540039	0	0
2024-06-13 21:06:32			0	38338	0	0	0	25264	23870	133884	27208	1012999	42075	109342	0	0	8300	540571	0	0
2024-06-13 21:07:32			0	38317	0	0	0	25262	23880	133720	27033	1013016	42064	109341	0	0	8299	541352	0	0
2024-06-13 21:08:32			0	38339	0	0	0	25270	23880	133852	26809	1013016	42075	109344	0	0	8300	540502	0	0
2024-06-13 21:09:32			0	38350	0	0	0	25257	23870	133900	27284	1012980	42064	109339	0	0	8301	540108	0	0
2024-06-13 21:10:32			0	38328	0	0	0	25259	23880	133900	27568	1012989	42075	109340	0	0	8300	540927	0	0
2024-06-13 21:11:32			0	38345	0	0	0	25257	23870	133804	27322	1012945	42075	109339	0	0	8301	540301	0	0
2024-06-13 21:12:32			0	38366	0	0	0	25257	23860	133844	27059	1012981	42073	109339	0	0	8302	539521	0	0
2024-06-13 21:13:32			0	38351	0	0	0	25251	23860	133848	27090	1012990	42063	109337	0	0	8301	540100	0	0
2024-06-13 21:14:32			0	38356	0	0	0	25262	23850	133904	27229	1012946	42072	109341	0	0	8301	539937	0	0
2024-06-13 21:15:32			0	38355	0	0	0	25259	23860	133860	27275	1012901	42051	109340	0	0	8301	539945	0	0
2024-06-13 21:16:32			0	38370	0	0	0	25251	23860	133896	27390	1012910	42063	109337	0	0	8302	539366	0	0
2024-06-13 21:17:32			0	38386	0	0	0	25249	23850	133860	27137	1012938	42061	109336	0	0	8303	538780	0	0
2024-06-13 21:18:32			0	38369	0	0	0	25246	23850	133848	26955	1012893	42072	109335	0	0	8302	539435	0	0
2024-06-13 21:19:32			0	38385	0	0	0	25246	23840	133788	27020	1012876	42083	109335	0	0	8303	538849	0	0
2024-06-13 21:20:32			0	38383	0	0	0	25246	23850	133712	26830	1012857	42072	109335	0	0	8303	538895	0	0
2024-06-13 21:21:32			0	38404	0	0	0	25241	23850	133688	27298	1012884	42050	109333	0	0	8304	538086	0	0
2024-06-13 21:22:32			0	38391	0	0	0	25241	23850	133672	27064	1012884	42083	109333	0	0	8303	538587	0	0
2024-06-13 21:23:32			0	38381	0	0	0	25244	23850	133728	27519	1012831	42061	109334	0	0	8303	538973	0	0
2024-06-13 21:24:32			0	38419	0	0	0	25249	23850	133632	27060	1012831	42061	109336	0	0	8305	537509	0	0
2024-06-13 21:25:32			0	38410	0	0	0	25238	23850	133636	26939	1012866	42072	109332	0	0	8304	537855	0	0
2024-06-13 21:26:32			0	38381	0	0	0	25249	23840	133680	26948	1012902	42072	109336	0	0	8303	539003	0	0
2024-06-13 21:27:32			0	38404	0	0	0	25233	23840	133696	27327	1012921	42071	109330	0	0	8304	538116	0	0
2024-06-13 21:28:32			0	38411	0	0	0	25241	23850	133684	27336	1012893	42072	109333	0	0	8304	537817	0	0
2024-06-13 21:29:32			0	38421	0	0	0	25236	23840	133684	27012	1012814	42060	109331	0	0	8305	537462	0	0
2024-06-13 21:30:32			0	38411	0	0	0	25233	23840	133632	26837	1012894	42071	109330	0	0	8305	537847	0	0
2024-06-13 21:31:32			0	38408	0	0	0	25233	23830	133632	27093	1012832	42071	109330	0	0	8304	537993	0	0
2024-06-13 21:32:32			0	38417	0	0	0	25225	23830	133548	27166	1012859	42071	109327	0	0	8305	537646	0	0
2024-06-13 21:33:32			0	38418	0	0	0	25231	23830	133592	26998	1012796	42059	109329	0	0	8305	537607	0	0
2024-06-13 21:34:32			0	38423	0	0	0	25233	23820	133636	27060	1012779	42058	109330	0	0	8305	537445	0	0
2024-06-13 21:35:32			0	38443	0	0	0	25223	23830	133632	27034	1012743	42059	109326	0	0	8306	536645	0	0
2024-06-13 21:36:32			0	38418	0	0	0	25225	23830	133560	26764	1012805	42059	109327	0	0	8305	537607	0	0
2024-06-13 21:37:32			0	38442	0	0	0	25220	23830	133524	26901	1012770	42071	109325	0	0	8306	536684	0	0
2024-06-13 21:38:32			0	38442	0	0	0	25220	23830	133600	27078	1012752	42071	109325	0	0	8306	536684	0	0
2024-06-13 21:39:32			0	38445	0	0	0	25207	23820	133500	27225	1012753	42058	109320	0	0	8307	536599	0	0
2024-06-13 21:40:32			0	38447	0	0	0	25215	23820	133580	27367	1012779	42058	109323	0	0	8307	536522	0	0
2024-06-13 21:41:32			0	38436	0	0	0	25210	23820	133412	27100	1012753	42070	109321	0	0	8306	536945	0	0
2024-06-13 21:42:32			0	38440	0	0	0	25212	23820	133388	27001	1012779	42070	109322	0	0	8306	536791	0	0
2024-06-13 21:43:32			0	38439	0	0	0	25212	23820	133500	27017	1012735	42071	109322	0	0	8306	536830	0	0
2024-06-13 21:44:32			0	38456	0	0	0	25215	23810	133464	27111	1012717	42069	109323	0	0	8307	536206	0	0
2024-06-13 21:45:32			0	38458	0	0	0	25207	23810	133528	27232	1012717	42069	109320	0	0	8307	536129	0	0
2024-06-13 21:46:32			0	38447	0	0	0	25212	23810	133516	27140	1012690	42069	109322	0	0	8307	536552	0	0
2024-06-13 21:47:32			0	38463	0	0	0	25202	23810	133500	27251	1012744	42057	109318	0	0	8308	535937	0	0
2024-06-13 21:48:32			0	38463	0	0	0	25205	23800	133428	27402	1012620	42069	109319	0	0	8308	535967	0	0
2024-06-13 21:49:32			0	38482	0	0	0	25210	23800	133352	27138	1012638	42068	109321	0	0	8308	535237	0	0
2024-06-13 21:50:32			0	38496	0	0	0	25197	23800	133392	26948	1012727	42069	109316	0	0	8309	534700	0	0
2024-06-13 21:51:32			0	38487	0	0	0	25194	23800	133404	26880	1012665	42068	109315	0	0	8309	535045	0	0
2024-06-13 21:52:32			0	38484	0	0	0	25197	23800	133408	27034	1012673	42057	109316	0	0	8309	535160	0	0
2024-06-13 21:53:32			0	38481	0	0	0	25197	23800	133396	27017	1012611	42068	109316	0	0	8309	535276	0	0
2024-06-13 21:54:32			0	38505	0	0	0	25186	23790	133456	27275	1012603	42055	109312	0	0	8310	534385	0	0
2024-06-13 21:55:32			0	38498	0	0	0	25189	23790	133380	27170	1012629	42055	109313	0	0	8310	534653	0	0
2024-06-13 21:56:32			0	38512	0	0	0	25184	23800	133380	26909	1012558	42079	109311	0	0	8310	534086	0	0
2024-06-13 21:57:32			0	38494	0	0	0	25189	23790	133352	27114	1012567	42066	109313	0	0	8309	534807	0	0
2024-06-13 21:58:32			0	38509	0	0	0	25186	23790	133360	27156	1012621	42055	109312	0	0	8310	534231	0	0
2024-06-13 21:59:32			0	38523	0	0	0	25184	23790	133404	26998	1012683	42067	109311	0	0	8311	533694	0	0
2024-06-13 22:00:32			0	38498	0	0	0	25192	23790	133356	26849	1012567	42043	109314	0	0	8310	534653	0	0
2024-06-13 22:01:32			0	38516	0	0	0	25173	23790	133368	27074	1012594	42055	109307	0	0	8311	533963	0	0
2024-06-13 22:02:32			0	38510	0	0	0	25179	23790	133268	26982	1012567	42066	109309	0	0	8310	534193	0	0
2024-06-13 22:03:32			0	38516	0	0	0	25184	23780	133284	27086	1012604	42055	109311	0	0	8311	533993	0	0
2024-06-13 22:04:32			0	38527	0	0	0	25179	23780	133308	26847	1012604	42066	109309	0	0	8311	533571	0	0
2024-06-13 22:05:32			0	38526	0	0	0	25168	23790	133204	27007	1012594	42066	109305	0	0	8311	533579	0	0
2024-06-13 22:06:32			0	38540	0	0	0	25179	23770	133220	27156	1012569	42065	109309	0	0	8312	533103	0	0
2024-06-13 22:07:32			0	38535	0	0	0	25176	23780	133284	27457	1012604	42066	109308	0	0	8312	533264	0	0
2024-06-13 22:08:32			0	38544	0	0	0	25181	23780	133288	27069	1012505	42077	109310	0	0	8312	532920	0	0
2024-06-13 22:09:32			0	38544	0	0	0	25173	23770	133220	27090	1012515	42054	109307	0	0	8312	532950	0	0
2024-06-13 22:10:32			0	38549	0	0	0	25173	23780	133236	27310	1012604	42055	109307	0	0	8312	532728	0	0
2024-06-13 22:11:32			0	38554	0	0	0	25186	23760	133180	26972	1012551	42064	109312	0	0	8312	532597	0	0
2024-06-13 22:12:32			0	38570	0	0	0	25184	23790	133240	27022	1012567	42066	109311	0	0	8313	531894	0	0
2024-06-13 22:13:32			0	38555	0	0	0	25179	23780	133204	27319	1012559	42066	109309	0	0	8313	532498	0	0
2024-06-13 22:14:32			0	38564	0	0	0	25176	23780	133128	27076	1012559	42066	109308	0	0	8313	532154	0	0
2024-06-13 22:15:32			0	38563	0	0	0	25168	23770	133220	27178	1012542	42065	109305	0	0	8313	532222	0	0
2024-06-13 22:16:32			0	38549	0	0	0	25176	23770	133200	27150	1012595	42042	109308	0	0	8312	532758	0	0
2024-06-13 22:17:32			0	38555	0	0	0	25166	23770	133212	27144	1012462	42076	109304	0	0	8313	532528	0	0
2024-06-13 22:18:32			0	38581	0	0	0	25163	23760	133132	27251	1012471	42064	109303	0	0	8314	531563	0	0
2024-06-13 22:19:32			0	38583	0	0	0	25150	23760	133180	26984	1012445	42053	109298	0	0	8315	531487	0	0
2024-06-13 22:20:32			0	38614	0	0	0	25150	23760	133140	27183	1012463	42064	109298	0	0	8316	530303	0	0
2024-06-13 22:21:32			0	38588	0	0	0	25148	23760	133064	27438	1012383	42064	109297	0	0	8315	531296	0	0
2024-06-13 22:22:32			0	38607	0	0	0	25142	23750	133096	26968	1012454	42063	109295	0	0	8316	530600	0	0
2024-06-13 22:23:32			0	38610	0	0	0	25140	23750	133080	27012	1012339	42062	109294	0	0	8316	530485	0	0
2024-06-13 22:24:32			0	38619	0	0	0	25137	23740	133036	27268	1012437	42051	109293	0	0	8317	530171	0	0
2024-06-13 22:25:32			0	38615	0	0	0	25135	23750	133028	27345	1012446	42062	109292	0	0	8316	530294	0	0
2024-06-13 22:26:32			0	38638	0	0	0	25132	23750	133028	26970	1012339	42062	109291	0	0	8318	529416	0	0
2024-06-13 22:27:32			0	38623	0	0	0	25127	23730	132944	26974	1012366	42050	109289	0	0	8317	530048	0	0
2024-06-13 22:28:32			0	38643	0	0	0	25129	23730	132936	26802	1012340	42040	109290	0	0	8318	529285	0	0
2024-06-13 22:29:32			0	38635	0	0	0	25127	23740	132932	27039	1012384	42062	109289	0	0	8318	529561	0	0
2024-06-13 22:30:32			0	38647	0	0	0	25119	23720	132968	27007	1012331	42049	109286	0	0	8318	529162	0	0
2024-06-13 22:31:32			0	38642	0	0	0	25114	23720	132980	27182	1012278	42049	109284	0	0	8318	529353	0	0
2024-06-13 22:32:32			0	38644	0	0	0	25119	23720	132912	26677	1012331	42060	109286	0	0	8318	529277	0	0
2024-06-13 22:33:32			0	38647	0	0	0	25116	23720	133012	27194	1012331	42049	109285	0	0	8318	529162	0	0
2024-06-13 22:34:32			0	38645	0	0	0	25116	23710	132900	27204	1012314	42048	109285	0	0	8318	529268	0	0
2024-06-13 22:35:32			0	38669	0	0	0	25114	23710	132972	27008	1012306	42048	109284	0	0	8319	528353	0	0
2024-06-13 22:36:32			0	38656	0	0	0	25124	23710	132900	26859	1012314	42038	109288	0	0	8319	528849	0	0
2024-06-13 22:37:32			0	38640	0	0	0	25109	23710	132884	26982	1012287	42071	109282	0	0	8318	529459	0	0
2024-06-13 22:38:32			0	38670	0	0	0	25111	23710	132892	27327	1012394	42038	109283	0	0	8319	528315	0	0
2024-06-13 22:39:32			0	38658	0	0	0	25116	23710	132892	26880	1012341	42060	109285	0	0	8319	528773	0	0
2024-06-13 22:40:32			0	38658	0	0	0	25116	23710	132828	26719	1012287	42060	109285	0	0	8319	528773	0	0
2024-06-13 22:41:32			0	38656	0	0	0	25114	23720	132844	27265	1012296	42071	109284	0	0	8319	528819	0	0
2024-06-13 22:42:32			0	38651	0	0	0	25127	23710	132920	27019	1012279	42048	109289	0	0	8318	529040	0	0
2024-06-13 22:43:32			0	38662	0	0	0	25124	23710	132880	26908	1012332	42060	109288	0	0	8319	528620	0	0
2024-06-13 22:44:32			0	38675	0	0	0	25106	23720	132828	27173	1012278	42060	109281	0	0	8320	528095	0	0
2024-06-13 22:45:32			0	38670	0	0	0	25111	23700	132832	26894	1012297	42070	109283	0	0	8319	528345	0	0
2024-06-13 22:46:32			0	38647	0	0	0	25109	23700	132868	26726	1012270	42059	109282	0	0	8318	529222	0	0
2024-06-13 22:47:32			0	38669	0	0	0	25106	23710	132904	26975	1012306	42060	109281	0	0	8320	528353	0	0
2024-06-13 22:48:32			0	38666	0	0	0	25111	23700	132916	27069	1012297	42047	109283	0	0	8319	528497	0	0
2024-06-13 22:49:32			0	38647	0	0	0	25106	23700	132940	27163	1012270	42047	109281	0	0	8318	529222	0	0
2024-06-13 22:50:32			0	38657	0	0	0	25109	23710	132916	27118	1012279	42038	109282	0	0	8319	528811	0	0
2024-06-13 22:51:32			0	38652	0	0	0	25106	23710	132944	27098	1012252	42060	109281	0	0	8319	529001	0	0
2024-06-13 22:52:32			0	38660	0	0	0	25101	23700	132904	27038	1012262	42046	109279	0	0	8319	528726	0	0
2024-06-13 22:53:32			0	38642	0	0	0	25103	23700	132880	26937	1012217	42047	109280	0	0	8318	529413	0	0
2024-06-13 22:54:32			0	38655	0	0	0	25106	23700	132872	26842	1012217	42037	109281	0	0	8319	528917	0	0
2024-06-13 22:55:32			0	38655	0	0	0	25103	23700	132956	27050	1012235	42046	109280	0	0	8319	528917	0	0
2024-06-13 22:56:32			0	38623	0	0	0	25101	23710	132948	26975	1012225	42048	109279	0	0	8317	530108	0	0
2024-06-13 22:57:32			0	38643	0	0	0	25096	23690	132912	27208	1012200	42058	109277	0	0	8318	529404	0	0
2024-06-13 22:58:32			0	38643	0	0	0	25109	23700	132940	26946	1012262	42046	109282	0	0	8318	529374	0	0
2024-06-13 22:59:32			0	38643	0	0	0	25101	23700	132992	27230	1012235	42058	109279	0	0	8318	529374	0	0
2024-06-13 23:00:32			0	38649	0	0	0	25103	23700	132976	26850	1012262	42058	109280	0	0	8318	529146	0	0
2024-06-13 23:01:32			0	38629	0	0	0	25103	23700	132928	26902	1012235	42058	109280	0	0	8317	529909	0	0
2024-06-13 23:02:32			0	38651	0	0	0	25101	23690	132892	27265	1012271	42058	109279	0	0	8319	529099	0	0
2024-06-13 23:03:32			0	38656	0	0	0	25106	23690	133060	27289	1012200	42058	109281	0	0	8319	528908	0	0
2024-06-13 23:04:32			0	38632	0	0	0	25101	23690	132984	26849	1012191	42046	109279	0	0	8318	529824	0	0
2024-06-13 23:05:32			0	38621	0	0	0	25098	23690	133068	27102	1012165	42058	109278	0	0	8317	530244	0	0
2024-06-13 23:06:32			0	38626	0	0	0	25090	23690	132996	26996	1012165	42058	109275	0	0	8317	530053	0	0
2024-06-13 23:07:32			0	38637	0	0	0	25088	23690	133040	26902	1012218	42058	109274	0	0	8318	529633	0	0
2024-06-13 23:08:32			0	38628	0	0	0	25088	23680	132896	27078	1012156	42057	109274	0	0	8318	530007	0	0
2024-06-13 23:09:32			0	38664	0	0	0	25088	23680	132976	26816	1012182	42057	109274	0	0	8319	528633	0	0
2024-06-13 23:10:32			0	38634	0	0	0	25085	23670	132872	27145	1012085	42056	109273	0	0	8318	529807	0	0
2024-06-13 23:11:32			0	38634	0	0	0	25083	23670	132880	27072	1012085	42056	109272	0	0	8318	529807	0	0
2024-06-13 23:12:32			0	38625	0	0	0	25080	23680	132940	27029	1012156	42046	109271	0	0	8318	530121	0	0
2024-06-13 23:13:32			0	38638	0	0	0	25080	23680	132944	27112	1012147	42034	109271	0	0	8318	529625	0	0
2024-06-13 23:14:32			0	38639	0	0	0	25070	23670	132992	27088	1012085	42034	109267	0	0	8318	529617	0	0
2024-06-13 23:15:32			0	38623	0	0	0	25070	23670	132972	26982	1012103	42045	109267	0	0	8318	530227	0	0
2024-06-13 23:16:32			0	38653	0	0	0	25057	23660	132984	26902	1011988	42044	109262	0	0	8319	529112	0	0
2024-06-13 23:17:32			0	38646	0	0	0	25054	23670	132932	26889	1011996	42056	109261	0	0	8319	529349	0	0
2024-06-13 23:18:32			0	38668	0	0	0	25049	23660	132908	26941	1012015	42033	109259	0	0	8320	528540	0	0
2024-06-13 23:19:32			0	38670	0	0	0	25044	23660	132820	27156	1011961	42044	109257	0	0	8320	528464	0	0
2024-06-13 23:20:32			0	38684	0	0	0	25036	23650	132868	26922	1011998	42043	109254	0	0	8321	527960	0	0
2024-06-13 23:21:32			0	38689	0	0	0	25031	23640	132908	27533	1011954	42042	109252	0	0	8322	527799	0	0
2024-06-13 23:22:32			0	38693	0	0	0	25036	23640	132916	27306	1011980	42042	109254	0	0	8322	527647	0	0
2024-06-13 23:23:32			0	38670	0	0	0	25036	23640	132872	26932	1011892	42041	109254	0	0	8320	528524	0	0
2024-06-13 23:24:32			0	38689	0	0	0	25028	23640	132872	27159	1011945	42041	109251	0	0	8322	527799	0	0
2024-06-13 23:25:32			0	38681	0	0	0	25025	23630	132844	27116	1011910	42041	109250	0	0	8321	528134	0	0
2024-06-13 23:26:32			0	38665	0	0	0	25025	23640	132884	27041	1011900	42053	109250	0	0	8320	528714	0	0
2024-06-13 23:27:32			0	38648	0	0	0	25025	23630	132956	27100	1011963	42041	109250	0	0	8319	529392	0	0
2024-06-13 23:28:32			0	38663	0	0	0	25031	23630	132880	27071	1011928	42041	109252	0	0	8320	528820	0	0
2024-06-13 23:29:32			0	38660	0	0	0	25025	23630	132952	27017	1011875	42041	109250	0	0	8320	528935	0	0
2024-06-13 23:30:32			0	38660	0	0	0	25025	23630	132956	27208	1011901	42041	109250	0	0	8320	528935	0	0
2024-06-13 23:31:32			0	38636	0	0	0	25020	23640	132968	27098	1011892	42052	109248	0	0	8319	529820	0	0
2024-06-13 23:32:32			0	38642	0	0	0	25007	23620	133004	27364	1011866	42051	109243	0	0	8319	529651	0	0
2024-06-13 23:33:32			0	38649	0	0	0	25012	23620	132936	27159	1011858	42050	109245	0	0	8320	529384	0	0
2024-06-13 23:34:32			0	38639	0	0	0	25005	23610	133020	27072	1011822	42039	109242	0	0	8319	529795	0	0
2024-06-13 23:35:32			0	38646	0	0	0	25012	23620	132964	27452	1011804	42029	109245	0	0	8320	529498	0	0
2024-06-13 23:36:32			0	38620	0	0	0	25005	23610	133120	27253	1011796	42049	109242	0	0	8318	530521	0	0
2024-06-13 23:37:32			0	38628	0	0	0	24997	23610	133080	26939	1011840	42049	109239	0	0	8319	530215	0	0
2024-06-13 23:38:32			0	38630	0	0	0	24997	23620	133020	27260	1011777	42050	109239	0	0	8319	530109	0	0
2024-06-13 23:39:32			0	38622	0	0	0	24997	23620	133036	26868	1011831	42040	109239	0	0	8319	530415	0	0
2024-06-13 23:40:32			0	38648	0	0	0	24997	23590	133032	27163	1011788	42037	109239	0	0	8320	529511	0	0
2024-06-13 23:41:32			0	38631	0	0	0	24989	23600	133052	27039	1011725	42039	109236	0	0	8319	530131	0	0
2024-06-13 23:42:32			0	38669	0	0	0	24986	23590	132960	27249	1011708	42037	109235	0	0	8321	528710	0	0
2024-06-13 23:43:32			0	38638	0	0	0	24989	23590	132980	27197	1011761	42048	109236	0	0	8319	529893	0	0
2024-06-13 23:44:32			0	38644	0	0	0	24986	23600	132972	26975	1011805	42039	109235	0	0	8320	529634	0	0
2024-06-13 23:45:32			0	38628	0	0	0	24979	23590	133028	27246	1011761	42048	109232	0	0	8319	530275	0	0
2024-06-13 23:46:32			0	38647	0	0	0	24986	23600	132980	27322	1011725	42039	109235	0	0	8320	529520	0	0
2024-06-13 23:47:32			0	38636	0	0	0	24989	23590	133032	27265	1011761	42037	109236	0	0	8319	529969	0	0
2024-06-13 23:48:32			0	38616	0	0	0	24992	23590	132976	27220	1011699	42048	109237	0	0	8318	530734	0	0
2024-06-13 23:49:32			0	38606	0	0	0	24992	23580	133040	27326	1011736	42036	109237	0	0	8318	531146	0	0
2024-06-13 23:50:32			0	38597	0	0	0	24981	23590	133212	27039	1011753	42059	109233	0	0	8317	531460	0	0
2024-06-13 23:51:32			0	38610	0	0	0	24992	23600	133168	27008	1011770	42038	109237	0	0	8318	530933	0	0
2024-06-13 23:52:32			0	38600	0	0	0	24997	23600	133196	27144	1011716	42049	109239	0	0	8317	531316	0	0
2024-06-13 23:53:32			0	38596	0	0	0	24994	23590	133164	27164	1011780	42048	109238	0	0	8317	531498	0	0
2024-06-13 23:54:32			0	38583	0	0	0	24992	23600	133156	27166	1011770	42049	109237	0	0	8317	531966	0	0
2024-06-13 23:55:32			0	38591	0	0	0	24997	23600	133216	27274	1011716	42049	109239	0	0	8317	531660	0	0
2024-06-13 23:56:32			0	38572	0	0	0	24992	23590	133276	27275	1011761	42026	109237	0	0	8316	532417	0	0
2024-06-13 23:57:32			0	38599	0	0	0	24989	23590	133232	27232	1011815	42059	109236	0	0	8317	531384	0	0
2024-06-13 23:58:32			0	38581	0	0	0	24999	23600	133176	27249	1011770	42027	109240	0	0	8316	532042	0	0
2024-06-13 23:59:32			0	38547	0	0	0	24994	23590	133272	26982	1011761	42037	109238	0	0	8315	533375	0	0
2024-06-14 00:00:32			0	38571	0	0	0	24992	23590	133264	27222	1011815	42037	109237	0	0	8316	532455	0	0
2024-06-14 00:01:32			0	38571	0	0	0	24992	23600	133244	26809	1011743	42049	109237	0	0	8316	532425	0	0
2024-06-14 00:02:32			0	38563	0	0	0	25005	23600	133224	27320	1011797	42027	109242	0	0	8315	532732	0	0
2024-06-14 00:03:32			0	38553	0	0	0	24992	23600	133312	27209	1011770	42049	109237	0	0	8315	533115	0	0
2024-06-14 00:04:32			0	38574	0	0	0	24992	23590	133300	26850	1011708	42059	109237	0	0	8316	532340	0	0
2024-06-14 00:05:32			0	38545	0	0	0	24992	23590	133280	26923	1011815	42026	109237	0	0	8315	533452	0	0
2024-06-14 00:06:32			0	38543	0	0	0	24989	23590	133324	27045	1011708	42026	109236	0	0	8314	533528	0	0
2024-06-14 00:07:32			0	38552	0	0	0	24981	23590	133280	27156	1011708	42037	109233	0	0	8315	533183	0	0
2024-06-14 00:08:32			0	38562	0	0	0	24989	23600	133244	26892	1011716	42060	109236	0	0	8316	532770	0	0
2024-06-14 00:09:32			0	38558	0	0	0	24992	23580	133232	27062	1011736	42047	109237	0	0	8315	532983	0	0
2024-06-14 00:10:32			0	38574	0	0	0	24979	23580	133292	27280	1011664	42047	109232	0	0	8316	532370	0	0
2024-06-14 00:11:32			0	38582	0	0	0	24981	23580	133272	26764	1011691	42058	109233	0	0	8317	532064	0	0
2024-06-14 00:12:32			0	38563	0	0	0	24981	23590	133244	26935	1011699	42048	109233	0	0	8316	532762	0	0
2024-06-14 00:13:32			0	38581	0	0	0	24974	23580	133232	26939	1011744	42036	109230	0	0	8317	532102	0	0
2024-06-14 00:14:32			0	38586	0	0	0	24976	23580	133196	26741	1011682	42047	109231	0	0	8317	531911	0	0
2024-06-14 00:15:32			0	38570	0	0	0	24976	23580	133128	27144	1011664	42036	109231	0	0	8316	532523	0	0
2024-06-14 00:16:32			0	38593	0	0	0	24968	23580	133200	26986	1011691	42047	109228	0	0	8317	531643	0	0
2024-06-14 00:17:32			0	38595	0	0	0	24963	23570	133176	27164	1011673	42036	109226	0	0	8318	531596	0	0
2024-06-14 00:18:32			0	38603	0	0	0	24961	23560	133128	27303	1011576	42035	109225	0	0	8318	531320	0	0
2024-06-14 00:19:32			0	38595	0	0	0	24950	23560	133240	27161	1011594	42045	109221	0	0	8318	531626	0	0
2024-06-14 00:20:32			0	38599	0	0	0	24948	23570	133208	27267	1011585	42036	109220	0	0	8318	531443	0	0
2024-06-14 00:21:32			0	38602	0	0	0	24945	23560	133216	27310	1011594	42035	109219	0	0	8318	531358	0	0
2024-06-14 00:22:32			0	38615	0	0	0	24950	23560	133188	26838	1011594	42035	109221	0	0	8319	530861	0	0
2024-06-14 00:23:32			0	38615	0	0	0	24948	23560	133076	27055	1011594	42045	109220	0	0	8319	530861	0	0
2024-06-14 00:24:32			0	38605	0	0	0	24937	23550	133048	27067	1011559	42034	109216	0	0	8318	531274	0	0
2024-06-14 00:25:32			0	38613	0	0	0	24945	23560	133184	27045	1011567	42045	109219	0	0	8319	530938	0	0
2024-06-14 00:26:32			0	38610	0	0	0	24929	23550	133080	27150	1011550	42033	109213	0	0	8319	531082	0	0
2024-06-14 00:27:32			0	38621	0	0	0	24945	23560	133084	27369	1011567	42045	109219	0	0	8319	530632	0	0
2024-06-14 00:28:32			0	38608	0	0	0	24942	23550	132992	26908	1011550	42043	109218	0	0	8318	531159	0	0
2024-06-14 00:29:32			0	38620	0	0	0	24937	23550	133100	27308	1011559	42022	109216	0	0	8319	530700	0	0
2024-06-14 00:30:32			0	38624	0	0	0	24935	23540	133152	27450	1011515	42033	109215	0	0	8319	530577	0	0
2024-06-14 00:31:32			0	38615	0	0	0	24937	23540	133076	27145	1011506	42043	109216	0	0	8319	530921	0	0
2024-06-14 00:32:32			0	38627	0	0	0	24935	23550	132984	27048	1011550	42043	109215	0	0	8320	530433	0	0
2024-06-14 00:33:32			0	38637	0	0	0	24942	23540	133144	26944	1011542	42043	109218	0	0	8320	530080	0	0
2024-06-14 00:34:32			0	38629	0	0	0	24935	23550	133040	27183	1011524	42054	109215	0	0	8320	530356	0	0
2024-06-14 00:35:32			0	38616	0	0	0	24932	23550	133024	27220	1011524	42033	109214	0	0	8319	530853	0	0
2024-06-14 00:36:32			0	38629	0	0	0	24937	23540	133092	27123	1011542	42043	109216	0	0	8320	530386	0	0
2024-06-14 00:37:32			0	38620	0	0	0	24935	23540	133096	27138	1011542	42043	109215	0	0	8319	530730	0	0
2024-06-14 00:38:32			0	38623	0	0	0	24940	23540	133064	27022	1011568	42043	109217	0	0	8319	530615	0	0
2024-06-14 00:39:32			0	38620	0	0	0	24929	23540	133048	27185	1011542	42033	109213	0	0	8319	530730	0	0
2024-06-14 00:40:32			0	38625	0	0	0	24932	23530	133060	27268	1011551	42054	109214	0	0	8319	530569	0	0
2024-06-14 00:41:32			0	38634	0	0	0	24940	23540	133112	26618	1011560	42043	109217	0	0	8320	530195	0	0
2024-06-14 00:42:32			0	38623	0	0	0	24935	23540	133148	27015	1011560	42033	109215	0	0	8319	530615	0	0
2024-06-14 00:43:32			0	38624	0	0	0	24935	23540	133104	26727	1011506	42043	109215	0	0	8319	530577	0	0
2024-06-14 00:44:32			0	38632	0	0	0	24929	23540	133092	27039	1011568	42043	109213	0	0	8320	530271	0	0
2024-06-14 00:45:32			0	38621	0	0	0	24927	23520	133036	26911	1011534	42031	109212	0	0	8319	530751	0	0
2024-06-14 00:46:32			0	38626	0	0	0	24924	23530	133080	26868	1011489	42041	109211	0	0	8320	530530	0	0
2024-06-14 00:47:32			0	38620	0	0	0	24929	23530	133040	26870	1011498	42042	109213	0	0	8319	530760	0	0
2024-06-14 00:48:32			0	38635	0	0	0	24924	23530	133100	27001	1011489	42041	109211	0	0	8320	530187	0	0
2024-06-14 00:49:32			0	38637	0	0	0	24924	23530	133084	26873	1011463	42053	109211	0	0	8320	530110	0	0
2024-06-14 00:50:32			0	38619	0	0	0	24919	23520	133084	27093	1011481	42041	109209	0	0	8319	530828	0	0
2024-06-14 00:51:32			0	38629	0	0	0	24919	23520	133040	26625	1011454	42008	109209	0	0	8320	530446	0	0
2024-06-14 00:52:32			0	38664	0	0	0	24919	23530	133060	27213	1011436	42053	109209	0	0	8322	529079	0	0
2024-06-14 00:53:32			0	38646	0	0	0	24916	23530	133032	26831	1011383	42031	109208	0	0	8321	529766	0	0
2024-06-14 00:54:32			0	38625	0	0	0	24919	23530	132980	27062	1011409	42041	109209	0	0	8320	530569	0	0
2024-06-14 00:55:32			0	38643	0	0	0	24911	23520	133052	27225	1011427	42041	109206	0	0	8321	529911	0	0
2024-06-14 00:56:32			0	38646	0	0	0	24916	23520	133100	27026	1011481	42031	109208	0	0	8321	529796	0	0
2024-06-14 00:57:32			0	38641	0	0	0	24911	23520	133100	26828	1011472	42030	109206	0	0	8321	529987	0	0
2024-06-14 00:58:32			0	38655	0	0	0	24916	23520	133076	26812	1011472	42030	109208	0	0	8321	529453	0	0
2024-06-14 00:59:32			0	38656	0	0	0	24924	23510	133032	26828	1011464	42041	109211	0	0	8321	529444	0	0
2024-06-14 01:00:32			0	38660	0	0	0	24927	23520	133088	26928	1011472	42041	109212	0	0	8321	529262	0	0
2024-06-14 01:01:32			0	38659	0	0	0	24922	23530	133044	26840	1011436	42041	109210	0	0	8321	529270	0	0
2024-06-14 01:02:32			0	38661	0	0	0	24927	23530	133004	27114	1011489	42041	109212	0	0	8321	529194	0	0
2024-06-14 01:03:32			0	38638	0	0	0	24927	23530	132968	27218	1011489	42041	109212	0	0	8320	530072	0	0
2024-06-14 01:04:32			0	38676	0	0	0	24940	23540	133124	27081	1011480	42043	109217	0	0	8322	528592	0	0
2024-06-14 01:05:32			0	38622	0	0	0	24935	23530	133104	27124	1011516	42031	109215	0	0	8319	530683	0	0
2024-06-14 01:06:32			0	38638	0	0	0	24932	23530	133064	27281	1011489	42020	109214	0	0	8320	530072	0	0
2024-06-14 01:07:32			0	38636	0	0	0	24927	23530	133136	27081	1011489	42053	109212	0	0	8320	530148	0	0
2024-06-14 01:08:32			0	38632	0	0	0	24940	23530	133172	27204	1011525	42032	109217	0	0	8320	530301	0	0
2024-06-14 01:09:32			0	38625	0	0	0	24940	23520	133116	27161	1011481	42041	109217	0	0	8319	530599	0	0
2024-06-14 01:10:32			0	38603	0	0	0	24935	23530	133148	26970	1011471	42042	109215	0	0	8318	531410	0	0
2024-06-14 01:11:32			0	38618	0	0	0	24940	23520	133124	27159	1011454	42041	109217	0	0	8319	530866	0	0
2024-06-14 01:12:32			0	38614	0	0	0	24940	23530	133200	27164	1011551	42042	109217	0	0	8319	530989	0	0
2024-06-14 01:13:32			0	38592	0	0	0	24940	23530	133164	27052	1011489	42041	109217	0	0	8318	531831	0	0
2024-06-14 01:14:32			0	38611	0	0	0	24932	23540	133136	27424	1011533	42054	109214	0	0	8319	531074	0	0
2024-06-14 01:15:32			0	38631	0	0	0	24935	23540	133160	27272	1011506	42022	109215	0	0	8320	530310	0	0
2024-06-14 01:16:32			0	38624	0	0	0	24935	23530	133084	27223	1011578	42042	109215	0	0	8319	530607	0	0
2024-06-14 01:17:32			0	38622	0	0	0	24935	23540	133008	26889	1011587	42054	109215	0	0	8319	530653	0	0
2024-06-14 01:18:32			0	38623	0	0	0	24937	23530	133120	27085	1011471	42042	109216	0	0	8319	530645	0	0
2024-06-14 01:19:32			0	38627	0	0	0	24929	23540	133144	27182	1011533	42033	109213	0	0	8320	530463	0	0
2024-06-14 01:20:32			0	38618	0	0	0	24919	23530	133064	27395	1011463	42031	109209	0	0	8319	530836	0	0
2024-06-14 01:21:32			0	38634	0	0	0	24929	23530	133100	26873	1011498	42054	109213	0	0	8320	530225	0	0
2024-06-14 01:22:32			0	38622	0	0	0	24924	23530	133080	27135	1011543	42041	109211	0	0	8319	530683	0	0
2024-06-14 01:23:32			0	38642	0	0	0	24922	23530	133120	27362	1011436	42031	109210	0	0	8320	529919	0	0
2024-06-14 01:24:32			0	38653	0	0	0	24919	23520	132964	26797	1011454	42053	109209	0	0	8321	529529	0	0
2024-06-14 01:25:32			0	38650	0	0	0	24916	23520	133068	27020	1011427	42031	109208	0	0	8321	529644	0	0
2024-06-14 01:26:32			0	38634	0	0	0	24924	23530	132972	27253	1011489	42041	109211	0	0	8320	530225	0	0
2024-06-14 01:27:32			0	38655	0	0	0	24909	23530	133024	26989	1011463	42041	109205	0	0	8321	529423	0	0
2024-06-14 01:28:32			0	38654	0	0	0	24922	23520	133016	26977	1011481	42008	109210	0	0	8321	529491	0	0
2024-06-14 01:29:32			0	38654	0	0	0	24916	23520	132988	27000	1011419	42052	109208	0	0	8321	529491	0	0
2024-06-14 01:30:32			0	38655	0	0	0	24919	23520	132964	27400	1011499	42052	109209	0	0	8321	529453	0	0
2024-06-14 01:31:32			0	38672	0	0	0	24924	23520	132948	27393	1011472	42041	109211	0	0	8322	528804	0	0
2024-06-14 01:32:32			0	38669	0	0	0	24924	23530	133020	27296	1011489	42041	109211	0	0	8322	528889	0	0
2024-06-14 01:33:32			0	38674	0	0	0	24919	23520	132908	27376	1011508	42053	109209	0	0	8322	528728	0	0
2024-06-14 01:34:32			0	38688	0	0	0	24916	23510	132912	27197	1011410	42041	109208	0	0	8323	528224	0	0
2024-06-14 01:35:32			0	38681	0	0	0	24916	23520	132968	27216	1011446	42030	109208	0	0	8323	528461	0	0
2024-06-14 01:36:32			0	38685	0	0	0	24914	23520	132948	27161	1011427	42031	109207	0	0	8323	528308	0	0
2024-06-14 01:37:32			0	38691	0	0	0	24909	23520	132900	27244	1011427	42031	109205	0	0	8323	528080	0	0
2024-06-14 01:38:32			0	38675	0	0	0	24911	23520	132920	27350	1011419	42030	109206	0	0	8322	528690	0	0
2024-06-14 01:39:32			0	38671	0	0	0	24914	23510	132836	27123	1011410	42052	109207	0	0	8322	528872	0	0
2024-06-14 01:40:32			0	38689	0	0	0	24911	23510	132900	27305	1011437	42041	109206	0	0	8323	528186	0	0
2024-06-14 01:41:32			0	38679	0	0	0	24914	23520	132896	27078	1011446	42030	109207	0	0	8322	528537	0	0
2024-06-14 01:42:32			0	38690	0	0	0	24903	23510	132892	27284	1011375	42051	109203	0	0	8323	528147	0	0
2024-06-14 01:43:32			0	38685	0	0	0	24911	23520	132916	27282	1011472	42041	109206	0	0	8323	528308	0	0
2024-06-14 01:44:32			0	38694	0	0	0	24901	23520	132888	27452	1011392	42030	109202	0	0	8323	527965	0	0
2024-06-14 01:45:32			0	38685	0	0	0	24898	23500	132856	27218	1011367	42040	109201	0	0	8323	528368	0	0
2024-06-14 01:46:32			0	38694	0	0	0	24901	23520	132884	27341	1011392	42030	109202	0	0	8323	527965	0	0
2024-06-14 01:47:32			0	38710	0	0	0	24901	23500	132900	27341	1011420	42040	109202	0	0	8324	527415	0	0
2024-06-14 01:48:32			0	38693	0	0	0	24898	23510	132904	27492	1011384	42030	109201	0	0	8323	528033	0	0
2024-06-14 01:49:32			0	38690	0	0	0	24890	23500	132916	27208	1011367	42018	109198	0	0	8323	528177	0	0
2024-06-14 01:50:32			0	38707	0	0	0	24885	23510	132804	27383	1011384	42041	109196	0	0	8324	527500	0	0
2024-06-14 01:51:32			0	38700	0	0	0	24890	23500	132832	27632	1011286	42029	109198	0	0	8324	527796	0	0
2024-06-14 01:52:32			0	38714	0	0	0	24890	23500	132824	27341	1011313	42018	109198	0	0	8325	527263	0	0
2024-06-14 01:53:32			0	38701	0	0	0	24888	23490	132868	27291	1011287	42049	109197	0	0	8324	527788	0	0
2024-06-14 01:54:32			0	38714	0	0	0	24890	23500	132828	27289	1011358	42040	109198	0	0	8325	527263	0	0
2024-06-14 01:55:32			0	38714	0	0	0	24888	23500	132824	27550	1011367	42029	109197	0	0	8325	527263	0	0
2024-06-14 01:56:32			0	38713	0	0	0	24888	23490	132868	27253	1011349	42028	109197	0	0	8325	527330	0	0
2024-06-14 01:57:32			0	38713	0	0	0	24896	23500	132820	27312	1011278	42040	109200	0	0	8324	527301	0	0
2024-06-14 01:58:32			0	38687	0	0	0	24890	23480	132800	27332	1011332	42039	109198	0	0	8323	528351	0	0
2024-06-14 01:59:32			0	38708	0	0	0	24888	23500	132836	27211	1011278	42050	109197	0	0	8324	527491	0	0
2024-06-14 02:00:32			0	38724	0	0	0	24896	23500	132792	27029	1011331	42040	109200	0	0	8325	526882	0	0
2024-06-14 02:01:32			0	38731	0	0	0	24877	23500	132792	27414	1011251	42028	109193	0	0	8326	526616	0	0
2024-06-14 02:02:32			0	38712	0	0	0	24885	23490	132816	27105	1011314	42049	109196	0	0	8325	527369	0	0
2024-06-14 02:03:32			0	38734	0	0	0	24885	23490	132792	27464	1011296	42040	109196	0	0	8326	526531	0	0
2024-06-14 02:04:32			0	38707	0	0	0	24870	23500	132860	27017	1011305	42028	109190	0	0	8325	527529	0	0
2024-06-14 02:05:32			0	38719	0	0	0	24883	23490	132912	27293	1011269	42028	109195	0	0	8325	527102	0	0
2024-06-14 02:06:32			0	38715	0	0	0	24877	23490	132880	27242	1011323	42050	109193	0	0	8325	527254	0	0
2024-06-14 02:07:32			0	38702	0	0	0	24888	23480	132848	27351	1011306	42039	109197	0	0	8324	527779	0	0
2024-06-14 02:08:32			0	38717	0	0	0	24888	23500	132776	27457	1011331	42050	109197	0	0	8325	527149	0	0
2024-06-14 02:09:32			0	38714	0	0	0	24890	23500	132832	27341	1011358	42050	109198	0	0	8325	527263	0	0
2024-06-14 02:10:32			0	38699	0	0	0	24893	23500	132884	27216	1011340	42051	109199	0	0	8324	527834	0	0
2024-06-14 02:11:32			0	38690	0	0	0	24893	23500	132820	27268	1011358	42028	109199	0	0	8323	528177	0	0
2024-06-14 02:12:32			0	38704	0	0	0	24885	23490	132864	27114	1011269	42050	109196	0	0	8324	527673	0	0
2024-06-14 02:13:32			0	38711	0	0	0	24885	23500	132884	27173	1011358	42040	109196	0	0	8325	527377	0	0
2024-06-14 02:14:32			0	38704	0	0	0	24885	23490	132856	27384	1011287	42049	109196	0	0	8324	527673	0	0
2024-06-14 02:15:32			0	38695	0	0	0	24883	23480	132808	26878	1011297	42048	109195	0	0	8324	528046	0	0
2024-06-14 02:16:32			0	38696	0	0	0	24890	23490	132876	27267	1011314	42039	109198	0	0	8324	527978	0	0
2024-06-14 02:17:32			0	38704	0	0	0	24896	23490	132836	27393	1011341	42039	109200	0	0	8324	527673	0	0
2024-06-14 02:18:32			0	38725	0	0	0	24883	23490	132836	27055	1011341	42016	109195	0	0	8325	526874	0	0
2024-06-14 02:19:32			0	38712	0	0	0	24898	23500	132888	27486	1011313	42029	109201	0	0	8324	527339	0	0
2024-06-14 02:20:32			0	38700	0	0	0	24893	23500	132788	27280	1011340	42040	109199	0	0	8324	527796	0	0
2024-06-14 02:21:32			0	38718	0	0	0	24885	23490	132928	27249	1011296	42050	109196	0	0	8325	527140	0	0
2024-06-14 02:22:32			0	38704	0	0	0	24880	23490	132804	27410	1011296	42017	109194	0	0	8324	527673	0	0
2024-06-14 02:23:32			0	38702	0	0	0	24888	23490	132808	27322	1011349	42050	109197	0	0	8324	527749	0	0
2024-06-14 02:24:32			0	38701	0	0	0	24875	23490	132756	26927	1011314	42027	109192	0	0	8324	527788	0	0
2024-06-14 02:25:32			0	38728	0	0	0	24875	23480	132828	27289	1011279	42049	109192	0	0	8326	526789	0	0
2024-06-14 02:26:32			0	38714	0	0	0	24877	23480	132912	27277	1011332	42039	109193	0	0	8325	527322	0	0
2024-06-14 02:27:32			0	38731	0	0	0	24888	23480	132893	27171	1011252	42049	109197	0	0	8325	526675	0	0
2024-06-14 02:28:32			0	38704	0	0	0	24883	23490	132796	27279	1011341	42027	109195	0	0	8324	527673	0	0
2024-06-14 02:29:32			0	38714	0	0	0	24888	23490	132844	27244	1011269	42040	109197	0	0	8325	527292	0	0
2024-06-14 02:30:32			0	38724	0	0	0	24885	23480	132880	27507	1011359	42039	109196	0	0	8325	526941	0	0
2024-06-14 02:31:32			0	38724	0	0	0	24888	23490	132852	27196	1011287	42039	109197	0	0	8325	526912	0	0
2024-06-14 02:32:32			0	38711	0	0	0	24885	23490	132816	26965	1011368	42039	109196	0	0	8325	527407	0	0
2024-06-14 02:33:32			0	38706	0	0	0	24883	23490	132816	27131	1011269	42040	109195	0	0	8324	527597	0	0
2024-06-14 02:34:32			0	38709	0	0	0	24885	23490	132836	27412	1011314	42049	109196	0	0	8324	527483	0	0
2024-06-14 02:35:32			0	38695	0	0	0	24875	23490	132864	27230	1011287	42039	109192	0	0	8324	528016	0	0
2024-06-14 02:36:32			0	38691	0	0	0	24883	23490	132876	26856	1011287	42027	109195	0	0	8324	528169	0	0
2024-06-14 02:37:32			0	38697	0	0	0	24877	23490	132888	27176	1011341	42039	109193	0	0	8324	527940	0	0
2024-06-14 02:38:32			0	38691	0	0	0	24872	23480	132860	27317	1011332	42039	109191	0	0	8324	528198	0	0
2024-06-14 02:39:32			0	38690	0	0	0	24875	23480	132900	27301	1011226	42039	109192	0	0	8324	528237	0	0
2024-06-14 02:40:32			0	38684	0	0	0	24864	23480	132904	27144	1011244	42026	109188	0	0	8323	528465	0	0
2024-06-14 02:41:32			0	38721	0	0	0	24864	23470	132920	27265	1011182	42025	109188	0	0	8325	527085	0	0
2024-06-14 02:42:32			0	38710	0	0	0	24864	23470	132872	27015	1011307	42025	109188	0	0	8325	527504	0	0
2024-06-14 02:43:32			0	38706	0	0	0	24875	23480	132988	26889	1011270	42048	109192	0	0	8324	527627	0	0
2024-06-14 02:44:32			0	38679	0	0	0	24896	23480	132948	27119	1011244	42038	109200	0	0	8323	528656	0	0
2024-06-14 02:45:32			0	38707	0	0	0	24906	23480	132976	27038	1011412	42049	109204	0	0	8324	527589	0	0
2024-06-14 02:46:32			0	38701	0	0	0	24911	23490	132956	27180	1011403	42050	109206	0	0	8324	527788	0	0
2024-06-14 02:47:32			0	38689	0	0	0	24919	23490	132952	27034	1011474	42049	109209	0	0	8323	528245	0	0
2024-06-14 02:48:32			0	38673	0	0	0	24924	23500	132956	27185	1011385	42050	109211	0	0	8322	528825	0	0
2024-06-14 02:49:32			0	38674	0	0	0	24927	23500	133008	26892	1011447	42040	109212	0	0	8322	528787	0	0
2024-06-14 02:50:32			0	38662	0	0	0	24932	23510	132940	27185	1011455	42051	109214	0	0	8321	529215	0	0
2024-06-14 02:51:32			0	38678	0	0	0	24929	23510	132984	26819	1011509	42062	109213	0	0	8322	528605	0	0
2024-06-14 02:52:32			0	38691	0	0	0	24950	23510	132984	27057	1011517	42052	109221	0	0	8322	528109	0	0
2024-06-14 02:53:32			0	38677	0	0	0	24945	23520	133076	26856	1011552	42052	109219	0	0	8322	528613	0	0
2024-06-14 02:54:32			0	38660	0	0	0	24948	23530	133100	26963	1011578	42054	109220	0	0	8321	529232	0	0
2024-06-14 02:55:32			0	38652	0	0	0	24953	23520	133096	27000	1011561	42053	109222	0	0	8320	529567	0	0
2024-06-14 02:56:32			0	38650	0	0	0	24950	23530	133124	26948	1011605	42042	109221	0	0	8320	529614	0	0
2024-06-14 02:57:32			0	38653	0	0	0	24966	23530	133152	26963	1011685	42042	109227	0	0	8320	529499	0	0
2024-06-14 02:58:32			0	38650	0	0	0	24963	23540	133136	27076	1011587	42043	109226	0	0	8320	529584	0	0
2024-06-14 02:59:32			0	38664	0	0	0	24963	23530	133088	27050	1011631	42054	109226	0	0	8321	529079	0	0
2024-06-14 03:00:32			0	38642	0	0	0	24968	23550	133156	27102	1011639	42055	109228	0	0	8320	529860	0	0
2024-06-14 03:01:32			0	38648	0	0	0	24971	23550	133168	26804	1011666	42055	109229	0	0	8320	529631	0	0
2024-06-14 03:02:32			0	38632	0	0	0	24976	23550	133120	26809	1011684	42054	109231	0	0	8319	530242	0	0
2024-06-14 03:03:32			0	38632	0	0	0	24976	23550	133144	27118	1011692	42044	109231	0	0	8319	530242	0	0
2024-06-14 03:04:32			0	38631	0	0	0	24971	23550	133192	27180	1011710	42054	109229	0	0	8319	530280	0	0
2024-06-14 03:05:32			0	38626	0	0	0	24968	23560	133304	27329	1011728	42056	109228	0	0	8319	530441	0	0
2024-06-14 03:06:32			0	38632	0	0	0	24963	23550	133232	26920	1011639	42044	109226	0	0	8319	530242	0	0
2024-06-14 03:07:32			0	38635	0	0	0	24963	23550	133172	27133	1011666	42044	109226	0	0	8320	530127	0	0
2024-06-14 03:08:32			0	38608	0	0	0	24966	23570	133204	26904	1011727	42057	109227	0	0	8318	531099	0	0
2024-06-14 03:09:32			0	38602	0	0	0	24958	23560	133204	27152	1011603	42035	109224	0	0	8318	531358	0	0
2024-06-14 03:10:32			0	38602	0	0	0	24963	23560	133188	26942	1011656	42056	109226	0	0	8318	531358	0	0
2024-06-14 03:11:32			0	38593	0	0	0	24968	23570	133384	27078	1011718	42057	109228	0	0	8317	531673	0	0
2024-06-14 03:12:32			0	38582	0	0	0	24966	23550	133316	27078	1011719	42055	109227	0	0	8317	532154	0	0
2024-06-14 03:13:32			0	38598	0	0	0	24968	23560	133404	27154	1011763	42035	109228	0	0	8318	531512	0	0
2024-06-14 03:14:32			0	38552	0	0	0	24971	23570	133308	27062	1011745	42046	109229	0	0	8315	533243	0	0
2024-06-14 03:15:32			0	38561	0	0	0	24968	23560	133456	27031	1011683	42056	109228	0	0	8316	532928	0	0
2024-06-14 03:16:32			0	38526	0	0	0	24974	23560	133416	27222	1011683	42056	109230	0	0	8314	534270	0	0
2024-06-14 03:17:32			0	38513	0	0	0	24955	23550	133536	27149	1011559	42044	109223	0	0	8313	534799	0	0
2024-06-14 03:18:32			0	38516	0	0	0	24940	23550	133556	27036	1011470	42033	109217	0	0	8314	534684	0	0
2024-06-14 03:19:32			0	38505	0	0	0	24914	23530	133460	26892	1011356	42020	109207	0	0	8314	535167	0	0
2024-06-14 03:20:32			0	38501	0	0	0	24890	23510	133556	27057	1011268	42029	109198	0	0	8314	535381	0	0
2024-06-14 03:21:32			0	38474	0	0	0	24867	23500	133624	27171	1011153	42029	109189	0	0	8313	536449	0	0
2024-06-14 03:22:32			0	38454	0	0	0	24844	23470	133672	27043	1011102	42025	109180	0	0	8312	537310	0	0
2024-06-14 03:23:32			0	38445	0	0	0	24828	23470	133736	26956	1011066	42025	109174	0	0	8312	537657	0	0
2024-06-14 03:24:32			0	38423	0	0	0	24805	23460	133864	27020	1010996	42025	109165	0	0	8311	538535	0	0
2024-06-14 03:25:32			0	38404	0	0	0	24784	23430	133908	26915	1010988	42023	109157	0	0	8310	539359	0	0
2024-06-14 03:26:32			0	38385	0	0	0	24774	23420	133924	27209	1010864	42011	109153	0	0	8309	540123	0	0
2024-06-14 03:27:32			0	38352	0	0	0	24766	23410	134116	27242	1010874	42021	109150	0	0	8308	541430	0	0
2024-06-14 03:28:32			0	38325	0	0	0	24755	23400	134220	27185	1010768	42030	109146	0	0	8306	542506	0	0
2024-06-14 03:29:32			0	38306	0	0	0	24755	23390	134300	27067	1010778	42041	109146	0	0	8305	543273	0	0
2024-06-14 03:30:32			0	38267	0	0	0	24748	23390	134400	26955	1010858	42041	109143	0	0	8303	544788	0	0
2024-06-14 03:31:32			0	38259	0	0	0	24745	23380	134472	27050	1010761	42040	109142	0	0	8303	545129	0	0
2024-06-14 03:32:32			0	38218	0	0	0	24766	23380	134620	27296	1010823	42029	109150	0	0	8301	546724	0	0
2024-06-14 03:33:32			0	38196	0	0	0	24792	23360	134740	27234	1010815	42027	109160	0	0	8299	547643	0	0
2024-06-14 03:34:32			0	38182	0	0	0	24805	23370	134712	26953	1010939	42050	109165	0	0	8298	548158	0	0
2024-06-14 03:35:32			0	38140	0	0	0	24820	23380	134840	26937	1010983	42050	109171	0	0	8296	549767	0	0
2024-06-14 03:36:32			0	38108	0	0	0	24849	23400	134924	27171	1011062	42052	109182	0	0	8294	550956	0	0
2024-06-14 03:37:32			0	38112	0	0	0	24867	23410	134996	27159	1011114	42043	109189	0	0	8294	550769	0	0
2024-06-14 03:38:32			0	38075	0	0	0	24883	23420	135048	26890	1011238	42055	109195	0	0	8291	552187	0	0
2024-06-14 03:39:32			0	38041	0	0	0	24890	23430	135176	27145	1011353	42088	109198	0	0	8290	553489	0	0
2024-06-14 03:40:32			0	38028	0	0	0	24906	23460	135160	27112	1011370	42057	109204	0	0	8289	553905	0	0
2024-06-14 03:41:32			0	38010	0	0	0	24924	23470	135143	26994	1011387	42070	109211	0	0	8288	554581	0	0
2024-06-14 03:42:32			0	37984	0	0	0	24927	23480	135235	26708	1011431	42059	109212	0	0	8286	555572	0	0
2024-06-14 03:43:32			0	37971	0	0	0	24937	23490	135287	27027	1011421	42060	109216	0	0	8285	556052	0	0
2024-06-14 03:44:32			0	37946	0	0	0	24932	23500	135427	27140	1011545	42050	109214	0	0	8284	557005	0	0
2024-06-14 03:45:32			0	37936	0	0	0	24950	23510	135483	26601	1011490	42052	109221	0	0	8283	557368	0	0
2024-06-14 03:46:32			0	37916	0	0	0	24950	23510	135523	27039	1011571	42063	109221	0	0	8282	558156	0	0
2024-06-14 03:47:32			0	37894	0	0	0	24953	23520	135603	26759	1011526	42052	109222	0	0	8281	558993	0	0
2024-06-14 03:48:32			0	37882	0	0	0	24955	23520	135599	26974	1011588	42064	109223	0	0	8281	559467	0	0
2024-06-14 03:49:32			0	37870	0	0	0	24958	23520	135599	27034	1011552	42041	109224	0	0	8280	559941	0	0
2024-06-14 03:50:32			0	37852	0	0	0	24955	23520	135699	26833	1011552	42074	109223	0	0	8279	560652	0	0
2024-06-14 03:51:32			0	37863	0	0	0	24961	23530	135699	26738	1011596	42053	109225	0	0	8280	560186	0	0
2024-06-14 03:52:32			0	37847	0	0	0	24955	23520	135727	26804	1011588	42053	109223	0	0	8279	560850	0	0
2024-06-14 03:53:32			0	37818	0	0	0	24958	23530	135843	26941	1011596	42041	109224	0	0	8277	561967	0	0
2024-06-14 03:54:32			0	37803	0	0	0	24966	23520	135867	27033	1011526	42041	109227	0	0	8276	562593	0	0
2024-06-14 03:55:32			0	37819	0	0	0	24958	23540	135823	27177	1011506	42054	109224	0	0	8277	561896	0	0
2024-06-14 03:56:32			0	37797	0	0	0	24929	23510	135983	27052	1011357	42041	109213	0	0	8277	562862	0	0
2024-06-14 03:57:32			0	37790	0	0	0	24922	23510	136055	27163	1011330	42030	109210	0	0	8276	563140	0	0
2024-06-14 03:58:32			0	37775	0	0	0	24911	23490	136047	27098	1011296	42028	109206	0	0	8276	563798	0	0
2024-06-14 03:59:32			0	37764	0	0	0	24903	23490	136031	26748	1011368	42049	109203	0	0	8275	564235	0	0
2024-06-14 04:00:32			0	37765	0	0	0	24916	23490	136083	27152	1011403	42061	109208	0	0	8275	564195	0	0
2024-06-14 04:01:32			0	37738	0	0	0	24927	23490	136179	26693	1011376	42072	109212	0	0	8273	565268	0	0
2024-06-14 04:02:32			0	37730	0	0	0	24922	23500	136219	27197	1011385	42072	109210	0	0	8273	565555	0	0
2024-06-14 04:03:32			0	37706	0	0	0	24927	23490	136231	26918	1011483	42050	109212	0	0	8272	566542	0	0
2024-06-14 04:04:32			0	37722	0	0	0	24922	23490	136299	26961	1011430	42061	109210	0	0	8273	565905	0	0
2024-06-14 04:05:32			0	37695	0	0	0	24929	23520	136299	27046	1011499	42063	109213	0	0	8271	566884	0	0
2024-06-14 04:06:32			0	37683	0	0	0	24942	23520	136323	26849	1011499	42052	109218	0	0	8270	567362	0	0
2024-06-14 04:07:32			0	37684	0	0	0	24948	23520	136315	27097	1011606	42052	109220	0	0	8270	567323	0	0
2024-06-14 04:08:32			0	37660	0	0	0	24948	23520	136411	27007	1011588	42064	109220	0	0	8269	568279	0	0
2024-06-14 04:09:32			0	37665	0	0	0	24948	23520	136511	27166	1011552	42063	109220	0	0	8269	568080	0	0
2024-06-14 04:10:32			0	37652	0	0	0	24950	23520	136379	26719	1011534	42053	109221	0	0	8269	568599	0	0
2024-06-14 04:11:32			0	37634	0	0	0	24950	23530	136511	26857	1011623	42064	109221	0	0	8268	569285	0	0
2024-06-14 04:12:32			0	37632	0	0	0	24948	23530	136563	27104	1011605	42065	109220	0	0	8268	569365	0	0
2024-06-14 04:13:32			0	37629	0	0	0	24950	23540	136619	26746	1011613	42043	109221	0	0	8268	569453	0	0
2024-06-14 04:14:32			0	37595	0	0	0	24950	23540	136563	27111	1011587	42054	109221	0	0	8266	570812	0	0
2024-06-14 04:15:32			0	37597	0	0	0	24953	23530	136571	27027	1011578	42032	109222	0	0	8266	570764	0	0
2024-06-14 04:16:32			0	37588	0	0	0	24953	23530	136659	27045	1011631	42054	109222	0	0	8265	571125	0	0
2024-06-14 04:17:32			0	37576	0	0	0	24948	23540	136731	26623	1011587	42043	109220	0	0	8265	571573	0	0
2024-06-14 04:18:32			0	37556	0	0	0	24950	23540	136751	26845	1011568	42054	109221	0	0	8264	572374	0	0
2024-06-14 04:19:32			0	37537	0	0	0	24955	23540	136743	27268	1011622	42054	109223	0	0	8263	573136	0	0
2024-06-14 04:20:32			0	37536	0	0	0	24945	23550	136811	26746	1011604	42043	109219	0	0	8263	573144	0	0
2024-06-14 04:21:32			0	37514	0	0	0	24950	23540	136811	26828	1011649	42066	109221	0	0	8262	574059	0	0
2024-06-14 04:22:32			0	37503	0	0	0	24942	23540	136967	26967	1011622	42066	109218	0	0	8261	574501	0	0
2024-06-14 04:23:32			0	37497	0	0	0	24948	23540	136963	26887	1011622	42066	109220	0	0	8261	574742	0	0
2024-06-14 04:24:32			0	37474	0	0	0	24950	23540	137027	26892	1011675	42054	109221	0	0	8260	575667	0	0
2024-06-14 04:25:32			0	37449	0	0	0	24948	23550	137095	26805	1011657	42054	109220	0	0	8258	576641	0	0
2024-06-14 04:26:32			0	37450	0	0	0	24945	23550	137095	26856	1011630	42054	109219	0	0	8258	576600	0	0
2024-06-14 04:27:32			0	37449	0	0	0	24945	23550	137155	26745	1011657	42033	109219	0	0	8258	576641	0	0
2024-06-14 04:28:32			0	37428	0	0	0	24940	23540	137299	27027	1011622	42054	109217	0	0	8257	577519	0	0
2024-06-14 04:29:32			0	37405	0	0	0	24942	23550	137275	26852	1011630	42054	109218	0	0	8256	578414	0	0
2024-06-14 04:30:32			0	37397	0	0	0	24948	23550	137427	26908	1011612	42055	109220	0	0	8256	578737	0	0
2024-06-14 04:31:32			0	37377	0	0	0	24950	23540	137415	26844	1011649	42054	109221	0	0	8254	579578	0	0
2024-06-14 04:32:32			0	37380	0	0	0	24945	23540	137523	27046	1011568	42054	109219	0	0	8255	579456	0	0
2024-06-14 04:33:32			0	37346	0	0	0	24948	23550	137531	26892	1011604	42043	109220	0	0	8253	580798	0	0
2024-06-14 04:34:32			0	37343	0	0	0	24953	23540	137507	26987	1011542	42043	109222	0	0	8253	580953	0	0
2024-06-14 04:35:32			0	37313	0	0	0	24950	23550	137618	26769	1011657	42054	109221	0	0	8251	582135	0	0
2024-06-14 04:36:32			0	37312	0	0	0	24945	23550	137710	27150	1011604	42054	109219	0	0	8251	582175	0	0
2024-06-14 04:37:32			0	37294	0	0	0	24953	23550	137814	26738	1011657	42043	109222	0	0	8250	582905	0	0
2024-06-14 04:38:32			0	37278	0	0	0	24945	23560	137790	26847	1011674	42056	109219	0	0	8250	583522	0	0
2024-06-14 04:39:32			0	37244	0	0	0	24942	23540	137822	26863	1011595	42043	109218	0	0	8248	584968	0	0
2024-06-14 04:40:32			0	37254	0	0	0	24942	23540	137974	26979	1011622	42043	109218	0	0	8248	584562	0	0
2024-06-14 04:41:32			0	37244	0	0	0	24945	23550	137946	26722	1011639	42055	109219	0	0	8248	584935	0	0
2024-06-14 04:42:32			0	37226	0	0	0	24940	23540	137906	27180	1011568	42066	109217	0	0	8247	585700	0	0
2024-06-14 04:43:32			0	37211	0	0	0	24937	23550	137978	26918	1011630	42054	109216	0	0	8246	586278	0	0
2024-06-14 04:44:32			0	37183	0	0	0	24940	23540	138066	26913	1011649	42043	109217	0	0	8245	587452	0	0
2024-06-14 04:45:32			0	37194	0	0	0	24932	23550	138118	26672	1011604	42043	109214	0	0	8245	586970	0	0
2024-06-14 04:46:32			0	37187	0	0	0	24940	23540	138082	26904	1011595	42054	109217	0	0	8245	587289	0	0
2024-06-14 04:47:32			0	37164	0	0	0	24942	23540	138114	27038	1011675	42054	109218	0	0	8244	588227	0	0
2024-06-14 04:48:32			0	37171	0	0	0	24937	23540	138190	27114	1011640	42066	109216	0	0	8244	587941	0	0
2024-06-14 04:49:32			0	37137	0	0	0	24937	23540	138262	27067	1011595	42054	109216	0	0	8242	589329	0	0
2024-06-14 04:50:32			0	37115	0	0	0	24940	23550	138206	27287	1011604	42043	109217	0	0	8241	590195	0	0
2024-06-14 04:51:32			0	37109	0	0	0	24932	23530	138310	26630	1011551	42054	109214	0	0	8241	590507	0	0
2024-06-14 04:52:32			0	37095	0	0	0	24935	23540	138370	27074	1011622	42043	109215	0	0	8240	591047	0	0
2024-06-14 04:53:32			0	37111	0	0	0	24922	23540	138394	27123	1011640	42033	109210	0	0	8241	590392	0	0
2024-06-14 04:54:32			0	37090	0	0	0	24919	23540	138370	26840	1011533	42066	109209	0	0	8240	591251	0	0
2024-06-14 04:55:32			0	37077	0	0	0	24929	23530	138474	27284	1011543	42053	109213	0	0	8239	591817	0	0
2024-06-14 04:56:32			0	37090	0	0	0	24922	23530	138466	26939	1011516	42041	109210	0	0	8240	591285	0	0
2024-06-14 04:57:32			0	37082	0	0	0	24919	23530	138446	26909	1011525	42042	109209	0	0	8240	591612	0	0
2024-06-14 04:58:32			0	37068	0	0	0	24906	23530	138506	26866	1011516	42053	109204	0	0	8239	592186	0	0
2024-06-14 04:59:32			0	37058	0	0	0	24914	23530	138538	27241	1011516	42064	109207	0	0	8238	592596	0	0
2024-06-14 05:00:32			0	37046	0	0	0	24911	23520	138518	27220	1011561	42064	109206	0	0	8238	593122	0	0
2024-06-14 05:01:32			0	37046	0	0	0	24909	23520	138558	27339	1011534	42064	109205	0	0	8238	593122	0	0
2024-06-14 05:02:32			0	37029	0	0	0	24906	23510	138598	27187	1011544	42041	109204	0	0	8237	593853	0	0
2024-06-14 05:03:32			0	37021	0	0	0	24903	23520	138538	26779	1011472	42052	109203	0	0	8237	594148	0	0
2024-06-14 05:04:32			0	37029	0	0	0	24903	23510	138682	27053	1011464	42041	109203	0	0	8237	593853	0	0
2024-06-14 05:05:32			0	37024	0	0	0	24906	23510	138670	27237	1011490	42041	109204	0	0	8237	594058	0	0
2024-06-14 05:06:32			0	36999	0	0	0	24903	23520	138718	27301	1011427	42053	109203	0	0	8235	595052	0	0
2024-06-14 05:07:32			0	37013	0	0	0	24901	23510	138710	27313	1011482	42051	109202	0	0	8236	594510	0	0
2024-06-14 05:08:32			0	37004	0	0	0	24896	23510	138802	26700	1011490	42063	109200	0	0	8236	594880	0	0
2024-06-14 05:09:32			0	36999	0	0	0	24914	23520	138858	27015	1011472	42041	109207	0	0	8235	595052	0	0
2024-06-14 05:10:32			0	37004	0	0	0	24906	23520	138858	27204	1011534	42041	109204	0	0	8236	594847	0	0
2024-06-14 05:11:32			0	36980	0	0	0	24911	23510	138842	27114	1011509	42040	109206	0	0	8234	595867	0	0
2024-06-14 05:12:32			0	36972	0	0	0	24919	23530	138830	26897	1011516	42053	109209	0	0	8234	596130	0	0
2024-06-14 05:13:32			0	36994	0	0	0	24919	23520	138858	26993	1011526	42041	109209	0	0	8235	595258	0	0
2024-06-14 05:14:32			0	36966	0	0	0	24922	23520	138906	27144	1011526	42052	109210	0	0	8233	596410	0	0
2024-06-14 05:15:32			0	36947	0	0	0	24916	23520	138942	26909	1011534	42053	109208	0	0	8233	597193	0	0
2024-06-14 05:16:32			0	36956	0	0	0	24916	23510	138922	27253	1011544	42052	109208	0	0	8233	596856	0	0
2024-06-14 05:17:32			0	36969	0	0	0	24909	23520	138998	27097	1011499	42052	109205	0	0	8234	596287	0	0
2024-06-14 05:18:32			0	36942	0	0	0	24914	23520	139014	27317	1011508	42041	109207	0	0	8232	597399	0	0
2024-06-14 05:19:32			0	36941	0	0	0	24914	23520	139074	27150	1011579	42052	109207	0	0	8232	597440	0	0
2024-06-14 05:20:32			0	36944	0	0	0	24922	23520	138994	27060	1011561	42053	109210	0	0	8232	597317	0	0
2024-06-14 05:21:32			0	36929	0	0	0	24932	23530	139066	27204	1011551	42042	109214	0	0	8231	597902	0	0
2024-06-14 05:22:32			0	36944	0	0	0	24927	23530	139078	26955	1011623	42064	109212	0	0	8232	597283	0	0
2024-06-14 05:23:32			0	36927	0	0	0	24932	23530	139014	27142	1011569	42053	109214	0	0	8231	597984	0	0
2024-06-14 05:24:32			0	36935	0	0	0	24937	23530	139026	26915	1011516	42053	109216	0	0	8232	597654	0	0
2024-06-14 05:25:32			0	36930	0	0	0	24937	23520	139102	26902	1011588	42064	109216	0	0	8231	597894	0	0
2024-06-14 05:26:32			0	36922	0	0	0	24935	23520	139118	27192	1011588	42053	109215	0	0	8231	598224	0	0
2024-06-14 05:27:32			0	36897	0	0	0	24929	23530	139178	26968	1011623	42041	109213	0	0	8230	599223	0	0
2024-06-14 05:28:32			0	36916	0	0	0	24937	23530	139166	27088	1011650	42053	109216	0	0	8231	598438	0	0
2024-06-14 05:29:32			0	36916	0	0	0	24932	23530	139138	27272	1011596	42041	109214	0	0	8231	598438	0	0
2024-06-14 05:30:32			0	36915	0	0	0	24935	23530	139158	26942	1011596	42053	109215	0	0	8231	598479	0	0
2024-06-14 05:31:32			0	36892	0	0	0	24937	23540	139138	27078	1011640	42043	109216	0	0	8229	599396	0	0
2024-06-14 05:32:32			0	36895	0	0	0	24932	23530	139062	27244	1011605	42054	109214	0	0	8230	599305	0	0
2024-06-14 05:33:32			0	36892	0	0	0	24940	23530	139094	27263	1011578	42054	109217	0	0	8229	599429	0	0
2024-06-14 05:34:32			0	36902	0	0	0	24935	23520	139182	26897	1011508	42064	109215	0	0	8230	599050	0	0
2024-06-14 05:35:32			0	36893	0	0	0	24942	23540	139138	27156	1011622	42054	109218	0	0	8229	599354	0	0
2024-06-14 05:36:32			0	36883	0	0	0	24932	23540	139090	27345	1011587	42054	109214	0	0	8229	599768	0	0
2024-06-14 05:37:32			0	36890	0	0	0	24935	23530	139142	26932	1011569	42053	109215	0	0	8229	599512	0	0
2024-06-14 05:38:32			0	36898	0	0	0	24929	23530	139202	27263	1011631	42054	109213	0	0	8230	599182	0	0
2024-06-14 05:39:32			0	36876	0	0	0	24929	23540	139170	26837	1011587	42043	109213	0	0	8229	600057	0	0
2024-06-14 05:40:32			0	36892	0	0	0	24919	23530	139162	27003	1011569	42053	109209	0	0	8230	599429	0	0
2024-06-14 05:41:32			0	36879	0	0	0	24927	23530	139194	27031	1011605	42054	109212	0	0	8229	599967	0	0
2024-06-14 05:42:32			0	36864	0	0	0	24916	23530	139174	27441	1011551	42042	109208	0	0	8228	600587	0	0
2024-06-14 05:43:32			0	36869	0	0	0	24919	23530	139182	27329	1011525	42054	109209	0	0	8228	600380	0	0
2024-06-14 05:44:32			0	36885	0	0	0	24922	23520	139158	27336	1011534	42041	109210	0	0	8229	599753	0	0
2024-06-14 05:45:32			0	36877	0	0	0	24914	23530	139214	27192	1011516	42053	109207	0	0	8229	600050	0	0
2024-06-14 05:46:32			0	36865	0	0	0	24916	23520	139242	27251	1011508	42053	109208	0	0	8228	600580	0	0
2024-06-14 05:47:32			0	36881	0	0	0	24906	23530	139298	27156	1011543	42053	109204	0	0	8229	599884	0	0
2024-06-14 05:48:32			0	36892	0	0	0	24898	23510	139170	27111	1011410	42041	109201	0	0	8230	599497	0	0
2024-06-14 05:49:32			0	36845	0	0	0	24906	23520	139262	27216	1011526	42052	109204	0	0	8227	601408	0	0
2024-06-14 05:50:32			0	36879	0	0	0	24896	23510	139126	27230	1011490	42052	109200	0	0	8229	600034	0	0
2024-06-14 05:51:32			0	36879	0	0	0	24896	23520	139186	27246	1011419	42052	109200	0	0	8229	600000	0	0
2024-06-14 05:52:32			0	36866	0	0	0	24883	23510	139238	27086	1011428	42062	109195	0	0	8229	600572	0	0
2024-06-14 05:53:32			0	36871	0	0	0	24885	23500	139346	27081	1011411	42040	109196	0	0	8229	600399	0	0
2024-06-14 05:54:32			0	36866	0	0	0	24893	23500	139302	26967	1011447	42062	109199	0	0	8229	600606	0	0
2024-06-14 05:55:32			0	36877	0	0	0	24885	23500	139306	26821	1011473	42040	109196	0	0	8229	600151	0	0
2024-06-14 05:56:32			0	36879	0	0	0	24888	23510	139262	27124	1011428	42040	109197	0	0	8229	600034	0	0
2024-06-14 05:57:32			0	36889	0	0	0	24888	23490	139218	27052	1011376	42050	109197	0	0	8230	599688	0	0
2024-06-14 05:58:32			0	36873	0	0	0	24883	23500	139198	27317	1011358	42050	109195	0	0	8229	600316	0	0
2024-06-14 05:59:32			0	36866	0	0	0	24883	23500	139206	26830	1011358	42061	109195	0	0	8229	600606	0	0
2024-06-14 06:00:32			0	36886	0	0	0	24883	23490	139182	27407	1011323	42050	109195	0	0	8230	599812	0	0
2024-06-14 06:01:32			0	36856	0	0	0	24872	23480	139274	27059	1011332	42049	109191	0	0	8228	601087	0	0
2024-06-14 06:02:32			0	36873	0	0	0	24872	23490	139266	27071	1011394	42027	109191	0	0	8229	600350	0	0
2024-06-14 06:03:32			0	36874	0	0	0	24880	23480	139254	27183	1011324	42038	109194	0	0	8229	600342	0	0
2024-06-14 06:04:32			0	36877	0	0	0	24872	23490	139234	27194	1011376	42040	109191	0	0	8229	600185	0	0
2024-06-14 06:05:32			0	36865	0	0	0	24880	23490	139262	26939	1011314	42039	109194	0	0	8229	600681	0	0
2024-06-14 06:06:32			0	36885	0	0	0	24872	23480	139278	26866	1011412	42039	109191	0	0	8230	599887	0	0
2024-06-14 06:07:32			0	36877	0	0	0	24872	23480	139314	27398	1011412	42049	109191	0	0	8229	600218	0	0
2024-06-14 06:08:32			0	36879	0	0	0	24875	23490	139238	26963	1011314	42027	109192	0	0	8230	600102	0	0
2024-06-14 06:09:32			0	36874	0	0	0	24875	23480	139246	26894	1011244	42038	109192	0	0	8229	600342	0	0
2024-06-14 06:10:32			0	36882	0	0	0	24870	23470	139298	27090	1011280	42047	109190	0	0	8230	600045	0	0
2024-06-14 06:11:32			0	36867	0	0	0	24870	23470	139262	27483	1011227	42058	109190	0	0	8229	600666	0	0
2024-06-14 06:12:32			0	36868	0	0	0	24862	23460	139238	27358	1011210	42046	109187	0	0	8229	600658	0	0
2024-06-14 06:13:32			0	36861	0	0	0	24864	23460	139222	27234	1011271	42047	109188	0	0	8229	600948	0	0
2024-06-14 06:14:32			0	36859	0	0	0	24862	23470	139218	27320	1011333	42037	109187	0	0	8229	600997	0	0
2024-06-14 06:15:32			0	36876	0	0	0	24870	23470	139294	27287	1011307	42047	109190	0	0	8229	600293	0	0
2024-06-14 06:16:32			0	36865	0	0	0	24867	23460	139294	26844	1011210	42057	109189	0	0	8229	600782	0	0
2024-06-14 06:17:32			0	36878	0	0	0	24851	23470	139310	27208	1011146	42037	109183	0	0	8230	600211	0	0
2024-06-14 06:18:32			0	36884	0	0	0	24828	23440	139270	27046	1011024	42023	109174	0	0	8230	600064	0	0
2024-06-14 06:19:32			0	36883	0	0	0	24794	23420	139326	27112	1010891	42022	109161	0	0	8231	600172	0	0
2024-06-14 06:20:32			0	36881	0	0	0	24763	23390	139326	27230	1010831	42007	109149	0	0	8231	600356	0	0
2024-06-14 06:21:32			0	36880	0	0	0	24737	23380	139218	27307	1010734	42006	109139	0	0	8231	600431	0	0
2024-06-14 06:22:32			0	36876	0	0	0	24729	23370	139274	27281	1010779	42050	109136	0	0	8231	600631	0	0
2024-06-14 06:23:32			0	36897	0	0	0	24742	23370	139334	26833	1010859	42029	109141	0	0	8232	599762	0	0
2024-06-14 06:24:32			0	36905	0	0	0	24761	23360	139294	26930	1010895	42048	109148	0	0	8232	599465	0	0
2024-06-14 06:25:32			0	36892	0	0	0	24784	23380	139262	27076	1010974	42050	109157	0	0	8231	599935	0	0
2024-06-14 06:26:32			0	36910	0	0	0	24776	23370	139254	27225	1010859	42040	109154	0	0	8232	599225	0	0
2024-06-14 06:27:32			0	36900	0	0	0	24784	23370	139270	27060	1010912	42040	109157	0	0	8232	599638	0	0
2024-06-14 06:28:32			0	36886	0	0	0	24799	23370	139278	27197	1010877	42028	109163	0	0	8231	600217	0	0
2024-06-14 06:29:32			0	36868	0	0	0	24789	23380	139310	26993	1010948	42040	109159	0	0	8230	600928	0	0
2024-06-14 06:30:32			0	36900	0	0	0	24799	23370	139254	27074	1010939	42050	109163	0	0	8231	599638	0	0
2024-06-14 06:31:32			0	36870	0	0	0	24820	23370	139166	26972	1010939	42050	109171	0	0	8229	600879	0	0
2024-06-14 06:32:32			0	36882	0	0	0	24815	23380	139318	27187	1010948	42050	109169	0	0	8230	600349	0	0
2024-06-14 06:33:32			0	36882	0	0	0	24807	23370	139278	27232	1010966	42050	109166	0	0	8230	600382	0	0
2024-06-14 06:34:32			0	36886	0	0	0	24807	23370	139186	27085	1010966	42040	109166	0	0	8231	600217	0	0
2024-06-14 06:35:32			0	36857	0	0	0	24818	23380	139210	26889	1011028	42040	109170	0	0	8229	601384	0	0
2024-06-14 06:36:32			0	36887	0	0	0	24815	23380	139342	26975	1011009	42040	109169	0	0	8231	600142	0	0
2024-06-14 06:37:32			0	36891	0	0	0	24823	23390	139250	27204	1011026	42052	109172	0	0	8231	599943	0	0
2024-06-14 06:38:32			0	36895	0	0	0	24831	23410	139282	26994	1011159	42053	109175	0	0	8231	599710	0	0
2024-06-14 06:39:32			0	36882	0	0	0	24841	23410	139246	27081	1011159	42053	109179	0	0	8230	600247	0	0
2024-06-14 06:40:32			0	36886	0	0	0	24851	23410	139290	26941	1011159	42053	109183	0	0	8230	600082	0	0
2024-06-14 06:41:32			0	36887	0	0	0	24851	23420	139338	27088	1011211	42043	109183	0	0	8230	600007	0	0
2024-06-14 06:42:32			0	36878	0	0	0	24857	23420	139334	27067	1011149	42054	109185	0	0	8229	600379	0	0
2024-06-14 06:43:32			0	36885	0	0	0	24857	23430	139370	26970	1011247	42055	109185	0	0	8230	600056	0	0
2024-06-14 06:44:32			0	36895	0	0	0	24862	23430	139318	27222	1011202	42056	109187	0	0	8230	599642	0	0
2024-06-14 06:45:32			0	36880	0	0	0	24862	23430	139194	27232	1011175	42044	109187	0	0	8230	600263	0	0
2024-06-14 06:46:32			0	36882	0	0	0	24867	23440	139306	26934	1011211	42044	109189	0	0	8230	600146	0	0
2024-06-14 06:47:32			0	36870	0	0	0	24875	23440	139230	27213	1011273	42057	109192	0	0	8229	600643	0	0
2024-06-14 06:48:32			0	36884	0	0	0	24870	23450	139254	27067	1011308	42045	109190	0	0	8230	600030	0	0
2024-06-14 06:49:32			0	36897	0	0	0	24870	23440	139274	26788	1011299	42057	109190	0	0	8230	599526	0	0
2024-06-14 06:50:32			0	36884	0	0	0	24872	23470	139190	27121	1011333	42058	109191	0	0	8230	599962	0	0
2024-06-14 06:51:32			0	36863	0	0	0	24885	23460	139166	27185	1011325	42058	109196	0	0	8228	600865	0	0
2024-06-14 06:52:32			0	36878	0	0	0	24867	23460	139186	27369	1011316	42046	109189	0	0	8229	600244	0	0
2024-06-14 06:53:32			0	36878	0	0	0	24880	23450	139274	27059	1011334	42045	109194	0	0	8229	600278	0	0
2024-06-14 06:54:32			0	36883	0	0	0	24875	23460	139302	27118	1011325	42047	109192	0	0	8230	600038	0	0
2024-06-14 06:55:32			0	36916	0	0	0	24877	23470	139218	27265	1011280	42047	109193	0	0	8231	598640	0	0
2024-06-14 06:56:32			0	36884	0	0	0	24875	23470	139138	27452	1011280	42047	109192	0	0	8230	599962	0	0
2024-06-14 06:57:32			0	36892	0	0	0	24877	23460	139214	27407	1011325	42058	109193	0	0	8230	599665	0	0
2024-06-14 06:58:32			0	36893	0	0	0	24885	23470	139318	27126	1011369	42058	109196	0	0	8230	599590	0	0
2024-06-14 06:59:32			0	36859	0	0	0	24867	23480	139226	27159	1011332	42049	109189	0	0	8229	600963	0	0
2024-06-14 07:00:32			0	36886	0	0	0	24885	23480	139242	27135	1011386	42049	109196	0	0	8230	599846	0	0
2024-06-14 07:01:32			0	36906	0	0	0	24872	23470	139138	27062	1011369	42047	109191	0	0	8231	599053	0	0
2024-06-14 07:02:32			0	36893	0	0	0	24883	23480	139230	27180	1011377	42059	109195	0	0	8230	599557	0	0
2024-06-14 07:03:32			0	36884	0	0	0	24883	23470	139262	27192	1011369	42058	109195	0	0	8230	599962	0	0
2024-06-14 07:04:32			0	36891	0	0	0	24885	23480	139286	27235	1011386	42071	109196	0	0	8230	599639	0	0
2024-06-14 07:05:32			0	36872	0	0	0	24888	23480	139270	27348	1011359	42049	109197	0	0	8229	600425	0	0
2024-06-14 07:06:32			0	36881	0	0	0	24883	23470	139314	27156	1011395	42058	109195	0	0	8229	600086	0	0
2024-06-14 07:07:32			0	36873	0	0	0	24880	23490	139282	27072	1011341	42060	109194	0	0	8229	600350	0	0
2024-06-14 07:08:32			0	36886	0	0	0	24883	23480	139282	27253	1011350	42048	109195	0	0	8230	599846	0	0
2024-06-14 07:09:32			0	36895	0	0	0	24875	23480	139302	27041	1011386	42060	109192	0	0	8230	599474	0	0
2024-06-14 07:10:32			0	36889	0	0	0	24877	23480	139226	27152	1011386	42060	109193	0	0	8230	599722	0	0
2024-06-14 07:11:32			0	36875	0	0	0	24877	23480	139310	26915	1011324	42038	109193	0	0	8229	600301	0	0
2024-06-14 07:12:32			0	36887	0	0	0	24875	23470	139274	27033	1011369	42037	109192	0	0	8230	599838	0	0
2024-06-14 07:13:32			0	36883	0	0	0	24885	23470	139206	27034	1011315	42058	109196	0	0	8229	600004	0	0
2024-06-14 07:14:32			0	36875	0	0	0	24883	23470	139286	27001	1011342	42047	109195	0	0	8229	600335	0	0
2024-06-14 07:15:32			0	36885	0	0	0	24877	23470	139326	27064	1011289	42047	109193	0	0	8230	599921	0	0
2024-06-14 07:16:32			0	36884	0	0	0	24877	23470	139310	27142	1011280	42047	109193	0	0	8230	599962	0	0
2024-06-14 07:17:32			0	36877	0	0	0	24875	23480	139254	26875	1011404	42048	109192	0	0	8229	600218	0	0
2024-06-14 07:18:32			0	36884	0	0	0	24872	23480	139242	26835	1011324	42059	109191	0	0	8230	599929	0	0
2024-06-14 07:19:32			0	36891	0	0	0	24877	23470	139278	26824	1011395	42047	109193	0	0	8230	599673	0	0
2024-06-14 07:20:32			0	36883	0	0	0	24870	23480	139246	27105	1011350	42048	109190	0	0	8230	599970	0	0
2024-06-14 07:21:32			0	36861	0	0	0	24872	23490	139362	26955	1011394	42049	109191	0	0	8229	600846	0	0
2024-06-14 07:22:32			0	36883	0	0	0	24867	23480	139282	27088	1011350	42048	109189	0	0	8230	599970	0	0
2024-06-14 07:23:32			0	36885	0	0	0	24875	23480	139354	26870	1011359	42049	109192	0	0	8230	599887	0	0
2024-06-14 07:24:32			0	36860	0	0	0	24875	23480	139306	27067	1011377	42048	109192	0	0	8229	600922	0	0
2024-06-14 07:25:32			0	36864	0	0	0	24877	23480	139250	27097	1011412	42049	109193	0	0	8229	600756	0	0
2024-06-14 07:26:32			0	36870	0	0	0	24888	23480	139234	27225	1011412	42049	109197	0	0	8229	600508	0	0
2024-06-14 07:27:32			0	36878	0	0	0	24870	23490	139310	27343	1011421	42049	109190	0	0	8230	600143	0	0
2024-06-14 07:28:32			0	36878	0	0	0	24875	23480	139310	27130	1011359	42049	109192	0	0	8229	600177	0	0
2024-06-14 07:29:32			0	36880	0	0	0	24880	23490	139230	27086	1011394	42049	109194	0	0	8230	600060	0	0
2024-06-14 07:30:32			0	36862	0	0	0	24883	23480	139266	27144	1011377	42048	109195	0	0	8228	600839	0	0
2024-06-14 07:31:32			0	36859	0	0	0	24883	23470	139226	27253	1011369	42037	109195	0	0	8228	600997	0	0
2024-06-14 07:32:32			0	36864	0	0	0	24877	23480	139238	27150	1011404	42048	109193	0	0	8229	600756	0	0
2024-06-14 07:33:32			0	36864	0	0	0	24872	23480	139218	26861	1011350	42038	109191	0	0	8229	600756	0	0
2024-06-14 07:34:32			0	36859	0	0	0	24875	23470	139294	26682	1011307	42058	109192	0	0	8228	600997	0	0
2024-06-14 07:35:32			0	36847	0	0	0	24870	23480	139290	27255	1011324	42026	109190	0	0	8228	601460	0	0
2024-06-14 07:36:32			0	36864	0	0	0	24872	23470	139342	27457	1011315	42037	109191	0	0	8229	600790	0	0
2024-06-14 07:37:32			0	36856	0	0	0	24867	23470	139378	26892	1011307	42058	109189	0	0	8228	601121	0	0
2024-06-14 07:38:32			0	36858	0	0	0	24862	23480	139342	26982	1011359	42039	109187	0	0	8229	601004	0	0
2024-06-14 07:39:32			0	36851	0	0	0	24864	23480	139450	26941	1011332	42049	109188	0	0	8228	601294	0	0
2024-06-14 07:40:32			0	36837	0	0	0	24870	23480	139402	27242	1011324	42048	109190	0	0	8227	601874	0	0
2024-06-14 07:41:32			0	36847	0	0	0	24864	23480	139426	26896	1011386	42049	109188	0	0	8228	601460	0	0
2024-06-14 07:42:32			0	36827	0	0	0	24862	23480	139446	26941	1011386	42039	109187	0	0	8227	602289	0	0
2024-06-14 07:43:32			0	36840	0	0	0	24870	23470	139430	26870	1011342	42047	109190	0	0	8227	601784	0	0
2024-06-14 07:44:32			0	36834	0	0	0	24859	23480	139398	26960	1011386	42049	109186	0	0	8227	601999	0	0
2024-06-14 07:45:32			0	36830	0	0	0	24877	23480	139462	27111	1011350	42048	109193	0	0	8227	602164	0	0
2024-06-14 07:46:32			0	36815	0	0	0	24872	23480	139494	27326	1011350	42038	109191	0	0	8226	602787	0	0
2024-06-14 07:47:32			0	36815	0	0	0	24872	23470	139418	26915	1011342	42047	109191	0	0	8226	602820	0	0
2024-06-14 07:48:32			0	36822	0	0	0	24870	23470	139466	27300	1011369	42047	109190	0	0	8227	602530	0	0
2024-06-14 07:49:32			0	36801	0	0	0	24875	23490	139494	26948	1011394	42049	109192	0	0	8225	603334	0	0
2024-06-14 07:50:32			0	36805	0	0	0	24872	23480	139618	26984	1011332	42049	109191	0	0	8226	603201	0	0
2024-06-14 07:51:32			0	36808	0	0	0	24864	23480	139522	27173	1011386	42049	109188	0	0	8226	603077	0	0
2024-06-14 07:52:32			0	36809	0	0	0	24870	23480	139606	27324	1011359	42049	109190	0	0	8226	603036	0	0
2024-06-14 07:53:32			0	36797	0	0	0	24872	23480	139538	27281	1011386	42060	109191	0	0	8225	603533	0	0
2024-06-14 07:54:32			0	36778	0	0	0	24880	23480	139602	27100	1011359	42039	109194	0	0	8224	604323	0	0
2024-06-14 07:55:32			0	36779	0	0	0	24883	23490	139482	27135	1011368	42060	109195	0	0	8224	604247	0	0
2024-06-14 07:56:32			0	36775	0	0	0	24885	23490	139566	27107	1011421	42049	109196	0	0	8224	604413	0	0
2024-06-14 07:57:32			0	36775	0	0	0	24893	23480	139622	27345	1011466	42049	109199	0	0	8224	604447	0	0
2024-06-14 07:58:32			0	36768	0	0	0	24885	23490	139638	27249	1011394	42049	109196	0	0	8224	604704	0	0
2024-06-14 07:59:32			0	36783	0	0	0	24888	23500	139634	27204	1011465	42050	109197	0	0	8224	604047	0	0
2024-06-14 08:00:32			0	36768	0	0	0	24888	23500	139618	27305	1011465	42061	109197	0	0	8224	604670	0	0
2024-06-14 08:01:32			0	36763	0	0	0	24901	23490	139658	27114	1011483	42050	109202	0	0	8223	604912	0	0
2024-06-14 08:02:32			0	36746	0	0	0	24901	23500	139750	27400	1011500	42062	109202	0	0	8222	605585	0	0
2024-06-14 08:03:32			0	36746	0	0	0	24898	23500	139698	27251	1011518	42050	109201	0	0	8222	605585	0	0
2024-06-14 08:04:32			0	36732	0	0	0	24906	23500	139762	27234	1011545	42050	109204	0	0	8221	606168	0	0
2024-06-14 08:05:32			0	36722	0	0	0	24909	23510	139754	27208	1011509	42051	109205	0	0	8221	606551	0	0
2024-06-14 08:06:32			0	36733	0	0	0	24911	23510	139834	27355	1011509	42051	109206	0	0	8221	606092	0	0
2024-06-14 08:07:32			0	36724	0	0	0	24909	23510	139710	27171	1011509	42062	109205	0	0	8221	606467	0	0
2024-06-14 08:08:32			0	36720	0	0	0	24898	23510	139730	27379	1011490	42052	109201	0	0	8221	606634	0	0
2024-06-14 08:09:32			0	36691	0	0	0	24903	23510	139846	27225	1011464	42041	109203	0	0	8219	607843	0	0
2024-06-14 08:10:32			0	36712	0	0	0	24909	23510	139750	27367	1011535	42051	109205	0	0	8220	606967	0	0
2024-06-14 08:11:32			0	36701	0	0	0	24903	23520	139814	27497	1011526	42052	109203	0	0	8220	607392	0	0
2024-06-14 08:12:32			0	36690	0	0	0	24906	23510	139890	27150	1011482	42051	109204	0	0	8219	607885	0	0
2024-06-14 08:13:32			0	36702	0	0	0	24906	23510	139954	27277	1011482	42040	109204	0	0	8220	607384	0	0
2024-06-14 08:14:32			0	36685	0	0	0	24896	23500	139974	27298	1011465	42050	109200	0	0	8219	608127	0	0
2024-06-14 08:15:32			0	36687	0	0	0	24890	23500	139894	27066	1011473	42040	109198	0	0	8219	608044	0	0
2024-06-14 08:16:32			0	36670	0	0	0	24893	23500	139982	26994	1011447	42062	109199	0	0	8218	608754	0	0
2024-06-14 08:17:32			0	36658	0	0	0	24890	23490	139958	27253	1011430	42050	109198	0	0	8218	609289	0	0
2024-06-14 08:18:32			0	36668	0	0	0	24880	23490	140034	27225	1011430	42040	109194	0	0	8218	608871	0	0
2024-06-14 08:19:32			0	36653	0	0	0	24880	23490	139954	26998	1011474	42049	109194	0	0	8218	609498	0	0
2024-06-14 08:20:32			0	36629	0	0	0	24888	23490	140066	27298	1011430	42050	109197	0	0	8216	610502	0	0
2024-06-14 08:21:32			0	36635	0	0	0	24888	23490	140106	27291	1011421	42039	109197	0	0	8217	610251	0	0
2024-06-14 08:22:32			0	36640	0	0	0	24883	23480	140086	27166	1011297	42048	109195	0	0	8217	610076	0	0
2024-06-14 08:23:32			0	36636	0	0	0	24870	23470	140134	27206	1011235	42047	109190	0	0	8217	610278	0	0
2024-06-14 08:24:32			0	36626	0	0	0	24854	23470	140210	27362	1011307	42037	109184	0	0	8217	610696	0	0
2024-06-14 08:25:32			0	36600	0	0	0	24851	23460	140170	27369	1011191	42037	109183	0	0	8215	611819	0	0
2024-06-14 08:26:32			0	36627	0	0	0	24831	23460	140206	27180	1011191	42047	109175	0	0	8217	610689	0	0
2024-06-14 08:27:32			0	36615	0	0	0	24828	23460	140234	27123	1011129	42025	109174	0	0	8216	611191	0	0
2024-06-14 08:28:32			0	36605	0	0	0	24823	23440	140154	27272	1011112	42035	109172	0	0	8216	611679	0	0
2024-06-14 08:29:32			0	36620	0	0	0	24815	23430	140294	27362	1011095	42034	109169	0	0	8217	611085	0	0
2024-06-14 08:30:32			0	36602	0	0	0	24807	23430	140258	27282	1011068	42034	109166	0	0	8216	611839	0	0
2024-06-14 08:31:32			0	36598	0	0	0	24794	23430	140237	27360	1011068	42044	109161	0	0	8216	612006	0	0
2024-06-14 08:32:32			0	36593	0	0	0	24792	23420	140386	27147	1011016	42043	109160	0	0	8216	612250	0	0
2024-06-14 08:33:32			0	36586	0	0	0	24786	23400	140358	27265	1010982	42041	109158	0	0	8215	612613	0	0
2024-06-14 08:34:32			0	36577	0	0	0	24789	23400	140345	27029	1010982	42041	109159	0	0	8215	612990	0	0
2024-06-14 08:35:32			0	36593	0	0	0	24789	23410	140410	27081	1011079	42031	109159	0	0	8216	612285	0	0
2024-06-14 08:36:32			0	36576	0	0	0	24789	23400	140385	27159	1010982	42052	109159	0	0	8215	613032	0	0
2024-06-14 08:37:32			0	36565	0	0	0	24786	23390	140425	27220	1011000	42030	109158	0	0	8214	613529	0	0
2024-06-14 08:38:32			0	36557	0	0	0	24792	23400	140421	27225	1011017	42041	109160	0	0	8214	613830	0	0
2024-06-14 08:39:32			0	36589	0	0	0	24799	23400	140473	27256	1010982	42041	109163	0	0	8215	612487	0	0
2024-06-14 08:40:32			0	36569	0	0	0	24810	23390	140513	27081	1011053	42052	109167	0	0	8214	613361	0	0
2024-06-14 08:41:32			0	36553	0	0	0	24812	23390	140689	27199	1011071	42051	109168	0	0	8213	614033	0	0
2024-06-14 08:42:32			0	36545	0	0	0	24825	23400	140513	27218	1011035	42052	109173	0	0	8212	614335	0	0
2024-06-14 08:43:32			0	36547	0	0	0	24844	23410	140573	27185	1011168	42043	109180	0	0	8212	614216	0	0
2024-06-14 08:44:32			0	36527	0	0	0	24857	23410	140569	27326	1011221	42054	109185	0	0	8211	615057	0	0
2024-06-14 08:45:32			0	36541	0	0	0	24870	23420	140613	27229	1011238	42055	109190	0	0	8212	614433	0	0
2024-06-14 08:46:32			0	36541	0	0	0	24870	23430	140541	27215	1011308	42056	109190	0	0	8212	614399	0	0
2024-06-14 08:47:32			0	36540	0	0	0	24880	23440	140657	27317	1011344	42056	109194	0	0	8211	614406	0	0
2024-06-14 08:48:32			0	36531	0	0	0	24880	23450	140621	27246	1011361	42035	109194	0	0	8211	614750	0	0
2024-06-14 08:49:32			0	36539	0	0	0	24883	23450	140701	27124	1011361	42045	109195	0	0	8211	614414	0	0
2024-06-14 08:50:32			0	36527	0	0	0	24898	23450	140585	27093	1011415	42045	109201	0	0	8210	614918	0	0
2024-06-14 08:51:32			0	36507	0	0	0	24896	23460	140665	26920	1011378	42058	109200	0	0	8210	615725	0	0
2024-06-14 08:52:32			0	36532	0	0	0	24901	23460	140545	27355	1011423	42046	109202	0	0	8211	614674	0	0
2024-06-14 08:53:32			0	36522	0	0	0	24906	23470	140565	27140	1011449	42070	109204	0	0	8210	615060	0	0
2024-06-14 08:54:32			0	36520	0	0	0	24914	23480	140541	27381	1011466	42060	109207	0	0	8210	615109	0	0
2024-06-14 08:55:32			0	36520	0	0	0	24911	23480	140573	27310	1011431	42048	109206	0	0	8210	615109	0	0
2024-06-14 08:56:32			0	36488	0	0	0	24901	23490	140717	27199	1011448	42049	109202	0	0	8209	616422	0	0
2024-06-14 08:57:32			0	36528	0	0	0	24903	23490	140629	27100	1011421	42049	109203	0	0	8211	614738	0	0
2024-06-14 08:58:32			0	36501	0	0	0	24890	23470	140721	27531	1011360	42047	109198	0	0	8209	615943	0	0
2024-06-14 08:59:32			0	36515	0	0	0	24885	23470	140665	27492	1011387	42047	109196	0	0	8210	615354	0	0
2024-06-14 09:00:32			0	36508	0	0	0	24883	23490	140657	27338	1011394	42039	109195	0	0	8210	615579	0	0
2024-06-14 09:01:32			0	36507	0	0	0	24872	23470	140617	27211	1011289	42047	109191	0	0	8210	615691	0	0
2024-06-14 09:02:32			0	36507	0	0	0	24877	23460	140665	27183	1011298	42047	109193	0	0	8210	615725	0	0
2024-06-14 09:03:32			0	36510	0	0	0	24859	23460	140685	27246	1011271	42037	109186	0	0	8210	615599	0	0
2024-06-14 09:04:32			0	36503	0	0	0	24862	23450	140649	27284	1011174	42035	109187	0	0	8210	615929	0	0
2024-06-14 09:05:32			0	36506	0	0	0	24833	23450	140597	27069	1011094	42045	109176	0	0	8210	615802	0	0
2024-06-14 09:06:32			0	36522	0	0	0	24818	23430	140669	27017	1011068	42056	109170	0	0	8211	615198	0	0
2024-06-14 09:07:32			0	36514	0	0	0	24807	23410	140605	27088	1011061	42054	109166	0	0	8211	615604	0	0
2024-06-14 09:08:32			0	36511	0	0	0	24799	23420	140625	27034	1011016	42043	109163	0	0	8211	615695	0	0
2024-06-14 09:09:32			0	36506	0	0	0	24789	23390	140669	27258	1011053	42041	109159	0	0	8211	616010	0	0
2024-06-14 09:10:32			0	36524	0	0	0	24784	23400	140713	27071	1011008	42041	109157	0	0	8212	615218	0	0
2024-06-14 09:11:32			0	36511	0	0	0	24779	23390	140673	27013	1010973	42041	109155	0	0	8211	615799	0	0
2024-06-14 09:12:32			0	36517	0	0	0	24784	23400	140613	27010	1011062	42030	109157	0	0	8212	615512	0	0
2024-06-14 09:13:32			0	36516	0	0	0	24802	23390	140657	27095	1011026	42052	109164	0	0	8211	615589	0	0
2024-06-14 09:14:32			0	36529	0	0	0	24812	23410	140697	27251	1011114	42065	109168	0	0	8212	614973	0	0
2024-06-14 09:15:32			0	36532	0	0	0	24818	23410	140665	26859	1011114	42065	109170	0	0	8212	614846	0	0
2024-06-14 09:16:32			0	36515	0	0	0	24820	23400	140657	27206	1011062	42052	109171	0	0	8211	615596	0	0
2024-06-14 09:17:32			0	36522	0	0	0	24825	23420	140653	26923	1011123	42054	109173	0	0	8211	615233	0	0
2024-06-14 09:18:32			0	36520	0	0	0	24836	23400	140549	27223	1011062	42030	109177	0	0	8211	615386	0	0
2024-06-14 09:19:32			0	36529	0	0	0	24846	23410	140565	27196	1011106	42042	109181	0	0	8211	614973	0	0
2024-06-14 09:20:32			0	36506	0	0	0	24841	23410	140573	27204	1011114	42054	109179	0	0	8210	615940	0	0
2024-06-14 09:21:32			0	36509	0	0	0	24844	23410	140685	27187	1011132	42064	109180	0	0	8210	615814	0	0
2024-06-14 09:22:32			0	36495	0	0	0	24846	23420	140569	26890	1011149	42043	109181	0	0	8210	616369	0	0
2024-06-14 09:23:32			0	36526	0	0	0	24854	23420	140517	27057	1011185	42066	109184	0	0	8211	615064	0	0
2024-06-14 09:24:32			0	36518	0	0	0	24864	23420	140625	26972	1011238	42043	109188	0	0	8210	615401	0	0
2024-06-14 09:25:32			0	36521	0	0	0	24867	23420	140605	27072	1011211	42055	109189	0	0	8211	615275	0	0
2024-06-14 09:26:32			0	36533	0	0	0	24849	23420	140581	26927	1011211	42043	109182	0	0	8211	614770	0	0
2024-06-14 09:27:32			0	36522	0	0	0	24849	23420	140617	27450	1011104	42055	109182	0	0	8211	615233	0	0
2024-06-14 09:28:32			0	36532	0	0	0	24841	23420	140625	27168	1011078	42043	109179	0	0	8212	614812	0	0
2024-06-14 09:29:32			0	36528	0	0	0	24841	23420	140649	27215	1011149	42043	109179	0	0	8211	614980	0	0
2024-06-14 09:30:32			0	36538	0	0	0	24833	23410	140593	26791	1011087	42043	109176	0	0	8212	614594	0	0
2024-06-14 09:31:32			0	36541	0	0	0	24831	23420	140577	27128	1011149	42054	109175	0	0	8212	614433	0	0
2024-06-14 09:32:32			0	36536	0	0	0	24820	23410	140533	26977	1011114	42054	109171	0	0	8212	614678	0	0
2024-06-14 09:33:32			0	36548	0	0	0	24828	23400	140593	26996	1011062	42052	109174	0	0	8213	614208	0	0
2024-06-14 09:34:32			0	36553	0	0	0	24828	23400	140529	26776	1011035	42052	109174	0	0	8213	613998	0	0
2024-06-14 09:35:32			0	36558	0	0	0	24833	23420	140393	27076	1011176	42054	109176	0	0	8213	613719	0	0
2024-06-14 09:36:32			0	36569	0	0	0	24836	23420	140569	26925	1011149	42054	109177	0	0	8214	613257	0	0
2024-06-14 09:37:32			0	36562	0	0	0	24844	23420	140525	27182	1011158	42055	109180	0	0	8213	613551	0	0
2024-06-14 09:38:32			0	36574	0	0	0	24833	23420	140505	26883	1011131	42033	109176	0	0	8214	613047	0	0
2024-06-14 09:39:32			0	36576	0	0	0	24823	23420	140457	26974	1011123	42054	109172	0	0	8214	612963	0	0
2024-06-14 09:40:32			0	36576	0	0	0	24831	23420	140365	26842	1011158	42055	109175	0	0	8214	612963	0	0
2024-06-14 09:41:32			0	36587	0	0	0	24831	23410	140449	27398	1011141	42065	109175	0	0	8215	612536	0	0
2024-06-14 09:42:32			0	36572	0	0	0	24831	23420	140341	27163	1011185	42055	109175	0	0	8214	613131	0	0
2024-06-14 09:43:32			0	36585	0	0	0	24825	23420	140297	27206	1011158	42043	109173	0	0	8215	612586	0	0
2024-06-14 09:44:32			0	36573	0	0	0	24833	23410	140329	26859	1011114	42054	109176	0	0	8214	613124	0	0
2024-06-14 09:45:32			0	36596	0	0	0	24833	23430	140333	27157	1011202	42056	109176	0	0	8215	612090	0	0
2024-06-14 09:46:32			0	36579	0	0	0	24844	23420	140321	27088	1011211	42043	109180	0	0	8214	612838	0	0
2024-06-14 09:47:32			0	36606	0	0	0	24833	23430	140234	27272	1011220	42043	109176	0	0	8216	611671	0	0
2024-06-14 09:48:32			0	36608	0	0	0	24844	23430	140210	26705	1011273	42043	109180	0	0	8216	611587	0	0
2024-06-14 09:49:32			0	36612	0	0	0	24844	23430	140198	26897	1011228	42056	109180	0	0	8216	611420	0	0
2024-06-14 09:50:32			0	36619	0	0	0	24849	23430	140238	26977	1011255	42056	109182	0	0	8216	611126	0	0
2024-06-14 09:51:32			0	36629	0	0	0	24849	23440	140098	27093	1011264	42056	109182	0	0	8217	610673	0	0
2024-06-14 09:52:32			0	36634	0	0	0	24854	23430	140158	27062	1011255	42044	109184	0	0	8217	610499	0	0
2024-06-14 09:53:32			0	36626	0	0	0	24859	23440	140134	27022	1011273	42057	109186	0	0	8216	610799	0	0
2024-06-14 09:54:32			0	36651	0	0	0	24859	23450	140034	27246	1011281	42057	109186	0	0	8218	609719	0	0
2024-06-14 09:55:32			0	36647	0	0	0	24859	23440	140002	27338	1011344	42056	109186	0	0	8217	609920	0	0
2024-06-14 09:56:32			0	36660	0	0	0	24859	23440	140038	27296	1011299	42057	109186	0	0	8218	609377	0	0
2024-06-14 09:57:32			0	36668	0	0	0	24864	23450	139990	27145	1011308	42045	109188	0	0	8218	609008	0	0
2024-06-14 09:58:32			0	36676	0	0	0	24864	23460	139914	27403	1011316	42046	109188	0	0	8219	608640	0	0
2024-06-14 09:59:32			0	36678	0	0	0	24867	23450	139934	26941	1011334	42045	109189	0	0	8219	608591	0	0
2024-06-14 10:00:32			0	36714	0	0	0	24872	23460	139834	27000	1011316	42046	109191	0	0	8221	607055	0	0
2024-06-14 10:01:32			0	36720	0	0	0	24870	23460	139822	27076	1011325	42070	109190	0	0	8221	606804	0	0
2024-06-14 10:02:32			0	36740	0	0	0	24862	23460	139806	27102	1011343	42057	109187	0	0	8222	605971	0	0
2024-06-14 10:03:32			0	36728	0	0	0	24870	23460	139746	27104	1011405	42058	109190	0	0	8222	606471	0	0
2024-06-14 10:04:32			0	36769	0	0	0	24877	23460	139614	27041	1011352	42058	109193	0	0	8224	604765	0	0
2024-06-14 10:05:32			0	36784	0	0	0	24885	23470	139574	27085	1011422	42047	109196	0	0	8224	604107	0	0
2024-06-14 10:06:32			0	36778	0	0	0	24893	23470	139510	27308	1011494	42058	109199	0	0	8224	604357	0	0
2024-06-14 10:07:32			0	36796	0	0	0	24911	23480	139438	27211	1011457	42059	109206	0	0	8225	603575	0	0
2024-06-14 10:08:32			0	36816	0	0	0	24914	23490	139406	27092	1011581	42060	109207	0	0	8226	602711	0	0
2024-06-14 10:09:32			0	36836	0	0	0	24911	23490	139290	27104	1011536	42061	109206	0	0	8227	601882	0	0
2024-06-14 10:10:32			0	36855	0	0	0	24914	23490	139262	27176	1011536	42072	109207	0	0	8228	601095	0	0
2024-06-14 10:11:32			0	36878	0	0	0	24919	23500	139222	27090	1011491	42061	109209	0	0	8229	600109	0	0
2024-06-14 10:12:32			0	36885	0	0	0	24922	23500	139106	26968	1011553	42051	109210	0	0	8229	599820	0	0
2024-06-14 10:13:32			0	36921	0	0	0	24924	23510	138994	26994	1011615	42073	109211	0	0	8231	598299	0	0
2024-06-14 10:14:32			0	36927	0	0	0	24922	23500	138922	27346	1011545	42061	109210	0	0	8231	598085	0	0
2024-06-14 10:15:32			0	36968	0	0	0	24929	23510	138882	27149	1011615	42051	109213	0	0	8233	596361	0	0
2024-06-14 10:16:32			0	36971	0	0	0	24932	23510	138698	26861	1011615	42062	109214	0	0	8233	596238	0	0
2024-06-14 10:17:32			0	37006	0	0	0	24937	23510	138686	27029	1011651	42063	109216	0	0	8235	594798	0	0
2024-06-14 10:18:32			0	37034	0	0	0	24935	23510	138614	27358	1011589	42062	109215	0	0	8237	593647	0	0
2024-06-14 10:19:32			0	37039	0	0	0	24940	23520	138598	27095	1011641	42053	109217	0	0	8237	593409	0	0
2024-06-14 10:20:32			0	37079	0	0	0	24932	23520	138530	27131	1011632	42063	109214	0	0	8239	591769	0	0
2024-06-14 10:21:32			0	37083	0	0	0	24942	23530	138366	27353	1011711	42065	109218	0	0	8239	591571	0	0
2024-06-14 10:22:32			0	37120	0	0	0	24945	23530	138282	27332	1011623	42064	109219	0	0	8241	590057	0	0
2024-06-14 10:23:32			0	37120	0	0	0	24953	23540	138350	27261	1011720	42077	109222	0	0	8241	590024	0	0
2024-06-14 10:24:32			0	37146	0	0	0	24955	23540	138170	27149	1011693	42066	109223	0	0	8242	588962	0	0
2024-06-14 10:25:32			0	37162	0	0	0	24958	23540	138022	27197	1011747	42066	109224	0	0	8243	588308	0	0
2024-06-14 10:26:32			0	37178	0	0	0	24963	23540	138038	27298	1011755	42066	109226	0	0	8244	587656	0	0
2024-06-14 10:27:32			0	37192	0	0	0	24971	23550	137946	27327	1011764	42066	109229	0	0	8245	587052	0	0
2024-06-14 10:28:32			0	37226	0	0	0	24966	23540	137934	27287	1011729	42066	109227	0	0	8246	585700	0	0
2024-06-14 10:29:32			0	37233	0	0	0	24966	23560	137818	27329	1011888	42068	109227	0	0	8247	585350	0	0
2024-06-14 10:30:32			0	37261	0	0	0	24974	23560	137802	27279	1011843	42068	109230	0	0	8248	584212	0	0
2024-06-14 10:31:32			0	37269	0	0	0	24979	23550	137750	26953	1011826	42067	109232	0	0	8248	583920	0	0
2024-06-14 10:32:32			0	37289	0	0	0	24984	23550	137662	27189	1011853	42067	109234	0	0	8249	583108	0	0
2024-06-14 10:33:32			0	37307	0	0	0	24981	23570	137682	27300	1011932	42068	109233	0	0	8250	582313	0	0
2024-06-14 10:34:32			0	37334	0	0	0	24997	23570	137619	27286	1011914	42068	109239	0	0	8252	581219	0	0
2024-06-14 10:35:32			0	37332	0	0	0	25002	23570	137683	27343	1011932	42068	109241	0	0	8251	581300	0	0
2024-06-14 10:36:32			0	37338	0	0	0	24992	23570	137499	27074	1011985	42068	109237	0	0	8252	581057	0	0
2024-06-14 10:37:32			0	37342	0	0	0	25007	23580	137475	27147	1011905	42069	109243	0	0	8252	580862	0	0
2024-06-14 10:38:32			0	37355	0	0	0	25012	23580	137375	27130	1011976	42069	109245	0	0	8252	580337	0	0
2024-06-14 10:39:32			0	37366	0	0	0	25018	23590	137339	27334	1012028	42059	109247	0	0	8253	579859	0	0
2024-06-14 10:40:32			0	37380	0	0	0	25018	23590	137359	27248	1012047	42070	109247	0	0	8254	579294	0	0
2024-06-14 10:41:32			0	37394	0	0	0	25031	23610	137307	27092	1012107	42083	109252	0	0	8254	578663	0	0
2024-06-14 10:42:32			0	37395	0	0	0	25033	23600	137251	27039	1012099	42061	109253	0	0	8254	578655	0	0
2024-06-14 10:43:32			0	37421	0	0	0	25028	23610	137259	26956	1012107	42072	109251	0	0	8256	577574	0	0
2024-06-14 10:44:32			0	37406	0	0	0	25038	23600	137219	27093	1012099	42072	109255	0	0	8255	578212	0	0
2024-06-14 10:45:32			0	37441	0	0	0	25041	23620	137179	27280	1012205	42062	109256	0	0	8257	576736	0	0
2024-06-14 10:46:32			0	37439	0	0	0	25046	23620	137163	27412	1012133	42074	109258	0	0	8256	576816	0	0
2024-06-14 10:47:32			0	37438	0	0	0	25044	23620	136995	27170	1012160	42084	109257	0	0	8256	576857	0	0
2024-06-14 10:48:32			0	37432	0	0	0	25049	23620	137059	27173	1012106	42084	109259	0	0	8256	577098	0	0
2024-06-14 10:49:32			0	37471	0	0	0	25057	23630	137063	27279	1012195	42063	109262	0	0	8258	575496	0	0
2024-06-14 10:50:32			0	37470	0	0	0	25057	23630	137067	26986	1012195	42084	109262	0	0	8258	575536	0	0
2024-06-14 10:51:32			0	37459	0	0	0	25049	23630	137023	27119	1012177	42074	109259	0	0	8257	575979	0	0
2024-06-14 10:52:32			0	37477	0	0	0	25057	23630	137035	27039	1012222	42084	109262	0	0	8258	575255	0	0
2024-06-14 10:53:32			0	37488	0	0	0	25057	23630	136983	27511	1012124	42074	109262	0	0	8259	574813	0	0
2024-06-14 10:54:32			0	37476	0	0	0	25051	23630	136927	27274	1012204	42063	109260	0	0	8258	575295	0	0
2024-06-14 10:55:32			0	37479	0	0	0	25057	23640	136831	27038	1012212	42075	109262	0	0	8258	575142	0	0
2024-06-14 10:56:32			0	37489	0	0	0	25062	23640	136935	26928	1012186	42063	109264	0	0	8259	574740	0	0
2024-06-14 10:57:32			0	37484	0	0	0	25062	23640	136899	26755	1012248	42076	109264	0	0	8259	574941	0	0
2024-06-14 10:58:32			0	37499	0	0	0	25054	23640	136899	26979	1012167	42076	109261	0	0	8260	574338	0	0
2024-06-14 10:59:32			0	37514	0	0	0	25054	23640	136955	27291	1012159	42063	109261	0	0	8260	573736	0	0
2024-06-14 11:00:32			0	37529	0	0	0	25051	23640	136875	27182	1012221	42076	109260	0	0	8261	573134	0	0
2024-06-14 11:01:32			0	37518	0	0	0	25046	23630	136879	27130	1012150	42074	109258	0	0	8261	573608	0	0
2024-06-14 11:02:32			0	37504	0	0	0	25044	23630	136787	27064	1012230	42084	109257	0	0	8260	574170	0	0
2024-06-14 11:03:32			0	37504	0	0	0	25057	23640	136831	27345	1012194	42064	109262	0	0	8260	574138	0	0
2024-06-14 11:04:32			0	37521	0	0	0	25051	23640	136847	27036	1012248	42076	109260	0	0	8261	573455	0	0
2024-06-14 11:05:32			0	37524	0	0	0	25046	23640	136831	27182	1012248	42086	109258	0	0	8261	573335	0	0
2024-06-14 11:06:32			0	37535	0	0	0	25051	23650	136779	26925	1012229	42076	109260	0	0	8261	572862	0	0
2024-06-14 11:07:32			0	37535	0	0	0	25057	23640	136791	27150	1012221	42076	109262	0	0	8261	572894	0	0
2024-06-14 11:08:32			0	37530	0	0	0	25059	23640	136763	26958	1012274	42076	109263	0	0	8261	573094	0	0
2024-06-14 11:09:32			0	37523	0	0	0	25057	23640	136763	27034	1012248	42076	109262	0	0	8261	573375	0	0
2024-06-14 11:10:32			0	37523	0	0	0	25067	23640	136759	27190	1012274	42076	109266	0	0	8261	573375	0	0
2024-06-14 11:11:32			0	37543	0	0	0	25070	23650	136831	27173	1012318	42077	109267	0	0	8262	572541	0	0
2024-06-14 11:12:32			0	37538	0	0	0	25072	23660	136727	27086	1012327	42077	109268	0	0	8261	572709	0	0
2024-06-14 11:13:32			0	37539	0	0	0	25075	23660	136747	27365	1012380	42077	109269	0	0	8261	572669	0	0
2024-06-14 11:14:32			0	37525	0	0	0	25085	23660	136739	27258	1012380	42065	109273	0	0	8260	573230	0	0
2024-06-14 11:15:32			0	37515	0	0	0	25093	23670	136691	27123	1012317	42089	109276	0	0	8260	573599	0	0
2024-06-14 11:16:32			0	37526	0	0	0	25103	23670	136711	27248	1012424	42089	109280	0	0	8260	573158	0	0
2024-06-14 11:17:32			0	37526	0	0	0	25109	23670	136727	27421	1012450	42089	109282	0	0	8260	573158	0	0
2024-06-14 11:18:32			0	37521	0	0	0	25111	23680	136723	27412	1012476	42090	109283	0	0	8260	573326	0	0
2024-06-14 11:19:32			0	37532	0	0	0	25114	23690	136695	27225	1012512	42080	109284	0	0	8260	572853	0	0
2024-06-14 11:20:32			0	37516	0	0	0	25122	23690	136727	27253	1012512	42080	109287	0	0	8259	573495	0	0
2024-06-14 11:21:32			0	37509	0	0	0	25150	23700	136795	26870	1012662	42080	109298	0	0	8259	573743	0	0
2024-06-14 11:22:32			0	37523	0	0	0	25150	23710	136871	27319	1012706	42092	109298	0	0	8259	573149	0	0
2024-06-14 11:23:32			0	37505	0	0	0	25171	23720	136771	27230	1012723	42082	109306	0	0	8258	573839	0	0
2024-06-14 11:24:32			0	37499	0	0	0	25179	23750	136795	26928	1012713	42118	109309	0	0	8258	573983	0	0
2024-06-14 11:25:32			0	37509	0	0	0	25179	23730	136831	27203	1012714	42094	109309	0	0	8258	573646	0	0
2024-06-14 11:26:32			0	37490	0	0	0	25163	23740	136811	27230	1012704	42095	109303	0	0	8258	574377	0	0
2024-06-14 11:27:32			0	37495	0	0	0	25173	23740	136923	27033	1012731	42107	109307	0	0	8258	574176	0	0
2024-06-14 11:28:32			0	37494	0	0	0	25179	23750	136887	27012	1012713	42095	109309	0	0	8258	574184	0	0
2024-06-14 11:29:32			0	37494	0	0	0	25163	23750	136883	27246	1012793	42107	109303	0	0	8258	574184	0	0
2024-06-14 11:30:32			0	37497	0	0	0	25163	23730	136843	27308	1012696	42074	109303	0	0	8258	574128	0	0
2024-06-14 11:31:32			0	37526	0	0	0	25161	23740	136831	27126	1012704	42084	109302	0	0	8260	572932	0	0
2024-06-14 11:32:32			0	37529	0	0	0	25155	23750	136775	27426	1012659	42095	109300	0	0	8260	572780	0	0
2024-06-14 11:33:32			0	37508	0	0	0	25163	23740	136671	27350	1012758	42074	109303	0	0	8259	573654	0	0
2024-06-14 11:34:32			0	37520	0	0	0	25173	23750	136731	27013	1012801	42085	109307	0	0	8259	573141	0	0
2024-06-14 11:35:32			0	37529	0	0	0	25176	23760	136779	27272	1012757	42086	109308	0	0	8260	572747	0	0
2024-06-14 11:36:32			0	37513	0	0	0	25179	23750	136719	27000	1012801	42085	109309	0	0	8259	573421	0	0
2024-06-14 11:37:32			0	37516	0	0	0	25189	23770	136731	27265	1012889	42098	109313	0	0	8259	573236	0	0
2024-06-14 11:38:32			0	37505	0	0	0	25220	23770	136835	27194	1012969	42109	109325	0	0	8258	573678	0	0
2024-06-14 11:39:32			0	37489	0	0	0	25215	23780	136939	27225	1012951	42099	109323	0	0	8257	574288	0	0
2024-06-14 11:40:32			0	37485	0	0	0	25231	23790	136911	27135	1012995	42099	109329	0	0	8256	574416	0	0
2024-06-14 11:41:32			0	37474	0	0	0	25233	23800	136959	27083	1013012	42101	109330	0	0	8256	574825	0	0
2024-06-14 11:42:32			0	37444	0	0	0	25228	23810	137007	27173	1012976	42102	109328	0	0	8254	575999	0	0
2024-06-14 11:43:32			0	37447	0	0	0	25220	23800	137019	27107	1013021	42102	109325	0	0	8255	575910	0	0
2024-06-14 11:44:32			0	37469	0	0	0	25225	23810	136999	27211	1012976	42090	109327	0	0	8256	574994	0	0
2024-06-14 11:45:32			0	37459	0	0	0	25225	23810	136999	27315	1013064	42102	109327	0	0	8255	575395	0	0
2024-06-14 11:46:32			0	37447	0	0	0	25225	23820	136915	26986	1013047	42125	109327	0	0	8255	575846	0	0
2024-06-14 11:47:32			0	37472	0	0	0	25225	23820	137019	27067	1013100	42102	109327	0	0	8256	574841	0	0
2024-06-14 11:48:32			0	37452	0	0	0	25246	23820	136911	26920	1013153	42091	109335	0	0	8255	575644	0	0
2024-06-14 11:49:32			0	37463	0	0	0	25259	23830	137007	27046	1013152	42092	109340	0	0	8255	575170	0	0
2024-06-14 11:50:32			0	37449	0	0	0	25267	23840	137015	27159	1013188	42093	109343	0	0	8254	575700	0	0
2024-06-14 11:51:32			0	37466	0	0	0	25270	23840	137079	27173	1013303	42117	109344	0	0	8255	575017	0	0
2024-06-14 11:52:32			0	37444	0	0	0	25264	23850	137003	27138	1013187	42094	109342	0	0	8254	575869	0	0
2024-06-14 11:53:32			0	37462	0	0	0	25254	23850	137039	27104	1013133	42083	109338	0	0	8255	575145	0	0
2024-06-14 11:54:32			0	37476	0	0	0	25241	23840	137043	27138	1013161	42083	109333	0	0	8256	574615	0	0
2024-06-14 11:55:32			0	37457	0	0	0	25238	23840	136951	27352	1013116	42094	109332	0	0	8255	575379	0	0
2024-06-14 11:56:32			0	37454	0	0	0	25236	23850	136943	27118	1013125	42105	109331	0	0	8255	575467	0	0
2024-06-14 11:57:32			0	37491	0	0	0	25254	23840	136859	27055	1013143	42094	109338	0	0	8257	574013	0	0
2024-06-14 11:58:32			0	37463	0	0	0	25251	23840	136883	26993	1013143	42105	109337	0	0	8255	575137	0	0
2024-06-14 11:59:32			0	37500	0	0	0	25233	23840	136815	27185	1013134	42093	109330	0	0	8257	573652	0	0
2024-06-14 12:00:32			0	37486	0	0	0	25241	23850	136827	27220	1013125	42094	109333	0	0	8257	574181	0	0
2024-06-14 12:01:32			0	37505	0	0	0	25233	23830	136851	27041	1013099	42103	109330	0	0	8258	573484	0	0
2024-06-14 12:02:32			0	37491	0	0	0	25228	23820	136815	27039	1013055	42092	109328	0	0	8257	574078	0	0
2024-06-14 12:03:32			0	37514	0	0	0	25220	23820	136823	27492	1013028	42092	109325	0	0	8258	573155	0	0
2024-06-14 12:04:32			0	37504	0	0	0	25220	23820	136791	27419	1013028	42115	109325	0	0	8258	573556	0	0
2024-06-14 12:05:32			0	37508	0	0	0	25218	23810	136739	26892	1012984	42102	109324	0	0	8258	573428	0	0
2024-06-14 12:06:32			0	37501	0	0	0	25212	23810	136791	27015	1012984	42090	109322	0	0	8258	573709	0	0
2024-06-14 12:07:32			0	37512	0	0	0	25207	23810	136743	27147	1013029	42102	109320	0	0	8258	573268	0	0
2024-06-14 12:08:32			0	37510	0	0	0	25194	23810	136775	27320	1012984	42102	109315	0	0	8258	573348	0	0
2024-06-14 12:09:32			0	37511	0	0	0	25207	23810	136847	27294	1013011	42069	109320	0	0	8258	573308	0	0
2024-06-14 12:10:32			0	37504	0	0	0	25207	23810	136859	27341	1012976	42090	109320	0	0	8258	573588	0	0
2024-06-14 12:11:32			0	37483	0	0	0	25205	23810	136919	27215	1013029	42102	109319	0	0	8257	574431	0	0
2024-06-14 12:12:32			0	37495	0	0	0	25205	23810	136903	27261	1012958	42090	109319	0	0	8257	573950	0	0
2024-06-14 12:13:32			0	37483	0	0	0	25207	23800	136775	27119	1012914	42102	109320	0	0	8257	574464	0	0
2024-06-14 12:14:32			0	37501	0	0	0	25194	23800	136811	27008	1012959	42089	109315	0	0	8258	573741	0	0
2024-06-14 12:15:32			0	37504	0	0	0	25197	23800	136879	27017	1012932	42089	109316	0	0	8258	573621	0	0
2024-06-14 12:16:32			0	37484	0	0	0	25194	23790	136903	26776	1012897	42078	109315	0	0	8257	574456	0	0
2024-06-14 12:17:32			0	37488	0	0	0	25192	23790	136875	27260	1012897	42088	109314	0	0	8257	574295	0	0
2024-06-14 12:18:32			0	37494	0	0	0	25186	23790	136879	27144	1012843	42078	109312	0	0	8258	574054	0	0
2024-06-14 12:19:32			0	37511	0	0	0	25189	23790	136831	26908	1012870	42088	109313	0	0	8258	573372	0	0
2024-06-14 12:20:32			0	37491	0	0	0	25192	23780	136819	26842	1012879	42088	109314	0	0	8257	574207	0	0
2024-06-14 12:21:32			0	37520	0	0	0	25181	23790	136843	26934	1012843	42088	109310	0	0	8259	573011	0	0
2024-06-14 12:22:32			0	37503	0	0	0	25181	23780	136795	26641	1012826	42088	109310	0	0	8258	573726	0	0
2024-06-14 12:23:32			0	37520	0	0	0	25181	23790	136751	27138	1012861	42088	109310	0	0	8259	573011	0	0
2024-06-14 12:24:32			0	37508	0	0	0	25189	23780	136747	26979	1012879	42099	109313	0	0	8258	573525	0	0
2024-06-14 12:25:32			0	37512	0	0	0	25179	23780	136755	27161	1012871	42110	109309	0	0	8259	573364	0	0
2024-06-14 12:26:32			0	37527	0	0	0	25181	23780	136667	27112	1012826	42088	109310	0	0	8259	572763	0	0
2024-06-14 12:27:32			0	37518	0	0	0	25186	23780	136743	27003	1012871	42088	109312	0	0	8259	573124	0	0
2024-06-14 12:28:32			0	37527	0	0	0	25199	23780	136763	27241	1012879	42088	109317	0	0	8259	572763	0	0
2024-06-14 12:29:32			0	37517	0	0	0	25186	23780	136787	27306	1012906	42099	109312	0	0	8259	573164	0	0
2024-06-14 12:30:32			0	37517	0	0	0	25202	23790	136783	27133	1012923	42100	109318	0	0	8259	573132	0	0
2024-06-14 12:31:32			0	37512	0	0	0	25192	23790	136935	27079	1012897	42122	109314	0	0	8258	573332	0	0
2024-06-14 12:32:32			0	37533	0	0	0	25197	23800	136851	27050	1012959	42101	109316	0	0	8260	572458	0	0
2024-06-14 12:33:32			0	37504	0	0	0	25197	23800	136819	26965	1012985	42089	109316	0	0	8258	573621	0	0
2024-06-14 12:34:32			0	37506	0	0	0	25199	23780	136887	27154	1012906	42088	109317	0	0	8258	573605	0	0
2024-06-14 12:35:32			0	37515	0	0	0	25194	23800	136943	27213	1012932	42101	109315	0	0	8259	573180	0	0
2024-06-14 12:36:32			0	37508	0	0	0	25194	23790	136863	27022	1012915	42099	109315	0	0	8258	573493	0	0
2024-06-14 12:37:32			0	37510	0	0	0	25192	23780	136859	27012	1012906	42099	109314	0	0	8258	573445	0	0
2024-06-14 12:38:32			0	37500	0	0	0	25189	23790	136875	27074	1012915	42088	109313	0	0	8258	573814	0	0
2024-06-14 12:39:32			0	37528	0	0	0	25192	23790	136903	27448	1012897	42100	109314	0	0	8259	572691	0	0
2024-06-14 12:40:32			0	37524	0	0	0	25194	23790	136835	27244	1012915	42077	109315	0	0	8259	572851	0	0
2024-06-14 12:41:32			0	37519	0	0	0	25192	23780	136895	27109	1012933	42088	109314	0	0	8259	573084	0	0
2024-06-14 12:42:32			0	37508	0	0	0	25189	23780	136855	26887	1012853	42088	109313	0	0	8258	573525	0	0
2024-06-14 12:43:32			0	37527	0	0	0	25189	23790	136851	27017	1012915	42099	109313	0	0	8259	572731	0	0
2024-06-14 12:44:32			0	37534	0	0	0	25189	23790	136907	27007	1012941	42088	109313	0	0	8260	572450	0	0
2024-06-14 12:45:32			0	37538	0	0	0	25197	23790	136863	27246	1012861	42088	109316	0	0	8260	572290	0	0
2024-06-14 12:46:32			0	37506	0	0	0	25186	23790	136855	27095	1012950	42078	109312	0	0	8258	573573	0	0
2024-06-14 12:47:32			0	37506	0	0	0	25197	23800	136819	27111	1012932	42101	109316	0	0	8258	573540	0	0
2024-06-14 12:48:32			0	37503	0	0	0	25207	23800	136823	27001	1013012	42101	109320	0	0	8258	573661	0	0
2024-06-14 12:49:32			0	37519	0	0	0	25218	23800	136863	27036	1013047	42102	109324	0	0	8258	573019	0	0
2024-06-14 12:50:32			0	37502	0	0	0	25218	23790	136819	26923	1012923	42100	109324	0	0	8258	573733	0	0
2024-06-14 12:51:32			0	37513	0	0	0	25220	23810	136903	27208	1013038	42102	109325	0	0	8258	573228	0	0
2024-06-14 12:52:32			0	37503	0	0	0	25212	23810	136835	27315	1013002	42080	109322	0	0	8258	573629	0	0
2024-06-14 12:53:32			0	37532	0	0	0	25223	23810	136923	27170	1013056	42080	109326	0	0	8259	572466	0	0
2024-06-14 12:54:32			0	37515	0	0	0	25220	23810	136863	27255	1013029	42102	109325	0	0	8258	573147	0	0
2024-06-14 12:55:32			0	37523	0	0	0	25228	23820	136799	27005	1013073	42102	109328	0	0	8259	572794	0	0
2024-06-14 12:56:32			0	37531	0	0	0	25225	23820	136715	27293	1013073	42114	109327	0	0	8259	572474	0	0
2024-06-14 12:57:32			0	37530	0	0	0	25236	23820	136723	27381	1013100	42102	109331	0	0	8259	572514	0	0
2024-06-14 12:58:32			0	37542	0	0	0	25233	23830	136799	27131	1013090	42092	109330	0	0	8260	572001	0	0
2024-06-14 12:59:32			0	37536	0	0	0	25233	23820	136679	27343	1013109	42092	109330	0	0	8259	572274	0	0
2024-06-14 13:00:32			0	37550	0	0	0	25233	23820	136755	26991	1013100	42102	109330	0	0	8260	571713	0	0
2024-06-14 13:01:32			0	37531	0	0	0	25238	23820	136655	26955	1013055	42092	109332	0	0	8259	572474	0	0
2024-06-14 13:02:32			0	37552	0	0	0	25225	23820	136731	27086	1013082	42082	109327	0	0	8260	571633	0	0
2024-06-14 13:03:32			0	37559	0	0	0	25228	23820	136659	27386	1013100	42102	109328	0	0	8260	571353	0	0
2024-06-14 13:04:32			0	37563	0	0	0	25246	23830	136623	27275	1013206	42092	109335	0	0	8260	571161	0	0
2024-06-14 13:05:32			0	37581	0	0	0	25244	23830	136675	27235	1013179	42103	109334	0	0	8261	570441	0	0
2024-06-14 13:06:32			0	37587	0	0	0	25251	23840	136675	27137	1013143	42105	109337	0	0	8262	570169	0	0
2024-06-14 13:07:32			0	37595	0	0	0	25259	23850	136651	26918	1013178	42105	109340	0	0	8262	569817	0	0
2024-06-14 13:08:32			0	37612	0	0	0	25259	23840	136599	27230	1013268	42093	109340	0	0	8263	569171	0	0
2024-06-14 13:09:32			0	37576	0	0	0	25254	23840	136579	27225	1013214	42104	109338	0	0	8261	570609	0	0
2024-06-14 13:10:32			0	37605	0	0	0	25267	23850	136551	26972	1013293	42105	109343	0	0	8262	569418	0	0
2024-06-14 13:11:32			0	37600	0	0	0	25280	23860	136491	26727	1013311	42107	109348	0	0	8262	569586	0	0
2024-06-14 13:12:32			0	37589	0	0	0	25298	23860	136523	27098	1013391	42118	109355	0	0	8261	570025	0	0
2024-06-14 13:13:32			0	37598	0	0	0	25327	23880	136515	26816	1013532	42120	109366	0	0	8261	569601	0	0
2024-06-14 13:14:32			0	37570	0	0	0	25368	23900	136647	27095	1013584	42121	109382	0	0	8259	570656	0	0
2024-06-14 13:15:32			0	37574	0	0	0	25376	23910	136639	27194	1013610	42112	109385	0	0	8259	570463	0	0
2024-06-14 13:16:32			0	37588	0	0	0	25368	23910	136539	26800	1013583	42100	109382	0	0	8260	569904	0	0
2024-06-14 13:17:32			0	37603	0	0	0	25366	23910	136551	27376	1013637	42112	109381	0	0	8261	569305	0	0
2024-06-14 13:18:32			0	37602	0	0	0	25374	23920	136579	27130	1013707	42113	109384	0	0	8261	569313	0	0
2024-06-14 13:19:32			0	37600	0	0	0	25389	23940	136467	26887	1013715	42125	109390	0	0	8260	569329	0	0
2024-06-14 13:20:32			0	37607	0	0	0	25405	23950	136435	27355	1013857	42126	109396	0	0	8260	569017	0	0
2024-06-14 13:21:32			0	37628	0	0	0	25418	23950	136467	27384	1013839	42127	109401	0	0	8261	568180	0	0
2024-06-14 13:22:32			0	37614	0	0	0	25425	23960	136455	27319	1013901	42127	109404	0	0	8261	568706	0	0
2024-06-14 13:23:32			0	37617	0	0	0	25423	23970	136339	26942	1013918	42139	109403	0	0	8261	568554	0	0
2024-06-14 13:24:32			0	37631	0	0	0	25415	23970	136491	27088	1013873	42118	109400	0	0	8262	567996	0	0
2024-06-14 13:25:32			0	37623	0	0	0	25412	23970	136423	27256	1013918	42117	109399	0	0	8261	568315	0	0
2024-06-14 13:26:32			0	37626	0	0	0	25418	23970	136355	27083	1013927	42118	109401	0	0	8261	568196	0	0
2024-06-14 13:27:32			0	37649	0	0	0	25412	23980	136339	27322	1013917	42107	109399	0	0	8263	567248	0	0
2024-06-14 13:28:32			0	37654	0	0	0	25402	23970	136315	27012	1013847	42107	109395	0	0	8263	567080	0	0
2024-06-14 13:29:32			0	37646	0	0	0	25389	23980	136367	27022	1013802	42107	109390	0	0	8263	567367	0	0
2024-06-14 13:30:32			0	37678	0	0	0	25386	23970	136247	26800	1013758	42106	109389	0	0	8265	566125	0	0
2024-06-14 13:31:32			0	37666	0	0	0	25379	23970	136207	27095	1013758	42106	109386	0	0	8264	566603	0	0
2024-06-14 13:32:32			0	37692	0	0	0	25363	23970	136207	27083	1013686	42107	109380	0	0	8266	565569	0	0
2024-06-14 13:33:32			0	37717	0	0	0	25363	23960	136151	26817	1013714	42105	109380	0	0	8267	564608	0	0
2024-06-14 13:34:32			0	37702	0	0	0	25363	23960	136079	27241	1013669	42116	109380	0	0	8266	565204	0	0
2024-06-14 13:35:32			0	37740	0	0	0	25374	23960	136075	27126	1013723	42127	109384	0	0	8268	563695	0	0
2024-06-14 13:36:32			0	37727	0	0	0	25379	23960	136039	26693	1013856	42116	109386	0	0	8267	564211	0	0
2024-06-14 13:37:32			0	37743	0	0	0	25394	23970	136011	27019	1013980	42128	109392	0	0	8268	563545	0	0
2024-06-14 13:38:32			0	37760	0	0	0	25428	23990	136019	26925	1014033	42129	109405	0	0	8268	562808	0	0
2024-06-14 13:39:32			0	37756	0	0	0	25462	24010	135987	27135	1014147	42131	109418	0	0	8267	562903	0	0
2024-06-14 13:40:32			0	37739	0	0	0	25477	24020	136031	26762	1014253	42144	109424	0	0	8266	563545	0	0
2024-06-14 13:41:32			0	37739	0	0	0	25506	24040	135915	27173	1014359	42146	109435	0	0	8266	563481	0	0
2024-06-14 13:42:32			0	37740	0	0	0	25527	24060	135975	27083	1014358	42136	109443	0	0	8266	563378	0	0
2024-06-14 13:43:32			0	37739	0	0	0	25529	24070	136003	27029	1014437	42126	109444	0	0	8266	563386	0	0
2024-06-14 13:44:32			0	37737	0	0	0	25522	24070	136003	27123	1014322	42125	109441	0	0	8266	563465	0	0
2024-06-14 13:45:32			0	37741	0	0	0	25511	24070	135995	27001	1014429	42115	109437	0	0	8266	563306	0	0
2024-06-14 13:46:32			0	37753	0	0	0	25516	24080	135883	26981	1014401	42138	109439	0	0	8267	562799	0	0
2024-06-14 13:47:32			0	37766	0	0	0	25524	24090	135951	27161	1014490	42150	109442	0	0	8267	562253	0	0
2024-06-14 13:48:32			0	37763	0	0	0	25535	24090	135851	27197	1014498	42139	109446	0	0	8267	562371	0	0
2024-06-14 13:49:32			0	37768	0	0	0	25548	24110	135823	26993	1014497	42140	109451	0	0	8267	562110	0	0
2024-06-14 13:50:32			0	37755	0	0	0	25519	24100	135851	27147	1014462	42129	109440	0	0	8267	562656	0	0
2024-06-14 13:51:32			0	37755	0	0	0	25516	24100	135855	26908	1014480	42128	109439	0	0	8267	562656	0	0
2024-06-14 13:52:32			0	37761	0	0	0	25529	24110	135835	26781	1014604	42129	109444	0	0	8267	562387	0	0
2024-06-14 13:53:32			0	37778	0	0	0	25535	24110	135731	27112	1014524	42152	109446	0	0	8268	561715	0	0
2024-06-14 13:54:32			0	37783	0	0	0	25545	24120	135783	27142	1014621	42131	109450	0	0	8268	561485	0	0
2024-06-14 13:55:32			0	37768	0	0	0	25553	24120	135759	27036	1014595	42131	109453	0	0	8267	562078	0	0
2024-06-14 13:56:32			0	37785	0	0	0	25553	24130	135795	26871	1014674	42143	109453	0	0	8268	561374	0	0
2024-06-14 13:57:32			0	37784	0	0	0	25563	24140	135815	27235	1014629	42144	109457	0	0	8268	561382	0	0
2024-06-14 13:58:32			0	37803	0	0	0	25573	24150	135699	27189	1014700	42133	109461	0	0	8269	560600	0	0
2024-06-14 13:59:32			0	37814	0	0	0	25576	24150	135771	26812	1014646	42133	109462	0	0	8269	560165	0	0
2024-06-14 14:00:32			0	37793	0	0	0	25568	24150	135715	26817	1014655	42123	109459	0	0	8268	560995	0	0
2024-06-14 14:01:32			0	37786	0	0	0	25563	24150	135771	27381	1014601	42133	109457	0	0	8268	561272	0	0
2024-06-14 14:02:32			0	37789	0	0	0	25555	24140	135703	27296	1014611	42133	109454	0	0	8268	561185	0	0
2024-06-14 14:03:32			0	37779	0	0	0	25553	24140	135663	27071	1014602	42133	109453	0	0	8268	561580	0	0
2024-06-14 14:04:32			0	37807	0	0	0	25540	24140	135639	27126	1014638	42122	109448	0	0	8269	560473	0	0
2024-06-14 14:05:32			0	37802	0	0	0	25550	24140	135527	27081	1014691	42144	109452	0	0	8269	560671	0	0
2024-06-14 14:06:32			0	37819	0	0	0	25571	24150	135603	27107	1014735	42133	109460	0	0	8270	559968	0	0
2024-06-14 14:07:32			0	37799	0	0	0	25584	24160	135603	26934	1014743	42146	109465	0	0	8268	560726	0	0
2024-06-14 14:08:32			0	37795	0	0	0	25576	24160	135591	27208	1014805	42124	109462	0	0	8268	560884	0	0
2024-06-14 14:09:32			0	37796	0	0	0	25573	24160	135659	26824	1014672	42134	109461	0	0	8268	560845	0	0
2024-06-14 14:10:32			0	37783	0	0	0	25568	24150	135719	26856	1014601	42145	109459	0	0	8268	561390	0	0
2024-06-14 14:11:32			0	37777	0	0	0	25566	24160	135675	27104	1014797	42157	109458	0	0	8267	561596	0	0
2024-06-14 14:12:32			0	37782	0	0	0	25576	24160	135791	27220	1014690	42134	109462	0	0	8268	561398	0	0
2024-06-14 14:13:32			0	37794	0	0	0	25576	24160	135691	27197	1014699	42146	109462	0	0	8268	560924	0	0
2024-06-14 14:14:32			0	37780	0	0	0	25573	24160	135771	26987	1014752	42134	109461	0	0	8267	561477	0	0
2024-06-14 14:15:32			0	37775	0	0	0	25568	24160	135627	26719	1014743	42134	109459	0	0	8267	561675	0	0
2024-06-14 14:16:32			0	37772	0	0	0	25561	24150	135659	27196	1014708	42133	109456	0	0	8267	561825	0	0
2024-06-14 14:17:32			0	37772	0	0	0	25555	24160	135603	26941	1014690	42134	109454	0	0	8267	561793	0	0
2024-06-14 14:18:32			0	37780	0	0	0	25555	24160	135607	26752	1014752	42113	109454	0	0	8268	561477	0	0
2024-06-14 14:19:32			0	37790	0	0	0	25550	24150	135647	27003	1014708	42133	109452	0	0	8268	561113	0	0
2024-06-14 14:20:32			0	37794	0	0	0	25561	24160	135695	26984	1014725	42146	109456	0	0	8268	560924	0	0
2024-06-14 14:21:32			0	37808	0	0	0	25566	24160	135627	27107	1014779	42146	109458	0	0	8269	560371	0	0
2024-06-14 14:22:32			0	37808	0	0	0	25561	24160	135683	27020	1014717	42134	109456	0	0	8269	560371	0	0
2024-06-14 14:23:32			0	37789	0	0	0	25555	24160	135583	26824	1014672	42146	109454	0	0	8268	561121	0	0
2024-06-14 14:24:32			0	37816	0	0	0	25563	24160	135647	26871	1014672	42134	109457	0	0	8270	560055	0	0
2024-06-14 14:25:32			0	37803	0	0	0	25566	24160	135535	27118	1014770	42134	109458	0	0	8269	560568	0	0
2024-06-14 14:26:32			0	37808	0	0	0	25558	24170	135551	27166	1014707	42135	109455	0	0	8269	560339	0	0
2024-06-14 14:27:32			0	37813	0	0	0	25558	24160	135611	27161	1014717	42146	109455	0	0	8269	560173	0	0
2024-06-14 14:28:32			0	37811	0	0	0	25550	24170	135647	27090	1014734	42147	109452	0	0	8270	560221	0	0
2024-06-14 14:29:32			0	37832	0	0	0	25545	24160	135599	27010	1014556	42124	109450	0	0	8271	559423	0	0
2024-06-14 14:30:32			0	37814	0	0	0	25535	24140	135587	27112	1014531	42133	109446	0	0	8270	560197	0	0
2024-06-14 14:31:32			0	37828	0	0	0	25522	24150	135559	26817	1014566	42145	109441	0	0	8271	559613	0	0
2024-06-14 14:32:32			0	37814	0	0	0	25516	24130	135499	27026	1014540	42132	109439	0	0	8270	560229	0	0
2024-06-14 14:33:32			0	37832	0	0	0	25516	24140	135563	26852	1014522	42133	109439	0	0	8271	559487	0	0
2024-06-14 14:34:32			0	37834	0	0	0	25493	24130	135547	26953	1014433	42132	109430	0	0	8272	559439	0	0
2024-06-14 14:35:32			0	37826	0	0	0	25493	24110	135499	27194	1014346	42108	109430	0	0	8271	559818	0	0
2024-06-14 14:36:32			0	37837	0	0	0	25472	24100	135495	27024	1014355	42129	109422	0	0	8272	559416	0	0
2024-06-14 14:37:32			0	37836	0	0	0	25472	24110	135547	27031	1014417	42140	109422	0	0	8272	559424	0	0
2024-06-14 14:38:32			0	37862	0	0	0	25475	24110	135451	27159	1014364	42129	109423	0	0	8273	558398	0	0
2024-06-14 14:39:32			0	37844	0	0	0	25470	24100	135419	27227	1014320	42139	109421	0	0	8272	559139	0	0
2024-06-14 14:40:32			0	37861	0	0	0	25457	24090	135339	26989	1014303	42105	109416	0	0	8273	558501	0	0
2024-06-14 14:41:32			0	37866	0	0	0	25454	24080	135423	26776	1014259	42126	109415	0	0	8274	558335	0	0
2024-06-14 14:42:32			0	37863	0	0	0	25441	24080	135359	27308	1014259	42116	109410	0	0	8274	558454	0	0
2024-06-14 14:43:32			0	37865	0	0	0	25441	24080	135471	27163	1014259	42126	109410	0	0	8274	558375	0	0
2024-06-14 14:44:32			0	37888	0	0	0	25444	24080	135323	27173	1014259	42149	109411	0	0	8275	557469	0	0
2024-06-14 14:45:32			0	37891	0	0	0	25444	24080	135403	27152	1014286	42126	109411	0	0	8275	557351	0	0
2024-06-14 14:46:32			0	37886	0	0	0	25446	24070	135443	26715	1014188	42125	109412	0	0	8275	557579	0	0
2024-06-14 14:47:32			0	37877	0	0	0	25444	24070	135351	26682	1014330	42126	109411	0	0	8274	557934	0	0
2024-06-14 14:48:32			0	37891	0	0	0	25446	24070	135371	26781	1014250	42116	109412	0	0	8275	557382	0	0
2024-06-14 14:49:32			0	37890	0	0	0	25454	24070	135371	27128	1014224	42138	109415	0	0	8275	557422	0	0
2024-06-14 14:50:32			0	37877	0	0	0	25451	24060	135287	27003	1014224	42125	109414	0	0	8274	557965	0	0
2024-06-14 14:51:32			0	37864	0	0	0	25446	24060	135347	26994	1014251	42103	109412	0	0	8274	558477	0	0
2024-06-14 14:52:32			0	37867	0	0	0	25446	24060	135387	27109	1014206	42125	109412	0	0	8274	558359	0	0
2024-06-14 14:53:32			0	37873	0	0	0	25449	24060	135447	26937	1014198	42136	109413	0	0	8274	558122	0	0
2024-06-14 14:54:32			0	37891	0	0	0	25451	24060	135443	26970	1014287	42115	109414	0	0	8275	557414	0	0
2024-06-14 14:55:32			0	37876	0	0	0	25441	24070	135407	27062	1014242	42115	109410	0	0	8274	557973	0	0
2024-06-14 14:56:32			0	37862	0	0	0	25451	24070	135343	26911	1014242	42104	109414	0	0	8273	558524	0	0
2024-06-14 14:57:32			0	37880	0	0	0	25449	24050	135435	27149	1014242	42135	109413	0	0	8274	557878	0	0
2024-06-14 14:58:32			0	37862	0	0	0	25446	24070	135395	27149	1014277	42126	109412	0	0	8274	558524	0	0
2024-06-14 14:59:32			0	37888	0	0	0	25441	24070	135435	27071	1014295	42125	109410	0	0	8275	557500	0	0
2024-06-14 15:00:32			0	37853	0	0	0	25441	24070	135467	27024	1014242	42115	109410	0	0	8273	558879	0	0
2024-06-14 15:01:32			0	37886	0	0	0	25449	24070	135403	26902	1014242	42125	109413	0	0	8275	557579	0	0
2024-06-14 15:02:32			0	37857	0	0	0	25457	24080	135379	26859	1014286	42138	109416	0	0	8273	558690	0	0
2024-06-14 15:03:32			0	37886	0	0	0	25454	24070	135431	26797	1014384	42105	109415	0	0	8275	557579	0	0
2024-06-14 15:04:32			0	37880	0	0	0	25464	24070	135439	27121	1014330	42126	109419	0	0	8274	557815	0	0
2024-06-14 15:05:32			0	37857	0	0	0	25475	24090	135483	27176	1014436	42117	109423	0	0	8273	558659	0	0
2024-06-14 15:06:32			0	37868	0	0	0	25483	24090	135419	27156	1014410	42127	109426	0	0	8273	558225	0	0
2024-06-14 15:07:32			0	37863	0	0	0	25483	24090	135371	26809	1014365	42139	109426	0	0	8273	558422	0	0
2024-06-14 15:08:32			0	37880	0	0	0	25472	24100	135415	27282	1014400	42118	109422	0	0	8274	557721	0	0
2024-06-14 15:09:32			0	37859	0	0	0	25485	24100	135459	27135	1014453	42128	109427	0	0	8273	558548	0	0
2024-06-14 15:10:32			0	37880	0	0	0	25483	24110	135443	27209	1014452	42120	109426	0	0	8274	557689	0	0
2024-06-14 15:11:32			0	37856	0	0	0	25485	24100	135483	26641	1014462	42129	109427	0	0	8273	558666	0	0
2024-06-14 15:12:32			0	37869	0	0	0	25483	24110	135423	26847	1014506	42141	109426	0	0	8273	558123	0	0
2024-06-14 15:13:32			0	37852	0	0	0	25493	24110	135411	27022	1014497	42129	109430	0	0	8272	558793	0	0
2024-06-14 15:14:32			0	37859	0	0	0	25493	24110	135427	26835	1014551	42119	109430	0	0	8273	558517	0	0
2024-06-14 15:15:32			0	37862	0	0	0	25493	24110	135403	26981	1014533	42130	109430	0	0	8273	558398	0	0
2024-06-14 15:16:32			0	37872	0	0	0	25503	24120	135439	27083	1014514	42120	109434	0	0	8273	557973	0	0
2024-06-14 15:17:32			0	37867	0	0	0	25490	24120	135447	26899	1014568	42131	109429	0	0	8273	558170	0	0
2024-06-14 15:18:32			0	37841	0	0	0	25488	24120	135447	26663	1014461	42098	109428	0	0	8272	559195	0	0
2024-06-14 15:19:32			0	37853	0	0	0	25488	24120	135419	26970	1014488	42120	109428	0	0	8273	558722	0	0
2024-06-14 15:20:32			0	37851	0	0	0	25483	24100	135519	26835	1014382	42119	109426	0	0	8272	558863	0	0
2024-06-14 15:21:32			0	37829	0	0	0	25485	24110	135523	26922	1014506	42130	109427	0	0	8271	559700	0	0
2024-06-14 15:22:32			0	37849	0	0	0	25490	24120	135419	26972	1014488	42120	109429	0	0	8272	558879	0	0
2024-06-14 15:23:32			0	37850	0	0	0	25490	24110	135463	26724	1014506	42120	109429	0	0	8272	558871	0	0
2024-06-14 15:24:32			0	37834	0	0	0	25493	24120	135535	27194	1014514	42109	109430	0	0	8271	559471	0	0
2024-06-14 15:25:32			0	37826	0	0	0	25506	24110	135579	26989	1014497	42129	109435	0	0	8271	559818	0	0
2024-06-14 15:26:32			0	37836	0	0	0	25511	24120	135463	26675	1014568	42120	109437	0	0	8271	559392	0	0
2024-06-14 15:27:32			0	37824	0	0	0	25516	24120	135523	27003	1014514	42120	109439	0	0	8271	559865	0	0
2024-06-14 15:28:32			0	37828	0	0	0	25514	24120	135523	27107	1014523	42142	109438	0	0	8271	559708	0	0
2024-06-14 15:29:32			0	37814	0	0	0	25514	24120	135623	26837	1014541	42131	109438	0	0	8270	560260	0	0
2024-06-14 15:30:32			0	37822	0	0	0	25506	24110	135599	26696	1014506	42120	109435	0	0	8271	559976	0	0
2024-06-14 15:31:32			0	37806	0	0	0	25509	24110	135659	27045	1014497	42129	109436	0	0	8270	560608	0	0
2024-06-14 15:32:32			0	37786	0	0	0	25506	24120	135667	27097	1014514	42120	109435	0	0	8269	561367	0	0
2024-06-14 15:33:32			0	37801	0	0	0	25506	24120	135575	27206	1014568	42120	109435	0	0	8270	560774	0	0
2024-06-14 15:34:32			0	37791	0	0	0	25511	24130	135539	27196	1014665	42142	109437	0	0	8269	561137	0	0
2024-06-14 15:35:32			0	37781	0	0	0	25548	24140	135603	27067	1014789	42144	109451	0	0	8268	561501	0	0
2024-06-14 15:36:32			0	37789	0	0	0	25571	24170	135647	26904	1014974	42158	109460	0	0	8268	561090	0	0
2024-06-14 15:37:32			0	37795	0	0	0	25597	24170	135591	26904	1015063	42147	109470	0	0	8268	560853	0	0
2024-06-14 15:38:32			0	37774	0	0	0	25625	24200	135647	27083	1015142	42139	109481	0	0	8266	561588	0	0
2024-06-14 15:39:32			0	37770	0	0	0	25646	24210	135639	27053	1015230	42139	109489	0	0	8266	561714	0	0
2024-06-14 15:40:32			0	37748	0	0	0	25680	24240	135635	27263	1015424	42154	109502	0	0	8264	562489	0	0
2024-06-14 15:41:32			0	37753	0	0	0	25719	24250	135711	27086	1015486	42155	109517	0	0	8264	562260	0	0
2024-06-14 15:42:32			0	37743	0	0	0	25755	24290	135699	27157	1015555	42159	109531	0	0	8263	562528	0	0
2024-06-14 15:43:32			0	37745	0	0	0	25784	24300	135839	27216	1015679	42159	109542	0	0	8263	562417	0	0
2024-06-14 15:44:32			0	37734	0	0	0	25794	24320	135919	27059	1015732	42172	109546	0	0	8262	562789	0	0
2024-06-14 15:45:32			0	37704	0	0	0	25802	24340	135803	27126	1015855	42173	109549	0	0	8260	563914	0	0
2024-06-14 15:46:32			0	37712	0	0	0	25820	24360	135803	27287	1015889	42175	109556	0	0	8261	563533	0	0
2024-06-14 15:47:32			0	37726	0	0	0	25833	24370	135711	27038	1015925	42154	109561	0	0	8261	562947	0	0
2024-06-14 15:48:32			0	37705	0	0	0	25838	24390	135747	27074	1015941	42167	109563	0	0	8260	563715	0	0
2024-06-14 15:49:32			0	37733	0	0	0	25841	24390	135723	26994	1015968	42156	109564	0	0	8261	562606	0	0
2024-06-14 15:50:32			0	37734	0	0	0	25844	24400	135759	27159	1015949	42168	109565	0	0	8262	562535	0	0
2024-06-14 15:51:32			0	37712	0	0	0	25838	24400	135859	26880	1015985	42147	109563	0	0	8260	563406	0	0
2024-06-14 15:52:32			0	37708	0	0	0	25846	24420	135759	27109	1016037	42159	109566	0	0	8260	563500	0	0
2024-06-14 15:53:32			0	37723	0	0	0	25864	24430	135699	26928	1016161	42170	109573	0	0	8261	562875	0	0
2024-06-14 15:54:32			0	37715	0	0	0	25885	24440	135787	27230	1016214	42162	109581	0	0	8260	563160	0	0
2024-06-14 15:55:32			0	37709	0	0	0	25898	24440	135839	27194	1016187	42183	109586	0	0	8259	563397	0	0
2024-06-14 15:56:32			0	37725	0	0	0	25906	24460	135751	27138	1016275	42164	109589	0	0	8260	562700	0	0
2024-06-14 15:57:32			0	37738	0	0	0	25896	24460	135755	27015	1016293	42173	109585	0	0	8261	562186	0	0
2024-06-14 15:58:32			0	37718	0	0	0	25885	24480	135667	27307	1016310	42165	109581	0	0	8260	562914	0	0
2024-06-14 15:59:32			0	37708	0	0	0	25854	24470	135699	26817	1016078	42153	109569	0	0	8260	563341	0	0
2024-06-14 16:00:32			0	37730	0	0	0	25802	24450	135735	27039	1015848	42129	109549	0	0	8262	562534	0	0
2024-06-14 16:01:32			0	37725	0	0	0	25763	24430	135767	27079	1015760	42137	109534	0	0	8263	562796	0	0
2024-06-14 16:02:32			0	37726	0	0	0	25740	24420	135711	27209	1015770	42148	109525	0	0	8263	562788	0	0
2024-06-14 16:03:32			0	37724	0	0	0	25716	24410	135711	27135	1015708	42147	109516	0	0	8263	562899	0	0
2024-06-14 16:04:32			0	37732	0	0	0	25706	24390	135743	26968	1015620	42156	109512	0	0	8264	562646	0	0
2024-06-14 16:05:32			0	37738	0	0	0	25677	24390	135671	26852	1015585	42145	109501	0	0	8265	562408	0	0
2024-06-14 16:06:32			0	37756	0	0	0	25680	24370	135675	27076	1015639	42143	109502	0	0	8265	561760	0	0
2024-06-14 16:07:32			0	37748	0	0	0	25680	24370	135699	27105	1015612	42143	109502	0	0	8265	562076	0	0
2024-06-14 16:08:32			0	37753	0	0	0	25659	24360	135707	26923	1015381	42131	109494	0	0	8265	561910	0	0
2024-06-14 16:09:32			0	37749	0	0	0	25636	24340	135731	26873	1015294	42119	109485	0	0	8266	562132	0	0
2024-06-14 16:10:32			0	37760	0	0	0	25612	24330	135631	26998	1015161	42117	109476	0	0	8267	561729	0	0
2024-06-14 16:11:32			0	37763	0	0	0	25581	24300	135655	27013	1015064	42114	109464	0	0	8267	561705	0	0
2024-06-14 16:12:32			0	37768	0	0	0	25563	24260	135695	26897	1014950	42111	109457	0	0	8267	561634	0	0
2024-06-14 16:13:32			0	37750	0	0	0	25553	24240	135695	26963	1014854	42130	109453	0	0	8267	562410	0	0
2024-06-14 16:14:32			0	37747	0	0	0	25540	24240	135771	27227	1014934	42120	109448	0	0	8267	562529	0	0
2024-06-14 16:15:32			0	37753	0	0	0	25542	24220	135695	27043	1014873	42118	109449	0	0	8267	562355	0	0
2024-06-14 16:16:32			0	37735	0	0	0	25540	24210	135723	27022	1014865	42128	109448	0	0	8266	563099	0	0
2024-06-14 16:17:32			0	37768	0	0	0	25535	24210	135719	27098	1014883	42128	109446	0	0	8268	561793	0	0
2024-06-14 16:18:32			0	37758	0	0	0	25540	24200	135687	27182	1014812	42127	109448	0	0	8267	562220	0	0
2024-06-14 16:19:32			0	37770	0	0	0	25540	24200	135755	27034	1014848	42128	109448	0	0	8268	561746	0	0
2024-06-14 16:20:32			0	37750	0	0	0	25537	24200	135731	27258	1014839	42127	109447	0	0	8267	562537	0	0
2024-06-14 16:21:32			0	37764	0	0	0	25545	24200	135727	27022	1014866	42138	109450	0	0	8267	561983	0	0
2024-06-14 16:22:32			0	37750	0	0	0	25553	24200	135723	26987	1014892	42138	109453	0	0	8266	562537	0	0
2024-06-14 16:23:32			0	37751	0	0	0	25558	24200	135771	27306	1014928	42128	109455	0	0	8266	562497	0	0
2024-06-14 16:24:32			0	37751	0	0	0	25563	24200	135739	27175	1014892	42127	109457	0	0	8266	562497	0	0
2024-06-14 16:25:32			0	37753	0	0	0	25571	24200	135695	26991	1014946	42127	109460	0	0	8266	562418	0	0
2024-06-14 16:26:32			0	37751	0	0	0	25576	24190	135751	26965	1014964	42137	109462	0	0	8266	562529	0	0
2024-06-14 16:27:32			0	37728	0	0	0	25576	24200	135879	26800	1014946	42116	109462	0	0	8265	563408	0	0
2024-06-14 16:28:32			0	37736	0	0	0	25568	24200	135863	26779	1014901	42128	109459	0	0	8265	563091	0	0
2024-06-14 16:29:32			0	37734	0	0	0	25558	24200	135807	26837	1014839	42138	109455	0	0	8266	563171	0	0
2024-06-14 16:30:32			0	37718	0	0	0	25563	24190	135907	26840	1014875	42137	109457	0	0	8265	563836	0	0
2024-06-14 16:31:32			0	37729	0	0	0	25558	24200	135879	26965	1014812	42127	109455	0	0	8265	563369	0	0
2024-06-14 16:32:32			0	37722	0	0	0	25548	24180	135863	26904	1014671	42115	109451	0	0	8265	563710	0	0
2024-06-14 16:33:32			0	37716	0	0	0	25535	24180	135807	26844	1014724	42115	109446	0	0	8265	563947	0	0
2024-06-14 16:34:32			0	37717	0	0	0	25524	24160	135903	26734	1014663	42124	109442	0	0	8265	563972	0	0
2024-06-14 16:35:32			0	37730	0	0	0	25514	24160	135927	26684	1014663	42124	109438	0	0	8266	563456	0	0
2024-06-14 16:36:32			0	37713	0	0	0	25506	24160	135903	27121	1014610	42124	109435	0	0	8265	564130	0	0
2024-06-14 16:37:32			0	37708	0	0	0	25503	24150	136027	26805	1014601	42133	109434	0	0	8265	564360	0	0
2024-06-14 16:38:32			0	37706	0	0	0	25498	24140	135943	26824	1014718	42122	109432	0	0	8265	564471	0	0
2024-06-14 16:39:32			0	37707	0	0	0	25496	24140	135955	26726	1014638	42122	109431	0	0	8265	564432	0	0
2024-06-14 16:40:32			0	37687	0	0	0	25522	24150	136047	26939	1014735	42133	109441	0	0	8263	565194	0	0
2024-06-14 16:41:32			0	37687	0	0	0	25532	24150	136027	26876	1014806	42133	109445	0	0	8263	565194	0	0
2024-06-14 16:42:32			0	37676	0	0	0	25553	24170	136031	27055	1014894	42147	109453	0	0	8262	565567	0	0
2024-06-14 16:43:32			0	37681	0	0	0	25581	24190	135911	27041	1015071	42148	109464	0	0	8262	565304	0	0
2024-06-14 16:44:32			0	37679	0	0	0	25610	24210	135999	26790	1015266	42150	109475	0	0	8262	565320	0	0
2024-06-14 16:45:32			0	37678	0	0	0	25638	24230	136031	26859	1015318	42141	109486	0	0	8261	565296	0	0
2024-06-14 16:46:32			0	37654	0	0	0	25662	24240	136075	26873	1015344	42143	109495	0	0	8260	566217	0	0
2024-06-14 16:47:32			0	37645	0	0	0	25654	24250	136107	27170	1015308	42132	109492	0	0	8260	566543	0	0
2024-06-14 16:48:32			0	37653	0	0	0	25657	24250	136119	26934	1015227	42144	109493	0	0	8260	566225	0	0
2024-06-14 16:49:32			0	37638	0	0	0	25644	24250	136183	26833	1015192	42132	109488	0	0	8259	566821	0	0
2024-06-14 16:50:32			0	37638	0	0	0	25633	24260	136103	27092	1015129	42144	109484	0	0	8260	566789	0	0
2024-06-14 16:51:32			0	37631	0	0	0	25620	24240	136123	27152	1015148	42142	109479	0	0	8259	567132	0	0
2024-06-14 16:52:32			0	37613	0	0	0	25625	24230	136187	27157	1015140	42120	109481	0	0	8258	567880	0	0
2024-06-14 16:53:32			0	37611	0	0	0	25631	24240	136247	27294	1015175	42130	109483	0	0	8258	567928	0	0
2024-06-14 16:54:32			0	37593	0	0	0	25620	24240	136179	26993	1015148	42130	109479	0	0	8257	568645	0	0
2024-06-14 16:55:32			0	37602	0	0	0	25618	24240	136203	27029	1015041	42142	109478	0	0	8258	568286	0	0
2024-06-14 16:56:32			0	37593	0	0	0	25599	24230	136255	26863	1015006	42142	109471	0	0	8258	568677	0	0
2024-06-14 16:57:32			0	37607	0	0	0	25602	24230	136275	27036	1014971	42130	109472	0	0	8258	568119	0	0
2024-06-14 16:58:32			0	37596	0	0	0	25586	24220	136303	27076	1014962	42119	109466	0	0	8258	568590	0	0
2024-06-14 16:59:32			0	37577	0	0	0	25571	24210	136335	26861	1014936	42117	109460	0	0	8257	569379	0	0
2024-06-14 17:00:32			0	37589	0	0	0	25566	24210	136303	26772	1014829	42128	109458	0	0	8258	568901	0	0
2024-06-14 17:01:32			0	37578	0	0	0	25566	24210	136323	26826	1014936	42117	109458	0	0	8257	569340	0	0
2024-06-14 17:02:32			0	37562	0	0	0	25561	24200	136387	27053	1014928	42128	109456	0	0	8257	570010	0	0
2024-06-14 17:03:32			0	37580	0	0	0	25602	24220	136355	27003	1015248	42151	109472	0	0	8257	569228	0	0
2024-06-14 17:04:32			0	37570	0	0	0	25633	24240	136327	26712	1015397	42165	109484	0	0	8256	569562	0	0
2024-06-14 17:05:32			0	37571	0	0	0	25667	24280	136331	26868	1015538	42157	109497	0	0	8256	569394	0	0
2024-06-14 17:06:32			0	37551	0	0	0	25714	24300	136431	26698	1015679	42159	109515	0	0	8254	570127	0	0
2024-06-14 17:07:32			0	37556	0	0	0	25742	24330	136443	26814	1015829	42161	109526	0	0	8254	569831	0	0
2024-06-14 17:08:32			0	37557	0	0	0	25774	24340	136491	26759	1015855	42163	109538	0	0	8253	569759	0	0
2024-06-14 17:09:32			0	37537	0	0	0	25797	24360	136451	27111	1015889	42142	109547	0	0	8252	570493	0	0
2024-06-14 17:10:32			0	37521	0	0	0	25820	24390	136435	26805	1015986	42167	109556	0	0	8251	571035	0	0
2024-06-14 17:11:32			0	37529	0	0	0	25836	24410	136479	27192	1016020	42158	109562	0	0	8251	570651	0	0
2024-06-14 17:12:32			0	37528	0	0	0	25859	24410	136499	27033	1016154	42169	109571	0	0	8251	570691	0	0
2024-06-14 17:13:32			0	37525	0	0	0	25880	24430	136483	27085	1016250	42170	109579	0	0	8250	570746	0	0
2024-06-14 17:14:32			0	37520	0	0	0	25890	24450	136547	27189	1016312	42173	109583	0	0	8250	570882	0	0
2024-06-14 17:15:32			0	37509	0	0	0	25901	24460	136527	26875	1016302	42174	109587	0	0	8249	571289	0	0
2024-06-14 17:16:32			0	37515	0	0	0	25903	24470	136463	27227	1016346	42165	109588	0	0	8249	571017	0	0
2024-06-14 17:17:32			0	37490	0	0	0	25885	24480	136431	27133	1016390	42165	109581	0	0	8249	571984	0	0
2024-06-14 17:18:32			0	37486	0	0	0	25901	24480	136487	27142	1016390	42176	109587	0	0	8248	572144	0	0
2024-06-14 17:19:32			0	37504	0	0	0	25909	24500	136511	27218	1016469	42166	109590	0	0	8249	571359	0	0
2024-06-14 17:20:32			0	37512	0	0	0	25890	24500	136543	27069	1016424	42156	109583	0	0	8250	571040	0	0
2024-06-14 17:21:32			0	37498	0	0	0	25906	24510	136475	27206	1016495	42157	109589	0	0	8249	571567	0	0
2024-06-14 17:22:32			0	37491	0	0	0	25922	24510	136507	27192	1016575	42167	109595	0	0	8248	571847	0	0
2024-06-14 17:23:32			0	37496	0	0	0	25945	24520	136415	26986	1016503	42179	109604	0	0	8248	571615	0	0
2024-06-14 17:24:32			0	37496	0	0	0	25968	24540	136575	27116	1016698	42181	109613	0	0	8248	571550	0	0
2024-06-14 17:25:32			0	37489	0	0	0	25963	24540	136447	27204	1016618	42170	109611	0	0	8247	571830	0	0
2024-06-14 17:26:32			0	37523	0	0	0	25971	24540	136571	27187	1016680	42170	109614	0	0	8249	570472	0	0
2024-06-14 17:27:32			0	37500	0	0	0	25958	24550	136559	27313	1016689	42171	109609	0	0	8248	571358	0	0
2024-06-14 17:28:32			0	37484	0	0	0	25958	24560	136555	27258	1016733	42150	109609	0	0	8247	571965	0	0
2024-06-14 17:29:32			0	37479	0	0	0	25950	24550	136515	26991	1016644	42172	109606	0	0	8247	572197	0	0
2024-06-14 17:30:32			0	37501	0	0	0	25937	24550	136479	27083	1016582	42171	109601	0	0	8249	571318	0	0
2024-06-14 17:31:32			0	37503	0	0	0	25937	24550	136519	27027	1016590	42150	109601	0	0	8249	571238	0	0
2024-06-14 17:32:32			0	37494	0	0	0	25924	24540	136511	27092	1016573	42160	109596	0	0	8248	571630	0	0
2024-06-14 17:33:32			0	37495	0	0	0	25924	24550	136587	26840	1016608	42161	109596	0	0	8248	571558	0	0
2024-06-14 17:34:32			0	37513	0	0	0	25914	24540	136479	27206	1016546	42181	109592	0	0	8249	570871	0	0
2024-06-14 17:35:32			0	37508	0	0	0	25909	24550	136519	27102	1016501	42161	109590	0	0	8249	571038	0	0
2024-06-14 17:36:32			0	37491	0	0	0	25896	24540	136503	27041	1016466	42170	109585	0	0	8249	571750	0	0
2024-06-14 17:37:32			0	37501	0	0	0	25898	24540	136403	27100	1016600	42170	109586	0	0	8249	571350	0	0
2024-06-14 17:38:32			0	37527	0	0	0	25903	24540	136479	26885	1016511	42170	109588	0	0	8250	570312	0	0
2024-06-14 17:39:32			0	37496	0	0	0	25911	24540	136515	26944	1016565	42170	109591	0	0	8249	571550	0	0
2024-06-14 17:40:32			0	37500	0	0	0	25911	24540	136455	26864	1016538	42170	109591	0	0	8249	571390	0	0
2024-06-14 17:41:32			0	37508	0	0	0	25919	24540	136467	26816	1016600	42170	109594	0	0	8249	571070	0	0
2024-06-14 17:42:32			0	37510	0	0	0	25932	24550	136411	26935	1016617	42183	109599	0	0	8249	570958	0	0
2024-06-14 17:43:32			0	37501	0	0	0	25935	24560	136415	26831	1016626	42172	109600	0	0	8249	571286	0	0
2024-06-14 17:44:32			0	37493	0	0	0	25940	24560	136511	27170	1016688	42172	109602	0	0	8248	571605	0	0
2024-06-14 17:45:32			0	37490	0	0	0	25940	24560	136375	26902	1016706	42183	109602	0	0	8248	571725	0	0
2024-06-14 17:46:32			0	37506	0	0	0	25942	24560	136363	27208	1016661	42162	109603	0	0	8249	571086	0	0
2024-06-14 17:47:32			0	37510	0	0	0	25945	24560	136419	26601	1016626	42183	109604	0	0	8249	570926	0	0
2024-06-14 17:48:32			0	37510	0	0	0	25940	24550	136367	26797	1016644	42172	109602	0	0	8249	570958	0	0
2024-06-14 17:49:32			0	37515	0	0	0	25942	24560	136415	27303	1016599	42172	109603	0	0	8249	570726	0	0
2024-06-14 17:50:32			0	37518	0	0	0	25948	24560	136379	26870	1016661	42172	109605	0	0	8249	570607	0	0
2024-06-14 17:51:32			0	37512	0	0	0	25955	24570	136407	27255	1016643	42173	109608	0	0	8249	570814	0	0
2024-06-14 17:52:32			0	37508	0	0	0	25948	24570	136315	27027	1016697	42184	109605	0	0	8249	570974	0	0
2024-06-14 17:53:32			0	37506	0	0	0	25948	24560	136403	27074	1016635	42162	109605	0	0	8249	571086	0	0
2024-06-14 17:54:32			0	37531	0	0	0	25937	24550	136419	27137	1016563	42162	109601	0	0	8250	570120	0	0
2024-06-14 17:55:32			0	37530	0	0	0	25937	24550	136311	27154	1016590	42172	109601	0	0	8250	570160	0	0
2024-06-14 17:56:32			0	37525	0	0	0	25919	24540	136315	27098	1016520	42160	109594	0	0	8250	570392	0	0
2024-06-14 17:57:32			0	37532	0	0	0	25919	24540	136351	27296	1016511	42160	109594	0	0	8250	570112	0	0
2024-06-14 17:58:32			0	37540	0	0	0	25906	24530	136291	27319	1016387	42159	109589	0	0	8251	569825	0	0
2024-06-14 17:59:32			0	37538	0	0	0	25877	24520	136319	27281	1016245	42158	109578	0	0	8251	569938	0	0
2024-06-14 18:00:32			0	37559	0	0	0	25844	24510	136319	27166	1016165	42146	109565	0	0	8253	569132	0	0
2024-06-14 18:01:32			0	37553	0	0	0	25812	24490	136311	27436	1016140	42144	109553	0	0	8253	569436	0	0
2024-06-14 18:02:32			0	37587	0	0	0	25802	24480	136247	27462	1016141	42153	109549	0	0	8255	568113	0	0
2024-06-14 18:03:32			0	37565	0	0	0	25794	24460	136263	27010	1016035	42174	109546	0	0	8254	569054	0	0
2024-06-14 18:04:32			0	37587	0	0	0	25784	24450	136227	27225	1015964	42140	109542	0	0	8255	568210	0	0
2024-06-14 18:05:32			0	37585	0	0	0	25768	24440	136235	26942	1015813	42139	109536	0	0	8255	568322	0	0
2024-06-14 18:06:32			0	37604	0	0	0	25748	24430	136283	27159	1015796	42149	109528	0	0	8257	567597	0	0
2024-06-14 18:07:32			0	37588	0	0	0	25727	24410	136239	26811	1015681	42147	109520	0	0	8256	568298	0	0
2024-06-14 18:08:32			0	37600	0	0	0	25711	24390	136143	27093	1015673	42156	109514	0	0	8257	567885	0	0
2024-06-14 18:09:32			0	37615	0	0	0	25706	24370	136203	27066	1015639	42155	109512	0	0	8258	567352	0	0
2024-06-14 18:10:32			0	37609	0	0	0	25690	24370	136183	27033	1015639	42143	109506	0	0	8258	567591	0	0
2024-06-14 18:11:32			0	37627	0	0	0	25688	24370	136079	27038	1015604	42131	109505	0	0	8258	566875	0	0
2024-06-14 18:12:32			0	37638	0	0	0	25683	24360	136103	26826	1015480	42131	109503	0	0	8259	566469	0	0
2024-06-14 18:13:32			0	37638	0	0	0	25680	24350	136047	27350	1015543	42163	109502	0	0	8259	566501	0	0
2024-06-14 18:14:32			0	37631	0	0	0	25675	24340	136031	27192	1015445	42140	109500	0	0	8259	566812	0	0
2024-06-14 18:15:32			0	37636	0	0	0	25654	24320	136127	27135	1015366	42139	109492	0	0	8259	566677	0	0
2024-06-14 18:16:32			0	37664	0	0	0	25646	24300	136067	27235	1015313	42148	109489	0	0	8261	565628	0	0
2024-06-14 18:17:32			0	37650	0	0	0	25641	24310	136075	26772	1015322	42138	109487	0	0	8260	566152	0	0
2024-06-14 18:18:32			0	37682	0	0	0	25641	24290	136055	26915	1015189	42136	109487	0	0	8262	564946	0	0
2024-06-14 18:19:32			0	37685	0	0	0	25628	24290	135999	27279	1015287	42159	109482	0	0	8262	564826	0	0
2024-06-14 18:20:32			0	37695	0	0	0	25628	24280	136091	26878	1015324	42124	109482	0	0	8263	564462	0	0
2024-06-14 18:21:32			0	37669	0	0	0	25633	24290	136011	27166	1015368	42136	109484	0	0	8261	565462	0	0
2024-06-14 18:22:32			0	37690	0	0	0	25633	24290	135959	27064	1015261	42136	109484	0	0	8262	564628	0	0
2024-06-14 18:23:32			0	37711	0	0	0	25631	24280	136023	27244	1015324	42134	109483	0	0	8263	563827	0	0
2024-06-14 18:24:32			0	37698	0	0	0	25636	24260	135923	27187	1015298	42123	109485	0	0	8263	564406	0	0
2024-06-14 18:25:32			0	37719	0	0	0	25646	24270	135963	26937	1015253	42134	109489	0	0	8264	563542	0	0
2024-06-14 18:26:32			0	37698	0	0	0	25644	24280	135895	27048	1015332	42146	109488	0	0	8263	564343	0	0
2024-06-14 18:27:32			0	37737	0	0	0	25646	24270	135927	27268	1015360	42157	109489	0	0	8264	562829	0	0
2024-06-14 18:28:32			0	37740	0	0	0	25649	24270	135999	26856	1015333	42145	109490	0	0	8265	562710	0	0
2024-06-14 18:29:32			0	37714	0	0	0	25651	24260	135939	27005	1015325	42144	109491	0	0	8263	563772	0	0
2024-06-14 18:30:32			0	37737	0	0	0	25649	24280	135843	27059	1015270	42145	109490	0	0	8264	562797	0	0
2024-06-14 18:31:32			0	37722	0	0	0	25641	24270	135891	27175	1015307	42145	109487	0	0	8264	563423	0	0
2024-06-14 18:32:32			0	37745	0	0	0	25625	24270	135831	27048	1015173	42134	109481	0	0	8265	562513	0	0
2024-06-14 18:33:32			0	37745	0	0	0	25633	24250	135795	27126	1015219	42132	109484	0	0	8265	562576	0	0
2024-06-14 18:34:32			0	37754	0	0	0	25628	24250	135847	26868	1015192	42144	109482	0	0	8266	562220	0	0
2024-06-14 18:35:32			0	37771	0	0	0	25636	24240	135763	27048	1015184	42131	109485	0	0	8266	561579	0	0
2024-06-14 18:36:32			0	37750	0	0	0	25633	24250	135711	27026	1015227	42144	109484	0	0	8265	562378	0	0
2024-06-14 18:37:32			0	37761	0	0	0	25636	24250	135743	26942	1015174	42144	109485	0	0	8266	561943	0	0
2024-06-14 18:38:32			0	37784	0	0	0	25636	24260	135791	27066	1015236	42144	109485	0	0	8267	561002	0	0
2024-06-14 18:39:32			0	37788	0	0	0	25641	24250	135707	27123	1015254	42155	109487	0	0	8267	560876	0	0
2024-06-14 18:40:32			0	37797	0	0	0	25654	24250	135671	27157	1015272	42144	109492	0	0	8267	560520	0	0
2024-06-14 18:41:32			0	37793	0	0	0	25662	24270	135755	26724	1015360	42145	109495	0	0	8267	560615	0	0
2024-06-14 18:42:32			0	37793	0	0	0	25662	24260	135651	26868	1015351	42156	109495	0	0	8267	560647	0	0
2024-06-14 18:43:32			0	37809	0	0	0	25675	24280	135623	27135	1015404	42157	109500	0	0	8268	559952	0	0
2024-06-14 18:44:32			0	37794	0	0	0	25670	24260	135663	27204	1015396	42144	109498	0	0	8267	560607	0	0
2024-06-14 18:45:32			0	37803	0	0	0	25680	24270	135599	26889	1015342	42157	109502	0	0	8267	560220	0	0
2024-06-14 18:46:32			0	37819	0	0	0	25675	24280	135511	27000	1015413	42146	109500	0	0	8268	559557	0	0
2024-06-14 18:47:32			0	37828	0	0	0	25680	24270	135583	26764	1015449	42167	109502	0	0	8269	559234	0	0
2024-06-14 18:48:32			0	37818	0	0	0	25693	24290	135531	26998	1015456	42169	109507	0	0	8268	559565	0	0
2024-06-14 18:49:32			0	37837	0	0	0	25693	24290	135627	26866	1015475	42147	109507	0	0	8269	558816	0	0
2024-06-14 18:50:32			0	37843	0	0	0	25698	24300	135587	27095	1015439	42159	109509	0	0	8269	558548	0	0
2024-06-14 18:51:32			0	37852	0	0	0	25696	24300	135447	27072	1015439	42147	109508	0	0	8270	558194	0	0
2024-06-14 18:52:32			0	37841	0	0	0	25683	24290	135519	27093	1015376	42159	109503	0	0	8269	558658	0	0
2024-06-14 18:53:32			0	37839	0	0	0	25675	24290	135399	26982	1015394	42147	109500	0	0	8269	558737	0	0
2024-06-14 18:54:32			0	37849	0	0	0	25685	24290	135467	26885	1015403	42136	109504	0	0	8270	558343	0	0
2024-06-14 18:55:32			0	37866	0	0	0	25683	24280	135459	27123	1015386	42158	109503	0	0	8271	557705	0	0
2024-06-14 18:56:32			0	37872	0	0	0	25670	24280	135391	27255	1015439	42146	109498	0	0	8271	557469	0	0
2024-06-14 18:57:32			0	37884	0	0	0	25672	24270	135459	26908	1015288	42145	109499	0	0	8272	557029	0	0
2024-06-14 18:58:32			0	37862	0	0	0	25667	24280	135407	27045	1015252	42146	109497	0	0	8271	557863	0	0
2024-06-14 18:59:32			0	37872	0	0	0	25657	24260	135419	26844	1015263	42144	109493	0	0	8271	557532	0	0
2024-06-14 19:00:32			0	37877	0	0	0	25649	24260	135403	27355	1015191	42144	109490	0	0	8272	557336	0	0
2024-06-14 19:01:32			0	37859	0	0	0	25644	24260	135459	26977	1015209	42155	109488	0	0	8271	558044	0	0
2024-06-14 19:02:32			0	37875	0	0	0	25644	24260	135415	27013	1015183	42155	109488	0	0	8272	557414	0	0
2024-06-14 19:03:32			0	37875	0	0	0	25636	24260	135403	27090	1015183	42144	109485	0	0	8272	557414	0	0
2024-06-14 19:04:32			0	37876	0	0	0	25633	24250	135383	27308	1015139	42144	109484	0	0	8272	557406	0	0
2024-06-14 19:05:32			0	37872	0	0	0	25628	24240	135423	27194	1015095	42153	109482	0	0	8272	557595	0	0
2024-06-14 19:06:32			0	37879	0	0	0	25615	24230	135471	26828	1015059	42142	109477	0	0	8272	557351	0	0
2024-06-14 19:07:32			0	37859	0	0	0	25605	24230	135327	27306	1014997	42141	109473	0	0	8271	558139	0	0
2024-06-14 19:08:32			0	37870	0	0	0	25607	24220	135355	27144	1015060	42151	109474	0	0	8272	557737	0	0
2024-06-14 19:09:32			0	37886	0	0	0	25615	24230	135447	27010	1015078	42152	109477	0	0	8273	557076	0	0
2024-06-14 19:10:32			0	37886	0	0	0	25610	24220	135403	27248	1015096	42141	109475	0	0	8273	557107	0	0
2024-06-14 19:11:32			0	37875	0	0	0	25599	24220	135435	27157	1014989	42141	109471	0	0	8272	557540	0	0
2024-06-14 19:12:32			0	37864	0	0	0	25584	24220	135367	27180	1014980	42140	109465	0	0	8272	557973	0	0
2024-06-14 19:13:32			0	37868	0	0	0	25576	24210	135439	27043	1014936	42139	109462	0	0	8272	557847	0	0
2024-06-14 19:14:32			0	37885	0	0	0	25573	24200	135511	27104	1014919	42138	109461	0	0	8273	557210	0	0
2024-06-14 19:15:32			0	37862	0	0	0	25576	24190	135459	26805	1014857	42126	109462	0	0	8272	558146	0	0
2024-06-14 19:16:32			0	37859	0	0	0	25558	24190	135499	27020	1014822	42137	109455	0	0	8272	558265	0	0
2024-06-14 19:17:32			0	37865	0	0	0	25555	24170	135503	26991	1014849	42147	109454	0	0	8272	558091	0	0
2024-06-14 19:18:32			0	37857	0	0	0	25555	24170	135467	27144	1014823	42135	109454	0	0	8272	558406	0	0
2024-06-14 19:19:32			0	37861	0	0	0	25550	24170	135595	27050	1014796	42147	109452	0	0	8272	558249	0	0
2024-06-14 19:20:32			0	37841	0	0	0	25550	24170	135555	26998	1014849	42125	109452	0	0	8271	559037	0	0
2024-06-14 19:21:32			0	37837	0	0	0	25558	24170	135563	27157	1014867	42147	109455	0	0	8271	559195	0	0
2024-06-14 19:22:32			0	37835	0	0	0	25550	24170	135603	27286	1014814	42135	109452	0	0	8271	559274	0	0
2024-06-14 19:23:32			0	37809	0	0	0	25545	24170	135635	27086	1014769	42147	109450	0	0	8270	560300	0	0
2024-06-14 19:24:32			0	37831	0	0	0	25542	24170	135723	27027	1014734	42125	109449	0	0	8271	559431	0	0
2024-06-14 19:25:32			0	37816	0	0	0	25545	24160	135707	27060	1014725	42146	109450	0	0	8270	560055	0	0
2024-06-14 19:26:32			0	37799	0	0	0	25535	24160	135719	27286	1014743	42134	109446	0	0	8269	560726	0	0
2024-06-14 19:27:32			0	37799	0	0	0	25519	24140	135743	27372	1014691	42133	109440	0	0	8269	560790	0	0
2024-06-14 19:28:32			0	37818	0	0	0	25516	24160	135771	27284	1014690	42146	109439	0	0	8270	559976	0	0
2024-06-14 19:29:32			0	37796	0	0	0	25514	24150	135743	27138	1014700	42133	109438	0	0	8269	560876	0	0
2024-06-14 19:30:32			0	37780	0	0	0	25503	24140	135755	27222	1014602	42122	109434	0	0	8269	561541	0	0
2024-06-14 19:31:32			0	37770	0	0	0	25503	24130	135743	27183	1014674	42132	109434	0	0	8268	561968	0	0
2024-06-14 19:32:32			0	37782	0	0	0	25501	24130	135807	27007	1014620	42143	109433	0	0	8269	561493	0	0
2024-06-14 19:33:32			0	37778	0	0	0	25511	24120	135747	26991	1014630	42131	109437	0	0	8268	561683	0	0
2024-06-14 19:34:32			0	37779	0	0	0	25514	24140	135883	27300	1014691	42155	109438	0	0	8268	561580	0	0
2024-06-14 19:35:32			0	37764	0	0	0	25509	24140	135899	27223	1014709	42144	109436	0	0	8268	562173	0	0
2024-06-14 19:36:32			0	37760	0	0	0	25529	24150	135915	27176	1014833	42145	109444	0	0	8267	562300	0	0
2024-06-14 19:37:32			0	37727	0	0	0	25553	24160	135907	27248	1014931	42146	109453	0	0	8265	563575	0	0
2024-06-14 19:38:32			0	37748	0	0	0	25571	24170	135835	27078	1015028	42147	109460	0	0	8266	562711	0	0
2024-06-14 19:39:32			0	37719	0	0	0	25581	24190	135891	27296	1015036	42160	109464	0	0	8264	563797	0	0
2024-06-14 19:40:32			0	37716	0	0	0	25592	24190	135939	27301	1015098	42160	109468	0	0	8264	563916	0	0
2024-06-14 19:41:32			0	37736	0	0	0	25612	24210	135847	27121	1015257	42162	109476	0	0	8265	563059	0	0
2024-06-14 19:42:32			0	37720	0	0	0	25607	24210	135923	27239	1015150	42128	109474	0	0	8264	563693	0	0
2024-06-14 19:43:32			0	37709	0	0	0	25610	24220	135939	26944	1015141	42140	109475	0	0	8263	564098	0	0
2024-06-14 19:44:32			0	37697	0	0	0	25599	24220	135939	27180	1015087	42140	109471	0	0	8263	564574	0	0
2024-06-14 19:45:32			0	37703	0	0	0	25592	24220	135967	26949	1015087	42151	109468	0	0	8263	564336	0	0
2024-06-14 19:46:32			0	37706	0	0	0	25599	24220	135927	26902	1015149	42152	109471	0	0	8263	564217	0	0
2024-06-14 19:47:32			0	37685	0	0	0	25602	24220	135955	27279	1015114	42151	109472	0	0	8262	565050	0	0
2024-06-14 19:48:32			0	37705	0	0	0	25599	24230	136087	27161	1015140	42153	109471	0	0	8263	564224	0	0
2024-06-14 19:49:32			0	37674	0	0	0	25610	24240	136063	27164	1015157	42143	109475	0	0	8262	565423	0	0
2024-06-14 19:50:32			0	37682	0	0	0	25610	24230	136059	27095	1015193	42142	109475	0	0	8262	565137	0	0
2024-06-14 19:51:32			0	37682	0	0	0	25599	24240	136079	26956	1015103	42154	109471	0	0	8262	565105	0	0
2024-06-14 19:52:32			0	37674	0	0	0	25610	24240	136079	27156	1015157	42131	109475	0	0	8262	565423	0	0
2024-06-14 19:53:32			0	37700	0	0	0	25594	24230	136123	26842	1015113	42142	109469	0	0	8263	564423	0	0
2024-06-14 19:54:32			0	37674	0	0	0	25602	24230	135995	27118	1015059	42142	109472	0	0	8262	565455	0	0
2024-06-14 19:55:32			0	37674	0	0	0	25592	24240	136151	27258	1015121	42142	109468	0	0	8262	565423	0	0
2024-06-14 19:56:32			0	37662	0	0	0	25592	24220	136091	27218	1015069	42130	109468	0	0	8261	565963	0	0
2024-06-14 19:57:32			0	37669	0	0	0	25573	24230	136123	27159	1014997	42141	109461	0	0	8262	565653	0	0
2024-06-14 19:58:32			0	37647	0	0	0	25558	24210	136127	27027	1014910	42128	109455	0	0	8261	566592	0	0
2024-06-14 19:59:32			0	37642	0	0	0	25548	24200	136203	27095	1014866	42138	109451	0	0	8261	566822	0	0
2024-06-14 20:00:32			0	37640	0	0	0	25540	24190	136175	27055	1014857	42137	109448	0	0	8261	566934	0	0
2024-06-14 20:01:32			0	37633	0	0	0	25540	24190	136127	27294	1014857	42137	109448	0	0	8261	567212	0	0
2024-06-14 20:02:32			0	37620	0	0	0	25522	24190	136231	27222	1014822	42137	109441	0	0	8260	567730	0	0
2024-06-14 20:03:32			0	37635	0	0	0	25519	24180	136379	27197	1014733	42126	109440	0	0	8261	567165	0	0
2024-06-14 20:04:32			0	37620	0	0	0	25522	24180	136351	27183	1014840	42137	109441	0	0	8260	567762	0	0
2024-06-14 20:05:32			0	37600	0	0	0	25511	24170	136299	27177	1014761	42135	109437	0	0	8259	568591	0	0
2024-06-14 20:06:32			0	37622	0	0	0	25516	24160	136431	27000	1014645	42134	109439	0	0	8260	567746	0	0
2024-06-14 20:07:32			0	37612	0	0	0	25506	24160	136271	27294	1014663	42124	109435	0	0	8260	568145	0	0
2024-06-14 20:08:32			0	37597	0	0	0	25496	24150	136267	27166	1014673	42133	109431	0	0	8259	568774	0	0
2024-06-14 20:09:32			0	37612	0	0	0	25485	24140	136415	27005	1014584	42122	109427	0	0	8260	568209	0	0
2024-06-14 20:10:32			0	37596	0	0	0	25472	24130	136395	27211	1014594	42121	109422	0	0	8260	568879	0	0
2024-06-14 20:11:32			0	37597	0	0	0	25477	24110	136343	26871	1014506	42120	109424	0	0	8259	568903	0	0
2024-06-14 20:12:32			0	37591	0	0	0	25462	24110	136303	27088	1014471	42129	109418	0	0	8259	569142	0	0
2024-06-14 20:13:32			0	37580	0	0	0	25454	24100	136411	27086	1014409	42129	109415	0	0	8259	569613	0	0
2024-06-14 20:14:32			0	37581	0	0	0	25457	24100	136571	26946	1014427	42118	109416	0	0	8259	569573	0	0
2024-06-14 20:15:32			0	37571	0	0	0	25438	24090	136567	27031	1014436	42117	109409	0	0	8259	570005	0	0
2024-06-14 20:16:32			0	37560	0	0	0	25436	24080	136547	26935	1014321	42117	109408	0	0	8258	570476	0	0
2024-06-14 20:17:32			0	37559	0	0	0	25425	24070	136555	27005	1014268	42137	109404	0	0	8258	570548	0	0
2024-06-14 20:18:32			0	37580	0	0	0	25433	24060	136555	27462	1014313	42137	109407	0	0	8259	569742	0	0
2024-06-14 20:19:32			0	37581	0	0	0	25444	24070	136511	27053	1014277	42126	109411	0	0	8259	569670	0	0
2024-06-14 20:20:32			0	37567	0	0	0	25444	24070	136619	27144	1014322	42137	109411	0	0	8258	570229	0	0
2024-06-14 20:21:32			0	37553	0	0	0	25449	24070	136623	27293	1014402	42125	109413	0	0	8257	570788	0	0
2024-06-14 20:22:32			0	37548	0	0	0	25459	24080	136591	27015	1014419	42138	109417	0	0	8257	570956	0	0
2024-06-14 20:23:32			0	37559	0	0	0	25459	24070	136631	26967	1014429	42125	109417	0	0	8258	570548	0	0
2024-06-14 20:24:32			0	37551	0	0	0	25457	24070	136627	27163	1014357	42149	109416	0	0	8257	570868	0	0
2024-06-14 20:25:32			0	37531	0	0	0	25459	24070	136611	27071	1014429	42104	109417	0	0	8256	571668	0	0
2024-06-14 20:26:32			0	37508	0	0	0	25462	24060	136655	26986	1014420	42137	109418	0	0	8255	572621	0	0
2024-06-14 20:27:32			0	37528	0	0	0	25467	24070	136623	26937	1014375	42115	109420	0	0	8256	571788	0	0
2024-06-14 20:28:32			0	37505	0	0	0	25457	24070	136695	27360	1014437	42138	109416	0	0	8255	572708	0	0
2024-06-14 20:29:32			0	37517	0	0	0	25464	24070	136639	27469	1014464	42149	109419	0	0	8255	572228	0	0
2024-06-14 20:30:32			0	37527	0	0	0	25472	24080	136819	27118	1014553	42149	109422	0	0	8256	571796	0	0
2024-06-14 20:31:32			0	37498	0	0	0	25498	24080	136739	27152	1014553	42138	109432	0	0	8254	572957	0	0
2024-06-14 20:32:32			0	37500	0	0	0	25503	24100	136775	27045	1014587	42162	109434	0	0	8254	572812	0	0
2024-06-14 20:33:32			0	37511	0	0	0	25522	24100	136807	27192	1014622	42152	109441	0	0	8254	572371	0	0
2024-06-14 20:34:32			0	37509	0	0	0	25522	24100	136783	27433	1014649	42129	109441	0	0	8254	572452	0	0
2024-06-14 20:35:32			0	37491	0	0	0	25532	24100	136791	27000	1014587	42139	109445	0	0	8253	573172	0	0
2024-06-14 20:36:32			0	37488	0	0	0	25519	24110	136775	27343	1014658	42129	109440	0	0	8253	573260	0	0
2024-06-14 20:37:32			0	37486	0	0	0	25522	24100	136867	27159	1014622	42140	109441	0	0	8253	573373	0	0
2024-06-14 20:38:32			0	37491	0	0	0	25522	24120	136847	27183	1014568	42153	109441	0	0	8253	573108	0	0
2024-06-14 20:39:32			0	37475	0	0	0	25516	24110	136799	26823	1014658	42152	109439	0	0	8252	573781	0	0
2024-06-14 20:40:32			0	37501	0	0	0	25532	24120	136883	27194	1014782	42142	109445	0	0	8254	572707	0	0
2024-06-14 20:41:32			0	37484	0	0	0	25548	24120	136887	27199	1014737	42142	109451	0	0	8252	573388	0	0
2024-06-14 20:42:32			0	37478	0	0	0	25550	24130	136907	27407	1014781	42154	109452	0	0	8252	573596	0	0
2024-06-14 20:43:32			0	37479	0	0	0	25558	24140	136947	27441	1014789	42144	109455	0	0	8252	573524	0	0
2024-06-14 20:44:32			0	37478	0	0	0	25550	24140	136883	27291	1014825	42155	109452	0	0	8252	573564	0	0
2024-06-14 20:45:32			0	37475	0	0	0	25566	24150	136915	27211	1014806	42145	109458	0	0	8252	573652	0	0
2024-06-14 20:46:32			0	37469	0	0	0	25561	24150	136879	27338	1014868	42145	109456	0	0	8252	573893	0	0
2024-06-14 20:47:32			0	37480	0	0	0	25561	24150	136899	27180	1014753	42145	109456	0	0	8252	573452	0	0
2024-06-14 20:48:32			0	37445	0	0	0	25553	24160	136867	27131	1014770	42146	109453	0	0	8250	574823	0	0
2024-06-14 20:49:32			0	37475	0	0	0	25555	24150	136983	27069	1014887	42145	109454	0	0	8252	573652	0	0
2024-06-14 20:50:32			0	37475	0	0	0	25573	24160	136991	27159	1014877	42146	109461	0	0	8252	573620	0	0
2024-06-14 20:51:32			0	37460	0	0	0	25573	24160	136875	26786	1014886	42157	109461	0	0	8251	574221	0	0
2024-06-14 20:52:32			0	37458	0	0	0	25566	24160	136931	26882	1014966	42146	109458	0	0	8251	574301	0	0
2024-06-14 20:53:32			0	37462	0	0	0	25568	24170	136955	27003	1014894	42147	109459	0	0	8251	574108	0	0
2024-06-14 20:54:32			0	37448	0	0	0	25561	24160	136999	26875	1014886	42157	109456	0	0	8250	574703	0	0
2024-06-14 20:55:32			0	37464	0	0	0	25550	24150	136931	27331	1014788	42145	109452	0	0	8251	574093	0	0
2024-06-14 20:56:32			0	37467	0	0	0	25532	24150	136943	27059	1014601	42133	109445	0	0	8252	573973	0	0
2024-06-14 20:57:32			0	37457	0	0	0	25503	24130	136835	27088	1014532	42131	109434	0	0	8252	574439	0	0
2024-06-14 20:58:32			0	37474	0	0	0	25475	24100	136975	27246	1014435	42129	109423	0	0	8253	573854	0	0
2024-06-14 20:59:32			0	37456	0	0	0	25472	24100	136939	26875	1014480	42139	109422	0	0	8252	574576	0	0
2024-06-14 21:00:32			0	37461	0	0	0	25470	24100	136871	26844	1014409	42129	109421	0	0	8252	574375	0	0
2024-06-14 21:01:32			0	37467	0	0	0	25467	24080	136911	26764	1014428	42150	109420	0	0	8253	574199	0	0
2024-06-14 21:02:32			0	37480	0	0	0	25483	24090	136935	27345	1014436	42138	109426	0	0	8253	573646	0	0
2024-06-14 21:03:32			0	37481	0	0	0	25470	24080	136927	27013	1014455	42127	109421	0	0	8253	573638	0	0
2024-06-14 21:04:32			0	37451	0	0	0	25464	24090	136939	27289	1014445	42151	109419	0	0	8252	574809	0	0
2024-06-14 21:05:32			0	37451	0	0	0	25459	24090	136923	27274	1014410	42138	109417	0	0	8252	574809	0	0
2024-06-14 21:06:32			0	37480	0	0	0	25462	24080	136947	27274	1014392	42138	109418	0	0	8253	573678	0	0
2024-06-14 21:07:32			0	37471	0	0	0	25464	24080	136943	27274	1014366	42138	109419	0	0	8253	574039	0	0
2024-06-14 21:08:32			0	37493	0	0	0	25467	24070	136963	27060	1014384	42138	109420	0	0	8254	573189	0	0
2024-06-14 21:09:32			0	37469	0	0	0	25457	24070	136943	27209	1014349	42137	109416	0	0	8253	574152	0	0
2024-06-14 21:10:32			0	37477	0	0	0	25449	24060	137015	27166	1014287	42137	109413	0	0	8253	573863	0	0
2024-06-14 21:11:32			0	37464	0	0	0	25451	24060	136951	27301	1014304	42147	109414	0	0	8253	574385	0	0
2024-06-14 21:12:32			0	37475	0	0	0	25441	24050	136903	27254	1014261	42146	109410	0	0	8253	573976	0	0
2024-06-14 21:13:32			0	37471	0	0	0	25441	24050	136939	27043	1014287	42124	109410	0	0	8253	574136	0	0
2024-06-14 21:14:32			0	37467	0	0	0	25433	24050	136935	27386	1014287	42146	109407	0	0	8253	574297	0	0
2024-06-14 21:15:32			0	37470	0	0	0	25425	24050	136979	27345	1014287	42135	109404	0	0	8253	574176	0	0
2024-06-14 21:16:32			0	37460	0	0	0	25433	24050	136959	27248	1014296	42124	109407	0	0	8253	574578	0	0
2024-06-14 21:17:32			0	37486	0	0	0	25433	24040	137063	26823	1014252	42124	109407	0	0	8254	573567	0	0
2024-06-14 21:18:32			0	37466	0	0	0	25431	24030	136987	27355	1014270	42134	109406	0	0	8253	574402	0	0
2024-06-14 21:19:32			0	37471	0	0	0	25436	24030	137083	27255	1014262	42123	109408	0	0	8253	574201	0	0
2024-06-14 21:20:32			0	37467	0	0	0	25433	24040	137115	27140	1014252	42135	109407	0	0	8253	574329	0	0
2024-06-14 21:21:32			0	37471	0	0	0	25431	24040	137051	27031	1014252	42135	109406	0	0	8253	574169	0	0
2024-06-14 21:22:32			0	37467	0	0	0	25428	24030	136999	27220	1014181	42156	109405	0	0	8253	574361	0	0
2024-06-14 21:23:32			0	37457	0	0	0	25436	24030	137091	27142	1014235	42156	109408	0	0	8253	574763	0	0
2024-06-14 21:24:32			0	37463	0	0	0	25428	24030	136947	27202	1014235	42123	109405	0	0	8253	574522	0	0
2024-06-14 21:25:32			0	37480	0	0	0	25431	24030	137075	27097	1014235	42144	109406	0	0	8254	573840	0	0
2024-06-14 21:26:32			0	37468	0	0	0	25428	24030	137043	27168	1014217	42134	109405	0	0	8253	574321	0	0
2024-06-14 21:27:32			0	37484	0	0	0	25418	24010	137015	27242	1014129	42122	109401	0	0	8254	573744	0	0
2024-06-14 21:28:32			0	37466	0	0	0	25405	24020	137035	27088	1014138	42132	109396	0	0	8253	574434	0	0
2024-06-14 21:29:32			0	37464	0	0	0	25405	24000	137063	27203	1014085	42121	109396	0	0	8253	574579	0	0
2024-06-14 21:30:32			0	37483	0	0	0	25402	24000	137031	27173	1014112	42131	109395	0	0	8254	573817	0	0
2024-06-14 21:31:32			0	37474	0	0	0	25405	24010	137023	27182	1014094	42131	109396	0	0	8254	574145	0	0
2024-06-14 21:32:32			0	37478	0	0	0	25381	24000	137035	27331	1014032	42131	109387	0	0	8254	574017	0	0
2024-06-14 21:33:32			0	37488	0	0	0	25348	23990	137011	27242	1013899	42108	109374	0	0	8255	573648	0	0
2024-06-14 21:34:32			0	37490	0	0	0	25314	23970	136983	27365	1013766	42118	109361	0	0	8256	573633	0	0
2024-06-14 21:35:32			0	37489	0	0	0	25296	23950	136943	27130	1013679	42105	109354	0	0	8256	573738	0	0
2024-06-14 21:36:32			0	37501	0	0	0	25277	23950	136911	27241	1013617	42115	109347	0	0	8257	573257	0	0
2024-06-14 21:37:32			0	37494	0	0	0	25257	23940	136987	27069	1013600	42114	109339	0	0	8257	573569	0	0
2024-06-14 21:38:32			0	37496	0	0	0	25249	23930	136859	27389	1013582	42113	109336	0	0	8257	573522	0	0
2024-06-14 21:39:32			0	37498	0	0	0	25233	23910	136911	27074	1013521	42112	109330	0	0	8258	573506	0	0
2024-06-14 21:40:32			0	37514	0	0	0	25228	23910	136863	27154	1013476	42100	109328	0	0	8258	572865	0	0
2024-06-14 21:41:32			0	37518	0	0	0	25231	23900	136943	26812	1013558	42110	109329	0	0	8259	572737	0	0
2024-06-14 21:42:32			0	37508	0	0	0	25251	23910	136979	27046	1013601	42123	109337	0	0	8258	573105	0	0
2024-06-14 21:43:32			0	37528	0	0	0	25259	23900	136807	27140	1013558	42131	109340	0	0	8259	572336	0	0
2024-06-14 21:44:32			0	37503	0	0	0	25275	23910	136855	27107	1013663	42123	109346	0	0	8257	573306	0	0
2024-06-14 21:45:32			0	37500	0	0	0	25298	23920	136843	27173	1013832	42133	109355	0	0	8257	573393	0	0
2024-06-14 21:46:32			0	37506	0	0	0	25319	23930	136975	27066	1013858	42135	109363	0	0	8257	573121	0	0
2024-06-14 21:47:32			0	37504	0	0	0	25335	23930	136855	27237	1013885	42135	109369	0	0	8256	573201	0	0
2024-06-14 21:48:32			0	37511	0	0	0	25342	23940	136987	26942	1013982	42125	109372	0	0	8257	572888	0	0
2024-06-14 21:49:32			0	37493	0	0	0	25358	23940	136855	27019	1013956	42125	109378	0	0	8255	573610	0	0
2024-06-14 21:50:32			0	37498	0	0	0	25363	23970	137027	26935	1014025	42139	109380	0	0	8256	573312	0	0
2024-06-14 21:51:32			0	37503	0	0	0	25366	23960	136891	27060	1014043	42116	109381	0	0	8256	573144	0	0
2024-06-14 21:52:32			0	37491	0	0	0	25381	23970	136891	27154	1014052	42139	109387	0	0	8255	573593	0	0
2024-06-14 21:53:32			0	37482	0	0	0	25386	23980	136999	27230	1014042	42128	109389	0	0	8254	573921	0	0
2024-06-14 21:54:32			0	37490	0	0	0	25384	23980	137011	27031	1014042	42128	109388	0	0	8255	573600	0	0
2024-06-14 21:55:32			0	37482	0	0	0	25392	23980	137047	27102	1014042	42128	109391	0	0	8254	573921	0	0
2024-06-14 21:56:32			0	37482	0	0	0	25381	23970	136967	27242	1014034	42128	109387	0	0	8254	573954	0	0
2024-06-14 21:57:32			0	37490	0	0	0	25376	23980	137023	26974	1013997	42128	109385	0	0	8255	573600	0	0
2024-06-14 21:58:32			0	37477	0	0	0	25384	23980	136979	26970	1013997	42128	109388	0	0	8254	574122	0	0
2024-06-14 21:59:32			0	37485	0	0	0	25376	23980	136963	27215	1014051	42118	109385	0	0	8255	573801	0	0
2024-06-14 22:00:32			0	37481	0	0	0	25381	23980	137103	27111	1014024	42118	109387	0	0	8254	573962	0	0
2024-06-14 22:01:32			0	37476	0	0	0	25384	23990	137031	27336	1014059	42129	109388	0	0	8254	574130	0	0
2024-06-14 22:02:32			0	37496	0	0	0	25392	23980	137067	27263	1014131	42118	109391	0	0	8255	573360	0	0
2024-06-14 22:03:32			0	37500	0	0	0	25389	23990	136983	27145	1014059	42141	109390	0	0	8255	573167	0	0
2024-06-14 22:04:32			0	37476	0	0	0	25397	23990	137039	26934	1014095	42130	109393	0	0	8254	574130	0	0
2024-06-14 22:05:32			0	37479	0	0	0	25407	23990	137015	27097	1014140	42129	109397	0	0	8254	574009	0	0
2024-06-14 22:06:32			0	37481	0	0	0	25402	23990	136967	27055	1014086	42129	109395	0	0	8254	573929	0	0
2024-06-14 22:07:32			0	37486	0	0	0	25405	23990	136991	26998	1014175	42120	109396	0	0	8254	573729	0	0
2024-06-14 22:08:32			0	37470	0	0	0	25405	24000	137031	27092	1014103	42141	109396	0	0	8254	574338	0	0
2024-06-14 22:09:32			0	37473	0	0	0	25418	24000	137039	27038	1014157	42153	109401	0	0	8254	574218	0	0
2024-06-14 22:10:32			0	37466	0	0	0	25410	24000	137087	27157	1014112	42142	109398	0	0	8253	574499	0	0
2024-06-14 22:11:32			0	37503	0	0	0	25423	24000	137167	27235	1014112	42142	109403	0	0	8255	573015	0	0
2024-06-14 22:12:32			0	37460	0	0	0	25418	24000	137031	27190	1014139	42165	109401	0	0	8253	574740	0	0
2024-06-14 22:13:32			0	37479	0	0	0	25420	24010	137023	26989	1014147	42154	109402	0	0	8254	573945	0	0
2024-06-14 22:14:32			0	37476	0	0	0	25425	24000	137019	26998	1014183	42130	109404	0	0	8254	574097	0	0
2024-06-14 22:15:32			0	37476	0	0	0	25423	24000	137079	27112	1014245	42142	109403	0	0	8254	574097	0	0
2024-06-14 22:16:32			0	37472	0	0	0	25431	24010	137043	26955	1014254	42142	109406	0	0	8253	574226	0	0
2024-06-14 22:17:32			0	37495	0	0	0	25425	24010	137099	26911	1014236	42143	109404	0	0	8255	573303	0	0
2024-06-14 22:18:32			0	37467	0	0	0	25433	24020	137075	27275	1014271	42155	109407	0	0	8253	574394	0	0
2024-06-14 22:19:32			0	37482	0	0	0	25436	24020	137091	27294	1014173	42133	109408	0	0	8254	573792	0	0
2024-06-14 22:20:32			0	37465	0	0	0	25441	24020	137151	26942	1014244	42143	109410	0	0	8253	574474	0	0
2024-06-14 22:21:32			0	37467	0	0	0	25438	24010	137147	27150	1014236	42143	109409	0	0	8253	574426	0	0
2024-06-14 22:22:32			0	37468	0	0	0	25444	24020	137175	26774	1014244	42143	109411	0	0	8253	574354	0	0
2024-06-14 22:23:32			0	37448	0	0	0	25441	24020	137083	27019	1014218	42132	109410	0	0	8252	575157	0	0
2024-06-14 22:24:32			0	37467	0	0	0	25444	24020	137071	26892	1014253	42133	109411	0	0	8253	574394	0	0
2024-06-14 22:25:32			0	37456	0	0	0	25444	24020	137051	27088	1014244	42143	109411	0	0	8252	574835	0	0
2024-06-14 22:26:32			0	37456	0	0	0	25444	24020	137123	27237	1014244	42155	109411	0	0	8252	574835	0	0
2024-06-14 22:27:32			0	37468	0	0	0	25438	24030	137139	27140	1014235	42156	109409	0	0	8253	574321	0	0
2024-06-14 22:28:32			0	37432	0	0	0	25441	24020	137003	27315	1014218	42132	109410	0	0	8251	575800	0	0
2024-06-14 22:29:32			0	37450	0	0	0	25446	24020	137011	27034	1014226	42156	109412	0	0	8252	575076	0	0
2024-06-14 22:30:32			0	37454	0	0	0	25438	24020	137035	27069	1014200	42156	109409	0	0	8252	574916	0	0
2024-06-14 22:31:32			0	37450	0	0	0	25431	24030	137047	26824	1014217	42134	109406	0	0	8252	575044	0	0
2024-06-14 22:32:32			0	37471	0	0	0	25428	24020	137079	27145	1014253	42133	109405	0	0	8253	574233	0	0
2024-06-14 22:33:32			0	37445	0	0	0	25415	24020	137135	27218	1014173	42144	109400	0	0	8252	575277	0	0
2024-06-14 22:34:32			0	37445	0	0	0	25423	24020	137091	27142	1014271	42143	109403	0	0	8252	575277	0	0
2024-06-14 22:35:32			0	37460	0	0	0	25425	24030	137035	27107	1014208	42133	109404	0	0	8253	574642	0	0
2024-06-14 22:36:32			0	37444	0	0	0	25418	24020	137115	27064	1014226	42144	109401	0	0	8252	575317	0	0
2024-06-14 22:37:32			0	37461	0	0	0	25415	24010	137159	27211	1014182	42143	109400	0	0	8253	574667	0	0
2024-06-14 22:38:32			0	37446	0	0	0	25412	24020	137091	27152	1014164	42132	109399	0	0	8252	575237	0	0
2024-06-14 22:39:32			0	37455	0	0	0	25405	24020	137067	27180	1014218	42122	109396	0	0	8253	574875	0	0
2024-06-14 22:40:32			0	37458	0	0	0	25402	24010	137043	27192	1014182	42143	109395	0	0	8253	574787	0	0
2024-06-14 22:41:32			0	37468	0	0	0	25405	24010	137139	27097	1014182	42132	109396	0	0	8254	574386	0	0
2024-06-14 22:42:32			0	37462	0	0	0	25410	24000	137079	26798	1014157	42130	109398	0	0	8253	574659	0	0
2024-06-14 22:43:32			0	37457	0	0	0	25407	24010	137095	26951	1014182	42143	109397	0	0	8253	574828	0	0
2024-06-14 22:44:32			0	37440	0	0	0	25415	24010	136987	26812	1014174	42142	109400	0	0	8252	575511	0	0
2024-06-14 22:45:32			0	37438	0	0	0	25402	24020	137043	27258	1014218	42132	109395	0	0	8252	575559	0	0
2024-06-14 22:46:32			0	37466	0	0	0	25392	24010	137075	26953	1014129	42132	109391	0	0	8254	574466	0	0
2024-06-14 22:47:32			0	37456	0	0	0	25386	24010	137071	27083	1014182	42132	109389	0	0	8253	574868	0	0
2024-06-14 22:48:32			0	37469	0	0	0	25379	24010	137087	27268	1014174	42142	109386	0	0	8254	574346	0	0
2024-06-14 22:49:32			0	37459	0	0	0	25394	24000	137079	27339	1014139	42142	109392	0	0	8253	574780	0	0
2024-06-14 22:50:32			0	37462	0	0	0	25392	24010	137075	27105	1014174	42142	109391	0	0	8253	574627	0	0
2024-06-14 22:51:32			0	37474	0	0	0	25394	24010	137183	27202	1014094	42142	109392	0	0	8254	574145	0	0
2024-06-14 22:52:32			0	37474	0	0	0	25405	24010	137043	26913	1014129	42122	109396	0	0	8254	574145	0	0
2024-06-14 22:53:32			0	37466	0	0	0	25405	24000	136999	27296	1014139	42121	109396	0	0	8253	574499	0	0
2024-06-14 22:54:32			0	37473	0	0	0	25392	24000	137071	27185	1014139	42142	109391	0	0	8254	574218	0	0
2024-06-14 22:55:32			0	37459	0	0	0	25399	24000	137047	27320	1014050	42130	109394	0	0	8253	574780	0	0
2024-06-14 22:56:32			0	37461	0	0	0	25397	24000	136959	27128	1014103	42120	109393	0	0	8253	574699	0	0
2024-06-14 22:57:32			0	37463	0	0	0	25394	23990	137147	27156	1014095	42153	109392	0	0	8253	574652	0	0
2024-06-14 22:58:32			0	37467	0	0	0	25397	23990	137139	27085	1014068	42120	109393	0	0	8254	574491	0	0
2024-06-14 22:59:32			0	37468	0	0	0	25384	24000	137087	27086	1014103	42141	109388	0	0	8254	574419	0	0
2024-06-14 23:00:32			0	37470	0	0	0	25394	24000	137023	26942	1014085	42131	109392	0	0	8254	574338	0	0
2024-06-14 23:01:32			0	37455	0	0	0	25394	23990	137063	27218	1014033	42141	109392	0	0	8253	574973	0	0
2024-06-14 23:02:32			0	37439	0	0	0	25392	23980	137063	27173	1014051	42128	109391	0	0	8252	575648	0	0
2024-06-14 23:03:32			0	37468	0	0	0	25399	23990	136991	27284	1014068	42141	109394	0	0	8254	574451	0	0
2024-06-14 23:04:32			0	37463	0	0	0	25386	23980	137055	27066	1014024	42140	109389	0	0	8253	574684	0	0
2024-06-14 23:05:32			0	37466	0	0	0	25389	23980	137019	26934	1013989	42128	109390	0	0	8254	574564	0	0
2024-06-14 23:06:32			0	37468	0	0	0	25374	23980	137107	27374	1013944	42128	109384	0	0	8254	574483	0	0
2024-06-14 23:07:32			0	37463	0	0	0	25363	23970	137203	27371	1013892	42127	109380	0	0	8254	574716	0	0
2024-06-14 23:08:32			0	37466	0	0	0	25361	23960	137107	27410	1013928	42138	109379	0	0	8254	574628	0	0
2024-06-14 23:09:32			0	37482	0	0	0	25358	23950	137039	27102	1013893	42138	109378	0	0	8255	574019	0	0
2024-06-14 23:10:32			0	37466	0	0	0	25368	23950	137103	27348	1013919	42149	109382	0	0	8254	574661	0	0
2024-06-14 23:11:32			0	37469	0	0	0	25355	23950	136999	27308	1013937	42137	109377	0	0	8254	574540	0	0
2024-06-14 23:12:32			0	37457	0	0	0	25366	23960	137067	27400	1013955	42127	109381	0	0	8253	574990	0	0
2024-06-14 23:13:32			0	37472	0	0	0	25366	23960	137035	27159	1013955	42138	109381	0	0	8254	574387	0	0
2024-06-14 23:14:32			0	37465	0	0	0	25371	23960	137035	27289	1013928	42138	109383	0	0	8254	574668	0	0
2024-06-14 23:15:32			0	37480	0	0	0	25374	23960	137091	27253	1013955	42127	109384	0	0	8254	574066	0	0
2024-06-14 23:16:32			0	37478	0	0	0	25376	23970	136835	27348	1013980	42128	109385	0	0	8254	574114	0	0
2024-06-14 23:17:32			0	37467	0	0	0	25379	23960	137043	27332	1013928	42138	109386	0	0	8254	574588	0	0
2024-06-14 23:18:32			0	37498	0	0	0	25371	23970	137003	27241	1014079	42139	109383	0	0	8255	573312	0	0
2024-06-14 23:19:32			0	37486	0	0	0	25379	23960	137015	27163	1013981	42160	109386	0	0	8255	573826	0	0
2024-06-14 23:20:32			0	37479	0	0	0	25384	23970	136947	26948	1014025	42150	109388	0	0	8254	574074	0	0
2024-06-14 23:21:32			0	37488	0	0	0	25394	23970	137003	27229	1014007	42140	109392	0	0	8255	573713	0	0
2024-06-14 23:22:32			0	37489	0	0	0	25389	23970	137047	27031	1014060	42151	109390	0	0	8255	573673	0	0
2024-06-14 23:23:32			0	37480	0	0	0	25389	23970	136903	27112	1014087	42128	109390	0	0	8254	574034	0	0
2024-06-14 23:24:32			0	37483	0	0	0	25392	23970	136987	27163	1014034	42140	109391	0	0	8254	573914	0	0
2024-06-14 23:25:32			0	37482	0	0	0	25394	23970	136919	27286	1014060	42128	109392	0	0	8254	573954	0	0
2024-06-14 23:26:32			0	37478	0	0	0	25386	23980	136895	27183	1014051	42140	109389	0	0	8254	574082	0	0
2024-06-14 23:27:32			0	37474	0	0	0	25386	23980	136943	27298	1014024	42140	109389	0	0	8254	574242	0	0
2024-06-14 23:28:32			0	37480	0	0	0	25384	23980	136987	27190	1014069	42140	109388	0	0	8254	574002	0	0
2024-06-14 23:29:32			0	37483	0	0	0	25384	23970	136927	27156	1013954	42140	109388	0	0	8254	573914	0	0
2024-06-14 23:30:32			0	37495	0	0	0	25371	23970	136979	27265	1013945	42127	109383	0	0	8255	573432	0	0
2024-06-14 23:31:32			0	37500	0	0	0	25368	23960	136899	27334	1013910	42138	109382	0	0	8256	573264	0	0
2024-06-14 23:32:32			0	37498	0	0	0	25355	23940	136967	27209	1013929	42136	109377	0	0	8256	573409	0	0
2024-06-14 23:33:32			0	37508	0	0	0	25348	23950	136979	27286	1013839	42138	109374	0	0	8256	572976	0	0
2024-06-14 23:34:32			0	37505	0	0	0	25342	23950	136927	27192	1013804	42126	109372	0	0	8256	573096	0	0
2024-06-14 23:35:32			0	37505	0	0	0	25335	23940	136935	27024	1013787	42125	109369	0	0	8256	573128	0	0
2024-06-14 23:36:32			0	37511	0	0	0	25327	23930	136939	27107	1013724	42125	109366	0	0	8257	572920	0	0
2024-06-14 23:37:32			0	37521	0	0	0	25314	23930	136939	27020	1013698	42125	109361	0	0	8257	572520	0	0
2024-06-14 23:38:32			0	37527	0	0	0	25314	23930	136875	27173	1013689	42125	109361	0	0	8258	572279	0	0
2024-06-14 23:39:32			0	37516	0	0	0	25309	23920	136923	26760	1013699	42145	109359	0	0	8257	572752	0	0
2024-06-14 23:40:32			0	37522	0	0	0	25290	23910	136931	27180	1013610	42123	109352	0	0	8258	572544	0	0
2024-06-14 23:41:32			0	37526	0	0	0	25288	23890	136887	27130	1013567	42121	109351	0	0	8258	572448	0	0
2024-06-14 23:42:32			0	37544	0	0	0	25275	23900	136835	26889	1013531	42121	109346	0	0	8259	571696	0	0
2024-06-14 23:43:32			0	37550	0	0	0	25270	23890	136819	27412	1013496	42131	109344	0	0	8260	571488	0	0
2024-06-14 23:44:32			0	37556	0	0	0	25264	23890	136783	27254	1013487	42121	109342	0	0	8260	571248	0	0
2024-06-14 23:45:32			0	37546	0	0	0	25259	23880	136763	27374	1013478	42120	109340	0	0	8259	571680	0	0
2024-06-14 23:46:32			0	37565	0	0	0	25246	23880	136779	27031	1013452	42131	109335	0	0	8261	570920	0	0
2024-06-14 23:47:32			0	37570	0	0	0	25241	23870	136747	27041	1013408	42130	109333	0	0	8261	570752	0	0
2024-06-14 23:48:32			0	37591	0	0	0	25246	23860	136727	27163	1013417	42129	109335	0	0	8262	569945	0	0
2024-06-14 23:49:32			0	37559	0	0	0	25228	23860	136735	27190	1013391	42118	109328	0	0	8261	571224	0	0
2024-06-14 23:50:32			0	37597	0	0	0	25238	23850	136667	27192	1013374	42127	109332	0	0	8262	569737	0	0
2024-06-14 23:51:32			0	37585	0	0	0	25220	23850	136755	27345	1013312	42117	109325	0	0	8262	570217	0	0
2024-06-14 23:52:32			0	37603	0	0	0	25215	23840	136647	27119	1013357	42117	109323	0	0	8263	569530	0	0
2024-06-14 23:53:32			0	37620	0	0	0	25225	23850	136611	27159	1013312	42138	109327	0	0	8264	568819	0	0
2024-06-14 23:54:32			0	37623	0	0	0	25212	23840	136535	27300	1013330	42149	109322	0	0	8264	568732	0	0
2024-06-14 23:55:32			0	37644	0	0	0	25207	23830	136547	27222	1013313	42125	109320	0	0	8265	567926	0	0
2024-06-14 23:56:32			0	37653	0	0	0	25207	23830	136503	27095	1013251	42115	109320	0	0	8266	567568	0	0
2024-06-14 23:57:32			0	37647	0	0	0	25194	23820	136491	27334	1013135	42125	109315	0	0	8266	567839	0	0
2024-06-14 23:58:32			0	37673	0	0	0	25207	23830	136451	26896	1013197	42115	109320	0	0	8267	566771	0	0
2024-06-14 23:59:32			0	37684	0	0	0	25192	23810	136467	27383	1013198	42102	109314	0	0	8267	566398	0	0
2024-06-15 00:00:32			0	37709	0	0	0	25202	23810	136355	27071	1013171	42124	109318	0	0	8269	565403	0	0
2024-06-15 00:01:32			0	37716	0	0	0	25194	23800	136279	27315	1013154	42113	109315	0	0	8269	565157	0	0
2024-06-15 00:02:32			0	37755	0	0	0	25192	23810	136199	27469	1013198	42134	109314	0	0	8271	563577	0	0
2024-06-15 00:03:32			0	37743	0	0	0	25186	23810	136159	27388	1013163	42113	109312	0	0	8271	564053	0	0
2024-06-15 00:04:32			0	37782	0	0	0	25189	23800	135999	26958	1013127	42124	109313	0	0	8273	562538	0	0
2024-06-15 00:05:32			0	37805	0	0	0	25179	23800	136063	27268	1013119	42112	109309	0	0	8274	561628	0	0
2024-06-15 00:06:32			0	37805	0	0	0	25181	23790	135987	27260	1013048	42099	109310	0	0	8274	561659	0	0
2024-06-15 00:07:32			0	37838	0	0	0	25179	23790	135843	27237	1013084	42111	109309	0	0	8276	560354	0	0
2024-06-15 00:08:32			0	37872	0	0	0	25181	23780	135787	27393	1013093	42121	109310	0	0	8277	559043	0	0
2024-06-15 00:09:32			0	37893	0	0	0	25171	23800	135687	27157	1013119	42123	109306	0	0	8279	558152	0	0
2024-06-15 00:10:32			0	37923	0	0	0	25168	23780	135547	27364	1013040	42121	109305	0	0	8280	557033	0	0
2024-06-15 00:11:32			0	37949	0	0	0	25163	23780	135499	27201	1013040	42121	109303	0	0	8282	556010	0	0
2024-06-15 00:12:32			0	37966	0	0	0	25161	23780	135547	27150	1013040	42132	109302	0	0	8283	555342	0	0
2024-06-15 00:13:32			0	37998	0	0	0	25158	23780	135439	27255	1013058	42099	109301	0	0	8284	554085	0	0
2024-06-15 00:14:32			0	38019	0	0	0	25163	23780	135431	27033	1013040	42110	109303	0	0	8285	553262	0	0
2024-06-15 00:15:32			0	38024	0	0	0	25158	23760	135207	27287	1012970	42120	109301	0	0	8285	553128	0	0
2024-06-15 00:16:32			0	38064	0	0	0	25155	23780	135180	27208	1012978	42099	109300	0	0	8288	551500	0	0
2024-06-15 00:17:32			0	38067	0	0	0	25155	23770	135108	27152	1012961	42120	109300	0	0	8288	551413	0	0
2024-06-15 00:18:32			0	38098	0	0	0	25148	23760	134984	27235	1012925	42120	109297	0	0	8289	550233	0	0
2024-06-15 00:19:32			0	38131	0	0	0	25140	23760	134944	27013	1012890	42108	109294	0	0	8291	548944	0	0
2024-06-15 00:20:32			0	38138	0	0	0	25135	23760	134864	27230	1012925	42120	109292	0	0	8292	548671	0	0
2024-06-15 00:21:32			0	38164	0	0	0	25129	23740	134844	27055	1012891	42118	109290	0	0	8293	547720	0	0
2024-06-15 00:22:32			0	38168	0	0	0	25122	23740	134700	27145	1012838	42107	109287	0	0	8293	547564	0	0
2024-06-15 00:23:32			0	38179	0	0	0	25119	23730	134724	27308	1012802	42107	109286	0	0	8294	547166	0	0
2024-06-15 00:24:32			0	38199	0	0	0	25119	23740	134704	27041	1012838	42118	109286	0	0	8295	546357	0	0
2024-06-15 00:25:32			0	38221	0	0	0	25119	23720	134564	27154	1012777	42115	109286	0	0	8296	545563	0	0
2024-06-15 00:26:32			0	38243	0	0	0	25106	23710	134600	26955	1012822	42115	109281	0	0	8297	544739	0	0
2024-06-15 00:27:32			0	38236	0	0	0	25111	23710	134564	27275	1012768	42104	109283	0	0	8297	545011	0	0
2024-06-15 00:28:32			0	38267	0	0	0	25101	23710	134576	27260	1012795	42104	109279	0	0	8299	543808	0	0
2024-06-15 00:29:32			0	38265	0	0	0	25101	23720	134512	27227	1012830	42104	109279	0	0	8299	543855	0	0
2024-06-15 00:30:32			0	38255	0	0	0	25096	23710	134548	27229	1012715	42125	109277	0	0	8298	544274	0	0
2024-06-15 00:31:32			0	38293	0	0	0	25111	23700	134440	27242	1012778	42114	109283	0	0	8300	542831	0	0
2024-06-15 00:32:32			0	38293	0	0	0	25103	23710	134412	27393	1012706	42115	109280	0	0	8300	542800	0	0
2024-06-15 00:33:32			0	38302	0	0	0	25106	23700	134508	27317	1012751	42125	109281	0	0	8300	542482	0	0
2024-06-15 00:34:32			0	38308	0	0	0	25111	23700	134400	27178	1012823	42113	109283	0	0	8301	542250	0	0
2024-06-15 00:35:32			0	38301	0	0	0	25111	23700	134380	27415	1012796	42102	109283	0	0	8300	542521	0	0
2024-06-15 00:36:32			0	38316	0	0	0	25106	23720	134328	27377	1012803	42104	109281	0	0	8301	541879	0	0
2024-06-15 00:37:32			0	38319	0	0	0	25119	23710	134360	27474	1012768	42115	109286	0	0	8301	541794	0	0
2024-06-15 00:38:32			0	38318	0	0	0	25114	23700	134308	27246	1012769	42113	109284	0	0	8301	541863	0	0
2024-06-15 00:39:32			0	38313	0	0	0	25114	23700	134324	27403	1012724	42114	109284	0	0	8301	542056	0	0
2024-06-15 00:40:32			0	38324	0	0	0	25109	23690	134308	27189	1012707	42113	109282	0	0	8302	541661	0	0
2024-06-15 00:41:32			0	38313	0	0	0	25101	23700	134276	27346	1012698	42092	109279	0	0	8301	542056	0	0
2024-06-15 00:42:32			0	38362	0	0	0	25096	23700	134220	27409	1012636	42113	109277	0	0	8304	540162	0	0
2024-06-15 00:43:32			0	38340	0	0	0	25093	23680	134320	27182	1012681	42100	109276	0	0	8303	541073	0	0
2024-06-15 00:44:32			0	38335	0	0	0	25083	23690	134196	27322	1012681	42102	109272	0	0	8303	541236	0	0
2024-06-15 00:45:32			0	38349	0	0	0	25075	23690	134252	27199	1012645	42125	109269	0	0	8303	540694	0	0
2024-06-15 00:46:32			0	38361	0	0	0	25080	23680	134156	27090	1012628	42100	109271	0	0	8304	540261	0	0
2024-06-15 00:47:32			0	38354	0	0	0	25075	23670	134180	27109	1012593	42100	109269	0	0	8304	540562	0	0
2024-06-15 00:48:32			0	38370	0	0	0	25064	23670	134200	27381	1012584	42089	109265	0	0	8305	539944	0	0
2024-06-15 00:49:32			0	38369	0	0	0	25070	23670	134292	27189	1012539	42100	109267	0	0	8304	539982	0	0
2024-06-15 00:50:32			0	38372	0	0	0	25064	23670	134200	26838	1012619	42100	109265	0	0	8305	539866	0	0
2024-06-15 00:51:32			0	38371	0	0	0	25057	23670	134196	27242	1012539	42100	109262	0	0	8305	539905	0	0
2024-06-15 00:52:32			0	38365	0	0	0	25054	23670	134172	27293	1012557	42100	109261	0	0	8305	540137	0	0
2024-06-15 00:53:32			0	38386	0	0	0	25051	23660	134256	27319	1012594	42098	109260	0	0	8306	539356	0	0
2024-06-15 00:54:32			0	38369	0	0	0	25057	23660	134252	27268	1012522	42110	109262	0	0	8305	540013	0	0
2024-06-15 00:55:32			0	38381	0	0	0	25051	23660	134208	27320	1012487	42098	109260	0	0	8305	539549	0	0
2024-06-15 00:56:32			0	38382	0	0	0	25054	23660	134192	26906	1012540	42110	109261	0	0	8305	539511	0	0
2024-06-15 00:57:32			0	38381	0	0	0	25051	23670	134228	27358	1012504	42100	109260	0	0	8305	539519	0	0
2024-06-15 00:58:32			0	38375	0	0	0	25051	23650	134220	27088	1012505	42098	109260	0	0	8305	539811	0	0
2024-06-15 00:59:32			0	38378	0	0	0	25046	23650	134180	26994	1012558	42121	109258	0	0	8305	539696	0	0
2024-06-15 01:00:32			0	38369	0	0	0	25051	23640	134184	27222	1012461	42097	109260	0	0	8305	540073	0	0
2024-06-15 01:01:32			0	38394	0	0	0	25046	23640	134172	27053	1012488	42097	109258	0	0	8306	539108	0	0
2024-06-15 01:02:32			0	38389	0	0	0	25041	23640	134184	27043	1012461	42097	109256	0	0	8306	539301	0	0
2024-06-15 01:03:32			0	38384	0	0	0	25033	23640	134204	27274	1012426	42096	109253	0	0	8306	539494	0	0
2024-06-15 01:04:32			0	38392	0	0	0	25044	23640	134208	26925	1012479	42096	109257	0	0	8306	539186	0	0
2024-06-15 01:05:32			0	38391	0	0	0	25028	23640	134232	27190	1012399	42108	109251	0	0	8306	539224	0	0
2024-06-15 01:06:32			0	38386	0	0	0	25031	23630	134180	26948	1012364	42118	109252	0	0	8306	539447	0	0
2024-06-15 01:07:32			0	38398	0	0	0	25023	23640	134152	27177	1012453	42096	109249	0	0	8307	538954	0	0
2024-06-15 01:08:32			0	38396	0	0	0	25023	23640	134172	27088	1012399	42096	109249	0	0	8307	539031	0	0
2024-06-15 01:09:32			0	38404	0	0	0	25018	23630	134092	27170	1012364	42096	109247	0	0	8307	538753	0	0
2024-06-15 01:10:32			0	38411	0	0	0	25002	23620	134104	27287	1012347	42107	109241	0	0	8308	538513	0	0
2024-06-15 01:11:32			0	38412	0	0	0	24999	23620	134184	27170	1012320	42107	109240	0	0	8308	538475	0	0
2024-06-15 01:12:32			0	38414	0	0	0	25002	23620	133976	27020	1012293	42096	109241	0	0	8308	538398	0	0
2024-06-15 01:13:32			0	38425	0	0	0	24989	23610	134028	27046	1012241	42094	109236	0	0	8308	538004	0	0
2024-06-15 01:14:32			0	38430	0	0	0	24984	23610	134084	27251	1012321	42094	109234	0	0	8309	537811	0	0
2024-06-15 01:15:32			0	38437	0	0	0	24984	23610	134120	27275	1012294	42094	109234	0	0	8309	537541	0	0
2024-06-15 01:16:32			0	38442	0	0	0	24971	23600	134048	27436	1012224	42093	109229	0	0	8310	537379	0	0
2024-06-15 01:17:32			0	38451	0	0	0	24971	23590	133996	27606	1012180	42092	109229	0	0	8310	537063	0	0
2024-06-15 01:18:32			0	38457	0	0	0	24968	23590	133996	27395	1012207	42092	109228	0	0	8310	536832	0	0
2024-06-15 01:19:32			0	38463	0	0	0	24961	23580	133964	27358	1012172	42091	109225	0	0	8311	536631	0	0
2024-06-15 01:20:32			0	38453	0	0	0	24955	23590	133996	27294	1012180	42070	109223	0	0	8310	536986	0	0
2024-06-15 01:21:32			0	38473	0	0	0	24955	23580	133932	26942	1012136	42091	109223	0	0	8311	536247	0	0
2024-06-15 01:22:32			0	38483	0	0	0	24948	23580	134016	27144	1012056	42091	109220	0	0	8312	535862	0	0
2024-06-15 01:23:32			0	38476	0	0	0	24942	23570	134052	27315	1012101	42101	109218	0	0	8312	536161	0	0
2024-06-15 01:24:32			0	38503	0	0	0	24942	23560	133932	27374	1012057	42079	109218	0	0	8313	535154	0	0
2024-06-15 01:25:32			0	38481	0	0	0	24945	23570	134040	27272	1012039	42090	109219	0	0	8312	535969	0	0
2024-06-15 01:26:32			0	38496	0	0	0	24942	23560	133876	27234	1012083	42089	109218	0	0	8313	535423	0	0
2024-06-15 01:27:32			0	38484	0	0	0	24937	23550	133976	27209	1012066	42078	109216	0	0	8312	535914	0	0
2024-06-15 01:28:32			0	38500	0	0	0	24932	23560	133848	27306	1012021	42079	109214	0	0	8313	535269	0	0
2024-06-15 01:29:32			0	38498	0	0	0	24937	23560	133840	27211	1012048	42089	109216	0	0	8313	535346	0	0
2024-06-15 01:30:32			0	38495	0	0	0	24929	23550	133948	27729	1012039	42088	109213	0	0	8313	535491	0	0
2024-06-15 01:31:32			0	38499	0	0	0	24940	23560	133848	27104	1012048	42089	109217	0	0	8313	535307	0	0
2024-06-15 01:32:32			0	38488	0	0	0	24932	23550	133884	27353	1012039	42088	109214	0	0	8312	535760	0	0
2024-06-15 01:33:32			0	38504	0	0	0	24929	23540	133868	27220	1011996	42087	109213	0	0	8313	535175	0	0
2024-06-15 01:34:32			0	38526	0	0	0	24932	23550	133856	27178	1012031	42087	109214	0	0	8314	534300	0	0
2024-06-15 01:35:32			0	38481	0	0	0	24932	23550	133936	27471	1012004	42087	109214	0	0	8312	536029	0	0
2024-06-15 01:36:32			0	38491	0	0	0	24935	23540	133716	27267	1011960	42077	109215	0	0	8313	535675	0	0
2024-06-15 01:37:32			0	38490	0	0	0	24924	23550	133808	27182	1011951	42087	109211	0	0	8313	535683	0	0
2024-06-15 01:38:32			0	38491	0	0	0	24927	23540	133900	27559	1012014	42087	109212	0	0	8313	535675	0	0
2024-06-15 01:39:32			0	38480	0	0	0	24924	23550	133948	27265	1011978	42099	109211	0	0	8312	536068	0	0
2024-06-15 01:40:32			0	38480	0	0	0	24929	23540	133836	27440	1011934	42099	109213	0	0	8312	536098	0	0
2024-06-15 01:41:32			0	38475	0	0	0	24932	23530	133916	27367	1011943	42097	109214	0	0	8312	536320	0	0
2024-06-15 01:42:32			0	38489	0	0	0	24929	23540	133832	26998	1011960	42087	109213	0	0	8313	535752	0	0
2024-06-15 01:43:32			0	38473	0	0	0	24922	23540	133940	27237	1011960	42087	109210	0	0	8312	536367	0	0
2024-06-15 01:44:32			0	38475	0	0	0	24927	23530	133952	27388	1011970	42086	109212	0	0	8312	536320	0	0
2024-06-15 01:45:32			0	38472	0	0	0	24919	23530	133928	27274	1011943	42086	109209	0	0	8312	536436	0	0
2024-06-15 01:46:32			0	38453	0	0	0	24919	23530	134044	27185	1011917	42086	109209	0	0	8311	537167	0	0
2024-06-15 01:47:32			0	38460	0	0	0	24919	23530	134076	27291	1011970	42086	109209	0	0	8311	536898	0	0
2024-06-15 01:48:32			0	38466	0	0	0	24916	23530	134032	26974	1011925	42086	109208	0	0	8311	536667	0	0
2024-06-15 01:49:32			0	38430	0	0	0	24916	23530	134084	27367	1011917	42086	109208	0	0	8310	538053	0	0
2024-06-15 01:50:32			0	38454	0	0	0	24919	23520	134080	27277	1011953	42096	109209	0	0	8311	537159	0	0
2024-06-15 01:51:32			0	38415	0	0	0	24916	23520	134032	27230	1011953	42096	109208	0	0	8309	538662	0	0
2024-06-15 01:52:32			0	38427	0	0	0	24911	23520	134032	27072	1011908	42075	109206	0	0	8310	538199	0	0
2024-06-15 01:53:32			0	38398	0	0	0	24906	23520	134040	27079	1011908	42097	109204	0	0	8308	539318	0	0
2024-06-15 01:54:32			0	38405	0	0	0	24919	23530	134108	27254	1011917	42086	109209	0	0	8308	539018	0	0
2024-06-15 01:55:32			0	38393	0	0	0	24914	23520	134120	27296	1011908	42097	109207	0	0	8308	539511	0	0
2024-06-15 01:56:32			0	38379	0	0	0	24911	23520	134252	27310	1011881	42097	109206	0	0	8307	540052	0	0
2024-06-15 01:57:32			0	38366	0	0	0	24909	23510	134188	27059	1011918	42074	109205	0	0	8306	540584	0	0
2024-06-15 01:58:32			0	38375	0	0	0	24909	23510	134288	27307	1011918	42085	109205	0	0	8307	540237	0	0
2024-06-15 01:59:32			0	38362	0	0	0	24906	23520	134276	27434	1011873	42085	109204	0	0	8306	540709	0	0
2024-06-15 02:00:32			0	38352	0	0	0	24903	23510	134324	27062	1011891	42096	109203	0	0	8306	541126	0	0
2024-06-15 02:01:32			0	38360	0	0	0	24909	23520	134348	27274	1011980	42096	109205	0	0	8306	540786	0	0
2024-06-15 02:02:32			0	38363	0	0	0	24916	23510	134336	27400	1011838	42107	109208	0	0	8306	540701	0	0
2024-06-15 02:03:32			0	38333	0	0	0	24909	23510	134344	27211	1011856	42095	109205	0	0	8305	541861	0	0
2024-06-15 02:04:32			0	38332	0	0	0	24903	23510	134396	27360	1011856	42095	109203	0	0	8305	541900	0	0
2024-06-15 02:05:32			0	38318	0	0	0	24903	23510	134420	27535	1011864	42096	109203	0	0	8304	542442	0	0
2024-06-15 02:06:32			0	38330	0	0	0	24909	23510	134356	27284	1011829	42084	109205	0	0	8304	541977	0	0
2024-06-15 02:07:32			0	38307	0	0	0	24901	23520	134416	27486	1011846	42085	109202	0	0	8303	542838	0	0
2024-06-15 02:08:32			0	38320	0	0	0	24893	23510	134508	27519	1011829	42084	109199	0	0	8304	542365	0	0
2024-06-15 02:09:32			0	38310	0	0	0	24888	23510	134428	27338	1011802	42084	109197	0	0	8304	542752	0	0
2024-06-15 02:10:32			0	38313	0	0	0	24885	23500	134488	27242	1011820	42084	109196	0	0	8304	542666	0	0
2024-06-15 02:11:32			0	38303	0	0	0	24885	23500	134568	27081	1011794	42084	109196	0	0	8303	543054	0	0
2024-06-15 02:12:32			0	38317	0	0	0	24877	23500	134544	27140	1011732	42094	109193	0	0	8304	542511	0	0
2024-06-15 02:13:32			0	38294	0	0	0	24885	23490	134504	27270	1011715	42083	109196	0	0	8303	543434	0	0
2024-06-15 02:14:32			0	38286	0	0	0	24880	23500	134624	27334	1011812	42083	109194	0	0	8303	543713	0	0
2024-06-15 02:15:32			0	38283	0	0	0	24903	23490	134516	27171	1011910	42083	109203	0	0	8302	543860	0	0
2024-06-15 02:16:32			0	38294	0	0	0	24932	23510	134584	27109	1012069	42106	109214	0	0	8302	543373	0	0
2024-06-15 02:17:32			0	38281	0	0	0	24966	23520	134548	27220	1012060	42096	109227	0	0	8301	543846	0	0
2024-06-15 02:18:32			0	38260	0	0	0	24994	23540	134544	26951	1012201	42121	109238	0	0	8300	544600	0	0
2024-06-15 02:19:32			0	38262	0	0	0	25018	23560	134608	27192	1012342	42112	109247	0	0	8299	544461	0	0
2024-06-15 02:20:32			0	38246	0	0	0	25023	23570	134672	27079	1012394	42134	109249	0	0	8298	545052	0	0
2024-06-15 02:21:32			0	38237	0	0	0	25038	23580	134624	27341	1012483	42125	109255	0	0	8298	545371	0	0
2024-06-15 02:22:32			0	38250	0	0	0	25049	23600	134716	27052	1012491	42126	109259	0	0	8298	544805	0	0
2024-06-15 02:23:32			0	38229	0	0	0	25072	23610	134632	27279	1012570	42116	109268	0	0	8297	545590	0	0
2024-06-15 02:24:32			0	38215	0	0	0	25077	23620	134672	27064	1012560	42107	109270	0	0	8296	546104	0	0
2024-06-15 02:25:32			0	38237	0	0	0	25088	23640	134668	27412	1012613	42129	109274	0	0	8297	545187	0	0
2024-06-15 02:26:32			0	38231	0	0	0	25106	23640	134632	27334	1012702	42109	109281	0	0	8297	545420	0	0
2024-06-15 02:27:32			0	38245	0	0	0	25111	23660	134604	27376	1012754	42121	109283	0	0	8297	544815	0	0
2024-06-15 02:28:32			0	38232	0	0	0	25127	23670	134564	27156	1012798	42123	109289	0	0	8296	545289	0	0
2024-06-15 02:29:32			0	38243	0	0	0	25116	23670	134548	27396	1012824	42123	109285	0	0	8297	544862	0	0
2024-06-15 02:30:32			0	38230	0	0	0	25122	23680	134536	27478	1012823	42112	109287	0	0	8296	545336	0	0
2024-06-15 02:31:32			0	38237	0	0	0	25127	23690	134560	27265	1012912	42113	109289	0	0	8297	545034	0	0
2024-06-15 02:32:32			0	38230	0	0	0	25127	23690	134568	27154	1012841	42135	109289	0	0	8296	545306	0	0
2024-06-15 02:33:32			0	38216	0	0	0	25132	23700	134624	27274	1012858	42125	109291	0	0	8296	545819	0	0
2024-06-15 02:34:32			0	38234	0	0	0	25137	23690	134596	27180	1012868	42113	109293	0	0	8296	545150	0	0
2024-06-15 02:35:32			0	38226	0	0	0	25129	23710	134584	27377	1012920	42125	109290	0	0	8296	545400	0	0
2024-06-15 02:36:32			0	38238	0	0	0	25135	23700	134600	27346	1012876	42125	109292	0	0	8297	544964	0	0
2024-06-15 02:37:32			0	38246	0	0	0	25140	23710	134540	27417	1012875	42125	109294	0	0	8297	544623	0	0
2024-06-15 02:38:32			0	38241	0	0	0	25132	23710	134524	27161	1012875	42125	109291	0	0	8297	544817	0	0
2024-06-15 02:39:32			0	38249	0	0	0	25127	23710	134564	27173	1012893	42115	109289	0	0	8297	544506	0	0
2024-06-15 02:40:32			0	38267	0	0	0	25129	23710	134544	27189	1012893	42115	109290	0	0	8298	543808	0	0
2024-06-15 02:41:32			0	38276	0	0	0	25132	23710	134448	27147	1012920	42137	109291	0	0	8299	543459	0	0
2024-06-15 02:42:32			0	38282	0	0	0	25127	23710	134528	27142	1012840	42104	109289	0	0	8299	543226	0	0
2024-06-15 02:43:32			0	38292	0	0	0	25122	23710	134468	27131	1012866	42104	109287	0	0	8300	542839	0	0
2024-06-15 02:44:32			0	38274	0	0	0	25122	23700	134424	27144	1012805	42114	109287	0	0	8299	543567	0	0
2024-06-15 02:45:32			0	38292	0	0	0	25114	23720	134456	26998	1012884	42115	109284	0	0	8300	542808	0	0
2024-06-15 02:46:32			0	38277	0	0	0	25119	23710	134400	27128	1012875	42115	109286	0	0	8299	543420	0	0
2024-06-15 02:47:32			0	38306	0	0	0	25106	23710	134388	27267	1012840	42125	109281	0	0	8301	542297	0	0
2024-06-15 02:48:32			0	38279	0	0	0	25114	23710	134424	27124	1012848	42104	109284	0	0	8299	543343	0	0
2024-06-15 02:49:32			0	38299	0	0	0	25103	23710	134392	27306	1012760	42125	109280	0	0	8300	542568	0	0
2024-06-15 02:50:32			0	38298	0	0	0	25083	23690	134424	27223	1012707	42102	109272	0	0	8301	542668	0	0
2024-06-15 02:51:32			0	38313	0	0	0	25075	23690	134340	27182	1012681	42125	109269	0	0	8302	542087	0	0
2024-06-15 02:52:32			0	38313	0	0	0	25059	23680	134324	27282	1012655	42100	109263	0	0	8302	542117	0	0
2024-06-15 02:53:32			0	38297	0	0	0	25059	23680	134348	27443	1012548	42100	109263	0	0	8301	542737	0	0
2024-06-15 02:54:32			0	38316	0	0	0	25044	23660	134312	27033	1012442	42122	109257	0	0	8302	542062	0	0
2024-06-15 02:55:32			0	38318	0	0	0	25033	23660	134392	27166	1012487	42110	109253	0	0	8302	541985	0	0
2024-06-15 02:56:32			0	38307	0	0	0	25025	23650	134356	27320	1012505	42098	109250	0	0	8302	542441	0	0
2024-06-15 02:57:32			0	38319	0	0	0	25020	23650	134384	26885	1012496	42097	109248	0	0	8303	541976	0	0
2024-06-15 02:58:32			0	38286	0	0	0	25028	23650	134372	27268	1012496	42120	109251	0	0	8301	543255	0	0
2024-06-15 02:59:32			0	38293	0	0	0	25020	23640	134444	27284	1012479	42108	109248	0	0	8301	543014	0	0
2024-06-15 03:00:32			0	38274	0	0	0	25023	23640	134476	27209	1012434	42109	109249	0	0	8300	543751	0	0
2024-06-15 03:01:32			0	38268	0	0	0	25015	23630	134580	27137	1012409	42107	109246	0	0	8300	544014	0	0
2024-06-15 03:02:32			0	38248	0	0	0	25015	23630	134572	27052	1012364	42107	109246	0	0	8299	544790	0	0
2024-06-15 03:03:32			0	38239	0	0	0	25010	23630	134640	26854	1012435	42096	109244	0	0	8299	545140	0	0
2024-06-15 03:04:32			0	38225	0	0	0	25005	23630	134704	27256	1012364	42107	109242	0	0	8298	545684	0	0
2024-06-15 03:05:32			0	38218	0	0	0	25007	23630	134764	27140	1012382	42107	109243	0	0	8298	545956	0	0
2024-06-15 03:06:32			0	38199	0	0	0	25007	23620	134764	27072	1012347	42096	109243	0	0	8297	546726	0	0
2024-06-15 03:07:32			0	38171	0	0	0	24999	23630	134820	26859	1012417	42107	109240	0	0	8295	547786	0	0
2024-06-15 03:08:32			0	38142	0	0	0	25010	23630	134932	27116	1012409	42096	109244	0	0	8294	548917	0	0
2024-06-15 03:09:32			0	38131	0	0	0	25012	23620	135024	27079	1012374	42096	109245	0	0	8293	549377	0	0
2024-06-15 03:10:32			0	38088	0	0	0	25007	23620	135080	27282	1012427	42118	109243	0	0	8291	551057	0	0
2024-06-15 03:11:32			0	38063	0	0	0	25002	23620	135184	27306	1012427	42107	109241	0	0	8290	552036	0	0
2024-06-15 03:12:32			0	38049	0	0	0	25005	23620	135204	27071	1012418	42095	109242	0	0	8289	552584	0	0
2024-06-15 03:13:32			0	38029	0	0	0	24999	23630	135419	27625	1012355	42107	109240	0	0	8288	553337	0	0
2024-06-15 03:14:32			0	38009	0	0	0	25005	23620	135515	27137	1012418	42095	109242	0	0	8287	554153	0	0
2024-06-15 03:15:32			0	37953	0	0	0	25005	23610	135579	26781	1012330	42105	109242	0	0	8284	556385	0	0
2024-06-15 03:16:32			0	37923	0	0	0	24984	23600	135691	27027	1012286	42105	109234	0	0	8283	557598	0	0
2024-06-15 03:17:32			0	37894	0	0	0	24981	23610	135907	27260	1012321	42094	109233	0	0	8281	558710	0	0
2024-06-15 03:18:32			0	37850	0	0	0	24986	23610	135935	27053	1012330	42094	109235	0	0	8279	560448	0	0
2024-06-15 03:19:32			0	37829	0	0	0	24986	23610	136143	27274	1012303	42094	109235	0	0	8278	561279	0	0
2024-06-15 03:20:32			0	37779	0	0	0	24989	23610	136147	27126	1012294	42094	109236	0	0	8275	563259	0	0
2024-06-15 03:21:32			0	37750	0	0	0	24986	23600	136315	27241	1012286	42105	109235	0	0	8274	564442	0	0
2024-06-15 03:22:32			0	37732	0	0	0	24984	23610	136463	26866	1012321	42105	109234	0	0	8273	565126	0	0
2024-06-15 03:23:32			0	37703	0	0	0	24981	23610	136555	27057	1012294	42105	109233	0	0	8271	566279	0	0
2024-06-15 03:24:32			0	37665	0	0	0	24979	23600	136643	27017	1012259	42105	109232	0	0	8269	567824	0	0
2024-06-15 03:25:32			0	37625	0	0	0	24974	23600	136771	26812	1012259	42105	109230	0	0	8267	569421	0	0
2024-06-15 03:26:32			0	37591	0	0	0	24979	23600	136891	27249	1012224	42104	109232	0	0	8265	570780	0	0
2024-06-15 03:27:32			0	37587	0	0	0	24974	23590	136947	27114	1012215	42103	109230	0	0	8265	570972	0	0
2024-06-15 03:28:32			0	37522	0	0	0	24974	23590	137019	27402	1012233	42103	109230	0	0	8262	573577	0	0
2024-06-15 03:29:32			0	37507	0	0	0	24958	23590	137199	26967	1012233	42103	109224	0	0	8261	574179	0	0
2024-06-15 03:30:32			0	37481	0	0	0	24961	23590	137271	27419	1012242	42103	109225	0	0	8260	575223	0	0
2024-06-15 03:31:32			0	37439	0	0	0	24966	23590	137435	27255	1012260	42103	109227	0	0	8258	576914	0	0
2024-06-15 03:32:32			0	37421	0	0	0	24968	23590	137467	27222	1012260	42103	109228	0	0	8257	577639	0	0
2024-06-15 03:33:32			0	37396	0	0	0	24966	23570	137531	26986	1012154	42101	109227	0	0	8255	578713	0	0
2024-06-15 03:34:32			0	37366	0	0	0	24963	23580	137643	27253	1012225	42102	109226	0	0	8254	579892	0	0
2024-06-15 03:35:32			0	37342	0	0	0	24971	23580	137879	27050	1012198	42091	109229	0	0	8252	580862	0	0
2024-06-15 03:36:32			0	37297	0	0	0	24966	23570	137890	27057	1012154	42101	109227	0	0	8250	582718	0	0
2024-06-15 03:37:32			0	37290	0	0	0	24958	23580	138070	26972	1012225	42102	109224	0	0	8250	582969	0	0
2024-06-15 03:38:32			0	37261	0	0	0	24974	23580	138142	27281	1012278	42091	109230	0	0	8248	584146	0	0
2024-06-15 03:39:32			0	37227	0	0	0	24968	23580	138074	27265	1012216	42102	109228	0	0	8247	585528	0	0
2024-06-15 03:40:32			0	37217	0	0	0	24971	23580	138190	27237	1012243	42102	109229	0	0	8246	585935	0	0
2024-06-15 03:41:32			0	37207	0	0	0	24974	23570	138310	27031	1012234	42101	109230	0	0	8245	586375	0	0
2024-06-15 03:42:32			0	37139	0	0	0	24974	23580	138442	27126	1012198	42114	109230	0	0	8242	589115	0	0
2024-06-15 03:43:32			0	37150	0	0	0	24966	23580	138530	27201	1012270	42102	109227	0	0	8243	588666	0	0
2024-06-15 03:44:32			0	37133	0	0	0	24974	23580	138582	27170	1012278	42091	109230	0	0	8242	589360	0	0
2024-06-15 03:45:32			0	37115	0	0	0	24974	23580	138742	27064	1012225	42102	109230	0	0	8241	590096	0	0
2024-06-15 03:46:32			0	37085	0	0	0	24979	23590	138686	27234	1012314	42103	109232	0	0	8239	591290	0	0
2024-06-15 03:47:32			0	37068	0	0	0	24986	23590	138762	27268	1012287	42114	109235	0	0	8238	591986	0	0
2024-06-15 03:48:32			0	37045	0	0	0	24992	23590	138798	27130	1012322	42092	109237	0	0	8237	592929	0	0
2024-06-15 03:49:32			0	37043	0	0	0	24986	23600	138954	27211	1012331	42115	109235	0	0	8237	592978	0	0
2024-06-15 03:50:32			0	37010	0	0	0	24997	23600	138966	27154	1012339	42105	109239	0	0	8235	594333	0	0
2024-06-15 03:51:32			0	37019	0	0	0	24999	23590	138994	27286	1012295	42103	109240	0	0	8235	593996	0	0
2024-06-15 03:52:32			0	36977	0	0	0	24999	23600	139058	27310	1012384	42104	109240	0	0	8233	595689	0	0
2024-06-15 03:53:32			0	36969	0	0	0	25005	23600	139118	27455	1012331	42104	109242	0	0	8233	596018	0	0
2024-06-15 03:54:32			0	36945	0	0	0	25007	23610	139082	26804	1012410	42105	109243	0	0	8231	596973	0	0
2024-06-15 03:55:32			0	36929	0	0	0	25010	23620	139242	27118	1012392	42106	109244	0	0	8230	597599	0	0
2024-06-15 03:56:32			0	36931	0	0	0	24999	23610	139262	27348	1012348	42127	109240	0	0	8231	597550	0	0
2024-06-15 03:57:32			0	36911	0	0	0	25005	23610	139382	27241	1012375	42105	109242	0	0	8230	598375	0	0
2024-06-15 03:58:32			0	36907	0	0	0	24999	23610	139322	27149	1012383	42105	109240	0	0	8229	598540	0	0
2024-06-15 03:59:32			0	36890	0	0	0	24992	23610	139406	27502	1012375	42105	109237	0	0	8229	599242	0	0
2024-06-15 04:00:32			0	36877	0	0	0	24976	23610	139382	27258	1012348	42094	109231	0	0	8228	599780	0	0
2024-06-15 04:01:32			0	36859	0	0	0	24974	23600	139466	27048	1012286	42105	109230	0	0	8227	600558	0	0
2024-06-15 04:02:32			0	36846	0	0	0	24953	23590	139494	27057	1012242	42092	109222	0	0	8227	601129	0	0
2024-06-15 04:03:32			0	36840	0	0	0	24961	23590	139462	27249	1012242	42114	109225	0	0	8226	601378	0	0
2024-06-15 04:04:32			0	36839	0	0	0	24953	23590	139610	27428	1012215	42092	109222	0	0	8227	601419	0	0
2024-06-15 04:05:32			0	36830	0	0	0	24958	23590	139558	27282	1012233	42103	109224	0	0	8226	601792	0	0
2024-06-15 04:06:32			0	36809	0	0	0	24958	23590	139670	27386	1012207	42114	109224	0	0	8225	602663	0	0
2024-06-15 04:07:32			0	36803	0	0	0	24942	23580	139750	27293	1012136	42091	109218	0	0	8225	602945	0	0
2024-06-15 04:08:32			0	36818	0	0	0	24935	23570	139750	27048	1012154	42090	109215	0	0	8226	602357	0	0
2024-06-15 04:09:32			0	36801	0	0	0	24937	23570	139778	27121	1012146	42090	109216	0	0	8225	603062	0	0
2024-06-15 04:10:32			0	36780	0	0	0	24937	23560	139690	27249	1012190	42100	109216	0	0	8224	603968	0	0
2024-06-15 04:11:32			0	36775	0	0	0	24942	23570	139738	27348	1012181	42090	109218	0	0	8223	604141	0	0
2024-06-15 04:12:32			0	36782	0	0	0	24940	23560	139766	27339	1012163	42100	109217	0	0	8224	603885	0	0
2024-06-15 04:13:32			0	36767	0	0	0	24937	23560	139742	27192	1012137	42100	109216	0	0	8223	604508	0	0
2024-06-15 04:14:32			0	36770	0	0	0	24948	23560	139826	27222	1012182	42112	109220	0	0	8223	604383	0	0
2024-06-15 04:15:32			0	36766	0	0	0	24950	23570	139850	27182	1012146	42090	109221	0	0	8223	604516	0	0
2024-06-15 04:16:32			0	36744	0	0	0	24948	23560	139862	27192	1012101	42100	109220	0	0	8222	605464	0	0
2024-06-15 04:17:32			0	36760	0	0	0	24942	23560	139834	27190	1012137	42112	109218	0	0	8222	604799	0	0
2024-06-15 04:18:32			0	36744	0	0	0	24942	23560	139874	27098	1012110	42100	109218	0	0	8222	605464	0	0
2024-06-15 04:19:32			0	36736	0	0	0	24945	23560	140030	26977	1012101	42112	109219	0	0	8221	605797	0	0
2024-06-15 04:20:32			0	36727	0	0	0	24929	23550	140006	27190	1012039	42088	109213	0	0	8221	606206	0	0
2024-06-15 04:21:32			0	36739	0	0	0	24940	23560	139998	27039	1012075	42089	109217	0	0	8221	605672	0	0
2024-06-15 04:22:32			0	36724	0	0	0	24927	23560	139938	27029	1012048	42100	109212	0	0	8221	606297	0	0
2024-06-15 04:23:32			0	36738	0	0	0	24929	23540	139970	27414	1012049	42087	109213	0	0	8221	605782	0	0
2024-06-15 04:24:32			0	36731	0	0	0	24932	23560	140022	27322	1012075	42100	109214	0	0	8221	606005	0	0
2024-06-15 04:25:32			0	36707	0	0	0	24924	23540	140006	26760	1012049	42099	109211	0	0	8220	607073	0	0
2024-06-15 04:26:32			0	36728	0	0	0	24929	23540	140002	26920	1012041	42099	109213	0	0	8221	606198	0	0
2024-06-15 04:27:32			0	36710	0	0	0	24924	23550	140130	26896	1012058	42099	109211	0	0	8220	606914	0	0
2024-06-15 04:28:32			0	36695	0	0	0	24929	23540	140106	27133	1012067	42099	109213	0	0	8219	607574	0	0
2024-06-15 04:29:32			0	36708	0	0	0	24924	23540	140086	27118	1012102	42077	109211	0	0	8220	607032	0	0
2024-06-15 04:30:32			0	36684	0	0	0	24932	23540	140122	26963	1012076	42110	109214	0	0	8219	608032	0	0
2024-06-15 04:31:32			0	36685	0	0	0	24932	23540	140170	27429	1012049	42110	109214	0	0	8219	607991	0	0
2024-06-15 04:32:32			0	36685	0	0	0	24922	23540	140174	26927	1011996	42121	109210	0	0	8219	607991	0	0
2024-06-15 04:33:32			0	36673	0	0	0	24927	23540	140198	27041	1012049	42110	109212	0	0	8218	608492	0	0
2024-06-15 04:34:32			0	36692	0	0	0	24919	23540	140302	27386	1011996	42099	109209	0	0	8219	607699	0	0
2024-06-15 04:35:32			0	36688	0	0	0	24929	23530	140242	27081	1011970	42086	109213	0	0	8219	607900	0	0
2024-06-15 04:36:32			0	36681	0	0	0	24927	23530	140238	27185	1012059	42109	109212	0	0	8218	608192	0	0
2024-06-15 04:37:32			0	36664	0	0	0	24927	23530	140266	27426	1012005	42098	109212	0	0	8218	608902	0	0
2024-06-15 04:38:32			0	36674	0	0	0	24927	23530	140258	27393	1011952	42086	109212	0	0	8218	608484	0	0
2024-06-15 04:39:32			0	36684	0	0	0	24916	23530	140290	27189	1011979	42086	109208	0	0	8219	608067	0	0
2024-06-15 04:40:32			0	36676	0	0	0	24919	23530	140202	27180	1012023	42097	109209	0	0	8218	608401	0	0
2024-06-15 04:41:32			0	36675	0	0	0	24911	23520	140242	27150	1011988	42097	109206	0	0	8218	608476	0	0
2024-06-15 04:42:32			0	36643	0	0	0	24914	23530	140166	27020	1012032	42098	109207	0	0	8217	609779	0	0
2024-06-15 04:43:32			0	36680	0	0	0	24919	23530	140342	27324	1012005	42086	109209	0	0	8219	608234	0	0
2024-06-15 04:44:32			0	36670	0	0	0	24919	23530	140306	27284	1012050	42097	109209	0	0	8218	608651	0	0
2024-06-15 04:45:32			0	36642	0	0	0	24916	23530	140286	27590	1012023	42097	109208	0	0	8217	609821	0	0
2024-06-15 04:46:32			0	36655	0	0	0	24924	23540	140378	27171	1012041	42099	109211	0	0	8217	609243	0	0
2024-06-15 04:47:32			0	36659	0	0	0	24922	23530	140394	27008	1012059	42098	109210	0	0	8217	609110	0	0
2024-06-15 04:48:32			0	36661	0	0	0	24932	23530	140394	27149	1012023	42097	109214	0	0	8217	609027	0	0
2024-06-15 04:49:32			0	36645	0	0	0	24937	23530	140510	27267	1011970	42086	109216	0	0	8216	609695	0	0
2024-06-15 04:50:32			0	36634	0	0	0	24919	23530	140434	26920	1011952	42098	109209	0	0	8216	610155	0	0
2024-06-15 04:51:32			0	36647	0	0	0	24911	23520	140386	27218	1011881	42086	109206	0	0	8217	609646	0	0
2024-06-15 04:52:32			0	36634	0	0	0	24898	23510	140402	27310	1011891	42107	109201	0	0	8216	610224	0	0
2024-06-15 04:53:32			0	36642	0	0	0	24896	23510	140390	27031	1011882	42095	109200	0	0	8217	609890	0	0
2024-06-15 04:54:32			0	36634	0	0	0	24893	23500	140354	27189	1011839	42094	109199	0	0	8216	610258	0	0
2024-06-15 04:55:32			0	36613	0	0	0	24890	23500	140494	27097	1011847	42095	109198	0	0	8215	611137	0	0
2024-06-15 04:56:32			0	36641	0	0	0	24893	23500	140378	27253	1011892	42083	109199	0	0	8217	609966	0	0
2024-06-15 04:57:32			0	36621	0	0	0	24888	23510	140514	27327	1011829	42106	109197	0	0	8216	610768	0	0
2024-06-15 04:58:32			0	36624	0	0	0	24890	23490	140490	27371	1011750	42105	109198	0	0	8216	610711	0	0
2024-06-15 04:59:32			0	36610	0	0	0	24890	23490	140414	27163	1011795	42083	109198	0	0	8215	611297	0	0
2024-06-15 05:00:32			0	36618	0	0	0	24883	23500	140462	27046	1011767	42106	109195	0	0	8216	610928	0	0
2024-06-15 05:01:32			0	36590	0	0	0	24880	23490	140501	27149	1011795	42083	109194	0	0	8214	612135	0	0
2024-06-15 05:02:32			0	36636	0	0	0	24888	23480	140510	27294	1011786	42093	109197	0	0	8217	610243	0	0
2024-06-15 05:03:32			0	36608	0	0	0	24872	23490	140538	27137	1011741	42093	109191	0	0	8215	611381	0	0
2024-06-15 05:04:32			0	36607	0	0	0	24880	23490	140534	27105	1011768	42104	109194	0	0	8215	611423	0	0
2024-06-15 05:05:32			0	36607	0	0	0	24877	23490	140422	27246	1011688	42104	109193	0	0	8215	611423	0	0
2024-06-15 05:06:32			0	36594	0	0	0	24872	23480	140529	27138	1011671	42092	109191	0	0	8215	612002	0	0
2024-06-15 05:07:32			0	36621	0	0	0	24857	23490	140542	27071	1011741	42093	109185	0	0	8216	610837	0	0
2024-06-15 05:08:32			0	36608	0	0	0	24841	23470	140518	26800	1011600	42081	109179	0	0	8216	611450	0	0
2024-06-15 05:09:32			0	36616	0	0	0	24831	23470	140474	27223	1011636	42091	109175	0	0	8216	611115	0	0
2024-06-15 05:10:32			0	36608	0	0	0	24820	23460	140522	27135	1011557	42080	109171	0	0	8216	611484	0	0
2024-06-15 05:11:32			0	36611	0	0	0	24799	23440	140526	27052	1011486	42079	109163	0	0	8217	611427	0	0
2024-06-15 05:12:32			0	36613	0	0	0	24792	23440	140486	27168	1011478	42078	109160	0	0	8217	611343	0	0
2024-06-15 05:13:32			0	36595	0	0	0	24766	23430	140522	27062	1011415	42089	109150	0	0	8216	612132	0	0
2024-06-15 05:14:32			0	36610	0	0	0	24761	23410	140578	26998	1011328	42076	109148	0	0	8217	611572	0	0
2024-06-15 05:15:32			0	36613	0	0	0	24742	23400	140598	27249	1011275	42075	109141	0	0	8217	611481	0	0
2024-06-15 05:16:32			0	36614	0	0	0	24719	23380	140570	27166	1011161	42061	109132	0	0	8218	611508	0	0
2024-06-15 05:17:32			0	36598	0	0	0	24709	23380	140593	26982	1011161	42061	109128	0	0	8217	612178	0	0
2024-06-15 05:18:32			0	36615	0	0	0	24703	23370	140626	27095	1011171	42061	109126	0	0	8218	611500	0	0
2024-06-15 05:19:32			0	36595	0	0	0	24709	23370	140573	27190	1011197	42083	109128	0	0	8217	612338	0	0
2024-06-15 05:20:32			0	36591	0	0	0	24706	23360	140690	27121	1011162	42071	109127	0	0	8217	612541	0	0
2024-06-15 05:21:32			0	36598	0	0	0	24719	23360	140630	27326	1011154	42082	109132	0	0	8217	612247	0	0
2024-06-15 05:22:32			0	36601	0	0	0	24706	23350	140650	27313	1011092	42070	109127	0	0	8217	612156	0	0
2024-06-15 05:23:32			0	36598	0	0	0	24706	23340	140673	27358	1011101	42091	109127	0	0	8217	612316	0	0
2024-06-15 05:24:32			0	36606	0	0	0	24698	23350	140658	27111	1011110	42070	109124	0	0	8218	611946	0	0
2024-06-15 05:25:32			0	36604	0	0	0	24693	23340	140590	27144	1011048	42058	109122	0	0	8218	612064	0	0
2024-06-15 05:26:32			0	36597	0	0	0	24690	23330	140705	27052	1011031	42068	109121	0	0	8217	612392	0	0
2024-06-15 05:27:32			0	36592	0	0	0	24685	23330	140677	27022	1011031	42068	109119	0	0	8217	612602	0	0
2024-06-15 05:28:32			0	36578	0	0	0	24677	23330	140697	27045	1010977	42079	109116	0	0	8216	613190	0	0
2024-06-15 05:29:32			0	36576	0	0	0	24675	23320	140681	26894	1010960	42067	109115	0	0	8216	613308	0	0
2024-06-15 05:30:32			0	36593	0	0	0	24659	23320	140737	27209	1010925	42066	109109	0	0	8217	612595	0	0
2024-06-15 05:31:32			0	36570	0	0	0	24657	23310	140725	27272	1010881	42088	109108	0	0	8216	613594	0	0
2024-06-15 05:32:32			0	36564	0	0	0	24644	23300	140797	27086	1010810	42076	109103	0	0	8216	613881	0	0
2024-06-15 05:33:32			0	36549	0	0	0	24641	23290	140829	27248	1010829	42064	109102	0	0	8215	614546	0	0
2024-06-15 05:34:32			0	36529	0	0	0	24638	23280	140825	26873	1010785	42064	109101	0	0	8214	615422	0	0
2024-06-15 05:35:32			0	36538	0	0	0	24633	23280	140865	27138	1010776	42051	109099	0	0	8215	615043	0	0
2024-06-15 05:36:32			0	36532	0	0	0	24625	23270	140997	26994	1010741	42050	109096	0	0	8215	615330	0	0
2024-06-15 05:37:32			0	36520	0	0	0	24612	23280	141029	27261	1010803	42051	109091	0	0	8214	615801	0	0
2024-06-15 05:38:32			0	36520	0	0	0	24612	23260	141021	26918	1010715	42061	109091	0	0	8214	615870	0	0
2024-06-15 05:39:32			0	36486	0	0	0	24610	23270	141137	27121	1010733	42062	109090	0	0	8212	617268	0	0
2024-06-15 05:40:32			0	36497	0	0	0	24612	23260	141105	26911	1010724	42062	109091	0	0	8213	616839	0	0
2024-06-15 05:41:32			0	36492	0	0	0	24607	23260	141145	27097	1010715	42072	109089	0	0	8213	617050	0	0
2024-06-15 05:42:32			0	36483	0	0	0	24612	23260	141133	27175	1010777	42050	109091	0	0	8212	617429	0	0
2024-06-15 05:43:32			0	36444	0	0	0	24605	23250	141253	27131	1010645	42049	109088	0	0	8210	619111	0	0
2024-06-15 05:44:32			0	36454	0	0	0	24599	23240	141277	27015	1010636	42060	109086	0	0	8211	618723	0	0
2024-06-15 05:45:32			0	36459	0	0	0	24592	23240	141353	27197	1010636	42071	109083	0	0	8211	618512	0	0
2024-06-15 05:46:32			0	36422	0	0	0	24605	23240	141353	27255	1010690	42049	109088	0	0	8209	620076	0	0
2024-06-15 05:47:32			0	36412	0	0	0	24599	23230	141349	27182	1010646	42058	109086	0	0	8209	620534	0	0
2024-06-15 05:48:32			0	36401	0	0	0	24602	23240	141445	27229	1010663	42049	109087	0	0	8208	620965	0	0
2024-06-15 05:49:32			0	36394	0	0	0	24597	23230	141489	27038	1010637	42058	109085	0	0	8208	621297	0	0
2024-06-15 05:50:32			0	36370	0	0	0	24607	23240	141501	26849	1010690	42060	109089	0	0	8206	622279	0	0
2024-06-15 05:51:32			0	36377	0	0	0	24615	23240	141565	27062	1010716	42060	109092	0	0	8206	621982	0	0
2024-06-15 05:52:32			0	36347	0	0	0	24618	23240	141625	27197	1010788	42070	109093	0	0	8205	623255	0	0
2024-06-15 05:53:32			0	36348	0	0	0	24638	23240	141617	26934	1010743	42060	109101	0	0	8205	623213	0	0
2024-06-15 05:54:32			0	36312	0	0	0	24638	23260	141801	27170	1010849	42072	109101	0	0	8203	624673	0	0
2024-06-15 05:55:32			0	36308	0	0	0	24649	23260	141937	27095	1010769	42072	109105	0	0	8202	624843	0	0
2024-06-15 05:56:32			0	36287	0	0	0	24659	23260	141865	27225	1010796	42072	109109	0	0	8201	625737	0	0
2024-06-15 05:57:32			0	36276	0	0	0	24670	23270	141965	27222	1010893	42062	109113	0	0	8200	626170	0	0
2024-06-15 05:58:32			0	36243	0	0	0	24659	23260	141961	27308	1010857	42062	109109	0	0	8199	627612	0	0
2024-06-15 05:59:32			0	36260	0	0	0	24659	23270	142001	27202	1010786	42073	109109	0	0	8200	626852	0	0
2024-06-15 06:00:32			0	36233	0	0	0	24662	23260	142081	27227	1010796	42083	109110	0	0	8198	628039	0	0
2024-06-15 06:01:32			0	36219	0	0	0	24657	23270	142117	26996	1010813	42073	109108	0	0	8197	628602	0	0
2024-06-15 06:02:32			0	36219	0	0	0	24649	23270	142141	27265	1010786	42073	109105	0	0	8198	628602	0	0
2024-06-15 06:03:32			0	36209	0	0	0	24651	23260	142209	27095	1010831	42083	109106	0	0	8197	629064	0	0
2024-06-15 06:04:32			0	36187	0	0	0	24662	23260	142269	26814	1010796	42061	109110	0	0	8196	630005	0	0
2024-06-15 06:05:32			0	36160	0	0	0	24657	23270	142313	27142	1010813	42062	109108	0	0	8194	631125	0	0
2024-06-15 06:06:32			0	36165	0	0	0	24651	23260	142365	27320	1010777	42073	109106	0	0	8195	630947	0	0
2024-06-15 06:07:32			0	36138	0	0	0	24641	23270	142461	27265	1010813	42073	109102	0	0	8193	632068	0	0
2024-06-15 06:08:32			0	36121	0	0	0	24646	23260	142569	27274	1010742	42061	109104	0	0	8192	632833	0	0
2024-06-15 06:09:32			0	36121	0	0	0	24641	23250	142513	27088	1010725	42060	109102	0	0	8192	632869	0	0
2024-06-15 06:10:32			0	36102	0	0	0	24633	23260	142545	27112	1010715	42061	109099	0	0	8192	633649	0	0
2024-06-15 06:11:32			0	36079	0	0	0	24625	23240	142621	27561	1010716	42060	109096	0	0	8190	634709	0	0
2024-06-15 06:12:32			0	36069	0	0	0	24633	23240	142781	27029	1010716	42060	109099	0	0	8190	635139	0	0
2024-06-15 06:13:32			0	36073	0	0	0	24633	23250	142729	27183	1010698	42049	109099	0	0	8190	634931	0	0
2024-06-15 06:14:32			0	36051	0	0	0	24623	23250	142881	27268	1010698	42060	109095	0	0	8189	635878	0	0
2024-06-15 06:15:32			0	36028	0	0	0	24623	23250	142785	27353	1010698	42060	109095	0	0	8188	636869	0	0
2024-06-15 06:16:32			0	36033	0	0	0	24618	23240	142885	27360	1010681	42059	109093	0	0	8188	636690	0	0
2024-06-15 06:17:32			0	36030	0	0	0	24615	23230	143025	27327	1010664	42069	109092	0	0	8188	636855	0	0
2024-06-15 06:18:32			0	35994	0	0	0	24615	23240	142973	27357	1010601	42070	109092	0	0	8186	638372	0	0
2024-06-15 06:19:32			0	35991	0	0	0	24615	23240	142977	26955	1010628	42059	109092	0	0	8186	638502	0	0
2024-06-15 06:20:32			0	35990	0	0	0	24618	23230	143073	27457	1010566	42081	109093	0	0	8186	638581	0	0
2024-06-15 06:21:32			0	35967	0	0	0	24610	23230	143197	27324	1010637	42058	109090	0	0	8185	639575	0	0
2024-06-15 06:22:32			0	35951	0	0	0	24612	23220	143081	27078	1010629	42058	109091	0	0	8184	640303	0	0
2024-06-15 06:23:32			0	35936	0	0	0	24599	23220	143193	27320	1010514	42046	109086	0	0	8183	640953	0	0
2024-06-15 06:24:32			0	35926	0	0	0	24592	23210	143277	27512	1010532	42056	109083	0	0	8183	641422	0	0
2024-06-15 06:25:32			0	35937	0	0	0	24584	23220	143365	27102	1010514	42057	109080	0	0	8184	640909	0	0
2024-06-15 06:26:32			0	35906	0	0	0	24586	23200	143317	27332	1010515	42067	109081	0	0	8182	642325	0	0
2024-06-15 06:27:32			0	35895	0	0	0	24579	23210	143337	27178	1010523	42078	109078	0	0	8181	642766	0	0
2024-06-15 06:28:32			0	35881	0	0	0	24592	23210	143381	27019	1010558	42056	109083	0	0	8180	643374	0	0
2024-06-15 06:29:32			0	35890	0	0	0	24597	23220	143465	27287	1010594	42069	109085	0	0	8181	642947	0	0
2024-06-15 06:30:32			0	35854	0	0	0	24597	23210	143588	26883	1010603	42055	109085	0	0	8179	644547	0	0
2024-06-15 06:31:32			0	35854	0	0	0	24615	23210	143584	27426	1010612	42068	109092	0	0	8179	644547	0	0
2024-06-15 06:32:32			0	35852	0	0	0	24623	23220	143588	27206	1010656	42069	109095	0	0	8178	644598	0	0
2024-06-15 06:33:32			0	35855	0	0	0	24631	23230	143632	27144	1010718	42069	109098	0	0	8178	644431	0	0
2024-06-15 06:34:32			0	35830	0	0	0	24667	23240	143588	27353	1010850	42093	109112	0	0	8176	645483	0	0
2024-06-15 06:35:32			0	35816	0	0	0	24672	23250	143652	26946	1010920	42093	109114	0	0	8176	646056	0	0
2024-06-15 06:36:32			0	35814	0	0	0	24688	23260	143696	27293	1010964	42083	109120	0	0	8175	646107	0	0
2024-06-15 06:37:32			0	35810	0	0	0	24696	23270	143728	27229	1010946	42073	109123	0	0	8175	646245	0	0
2024-06-15 06:38:32			0	35797	0	0	0	24688	23270	143712	27300	1010928	42073	109120	0	0	8175	646812	0	0
2024-06-15 06:39:32			0	35794	0	0	0	24672	23280	143788	27249	1010883	42074	109114	0	0	8175	646906	0	0
2024-06-15 06:40:32			0	35780	0	0	0	24670	23280	143852	27301	1010856	42074	109113	0	0	8174	647517	0	0
2024-06-15 06:41:32			0	35784	0	0	0	24664	23260	143788	27140	1010884	42062	109111	0	0	8174	647415	0	0
2024-06-15 06:42:32			0	35796	0	0	0	24677	23270	143832	27258	1010901	42073	109116	0	0	8175	646855	0	0
2024-06-15 06:43:32			0	35770	0	0	0	24677	23280	143864	27421	1010865	42075	109116	0	0	8173	647953	0	0
2024-06-15 06:44:32			0	35773	0	0	0	24675	23280	143884	27377	1010892	42064	109115	0	0	8173	647822	0	0
2024-06-15 06:45:32			0	35773	0	0	0	24675	23280	143888	27152	1010918	42075	109115	0	0	8173	647822	0	0
2024-06-15 06:46:32			0	35764	0	0	0	24675	23280	143824	27372	1010918	42075	109115	0	0	8173	648215	0	0
2024-06-15 06:47:32			0	35766	0	0	0	24672	23280	143852	27119	1010865	42085	109114	0	0	8173	648127	0	0
2024-06-15 06:48:32			0	35768	0	0	0	24664	23280	143876	27440	1010892	42075	109111	0	0	8173	648040	0	0
2024-06-15 06:49:32			0	35757	0	0	0	24670	23270	143840	27171	1010875	42073	109113	0	0	8173	648557	0	0
2024-06-15 06:50:32			0	35760	0	0	0	24659	23270	143948	27229	1010839	42062	109109	0	0	8173	648426	0	0
2024-06-15 06:51:32			0	35743	0	0	0	24670	23280	144024	27142	1010963	42063	109113	0	0	8172	649132	0	0
2024-06-15 06:52:32			0	35752	0	0	0	24680	23280	143952	27242	1010998	42085	109117	0	0	8172	648739	0	0
2024-06-15 06:53:32			0	35749	0	0	0	24680	23290	143924	27329	1010900	42076	109117	0	0	8172	648833	0	0
2024-06-15 06:54:32			0	35748	0	0	0	24675	23280	143936	27135	1010972	42085	109115	0	0	8172	648913	0	0
2024-06-15 06:55:32			0	35750	0	0	0	24688	23300	143880	27383	1011024	42076	109120	0	0	8172	648753	0	0
2024-06-15 06:56:32			0	35761	0	0	0	24698	23300	143924	27284	1011059	42077	109124	0	0	8173	648273	0	0
2024-06-15 06:57:32			0	35754	0	0	0	24696	23300	143892	27322	1011051	42076	109123	0	0	8172	648579	0	0
2024-06-15 06:58:32			0	35754	0	0	0	24709	23300	143888	27111	1011006	42087	109128	0	0	8172	648579	0	0
2024-06-15 06:59:32			0	35751	0	0	0	24703	23300	143940	27235	1011024	42064	109126	0	0	8172	648710	0	0
2024-06-15 07:00:32			0	35741	0	0	0	24696	23300	143912	27265	1010971	42076	109123	0	0	8172	649147	0	0
2024-06-15 07:01:32			0	35762	0	0	0	24690	23300	143924	27448	1010944	42086	109121	0	0	8173	648229	0	0
2024-06-15 07:02:32			0	35758	0	0	0	24696	23290	143924	27013	1011042	42076	109123	0	0	8172	648440	0	0
2024-06-15 07:03:32			0	35756	0	0	0	24701	23300	143872	27348	1010979	42077	109125	0	0	8172	648491	0	0
2024-06-15 07:04:32			0	35769	0	0	0	24706	23290	143812	27279	1011042	42076	109127	0	0	8173	647960	0	0
2024-06-15 07:05:32			0	35768	0	0	0	24711	23310	143852	27111	1011050	42066	109129	0	0	8173	647931	0	0
2024-06-15 07:06:32			0	35759	0	0	0	24709	23310	143856	27215	1011076	42088	109128	0	0	8172	648324	0	0
2024-06-15 07:07:32			0	35758	0	0	0	24703	23310	143796	27126	1011050	42078	109126	0	0	8172	648368	0	0
2024-06-15 07:08:32			0	35774	0	0	0	24709	23300	143784	27341	1011033	42065	109128	0	0	8173	647706	0	0
2024-06-15 07:09:32			0	35772	0	0	0	24706	23310	143776	27300	1011068	42078	109127	0	0	8173	647756	0	0
2024-06-15 07:10:32			0	35778	0	0	0	24709	23300	143744	26830	1011113	42065	109128	0	0	8173	647531	0	0
2024-06-15 07:11:32			0	35797	0	0	0	24703	23310	143836	26913	1011076	42078	109126	0	0	8174	646666	0	0
2024-06-15 07:12:32			0	35780	0	0	0	24711	23310	143808	27203	1011050	42078	109129	0	0	8173	647408	0	0
2024-06-15 07:13:32			0	35793	0	0	0	24709	23310	143740	27147	1011103	42066	109128	0	0	8174	646841	0	0
2024-06-15 07:14:32			0	35785	0	0	0	24711	23300	143720	27128	1011033	42077	109129	0	0	8174	647226	0	0
2024-06-15 07:15:32			0	35785	0	0	0	24714	23310	143752	27093	1011103	42078	109130	0	0	8174	647189	0	0
2024-06-15 07:16:32			0	35782	0	0	0	24709	23300	143636	27270	1011033	42087	109128	0	0	8173	647356	0	0
2024-06-15 07:17:32			0	35801	0	0	0	24706	23310	143720	27008	1011014	42088	109127	0	0	8175	646492	0	0
2024-06-15 07:18:32			0	35816	0	0	0	24706	23310	143828	26811	1010996	42078	109127	0	0	8175	645838	0	0
2024-06-15 07:19:32			0	35818	0	0	0	24706	23310	143772	26993	1011076	42099	109127	0	0	8176	645751	0	0
2024-06-15 07:20:32			0	35811	0	0	0	24709	23310	143688	27235	1011068	42066	109128	0	0	8175	646056	0	0
2024-06-15 07:21:32			0	35820	0	0	0	24709	23300	143652	27313	1011059	42077	109128	0	0	8176	645701	0	0
2024-06-15 07:22:32			0	35838	0	0	0	24698	23320	143688	27043	1011059	42066	109124	0	0	8177	644845	0	0
2024-06-15 07:23:32			0	35836	0	0	0	24711	23310	143612	27185	1011014	42066	109129	0	0	8176	644968	0	0
2024-06-15 07:24:32			0	35826	0	0	0	24706	23310	143576	26856	1011076	42088	109127	0	0	8176	645403	0	0
2024-06-15 07:25:32			0	35845	0	0	0	24714	23310	143580	26620	1011050	42078	109130	0	0	8177	644577	0	0
2024-06-15 07:26:32			0	35857	0	0	0	24722	23320	143524	27298	1011112	42066	109133	0	0	8177	644019	0	0
2024-06-15 07:27:32			0	35841	0	0	0	24732	23320	143560	27116	1011112	42088	109137	0	0	8176	644715	0	0
2024-06-15 07:28:32			0	35850	0	0	0	24750	23330	143440	27062	1011191	42090	109144	0	0	8177	644287	0	0
2024-06-15 07:29:32			0	35848	0	0	0	24748	23320	143436	27081	1011165	42099	109143	0	0	8176	644410	0	0
2024-06-15 07:30:32			0	35864	0	0	0	24745	23330	143553	27171	1011244	42079	109142	0	0	8177	643679	0	0
2024-06-15 07:31:32			0	35886	0	0	0	24753	23340	143489	26949	1011173	42079	109145	0	0	8178	642687	0	0
2024-06-15 07:32:32			0	35869	0	0	0	24735	23330	143413	26849	1011111	42079	109138	0	0	8178	643462	0	0
2024-06-15 07:33:32			0	35878	0	0	0	24740	23340	143377	27140	1011146	42079	109140	0	0	8178	643035	0	0
2024-06-15 07:34:32			0	35874	0	0	0	24735	23330	143337	26944	1011164	42090	109138	0	0	8178	643244	0	0
2024-06-15 07:35:32			0	35892	0	0	0	24732	23340	143373	27201	1011253	42068	109137	0	0	8179	642427	0	0
2024-06-15 07:36:32			0	35905	0	0	0	24740	23330	143309	27026	1011129	42079	109140	0	0	8180	641900	0	0
2024-06-15 07:37:32			0	35887	0	0	0	24729	23340	143281	26982	1011173	42079	109136	0	0	8179	642644	0	0
2024-06-15 07:38:32			0	35923	0	0	0	24745	23330	143365	27135	1011164	42090	109142	0	0	8181	641120	0	0
2024-06-15 07:39:32			0	35928	0	0	0	24729	23340	143181	27312	1011146	42079	109136	0	0	8181	640867	0	0
2024-06-15 07:40:32			0	35928	0	0	0	24737	23330	143165	27341	1011164	42068	109139	0	0	8181	640903	0	0
2024-06-15 07:41:32			0	35947	0	0	0	24732	23340	143185	27286	1011128	42080	109137	0	0	8182	640045	0	0
2024-06-15 07:42:32			0	35954	0	0	0	24735	23340	143173	27244	1011146	42068	109138	0	0	8182	639742	0	0
2024-06-15 07:43:32			0	35948	0	0	0	24729	23330	143081	27225	1011138	42068	109136	0	0	8182	640037	0	0
2024-06-15 07:44:32			0	35953	0	0	0	24727	23340	143093	26968	1011199	42079	109135	0	0	8182	639785	0	0
2024-06-15 07:45:32			0	35979	0	0	0	24735	23330	143033	27185	1011164	42079	109138	0	0	8184	638697	0	0
2024-06-15 07:46:32			0	35974	0	0	0	24745	23330	142961	27256	1011191	42079	109142	0	0	8183	638913	0	0
2024-06-15 07:47:32			0	35978	0	0	0	24735	23340	142965	26998	1011235	42091	109138	0	0	8184	638705	0	0
2024-06-15 07:48:32			0	36016	0	0	0	24737	23340	142893	27218	1011226	42090	109139	0	0	8186	637065	0	0
2024-06-15 07:49:32			0	36014	0	0	0	24742	23340	142849	27566	1011199	42079	109141	0	0	8185	637151	0	0
2024-06-15 07:50:32			0	36018	0	0	0	24742	23350	142793	27391	1011243	42092	109141	0	0	8186	636943	0	0
2024-06-15 07:51:32			0	36013	0	0	0	24753	23340	142801	27386	1011235	42091	109145	0	0	8185	637194	0	0
2024-06-15 07:52:32			0	36048	0	0	0	24748	23340	142765	27646	1011261	42069	109143	0	0	8187	635686	0	0
2024-06-15 07:53:32			0	36049	0	0	0	24753	23330	142661	27270	1011164	42079	109145	0	0	8187	635679	0	0
2024-06-15 07:54:32			0	36057	0	0	0	24750	23340	142633	27097	1011235	42080	109144	0	0	8188	635299	0	0
2024-06-15 07:55:32			0	36062	0	0	0	24750	23340	142629	27391	1011235	42080	109144	0	0	8188	635084	0	0
2024-06-15 07:56:32			0	36091	0	0	0	24763	23350	142601	27443	1011305	42092	109149	0	0	8189	633801	0	0
2024-06-15 07:57:32			0	36088	0	0	0	24768	23350	142481	27429	1011297	42092	109151	0	0	8189	633930	0	0
2024-06-15 07:58:32			0	36122	0	0	0	24763	23350	142469	27407	1011305	42103	109149	0	0	8191	632470	0	0
2024-06-15 07:59:32			0	36105	0	0	0	24758	23350	142465	27029	1011278	42081	109147	0	0	8190	633200	0	0
2024-06-15 08:00:32			0	36143	0	0	0	24771	23360	142409	27180	1011340	42071	109152	0	0	8192	631535	0	0
2024-06-15 08:01:32			0	36146	0	0	0	24774	23360	142281	27440	1011322	42071	109153	0	0	8192	631406	0	0
2024-06-15 08:02:32			0	36148	0	0	0	24789	23360	142309	27234	1011376	42082	109159	0	0	8192	631320	0	0
2024-06-15 08:03:32			0	36176	0	0	0	24792	23370	142185	27326	1011358	42093	109160	0	0	8193	630086	0	0
2024-06-15 08:04:32			0	36204	0	0	0	24794	23380	142145	27254	1011437	42083	109161	0	0	8195	628854	0	0
2024-06-15 08:05:32			0	36203	0	0	0	24810	23380	142145	27390	1011410	42083	109167	0	0	8195	628897	0	0
2024-06-15 08:06:32			0	36225	0	0	0	24807	23380	142077	27286	1011455	42083	109166	0	0	8196	627957	0	0
2024-06-15 08:07:32			0	36250	0	0	0	24812	23370	141985	27312	1011419	42106	109168	0	0	8197	626926	0	0
2024-06-15 08:08:32			0	36276	0	0	0	24799	23380	141845	27509	1011410	42083	109163	0	0	8199	625783	0	0
2024-06-15 08:09:32			0	36261	0	0	0	24794	23380	141905	27223	1011410	42083	109161	0	0	8198	626422	0	0
2024-06-15 08:10:32			0	36279	0	0	0	24794	23380	141777	27338	1011356	42083	109161	0	0	8199	625656	0	0
2024-06-15 08:11:32			0	36297	0	0	0	24789	23380	141769	27126	1011383	42083	109159	0	0	8200	624890	0	0
2024-06-15 08:12:32			0	36327	0	0	0	24789	23380	141617	27123	1011463	42083	109159	0	0	8201	623615	0	0
2024-06-15 08:13:32			0	36348	0	0	0	24794	23380	141521	27405	1011437	42094	109161	0	0	8202	622723	0	0
2024-06-15 08:14:32			0	36340	0	0	0	24794	23380	141501	27280	1011375	42094	109161	0	0	8202	623063	0	0
2024-06-15 08:15:32			0	36377	0	0	0	24794	23380	141301	27220	1011455	42094	109161	0	0	8204	621494	0	0
2024-06-15 08:16:32			0	36376	0	0	0	24792	23380	141285	27249	1011463	42083	109160	0	0	8204	621536	0	0
2024-06-15 08:17:32			0	36417	0	0	0	24799	23380	141193	27201	1011437	42073	109163	0	0	8206	619800	0	0
2024-06-15 08:18:32			0	36449	0	0	0	24797	23390	141157	27230	1011499	42084	109162	0	0	8208	618413	0	0
2024-06-15 08:19:32			0	36480	0	0	0	24812	23400	141045	27256	1011489	42085	109168	0	0	8209	617071	0	0
2024-06-15 08:20:32			0	36496	0	0	0	24807	23410	140997	27176	1011479	42086	109166	0	0	8210	616362	0	0
2024-06-15 08:21:32			0	36510	0	0	0	24818	23390	140877	27390	1011472	42095	109170	0	0	8211	615841	0	0
2024-06-15 08:22:32			0	36525	0	0	0	24807	23400	140713	27357	1011516	42096	109166	0	0	8212	615175	0	0
2024-06-15 08:23:32			0	36577	0	0	0	24812	23390	140701	27377	1011427	42107	109168	0	0	8214	613025	0	0
2024-06-15 08:24:32			0	36610	0	0	0	24815	23390	140438	27339	1011534	42096	109169	0	0	8216	611641	0	0
2024-06-15 08:25:32			0	36614	0	0	0	24812	23390	140422	27119	1011507	42096	109168	0	0	8216	611473	0	0
2024-06-15 08:26:32			0	36662	0	0	0	24812	23400	140358	27105	1011489	42096	109168	0	0	8219	609430	0	0
2024-06-15 08:27:32			0	36675	0	0	0	24807	23390	140238	27017	1011507	42107	109166	0	0	8220	608921	0	0
2024-06-15 08:28:32			0	36733	0	0	0	24807	23420	140138	27341	1011523	42098	109166	0	0	8223	606399	0	0
2024-06-15 08:29:32			0	36736	0	0	0	24812	23400	140046	27178	1011497	42085	109168	0	0	8223	606342	0	0
2024-06-15 08:30:32			0	36762	0	0	0	24810	23400	139890	27177	1011542	42096	109167	0	0	8224	605260	0	0
2024-06-15 08:31:32			0	36782	0	0	0	24812	23410	139758	27355	1011488	42076	109168	0	0	8225	604394	0	0
2024-06-15 08:32:32			0	36824	0	0	0	24812	23410	139810	27535	1011541	42098	109168	0	0	8227	602650	0	0
2024-06-15 08:33:32			0	36833	0	0	0	24815	23400	139602	27248	1011489	42096	109169	0	0	8228	602311	0	0
2024-06-15 08:34:32			0	36864	0	0	0	24810	23410	139498	27357	1011479	42097	109167	0	0	8230	600993	0	0
2024-06-15 08:35:32			0	36891	0	0	0	24810	23400	139418	27149	1011471	42096	109167	0	0	8231	599909	0	0
2024-06-15 08:36:32			0	36909	0	0	0	24805	23410	139374	27263	1011541	42098	109165	0	0	8232	599131	0	0
2024-06-15 08:37:32			0	36908	0	0	0	24807	23400	139298	27417	1011462	42096	109166	0	0	8232	599206	0	0
2024-06-15 08:38:32			0	36961	0	0	0	24805	23400	139186	27177	1011489	42096	109165	0	0	8235	597019	0	0
2024-06-15 08:39:32			0	36963	0	0	0	24805	23400	139170	27085	1011462	42096	109165	0	0	8235	596936	0	0
2024-06-15 08:40:32			0	36994	0	0	0	24807	23410	139118	27296	1011568	42098	109166	0	0	8236	595626	0	0
2024-06-15 08:41:32			0	37008	0	0	0	24815	23400	139086	27478	1011497	42096	109169	0	0	8237	595083	0	0
2024-06-15 08:42:32			0	37018	0	0	0	24812	23400	138978	27071	1011516	42096	109168	0	0	8237	594672	0	0
2024-06-15 08:43:32			0	37044	0	0	0	24818	23410	138918	26892	1011533	42108	109170	0	0	8239	593571	0	0
2024-06-15 08:44:32			0	37066	0	0	0	24818	23410	138934	26930	1011515	42098	109170	0	0	8240	592668	0	0
2024-06-15 08:45:32			0	37077	0	0	0	24818	23400	138878	27086	1011542	42096	109170	0	0	8240	592250	0	0
2024-06-15 08:46:32			0	37074	0	0	0	24820	23410	138806	27253	1011533	42097	109171	0	0	8240	592339	0	0
2024-06-15 08:47:32			0	37097	0	0	0	24825	23410	138690	27377	1011621	42098	109173	0	0	8241	591397	0	0
2024-06-15 08:48:32			0	37094	0	0	0	24823	23420	138730	27258	1011550	42109	109172	0	0	8241	591486	0	0
2024-06-15 08:49:32			0	37114	0	0	0	24820	23410	138730	27209	1011613	42097	109171	0	0	8242	590701	0	0
2024-06-15 08:50:32			0	37129	0	0	0	24825	23410	138718	27417	1011568	42098	109173	0	0	8243	590087	0	0
2024-06-15 08:51:32			0	37129	0	0	0	24828	23420	138570	27246	1011585	42099	109174	0	0	8243	590054	0	0
2024-06-15 08:52:32			0	37142	0	0	0	24818	23400	138618	27248	1011596	42096	109170	0	0	8244	589589	0	0
2024-06-15 08:53:32			0	37149	0	0	0	24825	23420	138578	27405	1011496	42087	109173	0	0	8244	589236	0	0
2024-06-15 08:54:32			0	37146	0	0	0	24815	23410	138538	27268	1011479	42086	109169	0	0	8244	589392	0	0
2024-06-15 08:55:32			0	37149	0	0	0	24815	23420	138446	27602	1011576	42087	109169	0	0	8244	589236	0	0
2024-06-15 08:56:32			0	37155	0	0	0	24810	23410	138402	27289	1011568	42098	109167	0	0	8245	589024	0	0
2024-06-15 08:57:32			0	37160	0	0	0	24818	23420	138454	27208	1011523	42087	109170	0	0	8245	588787	0	0
2024-06-15 08:58:32			0	37167	0	0	0	24812	23410	138518	27272	1011506	42097	109168	0	0	8245	588534	0	0
2024-06-15 08:59:32			0	37173	0	0	0	24810	23410	138466	27362	1011541	42087	109167	0	0	8246	588289	0	0
2024-06-15 09:00:32			0	37207	0	0	0	24805	23410	138398	27307	1011506	42097	109165	0	0	8248	586903	0	0
2024-06-15 09:01:32			0	37177	0	0	0	24812	23410	138382	27260	1011568	42098	109168	0	0	8246	588126	0	0
2024-06-15 09:02:32			0	37218	0	0	0	24818	23410	138358	26939	1011541	42087	109170	0	0	8248	586454	0	0
2024-06-15 09:03:32			0	37199	0	0	0	24820	23410	138386	27197	1011648	42098	109171	0	0	8247	587229	0	0
2024-06-15 09:04:32			0	37199	0	0	0	24818	23410	138394	27208	1011613	42097	109170	0	0	8247	587229	0	0
2024-06-15 09:05:32			0	37194	0	0	0	24823	23410	138350	27190	1011621	42098	109172	0	0	8247	587433	0	0
2024-06-15 09:06:32			0	37202	0	0	0	24836	23410	138414	27237	1011586	42097	109177	0	0	8247	587106	0	0
2024-06-15 09:07:32			0	37196	0	0	0	24844	23420	138318	27319	1011603	42109	109180	0	0	8246	587318	0	0
2024-06-15 09:08:32			0	37206	0	0	0	24846	23430	138238	27374	1011674	42099	109181	0	0	8247	586877	0	0
2024-06-15 09:09:32			0	37222	0	0	0	24838	23430	138366	27267	1011647	42122	109178	0	0	8248	586226	0	0
2024-06-15 09:10:32			0	37212	0	0	0	24846	23420	138342	26951	1011683	42098	109181	0	0	8247	586666	0	0
2024-06-15 09:11:32			0	37218	0	0	0	24851	23430	138214	27341	1011656	42089	109183	0	0	8247	586389	0	0
2024-06-15 09:12:32			0	37199	0	0	0	24849	23440	138310	27298	1011718	42111	109182	0	0	8247	587130	0	0
2024-06-15 09:13:32			0	37210	0	0	0	24849	23430	138306	27092	1011656	42100	109182	0	0	8247	586714	0	0
2024-06-15 09:14:32			0	37211	0	0	0	24846	23440	138274	27272	1011664	42089	109181	0	0	8247	586641	0	0
2024-06-15 09:15:32			0	37226	0	0	0	24857	23440	138322	27326	1011771	42111	109185	0	0	8248	586030	0	0
2024-06-15 09:16:32			0	37239	0	0	0	24857	23440	138254	27538	1011780	42089	109185	0	0	8248	585501	0	0
2024-06-15 09:17:32			0	37222	0	0	0	24862	23450	138254	27282	1011788	42101	109187	0	0	8248	586160	0	0
2024-06-15 09:18:32			0	37233	0	0	0	24857	23450	138218	27268	1011762	42101	109185	0	0	8248	585712	0	0
2024-06-15 09:19:32			0	37230	0	0	0	24867	23450	138218	27031	1011735	42112	109189	0	0	8248	585834	0	0
2024-06-15 09:20:32			0	37202	0	0	0	24864	23460	138338	27331	1011832	42103	109188	0	0	8246	586941	0	0
2024-06-15 09:21:32			0	37237	0	0	0	24872	23460	138234	27218	1011805	42114	109191	0	0	8248	585516	0	0
2024-06-15 09:22:32			0	37252	0	0	0	24880	23460	138250	27102	1011886	42114	109194	0	0	8249	584906	0	0
2024-06-15 09:23:32			0	37238	0	0	0	24875	23470	138142	27015	1011849	42103	109192	0	0	8248	585443	0	0
2024-06-15 09:24:32			0	37218	0	0	0	24883	23470	138206	27410	1011823	42125	109195	0	0	8247	586257	0	0
2024-06-15 09:25:32			0	37228	0	0	0	24883	23470	138170	27440	1011894	42114	109195	0	0	8248	585850	0	0
2024-06-15 09:26:32			0	37241	0	0	0	24888	23470	138266	27312	1011849	42103	109197	0	0	8248	585321	0	0
2024-06-15 09:27:32			0	37235	0	0	0	24883	23470	138202	27229	1011867	42114	109195	0	0	8248	585565	0	0
2024-06-15 09:28:32			0	37239	0	0	0	24888	23480	138202	27145	1011893	42104	109197	0	0	8248	585369	0	0
2024-06-15 09:29:32			0	37226	0	0	0	24896	23470	138230	27377	1011903	42103	109200	0	0	8247	585931	0	0
2024-06-15 09:30:32			0	37238	0	0	0	24898	23480	138234	27353	1011938	42092	109201	0	0	8248	585410	0	0
2024-06-15 09:31:32			0	37248	0	0	0	24890	23490	138214	27320	1011928	42104	109198	0	0	8249	584970	0	0
2024-06-15 09:32:32			0	37241	0	0	0	24898	23480	138270	27260	1011893	42093	109201	0	0	8248	585288	0	0
2024-06-15 09:33:32			0	37237	0	0	0	24901	23500	138246	27109	1011972	42105	109202	0	0	8248	585385	0	0
2024-06-15 09:34:32			0	37255	0	0	0	24903	23500	138186	26944	1011972	42127	109203	0	0	8249	584653	0	0
2024-06-15 09:35:32			0	37225	0	0	0	24896	23500	138222	27168	1011919	42105	109200	0	0	8247	585873	0	0
2024-06-15 09:36:32			0	37241	0	0	0	24898	23490	138278	27150	1011928	42104	109201	0	0	8248	585255	0	0
2024-06-15 09:37:32			0	37248	0	0	0	24890	23490	138258	27135	1011902	42104	109198	0	0	8249	584970	0	0
2024-06-15 09:38:32			0	37239	0	0	0	24885	23490	138178	27395	1011928	42104	109196	0	0	8248	585336	0	0
2024-06-15 09:39:32			0	37241	0	0	0	24883	23500	138122	27298	1011945	42105	109195	0	0	8248	585222	0	0
2024-06-15 09:40:32			0	37225	0	0	0	24885	23470	138214	27355	1011867	42103	109196	0	0	8247	585972	0	0
2024-06-15 09:41:32			0	37236	0	0	0	24890	23480	138126	27308	1011911	42103	109198	0	0	8248	585491	0	0
2024-06-15 09:42:32			0	37236	0	0	0	24885	23480	138206	27225	1011831	42103	109196	0	0	8248	585491	0	0
2024-06-15 09:43:32			0	37245	0	0	0	24888	23490	138210	27062	1011955	42104	109197	0	0	8248	585092	0	0
2024-06-15 09:44:32			0	37238	0	0	0	24903	23490	138214	27307	1011902	42116	109203	0	0	8248	585377	0	0
2024-06-15 09:45:32			0	37244	0	0	0	24903	23490	138150	27343	1011937	42105	109203	0	0	8248	585133	0	0
2024-06-15 09:46:32			0	37240	0	0	0	24903	23490	138206	27339	1011955	42104	109203	0	0	8248	585295	0	0
2024-06-15 09:47:32			0	37233	0	0	0	24906	23490	138202	27317	1011990	42117	109204	0	0	8248	585580	0	0
2024-06-15 09:48:32			0	37238	0	0	0	24906	23500	138218	27306	1012025	42105	109204	0	0	8248	585344	0	0
2024-06-15 09:49:32			0	37250	0	0	0	24914	23500	138238	27346	1011999	42117	109207	0	0	8248	584856	0	0
2024-06-15 09:50:32			0	37249	0	0	0	24922	23510	138154	27272	1012051	42107	109210	0	0	8248	584864	0	0
2024-06-15 09:51:32			0	37260	0	0	0	24932	23500	138158	27187	1012034	42106	109214	0	0	8249	584450	0	0
2024-06-15 09:52:32			0	37248	0	0	0	24922	23510	138126	27131	1012078	42118	109210	0	0	8248	584904	0	0
2024-06-15 09:53:32			0	37248	0	0	0	24929	23520	138182	27241	1012086	42107	109213	0	0	8248	584871	0	0
2024-06-15 09:54:32			0	37242	0	0	0	24932	23510	138130	27462	1012024	42118	109214	0	0	8248	585148	0	0
2024-06-15 09:55:32			0	37253	0	0	0	24932	23520	138134	27315	1012122	42130	109214	0	0	8248	584668	0	0
2024-06-15 09:56:32			0	37251	0	0	0	24935	23520	138114	27071	1012122	42108	109215	0	0	8248	584750	0	0
2024-06-15 09:57:32			0	37240	0	0	0	24942	23520	138042	27391	1012140	42107	109218	0	0	8247	585197	0	0
2024-06-15 09:58:32			0	37246	0	0	0	24945	23530	138206	27360	1012157	42108	109219	0	0	8248	584920	0	0
2024-06-15 09:59:32			0	37234	0	0	0	24948	23530	138126	27209	1012192	42120	109220	0	0	8247	585408	0	0
2024-06-15 10:00:32			0	37259	0	0	0	24953	23530	138110	27467	1012192	42120	109222	0	0	8248	584392	0	0
2024-06-15 10:01:32			0	37252	0	0	0	24958	23540	138126	27215	1012201	42110	109224	0	0	8248	584643	0	0
2024-06-15 10:02:32			0	37261	0	0	0	24966	23540	138178	27072	1012263	42110	109227	0	0	8248	584277	0	0
2024-06-15 10:03:32			0	37271	0	0	0	24966	23550	138138	26984	1012271	42110	109227	0	0	8249	583839	0	0
2024-06-15 10:04:32			0	37258	0	0	0	24971	23550	138130	27481	1012245	42121	109229	0	0	8248	584367	0	0
2024-06-15 10:05:32			0	37250	0	0	0	24968	23550	138074	27118	1012280	42111	109228	0	0	8248	584692	0	0
2024-06-15 10:06:32			0	37264	0	0	0	24981	23560	138062	27396	1012315	42133	109233	0	0	8248	584090	0	0
2024-06-15 10:07:32			0	37256	0	0	0	24986	23570	138090	27168	1012332	42113	109235	0	0	8248	584382	0	0
2024-06-15 10:08:32			0	37274	0	0	0	24994	23560	138022	27293	1012350	42123	109238	0	0	8248	583684	0	0
2024-06-15 10:09:32			0	37260	0	0	0	24999	23570	138094	27441	1012394	42113	109240	0	0	8248	584220	0	0
2024-06-15 10:10:32			0	37271	0	0	0	24997	23570	138086	27149	1012368	42124	109239	0	0	8248	583773	0	0
2024-06-15 10:11:32			0	37268	0	0	0	24999	23580	138090	27246	1012323	42114	109240	0	0	8248	583862	0	0
2024-06-15 10:12:32			0	37284	0	0	0	24997	23570	138118	27476	1012359	42113	109239	0	0	8249	583245	0	0
2024-06-15 10:13:32			0	37272	0	0	0	24997	23580	138062	27067	1012412	42125	109239	0	0	8248	583699	0	0
2024-06-15 10:14:32			0	37266	0	0	0	24999	23580	138146	27145	1012430	42114	109240	0	0	8248	583943	0	0
2024-06-15 10:15:32			0	37285	0	0	0	25002	23570	138110	27130	1012368	42113	109241	0	0	8249	583205	0	0
2024-06-15 10:16:32			0	37273	0	0	0	24992	23590	138062	27152	1012420	42114	109237	0	0	8249	583626	0	0
2024-06-15 10:17:32			0	37296	0	0	0	24997	23580	138114	27421	1012465	42114	109239	0	0	8250	582726	0	0
2024-06-15 10:18:32			0	37269	0	0	0	24994	23580	138110	27287	1012385	42102	109238	0	0	8248	583821	0	0
2024-06-15 10:19:32			0	37277	0	0	0	24992	23590	138142	27234	1012429	42125	109237	0	0	8249	583464	0	0
2024-06-15 10:20:32			0	37282	0	0	0	24994	23590	138026	27443	1012429	42114	109238	0	0	8249	583261	0	0
2024-06-15 10:21:32			0	37287	0	0	0	24994	23590	138042	27483	1012376	42125	109238	0	0	8249	583058	0	0
2024-06-15 10:22:32			0	37275	0	0	0	25005	23590	137982	27410	1012474	42136	109242	0	0	8248	583545	0	0
2024-06-15 10:23:32			0	37284	0	0	0	25002	23600	137974	26955	1012491	42126	109241	0	0	8249	583147	0	0
2024-06-15 10:24:32			0	37294	0	0	0	25023	23600	137982	27241	1012438	42115	109249	0	0	8249	582741	0	0
2024-06-15 10:25:32			0	37266	0	0	0	25018	23610	138134	27327	1012535	42138	109247	0	0	8248	583845	0	0
2024-06-15 10:26:32			0	37299	0	0	0	25023	23610	138038	27296	1012517	42127	109249	0	0	8249	582506	0	0
2024-06-15 10:27:32			0	37298	0	0	0	25020	23600	137998	27248	1012446	42127	109248	0	0	8249	582579	0	0
2024-06-15 10:28:32			0	37308	0	0	0	25020	23610	137942	27024	1012508	42127	109248	0	0	8250	582141	0	0
2024-06-15 10:29:32			0	37303	0	0	0	25015	23610	137930	26871	1012481	42127	109246	0	0	8250	582344	0	0
2024-06-15 10:30:32			0	37300	0	0	0	25023	23610	138006	27360	1012437	42138	109249	0	0	8250	582465	0	0
2024-06-15 10:31:32			0	37296	0	0	0	25023	23610	138026	27277	1012543	42138	109249	0	0	8249	582627	0	0
2024-06-15 10:32:32			0	37305	0	0	0	25015	23600	137966	27119	1012580	42127	109246	0	0	8250	582295	0	0
2024-06-15 10:33:32			0	37313	0	0	0	25046	23610	137998	27071	1012588	42127	109258	0	0	8250	581938	0	0
2024-06-15 10:34:32			0	37327	0	0	0	25044	23620	137831	27203	1012721	42128	109257	0	0	8251	581339	0	0
2024-06-15 10:35:32			0	37308	0	0	0	25059	23630	137914	27338	1012649	42128	109263	0	0	8249	582076	0	0
2024-06-15 10:36:32			0	37325	0	0	0	25070	23630	137847	27334	1012711	42128	109267	0	0	8250	581387	0	0
2024-06-15 10:37:32			0	37310	0	0	0	25072	23630	137886	27367	1012658	42118	109268	0	0	8249	581994	0	0
2024-06-15 10:38:32			0	37317	0	0	0	25062	23640	137891	27253	1012613	42119	109264	0	0	8250	581678	0	0
2024-06-15 10:39:32			0	37337	0	0	0	25057	23650	137887	26934	1012710	42130	109262	0	0	8251	580836	0	0
2024-06-15 10:40:32			0	37328	0	0	0	25059	23640	137799	27083	1012640	42141	109263	0	0	8251	581233	0	0
2024-06-15 10:41:32			0	37320	0	0	0	25062	23640	137871	27419	1012666	42141	109264	0	0	8250	581557	0	0
2024-06-15 10:42:32			0	37336	0	0	0	25075	23640	137819	27241	1012755	42130	109269	0	0	8251	580909	0	0
2024-06-15 10:43:32			0	37329	0	0	0	25083	23660	137743	27281	1012807	42121	109272	0	0	8250	581127	0	0
2024-06-15 10:44:32			0	37334	0	0	0	25080	23650	137795	27036	1012772	42142	109271	0	0	8251	580957	0	0
2024-06-15 10:45:32			0	37345	0	0	0	25090	23660	137735	27053	1012834	42131	109275	0	0	8251	580480	0	0
2024-06-15 10:46:32			0	37341	0	0	0	25101	23660	137747	26968	1012789	42132	109279	0	0	8251	580642	0	0
2024-06-15 10:47:32			0	37343	0	0	0	25088	23660	137667	27367	1012807	42131	109274	0	0	8251	580561	0	0
2024-06-15 10:48:32			0	37349	0	0	0	25090	23660	137703	27114	1012700	42142	109275	0	0	8251	580318	0	0
2024-06-15 10:49:32			0	37334	0	0	0	25077	23660	137699	27497	1012816	42122	109270	0	0	8251	580925	0	0
2024-06-15 10:50:32			0	37361	0	0	0	25088	23670	137691	27355	1012798	42133	109274	0	0	8252	579800	0	0
2024-06-15 10:51:32			0	37385	0	0	0	25098	23680	137639	27422	1012868	42144	109278	0	0	8253	578799	0	0
2024-06-15 10:52:32			0	37357	0	0	0	25098	23680	137671	27478	1012842	42123	109278	0	0	8252	579929	0	0
2024-06-15 10:53:32			0	37355	0	0	0	25109	23680	137619	27317	1012922	42144	109282	0	0	8251	580010	0	0
2024-06-15 10:54:32			0	37370	0	0	0	25114	23680	137631	27324	1012903	42134	109284	0	0	8252	579404	0	0
2024-06-15 10:55:32			0	37360	0	0	0	25114	23690	137691	27422	1012912	42125	109284	0	0	8251	579775	0	0
2024-06-15 10:56:32			0	37368	0	0	0	25103	23680	137611	27381	1012903	42145	109280	0	0	8252	579485	0	0
2024-06-15 10:57:32			0	37366	0	0	0	25103	23690	137599	27086	1012886	42146	109280	0	0	8252	579533	0	0
2024-06-15 10:58:32			0	37371	0	0	0	25109	23680	137515	27170	1012930	42124	109282	0	0	8252	579364	0	0
2024-06-15 10:59:32			0	37381	0	0	0	25103	23680	137643	27261	1012903	42124	109280	0	0	8253	578960	0	0
2024-06-15 11:00:32			0	37380	0	0	0	25114	23690	137519	27300	1012948	42135	109284	0	0	8253	578968	0	0
2024-06-15 11:01:32			0	37394	0	0	0	25114	23690	137615	27291	1012993	42135	109284	0	0	8253	578403	0	0
2024-06-15 11:02:32			0	37391	0	0	0	25122	23700	137583	27144	1012983	42125	109287	0	0	8253	578491	0	0
2024-06-15 11:03:32			0	37388	0	0	0	25122	23700	137635	27229	1012956	42146	109287	0	0	8253	578612	0	0
2024-06-15 11:04:32			0	37376	0	0	0	25111	23700	137635	26981	1012956	42135	109283	0	0	8252	579097	0	0
2024-06-15 11:05:32			0	37380	0	0	0	25119	23700	137531	27374	1012983	42135	109286	0	0	8252	578935	0	0
2024-06-15 11:06:32			0	37399	0	0	0	25124	23700	137571	27353	1013010	42135	109288	0	0	8253	578168	0	0
2024-06-15 11:07:32			0	37398	0	0	0	25137	23710	137567	27270	1013035	42137	109293	0	0	8253	578176	0	0
2024-06-15 11:08:32			0	37397	0	0	0	25140	23710	137571	27324	1013035	42148	109294	0	0	8253	578217	0	0
2024-06-15 11:09:32			0	37416	0	0	0	25155	23720	137435	27351	1013071	42137	109300	0	0	8254	577418	0	0
2024-06-15 11:10:32			0	37400	0	0	0	25166	23730	137475	27121	1013114	42127	109304	0	0	8253	578030	0	0
2024-06-15 11:11:32			0	37414	0	0	0	25168	23720	137415	27416	1013133	42149	109305	0	0	8253	577499	0	0
2024-06-15 11:12:32			0	37435	0	0	0	25166	23730	137399	27112	1013150	42151	109304	0	0	8255	576620	0	0
2024-06-15 11:13:32			0	37463	0	0	0	25163	23740	137351	27326	1013185	42162	109303	0	0	8256	575461	0	0
2024-06-15 11:14:32			0	37438	0	0	0	25173	23730	137311	27282	1013176	42162	109307	0	0	8255	576500	0	0
2024-06-15 11:15:32			0	37466	0	0	0	25176	23750	137275	26838	1013194	42151	109308	0	0	8256	575308	0	0
2024-06-15 11:16:32			0	37466	0	0	0	25186	23750	137179	27190	1013229	42140	109312	0	0	8256	575308	0	0
2024-06-15 11:17:32			0	37489	0	0	0	25184	23750	137235	27419	1013220	42139	109311	0	0	8257	574385	0	0
2024-06-15 11:18:32			0	37492	0	0	0	25192	23750	137111	27308	1013175	42152	109314	0	0	8257	574264	0	0
2024-06-15 11:19:32			0	37512	0	0	0	25184	23760	137063	27384	1013237	42153	109311	0	0	8258	573429	0	0
2024-06-15 11:20:32			0	37562	0	0	0	25186	23760	136987	27396	1013211	42153	109312	0	0	8261	571426	0	0
2024-06-15 11:21:32			0	37557	0	0	0	25194	23760	136923	27313	1013219	42164	109315	0	0	8261	571626	0	0
2024-06-15 11:22:32			0	37552	0	0	0	25194	23770	136999	27194	1013281	42141	109315	0	0	8260	571794	0	0
2024-06-15 11:23:32			0	37576	0	0	0	25181	23770	136907	26993	1013228	42153	109310	0	0	8262	570834	0	0
2024-06-15 11:24:32			0	37577	0	0	0	25197	23780	136811	27357	1013253	42154	109316	0	0	8262	570761	0	0
2024-06-15 11:25:32			0	37607	0	0	0	25207	23780	136795	27336	1013378	42154	109320	0	0	8263	569563	0	0
2024-06-15 11:26:32			0	37624	0	0	0	25199	23780	136759	27319	1013325	42154	109317	0	0	8264	568884	0	0
2024-06-15 11:27:32			0	37625	0	0	0	25205	23770	136583	27227	1013281	42141	109319	0	0	8264	568876	0	0
2024-06-15 11:28:32			0	37632	0	0	0	25210	23780	136559	27192	1013352	42154	109321	0	0	8264	568565	0	0
2024-06-15 11:29:32			0	37664	0	0	0	25223	23780	136507	27398	1013360	42132	109326	0	0	8266	567289	0	0
2024-06-15 11:30:32			0	37689	0	0	0	25231	23790	136467	27303	1013404	42144	109329	0	0	8267	566262	0	0
2024-06-15 11:31:32			0	37686	0	0	0	25225	23800	136491	27152	1013386	42156	109327	0	0	8267	566350	0	0
2024-06-15 11:32:32			0	37712	0	0	0	25231	23800	136411	27486	1013413	42145	109329	0	0	8268	565316	0	0
2024-06-15 11:33:32			0	37703	0	0	0	25236	23810	136339	27105	1013465	42167	109331	0	0	8268	565642	0	0
2024-06-15 11:34:32			0	37713	0	0	0	25246	23800	136343	27391	1013573	42156	109335	0	0	8268	565276	0	0
2024-06-15 11:35:32			0	37736	0	0	0	25272	23820	136303	27270	1013661	42158	109345	0	0	8269	564299	0	0
2024-06-15 11:36:32			0	37702	0	0	0	25288	23830	136415	27275	1013732	42159	109351	0	0	8267	565618	0	0
2024-06-15 11:37:32			0	37707	0	0	0	25298	23830	136339	27431	1013740	42148	109355	0	0	8267	565419	0	0
2024-06-15 11:38:32			0	37742	0	0	0	25309	23840	136411	27294	1013811	42171	109359	0	0	8269	563997	0	0
2024-06-15 11:39:32			0	37719	0	0	0	25335	23850	136331	27336	1013801	42161	109369	0	0	8267	564879	0	0
2024-06-15 11:40:32			0	37701	0	0	0	25329	23860	136255	27371	1013863	42162	109367	0	0	8266	565562	0	0
2024-06-15 11:41:32			0	37721	0	0	0	25332	23860	136315	27310	1013872	42163	109368	0	0	8267	564767	0	0
2024-06-15 11:42:32			0	37713	0	0	0	25335	23870	136231	27163	1013835	42174	109369	0	0	8267	565053	0	0
2024-06-15 11:43:32			0	37732	0	0	0	25332	23880	136271	27466	1013844	42174	109368	0	0	8268	564267	0	0
2024-06-15 11:44:32			0	37738	0	0	0	25340	23880	136303	27417	1013844	42164	109371	0	0	8268	564029	0	0
2024-06-15 11:45:32			0	37720	0	0	0	25342	23890	136143	27303	1013950	42165	109372	0	0	8267	564712	0	0
2024-06-15 11:46:32			0	37737	0	0	0	25361	23900	136235	27197	1013985	42165	109379	0	0	8268	564005	0	0
2024-06-15 11:47:32			0	37751	0	0	0	25368	23900	136175	27403	1014020	42166	109382	0	0	8268	563450	0	0
2024-06-15 11:48:32			0	37735	0	0	0	25368	23920	136159	27281	1014055	42190	109382	0	0	8268	564021	0	0
2024-06-15 11:49:32			0	37734	0	0	0	25348	23910	136107	27386	1013842	42156	109374	0	0	8268	564092	0	0
2024-06-15 11:50:32			0	37748	0	0	0	25314	23890	136327	27588	1013709	42154	109361	0	0	8269	563601	0	0
2024-06-15 11:51:32			0	37764	0	0	0	25272	23890	136135	27213	1013701	42154	109345	0	0	8271	562966	0	0
2024-06-15 11:52:32			0	37772	0	0	0	25257	23890	136087	27479	1013754	42165	109339	0	0	8271	562649	0	0
2024-06-15 11:53:32			0	37786	0	0	0	25270	23880	135967	26870	1013799	42175	109344	0	0	8272	562127	0	0
2024-06-15 11:54:32			0	37792	0	0	0	25275	23890	135963	27528	1013808	42154	109346	0	0	8272	561857	0	0
2024-06-15 11:55:32			0	37798	0	0	0	25272	23880	135951	27227	1013817	42164	109345	0	0	8272	561652	0	0
2024-06-15 11:56:32			0	37818	0	0	0	25285	23880	135883	27182	1013879	42175	109350	0	0	8273	560861	0	0
2024-06-15 11:57:32			0	37797	0	0	0	25298	23900	135963	27618	1013878	42187	109355	0	0	8272	561628	0	0
2024-06-15 11:58:32			0	37780	0	0	0	25316	23890	136083	27409	1013923	42165	109362	0	0	8271	562333	0	0
2024-06-15 11:59:32			0	37763	0	0	0	25327	23900	136099	27460	1013985	42165	109366	0	0	8270	562974	0	0
2024-06-15 12:00:32			0	37754	0	0	0	25345	23900	136163	27552	1013994	42188	109373	0	0	8269	563331	0	0
2024-06-15 12:01:32			0	37760	0	0	0	25353	23910	136095	27020	1014091	42178	109376	0	0	8269	563062	0	0
2024-06-15 12:02:32			0	37739	0	0	0	25371	23920	136171	27538	1014081	42167	109383	0	0	8268	563862	0	0
2024-06-15 12:03:32			0	37770	0	0	0	25381	23930	136191	27067	1014197	42168	109387	0	0	8269	562602	0	0
2024-06-15 12:04:32			0	37776	0	0	0	25389	23930	136039	27253	1014232	42191	109390	0	0	8269	562364	0	0
2024-06-15 12:05:32			0	37786	0	0	0	25402	23940	136151	27441	1014223	42169	109395	0	0	8270	561937	0	0
2024-06-15 12:06:32			0	37807	0	0	0	25376	23950	135935	27168	1014125	42170	109385	0	0	8271	561074	0	0
2024-06-15 12:07:32			0	37790	0	0	0	25371	23950	136055	27336	1014151	42170	109383	0	0	8271	561747	0	0
2024-06-15 12:08:32			0	37813	0	0	0	25374	23950	135883	27206	1014178	42170	109384	0	0	8272	560837	0	0
2024-06-15 12:09:32			0	37819	0	0	0	25374	23950	135803	27260	1014213	42171	109384	0	0	8272	560600	0	0
2024-06-15 12:10:32			0	37814	0	0	0	25381	23950	135843	27488	1014231	42160	109387	0	0	8272	560798	0	0
2024-06-15 12:11:32			0	37822	0	0	0	25386	23960	135899	27263	1014284	42171	109389	0	0	8272	560450	0	0
2024-06-15 12:12:32			0	37806	0	0	0	25397	23970	135947	27445	1014292	42172	109393	0	0	8271	561051	0	0
2024-06-15 12:13:32			0	37794	0	0	0	25407	23960	135951	27249	1014284	42182	109397	0	0	8270	561557	0	0
2024-06-15 12:14:32			0	37791	0	0	0	25405	23980	136067	27338	1014336	42173	109396	0	0	8270	561612	0	0
2024-06-15 12:15:32			0	37762	0	0	0	25410	23970	136047	27251	1014274	42173	109398	0	0	8269	562792	0	0
2024-06-15 12:16:32			0	37755	0	0	0	25407	23980	136095	26981	1014283	42173	109397	0	0	8268	563037	0	0
2024-06-15 12:17:32			0	37737	0	0	0	25399	23980	136159	26864	1014336	42162	109394	0	0	8267	563751	0	0
2024-06-15 12:18:32			0	37703	0	0	0	25394	23970	136251	27003	1014301	42184	109392	0	0	8266	565132	0	0
2024-06-15 12:19:32			0	37720	0	0	0	25386	23980	136207	27045	1014283	42140	109389	0	0	8267	564425	0	0
2024-06-15 12:20:32			0	37712	0	0	0	25384	23980	136199	27242	1014318	42195	109388	0	0	8266	564743	0	0
2024-06-15 12:21:32			0	37715	0	0	0	25394	23970	136243	27440	1014266	42172	109392	0	0	8266	564656	0	0
2024-06-15 12:22:32			0	37702	0	0	0	25407	23970	136323	27625	1014274	42173	109397	0	0	8265	565172	0	0
2024-06-15 12:23:32			0	37689	0	0	0	25412	23980	136447	27124	1014372	42173	109399	0	0	8265	565656	0	0
2024-06-15 12:24:32			0	37699	0	0	0	25415	23980	136387	27388	1014345	42173	109400	0	0	8265	565259	0	0
2024-06-15 12:25:32			0	37688	0	0	0	25418	23980	136335	27377	1014372	42184	109401	0	0	8265	565696	0	0
2024-06-15 12:26:32			0	37686	0	0	0	25428	24000	136443	27386	1014406	42175	109405	0	0	8264	565712	0	0
2024-06-15 12:27:32			0	37656	0	0	0	25441	24000	136503	27277	1014451	42174	109410	0	0	8263	566905	0	0
2024-06-15 12:28:32			0	37639	0	0	0	25446	24000	136431	27592	1014486	42175	109412	0	0	8262	567582	0	0
2024-06-15 12:29:32			0	37649	0	0	0	25467	24020	136511	27634	1014574	42200	109420	0	0	8262	567120	0	0
2024-06-15 12:30:32			0	37660	0	0	0	25477	24030	136455	27312	1014662	42200	109424	0	0	8262	566650	0	0
2024-06-15 12:31:32			0	37646	0	0	0	25483	24020	136571	27331	1014600	42188	109426	0	0	8261	567239	0	0
2024-06-15 12:32:32			0	37617	0	0	0	25485	24050	136595	27663	1014688	42179	109427	0	0	8260	568298	0	0
2024-06-15 12:33:32			0	37602	0	0	0	25498	24040	136559	27587	1014680	42190	109432	0	0	8259	568928	0	0
2024-06-15 12:34:32			0	37573	0	0	0	25514	24060	136579	27069	1014759	42191	109438	0	0	8257	570021	0	0
2024-06-15 12:35:32			0	37574	0	0	0	25529	24070	136699	27478	1014892	42193	109444	0	0	8257	569949	0	0
2024-06-15 12:36:32			0	37572	0	0	0	25535	24080	136695	27495	1014874	42204	109446	0	0	8257	569997	0	0
2024-06-15 12:37:32			0	37566	0	0	0	25540	24080	136643	27140	1014874	42193	109448	0	0	8257	570236	0	0
2024-06-15 12:38:32			0	37569	0	0	0	25540	24080	136639	27329	1014802	42194	109448	0	0	8257	570117	0	0
2024-06-15 12:39:32			0	37567	0	0	0	25535	24090	136723	27435	1014891	42194	109446	0	0	8257	570164	0	0
2024-06-15 12:40:32			0	37577	0	0	0	25550	24100	136691	27206	1014908	42195	109452	0	0	8257	569733	0	0
2024-06-15 12:41:32			0	37591	0	0	0	25545	24110	136631	27105	1014898	42185	109450	0	0	8258	569142	0	0
2024-06-15 12:42:32			0	37580	0	0	0	25527	24090	136671	27180	1014784	42183	109443	0	0	8258	569645	0	0
2024-06-15 12:43:32			0	37606	0	0	0	25498	24090	136599	27377	1014792	42172	109432	0	0	8259	568608	0	0
2024-06-15 12:44:32			0	37611	0	0	0	25480	24080	136599	27268	1014748	42171	109425	0	0	8260	568441	0	0
2024-06-15 12:45:32			0	37618	0	0	0	25464	24080	136531	27398	1014668	42161	109419	0	0	8261	568162	0	0
2024-06-15 12:46:32			0	37626	0	0	0	25457	24080	136567	27232	1014580	42170	109416	0	0	8261	567843	0	0
2024-06-15 12:47:32			0	37617	0	0	0	25446	24060	136599	27502	1014572	42180	109412	0	0	8261	568266	0	0
2024-06-15 12:48:32			0	37601	0	0	0	25444	24050	136571	27421	1014536	42179	109411	0	0	8260	568936	0	0
2024-06-15 12:49:32			0	37596	0	0	0	25449	24060	136655	27436	1014625	42191	109413	0	0	8260	569103	0	0
2024-06-15 12:50:32			0	37620	0	0	0	25449	24060	136627	27398	1014607	42170	109413	0	0	8261	568147	0	0
2024-06-15 12:51:32			0	37603	0	0	0	25444	24050	136591	27507	1014617	42190	109411	0	0	8260	568856	0	0
2024-06-15 12:52:32			0	37598	0	0	0	25449	24070	136655	27177	1014562	42181	109413	0	0	8260	568991	0	0
2024-06-15 12:53:32			0	37595	0	0	0	25438	24040	136667	26960	1014573	42168	109409	0	0	8260	569207	0	0
2024-06-15 12:54:32			0	37612	0	0	0	25423	24050	136591	27409	1014501	42168	109403	0	0	8261	568497	0	0
2024-06-15 12:55:32			0	37621	0	0	0	25436	24030	136539	27369	1014537	42178	109408	0	0	8261	568203	0	0
2024-06-15 12:56:32			0	37609	0	0	0	25433	24030	136543	27409	1014511	42167	109407	0	0	8260	568681	0	0
2024-06-15 12:57:32			0	37628	0	0	0	25423	24030	136555	27215	1014502	42188	109403	0	0	8262	567924	0	0
2024-06-15 12:58:32			0	37628	0	0	0	25436	24040	136555	27530	1014546	42190	109408	0	0	8261	567892	0	0
2024-06-15 12:59:32			0	37613	0	0	0	25441	24030	136627	27552	1014582	42177	109410	0	0	8261	568522	0	0
2024-06-15 13:00:32			0	37613	0	0	0	25446	24030	136731	27370	1014582	42200	109412	0	0	8260	568522	0	0
2024-06-15 13:01:32			0	37622	0	0	0	25451	24040	136591	27407	1014599	42168	109414	0	0	8261	568131	0	0
2024-06-15 13:02:32			0	37618	0	0	0	25446	24030	136551	27303	1014564	42178	109412	0	0	8261	568322	0	0
2024-06-15 13:03:32			0	37623	0	0	0	25436	24030	136475	27213	1014556	42177	109408	0	0	8261	568123	0	0
2024-06-15 13:04:32			0	37643	0	0	0	25433	24020	136447	27582	1014520	42177	109407	0	0	8262	567358	0	0
2024-06-15 13:05:32			0	37642	0	0	0	25428	24020	136383	27386	1014467	42166	109405	0	0	8262	567398	0	0
2024-06-15 13:06:32			0	37681	0	0	0	25423	24030	136219	27175	1014502	42177	109403	0	0	8264	565815	0	0
2024-06-15 13:07:32			0	37688	0	0	0	25425	24030	136351	27504	1014475	42188	109404	0	0	8265	565537	0	0
2024-06-15 13:08:32			0	37712	0	0	0	25418	24020	136091	27360	1014458	42166	109401	0	0	8266	564615	0	0
2024-06-15 13:09:32			0	37743	0	0	0	25410	24010	136147	27190	1014476	42176	109398	0	0	8268	563418	0	0
2024-06-15 13:10:32			0	37767	0	0	0	25412	24020	136083	27164	1014440	42188	109399	0	0	8269	562435	0	0
2024-06-15 13:11:32			0	37742	0	0	0	25405	24010	136063	27216	1014450	42176	109396	0	0	8268	563457	0	0
2024-06-15 13:12:32			0	37774	0	0	0	25399	24010	136039	27403	1014423	42166	109394	0	0	8269	562190	0	0
2024-06-15 13:13:32			0	37791	0	0	0	25405	24010	135919	27282	1014468	42175	109396	0	0	8270	561517	0	0
2024-06-15 13:14:32			0	37790	0	0	0	25418	24010	135955	27239	1014468	42175	109401	0	0	8270	561557	0	0
2024-06-15 13:15:32			0	37803	0	0	0	25407	24010	135943	27310	1014521	42187	109397	0	0	8271	561043	0	0
2024-06-15 13:16:32			0	37797	0	0	0	25431	24010	135887	27384	1014628	42187	109406	0	0	8270	561280	0	0
2024-06-15 13:17:32			0	37800	0	0	0	25431	24020	135843	27147	1014600	42177	109406	0	0	8270	561130	0	0
2024-06-15 13:18:32			0	37820	0	0	0	25431	24030	135851	26928	1014609	42188	109406	0	0	8271	560308	0	0
2024-06-15 13:19:32			0	37821	0	0	0	25444	24020	135787	27241	1014565	42188	109411	0	0	8271	560300	0	0
2024-06-15 13:20:32			0	37836	0	0	0	25454	24030	135731	27396	1014644	42189	109415	0	0	8272	559676	0	0
2024-06-15 13:21:32			0	37846	0	0	0	25464	24050	135743	27334	1014715	42179	109419	0	0	8272	559218	0	0
2024-06-15 13:22:32			0	37868	0	0	0	25498	24070	135727	27268	1014910	42192	109432	0	0	8273	558288	0	0
2024-06-15 13:23:32			0	37854	0	0	0	25522	24080	135675	27253	1014962	42194	109441	0	0	8272	558808	0	0
2024-06-15 13:24:32			0	37879	0	0	0	25558	24090	135639	27365	1015086	42195	109455	0	0	8273	557792	0	0
2024-06-15 13:25:32			0	37893	0	0	0	25586	24100	135591	27473	1015130	42217	109466	0	0	8273	557209	0	0
2024-06-15 13:26:32			0	37904	0	0	0	25602	24120	135567	27627	1015191	42198	109472	0	0	8273	556714	0	0
2024-06-15 13:27:32			0	37919	0	0	0	25623	24140	135403	27315	1015252	42210	109480	0	0	8274	556061	0	0
2024-06-15 13:28:32			0	37919	0	0	0	25636	24140	135467	27329	1015279	42210	109485	0	0	8274	556061	0	0
2024-06-15 13:29:32			0	37943	0	0	0	25641	24160	135359	27270	1015358	42212	109487	0	0	8275	555056	0	0
2024-06-15 13:30:32			0	37943	0	0	0	25659	24170	135387	27234	1015402	42202	109494	0	0	8275	555025	0	0
2024-06-15 13:31:32			0	37949	0	0	0	25664	24180	135367	27293	1015393	42225	109496	0	0	8275	554758	0	0
2024-06-15 13:32:32			0	37949	0	0	0	25672	24190	135307	27315	1015437	42226	109499	0	0	8275	554727	0	0
2024-06-15 13:33:32			0	37951	0	0	0	25670	24200	135351	27384	1015462	42206	109498	0	0	8275	554617	0	0
2024-06-15 13:34:32			0	37978	0	0	0	25654	24190	135223	27524	1015392	42181	109492	0	0	8276	553590	0	0
2024-06-15 13:35:32			0	37967	0	0	0	25649	24200	135215	27355	1015409	42195	109490	0	0	8276	553989	0	0
2024-06-15 13:36:32			0	37986	0	0	0	25644	24200	135167	26859	1015481	42205	109488	0	0	8277	553245	0	0
2024-06-15 13:37:32			0	37986	0	0	0	25657	24200	135187	27026	1015489	42206	109493	0	0	8277	553245	0	0
2024-06-15 13:38:32			0	37994	0	0	0	25662	24220	135191	27338	1015515	42207	109495	0	0	8277	552869	0	0
2024-06-15 13:39:32			0	38002	0	0	0	25683	24220	135123	27443	1015649	42195	109503	0	0	8277	552556	0	0
2024-06-15 13:40:32			0	37998	0	0	0	25688	24230	135123	27249	1015701	42208	109505	0	0	8277	552681	0	0
2024-06-15 13:41:32			0	37996	0	0	0	25693	24240	135195	27126	1015656	42219	109507	0	0	8277	552729	0	0
2024-06-15 13:42:32			0	38001	0	0	0	25688	24250	135107	27199	1015700	42209	109505	0	0	8277	552502	0	0
2024-06-15 13:43:32			0	38002	0	0	0	25693	24260	135151	27133	1015717	42209	109507	0	0	8277	552431	0	0
2024-06-15 13:44:32			0	38009	0	0	0	25675	24270	135135	27338	1015716	42211	109500	0	0	8278	552126	0	0
2024-06-15 13:45:32			0	38010	0	0	0	25685	24250	135127	26902	1015682	42221	109504	0	0	8278	552150	0	0
2024-06-15 13:46:32			0	37992	0	0	0	25670	24250	135091	27521	1015673	42199	109498	0	0	8277	552854	0	0
2024-06-15 13:47:32			0	37998	0	0	0	25675	24250	135063	27071	1015682	42209	109500	0	0	8277	552619	0	0
2024-06-15 13:48:32			0	38011	0	0	0	25677	24260	135131	27060	1015672	42200	109501	0	0	8278	552079	0	0
2024-06-15 13:49:32			0	38024	0	0	0	25672	24250	135143	27069	1015655	42209	109499	0	0	8279	551602	0	0
2024-06-15 13:50:32			0	37993	0	0	0	25664	24250	135063	27365	1015655	42199	109496	0	0	8277	552815	0	0
2024-06-15 13:51:32			0	38006	0	0	0	25662	24270	135083	27152	1015689	42201	109495	0	0	8278	552244	0	0
2024-06-15 13:52:32			0	38005	0	0	0	25662	24260	135103	27291	1015610	42209	109495	0	0	8278	552314	0	0
2024-06-15 13:53:32			0	38005	0	0	0	25670	24260	135115	27206	1015610	42209	109498	0	0	8278	552314	0	0
2024-06-15 13:54:32			0	37998	0	0	0	25657	24250	135083	27237	1015628	42199	109493	0	0	8278	552619	0	0
2024-06-15 13:55:32			0	38014	0	0	0	25646	24250	135023	27020	1015441	42188	109489	0	0	8279	551993	0	0
2024-06-15 13:56:32			0	38044	0	0	0	25628	24240	134940	27258	1015442	42197	109482	0	0	8281	550852	0	0
2024-06-15 13:57:32			0	38017	0	0	0	25599	24220	135007	27154	1015336	42185	109471	0	0	8280	551969	0	0
2024-06-15 13:58:32			0	38049	0	0	0	25586	24220	135040	26937	1015310	42185	109466	0	0	8281	550719	0	0
2024-06-15 13:59:32			0	38063	0	0	0	25563	24210	134900	27100	1015319	42183	109457	0	0	8283	550203	0	0
2024-06-15 14:00:32			0	38100	0	0	0	25558	24210	134864	27046	1015257	42195	109455	0	0	8285	548761	0	0
2024-06-15 14:01:32			0	38123	0	0	0	25553	24190	134748	27345	1015285	42181	109453	0	0	8286	547927	0	0
2024-06-15 14:02:32			0	38110	0	0	0	25545	24190	134724	27372	1015196	42181	109450	0	0	8285	548433	0	0
2024-06-15 14:03:32			0	38085	0	0	0	25548	24180	134740	27388	1015205	42192	109451	0	0	8284	549438	0	0
2024-06-15 14:04:32			0	38086	0	0	0	25540	24170	134780	27426	1015277	42191	109448	0	0	8284	549430	0	0
2024-06-15 14:05:32			0	38079	0	0	0	25550	24190	134788	27447	1015116	42193	109452	0	0	8283	549641	0	0
2024-06-15 14:06:32			0	38069	0	0	0	25545	24180	134884	27315	1015098	42203	109450	0	0	8283	550062	0	0
2024-06-15 14:07:32			0	38050	0	0	0	25540	24180	134944	27142	1015125	42169	109448	0	0	8282	550804	0	0
2024-06-15 14:08:32			0	38044	0	0	0	25524	24170	135036	27533	1015135	42191	109442	0	0	8282	551070	0	0
2024-06-15 14:09:32			0	38022	0	0	0	25516	24150	135031	27294	1015056	42178	109439	0	0	8281	551992	0	0
2024-06-15 14:10:32			0	38030	0	0	0	25511	24160	135083	27140	1015011	42201	109437	0	0	8281	551648	0	0
2024-06-15 14:11:32			0	38051	0	0	0	25511	24140	134976	27313	1015038	42177	109437	0	0	8282	550889	0	0
2024-06-15 14:12:32			0	38045	0	0	0	25522	24150	134980	27149	1015127	42200	109441	0	0	8282	551093	0	0
2024-06-15 14:13:32			0	38056	0	0	0	25545	24160	135016	27059	1015278	42201	109450	0	0	8282	550632	0	0
2024-06-15 14:14:32			0	38049	0	0	0	25561	24170	135048	27478	1015277	42202	109456	0	0	8282	550874	0	0
2024-06-15 14:15:32			0	38002	0	0	0	25589	24180	135179	27627	1015348	42214	109467	0	0	8279	552681	0	0
2024-06-15 14:16:32			0	37973	0	0	0	25592	24180	135303	27492	1015321	42204	109468	0	0	8277	553817	0	0
2024-06-15 14:17:32			0	37939	0	0	0	25586	24180	135339	27426	1015259	42192	109466	0	0	8276	555150	0	0
2024-06-15 14:18:32			0	37912	0	0	0	25558	24170	135375	27239	1015188	42191	109455	0	0	8275	556242	0	0
2024-06-15 14:19:32			0	37944	0	0	0	25550	24160	135363	27308	1015180	42179	109452	0	0	8276	555017	0	0
2024-06-15 14:20:32			0	37960	0	0	0	25537	24160	135279	27277	1015091	42201	109447	0	0	8277	554389	0	0
2024-06-15 14:21:32			0	37997	0	0	0	25535	24150	135107	27189	1015109	42200	109446	0	0	8279	552970	0	0
2024-06-15 14:22:32			0	37996	0	0	0	25524	24140	135207	27102	1015083	42188	109442	0	0	8279	553041	0	0
2024-06-15 14:23:32			0	38012	0	0	0	25519	24140	135163	27164	1014976	42177	109440	0	0	8280	552414	0	0
2024-06-15 14:24:32			0	38001	0	0	0	25516	24140	135231	27187	1015038	42188	109439	0	0	8280	552845	0	0
2024-06-15 14:25:32			0	37996	0	0	0	25498	24140	135207	27197	1014976	42188	109432	0	0	8280	553041	0	0
2024-06-15 14:26:32			0	37982	0	0	0	25509	24130	135331	27150	1014968	42187	109436	0	0	8279	553620	0	0
2024-06-15 14:27:32			0	37969	0	0	0	25493	24140	135383	27395	1015003	42188	109430	0	0	8279	554099	0	0
2024-06-15 14:28:32			0	37957	0	0	0	25506	24130	135283	27360	1014986	42198	109435	0	0	8278	554601	0	0
2024-06-15 14:29:32			0	37942	0	0	0	25501	24140	135371	27371	1015164	42199	109433	0	0	8277	555158	0	0
2024-06-15 14:30:32			0	37917	0	0	0	25524	24140	135387	27133	1015137	42188	109442	0	0	8275	556140	0	0
2024-06-15 14:31:32			0	37899	0	0	0	25545	24150	135467	27286	1015154	42189	109450	0	0	8274	556816	0	0
2024-06-15 14:32:32			0	37877	0	0	0	25568	24160	135475	27341	1015225	42201	109459	0	0	8273	557650	0	0
2024-06-15 14:33:32			0	37866	0	0	0	25571	24160	135539	27390	1015305	42201	109460	0	0	8272	558083	0	0
2024-06-15 14:34:32			0	37862	0	0	0	25638	24180	135615	27107	1015606	42213	109486	0	0	8271	558178	0	0
2024-06-15 14:35:32			0	37843	0	0	0	25719	24200	135619	27060	1015703	42227	109517	0	0	8268	558864	0	0
2024-06-15 14:36:32			0	37827	0	0	0	25719	24230	135823	27209	1015693	42196	109517	0	0	8268	559400	0	0
2024-06-15 14:37:32			0	37813	0	0	0	25716	24240	135703	27277	1015683	42208	109516	0	0	8267	559920	0	0
2024-06-15 14:38:32			0	37835	0	0	0	25716	24240	135671	27326	1015710	42208	109516	0	0	8268	559053	0	0
2024-06-15 14:39:32			0	37840	0	0	0	25719	24250	135651	27313	1015673	42209	109517	0	0	8269	558824	0	0
2024-06-15 14:40:32			0	37830	0	0	0	25711	24260	135607	26873	1015744	42188	109514	0	0	8268	559187	0	0
2024-06-15 14:41:32			0	37845	0	0	0	25698	24270	135675	27324	1015708	42190	109509	0	0	8269	558564	0	0
2024-06-15 14:42:32			0	37828	0	0	0	25696	24250	135579	27157	1015762	42199	109508	0	0	8268	559297	0	0
2024-06-15 14:43:32			0	37840	0	0	0	25696	24270	135611	27228	1015770	42201	109508	0	0	8269	558761	0	0
2024-06-15 14:44:32			0	37840	0	0	0	25688	24280	135639	27260	1015778	42211	109505	0	0	8269	558729	0	0
2024-06-15 14:45:32			0	37826	0	0	0	25703	24280	135627	27168	1015805	42211	109511	0	0	8268	559281	0	0
2024-06-15 14:46:32			0	37857	0	0	0	25690	24290	135635	27185	1015795	42213	109506	0	0	8270	558028	0	0
2024-06-15 14:47:32			0	37832	0	0	0	25698	24280	135619	27421	1015867	42191	109509	0	0	8269	559045	0	0
2024-06-15 14:48:32			0	37838	0	0	0	25714	24290	135607	27105	1015849	42224	109515	0	0	8269	558777	0	0
2024-06-15 14:49:32			0	37834	0	0	0	25709	24310	135635	27336	1015911	42215	109513	0	0	8269	558871	0	0
2024-06-15 14:50:32			0	37830	0	0	0	25714	24300	135651	27130	1015875	42214	109515	0	0	8268	559060	0	0
2024-06-15 14:51:32			0	37831	0	0	0	25714	24300	135619	27322	1015848	42237	109515	0	0	8268	559021	0	0
2024-06-15 14:52:32			0	37844	0	0	0	25709	24310	135667	27072	1015857	42205	109513	0	0	8269	558477	0	0
2024-06-15 14:53:32			0	37835	0	0	0	25690	24310	135639	27275	1015830	42193	109506	0	0	8269	558832	0	0
2024-06-15 14:54:32			0	37840	0	0	0	25675	24300	135675	27338	1015733	42203	109500	0	0	8269	558666	0	0
2024-06-15 14:55:32			0	37858	0	0	0	25662	24290	135579	27225	1015795	42191	109495	0	0	8271	557989	0	0
2024-06-15 14:56:32			0	37880	0	0	0	25667	24290	135499	27267	1015777	42191	109497	0	0	8272	557123	0	0
2024-06-15 14:57:32			0	37902	0	0	0	25675	24290	135547	27315	1015804	42224	109500	0	0	8273	556258	0	0
2024-06-15 14:58:32			0	37892	0	0	0	25680	24290	135519	27319	1015795	42213	109502	0	0	8272	556651	0	0
2024-06-15 14:59:32			0	37901	0	0	0	25690	24300	135443	27209	1015840	42213	109506	0	0	8272	556266	0	0
2024-06-15 15:00:32			0	37882	0	0	0	25685	24300	135475	27457	1015759	42203	109504	0	0	8271	557013	0	0
2024-06-15 15:01:32			0	37914	0	0	0	25670	24290	135483	27232	1015822	42203	109498	0	0	8273	555787	0	0
2024-06-15 15:02:32			0	37889	0	0	0	25675	24280	135475	27147	1015733	42202	109500	0	0	8272	556801	0	0
2024-06-15 15:03:32			0	37889	0	0	0	25662	24290	135315	27332	1015804	42203	109495	0	0	8272	556769	0	0
2024-06-15 15:04:32			0	37912	0	0	0	25662	24280	135323	27140	1015707	42212	109495	0	0	8273	555897	0	0
2024-06-15 15:05:32			0	37923	0	0	0	25670	24290	135375	26918	1015849	42203	109498	0	0	8274	555433	0	0
2024-06-15 15:06:32			0	37931	0	0	0	25688	24290	135335	27351	1015884	42213	109505	0	0	8274	555120	0	0
2024-06-15 15:07:32			0	37914	0	0	0	25706	24310	135423	27452	1015911	42205	109512	0	0	8273	555724	0	0
2024-06-15 15:08:32			0	37927	0	0	0	25719	24320	135379	27171	1016053	42216	109517	0	0	8273	555182	0	0
2024-06-15 15:09:32			0	37925	0	0	0	25732	24330	135319	27365	1015990	42206	109522	0	0	8273	555230	0	0
2024-06-15 15:10:32			0	37928	0	0	0	25732	24320	135367	27220	1016035	42206	109522	0	0	8273	555143	0	0
2024-06-15 15:11:32			0	37923	0	0	0	25740	24340	135271	27367	1016034	42196	109525	0	0	8273	555277	0	0
2024-06-15 15:12:32			0	37919	0	0	0	25748	24330	135279	27343	1016025	42206	109528	0	0	8272	555465	0	0
2024-06-15 15:13:32			0	37937	0	0	0	25750	24340	135263	27150	1016149	42229	109529	0	0	8273	554727	0	0
2024-06-15 15:14:32			0	37953	0	0	0	25771	24340	135235	27088	1016096	42218	109537	0	0	8274	554100	0	0
2024-06-15 15:15:32			0	37964	0	0	0	25789	24350	135275	27455	1016193	42219	109544	0	0	8274	553638	0	0
2024-06-15 15:16:32			0	37985	0	0	0	25781	24350	135123	27281	1016140	42208	109541	0	0	8275	552816	0	0
2024-06-15 15:17:32			0	37995	0	0	0	25779	24360	135207	27071	1016184	42208	109540	0	0	8276	552393	0	0
2024-06-15 15:18:32			0	37983	0	0	0	25771	24370	135099	27338	1016192	42220	109537	0	0	8276	552831	0	0
2024-06-15 15:19:32			0	38014	0	0	0	25763	24360	134991	27415	1016077	42208	109534	0	0	8277	551650	0	0
2024-06-15 15:20:32			0	38038	0	0	0	25758	24360	134976	27239	1016148	42208	109532	0	0	8279	550713	0	0
2024-06-15 15:21:32			0	38045	0	0	0	25750	24360	134860	27183	1016122	42220	109529	0	0	8279	550440	0	0
2024-06-15 15:22:32			0	38088	0	0	0	25763	24370	134872	27067	1016246	42231	109534	0	0	8281	548732	0	0
2024-06-15 15:23:32			0	38093	0	0	0	25786	24370	134860	27310	1016227	42220	109543	0	0	8281	548537	0	0
2024-06-15 15:24:32			0	38084	0	0	0	25784	24380	134800	27234	1016218	42211	109542	0	0	8281	548857	0	0
2024-06-15 15:25:32			0	38112	0	0	0	25784	24390	134704	27222	1016315	42211	109542	0	0	8282	547736	0	0
2024-06-15 15:26:32			0	38097	0	0	0	25779	24390	134724	26906	1016235	42211	109540	0	0	8281	548320	0	0
2024-06-15 15:27:32			0	38125	0	0	0	25774	24380	134716	27135	1016183	42210	109538	0	0	8283	547261	0	0
2024-06-15 15:28:32			0	38133	0	0	0	25774	24380	134632	27121	1016245	42211	109538	0	0	8283	546950	0	0
2024-06-15 15:29:32			0	38129	0	0	0	25781	24390	134636	27317	1016253	42211	109541	0	0	8283	547075	0	0
2024-06-15 15:30:32			0	38165	0	0	0	25768	24400	134616	26798	1016324	42223	109536	0	0	8285	545646	0	0
2024-06-15 15:31:32			0	38158	0	0	0	25768	24390	134592	27293	1016315	42222	109536	0	0	8285	545948	0	0
2024-06-15 15:32:32			0	38170	0	0	0	25779	24400	134456	27076	1016332	42224	109540	0	0	8285	545452	0	0
2024-06-15 15:33:32			0	38165	0	0	0	25799	24400	134460	27222	1016332	42224	109548	0	0	8285	545646	0	0
2024-06-15 15:34:32			0	38176	0	0	0	25792	24400	134528	27372	1016332	42213	109545	0	0	8285	545219	0	0
2024-06-15 15:35:32			0	38154	0	0	0	25794	24410	134504	27396	1016341	42213	109546	0	0	8284	546042	0	0
2024-06-15 15:36:32			0	38193	0	0	0	25781	24410	134372	27454	1016207	42213	109541	0	0	8286	544529	0	0
2024-06-15 15:37:32			0	38194	0	0	0	25766	24390	134384	27379	1016182	42201	109535	0	0	8287	544552	0	0
2024-06-15 15:38:32			0	38196	0	0	0	25758	24390	134416	27317	1016262	42211	109532	0	0	8287	544474	0	0
2024-06-15 15:39:32			0	38196	0	0	0	25763	24380	134332	27353	1016191	42222	109534	0	0	8287	544505	0	0
2024-06-15 15:40:32			0	38215	0	0	0	25742	24380	134388	27379	1016156	42221	109526	0	0	8288	543769	0	0
2024-06-15 15:41:32			0	38224	0	0	0	25729	24370	134244	27152	1016121	42199	109521	0	0	8289	543451	0	0
2024-06-15 15:42:32			0	38226	0	0	0	25716	24360	134400	27111	1016015	42208	109516	0	0	8289	543404	0	0
2024-06-15 15:43:32			0	38243	0	0	0	25688	24360	134244	27315	1015881	42187	109505	0	0	8290	542746	0	0
2024-06-15 15:44:32			0	38257	0	0	0	25677	24340	134212	27267	1015882	42185	109501	0	0	8291	542266	0	0
2024-06-15 15:45:32			0	38259	0	0	0	25670	24340	134204	27423	1015847	42218	109498	0	0	8291	542189	0	0
2024-06-15 15:46:32			0	38278	0	0	0	25670	24330	134136	27289	1015883	42206	109498	0	0	8292	541485	0	0
2024-06-15 15:47:32			0	38286	0	0	0	25657	24320	134124	27154	1015741	42183	109493	0	0	8293	541207	0	0
2024-06-15 15:48:32			0	38289	0	0	0	25633	24300	134128	27064	1015661	42181	109484	0	0	8293	541152	0	0
2024-06-15 15:49:32			0	38294	0	0	0	25605	24290	134128	27092	1015581	42203	109473	0	0	8294	540990	0	0
2024-06-15 15:50:32			0	38294	0	0	0	25592	24270	134060	27163	1015556	42190	109468	0	0	8294	541051	0	0
2024-06-15 15:51:32			0	38304	0	0	0	25573	24250	134092	27352	1015513	42199	109461	0	0	8295	540726	0	0
2024-06-15 15:52:32			0	38320	0	0	0	25571	24240	134048	27229	1015416	42186	109460	0	0	8296	540139	0	0
2024-06-15 15:53:32			0	38313	0	0	0	25566	24240	134120	27019	1015442	42186	109458	0	0	8296	540409	0	0
2024-06-15 15:54:32			0	38329	0	0	0	25561	24230	134052	27260	1015487	42197	109456	0	0	8296	539822	0	0
2024-06-15 15:55:32			0	38304	0	0	0	25571	24230	134124	27045	1015460	42175	109460	0	0	8295	540787	0	0
2024-06-15 15:56:32			0	38238	0	0	0	25579	24240	134408	27183	1015522	42197	109463	0	0	8291	543308	0	0
2024-06-15 15:57:32			0	38157	0	0	0	25599	24220	134676	27069	1015542	42184	109471	0	0	8287	546511	0	0
2024-06-15 15:58:32			0	38080	0	0	0	25597	24220	134908	27090	1015523	42196	109470	0	0	8283	549509	0	0
2024-06-15 15:59:32			0	37990	0	0	0	25599	24220	135251	27201	1015470	42196	109471	0	0	8278	553026	0	0
2024-06-15 16:00:32			0	37931	0	0	0	25599	24220	135379	26753	1015488	42195	109471	0	0	8275	555339	0	0
2024-06-15 16:01:32			0	37906	0	0	0	25610	24230	135515	26928	1015567	42197	109475	0	0	8274	556290	0	0
2024-06-15 16:02:32			0	37888	0	0	0	25615	24230	135491	27076	1015594	42197	109477	0	0	8273	556997	0	0
2024-06-15 16:03:32			0	37894	0	0	0	25625	24230	135607	27078	1015541	42197	109481	0	0	8273	556761	0	0
2024-06-15 16:04:32			0	37931	0	0	0	25631	24220	135503	27249	1015542	42207	109483	0	0	8275	555339	0	0
2024-06-15 16:05:32			0	37974	0	0	0	25623	24220	135359	27171	1015523	42196	109480	0	0	8277	553653	0	0
2024-06-15 16:06:32			0	38023	0	0	0	25610	24220	135227	27039	1015497	42196	109475	0	0	8280	551735	0	0
2024-06-15 16:07:32			0	38058	0	0	0	25618	24230	135136	27279	1015514	42197	109478	0	0	8281	550336	0	0
2024-06-15 16:08:32			0	38090	0	0	0	25610	24210	134876	27287	1015480	42195	109475	0	0	8283	549150	0	0
2024-06-15 16:09:32			0	38100	0	0	0	25615	24220	134904	27017	1015488	42173	109477	0	0	8284	548730	0	0
2024-06-15 16:10:32			0	38102	0	0	0	25605	24220	134796	27428	1015515	42184	109473	0	0	8284	548651	0	0
2024-06-15 16:11:32			0	38149	0	0	0	25599	24220	134792	27102	1015470	42196	109471	0	0	8286	546822	0	0
2024-06-15 16:12:32			0	38165	0	0	0	25610	24220	134708	27374	1015523	42208	109475	0	0	8287	546201	0	0
2024-06-15 16:13:32			0	38164	0	0	0	25620	24230	134724	27067	1015559	42218	109479	0	0	8287	546209	0	0
2024-06-15 16:14:32			0	38166	0	0	0	25631	24230	134664	27074	1015505	42185	109483	0	0	8287	546131	0	0
2024-06-15 16:15:32			0	38174	0	0	0	25625	24240	134648	27050	1015478	42187	109481	0	0	8287	545789	0	0
2024-06-15 16:16:32			0	38161	0	0	0	25610	24230	134720	27237	1015425	42174	109475	0	0	8287	546325	0	0
2024-06-15 16:17:32			0	38178	0	0	0	25586	24220	134784	27703	1015336	42196	109466	0	0	8288	545696	0	0
2024-06-15 16:18:32			0	38170	0	0	0	25563	24200	134672	27324	1015240	42182	109457	0	0	8288	546068	0	0
2024-06-15 16:19:32			0	38168	0	0	0	25532	24200	134652	27116	1015240	42182	109445	0	0	8288	546146	0	0
2024-06-15 16:20:32			0	38176	0	0	0	25522	24170	134776	27443	1015170	42168	109441	0	0	8289	545927	0	0
2024-06-15 16:21:32			0	38156	0	0	0	25509	24160	134696	27019	1015126	42179	109436	0	0	8288	546736	0	0
2024-06-15 16:22:32			0	38149	0	0	0	25506	24160	134716	27265	1015144	42179	109435	0	0	8288	547008	0	0
2024-06-15 16:23:32			0	38149	0	0	0	25496	24150	134772	27095	1015074	42178	109431	0	0	8288	547039	0	0
2024-06-15 16:24:32			0	38119	0	0	0	25498	24140	134892	27123	1015065	42199	109432	0	0	8286	548237	0	0
2024-06-15 16:25:32			0	38101	0	0	0	25503	24150	134896	27003	1015127	42178	109434	0	0	8285	548907	0	0
2024-06-15 16:26:32			0	38078	0	0	0	25532	24160	134904	27216	1015305	42201	109445	0	0	8284	549773	0	0
2024-06-15 16:27:32			0	38066	0	0	0	25568	24170	134996	27260	1015411	42202	109459	0	0	8282	550210	0	0
2024-06-15 16:28:32			0	38039	0	0	0	25589	24190	135144	27448	1015517	42204	109467	0	0	8281	551203	0	0
2024-06-15 16:29:32			0	38002	0	0	0	25607	24200	135227	27270	1015561	42194	109474	0	0	8279	552619	0	0
2024-06-15 16:30:32			0	37985	0	0	0	25623	24200	135339	27130	1015614	42194	109480	0	0	8277	553284	0	0
2024-06-15 16:31:32			0	37944	0	0	0	25644	24220	135459	27452	1015568	42207	109488	0	0	8275	554829	0	0
2024-06-15 16:32:32			0	37927	0	0	0	25649	24220	135551	27060	1015657	42208	109490	0	0	8274	555496	0	0
2024-06-15 16:33:32			0	37906	0	0	0	25654	24220	135575	27147	1015550	42196	109492	0	0	8273	556321	0	0
2024-06-15 16:34:32			0	37872	0	0	0	25662	24220	135623	27223	1015577	42196	109495	0	0	8271	557658	0	0
2024-06-15 16:35:32			0	37876	0	0	0	25651	24230	135671	27277	1015586	42185	109491	0	0	8271	557469	0	0
2024-06-15 16:36:32			0	37846	0	0	0	25649	24220	135683	27275	1015577	42185	109490	0	0	8270	558682	0	0
2024-06-15 16:37:32			0	37869	0	0	0	25646	24220	135683	27227	1015630	42208	109489	0	0	8271	557776	0	0
2024-06-15 16:38:32			0	37856	0	0	0	25644	24240	135727	27235	1015629	42197	109488	0	0	8271	558225	0	0
2024-06-15 16:39:32			0	37864	0	0	0	25657	24230	135583	26928	1015594	42197	109493	0	0	8271	557942	0	0
2024-06-15 16:40:32			0	37875	0	0	0	25638	24230	135607	27339	1015586	42196	109486	0	0	8272	557509	0	0
2024-06-15 16:41:32			0	37884	0	0	0	25636	24230	135551	27048	1015541	42186	109485	0	0	8272	557155	0	0
2024-06-15 16:42:32			0	37910	0	0	0	25631	24230	135547	27374	1015532	42196	109483	0	0	8274	556132	0	0
2024-06-15 16:43:32			0	37939	0	0	0	25633	24230	135527	26745	1015567	42197	109484	0	0	8275	554994	0	0
2024-06-15 16:44:32			0	37943	0	0	0	25625	24220	135475	27072	1015523	42185	109481	0	0	8275	554868	0	0
2024-06-15 16:45:32			0	37946	0	0	0	25625	24230	135375	27135	1015532	42196	109481	0	0	8275	554719	0	0
2024-06-15 16:46:32			0	37934	0	0	0	25623	24220	135387	27419	1015523	42196	109480	0	0	8275	555221	0	0
2024-06-15 16:47:32			0	37948	0	0	0	25615	24230	135355	27360	1015505	42196	109477	0	0	8276	554640	0	0
2024-06-15 16:48:32			0	37952	0	0	0	25607	24220	135323	26863	1015470	42174	109474	0	0	8276	554515	0	0
2024-06-15 16:49:32			0	37960	0	0	0	25605	24220	135431	26897	1015408	42195	109473	0	0	8277	554201	0	0
2024-06-15 16:50:32			0	37967	0	0	0	25594	24200	135319	27232	1015462	42172	109469	0	0	8277	553989	0	0
2024-06-15 16:51:32			0	37962	0	0	0	25594	24200	135323	27326	1015436	42206	109469	0	0	8277	554185	0	0
2024-06-15 16:52:32			0	37970	0	0	0	25597	24200	135315	27003	1015436	42183	109470	0	0	8277	553872	0	0
2024-06-15 16:53:32			0	37962	0	0	0	25589	24210	135303	27346	1015471	42183	109467	0	0	8277	554154	0	0
2024-06-15 16:54:32			0	37964	0	0	0	25597	24200	135319	27112	1015400	42194	109470	0	0	8277	554107	0	0
2024-06-15 16:55:32			0	37967	0	0	0	25594	24200	135283	26871	1015436	42195	109469	0	0	8277	553989	0	0
2024-06-15 16:56:32			0	37964	0	0	0	25599	24200	135323	27215	1015427	42205	109471	0	0	8277	554107	0	0
2024-06-15 16:57:32			0	37993	0	0	0	25594	24210	135299	27178	1015391	42172	109469	0	0	8278	552940	0	0
2024-06-15 16:58:32			0	37983	0	0	0	25589	24190	135327	27435	1015365	42181	109467	0	0	8278	553394	0	0
2024-06-15 16:59:32			0	37965	0	0	0	25597	24200	135319	27133	1015374	42194	109470	0	0	8277	554068	0	0
2024-06-15 17:00:32			0	37975	0	0	0	25599	24200	135275	27088	1015400	42182	109471	0	0	8277	553676	0	0
2024-06-15 17:01:32			0	37980	0	0	0	25599	24200	135255	27249	1015382	42195	109471	0	0	8278	553480	0	0
2024-06-15 17:02:32			0	38007	0	0	0	25589	24200	135263	27244	1015347	42194	109467	0	0	8279	552423	0	0
2024-06-15 17:03:32			0	37998	0	0	0	25586	24190	135299	27156	1015312	42204	109466	0	0	8279	552806	0	0
2024-06-15 17:04:32			0	37994	0	0	0	25586	24190	135215	27204	1015303	42193	109466	0	0	8278	552963	0	0
2024-06-15 17:05:32			0	38007	0	0	0	25586	24190	135255	27415	1015285	42193	109466	0	0	8279	552454	0	0
2024-06-15 17:06:32			0	38004	0	0	0	25576	24190	135255	26864	1015285	42204	109462	0	0	8279	552571	0	0
2024-06-15 17:07:32			0	38012	0	0	0	25579	24180	135159	27260	1015339	42180	109463	0	0	8279	552290	0	0
2024-06-15 17:08:32			0	38013	0	0	0	25581	24190	135159	27511	1015303	42193	109464	0	0	8280	552219	0	0
2024-06-15 17:09:32			0	38037	0	0	0	25581	24180	135164	27322	1015321	42204	109464	0	0	8281	551312	0	0
2024-06-15 17:10:32			0	38029	0	0	0	25581	24190	135111	27343	1015383	42181	109464	0	0	8280	551594	0	0
2024-06-15 17:11:32			0	38045	0	0	0	25573	24180	135152	27306	1015339	42203	109461	0	0	8281	550999	0	0
2024-06-15 17:12:32			0	38044	0	0	0	25584	24190	135088	27540	1015330	42193	109465	0	0	8281	551007	0	0
2024-06-15 17:13:32			0	38045	0	0	0	25571	24180	135052	27180	1015401	42193	109460	0	0	8281	550999	0	0
2024-06-15 17:14:32			0	38048	0	0	0	25592	24180	135140	27428	1015321	42193	109468	0	0	8281	550882	0	0
2024-06-15 17:15:32			0	38029	0	0	0	25597	24190	135123	27350	1015365	42204	109470	0	0	8280	551594	0	0
2024-06-15 17:16:32			0	38043	0	0	0	25607	24180	135044	27504	1015401	42193	109474	0	0	8281	551078	0	0
2024-06-15 17:17:32			0	38044	0	0	0	25615	24190	135096	27180	1015499	42193	109477	0	0	8281	551007	0	0
2024-06-15 17:18:32			0	38049	0	0	0	25628	24200	135084	27343	1015516	42216	109482	0	0	8281	550781	0	0
2024-06-15 17:19:32			0	38048	0	0	0	25636	24210	135052	27057	1015525	42206	109485	0	0	8281	550789	0	0
2024-06-15 17:20:32			0	38059	0	0	0	25646	24210	135064	27518	1015525	42195	109489	0	0	8281	550360	0	0
2024-06-15 17:21:32			0	38075	0	0	0	25646	24220	135036	27353	1015542	42207	109489	0	0	8282	549704	0	0
2024-06-15 17:22:32			0	38047	0	0	0	25636	24220	135000	27315	1015550	42196	109485	0	0	8280	550797	0	0
2024-06-15 17:23:32			0	38067	0	0	0	25636	24220	135036	27111	1015577	42208	109485	0	0	8282	550016	0	0
2024-06-15 17:24:32			0	38079	0	0	0	25636	24220	135016	27274	1015568	42195	109485	0	0	8282	549548	0	0
2024-06-15 17:25:32			0	38082	0	0	0	25631	24220	134912	27426	1015595	42207	109483	0	0	8282	549431	0	0
2024-06-15 17:26:32			0	38080	0	0	0	25641	24230	134904	27241	1015639	42196	109487	0	0	8282	549478	0	0
2024-06-15 17:27:32			0	38087	0	0	0	25651	24220	134876	27253	1015604	42208	109491	0	0	8282	549236	0	0
2024-06-15 17:28:32			0	38072	0	0	0	25646	24240	134956	27263	1015665	42187	109489	0	0	8282	549759	0	0
2024-06-15 17:29:32			0	38089	0	0	0	25654	24240	134940	27303	1015656	42197	109492	0	0	8282	549096	0	0
2024-06-15 17:30:32			0	38102	0	0	0	25659	24240	134808	27303	1015629	42208	109494	0	0	8283	548590	0	0
2024-06-15 17:31:32			0	38100	0	0	0	25662	24250	134852	27206	1015700	42199	109495	0	0	8283	548637	0	0
2024-06-15 17:32:32			0	38109	0	0	0	25659	24240	134856	27255	1015691	42209	109494	0	0	8283	548317	0	0
2024-06-15 17:33:32			0	38115	0	0	0	25662	24250	134824	27391	1015673	42188	109495	0	0	8284	548052	0	0
2024-06-15 17:34:32			0	38140	0	0	0	25659	24240	134832	27260	1015691	42198	109494	0	0	8285	547111	0	0
2024-06-15 17:35:32			0	38127	0	0	0	25662	24250	134748	27348	1015682	42209	109495	0	0	8284	547585	0	0
2024-06-15 17:36:32			0	38114	0	0	0	25670	24240	134768	27183	1015745	42198	109498	0	0	8283	548122	0	0
2024-06-15 17:37:32			0	38124	0	0	0	25675	24240	134792	27060	1015798	42209	109500	0	0	8284	547733	0	0
2024-06-15 17:38:32			0	38137	0	0	0	25670	24260	134784	27308	1015771	42209	109498	0	0	8285	547165	0	0
2024-06-15 17:39:32			0	38148	0	0	0	25672	24260	134732	27265	1015717	42199	109499	0	0	8285	546738	0	0
2024-06-15 17:40:32			0	38155	0	0	0	25675	24250	134784	27161	1015789	42199	109500	0	0	8286	546497	0	0
2024-06-15 17:41:32			0	38157	0	0	0	25677	24260	134664	27206	1015726	42210	109501	0	0	8286	546388	0	0
2024-06-15 17:42:32			0	38165	0	0	0	25672	24250	134700	27421	1015735	42199	109499	0	0	8286	546108	0	0
2024-06-15 17:43:32			0	38182	0	0	0	25672	24260	134584	27116	1015726	42189	109499	0	0	8287	545417	0	0
2024-06-15 17:44:32			0	38171	0	0	0	25672	24270	134556	27173	1015734	42211	109499	0	0	8287	545813	0	0
2024-06-15 17:45:32			0	38185	0	0	0	25683	24270	134600	27244	1015788	42201	109503	0	0	8287	545270	0	0
2024-06-15 17:46:32			0	38195	0	0	0	25680	24260	134564	27360	1015806	42210	109502	0	0	8288	544913	0	0
2024-06-15 17:47:32			0	38199	0	0	0	25670	24280	134512	27228	1015805	42211	109498	0	0	8288	544696	0	0
2024-06-15 17:48:32			0	38212	0	0	0	25672	24280	134444	27124	1015805	42201	109499	0	0	8289	544192	0	0
2024-06-15 17:49:32			0	38202	0	0	0	25675	24290	134428	26878	1015795	42203	109500	0	0	8288	544549	0	0
2024-06-15 17:50:32			0	38232	0	0	0	25672	24280	134300	27201	1015832	42201	109499	0	0	8290	543417	0	0
2024-06-15 17:51:32			0	38226	0	0	0	25675	24280	134320	27222	1015805	42211	109500	0	0	8289	543650	0	0
2024-06-15 17:52:32			0	38252	0	0	0	25680	24280	134372	27164	1015814	42212	109502	0	0	8291	542643	0	0
2024-06-15 17:53:32			0	38263	0	0	0	25677	24260	134344	27230	1015779	42222	109501	0	0	8291	542279	0	0
2024-06-15 17:54:32			0	38294	0	0	0	25677	24270	134312	27208	1015823	42201	109501	0	0	8293	541051	0	0
2024-06-15 17:55:32			0	38284	0	0	0	25677	24280	134224	27100	1015867	42202	109501	0	0	8292	541406	0	0
2024-06-15 17:56:32			0	38298	0	0	0	25690	24270	134196	27116	1015841	42223	109506	0	0	8293	540896	0	0
2024-06-15 17:57:32			0	38293	0	0	0	25714	24290	134156	27078	1015911	42224	109515	0	0	8292	541028	0	0
2024-06-15 17:58:32			0	38304	0	0	0	25716	24290	134144	27216	1015938	42203	109516	0	0	8293	540603	0	0
2024-06-15 17:59:32			0	38288	0	0	0	25711	24300	134140	27407	1015947	42203	109514	0	0	8292	541191	0	0
2024-06-15 18:00:32			0	38294	0	0	0	25714	24290	134184	27353	1015902	42203	109515	0	0	8292	540990	0	0
2024-06-15 18:01:32			0	38271	0	0	0	25711	24300	134212	27150	1015893	42203	109514	0	0	8291	541847	0	0
2024-06-15 18:02:32			0	38272	0	0	0	25716	24300	134284	27606	1015973	42191	109516	0	0	8291	541809	0	0
2024-06-15 18:03:32			0	38282	0	0	0	25714	24290	134236	27085	1015857	42224	109515	0	0	8292	541453	0	0
2024-06-15 18:04:32			0	38288	0	0	0	25719	24310	134212	27232	1015991	42215	109517	0	0	8292	541160	0	0
2024-06-15 18:05:32			0	38304	0	0	0	25711	24310	134252	27390	1016044	42226	109514	0	0	8293	540542	0	0
2024-06-15 18:06:32			0	38282	0	0	0	25719	24320	134216	27376	1016008	42227	109517	0	0	8292	541361	0	0
2024-06-15 18:07:32			0	38272	0	0	0	25719	24330	134236	27389	1016017	42206	109517	0	0	8291	541717	0	0
2024-06-15 18:08:32			0	38297	0	0	0	25724	24320	134200	27230	1015973	42216	109519	0	0	8292	540782	0	0
2024-06-15 18:09:32			0	38296	0	0	0	25737	24310	134144	27348	1016044	42226	109524	0	0	8292	540851	0	0
2024-06-15 18:10:32			0	38299	0	0	0	25729	24330	134192	27332	1016079	42206	109521	0	0	8292	540674	0	0
2024-06-15 18:11:32			0	38291	0	0	0	25745	24330	134152	27187	1016070	42206	109527	0	0	8292	540983	0	0
2024-06-15 18:12:32			0	38314	0	0	0	25750	24340	134172	27026	1016176	42218	109529	0	0	8293	540065	0	0
2024-06-15 18:13:32			0	38328	0	0	0	25745	24330	134172	27234	1016105	42217	109527	0	0	8294	539556	0	0
2024-06-15 18:14:32			0	38345	0	0	0	25748	24340	134072	27312	1016060	42207	109528	0	0	8294	538870	0	0
2024-06-15 18:15:32			0	38377	0	0	0	25740	24330	134040	27157	1016043	42206	109525	0	0	8296	537669	0	0
2024-06-15 18:16:32			0	38362	0	0	0	25742	24330	133936	27365	1015998	42228	109526	0	0	8295	538246	0	0
2024-06-15 18:17:32			0	38379	0	0	0	25729	24330	133944	27045	1016025	42206	109521	0	0	8297	537592	0	0
2024-06-15 18:18:32			0	38403	0	0	0	25735	24320	133864	27157	1016008	42216	109523	0	0	8298	536700	0	0
2024-06-15 18:19:32			0	38425	0	0	0	25722	24330	133696	27268	1015963	42227	109518	0	0	8299	535825	0	0
2024-06-15 18:20:32			0	38424	0	0	0	25722	24320	133816	26927	1016008	42216	109518	0	0	8299	535893	0	0
2024-06-15 18:21:32			0	38441	0	0	0	25719	24320	133748	27076	1015999	42216	109517	0	0	8300	535241	0	0
2024-06-15 18:22:32			0	38449	0	0	0	25714	24320	133616	27093	1015973	42216	109515	0	0	8300	534934	0	0
2024-06-15 18:23:32			0	38438	0	0	0	25722	24320	133664	27331	1016008	42206	109518	0	0	8300	535356	0	0
2024-06-15 18:24:32			0	38471	0	0	0	25716	24320	133576	27405	1015955	42216	109516	0	0	8301	534091	0	0
2024-06-15 18:25:32			0	38453	0	0	0	25709	24320	133512	27092	1015946	42206	109513	0	0	8301	534781	0	0
2024-06-15 18:26:32			0	38467	0	0	0	25716	24320	133704	26922	1015973	42206	109516	0	0	8301	534244	0	0
2024-06-15 18:27:32			0	38463	0	0	0	25711	24320	133572	27350	1015981	42216	109514	0	0	8301	534398	0	0
2024-06-15 18:28:32			0	38469	0	0	0	25711	24320	133600	27124	1015946	42216	109514	0	0	8301	534168	0	0
2024-06-15 18:29:32			0	38470	0	0	0	25698	24310	133600	27336	1015911	42205	109509	0	0	8302	534160	0	0
2024-06-15 18:30:32			0	38462	0	0	0	25696	24300	133604	27008	1015902	42204	109508	0	0	8301	534496	0	0
2024-06-15 18:31:32			0	38470	0	0	0	25685	24290	133596	26831	1015849	42213	109504	0	0	8302	534220	0	0
2024-06-15 18:32:32			0	38487	0	0	0	25690	24290	133672	27246	1015884	42203	109506	0	0	8303	533569	0	0
2024-06-15 18:33:32			0	38483	0	0	0	25677	24290	133584	27114	1015795	42213	109501	0	0	8303	533722	0	0
2024-06-15 18:34:32			0	38459	0	0	0	25675	24290	133568	27329	1015795	42213	109500	0	0	8301	534641	0	0
2024-06-15 18:35:32			0	38484	0	0	0	25677	24280	133604	27443	1015805	42211	109501	0	0	8303	533714	0	0
2024-06-15 18:36:32			0	38455	0	0	0	25672	24280	133572	27189	1015840	42224	109499	0	0	8301	534825	0	0
2024-06-15 18:37:32			0	38473	0	0	0	25667	24280	133664	27253	1015760	42212	109497	0	0	8302	534135	0	0
2024-06-15 18:38:32			0	38466	0	0	0	25677	24280	133652	27090	1015787	42212	109501	0	0	8302	534403	0	0
2024-06-15 18:39:32			0	38465	0	0	0	25677	24270	133684	27128	1015877	42211	109501	0	0	8302	534472	0	0
2024-06-15 18:40:32			0	38483	0	0	0	25675	24280	133572	27083	1015858	42211	109500	0	0	8303	533752	0	0
2024-06-15 18:41:32			0	38493	0	0	0	25667	24270	133672	27119	1015770	42201	109497	0	0	8303	533399	0	0
2024-06-15 18:42:32			0	38487	0	0	0	25659	24270	133576	26833	1015734	42211	109494	0	0	8303	533629	0	0
2024-06-15 18:43:32			0	38478	0	0	0	25662	24260	133652	27268	1015753	42210	109495	0	0	8302	534004	0	0
2024-06-15 18:44:32			0	38495	0	0	0	25670	24260	133544	27228	1015744	42199	109498	0	0	8303	533353	0	0
2024-06-15 18:45:32			0	38510	0	0	0	25675	24270	133572	27206	1015788	42223	109500	0	0	8304	532749	0	0
2024-06-15 18:46:32			0	38478	0	0	0	25667	24270	133612	27067	1015770	42211	109497	0	0	8302	533974	0	0
2024-06-15 18:47:32			0	38492	0	0	0	25677	24260	133596	27410	1015779	42200	109501	0	0	8303	533468	0	0
2024-06-15 18:48:32			0	38508	0	0	0	25667	24250	133720	27429	1015789	42209	109497	0	0	8304	532886	0	0
2024-06-15 18:49:32			0	38492	0	0	0	25672	24280	133620	27211	1015752	42223	109499	0	0	8303	533407	0	0
2024-06-15 18:50:32			0	38499	0	0	0	25659	24270	133612	26866	1015734	42223	109494	0	0	8304	533170	0	0
2024-06-15 18:51:32			0	38493	0	0	0	25654	24270	133600	27199	1015734	42201	109492	0	0	8303	533399	0	0
2024-06-15 18:52:32			0	38511	0	0	0	25644	24250	133604	26842	1015655	42209	109488	0	0	8304	532771	0	0
2024-06-15 18:53:32			0	38493	0	0	0	25646	24250	133584	26791	1015709	42221	109489	0	0	8303	533460	0	0
2024-06-15 18:54:32			0	38522	0	0	0	25651	24250	133576	26854	1015834	42232	109491	0	0	8305	532350	0	0
2024-06-15 18:55:32			0	38520	0	0	0	25651	24250	133624	27053	1015754	42199	109491	0	0	8305	532427	0	0
2024-06-15 18:56:32			0	38522	0	0	0	25649	24250	133616	26622	1015700	42199	109490	0	0	8305	532350	0	0
2024-06-15 18:57:32			0	38534	0	0	0	25625	24240	133708	26987	1015585	42187	109481	0	0	8306	531921	0	0
2024-06-15 18:58:32			0	38498	0	0	0	25628	24240	133524	27270	1015611	42198	109482	0	0	8304	533298	0	0
2024-06-15 18:59:32			0	38509	0	0	0	25623	24230	133540	26894	1015505	42196	109480	0	0	8305	532907	0	0
2024-06-15 19:00:32			0	38517	0	0	0	25610	24230	133596	27275	1015505	42196	109475	0	0	8305	532601	0	0
2024-06-15 19:01:32			0	38538	0	0	0	25592	24230	133640	27036	1015505	42196	109468	0	0	8307	531799	0	0
2024-06-15 19:02:32			0	38515	0	0	0	25605	24210	133488	27090	1015533	42206	109473	0	0	8305	532738	0	0
2024-06-15 19:03:32			0	38523	0	0	0	25610	24220	133616	27064	1015684	42218	109475	0	0	8306	532402	0	0
2024-06-15 19:04:32			0	38508	0	0	0	25646	24230	133480	26852	1015693	42229	109489	0	0	8304	532946	0	0
2024-06-15 19:05:32			0	38511	0	0	0	25670	24240	133576	27123	1015772	42231	109498	0	0	8304	532801	0	0
2024-06-15 19:06:32			0	38515	0	0	0	25672	24240	133520	26800	1015718	42220	109499	0	0	8304	532648	0	0
2024-06-15 19:07:32			0	38513	0	0	0	25688	24260	133500	27187	1015797	42209	109505	0	0	8304	532664	0	0
2024-06-15 19:08:32			0	38517	0	0	0	25683	24270	133584	27104	1015823	42234	109503	0	0	8304	532481	0	0
2024-06-15 19:09:32			0	38504	0	0	0	25688	24270	133564	27012	1015841	42223	109505	0	0	8303	532978	0	0
2024-06-15 19:10:32			0	38503	0	0	0	25696	24260	133548	27326	1015797	42199	109508	0	0	8303	533047	0	0
2024-06-15 19:11:32			0	38516	0	0	0	25685	24270	133620	27419	1015868	42201	109504	0	0	8304	532519	0	0
2024-06-15 19:12:32			0	38517	0	0	0	25690	24260	133592	27012	1015833	42222	109506	0	0	8304	532511	0	0
2024-06-15 19:13:32			0	38501	0	0	0	25698	24270	133604	26857	1015868	42223	109509	0	0	8303	533093	0	0
2024-06-15 19:14:32			0	38509	0	0	0	25698	24280	133580	27225	1015885	42211	109509	0	0	8304	532757	0	0
2024-06-15 19:15:32			0	38488	0	0	0	25698	24260	133584	27055	1015806	42222	109509	0	0	8302	533621	0	0
2024-06-15 19:16:32			0	38496	0	0	0	25698	24260	133532	26989	1015833	42200	109509	0	0	8303	533315	0	0
2024-06-15 19:17:32			0	38499	0	0	0	25680	24280	133580	27144	1015832	42234	109502	0	0	8303	533140	0	0
2024-06-15 19:18:32			0	38491	0	0	0	25680	24280	133648	27020	1015867	42212	109502	0	0	8303	533446	0	0
2024-06-15 19:19:32			0	38497	0	0	0	25685	24280	133520	26592	1015867	42224	109504	0	0	8303	533216	0	0
2024-06-15 19:20:32			0	38503	0	0	0	25690	24260	133688	26928	1015771	42221	109506	0	0	8303	533047	0	0
2024-06-15 19:21:32			0	38470	0	0	0	25677	24290	133612	26972	1015822	42213	109501	0	0	8302	534220	0	0
2024-06-15 19:22:32			0	38480	0	0	0	25677	24270	133688	27176	1015796	42211	109501	0	0	8302	533897	0	0
2024-06-15 19:23:32			0	38475	0	0	0	25688	24280	133720	27336	1015894	42224	109505	0	0	8302	534059	0	0
2024-06-15 19:24:32			0	38467	0	0	0	25683	24280	133716	27277	1015894	42235	109503	0	0	8302	534365	0	0
2024-06-15 19:25:32			0	38487	0	0	0	25688	24280	133700	27126	1015832	42223	109505	0	0	8303	533599	0	0
2024-06-15 19:26:32			0	38474	0	0	0	25672	24270	133676	27303	1015796	42211	109499	0	0	8302	534127	0	0
2024-06-15 19:27:32			0	38467	0	0	0	25680	24280	133684	27509	1015867	42212	109502	0	0	8302	534365	0	0
2024-06-15 19:28:32			0	38462	0	0	0	25680	24270	133680	27428	1015796	42211	109502	0	0	8301	534587	0	0
2024-06-15 19:29:32			0	38468	0	0	0	25688	24250	133700	27149	1015842	42209	109505	0	0	8301	534417	0	0
2024-06-15 19:30:32			0	38453	0	0	0	25677	24270	133700	26890	1015823	42211	109501	0	0	8301	534932	0	0
2024-06-15 19:31:32			0	38445	0	0	0	25677	24290	133740	27116	1015822	42224	109501	0	0	8301	535178	0	0
2024-06-15 19:32:32			0	38453	0	0	0	25688	24280	133772	27230	1015814	42212	109505	0	0	8301	534902	0	0
2024-06-15 19:33:32			0	38451	0	0	0	25683	24280	133816	26922	1015805	42223	109503	0	0	8301	534978	0	0
2024-06-15 19:34:32			0	38432	0	0	0	25670	24270	133800	27033	1015788	42211	109498	0	0	8300	535738	0	0
2024-06-15 19:35:32			0	38438	0	0	0	25677	24280	133816	27013	1015805	42223	109501	0	0	8300	535477	0	0
2024-06-15 19:36:32			0	38438	0	0	0	25672	24260	133816	27440	1015779	42222	109499	0	0	8300	535538	0	0
2024-06-15 19:37:32			0	38422	0	0	0	25664	24260	133768	27164	1015779	42210	109496	0	0	8300	536152	0	0
2024-06-15 19:38:32			0	38429	0	0	0	25659	24280	133780	27483	1015805	42211	109494	0	0	8300	535822	0	0
2024-06-15 19:39:32			0	38413	0	0	0	25662	24270	133828	27312	1015788	42211	109495	0	0	8299	536467	0	0
2024-06-15 19:40:32			0	38415	0	0	0	25657	24260	133888	27242	1015717	42209	109493	0	0	8299	536421	0	0
2024-06-15 19:41:32			0	38405	0	0	0	25654	24260	133808	26987	1015824	42221	109492	0	0	8299	536805	0	0
2024-06-15 19:42:32			0	38388	0	0	0	25651	24260	133916	26885	1015690	42209	109491	0	0	8298	537458	0	0
2024-06-15 19:43:32			0	38405	0	0	0	25667	24260	133920	27017	1015717	42209	109497	0	0	8299	536805	0	0
2024-06-15 19:44:32			0	38392	0	0	0	25657	24250	133940	26996	1015735	42209	109493	0	0	8298	537335	0	0
2024-06-15 19:45:32			0	38347	0	0	0	25651	24260	134052	27088	1015744	42221	109491	0	0	8296	539037	0	0
2024-06-15 19:46:32			0	38307	0	0	0	25649	24250	134224	26802	1015754	42221	109490	0	0	8294	540610	0	0
2024-06-15 19:47:32			0	38238	0	0	0	25651	24250	134448	26764	1015754	42209	109491	0	0	8290	543277	0	0
2024-06-15 19:48:32			0	38184	0	0	0	25657	24250	134676	27144	1015682	42221	109493	0	0	8287	545370	0	0
2024-06-15 19:49:32			0	38061	0	0	0	25654	24260	134956	27124	1015744	42221	109492	0	0	8281	550126	0	0
2024-06-15 19:50:32			0	37976	0	0	0	25657	24250	135307	27303	1015700	42199	109493	0	0	8277	553480	0	0
2024-06-15 19:51:32			0	37876	0	0	0	25654	24240	135675	27237	1015683	42208	109492	0	0	8271	557438	0	0
2024-06-15 19:52:32			0	37821	0	0	0	25649	24240	135891	26899	1015691	42231	109490	0	0	8269	559605	0	0
2024-06-15 19:53:32			0	37736	0	0	0	25641	24250	136119	27261	1015700	42209	109487	0	0	8264	562932	0	0
2024-06-15 19:54:32			0	37676	0	0	0	25641	24240	136251	26894	1015629	42219	109487	0	0	8261	565343	0	0
2024-06-15 19:55:32			0	37624	0	0	0	25633	24240	136555	27052	1015656	42219	109484	0	0	8259	567410	0	0
2024-06-15 19:56:32			0	37595	0	0	0	25636	24240	136659	27048	1015629	42219	109485	0	0	8257	568565	0	0
2024-06-15 19:57:32			0	37555	0	0	0	25631	24240	136747	27183	1015683	42219	109483	0	0	8255	570161	0	0
2024-06-15 19:58:32			0	37515	0	0	0	25623	24220	136967	27218	1015604	42208	109480	0	0	8253	571824	0	0
2024-06-15 19:59:32			0	37480	0	0	0	25636	24220	137095	27041	1015550	42208	109485	0	0	8251	573225	0	0
2024-06-15 20:00:32			0	37473	0	0	0	25641	24220	137203	26821	1015657	42229	109487	0	0	8251	573505	0	0
2024-06-15 20:01:32			0	37403	0	0	0	25631	24240	137383	26965	1015629	42242	109483	0	0	8247	576250	0	0
2024-06-15 20:02:32			0	37392	0	0	0	25633	24220	137499	26812	1015657	42229	109484	0	0	8247	576758	0	0
2024-06-15 20:03:32			0	37349	0	0	0	25636	24220	137587	26746	1015657	42218	109485	0	0	8244	578489	0	0
2024-06-15 20:04:32			0	37329	0	0	0	25631	24230	137767	27069	1015594	42219	109483	0	0	8243	579263	0	0
2024-06-15 20:05:32			0	37316	0	0	0	25628	24230	137919	27267	1015666	42208	109482	0	0	8243	579787	0	0
2024-06-15 20:06:32			0	37288	0	0	0	25628	24210	137918	26828	1015613	42216	109482	0	0	8241	580984	0	0
2024-06-15 20:07:32			0	37264	0	0	0	25620	24220	138026	26680	1015595	42217	109479	0	0	8240	581922	0	0
2024-06-15 20:08:32			0	37244	0	0	0	25620	24220	137970	26963	1015568	42207	109479	0	0	8239	582732	0	0
2024-06-15 20:09:32			0	37222	0	0	0	25612	24220	138122	27218	1015568	42207	109476	0	0	8238	583623	0	0
2024-06-15 20:10:32			0	37218	0	0	0	25615	24210	138170	26842	1015525	42216	109477	0	0	8238	583818	0	0
2024-06-15 20:11:32			0	37189	0	0	0	25618	24210	138194	27052	1015498	42206	109478	0	0	8236	584995	0	0
2024-06-15 20:12:32			0	37186	0	0	0	25612	24210	138186	27274	1015498	42216	109476	0	0	8236	585117	0	0
2024-06-15 20:13:32			0	37158	0	0	0	25610	24200	138314	27164	1015596	42206	109475	0	0	8235	586287	0	0
2024-06-15 20:14:32			0	37158	0	0	0	25612	24210	138358	26909	1015525	42216	109476	0	0	8235	586254	0	0
2024-06-15 20:15:32			0	37150	0	0	0	25599	24210	138418	27010	1015498	42206	109471	0	0	8235	586580	0	0
2024-06-15 20:16:32			0	37128	0	0	0	25612	24210	138494	27034	1015578	42206	109476	0	0	8233	587475	0	0
2024-06-15 20:17:32			0	37113	0	0	0	25615	24200	138538	27107	1015516	42216	109477	0	0	8232	588119	0	0
2024-06-15 20:18:32			0	37091	0	0	0	25610	24210	138610	27059	1015525	42216	109475	0	0	8231	588983	0	0
2024-06-15 20:19:32			0	37090	0	0	0	25602	24210	138582	27173	1015631	42227	109472	0	0	8231	589024	0	0
2024-06-15 20:20:32			0	37059	0	0	0	25605	24200	138694	26927	1015489	42216	109473	0	0	8230	590323	0	0
2024-06-15 20:21:32			0	37040	0	0	0	25602	24200	138818	27118	1015516	42206	109472	0	0	8229	591099	0	0
2024-06-15 20:22:32			0	37067	0	0	0	25605	24200	138786	26882	1015454	42215	109473	0	0	8230	589996	0	0
2024-06-15 20:23:32			0	37048	0	0	0	25597	24200	138778	26904	1015481	42194	109470	0	0	8229	590772	0	0
2024-06-15 20:24:32			0	37063	0	0	0	25602	24190	138814	27317	1015499	42226	109472	0	0	8230	590192	0	0
2024-06-15 20:25:32			0	37038	0	0	0	25599	24190	138750	27109	1015517	42214	109471	0	0	8229	591214	0	0
2024-06-15 20:26:32			0	37029	0	0	0	25594	24190	138914	27003	1015445	42214	109469	0	0	8228	591582	0	0
2024-06-15 20:27:32			0	37018	0	0	0	25592	24190	138954	27194	1015437	42204	109468	0	0	8228	592032	0	0
2024-06-15 20:28:32			0	37003	0	0	0	25592	24190	138890	26894	1015490	42193	109468	0	0	8227	592647	0	0
2024-06-15 20:29:32			0	37001	0	0	0	25589	24190	138914	26826	1015437	42214	109467	0	0	8227	592728	0	0
2024-06-15 20:30:32			0	37000	0	0	0	25597	24180	138894	26812	1015374	42214	109470	0	0	8227	592803	0	0
2024-06-15 20:31:32			0	37004	0	0	0	25581	24180	138842	26821	1015393	42213	109464	0	0	8227	592639	0	0
2024-06-15 20:32:32			0	37006	0	0	0	25584	24190	138922	26871	1015490	42214	109465	0	0	8227	592524	0	0
2024-06-15 20:33:32			0	37007	0	0	0	25589	24180	139026	27066	1015419	42213	109467	0	0	8227	592516	0	0
2024-06-15 20:34:32			0	36983	0	0	0	25584	24180	139074	27196	1015428	42214	109465	0	0	8226	593500	0	0
2024-06-15 20:35:32			0	36972	0	0	0	25589	24190	139018	27336	1015437	42214	109467	0	0	8225	593917	0	0
2024-06-15 20:36:32			0	36978	0	0	0	25586	24170	138994	26942	1015384	42213	109466	0	0	8226	593738	0	0
2024-06-15 20:37:32			0	36968	0	0	0	25581	24170	139078	26876	1015357	42191	109464	0	0	8225	594148	0	0
2024-06-15 20:38:32			0	36966	0	0	0	25584	24180	139014	26955	1015339	42203	109465	0	0	8225	594197	0	0
2024-06-15 20:39:32			0	36963	0	0	0	25579	24170	139054	27123	1015411	42202	109463	0	0	8225	594353	0	0
2024-06-15 20:40:32			0	36971	0	0	0	25576	24180	138974	26918	1015366	42192	109462	0	0	8225	593992	0	0
2024-06-15 20:41:32			0	36952	0	0	0	25571	24180	139018	27000	1015366	42213	109460	0	0	8225	594772	0	0
2024-06-15 20:42:32			0	36966	0	0	0	25573	24180	139078	27203	1015393	42213	109461	0	0	8225	594197	0	0
2024-06-15 20:43:32			0	36966	0	0	0	25573	24160	139038	26771	1015385	42201	109461	0	0	8225	594264	0	0
2024-06-15 20:44:32			0	36990	0	0	0	25563	24160	139010	26906	1015331	42212	109457	0	0	8227	593280	0	0
2024-06-15 20:45:32			0	36954	0	0	0	25571	24170	138986	27019	1015384	42213	109460	0	0	8225	594723	0	0
2024-06-15 20:46:32			0	36977	0	0	0	25568	24170	138998	27199	1015349	42213	109459	0	0	8226	593779	0	0
2024-06-15 20:47:32			0	36981	0	0	0	25566	24170	139026	27041	1015295	42202	109458	0	0	8226	593615	0	0
2024-06-15 20:48:32			0	36983	0	0	0	25568	24170	139034	26982	1015349	42224	109459	0	0	8226	593533	0	0
2024-06-15 20:49:32			0	36972	0	0	0	25563	24160	139002	27183	1015331	42201	109457	0	0	8226	594018	0	0
2024-06-15 20:50:32			0	36975	0	0	0	25561	24150	139050	26885	1015296	42211	109456	0	0	8226	593928	0	0
2024-06-15 20:51:32			0	36995	0	0	0	25550	24160	139002	26958	1015305	42212	109452	0	0	8227	593075	0	0
2024-06-15 20:52:32			0	36998	0	0	0	25553	24160	138910	27031	1015305	42201	109453	0	0	8227	592952	0	0
2024-06-15 20:53:32			0	37013	0	0	0	25550	24140	138906	26975	1015226	42210	109452	0	0	8228	592404	0	0
2024-06-15 20:54:32			0	37023	0	0	0	25550	24150	138926	27107	1015261	42200	109452	0	0	8228	591961	0	0
2024-06-15 20:55:32			0	37030	0	0	0	25545	24150	138874	26838	1015234	42222	109450	0	0	8229	591675	0	0
2024-06-15 20:56:32			0	37031	0	0	0	25542	24150	138890	27255	1015261	42200	109449	0	0	8229	591634	0	0
2024-06-15 20:57:32			0	37043	0	0	0	25545	24140	138826	26847	1015199	42210	109450	0	0	8230	591177	0	0
2024-06-15 20:58:32			0	37053	0	0	0	25545	24150	138806	27043	1015234	42200	109450	0	0	8230	590734	0	0
2024-06-15 20:59:32			0	37070	0	0	0	25545	24150	138766	27015	1015261	42211	109450	0	0	8231	590040	0	0
2024-06-15 21:00:32			0	37049	0	0	0	25537	24150	138782	26963	1015234	42211	109447	0	0	8230	590898	0	0
2024-06-15 21:01:32			0	37077	0	0	0	25537	24150	138742	26937	1015207	42200	109447	0	0	8232	589754	0	0
2024-06-15 21:02:32			0	37092	0	0	0	25522	24130	138714	26939	1015128	42199	109441	0	0	8232	589208	0	0
2024-06-15 21:03:32			0	37090	0	0	0	25527	24130	138690	26970	1015182	42209	109443	0	0	8232	589290	0	0
2024-06-15 21:04:32			0	37094	0	0	0	25514	24120	138614	27123	1015084	42208	109438	0	0	8233	589160	0	0
2024-06-15 21:05:32			0	37101	0	0	0	25514	24130	138590	27022	1015093	42198	109438	0	0	8233	588841	0	0
2024-06-15 21:06:32			0	37112	0	0	0	25509	24120	138546	26989	1015076	42208	109436	0	0	8234	588426	0	0
2024-06-15 21:07:32			0	37117	0	0	0	25509	24120	138502	27092	1015129	42208	109436	0	0	8234	588222	0	0
2024-06-15 21:08:32			0	37119	0	0	0	25506	24130	138586	26949	1015200	42198	109435	0	0	8234	588107	0	0
2024-06-15 21:09:32			0	37112	0	0	0	25522	24120	138514	26977	1015156	42208	109441	0	0	8233	588426	0	0
2024-06-15 21:10:32			0	37126	0	0	0	25519	24120	138474	26951	1015156	42208	109440	0	0	8234	587855	0	0
2024-06-15 21:11:32			0	37145	0	0	0	25524	24130	138530	27043	1015173	42198	109442	0	0	8235	587048	0	0
2024-06-15 21:12:32			0	37137	0	0	0	25540	24120	138558	26922	1015156	42208	109448	0	0	8234	587407	0	0
2024-06-15 21:13:32			0	37129	0	0	0	25529	24120	138494	26908	1015209	42219	109444	0	0	8234	587733	0	0
2024-06-15 21:14:32			0	37141	0	0	0	25535	24120	138498	27088	1015156	42208	109446	0	0	8235	587244	0	0
2024-06-15 21:15:32			0	37130	0	0	0	25537	24120	138534	26968	1015138	42219	109447	0	0	8234	587692	0	0
2024-06-15 21:16:32			0	37137	0	0	0	25532	24120	138574	27348	1015165	42219	109445	0	0	8235	587407	0	0
2024-06-15 21:17:32			0	37153	0	0	0	25535	24110	138538	27232	1015147	42208	109446	0	0	8235	586789	0	0
2024-06-15 21:18:32			0	37141	0	0	0	25529	24120	138406	27093	1015183	42208	109444	0	0	8235	587244	0	0
2024-06-15 21:19:32			0	37151	0	0	0	25529	24120	138478	27029	1015111	42198	109444	0	0	8235	586837	0	0
2024-06-15 21:20:32			0	37173	0	0	0	25527	24110	138438	27230	1015201	42185	109443	0	0	8237	585975	0	0
2024-06-15 21:21:32			0	37164	0	0	0	25529	24120	138394	27008	1015129	42198	109444	0	0	8236	586308	0	0
2024-06-15 21:22:32			0	37163	0	0	0	25524	24120	138434	27088	1015165	42208	109442	0	0	8236	586349	0	0
2024-06-15 21:23:32			0	37173	0	0	0	25519	24110	138446	27048	1015147	42185	109440	0	0	8237	585975	0	0
2024-06-15 21:24:32			0	37194	0	0	0	25535	24130	138358	27206	1015200	42208	109446	0	0	8238	585056	0	0
2024-06-15 21:25:32			0	37184	0	0	0	25522	24110	138310	27341	1015121	42218	109441	0	0	8237	585528	0	0
2024-06-15 21:26:32			0	37185	0	0	0	25524	24120	138354	27234	1015156	42208	109442	0	0	8237	585454	0	0
2024-06-15 21:27:32			0	37189	0	0	0	25511	24110	138398	27421	1015085	42207	109437	0	0	8238	585325	0	0
2024-06-15 21:28:32			0	37191	0	0	0	25509	24120	138362	27013	1015103	42198	109436	0	0	8238	585211	0	0
2024-06-15 21:29:32			0	37182	0	0	0	25519	24110	138330	27455	1015094	42185	109440	0	0	8237	585609	0	0
2024-06-15 21:30:32			0	37214	0	0	0	25511	24110	138286	27003	1015067	42208	109437	0	0	8239	584310	0	0
2024-06-15 21:31:32			0	37224	0	0	0	25511	24110	138322	27334	1015121	42197	109437	0	0	8239	583904	0	0
2024-06-15 21:32:32			0	37228	0	0	0	25516	24100	138302	27157	1015023	42207	109439	0	0	8240	583775	0	0
2024-06-15 21:33:32			0	37243	0	0	0	25509	24110	138154	27154	1015059	42217	109436	0	0	8240	583134	0	0
2024-06-15 21:34:32			0	37239	0	0	0	25503	24110	138094	27180	1015032	42207	109434	0	0	8240	583296	0	0
2024-06-15 21:35:32			0	37244	0	0	0	25509	24110	138146	27345	1015085	42207	109436	0	0	8241	583093	0	0
2024-06-15 21:36:32			0	37244	0	0	0	25503	24100	138210	27319	1015095	42206	109434	0	0	8241	583126	0	0
2024-06-15 21:37:32			0	37252	0	0	0	25498	24100	138098	27319	1015068	42206	109432	0	0	8241	582802	0	0
2024-06-15 21:38:32			0	37258	0	0	0	25503	24090	138146	27270	1015033	42206	109434	0	0	8241	582592	0	0
2024-06-15 21:39:32			0	37257	0	0	0	25501	24090	138102	27267	1015051	42205	109433	0	0	8241	582632	0	0
2024-06-15 21:40:32			0	37266	0	0	0	25496	24090	138078	27369	1015051	42194	109431	0	0	8242	582268	0	0
2024-06-15 21:41:32			0	37277	0	0	0	25506	24100	138110	27170	1015050	42196	109435	0	0	8242	581790	0	0
2024-06-15 21:42:32			0	37300	0	0	0	25496	24090	138030	27377	1015060	42206	109431	0	0	8244	580892	0	0
2024-06-15 21:43:32			0	37301	0	0	0	25501	24090	138014	27253	1015033	42195	109433	0	0	8244	580852	0	0
2024-06-15 21:44:32			0	37296	0	0	0	25498	24090	137966	27324	1014971	42205	109432	0	0	8243	581054	0	0
2024-06-15 21:45:32			0	37310	0	0	0	25503	24100	137994	27041	1015068	42206	109434	0	0	8244	580455	0	0
2024-06-15 21:46:32			0	37307	0	0	0	25490	24090	137902	27026	1015024	42205	109429	0	0	8244	580609	0	0
2024-06-15 21:47:32			0	37323	0	0	0	25501	24090	137875	27197	1015024	42205	109433	0	0	8245	579963	0	0
2024-06-15 21:48:32			0	37333	0	0	0	25501	24080	137859	27260	1014989	42227	109433	0	0	8245	579592	0	0
2024-06-15 21:49:32			0	37339	0	0	0	25498	24090	137707	27131	1015033	42206	109432	0	0	8246	579317	0	0
2024-06-15 21:50:32			0	37335	0	0	0	25485	24090	137971	27150	1015024	42205	109427	0	0	8246	579479	0	0
2024-06-15 21:51:32			0	37343	0	0	0	25493	24090	137851	26817	1015024	42205	109430	0	0	8246	579156	0	0
2024-06-15 21:52:32			0	37347	0	0	0	25480	24080	137855	26706	1014980	42193	109425	0	0	8246	579027	0	0
2024-06-15 21:53:32			0	37347	0	0	0	25488	24090	137843	27034	1014917	42194	109428	0	0	8246	578994	0	0
2024-06-15 21:54:32			0	37355	0	0	0	25477	24090	137799	27251	1014953	42206	109424	0	0	8247	578672	0	0
2024-06-15 21:55:32			0	37375	0	0	0	25477	24070	137791	26960	1014838	42204	109424	0	0	8248	577931	0	0
2024-06-15 21:56:32			0	37393	0	0	0	25472	24070	137755	27150	1014918	42204	109422	0	0	8249	577206	0	0
2024-06-15 21:57:32			0	37371	0	0	0	25470	24080	137743	26949	1014874	42204	109421	0	0	8248	578060	0	0
2024-06-15 21:58:32			0	37403	0	0	0	25477	24080	137627	27010	1014900	42204	109424	0	0	8249	576771	0	0
2024-06-15 21:59:32			0	37393	0	0	0	25454	24060	137651	27301	1014875	42203	109415	0	0	8249	577238	0	0
2024-06-15 22:00:32			0	37379	0	0	0	25470	24070	137643	27149	1014830	42214	109421	0	0	8248	577770	0	0
2024-06-15 22:01:32			0	37389	0	0	0	25459	24050	137631	26899	1014857	42202	109417	0	0	8249	577432	0	0
2024-06-15 22:02:32			0	37406	0	0	0	25462	24060	137531	27154	1014785	42191	109418	0	0	8250	576715	0	0
2024-06-15 22:03:32			0	37404	0	0	0	25454	24050	137563	27131	1014777	42223	109415	0	0	8250	576828	0	0
2024-06-15 22:04:32			0	37427	0	0	0	25444	24050	137567	27322	1014768	42190	109411	0	0	8251	575903	0	0
2024-06-15 22:05:32			0	37418	0	0	0	25436	24050	137567	26748	1014715	42202	109408	0	0	8251	576265	0	0
2024-06-15 22:06:32			0	37415	0	0	0	25436	24050	137479	26941	1014777	42202	109408	0	0	8250	576386	0	0
2024-06-15 22:07:32			0	37445	0	0	0	25425	24040	137475	27166	1014760	42212	109404	0	0	8252	575212	0	0
2024-06-15 22:08:32			0	37448	0	0	0	25425	24030	137479	27078	1014725	42201	109404	0	0	8252	575124	0	0
2024-06-15 22:09:32			0	37456	0	0	0	25415	24020	137495	27116	1014681	42188	109400	0	0	8253	574835	0	0
2024-06-15 22:10:32			0	37466	0	0	0	25399	24020	137395	27126	1014681	42200	109394	0	0	8254	574434	0	0
2024-06-15 22:11:32			0	37469	0	0	0	25394	24020	137331	27142	1014592	42188	109392	0	0	8254	574313	0	0
2024-06-15 22:12:32			0	37478	0	0	0	25394	24010	137327	27171	1014575	42208	109392	0	0	8254	573985	0	0
2024-06-15 22:13:32			0	37477	0	0	0	25389	24000	137243	27315	1014539	42187	109390	0	0	8254	574057	0	0
2024-06-15 22:14:32			0	37485	0	0	0	25376	23990	137267	27393	1014496	42197	109385	0	0	8255	573769	0	0
2024-06-15 22:15:32			0	37479	0	0	0	25376	23990	137283	27001	1014469	42174	109385	0	0	8254	574009	0	0
2024-06-15 22:16:32			0	37490	0	0	0	25371	23990	137235	27332	1014487	42196	109383	0	0	8255	573568	0	0
2024-06-15 22:17:32			0	37508	0	0	0	25361	23980	137183	26920	1014478	42195	109379	0	0	8256	572879	0	0
2024-06-15 22:18:32			0	37535	0	0	0	25361	23980	137255	27000	1014452	42195	109379	0	0	8258	571798	0	0
2024-06-15 22:19:32			0	37511	0	0	0	25355	23980	137215	27324	1014443	42184	109377	0	0	8256	572759	0	0
2024-06-15 22:20:32			0	37511	0	0	0	25353	23980	137195	27319	1014425	42184	109376	0	0	8257	572759	0	0
2024-06-15 22:21:32			0	37538	0	0	0	25350	23970	137119	27246	1014373	42172	109375	0	0	8258	571710	0	0
2024-06-15 22:22:32			0	37544	0	0	0	25345	23970	137119	27116	1014426	42194	109373	0	0	8258	571470	0	0
2024-06-15 22:23:32			0	37526	0	0	0	25361	23960	137155	27265	1014471	42182	109379	0	0	8257	572223	0	0
2024-06-15 22:24:32			0	37549	0	0	0	25363	23960	137111	27123	1014471	42182	109380	0	0	8258	571302	0	0
2024-06-15 22:25:32			0	37535	0	0	0	25368	23970	137127	26902	1014426	42194	109382	0	0	8257	571830	0	0
2024-06-15 22:26:32			0	37550	0	0	0	25371	23970	137111	27511	1014435	42195	109383	0	0	8258	571230	0	0
2024-06-15 22:27:32			0	37537	0	0	0	25374	23970	137111	27102	1014373	42194	109384	0	0	8257	571750	0	0
2024-06-15 22:28:32			0	37565	0	0	0	25371	23970	137075	26857	1014453	42194	109383	0	0	8259	570630	0	0
2024-06-15 22:29:32			0	37544	0	0	0	25361	23970	137095	27090	1014373	42194	109379	0	0	8258	571470	0	0
2024-06-15 22:30:32			0	37539	0	0	0	25366	23970	137123	27027	1014479	42183	109381	0	0	8258	571670	0	0
2024-06-15 22:31:32			0	37555	0	0	0	25374	23980	137103	26781	1014497	42184	109384	0	0	8258	570998	0	0
2024-06-15 22:32:32			0	37568	0	0	0	25371	23970	137023	27206	1014435	42195	109383	0	0	8259	570510	0	0
2024-06-15 22:33:32			0	37571	0	0	0	25358	23960	136979	27209	1014436	42193	109378	0	0	8259	570423	0	0
2024-06-15 22:34:32			0	37577	0	0	0	25361	23960	137003	27239	1014417	42193	109379	0	0	8260	570183	0	0
2024-06-15 22:35:32			0	37572	0	0	0	25358	23960	137015	27227	1014409	42193	109378	0	0	8260	570383	0	0
2024-06-15 22:36:32			0	37572	0	0	0	25363	23960	136991	27201	1014382	42193	109380	0	0	8259	570383	0	0
2024-06-15 22:37:32			0	37550	0	0	0	25366	23960	137051	26991	1014417	42205	109381	0	0	8258	571262	0	0
2024-06-15 22:38:32			0	37599	0	0	0	25361	23960	136983	27055	1014391	42205	109379	0	0	8261	569305	0	0
2024-06-15 22:39:32			0	37600	0	0	0	25371	23960	137039	26951	1014409	42215	109383	0	0	8261	569265	0	0
2024-06-15 22:40:32			0	37602	0	0	0	25363	23950	137003	27230	1014347	42215	109380	0	0	8261	569217	0	0
2024-06-15 22:41:32			0	37580	0	0	0	25368	23960	137035	27001	1014409	42205	109382	0	0	8260	570063	0	0
2024-06-15 22:42:32			0	37603	0	0	0	25368	23960	137067	26844	1014436	42171	109382	0	0	8261	569145	0	0
2024-06-15 22:43:32			0	37591	0	0	0	25366	23950	137135	27157	1014427	42193	109381	0	0	8260	569656	0	0
2024-06-15 22:44:32			0	37597	0	0	0	25358	23950	136963	27052	1014400	42193	109378	0	0	8261	569416	0	0
2024-06-15 22:45:32			0	37585	0	0	0	25355	23950	137043	26944	1014427	42182	109377	0	0	8260	569896	0	0
2024-06-15 22:46:32			0	37582	0	0	0	25358	23950	137075	26923	1014374	42171	109378	0	0	8260	570015	0	0
2024-06-15 22:47:32			0	37585	0	0	0	25353	23950	137027	26901	1014400	42193	109376	0	0	8260	569896	0	0
2024-06-15 22:48:32			0	37580	0	0	0	25353	23960	136999	26819	1014471	42193	109376	0	0	8260	570063	0	0
2024-06-15 22:49:32			0	37562	0	0	0	25366	23950	137035	27010	1014374	42193	109381	0	0	8259	570814	0	0
2024-06-15 22:50:32			0	37576	0	0	0	25350	23950	136983	27029	1014374	42205	109375	0	0	8260	570255	0	0
2024-06-15 22:51:32			0	37581	0	0	0	25353	23950	137043	26986	1014454	42205	109376	0	0	8260	570055	0	0
2024-06-15 22:52:32			0	37584	0	0	0	25353	23950	136951	26746	1014400	42182	109376	0	0	8260	569935	0	0
2024-06-15 22:53:32			0	37587	0	0	0	25358	23950	137023	26927	1014374	42193	109378	0	0	8260	569816	0	0
2024-06-15 22:54:32			0	37592	0	0	0	25361	23960	137039	26734	1014382	42193	109379	0	0	8260	569584	0	0
2024-06-15 22:55:32			0	37586	0	0	0	25348	23940	137087	27152	1014356	42180	109374	0	0	8260	569888	0	0
2024-06-15 22:56:32			0	37571	0	0	0	25345	23950	137099	27045	1014400	42193	109373	0	0	8260	570455	0	0
2024-06-15 22:57:32			0	37563	0	0	0	25348	23950	137111	27100	1014312	42192	109374	0	0	8259	570775	0	0
2024-06-15 22:58:32			0	37556	0	0	0	25353	23960	137039	26804	1014355	42182	109376	0	0	8259	571022	0	0
2024-06-15 22:59:32			0	37560	0	0	0	25348	23950	137095	27022	1014392	42192	109374	0	0	8259	570894	0	0
2024-06-15 23:00:32			0	37561	0	0	0	25348	23940	137083	27251	1014356	42192	109374	0	0	8259	570887	0	0
2024-06-15 23:01:32			0	37543	0	0	0	25355	23950	137083	26967	1014374	42205	109377	0	0	8258	571574	0	0
2024-06-15 23:02:32			0	37552	0	0	0	25355	23950	137167	26974	1014338	42170	109377	0	0	8258	571214	0	0
2024-06-15 23:03:32			0	37560	0	0	0	25353	23950	137107	27067	1014338	42181	109376	0	0	8259	570894	0	0
2024-06-15 23:04:32			0	37546	0	0	0	25340	23950	137195	27079	1014365	42192	109371	0	0	8258	571454	0	0
2024-06-15 23:05:32			0	37542	0	0	0	25345	23940	137131	26840	1014330	42192	109373	0	0	8258	571647	0	0
2024-06-15 23:06:32			0	37542	0	0	0	25329	23930	137223	26899	1014339	42191	109367	0	0	8258	571679	0	0
2024-06-15 23:07:32			0	37537	0	0	0	25345	23940	137215	26994	1014348	42203	109373	0	0	8258	571847	0	0
2024-06-15 23:08:32			0	37535	0	0	0	25340	23930	137163	26779	1014286	42202	109371	0	0	8258	571959	0	0
2024-06-15 23:09:32			0	37517	0	0	0	25335	23940	137127	27261	1014268	42192	109369	0	0	8257	572648	0	0
2024-06-15 23:10:32			0	37540	0	0	0	25337	23930	137215	26873	1014304	42191	109370	0	0	8258	571759	0	0
2024-06-15 23:11:32			0	37539	0	0	0	25329	23940	137327	26819	1014241	42180	109367	0	0	8258	571767	0	0
2024-06-15 23:12:32			0	37528	0	0	0	25337	23930	137223	27036	1014259	42179	109370	0	0	8257	572239	0	0
2024-06-15 23:13:32			0	37545	0	0	0	25322	23920	137151	26949	1014242	42190	109364	0	0	8259	571591	0	0
2024-06-15 23:14:32			0	37524	0	0	0	25335	23930	137267	26981	1014286	42191	109369	0	0	8257	572399	0	0
2024-06-15 23:15:32			0	37525	0	0	0	25319	23920	137247	26981	1014215	42201	109363	0	0	8258	572392	0	0
2024-06-15 23:16:32			0	37519	0	0	0	25314	23930	137219	27027	1014250	42179	109361	0	0	8257	572600	0	0
2024-06-15 23:17:32			0	37516	0	0	0	25324	23930	137287	27159	1014197	42191	109365	0	0	8257	572720	0	0
2024-06-15 23:18:32			0	37490	0	0	0	25316	23920	137311	27074	1014242	42178	109362	0	0	8256	573794	0	0
2024-06-15 23:19:32			0	37518	0	0	0	25316	23910	137295	26830	1014171	42200	109362	0	0	8257	572704	0	0
2024-06-15 23:20:32			0	37491	0	0	0	25319	23920	137303	27119	1014233	42189	109363	0	0	8256	573754	0	0
2024-06-15 23:21:32			0	37499	0	0	0	25311	23910	137379	27046	1014278	42189	109360	0	0	8256	573466	0	0
2024-06-15 23:22:32			0	37509	0	0	0	25311	23910	137299	27027	1014216	42200	109360	0	0	8257	573065	0	0
2024-06-15 23:23:32			0	37488	0	0	0	25303	23910	137455	27059	1014118	42178	109357	0	0	8256	573907	0	0
2024-06-15 23:24:32			0	37478	0	0	0	25309	23900	137471	27046	1014127	42188	109359	0	0	8255	574341	0	0
2024-06-15 23:25:32			0	37501	0	0	0	25298	23910	137387	27052	1014109	42189	109355	0	0	8257	573386	0	0
2024-06-15 23:26:32			0	37491	0	0	0	25290	23890	137427	27182	1014083	42187	109352	0	0	8256	573851	0	0
2024-06-15 23:27:32			0	37466	0	0	0	25283	23900	137471	27062	1014039	42187	109349	0	0	8255	574823	0	0
2024-06-15 23:28:32			0	37475	0	0	0	25283	23890	137523	27258	1014030	42187	109349	0	0	8255	574494	0	0
2024-06-15 23:29:32			0	37469	0	0	0	25272	23890	137463	26982	1014075	42187	109345	0	0	8255	574734	0	0
2024-06-15 23:30:32			0	37480	0	0	0	25275	23880	137487	26785	1013986	42175	109346	0	0	8256	574325	0	0
2024-06-15 23:31:32			0	37467	0	0	0	25267	23880	137471	26939	1014040	42186	109343	0	0	8255	574847	0	0
2024-06-15 23:32:32			0	37483	0	0	0	25254	23880	137595	27111	1013978	42185	109338	0	0	8256	574205	0	0
2024-06-15 23:33:32			0	37492	0	0	0	25259	23870	137519	27161	1013942	42174	109340	0	0	8257	573876	0	0
2024-06-15 23:34:32			0	37462	0	0	0	25259	23870	137467	27010	1013960	42185	109340	0	0	8255	575080	0	0
2024-06-15 23:35:32			0	37454	0	0	0	25251	23870	137535	27234	1013996	42185	109337	0	0	8255	575402	0	0
2024-06-15 23:36:32			0	37454	0	0	0	25246	23860	137591	27069	1013872	42184	109335	0	0	8255	575434	0	0
2024-06-15 23:37:32			0	37460	0	0	0	25238	23860	137535	27066	1013952	42163	109332	0	0	8255	575193	0	0
2024-06-15 23:38:32			0	37459	0	0	0	25233	23870	137531	27121	1013907	42174	109330	0	0	8255	575201	0	0
2024-06-15 23:39:32			0	37466	0	0	0	25223	23850	137631	26906	1013881	42171	109326	0	0	8256	574985	0	0
2024-06-15 23:40:32			0	37453	0	0	0	25228	23850	137551	27093	1013846	42182	109328	0	0	8255	575507	0	0
2024-06-15 23:41:32			0	37441	0	0	0	25228	23850	137603	27190	1013899	42182	109328	0	0	8254	575989	0	0
2024-06-15 23:42:32			0	37441	0	0	0	25231	23850	137571	26826	1013926	42171	109329	0	0	8254	575989	0	0
2024-06-15 23:43:32			0	37439	0	0	0	25233	23850	137635	26753	1013873	42182	109330	0	0	8254	576070	0	0
2024-06-15 23:44:32			0	37431	0	0	0	25231	23850	137639	27177	1013935	42182	109329	0	0	8254	576392	0	0
2024-06-15 23:45:32			0	37420	0	0	0	25241	23850	137647	27053	1013908	42182	109333	0	0	8253	576835	0	0
2024-06-15 23:46:32			0	37431	0	0	0	25241	23850	137579	27064	1013881	42182	109333	0	0	8254	576392	0	0
2024-06-15 23:47:32			0	37435	0	0	0	25246	23850	137635	26816	1013926	42194	109335	0	0	8254	576231	0	0
2024-06-15 23:48:32			0	37438	0	0	0	25238	23840	137635	27052	1013891	42182	109332	0	0	8254	576143	0	0
2024-06-15 23:49:32			0	37416	0	0	0	25244	23840	137611	27072	1013918	42182	109334	0	0	8253	577028	0	0
2024-06-15 23:50:32			0	37451	0	0	0	25249	23840	137563	27078	1013856	42170	109336	0	0	8255	575620	0	0
2024-06-15 23:51:32			0	37446	0	0	0	25257	23840	137611	27027	1013918	42182	109339	0	0	8254	575821	0	0
2024-06-15 23:52:32			0	37463	0	0	0	25244	23850	137671	27234	1013899	42182	109334	0	0	8255	575105	0	0
2024-06-15 23:53:32			0	37450	0	0	0	25244	23850	137559	26935	1013881	42171	109334	0	0	8255	575628	0	0
2024-06-15 23:54:32			0	37460	0	0	0	25244	23850	137583	27008	1013873	42182	109334	0	0	8255	575226	0	0
2024-06-15 23:55:32			0	37478	0	0	0	25254	23850	137475	27017	1013846	42182	109338	0	0	8256	574503	0	0
2024-06-15 23:56:32			0	37481	0	0	0	25249	23840	137463	26850	1013918	42182	109336	0	0	8256	574415	0	0
2024-06-15 23:57:32			0	37505	0	0	0	25259	23840	137367	27109	1013864	42182	109340	0	0	8257	573451	0	0
2024-06-15 23:58:32			0	37544	0	0	0	25236	23840	137307	27123	1013837	42182	109331	0	0	8260	571889	0	0
2024-06-15 23:59:32			0	37548	0	0	0	25244	23840	137243	27019	1013891	42171	109334	0	0	8260	571729	0	0
2024-06-16 00:00:32			0	37582	0	0	0	25238	23840	137183	27293	1013856	42193	109332	0	0	8262	570369	0	0
2024-06-16 00:01:32			0	37585	0	0	0	25238	23840	137131	27341	1013811	42182	109332	0	0	8262	570249	0	0
2024-06-16 00:02:32			0	37628	0	0	0	25231	23840	137079	27227	1013811	42171	109329	0	0	8264	568532	0	0
2024-06-16 00:03:32			0	37618	0	0	0	25231	23840	136987	27176	1013837	42182	109329	0	0	8264	568931	0	0
2024-06-16 00:04:32			0	37656	0	0	0	25233	23830	136967	27374	1013820	42181	109330	0	0	8265	567448	0	0
2024-06-16 00:05:32			0	37679	0	0	0	25223	23840	136871	26830	1013864	42182	109326	0	0	8267	566501	0	0
2024-06-16 00:06:32			0	37687	0	0	0	25223	23830	136771	26870	1013820	42181	109326	0	0	8267	566214	0	0
2024-06-16 00:07:32			0	37679	0	0	0	25231	23840	136775	27071	1013837	42182	109329	0	0	8267	566501	0	0
2024-06-16 00:08:32			0	37679	0	0	0	25231	23830	136771	27194	1013785	42159	109329	0	0	8267	566532	0	0
2024-06-16 00:09:32			0	37711	0	0	0	25225	23830	136671	27007	1013732	42169	109327	0	0	8268	565260	0	0
2024-06-16 00:10:32			0	37692	0	0	0	25223	23820	136687	27177	1013821	42158	109326	0	0	8267	566047	0	0
2024-06-16 00:11:32			0	37692	0	0	0	25228	23820	136667	27138	1013776	42169	109328	0	0	8267	566047	0	0
2024-06-16 00:12:32			0	37715	0	0	0	25231	23830	136759	27111	1013847	42169	109329	0	0	8269	565101	0	0
2024-06-16 00:13:32			0	37709	0	0	0	25223	23830	136659	27076	1013785	42181	109326	0	0	8268	565340	0	0
2024-06-16 00:14:32			0	37717	0	0	0	25220	23820	136643	26892	1013803	42169	109325	0	0	8269	565054	0	0
2024-06-16 00:15:32			0	37718	0	0	0	25212	23820	136551	27055	1013821	42180	109322	0	0	8269	565014	0	0
2024-06-16 00:16:32			0	37736	0	0	0	25212	23820	136767	27041	1013750	42181	109322	0	0	8270	564299	0	0
2024-06-16 00:17:32			0	37735	0	0	0	25207	23820	136607	27039	1013750	42192	109320	0	0	8270	564339	0	0
2024-06-16 00:18:32			0	37741	0	0	0	25212	23810	136599	26948	1013786	42167	109322	0	0	8270	564132	0	0
2024-06-16 00:19:32			0	37739	0	0	0	25202	23810	136567	27417	1013670	42167	109318	0	0	8270	564212	0	0
2024-06-16 00:20:32			0	37727	0	0	0	25194	23810	136667	27007	1013706	42179	109315	0	0	8270	564688	0	0
2024-06-16 00:21:32			0	37736	0	0	0	25202	23810	136611	27086	1013732	42179	109318	0	0	8270	564331	0	0
2024-06-16 00:22:32			0	37724	0	0	0	25202	23810	136591	27329	1013670	42190	109318	0	0	8269	564807	0	0
2024-06-16 00:23:32			0	37737	0	0	0	25202	23810	136635	26979	1013732	42190	109318	0	0	8270	564291	0	0
2024-06-16 00:24:32			0	37715	0	0	0	25192	23800	136695	27038	1013688	42179	109314	0	0	8269	565197	0	0
2024-06-16 00:25:32			0	37707	0	0	0	25202	23800	136635	27003	1013653	42189	109318	0	0	8268	565515	0	0
2024-06-16 00:26:32			0	37717	0	0	0	25192	23800	136807	27147	1013653	42178	109314	0	0	8269	565117	0	0
2024-06-16 00:27:32			0	37699	0	0	0	25202	23800	136755	27251	1013635	42190	109318	0	0	8268	565833	0	0
2024-06-16 00:28:32			0	37718	0	0	0	25184	23800	136711	27034	1013715	42167	109311	0	0	8269	565078	0	0
2024-06-16 00:29:32			0	37686	0	0	0	25192	23800	136707	26889	1013653	42178	109314	0	0	8268	566350	0	0
2024-06-16 00:30:32			0	37682	0	0	0	25181	23800	136779	27168	1013626	42167	109310	0	0	8268	566509	0	0
2024-06-16 00:31:32			0	37677	0	0	0	25184	23780	136807	27208	1013654	42187	109311	0	0	8267	566772	0	0
2024-06-16 00:32:32			0	37679	0	0	0	25176	23790	136867	27339	1013564	42166	109308	0	0	8267	566660	0	0
2024-06-16 00:33:32			0	37664	0	0	0	25173	23790	136839	26984	1013618	42177	109307	0	0	8267	567257	0	0
2024-06-16 00:34:32			0	37651	0	0	0	25173	23790	136895	26870	1013609	42166	109307	0	0	8266	567775	0	0
2024-06-16 00:35:32			0	37642	0	0	0	25171	23780	136927	27341	1013574	42176	109306	0	0	8266	568166	0	0
2024-06-16 00:36:32			0	37642	0	0	0	25166	23780	136991	27270	1013574	42166	109304	0	0	8266	568166	0	0
2024-06-16 00:37:32			0	37653	0	0	0	25163	23770	136979	27190	1013584	42165	109303	0	0	8266	567760	0	0
2024-06-16 00:38:32			0	37622	0	0	0	25161	23780	136955	27215	1013574	42166	109302	0	0	8265	568964	0	0
2024-06-16 00:39:32			0	37607	0	0	0	25150	23770	137023	27208	1013557	42165	109298	0	0	8264	569595	0	0
2024-06-16 00:40:32			0	37604	0	0	0	25153	23780	137027	26944	1013459	42166	109299	0	0	8264	569682	0	0
2024-06-16 00:41:32			0	37603	0	0	0	25150	23770	137007	27100	1013503	42186	109298	0	0	8264	569754	0	0
2024-06-16 00:42:32			0	37597	0	0	0	25148	23770	137051	27038	1013503	42186	109297	0	0	8264	569994	0	0
2024-06-16 00:43:32			0	37575	0	0	0	25142	23750	137123	27173	1013416	42173	109295	0	0	8262	570938	0	0
2024-06-16 00:44:32			0	37577	0	0	0	25145	23760	137179	27261	1013344	42174	109296	0	0	8263	570826	0	0
2024-06-16 00:45:32			0	37570	0	0	0	25150	23750	137207	27123	1013443	42185	109298	0	0	8262	571138	0	0
2024-06-16 00:46:32			0	37562	0	0	0	25140	23740	137307	27140	1013452	42162	109294	0	0	8262	571490	0	0
2024-06-16 00:47:32			0	37553	0	0	0	25140	23760	137243	27064	1013451	42174	109294	0	0	8261	571786	0	0
2024-06-16 00:48:32			0	37562	0	0	0	25140	23750	137235	26826	1013362	42173	109294	0	0	8262	571458	0	0
2024-06-16 00:49:32			0	37542	0	0	0	25137	23760	137307	26875	1013451	42174	109293	0	0	8261	572227	0	0
2024-06-16 00:50:32			0	37534	0	0	0	25137	23740	137327	26899	1013372	42184	109293	0	0	8260	572612	0	0
2024-06-16 00:51:32			0	37546	0	0	0	25142	23740	137291	27185	1013372	42184	109295	0	0	8261	572131	0	0
2024-06-16 00:52:32			0	37556	0	0	0	25140	23750	137299	27194	1013443	42163	109294	0	0	8261	571698	0	0
2024-06-16 00:53:32			0	37530	0	0	0	25140	23750	137339	26911	1013381	42162	109294	0	0	8260	572740	0	0
2024-06-16 00:54:32			0	37517	0	0	0	25137	23740	137371	27241	1013372	42184	109293	0	0	8259	573293	0	0
2024-06-16 00:55:32			0	37507	0	0	0	25137	23740	137347	27013	1013452	42172	109293	0	0	8259	573694	0	0
2024-06-16 00:56:32			0	37510	0	0	0	25140	23740	137443	27067	1013345	42172	109294	0	0	8259	573574	0	0
2024-06-16 00:57:32			0	37509	0	0	0	25145	23740	137391	27104	1013399	42172	109296	0	0	8259	573614	0	0
2024-06-16 00:58:32			0	37513	0	0	0	25129	23730	137423	27052	1013363	42162	109290	0	0	8259	573486	0	0
2024-06-16 00:59:32			0	37483	0	0	0	25137	23740	137331	27249	1013372	42172	109293	0	0	8258	574658	0	0
2024-06-16 01:00:32			0	37489	0	0	0	25132	23740	137503	27202	1013345	42184	109291	0	0	8258	574417	0	0
2024-06-16 01:01:32			0	37497	0	0	0	25135	23720	137443	27081	1013373	42171	109292	0	0	8258	574160	0	0
2024-06-16 01:02:32			0	37491	0	0	0	25137	23730	137431	27164	1013408	42183	109293	0	0	8258	574369	0	0
2024-06-16 01:03:32			0	37508	0	0	0	25124	23720	137463	27133	1013426	42160	109288	0	0	8259	573719	0	0
2024-06-16 01:04:32			0	37525	0	0	0	25129	23720	137375	27223	1013346	42171	109290	0	0	8260	573037	0	0
2024-06-16 01:05:32			0	37528	0	0	0	25124	23720	137383	26974	1013320	42182	109288	0	0	8260	572917	0	0
2024-06-16 01:06:32			0	37534	0	0	0	25119	23720	137419	26920	1013258	42159	109286	0	0	8261	572676	0	0
2024-06-16 01:07:32			0	37541	0	0	0	25111	23720	137371	27038	1013346	42182	109283	0	0	8261	572395	0	0
2024-06-16 01:08:32			0	37549	0	0	0	25116	23720	137315	27039	1013338	42159	109285	0	0	8261	572075	0	0
2024-06-16 01:09:32			0	37553	0	0	0	25114	23710	137299	26963	1013294	42181	109284	0	0	8262	571947	0	0
2024-06-16 01:10:32			0	37572	0	0	0	25124	23710	137367	26878	1013222	42170	109288	0	0	8262	571187	0	0
2024-06-16 01:11:32			0	37566	0	0	0	25109	23710	137271	26949	1013276	42170	109282	0	0	8262	571426	0	0
2024-06-16 01:12:32			0	37572	0	0	0	25111	23710	137171	26977	1013321	42181	109283	0	0	8263	571187	0	0
2024-06-16 01:13:32			0	37585	0	0	0	25106	23720	137087	26786	1013284	42170	109281	0	0	8263	570634	0	0
2024-06-16 01:14:32			0	37616	0	0	0	25109	23710	137059	27185	1013294	42170	109282	0	0	8265	569428	0	0
2024-06-16 01:15:32			0	37612	0	0	0	25109	23700	137067	26830	1013312	42158	109282	0	0	8265	569620	0	0
2024-06-16 01:16:32			0	37614	0	0	0	25111	23710	137043	26863	1013276	42170	109283	0	0	8265	569508	0	0
2024-06-16 01:17:32			0	37609	0	0	0	25101	23700	137003	27050	1013205	42169	109279	0	0	8265	569739	0	0
2024-06-16 01:18:32			0	37621	0	0	0	25098	23700	136963	27126	1013250	42179	109278	0	0	8265	569260	0	0
2024-06-16 01:19:32			0	37644	0	0	0	25090	23690	136987	26819	1013241	42157	109275	0	0	8267	568374	0	0
2024-06-16 01:20:32			0	37639	0	0	0	25088	23710	136847	27024	1013214	42170	109274	0	0	8266	568510	0	0
2024-06-16 01:21:32			0	37663	0	0	0	25088	23690	136919	27000	1013126	42168	109274	0	0	8268	567617	0	0
2024-06-16 01:22:32			0	37647	0	0	0	25088	23690	136903	26648	1013188	42157	109274	0	0	8267	568255	0	0
2024-06-16 01:23:32			0	37658	0	0	0	25083	23680	136847	26790	1013144	42167	109272	0	0	8267	567848	0	0
2024-06-16 01:24:32			0	37679	0	0	0	25088	23690	136915	26949	1013126	42168	109274	0	0	8268	566979	0	0
2024-06-16 01:25:32			0	37663	0	0	0	25077	23690	136935	26915	1013153	42168	109270	0	0	8268	567617	0	0
2024-06-16 01:26:32			0	37685	0	0	0	25080	23690	136931	26989	1013188	42168	109271	0	0	8269	566740	0	0
2024-06-16 01:27:32			0	37674	0	0	0	25090	23680	136799	27121	1013215	42156	109275	0	0	8268	567210	0	0
2024-06-16 01:28:32			0	37680	0	0	0	25088	23680	136775	27112	1013144	42178	109274	0	0	8269	566971	0	0
2024-06-16 01:29:32			0	37702	0	0	0	25080	23680	136755	26753	1013135	42177	109271	0	0	8270	566096	0	0
2024-06-16 01:30:32			0	37665	0	0	0	25077	23690	136743	26899	1013188	42157	109270	0	0	8268	567537	0	0
2024-06-16 01:31:32			0	37716	0	0	0	25075	23680	136695	26873	1013109	42166	109269	0	0	8271	565539	0	0
2024-06-16 01:32:32			0	37688	0	0	0	25072	23680	136787	27187	1013135	42177	109268	0	0	8269	566653	0	0
2024-06-16 01:33:32			0	37673	0	0	0	25085	23670	136843	27199	1013153	42156	109273	0	0	8268	567282	0	0
2024-06-16 01:34:32			0	37694	0	0	0	25083	23680	136731	27163	1013162	42156	109272	0	0	8269	566414	0	0
2024-06-16 01:35:32			0	37686	0	0	0	25083	23680	136775	27230	1013109	42166	109272	0	0	8269	566732	0	0
2024-06-16 01:36:32			0	37690	0	0	0	25075	23680	136835	27026	1013109	42166	109269	0	0	8269	566573	0	0
2024-06-16 01:37:32			0	37697	0	0	0	25083	23670	136795	27232	1013100	42177	109272	0	0	8269	566327	0	0
2024-06-16 01:38:32			0	37695	0	0	0	25080	23680	136827	27001	1013144	42178	109271	0	0	8269	566374	0	0
2024-06-16 01:39:32			0	37679	0	0	0	25080	23670	136779	26970	1013065	42166	109271	0	0	8269	567043	0	0
2024-06-16 01:40:32			0	37693	0	0	0	25067	23660	136751	27381	1013110	42155	109266	0	0	8269	566518	0	0
2024-06-16 01:41:32			0	37693	0	0	0	25067	23680	136743	27013	1013109	42133	109266	0	0	8270	566454	0	0
2024-06-16 01:42:32			0	37695	0	0	0	25070	23670	136747	26889	1013073	42177	109267	0	0	8270	566406	0	0
2024-06-16 01:43:32			0	37681	0	0	0	25077	23670	136703	26892	1013118	42156	109270	0	0	8269	566963	0	0
2024-06-16 01:44:32			0	37681	0	0	0	25064	23660	136683	27189	1013056	42166	109265	0	0	8269	566995	0	0
2024-06-16 01:45:32			0	37704	0	0	0	25075	23670	136783	27196	1013091	42166	109269	0	0	8270	566048	0	0
2024-06-16 01:46:32			0	37697	0	0	0	25077	23660	136719	27140	1013101	42175	109270	0	0	8269	566358	0	0
2024-06-16 01:47:32			0	37672	0	0	0	25064	23660	136751	27175	1013056	42166	109265	0	0	8268	567354	0	0
2024-06-16 01:48:32			0	37701	0	0	0	25075	23660	136683	27170	1013083	42176	109269	0	0	8270	566199	0	0
2024-06-16 01:49:32			0	37690	0	0	0	25075	23660	136835	26960	1013110	42166	109269	0	0	8269	566637	0	0
2024-06-16 01:50:32			0	37707	0	0	0	25070	23670	136879	27072	1013073	42144	109267	0	0	8270	565929	0	0
2024-06-16 01:51:32			0	37680	0	0	0	25067	23660	136731	26928	1013083	42155	109266	0	0	8269	567035	0	0
2024-06-16 01:52:32			0	37697	0	0	0	25064	23670	136879	27208	1013065	42166	109265	0	0	8270	566327	0	0
2024-06-16 01:53:32			0	37689	0	0	0	25059	23670	136803	27098	1013073	42177	109263	0	0	8269	566645	0	0
2024-06-16 01:54:32			0	37682	0	0	0	25054	23660	136831	26845	1013083	42176	109261	0	0	8269	566956	0	0
2024-06-16 01:55:32			0	37683	0	0	0	25059	23660	136875	26906	1013048	42165	109263	0	0	8269	566916	0	0
2024-06-16 01:56:32			0	37678	0	0	0	25057	23660	136791	27206	1013074	42154	109262	0	0	8269	567115	0	0
2024-06-16 01:57:32			0	37660	0	0	0	25051	23660	136923	27235	1013048	42165	109260	0	0	8268	567832	0	0
2024-06-16 01:58:32			0	37666	0	0	0	25057	23660	136983	27008	1012994	42165	109262	0	0	8268	567593	0	0
2024-06-16 01:59:32			0	37658	0	0	0	25062	23660	136951	27291	1013056	42166	109264	0	0	8268	567912	0	0
2024-06-16 02:00:32			0	37650	0	0	0	25059	23660	136959	27241	1012994	42175	109263	0	0	8267	568231	0	0
2024-06-16 02:01:32			0	37640	0	0	0	25057	23660	136979	27192	1013074	42165	109262	0	0	8267	568630	0	0
2024-06-16 02:02:32			0	37635	0	0	0	25054	23660	136983	27301	1013074	42154	109261	0	0	8267	568829	0	0
2024-06-16 02:03:32			0	37633	0	0	0	25059	23650	137063	26996	1013004	42174	109263	0	0	8266	568941	0	0
2024-06-16 02:04:32			0	37626	0	0	0	25044	23650	136979	27057	1013039	42165	109257	0	0	8266	569221	0	0
2024-06-16 02:05:32			0	37635	0	0	0	25038	23650	137103	27229	1013004	42153	109255	0	0	8267	568861	0	0
2024-06-16 02:06:32			0	37601	0	0	0	25044	23650	137051	27201	1012977	42174	109257	0	0	8265	570219	0	0
2024-06-16 02:07:32			0	37612	0	0	0	25041	23640	137159	26972	1012995	42153	109256	0	0	8266	569812	0	0
2024-06-16 02:08:32			0	37599	0	0	0	25036	23640	137207	27152	1012987	42163	109254	0	0	8265	570331	0	0
2024-06-16 02:09:32			0	37593	0	0	0	25038	23630	137231	27190	1012951	42173	109255	0	0	8265	570603	0	0
2024-06-16 02:10:32			0	37610	0	0	0	25044	23630	137247	27062	1012978	42173	109257	0	0	8265	569924	0	0
2024-06-16 02:11:32			0	37593	0	0	0	25038	23640	137219	27422	1012987	42163	109255	0	0	8265	570571	0	0
2024-06-16 02:12:32			0	37572	0	0	0	25041	23640	137327	26922	1012942	42164	109256	0	0	8264	571412	0	0
2024-06-16 02:13:32			0	37569	0	0	0	25038	23640	137239	27281	1012933	42163	109255	0	0	8263	571532	0	0
2024-06-16 02:14:32			0	37558	0	0	0	25033	23640	137279	27196	1012969	42164	109253	0	0	8263	571972	0	0
2024-06-16 02:15:32			0	37553	0	0	0	25041	23640	137279	27161	1012960	42163	109256	0	0	8263	572172	0	0
2024-06-16 02:16:32			0	37550	0	0	0	25038	23640	137407	27144	1012960	42163	109255	0	0	8262	572293	0	0
2024-06-16 02:17:32			0	37539	0	0	0	25038	23630	137359	27234	1013058	42162	109255	0	0	8262	572766	0	0
2024-06-16 02:18:32			0	37519	0	0	0	25041	23640	137375	27324	1012888	42174	109256	0	0	8261	573536	0	0
2024-06-16 02:19:32			0	37505	0	0	0	25031	23640	137455	27201	1012960	42174	109252	0	0	8260	574097	0	0
2024-06-16 02:20:32			0	37521	0	0	0	25049	23630	137439	27126	1012925	42151	109259	0	0	8261	573488	0	0
2024-06-16 02:21:32			0	37484	0	0	0	25036	23630	137515	27204	1012916	42162	109254	0	0	8259	574973	0	0
2024-06-16 02:22:32			0	37464	0	0	0	25033	23630	137547	26894	1012951	42162	109253	0	0	8258	575778	0	0
2024-06-16 02:23:32			0	37471	0	0	0	25038	23640	137603	27277	1013013	42163	109255	0	0	8258	575464	0	0
2024-06-16 02:24:32			0	37458	0	0	0	25033	23630	137667	27086	1012951	42162	109253	0	0	8258	576019	0	0
2024-06-16 02:25:32			0	37435	0	0	0	25038	23630	137719	27241	1012951	42151	109255	0	0	8256	576945	0	0
2024-06-16 02:26:32			0	37428	0	0	0	25036	23640	137779	27020	1012960	42163	109254	0	0	8256	577194	0	0
2024-06-16 02:27:32			0	37413	0	0	0	25031	23630	137835	27213	1012951	42173	109252	0	0	8255	577832	0	0
2024-06-16 02:28:32			0	37412	0	0	0	25033	23630	137847	27173	1012943	42162	109253	0	0	8255	577872	0	0
2024-06-16 02:29:32			0	37395	0	0	0	25046	23630	137919	27293	1012951	42173	109258	0	0	8254	578558	0	0
2024-06-16 02:30:32			0	37383	0	0	0	25049	23640	137963	27036	1013013	42163	109259	0	0	8254	579010	0	0
2024-06-16 02:31:32			0	37357	0	0	0	25059	23630	138003	27180	1012951	42162	109263	0	0	8252	580093	0	0
2024-06-16 02:32:32			0	37341	0	0	0	25049	23630	138071	27182	1012925	42162	109259	0	0	8251	580740	0	0
2024-06-16 02:33:32			0	37345	0	0	0	25051	23640	138127	26948	1012960	42152	109260	0	0	8252	580545	0	0
2024-06-16 02:34:32			0	37323	0	0	0	25046	23630	138119	26809	1012951	42162	109258	0	0	8250	581468	0	0
2024-06-16 02:35:32			0	37312	0	0	0	25041	23630	138222	26979	1012951	42173	109256	0	0	8250	581913	0	0
2024-06-16 02:36:32			0	37293	0	0	0	25054	23640	138146	27015	1012995	42164	109261	0	0	8249	582651	0	0
2024-06-16 02:37:32			0	37292	0	0	0	25051	23640	138166	26755	1012995	42174	109260	0	0	8249	582691	0	0
2024-06-16 02:38:32			0	37283	0	0	0	25049	23640	138382	26797	1013013	42152	109259	0	0	8248	583056	0	0
2024-06-16 02:39:32			0	37262	0	0	0	25062	23650	138350	27313	1013031	42174	109264	0	0	8247	583875	0	0
2024-06-16 02:40:32			0	37243	0	0	0	25067	23640	138430	27223	1013067	42174	109266	0	0	8246	584680	0	0
2024-06-16 02:41:32			0	37240	0	0	0	25067	23650	138498	27235	1013031	42174	109266	0	0	8246	584769	0	0
2024-06-16 02:42:32			0	37222	0	0	0	25080	23660	138586	26981	1013048	42175	109271	0	0	8245	585468	0	0
2024-06-16 02:43:32			0	37191	0	0	0	25080	23660	138566	27140	1013101	42165	109271	0	0	8243	586729	0	0
2024-06-16 02:44:32			0	37197	0	0	0	25077	23650	138622	27324	1013093	42175	109270	0	0	8243	586518	0	0
2024-06-16 02:45:32			0	37184	0	0	0	25075	23650	138638	27164	1013039	42165	109269	0	0	8243	587048	0	0
2024-06-16 02:46:32			0	37171	0	0	0	25067	23650	138630	27313	1013084	42153	109266	0	0	8242	587577	0	0
2024-06-16 02:47:32			0	37158	0	0	0	25070	23650	138674	27064	1013031	42153	109267	0	0	8242	588108	0	0
2024-06-16 02:48:32			0	37144	0	0	0	25059	23660	138738	27204	1013048	42154	109263	0	0	8241	588646	0	0
2024-06-16 02:49:32			0	37138	0	0	0	25054	23650	138854	27324	1013039	42175	109261	0	0	8241	588924	0	0
2024-06-16 02:50:32			0	37131	0	0	0	25054	23650	138834	27332	1013066	42175	109261	0	0	8240	589210	0	0
2024-06-16 02:51:32			0	37094	0	0	0	25057	23650	138942	27178	1013084	42174	109262	0	0	8238	590722	0	0
2024-06-16 02:52:32			0	37090	0	0	0	25064	23650	138898	27352	1013084	42164	109265	0	0	8238	590886	0	0
2024-06-16 02:53:32			0	37090	0	0	0	25064	23650	138954	26991	1013004	42174	109265	0	0	8238	590886	0	0
2024-06-16 02:54:32			0	37094	0	0	0	25059	23650	138962	27281	1012977	42164	109263	0	0	8238	590722	0	0
2024-06-16 02:55:32			0	37058	0	0	0	25057	23650	139010	27121	1013039	42165	109262	0	0	8237	592196	0	0
2024-06-16 02:56:32			0	37074	0	0	0	25049	23650	139046	27320	1013004	42174	109259	0	0	8237	591541	0	0
2024-06-16 02:57:32			0	37057	0	0	0	25038	23650	139058	27338	1012977	42164	109255	0	0	8237	592237	0	0
2024-06-16 02:58:32			0	37055	0	0	0	25036	23640	139130	27119	1013013	42163	109254	0	0	8237	592352	0	0
2024-06-16 02:59:32			0	37050	0	0	0	25044	23640	139182	27319	1012969	42164	109257	0	0	8236	592557	0	0
2024-06-16 03:00:32			0	37039	0	0	0	25046	23650	139170	27029	1013004	42164	109258	0	0	8236	592975	0	0
2024-06-16 03:01:32			0	37022	0	0	0	25049	23640	139150	27261	1012942	42153	109259	0	0	8235	593706	0	0
2024-06-16 03:02:32			0	37012	0	0	0	25036	23640	139210	27222	1013022	42164	109254	0	0	8234	594117	0	0
2024-06-16 03:03:32			0	37002	0	0	0	25036	23630	139238	27164	1012951	42140	109254	0	0	8234	594561	0	0
2024-06-16 03:04:32			0	37001	0	0	0	25041	23640	139286	27211	1013040	42163	109256	0	0	8234	594568	0	0
2024-06-16 03:05:32			0	37000	0	0	0	25038	23630	139246	27320	1012951	42162	109255	0	0	8234	594643	0	0
2024-06-16 03:06:32			0	36987	0	0	0	25046	23640	139294	27395	1012960	42163	109258	0	0	8233	595144	0	0
2024-06-16 03:07:32			0	36967	0	0	0	25044	23640	139350	26733	1012960	42163	109257	0	0	8232	595967	0	0
2024-06-16 03:08:32			0	36973	0	0	0	25041	23640	139486	26852	1012987	42163	109256	0	0	8232	595720	0	0
2024-06-16 03:09:32			0	36970	0	0	0	25025	23630	139462	27026	1012978	42151	109250	0	0	8232	595877	0	0
2024-06-16 03:10:32			0	36950	0	0	0	25023	23630	139450	26804	1012898	42162	109249	0	0	8231	596700	0	0
2024-06-16 03:11:32			0	36966	0	0	0	25015	23630	139474	26961	1012890	42162	109246	0	0	8232	596041	0	0
2024-06-16 03:12:32			0	36961	0	0	0	25010	23620	139510	27079	1012881	42140	109244	0	0	8232	596281	0	0
2024-06-16 03:13:32			0	36971	0	0	0	24997	23610	139458	27196	1012864	42161	109239	0	0	8233	595903	0	0
2024-06-16 03:14:32			0	36953	0	0	0	24992	23610	139462	27192	1012802	42161	109237	0	0	8232	596644	0	0
2024-06-16 03:15:32			0	36926	0	0	0	24994	23610	139526	27177	1012802	42161	109238	0	0	8231	597757	0	0
2024-06-16 03:16:32			0	36954	0	0	0	24986	23610	139422	27301	1012757	42161	109235	0	0	8232	596603	0	0
2024-06-16 03:17:32			0	36932	0	0	0	24979	23600	139534	27166	1012767	42171	109232	0	0	8231	597543	0	0
2024-06-16 03:18:32			0	36944	0	0	0	24976	23600	139510	27156	1012731	42148	109231	0	0	8232	597048	0	0
2024-06-16 03:19:32			0	36929	0	0	0	24979	23590	139486	27182	1012741	42159	109232	0	0	8231	597700	0	0
2024-06-16 03:20:32			0	36911	0	0	0	24976	23590	139602	26915	1012749	42147	109231	0	0	8230	598443	0	0
2024-06-16 03:21:32			0	36942	0	0	0	24979	23580	139578	26875	1012732	42179	109232	0	0	8231	597198	0	0
2024-06-16 03:22:32			0	36938	0	0	0	24971	23590	139582	26937	1012768	42169	109229	0	0	8231	597329	0	0
2024-06-16 03:23:32			0	36921	0	0	0	24974	23580	139606	26930	1012679	42179	109230	0	0	8230	598064	0	0
2024-06-16 03:24:32			0	36926	0	0	0	24976	23580	139654	26925	1012652	42158	109231	0	0	8231	597857	0	0
2024-06-16 03:25:32			0	36930	0	0	0	24971	23580	139662	27048	1012706	42168	109229	0	0	8231	597692	0	0
2024-06-16 03:26:32			0	36916	0	0	0	24966	23580	139682	27180	1012724	42135	109227	0	0	8230	598270	0	0
2024-06-16 03:27:32			0	36936	0	0	0	24955	23570	139606	27149	1012680	42146	109223	0	0	8232	597479	0	0
2024-06-16 03:28:32			0	36923	0	0	0	24953	23570	139682	27046	1012653	42167	109222	0	0	8231	598015	0	0
2024-06-16 03:29:32			0	36904	0	0	0	24958	23560	139606	26958	1012617	42145	109224	0	0	8230	598833	0	0
2024-06-16 03:30:32			0	36918	0	0	0	24942	23560	139618	26863	1012617	42166	109218	0	0	8231	598255	0	0
2024-06-16 03:31:32			0	36901	0	0	0	24937	23560	139670	26958	1012582	42145	109216	0	0	8230	598956	0	0
2024-06-16 03:32:32			0	36910	0	0	0	24935	23550	139610	26821	1012520	42155	109215	0	0	8230	598619	0	0
2024-06-16 03:33:32			0	36934	0	0	0	24929	23540	139710	27261	1012530	42143	109213	0	0	8232	597662	0	0
2024-06-16 03:34:32			0	36915	0	0	0	24922	23540	139666	26982	1012494	42154	109210	0	0	8231	598446	0	0
2024-06-16 03:35:32			0	36931	0	0	0	24922	23550	139690	26767	1012485	42143	109210	0	0	8232	597752	0	0
2024-06-16 03:36:32			0	36940	0	0	0	24922	23530	139610	27253	1012459	42142	109210	0	0	8232	597448	0	0
2024-06-16 03:37:32			0	36935	0	0	0	24924	23530	139702	27154	1012459	42131	109211	0	0	8232	597654	0	0
2024-06-16 03:38:32			0	36926	0	0	0	24922	23530	139674	27079	1012451	42141	109210	0	0	8231	598026	0	0
2024-06-16 03:39:32			0	36945	0	0	0	24932	23540	139610	26863	1012494	42154	109214	0	0	8232	597208	0	0
2024-06-16 03:40:32			0	36919	0	0	0	24929	23540	139658	27055	1012494	42165	109213	0	0	8231	598281	0	0
2024-06-16 03:41:32			0	36941	0	0	0	24935	23530	139694	27015	1012539	42153	109215	0	0	8232	597407	0	0
2024-06-16 03:42:32			0	36927	0	0	0	24932	23540	139590	27109	1012556	42143	109214	0	0	8231	597951	0	0
2024-06-16 03:43:32			0	36945	0	0	0	24937	23540	139562	27045	1012521	42143	109216	0	0	8232	597208	0	0
2024-06-16 03:44:32			0	36950	0	0	0	24937	23540	139630	26628	1012530	42143	109216	0	0	8232	597002	0	0
2024-06-16 03:45:32			0	36930	0	0	0	24937	23540	139622	27301	1012521	42154	109216	0	0	8231	597827	0	0
2024-06-16 03:46:32			0	36934	0	0	0	24942	23550	139554	27130	1012538	42165	109218	0	0	8232	597628	0	0
2024-06-16 03:47:32			0	36962	0	0	0	24948	23530	139594	26611	1012504	42152	109220	0	0	8233	596541	0	0
2024-06-16 03:48:32			0	36958	0	0	0	24948	23540	139534	26897	1012556	42165	109220	0	0	8233	596673	0	0
2024-06-16 03:49:32			0	36956	0	0	0	24945	23550	139514	26793	1012592	42176	109219	0	0	8233	596721	0	0
2024-06-16 03:50:32			0	36960	0	0	0	24948	23530	139482	27003	1012593	42142	109220	0	0	8233	596624	0	0
2024-06-16 03:51:32			0	36975	0	0	0	24950	23540	139430	26993	1012521	42165	109221	0	0	8234	595973	0	0
2024-06-16 03:52:32			0	36969	0	0	0	24958	23550	139430	26733	1012574	42155	109224	0	0	8233	596186	0	0
2024-06-16 03:53:32			0	36985	0	0	0	24961	23550	139482	26932	1012512	42165	109225	0	0	8234	595528	0	0
2024-06-16 03:54:32			0	36996	0	0	0	24950	23540	139406	26833	1012583	42165	109221	0	0	8235	595109	0	0
2024-06-16 03:55:32			0	36990	0	0	0	24961	23550	139386	27183	1012565	42165	109225	0	0	8234	595322	0	0
2024-06-16 03:56:32			0	36992	0	0	0	24955	23550	139342	26816	1012565	42165	109223	0	0	8234	595240	0	0
2024-06-16 03:57:32			0	37016	0	0	0	24953	23560	139370	26977	1012609	42166	109222	0	0	8236	594220	0	0
2024-06-16 03:58:32			0	37014	0	0	0	24966	23560	139262	26835	1012662	42156	109227	0	0	8235	594302	0	0
2024-06-16 03:59:32			0	37025	0	0	0	24974	23560	139278	26830	1012662	42156	109230	0	0	8236	593850	0	0
2024-06-16 04:00:32			0	37013	0	0	0	24981	23570	139298	27114	1012715	42167	109233	0	0	8235	594310	0	0
2024-06-16 04:01:32			0	37025	0	0	0	24979	23560	139282	26523	1012716	42166	109232	0	0	8236	593850	0	0
2024-06-16 04:02:32			0	37016	0	0	0	24992	23560	139222	26748	1012671	42166	109237	0	0	8235	594220	0	0
2024-06-16 04:03:32			0	37038	0	0	0	24986	23580	139230	27013	1012732	42168	109235	0	0	8236	593250	0	0
2024-06-16 04:04:32			0	37040	0	0	0	24994	23580	139154	26807	1012732	42168	109238	0	0	8236	593168	0	0
2024-06-16 04:05:32			0	37043	0	0	0	24994	23580	139102	26805	1012751	42168	109238	0	0	8236	593045	0	0
2024-06-16 04:06:32			0	37073	0	0	0	24997	23570	139074	27152	1012661	42167	109239	0	0	8238	591848	0	0
2024-06-16 04:07:32			0	37061	0	0	0	24997	23590	139094	26816	1012794	42159	109239	0	0	8237	592273	0	0
2024-06-16 04:08:32			0	37073	0	0	0	24999	23580	139210	26797	1012697	42168	109240	0	0	8238	591814	0	0
2024-06-16 04:09:32			0	37081	0	0	0	25002	23590	139086	26719	1012794	42169	109241	0	0	8238	591454	0	0
2024-06-16 04:10:32			0	37072	0	0	0	25005	23570	139078	26710	1012795	42157	109242	0	0	8238	591889	0	0
2024-06-16 04:11:32			0	37078	0	0	0	25002	23580	139054	27251	1012732	42146	109241	0	0	8238	591610	0	0
2024-06-16 04:12:32			0	37082	0	0	0	25005	23580	138994	26974	1012732	42168	109242	0	0	8238	591446	0	0
2024-06-16 04:13:32			0	37089	0	0	0	25005	23590	138966	26998	1012768	42159	109242	0	0	8239	591126	0	0
2024-06-16 04:14:32			0	37084	0	0	0	25015	23590	139026	27161	1012803	42169	109246	0	0	8238	591331	0	0
2024-06-16 04:15:32			0	37093	0	0	0	25015	23580	139050	27097	1012732	42179	109246	0	0	8239	590996	0	0
2024-06-16 04:16:32			0	37083	0	0	0	25005	23590	138922	26930	1012821	42169	109242	0	0	8238	591372	0	0
2024-06-16 04:17:32			0	37094	0	0	0	25007	23590	138974	27102	1012749	42159	109243	0	0	8239	590921	0	0
2024-06-16 04:18:32			0	37090	0	0	0	25002	23590	138978	27092	1012821	42169	109241	0	0	8239	591085	0	0
2024-06-16 04:19:32			0	37107	0	0	0	25010	23600	138946	26894	1012758	42160	109244	0	0	8240	590357	0	0
2024-06-16 04:20:32			0	37099	0	0	0	25012	23600	138838	27215	1012838	42170	109245	0	0	8239	590684	0	0
2024-06-16 04:21:32			0	37113	0	0	0	25010	23590	138838	26906	1012856	42169	109244	0	0	8240	590144	0	0
2024-06-16 04:22:32			0	37124	0	0	0	25015	23600	138922	27034	1012892	42160	109246	0	0	8240	589661	0	0
2024-06-16 04:23:32			0	37118	0	0	0	25007	23600	138890	26975	1012820	42171	109243	0	0	8240	589907	0	0
2024-06-16 04:24:32			0	37134	0	0	0	25012	23600	138850	27098	1012873	42171	109245	0	0	8241	589253	0	0
2024-06-16 04:25:32			0	37121	0	0	0	25007	23600	138758	26760	1012847	42171	109243	0	0	8240	589784	0	0
2024-06-16 04:26:32			0	37124	0	0	0	25018	23610	138818	27026	1012802	42161	109247	0	0	8240	589628	0	0
2024-06-16 04:27:32			0	37135	0	0	0	25005	23590	138822	27019	1012749	42169	109242	0	0	8241	589245	0	0
2024-06-16 04:28:32			0	37149	0	0	0	25005	23600	138702	26733	1012847	42161	109242	0	0	8242	588640	0	0
2024-06-16 04:29:32			0	37148	0	0	0	25005	23600	138766	26925	1012811	42160	109242	0	0	8242	588681	0	0
2024-06-16 04:30:32			0	37156	0	0	0	24984	23590	138778	26864	1012803	42159	109234	0	0	8243	588388	0	0
2024-06-16 04:31:32			0	37163	0	0	0	24984	23580	138730	27034	1012697	42146	109234	0	0	8243	588135	0	0
2024-06-16 04:32:32			0	37151	0	0	0	24984	23580	138702	26944	1012679	42158	109234	0	0	8242	588625	0	0
2024-06-16 04:33:32			0	37156	0	0	0	24974	23580	138806	26904	1012732	42168	109230	0	0	8243	588421	0	0
2024-06-16 04:34:32			0	37161	0	0	0	24976	23580	138802	27007	1012670	42158	109231	0	0	8243	588217	0	0
2024-06-16 04:35:32			0	37165	0	0	0	24976	23570	138854	26812	1012715	42157	109231	0	0	8243	588087	0	0
2024-06-16 04:36:32			0	37165	0	0	0	24981	23580	138814	26753	1012724	42168	109233	0	0	8243	588054	0	0
2024-06-16 04:37:32			0	37153	0	0	0	24974	23580	138810	27017	1012804	42168	109230	0	0	8243	588543	0	0
2024-06-16 04:38:32			0	37179	0	0	0	24974	23570	138874	26942	1012742	42167	109230	0	0	8244	587516	0	0
2024-06-16 04:39:32			0	37147	0	0	0	24979	23570	138734	27069	1012635	42157	109232	0	0	8242	588821	0	0
2024-06-16 04:40:32			0	37189	0	0	0	24968	23570	138830	26868	1012688	42146	109228	0	0	8245	587108	0	0
2024-06-16 04:41:32			0	37159	0	0	0	24966	23580	138814	27085	1012724	42168	109227	0	0	8243	588298	0	0
2024-06-16 04:42:32			0	37169	0	0	0	24971	23570	138774	26684	1012688	42167	109229	0	0	8243	587924	0	0
2024-06-16 04:43:32			0	37148	0	0	0	24974	23570	138818	27161	1012706	42157	109230	0	0	8242	588781	0	0
2024-06-16 04:44:32			0	37152	0	0	0	24976	23570	138746	26951	1012688	42167	109231	0	0	8242	588617	0	0
2024-06-16 04:45:32			0	37147	0	0	0	24981	23560	138834	27208	1012617	42166	109233	0	0	8242	588854	0	0
2024-06-16 04:46:32			0	37139	0	0	0	24968	23560	138822	26960	1012671	42166	109228	0	0	8242	589181	0	0
2024-06-16 04:47:32			0	37138	0	0	0	24976	23570	138930	26944	1012661	42157	109231	0	0	8242	589189	0	0
2024-06-16 04:48:32			0	37095	0	0	0	24963	23560	138870	27093	1012644	42166	109226	0	0	8240	590980	0	0
2024-06-16 04:49:32			0	37126	0	0	0	24971	23560	138910	26623	1012662	42166	109229	0	0	8241	589712	0	0
2024-06-16 04:50:32			0	37114	0	0	0	24966	23560	138946	27190	1012689	42166	109227	0	0	8241	590203	0	0
2024-06-16 04:51:32			0	37106	0	0	0	24963	23560	139006	27170	1012662	42156	109226	0	0	8240	590530	0	0
2024-06-16 04:52:32			0	37092	0	0	0	24958	23570	139062	26948	1012680	42167	109224	0	0	8240	591070	0	0
2024-06-16 04:53:32			0	37060	0	0	0	24958	23550	139010	26866	1012654	42155	109224	0	0	8238	592447	0	0
2024-06-16 04:54:32			0	37074	0	0	0	24958	23560	139070	27050	1012662	42156	109224	0	0	8239	591840	0	0
2024-06-16 04:55:32			0	37061	0	0	0	24963	23550	139086	27185	1012654	42166	109226	0	0	8238	592406	0	0
2024-06-16 04:56:32			0	37051	0	0	0	24963	23550	139106	27024	1012592	42154	109226	0	0	8237	592816	0	0
2024-06-16 04:57:32			0	37051	0	0	0	24963	23560	139234	27071	1012644	42166	109226	0	0	8237	592783	0	0
2024-06-16 04:58:32			0	37034	0	0	0	24966	23560	139230	26968	1012697	42156	109227	0	0	8236	593481	0	0
2024-06-16 04:59:32			0	37025	0	0	0	24968	23560	139258	26708	1012662	42166	109228	0	0	8236	593850	0	0
2024-06-16 05:00:32			0	37015	0	0	0	24966	23560	139230	26658	1012582	42166	109227	0	0	8235	594261	0	0
2024-06-16 05:01:32			0	37005	0	0	0	24961	23560	139302	26925	1012644	42166	109225	0	0	8235	594672	0	0
2024-06-16 05:02:32			0	36988	0	0	0	24950	23560	139354	27128	1012555	42156	109221	0	0	8234	595371	0	0
2024-06-16 05:03:32			0	36983	0	0	0	24948	23560	139362	27400	1012662	42178	109220	0	0	8234	595576	0	0
2024-06-16 05:04:32			0	36973	0	0	0	24958	23560	139486	26752	1012609	42178	109224	0	0	8233	595988	0	0
2024-06-16 05:05:32			0	36978	0	0	0	24955	23560	139410	26795	1012635	42156	109223	0	0	8234	595782	0	0
2024-06-16 05:06:32			0	36959	0	0	0	24958	23550	139482	27144	1012654	42166	109224	0	0	8233	596598	0	0
2024-06-16 05:07:32			0	36951	0	0	0	24966	23560	139550	26762	1012689	42166	109227	0	0	8232	596894	0	0
2024-06-16 05:08:32			0	36944	0	0	0	24961	23550	139602	26831	1012600	42166	109225	0	0	8232	597216	0	0
2024-06-16 05:09:32			0	36920	0	0	0	24955	23560	139558	26949	1012609	42166	109223	0	0	8231	598172	0	0
2024-06-16 05:10:32			0	36923	0	0	0	24961	23560	139638	27112	1012689	42166	109225	0	0	8231	598048	0	0
2024-06-16 05:11:32			0	36892	0	0	0	24958	23550	139658	27166	1012707	42144	109224	0	0	8229	599362	0	0
2024-06-16 05:12:32			0	36888	0	0	0	24958	23550	139750	26849	1012654	42144	109224	0	0	8229	599527	0	0
2024-06-16 05:13:32			0	36889	0	0	0	24953	23550	139770	26779	1012618	42165	109222	0	0	8229	599486	0	0
2024-06-16 05:14:32			0	36886	0	0	0	24958	23550	139830	27013	1012618	42143	109224	0	0	8229	599610	0	0
2024-06-16 05:15:32			0	36868	0	0	0	24961	23560	139818	26654	1012635	42156	109225	0	0	8228	600320	0	0
2024-06-16 05:16:32			0	36860	0	0	0	24958	23550	140006	27192	1012654	42155	109224	0	0	8227	600685	0	0
2024-06-16 05:17:32			0	36821	0	0	0	24958	23560	139962	26750	1012697	42156	109224	0	0	8225	602267	0	0
2024-06-16 05:18:32			0	36840	0	0	0	24958	23550	139938	26949	1012600	42166	109224	0	0	8226	601513	0	0
2024-06-16 05:19:32			0	36823	0	0	0	24968	23560	139978	27152	1012671	42145	109228	0	0	8225	602184	0	0
2024-06-16 05:20:32			0	36819	0	0	0	24976	23560	140002	27249	1012617	42156	109231	0	0	8225	602350	0	0
2024-06-16 05:21:32			0	36820	0	0	0	24976	23560	140074	26830	1012635	42166	109231	0	0	8225	602308	0	0
2024-06-16 05:22:32			0	36799	0	0	0	24971	23560	140002	26772	1012689	42166	109229	0	0	8224	603179	0	0
2024-06-16 05:23:32			0	36788	0	0	0	24971	23560	140054	26928	1012742	42156	109229	0	0	8223	603636	0	0
2024-06-16 05:24:32			0	36790	0	0	0	24966	23550	140146	27003	1012627	42177	109227	0	0	8224	603587	0	0
2024-06-16 05:25:32			0	36780	0	0	0	24968	23560	140238	27031	1012689	42178	109228	0	0	8223	603968	0	0
2024-06-16 05:26:32			0	36780	0	0	0	24963	23570	140150	26816	1012680	42167	109226	0	0	8223	603934	0	0
2024-06-16 05:27:32			0	36770	0	0	0	24958	23550	140190	26757	1012672	42165	109224	0	0	8223	604417	0	0
2024-06-16 05:28:32			0	36747	0	0	0	24963	23560	140282	26928	1012635	42178	109226	0	0	8221	605339	0	0
2024-06-16 05:29:32			0	36749	0	0	0	24968	23550	140210	27163	1012627	42155	109228	0	0	8221	605290	0	0
2024-06-16 05:30:32			0	36714	0	0	0	24961	23560	140338	26760	1012662	42166	109225	0	0	8220	606713	0	0
2024-06-16 05:31:32			0	36759	0	0	0	24963	23560	140382	26968	1012564	42166	109226	0	0	8222	604841	0	0
2024-06-16 05:32:32			0	36715	0	0	0	24961	23550	140406	27086	1012600	42155	109225	0	0	8220	606706	0	0
2024-06-16 05:33:32			0	36721	0	0	0	24961	23550	140438	27180	1012618	42154	109225	0	0	8220	606456	0	0
2024-06-16 05:34:32			0	36687	0	0	0	24963	23560	140418	27045	1012644	42166	109226	0	0	8218	607839	0	0
2024-06-16 05:35:32			0	36698	0	0	0	24963	23550	140458	27019	1012654	42155	109226	0	0	8219	607414	0	0
2024-06-16 05:36:32			0	36701	0	0	0	24971	23560	140482	26608	1012662	42166	109229	0	0	8219	607255	0	0
2024-06-16 05:37:32			0	36676	0	0	0	24961	23560	140514	26819	1012697	42156	109225	0	0	8218	608298	0	0
2024-06-16 05:38:32			0	36686	0	0	0	24958	23560	140618	26979	1012609	42166	109224	0	0	8218	607881	0	0
2024-06-16 05:39:32			0	36675	0	0	0	24955	23560	140558	27015	1012689	42166	109223	0	0	8218	608340	0	0
2024-06-16 05:40:32			0	36682	0	0	0	24958	23560	140510	26986	1012644	42166	109224	0	0	8218	608048	0	0
2024-06-16 05:41:32			0	36647	0	0	0	24953	23560	140582	27024	1012635	42166	109222	0	0	8216	609509	0	0
2024-06-16 05:42:32			0	36659	0	0	0	24958	23560	140634	26771	1012635	42166	109224	0	0	8217	609008	0	0
2024-06-16 05:43:32			0	36652	0	0	0	24958	23560	140602	26734	1012644	42166	109224	0	0	8217	609300	0	0
2024-06-16 05:44:32			0	36636	0	0	0	24963	23560	140622	26635	1012689	42166	109226	0	0	8216	609969	0	0
2024-06-16 05:45:32			0	36654	0	0	0	24950	23560	140662	27137	1012609	42156	109221	0	0	8217	609217	0	0
2024-06-16 05:46:32			0	36628	0	0	0	24948	23550	140670	26927	1012654	42155	109220	0	0	8215	610338	0	0
2024-06-16 05:47:32			0	36629	0	0	0	24958	23560	140698	27130	1012662	42166	109224	0	0	8215	610262	0	0
2024-06-16 05:48:32			0	36614	0	0	0	24963	23540	140742	27079	1012583	42165	109226	0	0	8214	610958	0	0
2024-06-16 05:49:32			0	36609	0	0	0	24950	23560	140706	26771	1012689	42156	109221	0	0	8214	611099	0	0
2024-06-16 05:50:32			0	36613	0	0	0	24958	23550	140842	27007	1012592	42154	109224	0	0	8214	610966	0	0
2024-06-16 05:51:32			0	36595	0	0	0	24953	23550	140714	26812	1012618	42165	109222	0	0	8214	611719	0	0
2024-06-16 05:52:32			0	36596	0	0	0	24948	23550	140838	26817	1012592	42165	109220	0	0	8214	611677	0	0
2024-06-16 05:53:32			0	36580	0	0	0	24950	23540	140845	26991	1012556	42154	109221	0	0	8213	612382	0	0
2024-06-16 05:54:32			0	36582	0	0	0	24953	23560	140797	27175	1012635	42156	109222	0	0	8213	612230	0	0
2024-06-16 05:55:32			0	36560	0	0	0	24942	23550	140909	27118	1012592	42165	109218	0	0	8212	613187	0	0
2024-06-16 05:56:32			0	36569	0	0	0	24929	23550	140905	27098	1012565	42165	109213	0	0	8213	612809	0	0
2024-06-16 05:57:32			0	36567	0	0	0	24935	23540	140949	27135	1012556	42154	109215	0	0	8212	612928	0	0
2024-06-16 05:58:32			0	36554	0	0	0	24940	23540	140969	26908	1012548	42165	109217	0	0	8212	613473	0	0
2024-06-16 05:59:32			0	36546	0	0	0	24935	23540	140981	26892	1012583	42154	109215	0	0	8211	613809	0	0
2024-06-16 06:00:32			0	36535	0	0	0	24935	23540	140973	27119	1012575	42143	109215	0	0	8211	614271	0	0
2024-06-16 06:01:32			0	36534	0	0	0	24937	23540	140957	26859	1012521	42176	109216	0	0	8211	614313	0	0
2024-06-16 06:02:32			0	36529	0	0	0	24929	23540	141065	27331	1012556	42165	109213	0	0	8210	614523	0	0
2024-06-16 06:03:32			0	36524	0	0	0	24935	23530	141129	27239	1012539	42164	109215	0	0	8210	614768	0	0
2024-06-16 06:04:32			0	36533	0	0	0	24922	23540	141165	27334	1012521	42154	109210	0	0	8211	614355	0	0
2024-06-16 06:05:32			0	36519	0	0	0	24924	23530	141137	27222	1012539	42153	109211	0	0	8210	614978	0	0
2024-06-16 06:06:32			0	36518	0	0	0	24927	23530	141153	27187	1012504	42164	109212	0	0	8210	615020	0	0
2024-06-16 06:07:32			0	36512	0	0	0	24929	23530	141073	27029	1012566	42164	109213	0	0	8210	615273	0	0
2024-06-16 06:08:32			0	36495	0	0	0	24914	23530	141233	27315	1012486	42164	109207	0	0	8209	615988	0	0
2024-06-16 06:09:32			0	36499	0	0	0	24922	23530	141249	27135	1012531	42164	109210	0	0	8209	615820	0	0
2024-06-16 06:10:32			0	36496	0	0	0	24919	23530	141153	27154	1012566	42142	109209	0	0	8209	615946	0	0
2024-06-16 06:11:32			0	36491	0	0	0	24919	23530	141213	27074	1012504	42152	109209	0	0	8209	616157	0	0
2024-06-16 06:12:32			0	36483	0	0	0	24916	23520	141241	27176	1012434	42151	109208	0	0	8208	616528	0	0
2024-06-16 06:13:32			0	36495	0	0	0	24906	23520	141225	27261	1012434	42163	109204	0	0	8209	616023	0	0
2024-06-16 06:14:32			0	36492	0	0	0	24901	23510	141281	27027	1012372	42151	109202	0	0	8209	616184	0	0
2024-06-16 06:15:32			0	36482	0	0	0	24901	23520	141257	27410	1012389	42164	109202	0	0	8208	616570	0	0
2024-06-16 06:16:32			0	36474	0	0	0	24901	23510	141261	27367	1012416	42162	109202	0	0	8208	616942	0	0
2024-06-16 06:17:32			0	36473	0	0	0	24888	23510	141297	27175	1012363	42162	109197	0	0	8208	616984	0	0
2024-06-16 06:18:32			0	36463	0	0	0	24898	23510	141385	27052	1012390	42162	109201	0	0	8207	617406	0	0
2024-06-16 06:19:32			0	36452	0	0	0	24885	23500	141349	26870	1012301	42162	109196	0	0	8207	617905	0	0
2024-06-16 06:20:32			0	36440	0	0	0	24885	23500	141393	26977	1012274	42150	109196	0	0	8206	618411	0	0
2024-06-16 06:21:32			0	36462	0	0	0	24885	23500	141445	27138	1012354	42162	109196	0	0	8207	617483	0	0
2024-06-16 06:22:32			0	36455	0	0	0	24875	23490	141437	26932	1012337	42149	109192	0	0	8207	617813	0	0
2024-06-16 06:23:32			0	36439	0	0	0	24875	23500	141341	27345	1012292	42149	109192	0	0	8206	618453	0	0
2024-06-16 06:24:32			0	36436	0	0	0	24883	23500	141445	27235	1012292	42149	109195	0	0	8206	618580	0	0
2024-06-16 06:25:32			0	36457	0	0	0	24885	23480	141365	27331	1012320	42149	109196	0	0	8207	617763	0	0
2024-06-16 06:26:32			0	36452	0	0	0	24875	23490	141465	27154	1012329	42149	109192	0	0	8207	617939	0	0
2024-06-16 06:27:32			0	36451	0	0	0	24883	23490	141457	27206	1012302	42170	109195	0	0	8207	617981	0	0
2024-06-16 06:28:32			0	36436	0	0	0	24872	23490	141461	27159	1012311	42149	109191	0	0	8206	618615	0	0
2024-06-16 06:29:32			0	36432	0	0	0	24877	23480	141433	27079	1012320	42160	109193	0	0	8206	618818	0	0
2024-06-16 06:30:32			0	36421	0	0	0	24875	23480	141425	27185	1012320	42160	109192	0	0	8205	619283	0	0
2024-06-16 06:31:32			0	36421	0	0	0	24883	23490	141533	27189	1012355	42160	109195	0	0	8205	619248	0	0
2024-06-16 06:32:32			0	36425	0	0	0	24877	23480	141441	27045	1012294	42149	109193	0	0	8206	619114	0	0
2024-06-16 06:33:32			0	36414	0	0	0	24880	23490	141457	27327	1012382	42149	109194	0	0	8205	619544	0	0
2024-06-16 06:34:32			0	36440	0	0	0	24883	23470	141537	26970	1012303	42168	109195	0	0	8206	618515	0	0
2024-06-16 06:35:32			0	36433	0	0	0	24875	23490	141445	27086	1012302	42149	109192	0	0	8206	618741	0	0
2024-06-16 06:36:32			0	36432	0	0	0	24880	23480	141497	27358	1012294	42137	109194	0	0	8206	618818	0	0
2024-06-16 06:37:32			0	36425	0	0	0	24875	23490	141549	27045	1012329	42149	109192	0	0	8206	619079	0	0
2024-06-16 06:38:32			0	36436	0	0	0	24872	23480	141517	27249	1012258	42159	109191	0	0	8206	618649	0	0
2024-06-16 06:39:32			0	36423	0	0	0	24875	23480	141485	27234	1012312	42148	109192	0	0	8206	619199	0	0
2024-06-16 06:40:32			0	36425	0	0	0	24872	23470	141469	27197	1012356	42147	109191	0	0	8206	619149	0	0
2024-06-16 06:41:32			0	36424	0	0	0	24875	23480	141553	26902	1012312	42136	109192	0	0	8206	619156	0	0
2024-06-16 06:42:32			0	36407	0	0	0	24867	23470	141461	27159	1012303	42147	109189	0	0	8205	619910	0	0
2024-06-16 06:43:32			0	36428	0	0	0	24872	23470	141545	26986	1012276	42135	109191	0	0	8206	619022	0	0
2024-06-16 06:44:32			0	36428	0	0	0	24872	23470	141549	26908	1012241	42147	109191	0	0	8206	619022	0	0
2024-06-16 06:45:32			0	36431	0	0	0	24877	23470	141589	27137	1012241	42147	109193	0	0	8206	618895	0	0
2024-06-16 06:46:32			0	36439	0	0	0	24872	23470	141581	27164	1012276	42168	109191	0	0	8206	618558	0	0
2024-06-16 06:47:32			0	36426	0	0	0	24870	23480	141497	27124	1012285	42159	109190	0	0	8206	619072	0	0
2024-06-16 06:48:32			0	36428	0	0	0	24877	23470	141497	26939	1012276	42135	109193	0	0	8206	619022	0	0
2024-06-16 06:49:32			0	36428	0	0	0	24875	23470	141509	26731	1012268	42147	109192	0	0	8206	619022	0	0
2024-06-16 06:50:32			0	36420	0	0	0	24872	23470	141453	27034	1012295	42158	109191	0	0	8205	619360	0	0
2024-06-16 06:51:32			0	36431	0	0	0	24872	23480	141497	27138	1012258	42148	109191	0	0	8206	618861	0	0
2024-06-16 06:52:32			0	36423	0	0	0	24877	23470	141457	27203	1012356	42147	109193	0	0	8205	619233	0	0
2024-06-16 06:53:32			0	36426	0	0	0	24875	23480	141417	27034	1012320	42160	109192	0	0	8206	619072	0	0
2024-06-16 06:54:32			0	36441	0	0	0	24870	23470	141473	27130	1012250	42158	109190	0	0	8207	618473	0	0
2024-06-16 06:55:32			0	36446	0	0	0	24872	23480	141433	27180	1012338	42148	109191	0	0	8207	618227	0	0
2024-06-16 06:56:32			0	36433	0	0	0	24875	23480	141493	27215	1012213	42160	109192	0	0	8206	618776	0	0
2024-06-16 06:57:32			0	36433	0	0	0	24870	23470	141509	27377	1012268	42147	109190	0	0	8206	618811	0	0
2024-06-16 06:58:32			0	36442	0	0	0	24880	23470	141445	27358	1012250	42147	109194	0	0	8206	618431	0	0
2024-06-16 06:59:32			0	36446	0	0	0	24870	23470	141445	27329	1012214	42158	109190	0	0	8207	618262	0	0
2024-06-16 07:00:32			0	36450	0	0	0	24867	23460	141457	27149	1012224	42179	109189	0	0	8207	618128	0	0
2024-06-16 07:01:32			0	36460	0	0	0	24877	23460	141405	27204	1012206	42158	109193	0	0	8207	617706	0	0
2024-06-16 07:02:32			0	36474	0	0	0	24862	23470	141433	27074	1012223	42158	109187	0	0	8208	617081	0	0
2024-06-16 07:03:32			0	36441	0	0	0	24859	23460	141405	26991	1012233	42147	109186	0	0	8207	618508	0	0
2024-06-16 07:04:32			0	36462	0	0	0	24857	23460	141345	27220	1012171	42146	109185	0	0	8208	617621	0	0
2024-06-16 07:05:32			0	36463	0	0	0	24857	23460	141365	27138	1012313	42147	109185	0	0	8208	617579	0	0
2024-06-16 07:06:32			0	36475	0	0	0	24857	23460	141393	26651	1012251	42135	109185	0	0	8208	617073	0	0
2024-06-16 07:07:32			0	36477	0	0	0	24864	23470	141317	27112	1012276	42180	109188	0	0	8209	616954	0	0
2024-06-16 07:08:32			0	36483	0	0	0	24864	23460	141337	27026	1012277	42157	109188	0	0	8209	616736	0	0
2024-06-16 07:09:32			0	36490	0	0	0	24872	23470	141401	27001	1012214	42158	109191	0	0	8209	616406	0	0
2024-06-16 07:10:32			0	36482	0	0	0	24870	23470	141221	27064	1012223	42135	109190	0	0	8209	616744	0	0
2024-06-16 07:11:32			0	36488	0	0	0	24872	23460	141289	27031	1012259	42147	109191	0	0	8209	616526	0	0
2024-06-16 07:12:32			0	36485	0	0	0	24872	23460	141233	26826	1012197	42146	109191	0	0	8209	616652	0	0
2024-06-16 07:13:32			0	36498	0	0	0	24872	23460	141297	26847	1012179	42158	109191	0	0	8209	616104	0	0
2024-06-16 07:14:32			0	36514	0	0	0	24877	23470	141177	27232	1012295	42147	109193	0	0	8210	615396	0	0
2024-06-16 07:15:32			0	36512	0	0	0	24875	23460	141273	27416	1012233	42135	109192	0	0	8210	615515	0	0
2024-06-16 07:16:32			0	36512	0	0	0	24885	23470	141237	27086	1012330	42158	109196	0	0	8210	615480	0	0
2024-06-16 07:17:32			0	36516	0	0	0	24880	23480	141153	26743	1012312	42159	109194	0	0	8210	615277	0	0
2024-06-16 07:18:32			0	36522	0	0	0	24875	23470	141157	27144	1012321	42147	109192	0	0	8211	615060	0	0
2024-06-16 07:19:32			0	36538	0	0	0	24883	23470	141141	26949	1012303	42158	109195	0	0	8211	614387	0	0
2024-06-16 07:20:32			0	36551	0	0	0	24880	23480	141041	26906	1012338	42148	109194	0	0	8212	613806	0	0
2024-06-16 07:21:32			0	36548	0	0	0	24880	23470	141061	26882	1012295	42158	109194	0	0	8212	613967	0	0
2024-06-16 07:22:32			0	36548	0	0	0	24877	23480	141081	27164	1012338	42136	109193	0	0	8212	613932	0	0
2024-06-16 07:23:32			0	36564	0	0	0	24880	23470	141057	26923	1012303	42168	109194	0	0	8213	613295	0	0
2024-06-16 07:24:32			0	36555	0	0	0	24890	23480	141065	26941	1012374	42160	109198	0	0	8212	613638	0	0
2024-06-16 07:25:32			0	36591	0	0	0	24893	23470	140966	27235	1012356	42168	109199	0	0	8214	612162	0	0
2024-06-16 07:26:32			0	36574	0	0	0	24901	23490	140937	27086	1012409	42149	109202	0	0	8213	612806	0	0
2024-06-16 07:27:32			0	36601	0	0	0	24906	23490	140789	27298	1012417	42171	109204	0	0	8214	611674	0	0
2024-06-16 07:28:32			0	36588	0	0	0	24914	23500	140929	27022	1012541	42162	109207	0	0	8214	612185	0	0
2024-06-16 07:29:32			0	36599	0	0	0	24927	23510	140901	27000	1012497	42150	109212	0	0	8214	611689	0	0
2024-06-16 07:30:32			0	36603	0	0	0	24916	23500	140918	27003	1012461	42162	109208	0	0	8214	611556	0	0
2024-06-16 07:31:32			0	36614	0	0	0	24919	23510	140802	27177	1012478	42151	109209	0	0	8215	611061	0	0
2024-06-16 07:32:32			0	36634	0	0	0	24919	23490	140818	26922	1012471	42149	109209	0	0	8216	610293	0	0
2024-06-16 07:33:32			0	36623	0	0	0	24929	23510	140814	26887	1012505	42163	109213	0	0	8215	610684	0	0
2024-06-16 07:34:32			0	36646	0	0	0	24932	23510	140714	27178	1012497	42162	109214	0	0	8216	609722	0	0
2024-06-16 07:35:32			0	36650	0	0	0	24932	23510	140670	27107	1012478	42163	109214	0	0	8217	609555	0	0
2024-06-16 07:36:32			0	36631	0	0	0	24940	23520	140622	27081	1012514	42163	109217	0	0	8216	610315	0	0
2024-06-16 07:37:32			0	36676	0	0	0	24942	23530	140694	27216	1012557	42164	109218	0	0	8218	608401	0	0
2024-06-16 07:38:32			0	36661	0	0	0	24942	23520	140618	27154	1012549	42164	109218	0	0	8217	609061	0	0
2024-06-16 07:39:32			0	36678	0	0	0	24942	23530	140634	26854	1012673	42164	109218	0	0	8218	608317	0	0
2024-06-16 07:40:32			0	36680	0	0	0	24950	23530	140490	27000	1012593	42164	109221	0	0	8218	608234	0	0
2024-06-16 07:41:32			0	36695	0	0	0	24955	23530	140546	27045	1012611	42164	109223	0	0	8219	607608	0	0
2024-06-16 07:42:32			0	36674	0	0	0	24948	23540	140506	26724	1012690	42154	109220	0	0	8218	608450	0	0
2024-06-16 07:43:32			0	36705	0	0	0	24953	23530	140586	27277	1012611	42152	109222	0	0	8219	607191	0	0
2024-06-16 07:44:32			0	36677	0	0	0	24950	23530	140458	26968	1012619	42153	109221	0	0	8218	608359	0	0
2024-06-16 07:45:32			0	36707	0	0	0	24953	23550	140490	27121	1012592	42176	109222	0	0	8219	607039	0	0
2024-06-16 07:46:32			0	36715	0	0	0	24950	23540	140478	26949	1012690	42165	109221	0	0	8220	606740	0	0
2024-06-16 07:47:32			0	36696	0	0	0	24961	23550	140422	26935	1012645	42165	109225	0	0	8219	607498	0	0
2024-06-16 07:48:32			0	36701	0	0	0	24963	23550	140374	27119	1012707	42166	109226	0	0	8219	607289	0	0
2024-06-16 07:49:32			0	36721	0	0	0	24953	23540	140386	27138	1012663	42176	109222	0	0	8220	606490	0	0
2024-06-16 07:50:32			0	36721	0	0	0	24955	23550	140282	26979	1012654	42177	109223	0	0	8220	606456	0	0
2024-06-16 07:51:32			0	36720	0	0	0	24966	23540	140314	26873	1012583	42165	109227	0	0	8220	606531	0	0
2024-06-16 07:52:32			0	36723	0	0	0	24974	23550	140294	27003	1012698	42176	109230	0	0	8220	606373	0	0
2024-06-16 07:53:32			0	36742	0	0	0	24961	23540	140234	27242	1012628	42176	109225	0	0	8221	605616	0	0
2024-06-16 07:54:32			0	36753	0	0	0	24958	23550	140214	26729	1012672	42176	109224	0	0	8222	605124	0	0
2024-06-16 07:55:32			0	36747	0	0	0	24966	23550	140282	27026	1012707	42177	109227	0	0	8221	605373	0	0
2024-06-16 07:56:32			0	36753	0	0	0	24963	23560	140190	27060	1012662	42166	109226	0	0	8222	605090	0	0
2024-06-16 07:57:32			0	36757	0	0	0	24966	23560	140242	27209	1012751	42178	109227	0	0	8222	604924	0	0
2024-06-16 07:58:32			0	36749	0	0	0	24968	23550	140186	26993	1012680	42177	109228	0	0	8221	605290	0	0
2024-06-16 07:59:32			0	36744	0	0	0	24971	23560	140122	27433	1012716	42178	109229	0	0	8221	605464	0	0
2024-06-16 08:00:32			0	36773	0	0	0	24974	23560	140234	27312	1012689	42178	109230	0	0	8223	604259	0	0
2024-06-16 08:01:32			0	36779	0	0	0	24968	23560	140162	27215	1012716	42178	109228	0	0	8223	604009	0	0
2024-06-16 08:02:32			0	36803	0	0	0	24971	23560	140098	27329	1012751	42166	109229	0	0	8224	603013	0	0
2024-06-16 08:03:32			0	36779	0	0	0	24976	23560	140066	27001	1012742	42166	109231	0	0	8223	604009	0	0
2024-06-16 08:04:32			0	36799	0	0	0	24976	23570	140038	26946	1012786	42167	109231	0	0	8224	603145	0	0
2024-06-16 08:05:32			0	36819	0	0	0	24979	23560	140086	27163	1012751	42166	109232	0	0	8225	602350	0	0
2024-06-16 08:06:32			0	36818	0	0	0	24974	23570	140022	27187	1012760	42178	109230	0	0	8225	602357	0	0
2024-06-16 08:07:32			0	36814	0	0	0	24981	23570	139998	26967	1012715	42157	109233	0	0	8225	602523	0	0
2024-06-16 08:08:32			0	36811	0	0	0	24979	23570	140006	27286	1012733	42157	109232	0	0	8225	602647	0	0
2024-06-16 08:09:32			0	36833	0	0	0	24986	23570	139942	27150	1012840	42167	109235	0	0	8226	601735	0	0
2024-06-16 08:10:32			0	36828	0	0	0	24981	23570	139910	27095	1012786	42178	109233	0	0	8225	601943	0	0
2024-06-16 08:11:32			0	36825	0	0	0	24994	23580	139922	27041	1012804	42168	109238	0	0	8225	602033	0	0
2024-06-16 08:12:32			0	36832	0	0	0	24989	23580	139930	27239	1012866	42168	109236	0	0	8226	601743	0	0
2024-06-16 08:13:32			0	36849	0	0	0	24989	23580	139886	27235	1012804	42168	109236	0	0	8226	601039	0	0
2024-06-16 08:14:32			0	36862	0	0	0	24994	23580	139926	27095	1012866	42191	109238	0	0	8227	600501	0	0
2024-06-16 08:15:32			0	36852	0	0	0	24986	23580	139830	27202	1012786	42168	109235	0	0	8227	600915	0	0
2024-06-16 08:16:32			0	36859	0	0	0	24994	23590	139858	26979	1012821	42169	109238	0	0	8227	600591	0	0
2024-06-16 08:17:32			0	36867	0	0	0	24992	23580	139730	27150	1012759	42168	109237	0	0	8227	600294	0	0
2024-06-16 08:18:32			0	36866	0	0	0	24992	23580	139842	27171	1012812	42158	109237	0	0	8227	600336	0	0
2024-06-16 08:19:32			0	36878	0	0	0	24997	23590	139746	27081	1012821	42180	109239	0	0	8228	599806	0	0
2024-06-16 08:20:32			0	36854	0	0	0	24994	23590	139770	27190	1012830	42180	109238	0	0	8227	600798	0	0
2024-06-16 08:21:32			0	36885	0	0	0	24999	23580	139794	27157	1012866	42168	109240	0	0	8228	599550	0	0
2024-06-16 08:22:32			0	36848	0	0	0	24997	23590	139790	27235	1012901	42169	109239	0	0	8226	601047	0	0
2024-06-16 08:23:32			0	36872	0	0	0	24992	23590	139790	27074	1012874	42159	109237	0	0	8228	600054	0	0
2024-06-16 08:24:32			0	36868	0	0	0	24994	23590	139786	27298	1012848	42180	109238	0	0	8227	600219	0	0
2024-06-16 08:25:32			0	36862	0	0	0	24994	23590	139806	26902	1012883	42169	109238	0	0	8227	600467	0	0
2024-06-16 08:26:32			0	36869	0	0	0	24994	23590	139758	26694	1012856	42169	109238	0	0	8227	600178	0	0
2024-06-16 08:27:32			0	36872	0	0	0	24992	23580	139870	26807	1012812	42191	109237	0	0	8228	600087	0	0
2024-06-16 08:28:32			0	36878	0	0	0	24997	23590	139838	27090	1012856	42169	109239	0	0	8228	599806	0	0
2024-06-16 08:29:32			0	36867	0	0	0	24994	23590	139862	26807	1012874	42169	109238	0	0	8227	600261	0	0
2024-06-16 08:30:32			0	36872	0	0	0	24997	23590	139778	27062	1012821	42180	109239	0	0	8228	600054	0	0
2024-06-16 08:31:32			0	36874	0	0	0	24994	23590	139794	26805	1012874	42169	109238	0	0	8228	599971	0	0
2024-06-16 08:32:32			0	36861	0	0	0	24994	23590	139822	27230	1012821	42169	109238	0	0	8227	600509	0	0
2024-06-16 08:33:32			0	36850	0	0	0	24984	23590	139918	27315	1012856	42169	109234	0	0	8227	600964	0	0
2024-06-16 08:34:32			0	36855	0	0	0	24997	23580	139922	27128	1012839	42168	109239	0	0	8227	600791	0	0
2024-06-16 08:35:32			0	36860	0	0	0	24994	23590	139902	27008	1012821	42180	109238	0	0	8227	600550	0	0
2024-06-16 08:36:32			0	36852	0	0	0	24997	23590	139922	27098	1012821	42169	109239	0	0	8226	600881	0	0
2024-06-16 08:37:32			0	36849	0	0	0	24986	23590	139930	27062	1012830	42169	109235	0	0	8227	601005	0	0
2024-06-16 08:38:32			0	36835	0	0	0	24999	23590	139898	26965	1012874	42180	109240	0	0	8226	601585	0	0
2024-06-16 08:39:32			0	36828	0	0	0	24992	23590	140030	26963	1012821	42169	109237	0	0	8225	601875	0	0
2024-06-16 08:40:32			0	36821	0	0	0	24992	23590	139950	27034	1012794	42159	109237	0	0	8225	602165	0	0
2024-06-16 08:41:32			0	36817	0	0	0	24986	23580	140046	27203	1012804	42158	109235	0	0	8225	602365	0	0
2024-06-16 08:42:32			0	36821	0	0	0	24986	23590	139994	27095	1012848	42169	109235	0	0	8225	602165	0	0
2024-06-16 08:43:32			0	36816	0	0	0	24984	23590	140006	27209	1012768	42180	109234	0	0	8225	602372	0	0
2024-06-16 08:44:32			0	36802	0	0	0	24979	23590	139986	27213	1012821	42159	109232	0	0	8224	602953	0	0
2024-06-16 08:45:32			0	36803	0	0	0	24976	23580	140074	26890	1012759	42158	109231	0	0	8224	602945	0	0
2024-06-16 08:46:32			0	36796	0	0	0	24971	23580	140074	26915	1012804	42168	109229	0	0	8224	603236	0	0
2024-06-16 08:47:32			0	36796	0	0	0	24974	23570	140074	26781	1012760	42167	109230	0	0	8224	603270	0	0
2024-06-16 08:48:32			0	36794	0	0	0	24974	23570	140082	27364	1012813	42167	109230	0	0	8224	603353	0	0
2024-06-16 08:49:32			0	36780	0	0	0	24976	23580	140154	26847	1012777	42168	109231	0	0	8223	603900	0	0
2024-06-16 08:50:32			0	36771	0	0	0	24974	23580	140222	26835	1012839	42179	109230	0	0	8223	604274	0	0
2024-06-16 08:51:32			0	36784	0	0	0	24971	23580	140246	27308	1012839	42179	109229	0	0	8223	603734	0	0
2024-06-16 08:52:32			0	36774	0	0	0	24981	23580	140178	26918	1012804	42168	109233	0	0	8223	604149	0	0
2024-06-16 08:53:32			0	36764	0	0	0	24981	23570	140186	27360	1012795	42167	109233	0	0	8222	604599	0	0
2024-06-16 08:54:32			0	36746	0	0	0	24979	23580	140338	27060	1012804	42158	109232	0	0	8221	605313	0	0
2024-06-16 08:55:32			0	36737	0	0	0	24974	23580	140370	27164	1012866	42168	109230	0	0	8221	605688	0	0
2024-06-16 08:56:32			0	36752	0	0	0	24981	23570	140302	27222	1012848	42167	109233	0	0	8221	605098	0	0
2024-06-16 08:57:32			0	36726	0	0	0	24979	23580	140434	27260	1012831	42179	109232	0	0	8220	606145	0	0
2024-06-16 08:58:32			0	36720	0	0	0	24981	23580	140450	27079	1012857	42179	109233	0	0	8220	606395	0	0
2024-06-16 08:59:32			0	36709	0	0	0	24984	23570	140422	27088	1012795	42178	109234	0	0	8219	606887	0	0
2024-06-16 09:00:32			0	36703	0	0	0	24979	23580	140426	27144	1012804	42168	109232	0	0	8219	607103	0	0
2024-06-16 09:01:32			0	36671	0	0	0	24984	23580	140630	26902	1012804	42179	109234	0	0	8217	608438	0	0
2024-06-16 09:02:32			0	36691	0	0	0	24979	23580	140586	27046	1012831	42179	109232	0	0	8218	607604	0	0
2024-06-16 09:03:32			0	36674	0	0	0	24976	23580	140570	27053	1012751	42168	109231	0	0	8217	608313	0	0
2024-06-16 09:04:32			0	36666	0	0	0	24984	23570	140618	27176	1012786	42167	109234	0	0	8217	608681	0	0
2024-06-16 09:05:32			0	36666	0	0	0	24968	23570	140722	27225	1012795	42178	109228	0	0	8217	608681	0	0
2024-06-16 09:06:32			0	36640	0	0	0	24971	23570	140774	27338	1012742	42167	109229	0	0	8216	609767	0	0
2024-06-16 09:07:32			0	36640	0	0	0	24968	23570	140774	27341	1012786	42167	109228	0	0	8216	609767	0	0
2024-06-16 09:08:32			0	36608	0	0	0	24976	23580	140830	27142	1012804	42168	109231	0	0	8214	611072	0	0
2024-06-16 09:09:32			0	36597	0	0	0	24968	23580	140786	27005	1012857	42168	109228	0	0	8214	611532	0	0
2024-06-16 09:10:32			0	36594	0	0	0	24971	23580	140889	26906	1012786	42158	109229	0	0	8213	611658	0	0
2024-06-16 09:11:32			0	36586	0	0	0	24976	23570	140945	27071	1012813	42167	109231	0	0	8213	612028	0	0
2024-06-16 09:12:32			0	36572	0	0	0	24976	23570	141021	27386	1012822	42178	109231	0	0	8212	612615	0	0
2024-06-16 09:13:32			0	36557	0	0	0	24974	23570	141049	27450	1012786	42178	109230	0	0	8211	613244	0	0
2024-06-16 09:14:32			0	36532	0	0	0	24979	23570	141029	26892	1012786	42167	109232	0	0	8210	614294	0	0
2024-06-16 09:15:32			0	36542	0	0	0	24971	23580	141145	26889	1012857	42179	109229	0	0	8211	613839	0	0
2024-06-16 09:16:32			0	36511	0	0	0	24968	23580	141205	27093	1012804	42191	109228	0	0	8209	615142	0	0
2024-06-16 09:17:32			0	36505	0	0	0	24981	23580	141241	27235	1012831	42191	109233	0	0	8208	615394	0	0
2024-06-16 09:18:32			0	36500	0	0	0	24984	23570	141345	27287	1012875	42157	109234	0	0	8208	615639	0	0
2024-06-16 09:19:32			0	36475	0	0	0	24986	23580	141337	27303	1012884	42168	109235	0	0	8207	616657	0	0
2024-06-16 09:20:32			0	36483	0	0	0	24984	23580	141285	27260	1012893	42158	109234	0	0	8207	616320	0	0
2024-06-16 09:21:32			0	36465	0	0	0	24992	23580	141353	27216	1012884	42179	109237	0	0	8206	617078	0	0
2024-06-16 09:22:32			0	36443	0	0	0	24989	23580	141461	27060	1012893	42179	109236	0	0	8205	618006	0	0
2024-06-16 09:23:32			0	36441	0	0	0	24986	23580	141509	27043	1012857	42168	109235	0	0	8205	618091	0	0
2024-06-16 09:24:32			0	36426	0	0	0	24984	23590	141509	27131	1012821	42169	109234	0	0	8204	618689	0	0
2024-06-16 09:25:32			0	36443	0	0	0	24981	23580	141537	27222	1012839	42168	109233	0	0	8205	618006	0	0
2024-06-16 09:26:32			0	36415	0	0	0	24979	23570	141577	27150	1012768	42167	109232	0	0	8204	619223	0	0
2024-06-16 09:27:32			0	36400	0	0	0	24976	23580	141573	27093	1012857	42168	109231	0	0	8203	619822	0	0
2024-06-16 09:28:32			0	36390	0	0	0	24986	23580	141585	27332	1012812	42168	109235	0	0	8202	620245	0	0
2024-06-16 09:29:32			0	36391	0	0	0	24979	23580	141633	27024	1012857	42179	109232	0	0	8203	620203	0	0
2024-06-16 09:30:32			0	36366	0	0	0	24986	23580	141753	27258	1012839	42179	109235	0	0	8201	621261	0	0
2024-06-16 09:31:32			0	36368	0	0	0	24974	23580	141709	27322	1012839	42179	109230	0	0	8201	621176	0	0
2024-06-16 09:32:32			0	36367	0	0	0	24979	23580	141765	27015	1012857	42168	109232	0	0	8201	621219	0	0
2024-06-16 09:33:32			0	36356	0	0	0	24984	23580	141837	27095	1012831	42168	109234	0	0	8201	621684	0	0
2024-06-16 09:34:32			0	36354	0	0	0	24994	23580	141841	26873	1012893	42168	109238	0	0	8200	621769	0	0
2024-06-16 09:35:32			0	36342	0	0	0	24997	23580	141901	27289	1012919	42146	109239	0	0	8200	622278	0	0
2024-06-16 09:36:32			0	36325	0	0	0	24997	23580	141913	27182	1012866	42168	109239	0	0	8199	622999	0	0
2024-06-16 09:37:32			0	36315	0	0	0	24992	23590	141893	27116	1012901	42192	109237	0	0	8198	623388	0	0
2024-06-16 09:38:32			0	36318	0	0	0	24992	23590	141933	27017	1012874	42180	109237	0	0	8198	623261	0	0
2024-06-16 09:39:32			0	36316	0	0	0	25002	23590	141985	27022	1012874	42159	109241	0	0	8198	623346	0	0
2024-06-16 09:40:32			0	36309	0	0	0	25002	23590	142073	27119	1012928	42180	109241	0	0	8198	623643	0	0
2024-06-16 09:41:32			0	36303	0	0	0	25012	23590	141909	27241	1012928	42169	109245	0	0	8197	623897	0	0
2024-06-16 09:42:32			0	36293	0	0	0	25012	23590	141981	26987	1012910	42180	109245	0	0	8197	624322	0	0
2024-06-16 09:43:32			0	36307	0	0	0	25025	23600	141989	27159	1012972	42170	109250	0	0	8197	623693	0	0
2024-06-16 09:44:32			0	36305	0	0	0	25028	23610	141921	27267	1013024	42182	109251	0	0	8197	623742	0	0
2024-06-16 09:45:32			0	36304	0	0	0	25036	23610	141985	27135	1012989	42171	109254	0	0	8197	623785	0	0
2024-06-16 09:46:32			0	36293	0	0	0	25031	23620	142041	26922	1013059	42183	109252	0	0	8197	624217	0	0
2024-06-16 09:47:32			0	36290	0	0	0	25038	23610	142017	27107	1013051	42171	109255	0	0	8196	624380	0	0
2024-06-16 09:48:32			0	36291	0	0	0	25044	23610	142001	26734	1013051	42193	109257	0	0	8196	624337	0	0
2024-06-16 09:49:32			0	36302	0	0	0	25046	23630	142017	26719	1013157	42162	109258	0	0	8197	623800	0	0
2024-06-16 09:50:32			0	36289	0	0	0	25041	23630	142041	27012	1013157	42173	109256	0	0	8196	624352	0	0
2024-06-16 09:51:32			0	36299	0	0	0	25046	23630	142041	27170	1013130	42184	109258	0	0	8197	623927	0	0
2024-06-16 09:52:32			0	36286	0	0	0	25054	23630	142169	27178	1013076	42173	109261	0	0	8196	624479	0	0
2024-06-16 09:53:32			0	36296	0	0	0	25062	23630	142013	27043	1013103	42173	109264	0	0	8196	624054	0	0
2024-06-16 09:54:32			0	36279	0	0	0	25051	23630	142049	27154	1013076	42173	109260	0	0	8196	624777	0	0
2024-06-16 09:55:32			0	36281	0	0	0	25059	23630	142065	27514	1013085	42184	109263	0	0	8196	624692	0	0
2024-06-16 09:56:32			0	36270	0	0	0	25057	23640	142045	27090	1013147	42196	109262	0	0	8195	625124	0	0
2024-06-16 09:57:32			0	36282	0	0	0	25054	23640	142021	27178	1013174	42185	109261	0	0	8196	624614	0	0
2024-06-16 09:58:32			0	36266	0	0	0	25059	23640	142053	27156	1013129	42174	109263	0	0	8195	625294	0	0
2024-06-16 09:59:32			0	36291	0	0	0	25064	23640	142017	27211	1013129	42186	109265	0	0	8196	624232	0	0
2024-06-16 10:00:32			0	36265	0	0	0	25059	23640	142181	27131	1013147	42185	109263	0	0	8195	625337	0	0
2024-06-16 10:01:32			0	36283	0	0	0	25064	23650	141897	27000	1013218	42186	109265	0	0	8196	624536	0	0
2024-06-16 10:02:32			0	36277	0	0	0	25067	23640	142109	27053	1013120	42196	109266	0	0	8195	624827	0	0
2024-06-16 10:03:32			0	36295	0	0	0	25067	23640	142065	27170	1013182	42197	109266	0	0	8196	624062	0	0
2024-06-16 10:04:32			0	36287	0	0	0	25059	23650	142025	27178	1013111	42174	109263	0	0	8196	624367	0	0
2024-06-16 10:05:32			0	36294	0	0	0	25062	23650	141985	27197	1013199	42187	109264	0	0	8196	624069	0	0
2024-06-16 10:06:32			0	36275	0	0	0	25067	23660	142069	27284	1013288	42175	109266	0	0	8195	624841	0	0
2024-06-16 10:07:32			0	36270	0	0	0	25070	23650	142145	27239	1013226	42187	109267	0	0	8195	625089	0	0
2024-06-16 10:08:32			0	36303	0	0	0	25077	23660	142033	27306	1013288	42198	109270	0	0	8197	623652	0	0
2024-06-16 10:09:32			0	36291	0	0	0	25098	23660	142069	27331	1013368	42175	109278	0	0	8196	624161	0	0
2024-06-16 10:10:32			0	36281	0	0	0	25101	23660	142021	27424	1013323	42209	109279	0	0	8195	624586	0	0
2024-06-16 10:11:32			0	36276	0	0	0	25114	23670	142073	27268	1013359	42188	109284	0	0	8195	624764	0	0
2024-06-16 10:12:32			0	36292	0	0	0	25116	23680	142037	27100	1013402	42200	109285	0	0	8195	624049	0	0
2024-06-16 10:13:32			0	36268	0	0	0	25116	23670	142069	27140	1013447	42188	109285	0	0	8194	625104	0	0
2024-06-16 10:14:32			0	36274	0	0	0	25114	23680	142029	26660	1013411	42189	109284	0	0	8194	624814	0	0
2024-06-16 10:15:32			0	36280	0	0	0	25129	23700	142013	27206	1013517	42202	109290	0	0	8195	624488	0	0
2024-06-16 10:16:32			0	36271	0	0	0	25137	23690	142053	26831	1013482	42202	109293	0	0	8194	624906	0	0
2024-06-16 10:17:32			0	36271	0	0	0	25137	23710	141993	27365	1013534	42181	109293	0	0	8194	624836	0	0
2024-06-16 10:18:32			0	36280	0	0	0	25148	23700	142053	27324	1013526	42180	109297	0	0	8194	624488	0	0
2024-06-16 10:19:32			0	36267	0	0	0	25145	23700	142013	26868	1013526	42203	109296	0	0	8194	625041	0	0
2024-06-16 10:20:32			0	36282	0	0	0	25145	23710	142045	27097	1013588	42203	109296	0	0	8195	624368	0	0
2024-06-16 10:21:32			0	36269	0	0	0	25124	23700	141989	26960	1013526	42213	109288	0	0	8194	624956	0	0
2024-06-16 10:22:32			0	36270	0	0	0	25127	23720	141945	27019	1013578	42203	109289	0	0	8194	624843	0	0
2024-06-16 10:23:32			0	36284	0	0	0	25127	23720	141865	27039	1013578	42181	109289	0	0	8195	624248	0	0
2024-06-16 10:24:32			0	36276	0	0	0	25132	23710	142001	26922	1013481	42170	109291	0	0	8194	624623	0	0
2024-06-16 10:25:32			0	36280	0	0	0	25129	23720	141929	26809	1013605	42192	109290	0	0	8195	624418	0	0
2024-06-16 10:26:32			0	36275	0	0	0	25132	23720	141953	27277	1013578	42192	109291	0	0	8194	624630	0	0
2024-06-16 10:27:32			0	36260	0	0	0	25140	23710	141881	27265	1013596	42181	109294	0	0	8193	625303	0	0
2024-06-16 10:28:32			0	36287	0	0	0	25155	23720	141921	26916	1013640	42193	109300	0	0	8195	624121	0	0
2024-06-16 10:29:32			0	36280	0	0	0	25163	23730	142041	27066	1013631	42195	109303	0	0	8194	624383	0	0
2024-06-16 10:30:32			0	36281	0	0	0	25176	23730	141973	27131	1013684	42206	109308	0	0	8194	624340	0	0
2024-06-16 10:31:32			0	36274	0	0	0	25176	23730	141985	26774	1013711	42195	109308	0	0	8194	624638	0	0
2024-06-16 10:32:32			0	36267	0	0	0	25202	23750	142085	26994	1013755	42206	109318	0	0	8193	624865	0	0
2024-06-16 10:33:32			0	36262	0	0	0	25194	23760	142041	27216	1013753	42185	109315	0	0	8193	625042	0	0
2024-06-16 10:34:32			0	36243	0	0	0	25205	23760	142065	27137	1013727	42218	109319	0	0	8192	625850	0	0
2024-06-16 10:35:32			0	36245	0	0	0	25210	23760	142217	26882	1013807	42197	109321	0	0	8192	625765	0	0
2024-06-16 10:36:32			0	36233	0	0	0	25194	23770	142105	27059	1013797	42208	109315	0	0	8191	626241	0	0
2024-06-16 10:37:32			0	36214	0	0	0	25186	23770	142109	27312	1013824	42186	109312	0	0	8190	627050	0	0
2024-06-16 10:38:32			0	36223	0	0	0	25197	23770	142113	27053	1013824	42198	109316	0	0	8191	626666	0	0
2024-06-16 10:39:32			0	36218	0	0	0	25212	23780	142161	26942	1013913	42199	109322	0	0	8190	626844	0	0
2024-06-16 10:40:32			0	36229	0	0	0	25228	23770	142185	27062	1013904	42198	109328	0	0	8191	626411	0	0
2024-06-16 10:41:32			0	36242	0	0	0	25220	23790	142009	26986	1013876	42199	109325	0	0	8191	625787	0	0
2024-06-16 10:42:32			0	36274	0	0	0	25210	23790	142025	26930	1013903	42209	109321	0	0	8193	624427	0	0
2024-06-16 10:43:32			0	36293	0	0	0	25199	23790	141869	26757	1013876	42199	109317	0	0	8195	623620	0	0
2024-06-16 10:44:32			0	36322	0	0	0	25202	23790	141785	27123	1013885	42210	109318	0	0	8196	622390	0	0
2024-06-16 10:45:32			0	36345	0	0	0	25202	23790	141625	27253	1013858	42200	109318	0	0	8197	621416	0	0
2024-06-16 10:46:32			0	36363	0	0	0	25215	23790	141673	27204	1013876	42209	109323	0	0	8198	620654	0	0
2024-06-16 10:47:32			0	36371	0	0	0	25189	23800	141553	26809	1013894	42200	109313	0	0	8199	620281	0	0
2024-06-16 10:48:32			0	36389	0	0	0	25225	23790	141541	26774	1013938	42188	109327	0	0	8199	619555	0	0
2024-06-16 10:49:32			0	36394	0	0	0	25238	23790	141453	27066	1013965	42200	109332	0	0	8199	619344	0	0
2024-06-16 10:50:32			0	36401	0	0	0	25225	23810	141541	27227	1014018	42201	109327	0	0	8200	618978	0	0
2024-06-16 10:51:32			0	36378	0	0	0	25231	23810	141613	27081	1013964	42201	109329	0	0	8199	619950	0	0
2024-06-16 10:52:32			0	36392	0	0	0	25210	23810	141513	26986	1013911	42212	109321	0	0	8200	619358	0	0
2024-06-16 10:53:32			0	36383	0	0	0	25210	23800	141605	27114	1013894	42211	109321	0	0	8199	619773	0	0
2024-06-16 10:54:32			0	36367	0	0	0	25205	23810	141625	26731	1013884	42212	109319	0	0	8198	620415	0	0
2024-06-16 10:55:32			0	36350	0	0	0	25220	23810	141637	26927	1013991	42212	109325	0	0	8197	621134	0	0
2024-06-16 10:56:32			0	36342	0	0	0	25238	23820	141669	27249	1013982	42224	109332	0	0	8197	621438	0	0
2024-06-16 10:57:32			0	36304	0	0	0	25238	23810	141765	27118	1013999	42212	109332	0	0	8195	623083	0	0
2024-06-16 10:58:32			0	36285	0	0	0	25241	23820	141981	27251	1014044	42213	109333	0	0	8194	623854	0	0
2024-06-16 10:59:32			0	36265	0	0	0	25241	23820	142061	27384	1014035	42213	109333	0	0	8192	624704	0	0
2024-06-16 11:00:32			0	36253	0	0	0	25236	23820	142109	26878	1014035	42202	109331	0	0	8192	625214	0	0
2024-06-16 11:01:32			0	36240	0	0	0	25246	23810	142129	27057	1014080	42201	109335	0	0	8191	625802	0	0
2024-06-16 11:02:32			0	36193	0	0	0	25251	23830	142209	26989	1014052	42213	109337	0	0	8189	627733	0	0
2024-06-16 11:03:32			0	36182	0	0	0	25251	23830	142237	26748	1014052	42213	109337	0	0	8188	628202	0	0
2024-06-16 11:04:32			0	36165	0	0	0	25228	23830	142277	26920	1014061	42192	109328	0	0	8187	628927	0	0
2024-06-16 11:05:32			0	36159	0	0	0	25215	23830	142429	26833	1014034	42213	109323	0	0	8187	629184	0	0
2024-06-16 11:06:32			0	36158	0	0	0	25207	23810	142365	27100	1013999	42190	109320	0	0	8187	629297	0	0
2024-06-16 11:07:32			0	36142	0	0	0	25215	23820	142325	26916	1013990	42203	109323	0	0	8186	629945	0	0
2024-06-16 11:08:32			0	36152	0	0	0	25236	23810	142377	27062	1013999	42212	109331	0	0	8187	629554	0	0
2024-06-16 11:09:32			0	36125	0	0	0	25223	23820	142401	26899	1013990	42203	109326	0	0	8185	630672	0	0
2024-06-16 11:10:32			0	36123	0	0	0	25225	23820	142577	26802	1013963	42192	109327	0	0	8185	630758	0	0
2024-06-16 11:11:32			0	36115	0	0	0	25228	23820	142673	26755	1013990	42213	109328	0	0	8185	631100	0	0
2024-06-16 11:12:32			0	36070	0	0	0	25244	23820	142629	27289	1013990	42213	109334	0	0	8182	633028	0	0
2024-06-16 11:13:32			0	36078	0	0	0	25262	23820	142821	27166	1014097	42203	109341	0	0	8182	632685	0	0
2024-06-16 11:14:32			0	36035	0	0	0	25251	23820	142805	26889	1013990	42203	109337	0	0	8180	634531	0	0
2024-06-16 11:15:32			0	36058	0	0	0	25220	23830	142729	27185	1014087	42203	109325	0	0	8182	633507	0	0
2024-06-16 11:16:32			0	36061	0	0	0	25233	23830	142769	27078	1014052	42213	109330	0	0	8182	633378	0	0
2024-06-16 11:17:32			0	36051	0	0	0	25228	23820	142809	26845	1014017	42213	109328	0	0	8181	633843	0	0
2024-06-16 11:18:32			0	36033	0	0	0	25270	23830	142889	27175	1014106	42213	109344	0	0	8180	634581	0	0
2024-06-16 11:19:32			0	36038	0	0	0	25267	23830	142793	27194	1014132	42203	109343	0	0	8180	634366	0	0
2024-06-16 11:20:32			0	36066	0	0	0	25244	23830	142789	26942	1014079	42213	109334	0	0	8182	633164	0	0
2024-06-16 11:21:32			0	36060	0	0	0	25270	23830	142745	26767	1014087	42192	109344	0	0	8181	633421	0	0
2024-06-16 11:22:32			0	36048	0	0	0	25259	23840	142825	27076	1014158	42205	109340	0	0	8181	633901	0	0
2024-06-16 11:23:32			0	36054	0	0	0	25272	23840	142793	26781	1014176	42214	109345	0	0	8181	633643	0	0
2024-06-16 11:24:32			0	36052	0	0	0	25290	23850	142737	26866	1014247	42194	109352	0	0	8180	633693	0	0
2024-06-16 11:25:32			0	36057	0	0	0	25288	23860	142737	26641	1014246	42217	109351	0	0	8181	633443	0	0
2024-06-16 11:26:32			0	36079	0	0	0	25288	23860	142729	27294	1014237	42206	109351	0	0	8182	632500	0	0
2024-06-16 11:27:32			0	36053	0	0	0	25280	23850	142677	26981	1014247	42215	109348	0	0	8181	633650	0	0
2024-06-16 11:28:32			0	36066	0	0	0	25290	23850	142793	27213	1014255	42215	109352	0	0	8181	633093	0	0
2024-06-16 11:29:32			0	36069	0	0	0	25283	23860	142701	27066	1014264	42228	109349	0	0	8182	632928	0	0
2024-06-16 11:30:32			0	36068	0	0	0	25280	23860	142697	26889	1014246	42217	109348	0	0	8182	632971	0	0
2024-06-16 11:31:32			0	36072	0	0	0	25254	23850	142669	27161	1014202	42205	109338	0	0	8182	632835	0	0
2024-06-16 11:32:32			0	36053	0	0	0	25298	23860	142653	27069	1014237	42216	109355	0	0	8180	633615	0	0
2024-06-16 11:33:32			0	36055	0	0	0	25296	23860	142737	27255	1014291	42206	109354	0	0	8181	633529	0	0
2024-06-16 11:34:32			0	36079	0	0	0	25288	23870	142681	26928	1014281	42229	109351	0	0	8182	632464	0	0
2024-06-16 11:35:32			0	36074	0	0	0	25322	23870	142713	27133	1014254	42196	109364	0	0	8181	632678	0	0
2024-06-16 11:36:32			0	36098	0	0	0	25322	23880	142697	27497	1014405	42208	109364	0	0	8183	631615	0	0
2024-06-16 11:37:32			0	36079	0	0	0	25342	23870	142609	27135	1014370	42218	109372	0	0	8181	632464	0	0
2024-06-16 11:38:32			0	36092	0	0	0	25337	23890	142549	27227	1014457	42220	109370	0	0	8182	631836	0	0
2024-06-16 11:39:32			0	36115	0	0	0	25332	23890	142509	27142	1014431	42209	109368	0	0	8183	630851	0	0
2024-06-16 11:40:32			0	36133	0	0	0	25319	23890	142533	27031	1014404	42209	109363	0	0	8184	630082	0	0
2024-06-16 11:41:32			0	36107	0	0	0	25353	23890	142525	27133	1014377	42220	109376	0	0	8183	631194	0	0
2024-06-16 11:42:32			0	36130	0	0	0	25332	23900	142377	27168	1014448	42221	109368	0	0	8184	630174	0	0
2024-06-16 11:43:32			0	36121	0	0	0	25342	23900	142521	27301	1014493	42231	109372	0	0	8183	630559	0	0
2024-06-16 11:44:32			0	36132	0	0	0	25345	23910	142425	26934	1014456	42233	109373	0	0	8184	630053	0	0
2024-06-16 11:45:32			0	36132	0	0	0	25361	23910	142425	27057	1014510	42222	109379	0	0	8184	630053	0	0
2024-06-16 11:46:32			0	36151	0	0	0	25366	23920	142441	26859	1014527	42222	109381	0	0	8185	629206	0	0
2024-06-16 11:47:32			0	36155	0	0	0	25335	23920	142461	27161	1014536	42223	109369	0	0	8185	629036	0	0
2024-06-16 11:48:32			0	36161	0	0	0	25314	23930	142381	27118	1014517	42212	109361	0	0	8186	628744	0	0
2024-06-16 11:49:32			0	36161	0	0	0	25327	23930	142389	26944	1014473	42224	109366	0	0	8186	628744	0	0
2024-06-16 11:50:32			0	36145	0	0	0	25353	23920	142457	27235	1014509	42211	109376	0	0	8185	629462	0	0
2024-06-16 11:51:32			0	36169	0	0	0	25345	23910	142373	26873	1014456	42210	109373	0	0	8186	628473	0	0
2024-06-16 11:52:32			0	36179	0	0	0	25345	23920	142281	26752	1014554	42222	109373	0	0	8187	628011	0	0
2024-06-16 11:53:32			0	36160	0	0	0	25322	23920	142277	27251	1014562	42223	109364	0	0	8186	628822	0	0
2024-06-16 11:54:32			0	36170	0	0	0	25314	23920	142321	26977	1014455	42211	109361	0	0	8187	628395	0	0
2024-06-16 11:55:32			0	36179	0	0	0	25316	23920	142277	27180	1014420	42222	109362	0	0	8187	628011	0	0
2024-06-16 11:56:32			0	36172	0	0	0	25303	23910	142333	27001	1014438	42222	109357	0	0	8187	628345	0	0
2024-06-16 11:57:32			0	36160	0	0	0	25293	23910	142405	27142	1014465	42222	109353	0	0	8186	628857	0	0
2024-06-16 11:58:32			0	36163	0	0	0	25288	23910	142393	26772	1014430	42210	109351	0	0	8187	628729	0	0
2024-06-16 11:59:32			0	36112	0	0	0	25301	23910	142425	26987	1014403	42200	109356	0	0	8184	630909	0	0
2024-06-16 12:00:32			0	36148	0	0	0	25311	23900	142417	26781	1014359	42220	109360	0	0	8185	629405	0	0
2024-06-16 12:01:32			0	36152	0	0	0	25324	23900	142485	27118	1014475	42232	109365	0	0	8185	629234	0	0
2024-06-16 12:02:32			0	36135	0	0	0	25342	23910	142517	27013	1014456	42222	109372	0	0	8184	629925	0	0
2024-06-16 12:03:32			0	36142	0	0	0	25376	23920	142441	27294	1014420	42210	109385	0	0	8184	629591	0	0
2024-06-16 12:04:32			0	36126	0	0	0	25371	23910	142409	27258	1014652	42222	109383	0	0	8183	630310	0	0
2024-06-16 12:05:32			0	36149	0	0	0	25374	23930	142421	27350	1014624	42224	109384	0	0	8185	629256	0	0
2024-06-16 12:06:32			0	36152	0	0	0	25381	23920	142429	27369	1014616	42234	109387	0	0	8185	629164	0	0
2024-06-16 12:07:32			0	36142	0	0	0	25384	23930	142409	27209	1014624	42224	109388	0	0	8184	629555	0	0
2024-06-16 12:08:32			0	36133	0	0	0	25386	23930	142413	27253	1014660	42224	109389	0	0	8184	629940	0	0
2024-06-16 12:09:32			0	36144	0	0	0	25381	23950	142409	27119	1014659	42225	109387	0	0	8184	629399	0	0
2024-06-16 12:10:32			0	36159	0	0	0	25397	23940	142381	27078	1014677	42213	109393	0	0	8185	628794	0	0
2024-06-16 12:11:32			0	36162	0	0	0	25397	23940	142449	26949	1014669	42225	109393	0	0	8185	628666	0	0
2024-06-16 12:12:32			0	36142	0	0	0	25381	23940	142261	27088	1014650	42225	109387	0	0	8184	629520	0	0
2024-06-16 12:13:32			0	36188	0	0	0	25394	23960	142321	27343	1014703	42226	109392	0	0	8186	627486	0	0
2024-06-16 12:14:32			0	36177	0	0	0	25412	23960	142333	27320	1014836	42226	109399	0	0	8186	627955	0	0
2024-06-16 12:15:32			0	36195	0	0	0	25428	23970	142257	27386	1014827	42239	109405	0	0	8186	627153	0	0
2024-06-16 12:16:32			0	36184	0	0	0	25431	23960	142253	27334	1014898	42226	109406	0	0	8186	627657	0	0
2024-06-16 12:17:32			0	36178	0	0	0	25423	23980	142193	27088	1014951	42239	109403	0	0	8185	627842	0	0
2024-06-16 12:18:32			0	36200	0	0	0	25392	23970	142185	26956	1014916	42228	109391	0	0	8187	626940	0	0
2024-06-16 12:19:32			0	36180	0	0	0	25397	23980	142217	27294	1014879	42228	109393	0	0	8186	627756	0	0
2024-06-16 12:20:32			0	36181	0	0	0	25412	23970	142169	27300	1014747	42216	109399	0	0	8186	627749	0	0
2024-06-16 12:21:32			0	36180	0	0	0	25405	23980	142193	27180	1014897	42239	109396	0	0	8186	627756	0	0
2024-06-16 12:22:32			0	36186	0	0	0	25418	23970	142197	26939	1014835	42228	109401	0	0	8186	627536	0	0
2024-06-16 12:23:32			0	36187	0	0	0	25399	23990	142221	27313	1014861	42218	109394	0	0	8186	627423	0	0
2024-06-16 12:24:32			0	36191	0	0	0	25412	23980	142189	27244	1014826	42239	109399	0	0	8186	627288	0	0
2024-06-16 12:25:32			0	36183	0	0	0	25418	23980	142293	27189	1014879	42228	109401	0	0	8186	627629	0	0
2024-06-16 12:26:32			0	36192	0	0	0	25449	23990	142273	27168	1014968	42229	109413	0	0	8186	627210	0	0
2024-06-16 12:27:32			0	36212	0	0	0	25462	23990	142237	27027	1014950	42241	109418	0	0	8187	626358	0	0
2024-06-16 12:28:32			0	36206	0	0	0	25462	24000	142217	26844	1015020	42242	109418	0	0	8186	626578	0	0
2024-06-16 12:29:32			0	36206	0	0	0	25467	24010	142297	27156	1015091	42232	109420	0	0	8186	626543	0	0
2024-06-16 12:30:32			0	36213	0	0	0	25472	24010	142117	27194	1015029	42231	109422	0	0	8187	626245	0	0
2024-06-16 12:31:32			0	36241	0	0	0	25459	24000	142077	27138	1015047	42231	109417	0	0	8188	625090	0	0
2024-06-16 12:32:32			0	36227	0	0	0	25490	24020	142125	27105	1015108	42233	109429	0	0	8187	625614	0	0
2024-06-16 12:33:32			0	36234	0	0	0	25488	24030	141981	27145	1015144	42254	109428	0	0	8188	625281	0	0
2024-06-16 12:34:32			0	36246	0	0	0	25464	24030	142049	26927	1015170	42254	109419	0	0	8189	624772	0	0
2024-06-16 12:35:32			0	36265	0	0	0	25509	24030	141985	27232	1015125	42234	109436	0	0	8189	623965	0	0
2024-06-16 12:36:32			0	36269	0	0	0	25485	24040	141921	27116	1015241	42235	109427	0	0	8190	623760	0	0
2024-06-16 12:37:32			0	36274	0	0	0	25477	24050	141881	27171	1015169	42235	109424	0	0	8190	623513	0	0
2024-06-16 12:38:32			0	36283	0	0	0	25524	24050	141833	26897	1015231	42223	109442	0	0	8190	623131	0	0
2024-06-16 12:39:32			0	36274	0	0	0	25519	24050	141909	27116	1015285	42235	109440	0	0	8189	623513	0	0
2024-06-16 12:40:32			0	36292	0	0	0	25506	24070	141885	27053	1015284	42248	109435	0	0	8191	622679	0	0
2024-06-16 12:41:32			0	36304	0	0	0	25524	24070	141933	27268	1015311	42248	109442	0	0	8191	622171	0	0
2024-06-16 12:42:32			0	36298	0	0	0	25496	24080	141873	27033	1015274	42226	109431	0	0	8191	622390	0	0
2024-06-16 12:43:32			0	36314	0	0	0	25537	24070	141821	27171	1015319	42249	109447	0	0	8191	621747	0	0
2024-06-16 12:44:32			0	36312	0	0	0	25524	24070	141773	26864	1015346	42249	109442	0	0	8191	621832	0	0
2024-06-16 12:45:32			0	36309	0	0	0	25524	24080	141729	27220	1015363	42238	109442	0	0	8191	621924	0	0
2024-06-16 12:46:32			0	36310	0	0	0	25548	24090	141793	27213	1015345	42238	109451	0	0	8191	621846	0	0
2024-06-16 12:47:32			0	36307	0	0	0	25527	24100	141777	26939	1015442	42239	109443	0	0	8191	621938	0	0
2024-06-16 12:48:32			0	36330	0	0	0	25514	24100	141793	27118	1015416	42239	109438	0	0	8193	620965	0	0
2024-06-16 12:49:32			0	36323	0	0	0	25545	24110	141769	26970	1015433	42229	109450	0	0	8192	621226	0	0
2024-06-16 12:50:32			0	36322	0	0	0	25535	24090	141813	26972	1015434	42239	109446	0	0	8192	621339	0	0
2024-06-16 12:51:32			0	36325	0	0	0	25509	24110	141729	27272	1015460	42229	109436	0	0	8192	621141	0	0
2024-06-16 12:52:32			0	36326	0	0	0	25511	24100	141725	26991	1015424	42240	109437	0	0	8192	621134	0	0
2024-06-16 12:53:32			0	36331	0	0	0	25503	24100	141681	27178	1015371	42229	109434	0	0	8193	620923	0	0
2024-06-16 12:54:32			0	36328	0	0	0	25522	24090	141757	27067	1015399	42250	109441	0	0	8192	621085	0	0
2024-06-16 12:55:32			0	36311	0	0	0	25550	24100	141725	27255	1015389	42250	109452	0	0	8191	621769	0	0
2024-06-16 12:56:32			0	36315	0	0	0	25550	24100	141685	27334	1015469	42239	109452	0	0	8191	621600	0	0
2024-06-16 12:57:32			0	36343	0	0	0	25535	24110	141601	27197	1015540	42240	109446	0	0	8193	620380	0	0
2024-06-16 12:58:32			0	36350	0	0	0	25532	24110	141589	26975	1015495	42241	109445	0	0	8193	620085	0	0
2024-06-16 12:59:32			0	36341	0	0	0	25537	24120	141609	27015	1015450	42252	109447	0	0	8193	620430	0	0
2024-06-16 13:00:32			0	36342	0	0	0	25592	24110	141709	27064	1015495	42251	109468	0	0	8192	620423	0	0
2024-06-16 13:01:32			0	36363	0	0	0	25563	24120	141497	27170	1015637	42242	109457	0	0	8194	619501	0	0
2024-06-16 13:02:32			0	36371	0	0	0	25620	24140	141481	26977	1015645	42244	109479	0	0	8193	619093	0	0
2024-06-16 13:03:32			0	36405	0	0	0	25592	24130	141389	26958	1015663	42253	109468	0	0	8195	617694	0	0
2024-06-16 13:04:32			0	36418	0	0	0	25555	24160	141413	27024	1015626	42234	109454	0	0	8197	617042	0	0
2024-06-16 13:05:32			0	36401	0	0	0	25571	24140	141389	26923	1015600	42232	109460	0	0	8195	617828	0	0
2024-06-16 13:06:32			0	36391	0	0	0	25545	24140	141445	27209	1015618	42265	109450	0	0	8195	618249	0	0
2024-06-16 13:07:32			0	36383	0	0	0	25542	24140	141433	26807	1015538	42254	109449	0	0	8195	618587	0	0
2024-06-16 13:08:32			0	36373	0	0	0	25558	24130	141501	26838	1015556	42253	109455	0	0	8194	619043	0	0
2024-06-16 13:09:32			0	36365	0	0	0	25566	24130	141481	27069	1015609	42253	109458	0	0	8194	619381	0	0
2024-06-16 13:10:32			0	36379	0	0	0	25571	24140	141421	26960	1015618	42254	109460	0	0	8194	618755	0	0
2024-06-16 13:11:32			0	36376	0	0	0	25576	24150	141501	26720	1015689	42245	109462	0	0	8194	618847	0	0
2024-06-16 13:12:32			0	36369	0	0	0	25566	24140	141525	27045	1015600	42232	109458	0	0	8194	619177	0	0
2024-06-16 13:13:32			0	36386	0	0	0	25644	24140	141493	27093	1015645	42244	109488	0	0	8193	618460	0	0
2024-06-16 13:14:32			0	36396	0	0	0	25620	24160	141445	26817	1015759	42246	109479	0	0	8194	617969	0	0
2024-06-16 13:15:32			0	36401	0	0	0	25571	24160	141393	27176	1015768	42256	109460	0	0	8196	617758	0	0
2024-06-16 13:16:32			0	36398	0	0	0	25589	24160	141385	26937	1015679	42256	109467	0	0	8195	617885	0	0
2024-06-16 13:17:32			0	36378	0	0	0	25568	24160	141397	26996	1015706	42246	109459	0	0	8194	618728	0	0
2024-06-16 13:18:32			0	36381	0	0	0	25599	24160	141505	27246	1015732	42246	109471	0	0	8194	618601	0	0
2024-06-16 13:19:32			0	36385	0	0	0	25605	24160	141469	27310	1015688	42256	109473	0	0	8194	618433	0	0
2024-06-16 13:20:32			0	36385	0	0	0	25589	24170	141437	26974	1015750	42246	109467	0	0	8194	618398	0	0
2024-06-16 13:21:32			0	36369	0	0	0	25602	24180	141461	27452	1015687	42247	109472	0	0	8193	619038	0	0
2024-06-16 13:22:32			0	36394	0	0	0	25586	24160	141449	27287	1015714	42256	109466	0	0	8195	618053	0	0
2024-06-16 13:23:32			0	36389	0	0	0	25625	24170	141457	27116	1015758	42257	109481	0	0	8194	618229	0	0
2024-06-16 13:24:32			0	36400	0	0	0	25633	24170	141481	27364	1015785	42257	109484	0	0	8194	617765	0	0
2024-06-16 13:25:32			0	36412	0	0	0	25607	24180	141373	26902	1015856	42237	109474	0	0	8196	617225	0	0
2024-06-16 13:26:32			0	36424	0	0	0	25623	24190	141393	27235	1015864	42259	109480	0	0	8196	616685	0	0
2024-06-16 13:27:32			0	36417	0	0	0	25602	24190	141441	26998	1015811	42259	109472	0	0	8196	616980	0	0
2024-06-16 13:28:32			0	36406	0	0	0	25615	24190	141429	27346	1015846	42248	109477	0	0	8195	617443	0	0
2024-06-16 13:29:32			0	36399	0	0	0	25618	24200	141349	27071	1015855	42260	109478	0	0	8195	617703	0	0
2024-06-16 13:30:32			0	36402	0	0	0	25641	24190	141405	26949	1015873	42248	109487	0	0	8195	617611	0	0
2024-06-16 13:31:32			0	36431	0	0	0	25646	24210	141321	27178	1015952	42260	109489	0	0	8196	616321	0	0
2024-06-16 13:32:32			0	36436	0	0	0	25625	24200	141297	27076	1015917	42260	109481	0	0	8197	616145	0	0
2024-06-16 13:33:32			0	36408	0	0	0	25610	24210	141369	26863	1015899	42250	109475	0	0	8195	617289	0	0
2024-06-16 13:34:32			0	36401	0	0	0	25615	24200	141253	27196	1015837	42250	109477	0	0	8195	617619	0	0
2024-06-16 13:35:32			0	36411	0	0	0	25654	24200	141233	27215	1015917	42260	109492	0	0	8195	617197	0	0
2024-06-16 13:36:32			0	36426	0	0	0	25644	24210	141409	27173	1015952	42260	109488	0	0	8196	616531	0	0
2024-06-16 13:37:32			0	36411	0	0	0	25644	24220	141337	26987	1015996	42250	109488	0	0	8195	617128	0	0
2024-06-16 13:38:32			0	36427	0	0	0	25631	24220	141261	27078	1015969	42261	109483	0	0	8196	616455	0	0
2024-06-16 13:39:32			0	36405	0	0	0	25641	24220	141401	27027	1015943	42250	109487	0	0	8195	617380	0	0
2024-06-16 13:40:32			0	36389	0	0	0	25651	24210	141409	26852	1015961	42250	109491	0	0	8194	618089	0	0
2024-06-16 13:41:32			0	36413	0	0	0	25644	24220	141377	26994	1016076	42250	109488	0	0	8195	617044	0	0
2024-06-16 13:42:32			0	36418	0	0	0	25646	24220	141409	26875	1015943	42261	109489	0	0	8195	616833	0	0
2024-06-16 13:43:32			0	36425	0	0	0	25667	24230	141397	26727	1016013	42262	109497	0	0	8195	616504	0	0
2024-06-16 13:44:32			0	36418	0	0	0	25685	24220	141433	26937	1016138	42262	109504	0	0	8195	616833	0	0
2024-06-16 13:45:32			0	36439	0	0	0	25683	24230	141361	26948	1016040	42262	109503	0	0	8196	615915	0	0
2024-06-16 13:46:32			0	36432	0	0	0	25698	24230	141373	26941	1016200	42262	109509	0	0	8195	616209	0	0
2024-06-16 13:47:32			0	36435	0	0	0	25711	24240	141201	27069	1016164	42275	109514	0	0	8195	616048	0	0
2024-06-16 13:48:32			0	36436	0	0	0	25701	24250	141261	26937	1016128	42265	109510	0	0	8196	615971	0	0
2024-06-16 13:49:32			0	36450	0	0	0	25698	24260	141233	27090	1016225	42276	109509	0	0	8196	615348	0	0
2024-06-16 13:50:32			0	36460	0	0	0	25688	24270	141225	27166	1016197	42256	109505	0	0	8197	614894	0	0
2024-06-16 13:51:32			0	36458	0	0	0	25706	24250	141277	26859	1016163	42265	109512	0	0	8197	615047	0	0
2024-06-16 13:52:32			0	36460	0	0	0	25701	24280	141217	26970	1016286	42267	109510	0	0	8197	614859	0	0
2024-06-16 13:53:32			0	36465	0	0	0	25703	24280	141173	27059	1016268	42246	109511	0	0	8197	614649	0	0
2024-06-16 13:54:32			0	36459	0	0	0	25706	24280	141289	27046	1016295	42256	109512	0	0	8197	614901	0	0
2024-06-16 13:55:32			0	36443	0	0	0	25716	24280	141353	27020	1016268	42256	109516	0	0	8196	615573	0	0
2024-06-16 13:56:32			0	36440	0	0	0	25716	24290	141325	26870	1016303	42291	109516	0	0	8196	615664	0	0
2024-06-16 13:57:32			0	36409	0	0	0	25719	24290	141357	27038	1016303	42280	109517	0	0	8194	616968	0	0
2024-06-16 13:58:32			0	36428	0	0	0	25740	24290	141417	26944	1016365	42257	109525	0	0	8195	616169	0	0
2024-06-16 13:59:32			0	36432	0	0	0	25735	24300	141445	26563	1016383	42281	109523	0	0	8195	615966	0	0
2024-06-16 14:00:32			0	36448	0	0	0	25724	24320	141333	26724	1016374	42272	109519	0	0	8196	615224	0	0
2024-06-16 14:01:32			0	36433	0	0	0	25740	24300	141253	27286	1016401	42269	109525	0	0	8195	615924	0	0
2024-06-16 14:02:32			0	36431	0	0	0	25722	24300	141253	27369	1016356	42281	109518	0	0	8195	616008	0	0
2024-06-16 14:03:32			0	36462	0	0	0	25714	24300	141213	26968	1016356	42270	109515	0	0	8197	614705	0	0
2024-06-16 14:04:32			0	36429	0	0	0	25703	24300	141377	26864	1016374	42269	109511	0	0	8195	616092	0	0
2024-06-16 14:05:32			0	36448	0	0	0	25722	24310	141321	27118	1016338	42271	109518	0	0	8196	615259	0	0
2024-06-16 14:06:32			0	36419	0	0	0	25727	24300	141329	27327	1016410	42270	109520	0	0	8194	616513	0	0
2024-06-16 14:07:32			0	36454	0	0	0	25753	24310	141405	27168	1016419	42259	109530	0	0	8196	615007	0	0
2024-06-16 14:08:32			0	36427	0	0	0	25768	24310	141501	27069	1016419	42282	109536	0	0	8194	616141	0	0
2024-06-16 14:09:32			0	36462	0	0	0	25771	24330	141421	26942	1016498	42272	109537	0	0	8196	614601	0	0
2024-06-16 14:10:32			0	36466	0	0	0	25797	24320	141301	27310	1016543	42272	109547	0	0	8196	614468	0	0
2024-06-16 14:11:32			0	36469	0	0	0	25761	24340	141245	27183	1016515	42273	109533	0	0	8197	614273	0	0
2024-06-16 14:12:32			0	36482	0	0	0	25763	24340	141141	27118	1016524	42273	109534	0	0	8197	613728	0	0
2024-06-16 14:13:32			0	36473	0	0	0	25779	24340	141169	26920	1016577	42285	109540	0	0	8197	614105	0	0
2024-06-16 14:14:32			0	36482	0	0	0	25784	24340	141197	27183	1016595	42273	109542	0	0	8197	613728	0	0
2024-06-16 14:15:32			0	36499	0	0	0	25755	24340	141197	27315	1016631	42285	109531	0	0	8198	613015	0	0
2024-06-16 14:16:32			0	36486	0	0	0	25761	24350	141233	27305	1016541	42263	109533	0	0	8198	613525	0	0
2024-06-16 14:17:32			0	36450	0	0	0	25784	24350	141293	27124	1016568	42263	109542	0	0	8195	615036	0	0
2024-06-16 14:18:32			0	36453	0	0	0	25784	24360	141249	26802	1016630	42275	109542	0	0	8196	614875	0	0
2024-06-16 14:19:32			0	36453	0	0	0	25805	24360	141401	27015	1016656	42275	109550	0	0	8195	614875	0	0
2024-06-16 14:20:32			0	36474	0	0	0	25807	24370	141217	27260	1016700	42275	109551	0	0	8196	613959	0	0
2024-06-16 14:21:32			0	36463	0	0	0	25823	24360	141181	26958	1016665	42286	109557	0	0	8195	614455	0	0
2024-06-16 14:22:32			0	36472	0	0	0	25807	24370	141217	27048	1016807	42264	109551	0	0	8196	614043	0	0
2024-06-16 14:23:32			0	36479	0	0	0	25789	24370	141193	26975	1016780	42286	109544	0	0	8197	613749	0	0
2024-06-16 14:24:32			0	36424	0	0	0	25818	24380	141301	27196	1016744	42277	109555	0	0	8194	616024	0	0
2024-06-16 14:25:32			0	36424	0	0	0	25805	24390	141333	27211	1016761	42278	109550	0	0	8194	615989	0	0
2024-06-16 14:26:32			0	36420	0	0	0	25820	24380	141421	27258	1016744	42288	109556	0	0	8193	616192	0	0
2024-06-16 14:27:32			0	36431	0	0	0	25820	24390	141341	27255	1016842	42278	109556	0	0	8194	615695	0	0
2024-06-16 14:28:32			0	36399	0	0	0	25820	24400	141369	26942	1016894	42280	109556	0	0	8192	617006	0	0
2024-06-16 14:29:32			0	36408	0	0	0	25836	24400	141445	27170	1016832	42279	109562	0	0	8192	616627	0	0
2024-06-16 14:30:32			0	36426	0	0	0	25864	24410	141349	27078	1016903	42268	109573	0	0	8193	615835	0	0
2024-06-16 14:31:32			0	36417	0	0	0	25857	24410	141257	27045	1016956	42280	109570	0	0	8193	616214	0	0
2024-06-16 14:32:32			0	36427	0	0	0	25859	24420	141345	26819	1016973	42281	109571	0	0	8193	615759	0	0
2024-06-16 14:33:32			0	36441	0	0	0	25880	24420	141309	26982	1017009	42292	109579	0	0	8194	615170	0	0
2024-06-16 14:34:32			0	36455	0	0	0	25875	24430	141181	26920	1016990	42292	109577	0	0	8194	614548	0	0
2024-06-16 14:35:32			0	36454	0	0	0	25870	24430	141253	27128	1017079	42270	109575	0	0	8194	614590	0	0
2024-06-16 14:36:32			0	36434	0	0	0	25880	24440	141233	27050	1017097	42283	109579	0	0	8193	615395	0	0
2024-06-16 14:37:32			0	36452	0	0	0	25877	24450	141301	27017	1017132	42284	109578	0	0	8194	614604	0	0
2024-06-16 14:38:32			0	36429	0	0	0	25885	24450	141209	27227	1017114	42284	109581	0	0	8193	615570	0	0
2024-06-16 14:39:32			0	36455	0	0	0	25898	24450	141189	27112	1017087	42284	109586	0	0	8194	614478	0	0
2024-06-16 14:40:32			0	36451	0	0	0	25924	24460	141197	27149	1017238	42285	109596	0	0	8194	614611	0	0
2024-06-16 14:41:32			0	36456	0	0	0	25927	24460	141141	27013	1017211	42285	109597	0	0	8194	614402	0	0
2024-06-16 14:42:32			0	36454	0	0	0	25906	24480	141081	27157	1017272	42297	109589	0	0	8194	614416	0	0
2024-06-16 14:43:32			0	36448	0	0	0	25890	24480	141069	26844	1017237	42275	109583	0	0	8194	614668	0	0
2024-06-16 14:44:32			0	36447	0	0	0	25906	24470	141201	27045	1017229	42286	109589	0	0	8194	614745	0	0
2024-06-16 14:45:32			0	36446	0	0	0	25932	24490	141277	27043	1017254	42288	109599	0	0	8193	614717	0	0
2024-06-16 14:46:32			0	36445	0	0	0	25929	24490	141229	27163	1017308	42298	109598	0	0	8193	614759	0	0
2024-06-16 14:47:32			0	36466	0	0	0	25932	24500	141093	26923	1017334	42266	109599	0	0	8194	613843	0	0
2024-06-16 14:48:32			0	36467	0	0	0	25942	24500	141149	27164	1017307	42289	109603	0	0	8194	613801	0	0
2024-06-16 14:49:32			0	36448	0	0	0	25942	24510	141109	27223	1017396	42279	109603	0	0	8193	614564	0	0
2024-06-16 14:50:32			0	36447	0	0	0	25955	24510	141229	27064	1017342	42290	109608	0	0	8193	614606	0	0
2024-06-16 14:51:32			0	36466	0	0	0	25929	24510	141125	27105	1017396	42279	109598	0	0	8194	613809	0	0
2024-06-16 14:52:32			0	36464	0	0	0	25940	24520	141141	26981	1017448	42301	109602	0	0	8194	613858	0	0
2024-06-16 14:53:32			0	36440	0	0	0	25953	24520	141141	27159	1017448	42291	109607	0	0	8193	614865	0	0
2024-06-16 14:54:32			0	36463	0	0	0	25966	24530	141149	27039	1017510	42302	109612	0	0	8194	613865	0	0
2024-06-16 14:55:32			0	36456	0	0	0	25979	24520	141117	27159	1017528	42301	109617	0	0	8193	614193	0	0
2024-06-16 14:56:32			0	36428	0	0	0	25997	24540	141157	27400	1017590	42292	109624	0	0	8191	615299	0	0
2024-06-16 14:57:32			0	36448	0	0	0	25999	24560	141093	27048	1017616	42283	109625	0	0	8193	614390	0	0
2024-06-16 14:58:32			0	36449	0	0	0	25992	24550	141109	27246	1017607	42293	109622	0	0	8193	614383	0	0
2024-06-16 14:59:32			0	36433	0	0	0	25999	24560	141165	27251	1017616	42305	109625	0	0	8192	615019	0	0
2024-06-16 15:00:32			0	36437	0	0	0	26012	24560	141337	27166	1017678	42305	109630	0	0	8192	614851	0	0
2024-06-16 15:01:32			0	36420	0	0	0	26062	24570	141197	27119	1017740	42306	109649	0	0	8190	615530	0	0
2024-06-16 15:02:32			0	36417	0	0	0	26023	24580	141313	27083	1017846	42307	109634	0	0	8191	615622	0	0
2024-06-16 15:03:32			0	36419	0	0	0	26033	24580	141185	27074	1017792	42319	109638	0	0	8191	615538	0	0
2024-06-16 15:04:32			0	36412	0	0	0	26080	24600	141197	27001	1017845	42297	109656	0	0	8189	615762	0	0
2024-06-16 15:05:32			0	36417	0	0	0	26077	24610	141269	27055	1017942	42309	109655	0	0	8190	615517	0	0
2024-06-16 15:06:32			0	36390	0	0	0	26072	24620	141349	26845	1017960	42311	109653	0	0	8189	616617	0	0
2024-06-16 15:07:32			0	36379	0	0	0	26059	24630	141337	26817	1017995	42300	109648	0	0	8188	617045	0	0
2024-06-16 15:08:32			0	36376	0	0	0	26075	24630	141333	26949	1018057	42322	109654	0	0	8188	617171	0	0
2024-06-16 15:09:32			0	36374	0	0	0	26064	24630	141293	27201	1017968	42300	109650	0	0	8188	617255	0	0
2024-06-16 15:10:32			0	36391	0	0	0	26075	24630	141341	27046	1018003	42311	109654	0	0	8189	616540	0	0
2024-06-16 15:11:32			0	36386	0	0	0	26083	24640	141297	26831	1018066	42301	109657	0	0	8188	616715	0	0
2024-06-16 15:12:32			0	36390	0	0	0	26103	24640	141317	27225	1018047	42302	109665	0	0	8188	616547	0	0
2024-06-16 15:13:32			0	36375	0	0	0	26093	24660	141345	26948	1018127	42314	109661	0	0	8188	617108	0	0
2024-06-16 15:14:32			0	36388	0	0	0	26127	24670	141341	27083	1018171	42326	109674	0	0	8188	616527	0	0
2024-06-16 15:15:32			0	36375	0	0	0	26155	24680	141317	27270	1018295	42316	109685	0	0	8187	617038	0	0
2024-06-16 15:16:32			0	36349	0	0	0	26140	24680	141365	27159	1018250	42317	109679	0	0	8185	618133	0	0
2024-06-16 15:17:32			0	36339	0	0	0	26132	24690	141477	27055	1018321	42329	109676	0	0	8185	618519	0	0
2024-06-16 15:18:32			0	36326	0	0	0	26124	24700	141625	26897	1018249	42318	109673	0	0	8185	619032	0	0
2024-06-16 15:19:32			0	36331	0	0	0	26129	24700	141657	27261	1018258	42307	109675	0	0	8185	618821	0	0
2024-06-16 15:20:32			0	36329	0	0	0	26122	24700	141509	26837	1018276	42307	109672	0	0	8185	618905	0	0
2024-06-16 15:21:32			0	36369	0	0	0	26124	24700	141453	27118	1018285	42307	109673	0	0	8187	617221	0	0
2024-06-16 15:22:32			0	36375	0	0	0	26111	24700	141401	27159	1018311	42307	109668	0	0	8187	616968	0	0
2024-06-16 15:23:32			0	36394	0	0	0	26114	24700	141337	27137	1018311	42318	109669	0	0	8188	616170	0	0
2024-06-16 15:24:32			0	36407	0	0	0	26119	24720	141365	27196	1018364	42309	109671	0	0	8189	615554	0	0
2024-06-16 15:25:32			0	36396	0	0	0	26135	24710	141221	27267	1018400	42307	109677	0	0	8188	616051	0	0
2024-06-16 15:26:32			0	36406	0	0	0	26135	24720	141241	27187	1018373	42309	109677	0	0	8189	615596	0	0
2024-06-16 15:27:32			0	36428	0	0	0	26132	24710	141237	26899	1018320	42318	109676	0	0	8190	614707	0	0
2024-06-16 15:28:32			0	36411	0	0	0	26135	24720	141221	26805	1018391	42309	109677	0	0	8189	615386	0	0
2024-06-16 15:29:32			0	36422	0	0	0	26140	24730	141149	27185	1018435	42310	109679	0	0	8190	614889	0	0
2024-06-16 15:30:32			0	36421	0	0	0	26140	24730	141161	27128	1018408	42321	109679	0	0	8189	614931	0	0
2024-06-16 15:31:32			0	36426	0	0	0	26075	24730	140997	27447	1018336	42299	109654	0	0	8191	614722	0	0
2024-06-16 15:32:32			0	36449	0	0	0	26080	24720	141145	27431	1018284	42320	109656	0	0	8192	613792	0	0
2024-06-16 15:33:32			0	36446	0	0	0	26072	24720	141129	27253	1018292	42320	109653	0	0	8192	613918	0	0
2024-06-16 15:34:32			0	36454	0	0	0	26135	24710	141193	27088	1018347	42318	109677	0	0	8191	613617	0	0
2024-06-16 15:35:32			0	36435	0	0	0	26145	24720	141037	27017	1018417	42332	109681	0	0	8190	614379	0	0
2024-06-16 15:36:32			0	36450	0	0	0	26031	24720	141045	27204	1018373	42298	109637	0	0	8193	613750	0	0
2024-06-16 15:37:32			0	36451	0	0	0	26111	24730	141025	27234	1018274	42299	109668	0	0	8192	613673	0	0
2024-06-16 15:38:32			0	36442	0	0	0	26129	24720	141121	26994	1018391	42309	109675	0	0	8191	614085	0	0
2024-06-16 15:39:32			0	36464	0	0	0	26062	24730	141081	26856	1018381	42299	109649	0	0	8193	613129	0	0
2024-06-16 15:40:32			0	36445	0	0	0	25963	24710	141185	26765	1018115	42297	109611	0	0	8194	613994	0	0
2024-06-16 15:41:32			0	36451	0	0	0	25940	24690	141141	27144	1018000	42285	109602	0	0	8194	613812	0	0
2024-06-16 15:42:32			0	36458	0	0	0	26023	24680	141085	27409	1018054	42304	109634	0	0	8193	613554	0	0
2024-06-16 15:43:32			0	36436	0	0	0	26010	24670	141165	27088	1018072	42304	109629	0	0	8192	614511	0	0
2024-06-16 15:44:32			0	36426	0	0	0	25986	24680	141141	27268	1018001	42304	109620	0	0	8192	614896	0	0
2024-06-16 15:45:32			0	36423	0	0	0	25986	24670	141181	27152	1018072	42293	109620	0	0	8192	615056	0	0
2024-06-16 15:46:32			0	36425	0	0	0	26025	24660	141189	26998	1018001	42303	109635	0	0	8191	615007	0	0
2024-06-16 15:47:32			0	36429	0	0	0	26041	24670	141241	27079	1018064	42303	109641	0	0	8191	614804	0	0
2024-06-16 15:48:32			0	36411	0	0	0	26041	24670	141365	26915	1018144	42315	109641	0	0	8190	615560	0	0
2024-06-16 15:49:32			0	36412	0	0	0	25999	24660	141349	27064	1018001	42292	109625	0	0	8191	615553	0	0
2024-06-16 15:50:32			0	36425	0	0	0	25981	24670	141313	27211	1018117	42303	109618	0	0	8192	614972	0	0
2024-06-16 15:51:32			0	36418	0	0	0	26051	24670	141425	27268	1018064	42292	109645	0	0	8191	615266	0	0
2024-06-16 15:52:32			0	36421	0	0	0	26059	24670	141365	27126	1018126	42293	109648	0	0	8191	615140	0	0
2024-06-16 15:53:32			0	36422	0	0	0	26080	24670	141353	27303	1018144	42315	109656	0	0	8190	615098	0	0
2024-06-16 15:54:32			0	36417	0	0	0	26083	24670	141297	26915	1018233	42304	109657	0	0	8190	615308	0	0
2024-06-16 15:55:32			0	36431	0	0	0	26077	24680	141217	27260	1018215	42316	109655	0	0	8191	614686	0	0
2024-06-16 15:56:32			0	36435	0	0	0	26062	24680	141165	26786	1018241	42304	109649	0	0	8191	614518	0	0
2024-06-16 15:57:32			0	36444	0	0	0	26106	24680	141237	26791	1018197	42305	109666	0	0	8191	614140	0	0
2024-06-16 15:58:32			0	36435	0	0	0	26122	24680	141245	27046	1018277	42317	109672	0	0	8190	614518	0	0
2024-06-16 15:59:32			0	36434	0	0	0	26127	24690	141341	27296	1018348	42306	109674	0	0	8190	614525	0	0
2024-06-16 16:00:32			0	36430	0	0	0	26153	24700	141337	26901	1018365	42307	109684	0	0	8190	614658	0	0
2024-06-16 16:01:32			0	36448	0	0	0	26127	24700	141297	27192	1018338	42307	109674	0	0	8191	613903	0	0
2024-06-16 16:02:32			0	36462	0	0	0	26153	24720	141253	27227	1018444	42320	109684	0	0	8191	613247	0	0
2024-06-16 16:03:32			0	36445	0	0	0	26148	24720	141225	27147	1018453	42309	109682	0	0	8191	613960	0	0
2024-06-16 16:04:32			0	36439	0	0	0	26168	24730	141201	27267	1018550	42310	109690	0	0	8190	614176	0	0
2024-06-16 16:05:32			0	36470	0	0	0	26192	24740	141225	27057	1018559	42322	109699	0	0	8191	612843	0	0
2024-06-16 16:06:32			0	36455	0	0	0	26212	24750	141177	27274	1018692	42312	109707	0	0	8190	613436	0	0
2024-06-16 16:07:32			0	36465	0	0	0	26186	24760	141101	27241	1018700	42334	109697	0	0	8191	612983	0	0
2024-06-16 16:08:32			0	36470	0	0	0	26186	24760	141113	26981	1018629	42314	109697	0	0	8191	612774	0	0
2024-06-16 16:09:32			0	36476	0	0	0	26150	24760	141077	26930	1018647	42324	109683	0	0	8192	612522	0	0
2024-06-16 16:10:32			0	36485	0	0	0	26122	24760	141037	26781	1018602	42302	109672	0	0	8193	612146	0	0
2024-06-16 16:11:32			0	36479	0	0	0	26101	24760	141005	26665	1018540	42313	109664	0	0	8193	612397	0	0
2024-06-16 16:12:32			0	36478	0	0	0	26083	24760	141001	26955	1018540	42301	109657	0	0	8194	612439	0	0
2024-06-16 16:13:32			0	36510	0	0	0	26036	24760	140921	26882	1018326	42301	109639	0	0	8196	611101	0	0
2024-06-16 16:14:32			0	36512	0	0	0	26038	24730	140957	27015	1018283	42288	109640	0	0	8196	611121	0	0
2024-06-16 16:15:32			0	36492	0	0	0	26054	24720	140949	26769	1018284	42298	109646	0	0	8195	611992	0	0
2024-06-16 16:16:32			0	36532	0	0	0	26028	24740	140881	27079	1018345	42311	109636	0	0	8197	610251	0	0
2024-06-16 16:17:32			0	36555	0	0	0	25968	24710	140789	26703	1018195	42297	109613	0	0	8199	609395	0	0
2024-06-16 16:18:32			0	36555	0	0	0	26075	24710	140825	27039	1018275	42286	109654	0	0	8198	609395	0	0
2024-06-16 16:19:32			0	36535	0	0	0	26119	24710	140917	26601	1018382	42308	109671	0	0	8196	610230	0	0
2024-06-16 16:20:32			0	36530	0	0	0	26124	24720	140961	27045	1018373	42309	109673	0	0	8195	610404	0	0
2024-06-16 16:21:32			0	36517	0	0	0	26114	24730	141009	26760	1018381	42299	109669	0	0	8195	610912	0	0
2024-06-16 16:22:32			0	36483	0	0	0	26015	24720	141101	26769	1018284	42298	109631	0	0	8195	612368	0	0
2024-06-16 16:23:32			0	36501	0	0	0	26012	24720	141081	27144	1018203	42287	109630	0	0	8196	611615	0	0
2024-06-16 16:24:32			0	36465	0	0	0	26041	24700	141169	26819	1018204	42296	109641	0	0	8193	613191	0	0
2024-06-16 16:25:32			0	36479	0	0	0	26051	24700	141121	26981	1018231	42296	109645	0	0	8194	612605	0	0
2024-06-16 16:26:32			0	36448	0	0	0	26023	24700	141237	26899	1018196	42296	109634	0	0	8193	613903	0	0
2024-06-16 16:27:32			0	36460	0	0	0	25958	24690	141165	26786	1018045	42284	109609	0	0	8194	613435	0	0
2024-06-16 16:28:32			0	36472	0	0	0	25942	24670	141181	26991	1017957	42271	109603	0	0	8195	613002	0	0
2024-06-16 16:29:32			0	36448	0	0	0	25909	24650	141089	26896	1017824	42270	109590	0	0	8194	614077	0	0
2024-06-16 16:30:32			0	36453	0	0	0	25836	24640	141181	26677	1017700	42280	109562	0	0	8196	613902	0	0
2024-06-16 16:31:32			0	36456	0	0	0	25828	24620	141097	27107	1017496	42266	109559	0	0	8196	613846	0	0
2024-06-16 16:32:32			0	36471	0	0	0	25794	24580	141073	27100	1017445	42274	109546	0	0	8197	613356	0	0
2024-06-16 16:33:32			0	36494	0	0	0	25786	24580	141097	26982	1017418	42263	109543	0	0	8199	612393	0	0
2024-06-16 16:34:32			0	36520	0	0	0	25810	24560	141061	27083	1017375	42260	109552	0	0	8200	611375	0	0
2024-06-16 16:35:32			0	36522	0	0	0	25810	24540	140985	26975	1017322	42270	109552	0	0	8200	611360	0	0
2024-06-16 16:36:32			0	36552	0	0	0	25893	24540	140949	26991	1017420	42292	109584	0	0	8200	610107	0	0
2024-06-16 16:37:32			0	36553	0	0	0	25898	24540	141033	27223	1017447	42303	109586	0	0	8200	610065	0	0
2024-06-16 16:38:32			0	36533	0	0	0	25812	24530	140977	27159	1017385	42281	109553	0	0	8200	610935	0	0
2024-06-16 16:39:32			0	36564	0	0	0	25797	24530	140977	26920	1017270	42258	109547	0	0	8202	609641	0	0
2024-06-16 16:40:32			0	36546	0	0	0	25833	24510	140885	26948	1017262	42267	109561	0	0	8200	610461	0	0
2024-06-16 16:41:32			0	36552	0	0	0	25833	24530	140945	26956	1017350	42280	109561	0	0	8201	610141	0	0
2024-06-16 16:42:32			0	36561	0	0	0	25825	24530	141077	27111	1017377	42280	109558	0	0	8201	609766	0	0
2024-06-16 16:43:32			0	36530	0	0	0	25810	24520	140985	27189	1017279	42268	109552	0	0	8200	611095	0	0
2024-06-16 16:44:32			0	36558	0	0	0	25818	24510	140993	27007	1017235	42267	109555	0	0	8201	609960	0	0
2024-06-16 16:45:32			0	36509	0	0	0	25794	24510	140997	27163	1017182	42267	109546	0	0	8199	612008	0	0
2024-06-16 16:46:32			0	36536	0	0	0	25810	24500	141153	27303	1017111	42265	109552	0	0	8200	610913	0	0
2024-06-16 16:47:32			0	36522	0	0	0	25781	24490	141145	27137	1017174	42265	109541	0	0	8200	611533	0	0
2024-06-16 16:48:32			0	36514	0	0	0	25812	24480	141129	27182	1017112	42264	109553	0	0	8199	611902	0	0
2024-06-16 16:49:32			0	36517	0	0	0	25810	24480	141153	27244	1017219	42276	109552	0	0	8199	611777	0	0
2024-06-16 16:50:32			0	36516	0	0	0	25849	24480	141133	26913	1017219	42276	109567	0	0	8198	611819	0	0
2024-06-16 16:51:32			0	36517	0	0	0	25831	24480	141137	27157	1017219	42264	109560	0	0	8199	611777	0	0
2024-06-16 16:52:32			0	36526	0	0	0	25901	24480	141153	26887	1017246	42287	109587	0	0	8198	611400	0	0
2024-06-16 16:53:32			0	36510	0	0	0	25812	24490	141193	27260	1017201	42265	109553	0	0	8199	612035	0	0
2024-06-16 16:54:32			0	36522	0	0	0	25825	24480	141205	27190	1017165	42264	109558	0	0	8199	611568	0	0
2024-06-16 16:55:32			0	36530	0	0	0	25916	24490	141173	26878	1017397	42288	109593	0	0	8198	611199	0	0
2024-06-16 16:56:32			0	36499	0	0	0	25945	24490	141225	27133	1017504	42298	109604	0	0	8196	612495	0	0
2024-06-16 16:57:32			0	36495	0	0	0	25955	24510	141173	26951	1017565	42279	109608	0	0	8196	612594	0	0
2024-06-16 16:58:32			0	36520	0	0	0	25877	24530	141121	26998	1017492	42292	109578	0	0	8198	611478	0	0
2024-06-16 16:59:32			0	36514	0	0	0	25979	24530	141189	27133	1017572	42281	109617	0	0	8196	611729	0	0
2024-06-16 17:00:32			0	36508	0	0	0	25836	24520	141133	27237	1017448	42268	109562	0	0	8198	612015	0	0
2024-06-16 17:01:32			0	36518	0	0	0	25831	24520	141093	27074	1017333	42268	109560	0	0	8199	611597	0	0
2024-06-16 17:02:32			0	36507	0	0	0	25774	24510	141073	27170	1017182	42256	109538	0	0	8199	612091	0	0
2024-06-16 17:03:32			0	36529	0	0	0	25786	24500	141005	27208	1017165	42265	109543	0	0	8200	611206	0	0
2024-06-16 17:04:32			0	36512	0	0	0	25909	24490	141077	27268	1017343	42277	109590	0	0	8197	611951	0	0
2024-06-16 17:05:32			0	36505	0	0	0	25911	24500	141201	26786	1017441	42299	109591	0	0	8197	612210	0	0
2024-06-16 17:06:32			0	36484	0	0	0	25932	24510	141313	26790	1017458	42300	109599	0	0	8195	613054	0	0
2024-06-16 17:07:32			0	36476	0	0	0	25979	24520	141333	26828	1017555	42301	109617	0	0	8194	613355	0	0
2024-06-16 17:08:32			0	36454	0	0	0	25971	24550	141325	27180	1017678	42304	109614	0	0	8193	614173	0	0
2024-06-16 17:09:32			0	36452	0	0	0	25896	24550	141381	27074	1017571	42282	109585	0	0	8194	614257	0	0
2024-06-16 17:10:32			0	36430	0	0	0	25896	24540	141385	26876	1017554	42270	109585	0	0	8193	615215	0	0
2024-06-16 17:11:32			0	36430	0	0	0	25877	24540	141413	27057	1017474	42270	109578	0	0	8194	615215	0	0
2024-06-16 17:12:32			0	36426	0	0	0	25911	24550	141441	26965	1017553	42293	109591	0	0	8193	615348	0	0
2024-06-16 17:13:32			0	36423	0	0	0	25937	24550	141441	26913	1017660	42272	109601	0	0	8192	615474	0	0
2024-06-16 17:14:32			0	36413	0	0	0	25890	24550	141385	27019	1017553	42272	109583	0	0	8192	615894	0	0
2024-06-16 17:15:32			0	36424	0	0	0	25844	24550	141417	27000	1017491	42271	109565	0	0	8194	615432	0	0
2024-06-16 17:16:32			0	36422	0	0	0	25973	24540	141525	26880	1017536	42270	109615	0	0	8192	615551	0	0
2024-06-16 17:17:32			0	36414	0	0	0	26010	24550	141529	27062	1017652	42292	109629	0	0	8191	615852	0	0
2024-06-16 17:18:32			0	36416	0	0	0	26018	24570	141585	26935	1017775	42295	109632	0	0	8191	615698	0	0
2024-06-16 17:19:32			0	36396	0	0	0	26005	24580	141465	27275	1017792	42296	109627	0	0	8190	616504	0	0
2024-06-16 17:20:32			0	36423	0	0	0	25929	24580	141473	27177	1017766	42274	109598	0	0	8192	615370	0	0
2024-06-16 17:21:32			0	36407	0	0	0	25885	24580	141321	26889	1017712	42274	109581	0	0	8192	616042	0	0
2024-06-16 17:22:32			0	36445	0	0	0	25898	24580	141373	27225	1017703	42285	109586	0	0	8194	614446	0	0
2024-06-16 17:23:32			0	36441	0	0	0	25924	24580	141389	26727	1017757	42285	109596	0	0	8194	614614	0	0
2024-06-16 17:24:32			0	36439	0	0	0	25963	24580	141421	26987	1017685	42286	109611	0	0	8193	614698	0	0
2024-06-16 17:25:32			0	36466	0	0	0	25932	24590	141373	27057	1017756	42297	109599	0	0	8195	613531	0	0
2024-06-16 17:26:32			0	36431	0	0	0	25857	24570	141397	26951	1017641	42295	109570	0	0	8194	615069	0	0
2024-06-16 17:27:32			0	36444	0	0	0	25867	24550	141309	26956	1017446	42250	109574	0	0	8195	614592	0	0
2024-06-16 17:28:32			0	36445	0	0	0	25805	24560	141453	27211	1017464	42272	109550	0	0	8196	614516	0	0
2024-06-16 17:29:32			0	36419	0	0	0	25802	24540	141245	27133	1017349	42259	109549	0	0	8194	615677	0	0
2024-06-16 17:30:32			0	36466	0	0	0	25784	24530	141313	26899	1017251	42270	109542	0	0	8197	613739	0	0
2024-06-16 17:31:32			0	36424	0	0	0	25820	24510	141345	26965	1017271	42267	109556	0	0	8194	615571	0	0
2024-06-16 17:32:32			0	36435	0	0	0	25846	24510	141401	27173	1017324	42279	109566	0	0	8194	615109	0	0
2024-06-16 17:33:32			0	36435	0	0	0	25786	24510	141433	27168	1017271	42267	109543	0	0	8195	615109	0	0
2024-06-16 17:34:32			0	36431	0	0	0	25774	24500	141317	27079	1017200	42255	109538	0	0	8195	615312	0	0
2024-06-16 17:35:32			0	36442	0	0	0	25854	24500	141381	27107	1017334	42289	109569	0	0	8194	614850	0	0
2024-06-16 17:36:32			0	36443	0	0	0	25958	24520	141393	26970	1017520	42279	109609	0	0	8193	614739	0	0
2024-06-16 17:37:32			0	36438	0	0	0	25909	24530	141397	27050	1017537	42291	109590	0	0	8193	614914	0	0
2024-06-16 17:38:32			0	36447	0	0	0	25893	24530	141381	26998	1017572	42281	109584	0	0	8194	614536	0	0
2024-06-16 17:39:32			0	36462	0	0	0	25914	24550	141333	26878	1017687	42293	109592	0	0	8195	613837	0	0
2024-06-16 17:40:32			0	36445	0	0	0	25867	24550	141265	27381	1017500	42293	109574	0	0	8195	614551	0	0
2024-06-16 17:41:32			0	36444	0	0	0	25885	24540	141297	27128	1017527	42281	109581	0	0	8194	614627	0	0
2024-06-16 17:42:32			0	36466	0	0	0	25924	24540	141205	27060	1017616	42281	109596	0	0	8195	613705	0	0
2024-06-16 17:43:32			0	36444	0	0	0	26054	24560	141233	27104	1017803	42293	109646	0	0	8191	614558	0	0
2024-06-16 17:44:32			0	36469	0	0	0	26059	24570	141325	27197	1017882	42307	109648	0	0	8193	613475	0	0
2024-06-16 17:45:32			0	36452	0	0	0	26051	24590	141385	26793	1017970	42308	109645	0	0	8192	614118	0	0
2024-06-16 17:46:32			0	36464	0	0	0	25997	24600	141341	27107	1017898	42287	109624	0	0	8194	613580	0	0
2024-06-16 17:47:32			0	36458	0	0	0	26025	24610	141345	26849	1017969	42288	109635	0	0	8193	613797	0	0
2024-06-16 17:48:32			0	36434	0	0	0	26010	24610	141385	27138	1017916	42298	109629	0	0	8192	614803	0	0
2024-06-16 17:49:32			0	36441	0	0	0	26007	24620	141333	27057	1018031	42289	109628	0	0	8192	614475	0	0
2024-06-16 17:50:32			0	36445	0	0	0	26096	24630	141345	26932	1018102	42311	109662	0	0	8191	614272	0	0
2024-06-16 17:51:32			0	36430	0	0	0	26158	24650	141421	27286	1018270	42313	109686	0	0	8189	614832	0	0
2024-06-16 17:52:32			0	36423	0	0	0	26181	24650	141441	27177	1018332	42314	109695	0	0	8189	615126	0	0
2024-06-16 17:53:32			0	36440	0	0	0	26189	24680	141333	27053	1018357	42317	109698	0	0	8189	614308	0	0
2024-06-16 17:54:32			0	36422	0	0	0	26186	24690	141381	27124	1018473	42294	109697	0	0	8189	615029	0	0
2024-06-16 17:55:32			0	36413	0	0	0	26171	24710	141437	26993	1018507	42307	109691	0	0	8188	615337	0	0
2024-06-16 17:56:32			0	36429	0	0	0	26150	24710	141349	27142	1018569	42308	109683	0	0	8190	614665	0	0
2024-06-16 17:57:32			0	36434	0	0	0	26145	24710	141293	26830	1018481	42296	109681	0	0	8190	614456	0	0
2024-06-16 17:58:32			0	36425	0	0	0	26184	24720	141281	26821	1018587	42309	109696	0	0	8189	614798	0	0
2024-06-16 17:59:32			0	36416	0	0	0	26189	24730	141393	27069	1018631	42310	109698	0	0	8188	615141	0	0
2024-06-16 18:00:32			0	36409	0	0	0	26199	24750	141393	27182	1018656	42312	109702	0	0	8188	615365	0	0
2024-06-16 18:01:32			0	36398	0	0	0	26218	24750	141353	26870	1018745	42323	109709	0	0	8187	615827	0	0
2024-06-16 18:02:32			0	36410	0	0	0	26194	24770	141357	26861	1018699	42314	109700	0	0	8188	615254	0	0
2024-06-16 18:03:32			0	36404	0	0	0	26158	24770	141305	26866	1018718	42314	109686	0	0	8188	615506	0	0
2024-06-16 18:04:32			0	36427	0	0	0	26150	24760	141241	26913	1018709	42302	109683	0	0	8190	614575	0	0
2024-06-16 18:05:32			0	36429	0	0	0	26127	24770	141345	26859	1018664	42302	109674	0	0	8190	614457	0	0
2024-06-16 18:06:32			0	36408	0	0	0	26025	24760	141245	27150	1018433	42291	109635	0	0	8191	615372	0	0
2024-06-16 18:07:32			0	36415	0	0	0	26072	24760	141313	26868	1018513	42301	109653	0	0	8190	615079	0	0
2024-06-16 18:08:32			0	36442	0	0	0	26062	24750	141117	27379	1018469	42300	109649	0	0	8192	613981	0	0
2024-06-16 18:09:32			0	36444	0	0	0	26122	24750	141145	27072	1018523	42300	109672	0	0	8191	613897	0	0
2024-06-16 18:10:32			0	36462	0	0	0	26176	24740	141181	26896	1018621	42311	109693	0	0	8191	613178	0	0
2024-06-16 18:11:32			0	36481	0	0	0	26225	24760	141117	27270	1018789	42335	109712	0	0	8191	612313	0	0
2024-06-16 18:12:32			0	36494	0	0	0	26194	24790	141033	26935	1018779	42327	109700	0	0	8193	611666	0	0
2024-06-16 18:13:32			0	36479	0	0	0	26197	24790	141025	26833	1018859	42327	109701	0	0	8192	612293	0	0
2024-06-16 18:14:32			0	36480	0	0	0	26238	24790	140997	26651	1018921	42327	109717	0	0	8191	612251	0	0
2024-06-16 18:15:32			0	36478	0	0	0	26246	24800	141061	27300	1018956	42328	109720	0	0	8191	612300	0	0
2024-06-16 18:16:32			0	36466	0	0	0	26288	24820	141089	27020	1019026	42319	109736	0	0	8190	612733	0	0
2024-06-16 18:17:32			0	36483	0	0	0	26283	24830	141113	27033	1019035	42342	109734	0	0	8191	611987	0	0
2024-06-16 18:18:32			0	36455	0	0	0	26285	24830	141253	27072	1019044	42320	109735	0	0	8189	613158	0	0
2024-06-16 18:19:32			0	36424	0	0	0	26275	24850	141241	27220	1019096	42333	109731	0	0	8188	614388	0	0
2024-06-16 18:20:32			0	36398	0	0	0	26285	24840	141401	27092	1019088	42332	109735	0	0	8186	615514	0	0
2024-06-16 18:21:32			0	36411	0	0	0	26290	24850	141313	26967	1019185	42343	109737	0	0	8187	614933	0	0
2024-06-16 18:22:32			0	36378	0	0	0	26301	24870	141357	27234	1019238	42324	109741	0	0	8185	616249	0	0
2024-06-16 18:23:32			0	36400	0	0	0	26314	24860	141389	27280	1019202	42323	109746	0	0	8186	615360	0	0
2024-06-16 18:24:32			0	36392	0	0	0	26314	24870	141393	27357	1019211	42334	109746	0	0	8186	615661	0	0
2024-06-16 18:25:32			0	36386	0	0	0	26314	24880	141333	27140	1019282	42345	109746	0	0	8185	615878	0	0
2024-06-16 18:26:32			0	36375	0	0	0	26322	24880	141389	27440	1019335	42334	109749	0	0	8185	616340	0	0
2024-06-16 18:27:32			0	36385	0	0	0	26337	24880	141409	27170	1019389	42324	109755	0	0	8185	615920	0	0
2024-06-16 18:28:32			0	36368	0	0	0	26322	24890	141481	27119	1019334	42337	109749	0	0	8184	616599	0	0
2024-06-16 18:29:32			0	36352	0	0	0	26332	24900	141513	27105	1019343	42326	109753	0	0	8183	617237	0	0
2024-06-16 18:30:32			0	36300	0	0	0	26329	24900	141657	26797	1019423	42337	109752	0	0	8181	619427	0	0
2024-06-16 18:31:32			0	36309	0	0	0	26329	24910	141681	27197	1019360	42338	109752	0	0	8181	619012	0	0
2024-06-16 18:32:32			0	36302	0	0	0	26350	24910	141633	26765	1019360	42338	109760	0	0	8180	619307	0	0
2024-06-16 18:33:32			0	36280	0	0	0	26366	24920	141785	27358	1019449	42350	109766	0	0	8179	620200	0	0
2024-06-16 18:34:32			0	36273	0	0	0	26342	24930	141765	26894	1019493	42339	109757	0	0	8179	620460	0	0
2024-06-16 18:35:32			0	36291	0	0	0	26342	24930	141709	27137	1019448	42329	109757	0	0	8180	619701	0	0
2024-06-16 18:36:32			0	36280	0	0	0	26342	24920	141709	27163	1019458	42328	109757	0	0	8179	620200	0	0
2024-06-16 18:37:32			0	36272	0	0	0	26319	24940	141757	27071	1019430	42340	109748	0	0	8180	620467	0	0
2024-06-16 18:38:32			0	36262	0	0	0	26228	24930	141765	27183	1019359	42328	109713	0	0	8180	620925	0	0
2024-06-16 18:39:32			0	36272	0	0	0	26171	24920	141629	27095	1019235	42328	109691	0	0	8182	620538	0	0
2024-06-16 18:40:32			0	36298	0	0	0	26070	24890	141441	26963	1019067	42315	109652	0	0	8185	619546	0	0
2024-06-16 18:41:32			0	36331	0	0	0	26033	24870	141473	27119	1018845	42279	109638	0	0	8187	618226	0	0
2024-06-16 18:42:32			0	36358	0	0	0	26096	24860	141337	26989	1018846	42299	109662	0	0	8187	617124	0	0
2024-06-16 18:43:32			0	36367	0	0	0	26085	24830	141365	27022	1018767	42309	109658	0	0	8188	616851	0	0
2024-06-16 18:44:32			0	36389	0	0	0	26140	24830	141257	26968	1018821	42297	109679	0	0	8188	615926	0	0
2024-06-16 18:45:32			0	36410	0	0	0	26155	24820	141353	27135	1018839	42319	109685	0	0	8189	615080	0	0
2024-06-16 18:46:32			0	36420	0	0	0	26127	24820	141329	26928	1018857	42318	109674	0	0	8190	614660	0	0
2024-06-16 18:47:32			0	36447	0	0	0	26127	24810	141209	27088	1018742	42307	109674	0	0	8191	613563	0	0
2024-06-16 18:48:32			0	36427	0	0	0	26080	24800	141165	27197	1018590	42295	109656	0	0	8191	614436	0	0
2024-06-16 18:49:32			0	36444	0	0	0	26031	24790	141197	26878	1018458	42282	109637	0	0	8193	613758	0	0
2024-06-16 18:50:32			0	36442	0	0	0	26096	24770	141213	27102	1018557	42314	109662	0	0	8191	613912	0	0
2024-06-16 18:51:32			0	36436	0	0	0	26171	24780	141085	26908	1018708	42326	109691	0	0	8190	614128	0	0
2024-06-16 18:52:32			0	36416	0	0	0	26181	24780	141209	27145	1018770	42315	109695	0	0	8189	614967	0	0
2024-06-16 18:53:32			0	36444	0	0	0	26189	24790	141213	26963	1018779	42327	109698	0	0	8190	613758	0	0
2024-06-16 18:54:32			0	36455	0	0	0	26231	24800	141173	27064	1018903	42328	109714	0	0	8190	613263	0	0
2024-06-16 18:55:32			0	36433	0	0	0	26189	24810	141169	27092	1018894	42317	109698	0	0	8190	614150	0	0
2024-06-16 18:56:32			0	36441	0	0	0	26236	24810	141269	27074	1018929	42318	109716	0	0	8189	613814	0	0
2024-06-16 18:57:32			0	36429	0	0	0	26080	24790	141237	27255	1018627	42293	109656	0	0	8191	614387	0	0
2024-06-16 18:58:32			0	36422	0	0	0	26062	24770	141197	27284	1018432	42291	109649	0	0	8191	614750	0	0
2024-06-16 18:59:32			0	36431	0	0	0	26020	24750	141237	27098	1018308	42290	109633	0	0	8192	614442	0	0
2024-06-16 19:00:32			0	36438	0	0	0	25999	24740	141225	27293	1018318	42289	109625	0	0	8193	614184	0	0
2024-06-16 19:01:32			0	36453	0	0	0	25940	24690	141185	27092	1018000	42285	109602	0	0	8194	613729	0	0
2024-06-16 19:02:32			0	36469	0	0	0	25872	24680	141065	27246	1017813	42250	109576	0	0	8196	613093	0	0
2024-06-16 19:03:32			0	36489	0	0	0	25846	24650	140801	27012	1017690	42281	109566	0	0	8198	612360	0	0
2024-06-16 19:04:32			0	36535	0	0	0	25838	24630	140829	27041	1017674	42256	109563	0	0	8200	610506	0	0
2024-06-16 19:05:32			0	36585	0	0	0	25825	24610	140745	27133	1017461	42265	109558	0	0	8203	608489	0	0
2024-06-16 19:06:32			0	36596	0	0	0	25748	24570	140649	27137	1017258	42250	109528	0	0	8205	608169	0	0
2024-06-16 19:07:32			0	36616	0	0	0	25662	24530	140534	27064	1016930	42226	109495	0	0	8207	607473	0	0
2024-06-16 19:08:32			0	36668	0	0	0	25620	24490	140434	26901	1016728	42232	109479	0	0	8210	605448	0	0
2024-06-16 19:09:32			0	36679	0	0	0	25612	24450	140354	26866	1016793	42250	109476	0	0	8211	605128	0	0
2024-06-16 19:10:32			0	36687	0	0	0	25690	24450	140442	27150	1016865	42284	109506	0	0	8210	604796	0	0
2024-06-16 19:11:32			0	36692	0	0	0	25646	24440	140438	26953	1016741	42271	109489	0	0	8211	604623	0	0
2024-06-16 19:12:32			0	36699	0	0	0	25631	24420	140438	26913	1016634	42249	109483	0	0	8211	604401	0	0
2024-06-16 19:13:32			0	36688	0	0	0	25615	24400	140506	26873	1016493	42247	109477	0	0	8211	604926	0	0
2024-06-16 19:14:32			0	36697	0	0	0	25579	24370	140498	27010	1016441	42232	109463	0	0	8212	604655	0	0
2024-06-16 19:15:32			0	36689	0	0	0	25581	24360	140514	27105	1016416	42252	109464	0	0	8211	605021	0	0
2024-06-16 19:16:32			0	36690	0	0	0	25576	24340	140514	27180	1016363	42240	109462	0	0	8211	605048	0	0
2024-06-16 19:17:32			0	36703	0	0	0	25563	24320	140662	26904	1016275	42250	109457	0	0	8212	604576	0	0
2024-06-16 19:18:32			0	36686	0	0	0	25553	24300	140498	27175	1016187	42224	109453	0	0	8211	605351	0	0
2024-06-16 19:19:32			0	36677	0	0	0	25537	24290	140614	27248	1016125	42247	109447	0	0	8211	605759	0	0
2024-06-16 19:20:32			0	36690	0	0	0	25527	24280	140526	27452	1016046	42245	109443	0	0	8212	605253	0	0
2024-06-16 19:21:32			0	36659	0	0	0	25537	24250	140658	26868	1016101	42243	109447	0	0	8210	606644	0	0
2024-06-16 19:22:32			0	36678	0	0	0	25550	24240	140674	26705	1016012	42253	109452	0	0	8211	605888	0	0
2024-06-16 19:23:32			0	36657	0	0	0	25558	24240	140694	27116	1015977	42263	109455	0	0	8210	606762	0	0
2024-06-16 19:24:32			0	36637	0	0	0	25563	24220	140730	26946	1016058	42251	109457	0	0	8208	607663	0	0
2024-06-16 19:25:32			0	36657	0	0	0	25568	24220	140698	27144	1016085	42251	109459	0	0	8209	606830	0	0
2024-06-16 19:26:32			0	36649	0	0	0	25573	24220	140782	27045	1016058	42251	109461	0	0	8209	607163	0	0
2024-06-16 19:27:32			0	36644	0	0	0	25573	24210	140806	27326	1015961	42260	109461	0	0	8209	607406	0	0
2024-06-16 19:28:32			0	36639	0	0	0	25558	24220	140858	26767	1016031	42251	109455	0	0	8209	607580	0	0
2024-06-16 19:29:32			0	36628	0	0	0	25563	24210	140758	26863	1015961	42250	109457	0	0	8208	608072	0	0
2024-06-16 19:30:32			0	36624	0	0	0	25558	24210	140938	27059	1015926	42250	109455	0	0	8208	608239	0	0
2024-06-16 19:31:32			0	36612	0	0	0	25558	24190	140874	26819	1015900	42248	109455	0	0	8207	608808	0	0
2024-06-16 19:32:32			0	36609	0	0	0	25558	24190	140922	27204	1015820	42248	109455	0	0	8207	608933	0	0
2024-06-16 19:33:32			0	36620	0	0	0	25561	24180	140954	26989	1015829	42248	109456	0	0	8207	608509	0	0
2024-06-16 19:34:32			0	36616	0	0	0	25550	24180	140918	26948	1015829	42248	109452	0	0	8207	608676	0	0
2024-06-16 19:35:32			0	36606	0	0	0	25540	24180	140918	27131	1015820	42258	109448	0	0	8207	609093	0	0
2024-06-16 19:36:32			0	36594	0	0	0	25532	24160	141017	27222	1015741	42246	109445	0	0	8206	609663	0	0
2024-06-16 19:37:32			0	36606	0	0	0	25524	24170	140934	27556	1015731	42235	109442	0	0	8207	609127	0	0
2024-06-16 19:38:32			0	36585	0	0	0	25511	24160	141049	27015	1015661	42223	109437	0	0	8206	610038	0	0
2024-06-16 19:39:32			0	36623	0	0	0	25493	24150	140990	27138	1015582	42222	109430	0	0	8209	608487	0	0
2024-06-16 19:40:32			0	36595	0	0	0	25496	24140	141069	26745	1015653	42232	109431	0	0	8207	609690	0	0
2024-06-16 19:41:32			0	36601	0	0	0	25488	24140	141054	26948	1015618	42254	109428	0	0	8207	609439	0	0
2024-06-16 19:42:32			0	36585	0	0	0	25485	24140	141057	27436	1015565	42232	109427	0	0	8207	610107	0	0
2024-06-16 19:43:32			0	36581	0	0	0	25493	24120	141045	26767	1015566	42231	109430	0	0	8206	610343	0	0
2024-06-16 19:44:32			0	36594	0	0	0	25490	24120	141009	27005	1015512	42242	109429	0	0	8207	609800	0	0
2024-06-16 19:45:32			0	36582	0	0	0	25483	24110	140957	27038	1015513	42229	109426	0	0	8206	610336	0	0
2024-06-16 19:46:32			0	36608	0	0	0	25490	24120	141050	27199	1015637	42252	109429	0	0	8208	609216	0	0
2024-06-16 19:47:32			0	36583	0	0	0	25496	24110	141037	26897	1015566	42240	109431	0	0	8206	610294	0	0
2024-06-16 19:48:32			0	36589	0	0	0	25503	24110	141069	26998	1015566	42240	109434	0	0	8206	610043	0	0
2024-06-16 19:49:32			0	36585	0	0	0	25496	24110	141041	27248	1015495	42241	109431	0	0	8206	610211	0	0
2024-06-16 19:50:32			0	36575	0	0	0	25493	24110	141073	27197	1015513	42229	109430	0	0	8206	610628	0	0
2024-06-16 19:51:32			0	36607	0	0	0	25485	24110	141082	26852	1015513	42240	109427	0	0	8208	609292	0	0
2024-06-16 19:52:32			0	36598	0	0	0	25488	24110	141061	27334	1015486	42240	109428	0	0	8207	609667	0	0
2024-06-16 19:53:32			0	36595	0	0	0	25490	24110	140966	26916	1015566	42240	109429	0	0	8207	609793	0	0
2024-06-16 19:54:32			0	36602	0	0	0	25498	24110	140994	26968	1015593	42240	109432	0	0	8207	609500	0	0
2024-06-16 19:55:32			0	36603	0	0	0	25506	24110	141050	26852	1015593	42250	109435	0	0	8207	609459	0	0
2024-06-16 19:56:32			0	36621	0	0	0	25516	24110	140982	27086	1015655	42251	109439	0	0	8208	608708	0	0
2024-06-16 19:57:32			0	36607	0	0	0	25537	24110	140986	27126	1015709	42241	109447	0	0	8207	609292	0	0
2024-06-16 19:58:32			0	36615	0	0	0	25548	24120	140910	27209	1015664	42231	109451	0	0	8207	608923	0	0
2024-06-16 19:59:32			0	36623	0	0	0	25555	24120	140986	26989	1015717	42242	109454	0	0	8207	608590	0	0
2024-06-16 20:00:32			0	36621	0	0	0	25576	24140	141098	27263	1015840	42244	109462	0	0	8207	608605	0	0
2024-06-16 20:01:32			0	36625	0	0	0	25573	24140	140974	27149	1015778	42254	109461	0	0	8207	608438	0	0
2024-06-16 20:02:32			0	36623	0	0	0	25576	24150	141018	27092	1015796	42255	109462	0	0	8207	608487	0	0
2024-06-16 20:03:32			0	36640	0	0	0	25571	24150	140902	26819	1015876	42255	109460	0	0	8208	607778	0	0
2024-06-16 20:04:32			0	36621	0	0	0	25576	24160	140890	27041	1015848	42256	109462	0	0	8207	608536	0	0
2024-06-16 20:05:32			0	36639	0	0	0	25592	24150	140830	26922	1015822	42255	109468	0	0	8208	607820	0	0
2024-06-16 20:06:32			0	36645	0	0	0	25579	24160	140890	27308	1015813	42246	109463	0	0	8208	607536	0	0
2024-06-16 20:07:32			0	36653	0	0	0	25586	24160	140846	27150	1015848	42256	109466	0	0	8209	607202	0	0
2024-06-16 20:08:32			0	36658	0	0	0	25581	24160	140746	27220	1015848	42256	109464	0	0	8209	606994	0	0
2024-06-16 20:09:32			0	36674	0	0	0	25579	24160	140822	27287	1015839	42246	109463	0	0	8210	606328	0	0
2024-06-16 20:10:32			0	36659	0	0	0	25573	24160	140726	27251	1015839	42246	109461	0	0	8209	606953	0	0
2024-06-16 20:11:32			0	36670	0	0	0	25573	24160	140746	27281	1015813	42256	109461	0	0	8210	606495	0	0
2024-06-16 20:12:32			0	36678	0	0	0	25579	24160	140710	27093	1015848	42246	109463	0	0	8210	606162	0	0
2024-06-16 20:13:32			0	36676	0	0	0	25566	24160	140830	27119	1015795	42256	109458	0	0	8210	606245	0	0
2024-06-16 20:14:32			0	36684	0	0	0	25558	24160	140734	26920	1015795	42246	109455	0	0	8211	605913	0	0
2024-06-16 20:15:32			0	36708	0	0	0	25568	24150	140710	27218	1015804	42266	109459	0	0	8212	604949	0	0
2024-06-16 20:16:32			0	36701	0	0	0	25568	24150	140618	27046	1015769	42266	109459	0	0	8211	605240	0	0
2024-06-16 20:17:32			0	36693	0	0	0	25561	24150	140530	26679	1015777	42266	109456	0	0	8211	605572	0	0
2024-06-16 20:18:32			0	36708	0	0	0	25558	24150	140578	26821	1015849	42245	109455	0	0	8212	604949	0	0
2024-06-16 20:19:32			0	36707	0	0	0	25558	24160	140586	27090	1015732	42246	109455	0	0	8212	604957	0	0
2024-06-16 20:20:32			0	36728	0	0	0	25566	24150	140606	27046	1015804	42255	109458	0	0	8213	604119	0	0
2024-06-16 20:21:32			0	36730	0	0	0	25561	24160	140526	27046	1015813	42256	109456	0	0	8213	604002	0	0
2024-06-16 20:22:32			0	36735	0	0	0	25563	24150	140430	27147	1015742	42255	109457	0	0	8213	603829	0	0
2024-06-16 20:23:32			0	36753	0	0	0	25558	24160	140442	27171	1015813	42246	109455	0	0	8214	603048	0	0
2024-06-16 20:24:32			0	36747	0	0	0	25558	24150	140486	27041	1015777	42255	109455	0	0	8214	603331	0	0
2024-06-16 20:25:32			0	36745	0	0	0	25558	24150	140450	26762	1015804	42255	109455	0	0	8214	603414	0	0
2024-06-16 20:26:32			0	36771	0	0	0	25540	24150	140438	26972	1015751	42255	109448	0	0	8215	602336	0	0
2024-06-16 20:27:32			0	36771	0	0	0	25532	24150	140370	27284	1015689	42245	109445	0	0	8216	602336	0	0
2024-06-16 20:28:32			0	36776	0	0	0	25527	24140	140262	27216	1015760	42244	109443	0	0	8216	602163	0	0
2024-06-16 20:29:32			0	36800	0	0	0	25516	24140	140326	27048	1015653	42244	109439	0	0	8217	601170	0	0
2024-06-16 20:30:32			0	36796	0	0	0	25506	24140	140174	27066	1015680	42254	109435	0	0	8217	601336	0	0
2024-06-16 20:31:32			0	36832	0	0	0	25498	24130	140182	27079	1015716	42253	109432	0	0	8219	599882	0	0
2024-06-16 20:32:32			0	36851	0	0	0	25514	24140	140086	26856	1015707	42244	109438	0	0	8220	599063	0	0
2024-06-16 20:33:32			0	36852	0	0	0	25516	24140	140074	26868	1015680	42244	109439	0	0	8220	599022	0	0
2024-06-16 20:34:32			0	36861	0	0	0	25506	24150	140050	27059	1015742	42255	109435	0	0	8221	598617	0	0
2024-06-16 20:35:32			0	36897	0	0	0	25485	24140	139942	26946	1015671	42254	109427	0	0	8223	597167	0	0
2024-06-16 20:36:32			0	36925	0	0	0	25480	24140	139810	27078	1015698	42244	109425	0	0	8225	596015	0	0
2024-06-16 20:37:32			0	36954	0	0	0	25477	24130	139762	26909	1015636	42253	109424	0	0	8226	594857	0	0
2024-06-16 20:38:32			0	36967	0	0	0	25483	24130	139678	26738	1015628	42242	109426	0	0	8227	594324	0	0
2024-06-16 20:39:32			0	37013	0	0	0	25493	24130	139602	26918	1015654	42252	109430	0	0	8229	592438	0	0
2024-06-16 20:40:32			0	37031	0	0	0	25503	24130	139410	27182	1015636	42253	109434	0	0	8230	591701	0	0
2024-06-16 20:41:32			0	37064	0	0	0	25485	24130	139362	26996	1015583	42253	109427	0	0	8232	590351	0	0
2024-06-16 20:42:32			0	37061	0	0	0	25462	24120	139354	27213	1015539	42242	109418	0	0	8232	590507	0	0
2024-06-16 20:43:32			0	37102	0	0	0	25477	24120	139102	27027	1015610	42242	109424	0	0	8234	588833	0	0
2024-06-16 20:44:32			0	37119	0	0	0	25454	24120	138986	26847	1015557	42242	109415	0	0	8235	588140	0	0
2024-06-16 20:45:32			0	37148	0	0	0	25457	24100	139146	27171	1015585	42240	109416	0	0	8236	587026	0	0
2024-06-16 20:46:32			0	37146	0	0	0	25464	24120	138990	26755	1015592	42242	109419	0	0	8236	587041	0	0
2024-06-16 20:47:32			0	37134	0	0	0	25480	24110	139142	26788	1015522	42241	109425	0	0	8235	587562	0	0
2024-06-16 20:48:32			0	37119	0	0	0	25477	24110	139094	27220	1015593	42240	109424	0	0	8235	588174	0	0
2024-06-16 20:49:32			0	37099	0	0	0	25472	24110	139126	27317	1015495	42251	109422	0	0	8234	588989	0	0
2024-06-16 20:50:32			0	37109	0	0	0	25433	24100	139182	26958	1015523	42239	109407	0	0	8235	588614	0	0
2024-06-16 20:51:32			0	37055	0	0	0	25438	24100	139282	26984	1015496	42217	109409	0	0	8232	590819	0	0
2024-06-16 20:52:32			0	37017	0	0	0	25457	24090	139430	27039	1015487	42239	109416	0	0	8229	592408	0	0
2024-06-16 20:53:32			0	37008	0	0	0	25449	24090	139478	26965	1015434	42239	109413	0	0	8229	592776	0	0
2024-06-16 20:54:32			0	36961	0	0	0	25454	24090	139630	27209	1015532	42238	109415	0	0	8227	594704	0	0
2024-06-16 20:55:32			0	36944	0	0	0	25454	24100	139714	27260	1015549	42250	109415	0	0	8226	595369	0	0
2024-06-16 20:56:32			0	36917	0	0	0	25462	24090	139822	27381	1015514	42239	109418	0	0	8224	596513	0	0
2024-06-16 20:57:32			0	36877	0	0	0	25477	24100	139914	26989	1015523	42239	109424	0	0	8222	598126	0	0
2024-06-16 20:58:32			0	36864	0	0	0	25472	24100	139994	27244	1015523	42239	109422	0	0	8221	598662	0	0
2024-06-16 20:59:32			0	36827	0	0	0	25451	24090	140138	26965	1015479	42238	109414	0	0	8220	600224	0	0
2024-06-16 21:00:32			0	36802	0	0	0	25438	24090	140114	27157	1015425	42238	109409	0	0	8219	601257	0	0
2024-06-16 21:01:32			0	36793	0	0	0	25428	24090	140346	26944	1015399	42250	109405	0	0	8218	601629	0	0
2024-06-16 21:02:32			0	36775	0	0	0	25368	24080	140334	26941	1015283	42238	109382	0	0	8218	602409	0	0
2024-06-16 21:03:32			0	36742	0	0	0	25316	24060	140430	27159	1015195	42236	109362	0	0	8217	603845	0	0
2024-06-16 21:04:32			0	36738	0	0	0	25293	24050	140466	26937	1015098	42223	109353	0	0	8217	604045	0	0
2024-06-16 21:05:32			0	36705	0	0	0	25231	24040	140514	26696	1015080	42212	109329	0	0	8217	605449	0	0
2024-06-16 21:06:32			0	36703	0	0	0	25179	24020	140662	26944	1014868	42210	109309	0	0	8217	605601	0	0
2024-06-16 21:07:32			0	36675	0	0	0	25119	24000	140610	27280	1014726	42208	109286	0	0	8217	606834	0	0
2024-06-16 21:08:32			0	36655	0	0	0	25070	23980	140674	27130	1014505	42184	109267	0	0	8217	607736	0	0
2024-06-16 21:09:32			0	36665	0	0	0	25031	23950	140698	27105	1014285	42181	109252	0	0	8218	607422	0	0
2024-06-16 21:10:32			0	36654	0	0	0	24963	23910	140730	27015	1014029	42145	109226	0	0	8218	608017	0	0
2024-06-16 21:11:32			0	36615	0	0	0	24940	23870	140894	26897	1013889	42152	109217	0	0	8216	609782	0	0
2024-06-16 21:12:32			0	36595	0	0	0	24911	23840	141009	26915	1013829	42170	109206	0	0	8216	610722	0	0
2024-06-16 21:13:32			0	36556	0	0	0	24909	23810	141209	27209	1013679	42167	109205	0	0	8213	612458	0	0
2024-06-16 21:14:32			0	36530	0	0	0	24888	23780	141333	27183	1013601	42143	109197	0	0	8212	613652	0	0
2024-06-16 21:15:32			0	36436	0	0	0	24893	23770	141729	27261	1013548	42174	109199	0	0	8207	617641	0	0
2024-06-16 21:16:32			0	36397	0	0	0	24906	23740	141853	26870	1013452	42162	109204	0	0	8205	619391	0	0
2024-06-16 21:17:32			0	36326	0	0	0	24890	23720	142133	26804	1013418	42170	109198	0	0	8201	622466	0	0
2024-06-16 21:18:32			0	36274	0	0	0	24903	23700	142381	26696	1013384	42168	109203	0	0	8198	624743	0	0
2024-06-16 21:19:32			0	36241	0	0	0	24914	23700	142485	26863	1013490	42157	109207	0	0	8196	626147	0	0
2024-06-16 21:20:32			0	36186	0	0	0	24945	23700	142645	27175	1013544	42190	109219	0	0	8193	628491	0	0
2024-06-16 21:21:32			0	36165	0	0	0	24971	23700	142905	27024	1013552	42180	109229	0	0	8191	629388	0	0
2024-06-16 21:22:32			0	36126	0	0	0	24966	23690	143089	27072	1013482	42179	109227	0	0	8189	631091	0	0
2024-06-16 21:23:32			0	36087	0	0	0	24968	23680	143149	26908	1013518	42178	109228	0	0	8187	632798	0	0
2024-06-16 21:24:32			0	36056	0	0	0	24986	23680	143209	27156	1013483	42177	109235	0	0	8185	634128	0	0
2024-06-16 21:25:32			0	36063	0	0	0	24981	23690	143401	27043	1013447	42168	109233	0	0	8186	633792	0	0
2024-06-16 21:26:32			0	36045	0	0	0	24966	23670	143461	27064	1013252	42177	109227	0	0	8185	634637	0	0
2024-06-16 21:27:32			0	36023	0	0	0	24940	23650	143437	27265	1013146	42154	109217	0	0	8184	635654	0	0
2024-06-16 21:28:32			0	36004	0	0	0	24909	23630	143565	27275	1013165	42162	109205	0	0	8183	636544	0	0
2024-06-16 21:29:32			0	35988	0	0	0	24950	23630	143505	27102	1013432	42184	109221	0	0	8182	637233	0	0
2024-06-16 21:30:32			0	35989	0	0	0	25064	23660	143613	26873	1013715	42220	109265	0	0	8180	637083	0	0
2024-06-16 21:31:32			0	35973	0	0	0	25135	23690	143601	27008	1013856	42212	109292	0	0	8178	637665	0	0
2024-06-16 21:32:32			0	35965	0	0	0	25145	23710	143709	27403	1013828	42192	109296	0	0	8178	637938	0	0
2024-06-16 21:33:32			0	35959	0	0	0	25218	23750	143665	27291	1014137	42207	109324	0	0	8176	638053	0	0
2024-06-16 21:34:32			0	35953	0	0	0	25322	23770	143709	27066	1014350	42230	109364	0	0	8174	638240	0	0
2024-06-16 21:35:32			0	36005	0	0	0	25381	23800	143561	27331	1014570	42212	109387	0	0	8176	635892	0	0
2024-06-16 21:36:32			0	36038	0	0	0	25405	23830	143441	27286	1014675	42225	109396	0	0	8178	634366	0	0
2024-06-16 21:37:32			0	36024	0	0	0	25431	23850	143549	26710	1014763	42215	109406	0	0	8177	634896	0	0
2024-06-16 21:38:32			0	36006	0	0	0	25464	23880	143541	27086	1014859	42229	109419	0	0	8175	635562	0	0
2024-06-16 21:39:32			0	35998	0	0	0	25472	23890	143509	27093	1014965	42231	109422	0	0	8175	635871	0	0
2024-06-16 21:40:32			0	36025	0	0	0	25483	23910	143421	27086	1014964	42222	109426	0	0	8176	634638	0	0
2024-06-16 21:41:32			0	36048	0	0	0	25477	23930	143337	27000	1015114	42235	109424	0	0	8177	633579	0	0
2024-06-16 21:42:32			0	36098	0	0	0	25483	23950	143177	27223	1015095	42249	109426	0	0	8180	631365	0	0
2024-06-16 21:43:32			0	36127	0	0	0	25493	23960	143029	27333	1015184	42238	109430	0	0	8182	630090	0	0
2024-06-16 21:44:32			0	36152	0	0	0	25490	23980	142861	27268	1015138	42239	109429	0	0	8183	628951	0	0
2024-06-16 21:45:32			0	36194	0	0	0	25498	23980	142721	26922	1015227	42239	109432	0	0	8185	627160	0	0
2024-06-16 21:46:32			0	36234	0	0	0	25498	23990	142513	27121	1015289	42229	109432	0	0	8187	625422	0	0
2024-06-16 21:47:32			0	36254	0	0	0	25490	23990	142517	26913	1015315	42240	109429	0	0	8188	624572	0	0
2024-06-16 21:48:32			0	36294	0	0	0	25498	24010	142325	27256	1015385	42243	109432	0	0	8190	622805	0	0
2024-06-16 21:49:32			0	36298	0	0	0	25498	24010	142221	27109	1015278	42243	109432	0	0	8191	622635	0	0
2024-06-16 21:50:32			0	36329	0	0	0	25511	24020	142161	27180	1015429	42244	109437	0	0	8192	621288	0	0
2024-06-16 21:51:32			0	36329	0	0	0	25509	24030	142045	27069	1015384	42233	109436	0	0	8192	621253	0	0
2024-06-16 21:52:32			0	36366	0	0	0	25509	24050	141989	27237	1015410	42246	109436	0	0	8194	619619	0	0
2024-06-16 21:53:32			0	36394	0	0	0	25509	24050	141925	27364	1015436	42256	109436	0	0	8196	618437	0	0
2024-06-16 21:54:32			0	36411	0	0	0	25516	24050	141845	26875	1015436	42246	109439	0	0	8197	617720	0	0
2024-06-16 21:55:32			0	36420	0	0	0	25498	24060	141697	27111	1015454	42247	109432	0	0	8197	617306	0	0
2024-06-16 21:56:32			0	36440	0	0	0	25501	24050	141693	27116	1015365	42246	109433	0	0	8198	616499	0	0
2024-06-16 21:57:32			0	36494	0	0	0	25493	24070	141609	26935	1015418	42236	109430	0	0	8201	614160	0	0
2024-06-16 21:58:32			0	36491	0	0	0	25498	24070	141581	27039	1015400	42249	109432	0	0	8201	614286	0	0
2024-06-16 21:59:32			0	36494	0	0	0	25490	24070	141425	27358	1015444	42248	109429	0	0	8201	614160	0	0
2024-06-16 22:00:32			0	36528	0	0	0	25496	24050	141281	27237	1015445	42246	109431	0	0	8203	612803	0	0
2024-06-16 22:01:32			0	36549	0	0	0	25498	24070	141305	27090	1015471	42248	109432	0	0	8204	611854	0	0
2024-06-16 22:02:32			0	36582	0	0	0	25498	24070	141161	27256	1015480	42249	109432	0	0	8206	610474	0	0
2024-06-16 22:03:32			0	36616	0	0	0	25503	24080	141098	26870	1015515	42249	109434	0	0	8208	609019	0	0
2024-06-16 22:04:32			0	36628	0	0	0	25506	24090	141022	27170	1015612	42250	109435	0	0	8208	608484	0	0
2024-06-16 22:05:32			0	36635	0	0	0	25542	24090	140942	27230	1015648	42261	109449	0	0	8208	608192	0	0
2024-06-16 22:06:32			0	36655	0	0	0	25553	24110	140898	27092	1015780	42262	109453	0	0	8209	607290	0	0
2024-06-16 22:07:32			0	36690	0	0	0	25576	24120	140774	27064	1015833	42252	109462	0	0	8210	605800	0	0
2024-06-16 22:08:32			0	36721	0	0	0	25586	24120	140650	26840	1015806	42264	109466	0	0	8212	604512	0	0
2024-06-16 22:09:32			0	36728	0	0	0	25589	24130	140578	26765	1015850	42243	109467	0	0	8212	604187	0	0
2024-06-16 22:10:32			0	36751	0	0	0	25599	24140	140486	27098	1015859	42254	109471	0	0	8213	603199	0	0
2024-06-16 22:11:32			0	36777	0	0	0	25618	24150	140366	26767	1015884	42245	109478	0	0	8214	602088	0	0
2024-06-16 22:12:32			0	36772	0	0	0	25612	24160	140358	27081	1015920	42256	109476	0	0	8214	602261	0	0
2024-06-16 22:13:32			0	36796	0	0	0	25618	24160	140346	27055	1016000	42290	109478	0	0	8216	601268	0	0
2024-06-16 22:14:32			0	36795	0	0	0	25633	24170	140326	27076	1016044	42235	109484	0	0	8215	601275	0	0
2024-06-16 22:15:32			0	36761	0	0	0	25638	24180	140370	27185	1016007	42258	109486	0	0	8213	602649	0	0
2024-06-16 22:16:32			0	36741	0	0	0	25644	24190	140526	27234	1016078	42270	109488	0	0	8212	603443	0	0
2024-06-16 22:17:32			0	36711	0	0	0	25651	24190	140602	27176	1016140	42270	109491	0	0	8211	604688	0	0
2024-06-16 22:18:32			0	36650	0	0	0	25672	24200	140898	27320	1016184	42272	109499	0	0	8207	607190	0	0
2024-06-16 22:19:32			0	36609	0	0	0	25677	24210	140862	27267	1016228	42272	109501	0	0	8205	608865	0	0
2024-06-16 22:20:32			0	36599	0	0	0	25675	24220	141006	26967	1016210	42261	109500	0	0	8204	609247	0	0
2024-06-16 22:21:32			0	36560	0	0	0	25677	24220	141221	27131	1016272	42251	109501	0	0	8202	610876	0	0
2024-06-16 22:22:32			0	36528	0	0	0	25690	24230	141317	27242	1016236	42263	109506	0	0	8201	612181	0	0
2024-06-16 22:23:32			0	36498	0	0	0	25680	24230	141413	26967	1016254	42262	109502	0	0	8199	613438	0	0
2024-06-16 22:24:32			0	36475	0	0	0	25670	24230	141417	27010	1016227	42262	109498	0	0	8198	614403	0	0
2024-06-16 22:25:32			0	36443	0	0	0	25680	24240	141625	26928	1016244	42275	109502	0	0	8196	615712	0	0
2024-06-16 22:26:32			0	36420	0	0	0	25683	24240	141721	26738	1016244	42263	109503	0	0	8195	616679	0	0
2024-06-16 22:27:32			0	36399	0	0	0	25685	24250	141649	26993	1016297	42265	109504	0	0	8194	617529	0	0
2024-06-16 22:28:32			0	36395	0	0	0	25688	24250	141713	26805	1016342	42276	109505	0	0	8194	617697	0	0
2024-06-16 22:29:32			0	36379	0	0	0	25690	24250	141825	27067	1016297	42276	109506	0	0	8193	618371	0	0
2024-06-16 22:30:32			0	36340	0	0	0	25698	24260	141941	27017	1016332	42265	109509	0	0	8191	619982	0	0
2024-06-16 22:31:32			0	36344	0	0	0	25706	24280	141849	27178	1016455	42279	109512	0	0	8191	619743	0	0
2024-06-16 22:32:32			0	36348	0	0	0	25706	24260	141913	27211	1016421	42277	109512	0	0	8191	619644	0	0
2024-06-16 22:33:32			0	36321	0	0	0	25711	24290	141909	27102	1016491	42269	109514	0	0	8190	620680	0	0
2024-06-16 22:34:32			0	36317	0	0	0	25722	24290	142029	27204	1016419	42280	109518	0	0	8189	620849	0	0
2024-06-16 22:35:32			0	36314	0	0	0	25711	24300	142065	27114	1016490	42270	109514	0	0	8189	620941	0	0
2024-06-16 22:36:32			0	36323	0	0	0	25711	24290	142057	27067	1016464	42269	109514	0	0	8190	620595	0	0
2024-06-16 22:37:32			0	36306	0	0	0	25709	24300	142041	26944	1016508	42280	109513	0	0	8189	621279	0	0
2024-06-16 22:38:32			0	36299	0	0	0	25698	24290	142037	27438	1016410	42269	109509	0	0	8189	621610	0	0
2024-06-16 22:39:32			0	36305	0	0	0	25683	24280	142033	27248	1016375	42268	109503	0	0	8189	621391	0	0
2024-06-16 22:40:32			0	36314	0	0	0	25680	24270	142101	27315	1016349	42267	109502	0	0	8190	621046	0	0
2024-06-16 22:41:32			0	36326	0	0	0	25675	24280	142021	27171	1016313	42278	109500	0	0	8190	620504	0	0
2024-06-16 22:42:32			0	36346	0	0	0	25667	24260	141897	27057	1016252	42254	109497	0	0	8191	619729	0	0
2024-06-16 22:43:32			0	36352	0	0	0	25672	24260	141965	27310	1016305	42276	109499	0	0	8192	619475	0	0
2024-06-16 22:44:32			0	36355	0	0	0	25667	24270	141937	26781	1016304	42267	109497	0	0	8192	619314	0	0
2024-06-16 22:45:32			0	36346	0	0	0	25664	24260	141869	27026	1016279	42265	109496	0	0	8192	619729	0	0
2024-06-16 22:46:32			0	36369	0	0	0	25667	24260	141869	27230	1016332	42265	109497	0	0	8193	618758	0	0
2024-06-16 22:47:32			0	36371	0	0	0	25657	24260	141881	27277	1016252	42254	109493	0	0	8193	618674	0	0
2024-06-16 22:48:32			0	36384	0	0	0	25654	24260	141805	26764	1016279	42265	109492	0	0	8194	618126	0	0
2024-06-16 22:49:32			0	36375	0	0	0	25654	24250	141845	27062	1016235	42265	109492	0	0	8193	618540	0	0
2024-06-16 22:50:32			0	36384	0	0	0	25641	24240	141801	26857	1016199	42264	109487	0	0	8194	618196	0	0
2024-06-16 22:51:32			0	36428	0	0	0	25636	24240	141709	27293	1016173	42253	109485	0	0	8196	616343	0	0
2024-06-16 22:52:32			0	36421	0	0	0	25631	24230	141717	27064	1016200	42262	109483	0	0	8196	616672	0	0
2024-06-16 22:53:32			0	36437	0	0	0	25625	24230	141609	27081	1016156	42263	109481	0	0	8197	615999	0	0
2024-06-16 22:54:32			0	36439	0	0	0	25618	24230	141613	27111	1016147	42262	109478	0	0	8197	615915	0	0
2024-06-16 22:55:32			0	36462	0	0	0	25610	24220	141625	26816	1016050	42261	109475	0	0	8198	614983	0	0
2024-06-16 22:56:32			0	36483	0	0	0	25597	24220	141441	27034	1016076	42250	109470	0	0	8200	614102	0	0
2024-06-16 22:57:32			0	36490	0	0	0	25589	24210	141501	27105	1016032	42260	109467	0	0	8200	613842	0	0
2024-06-16 22:58:32			0	36497	0	0	0	25592	24200	141429	27015	1015997	42250	109468	0	0	8200	613583	0	0
2024-06-16 22:59:32			0	36497	0	0	0	25573	24200	141369	27223	1015997	42260	109461	0	0	8201	613583	0	0
2024-06-16 23:00:32			0	36495	0	0	0	25579	24200	141289	27012	1015970	42272	109463	0	0	8201	613668	0	0
2024-06-16 23:01:32			0	36533	0	0	0	25579	24190	141373	27109	1015927	42248	109463	0	0	8202	612110	0	0
2024-06-16 23:02:32			0	36546	0	0	0	25573	24180	141257	27244	1015936	42270	109461	0	0	8203	611600	0	0
2024-06-16 23:03:32			0	36541	0	0	0	25571	24190	141241	27313	1015918	42259	109460	0	0	8203	611775	0	0
2024-06-16 23:04:32			0	36535	0	0	0	25571	24180	141261	27119	1015962	42259	109460	0	0	8203	612060	0	0
2024-06-16 23:05:32			0	36562	0	0	0	25573	24180	141165	26987	1015927	42258	109461	0	0	8204	610931	0	0
2024-06-16 23:06:32			0	36549	0	0	0	25581	24180	141097	27085	1015927	42258	109464	0	0	8203	611474	0	0
2024-06-16 23:07:32			0	36570	0	0	0	25568	24170	141173	27055	1015919	42268	109459	0	0	8205	610631	0	0
2024-06-16 23:08:32			0	36557	0	0	0	25581	24190	141161	27248	1015998	42270	109464	0	0	8204	611105	0	0
2024-06-16 23:09:32			0	36563	0	0	0	25584	24180	141101	26942	1015989	42281	109465	0	0	8204	610889	0	0
2024-06-16 23:10:32			0	36560	0	0	0	25581	24180	141109	27206	1016007	42269	109464	0	0	8204	611014	0	0
2024-06-16 23:11:32			0	36563	0	0	0	25594	24180	141113	27223	1016016	42270	109469	0	0	8204	610889	0	0
2024-06-16 23:12:32			0	36577	0	0	0	25599	24180	141093	27152	1016034	42280	109471	0	0	8204	610304	0	0
2024-06-16 23:13:32			0	36580	0	0	0	25599	24180	141029	27171	1016043	42281	109471	0	0	8205	610178	0	0
2024-06-16 23:14:32			0	36577	0	0	0	25605	24190	141097	27232	1016078	42281	109473	0	0	8204	610269	0	0
2024-06-16 23:15:32			0	36576	0	0	0	25607	24190	141113	27383	1016052	42270	109474	0	0	8204	610311	0	0
2024-06-16 23:16:32			0	36560	0	0	0	25610	24190	141117	27232	1016033	42270	109475	0	0	8203	610980	0	0
2024-06-16 23:17:32			0	36556	0	0	0	25605	24190	141069	27258	1016007	42270	109473	0	0	8203	611147	0	0
2024-06-16 23:18:32			0	36549	0	0	0	25597	24180	141169	26981	1015962	42259	109470	0	0	8203	611474	0	0
2024-06-16 23:19:32			0	36559	0	0	0	25597	24180	141089	26816	1015954	42269	109470	0	0	8204	611056	0	0
2024-06-16 23:20:32			0	36569	0	0	0	25597	24180	141089	27149	1016016	42270	109470	0	0	8204	610638	0	0
2024-06-16 23:21:32			0	36590	0	0	0	25602	24190	141134	26909	1016033	42259	109472	0	0	8205	609726	0	0
2024-06-16 23:22:32			0	36559	0	0	0	25618	24190	141241	27222	1016078	42259	109478	0	0	8203	611022	0	0
2024-06-16 23:23:32			0	36565	0	0	0	25628	24190	141201	27225	1016167	42259	109482	0	0	8203	610771	0	0
2024-06-16 23:24:32			0	36580	0	0	0	25638	24200	141013	27098	1016077	42272	109486	0	0	8204	610109	0	0
2024-06-16 23:25:32			0	36583	0	0	0	25638	24210	141169	27180	1016139	42293	109486	0	0	8204	609950	0	0
2024-06-16 23:26:32			0	36543	0	0	0	25646	24220	141109	26998	1016183	42273	109489	0	0	8202	611588	0	0
2024-06-16 23:27:32			0	36574	0	0	0	25651	24220	141137	26764	1016237	42284	109491	0	0	8204	610291	0	0
2024-06-16 23:28:32			0	36547	0	0	0	25654	24210	141261	27034	1016175	42260	109492	0	0	8202	611455	0	0
2024-06-16 23:29:32			0	36572	0	0	0	25659	24220	141057	27135	1016245	42274	109494	0	0	8203	610375	0	0
2024-06-16 23:30:32			0	36563	0	0	0	25659	24220	141157	27012	1016183	42284	109494	0	0	8203	610751	0	0
2024-06-16 23:31:32			0	36553	0	0	0	25654	24230	141189	27197	1016236	42263	109492	0	0	8202	611135	0	0
2024-06-16 23:32:32			0	36558	0	0	0	25662	24230	141085	27246	1016227	42274	109495	0	0	8203	610926	0	0
2024-06-16 23:33:32			0	36588	0	0	0	25651	24230	141201	27154	1016254	42274	109491	0	0	8204	609672	0	0
2024-06-16 23:34:32			0	36563	0	0	0	25649	24230	141101	27307	1016156	42275	109490	0	0	8203	610717	0	0
2024-06-16 23:35:32			0	36557	0	0	0	25657	24230	141129	27303	1016209	42275	109493	0	0	8203	610967	0	0
2024-06-16 23:36:32			0	36557	0	0	0	25641	24230	141125	26837	1016174	42262	109487	0	0	8203	610967	0	0
2024-06-16 23:37:32			0	36573	0	0	0	25633	24220	141113	27351	1016165	42262	109484	0	0	8204	610333	0	0
2024-06-16 23:38:32			0	36562	0	0	0	25641	24220	141157	27301	1016138	42274	109487	0	0	8203	610793	0	0
2024-06-16 23:39:32			0	36579	0	0	0	25644	24230	141141	27163	1016147	42274	109488	0	0	8204	610048	0	0
2024-06-16 23:40:32			0	36568	0	0	0	25628	24220	141089	27135	1016103	42273	109482	0	0	8204	610542	0	0
2024-06-16 23:41:32			0	36564	0	0	0	25633	24220	141093	27043	1016130	42284	109484	0	0	8203	610709	0	0
2024-06-16 23:42:32			0	36574	0	0	0	25625	24210	141017	26963	1016086	42260	109481	0	0	8204	610326	0	0
2024-06-16 23:43:32			0	36565	0	0	0	25623	24220	141009	27000	1016076	42284	109480	0	0	8204	610667	0	0
2024-06-16 23:44:32			0	36581	0	0	0	25615	24210	140953	27105	1016006	42283	109477	0	0	8204	610033	0	0
2024-06-16 23:45:32			0	36598	0	0	0	25607	24210	140985	27229	1016121	42260	109474	0	0	8206	609324	0	0
2024-06-16 23:46:32			0	36573	0	0	0	25605	24200	140949	27112	1016015	42260	109473	0	0	8204	610402	0	0
2024-06-16 23:47:32			0	36568	0	0	0	25597	24200	140913	26757	1015962	42271	109470	0	0	8204	610611	0	0
2024-06-16 23:48:32			0	36592	0	0	0	25573	24190	140966	26941	1015980	42270	109461	0	0	8206	609643	0	0
2024-06-16 23:49:32			0	36578	0	0	0	25573	24190	141013	26913	1015945	42270	109461	0	0	8205	610228	0	0
2024-06-16 23:50:32			0	36574	0	0	0	25568	24180	141033	27086	1015874	42258	109459	0	0	8205	610429	0	0
2024-06-16 23:51:32			0	36597	0	0	0	25561	24180	141089	26885	1015882	42270	109456	0	0	8206	609468	0	0
2024-06-16 23:52:32			0	36598	0	0	0	25566	24160	141018	27176	1015848	42256	109458	0	0	8206	609495	0	0
2024-06-16 23:53:32			0	36595	0	0	0	25558	24170	140938	27041	1015830	42268	109455	0	0	8206	609586	0	0
2024-06-16 23:54:32			0	36598	0	0	0	25555	24160	140977	27116	1015848	42267	109454	0	0	8206	609495	0	0
2024-06-16 23:55:32			0	36592	0	0	0	25542	24160	141061	27081	1015821	42256	109449	0	0	8206	609746	0	0
2024-06-16 23:56:32			0	36590	0	0	0	25540	24150	140969	27306	1015831	42245	109448	0	0	8206	609864	0	0
2024-06-16 23:57:32			0	36604	0	0	0	25540	24150	141034	26935	1015742	42266	109448	0	0	8207	609279	0	0
2024-06-16 23:58:32			0	36600	0	0	0	25550	24150	140930	27260	1015751	42266	109452	0	0	8206	609446	0	0
2024-06-16 23:59:32			0	36599	0	0	0	25532	24150	140998	27282	1015742	42266	109445	0	0	8207	609488	0	0
2024-06-17 00:00:32			0	36589	0	0	0	25540	24150	141041	27393	1015769	42266	109448	0	0	8206	609906	0	0
2024-06-17 00:01:32			0	36609	0	0	0	25537	24140	140962	26968	1015725	42265	109447	0	0	8207	609105	0	0
2024-06-17 00:02:32			0	36589	0	0	0	25532	24140	140893	27312	1015733	42254	109445	0	0	8206	609940	0	0
2024-06-17 00:03:32			0	36606	0	0	0	25527	24140	140970	27121	1015725	42254	109443	0	0	8207	609230	0	0
2024-06-17 00:04:32			0	36625	0	0	0	25535	24120	140866	27079	1015779	42264	109446	0	0	8208	608506	0	0
2024-06-17 00:05:32			0	36617	0	0	0	25516	24130	140918	27055	1015743	42264	109439	0	0	8208	608806	0	0
2024-06-17 00:06:32			0	36637	0	0	0	25519	24130	140906	27199	1015654	42252	109440	0	0	8209	607972	0	0
2024-06-17 00:07:32			0	36620	0	0	0	25514	24130	140918	27175	1015654	42252	109438	0	0	8208	608681	0	0
2024-06-17 00:08:32			0	36623	0	0	0	25516	24120	140862	27116	1015717	42264	109439	0	0	8208	608590	0	0
2024-06-17 00:09:32			0	36627	0	0	0	25516	24120	140902	27109	1015664	42275	109439	0	0	8208	608423	0	0
2024-06-17 00:10:32			0	36628	0	0	0	25519	24110	140878	27079	1015655	42251	109440	0	0	8208	608416	0	0
2024-06-17 00:11:32			0	36656	0	0	0	25509	24110	140874	27199	1015602	42263	109436	0	0	8210	607249	0	0
2024-06-17 00:12:32			0	36632	0	0	0	25511	24110	140854	27086	1015682	42263	109437	0	0	8208	608249	0	0
2024-06-17 00:13:32			0	36637	0	0	0	25511	24110	140854	27157	1015629	42263	109437	0	0	8209	608040	0	0
2024-06-17 00:14:32			0	36634	0	0	0	25509	24100	140902	27052	1015531	42273	109436	0	0	8209	608200	0	0
2024-06-17 00:15:32			0	36656	0	0	0	25493	24100	140902	27178	1015531	42273	109430	0	0	8210	607283	0	0
2024-06-17 00:16:32			0	36649	0	0	0	25493	24110	140898	27256	1015566	42250	109430	0	0	8210	607540	0	0
2024-06-17 00:17:32			0	36641	0	0	0	25493	24090	140850	26953	1015514	42272	109430	0	0	8209	607942	0	0
2024-06-17 00:18:32			0	36629	0	0	0	25493	24100	140894	27142	1015576	42261	109430	0	0	8209	608408	0	0
2024-06-17 00:19:32			0	36659	0	0	0	25488	24090	140774	26887	1015567	42239	109428	0	0	8210	607192	0	0
2024-06-17 00:20:32			0	36654	0	0	0	25496	24090	140794	27246	1015541	42261	109431	0	0	8210	607401	0	0
2024-06-17 00:21:32			0	36659	0	0	0	25496	24090	140754	26894	1015514	42261	109431	0	0	8210	607192	0	0
2024-06-17 00:22:32			0	36663	0	0	0	25483	24080	140762	26923	1015550	42271	109426	0	0	8210	607060	0	0
2024-06-17 00:23:32			0	36656	0	0	0	25480	24090	140726	27142	1015505	42260	109425	0	0	8210	607317	0	0
2024-06-17 00:24:32			0	36669	0	0	0	25488	24080	140754	27239	1015497	42250	109428	0	0	8211	606810	0	0
2024-06-17 00:25:32			0	36676	0	0	0	25475	24080	140714	27194	1015524	42250	109423	0	0	8211	606519	0	0
2024-06-17 00:26:32			0	36666	0	0	0	25485	24070	140706	27177	1015453	42259	109427	0	0	8211	606969	0	0
2024-06-17 00:27:32			0	36692	0	0	0	25483	24070	140678	26909	1015506	42270	109426	0	0	8212	605887	0	0
2024-06-17 00:28:32			0	36690	0	0	0	25485	24080	140698	27126	1015524	42250	109427	0	0	8212	605937	0	0
2024-06-17 00:29:32			0	36655	0	0	0	25501	24070	140758	26847	1015506	42259	109433	0	0	8210	607428	0	0
2024-06-17 00:30:32			0	36677	0	0	0	25488	24080	140742	27109	1015542	42259	109428	0	0	8211	606477	0	0
2024-06-17 00:31:32			0	36685	0	0	0	25488	24080	140714	27090	1015577	42250	109428	0	0	8212	606144	0	0
2024-06-17 00:32:32			0	36696	0	0	0	25496	24080	140662	27138	1015550	42282	109431	0	0	8212	605687	0	0
2024-06-17 00:33:32			0	36698	0	0	0	25485	24070	140694	27334	1015480	42259	109427	0	0	8212	605638	0	0
2024-06-17 00:34:32			0	36692	0	0	0	25485	24070	140690	27074	1015525	42269	109427	0	0	8212	605887	0	0
2024-06-17 00:35:32			0	36689	0	0	0	25490	24080	140654	27168	1015550	42282	109429	0	0	8212	605978	0	0
2024-06-17 00:36:32			0	36720	0	0	0	25496	24080	140650	27034	1015524	42260	109431	0	0	8213	604690	0	0
2024-06-17 00:37:32			0	36688	0	0	0	25496	24080	140650	27265	1015524	42271	109431	0	0	8212	606020	0	0
2024-06-17 00:38:32			0	36703	0	0	0	25506	24070	140610	27201	1015506	42270	109435	0	0	8212	605430	0	0
2024-06-17 00:39:32			0	36720	0	0	0	25490	24080	140526	27114	1015577	42260	109429	0	0	8213	604690	0	0
2024-06-17 00:40:32			0	36724	0	0	0	25498	24080	140570	27315	1015462	42259	109432	0	0	8213	604524	0	0
2024-06-17 00:41:32			0	36718	0	0	0	25498	24080	140458	27270	1015568	42259	109432	0	0	8213	604773	0	0
2024-06-17 00:42:32			0	36745	0	0	0	25493	24080	140462	27176	1015550	42250	109430	0	0	8215	603652	0	0
2024-06-17 00:43:32			0	36738	0	0	0	25488	24090	140438	27222	1015559	42271	109428	0	0	8214	603909	0	0
2024-06-17 00:44:32			0	36725	0	0	0	25490	24080	140378	27060	1015524	42271	109429	0	0	8214	604482	0	0
2024-06-17 00:45:32			0	36747	0	0	0	25493	24080	140414	27251	1015577	42260	109430	0	0	8215	603569	0	0
2024-06-17 00:46:32			0	36756	0	0	0	25490	24070	140378	26922	1015533	42259	109429	0	0	8215	603230	0	0
2024-06-17 00:47:32			0	36762	0	0	0	25490	24080	140326	27163	1015550	42260	109429	0	0	8216	602947	0	0
2024-06-17 00:48:32			0	36761	0	0	0	25488	24090	140314	27104	1015505	42260	109428	0	0	8216	602955	0	0
2024-06-17 00:49:32			0	36778	0	0	0	25488	24090	140402	26807	1015559	42250	109428	0	0	8216	602250	0	0
2024-06-17 00:50:32			0	36775	0	0	0	25488	24080	140386	27253	1015568	42259	109428	0	0	8216	602409	0	0
2024-06-17 00:51:32			0	36788	0	0	0	25485	24080	140238	26897	1015604	42260	109427	0	0	8217	601870	0	0
2024-06-17 00:52:32			0	36791	0	0	0	25485	24080	140338	26864	1015515	42270	109427	0	0	8217	601746	0	0
2024-06-17 00:53:32			0	36783	0	0	0	25485	24080	140266	27059	1015435	42259	109427	0	0	8217	602077	0	0
2024-06-17 00:54:32			0	36789	0	0	0	25485	24070	140270	27074	1015453	42270	109427	0	0	8217	601863	0	0
2024-06-17 00:55:32			0	36811	0	0	0	25485	24080	140250	27308	1015470	42271	109427	0	0	8218	600919	0	0
2024-06-17 00:56:32			0	36805	0	0	0	25488	24070	140206	27039	1015480	42259	109428	0	0	8218	601201	0	0
2024-06-17 00:57:32			0	36818	0	0	0	25485	24070	140142	27237	1015444	42269	109427	0	0	8219	600663	0	0
2024-06-17 00:58:32			0	36839	0	0	0	25475	24070	140198	26998	1015453	42259	109423	0	0	8220	599795	0	0
2024-06-17 00:59:32			0	36843	0	0	0	25472	24080	140134	27045	1015381	42259	109422	0	0	8220	599596	0	0
2024-06-17 01:00:32			0	36872	0	0	0	25477	24060	140062	27232	1015347	42257	109424	0	0	8221	598467	0	0
2024-06-17 01:01:32			0	36868	0	0	0	25470	24070	140014	26861	1015391	42258	109421	0	0	8221	598599	0	0
2024-06-17 01:02:32			0	36868	0	0	0	25464	24060	140010	26991	1015409	42258	109419	0	0	8221	598632	0	0
2024-06-17 01:03:32			0	36866	0	0	0	25464	24050	140086	27020	1015392	42246	109419	0	0	8221	598749	0	0
2024-06-17 01:04:32			0	36892	0	0	0	25462	24070	140010	26592	1015418	42258	109418	0	0	8223	597609	0	0
2024-06-17 01:05:32			0	36904	0	0	0	25464	24050	139906	26916	1015445	42246	109419	0	0	8223	597182	0	0
2024-06-17 01:06:32			0	36907	0	0	0	25467	24050	139942	26953	1015365	42267	109420	0	0	8223	597059	0	0
2024-06-17 01:07:32			0	36903	0	0	0	25464	24050	139950	26972	1015445	42256	109419	0	0	8223	597224	0	0
2024-06-17 01:08:32			0	36889	0	0	0	25467	24060	139882	27263	1015436	42281	109420	0	0	8222	597767	0	0
2024-06-17 01:09:32			0	36951	0	0	0	25467	24060	139942	27008	1015454	42257	109420	0	0	8226	595215	0	0
2024-06-17 01:10:32			0	36915	0	0	0	25464	24050	139886	27164	1015436	42279	109419	0	0	8224	596729	0	0
2024-06-17 01:11:32			0	36924	0	0	0	25459	24060	139894	27013	1015489	42258	109417	0	0	8224	596326	0	0
2024-06-17 01:12:32			0	36946	0	0	0	25462	24050	139866	27092	1015392	42246	109418	0	0	8226	595454	0	0
2024-06-17 01:13:32			0	36933	0	0	0	25462	24050	139838	27123	1015392	42267	109418	0	0	8225	595989	0	0
2024-06-17 01:14:32			0	36925	0	0	0	25467	24050	139726	26793	1015445	42267	109420	0	0	8224	596318	0	0
2024-06-17 01:15:32			0	36921	0	0	0	25462	24050	139782	27088	1015383	42256	109418	0	0	8224	596482	0	0
2024-06-17 01:16:32			0	36934	0	0	0	25464	24050	139814	27180	1015392	42256	109419	0	0	8225	595948	0	0
2024-06-17 01:17:32			0	36920	0	0	0	25462	24060	139798	27015	1015454	42257	109418	0	0	8224	596490	0	0
2024-06-17 01:18:32			0	36930	0	0	0	25462	24060	139686	26864	1015427	42257	109418	0	0	8225	596079	0	0
2024-06-17 01:19:32			0	36929	0	0	0	25459	24050	139838	26889	1015436	42256	109417	0	0	8225	596153	0	0
2024-06-17 01:20:32			0	36921	0	0	0	25459	24060	139818	27197	1015373	42268	109417	0	0	8224	596449	0	0
2024-06-17 01:21:32			0	36938	0	0	0	25457	24050	139846	27255	1015383	42256	109416	0	0	8225	595783	0	0
2024-06-17 01:22:32			0	36917	0	0	0	25457	24050	139742	27131	1015392	42256	109416	0	0	8224	596647	0	0
2024-06-17 01:23:32			0	36911	0	0	0	25449	24060	139902	27034	1015373	42257	109413	0	0	8224	596861	0	0
2024-06-17 01:24:32			0	36919	0	0	0	25449	24050	139818	27081	1015356	42267	109413	0	0	8224	596565	0	0
2024-06-17 01:25:32			0	36894	0	0	0	25454	24030	139902	27157	1015393	42255	109415	0	0	8223	597662	0	0
2024-06-17 01:26:32			0	36903	0	0	0	25454	24030	139954	27177	1015277	42244	109415	0	0	8223	597291	0	0
2024-06-17 01:27:32			0	36898	0	0	0	25441	24040	139966	27279	1015348	42246	109410	0	0	8223	597463	0	0
2024-06-17 01:28:32			0	36887	0	0	0	25449	24030	140022	27170	1015304	42244	109413	0	0	8223	597950	0	0
2024-06-17 01:29:32			0	36885	0	0	0	25444	24030	139990	27358	1015339	42267	109411	0	0	8223	598033	0	0
2024-06-17 01:30:32			0	36885	0	0	0	25451	24040	139898	27305	1015321	42256	109414	0	0	8222	597999	0	0
2024-06-17 01:31:32			0	36879	0	0	0	25444	24030	140046	27386	1015277	42244	109411	0	0	8222	598280	0	0
2024-06-17 01:32:32			0	36838	0	0	0	25441	24030	139970	26987	1015286	42255	109410	0	0	8220	599972	0	0
2024-06-17 01:33:32			0	36854	0	0	0	25438	24020	140062	27066	1015295	42244	109409	0	0	8221	599345	0	0
2024-06-17 01:34:32			0	36855	0	0	0	25433	24020	140082	27348	1015215	42254	109407	0	0	8221	599304	0	0
2024-06-17 01:35:32			0	36841	0	0	0	25420	24020	140026	27145	1015215	42254	109402	0	0	8221	599882	0	0
2024-06-17 01:36:32			0	36817	0	0	0	25420	24020	140118	27324	1015180	42253	109402	0	0	8219	600874	0	0
2024-06-17 01:37:32			0	36820	0	0	0	25418	24010	140182	27003	1015189	42253	109401	0	0	8219	600784	0	0
2024-06-17 01:38:32			0	36815	0	0	0	25412	24010	140134	27111	1015171	42253	109399	0	0	8219	600991	0	0
2024-06-17 01:39:32			0	36804	0	0	0	25402	24010	140206	27293	1015198	42253	109395	0	0	8219	601446	0	0
2024-06-17 01:40:32			0	36798	0	0	0	25402	24010	140174	27206	1015163	42253	109395	0	0	8219	601694	0	0
2024-06-17 01:41:32			0	36799	0	0	0	25402	23990	140270	27201	1015128	42251	109395	0	0	8219	601720	0	0
2024-06-17 01:42:32			0	36791	0	0	0	25392	24000	140366	27225	1015092	42263	109391	0	0	8218	602018	0	0
2024-06-17 01:43:32			0	36776	0	0	0	25386	24000	140426	27469	1015172	42241	109389	0	0	8218	602639	0	0
2024-06-17 01:44:32			0	36782	0	0	0	25384	23990	140394	27218	1015128	42240	109388	0	0	8218	602424	0	0
2024-06-17 01:45:32			0	36787	0	0	0	25386	23980	140534	27343	1015040	42250	109389	0	0	8218	602251	0	0
2024-06-17 01:46:32			0	36756	0	0	0	25379	23980	140450	27505	1015085	42250	109386	0	0	8217	603536	0	0
2024-06-17 01:47:32			0	36765	0	0	0	25374	23980	140510	27092	1015066	42239	109384	0	0	8217	603163	0	0
2024-06-17 01:48:32			0	36770	0	0	0	25376	23970	140466	27360	1014969	42250	109385	0	0	8217	602990	0	0
2024-06-17 01:49:32			0	36744	0	0	0	25371	23970	140514	27078	1015076	42261	109383	0	0	8216	604068	0	0
2024-06-17 01:50:32			0	36758	0	0	0	25366	23960	140550	27216	1014979	42249	109381	0	0	8217	603521	0	0
2024-06-17 01:51:32			0	36750	0	0	0	25368	23980	140562	27171	1015031	42250	109382	0	0	8217	603785	0	0
2024-06-17 01:52:32			0	36736	0	0	0	25374	23970	140538	27187	1015041	42239	109384	0	0	8216	604400	0	0
2024-06-17 01:53:32			0	36727	0	0	0	25376	23970	140678	27052	1014969	42239	109385	0	0	8215	604774	0	0
2024-06-17 01:54:32			0	36711	0	0	0	25361	23960	140578	26809	1014925	42238	109379	0	0	8215	605473	0	0
2024-06-17 01:55:32			0	36717	0	0	0	25358	23960	140650	27038	1014997	42249	109378	0	0	8215	605224	0	0
2024-06-17 01:56:32			0	36721	0	0	0	25353	23960	140602	26994	1014979	42249	109376	0	0	8215	605058	0	0
2024-06-17 01:57:32			0	36705	0	0	0	25355	23950	140662	27268	1014961	42259	109377	0	0	8214	605757	0	0
2024-06-17 01:58:32			0	36713	0	0	0	25350	23960	140694	26958	1014917	42249	109375	0	0	8215	605390	0	0
2024-06-17 01:59:32			0	36718	0	0	0	25348	23950	140702	27196	1014873	42248	109374	0	0	8215	605216	0	0
2024-06-17 02:00:32			0	36700	0	0	0	25340	23960	140766	26920	1014917	42249	109371	0	0	8214	605931	0	0
2024-06-17 02:01:32			0	36707	0	0	0	25345	23960	140790	27275	1014890	42259	109373	0	0	8215	605639	0	0
2024-06-17 02:02:32			0	36700	0	0	0	25345	23940	140730	27107	1014837	42257	109373	0	0	8214	605999	0	0
2024-06-17 02:03:32			0	36702	0	0	0	25340	23930	140790	27166	1014820	42246	109371	0	0	8214	605950	0	0
2024-06-17 02:04:32			0	36686	0	0	0	25329	23930	140822	27000	1014873	42256	109367	0	0	8214	606616	0	0
2024-06-17 02:05:32			0	36691	0	0	0	25332	23940	140778	27107	1014882	42236	109368	0	0	8214	606373	0	0
2024-06-17 02:06:32			0	36687	0	0	0	25322	23930	140750	27229	1014793	42235	109364	0	0	8214	606574	0	0
2024-06-17 02:07:32			0	36692	0	0	0	25314	23920	140802	27203	1014723	42234	109361	0	0	8214	606400	0	0
2024-06-17 02:08:32			0	36688	0	0	0	25303	23910	140762	27281	1014679	42244	109357	0	0	8214	606601	0	0
2024-06-17 02:09:32			0	36700	0	0	0	25280	23910	140722	27163	1014625	42255	109348	0	0	8215	606101	0	0
2024-06-17 02:10:32			0	36691	0	0	0	25280	23910	140774	27076	1014643	42222	109348	0	0	8215	606476	0	0
2024-06-17 02:11:32			0	36694	0	0	0	25262	23900	140718	27095	1014608	42221	109341	0	0	8215	606385	0	0
2024-06-17 02:12:32			0	36693	0	0	0	25267	23900	140902	27197	1014626	42242	109343	0	0	8215	606427	0	0
2024-06-17 02:13:32			0	36689	0	0	0	25275	23890	140822	26908	1014582	42242	109346	0	0	8215	606628	0	0
2024-06-17 02:14:32			0	36691	0	0	0	25270	23890	140814	27142	1014609	42253	109344	0	0	8215	606544	0	0
2024-06-17 02:15:32			0	36682	0	0	0	25275	23890	140894	26840	1014556	42253	109346	0	0	8214	606919	0	0
2024-06-17 02:16:32			0	36687	0	0	0	25275	23890	140846	27039	1014556	42242	109346	0	0	8214	606711	0	0
2024-06-17 02:17:32			0	36684	0	0	0	25275	23880	140830	27176	1014592	42241	109346	0	0	8214	606870	0	0
2024-06-17 02:18:32			0	36705	0	0	0	25280	23880	140826	27300	1014565	42251	109348	0	0	8215	605996	0	0
2024-06-17 02:19:32			0	36689	0	0	0	25280	23880	140798	27105	1014601	42252	109348	0	0	8214	606662	0	0
2024-06-17 02:20:32			0	36695	0	0	0	25288	23880	140826	27104	1014574	42230	109351	0	0	8215	606412	0	0
2024-06-17 02:21:32			0	36703	0	0	0	25285	23890	140802	26918	1014609	42242	109350	0	0	8215	606045	0	0
2024-06-17 02:22:32			0	36686	0	0	0	25288	23890	140874	26977	1014609	42231	109351	0	0	8214	606752	0	0
2024-06-17 02:23:32			0	36679	0	0	0	25293	23890	140670	26955	1014636	42231	109353	0	0	8214	607044	0	0
2024-06-17 02:24:32			0	36688	0	0	0	25290	23890	140886	27057	1014663	42242	109352	0	0	8214	606669	0	0
2024-06-17 02:25:32			0	36692	0	0	0	25296	23890	140790	27052	1014636	42242	109354	0	0	8214	606503	0	0
2024-06-17 02:26:32			0	36686	0	0	0	25293	23890	140846	27170	1014671	42253	109353	0	0	8214	606752	0	0
2024-06-17 02:27:32			0	36706	0	0	0	25301	23890	140766	27083	1014716	42253	109356	0	0	8215	605920	0	0
2024-06-17 02:28:32			0	36712	0	0	0	25311	23890	140682	27024	1014716	42253	109360	0	0	8215	605670	0	0
2024-06-17 02:29:32			0	36721	0	0	0	25309	23890	140638	26844	1014689	42242	109359	0	0	8216	605296	0	0
2024-06-17 02:30:32			0	36725	0	0	0	25309	23890	140694	27027	1014751	42242	109359	0	0	8216	605130	0	0
2024-06-17 02:31:32			0	36745	0	0	0	25306	23890	140530	27041	1014751	42253	109358	0	0	8217	604299	0	0
2024-06-17 02:32:32			0	36740	0	0	0	25303	23890	140602	26928	1014778	42242	109357	0	0	8217	604507	0	0
2024-06-17 02:33:32			0	36763	0	0	0	25311	23900	140558	26994	1014742	42243	109360	0	0	8218	603518	0	0
2024-06-17 02:34:32			0	36798	0	0	0	25309	23890	140450	27196	1014770	42242	109359	0	0	8220	602101	0	0
2024-06-17 02:35:32			0	36821	0	0	0	25316	23890	140374	27100	1014671	42242	109362	0	0	8221	601149	0	0
2024-06-17 02:36:32			0	36840	0	0	0	25309	23900	140194	27164	1014706	42264	109359	0	0	8222	600329	0	0
2024-06-17 02:37:32			0	36863	0	0	0	25311	23900	140210	26635	1014742	42243	109360	0	0	8223	599379	0	0
2024-06-17 02:38:32			0	36894	0	0	0	25303	23890	140054	27156	1014663	42242	109357	0	0	8225	598133	0	0
2024-06-17 02:39:32			0	36894	0	0	0	25306	23890	140022	27001	1014671	42242	109358	0	0	8225	598133	0	0
2024-06-17 02:40:32			0	36914	0	0	0	25311	23900	139918	27022	1014742	42243	109360	0	0	8226	597275	0	0
2024-06-17 02:41:32			0	36934	0	0	0	25303	23890	140002	26804	1014671	42231	109357	0	0	8227	596486	0	0
2024-06-17 02:42:32			0	36964	0	0	0	25309	23890	139882	27284	1014698	42231	109359	0	0	8228	595252	0	0
2024-06-17 02:43:32			0	36957	0	0	0	25293	23900	139774	26906	1014715	42243	109353	0	0	8228	595506	0	0
2024-06-17 02:44:32			0	36970	0	0	0	25298	23890	139714	27055	1014609	42242	109355	0	0	8229	595005	0	0
2024-06-17 02:45:32			0	36990	0	0	0	25293	23890	139766	27059	1014671	42242	109353	0	0	8230	594184	0	0
2024-06-17 02:46:32			0	36985	0	0	0	25303	23890	139634	26689	1014564	42231	109357	0	0	8230	594389	0	0
2024-06-17 02:47:32			0	37030	0	0	0	25290	23900	139622	27027	1014519	42242	109352	0	0	8232	592510	0	0
2024-06-17 02:48:32			0	37043	0	0	0	25280	23880	139570	27213	1014574	42252	109348	0	0	8233	592044	0	0
2024-06-17 02:49:32			0	37053	0	0	0	25288	23880	139506	26738	1014627	42242	109351	0	0	8233	591634	0	0
2024-06-17 02:50:32			0	37079	0	0	0	25288	23890	139462	27133	1014591	42231	109351	0	0	8235	590537	0	0
2024-06-17 02:51:32			0	37077	0	0	0	25275	23880	139430	27196	1014601	42230	109346	0	0	8235	590652	0	0
2024-06-17 02:52:32			0	37091	0	0	0	25280	23880	139382	27150	1014601	42252	109348	0	0	8235	590080	0	0
2024-06-17 02:53:32			0	37105	0	0	0	25283	23880	139378	27048	1014592	42229	109349	0	0	8236	589508	0	0
2024-06-17 02:54:32			0	37120	0	0	0	25277	23880	139318	27045	1014672	42251	109347	0	0	8237	588896	0	0
2024-06-17 02:55:32			0	37119	0	0	0	25272	23880	139178	27144	1014592	42251	109345	0	0	8237	588937	0	0
2024-06-17 02:56:32			0	37139	0	0	0	25270	23870	139170	27244	1014548	42241	109344	0	0	8238	588154	0	0
2024-06-17 02:57:32			0	37167	0	0	0	25267	23870	139114	27066	1014503	42229	109343	0	0	8240	587013	0	0
2024-06-17 02:58:32			0	37173	0	0	0	25267	23870	139090	27235	1014530	42241	109343	0	0	8240	586769	0	0
2024-06-17 02:59:32			0	37170	0	0	0	25262	23870	139038	27147	1014477	42241	109341	0	0	8240	586891	0	0
2024-06-17 03:00:32			0	37195	0	0	0	25254	23860	138954	26963	1014451	42250	109338	0	0	8241	585906	0	0
2024-06-17 03:01:32			0	37194	0	0	0	25244	23860	138926	26809	1014424	42250	109334	0	0	8241	585947	0	0
2024-06-17 03:02:32			0	37218	0	0	0	25236	23850	138954	26849	1014442	42238	109331	0	0	8243	585004	0	0
2024-06-17 03:03:32			0	37230	0	0	0	25225	23850	138838	27128	1014380	42227	109327	0	0	8243	584517	0	0
2024-06-17 03:04:32			0	37236	0	0	0	25218	23840	138754	27010	1014363	42226	109324	0	0	8244	584306	0	0
2024-06-17 03:05:32			0	37241	0	0	0	25205	23840	138786	27074	1014372	42249	109319	0	0	8244	584103	0	0
2024-06-17 03:06:32			0	37261	0	0	0	25202	23840	138798	27124	1014345	42238	109318	0	0	8245	583292	0	0
2024-06-17 03:07:32			0	37262	0	0	0	25197	23820	138774	26975	1014337	42236	109316	0	0	8246	583317	0	0
2024-06-17 03:08:32			0	37255	0	0	0	25199	23840	138738	27114	1014363	42237	109317	0	0	8245	583535	0	0
2024-06-17 03:09:32			0	37260	0	0	0	25197	23820	138742	26882	1014311	42236	109316	0	0	8245	583398	0	0
2024-06-17 03:10:32			0	37264	0	0	0	25181	23820	138822	26908	1014231	42213	109310	0	0	8246	583236	0	0
2024-06-17 03:11:32			0	37271	0	0	0	25163	23820	138766	27107	1014115	42224	109303	0	0	8247	582952	0	0
2024-06-17 03:12:32			0	37256	0	0	0	25124	23800	138750	27007	1013974	42222	109288	0	0	8246	583626	0	0
2024-06-17 03:13:32			0	37243	0	0	0	25093	23770	138786	27041	1013824	42198	109276	0	0	8246	584252	0	0
2024-06-17 03:14:32			0	37283	0	0	0	25067	23740	138742	26838	1013693	42206	109266	0	0	8248	582728	0	0
2024-06-17 03:15:32			0	37269	0	0	0	25020	23720	138646	27192	1013587	42182	109248	0	0	8248	583361	0	0
2024-06-17 03:16:32			0	37286	0	0	0	24976	23690	138590	27296	1013348	42190	109231	0	0	8250	582771	0	0
2024-06-17 03:17:32			0	37292	0	0	0	24929	23670	138682	26909	1013145	42188	109213	0	0	8251	582593	0	0
2024-06-17 03:18:32			0	37295	0	0	0	24872	23630	138778	27265	1012890	42184	109191	0	0	8252	582602	0	0
2024-06-17 03:19:32			0	37204	0	0	0	24825	23590	139014	27142	1012643	42147	109173	0	0	8248	586431	0	0
2024-06-17 03:20:32			0	37053	0	0	0	24776	23550	139578	27216	1012493	42166	109154	0	0	8241	592734	0	0
2024-06-17 03:21:32			0	36875	0	0	0	24711	23500	140306	27060	1012221	42139	109129	0	0	8232	600233	0	0
2024-06-17 03:22:32			0	36642	0	0	0	24651	23460	141110	27111	1011984	42124	109106	0	0	8221	610061	0	0
2024-06-17 03:23:32			0	36393	0	0	0	24602	23410	141985	27190	1011782	42131	109087	0	0	8208	620711	0	0
2024-06-17 03:24:32			0	36196	0	0	0	24542	23370	142921	26925	1011633	42117	109064	0	0	8199	629231	0	0
2024-06-17 03:25:32			0	35984	0	0	0	24503	23330	143653	27007	1011449	42124	109049	0	0	8188	638481	0	0
2024-06-17 03:26:32			0	35807	0	0	0	24464	23300	144428	26934	1011371	42153	109034	0	0	8179	646267	0	0
2024-06-17 03:27:32			0	35665	0	0	0	24436	23260	145028	26965	1011204	42128	109023	0	0	8172	652621	0	0
2024-06-17 03:28:32			0	35505	0	0	0	24402	23230	145676	27286	1011020	42125	109010	0	0	8163	659779	0	0
2024-06-17 03:29:32			0	35395	0	0	0	24371	23210	146024	27237	1010924	42122	108998	0	0	8158	664732	0	0
2024-06-17 03:30:32			0	35290	0	0	0	24363	23180	146544	27227	1010907	42131	108995	0	0	8152	669526	0	0
2024-06-17 03:31:32			0	35242	0	0	0	24350	23150	146852	27142	1010838	42129	108990	0	0	8150	671787	0	0
2024-06-17 03:32:32			0	35184	0	0	0	24327	23140	147044	27306	1010759	42126	108981	0	0	8147	674428	0	0
2024-06-17 03:33:32			0	35126	0	0	0	24322	23110	147260	27244	1010681	42125	108979	0	0	8144	677153	0	0
2024-06-17 03:34:32			0	35113	0	0	0	24314	23100	147352	27086	1010672	42113	108976	0	0	8143	677778	0	0
2024-06-17 03:35:32			0	35088	0	0	0	24314	23090	147499	27069	1010602	42134	108976	0	0	8142	678944	0	0
2024-06-17 03:36:32			0	35086	0	0	0	24316	23070	147547	27171	1010648	42132	108977	0	0	8142	679111	0	0
2024-06-17 03:37:32			0	35069	0	0	0	24324	23060	147571	27086	1010568	42130	108980	0	0	8140	679918	0	0
2024-06-17 03:38:32			0	35070	0	0	0	24314	23040	147631	26967	1010508	42128	108976	0	0	8141	679949	0	0
2024-06-17 03:39:32			0	35049	0	0	0	24311	23040	147831	26994	1010481	42128	108975	0	0	8139	680899	0	0
2024-06-17 03:40:32			0	35018	0	0	0	24303	23020	147739	27213	1010340	42126	108972	0	0	8138	682380	0	0
2024-06-17 03:41:32			0	35026	0	0	0	24288	23000	147831	27012	1010368	42103	108966	0	0	8138	682094	0	0
2024-06-17 03:42:32			0	35007	0	0	0	24283	22990	147939	27267	1010262	42125	108964	0	0	8137	682994	0	0
2024-06-17 03:43:32			0	35005	0	0	0	24277	22970	147887	27154	1010175	42123	108962	0	0	8137	683162	0	0
2024-06-17 03:44:32			0	35015	0	0	0	24259	22960	147931	27346	1010131	42110	108955	0	0	8138	682746	0	0
2024-06-17 03:45:32			0	34996	0	0	0	24249	22940	148031	27213	1010105	42109	108951	0	0	8137	683685	0	0
2024-06-17 03:46:32			0	34981	0	0	0	24241	22920	148023	27414	1009964	42107	108948	0	0	8136	684444	0	0
2024-06-17 03:47:32			0	34997	0	0	0	24238	22920	148079	26918	1010017	42128	108947	0	0	8137	683716	0	0
2024-06-17 03:48:32			0	34990	0	0	0	24238	22920	148071	27085	1010062	42106	108947	0	0	8137	684035	0	0
2024-06-17 03:49:32			0	34995	0	0	0	24236	22910	148023	27232	1009992	42116	108946	0	0	8137	683846	0	0
2024-06-17 03:50:32			0	34980	0	0	0	24233	22900	148035	27431	1009895	42115	108945	0	0	8136	684566	0	0
2024-06-17 03:51:32			0	35009	0	0	0	24223	22890	148039	27194	1009913	42114	108941	0	0	8138	683286	0	0
2024-06-17 03:52:32			0	34996	0	0	0	24218	22880	148031	27114	1009842	42114	108939	0	0	8137	683915	0	0
2024-06-17 03:53:32			0	34986	0	0	0	24215	22880	148087	27067	1009887	42114	108938	0	0	8137	684370	0	0
2024-06-17 03:54:32			0	34989	0	0	0	24205	22870	148035	27218	1009737	42113	108934	0	0	8137	684272	0	0
2024-06-17 03:55:32			0	34992	0	0	0	24199	22870	147999	27039	1009710	42101	108932	0	0	8137	684135	0	0
2024-06-17 03:56:32			0	35010	0	0	0	24184	22850	148067	27003	1009684	42111	108926	0	0	8139	683394	0	0
2024-06-17 03:57:32			0	35003	0	0	0	24179	22830	148047	27222	1009632	42099	108924	0	0	8138	683789	0	0
2024-06-17 03:58:32			0	35003	0	0	0	24163	22820	147987	27156	1009561	42108	108918	0	0	8138	683827	0	0
2024-06-17 03:59:32			0	35011	0	0	0	24148	22810	148055	27031	1009589	42096	108912	0	0	8139	683502	0	0
2024-06-17 04:00:32			0	35006	0	0	0	24129	22810	148031	26934	1009535	42096	108905	0	0	8139	683729	0	0
2024-06-17 04:01:32			0	35017	0	0	0	24119	22790	148023	27083	1009448	42094	108901	0	0	8140	683306	0	0
2024-06-17 04:02:32			0	35022	0	0	0	24109	22780	147931	26941	1009404	42093	108897	0	0	8140	683117	0	0
2024-06-17 04:03:32			0	35037	0	0	0	24101	22770	147915	26941	1009307	42103	108894	0	0	8141	682474	0	0
2024-06-17 04:04:32			0	35052	0	0	0	24093	22760	147863	27072	1009218	42103	108891	0	0	8142	681832	0	0
2024-06-17 04:05:32			0	35062	0	0	0	24085	22730	147795	27045	1009221	42100	108888	0	0	8143	681493	0	0
2024-06-17 04:06:32			0	35057	0	0	0	24080	22730	147803	27157	1009221	42111	108886	0	0	8142	681720	0	0
2024-06-17 04:07:32			0	35087	0	0	0	24067	22720	147715	26975	1009115	42087	108881	0	0	8144	680399	0	0
2024-06-17 04:08:32			0	35121	0	0	0	24067	22730	147660	26845	1009212	42089	108881	0	0	8146	678823	0	0
2024-06-17 04:09:32			0	35119	0	0	0	24057	22710	147560	26951	1009151	42076	108877	0	0	8146	678989	0	0
2024-06-17 04:10:32			0	35147	0	0	0	24049	22690	147444	26885	1009072	42095	108874	0	0	8148	677800	0	0
2024-06-17 04:11:32			0	35180	0	0	0	24049	22700	147328	27022	1009089	42097	108874	0	0	8149	676274	0	0
2024-06-17 04:12:32			0	35185	0	0	0	24049	22690	147232	27206	1008965	42095	108874	0	0	8150	676086	0	0
2024-06-17 04:13:32			0	35214	0	0	0	24038	22690	147228	27013	1009072	42095	108870	0	0	8151	674780	0	0
2024-06-17 04:14:32			0	35227	0	0	0	24038	22690	147136	27072	1009019	42084	108870	0	0	8152	674195	0	0
2024-06-17 04:15:32			0	35251	0	0	0	24038	22680	147140	26797	1008940	42106	108870	0	0	8153	673155	0	0
2024-06-17 04:16:32			0	35262	0	0	0	24036	22670	146928	26942	1008958	42093	108869	0	0	8154	672698	0	0
2024-06-17 04:17:32			0	35276	0	0	0	24031	22670	146976	26665	1008896	42105	108867	0	0	8155	672070	0	0
2024-06-17 04:18:32			0	35306	0	0	0	24033	22680	146788	27097	1008913	42083	108868	0	0	8157	670687	0	0
2024-06-17 04:19:32			0	35339	0	0	0	24025	22660	146668	26897	1008888	42083	108865	0	0	8158	669285	0	0
2024-06-17 04:20:32			0	35337	0	0	0	24023	22650	146692	27246	1008870	42081	108864	0	0	8158	669412	0	0
2024-06-17 04:21:32			0	35372	0	0	0	24023	22650	146576	27306	1008835	42092	108864	0	0	8160	667848	0	0
2024-06-17 04:22:32			0	35381	0	0	0	24012	22650	146584	27071	1008782	42092	108860	0	0	8161	667446	0	0
2024-06-17 04:23:32			0	35422	0	0	0	23997	22650	146416	26989	1008782	42081	108854	0	0	8163	665617	0	0
2024-06-17 04:24:32			0	35433	0	0	0	23989	22630	146352	27223	1008668	42079	108851	0	0	8164	665202	0	0
2024-06-17 04:25:32			0	35433	0	0	0	23979	22620	146360	27076	1008686	42089	108847	0	0	8164	665239	0	0
2024-06-17 04:26:32			0	35495	0	0	0	23968	22620	146240	27381	1008571	42079	108843	0	0	8168	662482	0	0
2024-06-17 04:27:32			0	35492	0	0	0	23961	22610	146200	27457	1008634	42087	108840	0	0	8167	662652	0	0
2024-06-17 04:28:32			0	35504	0	0	0	23950	22600	146104	27071	1008563	42077	108836	0	0	8168	662157	0	0
2024-06-17 04:29:32			0	35522	0	0	0	23937	22580	146148	27067	1008529	42085	108831	0	0	8169	661432	0	0
2024-06-17 04:30:32			0	35539	0	0	0	23929	22580	146068	27128	1008404	42075	108828	0	0	8170	660678	0	0
2024-06-17 04:31:32			0	35568	0	0	0	23911	22550	145896	27230	1008361	42061	108821	0	0	8172	659505	0	0
2024-06-17 04:32:32			0	35563	0	0	0	23893	22560	145904	27126	1008370	42072	108814	0	0	8172	659689	0	0
2024-06-17 04:33:32			0	35588	0	0	0	23890	22550	145840	26972	1008335	42061	108813	0	0	8174	658620	0	0
2024-06-17 04:34:32			0	35603	0	0	0	23885	22540	145740	27100	1008291	42071	108811	0	0	8174	657994	0	0
2024-06-17 04:35:32			0	35601	0	0	0	23875	22530	145692	27041	1008239	42059	108807	0	0	8174	658119	0	0
2024-06-17 04:36:32			0	35588	0	0	0	23862	22520	145872	27140	1008168	42057	108802	0	0	8174	658731	0	0
2024-06-17 04:37:32			0	35619	0	0	0	23862	22500	145760	26941	1008143	42079	108802	0	0	8176	657435	0	0
2024-06-17 04:38:32			0	35598	0	0	0	23841	22490	145828	27227	1007993	42078	108794	0	0	8175	658399	0	0
2024-06-17 04:39:32			0	35608	0	0	0	23825	22490	145764	27015	1008019	42067	108788	0	0	8175	657957	0	0
2024-06-17 04:40:32			0	35628	0	0	0	23823	22480	145708	27216	1008002	42043	108787	0	0	8177	657111	0	0
2024-06-17 04:41:32			0	35627	0	0	0	23805	22470	145744	26986	1007923	42053	108780	0	0	8177	657192	0	0
2024-06-17 04:42:32			0	35642	0	0	0	23781	22450	145764	27313	1007756	42051	108771	0	0	8178	656603	0	0
2024-06-17 04:43:32			0	35627	0	0	0	23755	22450	145676	27286	1007711	42029	108761	0	0	8178	657265	0	0
2024-06-17 04:44:32			0	35632	0	0	0	23742	22440	145656	27466	1007658	42050	108756	0	0	8178	657081	0	0
2024-06-17 04:45:32			0	35627	0	0	0	23727	22410	145688	26958	1007589	42047	108750	0	0	8178	657412	0	0
2024-06-17 04:46:32			0	35643	0	0	0	23706	22400	145648	27305	1007510	42046	108742	0	0	8179	656742	0	0
2024-06-17 04:47:32			0	35621	0	0	0	23690	22380	145676	27258	1007458	42067	108736	0	0	8178	657787	0	0
2024-06-17 04:48:32			0	35630	0	0	0	23677	22360	145800	26946	1007442	42042	108731	0	0	8179	657463	0	0
2024-06-17 04:49:32			0	35617	0	0	0	23670	22360	145816	27332	1007389	42064	108728	0	0	8178	658037	0	0
2024-06-17 04:50:32			0	35575	0	0	0	23672	22350	145888	27230	1007398	42052	108729	0	0	8176	659933	0	0
2024-06-17 04:51:32			0	35561	0	0	0	23672	22350	145992	27222	1007327	42031	108729	0	0	8175	660553	0	0
2024-06-17 04:52:32			0	35550	0	0	0	23659	22330	146156	27093	1007346	42041	108724	0	0	8174	661114	0	0
2024-06-17 04:53:32			0	35531	0	0	0	23654	22330	146092	27064	1007373	42030	108722	0	0	8174	661958	0	0
2024-06-17 04:54:32			0	35484	0	0	0	23646	22320	146332	27358	1007222	42050	108719	0	0	8171	664083	0	0
2024-06-17 04:55:32			0	35482	0	0	0	23628	22310	146384	27320	1007125	42027	108712	0	0	8171	664210	0	0
2024-06-17 04:56:32			0	35443	0	0	0	23620	22300	146536	27313	1007100	42037	108709	0	0	8169	665984	0	0
2024-06-17 04:57:32			0	35421	0	0	0	23618	22280	146612	27294	1007074	42046	108708	0	0	8168	667040	0	0
2024-06-17 04:58:32			0	35394	0	0	0	23618	22270	146672	27036	1007066	42046	108708	0	0	8166	668283	0	0
2024-06-17 04:59:32			0	35371	0	0	0	23605	22260	146912	27230	1007022	42023	108703	0	0	8165	669350	0	0
2024-06-17 05:00:32			0	35353	0	0	0	23607	22260	146924	27396	1006995	42034	108704	0	0	8164	670156	0	0
2024-06-17 05:01:32			0	35342	0	0	0	23586	22250	146928	27171	1006996	42033	108696	0	0	8164	670686	0	0
2024-06-17 05:02:32			0	35308	0	0	0	23584	22250	147048	27379	1006916	42021	108695	0	0	8162	672212	0	0
2024-06-17 05:03:32			0	35282	0	0	0	23576	22240	147196	27499	1006846	42032	108692	0	0	8161	673417	0	0
2024-06-17 05:04:32			0	35273	0	0	0	23571	22240	147300	27086	1006846	42042	108690	0	0	8161	673822	0	0
2024-06-17 05:05:32			0	35256	0	0	0	23574	22220	147368	27189	1006821	42041	108691	0	0	8159	674662	0	0
2024-06-17 05:06:32			0	35247	0	0	0	23566	22220	147412	27150	1006839	42041	108688	0	0	8159	675067	0	0
2024-06-17 05:07:32			0	35209	0	0	0	23561	22220	147580	27343	1006785	42041	108686	0	0	8157	676781	0	0
2024-06-17 05:08:32			0	35193	0	0	0	23553	22200	147620	27185	1006760	42017	108683	0	0	8156	677579	0	0
2024-06-17 05:09:32			0	35184	0	0	0	23553	22190	147716	27230	1006769	42028	108683	0	0	8156	678023	0	0
2024-06-17 05:10:32			0	35163	0	0	0	23555	22210	147724	27298	1006768	42040	108684	0	0	8155	678897	0	0
2024-06-17 05:11:32			0	35171	0	0	0	23545	22200	147840	26975	1006778	42039	108680	0	0	8155	678573	0	0
2024-06-17 05:12:32			0	35146	0	0	0	23545	22190	147812	27235	1006734	42016	108680	0	0	8154	679742	0	0
2024-06-17 05:13:32			0	35133	0	0	0	23555	22190	147860	27274	1006734	42027	108684	0	0	8153	680331	0	0
2024-06-17 05:14:32			0	35124	0	0	0	23545	22180	147928	26817	1006725	42037	108680	0	0	8153	680777	0	0
2024-06-17 05:15:32			0	35120	0	0	0	23553	22180	147984	27189	1006672	42037	108683	0	0	8152	680958	0	0
2024-06-17 05:16:32			0	35097	0	0	0	23548	22170	147919	27126	1006655	42025	108681	0	0	8151	682040	0	0
2024-06-17 05:17:32			0	35086	0	0	0	23535	22170	148071	27194	1006647	42025	108676	0	0	8151	682539	0	0
2024-06-17 05:18:32			0	35086	0	0	0	23529	22180	148011	27008	1006664	42025	108674	0	0	8151	682501	0	0
2024-06-17 05:19:32			0	35075	0	0	0	23532	22160	147951	26918	1006576	42035	108675	0	0	8150	683077	0	0
2024-06-17 05:20:32			0	35070	0	0	0	23522	22160	148067	26795	1006683	42035	108671	0	0	8150	683304	0	0
2024-06-17 05:21:32			0	35082	0	0	0	23532	22160	148195	27142	1006665	42036	108675	0	0	8150	682759	0	0
2024-06-17 05:22:32			0	35087	0	0	0	23527	22150	148119	26752	1006639	42023	108673	0	0	8151	682570	0	0
2024-06-17 05:23:32			0	35090	0	0	0	23527	22160	148171	26845	1006691	42024	108673	0	0	8151	682395	0	0
2024-06-17 05:24:32			0	35064	0	0	0	23535	22150	148071	26759	1006648	42035	108676	0	0	8149	683615	0	0
2024-06-17 05:25:32			0	35063	0	0	0	23527	22150	148139	27137	1006674	42023	108673	0	0	8149	683661	0	0
2024-06-17 05:26:32			0	35075	0	0	0	23537	22160	148143	27173	1006656	42045	108677	0	0	8150	683077	0	0
2024-06-17 05:27:32			0	35062	0	0	0	23548	22170	148131	26981	1006708	42047	108681	0	0	8149	683630	0	0
2024-06-17 05:28:32			0	35073	0	0	0	23545	22160	148219	27066	1006665	42036	108680	0	0	8150	683168	0	0
2024-06-17 05:29:32			0	35074	0	0	0	23542	22160	148199	26906	1006638	42013	108679	0	0	8150	683122	0	0
2024-06-17 05:30:32			0	35072	0	0	0	23535	22160	148203	27093	1006691	42036	108676	0	0	8150	683213	0	0
2024-06-17 05:31:32			0	35055	0	0	0	23574	22170	148179	27116	1006806	42047	108691	0	0	8148	683948	0	0
2024-06-17 05:32:32			0	35069	0	0	0	23636	22190	148059	26998	1006974	42060	108715	0	0	8148	683235	0	0
2024-06-17 05:33:32			0	35082	0	0	0	23662	22210	148087	27332	1007017	42051	108725	0	0	8148	682568	0	0
2024-06-17 05:34:32			0	35065	0	0	0	23667	22210	148071	26979	1007017	42051	108727	0	0	8147	683341	0	0
2024-06-17 05:35:32			0	35074	0	0	0	23664	22220	148039	27081	1007034	42051	108726	0	0	8148	682894	0	0
2024-06-17 05:36:32			0	35066	0	0	0	23675	22230	148111	27069	1007104	42053	108730	0	0	8147	683219	0	0
2024-06-17 05:37:32			0	35069	0	0	0	23688	22240	148007	27114	1007201	42064	108735	0	0	8147	683045	0	0
2024-06-17 05:38:32			0	35077	0	0	0	23714	22250	147991	27332	1007218	42055	108745	0	0	8147	682643	0	0
2024-06-17 05:39:32			0	35095	0	0	0	23716	22260	148015	27291	1007227	42044	108746	0	0	8148	681788	0	0
2024-06-17 05:40:32			0	35090	0	0	0	23722	22270	147995	27187	1007305	42046	108748	0	0	8148	681977	0	0
2024-06-17 05:41:32			0	35098	0	0	0	23719	22280	148027	27126	1007367	42068	108747	0	0	8149	681576	0	0
2024-06-17 05:42:32			0	35083	0	0	0	23737	22280	148027	27066	1007323	42058	108754	0	0	8148	682256	0	0
2024-06-17 05:43:32			0	35082	0	0	0	23748	22290	147927	27161	1007384	42047	108758	0	0	8147	682264	0	0
2024-06-17 05:44:32			0	35103	0	0	0	23761	22310	147907	27111	1007437	42060	108763	0	0	8148	681235	0	0
2024-06-17 05:45:32			0	35104	0	0	0	23771	22320	147823	26778	1007534	42061	108767	0	0	8148	681151	0	0
2024-06-17 05:46:32			0	35130	0	0	0	23776	22330	147660	26785	1007578	42073	108769	0	0	8150	679935	0	0
2024-06-17 05:47:32			0	35208	0	0	0	23779	22330	147496	26765	1007551	42061	108770	0	0	8154	676410	0	0
2024-06-17 05:48:32			0	35267	0	0	0	23784	22330	147224	27001	1007498	42061	108772	0	0	8157	673753	0	0
2024-06-17 05:49:32			0	35363	0	0	0	23781	22340	146860	27159	1007515	42062	108771	0	0	8162	669409	0	0
2024-06-17 05:50:32			0	35422	0	0	0	23779	22350	146564	27015	1007585	42063	108770	0	0	8166	666735	0	0
2024-06-17 05:51:32			0	35474	0	0	0	23773	22340	146260	27031	1007515	42062	108768	0	0	8168	664454	0	0
2024-06-17 05:52:32			0	35534	0	0	0	23768	22340	146236	26864	1007550	42063	108766	0	0	8172	661787	0	0
2024-06-17 05:53:32			0	35535	0	0	0	23753	22350	146032	26868	1007558	42075	108760	0	0	8172	661706	0	0
2024-06-17 05:54:32			0	35539	0	0	0	23761	22350	145972	27059	1007505	42075	108763	0	0	8172	661528	0	0
2024-06-17 05:55:32			0	35554	0	0	0	23755	22340	146024	27064	1007515	42041	108761	0	0	8173	660900	0	0
2024-06-17 05:56:32			0	35563	0	0	0	23748	22330	146028	26729	1007480	42051	108758	0	0	8174	660538	0	0
2024-06-17 05:57:32			0	35550	0	0	0	23742	22340	146064	26648	1007461	42051	108756	0	0	8173	661078	0	0
2024-06-17 05:58:32			0	35538	0	0	0	23724	22330	146120	27050	1007444	42050	108749	0	0	8173	661647	0	0
2024-06-17 05:59:32			0	35525	0	0	0	23735	22320	146124	27057	1007382	42061	108753	0	0	8172	662261	0	0
2024-06-17 06:00:32			0	35547	0	0	0	23724	22330	146020	26819	1007364	42061	108749	0	0	8173	661247	0	0
2024-06-17 06:01:32			0	35529	0	0	0	23719	22320	146028	27206	1007435	42050	108747	0	0	8172	662083	0	0
2024-06-17 06:02:32			0	35547	0	0	0	23719	22330	146160	26972	1007391	42050	108747	0	0	8173	661247	0	0
2024-06-17 06:03:32			0	35533	0	0	0	23703	22320	146024	26987	1007374	42061	108741	0	0	8173	661906	0	0
2024-06-17 06:04:32			0	35534	0	0	0	23706	22320	146116	27102	1007427	42061	108742	0	0	8173	661861	0	0
2024-06-17 06:05:32			0	35545	0	0	0	23703	22310	145976	27029	1007357	42048	108741	0	0	8173	661410	0	0
2024-06-17 06:06:32			0	35573	0	0	0	23693	22320	146064	27199	1007347	42049	108737	0	0	8175	660132	0	0
2024-06-17 06:07:32			0	35568	0	0	0	23693	22320	146056	26974	1007374	42061	108737	0	0	8175	660353	0	0
2024-06-17 06:08:32			0	35594	0	0	0	23701	22310	145884	27138	1007338	42060	108740	0	0	8176	659239	0	0
2024-06-17 06:09:32			0	35589	0	0	0	23703	22320	145976	26982	1007320	42061	108741	0	0	8176	659423	0	0
2024-06-17 06:10:32			0	35600	0	0	0	23696	22320	145904	26922	1007356	42061	108738	0	0	8176	658936	0	0
2024-06-17 06:11:32			0	35600	0	0	0	23696	22310	145868	27164	1007303	42048	108738	0	0	8176	658973	0	0
2024-06-17 06:12:32			0	35624	0	0	0	23701	22310	145800	27159	1007365	42071	108740	0	0	8178	657912	0	0
2024-06-17 06:13:32			0	35633	0	0	0	23698	22300	145836	26861	1007348	42048	108739	0	0	8178	657551	0	0
2024-06-17 06:14:32			0	35655	0	0	0	23701	22310	145712	27187	1007357	42048	108740	0	0	8179	656543	0	0
2024-06-17 06:15:32			0	35637	0	0	0	23701	22310	145704	26993	1007357	42060	108740	0	0	8178	657337	0	0
2024-06-17 06:16:32			0	35675	0	0	0	23709	22310	145692	26956	1007392	42060	108743	0	0	8180	655661	0	0
2024-06-17 06:17:32			0	35672	0	0	0	23719	22310	145604	27003	1007392	42048	108747	0	0	8180	655793	0	0
2024-06-17 06:18:32			0	35696	0	0	0	23729	22320	145544	27109	1007427	42061	108751	0	0	8181	654699	0	0
2024-06-17 06:19:32			0	35709	0	0	0	23735	22320	145448	27157	1007454	42061	108753	0	0	8182	654126	0	0
2024-06-17 06:20:32			0	35717	0	0	0	23742	22330	145376	27140	1007453	42062	108756	0	0	8182	653738	0	0
2024-06-17 06:21:32			0	35746	0	0	0	23735	22320	145284	27280	1007462	42061	108753	0	0	8184	652500	0	0
2024-06-17 06:22:32			0	35754	0	0	0	23737	22330	145188	27173	1007498	42061	108754	0	0	8184	652112	0	0
2024-06-17 06:23:32			0	35759	0	0	0	23740	22330	145244	26837	1007498	42073	108755	0	0	8184	651892	0	0
2024-06-17 06:24:32			0	35758	0	0	0	23727	22330	145148	27499	1007480	42074	108750	0	0	8185	651936	0	0
2024-06-17 06:25:32			0	35784	0	0	0	23740	22330	144996	27074	1007506	42074	108755	0	0	8186	650795	0	0
2024-06-17 06:26:32			0	35792	0	0	0	23735	22330	144992	27284	1007533	42062	108753	0	0	8186	650445	0	0
2024-06-17 06:27:32			0	35791	0	0	0	23735	22330	144984	27090	1007480	42062	108753	0	0	8186	650488	0	0
2024-06-17 06:28:32			0	35793	0	0	0	23737	22320	145032	27241	1007462	42073	108754	0	0	8186	650437	0	0
2024-06-17 06:29:32			0	35818	0	0	0	23722	22340	145020	27157	1007408	42074	108748	0	0	8188	649269	0	0
2024-06-17 06:30:32			0	35815	0	0	0	23724	22330	145000	26928	1007400	42074	108749	0	0	8188	649437	0	0
2024-06-17 06:31:32			0	35834	0	0	0	23719	22330	145052	27206	1007418	42050	108747	0	0	8189	648605	0	0
2024-06-17 06:32:32			0	35818	0	0	0	23711	22320	145004	27315	1007382	42061	108744	0	0	8188	649342	0	0
2024-06-17 06:33:32			0	35839	0	0	0	23706	22320	144876	26930	1007329	42061	108742	0	0	8189	648423	0	0
2024-06-17 06:34:32			0	35819	0	0	0	23701	22310	144872	27183	1007365	42048	108740	0	0	8188	649334	0	0
2024-06-17 06:35:32			0	35836	0	0	0	23688	22320	144920	26824	1007320	42061	108735	0	0	8189	648554	0	0
2024-06-17 06:36:32			0	35832	0	0	0	23680	22300	144912	27178	1007180	42059	108732	0	0	8189	648802	0	0
2024-06-17 06:37:32			0	35840	0	0	0	23675	22300	144936	27209	1007233	42059	108730	0	0	8190	648452	0	0
2024-06-17 06:38:32			0	35853	0	0	0	23659	22300	144732	27364	1007233	42047	108724	0	0	8191	647883	0	0
2024-06-17 06:39:32			0	35844	0	0	0	23651	22290	144872	27111	1007171	42058	108721	0	0	8190	648313	0	0
2024-06-17 06:40:32			0	35835	0	0	0	23649	22290	144816	27170	1007145	42036	108720	0	0	8190	648707	0	0
2024-06-17 06:41:32			0	35862	0	0	0	23649	22280	144932	27251	1007216	42047	108720	0	0	8191	647562	0	0
2024-06-17 06:42:32			0	35846	0	0	0	23641	22270	144792	27031	1007119	42057	108717	0	0	8190	648298	0	0
2024-06-17 06:43:32			0	35869	0	0	0	23646	22260	144848	27241	1007049	42034	108719	0	0	8192	647329	0	0
2024-06-17 06:44:32			0	35851	0	0	0	23638	22270	144836	26949	1007057	42056	108716	0	0	8191	648079	0	0
2024-06-17 06:45:32			0	35881	0	0	0	23633	22270	144829	27033	1007057	42034	108714	0	0	8192	646769	0	0
2024-06-17 06:46:32			0	35881	0	0	0	23641	22260	144777	26970	1007120	42066	108717	0	0	8192	646805	0	0
2024-06-17 06:47:32			0	35881	0	0	0	23631	22250	144805	26828	1007076	42033	108713	0	0	8192	646841	0	0
2024-06-17 06:48:32			0	35895	0	0	0	23636	22250	144765	27126	1007076	42054	108715	0	0	8193	646230	0	0
2024-06-17 06:49:32			0	35873	0	0	0	23631	22260	144725	27436	1007075	42056	108713	0	0	8192	647154	0	0
2024-06-17 06:50:32			0	35895	0	0	0	23636	22250	144737	27255	1007032	42055	108715	0	0	8193	646230	0	0
2024-06-17 06:51:32			0	35908	0	0	0	23636	22260	144657	27320	1007067	42055	108715	0	0	8194	645627	0	0
2024-06-17 06:52:32			0	35871	0	0	0	23641	22250	144693	27138	1007111	42044	108717	0	0	8192	647278	0	0
2024-06-17 06:53:32			0	35909	0	0	0	23644	22250	144641	27003	1007165	42055	108718	0	0	8194	645619	0	0
2024-06-17 06:54:32			0	35912	0	0	0	23649	22260	144665	27265	1007093	42055	108720	0	0	8194	645452	0	0
2024-06-17 06:55:32			0	35923	0	0	0	23646	22260	144649	26864	1007155	42056	108719	0	0	8194	644973	0	0
2024-06-17 06:56:32			0	35927	0	0	0	23654	22260	144593	27504	1007129	42056	108722	0	0	8194	644799	0	0
2024-06-17 06:57:32			0	35919	0	0	0	23651	22250	144613	27459	1007138	42055	108721	0	0	8194	645183	0	0
2024-06-17 06:58:32			0	35919	0	0	0	23651	22250	144533	27291	1007111	42055	108721	0	0	8194	645183	0	0
2024-06-17 06:59:32			0	35930	0	0	0	23641	22250	144597	27192	1007138	42055	108717	0	0	8195	644704	0	0
2024-06-17 07:00:32			0	35933	0	0	0	23649	22260	144553	27360	1007067	42066	108720	0	0	8195	644537	0	0
2024-06-17 07:01:32			0	35932	0	0	0	23649	22250	144541	27206	1007076	42054	108720	0	0	8195	644617	0	0
2024-06-17 07:02:32			0	35943	0	0	0	23644	22260	144545	27203	1007173	42044	108718	0	0	8196	644102	0	0
2024-06-17 07:03:32			0	35944	0	0	0	23644	22250	144473	26996	1007058	42066	108718	0	0	8196	644094	0	0
2024-06-17 07:04:32			0	35941	0	0	0	23641	22240	144493	27495	1007148	42053	108717	0	0	8195	644261	0	0
2024-06-17 07:05:32			0	35947	0	0	0	23644	22250	144493	27033	1007103	42054	108718	0	0	8196	643964	0	0
2024-06-17 07:06:32			0	35939	0	0	0	23641	22250	144497	26835	1007103	42043	108717	0	0	8195	644312	0	0
2024-06-17 07:07:32			0	35940	0	0	0	23638	22250	144577	26946	1007076	42065	108716	0	0	8195	644268	0	0
2024-06-17 07:08:32			0	35949	0	0	0	23631	22250	144457	26979	1007032	42044	108713	0	0	8196	643876	0	0
2024-06-17 07:09:32			0	35950	0	0	0	23636	22240	144389	27274	1007068	42053	108715	0	0	8196	643869	0	0
2024-06-17 07:10:32			0	35945	0	0	0	23633	22240	144473	27118	1007094	42053	108714	0	0	8196	644087	0	0
2024-06-17 07:11:32			0	35961	0	0	0	23631	22230	144449	27270	1006971	42053	108713	0	0	8197	643426	0	0
2024-06-17 07:12:32			0	35948	0	0	0	23633	22240	144489	27220	1007006	42053	108714	0	0	8196	643956	0	0
2024-06-17 07:13:32			0	35974	0	0	0	23620	22240	144509	26800	1007015	42042	108709	0	0	8197	642825	0	0
2024-06-17 07:14:32			0	35931	0	0	0	23628	22240	144417	27072	1006979	42053	108712	0	0	8195	644696	0	0
2024-06-17 07:15:32			0	35938	0	0	0	23623	22240	144457	27303	1007006	42053	108710	0	0	8196	644391	0	0
2024-06-17 07:16:32			0	35951	0	0	0	23620	22240	144397	26953	1007059	42042	108709	0	0	8196	643825	0	0
2024-06-17 07:17:32			0	35955	0	0	0	23623	22230	144449	27213	1007016	42041	108710	0	0	8196	643687	0	0
2024-06-17 07:18:32			0	35957	0	0	0	23623	22220	144545	27154	1006919	42051	108710	0	0	8196	643636	0	0
2024-06-17 07:19:32			0	35948	0	0	0	23620	22230	144525	27145	1006997	42053	108709	0	0	8196	643992	0	0
2024-06-17 07:20:32			0	35954	0	0	0	23620	22230	144485	27352	1006997	42053	108709	0	0	8196	643731	0	0
2024-06-17 07:21:32			0	35927	0	0	0	23620	22230	144577	27086	1006997	42053	108709	0	0	8195	644907	0	0
2024-06-17 07:22:32			0	35939	0	0	0	23610	22220	144541	26826	1006954	42041	108705	0	0	8196	644420	0	0
2024-06-17 07:23:32			0	35934	0	0	0	23615	22220	144529	27157	1006945	42051	108707	0	0	8195	644638	0	0
2024-06-17 07:24:32			0	35940	0	0	0	23615	22230	144513	26739	1006936	42041	108707	0	0	8196	644340	0	0
2024-06-17 07:25:32			0	35938	0	0	0	23610	22220	144509	27241	1006945	42051	108705	0	0	8196	644463	0	0
2024-06-17 07:26:32			0	35925	0	0	0	23605	22220	144493	27223	1006954	42051	108703	0	0	8195	645030	0	0
2024-06-17 07:27:32			0	35920	0	0	0	23612	22220	144573	26974	1006980	42051	108706	0	0	8195	645248	0	0
2024-06-17 07:28:32			0	35901	0	0	0	23602	22210	144645	27578	1006990	42051	108702	0	0	8194	646112	0	0
2024-06-17 07:29:32			0	35911	0	0	0	23607	22210	144533	27284	1006955	42050	108704	0	0	8194	645676	0	0
2024-06-17 07:30:32			0	35909	0	0	0	23615	22220	144637	27128	1006980	42041	108707	0	0	8194	645727	0	0
2024-06-17 07:31:32			0	35895	0	0	0	23618	22220	144625	27192	1006972	42051	108708	0	0	8193	646338	0	0
2024-06-17 07:32:32			0	35884	0	0	0	23623	22220	144657	27495	1006945	42051	108710	0	0	8193	646818	0	0
2024-06-17 07:33:32			0	35881	0	0	0	23620	22230	144725	26935	1007069	42063	108709	0	0	8192	646913	0	0
2024-06-17 07:34:32			0	35862	0	0	0	23628	22220	144649	27003	1006999	42051	108712	0	0	8191	647779	0	0
2024-06-17 07:35:32			0	35858	0	0	0	23615	22220	144753	27293	1007034	42051	108707	0	0	8191	647954	0	0
2024-06-17 07:36:32			0	35852	0	0	0	23631	22220	144788	26805	1007060	42041	108713	0	0	8191	648216	0	0
2024-06-17 07:37:32			0	35827	0	0	0	23625	22230	144804	27097	1007016	42041	108711	0	0	8189	649274	0	0
2024-06-17 07:38:32			0	35830	0	0	0	23638	22230	144820	27131	1007069	42075	108716	0	0	8189	649143	0	0
2024-06-17 07:39:32			0	35818	0	0	0	23646	22250	144884	27429	1007218	42088	108719	0	0	8189	649596	0	0
2024-06-17 07:40:32			0	35817	0	0	0	23667	22250	144880	27048	1007103	42077	108727	0	0	8188	649639	0	0
2024-06-17 07:41:32			0	35826	0	0	0	23675	22260	144960	27079	1007280	42066	108730	0	0	8189	649209	0	0
2024-06-17 07:42:32			0	35831	0	0	0	23688	22260	144952	27105	1007307	42066	108735	0	0	8189	648990	0	0
2024-06-17 07:43:32			0	35808	0	0	0	23685	22270	145032	27248	1007244	42067	108734	0	0	8188	649961	0	0
2024-06-17 07:44:32			0	35801	0	0	0	23703	22270	145180	27260	1007244	42056	108741	0	0	8187	650268	0	0
2024-06-17 07:45:32			0	35790	0	0	0	23701	22270	145084	27241	1007332	42068	108740	0	0	8186	650750	0	0
2024-06-17 07:46:32			0	35777	0	0	0	23711	22270	145140	27412	1007332	42068	108744	0	0	8186	651320	0	0
2024-06-17 07:47:32			0	35779	0	0	0	23703	22280	145096	27315	1007314	42057	108741	0	0	8186	651196	0	0
2024-06-17 07:48:32			0	35764	0	0	0	23698	22280	145152	27287	1007323	42058	108739	0	0	8185	651855	0	0
2024-06-17 07:49:32			0	35771	0	0	0	23698	22290	145128	26880	1007384	42058	108739	0	0	8186	651511	0	0
2024-06-17 07:50:32			0	35766	0	0	0	23701	22300	145172	26887	1007340	42070	108740	0	0	8185	651694	0	0
2024-06-17 07:51:32			0	35765	0	0	0	23709	22290	145172	27189	1007384	42058	108743	0	0	8185	651774	0	0
2024-06-17 07:52:32			0	35757	0	0	0	23696	22290	145072	27194	1007384	42069	108738	0	0	8185	652126	0	0
2024-06-17 07:53:32			0	35761	0	0	0	23716	22300	145128	27256	1007366	42059	108746	0	0	8185	651913	0	0
2024-06-17 07:54:32			0	35749	0	0	0	23722	22300	145156	27268	1007428	42071	108748	0	0	8184	652441	0	0
2024-06-17 07:55:32			0	35750	0	0	0	23714	22300	145240	27197	1007428	42071	108745	0	0	8184	652397	0	0
2024-06-17 07:56:32			0	35755	0	0	0	23727	22300	145156	27353	1007393	42081	108750	0	0	8184	652177	0	0
2024-06-17 07:57:32			0	35740	0	0	0	23727	22300	145224	27322	1007455	42071	108750	0	0	8183	652836	0	0
2024-06-17 07:58:32			0	35723	0	0	0	23724	22310	145248	27306	1007463	42071	108749	0	0	8183	653547	0	0
2024-06-17 07:59:32			0	35729	0	0	0	23735	22320	145304	27177	1007462	42061	108753	0	0	8183	653247	0	0
2024-06-17 08:00:32			0	35730	0	0	0	23737	22320	145252	27324	1007560	42061	108754	0	0	8183	653203	0	0
2024-06-17 08:01:32			0	35723	0	0	0	23735	22320	145320	27353	1007480	42061	108753	0	0	8182	653510	0	0
2024-06-17 08:02:32			0	35720	0	0	0	23745	22320	145240	27192	1007462	42073	108757	0	0	8182	653642	0	0
2024-06-17 08:03:32			0	35711	0	0	0	23748	22320	145212	27291	1007462	42061	108758	0	0	8182	654038	0	0
2024-06-17 08:04:32			0	35727	0	0	0	23742	22330	145336	27367	1007578	42073	108756	0	0	8183	653298	0	0
2024-06-17 08:05:32			0	35719	0	0	0	23748	22330	145376	27209	1007498	42073	108758	0	0	8182	653650	0	0
2024-06-17 08:06:32			0	35733	0	0	0	23742	22330	145400	26724	1007506	42074	108756	0	0	8183	653034	0	0
2024-06-17 08:07:32			0	35721	0	0	0	23742	22340	145336	26892	1007515	42074	108756	0	0	8182	653525	0	0
2024-06-17 08:08:32			0	35714	0	0	0	23745	22330	145448	27046	1007551	42073	108757	0	0	8182	653870	0	0
2024-06-17 08:09:32			0	35714	0	0	0	23742	22320	145436	26922	1007489	42061	108756	0	0	8182	653906	0	0
2024-06-17 08:10:32			0	35718	0	0	0	23740	22340	145448	27286	1007568	42084	108755	0	0	8182	653657	0	0
2024-06-17 08:11:32			0	35709	0	0	0	23748	22330	145412	26918	1007559	42074	108758	0	0	8182	654090	0	0
2024-06-17 08:12:32			0	35698	0	0	0	23753	22340	145408	27149	1007541	42051	108760	0	0	8181	654537	0	0
2024-06-17 08:13:32			0	35686	0	0	0	23742	22340	145424	27234	1007541	42051	108756	0	0	8180	655066	0	0
2024-06-17 08:14:32			0	35714	0	0	0	23740	22330	145492	27199	1007498	42073	108755	0	0	8182	653870	0	0
2024-06-17 08:15:32			0	35698	0	0	0	23740	22330	145408	26981	1007631	42073	108755	0	0	8181	654574	0	0
2024-06-17 08:16:32			0	35696	0	0	0	23742	22330	145452	27180	1007506	42074	108756	0	0	8181	654662	0	0
2024-06-17 08:17:32			0	35713	0	0	0	23753	22330	145296	27215	1007506	42062	108760	0	0	8182	653914	0	0
2024-06-17 08:18:32			0	35712	0	0	0	23737	22340	145432	27322	1007461	42062	108754	0	0	8182	653921	0	0
2024-06-17 08:19:32			0	35711	0	0	0	23740	22330	145324	26984	1007506	42074	108755	0	0	8182	654002	0	0
2024-06-17 08:20:32			0	35686	0	0	0	23737	22340	145336	27338	1007488	42062	108754	0	0	8181	655066	0	0
2024-06-17 08:21:32			0	35727	0	0	0	23732	22330	145352	27140	1007506	42074	108752	0	0	8183	653298	0	0
2024-06-17 08:22:32			0	35714	0	0	0	23729	22330	145428	27071	1007498	42061	108751	0	0	8182	653870	0	0
2024-06-17 08:23:32			0	35735	0	0	0	23732	22340	145288	27102	1007541	42062	108752	0	0	8183	652910	0	0
2024-06-17 08:24:32			0	35735	0	0	0	23727	22340	145256	26956	1007515	42074	108750	0	0	8183	652910	0	0
2024-06-17 08:25:32			0	35754	0	0	0	23735	22330	145352	27133	1007524	42073	108753	0	0	8184	652112	0	0
2024-06-17 08:26:32			0	35765	0	0	0	23727	22330	145216	27218	1007498	42073	108750	0	0	8185	651629	0	0
2024-06-17 08:27:32			0	35747	0	0	0	23735	22320	145240	27154	1007542	42073	108753	0	0	8184	652455	0	0
2024-06-17 08:28:32			0	35764	0	0	0	23737	22320	145184	27175	1007462	42073	108754	0	0	8185	651709	0	0
2024-06-17 08:29:32			0	35771	0	0	0	23732	22320	145120	27287	1007515	42083	108752	0	0	8185	651402	0	0
2024-06-17 08:30:32			0	35777	0	0	0	23740	22330	145092	27053	1007498	42061	108755	0	0	8185	651102	0	0
2024-06-17 08:31:32			0	35788	0	0	0	23735	22320	145036	27135	1007515	42073	108753	0	0	8186	650656	0	0
2024-06-17 08:32:32			0	35786	0	0	0	23729	22330	144988	27289	1007498	42061	108751	0	0	8186	650708	0	0
2024-06-17 08:33:32			0	35800	0	0	0	23737	22320	144960	27041	1007462	42073	108754	0	0	8187	650130	0	0
2024-06-17 08:34:32			0	35815	0	0	0	23737	22330	144980	26693	1007559	42062	108754	0	0	8187	649437	0	0
2024-06-17 08:35:32			0	35815	0	0	0	23740	22340	144988	27244	1007488	42074	108755	0	0	8187	649401	0	0
2024-06-17 08:36:32			0	35837	0	0	0	23742	22330	144864	27007	1007559	42062	108756	0	0	8188	648474	0	0
2024-06-17 08:37:32			0	35823	0	0	0	23740	22340	144888	27445	1007541	42084	108755	0	0	8188	649050	0	0
2024-06-17 08:38:32			0	35840	0	0	0	23742	22330	144768	27301	1007559	42074	108756	0	0	8189	648343	0	0
2024-06-17 08:39:32			0	35854	0	0	0	23745	22320	144868	27265	1007515	42061	108757	0	0	8189	647767	0	0
2024-06-17 08:40:32			0	35871	0	0	0	23740	22330	144825	27156	1007631	42061	108755	0	0	8190	646988	0	0
2024-06-17 08:41:32			0	35872	0	0	0	23753	22340	144737	27201	1007515	42074	108760	0	0	8190	646908	0	0
2024-06-17 08:42:32			0	35851	0	0	0	23748	22330	144684	27041	1007639	42074	108758	0	0	8189	647862	0	0
2024-06-17 08:43:32			0	35873	0	0	0	23761	22340	144673	27216	1007568	42074	108763	0	0	8190	646865	0	0
2024-06-17 08:44:32			0	35859	0	0	0	23755	22340	144684	27419	1007550	42075	108761	0	0	8189	647476	0	0
2024-06-17 08:45:32			0	35890	0	0	0	23758	22340	144617	27079	1007675	42062	108762	0	0	8191	646123	0	0
2024-06-17 08:46:32			0	35879	0	0	0	23768	22350	144653	27319	1007665	42075	108766	0	0	8190	646567	0	0
2024-06-17 08:47:32			0	35912	0	0	0	23761	22350	144541	27031	1007700	42064	108763	0	0	8192	645128	0	0
2024-06-17 08:48:32			0	35910	0	0	0	23766	22350	144525	27339	1007612	42075	108765	0	0	8192	645215	0	0
2024-06-17 08:49:32			0	35895	0	0	0	23766	22360	144441	27215	1007709	42075	108765	0	0	8191	645833	0	0
2024-06-17 08:50:32			0	35919	0	0	0	23784	22370	144449	27123	1007806	42076	108772	0	0	8192	644751	0	0
2024-06-17 08:51:32			0	35935	0	0	0	23799	22370	144477	27147	1007814	42099	108778	0	0	8193	644054	0	0
2024-06-17 08:52:32			0	35933	0	0	0	23815	22370	144373	27450	1007841	42088	108784	0	0	8193	644141	0	0
2024-06-17 08:53:32			0	35946	0	0	0	23838	22390	144361	27365	1007866	42089	108793	0	0	8193	643504	0	0
2024-06-17 08:54:32			0	35959	0	0	0	23841	22400	144281	27390	1007963	42090	108794	0	0	8194	642903	0	0
2024-06-17 08:55:32			0	35963	0	0	0	23854	22400	144321	27345	1008052	42080	108799	0	0	8194	642729	0	0
2024-06-17 08:56:32			0	35977	0	0	0	23862	22410	144225	26899	1007989	42091	108802	0	0	8194	642085	0	0
2024-06-17 08:57:32			0	36016	0	0	0	23854	22410	144253	27175	1008007	42091	108799	0	0	8197	640393	0	0
2024-06-17 08:58:32			0	36027	0	0	0	23859	22420	143985	27310	1008059	42092	108801	0	0	8197	639880	0	0
2024-06-17 08:59:32			0	36095	0	0	0	23875	22420	143829	27405	1008059	42082	108807	0	0	8200	636940	0	0
2024-06-17 09:00:32			0	36163	0	0	0	23875	22430	143509	27343	1008068	42093	108807	0	0	8204	633973	0	0
2024-06-17 09:01:32			0	36221	0	0	0	23885	22440	143377	27300	1008138	42094	108811	0	0	8207	631445	0	0
2024-06-17 09:02:32			0	36231	0	0	0	23903	22450	143289	27488	1008182	42106	108818	0	0	8207	630981	0	0
2024-06-17 09:03:32			0	36169	0	0	0	23903	22460	143453	27133	1008226	42085	108818	0	0	8204	633609	0	0
2024-06-17 09:04:32			0	36108	0	0	0	23914	22460	143769	27338	1008208	42108	108822	0	0	8201	636236	0	0
2024-06-17 09:05:32			0	36037	0	0	0	23922	22470	144017	27403	1008243	42119	108825	0	0	8197	639269	0	0
2024-06-17 09:06:32			0	35953	0	0	0	23937	22470	144313	27293	1008305	42085	108831	0	0	8192	642912	0	0
2024-06-17 09:07:32			0	35858	0	0	0	23940	22480	144677	27376	1008322	42087	108832	0	0	8187	647014	0	0
2024-06-17 09:08:32			0	35809	0	0	0	23948	22500	144824	27338	1008348	42099	108835	0	0	8184	649083	0	0
2024-06-17 09:09:32			0	35763	0	0	0	23958	22500	145044	27150	1008409	42100	108839	0	0	8182	651098	0	0
2024-06-17 09:10:32			0	35705	0	0	0	23961	22520	145180	26804	1008542	42113	108840	0	0	8179	653572	0	0
2024-06-17 09:11:32			0	35671	0	0	0	23976	22510	145348	27346	1008480	42101	108846	0	0	8176	655104	0	0
2024-06-17 09:12:32			0	35669	0	0	0	23992	22520	145356	27204	1008523	42102	108852	0	0	8176	655156	0	0
2024-06-17 09:13:32			0	35669	0	0	0	23979	22530	145400	27256	1008514	42103	108847	0	0	8176	655119	0	0
2024-06-17 09:14:32			0	35638	0	0	0	23971	22540	145592	27237	1008558	42104	108844	0	0	8175	656449	0	0
2024-06-17 09:15:32			0	35645	0	0	0	23976	22540	145524	27514	1008549	42114	108846	0	0	8175	656140	0	0
2024-06-17 09:16:32			0	35634	0	0	0	23981	22540	145604	27383	1008611	42104	108848	0	0	8174	656626	0	0
2024-06-17 09:17:32			0	35628	0	0	0	23984	22550	145572	27402	1008593	42094	108849	0	0	8174	656854	0	0
2024-06-17 09:18:32			0	35632	0	0	0	23986	22550	145592	27338	1008593	42105	108850	0	0	8174	656677	0	0
2024-06-17 09:19:32			0	35617	0	0	0	23992	22560	145588	27177	1008672	42106	108852	0	0	8173	657302	0	0
2024-06-17 09:20:32			0	35641	0	0	0	24010	22550	145592	27135	1008655	42094	108859	0	0	8174	656280	0	0
2024-06-17 09:21:32			0	35631	0	0	0	23997	22560	145556	27654	1008637	42094	108854	0	0	8174	656684	0	0
2024-06-17 09:22:32			0	35642	0	0	0	24002	22560	145564	27343	1008672	42106	108856	0	0	8175	656199	0	0
2024-06-17 09:23:32			0	35633	0	0	0	23992	22570	145548	27306	1008734	42107	108852	0	0	8174	656559	0	0
2024-06-17 09:24:32			0	35660	0	0	0	24010	22570	145484	27287	1008734	42107	108859	0	0	8176	655369	0	0
2024-06-17 09:25:32			0	35649	0	0	0	24012	22590	145524	27377	1008813	42108	108860	0	0	8175	655781	0	0
2024-06-17 09:26:32			0	35653	0	0	0	24023	22580	145484	27509	1008804	42108	108864	0	0	8175	655641	0	0
2024-06-17 09:27:32			0	35666	0	0	0	24025	22590	145440	27450	1008786	42108	108865	0	0	8176	655032	0	0
2024-06-17 09:28:32			0	35683	0	0	0	24031	22600	145360	27168	1008857	42110	108867	0	0	8177	654247	0	0
2024-06-17 09:29:32			0	35694	0	0	0	24031	22610	145392	27253	1008874	42110	108867	0	0	8177	653726	0	0
2024-06-17 09:30:32			0	35688	0	0	0	24036	22610	145336	27331	1008855	42099	108869	0	0	8177	653990	0	0
2024-06-17 09:31:32			0	35710	0	0	0	24041	22600	145304	27291	1008892	42121	108871	0	0	8178	653060	0	0
2024-06-17 09:32:32			0	35719	0	0	0	24044	22600	145212	27235	1008865	42098	108872	0	0	8178	652664	0	0
2024-06-17 09:33:32			0	35707	0	0	0	24046	22610	145152	27173	1008820	42110	108873	0	0	8178	653155	0	0
2024-06-17 09:34:32			0	35710	0	0	0	24049	22620	145088	27036	1008899	42100	108874	0	0	8178	652987	0	0
2024-06-17 09:35:32			0	35729	0	0	0	24049	22620	145204	27119	1008926	42111	108874	0	0	8179	652152	0	0
2024-06-17 09:36:32			0	35756	0	0	0	24062	22630	145196	27196	1008961	42100	108879	0	0	8180	650931	0	0
2024-06-17 09:37:32			0	35732	0	0	0	24049	22630	145132	27175	1008934	42111	108874	0	0	8179	651984	0	0
2024-06-17 09:38:32			0	35753	0	0	0	24049	22630	145040	27319	1009041	42123	108874	0	0	8180	651063	0	0
2024-06-17 09:39:32			0	35779	0	0	0	24059	22640	144912	27452	1008978	42102	108878	0	0	8181	649887	0	0
2024-06-17 09:40:32			0	35791	0	0	0	24062	22630	144860	27346	1008916	42112	108879	0	0	8182	649398	0	0
2024-06-17 09:41:32			0	35811	0	0	0	24059	22640	144820	27419	1008987	42125	108878	0	0	8183	648487	0	0
2024-06-17 09:42:32			0	35800	0	0	0	24064	22650	144848	27533	1009049	42125	108880	0	0	8182	648932	0	0
2024-06-17 09:43:32			0	35818	0	0	0	24070	22650	144764	27343	1009022	42114	108882	0	0	8183	648145	0	0
2024-06-17 09:44:32			0	35837	0	0	0	24080	22650	144648	26979	1009057	42103	108886	0	0	8184	647315	0	0
2024-06-17 09:45:32			0	35853	0	0	0	24072	22650	144780	27531	1009030	42125	108883	0	0	8185	646617	0	0
2024-06-17 09:46:32			0	35847	0	0	0	24088	22660	144612	27407	1009119	42115	108889	0	0	8185	646842	0	0
2024-06-17 09:47:32			0	35874	0	0	0	24093	22660	144605	26948	1009146	42115	108891	0	0	8186	645665	0	0
2024-06-17 09:48:32			0	35879	0	0	0	24093	22660	144557	27365	1009127	42126	108891	0	0	8186	645447	0	0
2024-06-17 09:49:32			0	35891	0	0	0	24106	22670	144449	27445	1009243	42116	108896	0	0	8187	644889	0	0
2024-06-17 09:50:32			0	35905	0	0	0	24103	22670	144453	27255	1009163	42138	108895	0	0	8188	644279	0	0
2024-06-17 09:51:32			0	35924	0	0	0	24106	22680	144369	27422	1009260	42127	108896	0	0	8189	643417	0	0
2024-06-17 09:52:32			0	35919	0	0	0	24109	22670	144305	27147	1009278	42116	108897	0	0	8188	643670	0	0
2024-06-17 09:53:32			0	35941	0	0	0	24116	22680	144225	26968	1009268	42128	108900	0	0	8189	642678	0	0
2024-06-17 09:54:32			0	35945	0	0	0	24116	22690	144297	27119	1009250	42107	108900	0	0	8190	642468	0	0
2024-06-17 09:55:32			0	35967	0	0	0	24119	22690	144205	27800	1009250	42107	108901	0	0	8191	641514	0	0
2024-06-17 09:56:32			0	35984	0	0	0	24116	22680	144125	27405	1009242	42118	108900	0	0	8192	640812	0	0
2024-06-17 09:57:32			0	35991	0	0	0	24114	22690	144049	27369	1009285	42118	108899	0	0	8192	640473	0	0
2024-06-17 09:58:32			0	36007	0	0	0	24119	22680	144037	27260	1009215	42128	108901	0	0	8193	639816	0	0
2024-06-17 09:59:32			0	36027	0	0	0	24116	22690	143977	27453	1009277	42118	108900	0	0	8194	638915	0	0
2024-06-17 10:00:32			0	36039	0	0	0	24119	22700	143909	27327	1009356	42108	108901	0	0	8195	638360	0	0
2024-06-17 10:01:32			0	36045	0	0	0	24124	22700	143885	27317	1009329	42120	108903	0	0	8195	638101	0	0
2024-06-17 10:02:32			0	36079	0	0	0	24124	22700	143769	27256	1009303	42120	108903	0	0	8197	636633	0	0
2024-06-17 10:03:32			0	36075	0	0	0	24129	22700	143653	27376	1009356	42130	108905	0	0	8196	636806	0	0
2024-06-17 10:04:32			0	36089	0	0	0	24132	22710	143645	27279	1009391	42121	108906	0	0	8197	636166	0	0
2024-06-17 10:05:32			0	36119	0	0	0	24132	22700	143669	27131	1009409	42120	108906	0	0	8199	634909	0	0
2024-06-17 10:06:32			0	36116	0	0	0	24135	22710	143497	27187	1009365	42142	108907	0	0	8198	635003	0	0
2024-06-17 10:07:32			0	36138	0	0	0	24137	22720	143457	27459	1009435	42121	108908	0	0	8200	634020	0	0
2024-06-17 10:08:32			0	36155	0	0	0	24148	22720	143305	27350	1009417	42121	108912	0	0	8200	633289	0	0
2024-06-17 10:09:32			0	36169	0	0	0	24140	22710	143377	27258	1009400	42121	108909	0	0	8201	632723	0	0
2024-06-17 10:10:32			0	36186	0	0	0	24145	22720	143285	27393	1009364	42121	108911	0	0	8202	631958	0	0
2024-06-17 10:11:32			0	36215	0	0	0	24140	22720	143185	27209	1009355	42109	108909	0	0	8204	630714	0	0
2024-06-17 10:12:32			0	36240	0	0	0	24140	22720	143077	27211	1009337	42110	108909	0	0	8205	629643	0	0
2024-06-17 10:13:32			0	36265	0	0	0	24145	22710	143085	27218	1009426	42109	108911	0	0	8206	628609	0	0
2024-06-17 10:14:32			0	36273	0	0	0	24148	22720	142945	27284	1009417	42132	108912	0	0	8207	628232	0	0
2024-06-17 10:15:32			0	36285	0	0	0	24145	22730	142929	27357	1009452	42133	108911	0	0	8207	627684	0	0
2024-06-17 10:16:32			0	36297	0	0	0	24158	22730	142985	27630	1009479	42133	108916	0	0	8208	627172	0	0
2024-06-17 10:17:32			0	36313	0	0	0	24163	22730	142877	27405	1009514	42122	108918	0	0	8208	626489	0	0
2024-06-17 10:18:32			0	36313	0	0	0	24155	22740	142745	27339	1009469	42122	108915	0	0	8209	626454	0	0
2024-06-17 10:19:32			0	36301	0	0	0	24161	22730	142633	27396	1009541	42122	108917	0	0	8208	627001	0	0
2024-06-17 10:20:32			0	36329	0	0	0	24166	22740	142653	27253	1009469	42133	108919	0	0	8209	625772	0	0
2024-06-17 10:21:32			0	36352	0	0	0	24168	22740	142609	27104	1009558	42123	108920	0	0	8211	624792	0	0
2024-06-17 10:22:32			0	36361	0	0	0	24166	22740	142733	27312	1009531	42123	108919	0	0	8211	624409	0	0
2024-06-17 10:23:32			0	36377	0	0	0	24168	22750	142617	27303	1009513	42113	108920	0	0	8212	623693	0	0
2024-06-17 10:24:32			0	36379	0	0	0	24163	22740	142665	27026	1009504	42123	108918	0	0	8212	623643	0	0
2024-06-17 10:25:32			0	36367	0	0	0	24173	22740	142469	27079	1009504	42112	108922	0	0	8211	624154	0	0
2024-06-17 10:26:32			0	36390	0	0	0	24163	22740	142461	27367	1009478	42123	108918	0	0	8213	623176	0	0
2024-06-17 10:27:32			0	36390	0	0	0	24158	22740	142437	27587	1009478	42123	108916	0	0	8213	623176	0	0
2024-06-17 10:28:32			0	36392	0	0	0	24161	22730	142405	27296	1009461	42122	108917	0	0	8213	623126	0	0
2024-06-17 10:29:32			0	36442	0	0	0	24161	22740	142373	27138	1009531	42123	108917	0	0	8215	620969	0	0
2024-06-17 10:30:32			0	36418	0	0	0	24155	22740	142373	27306	1009531	42123	108915	0	0	8214	621987	0	0
2024-06-17 10:31:32			0	36426	0	0	0	24163	22740	142341	27403	1009469	42122	108918	0	0	8215	621647	0	0
2024-06-17 10:32:32			0	36448	0	0	0	24155	22730	142313	27197	1009487	42133	108915	0	0	8216	620749	0	0
2024-06-17 10:33:32			0	36447	0	0	0	24153	22740	142301	27386	1009442	42122	108914	0	0	8216	620757	0	0
2024-06-17 10:34:32			0	36453	0	0	0	24158	22740	142289	27633	1009531	42134	108916	0	0	8216	620502	0	0
2024-06-17 10:35:32			0	36462	0	0	0	24161	22740	142309	27388	1009478	42134	108917	0	0	8216	620121	0	0
2024-06-17 10:36:32			0	36464	0	0	0	24158	22740	142281	27230	1009504	42134	108916	0	0	8217	620036	0	0
2024-06-17 10:37:32			0	36464	0	0	0	24158	22760	142205	27126	1009539	42125	108916	0	0	8217	619967	0	0
2024-06-17 10:38:32			0	36481	0	0	0	24161	22750	142189	27286	1009540	42134	108917	0	0	8217	619282	0	0
2024-06-17 10:39:32			0	36482	0	0	0	24163	22760	142209	27256	1009592	42125	108918	0	0	8218	619205	0	0
2024-06-17 10:40:32			0	36501	0	0	0	24171	22760	142109	27263	1009618	42125	108921	0	0	8218	618402	0	0
2024-06-17 10:41:32			0	36492	0	0	0	24184	22780	142097	27012	1009751	42137	108926	0	0	8218	618713	0	0
2024-06-17 10:42:32			0	36510	0	0	0	24212	22780	142021	27013	1009813	42137	108937	0	0	8218	617952	0	0
2024-06-17 10:43:32			0	36507	0	0	0	24218	22810	142005	27530	1009829	42151	108939	0	0	8218	617975	0	0
2024-06-17 10:44:32			0	36508	0	0	0	24246	22810	142021	26951	1009962	42129	108950	0	0	8218	617933	0	0
2024-06-17 10:45:32			0	36518	0	0	0	24264	22820	141929	27239	1009988	42130	108957	0	0	8218	617476	0	0
2024-06-17 10:46:32			0	36505	0	0	0	24293	22820	142001	27303	1010015	42152	108968	0	0	8217	618025	0	0
2024-06-17 10:47:32			0	36532	0	0	0	24290	22840	141905	27241	1010076	42166	108967	0	0	8218	616816	0	0
2024-06-17 10:48:32			0	36525	0	0	0	24309	22850	141857	27287	1010093	42133	108974	0	0	8218	617076	0	0
2024-06-17 10:49:32			0	36546	0	0	0	24324	22870	141853	26922	1010172	42146	108980	0	0	8219	616122	0	0
2024-06-17 10:50:32			0	36539	0	0	0	24342	22870	141893	27189	1010199	42146	108987	0	0	8218	616417	0	0
2024-06-17 10:51:32			0	36539	0	0	0	24358	22900	141845	27024	1010295	42137	108993	0	0	8218	616313	0	0
2024-06-17 10:52:32			0	36558	0	0	0	24379	22910	141857	27234	1010392	42160	109001	0	0	8219	615478	0	0
2024-06-17 10:53:32			0	36534	0	0	0	24399	22930	141833	26975	1010426	42151	109009	0	0	8217	616421	0	0
2024-06-17 10:54:32			0	36547	0	0	0	24399	22940	141785	27098	1010523	42163	109009	0	0	8218	615838	0	0
2024-06-17 10:55:32			0	36556	0	0	0	24425	22950	141785	27041	1010549	42165	109019	0	0	8218	615424	0	0
2024-06-17 10:56:32			0	36562	0	0	0	24433	22950	141717	27133	1010567	42164	109022	0	0	8218	615172	0	0
2024-06-17 10:57:32			0	36573	0	0	0	24441	22970	141737	27066	1010663	42156	109025	0	0	8219	614640	0	0
2024-06-17 10:58:32			0	36575	0	0	0	24451	22980	141757	27190	1010698	42156	109029	0	0	8219	614521	0	0
2024-06-17 10:59:32			0	36574	0	0	0	24449	22990	141713	27149	1010716	42146	109028	0	0	8219	614529	0	0
2024-06-17 11:00:32			0	36582	0	0	0	24457	22990	141629	27196	1010697	42157	109031	0	0	8219	614192	0	0
2024-06-17 11:01:32			0	36603	0	0	0	24457	23000	141730	26826	1010679	42169	109031	0	0	8220	613275	0	0
2024-06-17 11:02:32			0	36586	0	0	0	24454	23000	141565	27248	1010733	42158	109030	0	0	8219	613990	0	0
2024-06-17 11:03:32			0	36586	0	0	0	24464	23000	141601	27294	1010741	42147	109034	0	0	8219	613990	0	0
2024-06-17 11:04:32			0	36598	0	0	0	24451	23000	141593	26726	1010768	42169	109029	0	0	8220	613485	0	0
2024-06-17 11:05:32			0	36590	0	0	0	24462	23020	141537	27227	1010775	42150	109033	0	0	8219	613753	0	0
2024-06-17 11:06:32			0	36612	0	0	0	24454	23010	141574	26807	1010785	42159	109030	0	0	8221	612863	0	0
2024-06-17 11:07:32			0	36607	0	0	0	24449	23020	141494	26984	1010775	42161	109028	0	0	8220	613039	0	0
2024-06-17 11:08:32			0	36623	0	0	0	24449	23020	141430	27372	1010820	42160	109028	0	0	8221	612367	0	0
2024-06-17 11:09:32			0	36623	0	0	0	24451	23010	141462	27090	1010812	42170	109029	0	0	8221	612401	0	0
2024-06-17 11:10:32			0	36627	0	0	0	24451	23020	141438	27064	1010855	42150	109029	0	0	8221	612199	0	0
2024-06-17 11:11:32			0	36620	0	0	0	24441	23020	141438	27320	1010793	42138	109025	0	0	8221	612493	0	0
2024-06-17 11:12:32			0	36647	0	0	0	24446	23030	141394	26925	1010811	42150	109027	0	0	8223	611326	0	0
2024-06-17 11:13:32			0	36637	0	0	0	24444	23030	141386	26932	1010784	42161	109026	0	0	8222	611745	0	0
2024-06-17 11:14:32			0	36671	0	0	0	24449	23020	141314	27175	1010802	42161	109028	0	0	8224	610355	0	0
2024-06-17 11:15:32			0	36640	0	0	0	24457	23030	141338	27352	1010792	42183	109031	0	0	8222	611619	0	0
2024-06-17 11:16:32			0	36657	0	0	0	24454	23040	141374	27083	1010774	42162	109030	0	0	8223	610872	0	0
2024-06-17 11:17:32			0	36654	0	0	0	24459	23030	141342	26979	1010872	42150	109032	0	0	8223	611032	0	0
2024-06-17 11:18:32			0	36666	0	0	0	24467	23040	141282	27142	1010881	42162	109035	0	0	8223	610495	0	0
2024-06-17 11:19:32			0	36671	0	0	0	24483	23040	141210	27393	1010890	42173	109041	0	0	8223	610286	0	0
2024-06-17 11:20:32			0	36651	0	0	0	24483	23060	141258	27196	1010969	42164	109041	0	0	8222	611055	0	0
2024-06-17 11:21:32			0	36676	0	0	0	24490	23050	141206	27098	1010987	42173	109044	0	0	8224	610043	0	0
2024-06-17 11:22:32			0	36667	0	0	0	24493	23060	141198	27234	1010942	42153	109045	0	0	8223	610385	0	0
2024-06-17 11:23:32			0	36684	0	0	0	24503	23060	141258	27150	1011004	42165	109049	0	0	8224	609674	0	0
2024-06-17 11:24:32			0	36673	0	0	0	24529	23070	141226	27062	1011155	42176	109059	0	0	8223	610100	0	0
2024-06-17 11:25:32			0	36683	0	0	0	24532	23090	141214	27185	1011100	42178	109060	0	0	8223	609613	0	0
2024-06-17 11:26:32			0	36670	0	0	0	24540	23090	141190	27499	1011127	42156	109063	0	0	8223	610157	0	0
2024-06-17 11:27:32			0	36669	0	0	0	24548	23090	141250	27246	1011162	42178	109066	0	0	8222	610199	0	0
2024-06-17 11:28:32			0	36659	0	0	0	24548	23100	141190	27098	1011197	42178	109066	0	0	8222	610583	0	0
2024-06-17 11:29:32			0	36687	0	0	0	24555	23110	141174	27268	1011161	42168	109069	0	0	8223	609377	0	0
2024-06-17 11:30:32			0	36682	0	0	0	24558	23110	141142	27296	1011276	42168	109070	0	0	8223	609586	0	0
2024-06-17 11:31:32			0	36693	0	0	0	24558	23110	141142	27105	1011303	42158	109070	0	0	8224	609126	0	0
2024-06-17 11:32:32			0	36687	0	0	0	24571	23120	141038	27211	1011374	42159	109075	0	0	8223	609343	0	0
2024-06-17 11:33:32			0	36698	0	0	0	24568	23130	141106	27097	1011409	42193	109074	0	0	8224	608849	0	0
2024-06-17 11:34:32			0	36692	0	0	0	24581	23140	141102	27140	1011373	42181	109079	0	0	8223	609066	0	0
2024-06-17 11:35:32			0	36702	0	0	0	24576	23130	141010	27053	1011337	42181	109077	0	0	8224	608682	0	0
2024-06-17 11:36:32			0	36711	0	0	0	24584	23140	141082	27097	1011408	42182	109080	0	0	8224	608272	0	0
2024-06-17 11:37:32			0	36714	0	0	0	24586	23140	140982	27289	1011426	42160	109081	0	0	8224	608146	0	0
2024-06-17 11:38:32			0	36731	0	0	0	24576	23160	141054	27079	1011433	42184	109077	0	0	8225	607369	0	0
2024-06-17 11:39:32			0	36710	0	0	0	24599	23170	141034	27185	1011442	42173	109086	0	0	8224	608211	0	0
2024-06-17 11:40:32			0	36727	0	0	0	24607	23150	141058	27154	1011523	42183	109089	0	0	8225	607570	0	0
2024-06-17 11:41:32			0	36749	0	0	0	24638	23180	140962	27008	1011619	42186	109101	0	0	8225	606550	0	0
2024-06-17 11:42:32			0	36728	0	0	0	24638	23190	140950	27071	1011591	42176	109101	0	0	8224	607391	0	0
2024-06-17 11:43:32			0	36721	0	0	0	24633	23190	140926	27081	1011583	42175	109099	0	0	8224	607684	0	0
2024-06-17 11:44:32			0	36735	0	0	0	24625	23190	140906	27715	1011538	42187	109096	0	0	8225	607100	0	0
2024-06-17 11:45:32			0	36740	0	0	0	24633	23190	140866	27390	1011618	42187	109099	0	0	8225	606891	0	0
2024-06-17 11:46:32			0	36739	0	0	0	24620	23190	140882	27391	1011591	42187	109094	0	0	8225	606933	0	0
2024-06-17 11:47:32			0	36793	0	0	0	24625	23190	140886	27225	1011591	42176	109096	0	0	8228	604684	0	0
2024-06-17 11:48:32			0	36779	0	0	0	24636	23200	140778	27360	1011654	42188	109100	0	0	8227	605232	0	0
2024-06-17 11:49:32			0	36781	0	0	0	24646	23210	140786	27059	1011759	42200	109104	0	0	8227	605115	0	0
2024-06-17 11:50:32			0	36789	0	0	0	24664	23210	140718	27249	1011813	42200	109111	0	0	8227	604782	0	0
2024-06-17 11:51:32			0	36765	0	0	0	24693	23230	140722	27197	1011865	42191	109122	0	0	8226	605713	0	0
2024-06-17 11:52:32			0	36795	0	0	0	24709	23240	140654	27275	1011971	42204	109128	0	0	8227	604431	0	0
2024-06-17 11:53:32			0	36805	0	0	0	24724	23250	140754	27502	1011935	42192	109134	0	0	8227	603981	0	0
2024-06-17 11:54:32			0	36799	0	0	0	24732	23260	140610	27306	1011978	42194	109137	0	0	8227	604197	0	0
2024-06-17 11:55:32			0	36784	0	0	0	24735	23270	140638	26882	1011987	42194	109138	0	0	8226	604787	0	0
2024-06-17 11:56:32			0	36810	0	0	0	24750	23280	140606	27055	1012057	42207	109144	0	0	8227	603672	0	0
2024-06-17 11:57:32			0	36817	0	0	0	24755	23290	140626	27001	1012110	42197	109146	0	0	8227	603347	0	0
2024-06-17 11:58:32			0	36810	0	0	0	24753	23300	140598	27507	1012092	42197	109145	0	0	8227	603604	0	0
2024-06-17 11:59:32			0	36823	0	0	0	24761	23300	140490	27220	1012180	42198	109148	0	0	8228	603064	0	0
2024-06-17 12:00:32			0	36825	0	0	0	24761	23300	140486	27322	1012154	42198	109148	0	0	8228	602981	0	0
2024-06-17 12:01:32			0	36826	0	0	0	24753	23310	140434	27281	1012135	42199	109145	0	0	8228	602906	0	0
2024-06-17 12:02:32			0	36837	0	0	0	24748	23310	140478	27308	1012082	42199	109143	0	0	8229	602449	0	0
2024-06-17 12:03:32			0	36847	0	0	0	24727	23310	140526	27270	1012082	42199	109135	0	0	8230	602035	0	0
2024-06-17 12:04:32			0	36875	0	0	0	24711	23300	140450	27182	1012100	42175	109129	0	0	8231	600908	0	0
2024-06-17 12:05:32			0	36851	0	0	0	24709	23300	140450	27225	1012012	42186	109128	0	0	8230	601903	0	0
2024-06-17 12:06:32			0	36880	0	0	0	24706	23300	140446	27320	1011985	42174	109127	0	0	8232	600701	0	0
2024-06-17 12:07:32			0	36868	0	0	0	24685	23290	140390	27391	1011976	42197	109119	0	0	8231	601232	0	0
2024-06-17 12:08:32			0	36894	0	0	0	24703	23290	140410	27265	1011995	42208	109126	0	0	8232	600156	0	0
2024-06-17 12:09:32			0	36923	0	0	0	24706	23300	140330	27128	1012012	42186	109127	0	0	8234	598923	0	0
2024-06-17 12:10:32			0	36887	0	0	0	24698	23300	140314	27310	1012012	42186	109124	0	0	8232	600412	0	0
2024-06-17 12:11:32			0	36895	0	0	0	24709	23290	140254	27447	1012083	42197	109128	0	0	8232	600114	0	0
2024-06-17 12:12:32			0	36921	0	0	0	24716	23300	140262	27206	1012100	42187	109131	0	0	8234	599005	0	0
2024-06-17 12:13:32			0	36902	0	0	0	24737	23310	140290	27291	1012162	42199	109139	0	0	8232	599757	0	0
2024-06-17 12:14:32			0	36905	0	0	0	24748	23310	140214	27419	1012171	42188	109143	0	0	8232	599633	0	0
2024-06-17 12:15:32			0	36896	0	0	0	24758	23320	140262	27348	1012233	42199	109147	0	0	8232	599972	0	0
2024-06-17 12:16:32			0	36902	0	0	0	24763	23320	140294	27268	1012242	42200	109149	0	0	8232	599724	0	0
2024-06-17 12:17:32			0	36910	0	0	0	24766	23330	140286	27469	1012312	42189	109150	0	0	8232	599359	0	0
2024-06-17 12:18:32			0	36898	0	0	0	24789	23340	140214	27324	1012294	42201	109159	0	0	8231	599822	0	0
2024-06-17 12:19:32			0	36894	0	0	0	24784	23340	140306	27433	1012249	42202	109157	0	0	8231	599987	0	0
2024-06-17 12:20:32			0	36903	0	0	0	24786	23340	140210	27379	1012321	42211	109158	0	0	8232	599615	0	0
2024-06-17 12:21:32			0	36899	0	0	0	24802	23350	140322	27147	1012364	42213	109164	0	0	8231	599747	0	0
2024-06-17 12:22:32			0	36881	0	0	0	24805	23350	140250	27312	1012346	42213	109165	0	0	8230	600491	0	0
2024-06-17 12:23:32			0	36900	0	0	0	24807	23360	140330	26991	1012443	42192	109166	0	0	8231	599672	0	0
2024-06-17 12:24:32			0	36884	0	0	0	24805	23350	140378	27282	1012373	42202	109165	0	0	8230	600367	0	0
2024-06-17 12:25:32			0	36890	0	0	0	24805	23360	140374	26963	1012355	42203	109165	0	0	8231	600085	0	0
2024-06-17 12:26:32			0	36883	0	0	0	24802	23380	140406	27317	1012469	42205	109164	0	0	8231	600307	0	0
2024-06-17 12:27:32			0	36864	0	0	0	24812	23370	140346	27282	1012487	42205	109168	0	0	8229	601128	0	0
2024-06-17 12:28:32			0	36860	0	0	0	24818	23380	140282	27272	1012531	42205	109170	0	0	8229	601259	0	0
2024-06-17 12:29:32			0	36861	0	0	0	24818	23380	140438	27220	1012478	42216	109170	0	0	8229	601218	0	0
2024-06-17 12:30:32			0	36862	0	0	0	24805	23390	140478	27203	1012486	42195	109165	0	0	8229	601143	0	0
2024-06-17 12:31:32			0	36848	0	0	0	24802	23380	140338	27060	1012398	42205	109164	0	0	8229	601757	0	0
2024-06-17 12:32:32			0	36853	0	0	0	24794	23380	140434	27261	1012424	42205	109161	0	0	8229	601549	0	0
2024-06-17 12:33:32			0	36827	0	0	0	24797	23380	140462	27415	1012496	42194	109162	0	0	8228	602627	0	0
2024-06-17 12:34:32			0	36823	0	0	0	24812	23390	140554	27211	1012548	42207	109168	0	0	8227	602759	0	0
2024-06-17 12:35:32			0	36812	0	0	0	24825	23390	140546	27396	1012548	42240	109173	0	0	8226	603216	0	0
2024-06-17 12:36:32			0	36796	0	0	0	24836	23390	140626	26930	1012602	42207	109177	0	0	8225	603880	0	0
2024-06-17 12:37:32			0	36797	0	0	0	24841	23400	140574	27448	1012565	42207	109179	0	0	8225	603805	0	0
2024-06-17 12:38:32			0	36796	0	0	0	24849	23400	140734	26979	1012610	42229	109182	0	0	8225	603846	0	0
2024-06-17 12:39:32			0	36767	0	0	0	24849	23410	140670	27303	1012582	42219	109182	0	0	8224	605018	0	0
2024-06-17 12:40:32			0	36766	0	0	0	24859	23420	140658	27019	1012671	42208	109186	0	0	8224	605026	0	0
2024-06-17 12:41:32			0	36757	0	0	0	24864	23430	140718	27036	1012715	42209	109188	0	0	8223	605366	0	0
2024-06-17 12:42:32			0	36739	0	0	0	24864	23430	140718	27152	1012715	42209	109188	0	0	8222	606115	0	0
2024-06-17 12:43:32			0	36741	0	0	0	24864	23440	140814	27291	1012741	42222	109188	0	0	8222	605998	0	0
2024-06-17 12:44:32			0	36736	0	0	0	24870	23440	140878	27429	1012768	42222	109190	0	0	8222	606206	0	0
2024-06-17 12:45:32			0	36714	0	0	0	24877	23450	140838	27294	1012856	42211	109193	0	0	8221	607089	0	0
2024-06-17 12:46:32			0	36706	0	0	0	24880	23450	140822	27149	1012803	42222	109194	0	0	8220	607422	0	0
2024-06-17 12:47:32			0	36709	0	0	0	24877	23450	140994	27367	1012830	42222	109193	0	0	8220	607297	0	0
2024-06-17 12:48:32			0	36680	0	0	0	24888	23450	140974	27447	1012803	42211	109197	0	0	8219	608507	0	0
2024-06-17 12:49:32			0	36689	0	0	0	24872	23470	141022	27305	1012829	42213	109191	0	0	8220	608063	0	0
2024-06-17 12:50:32			0	36658	0	0	0	24890	23470	140950	27246	1012829	42213	109198	0	0	8218	609358	0	0
2024-06-17 12:51:32			0	36648	0	0	0	24893	23480	141082	27287	1012899	42225	109199	0	0	8217	609741	0	0
2024-06-17 12:52:32			0	36657	0	0	0	24901	23470	141042	27422	1012917	42246	109202	0	0	8217	609399	0	0
2024-06-17 12:53:32			0	36634	0	0	0	24898	23470	141078	27187	1012917	42224	109201	0	0	8216	610361	0	0
2024-06-17 12:54:32			0	36656	0	0	0	24909	23490	141146	27085	1012996	42237	109205	0	0	8217	609373	0	0
2024-06-17 12:55:32			0	36632	0	0	0	24916	23490	141158	27556	1013032	42227	109208	0	0	8216	610376	0	0
2024-06-17 12:56:32			0	36617	0	0	0	24916	23500	141154	27542	1013040	42227	109208	0	0	8215	610970	0	0
2024-06-17 12:57:32			0	36614	0	0	0	24932	23500	141130	27445	1013049	42227	109214	0	0	8215	611096	0	0
2024-06-17 12:58:32			0	36613	0	0	0	24937	23510	141218	27331	1013093	42240	109216	0	0	8215	611103	0	0
2024-06-17 12:59:32			0	36590	0	0	0	24948	23500	141298	27504	1013102	42227	109220	0	0	8213	612101	0	0
2024-06-17 13:00:32			0	36593	0	0	0	24955	23510	141265	27150	1013199	42228	109223	0	0	8213	611941	0	0
2024-06-17 13:01:32			0	36599	0	0	0	24958	23520	141338	27339	1013181	42228	109224	0	0	8214	611655	0	0
2024-06-17 13:02:32			0	36588	0	0	0	24971	23530	141397	27112	1013287	42242	109229	0	0	8213	612081	0	0
2024-06-17 13:03:32			0	36586	0	0	0	24981	23540	141337	27365	1013269	42231	109233	0	0	8213	612131	0	0
2024-06-17 13:04:32			0	36556	0	0	0	24986	23540	141401	27119	1013322	42220	109235	0	0	8211	613389	0	0
2024-06-17 13:05:32			0	36570	0	0	0	24992	23550	141273	27227	1013375	42243	109237	0	0	8212	612767	0	0
2024-06-17 13:06:32			0	36541	0	0	0	25005	23550	141365	27305	1013455	42232	109242	0	0	8210	613985	0	0
2024-06-17 13:07:32			0	36562	0	0	0	25015	23570	141357	27556	1013436	42245	109246	0	0	8211	613034	0	0
2024-06-17 13:08:32			0	36558	0	0	0	25023	23580	141397	27241	1013507	42235	109249	0	0	8211	613167	0	0
2024-06-17 13:09:32			0	36538	0	0	0	25044	23580	141389	27299	1013560	42235	109257	0	0	8209	614007	0	0
2024-06-17 13:10:32			0	36535	0	0	0	25041	23600	141393	26941	1013586	42237	109256	0	0	8209	614064	0	0
2024-06-17 13:11:32			0	36524	0	0	0	25038	23600	141513	27454	1013594	42226	109255	0	0	8209	614526	0	0
2024-06-17 13:12:32			0	36529	0	0	0	25054	23620	141417	27204	1013620	42239	109261	0	0	8209	614247	0	0
2024-06-17 13:13:32			0	36545	0	0	0	25057	23610	141365	27454	1013683	42238	109262	0	0	8209	613610	0	0
2024-06-17 13:14:32			0	36519	0	0	0	25059	23620	141477	27256	1013736	42239	109263	0	0	8208	614667	0	0
2024-06-17 13:15:32			0	36522	0	0	0	25067	23630	141509	27317	1013717	42239	109266	0	0	8208	614506	0	0
2024-06-17 13:16:32			0	36521	0	0	0	25070	23640	141457	27289	1013761	42251	109267	0	0	8208	614514	0	0
2024-06-17 13:17:32			0	36511	0	0	0	25088	23640	141533	27182	1013788	42240	109274	0	0	8207	614934	0	0
2024-06-17 13:18:32			0	36509	0	0	0	25090	23640	141509	27258	1013797	42230	109275	0	0	8207	615018	0	0
2024-06-17 13:19:32			0	36511	0	0	0	25090	23660	141497	27211	1013822	42242	109275	0	0	8207	614865	0	0
2024-06-17 13:20:32			0	36522	0	0	0	25106	23660	141525	27074	1013849	42264	109281	0	0	8208	614403	0	0
2024-06-17 13:21:32			0	36515	0	0	0	25116	23660	141509	27211	1013938	42243	109285	0	0	8207	614697	0	0
2024-06-17 13:22:32			0	36510	0	0	0	25145	23690	141537	27476	1014008	42279	109296	0	0	8206	614803	0	0
2024-06-17 13:23:32			0	36493	0	0	0	25148	23690	141477	27239	1014016	42267	109297	0	0	8206	615518	0	0
2024-06-17 13:24:32			0	36516	0	0	0	25153	23690	141577	26960	1014141	42235	109299	0	0	8207	614551	0	0
2024-06-17 13:25:32			0	36495	0	0	0	25161	23700	141509	27353	1014060	42268	109302	0	0	8205	615399	0	0
2024-06-17 13:26:32			0	36488	0	0	0	25166	23710	141457	27130	1014157	42248	109304	0	0	8205	615659	0	0
2024-06-17 13:27:32			0	36497	0	0	0	25186	23720	141501	27242	1014166	42258	109312	0	0	8205	615246	0	0
2024-06-17 13:28:32			0	36504	0	0	0	25184	23720	141497	27447	1014166	42248	109311	0	0	8206	614952	0	0
2024-06-17 13:29:32			0	36484	0	0	0	25189	23750	141513	27095	1014315	42261	109313	0	0	8205	615689	0	0
2024-06-17 13:30:32			0	36517	0	0	0	25199	23760	141541	27260	1014333	42251	109317	0	0	8206	614267	0	0
2024-06-17 13:31:32			0	36508	0	0	0	25225	23770	141589	26942	1014438	42275	109327	0	0	8205	614610	0	0
2024-06-17 13:32:32			0	36508	0	0	0	25236	23780	141453	27034	1014447	42276	109331	0	0	8205	614576	0	0
2024-06-17 13:33:32			0	36491	0	0	0	25218	23780	141629	27277	1014367	42243	109324	0	0	8205	615290	0	0
2024-06-17 13:34:32			0	36499	0	0	0	25199	23780	141493	27069	1014375	42253	109317	0	0	8205	614954	0	0
2024-06-17 13:35:32			0	36495	0	0	0	25189	23770	141637	27308	1014323	42230	109313	0	0	8205	615157	0	0
2024-06-17 13:36:32			0	36493	0	0	0	25179	23780	141617	27152	1014260	42232	109309	0	0	8205	615206	0	0
2024-06-17 13:37:32			0	36486	0	0	0	25186	23760	141509	27443	1014261	42251	109312	0	0	8205	615570	0	0
2024-06-17 13:38:32			0	36507	0	0	0	25171	23770	141581	27062	1014323	42241	109306	0	0	8206	614652	0	0
2024-06-17 13:39:32			0	36507	0	0	0	25184	23760	141529	27258	1014288	42251	109311	0	0	8206	614687	0	0
2024-06-17 13:40:32			0	36496	0	0	0	25192	23770	141549	27358	1014278	42252	109314	0	0	8205	615115	0	0
2024-06-17 13:41:32			0	36504	0	0	0	25176	23770	141545	27209	1014332	42242	109308	0	0	8206	614778	0	0
2024-06-17 13:42:32			0	36513	0	0	0	25189	23770	141569	26738	1014278	42242	109313	0	0	8206	614400	0	0
2024-06-17 13:43:32			0	36515	0	0	0	25176	23770	141521	27031	1014305	42264	109308	0	0	8207	614316	0	0
2024-06-17 13:44:32			0	36504	0	0	0	25179	23780	141433	27050	1014349	42253	109309	0	0	8206	614744	0	0
2024-06-17 13:45:32			0	36495	0	0	0	25173	23780	141505	27097	1014349	42264	109307	0	0	8206	615122	0	0
2024-06-17 13:46:32			0	36533	0	0	0	25173	23780	141405	27112	1014260	42253	109307	0	0	8208	613526	0	0
2024-06-17 13:47:32			0	36526	0	0	0	25173	23780	141389	27083	1014260	42253	109307	0	0	8207	613820	0	0
2024-06-17 13:48:32			0	36521	0	0	0	25171	23770	141421	27213	1014278	42242	109306	0	0	8207	614064	0	0
2024-06-17 13:49:32			0	36526	0	0	0	25163	23760	141401	27258	1014181	42263	109303	0	0	8207	613889	0	0
2024-06-17 13:50:32			0	36522	0	0	0	25155	23770	141429	27015	1014225	42231	109300	0	0	8207	614022	0	0
2024-06-17 13:51:32			0	36524	0	0	0	25155	23770	141397	27256	1014296	42263	109300	0	0	8207	613938	0	0
2024-06-17 13:52:32			0	36531	0	0	0	25161	23770	141433	26897	1014225	42252	109302	0	0	8208	613645	0	0
2024-06-17 13:53:32			0	36528	0	0	0	25153	23760	141421	27048	1014234	42251	109299	0	0	8208	613805	0	0
2024-06-17 13:54:32			0	36537	0	0	0	25171	23770	141349	27079	1014305	42242	109306	0	0	8208	613393	0	0
2024-06-17 13:55:32			0	36557	0	0	0	25171	23770	141285	27098	1014270	42241	109306	0	0	8209	612554	0	0
2024-06-17 13:56:32			0	36546	0	0	0	25173	23770	141329	26993	1014332	42264	109307	0	0	8208	613015	0	0
2024-06-17 13:57:32			0	36526	0	0	0	25179	23770	141341	27227	1014350	42241	109309	0	0	8207	613854	0	0
2024-06-17 13:58:32			0	36546	0	0	0	25184	23780	141341	27024	1014394	42253	109311	0	0	8208	612981	0	0
2024-06-17 13:59:32			0	36545	0	0	0	25202	23780	141401	27166	1014375	42253	109318	0	0	8208	613023	0	0
2024-06-17 14:00:32			0	36536	0	0	0	25218	23790	141281	26788	1014411	42264	109324	0	0	8207	613366	0	0
2024-06-17 14:01:32			0	36558	0	0	0	25225	23790	141273	26967	1014473	42277	109327	0	0	8208	612443	0	0
2024-06-17 14:02:32			0	36558	0	0	0	25231	23790	141313	27171	1014553	42254	109329	0	0	8208	612443	0	0
2024-06-17 14:03:32			0	36560	0	0	0	25244	23810	141305	27128	1014641	42279	109334	0	0	8208	612290	0	0
2024-06-17 14:04:32			0	36537	0	0	0	25264	23820	141253	27145	1014676	42257	109342	0	0	8206	613220	0	0
2024-06-17 14:05:32			0	36555	0	0	0	25283	23820	141305	27005	1014738	42269	109349	0	0	8207	612465	0	0
2024-06-17 14:06:32			0	36565	0	0	0	25280	23830	141213	27145	1014702	42269	109348	0	0	8208	612012	0	0
2024-06-17 14:07:32			0	36574	0	0	0	25285	23850	141205	26944	1014808	42260	109350	0	0	8208	611566	0	0
2024-06-17 14:08:32			0	36568	0	0	0	25296	23850	141181	27057	1014816	42271	109354	0	0	8208	611817	0	0
2024-06-17 14:09:32			0	36576	0	0	0	25296	23860	141245	27015	1014860	42273	109354	0	0	8208	611448	0	0
2024-06-17 14:10:32			0	36578	0	0	0	25303	23880	141229	27092	1014886	42285	109357	0	0	8208	611295	0	0
2024-06-17 14:11:32			0	36576	0	0	0	25309	23870	141261	26908	1014896	42251	109359	0	0	8208	611413	0	0
2024-06-17 14:12:32			0	36592	0	0	0	25306	23880	141270	27145	1014895	42252	109358	0	0	8209	610710	0	0
2024-06-17 14:13:32			0	36578	0	0	0	25298	23880	141153	27154	1014886	42262	109355	0	0	8208	611295	0	0
2024-06-17 14:14:32			0	36591	0	0	0	25293	23880	141125	26916	1014833	42251	109353	0	0	8209	610751	0	0
2024-06-17 14:15:32			0	36596	0	0	0	25303	23880	141153	26937	1014868	42263	109357	0	0	8209	610542	0	0
2024-06-17 14:16:32			0	36606	0	0	0	25301	23880	141086	27192	1014975	42252	109356	0	0	8210	610124	0	0
2024-06-17 14:17:32			0	36604	0	0	0	25332	23900	141130	26854	1015000	42287	109368	0	0	8209	610139	0	0
2024-06-17 14:18:32			0	36612	0	0	0	25342	23900	141078	26774	1015036	42265	109372	0	0	8209	609805	0	0
2024-06-17 14:19:32			0	36602	0	0	0	25335	23910	141106	26873	1015080	42255	109369	0	0	8209	610188	0	0
2024-06-17 14:20:32			0	36623	0	0	0	25345	23920	141086	27029	1015088	42266	109373	0	0	8210	609276	0	0
2024-06-17 14:21:32			0	36624	0	0	0	25340	23910	140958	26800	1015026	42266	109371	0	0	8210	609269	0	0
2024-06-17 14:22:32			0	36622	0	0	0	25342	23920	141014	26870	1015035	42266	109372	0	0	8210	609318	0	0
2024-06-17 14:23:32			0	36633	0	0	0	25345	23930	140990	27114	1015025	42246	109373	0	0	8211	608825	0	0
2024-06-17 14:24:32			0	36638	0	0	0	25335	23920	140978	26932	1014990	42267	109369	0	0	8211	608650	0	0
2024-06-17 14:25:32			0	36643	0	0	0	25322	23920	140982	26745	1014990	42256	109364	0	0	8211	608442	0	0
2024-06-17 14:26:32			0	36666	0	0	0	25319	23920	140826	27020	1015070	42267	109363	0	0	8213	607483	0	0
2024-06-17 14:27:32			0	36670	0	0	0	25329	23920	140926	27090	1015088	42255	109367	0	0	8213	607316	0	0
2024-06-17 14:28:32			0	36681	0	0	0	25316	23920	140898	27171	1014981	42266	109362	0	0	8214	606858	0	0
2024-06-17 14:29:32			0	36688	0	0	0	25314	23910	140918	27027	1014991	42266	109361	0	0	8214	606601	0	0
2024-06-17 14:30:32			0	36682	0	0	0	25303	23920	140778	27095	1014990	42256	109357	0	0	8214	606816	0	0
2024-06-17 14:31:32			0	36701	0	0	0	25293	23920	140790	27154	1015008	42244	109353	0	0	8215	606026	0	0
2024-06-17 14:32:32			0	36719	0	0	0	25290	23900	140726	27098	1014822	42265	109352	0	0	8216	605345	0	0
2024-06-17 14:33:32			0	36707	0	0	0	25277	23900	140722	26793	1014947	42253	109347	0	0	8215	605844	0	0
2024-06-17 14:34:32			0	36702	0	0	0	25270	23890	140682	26687	1014805	42264	109344	0	0	8215	606086	0	0
2024-06-17 14:35:32			0	36702	0	0	0	25259	23900	140738	26909	1014787	42264	109340	0	0	8216	606052	0	0
2024-06-17 14:36:32			0	36745	0	0	0	25262	23890	140666	27008	1014823	42242	109341	0	0	8218	604299	0	0
2024-06-17 14:37:32			0	36733	0	0	0	25254	23880	140610	26686	1014814	42252	109338	0	0	8217	604832	0	0
2024-06-17 14:38:32			0	36761	0	0	0	25257	23870	140578	26819	1014717	42241	109339	0	0	8219	603703	0	0
2024-06-17 14:39:32			0	36761	0	0	0	25254	23870	140462	26767	1014771	42241	109338	0	0	8219	603703	0	0
2024-06-17 14:40:32			0	36771	0	0	0	25246	23870	140470	27034	1014744	42251	109335	0	0	8219	603288	0	0
2024-06-17 14:41:32			0	36779	0	0	0	25246	23870	140458	27046	1014735	42262	109335	0	0	8220	602956	0	0
2024-06-17 14:42:32			0	36792	0	0	0	25251	23870	140418	26785	1014762	42262	109337	0	0	8220	602418	0	0
2024-06-17 14:43:32			0	36792	0	0	0	25238	23880	140346	26765	1014833	42274	109332	0	0	8221	602384	0	0
2024-06-17 14:44:32			0	36799	0	0	0	25257	23880	140362	26928	1014833	42241	109339	0	0	8221	602094	0	0
2024-06-17 14:45:32			0	36811	0	0	0	25254	23880	140442	26880	1014868	42263	109338	0	0	8221	601597	0	0
2024-06-17 14:46:32			0	36832	0	0	0	25267	23890	140338	27201	1014903	42264	109343	0	0	8222	600694	0	0
2024-06-17 14:47:32			0	36809	0	0	0	25280	23880	140282	26618	1014975	42263	109348	0	0	8221	601680	0	0
2024-06-17 14:48:32			0	36808	0	0	0	25285	23880	140214	26948	1014921	42263	109350	0	0	8221	601721	0	0
2024-06-17 14:49:32			0	36806	0	0	0	25290	23900	140282	26852	1014974	42253	109352	0	0	8220	601736	0	0
2024-06-17 14:50:32			0	36831	0	0	0	25296	23890	140218	27140	1014965	42264	109354	0	0	8222	600735	0	0
2024-06-17 14:51:32			0	36844	0	0	0	25296	23890	140230	26847	1014965	42242	109354	0	0	8222	600198	0	0
2024-06-17 14:52:32			0	36842	0	0	0	25303	23900	140222	26955	1015000	42264	109357	0	0	8222	600247	0	0
2024-06-17 14:53:32			0	36840	0	0	0	25301	23910	140266	26844	1015026	42266	109356	0	0	8222	600295	0	0
2024-06-17 14:54:32			0	36844	0	0	0	25306	23910	140270	26894	1015044	42255	109358	0	0	8222	600130	0	0
2024-06-17 14:55:32			0	36849	0	0	0	25324	23910	140194	26911	1015053	42255	109365	0	0	8222	599923	0	0
2024-06-17 14:56:32			0	36847	0	0	0	25340	23920	140174	26700	1015142	42266	109371	0	0	8222	599972	0	0
2024-06-17 14:57:32			0	36844	0	0	0	25353	23930	140218	26875	1015239	42279	109376	0	0	8222	600062	0	0
2024-06-17 14:58:32			0	36859	0	0	0	25397	23950	140166	27168	1015407	42270	109393	0	0	8222	599375	0	0
2024-06-17 14:59:32			0	36862	0	0	0	25420	23960	140142	26944	1015398	42271	109402	0	0	8221	599218	0	0
2024-06-17 15:00:32			0	36844	0	0	0	25425	23980	140194	27154	1015432	42294	109404	0	0	8221	599893	0	0
2024-06-17 15:01:32			0	36870	0	0	0	25436	23990	140162	26998	1015476	42273	109408	0	0	8222	598786	0	0
2024-06-17 15:02:32			0	36854	0	0	0	25438	23990	140102	27268	1015476	42273	109409	0	0	8221	599447	0	0
2024-06-17 15:03:32			0	36878	0	0	0	25433	23990	140042	27079	1015556	42273	109407	0	0	8222	598456	0	0
2024-06-17 15:04:32			0	36862	0	0	0	25444	24000	140098	27279	1015582	42275	109411	0	0	8221	599083	0	0
2024-06-17 15:05:32			0	36875	0	0	0	25441	24020	139978	27126	1015661	42276	109410	0	0	8222	598479	0	0
2024-06-17 15:06:32			0	36841	0	0	0	25467	24010	139922	27156	1015652	42276	109420	0	0	8220	599916	0	0
2024-06-17 15:07:32			0	36858	0	0	0	25485	24040	139934	26844	1015722	42279	109427	0	0	8220	599112	0	0
2024-06-17 15:08:32			0	36892	0	0	0	25511	24050	139954	27166	1015837	42267	109437	0	0	8222	597677	0	0
2024-06-17 15:09:32			0	36875	0	0	0	25516	24070	140026	27296	1015934	42292	109439	0	0	8221	598310	0	0
2024-06-17 15:10:32			0	36861	0	0	0	25527	24080	139946	26956	1015978	42282	109443	0	0	8220	598854	0	0
2024-06-17 15:11:32			0	36885	0	0	0	25550	24090	140026	26948	1016075	42283	109452	0	0	8221	597830	0	0
2024-06-17 15:12:32			0	36883	0	0	0	25558	24110	139990	27008	1016083	42296	109455	0	0	8221	597845	0	0
2024-06-17 15:13:32			0	36893	0	0	0	25545	24120	139962	27199	1016047	42308	109450	0	0	8222	597399	0	0
2024-06-17 15:14:32			0	36890	0	0	0	25537	24120	139906	26979	1016047	42275	109447	0	0	8222	597523	0	0
2024-06-17 15:15:32			0	36925	0	0	0	25550	24120	139958	27126	1016118	42286	109452	0	0	8223	596083	0	0
2024-06-17 15:16:32			0	36893	0	0	0	25558	24120	139974	27178	1016127	42286	109455	0	0	8221	597399	0	0
2024-06-17 15:17:32			0	36917	0	0	0	25584	24150	139942	27098	1016259	42289	109465	0	0	8222	596311	0	0
2024-06-17 15:18:32			0	36892	0	0	0	25589	24160	139730	27428	1016409	42300	109467	0	0	8221	597306	0	0
2024-06-17 15:19:32			0	36911	0	0	0	25618	24180	139774	27213	1016444	42314	109478	0	0	8222	596457	0	0
2024-06-17 15:20:32			0	36925	0	0	0	25633	24190	139706	26925	1016568	42292	109484	0	0	8222	595847	0	0
2024-06-17 15:21:32			0	36913	0	0	0	25657	24210	139722	26760	1016594	42305	109493	0	0	8221	596273	0	0
2024-06-17 15:22:32			0	36935	0	0	0	25683	24220	139658	26922	1016665	42306	109503	0	0	8222	595335	0	0
2024-06-17 15:23:32			0	36906	0	0	0	25703	24240	139750	26769	1016752	42286	109511	0	0	8220	596460	0	0
2024-06-17 15:24:32			0	36907	0	0	0	25724	24250	139794	26968	1016823	42298	109519	0	0	8220	596385	0	0
2024-06-17 15:25:32			0	36947	0	0	0	25722	24280	139690	27239	1016821	42300	109518	0	0	8222	594641	0	0
2024-06-17 15:26:32			0	36927	0	0	0	25732	24270	139670	27098	1016893	42300	109522	0	0	8221	595496	0	0
2024-06-17 15:27:32			0	36932	0	0	0	25745	24300	139686	27137	1016963	42302	109527	0	0	8221	595190	0	0
2024-06-17 15:28:32			0	36938	0	0	0	25740	24300	139662	26965	1016909	42291	109525	0	0	8221	594943	0	0
2024-06-17 15:29:32			0	36925	0	0	0	25740	24300	139550	27019	1016891	42314	109525	0	0	8221	595477	0	0
2024-06-17 15:30:32			0	36937	0	0	0	25735	24310	139486	27166	1017007	42303	109523	0	0	8222	594951	0	0
2024-06-17 15:31:32			0	36941	0	0	0	25740	24320	139450	27197	1016997	42293	109525	0	0	8222	594753	0	0
2024-06-17 15:32:32			0	36939	0	0	0	25748	24330	139474	26991	1017006	42293	109528	0	0	8222	594801	0	0
2024-06-17 15:33:32			0	36935	0	0	0	25753	24340	139522	26779	1017085	42318	109530	0	0	8221	594932	0	0
2024-06-17 15:34:32			0	36955	0	0	0	25771	24350	139502	26727	1017147	42318	109537	0	0	8222	594078	0	0
2024-06-17 15:35:32			0	36968	0	0	0	25781	24350	139430	27064	1017147	42295	109541	0	0	8223	593545	0	0
2024-06-17 15:36:32			0	36945	0	0	0	25771	24350	139446	26928	1017156	42307	109537	0	0	8222	594488	0	0
2024-06-17 15:37:32			0	36957	0	0	0	25771	24360	139358	27001	1017120	42297	109537	0	0	8222	593962	0	0
2024-06-17 15:38:32			0	36973	0	0	0	25774	24360	139414	26908	1017120	42297	109538	0	0	8223	593306	0	0
2024-06-17 15:39:32			0	36965	0	0	0	25789	24370	139290	26694	1017351	42309	109544	0	0	8222	593601	0	0
2024-06-17 15:40:32			0	36979	0	0	0	25807	24390	139386	27026	1017323	42333	109551	0	0	8223	592960	0	0
2024-06-17 15:41:32			0	36991	0	0	0	25805	24390	139362	27270	1017305	42311	109550	0	0	8224	592469	0	0
2024-06-17 15:42:32			0	36988	0	0	0	25815	24400	139322	27189	1017349	42324	109554	0	0	8223	592558	0	0
2024-06-17 15:43:32			0	36968	0	0	0	25820	24410	139358	26908	1017357	42313	109556	0	0	8222	593344	0	0
2024-06-17 15:44:32			0	36975	0	0	0	25823	24420	139226	26800	1017490	42336	109557	0	0	8223	593023	0	0
2024-06-17 15:45:32			0	36999	0	0	0	25836	24430	139238	27043	1017525	42326	109562	0	0	8224	592007	0	0
2024-06-17 15:46:32			0	36985	0	0	0	25849	24440	139302	26932	1017596	42315	109567	0	0	8223	592547	0	0
2024-06-17 15:47:32			0	37000	0	0	0	25867	24450	139282	26774	1017756	42317	109574	0	0	8223	591900	0	0
2024-06-17 15:48:32			0	36989	0	0	0	25870	24460	139314	26934	1017657	42329	109575	0	0	8223	592316	0	0
2024-06-17 15:49:32			0	37000	0	0	0	25875	24460	139238	27175	1017746	42329	109577	0	0	8223	591866	0	0
2024-06-17 15:50:32			0	37005	0	0	0	25880	24470	139278	27086	1017710	42308	109579	0	0	8223	591628	0	0
2024-06-17 15:51:32			0	37002	0	0	0	25893	24480	139302	27415	1017674	42331	109584	0	0	8223	591718	0	0
2024-06-17 15:52:32			0	37010	0	0	0	25885	24480	139270	27277	1017700	42331	109581	0	0	8224	591390	0	0
2024-06-17 15:53:32			0	36991	0	0	0	25906	24490	139354	27170	1017816	42321	109589	0	0	8222	592134	0	0
2024-06-17 15:54:32			0	36999	0	0	0	25911	24500	139190	27228	1017788	42322	109591	0	0	8223	591773	0	0
2024-06-17 15:55:32			0	36998	0	0	0	25927	24500	139238	26902	1017922	42322	109597	0	0	8222	591814	0	0
2024-06-17 15:56:32			0	37023	0	0	0	25950	24510	139210	27173	1017966	42323	109606	0	0	8223	590759	0	0
2024-06-17 15:57:32			0	37023	0	0	0	25968	24520	139142	27235	1018001	42334	109613	0	0	8223	590725	0	0
2024-06-17 15:58:32			0	37008	0	0	0	25963	24520	139190	27209	1018037	42334	109611	0	0	8222	591338	0	0
2024-06-17 15:59:32			0	36994	0	0	0	25950	24530	139094	27338	1018000	42336	109606	0	0	8222	591877	0	0
2024-06-17 16:00:32			0	37021	0	0	0	25927	24530	139114	27218	1017867	42314	109597	0	0	8224	590774	0	0
2024-06-17 16:01:32			0	37035	0	0	0	25922	24530	139174	27008	1017893	42314	109595	0	0	8224	590202	0	0
2024-06-17 16:02:32			0	37039	0	0	0	25914	24520	139070	27213	1017930	42312	109592	0	0	8225	590072	0	0
2024-06-17 16:03:32			0	37045	0	0	0	25922	24530	139078	27088	1017974	42347	109595	0	0	8225	589794	0	0
2024-06-17 16:04:32			0	37037	0	0	0	25932	24540	138962	27147	1018044	42347	109599	0	0	8224	590087	0	0
2024-06-17 16:05:32			0	37044	0	0	0	25929	24550	138994	26953	1018026	42326	109598	0	0	8225	589768	0	0
2024-06-17 16:06:32			0	37052	0	0	0	25919	24550	138922	27192	1018008	42316	109594	0	0	8225	589442	0	0
2024-06-17 16:07:32			0	37082	0	0	0	25929	24550	138998	27043	1018035	42327	109598	0	0	8227	588219	0	0
2024-06-17 16:08:32			0	37048	0	0	0	25948	24560	138990	27222	1018106	42305	109605	0	0	8225	589572	0	0
2024-06-17 16:09:32			0	37066	0	0	0	25932	24560	138874	26963	1017999	42327	109599	0	0	8226	588838	0	0
2024-06-17 16:10:32			0	37082	0	0	0	25911	24540	138898	27152	1017884	42326	109591	0	0	8227	588252	0	0
2024-06-17 16:11:32			0	37087	0	0	0	25911	24540	138910	26942	1017929	42326	109591	0	0	8227	588049	0	0
2024-06-17 16:12:32			0	37110	0	0	0	25901	24540	138830	27242	1017911	42326	109587	0	0	8229	587113	0	0
2024-06-17 16:13:32			0	37135	0	0	0	25890	24540	138754	26847	1017848	42326	109583	0	0	8230	586096	0	0
2024-06-17 16:14:32			0	37114	0	0	0	25890	24520	138790	27180	1017876	42312	109583	0	0	8229	587016	0	0
2024-06-17 16:15:32			0	37137	0	0	0	25888	24540	138614	27253	1017911	42314	109582	0	0	8230	586015	0	0
2024-06-17 16:16:32			0	37148	0	0	0	25893	24530	138574	27260	1017947	42326	109584	0	0	8231	585602	0	0
2024-06-17 16:17:32			0	37129	0	0	0	25906	24540	138578	27100	1017982	42347	109589	0	0	8230	586340	0	0
2024-06-17 16:18:32			0	37155	0	0	0	25914	24540	138502	27249	1017929	42347	109592	0	0	8231	585284	0	0
2024-06-17 16:19:32			0	37149	0	0	0	25909	24540	138542	27001	1017964	42326	109590	0	0	8231	585528	0	0
2024-06-17 16:20:32			0	37151	0	0	0	25916	24540	138562	26975	1017955	42326	109593	0	0	8231	585446	0	0
2024-06-17 16:21:32			0	37172	0	0	0	25914	24550	138614	27039	1017999	42326	109592	0	0	8232	584561	0	0
2024-06-17 16:22:32			0	37173	0	0	0	25935	24550	138582	27239	1018080	42326	109600	0	0	8231	584521	0	0
2024-06-17 16:23:32			0	37169	0	0	0	25950	24550	138550	26887	1018053	42337	109606	0	0	8231	584683	0	0
2024-06-17 16:24:32			0	37149	0	0	0	25958	24560	138538	27017	1018151	42327	109609	0	0	8230	585462	0	0
2024-06-17 16:25:32			0	37151	0	0	0	25963	24570	138578	27334	1018195	42328	109611	0	0	8230	585347	0	0
2024-06-17 16:26:32			0	37149	0	0	0	25968	24570	138594	27192	1018176	42329	109613	0	0	8230	585428	0	0
2024-06-17 16:27:32			0	37161	0	0	0	25963	24570	138642	27175	1018123	42318	109611	0	0	8230	584941	0	0
2024-06-17 16:28:32			0	37144	0	0	0	25966	24580	138678	27039	1018158	42329	109612	0	0	8230	585598	0	0
2024-06-17 16:29:32			0	37146	0	0	0	25961	24580	138638	27164	1018105	42318	109610	0	0	8230	585517	0	0
2024-06-17 16:30:32			0	37117	0	0	0	25942	24580	138646	26887	1018140	42330	109603	0	0	8229	586695	0	0
2024-06-17 16:31:32			0	37163	0	0	0	25953	24570	138614	27024	1018141	42317	109607	0	0	8231	584860	0	0
2024-06-17 16:32:32			0	37146	0	0	0	25953	24570	138634	26925	1018141	42339	109607	0	0	8230	585550	0	0
2024-06-17 16:33:32			0	37190	0	0	0	25961	24580	138534	27126	1018185	42351	109610	0	0	8232	583733	0	0
2024-06-17 16:34:32			0	37188	0	0	0	25963	24570	138470	27331	1018150	42329	109611	0	0	8232	583847	0	0
2024-06-17 16:35:32			0	37188	0	0	0	25966	24580	138418	27024	1018158	42340	109612	0	0	8232	583814	0	0
2024-06-17 16:36:32			0	37208	0	0	0	25968	24580	138378	27086	1018132	42329	109613	0	0	8233	583003	0	0
2024-06-17 16:37:32			0	37223	0	0	0	25963	24590	138366	26819	1018229	42319	109611	0	0	8234	582363	0	0
2024-06-17 16:38:32			0	37258	0	0	0	25971	24580	138310	26972	1018194	42319	109614	0	0	8235	580982	0	0
2024-06-17 16:39:32			0	37246	0	0	0	25968	24580	138286	26811	1018167	42330	109613	0	0	8235	581466	0	0
2024-06-17 16:40:32			0	37298	0	0	0	25971	24580	138214	27062	1018194	42330	109614	0	0	8238	579367	0	0
2024-06-17 16:41:32			0	37306	0	0	0	25961	24580	138022	26982	1018167	42330	109610	0	0	8238	579045	0	0
2024-06-17 16:42:32			0	37347	0	0	0	25966	24580	137959	27109	1018140	42330	109612	0	0	8240	577394	0	0
2024-06-17 16:43:32			0	37381	0	0	0	25968	24580	137851	27105	1018167	42319	109613	0	0	8242	576027	0	0
2024-06-17 16:44:32			0	37409	0	0	0	25955	24580	137783	26981	1018078	42329	109608	0	0	8244	574904	0	0
2024-06-17 16:45:32			0	37445	0	0	0	25955	24580	137635	26948	1018247	42340	109608	0	0	8245	573461	0	0
2024-06-17 16:46:32			0	37469	0	0	0	25955	24580	137655	27296	1018132	42329	109608	0	0	8247	572500	0	0
2024-06-17 16:47:32			0	37474	0	0	0	25961	24590	137491	27017	1018131	42320	109610	0	0	8247	572268	0	0
2024-06-17 16:48:32			0	37521	0	0	0	25950	24580	137319	27008	1018194	42330	109606	0	0	8249	570422	0	0
2024-06-17 16:49:32			0	37533	0	0	0	25948	24580	137207	26986	1018194	42330	109605	0	0	8250	569943	0	0
2024-06-17 16:50:32			0	37558	0	0	0	25940	24580	137055	27178	1018105	42329	109602	0	0	8252	568947	0	0
2024-06-17 16:51:32			0	37599	0	0	0	25919	24580	137051	27085	1018060	42319	109594	0	0	8254	567315	0	0
2024-06-17 16:52:32			0	37611	0	0	0	25898	24580	136947	26680	1018025	42318	109586	0	0	8255	566838	0	0
2024-06-17 16:53:32			0	37636	0	0	0	25864	24570	136875	27088	1017767	42306	109573	0	0	8257	565877	0	0
2024-06-17 16:54:32			0	37634	0	0	0	25779	24530	136835	27192	1017484	42269	109540	0	0	8258	566084	0	0
2024-06-17 16:55:32			0	37642	0	0	0	25688	24490	136931	26863	1017129	42244	109505	0	0	8260	565895	0	0
2024-06-17 16:56:32			0	37612	0	0	0	25594	24440	136959	27303	1016749	42228	109469	0	0	8260	567247	0	0
2024-06-17 16:57:32			0	37594	0	0	0	25511	24390	137083	27092	1016440	42234	109437	0	0	8260	568124	0	0
2024-06-17 16:58:32			0	37582	0	0	0	25441	24320	137199	27187	1016168	42227	109410	0	0	8260	568827	0	0
2024-06-17 16:59:32			0	37577	0	0	0	25379	24260	137191	27147	1015913	42222	109386	0	0	8261	569219	0	0
2024-06-17 17:00:32			0	37577	0	0	0	25332	24200	137215	27352	1015650	42216	109368	0	0	8261	569412	0	0
2024-06-17 17:01:32			0	37595	0	0	0	25288	24170	137243	26951	1015518	42224	109351	0	0	8263	568790	0	0
2024-06-17 17:02:32			0	37596	0	0	0	25259	24120	137227	27287	1015370	42231	109340	0	0	8263	568911	0	0
2024-06-17 17:03:32			0	37598	0	0	0	25238	24090	137335	26909	1015292	42227	109332	0	0	8263	568927	0	0
2024-06-17 17:04:32			0	37629	0	0	0	25233	24070	137199	26961	1015284	42236	109330	0	0	8265	567756	0	0
2024-06-17 17:05:32			0	37651	0	0	0	25241	24020	137039	26961	1015269	42233	109333	0	0	8266	567040	0	0
2024-06-17 17:06:32			0	37728	0	0	0	25233	24030	136911	26994	1015286	42245	109330	0	0	8270	563949	0	0
2024-06-17 17:07:32			0	37737	0	0	0	25233	24010	136843	27118	1015163	42231	109330	0	0	8270	563656	0	0
2024-06-17 17:08:32			0	37773	0	0	0	25210	23990	136847	27137	1015048	42218	109321	0	0	8273	562293	0	0
2024-06-17 17:09:32			0	37769	0	0	0	25194	23970	136783	26937	1015022	42228	109315	0	0	8273	562515	0	0
2024-06-17 17:10:32			0	37777	0	0	0	25194	23960	136783	26963	1014970	42215	109315	0	0	8273	562230	0	0
2024-06-17 17:11:32			0	37741	0	0	0	25189	23940	136891	26601	1014909	42225	109313	0	0	8271	563719	0	0
2024-06-17 17:12:32			0	37731	0	0	0	25194	23930	136919	26817	1014892	42235	109315	0	0	8270	564148	0	0
2024-06-17 17:13:32			0	37723	0	0	0	25184	23920	137075	26573	1014803	42223	109311	0	0	8270	564497	0	0
2024-06-17 17:14:32			0	37681	0	0	0	25184	23900	137075	26878	1014742	42243	109311	0	0	8268	566230	0	0
2024-06-17 17:15:32			0	37668	0	0	0	25153	23870	137231	26975	1014628	42229	109299	0	0	8268	566843	0	0
2024-06-17 17:16:32			0	37652	0	0	0	25148	23860	137347	26878	1014513	42207	109297	0	0	8267	567512	0	0
2024-06-17 17:17:32			0	37645	0	0	0	25140	23850	137343	27196	1014514	42215	109294	0	0	8267	567823	0	0
2024-06-17 17:18:32			0	37621	0	0	0	25127	23830	137431	26935	1014399	42225	109289	0	0	8265	568844	0	0
2024-06-17 17:19:32			0	37629	0	0	0	25124	23820	137459	27150	1014418	42213	109288	0	0	8266	568556	0	0
2024-06-17 17:20:32			0	37610	0	0	0	25124	23810	137523	27187	1014320	42234	109288	0	0	8265	569347	0	0
2024-06-17 17:21:32			0	37605	0	0	0	25119	23800	137523	27060	1014303	42223	109286	0	0	8265	569578	0	0
2024-06-17 17:22:32			0	37575	0	0	0	25103	23790	137515	27013	1014286	42221	109280	0	0	8263	570809	0	0
2024-06-17 17:23:32			0	37584	0	0	0	25103	23780	137575	26739	1014215	42220	109280	0	0	8264	570482	0	0
2024-06-17 17:24:32			0	37594	0	0	0	25090	23760	137575	26785	1014208	42208	109275	0	0	8264	570146	0	0
2024-06-17 17:25:32			0	37600	0	0	0	25093	23760	137591	27227	1014146	42208	109276	0	0	8265	569907	0	0
2024-06-17 17:26:32			0	37604	0	0	0	25088	23760	137583	27531	1014172	42218	109274	0	0	8265	569747	0	0
2024-06-17 17:27:32			0	37580	0	0	0	25098	23750	137611	27417	1014244	42217	109278	0	0	8263	570738	0	0
2024-06-17 17:28:32			0	37604	0	0	0	25124	23760	137643	27402	1014279	42241	109288	0	0	8264	569747	0	0
2024-06-17 17:29:32			0	37584	0	0	0	25132	23760	137659	26944	1014288	42230	109291	0	0	8263	570546	0	0
2024-06-17 17:30:32			0	37571	0	0	0	25124	23770	137715	27076	1014225	42219	109288	0	0	8263	571034	0	0
2024-06-17 17:31:32			0	37540	0	0	0	25106	23750	137823	27027	1014075	42217	109281	0	0	8261	572339	0	0
2024-06-17 17:32:32			0	37532	0	0	0	25106	23730	137895	26922	1014156	42227	109281	0	0	8261	572724	0	0
2024-06-17 17:33:32			0	37520	0	0	0	25093	23720	137851	27050	1014041	42226	109276	0	0	8260	573237	0	0
2024-06-17 17:34:32			0	37492	0	0	0	25083	23720	138023	26908	1014112	42214	109272	0	0	8259	574361	0	0
2024-06-17 17:35:32			0	37460	0	0	0	25085	23710	138071	27107	1014024	42236	109273	0	0	8257	575679	0	0
2024-06-17 17:36:32			0	37432	0	0	0	25070	23710	138259	27098	1013997	42214	109267	0	0	8256	576806	0	0
2024-06-17 17:37:32			0	37387	0	0	0	25072	23700	138351	27124	1013971	42223	109268	0	0	8254	578652	0	0
2024-06-17 17:38:32			0	37366	0	0	0	25067	23700	138431	27076	1014007	42235	109266	0	0	8253	579500	0	0
2024-06-17 17:39:32			0	37310	0	0	0	25070	23690	138710	26876	1013936	42223	109267	0	0	8250	581798	0	0
2024-06-17 17:40:32			0	37273	0	0	0	25064	23690	138774	27020	1014016	42223	109265	0	0	8248	583298	0	0
2024-06-17 17:41:32			0	37244	0	0	0	25062	23680	138978	27163	1013999	42211	109264	0	0	8246	584508	0	0
2024-06-17 17:42:32			0	37203	0	0	0	25064	23690	139098	27130	1013963	42223	109265	0	0	8244	586142	0	0
2024-06-17 17:43:32			0	37144	0	0	0	25064	23690	139262	26979	1014008	42223	109265	0	0	8241	588546	0	0
2024-06-17 17:44:32			0	37135	0	0	0	25059	23690	139318	27100	1013954	42212	109263	0	0	8241	588914	0	0
2024-06-17 17:45:32			0	37105	0	0	0	25067	23680	139490	27242	1013918	42222	109266	0	0	8239	590173	0	0
2024-06-17 17:46:32			0	37061	0	0	0	25057	23680	139482	27012	1013865	42211	109262	0	0	8237	591973	0	0
2024-06-17 17:47:32			0	37062	0	0	0	25057	23680	139674	26788	1013883	42210	109262	0	0	8237	591932	0	0
2024-06-17 17:48:32			0	37015	0	0	0	25062	23680	139698	26993	1013856	42233	109264	0	0	8234	593860	0	0
2024-06-17 17:49:32			0	37015	0	0	0	25077	23670	139878	27130	1013901	42233	109270	0	0	8234	593893	0	0
2024-06-17 17:50:32			0	36986	0	0	0	25083	23690	139978	27258	1013981	42223	109272	0	0	8232	595018	0	0
2024-06-17 17:51:32			0	36966	0	0	0	25064	23680	139962	27183	1013918	42211	109265	0	0	8232	595874	0	0
2024-06-17 17:52:32			0	36956	0	0	0	25067	23670	140110	27161	1013893	42210	109266	0	0	8231	596319	0	0
2024-06-17 17:53:32			0	36931	0	0	0	25062	23670	140066	27088	1013875	42221	109264	0	0	8230	597349	0	0
2024-06-17 17:54:32			0	36905	0	0	0	25059	23670	140178	27182	1013839	42221	109263	0	0	8229	598421	0	0
2024-06-17 17:55:32			0	36886	0	0	0	25046	23670	140254	27367	1013839	42210	109258	0	0	8228	599205	0	0
2024-06-17 17:56:32			0	36878	0	0	0	25033	23650	140314	27123	1013787	42208	109253	0	0	8228	599603	0	0
2024-06-17 17:57:32			0	36864	0	0	0	25038	23650	140330	26922	1013760	42208	109255	0	0	8227	600182	0	0
2024-06-17 17:58:32			0	36853	0	0	0	25028	23640	140470	27230	1013743	42208	109251	0	0	8226	600671	0	0
2024-06-17 17:59:32			0	36840	0	0	0	25025	23640	140394	27012	1013743	42208	109250	0	0	8226	601209	0	0
2024-06-17 18:00:32			0	36836	0	0	0	25028	23650	140498	27053	1013805	42219	109251	0	0	8225	601341	0	0
2024-06-17 18:01:32			0	36809	0	0	0	25031	23650	140530	27059	1013778	42219	109252	0	0	8224	602459	0	0
2024-06-17 18:02:32			0	36816	0	0	0	25028	23640	140518	27263	1013743	42230	109251	0	0	8224	602203	0	0
2024-06-17 18:03:32			0	36807	0	0	0	25033	23640	140538	27196	1013743	42219	109253	0	0	8224	602576	0	0
2024-06-17 18:04:32			0	36799	0	0	0	25018	23650	140682	27116	1013725	42219	109247	0	0	8224	602874	0	0
2024-06-17 18:05:32			0	36797	0	0	0	25015	23640	140606	26899	1013761	42207	109246	0	0	8224	602991	0	0
2024-06-17 18:06:32			0	36785	0	0	0	25010	23630	140650	26870	1013664	42217	109244	0	0	8223	603523	0	0
2024-06-17 18:07:32			0	36786	0	0	0	24999	23620	140678	26904	1013655	42207	109240	0	0	8223	603515	0	0
2024-06-17 18:08:32			0	36780	0	0	0	24986	23610	140778	26873	1013531	42193	109235	0	0	8223	603798	0	0
2024-06-17 18:09:32			0	36753	0	0	0	24986	23610	140726	26790	1013558	42205	109235	0	0	8222	604920	0	0
2024-06-17 18:10:32			0	36762	0	0	0	24979	23610	140762	27152	1013558	42215	109232	0	0	8222	604546	0	0
2024-06-17 18:11:32			0	36743	0	0	0	24971	23610	140782	26733	1013585	42205	109229	0	0	8221	605336	0	0
2024-06-17 18:12:32			0	36757	0	0	0	24974	23610	140818	27246	1013523	42215	109230	0	0	8222	604754	0	0
2024-06-17 18:13:32			0	36756	0	0	0	24979	23600	140754	26915	1013586	42214	109232	0	0	8222	604829	0	0
2024-06-17 18:14:32			0	36750	0	0	0	24994	23610	140734	26639	1013683	42226	109238	0	0	8221	605045	0	0
2024-06-17 18:15:32			0	36748	0	0	0	25002	23620	140810	27142	1013727	42227	109241	0	0	8221	605094	0	0
2024-06-17 18:16:32			0	36746	0	0	0	25031	23620	140790	26604	1013834	42239	109252	0	0	8220	605177	0	0
2024-06-17 18:17:32			0	36745	0	0	0	25051	23640	140918	26840	1013903	42219	109260	0	0	8220	605150	0	0
2024-06-17 18:18:32			0	36723	0	0	0	25080	23660	140842	26705	1013983	42231	109271	0	0	8219	605997	0	0
2024-06-17 18:19:32			0	36723	0	0	0	25090	23660	140870	27114	1014063	42220	109275	0	0	8218	605997	0	0
2024-06-17 18:20:32			0	36722	0	0	0	25088	23680	140874	27263	1014070	42221	109274	0	0	8219	605971	0	0
2024-06-17 18:21:32			0	36709	0	0	0	25098	23680	140822	27083	1014025	42234	109278	0	0	8218	606512	0	0
2024-06-17 18:22:32			0	36714	0	0	0	25103	23670	140922	27414	1014142	42233	109280	0	0	8218	606338	0	0
2024-06-17 18:23:32			0	36726	0	0	0	25116	23690	140838	27135	1014176	42246	109285	0	0	8218	605770	0	0
2024-06-17 18:24:32			0	36719	0	0	0	25132	23710	140830	27218	1014264	42236	109291	0	0	8218	605993	0	0
2024-06-17 18:25:32			0	36720	0	0	0	25145	23740	140894	27199	1014494	42250	109296	0	0	8218	605849	0	0
2024-06-17 18:26:32			0	36715	0	0	0	25184	23770	140926	27438	1014893	42275	109311	0	0	8217	605955	0	0
2024-06-17 18:27:32			0	36701	0	0	0	25254	23830	140838	26911	1015156	42302	109338	0	0	8215	606333	0	0
2024-06-17 18:28:32			0	36723	0	0	0	25288	23860	140866	27026	1015074	42261	109351	0	0	8216	605315	0	0
2024-06-17 18:29:32			0	36691	0	0	0	25290	23880	140810	26729	1015100	42241	109352	0	0	8214	606578	0	0
2024-06-17 18:30:32			0	36687	0	0	0	25314	23910	140794	27225	1015499	42266	109361	0	0	8214	606642	0	0
2024-06-17 18:31:32			0	36702	0	0	0	25350	23950	140906	27079	1015487	42281	109375	0	0	8214	605882	0	0
2024-06-17 18:32:32			0	36701	0	0	0	25327	23950	140802	27038	1015282	42238	109366	0	0	8215	605923	0	0
2024-06-17 18:33:32			0	36694	0	0	0	25298	23930	140774	27201	1015141	42224	109355	0	0	8215	606283	0	0
2024-06-17 18:34:32			0	36707	0	0	0	25322	23940	140826	27085	1015470	42269	109364	0	0	8215	605708	0	0
2024-06-17 18:35:32			0	36682	0	0	0	25436	23960	140798	27118	1015620	42271	109408	0	0	8212	606680	0	0
2024-06-17 18:36:32			0	36674	0	0	0	25425	23980	140782	27282	1015440	42261	109404	0	0	8212	606944	0	0
2024-06-17 18:37:32			0	36688	0	0	0	25428	23990	140774	27149	1015716	42262	109405	0	0	8212	606327	0	0
2024-06-17 18:38:32			0	36683	0	0	0	25431	24010	140766	26906	1015670	42253	109406	0	0	8212	606467	0	0
2024-06-17 18:39:32			0	36685	0	0	0	25397	24000	140742	26823	1015520	42241	109393	0	0	8213	606418	0	0
2024-06-17 18:40:32			0	36677	0	0	0	25374	23990	140770	27327	1015377	42241	109384	0	0	8213	606785	0	0
2024-06-17 18:41:32			0	36682	0	0	0	25353	23980	140850	27443	1015325	42228	109376	0	0	8213	606611	0	0
2024-06-17 18:42:32			0	36693	0	0	0	25363	23990	140722	27369	1015503	42251	109380	0	0	8214	606119	0	0
2024-06-17 18:43:32			0	36696	0	0	0	25376	23990	140726	27317	1015529	42251	109385	0	0	8214	605995	0	0
2024-06-17 18:44:32			0	36670	0	0	0	25368	23990	140630	27017	1015315	42229	109382	0	0	8212	607077	0	0
2024-06-17 18:45:32			0	36697	0	0	0	25309	23960	140746	27189	1015086	42215	109359	0	0	8215	606055	0	0
2024-06-17 18:46:32			0	36689	0	0	0	25267	23950	140710	26960	1014881	42215	109343	0	0	8215	606422	0	0
2024-06-17 18:47:32			0	36687	0	0	0	25225	23910	140822	26916	1014652	42200	109327	0	0	8215	606642	0	0
2024-06-17 18:48:32			0	36695	0	0	0	25179	23880	140806	26965	1014494	42186	109309	0	0	8216	606412	0	0
2024-06-17 18:49:32			0	36695	0	0	0	25137	23860	140766	27074	1014371	42206	109293	0	0	8217	606480	0	0
2024-06-17 18:50:32			0	36696	0	0	0	25106	23830	140782	27346	1014212	42192	109281	0	0	8217	606541	0	0
2024-06-17 18:51:32			0	36694	0	0	0	25077	23800	140782	27053	1014107	42189	109270	0	0	8218	606727	0	0
2024-06-17 18:52:32			0	36717	0	0	0	25059	23780	140754	27281	1014153	42209	109263	0	0	8219	605838	0	0
2024-06-17 18:53:32			0	36708	0	0	0	25046	23780	140670	27057	1014126	42232	109258	0	0	8219	606212	0	0
2024-06-17 18:54:32			0	36716	0	0	0	25036	23760	140690	27118	1014012	42218	109254	0	0	8219	605948	0	0
2024-06-17 18:55:32			0	36723	0	0	0	25025	23720	140726	27220	1013934	42193	109250	0	0	8220	605793	0	0
2024-06-17 18:56:32			0	36715	0	0	0	24994	23710	140734	26972	1013828	42203	109238	0	0	8220	606160	0	0
2024-06-17 18:57:32			0	36736	0	0	0	24989	23690	140766	27059	1013794	42223	109236	0	0	8221	605354	0	0
2024-06-17 18:58:32			0	36744	0	0	0	24984	23680	140710	26857	1013865	42201	109234	0	0	8221	605056	0	0
2024-06-17 18:59:32			0	36727	0	0	0	25007	23670	140778	26986	1013786	42200	109243	0	0	8220	605797	0	0
2024-06-17 19:00:32			0	36747	0	0	0	24997	23670	140814	27097	1013848	42221	109239	0	0	8221	604965	0	0
2024-06-17 19:01:32			0	36750	0	0	0	25002	23670	140674	26956	1013759	42210	109241	0	0	8221	604840	0	0
2024-06-17 19:02:32			0	36753	0	0	0	24999	23660	140678	27190	1013804	42209	109240	0	0	8222	604750	0	0
2024-06-17 19:03:32			0	36743	0	0	0	24994	23660	140750	27235	1013769	42208	109238	0	0	8221	605165	0	0
2024-06-17 19:04:32			0	36732	0	0	0	25002	23650	140818	27258	1013725	42219	109241	0	0	8220	605657	0	0
2024-06-17 19:05:32			0	36740	0	0	0	25007	23640	140746	27178	1013735	42218	109243	0	0	8221	605358	0	0
2024-06-17 19:06:32			0	36756	0	0	0	24999	23640	140790	26946	1013743	42208	109240	0	0	8222	604693	0	0
2024-06-17 19:07:32			0	36744	0	0	0	25005	23640	140794	27128	1013770	42219	109242	0	0	8221	605192	0	0
2024-06-17 19:08:32			0	36752	0	0	0	25007	23650	140738	26977	1013832	42219	109243	0	0	8221	604825	0	0
2024-06-17 19:09:32			0	36738	0	0	0	25015	23640	140714	27209	1013708	42218	109246	0	0	8220	605441	0	0
2024-06-17 19:10:32			0	36753	0	0	0	25015	23640	140722	26748	1013743	42219	109246	0	0	8221	604818	0	0
2024-06-17 19:11:32			0	36757	0	0	0	25012	23640	140738	27260	1013708	42207	109245	0	0	8221	604651	0	0
2024-06-17 19:12:32			0	36769	0	0	0	25012	23630	140686	26880	1013673	42217	109245	0	0	8222	604187	0	0
2024-06-17 19:13:32			0	36755	0	0	0	25002	23630	140746	26989	1013646	42217	109241	0	0	8221	604769	0	0
2024-06-17 19:14:32			0	36747	0	0	0	25002	23620	140734	27227	1013602	42217	109241	0	0	8221	605135	0	0
2024-06-17 19:15:32			0	36776	0	0	0	24989	23620	140698	26961	1013620	42206	109236	0	0	8223	603930	0	0
2024-06-17 19:16:32			0	36761	0	0	0	24986	23620	140666	26774	1013567	42206	109235	0	0	8222	604553	0	0
2024-06-17 19:17:32			0	36765	0	0	0	24974	23600	140754	26767	1013514	42215	109230	0	0	8222	604455	0	0
2024-06-17 19:18:32			0	36786	0	0	0	24966	23600	140706	27098	1013452	42193	109227	0	0	8224	603583	0	0
2024-06-17 19:19:32			0	36775	0	0	0	24963	23590	140710	27391	1013444	42213	109226	0	0	8223	604074	0	0
2024-06-17 19:20:32			0	36788	0	0	0	24958	23580	140646	26977	1013507	42202	109224	0	0	8224	603568	0	0
2024-06-17 19:21:32			0	36779	0	0	0	24963	23570	140698	26974	1013329	42201	109226	0	0	8223	603975	0	0
2024-06-17 19:22:32			0	36791	0	0	0	24953	23580	140710	26996	1013418	42212	109222	0	0	8224	603443	0	0
2024-06-17 19:23:32			0	36809	0	0	0	24950	23580	140642	27039	1013391	42202	109221	0	0	8225	602697	0	0
2024-06-17 19:24:32			0	36796	0	0	0	24948	23570	140542	27244	1013383	42211	109220	0	0	8224	603270	0	0
2024-06-17 19:25:32			0	36818	0	0	0	24948	23570	140642	27059	1013401	42211	109220	0	0	8225	602357	0	0
2024-06-17 19:26:32			0	36798	0	0	0	24948	23570	140634	27116	1013409	42223	109220	0	0	8224	603187	0	0
2024-06-17 19:27:32			0	36810	0	0	0	24961	23570	140574	27124	1013427	42223	109225	0	0	8225	602689	0	0
2024-06-17 19:28:32			0	36807	0	0	0	24955	23570	140638	27332	1013489	42223	109223	0	0	8225	602813	0	0
2024-06-17 19:29:32			0	36796	0	0	0	24971	23580	140546	27027	1013525	42224	109229	0	0	8224	603236	0	0
2024-06-17 19:30:32			0	36794	0	0	0	24994	23590	140618	27293	1013631	42213	109238	0	0	8224	603285	0	0
2024-06-17 19:31:32			0	36802	0	0	0	25005	23590	140574	27208	1013595	42225	109242	0	0	8224	602953	0	0
2024-06-17 19:32:32			0	36794	0	0	0	25012	23600	140558	27111	1013746	42237	109245	0	0	8223	603251	0	0
2024-06-17 19:33:32			0	36816	0	0	0	25075	23630	140634	27268	1014118	42261	109269	0	0	8223	602237	0	0
2024-06-17 19:34:32			0	36809	0	0	0	25142	23660	140570	27071	1014312	42276	109295	0	0	8222	602425	0	0
2024-06-17 19:35:32			0	36804	0	0	0	25194	23700	140498	27100	1014532	42290	109315	0	0	8221	602497	0	0
2024-06-17 19:36:32			0	36802	0	0	0	25285	23750	140546	27189	1014751	42284	109350	0	0	8220	602410	0	0
2024-06-17 19:37:32			0	36819	0	0	0	25285	23790	140578	27216	1014785	42276	109350	0	0	8221	601570	0	0
2024-06-17 19:38:32			0	36819	0	0	0	25316	23810	140510	26913	1015033	42279	109362	0	0	8220	601503	0	0
2024-06-17 19:39:32			0	36814	0	0	0	25332	23840	140494	27059	1015013	42260	109368	0	0	8220	601608	0	0
2024-06-17 19:40:32			0	36794	0	0	0	25327	23860	140422	26785	1015127	42273	109366	0	0	8219	602369	0	0
2024-06-17 19:41:32			0	36812	0	0	0	25316	23870	140426	27249	1015225	42274	109362	0	0	8220	601589	0	0
2024-06-17 19:42:32			0	36811	0	0	0	25314	23900	140346	27263	1015321	42253	109361	0	0	8220	601529	0	0
2024-06-17 19:43:32			0	36826	0	0	0	25335	23920	140366	27015	1015444	42267	109369	0	0	8221	600840	0	0
2024-06-17 19:44:32			0	36822	0	0	0	25340	23950	140234	26875	1015487	42291	109371	0	0	8221	600904	0	0
2024-06-17 19:45:32			0	36821	0	0	0	25340	23960	140206	27123	1015540	42249	109371	0	0	8221	600912	0	0
2024-06-17 19:46:32			0	36827	0	0	0	25316	23970	140146	26812	1015343	42239	109362	0	0	8221	600630	0	0
2024-06-17 19:47:32			0	36845	0	0	0	25280	23960	140202	27232	1015192	42226	109348	0	0	8223	599920	0	0
2024-06-17 19:48:32			0	36854	0	0	0	25257	23950	140154	27046	1015193	42237	109339	0	0	8224	599582	0	0
2024-06-17 19:49:32			0	36854	0	0	0	25257	23950	140166	27216	1015220	42237	109339	0	0	8224	599582	0	0
2024-06-17 19:50:32			0	36848	0	0	0	25285	23950	140178	27079	1015362	42259	109350	0	0	8223	599830	0	0
2024-06-17 19:51:32			0	36844	0	0	0	25319	23960	140070	27019	1015478	42259	109363	0	0	8222	599961	0	0
2024-06-17 19:52:32			0	36852	0	0	0	25348	23970	139978	26892	1015397	42250	109374	0	0	8222	599597	0	0
2024-06-17 19:53:32			0	36870	0	0	0	25329	23970	140098	26713	1015281	42239	109367	0	0	8223	598854	0	0
2024-06-17 19:54:32			0	36873	0	0	0	25301	23960	140018	26998	1015192	42226	109356	0	0	8224	598764	0	0
2024-06-17 19:55:32			0	36866	0	0	0	25280	23960	140094	27142	1015130	42226	109348	0	0	8224	599052	0	0
2024-06-17 19:56:32			0	36881	0	0	0	25296	23940	140078	27045	1015185	42236	109354	0	0	8224	598501	0	0
2024-06-17 19:57:32			0	36884	0	0	0	25303	23950	140006	27213	1015247	42225	109357	0	0	8225	598344	0	0
2024-06-17 19:58:32			0	36891	0	0	0	25277	23940	139934	27208	1015016	42247	109347	0	0	8225	598089	0	0
2024-06-17 19:59:32			0	36909	0	0	0	25220	23910	139950	27081	1014759	42210	109325	0	0	8227	597448	0	0
2024-06-17 20:00:32			0	36933	0	0	0	25153	23870	139850	27305	1014450	42208	109299	0	0	8229	596594	0	0
2024-06-17 20:01:32			0	36950	0	0	0	25103	23830	139794	27228	1014212	42203	109280	0	0	8231	596029	0	0
2024-06-17 20:02:32			0	36951	0	0	0	25075	23810	139842	26984	1014124	42212	109269	0	0	8231	596055	0	0
2024-06-17 20:03:32			0	36957	0	0	0	25038	23780	139830	26819	1013993	42209	109255	0	0	8232	595908	0	0
2024-06-17 20:04:32			0	36960	0	0	0	25010	23760	139850	26726	1013940	42197	109244	0	0	8233	595852	0	0
2024-06-17 20:05:32			0	36954	0	0	0	24989	23720	139858	27046	1013854	42193	109236	0	0	8233	596233	0	0
2024-06-17 20:06:32			0	36971	0	0	0	24966	23700	139818	26922	1013739	42191	109227	0	0	8234	595601	0	0
2024-06-17 20:07:32			0	36960	0	0	0	24948	23680	139842	26850	1013670	42200	109220	0	0	8233	596121	0	0
2024-06-17 20:08:32			0	36966	0	0	0	24932	23650	139858	27092	1013520	42198	109214	0	0	8234	595974	0	0
2024-06-17 20:09:32			0	36970	0	0	0	24916	23650	139846	26913	1013565	42197	109208	0	0	8234	595810	0	0
2024-06-17 20:10:32			0	36990	0	0	0	24916	23640	139874	26991	1013467	42185	109208	0	0	8235	595021	0	0
2024-06-17 20:11:32			0	36996	0	0	0	24906	23620	139834	26941	1013415	42195	109204	0	0	8236	594841	0	0
2024-06-17 20:12:32			0	37008	0	0	0	24893	23600	139734	26814	1013372	42193	109199	0	0	8236	594415	0	0
2024-06-17 20:13:32			0	37008	0	0	0	24890	23600	139750	27137	1013346	42204	109198	0	0	8237	594415	0	0
2024-06-17 20:14:32			0	37019	0	0	0	24877	23580	139830	26975	1013285	42202	109193	0	0	8237	594030	0	0
2024-06-17 20:15:32			0	37038	0	0	0	24896	23570	139842	27031	1013516	42211	109200	0	0	8238	593283	0	0
2024-06-17 20:16:32			0	37026	0	0	0	24981	23600	139758	26729	1013773	42248	109233	0	0	8236	593675	0	0
2024-06-17 20:17:32			0	37025	0	0	0	25038	23610	139722	26899	1013852	42238	109255	0	0	8235	593683	0	0
2024-06-17 20:18:32			0	37035	0	0	0	25077	23630	139738	26942	1014065	42239	109270	0	0	8235	593206	0	0
2024-06-17 20:19:32			0	37038	0	0	0	25116	23650	139794	26977	1014188	42253	109285	0	0	8234	593016	0	0
2024-06-17 20:20:32			0	37016	0	0	0	25189	23690	139674	27088	1014542	42267	109313	0	0	8232	593785	0	0
2024-06-17 20:21:32			0	37027	0	0	0	25290	23730	139686	26892	1014833	42294	109352	0	0	8231	593200	0	0
2024-06-17 20:22:32			0	37064	0	0	0	25366	23790	139646	27261	1014980	42288	109381	0	0	8232	591484	0	0
2024-06-17 20:23:32			0	37072	0	0	0	25410	23820	139602	27012	1015130	42291	109398	0	0	8232	591057	0	0
2024-06-17 20:24:32			0	37088	0	0	0	25457	23860	139474	27081	1015333	42293	109416	0	0	8232	590269	0	0
2024-06-17 20:25:32			0	37098	0	0	0	25475	23880	139402	27092	1015402	42296	109423	0	0	8233	589794	0	0
2024-06-17 20:26:32			0	37115	0	0	0	25498	23900	139350	27036	1015517	42288	109432	0	0	8233	589033	0	0
2024-06-17 20:27:32			0	37140	0	0	0	25524	23940	139346	27150	1015631	42302	109442	0	0	8234	587881	0	0
2024-06-17 20:28:32			0	37175	0	0	0	25527	23960	139186	26779	1015727	42271	109443	0	0	8236	586390	0	0
2024-06-17 20:29:32			0	37186	0	0	0	25516	23980	138950	26934	1015708	42272	109439	0	0	8237	585876	0	0
2024-06-17 20:30:32			0	37246	0	0	0	25511	23990	138750	26927	1015663	42262	109437	0	0	8240	583407	0	0
2024-06-17 20:31:32			0	37303	0	0	0	25509	24010	138614	27145	1015751	42275	109436	0	0	8243	581033	0	0
2024-06-17 20:32:32			0	37342	0	0	0	25514	24010	138415	27019	1015831	42275	109438	0	0	8245	579458	0	0
2024-06-17 20:33:32			0	37380	0	0	0	25522	24020	138319	27041	1015821	42276	109441	0	0	8247	577892	0	0
2024-06-17 20:34:32			0	37395	0	0	0	25516	24020	138171	27038	1015857	42266	109439	0	0	8248	577288	0	0
2024-06-17 20:35:32			0	37391	0	0	0	25511	24030	138167	26795	1015794	42278	109437	0	0	8248	577417	0	0
2024-06-17 20:36:32			0	37384	0	0	0	25470	24030	138115	26618	1015651	42277	109421	0	0	8248	577699	0	0
2024-06-17 20:37:32			0	37401	0	0	0	25407	24020	138259	26809	1015420	42253	109397	0	0	8250	577047	0	0
2024-06-17 20:38:32			0	37375	0	0	0	25348	23990	138339	27168	1015083	42219	109374	0	0	8250	578192	0	0
2024-06-17 20:39:32			0	37351	0	0	0	25246	23950	138463	27126	1014686	42214	109335	0	0	8250	579290	0	0
2024-06-17 20:40:32			0	37336	0	0	0	25145	23890	138411	26755	1014404	42187	109296	0	0	8251	580092	0	0
2024-06-17 20:41:32			0	37324	0	0	0	25062	23840	138503	27029	1014069	42181	109264	0	0	8251	580740	0	0
2024-06-17 20:42:32			0	37313	0	0	0	24994	23790	138614	27020	1013992	42200	109238	0	0	8251	581349	0	0
2024-06-17 20:43:32			0	37292	0	0	0	24963	23760	138578	26828	1013887	42218	109226	0	0	8251	582298	0	0
2024-06-17 20:44:32			0	37292	0	0	0	24963	23730	138630	27000	1013916	42238	109226	0	0	8251	582396	0	0
2024-06-17 20:45:32			0	37294	0	0	0	24984	23740	138650	27010	1014120	42272	109234	0	0	8250	582282	0	0
2024-06-17 20:46:32			0	37272	0	0	0	25007	23740	138542	27012	1014173	42250	109243	0	0	8249	583174	0	0
2024-06-17 20:47:32			0	37262	0	0	0	25018	23750	138714	26987	1014155	42228	109247	0	0	8248	583547	0	0
2024-06-17 20:48:32			0	37269	0	0	0	25025	23750	138698	27194	1014182	42239	109250	0	0	8248	583263	0	0
2024-06-17 20:49:32			0	37268	0	0	0	25067	23750	138830	26471	1014351	42250	109266	0	0	8248	583303	0	0
2024-06-17 20:50:32			0	37251	0	0	0	25106	23760	138786	26908	1014501	42241	109281	0	0	8246	583961	0	0
2024-06-17 20:51:32			0	37245	0	0	0	25153	23780	138822	26828	1014536	42264	109299	0	0	8245	584138	0	0
2024-06-17 20:52:32			0	37230	0	0	0	25184	23790	138802	26904	1014598	42276	109311	0	0	8244	584715	0	0
2024-06-17 20:53:32			0	37228	0	0	0	25215	23800	138862	26930	1014810	42246	109323	0	0	8243	584763	0	0
2024-06-17 20:54:32			0	37243	0	0	0	25264	23820	138894	27034	1014925	42269	109342	0	0	8243	584088	0	0
2024-06-17 20:55:32			0	37236	0	0	0	25267	23840	138866	26833	1014933	42271	109343	0	0	8243	584306	0	0
2024-06-17 20:56:32			0	37224	0	0	0	25293	23860	138958	26821	1015101	42273	109353	0	0	8242	584728	0	0
2024-06-17 20:57:32			0	37225	0	0	0	25324	23870	138854	27119	1015163	42285	109365	0	0	8242	584654	0	0
2024-06-17 20:58:32			0	37225	0	0	0	25340	23890	138794	27213	1015152	42275	109371	0	0	8241	584588	0	0
2024-06-17 20:59:32			0	37222	0	0	0	25335	23890	138854	27154	1015152	42253	109369	0	0	8241	584710	0	0
2024-06-17 21:00:32			0	37212	0	0	0	25324	23890	138874	26935	1015072	42253	109365	0	0	8241	585116	0	0
2024-06-17 21:01:32			0	37237	0	0	0	25327	23890	138858	26987	1015099	42264	109366	0	0	8242	584101	0	0
2024-06-17 21:02:32			0	37214	0	0	0	25329	23910	138858	27062	1015124	42255	109367	0	0	8241	584969	0	0
2024-06-17 21:03:32			0	37243	0	0	0	25329	23900	138766	27357	1015169	42265	109367	0	0	8243	583825	0	0
2024-06-17 21:04:32			0	37258	0	0	0	25335	23920	138830	26703	1015222	42289	109369	0	0	8243	583151	0	0
2024-06-17 21:05:32			0	37269	0	0	0	25358	23920	138798	26944	1015248	42266	109378	0	0	8244	582705	0	0
2024-06-17 21:06:32			0	37257	0	0	0	25384	23940	138838	26743	1015425	42291	109388	0	0	8243	583125	0	0
2024-06-17 21:07:32			0	37276	0	0	0	25399	23950	138774	27131	1015496	42282	109394	0	0	8243	582323	0	0
2024-06-17 21:08:32			0	37274	0	0	0	25412	23960	138794	27090	1015486	42282	109399	0	0	8243	582371	0	0
2024-06-17 21:09:32			0	37283	0	0	0	25386	23960	138742	26934	1015326	42271	109389	0	0	8244	582006	0	0
2024-06-17 21:10:32			0	37283	0	0	0	25337	23960	138662	27024	1015211	42226	109370	0	0	8245	582006	0	0
2024-06-17 21:11:32			0	37296	0	0	0	25301	23930	138590	27128	1015114	42235	109356	0	0	8246	581578	0	0
2024-06-17 21:12:32			0	37314	0	0	0	25270	23920	138454	27071	1014936	42245	109344	0	0	8247	580883	0	0
2024-06-17 21:13:32			0	37329	0	0	0	25228	23910	138495	27277	1014946	42233	109328	0	0	8249	580309	0	0
2024-06-17 21:14:32			0	37334	0	0	0	25207	23900	138403	26968	1015009	42243	109320	0	0	8249	580140	0	0
2024-06-17 21:15:32			0	37324	0	0	0	25218	23910	138363	27138	1015044	42266	109324	0	0	8249	580511	0	0
2024-06-17 21:16:32			0	37343	0	0	0	25228	23900	138519	27086	1015143	42265	109328	0	0	8250	579777	0	0
2024-06-17 21:17:32			0	37346	0	0	0	25231	23920	138291	27107	1015204	42267	109329	0	0	8250	579590	0	0
2024-06-17 21:18:32			0	37370	0	0	0	25215	23920	138259	26989	1015097	42245	109323	0	0	8251	578622	0	0
2024-06-17 21:19:32			0	37369	0	0	0	25194	23920	138255	26932	1015035	42255	109315	0	0	8252	578662	0	0
2024-06-17 21:20:32			0	37383	0	0	0	25202	23920	138139	27197	1015097	42245	109318	0	0	8252	578097	0	0
2024-06-17 21:21:32			0	37399	0	0	0	25238	23930	138087	26850	1015185	42256	109332	0	0	8252	577420	0	0
2024-06-17 21:22:32			0	37392	0	0	0	25296	23930	138095	27128	1015354	42279	109354	0	0	8251	577702	0	0
2024-06-17 21:23:32			0	37396	0	0	0	25350	23950	138111	26902	1015487	42291	109375	0	0	8250	577476	0	0
2024-06-17 21:24:32			0	37414	0	0	0	25392	23970	137979	27281	1015575	42293	109391	0	0	8251	576686	0	0
2024-06-17 21:25:32			0	37437	0	0	0	25423	23980	138027	27216	1015681	42284	109403	0	0	8251	575728	0	0
2024-06-17 21:26:32			0	37435	0	0	0	25444	23990	137887	26972	1015671	42274	109411	0	0	8251	575776	0	0
2024-06-17 21:27:32			0	37452	0	0	0	25462	24000	137903	26939	1015715	42297	109418	0	0	8252	575061	0	0
2024-06-17 21:28:32			0	37498	0	0	0	25459	24010	137835	26890	1015652	42265	109417	0	0	8254	573183	0	0
2024-06-17 21:29:32			0	37504	0	0	0	25418	24010	137751	27107	1015457	42264	109401	0	0	8255	572942	0	0
2024-06-17 21:30:32			0	37537	0	0	0	25374	24000	137643	26814	1015386	42252	109384	0	0	8258	571653	0	0
2024-06-17 21:31:32			0	37566	0	0	0	25337	23980	137459	26922	1015307	42239	109370	0	0	8260	570558	0	0
2024-06-17 21:32:32			0	37597	0	0	0	25293	23960	137455	27265	1015086	42226	109353	0	0	8262	569384	0	0
2024-06-17 21:33:32			0	37614	0	0	0	25262	23950	137411	26852	1014926	42237	109341	0	0	8263	568738	0	0
2024-06-17 21:34:32			0	37643	0	0	0	25218	23920	137323	27053	1014776	42234	109324	0	0	8265	567678	0	0
2024-06-17 21:35:32			0	37627	0	0	0	25163	23900	137343	26920	1014653	42209	109303	0	0	8265	568380	0	0
2024-06-17 21:36:32			0	37630	0	0	0	25124	23860	137387	27199	1014397	42206	109288	0	0	8266	568388	0	0
2024-06-17 21:37:32			0	37621	0	0	0	25106	23840	137443	26842	1014363	42214	109281	0	0	8266	568812	0	0
2024-06-17 21:38:32			0	37606	0	0	0	25083	23820	137483	26982	1014444	42236	109272	0	0	8265	569474	0	0
2024-06-17 21:39:32			0	37621	0	0	0	25096	23810	137487	27001	1014552	42246	109277	0	0	8266	568908	0	0
2024-06-17 21:40:32			0	37629	0	0	0	25122	23810	137411	26733	1014560	42246	109287	0	0	8266	568588	0	0
2024-06-17 21:41:32			0	37632	0	0	0	25148	23830	137503	26935	1014693	42258	109297	0	0	8266	568405	0	0
2024-06-17 21:42:32			0	37596	0	0	0	25184	23830	137571	26875	1014774	42258	109311	0	0	8263	569842	0	0
2024-06-17 21:43:32			0	37605	0	0	0	25215	23840	137447	26816	1014906	42271	109323	0	0	8263	569450	0	0
2024-06-17 21:44:32			0	37588	0	0	0	25244	23860	137607	26955	1014932	42260	109334	0	0	8262	570065	0	0
2024-06-17 21:45:32			0	37587	0	0	0	25251	23860	137575	26930	1014914	42261	109337	0	0	8262	570105	0	0
2024-06-17 21:46:32			0	37585	0	0	0	25264	23870	137539	26590	1015002	42262	109342	0	0	8261	570153	0	0
2024-06-17 21:47:32			0	37606	0	0	0	25277	23870	137487	27105	1015091	42285	109347	0	0	8262	569314	0	0
2024-06-17 21:48:32			0	37606	0	0	0	25288	23890	137459	27319	1015090	42253	109351	0	0	8262	569250	0	0
2024-06-17 21:49:32			0	37620	0	0	0	25270	23890	137435	27190	1015037	42275	109344	0	0	8263	568691	0	0
2024-06-17 21:50:32			0	37639	0	0	0	25251	23890	137423	27067	1015010	42253	109337	0	0	8264	567934	0	0
2024-06-17 21:51:32			0	37648	0	0	0	25249	23890	137363	27015	1014930	42253	109336	0	0	8265	567575	0	0
2024-06-17 21:52:32			0	37651	0	0	0	25228	23890	137243	26961	1014903	42242	109328	0	0	8266	567456	0	0
2024-06-17 21:53:32			0	37662	0	0	0	25212	23860	137235	27069	1014780	42240	109322	0	0	8266	567113	0	0
2024-06-17 21:54:32			0	37656	0	0	0	25186	23860	137239	26746	1014665	42228	109312	0	0	8266	567352	0	0
2024-06-17 21:55:32			0	37671	0	0	0	25148	23830	137295	26797	1014453	42225	109297	0	0	8268	566851	0	0
2024-06-17 21:56:32			0	37671	0	0	0	25106	23810	137231	27180	1014231	42223	109281	0	0	8268	566915	0	0
2024-06-17 21:57:32			0	37676	0	0	0	25077	23770	137347	27320	1014109	42218	109270	0	0	8269	566844	0	0
2024-06-17 21:58:32			0	37664	0	0	0	25044	23740	137407	26791	1013986	42206	109257	0	0	8269	567417	0	0
2024-06-17 21:59:32			0	37656	0	0	0	25015	23720	137391	27092	1013845	42203	109246	0	0	8269	567800	0	0
2024-06-17 22:00:32			0	37645	0	0	0	24992	23700	137407	26726	1013758	42212	109237	0	0	8268	568302	0	0
2024-06-17 22:01:32			0	37654	0	0	0	24974	23670	137499	27100	1013741	42210	109230	0	0	8269	568039	0	0
2024-06-17 22:02:32			0	37641	0	0	0	24948	23660	137375	27164	1013609	42220	109220	0	0	8269	568590	0	0
2024-06-17 22:03:32			0	37636	0	0	0	24929	23630	137407	26831	1013459	42207	109213	0	0	8269	568885	0	0
2024-06-17 22:04:32			0	37638	0	0	0	24911	23620	137455	26837	1013442	42207	109206	0	0	8269	568838	0	0
2024-06-17 22:05:32			0	37637	0	0	0	24909	23600	137543	27157	1013327	42205	109205	0	0	8269	568942	0	0
2024-06-17 22:06:32			0	37623	0	0	0	24890	23590	137535	26932	1013409	42203	109198	0	0	8269	569533	0	0
2024-06-17 22:07:32			0	37643	0	0	0	24888	23580	137619	26821	1013347	42202	109197	0	0	8270	568766	0	0
2024-06-17 22:08:32			0	37641	0	0	0	24883	23570	137511	26642	1013294	42223	109195	0	0	8269	568878	0	0
2024-06-17 22:09:32			0	37630	0	0	0	24880	23560	137543	26715	1013365	42222	109194	0	0	8269	569349	0	0
2024-06-17 22:10:32			0	37621	0	0	0	24896	23560	137599	26906	1013330	42200	109200	0	0	8268	569709	0	0
2024-06-17 22:11:32			0	37637	0	0	0	24885	23550	137667	26800	1013321	42221	109196	0	0	8269	569102	0	0
2024-06-17 22:12:32			0	37645	0	0	0	24880	23550	137703	26710	1013259	42220	109194	0	0	8270	568782	0	0
2024-06-17 22:13:32			0	37616	0	0	0	24877	23550	137679	26955	1013259	42209	109193	0	0	8268	569940	0	0
2024-06-17 22:14:32			0	37618	0	0	0	24880	23530	137599	26788	1013234	42219	109194	0	0	8268	569925	0	0
2024-06-17 22:15:32			0	37619	0	0	0	24872	23530	137675	27057	1013225	42229	109191	0	0	8268	569885	0	0
2024-06-17 22:16:32			0	37598	0	0	0	24885	23530	137603	27060	1013252	42229	109196	0	0	8267	570724	0	0
2024-06-17 22:17:32			0	37610	0	0	0	24880	23530	137759	26814	1013260	42219	109194	0	0	8268	570244	0	0
2024-06-17 22:18:32			0	37621	0	0	0	24877	23530	137711	26955	1013278	42218	109193	0	0	8268	569805	0	0
2024-06-17 22:19:32			0	37612	0	0	0	24883	23520	137687	27010	1013155	42228	109195	0	0	8268	570197	0	0
2024-06-17 22:20:32			0	37604	0	0	0	24890	23520	137727	26800	1013181	42228	109198	0	0	8267	570517	0	0
2024-06-17 22:21:32			0	37586	0	0	0	24875	23520	137739	26944	1013261	42228	109192	0	0	8267	571237	0	0
2024-06-17 22:22:32			0	37605	0	0	0	24888	23510	137747	26670	1013253	42207	109197	0	0	8267	570509	0	0
2024-06-17 22:23:32			0	37595	0	0	0	24883	23510	137767	26760	1013191	42216	109195	0	0	8267	570909	0	0
2024-06-17 22:24:32			0	37608	0	0	0	24896	23510	137791	26648	1013199	42250	109200	0	0	8267	570389	0	0
2024-06-17 22:25:32			0	37604	0	0	0	24896	23510	137787	26960	1013164	42227	109200	0	0	8267	570549	0	0
2024-06-17 22:26:32			0	37602	0	0	0	24888	23510	137839	27067	1013137	42216	109197	0	0	8267	570629	0	0
2024-06-17 22:27:32			0	37594	0	0	0	24872	23510	137867	26622	1013093	42217	109191	0	0	8267	570949	0	0
2024-06-17 22:28:32			0	37574	0	0	0	24877	23500	137843	27123	1013013	42215	109193	0	0	8266	571781	0	0
2024-06-17 22:29:32			0	37581	0	0	0	24864	23490	137835	26967	1013112	42215	109188	0	0	8266	571533	0	0
2024-06-17 22:30:32			0	37568	0	0	0	24851	23490	137871	26852	1012916	42214	109183	0	0	8266	572054	0	0
2024-06-17 22:31:32			0	37582	0	0	0	24854	23480	137815	26698	1013041	42214	109184	0	0	8267	571525	0	0
2024-06-17 22:32:32			0	37552	0	0	0	24862	23480	137895	27024	1013095	42226	109187	0	0	8265	572728	0	0
2024-06-17 22:33:32			0	37556	0	0	0	24875	23490	137855	26955	1013157	42226	109192	0	0	8265	572535	0	0
2024-06-17 22:34:32			0	37553	0	0	0	24896	23500	137951	26956	1013254	42238	109200	0	0	8264	572623	0	0
2024-06-17 22:35:32			0	37555	0	0	0	24914	23510	137927	26672	1013306	42240	109207	0	0	8264	572511	0	0
2024-06-17 22:36:32			0	37538	0	0	0	24927	23510	137995	27112	1013351	42227	109212	0	0	8263	573193	0	0
2024-06-17 22:37:32			0	37521	0	0	0	24932	23510	138059	26956	1013351	42216	109214	0	0	8262	573875	0	0
2024-06-17 22:38:32			0	37524	0	0	0	24924	23530	138131	27215	1013305	42241	109211	0	0	8263	573690	0	0
2024-06-17 22:39:32			0	37513	0	0	0	24929	23520	138083	26875	1013288	42228	109213	0	0	8262	574164	0	0
2024-06-17 22:40:32			0	37512	0	0	0	24916	23520	138119	26949	1013261	42228	109208	0	0	8262	574204	0	0
2024-06-17 22:41:32			0	37501	0	0	0	24911	23520	138207	26927	1013297	42229	109206	0	0	8262	574646	0	0
2024-06-17 22:42:32			0	37471	0	0	0	24914	23510	138147	26826	1013226	42217	109207	0	0	8260	575885	0	0
2024-06-17 22:43:32			0	37462	0	0	0	24914	23520	138283	26753	1013341	42228	109207	0	0	8259	576214	0	0
2024-06-17 22:44:32			0	37451	0	0	0	24916	23530	138263	26722	1013359	42241	109208	0	0	8259	576625	0	0
2024-06-17 22:45:32			0	37455	0	0	0	24914	23530	138279	26765	1013278	42218	109207	0	0	8259	576464	0	0
2024-06-17 22:46:32			0	37407	0	0	0	24916	23530	138335	26771	1013332	42241	109208	0	0	8257	578399	0	0
2024-06-17 22:47:32			0	37406	0	0	0	24919	23540	138451	27066	1013349	42231	109209	0	0	8257	578407	0	0
2024-06-17 22:48:32			0	37388	0	0	0	24916	23530	138515	27020	1013359	42218	109208	0	0	8256	579166	0	0
2024-06-17 22:49:32			0	37376	0	0	0	24914	23530	138575	26849	1013252	42218	109207	0	0	8255	579651	0	0
2024-06-17 22:50:32			0	37341	0	0	0	24911	23520	138627	26833	1013297	42251	109206	0	0	8253	581099	0	0
2024-06-17 22:51:32			0	37341	0	0	0	24916	23530	138699	26920	1013340	42208	109208	0	0	8253	581066	0	0
2024-06-17 22:52:32			0	37314	0	0	0	24922	23540	138615	26750	1013277	42220	109210	0	0	8252	582127	0	0
2024-06-17 22:53:32			0	37313	0	0	0	24919	23530	138799	26670	1013340	42242	109209	0	0	8252	582200	0	0
2024-06-17 22:54:32			0	37286	0	0	0	24924	23530	138926	27215	1013340	42219	109211	0	0	8250	583295	0	0
2024-06-17 22:55:32			0	37286	0	0	0	24927	23540	138974	27367	1013376	42242	109212	0	0	8250	583262	0	0
2024-06-17 22:56:32			0	37257	0	0	0	24922	23540	138994	27116	1013411	42220	109210	0	0	8249	584440	0	0
2024-06-17 22:57:32			0	37241	0	0	0	24932	23540	139026	26885	1013376	42231	109214	0	0	8248	585090	0	0
2024-06-17 22:58:32			0	37241	0	0	0	24940	23540	139142	26981	1013402	42220	109217	0	0	8248	585090	0	0
2024-06-17 22:59:32			0	37215	0	0	0	24940	23550	139202	27407	1013526	42231	109217	0	0	8246	586115	0	0
2024-06-17 23:00:32			0	37197	0	0	0	24942	23550	139258	27079	1013428	42243	109218	0	0	8245	586848	0	0
2024-06-17 23:01:32			0	37197	0	0	0	24948	23550	139246	26736	1013455	42221	109220	0	0	8245	586848	0	0
2024-06-17 23:02:32			0	37185	0	0	0	24950	23570	139298	27124	1013534	42245	109221	0	0	8245	587271	0	0
2024-06-17 23:03:32			0	37161	0	0	0	24971	23570	139298	26830	1013703	42234	109229	0	0	8243	588250	0	0
2024-06-17 23:04:32			0	37130	0	0	0	25010	23580	139382	27291	1013747	42246	109244	0	0	8241	589483	0	0
2024-06-17 23:05:32			0	37138	0	0	0	25033	23600	139486	26878	1013835	42259	109253	0	0	8241	589089	0	0
2024-06-17 23:06:32			0	37124	0	0	0	25049	23620	139514	27319	1013887	42250	109259	0	0	8240	589595	0	0
2024-06-17 23:07:32			0	37122	0	0	0	25062	23620	139534	27357	1013949	42239	109264	0	0	8240	589677	0	0
2024-06-17 23:08:32			0	37113	0	0	0	25067	23640	139490	27209	1013948	42240	109266	0	0	8239	589978	0	0
2024-06-17 23:09:32			0	37098	0	0	0	25064	23630	139510	26710	1013966	42239	109265	0	0	8238	590625	0	0
2024-06-17 23:10:32			0	37107	0	0	0	25067	23650	139554	26948	1014045	42263	109266	0	0	8239	590191	0	0
2024-06-17 23:11:32			0	37087	0	0	0	25080	23660	139586	27133	1014063	42242	109271	0	0	8238	590975	0	0
2024-06-17 23:12:32			0	37064	0	0	0	25088	23650	139582	26996	1014134	42253	109274	0	0	8236	591950	0	0
2024-06-17 23:13:32			0	37070	0	0	0	25106	23670	139682	26861	1014142	42266	109281	0	0	8236	591638	0	0
2024-06-17 23:14:32			0	37064	0	0	0	25109	23680	139654	27168	1014150	42233	109282	0	0	8236	591850	0	0
2024-06-17 23:15:32			0	37049	0	0	0	25114	23690	139606	26868	1014176	42246	109284	0	0	8235	592432	0	0
2024-06-17 23:16:32			0	37055	0	0	0	25098	23690	139714	27138	1014168	42246	109278	0	0	8236	592186	0	0
2024-06-17 23:17:32			0	37062	0	0	0	25101	23690	139698	27039	1014123	42235	109279	0	0	8236	591899	0	0
2024-06-17 23:18:32			0	37026	0	0	0	25101	23690	139790	26951	1014123	42256	109279	0	0	8234	593375	0	0
2024-06-17 23:19:32			0	37044	0	0	0	25114	23690	139690	27020	1014256	42256	109284	0	0	8235	592637	0	0
2024-06-17 23:20:32			0	37018	0	0	0	25116	23700	139818	27194	1014265	42256	109285	0	0	8234	593670	0	0
2024-06-17 23:21:32			0	37024	0	0	0	25129	23710	139754	26927	1014255	42248	109290	0	0	8234	593390	0	0
2024-06-17 23:22:32			0	37009	0	0	0	25132	23710	139822	27215	1014317	42248	109291	0	0	8233	594006	0	0
2024-06-17 23:23:32			0	37012	0	0	0	25142	23730	139810	26963	1014343	42249	109295	0	0	8233	593816	0	0
2024-06-17 23:24:32			0	37009	0	0	0	25150	23720	139814	27396	1014415	42249	109298	0	0	8233	593972	0	0
2024-06-17 23:25:32			0	36989	0	0	0	25153	23730	139814	26922	1014450	42271	109299	0	0	8232	594760	0	0
2024-06-17 23:26:32			0	36992	0	0	0	25163	23740	139886	27331	1014414	42250	109303	0	0	8232	594604	0	0
2024-06-17 23:27:32			0	36990	0	0	0	25161	23760	139902	27133	1014493	42251	109302	0	0	8232	594619	0	0
2024-06-17 23:28:32			0	37008	0	0	0	25166	23760	139946	27053	1014439	42274	109304	0	0	8233	593880	0	0
2024-06-17 23:29:32			0	36986	0	0	0	25166	23760	139874	27154	1014421	42230	109304	0	0	8231	594783	0	0
2024-06-17 23:30:32			0	36990	0	0	0	25158	23760	139874	27312	1014413	42251	109301	0	0	8232	594619	0	0
2024-06-17 23:31:32			0	36981	0	0	0	25158	23760	139946	26908	1014475	42263	109301	0	0	8231	594989	0	0
2024-06-17 23:32:32			0	36946	0	0	0	25150	23760	139906	27133	1014475	42241	109298	0	0	8230	596428	0	0
2024-06-17 23:33:32			0	36969	0	0	0	25140	23760	139954	27175	1014395	42251	109294	0	0	8231	595482	0	0
2024-06-17 23:34:32			0	36955	0	0	0	25135	23760	139994	27293	1014466	42241	109292	0	0	8230	596058	0	0
2024-06-17 23:35:32			0	36970	0	0	0	25140	23770	140022	27140	1014483	42251	109294	0	0	8231	595407	0	0
2024-06-17 23:36:32			0	36960	0	0	0	25124	23760	139962	26984	1014395	42241	109288	0	0	8231	595852	0	0
2024-06-17 23:37:32			0	36959	0	0	0	25122	23760	139966	26816	1014333	42251	109287	0	0	8231	595893	0	0
2024-06-17 23:38:32			0	36970	0	0	0	25101	23750	140022	26769	1014262	42228	109279	0	0	8232	595474	0	0
2024-06-17 23:39:32			0	36978	0	0	0	25093	23720	139966	26788	1014201	42226	109276	0	0	8232	595246	0	0
2024-06-17 23:40:32			0	36952	0	0	0	25085	23720	139894	27100	1014174	42249	109273	0	0	8231	596316	0	0
2024-06-17 23:41:32			0	36987	0	0	0	25075	23720	139934	27124	1014193	42236	109269	0	0	8233	594876	0	0
2024-06-17 23:42:32			0	36989	0	0	0	25072	23710	139894	27322	1014095	42236	109268	0	0	8233	594827	0	0
2024-06-17 23:43:32			0	37002	0	0	0	25064	23700	139786	27157	1014060	42235	109265	0	0	8234	594327	0	0
2024-06-17 23:44:32			0	37006	0	0	0	25062	23700	139810	26828	1014078	42246	109264	0	0	8234	594162	0	0
2024-06-17 23:45:32			0	37009	0	0	0	25070	23690	139670	26868	1014096	42246	109267	0	0	8234	594073	0	0
2024-06-17 23:46:32			0	37023	0	0	0	25059	23690	139730	27033	1014070	42246	109263	0	0	8235	593498	0	0
2024-06-17 23:47:32			0	37000	0	0	0	25062	23690	139710	27334	1014088	42246	109264	0	0	8234	594442	0	0
2024-06-17 23:48:32			0	37040	0	0	0	25057	23670	139598	26915	1013981	42244	109262	0	0	8236	592867	0	0
2024-06-17 23:49:32			0	37048	0	0	0	25054	23680	139610	27033	1014070	42254	109261	0	0	8236	592506	0	0
2024-06-17 23:50:32			0	37047	0	0	0	25059	23680	139526	27355	1013990	42233	109263	0	0	8236	592547	0	0
2024-06-17 23:51:32			0	37059	0	0	0	25054	23680	139490	27097	1014043	42254	109261	0	0	8237	592055	0	0
2024-06-17 23:52:32			0	37083	0	0	0	25051	23680	139554	27258	1013937	42254	109260	0	0	8238	591072	0	0
2024-06-17 23:53:32			0	37092	0	0	0	25051	23670	139466	27019	1013981	42244	109260	0	0	8238	590737	0	0
2024-06-17 23:54:32			0	37082	0	0	0	25059	23670	139422	27100	1014008	42266	109263	0	0	8238	591147	0	0
2024-06-17 23:55:32			0	37121	0	0	0	25057	23670	139366	27206	1014008	42244	109262	0	0	8240	589552	0	0
2024-06-17 23:56:32			0	37103	0	0	0	25057	23680	139334	27092	1014017	42266	109262	0	0	8239	590254	0	0
2024-06-17 23:57:32			0	37128	0	0	0	25062	23680	139270	27206	1014097	42244	109264	0	0	8240	589233	0	0
2024-06-17 23:58:32			0	37146	0	0	0	25070	23680	139270	27137	1014043	42266	109267	0	0	8241	588498	0	0
2024-06-17 23:59:32			0	37131	0	0	0	25070	23680	139314	26850	1014079	42234	109267	0	0	8240	589110	0	0
2024-06-18 00:00:32			0	37162	0	0	0	25075	23680	139274	27256	1014052	42255	109269	0	0	8242	587845	0	0
2024-06-18 00:01:32			0	37169	0	0	0	25083	23680	139254	27164	1014070	42244	109272	0	0	8242	587560	0	0
2024-06-18 00:02:32			0	37175	0	0	0	25070	23670	139190	27093	1014035	42244	109267	0	0	8242	587348	0	0
2024-06-18 00:03:32			0	37185	0	0	0	25067	23680	139186	27012	1014017	42233	109266	0	0	8243	586908	0	0
2024-06-18 00:04:32			0	37200	0	0	0	25070	23680	139154	26863	1014043	42244	109267	0	0	8244	586297	0	0
2024-06-18 00:05:32			0	37203	0	0	0	25075	23670	139154	27033	1014035	42244	109269	0	0	8244	586208	0	0
2024-06-18 00:06:32			0	37196	0	0	0	25075	23670	139126	26753	1013973	42266	109269	0	0	8243	586493	0	0
2024-06-18 00:07:32			0	37218	0	0	0	25064	23680	139198	26861	1014017	42266	109265	0	0	8245	585565	0	0
2024-06-18 00:08:32			0	37203	0	0	0	25070	23670	139086	27013	1014053	42244	109267	0	0	8244	586208	0	0
2024-06-18 00:09:32			0	37224	0	0	0	25075	23670	139018	27093	1014035	42254	109269	0	0	8245	585354	0	0
2024-06-18 00:10:32			0	37233	0	0	0	25062	23660	139102	26847	1013938	42253	109264	0	0	8246	585021	0	0
2024-06-18 00:11:32			0	37228	0	0	0	25064	23660	139134	27104	1013991	42243	109265	0	0	8245	585224	0	0
2024-06-18 00:12:32			0	37218	0	0	0	25059	23670	139062	26797	1013955	42266	109263	0	0	8245	585598	0	0
2024-06-18 00:13:32			0	37217	0	0	0	25064	23660	139066	27078	1013964	42232	109265	0	0	8245	585671	0	0
2024-06-18 00:14:32			0	37257	0	0	0	25057	23660	139078	27017	1013929	42242	109262	0	0	8247	584046	0	0
2024-06-18 00:15:32			0	37227	0	0	0	25064	23660	139054	27038	1013991	42232	109265	0	0	8245	585264	0	0
2024-06-18 00:16:32			0	37245	0	0	0	25054	23660	139030	26752	1013938	42265	109261	0	0	8246	584533	0	0
2024-06-18 00:17:32			0	37246	0	0	0	25062	23660	139046	27053	1013956	42242	109264	0	0	8246	584492	0	0
2024-06-18 00:18:32			0	37249	0	0	0	25062	23660	138974	27242	1013991	42243	109264	0	0	8246	584371	0	0
2024-06-18 00:19:32			0	37228	0	0	0	25064	23670	139010	27010	1014026	42254	109265	0	0	8245	585191	0	0
2024-06-18 00:20:32			0	37245	0	0	0	25080	23660	138906	26833	1013983	42253	109271	0	0	8246	584533	0	0
2024-06-18 00:21:32			0	37253	0	0	0	25075	23670	138974	27088	1014026	42244	109269	0	0	8246	584175	0	0
2024-06-18 00:22:32			0	37245	0	0	0	25067	23660	139006	27024	1014018	42243	109266	0	0	8246	584533	0	0
2024-06-18 00:23:32			0	37222	0	0	0	25062	23660	138990	27192	1013964	42243	109264	0	0	8245	585468	0	0
2024-06-18 00:24:32			0	37273	0	0	0	25054	23660	139014	26956	1013929	42242	109261	0	0	8248	583396	0	0
2024-06-18 00:25:32			0	37254	0	0	0	25046	23650	138958	27144	1013885	42230	109258	0	0	8247	584200	0	0
2024-06-18 00:26:32			0	37270	0	0	0	25036	23640	138938	27133	1013850	42263	109254	0	0	8248	583584	0	0
2024-06-18 00:27:32			0	37277	0	0	0	25033	23640	138858	26970	1013841	42240	109253	0	0	8248	583300	0	0
2024-06-18 00:28:32			0	37281	0	0	0	25018	23630	138870	26798	1013851	42239	109247	0	0	8249	583170	0	0
2024-06-18 00:29:32			0	37274	0	0	0	25010	23630	138974	26814	1013771	42239	109244	0	0	8248	583454	0	0
2024-06-18 00:30:32			0	37281	0	0	0	24997	23630	138910	27175	1013717	42239	109239	0	0	8249	583170	0	0
2024-06-18 00:31:32			0	37292	0	0	0	24997	23620	138918	27242	1013682	42228	109239	0	0	8250	582757	0	0
2024-06-18 00:32:32			0	37298	0	0	0	24989	23620	138922	26961	1013674	42239	109236	0	0	8250	582514	0	0
2024-06-18 00:33:32			0	37287	0	0	0	24984	23600	138814	27351	1013648	42238	109234	0	0	8249	583025	0	0
2024-06-18 00:34:32			0	37286	0	0	0	24971	23600	138842	27112	1013621	42238	109229	0	0	8250	583066	0	0
2024-06-18 00:35:32			0	37295	0	0	0	24971	23600	138810	27116	1013621	42238	109229	0	0	8250	582701	0	0
2024-06-18 00:36:32			0	37292	0	0	0	24966	23590	138734	27138	1013631	42225	109227	0	0	8250	582855	0	0
2024-06-18 00:37:32			0	37282	0	0	0	24963	23580	138746	26800	1013560	42246	109226	0	0	8249	583294	0	0
2024-06-18 00:38:32			0	37301	0	0	0	24968	23570	138810	26953	1013543	42245	109228	0	0	8250	582556	0	0
2024-06-18 00:39:32			0	37318	0	0	0	24955	23590	138738	27088	1013569	42236	109223	0	0	8252	581801	0	0
2024-06-18 00:40:32			0	37321	0	0	0	24961	23590	138775	27124	1013569	42236	109225	0	0	8252	581680	0	0
2024-06-18 00:41:32			0	37331	0	0	0	24974	23590	138767	27111	1013622	42247	109230	0	0	8252	581275	0	0
2024-06-18 00:42:32			0	37315	0	0	0	24981	23590	138731	26996	1013622	42257	109233	0	0	8251	581923	0	0
2024-06-18 00:43:32			0	37320	0	0	0	24986	23600	138743	27024	1013719	42248	109235	0	0	8251	581688	0	0
2024-06-18 00:44:32			0	37319	0	0	0	24997	23590	138703	27079	1013684	42257	109239	0	0	8251	581761	0	0
2024-06-18 00:45:32			0	37318	0	0	0	24999	23600	138791	26991	1013746	42237	109240	0	0	8251	581769	0	0
2024-06-18 00:46:32			0	37316	0	0	0	25010	23600	138715	27013	1013728	42238	109244	0	0	8251	581850	0	0
2024-06-18 00:47:32			0	37314	0	0	0	25018	23590	138703	27194	1013684	42257	109247	0	0	8250	581963	0	0
2024-06-18 00:48:32			0	37329	0	0	0	25015	23600	138687	26819	1013746	42258	109246	0	0	8251	581323	0	0
2024-06-18 00:49:32			0	37327	0	0	0	25015	23610	138675	27109	1013772	42271	109246	0	0	8251	581372	0	0
2024-06-18 00:50:32			0	37328	0	0	0	25010	23600	138755	27022	1013755	42238	109244	0	0	8251	581364	0	0
2024-06-18 00:51:32			0	37327	0	0	0	25007	23590	138667	26868	1013684	42257	109243	0	0	8251	581437	0	0
2024-06-18 00:52:32			0	37313	0	0	0	25002	23600	138654	26972	1013621	42249	109241	0	0	8251	581971	0	0
2024-06-18 00:53:32			0	37328	0	0	0	25007	23600	138739	27248	1013666	42237	109243	0	0	8251	581364	0	0
2024-06-18 00:54:32			0	37326	0	0	0	24997	23590	138771	26727	1013684	42247	109239	0	0	8251	581477	0	0
2024-06-18 00:55:32			0	37336	0	0	0	25005	23600	138651	26696	1013693	42258	109242	0	0	8252	581040	0	0
2024-06-18 00:56:32			0	37346	0	0	0	24997	23600	138651	26524	1013675	42238	109239	0	0	8252	580635	0	0
2024-06-18 00:57:32			0	37337	0	0	0	25002	23590	138779	26987	1013657	42257	109241	0	0	8252	581032	0	0
2024-06-18 00:58:32			0	37335	0	0	0	25007	23600	138675	26653	1013781	42238	109243	0	0	8252	581080	0	0
2024-06-18 00:59:32			0	37343	0	0	0	25012	23600	138631	26918	1013719	42248	109245	0	0	8252	580757	0	0
2024-06-18 01:00:32			0	37322	0	0	0	25010	23600	138719	27069	1013746	42258	109244	0	0	8251	581607	0	0
2024-06-18 01:01:32			0	37333	0	0	0	25005	23600	138687	26753	1013701	42249	109242	0	0	8252	581161	0	0
2024-06-18 01:02:32			0	37331	0	0	0	25007	23600	138683	27196	1013719	42237	109243	0	0	8251	581242	0	0
2024-06-18 01:03:32			0	37335	0	0	0	25002	23600	138739	27085	1013675	42259	109241	0	0	8252	581080	0	0
2024-06-18 01:04:32			0	37335	0	0	0	25005	23600	138699	26759	1013613	42258	109242	0	0	8252	581080	0	0
2024-06-18 01:05:32			0	37336	0	0	0	24997	23590	138719	26928	1013684	42236	109239	0	0	8252	581073	0	0
2024-06-18 01:06:32			0	37340	0	0	0	24992	23590	138703	26793	1013649	42247	109237	0	0	8252	580911	0	0
2024-06-18 01:07:32			0	37373	0	0	0	24986	23580	138651	26816	1013614	42256	109235	0	0	8254	579609	0	0
2024-06-18 01:08:32			0	37383	0	0	0	24997	23590	138583	27007	1013631	42236	109239	0	0	8254	579172	0	0
2024-06-18 01:09:32			0	37395	0	0	0	24986	23590	138499	26793	1013649	42236	109235	0	0	8255	578688	0	0
2024-06-18 01:10:32			0	37417	0	0	0	24992	23590	138587	27017	1013577	42257	109237	0	0	8256	577800	0	0
2024-06-18 01:11:32			0	37401	0	0	0	24997	23590	138475	26982	1013684	42247	109239	0	0	8255	578446	0	0
2024-06-18 01:12:32			0	37449	0	0	0	24999	23590	138271	26745	1013631	42257	109240	0	0	8258	576511	0	0
2024-06-18 01:13:32			0	37455	0	0	0	24989	23600	138263	26882	1013693	42237	109236	0	0	8258	576237	0	0
2024-06-18 01:14:32			0	37481	0	0	0	24989	23580	138203	27100	1013640	42256	109236	0	0	8259	575256	0	0
2024-06-18 01:15:32			0	37506	0	0	0	24979	23580	138143	27022	1013667	42256	109232	0	0	8261	574251	0	0
2024-06-18 01:16:32			0	37513	0	0	0	24992	23590	138023	26934	1013649	42247	109237	0	0	8261	573938	0	0
2024-06-18 01:17:32			0	37543	0	0	0	24989	23580	138011	26942	1013578	42256	109236	0	0	8263	572766	0	0
2024-06-18 01:18:32			0	37545	0	0	0	24981	23580	137915	27012	1013667	42246	109233	0	0	8263	572686	0	0
2024-06-18 01:19:32			0	37572	0	0	0	24986	23570	137915	26878	1013569	42234	109235	0	0	8264	571637	0	0
2024-06-18 01:20:32			0	37591	0	0	0	24989	23580	137803	26795	1013560	42246	109236	0	0	8265	570844	0	0
2024-06-18 01:21:32			0	37605	0	0	0	24989	23580	137867	26847	1013587	42246	109236	0	0	8266	570284	0	0
2024-06-18 01:22:32			0	37606	0	0	0	24981	23580	137679	26658	1013658	42256	109233	0	0	8266	570244	0	0
2024-06-18 01:23:32			0	37598	0	0	0	24992	23580	137695	26814	1013632	42268	109237	0	0	8265	570564	0	0
2024-06-18 01:24:32			0	37615	0	0	0	24994	23590	137819	26902	1013649	42257	109238	0	0	8266	569852	0	0
2024-06-18 01:25:32			0	37609	0	0	0	24981	23590	137795	26835	1013595	42257	109233	0	0	8266	570092	0	0
2024-06-18 01:26:32			0	37614	0	0	0	24981	23580	137783	27027	1013560	42256	109233	0	0	8266	569924	0	0
2024-06-18 01:27:32			0	37586	0	0	0	24981	23590	137731	26975	1013595	42247	109233	0	0	8265	571012	0	0
2024-06-18 01:28:32			0	37580	0	0	0	24981	23580	137759	26958	1013605	42246	109233	0	0	8265	571284	0	0
2024-06-18 01:29:32			0	37592	0	0	0	24968	23580	137823	26703	1013552	42246	109228	0	0	8266	570804	0	0
2024-06-18 01:30:32			0	37575	0	0	0	24966	23580	137867	26942	1013498	42246	109227	0	0	8265	571484	0	0
2024-06-18 01:31:32			0	37566	0	0	0	24958	23560	137907	26736	1013499	42244	109224	0	0	8264	571909	0	0
2024-06-18 01:32:32			0	37556	0	0	0	24961	23560	137851	26967	1013525	42233	109225	0	0	8264	572310	0	0
2024-06-18 01:33:32			0	37552	0	0	0	24955	23570	137971	27007	1013481	42267	109223	0	0	8264	572438	0	0
2024-06-18 01:34:32			0	37531	0	0	0	24945	23560	138051	27128	1013499	42233	109219	0	0	8263	573312	0	0
2024-06-18 01:35:32			0	37526	0	0	0	24955	23550	138111	27384	1013455	42243	109223	0	0	8262	573545	0	0
2024-06-18 01:36:32			0	37516	0	0	0	24935	23550	138079	26817	1013420	42242	109215	0	0	8262	573946	0	0
2024-06-18 01:37:32			0	37493	0	0	0	24935	23540	138187	26828	1013438	42253	109215	0	0	8261	574903	0	0
2024-06-18 01:38:32			0	37473	0	0	0	24940	23540	138251	26696	1013411	42242	109217	0	0	8260	575707	0	0
2024-06-18 01:39:32			0	37477	0	0	0	24940	23540	138311	26993	1013376	42242	109217	0	0	8260	575546	0	0
2024-06-18 01:40:32			0	37462	0	0	0	24929	23540	138299	27027	1013402	42253	109213	0	0	8259	576150	0	0
2024-06-18 01:41:32			0	37449	0	0	0	24929	23540	138327	26745	1013429	42264	109213	0	0	8259	576673	0	0
2024-06-18 01:42:32			0	37433	0	0	0	24935	23530	138331	26942	1013421	42219	109215	0	0	8258	577350	0	0
2024-06-18 01:43:32			0	37426	0	0	0	24924	23530	138471	26628	1013340	42230	109211	0	0	8257	577632	0	0
2024-06-18 01:44:32			0	37396	0	0	0	24932	23540	138551	27095	1013384	42220	109214	0	0	8256	578810	0	0
2024-06-18 01:45:32			0	37393	0	0	0	24935	23540	138563	27052	1013402	42231	109215	0	0	8256	578931	0	0
2024-06-18 01:46:32			0	37411	0	0	0	24940	23540	138543	27090	1013376	42242	109217	0	0	8256	578205	0	0
2024-06-18 01:47:32			0	37362	0	0	0	24932	23530	138619	27128	1013385	42251	109214	0	0	8254	580217	0	0
2024-06-18 01:48:32			0	37347	0	0	0	24937	23540	138667	27229	1013402	42253	109216	0	0	8253	580791	0	0
2024-06-18 01:49:32			0	37325	0	0	0	24937	23540	138747	27157	1013402	42242	109216	0	0	8252	581681	0	0
2024-06-18 01:50:32			0	37335	0	0	0	24940	23540	138819	26771	1013358	42253	109217	0	0	8252	581277	0	0
2024-06-18 01:51:32			0	37320	0	0	0	24937	23530	138895	27074	1013340	42252	109216	0	0	8252	581917	0	0
2024-06-18 01:52:32			0	37298	0	0	0	24932	23530	138930	26849	1013421	42252	109214	0	0	8251	582808	0	0
2024-06-18 01:53:32			0	37277	0	0	0	24929	23530	138958	27059	1013367	42242	109213	0	0	8250	583661	0	0
2024-06-18 01:54:32			0	37275	0	0	0	24924	23540	139002	26774	1013456	42231	109211	0	0	8250	583709	0	0
2024-06-18 01:55:32			0	37285	0	0	0	24927	23530	138974	27118	1013332	42251	109212	0	0	8250	583336	0	0
2024-06-18 01:56:32			0	37264	0	0	0	24922	23530	138970	26757	1013359	42218	109210	0	0	8249	584188	0	0
2024-06-18 01:57:32			0	37272	0	0	0	24924	23530	138970	26623	1013340	42230	109211	0	0	8249	583864	0	0
2024-06-18 01:58:32			0	37259	0	0	0	24927	23530	139050	26604	1013314	42230	109212	0	0	8249	584392	0	0
2024-06-18 01:59:32			0	37256	0	0	0	24929	23520	139010	26956	1013350	42251	109213	0	0	8248	584546	0	0
2024-06-18 02:00:32			0	37260	0	0	0	24919	23530	139134	26994	1013305	42251	109209	0	0	8249	584351	0	0
2024-06-18 02:01:32			0	37238	0	0	0	24924	23520	139062	26894	1013323	42229	109211	0	0	8248	585278	0	0
2024-06-18 02:02:32			0	37235	0	0	0	24916	23520	139154	26620	1013297	42251	109208	0	0	8248	585400	0	0
2024-06-18 02:03:32			0	37235	0	0	0	24914	23520	139114	26791	1013341	42250	109207	0	0	8248	585400	0	0
2024-06-18 02:04:32			0	37246	0	0	0	24911	23520	139150	26902	1013261	42228	109206	0	0	8248	584953	0	0
2024-06-18 02:05:32			0	37232	0	0	0	24906	23520	139162	26982	1013235	42250	109204	0	0	8248	585522	0	0
2024-06-18 02:06:32			0	37237	0	0	0	24906	23520	139130	26835	1013315	42217	109204	0	0	8248	585319	0	0
2024-06-18 02:07:32			0	37226	0	0	0	24901	23520	139146	27092	1013288	42228	109202	0	0	8247	585766	0	0
2024-06-18 02:08:32			0	37231	0	0	0	24909	23500	139186	26852	1013316	42250	109205	0	0	8247	585629	0	0
2024-06-18 02:09:32			0	37224	0	0	0	24901	23510	139174	26632	1013244	42250	109202	0	0	8247	585881	0	0
2024-06-18 02:10:32			0	37221	0	0	0	24906	23510	139086	27102	1013271	42227	109204	0	0	8247	586003	0	0
2024-06-18 02:11:32			0	37220	0	0	0	24911	23510	139082	26897	1013244	42227	109206	0	0	8247	586043	0	0
2024-06-18 02:12:32			0	37210	0	0	0	24906	23500	139118	26753	1013280	42249	109204	0	0	8246	586484	0	0
2024-06-18 02:13:32			0	37217	0	0	0	24911	23510	139170	27145	1013244	42250	109206	0	0	8247	586166	0	0
2024-06-18 02:14:32			0	37226	0	0	0	24911	23510	139170	27156	1013271	42250	109206	0	0	8247	585799	0	0
2024-06-18 02:15:32			0	37234	0	0	0	24916	23500	139170	26925	1013334	42249	109208	0	0	8247	585507	0	0
2024-06-18 02:16:32			0	37219	0	0	0	24911	23500	139230	27020	1013316	42250	109206	0	0	8247	586117	0	0
2024-06-18 02:17:32			0	37221	0	0	0	24919	23500	139186	27029	1013289	42250	109209	0	0	8247	586036	0	0
2024-06-18 02:18:32			0	37222	0	0	0	24911	23510	139146	26906	1013271	42250	109206	0	0	8247	585962	0	0
2024-06-18 02:19:32			0	37243	0	0	0	24909	23500	139166	26819	1013227	42249	109205	0	0	8248	585141	0	0
2024-06-18 02:20:32			0	37240	0	0	0	24903	23510	139086	26696	1013217	42227	109203	0	0	8248	585230	0	0
2024-06-18 02:21:32			0	37240	0	0	0	24909	23500	139126	27022	1013262	42250	109205	0	0	8248	585263	0	0
2024-06-18 02:22:32			0	37239	0	0	0	24909	23510	139126	26817	1013298	42250	109205	0	0	8248	585270	0	0
2024-06-18 02:23:32			0	37232	0	0	0	24901	23500	139118	26859	1013262	42260	109202	0	0	8248	585588	0	0
2024-06-18 02:24:32			0	37229	0	0	0	24906	23500	139202	26701	1013236	42250	109204	0	0	8247	585710	0	0
2024-06-18 02:25:32			0	37234	0	0	0	24906	23500	139134	26975	1013200	42215	109204	0	0	8248	585507	0	0
2024-06-18 02:26:32			0	37230	0	0	0	24909	23500	139186	27046	1013254	42238	109205	0	0	8247	585669	0	0
2024-06-18 02:27:32			0	37245	0	0	0	24914	23500	139166	27007	1013200	42227	109207	0	0	8248	585059	0	0
2024-06-18 02:28:32			0	37239	0	0	0	24909	23510	139142	26637	1013191	42250	109205	0	0	8248	585270	0	0
2024-06-18 02:29:32			0	37247	0	0	0	24903	23490	139026	27170	1013218	42227	109203	0	0	8248	585011	0	0
2024-06-18 02:30:32			0	37244	0	0	0	24896	23500	139106	26939	1013280	42259	109200	0	0	8248	585100	0	0
2024-06-18 02:31:32			0	37239	0	0	0	24901	23500	139106	27150	1013200	42249	109202	0	0	8248	585303	0	0
2024-06-18 02:32:32			0	37231	0	0	0	24896	23480	139154	27017	1013175	42226	109200	0	0	8248	585695	0	0
2024-06-18 02:33:32			0	37250	0	0	0	24898	23500	139122	26800	1013262	42260	109201	0	0	8249	584856	0	0
2024-06-18 02:34:32			0	37236	0	0	0	24898	23500	139082	27119	1013236	42250	109201	0	0	8248	585425	0	0
2024-06-18 02:35:32			0	37257	0	0	0	24901	23490	139074	27022	1013218	42227	109202	0	0	8249	584604	0	0
2024-06-18 02:36:32			0	37243	0	0	0	24890	23490	139102	27100	1013165	42249	109198	0	0	8248	585173	0	0
2024-06-18 02:37:32			0	37268	0	0	0	24885	23490	139034	26726	1013165	42227	109196	0	0	8250	584157	0	0
2024-06-18 02:38:32			0	37250	0	0	0	24880	23490	138966	27277	1013103	42248	109194	0	0	8249	584889	0	0
2024-06-18 02:39:32			0	37263	0	0	0	24883	23480	138966	26696	1013166	42247	109195	0	0	8249	584393	0	0
2024-06-18 02:40:32			0	37260	0	0	0	24870	23480	138986	26698	1013086	42236	109190	0	0	8249	584515	0	0
2024-06-18 02:41:32			0	37276	0	0	0	24870	23470	138990	27133	1013122	42257	109190	0	0	8250	583898	0	0
2024-06-18 02:42:32			0	37276	0	0	0	24875	23470	139006	27319	1013069	42246	109192	0	0	8250	583898	0	0
2024-06-18 02:43:32			0	37276	0	0	0	24862	23470	139042	26807	1013096	42246	109187	0	0	8250	583898	0	0
2024-06-18 02:44:32			0	37281	0	0	0	24857	23460	139034	26710	1013060	42224	109185	0	0	8251	583728	0	0
2024-06-18 02:45:32			0	37281	0	0	0	24849	23460	139026	26795	1013034	42235	109182	0	0	8251	583728	0	0
2024-06-18 02:46:32			0	37267	0	0	0	24841	23460	139066	26817	1013052	42246	109179	0	0	8250	584297	0	0
2024-06-18 02:47:32			0	37279	0	0	0	24836	23440	138994	27137	1012955	42233	109177	0	0	8251	583875	0	0
2024-06-18 02:48:32			0	37293	0	0	0	24825	23450	139022	26849	1012936	42245	109173	0	0	8252	583274	0	0
2024-06-18 02:49:32			0	37292	0	0	0	24825	23440	138902	26824	1012919	42244	109173	0	0	8252	583347	0	0
2024-06-18 02:50:32			0	37287	0	0	0	24818	23430	138910	27116	1012875	42243	109170	0	0	8252	583583	0	0
2024-06-18 02:51:32			0	37300	0	0	0	24810	23420	138950	26767	1012813	42243	109167	0	0	8252	583088	0	0
2024-06-18 02:52:32			0	37309	0	0	0	24799	23410	138918	27066	1012876	42231	109163	0	0	8253	582755	0	0
2024-06-18 02:53:32			0	37291	0	0	0	24810	23420	138926	26942	1012911	42242	109167	0	0	8252	583453	0	0
2024-06-18 02:54:32			0	37305	0	0	0	24812	23430	138934	27010	1012848	42220	109168	0	0	8253	582852	0	0
2024-06-18 02:55:32			0	37288	0	0	0	24799	23420	138970	26967	1012893	42232	109163	0	0	8252	583575	0	0
2024-06-18 02:56:32			0	37263	0	0	0	24815	23410	138954	27145	1012903	42242	109169	0	0	8250	584623	0	0
2024-06-18 02:57:32			0	37287	0	0	0	24807	23420	139070	27128	1012885	42242	109166	0	0	8252	583616	0	0
2024-06-18 02:58:32			0	37283	0	0	0	24807	23420	139022	27170	1012813	42232	109166	0	0	8252	583778	0	0
2024-06-18 02:59:32			0	37277	0	0	0	24807	23420	138994	27161	1012858	42242	109166	0	0	8251	584022	0	0
2024-06-18 03:00:32			0	37280	0	0	0	24810	23420	138986	27154	1012805	42242	109167	0	0	8251	583900	0	0
2024-06-18 03:01:32			0	37278	0	0	0	24802	23410	139078	27145	1012823	42231	109164	0	0	8251	584014	0	0
2024-06-18 03:02:32			0	37281	0	0	0	24805	23410	138958	26935	1012761	42230	109165	0	0	8251	583892	0	0
2024-06-18 03:03:32			0	37270	0	0	0	24802	23390	138998	27104	1012762	42240	109164	0	0	8251	584404	0	0
2024-06-18 03:04:32			0	37284	0	0	0	24805	23390	139038	27319	1012788	42240	109165	0	0	8251	583836	0	0
2024-06-18 03:05:32			0	37285	0	0	0	24807	23390	138970	27017	1012762	42229	109166	0	0	8251	583795	0	0
2024-06-18 03:06:32			0	37288	0	0	0	24805	23410	139090	26733	1012823	42219	109165	0	0	8252	583608	0	0
2024-06-18 03:07:32			0	37274	0	0	0	24797	23390	139102	26696	1012788	42240	109162	0	0	8251	584242	0	0
2024-06-18 03:08:32			0	37278	0	0	0	24802	23390	139110	27065	1012762	42240	109164	0	0	8251	584079	0	0
2024-06-18 03:09:32			0	37292	0	0	0	24797	23390	139066	27197	1012762	42240	109162	0	0	8252	583511	0	0
2024-06-18 03:10:32			0	37274	0	0	0	24797	23390	139114	27175	1012727	42239	109162	0	0	8251	584242	0	0
2024-06-18 03:11:32			0	37272	0	0	0	24794	23390	139082	26826	1012727	42239	109161	0	0	8251	584323	0	0
2024-06-18 03:12:32			0	37269	0	0	0	24789	23380	139110	26842	1012745	42227	109159	0	0	8251	584478	0	0
2024-06-18 03:13:32			0	37282	0	0	0	24794	23390	139002	27093	1012727	42239	109161	0	0	8252	583917	0	0
2024-06-18 03:14:32			0	37276	0	0	0	24792	23390	139018	27059	1012708	42240	109160	0	0	8251	584161	0	0
2024-06-18 03:15:32			0	37288	0	0	0	24799	23400	139126	27048	1012744	42217	109163	0	0	8252	583640	0	0
2024-06-18 03:16:32			0	37277	0	0	0	24792	23390	139066	27012	1012780	42239	109160	0	0	8251	584120	0	0
2024-06-18 03:17:32			0	37273	0	0	0	24797	23390	139034	27029	1012753	42239	109162	0	0	8251	584283	0	0
2024-06-18 03:18:32			0	37246	0	0	0	24792	23390	139126	27190	1012700	42228	109160	0	0	8250	585380	0	0
2024-06-18 03:19:32			0	37275	0	0	0	24779	23390	139106	27199	1012628	42229	109155	0	0	8251	584201	0	0
2024-06-18 03:20:32			0	37294	0	0	0	24779	23390	139054	27038	1012700	42250	109155	0	0	8252	583430	0	0
2024-06-18 03:21:32			0	37266	0	0	0	24776	23370	139026	27008	1012674	42227	109154	0	0	8251	584633	0	0
2024-06-18 03:22:32			0	37258	0	0	0	24779	23370	139126	27320	1012647	42238	109155	0	0	8250	584958	0	0
2024-06-18 03:23:32			0	37280	0	0	0	24779	23370	139054	27140	1012647	42227	109155	0	0	8252	584064	0	0
2024-06-18 03:24:32			0	37282	0	0	0	24766	23360	139166	26864	1012604	42214	109150	0	0	8252	584015	0	0
2024-06-18 03:25:32			0	37290	0	0	0	24768	23370	139102	26765	1012647	42238	109151	0	0	8252	583658	0	0
2024-06-18 03:26:32			0	37282	0	0	0	24763	23350	139026	26767	1012631	42224	109149	0	0	8252	584048	0	0
2024-06-18 03:27:32			0	37288	0	0	0	24761	23360	139142	26800	1012604	42225	109148	0	0	8252	583772	0	0
2024-06-18 03:28:32			0	37280	0	0	0	24750	23350	139046	27263	1012613	42247	109144	0	0	8252	584129	0	0
2024-06-18 03:29:32			0	37252	0	0	0	24761	23360	139074	27088	1012649	42214	109148	0	0	8250	585235	0	0
2024-06-18 03:30:32			0	37281	0	0	0	24758	23350	139006	26878	1012640	42213	109147	0	0	8252	584089	0	0
2024-06-18 03:31:32			0	37263	0	0	0	24763	23360	139090	26850	1012622	42248	109149	0	0	8251	584788	0	0
2024-06-18 03:32:32			0	37265	0	0	0	24784	23360	139054	26979	1012684	42236	109157	0	0	8251	584706	0	0
2024-06-18 03:33:32			0	37280	0	0	0	24781	23360	139018	27001	1012657	42248	109156	0	0	8252	584097	0	0
2024-06-18 03:34:32			0	37271	0	0	0	24774	23360	139090	26890	1012622	42236	109153	0	0	8251	584462	0	0
2024-06-18 03:35:32			0	37272	0	0	0	24771	23360	139094	27215	1012622	42225	109152	0	0	8251	584422	0	0
2024-06-18 03:36:32			0	37287	0	0	0	24771	23350	139178	26876	1012560	42213	109152	0	0	8252	583845	0	0
2024-06-18 03:37:32			0	37280	0	0	0	24763	23350	139058	27031	1012587	42224	109149	0	0	8252	584129	0	0
2024-06-18 03:38:32			0	37284	0	0	0	24753	23350	139134	26918	1012525	42235	109145	0	0	8252	583967	0	0
2024-06-18 03:39:32			0	37268	0	0	0	24758	23360	139202	27239	1012568	42214	109147	0	0	8251	584584	0	0
2024-06-18 03:40:32			0	37270	0	0	0	24758	23350	139134	27034	1012587	42235	109147	0	0	8251	584536	0	0
2024-06-18 03:41:32			0	37288	0	0	0	24774	23360	139106	26987	1012684	42214	109153	0	0	8252	583772	0	0
2024-06-18 03:42:32			0	37273	0	0	0	24776	23350	139022	27059	1012640	42224	109154	0	0	8251	584414	0	0
2024-06-18 03:43:32			0	37258	0	0	0	24776	23360	139134	27170	1012649	42248	109154	0	0	8250	584991	0	0
2024-06-18 03:44:32			0	37273	0	0	0	24768	23350	139138	26949	1012560	42235	109151	0	0	8251	584414	0	0
2024-06-18 03:45:32			0	37263	0	0	0	24766	23350	139238	27092	1012525	42224	109150	0	0	8251	584820	0	0
2024-06-18 03:46:32			0	37276	0	0	0	24761	23350	139074	27107	1012613	42235	109148	0	0	8252	584292	0	0
2024-06-18 03:47:32			0	37260	0	0	0	24766	23350	139174	26902	1012605	42213	109150	0	0	8251	584942	0	0
2024-06-18 03:48:32			0	37270	0	0	0	24755	23350	139158	26909	1012533	42224	109146	0	0	8251	584536	0	0
2024-06-18 03:49:32			0	37260	0	0	0	24758	23340	139170	27098	1012489	42234	109147	0	0	8251	584975	0	0
2024-06-18 03:50:32			0	37265	0	0	0	24761	23350	139214	27020	1012631	42247	109148	0	0	8251	584739	0	0
2024-06-18 03:51:32			0	37253	0	0	0	24758	23350	139134	27166	1012551	42235	109147	0	0	8250	585227	0	0
2024-06-18 03:52:32			0	37275	0	0	0	24758	23360	139114	27204	1012515	42225	109147	0	0	8252	584300	0	0
2024-06-18 03:53:32			0	37278	0	0	0	24755	23340	139206	27043	1012543	42212	109146	0	0	8252	584243	0	0
2024-06-18 03:54:32			0	37269	0	0	0	24758	23350	139218	26817	1012506	42235	109147	0	0	8251	584576	0	0
2024-06-18 03:55:32			0	37281	0	0	0	24748	23350	139206	26927	1012551	42235	109143	0	0	8252	584089	0	0
2024-06-18 03:56:32			0	37256	0	0	0	24750	23350	139186	27007	1012551	42213	109144	0	0	8251	585105	0	0
2024-06-18 03:57:32			0	37290	0	0	0	24748	23330	139182	27206	1012419	42211	109143	0	0	8252	583789	0	0
2024-06-18 03:58:32			0	37276	0	0	0	24737	23330	139238	26824	1012446	42234	109139	0	0	8252	584358	0	0
2024-06-18 03:59:32			0	37307	0	0	0	24737	23340	139158	26861	1012454	42234	109139	0	0	8254	583066	0	0
2024-06-18 04:00:32			0	37289	0	0	0	24748	23340	139166	27003	1012507	42211	109143	0	0	8252	583797	0	0
2024-06-18 04:01:32			0	37273	0	0	0	24729	23330	139170	26958	1012490	42234	109136	0	0	8252	584480	0	0
2024-06-18 04:02:32			0	37289	0	0	0	24745	23330	139138	26736	1012446	42234	109142	0	0	8252	583829	0	0
2024-06-18 04:03:32			0	37270	0	0	0	24740	23320	139078	27081	1012455	42244	109140	0	0	8252	584634	0	0
2024-06-18 04:04:32			0	37279	0	0	0	24737	23330	139122	26828	1012526	42211	109139	0	0	8252	584236	0	0
2024-06-18 04:05:32			0	37281	0	0	0	24732	23340	139074	27072	1012507	42222	109137	0	0	8252	584122	0	0
2024-06-18 04:06:32			0	37273	0	0	0	24737	23320	139050	26684	1012428	42233	109139	0	0	8252	584512	0	0
2024-06-18 04:07:32			0	37283	0	0	0	24727	23330	139138	26991	1012384	42234	109135	0	0	8252	584073	0	0
2024-06-18 04:08:32			0	37287	0	0	0	24727	23310	139078	26927	1012402	42220	109135	0	0	8253	583976	0	0
2024-06-18 04:09:32			0	37281	0	0	0	24716	23330	139054	26840	1012437	42245	109131	0	0	8253	584155	0	0
2024-06-18 04:10:32			0	37295	0	0	0	24706	23320	138974	26850	1012420	42232	109127	0	0	8253	583619	0	0
2024-06-18 04:11:32			0	37296	0	0	0	24711	23310	139038	27001	1012358	42232	109129	0	0	8253	583611	0	0
2024-06-18 04:12:32			0	37301	0	0	0	24703	23310	139038	27026	1012349	42220	109126	0	0	8254	583408	0	0
2024-06-18 04:13:32			0	37305	0	0	0	24698	23320	139050	26726	1012393	42220	109124	0	0	8254	583212	0	0
2024-06-18 04:14:32			0	37300	0	0	0	24701	23310	139074	26802	1012358	42209	109125	0	0	8254	583448	0	0
2024-06-18 04:15:32			0	37301	0	0	0	24693	23300	139074	27175	1012287	42208	109122	0	0	8254	583440	0	0
2024-06-18 04:16:32			0	37281	0	0	0	24701	23300	139046	26986	1012340	42208	109125	0	0	8253	584253	0	0
2024-06-18 04:17:32			0	37310	0	0	0	24693	23300	139042	26984	1012340	42220	109122	0	0	8254	583075	0	0
2024-06-18 04:18:32			0	37295	0	0	0	24701	23300	139062	27093	1012359	42219	109125	0	0	8253	583684	0	0
2024-06-18 04:19:32			0	37289	0	0	0	24693	23290	139034	26946	1012341	42230	109122	0	0	8253	583961	0	0
2024-06-18 04:20:32			0	37307	0	0	0	24698	23300	138990	27154	1012332	42230	109124	0	0	8254	583197	0	0
2024-06-18 04:21:32			0	37280	0	0	0	24701	23290	138978	27147	1012350	42230	109125	0	0	8253	584326	0	0
2024-06-18 04:22:32			0	37309	0	0	0	24696	23290	139070	26788	1012323	42208	109123	0	0	8254	583148	0	0
2024-06-18 04:23:32			0	37291	0	0	0	24701	23300	138990	27211	1012340	42220	109125	0	0	8253	583847	0	0
2024-06-18 04:24:32			0	37275	0	0	0	24688	23290	139014	26859	1012297	42219	109120	0	0	8253	584529	0	0
2024-06-18 04:25:32			0	37306	0	0	0	24701	23300	138962	27170	1012340	42231	109125	0	0	8254	583237	0	0
2024-06-18 04:26:32			0	37296	0	0	0	24688	23290	138906	27024	1012261	42230	109120	0	0	8254	583676	0	0
2024-06-18 04:27:32			0	37283	0	0	0	24693	23280	139062	26859	1012280	42229	109122	0	0	8253	584237	0	0
2024-06-18 04:28:32			0	37285	0	0	0	24696	23290	138934	27234	1012315	42208	109123	0	0	8253	584123	0	0
2024-06-18 04:29:32			0	37288	0	0	0	24703	23290	139038	27183	1012323	42230	109126	0	0	8253	584001	0	0
2024-06-18 04:30:32			0	37292	0	0	0	24693	23290	139062	26951	1012270	42241	109122	0	0	8253	583839	0	0
2024-06-18 04:31:32			0	37267	0	0	0	24688	23290	139114	27116	1012288	42208	109120	0	0	8252	584855	0	0
2024-06-18 04:32:32			0	37282	0	0	0	24683	23280	139082	27204	1012253	42218	109118	0	0	8253	584278	0	0
2024-06-18 04:33:32			0	37268	0	0	0	24683	23280	139138	27164	1012280	42218	109118	0	0	8252	584847	0	0
2024-06-18 04:34:32			0	37289	0	0	0	24688	23280	139146	27074	1012226	42229	109120	0	0	8253	583993	0	0
2024-06-18 04:35:32			0	37266	0	0	0	24675	23280	139186	27031	1012226	42218	109115	0	0	8252	584928	0	0
2024-06-18 04:36:32			0	37275	0	0	0	24677	23270	139186	26734	1012209	42238	109116	0	0	8253	584595	0	0
2024-06-18 04:37:32			0	37278	0	0	0	24677	23270	139182	27112	1012289	42227	109116	0	0	8253	584473	0	0
2024-06-18 04:38:32			0	37274	0	0	0	24683	23290	139146	27263	1012315	42230	109118	0	0	8253	584570	0	0
2024-06-18 04:39:32			0	37262	0	0	0	24680	23270	139094	27020	1012281	42227	109117	0	0	8252	585124	0	0
2024-06-18 04:40:32			0	37260	0	0	0	24685	23280	139238	27060	1012218	42228	109119	0	0	8252	585173	0	0
2024-06-18 04:41:32			0	37253	0	0	0	24680	23270	139342	26875	1012236	42238	109117	0	0	8251	585490	0	0
2024-06-18 04:42:32			0	37243	0	0	0	24680	23280	139310	26939	1012271	42228	109117	0	0	8251	585864	0	0
2024-06-18 04:43:32			0	37222	0	0	0	24675	23270	139330	27121	1012200	42238	109115	0	0	8250	586753	0	0
2024-06-18 04:44:32			0	37213	0	0	0	24672	23260	139362	26750	1012245	42206	109114	0	0	8249	587153	0	0
2024-06-18 04:45:32			0	37221	0	0	0	24675	23270	139382	26861	1012156	42216	109115	0	0	8250	586793	0	0
2024-06-18 04:46:32			0	37200	0	0	0	24667	23270	139366	26972	1012156	42238	109112	0	0	8249	587650	0	0
2024-06-18 04:47:32			0	37216	0	0	0	24664	23270	139454	26831	1012174	42216	109111	0	0	8250	586997	0	0
2024-06-18 04:48:32			0	37195	0	0	0	24664	23260	139454	27026	1012219	42216	109111	0	0	8249	587887	0	0
2024-06-18 04:49:32			0	37176	0	0	0	24662	23270	139490	27301	1012289	42227	109110	0	0	8248	588630	0	0
2024-06-18 04:50:32			0	37175	0	0	0	24670	23260	139498	26866	1012139	42227	109113	0	0	8248	588703	0	0
2024-06-18 04:51:32			0	37159	0	0	0	24675	23270	139582	26788	1012200	42227	109115	0	0	8247	589324	0	0
2024-06-18 04:52:32			0	37166	0	0	0	24680	23260	139538	27156	1012219	42227	109117	0	0	8247	589071	0	0
2024-06-18 04:53:32			0	37169	0	0	0	24670	23270	139662	27118	1012174	42227	109113	0	0	8247	588916	0	0
2024-06-18 04:54:32			0	37158	0	0	0	24664	23260	139654	26876	1012210	42205	109111	0	0	8247	589398	0	0
2024-06-18 04:55:32			0	37137	0	0	0	24670	23270	139638	26823	1012281	42227	109113	0	0	8246	590224	0	0
2024-06-18 04:56:32			0	37130	0	0	0	24667	23270	139670	27161	1012147	42227	109112	0	0	8245	590510	0	0
2024-06-18 04:57:32			0	37102	0	0	0	24672	23260	139738	27322	1012165	42227	109114	0	0	8244	591690	0	0
2024-06-18 04:58:32			0	37126	0	0	0	24662	23260	139754	26887	1012219	42227	109110	0	0	8245	590707	0	0
2024-06-18 04:59:32			0	37108	0	0	0	24664	23270	139854	27253	1012254	42216	109111	0	0	8244	591411	0	0
2024-06-18 05:00:32			0	37093	0	0	0	24672	23260	139842	26878	1012219	42216	109114	0	0	8243	592059	0	0
2024-06-18 05:01:32			0	37082	0	0	0	24664	23270	139846	27261	1012200	42227	109111	0	0	8243	592477	0	0
2024-06-18 05:02:32			0	37084	0	0	0	24670	23270	139858	27098	1012174	42227	109113	0	0	8243	592395	0	0
2024-06-18 05:03:32			0	37063	0	0	0	24675	23270	140034	27261	1012174	42227	109115	0	0	8242	593257	0	0
2024-06-18 05:04:32			0	37058	0	0	0	24657	23260	139882	27081	1012058	42216	109108	0	0	8242	593496	0	0
2024-06-18 05:05:32			0	37050	0	0	0	24638	23260	140038	27003	1012085	42194	109101	0	0	8242	593824	0	0
2024-06-18 05:06:32			0	37047	0	0	0	24620	23250	140034	26892	1011899	42192	109094	0	0	8242	593981	0	0
2024-06-18 05:07:32			0	37014	0	0	0	24594	23240	140058	26993	1011909	42203	109084	0	0	8240	595371	0	0
2024-06-18 05:08:32			0	37027	0	0	0	24584	23230	140114	26953	1011838	42202	109080	0	0	8241	594870	0	0
2024-06-18 05:09:32			0	37012	0	0	0	24571	23210	140130	27104	1011813	42222	109075	0	0	8240	595554	0	0
2024-06-18 05:10:32			0	37007	0	0	0	24563	23210	140270	26847	1011813	42200	109072	0	0	8240	595760	0	0
2024-06-18 05:11:32			0	36970	0	0	0	24548	23200	140330	26691	1011796	42209	109066	0	0	8239	597318	0	0
2024-06-18 05:12:32			0	36956	0	0	0	24540	23190	140430	27060	1011671	42198	109063	0	0	8238	597929	0	0
2024-06-18 05:13:32			0	36932	0	0	0	24537	23190	140462	26979	1011778	42209	109062	0	0	8237	598921	0	0
2024-06-18 05:14:32			0	36910	0	0	0	24535	23180	140590	26870	1011708	42208	109061	0	0	8236	599864	0	0
2024-06-18 05:15:32			0	36885	0	0	0	24527	23180	140686	27085	1011646	42208	109058	0	0	8234	600899	0	0
2024-06-18 05:16:32			0	36847	0	0	0	24529	23180	140782	26993	1011699	42219	109059	0	0	8232	602474	0	0
2024-06-18 05:17:32			0	36826	0	0	0	24516	23180	140918	26821	1011699	42197	109054	0	0	8232	603346	0	0
2024-06-18 05:18:32			0	36816	0	0	0	24527	23180	140906	27067	1011726	42197	109058	0	0	8231	603761	0	0
2024-06-18 05:19:32			0	36796	0	0	0	24522	23170	140966	27241	1011744	42208	109056	0	0	8230	604627	0	0
2024-06-18 05:20:32			0	36782	0	0	0	24519	23150	141022	26887	1011692	42207	109055	0	0	8229	605277	0	0
2024-06-18 05:21:32			0	36779	0	0	0	24529	23160	141110	26911	1011700	42207	109059	0	0	8229	605368	0	0
2024-06-18 05:22:32			0	36753	0	0	0	24532	23180	141174	26878	1011726	42197	109060	0	0	8227	606383	0	0
2024-06-18 05:23:32			0	36744	0	0	0	24540	23170	141198	26963	1011762	42207	109063	0	0	8227	606792	0	0
2024-06-18 05:24:32			0	36717	0	0	0	24542	23170	141406	27072	1011797	42196	109064	0	0	8225	607919	0	0
2024-06-18 05:25:32			0	36699	0	0	0	24553	23170	141382	26764	1011851	42196	109068	0	0	8224	608670	0	0
2024-06-18 05:26:32			0	36679	0	0	0	24555	23190	141390	26953	1011850	42197	109069	0	0	8223	609438	0	0
2024-06-18 05:27:32			0	36650	0	0	0	24563	23180	141538	26816	1011815	42208	109072	0	0	8221	610686	0	0
2024-06-18 05:28:32			0	36636	0	0	0	24563	23180	141610	27130	1011895	42219	109072	0	0	8221	611272	0	0
2024-06-18 05:29:32			0	36618	0	0	0	24576	23180	141578	27098	1011841	42208	109077	0	0	8220	612027	0	0
2024-06-18 05:30:32			0	36621	0	0	0	24561	23190	141682	27118	1011796	42208	109071	0	0	8220	611867	0	0
2024-06-18 05:31:32			0	36585	0	0	0	24568	23190	141793	26911	1011850	42219	109074	0	0	8218	613378	0	0
2024-06-18 05:32:32			0	36561	0	0	0	24571	23190	141793	26849	1011938	42209	109075	0	0	8217	614386	0	0
2024-06-18 05:33:32			0	36554	0	0	0	24576	23190	141881	26812	1011876	42208	109077	0	0	8216	614681	0	0
2024-06-18 05:34:32			0	36511	0	0	0	24573	23190	141933	27039	1011850	42219	109076	0	0	8214	616491	0	0
2024-06-18 05:35:32			0	36506	0	0	0	24573	23190	142013	26974	1011858	42231	109076	0	0	8214	616702	0	0
2024-06-18 05:36:32			0	36493	0	0	0	24584	23190	142145	27256	1011823	42219	109080	0	0	8213	617250	0	0
2024-06-18 05:37:32			0	36452	0	0	0	24579	23190	142185	26776	1011850	42197	109078	0	0	8211	618982	0	0
2024-06-18 05:38:32			0	36451	0	0	0	24594	23190	142177	27166	1011858	42198	109084	0	0	8210	619024	0	0
2024-06-18 05:39:32			0	36406	0	0	0	24571	23190	142309	27154	1011752	42209	109075	0	0	8209	620928	0	0
2024-06-18 05:40:32			0	36401	0	0	0	24571	23190	142477	26890	1011850	42197	109075	0	0	8208	621140	0	0
2024-06-18 05:41:32			0	36365	0	0	0	24566	23170	142677	26856	1011771	42208	109073	0	0	8206	622736	0	0
2024-06-18 05:42:32			0	36338	0	0	0	24553	23180	142669	26824	1011753	42197	109068	0	0	8205	623848	0	0
2024-06-18 05:43:32			0	36326	0	0	0	24561	23180	142721	26628	1011699	42186	109071	0	0	8204	624358	0	0
2024-06-18 05:44:32			0	36294	0	0	0	24553	23160	142945	26608	1011674	42195	109068	0	0	8203	625790	0	0
2024-06-18 05:45:32			0	36284	0	0	0	24553	23170	143057	26804	1011682	42195	109068	0	0	8202	626181	0	0
2024-06-18 05:46:32			0	36241	0	0	0	24542	23160	143153	26894	1011674	42228	109064	0	0	8200	628050	0	0
2024-06-18 05:47:32			0	36203	0	0	0	24542	23160	143241	26935	1011700	42195	109064	0	0	8198	629674	0	0
2024-06-18 05:48:32			0	36182	0	0	0	24537	23150	143417	26752	1011656	42195	109062	0	0	8197	630608	0	0
2024-06-18 05:49:32			0	36140	0	0	0	24540	23160	143521	26772	1011674	42207	109063	0	0	8195	632373	0	0
2024-06-18 05:50:32			0	36112	0	0	0	24537	23140	143677	26719	1011621	42194	109062	0	0	8193	633646	0	0
2024-06-18 05:51:32			0	36075	0	0	0	24540	23150	143845	26712	1011638	42207	109063	0	0	8191	635202	0	0
2024-06-18 05:52:32			0	36027	0	0	0	24524	23140	143941	27013	1011595	42226	109057	0	0	8189	637306	0	0
2024-06-18 05:53:32			0	36008	0	0	0	24516	23140	144049	26805	1011568	42215	109054	0	0	8188	638126	0	0
2024-06-18 05:54:32			0	35976	0	0	0	24522	23130	144193	26837	1011551	42193	109056	0	0	8186	639545	0	0
2024-06-18 05:55:32			0	35935	0	0	0	24506	23140	144381	26738	1011541	42194	109050	0	0	8184	641284	0	0
2024-06-18 05:56:32			0	35896	0	0	0	24509	23120	144441	27043	1011454	42213	109051	0	0	8182	643047	0	0
2024-06-18 05:57:32			0	35857	0	0	0	24506	23130	144593	26870	1011542	42204	109050	0	0	8180	644706	0	0
2024-06-18 05:58:32			0	35841	0	0	0	24493	23120	144748	26972	1011472	42202	109045	0	0	8179	645439	0	0
2024-06-18 05:59:32			0	35803	0	0	0	24493	23120	144956	26920	1011480	42192	109045	0	0	8177	647095	0	0
2024-06-18 06:00:32			0	35768	0	0	0	24501	23110	145064	26694	1011436	42212	109048	0	0	8175	648659	0	0
2024-06-18 06:01:32			0	35739	0	0	0	24490	23110	145204	26760	1011463	42191	109044	0	0	8174	649927	0	0
2024-06-18 06:02:32			0	35712	0	0	0	24485	23100	145320	26450	1011464	42200	109042	0	0	8173	651145	0	0
2024-06-18 06:03:32			0	35667	0	0	0	24488	23100	145348	26974	1011384	42211	109043	0	0	8170	653119	0	0
2024-06-18 06:04:32			0	35652	0	0	0	24480	23100	145548	27024	1011446	42190	109040	0	0	8169	653778	0	0
2024-06-18 06:05:32			0	35650	0	0	0	24490	23100	145656	26613	1011419	42212	109044	0	0	8169	653866	0	0
2024-06-18 06:06:32			0	35599	0	0	0	24472	23110	145740	26975	1011428	42212	109037	0	0	8167	656073	0	0
2024-06-18 06:07:32			0	35588	0	0	0	24483	23090	145836	26759	1011402	42200	109041	0	0	8166	656631	0	0
2024-06-18 06:08:32			0	35550	0	0	0	24480	23100	145992	27017	1011411	42200	109040	0	0	8164	658271	0	0
2024-06-18 06:09:32			0	35552	0	0	0	24488	23100	146040	26743	1011464	42200	109043	0	0	8164	658183	0	0
2024-06-18 06:10:32			0	35517	0	0	0	24496	23100	146104	27112	1011411	42189	109046	0	0	8162	659730	0	0
2024-06-18 06:11:32			0	35485	0	0	0	24490	23110	146188	26852	1011455	42191	109044	0	0	8160	661109	0	0
2024-06-18 06:12:32			0	35485	0	0	0	24490	23100	146220	27156	1011464	42200	109044	0	0	8160	661146	0	0
2024-06-18 06:13:32			0	35462	0	0	0	24490	23090	146364	27112	1011500	42211	109044	0	0	8159	662203	0	0
2024-06-18 06:14:32			0	35442	0	0	0	24496	23090	146396	27010	1011456	42211	109046	0	0	8158	663090	0	0
2024-06-18 06:15:32			0	35411	0	0	0	24498	23090	146332	26769	1011456	42200	109047	0	0	8156	664468	0	0
2024-06-18 06:16:32			0	35394	0	0	0	24493	23100	146464	26826	1011464	42189	109045	0	0	8155	665186	0	0
2024-06-18 06:17:32			0	35396	0	0	0	24503	23100	146576	26864	1011446	42212	109049	0	0	8155	665098	0	0
2024-06-18 06:18:32			0	35373	0	0	0	24503	23090	146724	26710	1011509	42189	109049	0	0	8154	666159	0	0
2024-06-18 06:19:32			0	35355	0	0	0	24496	23100	146680	27081	1011411	42178	109046	0	0	8153	666924	0	0
2024-06-18 06:20:32			0	35347	0	0	0	24488	23090	146812	26856	1011402	42200	109043	0	0	8153	667318	0	0
2024-06-18 06:21:32			0	35336	0	0	0	24475	23090	146800	27005	1011376	42200	109038	0	0	8153	667809	0	0
2024-06-18 06:22:32			0	35306	0	0	0	24472	23090	146896	27053	1011429	42189	109037	0	0	8151	669148	0	0
2024-06-18 06:23:32			0	35300	0	0	0	24475	23080	146880	26986	1011305	42210	109038	0	0	8151	669454	0	0
2024-06-18 06:24:32			0	35298	0	0	0	24470	23070	147000	27024	1011368	42187	109036	0	0	8150	669581	0	0
2024-06-18 06:25:32			0	35266	0	0	0	24459	23070	146984	27041	1011306	42198	109032	0	0	8149	671013	0	0
2024-06-18 06:26:32			0	35267	0	0	0	24462	23070	147064	27098	1011341	42187	109033	0	0	8149	670968	0	0
2024-06-18 06:27:32			0	35245	0	0	0	24467	23070	147156	26727	1011368	42199	109035	0	0	8148	671954	0	0
2024-06-18 06:28:32			0	35263	0	0	0	24467	23060	147068	27050	1011271	42208	109035	0	0	8149	671185	0	0
2024-06-18 06:29:32			0	35251	0	0	0	24464	23070	147204	26918	1011226	42186	109034	0	0	8148	671685	0	0
2024-06-18 06:30:32			0	35237	0	0	0	24462	23060	147168	27228	1011262	42197	109033	0	0	8147	672351	0	0
2024-06-18 06:31:32			0	35237	0	0	0	24459	23060	147200	27019	1011262	42174	109032	0	0	8147	672351	0	0
2024-06-18 06:32:32			0	35237	0	0	0	24457	23060	147252	27336	1011235	42197	109031	0	0	8147	672351	0	0
2024-06-18 06:33:32			0	35221	0	0	0	24457	23060	147168	27310	1011235	42197	109031	0	0	8146	673069	0	0
2024-06-18 06:34:32			0	35233	0	0	0	24446	23060	147168	27149	1011235	42185	109027	0	0	8147	672530	0	0
2024-06-18 06:35:32			0	35218	0	0	0	24441	23050	147212	27097	1011200	42185	109025	0	0	8147	673241	0	0
2024-06-18 06:36:32			0	35207	0	0	0	24436	23050	147232	26757	1011218	42185	109023	0	0	8146	673735	0	0
2024-06-18 06:37:32			0	35214	0	0	0	24444	23050	147328	27029	1011227	42173	109026	0	0	8146	673421	0	0
2024-06-18 06:38:32			0	35199	0	0	0	24438	23050	147492	27038	1011245	42185	109024	0	0	8146	674095	0	0
2024-06-18 06:39:32			0	35198	0	0	0	24441	23050	147348	26991	1011218	42217	109025	0	0	8145	674139	0	0
2024-06-18 06:40:32			0	35206	0	0	0	24441	23040	147432	27085	1011210	42185	109025	0	0	8146	673818	0	0
2024-06-18 06:41:32			0	35197	0	0	0	24449	23050	147348	27206	1011192	42207	109028	0	0	8145	674184	0	0
2024-06-18 06:42:32			0	35181	0	0	0	24441	23040	147404	27178	1011236	42207	109025	0	0	8144	674942	0	0
2024-06-18 06:43:32			0	35195	0	0	0	24436	23040	147344	27083	1011263	42207	109023	0	0	8145	674312	0	0
2024-06-18 06:44:32			0	35185	0	0	0	24446	23050	147352	27066	1011192	42196	109027	0	0	8145	674724	0	0
2024-06-18 06:45:32			0	35186	0	0	0	24441	23040	147380	26956	1011201	42184	109025	0	0	8145	674717	0	0
2024-06-18 06:46:32			0	35184	0	0	0	24444	23040	147420	27209	1011210	42185	109026	0	0	8145	674807	0	0
2024-06-18 06:47:32			0	35183	0	0	0	24438	23030	147424	27189	1011193	42183	109024	0	0	8145	674890	0	0
2024-06-18 06:48:32			0	35180	0	0	0	24436	23040	147380	27310	1011183	42196	109023	0	0	8144	674987	0	0
2024-06-18 06:49:32			0	35185	0	0	0	24438	23040	147372	26923	1011183	42196	109024	0	0	8145	674762	0	0
2024-06-18 06:50:32			0	35201	0	0	0	24431	23030	147400	27178	1011113	42205	109021	0	0	8146	674080	0	0
2024-06-18 06:51:32			0	35175	0	0	0	24428	23040	147392	27041	1011201	42184	109020	0	0	8144	675212	0	0
2024-06-18 06:52:32			0	35181	0	0	0	24433	23030	147384	26972	1011139	42205	109022	0	0	8145	674980	0	0
2024-06-18 06:53:32			0	35210	0	0	0	24425	23030	147344	27258	1011113	42183	109019	0	0	8146	673676	0	0
2024-06-18 06:54:32			0	35203	0	0	0	24441	23040	147460	26778	1011148	42195	109025	0	0	8146	673953	0	0
2024-06-18 06:55:32			0	35206	0	0	0	24428	23030	147464	26729	1011166	42183	109020	0	0	8146	673856	0	0
2024-06-18 06:56:32			0	35196	0	0	0	24436	23030	147332	27092	1011166	42205	109023	0	0	8145	674305	0	0
2024-06-18 06:57:32			0	35189	0	0	0	24438	23040	147328	27183	1011148	42184	109024	0	0	8145	674582	0	0
2024-06-18 06:58:32			0	35202	0	0	0	24438	23030	147356	27248	1011193	42216	109024	0	0	8146	674035	0	0
2024-06-18 06:59:32			0	35208	0	0	0	24438	23030	147332	27192	1011219	42183	109024	0	0	8146	673766	0	0
2024-06-18 07:00:32			0	35208	0	0	0	24446	23040	147256	26778	1011236	42196	109027	0	0	8146	673728	0	0
2024-06-18 07:01:32			0	35218	0	0	0	24454	23040	147260	26783	1011281	42172	109030	0	0	8146	673279	0	0
2024-06-18 07:02:32			0	35211	0	0	0	24451	23040	147204	26946	1011290	42196	109029	0	0	8146	673593	0	0
2024-06-18 07:03:32			0	35220	0	0	0	24446	23050	147268	27204	1011298	42207	109027	0	0	8147	673151	0	0
2024-06-18 07:04:32			0	35246	0	0	0	24454	23050	147140	27237	1011254	42185	109030	0	0	8148	671985	0	0
2024-06-18 07:05:32			0	35245	0	0	0	24451	23050	147124	26831	1011218	42217	109029	0	0	8148	672030	0	0
2024-06-18 07:06:32			0	35261	0	0	0	24451	23050	147056	27079	1011298	42185	109029	0	0	8149	671312	0	0
2024-06-18 07:07:32			0	35272	0	0	0	24454	23050	147024	27265	1011280	42185	109030	0	0	8149	670820	0	0
2024-06-18 07:08:32			0	35276	0	0	0	24451	23050	146948	26741	1011298	42207	109029	0	0	8149	670641	0	0
2024-06-18 07:09:32			0	35290	0	0	0	24451	23050	146876	26885	1011334	42207	109029	0	0	8150	670014	0	0
2024-06-18 07:10:32			0	35294	0	0	0	24451	23060	146828	27218	1011289	42185	109029	0	0	8151	669798	0	0
2024-06-18 07:11:32			0	35320	0	0	0	24449	23050	146796	27076	1011298	42196	109028	0	0	8152	668673	0	0
2024-06-18 07:12:32			0	35307	0	0	0	24454	23050	146768	27159	1011254	42207	109030	0	0	8151	669254	0	0
2024-06-18 07:13:32			0	35347	0	0	0	24451	23060	146700	27204	1011235	42208	109029	0	0	8153	667430	0	0
2024-06-18 07:14:32			0	35346	0	0	0	24454	23050	146688	27206	1011218	42196	109030	0	0	8153	667512	0	0
2024-06-18 07:15:32			0	35381	0	0	0	24451	23060	146560	27166	1011289	42208	109029	0	0	8155	665915	0	0
2024-06-18 07:16:32			0	35378	0	0	0	24451	23050	146544	27235	1011307	42185	109029	0	0	8155	666086	0	0
2024-06-18 07:17:32			0	35389	0	0	0	24459	23050	146508	27078	1011298	42185	109032	0	0	8155	665596	0	0
2024-06-18 07:18:32			0	35406	0	0	0	24451	23060	146416	26824	1011262	42208	109029	0	0	8157	664802	0	0
2024-06-18 07:19:32			0	35450	0	0	0	24454	23050	146408	27294	1011272	42185	109030	0	0	8159	662884	0	0
2024-06-18 07:20:32			0	35440	0	0	0	24457	23060	146364	27119	1011315	42185	109031	0	0	8158	663291	0	0
2024-06-18 07:21:32			0	35460	0	0	0	24451	23060	146268	27062	1011297	42186	109029	0	0	8159	662403	0	0
2024-06-18 07:22:32			0	35492	0	0	0	24464	23060	146140	27003	1011342	42208	109034	0	0	8161	660984	0	0
2024-06-18 07:23:32			0	35495	0	0	0	24451	23060	146180	27039	1011297	42208	109029	0	0	8161	660851	0	0
2024-06-18 07:24:32			0	35507	0	0	0	24457	23060	145980	27066	1011262	42208	109031	0	0	8162	660320	0	0
2024-06-18 07:25:32			0	35525	0	0	0	24462	23060	145908	26786	1011271	42198	109033	0	0	8163	659524	0	0
2024-06-18 07:26:32			0	35560	0	0	0	24462	23060	145864	27050	1011289	42185	109033	0	0	8165	657977	0	0
2024-06-18 07:27:32			0	35565	0	0	0	24459	23050	145852	27041	1011280	42207	109032	0	0	8165	657793	0	0
2024-06-18 07:28:32			0	35582	0	0	0	24454	23050	145848	27192	1011280	42196	109030	0	0	8166	657043	0	0
2024-06-18 07:29:32			0	35592	0	0	0	24462	23060	145708	27083	1011289	42208	109033	0	0	8166	656566	0	0
2024-06-18 07:30:32			0	35594	0	0	0	24464	23060	145644	27274	1011297	42208	109034	0	0	8166	656477	0	0
2024-06-18 07:31:32			0	35627	0	0	0	24459	23060	145668	27241	1011289	42208	109032	0	0	8168	655024	0	0
2024-06-18 07:32:32			0	35619	0	0	0	24459	23060	145476	27171	1011342	42208	109032	0	0	8168	655376	0	0
2024-06-18 07:33:32			0	35641	0	0	0	24467	23070	145560	27256	1011333	42219	109035	0	0	8169	654372	0	0
2024-06-18 07:34:32			0	35658	0	0	0	24464	23060	145504	27197	1011324	42186	109034	0	0	8170	653661	0	0
2024-06-18 07:35:32			0	35680	0	0	0	24457	23060	145448	27190	1011324	42186	109031	0	0	8171	652695	0	0
2024-06-18 07:36:32			0	35679	0	0	0	24446	23060	145352	27194	1011244	42175	109027	0	0	8171	652739	0	0
2024-06-18 07:37:32			0	35670	0	0	0	24433	23060	145284	27072	1011209	42208	109022	0	0	8171	653134	0	0
2024-06-18 07:38:32			0	35684	0	0	0	24423	23050	145312	27232	1011192	42207	109018	0	0	8172	652556	0	0
2024-06-18 07:39:32			0	35695	0	0	0	24428	23050	145232	27345	1011218	42207	109020	0	0	8172	652073	0	0
2024-06-18 07:40:32			0	35706	0	0	0	24428	23040	145260	27307	1011228	42206	109020	0	0	8173	651627	0	0
2024-06-18 07:41:32			0	35696	0	0	0	24415	23040	145256	27374	1011130	42185	109015	0	0	8173	652066	0	0
2024-06-18 07:42:32			0	35706	0	0	0	24415	23030	145292	27478	1011139	42183	109015	0	0	8173	651664	0	0
2024-06-18 07:43:32			0	35717	0	0	0	24399	23030	145296	26993	1011113	42183	109009	0	0	8174	651182	0	0
2024-06-18 07:44:32			0	35696	0	0	0	24397	23020	145272	26930	1011122	42205	109008	0	0	8173	652139	0	0
2024-06-18 07:45:32			0	35713	0	0	0	24394	23020	145236	26909	1011087	42204	109007	0	0	8174	651394	0	0
2024-06-18 07:46:32			0	35720	0	0	0	24392	23020	145196	27121	1011034	42182	109006	0	0	8174	651087	0	0
2024-06-18 07:47:32			0	35751	0	0	0	24384	23020	145212	27287	1010980	42182	109003	0	0	8176	649730	0	0
2024-06-18 07:48:32			0	35725	0	0	0	24386	23010	145100	27279	1010972	42170	109004	0	0	8175	650904	0	0
2024-06-18 07:49:32			0	35729	0	0	0	24381	23010	145180	27097	1010945	42192	109002	0	0	8175	650729	0	0
2024-06-18 07:50:32			0	35736	0	0	0	24384	23010	145108	27133	1010963	42181	109003	0	0	8175	650423	0	0
2024-06-18 07:51:32			0	35737	0	0	0	24379	23000	145072	26887	1011035	42191	109001	0	0	8175	650415	0	0
2024-06-18 07:52:32			0	35762	0	0	0	24376	23010	145116	26979	1010998	42192	109000	0	0	8177	649285	0	0
2024-06-18 07:53:32			0	35761	0	0	0	24376	22990	145124	27128	1010911	42202	109000	0	0	8177	649401	0	0
2024-06-18 07:54:32			0	35763	0	0	0	24358	22990	145044	27348	1010964	42179	108993	0	0	8177	649314	0	0
2024-06-18 07:55:32			0	35760	0	0	0	24350	22980	145064	27074	1010867	42167	108990	0	0	8177	649482	0	0
2024-06-18 07:56:32			0	35785	0	0	0	24348	22990	144952	27405	1010876	42179	108989	0	0	8178	648352	0	0
2024-06-18 07:57:32			0	35796	0	0	0	24337	22970	144996	27357	1010815	42177	108985	0	0	8179	647945	0	0
2024-06-18 07:58:32			0	35802	0	0	0	24335	22970	144988	27090	1010815	42166	108984	0	0	8179	647683	0	0
2024-06-18 07:59:32			0	35785	0	0	0	24327	22960	144840	27345	1010798	42198	108981	0	0	8179	648461	0	0
2024-06-18 08:00:32			0	35814	0	0	0	24327	22960	144864	27234	1010718	42175	108981	0	0	8180	647195	0	0
2024-06-18 08:01:32			0	35817	0	0	0	24309	22950	144980	27164	1010781	42197	108974	0	0	8181	647101	0	0
2024-06-18 08:02:32			0	35807	0	0	0	24327	22940	144892	27050	1010665	42186	108981	0	0	8180	647573	0	0
2024-06-18 08:03:32			0	35777	0	0	0	24316	22930	144964	27066	1010648	42173	108977	0	0	8178	648920	0	0
2024-06-18 08:04:32			0	35812	0	0	0	24316	22940	144972	27053	1010656	42185	108977	0	0	8180	647355	0	0
2024-06-18 08:05:32			0	35793	0	0	0	24301	22930	144964	27130	1010693	42162	108971	0	0	8179	648221	0	0
2024-06-18 08:06:32			0	35808	0	0	0	24311	22930	144920	26790	1010666	42173	108975	0	0	8180	647566	0	0
2024-06-18 08:07:32			0	35781	0	0	0	24296	22930	145048	27001	1010639	42173	108969	0	0	8179	648745	0	0
2024-06-18 08:08:32			0	35748	0	0	0	24298	22920	145148	27241	1010542	42172	108970	0	0	8177	650225	0	0
2024-06-18 08:09:32			0	35763	0	0	0	24288	22910	145200	27183	1010640	42172	108966	0	0	8178	649605	0	0
2024-06-18 08:10:32			0	35741	0	0	0	24285	22920	145296	27119	1010542	42172	108965	0	0	8177	650532	0	0
2024-06-18 08:11:32			0	35719	0	0	0	24288	22910	145276	27107	1010525	42160	108966	0	0	8175	651532	0	0
2024-06-18 08:12:32			0	35693	0	0	0	24283	22910	145380	27178	1010552	42171	108964	0	0	8174	652673	0	0
2024-06-18 08:13:32			0	35675	0	0	0	24275	22900	145444	26974	1010481	42170	108961	0	0	8173	653500	0	0
2024-06-18 08:14:32			0	35654	0	0	0	24272	22900	145560	27109	1010481	42160	108960	0	0	8172	654424	0	0
2024-06-18 08:15:32			0	35621	0	0	0	24270	22890	145664	27324	1010473	42169	108959	0	0	8170	655913	0	0
2024-06-18 08:16:32			0	35598	0	0	0	24259	22890	145772	26918	1010464	42169	108955	0	0	8169	656927	0	0
2024-06-18 08:17:32			0	35569	0	0	0	24257	22880	145928	26901	1010447	42179	108954	0	0	8168	658244	0	0
2024-06-18 08:18:32			0	35530	0	0	0	24254	22890	146012	27235	1010438	42169	108953	0	0	8166	659931	0	0
2024-06-18 08:19:32			0	35491	0	0	0	24249	22880	146216	27157	1010429	42169	108951	0	0	8164	661696	0	0
2024-06-18 08:20:32			0	35439	0	0	0	24241	22860	146348	27230	1010341	42189	108948	0	0	8161	664079	0	0
2024-06-18 08:21:32			0	35423	0	0	0	24231	22860	146500	27131	1010261	42156	108944	0	0	8160	664791	0	0
2024-06-18 08:22:32			0	35382	0	0	0	24220	22850	146596	27260	1010253	42177	108940	0	0	8158	666654	0	0
2024-06-18 08:23:32			0	35374	0	0	0	24207	22840	146720	27303	1010183	42155	108935	0	0	8158	667048	0	0
2024-06-18 08:24:32			0	35327	0	0	0	24207	22840	146964	27069	1010209	42166	108935	0	0	8155	669147	0	0
2024-06-18 08:25:32			0	35293	0	0	0	24207	22840	147060	27041	1010201	42154	108935	0	0	8154	670669	0	0
2024-06-18 08:26:32			0	35263	0	0	0	24194	22830	147088	26897	1010157	42153	108930	0	0	8152	672051	0	0
2024-06-18 08:27:32			0	35240	0	0	0	24192	22820	147336	27033	1010139	42152	108929	0	0	8151	673121	0	0
2024-06-18 08:28:32			0	35211	0	0	0	24186	22810	147376	26974	1010131	42164	108927	0	0	8149	674462	0	0
2024-06-18 08:29:32			0	35203	0	0	0	24184	22820	147540	26979	1010148	42152	108926	0	0	8149	674784	0	0
2024-06-18 08:30:32			0	35154	0	0	0	24186	22810	147604	27450	1010149	42163	108927	0	0	8146	677029	0	0
2024-06-18 08:31:32			0	35155	0	0	0	24186	22800	147748	27258	1010025	42162	108927	0	0	8146	677022	0	0
2024-06-18 08:32:32			0	35108	0	0	0	24184	22800	147787	27171	1010167	42172	108926	0	0	8144	679144	0	0
2024-06-18 08:33:32			0	35100	0	0	0	24186	22800	147879	27060	1010105	42162	108927	0	0	8143	679506	0	0
2024-06-18 08:34:32			0	35076	0	0	0	24189	22790	148011	27225	1010150	42150	108928	0	0	8142	680630	0	0
2024-06-18 08:35:32			0	35068	0	0	0	24189	22790	148003	27270	1010150	42162	108928	0	0	8141	680992	0	0
2024-06-18 08:36:32			0	35029	0	0	0	24186	22790	148131	27012	1010096	42150	108927	0	0	8139	682761	0	0
2024-06-18 08:37:32			0	35036	0	0	0	24184	22800	148075	26963	1010114	42172	108926	0	0	8140	682405	0	0
2024-06-18 08:38:32			0	35016	0	0	0	24176	22780	148355	27235	1010106	42160	108923	0	0	8139	683390	0	0
2024-06-18 08:39:32			0	34996	0	0	0	24181	22790	148499	27370	1010088	42161	108925	0	0	8138	684260	0	0
2024-06-18 08:40:32			0	34970	0	0	0	24179	22790	148399	27334	1010123	42162	108924	0	0	8136	685443	0	0
2024-06-18 08:41:32			0	34951	0	0	0	24194	22800	148479	27405	1010167	42162	108930	0	0	8135	686270	0	0
2024-06-18 08:42:32			0	34944	0	0	0	24194	22800	148491	27260	1010212	42172	108930	0	0	8135	686589	0	0
2024-06-18 08:43:32			0	34946	0	0	0	24218	22820	148515	26958	1010246	42174	108939	0	0	8134	686421	0	0
2024-06-18 08:44:32			0	34930	0	0	0	24231	22830	148543	27173	1010450	42197	108944	0	0	8133	687112	0	0
2024-06-18 08:45:32			0	34922	0	0	0	24267	22840	148579	27319	1010467	42187	108958	0	0	8132	687438	0	0
2024-06-18 08:46:32			0	34915	0	0	0	24283	22860	148619	27336	1010555	42200	108964	0	0	8132	687680	0	0
2024-06-18 08:47:32			0	34879	0	0	0	24293	22870	148667	27440	1010599	42190	108968	0	0	8130	689286	0	0
2024-06-18 08:48:32			0	34886	0	0	0	24316	22880	148683	27152	1010687	42179	108977	0	0	8130	688927	0	0
2024-06-18 08:49:32			0	34890	0	0	0	24322	22900	148667	27126	1010721	42204	108979	0	0	8130	688667	0	0
2024-06-18 08:50:32			0	34877	0	0	0	24335	22900	148759	26863	1010703	42182	108984	0	0	8129	689261	0	0
2024-06-18 08:51:32			0	34868	0	0	0	24348	22910	148763	26975	1010765	42182	108989	0	0	8128	689634	0	0
2024-06-18 08:52:32			0	34855	0	0	0	24348	22910	148787	27346	1010774	42183	108989	0	0	8128	690229	0	0
2024-06-18 08:53:32			0	34870	0	0	0	24361	22920	148875	27104	1010871	42173	108994	0	0	8128	689504	0	0
2024-06-18 08:54:32			0	34846	0	0	0	24361	22930	148843	27171	1010808	42185	108994	0	0	8127	690563	0	0
2024-06-18 08:55:32			0	34848	0	0	0	24363	22940	148827	26928	1010870	42196	108995	0	0	8127	690433	0	0
2024-06-18 08:56:32			0	34841	0	0	0	24366	22940	148807	27197	1010905	42197	108996	0	0	8127	690753	0	0
2024-06-18 08:57:32			0	34810	0	0	0	24379	22950	148907	27062	1010922	42208	109001	0	0	8125	692135	0	0
2024-06-18 08:58:32			0	34824	0	0	0	24386	22950	148963	27090	1010967	42197	109004	0	0	8125	691493	0	0
2024-06-18 08:59:32			0	34824	0	0	0	24392	22970	148899	26958	1010957	42177	109006	0	0	8125	691416	0	0
2024-06-18 09:00:32			0	34805	0	0	0	24389	22960	148943	27209	1010886	42187	109005	0	0	8124	692325	0	0
2024-06-18 09:01:32			0	34815	0	0	0	24394	22960	148927	26765	1010958	42198	109007	0	0	8125	691867	0	0
2024-06-18 09:02:32			0	34814	0	0	0	24399	22970	148959	27085	1010983	42188	109009	0	0	8125	691874	0	0
2024-06-18 09:03:32			0	34805	0	0	0	24392	22970	148923	26955	1010957	42200	109006	0	0	8124	692287	0	0
2024-06-18 09:04:32			0	34806	0	0	0	24399	22970	148947	27093	1010948	42177	109009	0	0	8124	692241	0	0
2024-06-18 09:05:32			0	34809	0	0	0	24384	22980	148991	27034	1010912	42201	109003	0	0	8125	692064	0	0
2024-06-18 09:06:32			0	34792	0	0	0	24376	22960	149095	26842	1010833	42176	109000	0	0	8124	692922	0	0
2024-06-18 09:07:32			0	34809	0	0	0	24389	22970	149023	27208	1010930	42188	109005	0	0	8125	692103	0	0
2024-06-18 09:08:32			0	34806	0	0	0	24376	22980	148943	27268	1010965	42201	109000	0	0	8125	692202	0	0
2024-06-18 09:09:32			0	34789	0	0	0	24371	22960	149023	27258	1010940	42199	108998	0	0	8124	693059	0	0
2024-06-18 09:10:32			0	34807	0	0	0	24363	22960	149059	27057	1010851	42175	108995	0	0	8125	692234	0	0
2024-06-18 09:11:32			0	34794	0	0	0	24363	22950	148991	27206	1010869	42175	108995	0	0	8124	692869	0	0
2024-06-18 09:12:32			0	34794	0	0	0	24355	22950	149047	27261	1010896	42175	108992	0	0	8124	692869	0	0
2024-06-18 09:13:32			0	34789	0	0	0	24358	22970	148991	26930	1010895	42177	108993	0	0	8124	693020	0	0
2024-06-18 09:14:32			0	34807	0	0	0	24361	22960	149039	27168	1010913	42176	108994	0	0	8125	692234	0	0
2024-06-18 09:15:32			0	34805	0	0	0	24368	22950	149059	27317	1010922	42187	108997	0	0	8125	692364	0	0
2024-06-18 09:16:32			0	34792	0	0	0	24358	22960	149087	27007	1010958	42198	108993	0	0	8124	692922	0	0
2024-06-18 09:17:32			0	34804	0	0	0	24374	22970	149027	27187	1010975	42188	108999	0	0	8125	692332	0	0
2024-06-18 09:18:32			0	34776	0	0	0	24374	22970	148999	27282	1010975	42200	108999	0	0	8123	693617	0	0
2024-06-18 09:19:32			0	34784	0	0	0	24384	22980	149035	27085	1011045	42201	109003	0	0	8123	693211	0	0
2024-06-18 09:20:32			0	34802	0	0	0	24394	22980	148935	26909	1011000	42201	109007	0	0	8124	692385	0	0
2024-06-18 09:21:32			0	34794	0	0	0	24389	22990	149047	27131	1011009	42202	109005	0	0	8124	692714	0	0
2024-06-18 09:22:32			0	34801	0	0	0	24389	22970	148987	27064	1011063	42200	109005	0	0	8124	692470	0	0
2024-06-18 09:23:32			0	34813	0	0	0	24392	22990	148963	27118	1011089	42190	109006	0	0	8125	691842	0	0
2024-06-18 09:24:32			0	34812	0	0	0	24399	22990	148903	27128	1011062	42202	109009	0	0	8125	691888	0	0
2024-06-18 09:25:32			0	34820	0	0	0	24397	23000	149007	27286	1011053	42202	109008	0	0	8125	691483	0	0
2024-06-18 09:26:32			0	34815	0	0	0	24399	22990	148867	27223	1011089	42179	109009	0	0	8125	691751	0	0
2024-06-18 09:27:32			0	34821	0	0	0	24405	22990	148979	27237	1011124	42190	109011	0	0	8125	691476	0	0
2024-06-18 09:28:32			0	34801	0	0	0	24418	23000	148931	27182	1011195	42191	109016	0	0	8124	692354	0	0
2024-06-18 09:29:32			0	34821	0	0	0	24451	23020	148855	26968	1011407	42226	109029	0	0	8125	691359	0	0
2024-06-18 09:30:32			0	34825	0	0	0	24493	23040	148927	26779	1011495	42228	109045	0	0	8124	691099	0	0
2024-06-18 09:31:32			0	34820	0	0	0	24514	23060	148795	26772	1011529	42241	109053	0	0	8124	691250	0	0
2024-06-18 09:32:32			0	34841	0	0	0	24522	23070	148835	26778	1011582	42220	109056	0	0	8125	690250	0	0
2024-06-18 09:33:32			0	34825	0	0	0	24537	23090	148751	27105	1011607	42233	109062	0	0	8124	690905	0	0
2024-06-18 09:34:32			0	34832	0	0	0	24540	23090	148775	27022	1011642	42222	109063	0	0	8124	690584	0	0
2024-06-18 09:35:32			0	34857	0	0	0	24566	23120	148667	26844	1011739	42212	109073	0	0	8125	689325	0	0
2024-06-18 09:36:32			0	34885	0	0	0	24573	23120	148663	27142	1011792	42224	109076	0	0	8126	688047	0	0
2024-06-18 09:37:32			0	34895	0	0	0	24586	23130	148559	27301	1011871	42237	109081	0	0	8127	687552	0	0
2024-06-18 09:38:32			0	34910	0	0	0	24594	23150	148483	27274	1012003	42239	109084	0	0	8128	686791	0	0
2024-06-18 09:39:32			0	34925	0	0	0	24607	23170	148439	27343	1011949	42217	109089	0	0	8128	686031	0	0
2024-06-18 09:40:32			0	34954	0	0	0	24599	23170	148307	27085	1011958	42229	109086	0	0	8130	684711	0	0
2024-06-18 09:41:32			0	34967	0	0	0	24586	23170	148163	27301	1011949	42217	109081	0	0	8131	684121	0	0
2024-06-18 09:42:32			0	34987	0	0	0	24571	23170	148123	27286	1011904	42196	109075	0	0	8132	683212	0	0
2024-06-18 09:43:32			0	35024	0	0	0	24563	23170	147939	26965	1011877	42229	109072	0	0	8134	681535	0	0
2024-06-18 09:44:32			0	35041	0	0	0	24548	23170	147835	27000	1011824	42218	109066	0	0	8136	680765	0	0
2024-06-18 09:45:32			0	35088	0	0	0	24519	23170	147727	27199	1011735	42184	109055	0	0	8139	678640	0	0
2024-06-18 09:46:32			0	35098	0	0	0	24509	23160	147547	27079	1011700	42195	109051	0	0	8139	678226	0	0
2024-06-18 09:47:32			0	35122	0	0	0	24503	23150	147472	26878	1011630	42195	109049	0	0	8141	677182	0	0
2024-06-18 09:48:32			0	35148	0	0	0	24488	23130	147388	26887	1011577	42193	109043	0	0	8142	676086	0	0
2024-06-18 09:49:32			0	35171	0	0	0	24477	23140	147336	27145	1011613	42193	109039	0	0	8144	675013	0	0
2024-06-18 09:50:32			0	35208	0	0	0	24451	23130	147240	26892	1011542	42181	109029	0	0	8146	673388	0	0
2024-06-18 09:51:32			0	35214	0	0	0	24438	23110	147260	27291	1011375	42180	109024	0	0	8147	673194	0	0
2024-06-18 09:52:32			0	35229	0	0	0	24425	23090	147212	27138	1011367	42178	109019	0	0	8148	672596	0	0
2024-06-18 09:53:32			0	35242	0	0	0	24405	23090	147112	26802	1011340	42189	109011	0	0	8149	672013	0	0
2024-06-18 09:54:32			0	35238	0	0	0	24394	23080	147140	27092	1011278	42188	109007	0	0	8149	672230	0	0
2024-06-18 09:55:32			0	35268	0	0	0	24389	23070	147044	27327	1011280	42186	109005	0	0	8150	670924	0	0
2024-06-18 09:56:32			0	35255	0	0	0	24384	23060	147012	27166	1011217	42198	109003	0	0	8150	671544	0	0
2024-06-18 09:57:32			0	35285	0	0	0	24376	23060	147032	27090	1011235	42185	109000	0	0	8151	670200	0	0
2024-06-18 09:58:32			0	35295	0	0	0	24371	23040	147028	26861	1011121	42184	108998	0	0	8152	669828	0	0
2024-06-18 09:59:32			0	35292	0	0	0	24363	23040	146912	26946	1011121	42184	108995	0	0	8152	669962	0	0
2024-06-18 10:00:32			0	35301	0	0	0	24363	23030	147008	27395	1011166	42171	108995	0	0	8152	669597	0	0
2024-06-18 10:01:32			0	35311	0	0	0	24363	23020	146868	27261	1011015	42183	108995	0	0	8153	669188	0	0
2024-06-18 10:02:32			0	35320	0	0	0	24358	23020	146904	27223	1011114	42170	108993	0	0	8153	668785	0	0
2024-06-18 10:03:32			0	35332	0	0	0	24355	23020	146788	26878	1011114	42182	108992	0	0	8154	668249	0	0
2024-06-18 10:04:32			0	35338	0	0	0	24363	23010	146692	26974	1011105	42192	108995	0	0	8154	668019	0	0
2024-06-18 10:05:32			0	35342	0	0	0	24366	23010	146740	27206	1011097	42192	108996	0	0	8154	667840	0	0
2024-06-18 10:06:32			0	35353	0	0	0	24368	23010	146672	27060	1011132	42192	108997	0	0	8155	667350	0	0
2024-06-18 10:07:32			0	35361	0	0	0	24384	23030	146688	27183	1011299	42194	109003	0	0	8155	666918	0	0
2024-06-18 10:08:32			0	35367	0	0	0	24420	23050	146644	26975	1011538	42217	109017	0	0	8155	666576	0	0
2024-06-18 10:09:32			0	35374	0	0	0	24475	23070	146616	27114	1011680	42219	109038	0	0	8154	666189	0	0
2024-06-18 10:10:32			0	35378	0	0	0	24535	23110	146524	27405	1011855	42224	109061	0	0	8154	665861	0	0
2024-06-18 10:11:32			0	35384	0	0	0	24589	23130	146460	27216	1012049	42226	109082	0	0	8153	665520	0	0
2024-06-18 10:12:32			0	35384	0	0	0	24654	23170	146464	27216	1012163	42250	109107	0	0	8152	665370	0	0
2024-06-18 10:13:32			0	35407	0	0	0	24701	23190	146432	27287	1012303	42241	109125	0	0	8153	664273	0	0
2024-06-18 10:14:32			0	35417	0	0	0	24722	23210	146392	26949	1012400	42244	109133	0	0	8153	663754	0	0
2024-06-18 10:15:32			0	35425	0	0	0	24740	23230	146460	26876	1012461	42246	109140	0	0	8153	663324	0	0
2024-06-18 10:16:32			0	35421	0	0	0	24776	23260	146352	27234	1012539	42238	109154	0	0	8153	663390	0	0
2024-06-18 10:17:32			0	35438	0	0	0	24802	23280	146200	27041	1012671	42250	109164	0	0	8153	662561	0	0
2024-06-18 10:18:32			0	35439	0	0	0	24823	23290	146232	27128	1012804	42252	109172	0	0	8153	662479	0	0
2024-06-18 10:19:32			0	35478	0	0	0	24844	23310	146136	27081	1012856	42243	109180	0	0	8155	660677	0	0
2024-06-18 10:20:32			0	35493	0	0	0	24854	23330	145968	27062	1012926	42255	109184	0	0	8156	659939	0	0
2024-06-18 10:21:32			0	35510	0	0	0	24864	23350	145900	26733	1012987	42235	109188	0	0	8156	659114	0	0
2024-06-18 10:22:32			0	35549	0	0	0	24864	23360	145776	27249	1012942	42258	109188	0	0	8159	657355	0	0
2024-06-18 10:23:32			0	35571	0	0	0	24833	23370	145572	27048	1012879	42237	109176	0	0	8160	656349	0	0
2024-06-18 10:24:32			0	35609	0	0	0	24805	23360	145532	27019	1012924	42236	109165	0	0	8163	654713	0	0
2024-06-18 10:25:32			0	35645	0	0	0	24786	23360	145240	27008	1012835	42236	109158	0	0	8165	653132	0	0
2024-06-18 10:26:32			0	35701	0	0	0	24763	23360	145096	27048	1012702	42225	109149	0	0	8168	650677	0	0
2024-06-18 10:27:32			0	35728	0	0	0	24729	23360	144992	26987	1012755	42214	109136	0	0	8171	649496	0	0
2024-06-18 10:28:32			0	35783	0	0	0	24724	23360	144676	27213	1012675	42214	109134	0	0	8174	647095	0	0
2024-06-18 10:29:32			0	35838	0	0	0	24722	23350	144500	27258	1012800	42235	109133	0	0	8176	644736	0	0
2024-06-18 10:30:32			0	35876	0	0	0	24735	23350	144261	27350	1012854	42247	109138	0	0	8178	643085	0	0
2024-06-18 10:31:32			0	35921	0	0	0	24761	23370	144165	27071	1012933	42259	109148	0	0	8180	641062	0	0
2024-06-18 10:32:32			0	35971	0	0	0	24810	23380	143981	26934	1013092	42260	109167	0	0	8182	638864	0	0
2024-06-18 10:33:32			0	36005	0	0	0	24859	23410	143861	27090	1013223	42263	109186	0	0	8183	637288	0	0
2024-06-18 10:34:32			0	36056	0	0	0	24911	23430	143649	27093	1013356	42253	109206	0	0	8185	635021	0	0
2024-06-18 10:35:32			0	36102	0	0	0	24940	23450	143549	26925	1013470	42266	109217	0	0	8187	632973	0	0
2024-06-18 10:36:32			0	36159	0	0	0	24971	23480	143213	27327	1013540	42258	109229	0	0	8190	630424	0	0
2024-06-18 10:37:32			0	36225	0	0	0	24989	23500	142989	26970	1013654	42271	109236	0	0	8193	627534	0	0
2024-06-18 10:38:32			0	36312	0	0	0	24999	23510	142637	26824	1013618	42260	109240	0	0	8198	623796	0	0
2024-06-18 10:39:32			0	36390	0	0	0	25007	23510	142229	27034	1013680	42261	109243	0	0	8202	620489	0	0
2024-06-18 10:40:32			0	36453	0	0	0	25010	23520	142121	26880	1013670	42274	109244	0	0	8205	617793	0	0
2024-06-18 10:41:32			0	36500	0	0	0	25018	23540	141793	27116	1013696	42264	109247	0	0	8207	615743	0	0
2024-06-18 10:42:32			0	36526	0	0	0	25018	23540	141761	27090	1013750	42287	109247	0	0	8209	614649	0	0
2024-06-18 10:43:32			0	36532	0	0	0	25028	23550	141681	27114	1013829	42254	109251	0	0	8209	614363	0	0
2024-06-18 10:44:32			0	36534	0	0	0	25028	23570	141745	27135	1013855	42267	109251	0	0	8209	614210	0	0
2024-06-18 10:45:32			0	36504	0	0	0	25028	23570	141829	27085	1013908	42256	109251	0	0	8208	615471	0	0
2024-06-18 10:46:32			0	36497	0	0	0	25031	23560	141833	27041	1013846	42266	109252	0	0	8207	615800	0	0
2024-06-18 10:47:32			0	36458	0	0	0	25033	23580	141969	27175	1013934	42256	109253	0	0	8205	617374	0	0
2024-06-18 10:48:32			0	36459	0	0	0	25038	23580	142109	26802	1013907	42279	109255	0	0	8205	617331	0	0
2024-06-18 10:49:32			0	36427	0	0	0	25044	23590	141985	27053	1014005	42280	109257	0	0	8203	618647	0	0
2024-06-18 10:50:32			0	36419	0	0	0	25044	23600	142089	26968	1013968	42282	109257	0	0	8203	618950	0	0
2024-06-18 10:51:32			0	36381	0	0	0	25051	23600	142137	27150	1013968	42282	109260	0	0	8201	620556	0	0
2024-06-18 10:52:32			0	36371	0	0	0	25057	23600	142217	26759	1013968	42282	109262	0	0	8200	620979	0	0
2024-06-18 10:53:32			0	36353	0	0	0	25054	23620	142281	26838	1014021	42271	109261	0	0	8199	621672	0	0
2024-06-18 10:54:32			0	36345	0	0	0	25054	23610	142441	26844	1014012	42271	109261	0	0	8199	622046	0	0
2024-06-18 10:55:32			0	36352	0	0	0	25054	23620	142405	27034	1014074	42271	109261	0	0	8199	621714	0	0
2024-06-18 10:56:32			0	36317	0	0	0	25036	23610	142393	26783	1013986	42271	109254	0	0	8198	623233	0	0
2024-06-18 10:57:32			0	36322	0	0	0	25018	23620	142509	26743	1014021	42283	109247	0	0	8198	622986	0	0
2024-06-18 10:58:32			0	36315	0	0	0	25007	23630	142497	27189	1014011	42261	109243	0	0	8198	623248	0	0
2024-06-18 10:59:32			0	36304	0	0	0	25025	23620	142525	27177	1014056	42272	109250	0	0	8197	623750	0	0
2024-06-18 11:00:32			0	36310	0	0	0	25038	23630	142505	27135	1014065	42272	109255	0	0	8197	623460	0	0
2024-06-18 11:01:32			0	36304	0	0	0	25046	23630	142517	27185	1014100	42272	109258	0	0	8197	623715	0	0
2024-06-18 11:02:32			0	36294	0	0	0	25051	23650	142621	27287	1014152	42286	109260	0	0	8196	624069	0	0
2024-06-18 11:03:32			0	36289	0	0	0	25067	23640	142517	26960	1014170	42296	109266	0	0	8196	624317	0	0
2024-06-18 11:04:32			0	36287	0	0	0	25083	23660	142637	27107	1014250	42286	109272	0	0	8196	624331	0	0
2024-06-18 11:05:32			0	36275	0	0	0	25090	23650	142605	26982	1014294	42286	109275	0	0	8195	624876	0	0
2024-06-18 11:06:32			0	36283	0	0	0	25098	23660	142605	26876	1014312	42265	109278	0	0	8195	624501	0	0
2024-06-18 11:07:32			0	36278	0	0	0	25106	23660	142601	26791	1014303	42286	109281	0	0	8195	624714	0	0
2024-06-18 11:08:32			0	36281	0	0	0	25101	23660	142489	26913	1014285	42287	109279	0	0	8195	624586	0	0
2024-06-18 11:09:32			0	36292	0	0	0	25114	23670	142549	27123	1014347	42288	109284	0	0	8195	624084	0	0
2024-06-18 11:10:32			0	36305	0	0	0	25114	23670	142473	27211	1014329	42288	109284	0	0	8196	623532	0	0
2024-06-18 11:11:32			0	36291	0	0	0	25119	23680	142529	27048	1014364	42288	109286	0	0	8195	624091	0	0
2024-06-18 11:12:32			0	36312	0	0	0	25124	23690	142409	27138	1014390	42300	109288	0	0	8196	623165	0	0
2024-06-18 11:13:32			0	36308	0	0	0	25148	23690	142401	27116	1014443	42290	109297	0	0	8196	623335	0	0
2024-06-18 11:14:32			0	36327	0	0	0	25153	23700	142317	27277	1014532	42290	109299	0	0	8197	622493	0	0
2024-06-18 11:15:32			0	36356	0	0	0	25140	23700	142293	27249	1014479	42290	109294	0	0	8198	621265	0	0
2024-06-18 11:16:32			0	36371	0	0	0	25150	23700	142209	26982	1014461	42301	109298	0	0	8199	620630	0	0
2024-06-18 11:17:32			0	36383	0	0	0	25150	23710	142149	27116	1014523	42302	109298	0	0	8200	620088	0	0
2024-06-18 11:18:32			0	36382	0	0	0	25153	23720	142117	27294	1014540	42281	109299	0	0	8200	620095	0	0
2024-06-18 11:19:32			0	36414	0	0	0	25155	23710	142117	26989	1014558	42281	109300	0	0	8201	618778	0	0
2024-06-18 11:20:32			0	36419	0	0	0	25163	23720	142061	27026	1014540	42281	109303	0	0	8201	618532	0	0
2024-06-18 11:21:32			0	36436	0	0	0	25153	23720	142021	27046	1014575	42292	109299	0	0	8203	617815	0	0
2024-06-18 11:22:32			0	36455	0	0	0	25153	23720	141881	26772	1014548	42282	109299	0	0	8204	617014	0	0
2024-06-18 11:23:32			0	36464	0	0	0	25150	23720	141893	26870	1014540	42281	109298	0	0	8204	616635	0	0
2024-06-18 11:24:32			0	36462	0	0	0	25145	23730	141865	27279	1014557	42293	109296	0	0	8204	616684	0	0
2024-06-18 11:25:32			0	36464	0	0	0	25148	23720	141797	27208	1014548	42303	109297	0	0	8204	616635	0	0
2024-06-18 11:26:32			0	36504	0	0	0	25145	23720	141705	27088	1014575	42303	109296	0	0	8206	614952	0	0
2024-06-18 11:27:32			0	36506	0	0	0	25142	23730	141601	27150	1014557	42293	109295	0	0	8206	614833	0	0
2024-06-18 11:28:32			0	36517	0	0	0	25140	23720	141605	27201	1014495	42270	109294	0	0	8207	614405	0	0
2024-06-18 11:29:32			0	36545	0	0	0	25145	23720	141533	27251	1014566	42291	109296	0	0	8208	613230	0	0
2024-06-18 11:30:32			0	36529	0	0	0	25145	23720	141525	27138	1014566	42291	109296	0	0	8208	613901	0	0
2024-06-18 11:31:32			0	36538	0	0	0	25148	23730	141569	27170	1014557	42293	109297	0	0	8208	613489	0	0
2024-06-18 11:32:32			0	36565	0	0	0	25150	23720	141557	27015	1014602	42292	109298	0	0	8209	612391	0	0
2024-06-18 11:33:32			0	36574	0	0	0	25150	23730	141473	27015	1014664	42282	109298	0	0	8210	611979	0	0
2024-06-18 11:34:32			0	36568	0	0	0	25140	23740	141401	27329	1014547	42283	109294	0	0	8210	612196	0	0
2024-06-18 11:35:32			0	36587	0	0	0	25158	23740	141381	27020	1014574	42294	109301	0	0	8211	611400	0	0
2024-06-18 11:36:32			0	36579	0	0	0	25150	23720	141389	26859	1014593	42281	109298	0	0	8210	611805	0	0
2024-06-18 11:37:32			0	36620	0	0	0	25153	23730	141342	27154	1014584	42304	109299	0	0	8212	610054	0	0
2024-06-18 11:38:32			0	36619	0	0	0	25148	23740	141226	26979	1014547	42283	109297	0	0	8212	610062	0	0
2024-06-18 11:39:32			0	36634	0	0	0	25145	23720	141226	26901	1014575	42282	109296	0	0	8213	609504	0	0
2024-06-18 11:40:32			0	36642	0	0	0	25150	23730	141154	27114	1014584	42293	109298	0	0	8213	609135	0	0
2024-06-18 11:41:32			0	36663	0	0	0	25161	23730	141206	27357	1014646	42305	109302	0	0	8214	608259	0	0
2024-06-18 11:42:32			0	36678	0	0	0	25171	23760	141078	27215	1014707	42295	109306	0	0	8215	607530	0	0
2024-06-18 11:43:32			0	36671	0	0	0	25173	23760	140994	27159	1014769	42307	109307	0	0	8215	607822	0	0
2024-06-18 11:44:32			0	36695	0	0	0	25189	23770	140962	27029	1014724	42285	109313	0	0	8216	606788	0	0
2024-06-18 11:45:32			0	36728	0	0	0	25194	23760	140914	26948	1014769	42295	109315	0	0	8217	605448	0	0
2024-06-18 11:46:32			0	36750	0	0	0	25192	23770	140858	27019	1014697	42318	109314	0	0	8219	604500	0	0
2024-06-18 11:47:32			0	36731	0	0	0	25186	23780	140838	26963	1014768	42297	109312	0	0	8218	605256	0	0
2024-06-18 11:48:32			0	36752	0	0	0	25184	23780	140754	26791	1014768	42287	109311	0	0	8219	604383	0	0
2024-06-18 11:49:32			0	36790	0	0	0	25189	23770	140738	27107	1014759	42286	109313	0	0	8221	602840	0	0
2024-06-18 11:50:32			0	36800	0	0	0	25189	23780	140686	26798	1014723	42297	109313	0	0	8221	602391	0	0
2024-06-18 11:51:32			0	36812	0	0	0	25150	23750	140546	26764	1014458	42284	109298	0	0	8222	601996	0	0
2024-06-18 11:52:32			0	36830	0	0	0	25101	23740	140486	27154	1014334	42272	109279	0	0	8224	601284	0	0
2024-06-18 11:53:32			0	36843	0	0	0	25096	23720	140506	26975	1014361	42282	109277	0	0	8225	600814	0	0
2024-06-18 11:54:32			0	36842	0	0	0	25101	23710	140386	26885	1014451	42281	109279	0	0	8225	600889	0	0
2024-06-18 11:55:32			0	36845	0	0	0	25122	23720	140414	27109	1014602	42282	109287	0	0	8225	600731	0	0
2024-06-18 11:56:32			0	36837	0	0	0	25127	23740	140346	26847	1014654	42305	109289	0	0	8224	600995	0	0
2024-06-18 11:57:32			0	36853	0	0	0	25155	23750	140506	27215	1014716	42305	109300	0	0	8225	600299	0	0
2024-06-18 11:58:32			0	36856	0	0	0	25145	23750	140394	27013	1014529	42294	109296	0	0	8225	600175	0	0
2024-06-18 11:59:32			0	36848	0	0	0	25090	23750	140418	26887	1014422	42272	109275	0	0	8225	600506	0	0
2024-06-18 12:00:32			0	36853	0	0	0	25059	23720	140438	27223	1014353	42269	109263	0	0	8226	600400	0	0
2024-06-18 12:01:32			0	36863	0	0	0	25057	23720	140346	27203	1014433	42291	109262	0	0	8227	599987	0	0
2024-06-18 12:02:32			0	36877	0	0	0	25093	23720	140362	27022	1014602	42314	109276	0	0	8227	599408	0	0
2024-06-18 12:03:32			0	36885	0	0	0	25127	23750	140294	27010	1014725	42306	109289	0	0	8227	598977	0	0
2024-06-18 12:04:32			0	36885	0	0	0	25114	23750	140286	26890	1014645	42284	109284	0	0	8227	598977	0	0
2024-06-18 12:05:32			0	36891	0	0	0	25101	23750	140222	26897	1014591	42273	109279	0	0	8227	598729	0	0
2024-06-18 12:06:32			0	36899	0	0	0	25106	23750	140190	27320	1014591	42284	109281	0	0	8228	598399	0	0
2024-06-18 12:07:32			0	36905	0	0	0	25106	23740	140214	27241	1014574	42283	109281	0	0	8228	598185	0	0
2024-06-18 12:08:32			0	36906	0	0	0	25070	23730	140206	26849	1014343	42271	109267	0	0	8229	598178	0	0
2024-06-18 12:09:32			0	36917	0	0	0	25023	23710	140154	26981	1014264	42248	109249	0	0	8230	597791	0	0
2024-06-18 12:10:32			0	36929	0	0	0	25020	23700	140122	27131	1014318	42279	109248	0	0	8231	597330	0	0
2024-06-18 12:11:32			0	36926	0	0	0	25033	23700	140122	27192	1014265	42279	109253	0	0	8230	597454	0	0
2024-06-18 12:12:32			0	36939	0	0	0	24976	23680	140058	26753	1013945	42245	109231	0	0	8232	596985	0	0
2024-06-18 12:13:32			0	36945	0	0	0	24901	23650	140110	27222	1013645	42197	109202	0	0	8233	596839	0	0
2024-06-18 12:14:32			0	36958	0	0	0	24849	23610	140102	27062	1013523	42226	109182	0	0	8235	596438	0	0
2024-06-18 12:15:32			0	36991	0	0	0	24810	23580	140106	27239	1013320	42224	109167	0	0	8237	595180	0	0
2024-06-18 12:16:32			0	36973	0	0	0	24755	23550	139966	27253	1013152	42198	109146	0	0	8237	596021	0	0
2024-06-18 12:17:32			0	36983	0	0	0	24722	23510	140054	27197	1012959	42196	109133	0	0	8238	595744	0	0
2024-06-18 12:18:32			0	36992	0	0	0	24709	23480	140082	26925	1013095	42226	109128	0	0	8238	595474	0	0
2024-06-18 12:19:32			0	36973	0	0	0	24758	23490	140002	27308	1013424	42281	109147	0	0	8236	596223	0	0
2024-06-18 12:20:32			0	36958	0	0	0	24831	23530	140194	27097	1013786	42285	109175	0	0	8235	596706	0	0
2024-06-18 12:21:32			0	36955	0	0	0	24859	23540	140214	26823	1013705	42287	109186	0	0	8234	596796	0	0
2024-06-18 12:22:32			0	36918	0	0	0	24890	23540	140294	27048	1013838	42275	109198	0	0	8232	598322	0	0
2024-06-18 12:23:32			0	36916	0	0	0	24935	23580	140302	27098	1014032	42279	109215	0	0	8231	598270	0	0
2024-06-18 12:24:32			0	36881	0	0	0	24994	23590	140370	26932	1014130	42280	109238	0	0	8228	599682	0	0
2024-06-18 12:25:32			0	36866	0	0	0	25015	23610	140326	26863	1014146	42282	109246	0	0	8227	600234	0	0
2024-06-18 12:26:32			0	36851	0	0	0	25036	23630	140442	27039	1014171	42284	109254	0	0	8226	600787	0	0
2024-06-18 12:27:32			0	36823	0	0	0	25033	23640	140494	26833	1014322	42285	109253	0	0	8225	601913	0	0
2024-06-18 12:28:32			0	36806	0	0	0	25080	23650	140506	27038	1014446	42296	109271	0	0	8223	602584	0	0
2024-06-18 12:29:32			0	36797	0	0	0	25101	23670	140674	27067	1014480	42277	109279	0	0	8222	602889	0	0
2024-06-18 12:30:32			0	36795	0	0	0	25109	23680	140702	27050	1014498	42288	109282	0	0	8222	602938	0	0
2024-06-18 12:31:32			0	36759	0	0	0	25111	23690	140746	27078	1014550	42279	109283	0	0	8220	604398	0	0
2024-06-18 12:32:32			0	36753	0	0	0	25137	23710	140810	27339	1014656	42291	109293	0	0	8219	604580	0	0
2024-06-18 12:33:32			0	36728	0	0	0	25137	23720	140786	27362	1014673	42291	109293	0	0	8218	605585	0	0
2024-06-18 12:34:32			0	36715	0	0	0	25150	23750	140878	27005	1014770	42294	109298	0	0	8217	606023	0	0
2024-06-18 12:35:32			0	36704	0	0	0	25179	23760	140922	26904	1014867	42274	109309	0	0	8216	606447	0	0
2024-06-18 12:36:32			0	36683	0	0	0	25202	23760	141050	27161	1014902	42295	109318	0	0	8215	607322	0	0
2024-06-18 12:37:32			0	36648	0	0	0	25199	23780	141090	26641	1014848	42287	109317	0	0	8213	608713	0	0
2024-06-18 12:38:32			0	36639	0	0	0	25210	23780	141142	27062	1014803	42287	109321	0	0	8213	609089	0	0
2024-06-18 12:39:32			0	36599	0	0	0	25199	23780	141194	27190	1014749	42287	109317	0	0	8211	610761	0	0
2024-06-18 12:40:32			0	36586	0	0	0	25166	23770	141269	27156	1014679	42264	109304	0	0	8210	611339	0	0
2024-06-18 12:41:32			0	36580	0	0	0	25155	23770	141385	27055	1014670	42274	109300	0	0	8210	611590	0	0
2024-06-18 12:42:32			0	36572	0	0	0	25145	23770	141413	26899	1014724	42285	109296	0	0	8210	611925	0	0
2024-06-18 12:43:32			0	36539	0	0	0	25168	23770	141421	27083	1014750	42295	109305	0	0	8208	613309	0	0
2024-06-18 12:44:32			0	36506	0	0	0	25173	23780	141569	27227	1014830	42297	109307	0	0	8206	614660	0	0
2024-06-18 12:45:32			0	36503	0	0	0	25199	23800	141673	27135	1015042	42310	109317	0	0	8206	614717	0	0
2024-06-18 12:46:32			0	36463	0	0	0	25233	23810	141745	26915	1015068	42290	109330	0	0	8203	616364	0	0
2024-06-18 12:47:32			0	36453	0	0	0	25228	23820	141789	26896	1015059	42302	109328	0	0	8203	616751	0	0
2024-06-18 12:48:32			0	36428	0	0	0	25212	23820	141921	27010	1014997	42257	109322	0	0	8202	617804	0	0
2024-06-18 12:49:32			0	36396	0	0	0	25210	23820	142009	26864	1014997	42291	109321	0	0	8200	619154	0	0
2024-06-18 12:50:32			0	36379	0	0	0	25233	23830	142073	27088	1015094	42291	109330	0	0	8199	619838	0	0
2024-06-18 12:51:32			0	36364	0	0	0	25233	23830	142113	27182	1015156	42302	109330	0	0	8198	620472	0	0
2024-06-18 12:52:32			0	36339	0	0	0	25251	23840	142229	27053	1015165	42314	109337	0	0	8196	621495	0	0
2024-06-18 12:53:32			0	36315	0	0	0	25267	23850	142285	27005	1015324	42304	109343	0	0	8195	622476	0	0
2024-06-18 12:54:32			0	36317	0	0	0	25293	23870	142457	27138	1015430	42318	109353	0	0	8195	622321	0	0
2024-06-18 12:55:32			0	36259	0	0	0	25327	23880	142457	26918	1015509	42319	109366	0	0	8191	624747	0	0
2024-06-18 12:56:32			0	36257	0	0	0	25345	23910	142525	27005	1015552	42322	109373	0	0	8191	624727	0	0
2024-06-18 12:57:32			0	36236	0	0	0	25366	23910	142489	27097	1015694	42310	109381	0	0	8189	625619	0	0
2024-06-18 12:58:32			0	36217	0	0	0	25371	23930	142637	27083	1015640	42334	109383	0	0	8188	626357	0	0
2024-06-18 12:59:32			0	36221	0	0	0	25386	23940	142733	27327	1015737	42313	109389	0	0	8188	626152	0	0
2024-06-18 13:00:32			0	36211	0	0	0	25425	23960	142773	27043	1015860	42326	109404	0	0	8187	626507	0	0
2024-06-18 13:01:32			0	36181	0	0	0	25454	23970	142873	27097	1015923	42337	109415	0	0	8185	627749	0	0
2024-06-18 13:02:32			0	36180	0	0	0	25483	23990	142849	27060	1015957	42339	109426	0	0	8185	627721	0	0
2024-06-18 13:03:32			0	36160	0	0	0	25509	24000	142897	26965	1016161	42340	109436	0	0	8183	628539	0	0
2024-06-18 13:04:32			0	36153	0	0	0	25535	24020	142969	26996	1016222	42342	109446	0	0	8182	628766	0	0
2024-06-18 13:05:32			0	36152	0	0	0	25555	24040	142953	26922	1016390	42333	109454	0	0	8182	628738	0	0
2024-06-18 13:06:32			0	36140	0	0	0	25618	24060	143033	27003	1016451	42335	109478	0	0	8181	629179	0	0
2024-06-18 13:07:32			0	36130	0	0	0	25612	24080	143045	26831	1016272	42315	109476	0	0	8180	629535	0	0
2024-06-18 13:08:32			0	36120	0	0	0	25563	24070	143033	27076	1016201	42326	109457	0	0	8180	629998	0	0
2024-06-18 13:09:32			0	36132	0	0	0	25535	24080	143061	26904	1016192	42315	109446	0	0	8182	629450	0	0
2024-06-18 13:10:32			0	36143	0	0	0	25527	24080	143065	27163	1016290	42315	109443	0	0	8182	628980	0	0
2024-06-18 13:11:32			0	36131	0	0	0	25527	24090	142993	27161	1016281	42327	109443	0	0	8182	629457	0	0
2024-06-18 13:12:32			0	36156	0	0	0	25535	24100	142957	27239	1016298	42338	109446	0	0	8183	628355	0	0
2024-06-18 13:13:32			0	36142	0	0	0	25566	24090	142973	27327	1016414	42337	109458	0	0	8182	628987	0	0
2024-06-18 13:14:32			0	36150	0	0	0	25592	24100	142929	27400	1016574	42350	109468	0	0	8182	628611	0	0
2024-06-18 13:15:32			0	36181	0	0	0	25654	24130	142865	27185	1016723	42352	109492	0	0	8182	627183	0	0
2024-06-18 13:16:32			0	36185	0	0	0	25688	24150	142873	27130	1016811	42343	109505	0	0	8182	626942	0	0
2024-06-18 13:17:32			0	36213	0	0	0	25714	24160	142805	26899	1016891	42367	109515	0	0	8183	625715	0	0
2024-06-18 13:18:32			0	36240	0	0	0	25758	24190	142661	26939	1017049	42370	109532	0	0	8184	624462	0	0
2024-06-18 13:19:32			0	36268	0	0	0	25792	24210	142509	27164	1017271	42372	109545	0	0	8185	623204	0	0
2024-06-18 13:20:32			0	36286	0	0	0	25851	24240	142341	27112	1017483	42386	109568	0	0	8185	622336	0	0
2024-06-18 13:21:32			0	36325	0	0	0	25880	24300	142181	27144	1017578	42379	109579	0	0	8187	620476	0	0
2024-06-18 13:22:32			0	36351	0	0	0	25885	24330	142141	27319	1017728	42382	109581	0	0	8188	619273	0	0
2024-06-18 13:23:32			0	36408	0	0	0	25896	24340	141913	27145	1017754	42383	109585	0	0	8191	616836	0	0
2024-06-18 13:24:32			0	36464	0	0	0	25893	24350	141685	27336	1017744	42374	109584	0	0	8194	614448	0	0
2024-06-18 13:25:32			0	36476	0	0	0	25883	24370	141585	27260	1017770	42385	109580	0	0	8195	613875	0	0
2024-06-18 13:26:32			0	36509	0	0	0	25885	24380	141441	27486	1017787	42376	109581	0	0	8197	612458	0	0
2024-06-18 13:27:32			0	36557	0	0	0	25883	24390	141213	27300	1017885	42377	109580	0	0	8199	610416	0	0
2024-06-18 13:28:32			0	36610	0	0	0	25893	24390	141074	27324	1017973	42355	109584	0	0	8202	608204	0	0
2024-06-18 13:29:32			0	36650	0	0	0	25896	24410	141002	26982	1017954	42379	109585	0	0	8204	606470	0	0
2024-06-18 13:30:32			0	36678	0	0	0	25896	24430	140802	27031	1017935	42380	109585	0	0	8206	605238	0	0
2024-06-18 13:31:32			0	36694	0	0	0	25890	24430	140658	27277	1017900	42380	109583	0	0	8207	604574	0	0
2024-06-18 13:32:32			0	36708	0	0	0	25877	24440	140670	26946	1017891	42371	109578	0	0	8208	603959	0	0
2024-06-18 13:33:32			0	36712	0	0	0	25862	24430	140458	27003	1017962	42380	109572	0	0	8208	603828	0	0
2024-06-18 13:34:32			0	36757	0	0	0	25864	24430	140406	26908	1017873	42370	109573	0	0	8210	601964	0	0
2024-06-18 13:35:32			0	36796	0	0	0	25854	24430	140338	27261	1017900	42370	109569	0	0	8213	600352	0	0
2024-06-18 13:36:32			0	36797	0	0	0	25841	24430	140358	27057	1017846	42359	109564	0	0	8213	600310	0	0
2024-06-18 13:37:32			0	36813	0	0	0	25833	24420	140306	27159	1017749	42358	109561	0	0	8214	599684	0	0
2024-06-18 13:38:32			0	36831	0	0	0	25820	24430	140194	27183	1017659	42370	109556	0	0	8215	598907	0	0
2024-06-18 13:39:32			0	36868	0	0	0	25815	24420	140098	27029	1017749	42369	109554	0	0	8217	597417	0	0
2024-06-18 13:40:32			0	36875	0	0	0	25802	24410	140030	27092	1017714	42368	109549	0	0	8218	597163	0	0
2024-06-18 13:41:32			0	36888	0	0	0	25820	24400	139966	27145	1017777	42368	109556	0	0	8218	596661	0	0
2024-06-18 13:42:32			0	36918	0	0	0	25825	24410	139878	27293	1017785	42390	109558	0	0	8219	595395	0	0
2024-06-18 13:43:32			0	36920	0	0	0	25841	24420	139854	27232	1017856	42358	109564	0	0	8219	595279	0	0
2024-06-18 13:44:32			0	36942	0	0	0	25849	24430	139750	26927	1017900	42370	109567	0	0	8220	594342	0	0
2024-06-18 13:45:32			0	36967	0	0	0	25846	24420	139690	27327	1017811	42392	109566	0	0	8222	593351	0	0
2024-06-18 13:46:32			0	36986	0	0	0	25841	24420	139622	27405	1017802	42369	109564	0	0	8223	592573	0	0
2024-06-18 13:47:32			0	37011	0	0	0	25831	24410	139434	27452	1017767	42368	109560	0	0	8224	591583	0	0
2024-06-18 13:48:32			0	37039	0	0	0	25820	24410	139478	27296	1017758	42357	109556	0	0	8226	590439	0	0
2024-06-18 13:49:32			0	37078	0	0	0	25810	24410	139326	27310	1017714	42368	109552	0	0	8228	588848	0	0
2024-06-18 13:50:32			0	37067	0	0	0	25802	24410	139206	27178	1017740	42368	109549	0	0	8228	589296	0	0
2024-06-18 13:51:32			0	37093	0	0	0	25799	24410	139162	27067	1017732	42390	109548	0	0	8229	588237	0	0
2024-06-18 13:52:32			0	37110	0	0	0	25823	24410	139182	27397	1017767	42368	109557	0	0	8230	587544	0	0
2024-06-18 13:53:32			0	37110	0	0	0	25807	24400	139006	27209	1017777	42357	109551	0	0	8230	587577	0	0
2024-06-18 13:54:32			0	37128	0	0	0	25799	24400	139058	27332	1017750	42390	109548	0	0	8231	586845	0	0
2024-06-18 13:55:32			0	37123	0	0	0	25794	24410	139106	27001	1017732	42368	109546	0	0	8231	587015	0	0
2024-06-18 13:56:32			0	37144	0	0	0	25797	24410	138938	26963	1017732	42379	109547	0	0	8232	586161	0	0
2024-06-18 13:57:32			0	37156	0	0	0	25784	24410	138902	27274	1017651	42390	109542	0	0	8233	585674	0	0
2024-06-18 13:58:32			0	37151	0	0	0	25776	24400	138886	27391	1017670	42379	109539	0	0	8232	585910	0	0
2024-06-18 13:59:32			0	37148	0	0	0	25761	24380	138954	27189	1017528	42366	109533	0	0	8232	586098	0	0
2024-06-18 14:00:32			0	37170	0	0	0	25742	24390	138858	27424	1017519	42355	109526	0	0	8234	585172	0	0
2024-06-18 14:01:32			0	37166	0	0	0	25727	24360	138914	27320	1017387	42352	109520	0	0	8234	585433	0	0
2024-06-18 14:02:32			0	37161	0	0	0	25701	24350	138978	27244	1017209	42330	109510	0	0	8234	585669	0	0
2024-06-18 14:03:32			0	37143	0	0	0	25667	24330	138922	27140	1017086	42349	109497	0	0	8234	586467	0	0
2024-06-18 14:04:32			0	37160	0	0	0	25646	24310	138942	27133	1017167	42348	109489	0	0	8235	585842	0	0
2024-06-18 14:05:32			0	37166	0	0	0	25646	24310	138966	26994	1017194	42359	109489	0	0	8235	585598	0	0
2024-06-18 14:06:32			0	37165	0	0	0	25654	24300	138942	27246	1017158	42370	109492	0	0	8235	585672	0	0
2024-06-18 14:07:32			0	37150	0	0	0	25657	24300	139062	27173	1017177	42346	109493	0	0	8234	586282	0	0
2024-06-18 14:08:32			0	37169	0	0	0	25662	24300	139070	27364	1017158	42347	109495	0	0	8235	585510	0	0
2024-06-18 14:09:32			0	37160	0	0	0	25662	24290	139086	27163	1017186	42369	109495	0	0	8234	585908	0	0
2024-06-18 14:10:32			0	37138	0	0	0	25672	24290	139118	27102	1017186	42346	109499	0	0	8233	586803	0	0
2024-06-18 14:11:32			0	37148	0	0	0	25688	24300	139054	27357	1017257	42369	109505	0	0	8233	586363	0	0
2024-06-18 14:12:32			0	37150	0	0	0	25703	24300	139154	27041	1017319	42370	109511	0	0	8233	586282	0	0
2024-06-18 14:13:32			0	37150	0	0	0	25714	24310	139146	26902	1017355	42370	109515	0	0	8233	586249	0	0
2024-06-18 14:14:32			0	37123	0	0	0	25729	24320	139182	27301	1017363	42371	109521	0	0	8231	587314	0	0
2024-06-18 14:15:32			0	37153	0	0	0	25732	24320	139082	27017	1017417	42382	109522	0	0	8233	586094	0	0
2024-06-18 14:16:32			0	37145	0	0	0	25748	24330	139078	26948	1017407	42382	109528	0	0	8232	586386	0	0
2024-06-18 14:17:32			0	37137	0	0	0	25761	24340	139134	26897	1017558	42362	109533	0	0	8232	586678	0	0
2024-06-18 14:18:32			0	37144	0	0	0	25786	24350	139126	27185	1017637	42374	109543	0	0	8232	586360	0	0
2024-06-18 14:19:32			0	37150	0	0	0	25807	24350	139142	26977	1017637	42384	109551	0	0	8232	586116	0	0
2024-06-18 14:20:32			0	37133	0	0	0	25820	24370	139118	26979	1017698	42375	109556	0	0	8231	586741	0	0
2024-06-18 14:21:32			0	37146	0	0	0	25833	24380	139166	27144	1017734	42376	109561	0	0	8231	586179	0	0
2024-06-18 14:22:32			0	37153	0	0	0	25844	24390	139118	26871	1017759	42377	109565	0	0	8231	585862	0	0
2024-06-18 14:23:32			0	37146	0	0	0	25823	24390	139082	27142	1017652	42377	109557	0	0	8231	586146	0	0
2024-06-18 14:24:32			0	37161	0	0	0	25825	24400	139042	26996	1017830	42368	109558	0	0	8232	585504	0	0
2024-06-18 14:25:32			0	37162	0	0	0	25828	24400	138934	26906	1017768	42378	109559	0	0	8232	585463	0	0
2024-06-18 14:26:32			0	37199	0	0	0	25825	24400	138946	26955	1017696	42368	109558	0	0	8234	583962	0	0
2024-06-18 14:27:32			0	37225	0	0	0	25815	24390	138818	27256	1017759	42366	109554	0	0	8236	582941	0	0
2024-06-18 14:28:32			0	37206	0	0	0	25815	24390	138846	27008	1017813	42366	109554	0	0	8235	583711	0	0
2024-06-18 14:29:32			0	37221	0	0	0	25810	24400	138814	26819	1017803	42368	109552	0	0	8235	583070	0	0
2024-06-18 14:30:32			0	37231	0	0	0	25828	24420	138834	27114	1017776	42379	109559	0	0	8236	582600	0	0
2024-06-18 14:31:32			0	37219	0	0	0	25820	24410	138846	27100	1017820	42390	109556	0	0	8235	583118	0	0
2024-06-18 14:32:32			0	37245	0	0	0	25833	24430	138722	26670	1017846	42392	109561	0	0	8236	582000	0	0
2024-06-18 14:33:32			0	37242	0	0	0	25849	24430	138682	26786	1017989	42380	109567	0	0	8236	582122	0	0
2024-06-18 14:34:32			0	37262	0	0	0	25872	24430	138726	27003	1018060	42380	109576	0	0	8237	581313	0	0
2024-06-18 14:35:32			0	37250	0	0	0	25898	24450	138710	27239	1018068	42383	109586	0	0	8236	581732	0	0
2024-06-18 14:36:32			0	37242	0	0	0	25896	24460	138622	27170	1018139	42383	109585	0	0	8235	582023	0	0
2024-06-18 14:37:32			0	37271	0	0	0	25885	24470	138562	27033	1018183	42396	109581	0	0	8237	580818	0	0
2024-06-18 14:38:32			0	37292	0	0	0	25880	24460	138610	26987	1018094	42384	109579	0	0	8238	580003	0	0
2024-06-18 14:39:32			0	37311	0	0	0	25883	24470	138510	27281	1018129	42385	109580	0	0	8239	579204	0	0
2024-06-18 14:40:32			0	37322	0	0	0	25885	24470	138451	27249	1018138	42385	109581	0	0	8240	578760	0	0
2024-06-18 14:41:32			0	37340	0	0	0	25901	24470	138311	27512	1018218	42385	109587	0	0	8240	578035	0	0
2024-06-18 14:42:32			0	37360	0	0	0	25911	24480	138215	27254	1018262	42397	109591	0	0	8241	577198	0	0
2024-06-18 14:43:32			0	37341	0	0	0	25929	24500	138315	27296	1018341	42387	109598	0	0	8240	577897	0	0
2024-06-18 14:44:32			0	37356	0	0	0	25950	24500	138363	27225	1018403	42388	109606	0	0	8241	577293	0	0
2024-06-18 14:45:32			0	37362	0	0	0	25963	24520	138231	27012	1018438	42378	109611	0	0	8241	576987	0	0
2024-06-18 14:46:32			0	37373	0	0	0	25963	24520	138219	26987	1018429	42390	109611	0	0	8241	576544	0	0
2024-06-18 14:47:32			0	37385	0	0	0	25942	24530	138155	27069	1018366	42391	109603	0	0	8242	576030	0	0
2024-06-18 14:48:32			0	37414	0	0	0	25919	24530	138059	27211	1018366	42379	109594	0	0	8244	574865	0	0
2024-06-18 14:49:32			0	37430	0	0	0	25906	24530	138047	27131	1018313	42369	109589	0	0	8245	574224	0	0
2024-06-18 14:50:32			0	37396	0	0	0	25901	24520	138071	26920	1018296	42378	109587	0	0	8244	575620	0	0
2024-06-18 14:51:32			0	37396	0	0	0	25903	24520	138083	27272	1018331	42368	109588	0	0	8244	575620	0	0
2024-06-18 14:52:32			0	37386	0	0	0	25901	24510	138095	27265	1018287	42377	109587	0	0	8243	576055	0	0
2024-06-18 14:53:32			0	37387	0	0	0	25903	24510	138063	26849	1018260	42377	109588	0	0	8243	576014	0	0
2024-06-18 14:54:32			0	37385	0	0	0	25893	24520	138151	27031	1018269	42390	109584	0	0	8243	576062	0	0
2024-06-18 14:55:32			0	37388	0	0	0	25901	24530	138127	27123	1018321	42391	109587	0	0	8243	575909	0	0
2024-06-18 14:56:32			0	37398	0	0	0	25906	24520	138091	27223	1018322	42378	109589	0	0	8244	575540	0	0
2024-06-18 14:57:32			0	37391	0	0	0	25898	24520	138079	27131	1018322	42368	109586	0	0	8243	575821	0	0
2024-06-18 14:58:32			0	37381	0	0	0	25901	24520	138147	27081	1018296	42390	109587	0	0	8243	576223	0	0
2024-06-18 14:59:32			0	37406	0	0	0	25898	24520	138071	26833	1018277	42378	109586	0	0	8244	575219	0	0
2024-06-18 15:00:32			0	37399	0	0	0	25896	24520	138059	27203	1018269	42390	109585	0	0	8244	575500	0	0
2024-06-18 15:01:32			0	37398	0	0	0	25885	24510	138059	27098	1018260	42377	109581	0	0	8244	575573	0	0
2024-06-18 15:02:32			0	37418	0	0	0	25890	24520	138055	27111	1018269	42378	109583	0	0	8245	574738	0	0
2024-06-18 15:03:32			0	37424	0	0	0	25877	24510	138007	27123	1018287	42367	109578	0	0	8245	574529	0	0
2024-06-18 15:04:32			0	37425	0	0	0	25870	24500	137963	26821	1018234	42365	109575	0	0	8245	574522	0	0
2024-06-18 15:05:32			0	37413	0	0	0	25870	24510	137991	27043	1018252	42389	109575	0	0	8245	574971	0	0
2024-06-18 15:06:32			0	37438	0	0	0	25872	24510	137999	27074	1018278	42377	109576	0	0	8246	573968	0	0
2024-06-18 15:07:32			0	37434	0	0	0	25872	24510	137939	27097	1018225	42367	109576	0	0	8246	574129	0	0
2024-06-18 15:08:32			0	37438	0	0	0	25870	24500	138047	26861	1018216	42376	109575	0	0	8246	574001	0	0
2024-06-18 15:09:32			0	37439	0	0	0	25870	24500	137995	26859	1018190	42376	109575	0	0	8246	573961	0	0
2024-06-18 15:10:32			0	37421	0	0	0	25864	24500	137971	27232	1018216	42388	109573	0	0	8245	574682	0	0
2024-06-18 15:11:32			0	37436	0	0	0	25862	24490	138091	27078	1018253	42365	109572	0	0	8246	574113	0	0
2024-06-18 15:12:32			0	37424	0	0	0	25851	24490	138127	27022	1018119	42387	109568	0	0	8246	574594	0	0
2024-06-18 15:13:32			0	37439	0	0	0	25836	24500	138055	27206	1018163	42376	109562	0	0	8247	573961	0	0
2024-06-18 15:14:32			0	37424	0	0	0	25836	24480	137995	27052	1018066	42375	109562	0	0	8246	574627	0	0
2024-06-18 15:15:32			0	37428	0	0	0	25820	24470	138019	26904	1017996	42363	109556	0	0	8246	574499	0	0
2024-06-18 15:16:32			0	37409	0	0	0	25802	24480	138127	26882	1018013	42352	109549	0	0	8246	575229	0	0
2024-06-18 15:17:32			0	37430	0	0	0	25802	24460	138087	27022	1017925	42362	109549	0	0	8247	574451	0	0
2024-06-18 15:18:32			0	37399	0	0	0	25784	24460	138083	27007	1017880	42362	109542	0	0	8245	575695	0	0
2024-06-18 15:19:32			0	37428	0	0	0	25797	24450	138007	26717	1017916	42373	109547	0	0	8247	574564	0	0
2024-06-18 15:20:32			0	37444	0	0	0	25797	24460	138087	27008	1017925	42373	109547	0	0	8248	573890	0	0
2024-06-18 15:21:32			0	37418	0	0	0	25794	24450	138075	26993	1017890	42362	109546	0	0	8246	574965	0	0
2024-06-18 15:22:32			0	37425	0	0	0	25799	24460	138047	27135	1017978	42373	109548	0	0	8247	574652	0	0
2024-06-18 15:23:32			0	37425	0	0	0	25794	24450	138083	27161	1017916	42373	109546	0	0	8247	574684	0	0
2024-06-18 15:24:32			0	37422	0	0	0	25799	24460	137991	26764	1017925	42373	109548	0	0	8246	574772	0	0
2024-06-18 15:25:32			0	37424	0	0	0	25789	24450	138095	27102	1017943	42350	109544	0	0	8247	574724	0	0
2024-06-18 15:26:32			0	37407	0	0	0	25784	24450	138159	26760	1017881	42362	109542	0	0	8246	575407	0	0
2024-06-18 15:27:32			0	37396	0	0	0	25768	24440	138095	26817	1017837	42348	109536	0	0	8245	575881	0	0
2024-06-18 15:28:32			0	37429	0	0	0	25763	24430	138191	27256	1017801	42359	109534	0	0	8247	574589	0	0
2024-06-18 15:29:32			0	37424	0	0	0	25784	24440	138151	27137	1017917	42371	109542	0	0	8247	574757	0	0
2024-06-18 15:30:32			0	37426	0	0	0	25810	24450	138099	26981	1018095	42373	109552	0	0	8246	574644	0	0
2024-06-18 15:31:32			0	37426	0	0	0	25890	24470	138083	27109	1018343	42396	109583	0	0	8245	574579	0	0
2024-06-18 15:32:32			0	37423	0	0	0	25935	24490	138059	27066	1018493	42387	109600	0	0	8244	574635	0	0
2024-06-18 15:33:32			0	37422	0	0	0	25979	24510	138035	26908	1018608	42400	109617	0	0	8244	574610	0	0
2024-06-18 15:34:32			0	37433	0	0	0	25984	24530	138095	26866	1018535	42380	109619	0	0	8244	574104	0	0
2024-06-18 15:35:32			0	37407	0	0	0	26002	24540	138039	26946	1018651	42391	109626	0	0	8242	575114	0	0
2024-06-18 15:36:32			0	37422	0	0	0	26012	24550	137947	27178	1018668	42392	109630	0	0	8243	574480	0	0
2024-06-18 15:37:32			0	37423	0	0	0	26020	24560	137935	26587	1018748	42393	109633	0	0	8243	574407	0	0
2024-06-18 15:38:32			0	37427	0	0	0	26036	24580	137991	27003	1018862	42385	109639	0	0	8243	574182	0	0
2024-06-18 15:39:32			0	37432	0	0	0	26059	24600	137999	26894	1018968	42397	109648	0	0	8243	573916	0	0
2024-06-18 15:40:32			0	37416	0	0	0	26088	24630	137987	27242	1019092	42411	109659	0	0	8242	574460	0	0
2024-06-18 15:41:32			0	37414	0	0	0	26119	24640	138059	26842	1019144	42423	109671	0	0	8241	574508	0	0
2024-06-18 15:42:32			0	37389	0	0	0	26140	24660	138035	27301	1019331	42414	109679	0	0	8240	575446	0	0
2024-06-18 15:43:32			0	37377	0	0	0	26174	24680	138019	27043	1019419	42416	109692	0	0	8239	575862	0	0
2024-06-18 15:44:32			0	37385	0	0	0	26205	24700	138011	26859	1019569	42407	109704	0	0	8239	575476	0	0
2024-06-18 15:45:32			0	37382	0	0	0	26223	24730	137967	26863	1019665	42410	109711	0	0	8238	575499	0	0
2024-06-18 15:46:32			0	37375	0	0	0	26244	24750	138023	26687	1019762	42422	109719	0	0	8238	575714	0	0
2024-06-18 15:47:32			0	37393	0	0	0	26277	24770	138043	26700	1019904	42424	109732	0	0	8238	574927	0	0
2024-06-18 15:48:32			0	37355	0	0	0	26293	24790	137975	26734	1019929	42426	109738	0	0	8236	576387	0	0
2024-06-18 15:49:32			0	37402	0	0	0	26303	24810	137999	27003	1019991	42439	109742	0	0	8238	574436	0	0
2024-06-18 15:50:32			0	37378	0	0	0	26309	24820	137975	27196	1020008	42417	109744	0	0	8237	575366	0	0
2024-06-18 15:51:32			0	37381	0	0	0	26327	24830	137987	26963	1020079	42419	109751	0	0	8237	575213	0	0
2024-06-18 15:52:32			0	37383	0	0	0	26337	24840	137943	26967	1020131	42420	109755	0	0	8237	575100	0	0
2024-06-18 15:53:32			0	37386	0	0	0	26342	24860	138023	26915	1020219	42444	109757	0	0	8237	574915	0	0
2024-06-18 15:54:32			0	37375	0	0	0	26345	24860	137919	27095	1020193	42433	109758	0	0	8236	575356	0	0
2024-06-18 15:55:32			0	37356	0	0	0	26363	24880	138007	26892	1020272	42434	109765	0	0	8235	576053	0	0
2024-06-18 15:56:32			0	37352	0	0	0	26361	24900	138003	26951	1020315	42425	109764	0	0	8235	576148	0	0
2024-06-18 15:57:32			0	37367	0	0	0	26363	24900	138007	26935	1020342	42425	109765	0	0	8236	575546	0	0
2024-06-18 15:58:32			0	37338	0	0	0	26376	24910	138071	26902	1020377	42426	109770	0	0	8234	576678	0	0
2024-06-18 15:59:32			0	37348	0	0	0	26361	24920	137979	26956	1020368	42439	109764	0	0	8235	576243	0	0
2024-06-18 16:00:32			0	37357	0	0	0	26358	24920	137991	26871	1020368	42427	109763	0	0	8235	575882	0	0
2024-06-18 16:01:32			0	37346	0	0	0	26358	24920	137991	26771	1020394	42427	109763	0	0	8235	576324	0	0
2024-06-18 16:02:32			0	37351	0	0	0	26355	24930	138055	27050	1020358	42428	109762	0	0	8235	576090	0	0
2024-06-18 16:03:32			0	37358	0	0	0	26353	24930	137963	26785	1020332	42428	109761	0	0	8236	575809	0	0
2024-06-18 16:04:32			0	37371	0	0	0	26329	24930	137987	26998	1020251	42417	109752	0	0	8237	575288	0	0
2024-06-18 16:05:32			0	37363	0	0	0	26296	24920	137939	26868	1020118	42406	109739	0	0	8237	575641	0	0
2024-06-18 16:06:32			0	37386	0	0	0	26259	24890	137943	26779	1019950	42404	109725	0	0	8239	574817	0	0
2024-06-18 16:07:32			0	37402	0	0	0	26228	24880	137931	27034	1019933	42402	109713	0	0	8240	574208	0	0
2024-06-18 16:08:32			0	37427	0	0	0	26207	24870	137787	27017	1019853	42412	109705	0	0	8241	573240	0	0
2024-06-18 16:09:32			0	37419	0	0	0	26197	24850	137755	27170	1019801	42410	109701	0	0	8241	573625	0	0
2024-06-18 16:10:32			0	37474	0	0	0	26171	24830	137671	26920	1019713	42397	109691	0	0	8244	571491	0	0
2024-06-18 16:11:32			0	37446	0	0	0	26155	24830	137635	26628	1019686	42397	109685	0	0	8243	572610	0	0
2024-06-18 16:12:32			0	37484	0	0	0	26137	24820	137591	26601	1019580	42407	109678	0	0	8245	571124	0	0
2024-06-18 16:13:32			0	37504	0	0	0	26116	24810	137543	26967	1019536	42383	109670	0	0	8247	570358	0	0
2024-06-18 16:14:32			0	37503	0	0	0	26101	24790	137487	26965	1019448	42393	109664	0	0	8247	570463	0	0
2024-06-18 16:15:32			0	37508	0	0	0	26085	24790	137467	27097	1019367	42393	109658	0	0	8247	570263	0	0
2024-06-18 16:16:32			0	37523	0	0	0	26062	24760	137547	27066	1019289	42379	109649	0	0	8248	569762	0	0
2024-06-18 16:17:32			0	37512	0	0	0	26054	24740	137475	26965	1019263	42399	109646	0	0	8248	570265	0	0
2024-06-18 16:18:32			0	37524	0	0	0	26041	24750	137507	27034	1019307	42400	109641	0	0	8249	569754	0	0
2024-06-18 16:19:32			0	37509	0	0	0	26051	24740	137503	27137	1019290	42399	109645	0	0	8248	570385	0	0
2024-06-18 16:20:32			0	37497	0	0	0	26049	24740	137511	27180	1019228	42388	109644	0	0	8247	570863	0	0
2024-06-18 16:21:32			0	37505	0	0	0	26054	24730	137567	26975	1019211	42399	109646	0	0	8247	570577	0	0
2024-06-18 16:22:32			0	37496	0	0	0	26044	24720	137543	26937	1019202	42386	109642	0	0	8247	570968	0	0
2024-06-18 16:23:32			0	37507	0	0	0	26038	24720	137587	26913	1019300	42386	109640	0	0	8248	570529	0	0
2024-06-18 16:24:32			0	37498	0	0	0	26049	24720	137571	27176	1019247	42398	109644	0	0	8247	570888	0	0
2024-06-18 16:25:32			0	37482	0	0	0	26057	24710	137583	27222	1019256	42396	109647	0	0	8246	571560	0	0
2024-06-18 16:26:32			0	37481	0	0	0	26059	24720	137687	27222	1019274	42375	109648	0	0	8246	571567	0	0
2024-06-18 16:27:32			0	37473	0	0	0	26070	24720	137715	26833	1019220	42398	109652	0	0	8246	571887	0	0
2024-06-18 16:28:32			0	37473	0	0	0	26077	24720	137763	26963	1019282	42398	109655	0	0	8245	571887	0	0
2024-06-18 16:29:32			0	37455	0	0	0	26096	24720	137767	26948	1019389	42409	109662	0	0	8244	572606	0	0
2024-06-18 16:30:32			0	37459	0	0	0	26116	24730	137755	27050	1019407	42410	109670	0	0	8244	572414	0	0
2024-06-18 16:31:32			0	37465	0	0	0	26137	24740	137771	27026	1019531	42388	109678	0	0	8244	572142	0	0
2024-06-18 16:32:32			0	37441	0	0	0	26163	24760	137851	26805	1019637	42401	109688	0	0	8242	573037	0	0
2024-06-18 16:33:32			0	37445	0	0	0	26179	24770	137835	27033	1019734	42413	109694	0	0	8242	572844	0	0
2024-06-18 16:34:32			0	37414	0	0	0	26236	24770	137915	27177	1019904	42413	109716	0	0	8240	574085	0	0
2024-06-18 16:35:32			0	37412	0	0	0	26288	24810	137991	27182	1019991	42439	109736	0	0	8239	574035	0	0
2024-06-18 16:36:32			0	37419	0	0	0	26309	24840	137907	26871	1020123	42430	109744	0	0	8239	573658	0	0
2024-06-18 16:37:32			0	37401	0	0	0	26298	24840	137903	27027	1020105	42420	109740	0	0	8238	574379	0	0
2024-06-18 16:38:32			0	37418	0	0	0	26293	24860	137951	26845	1020184	42421	109738	0	0	8239	573633	0	0
2024-06-18 16:39:32			0	37412	0	0	0	26298	24860	137987	27275	1020166	42422	109740	0	0	8239	573873	0	0
2024-06-18 16:40:32			0	37426	0	0	0	26309	24870	137931	27177	1020237	42412	109744	0	0	8240	573280	0	0
2024-06-18 16:41:32			0	37420	0	0	0	26316	24880	137815	27227	1020307	42413	109747	0	0	8239	573488	0	0
2024-06-18 16:42:32			0	37418	0	0	0	26324	24880	137807	27145	1020227	42424	109750	0	0	8239	573568	0	0
2024-06-18 16:43:32			0	37457	0	0	0	26327	24890	137887	26932	1020325	42415	109751	0	0	8241	571975	0	0
2024-06-18 16:44:32			0	37447	0	0	0	26332	24900	137763	27196	1020333	42415	109753	0	0	8241	572343	0	0
2024-06-18 16:45:32			0	37434	0	0	0	26324	24910	137751	27112	1020324	42426	109750	0	0	8240	572830	0	0
2024-06-18 16:46:32			0	37460	0	0	0	26327	24920	137739	27062	1020359	42427	109751	0	0	8241	571758	0	0
2024-06-18 16:47:32			0	37452	0	0	0	26353	24930	137599	26975	1020403	42416	109761	0	0	8241	572046	0	0
2024-06-18 16:48:32			0	37458	0	0	0	26386	24950	137619	26979	1020518	42429	109774	0	0	8240	571741	0	0
2024-06-18 16:49:32			0	37419	0	0	0	26399	24950	137739	27034	1020607	42441	109779	0	0	8238	573300	0	0
2024-06-18 16:50:32			0	37453	0	0	0	26410	24970	137831	27092	1020686	42443	109783	0	0	8240	571876	0	0
2024-06-18 16:51:32			0	37447	0	0	0	26433	24980	137679	27024	1020784	42444	109792	0	0	8239	572083	0	0
2024-06-18 16:52:32			0	37449	0	0	0	26446	24990	137719	27005	1020810	42434	109797	0	0	8239	571971	0	0
2024-06-18 16:53:32			0	37428	0	0	0	26462	25000	137735	27107	1020845	42435	109803	0	0	8238	572778	0	0
2024-06-18 16:54:32			0	37446	0	0	0	26457	25010	137723	27072	1020898	42435	109801	0	0	8239	572026	0	0
2024-06-18 16:55:32			0	37419	0	0	0	26454	25010	137739	27177	1020818	42435	109800	0	0	8237	573105	0	0
2024-06-18 16:56:32			0	37446	0	0	0	26451	25030	137723	26831	1020870	42450	109799	0	0	8239	571961	0	0
2024-06-18 16:57:32			0	37439	0	0	0	26446	25040	137759	27072	1020941	42438	109797	0	0	8239	572208	0	0
2024-06-18 16:58:32			0	37444	0	0	0	26431	25030	137619	26878	1020825	42438	109791	0	0	8239	572041	0	0
2024-06-18 16:59:32			0	37464	0	0	0	26425	25040	137659	27138	1020834	42416	109789	0	0	8240	571210	0	0
2024-06-18 17:00:32			0	37466	0	0	0	26412	25030	137587	27244	1020817	42427	109784	0	0	8241	571162	0	0
2024-06-18 17:01:32			0	37465	0	0	0	26405	25020	137571	27284	1020701	42437	109781	0	0	8241	571235	0	0
2024-06-18 17:02:32			0	37485	0	0	0	26397	25010	137551	27046	1020711	42424	109778	0	0	8242	570469	0	0
2024-06-18 17:03:32			0	37485	0	0	0	26381	25010	137575	26871	1020630	42435	109772	0	0	8242	570469	0	0
2024-06-18 17:04:32			0	37467	0	0	0	26366	24990	137675	27052	1020542	42401	109766	0	0	8241	571252	0	0
2024-06-18 17:05:32			0	37514	0	0	0	26350	24990	137583	27118	1020542	42412	109760	0	0	8244	569378	0	0
2024-06-18 17:06:32			0	37503	0	0	0	26335	24980	137583	27017	1020463	42411	109754	0	0	8244	569849	0	0
2024-06-18 17:07:32			0	37488	0	0	0	26332	24980	137635	27013	1020463	42400	109753	0	0	8243	570447	0	0
2024-06-18 17:08:32			0	37467	0	0	0	26316	24970	137627	27064	1020445	42410	109747	0	0	8242	571317	0	0
2024-06-18 17:09:32			0	37484	0	0	0	26306	24960	137563	27092	1020321	42420	109743	0	0	8243	570671	0	0
2024-06-18 17:10:32			0	37486	0	0	0	26293	24940	137595	26842	1020269	42418	109738	0	0	8243	570656	0	0
2024-06-18 17:11:32			0	37478	0	0	0	26285	24940	137615	26946	1020233	42385	109735	0	0	8243	570975	0	0
2024-06-18 17:12:32			0	37471	0	0	0	26267	24920	137555	26960	1020234	42406	109728	0	0	8243	571319	0	0
2024-06-18 17:13:32			0	37480	0	0	0	26257	24930	137599	26932	1020162	42416	109724	0	0	8244	570928	0	0
2024-06-18 17:14:32			0	37469	0	0	0	26244	24920	137635	27036	1020127	42406	109719	0	0	8243	571399	0	0
2024-06-18 17:15:32			0	37495	0	0	0	26225	24890	137655	26913	1019977	42392	109712	0	0	8245	570459	0	0
2024-06-18 17:16:32			0	37476	0	0	0	26202	24880	137635	27417	1019871	42401	109703	0	0	8244	571249	0	0
2024-06-18 17:17:32			0	37470	0	0	0	26176	24860	137599	27279	1019845	42400	109693	0	0	8244	571553	0	0
2024-06-18 17:18:32			0	37502	0	0	0	26158	24860	137599	26889	1019756	42388	109686	0	0	8246	570276	0	0
2024-06-18 17:19:32			0	37495	0	0	0	26150	24840	137615	27211	1019721	42386	109683	0	0	8246	570620	0	0
2024-06-18 17:20:32			0	37487	0	0	0	26132	24820	137635	27178	1019642	42396	109676	0	0	8246	571004	0	0
2024-06-18 17:21:32			0	37490	0	0	0	26119	24810	137631	27055	1019545	42395	109671	0	0	8246	570917	0	0
2024-06-18 17:22:32			0	37497	0	0	0	26101	24790	137659	27144	1019456	42393	109664	0	0	8247	570702	0	0
2024-06-18 17:23:32			0	37520	0	0	0	26083	24790	137483	27027	1019448	42404	109657	0	0	8248	569785	0	0
2024-06-18 17:24:32			0	37517	0	0	0	26080	24770	137463	26849	1019449	42402	109656	0	0	8248	569969	0	0
2024-06-18 17:25:32			0	37511	0	0	0	26085	24770	137423	26838	1019360	42402	109658	0	0	8247	570208	0	0
2024-06-18 17:26:32			0	37554	0	0	0	26077	24760	137403	26902	1019396	42401	109655	0	0	8250	568527	0	0
2024-06-18 17:27:32			0	37574	0	0	0	26075	24750	137311	27209	1019361	42400	109654	0	0	8251	567763	0	0
2024-06-18 17:28:32			0	37582	0	0	0	26080	24750	137343	27173	1019325	42389	109656	0	0	8251	567445	0	0
2024-06-18 17:29:32			0	37613	0	0	0	26080	24750	137283	26826	1019352	42400	109656	0	0	8253	566213	0	0
2024-06-18 17:30:32			0	37611	0	0	0	26083	24740	137259	26771	1019362	42399	109657	0	0	8253	566325	0	0
2024-06-18 17:31:32			0	37612	0	0	0	26101	24740	137235	26774	1019388	42388	109664	0	0	8252	566285	0	0
2024-06-18 17:32:32			0	37611	0	0	0	26135	24750	137207	26679	1019620	42412	109677	0	0	8252	566293	0	0
2024-06-18 17:33:32			0	37599	0	0	0	26171	24760	137235	27069	1019753	42424	109691	0	0	8251	566737	0	0
2024-06-18 17:34:32			0	37628	0	0	0	26223	24790	137299	26861	1019876	42426	109711	0	0	8251	565490	0	0
2024-06-18 17:35:32			0	37588	0	0	0	26259	24800	137239	27008	1020035	42427	109725	0	0	8249	567046	0	0
2024-06-18 17:36:32			0	37598	0	0	0	26303	24830	137335	27052	1020159	42430	109742	0	0	8249	566552	0	0
2024-06-18 17:37:32			0	37572	0	0	0	26361	24850	137451	26842	1020327	42455	109764	0	0	8246	567521	0	0
2024-06-18 17:38:32			0	37578	0	0	0	26423	24880	137415	26785	1020575	42457	109788	0	0	8246	567186	0	0
2024-06-18 17:39:32			0	37557	0	0	0	26501	24930	137455	26856	1020885	42472	109818	0	0	8243	567860	0	0
2024-06-18 17:40:32			0	37528	0	0	0	26558	24960	137607	27260	1021026	42465	109840	0	0	8241	568917	0	0
2024-06-18 17:41:32			0	37508	0	0	0	26589	25000	137599	26819	1021202	42480	109852	0	0	8240	569585	0	0
2024-06-18 17:42:32			0	37501	0	0	0	26625	25040	137555	27064	1021325	42461	109866	0	0	8239	569735	0	0
2024-06-18 17:43:32			0	37485	0	0	0	26644	25050	137539	26790	1021342	42462	109873	0	0	8238	570340	0	0
2024-06-18 17:44:32			0	37466	0	0	0	26659	25080	137643	26890	1021385	42475	109879	0	0	8237	571001	0	0
2024-06-18 17:45:32			0	37471	0	0	0	26664	25100	137643	27109	1021562	42466	109881	0	0	8237	570736	0	0
2024-06-18 17:46:32			0	37479	0	0	0	26680	25120	137591	27076	1021615	42468	109887	0	0	8237	570353	0	0
2024-06-18 17:47:32			0	37453	0	0	0	26696	25140	137615	26970	1021738	42493	109893	0	0	8236	571325	0	0
2024-06-18 17:48:32			0	37453	0	0	0	26706	25160	137651	27055	1021818	42472	109897	0	0	8236	571260	0	0
2024-06-18 17:49:32			0	37450	0	0	0	26727	25180	137675	26656	1021879	42474	109905	0	0	8235	571315	0	0
2024-06-18 17:50:32			0	37450	0	0	0	26748	25200	137635	27060	1021941	42476	109913	0	0	8235	571250	0	0
2024-06-18 17:51:32			0	37452	0	0	0	26763	25210	137595	26928	1021949	42476	109919	0	0	8235	571138	0	0
2024-06-18 17:52:32			0	37436	0	0	0	26766	25230	137619	27001	1022019	42479	109920	0	0	8234	571711	0	0
2024-06-18 17:53:32			0	37431	0	0	0	26776	25240	137583	26795	1022036	42480	109924	0	0	8234	571879	0	0
2024-06-18 17:54:32			0	37445	0	0	0	26784	25250	137579	27008	1022188	42492	109927	0	0	8234	571287	0	0
2024-06-18 17:55:32			0	37418	0	0	0	26755	25260	137715	27126	1022124	42482	109916	0	0	8233	572333	0	0
2024-06-18 17:56:32			0	37415	0	0	0	26719	25260	137627	27041	1021875	42458	109902	0	0	8234	572452	0	0
2024-06-18 17:57:32			0	37416	0	0	0	26641	25240	137731	26970	1021527	42447	109872	0	0	8235	572477	0	0
2024-06-18 17:58:32			0	37410	0	0	0	26576	25210	137719	26814	1021503	42432	109847	0	0	8236	572815	0	0
2024-06-18 17:59:32			0	37415	0	0	0	26509	25200	137659	27164	1021378	42432	109821	0	0	8237	572647	0	0
2024-06-18 18:00:32			0	37424	0	0	0	26475	25170	137587	26908	1021442	42441	109808	0	0	8238	572385	0	0
2024-06-18 18:01:32			0	37436	0	0	0	26483	25170	137519	27137	1021469	42462	109811	0	0	8239	571906	0	0
2024-06-18 18:02:32			0	37468	0	0	0	26483	25180	137407	26790	1021513	42463	109811	0	0	8240	570597	0	0
2024-06-18 18:03:32			0	37488	0	0	0	26470	25170	137307	26753	1021335	42429	109806	0	0	8241	569832	0	0
2024-06-18 18:04:32			0	37511	0	0	0	26423	25140	137331	26890	1021087	42404	109788	0	0	8243	569013	0	0
2024-06-18 18:05:32			0	37541	0	0	0	26366	25120	137231	26838	1020820	42413	109766	0	0	8246	567884	0	0
2024-06-18 18:06:32			0	37555	0	0	0	26327	25080	137127	27105	1020644	42387	109751	0	0	8247	567457	0	0
2024-06-18 18:07:32			0	37590	0	0	0	26280	25050	137083	26916	1020539	42384	109733	0	0	8249	566164	0	0
2024-06-18 18:08:32			0	37610	0	0	0	26254	25010	137071	27128	1020389	42403	109723	0	0	8251	565499	0	0
2024-06-18 18:09:32			0	37628	0	0	0	26251	25000	136883	26937	1020390	42423	109722	0	0	8252	564817	0	0
2024-06-18 18:10:32			0	37650	0	0	0	26249	24980	136883	26963	1020391	42422	109721	0	0	8253	564010	0	0
2024-06-18 18:11:32			0	37669	0	0	0	26259	24980	136863	26793	1020436	42433	109725	0	0	8254	563258	0	0
2024-06-18 18:12:32			0	37703	0	0	0	26262	24970	136767	26991	1020445	42420	109726	0	0	8255	561946	0	0
2024-06-18 18:13:32			0	37704	0	0	0	26277	24970	136791	27459	1020427	42432	109732	0	0	8255	561907	0	0
2024-06-18 18:14:32			0	37693	0	0	0	26277	24960	136811	27019	1020437	42420	109732	0	0	8254	562373	0	0
2024-06-18 18:15:32			0	37694	0	0	0	26288	24960	136839	26955	1020383	42432	109736	0	0	8254	562334	0	0
2024-06-18 18:16:32			0	37681	0	0	0	26290	24950	136747	26866	1020331	42429	109737	0	0	8254	562879	0	0
2024-06-18 18:17:32			0	37686	0	0	0	26288	24950	136907	27126	1020420	42408	109736	0	0	8254	562682	0	0
2024-06-18 18:18:32			0	37669	0	0	0	26293	24950	136983	27093	1020384	42407	109738	0	0	8253	563354	0	0
2024-06-18 18:19:32			0	37654	0	0	0	26277	24940	137007	27251	1020349	42429	109732	0	0	8252	563980	0	0
2024-06-18 18:20:32			0	37638	0	0	0	26290	24940	136923	27267	1020340	42429	109737	0	0	8251	564613	0	0
2024-06-18 18:21:32			0	37657	0	0	0	26296	24930	136979	27066	1020412	42428	109739	0	0	8252	563893	0	0
2024-06-18 18:22:32			0	37646	0	0	0	26298	24940	137123	27043	1020367	42418	109740	0	0	8252	564296	0	0
2024-06-18 18:23:32			0	37629	0	0	0	26293	24930	136931	26819	1020296	42406	109738	0	0	8251	565002	0	0
2024-06-18 18:24:32			0	37637	0	0	0	26293	24930	137003	27060	1020305	42428	109738	0	0	8251	564685	0	0
2024-06-18 18:25:32			0	37618	0	0	0	26290	24930	136995	27107	1020269	42416	109737	0	0	8250	565438	0	0
2024-06-18 18:26:32			0	37610	0	0	0	26293	24930	137095	26779	1020332	42428	109738	0	0	8250	565755	0	0
2024-06-18 18:27:32			0	37626	0	0	0	26301	24910	137103	27076	1020404	42438	109741	0	0	8250	565185	0	0
2024-06-18 18:28:32			0	37614	0	0	0	26303	24930	136999	27039	1020349	42427	109742	0	0	8250	565597	0	0
2024-06-18 18:29:32			0	37624	0	0	0	26306	24930	137127	26781	1020403	42427	109743	0	0	8250	565200	0	0
2024-06-18 18:30:32			0	37608	0	0	0	26306	24920	137119	26961	1020394	42416	109743	0	0	8249	565867	0	0
2024-06-18 18:31:32			0	37621	0	0	0	26296	24930	137091	27171	1020349	42427	109739	0	0	8250	565319	0	0
2024-06-18 18:32:32			0	37636	0	0	0	26306	24910	137051	27192	1020297	42426	109743	0	0	8251	564788	0	0
2024-06-18 18:33:32			0	37614	0	0	0	26293	24930	137111	27124	1020323	42416	109738	0	0	8250	565597	0	0
2024-06-18 18:34:32			0	37604	0	0	0	26285	24920	137151	26826	1020234	42416	109735	0	0	8250	566025	0	0
2024-06-18 18:35:32			0	37603	0	0	0	26259	24910	137147	26722	1020190	42416	109725	0	0	8250	566097	0	0
2024-06-18 18:36:32			0	37617	0	0	0	26251	24900	137167	27031	1020146	42415	109722	0	0	8251	565574	0	0
2024-06-18 18:37:32			0	37632	0	0	0	26231	24890	137099	26876	1020022	42403	109714	0	0	8252	565011	0	0
2024-06-18 18:38:32			0	37629	0	0	0	26212	24860	137063	26899	1020005	42400	109707	0	0	8252	565226	0	0
2024-06-18 18:39:32			0	37665	0	0	0	26207	24860	137019	27187	1019890	42388	109705	0	0	8254	563800	0	0
2024-06-18 18:40:32			0	37664	0	0	0	26189	24850	136955	26949	1019846	42410	109698	0	0	8254	563871	0	0
2024-06-18 18:41:32			0	37665	0	0	0	26192	24840	136971	26850	1019917	42398	109699	0	0	8254	563864	0	0
2024-06-18 18:42:32			0	37683	0	0	0	26168	24830	136987	26892	1019758	42409	109690	0	0	8255	563183	0	0
2024-06-18 18:43:32			0	37686	0	0	0	26153	24810	136923	26941	1019696	42406	109684	0	0	8256	563128	0	0
2024-06-18 18:44:32			0	37689	0	0	0	26129	24800	136931	26994	1019634	42406	109675	0	0	8256	563042	0	0
2024-06-18 18:45:32			0	37693	0	0	0	26132	24790	136931	27079	1019581	42404	109676	0	0	8256	562915	0	0
2024-06-18 18:46:32			0	37708	0	0	0	26122	24770	136963	27142	1019601	42402	109672	0	0	8257	562386	0	0
2024-06-18 18:47:32			0	37722	0	0	0	26116	24780	136931	26731	1019546	42393	109670	0	0	8258	561801	0	0
2024-06-18 18:48:32			0	37727	0	0	0	26098	24750	136951	26835	1019414	42412	109663	0	0	8258	561699	0	0
2024-06-18 18:49:32			0	37705	0	0	0	26088	24750	136787	26955	1019406	42400	109659	0	0	8257	562568	0	0
2024-06-18 18:50:32			0	37720	0	0	0	26093	24750	136803	27024	1019387	42412	109661	0	0	8258	561975	0	0
2024-06-18 18:51:32			0	37740	0	0	0	26070	24720	136843	26875	1019282	42398	109652	0	0	8259	561281	0	0
2024-06-18 18:52:32			0	37730	0	0	0	26064	24730	136847	27102	1019264	42410	109650	0	0	8259	561644	0	0
2024-06-18 18:53:32			0	37779	0	0	0	26046	24700	136891	26741	1019194	42396	109643	0	0	8262	559805	0	0
2024-06-18 18:54:32			0	37761	0	0	0	26041	24700	136787	27015	1019186	42396	109641	0	0	8261	560515	0	0
2024-06-18 18:55:32			0	37764	0	0	0	26031	24690	136751	26979	1019124	42384	109637	0	0	8261	560429	0	0
2024-06-18 18:56:32			0	37777	0	0	0	26007	24680	136739	26733	1018937	42382	109628	0	0	8262	559948	0	0
2024-06-18 18:57:32			0	37764	0	0	0	25989	24670	136707	26948	1018893	42381	109621	0	0	8262	560492	0	0
2024-06-18 18:58:32			0	37771	0	0	0	25971	24660	136743	27046	1018876	42391	109614	0	0	8262	560248	0	0
2024-06-18 18:59:32			0	37754	0	0	0	25966	24650	136731	26741	1018805	42390	109612	0	0	8262	560950	0	0
2024-06-18 19:00:32			0	37756	0	0	0	25955	24630	136887	26826	1018744	42388	109608	0	0	8262	560935	0	0
2024-06-18 19:01:32			0	37721	0	0	0	25940	24620	136951	26934	1018682	42377	109602	0	0	8260	562349	0	0
2024-06-18 19:02:32			0	37697	0	0	0	25919	24590	137003	27218	1018603	42385	109594	0	0	8259	563394	0	0
2024-06-18 19:03:32			0	37709	0	0	0	25906	24590	137111	27085	1018550	42374	109589	0	0	8260	562920	0	0
2024-06-18 19:04:32			0	37664	0	0	0	25903	24570	137199	26946	1018497	42373	109588	0	0	8258	564766	0	0
2024-06-18 19:05:32			0	37656	0	0	0	25893	24560	137287	26726	1018507	42382	109584	0	0	8257	565115	0	0
2024-06-18 19:06:32			0	37629	0	0	0	25896	24570	137363	27098	1018489	42383	109585	0	0	8256	566155	0	0
2024-06-18 19:07:32			0	37615	0	0	0	25916	24570	137531	27126	1018676	42416	109593	0	0	8255	566711	0	0
2024-06-18 19:08:32			0	37575	0	0	0	25927	24570	137403	26942	1018685	42395	109597	0	0	8253	568302	0	0
2024-06-18 19:09:32			0	37595	0	0	0	25927	24570	137631	27041	1018569	42383	109597	0	0	8254	567506	0	0
2024-06-18 19:10:32			0	37569	0	0	0	25916	24560	137587	27201	1018472	42382	109593	0	0	8252	568573	0	0
2024-06-18 19:11:32			0	37546	0	0	0	25903	24550	137667	27138	1018463	42382	109588	0	0	8251	569522	0	0
2024-06-18 19:12:32			0	37547	0	0	0	25888	24530	137751	26878	1018339	42369	109582	0	0	8252	569546	0	0
2024-06-18 19:13:32			0	37531	0	0	0	25896	24530	137755	27045	1018402	42391	109585	0	0	8251	570185	0	0
2024-06-18 19:14:32			0	37513	0	0	0	25909	24540	137839	26795	1018544	42403	109590	0	0	8250	570871	0	0
2024-06-18 19:15:32			0	37502	0	0	0	25922	24530	137823	27085	1018535	42403	109595	0	0	8249	571342	0	0
2024-06-18 19:16:32			0	37489	0	0	0	25924	24540	137807	27241	1018544	42391	109596	0	0	8248	571830	0	0
2024-06-18 19:17:32			0	37488	0	0	0	25937	24550	137875	27105	1018561	42392	109601	0	0	8248	571837	0	0
2024-06-18 19:18:32			0	37476	0	0	0	25942	24550	137947	27137	1018596	42382	109603	0	0	8247	572317	0	0
2024-06-18 19:19:32			0	37479	0	0	0	25935	24550	137971	27189	1018561	42381	109600	0	0	8247	572197	0	0
2024-06-18 19:20:32			0	37479	0	0	0	25922	24540	137991	26753	1018464	42370	109595	0	0	8248	572230	0	0
2024-06-18 19:21:32			0	37465	0	0	0	25893	24530	137951	26939	1018348	42380	109584	0	0	8247	572822	0	0
2024-06-18 19:22:32			0	37447	0	0	0	25877	24510	137995	27046	1018260	42367	109578	0	0	8247	573608	0	0
2024-06-18 19:23:32			0	37448	0	0	0	25854	24500	138103	27071	1018154	42365	109569	0	0	8247	573600	0	0
2024-06-18 19:24:32			0	37428	0	0	0	25823	24480	138071	27152	1018075	42342	109557	0	0	8246	574466	0	0
2024-06-18 19:25:32			0	37436	0	0	0	25799	24470	138099	27159	1018004	42385	109548	0	0	8247	574178	0	0
2024-06-18 19:26:32			0	37448	0	0	0	25807	24470	138155	26861	1018049	42375	109551	0	0	8248	573697	0	0
2024-06-18 19:27:32			0	37438	0	0	0	25818	24460	138235	26909	1018094	42374	109555	0	0	8247	574131	0	0
2024-06-18 19:28:32			0	37429	0	0	0	25802	24460	138179	27223	1017907	42374	109549	0	0	8247	574491	0	0
2024-06-18 19:29:32			0	37410	0	0	0	25784	24440	138255	27145	1017819	42372	109542	0	0	8246	575319	0	0
2024-06-18 19:30:32			0	37391	0	0	0	25766	24430	138251	27154	1017855	42359	109535	0	0	8245	576114	0	0
2024-06-18 19:31:32			0	37391	0	0	0	25750	24420	138339	26981	1017838	42348	109529	0	0	8245	576147	0	0
2024-06-18 19:32:32			0	37379	0	0	0	25735	24410	138299	26849	1017714	42357	109523	0	0	8245	576662	0	0
2024-06-18 19:33:32			0	37380	0	0	0	25714	24400	138351	26826	1017608	42356	109515	0	0	8245	576654	0	0
2024-06-18 19:34:32			0	37371	0	0	0	25688	24380	138463	26928	1017582	42344	109505	0	0	8245	577081	0	0
2024-06-18 19:35:32			0	37352	0	0	0	25667	24360	138443	27267	1017432	42352	109497	0	0	8245	577911	0	0
2024-06-18 19:36:32			0	37355	0	0	0	25646	24340	138591	27102	1017326	42329	109489	0	0	8245	577856	0	0
2024-06-18 19:37:32			0	37345	0	0	0	25618	24320	138583	27293	1017185	42337	109478	0	0	8245	578324	0	0
2024-06-18 19:38:32			0	37312	0	0	0	25589	24290	138594	26909	1017025	42346	109467	0	0	8243	579753	0	0
2024-06-18 19:39:32			0	37301	0	0	0	25576	24260	138730	27159	1016974	42332	109462	0	0	8243	580295	0	0
2024-06-18 19:40:32			0	37295	0	0	0	25558	24250	138782	27050	1016965	42342	109455	0	0	8243	580570	0	0
2024-06-18 19:41:32			0	37267	0	0	0	25553	24230	138874	27111	1016896	42351	109453	0	0	8241	581768	0	0
2024-06-18 19:42:32			0	37263	0	0	0	25540	24210	138962	27216	1016790	42338	109448	0	0	8241	581995	0	0
2024-06-18 19:43:32			0	37238	0	0	0	25527	24210	139066	27000	1016808	42327	109443	0	0	8240	583007	0	0
2024-06-18 19:44:32			0	37220	0	0	0	25527	24200	139098	27086	1016853	42349	109443	0	0	8239	583770	0	0
2024-06-18 19:45:32			0	37209	0	0	0	25555	24210	139238	26960	1017030	42372	109454	0	0	8238	584183	0	0
2024-06-18 19:46:32			0	37177	0	0	0	25615	24230	139258	27043	1017216	42395	109477	0	0	8236	585416	0	0
2024-06-18 19:47:32			0	37178	0	0	0	25680	24250	139266	27112	1017393	42375	109502	0	0	8235	585309	0	0
2024-06-18 19:48:32			0	37149	0	0	0	25735	24280	139442	27071	1017525	42401	109523	0	0	8232	586389	0	0
2024-06-18 19:49:32			0	37110	0	0	0	25755	24310	139382	27164	1017675	42381	109531	0	0	8230	587876	0	0
2024-06-18 19:50:32			0	37104	0	0	0	25768	24320	139458	27267	1017684	42382	109536	0	0	8230	588088	0	0
2024-06-18 19:51:32			0	37113	0	0	0	25774	24330	139590	27365	1017763	42383	109538	0	0	8230	587688	0	0
2024-06-18 19:52:32			0	37081	0	0	0	25789	24340	139458	27045	1017754	42383	109544	0	0	8228	588958	0	0
2024-06-18 19:53:32			0	37061	0	0	0	25802	24350	139626	27222	1017896	42373	109549	0	0	8227	589741	0	0
2024-06-18 19:54:32			0	37077	0	0	0	25797	24350	139586	26901	1017816	42373	109547	0	0	8228	589088	0	0
2024-06-18 19:55:32			0	37079	0	0	0	25805	24360	139506	27275	1017815	42364	109550	0	0	8228	588973	0	0
2024-06-18 19:56:32			0	37048	0	0	0	25799	24380	139606	27140	1017876	42377	109548	0	0	8227	590172	0	0
2024-06-18 19:57:32			0	37053	0	0	0	25805	24390	139618	27222	1017885	42388	109550	0	0	8227	589934	0	0
2024-06-18 19:58:32			0	37065	0	0	0	25802	24400	139638	27166	1018009	42367	109549	0	0	8227	589411	0	0
2024-06-18 19:59:32			0	37032	0	0	0	25794	24390	139806	27322	1017831	42377	109546	0	0	8226	590792	0	0
2024-06-18 20:00:32			0	37027	0	0	0	25774	24380	139690	27178	1017769	42355	109538	0	0	8226	591030	0	0
2024-06-18 20:01:32			0	37033	0	0	0	25761	24380	139742	27265	1017653	42365	109533	0	0	8226	590784	0	0
2024-06-18 20:02:32			0	37008	0	0	0	25740	24360	139742	27000	1017547	42352	109525	0	0	8225	591873	0	0
2024-06-18 20:03:32			0	36993	0	0	0	25716	24350	139886	27336	1017477	42374	109516	0	0	8225	592521	0	0
2024-06-18 20:04:32			0	37006	0	0	0	25698	24330	139934	26724	1017389	42350	109509	0	0	8226	592055	0	0
2024-06-18 20:05:32			0	37016	0	0	0	25683	24320	139882	26981	1017452	42349	109503	0	0	8227	591680	0	0
2024-06-18 20:06:32			0	37008	0	0	0	25662	24310	139938	26779	1017301	42359	109495	0	0	8226	592041	0	0
2024-06-18 20:07:32			0	36970	0	0	0	25657	24300	139954	27177	1017346	42358	109493	0	0	8225	593630	0	0
2024-06-18 20:08:32			0	36977	0	0	0	25654	24300	139926	26857	1017265	42347	109492	0	0	8225	593343	0	0
2024-06-18 20:09:32			0	36953	0	0	0	25654	24280	140110	27057	1017204	42345	109492	0	0	8224	594395	0	0
2024-06-18 20:10:32			0	36946	0	0	0	25636	24280	140050	27135	1017124	42345	109485	0	0	8224	594682	0	0
2024-06-18 20:11:32			0	36944	0	0	0	25628	24250	140022	26972	1017072	42342	109482	0	0	8223	594865	0	0
2024-06-18 20:12:32			0	36939	0	0	0	25610	24240	140050	26779	1017020	42330	109475	0	0	8223	595104	0	0
2024-06-18 20:13:32			0	36924	0	0	0	25594	24240	140222	26838	1016993	42340	109469	0	0	8223	595720	0	0
2024-06-18 20:14:32			0	36920	0	0	0	25579	24220	140178	27072	1016914	42351	109463	0	0	8223	595952	0	0
2024-06-18 20:15:32			0	36924	0	0	0	25581	24220	140230	26663	1016825	42350	109464	0	0	8223	595787	0	0
2024-06-18 20:16:32			0	36894	0	0	0	25571	24210	140258	26844	1016861	42338	109460	0	0	8222	597055	0	0
2024-06-18 20:17:32			0	36902	0	0	0	25555	24200	140274	27090	1016853	42338	109454	0	0	8222	596759	0	0
2024-06-18 20:18:32			0	36896	0	0	0	25550	24190	140378	27190	1016773	42358	109452	0	0	8222	597040	0	0
2024-06-18 20:19:32			0	36886	0	0	0	25550	24180	140422	27138	1016631	42358	109452	0	0	8221	597485	0	0
2024-06-18 20:20:32			0	36869	0	0	0	25532	24170	140418	27206	1016694	42357	109445	0	0	8221	598220	0	0
2024-06-18 20:21:32			0	36872	0	0	0	25537	24170	140474	27251	1016739	42345	109447	0	0	8221	598096	0	0
2024-06-18 20:22:32			0	36867	0	0	0	25519	24160	140406	27209	1016623	42367	109440	0	0	8221	598336	0	0
2024-06-18 20:23:32			0	36841	0	0	0	25527	24160	140526	27251	1016722	42367	109443	0	0	8219	599408	0	0
2024-06-18 20:24:32			0	36823	0	0	0	25527	24160	140562	27218	1016837	42356	109443	0	0	8218	600152	0	0
2024-06-18 20:25:32			0	36841	0	0	0	25537	24170	140506	26873	1016792	42345	109447	0	0	8219	599375	0	0
2024-06-18 20:26:32			0	36842	0	0	0	25529	24170	140614	27060	1016792	42368	109444	0	0	8219	599333	0	0
2024-06-18 20:27:32			0	36831	0	0	0	25550	24170	140598	27183	1016747	42345	109452	0	0	8219	599787	0	0
2024-06-18 20:28:32			0	36825	0	0	0	25550	24170	140666	27069	1016827	42357	109452	0	0	8218	600035	0	0
2024-06-18 20:29:32			0	36805	0	0	0	25553	24160	140650	26939	1016784	42356	109453	0	0	8217	600896	0	0
2024-06-18 20:30:32			0	36797	0	0	0	25561	24170	140662	26982	1016846	42345	109456	0	0	8217	601192	0	0
2024-06-18 20:31:32			0	36807	0	0	0	25563	24160	140702	27256	1016810	42356	109457	0	0	8217	600813	0	0
2024-06-18 20:32:32			0	36780	0	0	0	25568	24170	140750	26923	1016846	42345	109459	0	0	8216	601896	0	0
2024-06-18 20:33:32			0	36791	0	0	0	25573	24180	140866	26876	1016916	42335	109461	0	0	8216	601407	0	0
2024-06-18 20:34:32			0	36777	0	0	0	25592	24180	140778	27100	1016996	42346	109468	0	0	8215	601986	0	0
2024-06-18 20:35:32			0	36776	0	0	0	25605	24190	140750	27000	1017067	42358	109473	0	0	8215	601993	0	0
2024-06-18 20:36:32			0	36779	0	0	0	25638	24210	140766	27178	1017129	42360	109486	0	0	8214	601801	0	0
2024-06-18 20:37:32			0	36759	0	0	0	25657	24210	140878	26927	1017129	42360	109493	0	0	8213	602629	0	0
2024-06-18 20:38:32			0	36774	0	0	0	25667	24220	140794	26736	1017181	42373	109497	0	0	8214	601974	0	0
2024-06-18 20:39:32			0	36772	0	0	0	25677	24230	140806	26972	1017145	42363	109501	0	0	8214	602023	0	0
2024-06-18 20:40:32			0	36752	0	0	0	25664	24230	140850	26998	1017225	42363	109496	0	0	8213	602851	0	0
2024-06-18 20:41:32			0	36753	0	0	0	25664	24230	140874	27135	1017109	42362	109496	0	0	8213	602810	0	0
2024-06-18 20:42:32			0	36753	0	0	0	25664	24230	140850	27086	1017056	42351	109496	0	0	8213	602810	0	0
2024-06-18 20:43:32			0	36763	0	0	0	25633	24230	140802	27083	1017056	42362	109484	0	0	8214	602396	0	0
2024-06-18 20:44:32			0	36747	0	0	0	25633	24230	140882	26942	1017038	42363	109484	0	0	8213	603058	0	0
2024-06-18 20:45:32			0	36755	0	0	0	25618	24220	140946	27123	1017047	42351	109478	0	0	8214	602761	0	0
2024-06-18 20:46:32			0	36761	0	0	0	25607	24220	140830	27081	1016985	42350	109474	0	0	8214	602512	0	0
2024-06-18 20:47:32			0	36768	0	0	0	25599	24210	140834	27220	1016915	42338	109471	0	0	8215	602257	0	0
2024-06-18 20:48:32			0	36752	0	0	0	25592	24200	140806	26578	1016871	42337	109468	0	0	8214	602953	0	0
2024-06-18 20:49:32			0	36767	0	0	0	25581	24200	140830	26930	1016898	42359	109464	0	0	8215	602332	0	0
2024-06-18 20:50:32			0	36766	0	0	0	25571	24190	140890	27237	1016862	42358	109460	0	0	8215	602408	0	0
2024-06-18 20:51:32			0	36775	0	0	0	25566	24190	140818	26904	1016862	42358	109458	0	0	8215	602035	0	0
2024-06-18 20:52:32			0	36765	0	0	0	25573	24190	140882	27300	1016889	42347	109461	0	0	8215	602449	0	0
2024-06-18 20:53:32			0	36745	0	0	0	25579	24200	140906	27291	1016898	42348	109463	0	0	8214	603244	0	0
2024-06-18 20:54:32			0	36735	0	0	0	25579	24180	140866	26854	1016818	42347	109463	0	0	8213	603726	0	0
2024-06-18 20:55:32			0	36754	0	0	0	25586	24190	140946	26741	1016880	42358	109466	0	0	8214	602905	0	0
2024-06-18 20:56:32			0	36764	0	0	0	25589	24190	140862	27149	1016907	42358	109467	0	0	8214	602490	0	0
2024-06-18 20:57:32			0	36762	0	0	0	25589	24180	140954	27045	1016898	42358	109467	0	0	8214	602607	0	0
2024-06-18 20:58:32			0	36757	0	0	0	25597	24190	140970	27187	1016942	42358	109470	0	0	8214	602780	0	0
2024-06-18 20:59:32			0	36743	0	0	0	25597	24190	140886	26892	1016889	42370	109470	0	0	8213	603361	0	0
2024-06-18 21:00:32			0	36763	0	0	0	25599	24200	140906	27124	1016951	42348	109471	0	0	8214	602498	0	0
2024-06-18 21:01:32			0	36757	0	0	0	25607	24200	140926	27086	1016951	42371	109474	0	0	8214	602746	0	0
2024-06-18 21:02:32			0	36754	0	0	0	25610	24200	140926	26915	1016986	42338	109475	0	0	8214	602871	0	0
2024-06-18 21:03:32			0	36742	0	0	0	25618	24190	140910	26993	1016996	42370	109478	0	0	8213	603402	0	0
2024-06-18 21:04:32			0	36755	0	0	0	25618	24200	140838	26868	1017013	42372	109478	0	0	8214	602829	0	0
2024-06-18 21:05:32			0	36755	0	0	0	25620	24200	140926	27008	1017013	42360	109479	0	0	8213	602829	0	0
2024-06-18 21:06:32			0	36744	0	0	0	25625	24200	140818	26804	1017040	42360	109481	0	0	8213	603285	0	0
2024-06-18 21:07:32			0	36737	0	0	0	25636	24210	140954	26623	1017048	42372	109485	0	0	8212	603541	0	0
2024-06-18 21:08:32			0	36760	0	0	0	25638	24210	140918	27012	1017030	42360	109486	0	0	8213	602588	0	0
2024-06-18 21:09:32			0	36751	0	0	0	25641	24210	140938	27072	1017057	42372	109487	0	0	8213	602961	0	0
2024-06-18 21:10:32			0	36752	0	0	0	25651	24210	140942	27135	1017102	42349	109491	0	0	8213	602919	0	0
2024-06-18 21:11:32			0	36753	0	0	0	25657	24220	140906	27071	1017172	42383	109493	0	0	8213	602844	0	0
2024-06-18 21:12:32			0	36758	0	0	0	25662	24220	140906	26899	1017181	42351	109495	0	0	8213	602637	0	0
2024-06-18 21:13:32			0	36756	0	0	0	25654	24220	140910	26769	1017066	42372	109492	0	0	8213	602720	0	0
2024-06-18 21:14:32			0	36738	0	0	0	25649	24220	140938	27121	1017074	42373	109490	0	0	8212	603466	0	0
2024-06-18 21:15:32			0	36757	0	0	0	25654	24230	140794	26899	1017091	42374	109492	0	0	8213	602644	0	0
2024-06-18 21:16:32			0	36767	0	0	0	25646	24230	140846	27104	1017136	42373	109489	0	0	8214	602230	0	0
2024-06-18 21:17:32			0	36748	0	0	0	25638	24230	140914	27098	1017091	42363	109486	0	0	8213	603017	0	0
2024-06-18 21:18:32			0	36762	0	0	0	25610	24220	140850	27275	1016940	42362	109475	0	0	8214	602471	0	0
2024-06-18 21:19:32			0	36772	0	0	0	25579	24200	140778	26930	1016906	42349	109463	0	0	8215	602125	0	0
2024-06-18 21:20:32			0	36745	0	0	0	25566	24210	140798	27289	1016915	42349	109458	0	0	8214	603210	0	0
2024-06-18 21:21:32			0	36758	0	0	0	25553	24210	140746	26960	1016915	42360	109453	0	0	8215	602671	0	0
2024-06-18 21:22:32			0	36777	0	0	0	25548	24200	140758	26793	1016951	42348	109451	0	0	8216	601918	0	0
2024-06-18 21:23:32			0	36776	0	0	0	25571	24190	140738	27029	1016961	42358	109460	0	0	8215	601993	0	0
2024-06-18 21:24:32			0	36785	0	0	0	25589	24200	140734	27204	1017093	42360	109467	0	0	8216	601587	0	0
2024-06-18 21:25:32			0	36786	0	0	0	25612	24200	140662	27150	1017120	42372	109476	0	0	8215	601546	0	0
2024-06-18 21:26:32			0	36791	0	0	0	25641	24220	140702	27296	1017208	42362	109487	0	0	8215	601271	0	0
2024-06-18 21:27:32			0	36761	0	0	0	25649	24230	140754	27168	1017171	42352	109490	0	0	8213	602478	0	0
2024-06-18 21:28:32			0	36771	0	0	0	25657	24230	140782	26840	1017136	42362	109493	0	0	8214	602064	0	0
2024-06-18 21:29:32			0	36769	0	0	0	25670	24240	140702	26935	1017296	42353	109498	0	0	8214	602113	0	0
2024-06-18 21:30:32			0	36779	0	0	0	25683	24250	140714	27022	1017340	42365	109503	0	0	8214	601665	0	0
2024-06-18 21:31:32			0	36791	0	0	0	25693	24250	140774	27060	1017331	42375	109507	0	0	8214	601169	0	0
2024-06-18 21:32:32			0	36793	0	0	0	25703	24260	140654	27100	1017348	42365	109511	0	0	8214	601052	0	0
2024-06-18 21:33:32			0	36777	0	0	0	25706	24260	140650	27038	1017330	42376	109512	0	0	8213	601714	0	0
2024-06-18 21:34:32			0	36791	0	0	0	25714	24280	140738	26783	1017489	42367	109515	0	0	8214	601067	0	0
2024-06-18 21:35:32			0	36789	0	0	0	25709	24270	140702	27098	1017419	42377	109513	0	0	8214	601184	0	0
2024-06-18 21:36:32			0	36790	0	0	0	25711	24270	140634	26878	1017347	42377	109514	0	0	8214	601143	0	0
2024-06-18 21:37:32			0	36788	0	0	0	25724	24290	140602	26772	1017435	42390	109519	0	0	8214	601157	0	0
2024-06-18 21:38:32			0	36813	0	0	0	25716	24290	140638	27331	1017480	42369	109516	0	0	8215	600124	0	0
2024-06-18 21:39:32			0	36781	0	0	0	25719	24300	140670	27081	1017551	42357	109517	0	0	8214	601413	0	0
2024-06-18 21:40:32			0	36812	0	0	0	25722	24300	140534	26981	1017506	42380	109518	0	0	8215	600132	0	0
2024-06-18 21:41:32			0	36804	0	0	0	25719	24290	140594	27171	1017480	42379	109517	0	0	8215	600496	0	0
2024-06-18 21:42:32			0	36809	0	0	0	25727	24320	140590	27326	1017550	42393	109520	0	0	8215	600188	0	0
2024-06-18 21:43:32			0	36813	0	0	0	25732	24310	140546	27192	1017568	42381	109522	0	0	8215	600057	0	0
2024-06-18 21:44:32			0	36810	0	0	0	25724	24320	140586	27261	1017559	42382	109519	0	0	8215	600146	0	0
2024-06-18 21:45:32			0	36817	0	0	0	25732	24320	140514	26996	1017586	42382	109522	0	0	8215	599857	0	0
2024-06-18 21:46:32			0	36839	0	0	0	25724	24310	140506	27173	1017488	42381	109519	0	0	8217	598984	0	0
2024-06-18 21:47:32			0	36827	0	0	0	25729	24320	140514	27390	1017524	42371	109521	0	0	8216	599445	0	0
2024-06-18 21:48:32			0	36832	0	0	0	25719	24300	140526	27332	1017417	42357	109517	0	0	8216	599306	0	0
2024-06-18 21:49:32			0	36818	0	0	0	25724	24320	140494	27171	1017470	42371	109519	0	0	8216	599816	0	0
2024-06-18 21:50:32			0	36813	0	0	0	25719	24310	140482	27326	1017515	42392	109517	0	0	8215	600057	0	0
2024-06-18 21:51:32			0	36854	0	0	0	25714	24320	140422	27092	1017479	42393	109515	0	0	8218	598331	0	0
2024-06-18 21:52:32			0	36856	0	0	0	25722	24320	140426	27352	1017550	42382	109518	0	0	8218	598249	0	0
2024-06-18 21:53:32			0	36876	0	0	0	25716	24320	140290	27286	1017524	42371	109516	0	0	8219	597425	0	0
2024-06-18 21:54:32			0	36867	0	0	0	25719	24320	140294	27064	1017470	42382	109517	0	0	8218	597796	0	0
2024-06-18 21:55:32			0	36880	0	0	0	25719	24320	140390	26752	1017524	42393	109517	0	0	8219	597260	0	0
2024-06-18 21:56:32			0	36873	0	0	0	25732	24330	140422	27277	1017603	42394	109522	0	0	8218	597515	0	0
2024-06-18 21:57:32			0	36887	0	0	0	25740	24330	140198	27286	1017621	42393	109525	0	0	8219	596939	0	0
2024-06-18 21:58:32			0	36897	0	0	0	25753	24330	140246	27371	1017656	42372	109530	0	0	8219	596527	0	0
2024-06-18 21:59:32			0	36910	0	0	0	25768	24340	140202	26880	1017745	42383	109536	0	0	8220	595959	0	0
2024-06-18 22:00:32			0	36919	0	0	0	25776	24340	140094	27114	1017754	42395	109539	0	0	8220	595589	0	0
2024-06-18 22:01:32			0	36945	0	0	0	25784	24340	140126	26977	1017807	42395	109542	0	0	8221	594522	0	0
2024-06-18 22:02:32			0	36949	0	0	0	25786	24360	139998	27263	1017842	42385	109543	0	0	8222	594290	0	0
2024-06-18 22:03:32			0	36977	0	0	0	25789	24360	140050	27130	1017815	42385	109544	0	0	8223	593142	0	0
2024-06-18 22:04:32			0	36978	0	0	0	25792	24360	139914	27343	1017842	42385	109545	0	0	8223	593102	0	0
2024-06-18 22:05:32			0	37007	0	0	0	25797	24370	139838	27104	1017850	42397	109547	0	0	8224	591881	0	0
2024-06-18 22:06:32			0	37037	0	0	0	25799	24370	139702	27116	1017885	42398	109548	0	0	8226	590654	0	0
2024-06-18 22:07:32			0	37055	0	0	0	25797	24380	139634	27282	1017814	42398	109547	0	0	8227	589886	0	0
2024-06-18 22:08:32			0	37066	0	0	0	25802	24370	139518	27277	1017859	42375	109549	0	0	8227	589470	0	0
2024-06-18 22:09:32			0	37077	0	0	0	25807	24390	139450	27284	1017893	42388	109551	0	0	8228	588955	0	0
2024-06-18 22:10:32			0	37102	0	0	0	25805	24390	139414	27201	1017866	42399	109550	0	0	8229	587936	0	0
2024-06-18 22:11:32			0	37118	0	0	0	25805	24390	139422	27220	1017813	42399	109550	0	0	8230	587285	0	0
2024-06-18 22:12:32			0	37127	0	0	0	25797	24390	139394	27249	1017858	42388	109547	0	0	8231	586919	0	0
2024-06-18 22:13:32			0	37152	0	0	0	25805	24390	139274	27121	1017866	42388	109550	0	0	8232	585902	0	0
2024-06-18 22:14:32			0	37157	0	0	0	25799	24400	139306	27093	1017848	42378	109548	0	0	8232	585666	0	0
2024-06-18 22:15:32			0	37169	0	0	0	25794	24390	139206	27074	1017885	42388	109546	0	0	8233	585212	0	0
2024-06-18 22:16:32			0	37152	0	0	0	25792	24390	139114	27209	1017911	42388	109545	0	0	8232	585902	0	0
2024-06-18 22:17:32			0	37182	0	0	0	25792	24390	139082	27138	1017831	42366	109545	0	0	8234	584684	0	0
2024-06-18 22:18:32			0	37193	0	0	0	25789	24380	138994	27305	1017876	42399	109544	0	0	8234	584271	0	0
2024-06-18 22:19:32			0	37215	0	0	0	25784	24380	138954	27244	1017787	42398	109542	0	0	8236	583379	0	0
2024-06-18 22:20:32			0	37234	0	0	0	25797	24380	138934	27013	1017796	42388	109547	0	0	8236	582610	0	0
2024-06-18 22:21:32			0	37229	0	0	0	25792	24380	138950	27341	1017841	42387	109545	0	0	8236	582812	0	0
2024-06-18 22:22:32			0	37224	0	0	0	25781	24360	138970	27341	1017815	42385	109541	0	0	8236	583081	0	0
2024-06-18 22:23:32			0	37257	0	0	0	25781	24380	138966	27270	1017787	42387	109541	0	0	8238	581679	0	0
2024-06-18 22:24:32			0	37255	0	0	0	25786	24380	138926	27107	1017814	42387	109543	0	0	8238	581760	0	0
2024-06-18 22:25:32			0	37263	0	0	0	25774	24380	138778	27170	1017760	42376	109538	0	0	8238	581437	0	0
2024-06-18 22:26:32			0	37275	0	0	0	25771	24360	138794	27298	1017761	42385	109537	0	0	8239	581017	0	0
2024-06-18 22:27:32			0	37281	0	0	0	25766	24370	138794	27105	1017778	42386	109535	0	0	8239	580742	0	0
2024-06-18 22:28:32			0	37278	0	0	0	25766	24370	138830	27079	1017716	42385	109535	0	0	8239	580863	0	0
2024-06-18 22:29:32			0	37275	0	0	0	25763	24370	138778	27242	1017743	42385	109534	0	0	8239	580984	0	0
2024-06-18 22:30:32			0	37277	0	0	0	25761	24370	138794	27175	1017725	42398	109533	0	0	8239	580904	0	0
2024-06-18 22:31:32			0	37277	0	0	0	25768	24360	138734	26994	1017708	42385	109536	0	0	8239	580936	0	0
2024-06-18 22:32:32			0	37296	0	0	0	25753	24360	138726	27274	1017735	42385	109530	0	0	8240	580169	0	0
2024-06-18 22:33:32			0	37292	0	0	0	25761	24360	138714	27178	1017699	42375	109533	0	0	8240	580331	0	0
2024-06-18 22:34:32			0	37296	0	0	0	25750	24350	138670	27112	1017691	42384	109529	0	0	8240	580202	0	0
2024-06-18 22:35:32			0	37320	0	0	0	25748	24360	138703	27338	1017726	42385	109528	0	0	8241	579201	0	0
2024-06-18 22:36:32			0	37320	0	0	0	25753	24350	138799	27152	1017736	42383	109530	0	0	8241	579234	0	0
2024-06-18 22:37:32			0	37313	0	0	0	25758	24360	138738	27204	1017726	42385	109532	0	0	8241	579483	0	0
2024-06-18 22:38:32			0	37313	0	0	0	25758	24360	138778	27275	1017726	42397	109532	0	0	8241	579483	0	0
2024-06-18 22:39:32			0	37323	0	0	0	25758	24350	138635	27289	1017709	42383	109532	0	0	8241	579112	0	0
2024-06-18 22:40:32			0	37323	0	0	0	25758	24360	138743	27235	1017699	42397	109532	0	0	8241	579080	0	0
2024-06-18 22:41:32			0	37308	0	0	0	25758	24350	138698	27208	1017744	42374	109532	0	0	8241	579718	0	0
2024-06-18 22:42:32			0	37317	0	0	0	25750	24360	138727	27192	1017672	42385	109529	0	0	8241	579322	0	0
2024-06-18 22:43:32			0	37319	0	0	0	25753	24350	138699	27296	1017655	42406	109530	0	0	8241	579274	0	0
2024-06-18 22:44:32			0	37326	0	0	0	25750	24350	138719	27512	1017682	42395	109529	0	0	8242	578992	0	0
2024-06-18 22:45:32			0	37325	0	0	0	25753	24350	138679	27435	1017629	42383	109530	0	0	8242	579032	0	0
2024-06-18 22:46:32			0	37332	0	0	0	25753	24340	138711	27154	1017665	42373	109530	0	0	8242	578782	0	0
2024-06-18 22:47:32			0	37327	0	0	0	25753	24350	138687	27338	1017637	42384	109530	0	0	8242	578951	0	0
2024-06-18 22:48:32			0	37337	0	0	0	25748	24350	138679	27098	1017709	42395	109528	0	0	8242	578548	0	0
2024-06-18 22:49:32			0	37340	0	0	0	25740	24340	138619	27232	1017647	42395	109525	0	0	8243	578460	0	0
2024-06-18 22:50:32			0	37346	0	0	0	25748	24340	138551	27374	1017647	42395	109528	0	0	8243	578218	0	0
2024-06-18 22:51:32			0	37333	0	0	0	25737	24350	138631	27152	1017655	42395	109524	0	0	8242	578709	0	0
2024-06-18 22:52:32			0	37343	0	0	0	25740	24330	138695	27246	1017576	42372	109525	0	0	8243	578372	0	0
2024-06-18 22:53:32			0	37341	0	0	0	25735	24330	138567	27293	1017630	42394	109523	0	0	8243	578452	0	0
2024-06-18 22:54:32			0	37326	0	0	0	25727	24330	138555	27163	1017594	42382	109520	0	0	8242	579057	0	0
2024-06-18 22:55:32			0	37338	0	0	0	25727	24320	138551	27452	1017586	42393	109520	0	0	8243	578606	0	0
2024-06-18 22:56:32			0	37341	0	0	0	25729	24320	138579	27220	1017532	42393	109521	0	0	8243	578485	0	0
2024-06-18 22:57:32			0	37367	0	0	0	25722	24320	138443	27230	1017612	42393	109518	0	0	8244	577438	0	0
2024-06-18 22:58:32			0	37340	0	0	0	25727	24330	138583	27081	1017594	42382	109520	0	0	8243	578493	0	0
2024-06-18 22:59:32			0	37366	0	0	0	25724	24320	138611	26849	1017559	42382	109519	0	0	8244	577478	0	0
2024-06-18 23:00:32			0	37361	0	0	0	25727	24330	138679	27159	1017594	42382	109520	0	0	8244	577647	0	0
2024-06-18 23:01:32			0	37347	0	0	0	25722	24320	138611	26918	1017524	42393	109518	0	0	8243	578243	0	0
2024-06-18 23:02:32			0	37365	0	0	0	25711	24330	138663	27234	1017487	42382	109514	0	0	8244	577486	0	0
2024-06-18 23:03:32			0	37362	0	0	0	25719	24320	138579	27491	1017505	42393	109517	0	0	8244	577639	0	0
2024-06-18 23:04:32			0	37352	0	0	0	25724	24310	138595	27124	1017515	42381	109519	0	0	8243	578074	0	0
2024-06-18 23:05:32			0	37361	0	0	0	25719	24320	138587	27199	1017470	42382	109517	0	0	8244	577679	0	0
2024-06-18 23:06:32			0	37363	0	0	0	25716	24320	138683	27104	1017577	42393	109516	0	0	8244	577599	0	0
2024-06-18 23:07:32			0	37372	0	0	0	25709	24300	138643	27137	1017506	42391	109513	0	0	8245	577302	0	0
2024-06-18 23:08:32			0	37379	0	0	0	25706	24310	138599	27001	1017461	42392	109512	0	0	8245	576988	0	0
2024-06-18 23:09:32			0	37375	0	0	0	25706	24320	138547	27131	1017417	42371	109512	0	0	8245	577116	0	0
2024-06-18 23:10:32			0	37381	0	0	0	25701	24320	138523	27364	1017470	42393	109510	0	0	8245	576875	0	0
2024-06-18 23:11:32			0	37383	0	0	0	25701	24300	138515	26982	1017399	42391	109510	0	0	8245	576859	0	0
2024-06-18 23:12:32			0	37382	0	0	0	25706	24310	138515	27102	1017408	42392	109512	0	0	8245	576867	0	0
2024-06-18 23:13:32			0	37394	0	0	0	25703	24300	138467	27270	1017399	42391	109511	0	0	8246	576417	0	0
2024-06-18 23:14:32			0	37376	0	0	0	25693	24300	138515	27022	1017453	42380	109507	0	0	8245	577141	0	0
2024-06-18 23:15:32			0	37369	0	0	0	25698	24300	138551	27000	1017497	42390	109509	0	0	8245	577423	0	0
2024-06-18 23:16:32			0	37386	0	0	0	25696	24300	138535	27265	1017426	42380	109508	0	0	8246	576739	0	0
2024-06-18 23:17:32			0	37378	0	0	0	25696	24300	138543	27183	1017417	42379	109508	0	0	8245	577061	0	0
2024-06-18 23:18:32			0	37366	0	0	0	25693	24290	138487	26989	1017382	42379	109507	0	0	8245	577576	0	0
2024-06-18 23:19:32			0	37375	0	0	0	25698	24300	138555	27039	1017417	42390	109509	0	0	8245	577181	0	0
2024-06-18 23:20:32			0	37384	0	0	0	25693	24290	138567	27348	1017435	42390	109507	0	0	8245	576852	0	0
2024-06-18 23:21:32			0	37386	0	0	0	25696	24300	138531	27105	1017417	42379	109508	0	0	8246	576739	0	0
2024-06-18 23:22:32			0	37387	0	0	0	25698	24300	138519	27170	1017426	42380	109509	0	0	8246	576698	0	0
2024-06-18 23:23:32			0	37372	0	0	0	25701	24300	138559	27329	1017417	42379	109510	0	0	8245	577302	0	0
2024-06-18 23:24:32			0	37390	0	0	0	25693	24290	138511	26656	1017426	42390	109507	0	0	8246	576610	0	0
2024-06-18 23:25:32			0	37367	0	0	0	25690	24290	138467	26899	1017462	42379	109506	0	0	8245	577536	0	0
2024-06-18 23:26:32			0	37377	0	0	0	25688	24290	138543	27081	1017408	42369	109505	0	0	8245	577133	0	0
2024-06-18 23:27:32			0	37371	0	0	0	25683	24290	138551	27279	1017408	42379	109503	0	0	8245	577375	0	0
2024-06-18 23:28:32			0	37377	0	0	0	25675	24280	138507	27365	1017364	42378	109500	0	0	8245	577166	0	0
2024-06-18 23:29:32			0	37395	0	0	0	25680	24290	138595	27256	1017400	42379	109502	0	0	8246	576409	0	0
2024-06-18 23:30:32			0	37412	0	0	0	25680	24280	138563	27066	1017338	42378	109502	0	0	8247	575759	0	0
2024-06-18 23:31:32			0	37382	0	0	0	25683	24290	138415	27031	1017373	42379	109503	0	0	8246	576932	0	0
2024-06-18 23:32:32			0	37400	0	0	0	25677	24290	138463	27149	1017301	42379	109501	0	0	8247	576208	0	0
2024-06-18 23:33:32			0	37394	0	0	0	25670	24280	138427	27071	1017364	42378	109498	0	0	8246	576482	0	0
2024-06-18 23:34:32			0	37382	0	0	0	25675	24280	138495	27284	1017329	42388	109500	0	0	8246	576965	0	0
2024-06-18 23:35:32			0	37412	0	0	0	25662	24280	138419	27201	1017311	42378	109495	0	0	8247	575759	0	0
2024-06-18 23:36:32			0	37394	0	0	0	25654	24290	138399	27055	1017346	42390	109492	0	0	8247	576449	0	0
2024-06-18 23:37:32			0	37396	0	0	0	25664	24270	138471	26922	1017339	42367	109496	0	0	8246	576434	0	0
2024-06-18 23:38:32			0	37407	0	0	0	25664	24280	138411	27083	1017311	42378	109496	0	0	8247	575959	0	0
2024-06-18 23:39:32			0	37398	0	0	0	25664	24260	138359	27216	1017321	42387	109496	0	0	8247	576386	0	0
2024-06-18 23:40:32			0	37402	0	0	0	25654	24260	138415	26908	1017295	42398	109492	0	0	8247	576225	0	0
2024-06-18 23:41:32			0	37401	0	0	0	25664	24260	138451	27001	1017295	42375	109496	0	0	8247	576266	0	0
2024-06-18 23:42:32			0	37397	0	0	0	25657	24260	138427	27270	1017241	42375	109493	0	0	8247	576426	0	0
2024-06-18 23:43:32			0	37380	0	0	0	25662	24260	138439	26986	1017223	42376	109495	0	0	8246	577110	0	0
2024-06-18 23:44:32			0	37423	0	0	0	25654	24250	138431	27211	1017259	42387	109492	0	0	8248	575414	0	0
2024-06-18 23:45:32			0	37392	0	0	0	25657	24260	138539	27118	1017241	42375	109493	0	0	8246	576628	0	0
2024-06-18 23:46:32			0	37409	0	0	0	25657	24250	138351	26793	1017224	42387	109493	0	0	8247	575977	0	0
2024-06-18 23:47:32			0	37401	0	0	0	25649	24240	138363	27059	1017189	42375	109490	0	0	8247	576331	0	0
2024-06-18 23:48:32			0	37413	0	0	0	25641	24240	138371	26984	1017180	42385	109487	0	0	8248	575849	0	0
2024-06-18 23:49:32			0	37397	0	0	0	25644	24240	138395	27306	1017234	42363	109488	0	0	8247	576492	0	0
2024-06-18 23:50:32			0	37401	0	0	0	25641	24230	138407	27315	1017171	42374	109487	0	0	8247	576363	0	0
2024-06-18 23:51:32			0	37407	0	0	0	25641	24240	138395	27440	1017127	42385	109487	0	0	8247	576090	0	0
2024-06-18 23:52:32			0	37410	0	0	0	25641	24240	138391	27001	1017180	42374	109487	0	0	8247	575969	0	0
2024-06-18 23:53:32			0	37412	0	0	0	25631	24230	138371	27239	1017145	42374	109483	0	0	8248	575921	0	0
2024-06-18 23:54:32			0	37418	0	0	0	25636	24240	138403	27296	1017207	42374	109485	0	0	8248	575648	0	0
2024-06-18 23:55:32			0	37417	0	0	0	25633	24230	138307	26857	1017171	42374	109484	0	0	8248	575720	0	0
2024-06-18 23:56:32			0	37411	0	0	0	25638	24220	138411	27341	1017154	42373	109486	0	0	8247	575994	0	0
2024-06-18 23:57:32			0	37417	0	0	0	25628	24220	138255	27177	1017119	42383	109482	0	0	8248	575753	0	0
2024-06-18 23:58:32			0	37441	0	0	0	25631	24220	138307	26993	1017172	42383	109483	0	0	8249	574789	0	0
2024-06-18 23:59:32			0	37428	0	0	0	25625	24230	138419	27074	1017163	42373	109481	0	0	8249	575278	0	0
2024-06-19 00:00:32			0	37440	0	0	0	25628	24220	138295	27376	1017128	42384	109482	0	0	8249	574829	0	0
2024-06-19 00:01:32			0	37436	0	0	0	25628	24220	138279	27081	1017154	42384	109482	0	0	8249	574990	0	0
2024-06-19 00:02:32			0	37429	0	0	0	25638	24220	138287	27012	1017128	42384	109486	0	0	8248	575271	0	0
2024-06-19 00:03:32			0	37429	0	0	0	25633	24220	138315	27282	1017092	42383	109484	0	0	8249	575271	0	0
2024-06-19 00:04:32			0	37450	0	0	0	25631	24220	138287	27076	1017128	42362	109483	0	0	8250	574428	0	0
2024-06-19 00:05:32			0	37423	0	0	0	25633	24230	138319	27166	1017083	42384	109484	0	0	8248	575479	0	0
2024-06-19 00:06:32			0	37441	0	0	0	25631	24210	138295	27064	1017084	42393	109483	0	0	8249	574821	0	0
2024-06-19 00:07:32			0	37440	0	0	0	25633	24220	138351	27078	1017101	42395	109484	0	0	8249	574829	0	0
2024-06-19 00:08:32			0	37428	0	0	0	25625	24230	138391	26896	1017163	42373	109481	0	0	8249	575278	0	0
2024-06-19 00:09:32			0	37423	0	0	0	25631	24220	138407	27138	1017092	42383	109483	0	0	8248	575512	0	0
2024-06-19 00:10:32			0	37441	0	0	0	25625	24220	138447	27246	1017101	42384	109481	0	0	8249	574789	0	0
2024-06-19 00:11:32			0	37456	0	0	0	25620	24210	138399	27327	1017057	42382	109479	0	0	8250	574220	0	0
2024-06-19 00:12:32			0	37428	0	0	0	25605	24200	138335	27130	1016986	42372	109473	0	0	8249	575376	0	0
2024-06-19 00:13:32			0	37424	0	0	0	25592	24200	138319	27093	1016933	42360	109468	0	0	8249	575536	0	0
2024-06-19 00:14:32			0	37451	0	0	0	25566	24190	138375	27086	1016827	42358	109458	0	0	8251	574485	0	0
2024-06-19 00:15:32			0	37455	0	0	0	25553	24180	138263	26894	1016863	42379	109453	0	0	8251	574357	0	0
2024-06-19 00:16:32			0	37447	0	0	0	25548	24180	138307	27048	1016809	42369	109451	0	0	8251	574678	0	0
2024-06-19 00:17:32			0	37456	0	0	0	25532	24170	138463	27164	1016801	42345	109445	0	0	8251	574349	0	0
2024-06-19 00:18:32			0	37441	0	0	0	25527	24160	138343	27126	1016784	42367	109443	0	0	8251	574984	0	0
2024-06-19 00:19:32			0	37442	0	0	0	25511	24160	138303	27305	1016730	42344	109437	0	0	8251	574943	0	0
2024-06-19 00:20:32			0	37464	0	0	0	25498	24150	138367	27105	1016651	42355	109432	0	0	8252	574093	0	0
2024-06-19 00:21:32			0	37462	0	0	0	25477	24130	138331	27237	1016598	42353	109424	0	0	8252	574238	0	0
2024-06-19 00:22:32			0	37462	0	0	0	25467	24130	138375	27152	1016652	42342	109420	0	0	8253	574238	0	0
2024-06-19 00:23:32			0	37464	0	0	0	25451	24130	138299	27059	1016625	42364	109414	0	0	8253	574158	0	0
2024-06-19 00:24:32			0	37479	0	0	0	25472	24130	138303	27069	1016697	42363	109422	0	0	8253	573556	0	0
2024-06-19 00:25:32			0	37468	0	0	0	25496	24130	138235	26795	1016697	42363	109431	0	0	8252	573997	0	0
2024-06-19 00:26:32			0	37499	0	0	0	25519	24140	138215	27013	1016794	42365	109440	0	0	8254	572723	0	0
2024-06-19 00:27:32			0	37478	0	0	0	25529	24140	138243	27265	1016749	42365	109444	0	0	8252	573564	0	0
2024-06-19 00:28:32			0	37476	0	0	0	25545	24140	138303	27055	1016856	42376	109450	0	0	8252	573644	0	0
2024-06-19 00:29:32			0	37470	0	0	0	25553	24150	138271	27246	1016820	42366	109453	0	0	8252	573852	0	0
2024-06-19 00:30:32			0	37450	0	0	0	25553	24140	138367	27317	1016776	42365	109453	0	0	8251	574687	0	0
2024-06-19 00:31:32			0	37423	0	0	0	25566	24140	138451	27183	1016803	42376	109458	0	0	8249	575772	0	0
2024-06-19 00:32:32			0	37393	0	0	0	25563	24150	138551	27020	1016793	42376	109457	0	0	8248	576945	0	0
2024-06-19 00:33:32			0	37354	0	0	0	25563	24150	138671	27027	1016820	42376	109457	0	0	8246	578516	0	0
2024-06-19 00:34:32			0	37342	0	0	0	25566	24160	138727	27130	1016802	42377	109458	0	0	8245	578967	0	0
2024-06-19 00:35:32			0	37328	0	0	0	25573	24150	138695	27291	1016820	42366	109461	0	0	8244	579565	0	0
2024-06-19 00:36:32			0	37323	0	0	0	25571	24160	138855	27218	1016855	42367	109460	0	0	8244	579734	0	0
2024-06-19 00:37:32			0	37317	0	0	0	25571	24160	138867	26925	1016882	42377	109460	0	0	8243	579976	0	0
2024-06-19 00:38:32			0	37314	0	0	0	25568	24150	138927	27216	1016873	42366	109459	0	0	8243	580130	0	0
2024-06-19 00:39:32			0	37301	0	0	0	25571	24160	138834	26819	1016864	42367	109460	0	0	8243	580623	0	0
2024-06-19 00:40:32			0	37305	0	0	0	25579	24160	138874	27057	1016891	42377	109463	0	0	8243	580461	0	0
2024-06-19 00:41:32			0	37301	0	0	0	25579	24150	138830	27003	1016820	42366	109463	0	0	8242	580655	0	0
2024-06-19 00:42:32			0	37322	0	0	0	25581	24170	138743	27085	1016899	42368	109464	0	0	8244	579742	0	0
2024-06-19 00:43:32			0	37339	0	0	0	25581	24160	138779	27071	1016909	42377	109464	0	0	8244	579088	0	0
2024-06-19 00:44:32			0	37324	0	0	0	25579	24170	138731	27213	1016926	42368	109463	0	0	8244	579661	0	0
2024-06-19 00:45:32			0	37325	0	0	0	25597	24170	138779	26831	1016926	42378	109470	0	0	8244	579621	0	0
2024-06-19 00:46:32			0	37324	0	0	0	25592	24170	138799	26979	1016926	42378	109468	0	0	8244	579661	0	0
2024-06-19 00:47:32			0	37336	0	0	0	25594	24180	138779	27083	1016925	42380	109469	0	0	8244	579144	0	0
2024-06-19 00:48:32			0	37342	0	0	0	25605	24180	138575	26849	1016952	42370	109473	0	0	8244	578902	0	0
2024-06-19 00:49:32			0	37340	0	0	0	25607	24190	138763	27135	1017041	42380	109474	0	0	8244	578950	0	0
2024-06-19 00:50:32			0	37361	0	0	0	25620	24190	138759	27036	1016987	42380	109479	0	0	8245	578104	0	0
2024-06-19 00:51:32			0	37334	0	0	0	25618	24190	138755	26828	1017023	42380	109478	0	0	8244	579192	0	0
2024-06-19 00:52:32			0	37350	0	0	0	25615	24190	138691	26986	1017014	42380	109477	0	0	8245	578547	0	0
2024-06-19 00:53:32			0	37348	0	0	0	25618	24190	138567	27180	1017023	42370	109478	0	0	8244	578628	0	0
2024-06-19 00:54:32			0	37349	0	0	0	25618	24200	138683	27119	1017085	42371	109478	0	0	8245	578555	0	0
2024-06-19 00:55:32			0	37362	0	0	0	25625	24200	138559	26946	1017004	42371	109481	0	0	8245	578031	0	0
2024-06-19 00:56:32			0	37347	0	0	0	25618	24190	138579	26928	1017049	42391	109478	0	0	8244	578668	0	0
2024-06-19 00:57:32			0	37357	0	0	0	25615	24200	138603	27287	1017066	42382	109477	0	0	8245	578232	0	0
2024-06-19 00:58:32			0	37371	0	0	0	25618	24190	138607	27222	1017049	42370	109478	0	0	8246	577701	0	0
2024-06-19 00:59:32			0	37377	0	0	0	25620	24200	138559	27235	1017093	42382	109479	0	0	8246	577427	0	0
2024-06-19 01:00:32			0	37370	0	0	0	25610	24210	138583	27235	1017022	42372	109475	0	0	8246	577676	0	0
2024-06-19 01:01:32			0	37379	0	0	0	25605	24200	138523	27216	1017066	42372	109473	0	0	8246	577346	0	0
2024-06-19 01:02:32			0	37400	0	0	0	25610	24200	138507	27045	1017085	42371	109475	0	0	8247	576501	0	0
2024-06-19 01:03:32			0	37398	0	0	0	25610	24200	138443	26776	1017058	42371	109475	0	0	8247	576582	0	0
2024-06-19 01:04:32			0	37389	0	0	0	25597	24190	138523	26845	1016996	42370	109470	0	0	8247	576976	0	0
2024-06-19 01:05:32			0	37404	0	0	0	25602	24190	138399	26729	1016987	42380	109472	0	0	8248	576373	0	0
2024-06-19 01:06:32			0	37415	0	0	0	25592	24180	138467	27138	1016970	42390	109468	0	0	8248	575963	0	0
2024-06-19 01:07:32			0	37423	0	0	0	25586	24190	138335	27201	1016987	42391	109466	0	0	8249	575609	0	0
2024-06-19 01:08:32			0	37425	0	0	0	25579	24180	138427	27235	1016925	42380	109463	0	0	8249	575561	0	0
2024-06-19 01:09:32			0	37427	0	0	0	25573	24170	138395	27180	1016854	42368	109461	0	0	8249	575514	0	0
2024-06-19 01:10:32			0	37427	0	0	0	25555	24170	138539	27055	1016827	42378	109454	0	0	8250	575514	0	0
2024-06-19 01:11:32			0	37437	0	0	0	25545	24160	138427	27168	1016784	42356	109450	0	0	8250	575144	0	0
2024-06-19 01:12:32			0	37450	0	0	0	25548	24160	138399	27064	1016775	42377	109451	0	0	8251	574622	0	0
2024-06-19 01:13:32			0	37448	0	0	0	25545	24150	138375	27152	1016758	42355	109450	0	0	8251	574735	0	0
2024-06-19 01:14:32			0	37439	0	0	0	25540	24150	138267	27331	1016740	42366	109448	0	0	8250	575096	0	0
2024-06-19 01:15:32			0	37447	0	0	0	25532	24150	138339	27072	1016731	42366	109445	0	0	8251	574775	0	0
2024-06-19 01:16:32			0	37430	0	0	0	25529	24150	138431	26870	1016686	42355	109444	0	0	8250	575458	0	0
2024-06-19 01:17:32			0	37450	0	0	0	25532	24140	138423	26785	1016696	42365	109445	0	0	8251	574687	0	0
2024-06-19 01:18:32			0	37449	0	0	0	25522	24130	138423	26727	1016723	42385	109441	0	0	8251	574760	0	0
2024-06-19 01:19:32			0	37454	0	0	0	25514	24130	138319	26935	1016705	42375	109438	0	0	8251	574559	0	0
2024-06-19 01:20:32			0	37455	0	0	0	25511	24130	138303	27079	1016705	42375	109437	0	0	8252	574519	0	0
2024-06-19 01:21:32			0	37449	0	0	0	25493	24110	138279	26864	1016582	42350	109430	0	0	8251	574825	0	0
2024-06-19 01:22:32			0	37453	0	0	0	25493	24110	138387	26769	1016537	42351	109430	0	0	8252	574664	0	0
2024-06-19 01:23:32			0	37449	0	0	0	25480	24100	138347	27147	1016485	42361	109425	0	0	8252	574857	0	0
2024-06-19 01:24:32			0	37457	0	0	0	25464	24100	138303	27066	1016431	42349	109419	0	0	8252	574536	0	0
2024-06-19 01:25:32			0	37463	0	0	0	25457	24080	138327	26857	1016370	42359	109416	0	0	8253	574360	0	0
2024-06-19 01:26:32			0	37464	0	0	0	25451	24080	138255	26989	1016424	42359	109414	0	0	8253	574320	0	0
2024-06-19 01:27:32			0	37473	0	0	0	25446	24060	138311	26932	1016345	42369	109412	0	0	8253	574023	0	0
2024-06-19 01:28:32			0	37460	0	0	0	25446	24070	138243	26932	1016353	42358	109412	0	0	8253	574513	0	0
2024-06-19 01:29:32			0	37475	0	0	0	25436	24070	138263	27000	1016326	42369	109408	0	0	8254	573911	0	0
2024-06-19 01:30:32			0	37467	0	0	0	25436	24060	138243	27161	1016318	42358	109408	0	0	8253	574264	0	0
2024-06-19 01:31:32			0	37464	0	0	0	25433	24050	138343	27166	1016319	42356	109407	0	0	8253	574417	0	0
2024-06-19 01:32:32			0	37461	0	0	0	25436	24060	138311	26837	1016336	42357	109408	0	0	8253	574505	0	0
2024-06-19 01:33:32			0	37483	0	0	0	25444	24050	138263	26948	1016319	42367	109411	0	0	8254	573655	0	0
2024-06-19 01:34:32			0	37489	0	0	0	25449	24050	138295	27138	1016381	42356	109413	0	0	8254	573414	0	0
2024-06-19 01:35:32			0	37473	0	0	0	25451	24050	138335	26694	1016372	42378	109414	0	0	8253	574056	0	0
2024-06-19 01:36:32			0	37463	0	0	0	25459	24060	138371	27053	1016389	42357	109417	0	0	8253	574425	0	0
2024-06-19 01:37:32			0	37464	0	0	0	25459	24050	138387	27031	1016381	42367	109417	0	0	8253	574417	0	0
2024-06-19 01:38:32			0	37464	0	0	0	25457	24050	138331	27001	1016381	42367	109416	0	0	8253	574417	0	0
2024-06-19 01:39:32			0	37465	0	0	0	25464	24050	138375	27324	1016407	42367	109419	0	0	8253	574377	0	0
2024-06-19 01:40:32			0	37476	0	0	0	25472	24070	138367	27055	1016407	42369	109422	0	0	8253	573871	0	0
2024-06-19 01:41:32			0	37443	0	0	0	25462	24060	138335	27346	1016451	42369	109418	0	0	8251	575228	0	0
2024-06-19 01:42:32			0	37455	0	0	0	25477	24060	138363	27261	1016478	42369	109424	0	0	8252	574746	0	0
2024-06-19 01:43:32			0	37440	0	0	0	25477	24060	138355	27166	1016478	42379	109424	0	0	8251	575348	0	0
2024-06-19 01:44:32			0	37442	0	0	0	25480	24080	138347	27218	1016451	42359	109425	0	0	8251	575203	0	0
2024-06-19 01:45:32			0	37453	0	0	0	25475	24070	138407	27163	1016460	42369	109423	0	0	8252	574794	0	0
2024-06-19 01:46:32			0	37459	0	0	0	25477	24070	138427	27202	1016469	42359	109424	0	0	8252	574553	0	0
2024-06-19 01:47:32			0	37440	0	0	0	25477	24060	138351	27092	1016451	42358	109424	0	0	8251	575348	0	0
2024-06-19 01:48:32			0	37433	0	0	0	25480	24070	138379	27060	1016460	42369	109425	0	0	8251	575597	0	0
2024-06-19 01:49:32			0	37468	0	0	0	25483	24060	138423	27036	1016505	42369	109426	0	0	8252	574224	0	0
2024-06-19 01:50:32			0	37434	0	0	0	25477	24070	138419	26804	1016469	42370	109424	0	0	8251	575557	0	0
2024-06-19 01:51:32			0	37451	0	0	0	25483	24070	138419	27041	1016495	42380	109426	0	0	8252	574874	0	0
2024-06-19 01:52:32			0	37444	0	0	0	25470	24070	138443	27135	1016460	42369	109421	0	0	8251	575155	0	0
2024-06-19 01:53:32			0	37419	0	0	0	25490	24070	138439	27026	1016495	42359	109429	0	0	8250	576160	0	0
2024-06-19 01:54:32			0	37443	0	0	0	25488	24070	138483	27190	1016460	42369	109428	0	0	8251	575195	0	0
2024-06-19 01:55:32			0	37447	0	0	0	25480	24070	138351	26894	1016469	42370	109425	0	0	8251	575035	0	0
2024-06-19 01:56:32			0	37439	0	0	0	25490	24070	138483	27029	1016460	42369	109429	0	0	8251	575356	0	0
2024-06-19 01:57:32			0	37427	0	0	0	25483	24060	138459	27263	1016425	42369	109426	0	0	8250	575871	0	0
2024-06-19 01:58:32			0	37429	0	0	0	25467	24070	138431	27268	1016442	42370	109420	0	0	8251	575758	0	0
2024-06-19 01:59:32			0	37429	0	0	0	25464	24050	138435	26951	1016381	42356	109419	0	0	8251	575823	0	0
2024-06-19 02:00:32			0	37416	0	0	0	25454	24060	138531	27537	1016362	42357	109415	0	0	8250	576313	0	0
2024-06-19 02:01:32			0	37421	0	0	0	25457	24050	138463	27216	1016354	42356	109416	0	0	8250	576144	0	0
2024-06-19 02:02:32			0	37412	0	0	0	25457	24050	138463	27168	1016327	42378	109416	0	0	8250	576506	0	0
2024-06-19 02:03:32			0	37405	0	0	0	25454	24050	138511	27118	1016327	42356	109415	0	0	8250	576788	0	0
2024-06-19 02:04:32			0	37395	0	0	0	25446	24040	138559	27071	1016256	42356	109412	0	0	8249	577223	0	0
2024-06-19 02:05:32			0	37419	0	0	0	25433	24030	138623	26733	1016248	42355	109407	0	0	8251	576290	0	0
2024-06-19 02:06:32			0	37389	0	0	0	25444	24030	138639	26906	1016248	42355	109411	0	0	8249	577497	0	0
2024-06-19 02:07:32			0	37366	0	0	0	25433	24030	138631	26706	1016248	42366	109407	0	0	8248	578424	0	0
2024-06-19 02:08:32			0	37370	0	0	0	25433	24030	138727	27140	1016239	42354	109407	0	0	8248	578263	0	0
2024-06-19 02:09:32			0	37353	0	0	0	25433	24020	138743	27000	1016204	42354	109407	0	0	8247	578981	0	0
2024-06-19 02:10:32			0	37339	0	0	0	25423	24030	138743	27194	1016293	42354	109403	0	0	8247	579513	0	0
2024-06-19 02:11:32			0	37354	0	0	0	25431	24010	138875	26889	1016240	42353	109406	0	0	8247	578973	0	0
2024-06-19 02:12:32			0	37307	0	0	0	25423	24020	138850	27090	1016231	42365	109403	0	0	8245	580839	0	0
2024-06-19 02:13:32			0	37324	0	0	0	25415	24010	138915	26960	1016214	42353	109400	0	0	8246	580184	0	0
2024-06-19 02:14:32			0	37294	0	0	0	25412	24010	138954	26880	1016160	42364	109399	0	0	8244	581397	0	0
2024-06-19 02:15:32			0	37281	0	0	0	25402	24010	138978	26965	1016178	42352	109395	0	0	8244	581923	0	0
2024-06-19 02:16:32			0	37276	0	0	0	25397	24010	139042	26894	1016214	42353	109393	0	0	8244	582126	0	0
2024-06-19 02:17:32			0	37260	0	0	0	25399	24000	139094	27261	1016170	42352	109394	0	0	8243	582807	0	0
2024-06-19 02:18:32			0	37247	0	0	0	25405	24000	139130	27010	1016161	42351	109396	0	0	8242	583333	0	0
2024-06-19 02:19:32			0	37231	0	0	0	25392	24000	139242	26781	1016116	42352	109391	0	0	8241	583983	0	0
2024-06-19 02:20:32			0	37210	0	0	0	25402	24000	139302	27490	1016108	42363	109395	0	0	8240	584835	0	0
2024-06-19 02:21:32			0	37201	0	0	0	25402	24000	139246	27111	1016134	42363	109395	0	0	8240	585201	0	0
2024-06-19 02:22:32			0	37211	0	0	0	25402	23990	139314	27050	1016037	42350	109395	0	0	8240	584827	0	0
2024-06-19 02:23:32			0	37174	0	0	0	25394	23990	139430	27081	1016072	42351	109392	0	0	8238	586331	0	0
2024-06-19 02:24:32			0	37184	0	0	0	25397	23990	139422	26996	1016037	42362	109393	0	0	8239	585925	0	0
2024-06-19 02:25:32			0	37156	0	0	0	25394	23990	139422	27248	1016126	42351	109392	0	0	8237	587064	0	0
2024-06-19 02:26:32			0	37135	0	0	0	25397	23990	139530	27206	1016090	42362	109393	0	0	8236	587919	0	0
2024-06-19 02:27:32			0	37146	0	0	0	25392	23980	139506	26991	1016047	42350	109391	0	0	8237	587504	0	0
2024-06-19 02:28:32			0	37126	0	0	0	25394	23980	139686	26961	1016082	42361	109392	0	0	8236	588319	0	0
2024-06-19 02:29:32			0	37118	0	0	0	25394	23990	139534	27109	1016117	42362	109392	0	0	8235	588612	0	0
2024-06-19 02:30:32			0	37107	0	0	0	25392	23990	139638	27064	1016064	42350	109391	0	0	8235	589061	0	0
2024-06-19 02:31:32			0	37112	0	0	0	25389	23980	139674	27287	1016082	42350	109390	0	0	8235	588890	0	0
2024-06-19 02:32:32			0	37083	0	0	0	25402	23980	139750	27076	1016135	42361	109395	0	0	8233	590074	0	0
2024-06-19 02:33:32			0	37091	0	0	0	25389	23990	139686	26982	1016037	42362	109390	0	0	8234	589714	0	0
2024-06-19 02:34:32			0	37062	0	0	0	25402	23980	139814	27239	1016055	42350	109395	0	0	8232	590933	0	0
2024-06-19 02:35:32			0	37056	0	0	0	25384	23980	139898	26885	1016055	42372	109388	0	0	8232	591178	0	0
2024-06-19 02:36:32			0	37053	0	0	0	25399	23980	139806	27197	1016082	42372	109394	0	0	8232	591301	0	0
2024-06-19 02:37:32			0	37057	0	0	0	25399	23990	139862	27048	1016153	42374	109394	0	0	8232	591104	0	0
2024-06-19 02:38:32			0	37060	0	0	0	25407	23990	139914	27111	1016117	42362	109397	0	0	8232	590981	0	0
2024-06-19 02:39:32			0	37028	0	0	0	25407	24000	139934	26951	1016188	42363	109397	0	0	8231	592258	0	0
2024-06-19 02:40:32			0	37048	0	0	0	25410	23990	140002	26913	1016117	42350	109398	0	0	8231	591472	0	0
2024-06-19 02:41:32			0	37008	0	0	0	25420	23990	140042	27246	1016171	42350	109402	0	0	8229	593111	0	0
2024-06-19 02:42:32			0	37011	0	0	0	25412	23990	140062	27270	1016153	42351	109399	0	0	8230	592988	0	0
2024-06-19 02:43:32			0	37021	0	0	0	25415	23990	140046	27024	1016126	42374	109400	0	0	8230	592578	0	0
2024-06-19 02:44:32			0	36975	0	0	0	25425	24000	140114	27069	1016134	42363	109404	0	0	8227	594431	0	0
2024-06-19 02:45:32			0	36988	0	0	0	25418	23990	140114	26916	1016153	42374	109401	0	0	8228	593931	0	0
2024-06-19 02:46:32			0	37004	0	0	0	25420	23990	140138	27093	1016179	42351	109402	0	0	8229	593275	0	0
2024-06-19 02:47:32			0	36990	0	0	0	25410	23990	140194	26958	1016126	42363	109398	0	0	8228	593849	0	0
2024-06-19 02:48:32			0	36976	0	0	0	25418	24000	140114	27256	1016223	42341	109401	0	0	8228	594390	0	0
2024-06-19 02:49:32			0	36972	0	0	0	25418	24000	140122	27355	1016134	42374	109401	0	0	8227	594554	0	0
2024-06-19 02:50:32			0	36982	0	0	0	25415	24000	140194	26802	1016161	42351	109400	0	0	8228	594144	0	0
2024-06-19 02:51:32			0	36976	0	0	0	25423	24000	140050	26963	1016143	42352	109403	0	0	8228	594390	0	0
2024-06-19 02:52:32			0	36979	0	0	0	25418	24000	140198	27232	1016161	42351	109401	0	0	8228	594267	0	0
2024-06-19 02:53:32			0	36945	0	0	0	25428	23990	140210	26772	1016144	42350	109405	0	0	8226	595697	0	0
2024-06-19 02:54:32			0	36942	0	0	0	25415	23990	140230	27170	1016206	42340	109400	0	0	8226	595820	0	0
2024-06-19 02:55:32			0	36952	0	0	0	25420	23990	140206	27081	1016153	42363	109402	0	0	8226	595409	0	0
2024-06-19 02:56:32			0	36961	0	0	0	25412	24000	140258	26946	1016196	42352	109399	0	0	8227	595006	0	0
2024-06-19 02:57:32			0	36941	0	0	0	25423	24000	140234	27090	1016241	42351	109403	0	0	8226	595828	0	0
2024-06-19 02:58:32			0	36938	0	0	0	25410	24000	140234	26875	1016161	42374	109398	0	0	8226	595951	0	0
2024-06-19 02:59:32			0	36948	0	0	0	25415	24000	140238	27140	1016161	42351	109400	0	0	8226	595540	0	0
2024-06-19 03:00:32			0	36934	0	0	0	25418	24000	140206	26965	1016161	42351	109401	0	0	8225	596116	0	0
2024-06-19 03:01:32			0	36931	0	0	0	25420	23990	140262	26922	1016179	42363	109402	0	0	8225	596273	0	0
2024-06-19 03:02:32			0	36941	0	0	0	25415	24000	140282	26960	1016143	42364	109400	0	0	8226	595828	0	0
2024-06-19 03:03:32			0	36926	0	0	0	25418	23990	140314	27064	1016206	42363	109401	0	0	8225	596479	0	0
2024-06-19 03:04:32			0	36933	0	0	0	25418	23990	140286	27034	1016153	42374	109401	0	0	8225	596191	0	0
2024-06-19 03:05:32			0	36947	0	0	0	25412	24000	140302	27199	1016188	42363	109399	0	0	8226	595581	0	0
2024-06-19 03:06:32			0	36935	0	0	0	25410	24000	140322	27241	1016134	42363	109398	0	0	8226	596075	0	0
2024-06-19 03:07:32			0	36941	0	0	0	25415	24000	140298	26915	1016188	42363	109400	0	0	8226	595828	0	0
2024-06-19 03:08:32			0	36959	0	0	0	25412	23990	140226	26996	1016126	42340	109399	0	0	8227	595122	0	0
2024-06-19 03:09:32			0	36938	0	0	0	25407	24000	140278	27163	1016215	42384	109397	0	0	8226	595951	0	0
2024-06-19 03:10:32			0	36934	0	0	0	25423	24000	140314	27069	1016161	42363	109403	0	0	8225	596116	0	0
2024-06-19 03:11:32			0	36939	0	0	0	25415	24000	140262	27081	1016223	42364	109400	0	0	8226	595910	0	0
2024-06-19 03:12:32			0	36954	0	0	0	25418	24000	140310	27088	1016161	42351	109401	0	0	8226	595294	0	0
2024-06-19 03:13:32			0	36953	0	0	0	25420	24000	140318	27046	1016134	42363	109402	0	0	8226	595335	0	0
2024-06-19 03:14:32			0	36946	0	0	0	25418	24000	140218	26946	1016196	42364	109401	0	0	8226	595622	0	0
2024-06-19 03:15:32			0	36935	0	0	0	25410	24000	140258	26890	1016134	42363	109398	0	0	8226	596075	0	0
2024-06-19 03:16:32			0	36934	0	0	0	25410	23990	140302	27168	1016144	42362	109398	0	0	8226	596150	0	0
2024-06-19 03:17:32			0	36947	0	0	0	25402	23990	140290	26826	1016179	42351	109395	0	0	8226	595615	0	0
2024-06-19 03:18:32			0	36951	0	0	0	25405	23980	140250	27048	1016109	42361	109396	0	0	8226	595484	0	0
2024-06-19 03:19:32			0	36951	0	0	0	25412	24000	140186	27232	1016143	42364	109399	0	0	8226	595417	0	0
2024-06-19 03:20:32			0	36954	0	0	0	25405	23990	140226	27128	1016144	42362	109396	0	0	8227	595327	0	0
2024-06-19 03:21:32			0	36960	0	0	0	25407	23990	140162	27197	1016117	42362	109397	0	0	8227	595081	0	0
2024-06-19 03:22:32			0	36952	0	0	0	25405	23990	140166	27076	1016171	42350	109396	0	0	8227	595409	0	0
2024-06-19 03:23:32			0	36944	0	0	0	25399	24000	140238	27177	1016188	42363	109394	0	0	8226	595705	0	0
2024-06-19 03:24:32			0	36967	0	0	0	25399	23990	140222	27076	1016117	42362	109394	0	0	8227	594793	0	0
2024-06-19 03:25:32			0	36972	0	0	0	25399	23980	140230	27031	1016162	42361	109394	0	0	8228	594621	0	0
2024-06-19 03:26:32			0	36948	0	0	0	25397	23990	140158	26734	1016171	42350	109393	0	0	8226	595574	0	0
2024-06-19 03:27:32			0	36979	0	0	0	25402	23990	140254	26802	1016090	42350	109395	0	0	8228	594300	0	0
2024-06-19 03:28:32			0	36969	0	0	0	25394	23990	140206	26913	1016090	42383	109392	0	0	8228	594711	0	0
2024-06-19 03:29:32			0	36975	0	0	0	25399	23980	140234	26953	1016082	42361	109394	0	0	8228	594498	0	0
2024-06-19 03:30:32			0	36970	0	0	0	25394	23980	140102	27069	1016135	42361	109392	0	0	8228	594703	0	0
2024-06-19 03:31:32			0	36987	0	0	0	25394	23980	140110	27029	1016073	42350	109392	0	0	8229	594005	0	0
2024-06-19 03:32:32			0	36980	0	0	0	25386	23980	140146	27168	1016082	42350	109389	0	0	8228	594293	0	0
2024-06-19 03:33:32			0	36977	0	0	0	25384	23980	140118	26816	1016082	42350	109388	0	0	8228	594416	0	0
2024-06-19 03:34:32			0	36991	0	0	0	25381	23970	140142	26927	1016038	42361	109387	0	0	8229	593875	0	0
2024-06-19 03:35:32			0	36995	0	0	0	25374	23960	140110	27100	1015994	42359	109384	0	0	8229	593744	0	0
2024-06-19 03:36:32			0	36991	0	0	0	25368	23970	140050	27272	1016011	42372	109382	0	0	8229	593875	0	0
2024-06-19 03:37:32			0	37014	0	0	0	25374	23970	140150	26826	1015949	42360	109384	0	0	8230	592931	0	0
2024-06-19 03:38:32			0	37005	0	0	0	25368	23970	140030	27038	1016029	42360	109382	0	0	8230	593300	0	0
2024-06-19 03:39:32			0	37017	0	0	0	25371	23960	139994	27053	1016048	42348	109383	0	0	8230	592842	0	0
2024-06-19 03:40:32			0	37008	0	0	0	25368	23960	140018	26948	1015959	42348	109382	0	0	8230	593211	0	0
2024-06-19 03:41:32			0	37014	0	0	0	25374	23960	140098	26798	1015905	42359	109384	0	0	8230	592965	0	0
2024-06-19 03:42:32			0	36998	0	0	0	25368	23970	140066	26854	1015976	42371	109382	0	0	8229	593587	0	0
2024-06-19 03:43:32			0	36999	0	0	0	25376	23970	140014	27249	1015949	42360	109385	0	0	8229	593546	0	0
2024-06-19 03:44:32			0	37018	0	0	0	25361	23960	139990	27020	1015959	42359	109379	0	0	8231	592801	0	0
2024-06-19 03:45:32			0	37018	0	0	0	25361	23950	140130	26795	1015977	42348	109379	0	0	8231	592834	0	0
2024-06-19 03:46:32			0	37033	0	0	0	25355	23960	140010	27135	1015941	42370	109377	0	0	8231	592186	0	0
2024-06-19 03:47:32			0	37008	0	0	0	25376	23950	140134	27005	1015897	42359	109385	0	0	8230	593244	0	0
2024-06-19 03:48:32			0	37009	0	0	0	25363	23950	140090	27225	1015897	42370	109380	0	0	8230	593203	0	0
2024-06-19 03:49:32			0	37020	0	0	0	25353	23950	140090	26837	1015977	42336	109376	0	0	8231	592752	0	0
2024-06-19 03:50:32			0	37036	0	0	0	25366	23940	139998	27092	1015933	42369	109381	0	0	8231	592130	0	0
2024-06-19 03:51:32			0	37037	0	0	0	25355	23950	140018	27164	1015950	42348	109377	0	0	8232	592056	0	0
2024-06-19 03:52:32			0	37028	0	0	0	25358	23960	139962	27263	1015932	42359	109378	0	0	8231	592391	0	0
2024-06-19 03:53:32			0	37019	0	0	0	25355	23950	139982	26876	1015915	42358	109377	0	0	8231	592793	0	0
2024-06-19 03:54:32			0	37035	0	0	0	25353	23950	140062	26960	1015915	42347	109376	0	0	8232	592138	0	0
2024-06-19 03:55:32			0	37032	0	0	0	25361	23950	140006	27248	1015923	42359	109379	0	0	8231	592261	0	0
2024-06-19 03:56:32			0	37031	0	0	0	25355	23940	140006	27230	1015880	42357	109377	0	0	8231	592335	0	0
2024-06-19 03:57:32			0	37049	0	0	0	25358	23950	140018	27173	1015915	42358	109378	0	0	8232	591565	0	0
2024-06-19 03:58:32			0	37032	0	0	0	25355	23940	140046	27249	1015933	42357	109377	0	0	8231	592294	0	0
2024-06-19 03:59:32			0	37047	0	0	0	25355	23950	139942	27229	1015897	42370	109377	0	0	8232	591647	0	0
2024-06-19 04:00:32			0	37047	0	0	0	25342	23940	140058	27192	1015906	42346	109372	0	0	8232	591680	0	0
2024-06-19 04:01:32			0	37041	0	0	0	25353	23950	139986	27050	1015915	42369	109376	0	0	8232	591892	0	0
2024-06-19 04:02:32			0	37024	0	0	0	25345	23940	139930	27203	1015853	42357	109373	0	0	8231	592622	0	0
2024-06-19 04:03:32			0	37046	0	0	0	25355	23940	140058	27211	1015871	42357	109377	0	0	8232	591721	0	0
2024-06-19 04:04:32			0	37046	0	0	0	25350	23930	140054	27052	1015809	42368	109375	0	0	8232	591754	0	0
2024-06-19 04:05:32			0	37046	0	0	0	25342	23940	140058	27398	1015853	42357	109372	0	0	8232	591721	0	0
2024-06-19 04:06:32			0	37045	0	0	0	25340	23940	140002	27152	1015818	42357	109371	0	0	8232	591762	0	0
2024-06-19 04:07:32			0	37052	0	0	0	25335	23940	139962	27168	1015826	42357	109369	0	0	8233	591475	0	0
2024-06-19 04:08:32			0	37046	0	0	0	25324	23940	140018	26852	1015853	42346	109365	0	0	8233	591721	0	0
2024-06-19 04:09:32			0	37062	0	0	0	25332	23930	140058	27031	1015773	42356	109368	0	0	8233	591099	0	0
2024-06-19 04:10:32			0	37054	0	0	0	25324	23920	139942	27090	1015818	42355	109365	0	0	8233	591460	0	0
2024-06-19 04:11:32			0	37055	0	0	0	25327	23930	139974	27286	1015773	42368	109366	0	0	8233	591386	0	0
2024-06-19 04:12:32			0	37030	0	0	0	25319	23930	139966	27069	1015773	42345	109363	0	0	8232	592409	0	0
2024-06-19 04:13:32			0	37056	0	0	0	25322	23910	139990	27339	1015774	42354	109364	0	0	8233	591412	0	0
2024-06-19 04:14:32			0	37059	0	0	0	25322	23920	139942	26913	1015783	42343	109364	0	0	8233	591256	0	0
2024-06-19 04:15:32			0	37069	0	0	0	25322	23910	139930	27104	1015721	42333	109364	0	0	8234	590880	0	0
2024-06-19 04:16:32			0	37078	0	0	0	25322	23920	139874	27223	1015729	42343	109364	0	0	8234	590479	0	0
2024-06-19 04:17:32			0	37073	0	0	0	25311	23920	139926	27053	1015791	42355	109360	0	0	8234	590683	0	0
2024-06-19 04:18:32			0	37053	0	0	0	25316	23910	139934	27277	1015748	42366	109362	0	0	8233	591534	0	0
2024-06-19 04:19:32			0	37070	0	0	0	25316	23910	139858	27313	1015739	42343	109362	0	0	8234	590839	0	0
2024-06-19 04:20:32			0	37057	0	0	0	25311	23920	139930	27275	1015729	42343	109360	0	0	8233	591337	0	0
2024-06-19 04:21:32			0	37077	0	0	0	25324	23920	139954	26906	1015756	42354	109365	0	0	8234	590519	0	0
2024-06-19 04:22:32			0	37056	0	0	0	25314	23900	139922	27315	1015677	42365	109361	0	0	8233	591445	0	0
2024-06-19 04:23:32			0	37061	0	0	0	25316	23910	139930	27258	1015659	42354	109362	0	0	8233	591207	0	0
2024-06-19 04:24:32			0	37050	0	0	0	25314	23910	139810	27237	1015712	42354	109361	0	0	8233	591657	0	0
2024-06-19 04:25:32			0	37070	0	0	0	25298	23910	139878	27289	1015712	42366	109355	0	0	8234	590839	0	0
2024-06-19 04:26:32			0	37064	0	0	0	25303	23900	139898	27371	1015677	42342	109357	0	0	8234	591118	0	0
2024-06-19 04:27:32			0	37068	0	0	0	25303	23900	139918	26842	1015704	42332	109357	0	0	8234	590954	0	0
2024-06-19 04:28:32			0	37055	0	0	0	25303	23900	139902	26991	1015668	42353	109357	0	0	8233	591486	0	0
2024-06-19 04:29:32			0	37061	0	0	0	25306	23900	139994	27104	1015642	42353	109358	0	0	8234	591240	0	0
2024-06-19 04:30:32			0	37056	0	0	0	25298	23900	139926	27265	1015650	42365	109355	0	0	8233	591445	0	0
2024-06-19 04:31:32			0	37055	0	0	0	25293	23900	139862	27010	1015642	42353	109353	0	0	8233	591486	0	0
2024-06-19 04:32:32			0	37071	0	0	0	25290	23890	140034	27270	1015598	42341	109352	0	0	8234	590865	0	0
2024-06-19 04:33:32			0	37062	0	0	0	25290	23890	140022	26928	1015660	42341	109352	0	0	8234	591233	0	0
2024-06-19 04:34:32			0	37040	0	0	0	25275	23890	139914	26838	1015687	42341	109346	0	0	8233	592133	0	0
2024-06-19 04:35:32			0	37058	0	0	0	25283	23890	139862	27074	1015625	42353	109349	0	0	8234	591396	0	0
2024-06-19 04:36:32			0	37058	0	0	0	25285	23880	139870	27000	1015643	42340	109350	0	0	8234	591430	0	0
2024-06-19 04:37:32			0	37059	0	0	0	25280	23880	139926	26911	1015643	42352	109348	0	0	8234	591389	0	0
2024-06-19 04:38:32			0	37070	0	0	0	25283	23890	139982	27052	1015580	42375	109349	0	0	8234	590905	0	0
2024-06-19 04:39:32			0	37068	0	0	0	25262	23880	139978	26968	1015474	42351	109341	0	0	8235	591021	0	0
2024-06-19 04:40:32			0	37063	0	0	0	25246	23870	139946	27026	1015457	42351	109335	0	0	8235	591258	0	0
2024-06-19 04:41:32			0	37041	0	0	0	25249	23870	139998	27060	1015457	42329	109336	0	0	8233	592159	0	0
2024-06-19 04:42:32			0	37048	0	0	0	25246	23850	140014	27092	1015422	42337	109335	0	0	8234	591939	0	0
2024-06-19 04:43:32			0	37053	0	0	0	25246	23860	139970	26826	1015413	42349	109335	0	0	8234	591701	0	0
2024-06-19 04:44:32			0	37057	0	0	0	25241	23860	140046	27326	1015520	42349	109333	0	0	8234	591537	0	0
2024-06-19 04:45:32			0	37038	0	0	0	25249	23850	139974	27045	1015458	42348	109336	0	0	8233	592349	0	0
2024-06-19 04:46:32			0	37053	0	0	0	25238	23850	140002	27072	1015422	42337	109332	0	0	8234	591734	0	0
2024-06-19 04:47:32			0	37036	0	0	0	25223	23850	139978	27017	1015458	42348	109326	0	0	8233	592431	0	0
2024-06-19 04:48:32			0	37037	0	0	0	25205	23850	140010	27255	1015369	42348	109319	0	0	8234	592390	0	0
2024-06-19 04:49:32			0	37042	0	0	0	25210	23840	140062	27241	1015360	42326	109321	0	0	8234	592218	0	0
2024-06-19 04:50:32			0	37049	0	0	0	25210	23830	139982	27300	1015361	42335	109321	0	0	8234	591965	0	0
2024-06-19 04:51:32			0	37043	0	0	0	25199	23830	140078	27378	1015308	42346	109317	0	0	8234	592211	0	0
2024-06-19 04:52:32			0	37039	0	0	0	25199	23840	140162	27055	1015325	42347	109317	0	0	8234	592341	0	0
2024-06-19 04:53:32			0	37017	0	0	0	25210	23830	139994	27268	1015388	42335	109321	0	0	8233	593276	0	0
2024-06-19 04:54:32			0	37021	0	0	0	25205	23830	140194	27140	1015335	42346	109319	0	0	8233	593112	0	0
2024-06-19 04:55:32			0	37024	0	0	0	25207	23830	140170	27445	1015308	42346	109320	0	0	8233	592989	0	0
2024-06-19 04:56:32			0	37018	0	0	0	25194	23830	140190	27109	1015254	42335	109315	0	0	8233	593235	0	0
2024-06-19 04:57:32			0	37009	0	0	0	25153	23810	140234	27189	1015140	42333	109299	0	0	8233	593671	0	0
2024-06-19 04:58:32			0	37008	0	0	0	25153	23800	140226	27161	1015131	42323	109299	0	0	8233	593746	0	0
2024-06-19 04:59:32			0	36988	0	0	0	25158	23800	140210	26942	1015211	42356	109301	0	0	8232	594567	0	0
2024-06-19 05:00:32			0	37009	0	0	0	25158	23800	140150	27060	1015185	42333	109301	0	0	8233	593705	0	0
2024-06-19 05:01:32			0	36993	0	0	0	25161	23800	140202	27100	1015203	42343	109302	0	0	8232	594362	0	0
2024-06-19 05:02:32			0	36982	0	0	0	25166	23800	140226	27367	1015203	42333	109304	0	0	8231	594814	0	0
2024-06-19 05:03:32			0	36988	0	0	0	25163	23800	140206	26930	1015203	42333	109303	0	0	8232	594567	0	0
2024-06-19 05:04:32			0	36991	0	0	0	25163	23790	140258	27121	1015132	42331	109303	0	0	8232	594477	0	0
2024-06-19 05:05:32			0	37001	0	0	0	25142	23790	140306	27170	1015060	42342	109295	0	0	8233	594067	0	0
2024-06-19 05:06:32			0	36967	0	0	0	25116	23780	140370	27229	1014955	42331	109285	0	0	8231	595497	0	0
2024-06-19 05:07:32			0	36968	0	0	0	25103	23770	140394	27071	1014937	42329	109280	0	0	8232	595490	0	0
2024-06-19 05:08:32			0	36958	0	0	0	25080	23760	140430	27017	1014902	42329	109271	0	0	8231	595934	0	0
2024-06-19 05:09:32			0	36950	0	0	0	25070	23750	140402	27187	1014903	42305	109267	0	0	8231	596297	0	0
2024-06-19 05:10:32			0	36952	0	0	0	25057	23730	140418	26974	1014797	42315	109262	0	0	8231	596282	0	0
2024-06-19 05:11:32			0	36926	0	0	0	25025	23720	140374	27173	1014727	42314	109250	0	0	8230	597387	0	0
2024-06-19 05:12:32			0	36932	0	0	0	25028	23710	140530	27163	1014736	42325	109251	0	0	8231	597173	0	0
2024-06-19 05:13:32			0	36943	0	0	0	25046	23720	140546	27085	1014753	42335	109258	0	0	8231	596686	0	0
2024-06-19 05:14:32			0	36926	0	0	0	25057	23710	140630	26942	1014798	42335	109262	0	0	8230	597420	0	0
2024-06-19 05:15:32			0	36886	0	0	0	25046	23710	140806	27118	1014790	42325	109258	0	0	8228	599070	0	0
2024-06-19 05:16:32			0	36882	0	0	0	25054	23700	140694	26918	1014701	42324	109261	0	0	8228	599269	0	0
2024-06-19 05:17:32			0	36881	0	0	0	25049	23700	140810	27185	1014746	42333	109259	0	0	8228	599311	0	0
2024-06-19 05:18:32			0	36848	0	0	0	25041	23700	140878	26993	1014692	42323	109256	0	0	8226	600675	0	0
2024-06-19 05:19:32			0	36846	0	0	0	25031	23690	140926	27052	1014649	42323	109252	0	0	8226	600791	0	0
2024-06-19 05:20:32			0	36811	0	0	0	25023	23680	140914	27015	1014560	42322	109249	0	0	8224	602275	0	0
2024-06-19 05:21:32			0	36779	0	0	0	25012	23680	141118	26871	1014658	42321	109245	0	0	8223	603602	0	0
2024-06-19 05:22:32			0	36785	0	0	0	25020	23680	141150	26873	1014631	42299	109248	0	0	8223	603353	0	0
2024-06-19 05:23:32			0	36761	0	0	0	25023	23680	141206	27144	1014551	42321	109249	0	0	8222	604349	0	0
2024-06-19 05:24:32			0	36743	0	0	0	25015	23670	141290	26991	1014596	42310	109246	0	0	8221	605131	0	0
2024-06-19 05:25:32			0	36711	0	0	0	25018	23660	141394	26793	1014543	42319	109247	0	0	8219	606497	0	0
2024-06-19 05:26:32			0	36679	0	0	0	25025	23660	141478	27258	1014597	42331	109250	0	0	8217	607831	0	0
2024-06-19 05:27:32			0	36662	0	0	0	25038	23670	141622	27222	1014667	42321	109255	0	0	8216	608506	0	0
2024-06-19 05:28:32			0	36635	0	0	0	25028	23660	141622	27185	1014579	42309	109251	0	0	8215	609668	0	0
2024-06-19 05:29:32			0	36602	0	0	0	25023	23650	141934	26908	1014562	42308	109249	0	0	8213	611082	0	0
2024-06-19 05:30:32			0	36549	0	0	0	25007	23650	141953	27176	1014535	42319	109243	0	0	8211	613304	0	0
2024-06-19 05:31:32			0	36535	0	0	0	25002	23650	142037	27339	1014446	42318	109241	0	0	8210	613891	0	0
2024-06-19 05:32:32			0	36482	0	0	0	24997	23630	142261	27149	1014474	42305	109239	0	0	8207	616189	0	0
2024-06-19 05:33:32			0	36469	0	0	0	25015	23650	142329	27208	1014606	42340	109246	0	0	8206	616667	0	0
2024-06-19 05:34:32			0	36436	0	0	0	25028	23650	142385	27282	1014642	42319	109251	0	0	8204	618058	0	0
2024-06-19 05:35:32			0	36412	0	0	0	25028	23650	142577	27147	1014500	42318	109251	0	0	8203	619071	0	0
2024-06-19 05:36:32			0	36364	0	0	0	25015	23650	142597	27029	1014500	42307	109246	0	0	8201	621101	0	0
2024-06-19 05:37:32			0	36331	0	0	0	24999	23650	142845	26996	1014526	42307	109240	0	0	8199	622499	0	0
2024-06-19 05:38:32			0	36304	0	0	0	25002	23650	142937	26767	1014446	42318	109241	0	0	8198	623645	0	0
2024-06-19 05:39:32			0	36248	0	0	0	24997	23650	143153	26965	1014473	42296	109239	0	0	8195	626025	0	0
2024-06-19 05:40:32			0	36205	0	0	0	24994	23640	143325	26937	1014429	42306	109238	0	0	8193	627893	0	0
2024-06-19 05:41:32			0	36179	0	0	0	24989	23630	143397	26672	1014332	42317	109236	0	0	8191	629038	0	0
2024-06-19 05:42:32			0	36124	0	0	0	24992	23630	143617	26767	1014358	42294	109237	0	0	8188	631390	0	0
2024-06-19 05:43:32			0	36097	0	0	0	24981	23630	143869	27253	1014358	42305	109233	0	0	8187	632547	0	0
2024-06-19 05:44:32			0	36044	0	0	0	24966	23610	144061	27272	1014306	42303	109227	0	0	8184	634894	0	0
2024-06-19 05:45:32			0	36002	0	0	0	24974	23610	144145	26934	1014306	42303	109230	0	0	8182	636702	0	0
2024-06-19 05:46:32			0	35957	0	0	0	24961	23620	144361	26882	1014341	42316	109225	0	0	8180	638606	0	0
2024-06-19 05:47:32			0	35910	0	0	0	24968	23600	144625	27166	1014342	42336	109228	0	0	8177	640710	0	0
2024-06-19 05:48:32			0	35871	0	0	0	24976	23610	144677	26883	1014440	42326	109231	0	0	8175	642363	0	0
2024-06-19 05:49:32			0	35826	0	0	0	24989	23610	144880	26996	1014359	42326	109236	0	0	8172	644316	0	0
2024-06-19 05:50:32			0	35783	0	0	0	24989	23620	145000	27225	1014377	42328	109236	0	0	8170	646150	0	0
2024-06-19 05:51:32			0	35746	0	0	0	24989	23620	145184	27180	1014315	42327	109236	0	0	8168	647762	0	0
2024-06-19 05:52:32			0	35686	0	0	0	24976	23610	145392	27256	1014378	42303	109231	0	0	8165	650419	0	0
2024-06-19 05:53:32			0	35655	0	0	0	24979	23620	145552	27260	1014395	42316	109232	0	0	8164	651740	0	0
2024-06-19 05:54:32			0	35621	0	0	0	24979	23620	145668	27235	1014368	42304	109232	0	0	8162	653230	0	0
2024-06-19 05:55:32			0	35591	0	0	0	24979	23610	145836	27183	1014404	42315	109232	0	0	8160	654584	0	0
2024-06-19 05:56:32			0	35560	0	0	0	24986	23610	145976	27261	1014359	42315	109235	0	0	8158	655948	0	0
2024-06-19 05:57:32			0	35511	0	0	0	24984	23610	146012	27301	1014333	42315	109234	0	0	8156	658107	0	0
2024-06-19 05:58:32			0	35496	0	0	0	24984	23600	146256	27157	1014342	42326	109234	0	0	8155	658806	0	0
2024-06-19 05:59:32			0	35469	0	0	0	24997	23600	146292	26922	1014360	42302	109239	0	0	8153	659999	0	0
2024-06-19 06:00:32			0	35418	0	0	0	24997	23610	146492	27189	1014359	42303	109239	0	0	8150	662219	0	0
2024-06-19 06:01:32			0	35390	0	0	0	24997	23610	146544	27398	1014351	42336	109239	0	0	8149	663461	0	0
2024-06-19 06:02:32			0	35384	0	0	0	24994	23610	146668	27154	1014351	42315	109238	0	0	8149	663727	0	0
2024-06-19 06:03:32			0	35351	0	0	0	24994	23610	146904	26977	1014324	42303	109238	0	0	8147	665193	0	0
2024-06-19 06:04:32			0	35346	0	0	0	24976	23590	146844	27154	1014245	42302	109231	0	0	8147	665491	0	0
2024-06-19 06:05:32			0	35309	0	0	0	24971	23600	146964	27178	1014280	42314	109229	0	0	8145	667101	0	0
2024-06-19 06:06:32			0	35282	0	0	0	24963	23590	147152	27083	1014236	42302	109226	0	0	8144	668342	0	0
2024-06-19 06:07:32			0	35262	0	0	0	24958	23580	147152	27033	1014121	42301	109224	0	0	8143	669272	0	0
2024-06-19 06:08:32			0	35254	0	0	0	24950	23580	147232	27202	1014148	42301	109221	0	0	8142	669630	0	0
2024-06-19 06:09:32			0	35241	0	0	0	24937	23580	147264	27280	1014174	42290	109216	0	0	8142	670211	0	0
2024-06-19 06:10:32			0	35202	0	0	0	24932	23560	147332	27324	1014140	42299	109214	0	0	8140	672032	0	0
2024-06-19 06:11:32			0	35196	0	0	0	24929	23570	147496	27190	1014095	42311	109213	0	0	8139	672263	0	0
2024-06-19 06:12:32			0	35174	0	0	0	24924	23570	147496	27319	1014068	42311	109211	0	0	8138	673250	0	0
2024-06-19 06:13:32			0	35176	0	0	0	24922	23570	147564	27244	1014077	42311	109210	0	0	8138	673160	0	0
2024-06-19 06:14:32			0	35133	0	0	0	24932	23560	147700	27336	1014140	42321	109214	0	0	8136	675129	0	0
2024-06-19 06:15:32			0	35107	0	0	0	24932	23570	147748	27140	1014202	42322	109214	0	0	8135	676261	0	0
2024-06-19 06:16:32			0	35102	0	0	0	24955	23580	147863	27114	1014246	42323	109223	0	0	8134	676448	0	0
2024-06-19 06:17:32			0	35094	0	0	0	24981	23580	147851	27081	1014308	42312	109233	0	0	8133	676808	0	0
2024-06-19 06:18:32			0	35066	0	0	0	24999	23590	147963	27291	1014343	42313	109240	0	0	8131	678032	0	0
2024-06-19 06:19:32			0	35055	0	0	0	24992	23600	147959	27275	1014467	42325	109237	0	0	8131	678490	0	0
2024-06-19 06:20:32			0	35060	0	0	0	25010	23610	147999	27248	1014378	42326	109244	0	0	8131	678226	0	0
2024-06-19 06:21:32			0	35047	0	0	0	25010	23600	148119	27424	1014369	42315	109244	0	0	8130	678851	0	0
2024-06-19 06:22:32			0	35047	0	0	0	25012	23600	148103	27161	1014342	42315	109245	0	0	8130	678851	0	0
2024-06-19 06:23:32			0	35019	0	0	0	25010	23610	148139	27003	1014351	42315	109244	0	0	8129	680078	0	0
2024-06-19 06:24:32			0	35026	0	0	0	25002	23600	148159	27135	1014316	42315	109241	0	0	8129	679800	0	0
2024-06-19 06:25:32			0	35002	0	0	0	24999	23590	148155	27265	1014325	42302	109240	0	0	8128	680923	0	0
2024-06-19 06:26:32			0	34984	0	0	0	24989	23590	148211	27135	1014298	42313	109236	0	0	8127	681738	0	0
2024-06-19 06:27:32			0	34996	0	0	0	24994	23600	148251	26746	1014280	42325	109238	0	0	8128	681156	0	0
2024-06-19 06:28:32			0	34956	0	0	0	24981	23590	148319	27211	1014298	42313	109233	0	0	8126	683007	0	0
2024-06-19 06:29:32			0	34982	0	0	0	24989	23600	148339	26963	1014307	42314	109236	0	0	8127	681790	0	0
2024-06-19 06:30:32			0	34977	0	0	0	24992	23600	148283	26989	1014280	42314	109237	0	0	8127	682017	0	0
2024-06-19 06:31:32			0	34957	0	0	0	24989	23600	148407	27267	1014254	42325	109236	0	0	8126	682923	0	0
2024-06-19 06:32:32			0	34944	0	0	0	24994	23600	148459	27388	1014334	42325	109238	0	0	8125	683513	0	0
2024-06-19 06:33:32			0	34951	0	0	0	24992	23590	148507	27305	1014245	42324	109237	0	0	8125	683234	0	0
2024-06-19 06:34:32			0	34933	0	0	0	24986	23610	148479	26923	1014378	42315	109235	0	0	8124	683974	0	0
2024-06-19 06:35:32			0	34930	0	0	0	24992	23600	148543	27062	1014369	42315	109237	0	0	8124	684148	0	0
2024-06-19 06:36:32			0	34920	0	0	0	24997	23590	148535	26817	1014352	42334	109239	0	0	8123	684641	0	0
2024-06-19 06:37:32			0	34925	0	0	0	24997	23600	148559	27003	1014360	42325	109239	0	0	8124	684375	0	0
2024-06-19 06:38:32			0	34919	0	0	0	24992	23590	148531	27048	1014379	42302	109237	0	0	8123	684686	0	0
2024-06-19 06:39:32			0	34910	0	0	0	24989	23600	148575	26961	1014342	42315	109236	0	0	8123	685057	0	0
2024-06-19 06:40:32			0	34903	0	0	0	24989	23600	148591	26868	1014289	42315	109236	0	0	8123	685375	0	0
2024-06-19 06:41:32			0	34894	0	0	0	24979	23600	148615	26894	1014289	42315	109232	0	0	8122	685784	0	0
2024-06-19 06:42:32			0	34888	0	0	0	24974	23590	148703	27260	1014298	42313	109230	0	0	8122	686096	0	0
2024-06-19 06:43:32			0	34890	0	0	0	24968	23600	148667	27182	1014280	42325	109228	0	0	8122	685966	0	0
2024-06-19 06:44:32			0	34895	0	0	0	24971	23590	148699	26960	1014298	42324	109229	0	0	8122	685777	0	0
2024-06-19 06:45:32			0	34875	0	0	0	24984	23590	148711	27331	1014379	42324	109234	0	0	8121	686688	0	0
2024-06-19 06:46:32			0	34865	0	0	0	24986	23600	148751	26948	1014369	42326	109235	0	0	8121	687104	0	0
2024-06-19 06:47:32			0	34871	0	0	0	24994	23610	148787	27107	1014351	42315	109238	0	0	8121	686793	0	0
2024-06-19 06:48:32			0	34870	0	0	0	24989	23600	148731	27396	1014254	42314	109236	0	0	8121	686877	0	0
2024-06-19 06:49:32			0	34869	0	0	0	24968	23600	148803	26953	1014280	42302	109228	0	0	8121	686922	0	0
2024-06-19 06:50:32			0	34857	0	0	0	24961	23590	148715	26880	1014290	42302	109225	0	0	8120	687508	0	0
2024-06-19 06:51:32			0	34853	0	0	0	24955	23590	148767	27000	1014192	42291	109223	0	0	8120	687690	0	0
2024-06-19 06:52:32			0	34850	0	0	0	24958	23580	148835	27046	1014193	42312	109224	0	0	8120	687865	0	0
2024-06-19 06:53:32			0	34864	0	0	0	24958	23590	148843	27481	1014263	42313	109224	0	0	8121	687189	0	0
2024-06-19 06:54:32			0	34868	0	0	0	24953	23580	148767	26928	1014193	42323	109222	0	0	8121	687045	0	0
2024-06-19 06:55:32			0	34852	0	0	0	24950	23580	149007	26889	1014255	42301	109221	0	0	8120	687774	0	0
2024-06-19 06:56:32			0	34850	0	0	0	24953	23570	148899	27003	1014237	42322	109222	0	0	8120	687904	0	0
2024-06-19 06:57:32			0	34845	0	0	0	24963	23580	148951	27098	1014255	42312	109226	0	0	8120	688093	0	0
2024-06-19 06:58:32			0	34835	0	0	0	24968	23590	148923	27215	1014317	42324	109228	0	0	8119	688511	0	0
2024-06-19 06:59:32			0	34842	0	0	0	24974	23580	148859	27150	1014361	42312	109230	0	0	8119	688230	0	0
2024-06-19 07:00:32			0	34843	0	0	0	24966	23590	148871	27017	1014317	42302	109227	0	0	8120	688146	0	0
2024-06-19 07:01:32			0	34850	0	0	0	24976	23590	148775	27026	1014245	42313	109231	0	0	8120	687827	0	0
2024-06-19 07:02:32			0	34845	0	0	0	24966	23590	148891	27144	1014317	42313	109227	0	0	8120	688055	0	0
2024-06-19 07:03:32			0	34829	0	0	0	24981	23590	148843	27371	1014317	42324	109233	0	0	8119	688785	0	0
2024-06-19 07:04:32			0	34838	0	0	0	24981	23580	148947	27119	1014335	42323	109233	0	0	8119	688413	0	0
2024-06-19 07:05:32			0	34847	0	0	0	24986	23590	148915	27294	1014370	42313	109235	0	0	8120	687963	0	0
2024-06-19 07:06:32			0	34827	0	0	0	24984	23600	148875	27145	1014334	42325	109234	0	0	8119	688837	0	0
2024-06-19 07:07:32			0	34839	0	0	0	24974	23590	148927	27098	1014325	42324	109230	0	0	8119	688328	0	0
2024-06-19 07:08:32			0	34833	0	0	0	24963	23580	148811	27294	1014246	42312	109226	0	0	8119	688641	0	0
2024-06-19 07:09:32			0	34832	0	0	0	24955	23590	148919	27267	1014272	42313	109223	0	0	8119	688648	0	0
2024-06-19 07:10:32			0	34844	0	0	0	24932	23580	148887	26915	1014139	42290	109214	0	0	8120	688139	0	0
2024-06-19 07:11:32			0	34828	0	0	0	24906	23570	148951	27230	1014015	42311	109204	0	0	8120	688908	0	0
2024-06-19 07:12:32			0	34836	0	0	0	24911	23560	148963	27175	1014104	42321	109206	0	0	8120	688581	0	0
2024-06-19 07:13:32			0	34828	0	0	0	24914	23560	148927	27173	1014051	42299	109207	0	0	8120	688947	0	0
2024-06-19 07:14:32			0	34854	0	0	0	24916	23550	148827	27118	1013980	42308	109208	0	0	8121	687799	0	0
2024-06-19 07:15:32			0	34859	0	0	0	24906	23540	148899	27324	1013972	42308	109204	0	0	8121	687610	0	0
2024-06-19 07:16:32			0	34839	0	0	0	24901	23540	148951	26922	1013998	42297	109202	0	0	8120	688522	0	0
2024-06-19 07:17:32			0	34841	0	0	0	24890	23540	149067	26970	1013892	42308	109198	0	0	8121	688431	0	0
2024-06-19 07:18:32			0	34835	0	0	0	24864	23520	149027	27126	1013804	42295	109188	0	0	8121	688782	0	0
2024-06-19 07:19:32			0	34834	0	0	0	24846	23520	148979	27239	1013742	42294	109181	0	0	8121	688828	0	0
2024-06-19 07:20:32			0	34842	0	0	0	24831	23510	149015	26894	1013707	42284	109175	0	0	8121	688501	0	0
2024-06-19 07:21:32			0	34857	0	0	0	24818	23490	149067	27092	1013664	42281	109170	0	0	8122	687894	0	0
2024-06-19 07:22:32			0	34866	0	0	0	24820	23470	148991	27078	1013576	42291	109171	0	0	8123	687561	0	0
2024-06-19 07:23:32			0	34851	0	0	0	24818	23480	149015	27152	1013620	42302	109170	0	0	8122	688207	0	0
2024-06-19 07:24:32			0	34873	0	0	0	24805	23470	148971	27289	1013638	42291	109165	0	0	8123	687242	0	0
2024-06-19 07:25:32			0	34864	0	0	0	24797	23470	149107	27277	1013576	42291	109162	0	0	8123	687653	0	0
2024-06-19 07:26:32			0	34856	0	0	0	24799	23450	148951	27112	1013550	42289	109163	0	0	8123	688095	0	0
2024-06-19 07:27:32			0	34853	0	0	0	24792	23450	148919	27012	1013497	42299	109160	0	0	8122	688231	0	0
2024-06-19 07:28:32			0	34879	0	0	0	24781	23440	148895	27395	1013507	42288	109156	0	0	8124	687085	0	0
2024-06-19 07:29:32			0	34863	0	0	0	24781	23440	148991	27229	1013453	42288	109156	0	0	8123	687814	0	0
2024-06-19 07:30:32			0	34862	0	0	0	24766	23420	148935	27168	1013419	42296	109150	0	0	8123	687937	0	0
2024-06-19 07:31:32			0	34877	0	0	0	24766	23420	148947	27512	1013481	42297	109150	0	0	8124	687253	0	0
2024-06-19 07:32:32			0	34851	0	0	0	24768	23420	149023	26991	1013445	42296	109151	0	0	8123	688439	0	0
2024-06-19 07:33:32			0	34860	0	0	0	24774	23410	148851	27230	1013517	42296	109153	0	0	8123	688067	0	0
2024-06-19 07:34:32			0	34867	0	0	0	24797	23430	148819	27242	1013676	42297	109162	0	0	8123	687670	0	0
2024-06-19 07:35:32			0	34874	0	0	0	24828	23440	148907	26963	1013667	42310	109174	0	0	8123	687313	0	0
2024-06-19 07:36:32			0	34860	0	0	0	24859	23450	148951	27154	1013711	42289	109186	0	0	8122	687912	0	0
2024-06-19 07:37:32			0	34881	0	0	0	24875	23470	148871	27131	1013816	42324	109192	0	0	8123	686878	0	0
2024-06-19 07:38:32			0	34884	0	0	0	24896	23470	148871	26757	1013816	42312	109200	0	0	8123	686741	0	0
2024-06-19 07:39:32			0	34871	0	0	0	24906	23480	148899	27045	1013896	42314	109204	0	0	8122	687295	0	0
2024-06-19 07:40:32			0	34870	0	0	0	24922	23490	148871	27053	1013939	42315	109210	0	0	8121	687302	0	0
2024-06-19 07:41:32			0	34866	0	0	0	24927	23500	148975	27170	1014001	42315	109212	0	0	8121	687445	0	0
2024-06-19 07:42:32			0	34868	0	0	0	24914	23500	148987	26975	1013975	42304	109207	0	0	8121	687354	0	0
2024-06-19 07:43:32			0	34881	0	0	0	24919	23500	148943	27176	1013983	42305	109209	0	0	8122	686762	0	0
2024-06-19 07:44:32			0	34880	0	0	0	24929	23510	148899	27072	1013938	42327	109213	0	0	8122	686769	0	0
2024-06-19 07:45:32			0	34865	0	0	0	24937	23510	148931	27109	1014081	42317	109216	0	0	8121	687452	0	0
2024-06-19 07:46:32			0	34870	0	0	0	24937	23520	148931	27201	1014062	42317	109216	0	0	8121	687186	0	0
2024-06-19 07:47:32			0	34875	0	0	0	24937	23520	148891	27107	1014124	42329	109216	0	0	8122	686958	0	0
2024-06-19 07:48:32			0	34868	0	0	0	24945	23520	148995	26925	1014098	42318	109219	0	0	8121	687277	0	0
2024-06-19 07:49:32			0	34895	0	0	0	24948	23540	148927	26982	1014123	42308	109220	0	0	8123	685970	0	0
2024-06-19 07:50:32			0	34875	0	0	0	24937	23530	148771	27112	1014035	42319	109216	0	0	8122	686919	0	0
2024-06-19 07:51:32			0	34883	0	0	0	24932	23520	148771	27294	1014071	42295	109214	0	0	8122	686594	0	0
2024-06-19 07:52:32			0	34891	0	0	0	24922	23530	148767	27128	1014061	42307	109210	0	0	8123	686191	0	0
2024-06-19 07:53:32			0	34885	0	0	0	24922	23530	148871	27161	1013999	42306	109210	0	0	8122	686464	0	0
2024-06-19 07:54:32			0	34899	0	0	0	24924	23530	148847	27029	1014035	42319	109211	0	0	8123	685827	0	0
2024-06-19 07:55:32			0	34876	0	0	0	24922	23530	148795	27267	1013955	42319	109210	0	0	8122	686874	0	0
2024-06-19 07:56:32			0	34912	0	0	0	24916	23520	148795	26941	1013964	42306	109208	0	0	8124	685274	0	0
2024-06-19 07:57:32			0	34898	0	0	0	24906	23530	148783	27041	1013999	42318	109204	0	0	8123	685872	0	0
2024-06-19 07:58:32			0	34897	0	0	0	24909	23530	148791	26993	1013973	42306	109205	0	0	8123	685918	0	0
2024-06-19 07:59:32			0	34895	0	0	0	24914	23530	148775	27211	1014053	42295	109207	0	0	8123	686009	0	0
2024-06-19 08:00:32			0	34907	0	0	0	24929	23530	148779	27119	1014106	42306	109213	0	0	8123	685463	0	0
2024-06-19 08:01:32			0	34906	0	0	0	24940	23540	148675	27505	1014212	42308	109217	0	0	8123	685470	0	0
2024-06-19 08:02:32			0	34911	0	0	0	24945	23550	148715	27353	1014194	42320	109219	0	0	8124	685204	0	0
2024-06-19 08:03:32			0	34924	0	0	0	24958	23550	148723	27303	1014203	42309	109224	0	0	8124	684613	0	0
2024-06-19 08:04:32			0	34915	0	0	0	24968	23550	148679	27072	1014194	42331	109228	0	0	8123	685022	0	0
2024-06-19 08:05:32			0	34900	0	0	0	24979	23560	148683	27057	1014273	42321	109232	0	0	8122	685666	0	0
2024-06-19 08:06:32			0	34907	0	0	0	24986	23560	148687	27324	1014264	42333	109235	0	0	8123	685347	0	0
2024-06-19 08:07:32			0	34919	0	0	0	24994	23580	148615	26937	1014299	42312	109238	0	0	8123	684725	0	0
2024-06-19 08:08:32			0	34918	0	0	0	24999	23580	148543	26859	1014388	42323	109240	0	0	8123	684770	0	0
2024-06-19 08:09:32			0	34920	0	0	0	25007	23590	148723	27256	1014370	42334	109243	0	0	8123	684641	0	0
2024-06-19 08:10:32			0	34927	0	0	0	25023	23580	148607	27059	1014415	42323	109249	0	0	8123	684362	0	0
2024-06-19 08:11:32			0	34918	0	0	0	25020	23590	148559	27095	1014397	42334	109248	0	0	8123	684732	0	0
2024-06-19 08:12:32			0	34927	0	0	0	25028	23590	148655	27102	1014423	42313	109251	0	0	8123	684323	0	0
2024-06-19 08:13:32			0	34939	0	0	0	25033	23600	148543	27241	1014441	42325	109253	0	0	8124	683740	0	0
2024-06-19 08:14:32			0	34937	0	0	0	25033	23600	148599	27145	1014476	42315	109253	0	0	8124	683830	0	0
2024-06-19 08:15:32			0	34953	0	0	0	25038	23610	148471	27447	1014493	42336	109255	0	0	8125	683066	0	0
2024-06-19 08:16:32			0	34962	0	0	0	25044	23610	148571	26939	1014466	42315	109257	0	0	8125	682658	0	0
2024-06-19 08:17:32			0	35007	0	0	0	25038	23610	148411	27215	1014458	42326	109255	0	0	8127	680620	0	0
2024-06-19 08:18:32			0	35025	0	0	0	25041	23620	148211	27024	1014501	42327	109256	0	0	8128	679768	0	0
2024-06-19 08:19:32			0	35074	0	0	0	25044	23620	147955	27001	1014501	42316	109257	0	0	8131	677557	0	0
2024-06-19 08:20:32			0	35133	0	0	0	25044	23620	147760	27296	1014528	42327	109257	0	0	8134	674901	0	0
2024-06-19 08:21:32			0	35218	0	0	0	25046	23630	147408	27208	1014572	42328	109258	0	0	8139	671051	0	0
2024-06-19 08:22:32			0	35284	0	0	0	25054	23620	147012	27270	1014537	42338	109261	0	0	8142	668140	0	0
2024-06-19 08:23:32			0	35373	0	0	0	25054	23620	146744	27414	1014564	42338	109261	0	0	8147	664178	0	0
2024-06-19 08:24:32			0	35453	0	0	0	25054	23630	146540	27135	1014492	42328	109261	0	0	8151	660595	0	0
2024-06-19 08:25:32			0	35490	0	0	0	25049	23630	146304	27301	1014572	42328	109259	0	0	8154	658960	0	0
2024-06-19 08:26:32			0	35546	0	0	0	25054	23630	146020	27090	1014607	42338	109261	0	0	8156	656490	0	0
2024-06-19 08:27:32			0	35574	0	0	0	25059	23630	145884	27166	1014607	42338	109263	0	0	8158	655258	0	0
2024-06-19 08:28:32			0	35598	0	0	0	25057	23630	145796	27076	1014581	42328	109262	0	0	8159	654203	0	0
2024-06-19 08:29:32			0	35627	0	0	0	25067	23640	145696	27313	1014616	42329	109266	0	0	8161	652893	0	0
2024-06-19 08:30:32			0	35638	0	0	0	25067	23640	145692	27473	1014625	42318	109266	0	0	8161	652411	0	0
2024-06-19 08:31:32			0	35641	0	0	0	25062	23640	145540	27222	1014625	42330	109264	0	0	8161	652280	0	0
2024-06-19 08:32:32			0	35623	0	0	0	25070	23650	145672	27176	1014606	42340	109267	0	0	8160	653032	0	0
2024-06-19 08:33:32			0	35629	0	0	0	25062	23640	145556	27062	1014598	42340	109264	0	0	8161	652806	0	0
2024-06-19 08:34:32			0	35606	0	0	0	25067	23640	145744	27204	1014625	42330	109266	0	0	8160	653815	0	0
2024-06-19 08:35:32			0	35615	0	0	0	25059	23640	145744	27128	1014625	42330	109263	0	0	8160	653420	0	0
2024-06-19 08:36:32			0	35605	0	0	0	25059	23640	145772	27326	1014598	42330	109263	0	0	8160	653859	0	0
2024-06-19 08:37:32			0	35606	0	0	0	25064	23650	145800	27357	1014580	42330	109265	0	0	8160	653778	0	0
2024-06-19 08:38:32			0	35579	0	0	0	25062	23650	145796	27511	1014580	42330	109264	0	0	8158	654964	0	0
2024-06-19 08:39:32			0	35593	0	0	0	25054	23650	145872	27452	1014588	42331	109261	0	0	8159	654349	0	0
2024-06-19 08:40:32			0	35568	0	0	0	25041	23640	145780	27268	1014491	42318	109256	0	0	8158	655485	0	0
2024-06-19 08:41:32			0	35599	0	0	0	25012	23630	145828	27457	1014340	42328	109245	0	0	8160	654159	0	0
2024-06-19 08:42:32			0	35571	0	0	0	24986	23620	145864	27424	1014296	42317	109235	0	0	8159	655427	0	0
2024-06-19 08:43:32			0	35600	0	0	0	24961	23600	145844	27166	1014227	42291	109225	0	0	8161	654226	0	0
2024-06-19 08:44:32			0	35591	0	0	0	24948	23590	145776	27067	1014103	42291	109220	0	0	8160	654658	0	0
2024-06-19 08:45:32			0	35603	0	0	0	24924	23580	145824	27355	1014086	42301	109211	0	0	8162	654167	0	0
2024-06-19 08:46:32			0	35626	0	0	0	24914	23560	145704	27320	1013997	42321	109207	0	0	8163	653231	0	0
2024-06-19 08:47:32			0	35628	0	0	0	24909	23560	145796	27159	1013979	42310	109205	0	0	8163	653144	0	0
2024-06-19 08:48:32			0	35634	0	0	0	24896	23550	145764	26863	1013962	42309	109200	0	0	8164	652917	0	0
2024-06-19 08:49:32			0	35633	0	0	0	24890	23540	145632	27095	1013936	42308	109198	0	0	8164	652998	0	0
2024-06-19 08:50:32			0	35650	0	0	0	24888	23530	145592	27230	1013981	42319	109197	0	0	8164	652289	0	0
2024-06-19 08:51:32			0	35641	0	0	0	24890	23530	145576	27196	1014035	42319	109198	0	0	8164	652683	0	0
2024-06-19 08:52:32			0	35681	0	0	0	24901	23530	145516	27320	1014008	42319	109202	0	0	8166	650931	0	0
2024-06-19 08:53:32			0	35678	0	0	0	24909	23540	145560	27346	1014123	42320	109205	0	0	8166	651025	0	0
2024-06-19 08:54:32			0	35681	0	0	0	24916	23540	145544	27005	1014159	42331	109208	0	0	8166	650894	0	0
2024-06-19 08:55:32			0	35692	0	0	0	24919	23550	145500	27168	1014176	42332	109209	0	0	8166	650376	0	0
2024-06-19 08:56:32			0	35689	0	0	0	24940	23550	145420	27194	1014167	42320	109217	0	0	8166	650507	0	0
2024-06-19 08:57:32			0	35700	0	0	0	24937	23560	145384	27364	1014211	42321	109216	0	0	8166	649990	0	0
2024-06-19 08:58:32			0	35713	0	0	0	24950	23570	145380	27017	1014255	42322	109221	0	0	8167	649385	0	0
2024-06-19 08:59:32			0	35718	0	0	0	24953	23560	145368	27137	1014291	42310	109222	0	0	8167	649203	0	0
2024-06-19 09:00:32			0	35705	0	0	0	24958	23560	145408	27095	1014246	42321	109224	0	0	8166	649771	0	0
2024-06-19 09:01:32			0	35722	0	0	0	24971	23580	145372	27142	1014380	42323	109229	0	0	8167	648955	0	0
2024-06-19 09:02:32			0	35724	0	0	0	24984	23580	145348	26823	1014353	42334	109234	0	0	8167	648868	0	0
2024-06-19 09:03:32			0	35726	0	0	0	25002	23580	145272	27256	1014442	42323	109241	0	0	8167	648780	0	0
2024-06-19 09:04:32			0	35735	0	0	0	24997	23590	145324	27241	1014405	42334	109239	0	0	8167	648351	0	0
2024-06-19 09:05:32			0	35750	0	0	0	25010	23590	145264	27111	1014432	42334	109244	0	0	8168	647697	0	0
2024-06-19 09:06:32			0	35746	0	0	0	25018	23600	145204	27251	1014467	42335	109247	0	0	8168	647835	0	0
2024-06-19 09:07:32			0	35740	0	0	0	25023	23600	145240	27085	1014503	42326	109249	0	0	8167	648096	0	0
2024-06-19 09:08:32			0	35762	0	0	0	25036	23610	145212	27419	1014484	42326	109254	0	0	8168	647101	0	0
2024-06-19 09:09:32			0	35770	0	0	0	25031	23620	145224	26986	1014475	42337	109252	0	0	8169	646716	0	0
2024-06-19 09:10:32			0	35774	0	0	0	25046	23610	145152	27405	1014520	42315	109258	0	0	8169	646578	0	0
2024-06-19 09:11:32			0	35782	0	0	0	25044	23610	145144	27357	1014493	42326	109257	0	0	8169	646229	0	0
2024-06-19 09:12:32			0	35779	0	0	0	25046	23620	145132	27438	1014537	42328	109258	0	0	8169	646324	0	0
2024-06-19 09:13:32			0	35774	0	0	0	25041	23620	145048	27081	1014501	42327	109256	0	0	8169	646542	0	0
2024-06-19 09:14:32			0	35780	0	0	0	25041	23620	145080	27346	1014510	42328	109256	0	0	8169	646280	0	0
2024-06-19 09:15:32			0	35776	0	0	0	25041	23630	145088	27097	1014492	42338	109256	0	0	8169	646418	0	0
2024-06-19 09:16:32			0	35798	0	0	0	25036	23620	145028	27241	1014483	42338	109254	0	0	8170	645497	0	0
2024-06-19 09:17:32			0	35794	0	0	0	25023	23610	144960	27111	1014440	42326	109249	0	0	8170	645707	0	0
2024-06-19 09:18:32			0	35827	0	0	0	25018	23620	144864	27161	1014448	42327	109247	0	0	8172	644236	0	0
2024-06-19 09:19:32			0	35815	0	0	0	25012	23620	144904	27308	1014457	42328	109245	0	0	8172	644758	0	0
2024-06-19 09:20:32			0	35830	0	0	0	25002	23610	144964	27244	1014359	42303	109241	0	0	8172	644142	0	0
2024-06-19 09:21:32			0	35834	0	0	0	24992	23600	144852	27277	1014262	42315	109237	0	0	8173	644005	0	0
2024-06-19 09:22:32			0	35839	0	0	0	24976	23600	144900	27150	1014307	42314	109231	0	0	8173	643787	0	0
2024-06-19 09:23:32			0	35858	0	0	0	24958	23580	144852	27189	1014201	42312	109224	0	0	8175	643035	0	0
2024-06-19 09:24:32			0	35841	0	0	0	24937	23570	144896	27183	1014157	42311	109216	0	0	8174	643809	0	0
2024-06-19 09:25:32			0	35864	0	0	0	24927	23560	144753	27421	1014078	42299	109212	0	0	8175	642847	0	0
2024-06-19 09:26:32			0	35880	0	0	0	24916	23560	144877	27329	1014051	42321	109208	0	0	8176	642153	0	0
2024-06-19 09:27:32			0	35868	0	0	0	24911	23540	144677	27426	1013945	42320	109206	0	0	8176	642746	0	0
2024-06-19 09:28:32			0	35891	0	0	0	24901	23540	144701	27211	1013945	42320	109202	0	0	8177	641749	0	0
2024-06-19 09:29:32			0	35880	0	0	0	24890	23530	144629	27180	1013893	42306	109198	0	0	8177	642262	0	0
2024-06-19 09:30:32			0	35899	0	0	0	24867	23520	144697	27241	1013795	42306	109189	0	0	8178	641475	0	0
2024-06-19 09:31:32			0	35887	0	0	0	24864	23510	144701	27235	1013867	42317	109188	0	0	8177	642030	0	0
2024-06-19 09:32:32			0	35884	0	0	0	24862	23490	144745	27412	1013833	42326	109187	0	0	8177	642233	0	0
2024-06-19 09:33:32			0	35892	0	0	0	24862	23500	144733	27092	1013841	42315	109187	0	0	8178	641850	0	0
2024-06-19 09:34:32			0	35903	0	0	0	24862	23490	144733	27081	1013779	42326	109187	0	0	8178	641409	0	0
2024-06-19 09:35:32			0	35906	0	0	0	24870	23500	144705	27038	1013868	42315	109190	0	0	8178	641243	0	0
2024-06-19 09:36:32			0	35898	0	0	0	24880	23500	144713	27312	1013895	42337	109194	0	0	8178	641590	0	0
2024-06-19 09:37:32			0	35894	0	0	0	24880	23500	144673	27270	1013876	42305	109194	0	0	8177	641763	0	0
2024-06-19 09:38:32			0	35878	0	0	0	24877	23500	144685	27235	1013876	42305	109193	0	0	8177	642457	0	0
2024-06-19 09:39:32			0	35889	0	0	0	24885	23500	144761	27440	1013895	42315	109196	0	0	8177	641980	0	0
2024-06-19 09:40:32			0	35902	0	0	0	24875	23490	144685	27255	1013824	42314	109192	0	0	8178	641453	0	0
2024-06-19 09:41:32			0	35886	0	0	0	24877	23490	144761	27338	1013771	42303	109193	0	0	8177	642146	0	0
2024-06-19 09:42:32			0	35914	0	0	0	24872	23490	144729	27150	1013753	42304	109191	0	0	8179	640933	0	0
2024-06-19 09:43:32			0	35911	0	0	0	24854	23480	144753	27229	1013682	42325	109184	0	0	8179	641099	0	0
2024-06-19 09:44:32			0	35888	0	0	0	24854	23470	144729	27235	1013736	42312	109184	0	0	8177	642131	0	0
2024-06-19 09:45:32			0	35886	0	0	0	24844	23470	144677	27265	1013692	42312	109180	0	0	8178	642218	0	0
2024-06-19 09:46:32			0	35903	0	0	0	24849	23480	144749	27351	1013647	42302	109182	0	0	8178	641445	0	0
2024-06-19 09:47:32			0	35876	0	0	0	24836	23460	144817	27013	1013701	42301	109177	0	0	8177	642688	0	0
2024-06-19 09:48:32			0	35884	0	0	0	24841	23460	144801	26965	1013639	42311	109179	0	0	8177	642341	0	0
2024-06-19 09:49:32			0	35884	0	0	0	24838	23440	144849	26958	1013622	42310	109178	0	0	8177	642413	0	0
2024-06-19 09:50:32			0	35865	0	0	0	24831	23440	144953	27371	1013667	42310	109175	0	0	8176	643238	0	0
2024-06-19 09:51:32			0	35846	0	0	0	24831	23460	144856	27093	1013674	42301	109175	0	0	8176	643990	0	0
2024-06-19 09:52:32			0	35850	0	0	0	24833	23440	144888	27320	1013622	42322	109176	0	0	8176	643889	0	0
2024-06-19 09:53:32			0	35847	0	0	0	24831	23450	145056	27090	1013604	42310	109175	0	0	8176	643983	0	0
2024-06-19 09:54:32			0	35817	0	0	0	24828	23440	145112	26823	1013595	42310	109174	0	0	8174	645323	0	0
2024-06-19 09:55:32			0	35817	0	0	0	24823	23440	145056	27326	1013587	42298	109172	0	0	8174	645323	0	0
2024-06-19 09:56:32			0	35787	0	0	0	24823	23440	145132	27005	1013595	42299	109172	0	0	8172	646630	0	0
2024-06-19 09:57:32			0	35792	0	0	0	24831	23430	145160	27460	1013578	42310	109175	0	0	8173	646448	0	0
2024-06-19 09:58:32			0	35777	0	0	0	24828	23430	145196	27268	1013516	42287	109174	0	0	8172	647102	0	0
2024-06-19 09:59:32			0	35768	0	0	0	24831	23440	145244	27168	1013560	42321	109175	0	0	8171	647458	0	0
2024-06-19 10:00:32			0	35745	0	0	0	24825	23430	145332	27088	1013605	42321	109173	0	0	8170	648498	0	0
2024-06-19 10:01:32			0	35730	0	0	0	24825	23430	145388	27010	1013578	42298	109173	0	0	8169	649153	0	0
2024-06-19 10:02:32			0	35714	0	0	0	24828	23420	145472	27067	1013587	42297	109174	0	0	8168	649889	0	0
2024-06-19 10:03:32			0	35692	0	0	0	24825	23430	145468	27104	1013631	42298	109173	0	0	8167	650815	0	0
2024-06-19 10:04:32			0	35684	0	0	0	24836	23430	145592	27274	1013605	42310	109177	0	0	8167	651165	0	0
2024-06-19 10:05:32			0	35649	0	0	0	24836	23430	145712	27274	1013685	42298	109177	0	0	8165	652699	0	0
2024-06-19 10:06:32			0	35630	0	0	0	24836	23430	145692	27053	1013658	42321	109177	0	0	8164	653533	0	0
2024-06-19 10:07:32			0	35621	0	0	0	24833	23430	145848	27395	1013649	42309	109176	0	0	8163	653928	0	0
2024-06-19 10:08:32			0	35605	0	0	0	24831	23420	145864	27353	1013641	42309	109175	0	0	8162	654668	0	0
2024-06-19 10:09:32			0	35584	0	0	0	24838	23430	145972	27450	1013605	42310	109178	0	0	8161	655555	0	0
2024-06-19 10:10:32			0	35568	0	0	0	24841	23430	146100	27460	1013578	42310	109179	0	0	8160	656259	0	0
2024-06-19 10:11:32			0	35556	0	0	0	24836	23430	146140	27346	1013605	42321	109177	0	0	8160	656788	0	0
2024-06-19 10:12:32			0	35539	0	0	0	24833	23430	146136	27526	1013543	42320	109176	0	0	8159	657537	0	0
2024-06-19 10:13:32			0	35517	0	0	0	24833	23430	146240	27351	1013578	42321	109176	0	0	8158	658508	0	0
2024-06-19 10:14:32			0	35488	0	0	0	24838	23430	146384	27171	1013543	42320	109178	0	0	8156	659790	0	0
2024-06-19 10:15:32			0	35487	0	0	0	24838	23430	146388	27267	1013596	42309	109178	0	0	8156	659834	0	0
2024-06-19 10:16:32			0	35477	0	0	0	24846	23440	146496	27332	1013702	42310	109181	0	0	8155	660239	0	0
2024-06-19 10:17:32			0	35465	0	0	0	24846	23440	146516	27384	1013694	42310	109181	0	0	8155	660770	0	0
2024-06-19 10:18:32			0	35423	0	0	0	24851	23440	146576	27306	1013694	42310	109183	0	0	8152	662631	0	0
2024-06-19 10:19:32			0	35425	0	0	0	24849	23440	146604	27467	1013694	42310	109182	0	0	8153	662542	0	0
2024-06-19 10:20:32			0	35410	0	0	0	24854	23440	146644	27402	1013694	42321	109184	0	0	8152	663207	0	0
2024-06-19 10:21:32			0	35416	0	0	0	24849	23440	146656	27390	1013694	42321	109182	0	0	8152	662941	0	0
2024-06-19 10:22:32			0	35391	0	0	0	24859	23440	146816	26857	1013694	42310	109186	0	0	8151	664051	0	0
2024-06-19 10:23:32			0	35385	0	0	0	24859	23440	146752	27370	1013756	42310	109186	0	0	8150	664318	0	0
2024-06-19 10:24:32			0	35368	0	0	0	24854	23440	146808	27296	1013702	42322	109184	0	0	8149	665073	0	0
2024-06-19 10:25:32			0	35360	0	0	0	24862	23440	146832	27059	1013675	42322	109187	0	0	8149	665429	0	0
2024-06-19 10:26:32			0	35345	0	0	0	24851	23440	146908	27374	1013702	42299	109183	0	0	8148	666097	0	0
2024-06-19 10:27:32			0	35349	0	0	0	24854	23450	146864	26923	1013764	42310	109184	0	0	8148	665881	0	0
2024-06-19 10:28:32			0	35327	0	0	0	24851	23450	146972	27256	1013711	42299	109183	0	0	8147	666861	0	0
2024-06-19 10:29:32			0	35340	0	0	0	24857	23440	146860	26955	1013649	42310	109185	0	0	8148	666319	0	0
2024-06-19 10:30:32			0	35314	0	0	0	24849	23460	146960	27007	1013693	42311	109182	0	0	8147	667403	0	0
2024-06-19 10:31:32			0	35313	0	0	0	24833	23430	146956	27123	1013631	42298	109176	0	0	8147	667560	0	0
2024-06-19 10:32:32			0	35294	0	0	0	24831	23430	147100	26793	1013605	42310	109175	0	0	8146	668408	0	0
2024-06-19 10:33:32			0	35305	0	0	0	24818	23430	147072	27202	1013569	42297	109170	0	0	8147	667917	0	0
2024-06-19 10:34:32			0	35295	0	0	0	24815	23420	147120	27121	1013534	42309	109169	0	0	8146	668401	0	0
2024-06-19 10:35:32			0	35270	0	0	0	24805	23410	147240	27476	1013517	42286	109165	0	0	8145	669555	0	0
2024-06-19 10:36:32			0	35280	0	0	0	24797	23410	147208	27081	1013517	42319	109162	0	0	8145	669108	0	0
2024-06-19 10:37:32			0	35288	0	0	0	24792	23420	147248	27003	1013525	42286	109160	0	0	8146	668713	0	0
2024-06-19 10:38:32			0	35280	0	0	0	24789	23400	147104	27305	1013500	42294	109159	0	0	8146	669146	0	0
2024-06-19 10:39:32			0	35265	0	0	0	24786	23400	147152	27275	1013438	42306	109158	0	0	8145	669816	0	0
2024-06-19 10:40:32			0	35271	0	0	0	24794	23410	147172	27268	1013463	42308	109161	0	0	8145	669510	0	0
2024-06-19 10:41:32			0	35259	0	0	0	24794	23410	147248	27488	1013517	42308	109161	0	0	8144	670047	0	0
2024-06-19 10:42:32			0	35238	0	0	0	24797	23400	147256	27197	1013518	42317	109162	0	0	8143	671024	0	0
2024-06-19 10:43:32			0	35268	0	0	0	24784	23410	147284	27255	1013455	42295	109157	0	0	8145	669644	0	0
2024-06-19 10:44:32			0	35243	0	0	0	24774	23390	147236	27183	1013403	42306	109153	0	0	8144	670838	0	0
2024-06-19 10:45:32			0	35253	0	0	0	24776	23390	147380	27119	1013376	42317	109154	0	0	8144	670390	0	0
2024-06-19 10:46:32			0	35235	0	0	0	24768	23390	147492	27391	1013367	42316	109151	0	0	8143	671196	0	0
2024-06-19 10:47:32			0	35229	0	0	0	24768	23380	147416	26915	1013359	42304	109151	0	0	8143	671502	0	0
2024-06-19 10:48:32			0	35241	0	0	0	24761	23380	147396	27253	1013350	42304	109148	0	0	8144	670965	0	0
2024-06-19 10:49:32			0	35236	0	0	0	24768	23390	147360	27078	1013447	42305	109151	0	0	8143	671151	0	0
2024-06-19 10:50:32			0	35225	0	0	0	24768	23370	147392	27071	1013315	42304	109151	0	0	8143	671719	0	0
2024-06-19 10:51:32			0	35225	0	0	0	24761	23370	147508	26830	1013306	42303	109148	0	0	8143	671719	0	0
2024-06-19 10:52:32			0	35231	0	0	0	24766	23370	147408	27325	1013395	42304	109150	0	0	8143	671451	0	0
2024-06-19 10:53:32			0	35233	0	0	0	24781	23380	147424	27206	1013404	42304	109156	0	0	8143	671323	0	0
2024-06-19 10:54:32			0	35223	0	0	0	24776	23380	147492	27232	1013404	42293	109154	0	0	8143	671771	0	0
2024-06-19 10:55:32			0	35217	0	0	0	24768	23370	147396	26970	1013386	42303	109151	0	0	8142	672078	0	0
2024-06-19 10:56:32			0	35236	0	0	0	24774	23370	147448	27249	1013386	42292	109153	0	0	8143	671227	0	0
2024-06-19 10:57:32			0	35218	0	0	0	24779	23370	147468	27064	1013395	42304	109155	0	0	8142	672033	0	0
2024-06-19 10:58:32			0	35210	0	0	0	24797	23380	147468	26986	1013404	42304	109162	0	0	8142	672354	0	0
2024-06-19 10:59:32			0	35210	0	0	0	24784	23380	147452	26948	1013430	42304	109157	0	0	8142	672354	0	0
2024-06-19 11:00:32			0	35236	0	0	0	24786	23380	147356	27289	1013359	42304	109158	0	0	8143	671189	0	0
2024-06-19 11:01:32			0	35239	0	0	0	24779	23380	147372	27085	1013350	42293	109155	0	0	8143	671055	0	0
2024-06-19 11:02:32			0	35240	0	0	0	24771	23380	147312	27140	1013350	42304	109152	0	0	8144	671010	0	0
2024-06-19 11:03:32			0	35230	0	0	0	24766	23370	147364	27312	1013315	42293	109150	0	0	8143	671495	0	0
2024-06-19 11:04:32			0	35237	0	0	0	24753	23370	147304	27490	1013342	42293	109145	0	0	8144	671182	0	0
2024-06-19 11:05:32			0	35271	0	0	0	24758	23370	147284	27163	1013253	42314	109147	0	0	8145	669661	0	0
2024-06-19 11:06:32			0	35240	0	0	0	24753	23360	147364	27208	1013324	42313	109145	0	0	8144	671085	0	0
2024-06-19 11:07:32			0	35274	0	0	0	24753	23360	147328	27322	1013271	42302	109145	0	0	8146	669564	0	0
2024-06-19 11:08:32			0	35273	0	0	0	24753	23360	147292	27177	1013289	42313	109145	0	0	8146	669609	0	0
2024-06-19 11:09:32			0	35273	0	0	0	24755	23360	147288	26951	1013271	42313	109146	0	0	8146	669609	0	0
2024-06-19 11:10:32			0	35283	0	0	0	24745	23350	147260	27019	1013281	42312	109142	0	0	8146	669200	0	0
2024-06-19 11:11:32			0	35289	0	0	0	24753	23360	147240	27112	1013316	42313	109145	0	0	8146	668894	0	0
2024-06-19 11:12:32			0	35292	0	0	0	24758	23350	147280	26826	1013334	42312	109147	0	0	8147	668798	0	0
2024-06-19 11:13:32			0	35286	0	0	0	24766	23360	147232	27079	1013298	42313	109150	0	0	8146	669028	0	0
2024-06-19 11:14:32			0	35287	0	0	0	24768	23360	147188	27320	1013298	42313	109151	0	0	8146	668983	0	0
2024-06-19 11:15:32			0	35312	0	0	0	24761	23360	147148	27223	1013316	42302	109148	0	0	8148	667867	0	0
2024-06-19 11:16:32			0	35308	0	0	0	24776	23360	147060	26928	1013343	42313	109154	0	0	8147	668046	0	0
2024-06-19 11:17:32			0	35310	0	0	0	24776	23360	147156	27256	1013298	42302	109154	0	0	8147	667956	0	0
2024-06-19 11:18:32			0	35343	0	0	0	24774	23360	147164	27246	1013396	42302	109153	0	0	8149	666485	0	0
2024-06-19 11:19:32			0	35318	0	0	0	24781	23360	147124	27185	1013396	42313	109156	0	0	8148	667600	0	0
2024-06-19 11:20:32			0	35327	0	0	0	24792	23370	147056	27161	1013386	42314	109160	0	0	8148	667161	0	0
2024-06-19 11:21:32			0	35345	0	0	0	24786	23360	147128	27201	1013431	42313	109158	0	0	8149	666396	0	0
2024-06-19 11:22:32			0	35346	0	0	0	24789	23370	147112	26998	1013413	42314	109159	0	0	8149	666314	0	0
2024-06-19 11:23:32			0	35332	0	0	0	24789	23370	146992	26927	1013422	42315	109159	0	0	8148	666938	0	0
2024-06-19 11:24:32			0	35353	0	0	0	24789	23380	146932	27176	1013430	42315	109159	0	0	8149	665965	0	0
2024-06-19 11:25:32			0	35350	0	0	0	24789	23370	146928	27229	1013333	42303	109159	0	0	8149	666136	0	0
2024-06-19 11:26:32			0	35347	0	0	0	24789	23380	146948	27275	1013439	42315	109159	0	0	8149	666232	0	0
2024-06-19 11:27:32			0	35365	0	0	0	24786	23370	146952	27232	1013448	42315	109158	0	0	8150	665468	0	0
2024-06-19 11:28:32			0	35359	0	0	0	24799	23390	146916	27183	1013447	42305	109163	0	0	8150	665661	0	0
2024-06-19 11:29:32			0	35367	0	0	0	24799	23380	146836	27412	1013465	42304	109163	0	0	8150	665342	0	0
2024-06-19 11:30:32			0	35373	0	0	0	24805	23380	146808	27159	1013465	42304	109165	0	0	8150	665075	0	0
2024-06-19 11:31:32			0	35385	0	0	0	24815	23390	146768	27391	1013501	42316	109169	0	0	8151	664504	0	0
2024-06-19 11:32:32			0	35389	0	0	0	24805	23390	146780	26906	1013527	42316	109165	0	0	8151	664327	0	0
2024-06-19 11:33:32			0	35412	0	0	0	24805	23390	146792	27166	1013554	42316	109165	0	0	8152	663305	0	0
2024-06-19 11:34:32			0	35407	0	0	0	24818	23400	146792	26720	1013545	42317	109170	0	0	8152	663490	0	0
2024-06-19 11:35:32			0	35407	0	0	0	24818	23400	146812	27067	1013633	42317	109170	0	0	8152	663490	0	0
2024-06-19 11:36:32			0	35394	0	0	0	24823	23410	146704	27300	1013615	42307	109172	0	0	8151	664030	0	0
2024-06-19 11:37:32			0	35408	0	0	0	24820	23410	146760	26883	1013597	42319	109171	0	0	8152	663408	0	0
2024-06-19 11:38:32			0	35407	0	0	0	24828	23400	146812	27216	1013545	42317	109174	0	0	8152	663490	0	0
2024-06-19 11:39:32			0	35422	0	0	0	24836	23420	146756	27161	1013659	42319	109177	0	0	8153	662750	0	0
2024-06-19 11:40:32			0	35419	0	0	0	24846	23420	146768	26987	1013668	42320	109181	0	0	8152	662883	0	0
2024-06-19 11:41:32			0	35422	0	0	0	24867	23420	146624	27249	1013686	42319	109189	0	0	8152	662750	0	0
2024-06-19 11:42:32			0	35405	0	0	0	24875	23430	146604	26864	1013729	42331	109192	0	0	8151	663467	0	0
2024-06-19 11:43:32			0	35417	0	0	0	24872	23430	146592	27294	1013765	42332	109191	0	0	8152	662934	0	0
2024-06-19 11:44:32			0	35426	0	0	0	24864	23430	146608	27251	1013845	42321	109188	0	0	8152	662535	0	0
2024-06-19 11:45:32			0	35429	0	0	0	24888	23460	146640	27175	1013826	42344	109197	0	0	8152	662290	0	0
2024-06-19 11:46:32			0	35444	0	0	0	24903	23460	146584	27173	1013941	42345	109203	0	0	8153	661625	0	0
2024-06-19 11:47:32			0	35413	0	0	0	24906	23460	146564	27045	1013888	42324	109204	0	0	8151	663000	0	0
2024-06-19 11:48:32			0	35439	0	0	0	24914	23470	146572	27201	1013870	42334	109207	0	0	8152	661810	0	0
2024-06-19 11:49:32			0	35433	0	0	0	24911	23490	146544	27062	1013904	42325	109206	0	0	8152	662001	0	0
2024-06-19 11:50:32			0	35442	0	0	0	24906	23490	146492	27163	1013913	42326	109204	0	0	8153	661602	0	0
2024-06-19 11:51:32			0	35458	0	0	0	24914	23480	146448	27199	1013896	42336	109207	0	0	8153	660931	0	0
2024-06-19 11:52:32			0	35447	0	0	0	24909	23490	146564	27150	1013958	42314	109205	0	0	8153	661381	0	0
2024-06-19 11:53:32			0	35460	0	0	0	24911	23490	146532	27157	1013939	42337	109206	0	0	8154	660805	0	0
2024-06-19 11:54:32			0	35449	0	0	0	24922	23490	146536	27194	1014011	42325	109210	0	0	8153	661292	0	0
2024-06-19 11:55:32			0	35434	0	0	0	24922	23510	146556	27258	1014125	42316	109210	0	0	8152	661883	0	0
2024-06-19 11:56:32			0	35441	0	0	0	24927	23510	146544	27261	1014081	42317	109212	0	0	8152	661572	0	0
2024-06-19 11:57:32			0	35458	0	0	0	24948	23510	146408	27300	1014161	42338	109220	0	0	8153	660820	0	0
2024-06-19 11:58:32			0	35479	0	0	0	24945	23520	146372	27251	1014116	42317	109219	0	0	8154	659854	0	0
2024-06-19 11:59:32			0	35463	0	0	0	24950	23520	146376	27209	1014143	42338	109221	0	0	8153	660561	0	0
2024-06-19 12:00:32			0	35469	0	0	0	24958	23520	146420	27208	1014223	42317	109224	0	0	8153	660296	0	0
2024-06-19 12:01:32			0	35468	0	0	0	24948	23530	146396	27320	1014186	42329	109220	0	0	8154	660303	0	0
2024-06-19 12:02:32			0	35461	0	0	0	24937	23530	146372	27050	1014213	42329	109216	0	0	8153	660613	0	0
2024-06-19 12:03:32			0	35481	0	0	0	24942	23530	146324	27310	1014186	42339	109218	0	0	8154	659728	0	0
2024-06-19 12:04:32			0	35480	0	0	0	24953	23540	146328	27235	1014212	42341	109222	0	0	8154	659735	0	0
2024-06-19 12:05:32			0	35472	0	0	0	24953	23530	146352	27447	1014213	42329	109222	0	0	8154	660126	0	0
2024-06-19 12:06:32			0	35502	0	0	0	24961	23540	146288	27034	1014257	42320	109225	0	0	8155	658763	0	0
2024-06-19 12:07:32			0	35490	0	0	0	24961	23550	146320	27140	1014229	42320	109225	0	0	8155	659256	0	0
2024-06-19 12:08:32			0	35493	0	0	0	24961	23550	146352	27222	1014221	42331	109225	0	0	8155	659124	0	0
2024-06-19 12:09:32			0	35499	0	0	0	24966	23550	146376	27281	1014221	42331	109227	0	0	8155	658859	0	0
2024-06-19 12:10:32			0	35508	0	0	0	24961	23550	146284	27383	1014167	42341	109225	0	0	8156	658461	0	0
2024-06-19 12:11:32			0	35499	0	0	0	24955	23540	146344	26974	1014159	42331	109223	0	0	8155	658896	0	0
2024-06-19 12:12:32			0	35503	0	0	0	24945	23550	146272	27345	1014167	42320	109219	0	0	8156	658682	0	0
2024-06-19 12:13:32			0	35493	0	0	0	24942	23540	146276	27145	1014105	42320	109218	0	0	8155	659161	0	0
2024-06-19 12:14:32			0	35507	0	0	0	24945	23550	146304	27053	1014221	42331	109219	0	0	8156	658506	0	0
2024-06-19 12:15:32			0	35498	0	0	0	24950	23540	146200	27327	1014185	42331	109221	0	0	8155	658940	0	0
2024-06-19 12:16:32			0	35524	0	0	0	24955	23550	146172	27281	1014247	42331	109223	0	0	8157	657755	0	0
2024-06-19 12:17:32			0	35527	0	0	0	24992	23570	146220	27357	1014362	42355	109237	0	0	8156	657549	0	0
2024-06-19 12:18:32			0	35527	0	0	0	25010	23570	146144	27543	1014389	42333	109244	0	0	8156	657549	0	0
2024-06-19 12:19:32			0	35547	0	0	0	25018	23580	146112	27301	1014406	42345	109247	0	0	8157	656631	0	0
2024-06-19 12:20:32			0	35540	0	0	0	25015	23590	146216	27291	1014450	42334	109246	0	0	8157	656902	0	0
2024-06-19 12:21:32			0	35548	0	0	0	25028	23590	146092	26951	1014530	42357	109251	0	0	8157	656550	0	0
2024-06-19 12:22:32			0	35556	0	0	0	25041	23600	146108	27112	1014547	42347	109256	0	0	8157	656161	0	0
2024-06-19 12:23:32			0	35560	0	0	0	25054	23600	145940	27088	1014529	42336	109261	0	0	8157	655984	0	0
2024-06-19 12:24:32			0	35554	0	0	0	25064	23620	145964	27197	1014662	42349	109265	0	0	8157	656175	0	0
2024-06-19 12:25:32			0	35559	0	0	0	25059	23620	145940	27093	1014697	42338	109263	0	0	8157	655955	0	0
2024-06-19 12:26:32			0	35561	0	0	0	25064	23620	145964	27066	1014662	42349	109265	0	0	8157	655867	0	0
2024-06-19 12:27:32			0	35575	0	0	0	25070	23630	145940	26771	1014706	42338	109267	0	0	8158	655214	0	0
2024-06-19 12:28:32			0	35581	0	0	0	25083	23630	145892	26873	1014741	42349	109272	0	0	8158	654950	0	0
2024-06-19 12:29:32			0	35587	0	0	0	25098	23630	145892	26812	1014741	42349	109278	0	0	8158	654686	0	0
2024-06-19 12:30:32			0	35589	0	0	0	25088	23650	145788	27142	1014740	42340	109274	0	0	8158	654525	0	0
2024-06-19 12:31:32			0	35598	0	0	0	25098	23640	145840	27173	1014750	42339	109278	0	0	8159	654166	0	0
2024-06-19 12:32:32			0	35586	0	0	0	25088	23650	145800	27138	1014802	42341	109274	0	0	8158	654657	0	0
2024-06-19 12:33:32			0	35620	0	0	0	25096	23650	145796	27227	1014793	42351	109277	0	0	8160	653164	0	0
2024-06-19 12:34:32			0	35607	0	0	0	25098	23660	145768	26920	1014872	42353	109278	0	0	8159	653698	0	0
2024-06-19 12:35:32			0	35631	0	0	0	25096	23660	145648	27187	1014837	42352	109277	0	0	8160	652644	0	0
2024-06-19 12:36:32			0	35649	0	0	0	25111	23660	145608	27272	1014872	42342	109283	0	0	8161	651856	0	0
2024-06-19 12:37:32			0	35642	0	0	0	25109	23670	145680	27450	1014881	42365	109282	0	0	8161	652126	0	0
2024-06-19 12:38:32			0	35643	0	0	0	25122	23670	145644	27289	1014890	42354	109287	0	0	8161	652082	0	0
2024-06-19 12:39:32			0	35653	0	0	0	25114	23680	145624	27395	1014933	42355	109284	0	0	8161	651607	0	0
2024-06-19 12:40:32			0	35644	0	0	0	25124	23680	145524	27414	1014933	42366	109288	0	0	8161	652001	0	0
2024-06-19 12:41:32			0	35666	0	0	0	25122	23690	145588	27365	1014942	42356	109287	0	0	8162	651001	0	0
2024-06-19 12:42:32			0	35665	0	0	0	25135	23690	145520	27159	1014996	42356	109292	0	0	8162	651045	0	0
2024-06-19 12:43:32			0	35660	0	0	0	25142	23700	145516	27137	1014960	42367	109295	0	0	8161	651227	0	0
2024-06-19 12:44:32			0	35659	0	0	0	25153	23700	145432	27313	1015102	42357	109299	0	0	8161	651271	0	0
2024-06-19 12:45:32			0	35675	0	0	0	25148	23700	145380	27216	1014968	42357	109297	0	0	8162	650571	0	0
2024-06-19 12:46:32			0	35694	0	0	0	25155	23710	145416	27357	1015065	42335	109300	0	0	8163	649704	0	0
2024-06-19 12:47:32			0	35691	0	0	0	25127	23700	145412	27268	1015048	42346	109289	0	0	8163	649871	0	0
2024-06-19 12:48:32			0	35705	0	0	0	25135	23710	145392	26967	1015030	42346	109292	0	0	8164	649223	0	0
2024-06-19 12:49:32			0	35706	0	0	0	25119	23700	145232	27034	1014915	42357	109286	0	0	8164	649216	0	0
2024-06-19 12:50:32			0	35699	0	0	0	25122	23700	145304	27029	1015048	42346	109287	0	0	8164	649522	0	0
2024-06-19 12:51:32			0	35716	0	0	0	25137	23700	145244	27334	1015048	42346	109293	0	0	8164	648779	0	0
2024-06-19 12:52:32			0	35709	0	0	0	25153	23720	145256	27298	1015083	42370	109299	0	0	8164	649012	0	0
2024-06-19 12:53:32			0	35735	0	0	0	25163	23730	145216	26710	1015118	42360	109303	0	0	8165	647841	0	0
2024-06-19 12:54:32			0	35746	0	0	0	25158	23730	145160	27274	1015064	42348	109301	0	0	8166	647361	0	0
2024-06-19 12:55:32			0	35743	0	0	0	25155	23740	145144	26854	1015162	42349	109300	0	0	8166	647455	0	0
2024-06-19 12:56:32			0	35759	0	0	0	25155	23730	145124	26974	1015100	42360	109300	0	0	8167	646795	0	0
2024-06-19 12:57:32			0	35764	0	0	0	25153	23720	145160	27352	1015136	42370	109299	0	0	8167	646613	0	0
2024-06-19 12:58:32			0	35771	0	0	0	25148	23740	145044	27322	1015162	42349	109297	0	0	8167	646236	0	0
2024-06-19 12:59:32			0	35789	0	0	0	25145	23720	145028	27116	1015109	42347	109296	0	0	8168	645525	0	0
2024-06-19 13:00:32			0	35776	0	0	0	25142	23720	144996	27187	1015056	42359	109295	0	0	8168	646091	0	0
2024-06-19 13:01:32			0	35782	0	0	0	25129	23720	144980	27159	1015136	42336	109290	0	0	8168	645830	0	0
2024-06-19 13:02:32			0	35813	0	0	0	25137	23730	144972	27121	1015126	42372	109293	0	0	8170	644446	0	0
2024-06-19 13:03:32			0	35811	0	0	0	25163	23740	144880	26882	1015215	42338	109303	0	0	8169	644496	0	0
2024-06-19 13:04:32			0	35824	0	0	0	25166	23750	144792	27116	1015179	42350	109304	0	0	8170	643895	0	0
2024-06-19 13:05:32			0	35823	0	0	0	25173	23750	144808	27397	1015206	42361	109307	0	0	8170	643939	0	0
2024-06-19 13:06:32			0	35836	0	0	0	25168	23750	144792	26948	1015197	42349	109305	0	0	8171	643374	0	0
2024-06-19 13:07:32			0	35848	0	0	0	25163	23760	144740	26993	1015187	42374	109303	0	0	8171	642818	0	0
2024-06-19 13:08:32			0	35840	0	0	0	25155	23750	144700	27234	1015144	42349	109300	0	0	8171	643201	0	0
2024-06-19 13:09:32			0	35850	0	0	0	25148	23750	144716	26897	1015144	42349	109297	0	0	8172	642767	0	0
2024-06-19 13:10:32			0	35874	0	0	0	25161	23750	144769	27261	1015170	42360	109302	0	0	8173	641727	0	0
2024-06-19 13:11:32			0	35878	0	0	0	25158	23750	144729	26982	1015144	42349	109301	0	0	8173	641554	0	0
2024-06-19 13:12:32			0	35863	0	0	0	25158	23750	144729	26913	1015179	42361	109301	0	0	8172	642204	0	0
2024-06-19 13:13:32			0	35883	0	0	0	25166	23730	144613	26989	1015180	42360	109304	0	0	8173	641410	0	0
2024-06-19 13:14:32			0	35879	0	0	0	25173	23760	144629	27467	1015249	42362	109307	0	0	8173	641474	0	0
2024-06-19 13:15:32			0	35897	0	0	0	25168	23760	144437	27192	1015268	42362	109305	0	0	8174	640695	0	0
2024-06-19 13:16:32			0	35906	0	0	0	25163	23760	144549	27237	1015241	42351	109303	0	0	8174	640306	0	0
2024-06-19 13:17:32			0	35934	0	0	0	25173	23760	144425	27081	1015303	42362	109307	0	0	8176	639096	0	0
2024-06-19 13:18:32			0	35915	0	0	0	25184	23760	144413	27005	1015303	42351	109311	0	0	8175	639917	0	0
2024-06-19 13:19:32			0	35922	0	0	0	25197	23770	144401	27199	1015285	42362	109316	0	0	8175	639578	0	0
2024-06-19 13:20:32			0	35938	0	0	0	25194	23770	144373	27386	1015267	42352	109315	0	0	8176	638887	0	0
2024-06-19 13:21:32			0	35931	0	0	0	25189	23760	144233	27105	1015294	42362	109313	0	0	8175	639226	0	0
2024-06-19 13:22:32			0	35942	0	0	0	25186	23770	144213	27149	1015320	42363	109312	0	0	8176	638715	0	0
2024-06-19 13:23:32			0	35958	0	0	0	25186	23770	144313	27029	1015347	42363	109312	0	0	8177	638024	0	0
2024-06-19 13:24:32			0	35973	0	0	0	25205	23780	144249	26967	1015417	42364	109319	0	0	8177	637342	0	0
2024-06-19 13:25:32			0	35974	0	0	0	25202	23790	144297	27112	1015453	42353	109318	0	0	8178	637263	0	0
2024-06-19 13:26:32			0	35973	0	0	0	25215	23780	144261	27128	1015444	42364	109323	0	0	8177	637342	0	0
2024-06-19 13:27:32			0	35978	0	0	0	25218	23790	144277	26911	1015435	42365	109324	0	0	8178	637090	0	0
2024-06-19 13:28:32			0	36007	0	0	0	25228	23800	144089	27206	1015425	42367	109328	0	0	8179	635806	0	0
2024-06-19 13:29:32			0	35987	0	0	0	25244	23800	144181	27128	1015532	42377	109334	0	0	8178	636667	0	0
2024-06-19 13:30:32			0	36001	0	0	0	25241	23800	144089	27033	1015505	42367	109333	0	0	8178	636064	0	0
2024-06-19 13:31:32			0	36010	0	0	0	25220	23810	144069	27393	1015514	42367	109325	0	0	8179	635641	0	0
2024-06-19 13:32:32			0	36017	0	0	0	25231	23810	144041	26939	1015407	42377	109329	0	0	8179	635340	0	0
2024-06-19 13:33:32			0	36008	0	0	0	25231	23810	144049	26932	1015469	42377	109329	0	0	8179	635727	0	0
2024-06-19 13:34:32			0	36027	0	0	0	25233	23810	144109	27126	1015522	42377	109330	0	0	8180	634910	0	0
2024-06-19 13:35:32			0	36020	0	0	0	25236	23810	144109	27183	1015496	42377	109331	0	0	8180	635211	0	0
2024-06-19 13:36:32			0	36025	0	0	0	25236	23800	144161	26948	1015505	42356	109331	0	0	8180	635032	0	0
2024-06-19 13:37:32			0	36054	0	0	0	25238	23820	143973	27088	1015540	42357	109332	0	0	8181	633715	0	0
2024-06-19 13:38:32			0	36044	0	0	0	25236	23820	143969	27119	1015593	42369	109331	0	0	8181	634144	0	0
2024-06-19 13:39:32			0	36047	0	0	0	25241	23810	143985	26949	1015549	42367	109333	0	0	8181	634051	0	0
2024-06-19 13:40:32			0	36044	0	0	0	25238	23810	143933	27324	1015576	42367	109332	0	0	8181	634180	0	0
2024-06-19 13:41:32			0	36067	0	0	0	25246	23830	143881	26880	1015602	42357	109335	0	0	8182	633121	0	0
2024-06-19 13:42:32			0	36052	0	0	0	25249	23830	143865	26944	1015602	42379	109336	0	0	8181	633765	0	0
2024-06-19 13:43:32			0	36080	0	0	0	25246	23840	143845	27157	1015592	42380	109335	0	0	8183	632528	0	0
2024-06-19 13:44:32			0	36058	0	0	0	25254	23830	143777	27336	1015530	42357	109338	0	0	8181	633507	0	0
2024-06-19 13:45:32			0	36068	0	0	0	25249	23840	143745	27183	1015619	42370	109336	0	0	8182	633043	0	0
2024-06-19 13:46:32			0	36086	0	0	0	25262	23840	143665	26958	1015547	42371	109341	0	0	8183	632271	0	0
2024-06-19 13:47:32			0	36075	0	0	0	25254	23840	143741	27133	1015654	42371	109338	0	0	8182	632742	0	0
2024-06-19 13:48:32			0	36085	0	0	0	25270	23850	143733	27293	1015636	42371	109344	0	0	8183	632278	0	0
2024-06-19 13:49:32			0	36089	0	0	0	25280	23850	143689	27261	1015770	42359	109348	0	0	8183	632107	0	0
2024-06-19 13:50:32			0	36093	0	0	0	25283	23860	143621	26951	1015733	42382	109349	0	0	8183	631900	0	0
2024-06-19 13:51:32			0	36097	0	0	0	25290	23860	143661	27215	1015707	42393	109352	0	0	8183	631728	0	0
2024-06-19 13:52:32			0	36119	0	0	0	25296	23870	143605	27241	1015831	42384	109354	0	0	8184	630751	0	0
2024-06-19 13:53:32			0	36113	0	0	0	25301	23860	143533	27289	1015795	42361	109356	0	0	8184	631044	0	0
2024-06-19 13:54:32			0	36127	0	0	0	25298	23870	143489	27055	1015857	42362	109355	0	0	8184	630409	0	0
2024-06-19 13:55:32			0	36131	0	0	0	25293	23870	143441	26779	1015839	42351	109353	0	0	8185	630238	0	0
2024-06-19 13:56:32			0	36138	0	0	0	25298	23880	143453	27208	1015821	42362	109355	0	0	8185	629903	0	0
2024-06-19 13:57:32			0	36130	0	0	0	25303	23870	143501	27130	1015866	42384	109357	0	0	8184	630281	0	0
2024-06-19 13:58:32			0	36143	0	0	0	25311	23890	143433	27059	1015865	42386	109360	0	0	8185	629654	0	0
2024-06-19 13:59:32			0	36145	0	0	0	25306	23890	143385	26932	1015900	42386	109358	0	0	8185	629569	0	0
2024-06-19 14:00:32			0	36152	0	0	0	25311	23880	143389	27211	1015830	42374	109360	0	0	8186	629305	0	0
2024-06-19 14:01:32			0	36163	0	0	0	25306	23880	143337	27038	1015830	42352	109358	0	0	8186	628836	0	0
2024-06-19 14:02:32			0	36141	0	0	0	25309	23890	143405	27149	1015865	42375	109359	0	0	8185	629740	0	0
2024-06-19 14:03:32			0	36171	0	0	0	25316	23890	143317	26837	1015945	42375	109362	0	0	8187	628459	0	0
2024-06-19 14:04:32			0	36181	0	0	0	25316	23890	143253	27362	1015954	42375	109362	0	0	8187	628032	0	0
2024-06-19 14:05:32			0	36173	0	0	0	25306	23890	143401	27202	1015838	42364	109358	0	0	8187	628373	0	0
2024-06-19 14:06:32			0	36185	0	0	0	25316	23890	143329	26991	1015900	42375	109362	0	0	8187	627862	0	0
2024-06-19 14:07:32			0	36185	0	0	0	25306	23900	143269	27251	1015882	42375	109358	0	0	8187	627826	0	0
2024-06-19 14:08:32			0	36195	0	0	0	25314	23890	143273	27202	1015820	42375	109361	0	0	8188	627436	0	0
2024-06-19 14:09:32			0	36170	0	0	0	25306	23900	143297	27357	1015882	42386	109358	0	0	8187	628466	0	0
2024-06-19 14:10:32			0	36202	0	0	0	25303	23900	143337	27026	1015882	42364	109357	0	0	8188	627102	0	0
2024-06-19 14:11:32			0	36192	0	0	0	25301	23890	143293	27424	1015847	42386	109356	0	0	8188	627563	0	0
2024-06-19 14:12:32			0	36206	0	0	0	25303	23890	143253	27197	1015892	42375	109357	0	0	8189	626967	0	0
2024-06-19 14:13:32			0	36195	0	0	0	25303	23900	143181	27192	1015962	42375	109357	0	0	8188	627400	0	0
2024-06-19 14:14:32			0	36200	0	0	0	25311	23900	143213	26906	1015944	42375	109360	0	0	8188	627187	0	0
2024-06-19 14:15:32			0	36202	0	0	0	25314	23890	143265	27097	1015874	42364	109361	0	0	8188	627137	0	0
2024-06-19 14:16:32			0	36231	0	0	0	25311	23900	143197	27239	1015944	42365	109360	0	0	8190	625867	0	0
2024-06-19 14:17:32			0	36227	0	0	0	25311	23900	143209	27001	1015989	42375	109360	0	0	8190	626037	0	0
2024-06-19 14:18:32			0	36204	0	0	0	25319	23900	143189	27062	1016016	42375	109363	0	0	8188	627017	0	0
2024-06-19 14:19:32			0	36216	0	0	0	25324	23910	143181	27275	1015988	42376	109365	0	0	8189	626470	0	0
2024-06-19 14:20:32			0	36240	0	0	0	25332	23910	143145	26892	1015988	42376	109368	0	0	8190	625449	0	0
2024-06-19 14:21:32			0	36265	0	0	0	25329	23910	143177	27189	1015961	42376	109367	0	0	8191	624387	0	0
2024-06-19 14:22:32			0	36245	0	0	0	25324	23910	143033	26922	1015988	42376	109365	0	0	8190	625237	0	0
2024-06-19 14:23:32			0	36240	0	0	0	25322	23910	143173	27357	1015988	42366	109364	0	0	8190	625449	0	0
2024-06-19 14:24:32			0	36247	0	0	0	25335	23910	143061	27171	1016068	42399	109369	0	0	8190	625152	0	0
2024-06-19 14:25:32			0	36229	0	0	0	25329	23920	143101	27005	1016023	42387	109367	0	0	8190	625882	0	0
2024-06-19 14:26:32			0	36232	0	0	0	25335	23920	143029	27045	1016005	42355	109369	0	0	8190	625754	0	0
2024-06-19 14:27:32			0	36274	0	0	0	25337	23910	142925	27369	1016015	42376	109370	0	0	8192	624005	0	0
2024-06-19 14:28:32			0	36253	0	0	0	25340	23920	142989	27350	1016050	42387	109371	0	0	8191	624862	0	0
2024-06-19 14:29:32			0	36260	0	0	0	25329	23920	142937	26902	1015970	42376	109367	0	0	8191	624564	0	0
2024-06-19 14:30:32			0	36276	0	0	0	25327	23920	142913	26830	1016112	42388	109366	0	0	8192	623885	0	0
2024-06-19 14:31:32			0	36273	0	0	0	25335	23920	142921	27001	1016050	42366	109369	0	0	8192	624012	0	0
2024-06-19 14:32:32			0	36273	0	0	0	25340	23920	142893	26805	1016085	42367	109371	0	0	8192	624012	0	0
2024-06-19 14:33:32			0	36280	0	0	0	25348	23930	143005	27083	1016121	42378	109374	0	0	8192	623680	0	0
2024-06-19 14:34:32			0	36260	0	0	0	25353	23920	142929	27164	1016139	42377	109376	0	0	8191	624564	0	0
2024-06-19 14:35:32			0	36286	0	0	0	25363	23930	142869	26941	1016094	42401	109380	0	0	8192	623425	0	0
2024-06-19 14:36:32			0	36276	0	0	0	25361	23940	142889	26892	1016112	42390	109379	0	0	8192	623814	0	0
2024-06-19 14:37:32			0	36287	0	0	0	25376	23950	142813	27239	1016129	42380	109385	0	0	8192	623313	0	0
2024-06-19 14:38:32			0	36295	0	0	0	25371	23950	142897	27209	1016209	42380	109383	0	0	8192	622973	0	0
2024-06-19 14:39:32			0	36295	0	0	0	25374	23940	142837	26941	1016200	42390	109384	0	0	8192	623008	0	0
2024-06-19 14:40:32			0	36304	0	0	0	25376	23960	142737	27034	1016253	42381	109385	0	0	8193	622557	0	0
2024-06-19 14:41:32			0	36300	0	0	0	25381	23960	142725	27020	1016226	42392	109387	0	0	8193	622726	0	0
2024-06-19 14:42:32			0	36315	0	0	0	25386	23960	142821	27131	1016253	42381	109389	0	0	8193	622091	0	0
2024-06-19 14:43:32			0	36294	0	0	0	25376	23960	142725	26987	1016226	42370	109385	0	0	8192	622981	0	0
2024-06-19 14:44:32			0	36316	0	0	0	25376	23960	142685	26942	1016181	42370	109385	0	0	8193	622048	0	0
2024-06-19 14:45:32			0	36312	0	0	0	25371	23960	142805	26689	1016253	42392	109383	0	0	8193	622218	0	0
2024-06-19 14:46:32			0	36324	0	0	0	25363	23960	142705	27003	1016226	42381	109380	0	0	8194	621709	0	0
2024-06-19 14:47:32			0	36319	0	0	0	25371	23970	142641	27261	1016297	42382	109383	0	0	8194	621886	0	0
2024-06-19 14:48:32			0	36315	0	0	0	25368	23960	142737	26845	1016199	42381	109382	0	0	8194	622091	0	0
2024-06-19 14:49:32			0	36323	0	0	0	25374	23960	142709	26703	1016173	42381	109384	0	0	8194	621752	0	0
2024-06-19 14:50:32			0	36338	0	0	0	25368	23950	142629	27100	1016236	42391	109382	0	0	8195	621152	0	0
2024-06-19 14:51:32			0	36338	0	0	0	25379	23950	142637	27138	1016244	42392	109386	0	0	8195	621152	0	0
2024-06-19 14:52:32			0	36334	0	0	0	25379	23960	142645	26991	1016199	42415	109386	0	0	8194	621286	0	0
2024-06-19 14:53:32			0	36330	0	0	0	25368	23960	142585	27027	1016199	42381	109382	0	0	8194	621455	0	0
2024-06-19 14:54:32			0	36339	0	0	0	25374	23960	142633	27204	1016235	42381	109384	0	0	8195	621075	0	0
2024-06-19 14:55:32			0	36339	0	0	0	25366	23960	142661	27026	1016226	42370	109381	0	0	8195	621075	0	0
2024-06-19 14:56:32			0	36343	0	0	0	25368	23960	142605	27194	1016253	42392	109382	0	0	8195	620905	0	0
2024-06-19 14:57:32			0	36351	0	0	0	25368	23970	142605	27261	1016270	42382	109382	0	0	8196	620532	0	0
2024-06-19 14:58:32			0	36347	0	0	0	25376	23950	142629	27197	1016324	42370	109385	0	0	8195	620771	0	0
2024-06-19 14:59:32			0	36360	0	0	0	25376	23970	142597	27183	1016297	42382	109385	0	0	8196	620152	0	0
2024-06-19 15:00:32			0	36361	0	0	0	25379	23970	142577	27170	1016297	42393	109386	0	0	8196	620109	0	0
2024-06-19 15:01:32			0	36353	0	0	0	25374	23970	142577	27123	1016278	42394	109384	0	0	8196	620447	0	0
2024-06-19 15:02:32			0	36360	0	0	0	25376	23960	142589	26769	1016173	42381	109385	0	0	8196	620186	0	0
2024-06-19 15:03:32			0	36367	0	0	0	25363	23960	142589	27029	1016199	42392	109380	0	0	8196	619891	0	0
2024-06-19 15:04:32			0	36378	0	0	0	25358	23960	142473	26911	1016199	42392	109378	0	0	8197	619426	0	0
2024-06-19 15:05:32			0	36366	0	0	0	25366	23950	142501	27050	1016137	42370	109381	0	0	8196	619968	0	0
2024-06-19 15:06:32			0	36395	0	0	0	25358	23950	142501	27150	1016244	42370	109378	0	0	8198	618743	0	0
2024-06-19 15:07:32			0	36389	0	0	0	25353	23960	142537	27105	1016208	42370	109376	0	0	8198	618962	0	0
2024-06-19 15:08:32			0	36373	0	0	0	25361	23950	142453	27000	1016164	42392	109379	0	0	8197	619672	0	0
2024-06-19 15:09:32			0	36392	0	0	0	25353	23950	142409	27092	1016191	42392	109376	0	0	8198	618870	0	0
2024-06-19 15:10:32			0	36391	0	0	0	25345	23950	142529	27027	1016129	42391	109373	0	0	8198	618912	0	0
2024-06-19 15:11:32			0	36409	0	0	0	25345	23950	142473	27066	1016191	42392	109373	0	0	8199	618153	0	0
2024-06-19 15:12:32			0	36395	0	0	0	25353	23950	142493	26883	1016164	42381	109376	0	0	8198	618743	0	0
2024-06-19 15:13:32			0	36411	0	0	0	25358	23960	142417	26923	1016226	42392	109378	0	0	8199	618034	0	0
2024-06-19 15:14:32			0	36379	0	0	0	25350	23950	142453	26944	1016271	42381	109375	0	0	8197	619419	0	0
2024-06-19 15:15:32			0	36412	0	0	0	25366	23950	142409	26982	1016244	42392	109381	0	0	8199	618026	0	0
2024-06-19 15:16:32			0	36388	0	0	0	25376	23950	142453	26965	1016271	42381	109385	0	0	8197	619039	0	0
2024-06-19 15:17:32			0	36407	0	0	0	25381	23970	142285	27033	1016270	42393	109387	0	0	8198	618167	0	0
2024-06-19 15:18:32			0	36417	0	0	0	25386	23970	142393	26779	1016350	42382	109389	0	0	8199	617746	0	0
2024-06-19 15:19:32			0	36434	0	0	0	25381	23960	142341	27229	1016315	42392	109387	0	0	8200	617064	0	0
2024-06-19 15:20:32			0	36442	0	0	0	25374	23970	142301	26837	1016305	42372	109384	0	0	8200	616693	0	0
2024-06-19 15:21:32			0	36442	0	0	0	25381	23960	142237	26764	1016261	42381	109387	0	0	8200	616727	0	0
2024-06-19 15:22:32			0	36456	0	0	0	25386	23970	142281	27046	1016297	42382	109389	0	0	8201	616103	0	0
2024-06-19 15:23:32			0	36434	0	0	0	25386	23970	142277	27003	1016297	42382	109389	0	0	8200	617030	0	0
2024-06-19 15:24:32			0	36464	0	0	0	25386	23970	142149	26949	1016332	42372	109389	0	0	8201	615767	0	0
2024-06-19 15:25:32			0	36481	0	0	0	25376	23970	142177	26871	1016305	42382	109385	0	0	8202	615052	0	0
2024-06-19 15:26:32			0	36480	0	0	0	25379	23960	142245	26733	1016341	42381	109386	0	0	8202	615129	0	0
2024-06-19 15:27:32			0	36472	0	0	0	25368	23970	142169	27114	1016243	42382	109382	0	0	8202	615431	0	0
2024-06-19 15:28:32			0	36473	0	0	0	25371	23970	142137	27298	1016252	42372	109383	0	0	8202	615388	0	0
2024-06-19 15:29:32			0	36489	0	0	0	25363	23960	142137	26788	1016235	42381	109380	0	0	8203	614751	0	0
2024-06-19 15:30:32			0	36490	0	0	0	25355	23970	142105	26809	1016216	42393	109377	0	0	8203	614674	0	0
2024-06-19 15:31:32			0	36479	0	0	0	25353	23950	142089	26776	1016191	42370	109376	0	0	8202	615206	0	0
2024-06-19 15:32:32			0	36493	0	0	0	25353	23950	142105	27078	1016217	42359	109376	0	0	8203	614617	0	0
2024-06-19 15:33:32			0	36496	0	0	0	25348	23950	142109	27092	1016164	42370	109374	0	0	8203	614491	0	0
2024-06-19 15:34:32			0	36509	0	0	0	25348	23960	142053	26816	1016199	42370	109374	0	0	8204	613911	0	0
2024-06-19 15:35:32			0	36509	0	0	0	25342	23960	142089	27050	1016199	42359	109372	0	0	8204	613911	0	0
2024-06-19 15:36:32			0	36493	0	0	0	25337	23950	142053	27033	1016164	42381	109370	0	0	8203	614617	0	0
2024-06-19 15:37:32			0	36512	0	0	0	25342	23960	141957	27268	1016092	42381	109372	0	0	8204	613785	0	0
2024-06-19 15:38:32			0	36527	0	0	0	25332	23950	141917	27149	1016164	42381	109368	0	0	8205	613190	0	0
2024-06-19 15:39:32			0	36500	0	0	0	25337	23940	141961	27123	1016093	42379	109370	0	0	8204	614358	0	0
2024-06-19 15:40:32			0	36522	0	0	0	25335	23940	141953	26779	1016147	42369	109369	0	0	8205	613435	0	0
2024-06-19 15:41:32			0	36535	0	0	0	25335	23940	141917	27182	1016120	42379	109369	0	0	8206	612889	0	0
2024-06-19 15:42:32			0	36539	0	0	0	25335	23940	141981	26760	1016174	42379	109369	0	0	8206	612722	0	0
2024-06-19 15:43:32			0	36533	0	0	0	25329	23930	142041	27072	1016076	42368	109367	0	0	8206	613008	0	0
2024-06-19 15:44:32			0	36540	0	0	0	25332	23930	141881	27185	1016156	42378	109368	0	0	8206	612714	0	0
2024-06-19 15:45:32			0	36557	0	0	0	25327	23940	141929	27322	1016138	42369	109366	0	0	8207	611968	0	0
2024-06-19 15:46:32			0	36566	0	0	0	25335	23940	141917	26909	1016165	42379	109369	0	0	8207	611591	0	0
2024-06-19 15:47:32			0	36561	0	0	0	25329	23940	141861	26798	1016165	42379	109367	0	0	8207	611800	0	0
2024-06-19 15:48:32			0	36557	0	0	0	25337	23940	141785	27109	1016120	42369	109370	0	0	8207	611968	0	0
2024-06-19 15:49:32			0	36576	0	0	0	25337	23950	141821	27000	1016182	42380	109370	0	0	8208	611138	0	0
2024-06-19 15:50:32			0	36583	0	0	0	25340	23940	141789	26993	1016174	42369	109371	0	0	8208	610879	0	0
2024-06-19 15:51:32			0	36582	0	0	0	25335	23940	141781	26965	1016147	42369	109369	0	0	8208	610921	0	0
2024-06-19 15:52:32			0	36584	0	0	0	25335	23940	141773	26795	1016174	42369	109369	0	0	8208	610838	0	0
2024-06-19 15:53:32			0	36591	0	0	0	25340	23950	141802	26868	1016155	42380	109371	0	0	8209	610511	0	0
2024-06-19 15:54:32			0	36607	0	0	0	25342	23930	141674	27255	1016129	42378	109372	0	0	8209	609911	0	0
2024-06-19 15:55:32			0	36594	0	0	0	25332	23940	141826	26925	1016174	42369	109368	0	0	8209	610419	0	0
2024-06-19 15:56:32			0	36602	0	0	0	25345	23930	141626	27265	1016129	42378	109373	0	0	8209	610119	0	0
2024-06-19 15:57:32			0	36605	0	0	0	25332	23940	141602	26970	1016120	42369	109368	0	0	8209	609960	0	0
2024-06-19 15:58:32			0	36617	0	0	0	25337	23950	141690	27190	1016155	42380	109370	0	0	8210	609424	0	0
2024-06-19 15:59:32			0	36625	0	0	0	25335	23940	141666	27209	1016147	42369	109369	0	0	8210	609124	0	0
2024-06-19 16:00:32			0	36626	0	0	0	25337	23950	141562	27189	1016217	42381	109370	0	0	8210	609048	0	0
2024-06-19 16:01:32			0	36636	0	0	0	25342	23940	141558	27131	1016192	42379	109372	0	0	8211	608665	0	0
2024-06-19 16:02:32			0	36637	0	0	0	25345	23950	141498	27109	1016217	42381	109373	0	0	8211	608589	0	0
2024-06-19 16:03:32			0	36644	0	0	0	25340	23950	141558	27135	1016236	42380	109371	0	0	8211	608297	0	0
2024-06-19 16:04:32			0	36654	0	0	0	25345	23950	141418	27206	1016244	42370	109373	0	0	8212	607880	0	0
2024-06-19 16:05:32			0	36649	0	0	0	25350	23950	141454	26889	1016244	42392	109375	0	0	8211	608089	0	0
2024-06-19 16:06:32			0	36661	0	0	0	25358	23960	141438	27372	1016306	42381	109378	0	0	8212	607554	0	0
2024-06-19 16:07:32			0	36654	0	0	0	25366	23960	141486	27218	1016279	42381	109381	0	0	8211	607846	0	0
2024-06-19 16:08:32			0	36644	0	0	0	25384	23970	141422	27138	1016332	42382	109388	0	0	8211	608229	0	0
2024-06-19 16:09:32			0	36688	0	0	0	25394	23980	141506	27253	1016421	42382	109392	0	0	8213	606362	0	0
2024-06-19 16:10:32			0	36661	0	0	0	25412	23980	141478	26875	1016456	42382	109399	0	0	8211	607486	0	0
2024-06-19 16:11:32			0	36676	0	0	0	25412	23990	141362	27260	1016438	42395	109399	0	0	8212	606827	0	0
2024-06-19 16:12:32			0	36693	0	0	0	25431	23990	141238	27300	1016553	42417	109406	0	0	8213	606119	0	0
2024-06-19 16:13:32			0	36705	0	0	0	25446	24000	141210	27192	1016562	42374	109412	0	0	8213	605586	0	0
2024-06-19 16:14:32			0	36703	0	0	0	25446	24010	141202	27067	1016659	42385	109412	0	0	8213	605635	0	0
2024-06-19 16:15:32			0	36714	0	0	0	25454	24020	141206	27119	1016596	42397	109415	0	0	8213	605144	0	0
2024-06-19 16:16:32			0	36710	0	0	0	25459	24020	141306	27043	1016596	42386	109417	0	0	8213	605310	0	0
2024-06-19 16:17:32			0	36733	0	0	0	25462	24020	141254	27116	1016658	42387	109418	0	0	8214	604354	0	0
2024-06-19 16:18:32			0	36739	0	0	0	25464	24030	141162	27017	1016729	42399	109419	0	0	8215	604071	0	0
2024-06-19 16:19:32			0	36733	0	0	0	25472	24030	141182	27161	1016676	42388	109422	0	0	8214	604320	0	0
2024-06-19 16:20:32			0	36732	0	0	0	25477	24050	141110	27147	1016773	42412	109424	0	0	8214	604294	0	0
2024-06-19 16:21:32			0	36730	0	0	0	25483	24050	141182	27455	1016800	42389	109426	0	0	8214	604377	0	0
2024-06-19 16:22:32			0	36746	0	0	0	25501	24060	141058	27241	1016763	42390	109433	0	0	8214	603679	0	0
2024-06-19 16:23:32			0	36743	0	0	0	25506	24070	141034	27360	1016808	42413	109435	0	0	8214	603769	0	0
2024-06-19 16:24:32			0	36738	0	0	0	25498	24060	141150	27339	1016826	42402	109432	0	0	8214	604011	0	0
2024-06-19 16:25:32			0	36756	0	0	0	25503	24070	141054	27078	1016834	42402	109434	0	0	8215	603230	0	0
2024-06-19 16:26:32			0	36755	0	0	0	25503	24070	141006	27178	1016870	42392	109434	0	0	8215	603271	0	0
2024-06-19 16:27:32			0	36780	0	0	0	25516	24080	140966	27150	1016878	42392	109439	0	0	8216	602202	0	0
2024-06-19 16:28:32			0	36776	0	0	0	25527	24080	140986	27223	1016860	42393	109443	0	0	8216	602367	0	0
2024-06-19 16:29:32			0	36772	0	0	0	25524	24090	140922	27027	1016922	42404	109442	0	0	8216	602499	0	0
2024-06-19 16:30:32			0	36775	0	0	0	25527	24100	140950	27358	1017019	42394	109443	0	0	8216	602341	0	0
2024-06-19 16:31:32			0	36771	0	0	0	25542	24100	140970	27319	1017055	42394	109449	0	0	8215	602506	0	0
2024-06-19 16:32:32			0	36772	0	0	0	25548	24110	140978	27013	1017037	42394	109451	0	0	8215	602431	0	0
2024-06-19 16:33:32			0	36782	0	0	0	25542	24110	141050	27062	1017117	42406	109449	0	0	8216	602017	0	0
2024-06-19 16:34:32			0	36788	0	0	0	25558	24110	140870	26968	1017099	42407	109455	0	0	8216	601769	0	0
2024-06-19 16:35:32			0	36784	0	0	0	25568	24140	140842	26894	1017168	42409	109459	0	0	8216	601832	0	0
2024-06-19 16:36:32			0	36792	0	0	0	25579	24130	140830	26892	1017186	42397	109463	0	0	8216	601535	0	0
2024-06-19 16:37:32			0	36811	0	0	0	25584	24130	140778	26871	1017186	42409	109465	0	0	8217	600749	0	0
2024-06-19 16:38:32			0	36794	0	0	0	25584	24150	140822	26993	1017239	42410	109465	0	0	8216	601384	0	0
2024-06-19 16:39:32			0	36818	0	0	0	25592	24150	140850	26684	1017292	42410	109468	0	0	8217	600392	0	0
2024-06-19 16:40:32			0	36802	0	0	0	25597	24150	140734	27046	1017274	42399	109470	0	0	8216	601054	0	0
2024-06-19 16:41:32			0	36815	0	0	0	25602	24170	140826	27175	1017380	42412	109472	0	0	8217	600448	0	0
2024-06-19 16:42:32			0	36819	0	0	0	25610	24170	140814	27253	1017335	42423	109475	0	0	8217	600283	0	0
2024-06-19 16:43:32			0	36827	0	0	0	25615	24180	140670	27038	1017424	42413	109477	0	0	8217	599919	0	0
2024-06-19 16:44:32			0	36856	0	0	0	25631	24190	140714	26935	1017468	42436	109483	0	0	8219	598688	0	0
2024-06-19 16:45:32			0	36855	0	0	0	25636	24190	140714	26739	1017442	42414	109485	0	0	8218	598729	0	0
2024-06-19 16:46:32			0	36870	0	0	0	25638	24190	140610	26961	1017450	42436	109486	0	0	8219	598111	0	0
2024-06-19 16:47:32			0	36861	0	0	0	25644	24200	140630	26875	1017539	42425	109488	0	0	8219	598448	0	0
2024-06-19 16:48:32			0	36884	0	0	0	25657	24210	140518	26783	1017565	42405	109493	0	0	8220	597467	0	0
2024-06-19 16:49:32			0	36889	0	0	0	25667	24220	140446	27057	1017547	42427	109497	0	0	8220	597227	0	0
2024-06-19 16:50:32			0	36921	0	0	0	25662	24210	140442	26797	1017645	42405	109495	0	0	8222	595944	0	0
2024-06-19 16:51:32			0	36947	0	0	0	25662	24220	140406	27182	1017680	42427	109495	0	0	8223	594843	0	0
2024-06-19 16:52:32			0	36965	0	0	0	25680	24230	140182	26932	1017653	42429	109502	0	0	8224	594070	0	0
2024-06-19 16:53:32			0	36987	0	0	0	25680	24240	140206	27092	1017697	42419	109502	0	0	8225	593135	0	0
2024-06-19 16:54:32			0	37020	0	0	0	25690	24240	140030	27178	1017750	42430	109506	0	0	8226	591783	0	0
2024-06-19 16:55:32			0	37039	0	0	0	25701	24250	139954	27039	1017785	42431	109510	0	0	8227	590973	0	0
2024-06-19 16:56:32			0	37061	0	0	0	25701	24270	139878	26934	1017855	42421	109510	0	0	8228	590008	0	0
2024-06-19 16:57:32			0	37078	0	0	0	25716	24260	139750	26967	1017829	42409	109516	0	0	8229	589347	0	0
2024-06-19 16:58:32			0	37114	0	0	0	25714	24280	139594	26576	1017899	42422	109515	0	0	8231	587813	0	0
2024-06-19 16:59:32			0	37137	0	0	0	25727	24300	139486	26783	1017898	42413	109520	0	0	8232	586810	0	0
2024-06-19 17:00:32			0	37175	0	0	0	25735	24290	139318	26942	1017908	42423	109523	0	0	8234	585299	0	0
2024-06-19 17:01:32			0	37215	0	0	0	25732	24290	139322	26689	1018023	42423	109522	0	0	8236	583676	0	0
2024-06-19 17:02:32			0	37237	0	0	0	25745	24320	139182	26837	1018058	42426	109527	0	0	8237	582686	0	0
2024-06-19 17:03:32			0	37252	0	0	0	25753	24320	139082	27086	1018085	42426	109530	0	0	8238	582079	0	0
2024-06-19 17:04:32			0	37266	0	0	0	25774	24330	139042	26776	1018245	42460	109538	0	0	8238	581480	0	0
2024-06-19 17:05:32			0	37284	0	0	0	25810	24350	138934	27121	1018279	42440	109552	0	0	8239	580687	0	0
2024-06-19 17:06:32			0	37287	0	0	0	25823	24360	138906	26741	1018368	42441	109557	0	0	8239	580533	0	0
2024-06-19 17:07:32			0	37298	0	0	0	25833	24370	138878	27034	1018358	42441	109561	0	0	8239	580056	0	0
2024-06-19 17:08:32			0	37312	0	0	0	25854	24390	138882	26998	1018455	42455	109569	0	0	8239	579425	0	0
2024-06-19 17:09:32			0	37323	0	0	0	25864	24400	138871	26987	1018544	42445	109573	0	0	8240	578949	0	0
2024-06-19 17:10:32			0	37365	0	0	0	25875	24400	138759	27086	1018445	42446	109577	0	0	8242	577257	0	0
2024-06-19 17:11:32			0	37382	0	0	0	25872	24420	138643	27039	1018578	42446	109576	0	0	8243	576509	0	0
2024-06-19 17:12:32			0	37403	0	0	0	25867	24410	138543	26986	1018561	42446	109574	0	0	8244	575697	0	0
2024-06-19 17:13:32			0	37420	0	0	0	25875	24420	138387	26934	1018560	42447	109577	0	0	8245	574982	0	0
2024-06-19 17:14:32			0	37454	0	0	0	25870	24430	138331	27093	1018515	42436	109575	0	0	8247	573587	0	0
2024-06-19 17:15:32			0	37492	0	0	0	25864	24430	138207	27275	1018550	42436	109573	0	0	8249	572065	0	0
2024-06-19 17:16:32			0	37478	0	0	0	25867	24440	138175	26949	1018559	42459	109574	0	0	8248	572593	0	0
2024-06-19 17:17:32			0	37495	0	0	0	25867	24430	138107	27130	1018550	42425	109574	0	0	8249	571946	0	0
2024-06-19 17:18:32			0	37493	0	0	0	25864	24440	138163	27076	1018621	42438	109573	0	0	8249	571993	0	0
2024-06-19 17:19:32			0	37489	0	0	0	25862	24440	138167	27105	1018506	42426	109572	0	0	8249	572153	0	0
2024-06-19 17:20:32			0	37487	0	0	0	25864	24450	138187	26922	1018612	42439	109573	0	0	8249	572201	0	0
2024-06-19 17:21:32			0	37497	0	0	0	25864	24440	138179	27079	1018595	42438	109573	0	0	8249	571833	0	0
2024-06-19 17:22:32			0	37455	0	0	0	25862	24440	138251	27208	1018541	42438	109572	0	0	8247	573514	0	0
2024-06-19 17:23:32			0	37451	0	0	0	25851	24450	138275	27164	1018576	42450	109568	0	0	8247	573642	0	0
2024-06-19 17:24:32			0	37434	0	0	0	25851	24450	138423	26958	1018657	42427	109568	0	0	8246	574323	0	0
2024-06-19 17:25:32			0	37423	0	0	0	25851	24440	138419	27235	1018541	42427	109568	0	0	8245	574797	0	0
2024-06-19 17:26:32			0	37386	0	0	0	25857	24450	138567	27170	1018630	42450	109570	0	0	8243	576250	0	0
2024-06-19 17:27:32			0	37389	0	0	0	25841	24450	138559	27296	1018550	42439	109564	0	0	8244	576129	0	0
2024-06-19 17:28:32			0	37385	0	0	0	25844	24450	138599	27256	1018550	42427	109565	0	0	8244	576290	0	0
2024-06-19 17:29:32			0	37365	0	0	0	25844	24440	138715	26831	1018541	42427	109565	0	0	8243	577127	0	0
2024-06-19 17:30:32			0	37363	0	0	0	25841	24440	138671	27027	1018541	42449	109564	0	0	8243	577207	0	0
2024-06-19 17:31:32			0	37355	0	0	0	25841	24450	138663	27033	1018603	42439	109564	0	0	8242	577497	0	0
2024-06-19 17:32:32			0	37338	0	0	0	25833	24440	138739	27057	1018541	42427	109561	0	0	8241	578214	0	0
2024-06-19 17:33:32			0	37362	0	0	0	25836	24440	138655	27479	1018568	42438	109562	0	0	8243	577248	0	0
2024-06-19 17:34:32			0	37332	0	0	0	25846	24440	138667	27138	1018541	42427	109566	0	0	8241	578455	0	0
2024-06-19 17:35:32			0	37331	0	0	0	25844	24450	138651	26994	1018585	42427	109565	0	0	8241	578463	0	0
2024-06-19 17:36:32			0	37353	0	0	0	25857	24450	138643	27315	1018657	42439	109570	0	0	8242	577577	0	0
2024-06-19 17:37:32			0	37340	0	0	0	25859	24450	138723	26849	1018665	42450	109571	0	0	8241	578100	0	0
2024-06-19 17:38:32			0	37338	0	0	0	25875	24470	138711	27029	1018726	42429	109577	0	0	8241	578116	0	0
2024-06-19 17:39:32			0	37343	0	0	0	25883	24470	138675	27062	1018745	42429	109580	0	0	8241	577914	0	0
2024-06-19 17:40:32			0	37366	0	0	0	25888	24470	138651	27175	1018780	42462	109582	0	0	8242	576989	0	0
2024-06-19 17:41:32			0	37349	0	0	0	25888	24480	138719	27015	1018788	42441	109582	0	0	8241	577640	0	0
2024-06-19 17:42:32			0	37354	0	0	0	25901	24490	138527	26916	1018779	42464	109587	0	0	8241	577406	0	0
2024-06-19 17:43:32			0	37372	0	0	0	25901	24480	138623	26897	1018788	42452	109587	0	0	8242	576715	0	0
2024-06-19 17:44:32			0	37379	0	0	0	25911	24480	138603	27010	1018851	42453	109591	0	0	8242	576434	0	0
2024-06-19 17:45:32			0	37356	0	0	0	25919	24500	138631	27187	1018912	42455	109594	0	0	8241	577293	0	0
2024-06-19 17:46:32			0	37352	0	0	0	25937	24500	138611	26955	1018965	42455	109601	0	0	8241	577454	0	0
2024-06-19 17:47:32			0	37345	0	0	0	25948	24510	138587	27024	1019036	42456	109605	0	0	8240	577703	0	0
2024-06-19 17:48:32			0	37369	0	0	0	25958	24510	138683	27041	1018929	42444	109609	0	0	8241	576738	0	0
2024-06-19 17:49:32			0	37373	0	0	0	25950	24530	138651	27203	1018981	42435	109606	0	0	8242	576512	0	0
2024-06-19 17:50:32			0	37356	0	0	0	25955	24520	138723	26901	1019026	42445	109608	0	0	8241	577228	0	0
2024-06-19 17:51:32			0	37332	0	0	0	25950	24520	138743	26902	1019026	42467	109606	0	0	8239	578194	0	0
2024-06-19 17:52:32			0	37318	0	0	0	25948	24520	138687	27320	1019026	42478	109605	0	0	8239	578758	0	0
2024-06-19 17:53:32			0	37316	0	0	0	25945	24520	138742	27048	1018911	42457	109604	0	0	8239	578838	0	0
2024-06-19 17:54:32			0	37333	0	0	0	25940	24530	138711	27001	1018981	42457	109602	0	0	8240	578121	0	0
2024-06-19 17:55:32			0	37347	0	0	0	25945	24520	138739	27072	1018973	42467	109604	0	0	8240	577590	0	0
2024-06-19 17:56:32			0	37322	0	0	0	25942	24520	138807	27131	1018919	42445	109603	0	0	8239	578597	0	0
2024-06-19 17:57:32			0	37333	0	0	0	25937	24520	138707	27429	1019000	42457	109601	0	0	8240	578154	0	0
2024-06-19 17:58:32			0	37321	0	0	0	25932	24520	138807	26894	1019026	42457	109599	0	0	8239	578637	0	0
2024-06-19 17:59:32			0	37314	0	0	0	25927	24520	138690	27085	1018938	42457	109597	0	0	8239	578919	0	0
2024-06-19 18:00:32			0	37335	0	0	0	25924	24510	138679	27364	1018956	42456	109596	0	0	8240	578106	0	0
2024-06-19 18:01:32			0	37320	0	0	0	25924	24520	138738	26977	1019000	42467	109596	0	0	8239	578677	0	0
2024-06-19 18:02:32			0	37289	0	0	0	25927	24520	138746	27208	1018973	42457	109597	0	0	8238	579927	0	0
2024-06-19 18:03:32			0	37323	0	0	0	25932	24530	138783	27196	1019044	42458	109599	0	0	8239	578524	0	0
2024-06-19 18:04:32			0	37320	0	0	0	25945	24530	138754	27244	1019062	42457	109604	0	0	8239	578644	0	0
2024-06-19 18:05:32			0	37323	0	0	0	25940	24520	138727	27194	1019026	42467	109602	0	0	8239	578556	0	0
2024-06-19 18:06:32			0	37318	0	0	0	25945	24540	138779	27261	1018972	42458	109604	0	0	8239	578692	0	0
2024-06-19 18:07:32			0	37300	0	0	0	25935	24530	138806	26937	1018981	42490	109600	0	0	8238	579451	0	0
2024-06-19 18:08:32			0	37316	0	0	0	25937	24540	138799	27313	1019025	42458	109601	0	0	8239	578773	0	0
2024-06-19 18:09:32			0	37325	0	0	0	25948	24530	138691	27144	1019017	42469	109605	0	0	8239	578443	0	0
2024-06-19 18:10:32			0	37298	0	0	0	25945	24530	138734	27395	1019035	42457	109604	0	0	8238	579531	0	0
2024-06-19 18:11:32			0	37318	0	0	0	25940	24540	138703	27464	1018999	42458	109602	0	0	8239	578692	0	0
2024-06-19 18:12:32			0	37324	0	0	0	25942	24530	138799	26925	1019044	42469	109603	0	0	8239	578483	0	0
2024-06-19 18:13:32			0	37335	0	0	0	25948	24530	138627	27026	1018981	42435	109605	0	0	8240	578040	0	0
2024-06-19 18:14:32			0	37324	0	0	0	25935	24530	138691	26996	1018990	42447	109600	0	0	8239	578483	0	0
2024-06-19 18:15:32			0	37324	0	0	0	25932	24530	138679	27116	1019008	42435	109599	0	0	8239	578483	0	0
2024-06-19 18:16:32			0	37330	0	0	0	25927	24520	138703	27175	1018946	42467	109597	0	0	8240	578274	0	0
2024-06-19 18:17:32			0	37336	0	0	0	25924	24530	138707	27069	1018955	42457	109596	0	0	8240	578000	0	0
2024-06-19 18:18:32			0	37336	0	0	0	25927	24530	138643	27422	1018981	42435	109597	0	0	8240	578000	0	0
2024-06-19 18:19:32			0	37325	0	0	0	25922	24520	138683	27168	1018973	42467	109595	0	0	8239	578476	0	0
2024-06-19 18:20:32			0	37329	0	0	0	25927	24520	138635	26920	1018938	42457	109597	0	0	8240	578315	0	0
2024-06-19 18:21:32			0	37330	0	0	0	25919	24520	138751	26826	1018919	42434	109594	0	0	8240	578274	0	0
2024-06-19 18:22:32			0	37339	0	0	0	25924	24520	138687	27279	1018973	42467	109596	0	0	8240	577912	0	0
2024-06-19 18:23:32			0	37327	0	0	0	25911	24510	138627	27327	1018956	42456	109591	0	0	8240	578428	0	0
2024-06-19 18:24:32			0	37318	0	0	0	25922	24520	138703	27199	1018991	42445	109595	0	0	8239	578758	0	0
2024-06-19 18:25:32			0	37329	0	0	0	25922	24510	138715	26864	1018929	42444	109595	0	0	8240	578347	0	0
2024-06-19 18:26:32			0	37337	0	0	0	25916	24510	138723	26911	1018902	42444	109593	0	0	8240	578025	0	0
2024-06-19 18:27:32			0	37351	0	0	0	25914	24520	138655	27234	1018884	42467	109592	0	0	8241	577429	0	0
2024-06-19 18:28:32			0	37322	0	0	0	25916	24510	138719	27267	1018929	42456	109593	0	0	8239	578629	0	0
2024-06-19 18:29:32			0	37322	0	0	0	25903	24520	138639	27199	1018911	42457	109588	0	0	8240	578597	0	0
2024-06-19 18:30:32			0	37333	0	0	0	25919	24500	138763	27066	1018876	42475	109594	0	0	8240	578219	0	0
2024-06-19 18:31:32			0	37334	0	0	0	25906	24510	138683	27133	1018974	42444	109589	0	0	8240	578146	0	0
2024-06-19 18:32:32			0	37334	0	0	0	25909	24510	138755	27396	1018929	42444	109590	0	0	8240	578146	0	0
2024-06-19 18:33:32			0	37333	0	0	0	25898	24500	138763	27339	1018912	42465	109586	0	0	8240	578219	0	0
2024-06-19 18:34:32			0	37311	0	0	0	25901	24510	138802	27355	1018840	42433	109587	0	0	8239	579073	0	0
2024-06-19 18:35:32			0	37308	0	0	0	25888	24500	138830	27168	1018938	42455	109582	0	0	8239	579226	0	0
2024-06-19 18:36:32			0	37320	0	0	0	25898	24510	138806	27253	1018894	42444	109586	0	0	8240	578710	0	0
2024-06-19 18:37:32			0	37322	0	0	0	25890	24500	138803	26897	1018850	42454	109583	0	0	8240	578662	0	0
2024-06-19 18:38:32			0	37300	0	0	0	25901	24510	138722	26852	1018875	42466	109587	0	0	8239	579516	0	0
2024-06-19 18:39:32			0	37310	0	0	0	25898	24500	138798	27071	1018912	42465	109586	0	0	8239	579146	0	0
2024-06-19 18:40:32			0	37313	0	0	0	25906	24500	138842	26993	1018850	42464	109589	0	0	8239	579025	0	0
2024-06-19 18:41:32			0	37275	0	0	0	25911	24510	138786	27085	1018867	42456	109591	0	0	8237	580525	0	0
2024-06-19 18:42:32			0	37287	0	0	0	25911	24500	138878	27263	1018850	42442	109591	0	0	8238	580073	0	0
2024-06-19 18:43:32			0	37286	0	0	0	25909	24500	138878	27265	1018858	42443	109590	0	0	8238	580114	0	0
2024-06-19 18:44:32			0	37290	0	0	0	25916	24500	138854	27029	1018912	42455	109593	0	0	8238	579952	0	0
2024-06-19 18:45:32			0	37297	0	0	0	25919	24510	138950	27355	1018867	42456	109594	0	0	8238	579637	0	0
2024-06-19 18:46:32			0	37303	0	0	0	25911	24510	138878	27260	1018974	42466	109591	0	0	8238	579395	0	0
2024-06-19 18:47:32			0	37285	0	0	0	25919	24510	138878	27317	1018920	42456	109594	0	0	8237	580121	0	0
2024-06-19 18:48:32			0	37283	0	0	0	25916	24500	138914	27190	1018965	42455	109593	0	0	8237	580235	0	0
2024-06-19 18:49:32			0	37274	0	0	0	25922	24500	138930	27102	1018912	42443	109595	0	0	8237	580598	0	0
2024-06-19 18:50:32			0	37272	0	0	0	25916	24510	138958	27111	1018929	42444	109593	0	0	8237	580646	0	0
2024-06-19 18:51:32			0	37265	0	0	0	25927	24520	138970	27256	1018884	42457	109597	0	0	8236	580896	0	0
2024-06-19 18:52:32			0	37277	0	0	0	25929	24510	138946	27322	1018974	42466	109598	0	0	8237	580444	0	0
2024-06-19 18:53:32			0	37268	0	0	0	25922	24510	138954	27154	1018982	42456	109595	0	0	8236	580808	0	0
2024-06-19 18:54:32			0	37271	0	0	0	25927	24510	138886	27055	1018982	42477	109597	0	0	8237	580686	0	0
2024-06-19 18:55:32			0	37260	0	0	0	25927	24510	138942	26979	1019009	42456	109597	0	0	8236	581131	0	0
2024-06-19 18:56:32			0	37246	0	0	0	25927	24520	138994	27315	1019045	42478	109597	0	0	8235	581664	0	0
2024-06-19 18:57:32			0	37252	0	0	0	25924	24520	138998	27093	1019026	42467	109596	0	0	8236	581421	0	0
2024-06-19 18:58:32			0	37251	0	0	0	25935	24520	138990	27138	1019026	42457	109600	0	0	8235	581462	0	0
2024-06-19 18:59:32			0	37264	0	0	0	25924	24520	139018	26890	1018973	42457	109596	0	0	8236	580936	0	0
2024-06-19 19:00:32			0	37221	0	0	0	25929	24520	139078	27178	1019000	42457	109598	0	0	8234	582675	0	0
2024-06-19 19:01:32			0	37236	0	0	0	25927	24520	139006	27123	1019053	42457	109597	0	0	8235	582068	0	0
2024-06-19 19:02:32			0	37231	0	0	0	25935	24520	139078	27039	1018973	42457	109600	0	0	8234	582270	0	0
2024-06-19 19:03:32			0	37230	0	0	0	25935	24520	139126	26953	1019026	42457	109600	0	0	8234	582311	0	0
2024-06-19 19:04:32			0	37235	0	0	0	25929	24530	139014	26908	1018981	42457	109598	0	0	8235	582076	0	0
2024-06-19 19:05:32			0	37216	0	0	0	25927	24520	139058	27097	1018938	42467	109597	0	0	8234	582877	0	0
2024-06-19 19:06:32			0	37209	0	0	0	25929	24520	139110	27105	1019000	42457	109598	0	0	8233	583161	0	0
2024-06-19 19:07:32			0	37209	0	0	0	25932	24520	139106	26892	1019026	42457	109599	0	0	8233	583161	0	0
2024-06-19 19:08:32			0	37195	0	0	0	25927	24520	139278	27071	1018973	42467	109597	0	0	8233	583728	0	0
2024-06-19 19:09:32			0	37203	0	0	0	25924	24520	139222	27272	1018973	42467	109596	0	0	8233	583404	0	0
2024-06-19 19:10:32			0	37176	0	0	0	25932	24520	139230	27189	1019026	42490	109599	0	0	8232	584498	0	0
2024-06-19 19:11:32			0	37177	0	0	0	25929	24520	139254	27072	1018938	42467	109598	0	0	8232	584458	0	0
2024-06-19 19:12:32			0	37162	0	0	0	25927	24510	139326	26965	1018947	42456	109597	0	0	8231	585099	0	0
2024-06-19 19:13:32			0	37142	0	0	0	25922	24520	139326	26863	1019018	42457	109595	0	0	8230	585878	0	0
2024-06-19 19:14:32			0	37141	0	0	0	25924	24520	139402	27071	1018938	42478	109596	0	0	8230	585919	0	0
2024-06-19 19:15:32			0	37114	0	0	0	25922	24520	139442	27180	1018938	42467	109595	0	0	8229	587016	0	0
2024-06-19 19:16:32			0	37113	0	0	0	25927	24520	139570	27225	1018946	42445	109597	0	0	8228	587057	0	0
2024-06-19 19:17:32			0	37093	0	0	0	25927	24510	139454	26941	1019009	42466	109597	0	0	8227	587904	0	0
2024-06-19 19:18:32			0	37098	0	0	0	25922	24510	139610	27067	1018956	42477	109595	0	0	8228	587701	0	0
2024-06-19 19:19:32			0	37080	0	0	0	25922	24520	139554	27208	1018964	42467	109595	0	0	8227	588400	0	0
2024-06-19 19:20:32			0	37084	0	0	0	25919	24520	139574	26786	1018991	42457	109594	0	0	8227	588237	0	0
2024-06-19 19:21:32			0	37061	0	0	0	25924	24520	139658	26859	1018973	42445	109596	0	0	8226	589175	0	0
2024-06-19 19:22:32			0	37085	0	0	0	25929	24520	139578	27071	1018911	42467	109598	0	0	8227	588197	0	0
2024-06-19 19:23:32			0	37070	0	0	0	25919	24510	139610	27081	1018956	42456	109594	0	0	8226	588841	0	0
2024-06-19 19:24:32			0	37054	0	0	0	25927	24510	139682	27133	1018947	42466	109597	0	0	8225	589493	0	0
2024-06-19 19:25:32			0	37064	0	0	0	25922	24520	139682	27098	1018973	42457	109595	0	0	8226	589052	0	0
2024-06-19 19:26:32			0	37055	0	0	0	25924	24520	139574	26863	1019053	42467	109596	0	0	8225	589419	0	0
2024-06-19 19:27:32			0	37053	0	0	0	25927	24510	139590	26977	1018956	42466	109597	0	0	8225	589534	0	0
2024-06-19 19:28:32			0	37060	0	0	0	25929	24520	139594	27071	1019045	42478	109598	0	0	8226	589215	0	0
2024-06-19 19:29:32			0	37057	0	0	0	25922	24520	139582	27007	1018938	42478	109595	0	0	8226	589338	0	0
2024-06-19 19:30:32			0	37063	0	0	0	25924	24520	139678	26955	1018991	42445	109596	0	0	8226	589093	0	0
2024-06-19 19:31:32			0	37058	0	0	0	25927	24520	139606	26755	1018964	42457	109597	0	0	8226	589297	0	0
2024-06-19 19:32:32			0	37074	0	0	0	25929	24520	139650	27171	1019045	42478	109598	0	0	8226	588645	0	0
2024-06-19 19:33:32			0	37076	0	0	0	25935	24520	139662	26859	1019018	42467	109600	0	0	8226	588563	0	0
2024-06-19 19:34:32			0	37083	0	0	0	25932	24510	139582	26892	1019001	42477	109599	0	0	8227	588311	0	0
2024-06-19 19:35:32			0	37075	0	0	0	25922	24520	139574	26788	1018991	42457	109595	0	0	8226	588604	0	0
2024-06-19 19:36:32			0	37112	0	0	0	25927	24520	139486	27071	1018946	42467	109597	0	0	8228	587098	0	0
2024-06-19 19:37:32			0	37109	0	0	0	25919	24520	139482	27206	1018973	42467	109594	0	0	8228	587220	0	0
2024-06-19 19:38:32			0	37105	0	0	0	25927	24520	139486	26875	1019018	42457	109597	0	0	8228	587383	0	0
2024-06-19 19:39:32			0	37108	0	0	0	25927	24520	139558	27020	1019045	42457	109597	0	0	8228	587260	0	0
2024-06-19 19:40:32			0	37105	0	0	0	25929	24520	139498	27019	1019018	42467	109598	0	0	8228	587383	0	0
2024-06-19 19:41:32			0	37117	0	0	0	25919	24530	139482	27140	1019008	42457	109594	0	0	8229	586861	0	0
2024-06-19 19:42:32			0	37133	0	0	0	25927	24530	139454	26757	1018981	42457	109597	0	0	8229	586211	0	0
2024-06-19 19:43:32			0	37136	0	0	0	25927	24530	139430	26856	1018955	42457	109597	0	0	8230	586089	0	0
2024-06-19 19:44:32			0	37145	0	0	0	25927	24520	139418	27128	1018991	42478	109597	0	0	8230	585756	0	0
2024-06-19 19:45:32			0	37131	0	0	0	25927	24520	139402	26785	1019045	42457	109597	0	0	8229	586325	0	0
2024-06-19 19:46:32			0	37161	0	0	0	25924	24520	139342	27079	1018911	42478	109596	0	0	8231	585107	0	0
2024-06-19 19:47:32			0	37173	0	0	0	25924	24530	139346	27027	1018955	42468	109596	0	0	8232	584587	0	0
2024-06-19 19:48:32			0	37166	0	0	0	25919	24520	139282	26916	1018991	42457	109594	0	0	8231	584904	0	0
2024-06-19 19:49:32			0	37177	0	0	0	25919	24520	139230	27024	1018911	42467	109594	0	0	8232	584458	0	0
2024-06-19 19:50:32			0	37180	0	0	0	25927	24520	139182	27112	1018991	42445	109597	0	0	8232	584336	0	0
2024-06-19 19:51:32			0	37218	0	0	0	25924	24520	139166	27116	1018964	42478	109596	0	0	8234	582796	0	0
2024-06-19 19:52:32			0	37216	0	0	0	25916	24510	139214	26909	1018982	42456	109593	0	0	8234	582910	0	0
2024-06-19 19:53:32			0	37215	0	0	0	25927	24510	139202	26790	1018929	42456	109597	0	0	8234	582951	0	0
2024-06-19 19:54:32			0	37206	0	0	0	25922	24520	139186	26941	1018938	42457	109595	0	0	8233	583282	0	0
2024-06-19 19:55:32			0	37207	0	0	0	25922	24510	139182	27279	1018920	42477	109595	0	0	8233	583275	0	0
2024-06-19 19:56:32			0	37173	0	0	0	25929	24520	139206	27234	1018946	42478	109598	0	0	8231	584620	0	0
2024-06-19 19:57:32			0	37173	0	0	0	25927	24510	139190	27150	1018956	42456	109597	0	0	8231	584653	0	0
2024-06-19 19:58:32			0	37173	0	0	0	25924	24520	139258	27147	1018946	42467	109596	0	0	8232	584620	0	0
2024-06-19 19:59:32			0	37162	0	0	0	25927	24510	139202	27185	1019036	42466	109597	0	0	8231	585099	0	0
2024-06-19 20:00:32			0	37167	0	0	0	25929	24510	139370	26831	1018974	42456	109598	0	0	8231	584896	0	0
2024-06-19 20:01:32			0	37156	0	0	0	25927	24520	139338	27145	1019045	42467	109597	0	0	8231	585310	0	0
2024-06-19 20:02:32			0	37161	0	0	0	25924	24510	139450	27092	1018982	42456	109596	0	0	8231	585140	0	0
2024-06-19 20:03:32			0	37173	0	0	0	25924	24510	139346	26694	1018982	42466	109596	0	0	8232	584653	0	0
2024-06-19 20:04:32			0	37158	0	0	0	25924	24510	139402	26899	1019009	42466	109596	0	0	8231	585262	0	0
2024-06-19 20:05:32			0	37135	0	0	0	25929	24520	139354	27149	1018964	42478	109598	0	0	8229	586163	0	0
2024-06-19 20:06:32			0	37136	0	0	0	25935	24520	139390	26953	1019026	42457	109600	0	0	8229	586122	0	0
2024-06-19 20:07:32			0	37149	0	0	0	25937	24520	139462	26880	1019026	42457	109601	0	0	8230	585594	0	0
2024-06-19 20:08:32			0	37143	0	0	0	25927	24520	139418	27142	1019026	42457	109597	0	0	8230	585838	0	0
2024-06-19 20:09:32			0	37125	0	0	0	25942	24510	139526	26726	1019036	42456	109603	0	0	8229	586602	0	0
2024-06-19 20:10:32			0	37112	0	0	0	25932	24520	139494	26993	1019053	42478	109599	0	0	8228	587098	0	0
2024-06-19 20:11:32			0	37146	0	0	0	25937	24510	139502	27008	1019009	42456	109601	0	0	8230	585749	0	0
2024-06-19 20:12:32			0	37155	0	0	0	25937	24530	139402	27395	1019008	42468	109601	0	0	8230	585317	0	0
2024-06-19 20:13:32			0	37166	0	0	0	25935	24520	139402	26896	1019053	42467	109600	0	0	8231	584904	0	0
2024-06-19 20:14:32			0	37168	0	0	0	25929	24520	139342	27020	1019053	42478	109598	0	0	8231	584823	0	0
2024-06-19 20:15:32			0	37177	0	0	0	25937	24530	139366	26793	1019035	42457	109601	0	0	8232	584425	0	0
2024-06-19 20:16:32			0	37199	0	0	0	25940	24530	139122	27043	1019070	42458	109602	0	0	8233	583533	0	0
2024-06-19 20:17:32			0	37220	0	0	0	25935	24530	139106	26788	1019008	42457	109600	0	0	8234	582683	0	0
2024-06-19 20:18:32			0	37252	0	0	0	25942	24530	139006	27329	1019062	42468	109603	0	0	8235	581388	0	0
2024-06-19 20:19:32			0	37294	0	0	0	25935	24530	138830	27095	1019070	42458	109600	0	0	8238	579693	0	0
2024-06-19 20:20:32			0	37301	0	0	0	25935	24530	138886	26928	1019062	42457	109600	0	0	8238	579410	0	0
2024-06-19 20:21:32			0	37313	0	0	0	25942	24530	138890	27222	1019115	42457	109603	0	0	8239	578927	0	0
2024-06-19 20:22:32			0	37325	0	0	0	25945	24530	138755	26970	1019035	42479	109604	0	0	8239	578443	0	0
2024-06-19 20:23:32			0	37347	0	0	0	25937	24530	138751	27164	1019097	42469	109601	0	0	8240	577557	0	0
2024-06-19 20:24:32			0	37380	0	0	0	25948	24530	138631	27128	1019115	42468	109605	0	0	8242	576231	0	0
2024-06-19 20:25:32			0	37356	0	0	0	25937	24530	138531	27199	1019062	42468	109601	0	0	8241	577195	0	0
2024-06-19 20:26:32			0	37366	0	0	0	25945	24530	138555	27019	1019088	42468	109604	0	0	8241	576793	0	0
2024-06-19 20:27:32			0	37377	0	0	0	25945	24530	138539	27071	1019097	42480	109604	0	0	8242	576351	0	0
2024-06-19 20:28:32			0	37356	0	0	0	25948	24530	138523	27270	1019070	42480	109605	0	0	8241	577195	0	0
2024-06-19 20:29:32			0	37374	0	0	0	25945	24540	138487	27098	1019052	42480	109604	0	0	8242	576439	0	0
2024-06-19 20:30:32			0	37362	0	0	0	25948	24530	138583	27059	1019035	42479	109605	0	0	8241	576954	0	0
2024-06-19 20:31:32			0	37362	0	0	0	25948	24520	138563	26639	1019045	42445	109605	0	0	8241	576987	0	0
2024-06-19 20:32:32			0	37349	0	0	0	25940	24540	138619	26981	1019061	42469	109602	0	0	8241	577444	0	0
2024-06-19 20:33:32			0	37353	0	0	0	25940	24540	138655	26816	1019132	42491	109602	0	0	8241	577283	0	0
2024-06-19 20:34:32			0	37362	0	0	0	25940	24530	138703	26802	1019097	42491	109602	0	0	8241	576954	0	0
2024-06-19 20:35:32			0	37350	0	0	0	25940	24530	138667	27208	1019088	42468	109602	0	0	8241	577437	0	0
2024-06-19 20:36:32			0	37358	0	0	0	25937	24540	138719	27092	1019052	42480	109601	0	0	8241	577082	0	0
2024-06-19 20:37:32			0	37340	0	0	0	25940	24530	138667	27043	1019088	42490	109602	0	0	8240	577839	0	0
2024-06-19 20:38:32			0	37323	0	0	0	25937	24540	138682	26759	1019052	42480	109601	0	0	8239	578491	0	0
2024-06-19 20:39:32			0	37337	0	0	0	25948	24530	138655	27034	1019115	42435	109605	0	0	8240	577960	0	0
2024-06-19 20:40:32			0	37326	0	0	0	25953	24530	138787	27128	1019124	42458	109607	0	0	8239	578403	0	0
2024-06-19 20:41:32			0	37323	0	0	0	25953	24550	138779	27154	1019203	42492	109607	0	0	8239	578458	0	0
2024-06-19 20:42:32			0	37323	0	0	0	25961	24530	138682	27052	1019204	42491	109610	0	0	8239	578524	0	0
2024-06-19 20:43:32			0	37334	0	0	0	25963	24550	138687	26687	1019230	42458	109611	0	0	8239	578015	0	0
2024-06-19 20:44:32			0	37324	0	0	0	25971	24550	138783	26715	1019310	42458	109614	0	0	8239	578418	0	0
2024-06-19 20:45:32			0	37299	0	0	0	25984	24560	138814	27001	1019354	42482	109619	0	0	8237	579393	0	0
2024-06-19 20:46:32			0	37311	0	0	0	25994	24560	138834	27142	1019363	42493	109623	0	0	8238	578909	0	0
2024-06-19 20:47:32			0	37305	0	0	0	25992	24570	138902	26870	1019318	42460	109622	0	0	8237	579118	0	0
2024-06-19 20:48:32			0	37299	0	0	0	25997	24570	138842	27230	1019407	42484	109624	0	0	8237	579360	0	0
2024-06-19 20:49:32			0	37285	0	0	0	26005	24580	139002	26767	1019416	42472	109627	0	0	8236	579892	0	0
2024-06-19 20:50:32			0	37264	0	0	0	26005	24580	138970	27027	1019424	42496	109627	0	0	8235	580739	0	0
2024-06-19 20:51:32			0	37283	0	0	0	26012	24590	138982	27029	1019486	42473	109630	0	0	8236	579940	0	0
2024-06-19 20:52:32			0	37272	0	0	0	26020	24590	138958	27239	1019441	42474	109633	0	0	8235	580383	0	0
2024-06-19 20:53:32			0	37266	0	0	0	26020	24590	138998	27192	1019433	42496	109633	0	0	8235	580626	0	0
2024-06-19 20:54:32			0	37281	0	0	0	26023	24600	138970	26882	1019477	42497	109634	0	0	8236	579988	0	0
2024-06-19 20:55:32			0	37266	0	0	0	26033	24600	138938	27322	1019504	42486	109638	0	0	8235	580593	0	0
2024-06-19 20:56:32			0	37264	0	0	0	26031	24600	139070	27234	1019450	42474	109637	0	0	8235	580674	0	0
2024-06-19 20:57:32			0	37280	0	0	0	26028	24600	138930	27107	1019450	42463	109636	0	0	8236	580028	0	0
2024-06-19 20:58:32			0	37271	0	0	0	26028	24620	138966	27256	1019556	42476	109636	0	0	8235	580325	0	0
2024-06-19 20:59:32			0	37276	0	0	0	26038	24630	138990	26845	1019600	42477	109640	0	0	8235	580091	0	0
2024-06-19 21:00:32			0	37281	0	0	0	26041	24610	139082	27109	1019494	42475	109641	0	0	8236	579955	0	0
2024-06-19 21:01:32			0	37295	0	0	0	26044	24620	138906	27079	1019565	42488	109642	0	0	8236	579357	0	0
2024-06-19 21:02:32			0	37296	0	0	0	26038	24620	138914	27137	1019529	42487	109640	0	0	8236	579317	0	0
2024-06-19 21:03:32			0	37302	0	0	0	26038	24630	138886	26731	1019547	42488	109640	0	0	8237	579042	0	0
2024-06-19 21:04:32			0	37315	0	0	0	26041	24620	138835	27116	1019503	42499	109641	0	0	8237	578551	0	0
2024-06-19 21:05:32			0	37314	0	0	0	26049	24630	138827	26852	1019573	42488	109644	0	0	8237	578559	0	0
2024-06-19 21:06:32			0	37328	0	0	0	26041	24630	138847	26979	1019582	42477	109641	0	0	8238	577995	0	0
2024-06-19 21:07:32			0	37319	0	0	0	26046	24620	138751	26934	1019583	42476	109643	0	0	8238	578390	0	0
2024-06-19 21:08:32			0	37344	0	0	0	26036	24630	138703	27107	1019654	42466	109639	0	0	8239	577351	0	0
2024-06-19 21:09:32			0	37332	0	0	0	26044	24630	138815	26786	1019635	42477	109642	0	0	8238	577834	0	0
2024-06-19 21:10:32			0	37326	0	0	0	26049	24630	138807	26866	1019609	42488	109644	0	0	8238	578076	0	0
2024-06-19 21:11:32			0	37327	0	0	0	26051	24630	138727	27081	1019635	42488	109645	0	0	8238	578036	0	0
2024-06-19 21:12:32			0	37329	0	0	0	26049	24630	138715	26923	1019547	42500	109644	0	0	8238	577955	0	0
2024-06-19 21:13:32			0	37307	0	0	0	26054	24630	138754	26805	1019547	42477	109646	0	0	8237	578841	0	0
2024-06-19 21:14:32			0	37306	0	0	0	26057	24630	138798	26733	1019662	42488	109647	0	0	8237	578881	0	0
2024-06-19 21:15:32			0	37320	0	0	0	26046	24640	138822	27241	1019617	42467	109643	0	0	8238	578285	0	0
2024-06-19 21:16:32			0	37320	0	0	0	26049	24640	138819	27189	1019617	42500	109644	0	0	8238	578285	0	0
2024-06-19 21:17:32			0	37317	0	0	0	26046	24640	138859	26915	1019591	42478	109643	0	0	8237	578405	0	0
2024-06-19 21:18:32			0	37335	0	0	0	26046	24640	138795	26920	1019591	42489	109643	0	0	8238	577681	0	0
2024-06-19 21:19:32			0	37326	0	0	0	26054	24640	138727	26974	1019591	42467	109646	0	0	8238	578043	0	0
2024-06-19 21:20:32			0	37321	0	0	0	26049	24640	138794	26861	1019617	42500	109644	0	0	8238	578244	0	0
2024-06-19 21:21:32			0	37340	0	0	0	26036	24630	138707	27237	1019609	42466	109639	0	0	8239	577512	0	0
2024-06-19 21:22:32			0	37327	0	0	0	26046	24630	138807	27208	1019609	42488	109643	0	0	8238	578036	0	0
2024-06-19 21:23:32			0	37338	0	0	0	26049	24630	138819	27253	1019635	42466	109644	0	0	8238	577593	0	0
2024-06-19 21:24:32			0	37332	0	0	0	26046	24630	138767	26897	1019547	42477	109643	0	0	8238	577834	0	0
2024-06-19 21:25:32			0	37315	0	0	0	26041	24630	138790	27111	1019555	42488	109641	0	0	8237	578519	0	0
2024-06-19 21:26:32			0	37328	0	0	0	26036	24640	138795	26991	1019591	42489	109639	0	0	8238	577963	0	0
2024-06-19 21:27:32			0	37330	0	0	0	26044	24640	138799	27033	1019617	42478	109642	0	0	8238	577882	0	0
2024-06-19 21:28:32			0	37320	0	0	0	26038	24640	138731	27135	1019591	42489	109640	0	0	8238	578285	0	0
2024-06-19 21:29:32			0	37360	0	0	0	26044	24630	138767	26968	1019662	42477	109642	0	0	8240	576708	0	0
2024-06-19 21:30:32			0	37345	0	0	0	26046	24630	138691	27041	1019547	42466	109643	0	0	8239	577311	0	0
2024-06-19 21:31:32			0	37357	0	0	0	26044	24640	138715	27196	1019617	42478	109642	0	0	8240	576796	0	0
2024-06-19 21:32:32			0	37347	0	0	0	26044	24640	138731	27027	1019644	42489	109642	0	0	8239	577198	0	0
2024-06-19 21:33:32			0	37355	0	0	0	26051	24640	138651	27098	1019698	42511	109645	0	0	8239	576876	0	0
2024-06-19 21:34:32			0	37363	0	0	0	26064	24650	138647	27150	1019741	42501	109650	0	0	8240	576522	0	0
2024-06-19 21:35:32			0	37364	0	0	0	26067	24650	138719	26965	1019688	42490	109651	0	0	8240	576482	0	0
2024-06-19 21:36:32			0	37364	0	0	0	26085	24660	138699	27026	1019759	42491	109658	0	0	8239	576450	0	0
2024-06-19 21:37:32			0	37377	0	0	0	26090	24660	138683	27105	1019866	42480	109660	0	0	8240	575927	0	0
2024-06-19 21:38:32			0	37356	0	0	0	26103	24670	138579	27196	1019829	42469	109665	0	0	8239	576738	0	0
2024-06-19 21:39:32			0	37334	0	0	0	26116	24680	138683	26854	1019909	42483	109670	0	0	8237	577590	0	0
2024-06-19 21:40:32			0	37351	0	0	0	26116	24680	138659	27209	1019847	42503	109670	0	0	8238	576907	0	0
2024-06-19 21:41:32			0	37358	0	0	0	26129	24680	138603	27417	1019980	42503	109675	0	0	8238	576625	0	0
2024-06-19 21:42:32			0	37340	0	0	0	26137	24700	138687	27118	1019988	42484	109678	0	0	8237	577284	0	0
2024-06-19 21:43:32			0	37347	0	0	0	26153	24700	138699	27166	1020042	42517	109684	0	0	8237	577002	0	0
2024-06-19 21:44:32			0	37349	0	0	0	26163	24710	138655	26817	1020032	42517	109688	0	0	8237	576889	0	0
2024-06-19 21:45:32			0	37335	0	0	0	26163	24720	138615	27031	1020076	42508	109688	0	0	8237	577419	0	0
2024-06-19 21:46:32			0	37312	0	0	0	26168	24720	138662	27088	1020085	42486	109690	0	0	8236	578345	0	0
2024-06-19 21:47:32			0	37310	0	0	0	26153	24730	138638	26748	1020094	42509	109684	0	0	8236	578392	0	0
2024-06-19 21:48:32			0	37314	0	0	0	26155	24730	138774	27369	1020067	42498	109685	0	0	8236	578232	0	0
2024-06-19 21:49:32			0	37312	0	0	0	26155	24730	138694	26807	1020067	42487	109685	0	0	8236	578312	0	0
2024-06-19 21:50:32			0	37286	0	0	0	26158	24720	138874	26909	1020058	42498	109686	0	0	8234	579392	0	0
2024-06-19 21:51:32			0	37282	0	0	0	26155	24740	138786	27173	1020164	42488	109685	0	0	8234	579488	0	0
2024-06-19 21:52:32			0	37271	0	0	0	26163	24730	138838	26909	1020120	42498	109688	0	0	8234	579964	0	0
2024-06-19 21:53:32			0	37265	0	0	0	26166	24740	138906	26831	1020138	42499	109689	0	0	8233	580173	0	0
2024-06-19 21:54:32			0	37241	0	0	0	26161	24730	138970	27031	1020094	42487	109687	0	0	8232	581175	0	0
2024-06-19 21:55:32			0	37255	0	0	0	26171	24750	139078	27256	1020182	42489	109691	0	0	8233	580544	0	0
2024-06-19 21:56:32			0	37238	0	0	0	26168	24740	139110	27059	1020227	42499	109690	0	0	8232	581263	0	0
2024-06-19 21:57:32			0	37216	0	0	0	26186	24750	139066	26705	1020217	42500	109697	0	0	8230	582119	0	0
2024-06-19 21:58:32			0	37197	0	0	0	26197	24760	139190	27225	1020172	42523	109701	0	0	8229	582855	0	0
2024-06-19 21:59:32			0	37188	0	0	0	26207	24770	139226	27248	1020296	42512	109705	0	0	8229	583186	0	0
2024-06-19 22:00:32			0	37160	0	0	0	26202	24770	139170	27055	1020358	42512	109703	0	0	8227	584320	0	0
2024-06-19 22:01:32			0	37160	0	0	0	26215	24770	139342	27161	1020332	42512	109708	0	0	8227	584320	0	0
2024-06-19 22:02:32			0	37120	0	0	0	26212	24770	139474	27287	1020296	42524	109707	0	0	8225	585943	0	0
2024-06-19 22:03:32			0	37082	0	0	0	26223	24780	139566	27265	1020376	42514	109711	0	0	8223	587454	0	0
2024-06-19 22:04:32			0	37081	0	0	0	26228	24790	139562	27144	1020384	42514	109713	0	0	8223	587461	0	0
2024-06-19 22:05:32			0	37038	0	0	0	26220	24790	139730	27104	1020366	42526	109710	0	0	8221	589212	0	0
2024-06-19 22:06:32			0	37030	0	0	0	26223	24790	139802	27199	1020411	42503	109711	0	0	8220	589538	0	0
2024-06-19 22:07:32			0	37018	0	0	0	26231	24800	139862	27187	1020455	42504	109714	0	0	8219	589994	0	0
2024-06-19 22:08:32			0	37005	0	0	0	26236	24800	139902	27183	1020375	42515	109716	0	0	8219	590524	0	0
2024-06-19 22:09:32			0	36981	0	0	0	26233	24810	139978	27107	1020419	42516	109715	0	0	8218	591471	0	0
2024-06-19 22:10:32			0	36997	0	0	0	26244	24800	140058	26987	1020410	42516	109719	0	0	8218	590851	0	0
2024-06-19 22:11:32			0	36983	0	0	0	26244	24810	139942	27229	1020481	42517	109719	0	0	8217	591389	0	0
2024-06-19 22:12:32			0	36964	0	0	0	26241	24810	139886	26890	1020561	42517	109718	0	0	8217	592166	0	0
2024-06-19 22:13:32			0	36964	0	0	0	26241	24820	139934	26722	1020490	42517	109718	0	0	8217	592132	0	0
2024-06-19 22:14:32			0	36980	0	0	0	26238	24810	140094	27232	1020526	42527	109717	0	0	8217	591512	0	0
2024-06-19 22:15:32			0	36964	0	0	0	26238	24810	140006	27163	1020535	42495	109717	0	0	8217	592166	0	0
2024-06-19 22:16:32			0	36965	0	0	0	26249	24820	139966	27050	1020490	42517	109721	0	0	8217	592092	0	0
2024-06-19 22:17:32			0	36967	0	0	0	26241	24820	140006	26785	1020552	42507	109718	0	0	8217	592010	0	0
2024-06-19 22:18:32			0	36948	0	0	0	26246	24820	140002	27015	1020490	42517	109720	0	0	8216	592787	0	0
2024-06-19 22:19:32			0	36966	0	0	0	26241	24820	140018	27029	1020543	42506	109718	0	0	8217	592051	0	0
2024-06-19 22:20:32			0	36970	0	0	0	26241	24820	140066	26837	1020472	42496	109718	0	0	8217	591887	0	0
2024-06-19 22:21:32			0	36956	0	0	0	26241	24820	140014	27020	1020490	42528	109718	0	0	8216	592459	0	0
2024-06-19 22:22:32			0	36947	0	0	0	26231	24810	139958	27045	1020454	42517	109714	0	0	8216	592861	0	0
2024-06-19 22:23:32			0	36959	0	0	0	26236	24820	140046	27041	1020490	42506	109716	0	0	8216	592337	0	0
2024-06-19 22:24:32			0	36964	0	0	0	26228	24820	140006	27261	1020498	42518	109713	0	0	8217	592132	0	0
2024-06-19 22:25:32			0	36951	0	0	0	26236	24820	139990	26817	1020570	42506	109716	0	0	8216	592664	0	0
2024-06-19 22:26:32			0	36955	0	0	0	26246	24820	139990	26840	1020472	42507	109720	0	0	8216	592500	0	0
2024-06-19 22:27:32			0	36947	0	0	0	26231	24830	139994	27190	1020507	42508	109714	0	0	8216	592794	0	0
2024-06-19 22:28:32			0	36947	0	0	0	26236	24820	140030	26885	1020498	42507	109716	0	0	8216	592828	0	0
2024-06-19 22:29:32			0	36971	0	0	0	26249	24820	140082	27052	1020543	42506	109721	0	0	8217	591846	0	0
2024-06-19 22:30:32			0	36956	0	0	0	26233	24820	140022	27280	1020579	42518	109715	0	0	8216	592459	0	0
2024-06-19 22:31:32			0	36948	0	0	0	26244	24820	140018	27163	1020498	42529	109719	0	0	8216	592787	0	0
2024-06-19 22:32:32			0	36961	0	0	0	26241	24820	139954	26987	1020498	42507	109718	0	0	8216	592255	0	0
2024-06-19 22:33:32			0	36954	0	0	0	26236	24820	139974	27093	1020552	42518	109716	0	0	8216	592541	0	0
2024-06-19 22:34:32			0	36954	0	0	0	26233	24820	139994	27098	1020552	42507	109715	0	0	8216	592541	0	0
2024-06-19 22:35:32			0	36946	0	0	0	26225	24820	139970	27157	1020498	42518	109712	0	0	8216	592869	0	0
2024-06-19 22:36:32			0	36966	0	0	0	26236	24830	140070	27218	1020480	42508	109716	0	0	8217	592017	0	0
2024-06-19 22:37:32			0	36965	0	0	0	26231	24830	139938	27194	1020427	42519	109714	0	0	8217	592058	0	0
2024-06-19 22:38:32			0	36969	0	0	0	26231	24810	139958	27131	1020401	42517	109714	0	0	8217	591961	0	0
2024-06-19 22:39:32			0	36967	0	0	0	26225	24830	140038	27164	1020507	42519	109712	0	0	8217	591976	0	0
2024-06-19 22:40:32			0	36982	0	0	0	26231	24820	139942	27300	1020463	42506	109714	0	0	8218	591397	0	0
2024-06-19 22:41:32			0	36986	0	0	0	26231	24820	139918	27069	1020463	42506	109714	0	0	8218	591233	0	0
2024-06-19 22:42:32			0	36992	0	0	0	26231	24820	139822	26868	1020490	42517	109714	0	0	8218	590988	0	0
2024-06-19 22:43:32			0	37005	0	0	0	26220	24820	139866	27196	1020490	42517	109710	0	0	8219	590458	0	0
2024-06-19 22:44:32			0	36997	0	0	0	26228	24820	139814	27213	1020525	42518	109713	0	0	8219	590784	0	0
2024-06-19 22:45:32			0	37017	0	0	0	26225	24820	139806	27116	1020472	42507	109712	0	0	8220	589968	0	0
2024-06-19 22:46:32			0	37023	0	0	0	26233	24810	139678	26958	1020481	42528	109715	0	0	8220	589757	0	0
2024-06-19 22:47:32			0	37020	0	0	0	26233	24820	139766	27118	1020498	42518	109715	0	0	8220	589846	0	0
2024-06-19 22:48:32			0	37049	0	0	0	26231	24820	139666	26989	1020463	42540	109714	0	0	8221	588664	0	0
2024-06-19 22:49:32			0	37043	0	0	0	26223	24820	139718	26857	1020517	42506	109711	0	0	8221	588908	0	0
2024-06-19 22:50:32			0	37078	0	0	0	26231	24820	139550	27093	1020463	42517	109714	0	0	8223	587484	0	0
2024-06-19 22:51:32			0	37067	0	0	0	26225	24820	139522	26968	1020517	42517	109712	0	0	8222	587931	0	0
2024-06-19 22:52:32			0	37097	0	0	0	26225	24830	139554	27081	1020507	42519	109712	0	0	8224	586678	0	0
2024-06-19 22:53:32			0	37113	0	0	0	26225	24820	139514	26857	1020498	42507	109712	0	0	8225	586061	0	0
2024-06-19 22:54:32			0	37110	0	0	0	26236	24820	139454	26948	1020517	42517	109716	0	0	8224	586183	0	0
2024-06-19 22:55:32			0	37110	0	0	0	26228	24820	139422	27005	1020463	42517	109713	0	0	8224	586183	0	0
2024-06-19 22:56:32			0	37132	0	0	0	26218	24810	139318	26996	1020499	42495	109709	0	0	8226	585323	0	0
2024-06-19 22:57:32			0	37146	0	0	0	26218	24820	139338	27036	1020490	42517	109709	0	0	8226	584722	0	0
2024-06-19 22:58:32			0	37142	0	0	0	26218	24820	139306	26958	1020490	42528	109709	0	0	8226	584884	0	0
2024-06-19 22:59:32			0	37173	0	0	0	26218	24820	139238	26785	1020490	42506	109709	0	0	8228	583628	0	0
2024-06-19 23:00:32			0	37175	0	0	0	26215	24820	139182	27190	1020490	42506	109708	0	0	8228	583547	0	0
2024-06-19 23:01:32			0	37199	0	0	0	26215	24810	139130	26955	1020499	42527	109708	0	0	8229	582609	0	0
2024-06-19 23:02:32			0	37215	0	0	0	26220	24810	139130	27133	1020473	42516	109710	0	0	8230	581962	0	0
2024-06-19 23:03:32			0	37230	0	0	0	26215	24810	139038	27152	1020481	42517	109708	0	0	8231	581356	0	0
2024-06-19 23:04:32			0	37229	0	0	0	26220	24800	139018	26871	1020437	42505	109710	0	0	8231	581429	0	0
2024-06-19 23:05:32			0	37265	0	0	0	26215	24800	138934	27060	1020357	42516	109708	0	0	8233	579976	0	0
2024-06-19 23:06:32			0	37261	0	0	0	26220	24800	138910	27076	1020410	42516	109710	0	0	8232	580138	0	0
2024-06-19 23:07:32			0	37281	0	0	0	26212	24800	138786	26871	1020464	42505	109707	0	0	8233	579331	0	0
2024-06-19 23:08:32			0	37328	0	0	0	26220	24800	138751	27093	1020437	42516	109710	0	0	8236	577439	0	0
2024-06-19 23:09:32			0	37316	0	0	0	26210	24810	138779	27076	1020419	42505	109706	0	0	8235	577889	0	0
2024-06-19 23:10:32			0	37320	0	0	0	26207	24800	138710	26897	1020410	42495	109705	0	0	8236	577761	0	0
2024-06-19 23:11:32			0	37344	0	0	0	26205	24800	138599	26958	1020437	42516	109704	0	0	8237	576796	0	0
2024-06-19 23:12:32			0	37361	0	0	0	26212	24800	138631	26840	1020357	42516	109707	0	0	8238	576113	0	0
2024-06-19 23:13:32			0	37379	0	0	0	26210	24800	138495	26901	1020383	42505	109706	0	0	8239	575391	0	0
2024-06-19 23:14:32			0	37375	0	0	0	26205	24800	138467	27218	1020402	42515	109704	0	0	8238	575551	0	0
2024-06-19 23:15:32			0	37411	0	0	0	26210	24800	138399	26960	1020383	42505	109706	0	0	8240	574108	0	0
2024-06-19 23:16:32			0	37415	0	0	0	26212	24800	138367	26833	1020410	42516	109707	0	0	8240	573948	0	0
2024-06-19 23:17:32			0	37455	0	0	0	26202	24800	138279	26915	1020455	42515	109703	0	0	8243	572347	0	0
2024-06-19 23:18:32			0	37467	0	0	0	26202	24800	138315	26965	1020402	42527	109703	0	0	8243	571868	0	0
2024-06-19 23:19:32			0	37474	0	0	0	26210	24800	138147	26830	1020402	42527	109706	0	0	8244	571588	0	0
2024-06-19 23:20:32			0	37478	0	0	0	26207	24790	138143	27055	1020393	42493	109705	0	0	8244	571460	0	0
2024-06-19 23:21:32			0	37488	0	0	0	26199	24800	138143	27098	1020348	42515	109702	0	0	8244	571029	0	0
2024-06-19 23:22:32			0	37515	0	0	0	26199	24800	138171	26840	1020348	42527	109702	0	0	8246	569952	0	0
2024-06-19 23:23:32			0	37529	0	0	0	26205	24790	138031	27015	1020358	42514	109704	0	0	8246	569426	0	0
2024-06-19 23:24:32			0	37527	0	0	0	26199	24800	137967	27059	1020348	42515	109702	0	0	8246	569473	0	0
2024-06-19 23:25:32			0	37559	0	0	0	26197	24780	137971	27088	1020376	42526	109701	0	0	8248	568264	0	0
2024-06-19 23:26:32			0	37560	0	0	0	26192	24790	137875	27166	1020384	42526	109699	0	0	8248	568191	0	0
2024-06-19 23:27:32			0	37563	0	0	0	26189	24790	137855	26974	1020358	42493	109698	0	0	8248	568072	0	0
2024-06-19 23:28:32			0	37609	0	0	0	26192	24790	137827	27215	1020384	42514	109699	0	0	8251	566244	0	0
2024-06-19 23:29:32			0	37591	0	0	0	26189	24790	137811	27066	1020304	42514	109698	0	0	8250	566959	0	0
2024-06-19 23:30:32			0	37615	0	0	0	26192	24790	137779	27277	1020384	42493	109699	0	0	8251	566006	0	0
2024-06-19 23:31:32			0	37626	0	0	0	26189	24780	137735	27055	1020322	42514	109698	0	0	8252	565601	0	0
2024-06-19 23:32:32			0	37639	0	0	0	26181	24780	137695	27005	1020287	42502	109695	0	0	8253	565086	0	0
2024-06-19 23:33:32			0	37629	0	0	0	26192	24790	137651	27208	1020313	42493	109699	0	0	8252	565450	0	0
2024-06-19 23:34:32			0	37642	0	0	0	26184	24780	137655	27156	1020322	42526	109696	0	0	8253	564967	0	0
2024-06-19 23:35:32			0	37664	0	0	0	26192	24780	137507	27308	1020322	42503	109699	0	0	8254	564095	0	0
2024-06-19 23:36:32			0	37661	0	0	0	26181	24770	137499	27228	1020251	42512	109695	0	0	8254	564246	0	0
2024-06-19 23:37:32			0	37677	0	0	0	26174	24780	137403	27320	1020295	42526	109692	0	0	8255	563580	0	0
2024-06-19 23:38:32			0	37679	0	0	0	26179	24770	137423	27396	1020332	42501	109694	0	0	8255	563533	0	0
2024-06-19 23:39:32			0	37690	0	0	0	26176	24770	137423	27258	1020270	42524	109693	0	0	8255	563098	0	0
2024-06-19 23:40:32			0	37686	0	0	0	26179	24760	137339	26833	1020234	42512	109694	0	0	8255	563288	0	0
2024-06-19 23:41:32			0	37712	0	0	0	26176	24780	137327	27124	1020287	42513	109693	0	0	8256	562196	0	0
2024-06-19 23:42:32			0	37714	0	0	0	26174	24770	137303	26823	1020305	42512	109692	0	0	8256	562149	0	0
2024-06-19 23:43:32			0	37713	0	0	0	26179	24790	137243	27149	1020358	42526	109694	0	0	8256	562124	0	0
2024-06-19 23:44:32			0	37713	0	0	0	26179	24780	137267	26691	1020314	42513	109694	0	0	8256	562156	0	0
2024-06-19 23:45:32			0	37735	0	0	0	26174	24770	137227	27159	1020270	42501	109692	0	0	8258	561319	0	0
2024-06-19 23:46:32			0	37751	0	0	0	26174	24760	137227	26831	1020261	42501	109692	0	0	8258	560719	0	0
2024-06-19 23:47:32			0	37737	0	0	0	26174	24770	137107	27218	1020296	42512	109692	0	0	8258	561240	0	0
2024-06-19 23:48:32			0	37747	0	0	0	26168	24780	137135	27284	1020314	42502	109690	0	0	8258	560814	0	0
2024-06-19 23:49:32			0	37768	0	0	0	26176	24770	137075	26958	1020296	42512	109693	0	0	8259	560017	0	0
2024-06-19 23:50:32			0	37755	0	0	0	26174	24760	136999	27031	1020252	42512	109692	0	0	8259	560562	0	0
2024-06-19 23:51:32			0	37776	0	0	0	26171	24770	137039	27102	1020251	42512	109691	0	0	8260	559702	0	0
2024-06-19 23:52:32			0	37785	0	0	0	26171	24760	137059	27147	1020234	42512	109691	0	0	8260	559379	0	0
2024-06-19 23:53:32			0	37771	0	0	0	26176	24760	137123	27045	1020261	42512	109693	0	0	8259	559931	0	0
2024-06-19 23:54:32			0	37786	0	0	0	26171	24750	137007	27249	1020163	42500	109691	0	0	8260	559371	0	0
2024-06-19 23:55:32			0	37788	0	0	0	26166	24760	137043	26958	1020172	42500	109689	0	0	8260	559261	0	0
2024-06-19 23:56:32			0	37798	0	0	0	26158	24760	136899	27177	1020252	42500	109686	0	0	8261	558867	0	0
2024-06-19 23:57:32			0	37804	0	0	0	26161	24760	136927	27039	1020181	42524	109687	0	0	8261	558631	0	0
2024-06-19 23:58:32			0	37812	0	0	0	26150	24760	136959	27045	1020181	42501	109683	0	0	8262	558316	0	0
2024-06-19 23:59:32			0	37810	0	0	0	26153	24760	136923	27076	1020172	42512	109684	0	0	8262	558395	0	0
2024-06-20 00:00:32			0	37819	0	0	0	26158	24760	137055	26961	1020226	42512	109686	0	0	8262	558041	0	0
2024-06-20 00:01:32			0	37820	0	0	0	26155	24760	136947	27159	1020172	42512	109685	0	0	8262	558001	0	0
2024-06-20 00:02:32			0	37807	0	0	0	26155	24750	136815	27031	1020182	42500	109685	0	0	8262	558544	0	0
2024-06-20 00:03:32			0	37828	0	0	0	26150	24760	137015	27230	1020172	42512	109683	0	0	8263	557687	0	0
2024-06-20 00:04:32			0	37843	0	0	0	26158	24730	136815	27043	1020129	42509	109686	0	0	8263	557192	0	0
2024-06-20 00:05:32			0	37822	0	0	0	26153	24740	136887	27435	1020200	42499	109684	0	0	8262	557986	0	0
2024-06-20 00:06:32			0	37834	0	0	0	26155	24750	136855	27088	1020182	42511	109685	0	0	8263	557482	0	0
2024-06-20 00:07:32			0	37845	0	0	0	26137	24750	136919	26991	1020208	42500	109678	0	0	8264	557050	0	0
2024-06-20 00:08:32			0	37832	0	0	0	26153	24750	136799	26811	1020128	42522	109684	0	0	8263	557561	0	0
2024-06-20 00:09:32			0	37825	0	0	0	26142	24740	136919	27161	1020173	42521	109680	0	0	8263	557868	0	0
2024-06-20 00:10:32			0	37834	0	0	0	26148	24740	136899	27112	1020200	42510	109682	0	0	8263	557514	0	0
2024-06-20 00:11:32			0	37825	0	0	0	26148	24750	136867	26935	1020155	42511	109682	0	0	8263	557836	0	0
2024-06-20 00:12:32			0	37837	0	0	0	26148	24750	136791	27301	1020182	42500	109682	0	0	8263	557364	0	0
2024-06-20 00:13:32			0	37836	0	0	0	26148	24740	136839	26892	1020173	42499	109682	0	0	8263	557435	0	0
2024-06-20 00:14:32			0	37851	0	0	0	26155	24740	136855	27201	1020164	42521	109685	0	0	8264	556846	0	0
2024-06-20 00:15:32			0	37863	0	0	0	26148	24750	136811	27412	1020182	42511	109682	0	0	8265	556343	0	0
2024-06-20 00:16:32			0	37837	0	0	0	26150	24740	136735	27055	1020173	42488	109683	0	0	8263	557396	0	0
2024-06-20 00:17:32			0	37850	0	0	0	26150	24740	136799	27154	1020146	42510	109683	0	0	8264	556885	0	0
2024-06-20 00:18:32			0	37854	0	0	0	26148	24740	136851	27260	1020164	42510	109682	0	0	8264	556728	0	0
2024-06-20 00:19:32			0	37845	0	0	0	26142	24740	136803	26790	1020173	42499	109680	0	0	8264	557082	0	0
2024-06-20 00:20:32			0	37853	0	0	0	26140	24740	136855	27251	1020146	42521	109679	0	0	8264	556767	0	0
2024-06-20 00:21:32			0	37859	0	0	0	26140	24740	136867	27076	1020191	42521	109679	0	0	8264	556532	0	0
2024-06-20 00:22:32			0	37854	0	0	0	26135	24740	136823	27199	1020191	42510	109677	0	0	8264	556728	0	0
2024-06-20 00:23:32			0	37870	0	0	0	26135	24720	136811	27360	1020058	42508	109677	0	0	8265	556163	0	0
2024-06-20 00:24:32			0	37873	0	0	0	26135	24730	136955	27251	1020120	42509	109677	0	0	8265	556013	0	0
2024-06-20 00:25:32			0	37856	0	0	0	26132	24730	136879	27308	1020156	42520	109676	0	0	8264	556681	0	0
2024-06-20 00:26:32			0	37865	0	0	0	26140	24730	136823	27248	1020094	42487	109679	0	0	8265	556327	0	0
2024-06-20 00:27:32			0	37849	0	0	0	26137	24730	136851	27031	1020129	42509	109678	0	0	8264	556956	0	0
2024-06-20 00:28:32			0	37857	0	0	0	26132	24740	136855	27015	1020164	42521	109676	0	0	8264	556610	0	0
2024-06-20 00:29:32			0	37863	0	0	0	26135	24730	136895	27170	1020120	42498	109677	0	0	8265	556406	0	0
2024-06-20 00:30:32			0	37849	0	0	0	26127	24740	136815	26968	1020111	42510	109674	0	0	8264	556924	0	0
2024-06-20 00:31:32			0	37862	0	0	0	26129	24730	136831	27078	1020094	42509	109675	0	0	8265	556445	0	0
2024-06-20 00:32:32			0	37873	0	0	0	26129	24730	136883	26923	1020022	42498	109675	0	0	8265	556013	0	0
2024-06-20 00:33:32			0	37864	0	0	0	26129	24720	136907	27007	1020085	42508	109675	0	0	8265	556398	0	0
2024-06-20 00:34:32			0	37879	0	0	0	26129	24720	136883	26911	1020005	42519	109675	0	0	8266	555809	0	0
2024-06-20 00:35:32			0	37868	0	0	0	26132	24730	136915	27093	1020120	42509	109676	0	0	8265	556210	0	0
2024-06-20 00:36:32			0	37863	0	0	0	26124	24730	136807	27227	1020067	42498	109673	0	0	8265	556406	0	0
2024-06-20 00:37:32			0	37879	0	0	0	26127	24730	136795	27093	1020040	42498	109674	0	0	8266	555778	0	0
2024-06-20 00:38:32			0	37899	0	0	0	26135	24730	136831	27074	1020067	42509	109677	0	0	8267	554994	0	0
2024-06-20 00:39:32			0	37886	0	0	0	26132	24710	136859	27237	1020121	42518	109676	0	0	8266	555566	0	0
2024-06-20 00:40:32			0	37870	0	0	0	26127	24720	136815	27216	1020103	42508	109674	0	0	8265	556163	0	0
2024-06-20 00:41:32			0	37891	0	0	0	26116	24720	136863	26984	1020076	42508	109670	0	0	8266	555339	0	0
2024-06-20 00:42:32			0	37885	0	0	0	26119	24720	136767	27126	1020085	42486	109671	0	0	8266	555574	0	0
2024-06-20 00:43:32			0	37872	0	0	0	26116	24720	136743	27310	1020058	42498	109670	0	0	8265	556084	0	0
2024-06-20 00:44:32			0	37906	0	0	0	26109	24720	136739	27326	1020076	42519	109667	0	0	8267	554751	0	0
2024-06-20 00:45:32			0	37900	0	0	0	26116	24700	136779	27170	1019970	42506	109670	0	0	8267	555049	0	0
2024-06-20 00:46:32			0	37895	0	0	0	26116	24710	136751	27209	1019979	42496	109670	0	0	8267	555213	0	0
2024-06-20 00:47:32			0	37885	0	0	0	26116	24720	136779	26876	1019996	42508	109670	0	0	8266	555574	0	0
2024-06-20 00:48:32			0	37899	0	0	0	26114	24710	136759	27244	1020059	42506	109669	0	0	8267	555057	0	0
2024-06-20 00:49:32			0	37898	0	0	0	26111	24730	136811	27618	1020067	42498	109668	0	0	8267	555033	0	0
2024-06-20 00:50:32			0	37896	0	0	0	26111	24700	136683	27152	1020104	42506	109668	0	0	8267	555206	0	0
2024-06-20 00:51:32			0	37916	0	0	0	26116	24690	136727	27286	1020007	42505	109670	0	0	8268	554453	0	0
2024-06-20 00:52:32			0	37903	0	0	0	26119	24710	136735	26967	1019979	42496	109671	0	0	8267	554900	0	0
2024-06-20 00:53:32			0	37899	0	0	0	26122	24700	136747	27085	1019997	42496	109672	0	0	8267	555088	0	0
2024-06-20 00:54:32			0	37920	0	0	0	26114	24700	136763	27130	1019997	42517	109669	0	0	8268	554265	0	0
2024-06-20 00:55:32			0	37904	0	0	0	26111	24700	136703	27218	1020015	42506	109668	0	0	8267	554892	0	0
2024-06-20 00:56:32			0	37920	0	0	0	26116	24710	136659	27253	1020032	42506	109670	0	0	8268	554234	0	0
2024-06-20 00:57:32			0	37943	0	0	0	26106	24700	136615	27428	1020015	42506	109666	0	0	8269	553365	0	0
2024-06-20 00:58:32			0	37932	0	0	0	26109	24700	136627	26765	1020015	42506	109667	0	0	8269	553795	0	0
2024-06-20 00:59:32			0	37945	0	0	0	26103	24700	136643	27095	1020042	42506	109665	0	0	8269	553286	0	0
2024-06-20 01:00:32			0	37948	0	0	0	26109	24700	136655	26771	1020051	42484	109667	0	0	8269	553169	0	0
2024-06-20 01:01:32			0	37948	0	0	0	26106	24690	136643	27237	1019980	42505	109666	0	0	8269	553200	0	0
2024-06-20 01:02:32			0	37933	0	0	0	26111	24700	136603	27124	1019970	42496	109668	0	0	8269	553756	0	0
2024-06-20 01:03:32			0	37945	0	0	0	26103	24700	136647	27053	1019962	42506	109665	0	0	8269	553286	0	0
2024-06-20 01:04:32			0	37952	0	0	0	26103	24690	136627	27204	1020007	42505	109665	0	0	8270	553044	0	0
2024-06-20 01:05:32			0	37960	0	0	0	26106	24700	136539	27353	1019962	42506	109666	0	0	8270	552700	0	0
2024-06-20 01:06:32			0	37965	0	0	0	26106	24700	136599	27164	1019997	42496	109666	0	0	8270	552504	0	0
2024-06-20 01:07:32			0	37973	0	0	0	26101	24690	136483	27123	1019944	42516	109664	0	0	8271	552223	0	0
2024-06-20 01:08:32			0	37981	0	0	0	26096	24690	136507	27326	1019971	42504	109662	0	0	8271	551910	0	0
2024-06-20 01:09:32			0	37991	0	0	0	26096	24690	136455	27149	1019980	42505	109662	0	0	8272	551519	0	0
2024-06-20 01:10:32			0	37979	0	0	0	26106	24690	136511	27261	1019873	42505	109666	0	0	8271	551988	0	0
2024-06-20 01:11:32			0	37974	0	0	0	26093	24690	136491	27111	1019944	42483	109661	0	0	8271	552184	0	0
2024-06-20 01:12:32			0	37999	0	0	0	26093	24690	136451	27170	1019980	42483	109661	0	0	8272	551207	0	0
2024-06-20 01:13:32			0	37971	0	0	0	26098	24700	136415	26994	1019962	42496	109663	0	0	8271	552270	0	0
2024-06-20 01:14:32			0	37997	0	0	0	26088	24690	136459	26941	1019998	42516	109659	0	0	8272	551285	0	0
2024-06-20 01:15:32			0	38009	0	0	0	26090	24680	136399	27043	1019963	42516	109660	0	0	8273	550848	0	0
2024-06-20 01:16:32			0	37991	0	0	0	26085	24690	136399	27142	1019891	42516	109658	0	0	8272	551519	0	0
2024-06-20 01:17:32			0	37990	0	0	0	26090	24690	136535	27189	1019918	42504	109660	0	0	8272	551559	0	0
2024-06-20 01:18:32			0	38009	0	0	0	26090	24680	136487	27131	1019927	42503	109660	0	0	8273	550848	0	0
2024-06-20 01:19:32			0	38009	0	0	0	26088	24680	136387	27313	1019936	42504	109659	0	0	8273	550848	0	0
2024-06-20 01:20:32			0	37993	0	0	0	26096	24690	136499	27156	1019918	42527	109662	0	0	8272	551441	0	0
2024-06-20 01:21:32			0	38005	0	0	0	26090	24680	136399	26909	1019900	42503	109660	0	0	8273	551004	0	0
2024-06-20 01:22:32			0	38004	0	0	0	26096	24690	136543	27052	1019926	42516	109662	0	0	8272	551012	0	0
2024-06-20 01:23:32			0	37994	0	0	0	26093	24680	136411	27223	1019900	42515	109661	0	0	8272	551434	0	0
2024-06-20 01:24:32			0	38004	0	0	0	26090	24680	136399	27305	1019927	42515	109660	0	0	8273	551043	0	0
2024-06-20 01:25:32			0	38004	0	0	0	26093	24680	136467	27152	1019963	42504	109661	0	0	8272	551043	0	0
2024-06-20 01:26:32			0	38021	0	0	0	26085	24680	136527	27199	1019909	42504	109658	0	0	8273	550380	0	0
2024-06-20 01:27:32			0	38006	0	0	0	26085	24680	136487	27052	1019963	42504	109658	0	0	8273	550965	0	0
2024-06-20 01:28:32			0	37993	0	0	0	26088	24680	136423	27282	1019882	42504	109659	0	0	8272	551473	0	0
2024-06-20 01:29:32			0	37999	0	0	0	26085	24670	136415	27156	1019945	42515	109658	0	0	8272	551270	0	0
2024-06-20 01:30:32			0	38026	0	0	0	26090	24670	136475	27286	1019865	42515	109660	0	0	8274	550216	0	0
2024-06-20 01:31:32			0	38022	0	0	0	26080	24680	136479	27057	1019989	42504	109656	0	0	8274	550341	0	0
2024-06-20 01:32:32			0	38003	0	0	0	26083	24680	136447	27072	1019900	42515	109657	0	0	8273	551082	0	0
2024-06-20 01:33:32			0	38008	0	0	0	26075	24680	136439	27325	1019909	42504	109654	0	0	8273	550887	0	0
2024-06-20 01:34:32			0	38026	0	0	0	26080	24680	136332	27098	1019900	42503	109656	0	0	8274	550185	0	0
2024-06-20 01:35:32			0	38006	0	0	0	26080	24670	136335	27329	1019892	42515	109656	0	0	8273	550996	0	0
2024-06-20 01:36:32			0	38012	0	0	0	26080	24670	136339	27067	1019892	42515	109656	0	0	8273	550762	0	0
2024-06-20 01:37:32			0	38022	0	0	0	26075	24670	136412	27092	1019838	42503	109654	0	0	8274	550372	0	0
2024-06-20 01:38:32			0	38013	0	0	0	26070	24670	136335	26975	1019838	42482	109652	0	0	8273	550723	0	0
2024-06-20 01:39:32			0	38032	0	0	0	26080	24680	136431	27189	1019873	42515	109656	0	0	8274	549951	0	0
2024-06-20 01:40:32			0	38021	0	0	0	26070	24670	136343	27076	1019838	42503	109652	0	0	8274	550411	0	0
2024-06-20 01:41:32			0	38047	0	0	0	26072	24670	136416	26814	1019883	42514	109653	0	0	8275	549398	0	0
2024-06-20 01:42:32			0	38026	0	0	0	26077	24660	136307	27180	1019812	42491	109655	0	0	8274	550247	0	0
2024-06-20 01:43:32			0	38027	0	0	0	26064	24660	136356	27187	1019839	42513	109650	0	0	8274	550208	0	0
2024-06-20 01:44:32			0	38025	0	0	0	26070	24670	136332	26875	1019803	42502	109652	0	0	8274	550255	0	0
2024-06-20 01:45:32			0	38014	0	0	0	26080	24660	136371	26878	1019848	42502	109656	0	0	8273	550715	0	0
2024-06-20 01:46:32			0	38024	0	0	0	26070	24660	136300	27114	1019848	42514	109652	0	0	8274	550325	0	0
2024-06-20 01:47:32			0	38039	0	0	0	26070	24660	136256	26998	1019785	42480	109652	0	0	8275	549741	0	0
2024-06-20 01:48:32			0	38030	0	0	0	26062	24660	136284	27270	1019794	42514	109649	0	0	8274	550091	0	0
2024-06-20 01:49:32			0	38041	0	0	0	26064	24660	136280	27211	1019848	42514	109650	0	0	8275	549663	0	0
2024-06-20 01:50:32			0	38032	0	0	0	26064	24660	136296	27327	1019759	42480	109650	0	0	8274	550013	0	0
2024-06-20 01:51:32			0	38045	0	0	0	26064	24660	136352	26902	1019866	42501	109650	0	0	8275	549507	0	0
2024-06-20 01:52:32			0	38041	0	0	0	26059	24660	136364	27154	1019821	42502	109648	0	0	8275	549663	0	0
2024-06-20 01:53:32			0	38030	0	0	0	26064	24650	136244	27085	1019804	42501	109650	0	0	8274	550123	0	0
2024-06-20 01:54:32			0	38052	0	0	0	26062	24660	136184	26854	1019794	42514	109649	0	0	8275	549234	0	0
2024-06-20 01:55:32			0	38054	0	0	0	26067	24650	136264	26982	1019795	42501	109651	0	0	8275	549187	0	0
2024-06-20 01:56:32			0	38054	0	0	0	26072	24660	136264	27059	1019839	42501	109653	0	0	8275	549156	0	0
2024-06-20 01:57:32			0	38032	0	0	0	26059	24650	136324	27171	1019822	42523	109648	0	0	8274	550045	0	0
2024-06-20 01:58:32			0	38033	0	0	0	26064	24660	136252	27222	1019785	42501	109650	0	0	8274	549974	0	0
2024-06-20 01:59:32			0	38034	0	0	0	26064	24650	136300	26864	1019804	42491	109650	0	0	8274	549966	0	0
2024-06-20 02:00:32			0	38019	0	0	0	26067	24660	136267	27057	1019785	42501	109651	0	0	8274	550520	0	0
2024-06-20 02:01:32			0	38049	0	0	0	26064	24660	136240	26946	1019785	42513	109650	0	0	8275	549351	0	0
2024-06-20 02:02:32			0	38028	0	0	0	26072	24660	136216	27272	1019812	42501	109653	0	0	8274	550169	0	0
2024-06-20 02:03:32			0	38048	0	0	0	26064	24650	136220	27055	1019777	42513	109650	0	0	8275	549421	0	0
2024-06-20 02:04:32			0	38034	0	0	0	26059	24650	136212	26989	1019804	42501	109648	0	0	8274	549966	0	0
2024-06-20 02:05:32			0	38056	0	0	0	26062	24660	136180	27144	1019839	42513	109649	0	0	8276	549078	0	0
2024-06-20 02:06:32			0	38070	0	0	0	26062	24660	136224	27145	1019839	42513	109649	0	0	8276	548533	0	0
2024-06-20 02:07:32			0	38045	0	0	0	26049	24650	136248	26909	1019777	42513	109644	0	0	8275	549538	0	0
2024-06-20 02:08:32			0	38064	0	0	0	26059	24650	136264	27298	1019849	42479	109648	0	0	8276	548798	0	0
2024-06-20 02:09:32			0	38045	0	0	0	26057	24650	136212	26871	1019830	42513	109647	0	0	8275	549538	0	0
2024-06-20 02:10:32			0	38054	0	0	0	26057	24650	136212	26972	1019741	42512	109647	0	0	8276	549187	0	0
2024-06-20 02:11:32			0	38062	0	0	0	26049	24650	136208	26897	1019777	42513	109644	0	0	8276	548876	0	0
2024-06-20 02:12:32			0	38064	0	0	0	26054	24650	136220	26927	1019715	42512	109646	0	0	8276	548798	0	0
2024-06-20 02:13:32			0	38081	0	0	0	26046	24650	136236	27067	1019777	42501	109643	0	0	8277	548136	0	0
2024-06-20 02:14:32			0	38047	0	0	0	26054	24640	136256	27121	1019813	42512	109646	0	0	8275	549491	0	0
2024-06-20 02:15:32			0	38062	0	0	0	26049	24650	136200	26967	1019768	42490	109644	0	0	8276	548876	0	0
2024-06-20 02:16:32			0	38090	0	0	0	26041	24640	136244	26889	1019724	42511	109641	0	0	8278	547817	0	0
2024-06-20 02:17:32			0	38071	0	0	0	26049	24640	136288	27090	1019733	42512	109644	0	0	8276	548556	0	0
2024-06-20 02:18:32			0	38067	0	0	0	26046	24640	136224	26930	1019760	42512	109643	0	0	8276	548712	0	0
2024-06-20 02:19:32			0	38075	0	0	0	26041	24640	136224	26989	1019760	42501	109641	0	0	8277	548401	0	0
2024-06-20 02:20:32			0	38084	0	0	0	26051	24640	136208	27092	1019724	42489	109645	0	0	8277	548051	0	0
2024-06-20 02:21:32			0	38078	0	0	0	26041	24640	136304	27208	1019733	42490	109641	0	0	8277	548284	0	0
2024-06-20 02:22:32			0	38077	0	0	0	26038	24640	136188	27341	1019671	42511	109640	0	0	8277	548323	0	0
2024-06-20 02:23:32			0	38090	0	0	0	26031	24630	136184	27121	1019662	42510	109637	0	0	8278	547848	0	0
2024-06-20 02:24:32			0	38077	0	0	0	26036	24640	136180	27331	1019724	42511	109639	0	0	8277	548323	0	0
2024-06-20 02:25:32			0	38085	0	0	0	26041	24640	136124	27287	1019778	42500	109641	0	0	8277	548012	0	0
2024-06-20 02:26:32			0	38086	0	0	0	26033	24630	136244	27147	1019600	42500	109638	0	0	8277	548004	0	0
2024-06-20 02:27:32			0	38091	0	0	0	26031	24640	136192	26984	1019751	42500	109637	0	0	8278	547778	0	0
2024-06-20 02:28:32			0	38087	0	0	0	26028	24640	136172	27209	1019698	42511	109636	0	0	8278	547934	0	0
2024-06-20 02:29:32			0	38091	0	0	0	26033	24630	136184	26923	1019716	42500	109638	0	0	8278	547809	0	0
2024-06-20 02:30:32			0	38108	0	0	0	26028	24630	136128	27286	1019654	42510	109636	0	0	8279	547149	0	0
2024-06-20 02:31:32			0	38103	0	0	0	26033	24620	136184	26941	1019672	42500	109638	0	0	8278	547374	0	0
2024-06-20 02:32:32			0	38098	0	0	0	26031	24620	136212	26974	1019698	42521	109637	0	0	8278	547568	0	0
2024-06-20 02:33:32			0	38085	0	0	0	26025	24640	136176	27409	1019644	42500	109635	0	0	8278	548012	0	0
2024-06-20 02:34:32			0	38097	0	0	0	26028	24620	136172	27355	1019752	42510	109636	0	0	8278	547607	0	0
2024-06-20 02:35:32			0	38092	0	0	0	26031	24640	136112	27358	1019671	42500	109637	0	0	8278	547740	0	0
2024-06-20 02:36:32			0	38108	0	0	0	26033	24630	136184	27294	1019654	42510	109638	0	0	8279	547149	0	0
2024-06-20 02:37:32			0	38104	0	0	0	26023	24630	136148	26868	1019654	42510	109634	0	0	8279	547304	0	0
2024-06-20 02:38:32			0	38091	0	0	0	26025	24630	136084	27033	1019707	42500	109635	0	0	8278	547809	0	0
2024-06-20 02:39:32			0	38090	0	0	0	26020	24620	136188	27175	1019636	42509	109633	0	0	8278	547879	0	0
2024-06-20 02:40:32			0	38121	0	0	0	26023	24610	136132	27057	1019628	42498	109634	0	0	8279	546706	0	0
2024-06-20 02:41:32			0	38083	0	0	0	26025	24620	136208	27365	1019645	42488	109635	0	0	8277	548152	0	0
2024-06-20 02:42:32			0	38093	0	0	0	26020	24620	136136	27156	1019698	42510	109633	0	0	8278	547763	0	0
2024-06-20 02:43:32			0	38097	0	0	0	26015	24620	136188	27036	1019672	42500	109631	0	0	8278	547607	0	0
2024-06-20 02:44:32			0	38089	0	0	0	26023	24620	136116	27144	1019618	42500	109634	0	0	8278	547918	0	0
2024-06-20 02:45:32			0	38110	0	0	0	26012	24620	136256	26955	1019618	42521	109630	0	0	8279	547102	0	0
2024-06-20 02:46:32			0	38093	0	0	0	26018	24630	136116	27126	1019627	42510	109632	0	0	8278	547732	0	0
2024-06-20 02:47:32			0	38096	0	0	0	26020	24620	136176	26911	1019645	42500	109633	0	0	8278	547646	0	0
2024-06-20 02:48:32			0	38085	0	0	0	26025	24620	136232	27133	1019698	42500	109635	0	0	8278	548074	0	0
2024-06-20 02:49:32			0	38105	0	0	0	26028	24620	136124	27015	1019663	42487	109636	0	0	8279	547296	0	0
2024-06-20 02:50:32			0	38110	0	0	0	26028	24620	136248	27005	1019636	42509	109636	0	0	8279	547102	0	0
2024-06-20 02:51:32			0	38102	0	0	0	26028	24630	136224	27098	1019734	42510	109636	0	0	8278	547382	0	0
2024-06-20 02:52:32			0	38102	0	0	0	26025	24620	136232	27116	1019636	42509	109635	0	0	8278	547413	0	0
2024-06-20 02:53:32			0	38089	0	0	0	26025	24620	136320	27265	1019698	42510	109635	0	0	8278	547918	0	0
2024-06-20 02:54:32			0	38061	0	0	0	26028	24620	136196	27196	1019636	42509	109636	0	0	8276	549008	0	0
2024-06-20 02:55:32			0	38089	0	0	0	26025	24620	136244	26863	1019690	42499	109635	0	0	8278	547918	0	0
2024-06-20 02:56:32			0	38097	0	0	0	26020	24620	136236	26911	1019618	42500	109633	0	0	8278	547607	0	0
2024-06-20 02:57:32			0	38080	0	0	0	26018	24620	136384	27086	1019645	42510	109632	0	0	8277	548268	0	0
2024-06-20 02:58:32			0	38099	0	0	0	26015	24610	136292	27242	1019601	42519	109631	0	0	8278	547560	0	0
2024-06-20 02:59:32			0	38088	0	0	0	26015	24600	136272	27071	1019611	42497	109631	0	0	8278	548019	0	0
2024-06-20 03:00:32			0	38097	0	0	0	26015	24620	136304	26909	1019663	42520	109631	0	0	8278	547607	0	0
2024-06-20 03:01:32			0	38079	0	0	0	26018	24620	136348	27138	1019663	42499	109632	0	0	8277	548307	0	0
2024-06-20 03:02:32			0	38081	0	0	0	26012	24600	136364	27149	1019611	42519	109630	0	0	8277	548291	0	0
2024-06-20 03:03:32			0	38093	0	0	0	26012	24600	136292	27192	1019646	42519	109630	0	0	8278	547825	0	0
2024-06-20 03:04:32			0	38075	0	0	0	26005	24610	136296	27116	1019574	42508	109627	0	0	8277	548494	0	0
2024-06-20 03:05:32			0	38060	0	0	0	26012	24610	136280	26928	1019628	42508	109630	0	0	8276	549078	0	0
2024-06-20 03:06:32			0	38072	0	0	0	26005	24600	136368	27074	1019566	42498	109627	0	0	8277	548642	0	0
2024-06-20 03:07:32			0	38089	0	0	0	26007	24600	136340	27046	1019566	42487	109628	0	0	8278	547980	0	0
2024-06-20 03:08:32			0	38070	0	0	0	26005	24610	136364	27033	1019601	42487	109627	0	0	8277	548689	0	0
2024-06-20 03:09:32			0	38067	0	0	0	26010	24600	136400	27223	1019557	42507	109629	0	0	8277	548836	0	0
2024-06-20 03:10:32			0	38070	0	0	0	26007	24600	136372	27178	1019557	42507	109628	0	0	8277	548720	0	0
2024-06-20 03:11:32			0	38084	0	0	0	26007	24600	136420	27251	1019584	42497	109628	0	0	8278	548175	0	0
2024-06-20 03:12:32			0	38083	0	0	0	26007	24600	136420	26925	1019611	42507	109628	0	0	8278	548214	0	0
2024-06-20 03:13:32			0	38052	0	0	0	26010	24600	136412	27353	1019592	42498	109629	0	0	8276	549421	0	0
2024-06-20 03:14:32			0	38069	0	0	0	25997	24590	136372	27272	1019575	42507	109624	0	0	8277	548789	0	0
2024-06-20 03:15:32			0	38056	0	0	0	26002	24590	136416	27173	1019548	42507	109626	0	0	8276	549296	0	0
2024-06-20 03:16:32			0	38059	0	0	0	25997	24600	136384	27039	1019611	42507	109624	0	0	8277	549148	0	0
2024-06-20 03:17:32			0	38068	0	0	0	26005	24600	136388	26868	1019611	42507	109627	0	0	8277	548797	0	0
2024-06-20 03:18:32			0	38039	0	0	0	26002	24600	136380	26878	1019619	42508	109626	0	0	8275	549927	0	0
2024-06-20 03:19:32			0	38042	0	0	0	26007	24600	136420	27105	1019584	42497	109628	0	0	8276	549810	0	0
2024-06-20 03:20:32			0	38060	0	0	0	26005	24620	136444	27246	1019583	42509	109627	0	0	8277	549047	0	0
2024-06-20 03:21:32			0	38049	0	0	0	26015	24600	136420	27324	1019699	42508	109631	0	0	8276	549537	0	0
2024-06-20 03:22:32			0	38052	0	0	0	26015	24600	136316	26882	1019726	42508	109631	0	0	8276	549421	0	0
2024-06-20 03:23:32			0	38048	0	0	0	26023	24600	136460	27220	1019673	42519	109634	0	0	8276	549576	0	0
2024-06-20 03:24:32			0	38030	0	0	0	26038	24620	136335	27298	1019717	42499	109640	0	0	8274	550216	0	0
2024-06-20 03:25:32			0	38034	0	0	0	26036	24620	136384	27124	1019805	42521	109639	0	0	8275	550060	0	0
2024-06-20 03:26:32			0	38037	0	0	0	26046	24620	136452	27024	1019672	42521	109643	0	0	8275	549943	0	0
2024-06-20 03:27:32			0	38041	0	0	0	26051	24630	136468	26979	1019761	42521	109645	0	0	8275	549756	0	0
2024-06-20 03:28:32			0	38048	0	0	0	26054	24640	136384	27170	1019778	42500	109646	0	0	8275	549452	0	0
2024-06-20 03:29:32			0	38023	0	0	0	26051	24640	136427	27019	1019724	42511	109645	0	0	8274	550427	0	0
2024-06-20 03:30:32			0	38004	0	0	0	26051	24640	136507	27173	1019751	42511	109645	0	0	8273	551168	0	0
2024-06-20 03:31:32			0	37998	0	0	0	26051	24640	136531	26951	1019751	42511	109645	0	0	8273	551402	0	0
2024-06-20 03:32:32			0	37995	0	0	0	26062	24630	136471	27220	1019734	42500	109649	0	0	8272	551551	0	0
2024-06-20 03:33:32			0	37987	0	0	0	26059	24640	136587	26811	1019751	42511	109648	0	0	8272	551832	0	0
2024-06-20 03:34:32			0	37965	0	0	0	26049	24640	136547	26870	1019778	42522	109644	0	0	8271	552692	0	0
2024-06-20 03:35:32			0	37979	0	0	0	26064	24640	136611	27043	1019778	42511	109650	0	0	8271	552144	0	0
2024-06-20 03:36:32			0	37989	0	0	0	26051	24640	136559	26911	1019778	42522	109645	0	0	8272	551754	0	0
2024-06-20 03:37:32			0	37969	0	0	0	26046	24640	136583	26717	1019698	42511	109643	0	0	8271	552535	0	0
2024-06-20 03:38:32			0	37989	0	0	0	26036	24630	136639	27121	1019742	42510	109639	0	0	8272	551785	0	0
2024-06-20 03:39:32			0	37963	0	0	0	26038	24630	136627	27234	1019742	42510	109640	0	0	8271	552801	0	0
2024-06-20 03:40:32			0	37985	0	0	0	26036	24630	136575	27357	1019742	42510	109639	0	0	8272	551941	0	0
2024-06-20 03:41:32			0	37969	0	0	0	26049	24630	136667	26953	1019716	42510	109644	0	0	8271	552567	0	0
2024-06-20 03:42:32			0	37965	0	0	0	26041	24630	136603	26989	1019769	42510	109641	0	0	8271	552723	0	0
2024-06-20 03:43:32			0	37975	0	0	0	26044	24630	136667	27244	1019742	42510	109642	0	0	8272	552332	0	0
2024-06-20 03:44:32			0	37982	0	0	0	26028	24630	136567	27085	1019742	42500	109636	0	0	8272	552059	0	0
2024-06-20 03:45:32			0	37976	0	0	0	26036	24630	136543	27436	1019707	42510	109639	0	0	8272	552293	0	0
2024-06-20 03:46:32			0	37962	0	0	0	26028	24640	136643	27213	1019778	42522	109636	0	0	8271	552809	0	0
2024-06-20 03:47:32			0	37963	0	0	0	26031	24630	136607	27029	1019689	42500	109637	0	0	8271	552801	0	0
2024-06-20 03:48:32			0	37973	0	0	0	26028	24620	136619	26963	1019717	42499	109636	0	0	8272	552442	0	0
2024-06-20 03:49:32			0	37981	0	0	0	26025	24630	136599	26837	1019627	42510	109635	0	0	8272	552098	0	0
2024-06-20 03:50:32			0	37960	0	0	0	26023	24620	136663	26989	1019636	42509	109634	0	0	8271	552950	0	0
2024-06-20 03:51:32			0	37971	0	0	0	26020	24610	136695	26996	1019681	42508	109633	0	0	8272	552551	0	0
2024-06-20 03:52:32			0	37986	0	0	0	26025	24620	136663	26946	1019725	42510	109635	0	0	8272	551933	0	0
2024-06-20 03:53:32			0	37963	0	0	0	26018	24620	136675	27161	1019663	42499	109632	0	0	8271	552832	0	0
2024-06-20 03:54:32			0	37972	0	0	0	26015	24620	136643	26824	1019690	42509	109631	0	0	8272	552481	0	0
2024-06-20 03:55:32			0	37960	0	0	0	26036	24620	136599	26968	1019663	42509	109639	0	0	8271	552950	0	0
2024-06-20 03:56:32			0	37969	0	0	0	26038	24620	136631	27161	1019698	42510	109640	0	0	8271	552598	0	0
2024-06-20 03:57:32			0	37965	0	0	0	26033	24630	136715	26923	1019680	42510	109638	0	0	8271	552723	0	0
2024-06-20 03:58:32			0	37950	0	0	0	26041	24620	136739	27237	1019618	42510	109641	0	0	8270	553341	0	0
2024-06-20 03:59:32			0	37959	0	0	0	26023	24630	136643	27450	1019600	42510	109634	0	0	8271	552958	0	0
2024-06-20 04:00:32			0	37968	0	0	0	26023	24620	136675	26956	1019636	42509	109634	0	0	8272	552637	0	0
2024-06-20 04:01:32			0	37961	0	0	0	26020	24620	136695	27142	1019663	42499	109633	0	0	8271	552911	0	0
2024-06-20 04:02:32			0	37937	0	0	0	26012	24610	136803	27105	1019601	42487	109630	0	0	8270	553881	0	0
2024-06-20 04:03:32			0	37940	0	0	0	26005	24600	136687	26739	1019584	42507	109627	0	0	8270	553795	0	0
2024-06-20 04:04:32			0	37949	0	0	0	26005	24600	136707	27131	1019557	42497	109627	0	0	8271	553443	0	0
2024-06-20 04:05:32			0	37949	0	0	0	25992	24600	136755	27033	1019584	42497	109622	0	0	8271	553443	0	0
2024-06-20 04:06:32			0	37949	0	0	0	25992	24600	136771	27310	1019584	42497	109622	0	0	8271	553443	0	0
2024-06-20 04:07:32			0	37934	0	0	0	25989	24600	136755	27161	1019584	42497	109621	0	0	8270	554030	0	0
2024-06-20 04:08:32			0	37948	0	0	0	25992	24580	136815	27246	1019451	42529	109622	0	0	8271	553545	0	0
2024-06-20 04:09:32			0	37941	0	0	0	25989	24580	136783	26838	1019531	42506	109621	0	0	8271	553819	0	0
2024-06-20 04:10:32			0	37928	0	0	0	25976	24580	136779	27196	1019451	42518	109616	0	0	8270	554328	0	0
2024-06-20 04:11:32			0	37920	0	0	0	25979	24580	136775	26719	1019424	42506	109617	0	0	8270	554642	0	0
2024-06-20 04:12:32			0	37940	0	0	0	25971	24580	136831	26944	1019496	42484	109614	0	0	8271	553858	0	0
2024-06-20 04:13:32			0	37932	0	0	0	25973	24570	136791	26873	1019460	42505	109615	0	0	8270	554203	0	0
2024-06-20 04:14:32			0	37914	0	0	0	25961	24580	136879	27003	1019469	42495	109610	0	0	8270	554877	0	0
2024-06-20 04:15:32			0	37926	0	0	0	25958	24580	136819	26765	1019451	42506	109609	0	0	8270	554406	0	0
2024-06-20 04:16:32			0	37918	0	0	0	25953	24560	136879	26920	1019381	42504	109607	0	0	8270	554783	0	0
2024-06-20 04:17:32			0	37917	0	0	0	25950	24560	136839	26828	1019283	42482	109606	0	0	8270	554822	0	0
2024-06-20 04:18:32			0	37916	0	0	0	25950	24560	136927	26873	1019354	42504	109606	0	0	8270	554861	0	0
2024-06-20 04:19:32			0	37909	0	0	0	25953	24560	136903	26949	1019328	42504	109607	0	0	8269	555136	0	0
2024-06-20 04:20:32			0	37907	0	0	0	25948	24550	136907	26987	1019345	42493	109605	0	0	8269	555245	0	0
2024-06-20 04:21:32			0	37921	0	0	0	25940	24550	136971	27010	1019265	42504	109602	0	0	8270	554696	0	0
2024-06-20 04:22:32			0	37893	0	0	0	25950	24550	136979	27227	1019345	42493	109606	0	0	8269	555795	0	0
2024-06-20 04:23:32			0	37896	0	0	0	25937	24540	137067	27225	1019248	42502	109601	0	0	8269	555708	0	0
2024-06-20 04:24:32			0	37890	0	0	0	25932	24540	136991	27225	1019293	42524	109599	0	0	8269	555944	0	0
2024-06-20 04:25:32			0	37889	0	0	0	25935	24540	137015	26677	1019275	42502	109600	0	0	8269	555983	0	0
2024-06-20 04:26:32			0	37881	0	0	0	25948	24540	137003	26979	1019328	42491	109605	0	0	8268	556297	0	0
2024-06-20 04:27:32			0	37879	0	0	0	25948	24540	137055	27190	1019328	42502	109605	0	0	8268	556376	0	0
2024-06-20 04:28:32			0	37897	0	0	0	25942	24550	137067	27215	1019337	42481	109603	0	0	8269	555638	0	0
2024-06-20 04:29:32			0	37917	0	0	0	25940	24540	137083	27164	1019302	42502	109602	0	0	8270	554885	0	0
2024-06-20 04:30:32			0	37875	0	0	0	25937	24540	137035	27199	1019275	42502	109601	0	0	8268	556533	0	0
2024-06-20 04:31:32			0	37889	0	0	0	25945	24540	136971	27083	1019239	42502	109604	0	0	8268	555983	0	0
2024-06-20 04:32:32			0	37892	0	0	0	25927	24540	137059	27215	1019266	42502	109597	0	0	8269	555865	0	0
2024-06-20 04:33:32			0	37874	0	0	0	25940	24530	137087	26923	1019276	42501	109602	0	0	8268	556604	0	0
2024-06-20 04:34:32			0	37850	0	0	0	25937	24530	137155	26906	1019258	42502	109601	0	0	8267	557547	0	0
2024-06-20 04:35:32			0	37863	0	0	0	25937	24530	137131	27126	1019222	42501	109601	0	0	8267	557036	0	0
2024-06-20 04:36:32			0	37868	0	0	0	25932	24530	137131	26979	1019222	42501	109599	0	0	8268	556840	0	0
2024-06-20 04:37:32			0	37888	0	0	0	25929	24520	137019	27159	1019240	42500	109598	0	0	8269	556085	0	0
2024-06-20 04:38:32			0	37881	0	0	0	25932	24530	137031	27118	1019169	42501	109599	0	0	8268	556329	0	0
2024-06-20 04:39:32			0	37890	0	0	0	25922	24530	137071	27121	1019249	42501	109595	0	0	8269	555975	0	0
2024-06-20 04:40:32			0	37908	0	0	0	25924	24520	137083	27104	1019267	42478	109596	0	0	8270	555300	0	0
2024-06-20 04:41:32			0	37900	0	0	0	25927	24530	137055	26691	1019311	42513	109597	0	0	8269	555583	0	0
2024-06-20 04:42:32			0	37901	0	0	0	25919	24520	136959	27121	1019232	42490	109594	0	0	8269	555575	0	0
2024-06-20 04:43:32			0	37912	0	0	0	25916	24520	136887	27083	1019187	42500	109593	0	0	8270	555144	0	0
2024-06-20 04:44:32			0	37929	0	0	0	25919	24520	136799	27229	1019187	42500	109594	0	0	8271	554477	0	0
2024-06-20 04:45:32			0	37953	0	0	0	25911	24520	136739	27235	1019232	42500	109591	0	0	8272	553537	0	0
2024-06-20 04:46:32			0	37982	0	0	0	25901	24510	136751	27150	1019134	42500	109587	0	0	8274	552433	0	0
2024-06-20 04:47:32			0	38005	0	0	0	25896	24500	136539	26939	1019037	42498	109585	0	0	8275	551566	0	0
2024-06-20 04:48:32			0	38014	0	0	0	25888	24500	136455	27118	1019064	42487	109582	0	0	8276	551214	0	0
2024-06-20 04:49:32			0	38055	0	0	0	25875	24490	136484	26967	1019001	42487	109577	0	0	8278	549646	0	0
2024-06-20 04:50:32			0	38075	0	0	0	25875	24480	136284	26897	1019029	42496	109577	0	0	8279	548897	0	0
2024-06-20 04:51:32			0	38079	0	0	0	25870	24490	136216	27078	1018993	42487	109575	0	0	8279	548711	0	0
2024-06-20 04:52:32			0	38122	0	0	0	25877	24490	136096	26958	1019055	42508	109578	0	0	8281	547038	0	0
2024-06-20 04:53:32			0	38148	0	0	0	25877	24490	136088	27026	1019055	42487	109578	0	0	8283	546028	0	0
2024-06-20 04:54:32			0	38151	0	0	0	25877	24480	136076	27178	1019011	42497	109578	0	0	8283	545942	0	0
2024-06-20 04:55:32			0	38173	0	0	0	25875	24480	135956	26897	1018949	42496	109577	0	0	8284	545089	0	0
2024-06-20 04:56:32			0	38208	0	0	0	25875	24480	135992	27133	1019011	42497	109577	0	0	8286	543733	0	0
2024-06-20 04:57:32			0	38194	0	0	0	25870	24480	135968	27124	1018958	42486	109575	0	0	8285	544275	0	0
2024-06-20 04:58:32			0	38206	0	0	0	25872	24470	135964	27275	1019021	42485	109576	0	0	8286	543841	0	0
2024-06-20 04:59:32			0	38220	0	0	0	25877	24470	135876	26672	1019021	42485	109578	0	0	8286	543299	0	0
2024-06-20 05:00:32			0	38202	0	0	0	25893	24480	135848	26873	1019091	42497	109584	0	0	8285	543965	0	0
2024-06-20 05:01:32			0	38210	0	0	0	25901	24480	135824	27100	1019118	42497	109587	0	0	8286	543655	0	0
2024-06-20 05:02:32			0	38200	0	0	0	25885	24490	135860	27131	1019073	42508	109581	0	0	8285	544012	0	0
2024-06-20 05:03:32			0	38230	0	0	0	25906	24480	135816	27199	1019038	42508	109589	0	0	8286	542881	0	0
2024-06-20 05:04:32			0	38226	0	0	0	25903	24490	135872	27180	1019162	42498	109588	0	0	8286	543005	0	0
2024-06-20 05:05:32			0	38189	0	0	0	25901	24490	135844	27015	1019153	42498	109587	0	0	8284	544438	0	0
2024-06-20 05:06:32			0	38206	0	0	0	25922	24500	135856	26653	1019206	42499	109595	0	0	8285	543748	0	0
2024-06-20 05:07:32			0	38204	0	0	0	25922	24500	135876	27062	1019152	42509	109595	0	0	8285	543826	0	0
2024-06-20 05:08:32			0	38215	0	0	0	25927	24510	135972	27081	1019241	42510	109597	0	0	8285	543369	0	0
2024-06-20 05:09:32			0	38185	0	0	0	25932	24500	135976	27241	1019233	42499	109599	0	0	8284	544562	0	0
2024-06-20 05:10:32			0	38165	0	0	0	25937	24510	135952	26949	1019268	42500	109601	0	0	8283	545306	0	0
2024-06-20 05:11:32			0	38171	0	0	0	25940	24510	135948	26859	1019268	42510	109602	0	0	8283	545074	0	0
2024-06-20 05:12:32			0	38166	0	0	0	25932	24520	135948	26824	1019205	42511	109599	0	0	8283	545237	0	0
2024-06-20 05:13:32			0	38169	0	0	0	25945	24520	136040	26958	1019285	42500	109604	0	0	8283	545121	0	0
2024-06-20 05:14:32			0	38148	0	0	0	25942	24510	135916	27095	1019215	42500	109603	0	0	8282	545966	0	0
2024-06-20 05:15:32			0	38181	0	0	0	25950	24520	136056	26942	1019339	42500	109606	0	0	8283	544655	0	0
2024-06-20 05:16:32			0	38148	0	0	0	25953	24520	136052	26870	1019347	42511	109607	0	0	8282	545935	0	0
2024-06-20 05:17:32			0	38155	0	0	0	25961	24520	136148	27241	1019285	42511	109610	0	0	8282	545664	0	0
2024-06-20 05:18:32			0	38166	0	0	0	25953	24530	136080	27057	1019276	42512	109607	0	0	8283	545206	0	0
2024-06-20 05:19:32			0	38158	0	0	0	25945	24520	136060	27029	1019214	42490	109604	0	0	8282	545547	0	0
2024-06-20 05:20:32			0	38150	0	0	0	25935	24510	136156	27036	1019223	42500	109600	0	0	8282	545888	0	0
2024-06-20 05:21:32			0	38151	0	0	0	25916	24520	136152	27055	1019160	42500	109593	0	0	8282	545819	0	0
2024-06-20 05:22:32			0	38151	0	0	0	25906	24510	136068	26949	1019134	42500	109589	0	0	8283	545850	0	0
2024-06-20 05:23:32			0	38156	0	0	0	25914	24500	136048	26896	1019090	42498	109592	0	0	8283	545687	0	0
2024-06-20 05:24:32			0	38184	0	0	0	25906	24500	136060	27218	1019099	42499	109589	0	0	8284	544601	0	0
2024-06-20 05:25:32			0	38169	0	0	0	25903	24500	136080	27100	1019144	42487	109588	0	0	8283	545182	0	0
2024-06-20 05:26:32			0	38159	0	0	0	25914	24500	136124	27020	1019126	42509	109592	0	0	8283	545570	0	0
2024-06-20 05:27:32			0	38151	0	0	0	25919	24500	136200	26776	1019179	42499	109594	0	0	8282	545881	0	0
2024-06-20 05:28:32			0	38142	0	0	0	25919	24500	136220	26948	1019179	42499	109594	0	0	8282	546230	0	0
2024-06-20 05:29:32			0	38144	0	0	0	25919	24500	136232	26939	1019233	42499	109594	0	0	8282	546152	0	0
2024-06-20 05:30:32			0	38125	0	0	0	25927	24510	136196	26788	1019215	42500	109597	0	0	8281	546859	0	0
2024-06-20 05:31:32			0	38117	0	0	0	25932	24510	136332	27208	1019250	42466	109599	0	0	8280	547170	0	0
2024-06-20 05:32:32			0	38083	0	0	0	25927	24520	136240	27008	1019259	42511	109597	0	0	8279	548462	0	0
2024-06-20 05:33:32			0	38095	0	0	0	25914	24510	136408	26965	1019223	42500	109592	0	0	8279	548026	0	0
2024-06-20 05:34:32			0	38072	0	0	0	25935	24510	136400	26871	1019161	42510	109600	0	0	8278	548921	0	0
2024-06-20 05:35:32			0	38046	0	0	0	25932	24510	136404	27345	1019250	42510	109599	0	0	8277	549934	0	0
2024-06-20 05:36:32			0	38020	0	0	0	25929	24520	136500	27038	1019214	42500	109598	0	0	8275	550917	0	0
2024-06-20 05:37:32			0	38038	0	0	0	25929	24530	136524	27197	1019249	42523	109598	0	0	8276	550184	0	0
2024-06-20 05:38:32			0	38018	0	0	0	25919	24520	136559	27249	1019339	42490	109594	0	0	8275	550995	0	0
2024-06-20 05:39:32			0	37996	0	0	0	25924	24520	136587	26955	1019294	42500	109596	0	0	8274	551855	0	0
2024-06-20 05:40:32			0	38013	0	0	0	25929	24510	136527	26922	1019348	42500	109598	0	0	8275	551222	0	0
2024-06-20 05:41:32			0	38004	0	0	0	25929	24530	136563	27138	1019302	42501	109598	0	0	8275	551511	0	0
2024-06-20 05:42:32			0	37990	0	0	0	25935	24520	136615	27248	1019285	42500	109600	0	0	8274	552089	0	0
2024-06-20 05:43:32			0	37972	0	0	0	25927	24520	136591	26748	1019267	42490	109597	0	0	8273	552793	0	0
2024-06-20 05:44:32			0	37968	0	0	0	25935	24530	136671	27107	1019258	42513	109600	0	0	8273	552918	0	0
2024-06-20 05:45:32			0	37978	0	0	0	25932	24520	136619	27048	1019267	42500	109599	0	0	8273	552558	0	0
2024-06-20 05:46:32			0	37977	0	0	0	25937	24520	136627	27145	1019267	42500	109601	0	0	8273	552597	0	0
2024-06-20 05:47:32			0	37956	0	0	0	25937	24530	136747	27196	1019302	42523	109601	0	0	8272	553388	0	0
2024-06-20 05:48:32			0	37969	0	0	0	25932	24520	136771	27364	1019267	42500	109599	0	0	8273	552910	0	0
2024-06-20 05:49:32			0	37963	0	0	0	25932	24530	136667	27206	1019302	42501	109599	0	0	8272	553114	0	0
2024-06-20 05:50:32			0	37980	0	0	0	25924	24520	136679	27402	1019267	42500	109596	0	0	8273	552480	0	0
2024-06-20 05:51:32			0	37984	0	0	0	25935	24520	136707	27194	1019294	42500	109600	0	0	8273	552324	0	0
2024-06-20 05:52:32			0	37987	0	0	0	25929	24530	136731	27281	1019302	42501	109598	0	0	8274	552175	0	0
2024-06-20 05:53:32			0	37972	0	0	0	25932	24530	136659	26684	1019329	42501	109599	0	0	8273	552762	0	0
2024-06-20 05:54:32			0	37979	0	0	0	25927	24510	136603	27161	1019277	42510	109597	0	0	8273	552551	0	0
2024-06-20 05:55:32			0	37982	0	0	0	25924	24520	136615	27230	1019259	42500	109596	0	0	8274	552402	0	0
2024-06-20 05:56:32			0	37981	0	0	0	25919	24510	136567	27041	1019196	42510	109594	0	0	8274	552472	0	0
2024-06-20 05:57:32			0	38009	0	0	0	25914	24500	136555	27116	1019179	42499	109592	0	0	8275	551409	0	0
2024-06-20 05:58:32			0	37994	0	0	0	25909	24510	136571	27013	1019250	42510	109590	0	0	8274	551964	0	0
2024-06-20 05:59:32			0	38004	0	0	0	25911	24500	136527	27118	1019171	42520	109591	0	0	8275	551605	0	0
2024-06-20 06:00:32			0	38001	0	0	0	25919	24510	136615	27031	1019161	42500	109594	0	0	8275	551691	0	0
2024-06-20 06:01:32			0	38004	0	0	0	25909	24500	136607	27012	1019152	42499	109590	0	0	8275	551605	0	0
2024-06-20 06:02:32			0	38015	0	0	0	25909	24500	136575	27043	1019072	42499	109590	0	0	8275	551175	0	0
2024-06-20 06:03:32			0	38030	0	0	0	25898	24490	136595	27138	1019189	42508	109586	0	0	8276	550621	0	0
2024-06-20 06:04:32			0	38014	0	0	0	25896	24490	136539	27135	1019082	42508	109585	0	0	8276	551245	0	0
2024-06-20 06:05:32			0	38038	0	0	0	25893	24500	136580	26812	1019197	42508	109584	0	0	8277	550277	0	0
2024-06-20 06:06:32			0	38029	0	0	0	25901	24500	136527	26979	1019117	42498	109587	0	0	8276	550629	0	0
2024-06-20 06:07:32			0	38036	0	0	0	25890	24500	136588	26859	1019117	42508	109583	0	0	8277	550355	0	0
2024-06-20 06:08:32			0	38020	0	0	0	25890	24490	136587	26975	1019127	42498	109583	0	0	8276	551011	0	0
2024-06-20 06:09:32			0	38031	0	0	0	25896	24490	136560	27220	1019055	42498	109585	0	0	8276	550582	0	0
2024-06-20 06:10:32			0	38023	0	0	0	25893	24500	136475	26785	1019144	42487	109584	0	0	8276	550863	0	0
2024-06-20 06:11:32			0	38052	0	0	0	25885	24480	136500	27064	1019056	42507	109581	0	0	8278	549794	0	0
2024-06-20 06:12:32			0	38025	0	0	0	25885	24490	136531	27090	1019028	42508	109581	0	0	8276	550816	0	0
2024-06-20 06:13:32			0	38009	0	0	0	25885	24490	136539	26798	1019055	42498	109581	0	0	8275	551441	0	0
2024-06-20 06:14:32			0	37996	0	0	0	25885	24490	136559	26849	1019046	42508	109581	0	0	8275	551949	0	0
2024-06-20 06:15:32			0	38014	0	0	0	25880	24490	136567	27060	1019028	42498	109579	0	0	8276	551245	0	0
2024-06-20 06:16:32			0	38004	0	0	0	25875	24490	136579	26863	1019020	42498	109577	0	0	8275	551636	0	0
2024-06-20 06:17:32			0	38005	0	0	0	25867	24480	136599	27074	1019029	42485	109574	0	0	8275	551628	0	0
2024-06-20 06:18:32			0	38010	0	0	0	25875	24480	136651	27282	1019091	42497	109577	0	0	8276	551433	0	0
2024-06-20 06:19:32			0	38007	0	0	0	25872	24470	136627	27253	1019047	42507	109576	0	0	8275	551581	0	0
2024-06-20 06:20:32			0	38000	0	0	0	25877	24470	136647	27166	1019074	42496	109578	0	0	8275	551855	0	0
2024-06-20 06:21:32			0	38028	0	0	0	25870	24480	136636	27441	1019038	42497	109575	0	0	8277	550730	0	0
2024-06-20 06:22:32			0	38019	0	0	0	25870	24470	136675	26979	1018958	42496	109575	0	0	8276	551112	0	0
2024-06-20 06:23:32			0	38018	0	0	0	25867	24470	136711	27237	1018958	42507	109574	0	0	8276	551151	0	0
2024-06-20 06:24:32			0	38022	0	0	0	25872	24470	136552	27263	1018932	42496	109576	0	0	8276	550995	0	0
2024-06-20 06:25:32			0	38021	0	0	0	25867	24470	136519	27306	1019012	42496	109574	0	0	8276	551034	0	0
2024-06-20 06:26:32			0	38031	0	0	0	25870	24470	136595	27249	1018967	42496	109575	0	0	8277	550644	0	0
2024-06-20 06:27:32			0	38028	0	0	0	25872	24470	136611	27287	1019012	42518	109576	0	0	8277	550761	0	0
2024-06-20 06:28:32			0	38038	0	0	0	25883	24470	136556	27048	1018985	42518	109580	0	0	8277	550371	0	0
2024-06-20 06:29:32			0	38036	0	0	0	25893	24480	136460	27239	1019056	42496	109584	0	0	8277	550418	0	0
2024-06-20 06:30:32			0	38031	0	0	0	25880	24480	136472	27260	1019002	42507	109579	0	0	8277	550613	0	0
2024-06-20 06:31:32			0	38050	0	0	0	25883	24480	136476	27265	1019038	42497	109580	0	0	8278	549872	0	0
2024-06-20 06:32:32			0	38050	0	0	0	25870	24470	136440	27173	1019021	42518	109575	0	0	8278	549903	0	0
2024-06-20 06:33:32			0	38091	0	0	0	25877	24490	136396	26894	1019046	42508	109578	0	0	8280	548243	0	0
2024-06-20 06:34:32			0	38080	0	0	0	25870	24480	136352	27324	1019002	42496	109575	0	0	8279	548702	0	0
2024-06-20 06:35:32			0	38114	0	0	0	25864	24480	136260	26719	1019002	42507	109573	0	0	8281	547380	0	0
2024-06-20 06:36:32			0	38111	0	0	0	25862	24480	136256	26982	1018976	42507	109572	0	0	8281	547496	0	0
2024-06-20 06:37:32			0	38112	0	0	0	25867	24480	136248	26741	1018976	42496	109574	0	0	8281	547457	0	0
2024-06-20 06:38:32			0	38145	0	0	0	25851	24470	136144	27248	1018985	42507	109568	0	0	8283	546206	0	0
2024-06-20 06:39:32			0	38165	0	0	0	25857	24460	136080	27228	1019003	42495	109570	0	0	8284	545461	0	0
2024-06-20 06:40:32			0	38164	0	0	0	25851	24460	136032	27307	1018923	42495	109568	0	0	8284	545499	0	0
2024-06-20 06:41:32			0	38174	0	0	0	25883	24470	136056	26982	1019101	42496	109580	0	0	8284	545081	0	0
2024-06-20 06:42:32			0	38199	0	0	0	25890	24480	135996	27176	1019145	42519	109583	0	0	8285	544081	0	0
2024-06-20 06:43:32			0	38202	0	0	0	25890	24480	135908	26942	1019136	42496	109583	0	0	8285	543965	0	0
2024-06-20 06:44:32			0	38206	0	0	0	25903	24480	135872	27303	1019091	42508	109588	0	0	8285	543810	0	0
2024-06-20 06:45:32			0	38220	0	0	0	25903	24480	135808	27197	1019011	42508	109588	0	0	8286	543268	0	0
2024-06-20 06:46:32			0	38203	0	0	0	25888	24480	135896	26984	1019056	42507	109582	0	0	8285	543926	0	0
2024-06-20 06:47:32			0	38219	0	0	0	25885	24480	135776	27301	1019136	42496	109581	0	0	8286	543307	0	0
2024-06-20 06:48:32			0	38230	0	0	0	25896	24480	135784	27253	1019145	42497	109585	0	0	8287	542881	0	0
2024-06-20 06:49:32			0	38261	0	0	0	25906	24490	135708	26783	1019215	42520	109589	0	0	8288	541652	0	0
2024-06-20 06:50:32			0	38275	0	0	0	25924	24500	135728	27128	1019224	42508	109596	0	0	8289	541081	0	0
2024-06-20 06:51:32			0	38276	0	0	0	25922	24490	135636	27194	1019189	42498	109595	0	0	8289	541073	0	0
2024-06-20 06:52:32			0	38286	0	0	0	25909	24500	135604	27133	1019197	42498	109590	0	0	8289	540657	0	0
2024-06-20 06:53:32			0	38304	0	0	0	25911	24500	135536	27093	1019117	42508	109591	0	0	8290	539962	0	0
2024-06-20 06:54:32			0	38288	0	0	0	25909	24490	135580	27024	1019162	42508	109590	0	0	8289	540610	0	0
2024-06-20 06:55:32			0	38298	0	0	0	25911	24500	135484	27128	1019259	42499	109591	0	0	8290	540194	0	0
2024-06-20 06:56:32			0	38300	0	0	0	25922	24500	135480	27076	1019278	42498	109595	0	0	8290	540117	0	0
2024-06-20 06:57:32			0	38311	0	0	0	25935	24510	135468	27223	1019241	42522	109600	0	0	8290	539662	0	0
2024-06-20 06:58:32			0	38321	0	0	0	25945	24520	135392	27377	1019374	42511	109604	0	0	8291	539246	0	0
2024-06-20 06:59:32			0	38327	0	0	0	25953	24520	135376	27268	1019374	42511	109607	0	0	8291	539015	0	0
2024-06-20 07:00:32			0	38323	0	0	0	25966	24530	135368	27173	1019383	42501	109612	0	0	8290	539139	0	0
2024-06-20 07:01:32			0	38309	0	0	0	25968	24530	135428	27029	1019463	42512	109613	0	0	8290	539678	0	0
2024-06-20 07:02:32			0	38297	0	0	0	25973	24530	135448	27156	1019445	42513	109615	0	0	8289	540140	0	0
2024-06-20 07:03:32			0	38308	0	0	0	25976	24540	135448	27223	1019489	42513	109616	0	0	8290	539686	0	0
2024-06-20 07:04:32			0	38282	0	0	0	25989	24550	135552	27194	1019497	42525	109621	0	0	8288	540658	0	0
2024-06-20 07:05:32			0	38287	0	0	0	25989	24540	135512	27293	1019516	42524	109621	0	0	8288	540496	0	0
2024-06-20 07:06:32			0	38301	0	0	0	25994	24560	135572	27147	1019568	42515	109623	0	0	8289	539895	0	0
2024-06-20 07:07:32			0	38275	0	0	0	25992	24570	135504	27274	1019559	42504	109622	0	0	8288	540867	0	0
2024-06-20 07:08:32			0	38275	0	0	0	25999	24570	135548	27081	1019612	42516	109625	0	0	8288	540867	0	0
2024-06-20 07:09:32			0	38263	0	0	0	26002	24580	135480	27178	1019630	42528	109626	0	0	8287	541299	0	0
2024-06-20 07:10:32			0	38275	0	0	0	26010	24580	135468	27258	1019656	42505	109629	0	0	8287	540836	0	0
2024-06-20 07:11:32			0	38270	0	0	0	26005	24580	135548	26790	1019603	42505	109627	0	0	8287	541029	0	0
2024-06-20 07:12:32			0	38291	0	0	0	26005	24580	135532	27298	1019603	42517	109627	0	0	8288	540219	0	0
2024-06-20 07:13:32			0	38295	0	0	0	26002	24580	135540	27048	1019603	42517	109626	0	0	8289	540065	0	0
2024-06-20 07:14:32			0	38306	0	0	0	25999	24580	135584	27227	1019603	42517	109625	0	0	8289	539641	0	0
2024-06-20 07:15:32			0	38307	0	0	0	26005	24580	135500	27145	1019638	42518	109627	0	0	8289	539602	0	0
2024-06-20 07:16:32			0	38302	0	0	0	25999	24570	135476	27222	1019621	42528	109625	0	0	8289	539826	0	0
2024-06-20 07:17:32			0	38344	0	0	0	25999	24580	135424	27289	1019576	42505	109625	0	0	8291	538178	0	0
2024-06-20 07:18:32			0	38315	0	0	0	26005	24580	135392	27116	1019496	42528	109627	0	0	8290	539294	0	0
2024-06-20 07:19:32			0	38337	0	0	0	26002	24570	135464	27303	1019568	42517	109626	0	0	8291	538478	0	0
2024-06-20 07:20:32			0	38333	0	0	0	26005	24590	135444	27154	1019620	42529	109627	0	0	8291	538571	0	0
2024-06-20 07:21:32			0	38348	0	0	0	26002	24570	135332	27118	1019594	42505	109626	0	0	8291	538055	0	0
2024-06-20 07:22:32			0	38324	0	0	0	25997	24570	135416	27300	1019594	42517	109624	0	0	8290	538978	0	0
2024-06-20 07:23:32			0	38318	0	0	0	25999	24570	135392	26951	1019568	42528	109625	0	0	8290	539209	0	0
2024-06-20 07:24:32			0	38343	0	0	0	26005	24570	135408	27443	1019648	42517	109627	0	0	8291	538247	0	0
2024-06-20 07:25:32			0	38328	0	0	0	26005	24570	135420	27203	1019568	42517	109627	0	0	8290	538824	0	0
2024-06-20 07:26:32			0	38325	0	0	0	26012	24580	135440	27358	1019638	42518	109630	0	0	8290	538909	0	0
2024-06-20 07:27:32			0	38318	0	0	0	26007	24580	135476	27235	1019611	42529	109628	0	0	8290	539179	0	0
2024-06-20 07:28:32			0	38313	0	0	0	26015	24580	135416	27261	1019718	42529	109631	0	0	8289	539371	0	0
2024-06-20 07:29:32			0	38314	0	0	0	26015	24590	135524	26939	1019647	42529	109631	0	0	8289	539302	0	0
2024-06-20 07:30:32			0	38305	0	0	0	26015	24590	135432	27066	1019736	42519	109631	0	0	8289	539649	0	0
2024-06-20 07:31:32			0	38311	0	0	0	26012	24600	135488	27253	1019726	42508	109630	0	0	8289	539387	0	0
2024-06-20 07:32:32			0	38310	0	0	0	26010	24590	135480	27291	1019709	42519	109629	0	0	8289	539456	0	0
2024-06-20 07:33:32			0	38324	0	0	0	26015	24600	135468	27027	1019699	42531	109631	0	0	8290	538887	0	0
2024-06-20 07:34:32			0	38295	0	0	0	26023	24600	135524	27024	1019771	42530	109634	0	0	8288	540004	0	0
2024-06-20 07:35:32			0	38295	0	0	0	26018	24600	135500	27280	1019699	42531	109632	0	0	8288	540004	0	0
2024-06-20 07:36:32			0	38284	0	0	0	26025	24610	135552	26960	1019735	42519	109635	0	0	8288	540397	0	0
2024-06-20 07:37:32			0	38296	0	0	0	26033	24620	135564	27346	1019797	42520	109638	0	0	8288	539904	0	0
2024-06-20 07:38:32			0	38284	0	0	0	26020	24620	135556	26961	1019743	42509	109633	0	0	8288	540367	0	0
2024-06-20 07:39:32			0	38260	0	0	0	26031	24610	135648	27192	1019788	42519	109637	0	0	8286	541323	0	0
2024-06-20 07:40:32			0	38265	0	0	0	26031	24620	135584	27109	1019743	42509	109637	0	0	8287	541100	0	0
2024-06-20 07:41:32			0	38259	0	0	0	26025	24600	135628	27326	1019726	42508	109635	0	0	8286	541393	0	0
2024-06-20 07:42:32			0	38277	0	0	0	26031	24600	135668	26915	1019664	42519	109637	0	0	8287	540698	0	0
2024-06-20 07:43:32			0	38247	0	0	0	26025	24620	135644	27319	1019743	42520	109635	0	0	8286	541795	0	0
2024-06-20 07:44:32			0	38243	0	0	0	26025	24620	135656	26927	1019717	42532	109635	0	0	8286	541949	0	0
2024-06-20 07:45:32			0	38233	0	0	0	26038	24610	135724	27220	1019762	42519	109640	0	0	8285	542366	0	0
2024-06-20 07:46:32			0	38191	0	0	0	26044	24630	135724	27135	1019814	42533	109642	0	0	8283	543929	0	0
2024-06-20 07:47:32			0	38227	0	0	0	26044	24620	135756	26807	1019797	42520	109642	0	0	8285	542567	0	0
2024-06-20 07:48:32			0	38199	0	0	0	26046	24610	135788	27138	1019762	42508	109643	0	0	8283	543681	0	0
2024-06-20 07:49:32			0	38205	0	0	0	26046	24620	135868	27246	1019850	42520	109643	0	0	8283	543418	0	0
2024-06-20 07:50:32			0	38183	0	0	0	26054	24620	135912	26828	1019832	42533	109646	0	0	8282	544270	0	0
2024-06-20 07:51:32			0	38160	0	0	0	26049	24640	135812	26868	1019778	42544	109644	0	0	8281	545099	0	0
2024-06-20 07:52:32			0	38151	0	0	0	26062	24630	135936	27017	1019903	42521	109649	0	0	8280	545479	0	0
2024-06-20 07:53:32			0	38137	0	0	0	26057	24630	136120	26854	1019876	42533	109647	0	0	8280	546022	0	0
2024-06-20 07:54:32			0	38137	0	0	0	26067	24630	136164	26894	1019876	42521	109651	0	0	8280	546022	0	0
2024-06-20 07:55:32			0	38106	0	0	0	26059	24640	136240	27024	1019893	42523	109648	0	0	8278	547195	0	0
2024-06-20 07:56:32			0	38081	0	0	0	26067	24640	136272	26786	1019965	42534	109651	0	0	8277	548167	0	0
2024-06-20 07:57:32			0	38053	0	0	0	26072	24650	136368	27223	1019956	42534	109653	0	0	8275	549226	0	0
2024-06-20 07:58:32			0	38008	0	0	0	26064	24650	136415	27164	1019956	42523	109650	0	0	8273	550981	0	0
2024-06-20 07:59:32			0	37982	0	0	0	26064	24640	136627	26656	1019893	42512	109650	0	0	8272	552027	0	0
2024-06-20 08:00:32			0	37928	0	0	0	26062	24650	136739	26989	1019929	42534	109649	0	0	8269	554108	0	0
2024-06-20 08:01:32			0	37900	0	0	0	26044	24640	136835	27157	1019813	42534	109642	0	0	8268	555237	0	0
2024-06-20 08:02:32			0	37862	0	0	0	26020	24640	136975	26720	1019831	42511	109633	0	0	8266	556729	0	0
2024-06-20 08:03:32			0	37816	0	0	0	25984	24640	137135	27076	1019626	42512	109619	0	0	8264	558538	0	0
2024-06-20 08:04:32			0	37772	0	0	0	25935	24610	137383	27086	1019494	42498	109600	0	0	8263	560367	0	0
2024-06-20 08:05:32			0	37714	0	0	0	25896	24600	137603	26691	1019263	42474	109585	0	0	8260	562690	0	0
2024-06-20 08:06:32			0	37656	0	0	0	25859	24560	137847	26960	1019176	42482	109571	0	0	8258	565115	0	0
2024-06-20 08:07:32			0	37596	0	0	0	25846	24550	138035	27183	1019257	42492	109566	0	0	8255	567531	0	0
2024-06-20 08:08:32			0	37512	0	0	0	25864	24550	138327	26628	1019364	42514	109573	0	0	8250	570878	0	0
2024-06-20 08:09:32			0	37432	0	0	0	25875	24540	138583	27104	1019355	42524	109577	0	0	8246	574111	0	0
2024-06-20 08:10:32			0	37350	0	0	0	25872	24530	138831	27293	1019204	42502	109576	0	0	8242	577437	0	0
2024-06-20 08:11:32			0	37275	0	0	0	25844	24520	139154	27015	1019107	42467	109565	0	0	8238	580492	0	0
2024-06-20 08:12:32			0	37203	0	0	0	25836	24520	139546	27093	1019151	42500	109562	0	0	8235	583404	0	0
2024-06-20 08:13:32			0	37145	0	0	0	25836	24520	139630	27270	1019240	42511	109562	0	0	8232	585756	0	0
2024-06-20 08:14:32			0	37068	0	0	0	25862	24520	139970	27062	1019339	42490	109572	0	0	8227	588889	0	0
2024-06-20 08:15:32			0	36986	0	0	0	25885	24530	140226	26991	1019391	42502	109581	0	0	8223	592205	0	0
2024-06-20 08:16:32			0	36921	0	0	0	25896	24540	140410	27057	1019427	42502	109585	0	0	8219	594834	0	0
2024-06-20 08:17:32			0	36850	0	0	0	25924	24540	140826	27043	1019489	42513	109596	0	0	8215	597753	0	0
2024-06-20 08:18:32			0	36803	0	0	0	25932	24560	140942	27055	1019542	42504	109599	0	0	8212	599622	0	0
2024-06-20 08:19:32			0	36733	0	0	0	25953	24560	141138	26922	1019631	42504	109607	0	0	8208	602514	0	0
2024-06-20 08:20:32			0	36687	0	0	0	25976	24570	141338	27048	1019701	42517	109616	0	0	8206	604386	0	0
2024-06-20 08:21:32			0	36639	0	0	0	25981	24570	141514	27466	1019675	42495	109618	0	0	8203	606379	0	0
2024-06-20 08:22:32			0	36591	0	0	0	25986	24580	141625	26785	1019692	42518	109620	0	0	8200	608343	0	0
2024-06-20 08:23:32			0	36546	0	0	0	25989	24580	141873	27265	1019665	42506	109621	0	0	8198	610219	0	0
2024-06-20 08:24:32			0	36513	0	0	0	25984	24590	142025	27208	1019647	42518	109619	0	0	8196	611564	0	0
2024-06-20 08:25:32			0	36481	0	0	0	25986	24600	142129	27147	1019637	42519	109620	0	0	8195	612868	0	0
2024-06-20 08:26:32			0	36435	0	0	0	25992	24590	142265	27121	1019655	42519	109622	0	0	8192	614831	0	0
2024-06-20 08:27:32			0	36394	0	0	0	26002	24600	142365	27275	1019691	42497	109626	0	0	8190	616518	0	0
2024-06-20 08:28:32			0	36328	0	0	0	25994	24600	142597	27126	1019664	42507	109623	0	0	8186	619298	0	0
2024-06-20 08:29:32			0	36325	0	0	0	25981	24590	142769	26831	1019709	42519	109618	0	0	8186	619459	0	0
2024-06-20 08:30:32			0	36274	0	0	0	25981	24600	142769	26672	1019699	42508	109618	0	0	8184	621579	0	0
2024-06-20 08:31:32			0	36227	0	0	0	25984	24600	142981	27199	1019753	42508	109619	0	0	8181	623568	0	0
2024-06-20 08:32:32			0	36212	0	0	0	25989	24600	143077	27069	1019691	42507	109621	0	0	8180	624204	0	0
2024-06-20 08:33:32			0	36163	0	0	0	25994	24610	143213	27464	1019735	42541	109623	0	0	8178	626249	0	0
2024-06-20 08:34:32			0	36155	0	0	0	25999	24620	143469	27293	1019824	42520	109625	0	0	8177	626554	0	0
2024-06-20 08:35:32			0	36105	0	0	0	26020	24610	143545	27351	1019762	42508	109633	0	0	8174	628718	0	0
2024-06-20 08:36:32			0	36080	0	0	0	26023	24630	143661	27190	1019868	42521	109634	0	0	8173	629713	0	0
2024-06-20 08:37:32			0	36052	0	0	0	26025	24620	143721	27211	1019770	42532	109635	0	0	8171	630945	0	0
2024-06-20 08:38:32			0	36023	0	0	0	26020	24620	143841	27364	1019824	42520	109633	0	0	8170	632185	0	0
2024-06-20 08:39:32			0	35999	0	0	0	26018	24630	143841	26920	1019849	42510	109632	0	0	8169	633176	0	0
2024-06-20 08:40:32			0	35976	0	0	0	26028	24620	143953	27197	1019859	42533	109636	0	0	8167	634198	0	0
2024-06-20 08:41:32			0	35952	0	0	0	26036	24630	144113	27320	1019876	42521	109639	0	0	8166	635192	0	0
2024-06-20 08:42:32			0	35941	0	0	0	26041	24640	144185	27263	1019912	42534	109641	0	0	8165	635629	0	0
2024-06-20 08:43:32			0	35905	0	0	0	26041	24640	144289	27249	1019885	42522	109641	0	0	8163	637177	0	0
2024-06-20 08:44:32			0	35885	0	0	0	26041	24640	144237	27242	1019920	42523	109641	0	0	8162	638038	0	0
2024-06-20 08:45:32			0	35866	0	0	0	26051	24630	144445	27410	1019930	42521	109645	0	0	8161	638892	0	0
2024-06-20 08:46:32			0	35863	0	0	0	26044	24640	144473	27412	1019974	42523	109642	0	0	8161	638986	0	0
2024-06-20 08:47:32			0	35856	0	0	0	26046	24640	144557	27362	1019912	42534	109643	0	0	8161	639288	0	0
2024-06-20 08:48:32			0	35823	0	0	0	26044	24640	144632	26993	1019912	42522	109642	0	0	8159	640712	0	0
2024-06-20 08:49:32			0	35812	0	0	0	26036	24640	144632	26896	1019920	42512	109639	0	0	8159	641187	0	0
2024-06-20 08:50:32			0	35811	0	0	0	26031	24630	144704	27133	1019876	42510	109637	0	0	8159	641267	0	0
2024-06-20 08:51:32			0	35791	0	0	0	26023	24640	144604	27203	1019805	42511	109634	0	0	8158	642095	0	0
2024-06-20 08:52:32			0	35783	0	0	0	26012	24630	144824	26977	1019761	42500	109630	0	0	8157	642478	0	0
2024-06-20 08:53:32			0	35765	0	0	0	26007	24620	144792	27100	1019779	42510	109628	0	0	8156	643294	0	0
2024-06-20 08:54:32			0	35760	0	0	0	26005	24630	144888	26904	1019761	42521	109627	0	0	8156	643474	0	0
2024-06-20 08:55:32			0	35741	0	0	0	26007	24620	144900	26913	1019698	42521	109628	0	0	8155	644334	0	0
2024-06-20 08:56:32			0	35729	0	0	0	26007	24620	145020	27260	1019743	42509	109628	0	0	8155	644855	0	0
2024-06-20 08:57:32			0	35742	0	0	0	25997	24610	144936	27410	1019681	42508	109624	0	0	8155	644327	0	0
2024-06-20 08:58:32			0	35725	0	0	0	25992	24610	145036	27265	1019628	42508	109622	0	0	8155	645065	0	0
2024-06-20 08:59:32			0	35736	0	0	0	25984	24590	144916	27192	1019629	42497	109619	0	0	8155	644661	0	0
2024-06-20 09:00:32			0	35722	0	0	0	25966	24590	145036	27241	1019567	42506	109612	0	0	8155	645269	0	0
2024-06-20 09:01:32			0	35712	0	0	0	25963	24580	145100	27112	1019558	42496	109611	0	0	8154	645739	0	0
2024-06-20 09:02:32			0	35715	0	0	0	25963	24590	145024	27253	1019540	42506	109611	0	0	8154	645573	0	0
2024-06-20 09:03:32			0	35713	0	0	0	25961	24570	145076	27118	1019541	42517	109610	0	0	8154	645732	0	0
2024-06-20 09:04:32			0	35707	0	0	0	25961	24570	145204	27072	1019586	42504	109610	0	0	8154	645993	0	0
2024-06-20 09:05:32			0	35684	0	0	0	25950	24570	145132	27229	1019594	42505	109606	0	0	8153	646993	0	0
2024-06-20 09:06:32			0	35689	0	0	0	25953	24570	145044	27159	1019532	42504	109607	0	0	8153	646776	0	0
2024-06-20 09:07:32			0	35680	0	0	0	25958	24570	145112	26870	1019532	42504	109609	0	0	8153	647167	0	0
2024-06-20 09:08:32			0	35700	0	0	0	25963	24580	145192	26833	1019576	42517	109611	0	0	8154	646261	0	0
2024-06-20 09:09:32			0	35686	0	0	0	25973	24570	145208	26960	1019621	42517	109615	0	0	8153	646906	0	0
2024-06-20 09:10:32			0	35680	0	0	0	25989	24570	145124	26986	1019701	42528	109621	0	0	8152	647167	0	0
2024-06-20 09:11:32			0	35689	0	0	0	26002	24580	145272	27156	1019665	42518	109626	0	0	8152	646739	0	0
2024-06-20 09:12:32			0	35687	0	0	0	26015	24590	145240	27298	1019754	42529	109631	0	0	8152	646790	0	0
2024-06-20 09:13:32			0	35689	0	0	0	26020	24600	145152	26861	1019780	42531	109633	0	0	8152	646666	0	0
2024-06-20 09:14:32			0	35694	0	0	0	26028	24620	145084	26786	1019824	42520	109636	0	0	8152	646376	0	0
2024-06-20 09:15:32			0	35672	0	0	0	26020	24620	145140	26953	1019797	42532	109633	0	0	8151	647333	0	0
2024-06-20 09:16:32			0	35697	0	0	0	26028	24620	145104	27187	1019797	42532	109636	0	0	8153	646245	0	0
2024-06-20 09:17:32			0	35688	0	0	0	26036	24610	145204	27059	1019842	42519	109639	0	0	8152	646673	0	0
2024-06-20 09:18:32			0	35715	0	0	0	26036	24610	145192	27215	1019842	42508	109639	0	0	8153	645500	0	0
2024-06-20 09:19:32			0	35696	0	0	0	26038	24620	145124	27168	1019850	42532	109640	0	0	8152	646289	0	0
2024-06-20 09:20:32			0	35715	0	0	0	26025	24620	145080	26955	1019805	42521	109635	0	0	8154	645463	0	0
2024-06-20 09:21:32			0	35694	0	0	0	26028	24610	145096	27066	1019815	42508	109636	0	0	8152	646412	0	0
2024-06-20 09:22:32			0	35708	0	0	0	26025	24620	145200	27265	1019770	42520	109635	0	0	8153	645767	0	0
2024-06-20 09:23:32			0	35700	0	0	0	26038	24620	145020	27377	1019850	42532	109640	0	0	8153	646115	0	0
2024-06-20 09:24:32			0	35712	0	0	0	26038	24620	145040	27168	1019859	42543	109640	0	0	8153	645593	0	0
2024-06-20 09:25:32			0	35707	0	0	0	26041	24630	145060	27263	1019849	42533	109641	0	0	8153	645774	0	0
2024-06-20 09:26:32			0	35719	0	0	0	26041	24640	145160	27159	1019885	42522	109641	0	0	8154	645216	0	0
2024-06-20 09:27:32			0	35699	0	0	0	26038	24630	144984	27074	1019787	42510	109640	0	0	8152	646122	0	0
2024-06-20 09:28:32			0	35700	0	0	0	26023	24620	145044	27163	1019805	42510	109634	0	0	8153	646115	0	0
2024-06-20 09:29:32			0	35729	0	0	0	26002	24620	145040	27291	1019645	42510	109626	0	0	8155	644855	0	0
2024-06-20 09:30:32			0	35726	0	0	0	25997	24610	145028	27043	1019735	42508	109624	0	0	8155	645022	0	0
2024-06-20 09:31:32			0	35736	0	0	0	25971	24600	145040	27291	1019637	42507	109614	0	0	8155	644624	0	0
2024-06-20 09:32:32			0	35737	0	0	0	25963	24590	144952	26928	1019575	42486	109611	0	0	8156	644617	0	0
2024-06-20 09:33:32			0	35732	0	0	0	25953	24580	144944	26996	1019603	42517	109607	0	0	8155	644871	0	0
2024-06-20 09:34:32			0	35715	0	0	0	25961	24580	144960	27223	1019611	42518	109610	0	0	8154	645609	0	0
2024-06-20 09:35:32			0	35732	0	0	0	25958	24580	144920	26974	1019603	42505	109609	0	0	8155	644871	0	0
2024-06-20 09:36:32			0	35745	0	0	0	25953	24570	144908	27281	1019594	42517	109607	0	0	8156	644343	0	0
2024-06-20 09:37:32			0	35740	0	0	0	25955	24580	144928	27275	1019603	42528	109608	0	0	8156	644524	0	0
2024-06-20 09:38:32			0	35750	0	0	0	25966	24580	144916	27281	1019603	42517	109612	0	0	8156	644090	0	0
2024-06-20 09:39:32			0	35766	0	0	0	25973	24580	144792	27215	1019630	42517	109615	0	0	8157	643396	0	0
2024-06-20 09:40:32			0	35751	0	0	0	25963	24570	144812	26967	1019559	42516	109611	0	0	8156	644083	0	0
2024-06-20 09:41:32			0	35760	0	0	0	25973	24580	144908	27185	1019630	42505	109615	0	0	8157	643656	0	0
2024-06-20 09:42:32			0	35777	0	0	0	25976	24570	144968	26800	1019648	42505	109616	0	0	8157	642956	0	0
2024-06-20 09:43:32			0	35773	0	0	0	25979	24570	144912	26944	1019701	42528	109617	0	0	8157	643129	0	0
2024-06-20 09:44:32			0	35785	0	0	0	25979	24580	144884	26726	1019710	42517	109617	0	0	8158	642573	0	0
2024-06-20 09:45:32			0	35791	0	0	0	25989	24580	144772	27131	1019665	42518	109621	0	0	8158	642313	0	0
2024-06-20 09:46:32			0	35785	0	0	0	25999	24580	144784	26897	1019692	42506	109625	0	0	8158	642573	0	0
2024-06-20 09:47:32			0	35797	0	0	0	25997	24590	144796	27274	1019674	42518	109624	0	0	8158	642018	0	0
2024-06-20 09:48:32			0	35784	0	0	0	25997	24590	144836	27038	1019674	42529	109624	0	0	8158	642580	0	0
2024-06-20 09:49:32			0	35777	0	0	0	26007	24590	144800	27280	1019789	42519	109628	0	0	8157	642883	0	0
2024-06-20 09:50:32			0	35777	0	0	0	26007	24600	144764	27062	1019771	42519	109628	0	0	8157	642847	0	0
2024-06-20 09:51:32			0	35783	0	0	0	26020	24590	144784	27403	1019736	42507	109633	0	0	8157	642623	0	0
2024-06-20 09:52:32			0	35789	0	0	0	26025	24600	144744	27147	1019825	42530	109635	0	0	8157	642327	0	0
2024-06-20 09:53:32			0	35781	0	0	0	26028	24600	144812	27412	1019780	42531	109636	0	0	8157	642674	0	0
2024-06-20 09:54:32			0	35772	0	0	0	26038	24600	144800	27093	1019780	42519	109640	0	0	8156	643064	0	0
2024-06-20 09:55:32			0	35780	0	0	0	26033	24600	144844	27203	1019833	42519	109638	0	0	8157	642717	0	0
2024-06-20 09:56:32			0	35790	0	0	0	26046	24620	144832	27312	1019886	42533	109643	0	0	8157	642211	0	0
2024-06-20 09:57:32			0	35769	0	0	0	26036	24620	144748	27320	1019859	42521	109639	0	0	8156	643121	0	0
2024-06-20 09:58:32			0	35788	0	0	0	26044	24630	144880	27144	1019868	42533	109642	0	0	8157	642262	0	0
2024-06-20 09:59:32			0	35778	0	0	0	26046	24630	144804	27526	1019868	42533	109643	0	0	8157	642695	0	0
2024-06-20 10:00:32			0	35761	0	0	0	26041	24620	144772	27189	1019913	42521	109641	0	0	8156	643467	0	0
2024-06-20 10:01:32			0	35787	0	0	0	26044	24630	144768	27319	1019930	42533	109642	0	0	8157	642305	0	0
2024-06-20 10:02:32			0	35778	0	0	0	26049	24630	144744	27284	1019903	42510	109644	0	0	8157	642695	0	0
2024-06-20 10:03:32			0	35777	0	0	0	26057	24640	144780	27497	1019938	42511	109647	0	0	8156	642701	0	0
2024-06-20 10:04:32			0	35786	0	0	0	26054	24640	144724	27308	1019965	42534	109646	0	0	8157	642312	0	0
2024-06-20 10:05:32			0	35790	0	0	0	26059	24630	144812	27270	1019956	42521	109648	0	0	8157	642175	0	0
2024-06-20 10:06:32			0	35798	0	0	0	26059	24640	144780	27197	1019947	42534	109648	0	0	8157	641793	0	0
2024-06-20 10:07:32			0	35770	0	0	0	26059	24640	144864	27282	1020045	42522	109648	0	0	8156	643005	0	0
2024-06-20 10:08:32			0	35784	0	0	0	26059	24640	144716	26918	1019912	42534	109648	0	0	8157	642398	0	0
2024-06-20 10:09:32			0	35773	0	0	0	26064	24640	144752	27026	1019947	42545	109650	0	0	8156	642875	0	0
2024-06-20 10:10:32			0	35784	0	0	0	26070	24650	144724	27154	1020009	42523	109652	0	0	8157	642362	0	0
2024-06-20 10:11:32			0	35808	0	0	0	26077	24650	144720	27024	1020018	42535	109655	0	0	8158	641324	0	0
2024-06-20 10:12:32			0	35823	0	0	0	26072	24650	144784	27059	1019964	42535	109653	0	0	8159	640676	0	0
2024-06-20 10:13:32			0	35818	0	0	0	26083	24650	144660	27039	1020044	42535	109657	0	0	8158	640892	0	0
2024-06-20 10:14:32			0	35822	0	0	0	26080	24650	144544	27308	1020009	42523	109656	0	0	8158	640719	0	0
2024-06-20 10:15:32			0	35842	0	0	0	26085	24660	144520	27388	1020080	42535	109658	0	0	8159	639819	0	0
2024-06-20 10:16:32			0	35875	0	0	0	26090	24660	144405	27187	1020088	42525	109660	0	0	8161	638396	0	0
2024-06-20 10:17:32			0	35897	0	0	0	26096	24670	144241	27369	1020070	42525	109662	0	0	8162	637413	0	0
2024-06-20 10:18:32			0	35951	0	0	0	26093	24660	144209	27100	1020088	42536	109661	0	0	8165	635127	0	0
2024-06-20 10:19:32			0	36000	0	0	0	26101	24670	143841	27583	1020097	42536	109664	0	0	8168	632990	0	0
2024-06-20 10:20:32			0	36075	0	0	0	26103	24680	143741	27107	1020114	42537	109665	0	0	8172	629748	0	0
2024-06-20 10:21:32			0	36137	0	0	0	26098	24670	143449	27215	1020132	42526	109663	0	0	8175	627142	0	0
2024-06-20 10:22:32			0	36210	0	0	0	26096	24680	143181	27102	1020114	42537	109662	0	0	8179	624006	0	0
2024-06-20 10:23:32			0	36285	0	0	0	26109	24680	142797	27126	1020123	42538	109667	0	0	8183	620832	0	0
2024-06-20 10:24:32			0	36377	0	0	0	26103	24680	142461	27197	1020123	42538	109665	0	0	8188	616954	0	0
2024-06-20 10:25:32			0	36469	0	0	0	26114	24680	142193	27098	1020177	42527	109669	0	0	8192	613093	0	0
2024-06-20 10:26:32			0	36512	0	0	0	26119	24690	141945	27178	1020185	42538	109671	0	0	8194	611259	0	0
2024-06-20 10:27:32			0	36602	0	0	0	26114	24680	141646	27251	1020177	42549	109669	0	0	8199	607541	0	0
2024-06-20 10:28:32			0	36661	0	0	0	26114	24680	141450	27299	1020203	42549	109669	0	0	8202	605089	0	0
2024-06-20 10:29:32			0	36718	0	0	0	26119	24690	141222	27137	1020167	42549	109671	0	0	8205	602692	0	0
2024-06-20 10:30:32			0	36760	0	0	0	26122	24690	141030	27097	1020194	42549	109672	0	0	8207	600955	0	0
2024-06-20 10:31:32			0	36786	0	0	0	26119	24700	140950	27194	1020229	42550	109671	0	0	8209	599848	0	0
2024-06-20 10:32:32			0	36818	0	0	0	26116	24700	140758	27022	1020256	42540	109670	0	0	8211	598529	0	0
2024-06-20 10:33:32			0	36851	0	0	0	26119	24700	140746	27020	1020211	42540	109671	0	0	8212	597170	0	0
2024-06-20 10:34:32			0	36846	0	0	0	26119	24700	140598	27230	1020211	42550	109671	0	0	8212	597376	0	0
2024-06-20 10:35:32			0	36875	0	0	0	26111	24700	140506	27327	1020158	42529	109668	0	0	8214	596184	0	0
2024-06-20 10:36:32			0	36873	0	0	0	26127	24720	140554	27291	1020264	42531	109674	0	0	8213	596199	0	0
2024-06-20 10:37:32			0	36889	0	0	0	26124	24700	140570	27170	1020184	42540	109673	0	0	8214	595609	0	0
2024-06-20 10:38:32			0	36895	0	0	0	26127	24720	140542	26840	1020291	42531	109674	0	0	8214	595295	0	0
2024-06-20 10:39:32			0	36897	0	0	0	26127	24700	140474	27282	1020265	42540	109674	0	0	8214	595281	0	0
2024-06-20 10:40:32			0	36901	0	0	0	26129	24720	140422	27403	1020291	42552	109675	0	0	8215	595049	0	0
2024-06-20 10:41:32			0	36890	0	0	0	26129	24700	140566	26830	1020265	42540	109675	0	0	8214	595568	0	0
2024-06-20 10:42:32			0	36915	0	0	0	26129	24720	140398	27119	1020291	42541	109675	0	0	8215	594475	0	0
2024-06-20 10:43:32			0	36895	0	0	0	26137	24720	140382	27355	1020299	42541	109678	0	0	8214	595295	0	0
2024-06-20 10:44:32			0	36913	0	0	0	26132	24730	140434	27261	1020335	42542	109676	0	0	8215	594523	0	0
2024-06-20 10:45:32			0	36902	0	0	0	26137	24720	140458	27071	1020326	42541	109678	0	0	8215	595008	0	0
2024-06-20 10:46:32			0	36911	0	0	0	26145	24720	140514	27183	1020317	42541	109681	0	0	8215	594639	0	0
2024-06-20 10:47:32			0	36909	0	0	0	26140	24730	140486	26899	1020343	42542	109679	0	0	8215	594687	0	0
2024-06-20 10:48:32			0	36909	0	0	0	26140	24730	140422	27059	1020361	42553	109679	0	0	8215	594687	0	0
2024-06-20 10:49:32			0	36926	0	0	0	26153	24730	140362	27263	1020343	42542	109684	0	0	8216	593990	0	0
2024-06-20 10:50:32			0	36940	0	0	0	26155	24730	140426	27137	1020423	42531	109685	0	0	8216	593417	0	0
2024-06-20 10:51:32			0	36909	0	0	0	26158	24750	140382	26750	1020422	42555	109686	0	0	8215	594620	0	0
2024-06-20 10:52:32			0	36932	0	0	0	26161	24740	140346	27206	1020432	42532	109687	0	0	8216	593711	0	0
2024-06-20 10:53:32			0	36934	0	0	0	26171	24740	140258	26798	1020486	42543	109691	0	0	8216	593629	0	0
2024-06-20 10:54:32			0	36948	0	0	0	26168	24750	140338	27273	1020485	42544	109690	0	0	8217	593022	0	0
2024-06-20 10:55:32			0	36965	0	0	0	26176	24750	140230	27104	1020476	42544	109693	0	0	8217	592326	0	0
2024-06-20 10:56:32			0	36963	0	0	0	26179	24750	140194	26984	1020449	42522	109694	0	0	8217	592408	0	0
2024-06-20 10:57:32			0	36977	0	0	0	26174	24750	140266	27150	1020511	42555	109692	0	0	8218	591836	0	0
2024-06-20 10:58:32			0	36965	0	0	0	26181	24760	140226	26934	1020475	42557	109695	0	0	8217	592293	0	0
2024-06-20 10:59:32			0	36976	0	0	0	26184	24750	140110	27531	1020538	42555	109696	0	0	8218	591876	0	0
2024-06-20 11:00:32			0	36990	0	0	0	26186	24750	140170	27267	1020476	42544	109697	0	0	8219	591304	0	0
2024-06-20 11:01:32			0	37006	0	0	0	26189	24760	140030	27163	1020547	42545	109698	0	0	8219	590617	0	0
2024-06-20 11:02:32			0	37009	0	0	0	26189	24770	140046	27026	1020591	42545	109698	0	0	8220	590462	0	0
2024-06-20 11:03:32			0	37011	0	0	0	26186	24770	139994	27246	1020573	42545	109697	0	0	8220	590380	0	0
2024-06-20 11:04:32			0	36997	0	0	0	26194	24770	139974	26932	1020564	42545	109700	0	0	8219	590951	0	0
2024-06-20 11:05:32			0	37034	0	0	0	26197	24780	139946	26930	1020563	42537	109701	0	0	8221	589408	0	0
2024-06-20 11:06:32			0	37043	0	0	0	26197	24780	139878	26887	1020617	42547	109701	0	0	8221	589042	0	0
2024-06-20 11:07:32			0	37034	0	0	0	26199	24790	139882	27176	1020634	42537	109702	0	0	8221	589375	0	0
2024-06-20 11:08:32			0	37042	0	0	0	26207	24790	139874	26984	1020679	42559	109705	0	0	8221	589049	0	0
2024-06-20 11:09:32			0	37040	0	0	0	26210	24790	139830	27268	1020732	42559	109706	0	0	8221	589130	0	0
2024-06-20 11:10:32			0	37066	0	0	0	26212	24790	139758	27199	1020661	42559	109707	0	0	8222	588072	0	0
2024-06-20 11:11:32			0	37068	0	0	0	26215	24780	139702	27215	1020635	42546	109708	0	0	8222	588024	0	0
2024-06-20 11:12:32			0	37078	0	0	0	26210	24790	139746	26828	1020705	42537	109706	0	0	8223	587583	0	0
2024-06-20 11:13:32			0	37097	0	0	0	26205	24800	139730	27036	1020678	42549	109704	0	0	8224	586778	0	0
2024-06-20 11:14:32			0	37117	0	0	0	26210	24800	139702	27246	1020696	42560	109706	0	0	8225	585965	0	0
2024-06-20 11:15:32			0	37112	0	0	0	26215	24800	139646	27255	1020696	42548	109708	0	0	8225	586168	0	0
2024-06-20 11:16:32			0	37118	0	0	0	26220	24800	139602	27225	1020758	42549	109710	0	0	8225	585924	0	0
2024-06-20 11:17:32			0	37130	0	0	0	26223	24810	139590	27066	1020740	42549	109711	0	0	8225	585404	0	0
2024-06-20 11:18:32			0	37145	0	0	0	26223	24800	139590	26965	1020731	42549	109711	0	0	8226	584829	0	0
2024-06-20 11:19:32			0	37152	0	0	0	26228	24810	139634	27111	1020740	42560	109713	0	0	8227	584512	0	0
2024-06-20 11:20:32			0	37162	0	0	0	26218	24810	139526	27060	1020713	42549	109709	0	0	8227	584107	0	0
2024-06-20 11:21:32			0	37158	0	0	0	26212	24810	139502	27183	1020749	42573	109707	0	0	8227	584269	0	0
2024-06-20 11:22:32			0	37158	0	0	0	26223	24810	139466	27248	1020687	42549	109711	0	0	8227	584269	0	0
2024-06-20 11:23:32			0	37201	0	0	0	26225	24810	139470	27204	1020713	42539	109712	0	0	8229	582528	0	0
2024-06-20 11:24:32			0	37184	0	0	0	26210	24810	139350	26949	1020713	42539	109706	0	0	8229	583216	0	0
2024-06-20 11:25:32			0	37200	0	0	0	26212	24810	139310	27138	1020740	42549	109707	0	0	8229	582568	0	0
2024-06-20 11:26:32			0	37209	0	0	0	26215	24800	139278	27098	1020758	42539	109708	0	0	8230	582238	0	0
2024-06-20 11:27:32			0	37224	0	0	0	26205	24810	139326	27220	1020722	42540	109704	0	0	8231	581598	0	0
2024-06-20 11:28:32			0	37224	0	0	0	26197	24800	139302	27209	1020562	42538	109701	0	0	8231	581631	0	0
2024-06-20 11:29:32			0	37218	0	0	0	26194	24800	139242	27486	1020597	42549	109700	0	0	8231	581874	0	0
2024-06-20 11:30:32			0	37253	0	0	0	26179	24790	139298	27128	1020545	42537	109694	0	0	8233	580493	0	0
2024-06-20 11:31:32			0	37242	0	0	0	26176	24790	139118	27194	1020545	42547	109693	0	0	8232	580937	0	0
2024-06-20 11:32:32			0	37252	0	0	0	26166	24780	139226	27092	1020563	42547	109689	0	0	8233	580566	0	0
2024-06-20 11:33:32			0	37223	0	0	0	26163	24770	139258	27140	1020484	42545	109688	0	0	8231	581770	0	0
2024-06-20 11:34:32			0	37245	0	0	0	26163	24770	139206	27121	1020510	42557	109688	0	0	8232	580882	0	0
2024-06-20 11:35:32			0	37251	0	0	0	26150	24760	139162	27242	1020466	42523	109683	0	0	8233	580673	0	0
2024-06-20 11:36:32			0	37245	0	0	0	26150	24760	139178	27000	1020440	42523	109683	0	0	8232	580915	0	0
2024-06-20 11:37:32			0	37250	0	0	0	26142	24760	139186	27341	1020466	42545	109680	0	0	8233	580713	0	0
2024-06-20 11:38:32			0	37244	0	0	0	26132	24750	139182	27268	1020404	42544	109676	0	0	8233	580988	0	0
2024-06-20 11:39:32			0	37244	0	0	0	26135	24760	139170	26830	1020386	42545	109677	0	0	8233	580955	0	0
2024-06-20 11:40:32			0	37259	0	0	0	26127	24740	139278	27069	1020334	42543	109674	0	0	8234	580415	0	0
2024-06-20 11:41:32			0	37258	0	0	0	26124	24730	139190	27175	1020316	42531	109673	0	0	8233	580489	0	0
2024-06-20 11:42:32			0	37232	0	0	0	26127	24730	139150	27092	1020316	42542	109674	0	0	8232	581539	0	0
2024-06-20 11:43:32			0	37263	0	0	0	26119	24730	139122	27145	1020316	42531	109671	0	0	8234	580287	0	0
2024-06-20 11:44:32			0	37262	0	0	0	26109	24730	139146	26975	1020335	42542	109667	0	0	8234	580327	0	0
2024-06-20 11:45:32			0	37259	0	0	0	26119	24720	139150	26831	1020317	42541	109671	0	0	8234	580481	0	0
2024-06-20 11:46:32			0	37251	0	0	0	26114	24730	139242	26882	1020308	42542	109669	0	0	8233	580771	0	0
2024-06-20 11:47:32			0	37256	0	0	0	26116	24730	139142	26876	1020335	42542	109670	0	0	8234	580569	0	0
2024-06-20 11:48:32			0	37246	0	0	0	26119	24720	139178	27010	1020299	42541	109671	0	0	8233	581006	0	0
2024-06-20 11:49:32			0	37243	0	0	0	26111	24720	139194	27053	1020237	42531	109668	0	0	8233	581127	0	0
2024-06-20 11:50:32			0	37245	0	0	0	26111	24710	139258	27142	1020273	42529	109668	0	0	8233	581079	0	0
2024-06-20 11:51:32			0	37274	0	0	0	26106	24710	139234	26948	1020247	42529	109666	0	0	8235	579909	0	0
2024-06-20 11:52:32			0	37246	0	0	0	26109	24710	139098	27066	1020247	42529	109667	0	0	8233	581039	0	0
2024-06-20 11:53:32			0	37244	0	0	0	26106	24700	139190	27130	1020238	42540	109666	0	0	8233	581153	0	0
2024-06-20 11:54:32			0	37231	0	0	0	26109	24700	139266	27055	1020211	42529	109667	0	0	8232	581678	0	0
2024-06-20 11:55:32			0	37225	0	0	0	26114	24700	139210	27114	1020265	42529	109669	0	0	8232	581920	0	0
2024-06-20 11:56:32			0	37230	0	0	0	26103	24710	139294	27248	1020247	42529	109665	0	0	8232	581685	0	0
2024-06-20 11:57:32			0	37255	0	0	0	26103	24700	139234	26850	1020238	42540	109665	0	0	8234	580708	0	0
2024-06-20 11:58:32			0	37231	0	0	0	26103	24700	139250	27319	1020256	42540	109665	0	0	8232	581678	0	0
2024-06-20 11:59:32			0	37233	0	0	0	26111	24700	139350	26928	1020318	42540	109668	0	0	8232	581597	0	0
2024-06-20 12:00:32			0	37218	0	0	0	26119	24700	139318	26958	1020265	42540	109671	0	0	8231	582203	0	0
2024-06-20 12:01:32			0	37231	0	0	0	26111	24700	139290	27104	1020318	42517	109668	0	0	8232	581678	0	0
2024-06-20 12:02:32			0	37222	0	0	0	26119	24720	139350	27130	1020344	42541	109671	0	0	8232	581976	0	0
2024-06-20 12:03:32			0	37229	0	0	0	26116	24720	139362	27050	1020317	42541	109670	0	0	8232	581693	0	0
2024-06-20 12:04:32			0	37200	0	0	0	26119	24700	139402	27081	1020265	42540	109671	0	0	8230	582931	0	0
2024-06-20 12:05:32			0	37195	0	0	0	26122	24720	139310	27282	1020371	42552	109672	0	0	8230	583068	0	0
2024-06-20 12:06:32			0	37174	0	0	0	26114	24720	139374	27315	1020344	42531	109669	0	0	8229	583918	0	0
2024-06-20 12:07:32			0	37188	0	0	0	26124	24720	139438	27079	1020379	42541	109673	0	0	8230	583351	0	0
2024-06-20 12:08:32			0	37196	0	0	0	26129	24730	139426	27246	1020388	42531	109675	0	0	8230	582994	0	0
2024-06-20 12:09:32			0	37165	0	0	0	26137	24730	139418	27194	1020477	42553	109678	0	0	8228	584250	0	0
2024-06-20 12:10:32			0	37153	0	0	0	26153	24750	139478	27196	1020556	42533	109684	0	0	8228	584670	0	0
2024-06-20 12:11:32			0	37160	0	0	0	26155	24750	139566	27187	1020476	42555	109685	0	0	8228	584386	0	0
2024-06-20 12:12:32			0	37148	0	0	0	26150	24750	139518	27131	1020449	42544	109683	0	0	8227	584873	0	0
2024-06-20 12:13:32			0	37135	0	0	0	26145	24750	139674	26930	1020449	42544	109681	0	0	8227	585400	0	0
2024-06-20 12:14:32			0	37141	0	0	0	26155	24740	139594	27196	1020486	42554	109685	0	0	8227	585190	0	0
2024-06-20 12:15:32			0	37137	0	0	0	26155	24750	139682	27105	1020476	42544	109685	0	0	8227	585319	0	0
2024-06-20 12:16:32			0	37121	0	0	0	26161	24750	139666	27305	1020485	42544	109687	0	0	8226	585969	0	0
2024-06-20 12:17:32			0	37112	0	0	0	26161	24750	139734	26993	1020503	42544	109687	0	0	8225	586334	0	0
2024-06-20 12:18:32			0	37082	0	0	0	26176	24770	139678	27256	1020617	42545	109693	0	0	8224	587487	0	0
2024-06-20 12:19:32			0	37070	0	0	0	26202	24770	139778	27313	1020706	42568	109703	0	0	8223	587975	0	0
2024-06-20 12:20:32			0	37064	0	0	0	26223	24790	139926	27232	1020875	42570	109711	0	0	8222	588153	0	0
2024-06-20 12:21:32			0	37058	0	0	0	26246	24790	139818	27187	1020893	42559	109720	0	0	8221	588397	0	0
2024-06-20 12:22:32			0	37033	0	0	0	26262	24810	139938	27156	1020936	42583	109726	0	0	8220	589349	0	0
2024-06-20 12:23:32			0	37022	0	0	0	26275	24830	139910	27043	1020997	42552	109731	0	0	8219	589731	0	0
2024-06-20 12:24:32			0	37003	0	0	0	26293	24840	140022	27085	1021086	42563	109738	0	0	8218	590472	0	0
2024-06-20 12:25:32			0	37002	0	0	0	26298	24850	140086	27277	1021130	42554	109740	0	0	8218	590480	0	0
2024-06-20 12:26:32			0	36983	0	0	0	26309	24860	140054	27107	1021067	42576	109744	0	0	8217	591222	0	0
2024-06-20 12:27:32			0	36995	0	0	0	26309	24860	140118	27066	1021174	42554	109744	0	0	8217	590732	0	0
2024-06-20 12:28:32			0	36957	0	0	0	26309	24860	140130	27111	1021174	42565	109744	0	0	8215	592284	0	0
2024-06-20 12:29:32			0	36948	0	0	0	26319	24870	140230	27237	1021147	42589	109748	0	0	8215	592619	0	0
2024-06-20 12:30:32			0	36931	0	0	0	26319	24870	140238	27301	1021200	42589	109748	0	0	8214	593315	0	0
2024-06-20 12:31:32			0	36912	0	0	0	26324	24890	140222	27301	1021226	42569	109750	0	0	8213	594026	0	0
2024-06-20 12:32:32			0	36915	0	0	0	26340	24890	140378	27227	1021199	42569	109756	0	0	8213	593903	0	0
2024-06-20 12:33:32			0	36911	0	0	0	26342	24880	140378	27083	1021244	42557	109757	0	0	8212	594100	0	0
2024-06-20 12:34:32			0	36891	0	0	0	26358	24900	140410	27149	1021359	42570	109763	0	0	8211	594853	0	0
2024-06-20 12:35:32			0	36869	0	0	0	26350	24910	140466	27175	1021341	42559	109760	0	0	8210	595721	0	0
2024-06-20 12:36:32			0	36881	0	0	0	26368	24910	140586	27046	1021394	42571	109767	0	0	8210	595229	0	0
2024-06-20 12:37:32			0	36850	0	0	0	26371	24930	140578	27334	1021447	42572	109768	0	0	8209	596434	0	0
2024-06-20 12:38:32			0	36847	0	0	0	26379	24940	140610	27111	1021491	42584	109771	0	0	8209	596524	0	0
2024-06-20 12:39:32			0	36825	0	0	0	26389	24940	140674	27341	1021580	42584	109775	0	0	8207	597428	0	0
2024-06-20 12:40:32			0	36823	0	0	0	26402	24950	140638	27192	1021616	42584	109780	0	0	8207	597476	0	0
2024-06-20 12:41:32			0	36781	0	0	0	26405	24950	140662	27197	1021616	42573	109781	0	0	8205	599205	0	0
2024-06-20 12:42:32			0	36796	0	0	0	26420	24960	140802	27358	1021641	42576	109787	0	0	8205	598553	0	0
2024-06-20 12:43:32			0	36782	0	0	0	26418	24970	140778	26880	1021686	42587	109786	0	0	8205	599096	0	0
2024-06-20 12:44:32			0	36774	0	0	0	26431	24980	140734	27185	1021756	42578	109791	0	0	8204	599392	0	0
2024-06-20 12:45:32			0	36764	0	0	0	26444	24990	140742	26875	1021827	42588	109796	0	0	8203	599770	0	0
2024-06-20 12:46:32			0	36752	0	0	0	26454	25000	140882	27218	1021791	42569	109800	0	0	8203	600231	0	0
2024-06-20 12:47:32			0	36733	0	0	0	26467	25000	140826	27130	1021871	42580	109805	0	0	8201	601015	0	0
2024-06-20 12:48:32			0	36737	0	0	0	26467	25010	140954	27203	1021862	42590	109805	0	0	8202	600816	0	0
2024-06-20 12:49:32			0	36740	0	0	0	26493	25020	141038	27213	1021959	42592	109815	0	0	8201	600658	0	0
2024-06-20 12:50:32			0	36723	0	0	0	26496	25020	141026	27376	1021986	42592	109816	0	0	8201	601360	0	0
2024-06-20 12:51:32			0	36716	0	0	0	26503	25040	141022	27267	1022021	42594	109819	0	0	8200	601581	0	0
2024-06-20 12:52:32			0	36698	0	0	0	26506	25060	140962	26892	1022047	42583	109820	0	0	8199	602256	0	0
2024-06-20 12:53:32			0	36681	0	0	0	26509	25060	141042	27215	1022047	42595	109821	0	0	8198	602959	0	0
2024-06-20 12:54:32			0	36673	0	0	0	26522	25070	141086	27234	1022145	42597	109826	0	0	8198	603256	0	0
2024-06-20 12:55:32			0	36689	0	0	0	26535	25080	141094	27046	1022170	42586	109831	0	0	8198	602560	0	0
2024-06-20 12:56:32			0	36676	0	0	0	26548	25090	141070	27098	1022179	42598	109836	0	0	8198	603064	0	0
2024-06-20 12:57:32			0	36664	0	0	0	26540	25090	141078	27332	1022161	42599	109833	0	0	8197	603560	0	0
2024-06-20 12:58:32			0	36672	0	0	0	26532	25090	141130	27352	1022125	42598	109830	0	0	8198	603229	0	0
2024-06-20 12:59:32			0	36665	0	0	0	26516	25100	141162	27235	1022116	42588	109824	0	0	8198	603485	0	0
2024-06-20 13:00:32			0	36658	0	0	0	26501	25080	141226	27293	1022010	42576	109818	0	0	8197	603843	0	0
2024-06-20 13:01:32			0	36636	0	0	0	26488	25070	141166	27206	1021904	42575	109813	0	0	8196	604789	0	0
2024-06-20 13:02:32			0	36660	0	0	0	26464	25050	141150	27376	1021931	42573	109804	0	0	8198	603863	0	0
2024-06-20 13:03:32			0	36641	0	0	0	26457	25060	141178	27281	1021895	42574	109801	0	0	8197	604616	0	0
2024-06-20 13:04:32			0	36651	0	0	0	26446	25060	141130	27384	1021833	42583	109797	0	0	8198	604201	0	0
2024-06-20 13:05:32			0	36642	0	0	0	26451	25050	141246	27251	1021895	42583	109799	0	0	8197	604609	0	0
2024-06-20 13:06:32			0	36662	0	0	0	26454	25050	141194	27237	1021949	42583	109800	0	0	8198	603780	0	0
2024-06-20 13:07:32			0	36634	0	0	0	26446	25050	141178	27388	1021922	42595	109797	0	0	8197	604940	0	0
2024-06-20 13:08:32			0	36639	0	0	0	26454	25060	141286	27194	1021967	42595	109800	0	0	8197	604699	0	0
2024-06-20 13:09:32			0	36643	0	0	0	26462	25060	141194	27450	1021967	42583	109803	0	0	8197	604533	0	0
2024-06-20 13:10:32			0	36637	0	0	0	26467	25050	141322	27239	1021904	42583	109805	0	0	8197	604816	0	0
2024-06-20 13:11:32			0	36641	0	0	0	26464	25060	141226	27196	1021975	42584	109804	0	0	8197	604616	0	0
2024-06-20 13:12:32			0	36640	0	0	0	26459	25050	141242	27261	1021895	42583	109802	0	0	8197	604692	0	0
2024-06-20 13:13:32			0	36648	0	0	0	26454	25040	141230	27223	1021914	42583	109800	0	0	8197	604394	0	0
2024-06-20 13:14:32			0	36648	0	0	0	26462	25050	141166	27393	1021904	42583	109803	0	0	8197	604360	0	0
2024-06-20 13:15:32			0	36659	0	0	0	26454	25040	141238	27696	1021860	42572	109800	0	0	8198	603938	0	0
2024-06-20 13:16:32			0	36649	0	0	0	26441	25050	141222	27268	1021869	42583	109795	0	0	8198	604319	0	0
2024-06-20 13:17:32			0	36667	0	0	0	26451	25040	141206	26974	1021878	42583	109799	0	0	8198	603607	0	0
2024-06-20 13:18:32			0	36666	0	0	0	26444	25040	141086	26965	1021887	42583	109796	0	0	8199	603649	0	0
2024-06-20 13:19:32			0	36663	0	0	0	26436	25040	141074	27000	1021887	42583	109793	0	0	8199	603773	0	0
2024-06-20 13:20:32			0	36704	0	0	0	26444	25050	140978	27274	1021869	42583	109796	0	0	8201	602042	0	0
2024-06-20 13:21:32			0	36696	0	0	0	26454	25040	141094	27310	1021967	42583	109800	0	0	8200	602407	0	0
2024-06-20 13:22:32			0	36735	0	0	0	26451	25050	141034	26981	1021958	42595	109799	0	0	8202	600762	0	0
2024-06-20 13:23:32			0	36750	0	0	0	26467	25050	140978	27255	1021958	42595	109805	0	0	8203	600143	0	0
2024-06-20 13:24:32			0	36783	0	0	0	26459	25060	140786	27225	1022002	42574	109802	0	0	8204	598749	0	0
2024-06-20 13:25:32			0	36824	0	0	0	26467	25050	140646	27234	1021958	42583	109805	0	0	8206	597096	0	0
2024-06-20 13:26:32			0	36877	0	0	0	26480	25070	140474	27315	1022046	42585	109810	0	0	8209	594853	0	0
2024-06-20 13:27:32			0	36927	0	0	0	26488	25060	140238	27464	1022136	42584	109813	0	0	8212	592840	0	0
2024-06-20 13:28:32			0	36982	0	0	0	26496	25070	139966	27185	1022126	42585	109816	0	0	8214	590559	0	0
2024-06-20 13:29:32			0	37045	0	0	0	26496	25080	139878	27171	1022135	42585	109816	0	0	8218	587960	0	0
2024-06-20 13:30:32			0	37109	0	0	0	26503	25080	139606	27251	1022189	42585	109819	0	0	8221	585360	0	0
2024-06-20 13:31:32			0	37169	0	0	0	26516	25090	139470	27157	1022241	42599	109824	0	0	8224	582897	0	0
2024-06-20 13:32:32			0	37215	0	0	0	26524	25090	139174	27017	1022214	42588	109827	0	0	8226	581039	0	0
2024-06-20 13:33:32			0	37273	0	0	0	26537	25100	139030	27303	1022285	42588	109832	0	0	8229	578669	0	0
2024-06-20 13:34:32			0	37316	0	0	0	26532	25100	138815	27069	1022312	42588	109830	0	0	8231	576940	0	0
2024-06-20 13:35:32			0	37392	0	0	0	26537	25110	138683	27263	1022240	42600	109832	0	0	8235	573860	0	0
2024-06-20 13:36:32			0	37410	0	0	0	26537	25110	138519	27045	1022329	42601	109832	0	0	8236	573140	0	0
2024-06-20 13:37:32			0	37403	0	0	0	26548	25120	138431	27256	1022320	42590	109836	0	0	8236	573387	0	0
2024-06-20 13:38:32			0	37432	0	0	0	26550	25130	138415	27284	1022382	42602	109837	0	0	8237	572196	0	0
2024-06-20 13:39:32			0	37434	0	0	0	26550	25130	138375	27150	1022337	42603	109837	0	0	8237	572116	0	0
2024-06-20 13:40:32			0	37440	0	0	0	26550	25130	138347	26998	1022328	42602	109837	0	0	8237	571876	0	0
2024-06-20 13:41:32			0	37451	0	0	0	26545	25130	138343	27227	1022275	42591	109835	0	0	8238	571437	0	0
2024-06-20 13:42:32			0	37453	0	0	0	26555	25130	138271	26915	1022337	42592	109839	0	0	8238	571357	0	0
2024-06-20 13:43:32			0	37454	0	0	0	26555	25140	138243	27322	1022372	42592	109839	0	0	8238	571285	0	0
2024-06-20 13:44:32			0	37473	0	0	0	26548	25140	138263	27135	1022372	42603	109836	0	0	8239	570527	0	0
2024-06-20 13:45:32			0	37457	0	0	0	26561	25140	138251	27079	1022372	42603	109841	0	0	8238	571165	0	0
2024-06-20 13:46:32			0	37458	0	0	0	26566	25140	138183	27237	1022426	42592	109843	0	0	8238	571125	0	0
2024-06-20 13:47:32			0	37460	0	0	0	26555	25150	138247	27229	1022470	42582	109839	0	0	8238	571013	0	0
2024-06-20 13:48:32			0	37454	0	0	0	26576	25150	138351	26941	1022425	42605	109847	0	0	8238	571253	0	0
2024-06-20 13:49:32			0	37455	0	0	0	26566	25150	138303	27060	1022452	42605	109843	0	0	8238	571212	0	0
2024-06-20 13:50:32			0	37443	0	0	0	26566	25160	138363	27034	1022487	42605	109843	0	0	8237	571659	0	0
2024-06-20 13:51:32			0	37444	0	0	0	26579	25160	138279	27334	1022594	42605	109848	0	0	8237	571619	0	0
2024-06-20 13:52:32			0	37433	0	0	0	26589	25160	138303	27253	1022576	42595	109852	0	0	8237	572058	0	0
2024-06-20 13:53:32			0	37445	0	0	0	26605	25170	138267	27086	1022612	42617	109858	0	0	8237	571547	0	0
2024-06-20 13:54:32			0	37421	0	0	0	26623	25170	138363	27111	1022754	42607	109865	0	0	8235	572505	0	0
2024-06-20 13:55:32			0	37417	0	0	0	26620	25190	138291	27178	1022673	42608	109864	0	0	8235	572600	0	0
2024-06-20 13:56:32			0	37424	0	0	0	26620	25180	138311	27320	1022691	42608	109864	0	0	8236	572353	0	0
2024-06-20 13:57:32			0	37441	0	0	0	26633	25200	138315	27102	1022655	42609	109869	0	0	8236	571609	0	0
2024-06-20 13:58:32			0	37427	0	0	0	26631	25210	138359	27175	1022833	42610	109868	0	0	8236	572136	0	0
2024-06-20 13:59:32			0	37442	0	0	0	26641	25210	138355	26850	1022833	42621	109872	0	0	8236	571537	0	0
2024-06-20 14:00:32			0	37432	0	0	0	26657	25220	138287	27300	1022886	42623	109878	0	0	8236	571904	0	0
2024-06-20 14:01:32			0	37406	0	0	0	26670	25230	138291	27185	1022921	42611	109883	0	0	8234	572910	0	0
2024-06-20 14:02:32			0	37412	0	0	0	26677	25240	138339	27308	1022974	42613	109886	0	0	8234	572637	0	0
2024-06-20 14:03:32			0	37424	0	0	0	26675	25240	138327	27282	1022965	42601	109885	0	0	8235	572158	0	0
2024-06-20 14:04:32			0	37422	0	0	0	26683	25240	138451	27149	1022920	42613	109888	0	0	8235	572238	0	0
2024-06-20 14:05:32			0	37413	0	0	0	26690	25240	138271	27229	1023027	42602	109891	0	0	8234	572598	0	0
2024-06-20 14:06:32			0	37418	0	0	0	26688	25250	138279	27203	1022991	42625	109890	0	0	8234	572365	0	0
2024-06-20 14:07:32			0	37406	0	0	0	26711	25260	138351	27033	1023080	42625	109899	0	0	8233	572812	0	0
2024-06-20 14:08:32			0	37426	0	0	0	26714	25270	138359	27213	1023124	42625	109900	0	0	8235	571981	0	0
2024-06-20 14:09:32			0	37416	0	0	0	26722	25270	138263	27093	1023124	42625	109903	0	0	8234	572380	0	0
2024-06-20 14:10:32			0	37417	0	0	0	26719	25280	138291	26944	1023168	42606	109902	0	0	8234	572308	0	0
2024-06-20 14:11:32			0	37415	0	0	0	26719	25290	138271	27059	1023132	42606	109902	0	0	8234	572355	0	0
2024-06-20 14:12:32			0	37420	0	0	0	26732	25290	138331	27057	1023212	42617	109907	0	0	8234	572155	0	0
2024-06-20 14:13:32			0	37424	0	0	0	26740	25290	138215	27386	1023239	42617	109910	0	0	8234	571996	0	0
2024-06-20 14:14:32			0	37422	0	0	0	26742	25300	138383	27483	1023229	42619	109911	0	0	8234	572043	0	0
2024-06-20 14:15:32			0	37414	0	0	0	26740	25310	138395	27362	1023247	42620	109910	0	0	8234	572330	0	0
2024-06-20 14:16:32			0	37410	0	0	0	26745	25300	138299	27533	1023292	42607	109912	0	0	8233	572522	0	0
2024-06-20 14:17:32			0	37440	0	0	0	26742	25300	138311	27156	1023265	42607	109911	0	0	8235	571325	0	0
2024-06-20 14:18:32			0	37432	0	0	0	26750	25310	138259	27592	1023309	42608	109914	0	0	8234	571611	0	0
2024-06-20 14:19:32			0	37432	0	0	0	26745	25320	138291	27190	1023291	42609	109912	0	0	8235	571579	0	0
2024-06-20 14:20:32			0	37442	0	0	0	26748	25310	138223	27448	1023309	42620	109913	0	0	8235	571212	0	0
2024-06-20 14:21:32			0	37453	0	0	0	26748	25320	138223	27410	1023318	42621	109913	0	0	8236	570741	0	0
2024-06-20 14:22:32			0	37461	0	0	0	26763	25320	138195	27466	1023371	42631	109919	0	0	8236	570422	0	0
2024-06-20 14:23:32			0	37467	0	0	0	26761	25320	138207	27194	1023345	42609	109918	0	0	8236	570183	0	0
2024-06-20 14:24:32			0	37463	0	0	0	26766	25330	138167	27263	1023389	42632	109920	0	0	8236	570310	0	0
2024-06-20 14:25:32			0	37465	0	0	0	26763	25330	138207	26998	1023370	42610	109919	0	0	8236	570231	0	0
2024-06-20 14:26:32			0	37452	0	0	0	26763	25340	138143	27488	1023379	42622	109919	0	0	8235	570716	0	0
2024-06-20 14:27:32			0	37479	0	0	0	26768	25340	138175	27412	1023379	42611	109921	0	0	8237	569641	0	0
2024-06-20 14:28:32			0	37474	0	0	0	26771	25350	138103	27202	1023396	42623	109922	0	0	8236	569807	0	0
2024-06-20 14:29:32			0	37478	0	0	0	26773	25340	138075	27170	1023486	42622	109923	0	0	8237	569680	0	0
2024-06-20 14:30:32			0	37496	0	0	0	26784	25340	138095	26967	1023468	42623	109927	0	0	8237	568964	0	0
2024-06-20 14:31:32			0	37490	0	0	0	26784	25350	137983	27130	1023477	42612	109927	0	0	8237	569170	0	0
2024-06-20 14:32:32			0	37482	0	0	0	26797	25350	138067	27119	1023539	42634	109932	0	0	8236	569489	0	0
2024-06-20 14:33:32			0	37485	0	0	0	26797	25360	137995	27341	1023601	42635	109932	0	0	8237	569337	0	0
2024-06-20 14:34:32			0	37493	0	0	0	26799	25370	137987	27360	1023618	42636	109933	0	0	8237	568986	0	0
2024-06-20 14:35:32			0	37504	0	0	0	26799	25370	137959	26963	1023592	42636	109933	0	0	8238	568549	0	0
2024-06-20 14:36:32			0	37496	0	0	0	26807	25370	137959	27026	1023627	42636	109936	0	0	8237	568867	0	0
2024-06-20 14:37:32			0	37517	0	0	0	26825	25380	137971	27310	1023689	42636	109943	0	0	8238	568000	0	0
2024-06-20 14:38:32			0	37529	0	0	0	26825	25400	137935	27381	1023751	42627	109943	0	0	8239	567459	0	0
2024-06-20 14:39:32			0	37507	0	0	0	26836	25390	137999	27261	1023715	42627	109947	0	0	8237	568365	0	0
2024-06-20 14:40:32			0	37532	0	0	0	26844	25400	137887	27039	1023732	42628	109950	0	0	8238	567340	0	0
2024-06-20 14:41:32			0	37530	0	0	0	26851	25420	137919	27343	1023919	42629	109953	0	0	8238	567355	0	0
2024-06-20 14:42:32			0	37535	0	0	0	26875	25420	137747	27242	1023999	42663	109962	0	0	8238	567156	0	0
2024-06-20 14:43:32			0	37554	0	0	0	26885	25430	137831	27454	1023972	42642	109966	0	0	8239	566370	0	0
2024-06-20 14:44:32			0	37546	0	0	0	26898	25440	137811	27419	1024016	42643	109971	0	0	8238	566655	0	0
2024-06-20 14:45:32			0	37542	0	0	0	26909	25440	137799	27235	1023981	42642	109975	0	0	8238	566814	0	0
2024-06-20 14:46:32			0	37543	0	0	0	26911	25450	137799	27133	1024060	42644	109976	0	0	8238	566742	0	0
2024-06-20 14:47:32			0	37519	0	0	0	26919	25470	137811	27185	1024113	42646	109979	0	0	8237	567630	0	0
2024-06-20 14:48:32			0	37529	0	0	0	26932	25480	137899	27211	1024184	42635	109984	0	0	8237	567201	0	0
2024-06-20 14:49:32			0	37497	0	0	0	26945	25480	137795	27280	1024166	42647	109989	0	0	8235	568472	0	0
2024-06-20 14:50:32			0	37516	0	0	0	26948	25500	137879	27060	1024210	42660	109990	0	0	8236	567652	0	0
2024-06-20 14:51:32			0	37520	0	0	0	26953	25500	137883	27469	1024272	42626	109992	0	0	8236	567494	0	0
2024-06-20 14:52:32			0	37510	0	0	0	26961	25510	137923	27313	1024307	42660	109995	0	0	8236	567858	0	0
2024-06-20 14:53:32			0	37528	0	0	0	26971	25510	137859	27403	1024396	42661	109999	0	0	8236	567144	0	0
2024-06-20 14:54:32			0	37510	0	0	0	26966	25520	137839	27280	1024351	42628	109997	0	0	8236	567826	0	0
2024-06-20 14:55:32			0	37521	0	0	0	26950	25510	137923	27415	1024236	42627	109991	0	0	8236	567422	0	0
2024-06-20 14:56:32			0	37538	0	0	0	26945	25520	137831	27043	1024173	42639	109989	0	0	8237	566715	0	0
2024-06-20 14:57:32			0	37551	0	0	0	26927	25520	137747	27393	1024226	42662	109982	0	0	8238	566199	0	0
2024-06-20 14:58:32			0	37554	0	0	0	26927	25510	137699	27258	1024209	42649	109982	0	0	8239	566112	0	0
2024-06-20 14:59:32			0	37539	0	0	0	26911	25510	137719	27556	1024147	42649	109976	0	0	8238	566707	0	0
2024-06-20 15:00:32			0	37576	0	0	0	26906	25510	137679	27277	1024093	42649	109974	0	0	8240	565241	0	0
2024-06-20 15:01:32			0	37586	0	0	0	26916	25510	137675	27280	1024254	42649	109978	0	0	8240	564845	0	0
2024-06-20 15:02:32			0	37594	0	0	0	26909	25510	137651	27170	1024200	42637	109975	0	0	8241	564528	0	0
2024-06-20 15:03:32			0	37626	0	0	0	26896	25500	137619	27545	1024165	42637	109970	0	0	8243	563295	0	0
2024-06-20 15:04:32			0	37610	0	0	0	26898	25500	137503	27348	1024129	42649	109971	0	0	8242	563928	0	0
2024-06-20 15:05:32			0	37621	0	0	0	26906	25510	137467	27286	1024209	42649	109974	0	0	8242	563461	0	0
2024-06-20 15:06:32			0	37633	0	0	0	26919	25510	137459	27372	1024262	42661	109979	0	0	8243	562987	0	0
2024-06-20 15:07:32			0	37631	0	0	0	26929	25530	137383	27424	1024342	42662	109983	0	0	8243	563002	0	0
2024-06-20 15:08:32			0	37632	0	0	0	26950	25530	137431	27046	1024369	42639	109991	0	0	8242	562962	0	0
2024-06-20 15:09:32			0	37635	0	0	0	26940	25530	137351	26967	1024377	42640	109987	0	0	8243	562844	0	0
2024-06-20 15:10:32			0	37626	0	0	0	26919	25520	137459	27353	1024253	42639	109979	0	0	8242	563231	0	0
2024-06-20 15:11:32			0	37631	0	0	0	26906	25510	137379	26967	1024209	42638	109974	0	0	8243	563066	0	0
2024-06-20 15:12:32			0	37638	0	0	0	26914	25510	137403	27326	1024262	42661	109977	0	0	8243	562789	0	0
2024-06-20 15:13:32			0	37647	0	0	0	26901	25510	137367	27355	1024155	42638	109972	0	0	8244	562434	0	0
2024-06-20 15:14:32			0	37631	0	0	0	26888	25520	137439	27310	1024084	42639	109967	0	0	8243	563034	0	0
2024-06-20 15:15:32			0	37638	0	0	0	26870	25500	137419	27377	1024084	42626	109960	0	0	8244	562821	0	0
2024-06-20 15:16:32			0	37629	0	0	0	26864	25500	137411	27524	1023977	42637	109958	0	0	8243	563177	0	0
2024-06-20 15:17:32			0	37643	0	0	0	26864	25490	137435	27303	1024014	42648	109958	0	0	8244	562656	0	0
2024-06-20 15:18:32			0	37644	0	0	0	26875	25480	137471	27535	1024139	42647	109962	0	0	8244	562648	0	0
2024-06-20 15:19:32			0	37636	0	0	0	26906	25490	137535	27282	1024174	42659	109974	0	0	8243	562932	0	0
2024-06-20 15:20:32			0	37632	0	0	0	26929	25510	137367	27422	1024343	42661	109983	0	0	8243	563026	0	0
2024-06-20 15:21:32			0	37641	0	0	0	26942	25520	137403	27215	1024307	42662	109988	0	0	8243	562639	0	0
2024-06-20 15:22:32			0	37632	0	0	0	26953	25520	137423	27289	1024325	42662	109992	0	0	8242	562994	0	0
2024-06-20 15:23:32			0	37624	0	0	0	26976	25540	137347	27249	1024440	42652	110001	0	0	8241	563246	0	0
2024-06-20 15:24:32			0	37621	0	0	0	26986	25550	137395	27237	1024645	42653	110005	0	0	8241	563333	0	0
2024-06-20 15:25:32			0	37614	0	0	0	27007	25550	137439	27223	1024591	42664	110013	0	0	8240	563609	0	0
2024-06-20 15:26:32			0	37600	0	0	0	27028	25580	137475	27183	1024697	42656	110021	0	0	8240	564066	0	0
2024-06-20 15:27:32			0	37586	0	0	0	27046	25590	137563	27130	1024749	42667	110028	0	0	8239	564588	0	0
2024-06-20 15:28:32			0	37577	0	0	0	27051	25600	137567	26741	1024812	42658	110030	0	0	8238	564912	0	0
2024-06-20 15:29:32			0	37597	0	0	0	27064	25610	137527	27261	1024891	42670	110035	0	0	8239	564089	0	0
2024-06-20 15:30:32			0	37575	0	0	0	27075	25620	137583	26821	1024882	42660	110039	0	0	8238	564927	0	0
2024-06-20 15:31:32			0	37564	0	0	0	27080	25620	137655	27407	1024882	42649	110041	0	0	8237	565362	0	0
2024-06-20 15:32:32			0	37573	0	0	0	27103	25640	137647	27137	1025023	42673	110050	0	0	8237	564942	0	0
2024-06-20 15:33:32			0	37558	0	0	0	27127	25650	137591	27149	1025094	42663	110059	0	0	8236	565503	0	0
2024-06-20 15:34:32			0	37542	0	0	0	27140	25660	137611	27135	1025183	42663	110064	0	0	8235	566105	0	0
2024-06-20 15:35:32			0	37554	0	0	0	27153	25680	137715	27083	1025191	42666	110069	0	0	8235	565565	0	0
2024-06-20 15:36:32			0	37541	0	0	0	27166	25690	137659	26958	1025236	42666	110074	0	0	8235	566048	0	0
2024-06-20 15:37:32			0	37527	0	0	0	27179	25700	137755	27170	1025289	42690	110079	0	0	8234	566571	0	0
2024-06-20 15:38:32			0	37516	0	0	0	27179	25710	137783	27300	1025306	42669	110079	0	0	8233	566975	0	0
2024-06-20 15:39:32			0	37511	0	0	0	27186	25730	137719	27019	1025278	42681	110082	0	0	8233	567108	0	0
2024-06-20 15:40:32			0	37511	0	0	0	27181	25720	137739	27020	1025350	42680	110080	0	0	8233	567140	0	0
2024-06-20 15:41:32			0	37530	0	0	0	27179	25730	137723	26883	1025367	42671	110079	0	0	8234	566355	0	0
2024-06-20 15:42:32			0	37523	0	0	0	27181	25740	137687	27060	1025430	42682	110080	0	0	8234	566600	0	0
2024-06-20 15:43:32			0	37510	0	0	0	27174	25740	137775	27045	1025438	42671	110077	0	0	8233	567116	0	0
2024-06-20 15:44:32			0	37515	0	0	0	27174	25730	137759	26986	1025367	42671	110077	0	0	8233	566950	0	0
2024-06-20 15:45:32			0	37512	0	0	0	27168	25750	137811	27039	1025393	42661	110075	0	0	8233	567004	0	0
2024-06-20 15:46:32			0	37497	0	0	0	27174	25740	137735	27081	1025296	42660	110077	0	0	8232	567631	0	0
2024-06-20 15:47:32			0	37498	0	0	0	27166	25750	137707	27000	1025420	42661	110074	0	0	8233	567559	0	0
2024-06-20 15:48:32			0	37501	0	0	0	27174	25750	137651	26868	1025429	42672	110077	0	0	8233	567440	0	0
2024-06-20 15:49:32			0	37503	0	0	0	27189	25760	137803	27223	1025526	42685	110083	0	0	8233	567329	0	0
2024-06-20 15:50:32			0	37500	0	0	0	27184	25760	137755	27248	1025473	42673	110081	0	0	8232	567448	0	0
2024-06-20 15:51:32			0	37505	0	0	0	27192	25750	137775	26866	1025563	42672	110084	0	0	8233	567282	0	0
2024-06-20 15:52:32			0	37504	0	0	0	27194	25770	137771	27111	1025481	42673	110085	0	0	8233	567257	0	0
2024-06-20 15:53:32			0	37513	0	0	0	27186	25780	137791	26837	1025436	42664	110082	0	0	8233	566868	0	0
2024-06-20 15:54:32			0	37536	0	0	0	27197	25780	137663	27307	1025552	42698	110086	0	0	8234	565956	0	0
2024-06-20 15:55:32			0	37551	0	0	0	27197	25780	137527	27074	1025544	42674	110086	0	0	8235	565362	0	0
2024-06-20 15:56:32			0	37588	0	0	0	27186	25780	137483	27249	1025544	42674	110082	0	0	8237	563899	0	0
2024-06-20 15:57:32			0	37646	0	0	0	27186	25790	137259	27319	1025481	42687	110082	0	0	8240	561578	0	0
2024-06-20 15:58:32			0	37720	0	0	0	27174	25780	137019	26968	1025526	42675	110077	0	0	8244	558698	0	0
2024-06-20 15:59:32			0	37767	0	0	0	27176	25770	136847	27229	1025401	42673	110078	0	0	8246	556885	0	0
2024-06-20 16:00:32			0	37818	0	0	0	27176	25760	136643	27164	1025553	42673	110078	0	0	8249	554920	0	0
2024-06-20 16:01:32			0	37886	0	0	0	27166	25780	136391	27055	1025463	42674	110074	0	0	8253	552201	0	0
2024-06-20 16:02:32			0	37937	0	0	0	27171	25760	136235	27249	1025446	42685	110076	0	0	8255	550278	0	0
2024-06-20 16:03:32			0	37985	0	0	0	27168	25760	136147	26733	1025366	42663	110075	0	0	8258	548412	0	0
2024-06-20 16:04:32			0	37998	0	0	0	27158	25760	135983	26875	1025384	42662	110071	0	0	8259	547908	0	0
2024-06-20 16:05:32			0	38041	0	0	0	27161	25760	135988	26970	1025384	42662	110072	0	0	8261	546241	0	0
2024-06-20 16:06:32			0	38045	0	0	0	27153	25760	135848	27138	1025384	42672	110069	0	0	8261	546086	0	0
2024-06-20 16:07:32			0	38059	0	0	0	27153	25750	135808	27029	1025375	42662	110069	0	0	8262	545575	0	0
2024-06-20 16:08:32			0	38064	0	0	0	27158	25760	135820	27055	1025419	42673	110071	0	0	8262	545351	0	0
2024-06-20 16:09:32			0	38067	0	0	0	27171	25770	135772	27159	1025508	42663	110076	0	0	8262	545204	0	0
2024-06-20 16:10:32			0	38062	0	0	0	27181	25780	135880	26996	1025490	42674	110080	0	0	8262	545366	0	0
2024-06-20 16:11:32			0	38065	0	0	0	27181	25780	135884	26700	1025552	42675	110080	0	0	8262	545250	0	0
2024-06-20 16:12:32			0	38052	0	0	0	27186	25780	135920	26885	1025490	42686	110082	0	0	8261	545753	0	0
2024-06-20 16:13:32			0	38022	0	0	0	27181	25770	135903	27166	1025562	42673	110080	0	0	8260	546946	0	0
2024-06-20 16:14:32			0	37997	0	0	0	27184	25760	135979	26720	1025446	42685	110081	0	0	8258	547947	0	0
2024-06-20 16:15:32			0	38002	0	0	0	27184	25780	136063	27038	1025463	42674	110081	0	0	8258	547690	0	0
2024-06-20 16:16:32			0	37962	0	0	0	27181	25780	136235	26833	1025526	42675	110080	0	0	8256	549243	0	0
2024-06-20 16:17:32			0	37952	0	0	0	27179	25760	136295	27024	1025473	42663	110079	0	0	8256	549694	0	0
2024-06-20 16:18:32			0	37932	0	0	0	27176	25760	136335	26963	1025446	42673	110078	0	0	8255	550472	0	0
2024-06-20 16:19:32			0	37931	0	0	0	27176	25770	136359	27126	1025535	42685	110078	0	0	8255	550480	0	0
2024-06-20 16:20:32			0	37917	0	0	0	27176	25770	136327	27371	1025455	42673	110078	0	0	8254	551025	0	0
2024-06-20 16:21:32			0	37898	0	0	0	27171	25780	136555	26960	1025463	42664	110076	0	0	8253	551734	0	0
2024-06-20 16:22:32			0	37873	0	0	0	27158	25780	136451	26974	1025410	42674	110071	0	0	8252	552708	0	0
2024-06-20 16:23:32			0	37868	0	0	0	27158	25760	136547	26882	1025366	42652	110071	0	0	8252	552966	0	0
2024-06-20 16:24:32			0	37874	0	0	0	27142	25760	136495	27124	1025303	42662	110065	0	0	8253	552732	0	0
2024-06-20 16:25:32			0	37840	0	0	0	27127	25740	136595	27255	1025304	42671	110059	0	0	8251	554123	0	0
2024-06-20 16:26:32			0	37839	0	0	0	27119	25740	136543	27192	1025277	42661	110056	0	0	8251	554162	0	0
2024-06-20 16:27:32			0	37835	0	0	0	27132	25740	136595	26883	1025304	42661	110061	0	0	8251	554318	0	0
2024-06-20 16:28:32			0	37845	0	0	0	27150	25750	136759	27029	1025375	42672	110068	0	0	8251	553896	0	0
2024-06-20 16:29:32			0	37810	0	0	0	27148	25750	136763	27267	1025393	42671	110067	0	0	8249	555264	0	0
2024-06-20 16:30:32			0	37804	0	0	0	27158	25740	136719	27104	1025385	42661	110071	0	0	8249	555531	0	0
2024-06-20 16:31:32			0	37804	0	0	0	27161	25760	136819	27100	1025384	42672	110072	0	0	8249	555468	0	0
2024-06-20 16:32:32			0	37774	0	0	0	27176	25740	136731	27147	1025411	42671	110078	0	0	8247	556706	0	0
2024-06-20 16:33:32			0	37781	0	0	0	27171	25750	136783	27060	1025402	42695	110076	0	0	8247	556400	0	0
2024-06-20 16:34:32			0	37789	0	0	0	27176	25760	136663	26873	1025464	42684	110078	0	0	8248	556055	0	0
2024-06-20 16:35:32			0	37765	0	0	0	27179	25770	136811	27123	1025455	42673	110079	0	0	8246	556964	0	0
2024-06-20 16:36:32			0	37758	0	0	0	27174	25760	136783	27523	1025446	42673	110077	0	0	8246	557270	0	0
2024-06-20 16:37:32			0	37795	0	0	0	27176	25770	136803	27345	1025535	42673	110078	0	0	8248	555788	0	0
2024-06-20 16:38:32			0	37761	0	0	0	27192	25760	136839	27038	1025473	42685	110084	0	0	8246	557152	0	0
2024-06-20 16:39:32			0	37773	0	0	0	27207	25780	136875	26837	1025624	42674	110090	0	0	8246	556618	0	0
2024-06-20 16:40:32			0	37750	0	0	0	27218	25790	136783	27159	1025588	42698	110094	0	0	8245	557488	0	0
2024-06-20 16:41:32			0	37769	0	0	0	27241	25800	136903	27041	1025712	42687	110103	0	0	8246	556712	0	0
2024-06-20 16:42:32			0	37751	0	0	0	27254	25810	136883	26906	1025757	42700	110108	0	0	8244	557386	0	0
2024-06-20 16:43:32			0	37718	0	0	0	27275	25810	136863	26968	1025784	42677	110116	0	0	8242	558681	0	0
2024-06-20 16:44:32			0	37739	0	0	0	27303	25820	136963	26802	1025863	42690	110127	0	0	8243	557825	0	0
2024-06-20 16:45:32			0	37723	0	0	0	27306	25840	136903	27305	1025889	42691	110128	0	0	8242	558389	0	0
2024-06-20 16:46:32			0	37712	0	0	0	27311	25850	136851	26937	1025960	42692	110130	0	0	8242	558789	0	0
2024-06-20 16:47:32			0	37715	0	0	0	27322	25860	136971	26897	1026004	42694	110134	0	0	8242	558640	0	0
2024-06-20 16:48:32			0	37693	0	0	0	27324	25850	137003	27102	1026022	42682	110135	0	0	8240	559536	0	0
2024-06-20 16:49:32			0	37701	0	0	0	27329	25870	136959	26961	1026048	42694	110137	0	0	8241	559158	0	0
2024-06-20 16:50:32			0	37717	0	0	0	27332	25870	137011	27251	1026030	42683	110138	0	0	8242	558529	0	0
2024-06-20 16:51:32			0	37722	0	0	0	27335	25880	137023	26932	1026146	42696	110139	0	0	8242	558301	0	0
2024-06-20 16:52:32			0	37703	0	0	0	27337	25880	136943	26873	1026074	42696	110140	0	0	8241	559047	0	0
2024-06-20 16:53:32			0	37698	0	0	0	27340	25900	137011	26759	1026207	42708	110141	0	0	8241	559180	0	0
2024-06-20 16:54:32			0	37707	0	0	0	27358	25900	137011	27218	1026261	42698	110148	0	0	8241	558827	0	0
2024-06-20 16:55:32			0	37703	0	0	0	27373	25910	136959	26946	1026252	42687	110154	0	0	8240	558952	0	0
2024-06-20 16:56:32			0	37699	0	0	0	27386	25920	137023	27066	1026358	42711	110159	0	0	8240	559077	0	0
2024-06-20 16:57:32			0	37701	0	0	0	27402	25930	137027	27201	1026394	42722	110165	0	0	8240	558967	0	0
2024-06-20 16:58:32			0	37688	0	0	0	27418	25940	137023	27159	1026438	42701	110171	0	0	8239	559446	0	0
2024-06-20 16:59:32			0	37705	0	0	0	27412	25930	136915	26694	1026402	42722	110169	0	0	8240	558809	0	0
2024-06-20 17:00:32			0	37695	0	0	0	27405	25950	136859	26951	1026455	42702	110166	0	0	8240	559139	0	0
2024-06-20 17:01:32			0	37714	0	0	0	27407	25950	136927	27332	1026455	42702	110167	0	0	8241	558392	0	0
2024-06-20 17:02:32			0	37733	0	0	0	27402	25940	136983	27196	1026420	42702	110165	0	0	8242	557679	0	0
2024-06-20 17:03:32			0	37734	0	0	0	27399	25960	136871	27005	1026419	42703	110164	0	0	8242	557576	0	0
2024-06-20 17:04:32			0	37758	0	0	0	27399	25960	136951	26890	1026526	42703	110164	0	0	8243	556635	0	0
2024-06-20 17:05:32			0	37742	0	0	0	27394	25960	136847	27213	1026481	42704	110162	0	0	8242	557262	0	0
2024-06-20 17:06:32			0	37761	0	0	0	27394	25960	136843	27109	1026427	42704	110162	0	0	8243	556518	0	0
2024-06-20 17:07:32			0	37748	0	0	0	27402	25960	136803	26934	1026526	42703	110165	0	0	8242	557027	0	0
2024-06-20 17:08:32			0	37753	0	0	0	27384	25950	136723	26967	1026437	42702	110158	0	0	8243	556863	0	0
2024-06-20 17:09:32			0	37746	0	0	0	27384	25950	136759	27024	1026375	42691	110158	0	0	8243	557137	0	0
2024-06-20 17:10:32			0	37771	0	0	0	27379	25960	136719	27111	1026365	42692	110156	0	0	8244	556126	0	0
2024-06-20 17:11:32			0	37789	0	0	0	27371	25960	136727	26781	1026419	42713	110153	0	0	8245	555422	0	0
2024-06-20 17:12:32			0	37767	0	0	0	27368	25960	136715	26956	1026392	42703	110152	0	0	8244	556283	0	0
2024-06-20 17:13:32			0	37782	0	0	0	27373	25950	136667	26977	1026357	42691	110154	0	0	8245	555727	0	0
2024-06-20 17:14:32			0	37760	0	0	0	27366	25960	136667	27225	1026454	42704	110151	0	0	8244	556557	0	0
2024-06-20 17:15:32			0	37781	0	0	0	27373	25960	136687	27241	1026419	42692	110154	0	0	8245	555735	0	0
2024-06-20 17:16:32			0	37787	0	0	0	27366	25960	136683	27050	1026446	42692	110151	0	0	8245	555500	0	0
2024-06-20 17:17:32			0	37767	0	0	0	27363	25960	136627	27170	1026472	42692	110150	0	0	8244	556283	0	0
2024-06-20 17:18:32			0	37785	0	0	0	27368	25960	136723	27362	1026454	42693	110152	0	0	8245	555578	0	0
2024-06-20 17:19:32			0	37788	0	0	0	27363	25960	136639	27083	1026392	42703	110150	0	0	8245	555461	0	0
2024-06-20 17:20:32			0	37789	0	0	0	27358	25960	136639	27121	1026392	42692	110148	0	0	8245	555422	0	0
2024-06-20 17:21:32			0	37782	0	0	0	27361	25950	136539	27268	1026383	42713	110149	0	0	8245	555727	0	0
2024-06-20 17:22:32			0	37799	0	0	0	27355	25960	136599	27109	1026472	42703	110147	0	0	8246	555031	0	0
2024-06-20 17:23:32			0	37772	0	0	0	27371	25960	136639	26982	1026446	42703	110153	0	0	8244	556087	0	0
2024-06-20 17:24:32			0	37789	0	0	0	27381	25960	136575	27133	1026454	42704	110157	0	0	8245	555422	0	0
2024-06-20 17:25:32			0	37786	0	0	0	27384	25960	136687	27455	1026481	42693	110158	0	0	8245	555539	0	0
2024-06-20 17:26:32			0	37788	0	0	0	27373	25960	136599	27007	1026481	42693	110154	0	0	8245	555461	0	0
2024-06-20 17:27:32			0	37771	0	0	0	27373	25960	136619	27376	1026481	42704	110154	0	0	8244	556126	0	0
2024-06-20 17:28:32			0	37777	0	0	0	27371	25960	136651	27159	1026427	42693	110153	0	0	8244	555891	0	0
2024-06-20 17:29:32			0	37774	0	0	0	27373	25960	136679	27137	1026427	42714	110154	0	0	8244	556009	0	0
2024-06-20 17:30:32			0	37764	0	0	0	27371	25970	136655	27194	1026463	42704	110153	0	0	8244	556369	0	0
2024-06-20 17:31:32			0	37771	0	0	0	27368	25960	136655	27072	1026446	42703	110152	0	0	8244	556126	0	0
2024-06-20 17:32:32			0	37760	0	0	0	27379	25970	136659	27105	1026463	42714	110156	0	0	8244	556525	0	0
2024-06-20 17:33:32			0	37729	0	0	0	27389	25970	136743	27111	1026490	42704	110160	0	0	8242	557740	0	0
2024-06-20 17:34:32			0	37729	0	0	0	27386	25970	136747	27137	1026543	42704	110159	0	0	8242	557740	0	0
2024-06-20 17:35:32			0	37735	0	0	0	27392	25980	136843	27147	1026588	42705	110161	0	0	8242	557473	0	0
2024-06-20 17:36:32			0	37720	0	0	0	27415	25990	136835	26960	1026632	42707	110170	0	0	8241	558030	0	0
2024-06-20 17:37:32			0	37700	0	0	0	27428	25990	136911	27215	1026721	42707	110175	0	0	8240	558815	0	0
2024-06-20 17:38:32			0	37688	0	0	0	27459	26000	136911	26970	1026684	42718	110187	0	0	8239	559254	0	0
2024-06-20 17:39:32			0	37667	0	0	0	27467	26000	137023	27130	1026738	42729	110190	0	0	8237	560080	0	0
2024-06-20 17:40:32			0	37637	0	0	0	27475	26010	137107	27019	1026774	42730	110193	0	0	8236	561228	0	0
2024-06-20 17:41:32			0	37620	0	0	0	27475	26030	137227	26911	1026835	42721	110193	0	0	8235	561834	0	0
2024-06-20 17:42:32			0	37598	0	0	0	27475	26030	137255	27013	1026835	42710	110193	0	0	8234	562701	0	0
2024-06-20 17:43:32			0	37590	0	0	0	27475	26030	137251	26746	1026862	42732	110193	0	0	8233	563017	0	0
2024-06-20 17:44:32			0	37563	0	0	0	27470	26030	137335	27235	1026870	42710	110191	0	0	8232	564083	0	0
2024-06-20 17:45:32			0	37583	0	0	0	27475	26040	137387	27163	1026852	42721	110193	0	0	8233	563261	0	0
2024-06-20 17:46:32			0	37550	0	0	0	27464	26040	137375	27112	1026861	42710	110189	0	0	8232	564564	0	0
2024-06-20 17:47:32			0	37559	0	0	0	27477	26050	137351	26920	1026950	42711	110194	0	0	8232	564177	0	0
2024-06-20 17:48:32			0	37545	0	0	0	27477	26050	137443	27149	1026950	42711	110194	0	0	8231	564730	0	0
2024-06-20 17:49:32			0	37518	0	0	0	27483	26050	137471	27182	1026950	42711	110196	0	0	8230	565798	0	0
2024-06-20 17:50:32			0	37521	0	0	0	27483	26040	137483	27197	1026888	42710	110196	0	0	8230	565711	0	0
2024-06-20 17:51:32			0	37536	0	0	0	27477	26060	137487	27154	1026941	42712	110194	0	0	8231	565054	0	0
2024-06-20 17:52:32			0	37525	0	0	0	27454	26050	137503	26932	1026852	42702	110185	0	0	8230	565521	0	0
2024-06-20 17:53:32			0	37516	0	0	0	27454	26040	137511	26909	1026808	42700	110185	0	0	8230	565909	0	0
2024-06-20 17:54:32			0	37530	0	0	0	27446	26040	137471	27017	1026808	42700	110182	0	0	8231	565355	0	0
2024-06-20 17:55:32			0	37535	0	0	0	27436	26040	137551	27098	1026772	42699	110178	0	0	8231	565158	0	0
2024-06-20 17:56:32			0	37532	0	0	0	27423	26030	137491	27140	1026763	42699	110173	0	0	8231	565308	0	0
2024-06-20 17:57:32			0	37545	0	0	0	27425	26030	137459	27060	1026736	42710	110174	0	0	8232	564794	0	0
2024-06-20 17:58:32			0	37557	0	0	0	27418	26020	137379	27090	1026710	42708	110171	0	0	8233	564352	0	0
2024-06-20 17:59:32			0	37574	0	0	0	27415	26020	137339	27197	1026684	42708	110170	0	0	8234	563680	0	0
2024-06-20 18:00:32			0	37580	0	0	0	27405	26000	137419	26975	1026604	42696	110166	0	0	8234	563508	0	0
2024-06-20 18:01:32			0	37580	0	0	0	27389	26010	137319	26935	1026613	42708	110160	0	0	8234	563476	0	0
2024-06-20 18:02:32			0	37572	0	0	0	27386	26000	137331	27220	1026488	42695	110159	0	0	8234	563824	0	0
2024-06-20 18:03:32			0	37602	0	0	0	27381	26000	137239	27218	1026568	42695	110157	0	0	8235	562640	0	0
2024-06-20 18:04:32			0	37590	0	0	0	27389	25990	137291	26979	1026578	42707	110160	0	0	8235	563145	0	0
2024-06-20 18:05:32			0	37602	0	0	0	27371	25990	137239	27076	1026560	42695	110153	0	0	8236	562672	0	0
2024-06-20 18:06:32			0	37603	0	0	0	27376	25990	137359	27279	1026605	42707	110155	0	0	8236	562632	0	0
2024-06-20 18:07:32			0	37608	0	0	0	27384	25970	137247	27441	1026498	42694	110158	0	0	8236	562499	0	0
2024-06-20 18:08:32			0	37607	0	0	0	27379	25980	137283	26934	1026534	42705	110156	0	0	8236	562507	0	0
2024-06-20 18:09:32			0	37600	0	0	0	27379	25980	137331	26771	1026534	42694	110156	0	0	8235	562783	0	0
2024-06-20 18:10:32			0	37612	0	0	0	27373	25980	137287	27289	1026516	42695	110154	0	0	8236	562310	0	0
2024-06-20 18:11:32			0	37599	0	0	0	27376	25970	137235	26767	1026490	42693	110155	0	0	8235	562854	0	0
2024-06-20 18:12:32			0	37613	0	0	0	27358	25970	137267	26883	1026418	42705	110148	0	0	8236	562302	0	0
2024-06-20 18:13:32			0	37600	0	0	0	27342	25960	137279	26844	1026374	42704	110142	0	0	8236	562847	0	0
2024-06-20 18:14:32			0	37608	0	0	0	27340	25960	137251	27142	1026419	42713	110141	0	0	8236	562531	0	0
2024-06-20 18:15:32			0	37625	0	0	0	27337	25950	137299	27222	1026348	42691	110140	0	0	8237	561893	0	0
2024-06-20 18:16:32			0	37608	0	0	0	27335	25950	137267	27121	1026321	42702	110139	0	0	8236	562563	0	0
2024-06-20 18:17:32			0	37624	0	0	0	27319	25940	137235	26904	1026331	42701	110133	0	0	8237	561965	0	0
2024-06-20 18:18:32			0	37626	0	0	0	27324	25950	137271	27197	1026321	42702	110135	0	0	8237	561854	0	0
2024-06-20 18:19:32			0	37625	0	0	0	27322	25940	137251	26890	1026259	42702	110134	0	0	8237	561925	0	0
2024-06-20 18:20:32			0	37626	0	0	0	27314	25940	137291	26817	1026223	42701	110131	0	0	8238	561886	0	0
2024-06-20 18:21:32			0	37635	0	0	0	27306	25930	137271	26786	1026179	42689	110128	0	0	8238	561563	0	0
2024-06-20 18:22:32			0	37649	0	0	0	27306	25920	137187	27241	1026215	42699	110128	0	0	8239	561044	0	0
2024-06-20 18:23:32			0	37643	0	0	0	27301	25920	137123	27213	1026197	42689	110126	0	0	8239	561280	0	0
2024-06-20 18:24:32			0	37644	0	0	0	27301	25920	137227	27383	1026224	42700	110126	0	0	8239	561241	0	0
2024-06-20 18:25:32			0	37669	0	0	0	27314	25930	137267	27215	1026286	42700	110131	0	0	8240	560225	0	0
2024-06-20 18:26:32			0	37651	0	0	0	27314	25920	137243	27255	1026242	42710	110131	0	0	8239	560965	0	0
2024-06-20 18:27:32			0	37656	0	0	0	27332	25920	137107	27319	1026269	42710	110138	0	0	8239	560768	0	0
2024-06-20 18:28:32			0	37674	0	0	0	27345	25930	137123	27258	1026313	42722	110143	0	0	8239	560028	0	0
2024-06-20 18:29:32			0	37705	0	0	0	27337	25930	136827	27183	1026313	42689	110140	0	0	8241	558809	0	0
2024-06-20 18:30:32			0	37742	0	0	0	27350	25930	136827	26934	1026313	42700	110145	0	0	8243	557358	0	0
2024-06-20 18:31:32			0	37768	0	0	0	27353	25920	136739	26868	1026331	42711	110146	0	0	8244	556370	0	0
2024-06-20 18:32:32			0	37808	0	0	0	27345	25930	136619	26944	1026340	42700	110143	0	0	8246	554774	0	0
2024-06-20 18:33:32			0	37854	0	0	0	27345	25940	136439	27102	1026331	42701	110143	0	0	8249	552946	0	0
2024-06-20 18:34:32			0	37878	0	0	0	27340	25940	136323	27097	1026331	42701	110141	0	0	8250	552010	0	0
2024-06-20 18:35:32			0	37938	0	0	0	27324	25930	136231	27166	1026268	42700	110135	0	0	8253	549706	0	0
2024-06-20 18:36:32			0	37950	0	0	0	27322	25930	136187	27222	1026152	42700	110134	0	0	8254	549240	0	0
2024-06-20 18:37:32			0	37971	0	0	0	27298	25900	136187	27133	1026082	42686	110125	0	0	8255	548518	0	0
2024-06-20 18:38:32			0	37966	0	0	0	27290	25900	136027	27071	1026082	42686	110122	0	0	8255	548712	0	0
2024-06-20 18:39:32			0	37982	0	0	0	27277	25900	136059	27088	1026055	42698	110117	0	0	8256	548092	0	0
2024-06-20 18:40:32			0	37992	0	0	0	27262	25890	136019	26991	1026002	42674	110111	0	0	8257	547735	0	0
2024-06-20 18:41:32			0	37957	0	0	0	27262	25880	136091	27034	1025994	42684	110111	0	0	8255	549124	0	0
2024-06-20 18:42:32			0	37981	0	0	0	27257	25870	136119	26769	1025923	42695	110109	0	0	8257	548224	0	0
2024-06-20 18:43:32			0	37948	0	0	0	27262	25880	136231	26670	1025958	42684	110111	0	0	8255	549474	0	0
2024-06-20 18:44:32			0	37929	0	0	0	27257	25870	136159	27050	1026021	42705	110109	0	0	8254	550244	0	0
2024-06-20 18:45:32			0	37944	0	0	0	27254	25870	136251	27078	1025976	42695	110108	0	0	8255	549661	0	0
2024-06-20 18:46:32			0	37912	0	0	0	27246	25860	136283	26975	1025924	42694	110105	0	0	8253	550937	0	0
2024-06-20 18:47:32			0	37917	0	0	0	27238	25860	136387	26974	1025879	42705	110102	0	0	8254	550742	0	0
2024-06-20 18:48:32			0	37897	0	0	0	27231	25860	136427	27145	1025843	42694	110099	0	0	8253	551521	0	0
2024-06-20 18:49:32			0	37876	0	0	0	27228	25860	136343	26951	1025897	42694	110098	0	0	8252	552340	0	0
2024-06-20 18:50:32			0	37866	0	0	0	27223	25840	136507	26993	1025791	42681	110096	0	0	8251	552792	0	0
2024-06-20 18:51:32			0	37858	0	0	0	27225	25850	136443	27128	1025826	42692	110097	0	0	8251	553073	0	0
2024-06-20 18:52:32			0	37847	0	0	0	27223	25840	136555	26955	1025844	42703	110096	0	0	8250	553534	0	0
2024-06-20 18:53:32			0	37843	0	0	0	27225	25840	136619	26963	1025755	42680	110097	0	0	8250	553690	0	0
2024-06-20 18:54:32			0	37850	0	0	0	27218	25830	136691	27161	1025800	42680	110094	0	0	8250	553449	0	0
2024-06-20 18:55:32			0	37835	0	0	0	27215	25830	136735	27248	1025800	42691	110093	0	0	8250	554034	0	0
2024-06-20 18:56:32			0	37820	0	0	0	27225	25820	136643	27118	1025783	42679	110097	0	0	8249	554652	0	0
2024-06-20 18:57:32			0	37789	0	0	0	27220	25820	136647	27180	1025720	42689	110095	0	0	8247	555865	0	0
2024-06-20 18:58:32			0	37786	0	0	0	27212	25830	136715	26819	1025738	42690	110092	0	0	8247	555951	0	0
2024-06-20 18:59:32			0	37794	0	0	0	27207	25820	136743	26986	1025756	42679	110090	0	0	8248	555669	0	0
2024-06-20 19:00:32			0	37776	0	0	0	27215	25820	136783	27112	1025783	42690	110093	0	0	8246	556374	0	0
2024-06-20 19:01:32			0	37790	0	0	0	27220	25820	136819	26713	1025756	42702	110095	0	0	8247	555826	0	0
2024-06-20 19:02:32			0	37800	0	0	0	27212	25820	136799	26863	1025774	42678	110092	0	0	8248	555434	0	0
2024-06-20 19:03:32			0	37793	0	0	0	27215	25810	136795	26937	1025739	42689	110093	0	0	8247	555740	0	0
2024-06-20 19:04:32			0	37799	0	0	0	27212	25820	136863	27015	1025720	42678	110092	0	0	8248	555474	0	0
2024-06-20 19:05:32			0	37792	0	0	0	27212	25820	136939	27216	1025720	42678	110092	0	0	8247	555747	0	0
2024-06-20 19:06:32			0	37786	0	0	0	27210	25820	136843	27135	1025694	42701	110091	0	0	8247	555982	0	0
2024-06-20 19:07:32			0	37773	0	0	0	27205	25810	136715	27144	1025730	42688	110089	0	0	8246	556523	0	0
2024-06-20 19:08:32			0	37787	0	0	0	27207	25810	136751	27258	1025658	42667	110090	0	0	8247	555975	0	0
2024-06-20 19:09:32			0	37794	0	0	0	27207	25810	136767	27100	1025685	42689	110090	0	0	8247	555701	0	0
2024-06-20 19:10:32			0	37788	0	0	0	27205	25810	136751	27303	1025810	42688	110089	0	0	8247	555936	0	0
2024-06-20 19:11:32			0	37815	0	0	0	27199	25810	136683	27223	1025658	42689	110087	0	0	8249	554879	0	0
2024-06-20 19:12:32			0	37790	0	0	0	27207	25810	136747	27100	1025650	42677	110090	0	0	8247	555857	0	0
2024-06-20 19:13:32			0	37811	0	0	0	27207	25810	136651	27008	1025676	42688	110090	0	0	8248	555036	0	0
2024-06-20 19:14:32			0	37811	0	0	0	27207	25810	136639	26878	1025650	42688	110090	0	0	8248	555036	0	0
2024-06-20 19:15:32			0	37839	0	0	0	27202	25800	136699	27159	1025668	42677	110088	0	0	8250	553973	0	0
2024-06-20 19:16:32			0	37812	0	0	0	27189	25800	136639	26736	1025605	42699	110083	0	0	8249	555028	0	0
2024-06-20 19:17:32			0	37824	0	0	0	27197	25800	136687	26745	1025605	42676	110086	0	0	8249	554559	0	0
2024-06-20 19:18:32			0	37816	0	0	0	27189	25790	136663	27118	1025570	42687	110083	0	0	8249	554903	0	0
2024-06-20 19:19:32			0	37817	0	0	0	27171	25790	136763	27204	1025561	42687	110076	0	0	8249	554864	0	0
2024-06-20 19:20:32			0	37832	0	0	0	27168	25790	136683	27230	1025534	42687	110075	0	0	8250	554278	0	0
2024-06-20 19:21:32			0	37835	0	0	0	27171	25780	136711	27019	1025579	42698	110076	0	0	8250	554192	0	0
2024-06-20 19:22:32			0	37820	0	0	0	27176	25780	136735	27159	1025552	42675	110078	0	0	8249	554779	0	0
2024-06-20 19:23:32			0	37831	0	0	0	27176	25780	136695	27020	1025526	42698	110078	0	0	8250	554348	0	0
2024-06-20 19:24:32			0	37850	0	0	0	27171	25780	136727	26974	1025552	42698	110076	0	0	8251	553606	0	0
2024-06-20 19:25:32			0	37840	0	0	0	27181	25780	136747	26798	1025660	42698	110080	0	0	8250	553997	0	0
2024-06-20 19:26:32			0	37845	0	0	0	27181	25790	136639	27102	1025615	42698	110080	0	0	8250	553770	0	0
2024-06-20 19:27:32			0	37822	0	0	0	27171	25790	136695	26951	1025588	42687	110076	0	0	8249	554669	0	0
2024-06-20 19:28:32			0	37826	0	0	0	27179	25790	136695	27074	1025623	42687	110079	0	0	8250	554512	0	0
2024-06-20 19:29:32			0	37805	0	0	0	27176	25780	136687	26802	1025526	42687	110078	0	0	8248	555365	0	0
2024-06-20 19:30:32			0	37815	0	0	0	27181	25790	136823	27213	1025588	42675	110080	0	0	8249	554942	0	0
2024-06-20 19:31:32			0	37807	0	0	0	27184	25780	136815	27015	1025660	42698	110081	0	0	8248	555287	0	0
2024-06-20 19:32:32			0	37801	0	0	0	27192	25800	136811	27310	1025686	42687	110084	0	0	8248	555459	0	0
2024-06-20 19:33:32			0	37803	0	0	0	27205	25800	136799	27107	1025686	42676	110089	0	0	8248	555380	0	0
2024-06-20 19:34:32			0	37790	0	0	0	27210	25800	136799	27279	1025686	42687	110091	0	0	8247	555889	0	0
2024-06-20 19:35:32			0	37808	0	0	0	27215	25800	136735	27147	1025695	42700	110093	0	0	8248	555185	0	0
2024-06-20 19:36:32			0	37812	0	0	0	27215	25790	136747	27197	1025730	42698	110093	0	0	8248	555060	0	0
2024-06-20 19:37:32			0	37810	0	0	0	27218	25800	136775	27234	1025712	42699	110094	0	0	8248	555106	0	0
2024-06-20 19:38:32			0	37821	0	0	0	27212	25790	136775	26915	1025677	42675	110092	0	0	8249	554708	0	0
2024-06-20 19:39:32			0	37827	0	0	0	27205	25800	136719	26762	1025641	42688	110089	0	0	8249	554442	0	0
2024-06-20 19:40:32			0	37830	0	0	0	27207	25790	136667	27074	1025641	42687	110090	0	0	8249	554356	0	0
2024-06-20 19:41:32			0	37842	0	0	0	27192	25790	136699	27138	1025543	42687	110084	0	0	8250	553887	0	0
2024-06-20 19:42:32			0	37850	0	0	0	27179	25800	136651	26757	1025659	42676	110079	0	0	8251	553543	0	0
2024-06-20 19:43:32			0	37859	0	0	0	27181	25780	136583	27031	1025552	42687	110080	0	0	8251	553255	0	0
2024-06-20 19:44:32			0	37847	0	0	0	27181	25790	136623	27126	1025588	42687	110080	0	0	8251	553692	0	0
2024-06-20 19:45:32			0	37888	0	0	0	27171	25780	136507	27232	1025597	42708	110076	0	0	8253	552123	0	0
2024-06-20 19:46:32			0	37900	0	0	0	27181	25780	136551	26852	1025526	42687	110080	0	0	8253	551656	0	0
2024-06-20 19:47:32			0	37928	0	0	0	27171	25780	136395	26765	1025544	42697	110076	0	0	8255	550565	0	0
2024-06-20 19:48:32			0	37915	0	0	0	27161	25760	136363	27112	1025392	42673	110072	0	0	8254	551134	0	0
2024-06-20 19:49:32			0	37950	0	0	0	27140	25760	136331	27007	1025330	42672	110064	0	0	8256	549772	0	0
2024-06-20 19:50:32			0	37968	0	0	0	27124	25740	136191	27026	1025277	42671	110058	0	0	8258	549135	0	0
2024-06-20 19:51:32			0	37979	0	0	0	27111	25750	136127	27090	1025366	42683	110053	0	0	8258	548676	0	0
2024-06-20 19:52:32			0	38002	0	0	0	27101	25730	136151	27203	1025251	42670	110049	0	0	8260	547846	0	0
2024-06-20 19:53:32			0	38033	0	0	0	27090	25730	136052	27140	1025251	42681	110045	0	0	8261	546644	0	0
2024-06-20 19:54:32			0	38055	0	0	0	27088	25710	135996	27204	1025199	42680	110044	0	0	8263	545854	0	0
2024-06-20 19:55:32			0	38070	0	0	0	27075	25710	135892	27119	1025199	42658	110039	0	0	8264	545274	0	0
2024-06-20 19:56:32			0	38087	0	0	0	27080	25710	135836	27152	1025110	42679	110041	0	0	8264	544616	0	0
2024-06-20 19:57:32			0	38115	0	0	0	27062	25700	135704	26937	1025021	42690	110034	0	0	8266	543566	0	0
2024-06-20 19:58:32			0	38146	0	0	0	27057	25680	135632	26850	1025057	42676	110032	0	0	8268	542431	0	0
2024-06-20 19:59:32			0	38173	0	0	0	27057	25700	135588	27036	1025119	42667	110032	0	0	8269	541329	0	0
2024-06-20 20:00:32			0	38181	0	0	0	27054	25680	135556	27128	1025066	42688	110031	0	0	8269	541083	0	0
2024-06-20 20:01:32			0	38179	0	0	0	27049	25670	135544	27057	1025067	42665	110029	0	0	8269	541190	0	0
2024-06-20 20:02:32			0	38227	0	0	0	27054	25660	135460	26864	1025049	42685	110031	0	0	8272	539375	0	0
2024-06-20 20:03:32			0	38216	0	0	0	27051	25670	135472	26882	1025013	42687	110030	0	0	8271	539767	0	0
2024-06-20 20:04:32			0	38252	0	0	0	27064	25670	135328	27112	1025040	42675	110035	0	0	8273	538384	0	0
2024-06-20 20:05:32			0	38271	0	0	0	27051	25660	135328	26916	1025031	42686	110030	0	0	8274	537686	0	0
2024-06-20 20:06:32			0	38291	0	0	0	27059	25670	135252	27161	1025040	42675	110033	0	0	8275	536888	0	0
2024-06-20 20:07:32			0	38291	0	0	0	27059	25670	135364	27072	1025040	42675	110033	0	0	8275	536888	0	0
2024-06-20 20:08:32			0	38310	0	0	0	27062	25660	135152	27079	1024942	42685	110034	0	0	8276	536191	0	0
2024-06-20 20:09:32			0	38309	0	0	0	27057	25660	135096	26899	1024978	42674	110032	0	0	8276	536229	0	0
2024-06-20 20:10:32			0	38312	0	0	0	27059	25650	135124	27074	1024960	42674	110033	0	0	8276	536145	0	0
2024-06-20 20:11:32			0	38299	0	0	0	27044	25660	135168	26996	1024915	42674	110027	0	0	8276	536612	0	0
2024-06-20 20:12:32			0	38292	0	0	0	27051	25650	135132	27109	1024978	42674	110030	0	0	8275	536911	0	0
2024-06-20 20:13:32			0	38270	0	0	0	27054	25650	135280	27215	1024987	42663	110031	0	0	8274	537755	0	0
2024-06-20 20:14:32			0	38249	0	0	0	27049	25640	135388	27229	1024970	42673	110029	0	0	8273	538591	0	0
2024-06-20 20:15:32			0	38231	0	0	0	27049	25640	135324	26916	1024970	42684	110029	0	0	8272	539283	0	0
2024-06-20 20:16:32			0	38195	0	0	0	27054	25650	135528	27168	1024925	42674	110031	0	0	8270	540636	0	0
2024-06-20 20:17:32			0	38167	0	0	0	27046	25650	135660	27107	1024960	42674	110028	0	0	8269	541714	0	0
2024-06-20 20:18:32			0	38168	0	0	0	27049	25640	135732	27249	1024934	42672	110029	0	0	8269	541707	0	0
2024-06-20 20:19:32			0	38124	0	0	0	27044	25640	135812	27081	1024961	42683	110027	0	0	8267	543404	0	0
2024-06-20 20:20:32			0	38087	0	0	0	27044	25640	135928	27300	1024908	42672	110027	0	0	8265	544833	0	0
2024-06-20 20:21:32			0	38067	0	0	0	27046	25640	135992	27034	1024881	42661	110028	0	0	8264	545607	0	0
2024-06-20 20:22:32			0	38042	0	0	0	27044	25640	135980	27223	1024970	42684	110027	0	0	8262	546575	0	0
2024-06-20 20:23:32			0	38045	0	0	0	27041	25640	136048	27182	1024934	42683	110026	0	0	8263	546459	0	0
2024-06-20 20:24:32			0	38018	0	0	0	27041	25650	136175	27019	1025005	42674	110026	0	0	8261	547475	0	0
2024-06-20 20:25:32			0	37984	0	0	0	27046	25640	136223	26880	1024934	42672	110028	0	0	8259	548826	0	0
2024-06-20 20:26:32			0	37980	0	0	0	27044	25630	136219	27218	1024926	42683	110027	0	0	8259	549013	0	0
2024-06-20 20:27:32			0	37968	0	0	0	27051	25630	136391	26894	1024926	42672	110030	0	0	8258	549479	0	0
2024-06-20 20:28:32			0	37941	0	0	0	27046	25640	136391	26696	1024970	42673	110028	0	0	8257	550498	0	0
2024-06-20 20:29:32			0	37940	0	0	0	27046	25650	136363	26986	1025005	42674	110028	0	0	8257	550506	0	0
2024-06-20 20:30:32			0	37930	0	0	0	27049	25630	136411	27152	1024917	42683	110029	0	0	8256	550958	0	0
2024-06-20 20:31:32			0	37913	0	0	0	27054	25640	136443	26863	1024943	42673	110031	0	0	8256	551589	0	0
2024-06-20 20:32:32			0	37909	0	0	0	27038	25630	136527	27024	1024899	42672	110025	0	0	8256	551776	0	0
2024-06-20 20:33:32			0	37916	0	0	0	27044	25630	136483	26958	1024899	42672	110027	0	0	8256	551503	0	0
2024-06-20 20:34:32			0	37916	0	0	0	27044	25640	136543	26885	1024988	42672	110027	0	0	8256	551472	0	0
2024-06-20 20:35:32			0	37898	0	0	0	27041	25630	136463	27130	1024845	42672	110026	0	0	8255	552205	0	0
2024-06-20 20:36:32			0	37905	0	0	0	27038	25630	136599	27048	1024899	42650	110025	0	0	8255	551932	0	0
2024-06-20 20:37:32			0	37900	0	0	0	27031	25620	136567	27189	1024855	42671	110022	0	0	8255	552158	0	0
2024-06-20 20:38:32			0	37894	0	0	0	27041	25640	136591	27102	1024934	42672	110026	0	0	8255	552329	0	0
2024-06-20 20:39:32			0	37912	0	0	0	27031	25630	136499	27126	1024890	42683	110022	0	0	8256	551659	0	0
2024-06-20 20:40:32			0	37871	0	0	0	27036	25630	136539	26906	1024890	42672	110024	0	0	8254	553259	0	0
2024-06-20 20:41:32			0	37886	0	0	0	27036	25620	136571	27300	1024908	42671	110024	0	0	8254	552704	0	0
2024-06-20 20:42:32			0	37861	0	0	0	27041	25630	136699	26916	1024837	42683	110026	0	0	8253	553649	0	0
2024-06-20 20:43:32			0	37866	0	0	0	27036	25630	136655	27341	1024845	42661	110024	0	0	8253	553454	0	0
2024-06-20 20:44:32			0	37879	0	0	0	27033	25630	136559	27124	1024899	42683	110023	0	0	8254	552946	0	0
2024-06-20 20:45:32			0	37877	0	0	0	27038	25630	136735	27147	1024872	42683	110025	0	0	8254	553024	0	0
2024-06-20 20:46:32			0	37879	0	0	0	27033	25630	136687	27241	1024890	42683	110023	0	0	8254	552946	0	0
2024-06-20 20:47:32			0	37860	0	0	0	27033	25630	136735	27144	1024917	42672	110023	0	0	8253	553688	0	0
2024-06-20 20:48:32			0	37867	0	0	0	27031	25620	136671	27022	1024855	42660	110022	0	0	8253	553446	0	0
2024-06-20 20:49:32			0	37867	0	0	0	27023	25630	136639	27097	1024863	42683	110019	0	0	8254	553415	0	0
2024-06-20 20:50:32			0	37851	0	0	0	27025	25610	136679	27154	1024811	42670	110020	0	0	8253	554103	0	0
2024-06-20 20:51:32			0	37857	0	0	0	27007	25620	136643	26776	1024828	42660	110013	0	0	8253	553837	0	0
2024-06-20 20:52:32			0	37844	0	0	0	27010	25620	136675	27187	1024846	42670	110014	0	0	8253	554345	0	0
2024-06-20 20:53:32			0	37849	0	0	0	27015	25610	136675	27213	1024802	42670	110016	0	0	8253	554181	0	0
2024-06-20 20:54:32			0	37819	0	0	0	27015	25610	136711	27332	1024757	42681	110016	0	0	8251	555355	0	0
2024-06-20 20:55:32			0	37845	0	0	0	27012	25610	136747	27346	1024757	42670	110015	0	0	8253	554338	0	0
2024-06-20 20:56:32			0	37839	0	0	0	27010	25610	136763	27286	1024784	42681	110014	0	0	8252	554572	0	0
2024-06-20 20:57:32			0	37854	0	0	0	27015	25610	136699	27350	1024757	42681	110016	0	0	8253	553986	0	0
2024-06-20 20:58:32			0	37859	0	0	0	27002	25600	136783	27393	1024767	42692	110011	0	0	8253	553822	0	0
2024-06-20 20:59:32			0	37866	0	0	0	27010	25610	136691	26904	1024802	42670	110014	0	0	8254	553517	0	0
2024-06-20 21:00:32			0	37852	0	0	0	27010	25620	136687	27092	1024793	42670	110014	0	0	8253	554032	0	0
2024-06-20 21:01:32			0	37863	0	0	0	27005	25600	136627	26996	1024758	42658	110012	0	0	8254	553666	0	0
2024-06-20 21:02:32			0	37862	0	0	0	27002	25600	136667	27065	1024820	42669	110011	0	0	8254	553705	0	0
2024-06-20 21:03:32			0	37854	0	0	0	26999	25600	136643	27182	1024704	42668	110010	0	0	8253	554017	0	0
2024-06-20 21:04:32			0	37866	0	0	0	26994	25600	136551	26942	1024785	42668	110008	0	0	8254	553548	0	0
2024-06-20 21:05:32			0	37888	0	0	0	26989	25600	136543	27150	1024758	42679	110006	0	0	8255	552689	0	0
2024-06-20 21:06:32			0	37878	0	0	0	26994	25590	136519	27118	1024776	42667	110008	0	0	8255	553111	0	0
2024-06-20 21:07:32			0	37887	0	0	0	26986	25590	136551	27279	1024696	42678	110005	0	0	8255	552760	0	0
2024-06-20 21:08:32			0	37898	0	0	0	26974	25580	136563	27078	1024705	42667	110000	0	0	8256	552362	0	0
2024-06-20 21:09:32			0	37904	0	0	0	26984	25580	136527	26897	1024670	42666	110004	0	0	8256	552128	0	0
2024-06-20 21:10:32			0	37916	0	0	0	26992	25580	136455	26847	1024652	42678	110007	0	0	8256	551660	0	0
2024-06-20 21:11:32			0	37903	0	0	0	26984	25590	136531	27154	1024714	42678	110004	0	0	8256	552136	0	0
2024-06-20 21:12:32			0	37917	0	0	0	26981	25580	136527	27360	1024670	42678	110003	0	0	8257	551621	0	0
2024-06-20 21:13:32			0	37909	0	0	0	26992	25600	136495	27078	1024713	42669	110007	0	0	8256	551870	0	0
2024-06-20 21:14:32			0	37939	0	0	0	26984	25600	136479	27039	1024713	42680	110004	0	0	8258	550701	0	0
2024-06-20 21:15:32			0	37917	0	0	0	26979	25570	136367	27196	1024626	42677	110002	0	0	8257	551652	0	0
2024-06-20 21:16:32			0	37917	0	0	0	26974	25580	136423	27249	1024697	42678	110000	0	0	8257	551621	0	0
2024-06-20 21:17:32			0	37919	0	0	0	26968	25570	136419	27502	1024634	42688	109998	0	0	8257	551575	0	0
2024-06-20 21:18:32			0	37917	0	0	0	26968	25570	136435	27244	1024572	42677	109998	0	0	8257	551652	0	0
2024-06-20 21:19:32			0	37929	0	0	0	26968	25570	136491	27343	1024554	42666	109998	0	0	8257	551185	0	0
2024-06-20 21:20:32			0	37916	0	0	0	26961	25560	136447	27206	1024537	42677	109995	0	0	8257	551723	0	0
2024-06-20 21:21:32			0	37907	0	0	0	26948	25560	136511	27168	1024590	42666	109990	0	0	8257	552074	0	0
2024-06-20 21:22:32			0	37926	0	0	0	26953	25560	136503	27300	1024671	42666	109992	0	0	8258	551333	0	0
2024-06-20 21:23:32			0	37930	0	0	0	26955	25570	136427	26958	1024572	42666	109993	0	0	8258	551146	0	0
2024-06-20 21:24:32			0	37955	0	0	0	26942	25550	136511	27235	1024573	42686	109988	0	0	8259	550235	0	0
2024-06-20 21:25:32			0	37941	0	0	0	26945	25550	136475	27081	1024493	42664	109989	0	0	8258	550780	0	0
2024-06-20 21:26:32			0	37947	0	0	0	26942	25560	136455	26987	1024608	42676	109988	0	0	8259	550515	0	0
2024-06-20 21:27:32			0	37939	0	0	0	26945	25560	136431	27055	1024617	42666	109989	0	0	8258	550827	0	0
2024-06-20 21:28:32			0	37938	0	0	0	26945	25570	136435	27083	1024572	42677	109989	0	0	8258	550834	0	0
2024-06-20 21:29:32			0	37959	0	0	0	26937	25550	136375	27156	1024520	42664	109986	0	0	8259	550079	0	0
2024-06-20 21:30:32			0	37968	0	0	0	26932	25540	136431	26944	1024475	42653	109984	0	0	8260	549760	0	0
2024-06-20 21:31:32			0	37942	0	0	0	26927	25550	136455	26771	1024510	42664	109982	0	0	8259	550741	0	0
2024-06-20 21:32:32			0	37963	0	0	0	26924	25540	136359	26878	1024466	42664	109981	0	0	8260	549955	0	0
2024-06-20 21:33:32			0	37952	0	0	0	26932	25530	136343	27123	1024431	42663	109984	0	0	8259	550414	0	0
2024-06-20 21:34:32			0	37971	0	0	0	26937	25530	136327	27137	1024404	42663	109986	0	0	8260	549675	0	0
2024-06-20 21:35:32			0	37956	0	0	0	26924	25530	136287	27135	1024404	42684	109981	0	0	8259	550259	0	0
2024-06-20 21:36:32			0	37960	0	0	0	26919	25530	136347	27156	1024431	42651	109979	0	0	8260	550103	0	0
2024-06-20 21:37:32			0	37964	0	0	0	26922	25530	136371	26876	1024396	42662	109980	0	0	8260	549947	0	0
2024-06-20 21:38:32			0	37969	0	0	0	26927	25530	136255	27118	1024404	42684	109982	0	0	8260	549753	0	0
2024-06-20 21:39:32			0	37977	0	0	0	26932	25530	136259	27059	1024449	42662	109984	0	0	8260	549442	0	0
2024-06-20 21:40:32			0	37984	0	0	0	26932	25530	136211	27201	1024458	42673	109984	0	0	8261	549169	0	0
2024-06-20 21:41:32			0	37993	0	0	0	26932	25530	136275	26946	1024503	42672	109984	0	0	8261	548820	0	0
2024-06-20 21:42:32			0	37988	0	0	0	26937	25540	136243	27066	1024520	42664	109986	0	0	8261	548983	0	0
2024-06-20 21:43:32			0	38015	0	0	0	26950	25530	136283	26960	1024449	42672	109991	0	0	8262	547965	0	0
2024-06-20 21:44:32			0	38003	0	0	0	26948	25530	136215	27079	1024431	42673	109990	0	0	8261	548431	0	0
2024-06-20 21:45:32			0	37990	0	0	0	26945	25540	136223	27280	1024529	42675	109989	0	0	8261	548905	0	0
2024-06-20 21:46:32			0	38000	0	0	0	26945	25540	136231	27396	1024493	42664	109989	0	0	8261	548516	0	0
2024-06-20 21:47:32			0	38014	0	0	0	26945	25530	136319	27052	1024485	42663	109989	0	0	8262	548004	0	0
2024-06-20 21:48:32			0	38023	0	0	0	26945	25540	136199	27267	1024493	42664	109989	0	0	8263	547624	0	0
2024-06-20 21:49:32			0	38038	0	0	0	26940	25530	136200	26807	1024422	42672	109987	0	0	8263	547073	0	0
2024-06-20 21:50:32			0	38028	0	0	0	26935	25530	136203	26897	1024422	42672	109985	0	0	8263	547461	0	0
2024-06-20 21:51:32			0	38035	0	0	0	26945	25540	136112	27060	1024502	42664	109989	0	0	8263	547158	0	0
2024-06-20 21:52:32			0	38049	0	0	0	26937	25530	136168	26837	1024404	42684	109986	0	0	8264	546646	0	0
2024-06-20 21:53:32			0	38051	0	0	0	26935	25530	136076	27055	1024458	42673	109985	0	0	8264	546569	0	0
2024-06-20 21:54:32			0	38072	0	0	0	26950	25530	136128	27039	1024485	42663	109991	0	0	8265	545755	0	0
2024-06-20 21:55:32			0	38064	0	0	0	26937	25540	136068	26844	1024502	42664	109986	0	0	8265	546034	0	0
2024-06-20 21:56:32			0	38090	0	0	0	26942	25530	136040	26998	1024458	42684	109988	0	0	8266	545058	0	0
2024-06-20 21:57:32			0	38078	0	0	0	26937	25530	135960	27142	1024485	42673	109986	0	0	8266	545523	0	0
2024-06-20 21:58:32			0	38101	0	0	0	26940	25530	135956	27109	1024476	42662	109987	0	0	8267	544633	0	0
2024-06-20 21:59:32			0	38091	0	0	0	26940	25530	135940	27341	1024458	42673	109987	0	0	8266	545020	0	0
2024-06-20 22:00:32			0	38110	0	0	0	26937	25530	135960	26753	1024458	42673	109986	0	0	8267	544285	0	0
2024-06-20 22:01:32			0	38114	0	0	0	26940	25530	135928	27298	1024485	42673	109987	0	0	8267	544130	0	0
2024-06-20 22:02:32			0	38107	0	0	0	26942	25540	135900	27267	1024440	42674	109988	0	0	8267	544370	0	0
2024-06-20 22:03:32			0	38107	0	0	0	26937	25540	135844	27105	1024466	42664	109986	0	0	8267	544370	0	0
2024-06-20 22:04:32			0	38125	0	0	0	26937	25530	135892	27249	1024458	42684	109986	0	0	8268	543705	0	0
2024-06-20 22:05:32			0	38129	0	0	0	26940	25530	135884	27164	1024422	42672	109987	0	0	8268	543551	0	0
2024-06-20 22:06:32			0	38119	0	0	0	26932	25530	135836	27303	1024449	42672	109984	0	0	8268	543937	0	0
2024-06-20 22:07:32			0	38123	0	0	0	26922	25520	135820	26883	1024432	42672	109980	0	0	8268	543813	0	0
2024-06-20 22:08:32			0	38128	0	0	0	26919	25520	135796	27211	1024441	42672	109979	0	0	8268	543620	0	0
2024-06-20 22:09:32			0	38134	0	0	0	26929	25520	135848	27098	1024360	42672	109983	0	0	8269	543389	0	0
2024-06-20 22:10:32			0	38125	0	0	0	26927	25520	135856	27150	1024485	42662	109982	0	0	8268	543736	0	0
2024-06-20 22:11:32			0	38129	0	0	0	26924	25520	135880	27225	1024441	42672	109981	0	0	8268	543582	0	0
2024-06-20 22:12:32			0	38134	0	0	0	26911	25520	135916	27053	1024432	42662	109976	0	0	8269	543389	0	0
2024-06-20 22:13:32			0	38135	0	0	0	26924	25510	135872	26981	1024370	42671	109981	0	0	8269	543381	0	0
2024-06-20 22:14:32			0	38136	0	0	0	26911	25510	135828	27220	1024388	42670	109976	0	0	8269	543342	0	0
2024-06-20 22:15:32			0	38148	0	0	0	26909	25510	135772	26856	1024316	42671	109975	0	0	8270	542879	0	0
2024-06-20 22:16:32			0	38134	0	0	0	26901	25510	135884	26993	1024396	42671	109972	0	0	8269	543420	0	0
2024-06-20 22:17:32			0	38107	0	0	0	26898	25500	135824	27241	1024317	42670	109971	0	0	8268	544494	0	0
2024-06-20 22:18:32			0	38124	0	0	0	26911	25500	135960	27225	1024290	42660	109976	0	0	8268	543837	0	0
2024-06-20 22:19:32			0	38123	0	0	0	26896	25490	135848	27305	1024255	42692	109970	0	0	8268	543906	0	0
2024-06-20 22:20:32			0	38110	0	0	0	26898	25510	135972	27206	1024307	42670	109971	0	0	8268	544347	0	0
2024-06-20 22:21:32			0	38118	0	0	0	26888	25500	135960	26828	1024290	42670	109967	0	0	8268	544069	0	0
2024-06-20 22:22:32			0	38103	0	0	0	26896	25500	135976	26840	1024344	42670	109970	0	0	8267	544649	0	0
2024-06-20 22:23:32			0	38091	0	0	0	26890	25500	136000	27281	1024317	42670	109968	0	0	8267	545113	0	0
2024-06-20 22:24:32			0	38095	0	0	0	26890	25490	136024	27078	1024281	42669	109968	0	0	8267	544989	0	0
2024-06-20 22:25:32			0	38077	0	0	0	26898	25490	136016	27249	1024255	42659	109971	0	0	8266	545686	0	0
2024-06-20 22:26:32			0	38056	0	0	0	26893	25480	136152	27331	1024264	42668	109969	0	0	8265	546530	0	0
2024-06-20 22:27:32			0	38071	0	0	0	26896	25490	136084	27140	1024255	42681	109970	0	0	8266	545918	0	0
2024-06-20 22:28:32			0	38065	0	0	0	26893	25480	136084	27242	1024166	42680	109969	0	0	8265	546182	0	0
2024-06-20 22:29:32			0	38052	0	0	0	26896	25490	136160	27133	1024281	42669	109970	0	0	8265	546654	0	0
2024-06-20 22:30:32			0	38034	0	0	0	26888	25480	136152	27130	1024264	42668	109967	0	0	8264	547383	0	0
2024-06-20 22:31:32			0	38037	0	0	0	26893	25480	136216	27015	1024291	42658	109969	0	0	8264	547267	0	0
2024-06-20 22:32:32			0	38060	0	0	0	26896	25480	136212	26987	1024192	42668	109970	0	0	8265	546375	0	0
2024-06-20 22:33:32			0	38054	0	0	0	26890	25470	136192	27326	1024175	42680	109968	0	0	8265	546639	0	0
2024-06-20 22:34:32			0	38062	0	0	0	26877	25480	136036	27124	1024264	42668	109963	0	0	8266	546298	0	0
2024-06-20 22:35:32			0	38093	0	0	0	26893	25470	136032	26804	1024140	42679	109969	0	0	8267	545128	0	0
2024-06-20 22:36:32			0	38093	0	0	0	26880	25480	135984	27119	1024184	42668	109964	0	0	8267	545097	0	0
2024-06-20 22:37:32			0	38122	0	0	0	26885	25480	135956	27026	1024184	42668	109966	0	0	8268	543976	0	0
2024-06-20 22:38:32			0	38166	0	0	0	26885	25470	135864	27133	1024220	42657	109966	0	0	8271	542308	0	0
2024-06-20 22:39:32			0	38194	0	0	0	26893	25480	135796	27024	1024237	42680	109969	0	0	8272	541198	0	0
2024-06-20 22:40:32			0	38200	0	0	0	26893	25470	135600	27320	1024148	42668	109969	0	0	8272	540997	0	0
2024-06-20 22:41:32			0	38223	0	0	0	26890	25480	135656	27379	1024264	42668	109968	0	0	8274	540081	0	0
2024-06-20 22:42:32			0	38229	0	0	0	26880	25480	135592	27242	1024291	42680	109964	0	0	8274	539850	0	0
2024-06-20 22:43:32			0	38237	0	0	0	26890	25480	135428	27244	1024246	42668	109968	0	0	8274	539543	0	0
2024-06-20 22:44:32			0	38277	0	0	0	26898	25480	135388	27410	1024291	42668	109971	0	0	8276	538006	0	0
2024-06-20 22:45:32			0	38281	0	0	0	26890	25490	135460	27213	1024228	42669	109968	0	0	8277	537822	0	0
2024-06-20 22:46:32			0	38286	0	0	0	26893	25480	135368	27107	1024246	42658	109969	0	0	8277	537661	0	0
2024-06-20 22:47:32			0	38285	0	0	0	26898	25480	135400	27176	1024291	42668	109971	0	0	8277	537699	0	0
2024-06-20 22:48:32			0	38300	0	0	0	26888	25480	135392	27100	1024264	42668	109967	0	0	8278	537124	0	0
2024-06-20 22:49:32			0	38293	0	0	0	26893	25480	135436	27248	1024237	42668	109969	0	0	8277	537392	0	0
2024-06-20 22:50:32			0	38313	0	0	0	26893	25480	135384	27265	1024291	42668	109969	0	0	8278	536626	0	0
2024-06-20 22:51:32			0	38303	0	0	0	26885	25460	135296	27074	1024212	42656	109966	0	0	8278	537070	0	0
2024-06-20 22:52:32			0	38301	0	0	0	26885	25470	135360	27538	1024256	42658	109966	0	0	8278	537116	0	0
2024-06-20 22:53:32			0	38305	0	0	0	26888	25480	135440	27133	1024211	42647	109967	0	0	8278	536932	0	0
2024-06-20 22:54:32			0	38300	0	0	0	26880	25470	135404	27180	1024220	42679	109964	0	0	8278	537154	0	0
2024-06-20 22:55:32			0	38321	0	0	0	26890	25480	135384	27036	1024237	42680	109968	0	0	8279	536319	0	0
2024-06-20 22:56:32			0	38308	0	0	0	26893	25470	135276	26930	1024220	42679	109969	0	0	8278	536848	0	0
2024-06-20 22:57:32			0	38311	0	0	0	26893	25460	135276	27020	1024265	42666	109969	0	0	8278	536763	0	0
2024-06-20 22:58:32			0	38308	0	0	0	26893	25480	135376	26982	1024237	42668	109969	0	0	8278	536817	0	0
2024-06-20 22:59:32			0	38321	0	0	0	26890	25470	135224	26989	1024229	42668	109968	0	0	8279	536350	0	0
2024-06-20 23:00:32			0	38333	0	0	0	26896	25480	135268	27020	1024273	42691	109970	0	0	8279	535859	0	0
2024-06-20 23:01:32			0	38337	0	0	0	26890	25480	135156	26778	1024246	42680	109968	0	0	8279	535706	0	0
2024-06-20 23:02:32			0	38331	0	0	0	26890	25490	135248	26819	1024281	42669	109968	0	0	8279	535905	0	0
2024-06-20 23:03:32			0	38347	0	0	0	26888	25480	135168	26955	1024264	42668	109967	0	0	8280	535324	0	0
2024-06-20 23:04:32			0	38337	0	0	0	26896	25480	135220	26920	1024264	42680	109970	0	0	8279	535706	0	0
2024-06-20 23:05:32			0	38331	0	0	0	26901	25480	135244	27086	1024300	42668	109972	0	0	8279	535936	0	0
2024-06-20 23:06:32			0	38329	0	0	0	26893	25490	135280	27128	1024255	42681	109969	0	0	8279	535982	0	0
2024-06-20 23:07:32			0	38324	0	0	0	26896	25480	135136	27078	1024246	42680	109970	0	0	8279	536204	0	0
2024-06-20 23:08:32			0	38317	0	0	0	26911	25480	135160	26759	1024318	42668	109976	0	0	8278	536472	0	0
2024-06-20 23:09:32			0	38321	0	0	0	26911	25480	135248	27034	1024264	42680	109976	0	0	8278	536319	0	0
2024-06-20 23:10:32			0	38302	0	0	0	26901	25500	135232	26731	1024317	42670	109972	0	0	8278	536986	0	0
2024-06-20 23:11:32			0	38276	0	0	0	26909	25500	135324	27027	1024317	42681	109975	0	0	8276	537983	0	0
2024-06-20 23:12:32			0	38282	0	0	0	26906	25500	135368	27322	1024326	42681	109974	0	0	8276	537753	0	0
2024-06-20 23:13:32			0	38254	0	0	0	26911	25500	135424	27069	1024379	42681	109976	0	0	8275	538828	0	0
2024-06-20 23:14:32			0	38252	0	0	0	26911	25500	135508	26715	1024317	42681	109976	0	0	8275	538905	0	0
2024-06-20 23:15:32			0	38216	0	0	0	26914	25510	135528	27189	1024361	42670	109977	0	0	8273	540259	0	0
2024-06-20 23:16:32			0	38195	0	0	0	26919	25500	135660	27305	1024352	42670	109979	0	0	8272	541098	0	0
2024-06-20 23:17:32			0	38154	0	0	0	26919	25500	135716	27059	1024263	42670	109979	0	0	8270	542678	0	0
2024-06-20 23:18:32			0	38148	0	0	0	26906	25510	135908	27168	1024396	42661	109974	0	0	8270	542879	0	0
2024-06-20 23:19:32			0	38100	0	0	0	26919	25490	136076	27140	1024362	42681	109979	0	0	8267	544796	0	0
2024-06-20 23:20:32			0	38083	0	0	0	26906	25490	136064	27208	1024308	42681	109974	0	0	8266	545453	0	0
2024-06-20 23:21:32			0	38010	0	0	0	26903	25490	136195	27201	1024335	42681	109973	0	0	8262	548284	0	0
2024-06-20 23:22:32			0	37985	0	0	0	26901	25490	136347	27097	1024308	42681	109972	0	0	8261	549255	0	0
2024-06-20 23:23:32			0	37936	0	0	0	26890	25480	136531	27308	1024103	42658	109968	0	0	8259	551194	0	0
2024-06-20 23:24:32			0	37898	0	0	0	26883	25460	136663	27281	1024104	42678	109965	0	0	8257	552739	0	0
2024-06-20 23:25:32			0	37861	0	0	0	26877	25470	136815	26935	1024122	42668	109963	0	0	8255	554153	0	0
2024-06-20 23:26:32			0	37806	0	0	0	26864	25460	136963	27131	1024096	42655	109958	0	0	8252	556338	0	0
2024-06-20 23:27:32			0	37809	0	0	0	26872	25460	137047	27045	1024185	42666	109961	0	0	8252	556221	0	0
2024-06-20 23:28:32			0	37755	0	0	0	26867	25450	137211	27036	1024114	42666	109959	0	0	8250	558371	0	0
2024-06-20 23:29:32			0	37716	0	0	0	26859	25450	137439	27100	1024078	42688	109956	0	0	8248	559905	0	0
2024-06-20 23:30:32			0	37694	0	0	0	26849	25450	137475	26948	1024060	42688	109952	0	0	8247	560772	0	0
2024-06-20 23:31:32			0	37637	0	0	0	26846	25450	137647	27055	1023971	42677	109951	0	0	8244	563021	0	0
2024-06-20 23:32:32			0	37621	0	0	0	26844	25440	137807	27093	1024016	42666	109950	0	0	8243	563685	0	0
2024-06-20 23:33:32			0	37608	0	0	0	26831	25440	137775	27138	1024043	42666	109945	0	0	8243	564199	0	0
2024-06-20 23:34:32			0	37571	0	0	0	26833	25450	137927	26968	1023998	42666	109946	0	0	8241	565632	0	0
2024-06-20 23:35:32			0	37550	0	0	0	26831	25430	138031	27450	1023999	42675	109945	0	0	8240	566529	0	0
2024-06-20 23:36:32			0	37526	0	0	0	26838	25430	138067	27065	1024017	42686	109948	0	0	8238	567481	0	0
2024-06-20 23:37:32			0	37492	0	0	0	26838	25440	138095	27159	1024034	42665	109948	0	0	8237	568800	0	0
2024-06-20 23:38:32			0	37478	0	0	0	26857	25440	138227	27102	1023981	42675	109955	0	0	8236	569357	0	0
2024-06-20 23:39:32			0	37463	0	0	0	26857	25440	138283	27144	1024070	42687	109955	0	0	8235	569954	0	0
2024-06-20 23:40:32			0	37472	0	0	0	26859	25450	138371	27255	1024052	42677	109956	0	0	8235	569563	0	0
2024-06-20 23:41:32			0	37435	0	0	0	26864	25440	138355	27296	1024088	42675	109958	0	0	8233	571070	0	0
2024-06-20 23:42:32			0	37429	0	0	0	26854	25440	138511	27168	1024088	42686	109954	0	0	8233	571309	0	0
2024-06-20 23:43:32			0	37402	0	0	0	26867	25430	138475	27001	1024106	42665	109959	0	0	8231	572419	0	0
2024-06-20 23:44:32			0	37396	0	0	0	26864	25450	138567	26894	1024132	42677	109958	0	0	8231	572593	0	0
2024-06-20 23:45:32			0	37375	0	0	0	26875	25440	138611	27053	1024070	42687	109962	0	0	8230	573465	0	0
2024-06-20 23:46:32			0	37388	0	0	0	26872	25440	138683	27170	1024177	42676	109961	0	0	8231	572946	0	0
2024-06-20 23:47:32			0	37354	0	0	0	26888	25450	138695	27045	1024141	42688	109967	0	0	8229	574272	0	0
2024-06-20 23:48:32			0	37349	0	0	0	26877	25460	138675	27170	1024176	42688	109963	0	0	8229	574440	0	0
2024-06-20 23:49:32			0	37340	0	0	0	26880	25450	138823	27317	1024078	42677	109964	0	0	8228	574833	0	0
2024-06-20 23:50:32			0	37317	0	0	0	26883	25450	138799	26953	1024221	42677	109965	0	0	8227	575754	0	0
2024-06-20 23:51:32			0	37328	0	0	0	26883	25460	138895	26951	1024230	42688	109965	0	0	8227	575281	0	0
2024-06-20 23:52:32			0	37309	0	0	0	26888	25460	138826	27358	1024238	42666	109967	0	0	8226	576042	0	0
2024-06-20 23:53:32			0	37302	0	0	0	26880	25470	138850	27053	1024140	42679	109964	0	0	8226	576290	0	0
2024-06-20 23:54:32			0	37295	0	0	0	26872	25460	138802	26968	1024238	42678	109961	0	0	8226	576604	0	0
2024-06-20 23:55:32			0	37281	0	0	0	26867	25470	138910	27272	1024202	42668	109959	0	0	8225	577133	0	0
2024-06-20 23:56:32			0	37263	0	0	0	26864	25460	139042	27365	1024131	42678	109958	0	0	8224	577889	0	0
2024-06-20 23:57:32			0	37277	0	0	0	26864	25460	138962	26930	1024238	42678	109958	0	0	8225	577326	0	0
2024-06-20 23:58:32			0	37255	0	0	0	26875	25460	139022	27187	1024212	42678	109962	0	0	8224	578210	0	0
2024-06-20 23:59:32			0	37251	0	0	0	26870	25450	138954	27215	1024221	42666	109960	0	0	8224	578404	0	0
2024-06-21 00:00:32			0	37262	0	0	0	26875	25470	139098	26953	1024256	42691	109962	0	0	8224	577896	0	0
2024-06-21 00:01:32			0	37221	0	0	0	26880	25470	139006	27111	1024193	42679	109964	0	0	8222	579545	0	0
2024-06-21 00:02:32			0	37237	0	0	0	26883	25470	139042	27046	1024220	42667	109965	0	0	8223	578901	0	0
2024-06-21 00:03:32			0	37224	0	0	0	26880	25470	139142	27059	1024193	42690	109964	0	0	8222	579424	0	0
2024-06-21 00:04:32			0	37223	0	0	0	26888	25470	139210	26989	1024220	42679	109967	0	0	8222	579464	0	0
2024-06-21 00:05:32			0	37215	0	0	0	26885	25460	139166	26953	1024238	42678	109966	0	0	8221	579819	0	0
2024-06-21 00:06:32			0	37211	0	0	0	26877	25480	139106	26889	1024237	42680	109963	0	0	8222	579915	0	0
2024-06-21 00:07:32			0	37192	0	0	0	26883	25460	139266	27145	1024265	42666	109965	0	0	8220	580746	0	0
2024-06-21 00:08:32			0	37206	0	0	0	26883	25470	139198	26733	1024282	42680	109965	0	0	8221	580149	0	0
2024-06-21 00:09:32			0	37181	0	0	0	26880	25470	139222	27203	1024220	42667	109964	0	0	8220	581157	0	0
2024-06-21 00:10:32			0	37196	0	0	0	26877	25470	139230	26712	1024220	42679	109963	0	0	8221	580552	0	0
2024-06-21 00:11:32			0	37189	0	0	0	26872	25470	139318	26731	1024229	42680	109961	0	0	8220	580834	0	0
2024-06-21 00:12:32			0	37186	0	0	0	26870	25460	139238	27013	1024230	42677	109960	0	0	8220	580988	0	0
2024-06-21 00:13:32			0	37176	0	0	0	26880	25460	139278	27093	1024158	42666	109964	0	0	8220	581391	0	0
2024-06-21 00:14:32			0	37152	0	0	0	26870	25470	139322	27192	1024167	42679	109960	0	0	8219	582327	0	0
2024-06-21 00:15:32			0	37159	0	0	0	26867	25470	139378	26953	1024193	42667	109959	0	0	8219	582044	0	0
2024-06-21 00:16:32			0	37149	0	0	0	26870	25460	139290	26866	1024212	42666	109960	0	0	8218	582481	0	0
2024-06-21 00:17:32			0	37137	0	0	0	26875	25470	139382	27130	1024220	42667	109962	0	0	8218	582933	0	0
2024-06-21 00:18:32			0	37123	0	0	0	26877	25460	139514	27263	1024149	42688	109963	0	0	8217	583532	0	0
2024-06-21 00:19:32			0	37117	0	0	0	26875	25460	139558	27010	1024238	42666	109962	0	0	8217	583775	0	0
2024-06-21 00:20:32			0	37096	0	0	0	26880	25470	139618	26927	1024247	42679	109964	0	0	8215	584591	0	0
2024-06-21 00:21:32			0	37082	0	0	0	26880	25470	139538	27372	1024256	42680	109964	0	0	8215	585159	0	0
2024-06-21 00:22:32			0	37078	0	0	0	26875	25460	139778	27001	1024238	42666	109962	0	0	8215	585354	0	0
2024-06-21 00:23:32			0	37039	0	0	0	26880	25470	139838	26922	1024282	42680	109964	0	0	8212	586902	0	0
2024-06-21 00:24:32			0	36995	0	0	0	26872	25460	139874	26854	1024292	42678	109961	0	0	8210	588724	0	0
2024-06-21 00:25:32			0	36983	0	0	0	26880	25470	140070	27364	1024247	42667	109964	0	0	8210	589179	0	0
2024-06-21 00:26:32			0	36964	0	0	0	26872	25460	140154	27079	1024238	42678	109961	0	0	8209	589986	0	0
2024-06-21 00:27:32			0	36937	0	0	0	26875	25460	140234	27242	1024131	42678	109962	0	0	8207	591086	0	0
2024-06-21 00:28:32			0	36911	0	0	0	26857	25460	140278	27090	1024185	42678	109955	0	0	8206	592148	0	0
2024-06-21 00:29:32			0	36878	0	0	0	26857	25470	140378	27166	1024086	42667	109955	0	0	8204	593463	0	0
2024-06-21 00:30:32			0	36846	0	0	0	26841	25450	140534	27178	1024114	42677	109949	0	0	8203	594840	0	0
2024-06-21 00:31:32			0	36830	0	0	0	26838	25450	140686	27135	1024114	42677	109948	0	0	8202	595496	0	0
2024-06-21 00:32:32			0	36794	0	0	0	26836	25440	140802	27177	1024070	42687	109947	0	0	8200	597007	0	0
2024-06-21 00:33:32			0	36783	0	0	0	26841	25450	140874	27211	1024132	42677	109949	0	0	8200	597425	0	0
2024-06-21 00:34:32			0	36719	0	0	0	26833	25450	141034	27107	1024033	42677	109946	0	0	8196	600058	0	0
2024-06-21 00:35:32			0	36687	0	0	0	26836	25450	141106	27291	1024052	42677	109947	0	0	8195	601378	0	0
2024-06-21 00:36:32			0	36664	0	0	0	26828	25450	141286	27092	1024078	42655	109944	0	0	8194	602328	0	0
2024-06-21 00:37:32			0	36636	0	0	0	26828	25440	141354	27232	1024061	42665	109944	0	0	8192	603519	0	0
2024-06-21 00:38:32			0	36583	0	0	0	26812	25440	141489	26804	1024016	42666	109938	0	0	8190	605715	0	0
2024-06-21 00:39:32			0	36579	0	0	0	26807	25430	141605	27157	1023919	42642	109936	0	0	8190	605915	0	0
2024-06-21 00:40:32			0	36525	0	0	0	26784	25420	141697	26859	1023874	42664	109927	0	0	8187	608193	0	0
2024-06-21 00:41:32			0	36509	0	0	0	26789	25420	141829	27253	1023892	42663	109929	0	0	8186	608859	0	0
2024-06-21 00:42:32			0	36489	0	0	0	26776	25420	142069	27272	1023892	42663	109924	0	0	8185	609692	0	0
2024-06-21 00:43:32			0	36436	0	0	0	26773	25400	142089	27034	1023751	42671	109923	0	0	8182	611972	0	0
2024-06-21 00:44:32			0	36416	0	0	0	26781	25400	142229	27248	1023813	42662	109926	0	0	8181	612808	0	0
2024-06-21 00:45:32			0	36370	0	0	0	26776	25390	142349	26890	1023849	42671	109924	0	0	8179	614768	0	0
2024-06-21 00:46:32			0	36359	0	0	0	26773	25400	142449	27130	1023885	42671	109923	0	0	8178	615194	0	0
2024-06-21 00:47:32			0	36339	0	0	0	26776	25410	142553	27187	1023929	42673	109924	0	0	8177	615998	0	0
2024-06-21 00:48:32			0	36301	0	0	0	26773	25390	142605	27126	1023849	42661	109923	0	0	8175	617665	0	0
2024-06-21 00:49:32			0	36285	0	0	0	26781	25400	142613	27112	1023840	42662	109926	0	0	8174	618302	0	0
2024-06-21 00:50:32			0	36257	0	0	0	26768	25390	142841	27183	1023796	42661	109921	0	0	8173	619517	0	0
2024-06-21 00:51:32			0	36221	0	0	0	26755	25400	142953	27208	1023751	42661	109916	0	0	8171	620999	0	0
2024-06-21 00:52:32			0	36215	0	0	0	26745	25380	142897	26965	1023671	42649	109912	0	0	8171	621323	0	0
2024-06-21 00:53:32			0	36194	0	0	0	26750	25370	143093	27197	1023645	42636	109914	0	0	8170	622245	0	0
2024-06-21 00:54:32			0	36166	0	0	0	26735	25350	143081	27034	1023611	42656	109908	0	0	8169	623501	0	0
2024-06-21 00:55:32			0	36121	0	0	0	26727	25350	143149	27050	1023619	42656	109905	0	0	8166	625407	0	0
2024-06-21 00:56:32			0	36136	0	0	0	26719	25350	143277	27305	1023557	42656	109902	0	0	8167	624771	0	0
2024-06-21 00:57:32			0	36119	0	0	0	26711	25330	143317	27033	1023478	42643	109899	0	0	8167	625563	0	0
2024-06-21 00:58:32			0	36104	0	0	0	26703	25340	143437	27178	1023433	42656	109896	0	0	8166	626164	0	0
2024-06-21 00:59:32			0	36079	0	0	0	26706	25330	143565	26868	1023424	42666	109897	0	0	8164	627262	0	0
2024-06-21 01:00:32			0	36062	0	0	0	26709	25320	143617	27248	1023380	42642	109898	0	0	8164	628020	0	0
2024-06-21 01:01:32			0	36058	0	0	0	26696	25310	143673	27185	1023408	42664	109893	0	0	8163	628226	0	0
2024-06-21 01:02:32			0	36046	0	0	0	26698	25310	143669	27086	1023408	42653	109894	0	0	8163	628737	0	0
2024-06-21 01:03:32			0	36030	0	0	0	26706	25310	143697	26951	1023354	42653	109897	0	0	8162	629418	0	0
2024-06-21 01:04:32			0	36017	0	0	0	26701	25310	143777	27055	1023381	42641	109895	0	0	8161	629973	0	0
2024-06-21 01:05:32			0	36003	0	0	0	26693	25310	143845	27038	1023408	42653	109892	0	0	8161	630570	0	0
2024-06-21 01:06:32			0	36007	0	0	0	26693	25290	143829	26908	1023408	42651	109892	0	0	8161	630471	0	0
2024-06-21 01:07:32			0	35978	0	0	0	26701	25300	143913	27215	1023444	42652	109895	0	0	8159	631673	0	0
2024-06-21 01:08:32			0	35970	0	0	0	26693	25300	143937	26972	1023310	42663	109892	0	0	8159	632015	0	0
2024-06-21 01:09:32			0	35966	0	0	0	26683	25300	144045	27019	1023372	42652	109888	0	0	8159	632186	0	0
2024-06-21 01:10:32			0	35945	0	0	0	26690	25290	144081	27029	1023355	42651	109891	0	0	8157	633120	0	0
2024-06-21 01:11:32			0	35954	0	0	0	26683	25300	144113	27092	1023363	42652	109888	0	0	8158	632699	0	0
2024-06-21 01:12:32			0	35928	0	0	0	26680	25290	144125	26986	1023346	42661	109887	0	0	8157	633847	0	0
2024-06-21 01:13:32			0	35943	0	0	0	26688	25290	144201	27085	1023355	42662	109890	0	0	8157	633205	0	0
2024-06-21 01:14:32			0	35923	0	0	0	26683	25290	144197	27319	1023346	42661	109888	0	0	8156	634061	0	0
2024-06-21 01:15:32			0	35913	0	0	0	26683	25290	144233	27034	1023319	42661	109888	0	0	8156	634490	0	0
2024-06-21 01:16:32			0	35928	0	0	0	26675	25290	144305	27246	1023319	42650	109885	0	0	8157	633847	0	0
2024-06-21 01:17:32			0	35903	0	0	0	26677	25290	144277	27348	1023239	42650	109886	0	0	8155	634919	0	0
2024-06-21 01:18:32			0	35899	0	0	0	26675	25280	144229	27306	1023311	42650	109885	0	0	8155	635126	0	0
2024-06-21 01:19:32			0	35884	0	0	0	26672	25280	144189	26837	1023337	42661	109884	0	0	8155	635770	0	0
2024-06-21 01:20:32			0	35883	0	0	0	26667	25280	144385	26894	1023275	42650	109882	0	0	8155	635813	0	0
2024-06-21 01:21:32			0	35888	0	0	0	26662	25280	144393	27078	1023275	42661	109880	0	0	8155	635598	0	0
2024-06-21 01:22:32			0	35874	0	0	0	26670	25270	144377	27015	1023213	42649	109883	0	0	8154	636235	0	0
2024-06-21 01:23:32			0	35892	0	0	0	26667	25280	144373	27220	1023248	42661	109882	0	0	8155	635427	0	0
2024-06-21 01:24:32			0	35869	0	0	0	26662	25260	144469	26972	1023196	42659	109880	0	0	8154	636486	0	0
2024-06-21 01:25:32			0	35860	0	0	0	26662	25270	144577	27147	1023231	42648	109880	0	0	8153	636837	0	0
2024-06-21 01:26:32			0	35860	0	0	0	26664	25260	144516	27031	1023214	42658	109881	0	0	8153	636873	0	0
2024-06-21 01:27:32			0	35855	0	0	0	26651	25260	144488	27163	1023196	42648	109876	0	0	8153	637088	0	0
2024-06-21 01:28:32			0	35839	0	0	0	26657	25270	144592	27256	1023204	42659	109878	0	0	8152	637739	0	0
2024-06-21 01:29:32			0	35839	0	0	0	26651	25250	144588	27147	1023143	42668	109876	0	0	8152	637812	0	0
2024-06-21 01:30:32			0	35835	0	0	0	26657	25250	144576	26991	1023197	42668	109878	0	0	8152	637984	0	0
2024-06-21 01:31:32			0	35840	0	0	0	26649	25250	144560	27064	1023125	42647	109875	0	0	8152	637769	0	0
2024-06-21 01:32:32			0	35840	0	0	0	26646	25250	144600	27227	1023116	42668	109874	0	0	8152	637769	0	0
2024-06-21 01:33:32			0	35818	0	0	0	26651	25250	144512	27320	1023116	42658	109876	0	0	8151	638716	0	0
2024-06-21 01:34:32			0	35814	0	0	0	26646	25240	144588	27154	1023108	42646	109874	0	0	8151	638924	0	0
2024-06-21 01:35:32			0	35819	0	0	0	26646	25240	144696	27202	1023045	42645	109874	0	0	8151	638709	0	0
2024-06-21 01:36:32			0	35816	0	0	0	26641	25240	144740	27114	1023019	42657	109872	0	0	8151	638838	0	0
2024-06-21 01:37:32			0	35807	0	0	0	26633	25220	144688	27298	1022966	42644	109869	0	0	8151	639298	0	0
2024-06-21 01:38:32			0	35792	0	0	0	26618	25220	144676	27156	1022966	42656	109863	0	0	8150	639945	0	0
2024-06-21 01:39:32			0	35804	0	0	0	26605	25220	144696	27140	1022966	42644	109858	0	0	8151	639428	0	0
2024-06-21 01:40:32			0	35828	0	0	0	26599	25220	144684	27242	1022939	42633	109856	0	0	8153	638394	0	0
2024-06-21 01:41:32			0	35816	0	0	0	26607	25210	144696	27398	1022949	42665	109859	0	0	8152	638947	0	0
2024-06-21 01:42:32			0	35785	0	0	0	26612	25200	144788	27076	1022958	42643	109861	0	0	8150	640320	0	0
2024-06-21 01:43:32			0	35792	0	0	0	26615	25200	144780	27265	1022958	42654	109862	0	0	8150	640018	0	0
2024-06-21 01:44:32			0	35785	0	0	0	26625	25210	144828	27104	1023020	42654	109866	0	0	8150	640283	0	0
2024-06-21 01:45:32			0	35791	0	0	0	26628	25210	144784	27192	1023029	42654	109867	0	0	8150	640024	0	0
2024-06-21 01:46:32			0	35800	0	0	0	26636	25210	144744	27230	1023002	42643	109870	0	0	8150	639636	0	0
2024-06-21 01:47:32			0	35787	0	0	0	26638	25220	144744	27064	1023011	42655	109871	0	0	8150	640161	0	0
2024-06-21 01:48:32			0	35797	0	0	0	26628	25210	144800	27039	1022940	42654	109867	0	0	8150	639766	0	0
2024-06-21 01:49:32			0	35816	0	0	0	26628	25210	144824	27163	1022976	42665	109867	0	0	8151	638947	0	0
2024-06-21 01:50:32			0	35820	0	0	0	26618	25210	144692	26944	1023002	42665	109863	0	0	8152	638775	0	0
2024-06-21 01:51:32			0	35864	0	0	0	26618	25210	144581	27308	1022940	42654	109863	0	0	8154	636882	0	0
2024-06-21 01:52:32			0	35910	0	0	0	26618	25200	144313	27192	1022878	42643	109863	0	0	8156	634943	0	0
2024-06-21 01:53:32			0	35975	0	0	0	26618	25210	143973	27026	1022940	42654	109863	0	0	8160	632124	0	0
2024-06-21 01:54:32			0	36086	0	0	0	26618	25220	143569	27118	1023011	42666	109863	0	0	8166	627356	0	0
2024-06-21 01:55:32			0	36185	0	0	0	26625	25210	143097	27038	1022940	42654	109866	0	0	8171	623192	0	0
2024-06-21 01:56:32			0	36304	0	0	0	26615	25210	142877	27124	1022895	42665	109862	0	0	8177	618170	0	0
2024-06-21 01:57:32			0	36378	0	0	0	26612	25210	142605	27332	1022860	42654	109861	0	0	8181	615062	0	0
2024-06-21 01:58:32			0	36456	0	0	0	26615	25210	142349	27258	1022994	42665	109862	0	0	8185	611797	0	0
2024-06-21 01:59:32			0	36502	0	0	0	26607	25200	142045	27241	1022905	42654	109859	0	0	8188	609912	0	0
2024-06-21 02:00:32			0	36533	0	0	0	26612	25190	141953	27211	1022887	42674	109861	0	0	8189	608655	0	0
2024-06-21 02:01:32			0	36572	0	0	0	26602	25200	141797	27275	1022923	42664	109857	0	0	8192	606998	0	0
2024-06-21 02:02:32			0	36600	0	0	0	26610	25200	141742	27078	1022878	42654	109860	0	0	8193	605836	0	0
2024-06-21 02:03:32			0	36618	0	0	0	26607	25200	141578	27147	1022869	42642	109859	0	0	8194	605089	0	0
2024-06-21 02:04:32			0	36647	0	0	0	26594	25190	141522	27310	1022834	42641	109854	0	0	8196	603922	0	0
2024-06-21 02:05:32			0	36645	0	0	0	26592	25190	141542	27194	1022834	42652	109853	0	0	8196	604004	0	0
2024-06-21 02:06:32			0	36673	0	0	0	26584	25190	141518	27346	1022887	42663	109850	0	0	8197	602845	0	0
2024-06-21 02:07:32			0	36658	0	0	0	26576	25180	141458	26993	1022763	42651	109847	0	0	8196	603500	0	0
2024-06-21 02:08:32			0	36652	0	0	0	26571	25170	141574	27150	1022754	42651	109845	0	0	8196	603783	0	0
2024-06-21 02:09:32			0	36646	0	0	0	26581	25180	141542	27289	1022790	42651	109849	0	0	8196	603997	0	0
2024-06-21 02:10:32			0	36669	0	0	0	26581	25180	141482	27104	1022763	42662	109849	0	0	8197	603045	0	0
2024-06-21 02:11:32			0	36668	0	0	0	26581	25170	141418	26942	1022834	42640	109849	0	0	8197	603121	0	0
2024-06-21 02:12:32			0	36676	0	0	0	26571	25160	141438	27279	1022764	42650	109845	0	0	8197	602824	0	0
2024-06-21 02:13:32			0	36667	0	0	0	26566	25170	141418	27111	1022808	42651	109843	0	0	8197	603162	0	0
2024-06-21 02:14:32			0	36668	0	0	0	26571	25160	141486	27078	1022710	42662	109845	0	0	8197	603155	0	0
2024-06-21 02:15:32			0	36664	0	0	0	26571	25170	141518	27121	1022781	42651	109845	0	0	8197	603286	0	0
2024-06-21 02:16:32			0	36651	0	0	0	26571	25170	141498	27150	1022745	42662	109845	0	0	8196	603824	0	0
2024-06-21 02:17:32			0	36663	0	0	0	26568	25160	141454	27010	1022710	42650	109844	0	0	8197	603362	0	0
2024-06-21 02:18:32			0	36665	0	0	0	26561	25160	141590	27211	1022728	42661	109841	0	0	8197	603279	0	0
2024-06-21 02:19:32			0	36654	0	0	0	26563	25160	141486	27331	1022755	42638	109842	0	0	8196	603734	0	0
2024-06-21 02:20:32			0	36637	0	0	0	26561	25160	141402	27339	1022728	42649	109841	0	0	8196	604439	0	0
2024-06-21 02:21:32			0	36654	0	0	0	26550	25150	141538	27137	1022738	42648	109837	0	0	8197	603769	0	0
2024-06-21 02:22:32			0	36654	0	0	0	26550	25150	141542	27381	1022711	42637	109837	0	0	8197	603769	0	0
2024-06-21 02:23:32			0	36655	0	0	0	26550	25150	141562	27166	1022604	42648	109837	0	0	8197	603727	0	0
2024-06-21 02:24:32			0	36640	0	0	0	26545	25140	141538	27301	1022676	42659	109835	0	0	8196	604383	0	0
2024-06-21 02:25:32			0	36652	0	0	0	26545	25130	141534	27192	1022605	42647	109835	0	0	8196	603920	0	0
2024-06-21 02:26:32			0	36639	0	0	0	26545	25140	141566	27333	1022667	42647	109835	0	0	8196	604424	0	0
2024-06-21 02:27:32			0	36639	0	0	0	26537	25140	141582	27241	1022568	42647	109832	0	0	8196	604424	0	0
2024-06-21 02:28:32			0	36648	0	0	0	26527	25130	141594	26812	1022658	42659	109828	0	0	8197	604086	0	0
2024-06-21 02:29:32			0	36659	0	0	0	26535	25130	141670	27303	1022524	42636	109831	0	0	8197	603630	0	0
2024-06-21 02:30:32			0	36650	0	0	0	26535	25130	141574	27183	1022658	42647	109831	0	0	8197	604003	0	0
2024-06-21 02:31:32			0	36634	0	0	0	26527	25130	141598	26979	1022551	42647	109828	0	0	8196	604666	0	0
2024-06-21 02:32:32			0	36647	0	0	0	26519	25120	141598	26856	1022480	42646	109825	0	0	8197	604162	0	0
2024-06-21 02:33:32			0	36655	0	0	0	26516	25110	141522	27272	1022463	42634	109824	0	0	8197	603864	0	0
2024-06-21 02:34:32			0	36651	0	0	0	26522	25130	141522	26835	1022569	42647	109826	0	0	8197	603961	0	0
2024-06-21 02:35:32			0	36663	0	0	0	26514	25120	141526	27005	1022445	42624	109823	0	0	8198	603499	0	0
2024-06-21 02:36:32			0	36666	0	0	0	26511	25120	141550	27107	1022498	42657	109822	0	0	8198	603375	0	0
2024-06-21 02:37:32			0	36673	0	0	0	26501	25110	141566	27121	1022463	42646	109818	0	0	8198	603119	0	0
2024-06-21 02:38:32			0	36676	0	0	0	26511	25120	141650	26909	1022418	42634	109822	0	0	8198	602961	0	0
2024-06-21 02:39:32			0	36670	0	0	0	26506	25110	141542	27209	1022436	42657	109820	0	0	8198	603243	0	0
2024-06-21 02:40:32			0	36698	0	0	0	26506	25110	141438	27242	1022454	42645	109820	0	0	8199	602085	0	0
2024-06-21 02:41:32			0	36696	0	0	0	26501	25100	141390	27119	1022464	42632	109818	0	0	8199	602202	0	0
2024-06-21 02:42:32			0	36719	0	0	0	26490	25100	141390	27206	1022410	42644	109814	0	0	8201	601252	0	0
2024-06-21 02:43:32			0	36721	0	0	0	26501	25090	141434	27043	1022429	42666	109818	0	0	8201	601204	0	0
2024-06-21 02:44:32			0	36714	0	0	0	26490	25100	141390	26672	1022437	42632	109814	0	0	8201	601458	0	0
2024-06-21 02:45:32			0	36742	0	0	0	26488	25100	141318	27100	1022357	42632	109813	0	0	8202	600303	0	0
2024-06-21 02:46:32			0	36750	0	0	0	26493	25090	141238	26955	1022375	42644	109815	0	0	8202	600007	0	0
2024-06-21 02:47:32			0	36745	0	0	0	26485	25090	141346	27315	1022402	42666	109812	0	0	8202	600213	0	0
2024-06-21 02:48:32			0	36777	0	0	0	26493	25090	141254	27059	1022366	42632	109815	0	0	8204	598894	0	0
2024-06-21 02:49:32			0	36796	0	0	0	26493	25090	141214	27076	1022375	42644	109815	0	0	8205	598112	0	0
2024-06-21 02:50:32			0	36774	0	0	0	26493	25080	141070	26738	1022358	42631	109815	0	0	8204	599052	0	0
2024-06-21 02:51:32			0	36774	0	0	0	26493	25080	141106	26821	1022358	42631	109815	0	0	8204	599052	0	0
2024-06-21 02:52:32			0	36800	0	0	0	26496	25080	141118	27086	1022385	42653	109816	0	0	8205	597982	0	0
2024-06-21 02:53:32			0	36804	0	0	0	26493	25080	141086	26998	1022349	42641	109815	0	0	8205	597817	0	0
2024-06-21 02:54:32			0	36829	0	0	0	26496	25070	141002	26928	1022287	42641	109816	0	0	8206	596823	0	0
2024-06-21 02:55:32			0	36819	0	0	0	26496	25080	140962	27072	1022376	42619	109816	0	0	8206	597200	0	0
2024-06-21 02:56:32			0	36821	0	0	0	26503	25080	140950	26894	1022358	42631	109819	0	0	8206	597118	0	0
2024-06-21 02:57:32			0	36835	0	0	0	26514	25080	140922	26882	1022438	42665	109823	0	0	8206	596543	0	0
2024-06-21 02:58:32			0	36844	0	0	0	26535	25080	140818	27218	1022465	42653	109831	0	0	8206	596173	0	0
2024-06-21 02:59:32			0	36849	0	0	0	26563	25090	140914	27126	1022581	42632	109842	0	0	8206	595934	0	0
2024-06-21 03:00:32			0	36866	0	0	0	26581	25100	140922	27131	1022606	42666	109849	0	0	8207	595203	0	0
2024-06-21 03:01:32			0	36867	0	0	0	26597	25100	140826	27001	1022687	42655	109855	0	0	8207	595162	0	0
2024-06-21 03:02:32			0	36880	0	0	0	26612	25120	140762	27017	1022740	42667	109861	0	0	8207	594562	0	0
2024-06-21 03:03:32			0	36877	0	0	0	26623	25130	140806	27197	1022757	42668	109865	0	0	8207	594651	0	0
2024-06-21 03:04:32			0	36888	0	0	0	26633	25130	140702	27317	1022819	42680	109869	0	0	8207	594200	0	0
2024-06-21 03:05:32			0	36887	0	0	0	26631	25150	140694	26960	1022853	42682	109868	0	0	8207	594174	0	0
2024-06-21 03:06:32			0	36899	0	0	0	26638	25150	140670	26967	1022961	42671	109871	0	0	8208	593682	0	0
2024-06-21 03:07:32			0	36921	0	0	0	26646	25160	140530	26944	1022942	42682	109874	0	0	8209	592748	0	0
2024-06-21 03:08:32			0	36946	0	0	0	26654	25170	140482	26887	1022933	42672	109877	0	0	8210	591693	0	0
2024-06-21 03:09:32			0	36956	0	0	0	26664	25180	140506	27116	1022951	42662	109881	0	0	8211	591251	0	0
2024-06-21 03:10:32			0	36971	0	0	0	26662	25170	140322	27123	1022933	42672	109880	0	0	8211	590673	0	0
2024-06-21 03:11:32			0	36999	0	0	0	26664	25180	140302	27199	1022959	42674	109881	0	0	8213	589498	0	0
2024-06-21 03:12:32			0	37018	0	0	0	26662	25180	140230	27118	1022906	42685	109880	0	0	8214	588724	0	0
2024-06-21 03:13:32			0	37022	0	0	0	26662	25180	140178	27251	1022951	42684	109880	0	0	8214	588562	0	0
2024-06-21 03:14:32			0	37062	0	0	0	26667	25190	140030	27092	1023021	42663	109882	0	0	8216	586902	0	0
2024-06-21 03:15:32			0	37057	0	0	0	26670	25200	140026	27168	1023003	42675	109883	0	0	8216	587072	0	0
2024-06-21 03:16:32			0	37060	0	0	0	26680	25190	140062	27085	1023021	42685	109887	0	0	8216	586983	0	0
2024-06-21 03:17:32			0	37066	0	0	0	26670	25210	139922	26989	1023101	42676	109883	0	0	8216	586673	0	0
2024-06-21 03:18:32			0	37079	0	0	0	26680	25210	139970	27144	1023136	42687	109887	0	0	8217	586145	0	0
2024-06-21 03:19:32			0	37074	0	0	0	26670	25220	139962	27286	1023172	42677	109883	0	0	8217	586315	0	0
2024-06-21 03:20:32			0	37093	0	0	0	26677	25220	140022	27177	1023198	42688	109886	0	0	8218	585544	0	0
2024-06-21 03:21:32			0	37108	0	0	0	26675	25220	139910	27488	1023073	42700	109885	0	0	8218	584936	0	0
2024-06-21 03:22:32			0	37105	0	0	0	26680	25220	139926	27227	1023153	42677	109887	0	0	8218	585058	0	0
2024-06-21 03:23:32			0	37105	0	0	0	26675	25230	139830	27066	1023144	42690	109885	0	0	8218	585024	0	0
2024-06-21 03:24:32			0	37097	0	0	0	26683	25230	139826	26842	1023189	42677	109888	0	0	8218	585349	0	0
2024-06-21 03:25:32			0	37109	0	0	0	26685	25240	139826	27012	1023206	42678	109889	0	0	8218	584829	0	0
2024-06-21 03:26:32			0	37102	0	0	0	26677	25240	139746	26859	1023206	42678	109886	0	0	8218	585113	0	0
2024-06-21 03:27:32			0	37121	0	0	0	26670	25230	139758	26972	1023189	42666	109883	0	0	8219	584376	0	0
2024-06-21 03:28:32			0	37109	0	0	0	26667	25230	139874	27064	1023082	42666	109882	0	0	8219	584862	0	0
2024-06-21 03:29:32			0	37086	0	0	0	26667	25230	139850	27121	1023109	42677	109882	0	0	8217	585795	0	0
2024-06-21 03:30:32			0	37092	0	0	0	26664	25220	139858	27076	1023020	42677	109881	0	0	8218	585585	0	0
2024-06-21 03:31:32			0	37096	0	0	0	26644	25220	139958	26802	1022984	42677	109873	0	0	8218	585422	0	0
2024-06-21 03:32:32			0	37060	0	0	0	26615	25200	139974	27078	1022816	42664	109862	0	0	8217	586950	0	0
2024-06-21 03:33:32			0	37063	0	0	0	26589	25180	140010	27007	1022691	42652	109852	0	0	8217	586895	0	0
2024-06-21 03:34:32			0	37053	0	0	0	26558	25160	140142	26859	1022603	42650	109840	0	0	8217	587368	0	0
2024-06-21 03:35:32			0	37042	0	0	0	26550	25150	140158	27145	1022586	42649	109837	0	0	8217	587848	0	0
2024-06-21 03:36:32			0	37003	0	0	0	26540	25150	140238	27105	1022470	42648	109833	0	0	8215	589435	0	0
2024-06-21 03:37:32			0	37008	0	0	0	26529	25120	140226	27078	1022480	42667	109829	0	0	8215	589332	0	0
2024-06-21 03:38:32			0	36993	0	0	0	26542	25120	140322	26856	1022507	42657	109834	0	0	8214	589943	0	0
2024-06-21 03:39:32			0	36976	0	0	0	26553	25120	140366	26904	1022587	42679	109838	0	0	8213	590637	0	0
2024-06-21 03:40:32			0	36946	0	0	0	26576	25140	140394	26724	1022747	42692	109847	0	0	8211	591794	0	0
2024-06-21 03:41:32			0	36930	0	0	0	26597	25150	140554	27211	1022872	42704	109855	0	0	8210	592414	0	0
2024-06-21 03:42:32			0	36919	0	0	0	26618	25150	140510	27173	1022907	42682	109863	0	0	8209	592864	0	0
2024-06-21 03:43:32			0	36911	0	0	0	26628	25160	140602	26764	1022916	42682	109867	0	0	8209	593158	0	0
2024-06-21 03:44:32			0	36877	0	0	0	26644	25180	140654	26791	1023013	42674	109873	0	0	8207	594482	0	0
2024-06-21 03:45:32			0	36870	0	0	0	26654	25190	140830	26741	1023102	42708	109877	0	0	8206	594735	0	0
2024-06-21 03:46:32			0	36828	0	0	0	26675	25210	140894	27013	1023190	42687	109885	0	0	8204	596390	0	0
2024-06-21 03:47:32			0	36831	0	0	0	26690	25220	140826	26935	1023252	42699	109891	0	0	8204	596233	0	0
2024-06-21 03:48:32			0	36800	0	0	0	26701	25230	140930	26875	1023358	42690	109895	0	0	8202	597473	0	0
2024-06-21 03:49:32			0	36760	0	0	0	26724	25240	141042	27144	1023420	42690	109904	0	0	8200	599085	0	0
2024-06-21 03:50:32			0	36747	0	0	0	26737	25250	140994	27241	1023473	42703	109909	0	0	8199	599586	0	0
2024-06-21 03:51:32			0	36744	0	0	0	26745	25270	141218	27138	1023508	42705	109912	0	0	8199	599641	0	0
2024-06-21 03:52:32			0	36713	0	0	0	26750	25280	141150	27232	1023597	42706	109914	0	0	8197	600886	0	0
2024-06-21 03:53:32			0	36692	0	0	0	26753	25290	141318	27334	1023569	42695	109915	0	0	8196	601718	0	0
2024-06-21 03:54:32			0	36668	0	0	0	26761	25300	141366	27036	1023604	42696	109918	0	0	8194	602676	0	0
2024-06-21 03:55:32			0	36644	0	0	0	26758	25300	141502	27095	1023551	42696	109917	0	0	8193	603668	0	0
2024-06-21 03:56:32			0	36623	0	0	0	26761	25310	141546	27222	1023568	42686	109918	0	0	8192	604504	0	0
2024-06-21 03:57:32			0	36577	0	0	0	26761	25310	141581	27326	1023595	42674	109918	0	0	8190	606412	0	0
2024-06-21 03:58:32			0	36570	0	0	0	26768	25320	141705	26993	1023621	42687	109921	0	0	8189	606668	0	0
2024-06-21 03:59:32			0	36532	0	0	0	26766	25310	141917	27045	1023595	42686	109920	0	0	8187	608282	0	0
2024-06-21 04:00:32			0	36513	0	0	0	26768	25310	142069	27055	1023577	42697	109921	0	0	8186	609073	0	0
2024-06-21 04:01:32			0	36491	0	0	0	26771	25320	142113	27324	1023559	42708	109922	0	0	8185	609955	0	0
2024-06-21 04:02:32			0	36463	0	0	0	26768	25320	142113	27291	1023639	42687	109921	0	0	8184	611123	0	0
2024-06-21 04:03:32			0	36442	0	0	0	26784	25320	142297	27017	1023639	42698	109927	0	0	8182	612000	0	0
2024-06-21 04:04:32			0	36390	0	0	0	26779	25320	142401	26991	1023639	42708	109925	0	0	8180	614175	0	0
2024-06-21 04:05:32			0	36374	0	0	0	26794	25330	142501	27208	1023737	42688	109931	0	0	8179	614810	0	0
2024-06-21 04:06:32			0	36340	0	0	0	26792	25340	142585	27374	1023754	42688	109930	0	0	8177	616201	0	0
2024-06-21 04:07:32			0	36301	0	0	0	26797	25340	142689	27414	1023808	42700	109932	0	0	8175	617840	0	0
2024-06-21 04:08:32			0	36283	0	0	0	26805	25350	142825	26717	1023834	42701	109935	0	0	8174	618562	0	0
2024-06-21 04:09:32			0	36266	0	0	0	26812	25370	142853	26830	1023860	42713	109938	0	0	8173	619208	0	0
2024-06-21 04:10:32			0	36241	0	0	0	26812	25360	143117	27090	1023896	42702	109938	0	0	8171	620297	0	0
2024-06-21 04:11:32			0	36189	0	0	0	26812	25370	143173	27305	1023886	42703	109938	0	0	8169	622457	0	0
2024-06-21 04:12:32			0	36172	0	0	0	26810	25380	143149	27230	1023877	42704	109937	0	0	8168	623140	0	0
2024-06-21 04:13:32			0	36150	0	0	0	26810	25390	143385	26814	1023921	42704	109937	0	0	8167	624036	0	0
2024-06-21 04:14:32			0	36111	0	0	0	26810	25380	143393	27173	1023877	42692	109937	0	0	8165	625725	0	0
2024-06-21 04:15:32			0	36096	0	0	0	26807	25380	143541	27180	1023850	42704	109936	0	0	8164	626361	0	0
2024-06-21 04:16:32			0	36072	0	0	0	26797	25380	143577	27365	1023930	42692	109932	0	0	8163	627381	0	0
2024-06-21 04:17:32			0	36054	0	0	0	26789	25370	143741	27088	1023815	42703	109929	0	0	8162	628182	0	0
2024-06-21 04:18:32			0	36028	0	0	0	26792	25380	143881	26974	1023823	42681	109930	0	0	8161	629253	0	0
2024-06-21 04:19:32			0	35996	0	0	0	26786	25370	143929	27111	1023788	42703	109928	0	0	8159	630653	0	0
2024-06-21 04:20:32			0	35986	0	0	0	26773	25350	143953	27123	1023700	42678	109923	0	0	8159	631152	0	0
2024-06-21 04:21:32			0	35972	0	0	0	26766	25350	144065	27020	1023718	42689	109920	0	0	8158	631750	0	0
2024-06-21 04:22:32			0	35945	0	0	0	26761	25340	144137	27124	1023656	42678	109918	0	0	8157	632940	0	0
2024-06-21 04:23:32			0	35945	0	0	0	26766	25340	144201	27045	1023656	42689	109920	0	0	8156	632940	0	0
2024-06-21 04:24:32			0	35927	0	0	0	26748	25340	144217	26975	1023620	42700	109913	0	0	8156	633710	0	0
2024-06-21 04:25:32			0	35904	0	0	0	26761	25340	144273	26994	1023656	42701	109918	0	0	8154	634696	0	0
2024-06-21 04:26:32			0	35898	0	0	0	26740	25340	144477	27027	1023602	42678	109910	0	0	8154	634953	0	0
2024-06-21 04:27:32			0	35883	0	0	0	26748	25340	144489	27005	1023674	42700	109913	0	0	8153	635596	0	0
2024-06-21 04:28:32			0	35866	0	0	0	26748	25340	144565	27045	1023682	42689	109913	0	0	8153	636326	0	0
2024-06-21 04:29:32			0	35844	0	0	0	26755	25340	144564	27454	1023701	42688	109916	0	0	8151	637271	0	0
2024-06-21 04:30:32			0	35800	0	0	0	26755	25350	144628	26953	1023691	42689	109916	0	0	8149	639128	0	0
2024-06-21 04:31:32			0	35811	0	0	0	26761	25350	144700	26922	1023718	42689	109918	0	0	8149	638654	0	0
2024-06-21 04:32:32			0	35794	0	0	0	26758	25350	144704	27364	1023771	42689	109917	0	0	8149	639387	0	0
2024-06-21 04:33:32			0	35785	0	0	0	26763	25350	144836	26764	1023691	42689	109919	0	0	8148	639774	0	0
2024-06-21 04:34:32			0	35796	0	0	0	26755	25350	144732	26842	1023718	42689	109916	0	0	8149	639300	0	0
2024-06-21 04:35:32			0	35778	0	0	0	26758	25340	144932	26968	1023736	42678	109917	0	0	8148	640113	0	0
2024-06-21 04:36:32			0	35760	0	0	0	26755	25340	144912	26738	1023709	42689	109916	0	0	8147	640889	0	0
2024-06-21 04:37:32			0	35749	0	0	0	26763	25350	144884	27177	1023673	42689	109919	0	0	8146	641328	0	0
2024-06-21 04:38:32			0	35752	0	0	0	26768	25350	145008	26849	1023718	42689	109921	0	0	8146	641198	0	0
2024-06-21 04:39:32			0	35732	0	0	0	26761	25350	144936	27026	1023726	42689	109918	0	0	8145	642062	0	0
2024-06-21 04:40:32			0	35727	0	0	0	26768	25360	145000	26955	1023762	42690	109921	0	0	8145	642242	0	0
2024-06-21 04:41:32			0	35716	0	0	0	26768	25350	145056	27121	1023718	42701	109921	0	0	8144	642754	0	0
2024-06-21 04:42:32			0	35718	0	0	0	26766	25350	145116	26994	1023673	42678	109920	0	0	8144	642667	0	0
2024-06-21 04:43:32			0	35706	0	0	0	26768	25350	145132	27092	1023780	42701	109921	0	0	8144	643186	0	0
2024-06-21 04:44:32			0	35701	0	0	0	26768	25350	145252	27225	1023780	42678	109921	0	0	8143	643403	0	0
2024-06-21 04:45:32			0	35681	0	0	0	26763	25350	145224	26986	1023691	42678	109919	0	0	8143	644269	0	0
2024-06-21 04:46:32			0	35689	0	0	0	26761	25350	145188	27185	1023700	42701	109918	0	0	8143	643922	0	0
2024-06-21 04:47:32			0	35662	0	0	0	26758	25350	145300	27223	1023691	42689	109917	0	0	8142	645093	0	0
2024-06-21 04:48:32			0	35686	0	0	0	26750	25340	145252	27147	1023682	42667	109914	0	0	8143	644089	0	0
2024-06-21 04:49:32			0	35673	0	0	0	26737	25350	145272	26987	1023673	42678	109909	0	0	8143	644616	0	0
2024-06-21 04:50:32			0	35646	0	0	0	26729	25330	145376	27064	1023630	42676	109906	0	0	8141	645860	0	0
2024-06-21 04:51:32			0	35654	0	0	0	26716	25320	145336	27036	1023541	42687	109901	0	0	8142	645550	0	0
2024-06-21 04:52:32			0	35649	0	0	0	26714	25330	145400	27227	1023549	42676	109900	0	0	8142	645730	0	0
2024-06-21 04:53:32			0	35652	0	0	0	26698	25320	145420	27189	1023514	42675	109894	0	0	8142	645636	0	0
2024-06-21 04:54:32			0	35639	0	0	0	26696	25310	145444	27422	1023470	42686	109893	0	0	8141	646237	0	0
2024-06-21 04:55:32			0	35624	0	0	0	26696	25320	145396	27218	1023514	42687	109893	0	0	8140	646852	0	0
2024-06-21 04:56:32			0	35627	0	0	0	26685	25310	145544	27072	1023488	42686	109889	0	0	8141	646759	0	0
2024-06-21 04:57:32			0	35633	0	0	0	26677	25310	145488	27393	1023434	42674	109886	0	0	8141	646498	0	0
2024-06-21 04:58:32			0	35608	0	0	0	26677	25300	145516	27173	1023399	42685	109886	0	0	8140	647621	0	0
2024-06-21 04:59:32			0	35619	0	0	0	26667	25300	145532	26875	1023390	42673	109882	0	0	8141	647143	0	0
2024-06-21 05:00:32			0	35609	0	0	0	26670	25290	145576	27417	1023373	42683	109883	0	0	8140	647614	0	0
2024-06-21 05:01:32			0	35596	0	0	0	26664	25290	145504	27332	1023373	42683	109881	0	0	8139	648180	0	0
2024-06-21 05:02:32			0	35604	0	0	0	26654	25290	145484	27244	1023373	42661	109877	0	0	8140	647832	0	0
2024-06-21 05:03:32			0	35592	0	0	0	26649	25290	145588	27199	1023319	42683	109875	0	0	8139	648354	0	0
2024-06-21 05:04:32			0	35583	0	0	0	26646	25270	145576	27216	1023293	42649	109874	0	0	8139	648820	0	0
2024-06-21 05:05:32			0	35579	0	0	0	26638	25280	145600	26878	1023275	42672	109871	0	0	8139	648957	0	0
2024-06-21 05:06:32			0	35582	0	0	0	26638	25260	145600	27039	1023223	42659	109871	0	0	8139	648900	0	0
2024-06-21 05:07:32			0	35575	0	0	0	26623	25260	145688	27319	1023196	42659	109865	0	0	8139	649205	0	0
2024-06-21 05:08:32			0	35577	0	0	0	26620	25250	145696	26923	1023197	42658	109864	0	0	8139	649155	0	0
2024-06-21 05:09:32			0	35566	0	0	0	26615	25250	145656	27178	1023125	42680	109862	0	0	8138	649634	0	0
2024-06-21 05:10:32			0	35569	0	0	0	26594	25240	145716	27138	1023099	42657	109854	0	0	8139	649540	0	0
2024-06-21 05:11:32			0	35583	0	0	0	26597	25230	145768	26942	1023055	42666	109855	0	0	8140	648967	0	0
2024-06-21 05:12:32			0	35571	0	0	0	26586	25220	145808	27215	1023020	42666	109851	0	0	8139	649527	0	0
2024-06-21 05:13:32			0	35563	0	0	0	26584	25220	145820	27038	1023020	42656	109850	0	0	8139	649876	0	0
2024-06-21 05:14:32			0	35574	0	0	0	26576	25210	145844	27190	1022976	42676	109847	0	0	8139	649433	0	0
2024-06-21 05:15:32			0	35573	0	0	0	26566	25220	145844	27355	1022984	42655	109843	0	0	8139	649440	0	0
2024-06-21 05:16:32			0	35546	0	0	0	26576	25200	145804	27313	1022958	42676	109847	0	0	8138	650691	0	0
2024-06-21 05:17:32			0	35565	0	0	0	26571	25210	145840	26951	1022967	42676	109845	0	0	8139	649825	0	0
2024-06-21 05:18:32			0	35553	0	0	0	26574	25210	145920	27254	1022994	42665	109846	0	0	8138	650349	0	0
2024-06-21 05:19:32			0	35557	0	0	0	26574	25200	145924	27085	1022923	42664	109846	0	0	8138	650211	0	0
2024-06-21 05:20:32			0	35531	0	0	0	26574	25200	145840	27057	1022950	42664	109846	0	0	8137	651346	0	0
2024-06-21 05:21:32			0	35531	0	0	0	26566	25200	145900	27267	1022976	42664	109843	0	0	8137	651346	0	0
2024-06-21 05:22:32			0	35538	0	0	0	26574	25190	145968	27237	1022995	42685	109846	0	0	8137	651077	0	0
2024-06-21 05:23:32			0	35539	0	0	0	26599	25200	145856	26882	1023119	42676	109856	0	0	8137	650997	0	0
2024-06-21 05:24:32			0	35532	0	0	0	26612	25200	145860	27119	1023146	42676	109861	0	0	8136	651302	0	0
2024-06-21 05:25:32			0	35551	0	0	0	26615	25220	145884	27261	1023198	42666	109862	0	0	8137	650399	0	0
2024-06-21 05:26:32			0	35522	0	0	0	26631	25230	145948	26852	1023242	42666	109868	0	0	8136	651628	0	0
2024-06-21 05:27:32			0	35520	0	0	0	26633	25230	145804	27164	1023242	42677	109869	0	0	8136	651716	0	0
2024-06-21 05:28:32			0	35518	0	0	0	26636	25240	146000	27072	1023233	42667	109870	0	0	8135	651766	0	0
2024-06-21 05:29:32			0	35496	0	0	0	26641	25240	146028	27048	1023233	42678	109872	0	0	8134	652728	0	0
2024-06-21 05:30:32			0	35515	0	0	0	26644	25240	146036	26998	1023260	42690	109873	0	0	8135	651897	0	0
2024-06-21 05:31:32			0	35508	0	0	0	26641	25240	146056	27180	1023242	42668	109872	0	0	8135	652203	0	0
2024-06-21 05:32:32			0	35493	0	0	0	26644	25250	146036	27215	1023277	42679	109873	0	0	8134	652822	0	0
2024-06-21 05:33:32			0	35496	0	0	0	26646	25240	146116	27072	1023242	42668	109874	0	0	8134	652728	0	0
2024-06-21 05:34:32			0	35499	0	0	0	26644	25260	146104	27121	1023214	42658	109873	0	0	8134	652523	0	0
2024-06-21 05:35:32			0	35471	0	0	0	26649	25250	146136	27020	1023286	42680	109875	0	0	8133	653785	0	0
2024-06-21 05:36:32			0	35469	0	0	0	26638	25250	146164	27055	1023259	42669	109871	0	0	8133	653873	0	0
2024-06-21 05:37:32			0	35452	0	0	0	26633	25250	146152	27038	1023170	42679	109869	0	0	8132	654618	0	0
2024-06-21 05:38:32			0	35436	0	0	0	26628	25250	146192	27107	1023205	42658	109867	0	0	8131	655319	0	0
2024-06-21 05:39:32			0	35439	0	0	0	26615	25240	146252	26946	1023188	42658	109862	0	0	8132	655225	0	0
2024-06-21 05:40:32			0	35403	0	0	0	26620	25240	146376	26918	1023126	42657	109864	0	0	8130	656806	0	0
2024-06-21 05:41:32			0	35412	0	0	0	26607	25240	146380	26889	1023134	42658	109859	0	0	8130	656410	0	0
2024-06-21 05:42:32			0	35393	0	0	0	26605	25230	146344	26994	1023135	42666	109858	0	0	8129	657282	0	0
2024-06-21 05:43:32			0	35382	0	0	0	26607	25220	146452	27263	1023100	42689	109859	0	0	8129	657804	0	0
2024-06-21 05:44:32			0	35358	0	0	0	26602	25230	146464	27346	1023109	42656	109857	0	0	8127	658823	0	0
2024-06-21 05:45:32			0	35343	0	0	0	26607	25230	146520	27116	1023037	42667	109859	0	0	8127	659484	0	0
2024-06-21 05:46:32			0	35349	0	0	0	26605	25220	146560	27260	1023073	42689	109858	0	0	8127	659257	0	0
2024-06-21 05:47:32			0	35339	0	0	0	26607	25220	146604	27220	1023073	42666	109859	0	0	8126	659698	0	0
2024-06-21 05:48:32			0	35308	0	0	0	26597	25220	146684	27159	1023073	42666	109855	0	0	8125	661065	0	0
2024-06-21 05:49:32			0	35283	0	0	0	26602	25210	146808	27131	1023109	42665	109857	0	0	8123	662207	0	0
2024-06-21 05:50:32			0	35289	0	0	0	26607	25220	146740	27012	1023038	42677	109859	0	0	8124	661905	0	0
2024-06-21 05:51:32			0	35279	0	0	0	26602	25220	146796	27220	1023073	42666	109857	0	0	8123	662347	0	0
2024-06-21 05:52:32			0	35261	0	0	0	26612	25230	146844	26908	1023189	42677	109861	0	0	8122	663105	0	0
2024-06-21 05:53:32			0	35242	0	0	0	26623	25230	147028	26868	1023189	42666	109865	0	0	8121	663947	0	0
2024-06-21 05:54:32			0	35240	0	0	0	26636	25230	146972	27372	1023224	42678	109870	0	0	8120	664035	0	0
2024-06-21 05:55:32			0	35239	0	0	0	26646	25240	147028	27111	1023260	42667	109874	0	0	8120	664042	0	0
2024-06-21 05:56:32			0	35221	0	0	0	26651	25240	147088	26901	1023206	42667	109876	0	0	8119	664840	0	0
2024-06-21 05:57:32			0	35203	0	0	0	26659	25250	147140	27053	1023250	42668	109879	0	0	8118	665600	0	0
2024-06-21 05:58:32			0	35202	0	0	0	26667	25250	147176	26772	1023223	42668	109882	0	0	8118	665645	0	0
2024-06-21 05:59:32			0	35197	0	0	0	26675	25250	147096	26873	1023223	42679	109885	0	0	8118	665867	0	0
2024-06-21 06:00:32			0	35173	0	0	0	26672	25250	147212	27013	1023286	42669	109884	0	0	8116	666933	0	0
2024-06-21 06:01:32			0	35174	0	0	0	26677	25260	147316	27161	1023294	42658	109886	0	0	8116	666850	0	0
2024-06-21 06:02:32			0	35176	0	0	0	26677	25260	147228	26996	1023321	42669	109886	0	0	8116	666762	0	0
2024-06-21 06:03:32			0	35146	0	0	0	26675	25260	147244	26733	1023348	42680	109885	0	0	8115	668096	0	0
2024-06-21 06:04:32			0	35146	0	0	0	26677	25260	147316	26750	1023321	42692	109886	0	0	8115	668096	0	0
2024-06-21 06:05:32			0	35127	0	0	0	26683	25260	147360	26970	1023330	42681	109888	0	0	8114	668942	0	0
2024-06-21 06:06:32			0	35141	0	0	0	26690	25260	147464	27306	1023276	42670	109891	0	0	8114	668318	0	0
2024-06-21 06:07:32			0	35121	0	0	0	26685	25260	147444	27282	1023348	42680	109889	0	0	8113	669209	0	0
2024-06-21 06:08:32			0	35131	0	0	0	26688	25260	147464	27248	1023330	42692	109890	0	0	8114	668763	0	0
2024-06-21 06:09:32			0	35112	0	0	0	26680	25270	147520	27312	1023374	42682	109887	0	0	8113	669572	0	0
2024-06-21 06:10:32			0	35110	0	0	0	26688	25270	147423	27033	1023374	42682	109890	0	0	8113	669661	0	0
2024-06-21 06:11:32			0	35108	0	0	0	26685	25270	147487	27135	1023419	42681	109889	0	0	8113	669750	0	0
2024-06-21 06:12:32			0	35105	0	0	0	26690	25270	147623	27348	1023392	42681	109891	0	0	8112	669884	0	0
2024-06-21 06:13:32			0	35095	0	0	0	26685	25270	147507	27183	1023374	42693	109889	0	0	8112	670330	0	0
2024-06-21 06:14:32			0	35122	0	0	0	26683	25280	147556	26830	1023409	42683	109888	0	0	8114	669088	0	0
2024-06-21 06:15:32			0	35103	0	0	0	26680	25270	147651	27069	1023365	42659	109887	0	0	8113	669973	0	0
2024-06-21 06:16:32			0	35100	0	0	0	26680	25270	147523	27249	1023374	42671	109887	0	0	8112	670107	0	0
2024-06-21 06:17:32			0	35101	0	0	0	26667	25260	147571	27126	1023330	42681	109882	0	0	8113	670100	0	0
2024-06-21 06:18:32			0	35092	0	0	0	26662	25270	147531	27263	1023338	42670	109880	0	0	8112	670464	0	0
2024-06-21 06:19:32			0	35085	0	0	0	26646	25260	147507	27036	1023249	42681	109874	0	0	8112	670814	0	0
2024-06-21 06:20:32			0	35094	0	0	0	26646	25260	147715	27135	1023241	42680	109874	0	0	8113	670413	0	0
2024-06-21 06:21:32			0	35076	0	0	0	26628	25260	147651	27111	1023241	42669	109867	0	0	8112	671216	0	0
2024-06-21 06:22:32			0	35091	0	0	0	26623	25250	147615	27138	1023152	42680	109865	0	0	8113	670585	0	0
2024-06-21 06:23:32			0	35094	0	0	0	26615	25240	147595	26935	1023153	42678	109862	0	0	8113	670489	0	0
2024-06-21 06:24:32			0	35109	0	0	0	26607	25230	147632	27079	1023144	42667	109859	0	0	8114	669858	0	0
2024-06-21 06:25:32			0	35090	0	0	0	26602	25230	147663	26701	1023064	42657	109857	0	0	8113	670705	0	0
2024-06-21 06:26:32			0	35106	0	0	0	26589	25230	147679	26927	1023037	42667	109852	0	0	8114	669992	0	0
2024-06-21 06:27:32			0	35102	0	0	0	26586	25230	147539	27364	1023001	42666	109851	0	0	8114	670170	0	0
2024-06-21 06:28:32			0	35089	0	0	0	26566	25210	147623	27069	1022895	42654	109843	0	0	8113	670826	0	0
2024-06-21 06:29:32			0	35088	0	0	0	26545	25200	147623	27350	1022816	42642	109835	0	0	8114	670909	0	0
2024-06-21 06:30:32			0	35090	0	0	0	26524	25180	147643	26942	1022736	42662	109827	0	0	8114	670896	0	0
2024-06-21 06:31:32			0	35095	0	0	0	26501	25160	147603	27000	1022701	42661	109818	0	0	8115	670749	0	0
2024-06-21 06:32:32			0	35097	0	0	0	26493	25150	147731	27164	1022631	42648	109815	0	0	8115	670697	0	0
2024-06-21 06:33:32			0	35095	0	0	0	26488	25150	147663	27225	1022639	42661	109813	0	0	8115	670787	0	0
2024-06-21 06:34:32			0	35098	0	0	0	26496	25140	147783	26975	1022702	42669	109816	0	0	8115	670691	0	0
2024-06-21 06:35:32			0	35091	0	0	0	26488	25150	147623	27149	1022684	42660	109813	0	0	8115	670965	0	0
2024-06-21 06:36:32			0	35084	0	0	0	26503	25140	147695	26991	1022613	42659	109819	0	0	8114	671316	0	0
2024-06-21 06:37:32			0	35098	0	0	0	26501	25140	147731	27088	1022560	42647	109818	0	0	8115	670691	0	0
2024-06-21 06:38:32			0	35106	0	0	0	26514	25130	147608	27150	1022712	42669	109823	0	0	8115	670372	0	0
2024-06-21 06:39:32			0	35113	0	0	0	26506	25130	147608	27197	1022605	42669	109820	0	0	8115	670060	0	0
2024-06-21 06:40:32			0	35103	0	0	0	26511	25130	147639	27296	1022676	42647	109822	0	0	8115	670506	0	0
2024-06-21 06:41:32			0	35100	0	0	0	26506	25120	147587	27045	1022659	42657	109820	0	0	8115	670678	0	0
2024-06-21 06:42:32			0	35096	0	0	0	26498	25120	147603	27027	1022587	42667	109817	0	0	8115	670856	0	0
2024-06-21 06:43:32			0	35116	0	0	0	26480	25110	147688	26902	1022543	42657	109810	0	0	8116	670002	0	0
2024-06-21 06:44:32			0	35129	0	0	0	26472	25110	147652	27078	1022517	42657	109807	0	0	8117	669422	0	0
2024-06-21 06:45:32			0	35095	0	0	0	26462	25110	147691	27015	1022463	42657	109803	0	0	8115	670939	0	0
2024-06-21 06:46:32			0	35119	0	0	0	26451	25100	147632	27072	1022419	42644	109799	0	0	8116	669906	0	0
2024-06-21 06:47:32			0	35126	0	0	0	26457	25110	147592	27128	1022508	42656	109801	0	0	8117	669556	0	0
2024-06-21 06:48:32			0	35110	0	0	0	26446	25100	147632	27260	1022464	42666	109797	0	0	8116	670307	0	0
2024-06-21 06:49:32			0	35123	0	0	0	26459	25100	147628	26974	1022491	42644	109802	0	0	8117	669728	0	0
2024-06-21 06:50:32			0	35118	0	0	0	26462	25100	147559	26968	1022491	42666	109803	0	0	8116	669951	0	0
2024-06-21 06:51:32			0	35118	0	0	0	26472	25100	147612	27253	1022526	42677	109807	0	0	8116	669951	0	0
2024-06-21 06:52:32			0	35113	0	0	0	26483	25100	147527	27199	1022499	42655	109811	0	0	8116	670174	0	0
2024-06-21 06:53:32			0	35147	0	0	0	26475	25090	147592	26850	1022509	42666	109808	0	0	8118	668696	0	0
2024-06-21 06:54:32			0	35119	0	0	0	26475	25100	147548	27105	1022518	42655	109808	0	0	8116	669906	0	0
2024-06-21 06:55:32			0	35145	0	0	0	26475	25100	147432	27298	1022598	42644	109808	0	0	8117	668747	0	0
2024-06-21 06:56:32			0	35136	0	0	0	26472	25100	147552	26955	1022473	42644	109807	0	0	8117	669148	0	0
2024-06-21 06:57:32			0	35149	0	0	0	26457	25090	147624	27203	1022455	42655	109801	0	0	8118	668607	0	0
2024-06-21 06:58:32			0	35148	0	0	0	26444	25090	147568	27157	1022455	42655	109796	0	0	8118	668651	0	0
2024-06-21 06:59:32			0	35141	0	0	0	26420	25090	147524	26998	1022340	42654	109787	0	0	8118	668963	0	0
2024-06-21 07:00:32			0	35148	0	0	0	26405	25070	147532	27140	1022233	42652	109781	0	0	8119	668727	0	0
2024-06-21 07:01:32			0	35148	0	0	0	26371	25060	147560	27003	1022189	42640	109768	0	0	8119	668765	0	0
2024-06-21 07:02:32			0	35158	0	0	0	26329	25050	147560	26951	1022038	42639	109752	0	0	8120	668358	0	0
2024-06-21 07:03:32			0	35172	0	0	0	26275	25020	147484	26974	1021799	42615	109731	0	0	8122	667848	0	0
2024-06-21 07:04:32			0	35190	0	0	0	26236	24990	147436	27272	1021631	42588	109716	0	0	8123	667161	0	0
2024-06-21 07:05:32			0	35187	0	0	0	26189	24950	147532	26963	1021375	42584	109698	0	0	8124	667446	0	0
2024-06-21 07:06:32			0	35171	0	0	0	26150	24930	147540	26864	1021242	42594	109683	0	0	8124	668233	0	0
2024-06-21 07:07:32			0	35209	0	0	0	26114	24900	147616	27180	1021252	42591	109669	0	0	8126	666656	0	0
2024-06-21 07:08:32			0	35200	0	0	0	26119	24890	147472	27291	1021368	42614	109671	0	0	8126	667094	0	0
2024-06-21 07:09:32			0	35215	0	0	0	26148	24900	147456	26859	1021413	42636	109682	0	0	8126	666390	0	0
2024-06-21 07:10:32			0	35212	0	0	0	26181	24890	147456	27239	1021609	42614	109695	0	0	8125	666561	0	0
2024-06-21 07:11:32			0	35231	0	0	0	26212	24900	147436	26802	1021653	42614	109707	0	0	8126	665679	0	0
2024-06-21 07:12:32			0	35215	0	0	0	26249	24920	147380	27083	1021751	42649	109721	0	0	8124	666314	0	0
2024-06-21 07:13:32			0	35224	0	0	0	26288	24930	147308	26762	1021822	42638	109736	0	0	8124	665877	0	0
2024-06-21 07:14:32			0	35208	0	0	0	26319	24940	147352	27050	1021875	42639	109748	0	0	8123	666550	0	0
2024-06-21 07:15:32			0	35199	0	0	0	26345	24960	147344	27116	1021981	42641	109758	0	0	8122	666874	0	0
2024-06-21 07:16:32			0	35212	0	0	0	26361	24950	147364	27130	1022026	42629	109764	0	0	8122	666334	0	0
2024-06-21 07:17:32			0	35195	0	0	0	26371	24970	147388	26948	1022105	42631	109768	0	0	8121	667014	0	0
2024-06-21 07:18:32			0	35197	0	0	0	26381	24980	147388	26968	1022131	42633	109772	0	0	8121	666887	0	0
2024-06-21 07:19:32			0	35184	0	0	0	26389	24990	147352	27251	1022140	42644	109775	0	0	8121	667428	0	0
2024-06-21 07:20:32			0	35182	0	0	0	26407	25000	147436	27479	1022273	42624	109782	0	0	8120	667479	0	0
2024-06-21 07:21:32			0	35168	0	0	0	26425	25010	147464	27090	1022308	42646	109789	0	0	8119	668064	0	0
2024-06-21 07:22:32			0	35183	0	0	0	26451	25020	147440	27121	1022352	42647	109799	0	0	8120	667359	0	0
2024-06-21 07:23:32			0	35190	0	0	0	26454	25040	147472	27192	1022307	42660	109800	0	0	8120	666972	0	0
2024-06-21 07:24:32			0	35161	0	0	0	26444	25020	147436	27209	1022200	42625	109796	0	0	8119	668338	0	0
2024-06-21 07:25:32			0	35179	0	0	0	26425	25020	147548	27159	1022147	42648	109789	0	0	8120	667537	0	0
2024-06-21 07:26:32			0	35171	0	0	0	26407	25010	147460	27164	1022076	42624	109782	0	0	8120	667930	0	0
2024-06-21 07:27:32			0	35178	0	0	0	26386	25000	147564	27220	1021951	42634	109774	0	0	8120	667657	0	0
2024-06-21 07:28:32			0	35171	0	0	0	26368	24990	147468	27218	1021872	42644	109767	0	0	8120	668006	0	0
2024-06-21 07:29:32			0	35168	0	0	0	26355	24980	147564	27140	1021863	42611	109762	0	0	8120	668178	0	0
2024-06-21 07:30:32			0	35181	0	0	0	26316	24970	147560	27206	1021730	42620	109747	0	0	8122	667637	0	0
2024-06-21 07:31:32			0	35171	0	0	0	26301	24950	147528	27183	1021669	42618	109741	0	0	8121	668158	0	0
2024-06-21 07:32:32			0	35187	0	0	0	26262	24940	147572	27234	1021518	42618	109726	0	0	8123	667483	0	0
2024-06-21 07:33:32			0	35192	0	0	0	26257	24920	147612	27253	1021519	42616	109724	0	0	8123	667337	0	0
2024-06-21 07:34:32			0	35183	0	0	0	26246	24910	147524	27343	1021528	42625	109720	0	0	8123	667775	0	0
2024-06-21 07:35:32			0	35184	0	0	0	26249	24910	147572	27277	1021528	42615	109721	0	0	8123	667731	0	0
2024-06-21 07:36:32			0	35187	0	0	0	26254	24890	147548	27031	1021449	42636	109723	0	0	8123	667673	0	0
2024-06-21 07:37:32			0	35187	0	0	0	26251	24890	147552	26981	1021529	42614	109722	0	0	8123	667673	0	0
2024-06-21 07:38:32			0	35197	0	0	0	26241	24880	147508	27114	1021432	42624	109718	0	0	8123	667266	0	0
2024-06-21 07:39:32			0	35188	0	0	0	26228	24880	147508	27145	1021316	42623	109713	0	0	8123	667666	0	0
2024-06-21 07:40:32			0	35186	0	0	0	26212	24860	147596	27225	1021281	42621	109707	0	0	8123	667831	0	0
2024-06-21 07:41:32			0	35174	0	0	0	26199	24860	147716	26949	1021281	42621	109702	0	0	8123	668365	0	0
2024-06-21 07:42:32			0	35186	0	0	0	26205	24850	147600	27138	1021219	42631	109704	0	0	8123	667868	0	0
2024-06-21 07:43:32			0	35197	0	0	0	26220	24850	147556	27182	1021264	42631	109710	0	0	8123	667379	0	0
2024-06-21 07:44:32			0	35190	0	0	0	26225	24850	147640	27346	1021344	42642	109712	0	0	8123	667691	0	0
2024-06-21 07:45:32			0	35205	0	0	0	26238	24850	147632	27192	1021407	42621	109717	0	0	8124	667023	0	0
2024-06-21 07:46:32			0	35196	0	0	0	26254	24860	147548	26870	1021469	42631	109723	0	0	8123	667386	0	0
2024-06-21 07:47:32			0	35205	0	0	0	26262	24860	147576	27227	1021504	42655	109726	0	0	8123	666985	0	0
2024-06-21 07:48:32			0	35187	0	0	0	26288	24870	147596	27017	1021628	42644	109736	0	0	8122	667748	0	0
2024-06-21 07:49:32			0	35192	0	0	0	26309	24880	147588	26906	1021646	42645	109744	0	0	8122	667488	0	0
2024-06-21 07:50:32			0	35200	0	0	0	26332	24890	147520	27171	1021716	42658	109753	0	0	8122	667094	0	0
2024-06-21 07:51:32			0	35191	0	0	0	26348	24910	147500	27306	1021823	42659	109759	0	0	8121	667419	0	0
2024-06-21 07:52:32			0	35193	0	0	0	26368	24930	147516	26939	1021902	42649	109767	0	0	8121	667254	0	0
2024-06-21 07:53:32			0	35182	0	0	0	26384	24930	147476	27104	1021991	42661	109773	0	0	8120	667744	0	0
2024-06-21 07:54:32			0	35200	0	0	0	26397	24940	147452	27227	1021955	42662	109778	0	0	8121	666905	0	0
2024-06-21 07:55:32			0	35168	0	0	0	26399	24960	147480	27130	1021927	42641	109779	0	0	8119	668254	0	0
2024-06-21 07:56:32			0	35184	0	0	0	26394	24970	147564	27261	1022025	42642	109777	0	0	8120	667504	0	0
2024-06-21 07:57:32			0	35164	0	0	0	26389	24960	147520	27253	1022016	42665	109775	0	0	8119	668432	0	0
2024-06-21 07:58:32			0	35160	0	0	0	26412	24980	147532	27216	1022122	42643	109784	0	0	8119	668534	0	0
2024-06-21 07:59:32			0	35184	0	0	0	26436	24990	147516	27223	1022166	42655	109793	0	0	8120	667428	0	0
2024-06-21 08:00:32			0	35182	0	0	0	26431	24980	147576	27192	1022158	42655	109791	0	0	8120	667555	0	0
2024-06-21 08:01:32			0	35181	0	0	0	26444	25000	147528	27320	1022192	42657	109796	0	0	8119	667523	0	0
2024-06-21 08:02:32			0	35174	0	0	0	26433	25010	147508	27046	1022175	42634	109792	0	0	8119	667797	0	0
2024-06-21 08:03:32			0	35185	0	0	0	26431	25010	147488	27116	1022237	42657	109791	0	0	8120	667308	0	0
2024-06-21 08:04:32			0	35165	0	0	0	26420	25020	147500	27033	1022165	42647	109787	0	0	8119	668160	0	0
2024-06-21 08:05:32			0	35175	0	0	0	26420	25020	147524	26727	1022254	42659	109787	0	0	8120	667715	0	0
2024-06-21 08:06:32			0	35192	0	0	0	26441	25010	147468	26899	1022237	42646	109795	0	0	8120	666996	0	0
2024-06-21 08:07:32			0	35180	0	0	0	26449	25030	147372	27391	1022316	42660	109798	0	0	8119	667454	0	0
2024-06-21 08:08:32			0	35185	0	0	0	26459	25020	147404	27145	1022308	42659	109802	0	0	8120	667270	0	0
2024-06-21 08:09:32			0	35195	0	0	0	26462	25030	147392	26902	1022263	42649	109803	0	0	8120	666787	0	0
2024-06-21 08:10:32			0	35179	0	0	0	26457	25040	147480	27036	1022262	42650	109801	0	0	8119	667461	0	0
2024-06-21 08:11:32			0	35195	0	0	0	26441	25020	147368	26941	1022147	42625	109795	0	0	8120	666825	0	0
2024-06-21 08:12:32			0	35194	0	0	0	26420	25020	147352	27248	1022138	42647	109787	0	0	8121	666870	0	0
2024-06-21 08:13:32			0	35189	0	0	0	26423	25020	147344	26837	1022165	42647	109788	0	0	8120	667092	0	0
2024-06-21 08:14:32			0	35181	0	0	0	26433	25020	147396	26795	1022192	42658	109792	0	0	8120	667448	0	0
2024-06-21 08:15:32			0	35196	0	0	0	26433	25010	147428	27053	1022183	42657	109792	0	0	8121	666819	0	0
2024-06-21 08:16:32			0	35211	0	0	0	26446	25020	147328	27050	1022254	42669	109797	0	0	8121	666114	0	0
2024-06-21 08:17:32			0	35197	0	0	0	26457	25020	147300	27130	1022281	42659	109801	0	0	8120	666736	0	0
2024-06-21 08:18:32			0	35200	0	0	0	26459	25040	147296	27095	1022360	42660	109802	0	0	8120	666527	0	0
2024-06-21 08:19:32			0	35208	0	0	0	26470	25040	147356	26946	1022396	42661	109806	0	0	8121	666172	0	0
2024-06-21 08:20:32			0	35197	0	0	0	26475	25050	147284	27008	1022333	42662	109808	0	0	8120	666623	0	0
2024-06-21 08:21:32			0	35207	0	0	0	26483	25050	147240	27228	1022386	42662	109811	0	0	8120	666179	0	0
2024-06-21 08:22:32			0	35223	0	0	0	26501	25060	147324	27317	1022475	42662	109818	0	0	8121	665430	0	0
2024-06-21 08:23:32			0	35213	0	0	0	26501	25060	147240	27036	1022484	42663	109818	0	0	8121	665874	0	0
2024-06-21 08:24:32			0	35208	0	0	0	26509	25070	147316	27022	1022493	42674	109821	0	0	8120	666059	0	0
2024-06-21 08:25:32			0	35239	0	0	0	26524	25080	147296	26949	1022572	42675	109827	0	0	8122	664645	0	0
2024-06-21 08:26:32			0	35211	0	0	0	26535	25090	147260	27137	1022643	42666	109831	0	0	8120	665850	0	0
2024-06-21 08:27:32			0	35215	0	0	0	26527	25100	147132	26807	1022678	42666	109828	0	0	8120	665634	0	0
2024-06-21 08:28:32			0	35228	0	0	0	26535	25110	147172	27015	1022642	42678	109831	0	0	8121	665020	0	0
2024-06-21 08:29:32			0	35214	0	0	0	26545	25090	147204	26982	1022670	42666	109835	0	0	8120	665717	0	0
2024-06-21 08:30:32			0	35231	0	0	0	26555	25110	147220	27066	1022776	42678	109839	0	0	8121	664887	0	0
2024-06-21 08:31:32			0	35245	0	0	0	26555	25110	147084	27130	1022784	42679	109839	0	0	8122	664266	0	0
2024-06-21 08:32:32			0	35225	0	0	0	26576	25130	147152	27310	1022837	42680	109847	0	0	8120	665077	0	0
2024-06-21 08:33:32			0	35226	0	0	0	26579	25130	147072	27293	1022926	42680	109848	0	0	8120	665033	0	0
2024-06-21 08:34:32			0	35232	0	0	0	26579	25140	147104	27313	1022854	42669	109848	0	0	8121	664729	0	0
2024-06-21 08:35:32			0	35241	0	0	0	26579	25140	147164	27000	1022863	42669	109848	0	0	8121	664330	0	0
2024-06-21 08:36:32			0	35237	0	0	0	26576	25140	147100	27227	1022854	42680	109847	0	0	8121	664508	0	0
2024-06-21 08:37:32			0	35250	0	0	0	26574	25150	147100	26982	1022872	42670	109846	0	0	8122	663894	0	0
2024-06-21 08:38:32			0	35250	0	0	0	26563	25140	147128	27213	1022836	42669	109842	0	0	8122	663931	0	0
2024-06-21 08:39:32			0	35260	0	0	0	26568	25150	146992	27156	1022898	42681	109844	0	0	8122	663451	0	0
2024-06-21 08:40:32			0	35259	0	0	0	26579	25160	147036	27114	1022942	42682	109848	0	0	8122	663457	0	0
2024-06-21 08:41:32			0	35266	0	0	0	26576	25150	147084	26939	1022827	42671	109847	0	0	8123	663185	0	0
2024-06-21 08:42:32			0	35275	0	0	0	26568	25150	147072	27005	1022853	42661	109844	0	0	8123	662787	0	0
2024-06-21 08:43:32			0	35272	0	0	0	26571	25150	147020	27272	1022827	42671	109845	0	0	8123	662920	0	0
2024-06-21 08:44:32			0	35281	0	0	0	26563	25150	147080	27060	1022818	42660	109842	0	0	8124	662522	0	0
2024-06-21 08:45:32			0	35296	0	0	0	26561	25140	147000	27194	1022702	42680	109841	0	0	8124	661896	0	0
2024-06-21 08:46:32			0	35286	0	0	0	26555	25150	146964	27109	1022818	42670	109839	0	0	8124	662300	0	0
2024-06-21 08:47:32			0	35310	0	0	0	26561	25150	146984	27227	1022845	42681	109841	0	0	8125	661240	0	0
2024-06-21 08:48:32			0	35311	0	0	0	26558	25150	146864	27189	1022818	42681	109840	0	0	8125	661195	0	0
2024-06-21 08:49:32			0	35320	0	0	0	26561	25150	146904	27298	1022827	42671	109841	0	0	8126	660798	0	0
2024-06-21 08:50:32			0	35319	0	0	0	26566	25140	146788	27272	1022809	42680	109843	0	0	8126	660880	0	0
2024-06-21 08:51:32			0	35334	0	0	0	26555	25150	146824	27355	1022791	42670	109839	0	0	8127	660180	0	0
2024-06-21 08:52:32			0	35361	0	0	0	26555	25160	146684	27048	1022817	42672	109839	0	0	8128	658952	0	0
2024-06-21 08:53:32			0	35363	0	0	0	26540	25140	146696	27119	1022676	42659	109833	0	0	8128	658939	0	0
2024-06-21 08:54:32			0	35363	0	0	0	26514	25130	146644	27320	1022596	42658	109823	0	0	8129	658977	0	0
2024-06-21 08:55:32			0	35367	0	0	0	26496	25120	146612	27107	1022561	42646	109816	0	0	8129	658838	0	0
2024-06-21 08:56:32			0	35400	0	0	0	26485	25110	146688	27190	1022517	42657	109812	0	0	8131	657422	0	0
2024-06-21 08:57:32			0	35389	0	0	0	26488	25110	146604	27379	1022615	42666	109813	0	0	8130	657906	0	0
2024-06-21 08:58:32			0	35411	0	0	0	26472	25100	146520	27310	1022473	42655	109807	0	0	8132	656976	0	0
2024-06-21 08:59:32			0	35419	0	0	0	26467	25090	146572	27400	1022429	42644	109805	0	0	8132	656662	0	0
2024-06-21 09:00:32			0	35432	0	0	0	26464	25090	146428	27163	1022393	42654	109804	0	0	8133	656090	0	0
2024-06-21 09:01:32			0	35446	0	0	0	26446	25080	146320	27215	1022385	42653	109797	0	0	8134	655513	0	0
2024-06-21 09:02:32			0	35487	0	0	0	26444	25060	146332	26876	1022297	42651	109796	0	0	8136	653789	0	0
2024-06-21 09:03:32			0	35490	0	0	0	26433	25070	146120	27234	1022359	42652	109792	0	0	8137	653621	0	0
2024-06-21 09:04:32			0	35503	0	0	0	26425	25060	146124	27258	1022270	42651	109789	0	0	8137	653089	0	0
2024-06-21 09:05:32			0	35515	0	0	0	26431	25050	146060	27312	1022333	42662	109791	0	0	8138	652601	0	0
2024-06-21 09:06:32			0	35545	0	0	0	26423	25060	146024	27055	1022395	42650	109788	0	0	8140	651252	0	0
2024-06-21 09:07:32			0	35560	0	0	0	26431	25060	145976	27291	1022315	42662	109791	0	0	8140	650597	0	0
2024-06-21 09:08:32			0	35567	0	0	0	26441	25060	145940	27015	1022368	42662	109795	0	0	8141	650291	0	0
2024-06-21 09:09:32			0	35583	0	0	0	26444	25060	145896	27294	1022368	42662	109796	0	0	8141	649594	0	0
2024-06-21 09:10:32			0	35588	0	0	0	26444	25050	145848	27123	1022279	42662	109796	0	0	8142	649412	0	0
2024-06-21 09:11:32			0	35603	0	0	0	26438	25060	145856	27237	1022288	42662	109794	0	0	8143	648722	0	0
2024-06-21 09:12:32			0	35618	0	0	0	26444	25050	145752	26963	1022333	42662	109796	0	0	8143	648105	0	0
2024-06-21 09:13:32			0	35636	0	0	0	26454	25060	145684	27156	1022395	42683	109800	0	0	8144	647285	0	0
2024-06-21 09:14:32			0	35644	0	0	0	26467	25070	145736	27320	1022448	42652	109805	0	0	8144	646901	0	0
2024-06-21 09:15:32			0	35674	0	0	0	26462	25060	145668	27364	1022422	42672	109803	0	0	8146	645634	0	0
2024-06-21 09:16:32			0	35669	0	0	0	26475	25070	145488	27116	1022412	42674	109808	0	0	8145	645815	0	0
2024-06-21 09:17:32			0	35692	0	0	0	26475	25070	145464	27251	1022474	42674	109808	0	0	8147	644817	0	0
2024-06-21 09:18:32			0	35689	0	0	0	26488	25080	145368	27370	1022456	42674	109813	0	0	8146	644910	0	0
2024-06-21 09:19:32			0	35705	0	0	0	26488	25080	145368	27479	1022599	42675	109813	0	0	8147	644216	0	0
2024-06-21 09:20:32			0	35713	0	0	0	26498	25080	145272	27277	1022590	42664	109817	0	0	8147	643870	0	0
2024-06-21 09:21:32			0	35736	0	0	0	26509	25080	145276	27156	1022492	42665	109821	0	0	8149	642874	0	0
2024-06-21 09:22:32			0	35740	0	0	0	26511	25090	145204	27220	1022509	42666	109822	0	0	8149	642664	0	0
2024-06-21 09:23:32			0	35738	0	0	0	26506	25090	145208	27519	1022589	42666	109820	0	0	8149	642751	0	0
2024-06-21 09:24:32			0	35766	0	0	0	26514	25090	145148	27124	1022607	42666	109823	0	0	8150	641540	0	0
2024-06-21 09:25:32			0	35757	0	0	0	26516	25100	145076	27227	1022625	42655	109824	0	0	8150	641893	0	0
2024-06-21 09:26:32			0	35767	0	0	0	26514	25090	145080	27261	1022616	42655	109823	0	0	8150	641497	0	0
2024-06-21 09:27:32			0	35797	0	0	0	26519	25100	145048	27303	1022678	42666	109825	0	0	8152	640165	0	0
2024-06-21 09:28:32			0	35802	0	0	0	26542	25110	145004	27289	1022722	42689	109834	0	0	8152	639913	0	0
2024-06-21 09:29:32			0	35816	0	0	0	26537	25100	144992	27163	1022687	42655	109832	0	0	8152	639346	0	0
2024-06-21 09:30:32			0	35812	0	0	0	26529	25110	144972	27220	1022784	42667	109829	0	0	8152	639482	0	0
2024-06-21 09:31:32			0	35817	0	0	0	26537	25120	144940	27033	1022766	42679	109832	0	0	8153	639230	0	0
2024-06-21 09:32:32			0	35827	0	0	0	26532	25120	144868	26987	1022793	42667	109830	0	0	8153	638799	0	0
2024-06-21 09:33:32			0	35829	0	0	0	26540	25120	144844	27208	1022847	42667	109833	0	0	8153	638713	0	0
2024-06-21 09:34:32			0	35818	0	0	0	26548	25130	144780	26991	1022864	42680	109836	0	0	8152	639151	0	0
2024-06-21 09:35:32			0	35849	0	0	0	26561	25130	144776	27178	1022792	42680	109841	0	0	8154	637816	0	0
2024-06-21 09:36:32			0	35843	0	0	0	26550	25130	144668	27111	1022846	42659	109837	0	0	8154	638074	0	0
2024-06-21 09:37:32			0	35855	0	0	0	26550	25130	144800	27012	1022792	42659	109837	0	0	8154	637558	0	0
2024-06-21 09:38:32			0	35859	0	0	0	26550	25140	144661	27244	1022854	42659	109837	0	0	8155	637350	0	0
2024-06-21 09:39:32			0	35859	0	0	0	26548	25150	144701	27116	1022872	42681	109836	0	0	8155	637314	0	0
2024-06-21 09:40:32			0	35882	0	0	0	26553	25150	144593	27187	1022898	42670	109838	0	0	8156	636325	0	0
2024-06-21 09:41:32			0	35893	0	0	0	26548	25130	144609	27371	1022819	42669	109836	0	0	8156	635925	0	0
2024-06-21 09:42:32			0	35894	0	0	0	26548	25130	144581	26979	1022757	42668	109836	0	0	8156	635882	0	0
2024-06-21 09:43:32			0	35892	0	0	0	26550	25140	144477	26894	1022863	42669	109837	0	0	8156	635932	0	0
2024-06-21 09:44:32			0	35882	0	0	0	26545	25140	144537	26996	1022809	42669	109835	0	0	8156	636361	0	0
2024-06-21 09:45:32			0	35886	0	0	0	26550	25140	144537	26812	1022828	42659	109837	0	0	8156	636189	0	0
2024-06-21 09:46:32			0	35902	0	0	0	26542	25150	144445	27220	1022818	42670	109834	0	0	8157	635466	0	0
2024-06-21 09:47:32			0	35914	0	0	0	26545	25140	144529	27060	1022801	42659	109835	0	0	8158	634988	0	0
2024-06-21 09:48:32			0	35909	0	0	0	26548	25140	144437	27185	1022836	42680	109836	0	0	8157	635202	0	0
2024-06-21 09:49:32			0	35907	0	0	0	26535	25130	144493	27215	1022819	42669	109831	0	0	8157	635324	0	0
2024-06-21 09:50:32			0	35940	0	0	0	26548	25130	144425	26928	1022792	42680	109836	0	0	8159	633909	0	0
2024-06-21 09:51:32			0	35933	0	0	0	26540	25150	144469	26942	1022845	42681	109833	0	0	8159	634137	0	0
2024-06-21 09:52:32			0	35922	0	0	0	26553	25150	144401	26757	1022872	42670	109838	0	0	8158	634609	0	0
2024-06-21 09:53:32			0	35921	0	0	0	26555	25150	144393	27059	1022845	42670	109839	0	0	8158	634651	0	0
2024-06-21 09:54:32			0	35943	0	0	0	26555	25140	144261	27060	1022890	42669	109839	0	0	8159	633745	0	0
2024-06-21 09:55:32			0	35954	0	0	0	26555	25150	144233	27100	1022925	42660	109839	0	0	8160	633238	0	0
2024-06-21 09:56:32			0	35962	0	0	0	26555	25150	144273	27145	1022898	42660	109839	0	0	8160	632895	0	0
2024-06-21 09:57:32			0	35943	0	0	0	26561	25150	144261	26913	1022845	42681	109841	0	0	8159	633709	0	0
2024-06-21 09:58:32			0	35948	0	0	0	26563	25150	144225	27159	1022872	42670	109842	0	0	8159	633495	0	0
2024-06-21 09:59:32			0	35967	0	0	0	26558	25150	144221	27268	1022872	42660	109840	0	0	8160	632682	0	0
2024-06-21 10:00:32			0	35962	0	0	0	26545	25140	144213	26949	1022783	42680	109835	0	0	8160	632931	0	0
2024-06-21 10:01:32			0	35971	0	0	0	26542	25140	144161	27251	1022783	42669	109834	0	0	8161	632546	0	0
2024-06-21 10:02:32			0	35986	0	0	0	26540	25140	144105	27178	1022774	42647	109833	0	0	8162	631905	0	0
2024-06-21 10:03:32			0	35990	0	0	0	26529	25140	143977	27190	1022729	42669	109829	0	0	8162	631734	0	0
2024-06-21 10:04:32			0	36015	0	0	0	26519	25130	144021	27204	1022739	42669	109825	0	0	8163	630702	0	0
2024-06-21 10:05:32			0	36020	0	0	0	26511	25110	144089	27088	1022704	42667	109822	0	0	8164	630560	0	0
2024-06-21 10:06:32			0	36028	0	0	0	26485	25100	143913	27275	1022687	42666	109812	0	0	8165	630255	0	0
2024-06-21 10:07:32			0	36034	0	0	0	26480	25110	144005	27229	1022543	42667	109810	0	0	8165	629963	0	0
2024-06-21 10:08:32			0	36041	0	0	0	26475	25100	143949	27124	1022464	42666	109808	0	0	8165	629700	0	0
2024-06-21 10:09:32			0	36054	0	0	0	26483	25100	143905	27026	1022491	42666	109811	0	0	8166	629146	0	0
2024-06-21 10:10:32			0	36048	0	0	0	26480	25090	143921	27192	1022482	42688	109810	0	0	8166	629437	0	0
2024-06-21 10:11:32			0	36055	0	0	0	26467	25100	143937	26970	1022518	42655	109805	0	0	8166	629103	0	0
2024-06-21 10:12:32			0	36057	0	0	0	26472	25090	143941	26942	1022474	42676	109807	0	0	8166	629054	0	0
2024-06-21 10:13:32			0	36061	0	0	0	26477	25080	143785	27107	1022465	42665	109809	0	0	8166	628919	0	0
2024-06-21 10:14:32			0	36077	0	0	0	26472	25090	143869	27339	1022527	42676	109807	0	0	8167	628202	0	0
2024-06-21 10:15:32			0	36071	0	0	0	26477	25080	143789	26885	1022465	42675	109809	0	0	8167	628493	0	0
2024-06-21 10:16:32			0	36092	0	0	0	26475	25080	143773	27072	1022492	42686	109808	0	0	8168	627599	0	0
2024-06-21 10:17:32			0	36079	0	0	0	26477	25080	143793	27116	1022492	42675	109809	0	0	8167	628153	0	0
2024-06-21 10:18:32			0	36081	0	0	0	26477	25080	143729	27157	1022545	42665	109809	0	0	8167	628067	0	0
2024-06-21 10:19:32			0	36091	0	0	0	26477	25080	143773	27497	1022545	42686	109809	0	0	8168	627642	0	0
2024-06-21 10:20:32			0	36099	0	0	0	26490	25090	143749	27190	1022616	42666	109814	0	0	8168	627266	0	0
2024-06-21 10:21:32			0	36106	0	0	0	26501	25080	143717	27168	1022599	42686	109818	0	0	8168	627004	0	0
2024-06-21 10:22:32			0	36089	0	0	0	26503	25090	143737	27237	1022589	42677	109819	0	0	8167	627691	0	0
2024-06-21 10:23:32			0	36094	0	0	0	26506	25090	143709	27171	1022643	42677	109820	0	0	8168	627479	0	0
2024-06-21 10:24:32			0	36082	0	0	0	26519	25100	143749	27079	1022687	42677	109825	0	0	8167	627954	0	0
2024-06-21 10:25:32			0	36099	0	0	0	26524	25110	143713	27320	1022722	42678	109827	0	0	8168	627195	0	0
2024-06-21 10:26:32			0	36082	0	0	0	26535	25110	143701	27215	1022776	42678	109831	0	0	8167	627918	0	0
2024-06-21 10:27:32			0	36087	0	0	0	26535	25110	143717	27012	1022784	42679	109831	0	0	8167	627705	0	0
2024-06-21 10:28:32			0	36080	0	0	0	26550	25120	143681	26968	1022793	42679	109837	0	0	8166	627967	0	0
2024-06-21 10:29:32			0	36074	0	0	0	26553	25120	143761	26835	1022828	42679	109838	0	0	8166	628223	0	0
2024-06-21 10:30:32			0	36103	0	0	0	26545	25130	143737	27232	1022873	42669	109835	0	0	8168	626954	0	0
2024-06-21 10:31:32			0	36086	0	0	0	26563	25130	143697	27225	1022864	42680	109842	0	0	8166	627677	0	0
2024-06-21 10:32:32			0	36084	0	0	0	26561	25140	143773	27003	1022881	42680	109841	0	0	8166	627726	0	0
2024-06-21 10:33:32			0	36083	0	0	0	26571	25140	143761	27140	1022917	42680	109845	0	0	8166	627768	0	0
2024-06-21 10:34:32			0	36089	0	0	0	26568	25140	143773	27187	1022890	42692	109844	0	0	8167	627513	0	0
2024-06-21 10:35:32			0	36101	0	0	0	26576	25140	143797	27092	1022970	42680	109847	0	0	8167	627003	0	0
2024-06-21 10:36:32			0	36083	0	0	0	26581	25150	143797	27327	1022952	42670	109849	0	0	8166	627733	0	0
2024-06-21 10:37:32			0	36090	0	0	0	26579	25150	143801	27024	1022934	42671	109848	0	0	8166	627435	0	0
2024-06-21 10:38:32			0	36097	0	0	0	26584	25160	143781	27518	1022978	42695	109850	0	0	8167	627102	0	0
2024-06-21 10:39:32			0	36094	0	0	0	26594	25150	143657	27150	1022934	42682	109854	0	0	8166	627265	0	0
2024-06-21 10:40:32			0	36098	0	0	0	26584	25160	143629	27078	1023005	42683	109850	0	0	8167	627059	0	0
2024-06-21 10:41:32			0	36092	0	0	0	26594	25170	143645	27102	1022986	42683	109854	0	0	8166	627279	0	0
2024-06-21 10:42:32			0	36117	0	0	0	26594	25160	143641	27178	1022978	42672	109854	0	0	8168	626252	0	0
2024-06-21 10:43:32			0	36143	0	0	0	26592	25160	143509	27263	1022978	42683	109853	0	0	8169	625149	0	0
2024-06-21 10:44:32			0	36166	0	0	0	26599	25180	143349	27085	1023084	42696	109856	0	0	8170	624103	0	0
2024-06-21 10:45:32			0	36215	0	0	0	26607	25170	143337	27319	1023040	42672	109859	0	0	8173	622065	0	0
2024-06-21 10:46:32			0	36259	0	0	0	26607	25180	143077	27315	1023093	42696	109859	0	0	8175	620171	0	0
2024-06-21 10:47:32			0	36306	0	0	0	26602	25180	142841	26916	1023111	42696	109857	0	0	8178	618191	0	0
2024-06-21 10:48:32			0	36358	0	0	0	26602	25190	142633	27556	1023128	42696	109857	0	0	8180	615971	0	0
2024-06-21 10:49:32			0	36410	0	0	0	26605	25180	142445	27135	1023093	42696	109858	0	0	8183	613825	0	0
2024-06-21 10:50:32			0	36463	0	0	0	26610	25190	142277	27376	1023102	42674	109860	0	0	8186	611574	0	0
2024-06-21 10:51:32			0	36506	0	0	0	26605	25200	142185	27331	1023119	42665	109858	0	0	8188	609745	0	0
2024-06-21 10:52:32			0	36527	0	0	0	26610	25200	141937	27133	1023146	42687	109860	0	0	8189	608870	0	0
2024-06-21 10:53:32			0	36561	0	0	0	26620	25210	141821	27001	1023154	42687	109864	0	0	8191	607421	0	0
2024-06-21 10:54:32			0	36597	0	0	0	26615	25200	141778	27156	1023092	42698	109862	0	0	8193	605960	0	0
2024-06-21 10:55:32			0	36611	0	0	0	26618	25200	141810	27218	1023146	42687	109863	0	0	8193	605379	0	0
2024-06-21 10:56:32			0	36608	0	0	0	26610	25200	141782	27326	1023092	42698	109860	0	0	8193	605504	0	0
2024-06-21 10:57:32			0	36629	0	0	0	26594	25200	141670	27661	1023057	42664	109854	0	0	8195	604633	0	0
2024-06-21 10:58:32			0	36612	0	0	0	26571	25180	141674	27078	1023040	42674	109845	0	0	8194	605406	0	0
2024-06-21 10:59:32			0	36610	0	0	0	26571	25180	141786	27192	1022977	42684	109845	0	0	8194	605489	0	0
2024-06-21 11:00:32			0	36588	0	0	0	26581	25170	141805	27253	1022995	42696	109849	0	0	8193	606437	0	0
2024-06-21 11:01:32			0	36578	0	0	0	26581	25200	141829	27152	1023003	42664	109849	0	0	8192	606749	0	0
2024-06-21 11:02:32			0	36597	0	0	0	26568	25170	141798	27209	1022960	42662	109844	0	0	8193	606063	0	0
2024-06-21 11:03:32			0	36586	0	0	0	26561	25170	141981	27085	1022960	42662	109841	0	0	8193	606520	0	0
2024-06-21 11:04:32			0	36570	0	0	0	26550	25170	141925	27163	1022968	42684	109837	0	0	8192	607185	0	0
2024-06-21 11:05:32			0	36550	0	0	0	26566	25170	141921	27211	1023013	42672	109843	0	0	8191	608016	0	0
2024-06-21 11:06:32			0	36552	0	0	0	26568	25170	141989	27128	1023013	42683	109844	0	0	8191	607933	0	0
2024-06-21 11:07:32			0	36556	0	0	0	26579	25170	141941	27204	1023049	42684	109848	0	0	8191	607767	0	0
2024-06-21 11:08:32			0	36537	0	0	0	26586	25180	142005	27071	1023084	42696	109851	0	0	8190	608523	0	0
2024-06-21 11:09:32			0	36520	0	0	0	26586	25180	142093	27459	1023031	42684	109851	0	0	8189	609231	0	0
2024-06-21 11:10:32			0	36541	0	0	0	26592	25180	142069	26981	1023066	42685	109853	0	0	8190	608356	0	0
2024-06-21 11:11:32			0	36544	0	0	0	26594	25180	142041	27310	1023138	42684	109854	0	0	8190	608232	0	0
2024-06-21 11:12:32			0	36521	0	0	0	26589	25190	142109	27291	1023075	42696	109852	0	0	8189	609155	0	0
2024-06-21 11:13:32			0	36520	0	0	0	26592	25180	142041	27081	1023031	42696	109853	0	0	8189	609231	0	0
2024-06-21 11:14:32			0	36529	0	0	0	26586	25180	142057	27194	1023013	42663	109851	0	0	8190	608856	0	0
2024-06-21 11:15:32			0	36539	0	0	0	26568	25180	142029	27450	1023031	42673	109844	0	0	8190	608440	0	0
2024-06-21 11:16:32			0	36553	0	0	0	26553	25170	141925	27213	1022906	42662	109838	0	0	8191	607892	0	0
2024-06-21 11:17:32			0	36558	0	0	0	26537	25160	141897	26908	1022844	42662	109832	0	0	8192	607718	0	0
2024-06-21 11:18:32			0	36583	0	0	0	26524	25150	141913	27076	1022720	42671	109827	0	0	8193	606713	0	0
2024-06-21 11:19:32			0	36601	0	0	0	26511	25150	141790	27216	1022711	42670	109822	0	0	8194	605966	0	0
2024-06-21 11:20:32			0	36610	0	0	0	26501	25140	141878	27419	1022667	42659	109818	0	0	8195	605627	0	0
2024-06-21 11:21:32			0	36630	0	0	0	26496	25130	141826	27450	1022712	42669	109816	0	0	8196	604832	0	0
2024-06-21 11:22:32			0	36611	0	0	0	26503	25120	141802	27263	1022740	42667	109819	0	0	8195	605654	0	0
2024-06-21 11:23:32			0	36627	0	0	0	26503	25120	141746	27211	1022587	42667	109819	0	0	8196	604990	0	0
2024-06-21 11:24:32			0	36641	0	0	0	26501	25110	141726	27163	1022570	42667	109818	0	0	8197	604444	0	0
2024-06-21 11:25:32			0	36621	0	0	0	26485	25110	141770	27156	1022677	42667	109812	0	0	8196	605274	0	0
2024-06-21 11:26:32			0	36653	0	0	0	26483	25110	141738	27466	1022615	42666	109811	0	0	8197	603947	0	0
2024-06-21 11:27:32			0	36627	0	0	0	26475	25100	141726	27300	1022526	42666	109808	0	0	8196	605059	0	0
2024-06-21 11:28:32			0	36625	0	0	0	26467	25100	141758	27194	1022606	42666	109805	0	0	8196	605142	0	0
2024-06-21 11:29:32			0	36648	0	0	0	26477	25100	141758	27320	1022580	42666	109809	0	0	8197	604189	0	0
2024-06-21 11:30:32			0	36647	0	0	0	26470	25090	141718	27332	1022536	42666	109806	0	0	8197	604264	0	0
2024-06-21 11:31:32			0	36637	0	0	0	26470	25090	141730	27306	1022482	42644	109806	0	0	8197	604679	0	0
2024-06-21 11:32:32			0	36637	0	0	0	26472	25080	141658	27220	1022438	42665	109807	0	0	8197	604713	0	0
2024-06-21 11:33:32			0	36640	0	0	0	26472	25080	141718	27249	1022492	42665	109807	0	0	8197	604589	0	0
2024-06-21 11:34:32			0	36642	0	0	0	26483	25090	141702	27433	1022670	42699	109811	0	0	8197	604472	0	0
2024-06-21 11:35:32			0	36635	0	0	0	26511	25100	141690	26816	1022794	42688	109822	0	0	8196	604727	0	0
2024-06-21 11:36:32			0	36631	0	0	0	26527	25120	141686	26961	1022855	42690	109828	0	0	8196	604824	0	0
2024-06-21 11:37:32			0	36636	0	0	0	26540	25120	141714	27180	1022855	42679	109833	0	0	8196	604617	0	0
2024-06-21 11:38:32			0	36606	0	0	0	26558	25120	141766	27062	1022882	42679	109840	0	0	8194	605862	0	0
2024-06-21 11:39:32			0	36617	0	0	0	26574	25150	141666	27402	1023006	42693	109846	0	0	8194	605302	0	0
2024-06-21 11:40:32			0	36611	0	0	0	26579	25150	141810	27072	1023014	42682	109848	0	0	8194	605551	0	0
2024-06-21 11:41:32			0	36626	0	0	0	26584	25160	141702	27216	1022996	42671	109850	0	0	8195	604895	0	0
2024-06-21 11:42:32			0	36613	0	0	0	26586	25150	141778	27010	1023014	42694	109851	0	0	8194	605468	0	0
2024-06-21 11:43:32			0	36611	0	0	0	26599	25170	141690	27176	1023120	42706	109856	0	0	8194	605482	0	0
2024-06-21 11:44:32			0	36611	0	0	0	26597	25180	141742	27301	1023111	42673	109855	0	0	8194	605448	0	0
2024-06-21 11:45:32			0	36608	0	0	0	26594	25170	141706	27305	1023022	42673	109854	0	0	8194	605607	0	0
2024-06-21 11:46:32			0	36609	0	0	0	26584	25170	141774	27163	1022942	42662	109850	0	0	8194	605565	0	0
2024-06-21 11:47:32			0	36615	0	0	0	26563	25170	141730	26897	1022933	42662	109842	0	0	8194	605316	0	0
2024-06-21 11:48:32			0	36617	0	0	0	26548	25160	141686	26880	1022862	42682	109836	0	0	8195	605268	0	0
2024-06-21 11:49:32			0	36612	0	0	0	26542	25150	141762	27388	1022845	42660	109834	0	0	8195	605509	0	0
2024-06-21 11:50:32			0	36616	0	0	0	26535	25140	141778	27242	1022774	42647	109831	0	0	8195	605378	0	0
2024-06-21 11:51:32			0	36650	0	0	0	26532	25150	141706	27265	1022765	42670	109830	0	0	8197	603934	0	0
2024-06-21 11:52:32			0	36607	0	0	0	26540	25140	141766	27088	1022801	42680	109833	0	0	8194	605751	0	0
2024-06-21 11:53:32			0	36624	0	0	0	26522	25130	141714	27326	1022792	42680	109826	0	0	8195	605080	0	0
2024-06-21 11:54:32			0	36628	0	0	0	26527	25130	141690	27434	1022765	42669	109828	0	0	8196	604915	0	0
2024-06-21 11:55:32			0	36650	0	0	0	26529	25130	141698	27173	1022810	42668	109829	0	0	8197	604003	0	0
2024-06-21 11:56:32			0	36634	0	0	0	26527	25130	141722	27332	1022846	42669	109828	0	0	8196	604666	0	0
2024-06-21 11:57:32			0	36649	0	0	0	26545	25140	141618	27175	1022917	42669	109835	0	0	8196	604010	0	0
2024-06-21 11:58:32			0	36620	0	0	0	26553	25140	141654	27203	1022908	42680	109838	0	0	8195	605212	0	0
2024-06-21 11:59:32			0	36624	0	0	0	26558	25150	141678	27274	1022907	42694	109840	0	0	8195	605012	0	0
2024-06-21 12:00:32			0	36626	0	0	0	26550	25150	141694	27355	1022987	42682	109837	0	0	8195	604929	0	0
2024-06-21 12:01:32			0	36634	0	0	0	26566	25150	141666	27211	1022987	42671	109843	0	0	8195	604597	0	0
2024-06-21 12:02:32			0	36615	0	0	0	26561	25150	141702	27325	1022898	42681	109841	0	0	8194	605385	0	0
2024-06-21 12:03:32			0	36644	0	0	0	26561	25160	141710	27152	1022889	42671	109841	0	0	8196	604149	0	0
2024-06-21 12:04:32			0	36649	0	0	0	26550	25150	141678	27164	1022872	42670	109837	0	0	8196	603976	0	0
2024-06-21 12:05:32			0	36649	0	0	0	26535	25150	141686	27415	1022827	42682	109831	0	0	8197	603976	0	0
2024-06-21 12:06:32			0	36633	0	0	0	26532	25140	141622	27235	1022783	42680	109830	0	0	8196	604673	0	0
2024-06-21 12:07:32			0	36621	0	0	0	26522	25120	141658	27194	1022721	42657	109826	0	0	8195	605239	0	0
2024-06-21 12:08:32			0	36642	0	0	0	26506	25130	141706	27159	1022739	42669	109820	0	0	8197	604334	0	0
2024-06-21 12:09:32			0	36625	0	0	0	26503	25130	141674	27105	1022658	42669	109819	0	0	8196	605039	0	0
2024-06-21 12:10:32			0	36640	0	0	0	26493	25120	141614	27493	1022587	42657	109815	0	0	8197	604452	0	0
2024-06-21 12:11:32			0	36618	0	0	0	26496	25120	141638	27249	1022695	42679	109816	0	0	8195	605364	0	0
2024-06-21 12:12:32			0	36621	0	0	0	26498	25110	141662	27074	1022624	42679	109817	0	0	8196	605274	0	0
2024-06-21 12:13:32			0	36629	0	0	0	26506	25100	141638	27296	1022714	42666	109820	0	0	8196	604976	0	0
2024-06-21 12:14:32			0	36652	0	0	0	26501	25100	141710	27237	1022714	42677	109818	0	0	8197	604023	0	0
2024-06-21 12:15:32			0	36636	0	0	0	26516	25120	141678	27175	1022740	42667	109824	0	0	8196	604617	0	0
2024-06-21 12:16:32			0	36629	0	0	0	26514	25110	141726	27100	1022758	42679	109823	0	0	8196	604942	0	0
2024-06-21 12:17:32			0	36624	0	0	0	26519	25120	141678	27307	1022686	42679	109825	0	0	8195	605115	0	0
2024-06-21 12:18:32			0	36631	0	0	0	26522	25110	141710	27441	1022731	42679	109826	0	0	8196	604859	0	0
2024-06-21 12:19:32			0	36629	0	0	0	26516	25130	141718	27109	1022784	42668	109824	0	0	8196	604873	0	0
2024-06-21 12:20:32			0	36631	0	0	0	26514	25120	141718	27251	1022802	42679	109823	0	0	8196	604824	0	0
2024-06-21 12:21:32			0	36617	0	0	0	26516	25120	141686	27498	1022766	42690	109824	0	0	8195	605405	0	0
2024-06-21 12:22:32			0	36613	0	0	0	26542	25130	141726	27429	1022864	42680	109834	0	0	8194	605537	0	0
2024-06-21 12:23:32			0	36605	0	0	0	26550	25140	141778	27479	1022908	42669	109837	0	0	8194	605834	0	0
2024-06-21 12:24:32			0	36603	0	0	0	26548	25130	141794	27057	1022873	42692	109836	0	0	8194	605952	0	0
2024-06-21 12:25:32			0	36605	0	0	0	26553	25140	141790	27196	1022881	42669	109838	0	0	8194	605834	0	0
2024-06-21 12:26:32			0	36587	0	0	0	26555	25150	141826	27183	1022934	42671	109839	0	0	8193	606547	0	0
2024-06-21 12:27:32			0	36577	0	0	0	26561	25140	141737	27256	1022935	42692	109841	0	0	8192	606997	0	0
2024-06-21 12:28:32			0	36573	0	0	0	26566	25160	141797	27391	1022996	42682	109843	0	0	8192	607094	0	0
2024-06-21 12:29:32			0	36563	0	0	0	26558	25140	141957	26994	1022997	42692	109840	0	0	8192	607579	0	0
2024-06-21 12:30:32			0	36566	0	0	0	26576	25160	141961	26987	1023023	42682	109847	0	0	8192	607385	0	0
2024-06-21 12:31:32			0	36543	0	0	0	26586	25160	141965	27154	1023023	42682	109851	0	0	8190	608342	0	0
2024-06-21 12:32:32			0	36526	0	0	0	26589	25160	142085	27045	1023031	42683	109852	0	0	8189	609050	0	0
2024-06-21 12:33:32			0	36509	0	0	0	26589	25170	142101	27280	1023075	42684	109852	0	0	8188	609724	0	0
2024-06-21 12:34:32			0	36515	0	0	0	26592	25180	142169	27360	1023111	42696	109853	0	0	8189	609439	0	0
2024-06-21 12:35:32			0	36487	0	0	0	26610	25180	142189	27133	1023227	42685	109860	0	0	8187	610607	0	0
2024-06-21 12:36:32			0	36462	0	0	0	26625	25200	142277	27225	1023280	42709	109866	0	0	8185	611581	0	0
2024-06-21 12:37:32			0	36463	0	0	0	26628	25210	142381	26946	1023315	42698	109867	0	0	8186	611504	0	0
2024-06-21 12:38:32			0	36432	0	0	0	26633	25210	142393	26892	1023208	42698	109869	0	0	8184	612800	0	0
2024-06-21 12:39:32			0	36413	0	0	0	26628	25220	142481	26920	1023225	42688	109867	0	0	8183	613560	0	0
2024-06-21 12:40:32			0	36408	0	0	0	26649	25220	142441	27176	1023386	42699	109875	0	0	8182	613770	0	0
2024-06-21 12:41:32			0	36387	0	0	0	26683	25240	142649	27291	1023581	42711	109888	0	0	8181	614580	0	0
2024-06-21 12:42:32			0	36367	0	0	0	26789	25270	142733	27443	1023981	42748	109929	0	0	8178	615313	0	0
2024-06-21 12:43:32			0	36362	0	0	0	26859	25310	142717	27046	1024238	42741	109956	0	0	8177	615383	0	0
2024-06-21 12:44:32			0	36341	0	0	0	26914	25350	142717	26998	1024396	42734	109977	0	0	8175	616125	0	0
2024-06-21 12:45:32			0	36303	0	0	0	26966	25390	142777	27173	1024510	42749	109997	0	0	8172	617580	0	0
2024-06-21 12:46:32			0	36300	0	0	0	26992	25420	142857	27135	1024696	42740	110007	0	0	8172	617601	0	0
2024-06-21 12:47:32			0	36287	0	0	0	27020	25450	142857	27393	1024855	42744	110018	0	0	8171	618043	0	0
2024-06-21 12:48:32			0	36272	0	0	0	27044	25470	142909	26852	1024810	42735	110027	0	0	8170	618603	0	0
2024-06-21 12:49:32			0	36248	0	0	0	26999	25480	142949	27222	1024702	42724	110010	0	0	8169	619579	0	0
2024-06-21 12:50:32			0	36248	0	0	0	26940	25470	142949	27248	1024443	42713	109987	0	0	8170	619614	0	0
2024-06-21 12:51:32			0	36258	0	0	0	26896	25460	142977	27315	1024372	42701	109970	0	0	8171	619228	0	0
2024-06-21 12:52:32			0	36230	0	0	0	26849	25440	142961	27376	1024275	42698	109952	0	0	8171	620478	0	0
2024-06-21 12:53:32			0	36222	0	0	0	26815	25420	143089	27310	1024107	42685	109939	0	0	8171	620886	0	0
2024-06-21 12:54:32			0	36250	0	0	0	26786	25410	142989	27208	1023991	42696	109928	0	0	8173	619741	0	0
2024-06-21 12:55:32			0	36240	0	0	0	26776	25410	143009	27116	1024063	42707	109924	0	0	8172	620162	0	0
2024-06-21 12:56:32			0	36253	0	0	0	26779	25400	142993	27353	1024179	42716	109925	0	0	8173	619650	0	0
2024-06-21 12:57:32			0	36256	0	0	0	26820	25420	142865	27064	1024348	42718	109941	0	0	8172	619453	0	0
2024-06-21 12:58:32			0	36273	0	0	0	26844	25430	142929	26948	1024374	42731	109950	0	0	8173	618702	0	0
2024-06-21 12:59:32			0	36295	0	0	0	26849	25440	142817	27334	1024329	42719	109952	0	0	8174	617741	0	0
2024-06-21 13:00:32			0	36290	0	0	0	26844	25440	142773	27043	1024383	42708	109950	0	0	8174	617952	0	0
2024-06-21 13:01:32			0	36313	0	0	0	26849	25440	142829	26948	1024383	42731	109952	0	0	8175	616985	0	0
2024-06-21 13:02:32			0	36314	0	0	0	26859	25440	142749	27142	1024436	42719	109956	0	0	8175	616943	0	0
2024-06-21 13:03:32			0	36331	0	0	0	26880	25450	142649	27220	1024489	42721	109964	0	0	8175	616194	0	0
2024-06-21 13:04:32			0	36365	0	0	0	26901	25460	142573	27303	1024640	42734	109972	0	0	8177	614733	0	0
2024-06-21 13:05:32			0	36368	0	0	0	26927	25480	142469	27081	1024693	42724	109982	0	0	8177	614538	0	0
2024-06-21 13:06:32			0	36421	0	0	0	26932	25490	142369	27258	1024657	42725	109984	0	0	8179	612286	0	0
2024-06-21 13:07:32			0	36410	0	0	0	26937	25500	142309	27336	1024754	42715	109986	0	0	8179	612710	0	0
2024-06-21 13:08:32			0	36481	0	0	0	26940	25510	142169	27364	1024683	42715	109987	0	0	8182	609713	0	0
2024-06-21 13:09:32			0	36498	0	0	0	26932	25510	142001	27313	1024638	42715	109984	0	0	8184	609005	0	0
2024-06-21 13:10:32			0	36545	0	0	0	26919	25510	141785	27362	1024683	42704	109979	0	0	8186	607051	0	0
2024-06-21 13:11:32			0	36567	0	0	0	26922	25510	141677	27263	1024709	42726	109980	0	0	8187	606137	0	0
2024-06-21 13:12:32			0	36612	0	0	0	26916	25500	141630	27140	1024638	42715	109978	0	0	8190	604307	0	0
2024-06-21 13:13:32			0	36647	0	0	0	26906	25510	141430	27355	1024602	42704	109974	0	0	8192	602825	0	0
2024-06-21 13:14:32			0	36701	0	0	0	26893	25500	141270	27341	1024540	42715	109969	0	0	8195	600629	0	0
2024-06-21 13:15:32			0	36769	0	0	0	26867	25480	141030	27467	1024434	42702	109959	0	0	8199	597898	0	0
2024-06-21 13:16:32			0	36790	0	0	0	26862	25470	140810	27429	1024408	42701	109957	0	0	8200	597069	0	0
2024-06-21 13:17:32			0	36842	0	0	0	26872	25470	140706	27098	1024577	42713	109961	0	0	8202	594936	0	0
2024-06-21 13:18:32			0	36896	0	0	0	26893	25490	140586	27400	1024710	42736	109969	0	0	8205	592659	0	0
2024-06-21 13:19:32			0	36940	0	0	0	26916	25520	140386	27187	1024700	42716	109978	0	0	8207	590763	0	0
2024-06-21 13:20:32			0	36979	0	0	0	26935	25520	140158	27260	1024807	42728	109985	0	0	8209	589174	0	0
2024-06-21 13:21:32			0	37017	0	0	0	26940	25520	140082	27183	1024869	42739	109987	0	0	8211	587629	0	0
2024-06-21 13:22:32			0	37032	0	0	0	26953	25530	139946	27209	1024771	42716	109992	0	0	8211	586986	0	0
2024-06-21 13:23:32			0	37080	0	0	0	26958	25540	139802	27305	1024868	42718	109994	0	0	8214	585007	0	0
2024-06-21 13:24:32			0	37139	0	0	0	26953	25540	139618	27199	1024904	42731	109992	0	0	8217	582620	0	0
2024-06-21 13:25:32			0	37168	0	0	0	26961	25550	139542	27336	1024886	42731	109995	0	0	8218	581417	0	0
2024-06-21 13:26:32			0	37177	0	0	0	26966	25540	139398	27196	1024931	42731	109997	0	0	8218	581087	0	0
2024-06-21 13:27:32			0	37247	0	0	0	26971	25560	139210	27109	1024957	42720	109999	0	0	8222	578203	0	0
2024-06-21 13:28:32			0	37278	0	0	0	26974	25550	139102	27203	1024948	42731	110000	0	0	8224	576991	0	0
2024-06-21 13:29:32			0	37284	0	0	0	26979	25560	139022	26873	1024930	42731	110002	0	0	8224	576717	0	0
2024-06-21 13:30:32			0	37320	0	0	0	26963	25550	138878	27355	1024912	42719	109996	0	0	8226	575307	0	0
2024-06-21 13:31:32			0	37337	0	0	0	26968	25560	138943	27338	1024957	42731	109998	0	0	8227	574593	0	0
2024-06-21 13:32:32			0	37337	0	0	0	26963	25550	138895	27211	1024895	42719	109996	0	0	8227	574626	0	0
2024-06-21 13:33:32			0	37347	0	0	0	26953	25550	138875	27279	1024912	42719	109992	0	0	8228	574226	0	0
2024-06-21 13:34:32			0	37334	0	0	0	26950	25560	138851	27145	1024858	42732	109991	0	0	8227	574714	0	0
2024-06-21 13:35:32			0	37340	0	0	0	26932	25540	138951	27182	1024797	42719	109984	0	0	8228	574539	0	0
2024-06-21 13:36:32			0	37321	0	0	0	26924	25540	138919	27050	1024743	42708	109981	0	0	8227	575299	0	0
2024-06-21 13:37:32			0	37311	0	0	0	26919	25530	139030	27149	1024798	42716	109979	0	0	8226	575733	0	0
2024-06-21 13:38:32			0	37297	0	0	0	26922	25530	138994	26951	1024690	42716	109980	0	0	8225	576294	0	0
2024-06-21 13:39:32			0	37265	0	0	0	26911	25530	139110	27300	1024753	42729	109976	0	0	8224	577578	0	0
2024-06-21 13:40:32			0	37265	0	0	0	26922	25540	139030	27223	1024815	42730	109980	0	0	8224	577546	0	0
2024-06-21 13:41:32			0	37264	0	0	0	26916	25530	139090	27007	1024833	42729	109978	0	0	8224	577619	0	0
2024-06-21 13:42:32			0	37261	0	0	0	26927	25540	139106	26951	1024823	42742	109982	0	0	8224	577706	0	0
2024-06-21 13:43:32			0	37241	0	0	0	26942	25550	139126	27067	1024912	42742	109988	0	0	8222	578477	0	0
2024-06-21 13:44:32			0	37247	0	0	0	26968	25550	139154	26925	1024975	42731	109998	0	0	8222	578236	0	0
2024-06-21 13:45:32			0	37246	0	0	0	26986	25560	139238	27097	1025073	42721	110005	0	0	8222	578243	0	0
2024-06-21 13:46:32			0	37201	0	0	0	27002	25560	139246	26892	1025073	42721	110011	0	0	8219	580053	0	0
2024-06-21 13:47:32			0	37222	0	0	0	27007	25580	139246	27076	1025107	42746	110013	0	0	8220	579142	0	0
2024-06-21 13:48:32			0	37231	0	0	0	27018	25600	139274	26883	1025160	42746	110017	0	0	8221	578714	0	0
2024-06-21 13:49:32			0	37233	0	0	0	27025	25590	139234	27039	1025232	42746	110020	0	0	8221	578667	0	0
2024-06-21 13:50:32			0	37217	0	0	0	27046	25610	139210	27140	1025231	42748	110028	0	0	8220	579245	0	0
2024-06-21 13:51:32			0	37216	0	0	0	27041	25620	139178	27090	1025284	42749	110026	0	0	8220	579252	0	0
2024-06-21 13:52:32			0	37226	0	0	0	27038	25610	139214	26788	1025266	42726	110025	0	0	8220	578882	0	0
2024-06-21 13:53:32			0	37242	0	0	0	27038	25630	139230	27253	1025319	42739	110025	0	0	8221	578174	0	0
2024-06-21 13:54:32			0	37264	0	0	0	27033	25610	139126	27175	1025213	42726	110023	0	0	8222	577356	0	0
2024-06-21 13:55:32			0	37244	0	0	0	27031	25630	139122	27121	1025292	42739	110022	0	0	8221	578093	0	0
2024-06-21 13:56:32			0	37255	0	0	0	27038	25630	139074	26875	1025221	42739	110025	0	0	8222	577651	0	0
2024-06-21 13:57:32			0	37253	0	0	0	27046	25620	139102	27287	1025284	42749	110028	0	0	8221	577765	0	0
2024-06-21 13:58:32			0	37270	0	0	0	27057	25640	139002	27209	1025390	42739	110032	0	0	8222	577016	0	0
2024-06-21 13:59:32			0	37262	0	0	0	27062	25630	138950	27031	1025301	42750	110034	0	0	8222	577370	0	0
2024-06-21 14:00:32			0	37283	0	0	0	27057	25650	139018	27301	1025380	42751	110032	0	0	8223	576462	0	0
2024-06-21 14:01:32			0	37281	0	0	0	27062	25640	138954	26932	1025372	42728	110034	0	0	8223	576575	0	0
2024-06-21 14:02:32			0	37284	0	0	0	27067	25650	139030	27178	1025407	42762	110036	0	0	8223	576422	0	0
2024-06-21 14:03:32			0	37286	0	0	0	27062	25650	139046	27237	1025380	42751	110034	0	0	8223	576342	0	0
2024-06-21 14:04:32			0	37255	0	0	0	27049	25650	138950	26883	1025300	42729	110029	0	0	8222	577586	0	0
2024-06-21 14:05:32			0	37294	0	0	0	27044	25640	138990	27206	1025229	42727	110027	0	0	8224	576054	0	0
2024-06-21 14:06:32			0	37286	0	0	0	27023	25630	138998	27071	1025194	42727	110019	0	0	8224	576407	0	0
2024-06-21 14:07:32			0	37280	0	0	0	27023	25630	138990	27284	1025212	42727	110019	0	0	8223	576648	0	0
2024-06-21 14:08:32			0	37276	0	0	0	27028	25630	138970	27272	1025239	42739	110021	0	0	8223	576808	0	0
2024-06-21 14:09:32			0	37290	0	0	0	27033	25630	138962	27327	1025274	42739	110023	0	0	8224	576247	0	0
2024-06-21 14:10:32			0	37304	0	0	0	27025	25630	138958	27220	1025301	42750	110020	0	0	8224	575686	0	0
2024-06-21 14:11:32			0	37302	0	0	0	27028	25630	139018	27441	1025301	42727	110021	0	0	8224	575766	0	0
2024-06-21 14:12:32			0	37298	0	0	0	27028	25620	139038	27216	1025230	42727	110021	0	0	8224	575959	0	0
2024-06-21 14:13:32			0	37307	0	0	0	27015	25620	138982	27204	1025230	42749	110016	0	0	8225	575598	0	0
2024-06-21 14:14:32			0	37285	0	0	0	26999	25620	138978	27213	1025150	42727	110010	0	0	8224	576480	0	0
2024-06-21 14:15:32			0	37299	0	0	0	26981	25620	138966	27409	1025087	42726	110003	0	0	8225	575919	0	0
2024-06-21 14:16:32			0	37291	0	0	0	26971	25610	138902	27602	1025043	42737	109999	0	0	8225	576272	0	0
2024-06-21 14:17:32			0	37316	0	0	0	26945	25590	138930	27466	1024991	42711	109989	0	0	8226	575336	0	0
2024-06-21 14:18:32			0	37308	0	0	0	26916	25580	138822	27052	1024813	42701	109978	0	0	8226	575689	0	0
2024-06-21 14:19:32			0	37304	0	0	0	26898	25560	138954	27119	1024724	42710	109971	0	0	8226	575915	0	0
2024-06-21 14:20:32			0	37339	0	0	0	26893	25560	138891	27381	1024796	42720	109969	0	0	8228	574513	0	0
2024-06-21 14:21:32			0	37299	0	0	0	26898	25540	138942	27237	1024743	42719	109971	0	0	8226	576181	0	0
2024-06-21 14:22:32			0	37314	0	0	0	26896	25540	138950	27118	1024734	42718	109970	0	0	8227	575580	0	0
2024-06-21 14:23:32			0	37324	0	0	0	26906	25530	138883	27177	1024798	42728	109974	0	0	8227	575212	0	0
2024-06-21 14:24:32			0	37325	0	0	0	26911	25540	138843	27291	1024716	42719	109976	0	0	8227	575139	0	0
2024-06-21 14:25:32			0	37350	0	0	0	26885	25520	138815	26942	1024655	42706	109966	0	0	8229	574204	0	0
2024-06-21 14:26:32			0	37330	0	0	0	26864	25500	139007	27177	1024460	42704	109958	0	0	8228	575070	0	0
2024-06-21 14:27:32			0	37340	0	0	0	26828	25500	138935	27126	1024352	42693	109944	0	0	8229	574669	0	0
2024-06-21 14:28:32			0	37337	0	0	0	26792	25460	138971	27033	1024230	42688	109930	0	0	8229	574920	0	0
2024-06-21 14:29:32			0	37335	0	0	0	26766	25450	138963	27201	1024212	42677	109920	0	0	8230	575033	0	0
2024-06-21 14:30:32			0	37347	0	0	0	26755	25430	138959	27307	1024133	42708	109916	0	0	8230	574618	0	0
2024-06-21 14:31:32			0	37344	0	0	0	26742	25410	138927	27157	1024018	42707	109911	0	0	8230	574803	0	0
2024-06-21 14:32:32			0	37347	0	0	0	26737	25410	138891	27033	1024009	42707	109909	0	0	8231	574683	0	0
2024-06-21 14:33:32			0	37358	0	0	0	26727	25400	138935	27308	1024027	42706	109905	0	0	8231	574276	0	0
2024-06-21 14:34:32			0	37372	0	0	0	26716	25400	138939	27424	1024045	42716	109901	0	0	8232	573715	0	0
2024-06-21 14:35:32			0	37370	0	0	0	26740	25400	138879	27334	1024152	42694	109910	0	0	8232	573796	0	0
2024-06-21 14:36:32			0	37367	0	0	0	26761	25400	138871	27426	1024241	42728	109918	0	0	8231	573915	0	0
2024-06-21 14:37:32			0	37368	0	0	0	26768	25410	138939	27012	1024223	42718	109921	0	0	8231	573843	0	0
2024-06-21 14:38:32			0	37365	0	0	0	26753	25400	138843	27185	1024081	42706	109915	0	0	8231	573995	0	0
2024-06-21 14:39:32			0	37361	0	0	0	26722	25380	138887	27428	1023939	42693	109903	0	0	8231	574221	0	0
2024-06-21 14:40:32			0	37370	0	0	0	26742	25380	138875	26975	1024019	42704	109911	0	0	8232	573861	0	0
2024-06-21 14:41:32			0	37360	0	0	0	26766	25390	138847	27377	1024216	42726	109920	0	0	8231	574228	0	0
2024-06-21 14:42:32			0	37359	0	0	0	26812	25400	138895	26965	1024429	42728	109938	0	0	8230	574235	0	0
2024-06-21 14:43:32			0	37342	0	0	0	26867	25430	138875	27429	1024553	42752	109959	0	0	8228	574818	0	0
2024-06-21 14:44:32			0	37353	0	0	0	26896	25450	138815	27242	1024588	42733	109970	0	0	8228	574312	0	0
2024-06-21 14:45:32			0	37350	0	0	0	26903	25460	138879	27459	1024605	42733	109973	0	0	8228	574400	0	0
2024-06-21 14:46:32			0	37330	0	0	0	26901	25470	138943	27010	1024657	42735	109972	0	0	8227	575168	0	0
2024-06-21 14:47:32			0	37320	0	0	0	26916	25480	138930	27369	1024693	42735	109978	0	0	8227	575536	0	0
2024-06-21 14:48:32			0	37311	0	0	0	26916	25470	138978	27029	1024676	42723	109978	0	0	8226	575929	0	0
2024-06-21 14:49:32			0	37305	0	0	0	26935	25500	139018	27346	1024772	42749	109985	0	0	8225	576072	0	0
2024-06-21 14:50:32			0	37294	0	0	0	26945	25500	138978	27213	1024835	42737	109989	0	0	8225	576513	0	0
2024-06-21 14:51:32			0	37287	0	0	0	26948	25510	139022	27131	1024906	42738	109990	0	0	8224	576761	0	0
2024-06-21 14:52:32			0	37266	0	0	0	26953	25530	138982	27360	1024878	42739	109992	0	0	8223	577538	0	0
2024-06-21 14:53:32			0	37295	0	0	0	26950	25530	138998	27274	1024851	42728	109991	0	0	8225	576374	0	0
2024-06-21 14:54:32			0	37281	0	0	0	26940	25530	139122	27128	1024833	42717	109987	0	0	8224	576936	0	0
2024-06-21 14:55:32			0	37262	0	0	0	26922	25510	139106	27322	1024718	42727	109980	0	0	8224	577764	0	0
2024-06-21 14:56:32			0	37298	0	0	0	26914	25520	139118	27452	1024708	42728	109977	0	0	8226	576287	0	0
2024-06-21 14:57:32			0	37275	0	0	0	26901	25520	139098	27055	1024593	42716	109972	0	0	8225	577210	0	0
2024-06-21 14:58:32			0	37278	0	0	0	26877	25500	139202	27265	1024620	42715	109963	0	0	8225	577155	0	0
2024-06-21 14:59:32			0	37271	0	0	0	26880	25510	139170	27112	1024718	42727	109964	0	0	8225	577403	0	0
2024-06-21 15:00:32			0	37274	0	0	0	26896	25520	139070	27182	1024834	42716	109970	0	0	8225	577250	0	0
2024-06-21 15:01:32			0	37288	0	0	0	26906	25530	139166	27258	1024851	42739	109974	0	0	8225	576655	0	0
2024-06-21 15:02:32			0	37270	0	0	0	26914	25530	139110	27147	1024851	42728	109977	0	0	8224	577378	0	0
2024-06-21 15:03:32			0	37268	0	0	0	26940	25530	139254	27327	1024913	42740	109987	0	0	8224	577458	0	0
2024-06-21 15:04:32			0	37251	0	0	0	26974	25540	139210	27062	1025038	42752	110000	0	0	8222	578108	0	0
2024-06-21 15:05:32			0	37245	0	0	0	26994	25570	139246	27412	1025251	42754	110008	0	0	8222	578250	0	0
2024-06-21 15:06:32			0	37223	0	0	0	27044	25600	139282	27322	1025348	42757	110027	0	0	8220	579036	0	0
2024-06-21 15:07:32			0	37224	0	0	0	27096	25610	139310	27319	1025481	42759	110047	0	0	8219	578963	0	0
2024-06-21 15:08:32			0	37194	0	0	0	27114	25640	139358	27326	1025667	42761	110054	0	0	8217	580071	0	0
2024-06-21 15:09:32			0	37177	0	0	0	27140	25650	139398	27300	1025738	42762	110064	0	0	8216	580723	0	0
2024-06-21 15:10:32			0	37156	0	0	0	27161	25670	139498	27225	1025799	42764	110072	0	0	8215	581504	0	0
2024-06-21 15:11:32			0	37133	0	0	0	27176	25690	139538	27194	1025718	42744	110078	0	0	8213	582365	0	0
2024-06-21 15:12:32			0	37125	0	0	0	27181	25710	139554	27287	1025887	42757	110080	0	0	8213	582622	0	0
2024-06-21 15:13:32			0	37104	0	0	0	27205	25730	139690	27441	1025975	42770	110089	0	0	8211	583404	0	0
2024-06-21 15:14:32			0	37104	0	0	0	27220	25730	139690	27261	1026056	42758	110095	0	0	8211	583404	0	0
2024-06-21 15:15:32			0	37101	0	0	0	27228	25740	139774	27222	1026055	42783	110098	0	0	8211	583492	0	0
2024-06-21 15:16:32			0	37075	0	0	0	27236	25760	139822	27166	1026027	42761	110101	0	0	8210	584477	0	0
2024-06-21 15:17:32			0	37070	0	0	0	27244	25760	139790	27045	1026116	42785	110104	0	0	8209	584679	0	0
2024-06-21 15:18:32			0	37059	0	0	0	27264	25790	139886	26932	1026267	42775	110112	0	0	8208	585025	0	0
2024-06-21 15:19:32			0	37042	0	0	0	27220	25780	139870	27319	1025981	42753	110095	0	0	8208	585746	0	0
2024-06-21 15:20:32			0	37033	0	0	0	27142	25750	139950	27365	1025536	42706	110065	0	0	8209	586211	0	0
2024-06-21 15:21:32			0	37036	0	0	0	27023	25710	139858	27319	1025145	42669	110019	0	0	8211	586223	0	0
2024-06-21 15:22:32			0	37030	0	0	0	26953	25660	139954	27005	1025023	42696	109992	0	0	8212	586633	0	0
2024-06-21 15:23:32			0	37021	0	0	0	26929	25630	140006	27251	1025024	42716	109983	0	0	8211	587099	0	0
2024-06-21 15:24:32			0	37013	0	0	0	26948	25630	140170	27395	1025105	42739	109990	0	0	8211	587424	0	0
2024-06-21 15:25:32			0	36995	0	0	0	26968	25620	140114	27251	1025203	42760	109998	0	0	8209	588188	0	0
2024-06-21 15:26:32			0	36963	0	0	0	26986	25640	140198	27346	1025310	42761	110005	0	0	8207	589423	0	0
2024-06-21 15:27:32			0	36945	0	0	0	27010	25640	140334	27223	1025363	42750	110014	0	0	8206	590156	0	0
2024-06-21 15:28:32			0	36914	0	0	0	27018	25640	140346	27308	1025318	42750	110017	0	0	8204	591419	0	0
2024-06-21 15:29:32			0	36905	0	0	0	27018	25650	140454	27483	1025300	42729	110017	0	0	8204	591753	0	0
2024-06-21 15:30:32			0	36885	0	0	0	26981	25640	140578	27371	1025077	42717	110003	0	0	8203	592603	0	0
2024-06-21 15:31:32			0	36873	0	0	0	26919	25600	140590	27126	1024740	42703	109979	0	0	8204	593228	0	0
2024-06-21 15:32:32			0	36850	0	0	0	26851	25550	140626	27041	1024493	42686	109953	0	0	8203	594338	0	0
2024-06-21 15:33:32			0	36858	0	0	0	26792	25520	140806	27232	1024164	42662	109930	0	0	8205	594112	0	0
2024-06-21 15:34:32			0	36843	0	0	0	26745	25470	140794	27041	1024059	42690	109912	0	0	8205	594895	0	0
2024-06-21 15:35:32			0	36820	0	0	0	26703	25450	140882	27161	1023926	42677	109896	0	0	8204	595906	0	0
2024-06-21 15:36:32			0	36809	0	0	0	26675	25410	140878	27216	1023830	42696	109885	0	0	8204	596493	0	0
2024-06-21 15:37:32			0	36822	0	0	0	26657	25380	140974	27128	1023716	42692	109878	0	0	8205	596061	0	0
2024-06-21 15:38:32			0	36787	0	0	0	26654	25370	141130	27144	1023726	42691	109877	0	0	8203	597532	0	0
2024-06-21 15:39:32			0	36778	0	0	0	26649	25340	141218	27048	1023656	42701	109875	0	0	8202	598004	0	0
2024-06-21 15:40:32			0	36747	0	0	0	26633	25330	141190	27005	1023576	42699	109869	0	0	8201	599314	0	0
2024-06-21 15:41:32			0	36744	0	0	0	26631	25310	141354	27180	1023595	42697	109868	0	0	8201	599505	0	0
2024-06-21 15:42:32			0	36723	0	0	0	26636	25320	141390	27187	1023666	42708	109870	0	0	8199	600337	0	0
2024-06-21 15:43:32			0	36711	0	0	0	26636	25310	141406	27066	1023684	42708	109870	0	0	8199	600866	0	0
2024-06-21 15:44:32			0	36699	0	0	0	26638	25310	141454	27287	1023649	42708	109871	0	0	8198	601361	0	0
2024-06-21 15:45:32			0	36695	0	0	0	26644	25300	141502	27201	1023524	42696	109873	0	0	8198	601560	0	0
2024-06-21 15:46:32			0	36643	0	0	0	26625	25290	141642	27005	1023515	42684	109866	0	0	8195	603744	0	0
2024-06-21 15:47:32			0	36647	0	0	0	26631	25280	141722	26994	1023552	42706	109868	0	0	8195	603613	0	0
2024-06-21 15:48:32			0	36625	0	0	0	26633	25290	141842	27102	1023614	42706	109869	0	0	8194	604490	0	0
2024-06-21 15:49:32			0	36604	0	0	0	26675	25290	141806	26982	1023890	42740	109885	0	0	8192	605360	0	0
2024-06-21 15:50:32			0	36589	0	0	0	26724	25310	141877	26746	1023925	42730	109904	0	0	8191	605913	0	0
2024-06-21 15:51:32			0	36576	0	0	0	26742	25330	141941	27209	1023978	42721	109911	0	0	8190	606384	0	0
2024-06-21 15:52:32			0	36556	0	0	0	26758	25340	142045	27519	1024031	42734	109917	0	0	8189	607180	0	0
2024-06-21 15:53:32			0	36526	0	0	0	26771	25340	142117	26838	1024102	42722	109922	0	0	8187	608428	0	0
2024-06-21 15:54:32			0	36517	0	0	0	26802	25370	142085	27265	1024288	42736	109934	0	0	8186	608699	0	0
2024-06-21 15:55:32			0	36514	0	0	0	26836	25390	142173	27046	1024323	42726	109947	0	0	8185	608754	0	0
2024-06-21 15:56:32			0	36493	0	0	0	26851	25400	142245	27074	1024375	42728	109953	0	0	8184	609594	0	0
2024-06-21 15:57:32			0	36473	0	0	0	26872	25410	142253	27090	1024527	42740	109961	0	0	8183	610393	0	0
2024-06-21 15:58:32			0	36467	0	0	0	26898	25440	142253	27293	1024517	42719	109971	0	0	8182	610539	0	0
2024-06-21 15:59:32			0	36451	0	0	0	26890	25440	142393	27150	1024570	42731	109968	0	0	8181	611207	0	0
2024-06-21 16:00:32			0	36444	0	0	0	26883	25450	142337	27412	1024454	42710	109965	0	0	8181	611464	0	0
2024-06-21 16:01:32			0	36433	0	0	0	26859	25430	142361	27469	1024294	42719	109956	0	0	8181	611993	0	0
2024-06-21 16:02:32			0	36426	0	0	0	26828	25420	142513	27064	1024267	42718	109944	0	0	8181	612320	0	0
2024-06-21 16:03:32			0	36424	0	0	0	26823	25410	142469	27100	1024259	42707	109942	0	0	8181	612439	0	0
2024-06-21 16:04:32			0	36393	0	0	0	26812	25410	142481	27000	1024232	42696	109938	0	0	8180	613735	0	0
2024-06-21 16:05:32			0	36395	0	0	0	26799	25410	142573	26941	1024250	42718	109933	0	0	8180	613651	0	0
2024-06-21 16:06:32			0	36403	0	0	0	26794	25400	142553	27301	1024179	42716	109931	0	0	8180	613352	0	0
2024-06-21 16:07:32			0	36371	0	0	0	26779	25390	142681	27168	1024090	42705	109925	0	0	8179	614727	0	0
2024-06-21 16:08:32			0	36370	0	0	0	26763	25400	142661	26916	1024045	42716	109919	0	0	8179	614733	0	0
2024-06-21 16:09:32			0	36365	0	0	0	26755	25390	142649	27343	1024082	42726	109916	0	0	8179	614978	0	0
2024-06-21 16:10:32			0	36341	0	0	0	26735	25390	142625	27322	1023894	42693	109908	0	0	8178	615985	0	0
2024-06-21 16:11:32			0	36339	0	0	0	26703	25360	142773	27157	1023762	42690	109896	0	0	8178	616173	0	0
2024-06-21 16:12:32			0	36319	0	0	0	26683	25340	142745	27060	1023701	42700	109888	0	0	8178	617083	0	0
2024-06-21 16:13:32			0	36323	0	0	0	26680	25320	142761	27332	1023621	42698	109887	0	0	8178	616985	0	0
2024-06-21 16:14:32			0	36317	0	0	0	26667	25330	142941	27279	1023683	42688	109882	0	0	8178	617202	0	0
2024-06-21 16:15:32			0	36304	0	0	0	26641	25300	142961	27365	1023337	42673	109872	0	0	8177	617854	0	0
2024-06-21 16:16:32			0	36303	0	0	0	26568	25270	142909	27116	1023026	42660	109844	0	0	8178	618002	0	0
2024-06-21 16:17:32			0	36298	0	0	0	26514	25220	142925	27312	1022886	42656	109823	0	0	8179	618388	0	0
2024-06-21 16:18:32			0	36263	0	0	0	26472	25200	143085	27137	1022682	42664	109807	0	0	8178	619932	0	0
2024-06-21 16:19:32			0	36274	0	0	0	26451	25160	143157	27118	1022737	42672	109799	0	0	8178	619609	0	0
2024-06-21 16:20:32			0	36276	0	0	0	26459	25150	143117	27119	1022720	42682	109802	0	0	8178	619560	0	0
2024-06-21 16:21:32			0	36251	0	0	0	26444	25140	143273	27371	1022613	42680	109796	0	0	8177	620650	0	0
2024-06-21 16:22:32			0	36249	0	0	0	26423	25110	143249	27066	1022428	42656	109788	0	0	8177	620840	0	0
2024-06-21 16:23:32			0	36241	0	0	0	26384	25090	143217	27388	1022321	42644	109773	0	0	8177	621248	0	0
2024-06-21 16:24:32			0	36241	0	0	0	26363	25070	143241	27315	1022367	42664	109765	0	0	8178	621319	0	0
2024-06-21 16:25:32			0	36239	0	0	0	26373	25060	143409	27235	1022377	42673	109769	0	0	8177	621438	0	0
2024-06-21 16:26:32			0	36247	0	0	0	26379	25060	143421	27272	1022341	42683	109771	0	0	8178	621100	0	0
2024-06-21 16:27:32			0	36253	0	0	0	26373	25060	143393	27310	1022368	42650	109769	0	0	8178	620847	0	0
2024-06-21 16:28:32			0	36235	0	0	0	26368	25050	143373	27369	1022386	42672	109767	0	0	8177	621643	0	0
2024-06-21 16:29:32			0	36226	0	0	0	26389	25040	143405	27300	1022342	42694	109775	0	0	8176	622058	0	0
2024-06-21 16:30:32			0	36224	0	0	0	26405	25050	143365	27156	1022547	42695	109781	0	0	8176	622108	0	0
2024-06-21 16:31:32			0	36237	0	0	0	26420	25050	143321	27284	1022520	42695	109787	0	0	8176	621558	0	0
2024-06-21 16:32:32			0	36232	0	0	0	26441	25060	143329	27216	1022636	42683	109795	0	0	8176	621734	0	0
2024-06-21 16:33:32			0	36209	0	0	0	26449	25070	143353	27282	1022715	42697	109798	0	0	8175	622671	0	0
2024-06-21 16:34:32			0	36213	0	0	0	26462	25070	143521	27045	1022734	42674	109803	0	0	8175	622502	0	0
2024-06-21 16:35:32			0	36186	0	0	0	26488	25090	143485	27093	1022777	42699	109813	0	0	8173	623574	0	0
2024-06-21 16:36:32			0	36204	0	0	0	26511	25100	143597	27147	1023008	42699	109822	0	0	8173	622777	0	0
2024-06-21 16:37:32			0	36185	0	0	0	26537	25120	143593	27277	1022981	42701	109832	0	0	8172	623510	0	0
2024-06-21 16:38:32			0	36162	0	0	0	26581	25130	143661	27230	1023167	42703	109849	0	0	8170	624449	0	0
2024-06-21 16:39:32			0	36163	0	0	0	26605	25160	143649	27305	1023237	42705	109858	0	0	8170	624301	0	0
2024-06-21 16:40:32			0	36161	0	0	0	26644	25180	143669	27293	1023379	42717	109873	0	0	8169	624315	0	0
2024-06-21 16:41:32			0	36138	0	0	0	26662	25190	143693	27041	1023369	42708	109880	0	0	8168	625254	0	0
2024-06-21 16:42:32			0	36135	0	0	0	26659	25210	143725	27227	1023431	42698	109879	0	0	8168	625311	0	0
2024-06-21 16:43:32			0	36138	0	0	0	26646	25210	143693	27305	1023270	42687	109874	0	0	8168	625183	0	0
2024-06-21 16:44:32			0	36128	0	0	0	26607	25200	143757	27234	1023084	42686	109859	0	0	8168	625643	0	0
2024-06-21 16:45:32			0	36128	0	0	0	26571	25180	143693	27019	1023013	42663	109845	0	0	8169	625714	0	0
2024-06-21 16:46:32			0	36111	0	0	0	26503	25140	143761	27391	1022595	42636	109819	0	0	8169	626578	0	0
2024-06-21 16:47:32			0	36107	0	0	0	26446	25120	143849	27334	1022400	42634	109797	0	0	8169	626819	0	0
2024-06-21 16:48:32			0	36116	0	0	0	26405	25090	143897	27088	1022321	42644	109781	0	0	8170	626543	0	0
2024-06-21 16:49:32			0	36102	0	0	0	26371	25060	143909	27320	1022216	42651	109768	0	0	8170	627245	0	0
2024-06-21 16:50:32			0	36128	0	0	0	26342	25040	143809	27093	1022128	42650	109757	0	0	8172	626211	0	0
2024-06-21 16:51:32			0	36123	0	0	0	26327	25000	143909	27107	1022005	42646	109751	0	0	8172	626566	0	0
2024-06-21 16:52:32			0	36103	0	0	0	26314	24990	143889	27400	1022015	42666	109746	0	0	8171	627452	0	0
2024-06-21 16:53:32			0	36123	0	0	0	26303	24970	143901	27203	1021926	42665	109742	0	0	8172	626672	0	0
2024-06-21 16:54:32			0	36120	0	0	0	26290	24970	143837	27305	1021864	42653	109737	0	0	8172	626800	0	0
2024-06-21 16:55:32			0	36103	0	0	0	26270	24940	143917	27301	1021786	42628	109729	0	0	8171	627630	0	0
2024-06-21 16:56:32			0	36112	0	0	0	26251	24930	143893	26970	1021670	42650	109722	0	0	8172	627282	0	0
2024-06-21 16:57:32			0	36103	0	0	0	26233	24930	143929	27057	1021670	42650	109715	0	0	8172	627665	0	0
2024-06-21 16:58:32			0	36120	0	0	0	26215	24900	143933	27374	1021565	42625	109708	0	0	8173	627049	0	0
2024-06-21 16:59:32			0	36124	0	0	0	26205	24890	143905	27137	1021547	42646	109704	0	0	8173	626914	0	0
2024-06-21 17:00:32			0	36125	0	0	0	26192	24870	143989	27481	1021388	42633	109699	0	0	8174	626943	0	0
2024-06-21 17:01:32			0	36101	0	0	0	26184	24860	143937	27144	1021469	42642	109696	0	0	8172	627999	0	0
2024-06-21 17:02:32			0	36110	0	0	0	26174	24850	143941	27109	1021318	42642	109692	0	0	8173	627652	0	0
2024-06-21 17:03:32			0	36092	0	0	0	26161	24830	144005	27149	1021265	42641	109687	0	0	8172	628489	0	0
2024-06-21 17:04:32			0	36106	0	0	0	26155	24820	144133	27293	1021248	42618	109685	0	0	8173	627929	0	0
2024-06-21 17:05:32			0	36095	0	0	0	26148	24820	144053	27220	1021301	42651	109682	0	0	8173	628397	0	0
2024-06-21 17:06:32			0	36106	0	0	0	26158	24820	144033	27209	1021355	42673	109686	0	0	8173	627929	0	0
2024-06-21 17:07:32			0	36093	0	0	0	26155	24820	144053	27241	1021328	42628	109685	0	0	8172	628482	0	0
2024-06-21 17:08:32			0	36105	0	0	0	26158	24810	144017	27298	1021195	42660	109686	0	0	8173	628007	0	0
2024-06-21 17:09:32			0	36078	0	0	0	26161	24810	144041	26927	1021222	42638	109687	0	0	8171	629157	0	0
2024-06-21 17:10:32			0	36102	0	0	0	26163	24800	144121	27180	1021258	42637	109688	0	0	8173	628170	0	0
2024-06-21 17:11:32			0	36090	0	0	0	26161	24800	144081	27033	1021285	42648	109687	0	0	8172	628681	0	0
2024-06-21 17:12:32			0	36094	0	0	0	26158	24810	143969	26998	1021329	42649	109686	0	0	8172	628475	0	0
2024-06-21 17:13:32			0	36092	0	0	0	26163	24800	144045	27147	1021311	42648	109688	0	0	8172	628596	0	0
2024-06-21 17:14:32			0	36115	0	0	0	26166	24800	144045	27059	1021231	42637	109689	0	0	8173	627617	0	0
2024-06-21 17:15:32			0	36108	0	0	0	26166	24800	144037	27206	1021285	42648	109689	0	0	8173	627915	0	0
2024-06-21 17:16:32			0	36104	0	0	0	26174	24800	144025	27592	1021347	42671	109692	0	0	8172	628085	0	0
2024-06-21 17:17:32			0	36103	0	0	0	26197	24810	144041	27367	1021418	42650	109701	0	0	8172	628092	0	0
2024-06-21 17:18:32			0	36089	0	0	0	26197	24810	144053	27027	1021356	42649	109701	0	0	8171	628688	0	0
2024-06-21 17:19:32			0	36112	0	0	0	26207	24810	143969	27079	1021329	42649	109705	0	0	8172	627709	0	0
2024-06-21 17:20:32			0	36088	0	0	0	26202	24800	144041	27072	1021400	42649	109703	0	0	8171	628767	0	0
2024-06-21 17:21:32			0	36098	0	0	0	26205	24810	143989	27303	1021391	42650	109704	0	0	8172	628305	0	0
2024-06-21 17:22:32			0	36108	0	0	0	26197	24810	144041	27131	1021383	42660	109701	0	0	8172	627879	0	0
2024-06-21 17:23:32			0	36094	0	0	0	26184	24820	144049	26968	1021320	42650	109696	0	0	8172	628440	0	0
2024-06-21 17:24:32			0	36099	0	0	0	26174	24800	144169	27211	1021240	42649	109692	0	0	8172	628298	0	0
2024-06-21 17:25:32			0	36089	0	0	0	26161	24790	144185	27386	1021115	42636	109687	0	0	8172	628759	0	0
2024-06-21 17:26:32			0	36091	0	0	0	26158	24790	144205	27412	1021160	42636	109686	0	0	8172	628674	0	0
2024-06-21 17:27:32			0	36074	0	0	0	26142	24770	144169	27287	1021126	42624	109680	0	0	8171	629470	0	0
2024-06-21 17:28:32			0	36099	0	0	0	26142	24770	144153	27346	1021099	42645	109680	0	0	8173	628405	0	0
2024-06-21 17:29:32			0	36078	0	0	0	26137	24760	144201	26989	1021171	42645	109678	0	0	8172	629335	0	0
2024-06-21 17:30:32			0	36070	0	0	0	26153	24780	144269	27178	1021197	42646	109684	0	0	8171	629605	0	0
2024-06-21 17:31:32			0	36067	0	0	0	26148	24770	144213	27417	1021179	42634	109682	0	0	8171	629769	0	0
2024-06-21 17:32:32			0	36068	0	0	0	26140	24770	144217	27326	1021126	42657	109679	0	0	8171	629726	0	0
2024-06-21 17:33:32			0	36081	0	0	0	26129	24760	144173	27027	1021037	42645	109675	0	0	8172	629207	0	0
2024-06-21 17:34:32			0	36076	0	0	0	26122	24750	144217	27367	1020958	42632	109672	0	0	8172	629456	0	0
2024-06-21 17:35:32			0	36063	0	0	0	26119	24750	144189	27213	1021011	42632	109671	0	0	8171	630011	0	0
2024-06-21 17:36:32			0	36062	0	0	0	26124	24750	144321	27166	1021091	42632	109673	0	0	8171	630054	0	0
2024-06-21 17:37:32			0	36062	0	0	0	26116	24740	144325	27711	1021029	42643	109670	0	0	8171	630089	0	0
2024-06-21 17:38:32			0	36064	0	0	0	26106	24740	144365	27332	1020949	42654	109666	0	0	8171	630004	0	0
2024-06-21 17:39:32			0	36073	0	0	0	26096	24730	144309	27043	1020959	42642	109662	0	0	8172	629655	0	0
2024-06-21 17:40:32			0	36066	0	0	0	26085	24730	144313	27261	1020843	42642	109658	0	0	8172	629954	0	0
2024-06-21 17:41:32			0	36056	0	0	0	26072	24700	144401	26965	1020746	42628	109653	0	0	8171	630488	0	0
2024-06-21 17:42:32			0	36059	0	0	0	26057	24700	144373	27429	1020666	42617	109647	0	0	8172	630360	0	0
2024-06-21 17:43:32			0	36060	0	0	0	26041	24690	144325	27206	1020622	42638	109641	0	0	8172	630353	0	0
2024-06-21 17:44:32			0	36059	0	0	0	26031	24680	144269	27396	1020596	42625	109637	0	0	8172	630432	0	0
2024-06-21 17:45:32			0	36061	0	0	0	26041	24680	144341	27206	1020703	42636	109641	0	0	8172	630346	0	0
2024-06-21 17:46:32			0	36018	0	0	0	26041	24670	144425	27078	1020721	42636	109641	0	0	8170	632220	0	0
2024-06-21 17:47:32			0	36039	0	0	0	26075	24690	144285	27183	1020908	42637	109654	0	0	8170	631250	0	0
2024-06-21 17:48:32			0	36043	0	0	0	26106	24710	144257	27279	1021049	42639	109666	0	0	8170	631008	0	0
2024-06-21 17:49:32			0	36044	0	0	0	26122	24730	144341	27111	1021057	42653	109672	0	0	8170	630894	0	0
2024-06-21 17:50:32			0	36025	0	0	0	26137	24730	144333	27315	1021057	42664	109678	0	0	8169	631706	0	0
2024-06-21 17:51:32			0	36018	0	0	0	26145	24740	144309	27332	1021163	42654	109681	0	0	8168	631969	0	0
2024-06-21 17:52:32			0	36020	0	0	0	26176	24740	144361	27414	1021262	42665	109693	0	0	8168	631884	0	0
2024-06-21 17:53:32			0	36017	0	0	0	26197	24760	144273	27545	1021278	42645	109701	0	0	8167	631941	0	0
2024-06-21 17:54:32			0	36032	0	0	0	26207	24770	144261	27157	1021322	42657	109705	0	0	8168	631263	0	0
2024-06-21 17:55:32			0	36032	0	0	0	26207	24770	144373	27360	1021402	42657	109705	0	0	8168	631263	0	0
2024-06-21 17:56:32			0	36024	0	0	0	26212	24780	144497	27350	1021259	42647	109707	0	0	8168	631570	0	0
2024-06-21 17:57:32			0	36007	0	0	0	26212	24780	144393	27296	1021250	42646	109707	0	0	8167	632297	0	0
2024-06-21 17:58:32			0	36005	0	0	0	26189	24770	144389	27400	1021215	42645	109698	0	0	8167	632418	0	0
2024-06-21 17:59:32			0	36017	0	0	0	26168	24770	144345	27135	1021099	42645	109690	0	0	8168	631905	0	0
2024-06-21 18:00:32			0	36002	0	0	0	26145	24760	144493	27535	1021135	42623	109681	0	0	8167	632582	0	0
2024-06-21 18:01:32			0	36001	0	0	0	26145	24760	144457	27372	1021109	42644	109681	0	0	8167	632625	0	0
2024-06-21 18:02:32			0	36003	0	0	0	26135	24750	144405	27462	1021073	42632	109677	0	0	8168	632575	0	0
2024-06-21 18:03:32			0	36015	0	0	0	26142	24740	144445	27371	1021056	42654	109680	0	0	8168	632098	0	0
2024-06-21 18:04:32			0	36021	0	0	0	26137	24750	144533	27326	1021154	42655	109678	0	0	8168	631805	0	0
2024-06-21 18:05:32			0	36022	0	0	0	26153	24760	144469	27187	1021216	42644	109684	0	0	8168	631727	0	0
2024-06-21 18:06:32			0	36014	0	0	0	26153	24760	144425	27324	1021171	42645	109684	0	0	8168	632069	0	0
2024-06-21 18:07:32			0	36008	0	0	0	26150	24770	144469	27159	1021153	42645	109683	0	0	8168	632290	0	0
2024-06-21 18:08:32			0	36014	0	0	0	26158	24760	144481	27036	1021109	42633	109686	0	0	8168	632069	0	0
2024-06-21 18:09:32			0	36011	0	0	0	26158	24750	144461	27433	1021234	42644	109686	0	0	8168	632233	0	0
2024-06-21 18:10:32			0	36014	0	0	0	26153	24760	144429	27147	1021144	42657	109684	0	0	8168	632069	0	0
2024-06-21 18:11:32			0	36009	0	0	0	26161	24760	144341	27440	1021198	42645	109687	0	0	8167	632283	0	0
2024-06-21 18:12:32			0	36007	0	0	0	26158	24760	144477	27126	1021117	42645	109686	0	0	8167	632368	0	0
2024-06-21 18:13:32			0	36017	0	0	0	26142	24750	144477	27322	1021038	42644	109680	0	0	8168	631976	0	0
2024-06-21 18:14:32			0	35998	0	0	0	26127	24740	144489	27196	1021003	42643	109674	0	0	8167	632825	0	0
2024-06-21 18:15:32			0	36016	0	0	0	26124	24740	144433	27578	1021110	42631	109673	0	0	8168	632055	0	0
2024-06-21 18:16:32			0	36016	0	0	0	26140	24740	144541	27353	1021110	42643	109679	0	0	8168	632055	0	0
2024-06-21 18:17:32			0	36010	0	0	0	26161	24760	144453	27261	1021216	42633	109687	0	0	8168	632240	0	0
2024-06-21 18:18:32			0	36007	0	0	0	26184	24760	144493	27495	1021323	42644	109696	0	0	8167	632368	0	0
2024-06-21 18:19:32			0	36021	0	0	0	26197	24780	144437	27393	1021330	42646	109701	0	0	8168	631698	0	0
2024-06-21 18:20:32			0	36010	0	0	0	26215	24790	144469	27504	1021401	42659	109708	0	0	8167	632133	0	0
2024-06-21 18:21:32			0	36006	0	0	0	26231	24800	144405	27248	1021472	42659	109714	0	0	8166	632268	0	0
2024-06-21 18:22:32			0	36010	0	0	0	26246	24800	144505	27237	1021481	42660	109720	0	0	8166	632097	0	0
2024-06-21 18:23:32			0	35991	0	0	0	26249	24810	144461	27254	1021516	42649	109721	0	0	8165	632874	0	0
2024-06-21 18:24:32			0	35999	0	0	0	26246	24820	144373	27147	1021569	42662	109720	0	0	8166	632496	0	0
2024-06-21 18:25:32			0	36006	0	0	0	26264	24830	144469	27239	1021640	42685	109727	0	0	8166	632161	0	0
2024-06-21 18:26:32			0	36008	0	0	0	26283	24850	144445	27048	1021666	42665	109734	0	0	8166	632003	0	0
2024-06-21 18:27:32			0	35997	0	0	0	26306	24840	144525	26937	1021711	42674	109743	0	0	8165	632510	0	0
2024-06-21 18:28:32			0	35987	0	0	0	26316	24860	144589	26930	1021799	42666	109747	0	0	8164	632866	0	0
2024-06-21 18:29:32			0	35981	0	0	0	26322	24870	144513	27088	1021807	42666	109749	0	0	8164	633087	0	0
2024-06-21 18:30:32			0	35991	0	0	0	26314	24880	144557	27265	1021851	42677	109746	0	0	8164	632623	0	0
2024-06-21 18:31:32			0	35983	0	0	0	26322	24880	144537	27034	1021913	42678	109749	0	0	8164	632965	0	0
2024-06-21 18:32:32			0	35989	0	0	0	26345	24890	144461	27175	1021922	42679	109758	0	0	8164	632673	0	0
2024-06-21 18:33:32			0	35990	0	0	0	26327	24900	144433	27102	1021779	42658	109751	0	0	8164	632594	0	0
2024-06-21 18:34:32			0	35983	0	0	0	26285	24880	144513	26738	1021610	42644	109735	0	0	8165	632965	0	0
2024-06-21 18:35:32			0	35987	0	0	0	26262	24870	144493	26984	1021593	42656	109726	0	0	8165	632830	0	0
2024-06-21 18:36:32			0	35975	0	0	0	26259	24870	144537	27298	1021647	42656	109725	0	0	8165	633344	0	0
2024-06-21 18:37:32			0	35993	0	0	0	26238	24860	144421	27036	1021558	42655	109717	0	0	8166	632609	0	0
2024-06-21 18:38:32			0	35975	0	0	0	26215	24850	144445	27261	1021398	42642	109708	0	0	8165	633416	0	0
2024-06-21 18:39:32			0	35996	0	0	0	26189	24830	144533	27171	1021283	42663	109698	0	0	8167	632588	0	0
2024-06-21 18:40:32			0	35987	0	0	0	26171	24820	144473	27152	1021328	42651	109691	0	0	8166	633010	0	0
2024-06-21 18:41:32			0	36007	0	0	0	26161	24820	144477	27097	1021346	42650	109687	0	0	8168	632154	0	0
2024-06-21 18:42:32			0	36000	0	0	0	26161	24800	144441	27305	1021320	42649	109687	0	0	8167	632525	0	0
2024-06-21 18:43:32			0	36003	0	0	0	26171	24810	144481	26953	1021364	42661	109691	0	0	8167	632361	0	0
2024-06-21 18:44:32			0	36003	0	0	0	26176	24810	144373	27397	1021409	42660	109693	0	0	8167	632361	0	0
2024-06-21 18:45:32			0	36002	0	0	0	26184	24810	144401	27365	1021391	42650	109696	0	0	8167	632403	0	0
2024-06-21 18:46:32			0	36008	0	0	0	26189	24810	144417	27417	1021445	42661	109698	0	0	8167	632147	0	0
2024-06-21 18:47:32			0	36009	0	0	0	26192	24820	144341	27400	1021427	42650	109699	0	0	8167	632068	0	0
2024-06-21 18:48:32			0	36023	0	0	0	26202	24820	144313	27381	1021435	42673	109703	0	0	8168	631469	0	0
2024-06-21 18:49:32			0	36007	0	0	0	26210	24820	144285	27315	1021507	42661	109706	0	0	8167	632154	0	0
2024-06-21 18:50:32			0	35999	0	0	0	26215	24820	144409	27055	1021453	42650	109708	0	0	8166	632496	0	0
2024-06-21 18:51:32			0	36020	0	0	0	26202	24820	144465	26960	1021400	42639	109703	0	0	8168	631598	0	0
2024-06-21 18:52:32			0	36016	0	0	0	26184	24810	144417	27519	1021257	42650	109696	0	0	8168	631805	0	0
2024-06-21 18:53:32			0	36009	0	0	0	26161	24810	144381	26987	1021231	42650	109687	0	0	8168	632104	0	0
2024-06-21 18:54:32			0	36020	0	0	0	26148	24790	144397	27338	1021223	42636	109682	0	0	8168	631705	0	0
2024-06-21 18:55:32			0	36004	0	0	0	26129	24770	144413	27481	1021099	42624	109675	0	0	8168	632461	0	0
2024-06-21 18:56:32			0	36017	0	0	0	26109	24760	144397	27317	1021010	42634	109667	0	0	8169	631941	0	0
2024-06-21 18:57:32			0	36022	0	0	0	26093	24750	144409	27104	1021011	42644	109661	0	0	8169	631763	0	0
2024-06-21 18:58:32			0	36012	0	0	0	26090	24740	144313	27332	1020896	42643	109660	0	0	8169	632226	0	0
2024-06-21 18:59:32			0	36036	0	0	0	26080	24730	144289	27329	1020878	42642	109656	0	0	8170	631236	0	0
2024-06-21 19:00:32			0	36019	0	0	0	26090	24720	144393	27376	1020879	42652	109660	0	0	8169	631998	0	0
2024-06-21 19:01:32			0	36030	0	0	0	26090	24730	144337	27390	1020932	42642	109660	0	0	8170	631492	0	0
2024-06-21 19:02:32			0	36039	0	0	0	26096	24730	144393	27414	1020923	42642	109662	0	0	8170	631107	0	0
2024-06-21 19:03:32			0	36029	0	0	0	26083	24730	144325	27402	1020896	42630	109657	0	0	8170	631535	0	0
2024-06-21 19:04:32			0	36044	0	0	0	26077	24710	144385	27440	1020817	42640	109655	0	0	8171	630965	0	0
2024-06-21 19:05:32			0	36059	0	0	0	26070	24700	144461	27346	1020773	42639	109652	0	0	8171	630360	0	0
2024-06-21 19:06:32			0	36023	0	0	0	26049	24690	144397	27405	1020747	42626	109644	0	0	8170	631934	0	0
2024-06-21 19:07:32			0	36027	0	0	0	26033	24690	144397	27215	1020667	42626	109638	0	0	8170	631763	0	0
2024-06-21 19:08:32			0	36051	0	0	0	26025	24680	144361	27261	1020623	42636	109635	0	0	8172	630773	0	0
2024-06-21 19:09:32			0	36040	0	0	0	26033	24660	144381	27234	1020677	42647	109638	0	0	8171	631315	0	0
2024-06-21 19:10:32			0	36042	0	0	0	26044	24670	144401	27395	1020793	42635	109642	0	0	8171	631193	0	0
2024-06-21 19:11:32			0	36049	0	0	0	26077	24690	144309	27469	1020908	42660	109655	0	0	8171	630823	0	0
2024-06-21 19:12:32			0	36050	0	0	0	26111	24700	144393	27483	1021032	42672	109668	0	0	8170	630744	0	0
2024-06-21 19:13:32			0	36074	0	0	0	26150	24720	144345	27275	1021129	42674	109683	0	0	8171	629649	0	0
2024-06-21 19:14:32			0	36039	0	0	0	26168	24730	144441	27286	1021226	42653	109690	0	0	8169	631107	0	0
2024-06-21 19:15:32			0	36044	0	0	0	26186	24750	144349	27305	1021198	42666	109697	0	0	8169	630822	0	0
2024-06-21 19:16:32			0	36025	0	0	0	26155	24730	144421	27216	1021012	42630	109685	0	0	8168	631706	0	0
2024-06-21 19:17:32			0	36042	0	0	0	26122	24730	144357	27190	1020896	42630	109672	0	0	8170	630979	0	0
2024-06-21 19:18:32			0	36049	0	0	0	26088	24700	144445	26989	1020827	42617	109659	0	0	8171	630787	0	0
2024-06-21 19:19:32			0	36031	0	0	0	26062	24690	144357	26970	1020747	42626	109649	0	0	8170	631592	0	0
2024-06-21 19:20:32			0	36028	0	0	0	26059	24680	144385	27208	1020783	42636	109648	0	0	8170	631756	0	0
2024-06-21 19:21:32			0	36033	0	0	0	26077	24680	144477	27114	1020837	42648	109655	0	0	8170	631542	0	0
2024-06-21 19:22:32			0	36030	0	0	0	26080	24690	144437	27173	1020916	42661	109656	0	0	8170	631635	0	0
2024-06-21 19:23:32			0	36051	0	0	0	26109	24700	144377	27301	1021041	42650	109667	0	0	8170	630702	0	0
2024-06-21 19:24:32			0	36023	0	0	0	26135	24720	144409	27495	1021075	42674	109677	0	0	8168	631827	0	0
2024-06-21 19:25:32			0	36054	0	0	0	26158	24720	144429	27549	1021075	42663	109686	0	0	8170	630502	0	0
2024-06-21 19:26:32			0	36035	0	0	0	26163	24740	144349	27519	1021181	42654	109688	0	0	8169	631243	0	0
2024-06-21 19:27:32			0	36040	0	0	0	26179	24750	144353	27251	1021198	42677	109694	0	0	8169	630993	0	0
2024-06-21 19:28:32			0	36054	0	0	0	26171	24750	144353	27459	1021154	42655	109691	0	0	8170	630395	0	0
2024-06-21 19:29:32			0	36050	0	0	0	26150	24740	144373	27353	1021128	42643	109683	0	0	8170	630602	0	0
2024-06-21 19:30:32			0	36037	0	0	0	26122	24740	144397	27145	1020922	42631	109672	0	0	8170	631157	0	0
2024-06-21 19:31:32			0	36047	0	0	0	26088	24710	144437	27336	1020737	42618	109659	0	0	8171	630837	0	0
2024-06-21 19:32:32			0	36030	0	0	0	26057	24690	144361	27130	1020560	42615	109647	0	0	8170	631635	0	0
2024-06-21 19:33:32			0	36049	0	0	0	26018	24660	144397	27364	1020409	42602	109632	0	0	8172	630930	0	0
2024-06-21 19:34:32			0	36053	0	0	0	25989	24640	144333	27386	1020420	42622	109621	0	0	8172	630830	0	0
2024-06-21 19:35:32			0	36040	0	0	0	25976	24640	144381	27436	1020420	42633	109616	0	0	8172	631386	0	0
2024-06-21 19:36:32			0	36067	0	0	0	25976	24630	144389	27313	1020438	42643	109616	0	0	8173	630268	0	0
2024-06-21 19:37:32			0	36055	0	0	0	25973	24630	144393	27338	1020349	42632	109615	0	0	8173	630781	0	0
2024-06-21 19:38:32			0	36055	0	0	0	25942	24620	144361	27474	1020314	42621	109603	0	0	8173	630816	0	0
2024-06-21 19:39:32			0	36076	0	0	0	25924	24600	144297	27341	1020092	42619	109596	0	0	8174	629991	0	0
2024-06-21 19:40:32			0	36087	0	0	0	25901	24570	144349	27549	1020103	42627	109587	0	0	8175	629628	0	0
2024-06-21 19:41:32			0	36090	0	0	0	25906	24560	144265	27414	1020139	42625	109589	0	0	8175	629536	0	0
2024-06-21 19:42:32			0	36102	0	0	0	25924	24560	144289	27173	1020210	42659	109596	0	0	8176	629024	0	0
2024-06-21 19:43:32			0	36107	0	0	0	25942	24580	144149	27268	1020405	42650	109603	0	0	8176	628740	0	0
2024-06-21 19:44:32			0	36113	0	0	0	25971	24590	144137	27405	1020431	42651	109614	0	0	8175	628448	0	0
2024-06-21 19:45:32			0	36110	0	0	0	25973	24600	144097	27438	1020422	42630	109615	0	0	8175	628541	0	0
2024-06-21 19:46:32			0	36115	0	0	0	25994	24600	144125	27379	1020547	42651	109623	0	0	8175	628328	0	0
2024-06-21 19:47:32			0	36126	0	0	0	26012	24620	144105	27281	1020626	42665	109630	0	0	8176	627788	0	0
2024-06-21 19:48:32			0	36124	0	0	0	26041	24640	144117	27230	1020741	42655	109641	0	0	8175	627802	0	0
2024-06-21 19:49:32			0	36123	0	0	0	26041	24640	144053	27284	1020661	42655	109641	0	0	8175	627845	0	0
2024-06-21 19:50:32			0	36107	0	0	0	26028	24640	144081	27246	1020527	42633	109636	0	0	8174	628526	0	0
2024-06-21 19:51:32			0	36098	0	0	0	25997	24620	144193	27400	1020367	42621	109624	0	0	8174	628981	0	0
2024-06-21 19:52:32			0	36102	0	0	0	25973	24600	144089	27360	1020315	42619	109615	0	0	8175	628882	0	0
2024-06-21 19:53:32			0	36096	0	0	0	25953	24600	144157	27050	1020279	42619	109607	0	0	8175	629137	0	0
2024-06-21 19:54:32			0	36109	0	0	0	25937	24590	144141	27208	1020289	42628	109601	0	0	8176	628619	0	0
2024-06-21 19:55:32			0	36114	0	0	0	25927	24580	144125	27242	1020111	42627	109597	0	0	8176	628441	0	0
2024-06-21 19:56:32			0	36101	0	0	0	25901	24560	144141	27189	1020023	42603	109587	0	0	8176	629067	0	0
2024-06-21 19:57:32			0	36114	0	0	0	25864	24540	144129	26998	1019837	42613	109573	0	0	8177	628584	0	0
2024-06-21 19:58:32			0	36137	0	0	0	25851	24520	144069	27228	1019847	42622	109568	0	0	8178	627675	0	0
2024-06-21 19:59:32			0	36159	0	0	0	25844	24510	144049	27100	1019803	42599	109565	0	0	8180	626774	0	0
2024-06-21 20:00:32			0	36187	0	0	0	25828	24500	143961	27353	1019821	42598	109559	0	0	8181	625619	0	0
2024-06-21 20:01:32			0	36193	0	0	0	25844	24500	143945	27039	1019866	42620	109565	0	0	8181	625364	0	0
2024-06-21 20:02:32			0	36212	0	0	0	25872	24510	143893	27369	1019999	42632	109576	0	0	8182	624522	0	0
2024-06-21 20:03:32			0	36222	0	0	0	25890	24520	143805	27312	1019989	42644	109583	0	0	8182	624062	0	0
2024-06-21 20:04:32			0	36248	0	0	0	25903	24520	143777	27403	1020034	42622	109588	0	0	8183	622960	0	0
2024-06-21 20:05:32			0	36219	0	0	0	25893	24520	143745	27421	1020061	42611	109584	0	0	8182	624190	0	0
2024-06-21 20:06:32			0	36259	0	0	0	25877	24510	143641	27448	1019883	42610	109578	0	0	8184	622530	0	0
2024-06-21 20:07:32			0	36261	0	0	0	25864	24500	143709	27234	1019813	42608	109573	0	0	8185	622480	0	0
2024-06-21 20:08:32			0	36239	0	0	0	25844	24490	143677	27434	1019750	42630	109565	0	0	8184	623448	0	0
2024-06-21 20:09:32			0	36269	0	0	0	25820	24470	143669	27291	1019689	42606	109556	0	0	8186	622247	0	0
2024-06-21 20:10:32			0	36271	0	0	0	25799	24460	143709	27189	1019592	42594	109548	0	0	8186	622198	0	0
2024-06-21 20:11:32			0	36268	0	0	0	25766	24450	143721	27183	1019406	42583	109535	0	0	8187	622360	0	0
2024-06-21 20:12:32			0	36287	0	0	0	25729	24420	143685	27293	1019282	42558	109521	0	0	8188	621661	0	0
2024-06-21 20:13:32			0	36296	0	0	0	25701	24390	143661	27163	1019061	42587	109510	0	0	8189	621386	0	0
2024-06-21 20:14:32			0	36293	0	0	0	25675	24360	143713	27386	1018983	42574	109500	0	0	8189	621618	0	0
2024-06-21 20:15:32			0	36290	0	0	0	25646	24350	143681	27119	1018939	42572	109489	0	0	8189	621780	0	0
2024-06-21 20:16:32			0	36298	0	0	0	25631	24330	143689	27203	1018824	42581	109483	0	0	8190	621512	0	0
2024-06-21 20:17:32			0	36305	0	0	0	25618	24300	143733	27523	1018727	42579	109478	0	0	8190	621321	0	0
2024-06-21 20:18:32			0	36280	0	0	0	25602	24280	143713	27376	1018675	42578	109472	0	0	8189	622450	0	0
2024-06-21 20:19:32			0	36293	0	0	0	25594	24270	143801	27222	1018649	42598	109469	0	0	8190	621934	0	0
2024-06-21 20:20:32			0	36275	0	0	0	25579	24240	143833	27282	1018579	42596	109463	0	0	8189	622802	0	0
2024-06-21 20:21:32			0	36270	0	0	0	25579	24230	143769	27066	1018535	42573	109463	0	0	8189	623049	0	0
2024-06-21 20:22:32			0	36253	0	0	0	25563	24220	143941	27256	1018491	42594	109457	0	0	8188	623805	0	0
2024-06-21 20:23:32			0	36240	0	0	0	25563	24210	144017	26991	1018527	42582	109457	0	0	8187	624392	0	0
2024-06-21 20:24:32			0	36241	0	0	0	25553	24200	143913	27410	1018323	42592	109453	0	0	8188	624385	0	0
2024-06-21 20:25:32			0	36234	0	0	0	25561	24210	143917	27093	1018465	42592	109456	0	0	8187	624647	0	0
2024-06-21 20:26:32			0	36223	0	0	0	25550	24200	144045	27279	1018341	42581	109452	0	0	8187	625149	0	0
2024-06-21 20:27:32			0	36202	0	0	0	25535	24190	144053	27303	1018377	42568	109446	0	0	8186	626077	0	0
2024-06-21 20:28:32			0	36190	0	0	0	25529	24180	144165	27092	1018306	42589	109444	0	0	8185	626623	0	0
2024-06-21 20:29:32			0	36198	0	0	0	25519	24170	144265	27384	1018316	42588	109440	0	0	8186	626318	0	0
2024-06-21 20:30:32			0	36191	0	0	0	25516	24160	144305	27232	1018245	42587	109439	0	0	8185	626651	0	0
2024-06-21 20:31:32			0	36168	0	0	0	25511	24160	144249	27241	1018245	42577	109437	0	0	8184	627631	0	0
2024-06-21 20:32:32			0	36171	0	0	0	25516	24150	144261	27128	1018237	42576	109439	0	0	8184	627538	0	0
2024-06-21 20:33:32			0	36158	0	0	0	25506	24150	144325	27358	1018201	42576	109435	0	0	8184	628092	0	0
2024-06-21 20:34:32			0	36164	0	0	0	25506	24130	144417	27301	1018176	42585	109435	0	0	8184	627907	0	0
2024-06-21 20:35:32			0	36140	0	0	0	25490	24130	144413	27124	1018176	42585	109429	0	0	8183	628931	0	0
2024-06-21 20:36:32			0	36134	0	0	0	25485	24120	144393	27498	1018105	42573	109427	0	0	8183	629222	0	0
2024-06-21 20:37:32			0	36133	0	0	0	25475	24100	144465	27159	1017937	42571	109423	0	0	8183	629336	0	0
2024-06-21 20:38:32			0	36126	0	0	0	25464	24100	144437	27064	1017964	42571	109419	0	0	8183	629635	0	0
2024-06-21 20:39:32			0	36112	0	0	0	25454	24090	144505	26902	1017946	42559	109415	0	0	8182	630269	0	0
2024-06-21 20:40:32			0	36106	0	0	0	25454	24080	144549	27379	1017876	42581	109415	0	0	8182	630561	0	0
2024-06-21 20:41:32			0	36101	0	0	0	25441	24080	144577	27682	1017876	42581	109410	0	0	8182	630774	0	0
2024-06-21 20:42:32			0	36088	0	0	0	25446	24080	144641	27300	1017894	42580	109412	0	0	8181	631331	0	0
2024-06-21 20:43:32			0	36093	0	0	0	25446	24080	144677	27289	1017921	42580	109412	0	0	8181	631117	0	0
2024-06-21 20:44:32			0	36081	0	0	0	25444	24070	144701	26986	1017903	42589	109411	0	0	8180	631666	0	0
2024-06-21 20:45:32			0	36075	0	0	0	25436	24050	144681	27166	1017797	42566	109408	0	0	8180	631994	0	0
2024-06-21 20:46:32			0	36070	0	0	0	25441	24060	144729	27291	1017895	42568	109410	0	0	8180	632172	0	0
2024-06-21 20:47:32			0	36069	0	0	0	25433	24040	144785	26984	1017860	42588	109407	0	0	8180	632287	0	0
2024-06-21 20:48:32			0	36073	0	0	0	25433	24050	144817	27088	1017815	42566	109407	0	0	8180	632079	0	0
2024-06-21 20:49:32			0	36043	0	0	0	25436	24050	144905	27196	1017789	42566	109408	0	0	8178	633365	0	0
2024-06-21 20:50:32			0	36044	0	0	0	25428	24030	144817	27017	1017771	42576	109405	0	0	8179	633394	0	0
2024-06-21 20:51:32			0	36034	0	0	0	25425	24030	144841	27069	1017843	42564	109404	0	0	8178	633823	0	0
2024-06-21 20:52:32			0	36047	0	0	0	25415	24030	144949	27039	1017789	42575	109400	0	0	8179	633265	0	0
2024-06-21 20:53:32			0	36003	0	0	0	25433	24040	144929	27199	1017753	42566	109407	0	0	8176	635118	0	0
2024-06-21 20:54:32			0	36004	0	0	0	25433	24030	144897	27249	1017816	42564	109407	0	0	8176	635111	0	0
2024-06-21 20:55:32			0	36019	0	0	0	25431	24020	144965	26885	1017808	42586	109406	0	0	8177	634502	0	0
2024-06-21 20:56:32			0	35986	0	0	0	25431	24030	145005	27176	1017852	42576	109406	0	0	8175	635885	0	0
2024-06-21 20:57:32			0	35967	0	0	0	25438	24030	145057	27066	1017870	42575	109409	0	0	8174	636703	0	0
2024-06-21 20:58:32			0	35979	0	0	0	25444	24030	145153	27170	1017852	42576	109411	0	0	8175	636186	0	0
2024-06-21 20:59:32			0	35971	0	0	0	25454	24050	145089	27557	1017842	42588	109415	0	0	8174	636459	0	0
2024-06-21 21:00:32			0	35975	0	0	0	25446	24050	145081	27147	1017869	42588	109412	0	0	8175	636287	0	0
2024-06-21 21:01:32			0	35955	0	0	0	25446	24040	145185	27171	1017914	42577	109412	0	0	8174	637183	0	0
2024-06-21 21:02:32			0	35945	0	0	0	25451	24030	145137	27450	1017852	42587	109414	0	0	8173	637650	0	0
2024-06-21 21:03:32			0	35953	0	0	0	25446	24040	145213	27154	1017833	42588	109412	0	0	8173	637270	0	0
2024-06-21 21:04:32			0	35931	0	0	0	25451	24040	145289	27270	1017833	42577	109414	0	0	8172	638218	0	0
2024-06-21 21:05:32			0	35921	0	0	0	25441	24030	145225	27429	1017771	42576	109410	0	0	8172	638685	0	0
2024-06-21 21:06:32			0	35923	0	0	0	25433	24030	145217	27441	1017745	42576	109407	0	0	8172	638599	0	0
2024-06-21 21:07:32			0	35910	0	0	0	25433	24030	145273	27204	1017763	42564	109407	0	0	8171	639160	0	0
2024-06-21 21:08:32			0	35913	0	0	0	25425	24030	145265	27026	1017816	42597	109404	0	0	8172	639030	0	0
2024-06-21 21:09:32			0	35901	0	0	0	25425	24020	145281	27519	1017772	42574	109404	0	0	8171	639585	0	0
2024-06-21 21:10:32			0	35907	0	0	0	25423	24020	145393	27246	1017781	42575	109403	0	0	8171	639325	0	0
2024-06-21 21:11:32			0	35919	0	0	0	25428	24030	145337	27234	1017789	42575	109405	0	0	8172	638772	0	0
2024-06-21 21:12:32			0	35889	0	0	0	25436	24020	145469	27306	1017754	42564	109408	0	0	8170	640103	0	0
2024-06-21 21:13:32			0	35904	0	0	0	25436	24020	145405	27632	1017799	42574	109408	0	0	8171	639455	0	0
2024-06-21 21:14:32			0	35876	0	0	0	25420	24020	145357	27060	1017799	42585	109402	0	0	8170	640665	0	0
2024-06-21 21:15:32			0	35864	0	0	0	25423	24020	145441	27267	1017727	42575	109403	0	0	8169	641184	0	0
2024-06-21 21:16:32			0	35860	0	0	0	25423	24020	145516	27376	1017772	42574	109403	0	0	8169	641357	0	0
2024-06-21 21:17:32			0	35901	0	0	0	25431	24020	145465	27492	1017692	42585	109406	0	0	8171	639585	0	0
2024-06-21 21:18:32			0	35865	0	0	0	25423	24020	145477	27244	1017701	42575	109403	0	0	8169	641141	0	0
2024-06-21 21:19:32			0	35878	0	0	0	25436	24030	145521	26974	1017816	42575	109408	0	0	8170	640542	0	0
2024-06-21 21:20:32			0	35859	0	0	0	25436	24030	145488	26788	1017896	42597	109408	0	0	8169	641364	0	0
2024-06-21 21:21:32			0	35849	0	0	0	25459	24050	145508	26994	1017976	42599	109417	0	0	8168	641725	0	0
2024-06-21 21:22:32			0	35861	0	0	0	25475	24060	145497	27114	1018020	42578	109423	0	0	8168	641169	0	0
2024-06-21 21:23:32			0	35864	0	0	0	25483	24080	145537	27069	1018028	42590	109426	0	0	8168	640967	0	0
2024-06-21 21:24:32			0	35838	0	0	0	25483	24070	145544	27445	1018037	42579	109426	0	0	8167	642129	0	0
2024-06-21 21:25:32			0	35830	0	0	0	25488	24070	145492	26986	1018046	42580	109428	0	0	8166	642475	0	0
2024-06-21 21:26:32			0	35837	0	0	0	25485	24070	145496	26892	1018019	42590	109427	0	0	8167	642172	0	0
2024-06-21 21:27:32			0	35833	0	0	0	25493	24070	145596	27293	1018126	42580	109430	0	0	8166	642345	0	0
2024-06-21 21:28:32			0	35810	0	0	0	25496	24080	145608	27232	1018116	42581	109431	0	0	8165	643306	0	0
2024-06-21 21:29:32			0	35824	0	0	0	25501	24080	145596	27121	1018143	42603	109433	0	0	8166	642699	0	0
2024-06-21 21:30:32			0	35809	0	0	0	25509	24090	145620	27239	1018178	42603	109436	0	0	8165	643313	0	0
2024-06-21 21:31:32			0	35814	0	0	0	25519	24090	145672	27242	1018187	42582	109440	0	0	8165	643096	0	0
2024-06-21 21:32:32			0	35820	0	0	0	25516	24110	145624	26961	1018186	42593	109439	0	0	8165	642763	0	0
2024-06-21 21:33:32			0	35820	0	0	0	25532	24110	145496	27142	1018221	42594	109445	0	0	8165	642763	0	0
2024-06-21 21:34:32			0	35799	0	0	0	25540	24120	145624	27093	1018337	42595	109448	0	0	8164	643638	0	0
2024-06-21 21:35:32			0	35805	0	0	0	25537	24130	145644	27100	1018309	42596	109447	0	0	8164	643341	0	0
2024-06-21 21:36:32			0	35814	0	0	0	25545	24130	145684	26993	1018336	42585	109450	0	0	8165	642951	0	0
2024-06-21 21:37:32			0	35815	0	0	0	25542	24140	145648	27045	1018273	42597	109449	0	0	8165	642871	0	0
2024-06-21 21:38:32			0	35804	0	0	0	25537	24130	145604	27064	1018274	42584	109447	0	0	8164	643384	0	0
2024-06-21 21:39:32			0	35812	0	0	0	25540	24140	145636	27355	1018353	42597	109448	0	0	8165	643001	0	0
2024-06-21 21:40:32			0	35798	0	0	0	25548	24130	145688	27398	1018327	42573	109451	0	0	8164	643645	0	0
2024-06-21 21:41:32			0	35790	0	0	0	25566	24150	145616	27161	1018469	42598	109458	0	0	8163	643919	0	0
2024-06-21 21:42:32			0	35806	0	0	0	25602	24170	145616	27145	1018699	42611	109472	0	0	8164	643153	0	0
2024-06-21 21:43:32			0	35818	0	0	0	25657	24200	145644	27562	1018956	42625	109493	0	0	8163	642524	0	0
2024-06-21 21:44:32			0	35791	0	0	0	25714	24220	145568	27206	1019186	42627	109515	0	0	8161	643621	0	0
2024-06-21 21:45:32			0	35797	0	0	0	25766	24250	145588	27483	1019265	42619	109535	0	0	8161	643252	0	0
2024-06-21 21:46:32			0	35788	0	0	0	25797	24300	145592	27185	1019342	42633	109547	0	0	8160	643461	0	0
2024-06-21 21:47:32			0	35780	0	0	0	25815	24310	145644	27147	1019387	42635	109554	0	0	8159	643772	0	0
2024-06-21 21:48:32			0	35773	0	0	0	25812	24340	145592	27256	1019456	42638	109553	0	0	8159	643966	0	0
2024-06-21 21:49:32			0	35763	0	0	0	25820	24340	145640	27360	1019465	42626	109556	0	0	8158	644400	0	0
2024-06-21 21:50:32			0	35782	0	0	0	25836	24370	145692	27020	1019535	42628	109562	0	0	8159	643467	0	0
2024-06-21 21:51:32			0	35783	0	0	0	25859	24370	145640	26948	1019624	42641	109571	0	0	8159	643423	0	0
2024-06-21 21:52:32			0	35763	0	0	0	25872	24390	145588	27306	1019685	42631	109576	0	0	8158	644218	0	0
2024-06-21 21:53:32			0	35775	0	0	0	25896	24410	145604	27258	1019738	42633	109585	0	0	8158	643625	0	0
2024-06-21 21:54:32			0	35772	0	0	0	25909	24420	145532	27331	1019862	42634	109590	0	0	8158	643718	0	0
2024-06-21 21:55:32			0	35779	0	0	0	25935	24450	145672	27294	1019994	42649	109600	0	0	8158	643306	0	0
2024-06-21 21:56:32			0	35758	0	0	0	25950	24460	145612	27045	1019958	42638	109606	0	0	8156	644180	0	0
2024-06-21 21:57:32			0	35779	0	0	0	25953	24460	145496	27060	1020020	42650	109607	0	0	8157	643269	0	0
2024-06-21 21:58:32			0	35787	0	0	0	25961	24470	145500	27346	1020064	42639	109610	0	0	8158	642886	0	0
2024-06-21 21:59:32			0	35803	0	0	0	25963	24480	145380	27301	1020019	42628	109611	0	0	8159	642157	0	0
2024-06-21 22:00:32			0	35835	0	0	0	25968	24490	145308	27024	1020071	42630	109613	0	0	8160	640737	0	0
2024-06-21 22:01:32			0	35884	0	0	0	25953	24490	145077	27445	1020098	42641	109607	0	0	8163	638622	0	0
2024-06-21 22:02:32			0	35960	0	0	0	25948	24510	144849	27343	1020044	42643	109605	0	0	8167	635280	0	0
2024-06-21 22:03:32			0	36035	0	0	0	25927	24500	144529	27339	1019973	42620	109597	0	0	8172	632100	0	0
2024-06-21 22:04:32			0	36110	0	0	0	25896	24490	144245	27152	1019831	42630	109585	0	0	8176	628932	0	0
2024-06-21 22:05:32			0	36191	0	0	0	25864	24470	143929	27315	1019770	42618	109573	0	0	8181	625555	0	0
2024-06-21 22:06:32			0	36246	0	0	0	25838	24470	143705	27381	1019796	42628	109563	0	0	8184	623221	0	0
2024-06-21 22:07:32			0	36319	0	0	0	25851	24470	143481	27391	1019876	42651	109568	0	0	8188	620133	0	0
2024-06-21 22:08:32			0	36370	0	0	0	25877	24470	143321	27045	1019903	42628	109578	0	0	8190	617982	0	0
2024-06-21 22:09:32			0	36395	0	0	0	25890	24490	143089	27133	1020036	42653	109583	0	0	8191	616860	0	0
2024-06-21 22:10:32			0	36440	0	0	0	25909	24490	142977	27039	1020071	42653	109590	0	0	8193	614969	0	0
2024-06-21 22:11:32			0	36469	0	0	0	25929	24500	142841	27242	1020053	42630	109598	0	0	8195	613717	0	0
2024-06-21 22:12:32			0	36524	0	0	0	25940	24510	142669	27071	1020133	42654	109602	0	0	8197	611380	0	0
2024-06-21 22:13:32			0	36570	0	0	0	25955	24510	142573	27235	1020159	42654	109608	0	0	8199	609459	0	0
2024-06-21 22:14:32			0	36603	0	0	0	25948	24510	142398	27189	1020133	42643	109605	0	0	8201	608083	0	0
2024-06-21 22:15:32			0	36618	0	0	0	25940	24520	142290	26923	1020123	42644	109602	0	0	8202	607424	0	0
2024-06-21 22:16:32			0	36667	0	0	0	25950	24520	142226	27327	1020177	42633	109606	0	0	8205	605387	0	0
2024-06-21 22:17:32			0	36671	0	0	0	25950	24530	142082	27246	1020221	42646	109606	0	0	8205	605187	0	0
2024-06-21 22:18:32			0	36706	0	0	0	25961	24540	141922	27150	1020256	42646	109610	0	0	8207	603701	0	0
2024-06-21 22:19:32			0	36710	0	0	0	25976	24540	141826	27052	1020256	42657	109616	0	0	8207	603535	0	0
2024-06-21 22:20:32			0	36760	0	0	0	25971	24550	141662	27445	1020273	42647	109614	0	0	8209	601432	0	0
2024-06-21 22:21:32			0	36795	0	0	0	25981	24560	141510	27289	1020344	42659	109618	0	0	8211	599952	0	0
2024-06-21 22:22:32			0	36796	0	0	0	25992	24560	141606	27256	1020353	42636	109622	0	0	8211	599910	0	0
2024-06-21 22:23:32			0	36793	0	0	0	25989	24570	141478	27130	1020361	42637	109621	0	0	8211	600000	0	0
2024-06-21 22:24:32			0	36814	0	0	0	25997	24570	141438	27152	1020388	42649	109624	0	0	8212	599134	0	0
2024-06-21 22:25:32			0	36818	0	0	0	25994	24570	141514	27293	1020343	42638	109623	0	0	8212	598969	0	0
2024-06-21 22:26:32			0	36805	0	0	0	25997	24570	141486	27093	1020335	42649	109624	0	0	8211	599505	0	0
2024-06-21 22:27:32			0	36816	0	0	0	25997	24570	141438	27097	1020317	42661	109624	0	0	8212	599052	0	0
2024-06-21 22:28:32			0	36800	0	0	0	25997	24580	141446	27256	1020352	42650	109624	0	0	8211	599678	0	0
2024-06-21 22:29:32			0	36817	0	0	0	25984	24580	141534	27312	1020379	42638	109619	0	0	8212	598977	0	0
2024-06-21 22:30:32			0	36805	0	0	0	25968	24570	141566	27211	1020281	42637	109613	0	0	8212	599505	0	0
2024-06-21 22:31:32			0	36791	0	0	0	25981	24560	141510	26996	1020273	42625	109618	0	0	8211	600117	0	0
2024-06-21 22:32:32			0	36812	0	0	0	25971	24560	141494	27343	1020264	42648	109614	0	0	8212	599250	0	0
2024-06-21 22:33:32			0	36786	0	0	0	25963	24570	141582	27159	1020228	42649	109611	0	0	8211	600289	0	0
2024-06-21 22:34:32			0	36776	0	0	0	25971	24560	141598	27417	1020237	42636	109614	0	0	8210	600736	0	0
2024-06-21 22:35:32			0	36786	0	0	0	25961	24560	141554	27227	1020273	42625	109610	0	0	8211	600323	0	0
2024-06-21 22:36:32			0	36769	0	0	0	25948	24560	141726	27161	1020237	42636	109605	0	0	8210	601025	0	0
2024-06-21 22:37:32			0	36756	0	0	0	25953	24550	141666	27235	1020202	42648	109607	0	0	8209	601597	0	0
2024-06-21 22:38:32			0	36762	0	0	0	25935	24540	141682	27400	1020104	42646	109600	0	0	8210	601383	0	0
2024-06-21 22:39:32			0	36769	0	0	0	25890	24540	141722	27345	1019962	42613	109583	0	0	8211	601093	0	0
2024-06-21 22:40:32			0	36762	0	0	0	25849	24500	141754	27017	1019661	42598	109567	0	0	8211	601519	0	0
2024-06-21 22:41:32			0	36723	0	0	0	25792	24470	141774	27336	1019449	42595	109545	0	0	8210	603235	0	0
2024-06-21 22:42:32			0	36728	0	0	0	25745	24440	141910	27216	1019308	42581	109527	0	0	8211	603130	0	0
2024-06-21 22:43:32			0	36732	0	0	0	25693	24390	141842	27157	1019097	42587	109507	0	0	8212	603135	0	0
2024-06-21 22:44:32			0	36737	0	0	0	25667	24370	141858	27133	1019116	42608	109497	0	0	8212	602996	0	0
2024-06-21 22:45:32			0	36719	0	0	0	25685	24370	141890	26946	1019356	42629	109504	0	0	8211	603742	0	0
2024-06-21 22:46:32			0	36717	0	0	0	25745	24390	142050	27383	1019543	42642	109527	0	0	8210	603757	0	0
2024-06-21 22:47:32			0	36707	0	0	0	25784	24410	141938	27218	1019604	42656	109542	0	0	8209	604103	0	0
2024-06-21 22:48:32			0	36695	0	0	0	25786	24410	142046	27239	1019479	42633	109543	0	0	8208	604601	0	0
2024-06-21 22:49:32			0	36691	0	0	0	25750	24390	141990	27300	1019337	42598	109529	0	0	8209	604835	0	0
2024-06-21 22:50:32			0	36713	0	0	0	25724	24370	142110	27150	1019276	42596	109519	0	0	8210	603991	0	0
2024-06-21 22:51:32			0	36703	0	0	0	25701	24360	142062	27621	1019152	42618	109510	0	0	8210	604440	0	0
2024-06-21 22:52:32			0	36717	0	0	0	25677	24340	141978	27588	1019117	42605	109501	0	0	8211	603927	0	0
2024-06-21 22:53:32			0	36724	0	0	0	25654	24320	141874	27194	1018887	42592	109492	0	0	8212	603705	0	0
2024-06-21 22:54:32			0	36720	0	0	0	25612	24300	141934	27327	1018754	42589	109476	0	0	8212	603939	0	0
2024-06-21 22:55:32			0	36735	0	0	0	25586	24270	141894	27469	1018631	42577	109466	0	0	8213	603420	0	0
2024-06-21 22:56:32			0	36744	0	0	0	25553	24250	141798	27376	1018534	42575	109453	0	0	8214	603115	0	0
2024-06-21 22:57:32			0	36764	0	0	0	25545	24210	141818	27092	1018474	42582	109450	0	0	8215	602422	0	0
2024-06-21 22:58:32			0	36785	0	0	0	25516	24200	141746	27130	1018376	42592	109439	0	0	8217	601587	0	0
2024-06-21 22:59:32			0	36773	0	0	0	25501	24190	141794	27485	1018351	42568	109433	0	0	8216	602118	0	0
2024-06-21 23:00:32			0	36790	0	0	0	25475	24180	141658	27197	1018226	42589	109423	0	0	8218	601448	0	0
2024-06-21 23:01:32			0	36811	0	0	0	25464	24150	141678	27253	1018201	42565	109419	0	0	8219	600681	0	0
2024-06-21 23:02:32			0	36828	0	0	0	25449	24140	141650	27364	1018113	42575	109413	0	0	8220	600013	0	0
2024-06-21 23:03:32			0	36842	0	0	0	25454	24120	141718	27001	1018078	42606	109415	0	0	8221	599503	0	0
2024-06-21 23:04:32			0	36819	0	0	0	25472	24130	141570	27060	1018274	42606	109422	0	0	8219	600419	0	0
2024-06-21 23:05:32			0	36856	0	0	0	25576	24150	141622	27209	1018656	42631	109462	0	0	8219	598823	0	0
2024-06-21 23:06:32			0	36851	0	0	0	25607	24170	141626	27100	1018485	42622	109474	0	0	8219	598962	0	0
2024-06-21 23:07:32			0	36854	0	0	0	25576	24180	141454	27341	1018333	42589	109462	0	0	8219	598804	0	0
2024-06-21 23:08:32			0	36847	0	0	0	25540	24150	141570	27331	1018308	42598	109448	0	0	8219	599195	0	0
2024-06-21 23:09:32			0	36861	0	0	0	25524	24140	141458	27260	1018380	42597	109442	0	0	8220	598651	0	0
2024-06-21 23:10:32			0	36873	0	0	0	25553	24150	141534	26996	1018415	42620	109453	0	0	8221	598122	0	0
2024-06-21 23:11:32			0	36886	0	0	0	25553	24160	141474	27338	1018414	42610	109453	0	0	8221	597553	0	0
2024-06-21 23:12:32			0	36885	0	0	0	25542	24150	141474	27161	1018477	42598	109449	0	0	8221	597628	0	0
2024-06-21 23:13:32			0	36894	0	0	0	25548	24150	141454	27222	1018451	42609	109451	0	0	8222	597257	0	0
2024-06-21 23:14:32			0	36899	0	0	0	25555	24160	141402	27353	1018379	42599	109454	0	0	8222	597018	0	0
2024-06-21 23:15:32			0	36893	0	0	0	25542	24150	141406	27201	1018344	42598	109449	0	0	8222	597298	0	0
2024-06-21 23:16:32			0	36904	0	0	0	25540	24160	141330	27428	1018352	42566	109448	0	0	8222	596812	0	0
2024-06-21 23:17:32			0	36894	0	0	0	25522	24140	141334	26986	1018318	42585	109441	0	0	8222	597291	0	0
2024-06-21 23:18:32			0	36917	0	0	0	25527	24130	141338	27261	1018309	42596	109443	0	0	8223	596378	0	0
2024-06-21 23:19:32			0	36901	0	0	0	25540	24140	141254	27296	1018345	42619	109448	0	0	8222	597003	0	0
2024-06-21 23:20:32			0	36926	0	0	0	25540	24150	141318	27154	1018362	42609	109448	0	0	8224	595941	0	0
2024-06-21 23:21:32			0	36923	0	0	0	25548	24150	141374	27194	1018344	42576	109451	0	0	8223	596064	0	0
2024-06-21 23:22:32			0	36901	0	0	0	25550	24140	141290	26948	1018318	42597	109452	0	0	8222	597003	0	0
2024-06-21 23:23:32			0	36917	0	0	0	25553	24150	141366	27092	1018415	42598	109453	0	0	8223	596311	0	0
2024-06-21 23:24:32			0	36892	0	0	0	25542	24140	141458	27185	1018371	42608	109449	0	0	8222	597373	0	0
2024-06-21 23:25:32			0	36885	0	0	0	25558	24150	141518	27410	1018389	42609	109455	0	0	8221	597628	0	0
2024-06-21 23:26:32			0	36886	0	0	0	25592	24170	141474	27504	1018565	42622	109468	0	0	8221	597519	0	0
2024-06-21 23:27:32			0	36861	0	0	0	25610	24170	141514	26982	1018637	42611	109475	0	0	8219	598549	0	0
2024-06-21 23:28:32			0	36840	0	0	0	25641	24180	141478	27277	1018743	42634	109487	0	0	8218	599382	0	0
2024-06-21 23:29:32			0	36842	0	0	0	25654	24200	141606	27339	1018796	42625	109492	0	0	8217	599232	0	0
2024-06-21 23:30:32			0	36821	0	0	0	25659	24210	141678	27294	1018840	42615	109494	0	0	8216	600065	0	0
2024-06-21 23:31:32			0	36813	0	0	0	25675	24220	141742	27104	1018865	42605	109500	0	0	8216	600362	0	0
2024-06-21 23:32:32			0	36793	0	0	0	25680	24210	141746	27020	1018821	42625	109502	0	0	8215	601222	0	0
2024-06-21 23:33:32			0	36795	0	0	0	25688	24230	141782	27421	1018981	42616	109505	0	0	8215	601072	0	0
2024-06-21 23:34:32			0	36770	0	0	0	25722	24250	141838	27229	1019015	42619	109518	0	0	8213	602038	0	0
2024-06-21 23:35:32			0	36759	0	0	0	25745	24260	141914	27180	1019148	42630	109527	0	0	8212	602459	0	0
2024-06-21 23:36:32			0	36737	0	0	0	25763	24280	142010	27232	1019236	42632	109534	0	0	8210	603303	0	0
2024-06-21 23:37:32			0	36727	0	0	0	25797	24300	142062	26814	1019316	42644	109547	0	0	8209	603649	0	0
2024-06-21 23:38:32			0	36718	0	0	0	25815	24320	142086	27331	1019377	42625	109554	0	0	8209	603954	0	0
2024-06-21 23:39:32			0	36678	0	0	0	25823	24330	142250	27310	1019421	42626	109557	0	0	8207	605580	0	0
2024-06-21 23:40:32			0	36643	0	0	0	25825	24350	142218	27301	1019456	42639	109558	0	0	8205	606967	0	0
2024-06-21 23:41:32			0	36644	0	0	0	25836	24350	142326	27435	1019447	42638	109562	0	0	8205	606926	0	0
2024-06-21 23:42:32			0	36619	0	0	0	25836	24360	142342	27531	1019491	42640	109562	0	0	8203	607932	0	0
2024-06-21 23:43:32			0	36585	0	0	0	25838	24370	142522	27133	1019481	42640	109563	0	0	8202	609316	0	0
2024-06-21 23:44:32			0	36550	0	0	0	25841	24380	142657	27308	1019525	42630	109564	0	0	8200	610743	0	0
2024-06-21 23:45:32			0	36491	0	0	0	25846	24370	142865	27123	1019543	42641	109566	0	0	8197	613246	0	0
2024-06-21 23:46:32			0	36418	0	0	0	25849	24390	143205	27282	1019712	42621	109567	0	0	8193	616241	0	0
2024-06-21 23:47:32			0	36355	0	0	0	25857	24390	143277	27059	1019658	42642	109570	0	0	8189	618894	0	0
2024-06-21 23:48:32			0	36301	0	0	0	25870	24400	143585	27286	1019675	42644	109575	0	0	8186	621140	0	0
2024-06-21 23:49:32			0	36223	0	0	0	25877	24430	143733	26870	1019692	42635	109578	0	0	8182	624338	0	0
2024-06-21 23:50:32			0	36212	0	0	0	25880	24430	143933	26972	1019807	42635	109579	0	0	8182	624804	0	0
2024-06-21 23:51:32			0	36169	0	0	0	25883	24430	144057	27175	1019834	42646	109580	0	0	8179	626632	0	0
2024-06-21 23:52:32			0	36144	0	0	0	25893	24450	144165	27206	1019887	42649	109584	0	0	8178	627625	0	0
2024-06-21 23:53:32			0	36133	0	0	0	25898	24440	144217	27024	1019878	42648	109586	0	0	8177	628129	0	0
2024-06-21 23:54:32			0	36102	0	0	0	25909	24450	144309	27150	1019896	42649	109590	0	0	8175	629415	0	0
2024-06-21 23:55:32			0	36112	0	0	0	25914	24470	144333	27005	1019921	42651	109592	0	0	8176	628918	0	0
2024-06-21 23:56:32			0	36093	0	0	0	25919	24470	144317	27000	1019975	42651	109594	0	0	8175	629728	0	0
2024-06-21 23:57:32			0	36095	0	0	0	25929	24480	144357	27322	1020001	42640	109598	0	0	8175	629607	0	0
2024-06-21 23:58:32			0	36085	0	0	0	25932	24480	144381	27182	1020046	42662	109599	0	0	8174	630034	0	0
2024-06-21 23:59:32			0	36091	0	0	0	25945	24480	144337	26986	1020054	42640	109604	0	0	8174	629778	0	0
2024-06-22 00:00:32			0	36100	0	0	0	25932	24500	144277	27189	1020089	42642	109599	0	0	8175	629323	0	0
2024-06-22 00:01:32			0	36088	0	0	0	25929	24490	144273	27345	1020098	42641	109598	0	0	8174	629870	0	0
2024-06-22 00:02:32			0	36080	0	0	0	25927	24490	144181	27267	1020071	42664	109597	0	0	8174	630212	0	0
2024-06-22 00:03:32			0	36099	0	0	0	25932	24500	144289	27542	1020062	42665	109599	0	0	8175	629365	0	0
2024-06-22 00:04:32			0	36095	0	0	0	25945	24510	144253	27015	1020097	42643	109604	0	0	8175	629501	0	0
2024-06-22 00:05:32			0	36111	0	0	0	25942	24500	144233	27112	1020062	42654	109603	0	0	8175	628854	0	0
2024-06-22 00:06:32			0	36114	0	0	0	25948	24500	144189	27222	1020142	42654	109605	0	0	8176	628726	0	0
2024-06-22 00:07:32			0	36121	0	0	0	25955	24510	144089	27478	1020186	42654	109608	0	0	8176	628392	0	0
2024-06-22 00:08:32			0	36121	0	0	0	25955	24530	144057	27248	1020194	42668	109608	0	0	8176	628321	0	0
2024-06-22 00:09:32			0	36143	0	0	0	25966	24530	144125	27111	1020239	42656	109612	0	0	8177	627384	0	0
2024-06-22 00:10:32			0	36134	0	0	0	25966	24540	144045	27384	1020291	42668	109612	0	0	8176	627731	0	0
2024-06-22 00:11:32			0	36157	0	0	0	25979	24540	144009	27376	1020318	42646	109617	0	0	8177	626752	0	0
2024-06-22 00:12:32			0	36173	0	0	0	25971	24540	144013	27537	1020336	42646	109614	0	0	8178	626072	0	0
2024-06-22 00:13:32			0	36164	0	0	0	25968	24540	143881	27183	1020265	42657	109613	0	0	8178	626455	0	0
2024-06-22 00:14:32			0	36186	0	0	0	25961	24550	143901	27564	1020246	42658	109610	0	0	8179	625484	0	0
2024-06-22 00:15:32			0	36193	0	0	0	25961	24530	143897	27111	1020221	42657	109610	0	0	8180	625258	0	0
2024-06-22 00:16:32			0	36218	0	0	0	25953	24550	143829	27280	1020228	42669	109607	0	0	8181	624126	0	0
2024-06-22 00:17:32			0	36209	0	0	0	25961	24540	143661	27343	1020265	42657	109610	0	0	8180	624543	0	0
2024-06-22 00:18:32			0	36237	0	0	0	25958	24540	143673	26991	1020345	42657	109609	0	0	8182	623356	0	0
2024-06-22 00:19:32			0	36251	0	0	0	25958	24550	143633	27161	1020273	42658	109609	0	0	8183	622728	0	0
2024-06-22 00:20:32			0	36242	0	0	0	25950	24530	143621	27168	1020221	42646	109606	0	0	8182	623179	0	0
2024-06-22 00:21:32			0	36260	0	0	0	25961	24540	143597	26864	1020256	42657	109610	0	0	8183	622382	0	0
2024-06-22 00:22:32			0	36250	0	0	0	25963	24550	143545	27017	1020282	42681	109611	0	0	8183	622770	0	0
2024-06-22 00:23:32			0	36250	0	0	0	25958	24550	143537	27161	1020228	42648	109609	0	0	8183	622770	0	0
2024-06-22 00:24:32			0	36265	0	0	0	25955	24560	143533	27351	1020273	42648	109608	0	0	8184	622100	0	0
2024-06-22 00:25:32			0	36250	0	0	0	25963	24550	143609	27381	1020273	42647	109611	0	0	8183	622770	0	0
2024-06-22 00:26:32			0	36240	0	0	0	25953	24550	143681	27194	1020327	42647	109607	0	0	8182	623194	0	0
2024-06-22 00:27:32			0	36243	0	0	0	25950	24550	143581	27281	1020255	42659	109606	0	0	8183	623066	0	0
2024-06-22 00:28:32			0	36236	0	0	0	25955	24540	143665	27154	1020265	42646	109608	0	0	8182	623398	0	0
2024-06-22 00:29:32			0	36212	0	0	0	25945	24540	143729	27391	1020265	42657	109604	0	0	8181	624416	0	0
2024-06-22 00:30:32			0	36199	0	0	0	25945	24540	143725	27374	1020265	42646	109604	0	0	8180	624968	0	0
2024-06-22 00:31:32			0	36201	0	0	0	25935	24540	143861	27516	1020211	42646	109600	0	0	8180	624883	0	0
2024-06-22 00:32:32			0	36166	0	0	0	25932	24540	143873	27225	1020202	42646	109599	0	0	8179	626370	0	0
2024-06-22 00:33:32			0	36178	0	0	0	25929	24530	143849	27376	1020132	42645	109598	0	0	8179	625895	0	0
2024-06-22 00:34:32			0	36160	0	0	0	25932	24530	143977	27552	1020167	42646	109599	0	0	8178	626660	0	0
2024-06-22 00:35:32			0	36155	0	0	0	25927	24530	143893	27393	1020140	42657	109597	0	0	8178	626873	0	0
2024-06-22 00:36:32			0	36146	0	0	0	25924	24530	143909	27552	1020221	42635	109596	0	0	8178	627256	0	0
2024-06-22 00:37:32			0	36145	0	0	0	25935	24530	143973	27131	1020247	42657	109600	0	0	8177	627299	0	0
2024-06-22 00:38:32			0	36143	0	0	0	25932	24530	144041	27402	1020185	42667	109599	0	0	8177	627384	0	0
2024-06-22 00:39:32			0	36143	0	0	0	25935	24540	143977	26961	1020202	42646	109600	0	0	8177	627348	0	0
2024-06-22 00:40:32			0	36141	0	0	0	25932	24530	143985	27102	1020221	42646	109599	0	0	8177	627469	0	0
2024-06-22 00:41:32			0	36143	0	0	0	25940	24520	144005	27204	1020177	42655	109602	0	0	8177	627419	0	0
2024-06-22 00:42:32			0	36132	0	0	0	25942	24530	144049	27429	1020194	42635	109603	0	0	8177	627852	0	0
2024-06-22 00:43:32			0	36130	0	0	0	25924	24540	144029	27324	1020158	42657	109596	0	0	8177	627902	0	0
2024-06-22 00:44:32			0	36144	0	0	0	25929	24520	144077	27033	1020177	42633	109598	0	0	8177	627377	0	0
2024-06-22 00:45:32			0	36115	0	0	0	25922	24520	144077	27265	1020150	42644	109595	0	0	8176	628612	0	0
2024-06-22 00:46:32			0	36118	0	0	0	25932	24540	144093	27170	1020149	42646	109599	0	0	8176	628413	0	0
2024-06-22 00:47:32			0	36125	0	0	0	25924	24530	144085	27196	1020132	42634	109596	0	0	8177	628150	0	0
2024-06-22 00:48:32			0	36105	0	0	0	25901	24520	144249	27121	1020177	42655	109587	0	0	8176	629038	0	0
2024-06-22 00:49:32			0	36089	0	0	0	25898	24520	144133	27135	1020070	42644	109586	0	0	8175	629721	0	0
2024-06-22 00:50:32			0	36085	0	0	0	25883	24520	144309	27105	1020007	42644	109580	0	0	8175	629892	0	0
2024-06-22 00:51:32			0	36066	0	0	0	25846	24510	144313	27081	1019945	42632	109566	0	0	8175	630739	0	0
2024-06-22 00:52:32			0	36047	0	0	0	25851	24500	144429	26987	1019946	42630	109568	0	0	8174	631587	0	0
2024-06-22 00:53:32			0	36050	0	0	0	25851	24490	144369	27261	1019956	42641	109568	0	0	8174	631494	0	0
2024-06-22 00:54:32			0	36038	0	0	0	25862	24490	144441	26972	1019964	42674	109572	0	0	8173	632008	0	0
2024-06-22 00:55:32			0	36023	0	0	0	25867	24500	144413	27336	1019973	42641	109574	0	0	8172	632614	0	0
2024-06-22 00:56:32			0	36028	0	0	0	25885	24490	144469	27152	1020036	42641	109581	0	0	8172	632436	0	0
2024-06-22 00:57:32			0	36056	0	0	0	25893	24500	144433	27090	1020027	42653	109584	0	0	8173	631202	0	0
2024-06-22 00:58:32			0	36066	0	0	0	25896	24500	144469	27218	1020053	42664	109585	0	0	8174	630774	0	0
2024-06-22 00:59:32			0	36053	0	0	0	25893	24500	144385	27034	1020027	42641	109584	0	0	8173	631330	0	0
2024-06-22 01:00:32			0	36061	0	0	0	25893	24500	144373	27355	1020080	42653	109584	0	0	8174	630988	0	0
2024-06-22 01:01:32			0	36077	0	0	0	25890	24490	144333	27537	1020018	42653	109583	0	0	8174	630340	0	0
2024-06-22 01:02:32			0	36078	0	0	0	25888	24490	144305	27104	1020009	42641	109582	0	0	8175	630298	0	0
2024-06-22 01:03:32			0	36067	0	0	0	25885	24490	144309	27260	1020009	42641	109581	0	0	8174	630767	0	0
2024-06-22 01:04:32			0	36064	0	0	0	25877	24490	144281	27322	1019964	42630	109578	0	0	8174	630896	0	0
2024-06-22 01:05:32			0	36087	0	0	0	25870	24490	144329	27107	1019964	42653	109575	0	0	8175	629913	0	0
2024-06-22 01:06:32			0	36083	0	0	0	25883	24500	144301	27008	1019946	42641	109580	0	0	8175	630048	0	0
2024-06-22 01:07:32			0	36076	0	0	0	25888	24490	144293	27478	1020009	42630	109582	0	0	8174	630383	0	0
2024-06-22 01:08:32			0	36078	0	0	0	25885	24480	144153	27150	1019974	42663	109581	0	0	8175	630333	0	0
2024-06-22 01:09:32			0	36100	0	0	0	25877	24490	144189	27320	1019983	42630	109578	0	0	8176	629358	0	0
2024-06-22 01:10:32			0	36114	0	0	0	25877	24490	144205	27341	1019902	42653	109578	0	0	8177	628761	0	0
2024-06-22 01:11:32			0	36124	0	0	0	25875	24480	144125	27093	1019939	42639	109577	0	0	8177	628370	0	0
2024-06-22 01:12:32			0	36128	0	0	0	25880	24480	144113	27211	1019920	42652	109579	0	0	8177	628200	0	0
2024-06-22 01:13:32			0	36136	0	0	0	25885	24470	144149	27159	1019930	42639	109581	0	0	8178	627895	0	0
2024-06-22 01:14:32			0	36147	0	0	0	25877	24480	144133	27286	1019920	42640	109578	0	0	8178	627391	0	0
2024-06-22 01:15:32			0	36132	0	0	0	25872	24480	144181	27398	1019939	42651	109576	0	0	8178	628030	0	0
2024-06-22 01:16:32			0	36138	0	0	0	25883	24480	144009	27412	1019974	42652	109580	0	0	8178	627774	0	0
2024-06-22 01:17:32			0	36119	0	0	0	25898	24490	144093	27369	1019956	42653	109586	0	0	8177	628548	0	0
2024-06-22 01:18:32			0	36161	0	0	0	25903	24490	144053	27144	1019983	42653	109588	0	0	8179	626760	0	0
2024-06-22 01:19:32			0	36164	0	0	0	25901	24490	144049	27395	1020009	42664	109587	0	0	8179	626632	0	0
2024-06-22 01:20:32			0	36151	0	0	0	25909	24500	144029	27095	1020115	42642	109590	0	0	8178	627150	0	0
2024-06-22 01:21:32			0	36170	0	0	0	25896	24490	143953	27348	1020018	42641	109585	0	0	8179	626377	0	0
2024-06-22 01:22:32			0	36149	0	0	0	25890	24490	143981	27499	1019983	42641	109583	0	0	8178	627270	0	0
2024-06-22 01:23:32			0	36165	0	0	0	25893	24490	143933	27232	1020009	42653	109584	0	0	8179	626589	0	0
2024-06-22 01:24:32			0	36174	0	0	0	25893	24490	143925	27244	1020018	42653	109584	0	0	8180	626207	0	0
2024-06-22 01:25:32			0	36174	0	0	0	25903	24490	144001	27403	1020036	42653	109588	0	0	8179	626207	0	0
2024-06-22 01:26:32			0	36169	0	0	0	25906	24500	143977	26989	1020000	42630	109589	0	0	8179	626384	0	0
2024-06-22 01:27:32			0	36160	0	0	0	25901	24500	144037	27409	1020053	42653	109587	0	0	8179	626767	0	0
2024-06-22 01:28:32			0	36168	0	0	0	25903	24490	143901	27100	1019964	42641	109588	0	0	8179	626462	0	0
2024-06-22 01:29:32			0	36184	0	0	0	25896	24480	143933	27119	1019974	42652	109585	0	0	8180	625817	0	0
2024-06-22 01:30:32			0	36162	0	0	0	25885	24490	143925	27351	1020036	42653	109581	0	0	8179	626717	0	0
2024-06-22 01:31:32			0	36180	0	0	0	25890	24490	143885	27168	1019983	42641	109583	0	0	8180	625952	0	0
2024-06-22 01:32:32			0	36174	0	0	0	25888	24500	143993	27144	1020000	42641	109582	0	0	8180	626171	0	0
2024-06-22 01:33:32			0	36155	0	0	0	25890	24490	144097	27161	1019991	42653	109583	0	0	8179	627015	0	0
2024-06-22 01:34:32			0	36146	0	0	0	25888	24490	144121	27355	1019956	42641	109582	0	0	8178	627398	0	0
2024-06-22 01:35:32			0	36156	0	0	0	25885	24490	143961	27371	1020018	42641	109581	0	0	8179	626972	0	0
2024-06-22 01:36:32			0	36129	0	0	0	25885	24490	144069	27036	1020071	42653	109581	0	0	8177	628122	0	0
2024-06-22 01:37:32			0	36138	0	0	0	25885	24500	144085	27248	1019973	42641	109581	0	0	8178	627703	0	0
2024-06-22 01:38:32			0	36118	0	0	0	25888	24490	144101	27270	1020045	42641	109582	0	0	8177	628591	0	0
2024-06-22 01:39:32			0	36103	0	0	0	25890	24490	144129	27400	1020009	42630	109583	0	0	8176	629230	0	0
2024-06-22 01:40:32			0	36099	0	0	0	25885	24490	144217	27078	1020036	42653	109581	0	0	8176	629401	0	0
2024-06-22 01:41:32			0	36075	0	0	0	25883	24490	144301	27159	1019983	42641	109580	0	0	8174	630426	0	0
2024-06-22 01:42:32			0	36056	0	0	0	25885	24490	144289	27176	1019983	42653	109581	0	0	8173	631238	0	0
2024-06-22 01:43:32			0	36042	0	0	0	25888	24480	144365	27105	1019974	42640	109582	0	0	8173	631872	0	0
2024-06-22 01:44:32			0	36045	0	0	0	25885	24490	144433	26982	1019991	42653	109581	0	0	8173	631708	0	0
2024-06-22 01:45:32			0	36020	0	0	0	25877	24490	144457	27064	1020009	42653	109578	0	0	8172	632778	0	0
2024-06-22 01:46:32			0	36012	0	0	0	25883	24490	144489	26991	1019929	42664	109580	0	0	8171	633121	0	0
2024-06-22 01:47:32			0	36003	0	0	0	25885	24480	144593	27107	1019974	42652	109581	0	0	8171	633543	0	0
2024-06-22 01:48:32			0	35990	0	0	0	25877	24480	144625	27206	1019939	42662	109578	0	0	8170	634100	0	0
2024-06-22 01:49:32			0	35973	0	0	0	25880	24480	144785	27159	1020001	42640	109579	0	0	8169	634829	0	0
2024-06-22 01:50:32			0	35962	0	0	0	25888	24490	144745	27164	1019983	42641	109582	0	0	8168	635266	0	0
2024-06-22 01:51:32			0	35943	0	0	0	25880	24490	144793	27112	1020009	42641	109579	0	0	8168	636082	0	0
2024-06-22 01:52:32			0	35934	0	0	0	25896	24490	144933	26941	1019983	42664	109585	0	0	8167	636469	0	0
2024-06-22 01:53:32			0	35935	0	0	0	25903	24480	144805	27083	1020001	42652	109588	0	0	8167	636462	0	0
2024-06-22 01:54:32			0	35928	0	0	0	25885	24480	144865	27114	1020001	42640	109581	0	0	8167	636763	0	0
2024-06-22 01:55:32			0	35919	0	0	0	25890	24490	144881	27244	1020018	42641	109583	0	0	8166	637115	0	0
2024-06-22 01:56:32			0	35918	0	0	0	25890	24490	144909	26857	1020045	42664	109583	0	0	8166	637158	0	0
2024-06-22 01:57:32			0	35929	0	0	0	25885	24490	144989	27078	1020063	42641	109581	0	0	8167	636684	0	0
2024-06-22 01:58:32			0	35915	0	0	0	25896	24490	144941	27081	1020009	42630	109585	0	0	8166	637287	0	0
2024-06-22 01:59:32			0	35908	0	0	0	25896	24490	144853	27244	1019983	42653	109585	0	0	8165	637588	0	0
2024-06-22 02:00:32			0	35895	0	0	0	25890	24490	144905	27248	1020071	42641	109583	0	0	8165	638148	0	0
2024-06-22 02:01:32			0	35889	0	0	0	25890	24490	145025	27251	1020063	42653	109583	0	0	8165	638407	0	0
2024-06-22 02:02:32			0	35888	0	0	0	25906	24490	145017	27182	1019991	42653	109589	0	0	8164	638450	0	0
2024-06-22 02:03:32			0	35894	0	0	0	25896	24490	145001	26960	1020018	42653	109585	0	0	8165	638191	0	0
2024-06-22 02:04:32			0	35885	0	0	0	25898	24500	145025	27088	1020027	42653	109586	0	0	8164	638543	0	0
2024-06-22 02:05:32			0	35884	0	0	0	25898	24490	145097	26998	1020018	42653	109586	0	0	8164	638622	0	0
2024-06-22 02:06:32			0	35870	0	0	0	25901	24490	145097	27027	1020045	42653	109587	0	0	8163	639226	0	0
2024-06-22 02:07:32			0	35889	0	0	0	25893	24490	145061	27371	1020045	42664	109584	0	0	8164	638407	0	0
2024-06-22 02:08:32			0	35899	0	0	0	25893	24490	145085	27374	1020018	42641	109584	0	0	8165	637976	0	0
2024-06-22 02:09:32			0	35903	0	0	0	25883	24490	144949	27046	1020036	42653	109580	0	0	8165	637803	0	0
2024-06-22 02:10:32			0	35913	0	0	0	25890	24490	144893	27364	1019983	42664	109583	0	0	8166	637373	0	0
2024-06-22 02:11:32			0	35925	0	0	0	25890	24480	144885	27391	1020027	42640	109583	0	0	8166	636892	0	0
2024-06-22 02:12:32			0	35953	0	0	0	25888	24490	144909	27346	1020018	42641	109582	0	0	8168	635652	0	0
2024-06-22 02:13:32			0	35952	0	0	0	25888	24480	144749	27124	1020027	42629	109582	0	0	8168	635731	0	0
2024-06-22 02:14:32			0	35985	0	0	0	25883	24480	144725	27253	1020001	42640	109580	0	0	8170	634314	0	0
2024-06-22 02:15:32			0	35980	0	0	0	25877	24490	144781	27331	1019991	42653	109578	0	0	8170	634493	0	0
2024-06-22 02:16:32			0	36016	0	0	0	25880	24480	144661	27372	1020001	42640	109579	0	0	8171	632985	0	0
2024-06-22 02:17:32			0	36014	0	0	0	25883	24480	144569	26977	1019974	42640	109580	0	0	8171	633071	0	0
2024-06-22 02:18:32			0	36034	0	0	0	25885	24480	144597	27364	1019965	42651	109581	0	0	8172	632214	0	0
2024-06-22 02:19:32			0	36049	0	0	0	25880	24480	144485	27260	1019947	42652	109579	0	0	8173	631573	0	0
2024-06-22 02:20:32			0	36069	0	0	0	25877	24480	144461	26946	1020027	42640	109578	0	0	8174	630718	0	0
2024-06-22 02:21:32			0	36076	0	0	0	25885	24490	144361	27241	1020036	42664	109581	0	0	8175	630383	0	0
2024-06-22 02:22:32			0	36090	0	0	0	25888	24480	144357	27241	1020046	42639	109582	0	0	8175	629821	0	0
2024-06-22 02:23:32			0	36102	0	0	0	25885	24480	144249	27251	1020001	42640	109581	0	0	8176	629309	0	0
2024-06-22 02:24:32			0	36085	0	0	0	25883	24480	144257	27033	1019939	42639	109580	0	0	8175	630034	0	0
2024-06-22 02:25:32			0	36092	0	0	0	25883	24490	144345	27227	1020009	42664	109580	0	0	8175	629700	0	0
2024-06-22 02:26:32			0	36087	0	0	0	25880	24480	144313	27360	1020019	42651	109579	0	0	8175	629949	0	0
2024-06-22 02:27:32			0	36107	0	0	0	25883	24470	144277	27182	1019948	42651	109580	0	0	8176	629131	0	0
2024-06-22 02:28:32			0	36099	0	0	0	25883	24480	144325	27514	1019939	42651	109580	0	0	8176	629437	0	0
2024-06-22 02:29:32			0	36114	0	0	0	25877	24480	144249	27069	1019912	42651	109578	0	0	8177	628797	0	0
2024-06-22 02:30:32			0	36115	0	0	0	25880	24490	144253	27026	1019929	42653	109579	0	0	8177	628719	0	0
2024-06-22 02:31:32			0	36133	0	0	0	25877	24470	144229	27078	1019957	42662	109578	0	0	8178	628023	0	0
2024-06-22 02:32:32			0	36139	0	0	0	25875	24470	144237	27015	1019975	42651	109577	0	0	8178	627767	0	0
2024-06-22 02:33:32			0	36124	0	0	0	25870	24480	144093	27138	1019939	42662	109575	0	0	8177	628370	0	0
2024-06-22 02:34:32			0	36154	0	0	0	25877	24480	144085	27131	1019974	42663	109578	0	0	8179	627093	0	0
2024-06-22 02:35:32			0	36145	0	0	0	25870	24470	144029	27469	1019895	42651	109575	0	0	8178	627511	0	0
2024-06-22 02:36:32			0	36162	0	0	0	25864	24470	144097	27322	1019876	42651	109573	0	0	8179	626788	0	0
2024-06-22 02:37:32			0	36155	0	0	0	25859	24460	144049	26783	1019931	42649	109571	0	0	8179	627121	0	0
2024-06-22 02:38:32			0	36180	0	0	0	25867	24470	144017	27130	1019921	42651	109574	0	0	8180	626022	0	0
2024-06-22 02:39:32			0	36176	0	0	0	25859	24470	143977	27019	1019957	42651	109571	0	0	8180	626193	0	0
2024-06-22 02:40:32			0	36172	0	0	0	25870	24470	143981	27008	1019868	42639	109575	0	0	8180	626362	0	0
2024-06-22 02:41:32			0	36186	0	0	0	25867	24460	143985	26991	1019886	42650	109574	0	0	8181	625803	0	0
2024-06-22 02:42:32			0	36174	0	0	0	25870	24460	143961	26922	1019904	42649	109575	0	0	8180	626313	0	0
2024-06-22 02:43:32			0	36185	0	0	0	25854	24460	144013	27034	1019886	42627	109569	0	0	8181	625845	0	0
2024-06-22 02:44:32			0	36174	0	0	0	25864	24460	144033	26982	1019886	42639	109573	0	0	8180	626313	0	0
2024-06-22 02:45:32			0	36148	0	0	0	25862	24460	144037	26934	1019886	42650	109572	0	0	8179	627419	0	0
2024-06-22 02:46:32			0	36168	0	0	0	25854	24470	144077	26649	1019814	42639	109569	0	0	8180	626533	0	0
2024-06-22 02:47:32			0	36162	0	0	0	25851	24470	144089	26958	1019868	42639	109568	0	0	8180	626788	0	0
2024-06-22 02:48:32			0	36152	0	0	0	25859	24450	144073	27251	1019869	42638	109571	0	0	8179	627284	0	0
2024-06-22 02:49:32			0	36168	0	0	0	25844	24460	144137	27057	1019904	42638	109565	0	0	8180	626568	0	0
2024-06-22 02:50:32			0	36146	0	0	0	25849	24460	144045	26960	1019886	42639	109567	0	0	8179	627504	0	0
2024-06-22 02:51:32			0	36148	0	0	0	25857	24450	144125	26883	1019869	42638	109570	0	0	8179	627455	0	0
2024-06-22 02:52:32			0	36153	0	0	0	25849	24460	144101	26928	1019886	42639	109567	0	0	8179	627206	0	0
2024-06-22 02:53:32			0	36156	0	0	0	25849	24460	144153	27248	1019851	42660	109567	0	0	8179	627079	0	0
2024-06-22 02:54:32			0	36156	0	0	0	25851	24460	144105	27147	1019851	42649	109568	0	0	8179	627079	0	0
2024-06-22 02:55:32			0	36158	0	0	0	25851	24450	144109	27417	1019896	42649	109568	0	0	8179	627029	0	0
2024-06-22 02:56:32			0	36139	0	0	0	25851	24460	144081	27173	1019913	42639	109568	0	0	8178	627802	0	0
2024-06-22 02:57:32			0	36164	0	0	0	25846	24450	144001	27105	1019869	42649	109566	0	0	8180	626774	0	0
2024-06-22 02:58:32			0	36179	0	0	0	25854	24440	144013	27166	1019852	42637	109569	0	0	8180	626171	0	0
2024-06-22 02:59:32			0	36176	0	0	0	25851	24450	144057	27341	1019842	42649	109568	0	0	8180	626263	0	0
2024-06-22 03:00:32			0	36181	0	0	0	25849	24450	144097	27369	1019807	42626	109567	0	0	8181	626051	0	0
2024-06-22 03:01:32			0	36182	0	0	0	25844	24450	143989	27102	1019896	42616	109565	0	0	8181	626008	0	0
2024-06-22 03:02:32			0	36189	0	0	0	25841	24440	143861	27090	1019825	42648	109564	0	0	8181	625746	0	0
2024-06-22 03:03:32			0	36190	0	0	0	25841	24450	143925	26918	1019833	42649	109564	0	0	8181	625668	0	0
2024-06-22 03:04:32			0	36193	0	0	0	25833	24440	143997	27213	1019852	42648	109561	0	0	8181	625576	0	0
2024-06-22 03:05:32			0	36181	0	0	0	25846	24440	143933	27310	1019825	42648	109566	0	0	8181	626086	0	0
2024-06-22 03:06:32			0	36196	0	0	0	25844	24450	143893	27265	1019780	42649	109565	0	0	8181	625413	0	0
2024-06-22 03:07:32			0	36228	0	0	0	25833	24440	143861	27244	1019825	42659	109561	0	0	8183	624090	0	0
2024-06-22 03:08:32			0	36233	0	0	0	25838	24440	143933	27215	1019798	42648	109563	0	0	8183	623878	0	0
2024-06-22 03:09:32			0	36227	0	0	0	25846	24440	143865	27150	1019798	42637	109566	0	0	8183	624133	0	0
2024-06-22 03:10:32			0	36222	0	0	0	25838	24440	143833	27175	1019771	42648	109563	0	0	8183	624345	0	0
2024-06-22 03:11:32			0	36219	0	0	0	25833	24440	143813	27017	1019771	42625	109561	0	0	8183	624472	0	0
2024-06-22 03:12:32			0	36216	0	0	0	25838	24440	143833	26772	1019816	42647	109563	0	0	8182	624599	0	0
2024-06-22 03:13:32			0	36231	0	0	0	25825	24430	143797	26911	1019781	42657	109558	0	0	8183	623998	0	0
2024-06-22 03:14:32			0	36212	0	0	0	25828	24440	143773	27164	1019825	42648	109559	0	0	8182	624769	0	0
2024-06-22 03:15:32			0	36227	0	0	0	25838	24430	143817	27033	1019718	42635	109563	0	0	8183	624168	0	0
2024-06-22 03:16:32			0	36241	0	0	0	25838	24430	143745	27074	1019727	42635	109563	0	0	8184	623574	0	0
2024-06-22 03:17:32			0	36248	0	0	0	25828	24430	143725	27039	1019754	42635	109559	0	0	8184	623277	0	0
2024-06-22 03:18:32			0	36255	0	0	0	25831	24440	143641	27275	1019771	42637	109560	0	0	8185	622946	0	0
2024-06-22 03:19:32			0	36253	0	0	0	25833	24420	143621	27407	1019790	42646	109561	0	0	8184	623101	0	0
2024-06-22 03:20:32			0	36262	0	0	0	25825	24420	143753	27348	1019755	42645	109558	0	0	8185	622719	0	0
2024-06-22 03:21:32			0	36248	0	0	0	25828	24430	143737	27060	1019772	42646	109559	0	0	8184	623277	0	0
2024-06-22 03:22:32			0	36260	0	0	0	25831	24430	143669	26842	1019718	42646	109560	0	0	8185	622769	0	0
2024-06-22 03:23:32			0	36285	0	0	0	25823	24430	143697	26800	1019754	42646	109557	0	0	8186	621711	0	0
2024-06-22 03:24:32			0	36259	0	0	0	25818	24420	143681	27163	1019728	42634	109555	0	0	8185	622847	0	0
2024-06-22 03:25:32			0	36253	0	0	0	25818	24430	143625	26706	1019754	42646	109555	0	0	8185	623066	0	0
2024-06-22 03:26:32			0	36254	0	0	0	25823	24420	143589	27144	1019755	42657	109557	0	0	8185	623058	0	0
2024-06-22 03:27:32			0	36285	0	0	0	25825	24430	143581	26953	1019799	42657	109558	0	0	8186	621711	0	0
2024-06-22 03:28:32			0	36281	0	0	0	25820	24410	143569	27052	1019693	42633	109556	0	0	8186	621950	0	0
2024-06-22 03:29:32			0	36278	0	0	0	25820	24420	143577	27194	1019737	42635	109556	0	0	8186	622042	0	0
2024-06-22 03:30:32			0	36300	0	0	0	25818	24420	143573	26991	1019701	42634	109555	0	0	8187	621111	0	0
2024-06-22 03:31:32			0	36293	0	0	0	25818	24420	143533	27244	1019674	42645	109555	0	0	8187	621408	0	0
2024-06-22 03:32:32			0	36288	0	0	0	25823	24410	143553	27118	1019719	42644	109557	0	0	8186	621654	0	0
2024-06-22 03:33:32			0	36305	0	0	0	25818	24420	143545	26981	1019701	42634	109555	0	0	8187	620900	0	0
2024-06-22 03:34:32			0	36312	0	0	0	25815	24410	143605	27421	1019719	42644	109554	0	0	8188	620639	0	0
2024-06-22 03:35:32			0	36313	0	0	0	25818	24420	143525	27098	1019710	42646	109555	0	0	8188	620562	0	0
2024-06-22 03:36:32			0	36303	0	0	0	25818	24420	143481	26911	1019648	42645	109555	0	0	8187	620985	0	0
2024-06-22 03:37:32			0	36306	0	0	0	25805	24420	143513	27225	1019674	42657	109550	0	0	8188	620858	0	0
2024-06-22 03:38:32			0	36328	0	0	0	25805	24420	143473	27178	1019710	42635	109550	0	0	8189	619929	0	0
2024-06-22 03:39:32			0	36338	0	0	0	25815	24410	143525	27062	1019639	42644	109554	0	0	8189	619541	0	0
2024-06-22 03:40:32			0	36331	0	0	0	25812	24420	143573	27180	1019648	42645	109553	0	0	8189	619802	0	0
2024-06-22 03:41:32			0	36320	0	0	0	25815	24420	143473	27258	1019656	42635	109554	0	0	8188	620266	0	0
2024-06-22 03:42:32			0	36335	0	0	0	25799	24420	143489	27322	1019674	42645	109548	0	0	8189	619633	0	0
2024-06-22 03:43:32			0	36314	0	0	0	25812	24410	143489	27052	1019666	42644	109553	0	0	8188	620555	0	0
2024-06-22 03:44:32			0	36327	0	0	0	25805	24410	143517	26975	1019666	42656	109550	0	0	8189	620006	0	0
2024-06-22 03:45:32			0	36321	0	0	0	25802	24420	143493	27291	1019674	42634	109549	0	0	8189	620224	0	0
2024-06-22 03:46:32			0	36324	0	0	0	25805	24410	143537	26831	1019639	42644	109550	0	0	8189	620132	0	0
2024-06-22 03:47:32			0	36324	0	0	0	25810	24420	143489	26956	1019674	42645	109552	0	0	8189	620097	0	0
2024-06-22 03:48:32			0	36341	0	0	0	25807	24410	143513	27131	1019657	42644	109551	0	0	8189	619415	0	0
2024-06-22 03:49:32			0	36328	0	0	0	25799	24410	143441	27102	1019631	42633	109548	0	0	8189	619964	0	0
2024-06-22 03:50:32			0	36332	0	0	0	25802	24410	143373	27329	1019711	42644	109549	0	0	8189	619795	0	0
2024-06-22 03:51:32			0	36326	0	0	0	25786	24400	143457	27348	1019587	42643	109543	0	0	8189	620083	0	0
2024-06-22 03:52:32			0	36351	0	0	0	25797	24410	143333	27180	1019612	42644	109547	0	0	8190	618993	0	0
2024-06-22 03:53:32			0	36350	0	0	0	25786	24400	143349	27149	1019613	42632	109543	0	0	8190	619070	0	0
2024-06-22 03:54:32			0	36360	0	0	0	25784	24400	143321	27348	1019568	42644	109542	0	0	8191	618648	0	0
2024-06-22 03:55:32			0	36356	0	0	0	25786	24400	143369	27144	1019613	42643	109543	0	0	8191	618817	0	0
2024-06-22 03:56:32			0	36375	0	0	0	25786	24400	143269	27242	1019587	42643	109543	0	0	8192	618016	0	0
2024-06-22 03:57:32			0	36387	0	0	0	25779	24390	143245	27138	1019569	42631	109540	0	0	8192	617546	0	0
2024-06-22 03:58:32			0	36372	0	0	0	25781	24390	143265	26961	1019631	42642	109541	0	0	8191	618178	0	0
2024-06-22 03:59:32			0	36381	0	0	0	25774	24390	143297	27150	1019516	42654	109538	0	0	8192	617798	0	0
2024-06-22 04:00:32			0	36390	0	0	0	25758	24380	143273	27357	1019418	42630	109532	0	0	8193	617454	0	0
2024-06-22 04:01:32			0	36351	0	0	0	25742	24370	143349	27310	1019517	42619	109526	0	0	8191	619133	0	0
2024-06-22 04:02:32			0	36307	0	0	0	25745	24360	143517	27105	1019419	42628	109527	0	0	8189	621026	0	0
2024-06-22 04:03:32			0	36200	0	0	0	25745	24370	143901	27286	1019428	42618	109527	0	0	8183	625526	0	0
2024-06-22 04:04:32			0	36126	0	0	0	25732	24360	144265	27104	1019500	42628	109522	0	0	8179	628711	0	0
2024-06-22 04:05:32			0	36009	0	0	0	25732	24360	144649	27116	1019411	42628	109522	0	0	8173	633715	0	0
2024-06-22 04:06:32			0	35895	0	0	0	25724	24360	145137	27384	1019464	42640	109519	0	0	8167	638617	0	0
2024-06-22 04:07:32			0	35814	0	0	0	25727	24350	145480	27185	1019456	42639	109520	0	0	8163	642153	0	0
2024-06-22 04:08:32			0	35698	0	0	0	25732	24350	145924	27248	1019456	42627	109522	0	0	8156	647189	0	0
2024-06-22 04:09:32			0	35588	0	0	0	25737	24350	146324	27274	1019367	42626	109524	0	0	8150	651991	0	0
2024-06-22 04:10:32			0	35459	0	0	0	25735	24350	146852	27275	1019420	42626	109523	0	0	8144	657655	0	0
2024-06-22 04:11:32			0	35314	0	0	0	25722	24340	147508	27128	1019376	42638	109518	0	0	8136	664102	0	0
2024-06-22 04:12:32			0	35130	0	0	0	25727	24340	148276	27229	1019358	42638	109520	0	0	8126	672302	0	0
2024-06-22 04:13:32			0	34922	0	0	0	25709	24340	149143	27289	1019296	42638	109513	0	0	8115	681662	0	0
2024-06-22 04:14:32			0	34713	0	0	0	25714	24330	150015	27279	1019306	42636	109515	0	0	8103	691205	0	0
2024-06-22 04:15:32			0	34520	0	0	0	25722	24340	150775	27282	1019323	42638	109518	0	0	8093	700032	0	0
2024-06-22 04:16:32			0	34355	0	0	0	25724	24330	151507	27261	1019341	42626	109519	0	0	8083	707720	0	0
2024-06-22 04:17:32			0	34253	0	0	0	25727	24330	152050	27301	1019314	42637	109520	0	0	8078	712481	0	0
2024-06-22 04:18:32			0	34188	0	0	0	25727	24330	152370	26949	1019287	42637	109520	0	0	8074	715528	0	0
2024-06-22 04:19:32			0	34169	0	0	0	25701	24330	152466	27244	1019279	42636	109510	0	0	8073	716420	0	0
2024-06-22 04:20:32			0	34163	0	0	0	25698	24330	152458	27180	1019261	42648	109509	0	0	8073	716702	0	0
2024-06-22 04:21:32			0	34112	0	0	0	25706	24330	152742	26944	1019252	42614	109512	0	0	8070	719103	0	0
2024-06-22 04:22:32			0	34049	0	0	0	25693	24320	153042	27300	1019235	42625	109507	0	0	8067	722118	0	0
2024-06-22 04:23:32			0	33995	0	0	0	25693	24320	153198	27131	1019235	42625	109507	0	0	8064	724676	0	0
2024-06-22 04:24:32			0	33960	0	0	0	25693	24320	153478	27324	1019208	42625	109507	0	0	8062	726337	0	0
2024-06-22 04:25:32			0	33918	0	0	0	25693	24310	153706	27261	1019226	42635	109507	0	0	8059	728376	0	0
2024-06-22 04:26:32			0	33882	0	0	0	25698	24320	153822	27215	1019181	42625	109509	0	0	8057	730050	0	0
2024-06-22 04:27:32			0	33923	0	0	0	25688	24300	153794	27334	1019164	42624	109505	0	0	8060	728179	0	0
2024-06-22 04:28:32			0	33880	0	0	0	25688	24310	153786	27180	1019173	42625	109505	0	0	8057	730187	0	0
2024-06-22 04:29:32			0	33855	0	0	0	25685	24300	153974	27364	1019191	42624	109504	0	0	8056	731422	0	0
2024-06-22 04:30:32			0	33846	0	0	0	25677	24290	154018	27410	1019146	42623	109501	0	0	8055	731893	0	0
2024-06-22 04:31:32			0	33842	0	0	0	25672	24290	154014	27203	1019146	42633	109499	0	0	8055	732085	0	0
2024-06-22 04:32:32			0	33824	0	0	0	25683	24290	153942	27540	1019138	42623	109503	0	0	8054	732946	0	0
2024-06-22 04:33:32			0	33847	0	0	0	25693	24290	153930	27346	1019146	42633	109507	0	0	8055	731846	0	0
2024-06-22 04:34:32			0	33878	0	0	0	25670	24290	153782	27124	1019191	42633	109498	0	0	8057	730365	0	0
2024-06-22 04:35:32			0	33920	0	0	0	25672	24290	153646	27419	1019120	42633	109499	0	0	8060	728363	0	0
2024-06-22 04:36:32			0	33909	0	0	0	25677	24290	153750	27052	1019058	42633	109501	0	0	8059	728887	0	0
2024-06-22 04:37:32			0	33895	0	0	0	25675	24280	153766	27265	1019121	42643	109500	0	0	8058	729595	0	0
2024-06-22 04:38:32			0	33936	0	0	0	25667	24280	153646	27287	1019102	42632	109497	0	0	8061	727642	0	0
2024-06-22 04:39:32			0	33965	0	0	0	25677	24280	153542	27190	1019076	42622	109501	0	0	8062	726264	0	0
2024-06-22 04:40:32			0	33952	0	0	0	25677	24270	153598	27078	1019112	42610	109501	0	0	8061	726923	0	0
2024-06-22 04:41:32			0	33967	0	0	0	25664	24290	153414	27301	1019084	42633	109496	0	0	8062	726128	0	0
2024-06-22 04:42:32			0	33989	0	0	0	25672	24270	153382	27114	1019112	42643	109499	0	0	8063	725165	0	0
2024-06-22 04:43:32			0	34003	0	0	0	25672	24280	153358	27365	1019129	42632	109499	0	0	8064	724460	0	0
2024-06-22 04:44:32			0	34022	0	0	0	25675	24260	153262	27381	1019095	42642	109500	0	0	8065	723641	0	0
2024-06-22 04:45:32			0	34058	0	0	0	25659	24260	153170	27258	1019095	42642	109494	0	0	8068	721937	0	0
2024-06-22 04:46:32			0	34052	0	0	0	25659	24260	153046	27407	1019068	42630	109494	0	0	8067	722221	0	0
2024-06-22 04:47:32			0	34054	0	0	0	25659	24280	153062	27298	1019067	42621	109494	0	0	8067	722045	0	0
2024-06-22 04:48:32			0	34048	0	0	0	25657	24250	153002	27502	1019024	42629	109493	0	0	8067	722451	0	0
2024-06-22 04:49:32			0	34046	0	0	0	25664	24250	153114	27152	1018989	42641	109496	0	0	8067	722546	0	0
2024-06-22 04:50:32			0	34050	0	0	0	25659	24260	153122	27048	1019041	42630	109494	0	0	8067	722316	0	0
2024-06-22 04:51:32			0	34055	0	0	0	25659	24250	153054	27189	1019051	42619	109494	0	0	8067	722120	0	0
2024-06-22 04:52:32			0	34065	0	0	0	25662	24260	153078	27537	1019059	42641	109495	0	0	8068	721607	0	0
2024-06-22 04:53:32			0	34087	0	0	0	25664	24270	152902	27291	1019058	42631	109496	0	0	8069	720526	0	0
2024-06-22 04:54:32			0	34122	0	0	0	25664	24260	152890	27265	1019059	42641	109496	0	0	8071	718916	0	0
2024-06-22 04:55:32			0	34142	0	0	0	25662	24250	152798	27237	1019104	42619	109495	0	0	8072	718015	0	0
2024-06-22 04:56:32			0	34163	0	0	0	25654	24250	152606	27301	1018997	42619	109492	0	0	8073	717026	0	0
2024-06-22 04:57:32			0	34181	0	0	0	25646	24250	152426	27277	1019024	42641	109489	0	0	8075	716180	0	0
2024-06-22 04:58:32			0	34201	0	0	0	25654	24260	152510	27251	1019014	42630	109492	0	0	8076	715200	0	0
2024-06-22 04:59:32			0	34193	0	0	0	25654	24250	152466	27052	1019051	42619	109492	0	0	8075	715616	0	0
2024-06-22 05:00:32			0	34230	0	0	0	25649	24250	152398	26946	1019015	42629	109490	0	0	8077	713880	0	0
2024-06-22 05:01:32			0	34222	0	0	0	25657	24250	152234	27279	1018962	42641	109493	0	0	8077	714255	0	0
2024-06-22 05:02:32			0	34258	0	0	0	25659	24260	152174	27215	1019006	42629	109494	0	0	8079	712529	0	0
2024-06-22 05:03:32			0	34307	0	0	0	25646	24240	151910	27519	1018980	42629	109489	0	0	8082	710318	0	0
2024-06-22 05:04:32			0	34301	0	0	0	25651	24240	152062	27301	1018953	42640	109491	0	0	8081	710599	0	0
2024-06-22 05:05:32			0	34316	0	0	0	25644	24240	151978	27441	1019025	42639	109488	0	0	8082	709898	0	0
2024-06-22 05:06:32			0	34332	0	0	0	25646	24240	151934	27239	1018998	42617	109489	0	0	8083	709152	0	0
2024-06-22 05:07:32			0	34308	0	0	0	25649	24250	151834	26873	1018935	42629	109490	0	0	8082	710232	0	0
2024-06-22 05:08:32			0	34327	0	0	0	25646	24250	151830	27187	1019015	42629	109489	0	0	8083	709345	0	0
2024-06-22 05:09:32			0	34355	0	0	0	25657	24240	151759	27317	1018980	42640	109493	0	0	8084	708080	0	0
2024-06-22 05:10:32			0	34359	0	0	0	25662	24240	151703	27367	1019007	42629	109495	0	0	8084	707894	0	0
2024-06-22 05:11:32			0	34370	0	0	0	25651	24240	151691	27459	1018980	42629	109491	0	0	8085	707382	0	0
2024-06-22 05:12:32			0	34381	0	0	0	25649	24240	151687	27232	1018971	42628	109490	0	0	8086	706870	0	0
2024-06-22 05:13:32			0	34375	0	0	0	25644	24240	151607	27280	1018971	42628	109488	0	0	8085	707149	0	0
2024-06-22 05:14:32			0	34375	0	0	0	25659	24240	151615	27455	1018971	42628	109494	0	0	8085	707149	0	0
2024-06-22 05:15:32			0	34366	0	0	0	25649	24240	151631	27017	1018998	42617	109490	0	0	8085	707568	0	0
2024-06-22 05:16:32			0	34371	0	0	0	25659	24240	151655	27305	1018971	42628	109494	0	0	8085	707335	0	0
2024-06-22 05:17:32			0	34364	0	0	0	25649	24240	151607	27386	1018980	42618	109490	0	0	8085	707661	0	0
2024-06-22 05:18:32			0	34377	0	0	0	25644	24240	151583	27472	1018945	42617	109488	0	0	8085	707056	0	0
2024-06-22 05:19:32			0	34385	0	0	0	25651	24240	151603	26981	1018980	42629	109491	0	0	8086	706684	0	0
2024-06-22 05:20:32			0	34395	0	0	0	25654	24240	151539	27263	1018998	42617	109492	0	0	8086	706219	0	0
2024-06-22 05:21:32			0	34381	0	0	0	25649	24230	151627	26890	1018936	42628	109490	0	0	8086	706910	0	0
2024-06-22 05:22:32			0	34375	0	0	0	25649	24230	151695	26958	1018981	42627	109490	0	0	8085	707189	0	0
2024-06-22 05:23:32			0	34396	0	0	0	25659	24240	151623	27168	1018998	42639	109494	0	0	8086	706172	0	0
2024-06-22 05:24:32			0	34410	0	0	0	25646	24240	151539	27161	1018971	42628	109489	0	0	8087	705522	0	0
2024-06-22 05:25:32			0	34398	0	0	0	25644	24240	151527	27168	1018980	42640	109488	0	0	8087	706079	0	0
2024-06-22 05:26:32			0	34401	0	0	0	25646	24240	151439	26984	1019007	42629	109489	0	0	8087	705940	0	0
2024-06-22 05:27:32			0	34406	0	0	0	25641	24230	151415	27065	1018954	42627	109487	0	0	8087	705747	0	0
2024-06-22 05:28:32			0	34400	0	0	0	25641	24230	151535	27275	1018909	42628	109487	0	0	8087	706026	0	0
2024-06-22 05:29:32			0	34372	0	0	0	25646	24240	151535	26979	1018971	42628	109489	0	0	8085	707288	0	0
2024-06-22 05:30:32			0	34387	0	0	0	25651	24230	151535	27147	1018909	42628	109491	0	0	8086	706631	0	0
2024-06-22 05:31:32			0	34400	0	0	0	25651	24230	151515	27455	1018901	42638	109491	0	0	8087	706026	0	0
2024-06-22 05:32:32			0	34417	0	0	0	25657	24240	151411	27204	1018971	42628	109493	0	0	8087	705197	0	0
2024-06-22 05:33:32			0	34424	0	0	0	25651	24230	151335	27293	1018928	42638	109491	0	0	8088	704912	0	0
2024-06-22 05:34:32			0	34440	0	0	0	25649	24240	151379	26944	1018980	42629	109490	0	0	8089	704130	0	0
2024-06-22 05:35:32			0	34479	0	0	0	25659	24230	151347	27280	1018936	42639	109494	0	0	8091	702362	0	0
2024-06-22 05:36:32			0	34493	0	0	0	25662	24240	151107	27121	1018998	42617	109495	0	0	8092	701675	0	0
2024-06-22 05:37:32			0	34518	0	0	0	25667	24250	151091	27031	1019096	42641	109497	0	0	8093	700480	0	0
2024-06-22 05:38:32			0	34541	0	0	0	25670	24240	151083	27026	1019007	42629	109498	0	0	8094	699458	0	0
2024-06-22 05:39:32			0	34539	0	0	0	25654	24240	150923	27050	1018980	42640	109492	0	0	8094	699550	0	0
2024-06-22 05:40:32			0	34543	0	0	0	25667	24240	151039	27592	1019034	42629	109497	0	0	8094	699365	0	0
2024-06-22 05:41:32			0	34537	0	0	0	25664	24240	151055	27055	1018998	42628	109496	0	0	8094	699642	0	0
2024-06-22 05:42:32			0	34546	0	0	0	25670	24250	151031	27097	1019158	42652	109498	0	0	8094	699187	0	0
2024-06-22 05:43:32			0	34565	0	0	0	25670	24250	150915	27074	1019042	42629	109498	0	0	8096	698312	0	0
2024-06-22 05:44:32			0	34557	0	0	0	25662	24240	150943	27072	1019034	42640	109495	0	0	8095	698720	0	0
2024-06-22 05:45:32			0	34572	0	0	0	25659	24240	150779	27098	1019025	42639	109494	0	0	8096	698029	0	0
2024-06-22 05:46:32			0	34577	0	0	0	25675	24250	150751	26927	1019015	42619	109500	0	0	8096	697759	0	0
2024-06-22 05:47:32			0	34593	0	0	0	25670	24260	150751	27230	1019086	42629	109498	0	0	8097	696983	0	0
2024-06-22 05:48:32			0	34615	0	0	0	25677	24260	150599	27232	1019059	42641	109501	0	0	8098	695971	0	0
2024-06-22 05:49:32			0	34611	0	0	0	25670	24240	150643	27454	1019060	42640	109498	0	0	8098	696234	0	0
2024-06-22 05:50:32			0	34653	0	0	0	25670	24260	150603	27277	1019068	42630	109498	0	0	8100	694226	0	0
2024-06-22 05:51:32			0	34642	0	0	0	25662	24250	150495	27379	1019015	42629	109495	0	0	8100	694770	0	0
2024-06-22 05:52:32			0	34619	0	0	0	25664	24250	150583	27542	1019024	42629	109496	0	0	8099	695827	0	0
2024-06-22 05:53:32			0	34624	0	0	0	25649	24250	150655	27462	1018997	42619	109490	0	0	8099	695597	0	0
2024-06-22 05:54:32			0	34614	0	0	0	25654	24240	150715	27287	1019025	42628	109492	0	0	8098	696096	0	0
2024-06-22 05:55:32			0	34626	0	0	0	25649	24250	150719	27398	1019042	42619	109490	0	0	8099	695505	0	0
2024-06-22 05:56:32			0	34607	0	0	0	25644	24240	150691	27112	1018971	42628	109488	0	0	8098	696418	0	0
2024-06-22 05:57:32			0	34624	0	0	0	25659	24240	150611	27566	1019034	42629	109494	0	0	8099	695636	0	0
2024-06-22 05:58:32			0	34614	0	0	0	25664	24250	150567	27447	1019015	42629	109496	0	0	8098	696057	0	0
2024-06-22 05:59:32			0	34636	0	0	0	25654	24240	150531	27476	1018953	42651	109492	0	0	8100	695085	0	0
2024-06-22 06:00:32			0	34623	0	0	0	25646	24240	150607	27507	1018980	42629	109489	0	0	8099	695682	0	0
2024-06-22 06:01:32			0	34602	0	0	0	25633	24250	150675	27064	1018962	42629	109484	0	0	8098	696608	0	0
2024-06-22 06:02:32			0	34591	0	0	0	25636	24250	150703	27244	1018962	42641	109485	0	0	8098	697114	0	0
2024-06-22 06:03:32			0	34586	0	0	0	25636	24240	150791	27329	1018891	42628	109485	0	0	8097	697384	0	0
2024-06-22 06:04:32			0	34563	0	0	0	25623	24230	150855	27133	1018936	42617	109480	0	0	8096	698483	0	0
2024-06-22 06:05:32			0	34545	0	0	0	25615	24240	150907	27390	1018918	42639	109477	0	0	8095	699273	0	0
2024-06-22 06:06:32			0	34539	0	0	0	25618	24220	151019	27409	1018999	42638	109478	0	0	8095	699629	0	0
2024-06-22 06:07:32			0	34530	0	0	0	25628	24220	151047	27473	1018892	42627	109482	0	0	8094	700044	0	0
2024-06-22 06:08:32			0	34559	0	0	0	25620	24220	150963	27284	1018865	42649	109479	0	0	8096	698706	0	0
2024-06-22 06:09:32			0	34549	0	0	0	25623	24220	151003	26986	1018839	42638	109480	0	0	8095	699168	0	0
2024-06-22 06:10:32			0	34523	0	0	0	25615	24230	151027	27313	1018874	42627	109477	0	0	8094	700328	0	0
2024-06-22 06:11:32			0	34504	0	0	0	25610	24210	151151	27218	1018840	42615	109475	0	0	8093	701285	0	0
2024-06-22 06:12:32			0	34535	0	0	0	25623	24220	151039	27012	1018857	42626	109480	0	0	8095	699814	0	0
2024-06-22 06:13:32			0	34549	0	0	0	25610	24220	151011	27400	1018884	42626	109475	0	0	8095	699168	0	0
2024-06-22 06:14:32			0	34527	0	0	0	25612	24210	151035	27402	1018902	42625	109476	0	0	8094	700222	0	0
2024-06-22 06:15:32			0	34523	0	0	0	25610	24210	151067	26935	1018795	42636	109475	0	0	8094	700407	0	0
2024-06-22 06:16:32			0	34533	0	0	0	25612	24210	150999	27123	1018848	42636	109476	0	0	8095	699945	0	0
2024-06-22 06:17:32			0	34528	0	0	0	25623	24220	151003	27211	1018857	42626	109480	0	0	8094	700137	0	0
2024-06-22 06:18:32			0	34556	0	0	0	25628	24220	150971	27187	1018857	42615	109482	0	0	8096	698845	0	0
2024-06-22 06:19:32			0	34575	0	0	0	25607	24210	150771	27471	1018840	42625	109474	0	0	8097	698008	0	0
2024-06-22 06:20:32			0	34528	0	0	0	25607	24210	150959	27152	1018840	42625	109474	0	0	8094	700176	0	0
2024-06-22 06:21:32			0	34537	0	0	0	25612	24200	150987	27424	1018778	42625	109476	0	0	8095	699800	0	0
2024-06-22 06:22:32			0	34546	0	0	0	25607	24210	150951	27192	1018875	42615	109474	0	0	8095	699345	0	0
2024-06-22 06:23:32			0	34546	0	0	0	25612	24210	150991	27038	1018866	42615	109476	0	0	8095	699345	0	0
2024-06-22 06:24:32			0	34551	0	0	0	25602	24200	151031	27126	1018858	42615	109472	0	0	8096	699154	0	0
2024-06-22 06:25:32			0	34532	0	0	0	25602	24210	151063	26941	1018840	42636	109472	0	0	8095	699991	0	0
2024-06-22 06:26:32			0	34516	0	0	0	25602	24210	151199	27052	1018813	42636	109472	0	0	8094	700730	0	0
2024-06-22 06:27:32			0	34506	0	0	0	25612	24200	151139	27412	1018796	42614	109476	0	0	8093	701232	0	0
2024-06-22 06:28:32			0	34524	0	0	0	25599	24190	151083	27343	1018778	42634	109471	0	0	8094	700440	0	0
2024-06-22 06:29:32			0	34522	0	0	0	25618	24200	151223	27395	1018831	42636	109478	0	0	8094	700493	0	0
2024-06-22 06:30:32			0	34520	0	0	0	25610	24200	151179	27203	1018804	42625	109475	0	0	8094	700585	0	0
2024-06-22 06:31:32			0	34502	0	0	0	25615	24190	151191	27293	1018814	42624	109477	0	0	8093	701457	0	0
2024-06-22 06:32:32			0	34512	0	0	0	25615	24200	151175	27109	1018822	42625	109477	0	0	8093	700955	0	0
2024-06-22 06:33:32			0	34516	0	0	0	25599	24190	151187	27293	1018787	42613	109471	0	0	8094	700810	0	0
2024-06-22 06:34:32			0	34512	0	0	0	25605	24200	151171	27531	1018796	42635	109473	0	0	8093	700955	0	0
2024-06-22 06:35:32			0	34509	0	0	0	25605	24200	151223	27602	1018778	42625	109473	0	0	8093	701094	0	0
2024-06-22 06:36:32			0	34508	0	0	0	25597	24200	151299	27426	1018778	42615	109470	0	0	8093	701140	0	0
2024-06-22 06:37:32			0	34508	0	0	0	25605	24200	151195	27239	1018751	42636	109473	0	0	8093	701140	0	0
2024-06-22 06:38:32			0	34508	0	0	0	25602	24200	151307	27407	1018778	42625	109472	0	0	8093	701140	0	0
2024-06-22 06:39:32			0	34501	0	0	0	25607	24200	151295	27618	1018796	42625	109474	0	0	8093	701463	0	0
2024-06-22 06:40:32			0	34503	0	0	0	25620	24190	151311	27376	1018841	42624	109479	0	0	8093	701411	0	0
2024-06-22 06:41:32			0	34521	0	0	0	25618	24200	151187	27211	1018769	42625	109478	0	0	8094	700539	0	0
2024-06-22 06:42:32			0	34519	0	0	0	25625	24200	151191	27043	1018796	42625	109481	0	0	8093	700631	0	0
2024-06-22 06:43:32			0	34532	0	0	0	25638	24200	151143	27097	1018822	42635	109486	0	0	8094	700031	0	0
2024-06-22 06:44:32			0	34558	0	0	0	25631	24200	151087	27332	1018849	42625	109483	0	0	8096	698832	0	0
2024-06-22 06:45:32			0	34568	0	0	0	25633	24200	151095	27253	1018884	42625	109484	0	0	8096	698370	0	0
2024-06-22 06:46:32			0	34569	0	0	0	25636	24210	151007	27462	1018866	42636	109485	0	0	8096	698285	0	0
2024-06-22 06:47:32			0	34568	0	0	0	25628	24210	150931	27196	1018902	42636	109482	0	0	8096	698331	0	0
2024-06-22 06:48:32			0	34594	0	0	0	25628	24200	150991	27575	1018849	42625	109482	0	0	8098	697173	0	0
2024-06-22 06:49:32			0	34592	0	0	0	25638	24210	150939	27372	1018875	42625	109486	0	0	8097	697226	0	0
2024-06-22 06:50:32			0	34610	0	0	0	25651	24210	150915	27277	1018920	42625	109491	0	0	8098	696398	0	0
2024-06-22 06:51:32			0	34627	0	0	0	25641	24210	150795	27284	1018875	42648	109487	0	0	8099	695616	0	0
2024-06-22 06:52:32			0	34636	0	0	0	25649	24210	150791	27234	1018928	42636	109490	0	0	8100	695203	0	0
2024-06-22 06:53:32			0	34642	0	0	0	25657	24220	150791	27216	1018964	42626	109493	0	0	8100	694888	0	0
2024-06-22 06:54:32			0	34655	0	0	0	25657	24230	150583	27067	1018981	42638	109493	0	0	8101	694252	0	0
2024-06-22 06:55:32			0	34663	0	0	0	25657	24230	150611	27159	1018963	42628	109493	0	0	8101	693885	0	0
2024-06-22 06:56:32			0	34666	0	0	0	25659	24230	150515	27286	1018990	42639	109494	0	0	8101	693748	0	0
2024-06-22 06:57:32			0	34697	0	0	0	25670	24230	150463	27237	1019016	42639	109498	0	0	8103	692328	0	0
2024-06-22 06:58:32			0	34703	0	0	0	25664	24230	150463	27104	1018981	42627	109496	0	0	8103	692053	0	0
2024-06-22 06:59:32			0	34716	0	0	0	25662	24230	150399	27235	1019016	42639	109495	0	0	8104	691458	0	0
2024-06-22 07:00:32			0	34726	0	0	0	25675	24230	150443	27732	1019016	42639	109500	0	0	8104	691001	0	0
2024-06-22 07:01:32			0	34743	0	0	0	25664	24240	150223	27377	1019060	42651	109496	0	0	8105	690185	0	0
2024-06-22 07:02:32			0	34723	0	0	0	25672	24240	150263	27246	1018998	42639	109499	0	0	8104	691099	0	0
2024-06-22 07:03:32			0	34740	0	0	0	25657	24240	150355	27223	1019025	42628	109493	0	0	8105	690322	0	0
2024-06-22 07:04:32			0	34741	0	0	0	25670	24250	150323	27331	1019015	42629	109498	0	0	8105	690238	0	0
2024-06-22 07:05:32			0	34744	0	0	0	25667	24240	150303	27284	1019078	42639	109497	0	0	8105	690140	0	0
2024-06-22 07:06:32			0	34759	0	0	0	25670	24240	150371	27362	1019052	42628	109498	0	0	8106	689455	0	0
2024-06-22 07:07:32			0	34738	0	0	0	25670	24240	150251	27282	1019114	42629	109498	0	0	8105	690414	0	0
2024-06-22 07:08:32			0	34760	0	0	0	25672	24240	150231	27476	1019034	42629	109499	0	0	8106	689409	0	0
2024-06-22 07:09:32			0	34750	0	0	0	25677	24240	150167	27450	1019087	42640	109501	0	0	8106	689866	0	0
2024-06-22 07:10:32			0	34780	0	0	0	25667	24260	150119	27492	1019095	42642	109497	0	0	8107	688419	0	0
2024-06-22 07:11:32			0	34771	0	0	0	25667	24260	150059	27296	1019140	42652	109497	0	0	8107	688830	0	0
2024-06-22 07:12:32			0	34773	0	0	0	25680	24250	149995	27550	1019069	42641	109502	0	0	8107	688777	0	0
2024-06-22 07:13:32			0	34796	0	0	0	25675	24250	150011	27606	1019131	42629	109500	0	0	8108	687729	0	0
2024-06-22 07:14:32			0	34788	0	0	0	25683	24240	149999	27027	1019087	42629	109503	0	0	8107	688133	0	0
2024-06-22 07:15:32			0	34829	0	0	0	25685	24250	149883	27280	1019104	42641	109504	0	0	8110	686228	0	0
2024-06-22 07:16:32			0	34823	0	0	0	25683	24270	149859	27369	1019165	42643	109503	0	0	8110	686423	0	0
2024-06-22 07:17:32			0	34827	0	0	0	25688	24270	149879	27223	1019192	42643	109505	0	0	8110	686241	0	0
2024-06-22 07:18:32			0	34833	0	0	0	25677	24260	149795	27199	1019175	42630	109501	0	0	8110	686007	0	0
2024-06-22 07:19:32			0	34838	0	0	0	25680	24260	149807	27248	1019228	42630	109502	0	0	8110	685779	0	0
2024-06-22 07:20:32			0	34842	0	0	0	25688	24260	149807	27405	1019113	42629	109505	0	0	8110	685598	0	0
2024-06-22 07:21:32			0	34833	0	0	0	25685	24270	149715	27358	1019157	42643	109504	0	0	8110	685968	0	0
2024-06-22 07:22:32			0	34854	0	0	0	25690	24270	149659	27386	1019183	42643	109506	0	0	8111	685014	0	0
2024-06-22 07:23:32			0	34853	0	0	0	25690	24280	149683	27227	1019236	42644	109506	0	0	8111	685021	0	0
2024-06-22 07:24:32			0	34852	0	0	0	25685	24280	149655	27312	1019254	42631	109504	0	0	8111	685066	0	0
2024-06-22 07:25:32			0	34875	0	0	0	25688	24270	149751	27074	1019157	42631	109505	0	0	8112	684061	0	0
2024-06-22 07:26:32			0	34859	0	0	0	25690	24270	149639	27369	1019219	42631	109506	0	0	8111	684787	0	0
2024-06-22 07:27:32			0	34883	0	0	0	25698	24270	149563	27112	1019219	42631	109509	0	0	8113	683698	0	0
2024-06-22 07:28:32			0	34871	0	0	0	25698	24290	149555	27161	1019245	42633	109509	0	0	8112	684165	0	0
2024-06-22 07:29:32			0	34899	0	0	0	25698	24280	149599	27190	1019183	42632	109509	0	0	8113	682934	0	0
2024-06-22 07:30:32			0	34911	0	0	0	25690	24290	149487	27294	1019191	42656	109506	0	0	8114	682353	0	0
2024-06-22 07:31:32			0	34903	0	0	0	25698	24290	149443	27159	1019271	42644	109509	0	0	8114	682715	0	0
2024-06-22 07:32:32			0	34914	0	0	0	25701	24290	149391	27180	1019253	42644	109510	0	0	8114	682217	0	0
2024-06-22 07:33:32			0	34924	0	0	0	25698	24290	149539	27348	1019200	42644	109509	0	0	8115	681764	0	0
2024-06-22 07:34:32			0	34920	0	0	0	25706	24290	149399	27145	1019191	42633	109512	0	0	8115	681945	0	0
2024-06-22 07:35:32			0	34932	0	0	0	25714	24290	149399	27331	1019253	42644	109515	0	0	8115	681402	0	0
2024-06-22 07:36:32			0	34930	0	0	0	25706	24290	149355	27100	1019280	42633	109512	0	0	8115	681493	0	0
2024-06-22 07:37:32			0	34948	0	0	0	25698	24300	149323	27215	1019244	42634	109509	0	0	8116	680640	0	0
2024-06-22 07:38:32			0	34924	0	0	0	25703	24300	149383	27173	1019209	42644	109511	0	0	8115	681726	0	0
2024-06-22 07:39:32			0	34944	0	0	0	25703	24300	149387	27242	1019244	42645	109511	0	0	8116	680821	0	0
2024-06-22 07:40:32			0	34932	0	0	0	25709	24300	149291	27223	1019262	42644	109513	0	0	8115	681364	0	0
2024-06-22 07:41:32			0	34945	0	0	0	25706	24290	149319	26944	1019271	42633	109512	0	0	8116	680814	0	0
2024-06-22 07:42:32			0	34968	0	0	0	25709	24300	149335	27098	1019342	42633	109513	0	0	8117	679737	0	0
2024-06-22 07:43:32			0	34946	0	0	0	25703	24300	149279	27459	1019271	42645	109511	0	0	8116	680731	0	0
2024-06-22 07:44:32			0	34941	0	0	0	25703	24310	149367	27377	1019360	42646	109511	0	0	8116	680918	0	0
2024-06-22 07:45:32			0	34958	0	0	0	25703	24300	149367	27092	1019289	42644	109511	0	0	8117	680189	0	0
2024-06-22 07:46:32			0	34956	0	0	0	25706	24300	149295	27024	1019316	42633	109512	0	0	8117	680279	0	0
2024-06-22 07:47:32			0	34954	0	0	0	25716	24290	149411	27029	1019307	42633	109516	0	0	8116	680408	0	0
2024-06-22 07:48:32			0	34951	0	0	0	25716	24300	149431	27062	1019316	42633	109516	0	0	8116	680505	0	0
2024-06-22 07:49:32			0	34956	0	0	0	25714	24290	149347	27452	1019307	42644	109515	0	0	8116	680317	0	0
2024-06-22 07:50:32			0	34966	0	0	0	25711	24300	149355	27130	1019316	42633	109514	0	0	8117	679827	0	0
2024-06-22 07:51:32			0	34951	0	0	0	25724	24300	149287	27421	1019289	42644	109519	0	0	8116	680505	0	0
2024-06-22 07:52:32			0	34953	0	0	0	25714	24310	149391	27156	1019360	42646	109515	0	0	8116	680376	0	0
2024-06-22 07:53:32			0	34997	0	0	0	25716	24310	149211	27261	1019333	42625	109516	0	0	8119	678391	0	0
2024-06-22 07:54:32			0	34979	0	0	0	25732	24320	149247	27441	1019342	42647	109522	0	0	8117	679164	0	0
2024-06-22 07:55:32			0	35004	0	0	0	25716	24320	149179	27471	1019315	42636	109516	0	0	8119	678037	0	0
2024-06-22 07:56:32			0	35004	0	0	0	25724	24320	149259	27272	1019404	42647	109519	0	0	8119	678037	0	0
2024-06-22 07:57:32			0	35002	0	0	0	25716	24320	149259	27438	1019369	42647	109516	0	0	8119	678127	0	0
2024-06-22 07:58:32			0	34996	0	0	0	25735	24310	149159	27374	1019387	42646	109523	0	0	8118	678436	0	0
2024-06-22 07:59:32			0	34992	0	0	0	25729	24310	149107	27045	1019387	42646	109521	0	0	8118	678616	0	0
2024-06-22 08:00:32			0	35008	0	0	0	25735	24330	149103	27241	1019386	42647	109523	0	0	8119	677819	0	0
2024-06-22 08:01:32			0	35006	0	0	0	25740	24330	149059	27211	1019421	42648	109525	0	0	8119	677909	0	0
2024-06-22 08:02:32			0	35010	0	0	0	25737	24330	149131	26863	1019421	42648	109524	0	0	8119	677728	0	0
2024-06-22 08:03:32			0	35020	0	0	0	25742	24330	149059	27279	1019368	42648	109526	0	0	8120	677278	0	0
2024-06-22 08:04:32			0	35028	0	0	0	25748	24330	149043	27116	1019448	42637	109528	0	0	8120	676918	0	0
2024-06-22 08:05:32			0	35026	0	0	0	25753	24330	149103	27150	1019466	42647	109530	0	0	8120	677008	0	0
2024-06-22 08:06:32			0	35036	0	0	0	25750	24330	148979	27505	1019448	42648	109529	0	0	8120	676558	0	0
2024-06-22 08:07:32			0	35047	0	0	0	25750	24340	148951	27322	1019483	42649	109529	0	0	8121	676025	0	0
2024-06-22 08:08:32			0	35060	0	0	0	25753	24340	148907	27505	1019465	42649	109530	0	0	8122	675441	0	0
2024-06-22 08:09:32			0	35045	0	0	0	25768	24340	148767	26930	1019456	42660	109536	0	0	8121	676115	0	0
2024-06-22 08:10:32			0	35091	0	0	0	25763	24340	148891	27182	1019483	42638	109534	0	0	8123	674049	0	0
2024-06-22 08:11:32			0	35072	0	0	0	25755	24350	148831	27144	1019474	42660	109531	0	0	8122	674864	0	0
2024-06-22 08:12:32			0	35084	0	0	0	25774	24340	148779	26864	1019465	42638	109538	0	0	8123	674364	0	0
2024-06-22 08:13:32			0	35100	0	0	0	25768	24350	148735	27187	1019527	42638	109536	0	0	8124	673608	0	0
2024-06-22 08:14:32			0	35094	0	0	0	25766	24350	148823	27109	1019527	42638	109535	0	0	8123	673877	0	0
2024-06-22 08:15:32			0	35116	0	0	0	25768	24360	148744	27306	1019544	42651	109536	0	0	8124	672853	0	0
2024-06-22 08:16:32			0	35107	0	0	0	25774	24350	148748	27140	1019554	42649	109538	0	0	8124	673294	0	0
2024-06-22 08:17:32			0	35108	0	0	0	25771	24360	148695	27182	1019571	42651	109537	0	0	8124	673211	0	0
2024-06-22 08:18:32			0	35138	0	0	0	25781	24350	148720	27157	1019509	42639	109541	0	0	8125	671906	0	0
2024-06-22 08:19:32			0	35115	0	0	0	25771	24360	148627	26911	1019553	42651	109537	0	0	8124	672897	0	0
2024-06-22 08:20:32			0	35144	0	0	0	25774	24350	148604	27464	1019536	42650	109538	0	0	8126	671637	0	0
2024-06-22 08:21:32			0	35124	0	0	0	25781	24360	148660	26994	1019544	42651	109541	0	0	8125	672494	0	0
2024-06-22 08:22:32			0	35130	0	0	0	25786	24360	148572	27163	1019580	42640	109543	0	0	8125	672226	0	0
2024-06-22 08:23:32			0	35136	0	0	0	25786	24360	148572	27190	1019553	42640	109543	0	0	8125	671957	0	0
2024-06-22 08:24:32			0	35128	0	0	0	25786	24370	148512	27007	1019615	42640	109543	0	0	8125	672277	0	0
2024-06-22 08:25:32			0	35157	0	0	0	25784	24370	148540	27206	1019624	42663	109542	0	0	8126	670980	0	0
2024-06-22 08:26:32			0	35143	0	0	0	25792	24370	148560	27176	1019615	42662	109545	0	0	8126	671606	0	0
2024-06-22 08:27:32			0	35171	0	0	0	25797	24380	148536	27041	1019659	42664	109547	0	0	8127	670316	0	0
2024-06-22 08:28:32			0	35152	0	0	0	25797	24370	148484	27229	1019562	42640	109547	0	0	8126	671204	0	0
2024-06-22 08:29:32			0	35154	0	0	0	25797	24380	148500	27133	1019632	42653	109547	0	0	8126	671076	0	0
2024-06-22 08:30:32			0	35166	0	0	0	25794	24380	148472	27308	1019686	42642	109546	0	0	8127	670540	0	0
2024-06-22 08:31:32			0	35174	0	0	0	25802	24380	148496	27118	1019721	42654	109549	0	0	8127	670183	0	0
2024-06-22 08:32:32			0	35169	0	0	0	25797	24380	148464	26946	1019686	42653	109547	0	0	8127	670406	0	0
2024-06-22 08:33:32			0	35188	0	0	0	25802	24380	148564	27270	1019713	42653	109549	0	0	8128	669558	0	0
2024-06-22 08:34:32			0	35169	0	0	0	25805	24390	148496	27223	1019712	42665	109550	0	0	8127	670368	0	0
2024-06-22 08:35:32			0	35191	0	0	0	25799	24380	148444	26868	1019721	42654	109548	0	0	8128	669424	0	0
2024-06-22 08:36:32			0	35187	0	0	0	25802	24400	148472	26993	1019720	42655	109549	0	0	8128	669526	0	0
2024-06-22 08:37:32			0	35186	0	0	0	25810	24400	148428	26913	1019747	42655	109552	0	0	8128	669571	0	0
2024-06-22 08:38:32			0	35168	0	0	0	25812	24400	148352	27187	1019747	42643	109553	0	0	8127	670375	0	0
2024-06-22 08:39:32			0	35187	0	0	0	25810	24400	148408	27107	1019782	42656	109552	0	0	8128	669526	0	0
2024-06-22 08:40:32			0	35177	0	0	0	25820	24400	148396	27416	1019720	42643	109556	0	0	8127	669973	0	0
2024-06-22 08:41:32			0	35194	0	0	0	25812	24400	148368	27438	1019729	42666	109553	0	0	8128	669214	0	0
2024-06-22 08:42:32			0	35199	0	0	0	25820	24400	148396	27372	1019756	42656	109556	0	0	8128	668991	0	0
2024-06-22 08:43:32			0	35193	0	0	0	25815	24400	148420	27417	1019756	42656	109554	0	0	8128	669259	0	0
2024-06-22 08:44:32			0	35207	0	0	0	25820	24400	148368	27069	1019782	42656	109556	0	0	8129	668634	0	0
2024-06-22 08:45:32			0	35202	0	0	0	25825	24400	148372	27071	1019756	42644	109558	0	0	8128	668857	0	0
2024-06-22 08:46:32			0	35207	0	0	0	25825	24410	148468	27140	1019791	42656	109558	0	0	8129	668597	0	0
2024-06-22 08:47:32			0	35211	0	0	0	25828	24410	148360	27130	1019880	42666	109559	0	0	8129	668418	0	0
2024-06-22 08:48:32			0	35223	0	0	0	25831	24420	148356	27197	1019781	42657	109560	0	0	8129	667846	0	0
2024-06-22 08:49:32			0	35215	0	0	0	25833	24420	148304	27234	1019844	42646	109561	0	0	8129	668202	0	0
2024-06-22 08:50:32			0	35224	0	0	0	25833	24420	148216	27293	1019808	42657	109561	0	0	8130	667801	0	0
2024-06-22 08:51:32			0	35228	0	0	0	25831	24420	148316	27123	1019835	42657	109560	0	0	8130	667623	0	0
2024-06-22 08:52:32			0	35214	0	0	0	25841	24420	148252	27339	1019808	42657	109564	0	0	8129	668247	0	0
2024-06-22 08:53:32			0	35217	0	0	0	25838	24420	148280	26974	1019808	42657	109563	0	0	8129	668113	0	0
2024-06-22 08:54:32			0	35222	0	0	0	25838	24420	148228	27331	1019897	42657	109563	0	0	8129	667890	0	0
2024-06-22 08:55:32			0	35218	0	0	0	25844	24430	148344	27170	1019852	42657	109565	0	0	8129	668031	0	0
2024-06-22 08:56:32			0	35255	0	0	0	25844	24430	148244	27255	1019906	42679	109565	0	0	8131	666384	0	0
2024-06-22 08:57:32			0	35228	0	0	0	25849	24430	148240	27310	1019906	42657	109567	0	0	8129	667585	0	0
2024-06-22 08:58:32			0	35246	0	0	0	25851	24430	148088	27343	1019914	42657	109568	0	0	8130	666784	0	0
2024-06-22 08:59:32			0	35234	0	0	0	25846	24440	148136	27627	1019923	42658	109566	0	0	8130	667281	0	0
2024-06-22 09:00:32			0	35267	0	0	0	25846	24430	148192	27178	1019906	42668	109566	0	0	8132	665850	0	0
2024-06-22 09:01:32			0	35242	0	0	0	25841	24440	148216	27538	1019932	42648	109564	0	0	8130	666925	0	0
2024-06-22 09:02:32			0	35236	0	0	0	25841	24430	148160	27495	1019888	42657	109564	0	0	8130	667229	0	0
2024-06-22 09:03:32			0	35228	0	0	0	25851	24430	148184	27287	1019906	42668	109568	0	0	8129	667585	0	0
2024-06-22 09:04:32			0	35242	0	0	0	25841	24430	148160	27267	1019888	42657	109564	0	0	8130	666962	0	0
2024-06-22 09:05:32			0	35245	0	0	0	25854	24430	148164	27549	1019906	42668	109569	0	0	8130	666829	0	0
2024-06-22 09:06:32			0	35256	0	0	0	25851	24440	148180	27088	1019923	42658	109568	0	0	8131	666302	0	0
2024-06-22 09:07:32			0	35257	0	0	0	25859	24440	148192	27022	1019950	42658	109571	0	0	8131	666257	0	0
2024-06-22 09:08:32			0	35261	0	0	0	25854	24430	148096	26941	1019941	42646	109569	0	0	8131	666117	0	0
2024-06-22 09:09:32			0	35257	0	0	0	25859	24440	148188	27339	1019932	42670	109571	0	0	8131	666257	0	0
2024-06-22 09:10:32			0	35255	0	0	0	25851	24440	148172	27118	1020003	42658	109568	0	0	8131	666346	0	0
2024-06-22 09:11:32			0	35256	0	0	0	25857	24440	148168	27298	1019959	42659	109570	0	0	8131	666302	0	0
2024-06-22 09:12:32			0	35270	0	0	0	25854	24450	148048	26955	1019967	42660	109569	0	0	8132	665642	0	0
2024-06-22 09:13:32			0	35254	0	0	0	25870	24440	148040	27251	1019950	42658	109575	0	0	8131	666391	0	0
2024-06-22 09:14:32			0	35298	0	0	0	25862	24440	148020	27039	1020012	42659	109572	0	0	8133	664436	0	0
2024-06-22 09:15:32			0	35293	0	0	0	25862	24450	147892	27256	1019994	42660	109572	0	0	8133	664621	0	0
2024-06-22 09:16:32			0	35274	0	0	0	25877	24450	147940	27201	1020047	42649	109578	0	0	8132	665464	0	0
2024-06-22 09:17:32			0	35283	0	0	0	25862	24450	147976	27390	1020021	42649	109572	0	0	8132	665064	0	0
2024-06-22 09:18:32			0	35282	0	0	0	25870	24450	147920	27332	1020029	42671	109575	0	0	8132	665109	0	0
2024-06-22 09:19:32			0	35299	0	0	0	25872	24460	148084	27196	1019984	42671	109576	0	0	8133	664317	0	0
2024-06-22 09:20:32			0	35294	0	0	0	25867	24460	147988	27209	1020038	42660	109574	0	0	8133	664539	0	0
2024-06-22 09:21:32			0	35297	0	0	0	25872	24460	147984	27267	1020046	42650	109576	0	0	8133	664405	0	0
2024-06-22 09:22:32			0	35272	0	0	0	25864	24460	147960	27497	1020100	42683	109573	0	0	8132	665515	0	0
2024-06-22 09:23:32			0	35293	0	0	0	25877	24460	147920	27187	1019984	42671	109578	0	0	8133	664583	0	0
2024-06-22 09:24:32			0	35293	0	0	0	25875	24460	147824	27029	1020065	42660	109577	0	0	8133	664583	0	0
2024-06-22 09:25:32			0	35311	0	0	0	25875	24470	147828	27265	1020082	42662	109577	0	0	8134	663747	0	0
2024-06-22 09:26:32			0	35294	0	0	0	25870	24460	147924	27017	1020073	42661	109575	0	0	8133	664539	0	0
2024-06-22 09:27:32			0	35291	0	0	0	25877	24470	147928	27185	1020055	42672	109578	0	0	8133	664634	0	0
2024-06-22 09:28:32			0	35307	0	0	0	25890	24470	147836	27441	1020055	42662	109583	0	0	8133	663924	0	0
2024-06-22 09:29:32			0	35325	0	0	0	25890	24460	147888	27308	1020127	42661	109583	0	0	8134	663164	0	0
2024-06-22 09:30:32			0	35307	0	0	0	25880	24470	147952	27083	1020144	42662	109579	0	0	8133	663924	0	0
2024-06-22 09:31:32			0	35315	0	0	0	25896	24470	147840	27218	1020090	42672	109585	0	0	8134	663570	0	0
2024-06-22 09:32:32			0	35299	0	0	0	25898	24470	147860	27235	1020109	42672	109586	0	0	8133	664279	0	0
2024-06-22 09:33:32			0	35330	0	0	0	25903	24480	147848	27154	1020188	42673	109588	0	0	8134	662867	0	0
2024-06-22 09:34:32			0	35300	0	0	0	25890	24470	147832	27317	1020224	42672	109583	0	0	8133	664235	0	0
2024-06-22 09:35:32			0	35283	0	0	0	25883	24480	147892	27277	1020153	42684	109580	0	0	8132	664952	0	0
2024-06-22 09:36:32			0	35274	0	0	0	25880	24480	148032	27281	1020108	42673	109579	0	0	8132	665351	0	0
2024-06-22 09:37:32			0	35277	0	0	0	25901	24490	147996	26920	1020170	42664	109587	0	0	8132	665180	0	0
2024-06-22 09:38:32			0	35285	0	0	0	25890	24480	148028	27402	1020134	42673	109583	0	0	8132	664863	0	0
2024-06-22 09:39:32			0	35271	0	0	0	25885	24500	148040	27220	1020214	42674	109581	0	0	8132	665409	0	0
2024-06-22 09:40:32			0	35270	0	0	0	25903	24490	148160	27213	1020143	42664	109588	0	0	8131	665491	0	0
2024-06-22 09:41:32			0	35271	0	0	0	25911	24480	148044	27213	1020161	42663	109591	0	0	8131	665485	0	0
2024-06-22 09:42:32			0	35273	0	0	0	25919	24480	147996	27481	1020215	42685	109594	0	0	8131	665396	0	0
2024-06-22 09:43:32			0	35277	0	0	0	25903	24490	147988	27440	1020232	42653	109588	0	0	8132	665180	0	0
2024-06-22 09:44:32			0	35268	0	0	0	25898	24490	148040	27653	1020197	42664	109586	0	0	8131	665580	0	0
2024-06-22 09:45:32			0	35264	0	0	0	25911	24500	148116	27362	1020241	42653	109591	0	0	8131	665720	0	0
2024-06-22 09:46:32			0	35261	0	0	0	25919	24490	148068	27254	1020277	42686	109594	0	0	8130	665891	0	0
2024-06-22 09:47:32			0	35268	0	0	0	25893	24500	148068	27445	1020241	42653	109584	0	0	8131	665543	0	0
2024-06-22 09:48:32			0	35246	0	0	0	25909	24500	148120	27351	1020196	42654	109590	0	0	8130	666521	0	0
2024-06-22 09:49:32			0	35240	0	0	0	25898	24490	148108	27149	1020232	42664	109586	0	0	8130	666825	0	0
2024-06-22 09:50:32			0	35218	0	0	0	25914	24500	148244	27537	1020241	42674	109592	0	0	8128	667767	0	0
2024-06-22 09:51:32			0	35207	0	0	0	25909	24500	148316	27313	1020249	42665	109590	0	0	8128	668257	0	0
2024-06-22 09:52:32			0	35218	0	0	0	25916	24500	148204	27383	1020241	42686	109593	0	0	8128	667767	0	0
2024-06-22 09:53:32			0	35208	0	0	0	25909	24500	148276	27436	1020222	42665	109590	0	0	8128	668212	0	0
2024-06-22 09:54:32			0	35210	0	0	0	25914	24500	148304	27351	1020214	42674	109592	0	0	8128	668123	0	0
2024-06-22 09:55:32			0	35225	0	0	0	25911	24500	148316	27270	1020303	42675	109591	0	0	8129	667455	0	0
2024-06-22 09:56:32			0	35211	0	0	0	25924	24500	148344	27216	1020249	42665	109596	0	0	8128	668078	0	0
2024-06-22 09:57:32			0	35221	0	0	0	25916	24500	148296	27255	1020356	42675	109593	0	0	8128	667633	0	0
2024-06-22 09:58:32			0	35231	0	0	0	25914	24510	148332	27556	1020266	42654	109592	0	0	8129	667150	0	0
2024-06-22 09:59:32			0	35222	0	0	0	25919	24500	148352	27281	1020294	42674	109594	0	0	8128	667588	0	0
2024-06-22 10:00:32			0	35219	0	0	0	25914	24510	148304	27296	1020285	42676	109592	0	0	8128	667684	0	0
2024-06-22 10:01:32			0	35192	0	0	0	25927	24510	148408	27131	1020338	42666	109597	0	0	8127	668887	0	0
2024-06-22 10:02:32			0	35210	0	0	0	25927	24500	148316	27173	1020356	42675	109597	0	0	8128	668123	0	0
2024-06-22 10:03:32			0	35196	0	0	0	25914	24520	148252	27332	1020302	42677	109592	0	0	8127	668671	0	0
2024-06-22 10:04:32			0	35189	0	0	0	25922	24510	148412	27203	1020311	42654	109595	0	0	8127	669021	0	0
2024-06-22 10:05:32			0	35165	0	0	0	25929	24520	148492	26968	1020275	42677	109598	0	0	8125	670054	0	0
2024-06-22 10:06:32			0	35172	0	0	0	25916	24510	148468	27339	1020293	42676	109593	0	0	8126	669780	0	0
2024-06-22 10:07:32			0	35168	0	0	0	25922	24510	148464	27414	1020293	42666	109595	0	0	8125	669958	0	0
2024-06-22 10:08:32			0	35155	0	0	0	25919	24510	148616	27538	1020293	42676	109594	0	0	8125	670539	0	0
2024-06-22 10:09:32			0	35167	0	0	0	25940	24520	148480	27246	1020275	42666	109602	0	0	8125	669965	0	0
2024-06-22 10:10:32			0	35185	0	0	0	25937	24510	148360	27395	1020293	42676	109601	0	0	8126	669200	0	0
2024-06-22 10:11:32			0	35178	0	0	0	25940	24530	148328	27147	1020319	42667	109602	0	0	8126	669436	0	0
2024-06-22 10:12:32			0	35185	0	0	0	25945	24520	148420	27514	1020391	42666	109604	0	0	8126	669162	0	0
2024-06-22 10:13:32			0	35172	0	0	0	25942	24520	148528	27213	1020337	42677	109603	0	0	8125	669742	0	0
2024-06-22 10:14:32			0	35174	0	0	0	25932	24520	148460	27216	1020382	42666	109599	0	0	8126	669652	0	0
2024-06-22 10:15:32			0	35168	0	0	0	25945	24520	148528	27062	1020364	42666	109604	0	0	8125	669920	0	0
2024-06-22 10:16:32			0	35177	0	0	0	25958	24530	148520	27280	1020479	42678	109609	0	0	8125	669481	0	0
2024-06-22 10:17:32			0	35186	0	0	0	25937	24530	148472	27428	1020408	42690	109601	0	0	8126	669079	0	0
2024-06-22 10:18:32			0	35184	0	0	0	25976	24530	148436	27251	1020461	42657	109616	0	0	8125	669169	0	0
2024-06-22 10:19:32			0	35188	0	0	0	25955	24540	148372	27319	1020523	42679	109608	0	0	8126	668952	0	0
2024-06-22 10:20:32			0	35178	0	0	0	25942	24540	148544	26972	1020443	42668	109603	0	0	8126	669398	0	0
2024-06-22 10:21:32			0	35173	0	0	0	25971	24530	148424	27093	1020461	42690	109614	0	0	8125	669659	0	0
2024-06-22 10:22:32			0	35200	0	0	0	25968	24540	148564	27275	1020550	42657	109613	0	0	8126	668417	0	0
2024-06-22 10:23:32			0	35169	0	0	0	25948	24540	148472	26934	1020497	42679	109605	0	0	8125	669800	0	0
2024-06-22 10:24:32			0	35165	0	0	0	25950	24540	148556	27150	1020390	42668	109606	0	0	8125	669978	0	0
2024-06-22 10:25:32			0	35155	0	0	0	25961	24540	148572	27098	1020363	42690	109610	0	0	8124	670425	0	0
2024-06-22 10:26:32			0	35146	0	0	0	25981	24550	148576	27017	1020541	42668	109618	0	0	8123	670789	0	0
2024-06-22 10:27:32			0	35177	0	0	0	25976	24550	148504	27621	1020603	42681	109616	0	0	8125	669405	0	0
2024-06-22 10:28:32			0	35183	0	0	0	25973	24550	148552	27246	1020514	42691	109615	0	0	8126	669137	0	0
2024-06-22 10:29:32			0	35183	0	0	0	25973	24550	148500	27410	1020523	42681	109615	0	0	8126	669137	0	0
2024-06-22 10:30:32			0	35174	0	0	0	25976	24560	148608	27131	1020594	42669	109616	0	0	8125	669501	0	0
2024-06-22 10:31:32			0	35171	0	0	0	25966	24550	148628	27180	1020549	42681	109612	0	0	8125	669673	0	0
2024-06-22 10:32:32			0	35151	0	0	0	25984	24550	148656	27241	1020576	42681	109619	0	0	8124	670566	0	0
2024-06-22 10:33:32			0	35145	0	0	0	25961	24560	148768	27227	1020585	42681	109610	0	0	8124	670796	0	0
2024-06-22 10:34:32			0	35148	0	0	0	25989	24560	148808	27059	1020594	42692	109621	0	0	8123	670662	0	0
2024-06-22 10:35:32			0	35153	0	0	0	25973	24560	148692	27313	1020620	42681	109615	0	0	8124	670438	0	0
2024-06-22 10:36:32			0	35144	0	0	0	25984	24560	148748	27209	1020594	42681	109619	0	0	8123	670840	0	0
2024-06-22 10:37:32			0	35140	0	0	0	25968	24570	148724	27150	1020656	42693	109613	0	0	8123	670981	0	0
2024-06-22 10:38:32			0	35152	0	0	0	25984	24570	148768	27164	1020557	42671	109619	0	0	8124	670445	0	0
2024-06-22 10:39:32			0	35133	0	0	0	25968	24560	148664	27383	1020594	42681	109613	0	0	8123	671332	0	0
2024-06-22 10:40:32			0	35124	0	0	0	25973	24560	148780	27261	1020620	42669	109615	0	0	8122	671735	0	0
2024-06-22 10:41:32			0	35103	0	0	0	25973	24570	148911	27209	1020611	42683	109615	0	0	8121	672636	0	0
2024-06-22 10:42:32			0	35110	0	0	0	25989	24570	148964	27332	1020602	42682	109621	0	0	8121	672323	0	0
2024-06-22 10:43:32			0	35088	0	0	0	25979	24570	148943	27320	1020602	42682	109617	0	0	8120	673308	0	0
2024-06-22 10:44:32			0	35101	0	0	0	25997	24580	148911	27530	1020646	42683	109624	0	0	8121	672688	0	0
2024-06-22 10:45:32			0	35116	0	0	0	25986	24570	148899	27235	1020682	42682	109620	0	0	8122	672054	0	0
2024-06-22 10:46:32			0	35108	0	0	0	26012	24560	148908	27327	1020647	42681	109630	0	0	8121	672450	0	0
2024-06-22 10:47:32			0	35131	0	0	0	26005	24570	148804	27275	1020638	42694	109627	0	0	8122	671384	0	0
2024-06-22 10:48:32			0	35121	0	0	0	26007	24580	148892	27358	1020753	42694	109628	0	0	8122	671793	0	0
2024-06-22 10:49:32			0	35094	0	0	0	25986	24580	148871	27170	1020628	42672	109620	0	0	8121	673001	0	0
2024-06-22 10:50:32			0	35113	0	0	0	25992	24580	148880	27258	1020682	42672	109622	0	0	8122	672151	0	0
2024-06-22 10:51:32			0	35117	0	0	0	26020	24580	148908	27377	1020753	42683	109633	0	0	8121	671972	0	0
2024-06-22 10:52:32			0	35108	0	0	0	25999	24590	148856	27540	1020663	42695	109625	0	0	8121	672336	0	0
2024-06-22 10:53:32			0	35135	0	0	0	26005	24600	148772	27500	1020761	42684	109627	0	0	8123	671091	0	0
2024-06-22 10:54:32			0	35132	0	0	0	26007	24580	148776	27372	1020700	42683	109628	0	0	8122	671301	0	0
2024-06-22 10:55:32			0	35115	0	0	0	26028	24590	148804	27388	1020752	42684	109636	0	0	8121	672023	0	0
2024-06-22 10:56:32			0	35163	0	0	0	26049	24590	148712	27360	1020779	42673	109644	0	0	8123	669878	0	0
2024-06-22 10:57:32			0	35181	0	0	0	26031	24600	148616	27665	1020823	42685	109637	0	0	8125	669037	0	0
2024-06-22 10:58:32			0	35175	0	0	0	26010	24600	148664	27457	1020788	42684	109629	0	0	8125	669305	0	0
2024-06-22 10:59:32			0	35181	0	0	0	26041	24600	148652	27213	1020814	42684	109641	0	0	8124	669037	0	0
2024-06-22 11:00:32			0	35209	0	0	0	26036	24600	148500	27320	1020841	42684	109639	0	0	8126	667790	0	0
2024-06-22 11:01:32			0	35204	0	0	0	26028	24590	148484	27223	1020806	42684	109636	0	0	8126	668050	0	0
2024-06-22 11:02:32			0	35190	0	0	0	26023	24610	148516	27102	1020805	42674	109634	0	0	8125	668598	0	0
2024-06-22 11:03:32			0	35165	0	0	0	26028	24620	148640	27034	1020849	42687	109636	0	0	8124	669675	0	0
2024-06-22 11:04:32			0	35173	0	0	0	26033	24620	148588	27443	1020840	42675	109638	0	0	8124	669318	0	0
2024-06-22 11:05:32			0	35187	0	0	0	26051	24620	148628	27197	1020929	42687	109645	0	0	8125	668694	0	0
2024-06-22 11:06:32			0	35199	0	0	0	26028	24620	148596	27059	1020894	42675	109636	0	0	8126	668159	0	0
2024-06-22 11:07:32			0	35200	0	0	0	26033	24620	148452	27274	1020956	42676	109638	0	0	8126	668115	0	0
2024-06-22 11:08:32			0	35220	0	0	0	26049	24620	148400	26819	1020894	42698	109644	0	0	8127	667225	0	0
2024-06-22 11:09:32			0	35226	0	0	0	26067	24630	148192	27350	1020946	42676	109651	0	0	8127	666920	0	0
2024-06-22 11:10:32			0	35262	0	0	0	26057	24630	148196	26720	1020991	42687	109647	0	0	8129	665320	0	0
2024-06-22 11:11:32			0	35263	0	0	0	26054	24640	148132	27008	1020955	42699	109646	0	0	8129	665238	0	0
2024-06-22 11:12:32			0	35257	0	0	0	26051	24640	148104	27312	1020937	42689	109645	0	0	8129	665504	0	0
2024-06-22 11:13:32			0	35292	0	0	0	26033	24640	148160	27171	1020901	42677	109638	0	0	8131	663951	0	0
2024-06-22 11:14:32			0	35217	0	0	0	26028	24640	148360	27424	1020901	42666	109636	0	0	8127	667283	0	0
2024-06-22 11:15:32			0	35219	0	0	0	26046	24640	148336	27173	1020901	42666	109643	0	0	8127	667193	0	0
2024-06-22 11:16:32			0	35245	0	0	0	26077	24630	148368	27393	1020946	42698	109655	0	0	8127	666075	0	0
2024-06-22 11:17:32			0	35262	0	0	0	26080	24640	148184	27230	1020982	42699	109656	0	0	8128	665282	0	0
2024-06-22 11:18:32			0	35284	0	0	0	26077	24640	148052	27360	1020982	42677	109655	0	0	8130	664306	0	0
2024-06-22 11:19:32			0	35311	0	0	0	26077	24650	147968	27251	1021061	42690	109655	0	0	8131	663071	0	0
2024-06-22 11:20:32			0	35285	0	0	0	26041	24650	148076	27137	1020999	42678	109641	0	0	8130	664224	0	0
2024-06-22 11:21:32			0	35264	0	0	0	26049	24650	148144	27286	1020999	42689	109644	0	0	8129	665156	0	0
2024-06-22 11:22:32			0	35267	0	0	0	26070	24640	148216	27161	1020990	42700	109652	0	0	8129	665060	0	0
2024-06-22 11:23:32			0	35247	0	0	0	26041	24640	148288	27286	1021035	42688	109641	0	0	8128	665948	0	0
2024-06-22 11:24:32			0	35251	0	0	0	26090	24640	148384	27241	1021017	42689	109660	0	0	8128	665771	0	0
2024-06-22 11:25:32			0	35257	0	0	0	26093	24660	148300	27194	1020990	42701	109661	0	0	8128	665429	0	0
2024-06-22 11:26:32			0	35249	0	0	0	26062	24660	148276	27128	1021016	42701	109649	0	0	8128	665784	0	0
2024-06-22 11:27:32			0	35263	0	0	0	26067	24670	148288	27267	1021141	42691	109651	0	0	8129	665125	0	0
2024-06-22 11:28:32			0	35255	0	0	0	26046	24660	148300	26828	1021070	42690	109643	0	0	8129	665518	0	0
2024-06-22 11:29:32			0	35219	0	0	0	26046	24660	148324	27419	1020990	42701	109643	0	0	8127	667118	0	0
2024-06-22 11:30:32			0	35234	0	0	0	26093	24650	148332	26809	1021053	42689	109661	0	0	8127	666489	0	0
2024-06-22 11:31:32			0	35225	0	0	0	26096	24660	148296	27222	1021043	42690	109662	0	0	8126	666851	0	0
2024-06-22 11:32:32			0	35245	0	0	0	26103	24670	148284	27310	1021167	42680	109665	0	0	8127	665924	0	0
2024-06-22 11:33:32			0	35235	0	0	0	26080	24670	148224	27260	1021087	42702	109656	0	0	8127	666369	0	0
2024-06-22 11:34:32			0	35224	0	0	0	26088	24670	148348	27312	1021141	42680	109659	0	0	8126	666858	0	0
2024-06-22 11:35:32			0	35241	0	0	0	26098	24680	148264	27358	1021158	42692	109663	0	0	8127	666064	0	0
2024-06-22 11:36:32			0	35252	0	0	0	26090	24680	148300	27142	1021265	42692	109660	0	0	8128	665576	0	0
2024-06-22 11:37:32			0	35238	0	0	0	26098	24680	148224	27190	1021185	42692	109663	0	0	8127	666198	0	0
2024-06-22 11:38:32			0	35236	0	0	0	26132	24680	148320	27189	1021274	42693	109676	0	0	8126	666287	0	0
2024-06-22 11:39:32			0	35241	0	0	0	26093	24690	148324	27026	1021202	42681	109661	0	0	8127	666027	0	0
2024-06-22 11:40:32			0	35222	0	0	0	26072	24680	148316	27124	1021158	42692	109653	0	0	8127	666909	0	0
2024-06-22 11:41:32			0	35230	0	0	0	26064	24690	148404	27196	1021175	42704	109650	0	0	8127	666516	0	0
2024-06-22 11:42:32			0	35198	0	0	0	26135	24690	148464	27443	1021256	42693	109677	0	0	8124	667939	0	0
2024-06-22 11:43:32			0	35207	0	0	0	26116	24690	148472	27183	1021202	42704	109670	0	0	8125	667539	0	0
2024-06-22 11:44:32			0	35214	0	0	0	26129	24690	148400	27284	1021291	42694	109675	0	0	8125	667227	0	0
2024-06-22 11:45:32			0	35220	0	0	0	26088	24700	148432	27130	1021246	42706	109659	0	0	8126	666922	0	0
2024-06-22 11:46:32			0	35217	0	0	0	26116	24700	148460	27343	1021219	42716	109670	0	0	8126	667056	0	0
2024-06-22 11:47:32			0	35208	0	0	0	26158	24700	148460	27381	1021300	42695	109686	0	0	8124	667456	0	0
2024-06-22 11:48:32			0	35228	0	0	0	26150	24710	148348	27400	1021397	42716	109683	0	0	8126	666529	0	0
2024-06-22 11:49:32			0	35233	0	0	0	26148	24720	148400	27107	1021414	42696	109682	0	0	8126	666269	0	0
2024-06-22 11:50:32			0	35229	0	0	0	26129	24710	148324	27053	1021379	42717	109675	0	0	8126	666485	0	0
2024-06-22 11:51:32			0	35209	0	0	0	26111	24710	148280	27123	1021352	42707	109668	0	0	8125	667374	0	0
2024-06-22 11:52:32			0	35202	0	0	0	26161	24710	148356	27353	1021370	42683	109687	0	0	8124	667686	0	0
2024-06-22 11:53:32			0	35221	0	0	0	26132	24710	148404	27235	1021379	42696	109676	0	0	8126	666840	0	0
2024-06-22 11:54:32			0	35211	0	0	0	26148	24710	148380	27251	1021344	42695	109682	0	0	8125	667285	0	0
2024-06-22 11:55:32			0	35219	0	0	0	26114	24730	148372	27036	1021432	42708	109669	0	0	8126	666854	0	0
2024-06-22 11:56:32			0	35217	0	0	0	26132	24730	148320	27208	1021432	42708	109676	0	0	8125	666943	0	0
2024-06-22 11:57:32			0	35203	0	0	0	26109	24730	148316	27185	1021351	42686	109667	0	0	8125	667566	0	0
2024-06-22 11:58:32			0	35212	0	0	0	26197	24720	148480	27305	1021468	42708	109701	0	0	8124	667203	0	0
2024-06-22 11:59:32			0	35246	0	0	0	26205	24740	148300	27149	1021538	42709	109704	0	0	8126	665616	0	0
2024-06-22 12:00:32			0	35243	0	0	0	26153	24750	148280	27234	1021573	42710	109684	0	0	8127	665712	0	0
2024-06-22 12:01:32			0	35243	0	0	0	26202	24750	148308	27196	1021493	42710	109703	0	0	8126	665712	0	0
2024-06-22 12:02:32			0	35268	0	0	0	26228	24750	148212	27206	1021600	42710	109713	0	0	8127	664602	0	0
2024-06-22 12:03:32			0	35255	0	0	0	26158	24760	148120	27438	1021626	42711	109686	0	0	8127	665141	0	0
2024-06-22 12:04:32			0	35237	0	0	0	26137	24770	148196	27556	1021501	42701	109678	0	0	8127	665903	0	0
2024-06-22 12:05:32			0	35236	0	0	0	26228	24760	148372	27326	1021510	42711	109713	0	0	8125	665985	0	0
2024-06-22 12:06:32			0	35242	0	0	0	26197	24760	148288	27495	1021564	42711	109701	0	0	8126	665718	0	0
2024-06-22 12:07:32			0	35266	0	0	0	26194	24770	148288	27218	1021634	42701	109700	0	0	8127	664615	0	0
2024-06-22 12:08:32			0	35269	0	0	0	26254	24770	148300	27620	1021608	42701	109723	0	0	8126	664482	0	0
2024-06-22 12:09:32			0	35280	0	0	0	26246	24780	148256	27362	1021821	42725	109720	0	0	8127	663957	0	0
2024-06-22 12:10:32			0	35270	0	0	0	26223	24790	148248	27338	1021731	42713	109711	0	0	8127	664363	0	0
2024-06-22 12:11:32			0	35253	0	0	0	26215	24800	148292	27324	1021740	42726	109708	0	0	8126	665079	0	0
2024-06-22 12:12:32			0	35270	0	0	0	26244	24790	148344	27140	1021758	42713	109719	0	0	8127	664363	0	0
2024-06-22 12:13:32			0	35252	0	0	0	26174	24800	148132	26963	1021766	42714	109692	0	0	8127	665124	0	0
2024-06-22 12:14:32			0	35238	0	0	0	26171	24800	148304	27190	1021740	42704	109691	0	0	8126	665745	0	0
2024-06-22 12:15:32			0	35228	0	0	0	26179	24800	148376	26977	1021659	42704	109694	0	0	8126	666189	0	0
2024-06-22 12:16:32			0	35227	0	0	0	26223	24790	148456	27362	1021678	42703	109711	0	0	8125	666272	0	0
2024-06-22 12:17:32			0	35236	0	0	0	26254	24800	148500	27367	1021775	42705	109723	0	0	8125	665834	0	0
2024-06-22 12:18:32			0	35229	0	0	0	26171	24800	148312	27161	1021775	42715	109691	0	0	8126	666145	0	0
2024-06-22 12:19:32			0	35221	0	0	0	26215	24800	148396	27343	1021713	42714	109708	0	0	8125	666501	0	0
2024-06-22 12:20:32			0	35235	0	0	0	26283	24810	148396	26930	1021819	42706	109734	0	0	8124	665841	0	0
2024-06-22 12:21:32			0	35265	0	0	0	26262	24810	148312	27223	1021900	42727	109726	0	0	8126	664509	0	0
2024-06-22 12:22:32			0	35269	0	0	0	26244	24820	148168	27291	1021855	42716	109719	0	0	8127	664294	0	0
2024-06-22 12:23:32			0	35264	0	0	0	26231	24820	148224	27270	1021828	42716	109714	0	0	8127	664516	0	0
2024-06-22 12:24:32			0	35248	0	0	0	26296	24820	148256	27118	1021863	42717	109739	0	0	8125	665226	0	0
2024-06-22 12:25:32			0	35278	0	0	0	26283	24830	148160	27234	1021979	42718	109734	0	0	8127	663857	0	0
2024-06-22 12:26:32			0	35289	0	0	0	26241	24840	148176	26814	1021916	42718	109718	0	0	8128	663332	0	0
2024-06-22 12:27:32			0	35269	0	0	0	26233	24840	148192	27187	1021889	42708	109715	0	0	8127	664219	0	0
2024-06-22 12:28:32			0	35277	0	0	0	26296	24840	148220	27220	1021970	42718	109739	0	0	8126	663864	0	0
2024-06-22 12:29:32			0	35286	0	0	0	26275	24840	148128	27289	1022032	42730	109731	0	0	8127	663465	0	0
2024-06-22 12:30:32			0	35285	0	0	0	26241	24850	148136	27291	1021960	42731	109718	0	0	8128	663472	0	0
2024-06-22 12:31:32			0	35266	0	0	0	26303	24840	148168	27234	1021916	42718	109742	0	0	8126	664352	0	0
2024-06-22 12:32:32			0	35293	0	0	0	26306	24850	148184	27521	1022040	42720	109743	0	0	8127	663118	0	0
2024-06-22 12:33:32			0	35293	0	0	0	26275	24860	148112	27213	1022058	42720	109731	0	0	8128	663080	0	0
2024-06-22 12:34:32			0	35279	0	0	0	26285	24850	148136	27421	1022067	42720	109735	0	0	8127	663738	0	0
2024-06-22 12:35:32			0	35294	0	0	0	26316	24860	148080	27072	1022120	42699	109747	0	0	8127	663036	0	0
2024-06-22 12:36:32			0	35309	0	0	0	26332	24870	148080	27159	1022128	42710	109753	0	0	8128	662335	0	0
2024-06-22 12:37:32			0	35303	0	0	0	26311	24880	148068	26920	1022226	42722	109745	0	0	8128	662562	0	0
2024-06-22 12:38:32			0	35312	0	0	0	26285	24870	148040	27013	1022110	42722	109735	0	0	8129	662202	0	0
2024-06-22 12:39:32			0	35310	0	0	0	26322	24880	148064	27332	1022065	42710	109749	0	0	8128	662253	0	0
2024-06-22 12:40:32			0	35304	0	0	0	26314	24880	148060	27138	1022146	42710	109746	0	0	8128	662518	0	0
2024-06-22 12:41:32			0	35319	0	0	0	26231	24880	147932	27003	1022119	42722	109714	0	0	8130	661855	0	0
2024-06-22 12:42:32			0	35302	0	0	0	26251	24870	148040	27270	1022083	42710	109722	0	0	8129	662644	0	0
2024-06-22 12:43:32			0	35303	0	0	0	26259	24870	148044	27157	1022048	42722	109725	0	0	8129	662600	0	0
2024-06-22 12:44:32			0	35304	0	0	0	26251	24850	148040	26863	1022049	42708	109722	0	0	8129	662631	0	0
2024-06-22 12:45:32			0	35296	0	0	0	26332	24860	148196	27121	1022066	42721	109753	0	0	8127	662947	0	0
2024-06-22 12:46:32			0	35297	0	0	0	26324	24870	148068	26994	1022217	42733	109750	0	0	8127	662866	0	0
2024-06-22 12:47:32			0	35308	0	0	0	26272	24870	147984	27171	1022110	42733	109730	0	0	8129	662379	0	0
2024-06-22 12:48:32			0	35304	0	0	0	26306	24880	148124	27003	1022172	42722	109743	0	0	8128	662518	0	0
2024-06-22 12:49:32			0	35324	0	0	0	26322	24880	148092	27081	1022226	42722	109749	0	0	8129	661634	0	0
2024-06-22 12:50:32			0	35337	0	0	0	26264	24890	147836	27027	1022190	42723	109727	0	0	8130	661022	0	0
2024-06-22 12:51:32			0	35332	0	0	0	26324	24880	147964	26873	1022092	42710	109750	0	0	8129	661280	0	0
2024-06-22 12:52:32			0	35372	0	0	0	26368	24880	147872	26939	1022288	42722	109767	0	0	8131	659514	0	0
2024-06-22 12:53:32			0	35388	0	0	0	26319	24900	147804	27234	1022314	42713	109748	0	0	8132	658734	0	0
2024-06-22 12:54:32			0	35377	0	0	0	26293	24890	147780	27353	1022279	42724	109738	0	0	8132	659256	0	0
2024-06-22 12:55:32			0	35355	0	0	0	26275	24900	147740	27102	1022180	42724	109731	0	0	8131	660190	0	0
2024-06-22 12:56:32			0	35356	0	0	0	26280	24890	147856	26871	1022136	42723	109733	0	0	8131	660183	0	0
2024-06-22 12:57:32			0	35362	0	0	0	26355	24890	147860	27048	1022252	42724	109762	0	0	8130	659918	0	0
2024-06-22 12:58:32			0	35395	0	0	0	26329	24900	147708	27286	1022430	42736	109752	0	0	8133	658426	0	0
2024-06-22 12:59:32			0	35392	0	0	0	26314	24900	147712	27013	1022287	42724	109746	0	0	8133	658558	0	0
2024-06-22 13:00:32			0	35392	0	0	0	26355	24910	147732	27076	1022278	42725	109762	0	0	8132	658521	0	0
2024-06-22 13:01:32			0	35411	0	0	0	26342	24900	147592	27450	1022376	42736	109757	0	0	8133	657721	0	0
2024-06-22 13:02:32			0	35420	0	0	0	26337	24920	147544	27093	1022375	42738	109755	0	0	8134	657251	0	0
2024-06-22 13:03:32			0	35409	0	0	0	26335	24920	147624	27467	1022295	42715	109754	0	0	8133	657735	0	0
2024-06-22 13:04:32			0	35393	0	0	0	26366	24910	147692	27019	1022331	42714	109766	0	0	8132	658477	0	0
2024-06-22 13:05:32			0	35415	0	0	0	26306	24930	147580	27150	1022357	42715	109743	0	0	8134	657434	0	0
2024-06-22 13:06:32			0	35405	0	0	0	26314	24920	147684	27052	1022206	42738	109746	0	0	8133	657911	0	0
2024-06-22 13:07:32			0	35394	0	0	0	26371	24930	147676	27092	1022411	42726	109768	0	0	8132	658358	0	0
2024-06-22 13:08:32			0	35412	0	0	0	26353	24920	147616	27301	1022375	42726	109761	0	0	8133	657603	0	0
2024-06-22 13:09:32			0	35389	0	0	0	26337	24930	147600	27320	1022420	42727	109755	0	0	8132	658578	0	0
2024-06-22 13:10:32			0	35385	0	0	0	26358	24930	147788	27092	1022384	42715	109763	0	0	8132	658755	0	0
2024-06-22 13:11:32			0	35372	0	0	0	26366	24930	147832	27319	1022473	42738	109766	0	0	8131	659327	0	0
2024-06-22 13:12:32			0	35380	0	0	0	26384	24930	147748	27282	1022500	42738	109773	0	0	8131	658975	0	0
2024-06-22 13:13:32			0	35377	0	0	0	26348	24940	147684	27062	1022482	42728	109759	0	0	8131	659070	0	0
2024-06-22 13:14:32			0	35391	0	0	0	26392	24940	147668	27119	1022535	42739	109776	0	0	8131	658453	0	0
2024-06-22 13:15:32			0	35411	0	0	0	26407	24950	147672	27150	1022499	42739	109782	0	0	8132	657535	0	0
2024-06-22 13:16:32			0	35424	0	0	0	26373	24950	147488	26989	1022534	42729	109769	0	0	8134	656963	0	0
2024-06-22 13:17:32			0	35379	0	0	0	26379	24960	147536	27300	1022516	42730	109771	0	0	8131	658907	0	0
2024-06-22 13:18:32			0	35364	0	0	0	26386	24960	147716	26994	1022570	42730	109774	0	0	8130	659568	0	0
2024-06-22 13:19:32			0	35359	0	0	0	26415	24960	147744	26977	1022570	42730	109785	0	0	8129	659789	0	0
2024-06-22 13:20:32			0	35371	0	0	0	26394	24960	147612	26981	1022632	42731	109777	0	0	8130	659260	0	0
2024-06-22 13:21:32			0	35392	0	0	0	26436	24960	147648	27154	1022659	42719	109793	0	0	8131	658334	0	0
2024-06-22 13:22:32			0	35414	0	0	0	26431	24970	147452	27123	1022730	42742	109791	0	0	8132	657328	0	0
2024-06-22 13:23:32			0	35420	0	0	0	26428	24970	147400	27199	1022756	42752	109790	0	0	8132	657065	0	0
2024-06-22 13:24:32			0	35457	0	0	0	26454	24980	147376	27112	1022720	42733	109800	0	0	8134	655402	0	0
2024-06-22 13:25:32			0	35472	0	0	0	26423	24990	147252	27078	1022764	42754	109788	0	0	8135	654707	0	0
2024-06-22 13:26:32			0	35492	0	0	0	26438	24990	147244	27173	1022737	42733	109794	0	0	8136	653830	0	0
2024-06-22 13:27:32			0	35513	0	0	0	26420	24990	147288	27260	1022791	42733	109787	0	0	8138	652910	0	0
2024-06-22 13:28:32			0	35474	0	0	0	26420	24990	147260	26972	1022764	42744	109787	0	0	8136	654619	0	0
2024-06-22 13:29:32			0	35473	0	0	0	26462	24990	147168	27249	1022791	42733	109803	0	0	8135	654663	0	0
2024-06-22 13:30:32			0	35490	0	0	0	26459	25010	147080	27402	1022879	42723	109802	0	0	8136	653843	0	0
2024-06-22 13:31:32			0	35524	0	0	0	26467	25010	147200	27237	1022906	42735	109805	0	0	8138	652355	0	0
2024-06-22 13:32:32			0	35539	0	0	0	26464	25020	146928	27307	1022915	42747	109804	0	0	8138	651662	0	0
2024-06-22 13:33:32			0	35555	0	0	0	26462	25030	146756	27445	1022985	42737	109803	0	0	8139	650926	0	0
2024-06-22 13:34:32			0	35585	0	0	0	26459	25020	146876	27280	1022861	42735	109802	0	0	8141	649654	0	0
2024-06-22 13:35:32			0	35565	0	0	0	26441	25030	146736	27485	1022852	42737	109795	0	0	8140	650489	0	0
2024-06-22 13:36:32			0	35573	0	0	0	26446	25030	146860	27320	1022985	42737	109797	0	0	8141	650140	0	0
2024-06-22 13:37:32			0	35560	0	0	0	26454	25040	146792	27331	1022922	42737	109800	0	0	8140	650671	0	0
2024-06-22 13:38:32			0	35587	0	0	0	26472	25040	146700	27206	1022949	42749	109807	0	0	8141	649493	0	0
2024-06-22 13:39:32			0	35585	0	0	0	26449	25030	146756	27538	1022959	42749	109798	0	0	8141	649617	0	0
2024-06-22 13:40:32			0	35593	0	0	0	26462	25040	146704	27431	1022985	42738	109803	0	0	8142	649231	0	0
2024-06-22 13:41:32			0	35579	0	0	0	26446	25040	146732	27147	1022931	42750	109797	0	0	8141	649842	0	0
2024-06-22 13:42:32			0	35565	0	0	0	26470	25040	146880	27569	1022958	42760	109806	0	0	8140	650453	0	0
2024-06-22 13:43:32			0	35546	0	0	0	26436	25040	146976	27365	1022949	42737	109793	0	0	8139	651282	0	0
2024-06-22 13:44:32			0	35545	0	0	0	26477	25040	146828	27414	1022976	42737	109809	0	0	8139	651326	0	0
2024-06-22 13:45:32			0	35573	0	0	0	26459	25040	146776	27471	1022985	42750	109802	0	0	8140	650103	0	0
2024-06-22 13:46:32			0	35556	0	0	0	26425	25040	146896	27253	1022922	42726	109789	0	0	8140	650845	0	0
2024-06-22 13:47:32			0	35540	0	0	0	26410	25030	147032	27130	1022852	42737	109783	0	0	8140	651581	0	0
2024-06-22 13:48:32			0	35515	0	0	0	26467	25040	147084	27419	1022904	42750	109805	0	0	8137	652638	0	0
2024-06-22 13:49:32			0	35535	0	0	0	26464	25050	146964	27270	1022966	42739	109804	0	0	8138	651726	0	0
2024-06-22 13:50:32			0	35558	0	0	0	26467	25050	146872	27086	1023020	42739	109805	0	0	8140	650721	0	0
2024-06-22 13:51:32			0	35557	0	0	0	26477	25050	146952	27241	1022993	42750	109809	0	0	8139	650765	0	0
2024-06-22 13:52:32			0	35546	0	0	0	26462	25050	146924	27182	1023100	42739	109803	0	0	8139	651245	0	0
2024-06-22 13:53:32			0	35556	0	0	0	26477	25060	147000	27405	1022984	42739	109809	0	0	8139	650772	0	0
2024-06-22 13:54:32			0	35559	0	0	0	26496	25060	146908	27007	1023091	42739	109816	0	0	8139	650641	0	0
2024-06-22 13:55:32			0	35558	0	0	0	26480	25060	146836	27306	1023064	42739	109810	0	0	8139	650684	0	0
2024-06-22 13:56:32			0	35549	0	0	0	26496	25060	146888	27260	1023073	42762	109816	0	0	8139	651077	0	0
2024-06-22 13:57:32			0	35545	0	0	0	26503	25060	146964	27081	1023019	42750	109819	0	0	8138	651252	0	0
2024-06-22 13:58:32			0	35535	0	0	0	26514	25070	146948	26972	1023144	42751	109823	0	0	8138	651652	0	0
2024-06-22 13:59:32			0	35558	0	0	0	26529	25070	146940	27265	1023197	42741	109829	0	0	8139	650647	0	0
2024-06-22 14:00:32			0	35543	0	0	0	26506	25080	146936	27242	1023161	42764	109820	0	0	8138	651265	0	0
2024-06-22 14:01:32			0	35523	0	0	0	26516	25080	146988	27168	1023188	42742	109824	0	0	8137	652140	0	0
2024-06-22 14:02:32			0	35511	0	0	0	26514	25090	147044	27066	1023196	42753	109823	0	0	8136	652627	0	0
2024-06-22 14:03:32			0	35489	0	0	0	26498	25080	147072	27126	1023215	42752	109817	0	0	8136	653628	0	0
2024-06-22 14:04:32			0	35493	0	0	0	26540	25090	147128	27147	1023170	42753	109833	0	0	8135	653415	0	0
2024-06-22 14:05:32			0	35509	0	0	0	26550	25090	147080	27450	1023285	42754	109837	0	0	8136	652715	0	0
2024-06-22 14:06:32			0	35530	0	0	0	26571	25100	147012	27220	1023294	42754	109845	0	0	8137	651760	0	0
2024-06-22 14:07:32			0	35578	0	0	0	26592	25100	146904	27352	1023410	42754	109853	0	0	8139	649664	0	0
2024-06-22 14:08:32			0	35592	0	0	0	26566	25110	146768	27272	1023400	42767	109843	0	0	8140	649017	0	0
2024-06-22 14:09:32			0	35581	0	0	0	26555	25120	146920	27206	1023444	42756	109839	0	0	8140	649460	0	0
2024-06-22 14:10:32			0	35554	0	0	0	26516	25130	147000	27305	1023373	42768	109824	0	0	8139	650600	0	0
2024-06-22 14:11:32			0	35537	0	0	0	26558	25120	147076	27079	1023310	42756	109840	0	0	8137	651380	0	0
2024-06-22 14:12:32			0	35518	0	0	0	26586	25130	147212	27208	1023319	42747	109851	0	0	8136	652173	0	0
2024-06-22 14:13:32			0	35527	0	0	0	26576	25130	147160	27010	1023373	42780	109847	0	0	8136	651780	0	0
2024-06-22 14:14:32			0	35519	0	0	0	26584	25130	147108	27124	1023381	42758	109850	0	0	8136	652129	0	0
2024-06-22 14:15:32			0	35536	0	0	0	26550	25140	147052	27281	1023470	42769	109837	0	0	8137	651350	0	0
2024-06-22 14:16:32			0	35553	0	0	0	26566	25140	147052	27372	1023443	42758	109843	0	0	8138	650607	0	0
2024-06-22 14:17:32			0	35543	0	0	0	26542	25140	147012	27265	1023425	42747	109834	0	0	8138	651044	0	0
2024-06-22 14:18:32			0	35536	0	0	0	26561	25140	146992	27455	1023425	42747	109841	0	0	8137	651350	0	0
2024-06-22 14:19:32			0	35565	0	0	0	26592	25130	146904	26979	1023435	42758	109853	0	0	8138	650121	0	0
2024-06-22 14:20:32			0	35541	0	0	0	26561	25150	147004	27324	1023488	42748	109841	0	0	8138	651094	0	0
2024-06-22 14:21:32			0	35569	0	0	0	26605	25150	146956	27398	1023514	42770	109858	0	0	8138	649872	0	0
2024-06-22 14:22:32			0	35567	0	0	0	26568	25150	146892	27599	1023514	42781	109844	0	0	8139	649959	0	0
2024-06-22 14:23:32			0	35573	0	0	0	26540	25150	146892	27545	1023488	42748	109833	0	0	8140	649698	0	0
2024-06-22 14:24:32			0	35525	0	0	0	26516	25150	147020	27538	1023416	42749	109824	0	0	8137	651793	0	0
2024-06-22 14:25:32			0	35505	0	0	0	26548	25150	147212	27464	1023407	42759	109836	0	0	8136	652668	0	0
2024-06-22 14:26:32			0	35512	0	0	0	26566	25140	147192	27305	1023479	42758	109843	0	0	8136	652399	0	0
2024-06-22 14:27:32			0	35510	0	0	0	26576	25150	147144	27402	1023488	42759	109847	0	0	8136	652449	0	0
2024-06-22 14:28:32			0	35517	0	0	0	26602	25150	147124	27670	1023488	42759	109857	0	0	8136	652143	0	0
2024-06-22 14:29:32			0	35536	0	0	0	26558	25140	147028	27426	1023532	42769	109840	0	0	8137	651350	0	0
2024-06-22 14:30:32			0	35506	0	0	0	26555	25140	147048	27362	1023452	42736	109839	0	0	8136	652661	0	0
2024-06-22 14:31:32			0	35529	0	0	0	26579	25150	147072	27441	1023469	42760	109848	0	0	8137	651618	0	0
2024-06-22 14:32:32			0	35534	0	0	0	26511	25160	147012	27533	1023505	42749	109822	0	0	8138	651363	0	0
2024-06-22 14:33:32			0	35488	0	0	0	26563	25150	147140	27319	1023407	42759	109842	0	0	8135	653412	0	0
2024-06-22 14:34:32			0	35514	0	0	0	26545	25140	147028	27421	1023425	42747	109835	0	0	8136	652311	0	0
2024-06-22 14:35:32			0	35506	0	0	0	26532	25140	147080	27287	1023532	42758	109830	0	0	8136	652661	0	0
2024-06-22 14:36:32			0	35477	0	0	0	26553	25150	147264	27144	1023469	42749	109838	0	0	8134	653894	0	0
2024-06-22 14:37:32			0	35519	0	0	0	26612	25140	147140	27277	1023479	42758	109861	0	0	8135	652092	0	0
2024-06-22 14:38:32			0	35545	0	0	0	26592	25140	147052	27196	1023506	42758	109853	0	0	8137	650957	0	0
2024-06-22 14:39:32			0	35535	0	0	0	26581	25160	146944	27412	1023558	42771	109849	0	0	8137	651319	0	0
2024-06-22 14:40:32			0	35563	0	0	0	26550	25170	146908	27244	1023495	42761	109837	0	0	8139	650060	0	0
2024-06-22 14:41:32			0	35589	0	0	0	26605	25160	146952	27249	1023567	42761	109858	0	0	8139	648964	0	0
2024-06-22 14:42:32			0	35583	0	0	0	26615	25170	146752	27135	1023602	42761	109862	0	0	8139	649188	0	0
2024-06-22 14:43:32			0	35626	0	0	0	26568	25180	146656	27398	1023647	42762	109844	0	0	8142	647280	0	0
2024-06-22 14:44:32			0	35622	0	0	0	26558	25180	146692	27469	1023593	42773	109840	0	0	8142	647454	0	0
2024-06-22 14:45:32			0	35614	0	0	0	26571	25170	146708	27064	1023576	42761	109845	0	0	8141	647838	0	0
2024-06-22 14:46:32			0	35587	0	0	0	26545	25170	146708	27443	1023522	42750	109835	0	0	8140	649014	0	0
2024-06-22 14:47:32			0	35577	0	0	0	26563	25170	146864	27391	1023549	42739	109842	0	0	8140	649450	0	0
2024-06-22 14:48:32			0	35574	0	0	0	26550	25160	146808	27412	1023540	42761	109837	0	0	8140	649617	0	0
2024-06-22 14:49:32			0	35559	0	0	0	26553	25150	146908	27301	1023550	42749	109838	0	0	8139	650309	0	0
2024-06-22 14:50:32			0	35532	0	0	0	26532	25160	146960	27464	1023513	42750	109830	0	0	8138	651450	0	0
2024-06-22 14:51:32			0	35530	0	0	0	26548	25160	147124	27289	1023478	42760	109836	0	0	8137	651538	0	0
2024-06-22 14:52:32			0	35547	0	0	0	26550	25150	146916	27313	1023469	42760	109837	0	0	8138	650832	0	0
2024-06-22 14:53:32			0	35535	0	0	0	26566	25150	147012	27331	1023523	42760	109843	0	0	8137	651356	0	0
2024-06-22 14:54:32			0	35558	0	0	0	26602	25150	147028	27365	1023576	42771	109857	0	0	8138	650352	0	0
2024-06-22 14:55:32			0	35590	0	0	0	26605	25170	146856	27234	1023629	42783	109858	0	0	8140	648883	0	0
2024-06-22 14:56:32			0	35588	0	0	0	26576	25170	146748	27371	1023602	42761	109847	0	0	8140	648970	0	0
2024-06-22 14:57:32			0	35571	0	0	0	26586	25170	146700	27216	1023558	42750	109851	0	0	8139	649711	0	0
2024-06-22 14:58:32			0	35619	0	0	0	26584	25170	146768	27092	1023638	42762	109850	0	0	8141	647621	0	0
2024-06-22 14:59:32			0	35582	0	0	0	26612	25170	146700	27270	1023718	42750	109861	0	0	8139	649232	0	0
2024-06-22 15:00:32			0	35592	0	0	0	26618	25170	146788	27034	1023718	42762	109863	0	0	8139	648796	0	0
2024-06-22 15:01:32			0	35600	0	0	0	26568	25180	146780	27199	1023655	42774	109844	0	0	8141	648411	0	0
2024-06-22 15:02:32			0	35571	0	0	0	26584	25180	146872	27303	1023647	42750	109850	0	0	8139	649674	0	0
2024-06-22 15:03:32			0	35561	0	0	0	26592	25180	146772	27492	1023620	42750	109853	0	0	8138	650110	0	0
2024-06-22 15:04:32			0	35566	0	0	0	26584	25180	146832	27315	1023647	42762	109850	0	0	8139	649892	0	0
2024-06-22 15:05:32			0	35555	0	0	0	26586	25180	146916	27147	1023700	42750	109851	0	0	8138	650372	0	0
2024-06-22 15:06:32			0	35554	0	0	0	26592	25170	146892	27369	1023611	42762	109853	0	0	8138	650453	0	0
2024-06-22 15:07:32			0	35552	0	0	0	26607	25180	146960	27575	1023700	42750	109859	0	0	8137	650503	0	0
2024-06-22 15:08:32			0	35591	0	0	0	26638	25180	146896	27216	1023763	42762	109871	0	0	8139	648803	0	0
2024-06-22 15:09:32			0	35602	0	0	0	26646	25200	146744	27395	1023788	42776	109874	0	0	8140	648250	0	0
2024-06-22 15:10:32			0	35582	0	0	0	26628	25200	146688	27505	1023860	42752	109867	0	0	8139	649121	0	0
2024-06-22 15:11:32			0	35604	0	0	0	26638	25200	146708	27400	1023833	42775	109871	0	0	8140	648163	0	0
2024-06-22 15:12:32			0	35601	0	0	0	26605	25210	146760	27301	1023859	42764	109858	0	0	8140	648257	0	0
2024-06-22 15:13:32			0	35579	0	0	0	26597	25210	146748	27452	1023797	42753	109855	0	0	8139	649215	0	0
2024-06-22 15:14:32			0	35575	0	0	0	26631	25200	146816	27656	1023788	42764	109868	0	0	8138	649426	0	0
2024-06-22 15:15:32			0	35567	0	0	0	26628	25200	146808	27384	1023788	42764	109867	0	0	8138	649775	0	0
2024-06-22 15:16:32			0	35576	0	0	0	26623	25210	146836	27410	1023851	42764	109865	0	0	8139	649346	0	0
2024-06-22 15:17:32			0	35568	0	0	0	26646	25200	146884	27422	1023788	42753	109874	0	0	8138	649731	0	0
2024-06-22 15:18:32			0	35589	0	0	0	26657	25220	146764	27388	1023921	42754	109878	0	0	8139	648743	0	0
2024-06-22 15:19:32			0	35598	0	0	0	26646	25220	146716	27230	1023895	42765	109874	0	0	8139	648351	0	0
2024-06-22 15:20:32			0	35608	0	0	0	26680	25230	146732	27256	1023992	42755	109887	0	0	8139	647879	0	0
2024-06-22 15:21:32			0	35600	0	0	0	26633	25230	146700	27396	1023921	42756	109869	0	0	8140	648227	0	0
2024-06-22 15:22:32			0	35595	0	0	0	26605	25220	146780	27190	1023957	42755	109858	0	0	8140	648481	0	0
2024-06-22 15:23:32			0	35572	0	0	0	26605	25240	146876	27725	1023876	42767	109858	0	0	8139	649410	0	0
2024-06-22 15:24:32			0	35562	0	0	0	26667	25230	146904	27486	1023912	42766	109882	0	0	8137	649882	0	0
2024-06-22 15:25:32			0	35583	0	0	0	26675	25230	146820	27293	1023974	42756	109885	0	0	8138	648967	0	0
2024-06-22 15:26:32			0	35575	0	0	0	26649	25230	146724	27369	1023974	42767	109875	0	0	8138	649316	0	0
2024-06-22 15:27:32			0	35584	0	0	0	26657	25240	146816	27561	1023983	42756	109878	0	0	8139	648887	0	0
2024-06-22 15:28:32			0	35615	0	0	0	26659	25250	146812	27372	1024080	42779	109879	0	0	8140	647501	0	0
2024-06-22 15:29:32			0	35608	0	0	0	26664	25240	146624	27431	1024010	42745	109881	0	0	8140	647842	0	0
2024-06-22 15:30:32			0	35618	0	0	0	26649	25260	146724	27582	1024053	42758	109875	0	0	8141	647334	0	0
2024-06-22 15:31:32			0	35621	0	0	0	26688	25260	146700	27739	1024044	42769	109890	0	0	8140	647203	0	0
2024-06-22 15:32:32			0	35616	0	0	0	26667	25260	146684	27607	1024071	42758	109882	0	0	8140	647420	0	0
2024-06-22 15:33:32			0	35647	0	0	0	26709	25260	146688	27409	1024125	42769	109898	0	0	8141	646073	0	0
2024-06-22 15:34:32			0	35630	0	0	0	26683	25260	146604	27448	1024106	42758	109888	0	0	8141	646812	0	0
2024-06-22 15:35:32			0	35637	0	0	0	26698	25270	146536	27253	1024177	42771	109894	0	0	8141	646471	0	0
2024-06-22 15:36:32			0	35623	0	0	0	26703	25270	146520	27280	1024204	42759	109896	0	0	8140	647079	0	0
2024-06-22 15:37:32			0	35650	0	0	0	26672	25270	146508	27272	1024142	42770	109884	0	0	8142	645906	0	0
2024-06-22 15:38:32			0	35641	0	0	0	26654	25270	146584	27376	1024177	42759	109877	0	0	8142	646297	0	0
2024-06-22 15:39:32			0	35592	0	0	0	26667	25270	146648	27123	1024115	42770	109882	0	0	8139	648428	0	0
2024-06-22 15:40:32			0	35584	0	0	0	26680	25280	146740	27329	1024106	42760	109887	0	0	8138	648739	0	0
2024-06-22 15:41:32			0	35622	0	0	0	26729	25270	146736	27358	1024150	42771	109906	0	0	8140	647123	0	0
2024-06-22 15:42:32			0	35635	0	0	0	26716	25280	146616	27244	1024168	42772	109901	0	0	8141	646521	0	0
2024-06-22 15:43:32			0	35622	0	0	0	26737	25290	146568	27521	1024284	42772	109909	0	0	8140	647049	0	0
2024-06-22 15:44:32			0	35622	0	0	0	26698	25290	146680	27270	1024292	42773	109894	0	0	8140	647049	0	0
2024-06-22 15:45:32			0	35621	0	0	0	26750	25300	146600	27303	1024301	42774	109914	0	0	8139	647056	0	0
2024-06-22 15:46:32			0	35625	0	0	0	26745	25290	146504	27559	1024364	42793	109912	0	0	8140	646919	0	0
2024-06-22 15:47:32			0	35633	0	0	0	26758	25300	146536	27241	1024337	42774	109917	0	0	8140	646535	0	0
2024-06-22 15:48:32			0	35617	0	0	0	26742	25310	146552	27279	1024426	42763	109911	0	0	8139	647193	0	0
2024-06-22 15:49:32			0	35601	0	0	0	26719	25310	146616	27104	1024300	42786	109902	0	0	8139	647889	0	0
2024-06-22 15:50:32			0	35599	0	0	0	26724	25310	146764	27093	1024354	42763	109904	0	0	8139	647976	0	0
2024-06-22 15:51:32			0	35597	0	0	0	26740	25320	146820	27105	1024425	42775	109910	0	0	8138	648026	0	0
2024-06-22 15:52:32			0	35580	0	0	0	26724	25330	146768	27353	1024388	42765	109904	0	0	8138	648729	0	0
2024-06-22 15:53:32			0	35597	0	0	0	26766	25330	146832	26953	1024522	42765	109920	0	0	8138	647989	0	0
2024-06-22 15:54:32			0	35584	0	0	0	26789	25320	146808	27452	1024425	42764	109929	0	0	8137	648592	0	0
2024-06-22 15:55:32			0	35581	0	0	0	26773	25330	146700	27147	1024460	42765	109923	0	0	8137	648686	0	0
2024-06-22 15:56:32			0	35576	0	0	0	26750	25330	146884	27199	1024496	42765	109914	0	0	8137	648903	0	0
2024-06-22 15:57:32			0	35585	0	0	0	26755	25330	146828	27666	1024469	42788	109916	0	0	8137	648512	0	0
2024-06-22 15:58:32			0	35577	0	0	0	26781	25350	146908	27431	1024575	42778	109926	0	0	8137	648786	0	0
2024-06-22 15:59:32			0	35564	0	0	0	26776	25350	146776	27225	1024575	42778	109924	0	0	8136	649353	0	0
2024-06-22 16:00:32			0	35558	0	0	0	26797	25350	146808	27268	1024584	42778	109932	0	0	8135	649614	0	0
2024-06-22 16:01:32			0	35567	0	0	0	26818	25370	146832	27488	1024610	42769	109940	0	0	8136	649148	0	0
2024-06-22 16:02:32			0	35556	0	0	0	26807	25370	146888	27521	1024645	42780	109936	0	0	8135	649627	0	0
2024-06-22 16:03:32			0	35547	0	0	0	26810	25380	146844	27274	1024654	42791	109937	0	0	8135	649983	0	0
2024-06-22 16:04:32			0	35536	0	0	0	26784	25380	146952	27138	1024662	42782	109927	0	0	8135	650462	0	0
2024-06-22 16:05:32			0	35527	0	0	0	26846	25390	146996	27190	1024671	42782	109951	0	0	8133	650818	0	0
2024-06-22 16:06:32			0	35497	0	0	0	26844	25390	147008	27265	1024706	42783	109950	0	0	8131	652128	0	0
2024-06-22 16:07:32			0	35487	0	0	0	26846	25400	147092	27407	1024822	42783	109951	0	0	8131	652529	0	0
2024-06-22 16:08:32			0	35497	0	0	0	26810	25390	147132	27258	1024787	42783	109937	0	0	8132	652128	0	0
2024-06-22 16:09:32			0	35461	0	0	0	26841	25400	147244	27230	1024858	42784	109949	0	0	8130	653666	0	0
2024-06-22 16:10:32			0	35449	0	0	0	26823	25410	147356	27428	1024875	42795	109942	0	0	8129	654154	0	0
2024-06-22 16:11:32			0	35465	0	0	0	26841	25410	147332	27260	1024893	42785	109949	0	0	8130	653454	0	0
2024-06-22 16:12:32			0	35433	0	0	0	26870	25420	147336	27163	1024946	42796	109960	0	0	8128	654818	0	0
2024-06-22 16:13:32			0	35431	0	0	0	26862	25420	147288	27350	1024999	42796	109957	0	0	8128	654906	0	0
2024-06-22 16:14:32			0	35432	0	0	0	26877	25430	147380	27367	1024982	42787	109963	0	0	8128	654825	0	0
2024-06-22 16:15:32			0	35460	0	0	0	26880	25440	147240	27580	1024972	42787	109964	0	0	8129	653561	0	0
2024-06-22 16:16:32			0	35442	0	0	0	26880	25430	147296	27364	1025044	42797	109964	0	0	8128	654387	0	0
2024-06-22 16:17:32			0	35443	0	0	0	26929	25440	147228	27242	1025061	42787	109983	0	0	8127	654306	0	0
2024-06-22 16:18:32			0	35476	0	0	0	26914	25450	147192	26909	1025105	42799	109977	0	0	8129	652824	0	0
2024-06-22 16:19:32			0	35497	0	0	0	26906	25460	147132	27130	1025176	42789	109974	0	0	8131	651869	0	0
2024-06-22 16:20:32			0	35501	0	0	0	26922	25460	147092	27268	1025176	42811	109980	0	0	8131	651694	0	0
2024-06-22 16:21:32			0	35500	0	0	0	26911	25470	147080	27050	1025167	42780	109976	0	0	8131	651701	0	0
2024-06-22 16:22:32			0	35530	0	0	0	26948	25460	147004	27429	1025203	42800	109990	0	0	8132	650429	0	0
2024-06-22 16:23:32			0	35538	0	0	0	26929	25490	146972	27346	1025273	42791	109983	0	0	8133	649969	0	0
2024-06-22 16:24:32			0	35537	0	0	0	26924	25500	146920	27294	1025201	42782	109981	0	0	8133	649975	0	0
2024-06-22 16:25:32			0	35526	0	0	0	26935	25490	146980	27227	1025219	42781	109985	0	0	8132	650492	0	0
2024-06-22 16:26:32			0	35549	0	0	0	26942	25510	147012	27204	1025299	42803	109988	0	0	8133	649415	0	0
2024-06-22 16:27:32			0	35526	0	0	0	26942	25490	146948	27170	1025300	42814	109988	0	0	8132	650492	0	0
2024-06-22 16:28:32			0	35519	0	0	0	26924	25510	146884	27509	1025334	42793	109981	0	0	8132	650723	0	0
2024-06-22 16:29:32			0	35475	0	0	0	26942	25510	147096	27312	1025281	42783	109988	0	0	8129	652645	0	0
2024-06-22 16:30:32			0	35493	0	0	0	26945	25520	147140	27343	1025343	42794	109989	0	0	8130	651821	0	0
2024-06-22 16:31:32			0	35489	0	0	0	26940	25520	147108	27365	1025352	42805	109987	0	0	8130	651996	0	0
2024-06-22 16:32:32			0	35499	0	0	0	26942	25530	147028	27086	1025360	42794	109988	0	0	8131	651522	0	0
2024-06-22 16:33:32			0	35514	0	0	0	26986	25530	147076	27329	1025414	42805	110005	0	0	8131	650867	0	0
2024-06-22 16:34:32			0	35536	0	0	0	26979	25530	147028	27026	1025449	42806	110002	0	0	8132	649908	0	0
2024-06-22 16:35:32			0	35500	0	0	0	26961	25540	147044	27118	1025413	42797	109995	0	0	8130	651442	0	0
2024-06-22 16:36:32			0	35504	0	0	0	26958	25540	147068	27183	1025493	42808	109994	0	0	8131	651267	0	0
2024-06-22 16:37:32			0	35492	0	0	0	26955	25540	147096	27447	1025386	42797	109993	0	0	8130	651791	0	0
2024-06-22 16:38:32			0	35480	0	0	0	26968	25540	147116	27490	1025520	42808	109998	0	0	8129	652315	0	0
2024-06-22 16:39:32			0	35480	0	0	0	26963	25540	147136	27156	1025413	42797	109996	0	0	8129	652315	0	0
2024-06-22 16:40:32			0	35486	0	0	0	26935	25550	147080	27218	1025457	42808	109985	0	0	8130	652016	0	0
2024-06-22 16:41:32			0	35476	0	0	0	26961	25550	147128	27015	1025448	42797	109995	0	0	8129	652453	0	0
2024-06-22 16:42:32			0	35492	0	0	0	26974	25560	147128	27303	1025573	42798	110000	0	0	8130	651717	0	0
2024-06-22 16:43:32			0	35478	0	0	0	26963	25550	147200	27128	1025484	42808	109996	0	0	8129	652366	0	0
2024-06-22 16:44:32			0	35461	0	0	0	26974	25560	147148	27582	1025528	42798	110000	0	0	8128	653072	0	0
2024-06-22 16:45:32			0	35463	0	0	0	26994	25560	147036	27319	1025582	42798	110008	0	0	8128	652984	0	0
2024-06-22 16:46:32			0	35511	0	0	0	27010	25560	147028	27495	1025627	42798	110014	0	0	8130	650887	0	0
2024-06-22 16:47:32			0	35509	0	0	0	27012	25570	146908	27429	1025626	42821	110015	0	0	8130	650938	0	0
2024-06-22 16:48:32			0	35528	0	0	0	26994	25580	146944	27620	1025688	42799	110008	0	0	8131	650072	0	0
2024-06-22 16:49:32			0	35538	0	0	0	27002	25590	146856	27346	1025714	42812	110011	0	0	8132	649599	0	0
2024-06-22 16:50:32			0	35534	0	0	0	27018	25580	146784	27182	1025715	42811	110017	0	0	8131	649810	0	0
2024-06-22 16:51:32			0	35555	0	0	0	27005	25580	146776	27313	1025697	42812	110012	0	0	8133	648896	0	0
2024-06-22 16:52:32			0	35554	0	0	0	27025	25580	146868	27409	1025697	42812	110020	0	0	8132	648939	0	0
2024-06-22 16:53:32			0	35561	0	0	0	27025	25590	146784	27433	1025795	42812	110020	0	0	8133	648598	0	0
2024-06-22 16:54:32			0	35554	0	0	0	27028	25610	146800	27429	1025794	42803	110021	0	0	8132	648828	0	0
2024-06-22 16:55:32			0	35551	0	0	0	27031	25610	146920	27400	1025829	42803	110022	0	0	8132	648959	0	0
2024-06-22 16:56:32			0	35565	0	0	0	27041	25610	146804	27578	1025821	42803	110026	0	0	8133	648350	0	0
2024-06-22 16:57:32			0	35557	0	0	0	27046	25610	146872	27301	1025821	42803	110028	0	0	8132	648698	0	0
2024-06-22 16:58:32			0	35574	0	0	0	27023	25610	146796	27185	1025856	42826	110019	0	0	8134	647958	0	0
2024-06-22 16:59:32			0	35563	0	0	0	27028	25620	146780	27277	1025820	42804	110021	0	0	8133	648400	0	0
2024-06-22 17:00:32			0	35566	0	0	0	27028	25620	146644	27381	1025846	42804	110021	0	0	8133	648269	0	0
2024-06-22 17:01:32			0	35554	0	0	0	27031	25620	146808	27329	1025873	42815	110022	0	0	8132	648792	0	0
2024-06-22 17:02:32			0	35554	0	0	0	27033	25620	146752	27189	1025846	42804	110023	0	0	8132	648792	0	0
2024-06-22 17:03:32			0	35564	0	0	0	27031	25620	146840	27083	1025757	42803	110022	0	0	8133	648356	0	0
2024-06-22 17:04:32			0	35549	0	0	0	27028	25630	146872	27192	1025917	42816	110021	0	0	8132	648972	0	0
2024-06-22 17:05:32			0	35536	0	0	0	27025	25630	146780	27232	1025891	42805	110020	0	0	8132	649538	0	0
2024-06-22 17:06:32			0	35558	0	0	0	27072	25620	146772	27222	1025900	42804	110038	0	0	8132	648618	0	0
2024-06-22 17:07:32			0	35592	0	0	0	27077	25640	146696	27267	1025926	42805	110040	0	0	8134	647065	0	0
2024-06-22 17:08:32			0	35609	0	0	0	27070	25640	146652	27294	1025980	42828	110037	0	0	8135	646327	0	0
2024-06-22 17:09:32			0	35615	0	0	0	27046	25640	146656	27225	1025980	42794	110028	0	0	8135	646067	0	0
2024-06-22 17:10:32			0	35603	0	0	0	27051	25630	146632	27237	1025944	42805	110030	0	0	8135	646624	0	0
2024-06-22 17:11:32			0	35617	0	0	0	27038	25640	146624	27098	1025908	42806	110025	0	0	8136	645980	0	0
2024-06-22 17:12:32			0	35579	0	0	0	27067	25640	146696	27371	1025935	42806	110036	0	0	8133	647630	0	0
2024-06-22 17:13:32			0	35593	0	0	0	27046	25650	146660	27448	1025997	42829	110028	0	0	8134	646985	0	0
2024-06-22 17:14:32			0	35587	0	0	0	27049	25650	146696	27066	1025970	42818	110029	0	0	8134	647246	0	0
2024-06-22 17:15:32			0	35564	0	0	0	27044	25640	146764	27104	1025908	42806	110027	0	0	8133	648283	0	0
2024-06-22 17:16:32			0	35573	0	0	0	27046	25650	146668	27367	1025997	42807	110028	0	0	8133	647854	0	0
2024-06-22 17:17:32			0	35597	0	0	0	27064	25650	146772	27360	1026059	42807	110035	0	0	8134	646811	0	0
2024-06-22 17:18:32			0	35602	0	0	0	27057	25650	146760	27403	1026059	42818	110032	0	0	8135	646594	0	0
2024-06-22 17:19:32			0	35581	0	0	0	27054	25650	146696	27441	1025979	42807	110031	0	0	8134	647507	0	0
2024-06-22 17:20:32			0	35600	0	0	0	27057	25640	146672	27353	1025961	42795	110032	0	0	8135	646718	0	0
2024-06-22 17:21:32			0	35609	0	0	0	27059	25660	146656	27090	1026041	42818	110033	0	0	8135	646254	0	0
2024-06-22 17:22:32			0	35606	0	0	0	27070	25660	146568	27209	1026050	42819	110037	0	0	8135	646384	0	0
2024-06-22 17:23:32			0	35638	0	0	0	27075	25660	146508	27336	1026014	42818	110039	0	0	8136	644996	0	0
2024-06-22 17:24:32			0	35619	0	0	0	27054	25660	146644	27492	1026076	42819	110031	0	0	8136	645820	0	0
2024-06-22 17:25:32			0	35640	0	0	0	27054	25660	146576	26908	1026014	42807	110031	0	0	8137	644909	0	0
2024-06-22 17:26:32			0	35633	0	0	0	27054	25650	146588	27083	1025943	42818	110031	0	0	8136	645249	0	0
2024-06-22 17:27:32			0	35635	0	0	0	27054	25660	146532	27112	1026076	42819	110031	0	0	8137	645126	0	0
2024-06-22 17:28:32			0	35640	0	0	0	27080	25660	146548	27329	1026041	42807	110041	0	0	8136	644909	0	0
2024-06-22 17:29:32			0	35632	0	0	0	27059	25660	146560	27183	1026076	42808	110033	0	0	8136	645256	0	0
2024-06-22 17:30:32			0	35621	0	0	0	27044	25670	146600	27377	1026032	42820	110027	0	0	8136	645696	0	0
2024-06-22 17:31:32			0	35616	0	0	0	27057	25660	146600	27267	1026023	42819	110032	0	0	8135	645950	0	0
2024-06-22 17:32:32			0	35601	0	0	0	27054	25660	146684	27197	1026041	42807	110031	0	0	8135	646601	0	0
2024-06-22 17:33:32			0	35609	0	0	0	27059	25670	146652	27460	1025978	42820	110033	0	0	8135	646217	0	0
2024-06-22 17:34:32			0	35624	0	0	0	27064	25660	146540	27005	1026076	42819	110035	0	0	8136	645603	0	0
2024-06-22 17:35:32			0	35577	0	0	0	27051	25670	146728	27168	1026032	42820	110030	0	0	8134	647607	0	0
2024-06-22 17:36:32			0	35584	0	0	0	27072	25650	146712	27182	1026006	42818	110038	0	0	8133	647376	0	0
2024-06-22 17:37:32			0	35623	0	0	0	27072	25660	146700	27222	1026050	42808	110038	0	0	8136	645646	0	0
2024-06-22 17:38:32			0	35626	0	0	0	27077	25670	146620	27261	1026112	42820	110040	0	0	8136	645479	0	0
2024-06-22 17:39:32			0	35628	0	0	0	27075	25670	146724	27443	1025987	42853	110039	0	0	8136	645393	0	0
2024-06-22 17:40:32			0	35610	0	0	0	27077	25670	146648	27230	1026148	42820	110040	0	0	8135	646174	0	0
2024-06-22 17:41:32			0	35592	0	0	0	27088	25670	146740	27308	1026085	42809	110044	0	0	8134	646955	0	0
2024-06-22 17:42:32			0	35624	0	0	0	27077	25680	146756	27208	1026103	42810	110040	0	0	8136	645529	0	0
2024-06-22 17:43:32			0	35592	0	0	0	27075	25670	146700	27293	1026094	42797	110039	0	0	8134	646955	0	0
2024-06-22 17:44:32			0	35591	0	0	0	27088	25680	146776	27026	1026103	42821	110044	0	0	8134	646962	0	0
2024-06-22 17:45:32			0	35613	0	0	0	27085	25670	146744	27071	1026201	42820	110043	0	0	8135	646043	0	0
2024-06-22 17:46:32			0	35615	0	0	0	27088	25670	146760	27088	1026148	42809	110044	0	0	8135	645956	0	0
2024-06-22 17:47:32			0	35621	0	0	0	27093	25690	146552	27333	1026174	42811	110046	0	0	8135	645623	0	0
2024-06-22 17:48:32			0	35635	0	0	0	27101	25690	146572	27346	1026209	42823	110049	0	0	8136	645016	0	0
2024-06-22 17:49:32			0	35641	0	0	0	27098	25690	146540	26906	1026183	42811	110048	0	0	8136	644756	0	0
2024-06-22 17:50:32			0	35644	0	0	0	27119	25690	146472	27041	1026236	42811	110056	0	0	8136	644626	0	0
2024-06-22 17:51:32			0	35672	0	0	0	27114	25690	146516	27069	1026236	42811	110054	0	0	8138	643414	0	0
2024-06-22 17:52:32			0	35654	0	0	0	27127	25700	146488	27156	1026218	42823	110059	0	0	8136	644156	0	0
2024-06-22 17:53:32			0	35641	0	0	0	27111	25690	146572	26951	1026236	42823	110053	0	0	8136	644756	0	0
2024-06-22 17:54:32			0	35626	0	0	0	27122	25700	146652	27289	1026254	42823	110057	0	0	8135	645369	0	0
2024-06-22 17:55:32			0	35609	0	0	0	27116	25700	146612	27180	1026254	42811	110055	0	0	8134	646107	0	0
2024-06-22 17:56:32			0	35600	0	0	0	27124	25710	146672	27218	1026262	42834	110058	0	0	8134	646460	0	0
2024-06-22 17:57:32			0	35617	0	0	0	27142	25710	146672	27656	1026289	42834	110065	0	0	8134	645723	0	0
2024-06-22 17:58:32			0	35619	0	0	0	27127	25710	146620	27033	1026351	42825	110059	0	0	8135	645636	0	0
2024-06-22 17:59:32			0	35595	0	0	0	27137	25720	146616	27140	1026387	42813	110063	0	0	8133	646641	0	0
2024-06-22 18:00:32			0	35568	0	0	0	27153	25710	146812	26948	1026325	42835	110069	0	0	8131	647850	0	0
2024-06-22 18:01:32			0	35585	0	0	0	27153	25730	146672	27043	1026431	42826	110069	0	0	8132	647038	0	0
2024-06-22 18:02:32			0	35590	0	0	0	27163	25740	146736	27526	1026475	42827	110073	0	0	8133	646784	0	0
2024-06-22 18:03:32			0	35610	0	0	0	27150	25740	146744	27469	1026421	42827	110068	0	0	8134	645916	0	0
2024-06-22 18:04:32			0	35603	0	0	0	27158	25740	146780	27046	1026475	42815	110071	0	0	8133	646220	0	0
2024-06-22 18:05:32			0	35599	0	0	0	27161	25740	146628	27272	1026502	42827	110072	0	0	8133	646393	0	0
2024-06-22 18:06:32			0	35634	0	0	0	27166	25740	146608	27213	1026475	42815	110074	0	0	8135	644876	0	0
2024-06-22 18:07:32			0	35624	0	0	0	27174	25740	146620	27414	1026510	42827	110077	0	0	8134	645309	0	0
2024-06-22 18:08:32			0	35632	0	0	0	27179	25750	146492	27294	1026546	42816	110079	0	0	8135	644926	0	0
2024-06-22 18:09:32			0	35603	0	0	0	27176	25750	146496	27341	1026519	42838	110078	0	0	8133	646183	0	0
2024-06-22 18:10:32			0	35636	0	0	0	27184	25760	146568	26994	1026536	42839	110081	0	0	8135	644715	0	0
2024-06-22 18:11:32			0	35644	0	0	0	27199	25760	146536	26948	1026563	42828	110087	0	0	8135	644369	0	0
2024-06-22 18:12:32			0	35630	0	0	0	27192	25760	146632	26960	1026626	42840	110084	0	0	8134	644975	0	0
2024-06-22 18:13:32			0	35620	0	0	0	27192	25770	146556	27348	1026634	42807	110084	0	0	8134	645372	0	0
2024-06-22 18:14:32			0	35612	0	0	0	27202	25770	146580	27213	1026581	42829	110088	0	0	8133	645719	0	0
2024-06-22 18:15:32			0	35607	0	0	0	27205	25780	146536	27319	1026651	42831	110089	0	0	8133	645899	0	0
2024-06-22 18:16:32			0	35601	0	0	0	27205	25780	146608	27171	1026705	42831	110089	0	0	8133	646159	0	0
2024-06-22 18:17:32			0	35606	0	0	0	27218	25780	146676	26804	1026705	42820	110094	0	0	8133	645942	0	0
2024-06-22 18:18:32			0	35588	0	0	0	27205	25800	146652	27284	1026767	42843	110089	0	0	8132	646650	0	0
2024-06-22 18:19:32			0	35597	0	0	0	27223	25790	146732	27287	1026741	42831	110096	0	0	8132	646296	0	0
2024-06-22 18:20:32			0	35616	0	0	0	27220	25790	146648	27310	1026749	42820	110095	0	0	8133	645472	0	0
2024-06-22 18:21:32			0	35594	0	0	0	27225	25800	146592	27249	1026740	42843	110097	0	0	8132	646389	0	0
2024-06-22 18:22:32			0	35619	0	0	0	27218	25800	146592	27211	1026731	42842	110094	0	0	8134	645305	0	0
2024-06-22 18:23:32			0	35620	0	0	0	27220	25810	146656	27107	1026757	42844	110095	0	0	8134	645225	0	0
2024-06-22 18:24:32			0	35596	0	0	0	27231	25810	146616	27357	1026811	42833	110099	0	0	8132	646266	0	0
2024-06-22 18:25:32			0	35593	0	0	0	27233	25810	146624	27213	1026802	42833	110100	0	0	8132	646396	0	0
2024-06-22 18:26:32			0	35593	0	0	0	27238	25820	146724	27215	1026846	42844	110102	0	0	8132	646359	0	0
2024-06-22 18:27:32			0	35595	0	0	0	27225	25810	146712	26946	1026811	42833	110097	0	0	8132	646309	0	0
2024-06-22 18:28:32			0	35581	0	0	0	27220	25810	146836	27026	1026757	42833	110095	0	0	8132	646917	0	0
2024-06-22 18:29:32			0	35547	0	0	0	27223	25810	146760	27448	1026784	42833	110096	0	0	8130	648395	0	0
2024-06-22 18:30:32			0	35568	0	0	0	27233	25820	146760	27260	1026739	42823	110100	0	0	8131	647445	0	0
2024-06-22 18:31:32			0	35550	0	0	0	27236	25820	146808	27339	1026828	42834	110101	0	0	8130	648227	0	0
2024-06-22 18:32:32			0	35555	0	0	0	27231	25820	146824	27242	1026820	42833	110099	0	0	8130	648010	0	0
2024-06-22 18:33:32			0	35567	0	0	0	27241	25830	146700	27137	1026864	42834	110103	0	0	8130	647451	0	0
2024-06-22 18:34:32			0	35569	0	0	0	27231	25820	146888	26977	1026801	42823	110099	0	0	8131	647401	0	0
2024-06-22 18:35:32			0	35551	0	0	0	27225	25830	146852	27256	1026810	42823	110097	0	0	8130	648147	0	0
2024-06-22 18:36:32			0	35544	0	0	0	27233	25830	146928	26819	1026837	42834	110100	0	0	8129	648451	0	0
2024-06-22 18:37:32			0	35553	0	0	0	27220	25830	146900	27249	1026864	42845	110095	0	0	8130	648060	0	0
2024-06-22 18:38:32			0	35535	0	0	0	27231	25820	146848	27036	1026909	42834	110099	0	0	8129	648880	0	0
2024-06-22 18:39:32			0	35531	0	0	0	27215	25820	146968	27126	1026828	42845	110093	0	0	8129	649054	0	0
2024-06-22 18:40:32			0	35491	0	0	0	27223	25830	147084	27360	1026846	42846	110096	0	0	8127	650759	0	0
2024-06-22 18:41:32			0	35525	0	0	0	27233	25830	147004	26991	1026837	42845	110100	0	0	8128	649278	0	0
2024-06-22 18:42:32			0	35516	0	0	0	27223	25830	146980	27388	1026837	42823	110096	0	0	8128	649670	0	0
2024-06-22 18:43:32			0	35498	0	0	0	27220	25830	147056	27128	1026810	42834	110095	0	0	8127	650454	0	0
2024-06-22 18:44:32			0	35511	0	0	0	27228	25820	147064	27324	1026793	42833	110098	0	0	8128	649925	0	0
2024-06-22 18:45:32			0	35507	0	0	0	27225	25830	147148	27573	1026837	42834	110097	0	0	8128	650062	0	0
2024-06-22 18:46:32			0	35515	0	0	0	27215	25830	147128	27301	1026864	42834	110093	0	0	8128	649714	0	0
2024-06-22 18:47:32			0	35500	0	0	0	27210	25830	147020	27275	1026837	42823	110091	0	0	8127	650367	0	0
2024-06-22 18:48:32			0	35483	0	0	0	27207	25830	147116	27183	1026765	42835	110090	0	0	8127	651108	0	0
2024-06-22 18:49:32			0	35494	0	0	0	27220	25820	147216	27147	1026820	42811	110095	0	0	8127	650666	0	0
2024-06-22 18:50:32			0	35490	0	0	0	27218	25820	147120	27078	1026828	42845	110094	0	0	8127	650840	0	0
2024-06-22 18:51:32			0	35482	0	0	0	27207	25820	147156	27157	1026828	42834	110090	0	0	8126	651189	0	0
2024-06-22 18:52:32			0	35484	0	0	0	27231	25830	147180	27097	1026837	42857	110099	0	0	8126	651065	0	0
2024-06-22 18:53:32			0	35445	0	0	0	27207	25820	147224	27357	1026739	42833	110090	0	0	8125	652805	0	0
2024-06-22 18:54:32			0	35481	0	0	0	27223	25820	147184	27109	1026820	42833	110096	0	0	8126	651233	0	0
2024-06-22 18:55:32			0	35474	0	0	0	27233	25820	147208	27197	1026828	42834	110100	0	0	8126	651538	0	0
2024-06-22 18:56:32			0	35477	0	0	0	27220	25820	147208	27365	1026828	42823	110095	0	0	8126	651407	0	0
2024-06-22 18:57:32			0	35480	0	0	0	27210	25820	147208	27308	1026766	42856	110091	0	0	8126	651277	0	0
2024-06-22 18:58:32			0	35460	0	0	0	27205	25830	147244	27317	1026819	42846	110089	0	0	8125	652112	0	0
2024-06-22 18:59:32			0	35464	0	0	0	27199	25820	147284	27034	1026801	42834	110087	0	0	8126	651975	0	0
2024-06-22 19:00:32			0	35458	0	0	0	27194	25810	147256	27294	1026757	42844	110085	0	0	8125	652274	0	0
2024-06-22 19:01:32			0	35451	0	0	0	27199	25810	147328	27464	1026811	42844	110087	0	0	8125	652580	0	0
2024-06-22 19:02:32			0	35437	0	0	0	27205	25820	147352	27097	1026766	42844	110089	0	0	8124	653155	0	0
2024-06-22 19:03:32			0	35446	0	0	0	27210	25820	147544	27319	1026793	42823	110091	0	0	8125	652761	0	0
2024-06-22 19:04:32			0	35455	0	0	0	27205	25820	147400	27249	1026739	42844	110089	0	0	8125	652368	0	0
2024-06-22 19:05:32			0	35437	0	0	0	27189	25810	147336	26913	1026749	42833	110083	0	0	8124	653192	0	0
2024-06-22 19:06:32			0	35431	0	0	0	27197	25810	147388	27100	1026731	42833	110086	0	0	8124	653454	0	0
2024-06-22 19:07:32			0	35430	0	0	0	27194	25810	147376	27211	1026722	42843	110085	0	0	8124	653498	0	0
2024-06-22 19:08:32			0	35419	0	0	0	27199	25810	147396	27043	1026802	42833	110087	0	0	8123	653979	0	0
2024-06-22 19:09:32			0	35411	0	0	0	27199	25810	147536	26996	1026731	42844	110087	0	0	8123	654330	0	0
2024-06-22 19:10:32			0	35422	0	0	0	27192	25810	147388	27204	1026722	42843	110084	0	0	8123	653848	0	0
2024-06-22 19:11:32			0	35442	0	0	0	27192	25800	147336	27277	1026704	42832	110084	0	0	8125	653010	0	0
2024-06-22 19:12:32			0	35432	0	0	0	27192	25800	147536	27305	1026651	42842	110084	0	0	8124	653448	0	0
2024-06-22 19:13:32			0	35413	0	0	0	27194	25810	147536	27249	1026757	42833	110085	0	0	8123	654242	0	0
2024-06-22 19:14:32			0	35404	0	0	0	27197	25800	147448	27343	1026704	42832	110086	0	0	8122	654674	0	0
2024-06-22 19:15:32			0	35447	0	0	0	27181	25800	147528	27216	1026713	42843	110080	0	0	8125	652792	0	0
2024-06-22 19:16:32			0	35403	0	0	0	27186	25800	147500	27353	1026713	42833	110082	0	0	8123	654717	0	0
2024-06-22 19:17:32			0	35427	0	0	0	27181	25800	147544	27480	1026713	42822	110080	0	0	8124	653667	0	0
2024-06-22 19:18:32			0	35399	0	0	0	27189	25800	147504	27331	1026704	42832	110083	0	0	8122	654893	0	0
2024-06-22 19:19:32			0	35401	0	0	0	27189	25790	147648	27326	1026615	42820	110083	0	0	8122	654842	0	0
2024-06-22 19:20:32			0	35394	0	0	0	27181	25790	147624	27679	1026669	42841	110080	0	0	8122	655149	0	0
2024-06-22 19:21:32			0	35386	0	0	0	27194	25800	147512	27078	1026624	42832	110085	0	0	8121	655462	0	0
2024-06-22 19:22:32			0	35375	0	0	0	27186	25790	147668	27059	1026696	42853	110082	0	0	8121	655982	0	0
2024-06-22 19:23:32			0	35374	0	0	0	27189	25790	147664	27246	1026722	42841	110083	0	0	8121	656026	0	0
2024-06-22 19:24:32			0	35366	0	0	0	27174	25790	147716	27286	1026696	42853	110077	0	0	8121	656377	0	0
2024-06-22 19:25:32			0	35357	0	0	0	27168	25790	147748	27263	1026669	42831	110075	0	0	8120	656772	0	0
2024-06-22 19:26:32			0	35351	0	0	0	27184	25790	147716	27322	1026714	42841	110081	0	0	8120	657036	0	0
2024-06-22 19:27:32			0	35363	0	0	0	27176	25780	147768	27320	1026598	42831	110078	0	0	8120	656546	0	0
2024-06-22 19:28:32			0	35353	0	0	0	27181	25780	147676	27410	1026625	42831	110080	0	0	8120	656985	0	0
2024-06-22 19:29:32			0	35363	0	0	0	27176	25780	147796	27053	1026678	42831	110078	0	0	8120	656546	0	0
2024-06-22 19:30:32			0	35333	0	0	0	27181	25800	147768	27412	1026624	42821	110080	0	0	8119	657789	0	0
2024-06-22 19:31:32			0	35345	0	0	0	27171	25790	147844	27010	1026580	42841	110076	0	0	8120	657299	0	0
2024-06-22 19:32:32			0	35339	0	0	0	27176	25780	147928	27176	1026625	42841	110078	0	0	8119	657600	0	0
2024-06-22 19:33:32			0	35325	0	0	0	27181	25770	147892	27237	1026581	42829	110080	0	0	8118	658253	0	0
2024-06-22 19:34:32			0	35322	0	0	0	27168	25780	147896	27059	1026625	42841	110075	0	0	8118	658348	0	0
2024-06-22 19:35:32			0	35320	0	0	0	27166	25780	147904	26889	1026571	42831	110074	0	0	8118	658436	0	0
2024-06-22 19:36:32			0	35317	0	0	0	27174	25780	148000	27350	1026589	42830	110077	0	0	8118	658568	0	0
2024-06-22 19:37:32			0	35293	0	0	0	27168	25780	148000	27187	1026544	42820	110075	0	0	8117	659624	0	0
2024-06-22 19:38:32			0	35281	0	0	0	27171	25770	148088	27362	1026581	42829	110076	0	0	8116	660190	0	0
2024-06-22 19:39:32			0	35285	0	0	0	27168	25760	148168	27388	1026545	42862	110075	0	0	8116	660052	0	0
2024-06-22 19:40:32			0	35278	0	0	0	27166	25770	148108	26998	1026607	42829	110074	0	0	8116	660323	0	0
2024-06-22 19:41:32			0	35266	0	0	0	27166	25760	148164	26963	1026626	42851	110074	0	0	8115	660890	0	0
2024-06-22 19:42:32			0	35268	0	0	0	27176	25770	148220	27474	1026634	42829	110078	0	0	8115	660764	0	0
2024-06-22 19:43:32			0	35258	0	0	0	27176	25760	148192	27085	1026572	42851	110078	0	0	8115	661243	0	0
2024-06-22 19:44:32			0	35267	0	0	0	27153	25780	148196	27111	1026643	42841	110069	0	0	8116	660770	0	0
2024-06-22 19:45:32			0	35256	0	0	0	27166	25770	148188	27274	1026607	42829	110074	0	0	8115	661293	0	0
2024-06-22 19:46:32			0	35251	0	0	0	27166	25760	148320	27163	1026572	42840	110074	0	0	8115	661551	0	0
2024-06-22 19:47:32			0	35254	0	0	0	27166	25760	148292	27300	1026536	42828	110074	0	0	8115	661419	0	0
2024-06-22 19:48:32			0	35249	0	0	0	27166	25760	148360	27279	1026590	42817	110074	0	0	8114	661640	0	0
2024-06-22 19:49:32			0	35232	0	0	0	27155	25760	148300	27518	1026590	42839	110070	0	0	8114	662391	0	0
2024-06-22 19:50:32			0	35246	0	0	0	27161	25760	148344	27307	1026599	42829	110072	0	0	8114	661772	0	0
2024-06-22 19:51:32			0	35242	0	0	0	27158	25760	148420	27156	1026563	42828	110071	0	0	8114	661949	0	0
2024-06-22 19:52:32			0	35210	0	0	0	27158	25770	148416	27317	1026527	42829	110071	0	0	8112	663325	0	0
2024-06-22 19:53:32			0	35215	0	0	0	27155	25760	148448	27379	1026599	42829	110070	0	0	8113	663142	0	0
2024-06-22 19:54:32			0	35211	0	0	0	27166	25760	148528	27365	1026590	42828	110074	0	0	8112	663319	0	0
2024-06-22 19:55:32			0	35202	0	0	0	27158	25750	148504	27386	1026501	42828	110071	0	0	8112	663755	0	0
2024-06-22 19:56:32			0	35197	0	0	0	27148	25750	148516	27149	1026474	42839	110067	0	0	8112	663976	0	0
2024-06-22 19:57:32			0	35205	0	0	0	27150	25760	148540	27150	1026483	42828	110068	0	0	8112	663584	0	0
2024-06-22 19:58:32			0	35191	0	0	0	27140	25760	148628	27015	1026510	42861	110064	0	0	8112	664204	0	0
2024-06-22 19:59:32			0	35186	0	0	0	27145	25750	148692	27371	1026447	42850	110066	0	0	8111	664463	0	0
2024-06-22 20:00:32			0	35192	0	0	0	27145	25740	148540	27173	1026430	42827	110066	0	0	8112	664235	0	0
2024-06-22 20:01:32			0	35199	0	0	0	27145	25750	148632	27287	1026466	42827	110066	0	0	8112	663888	0	0
2024-06-22 20:02:32			0	35187	0	0	0	27135	25750	148540	27190	1026474	42839	110062	0	0	8112	664419	0	0
2024-06-22 20:03:32			0	35193	0	0	0	27137	25740	148532	27376	1026475	42837	110063	0	0	8112	664191	0	0
2024-06-22 20:04:32			0	35167	0	0	0	27140	25750	148584	27540	1026492	42827	110064	0	0	8110	665305	0	0
2024-06-22 20:05:32			0	35171	0	0	0	27145	25740	148668	27585	1026484	42860	110066	0	0	8110	665166	0	0
2024-06-22 20:06:32			0	35163	0	0	0	27142	25750	148660	27085	1026466	42849	110065	0	0	8110	665483	0	0
2024-06-22 20:07:32			0	35160	0	0	0	27148	25740	148764	27339	1026430	42849	110067	0	0	8110	665654	0	0
2024-06-22 20:08:32			0	35137	0	0	0	27142	25740	148684	26817	1026430	42827	110065	0	0	8109	666674	0	0
2024-06-22 20:09:32			0	35127	0	0	0	27140	25730	148848	27241	1026440	42827	110064	0	0	8108	667156	0	0
2024-06-22 20:10:32			0	35137	0	0	0	27145	25740	148800	27538	1026421	42827	110066	0	0	8109	666674	0	0
2024-06-22 20:11:32			0	35136	0	0	0	27148	25730	148768	27105	1026466	42827	110067	0	0	8108	666756	0	0
2024-06-22 20:12:32			0	35105	0	0	0	27142	25740	148823	27239	1026448	42827	110065	0	0	8107	668096	0	0
2024-06-22 20:13:32			0	35125	0	0	0	27129	25740	148760	27360	1026502	42815	110060	0	0	8108	667207	0	0
2024-06-22 20:14:32			0	35104	0	0	0	27137	25740	148972	27211	1026368	42827	110063	0	0	8107	668140	0	0
2024-06-22 20:15:32			0	35109	0	0	0	27129	25730	148875	27142	1026413	42848	110060	0	0	8107	667956	0	0
2024-06-22 20:16:32			0	35114	0	0	0	27132	25740	148940	27230	1026430	42838	110061	0	0	8108	667696	0	0
2024-06-22 20:17:32			0	35102	0	0	0	27132	25730	148931	27374	1026324	42826	110061	0	0	8107	668267	0	0
2024-06-22 20:18:32			0	35092	0	0	0	27124	25740	149051	27279	1026395	42837	110058	0	0	8107	668674	0	0
2024-06-22 20:19:32			0	35077	0	0	0	27127	25730	149039	27258	1026377	42826	110059	0	0	8106	669380	0	0
2024-06-22 20:20:32			0	35084	0	0	0	27119	25730	149047	27268	1026377	42836	110056	0	0	8106	669068	0	0
2024-06-22 20:21:32			0	35055	0	0	0	27116	25720	149035	27119	1026333	42813	110055	0	0	8105	670399	0	0
2024-06-22 20:22:32			0	35080	0	0	0	27127	25730	149007	26963	1026404	42836	110059	0	0	8106	669246	0	0
2024-06-22 20:23:32			0	35069	0	0	0	27124	25720	148987	26899	1026315	42835	110058	0	0	8105	669775	0	0
2024-06-22 20:24:32			0	35091	0	0	0	27116	25730	148951	27341	1026404	42836	110055	0	0	8107	668757	0	0
2024-06-22 20:25:32			0	35089	0	0	0	27106	25720	148995	27020	1026387	42835	110051	0	0	8107	668884	0	0
2024-06-22 20:26:32			0	35078	0	0	0	27111	25720	148987	27194	1026333	42825	110053	0	0	8106	669374	0	0
2024-06-22 20:27:32			0	35044	0	0	0	27116	25720	149179	26994	1026333	42825	110055	0	0	8104	670889	0	0
2024-06-22 20:28:32			0	35047	0	0	0	27103	25720	149175	27098	1026333	42825	110050	0	0	8104	670755	0	0
2024-06-22 20:29:32			0	35038	0	0	0	27103	25710	149163	27156	1026298	42825	110050	0	0	8104	671195	0	0
2024-06-22 20:30:32			0	35043	0	0	0	27096	25710	149231	27078	1026298	42825	110047	0	0	8104	670972	0	0
2024-06-22 20:31:32			0	35015	0	0	0	27098	25700	149319	27303	1026334	42823	110048	0	0	8103	672260	0	0
2024-06-22 20:32:32			0	35030	0	0	0	27101	25700	149323	27466	1026280	42833	110049	0	0	8103	671590	0	0
2024-06-22 20:33:32			0	35019	0	0	0	27085	25700	149307	27251	1026307	42823	110043	0	0	8103	672082	0	0
2024-06-22 20:34:32			0	35017	0	0	0	27090	25700	149199	27050	1026245	42844	110045	0	0	8103	672171	0	0
2024-06-22 20:35:32			0	35030	0	0	0	27096	25700	149235	27352	1026280	42844	110047	0	0	8104	671590	0	0
2024-06-22 20:36:32			0	35046	0	0	0	27090	25700	149251	27305	1026200	42823	110045	0	0	8104	670876	0	0
2024-06-22 20:37:32			0	35026	0	0	0	27085	25700	149315	27422	1026227	42823	110043	0	0	8103	671769	0	0
2024-06-22 20:38:32			0	35017	0	0	0	27083	25700	149375	27478	1026272	42833	110042	0	0	8103	672171	0	0
2024-06-22 20:39:32			0	34996	0	0	0	27083	25690	149399	27479	1026209	42833	110042	0	0	8102	673148	0	0
2024-06-22 20:40:32			0	34978	0	0	0	27077	25690	149467	27142	1026147	42822	110040	0	0	8101	673953	0	0
2024-06-22 20:41:32			0	34958	0	0	0	27090	25690	149555	27341	1026183	42833	110045	0	0	8100	674849	0	0
2024-06-22 20:42:32			0	34943	0	0	0	27085	25690	149647	27346	1026209	42844	110043	0	0	8099	675521	0	0
2024-06-22 20:43:32			0	34934	0	0	0	27077	25670	149695	27467	1026175	42820	110040	0	0	8098	676002	0	0
2024-06-22 20:44:32			0	34925	0	0	0	27077	25670	149687	27239	1026148	42842	110040	0	0	8098	676406	0	0
2024-06-22 20:45:32			0	34920	0	0	0	27075	25680	149671	27241	1026245	42821	110039	0	0	8098	676592	0	0
2024-06-22 20:46:32			0	34912	0	0	0	27067	25670	149699	27209	1026148	42809	110036	0	0	8097	676990	0	0
2024-06-22 20:47:32			0	34928	0	0	0	27067	25680	149731	27412	1026156	42821	110036	0	0	8098	676233	0	0
2024-06-22 20:48:32			0	34908	0	0	0	27062	25670	149803	27182	1026175	42831	110034	0	0	8097	677169	0	0
2024-06-22 20:49:32			0	34884	0	0	0	27080	25680	149903	27315	1026130	42832	110041	0	0	8096	678210	0	0
2024-06-22 20:50:32			0	34880	0	0	0	27088	25670	149927	27428	1026175	42820	110044	0	0	8095	678428	0	0
2024-06-22 20:51:32			0	34836	0	0	0	27083	25670	149987	27187	1026166	42831	110042	0	0	8093	680410	0	0
2024-06-22 20:52:32			0	34846	0	0	0	27083	25670	150075	27255	1026148	42831	110042	0	0	8094	679959	0	0
2024-06-22 20:53:32			0	34839	0	0	0	27072	25670	150123	27124	1026112	42853	110038	0	0	8093	680275	0	0
2024-06-22 20:54:32			0	34813	0	0	0	27067	25660	150175	27331	1026103	42830	110036	0	0	8092	681486	0	0
2024-06-22 20:55:32			0	34790	0	0	0	27062	25660	150227	27164	1026068	42829	110034	0	0	8091	682525	0	0
2024-06-22 20:56:32			0	34769	0	0	0	27046	25660	150315	27459	1026095	42851	110028	0	0	8090	683475	0	0
2024-06-22 20:57:32			0	34779	0	0	0	27054	25660	150303	27147	1026050	42819	110031	0	0	8090	683023	0	0
2024-06-22 20:58:32			0	34775	0	0	0	27059	25660	150387	27294	1026041	42829	110033	0	0	8090	683204	0	0
2024-06-22 20:59:32			0	34764	0	0	0	27062	25660	150403	27274	1026095	42829	110034	0	0	8089	683701	0	0
2024-06-22 21:00:32			0	34750	0	0	0	27062	25650	150555	27396	1025979	42829	110034	0	0	8089	684374	0	0
2024-06-22 21:01:32			0	34758	0	0	0	27067	25660	150451	27286	1026121	42818	110036	0	0	8089	683973	0	0
2024-06-22 21:02:32			0	34743	0	0	0	27080	25650	150571	27194	1026086	42829	110041	0	0	8088	684691	0	0
2024-06-22 21:03:32			0	34752	0	0	0	27080	25660	150531	27066	1026148	42840	110041	0	0	8088	684245	0	0
2024-06-22 21:04:32			0	34767	0	0	0	27070	25660	150383	27114	1026157	42830	110037	0	0	8089	683566	0	0
2024-06-22 21:05:32			0	34758	0	0	0	27070	25660	150499	27199	1026148	42829	110037	0	0	8089	683973	0	0
2024-06-22 21:06:32			0	34772	0	0	0	27070	25660	150427	27166	1026068	42829	110037	0	0	8090	683339	0	0
2024-06-22 21:07:32			0	34751	0	0	0	27057	25660	150467	27291	1026095	42818	110032	0	0	8089	684290	0	0
2024-06-22 21:08:32			0	34756	0	0	0	27049	25660	150471	27357	1026076	42841	110029	0	0	8089	684063	0	0
2024-06-22 21:09:32			0	34736	0	0	0	27046	25650	150611	27260	1026032	42840	110028	0	0	8088	685008	0	0
2024-06-22 21:10:32			0	34693	0	0	0	27036	25660	150731	27274	1026068	42818	110024	0	0	8086	686920	0	0
2024-06-22 21:11:32			0	34661	0	0	0	27049	25650	150919	27410	1026113	42829	110029	0	0	8084	688414	0	0
2024-06-22 21:12:32			0	34632	0	0	0	27070	25650	150999	27310	1026051	42829	110037	0	0	8082	689734	0	0
2024-06-22 21:13:32			0	34624	0	0	0	27057	25640	151107	27279	1026095	42839	110032	0	0	8082	690138	0	0
2024-06-22 21:14:32			0	34632	0	0	0	27062	25660	151127	27109	1026095	42829	110034	0	0	8082	689695	0	0
2024-06-22 21:15:32			0	34618	0	0	0	27062	25660	151111	27428	1026068	42840	110034	0	0	8081	690333	0	0
2024-06-22 21:16:32			0	34601	0	0	0	27033	25650	151135	27443	1026032	42807	110023	0	0	8081	691148	0	0
2024-06-22 21:17:32			0	34592	0	0	0	27038	25650	151219	27500	1026051	42818	110025	0	0	8080	691558	0	0
2024-06-22 21:18:32			0	34584	0	0	0	27046	25640	151243	27272	1026033	42828	110028	0	0	8080	691963	0	0
2024-06-22 21:19:32			0	34586	0	0	0	27046	25650	151307	27281	1026024	42829	110028	0	0	8080	691832	0	0
2024-06-22 21:20:32			0	34573	0	0	0	27070	25640	151231	27001	1026042	42829	110037	0	0	8079	692466	0	0
2024-06-22 21:21:32			0	34562	0	0	0	27059	25640	151395	27275	1026042	42817	110033	0	0	8078	692968	0	0
2024-06-22 21:22:32			0	34560	0	0	0	27044	25640	151435	27196	1026042	42829	110027	0	0	8078	693060	0	0
2024-06-22 21:23:32			0	34590	0	0	0	27044	25640	151339	26828	1026015	42817	110027	0	0	8080	691689	0	0
2024-06-22 21:24:32			0	34577	0	0	0	27028	25640	151271	27234	1026033	42828	110021	0	0	8080	692283	0	0
2024-06-22 21:25:32			0	34581	0	0	0	27033	25640	151323	27329	1026006	42828	110023	0	0	8080	692100	0	0
2024-06-22 21:26:32			0	34571	0	0	0	27028	25630	151335	26965	1026025	42816	110021	0	0	8079	692596	0	0
2024-06-22 21:27:32			0	34572	0	0	0	27025	25630	151359	27237	1026025	42816	110020	0	0	8079	692551	0	0
2024-06-22 21:28:32			0	34571	0	0	0	27023	25640	151307	27081	1026015	42806	110019	0	0	8079	692557	0	0
2024-06-22 21:29:32			0	34577	0	0	0	27036	25630	151367	27244	1025998	42838	110024	0	0	8080	692322	0	0
2024-06-22 21:30:32			0	34549	0	0	0	27028	25630	151427	27261	1025962	42828	110021	0	0	8078	693602	0	0
2024-06-22 21:31:32			0	34543	0	0	0	27015	25620	151447	27396	1025900	42837	110016	0	0	8078	693917	0	0
2024-06-22 21:32:32			0	34542	0	0	0	27012	25630	151455	27064	1025936	42816	110015	0	0	8078	693923	0	0
2024-06-22 21:33:32			0	34519	0	0	0	27007	25630	151543	27197	1025909	42828	110013	0	0	8077	694976	0	0
2024-06-22 21:34:32			0	34523	0	0	0	27012	25620	151523	27218	1025954	42827	110015	0	0	8077	694833	0	0
2024-06-22 21:35:32			0	34521	0	0	0	26997	25620	151535	27320	1025900	42827	110009	0	0	8077	694924	0	0
2024-06-22 21:36:32			0	34524	0	0	0	26992	25610	151651	27602	1025856	42814	110007	0	0	8077	694826	0	0
2024-06-22 21:37:32			0	34522	0	0	0	26984	25610	151611	27020	1025883	42826	110004	0	0	8077	694918	0	0
2024-06-22 21:38:32			0	34498	0	0	0	27002	25610	151723	27303	1025856	42826	110011	0	0	8076	696018	0	0
2024-06-22 21:39:32			0	34511	0	0	0	26999	25620	151787	27112	1025891	42814	110010	0	0	8076	695382	0	0
2024-06-22 21:40:32			0	34482	0	0	0	27005	25610	151831	27345	1025847	42826	110012	0	0	8075	696753	0	0
2024-06-22 21:41:32			0	34478	0	0	0	26992	25600	151751	27267	1025839	42835	110007	0	0	8075	696976	0	0
2024-06-22 21:42:32			0	34474	0	0	0	26997	25600	151787	27256	1025839	42813	110009	0	0	8074	697160	0	0
2024-06-22 21:43:32			0	34472	0	0	0	26976	25600	151799	27326	1025830	42834	110001	0	0	8075	697252	0	0
2024-06-22 21:44:32			0	34467	0	0	0	26968	25600	151859	27258	1025857	42813	109998	0	0	8074	697481	0	0
2024-06-22 21:45:32			0	34466	0	0	0	26955	25590	151811	27019	1025759	42823	109993	0	0	8075	697567	0	0
2024-06-22 21:46:32			0	34474	0	0	0	26953	25590	151891	27145	1025634	42823	109992	0	0	8075	697199	0	0
2024-06-22 21:47:32			0	34450	0	0	0	26966	25590	151971	27260	1025732	42823	109997	0	0	8074	698303	0	0
2024-06-22 21:48:32			0	34432	0	0	0	26963	25580	152063	27211	1025688	42822	109996	0	0	8073	699171	0	0
2024-06-22 21:49:32			0	34403	0	0	0	26958	25570	152023	26944	1025653	42821	109994	0	0	8071	700547	0	0
2024-06-22 21:50:32			0	34408	0	0	0	26968	25570	152187	27355	1025680	42810	109998	0	0	8071	700316	0	0
2024-06-22 21:51:32			0	34386	0	0	0	26955	25570	152247	27105	1025671	42798	109993	0	0	8070	701331	0	0
2024-06-22 21:52:32			0	34412	0	0	0	26831	25570	152139	27090	1025617	42821	109945	0	0	8074	700132	0	0
2024-06-22 21:53:32			0	34407	0	0	0	26857	25560	152151	26904	1025493	42798	109955	0	0	8073	700402	0	0
2024-06-22 21:54:32			0	34420	0	0	0	26797	25540	152031	27157	1025306	42797	109932	0	0	8075	699883	0	0
2024-06-22 21:55:32			0	34408	0	0	0	26792	25520	152051	27062	1025298	42805	109930	0	0	8074	700516	0	0
2024-06-22 21:56:32			0	34421	0	0	0	26797	25510	152119	27331	1025192	42792	109932	0	0	8074	699956	0	0
2024-06-22 21:57:32			0	34442	0	0	0	26857	25500	152083	27222	1025210	42815	109955	0	0	8075	699028	0	0
2024-06-22 21:58:32			0	34456	0	0	0	26854	25490	151871	27105	1025219	42814	109954	0	0	8075	698424	0	0
2024-06-22 21:59:32			0	34475	0	0	0	26901	25500	151839	27189	1025290	42815	109972	0	0	8076	697511	0	0
2024-06-22 22:00:32			0	34471	0	0	0	26890	25500	151875	27549	1025308	42815	109968	0	0	8076	697694	0	0
2024-06-22 22:01:32			0	34454	0	0	0	26893	25480	152027	27402	1025291	42813	109969	0	0	8074	698556	0	0
2024-06-22 22:02:32			0	34433	0	0	0	26784	25500	151979	27121	1025263	42815	109927	0	0	8075	699443	0	0
2024-06-22 22:03:32			0	34403	0	0	0	26862	25500	152171	27351	1025282	42803	109957	0	0	8072	700826	0	0
2024-06-22 22:04:32			0	34401	0	0	0	26893	25490	152271	27124	1025273	42825	109969	0	0	8072	700958	0	0
2024-06-22 22:05:32			0	34391	0	0	0	26896	25500	152311	27345	1025371	42815	109970	0	0	8071	701380	0	0
2024-06-22 22:06:32			0	34407	0	0	0	26893	25500	152215	27104	1025344	42815	109969	0	0	8072	700641	0	0
2024-06-22 22:07:32			0	34413	0	0	0	26922	25490	152203	27088	1025353	42814	109980	0	0	8072	700405	0	0
2024-06-22 22:08:32			0	34412	0	0	0	26937	25490	152163	27287	1025326	42825	109986	0	0	8071	700451	0	0
2024-06-22 22:09:32			0	34414	0	0	0	26924	25500	152167	27102	1025397	42836	109981	0	0	8072	700318	0	0
2024-06-22 22:10:32			0	34421	0	0	0	26909	25510	152283	27331	1025433	42815	109975	0	0	8073	699956	0	0
2024-06-22 22:11:32			0	34417	0	0	0	26890	25500	152271	26880	1025371	42792	109968	0	0	8073	700180	0	0
2024-06-22 22:12:32			0	34402	0	0	0	26872	25500	152307	27324	1025344	42815	109961	0	0	8072	700872	0	0
2024-06-22 22:13:32			0	34391	0	0	0	26864	25490	152255	27251	1025300	42802	109958	0	0	8072	701420	0	0
2024-06-22 22:14:32			0	34368	0	0	0	26851	25490	152363	27296	1025246	42802	109953	0	0	8070	702482	0	0
2024-06-22 22:15:32			0	34338	0	0	0	26851	25490	152422	27511	1025246	42814	109953	0	0	8069	703869	0	0
2024-06-22 22:16:32			0	34337	0	0	0	26854	25500	152530	27280	1025335	42815	109954	0	0	8069	703876	0	0
2024-06-22 22:17:32			0	34322	0	0	0	26864	25480	152710	27312	1025256	42813	109958	0	0	8068	704650	0	0
2024-06-22 22:18:32			0	34303	0	0	0	26890	25470	152878	27303	1025247	42824	109968	0	0	8066	705571	0	0
2024-06-22 22:19:32			0	34305	0	0	0	26903	25480	152574	27338	1025256	42802	109973	0	0	8066	705438	0	0
2024-06-22 22:20:32			0	34300	0	0	0	26896	25480	152646	26915	1025309	42813	109970	0	0	8066	705670	0	0
2024-06-22 22:21:32			0	34312	0	0	0	26885	25490	152618	27268	1025300	42791	109966	0	0	8067	705074	0	0
2024-06-22 22:22:32			0	34308	0	0	0	26896	25490	152650	27178	1025300	42814	109970	0	0	8066	705259	0	0
2024-06-22 22:23:32			0	34322	0	0	0	26906	25480	152622	27142	1025318	42802	109974	0	0	8067	704650	0	0
2024-06-22 22:24:32			0	34313	0	0	0	26901	25480	152654	27426	1025309	42813	109972	0	0	8067	705067	0	0
2024-06-22 22:25:32			0	34304	0	0	0	26896	25480	152734	27168	1025291	42813	109970	0	0	8066	705485	0	0
2024-06-22 22:26:32			0	34287	0	0	0	26914	25480	152738	27147	1025336	42813	109977	0	0	8065	706273	0	0
2024-06-22 22:27:32			0	34268	0	0	0	26909	25490	152838	27242	1025300	42814	109975	0	0	8064	707115	0	0
2024-06-22 22:28:32			0	34246	0	0	0	26914	25490	152938	27177	1025273	42814	109977	0	0	8063	708138	0	0
2024-06-22 22:29:32			0	34248	0	0	0	26927	25500	152990	27312	1025371	42815	109982	0	0	8063	708005	0	0
2024-06-22 22:30:32			0	34234	0	0	0	26924	25480	153146	27386	1025345	42813	109981	0	0	8062	708737	0	0
2024-06-22 22:31:32			0	34215	0	0	0	26914	25500	153170	27218	1025451	42815	109977	0	0	8061	709541	0	0
2024-06-22 22:32:32			0	34195	0	0	0	26909	25500	153250	27202	1025389	42815	109975	0	0	8060	710473	0	0
2024-06-22 22:33:32			0	34166	0	0	0	26916	25500	153286	27306	1025442	42826	109978	0	0	8058	711826	0	0
2024-06-22 22:34:32			0	34191	0	0	0	26906	25500	153378	27177	1025371	42826	109974	0	0	8060	710659	0	0
2024-06-22 22:35:32			0	34167	0	0	0	26909	25490	153366	27362	1025353	42814	109975	0	0	8058	711819	0	0
2024-06-22 22:36:32			0	34178	0	0	0	26919	25500	153386	27580	1025290	42815	109979	0	0	8059	711265	0	0
2024-06-22 22:37:32			0	34162	0	0	0	26906	25500	153354	27490	1025335	42815	109974	0	0	8058	712012	0	0
2024-06-22 22:38:32			0	34160	0	0	0	26906	25500	153374	27246	1025397	42836	109974	0	0	8058	712106	0	0
2024-06-22 22:39:32			0	34155	0	0	0	26906	25500	153442	27241	1025397	42815	109974	0	0	8058	712340	0	0
2024-06-22 22:40:32			0	34132	0	0	0	26909	25510	153518	27471	1025361	42837	109975	0	0	8056	713374	0	0
2024-06-22 22:41:32			0	34139	0	0	0	26903	25490	153474	27350	1025326	42802	109973	0	0	8057	713128	0	0
2024-06-22 22:42:32			0	34122	0	0	0	26906	25500	153510	27436	1025344	42836	109974	0	0	8056	713882	0	0
2024-06-22 22:43:32			0	34131	0	0	0	26909	25500	153602	27319	1025308	42836	109975	0	0	8056	713461	0	0
2024-06-22 22:44:32			0	34122	0	0	0	26901	25480	153506	27215	1025291	42813	109972	0	0	8056	713964	0	0
2024-06-22 22:45:32			0	34119	0	0	0	26906	25490	153590	27249	1025353	42835	109974	0	0	8056	714064	0	0
2024-06-22 22:46:32			0	34132	0	0	0	26896	25500	153578	27204	1025335	42815	109970	0	0	8057	713415	0	0
2024-06-22 22:47:32			0	34144	0	0	0	26880	25500	153506	27338	1025335	42815	109964	0	0	8058	712853	0	0
2024-06-22 22:48:32			0	34130	0	0	0	26883	25500	153518	27286	1025228	42803	109965	0	0	8057	713508	0	0
2024-06-22 22:49:32			0	34131	0	0	0	26877	25500	153630	27201	1025255	42815	109963	0	0	8057	713461	0	0
2024-06-22 22:50:32			0	34111	0	0	0	26883	25490	153666	27144	1025300	42814	109965	0	0	8056	714438	0	0
2024-06-22 22:51:32			0	34085	0	0	0	26880	25490	153686	27211	1025273	42835	109964	0	0	8054	715657	0	0
2024-06-22 22:52:32			0	34088	0	0	0	26877	25480	153810	27156	1025202	42824	109963	0	0	8054	715557	0	0
2024-06-22 22:53:32			0	34079	0	0	0	26880	25490	153902	27111	1025246	42835	109964	0	0	8054	715938	0	0
2024-06-22 22:54:32			0	34076	0	0	0	26883	25470	153854	27530	1025167	42791	109965	0	0	8054	716160	0	0
2024-06-22 22:55:32			0	34050	0	0	0	26872	25480	153790	27306	1025211	42824	109961	0	0	8052	717340	0	0
2024-06-22 22:56:32			0	34057	0	0	0	26870	25470	153870	27275	1025220	42813	109960	0	0	8053	717052	0	0
2024-06-22 22:57:32			0	34038	0	0	0	26872	25470	153874	27303	1025193	42813	109961	0	0	8052	717945	0	0
2024-06-22 22:58:32			0	34022	0	0	0	26870	25470	154046	27358	1025211	42823	109960	0	0	8051	718697	0	0
2024-06-22 22:59:32			0	34024	0	0	0	26870	25470	153918	27164	1025292	42812	109960	0	0	8051	718603	0	0
2024-06-22 23:00:32			0	34008	0	0	0	26872	25470	154098	26831	1025185	42812	109961	0	0	8050	719356	0	0
2024-06-22 23:01:32			0	33992	0	0	0	26870	25470	154166	27152	1025238	42812	109960	0	0	8049	720110	0	0
2024-06-22 23:02:32			0	34003	0	0	0	26880	25460	154290	27339	1025230	42811	109964	0	0	8050	719633	0	0
2024-06-22 23:03:32			0	33977	0	0	0	26875	25470	154262	27275	1025167	42802	109962	0	0	8048	720817	0	0
2024-06-22 23:04:32			0	33961	0	0	0	26875	25460	154382	26998	1025167	42833	109962	0	0	8047	721613	0	0
2024-06-22 23:05:32			0	33960	0	0	0	26849	25460	154398	26816	1025230	42811	109952	0	0	8048	721660	0	0
2024-06-22 23:06:32			0	33936	0	0	0	26854	25460	154450	27377	1025167	42810	109954	0	0	8046	722794	0	0
2024-06-22 23:07:32			0	33942	0	0	0	26875	25470	154466	27379	1025158	42812	109962	0	0	8046	722469	0	0
2024-06-22 23:08:32			0	33955	0	0	0	26867	25460	154282	27208	1025221	42833	109959	0	0	8047	721896	0	0
2024-06-22 23:09:32			0	33998	0	0	0	26862	25460	154126	26902	1025141	42821	109957	0	0	8050	719868	0	0
2024-06-22 23:10:32			0	34033	0	0	0	26870	25460	153998	27268	1025230	42822	109960	0	0	8051	718221	0	0
2024-06-22 23:11:32			0	34050	0	0	0	26854	25460	153870	27227	1025194	42821	109954	0	0	8053	717422	0	0
2024-06-22 23:12:32			0	34077	0	0	0	26857	25450	153794	27345	1025186	42821	109955	0	0	8054	716195	0	0
2024-06-22 23:13:32			0	34105	0	0	0	26875	25460	153586	27159	1025194	42810	109962	0	0	8055	714841	0	0
2024-06-22 23:14:32			0	34128	0	0	0	26877	25460	153454	27109	1025194	42821	109963	0	0	8057	713764	0	0
2024-06-22 23:15:32			0	34184	0	0	0	26893	25460	153390	26873	1025176	42800	109969	0	0	8059	711147	0	0
2024-06-22 23:16:32			0	34205	0	0	0	26896	25460	153210	27336	1025203	42833	109970	0	0	8061	710168	0	0
2024-06-22 23:17:32			0	34262	0	0	0	26903	25470	152870	27176	1025265	42834	109973	0	0	8064	707475	0	0
2024-06-22 23:18:32			0	34315	0	0	0	26898	25480	152678	27270	1025256	42834	109971	0	0	8067	704975	0	0
2024-06-22 23:19:32			0	34356	0	0	0	26880	25470	152451	27168	1025265	42812	109964	0	0	8069	703117	0	0
2024-06-22 23:20:32			0	34403	0	0	0	26890	25480	152243	27107	1025256	42824	109968	0	0	8072	700906	0	0
2024-06-22 23:21:32			0	34436	0	0	0	26877	25470	152107	27296	1025319	42834	109963	0	0	8074	699424	0	0
2024-06-22 23:22:32			0	34484	0	0	0	26883	25470	152003	27175	1025265	42812	109965	0	0	8076	697216	0	0
2024-06-22 23:23:32			0	34514	0	0	0	26883	25470	151759	27133	1025274	42813	109965	0	0	8078	695838	0	0
2024-06-22 23:24:32			0	34539	0	0	0	26885	25480	151631	26854	1025291	42824	109966	0	0	8079	694653	0	0
2024-06-22 23:25:32			0	34591	0	0	0	26883	25470	151475	26946	1025220	42813	109965	0	0	8082	692313	0	0
2024-06-22 23:26:32			0	34604	0	0	0	26888	25470	151351	26967	1025265	42834	109967	0	0	8083	691719	0	0
2024-06-22 23:27:32			0	34651	0	0	0	26883	25470	151179	27229	1025247	42824	109965	0	0	8085	689574	0	0
2024-06-22 23:28:32			0	34699	0	0	0	26901	25480	151023	27079	1025309	42813	109972	0	0	8088	687351	0	0
2024-06-22 23:29:32			0	34722	0	0	0	26896	25480	150899	27346	1025291	42834	109970	0	0	8089	686306	0	0
2024-06-22 23:30:32			0	34739	0	0	0	26890	25480	150923	27343	1025256	42824	109968	0	0	8090	685535	0	0
2024-06-22 23:31:32			0	34742	0	0	0	26890	25470	150815	27424	1025301	42813	109968	0	0	8090	685438	0	0
2024-06-22 23:32:32			0	34757	0	0	0	26885	25460	150679	27074	1025283	42822	109966	0	0	8091	684797	0	0
2024-06-22 23:33:32			0	34772	0	0	0	26880	25470	150679	26864	1025247	42813	109964	0	0	8092	684078	0	0
2024-06-22 23:34:32			0	34801	0	0	0	26870	25470	150579	27353	1025247	42834	109960	0	0	8094	682766	0	0
2024-06-22 23:35:32			0	34788	0	0	0	26875	25480	150487	27161	1025256	42824	109962	0	0	8093	683315	0	0
2024-06-22 23:36:32			0	34837	0	0	0	26872	25470	150507	27353	1025238	42812	109961	0	0	8096	681139	0	0
2024-06-22 23:37:32			0	34851	0	0	0	26880	25480	150323	27225	1025256	42824	109964	0	0	8096	680469	0	0
2024-06-22 23:38:32			0	34866	0	0	0	26880	25480	150207	27201	1025237	42834	109964	0	0	8097	679793	0	0
2024-06-22 23:39:32			0	34882	0	0	0	26872	25470	150231	27119	1025185	42812	109961	0	0	8098	679111	0	0
2024-06-22 23:40:32			0	34923	0	0	0	26877	25470	150063	27180	1025238	42834	109963	0	0	8100	677266	0	0
2024-06-22 23:41:32			0	34913	0	0	0	26872	25470	150031	27305	1025247	42824	109961	0	0	8100	677716	0	0
2024-06-22 23:42:32			0	34934	0	0	0	26854	25480	150011	27338	1025256	42802	109954	0	0	8101	676733	0	0
2024-06-22 23:43:32			0	34935	0	0	0	26838	25460	150115	27256	1025176	42811	109948	0	0	8102	676765	0	0
2024-06-22 23:44:32			0	34936	0	0	0	26846	25460	150063	27408	1025203	42811	109951	0	0	8102	676720	0	0
2024-06-22 23:45:32			0	34927	0	0	0	26854	25460	150015	27244	1025149	42811	109954	0	0	8101	677125	0	0
2024-06-22 23:46:32			0	34932	0	0	0	26862	25460	150023	27365	1025176	42822	109957	0	0	8101	676900	0	0
2024-06-22 23:47:32			0	34928	0	0	0	26864	25460	150023	27483	1025167	42821	109958	0	0	8101	677080	0	0
2024-06-22 23:48:32			0	34935	0	0	0	26862	25460	149967	27388	1025141	42833	109957	0	0	8101	676765	0	0
2024-06-22 23:49:32			0	34954	0	0	0	26862	25450	149883	27473	1025212	42833	109957	0	0	8102	675951	0	0
2024-06-22 23:50:32			0	34948	0	0	0	26857	25460	149863	27583	1025167	42810	109955	0	0	8102	676181	0	0
2024-06-22 23:51:32			0	34960	0	0	0	26864	25460	149763	27140	1025167	42833	109958	0	0	8103	675643	0	0
2024-06-22 23:52:32			0	34982	0	0	0	26841	25470	149763	27289	1025185	42834	109949	0	0	8104	674618	0	0
2024-06-22 23:53:32			0	34974	0	0	0	26838	25440	149715	27183	1025168	42809	109948	0	0	8104	675092	0	0
2024-06-22 23:54:32			0	34984	0	0	0	26846	25460	149791	27559	1025141	42799	109951	0	0	8104	674567	0	0
2024-06-22 23:55:32			0	34964	0	0	0	26846	25440	149739	27381	1025115	42832	109951	0	0	8103	675540	0	0
2024-06-22 23:56:32			0	34954	0	0	0	26844	25450	149919	27293	1025177	42810	109950	0	0	8102	675951	0	0
2024-06-22 23:57:32			0	34976	0	0	0	26846	25450	149655	26864	1025070	42821	109951	0	0	8104	674964	0	0
2024-06-22 23:58:32			0	34962	0	0	0	26854	25450	149815	27093	1025123	42810	109954	0	0	8103	675592	0	0
2024-06-22 23:59:32			0	34969	0	0	0	26859	25450	149807	27173	1025105	42821	109956	0	0	8103	675278	0	0
2024-06-23 00:00:32			0	34973	0	0	0	26857	25440	149799	27384	1025115	42832	109955	0	0	8103	675137	0	0
2024-06-23 00:01:32			0	34965	0	0	0	26862	25440	149767	27088	1025141	42832	109957	0	0	8103	675495	0	0
2024-06-23 00:02:32			0	34958	0	0	0	26849	25440	149867	27455	1025141	42809	109952	0	0	8103	675809	0	0
2024-06-23 00:03:32			0	34950	0	0	0	26854	25450	149819	27474	1025177	42833	109954	0	0	8102	676130	0	0
2024-06-23 00:04:32			0	34950	0	0	0	26841	25450	149863	27452	1025123	42833	109949	0	0	8102	676130	0	0
2024-06-23 00:05:32			0	34949	0	0	0	26836	25440	149883	27597	1025061	42809	109947	0	0	8102	676213	0	0
2024-06-23 00:06:32			0	34957	0	0	0	26846	25450	149867	27396	1025123	42821	109951	0	0	8103	675816	0	0
2024-06-23 00:07:32			0	34947	0	0	0	26857	25440	149807	27409	1025115	42842	109955	0	0	8102	676303	0	0
2024-06-23 00:08:32			0	34945	0	0	0	26846	25440	149735	27345	1025141	42809	109951	0	0	8102	676393	0	0
2024-06-23 00:09:32			0	34953	0	0	0	26851	25450	149731	27267	1025132	42799	109953	0	0	8102	675996	0	0
2024-06-23 00:10:32			0	34986	0	0	0	26857	25440	149783	27441	1025088	42809	109955	0	0	8104	674554	0	0
2024-06-23 00:11:32			0	34970	0	0	0	26849	25440	149795	27189	1025160	42831	109952	0	0	8103	675271	0	0
2024-06-23 00:12:32			0	34956	0	0	0	26849	25450	149699	27358	1025105	42843	109952	0	0	8103	675861	0	0
2024-06-23 00:13:32			0	34954	0	0	0	26846	25440	149827	27263	1025115	42809	109951	0	0	8102	675989	0	0
2024-06-23 00:14:32			0	34948	0	0	0	26854	25440	149943	27298	1025088	42809	109954	0	0	8102	676258	0	0
2024-06-23 00:15:32			0	34970	0	0	0	26851	25440	149803	27362	1025186	42808	109953	0	0	8103	675271	0	0
2024-06-23 00:16:32			0	34975	0	0	0	26862	25450	149807	26975	1025132	42833	109957	0	0	8103	675009	0	0
2024-06-23 00:17:32			0	34959	0	0	0	26862	25440	149803	27310	1025079	42808	109957	0	0	8102	675765	0	0
2024-06-23 00:18:32			0	34968	0	0	0	26851	25450	149767	26859	1025159	42810	109953	0	0	8103	675323	0	0
2024-06-23 00:19:32			0	34978	0	0	0	26849	25450	149695	27362	1025123	42833	109952	0	0	8104	674874	0	0
2024-06-23 00:20:32			0	34983	0	0	0	26857	25450	149719	27192	1025177	42833	109955	0	0	8104	674650	0	0
2024-06-23 00:21:32			0	35002	0	0	0	26857	25440	149715	27327	1025168	42832	109955	0	0	8105	673837	0	0
2024-06-23 00:22:32			0	34997	0	0	0	26854	25440	149611	26974	1025088	42798	109954	0	0	8105	674061	0	0
2024-06-23 00:23:32			0	35034	0	0	0	26846	25440	149503	27128	1025115	42809	109951	0	0	8107	672406	0	0
2024-06-23 00:24:32			0	35020	0	0	0	26846	25450	149531	27272	1025132	42821	109951	0	0	8106	672993	0	0
2024-06-23 00:25:32			0	35021	0	0	0	26846	25440	149543	27137	1025133	42808	109951	0	0	8106	672987	0	0
2024-06-23 00:26:32			0	35024	0	0	0	26849	25440	149471	26944	1025088	42842	109952	0	0	8106	672853	0	0
2024-06-23 00:27:32			0	35040	0	0	0	26844	25440	149439	27293	1025079	42808	109950	0	0	8107	672137	0	0
2024-06-23 00:28:32			0	35062	0	0	0	26838	25430	149487	27256	1025071	42831	109948	0	0	8108	671193	0	0
2024-06-23 00:29:32			0	35054	0	0	0	26857	25440	149387	27215	1025160	42820	109955	0	0	8108	671512	0	0
2024-06-23 00:30:32			0	35051	0	0	0	26846	25440	149435	27161	1025106	42820	109951	0	0	8108	671646	0	0
2024-06-23 00:31:32			0	35046	0	0	0	26849	25450	149399	27104	1025150	42833	109952	0	0	8107	671831	0	0
2024-06-23 00:32:32			0	35056	0	0	0	26851	25440	149411	27114	1025133	42831	109953	0	0	8108	671423	0	0
2024-06-23 00:33:32			0	35089	0	0	0	26849	25440	149327	27229	1025088	42832	109952	0	0	8110	669950	0	0
2024-06-23 00:34:32			0	35091	0	0	0	26846	25440	149271	27003	1025133	42831	109951	0	0	8110	669861	0	0
2024-06-23 00:35:32			0	35105	0	0	0	26846	25450	149184	27159	1025150	42833	109951	0	0	8111	669199	0	0
2024-06-23 00:36:32			0	35095	0	0	0	26846	25440	149263	27287	1025106	42820	109951	0	0	8110	669683	0	0
2024-06-23 00:37:32			0	35101	0	0	0	26849	25440	149211	27234	1025106	42808	109952	0	0	8110	669415	0	0
2024-06-23 00:38:32			0	35118	0	0	0	26849	25440	149148	27267	1025115	42832	109952	0	0	8111	668658	0	0
2024-06-23 00:39:32			0	35107	0	0	0	26831	25430	149104	27114	1025097	42808	109945	0	0	8111	669186	0	0
2024-06-23 00:40:32			0	35104	0	0	0	26841	25440	149207	27064	1025079	42820	109949	0	0	8111	669282	0	0
2024-06-23 00:41:32			0	35126	0	0	0	26844	25430	149128	26961	1025142	42797	109950	0	0	8112	668340	0	0
2024-06-23 00:42:32			0	35116	0	0	0	26844	25440	149048	27279	1025079	42831	109950	0	0	8111	668747	0	0
2024-06-23 00:43:32			0	35129	0	0	0	26844	25430	149100	27377	1025071	42831	109950	0	0	8112	668207	0	0
2024-06-23 00:44:32			0	35117	0	0	0	26841	25430	149072	27105	1025097	42841	109949	0	0	8111	668741	0	0
2024-06-23 00:45:32			0	35133	0	0	0	26841	25430	149088	27059	1025097	42841	109949	0	0	8112	668029	0	0
2024-06-23 00:46:32			0	35106	0	0	0	26836	25440	149031	27083	1025088	42832	109947	0	0	8111	669193	0	0
2024-06-23 00:47:32			0	35115	0	0	0	26828	25440	149179	27431	1025079	42820	109944	0	0	8111	668792	0	0
2024-06-23 00:48:32			0	35100	0	0	0	26833	25430	149123	27357	1025062	42820	109946	0	0	8111	669498	0	0
2024-06-23 00:49:32			0	35112	0	0	0	26828	25430	149132	27267	1025062	42841	109944	0	0	8111	668963	0	0
2024-06-23 00:50:32			0	35112	0	0	0	26825	25430	149104	27220	1025097	42831	109943	0	0	8111	668963	0	0
2024-06-23 00:51:32			0	35118	0	0	0	26828	25420	149160	26658	1024964	42829	109944	0	0	8112	668734	0	0
2024-06-23 00:52:32			0	35122	0	0	0	26833	25420	149068	27308	1024999	42819	109946	0	0	8112	668556	0	0
2024-06-23 00:53:32			0	35120	0	0	0	26825	25420	149056	27194	1025053	42840	109943	0	0	8112	668645	0	0
2024-06-23 00:54:32			0	35120	0	0	0	26820	25420	149060	27194	1025026	42830	109941	0	0	8112	668645	0	0
2024-06-23 00:55:32			0	35121	0	0	0	26815	25420	149128	27142	1025026	42830	109939	0	0	8112	668601	0	0
2024-06-23 00:56:32			0	35122	0	0	0	26825	25420	149040	27013	1025071	42818	109943	0	0	8112	668556	0	0
2024-06-23 00:57:32			0	35108	0	0	0	26828	25420	149076	27092	1025018	42829	109944	0	0	8111	669180	0	0
2024-06-23 00:58:32			0	35129	0	0	0	26820	25430	149104	27163	1024955	42820	109941	0	0	8112	668207	0	0
2024-06-23 00:59:32			0	35114	0	0	0	26823	25420	149048	27194	1024991	42829	109942	0	0	8111	668913	0	0
2024-06-23 01:00:32			0	35118	0	0	0	26823	25410	149116	26849	1024973	42818	109942	0	0	8112	668772	0	0
2024-06-23 01:01:32			0	35113	0	0	0	26812	25420	149059	27232	1025053	42819	109938	0	0	8112	668957	0	0
2024-06-23 01:02:32			0	35101	0	0	0	26812	25410	149183	27312	1024982	42829	109938	0	0	8111	669529	0	0
2024-06-23 01:03:32			0	35110	0	0	0	26807	25400	149111	27119	1024938	42828	109936	0	0	8111	669167	0	0
2024-06-23 01:04:32			0	35112	0	0	0	26805	25410	149268	27260	1024947	42806	109935	0	0	8112	669040	0	0
2024-06-23 01:05:32			0	35097	0	0	0	26807	25400	149259	27064	1024911	42838	109936	0	0	8111	669746	0	0
2024-06-23 01:06:32			0	35107	0	0	0	26805	25410	149155	27365	1024929	42829	109935	0	0	8111	669262	0	0
2024-06-23 01:07:32			0	35113	0	0	0	26807	25410	149232	27131	1024947	42839	109936	0	0	8112	668995	0	0
2024-06-23 01:08:32			0	35105	0	0	0	26802	25410	149115	27020	1024973	42829	109934	0	0	8111	669351	0	0
2024-06-23 01:09:32			0	35075	0	0	0	26805	25400	149127	27216	1024983	42793	109935	0	0	8109	670727	0	0
2024-06-23 01:10:32			0	35091	0	0	0	26815	25400	149239	27157	1024903	42804	109939	0	0	8110	670013	0	0
2024-06-23 01:11:32			0	35085	0	0	0	26815	25400	149311	27348	1024965	42817	109939	0	0	8110	670281	0	0
2024-06-23 01:12:32			0	35081	0	0	0	26810	25410	149235	27140	1024955	42839	109937	0	0	8110	670421	0	0
2024-06-23 01:13:32			0	35046	0	0	0	26805	25400	149347	27102	1024956	42804	109935	0	0	8108	672022	0	0
2024-06-23 01:14:32			0	35056	0	0	0	26812	25400	149391	27265	1024992	42805	109938	0	0	8108	671575	0	0
2024-06-23 01:15:32			0	35052	0	0	0	26802	25400	149211	26993	1024884	42828	109934	0	0	8108	671754	0	0
2024-06-23 01:16:32			0	35057	0	0	0	26812	25410	149287	27196	1024920	42818	109938	0	0	8108	671493	0	0
2024-06-23 01:17:32			0	35057	0	0	0	26810	25400	149239	26972	1024965	42828	109937	0	0	8108	671531	0	0
2024-06-23 01:18:32			0	35084	0	0	0	26802	25400	149271	27072	1024876	42827	109934	0	0	8110	670326	0	0
2024-06-23 01:19:32			0	35067	0	0	0	26807	25400	149375	27275	1024876	42838	109936	0	0	8109	671084	0	0
2024-06-23 01:20:32			0	35078	0	0	0	26794	25400	149271	27249	1024929	42816	109931	0	0	8110	670593	0	0
2024-06-23 01:21:32			0	35085	0	0	0	26797	25400	149263	27090	1024929	42816	109932	0	0	8110	670281	0	0
2024-06-23 01:22:32			0	35076	0	0	0	26794	25390	149259	27109	1024912	42826	109931	0	0	8110	670720	0	0
2024-06-23 01:23:32			0	35104	0	0	0	26799	25390	149231	27131	1024921	42816	109933	0	0	8111	669472	0	0
2024-06-23 01:24:32			0	35087	0	0	0	26797	25390	149147	26925	1024921	42827	109932	0	0	8110	670230	0	0
2024-06-23 01:25:32			0	35090	0	0	0	26792	25390	149119	27422	1024912	42826	109930	0	0	8110	670096	0	0
2024-06-23 01:26:32			0	35095	0	0	0	26802	25400	149183	27012	1024903	42816	109934	0	0	8111	669835	0	0
2024-06-23 01:27:32			0	35075	0	0	0	26797	25400	149235	27218	1024929	42804	109932	0	0	8110	670727	0	0
2024-06-23 01:28:32			0	35067	0	0	0	26784	25390	149207	27149	1024921	42838	109927	0	0	8109	671122	0	0
2024-06-23 01:29:32			0	35090	0	0	0	26792	25390	149303	27204	1024885	42826	109930	0	0	8110	670096	0	0
2024-06-23 01:30:32			0	35092	0	0	0	26794	25390	149291	27098	1024885	42826	109931	0	0	8111	670007	0	0
2024-06-23 01:31:32			0	35089	0	0	0	26786	25390	149255	27211	1024858	42826	109928	0	0	8111	670141	0	0
2024-06-23 01:32:32			0	35084	0	0	0	26786	25380	149335	27180	1024841	42814	109928	0	0	8110	670402	0	0
2024-06-23 01:33:32			0	35076	0	0	0	26786	25390	149267	26805	1024840	42827	109928	0	0	8110	670720	0	0
2024-06-23 01:34:32			0	35079	0	0	0	26786	25380	149211	27154	1024868	42825	109928	0	0	8110	670625	0	0
2024-06-23 01:35:32			0	35086	0	0	0	26789	25380	149207	27296	1024877	42826	109929	0	0	8110	670313	0	0
2024-06-23 01:36:32			0	35121	0	0	0	26792	25380	149184	27173	1024823	42837	109930	0	0	8112	668753	0	0
2024-06-23 01:37:32			0	35112	0	0	0	26784	25380	149203	27192	1024761	42803	109927	0	0	8112	669154	0	0
2024-06-23 01:38:32			0	35119	0	0	0	26784	25380	149092	27145	1024841	42803	109927	0	0	8112	668842	0	0
2024-06-23 01:39:32			0	35136	0	0	0	26773	25380	149260	27000	1024877	42826	109923	0	0	8113	668085	0	0
2024-06-23 01:40:32			0	35109	0	0	0	26786	25380	149104	26955	1024841	42803	109928	0	0	8112	669287	0	0
2024-06-23 01:41:32			0	35114	0	0	0	26776	25380	149140	26939	1024788	42836	109924	0	0	8112	669065	0	0
2024-06-23 01:42:32			0	35096	0	0	0	26779	25370	149175	27176	1024833	42824	109925	0	0	8111	669905	0	0
2024-06-23 01:43:32			0	35112	0	0	0	26773	25370	149291	27261	1024833	42824	109923	0	0	8112	669192	0	0
2024-06-23 01:44:32			0	35097	0	0	0	26766	25370	149251	27097	1024752	42824	109920	0	0	8111	669860	0	0
2024-06-23 01:45:32			0	35108	0	0	0	26779	25370	149291	27168	1024770	42835	109925	0	0	8112	669370	0	0
2024-06-23 01:46:32			0	35109	0	0	0	26776	25370	149291	27024	1024797	42835	109924	0	0	8112	669325	0	0
2024-06-23 01:47:32			0	35126	0	0	0	26776	25360	149308	26785	1024807	42812	109924	0	0	8113	668606	0	0
2024-06-23 01:48:32			0	35120	0	0	0	26768	25380	149172	27175	1024868	42814	109921	0	0	8112	668797	0	0
2024-06-23 01:49:32			0	35139	0	0	0	26771	25360	149052	27026	1024726	42823	109922	0	0	8113	668028	0	0
2024-06-23 01:50:32			0	35160	0	0	0	26758	25360	148924	26930	1024753	42812	109917	0	0	8115	667094	0	0
2024-06-23 01:51:32			0	35183	0	0	0	26763	25360	148900	27012	1024753	42812	109919	0	0	8116	666072	0	0
2024-06-23 01:52:32			0	35194	0	0	0	26766	25370	148936	27251	1024770	42824	109920	0	0	8116	665546	0	0
2024-06-23 01:53:32			0	35177	0	0	0	26771	25360	148908	26759	1024726	42812	109922	0	0	8115	666339	0	0
2024-06-23 01:54:32			0	35170	0	0	0	26768	25350	148844	27190	1024736	42823	109921	0	0	8115	666687	0	0
2024-06-23 01:55:32			0	35183	0	0	0	26771	25360	148900	27079	1024807	42812	109922	0	0	8116	666072	0	0
2024-06-23 01:56:32			0	35190	0	0	0	26766	25350	148848	27178	1024718	42823	109920	0	0	8116	665799	0	0
2024-06-23 01:57:32			0	35177	0	0	0	26753	25350	149028	27256	1024736	42833	109915	0	0	8116	666376	0	0
2024-06-23 01:58:32			0	35167	0	0	0	26758	25350	148936	27196	1024744	42800	109917	0	0	8115	666821	0	0
2024-06-23 01:59:32			0	35165	0	0	0	26740	25340	148892	27038	1024700	42833	109910	0	0	8115	666947	0	0
2024-06-23 02:00:32			0	35171	0	0	0	26737	25350	148880	27407	1024629	42823	109909	0	0	8116	666643	0	0
2024-06-23 02:01:32			0	35189	0	0	0	26737	25340	148984	27159	1024674	42823	109909	0	0	8117	665881	0	0
2024-06-23 02:02:32			0	35162	0	0	0	26740	25340	149000	27170	1024620	42823	109910	0	0	8115	667081	0	0
2024-06-23 02:03:32			0	35170	0	0	0	26737	25340	149008	27114	1024665	42799	109909	0	0	8115	666725	0	0
2024-06-23 02:04:32			0	35164	0	0	0	26737	25340	148980	27123	1024620	42811	109909	0	0	8115	666992	0	0
2024-06-23 02:05:32			0	35170	0	0	0	26742	25330	148964	27182	1024621	42821	109911	0	0	8115	666763	0	0
2024-06-23 02:06:32			0	35174	0	0	0	26737	25320	149000	27124	1024585	42831	109909	0	0	8116	666623	0	0
2024-06-23 02:07:32			0	35184	0	0	0	26740	25330	148940	27039	1024629	42809	109910	0	0	8116	666141	0	0
2024-06-23 02:08:32			0	35184	0	0	0	26745	25340	148912	27092	1024665	42822	109912	0	0	8116	666103	0	0
2024-06-23 02:09:32			0	35189	0	0	0	26740	25330	148876	27090	1024656	42832	109910	0	0	8116	665919	0	0
2024-06-23 02:10:32			0	35200	0	0	0	26740	25340	148784	27029	1024665	42822	109910	0	0	8117	665393	0	0
2024-06-23 02:11:32			0	35199	0	0	0	26740	25340	148900	27166	1024638	42833	109910	0	0	8117	665438	0	0
2024-06-23 02:12:32			0	35188	0	0	0	26740	25330	149016	27059	1024656	42832	109910	0	0	8116	665964	0	0
2024-06-23 02:13:32			0	35179	0	0	0	26737	25330	148908	27046	1024629	42809	109909	0	0	8116	666363	0	0
2024-06-23 02:14:32			0	35157	0	0	0	26737	25330	149028	27312	1024683	42821	109909	0	0	8115	667341	0	0
2024-06-23 02:15:32			0	35166	0	0	0	26722	25330	149040	27448	1024621	42821	109903	0	0	8115	666941	0	0
2024-06-23 02:16:32			0	35153	0	0	0	26729	25330	149032	27010	1024567	42821	109906	0	0	8115	667519	0	0
2024-06-23 02:17:32			0	35149	0	0	0	26735	25320	148980	26913	1024523	42820	109908	0	0	8114	667735	0	0
2024-06-23 02:18:32			0	35158	0	0	0	26732	25330	149036	27274	1024603	42832	109907	0	0	8115	667296	0	0
2024-06-23 02:19:32			0	35161	0	0	0	26727	25320	149008	27104	1024612	42808	109905	0	0	8115	667201	0	0
2024-06-23 02:20:32			0	35179	0	0	0	26709	25320	149064	26918	1024585	42820	109898	0	0	8116	666401	0	0
2024-06-23 02:21:32			0	35189	0	0	0	26703	25330	149008	27137	1024514	42809	109896	0	0	8117	665919	0	0
2024-06-23 02:22:32			0	35169	0	0	0	26711	25320	148856	27176	1024559	42820	109899	0	0	8116	666845	0	0
2024-06-23 02:23:32			0	35173	0	0	0	26711	25310	149012	27358	1024488	42830	109899	0	0	8116	666705	0	0
2024-06-23 02:24:32			0	35165	0	0	0	26714	25300	148984	27152	1024524	42818	109900	0	0	8115	667099	0	0
2024-06-23 02:25:32			0	35177	0	0	0	26719	25310	149004	26984	1024515	42819	109902	0	0	8116	666528	0	0
2024-06-23 02:26:32			0	35176	0	0	0	26722	25320	148964	26956	1024577	42808	109903	0	0	8116	666534	0	0
2024-06-23 02:27:32			0	35159	0	0	0	26716	25310	148924	27305	1024541	42830	109901	0	0	8115	667328	0	0
2024-06-23 02:28:32			0	35158	0	0	0	26714	25300	148916	27282	1024524	42818	109900	0	0	8115	667410	0	0
2024-06-23 02:29:32			0	35178	0	0	0	26716	25320	148964	27300	1024523	42820	109901	0	0	8116	666445	0	0
2024-06-23 02:30:32			0	35151	0	0	0	26719	25310	149008	27480	1024461	42807	109902	0	0	8115	667683	0	0
2024-06-23 02:31:32			0	35133	0	0	0	26724	25310	148964	27393	1024559	42807	109904	0	0	8114	668484	0	0
2024-06-23 02:32:32			0	35143	0	0	0	26714	25310	149012	27201	1024488	42819	109900	0	0	8114	668039	0	0
2024-06-23 02:33:32			0	35099	0	0	0	26706	25310	149167	27563	1024515	42830	109897	0	0	8112	669999	0	0
2024-06-23 02:34:32			0	35121	0	0	0	26709	25310	149156	27452	1024515	42807	109898	0	0	8113	669019	0	0
2024-06-23 02:35:32			0	35108	0	0	0	26701	25300	149231	27190	1024470	42829	109895	0	0	8113	669636	0	0
2024-06-23 02:36:32			0	35121	0	0	0	26706	25310	149140	27550	1024533	42830	109897	0	0	8113	669019	0	0
2024-06-23 02:37:32			0	35091	0	0	0	26698	25300	149215	27277	1024542	42829	109894	0	0	8112	670394	0	0
2024-06-23 02:38:32			0	35067	0	0	0	26709	25290	149311	27505	1024480	42806	109898	0	0	8110	671504	0	0
2024-06-23 02:39:32			0	35080	0	0	0	26703	25300	149347	27241	1024497	42818	109896	0	0	8111	670885	0	0
2024-06-23 02:40:32			0	35066	0	0	0	26701	25290	149391	27263	1024453	42839	109895	0	0	8110	671548	0	0
2024-06-23 02:41:32			0	35056	0	0	0	26701	25300	149411	27105	1024515	42818	109895	0	0	8110	671957	0	0
2024-06-23 02:42:32			0	35057	0	0	0	26701	25300	149319	27256	1024461	42829	109895	0	0	8110	671912	0	0
2024-06-23 02:43:32			0	35065	0	0	0	26693	25300	149371	27152	1024461	42795	109892	0	0	8110	671555	0	0
2024-06-23 02:44:32			0	35042	0	0	0	26690	25300	149455	27341	1024408	42818	109891	0	0	8109	672583	0	0
2024-06-23 02:45:32			0	35045	0	0	0	26696	25290	149423	27524	1024453	42817	109893	0	0	8109	672487	0	0
2024-06-23 02:46:32			0	35027	0	0	0	26688	25290	149591	27275	1024471	42805	109890	0	0	8108	673292	0	0
2024-06-23 02:47:32			0	35035	0	0	0	26680	25300	149467	27268	1024381	42818	109887	0	0	8109	672896	0	0
2024-06-23 02:48:32			0	35021	0	0	0	26672	25290	149535	27175	1024417	42805	109884	0	0	8108	673561	0	0
2024-06-23 02:49:32			0	35020	0	0	0	26677	25290	149527	27159	1024417	42816	109886	0	0	8108	673605	0	0
2024-06-23 02:50:32			0	34990	0	0	0	26683	25280	149531	27313	1024409	42805	109888	0	0	8106	674988	0	0
2024-06-23 02:51:32			0	34994	0	0	0	26675	25280	149655	27003	1024409	42827	109885	0	0	8107	674809	0	0
2024-06-23 02:52:32			0	35014	0	0	0	26672	25290	149627	27260	1024417	42805	109884	0	0	8108	673874	0	0
2024-06-23 02:53:32			0	34999	0	0	0	26672	25280	149603	27017	1024409	42827	109884	0	0	8107	674584	0	0
2024-06-23 02:54:32			0	35003	0	0	0	26672	25280	149695	27078	1024347	42793	109884	0	0	8107	674405	0	0
2024-06-23 02:55:32			0	34995	0	0	0	26659	25280	149559	27308	1024373	42816	109879	0	0	8107	674764	0	0
2024-06-23 02:56:32			0	35008	0	0	0	26664	25270	149675	27485	1024258	42815	109881	0	0	8108	674220	0	0
2024-06-23 02:57:32			0	34984	0	0	0	26662	25270	149631	27402	1024329	42826	109880	0	0	8106	675295	0	0
2024-06-23 02:58:32			0	35010	0	0	0	26654	25270	149631	27229	1024284	42815	109877	0	0	8108	674130	0	0
2024-06-23 02:59:32			0	34998	0	0	0	26664	25270	149667	27204	1024249	42814	109881	0	0	8107	674668	0	0
2024-06-23 03:00:32			0	34986	0	0	0	26667	25270	149631	26986	1024338	42815	109882	0	0	8106	675206	0	0
2024-06-23 03:01:32			0	34971	0	0	0	26670	25270	149723	27116	1024311	42792	109883	0	0	8106	675879	0	0
2024-06-23 03:02:32			0	34970	0	0	0	26662	25270	149683	27166	1024303	42814	109880	0	0	8106	675924	0	0
2024-06-23 03:03:32			0	34988	0	0	0	26670	25260	149663	26949	1024294	42814	109883	0	0	8106	675154	0	0
2024-06-23 03:04:32			0	34988	0	0	0	26662	25270	149731	27128	1024276	42826	109880	0	0	8107	675116	0	0
2024-06-23 03:05:32			0	34980	0	0	0	26677	25260	149699	27083	1024321	42803	109886	0	0	8106	675513	0	0
2024-06-23 03:06:32			0	35004	0	0	0	26675	25270	149667	27203	1024329	42814	109885	0	0	8107	674399	0	0
2024-06-23 03:07:32			0	35016	0	0	0	26677	25260	149623	26795	1024347	42826	109886	0	0	8108	673900	0	0
2024-06-23 03:08:32			0	35011	0	0	0	26672	25280	149615	27171	1024400	42816	109884	0	0	8108	674047	0	0
2024-06-23 03:09:32			0	35000	0	0	0	26680	25260	149671	27126	1024401	42814	109887	0	0	8107	674616	0	0
2024-06-23 03:10:32			0	35009	0	0	0	26688	25260	149627	27339	1024321	42826	109890	0	0	8107	674213	0	0
2024-06-23 03:11:32			0	35021	0	0	0	26680	25270	149499	27022	1024329	42814	109887	0	0	8108	673637	0	0
2024-06-23 03:12:32			0	35034	0	0	0	26672	25270	149515	27298	1024284	42804	109884	0	0	8109	673055	0	0
2024-06-23 03:13:32			0	35062	0	0	0	26664	25260	149507	27343	1024321	42826	109881	0	0	8111	671841	0	0
2024-06-23 03:14:32			0	35053	0	0	0	26664	25260	149355	26989	1024347	42814	109881	0	0	8110	672244	0	0
2024-06-23 03:15:32			0	35062	0	0	0	26667	25270	149379	27260	1024303	42836	109882	0	0	8111	671803	0	0
2024-06-23 03:16:32			0	35089	0	0	0	26659	25270	149291	27206	1024329	42826	109879	0	0	8112	670598	0	0
2024-06-23 03:17:32			0	35078	0	0	0	26651	25260	149319	27076	1024312	42813	109876	0	0	8112	671127	0	0
2024-06-23 03:18:32			0	35077	0	0	0	26646	25260	149215	27370	1024214	42826	109874	0	0	8112	671171	0	0
2024-06-23 03:19:32			0	35080	0	0	0	26649	25260	149347	27225	1024267	42803	109875	0	0	8112	671037	0	0
2024-06-23 03:20:32			0	35084	0	0	0	26646	25250	149283	27105	1024196	42802	109874	0	0	8112	670897	0	0
2024-06-23 03:21:32			0	35087	0	0	0	26654	25260	149363	26826	1024205	42835	109877	0	0	8112	670725	0	0
2024-06-23 03:22:32			0	35084	0	0	0	26651	25250	149303	27415	1024223	42813	109876	0	0	8112	670897	0	0
2024-06-23 03:23:32			0	35091	0	0	0	26649	25260	149287	27157	1024258	42813	109875	0	0	8112	670546	0	0
2024-06-23 03:24:32			0	35084	0	0	0	26638	25240	149287	27282	1024206	42801	109871	0	0	8112	670935	0	0
2024-06-23 03:25:32			0	35108	0	0	0	26654	25250	149259	27270	1024196	42813	109877	0	0	8113	669826	0	0
2024-06-23 03:26:32			0	35095	0	0	0	26638	25250	149299	27111	1024250	42825	109871	0	0	8113	670406	0	0
2024-06-23 03:27:32			0	35089	0	0	0	26636	25250	149295	27317	1024241	42812	109870	0	0	8112	670674	0	0
2024-06-23 03:28:32			0	35096	0	0	0	26628	25250	149343	27095	1024241	42824	109867	0	0	8113	670361	0	0
2024-06-23 03:29:32			0	35094	0	0	0	26631	25240	149295	27357	1024233	42812	109868	0	0	8113	670489	0	0
2024-06-23 03:30:32			0	35087	0	0	0	26631	25240	149363	26979	1024179	42812	109868	0	0	8112	670801	0	0
2024-06-23 03:31:32			0	35100	0	0	0	26618	25240	149315	26845	1024144	42811	109863	0	0	8113	670221	0	0
2024-06-23 03:32:32			0	35113	0	0	0	26607	25240	149388	27223	1024144	42800	109859	0	0	8114	669641	0	0
2024-06-23 03:33:32			0	35113	0	0	0	26620	25230	149268	26948	1024135	42800	109864	0	0	8114	669679	0	0
2024-06-23 03:34:32			0	35092	0	0	0	26610	25220	149387	27039	1024091	42811	109860	0	0	8113	670654	0	0
2024-06-23 03:35:32			0	35101	0	0	0	26607	25230	149295	27280	1024126	42822	109859	0	0	8113	670214	0	0
2024-06-23 03:36:32			0	35071	0	0	0	26605	25220	149383	27296	1024082	42810	109858	0	0	8112	671592	0	0
2024-06-23 03:37:32			0	35083	0	0	0	26615	25220	149371	27294	1024091	42799	109862	0	0	8112	671056	0	0
2024-06-23 03:38:32			0	35079	0	0	0	26607	25230	149355	27059	1024073	42811	109859	0	0	8112	671196	0	0
2024-06-23 03:39:32			0	35064	0	0	0	26605	25210	149551	27467	1024047	42797	109858	0	0	8111	671943	0	0
2024-06-23 03:40:32			0	35062	0	0	0	26602	25220	149563	27050	1024055	42810	109857	0	0	8111	671994	0	0
2024-06-23 03:41:32			0	35025	0	0	0	26594	25210	149619	27213	1024092	42809	109854	0	0	8109	673687	0	0
2024-06-23 03:42:32			0	35029	0	0	0	26597	25210	149555	27130	1024074	42809	109855	0	0	8110	673509	0	0
2024-06-23 03:43:32			0	35012	0	0	0	26594	25210	149611	27364	1024038	42809	109854	0	0	8109	674270	0	0
2024-06-23 03:44:32			0	35014	0	0	0	26589	25190	149667	27237	1023959	42807	109852	0	0	8109	674257	0	0
2024-06-23 03:45:32			0	35032	0	0	0	26599	25200	149591	27287	1024003	42809	109856	0	0	8110	673412	0	0
2024-06-23 03:46:32			0	34998	0	0	0	26592	25200	149587	27322	1023994	42808	109853	0	0	8108	674936	0	0
2024-06-23 03:47:32			0	35021	0	0	0	26586	25210	149655	27294	1023985	42797	109851	0	0	8109	673867	0	0
2024-06-23 03:48:32			0	35019	0	0	0	26594	25210	149635	27388	1024065	42787	109854	0	0	8109	673956	0	0
2024-06-23 03:49:32			0	35021	0	0	0	26584	25200	149655	27079	1024021	42808	109850	0	0	8109	673905	0	0
2024-06-23 03:50:32			0	35026	0	0	0	26586	25190	149615	27220	1023932	42785	109851	0	0	8110	673719	0	0
2024-06-23 03:51:32			0	35014	0	0	0	26618	25210	149607	27085	1024038	42809	109863	0	0	8108	674180	0	0
2024-06-23 03:52:32			0	35016	0	0	0	26610	25200	149507	27017	1024030	42809	109860	0	0	8109	674129	0	0
2024-06-23 03:53:32			0	35016	0	0	0	26594	25200	149651	27498	1024003	42820	109854	0	0	8109	674129	0	0
2024-06-23 03:54:32			0	34998	0	0	0	26602	25200	149663	27388	1024030	42809	109857	0	0	8108	674936	0	0
2024-06-23 03:55:32			0	34996	0	0	0	26597	25180	149695	26958	1023950	42818	109855	0	0	8108	675102	0	0
2024-06-23 03:56:32			0	34954	0	0	0	26602	25200	149819	27286	1024030	42809	109857	0	0	8105	676911	0	0
2024-06-23 03:57:32			0	34933	0	0	0	26610	25200	149875	27234	1024021	42808	109860	0	0	8104	677856	0	0
2024-06-23 03:58:32			0	34946	0	0	0	26607	25200	149975	27329	1024030	42787	109859	0	0	8105	677271	0	0
2024-06-23 03:59:32			0	34923	0	0	0	26618	25200	150003	26856	1024048	42819	109863	0	0	8103	678306	0	0
2024-06-23 04:00:32			0	34949	0	0	0	26620	25210	149991	27085	1024038	42809	109864	0	0	8105	677097	0	0
2024-06-23 04:01:32			0	34925	0	0	0	26623	25200	150055	27353	1024083	42820	109865	0	0	8104	678216	0	0
2024-06-23 04:02:32			0	34926	0	0	0	26620	25210	149975	26793	1023993	42809	109864	0	0	8104	678132	0	0
2024-06-23 04:03:32			0	34940	0	0	0	26618	25200	149923	27284	1024083	42820	109863	0	0	8104	677541	0	0
2024-06-23 04:04:32			0	34935	0	0	0	26615	25200	150031	27379	1024110	42820	109862	0	0	8104	677765	0	0
2024-06-23 04:05:32			0	34940	0	0	0	26615	25210	150035	27138	1024074	42797	109862	0	0	8105	677502	0	0
2024-06-23 04:06:32			0	34932	0	0	0	26615	25200	150023	27196	1024003	42809	109862	0	0	8104	677900	0	0
2024-06-23 04:07:32			0	34896	0	0	0	26602	25210	149975	27256	1024011	42809	109857	0	0	8102	679483	0	0
2024-06-23 04:08:32			0	34931	0	0	0	26597	25210	150019	27067	1024020	42797	109855	0	0	8104	677907	0	0
2024-06-23 04:09:32			0	34919	0	0	0	26602	25200	150047	27301	1023994	42808	109857	0	0	8104	678486	0	0
2024-06-23 04:10:32			0	34926	0	0	0	26594	25200	149931	27001	1024083	42820	109854	0	0	8104	678171	0	0
2024-06-23 04:11:32			0	34935	0	0	0	26594	25200	150023	27454	1023949	42820	109854	0	0	8105	677765	0	0
2024-06-23 04:12:32			0	34938	0	0	0	26586	25200	149887	27379	1024021	42819	109851	0	0	8105	677631	0	0
2024-06-23 04:13:32			0	34947	0	0	0	26586	25200	149947	27222	1024003	42809	109851	0	0	8105	677226	0	0
2024-06-23 04:14:32			0	34963	0	0	0	26599	25200	149831	27015	1024003	42809	109856	0	0	8106	676507	0	0
2024-06-23 04:15:32			0	34962	0	0	0	26605	25210	149775	27100	1023985	42809	109858	0	0	8106	676513	0	0
2024-06-23 04:16:32			0	35003	0	0	0	26605	25210	149651	27260	1023985	42820	109858	0	0	8108	674673	0	0
2024-06-23 04:17:32			0	35039	0	0	0	26607	25210	149667	27071	1024038	42820	109859	0	0	8110	673061	0	0
2024-06-23 04:18:32			0	35029	0	0	0	26605	25200	149459	27301	1024030	42797	109858	0	0	8109	673547	0	0
2024-06-23 04:19:32			0	35057	0	0	0	26597	25190	149423	27017	1024012	42807	109855	0	0	8111	672332	0	0
2024-06-23 04:20:32			0	35097	0	0	0	26602	25200	149311	27175	1024030	42809	109857	0	0	8113	670507	0	0
2024-06-23 04:21:32			0	35110	0	0	0	26602	25200	149307	26970	1023994	42808	109857	0	0	8114	669927	0	0
2024-06-23 04:22:32			0	35106	0	0	0	26602	25200	149223	27211	1023976	42820	109857	0	0	8114	670106	0	0
2024-06-23 04:23:32			0	35121	0	0	0	26597	25200	149132	26831	1023994	42830	109855	0	0	8115	669437	0	0
2024-06-23 04:24:32			0	35126	0	0	0	26602	25200	149220	27157	1024021	42808	109857	0	0	8115	669214	0	0
2024-06-23 04:25:32			0	35137	0	0	0	26599	25210	149096	27007	1024038	42820	109856	0	0	8115	668686	0	0
2024-06-23 04:26:32			0	35172	0	0	0	26599	25180	149000	26998	1024004	42807	109856	0	0	8117	667242	0	0
2024-06-23 04:27:32			0	35208	0	0	0	26597	25200	148960	27239	1024030	42820	109855	0	0	8119	665567	0	0
2024-06-23 04:28:32			0	35228	0	0	0	26594	25190	148812	26899	1023959	42807	109854	0	0	8120	664718	0	0
2024-06-23 04:29:32			0	35239	0	0	0	26599	25200	148744	27112	1024021	42819	109856	0	0	8121	664193	0	0
2024-06-23 04:30:32			0	35263	0	0	0	26584	25200	148552	26915	1023967	42819	109850	0	0	8122	663130	0	0
2024-06-23 04:31:32			0	35282	0	0	0	26594	25180	148684	26934	1023977	42829	109854	0	0	8123	662364	0	0
2024-06-23 04:32:32			0	35283	0	0	0	26581	25180	148560	26812	1023950	42818	109849	0	0	8123	662320	0	0
2024-06-23 04:33:32			0	35289	0	0	0	26586	25200	148528	26814	1023967	42808	109851	0	0	8124	661980	0	0
2024-06-23 04:34:32			0	35301	0	0	0	26579	25200	148476	27076	1023941	42819	109848	0	0	8125	661450	0	0
2024-06-23 04:35:32			0	35297	0	0	0	26589	25180	148456	27027	1023870	42840	109852	0	0	8124	661701	0	0
2024-06-23 04:36:32			0	35286	0	0	0	26584	25190	148528	26942	1023932	42818	109850	0	0	8124	662150	0	0
2024-06-23 04:37:32			0	35285	0	0	0	26586	25180	148564	26998	1023968	42817	109851	0	0	8124	662232	0	0
2024-06-23 04:38:32			0	35268	0	0	0	26584	25170	148648	27010	1023932	42806	109850	0	0	8123	663021	0	0
2024-06-23 04:39:32			0	35250	0	0	0	26581	25170	148672	27499	1023959	42795	109849	0	0	8122	663818	0	0
2024-06-23 04:40:32			0	35255	0	0	0	26571	25170	148640	27279	1023906	42829	109845	0	0	8122	663597	0	0
2024-06-23 04:41:32			0	35243	0	0	0	26579	25180	148716	27355	1023915	42829	109848	0	0	8121	664091	0	0
2024-06-23 04:42:32			0	35205	0	0	0	26574	25180	148756	26795	1023861	42829	109846	0	0	8119	665776	0	0
2024-06-23 04:43:32			0	35205	0	0	0	26566	25170	148852	27345	1023906	42806	109843	0	0	8119	665814	0	0
2024-06-23 04:44:32			0	35191	0	0	0	26581	25170	148940	27185	1023932	42817	109849	0	0	8118	666436	0	0
2024-06-23 04:45:32			0	35204	0	0	0	26576	25170	148892	26889	1023906	42817	109847	0	0	8119	665858	0	0
2024-06-23 04:46:32			0	35186	0	0	0	26581	25180	148960	26932	1023941	42806	109849	0	0	8118	666620	0	0
2024-06-23 04:47:32			0	35180	0	0	0	26574	25180	148956	27222	1023915	42817	109846	0	0	8118	666887	0	0
2024-06-23 04:48:32			0	35158	0	0	0	26574	25170	149140	27048	1023906	42806	109846	0	0	8117	667903	0	0
2024-06-23 04:49:32			0	35140	0	0	0	26579	25180	149048	27064	1023915	42806	109848	0	0	8116	668666	0	0
2024-06-23 04:50:32			0	35155	0	0	0	26584	25170	149068	27312	1023986	42806	109850	0	0	8116	668036	0	0
2024-06-23 04:51:32			0	35150	0	0	0	26576	25180	148964	27223	1023968	42817	109847	0	0	8116	668221	0	0
2024-06-23 04:52:32			0	35156	0	0	0	26574	25180	148988	27261	1023915	42817	109846	0	0	8117	667954	0	0
2024-06-23 04:53:32			0	35164	0	0	0	26574	25170	149088	27287	1023906	42817	109846	0	0	8117	667636	0	0
2024-06-23 04:54:32			0	35170	0	0	0	26568	25180	149036	27147	1023915	42817	109844	0	0	8118	667331	0	0
2024-06-23 04:55:32			0	35164	0	0	0	26566	25170	149004	27272	1023870	42816	109843	0	0	8117	667636	0	0
2024-06-23 04:56:32			0	35149	0	0	0	26568	25170	149080	27239	1023897	42805	109844	0	0	8116	668304	0	0
2024-06-23 04:57:32			0	35137	0	0	0	26574	25160	149136	27476	1023835	42816	109846	0	0	8116	668876	0	0
2024-06-23 04:58:32			0	35122	0	0	0	26571	25170	149108	27104	1023870	42816	109845	0	0	8115	669506	0	0
2024-06-23 04:59:32			0	35128	0	0	0	26563	25160	149176	27410	1023888	42816	109842	0	0	8115	669277	0	0
2024-06-23 05:00:32			0	35114	0	0	0	26568	25170	149203	27509	1023897	42816	109844	0	0	8115	669863	0	0
2024-06-23 05:01:32			0	35143	0	0	0	26555	25160	149088	27123	1023888	42816	109839	0	0	8116	668608	0	0
2024-06-23 05:02:32			0	35158	0	0	0	26563	25160	149080	27109	1023862	42816	109842	0	0	8117	667941	0	0
2024-06-23 05:03:32			0	35168	0	0	0	26566	25160	149036	27050	1023853	42815	109843	0	0	8117	667496	0	0
2024-06-23 05:04:32			0	35189	0	0	0	26545	25160	148964	27062	1023835	42816	109835	0	0	8119	666562	0	0
2024-06-23 05:05:32			0	35210	0	0	0	26550	25150	148872	27426	1023791	42804	109837	0	0	8120	665668	0	0
2024-06-23 05:06:32			0	35215	0	0	0	26555	25150	148824	27086	1023737	42804	109839	0	0	8120	665446	0	0
2024-06-23 05:07:32			0	35233	0	0	0	26558	25150	148764	27274	1023764	42827	109840	0	0	8121	664647	0	0
2024-06-23 05:08:32			0	35220	0	0	0	26550	25150	148788	27163	1023791	42815	109837	0	0	8120	665224	0	0
2024-06-23 05:09:32			0	35263	0	0	0	26553	25160	148736	27666	1023880	42815	109838	0	0	8123	663280	0	0
2024-06-23 05:10:32			0	35263	0	0	0	26548	25160	148624	27383	1023773	42782	109836	0	0	8123	663280	0	0
2024-06-23 05:11:32			0	35266	0	0	0	26550	25150	148656	27397	1023755	42814	109837	0	0	8123	663185	0	0
2024-06-23 05:12:32			0	35279	0	0	0	26540	25150	148588	27450	1023818	42815	109833	0	0	8124	662610	0	0
2024-06-23 05:13:32			0	35246	0	0	0	26545	25150	148796	27341	1023809	42814	109835	0	0	8122	664071	0	0
2024-06-23 05:14:32			0	35216	0	0	0	26548	25140	148864	27402	1023773	42802	109836	0	0	8120	665439	0	0
2024-06-23 05:15:32			0	35195	0	0	0	26548	25140	148912	27313	1023765	42802	109836	0	0	8119	666371	0	0
2024-06-23 05:16:32			0	35173	0	0	0	26550	25150	148984	27346	1023791	42815	109837	0	0	8118	667311	0	0
2024-06-23 05:17:32			0	35178	0	0	0	26545	25130	149068	27488	1023783	42802	109835	0	0	8118	667165	0	0
2024-06-23 05:18:32			0	35181	0	0	0	26548	25140	148984	27412	1023792	42802	109836	0	0	8118	666994	0	0
2024-06-23 05:19:32			0	35184	0	0	0	26542	25150	149020	27327	1023729	42803	109834	0	0	8119	666822	0	0
2024-06-23 05:20:32			0	35215	0	0	0	26511	25140	148964	27118	1023747	42813	109822	0	0	8121	665483	0	0
2024-06-23 05:21:32			0	35216	0	0	0	26524	25140	148804	27379	1023711	42802	109827	0	0	8121	665439	0	0
2024-06-23 05:22:32			0	35211	0	0	0	26529	25130	148872	27462	1023703	42813	109829	0	0	8120	665699	0	0
2024-06-23 05:23:32			0	35207	0	0	0	26529	25140	148944	27071	1023738	42813	109829	0	0	8120	665838	0	0
2024-06-23 05:24:32			0	35172	0	0	0	26527	25140	149152	27396	1023711	42802	109828	0	0	8118	667394	0	0
2024-06-23 05:25:32			0	35129	0	0	0	26498	25120	149280	27109	1023570	42790	109817	0	0	8116	669384	0	0
2024-06-23 05:26:32			0	35101	0	0	0	26503	25130	149267	27173	1023694	42801	109819	0	0	8115	670595	0	0
2024-06-23 05:27:32			0	35060	0	0	0	26516	25120	149611	27500	1023685	42812	109824	0	0	8112	672465	0	0
2024-06-23 05:28:32			0	35007	0	0	0	26519	25120	149731	27180	1023685	42812	109825	0	0	8109	674839	0	0
2024-06-23 05:29:32			0	34996	0	0	0	26519	25120	149815	27348	1023605	42800	109825	0	0	8109	675332	0	0
2024-06-23 05:30:32			0	34964	0	0	0	26522	25120	149871	27355	1023685	42812	109826	0	0	8107	676769	0	0
2024-06-23 05:31:32			0	34983	0	0	0	26488	25120	149895	27310	1023632	42812	109813	0	0	8109	675916	0	0
2024-06-23 05:32:32			0	34966	0	0	0	26498	25120	149887	27332	1023650	42812	109817	0	0	8107	676679	0	0
2024-06-23 05:33:32			0	34987	0	0	0	26488	25110	149895	27135	1023534	42812	109813	0	0	8109	675774	0	0
2024-06-23 05:34:32			0	34969	0	0	0	26459	25110	149867	27481	1023606	42799	109802	0	0	8108	676583	0	0
2024-06-23 05:35:32			0	34971	0	0	0	26420	25100	150019	27241	1023410	42777	109787	0	0	8109	676531	0	0
2024-06-23 05:36:32			0	34942	0	0	0	26418	25090	149995	27093	1023411	42809	109786	0	0	8107	677874	0	0
2024-06-23 05:37:32			0	34924	0	0	0	26412	25080	150059	27386	1023367	42796	109784	0	0	8106	678722	0	0
2024-06-23 05:38:32			0	34869	0	0	0	26392	25060	150171	27429	1023252	42794	109776	0	0	8104	681281	0	0
2024-06-23 05:39:32			0	34833	0	0	0	26397	25060	150567	27327	1023260	42795	109778	0	0	8102	682908	0	0
2024-06-23 05:40:32			0	34699	0	0	0	26381	25050	150959	26842	1023127	42783	109772	0	0	8095	689031	0	0
2024-06-23 05:41:32			0	34616	0	0	0	26394	25040	151447	27410	1023172	42793	109777	0	0	8090	692860	0	0
2024-06-23 05:42:32			0	34524	0	0	0	26386	25030	151955	27220	1023074	42803	109774	0	0	8085	697119	0	0
2024-06-23 05:43:32			0	34414	0	0	0	26410	25020	152371	27239	1023164	42802	109783	0	0	8078	702230	0	0
2024-06-23 05:44:32			0	34300	0	0	0	26410	25020	152926	27234	1023111	42802	109783	0	0	8072	707516	0	0
2024-06-23 05:45:32			0	34219	0	0	0	26431	25030	153430	27414	1023173	42815	109791	0	0	8067	711250	0	0
2024-06-23 05:46:32			0	34129	0	0	0	26399	25020	153750	27111	1023164	42814	109779	0	0	8063	715503	0	0
2024-06-23 05:47:32			0	34099	0	0	0	26402	25020	153866	27114	1023182	42801	109780	0	0	8061	716911	0	0
2024-06-23 05:48:32			0	34082	0	0	0	26389	25020	154026	27308	1023102	42791	109775	0	0	8060	717710	0	0
2024-06-23 05:49:32			0	34059	0	0	0	26389	25010	154106	27521	1023031	42790	109775	0	0	8059	718833	0	0
2024-06-23 05:50:32			0	34024	0	0	0	26386	25020	154326	27287	1023084	42802	109774	0	0	8057	720442	0	0
2024-06-23 05:51:32			0	33976	0	0	0	26399	25000	154502	27171	1023022	42790	109779	0	0	8054	722790	0	0
2024-06-23 05:52:32			0	33893	0	0	0	26363	25000	154794	27229	1023076	42801	109765	0	0	8050	726724	0	0
2024-06-23 05:53:32			0	33836	0	0	0	26379	24990	154926	27575	1022970	42788	109771	0	0	8046	729476	0	0
2024-06-23 05:54:32			0	33785	0	0	0	26381	25000	155198	27218	1022933	42811	109772	0	0	8044	731868	0	0
2024-06-23 05:55:32			0	33736	0	0	0	26376	24990	155550	27137	1022970	42799	109770	0	0	8041	734253	0	0
2024-06-23 05:56:32			0	33681	0	0	0	26379	24970	155918	27183	1022997	42787	109771	0	0	8037	736974	0	0
2024-06-23 05:57:32			0	33633	0	0	0	26373	24990	156158	27183	1022943	42810	109769	0	0	8035	739198	0	0
2024-06-23 05:58:32			0	33571	0	0	0	26376	24980	156354	27599	1022961	42788	109770	0	0	8031	742230	0	0
2024-06-23 05:59:32			0	33514	0	0	0	26386	24980	156537	27459	1022979	42798	109774	0	0	8028	744988	0	0
2024-06-23 06:00:32			0	33473	0	0	0	26373	24980	156741	27338	1023015	42799	109769	0	0	8026	746976	0	0
2024-06-23 06:01:32			0	33421	0	0	0	26368	24980	156965	27443	1022961	42799	109767	0	0	8023	749504	0	0
2024-06-23 06:02:32			0	33408	0	0	0	26368	24970	157041	27137	1022917	42797	109767	0	0	8022	750180	0	0
2024-06-23 06:03:32			0	33372	0	0	0	26371	24960	157133	27403	1022953	42787	109768	0	0	8020	751979	0	0
2024-06-23 06:04:32			0	33357	0	0	0	26371	24970	157293	27196	1022944	42808	109768	0	0	8019	752669	0	0
2024-06-23 06:05:32			0	33334	0	0	0	26381	24980	157405	27300	1022952	42798	109772	0	0	8018	753750	0	0
2024-06-23 06:06:32			0	33302	0	0	0	26379	24970	157485	27185	1022970	42797	109771	0	0	8016	755360	0	0
2024-06-23 06:07:32			0	33274	0	0	0	26376	24970	157613	27216	1022962	42797	109770	0	0	8014	756733	0	0
2024-06-23 06:08:32			0	33275	0	0	0	26366	24970	157733	27362	1022935	42797	109766	0	0	8014	756684	0	0
2024-06-23 06:09:32			0	33263	0	0	0	26361	24960	157809	27170	1022891	42796	109764	0	0	8014	757316	0	0
2024-06-23 06:10:32			0	33257	0	0	0	26337	24970	157765	27053	1022837	42797	109755	0	0	8014	757567	0	0
2024-06-23 06:11:32			0	33251	0	0	0	26332	24970	157777	27166	1022890	42787	109753	0	0	8014	757862	0	0
2024-06-23 06:12:32			0	33242	0	0	0	26350	24960	157817	27147	1022846	42787	109760	0	0	8013	758347	0	0
2024-06-23 06:13:32			0	33204	0	0	0	26358	24960	158017	27150	1022838	42796	109763	0	0	8010	760217	0	0
2024-06-23 06:14:32			0	33175	0	0	0	26358	24950	158089	27098	1022829	42795	109763	0	0	8009	761690	0	0
2024-06-23 06:15:32			0	33175	0	0	0	26355	24950	158189	27277	1022882	42785	109762	0	0	8009	761690	0	0
2024-06-23 06:16:32			0	33118	0	0	0	26363	24960	158405	27137	1022864	42807	109765	0	0	8005	764463	0	0
2024-06-23 06:17:32			0	33096	0	0	0	26358	24960	158653	27412	1022846	42787	109763	0	0	8004	765553	0	0
2024-06-23 06:18:32			0	33059	0	0	0	26353	24960	158793	27301	1022891	42786	109761	0	0	8002	767388	0	0
2024-06-23 06:19:32			0	33037	0	0	0	26368	24960	158749	27326	1022864	42786	109767	0	0	8001	768480	0	0
2024-06-23 06:20:32			0	33008	0	0	0	26358	24950	158913	27223	1022874	42794	109763	0	0	7999	769966	0	0
2024-06-23 06:21:32			0	32984	0	0	0	26376	24960	159037	27293	1022838	42807	109770	0	0	7997	771118	0	0
2024-06-23 06:22:32			0	32983	0	0	0	26371	24960	159153	27452	1022918	42786	109768	0	0	7997	771168	0	0
2024-06-23 06:23:32			0	32962	0	0	0	26376	24960	159177	27036	1022918	42796	109770	0	0	7996	772215	0	0
2024-06-23 06:24:32			0	32961	0	0	0	26368	24950	159233	27097	1022829	42795	109767	0	0	7996	772309	0	0
2024-06-23 06:25:32			0	32964	0	0	0	26386	24960	159241	27294	1022891	42796	109774	0	0	7996	772116	0	0
2024-06-23 06:26:32			0	32971	0	0	0	26376	24950	159141	27225	1022936	42795	109770	0	0	7997	771810	0	0
2024-06-23 06:27:32			0	32996	0	0	0	26368	24970	159089	27317	1022908	42787	109767	0	0	7998	770477	0	0
2024-06-23 06:28:32			0	33006	0	0	0	26358	24960	159029	27166	1022873	42775	109763	0	0	7999	770022	0	0
2024-06-23 06:29:32			0	33023	0	0	0	26348	24960	158897	27085	1022891	42796	109759	0	0	8000	769177	0	0
2024-06-23 06:30:32			0	33030	0	0	0	26371	24950	158869	27208	1022829	42795	109768	0	0	8000	768872	0	0
2024-06-23 06:31:32			0	33040	0	0	0	26381	24960	158993	27431	1022891	42807	109772	0	0	8001	768331	0	0
2024-06-23 06:32:32			0	33045	0	0	0	26397	24960	158945	27332	1022926	42808	109778	0	0	8001	768083	0	0
2024-06-23 06:33:32			0	33051	0	0	0	26412	24960	158905	27203	1022980	42808	109784	0	0	8001	767785	0	0
2024-06-23 06:34:32			0	33057	0	0	0	26394	24970	158685	27633	1022989	42797	109777	0	0	8001	767443	0	0
2024-06-23 06:35:32			0	33099	0	0	0	26407	24970	158553	27466	1022970	42787	109782	0	0	8004	765361	0	0
2024-06-23 06:36:32			0	33114	0	0	0	26389	24980	158501	27277	1022979	42798	109775	0	0	8005	764575	0	0
2024-06-23 06:37:32			0	33164	0	0	0	26389	24970	158305	27499	1022970	42787	109775	0	0	8008	762146	0	0
2024-06-23 06:38:32			0	33205	0	0	0	26405	24970	158141	27673	1022997	42797	109781	0	0	8010	760125	0	0
2024-06-23 06:39:32			0	33213	0	0	0	26410	24980	157961	27419	1023068	42799	109783	0	0	8010	759688	0	0
2024-06-23 06:40:32			0	33256	0	0	0	26428	24980	157849	27379	1023041	42799	109790	0	0	8012	757574	0	0
2024-06-23 06:41:32			0	33304	0	0	0	26433	24980	157641	27345	1023068	42799	109792	0	0	8015	755219	0	0
2024-06-23 06:42:32			0	33328	0	0	0	26451	24990	157589	27388	1023166	42810	109799	0	0	8016	754001	0	0
2024-06-23 06:43:32			0	33400	0	0	0	26444	24990	157181	27466	1023166	42799	109796	0	0	8020	750485	0	0
2024-06-23 06:44:32			0	33455	0	0	0	26438	24990	156909	27450	1023166	42799	109794	0	0	8024	747808	0	0
2024-06-23 06:45:32			0	33506	0	0	0	26436	25000	156597	27722	1023183	42801	109793	0	0	8027	745291	0	0
2024-06-23 06:46:32			0	33559	0	0	0	26420	25000	156321	27364	1023210	42801	109787	0	0	8030	742726	0	0
2024-06-23 06:47:32			0	33619	0	0	0	26423	25000	156154	27237	1023129	42801	109788	0	0	8033	739831	0	0
2024-06-23 06:48:32			0	33675	0	0	0	26412	25000	155938	27507	1023129	42801	109784	0	0	8037	737136	0	0
2024-06-23 06:49:32			0	33708	0	0	0	26436	24990	155826	27242	1023112	42799	109793	0	0	8038	735594	0	0
2024-06-23 06:50:32			0	33729	0	0	0	26446	25000	155658	27556	1023129	42801	109797	0	0	8039	734546	0	0
2024-06-23 06:51:32			0	33738	0	0	0	26415	25010	155534	27248	1023174	42801	109785	0	0	8040	734074	0	0
2024-06-23 06:52:32			0	33765	0	0	0	26412	25010	155526	27639	1023085	42790	109784	0	0	8042	732782	0	0
2024-06-23 06:53:32			0	33812	0	0	0	26394	25000	155366	27377	1023183	42801	109777	0	0	8045	730579	0	0
2024-06-23 06:54:32			0	33812	0	0	0	26394	25000	155242	27119	1023076	42790	109777	0	0	8045	730579	0	0
2024-06-23 06:55:32			0	33831	0	0	0	26402	25000	155126	27412	1023076	42790	109780	0	0	8046	729673	0	0
2024-06-23 06:56:32			0	33864	0	0	0	26394	24990	155026	27293	1023103	42799	109777	0	0	8048	728144	0	0
2024-06-23 06:57:32			0	33851	0	0	0	26392	25000	154974	27319	1023094	42789	109776	0	0	8047	728721	0	0
2024-06-23 06:58:32			0	33871	0	0	0	26405	25000	154910	27057	1023067	42789	109781	0	0	8048	727769	0	0
2024-06-23 06:59:32			0	33877	0	0	0	26407	25000	154854	26837	1023094	42800	109782	0	0	8048	727484	0	0
2024-06-23 07:00:32			0	33881	0	0	0	26436	24990	154822	27175	1023085	42799	109793	0	0	8048	727335	0	0
2024-06-23 07:01:32			0	33921	0	0	0	26436	25000	154698	27367	1023210	42801	109793	0	0	8050	725395	0	0
2024-06-23 07:02:32			0	33971	0	0	0	26449	25000	154422	27310	1023156	42790	109798	0	0	8053	723027	0	0
2024-06-23 07:03:32			0	34039	0	0	0	26470	25000	154110	27372	1023210	42823	109806	0	0	8056	719816	0	0
2024-06-23 07:04:32			0	34121	0	0	0	26459	25010	153854	27183	1023201	42812	109802	0	0	8061	715919	0	0
2024-06-23 07:05:32			0	34189	0	0	0	26459	25010	153482	27426	1023227	42823	109802	0	0	8065	712733	0	0
2024-06-23 07:06:32			0	34237	0	0	0	26470	25010	153230	27597	1023281	42801	109806	0	0	8067	710490	0	0
2024-06-23 07:07:32			0	34276	0	0	0	26457	25020	153022	27490	1023298	42814	109801	0	0	8070	708632	0	0
2024-06-23 07:08:32			0	34304	0	0	0	26475	25030	152870	27305	1023315	42815	109808	0	0	8071	707290	0	0
2024-06-23 07:09:32			0	34333	0	0	0	26459	25030	152846	27124	1023289	42815	109802	0	0	8073	705942	0	0
2024-06-23 07:10:32			0	34355	0	0	0	26454	25040	152759	26932	1023324	42792	109800	0	0	8074	704882	0	0
2024-06-23 07:11:32			0	34384	0	0	0	26459	25030	152535	27599	1023289	42815	109802	0	0	8076	703578	0	0
2024-06-23 07:12:32			0	34403	0	0	0	26477	25040	152451	27488	1023351	42826	109809	0	0	8077	702659	0	0
2024-06-23 07:13:32			0	34436	0	0	0	26464	25050	152315	27455	1023368	42817	109804	0	0	8079	701094	0	0
2024-06-23 07:14:32			0	34460	0	0	0	26475	25050	152183	27289	1023323	42817	109808	0	0	8080	699987	0	0
2024-06-23 07:15:32			0	34479	0	0	0	26459	25050	152135	27381	1023368	42828	109802	0	0	8081	699111	0	0
2024-06-23 07:16:32			0	34514	0	0	0	26459	25050	151879	27256	1023315	42817	109802	0	0	8083	697500	0	0
2024-06-23 07:17:32			0	34532	0	0	0	26444	25040	151951	27175	1023306	42816	109796	0	0	8084	696712	0	0
2024-06-23 07:18:32			0	34538	0	0	0	26457	25050	151827	27286	1023350	42817	109801	0	0	8084	696397	0	0
2024-06-23 07:19:32			0	34567	0	0	0	26459	25050	151719	27305	1023350	42805	109802	0	0	8086	695066	0	0
2024-06-23 07:20:32			0	34598	0	0	0	26436	25050	151607	27372	1023323	42805	109793	0	0	8088	693645	0	0
2024-06-23 07:21:32			0	34592	0	0	0	26464	25040	151611	27194	1023306	42804	109804	0	0	8087	693959	0	0
2024-06-23 07:22:32			0	34609	0	0	0	26467	25060	151503	27341	1023386	42794	109805	0	0	8088	693102	0	0
2024-06-23 07:23:32			0	34613	0	0	0	26446	25040	151483	27187	1023279	42816	109797	0	0	8089	692998	0	0
2024-06-23 07:24:32			0	34630	0	0	0	26433	25040	151451	27298	1023333	42816	109792	0	0	8090	692220	0	0
2024-06-23 07:25:32			0	34639	0	0	0	26438	25050	151459	26854	1023315	42805	109794	0	0	8090	691769	0	0
2024-06-23 07:26:32			0	34656	0	0	0	26451	25040	151359	27357	1023306	42816	109799	0	0	8091	691032	0	0
2024-06-23 07:27:32			0	34643	0	0	0	26464	25040	151355	27066	1023324	42803	109804	0	0	8090	691626	0	0
2024-06-23 07:28:32			0	34676	0	0	0	26480	25050	151287	26913	1023368	42817	109810	0	0	8092	690080	0	0
2024-06-23 07:29:32			0	34677	0	0	0	26477	25050	151183	27118	1023368	42817	109809	0	0	8092	690035	0	0
2024-06-23 07:30:32			0	34689	0	0	0	26485	25050	151111	27447	1023377	42828	109812	0	0	8092	689487	0	0
2024-06-23 07:31:32			0	34702	0	0	0	26498	25050	151175	27246	1023431	42817	109817	0	0	8093	688895	0	0
2024-06-23 07:32:32			0	34706	0	0	0	26493	25050	151055	27329	1023431	42817	109815	0	0	8093	688713	0	0
2024-06-23 07:33:32			0	34728	0	0	0	26485	25060	151099	27398	1023501	42817	109812	0	0	8094	687672	0	0
2024-06-23 07:34:32			0	34741	0	0	0	26464	25070	150999	27395	1023430	42807	109804	0	0	8096	687042	0	0
2024-06-23 07:35:32			0	34760	0	0	0	26501	25080	150815	27332	1023447	42796	109818	0	0	8096	686140	0	0
2024-06-23 07:36:32			0	34786	0	0	0	26477	25060	150799	27305	1023528	42817	109809	0	0	8098	685038	0	0
2024-06-23 07:37:32			0	34807	0	0	0	26493	25070	150727	27289	1023438	42818	109815	0	0	8099	684047	0	0
2024-06-23 07:38:32			0	34803	0	0	0	26506	25070	150655	27118	1023545	42830	109820	0	0	8098	684228	0	0
2024-06-23 07:39:32			0	34812	0	0	0	26485	25090	150635	27319	1023571	42820	109812	0	0	8099	683743	0	0
2024-06-23 07:40:32			0	34788	0	0	0	26483	25080	150615	27176	1023474	42807	109811	0	0	8098	684869	0	0
2024-06-23 07:41:32			0	34786	0	0	0	26488	25080	150683	27176	1023501	42818	109813	0	0	8098	684960	0	0
2024-06-23 07:42:32			0	34789	0	0	0	26514	25080	150643	27291	1023581	42818	109823	0	0	8097	684824	0	0
2024-06-23 07:43:32			0	34796	0	0	0	26524	25090	150599	27109	1023580	42821	109827	0	0	8098	684468	0	0
2024-06-23 07:44:32			0	34794	0	0	0	26542	25090	150587	27331	1023580	42821	109834	0	0	8097	684558	0	0
2024-06-23 07:45:32			0	34797	0	0	0	26532	25090	150699	27275	1023652	42820	109830	0	0	8098	684422	0	0
2024-06-23 07:46:32			0	34808	0	0	0	26555	25100	150663	27336	1023731	42821	109839	0	0	8098	683885	0	0
2024-06-23 07:47:32			0	34787	0	0	0	26555	25100	150651	27365	1023704	42821	109839	0	0	8097	684837	0	0
2024-06-23 07:48:32			0	34814	0	0	0	26553	25120	150635	27272	1023757	42823	109838	0	0	8098	683536	0	0
2024-06-23 07:49:32			0	34810	0	0	0	26553	25120	150627	27450	1023757	42823	109838	0	0	8098	683717	0	0
2024-06-23 07:50:32			0	34829	0	0	0	26550	25130	150451	27606	1023748	42824	109837	0	0	8099	682818	0	0
2024-06-23 07:51:32			0	34819	0	0	0	26555	25130	150547	27412	1023810	42813	109839	0	0	8099	683271	0	0
2024-06-23 07:52:32			0	34833	0	0	0	26561	25120	150499	27208	1023792	42823	109841	0	0	8099	682676	0	0
2024-06-23 07:53:32			0	34853	0	0	0	26561	25130	150387	27164	1023836	42813	109841	0	0	8100	681733	0	0
2024-06-23 07:54:32			0	34870	0	0	0	26561	25140	150383	27395	1023845	42835	109841	0	0	8101	680926	0	0
2024-06-23 07:55:32			0	34870	0	0	0	26563	25140	150347	27300	1023845	42802	109842	0	0	8101	680926	0	0
2024-06-23 07:56:32			0	34884	0	0	0	26558	25130	150191	27022	1023828	42824	109840	0	0	8102	680333	0	0
2024-06-23 07:57:32			0	34903	0	0	0	26563	25130	150179	26897	1023810	42813	109842	0	0	8103	679476	0	0
2024-06-23 07:58:32			0	34920	0	0	0	26558	25140	150123	27144	1023881	42825	109840	0	0	8104	678672	0	0
2024-06-23 07:59:32			0	34925	0	0	0	26558	25140	149947	27341	1023854	42813	109840	0	0	8104	678447	0	0
2024-06-23 08:00:32			0	34943	0	0	0	26568	25140	149911	27220	1023872	42825	109844	0	0	8105	677636	0	0
2024-06-23 08:01:32			0	34943	0	0	0	26553	25150	149871	27173	1023916	42826	109838	0	0	8105	677598	0	0
2024-06-23 08:02:32			0	34940	0	0	0	26561	25150	149931	27407	1023836	42814	109841	0	0	8105	677733	0	0
2024-06-23 08:03:32			0	34939	0	0	0	26568	25150	149911	27261	1023844	42815	109844	0	0	8105	677778	0	0
2024-06-23 08:04:32			0	34918	0	0	0	26566	25150	149927	27554	1023889	42826	109843	0	0	8104	678723	0	0
2024-06-23 08:05:32			0	34945	0	0	0	26579	25150	149955	27284	1023951	42815	109848	0	0	8105	677508	0	0
2024-06-23 08:06:32			0	34930	0	0	0	26576	25160	150039	27417	1023933	42827	109847	0	0	8104	678144	0	0
2024-06-23 08:07:32			0	34893	0	0	0	26579	25150	150115	27116	1023898	42827	109848	0	0	8102	679850	0	0
2024-06-23 08:08:32			0	34889	0	0	0	26576	25150	150191	27275	1023836	42826	109847	0	0	8102	680030	0	0
2024-06-23 08:09:32			0	34880	0	0	0	26576	25150	150223	27223	1023916	42826	109847	0	0	8102	680436	0	0
2024-06-23 08:10:32			0	34857	0	0	0	26594	25160	150331	27109	1023906	42837	109854	0	0	8100	681436	0	0
2024-06-23 08:11:32			0	34843	0	0	0	26579	25160	150419	27265	1023969	42805	109848	0	0	8100	682069	0	0
2024-06-23 08:12:32			0	34820	0	0	0	26581	25160	150487	26986	1023906	42815	109849	0	0	8098	683109	0	0
2024-06-23 08:13:32			0	34810	0	0	0	26576	25160	150467	27185	1023942	42816	109847	0	0	8098	683562	0	0
2024-06-23 08:14:32			0	34803	0	0	0	26579	25160	150531	27341	1023942	42816	109848	0	0	8097	683879	0	0
2024-06-23 08:15:32			0	34805	0	0	0	26584	25160	150567	26961	1023933	42827	109850	0	0	8097	683788	0	0
2024-06-23 08:16:32			0	34804	0	0	0	26581	25170	150639	27312	1023977	42838	109849	0	0	8097	683794	0	0
2024-06-23 08:17:32			0	34803	0	0	0	26576	25160	150531	26984	1023969	42816	109847	0	0	8097	683879	0	0
2024-06-23 08:18:32			0	34788	0	0	0	26579	25170	150607	27429	1023959	42829	109848	0	0	8097	684520	0	0
2024-06-23 08:19:32			0	34788	0	0	0	26592	25160	150551	27331	1023995	42816	109853	0	0	8096	684558	0	0
2024-06-23 08:20:32			0	34788	0	0	0	26597	25170	150711	27116	1024013	42839	109855	0	0	8096	684520	0	0
2024-06-23 08:21:32			0	34763	0	0	0	26594	25170	150751	27455	1024013	42817	109854	0	0	8095	685653	0	0
2024-06-23 08:22:32			0	34755	0	0	0	26602	25180	150719	27293	1024030	42818	109857	0	0	8095	685977	0	0
2024-06-23 08:23:32			0	34774	0	0	0	26602	25180	150687	27277	1024030	42840	109857	0	0	8096	685115	0	0
2024-06-23 08:24:32			0	34771	0	0	0	26592	25180	150763	27480	1024048	42850	109853	0	0	8096	685251	0	0
2024-06-23 08:25:32			0	34765	0	0	0	26592	25180	150715	27495	1024075	42829	109853	0	0	8095	685524	0	0
2024-06-23 08:26:32			0	34734	0	0	0	26594	25180	150775	27490	1023977	42829	109854	0	0	8093	686931	0	0
2024-06-23 08:27:32			0	34771	0	0	0	26599	25170	150711	27377	1024013	42817	109856	0	0	8095	685290	0	0
2024-06-23 08:28:32			0	34790	0	0	0	26607	25190	150635	27348	1024039	42818	109859	0	0	8096	684351	0	0
2024-06-23 08:29:32			0	34798	0	0	0	26612	25200	150571	27462	1024074	42830	109861	0	0	8097	683950	0	0
2024-06-23 08:30:32			0	34818	0	0	0	26615	25190	150455	27459	1024093	42829	109862	0	0	8098	683083	0	0
2024-06-23 08:31:32			0	34827	0	0	0	26615	25200	150431	27640	1024101	42819	109862	0	0	8098	682637	0	0
2024-06-23 08:32:32			0	34863	0	0	0	26607	25200	150267	27410	1024137	42831	109859	0	0	8100	681010	0	0
2024-06-23 08:33:32			0	34886	0	0	0	26620	25190	150191	27569	1024093	42829	109864	0	0	8101	680011	0	0
2024-06-23 08:34:32			0	34905	0	0	0	26607	25200	150011	27530	1024101	42808	109859	0	0	8103	679116	0	0
2024-06-23 08:35:32			0	34931	0	0	0	26607	25200	149935	27397	1024155	42819	109859	0	0	8104	677946	0	0
2024-06-23 08:36:32			0	34960	0	0	0	26602	25200	149883	27315	1024083	42831	109857	0	0	8106	676642	0	0
2024-06-23 08:37:32			0	34986	0	0	0	26610	25180	149795	27334	1024084	42829	109860	0	0	8107	675551	0	0
2024-06-23 08:38:32			0	34984	0	0	0	26612	25200	149687	27531	1024155	42841	109861	0	0	8107	675564	0	0
2024-06-23 08:39:32			0	35014	0	0	0	26602	25200	149663	27156	1024128	42819	109857	0	0	8109	674219	0	0
2024-06-23 08:40:32			0	35027	0	0	0	26605	25200	149603	27287	1024128	42841	109858	0	0	8109	673636	0	0
2024-06-23 08:41:32			0	35045	0	0	0	26610	25200	149563	27353	1024083	42820	109860	0	0	8110	672831	0	0
2024-06-23 08:42:32			0	35048	0	0	0	26610	25210	149431	27178	1024172	42831	109860	0	0	8110	672658	0	0
2024-06-23 08:43:32			0	35054	0	0	0	26610	25210	149339	27396	1024145	42831	109860	0	0	8111	672390	0	0
2024-06-23 08:44:32			0	35076	0	0	0	26602	25210	149503	27407	1024145	42831	109857	0	0	8112	671407	0	0
2024-06-23 08:45:32			0	35069	0	0	0	26607	25200	149427	27486	1024083	42842	109859	0	0	8112	671757	0	0
2024-06-23 08:46:32			0	35080	0	0	0	26610	25200	149435	27398	1024083	42820	109860	0	0	8112	671266	0	0
2024-06-23 08:47:32			0	35092	0	0	0	26610	25200	149275	27663	1024110	42842	109860	0	0	8113	670730	0	0
2024-06-23 08:48:32			0	35120	0	0	0	26605	25200	149184	27514	1024083	42820	109858	0	0	8114	669481	0	0
2024-06-23 08:49:32			0	35107	0	0	0	26612	25200	149175	27365	1024030	42809	109861	0	0	8114	670061	0	0
2024-06-23 08:50:32			0	35113	0	0	0	26612	25210	149199	27251	1024118	42831	109861	0	0	8114	669755	0	0
2024-06-23 08:51:32			0	35118	0	0	0	26594	25200	149148	27618	1024137	42831	109854	0	0	8114	669570	0	0
2024-06-23 08:52:32			0	35129	0	0	0	26597	25200	149116	27308	1024110	42820	109855	0	0	8115	669080	0	0
2024-06-23 08:53:32			0	35137	0	0	0	26605	25210	149168	27511	1024118	42820	109858	0	0	8115	668686	0	0
2024-06-23 08:54:32			0	35137	0	0	0	26607	25200	149104	27464	1024048	42819	109859	0	0	8115	668724	0	0
2024-06-23 08:55:32			0	35166	0	0	0	26599	25210	149084	27426	1024092	42831	109856	0	0	8117	667395	0	0
2024-06-23 08:56:32			0	35160	0	0	0	26602	25200	148936	27564	1024048	42841	109857	0	0	8117	667700	0	0
2024-06-23 08:57:32			0	35168	0	0	0	26602	25200	148928	27379	1024101	42830	109857	0	0	8117	667344	0	0
2024-06-23 08:58:32			0	35170	0	0	0	26597	25200	149000	27611	1024083	42842	109855	0	0	8117	667255	0	0
2024-06-23 08:59:32			0	35162	0	0	0	26599	25200	148976	27452	1024101	42819	109856	0	0	8117	667611	0	0
2024-06-23 09:00:32			0	35155	0	0	0	26605	25200	148984	27046	1024137	42842	109858	0	0	8116	667923	0	0
2024-06-23 09:01:32			0	35158	0	0	0	26612	25200	148968	27362	1024128	42830	109861	0	0	8116	667789	0	0
2024-06-23 09:02:32			0	35162	0	0	0	26599	25180	148888	27253	1024084	42818	109856	0	0	8117	667687	0	0
2024-06-23 09:03:32			0	35161	0	0	0	26597	25200	148956	27455	1024056	42831	109855	0	0	8117	667656	0	0
2024-06-23 09:04:32			0	35168	0	0	0	26607	25200	148940	27421	1024074	42830	109859	0	0	8117	667344	0	0
2024-06-23 09:05:32			0	35159	0	0	0	26610	25200	148972	27235	1024048	42841	109860	0	0	8116	667745	0	0
2024-06-23 09:06:32			0	35143	0	0	0	26605	25190	149032	27594	1024119	42818	109858	0	0	8116	668495	0	0
2024-06-23 09:07:32			0	35145	0	0	0	26607	25200	149140	27339	1024137	42820	109859	0	0	8116	668368	0	0
2024-06-23 09:08:32			0	35128	0	0	0	26612	25200	149132	27331	1024101	42830	109861	0	0	8115	669125	0	0
2024-06-23 09:09:32			0	35116	0	0	0	26602	25200	149220	27384	1024083	42842	109857	0	0	8114	669660	0	0
2024-06-23 09:10:32			0	35111	0	0	0	26610	25200	149279	27268	1024101	42830	109860	0	0	8114	669883	0	0
2024-06-23 09:11:32			0	35079	0	0	0	26610	25200	149315	27294	1024101	42830	109860	0	0	8112	671311	0	0
2024-06-23 09:12:32			0	35072	0	0	0	26610	25200	149271	27658	1024110	42831	109860	0	0	8112	671623	0	0
2024-06-23 09:13:32			0	35078	0	0	0	26581	25200	149407	27448	1024074	42830	109849	0	0	8113	671355	0	0
2024-06-23 09:14:32			0	35041	0	0	0	26571	25200	149431	27426	1024083	42831	109845	0	0	8111	673010	0	0
2024-06-23 09:15:32			0	35049	0	0	0	26579	25190	149511	27286	1024093	42829	109848	0	0	8111	672690	0	0
2024-06-23 09:16:32			0	35035	0	0	0	26568	25180	149487	27267	1024030	42818	109844	0	0	8110	673354	0	0
2024-06-23 09:17:32			0	35027	0	0	0	26563	25180	149479	27241	1024048	42829	109842	0	0	8110	673713	0	0
2024-06-23 09:18:32			0	35026	0	0	0	26584	25190	149587	27079	1024012	42829	109850	0	0	8110	673719	0	0
2024-06-23 09:19:32			0	35026	0	0	0	26586	25180	149555	27388	1024075	42829	109851	0	0	8110	673758	0	0
2024-06-23 09:20:32			0	35026	0	0	0	26586	25170	149603	27100	1024013	42817	109851	0	0	8109	673796	0	0
2024-06-23 09:21:32			0	35007	0	0	0	26586	25180	149675	27105	1024048	42829	109851	0	0	8108	674609	0	0
2024-06-23 09:22:32			0	34992	0	0	0	26571	25190	149655	27372	1024066	42818	109845	0	0	8108	675243	0	0
2024-06-23 09:23:32			0	35003	0	0	0	26581	25170	149759	27229	1024013	42829	109849	0	0	8108	674827	0	0
2024-06-23 09:24:32			0	34996	0	0	0	26594	25180	149771	27199	1024048	42839	109854	0	0	8108	675102	0	0
2024-06-23 09:25:32			0	34996	0	0	0	26597	25180	149795	27471	1024022	42829	109855	0	0	8108	675102	0	0
2024-06-23 09:26:32			0	34994	0	0	0	26561	25180	149835	27578	1024004	42829	109841	0	0	8108	675192	0	0
2024-06-23 09:27:32			0	34991	0	0	0	26540	25190	149739	27497	1024039	42829	109833	0	0	8108	675288	0	0
2024-06-23 09:28:32			0	34977	0	0	0	26571	25190	149763	27481	1024012	42829	109845	0	0	8107	675916	0	0
2024-06-23 09:29:32			0	34984	0	0	0	26516	25170	149691	27403	1023924	42816	109824	0	0	8108	675679	0	0
2024-06-23 09:30:32			0	34973	0	0	0	26436	25160	149683	27405	1023781	42805	109793	0	0	8109	676211	0	0
2024-06-23 09:31:32			0	35013	0	0	0	26412	25140	149579	27355	1023666	42802	109784	0	0	8112	674493	0	0
2024-06-23 09:32:32			0	35030	0	0	0	26433	25130	149611	27483	1023622	42813	109792	0	0	8112	673770	0	0
2024-06-23 09:33:32			0	35058	0	0	0	26444	25110	149475	27552	1023633	42799	109796	0	0	8113	672593	0	0
2024-06-23 09:34:32			0	35068	0	0	0	26485	25110	149475	27507	1023615	42812	109812	0	0	8113	672145	0	0
2024-06-23 09:35:32			0	35061	0	0	0	26436	25120	149375	27332	1023632	42812	109793	0	0	8114	672420	0	0
2024-06-23 09:36:32			0	35078	0	0	0	26402	25100	149411	27248	1023428	42810	109780	0	0	8115	671736	0	0
2024-06-23 09:37:32			0	35095	0	0	0	26373	25100	149315	27150	1023401	42798	109769	0	0	8117	670977	0	0
2024-06-23 09:38:32			0	35063	0	0	0	26392	25080	149375	27272	1023367	42796	109776	0	0	8114	672483	0	0
2024-06-23 09:39:32			0	35054	0	0	0	26428	25070	149611	27441	1023430	42818	109790	0	0	8113	672924	0	0
2024-06-23 09:40:32			0	35005	0	0	0	26438	25050	149611	27455	1023404	42805	109794	0	0	8110	675196	0	0
2024-06-23 09:41:32			0	35003	0	0	0	26407	25060	149735	27308	1023368	42817	109782	0	0	8111	675248	0	0
2024-06-23 09:42:32			0	34982	0	0	0	26392	25050	149887	27300	1023323	42805	109776	0	0	8110	676229	0	0
2024-06-23 09:43:32			0	34975	0	0	0	26384	25060	149819	27588	1023412	42805	109773	0	0	8110	676505	0	0
2024-06-23 09:44:32			0	34974	0	0	0	26363	25040	149795	27348	1023217	42815	109765	0	0	8110	676627	0	0
2024-06-23 09:45:32			0	34988	0	0	0	26358	25060	149839	27291	1023252	42805	109763	0	0	8111	675921	0	0
2024-06-23 09:46:32			0	34987	0	0	0	26350	25040	149795	27393	1023226	42793	109760	0	0	8111	676043	0	0
2024-06-23 09:47:32			0	34997	0	0	0	26350	25030	149703	27334	1023280	42803	109760	0	0	8111	675632	0	0
2024-06-23 09:48:32			0	35001	0	0	0	26376	25030	149835	27324	1023280	42815	109770	0	0	8111	675453	0	0
2024-06-23 09:49:32			0	35011	0	0	0	26405	25040	149775	27627	1023386	42827	109781	0	0	8111	674965	0	0
2024-06-23 09:50:32			0	35039	0	0	0	26449	25040	149867	27493	1023493	42816	109798	0	0	8112	673710	0	0
2024-06-23 09:51:32			0	35037	0	0	0	26446	25050	149759	27613	1023368	42817	109797	0	0	8112	673762	0	0
2024-06-23 09:52:32			0	35015	0	0	0	26392	25040	149743	27549	1023279	42804	109776	0	0	8112	674786	0	0
2024-06-23 09:53:32			0	35033	0	0	0	26420	25060	149639	27466	1023359	42817	109787	0	0	8112	673903	0	0
2024-06-23 09:54:32			0	35049	0	0	0	26415	25030	149615	27334	1023307	42792	109785	0	0	8113	673301	0	0
2024-06-23 09:55:32			0	35061	0	0	0	26384	25030	149683	27649	1023200	42782	109773	0	0	8114	672764	0	0
2024-06-23 09:56:32			0	35062	0	0	0	26376	25010	149575	27708	1023147	42790	109770	0	0	8114	672795	0	0
2024-06-23 09:57:32			0	35057	0	0	0	26368	25010	149515	27388	1023093	42790	109767	0	0	8114	673019	0	0
2024-06-23 09:58:32			0	35084	0	0	0	26340	25000	149567	27357	1023049	42779	109756	0	0	8116	671849	0	0
2024-06-23 09:59:32			0	35073	0	0	0	26322	24990	149495	27403	1022970	42799	109749	0	0	8116	672379	0	0
2024-06-23 10:00:32			0	35084	0	0	0	26311	24980	149475	27031	1022926	42798	109745	0	0	8116	671926	0	0
2024-06-23 10:01:32			0	35097	0	0	0	26309	24980	149443	27286	1022872	42787	109744	0	0	8117	671344	0	0
2024-06-23 10:02:32			0	35105	0	0	0	26316	24960	149451	27338	1022873	42797	109747	0	0	8117	671063	0	0
2024-06-23 10:03:32			0	35114	0	0	0	26303	24960	149408	27140	1022864	42796	109742	0	0	8118	670661	0	0
2024-06-23 10:04:32			0	35109	0	0	0	26311	24950	149412	27461	1022856	42795	109745	0	0	8118	670923	0	0
2024-06-23 10:05:32			0	35105	0	0	0	26301	24950	149455	27467	1022874	42805	109741	0	0	8118	671101	0	0
2024-06-23 10:06:32			0	35115	0	0	0	26311	24950	149403	27403	1022874	42794	109745	0	0	8118	670655	0	0
2024-06-23 10:07:32			0	35125	0	0	0	26311	24940	149388	27199	1022776	42794	109745	0	0	8118	670246	0	0
2024-06-23 10:08:32			0	35132	0	0	0	26319	24950	149340	27209	1022802	42806	109748	0	0	8119	669896	0	0
2024-06-23 10:09:32			0	35131	0	0	0	26316	24940	149356	27583	1022749	42794	109747	0	0	8119	669978	0	0
2024-06-23 10:10:32			0	35146	0	0	0	26316	24930	149272	27469	1022794	42804	109747	0	0	8119	669347	0	0
2024-06-23 10:11:32			0	35158	0	0	0	26303	24940	149240	27395	1022803	42794	109742	0	0	8120	668775	0	0
2024-06-23 10:12:32			0	35137	0	0	0	26288	24930	149336	27677	1022759	42792	109736	0	0	8119	669749	0	0
2024-06-23 10:13:32			0	35157	0	0	0	26264	24930	149192	27211	1022732	42782	109727	0	0	8121	668857	0	0
2024-06-23 10:14:32			0	35177	0	0	0	26257	24920	149160	27488	1022723	42792	109724	0	0	8122	668004	0	0
2024-06-23 10:15:32			0	35182	0	0	0	26225	24900	149128	27343	1022608	42791	109712	0	0	8123	667857	0	0
2024-06-23 10:16:32			0	35188	0	0	0	26202	24900	149104	27272	1022528	42780	109703	0	0	8124	667590	0	0
2024-06-23 10:17:32			0	35202	0	0	0	26181	24890	149052	27124	1022431	42779	109695	0	0	8125	667005	0	0
2024-06-23 10:18:32			0	35233	0	0	0	26176	24870	148988	27176	1022378	42789	109693	0	0	8126	665703	0	0
2024-06-23 10:19:32			0	35227	0	0	0	26137	24860	148948	27152	1022298	42775	109678	0	0	8127	666007	0	0
2024-06-23 10:20:32			0	35252	0	0	0	26101	24840	148900	27486	1022219	42741	109664	0	0	8128	664973	0	0
2024-06-23 10:21:32			0	35290	0	0	0	26090	24830	148752	27343	1022059	42785	109660	0	0	8131	663326	0	0
2024-06-23 10:22:32			0	35300	0	0	0	26083	24820	148712	27575	1022042	42750	109657	0	0	8131	662921	0	0
2024-06-23 10:23:32			0	35315	0	0	0	26111	24810	148560	27417	1022060	42783	109668	0	0	8131	662294	0	0
2024-06-23 10:24:32			0	35335	0	0	0	26119	24800	148548	27386	1022096	42771	109671	0	0	8132	661447	0	0
2024-06-23 10:25:32			0	35347	0	0	0	26116	24790	148544	27483	1022025	42780	109670	0	0	8133	660954	0	0
2024-06-23 10:26:32			0	35358	0	0	0	26101	24800	148456	27580	1021981	42781	109664	0	0	8134	660431	0	0
2024-06-23 10:27:32			0	35366	0	0	0	26098	24780	148496	27357	1022008	42780	109663	0	0	8134	660153	0	0
2024-06-23 10:28:32			0	35401	0	0	0	26124	24780	148388	27256	1022080	42757	109673	0	0	8136	658609	0	0
2024-06-23 10:29:32			0	35392	0	0	0	26135	24780	148396	27343	1022088	42780	109677	0	0	8135	659006	0	0
2024-06-23 10:30:32			0	35413	0	0	0	26132	24790	148288	27222	1022070	42769	109676	0	0	8136	658043	0	0
2024-06-23 10:31:32			0	35433	0	0	0	26124	24770	148296	27512	1022098	42790	109673	0	0	8137	657238	0	0
2024-06-23 10:32:32			0	35440	0	0	0	26127	24780	148228	27639	1022062	42780	109674	0	0	8138	656892	0	0
2024-06-23 10:33:32			0	35452	0	0	0	26129	24770	148148	27142	1022044	42778	109675	0	0	8138	656402	0	0
2024-06-23 10:34:32			0	35442	0	0	0	26140	24780	148124	27137	1022088	42780	109679	0	0	8138	656804	0	0
2024-06-23 10:35:32			0	35486	0	0	0	26132	24770	148048	27381	1021982	42767	109676	0	0	8140	654909	0	0
2024-06-23 10:36:32			0	35481	0	0	0	26111	24770	148032	27185	1021937	42778	109668	0	0	8140	655128	0	0
2024-06-23 10:37:32			0	35512	0	0	0	26124	24760	148012	27124	1021912	42789	109673	0	0	8142	653805	0	0
2024-06-23 10:38:32			0	35501	0	0	0	26140	24770	147888	27322	1022036	42778	109679	0	0	8141	654251	0	0
2024-06-23 10:39:32			0	35525	0	0	0	26137	24770	147824	27189	1021929	42778	109678	0	0	8142	653199	0	0
2024-06-23 10:40:32			0	35519	0	0	0	26109	24760	147904	27460	1021885	42766	109667	0	0	8142	653499	0	0
2024-06-23 10:41:32			0	35544	0	0	0	26072	24740	147880	27355	1021779	42776	109653	0	0	8144	652478	0	0
2024-06-23 10:42:32			0	35550	0	0	0	26041	24730	147808	27367	1021699	42752	109641	0	0	8145	652252	0	0
2024-06-23 10:43:32			0	35546	0	0	0	26028	24720	147848	27542	1021628	42762	109636	0	0	8145	652464	0	0
2024-06-23 10:44:32			0	35564	0	0	0	26025	24710	147772	27419	1021558	42761	109635	0	0	8146	651714	0	0
2024-06-23 10:45:32			0	35575	0	0	0	26018	24700	147676	27156	1021549	42739	109632	0	0	8147	651270	0	0
2024-06-23 10:46:32			0	35569	0	0	0	25971	24690	147624	27126	1021470	42759	109614	0	0	8147	651569	0	0
2024-06-23 10:47:32			0	35591	0	0	0	25953	24670	147576	27067	1021390	42747	109607	0	0	8148	650681	0	0
2024-06-23 10:48:32			0	35610	0	0	0	25927	24660	147512	27467	1021373	42735	109597	0	0	8150	649888	0	0
2024-06-23 10:49:32			0	35640	0	0	0	25893	24640	147512	27358	1021285	42745	109584	0	0	8152	648653	0	0
2024-06-23 10:50:32			0	35660	0	0	0	25854	24640	147404	27384	1021142	42732	109569	0	0	8154	647782	0	0
2024-06-23 10:51:32			0	35685	0	0	0	25818	24620	147300	27305	1021090	42743	109555	0	0	8155	646767	0	0
2024-06-23 10:52:32			0	35694	0	0	0	25789	24600	147056	27372	1021010	42741	109544	0	0	8156	646449	0	0
2024-06-23 10:53:32			0	35751	0	0	0	25748	24580	146992	27331	1020967	42716	109528	0	0	8160	644047	0	0
2024-06-23 10:54:32			0	35764	0	0	0	25792	24570	146836	27381	1020870	42726	109545	0	0	8160	643519	0	0
2024-06-23 10:55:32			0	35790	0	0	0	25742	24560	146772	27251	1020888	42714	109526	0	0	8162	642429	0	0
2024-06-23 10:56:32			0	35803	0	0	0	25735	24560	146808	27519	1020853	42725	109523	0	0	8163	641867	0	0
2024-06-23 10:57:32			0	35803	0	0	0	25703	24550	146756	27564	1020817	42748	109511	0	0	8163	641903	0	0
2024-06-23 10:58:32			0	35794	0	0	0	25748	24540	146800	27282	1020773	42746	109528	0	0	8162	642329	0	0
2024-06-23 10:59:32			0	35786	0	0	0	25828	24540	146804	27559	1020871	42746	109559	0	0	8160	642675	0	0
2024-06-23 11:00:32			0	35756	0	0	0	25898	24530	147000	27102	1020916	42756	109586	0	0	8157	644012	0	0
2024-06-23 11:01:32			0	35744	0	0	0	25929	24550	147052	27261	1020969	42757	109598	0	0	8156	644459	0	0
2024-06-23 11:02:32			0	35739	0	0	0	25958	24540	147072	27431	1021094	42756	109609	0	0	8156	644713	0	0
2024-06-23 11:03:32			0	35735	0	0	0	25973	24540	147148	27282	1021121	42756	109615	0	0	8155	644887	0	0
2024-06-23 11:04:32			0	35706	0	0	0	26033	24570	147264	27272	1021333	42760	109638	0	0	8153	646037	0	0
2024-06-23 11:05:32			0	35689	0	0	0	26075	24590	147256	27540	1021475	42773	109654	0	0	8151	646703	0	0
2024-06-23 11:06:32			0	35698	0	0	0	26101	24620	147368	27374	1021643	42786	109664	0	0	8151	646202	0	0
2024-06-23 11:07:32			0	35670	0	0	0	26142	24630	147436	27202	1021696	42787	109680	0	0	8149	647383	0	0
2024-06-23 11:08:32			0	35675	0	0	0	26140	24660	147436	27294	1021747	42757	109679	0	0	8150	647056	0	0
2024-06-23 11:09:32			0	35646	0	0	0	26098	24670	147420	27656	1021711	42769	109663	0	0	8149	648281	0	0
2024-06-23 11:10:32			0	35648	0	0	0	26062	24660	147452	27265	1021551	42746	109649	0	0	8150	648231	0	0
2024-06-23 11:11:32			0	35629	0	0	0	26049	24660	147436	27620	1021605	42767	109644	0	0	8149	649059	0	0
2024-06-23 11:12:32			0	35630	0	0	0	26031	24650	147460	27052	1021596	42746	109637	0	0	8149	649052	0	0
2024-06-23 11:13:32			0	35648	0	0	0	26025	24650	147444	27182	1021543	42756	109635	0	0	8150	648268	0	0
2024-06-23 11:14:32			0	35631	0	0	0	26044	24660	147492	27367	1021525	42767	109642	0	0	8149	648972	0	0
2024-06-23 11:15:32			0	35632	0	0	0	26070	24670	147504	27377	1021649	42768	109652	0	0	8149	648892	0	0
2024-06-23 11:16:32			0	35627	0	0	0	26075	24670	147436	27265	1021595	42768	109654	0	0	8148	649110	0	0
2024-06-23 11:17:32			0	35625	0	0	0	26062	24660	147464	27177	1021560	42757	109649	0	0	8148	649234	0	0
2024-06-23 11:18:32			0	35631	0	0	0	26059	24670	147440	27145	1021595	42757	109648	0	0	8149	648935	0	0
2024-06-23 11:19:32			0	35624	0	0	0	26070	24670	147440	27246	1021569	42768	109652	0	0	8148	649240	0	0
2024-06-23 11:20:32			0	35629	0	0	0	26067	24660	147448	27438	1021614	42768	109651	0	0	8148	649059	0	0
2024-06-23 11:21:32			0	35647	0	0	0	26064	24660	147436	27182	1021587	42735	109650	0	0	8149	648275	0	0
2024-06-23 11:22:32			0	35645	0	0	0	26059	24670	147392	27265	1021542	42780	109648	0	0	8149	648325	0	0
2024-06-23 11:23:32			0	35670	0	0	0	26064	24680	147352	27071	1021613	42769	109650	0	0	8151	647200	0	0
2024-06-23 11:24:32			0	35664	0	0	0	26046	24670	147396	26902	1021577	42758	109643	0	0	8151	647498	0	0
2024-06-23 11:25:32			0	35654	0	0	0	26036	24660	147320	27187	1021533	42768	109639	0	0	8150	647970	0	0
2024-06-23 11:26:32			0	35669	0	0	0	26015	24660	147172	27286	1021426	42757	109631	0	0	8151	647317	0	0
2024-06-23 11:27:32			0	35684	0	0	0	25979	24640	147176	27001	1021392	42733	109617	0	0	8153	646737	0	0
2024-06-23 11:28:32			0	35699	0	0	0	25963	24640	147196	27092	1021365	42755	109611	0	0	8154	646085	0	0
2024-06-23 11:29:32			0	35708	0	0	0	25932	24630	147128	27438	1021214	42731	109599	0	0	8155	645731	0	0
2024-06-23 11:30:32			0	35716	0	0	0	25877	24610	146988	27057	1021126	42730	109578	0	0	8156	645456	0	0
2024-06-23 11:31:32			0	35771	0	0	0	25859	24590	146872	27523	1021020	42729	109571	0	0	8159	643143	0	0
2024-06-23 11:32:32			0	35805	0	0	0	25844	24560	146688	27351	1020888	42725	109565	0	0	8161	641780	0	0
2024-06-23 11:33:32			0	35868	0	0	0	25799	24570	146453	27322	1020789	42715	109548	0	0	8165	639023	0	0
2024-06-23 11:34:32			0	35906	0	0	0	25802	24540	146213	27287	1020826	42746	109549	0	0	8167	637494	0	0
2024-06-23 11:35:32			0	35965	0	0	0	25872	24540	146065	27232	1020960	42746	109576	0	0	8169	634957	0	0
2024-06-23 11:36:32			0	36000	0	0	0	25973	24550	146077	27274	1021084	42758	109615	0	0	8169	633420	0	0
2024-06-23 11:37:32			0	36013	0	0	0	25994	24560	145997	27176	1021155	42748	109623	0	0	8170	632827	0	0
2024-06-23 11:38:32			0	36023	0	0	0	26012	24570	145957	27369	1021244	42770	109630	0	0	8170	632364	0	0
2024-06-23 11:39:32			0	36031	0	0	0	26038	24590	145945	27142	1021359	42772	109640	0	0	8170	631950	0	0
2024-06-23 11:40:32			0	36022	0	0	0	26088	24600	145941	27339	1021545	42774	109659	0	0	8169	632299	0	0
2024-06-23 11:41:32			0	36014	0	0	0	26098	24630	145945	27235	1021526	42776	109663	0	0	8168	632534	0	0
2024-06-23 11:42:32			0	36004	0	0	0	26137	24650	145997	27390	1021614	42766	109678	0	0	8167	632891	0	0
2024-06-23 11:43:32			0	35983	0	0	0	26054	24640	146077	27639	1021472	42755	109646	0	0	8167	633826	0	0
2024-06-23 11:44:32			0	35969	0	0	0	25997	24630	146065	27281	1021428	42743	109624	0	0	8168	634463	0	0
2024-06-23 11:45:32			0	35933	0	0	0	26012	24630	146289	27324	1021375	42765	109630	0	0	8165	636008	0	0
2024-06-23 11:46:32			0	35906	0	0	0	26010	24630	146273	27358	1021375	42753	109629	0	0	8164	637170	0	0
2024-06-23 11:47:32			0	35877	0	0	0	26012	24630	146457	27156	1021348	42753	109630	0	0	8162	638418	0	0
2024-06-23 11:48:32			0	35855	0	0	0	26012	24630	146456	27488	1021401	42753	109630	0	0	8161	639367	0	0
2024-06-23 11:49:32			0	35854	0	0	0	26012	24620	146604	27722	1021331	42753	109630	0	0	8161	639446	0	0
2024-06-23 11:50:32			0	35846	0	0	0	26023	24640	146508	27545	1021463	42777	109634	0	0	8161	639719	0	0
2024-06-23 11:51:32			0	35832	0	0	0	26015	24630	146672	27644	1021339	42753	109631	0	0	8160	640359	0	0
2024-06-23 11:52:32			0	35829	0	0	0	25935	24610	146552	27414	1021153	42741	109600	0	0	8161	640562	0	0
2024-06-23 11:53:32			0	35839	0	0	0	25888	24590	146504	27467	1021047	42729	109582	0	0	8162	640202	0	0
2024-06-23 11:54:32			0	35856	0	0	0	25896	24590	146496	27498	1021011	42728	109585	0	0	8163	639468	0	0
2024-06-23 11:55:32			0	35853	0	0	0	25849	24570	146452	27431	1020870	42737	109567	0	0	8164	639670	0	0
2024-06-23 11:56:32			0	35873	0	0	0	25784	24550	146357	27481	1020656	42725	109542	0	0	8166	638880	0	0
2024-06-23 11:57:32			0	35883	0	0	0	25672	24510	146269	27575	1020347	42709	109499	0	0	8168	638593	0	0
2024-06-23 11:58:32			0	35903	0	0	0	25657	24490	146261	27490	1020285	42697	109493	0	0	8169	637803	0	0
2024-06-23 11:59:32			0	35941	0	0	0	25644	24450	146181	27376	1020217	42704	109488	0	0	8171	636312	0	0
2024-06-23 12:00:32			0	35954	0	0	0	25615	24450	146165	27230	1020154	42715	109477	0	0	8172	635753	0	0
2024-06-23 12:01:32			0	35990	0	0	0	25579	24420	146053	27239	1020049	42711	109463	0	0	8175	634315	0	0
2024-06-23 12:02:32			0	35997	0	0	0	25605	24400	145869	27443	1020050	42710	109473	0	0	8175	634086	0	0
2024-06-23 12:03:32			0	36015	0	0	0	25659	24390	146009	27367	1020077	42708	109494	0	0	8175	633350	0	0
2024-06-23 12:04:32			0	36011	0	0	0	25657	24380	146001	27649	1020033	42730	109493	0	0	8174	633557	0	0
2024-06-23 12:05:32			0	36033	0	0	0	25649	24370	146013	27384	1020078	42729	109490	0	0	8176	632650	0	0
2024-06-23 12:06:32			0	36013	0	0	0	25662	24380	145929	27604	1020176	42708	109495	0	0	8174	633472	0	0
2024-06-23 12:07:32			0	36011	0	0	0	25693	24370	145937	27457	1020078	42740	109507	0	0	8174	633593	0	0
2024-06-23 12:08:32			0	35997	0	0	0	25690	24390	146013	27528	1020158	42742	109506	0	0	8173	634122	0	0
2024-06-23 12:09:32			0	35992	0	0	0	25677	24370	146085	27562	1020150	42750	109501	0	0	8173	634408	0	0
2024-06-23 12:10:32			0	35962	0	0	0	25698	24380	146149	27350	1020221	42719	109509	0	0	8171	635661	0	0
2024-06-23 12:11:32			0	35943	0	0	0	25732	24390	146221	27358	1020300	42742	109522	0	0	8170	636442	0	0
2024-06-23 12:12:32			0	35913	0	0	0	25732	24400	146441	27317	1020317	42733	109522	0	0	8168	637697	0	0
2024-06-23 12:13:32			0	35877	0	0	0	25729	24400	146529	27538	1020344	42733	109521	0	0	8166	639249	0	0
2024-06-23 12:14:32			0	35874	0	0	0	25753	24410	146565	27343	1020406	42733	109530	0	0	8166	639342	0	0
2024-06-23 12:15:32			0	35822	0	0	0	25758	24410	146600	27308	1020335	42733	109532	0	0	8163	641589	0	0
2024-06-23 12:16:32			0	35809	0	0	0	25693	24420	146876	27441	1020209	42711	109507	0	0	8163	642115	0	0
2024-06-23 12:17:32			0	35805	0	0	0	25651	24380	146800	27232	1020069	42698	109491	0	0	8164	642434	0	0
2024-06-23 12:18:32			0	35764	0	0	0	25688	24390	146956	27303	1020211	42720	109505	0	0	8161	644175	0	0
2024-06-23 12:19:32			0	35738	0	0	0	25724	24380	147116	27540	1020203	42742	109519	0	0	8159	645340	0	0
2024-06-23 12:20:32			0	35718	0	0	0	25688	24390	147144	27331	1020051	42698	109505	0	0	8158	646173	0	0
2024-06-23 12:21:32			0	35720	0	0	0	25597	24360	147156	27505	1019847	42684	109470	0	0	8160	646195	0	0
2024-06-23 12:22:32			0	35688	0	0	0	25540	24330	147216	27286	1019635	42681	109448	0	0	8159	647697	0	0
2024-06-23 12:23:32			0	35695	0	0	0	25493	24300	147244	27395	1019396	42666	109430	0	0	8160	647502	0	0
2024-06-23 12:24:32			0	35725	0	0	0	25446	24270	147180	27447	1019317	42676	109412	0	0	8162	646306	0	0
2024-06-23 12:25:32			0	35734	0	0	0	25389	24240	147196	27514	1019159	42662	109390	0	0	8164	646024	0	0
2024-06-23 12:26:32			0	35742	0	0	0	25355	24200	147024	27685	1019045	42669	109377	0	0	8164	645822	0	0
2024-06-23 12:27:32			0	35796	0	0	0	25353	24180	146948	27287	1018983	42667	109376	0	0	8167	643550	0	0
2024-06-23 12:28:32			0	35812	0	0	0	25345	24160	146864	27209	1018860	42676	109373	0	0	8168	642929	0	0
2024-06-23 12:29:32			0	35847	0	0	0	25345	24140	146824	27395	1018808	42664	109373	0	0	8170	641485	0	0
2024-06-23 12:30:32			0	35860	0	0	0	25329	24110	146857	27533	1018676	42671	109367	0	0	8171	641032	0	0
2024-06-23 12:31:32			0	35868	0	0	0	25296	24100	146693	27421	1018650	42669	109354	0	0	8172	640722	0	0
2024-06-23 12:32:32			0	35883	0	0	0	25293	24090	146617	27426	1018579	42658	109353	0	0	8173	640110	0	0
2024-06-23 12:33:32			0	35868	0	0	0	25285	24080	146736	27757	1018589	42667	109350	0	0	8172	640794	0	0
2024-06-23 12:34:32			0	35870	0	0	0	25283	24050	146757	27319	1018465	42654	109349	0	0	8172	640816	0	0
2024-06-23 12:35:32			0	35849	0	0	0	25296	24030	146892	27293	1018377	42664	109354	0	0	8170	641797	0	0
2024-06-23 12:36:32			0	35859	0	0	0	25296	24030	146945	27332	1018458	42653	109354	0	0	8171	641364	0	0
2024-06-23 12:37:32			0	35830	0	0	0	25290	24010	146968	27590	1018325	42663	109352	0	0	8169	642693	0	0
2024-06-23 12:38:32			0	35821	0	0	0	25293	24000	146952	27424	1018299	42650	109353	0	0	8169	643119	0	0
2024-06-23 12:39:32			0	35814	0	0	0	25296	24000	147060	27260	1018326	42661	109354	0	0	8168	643423	0	0
2024-06-23 12:40:32			0	35802	0	0	0	25303	23980	147212	27370	1018300	42659	109357	0	0	8168	644016	0	0
2024-06-23 12:41:32			0	35789	0	0	0	25296	23980	147276	27441	1018265	42659	109354	0	0	8167	644580	0	0
2024-06-23 12:42:32			0	35763	0	0	0	25298	23970	147256	27308	1018167	42680	109355	0	0	8165	645747	0	0
2024-06-23 12:43:32			0	35749	0	0	0	25309	23970	147292	27303	1018274	42669	109359	0	0	8165	646356	0	0
2024-06-23 12:44:32			0	35724	0	0	0	25280	23960	147460	27445	1018177	42657	109348	0	0	8164	647481	0	0
2024-06-23 12:45:32			0	35738	0	0	0	25277	23950	147472	27386	1018088	42668	109347	0	0	8164	646908	0	0
2024-06-23 12:46:32			0	35704	0	0	0	25277	23940	147560	27332	1018124	42666	109347	0	0	8163	648426	0	0
2024-06-23 12:47:32			0	35699	0	0	0	25288	23940	147624	27466	1018089	42677	109351	0	0	8162	648644	0	0
2024-06-23 12:48:32			0	35676	0	0	0	25296	23930	147604	27088	1018107	42655	109354	0	0	8161	649685	0	0
2024-06-23 12:49:32			0	35674	0	0	0	25309	23940	147680	27300	1018089	42656	109359	0	0	8160	649736	0	0
2024-06-23 12:50:32			0	35651	0	0	0	25301	23940	147728	27208	1018178	42677	109356	0	0	8159	650741	0	0
2024-06-23 12:51:32			0	35652	0	0	0	25314	23930	147716	26915	1018107	42676	109361	0	0	8159	650734	0	0
2024-06-23 12:52:32			0	35640	0	0	0	25329	23930	147828	27426	1018214	42688	109367	0	0	8158	651259	0	0
2024-06-23 12:53:32			0	35643	0	0	0	25337	23940	147740	27459	1018196	42666	109370	0	0	8158	651091	0	0
2024-06-23 12:54:32			0	35634	0	0	0	25342	23940	147780	27189	1018258	42688	109372	0	0	8158	651485	0	0
2024-06-23 12:55:32			0	35656	0	0	0	25335	23960	147896	27403	1018284	42690	109369	0	0	8159	650449	0	0
2024-06-23 12:56:32			0	35654	0	0	0	25345	23940	147880	27248	1018231	42666	109373	0	0	8159	650610	0	0
2024-06-23 12:57:32			0	35650	0	0	0	25342	23950	147816	27416	1018240	42689	109372	0	0	8159	650748	0	0
2024-06-23 12:58:32			0	35649	0	0	0	25329	23940	147808	27242	1018338	42666	109367	0	0	8159	650829	0	0
2024-06-23 12:59:32			0	35675	0	0	0	25314	23940	147756	27265	1018205	42688	109361	0	0	8160	649692	0	0
2024-06-23 13:00:32			0	35701	0	0	0	25280	23940	147780	27275	1018062	42644	109348	0	0	8162	648557	0	0
2024-06-23 13:01:32			0	35707	0	0	0	25244	23930	147508	27384	1017991	42666	109334	0	0	8163	648332	0	0
2024-06-23 13:02:32			0	35749	0	0	0	25215	23910	147468	27377	1017885	42664	109323	0	0	8166	646574	0	0
2024-06-23 13:03:32			0	35763	0	0	0	25186	23900	147300	27462	1017788	42652	109312	0	0	8167	646001	0	0
2024-06-23 13:04:32			0	35802	0	0	0	25186	23880	147176	27550	1017834	42639	109312	0	0	8169	644379	0	0
2024-06-23 13:05:32			0	35835	0	0	0	25168	23880	147084	27280	1017718	42649	109305	0	0	8171	642947	0	0
2024-06-23 13:06:32			0	35886	0	0	0	25158	23870	146949	27324	1017648	42660	109301	0	0	8174	640774	0	0
2024-06-23 13:07:32			0	35911	0	0	0	25137	23850	146841	27223	1017533	42646	109293	0	0	8176	639765	0	0
2024-06-23 13:08:32			0	35947	0	0	0	25142	23840	146797	27244	1017578	42635	109295	0	0	8177	638247	0	0
2024-06-23 13:09:32			0	35975	0	0	0	25140	23830	146585	27488	1017507	42644	109294	0	0	8179	637076	0	0
2024-06-23 13:10:32			0	35994	0	0	0	25142	23830	146489	27173	1017579	42656	109295	0	0	8180	636258	0	0
2024-06-23 13:11:32			0	36042	0	0	0	25155	23810	146261	27379	1017499	42654	109300	0	0	8182	634266	0	0
2024-06-23 13:12:32			0	36070	0	0	0	25171	23820	146209	27114	1017508	42688	109306	0	0	8183	633028	0	0
2024-06-23 13:13:32			0	36076	0	0	0	25186	23820	146177	27379	1017624	42666	109312	0	0	8183	632771	0	0
2024-06-23 13:14:32			0	36098	0	0	0	25220	23820	146113	27604	1017650	42666	109325	0	0	8184	631828	0	0
2024-06-23 13:15:32			0	36089	0	0	0	25220	23830	145997	27447	1017641	42677	109325	0	0	8184	632178	0	0
2024-06-23 13:16:32			0	36130	0	0	0	25238	23840	145981	27294	1017676	42634	109332	0	0	8185	630387	0	0
2024-06-23 13:17:32			0	36146	0	0	0	25244	23830	145929	27497	1017668	42677	109334	0	0	8186	629739	0	0
2024-06-23 13:18:32			0	36160	0	0	0	25259	23830	145877	27345	1017686	42656	109340	0	0	8187	629141	0	0
2024-06-23 13:19:32			0	36169	0	0	0	25246	23830	145793	27320	1017694	42656	109335	0	0	8187	628757	0	0
2024-06-23 13:20:32			0	36174	0	0	0	25249	23840	145741	27414	1017676	42657	109336	0	0	8188	628508	0	0
2024-06-23 13:21:32			0	36189	0	0	0	25257	23840	145661	27322	1017730	42667	109339	0	0	8188	627868	0	0
2024-06-23 13:22:32			0	36199	0	0	0	25254	23840	145705	27585	1017792	42658	109338	0	0	8189	627442	0	0
2024-06-23 13:23:32			0	36211	0	0	0	25264	23850	145633	27256	1017782	42658	109342	0	0	8189	626895	0	0
2024-06-23 13:24:32			0	36213	0	0	0	25293	23860	145553	27225	1017871	42680	109353	0	0	8189	626775	0	0
2024-06-23 13:25:32			0	36206	0	0	0	25296	23860	145577	27376	1017880	42681	109354	0	0	8189	627073	0	0
2024-06-23 13:26:32			0	36211	0	0	0	25290	23870	145525	27367	1017915	42660	109352	0	0	8189	626825	0	0
2024-06-23 13:27:32			0	36214	0	0	0	25306	23880	145529	27495	1017932	42682	109358	0	0	8189	626661	0	0
2024-06-23 13:28:32			0	36222	0	0	0	25303	23880	145517	27312	1017879	42671	109357	0	0	8189	626321	0	0
2024-06-23 13:29:32			0	36212	0	0	0	25337	23880	145609	27500	1018048	42694	109370	0	0	8188	626747	0	0
2024-06-23 13:30:32			0	36183	0	0	0	25355	23900	145713	27424	1018127	42684	109377	0	0	8187	627912	0	0
2024-06-23 13:31:32			0	36170	0	0	0	25337	23900	145697	27447	1018082	42685	109370	0	0	8186	628466	0	0
2024-06-23 13:32:32			0	36144	0	0	0	25298	23910	145705	27447	1018064	42697	109355	0	0	8185	629541	0	0
2024-06-23 13:33:32			0	36131	0	0	0	25285	23900	145897	27533	1017993	42662	109350	0	0	8185	630132	0	0
2024-06-23 13:34:32			0	36111	0	0	0	25285	23890	145945	27377	1017958	42662	109350	0	0	8184	631023	0	0
2024-06-23 13:35:32			0	36084	0	0	0	25301	23890	146033	27325	1018038	42662	109356	0	0	8182	632179	0	0
2024-06-23 13:36:32			0	36071	0	0	0	25332	23900	146117	27300	1018073	42695	109368	0	0	8181	632700	0	0
2024-06-23 13:37:32			0	36069	0	0	0	25340	23910	146149	27057	1018144	42686	109371	0	0	8181	632750	0	0
2024-06-23 13:38:32			0	36062	0	0	0	25345	23920	146181	27019	1018081	42674	109373	0	0	8180	633014	0	0
2024-06-23 13:39:32			0	36040	0	0	0	25332	23910	146209	27384	1018233	42674	109368	0	0	8179	633994	0	0
2024-06-23 13:40:32			0	36039	0	0	0	25348	23930	146249	27519	1018205	42699	109374	0	0	8179	633966	0	0
2024-06-23 13:41:32			0	36027	0	0	0	25361	23930	146277	27154	1018240	42676	109379	0	0	8178	634481	0	0
2024-06-23 13:42:32			0	36024	0	0	0	25355	23940	146273	27097	1018231	42688	109377	0	0	8178	634574	0	0
2024-06-23 13:43:32			0	36038	0	0	0	25345	23940	146245	27523	1018276	42688	109373	0	0	8179	633973	0	0
2024-06-23 13:44:32			0	36030	0	0	0	25337	23930	146317	27306	1018187	42688	109370	0	0	8179	634352	0	0
2024-06-23 13:45:32			0	36030	0	0	0	25322	23940	146341	27213	1018196	42688	109364	0	0	8179	634316	0	0
2024-06-23 13:46:32			0	36021	0	0	0	25342	23940	146249	27422	1018205	42688	109372	0	0	8178	634703	0	0
2024-06-23 13:47:32			0	36020	0	0	0	25379	23940	146197	27138	1018330	42677	109386	0	0	8178	634746	0	0
2024-06-23 13:48:32			0	36026	0	0	0	25402	23960	146241	27447	1018364	42690	109395	0	0	8178	634416	0	0
2024-06-23 13:49:32			0	36036	0	0	0	25407	23950	146197	27097	1018382	42712	109397	0	0	8178	634023	0	0
2024-06-23 13:50:32			0	36026	0	0	0	25425	23950	146049	27194	1018436	42690	109404	0	0	8177	634452	0	0
2024-06-23 13:51:32			0	36031	0	0	0	25436	23970	146169	27118	1018390	42681	109408	0	0	8177	634166	0	0
2024-06-23 13:52:32			0	36032	0	0	0	25402	23980	146137	27258	1018479	42692	109395	0	0	8178	634087	0	0
2024-06-23 13:53:32			0	36050	0	0	0	25376	23970	146137	27300	1018381	42703	109385	0	0	8179	633351	0	0
2024-06-23 13:54:32			0	36071	0	0	0	25368	23970	146065	27358	1018390	42670	109382	0	0	8181	632450	0	0
2024-06-23 13:55:32			0	36050	0	0	0	25386	23970	145981	27440	1018416	42681	109389	0	0	8179	633351	0	0
2024-06-23 13:56:32			0	36063	0	0	0	25381	23970	146053	27222	1018390	42681	109387	0	0	8180	632793	0	0
2024-06-23 13:57:32			0	36079	0	0	0	25381	23970	146017	27255	1018363	42692	109387	0	0	8181	632108	0	0
2024-06-23 13:58:32			0	36092	0	0	0	25335	23970	145949	27445	1018363	42670	109369	0	0	8182	631551	0	0
2024-06-23 13:59:32			0	36086	0	0	0	25309	23960	145821	27414	1018266	42668	109359	0	0	8182	631844	0	0
2024-06-23 14:00:32			0	36122	0	0	0	25290	23950	145805	27462	1018222	42690	109352	0	0	8185	630339	0	0
2024-06-23 14:01:32			0	36118	0	0	0	25290	23950	145785	27253	1018186	42667	109352	0	0	8184	630510	0	0
2024-06-23 14:02:32			0	36115	0	0	0	25296	23940	145765	27353	1018124	42688	109354	0	0	8184	630674	0	0
2024-06-23 14:03:32			0	36146	0	0	0	25306	23940	145701	27471	1018151	42700	109358	0	0	8186	629349	0	0
2024-06-23 14:04:32			0	36163	0	0	0	25306	23940	145745	27498	1018116	42688	109358	0	0	8186	628623	0	0
2024-06-23 14:05:32			0	36124	0	0	0	25303	23940	145689	27512	1018196	42677	109357	0	0	8184	630289	0	0
2024-06-23 14:06:32			0	36118	0	0	0	25301	23940	145889	27467	1018178	42688	109356	0	0	8184	630545	0	0
2024-06-23 14:07:32			0	36102	0	0	0	25298	23940	145941	27343	1018178	42677	109355	0	0	8183	631230	0	0
2024-06-23 14:08:32			0	36044	0	0	0	25303	23940	146149	26998	1018231	42688	109357	0	0	8180	633715	0	0
2024-06-23 14:09:32			0	36000	0	0	0	25322	23930	146253	27442	1018187	42676	109364	0	0	8178	635641	0	0
2024-06-23 14:10:32			0	35981	0	0	0	25309	23940	146357	27395	1018205	42688	109359	0	0	8177	636423	0	0
2024-06-23 14:11:32			0	35957	0	0	0	25262	23940	146637	27509	1018062	42688	109341	0	0	8176	637457	0	0
2024-06-23 14:12:32			0	35912	0	0	0	25163	23920	146709	27438	1017822	42654	109303	0	0	8175	639470	0	0
2024-06-23 14:13:32			0	35818	0	0	0	25062	23890	146912	27485	1017584	42618	109264	0	0	8172	643648	0	0
2024-06-23 14:14:32			0	35785	0	0	0	25070	23860	147188	27218	1017532	42637	109267	0	0	8170	645190	0	0
2024-06-23 14:15:32			0	35775	0	0	0	25179	23840	147304	27386	1017551	42646	109309	0	0	8168	645698	0	0
2024-06-23 14:16:32			0	35742	0	0	0	25186	23840	147384	27531	1017685	42668	109312	0	0	8166	647134	0	0
2024-06-23 14:17:32			0	35730	0	0	0	25176	23840	147420	27670	1017605	42668	109308	0	0	8165	647657	0	0
2024-06-23 14:18:32			0	35712	0	0	0	25176	23840	147500	27625	1017658	42690	109308	0	0	8164	648442	0	0
2024-06-23 14:19:32			0	35744	0	0	0	25184	23830	147368	27625	1017614	42677	109311	0	0	8166	647084	0	0
2024-06-23 14:20:32			0	35771	0	0	0	25155	23830	147340	27372	1017561	42656	109300	0	0	8168	645908	0	0
2024-06-23 14:21:32			0	35788	0	0	0	25124	23820	147300	27310	1017508	42655	109288	0	0	8169	645205	0	0
2024-06-23 14:22:32			0	35801	0	0	0	25137	23810	147160	27345	1017437	42665	109293	0	0	8170	644677	0	0
2024-06-23 14:23:32			0	35814	0	0	0	25171	23800	147136	27346	1017482	42675	109306	0	0	8170	644148	0	0
2024-06-23 14:24:32			0	35839	0	0	0	25184	23800	146988	27355	1017562	42654	109311	0	0	8171	643063	0	0
2024-06-23 14:25:32			0	35844	0	0	0	25189	23810	147028	27289	1017598	42687	109313	0	0	8171	642810	0	0
2024-06-23 14:26:32			0	35873	0	0	0	25251	23820	146945	27457	1017677	42677	109337	0	0	8171	641517	0	0
2024-06-23 14:27:32			0	35865	0	0	0	25272	23830	146917	27407	1017793	42677	109345	0	0	8171	641828	0	0
2024-06-23 14:28:32			0	35867	0	0	0	25166	23830	146877	27635	1017606	42656	109304	0	0	8173	641741	0	0
2024-06-23 14:29:32			0	35898	0	0	0	25218	23820	146761	27474	1017588	42655	109324	0	0	8173	640436	0	0
2024-06-23 14:30:32			0	35891	0	0	0	25228	23820	146729	27550	1017642	42676	109328	0	0	8173	640738	0	0
2024-06-23 14:31:32			0	35897	0	0	0	25179	23820	146865	27448	1017642	42666	109309	0	0	8174	640479	0	0
2024-06-23 14:32:32			0	35893	0	0	0	25290	23820	146757	27623	1017695	42676	109352	0	0	8172	640652	0	0
2024-06-23 14:33:32			0	35902	0	0	0	25316	23840	146697	27689	1017890	42690	109362	0	0	8172	640190	0	0
2024-06-23 14:34:32			0	35910	0	0	0	25309	23850	146757	27357	1017934	42679	109359	0	0	8173	639809	0	0
2024-06-23 14:35:32			0	35904	0	0	0	25348	23870	146761	27554	1017995	42705	109374	0	0	8172	639996	0	0
2024-06-23 14:36:32			0	35905	0	0	0	25353	23870	146733	27557	1018137	42705	109376	0	0	8172	639953	0	0
2024-06-23 14:37:32			0	35917	0	0	0	25358	23890	146793	27490	1018190	42706	109378	0	0	8172	639362	0	0
2024-06-23 14:38:32			0	35900	0	0	0	25340	23900	146685	27388	1018207	42695	109371	0	0	8172	640060	0	0
2024-06-23 14:39:32			0	35918	0	0	0	25355	23910	146657	27263	1018179	42708	109377	0	0	8173	639247	0	0
2024-06-23 14:40:32			0	35914	0	0	0	25363	23910	146637	27478	1018259	42686	109380	0	0	8172	639420	0	0
2024-06-23 14:41:32			0	35906	0	0	0	25376	23910	146761	27277	1018233	42697	109385	0	0	8172	639765	0	0
2024-06-23 14:42:32			0	35907	0	0	0	25381	23930	146689	27261	1018347	42699	109387	0	0	8172	639650	0	0
2024-06-23 14:43:32			0	35924	0	0	0	25381	23930	146661	27275	1018347	42699	109387	0	0	8172	638916	0	0
2024-06-23 14:44:32			0	35897	0	0	0	25389	23940	146645	27493	1018330	42688	109390	0	0	8171	640046	0	0
2024-06-23 14:45:32			0	35938	0	0	0	25384	23950	146765	27218	1018347	42701	109388	0	0	8173	638240	0	0
2024-06-23 14:46:32			0	35918	0	0	0	25397	23960	146761	27514	1018364	42679	109393	0	0	8172	639067	0	0
2024-06-23 14:47:32			0	35915	0	0	0	25412	23960	146613	27253	1018498	42702	109399	0	0	8172	639196	0	0
2024-06-23 14:48:32			0	35919	0	0	0	25420	23950	146661	27168	1018436	42690	109402	0	0	8172	639060	0	0
2024-06-23 14:49:32			0	35914	0	0	0	25459	23960	146661	27339	1018613	42702	109417	0	0	8171	639239	0	0
2024-06-23 14:50:32			0	35922	0	0	0	25488	23980	146665	27512	1018648	42692	109428	0	0	8171	638822	0	0
2024-06-23 14:51:32			0	35942	0	0	0	25501	24000	146753	27182	1018700	42727	109433	0	0	8172	637887	0	0
2024-06-23 14:52:32			0	35913	0	0	0	25524	24010	146681	27206	1018753	42717	109442	0	0	8170	639103	0	0
2024-06-23 14:53:32			0	35918	0	0	0	25524	24020	146621	27237	1018895	42717	109442	0	0	8170	638851	0	0
2024-06-23 14:54:32			0	35927	0	0	0	25522	24030	146641	27455	1018894	42719	109441	0	0	8171	638426	0	0
2024-06-23 14:55:32			0	35919	0	0	0	25501	24050	146609	27414	1018920	42720	109433	0	0	8171	638700	0	0
2024-06-23 14:56:32			0	35914	0	0	0	25509	24060	146641	27331	1018928	42710	109436	0	0	8170	638879	0	0
2024-06-23 14:57:32			0	35915	0	0	0	25503	24060	146625	27192	1018991	42711	109434	0	0	8171	638836	0	0
2024-06-23 14:58:32			0	35919	0	0	0	25506	24080	146533	27237	1019017	42712	109435	0	0	8171	638591	0	0
2024-06-23 14:59:32			0	35901	0	0	0	25553	24080	146613	27071	1019025	42713	109453	0	0	8169	639368	0	0
2024-06-23 15:00:32			0	35890	0	0	0	25571	24090	146613	27045	1019123	42736	109460	0	0	8168	639807	0	0
2024-06-23 15:01:32			0	35892	0	0	0	25584	24110	146749	27422	1019148	42726	109465	0	0	8168	639649	0	0
2024-06-23 15:02:32			0	35870	0	0	0	25607	24120	146705	27353	1019166	42728	109474	0	0	8167	640563	0	0
2024-06-23 15:03:32			0	35887	0	0	0	25623	24140	146657	27168	1019334	42718	109480	0	0	8167	639756	0	0
2024-06-23 15:04:32			0	35889	0	0	0	25641	24140	146685	27239	1019316	42730	109487	0	0	8167	639670	0	0
2024-06-23 15:05:32			0	35908	0	0	0	25641	24150	146585	27074	1019431	42719	109487	0	0	8168	638814	0	0
2024-06-23 15:06:32			0	35971	0	0	0	25631	24170	146353	27341	1019359	42710	109483	0	0	8172	636028	0	0
2024-06-23 15:07:32			0	36007	0	0	0	25625	24170	146301	27287	1019439	42721	109481	0	0	8174	634481	0	0
2024-06-23 15:08:32			0	36011	0	0	0	25623	24170	146213	26993	1019412	42754	109480	0	0	8174	634309	0	0
2024-06-23 15:09:32			0	35988	0	0	0	25631	24180	146349	27296	1019403	42722	109483	0	0	8173	635261	0	0
2024-06-23 15:10:32			0	35899	0	0	0	25633	24180	146661	27199	1019411	42734	109484	0	0	8168	639094	0	0
2024-06-23 15:11:32			0	35828	0	0	0	25646	24180	146908	27320	1019411	42734	109489	0	0	8164	642163	0	0
2024-06-23 15:12:32			0	35782	0	0	0	25667	24190	147136	27147	1019562	42734	109497	0	0	8161	644121	0	0
2024-06-23 15:13:32			0	35746	0	0	0	25675	24210	147272	27185	1019668	42747	109500	0	0	8159	645612	0	0
2024-06-23 15:14:32			0	35720	0	0	0	25672	24210	147380	27237	1019650	42736	109499	0	0	8158	646743	0	0
2024-06-23 15:15:32			0	35696	0	0	0	25688	24210	147360	27147	1019677	42725	109505	0	0	8156	647788	0	0
2024-06-23 15:16:32			0	35695	0	0	0	25719	24230	147368	27072	1019756	42749	109517	0	0	8156	647758	0	0
2024-06-23 15:17:32			0	35697	0	0	0	25724	24250	147332	27322	1019844	42751	109519	0	0	8156	647598	0	0
2024-06-23 15:18:32			0	35725	0	0	0	25729	24240	147268	27034	1019836	42728	109521	0	0	8157	646416	0	0
2024-06-23 15:19:32			0	35744	0	0	0	25740	24260	147192	26720	1019888	42741	109525	0	0	8158	645516	0	0
2024-06-23 15:20:32			0	35757	0	0	0	25740	24270	147136	27055	1019852	42731	109525	0	0	8159	644915	0	0
2024-06-23 15:21:32			0	35788	0	0	0	25755	24290	147108	27123	1019993	42744	109531	0	0	8161	643497	0	0
2024-06-23 15:22:32			0	35782	0	0	0	25745	24290	147096	27076	1019975	42733	109527	0	0	8160	643757	0	0
2024-06-23 15:23:32			0	35771	0	0	0	25750	24300	147012	26928	1020011	42733	109529	0	0	8160	644198	0	0
2024-06-23 15:24:32			0	35769	0	0	0	25758	24300	147036	27320	1020038	42744	109532	0	0	8159	644285	0	0
2024-06-23 15:25:32			0	35774	0	0	0	25766	24300	147076	27296	1020064	42744	109535	0	0	8160	644068	0	0
2024-06-23 15:26:32			0	35780	0	0	0	25774	24320	147076	27124	1020064	42713	109538	0	0	8160	643735	0	0
2024-06-23 15:27:32			0	35795	0	0	0	25786	24320	146956	27348	1020206	42757	109543	0	0	8160	643085	0	0
2024-06-23 15:28:32			0	35792	0	0	0	25820	24340	146960	27308	1020232	42759	109556	0	0	8160	643142	0	0
2024-06-23 15:29:32			0	35802	0	0	0	25825	24350	146828	27390	1020285	42750	109558	0	0	8160	642673	0	0
2024-06-23 15:30:32			0	35833	0	0	0	25859	24360	146800	27305	1020373	42761	109571	0	0	8161	641295	0	0
2024-06-23 15:31:32			0	35815	0	0	0	25864	24370	146820	26944	1020417	42740	109573	0	0	8160	642037	0	0
2024-06-23 15:32:32			0	35762	0	0	0	25864	24380	146952	27289	1020461	42763	109573	0	0	8158	644298	0	0
2024-06-23 15:33:32			0	35722	0	0	0	25846	24390	147148	27272	1020434	42742	109566	0	0	8156	645999	0	0
2024-06-23 15:34:32			0	35690	0	0	0	25849	24400	147284	27253	1020531	42766	109567	0	0	8154	647354	0	0
2024-06-23 15:35:32			0	35673	0	0	0	25849	24400	147456	27272	1020496	42754	109567	0	0	8153	648095	0	0
2024-06-23 15:36:32			0	35641	0	0	0	25859	24400	147492	27180	1020478	42733	109571	0	0	8151	649490	0	0
2024-06-23 15:37:32			0	35613	0	0	0	25854	24410	147648	27171	1020540	42754	109569	0	0	8150	650676	0	0
2024-06-23 15:38:32			0	35579	0	0	0	25846	24410	147760	27464	1020548	42754	109566	0	0	8148	652163	0	0
2024-06-23 15:39:32			0	35539	0	0	0	25851	24420	147912	27249	1020566	42768	109568	0	0	8146	653879	0	0
2024-06-23 15:40:32			0	35522	0	0	0	25849	24420	147984	27216	1020539	42768	109567	0	0	8145	654625	0	0
2024-06-23 15:41:32			0	35504	0	0	0	25851	24410	148068	27196	1020548	42754	109568	0	0	8144	655452	0	0
2024-06-23 15:42:32			0	35510	0	0	0	25867	24420	147988	27209	1020592	42746	109574	0	0	8144	655152	0	0
2024-06-23 15:43:32			0	35483	0	0	0	25859	24430	148116	27353	1020583	42768	109571	0	0	8143	656301	0	0
2024-06-23 15:44:32			0	35499	0	0	0	25864	24440	147976	27092	1020592	42769	109573	0	0	8144	655561	0	0
2024-06-23 15:45:32			0	35504	0	0	0	25883	24430	147960	27310	1020655	42756	109580	0	0	8144	655378	0	0
2024-06-23 15:46:32			0	35514	0	0	0	25883	24440	147904	27163	1020681	42770	109580	0	0	8144	654902	0	0
2024-06-23 15:47:32			0	35536	0	0	0	25898	24460	147944	27201	1020787	42770	109586	0	0	8145	653863	0	0
2024-06-23 15:48:32			0	35559	0	0	0	25909	24480	147708	27270	1020848	42750	109590	0	0	8147	652781	0	0
2024-06-23 15:49:32			0	35611	0	0	0	25906	24470	147584	27298	1020839	42761	109589	0	0	8149	650543	0	0
2024-06-23 15:50:32			0	35635	0	0	0	25914	24480	147524	27138	1020883	42773	109592	0	0	8151	649459	0	0
2024-06-23 15:51:32			0	35675	0	0	0	25914	24480	147296	27251	1020857	42773	109592	0	0	8153	647715	0	0
2024-06-23 15:52:32			0	35706	0	0	0	25914	24480	147080	27211	1020857	42773	109592	0	0	8154	646366	0	0
2024-06-23 15:53:32			0	35774	0	0	0	25916	24490	146988	27026	1020901	42751	109593	0	0	8158	643377	0	0
2024-06-23 15:54:32			0	35818	0	0	0	25916	24480	146756	27199	1020857	42751	109593	0	0	8160	641508	0	0
2024-06-23 15:55:32			0	35849	0	0	0	25927	24490	146736	27569	1020927	42763	109597	0	0	8162	640132	0	0
2024-06-23 15:56:32			0	35878	0	0	0	25940	24500	146517	27412	1020998	42775	109602	0	0	8163	638845	0	0
2024-06-23 15:57:32			0	35916	0	0	0	25955	24510	146353	27303	1021007	42776	109608	0	0	8165	637172	0	0
2024-06-23 15:58:32			0	35937	0	0	0	25979	24520	146221	27064	1021104	42754	109617	0	0	8166	636232	0	0
2024-06-23 15:59:32			0	35898	0	0	0	25986	24530	146489	27412	1021157	42767	109620	0	0	8164	637875	0	0
2024-06-23 16:00:32			0	35821	0	0	0	25981	24540	146764	27178	1021139	42779	109618	0	0	8160	641161	0	0
2024-06-23 16:01:32			0	35740	0	0	0	25986	24540	147076	27658	1021174	42779	109620	0	0	8155	644669	0	0
2024-06-23 16:02:32			0	35647	0	0	0	25989	24540	147420	27313	1021174	42767	109621	0	0	8150	648715	0	0
2024-06-23 16:03:32			0	35583	0	0	0	25992	24550	147580	27357	1021209	42780	109622	0	0	8147	651473	0	0
2024-06-23 16:04:32			0	35524	0	0	0	26005	24560	147828	27048	1021281	42791	109627	0	0	8143	654019	0	0
2024-06-23 16:05:32			0	35507	0	0	0	26012	24570	147920	27270	1021325	42770	109630	0	0	8142	654728	0	0
2024-06-23 16:06:32			0	35477	0	0	0	26023	24570	148008	27265	1021333	42782	109634	0	0	8141	656046	0	0
2024-06-23 16:07:32			0	35463	0	0	0	26031	24580	148120	27305	1021377	42772	109637	0	0	8140	656624	0	0
2024-06-23 16:08:32			0	35457	0	0	0	26038	24590	148060	27407	1021394	42773	109640	0	0	8139	656851	0	0
2024-06-23 16:09:32			0	35461	0	0	0	26046	24600	148012	27343	1021403	42784	109643	0	0	8139	656638	0	0
2024-06-23 16:10:32			0	35445	0	0	0	26046	24610	148064	27287	1021447	42763	109643	0	0	8139	657305	0	0
2024-06-23 16:11:32			0	35468	0	0	0	26054	24610	148084	27341	1021474	42785	109646	0	0	8140	656293	0	0
2024-06-23 16:12:32			0	35485	0	0	0	26059	24620	147896	27235	1021491	42776	109648	0	0	8141	655509	0	0
2024-06-23 16:13:32			0	35498	0	0	0	26070	24620	147920	27131	1021518	42776	109652	0	0	8141	654938	0	0
2024-06-23 16:14:32			0	35510	0	0	0	26075	24620	147876	27100	1021571	42787	109654	0	0	8142	654411	0	0
2024-06-23 16:15:32			0	35532	0	0	0	26075	24630	147768	27069	1021589	42787	109654	0	0	8143	653410	0	0
2024-06-23 16:16:32			0	35552	0	0	0	26077	24620	147756	27092	1021518	42765	109655	0	0	8144	652571	0	0
2024-06-23 16:17:32			0	35593	0	0	0	26057	24640	147572	26981	1021552	42778	109647	0	0	8147	650704	0	0
2024-06-23 16:18:32			0	35609	0	0	0	26054	24640	147388	27015	1021544	42777	109646	0	0	8147	650005	0	0
2024-06-23 16:19:32			0	35654	0	0	0	26051	24640	147152	27156	1021570	42777	109645	0	0	8150	648043	0	0
2024-06-23 16:20:32			0	35708	0	0	0	26059	24650	146944	27457	1021596	42790	109648	0	0	8153	645658	0	0
2024-06-23 16:21:32			0	35762	0	0	0	26067	24650	146720	27185	1021650	42779	109651	0	0	8155	643315	0	0
2024-06-23 16:22:32			0	35819	0	0	0	26054	24650	146588	27234	1021677	42779	109646	0	0	8159	640849	0	0
2024-06-23 16:23:32			0	35867	0	0	0	26064	24650	146465	27345	1021703	42779	109650	0	0	8161	638777	0	0
2024-06-23 16:24:32			0	35884	0	0	0	26067	24660	146317	27371	1021694	42791	109651	0	0	8162	638008	0	0
2024-06-23 16:25:32			0	35882	0	0	0	26070	24660	146389	27235	1021739	42800	109652	0	0	8162	638094	0	0
2024-06-23 16:26:32			0	35846	0	0	0	26077	24660	146492	27092	1021632	42779	109655	0	0	8160	639647	0	0
2024-06-23 16:27:32			0	35812	0	0	0	26080	24670	146548	27272	1021729	42780	109656	0	0	8158	641078	0	0
2024-06-23 16:28:32			0	35766	0	0	0	26090	24660	146740	27170	1021747	42768	109660	0	0	8155	643105	0	0
2024-06-23 16:29:32			0	35743	0	0	0	26085	24680	146880	27324	1021693	42791	109658	0	0	8154	644029	0	0
2024-06-23 16:30:32			0	35715	0	0	0	26085	24680	146896	27670	1021773	42780	109658	0	0	8153	645244	0	0
2024-06-23 16:31:32			0	35714	0	0	0	26090	24680	147016	27260	1021773	42780	109660	0	0	8153	645287	0	0
2024-06-23 16:32:32			0	35683	0	0	0	26093	24670	146988	27358	1021711	42780	109661	0	0	8151	646671	0	0
2024-06-23 16:33:32			0	35696	0	0	0	26101	24670	147036	27133	1021765	42769	109664	0	0	8151	646106	0	0
2024-06-23 16:34:32			0	35658	0	0	0	26098	24680	147184	27377	1021702	42792	109663	0	0	8150	647722	0	0
2024-06-23 16:35:32			0	35649	0	0	0	26101	24680	147180	27476	1021827	42791	109664	0	0	8149	648114	0	0
2024-06-23 16:36:32			0	35662	0	0	0	26109	24690	147224	27218	1021818	42792	109667	0	0	8150	647511	0	0
2024-06-23 16:37:32			0	35654	0	0	0	26114	24690	147144	27424	1021898	42781	109669	0	0	8149	647860	0	0
2024-06-23 16:38:32			0	35653	0	0	0	26114	24690	147148	27258	1021844	42792	109669	0	0	8149	647903	0	0
2024-06-23 16:39:32			0	35667	0	0	0	26119	24690	147156	27019	1021933	42771	109671	0	0	8150	647294	0	0
2024-06-23 16:40:32			0	35701	0	0	0	26119	24700	147040	27298	1021942	42783	109671	0	0	8152	645779	0	0
2024-06-23 16:41:32			0	35727	0	0	0	26119	24690	146856	27256	1021853	42782	109671	0	0	8153	644686	0	0
2024-06-23 16:42:32			0	35751	0	0	0	26122	24690	146872	27274	1021826	42782	109672	0	0	8154	643646	0	0
2024-06-23 16:43:32			0	35755	0	0	0	26114	24700	146640	26932	1021870	42783	109669	0	0	8155	643436	0	0
2024-06-23 16:44:32			0	35770	0	0	0	26119	24700	146644	27203	1021870	42805	109671	0	0	8155	642786	0	0
2024-06-23 16:45:32			0	35784	0	0	0	26111	24710	146652	27412	1021879	42783	109668	0	0	8156	642144	0	0
2024-06-23 16:46:32			0	35787	0	0	0	26116	24710	146652	27138	1021879	42772	109670	0	0	8156	642014	0	0
2024-06-23 16:47:32			0	35797	0	0	0	26124	24700	146624	27041	1021969	42783	109673	0	0	8157	641618	0	0
2024-06-23 16:48:32			0	35807	0	0	0	26122	24710	146660	27154	1021852	42794	109672	0	0	8157	641149	0	0
2024-06-23 16:49:32			0	35815	0	0	0	26124	24700	146544	27306	1021897	42794	109673	0	0	8158	640840	0	0
2024-06-23 16:50:32			0	35817	0	0	0	26122	24710	146500	27093	1021986	42783	109672	0	0	8158	640717	0	0
2024-06-23 16:51:32			0	35813	0	0	0	26124	24720	146444	27215	1021896	42785	109673	0	0	8158	640854	0	0
2024-06-23 16:52:32			0	35827	0	0	0	26129	24720	146412	27282	1021950	42785	109675	0	0	8158	640249	0	0
2024-06-23 16:53:32			0	35836	0	0	0	26129	24710	146480	27293	1021879	42783	109675	0	0	8159	639897	0	0
2024-06-23 16:54:32			0	35824	0	0	0	26129	24720	146560	27104	1022003	42795	109675	0	0	8158	640379	0	0
2024-06-23 16:55:32			0	35845	0	0	0	26137	24720	146572	27229	1021976	42807	109678	0	0	8159	639472	0	0
2024-06-23 16:56:32			0	35826	0	0	0	26127	24720	146552	27192	1021985	42795	109674	0	0	8158	640292	0	0
2024-06-23 16:57:32			0	35823	0	0	0	26140	24720	146524	27015	1021878	42785	109679	0	0	8158	640422	0	0
2024-06-23 16:58:32			0	35837	0	0	0	26140	24720	146528	27076	1021985	42795	109679	0	0	8159	639818	0	0
2024-06-23 16:59:32			0	35820	0	0	0	26132	24720	146580	27166	1022038	42795	109676	0	0	8158	640551	0	0
2024-06-23 17:00:32			0	35821	0	0	0	26124	24730	146492	27334	1022020	42786	109673	0	0	8158	640472	0	0
2024-06-23 17:01:32			0	35840	0	0	0	26127	24720	146456	27249	1021905	42785	109674	0	0	8159	639688	0	0
2024-06-23 17:02:32			0	35866	0	0	0	26129	24730	146373	27272	1022020	42786	109675	0	0	8160	638531	0	0
2024-06-23 17:03:32			0	35873	0	0	0	26137	24730	146297	27012	1022029	42775	109678	0	0	8161	638229	0	0
2024-06-23 17:04:32			0	35899	0	0	0	26132	24730	146245	27183	1022002	42796	109676	0	0	8162	637110	0	0
2024-06-23 17:05:32			0	35907	0	0	0	26135	24720	146169	27192	1021985	42795	109677	0	0	8162	636802	0	0
2024-06-23 17:06:32			0	35909	0	0	0	26132	24740	146201	27300	1022011	42797	109676	0	0	8163	636644	0	0
2024-06-23 17:07:32			0	35900	0	0	0	26127	24720	146293	27275	1021905	42795	109674	0	0	8162	637103	0	0
2024-06-23 17:08:32			0	35905	0	0	0	26132	24720	146257	27268	1021958	42795	109676	0	0	8162	636888	0	0
2024-06-23 17:09:32			0	35902	0	0	0	26129	24730	146213	27296	1022056	42786	109675	0	0	8162	636981	0	0
2024-06-23 17:10:32			0	35882	0	0	0	26129	24730	146181	27268	1022020	42796	109675	0	0	8161	637842	0	0
2024-06-23 17:11:32			0	35885	0	0	0	26137	24730	146253	27305	1022002	42796	109678	0	0	8161	637713	0	0
2024-06-23 17:12:32			0	35871	0	0	0	26142	24720	146348	27327	1022012	42785	109680	0	0	8160	638352	0	0
2024-06-23 17:13:32			0	35845	0	0	0	26137	24730	146340	27355	1022029	42796	109678	0	0	8159	639436	0	0
2024-06-23 17:14:32			0	35864	0	0	0	26137	24730	146417	27100	1022047	42796	109678	0	0	8160	638617	0	0
2024-06-23 17:15:32			0	35857	0	0	0	26140	24730	146421	27258	1022047	42808	109679	0	0	8160	638919	0	0
2024-06-23 17:16:32			0	35848	0	0	0	26135	24730	146392	27197	1022020	42775	109677	0	0	8159	639307	0	0
2024-06-23 17:17:32			0	35852	0	0	0	26135	24740	146312	27319	1022064	42797	109677	0	0	8160	639098	0	0
2024-06-23 17:18:32			0	35834	0	0	0	26132	24730	146420	27157	1022020	42786	109676	0	0	8159	639911	0	0
2024-06-23 17:19:32			0	35852	0	0	0	26122	24740	146328	27178	1022064	42797	109672	0	0	8160	639098	0	0
2024-06-23 17:20:32			0	35881	0	0	0	26127	24730	146333	27383	1022029	42786	109674	0	0	8161	637885	0	0
2024-06-23 17:21:32			0	35880	0	0	0	26129	24720	146337	27069	1022012	42795	109675	0	0	8161	637964	0	0
2024-06-23 17:22:32			0	35876	0	0	0	26132	24730	146209	27362	1021967	42808	109676	0	0	8161	638100	0	0
2024-06-23 17:23:32			0	35858	0	0	0	26135	24730	146329	27244	1022020	42786	109677	0	0	8160	638876	0	0
2024-06-23 17:24:32			0	35858	0	0	0	26127	24720	146397	27154	1022012	42807	109674	0	0	8160	638912	0	0
2024-06-23 17:25:32			0	35840	0	0	0	26124	24730	146392	27147	1022002	42796	109673	0	0	8159	639652	0	0
2024-06-23 17:26:32			0	35839	0	0	0	26127	24730	146552	27255	1022020	42796	109674	0	0	8159	639695	0	0
2024-06-23 17:27:32			0	35806	0	0	0	26132	24730	146500	26984	1022029	42796	109676	0	0	8157	641120	0	0
2024-06-23 17:28:32			0	35810	0	0	0	26132	24730	146568	27275	1022020	42796	109676	0	0	8157	640947	0	0
2024-06-23 17:29:32			0	35822	0	0	0	26137	24720	146540	27338	1021985	42785	109678	0	0	8158	640465	0	0
2024-06-23 17:30:32			0	35806	0	0	0	26135	24720	146500	27036	1022057	42795	109677	0	0	8157	641156	0	0
2024-06-23 17:31:32			0	35805	0	0	0	26122	24720	146504	27332	1022012	42785	109672	0	0	8157	641200	0	0
2024-06-23 17:32:32			0	35805	0	0	0	26124	24710	146604	27235	1021959	42783	109673	0	0	8157	641236	0	0
2024-06-23 17:33:32			0	35799	0	0	0	26116	24720	146588	27170	1021985	42795	109670	0	0	8157	641459	0	0
2024-06-23 17:34:32			0	35778	0	0	0	26129	24730	146660	27485	1021994	42786	109675	0	0	8156	642331	0	0
2024-06-23 17:35:32			0	35764	0	0	0	26132	24720	146712	27081	1021950	42807	109676	0	0	8155	642973	0	0
2024-06-23 17:36:32			0	35765	0	0	0	26124	24720	146768	27511	1021985	42795	109673	0	0	8155	642930	0	0
2024-06-23 17:37:32			0	35755	0	0	0	26132	24730	146796	27173	1022047	42796	109676	0	0	8154	643327	0	0
2024-06-23 17:38:32			0	35746	0	0	0	26124	24730	146808	27438	1022020	42808	109673	0	0	8154	643717	0	0
2024-06-23 17:39:32			0	35759	0	0	0	26124	24720	146844	27326	1021985	42795	109673	0	0	8155	643190	0	0
2024-06-23 17:40:32			0	35734	0	0	0	26119	24730	146736	27313	1021994	42786	109671	0	0	8153	644237	0	0
2024-06-23 17:41:32			0	35752	0	0	0	26129	24730	146768	27192	1021994	42796	109675	0	0	8154	643457	0	0
2024-06-23 17:42:32			0	35739	0	0	0	26132	24730	146892	27007	1022020	42796	109676	0	0	8153	644020	0	0
2024-06-23 17:43:32			0	35748	0	0	0	26135	24720	146928	27090	1022012	42807	109677	0	0	8154	643666	0	0
2024-06-23 17:44:32			0	35736	0	0	0	26122	24720	146776	27251	1021950	42785	109672	0	0	8153	644187	0	0
2024-06-23 17:45:32			0	35731	0	0	0	26124	24730	146884	27305	1021967	42796	109673	0	0	8153	644367	0	0
2024-06-23 17:46:32			0	35725	0	0	0	26116	24720	146924	27059	1021985	42795	109670	0	0	8153	644664	0	0
2024-06-23 17:47:32			0	35737	0	0	0	26122	24720	146964	27216	1021950	42785	109672	0	0	8154	644143	0	0
2024-06-23 17:48:32			0	35712	0	0	0	26127	24720	146960	27286	1022038	42795	109674	0	0	8152	645228	0	0
2024-06-23 17:49:32			0	35712	0	0	0	26135	24720	146816	27154	1021958	42795	109677	0	0	8152	645228	0	0
2024-06-23 17:50:32			0	35727	0	0	0	26132	24730	146924	27415	1022020	42796	109676	0	0	8153	644541	0	0
2024-06-23 17:51:32			0	35719	0	0	0	26129	24720	146884	27355	1021950	42807	109675	0	0	8152	644924	0	0
2024-06-23 17:52:32			0	35726	0	0	0	26127	24720	146876	27441	1022038	42785	109674	0	0	8153	644620	0	0
2024-06-23 17:53:32			0	35734	0	0	0	26119	24720	146912	27159	1022003	42795	109671	0	0	8153	644273	0	0
2024-06-23 17:54:32			0	35741	0	0	0	26132	24720	146772	27372	1021976	42795	109676	0	0	8154	643970	0	0
2024-06-23 17:55:32			0	35740	0	0	0	26122	24720	146876	27284	1022038	42795	109672	0	0	8154	644013	0	0
2024-06-23 17:56:32			0	35752	0	0	0	26124	24730	146780	27312	1022047	42796	109673	0	0	8154	643457	0	0
2024-06-23 17:57:32			0	35738	0	0	0	26127	24730	146836	27471	1021967	42796	109674	0	0	8154	644064	0	0
2024-06-23 17:58:32			0	35725	0	0	0	26132	24730	146764	27192	1022020	42796	109676	0	0	8153	644627	0	0
2024-06-23 17:59:32			0	35725	0	0	0	26129	24730	146856	27135	1022074	42808	109675	0	0	8153	644627	0	0
2024-06-23 18:00:32			0	35713	0	0	0	26135	24730	146956	27258	1022029	42786	109677	0	0	8152	645148	0	0
2024-06-23 18:01:32			0	35697	0	0	0	26127	24720	147004	27138	1022038	42795	109674	0	0	8151	645880	0	0
2024-06-23 18:02:32			0	35700	0	0	0	26129	24740	146956	27514	1021984	42820	109675	0	0	8152	645676	0	0
2024-06-23 18:03:32			0	35683	0	0	0	26132	24730	147088	27312	1021994	42796	109676	0	0	8151	646451	0	0
2024-06-23 18:04:32			0	35668	0	0	0	26140	24720	147060	27428	1022092	42785	109679	0	0	8150	647140	0	0
2024-06-23 18:05:32			0	35652	0	0	0	26135	24730	147212	27351	1022020	42796	109677	0	0	8149	647800	0	0
2024-06-23 18:06:32			0	35651	0	0	0	26137	24730	147196	27303	1022109	42796	109678	0	0	8149	647844	0	0
2024-06-23 18:07:32			0	35653	0	0	0	26140	24730	147164	27383	1022082	42796	109679	0	0	8149	647757	0	0
2024-06-23 18:08:32			0	35648	0	0	0	26140	24730	147188	27320	1022082	42808	109679	0	0	8148	647974	0	0
2024-06-23 18:09:32			0	35652	0	0	0	26137	24730	147144	27481	1022136	42786	109678	0	0	8149	647800	0	0
2024-06-23 18:10:32			0	35663	0	0	0	26140	24740	147212	27235	1022091	42797	109679	0	0	8149	647285	0	0
2024-06-23 18:11:32			0	35644	0	0	0	26137	24730	147232	27313	1022082	42796	109678	0	0	8148	648148	0	0
2024-06-23 18:12:32			0	35670	0	0	0	26142	24740	147076	27060	1022118	42787	109680	0	0	8150	646980	0	0
2024-06-23 18:13:32			0	35672	0	0	0	26137	24740	147112	27182	1022091	42787	109678	0	0	8150	646893	0	0
2024-06-23 18:14:32			0	35677	0	0	0	26140	24750	147028	27033	1022108	42810	109679	0	0	8150	646639	0	0
2024-06-23 18:15:32			0	35706	0	0	0	26142	24750	146992	27229	1022055	42788	109680	0	0	8152	645379	0	0
2024-06-23 18:16:32			0	35699	0	0	0	26137	24730	147000	27133	1022082	42796	109678	0	0	8151	645756	0	0
2024-06-23 18:17:32			0	35695	0	0	0	26142	24740	147068	27376	1022091	42809	109680	0	0	8151	645893	0	0
2024-06-23 18:18:32			0	35688	0	0	0	26140	24740	147064	27308	1022126	42787	109679	0	0	8151	646197	0	0
2024-06-23 18:19:32			0	35671	0	0	0	26148	24740	147120	27189	1022046	42809	109682	0	0	8150	646937	0	0
2024-06-23 18:20:32			0	35662	0	0	0	26137	24740	147124	27201	1022038	42797	109678	0	0	8149	647328	0	0
2024-06-23 18:21:32			0	35662	0	0	0	26142	24740	147120	27303	1022073	42797	109680	0	0	8149	647328	0	0
2024-06-23 18:22:32			0	35651	0	0	0	26142	24740	147204	27060	1022153	42797	109680	0	0	8149	647807	0	0
2024-06-23 18:23:32			0	35655	0	0	0	26148	24750	147188	26826	1022162	42798	109682	0	0	8149	647596	0	0
2024-06-23 18:24:32			0	35631	0	0	0	26140	24740	147200	27133	1022118	42809	109679	0	0	8148	648678	0	0
2024-06-23 18:25:32			0	35636	0	0	0	26145	24740	147272	27088	1022153	42797	109681	0	0	8148	648460	0	0
2024-06-23 18:26:32			0	35629	0	0	0	26150	24740	147244	27156	1022118	42787	109683	0	0	8147	648765	0	0
2024-06-23 18:27:32			0	35609	0	0	0	26148	24740	147224	27194	1022153	42797	109682	0	0	8146	649637	0	0
2024-06-23 18:28:32			0	35606	0	0	0	26153	24750	147288	27308	1022135	42798	109684	0	0	8146	649732	0	0
2024-06-23 18:29:32			0	35622	0	0	0	26153	24740	147280	27177	1022180	42797	109684	0	0	8147	649070	0	0
2024-06-23 18:30:32			0	35632	0	0	0	26150	24750	147260	27168	1022189	42810	109683	0	0	8148	648598	0	0
2024-06-23 18:31:32			0	35635	0	0	0	26153	24750	147244	27254	1022162	42810	109684	0	0	8148	648467	0	0
2024-06-23 18:32:32			0	35639	0	0	0	26150	24750	147200	27364	1022135	42788	109683	0	0	8148	648293	0	0
2024-06-23 18:33:32			0	35645	0	0	0	26148	24750	147260	27538	1022197	42788	109682	0	0	8148	648032	0	0
2024-06-23 18:34:32			0	35631	0	0	0	26150	24750	147132	27027	1022135	42798	109683	0	0	8148	648641	0	0
2024-06-23 18:35:32			0	35643	0	0	0	26153	24740	147176	27166	1022126	42797	109684	0	0	8148	648155	0	0
2024-06-23 18:36:32			0	35649	0	0	0	26150	24750	147076	27055	1022197	42798	109683	0	0	8148	647857	0	0
2024-06-23 18:37:32			0	35644	0	0	0	26155	24750	147192	26928	1022171	42798	109685	0	0	8148	648075	0	0
2024-06-23 18:38:32			0	35667	0	0	0	26153	24760	147084	27235	1022179	42777	109684	0	0	8149	647037	0	0
2024-06-23 18:39:32			0	35642	0	0	0	26155	24750	147008	27300	1022144	42788	109685	0	0	8148	648162	0	0
2024-06-23 18:40:32			0	35659	0	0	0	26153	24750	147096	27248	1022117	42788	109684	0	0	8149	647422	0	0
2024-06-23 18:41:32			0	35669	0	0	0	26153	24750	147080	27109	1022171	42788	109684	0	0	8149	646987	0	0
2024-06-23 18:42:32			0	35684	0	0	0	26155	24750	147072	27409	1022171	42788	109685	0	0	8150	646335	0	0
2024-06-23 18:43:32			0	35687	0	0	0	26153	24740	147040	27261	1022126	42797	109684	0	0	8150	646241	0	0
2024-06-23 18:44:32			0	35688	0	0	0	26153	24750	146904	27306	1022197	42798	109684	0	0	8151	646161	0	0
2024-06-23 18:45:32			0	35701	0	0	0	26153	24750	146932	27199	1022162	42798	109684	0	0	8151	645596	0	0
2024-06-23 18:46:32			0	35703	0	0	0	26145	24750	146952	27301	1022135	42788	109681	0	0	8151	645509	0	0
2024-06-23 18:47:32			0	35703	0	0	0	26148	24740	146964	27156	1022207	42787	109682	0	0	8151	645546	0	0
2024-06-23 18:48:32			0	35691	0	0	0	26148	24750	146900	27388	1022197	42798	109682	0	0	8151	646030	0	0
2024-06-23 18:49:32			0	35714	0	0	0	26140	24750	146924	27300	1022135	42798	109679	0	0	8152	645032	0	0
2024-06-23 18:50:32			0	35713	0	0	0	26148	24750	146856	27152	1022108	42798	109682	0	0	8152	645075	0	0
2024-06-23 18:51:32			0	35717	0	0	0	26153	24760	146792	27196	1022179	42799	109684	0	0	8152	644865	0	0
2024-06-23 18:52:32			0	35718	0	0	0	26148	24750	146752	27124	1022135	42798	109682	0	0	8152	644858	0	0
2024-06-23 18:53:32			0	35737	0	0	0	26153	24750	146776	27109	1022135	42810	109684	0	0	8153	644034	0	0
2024-06-23 18:54:32			0	35755	0	0	0	26150	24740	146788	27074	1022153	42787	109683	0	0	8154	643290	0	0
2024-06-23 18:55:32			0	35761	0	0	0	26153	24750	146740	27098	1022108	42798	109684	0	0	8154	642994	0	0
2024-06-23 18:56:32			0	35760	0	0	0	26155	24740	146620	27251	1022118	42787	109685	0	0	8154	643074	0	0
2024-06-23 18:57:32			0	35768	0	0	0	26142	24740	146604	27289	1022126	42787	109680	0	0	8155	642727	0	0
2024-06-23 18:58:32			0	35780	0	0	0	26153	24740	146636	26852	1022100	42809	109684	0	0	8155	642208	0	0
2024-06-23 18:59:32			0	35780	0	0	0	26142	24750	146592	27232	1022162	42798	109680	0	0	8156	642172	0	0
2024-06-23 19:00:32			0	35772	0	0	0	26148	24750	146668	27039	1022135	42777	109682	0	0	8155	642518	0	0
2024-06-23 19:01:32			0	35780	0	0	0	26148	24740	146700	27076	1022145	42797	109682	0	0	8155	642208	0	0
2024-06-23 19:02:32			0	35760	0	0	0	26140	24740	146688	26968	1022073	42797	109679	0	0	8155	643074	0	0
2024-06-23 19:03:32			0	35765	0	0	0	26142	24740	146748	27157	1022153	42787	109680	0	0	8155	642857	0	0
2024-06-23 19:04:32			0	35748	0	0	0	26140	24730	146760	27222	1022109	42808	109679	0	0	8154	643630	0	0
2024-06-23 19:05:32			0	35728	0	0	0	26140	24740	146788	27255	1022118	42797	109679	0	0	8153	644461	0	0
2024-06-23 19:06:32			0	35737	0	0	0	26132	24740	146736	27008	1022091	42797	109676	0	0	8153	644070	0	0
2024-06-23 19:07:32			0	35730	0	0	0	26140	24740	146908	26795	1022100	42809	109679	0	0	8153	644374	0	0
2024-06-23 19:08:32			0	35705	0	0	0	26137	24730	146972	27130	1022029	42808	109678	0	0	8152	645495	0	0
2024-06-23 19:09:32			0	35684	0	0	0	26135	24740	147120	27209	1022145	42797	109677	0	0	8151	646371	0	0
2024-06-23 19:10:32			0	35676	0	0	0	26145	24730	147228	27166	1022109	42796	109681	0	0	8150	646756	0	0
2024-06-23 19:11:32			0	35670	0	0	0	26129	24740	147160	27114	1022091	42787	109675	0	0	8150	646980	0	0
2024-06-23 19:12:32			0	35641	0	0	0	26127	24740	147280	27010	1022064	42797	109674	0	0	8148	648242	0	0
2024-06-23 19:13:32			0	35624	0	0	0	26127	24730	147352	27263	1022109	42796	109674	0	0	8147	649020	0	0
2024-06-23 19:14:32			0	35609	0	0	0	26129	24720	147400	27248	1022038	42795	109675	0	0	8147	649711	0	0
2024-06-23 19:15:32			0	35608	0	0	0	26132	24730	147372	27287	1022074	42786	109676	0	0	8146	649718	0	0
2024-06-23 19:16:32			0	35602	0	0	0	26122	24730	147484	26918	1022020	42796	109672	0	0	8146	649980	0	0
2024-06-23 19:17:32			0	35594	0	0	0	26119	24720	147440	26939	1022012	42795	109671	0	0	8146	650366	0	0
2024-06-23 19:18:32			0	35593	0	0	0	26124	24740	147420	27197	1022038	42776	109673	0	0	8146	650336	0	0
2024-06-23 19:19:32			0	35611	0	0	0	26124	24720	147356	27057	1022065	42795	109673	0	0	8147	649624	0	0
2024-06-23 19:20:32			0	35612	0	0	0	26129	24720	147444	27152	1022003	42795	109675	0	0	8147	649580	0	0
2024-06-23 19:21:32			0	35630	0	0	0	26135	24730	147396	27187	1022020	42796	109677	0	0	8148	648758	0	0
2024-06-23 19:22:32			0	35619	0	0	0	26124	24720	147312	27190	1022012	42795	109673	0	0	8147	649275	0	0
2024-06-23 19:23:32			0	35632	0	0	0	26119	24720	147228	27183	1022012	42807	109671	0	0	8148	648708	0	0
2024-06-23 19:24:32			0	35630	0	0	0	26116	24720	147156	27493	1022065	42795	109670	0	0	8148	648795	0	0
2024-06-23 19:25:32			0	35631	0	0	0	26098	24720	147320	27071	1021931	42795	109663	0	0	8148	648752	0	0
2024-06-23 19:26:32			0	35619	0	0	0	26096	24720	147216	27017	1021976	42795	109662	0	0	8148	649275	0	0
2024-06-23 19:27:32			0	35638	0	0	0	26096	24730	147280	27296	1021994	42796	109662	0	0	8149	648410	0	0
2024-06-23 19:28:32			0	35632	0	0	0	26109	24720	147336	27116	1022030	42795	109667	0	0	8148	648708	0	0
2024-06-23 19:29:32			0	35637	0	0	0	26111	24710	147328	27176	1021932	42772	109668	0	0	8148	648527	0	0
2024-06-23 19:30:32			0	35623	0	0	0	26111	24720	147324	27112	1021976	42785	109668	0	0	8148	649100	0	0
2024-06-23 19:31:32			0	35619	0	0	0	26111	24710	147368	27377	1022021	42794	109668	0	0	8147	649312	0	0
2024-06-23 19:32:32			0	35577	0	0	0	26106	24710	147468	27409	1021932	42794	109666	0	0	8145	651145	0	0
2024-06-23 19:33:32			0	35542	0	0	0	26109	24700	147604	27010	1021950	42794	109667	0	0	8143	652713	0	0
2024-06-23 19:34:32			0	35553	0	0	0	26114	24720	147700	27185	1021976	42785	109669	0	0	8144	652158	0	0
2024-06-23 19:35:32			0	35519	0	0	0	26109	24720	147700	27041	1021950	42795	109667	0	0	8142	653647	0	0
2024-06-23 19:36:32			0	35508	0	0	0	26109	24710	147836	26984	1021932	42783	109667	0	0	8141	654166	0	0
2024-06-23 19:37:32			0	35514	0	0	0	26109	24710	147876	27261	1021959	42794	109667	0	0	8142	653903	0	0
2024-06-23 19:38:32			0	35474	0	0	0	26103	24710	148000	27071	1021986	42794	109665	0	0	8140	655658	0	0
2024-06-23 19:39:32			0	35495	0	0	0	26111	24710	148036	27267	1021932	42794	109668	0	0	8141	654736	0	0
2024-06-23 19:40:32			0	35471	0	0	0	26101	24710	148008	26953	1021941	42806	109664	0	0	8140	655790	0	0
2024-06-23 19:41:32			0	35469	0	0	0	26106	24690	148028	27206	1021853	42793	109666	0	0	8139	655952	0	0
2024-06-23 19:42:32			0	35461	0	0	0	26106	24700	148048	27322	1021950	42794	109666	0	0	8139	656266	0	0
2024-06-23 19:43:32			0	35480	0	0	0	26106	24700	148024	27220	1021924	42794	109666	0	0	8140	655432	0	0
2024-06-23 19:44:32			0	35453	0	0	0	26101	24700	148068	27111	1021862	42783	109664	0	0	8139	656618	0	0
2024-06-23 19:45:32			0	35461	0	0	0	26103	24700	147976	27182	1021995	42805	109665	0	0	8139	656266	0	0
2024-06-23 19:46:32			0	35482	0	0	0	26106	24700	148044	27126	1021995	42783	109666	0	0	8140	655344	0	0
2024-06-23 19:47:32			0	35463	0	0	0	26106	24700	147964	26925	1021862	42805	109666	0	0	8139	656178	0	0
2024-06-23 19:48:32			0	35462	0	0	0	26101	24700	147948	27341	1021969	42794	109664	0	0	8139	656222	0	0
2024-06-23 19:49:32			0	35492	0	0	0	26106	24700	148024	27109	1021915	42783	109666	0	0	8141	654905	0	0
2024-06-23 19:50:32			0	35494	0	0	0	26101	24700	147896	27166	1021915	42794	109664	0	0	8141	654817	0	0
2024-06-23 19:51:32			0	35497	0	0	0	26101	24700	147900	27131	1021977	42794	109664	0	0	8141	654685	0	0
2024-06-23 19:52:32			0	35509	0	0	0	26098	24700	147764	27284	1021915	42794	109663	0	0	8142	654159	0	0
2024-06-23 19:53:32			0	35539	0	0	0	26103	24700	147776	27351	1021915	42794	109665	0	0	8143	652844	0	0
2024-06-23 19:54:32			0	35547	0	0	0	26103	24690	147660	27514	1021987	42804	109665	0	0	8144	652531	0	0
2024-06-23 19:55:32			0	35563	0	0	0	26101	24700	147604	27310	1021924	42794	109664	0	0	8144	651794	0	0
2024-06-23 19:56:32			0	35581	0	0	0	26098	24690	147584	27069	1021906	42793	109663	0	0	8145	651044	0	0
2024-06-23 19:57:32			0	35601	0	0	0	26101	24690	147420	27332	1021906	42782	109664	0	0	8146	650170	0	0
2024-06-23 19:58:32			0	35601	0	0	0	26096	24690	147436	27206	1021880	42782	109662	0	0	8147	650170	0	0
2024-06-23 19:59:32			0	35617	0	0	0	26090	24690	147400	26759	1021925	42792	109660	0	0	8148	649472	0	0
2024-06-23 20:00:32			0	35633	0	0	0	26080	24700	147332	27251	1021915	42794	109656	0	0	8149	648738	0	0
2024-06-23 20:01:32			0	35656	0	0	0	26077	24690	147308	27150	1021844	42792	109655	0	0	8150	647773	0	0
2024-06-23 20:02:32			0	35661	0	0	0	26083	24690	147140	27202	1021799	42782	109657	0	0	8150	647555	0	0
2024-06-23 20:03:32			0	35698	0	0	0	26075	24680	147116	27052	1021809	42792	109654	0	0	8152	645982	0	0
2024-06-23 20:04:32			0	35707	0	0	0	26080	24690	147004	27173	1021898	42781	109656	0	0	8152	645555	0	0
2024-06-23 20:05:32			0	35723	0	0	0	26072	24690	146864	27367	1021826	42793	109653	0	0	8153	644860	0	0
2024-06-23 20:06:32			0	35722	0	0	0	26080	24680	146868	27131	1021827	42791	109656	0	0	8153	644940	0	0
2024-06-23 20:07:32			0	35754	0	0	0	26075	24680	146744	27289	1021836	42792	109654	0	0	8155	643552	0	0
2024-06-23 20:08:32			0	35774	0	0	0	26077	24690	146784	27208	1021844	42781	109655	0	0	8156	642650	0	0
2024-06-23 20:09:32			0	35801	0	0	0	26080	24690	146752	27140	1021925	42803	109656	0	0	8157	641481	0	0
2024-06-23 20:10:32			0	35805	0	0	0	26067	24680	146724	27119	1021773	42780	109651	0	0	8158	641345	0	0
2024-06-23 20:11:32			0	35807	0	0	0	26075	24670	146608	26968	1021898	42791	109654	0	0	8158	641295	0	0
2024-06-23 20:12:32			0	35826	0	0	0	26075	24680	146540	27104	1021880	42780	109654	0	0	8159	640437	0	0
2024-06-23 20:13:32			0	35843	0	0	0	26072	24670	146400	27213	1021765	42791	109653	0	0	8160	639740	0	0
2024-06-23 20:14:32			0	35868	0	0	0	26072	24680	146393	27293	1021782	42792	109653	0	0	8161	638625	0	0
2024-06-23 20:15:32			0	35894	0	0	0	26072	24670	146281	27267	1021756	42791	109653	0	0	8162	637542	0	0
2024-06-23 20:16:32			0	35904	0	0	0	26080	24680	146225	27376	1021782	42792	109656	0	0	8163	637075	0	0
2024-06-23 20:17:32			0	35907	0	0	0	26067	24670	146185	27024	1021765	42780	109651	0	0	8163	636982	0	0
2024-06-23 20:18:32			0	35935	0	0	0	26064	24670	146145	27374	1021702	42780	109650	0	0	8165	635778	0	0
2024-06-23 20:19:32			0	35928	0	0	0	26059	24660	146193	26880	1021685	42779	109648	0	0	8164	636115	0	0
2024-06-23 20:20:32			0	35933	0	0	0	26062	24660	146205	27512	1021721	42780	109649	0	0	8165	635900	0	0
2024-06-23 20:21:32			0	35932	0	0	0	26057	24660	146097	27230	1021694	42780	109647	0	0	8165	635943	0	0
2024-06-23 20:22:32			0	35918	0	0	0	26054	24670	146197	27012	1021809	42791	109646	0	0	8164	636509	0	0
2024-06-23 20:23:32			0	35924	0	0	0	26051	24670	146165	27128	1021809	42801	109645	0	0	8164	636251	0	0
2024-06-23 20:24:32			0	35927	0	0	0	26049	24660	146185	27202	1021774	42791	109644	0	0	8165	636158	0	0
2024-06-23 20:25:32			0	35934	0	0	0	26044	24660	146093	27322	1021658	42800	109642	0	0	8165	635858	0	0
2024-06-23 20:26:32			0	35950	0	0	0	26049	24650	146169	27556	1021703	42790	109644	0	0	8166	635206	0	0
2024-06-23 20:27:32			0	35929	0	0	0	26054	24650	146061	27204	1021695	42789	109646	0	0	8165	636108	0	0
2024-06-23 20:28:32			0	35945	0	0	0	26054	24660	146125	27128	1021721	42791	109646	0	0	8165	635385	0	0
2024-06-23 20:29:32			0	35933	0	0	0	26051	24660	146121	27097	1021640	42780	109645	0	0	8165	635900	0	0
2024-06-23 20:30:32			0	35943	0	0	0	26072	24650	146149	26984	1021668	42778	109653	0	0	8165	635507	0	0
2024-06-23 20:31:32			0	35939	0	0	0	26049	24660	146093	27149	1021685	42800	109644	0	0	8165	635643	0	0
2024-06-23 20:32:32			0	35966	0	0	0	26057	24660	146085	27001	1021685	42779	109647	0	0	8167	634484	0	0
2024-06-23 20:33:32			0	35967	0	0	0	26054	24660	146173	27045	1021739	42779	109646	0	0	8167	634441	0	0
2024-06-23 20:34:32			0	35952	0	0	0	26062	24650	146113	27234	1021677	42779	109649	0	0	8166	635120	0	0
2024-06-23 20:35:32			0	35969	0	0	0	26054	24660	146085	27336	1021712	42790	109646	0	0	8167	634355	0	0
2024-06-23 20:36:32			0	35981	0	0	0	26059	24650	146097	26942	1021641	42789	109648	0	0	8167	633876	0	0
2024-06-23 20:37:32			0	35974	0	0	0	26051	24650	146061	27293	1021677	42812	109645	0	0	8167	634176	0	0
2024-06-23 20:38:32			0	35998	0	0	0	26041	24650	146033	27215	1021641	42766	109641	0	0	8168	633148	0	0
2024-06-23 20:39:32			0	35998	0	0	0	26038	24650	145909	27177	1021668	42789	109640	0	0	8168	633148	0	0
2024-06-23 20:40:32			0	36009	0	0	0	26038	24640	145937	27258	1021606	42778	109640	0	0	8169	632712	0	0
2024-06-23 20:41:32			0	35988	0	0	0	26033	24650	145817	27360	1021650	42800	109638	0	0	8168	633576	0	0
2024-06-23 20:42:32			0	35995	0	0	0	26028	24650	145977	27024	1021614	42778	109636	0	0	8169	633276	0	0
2024-06-23 20:43:32			0	36018	0	0	0	26033	24630	145793	27166	1021580	42765	109638	0	0	8170	632363	0	0
2024-06-23 20:44:32			0	36034	0	0	0	26025	24630	145861	27187	1021580	42797	109635	0	0	8171	631678	0	0
2024-06-23 20:45:32			0	36034	0	0	0	26020	24630	145817	27274	1021589	42776	109633	0	0	8171	631678	0	0
2024-06-23 20:46:32			0	36034	0	0	0	26010	24640	145805	27412	1021570	42798	109629	0	0	8171	631643	0	0
2024-06-23 20:47:32			0	36054	0	0	0	26020	24620	145809	27357	1021518	42776	109633	0	0	8172	630859	0	0
2024-06-23 20:48:32			0	36049	0	0	0	26020	24630	145737	27135	1021535	42787	109633	0	0	8171	631037	0	0
2024-06-23 20:49:32			0	36048	0	0	0	26012	24630	145749	27412	1021553	42787	109630	0	0	8171	631080	0	0
2024-06-23 20:50:32			0	36056	0	0	0	26015	24620	145733	27362	1021509	42786	109631	0	0	8172	630774	0	0
2024-06-23 20:51:32			0	36045	0	0	0	26012	24630	145709	27345	1021553	42787	109630	0	0	8171	631208	0	0
2024-06-23 20:52:32			0	36067	0	0	0	26010	24620	145713	27112	1021518	42776	109629	0	0	8172	630304	0	0
2024-06-23 20:53:32			0	36083	0	0	0	26005	24600	145705	27239	1021492	42785	109627	0	0	8173	629692	0	0
2024-06-23 20:54:32			0	36067	0	0	0	26015	24610	145621	27256	1021554	42785	109631	0	0	8172	630339	0	0
2024-06-23 20:55:32			0	36079	0	0	0	26015	24620	145613	27097	1021545	42797	109631	0	0	8173	629792	0	0
2024-06-23 20:56:32			0	36078	0	0	0	26005	24620	145645	27454	1021464	42797	109627	0	0	8173	629834	0	0
2024-06-23 20:57:32			0	36084	0	0	0	26002	24620	145593	27282	1021518	42787	109626	0	0	8174	629578	0	0
2024-06-23 20:58:32			0	36103	0	0	0	26012	24600	145501	27119	1021492	42774	109630	0	0	8174	628839	0	0
2024-06-23 20:59:32			0	36107	0	0	0	26012	24610	145617	27232	1021474	42785	109630	0	0	8175	628633	0	0
2024-06-23 21:00:32			0	36106	0	0	0	26007	24610	145529	27107	1021474	42774	109628	0	0	8175	628676	0	0
2024-06-23 21:01:32			0	36131	0	0	0	26002	24610	145453	27216	1021474	42785	109626	0	0	8176	627611	0	0
2024-06-23 21:02:32			0	36124	0	0	0	25997	24620	145389	27371	1021509	42786	109624	0	0	8176	627873	0	0
2024-06-23 21:03:32			0	36129	0	0	0	25997	24600	145309	27166	1021483	42795	109624	0	0	8176	627731	0	0
2024-06-23 21:04:32			0	36153	0	0	0	25997	24610	145353	27178	1021420	42785	109624	0	0	8177	626675	0	0
2024-06-23 21:05:32			0	36147	0	0	0	26002	24600	145289	27173	1021483	42773	109626	0	0	8177	626965	0	0
2024-06-23 21:06:32			0	36147	0	0	0	26005	24590	145297	26948	1021448	42784	109627	0	0	8177	627001	0	0
2024-06-23 21:07:32			0	36161	0	0	0	25992	24590	145317	27220	1021475	42773	109622	0	0	8178	626405	0	0
2024-06-23 21:08:32			0	36176	0	0	0	26002	24600	145261	27003	1021430	42773	109626	0	0	8178	625732	0	0
2024-06-23 21:09:32			0	36173	0	0	0	25992	24600	145269	27374	1021403	42795	109622	0	0	8178	625860	0	0
2024-06-23 21:10:32			0	36192	0	0	0	26002	24600	145169	27024	1021438	42785	109626	0	0	8179	625053	0	0
2024-06-23 21:11:32			0	36184	0	0	0	25999	24600	145161	27218	1021430	42773	109625	0	0	8179	625393	0	0
2024-06-23 21:12:32			0	36180	0	0	0	26005	24590	145153	27178	1021475	42795	109627	0	0	8178	625598	0	0
2024-06-23 21:13:32			0	36199	0	0	0	25999	24590	145265	27173	1021421	42784	109625	0	0	8180	624791	0	0
2024-06-23 21:14:32			0	36202	0	0	0	25999	24590	145201	27229	1021448	42773	109625	0	0	8180	624664	0	0
2024-06-23 21:15:32			0	36207	0	0	0	25999	24590	145097	27163	1021394	42795	109625	0	0	8180	624451	0	0
2024-06-23 21:16:32			0	36231	0	0	0	25999	24590	145085	27128	1021421	42784	109625	0	0	8181	623434	0	0
2024-06-23 21:17:32			0	36218	0	0	0	25984	24590	145129	27422	1021359	42783	109619	0	0	8181	623985	0	0
2024-06-23 21:18:32			0	36236	0	0	0	25992	24590	145161	27338	1021386	42794	109622	0	0	8182	623222	0	0
2024-06-23 21:19:32			0	36221	0	0	0	25992	24590	145129	27383	1021448	42762	109622	0	0	8181	623858	0	0
2024-06-23 21:20:32			0	36243	0	0	0	25992	24590	145153	27293	1021421	42784	109622	0	0	8182	622926	0	0
2024-06-23 21:21:32			0	36257	0	0	0	25981	24570	145065	27521	1021387	42782	109618	0	0	8183	622403	0	0
2024-06-23 21:22:32			0	36247	0	0	0	25984	24580	145041	27251	1021404	42783	109619	0	0	8182	622791	0	0
2024-06-23 21:23:32			0	36252	0	0	0	25989	24580	144997	27204	1021422	42782	109621	0	0	8182	622580	0	0
2024-06-23 21:24:32			0	36261	0	0	0	25979	24590	144945	27479	1021386	42772	109617	0	0	8183	622164	0	0
2024-06-23 21:25:32			0	36281	0	0	0	25981	24580	144957	27183	1021404	42783	109618	0	0	8184	621353	0	0
2024-06-23 21:26:32			0	36278	0	0	0	25981	24580	144845	27300	1021342	42782	109618	0	0	8184	621480	0	0
2024-06-23 21:27:32			0	36286	0	0	0	25981	24570	144877	27313	1021333	42771	109618	0	0	8184	621177	0	0
2024-06-23 21:28:32			0	36286	0	0	0	25966	24580	144849	27265	1021350	42783	109612	0	0	8185	621141	0	0
2024-06-23 21:29:32			0	36308	0	0	0	25963	24570	144869	27260	1021325	42759	109611	0	0	8186	620247	0	0
2024-06-23 21:30:32			0	36301	0	0	0	25958	24570	144861	27261	1021306	42793	109609	0	0	8186	620543	0	0
2024-06-23 21:31:32			0	36294	0	0	0	25963	24570	144829	27388	1021306	42771	109611	0	0	8185	620838	0	0
2024-06-23 21:32:32			0	36294	0	0	0	25950	24570	144741	26909	1021280	42771	109606	0	0	8185	620838	0	0
2024-06-23 21:33:32			0	36301	0	0	0	25945	24570	144709	27223	1021298	42782	109604	0	0	8186	620543	0	0
2024-06-23 21:34:32			0	36324	0	0	0	25940	24560	144657	27277	1021209	42781	109602	0	0	8187	619607	0	0
2024-06-23 21:35:32			0	36333	0	0	0	25932	24560	144533	27261	1021174	42781	109599	0	0	8188	619227	0	0
2024-06-23 21:36:32			0	36341	0	0	0	25935	24560	144709	27149	1021209	42781	109600	0	0	8188	618890	0	0
2024-06-23 21:37:32			0	36330	0	0	0	25932	24550	144641	27336	1021165	42781	109599	0	0	8187	619389	0	0
2024-06-23 21:38:32			0	36324	0	0	0	25924	24540	144597	27298	1021165	42767	109596	0	0	8187	619677	0	0
2024-06-23 21:39:32			0	36322	0	0	0	25927	24540	144617	27341	1021165	42779	109597	0	0	8187	619761	0	0
2024-06-23 21:40:32			0	36331	0	0	0	25929	24540	144641	27421	1021174	42790	109598	0	0	8187	619382	0	0
2024-06-23 21:41:32			0	36328	0	0	0	25924	24540	144613	27379	1021201	42767	109596	0	0	8187	619508	0	0
2024-06-23 21:42:32			0	36346	0	0	0	25932	24550	144557	27064	1021209	42780	109599	0	0	8188	618714	0	0
2024-06-23 21:43:32			0	36335	0	0	0	25929	24530	144545	27052	1021121	42766	109598	0	0	8188	619248	0	0
2024-06-23 21:44:32			0	36342	0	0	0	25927	24540	144601	27635	1021112	42779	109597	0	0	8188	618918	0	0
2024-06-23 21:45:32			0	36344	0	0	0	25924	24540	144577	27163	1021112	42779	109596	0	0	8188	618833	0	0
2024-06-23 21:46:32			0	36362	0	0	0	25922	24530	144561	27202	1021184	42779	109595	0	0	8189	618110	0	0
2024-06-23 21:47:32			0	36361	0	0	0	25922	24530	144597	27265	1021068	42789	109595	0	0	8189	618152	0	0
2024-06-23 21:48:32			0	36352	0	0	0	25916	24530	144589	27457	1021121	42778	109593	0	0	8189	618531	0	0
2024-06-23 21:49:32			0	36344	0	0	0	25919	24530	144449	27213	1021095	42766	109594	0	0	8188	618868	0	0
2024-06-23 21:50:32			0	36364	0	0	0	25919	24530	144481	27043	1021121	42766	109594	0	0	8189	618025	0	0
2024-06-23 21:51:32			0	36353	0	0	0	25909	24520	144433	27267	1021077	42766	109590	0	0	8189	618524	0	0
2024-06-23 21:52:32			0	36366	0	0	0	25909	24520	144513	26963	1021077	42788	109590	0	0	8190	617976	0	0
2024-06-23 21:53:32			0	36342	0	0	0	25914	24520	144533	27303	1021024	42777	109592	0	0	8188	618988	0	0
2024-06-23 21:54:32			0	36364	0	0	0	25906	24520	144565	27244	1021086	42766	109589	0	0	8190	618060	0	0
2024-06-23 21:55:32			0	36361	0	0	0	25914	24520	144473	27215	1021033	42777	109592	0	0	8189	618187	0	0
2024-06-23 21:56:32			0	36373	0	0	0	25909	24510	144485	27171	1021069	42787	109590	0	0	8190	617716	0	0
2024-06-23 21:57:32			0	36371	0	0	0	25911	24520	144497	27284	1021158	42777	109591	0	0	8190	617766	0	0
2024-06-23 21:58:32			0	36366	0	0	0	25906	24520	144433	27147	1021051	42777	109589	0	0	8190	617976	0	0
2024-06-23 21:59:32			0	36371	0	0	0	25914	24510	144437	27286	1021069	42787	109592	0	0	8190	617801	0	0
2024-06-23 22:00:32			0	36360	0	0	0	25909	24500	144441	27384	1020998	42786	109590	0	0	8189	618299	0	0
2024-06-23 22:01:32			0	36362	0	0	0	25903	24520	144517	27100	1021104	42777	109588	0	0	8189	618145	0	0
2024-06-23 22:02:32			0	36371	0	0	0	25909	24510	144545	27242	1021069	42776	109590	0	0	8190	617801	0	0
2024-06-23 22:03:32			0	36391	0	0	0	25909	24520	144409	27256	1021077	42777	109590	0	0	8191	616924	0	0
2024-06-23 22:04:32			0	36384	0	0	0	25911	24510	144425	27093	1021060	42787	109591	0	0	8190	617253	0	0
2024-06-23 22:05:32			0	36391	0	0	0	25906	24500	144457	27180	1021025	42786	109589	0	0	8191	616994	0	0
2024-06-23 22:06:32			0	36398	0	0	0	25898	24500	144369	27189	1021016	42774	109586	0	0	8191	616699	0	0
2024-06-23 22:07:32			0	36392	0	0	0	25901	24500	144381	27319	1020998	42775	109587	0	0	8191	616952	0	0
2024-06-23 22:08:32			0	36384	0	0	0	25903	24500	144425	27196	1021016	42774	109588	0	0	8191	617288	0	0
2024-06-23 22:09:32			0	36410	0	0	0	25893	24500	144293	27604	1021016	42774	109584	0	0	8192	616194	0	0
2024-06-23 22:10:32			0	36391	0	0	0	25901	24500	144341	27562	1020945	42797	109587	0	0	8191	616994	0	0
2024-06-23 22:11:32			0	36389	0	0	0	25893	24500	144369	27421	1021025	42775	109584	0	0	8191	617078	0	0
2024-06-23 22:12:32			0	36379	0	0	0	25890	24500	144329	27199	1020998	42775	109583	0	0	8190	617498	0	0
2024-06-23 22:13:32			0	36381	0	0	0	25883	24490	144337	27331	1020927	42785	109580	0	0	8191	617449	0	0
2024-06-23 22:14:32			0	36376	0	0	0	25880	24490	144321	27457	1020972	42785	109579	0	0	8190	617660	0	0
2024-06-23 22:15:32			0	36397	0	0	0	25883	24490	144389	27345	1020954	42774	109580	0	0	8191	616776	0	0
2024-06-23 22:16:32			0	36398	0	0	0	25885	24490	144401	27227	1020954	42774	109581	0	0	8192	616734	0	0
2024-06-23 22:17:32			0	36387	0	0	0	25880	24490	144405	27476	1020972	42774	109579	0	0	8191	617197	0	0
2024-06-23 22:18:32			0	36398	0	0	0	25888	24480	144513	27178	1020964	42773	109582	0	0	8191	616769	0	0
2024-06-23 22:19:32			0	36396	0	0	0	25885	24500	144317	27447	1020963	42763	109581	0	0	8191	616783	0	0
2024-06-23 22:20:32			0	36395	0	0	0	25872	24490	144385	27246	1020972	42763	109576	0	0	8192	616860	0	0
2024-06-23 22:21:32			0	36390	0	0	0	25880	24480	144465	27315	1020910	42762	109579	0	0	8191	617105	0	0
2024-06-23 22:22:32			0	36393	0	0	0	25877	24490	144313	27258	1020865	42774	109578	0	0	8191	616944	0	0
2024-06-23 22:23:32			0	36398	0	0	0	25880	24480	144393	27116	1020883	42785	109579	0	0	8192	616769	0	0
2024-06-23 22:24:32			0	36397	0	0	0	25875	24490	144337	27145	1020892	42774	109577	0	0	8192	616776	0	0
2024-06-23 22:25:32			0	36402	0	0	0	25885	24490	144365	27253	1020972	42774	109581	0	0	8192	616566	0	0
2024-06-23 22:26:32			0	36398	0	0	0	25875	24490	144289	27142	1020972	42774	109577	0	0	8192	616734	0	0
2024-06-23 22:27:32			0	36380	0	0	0	25877	24480	144397	27412	1020910	42785	109578	0	0	8191	617526	0	0
2024-06-23 22:28:32			0	36404	0	0	0	25875	24480	144433	27164	1020928	42794	109577	0	0	8192	616516	0	0
2024-06-23 22:29:32			0	36399	0	0	0	25872	24480	144477	27300	1020910	42773	109576	0	0	8192	616727	0	0
2024-06-23 22:30:32			0	36371	0	0	0	25864	24470	144541	27294	1020911	42772	109573	0	0	8190	617940	0	0
2024-06-23 22:31:32			0	36408	0	0	0	25875	24470	144497	27343	1020858	42784	109577	0	0	8192	616383	0	0
2024-06-23 22:32:32			0	36397	0	0	0	25872	24460	144465	27116	1020902	42771	109576	0	0	8192	616881	0	0
2024-06-23 22:33:32			0	36395	0	0	0	25875	24480	144429	27338	1020910	42762	109577	0	0	8191	616895	0	0
2024-06-23 22:34:32			0	36399	0	0	0	25867	24460	144429	27303	1020814	42770	109574	0	0	8192	616796	0	0
2024-06-23 22:35:32			0	36375	0	0	0	25872	24470	144473	27424	1020858	42784	109576	0	0	8190	617772	0	0
2024-06-23 22:36:32			0	36382	0	0	0	25854	24460	144489	27190	1020822	42783	109569	0	0	8191	617512	0	0
2024-06-23 22:37:32			0	36385	0	0	0	25859	24460	144445	27116	1020822	42783	109571	0	0	8191	617386	0	0
2024-06-23 22:38:32			0	36390	0	0	0	25851	24460	144489	27275	1020769	42783	109568	0	0	8192	617175	0	0
2024-06-23 22:39:32			0	36372	0	0	0	25862	24470	144513	27211	1020866	42784	109572	0	0	8190	617898	0	0
2024-06-23 22:40:32			0	36375	0	0	0	25857	24470	144481	27055	1020866	42772	109570	0	0	8191	617772	0	0
2024-06-23 22:41:32			0	36379	0	0	0	25862	24460	144597	27043	1020814	42770	109572	0	0	8191	617638	0	0
2024-06-23 22:42:32			0	36361	0	0	0	25859	24460	144561	27067	1020894	42770	109571	0	0	8190	618396	0	0
2024-06-23 22:43:32			0	36371	0	0	0	25854	24460	144589	27192	1020876	42771	109569	0	0	8190	617975	0	0
2024-06-23 22:44:32			0	36382	0	0	0	25854	24460	144525	27199	1020814	42782	109569	0	0	8191	617512	0	0
2024-06-23 22:45:32			0	36378	0	0	0	25854	24460	144521	27057	1020822	42771	109569	0	0	8191	617680	0	0
2024-06-23 22:46:32			0	36369	0	0	0	25849	24450	144485	27222	1020805	42770	109567	0	0	8190	618094	0	0
2024-06-23 22:47:32			0	36348	0	0	0	25854	24450	144617	27275	1020805	42770	109569	0	0	8189	618980	0	0
2024-06-23 22:48:32			0	36352	0	0	0	25846	24460	144621	27260	1020814	42759	109566	0	0	8190	618776	0	0
2024-06-23 22:49:32			0	36359	0	0	0	25849	24450	144637	27053	1020850	42770	109567	0	0	8190	618516	0	0
2024-06-23 22:50:32			0	36360	0	0	0	25846	24450	144645	26845	1020805	42770	109566	0	0	8190	618474	0	0
2024-06-23 22:51:32			0	36344	0	0	0	25846	24460	144681	27293	1020840	42770	109566	0	0	8189	619113	0	0
2024-06-23 22:52:32			0	36350	0	0	0	25849	24450	144741	27280	1020796	42770	109567	0	0	8189	618895	0	0
2024-06-23 22:53:32			0	36345	0	0	0	25849	24450	144617	27083	1020832	42770	109567	0	0	8189	619106	0	0
2024-06-23 22:54:32			0	36332	0	0	0	25849	24450	144765	27338	1020805	42782	109567	0	0	8188	619655	0	0
2024-06-23 22:55:32			0	36340	0	0	0	25836	24450	144761	27239	1020743	42782	109562	0	0	8189	619317	0	0
2024-06-23 22:56:32			0	36327	0	0	0	25846	24450	144729	27599	1020796	42759	109566	0	0	8188	619866	0	0
2024-06-23 22:57:32			0	36321	0	0	0	25841	24450	144701	27339	1020778	42759	109564	0	0	8188	620119	0	0
2024-06-23 22:58:32			0	36332	0	0	0	25841	24450	144737	27301	1020796	42770	109564	0	0	8189	619655	0	0
2024-06-23 22:59:32			0	36313	0	0	0	25851	24440	144801	26958	1020761	42770	109568	0	0	8187	620492	0	0
2024-06-23 23:00:32			0	36303	0	0	0	25844	24440	144929	27209	1020734	42770	109565	0	0	8187	620914	0	0
2024-06-23 23:01:32			0	36314	0	0	0	25844	24440	144801	27504	1020726	42769	109565	0	0	8188	620450	0	0
2024-06-23 23:02:32			0	36303	0	0	0	25844	24450	144781	27222	1020796	42782	109565	0	0	8187	620879	0	0
2024-06-23 23:03:32			0	36309	0	0	0	25849	24440	144869	27249	1020761	42770	109567	0	0	8187	620661	0	0
2024-06-23 23:04:32			0	36303	0	0	0	25838	24440	144909	27454	1020761	42770	109563	0	0	8187	620914	0	0
2024-06-23 23:05:32			0	36311	0	0	0	25841	24440	145037	27331	1020734	42770	109564	0	0	8187	620576	0	0
2024-06-23 23:06:32			0	36306	0	0	0	25844	24450	144905	27374	1020743	42782	109565	0	0	8187	620753	0	0
2024-06-23 23:07:32			0	36291	0	0	0	25838	24440	144893	27254	1020752	42769	109563	0	0	8186	621422	0	0
2024-06-23 23:08:32			0	36282	0	0	0	25844	24450	145021	27202	1020770	42759	109565	0	0	8186	621767	0	0
2024-06-23 23:09:32			0	36283	0	0	0	25846	24450	144941	27175	1020751	42782	109566	0	0	8186	621725	0	0
2024-06-23 23:10:32			0	36260	0	0	0	25841	24440	145013	27528	1020761	42781	109564	0	0	8185	622734	0	0
2024-06-23 23:11:32			0	36273	0	0	0	25833	24440	144921	27216	1020752	42769	109561	0	0	8186	622184	0	0
2024-06-23 23:12:32			0	36274	0	0	0	25823	24440	144973	27289	1020726	42769	109557	0	0	8186	622141	0	0
2024-06-23 23:13:32			0	36248	0	0	0	25841	24440	144917	27374	1020752	42769	109564	0	0	8184	623242	0	0
2024-06-23 23:14:32			0	36266	0	0	0	25836	24440	145029	27241	1020761	42770	109562	0	0	8185	622480	0	0
2024-06-23 23:15:32			0	36253	0	0	0	25831	24430	144997	27176	1020690	42768	109560	0	0	8185	623066	0	0
2024-06-23 23:16:32			0	36261	0	0	0	25844	24440	144953	27083	1020672	42769	109565	0	0	8185	622691	0	0
2024-06-23 23:17:32			0	36262	0	0	0	25836	24430	144957	27057	1020690	42768	109562	0	0	8185	622684	0	0
2024-06-23 23:18:32			0	36248	0	0	0	25831	24440	145061	27157	1020761	42770	109560	0	0	8184	623242	0	0
2024-06-23 23:19:32			0	36262	0	0	0	25833	24430	145137	27048	1020655	42768	109561	0	0	8185	622684	0	0
2024-06-23 23:20:32			0	36240	0	0	0	25828	24430	145077	27053	1020717	42756	109559	0	0	8184	623616	0	0
2024-06-23 23:21:32			0	36222	0	0	0	25831	24430	145137	27265	1020690	42768	109560	0	0	8183	624380	0	0
2024-06-23 23:22:32			0	36245	0	0	0	25825	24430	145021	27060	1020735	42768	109558	0	0	8184	623405	0	0
2024-06-23 23:23:32			0	36239	0	0	0	25825	24430	145025	27322	1020717	42768	109558	0	0	8184	623659	0	0
2024-06-23 23:24:32			0	36218	0	0	0	25825	24430	144941	27232	1020708	42779	109558	0	0	8183	624550	0	0
2024-06-23 23:25:32			0	36254	0	0	0	25825	24440	145113	27253	1020752	42769	109558	0	0	8185	622988	0	0
2024-06-23 23:26:32			0	36220	0	0	0	25825	24430	145053	27055	1020717	42768	109558	0	0	8183	624465	0	0
2024-06-23 23:27:32			0	36205	0	0	0	25828	24430	145193	26963	1020690	42779	109559	0	0	8182	625102	0	0
2024-06-23 23:28:32			0	36208	0	0	0	25820	24440	145177	27052	1020699	42769	109556	0	0	8182	624939	0	0
2024-06-23 23:29:32			0	36205	0	0	0	25825	24440	145185	26899	1020752	42780	109558	0	0	8182	625066	0	0
2024-06-23 23:30:32			0	36201	0	0	0	25823	24430	145113	26826	1020655	42768	109557	0	0	8182	625272	0	0
2024-06-23 23:31:32			0	36210	0	0	0	25825	24430	145129	26951	1020655	42779	109558	0	0	8182	624889	0	0
2024-06-23 23:32:32			0	36207	0	0	0	25818	24420	145213	27064	1020699	42768	109555	0	0	8182	625052	0	0
2024-06-23 23:33:32			0	36202	0	0	0	25828	24430	145237	27095	1020655	42768	109559	0	0	8182	625229	0	0
2024-06-23 23:34:32			0	36200	0	0	0	25812	24430	145229	27119	1020655	42768	109553	0	0	8182	625314	0	0
2024-06-23 23:35:32			0	36212	0	0	0	25818	24420	145193	26941	1020673	42768	109555	0	0	8183	624840	0	0
2024-06-23 23:36:32			0	36212	0	0	0	25820	24420	145201	27010	1020619	42768	109556	0	0	8182	624840	0	0
2024-06-23 23:37:32			0	36199	0	0	0	25810	24420	145137	27254	1020673	42768	109552	0	0	8182	625392	0	0
2024-06-23 23:38:32			0	36198	0	0	0	25810	24420	145125	27237	1020646	42779	109552	0	0	8182	625434	0	0
2024-06-23 23:39:32			0	36189	0	0	0	25820	24420	145089	27301	1020646	42768	109556	0	0	8181	625817	0	0
2024-06-23 23:40:32			0	36205	0	0	0	25818	24420	145193	26896	1020718	42789	109555	0	0	8182	625137	0	0
2024-06-23 23:41:32			0	36196	0	0	0	25815	24420	145217	27000	1020691	42767	109554	0	0	8182	625519	0	0
2024-06-23 23:42:32			0	36182	0	0	0	25828	24430	145281	27580	1020655	42790	109559	0	0	8181	626079	0	0
2024-06-23 23:43:32			0	36191	0	0	0	25828	24420	145201	27414	1020646	42790	109559	0	0	8181	625732	0	0
2024-06-23 23:44:32			0	36200	0	0	0	25818	24420	145261	27135	1020637	42778	109555	0	0	8182	625349	0	0
2024-06-23 23:45:32			0	36194	0	0	0	25815	24420	145321	27142	1020611	42767	109554	0	0	8182	625604	0	0
2024-06-23 23:46:32			0	36178	0	0	0	25812	24420	145281	27185	1020673	42779	109553	0	0	8181	626284	0	0
2024-06-23 23:47:32			0	36181	0	0	0	25810	24420	145265	27256	1020637	42755	109552	0	0	8181	626157	0	0
2024-06-23 23:48:32			0	36169	0	0	0	25805	24420	145273	27428	1020637	42767	109550	0	0	8180	626667	0	0
2024-06-23 23:49:32			0	36171	0	0	0	25815	24420	145197	27242	1020619	42779	109554	0	0	8180	626582	0	0
2024-06-23 23:50:32			0	36187	0	0	0	25818	24420	145385	27088	1020673	42768	109555	0	0	8181	625902	0	0
2024-06-23 23:51:32			0	36174	0	0	0	25812	24410	145301	27222	1020655	42777	109553	0	0	8181	626490	0	0
2024-06-23 23:52:32			0	36172	0	0	0	25815	24410	145357	27157	1020682	42777	109554	0	0	8180	626575	0	0
2024-06-23 23:53:32			0	36174	0	0	0	25807	24420	145429	27381	1020611	42778	109551	0	0	8181	626455	0	0
2024-06-23 23:54:32			0	36178	0	0	0	25815	24420	145469	27173	1020637	42778	109554	0	0	8181	626284	0	0
2024-06-23 23:55:32			0	36166	0	0	0	25812	24410	145421	27268	1020655	42766	109553	0	0	8180	626830	0	0
2024-06-23 23:56:32			0	36171	0	0	0	25818	24420	145413	26899	1020664	42767	109555	0	0	8180	626582	0	0
2024-06-23 23:57:32			0	36152	0	0	0	25810	24420	145497	27590	1020637	42778	109552	0	0	8179	627391	0	0
2024-06-23 23:58:32			0	36159	0	0	0	25812	24420	145453	27176	1020619	42768	109553	0	0	8180	627093	0	0
2024-06-23 23:59:32			0	36155	0	0	0	25815	24410	145601	27296	1020682	42777	109554	0	0	8180	627298	0	0
2024-06-24 00:00:32			0	36161	0	0	0	25812	24420	145401	27144	1020637	42778	109553	0	0	8180	627008	0	0
2024-06-24 00:01:32			0	36168	0	0	0	25815	24420	145489	27209	1020637	42778	109554	0	0	8180	626710	0	0
2024-06-24 00:02:32			0	36165	0	0	0	25810	24410	145381	27350	1020655	42754	109552	0	0	8180	626873	0	0
2024-06-24 00:03:32			0	36163	0	0	0	25823	24420	145449	27152	1020637	42767	109557	0	0	8180	626923	0	0
2024-06-24 00:04:32			0	36154	0	0	0	25818	24420	145445	27086	1020664	42767	109555	0	0	8179	627306	0	0
2024-06-24 00:05:32			0	36161	0	0	0	25815	24410	145405	27419	1020655	42766	109554	0	0	8180	627043	0	0
2024-06-24 00:06:32			0	36142	0	0	0	25815	24420	145381	27327	1020691	42767	109554	0	0	8179	627817	0	0
2024-06-24 00:07:32			0	36144	0	0	0	25810	24420	145533	27048	1020673	42779	109552	0	0	8179	627731	0	0
2024-06-24 00:08:32			0	36164	0	0	0	25810	24420	145445	27185	1020699	42768	109552	0	0	8180	626880	0	0
2024-06-24 00:09:32			0	36148	0	0	0	25812	24420	145441	27341	1020673	42768	109553	0	0	8179	627561	0	0
2024-06-24 00:10:32			0	36160	0	0	0	25812	24410	145501	27206	1020602	42777	109553	0	0	8180	627086	0	0
2024-06-24 00:11:32			0	36156	0	0	0	25812	24420	145469	27036	1020619	42768	109553	0	0	8180	627220	0	0
2024-06-24 00:12:32			0	36162	0	0	0	25807	24420	145433	27514	1020699	42768	109551	0	0	8180	626965	0	0
2024-06-24 00:13:32			0	36172	0	0	0	25815	24410	145477	27190	1020655	42766	109554	0	0	8180	626575	0	0
2024-06-24 00:14:32			0	36168	0	0	0	25812	24420	145477	27514	1020691	42767	109553	0	0	8180	626710	0	0
2024-06-24 00:15:32			0	36175	0	0	0	25810	24410	145457	27313	1020629	42777	109552	0	0	8181	626447	0	0
2024-06-24 00:16:32			0	36150	0	0	0	25805	24420	145453	27595	1020557	42778	109550	0	0	8179	627476	0	0
2024-06-24 00:17:32			0	36159	0	0	0	25794	24410	145425	27436	1020629	42777	109546	0	0	8180	627128	0	0
2024-06-24 00:18:32			0	36160	0	0	0	25799	24410	145421	27459	1020593	42766	109548	0	0	8180	627086	0	0
2024-06-24 00:19:32			0	36153	0	0	0	25794	24410	145437	27459	1020602	42766	109546	0	0	8180	627384	0	0
2024-06-24 00:20:32			0	36165	0	0	0	25797	24400	145457	27192	1020656	42776	109547	0	0	8180	626908	0	0
2024-06-24 00:21:32			0	36155	0	0	0	25792	24410	145525	26960	1020540	42766	109545	0	0	8180	627298	0	0
2024-06-24 00:22:32			0	36154	0	0	0	25799	24410	145497	27315	1020647	42777	109548	0	0	8180	627341	0	0
2024-06-24 00:23:32			0	36157	0	0	0	25789	24410	145453	27123	1020629	42766	109544	0	0	8180	627213	0	0
2024-06-24 00:24:32			0	36158	0	0	0	25802	24400	145485	27386	1020638	42754	109549	0	0	8180	627206	0	0
2024-06-24 00:25:32			0	36164	0	0	0	25794	24410	145437	27452	1020540	42766	109546	0	0	8180	626915	0	0
2024-06-24 00:26:32			0	36172	0	0	0	25784	24410	145397	27007	1020540	42754	109542	0	0	8181	626575	0	0
2024-06-24 00:27:32			0	36167	0	0	0	25794	24400	145393	26981	1020523	42776	109546	0	0	8180	626823	0	0
2024-06-24 00:28:32			0	36159	0	0	0	25781	24390	145361	27206	1020487	42775	109541	0	0	8180	627199	0	0
2024-06-24 00:29:32			0	36171	0	0	0	25786	24390	145389	27055	1020567	42764	109543	0	0	8181	626688	0	0
2024-06-24 00:30:32			0	36179	0	0	0	25786	24400	145349	26911	1020576	42765	109543	0	0	8181	626313	0	0
2024-06-24 00:31:32			0	36162	0	0	0	25779	24400	145377	27001	1020496	42776	109540	0	0	8180	627036	0	0
2024-06-24 00:32:32			0	36176	0	0	0	25784	24380	145389	27199	1020568	42763	109542	0	0	8181	626511	0	0
2024-06-24 00:33:32			0	36193	0	0	0	25786	24380	145373	26897	1020523	42764	109543	0	0	8182	625788	0	0
2024-06-24 00:34:32			0	36180	0	0	0	25784	24400	145441	27060	1020549	42765	109542	0	0	8181	626270	0	0
2024-06-24 00:35:32			0	36172	0	0	0	25786	24400	145393	27322	1020603	42765	109543	0	0	8181	626610	0	0
2024-06-24 00:36:32			0	36170	0	0	0	25786	24390	145485	27313	1020514	42775	109543	0	0	8181	626731	0	0
2024-06-24 00:37:32			0	36190	0	0	0	25792	24390	145453	27429	1020541	42764	109545	0	0	8182	625880	0	0
2024-06-24 00:38:32			0	36164	0	0	0	25786	24390	145325	27358	1020514	42764	109543	0	0	8180	626986	0	0
2024-06-24 00:39:32			0	36173	0	0	0	25784	24400	145305	27150	1020496	42776	109542	0	0	8181	626568	0	0
2024-06-24 00:40:32			0	36207	0	0	0	25776	24390	145333	27336	1020559	42753	109539	0	0	8183	625158	0	0
2024-06-24 00:41:32			0	36193	0	0	0	25781	24390	145285	27402	1020594	42764	109541	0	0	8182	625753	0	0
2024-06-24 00:42:32			0	36182	0	0	0	25781	24390	145337	27027	1020567	42753	109541	0	0	8181	626221	0	0
2024-06-24 00:43:32			0	36200	0	0	0	25789	24390	145265	27177	1020541	42775	109544	0	0	8182	625455	0	0
2024-06-24 00:44:32			0	36181	0	0	0	25779	24380	145273	27254	1020515	42774	109540	0	0	8181	626298	0	0
2024-06-24 00:45:32			0	36196	0	0	0	25779	24390	145241	27428	1020487	42764	109540	0	0	8182	625625	0	0
2024-06-24 00:46:32			0	36188	0	0	0	25781	24390	145237	27105	1020514	42764	109541	0	0	8182	625965	0	0
2024-06-24 00:47:32			0	36198	0	0	0	25776	24380	145181	27299	1020523	42764	109539	0	0	8182	625576	0	0
2024-06-24 00:48:32			0	36191	0	0	0	25779	24380	145261	27393	1020542	42763	109540	0	0	8182	625873	0	0
2024-06-24 00:49:32			0	36203	0	0	0	25768	24390	145245	27256	1020586	42753	109536	0	0	8183	625328	0	0
2024-06-24 00:50:32			0	36204	0	0	0	25781	24380	145253	27270	1020488	42763	109541	0	0	8183	625321	0	0
2024-06-24 00:51:32			0	36216	0	0	0	25776	24370	145209	27260	1020533	42762	109539	0	0	8183	624846	0	0
2024-06-24 00:52:32			0	36221	0	0	0	25774	24390	145209	26958	1020559	42764	109538	0	0	8184	624564	0	0
2024-06-24 00:53:32			0	36205	0	0	0	25774	24390	145189	26984	1020505	42764	109538	0	0	8183	625243	0	0
2024-06-24 00:54:32			0	36219	0	0	0	25768	24380	145153	27015	1020515	42774	109536	0	0	8184	624684	0	0
2024-06-24 00:55:32			0	36218	0	0	0	25768	24380	145109	27192	1020435	42763	109536	0	0	8184	624726	0	0
2024-06-24 00:56:32			0	36234	0	0	0	25761	24370	145105	27180	1020480	42762	109533	0	0	8184	624082	0	0
2024-06-24 00:57:32			0	36224	0	0	0	25761	24370	145169	27164	1020417	42761	109533	0	0	8184	624507	0	0
2024-06-24 00:58:32			0	36211	0	0	0	25761	24370	145145	26894	1020426	42751	109533	0	0	8183	625059	0	0
2024-06-24 00:59:32			0	36221	0	0	0	25750	24370	145133	27131	1020399	42751	109529	0	0	8184	624634	0	0
2024-06-24 01:00:32			0	36235	0	0	0	25755	24360	145081	27203	1020373	42773	109531	0	0	8185	624075	0	0
2024-06-24 01:01:32			0	36237	0	0	0	25750	24350	145065	27258	1020392	42760	109529	0	0	8185	624026	0	0
2024-06-24 01:02:32			0	36249	0	0	0	25748	24360	145101	27232	1020382	42773	109528	0	0	8185	623482	0	0
2024-06-24 01:03:32			0	36231	0	0	0	25748	24360	145093	27008	1020400	42761	109528	0	0	8184	624245	0	0
2024-06-24 01:04:32			0	36252	0	0	0	25745	24360	144997	26928	1020382	42761	109527	0	0	8186	623355	0	0
2024-06-24 01:05:32			0	36238	0	0	0	25748	24350	145021	27140	1020365	42772	109528	0	0	8185	623983	0	0
2024-06-24 01:06:32			0	36236	0	0	0	25745	24360	145017	27391	1020400	42773	109527	0	0	8185	624033	0	0
2024-06-24 01:07:32			0	36250	0	0	0	25748	24350	145009	27178	1020365	42760	109528	0	0	8185	623474	0	0
2024-06-24 01:08:32			0	36270	0	0	0	25753	24350	145037	27242	1020365	42760	109530	0	0	8186	622627	0	0
2024-06-24 01:09:32			0	36264	0	0	0	25753	24350	145013	27038	1020392	42750	109530	0	0	8186	622881	0	0
2024-06-24 01:10:32			0	36263	0	0	0	25755	24360	145013	26967	1020373	42761	109531	0	0	8186	622888	0	0
2024-06-24 01:11:32			0	36278	0	0	0	25742	24350	145061	27229	1020418	42783	109526	0	0	8187	622288	0	0
2024-06-24 01:12:32			0	36299	0	0	0	25753	24360	145009	27116	1020373	42773	109530	0	0	8188	621364	0	0
2024-06-24 01:13:32			0	36272	0	0	0	25740	24350	145005	27154	1020356	42771	109525	0	0	8187	622542	0	0
2024-06-24 01:14:32			0	36285	0	0	0	25745	24350	144929	27360	1020356	42782	109527	0	0	8187	621992	0	0
2024-06-24 01:15:32			0	36276	0	0	0	25742	24350	144969	27256	1020418	42772	109526	0	0	8187	622373	0	0
2024-06-24 01:16:32			0	36289	0	0	0	25745	24350	144877	27312	1020410	42759	109527	0	0	8188	621823	0	0
2024-06-24 01:17:32			0	36295	0	0	0	25735	24350	144893	27320	1020338	42772	109523	0	0	8188	621569	0	0
2024-06-24 01:18:32			0	36287	0	0	0	25750	24350	144881	26955	1020445	42760	109529	0	0	8187	621907	0	0
2024-06-24 01:19:32			0	36297	0	0	0	25742	24350	144777	27324	1020356	42759	109526	0	0	8188	621484	0	0
2024-06-24 01:20:32			0	36287	0	0	0	25740	24360	144825	27069	1020373	42773	109525	0	0	8188	621872	0	0
2024-06-24 01:21:32			0	36303	0	0	0	25750	24350	144817	27156	1020365	42760	109529	0	0	8188	621230	0	0
2024-06-24 01:22:32			0	36306	0	0	0	25742	24340	144761	27019	1020374	42759	109526	0	0	8188	621139	0	0
2024-06-24 01:23:32			0	36306	0	0	0	25745	24350	144817	27085	1020356	42771	109527	0	0	8188	621104	0	0
2024-06-24 01:24:32			0	36321	0	0	0	25753	24350	144753	27248	1020392	42772	109530	0	0	8189	620469	0	0
2024-06-24 01:25:32			0	36297	0	0	0	25750	24350	144789	27157	1020356	42759	109529	0	0	8188	621484	0	0
2024-06-24 01:26:32			0	36314	0	0	0	25753	24350	144809	27118	1020356	42771	109530	0	0	8189	620765	0	0
2024-06-24 01:27:32			0	36316	0	0	0	25758	24350	144853	27116	1020410	42782	109532	0	0	8189	620681	0	0
2024-06-24 01:28:32			0	36338	0	0	0	25758	24360	144785	27168	1020427	42761	109532	0	0	8190	619716	0	0
2024-06-24 01:29:32			0	36321	0	0	0	25750	24350	144773	27312	1020365	42760	109529	0	0	8189	620469	0	0
2024-06-24 01:30:32			0	36325	0	0	0	25753	24360	144669	27274	1020382	42773	109530	0	0	8189	620265	0	0
2024-06-24 01:31:32			0	36331	0	0	0	25745	24350	144717	27346	1020418	42750	109527	0	0	8190	620047	0	0
2024-06-24 01:32:32			0	36330	0	0	0	25758	24350	144753	27343	1020356	42771	109532	0	0	8189	620089	0	0
2024-06-24 01:33:32			0	36345	0	0	0	25755	24350	144709	27530	1020383	42759	109531	0	0	8190	619456	0	0
2024-06-24 01:34:32			0	36333	0	0	0	25750	24360	144785	27346	1020373	42761	109529	0	0	8190	619928	0	0
2024-06-24 01:35:32			0	36345	0	0	0	25750	24350	144693	27069	1020392	42760	109529	0	0	8190	619456	0	0
2024-06-24 01:36:32			0	36344	0	0	0	25750	24360	144741	27338	1020400	42773	109529	0	0	8190	619463	0	0
2024-06-24 01:37:32			0	36346	0	0	0	25761	24350	144721	27112	1020356	42771	109533	0	0	8190	619414	0	0
2024-06-24 01:38:32			0	36345	0	0	0	25758	24350	144673	27222	1020303	42771	109532	0	0	8190	619456	0	0
2024-06-24 01:39:32			0	36357	0	0	0	25755	24350	144645	27149	1020410	42771	109531	0	0	8191	618950	0	0
2024-06-24 01:40:32			0	36361	0	0	0	25745	24350	144653	27512	1020383	42771	109527	0	0	8191	618781	0	0
2024-06-24 01:41:32			0	36352	0	0	0	25740	24350	144621	27405	1020356	42771	109525	0	0	8191	619161	0	0
2024-06-24 01:42:32			0	36368	0	0	0	25748	24350	144585	27421	1020410	42782	109528	0	0	8192	618486	0	0
2024-06-24 01:43:32			0	36349	0	0	0	25755	24350	144549	26956	1020383	42759	109531	0	0	8191	619287	0	0
2024-06-24 01:44:32			0	36380	0	0	0	25748	24340	144553	27225	1020428	42771	109528	0	0	8192	618015	0	0
2024-06-24 01:45:32			0	36378	0	0	0	25740	24350	144521	27225	1020356	42759	109525	0	0	8192	618064	0	0
2024-06-24 01:46:32			0	36368	0	0	0	25745	24350	144549	27291	1020392	42772	109527	0	0	8192	618486	0	0
2024-06-24 01:47:32			0	36384	0	0	0	25750	24350	144521	27036	1020410	42771	109529	0	0	8192	617812	0	0
2024-06-24 01:48:32			0	36369	0	0	0	25745	24350	144565	27253	1020303	42771	109527	0	0	8192	618444	0	0
2024-06-24 01:49:32			0	36386	0	0	0	25753	24360	144505	27171	1020373	42750	109530	0	0	8193	617692	0	0
2024-06-24 01:50:32			0	36375	0	0	0	25745	24360	144589	27067	1020400	42761	109527	0	0	8192	618156	0	0
2024-06-24 01:51:32			0	36393	0	0	0	25750	24350	144553	27320	1020338	42760	109529	0	0	8193	617432	0	0
2024-06-24 01:52:32			0	36387	0	0	0	25745	24340	144533	27517	1020348	42771	109527	0	0	8193	617720	0	0
2024-06-24 01:53:32			0	36394	0	0	0	25737	24360	144517	27322	1020400	42761	109524	0	0	8193	617356	0	0
2024-06-24 01:54:32			0	36392	0	0	0	25742	24350	144489	27287	1020330	42771	109526	0	0	8193	617475	0	0
2024-06-24 01:55:32			0	36409	0	0	0	25737	24340	144473	27462	1020321	42749	109524	0	0	8194	616794	0	0
2024-06-24 01:56:32			0	36403	0	0	0	25742	24340	144513	27170	1020339	42759	109526	0	0	8194	617046	0	0
2024-06-24 01:57:32			0	36415	0	0	0	25735	24350	144397	27291	1020330	42749	109523	0	0	8194	616507	0	0
2024-06-24 01:58:32			0	36413	0	0	0	25742	24340	144477	27319	1020348	42771	109526	0	0	8194	616626	0	0
2024-06-24 01:59:32			0	36409	0	0	0	25742	24350	144509	27145	1020356	42771	109526	0	0	8194	616759	0	0
2024-06-24 02:00:32			0	36437	0	0	0	25735	24340	144465	27130	1020348	42771	109523	0	0	8195	615616	0	0
2024-06-24 02:01:32			0	36403	0	0	0	25740	24350	144409	27580	1020410	42771	109525	0	0	8194	617012	0	0
2024-06-24 02:02:32			0	36425	0	0	0	25735	24340	144413	27029	1020366	42759	109523	0	0	8195	616121	0	0
2024-06-24 02:03:32			0	36443	0	0	0	25737	24340	144461	27308	1020366	42771	109524	0	0	8196	615364	0	0
2024-06-24 02:04:32			0	36421	0	0	0	25732	24350	144417	27137	1020330	42759	109522	0	0	8195	616254	0	0
2024-06-24 02:05:32			0	36441	0	0	0	25729	24340	144389	27230	1020339	42759	109521	0	0	8196	615448	0	0
2024-06-24 02:06:32			0	36414	0	0	0	25737	24330	144341	27393	1020384	42758	109524	0	0	8194	616618	0	0
2024-06-24 02:07:32			0	36430	0	0	0	25727	24350	144381	27284	1020365	42772	109520	0	0	8195	615876	0	0
2024-06-24 02:08:32			0	36440	0	0	0	25737	24340	144373	27137	1020312	42771	109524	0	0	8196	615490	0	0
2024-06-24 02:09:32			0	36446	0	0	0	25745	24340	144369	27211	1020366	42759	109527	0	0	8196	615238	0	0
2024-06-24 02:10:32			0	36436	0	0	0	25740	24340	144329	27448	1020366	42771	109525	0	0	8195	615658	0	0
2024-06-24 02:11:32			0	36440	0	0	0	25735	24340	144365	27410	1020286	42771	109523	0	0	8196	615490	0	0
2024-06-24 02:12:32			0	36430	0	0	0	25735	24340	144349	27360	1020321	42771	109523	0	0	8195	615911	0	0
2024-06-24 02:13:32			0	36455	0	0	0	25732	24330	144361	26979	1020357	42770	109522	0	0	8196	614895	0	0
2024-06-24 02:14:32			0	36439	0	0	0	25729	24340	144309	27180	1020339	42759	109521	0	0	8196	615532	0	0
2024-06-24 02:15:32			0	36443	0	0	0	25737	24330	144333	27275	1020304	42758	109524	0	0	8196	615399	0	0
2024-06-24 02:16:32			0	36456	0	0	0	25737	24340	144273	27677	1020321	42759	109524	0	0	8196	614818	0	0
2024-06-24 02:17:32			0	36449	0	0	0	25727	24330	144413	27164	1020304	42758	109520	0	0	8196	615147	0	0
2024-06-24 02:18:32			0	36462	0	0	0	25727	24330	144333	27244	1020277	42770	109520	0	0	8197	614601	0	0
2024-06-24 02:19:32			0	36449	0	0	0	25729	24340	144333	27332	1020286	42771	109521	0	0	8196	615112	0	0
2024-06-24 02:20:32			0	36456	0	0	0	25724	24330	144345	27428	1020357	42781	109519	0	0	8197	614853	0	0
2024-06-24 02:21:32			0	36459	0	0	0	25729	24330	144389	27022	1020357	42770	109521	0	0	8197	614727	0	0
2024-06-24 02:22:32			0	36458	0	0	0	25727	24340	144305	27270	1020286	42759	109520	0	0	8197	614734	0	0
2024-06-24 02:23:32			0	36465	0	0	0	25727	24340	144301	27215	1020312	42771	109520	0	0	8197	614441	0	0
2024-06-24 02:24:32			0	36468	0	0	0	25722	24340	144361	27364	1020339	42771	109518	0	0	8197	614315	0	0
2024-06-24 02:25:32			0	36455	0	0	0	25729	24330	144333	27241	1020268	42747	109521	0	0	8196	614895	0	0
2024-06-24 02:26:32			0	36466	0	0	0	25729	24330	144253	27334	1020295	42769	109521	0	0	8197	614433	0	0
2024-06-24 02:27:32			0	36469	0	0	0	25724	24330	144245	27417	1020295	42757	109519	0	0	8197	614307	0	0
2024-06-24 02:28:32			0	36463	0	0	0	25722	24320	144381	27460	1020260	42757	109518	0	0	8197	614594	0	0
2024-06-24 02:29:32			0	36459	0	0	0	25714	24330	144349	27182	1020295	42757	109515	0	0	8197	614727	0	0
2024-06-24 02:30:32			0	36465	0	0	0	25711	24330	144237	27197	1020268	42757	109514	0	0	8197	614475	0	0
2024-06-24 02:31:32			0	36480	0	0	0	25716	24320	144285	27402	1020233	42757	109516	0	0	8198	613881	0	0
2024-06-24 02:32:32			0	36477	0	0	0	25716	24330	144201	27053	1020295	42780	109516	0	0	8198	613972	0	0
2024-06-24 02:33:32			0	36464	0	0	0	25724	24330	144281	27057	1020242	42757	109519	0	0	8197	614517	0	0
2024-06-24 02:34:32			0	36458	0	0	0	25711	24320	144289	27104	1020206	42757	109514	0	0	8197	614804	0	0
2024-06-24 02:35:32			0	36467	0	0	0	25719	24320	144245	27067	1020233	42780	109517	0	0	8197	614426	0	0
2024-06-24 02:36:32			0	36477	0	0	0	25716	24320	144345	27197	1020286	42769	109516	0	0	8198	614006	0	0
2024-06-24 02:37:32			0	36467	0	0	0	25714	24320	144345	27334	1020198	42769	109515	0	0	8197	614426	0	0
2024-06-24 02:38:32			0	36493	0	0	0	25709	24320	144241	27098	1020260	42769	109513	0	0	8199	613336	0	0
2024-06-24 02:39:32			0	36465	0	0	0	25722	24320	144301	27445	1020286	42769	109518	0	0	8197	614510	0	0
2024-06-24 02:40:32			0	36485	0	0	0	25716	24330	144205	27229	1020250	42770	109516	0	0	8198	613636	0	0
2024-06-24 02:41:32			0	36483	0	0	0	25714	24320	144421	27039	1020260	42747	109515	0	0	8198	613755	0	0
2024-06-24 02:42:32			0	36467	0	0	0	25719	24320	144281	27364	1020251	42757	109517	0	0	8197	614426	0	0
2024-06-24 02:43:32			0	36467	0	0	0	25719	24320	144301	27209	1020260	42757	109517	0	0	8197	614426	0	0
2024-06-24 02:44:32			0	36477	0	0	0	25711	24320	144261	27251	1020305	42769	109514	0	0	8198	614006	0	0
2024-06-24 02:45:32			0	36469	0	0	0	25716	24320	144361	27504	1020233	42757	109516	0	0	8197	614342	0	0
2024-06-24 02:46:32			0	36487	0	0	0	25709	24310	144173	27201	1020216	42768	109513	0	0	8198	613622	0	0
2024-06-24 02:47:32			0	36473	0	0	0	25706	24320	144233	27182	1020224	42780	109512	0	0	8198	614174	0	0
2024-06-24 02:48:32			0	36477	0	0	0	25703	24320	144257	27152	1020224	42757	109511	0	0	8198	614006	0	0
2024-06-24 02:49:32			0	36475	0	0	0	25716	24300	144241	27293	1020207	42756	109516	0	0	8198	614160	0	0
2024-06-24 02:50:32			0	36473	0	0	0	25701	24290	144185	27083	1020216	42766	109510	0	0	8198	614278	0	0
2024-06-24 02:51:32			0	36472	0	0	0	25696	24310	144181	27307	1020216	42768	109508	0	0	8198	614251	0	0
2024-06-24 02:52:32			0	36480	0	0	0	25688	24310	144193	27126	1020189	42768	109505	0	0	8198	613915	0	0
2024-06-24 02:53:32			0	36488	0	0	0	25690	24300	144217	27027	1020118	42766	109506	0	0	8199	613615	0	0
2024-06-24 02:54:32			0	36476	0	0	0	25683	24310	144237	27322	1020216	42768	109503	0	0	8198	614083	0	0
2024-06-24 02:55:32			0	36475	0	0	0	25680	24300	144225	27355	1020145	42755	109502	0	0	8198	614160	0	0
2024-06-24 02:56:32			0	36469	0	0	0	25688	24290	144245	27124	1020162	42766	109505	0	0	8198	614446	0	0
2024-06-24 02:57:32			0	36471	0	0	0	25690	24300	144301	27100	1020180	42767	109506	0	0	8198	614328	0	0
2024-06-24 02:58:32			0	36491	0	0	0	25696	24300	144209	27062	1020180	42756	109508	0	0	8199	613489	0	0
2024-06-24 02:59:32			0	36469	0	0	0	25688	24300	144205	27086	1020145	42755	109505	0	0	8198	614411	0	0
2024-06-24 03:00:32			0	36473	0	0	0	25680	24290	144265	27362	1020216	42755	109502	0	0	8198	614278	0	0
2024-06-24 03:01:32			0	36465	0	0	0	25688	24290	144221	26873	1020109	42755	109505	0	0	8198	614614	0	0
2024-06-24 03:02:32			0	36459	0	0	0	25696	24290	144229	27090	1020189	42766	109508	0	0	8197	614866	0	0
2024-06-24 03:03:32			0	36474	0	0	0	25698	24290	144181	26876	1020162	42777	109509	0	0	8198	614237	0	0
2024-06-24 03:04:32			0	36466	0	0	0	25693	24290	144209	27182	1020127	42755	109507	0	0	8197	614572	0	0
2024-06-24 03:05:32			0	36478	0	0	0	25696	24290	144121	27326	1020109	42755	109508	0	0	8198	614069	0	0
2024-06-24 03:06:32			0	36481	0	0	0	25693	24290	144213	27324	1020181	42766	109507	0	0	8198	613943	0	0
2024-06-24 03:07:32			0	36468	0	0	0	25688	24310	144237	27322	1020189	42768	109505	0	0	8198	614419	0	0
2024-06-24 03:08:32			0	36479	0	0	0	25696	24300	144153	27171	1020145	42744	109508	0	0	8198	613992	0	0
2024-06-24 03:09:32			0	36457	0	0	0	25690	24290	144289	27327	1020216	42777	109506	0	0	8197	614950	0	0
2024-06-24 03:10:32			0	36466	0	0	0	25688	24290	144301	27076	1020154	42766	109505	0	0	8198	614572	0	0
2024-06-24 03:11:32			0	36452	0	0	0	25701	24290	144365	27190	1020154	42755	109510	0	0	8197	615160	0	0
2024-06-24 03:12:32			0	36442	0	0	0	25693	24290	144329	27150	1020154	42766	109507	0	0	8196	615580	0	0
2024-06-24 03:13:32			0	36457	0	0	0	25683	24290	144357	27034	1020109	42766	109503	0	0	8197	614950	0	0
2024-06-24 03:14:32			0	36460	0	0	0	25690	24280	144253	27263	1020065	42765	109506	0	0	8197	614859	0	0
2024-06-24 03:15:32			0	36457	0	0	0	25688	24280	144337	26987	1020145	42754	109505	0	0	8197	614985	0	0
2024-06-24 03:16:32			0	36449	0	0	0	25685	24300	144229	27003	1020171	42755	109504	0	0	8197	615251	0	0
2024-06-24 03:17:32			0	36439	0	0	0	25696	24290	144245	27177	1020154	42777	109508	0	0	8196	615706	0	0
2024-06-24 03:18:32			0	36456	0	0	0	25685	24290	144341	27182	1020127	42766	109504	0	0	8197	614992	0	0
2024-06-24 03:19:32			0	36429	0	0	0	25701	24290	144341	27019	1020207	42766	109510	0	0	8195	616127	0	0
2024-06-24 03:20:32			0	36439	0	0	0	25698	24290	144301	26899	1020100	42777	109509	0	0	8196	615706	0	0
2024-06-24 03:21:32			0	36443	0	0	0	25693	24290	144389	27126	1020127	42777	109507	0	0	8196	615538	0	0
2024-06-24 03:22:32			0	36447	0	0	0	25693	24280	144397	27377	1020092	42754	109507	0	0	8196	615405	0	0
2024-06-24 03:23:32			0	36439	0	0	0	25693	24290	144409	27142	1020136	42755	109507	0	0	8196	615706	0	0
2024-06-24 03:24:32			0	36438	0	0	0	25696	24300	144357	27338	1020118	42755	109508	0	0	8196	615714	0	0
2024-06-24 03:25:32			0	36433	0	0	0	25683	24290	144341	27433	1020127	42755	109503	0	0	8196	615959	0	0
2024-06-24 03:26:32			0	36420	0	0	0	25685	24300	144353	27180	1020118	42766	109504	0	0	8195	616470	0	0
2024-06-24 03:27:32			0	36439	0	0	0	25693	24280	144361	27284	1020065	42765	109507	0	0	8196	615741	0	0
2024-06-24 03:28:32			0	36434	0	0	0	25677	24290	144357	27249	1020181	42777	109501	0	0	8196	615917	0	0
2024-06-24 03:29:32			0	36427	0	0	0	25690	24280	144341	27293	1020092	42754	109506	0	0	8195	616246	0	0
2024-06-24 03:30:32			0	36445	0	0	0	25685	24280	144361	27173	1020092	42765	109504	0	0	8196	615489	0	0
2024-06-24 03:31:32			0	36425	0	0	0	25683	24280	144357	27263	1020092	42754	109503	0	0	8195	616330	0	0
2024-06-24 03:32:32			0	36431	0	0	0	25677	24270	144445	27119	1020093	42743	109501	0	0	8196	616112	0	0
2024-06-24 03:33:32			0	36418	0	0	0	25680	24290	144469	27197	1020100	42766	109502	0	0	8195	616589	0	0
2024-06-24 03:34:32			0	36430	0	0	0	25677	24280	144473	27317	1020092	42776	109501	0	0	8196	616119	0	0
2024-06-24 03:35:32			0	36408	0	0	0	25672	24260	144357	27206	1020084	42763	109499	0	0	8195	617115	0	0
2024-06-24 03:36:32			0	36420	0	0	0	25675	24260	144449	27059	1020057	42752	109500	0	0	8195	616610	0	0
2024-06-24 03:37:32			0	36416	0	0	0	25664	24260	144393	27447	1020004	42752	109496	0	0	8195	616778	0	0
2024-06-24 03:38:32			0	36437	0	0	0	25667	24270	144417	27313	1019986	42753	109497	0	0	8196	615860	0	0
2024-06-24 03:39:32			0	36419	0	0	0	25664	24270	144457	27161	1020066	42775	109496	0	0	8195	616617	0	0
2024-06-24 03:40:32			0	36435	0	0	0	25662	24260	144401	27588	1020031	42763	109495	0	0	8196	615979	0	0
2024-06-24 03:41:32			0	36414	0	0	0	25672	24270	144369	27152	1020021	42753	109499	0	0	8195	616827	0	0
2024-06-24 03:42:32			0	36424	0	0	0	25662	24260	144409	27286	1020022	42751	109495	0	0	8196	616441	0	0
2024-06-24 03:43:32			0	36423	0	0	0	25662	24270	144497	27268	1020075	42764	109495	0	0	8196	616449	0	0
2024-06-24 03:44:32			0	36435	0	0	0	25664	24250	144469	27235	1019960	42762	109496	0	0	8196	616014	0	0
2024-06-24 03:45:32			0	36426	0	0	0	25667	24260	144385	27377	1019995	42762	109497	0	0	8196	616357	0	0
2024-06-24 03:46:32			0	36423	0	0	0	25667	24260	144433	27348	1019995	42751	109497	0	0	8196	616483	0	0
2024-06-24 03:47:32			0	36422	0	0	0	25672	24270	144489	27190	1020039	42764	109499	0	0	8195	616491	0	0
2024-06-24 03:48:32			0	36421	0	0	0	25670	24260	144457	27194	1020022	42774	109498	0	0	8195	616568	0	0
2024-06-24 03:49:32			0	36422	0	0	0	25659	24260	144513	27343	1020022	42762	109494	0	0	8196	616525	0	0
2024-06-24 03:50:32			0	36413	0	0	0	25667	24260	144381	27289	1019968	42751	109497	0	0	8195	616904	0	0
2024-06-24 03:51:32			0	36412	0	0	0	25664	24250	144469	27201	1020013	42741	109496	0	0	8195	616981	0	0
2024-06-24 03:52:32			0	36420	0	0	0	25662	24250	144505	27109	1019987	42751	109495	0	0	8195	616645	0	0
2024-06-24 03:53:32			0	36418	0	0	0	25667	24260	144409	27481	1019995	42762	109497	0	0	8195	616694	0	0
2024-06-24 03:54:32			0	36424	0	0	0	25659	24250	144445	27081	1019987	42762	109494	0	0	8196	616476	0	0
2024-06-24 03:55:32			0	36430	0	0	0	25654	24260	144433	27440	1020022	42751	109492	0	0	8196	616189	0	0
2024-06-24 03:56:32			0	36426	0	0	0	25654	24260	144409	27227	1019995	42762	109492	0	0	8196	616357	0	0
2024-06-24 03:57:32			0	36428	0	0	0	25659	24250	144377	27310	1020005	42751	109494	0	0	8196	616308	0	0
2024-06-24 03:58:32			0	36427	0	0	0	25657	24250	144441	27244	1019978	42751	109493	0	0	8196	616350	0	0
2024-06-24 03:59:32			0	36418	0	0	0	25651	24250	144441	27377	1019987	42762	109491	0	0	8195	616729	0	0
2024-06-24 04:00:32			0	36411	0	0	0	25659	24250	144525	27027	1020005	42762	109494	0	0	8195	617023	0	0
2024-06-24 04:01:32			0	36418	0	0	0	25654	24250	144453	27386	1020013	42751	109492	0	0	8195	616729	0	0
2024-06-24 04:02:32			0	36417	0	0	0	25654	24250	144401	27222	1019987	42751	109492	0	0	8195	616771	0	0
2024-06-24 04:03:32			0	36412	0	0	0	25649	24250	144437	27124	1019951	42762	109490	0	0	8195	616981	0	0
2024-06-24 04:04:32			0	36440	0	0	0	25649	24250	144421	27310	1019951	42751	109490	0	0	8197	615803	0	0
2024-06-24 04:05:32			0	36431	0	0	0	25654	24240	144341	27003	1019934	42760	109492	0	0	8196	616217	0	0
2024-06-24 04:06:32			0	36434	0	0	0	25654	24240	144433	27159	1019907	42760	109492	0	0	8196	616090	0	0
2024-06-24 04:07:32			0	36436	0	0	0	25646	24240	144409	27209	1019943	42773	109489	0	0	8196	616006	0	0
2024-06-24 04:08:32			0	36428	0	0	0	25649	24240	144445	27211	1019889	42761	109490	0	0	8196	616343	0	0
2024-06-24 04:09:32			0	36423	0	0	0	25649	24240	144397	27213	1019961	42760	109490	0	0	8196	616553	0	0
2024-06-24 04:10:32			0	36438	0	0	0	25659	24250	144365	26908	1020067	42741	109494	0	0	8196	615887	0	0
2024-06-24 04:11:32			0	36424	0	0	0	25654	24240	144361	27081	1019969	42750	109492	0	0	8196	616511	0	0
2024-06-24 04:12:32			0	36417	0	0	0	25659	24240	144405	27208	1019969	42740	109494	0	0	8195	616806	0	0
2024-06-24 04:13:32			0	36435	0	0	0	25662	24240	144425	27097	1020014	42750	109495	0	0	8196	616048	0	0
2024-06-24 04:14:32			0	36429	0	0	0	25659	24240	144289	27244	1019943	42761	109494	0	0	8196	616301	0	0
2024-06-24 04:15:32			0	36434	0	0	0	25654	24240	144393	27121	1019943	42750	109492	0	0	8196	616090	0	0
2024-06-24 04:16:32			0	36427	0	0	0	25651	24240	144445	27464	1019996	42761	109491	0	0	8196	616385	0	0
2024-06-24 04:17:32			0	36436	0	0	0	25662	24240	144341	27334	1019996	42773	109495	0	0	8196	616006	0	0
2024-06-24 04:18:32			0	36433	0	0	0	25651	24230	144337	27516	1019925	42750	109491	0	0	8196	616167	0	0
2024-06-24 04:19:32			0	36430	0	0	0	25651	24240	144385	27265	1019961	42760	109491	0	0	8196	616259	0	0
2024-06-24 04:20:32			0	36437	0	0	0	25641	24240	144473	27414	1019854	42760	109487	0	0	8197	615964	0	0
2024-06-24 04:21:32			0	36458	0	0	0	25646	24230	144401	27289	1019925	42750	109489	0	0	8198	615116	0	0
2024-06-24 04:22:32			0	36430	0	0	0	25638	24240	144389	27267	1019943	42773	109486	0	0	8196	616259	0	0
2024-06-24 04:23:32			0	36442	0	0	0	25638	24230	144341	27402	1019979	42750	109486	0	0	8197	615789	0	0
2024-06-24 04:24:32			0	36448	0	0	0	25638	24240	144373	27173	1019889	42761	109486	0	0	8197	615502	0	0
2024-06-24 04:25:32			0	36442	0	0	0	25644	24230	144413	27253	1019890	42759	109488	0	0	8197	615789	0	0
2024-06-24 04:26:32			0	36442	0	0	0	25638	24230	144277	27010	1019899	42760	109486	0	0	8197	615789	0	0
2024-06-24 04:27:32			0	36433	0	0	0	25638	24230	144449	27388	1019917	42759	109486	0	0	8196	616167	0	0
2024-06-24 04:28:32			0	36453	0	0	0	25636	24230	144265	27358	1019925	42760	109485	0	0	8197	615327	0	0
2024-06-24 04:29:32			0	36435	0	0	0	25638	24220	144361	27388	1019881	42759	109486	0	0	8196	616118	0	0
2024-06-24 04:30:32			0	36460	0	0	0	25638	24220	144309	27176	1019855	42759	109486	0	0	8198	615067	0	0
2024-06-24 04:31:32			0	36448	0	0	0	25641	24230	144393	27218	1019899	42760	109487	0	0	8197	615537	0	0
2024-06-24 04:32:32			0	36448	0	0	0	25644	24230	144373	27229	1019890	42771	109488	0	0	8197	615537	0	0
2024-06-24 04:33:32			0	36462	0	0	0	25638	24230	144369	27218	1019890	42749	109486	0	0	8198	614948	0	0
2024-06-24 04:34:32			0	36438	0	0	0	25638	24220	144361	27296	1019881	42759	109486	0	0	8197	615992	0	0
2024-06-24 04:35:32			0	36452	0	0	0	25641	24230	144353	27197	1019917	42759	109487	0	0	8197	615369	0	0
2024-06-24 04:36:32			0	36444	0	0	0	25633	24220	144321	27279	1019855	42771	109484	0	0	8197	615739	0	0
2024-06-24 04:37:32			0	36453	0	0	0	25646	24230	144397	27163	1019925	42750	109489	0	0	8197	615327	0	0
2024-06-24 04:38:32			0	36450	0	0	0	25646	24240	144393	27185	1019907	42760	109489	0	0	8197	615418	0	0
2024-06-24 04:39:32			0	36455	0	0	0	25644	24230	144301	27171	1019925	42760	109488	0	0	8197	615242	0	0
2024-06-24 04:40:32			0	36448	0	0	0	25646	24230	144385	27441	1019890	42749	109489	0	0	8197	615537	0	0
2024-06-24 04:41:32			0	36452	0	0	0	25636	24230	144265	27362	1019837	42749	109485	0	0	8197	615369	0	0
2024-06-24 04:42:32			0	36479	0	0	0	25631	24230	144309	26972	1019925	42772	109483	0	0	8199	614235	0	0
2024-06-24 04:43:32			0	36452	0	0	0	25633	24220	144345	27355	1019873	42759	109484	0	0	8197	615403	0	0
2024-06-24 04:44:32			0	36455	0	0	0	25625	24230	144257	27338	1019917	42738	109481	0	0	8198	615242	0	0
2024-06-24 04:45:32			0	36468	0	0	0	25625	24220	144321	27369	1019828	42759	109481	0	0	8198	614731	0	0
2024-06-24 04:46:32			0	36455	0	0	0	25633	24220	144281	27178	1019846	42737	109484	0	0	8198	615277	0	0
2024-06-24 04:47:32			0	36480	0	0	0	25623	24210	144297	27235	1019784	42747	109480	0	0	8199	614262	0	0
2024-06-24 04:48:32			0	36471	0	0	0	25615	24220	144321	27109	1019766	42759	109477	0	0	8199	614605	0	0
2024-06-24 04:49:32			0	36464	0	0	0	25620	24210	144301	27013	1019749	42758	109479	0	0	8198	614934	0	0
2024-06-24 04:50:32			0	36467	0	0	0	25618	24210	144305	26948	1019802	42747	109478	0	0	8198	614808	0	0
2024-06-24 04:51:32			0	36453	0	0	0	25620	24210	144365	27319	1019757	42747	109479	0	0	8198	615396	0	0
2024-06-24 04:52:32			0	36468	0	0	0	25615	24210	144333	27074	1019856	42758	109477	0	0	8199	614766	0	0
2024-06-24 04:53:32			0	36479	0	0	0	25620	24210	144349	27258	1019784	42747	109479	0	0	8199	614304	0	0
2024-06-24 04:54:32			0	36454	0	0	0	25610	24200	144325	27183	1019785	42746	109475	0	0	8198	615389	0	0
2024-06-24 04:55:32			0	36473	0	0	0	25615	24220	144301	27270	1019819	42748	109477	0	0	8199	614521	0	0
2024-06-24 04:56:32			0	36466	0	0	0	25620	24210	144201	27398	1019757	42758	109479	0	0	8198	614850	0	0
2024-06-24 04:57:32			0	36481	0	0	0	25612	24210	144301	27300	1019775	42747	109476	0	0	8199	614220	0	0
2024-06-24 04:58:32			0	36474	0	0	0	25610	24210	144265	27305	1019802	42758	109475	0	0	8199	614514	0	0
2024-06-24 04:59:32			0	36470	0	0	0	25615	24210	144313	27533	1019864	42758	109477	0	0	8199	614682	0	0
2024-06-24 05:00:32			0	36489	0	0	0	25612	24200	144321	27092	1019767	42747	109476	0	0	8200	613919	0	0
2024-06-24 05:01:32			0	36476	0	0	0	25620	24200	144313	27218	1019793	42758	109479	0	0	8199	614465	0	0
2024-06-24 05:02:32			0	36484	0	0	0	25623	24210	144301	27476	1019775	42769	109480	0	0	8199	614094	0	0
2024-06-24 05:03:32			0	36494	0	0	0	25625	24210	144249	26882	1019811	42758	109481	0	0	8200	613675	0	0
2024-06-24 05:04:32			0	36471	0	0	0	25625	24210	144317	27261	1019802	42747	109481	0	0	8199	614640	0	0
2024-06-24 05:05:32			0	36479	0	0	0	25618	24210	144349	26982	1019802	42758	109478	0	0	8199	614304	0	0
2024-06-24 05:06:32			0	36477	0	0	0	25620	24220	144309	27218	1019846	42759	109479	0	0	8199	614353	0	0
2024-06-24 05:07:32			0	36478	0	0	0	25625	24220	144249	27097	1019846	42770	109481	0	0	8199	614311	0	0
2024-06-24 05:08:32			0	36460	0	0	0	25628	24210	144273	27350	1019864	42747	109482	0	0	8198	615102	0	0
2024-06-24 05:09:32			0	36479	0	0	0	25623	24210	144329	27275	1019811	42758	109480	0	0	8199	614304	0	0
2024-06-24 05:10:32			0	36469	0	0	0	25625	24210	144273	26932	1019811	42758	109481	0	0	8198	614724	0	0
2024-06-24 05:11:32			0	36479	0	0	0	25620	24210	144277	27251	1019829	42769	109479	0	0	8199	614304	0	0
2024-06-24 05:12:32			0	36451	0	0	0	25618	24210	144289	27256	1019837	42769	109478	0	0	8198	615480	0	0
2024-06-24 05:13:32			0	36484	0	0	0	25623	24210	144221	27156	1019864	42769	109480	0	0	8199	614094	0	0
2024-06-24 05:14:32			0	36481	0	0	0	25612	24210	144197	27121	1019829	42758	109476	0	0	8199	614220	0	0
2024-06-24 05:15:32			0	36477	0	0	0	25636	24210	144257	27291	1019882	42769	109485	0	0	8199	614388	0	0
2024-06-24 05:16:32			0	36461	0	0	0	25641	24220	144285	26970	1019873	42770	109487	0	0	8198	615025	0	0
2024-06-24 05:17:32			0	36476	0	0	0	25631	24220	144301	27140	1019881	42759	109483	0	0	8199	614395	0	0
2024-06-24 05:18:32			0	36462	0	0	0	25625	24220	144325	27123	1019855	42759	109481	0	0	8198	614983	0	0
2024-06-24 05:19:32			0	36481	0	0	0	25641	24210	144345	27163	1019856	42758	109487	0	0	8199	614220	0	0
2024-06-24 05:20:32			0	36465	0	0	0	25631	24210	144269	27137	1019918	42747	109483	0	0	8198	614892	0	0
2024-06-24 05:21:32			0	36474	0	0	0	25625	24220	144381	27159	1019846	42759	109481	0	0	8199	614479	0	0
2024-06-24 05:22:32			0	36472	0	0	0	25633	24220	144277	27246	1019873	42770	109484	0	0	8199	614563	0	0
2024-06-24 05:23:32			0	36460	0	0	0	25638	24230	144289	27319	1019944	42771	109486	0	0	8198	615032	0	0
2024-06-24 05:24:32			0	36460	0	0	0	25638	24220	144337	27410	1019873	42748	109486	0	0	8198	615067	0	0
2024-06-24 05:25:32			0	36479	0	0	0	25628	24220	144309	27197	1019881	42759	109482	0	0	8199	614269	0	0
2024-06-24 05:26:32			0	36460	0	0	0	25631	24220	144417	27377	1019855	42771	109483	0	0	8198	615067	0	0
2024-06-24 05:27:32			0	36472	0	0	0	25641	24230	144369	27294	1019917	42759	109487	0	0	8198	614529	0	0
2024-06-24 05:28:32			0	36451	0	0	0	25633	24230	144361	27275	1019863	42759	109484	0	0	8197	615410	0	0
2024-06-24 05:29:32			0	36462	0	0	0	25628	24220	144365	26915	1019846	42770	109482	0	0	8198	614983	0	0
2024-06-24 05:30:32			0	36472	0	0	0	25631	24220	144357	27225	1019900	42759	109483	0	0	8199	614563	0	0
2024-06-24 05:31:32			0	36461	0	0	0	25641	24220	144433	27092	1019935	42771	109487	0	0	8198	615025	0	0
2024-06-24 05:32:32			0	36473	0	0	0	25633	24220	144425	27372	1019900	42770	109484	0	0	8199	614521	0	0
2024-06-24 05:33:32			0	36467	0	0	0	25636	24220	144409	27253	1019935	42771	109485	0	0	8198	614773	0	0
2024-06-24 05:34:32			0	36458	0	0	0	25633	24210	144353	27085	1019864	42758	109484	0	0	8198	615186	0	0
2024-06-24 05:35:32			0	36482	0	0	0	25633	24230	144393	27345	1019872	42750	109484	0	0	8199	614109	0	0
2024-06-24 05:36:32			0	36461	0	0	0	25636	24220	144401	27255	1019935	42759	109485	0	0	8198	615025	0	0
2024-06-24 05:37:32			0	36467	0	0	0	25631	24220	144317	27081	1019953	42748	109483	0	0	8198	614773	0	0
2024-06-24 05:38:32			0	36438	0	0	0	25636	24230	144305	27107	1019890	42771	109485	0	0	8197	615957	0	0
2024-06-24 05:39:32			0	36466	0	0	0	25636	24230	144325	27241	1019970	42759	109485	0	0	8198	614780	0	0
2024-06-24 05:40:32			0	36464	0	0	0	25636	24220	144345	27310	1019926	42770	109485	0	0	8198	614899	0	0
2024-06-24 05:41:32			0	36450	0	0	0	25633	24220	144309	26993	1019855	42759	109484	0	0	8197	615487	0	0
2024-06-24 05:42:32			0	36468	0	0	0	25631	24210	144337	27180	1019864	42736	109483	0	0	8198	614766	0	0
2024-06-24 05:43:32			0	36477	0	0	0	25633	24220	144325	27159	1019819	42759	109484	0	0	8199	614353	0	0
2024-06-24 05:44:32			0	36474	0	0	0	25628	24230	144301	27369	1019944	42771	109482	0	0	8199	614445	0	0
2024-06-24 05:45:32			0	36468	0	0	0	25625	24220	144353	27140	1019881	42759	109481	0	0	8198	614731	0	0
2024-06-24 05:46:32			0	36470	0	0	0	25636	24220	144245	26948	1019935	42771	109485	0	0	8198	614647	0	0
2024-06-24 05:47:32			0	36464	0	0	0	25628	24220	144305	26694	1019900	42748	109482	0	0	8198	614899	0	0
2024-06-24 05:48:32			0	36484	0	0	0	25638	24220	144285	26802	1019908	42738	109486	0	0	8199	614059	0	0
2024-06-24 05:49:32			0	36483	0	0	0	25638	24220	144289	27057	1019900	42759	109486	0	0	8199	614102	0	0
2024-06-24 05:50:32			0	36470	0	0	0	25644	24220	144281	26837	1019846	42748	109488	0	0	8198	614647	0	0
2024-06-24 05:51:32			0	36458	0	0	0	25636	24220	144201	26916	1019900	42748	109485	0	0	8198	615151	0	0
2024-06-24 05:52:32			0	36480	0	0	0	25633	24220	144273	27339	1019935	42759	109484	0	0	8199	614227	0	0
2024-06-24 05:53:32			0	36487	0	0	0	25641	24220	144197	27343	1019881	42759	109487	0	0	8199	613934	0	0
2024-06-24 05:54:32			0	36499	0	0	0	25638	24220	144105	27225	1019935	42759	109486	0	0	8200	613430	0	0
2024-06-24 05:55:32			0	36487	0	0	0	25644	24220	144173	27466	1019926	42759	109488	0	0	8199	613934	0	0
2024-06-24 05:56:32			0	36478	0	0	0	25633	24220	144189	26941	1019855	42759	109484	0	0	8199	614311	0	0
2024-06-24 05:57:32			0	36501	0	0	0	25633	24220	144209	27093	1019908	42782	109484	0	0	8200	613347	0	0
2024-06-24 05:58:32			0	36494	0	0	0	25631	24220	144141	26913	1019881	42759	109483	0	0	8200	613640	0	0
2024-06-24 05:59:32			0	36495	0	0	0	25638	24220	144145	27090	1019926	42770	109486	0	0	8200	613598	0	0
2024-06-24 06:00:32			0	36520	0	0	0	25633	24210	144141	27291	1019837	42769	109484	0	0	8201	612585	0	0
2024-06-24 06:01:32			0	36518	0	0	0	25631	24220	144145	27163	1019873	42759	109483	0	0	8201	612634	0	0
2024-06-24 06:02:32			0	36522	0	0	0	25625	24220	144113	27308	1019935	42759	109481	0	0	8201	612467	0	0
2024-06-24 06:03:32			0	36518	0	0	0	25623	24210	144133	26944	1019837	42769	109480	0	0	8201	612669	0	0
2024-06-24 06:04:32			0	36505	0	0	0	25620	24220	144133	26897	1019908	42759	109479	0	0	8200	613179	0	0
2024-06-24 06:05:32			0	36519	0	0	0	25615	24220	144053	26908	1019846	42770	109477	0	0	8201	612592	0	0
2024-06-24 06:06:32			0	36517	0	0	0	25623	24220	144121	26859	1019855	42782	109480	0	0	8201	612676	0	0
2024-06-24 06:07:32			0	36513	0	0	0	25628	24220	144077	27057	1019846	42781	109482	0	0	8201	612844	0	0
2024-06-24 06:08:32			0	36523	0	0	0	25628	24210	144085	26896	1019811	42758	109482	0	0	8201	612459	0	0
2024-06-24 06:09:32			0	36529	0	0	0	25628	24220	144133	26932	1019908	42782	109482	0	0	8202	612173	0	0
2024-06-24 06:10:32			0	36543	0	0	0	25631	24220	143961	27111	1019855	42759	109483	0	0	8202	611588	0	0
2024-06-24 06:11:32			0	36545	0	0	0	25620	24220	144025	27374	1019846	42770	109479	0	0	8203	611504	0	0
2024-06-24 06:12:32			0	36562	0	0	0	25623	24210	143929	27118	1019864	42769	109480	0	0	8203	610827	0	0
2024-06-24 06:13:32			0	36572	0	0	0	25623	24220	143945	27279	1019855	42782	109480	0	0	8204	610375	0	0
2024-06-24 06:14:32			0	36563	0	0	0	25633	24210	143877	26948	1019936	42758	109484	0	0	8203	610786	0	0
2024-06-24 06:15:32			0	36594	0	0	0	25625	24220	143901	27057	1019926	42770	109481	0	0	8205	609456	0	0
2024-06-24 06:16:32			0	36601	0	0	0	25631	24210	143790	26819	1019936	42758	109483	0	0	8205	609198	0	0
2024-06-24 06:17:32			0	36627	0	0	0	25631	24220	143718	27149	1019962	42749	109483	0	0	8207	608080	0	0
2024-06-24 06:18:32			0	36647	0	0	0	25631	24230	143754	27050	1019944	42759	109483	0	0	8208	607212	0	0
2024-06-24 06:19:32			0	36663	0	0	0	25644	24220	143614	27088	1019935	42771	109488	0	0	8208	606581	0	0
2024-06-24 06:20:32			0	36683	0	0	0	25646	24220	143470	26955	1019935	42782	109489	0	0	8209	605749	0	0
2024-06-24 06:21:32			0	36701	0	0	0	25646	24220	143378	27029	1019926	42748	109489	0	0	8210	605001	0	0
2024-06-24 06:22:32			0	36727	0	0	0	25654	24230	143262	27050	1020006	42760	109492	0	0	8212	603888	0	0
2024-06-24 06:23:32			0	36738	0	0	0	25657	24230	143254	27118	1019944	42771	109493	0	0	8212	603432	0	0
2024-06-24 06:24:32			0	36765	0	0	0	25651	24230	143158	27140	1019944	42771	109491	0	0	8214	602313	0	0
2024-06-24 06:25:32			0	36783	0	0	0	25651	24220	143014	27225	1019962	42749	109491	0	0	8215	601602	0	0
2024-06-24 06:26:32			0	36819	0	0	0	25654	24230	142922	27282	1019944	42759	109492	0	0	8216	600080	0	0
2024-06-24 06:27:32			0	36835	0	0	0	25654	24230	142822	26772	1019952	42772	109492	0	0	8217	599419	0	0
2024-06-24 06:28:32			0	36862	0	0	0	25649	24230	142774	27249	1019979	42772	109490	0	0	8219	598306	0	0
2024-06-24 06:29:32			0	36881	0	0	0	25651	24230	142662	27045	1020006	42760	109491	0	0	8220	597523	0	0
2024-06-24 06:30:32			0	36890	0	0	0	25662	24230	142658	27086	1019997	42759	109495	0	0	8220	597152	0	0
2024-06-24 06:31:32			0	36906	0	0	0	25651	24240	142610	26899	1020023	42761	109491	0	0	8221	596460	0	0
2024-06-24 06:32:32			0	36914	0	0	0	25654	24250	142610	27208	1020058	42762	109492	0	0	8221	596098	0	0
2024-06-24 06:33:32			0	36924	0	0	0	25659	24230	142502	27050	1019944	42759	109494	0	0	8222	595754	0	0
2024-06-24 06:34:32			0	36963	0	0	0	25646	24240	142530	27201	1020023	42773	109489	0	0	8224	594119	0	0
2024-06-24 06:35:32			0	36956	0	0	0	25654	24230	142358	27055	1020059	42760	109492	0	0	8224	594439	0	0
2024-06-24 06:36:32			0	36962	0	0	0	25659	24240	142374	27144	1019996	42761	109494	0	0	8224	594160	0	0
2024-06-24 06:37:32			0	36988	0	0	0	25662	24240	142306	27121	1020023	42750	109495	0	0	8225	593094	0	0
2024-06-24 06:38:32			0	36997	0	0	0	25654	24240	142282	27074	1020014	42772	109492	0	0	8226	592725	0	0
2024-06-24 06:39:32			0	36994	0	0	0	25662	24240	142310	26909	1019969	42761	109495	0	0	8225	592848	0	0
2024-06-24 06:40:32			0	36993	0	0	0	25659	24240	142282	26755	1020023	42784	109494	0	0	8225	592889	0	0
2024-06-24 06:41:32			0	37021	0	0	0	25664	24240	142230	27223	1020050	42761	109496	0	0	8227	591743	0	0
2024-06-24 06:42:32			0	37032	0	0	0	25659	24250	142170	27315	1020005	42774	109494	0	0	8228	591259	0	0
2024-06-24 06:43:32			0	37017	0	0	0	25662	24240	142178	26948	1019969	42761	109495	0	0	8227	591906	0	0
2024-06-24 06:44:32			0	37038	0	0	0	25664	24240	142094	26923	1020041	42760	109496	0	0	8228	591047	0	0
2024-06-24 06:45:32			0	37030	0	0	0	25659	24240	142162	27060	1019996	42784	109494	0	0	8227	591374	0	0
2024-06-24 06:46:32			0	37039	0	0	0	25662	24250	142110	26956	1020031	42774	109495	0	0	8228	590973	0	0
2024-06-24 06:47:32			0	37045	0	0	0	25657	24240	142098	27246	1020014	42760	109493	0	0	8228	590761	0	0
2024-06-24 06:48:32			0	37018	0	0	0	25659	24240	142178	27211	1020014	42760	109494	0	0	8227	591865	0	0
2024-06-24 06:49:32			0	37018	0	0	0	25659	24230	142094	27206	1020006	42750	109494	0	0	8227	591899	0	0
2024-06-24 06:50:32			0	37035	0	0	0	25657	24240	142174	27194	1019943	42761	109493	0	0	8228	591170	0	0
2024-06-24 06:51:32			0	37043	0	0	0	25657	24240	142222	27194	1020014	42750	109493	0	0	8228	590843	0	0
2024-06-24 06:52:32			0	37008	0	0	0	25654	24240	142270	27111	1019996	42761	109492	0	0	8226	592275	0	0
2024-06-24 06:53:32			0	37026	0	0	0	25654	24250	142206	27119	1019987	42762	109492	0	0	8227	591505	0	0
2024-06-24 06:54:32			0	37024	0	0	0	25662	24240	142218	27265	1020023	42761	109495	0	0	8227	591620	0	0
2024-06-24 06:55:32			0	37023	0	0	0	25667	24250	142250	27270	1020005	42762	109497	0	0	8227	591627	0	0
2024-06-24 06:56:32			0	37023	0	0	0	25662	24250	142234	27124	1020085	42795	109495	0	0	8227	591627	0	0
2024-06-24 06:57:32			0	37020	0	0	0	25659	24240	142234	27467	1020076	42750	109494	0	0	8227	591783	0	0
2024-06-24 06:58:32			0	37024	0	0	0	25657	24250	142234	27209	1020147	42762	109493	0	0	8227	591587	0	0
2024-06-24 06:59:32			0	37038	0	0	0	25657	24250	142150	27227	1020085	42785	109493	0	0	8228	591014	0	0
2024-06-24 07:00:32			0	37042	0	0	0	25672	24260	142178	27303	1020102	42762	109499	0	0	8228	590817	0	0
2024-06-24 07:01:32			0	37026	0	0	0	25667	24240	142242	27114	1019996	42784	109497	0	0	8227	591538	0	0
2024-06-24 07:02:32			0	37045	0	0	0	25667	24250	142166	27114	1020094	42774	109497	0	0	8228	590728	0	0
2024-06-24 07:03:32			0	37035	0	0	0	25667	24250	142086	27237	1020031	42774	109497	0	0	8228	591137	0	0
2024-06-24 07:04:32			0	37042	0	0	0	25664	24250	142042	27293	1020067	42762	109496	0	0	8228	590850	0	0
2024-06-24 07:05:32			0	37064	0	0	0	25664	24250	142106	26909	1020058	42762	109496	0	0	8229	589952	0	0
2024-06-24 07:06:32			0	37054	0	0	0	25670	24250	142090	27545	1020058	42774	109498	0	0	8228	590360	0	0
2024-06-24 07:07:32			0	37058	0	0	0	25654	24240	142046	27090	1020050	42761	109492	0	0	8229	590230	0	0
2024-06-24 07:08:32			0	37042	0	0	0	25664	24250	142014	27518	1020085	42762	109496	0	0	8228	590850	0	0
2024-06-24 07:09:32			0	37062	0	0	0	25664	24250	142114	27412	1020031	42774	109496	0	0	8229	590033	0	0
2024-06-24 07:10:32			0	37076	0	0	0	25672	24250	142086	27197	1020058	42774	109499	0	0	8230	589462	0	0
2024-06-24 07:11:32			0	37061	0	0	0	25667	24250	142030	27223	1020094	42762	109497	0	0	8229	590074	0	0
2024-06-24 07:12:32			0	37084	0	0	0	25662	24250	141946	27057	1020067	42774	109495	0	0	8230	589136	0	0
2024-06-24 07:13:32			0	37082	0	0	0	25662	24260	141986	27272	1020102	42785	109495	0	0	8230	589184	0	0
2024-06-24 07:14:32			0	37082	0	0	0	25662	24250	142034	27001	1020067	42774	109495	0	0	8230	589217	0	0
2024-06-24 07:15:32			0	37093	0	0	0	25664	24260	141982	26795	1020057	42774	109496	0	0	8231	588735	0	0
2024-06-24 07:16:32			0	37094	0	0	0	25670	24250	141938	27050	1020067	42751	109498	0	0	8231	588728	0	0
2024-06-24 07:17:32			0	37101	0	0	0	25662	24250	141866	27362	1020112	42774	109495	0	0	8231	588442	0	0
2024-06-24 07:18:32			0	37095	0	0	0	25672	24260	141902	27085	1020049	42762	109499	0	0	8231	588654	0	0
2024-06-24 07:19:32			0	37095	0	0	0	25667	24250	141918	27275	1020094	42774	109497	0	0	8231	588687	0	0
2024-06-24 07:20:32			0	37088	0	0	0	25664	24260	141938	27256	1020075	42762	109496	0	0	8230	588939	0	0
2024-06-24 07:21:32			0	37108	0	0	0	25659	24260	141990	27090	1020057	42763	109494	0	0	8232	588124	0	0
2024-06-24 07:22:32			0	37107	0	0	0	25659	24250	142018	27074	1020120	42762	109494	0	0	8231	588198	0	0
2024-06-24 07:23:32			0	37123	0	0	0	25664	24250	141898	27138	1020005	42774	109496	0	0	8232	587546	0	0
2024-06-24 07:24:32			0	37105	0	0	0	25659	24240	141946	26970	1020050	42761	109494	0	0	8231	588313	0	0
2024-06-24 07:25:32			0	37106	0	0	0	25667	24240	141878	27173	1020023	42761	109497	0	0	8231	588272	0	0
2024-06-24 07:26:32			0	37115	0	0	0	25662	24250	141902	27201	1020112	42774	109495	0	0	8232	587872	0	0
2024-06-24 07:27:32			0	37135	0	0	0	25662	24250	141894	26948	1020085	42762	109495	0	0	8233	587058	0	0
2024-06-24 07:28:32			0	37126	0	0	0	25667	24250	141874	27393	1020094	42774	109497	0	0	8232	587424	0	0
2024-06-24 07:29:32			0	37119	0	0	0	25667	24250	141874	27369	1020013	42774	109497	0	0	8232	587709	0	0
2024-06-24 07:30:32			0	37117	0	0	0	25670	24250	141866	27154	1020094	42774	109498	0	0	8232	587790	0	0
2024-06-24 07:31:32			0	37143	0	0	0	25664	24250	141818	27111	1020058	42762	109496	0	0	8233	586732	0	0
2024-06-24 07:32:32			0	37132	0	0	0	25664	24260	141710	27227	1020102	42774	109496	0	0	8233	587147	0	0
2024-06-24 07:33:32			0	37108	0	0	0	25667	24260	141734	27076	1020129	42774	109497	0	0	8231	588124	0	0
2024-06-24 07:34:32			0	37139	0	0	0	25675	24240	141758	26927	1020076	42784	109500	0	0	8233	586928	0	0
2024-06-24 07:35:32			0	37129	0	0	0	25670	24240	141666	26920	1020050	42750	109498	0	0	8232	587335	0	0
2024-06-24 07:36:32			0	37153	0	0	0	25670	24250	141666	27339	1020067	42785	109498	0	0	8234	586325	0	0
2024-06-24 07:37:32			0	37130	0	0	0	25659	24250	141734	27130	1020040	42774	109494	0	0	8233	587261	0	0
2024-06-24 07:38:32			0	37132	0	0	0	25662	24250	141810	27090	1020085	42762	109495	0	0	8233	587180	0	0
2024-06-24 07:39:32			0	37141	0	0	0	25662	24240	141694	27149	1020103	42773	109495	0	0	8233	586847	0	0
2024-06-24 07:40:32			0	37144	0	0	0	25659	24260	141806	27208	1020111	42774	109494	0	0	8233	586658	0	0
2024-06-24 07:41:32			0	37144	0	0	0	25662	24250	141790	26965	1020112	42774	109495	0	0	8233	586691	0	0
2024-06-24 07:42:32			0	37154	0	0	0	25662	24240	141662	27327	1020050	42761	109495	0	0	8234	586318	0	0
2024-06-24 07:43:32			0	37165	0	0	0	25657	24250	141698	27341	1020112	42795	109493	0	0	8235	585838	0	0
2024-06-24 07:44:32			0	37173	0	0	0	25662	24250	141642	27140	1020058	42774	109495	0	0	8235	585512	0	0
2024-06-24 07:45:32			0	37159	0	0	0	25657	24260	141622	26970	1020075	42774	109493	0	0	8234	586048	0	0
2024-06-24 07:46:32			0	37165	0	0	0	25649	24250	141614	27071	1020112	42751	109490	0	0	8235	585838	0	0
2024-06-24 07:47:32			0	37178	0	0	0	25659	24250	141566	27135	1020094	42762	109494	0	0	8235	585309	0	0
2024-06-24 07:48:32			0	37171	0	0	0	25651	24250	141666	27396	1020031	42751	109491	0	0	8235	585594	0	0
2024-06-24 07:49:32			0	37193	0	0	0	25659	24260	141626	26897	1020084	42774	109494	0	0	8236	584667	0	0
2024-06-24 07:50:32			0	37182	0	0	0	25649	24250	141662	27239	1020067	42774	109490	0	0	8236	585147	0	0
2024-06-24 07:51:32			0	37177	0	0	0	25651	24250	141618	27097	1020013	42762	109491	0	0	8235	585350	0	0
2024-06-24 07:52:32			0	37169	0	0	0	25657	24250	141646	27197	1020085	42774	109493	0	0	8235	585675	0	0
2024-06-24 07:53:32			0	37163	0	0	0	25670	24250	141714	26934	1020094	42774	109498	0	0	8234	585919	0	0
2024-06-24 07:54:32			0	37163	0	0	0	25659	24240	141718	27280	1020041	42772	109494	0	0	8234	585952	0	0
2024-06-24 07:55:32			0	37128	0	0	0	25662	24250	141826	27039	1020120	42774	109495	0	0	8232	587343	0	0
2024-06-24 07:56:32			0	37091	0	0	0	25664	24250	141962	27076	1020120	42774	109496	0	0	8231	588850	0	0
2024-06-24 07:57:32			0	37035	0	0	0	25670	24250	142190	27038	1020031	42785	109498	0	0	8228	591137	0	0
2024-06-24 07:58:32			0	36983	0	0	0	25662	24250	142350	26838	1020094	42762	109495	0	0	8225	593265	0	0
2024-06-24 07:59:32			0	36920	0	0	0	25667	24250	142566	27133	1020120	42774	109497	0	0	8222	595851	0	0
2024-06-24 08:00:32			0	36838	0	0	0	25667	24250	142878	27310	1020067	42774	109497	0	0	8217	599228	0	0
2024-06-24 08:01:32			0	36765	0	0	0	25670	24250	143162	27123	1020147	42774	109498	0	0	8213	602245	0	0
2024-06-24 08:02:32			0	36700	0	0	0	25662	24260	143414	27145	1020156	42774	109495	0	0	8210	604906	0	0
2024-06-24 08:03:32			0	36633	0	0	0	25670	24260	143662	27471	1020102	42774	109498	0	0	8207	607692	0	0
2024-06-24 08:04:32			0	36545	0	0	0	25670	24260	144041	27206	1020129	42785	109498	0	0	8202	611366	0	0
2024-06-24 08:05:32			0	36485	0	0	0	25680	24250	144229	27090	1020120	42774	109502	0	0	8199	613914	0	0
2024-06-24 08:06:32			0	36440	0	0	0	25667	24250	144369	27310	1020094	42762	109497	0	0	8196	615803	0	0
2024-06-24 08:07:32			0	36358	0	0	0	25672	24260	144577	27175	1020138	42774	109499	0	0	8192	619222	0	0
2024-06-24 08:08:32			0	36316	0	0	0	25667	24250	144849	27230	1020120	42762	109497	0	0	8190	621031	0	0
2024-06-24 08:09:32			0	36295	0	0	0	25677	24260	144913	27175	1020075	42762	109501	0	0	8189	621885	0	0
2024-06-24 08:10:32			0	36238	0	0	0	25670	24260	145185	27377	1020156	42774	109498	0	0	8186	624301	0	0
2024-06-24 08:11:32			0	36187	0	0	0	25672	24260	145325	27196	1020049	42785	109499	0	0	8183	626468	0	0
2024-06-24 08:12:32			0	36137	0	0	0	25670	24260	145549	27235	1020156	42774	109498	0	0	8180	628597	0	0
2024-06-24 08:13:32			0	36111	0	0	0	25670	24250	145649	27187	1020147	42762	109498	0	0	8179	629743	0	0
2024-06-24 08:14:32			0	36082	0	0	0	25670	24250	145745	27196	1020094	42774	109498	0	0	8177	630982	0	0
2024-06-24 08:15:32			0	36029	0	0	0	25664	24250	145941	27293	1020165	42762	109496	0	0	8175	633251	0	0
2024-06-24 08:16:32			0	35997	0	0	0	25654	24260	146089	27485	1020102	42762	109492	0	0	8173	634588	0	0
2024-06-24 08:17:32			0	35953	0	0	0	25662	24250	146261	27537	1020138	42774	109495	0	0	8171	636515	0	0
2024-06-24 08:18:32			0	35939	0	0	0	25654	24240	146309	27582	1020076	42761	109492	0	0	8170	637153	0	0
2024-06-24 08:19:32			0	35918	0	0	0	25664	24250	146345	27402	1020120	42751	109496	0	0	8169	638022	0	0
2024-06-24 08:20:32			0	35876	0	0	0	25670	24260	146593	27027	1020129	42774	109498	0	0	8167	639798	0	0
2024-06-24 08:21:32			0	35887	0	0	0	25672	24240	146725	27234	1020023	42784	109499	0	0	8167	639395	0	0
2024-06-24 08:22:32			0	35832	0	0	0	25675	24250	146780	27448	1020085	42762	109500	0	0	8164	641736	0	0
2024-06-24 08:23:32			0	35812	0	0	0	25672	24260	146860	27421	1020191	42774	109499	0	0	8163	642566	0	0
2024-06-24 08:24:32			0	35783	0	0	0	25677	24270	146932	27244	1020155	42787	109501	0	0	8161	643787	0	0
2024-06-24 08:25:32			0	35779	0	0	0	25675	24250	146992	26930	1020085	42774	109500	0	0	8161	644033	0	0
2024-06-24 08:26:32			0	35767	0	0	0	25675	24260	147084	26981	1020164	42774	109500	0	0	8161	644518	0	0
2024-06-24 08:27:32			0	35741	0	0	0	25667	24260	147136	27242	1020102	42785	109497	0	0	8159	645647	0	0
2024-06-24 08:28:32			0	35728	0	0	0	25675	24280	147200	27020	1020190	42764	109500	0	0	8159	646139	0	0
2024-06-24 08:29:32			0	35703	0	0	0	25667	24260	147200	27436	1020218	42786	109497	0	0	8157	647300	0	0
2024-06-24 08:30:32			0	35711	0	0	0	25672	24280	147324	27093	1020190	42787	109499	0	0	8158	646879	0	0
2024-06-24 08:31:32			0	35695	0	0	0	25677	24280	147360	26899	1020225	42776	109501	0	0	8157	647575	0	0
2024-06-24 08:32:32			0	35678	0	0	0	25677	24260	147364	27248	1020156	42774	109501	0	0	8156	648389	0	0
2024-06-24 08:33:32			0	35670	0	0	0	25680	24280	147512	27289	1020137	42764	109502	0	0	8155	648665	0	0
2024-06-24 08:34:32			0	35653	0	0	0	25683	24280	147512	27277	1020190	42764	109503	0	0	8154	649407	0	0
2024-06-24 08:35:32			0	35659	0	0	0	25677	24260	147548	27279	1020182	42774	109501	0	0	8155	649218	0	0
2024-06-24 08:36:32			0	35636	0	0	0	25677	24260	147652	27166	1020129	42774	109501	0	0	8154	650222	0	0
2024-06-24 08:37:32			0	35621	0	0	0	25680	24270	147564	27531	1020181	42775	109502	0	0	8153	650841	0	0
2024-06-24 08:38:32			0	35614	0	0	0	25685	24270	147612	27201	1020208	42764	109504	0	0	8152	651147	0	0
2024-06-24 08:39:32			0	35596	0	0	0	25675	24260	147636	27317	1020164	42763	109500	0	0	8151	651972	0	0
2024-06-24 08:40:32			0	35603	0	0	0	25677	24270	147668	27105	1020200	42775	109501	0	0	8152	651629	0	0
2024-06-24 08:41:32			0	35599	0	0	0	25680	24260	147800	27149	1020182	42774	109502	0	0	8152	651841	0	0
2024-06-24 08:42:32			0	35571	0	0	0	25680	24280	147828	27157	1020217	42764	109502	0	0	8150	652993	0	0
2024-06-24 08:43:32			0	35582	0	0	0	25675	24280	147832	27331	1020145	42776	109500	0	0	8151	652511	0	0
2024-06-24 08:44:32			0	35562	0	0	0	25675	24280	147856	27597	1020217	42764	109500	0	0	8150	653388	0	0
2024-06-24 08:45:32			0	35559	0	0	0	25677	24270	147840	27204	1020173	42775	109501	0	0	8149	653556	0	0
2024-06-24 08:46:32			0	35551	0	0	0	25680	24270	147932	27447	1020173	42764	109502	0	0	8149	653907	0	0
2024-06-24 08:47:32			0	35559	0	0	0	25675	24260	147980	27284	1020191	42774	109500	0	0	8149	653593	0	0
2024-06-24 08:48:32			0	35527	0	0	0	25672	24280	148008	27364	1020163	42764	109499	0	0	8148	654923	0	0
2024-06-24 08:49:32			0	35545	0	0	0	25670	24280	147912	27116	1020217	42775	109498	0	0	8149	654133	0	0
2024-06-24 08:50:32			0	35540	0	0	0	25675	24270	147956	27391	1020173	42775	109500	0	0	8149	654390	0	0
2024-06-24 08:51:32			0	35543	0	0	0	25680	24270	148032	27320	1020146	42764	109502	0	0	8149	654258	0	0
2024-06-24 08:52:32			0	35530	0	0	0	25683	24270	148052	27384	1020181	42764	109503	0	0	8148	654829	0	0
2024-06-24 08:53:32			0	35516	0	0	0	25683	24270	148188	27319	1020200	42764	109503	0	0	8147	655444	0	0
2024-06-24 08:54:32			0	35511	0	0	0	25680	24280	148068	27060	1020190	42775	109502	0	0	8147	655626	0	0
2024-06-24 08:55:32			0	35519	0	0	0	25677	24260	148168	26979	1020191	42774	109501	0	0	8147	655349	0	0
2024-06-24 08:56:32			0	35494	0	0	0	25683	24260	148120	27232	1020164	42774	109503	0	0	8146	656448	0	0
2024-06-24 08:57:32			0	35487	0	0	0	25677	24280	148188	27152	1020190	42764	109501	0	0	8146	656682	0	0
2024-06-24 08:58:32			0	35502	0	0	0	25675	24280	148200	27402	1020163	42753	109500	0	0	8147	656022	0	0
2024-06-24 08:59:32			0	35490	0	0	0	25667	24260	148180	26934	1020138	42774	109497	0	0	8146	656624	0	0
2024-06-24 09:00:32			0	35480	0	0	0	25670	24260	148224	27355	1020129	42762	109498	0	0	8145	657064	0	0
2024-06-24 09:01:32			0	35476	0	0	0	25677	24260	148132	27355	1020138	42763	109501	0	0	8145	657240	0	0
2024-06-24 09:02:32			0	35478	0	0	0	25672	24250	148164	27350	1020120	42762	109499	0	0	8145	657189	0	0
2024-06-24 09:03:32			0	35461	0	0	0	25677	24270	148240	27149	1020173	42764	109501	0	0	8144	657864	0	0
2024-06-24 09:04:32			0	35455	0	0	0	25680	24260	148296	27161	1020209	42774	109502	0	0	8144	658165	0	0
2024-06-24 09:05:32			0	35466	0	0	0	25680	24270	148232	27067	1020173	42787	109502	0	0	8144	657644	0	0
2024-06-24 09:06:32			0	35488	0	0	0	25675	24270	148192	27088	1020200	42775	109500	0	0	8146	656675	0	0
2024-06-24 09:07:32			0	35469	0	0	0	25677	24260	148180	27104	1020244	42774	109501	0	0	8145	657548	0	0
2024-06-24 09:08:32			0	35468	0	0	0	25675	24270	148296	27112	1020253	42775	109500	0	0	8145	657555	0	0
2024-06-24 09:09:32			0	35472	0	0	0	25670	24270	148260	27157	1020208	42764	109498	0	0	8145	657379	0	0
2024-06-24 09:10:32			0	35472	0	0	0	25670	24260	148272	27319	1020191	42774	109498	0	0	8145	657416	0	0
2024-06-24 09:11:32			0	35472	0	0	0	25672	24250	148180	27187	1020174	42762	109499	0	0	8145	657453	0	0
2024-06-24 09:12:32			0	35488	0	0	0	25664	24250	148176	26916	1020165	42762	109496	0	0	8146	656749	0	0
2024-06-24 09:13:32			0	35486	0	0	0	25659	24260	148096	27085	1020236	42762	109494	0	0	8146	656800	0	0
2024-06-24 09:14:32			0	35501	0	0	0	25659	24250	148144	27137	1020147	42774	109494	0	0	8147	656177	0	0
2024-06-24 09:15:32			0	35514	0	0	0	25670	24250	148128	26979	1020147	42762	109498	0	0	8147	655605	0	0
2024-06-24 09:16:32			0	35513	0	0	0	25662	24260	148072	27135	1020182	42762	109495	0	0	8147	655612	0	0
2024-06-24 09:17:32			0	35501	0	0	0	25667	24260	148008	27182	1020156	42762	109497	0	0	8147	656140	0	0
2024-06-24 09:18:32			0	35516	0	0	0	25659	24250	148084	27072	1020147	42762	109494	0	0	8147	655518	0	0
2024-06-24 09:19:32			0	35524	0	0	0	25651	24250	147956	27301	1020085	42762	109491	0	0	8148	655166	0	0
2024-06-24 09:20:32			0	35535	0	0	0	25654	24240	147904	27071	1020103	42773	109492	0	0	8148	654720	0	0
2024-06-24 09:21:32			0	35551	0	0	0	25659	24250	147920	27348	1020085	42762	109494	0	0	8149	653981	0	0
2024-06-24 09:22:32			0	35575	0	0	0	25662	24250	147892	27097	1020120	42762	109495	0	0	8151	652928	0	0
2024-06-24 09:23:32			0	35574	0	0	0	25662	24260	147884	27185	1020102	42785	109495	0	0	8151	652935	0	0
2024-06-24 09:24:32			0	35554	0	0	0	25662	24250	147992	27005	1020120	42762	109495	0	0	8149	653849	0	0
2024-06-24 09:25:32			0	35564	0	0	0	25659	24260	147864	27346	1020138	42774	109494	0	0	8150	653374	0	0
2024-06-24 09:26:32			0	35581	0	0	0	25659	24260	147840	27301	1020102	42774	109494	0	0	8151	652629	0	0
2024-06-24 09:27:32			0	35562	0	0	0	25659	24250	147792	27509	1020112	42762	109494	0	0	8150	653498	0	0
2024-06-24 09:28:32			0	35570	0	0	0	25644	24240	147804	27471	1020076	42761	109488	0	0	8151	653184	0	0
2024-06-24 09:29:32			0	35593	0	0	0	25623	24240	147828	27281	1019961	42760	109480	0	0	8152	652177	0	0
2024-06-24 09:30:32			0	35597	0	0	0	25589	24220	147660	27107	1019828	42759	109467	0	0	8153	652075	0	0
2024-06-24 09:31:32			0	35610	0	0	0	25584	24210	147692	27339	1019811	42747	109465	0	0	8154	651543	0	0
2024-06-24 09:32:32			0	35625	0	0	0	25576	24210	147680	27154	1019891	42747	109462	0	0	8154	650887	0	0
2024-06-24 09:33:32			0	35642	0	0	0	25576	24220	147644	27464	1019900	42770	109462	0	0	8155	650107	0	0
2024-06-24 09:34:32			0	35630	0	0	0	25589	24210	147552	27161	1019909	42747	109467	0	0	8155	650668	0	0
2024-06-24 09:35:32			0	35654	0	0	0	25589	24210	147476	27135	1019856	42758	109467	0	0	8156	649620	0	0
2024-06-24 09:36:32			0	35665	0	0	0	25584	24210	147476	27284	1019918	42758	109465	0	0	8156	649140	0	0
2024-06-24 09:37:32			0	35670	0	0	0	25592	24210	147508	27294	1019811	42747	109468	0	0	8157	648922	0	0
2024-06-24 09:38:32			0	35684	0	0	0	25589	24210	147492	27419	1019918	42758	109467	0	0	8157	648311	0	0
2024-06-24 09:39:32			0	35653	0	0	0	25594	24200	147524	27386	1019847	42758	109469	0	0	8156	649700	0	0
2024-06-24 09:40:32			0	35660	0	0	0	25594	24210	147608	27448	1019963	42769	109469	0	0	8156	649358	0	0
2024-06-24 09:41:32			0	35655	0	0	0	25610	24210	147608	27412	1019837	42758	109475	0	0	8156	649576	0	0
2024-06-24 09:42:32			0	35656	0	0	0	25612	24200	147564	27171	1019919	42757	109476	0	0	8155	649569	0	0
2024-06-24 09:43:32			0	35629	0	0	0	25610	24210	147672	27265	1019971	42747	109475	0	0	8154	650712	0	0
2024-06-24 09:44:32			0	35653	0	0	0	25620	24210	147568	27424	1019909	42747	109479	0	0	8155	649664	0	0
2024-06-24 09:45:32			0	35646	0	0	0	25620	24210	147656	27317	1019944	42758	109479	0	0	8155	649969	0	0
2024-06-24 09:46:32			0	35642	0	0	0	25620	24210	147688	27524	1019963	42769	109479	0	0	8155	650144	0	0
2024-06-24 09:47:32			0	35640	0	0	0	25620	24210	147732	27573	1019998	42758	109479	0	0	8155	650231	0	0
2024-06-24 09:48:32			0	35655	0	0	0	25625	24210	147608	27407	1019918	42747	109481	0	0	8155	649576	0	0
2024-06-24 09:49:32			0	35634	0	0	0	25620	24210	147632	27374	1019963	42758	109479	0	0	8154	650494	0	0
2024-06-24 09:50:32			0	35663	0	0	0	25612	24210	147544	27253	1019944	42769	109476	0	0	8156	649227	0	0
2024-06-24 09:51:32			0	35656	0	0	0	25618	24210	147536	27287	1019891	42769	109478	0	0	8155	649533	0	0
2024-06-24 09:52:32			0	35691	0	0	0	25612	24210	147508	27298	1019918	42758	109476	0	0	8157	648006	0	0
2024-06-24 09:53:32			0	35711	0	0	0	25599	24210	147416	27067	1019891	42769	109471	0	0	8159	647135	0	0
2024-06-24 09:54:32			0	35734	0	0	0	25599	24200	147316	27428	1019892	42757	109471	0	0	8160	646170	0	0
2024-06-24 09:55:32			0	35773	0	0	0	25592	24200	147084	27369	1019900	42758	109468	0	0	8162	644475	0	0
2024-06-24 09:56:32			0	35813	0	0	0	25584	24200	147016	27397	1019820	42747	109465	0	0	8164	642740	0	0
2024-06-24 09:57:32			0	35860	0	0	0	25573	24190	146716	27263	1019803	42745	109461	0	0	8167	640742	0	0
2024-06-24 09:58:32			0	35916	0	0	0	25571	24180	146617	27324	1019759	42756	109460	0	0	8170	638361	0	0
2024-06-24 09:59:32			0	35969	0	0	0	25561	24190	146421	27301	1019714	42745	109456	0	0	8173	636042	0	0
2024-06-24 10:00:32			0	35991	0	0	0	25555	24170	146313	27246	1019715	42744	109454	0	0	8174	635168	0	0
2024-06-24 10:01:32			0	36029	0	0	0	25545	24180	146105	27138	1019616	42755	109450	0	0	8176	633501	0	0
2024-06-24 10:02:32			0	36081	0	0	0	25537	24170	145865	27118	1019626	42765	109447	0	0	8179	631309	0	0
2024-06-24 10:03:32			0	36111	0	0	0	25527	24170	145809	27454	1019688	42765	109443	0	0	8181	630027	0	0
2024-06-24 10:04:32			0	36147	0	0	0	25532	24170	145593	27222	1019653	42754	109445	0	0	8183	628490	0	0
2024-06-24 10:05:32			0	36177	0	0	0	25535	24160	145457	27348	1019617	42753	109446	0	0	8184	627247	0	0
2024-06-24 10:06:32			0	36207	0	0	0	25527	24160	145393	27272	1019617	42743	109443	0	0	8186	625970	0	0
2024-06-24 10:07:32			0	36217	0	0	0	25527	24160	145397	27545	1019582	42743	109443	0	0	8187	625545	0	0
2024-06-24 10:08:32			0	36242	0	0	0	25503	24140	145225	27170	1019449	42751	109434	0	0	8188	624554	0	0
2024-06-24 10:09:32			0	36252	0	0	0	25493	24140	145181	27431	1019467	42751	109430	0	0	8189	624129	0	0
2024-06-24 10:10:32			0	36269	0	0	0	25483	24130	145297	27495	1019423	42739	109426	0	0	8190	623443	0	0
2024-06-24 10:11:32			0	36288	0	0	0	25480	24130	145213	27443	1019450	42750	109425	0	0	8191	622638	0	0
2024-06-24 10:12:32			0	36285	0	0	0	25472	24120	145073	27242	1019361	42739	109422	0	0	8191	622800	0	0
2024-06-24 10:13:32			0	36293	0	0	0	25464	24110	145113	27429	1019344	42749	109419	0	0	8191	622496	0	0
2024-06-24 10:14:32			0	36310	0	0	0	25454	24110	145197	27130	1019309	42748	109415	0	0	8193	621776	0	0
2024-06-24 10:15:32			0	36293	0	0	0	25462	24090	144949	27358	1019310	42748	109418	0	0	8191	622566	0	0
2024-06-24 10:16:32			0	36309	0	0	0	25449	24080	145069	27206	1019239	42747	109413	0	0	8192	621924	0	0
2024-06-24 10:17:32			0	36320	0	0	0	25441	24080	145033	27320	1019230	42712	109410	0	0	8193	621458	0	0
2024-06-24 10:18:32			0	36325	0	0	0	25444	24090	145053	27112	1019194	42747	109411	0	0	8193	621212	0	0
2024-06-24 10:19:32			0	36306	0	0	0	25441	24070	145041	26887	1019160	42733	109410	0	0	8192	622086	0	0
2024-06-24 10:20:32			0	36322	0	0	0	25436	24060	145077	27258	1019142	42733	109408	0	0	8193	621444	0	0
2024-06-24 10:21:32			0	36324	0	0	0	25425	24070	144985	27085	1019160	42755	109404	0	0	8194	621324	0	0
2024-06-24 10:22:32			0	36320	0	0	0	25415	24060	145057	27364	1019115	42733	109400	0	0	8193	621528	0	0
2024-06-24 10:23:32			0	36315	0	0	0	25410	24030	144985	27038	1019001	42742	109398	0	0	8193	621845	0	0
2024-06-24 10:24:32			0	36334	0	0	0	25412	24030	145009	27090	1019046	42741	109399	0	0	8194	621041	0	0
2024-06-24 10:25:32			0	36311	0	0	0	25405	24040	145133	27118	1019063	42732	109396	0	0	8193	621979	0	0
2024-06-24 10:26:32			0	36314	0	0	0	25412	24020	145053	27105	1019037	42741	109399	0	0	8193	621923	0	0
2024-06-24 10:27:32			0	36305	0	0	0	25402	24020	145109	27587	1019010	42730	109395	0	0	8193	622304	0	0
2024-06-24 10:28:32			0	36294	0	0	0	25399	24020	145117	27102	1018975	42740	109394	0	0	8192	622770	0	0
2024-06-24 10:29:32			0	36271	0	0	0	25389	24020	145185	27379	1018948	42740	109390	0	0	8191	623745	0	0
2024-06-24 10:30:32			0	36249	0	0	0	25381	24020	145257	27222	1018984	42730	109387	0	0	8190	624679	0	0
2024-06-24 10:31:32			0	36224	0	0	0	25348	24010	145425	27066	1018878	42728	109374	0	0	8189	625777	0	0
2024-06-24 10:32:32			0	36196	0	0	0	25340	24000	145525	27379	1018807	42738	109371	0	0	8188	627004	0	0
2024-06-24 10:33:32			0	36150	0	0	0	25329	23980	145673	27199	1018835	42725	109367	0	0	8186	629036	0	0
2024-06-24 10:34:32			0	36113	0	0	0	25316	23990	145793	27227	1018825	42727	109362	0	0	8184	630581	0	0
2024-06-24 10:35:32			0	36090	0	0	0	25327	23980	146069	27029	1018799	42736	109366	0	0	8182	631601	0	0
2024-06-24 10:36:32			0	36028	0	0	0	25329	23970	146329	27147	1018791	42736	109367	0	0	8179	634295	0	0
2024-06-24 10:37:32			0	35980	0	0	0	25329	23970	146433	27239	1018764	42725	109367	0	0	8177	636358	0	0
2024-06-24 10:38:32			0	35941	0	0	0	25335	23970	146557	27124	1018809	42724	109369	0	0	8174	638038	0	0
2024-06-24 10:39:32			0	35891	0	0	0	25355	23980	146813	27242	1018826	42725	109377	0	0	8171	640161	0	0
2024-06-24 10:40:32			0	35853	0	0	0	25368	23970	146920	27149	1018791	42736	109382	0	0	8169	641841	0	0
2024-06-24 10:41:32			0	35814	0	0	0	25371	23980	147140	27154	1018879	42736	109383	0	0	8167	643495	0	0
2024-06-24 10:42:32			0	35791	0	0	0	25389	23980	147260	27248	1018879	42748	109390	0	0	8165	644493	0	0
2024-06-24 10:43:32			0	35745	0	0	0	25392	23980	147356	27194	1018835	42725	109391	0	0	8163	646494	0	0
2024-06-24 10:44:32			0	35724	0	0	0	25389	23980	147420	27286	1018799	42736	109390	0	0	8162	647408	0	0
2024-06-24 10:45:32			0	35701	0	0	0	25389	23980	147532	26883	1018879	42725	109390	0	0	8161	648411	0	0
2024-06-24 10:46:32			0	35675	0	0	0	25397	23980	147688	27381	1018888	42736	109393	0	0	8159	649546	0	0
2024-06-24 10:47:32			0	35662	0	0	0	25392	23990	147652	27048	1018843	42737	109391	0	0	8159	650077	0	0
2024-06-24 10:48:32			0	35652	0	0	0	25402	23980	147744	27332	1018915	42736	109395	0	0	8158	650551	0	0
2024-06-24 10:49:32			0	35623	0	0	0	25392	23980	147952	27204	1018861	42725	109391	0	0	8156	651819	0	0
2024-06-24 10:50:32			0	35605	0	0	0	25386	23980	148008	26955	1018861	42736	109389	0	0	8156	652608	0	0
2024-06-24 10:51:32			0	35595	0	0	0	25379	23980	148024	27159	1018861	42736	109386	0	0	8155	653046	0	0
2024-06-24 10:52:32			0	35577	0	0	0	25371	23980	148036	27535	1018808	42725	109383	0	0	8154	653836	0	0
2024-06-24 10:53:32			0	35570	0	0	0	25358	23970	148184	27296	1018729	42724	109378	0	0	8154	654180	0	0
2024-06-24 10:54:32			0	35546	0	0	0	25358	23970	148152	27313	1018817	42725	109378	0	0	8153	655234	0	0
2024-06-24 10:55:32			0	35558	0	0	0	25348	23970	148184	27523	1018729	42724	109374	0	0	8154	654707	0	0
2024-06-24 10:56:32			0	35528	0	0	0	25342	23960	148296	27008	1018658	42735	109372	0	0	8152	656063	0	0
2024-06-24 10:57:32			0	35534	0	0	0	25322	23950	148332	27225	1018676	42723	109364	0	0	8153	655836	0	0
2024-06-24 10:58:32			0	35533	0	0	0	25358	23950	148408	27045	1018730	42735	109378	0	0	8152	655880	0	0
2024-06-24 10:59:32			0	35518	0	0	0	25350	23950	148380	27145	1018694	42745	109375	0	0	8151	656540	0	0
2024-06-24 11:00:32			0	35501	0	0	0	25332	23940	148484	27135	1018624	42710	109368	0	0	8151	657326	0	0
2024-06-24 11:01:32			0	35524	0	0	0	25324	23950	148460	27194	1018614	42734	109365	0	0	8152	656276	0	0
2024-06-24 11:02:32			0	35492	0	0	0	25311	23930	148452	27098	1018641	42720	109360	0	0	8151	657759	0	0
2024-06-24 11:03:32			0	35495	0	0	0	25298	23940	148504	27248	1018597	42710	109355	0	0	8151	657590	0	0
2024-06-24 11:04:32			0	35500	0	0	0	25290	23920	148556	27156	1018544	42719	109352	0	0	8151	657444	0	0
2024-06-24 11:05:32			0	35495	0	0	0	25283	23920	148516	27109	1018517	42731	109349	0	0	8151	657664	0	0
2024-06-24 11:06:32			0	35497	0	0	0	25288	23920	148544	27156	1018517	42731	109351	0	0	8151	657576	0	0
2024-06-24 11:07:32			0	35484	0	0	0	25283	23910	148520	27175	1018527	42719	109349	0	0	8151	658186	0	0
2024-06-24 11:08:32			0	35490	0	0	0	25290	23910	148656	27076	1018527	42719	109352	0	0	8151	657921	0	0
2024-06-24 11:09:32			0	35500	0	0	0	25280	23900	148456	27183	1018563	42718	109348	0	0	8151	657518	0	0
2024-06-24 11:10:32			0	35492	0	0	0	25288	23910	148536	27367	1018527	42708	109351	0	0	8151	657833	0	0
2024-06-24 11:11:32			0	35497	0	0	0	25296	23910	148548	27379	1018545	42730	109354	0	0	8151	657613	0	0
2024-06-24 11:12:32			0	35505	0	0	0	25303	23910	148472	27100	1018545	42741	109357	0	0	8151	657260	0	0
2024-06-24 11:13:32			0	35517	0	0	0	25303	23910	148552	27074	1018598	42730	109357	0	0	8152	656732	0	0
2024-06-24 11:14:32			0	35510	0	0	0	25309	23900	148504	27300	1018483	42729	109359	0	0	8151	657077	0	0
2024-06-24 11:15:32			0	35509	0	0	0	25316	23920	148536	27222	1018509	42719	109362	0	0	8151	657047	0	0
2024-06-24 11:16:32			0	35515	0	0	0	25309	23900	148472	27090	1018554	42717	109359	0	0	8152	656857	0	0
2024-06-24 11:17:32			0	35515	0	0	0	25309	23910	148428	27131	1018553	42730	109359	0	0	8152	656820	0	0
2024-06-24 11:18:32			0	35530	0	0	0	25319	23910	148336	27284	1018607	42719	109363	0	0	8152	656160	0	0
2024-06-24 11:19:32			0	35554	0	0	0	25322	23910	148376	27248	1018580	42741	109364	0	0	8154	655104	0	0
2024-06-24 11:20:32			0	35541	0	0	0	25332	23920	148248	27379	1018642	42719	109368	0	0	8153	655639	0	0
2024-06-24 11:21:32			0	35556	0	0	0	25337	23920	148224	27020	1018651	42731	109370	0	0	8154	654980	0	0
2024-06-24 11:22:32			0	35572	0	0	0	25337	23920	148184	27272	1018624	42742	109370	0	0	8154	654277	0	0
2024-06-24 11:23:32			0	35569	0	0	0	25340	23920	148164	27326	1018669	42719	109371	0	0	8154	654408	0	0
2024-06-24 11:24:32			0	35588	0	0	0	25342	23920	148104	27319	1018642	42730	109372	0	0	8155	653574	0	0
2024-06-24 11:25:32			0	35588	0	0	0	25332	23920	148064	27416	1018624	42719	109368	0	0	8155	653574	0	0
2024-06-24 11:26:32			0	35600	0	0	0	25327	23920	148012	27287	1018642	42719	109366	0	0	8156	653048	0	0
2024-06-24 11:27:32			0	35615	0	0	0	25337	23930	148052	27306	1018633	42743	109370	0	0	8157	652354	0	0
2024-06-24 11:28:32			0	35632	0	0	0	25335	23930	147936	27022	1018686	42732	109369	0	0	8158	651609	0	0
2024-06-24 11:29:32			0	35626	0	0	0	25337	23930	147876	27391	1018668	42732	109370	0	0	8157	651872	0	0
2024-06-24 11:30:32			0	35645	0	0	0	25345	23920	147804	27317	1018678	42719	109373	0	0	8158	651077	0	0
2024-06-24 11:31:32			0	35653	0	0	0	25345	23930	147740	27327	1018641	42720	109373	0	0	8159	650690	0	0
2024-06-24 11:32:32			0	35668	0	0	0	25353	23940	147740	27417	1018650	42733	109376	0	0	8159	649998	0	0
2024-06-24 11:33:32			0	35686	0	0	0	25350	23930	147692	27559	1018668	42732	109375	0	0	8160	649248	0	0
2024-06-24 11:34:32			0	35705	0	0	0	25345	23940	147632	27405	1018704	42721	109373	0	0	8161	648382	0	0
2024-06-24 11:35:32			0	35690	0	0	0	25358	23940	147664	27362	1018730	42733	109378	0	0	8160	649037	0	0
2024-06-24 11:36:32			0	35717	0	0	0	25361	23940	147628	27282	1018686	42733	109379	0	0	8162	647859	0	0
2024-06-24 11:37:32			0	35713	0	0	0	25366	23950	147584	27246	1018721	42734	109381	0	0	8162	647997	0	0
2024-06-24 11:38:32			0	35739	0	0	0	25366	23940	147440	27126	1018739	42733	109381	0	0	8163	646901	0	0
2024-06-24 11:39:32			0	35747	0	0	0	25366	23940	147396	27046	1018766	42733	109381	0	0	8163	646552	0	0
2024-06-24 11:40:32			0	35768	0	0	0	25366	23950	147312	27450	1018721	42745	109381	0	0	8165	645602	0	0
2024-06-24 11:41:32			0	35755	0	0	0	25353	23940	147368	27203	1018739	42744	109376	0	0	8164	646204	0	0
2024-06-24 11:42:32			0	35780	0	0	0	25366	23950	147320	27156	1018774	42734	109381	0	0	8165	645080	0	0
2024-06-24 11:43:32			0	35770	0	0	0	25368	23950	147200	27039	1018756	42746	109382	0	0	8165	645515	0	0
2024-06-24 11:44:32			0	35786	0	0	0	25368	23950	147228	27170	1018748	42745	109382	0	0	8165	644820	0	0
2024-06-24 11:45:32			0	35809	0	0	0	25363	23960	147124	27253	1018792	42735	109380	0	0	8167	643785	0	0
2024-06-24 11:46:32			0	35819	0	0	0	25374	23950	147064	26934	1018721	42734	109384	0	0	8167	643387	0	0
2024-06-24 11:47:32			0	35831	0	0	0	25363	23950	147048	27111	1018756	42735	109380	0	0	8168	642867	0	0
2024-06-24 11:48:32			0	35845	0	0	0	25366	23970	146952	27059	1018809	42735	109381	0	0	8169	642187	0	0
2024-06-24 11:49:32			0	35858	0	0	0	25361	23940	147013	27327	1018766	42733	109379	0	0	8169	641733	0	0
2024-06-24 11:50:32			0	35860	0	0	0	25366	23960	146917	26975	1018765	42746	109381	0	0	8169	641574	0	0
2024-06-24 11:51:32			0	35871	0	0	0	25374	23960	147065	27123	1018773	42723	109384	0	0	8170	641098	0	0
2024-06-24 11:52:32			0	35874	0	0	0	25384	23960	146957	27422	1018800	42723	109388	0	0	8170	640968	0	0
2024-06-24 11:53:32			0	35887	0	0	0	25386	23960	146845	27220	1018845	42746	109389	0	0	8171	640406	0	0
2024-06-24 11:54:32			0	35879	0	0	0	25389	23960	146897	27111	1018854	42735	109390	0	0	8170	640752	0	0
2024-06-24 11:55:32			0	35899	0	0	0	25402	23970	146865	27001	1018924	42748	109395	0	0	8171	639851	0	0
2024-06-24 11:56:32			0	35901	0	0	0	25399	23970	146845	27376	1018844	42748	109394	0	0	8171	639765	0	0
2024-06-24 11:57:32			0	35898	0	0	0	25405	23970	146805	27464	1018924	42748	109396	0	0	8171	639895	0	0
2024-06-24 11:58:32			0	35902	0	0	0	25412	23980	146769	27199	1018933	42736	109399	0	0	8171	639686	0	0
2024-06-24 11:59:32			0	35908	0	0	0	25412	23980	146829	27039	1018933	42736	109399	0	0	8171	639427	0	0
2024-06-24 12:00:32			0	35911	0	0	0	25423	23990	146721	27206	1018950	42737	109403	0	0	8171	639261	0	0
2024-06-24 12:01:32			0	35904	0	0	0	25415	23990	146773	27175	1018905	42750	109400	0	0	8171	639563	0	0
2024-06-24 12:02:32			0	35939	0	0	0	25418	23990	146657	27197	1018950	42749	109401	0	0	8173	638053	0	0
2024-06-24 12:03:32			0	35931	0	0	0	25420	23990	146653	27083	1018932	42750	109402	0	0	8172	638398	0	0
2024-06-24 12:04:32			0	35938	0	0	0	25420	23990	146609	27322	1019012	42727	109402	0	0	8173	638096	0	0
2024-06-24 12:05:32			0	35932	0	0	0	25418	23990	146569	27516	1018959	42738	109401	0	0	8173	638355	0	0
2024-06-24 12:06:32			0	35941	0	0	0	25423	23990	146581	27251	1019012	42750	109403	0	0	8173	637966	0	0
2024-06-24 12:07:32			0	35961	0	0	0	25428	24000	146573	27441	1019074	42738	109405	0	0	8174	637069	0	0
2024-06-24 12:08:32			0	35961	0	0	0	25423	24000	146541	27213	1019056	42750	109403	0	0	8174	637069	0	0
2024-06-24 12:09:32			0	35941	0	0	0	25433	24000	146605	27079	1018941	42750	109407	0	0	8173	637930	0	0
2024-06-24 12:10:32			0	35962	0	0	0	25423	24010	146509	26915	1019011	42739	109403	0	0	8174	636990	0	0
2024-06-24 12:11:32			0	35979	0	0	0	25431	24010	146457	27107	1019011	42739	109406	0	0	8175	636258	0	0
2024-06-24 12:12:32			0	35974	0	0	0	25431	24010	146481	26977	1019065	42750	109406	0	0	8175	636473	0	0
2024-06-24 12:13:32			0	35985	0	0	0	25428	24010	146441	27216	1019047	42750	109405	0	0	8175	636000	0	0
2024-06-24 12:14:32			0	35981	0	0	0	25441	24010	146341	27331	1019073	42762	109410	0	0	8175	636172	0	0
2024-06-24 12:15:32			0	35997	0	0	0	25438	24020	146381	27329	1019109	42740	109409	0	0	8176	635448	0	0
2024-06-24 12:16:32			0	35995	0	0	0	25433	24010	146357	27280	1019038	42739	109407	0	0	8176	635570	0	0
2024-06-24 12:17:32			0	35998	0	0	0	25433	24010	146285	27339	1019100	42740	109407	0	0	8176	635441	0	0
2024-06-24 12:18:32			0	36002	0	0	0	25441	24010	146357	27315	1019020	42740	109410	0	0	8176	635269	0	0
2024-06-24 12:19:32			0	36019	0	0	0	25436	24020	146345	27504	1019064	42741	109408	0	0	8177	634502	0	0
2024-06-24 12:20:32			0	36021	0	0	0	25431	24020	146241	27265	1019028	42729	109406	0	0	8177	634417	0	0
2024-06-24 12:21:32			0	36034	0	0	0	25428	24020	146245	27192	1019055	42729	109405	0	0	8178	633859	0	0
2024-06-24 12:22:32			0	36032	0	0	0	25428	24010	146205	27235	1019047	42729	109405	0	0	8178	633980	0	0
2024-06-24 12:23:32			0	36039	0	0	0	25441	24000	146229	27078	1019056	42739	109410	0	0	8178	633715	0	0
2024-06-24 12:24:32			0	36064	0	0	0	25431	24020	146205	26960	1019064	42751	109406	0	0	8179	632572	0	0
2024-06-24 12:25:32			0	36040	0	0	0	25428	24020	146197	26998	1019082	42750	109405	0	0	8178	633601	0	0
2024-06-24 12:26:32			0	36057	0	0	0	25431	24010	146169	27150	1019073	42750	109406	0	0	8179	632908	0	0
2024-06-24 12:27:32			0	36073	0	0	0	25438	24020	146165	27007	1019109	42750	109409	0	0	8180	632186	0	0
2024-06-24 12:28:32			0	36067	0	0	0	25425	24020	146129	27242	1019028	42740	109404	0	0	8180	632443	0	0
2024-06-24 12:29:32			0	36079	0	0	0	25431	24020	146137	27249	1019064	42751	109406	0	0	8180	631930	0	0
2024-06-24 12:30:32			0	36064	0	0	0	25433	24010	145997	27410	1019073	42750	109407	0	0	8179	632608	0	0
2024-06-24 12:31:32			0	36077	0	0	0	25436	24020	146045	27336	1019037	42751	109408	0	0	8180	632015	0	0
2024-06-24 12:32:32			0	36087	0	0	0	25428	24010	145941	27251	1019047	42729	109405	0	0	8181	631623	0	0
2024-06-24 12:33:32			0	36100	0	0	0	25431	24010	145893	27253	1019100	42740	109406	0	0	8181	631066	0	0
2024-06-24 12:34:32			0	36105	0	0	0	25428	24020	145965	27171	1019037	42730	109405	0	0	8182	630817	0	0
2024-06-24 12:35:32			0	36106	0	0	0	25428	24020	145905	27126	1019037	42741	109405	0	0	8182	630774	0	0
2024-06-24 12:36:32			0	36119	0	0	0	25418	24020	145929	27220	1019055	42740	109401	0	0	8183	630218	0	0
2024-06-24 12:37:32			0	36126	0	0	0	25418	24020	145829	26882	1019064	42741	109401	0	0	8183	629919	0	0
2024-06-24 12:38:32			0	36145	0	0	0	25433	24020	145809	27069	1019082	42740	109407	0	0	8184	629108	0	0
2024-06-24 12:39:32			0	36117	0	0	0	25431	24020	145805	27241	1019064	42741	109406	0	0	8182	630304	0	0
2024-06-24 12:40:32			0	36148	0	0	0	25433	24020	145765	26901	1019109	42750	109407	0	0	8184	628980	0	0
2024-06-24 12:41:32			0	36128	0	0	0	25436	24020	145689	27173	1019117	42730	109408	0	0	8183	629834	0	0
2024-06-24 12:42:32			0	36139	0	0	0	25441	24030	145709	27043	1019126	42751	109410	0	0	8183	629328	0	0
2024-06-24 12:43:32			0	36161	0	0	0	25433	24030	145661	27133	1019108	42752	109407	0	0	8185	628390	0	0
2024-06-24 12:44:32			0	36162	0	0	0	25441	24030	145677	27164	1019179	42730	109410	0	0	8185	628347	0	0
2024-06-24 12:45:32			0	36166	0	0	0	25459	24030	145809	27116	1019179	42751	109417	0	0	8184	628176	0	0
2024-06-24 12:46:32			0	36134	0	0	0	25485	24040	145733	27256	1019250	42765	109427	0	0	8182	629506	0	0
2024-06-24 12:47:32			0	36135	0	0	0	25506	24070	145757	27371	1019293	42766	109435	0	0	8182	629357	0	0
2024-06-24 12:48:32			0	36136	0	0	0	25514	24070	145809	27270	1019374	42766	109438	0	0	8182	629315	0	0
2024-06-24 12:49:32			0	36124	0	0	0	25516	24070	145737	27341	1019382	42767	109439	0	0	8181	629827	0	0
2024-06-24 12:50:32			0	36151	0	0	0	25522	24080	145717	27384	1019444	42767	109441	0	0	8183	628639	0	0
2024-06-24 12:51:32			0	36141	0	0	0	25535	24090	145673	27062	1019488	42747	109446	0	0	8182	629030	0	0
2024-06-24 12:52:32			0	36170	0	0	0	25548	24090	145725	27230	1019497	42758	109451	0	0	8183	627793	0	0
2024-06-24 12:53:32			0	36160	0	0	0	25558	24100	145601	27022	1019567	42759	109455	0	0	8183	628184	0	0
2024-06-24 12:54:32			0	36160	0	0	0	25563	24110	145621	27081	1019576	42748	109457	0	0	8183	628149	0	0
2024-06-24 12:55:32			0	36187	0	0	0	25563	24120	145525	27260	1019567	42772	109457	0	0	8184	626963	0	0
2024-06-24 12:56:32			0	36162	0	0	0	25568	24110	145585	27307	1019665	42760	109459	0	0	8183	628064	0	0
2024-06-24 12:57:32			0	36197	0	0	0	25579	24120	145621	27284	1019655	42761	109463	0	0	8184	626537	0	0
2024-06-24 12:58:32			0	36209	0	0	0	25576	24120	145557	27324	1019629	42772	109462	0	0	8185	626027	0	0
2024-06-24 12:59:32			0	36228	0	0	0	25576	24130	145449	27412	1019619	42773	109462	0	0	8186	625184	0	0
2024-06-24 13:00:32			0	36253	0	0	0	25566	24130	145293	27204	1019584	42739	109458	0	0	8188	624122	0	0
2024-06-24 13:01:32			0	36257	0	0	0	25561	24130	145113	27258	1019619	42750	109456	0	0	8188	623952	0	0
2024-06-24 13:02:32			0	36292	0	0	0	25553	24130	145037	27138	1019646	42762	109453	0	0	8190	622468	0	0
2024-06-24 13:03:32			0	36327	0	0	0	25550	24130	144941	27045	1019664	42761	109452	0	0	8192	620987	0	0
2024-06-24 13:04:32			0	36342	0	0	0	25563	24140	144897	27026	1019628	42751	109457	0	0	8192	620318	0	0
2024-06-24 13:05:32			0	36372	0	0	0	25558	24140	144897	27175	1019681	42762	109455	0	0	8194	619051	0	0
2024-06-24 13:06:32			0	36358	0	0	0	25563	24140	144813	27078	1019690	42741	109457	0	0	8193	619642	0	0
2024-06-24 13:07:32			0	36354	0	0	0	25558	24140	144745	27338	1019636	42762	109455	0	0	8193	619811	0	0
2024-06-24 13:08:32			0	36421	0	0	0	25555	24150	144581	27396	1019672	42752	109454	0	0	8197	616950	0	0
2024-06-24 13:09:32			0	36446	0	0	0	25553	24140	144501	27225	1019663	42751	109453	0	0	8198	615933	0	0
2024-06-24 13:10:32			0	36458	0	0	0	25561	24130	144501	27275	1019611	42772	109456	0	0	8199	615464	0	0
2024-06-24 13:11:32			0	36475	0	0	0	25563	24150	144465	27294	1019698	42763	109457	0	0	8200	614680	0	0
2024-06-24 13:12:32			0	36492	0	0	0	25563	24140	144345	27365	1019717	42762	109457	0	0	8200	614001	0	0
2024-06-24 13:13:32			0	36485	0	0	0	25558	24140	144333	27493	1019690	42751	109455	0	0	8200	614295	0	0
2024-06-24 13:14:32			0	36494	0	0	0	25566	24150	144257	27251	1019672	42763	109458	0	0	8200	613883	0	0
2024-06-24 13:15:32			0	36504	0	0	0	25563	24150	144337	27371	1019752	42763	109457	0	0	8201	613463	0	0
2024-06-24 13:16:32			0	36494	0	0	0	25566	24140	144313	27691	1019690	42762	109458	0	0	8200	613917	0	0
2024-06-24 13:17:32			0	36502	0	0	0	25558	24150	144289	27514	1019698	42775	109455	0	0	8201	613547	0	0
2024-06-24 13:18:32			0	36496	0	0	0	25558	24140	144253	27542	1019690	42741	109455	0	0	8201	613833	0	0
2024-06-24 13:19:32			0	36502	0	0	0	25563	24150	144225	27343	1019707	42763	109457	0	0	8201	613547	0	0
2024-06-24 13:20:32			0	36522	0	0	0	25561	24150	144257	27241	1019680	42763	109456	0	0	8202	612709	0	0
2024-06-24 13:21:32			0	36500	0	0	0	25561	24150	144201	27145	1019725	42775	109456	0	0	8201	613631	0	0
2024-06-24 13:22:32			0	36554	0	0	0	25553	24150	144093	27176	1019654	42752	109453	0	0	8204	611369	0	0
2024-06-24 13:23:32			0	36557	0	0	0	25553	24140	144121	27485	1019690	42751	109453	0	0	8204	611278	0	0
2024-06-24 13:24:32			0	36603	0	0	0	25545	24160	144014	27242	1019662	42764	109450	0	0	8207	609287	0	0
2024-06-24 13:25:32			0	36615	0	0	0	25542	24150	144010	27005	1019680	42763	109449	0	0	8207	608820	0	0
2024-06-24 13:26:32			0	36639	0	0	0	25545	24150	143910	27307	1019698	42752	109450	0	0	8208	607820	0	0
2024-06-24 13:27:32			0	36640	0	0	0	25537	24150	143746	27092	1019672	42752	109447	0	0	8209	607778	0	0
2024-06-24 13:28:32			0	36667	0	0	0	25545	24140	143794	27258	1019717	42751	109450	0	0	8210	606688	0	0
2024-06-24 13:29:32			0	36644	0	0	0	25558	24150	143710	27438	1019672	42763	109455	0	0	8209	607611	0	0
2024-06-24 13:30:32			0	36632	0	0	0	25545	24150	143762	27180	1019752	42763	109450	0	0	8208	608112	0	0
2024-06-24 13:31:32			0	36625	0	0	0	25566	24150	143818	27241	1019725	42775	109458	0	0	8207	608403	0	0
2024-06-24 13:32:32			0	36597	0	0	0	25571	24150	143977	27336	1019779	42752	109460	0	0	8206	609572	0	0
2024-06-24 13:33:32			0	36587	0	0	0	25566	24150	143985	27303	1019654	42763	109458	0	0	8205	609989	0	0
2024-06-24 13:34:32			0	36578	0	0	0	25566	24160	144033	27355	1019742	42764	109458	0	0	8205	610331	0	0
2024-06-24 13:35:32			0	36567	0	0	0	25561	24150	144009	27445	1019698	42763	109456	0	0	8204	610825	0	0
2024-06-24 13:36:32			0	36570	0	0	0	25568	24150	143933	27131	1019707	42752	109459	0	0	8204	610700	0	0
2024-06-24 13:37:32			0	36594	0	0	0	25563	24160	143889	27417	1019716	42753	109457	0	0	8206	609663	0	0
2024-06-24 13:38:32			0	36616	0	0	0	25561	24150	143778	27282	1019654	42752	109456	0	0	8207	608779	0	0
2024-06-24 13:39:32			0	36641	0	0	0	25553	24150	143814	27325	1019672	42752	109453	0	0	8208	607737	0	0
2024-06-24 13:40:32			0	36639	0	0	0	25558	24160	143730	27196	1019716	42753	109455	0	0	8208	607786	0	0
2024-06-24 13:41:32			0	36655	0	0	0	25555	24150	143706	27407	1019698	42752	109454	0	0	8209	607153	0	0
2024-06-24 13:42:32			0	36644	0	0	0	25561	24150	143702	26870	1019761	42752	109456	0	0	8208	607611	0	0
2024-06-24 13:43:32			0	36645	0	0	0	25555	24160	143722	27279	1019769	42753	109454	0	0	8209	607536	0	0
2024-06-24 13:44:32			0	36647	0	0	0	25555	24140	143698	27183	1019690	42762	109454	0	0	8209	607521	0	0
2024-06-24 13:45:32			0	36677	0	0	0	25558	24150	143658	27161	1019698	42752	109455	0	0	8210	606238	0	0
2024-06-24 13:46:32			0	36703	0	0	0	25553	24140	143630	27150	1019663	42774	109453	0	0	8212	605191	0	0
2024-06-24 13:47:32			0	36698	0	0	0	25555	24150	143606	27313	1019698	42752	109454	0	0	8211	605365	0	0
2024-06-24 13:48:32			0	36700	0	0	0	25553	24160	143570	27346	1019635	42753	109453	0	0	8212	605247	0	0
2024-06-24 13:49:32			0	36698	0	0	0	25550	24140	143538	27241	1019735	42762	109452	0	0	8211	605399	0	0
2024-06-24 13:50:32			0	36695	0	0	0	25555	24140	143582	27345	1019690	42751	109454	0	0	8211	605524	0	0
2024-06-24 13:51:32			0	36668	0	0	0	25558	24150	143658	27161	1019672	42763	109455	0	0	8210	606612	0	0
2024-06-24 13:52:32			0	36669	0	0	0	25563	24150	143638	27053	1019645	42775	109457	0	0	8210	606571	0	0
2024-06-24 13:53:32			0	36658	0	0	0	25561	24150	143654	27300	1019698	42763	109456	0	0	8209	607028	0	0
2024-06-24 13:54:32			0	36644	0	0	0	25563	24150	143746	27448	1019654	42786	109457	0	0	8208	607611	0	0
2024-06-24 13:55:32			0	36630	0	0	0	25568	24160	143734	27286	1019769	42753	109459	0	0	8208	608161	0	0
2024-06-24 13:56:32			0	36624	0	0	0	25566	24160	143850	27175	1019689	42764	109458	0	0	8207	608411	0	0
2024-06-24 13:57:32			0	36637	0	0	0	25555	24150	143898	27012	1019787	42786	109454	0	0	8208	607903	0	0
2024-06-24 13:58:32			0	36635	0	0	0	25561	24160	143894	27203	1019742	42764	109456	0	0	8208	607952	0	0
2024-06-24 13:59:32			0	36647	0	0	0	25563	24160	143822	27072	1019751	42764	109457	0	0	8209	607452	0	0
2024-06-24 14:00:32			0	36636	0	0	0	25573	24160	143854	26920	1019716	42776	109461	0	0	8208	607910	0	0
2024-06-24 14:01:32			0	36611	0	0	0	25573	24150	143878	27248	1019707	42763	109461	0	0	8207	608987	0	0
2024-06-24 14:02:32			0	36606	0	0	0	25573	24170	143878	27059	1019867	42765	109461	0	0	8206	609127	0	0
2024-06-24 14:03:32			0	36603	0	0	0	25579	24160	143970	27223	1019885	42776	109463	0	0	8206	609287	0	0
2024-06-24 14:04:32			0	36612	0	0	0	25589	24170	144018	27055	1019813	42765	109467	0	0	8206	608877	0	0
2024-06-24 14:05:32			0	36583	0	0	0	25605	24180	144053	27135	1019857	42766	109473	0	0	8205	610053	0	0
2024-06-24 14:06:32			0	36552	0	0	0	25623	24180	144169	27429	1019911	42789	109480	0	0	8203	611349	0	0
2024-06-24 14:07:32			0	36537	0	0	0	25610	24190	144133	27324	1019928	42767	109475	0	0	8202	611942	0	0
2024-06-24 14:08:32			0	36539	0	0	0	25620	24180	144169	27386	1019999	42767	109479	0	0	8202	611893	0	0
2024-06-24 14:09:32			0	36558	0	0	0	25628	24190	144097	26970	1019982	42778	109482	0	0	8203	611064	0	0
2024-06-24 14:10:32			0	36544	0	0	0	25649	24190	144153	27447	1020070	42767	109490	0	0	8202	611649	0	0
2024-06-24 14:11:32			0	36521	0	0	0	25654	24210	144253	27152	1020078	42780	109492	0	0	8201	612543	0	0
2024-06-24 14:12:32			0	36511	0	0	0	25675	24210	144321	27121	1020158	42780	109500	0	0	8200	612962	0	0
2024-06-24 14:13:32			0	36466	0	0	0	25688	24220	144397	27362	1020176	42782	109505	0	0	8197	614815	0	0
2024-06-24 14:14:32			0	36448	0	0	0	25698	24240	144453	27345	1020228	42793	109509	0	0	8196	615502	0	0
2024-06-24 14:15:32			0	36463	0	0	0	25703	24240	144549	27201	1020228	42772	109511	0	0	8197	614872	0	0
2024-06-24 14:16:32			0	36487	0	0	0	25709	24240	144417	27364	1020317	42784	109513	0	0	8198	613864	0	0
2024-06-24 14:17:32			0	36501	0	0	0	25722	24250	144269	27371	1020334	42774	109518	0	0	8199	613243	0	0
2024-06-24 14:18:32			0	36525	0	0	0	25735	24260	144229	27315	1020351	42786	109523	0	0	8200	612203	0	0
2024-06-24 14:19:32			0	36523	0	0	0	25727	24280	144137	27395	1020457	42775	109520	0	0	8200	612217	0	0
2024-06-24 14:20:32			0	36541	0	0	0	25740	24280	144161	27315	1020413	42776	109525	0	0	8201	611464	0	0
2024-06-24 14:21:32			0	36589	0	0	0	25735	24300	144037	27511	1020439	42766	109523	0	0	8203	609390	0	0
2024-06-24 14:22:32			0	36613	0	0	0	25727	24300	143834	27398	1020421	42778	109520	0	0	8205	608389	0	0
2024-06-24 14:23:32			0	36634	0	0	0	25722	24300	143730	27346	1020385	42777	109518	0	0	8206	607514	0	0
2024-06-24 14:24:32			0	36666	0	0	0	25719	24290	143534	27176	1020403	42789	109517	0	0	8208	606216	0	0
2024-06-24 14:25:32			0	36700	0	0	0	25711	24300	143626	27435	1020439	42777	109514	0	0	8210	604769	0	0
2024-06-24 14:26:32			0	36706	0	0	0	25716	24300	143402	27367	1020439	42789	109516	0	0	8210	604520	0	0
2024-06-24 14:27:32			0	36704	0	0	0	25698	24290	143442	27183	1020457	42789	109509	0	0	8210	604637	0	0
2024-06-24 14:28:32			0	36704	0	0	0	25714	24310	143490	27422	1020456	42768	109515	0	0	8210	604569	0	0
2024-06-24 14:29:32			0	36687	0	0	0	25727	24300	143518	27339	1020474	42778	109520	0	0	8209	605309	0	0
2024-06-24 14:30:32			0	36659	0	0	0	25745	24320	143698	27395	1020554	42791	109527	0	0	8207	606405	0	0
2024-06-24 14:31:32			0	36636	0	0	0	25748	24320	143710	27189	1020652	42791	109528	0	0	8206	607362	0	0
2024-06-24 14:32:32			0	36627	0	0	0	25753	24330	143862	27166	1020562	42780	109530	0	0	8205	607702	0	0
2024-06-24 14:33:32			0	36590	0	0	0	25750	24330	143901	27145	1020625	42791	109529	0	0	8203	609245	0	0
2024-06-24 14:34:32			0	36584	0	0	0	25750	24330	143949	27282	1020571	42781	109529	0	0	8203	609495	0	0
2024-06-24 14:35:32			0	36577	0	0	0	25755	24340	143921	27464	1020580	42792	109531	0	0	8202	609753	0	0
2024-06-24 14:36:32			0	36567	0	0	0	25758	24350	143953	27355	1020650	42771	109532	0	0	8202	610136	0	0
2024-06-24 14:37:32			0	36563	0	0	0	25771	24340	144085	27512	1020668	42782	109537	0	0	8201	610337	0	0
2024-06-24 14:38:32			0	36552	0	0	0	25776	24340	144085	27336	1020695	42792	109539	0	0	8201	610797	0	0
2024-06-24 14:39:32			0	36532	0	0	0	25781	24360	144053	27384	1020668	42794	109541	0	0	8200	611564	0	0
2024-06-24 14:40:32			0	36513	0	0	0	25786	24360	144137	27438	1020748	42794	109543	0	0	8199	612359	0	0
2024-06-24 14:41:32			0	36489	0	0	0	25789	24360	144225	27509	1020730	42794	109544	0	0	8197	613365	0	0
2024-06-24 14:42:32			0	36493	0	0	0	25784	24370	144261	27071	1020819	42784	109542	0	0	8198	613162	0	0
2024-06-24 14:43:32			0	36491	0	0	0	25781	24370	144181	27499	1020747	42795	109541	0	0	8198	613246	0	0
2024-06-24 14:44:32			0	36482	0	0	0	25779	24360	144165	27422	1020756	42794	109540	0	0	8197	613658	0	0
2024-06-24 14:45:32			0	36489	0	0	0	25784	24380	144181	27348	1020809	42796	109542	0	0	8198	613295	0	0
2024-06-24 14:46:32			0	36477	0	0	0	25779	24380	144269	27400	1020756	42796	109540	0	0	8197	613798	0	0
2024-06-24 14:47:32			0	36487	0	0	0	25774	24380	144289	27208	1020809	42774	109538	0	0	8198	613379	0	0
2024-06-24 14:48:32			0	36484	0	0	0	25784	24380	144265	27313	1020782	42796	109542	0	0	8197	613505	0	0
2024-06-24 14:49:32			0	36464	0	0	0	25781	24380	144321	27346	1020809	42774	109541	0	0	8196	614344	0	0
2024-06-24 14:50:32			0	36470	0	0	0	25784	24390	144333	27000	1020746	42797	109542	0	0	8197	614057	0	0
2024-06-24 14:51:32			0	36463	0	0	0	25774	24370	144377	27334	1020800	42785	109538	0	0	8196	614420	0	0
2024-06-24 14:52:32			0	36462	0	0	0	25774	24380	144341	27197	1020729	42786	109538	0	0	8196	614428	0	0
2024-06-24 14:53:32			0	36457	0	0	0	25774	24380	144317	26963	1020836	42786	109538	0	0	8196	614637	0	0
2024-06-24 14:54:32			0	36479	0	0	0	25768	24390	144309	27034	1020808	42787	109536	0	0	8197	613680	0	0
2024-06-24 14:55:32			0	36467	0	0	0	25753	24380	144325	27078	1020729	42796	109530	0	0	8197	614218	0	0
2024-06-24 14:56:32			0	36474	0	0	0	25748	24370	144305	27137	1020774	42785	109528	0	0	8197	613959	0	0
2024-06-24 14:57:32			0	36468	0	0	0	25740	24370	144297	27229	1020693	42785	109525	0	0	8197	614211	0	0
2024-06-24 14:58:32			0	36497	0	0	0	25742	24380	144245	27298	1020702	42774	109526	0	0	8199	612960	0	0
2024-06-24 14:59:32			0	36487	0	0	0	25742	24370	144245	27313	1020747	42785	109526	0	0	8198	613414	0	0
2024-06-24 15:00:32			0	36487	0	0	0	25737	24370	144177	26743	1020712	42784	109524	0	0	8198	613414	0	0
2024-06-24 15:01:32			0	36504	0	0	0	25742	24370	144173	27211	1020712	42773	109526	0	0	8199	612701	0	0
2024-06-24 15:02:32			0	36510	0	0	0	25724	24370	144137	27447	1020712	42794	109519	0	0	8200	612450	0	0
2024-06-24 15:03:32			0	36504	0	0	0	25719	24360	144161	27248	1020641	42761	109517	0	0	8199	612736	0	0
2024-06-24 15:04:32			0	36529	0	0	0	25706	24350	143989	27157	1020632	42793	109512	0	0	8201	611724	0	0
2024-06-24 15:05:32			0	36538	0	0	0	25693	24350	143977	27102	1020543	42771	109507	0	0	8202	611348	0	0
2024-06-24 15:06:32			0	36543	0	0	0	25693	24350	143929	26889	1020552	42750	109507	0	0	8202	611139	0	0
2024-06-24 15:07:32			0	36578	0	0	0	25664	24340	143825	27211	1020392	42759	109496	0	0	8204	609711	0	0
2024-06-24 15:08:32			0	36605	0	0	0	25644	24320	143758	27053	1020367	42757	109488	0	0	8206	608653	0	0
2024-06-24 15:09:32			0	36647	0	0	0	25636	24310	143586	27291	1020376	42757	109485	0	0	8208	606938	0	0
2024-06-24 15:10:32			0	36654	0	0	0	25633	24320	143514	27017	1020358	42769	109484	0	0	8208	606613	0	0
2024-06-24 15:11:32			0	36676	0	0	0	25620	24300	143406	27171	1020305	42766	109479	0	0	8210	605766	0	0
2024-06-24 15:12:32			0	36695	0	0	0	25618	24290	143386	27197	1020269	42755	109478	0	0	8211	605011	0	0
2024-06-24 15:13:32			0	36702	0	0	0	25599	24290	143406	27182	1020207	42755	109471	0	0	8211	604720	0	0
2024-06-24 15:14:32			0	36703	0	0	0	25581	24260	143342	26927	1020084	42752	109464	0	0	8212	604781	0	0
2024-06-24 15:15:32			0	36710	0	0	0	25563	24250	143398	27223	1020067	42762	109457	0	0	8212	604525	0	0
2024-06-24 15:16:32			0	36725	0	0	0	25558	24240	143502	27055	1020068	42750	109455	0	0	8213	603937	0	0
2024-06-24 15:17:32			0	36709	0	0	0	25548	24240	143514	27093	1020014	42739	109451	0	0	8212	604601	0	0
2024-06-24 15:18:32			0	36710	0	0	0	25540	24220	143498	27258	1019953	42748	109448	0	0	8213	604627	0	0
2024-06-24 15:19:32			0	36683	0	0	0	25553	24210	143598	27218	1019891	42747	109453	0	0	8211	605783	0	0
2024-06-24 15:20:32			0	36674	0	0	0	25550	24220	143598	26887	1020006	42748	109452	0	0	8211	606123	0	0
2024-06-24 15:21:32			0	36659	0	0	0	25537	24200	143646	27341	1019900	42747	109447	0	0	8210	606816	0	0
2024-06-24 15:22:32			0	36652	0	0	0	25542	24200	143726	27241	1019927	42747	109449	0	0	8209	607107	0	0
2024-06-24 15:23:32			0	36642	0	0	0	25532	24190	143782	26892	1019803	42745	109445	0	0	8209	607558	0	0
2024-06-24 15:24:32			0	36629	0	0	0	25511	24190	143810	27118	1019741	42745	109437	0	0	8209	608099	0	0
2024-06-24 15:25:32			0	36626	0	0	0	25501	24180	143882	27050	1019723	42755	109433	0	0	8209	608259	0	0
2024-06-24 15:26:32			0	36631	0	0	0	25496	24180	143946	27126	1019697	42745	109431	0	0	8209	608050	0	0
2024-06-24 15:27:32			0	36613	0	0	0	25490	24160	143882	27381	1019635	42753	109429	0	0	8208	608870	0	0
2024-06-24 15:28:32			0	36610	0	0	0	25490	24160	143946	26998	1019635	42743	109429	0	0	8208	608995	0	0
2024-06-24 15:29:32			0	36598	0	0	0	25475	24140	143921	27012	1019583	42741	109423	0	0	8207	609564	0	0
2024-06-24 15:30:32			0	36615	0	0	0	25467	24140	143974	27142	1019610	42741	109420	0	0	8208	608855	0	0
2024-06-24 15:31:32			0	36594	0	0	0	25475	24130	143966	27218	1019592	42740	109423	0	0	8207	609766	0	0
2024-06-24 15:32:32			0	36608	0	0	0	25480	24130	143990	27206	1019611	42739	109425	0	0	8208	609181	0	0
2024-06-24 15:33:32			0	36612	0	0	0	25485	24140	143994	26949	1019628	42762	109427	0	0	8208	608980	0	0
2024-06-24 15:34:32			0	36596	0	0	0	25488	24150	143934	26863	1019672	42752	109428	0	0	8207	609613	0	0
2024-06-24 15:35:32			0	36616	0	0	0	25498	24140	143946	27128	1019636	42751	109432	0	0	8208	608813	0	0
2024-06-24 15:36:32			0	36604	0	0	0	25506	24140	144002	27149	1019717	42751	109435	0	0	8207	609314	0	0
2024-06-24 15:37:32			0	36614	0	0	0	25516	24140	143918	27353	1019743	42751	109439	0	0	8208	608897	0	0
2024-06-24 15:38:32			0	36633	0	0	0	25522	24140	143970	27225	1019717	42751	109441	0	0	8208	608104	0	0
2024-06-24 15:39:32			0	36624	0	0	0	25532	24140	143958	27079	1019743	42751	109445	0	0	8208	608479	0	0
2024-06-24 15:40:32			0	36638	0	0	0	25532	24140	143842	27381	1019690	42751	109445	0	0	8209	607896	0	0
2024-06-24 15:41:32			0	36625	0	0	0	25537	24150	143870	27338	1019814	42752	109447	0	0	8208	608403	0	0
2024-06-24 15:42:32			0	36646	0	0	0	25537	24140	143870	27374	1019797	42751	109447	0	0	8209	607562	0	0
2024-06-24 15:43:32			0	36641	0	0	0	25537	24150	143746	27232	1019707	42752	109447	0	0	8209	607737	0	0
2024-06-24 15:44:32			0	36644	0	0	0	25532	24170	143778	27466	1019840	42744	109445	0	0	8209	607543	0	0
2024-06-24 15:45:32			0	36654	0	0	0	25527	24160	143714	26960	1019796	42743	109443	0	0	8210	607161	0	0
2024-06-24 15:46:32			0	36673	0	0	0	25522	24150	143698	27284	1019698	42752	109441	0	0	8211	606404	0	0
2024-06-24 15:47:32			0	36653	0	0	0	25496	24140	143662	27144	1019708	42741	109431	0	0	8210	607271	0	0
2024-06-24 15:48:32			0	36659	0	0	0	25493	24140	143678	27272	1019655	42741	109430	0	0	8210	607021	0	0
2024-06-24 15:49:32			0	36657	0	0	0	25477	24140	143670	26946	1019548	42741	109424	0	0	8211	607104	0	0
2024-06-24 15:50:32			0	36673	0	0	0	25462	24130	143702	27126	1019539	42750	109418	0	0	8212	606473	0	0
2024-06-24 15:51:32			0	36660	0	0	0	25444	24120	143710	27322	1019495	42739	109411	0	0	8211	607048	0	0
2024-06-24 15:52:32			0	36658	0	0	0	25438	24110	143766	27216	1019442	42726	109409	0	0	8211	607165	0	0
2024-06-24 15:53:32			0	36634	0	0	0	25431	24100	143762	27130	1019372	42725	109406	0	0	8210	608200	0	0
2024-06-24 15:54:32			0	36619	0	0	0	25423	24090	143814	27542	1019390	42748	109403	0	0	8209	608860	0	0
2024-06-24 15:55:32			0	36606	0	0	0	25420	24090	143898	27303	1019363	42748	109402	0	0	8209	609402	0	0
2024-06-24 15:56:32			0	36603	0	0	0	25415	24080	143950	27293	1019319	42735	109400	0	0	8208	609562	0	0
2024-06-24 15:57:32			0	36599	0	0	0	25418	24080	143994	27429	1019319	42747	109401	0	0	8208	609729	0	0
2024-06-24 15:58:32			0	36588	0	0	0	25410	24070	143997	27326	1019249	42734	109398	0	0	8208	610223	0	0
2024-06-24 15:59:32			0	36576	0	0	0	25412	24070	144157	27329	1019249	42723	109399	0	0	8207	610724	0	0
2024-06-24 16:00:32			0	36556	0	0	0	25405	24070	144145	27334	1019267	42722	109396	0	0	8206	611561	0	0
2024-06-24 16:01:32			0	36530	0	0	0	25415	24070	144149	27190	1019213	42745	109400	0	0	8205	612650	0	0
2024-06-24 16:02:32			0	36532	0	0	0	25410	24050	144317	27377	1019152	42732	109398	0	0	8205	612635	0	0
2024-06-24 16:03:32			0	36535	0	0	0	25392	24050	144401	27119	1019160	42743	109391	0	0	8205	612510	0	0
2024-06-24 16:04:32			0	36495	0	0	0	25381	24050	144425	27092	1019214	42732	109387	0	0	8203	614187	0	0
2024-06-24 16:05:32			0	36489	0	0	0	25384	24040	144397	27227	1019197	42743	109388	0	0	8203	614474	0	0
2024-06-24 16:06:32			0	36483	0	0	0	25374	24030	144469	26986	1019099	42718	109384	0	0	8203	614760	0	0
2024-06-24 16:07:32			0	36480	0	0	0	25366	24020	144481	27364	1019037	42718	109381	0	0	8203	614921	0	0
2024-06-24 16:08:32			0	36436	0	0	0	25366	24030	144597	26963	1019046	42730	109381	0	0	8200	616737	0	0
2024-06-24 16:09:32			0	36448	0	0	0	25366	24010	144577	27109	1019073	42729	109381	0	0	8201	616301	0	0
2024-06-24 16:10:32			0	36429	0	0	0	25363	24020	144661	27407	1019091	42730	109380	0	0	8200	617066	0	0
2024-06-24 16:11:32			0	36436	0	0	0	25353	24010	144685	27130	1019020	42729	109376	0	0	8200	616806	0	0
2024-06-24 16:12:32			0	36423	0	0	0	25350	23990	144737	27267	1018959	42727	109375	0	0	8200	617423	0	0
2024-06-24 16:13:32			0	36402	0	0	0	25358	23990	144849	27379	1018977	42726	109378	0	0	8198	618309	0	0
2024-06-24 16:14:32			0	36395	0	0	0	25353	24000	144941	27282	1018967	42716	109376	0	0	8198	618569	0	0
2024-06-24 16:15:32			0	36391	0	0	0	25355	24000	144973	27003	1019021	42727	109377	0	0	8198	618738	0	0
2024-06-24 16:16:32			0	36386	0	0	0	25361	23990	144913	27098	1018977	42726	109379	0	0	8198	618984	0	0
2024-06-24 16:17:32			0	36391	0	0	0	25366	23990	145005	27123	1019012	42727	109381	0	0	8198	618773	0	0
2024-06-24 16:18:32			0	36375	0	0	0	25371	23990	144985	27400	1018985	42716	109383	0	0	8197	619448	0	0
2024-06-24 16:19:32			0	36371	0	0	0	25376	23990	145037	27105	1019039	42727	109385	0	0	8197	619617	0	0
2024-06-24 16:20:32			0	36366	0	0	0	25381	24000	144997	27547	1019074	42727	109387	0	0	8196	619793	0	0
2024-06-24 16:21:32			0	36357	0	0	0	25399	24000	145021	27202	1019074	42738	109394	0	0	8195	620174	0	0
2024-06-24 16:22:32			0	36375	0	0	0	25425	24000	145001	27185	1019243	42739	109404	0	0	8196	619413	0	0
2024-06-24 16:23:32			0	36358	0	0	0	25441	24010	145017	27275	1019207	42740	109410	0	0	8195	620096	0	0
2024-06-24 16:24:32			0	36361	0	0	0	25464	24010	144937	27206	1019260	42729	109419	0	0	8195	619970	0	0
2024-06-24 16:25:32			0	36366	0	0	0	25483	24020	145033	27575	1019331	42741	109426	0	0	8195	619723	0	0
2024-06-24 16:26:32			0	36352	0	0	0	25485	24050	144961	27293	1019392	42743	109427	0	0	8194	620210	0	0
2024-06-24 16:27:32			0	36372	0	0	0	25488	24040	145017	27332	1019303	42732	109428	0	0	8195	619400	0	0
2024-06-24 16:28:32			0	36368	0	0	0	25496	24050	145037	27341	1019339	42753	109431	0	0	8195	619534	0	0
2024-06-24 16:29:32			0	36370	0	0	0	25490	24070	144841	27351	1019374	42755	109429	0	0	8195	619380	0	0
2024-06-24 16:30:32			0	36375	0	0	0	25483	24060	144833	27100	1019392	42722	109426	0	0	8195	619204	0	0
2024-06-24 16:31:32			0	36395	0	0	0	25475	24060	144837	27345	1019409	42744	109423	0	0	8196	618360	0	0
2024-06-24 16:32:32			0	36410	0	0	0	25472	24070	144701	27436	1019382	42746	109422	0	0	8197	617693	0	0
2024-06-24 16:33:32			0	36409	0	0	0	25483	24060	144761	27213	1019418	42745	109426	0	0	8197	617770	0	0
2024-06-24 16:34:32			0	36415	0	0	0	25477	24070	144769	27199	1019462	42756	109424	0	0	8197	617482	0	0
2024-06-24 16:35:32			0	36406	0	0	0	25488	24080	144637	27416	1019471	42746	109428	0	0	8197	617826	0	0
2024-06-24 16:36:32			0	36422	0	0	0	25488	24080	144637	27081	1019498	42734	109428	0	0	8198	617152	0	0
2024-06-24 16:37:32			0	36429	0	0	0	25483	24080	144621	27000	1019373	42735	109426	0	0	8198	616857	0	0
2024-06-24 16:38:32			0	36418	0	0	0	25475	24090	144573	27334	1019408	42747	109423	0	0	8198	617286	0	0
2024-06-24 16:39:32			0	36453	0	0	0	25467	24080	144541	27069	1019391	42746	109420	0	0	8200	615848	0	0
2024-06-24 16:40:32			0	36447	0	0	0	25457	24080	144537	27241	1019391	42723	109416	0	0	8200	616100	0	0
2024-06-24 16:41:32			0	36445	0	0	0	25454	24070	144621	27012	1019427	42745	109415	0	0	8199	616219	0	0
2024-06-24 16:42:32			0	36445	0	0	0	25457	24060	144505	27346	1019311	42745	109416	0	0	8199	616254	0	0
2024-06-24 16:43:32			0	36471	0	0	0	25451	24070	144433	27376	1019409	42723	109414	0	0	8201	615126	0	0
2024-06-24 16:44:32			0	36451	0	0	0	25444	24070	144549	27322	1019400	42733	109411	0	0	8200	615966	0	0
2024-06-24 16:45:32			0	36459	0	0	0	25451	24060	144505	27452	1019303	42721	109414	0	0	8200	615665	0	0
2024-06-24 16:46:32			0	36446	0	0	0	25467	24070	144537	27317	1019382	42734	109420	0	0	8199	616177	0	0
2024-06-24 16:47:32			0	36465	0	0	0	25472	24070	144629	27443	1019427	42733	109422	0	0	8200	615378	0	0
2024-06-24 16:48:32			0	36455	0	0	0	25498	24080	144653	27312	1019453	42757	109432	0	0	8199	615763	0	0
2024-06-24 16:49:32			0	36451	0	0	0	25498	24080	144573	27417	1019444	42734	109432	0	0	8199	615932	0	0
2024-06-24 16:50:32			0	36445	0	0	0	25503	24080	144501	27561	1019418	42734	109434	0	0	8199	616184	0	0
2024-06-24 16:51:32			0	36451	0	0	0	25472	24070	144613	27419	1019374	42755	109422	0	0	8199	615966	0	0
2024-06-24 16:52:32			0	36454	0	0	0	25462	24090	144577	27450	1019381	42735	109418	0	0	8200	615771	0	0
2024-06-24 16:53:32			0	36449	0	0	0	25459	24070	144577	27163	1019400	42745	109417	0	0	8200	616050	0	0
2024-06-24 16:54:32			0	36451	0	0	0	25470	24070	144545	27154	1019409	42734	109421	0	0	8199	615966	0	0
2024-06-24 16:55:32			0	36450	0	0	0	25483	24080	144545	27197	1019426	42747	109426	0	0	8199	615974	0	0
2024-06-24 16:56:32			0	36440	0	0	0	25475	24070	144485	27114	1019400	42755	109423	0	0	8199	616429	0	0
2024-06-24 16:57:32			0	36441	0	0	0	25462	24080	144521	27107	1019364	42746	109418	0	0	8199	616352	0	0
2024-06-24 16:58:32			0	36450	0	0	0	25451	24070	144565	27293	1019374	42745	109414	0	0	8200	616008	0	0
2024-06-24 16:59:32			0	36457	0	0	0	25444	24060	144425	27338	1019276	42744	109411	0	0	8200	615749	0	0
2024-06-24 17:00:32			0	36467	0	0	0	25436	24070	144509	27105	1019267	42722	109408	0	0	8201	615294	0	0
2024-06-24 17:01:32			0	36440	0	0	0	25433	24050	144565	27479	1019294	42732	109407	0	0	8199	616499	0	0
2024-06-24 17:02:32			0	36451	0	0	0	25433	24030	144577	27493	1019268	42731	109407	0	0	8200	616105	0	0
2024-06-24 17:03:32			0	36440	0	0	0	25446	24060	144569	27282	1019329	42754	109412	0	0	8199	616464	0	0
2024-06-24 17:04:32			0	36444	0	0	0	25457	24070	144645	27277	1019427	42745	109416	0	0	8199	616261	0	0
2024-06-24 17:05:32			0	36447	0	0	0	25464	24060	144677	27293	1019436	42754	109419	0	0	8199	616169	0	0
2024-06-24 17:06:32			0	36446	0	0	0	25488	24080	144617	27377	1019498	42746	109428	0	0	8199	616142	0	0
2024-06-24 17:07:32			0	36417	0	0	0	25490	24080	144725	27199	1019533	42747	109429	0	0	8197	617363	0	0
2024-06-24 17:08:32			0	36421	0	0	0	25509	24090	144697	27310	1019622	42747	109436	0	0	8197	617159	0	0
2024-06-24 17:09:32			0	36431	0	0	0	25524	24100	144729	27402	1019612	42758	109442	0	0	8198	616704	0	0
2024-06-24 17:10:32			0	36409	0	0	0	25550	24110	144777	27303	1019736	42759	109452	0	0	8196	617595	0	0
2024-06-24 17:11:32			0	36394	0	0	0	25566	24120	144677	27358	1019789	42750	109458	0	0	8195	618193	0	0
2024-06-24 17:12:32			0	36379	0	0	0	25568	24120	144729	26998	1019762	42761	109459	0	0	8194	618825	0	0
2024-06-24 17:13:32			0	36414	0	0	0	25576	24130	144741	27133	1019824	42761	109462	0	0	8196	617315	0	0
2024-06-24 17:14:32			0	36401	0	0	0	25576	24140	144685	27332	1019850	42751	109462	0	0	8195	617828	0	0
2024-06-24 17:15:32			0	36399	0	0	0	25579	24150	144657	27428	1019859	42752	109463	0	0	8195	617877	0	0
2024-06-24 17:16:32			0	36407	0	0	0	25568	24150	144729	27336	1019867	42752	109459	0	0	8196	617540	0	0
2024-06-24 17:17:32			0	36395	0	0	0	25571	24160	144649	27303	1019796	42753	109460	0	0	8195	618011	0	0
2024-06-24 17:18:32			0	36410	0	0	0	25555	24140	144705	27209	1019717	42751	109454	0	0	8196	617449	0	0
2024-06-24 17:19:32			0	36397	0	0	0	25537	24140	144701	27263	1019636	42751	109447	0	0	8196	617996	0	0
2024-06-24 17:20:32			0	36421	0	0	0	25529	24130	144633	27209	1019584	42750	109444	0	0	8197	617020	0	0
2024-06-24 17:21:32			0	36430	0	0	0	25516	24120	144561	26944	1019655	42750	109439	0	0	8198	616676	0	0
2024-06-24 17:22:32			0	36417	0	0	0	25527	24130	144621	27076	1019664	42761	109443	0	0	8197	617189	0	0
2024-06-24 17:23:32			0	36434	0	0	0	25529	24130	144657	27280	1019699	42750	109444	0	0	8198	616473	0	0
2024-06-24 17:24:32			0	36431	0	0	0	25540	24140	144569	27126	1019788	42741	109448	0	0	8198	616564	0	0
2024-06-24 17:25:32			0	36435	0	0	0	25548	24140	144673	27559	1019797	42751	109451	0	0	8198	616396	0	0
2024-06-24 17:26:32			0	36432	0	0	0	25558	24150	144525	27161	1019859	42752	109455	0	0	8197	616488	0	0
2024-06-24 17:27:32			0	36421	0	0	0	25581	24150	144521	27369	1019867	42775	109464	0	0	8196	616950	0	0
2024-06-24 17:28:32			0	36427	0	0	0	25594	24160	144581	27327	1019956	42764	109469	0	0	8197	616663	0	0
2024-06-24 17:29:32			0	36434	0	0	0	25599	24170	144605	27351	1019973	42765	109471	0	0	8197	616334	0	0
2024-06-24 17:30:32			0	36431	0	0	0	25610	24180	144549	27213	1019964	42777	109475	0	0	8197	616425	0	0
2024-06-24 17:31:32			0	36433	0	0	0	25607	24180	144449	27397	1019991	42766	109474	0	0	8197	616341	0	0
2024-06-24 17:32:32			0	36421	0	0	0	25610	24190	144661	27429	1020097	42756	109475	0	0	8196	616811	0	0
2024-06-24 17:33:32			0	36461	0	0	0	25610	24190	144593	27239	1020035	42767	109475	0	0	8198	615129	0	0
2024-06-24 17:34:32			0	36452	0	0	0	25599	24190	144545	27435	1020008	42767	109471	0	0	8198	615508	0	0
2024-06-24 17:35:32			0	36463	0	0	0	25605	24200	144477	27424	1020007	42758	109473	0	0	8198	615010	0	0
2024-06-24 17:36:32			0	36457	0	0	0	25586	24200	144533	27078	1019999	42768	109466	0	0	8198	615263	0	0
2024-06-24 17:37:32			0	36471	0	0	0	25592	24190	144433	27189	1019955	42745	109468	0	0	8199	614709	0	0
2024-06-24 17:38:32			0	36461	0	0	0	25597	24190	144409	27083	1020008	42756	109470	0	0	8198	615129	0	0
2024-06-24 17:39:32			0	36469	0	0	0	25599	24190	144421	27116	1019990	42756	109471	0	0	8199	614793	0	0
2024-06-24 17:40:32			0	36475	0	0	0	25597	24190	144481	27362	1019990	42767	109470	0	0	8199	614541	0	0
2024-06-24 17:41:32			0	36488	0	0	0	25579	24190	144413	27279	1019928	42778	109463	0	0	8200	613996	0	0
2024-06-24 17:42:32			0	36499	0	0	0	25561	24190	144385	27561	1019821	42734	109456	0	0	8201	613534	0	0
2024-06-24 17:43:32			0	36494	0	0	0	25519	24170	144213	27248	1019688	42744	109440	0	0	8201	613813	0	0
2024-06-24 17:44:32			0	36531	0	0	0	25509	24160	144217	27053	1019689	42743	109436	0	0	8203	612297	0	0
2024-06-24 17:45:32			0	36517	0	0	0	25519	24160	144221	27324	1019689	42753	109440	0	0	8203	612884	0	0
2024-06-24 17:46:32			0	36538	0	0	0	25529	24160	144133	27424	1019716	42764	109444	0	0	8203	612004	0	0
2024-06-24 17:47:32			0	36542	0	0	0	25519	24150	144157	27246	1019618	42752	109440	0	0	8204	611871	0	0
2024-06-24 17:48:32			0	36550	0	0	0	25493	24150	144137	27300	1019592	42752	109430	0	0	8205	611536	0	0
2024-06-24 17:49:32			0	36556	0	0	0	25475	24130	144145	27348	1019530	42739	109423	0	0	8205	611354	0	0
2024-06-24 17:50:32			0	36568	0	0	0	25438	24120	143985	27467	1019468	42739	109409	0	0	8206	610887	0	0
2024-06-24 17:51:32			0	36585	0	0	0	25420	24100	144037	27100	1019300	42726	109402	0	0	8208	610245	0	0
2024-06-24 17:52:32			0	36622	0	0	0	25410	24090	143910	27182	1019336	42714	109398	0	0	8210	608734	0	0
2024-06-24 17:53:32			0	36619	0	0	0	25397	24070	143770	27578	1019302	42734	109393	0	0	8210	608928	0	0
2024-06-24 17:54:32			0	36648	0	0	0	25389	24070	143846	27334	1019267	42733	109390	0	0	8211	607719	0	0
2024-06-24 17:55:32			0	36638	0	0	0	25384	24050	143750	27123	1019214	42732	109388	0	0	8211	608204	0	0
2024-06-24 17:56:32			0	36649	0	0	0	25381	24050	143754	27338	1019152	42720	109387	0	0	8211	607746	0	0
2024-06-24 17:57:32			0	36666	0	0	0	25374	24030	143666	27303	1019134	42742	109384	0	0	8212	607106	0	0
2024-06-24 17:58:32			0	36687	0	0	0	25361	24020	143646	27421	1019064	42730	109379	0	0	8214	606266	0	0
2024-06-24 17:59:32			0	36688	0	0	0	25353	24020	143698	27126	1019064	42741	109376	0	0	8214	606225	0	0
2024-06-24 18:00:32			0	36700	0	0	0	25353	24010	143686	27479	1019047	42729	109376	0	0	8214	605760	0	0
2024-06-24 18:01:32			0	36702	0	0	0	25348	24010	143530	27440	1018958	42728	109374	0	0	8214	605677	0	0
2024-06-24 18:02:32			0	36729	0	0	0	25332	23990	143650	27341	1018897	42737	109368	0	0	8216	604623	0	0
2024-06-24 18:03:32			0	36728	0	0	0	25316	23980	143498	27327	1018933	42736	109362	0	0	8216	604698	0	0
2024-06-24 18:04:32			0	36749	0	0	0	25306	23970	143534	27180	1018817	42714	109358	0	0	8217	603861	0	0
2024-06-24 18:05:32			0	36772	0	0	0	25303	23970	143430	27326	1018809	42713	109357	0	0	8219	602907	0	0
2024-06-24 18:06:32			0	36783	0	0	0	25288	23960	143378	27260	1018765	42735	109351	0	0	8220	602485	0	0
2024-06-24 18:07:32			0	36798	0	0	0	25280	23950	143434	27436	1018730	42712	109348	0	0	8220	601897	0	0
2024-06-24 18:08:32			0	36802	0	0	0	25283	23950	143310	27355	1018774	42722	109349	0	0	8221	601732	0	0
2024-06-24 18:09:32			0	36829	0	0	0	25293	23950	143174	27192	1018748	42734	109353	0	0	8222	600615	0	0
2024-06-24 18:10:32			0	36838	0	0	0	25293	23930	143242	27052	1018775	42743	109353	0	0	8222	600310	0	0
2024-06-24 18:11:32			0	36837	0	0	0	25306	23940	143118	27469	1018819	42721	109358	0	0	8222	600318	0	0
2024-06-24 18:12:32			0	36844	0	0	0	25288	23940	143102	27268	1018766	42721	109351	0	0	8223	600029	0	0
2024-06-24 18:13:32			0	36874	0	0	0	25283	23930	143090	27362	1018686	42709	109349	0	0	8224	598824	0	0
2024-06-24 18:14:32			0	36877	0	0	0	25262	23930	143050	27280	1018633	42732	109341	0	0	8225	598700	0	0
2024-06-24 18:15:32			0	36892	0	0	0	25264	23920	142946	27412	1018642	42730	109342	0	0	8225	598115	0	0
2024-06-24 18:16:32			0	36900	0	0	0	25267	23910	142834	27199	1018598	42730	109343	0	0	8226	597819	0	0
2024-06-24 18:17:32			0	36913	0	0	0	25264	23900	142846	27320	1018590	42729	109342	0	0	8226	597317	0	0
2024-06-24 18:18:32			0	36928	0	0	0	25257	23900	142822	27079	1018616	42718	109339	0	0	8227	596699	0	0
2024-06-24 18:19:32			0	36966	0	0	0	25251	23890	142738	27274	1018564	42728	109337	0	0	8229	595169	0	0
2024-06-24 18:20:32			0	36956	0	0	0	25251	23900	142746	27357	1018554	42706	109337	0	0	8229	595547	0	0
2024-06-24 18:21:32			0	36976	0	0	0	25254	23890	142794	27145	1018546	42717	109338	0	0	8230	594758	0	0
2024-06-24 18:22:32			0	36979	0	0	0	25249	23870	142702	26996	1018511	42726	109336	0	0	8230	594702	0	0
2024-06-24 18:23:32			0	37008	0	0	0	25272	23880	142510	27293	1018529	42727	109345	0	0	8231	593478	0	0
2024-06-24 18:24:32			0	37007	0	0	0	25275	23880	142526	27258	1018609	42716	109346	0	0	8231	593519	0	0
2024-06-24 18:25:32			0	37010	0	0	0	25285	23880	142594	27407	1018609	42727	109350	0	0	8231	593396	0	0
2024-06-24 18:26:32			0	37014	0	0	0	25283	23900	142678	27046	1018581	42728	109349	0	0	8231	593165	0	0
2024-06-24 18:27:32			0	37022	0	0	0	25296	23890	142486	27261	1018599	42728	109354	0	0	8232	592871	0	0
2024-06-24 18:28:32			0	37021	0	0	0	25296	23890	142462	27322	1018591	42728	109354	0	0	8232	592912	0	0
2024-06-24 18:29:32			0	37012	0	0	0	25290	23900	142574	27308	1018608	42728	109352	0	0	8231	593247	0	0
2024-06-24 18:30:32			0	37026	0	0	0	25270	23890	142586	26887	1018564	42717	109344	0	0	8232	592707	0	0
2024-06-24 18:31:32			0	37050	0	0	0	25259	23880	142490	27173	1018466	42693	109340	0	0	8234	591757	0	0
2024-06-24 18:32:32			0	37052	0	0	0	25246	23870	142458	27445	1018458	42715	109335	0	0	8234	591709	0	0
2024-06-24 18:33:32			0	37046	0	0	0	25251	23870	142470	26923	1018423	42726	109337	0	0	8234	591954	0	0
2024-06-24 18:34:32			0	37021	0	0	0	25267	23870	142458	27161	1018503	42737	109343	0	0	8232	592979	0	0
2024-06-24 18:35:32			0	37014	0	0	0	25267	23880	142610	27282	1018547	42726	109343	0	0	8232	593232	0	0
2024-06-24 18:36:32			0	37036	0	0	0	25272	23880	142578	27277	1018573	42737	109345	0	0	8233	592331	0	0
2024-06-24 18:37:32			0	37007	0	0	0	25280	23880	142598	27171	1018493	42726	109348	0	0	8231	593519	0	0
2024-06-24 18:38:32			0	37004	0	0	0	25267	23870	142622	27322	1018503	42715	109343	0	0	8231	593676	0	0
2024-06-24 18:39:32			0	37011	0	0	0	25259	23870	142666	27020	1018458	42726	109340	0	0	8232	593389	0	0
2024-06-24 18:40:32			0	36984	0	0	0	25262	23870	142578	27242	1018476	42726	109341	0	0	8230	594497	0	0
2024-06-24 18:41:32			0	36989	0	0	0	25290	23870	142598	27109	1018556	42737	109352	0	0	8230	594292	0	0
2024-06-24 18:42:32			0	36969	0	0	0	25293	23870	142762	27177	1018538	42715	109353	0	0	8229	595113	0	0
2024-06-24 18:43:32			0	36963	0	0	0	25283	23880	142774	27253	1018466	42726	109349	0	0	8229	595326	0	0
2024-06-24 18:44:32			0	36965	0	0	0	25264	23870	142778	27213	1018511	42726	109342	0	0	8229	595278	0	0
2024-06-24 18:45:32			0	36951	0	0	0	25251	23870	142802	27261	1018458	42726	109337	0	0	8229	595853	0	0
2024-06-24 18:46:32			0	36955	0	0	0	25238	23870	142850	27254	1018396	42705	109332	0	0	8229	595689	0	0
2024-06-24 18:47:32			0	36949	0	0	0	25225	23860	142794	26897	1018379	42703	109327	0	0	8229	595969	0	0
2024-06-24 18:48:32			0	36957	0	0	0	25225	23850	142842	27017	1018317	42712	109327	0	0	8229	595674	0	0
2024-06-24 18:49:32			0	36927	0	0	0	25202	23850	142810	27360	1018290	42712	109318	0	0	8228	596908	0	0
2024-06-24 18:50:32			0	36934	0	0	0	25202	23820	142818	27163	1018212	42710	109318	0	0	8228	596721	0	0
2024-06-24 18:51:32			0	36928	0	0	0	25192	23830	142842	27066	1018220	42710	109314	0	0	8228	596934	0	0
2024-06-24 18:52:32			0	36917	0	0	0	25189	23830	142886	27152	1018247	42722	109313	0	0	8228	597387	0	0
2024-06-24 18:53:32			0	36940	0	0	0	25194	23830	142906	27019	1018300	42722	109315	0	0	8229	596440	0	0
2024-06-24 18:54:32			0	36907	0	0	0	25228	23830	142906	27124	1018380	42733	109328	0	0	8226	597800	0	0
2024-06-24 18:55:32			0	36913	0	0	0	25244	23840	142982	27235	1018460	42723	109334	0	0	8227	597519	0	0
2024-06-24 18:56:32			0	36897	0	0	0	25262	23850	142998	27263	1018504	42735	109341	0	0	8225	598145	0	0
2024-06-24 18:57:32			0	36889	0	0	0	25264	23850	143062	27114	1018450	42735	109342	0	0	8225	598475	0	0
2024-06-24 18:58:32			0	36891	0	0	0	25264	23850	142930	26974	1018450	42712	109342	0	0	8225	598392	0	0
2024-06-24 18:59:32			0	36896	0	0	0	25264	23850	143058	27256	1018388	42723	109342	0	0	8225	598186	0	0
2024-06-24 19:00:32			0	36908	0	0	0	25262	23850	143046	27166	1018450	42712	109341	0	0	8226	597691	0	0
2024-06-24 19:01:32			0	36882	0	0	0	25275	23850	143030	27497	1018450	42735	109346	0	0	8224	598763	0	0
2024-06-24 19:02:32			0	36876	0	0	0	25280	23860	143094	27507	1018539	42736	109348	0	0	8224	598977	0	0
2024-06-24 19:03:32			0	36874	0	0	0	25280	23860	143142	27107	1018467	42725	109348	0	0	8224	599060	0	0
2024-06-24 19:04:32			0	36894	0	0	0	25285	23860	143058	27291	1018512	42713	109350	0	0	8225	598235	0	0
2024-06-24 19:05:32			0	36879	0	0	0	25283	23860	143098	27215	1018441	42725	109349	0	0	8224	598853	0	0
2024-06-24 19:06:32			0	36882	0	0	0	25280	23870	142954	27041	1018529	42726	109348	0	0	8224	598696	0	0
2024-06-24 19:07:32			0	36884	0	0	0	25283	23860	143002	27260	1018539	42724	109349	0	0	8224	598647	0	0
2024-06-24 19:08:32			0	36874	0	0	0	25288	23870	143078	27348	1018556	42726	109351	0	0	8224	599026	0	0
2024-06-24 19:09:32			0	36865	0	0	0	25306	23880	142990	27377	1018582	42738	109358	0	0	8223	599364	0	0
2024-06-24 19:10:32			0	36885	0	0	0	25290	23870	142958	27320	1018529	42737	109352	0	0	8224	598572	0	0
2024-06-24 19:11:32			0	36879	0	0	0	25285	23870	142962	26993	1018583	42737	109350	0	0	8224	598820	0	0
2024-06-24 19:12:32			0	36884	0	0	0	25288	23870	142902	27067	1018538	42726	109351	0	0	8224	598613	0	0
2024-06-24 19:13:32			0	36904	0	0	0	25267	23870	143034	26977	1018449	42726	109343	0	0	8226	597789	0	0
2024-06-24 19:14:32			0	36916	0	0	0	25251	23860	142882	27225	1018387	42725	109337	0	0	8227	597328	0	0
2024-06-24 19:15:32			0	36913	0	0	0	25244	23860	142910	27147	1018361	42714	109334	0	0	8227	597451	0	0
2024-06-24 19:16:32			0	36907	0	0	0	25220	23850	142754	27255	1018317	42712	109325	0	0	8227	597732	0	0
2024-06-24 19:17:32			0	36899	0	0	0	25207	23840	142806	27130	1018246	42723	109320	0	0	8226	598096	0	0
2024-06-24 19:18:32			0	36933	0	0	0	25215	23840	142826	26981	1018291	42722	109323	0	0	8228	596695	0	0
2024-06-24 19:19:32			0	36935	0	0	0	25231	23840	142814	27313	1018326	42735	109329	0	0	8228	596612	0	0
2024-06-24 19:20:32			0	36926	0	0	0	25228	23840	142842	27220	1018380	42712	109328	0	0	8228	596983	0	0
2024-06-24 19:21:32			0	36935	0	0	0	25238	23830	142770	27199	1018336	42722	109332	0	0	8228	596646	0	0
2024-06-24 19:22:32			0	36929	0	0	0	25241	23840	142798	27170	1018433	42723	109333	0	0	8227	596859	0	0
2024-06-24 19:23:32			0	36922	0	0	0	25236	23850	142854	27074	1018255	42712	109331	0	0	8227	597114	0	0
2024-06-24 19:24:32			0	36926	0	0	0	25241	23830	142846	26908	1018255	42744	109333	0	0	8227	597017	0	0
2024-06-24 19:25:32			0	36923	0	0	0	25220	23840	142858	27074	1018371	42722	109325	0	0	8228	597107	0	0
2024-06-24 19:26:32			0	36929	0	0	0	25223	23830	142838	27074	1018274	42722	109326	0	0	8228	596893	0	0
2024-06-24 19:27:32			0	36938	0	0	0	25218	23820	142750	27109	1018256	42721	109324	0	0	8228	596556	0	0
2024-06-24 19:28:32			0	36947	0	0	0	25210	23830	142778	27235	1018274	42733	109321	0	0	8229	596152	0	0
2024-06-24 19:29:32			0	36937	0	0	0	25205	23820	142810	26928	1018238	42722	109319	0	0	8228	596597	0	0
2024-06-24 19:30:32			0	36945	0	0	0	25205	23820	142790	26826	1018230	42721	109319	0	0	8229	596268	0	0
2024-06-24 19:31:32			0	36948	0	0	0	25197	23820	142790	27038	1018230	42732	109316	0	0	8229	596144	0	0
2024-06-24 19:32:32			0	36955	0	0	0	25189	23800	142782	27105	1018177	42720	109313	0	0	8230	595924	0	0
2024-06-24 19:33:32			0	36943	0	0	0	25181	23810	142774	27211	1018159	42720	109310	0	0	8229	596384	0	0
2024-06-24 19:34:32			0	36954	0	0	0	25179	23800	142750	26994	1018123	42731	109309	0	0	8230	595965	0	0
2024-06-24 19:35:32			0	36964	0	0	0	25173	23800	142738	27237	1018088	42708	109307	0	0	8230	595553	0	0
2024-06-24 19:36:32			0	36964	0	0	0	25173	23790	142766	27170	1018106	42729	109307	0	0	8230	595587	0	0
2024-06-24 19:37:32			0	36968	0	0	0	25163	23790	142870	27170	1018106	42729	109303	0	0	8231	595423	0	0
2024-06-24 19:38:32			0	36964	0	0	0	25163	23790	142846	26951	1018071	42728	109303	0	0	8230	595587	0	0
2024-06-24 19:39:32			0	36964	0	0	0	25166	23780	142770	27069	1018000	42717	109304	0	0	8230	595620	0	0
2024-06-24 19:40:32			0	36970	0	0	0	25158	23790	142818	27194	1018017	42707	109301	0	0	8231	595340	0	0
2024-06-24 19:41:32			0	36951	0	0	0	25158	23780	142778	27066	1018054	42717	109301	0	0	8230	596155	0	0
2024-06-24 19:42:32			0	36949	0	0	0	25158	23770	142762	26889	1017930	42715	109301	0	0	8230	596271	0	0
2024-06-24 19:43:32			0	36968	0	0	0	25155	23770	142786	27216	1017983	42726	109300	0	0	8231	595490	0	0
2024-06-24 19:44:32			0	36954	0	0	0	25155	23760	142714	27029	1018001	42726	109300	0	0	8230	596099	0	0
2024-06-24 19:45:32			0	36973	0	0	0	25145	23770	142814	26908	1017992	42716	109296	0	0	8231	595284	0	0
2024-06-24 19:46:32			0	36969	0	0	0	25145	23760	142782	26713	1017948	42715	109296	0	0	8231	595482	0	0
2024-06-24 19:47:32			0	36975	0	0	0	25142	23760	142870	27100	1017939	42693	109295	0	0	8231	595235	0	0
2024-06-24 19:48:32			0	36986	0	0	0	25135	23750	142810	27393	1017949	42725	109292	0	0	8232	594817	0	0
2024-06-24 19:49:32			0	36972	0	0	0	25145	23760	142790	26955	1017966	42726	109296	0	0	8231	595359	0	0
2024-06-24 19:50:32			0	36980	0	0	0	25145	23750	142838	26963	1017877	42714	109296	0	0	8231	595063	0	0
2024-06-24 19:51:32			0	36963	0	0	0	25132	23750	142722	27270	1017957	42704	109291	0	0	8231	595762	0	0
2024-06-24 19:52:32			0	36985	0	0	0	25135	23750	142734	27268	1017904	42714	109292	0	0	8232	594858	0	0
2024-06-24 19:53:32			0	36991	0	0	0	25122	23750	142758	27189	1017975	42713	109287	0	0	8232	594611	0	0
2024-06-24 19:54:32			0	36987	0	0	0	25148	23760	142730	27336	1018001	42726	109297	0	0	8232	594742	0	0
2024-06-24 19:55:32			0	36980	0	0	0	25161	23760	142786	27317	1018028	42738	109302	0	0	8231	595030	0	0
2024-06-24 19:56:32			0	36968	0	0	0	25148	23750	142694	27327	1017984	42714	109297	0	0	8231	595557	0	0
2024-06-24 19:57:32			0	36986	0	0	0	25148	23760	142738	27079	1017939	42715	109297	0	0	8232	594783	0	0
2024-06-24 19:58:32			0	37010	0	0	0	25135	23760	142686	27293	1017886	42715	109292	0	0	8233	593798	0	0
2024-06-24 19:59:32			0	36991	0	0	0	25114	23720	142690	27007	1017754	42701	109284	0	0	8232	594712	0	0
2024-06-24 20:00:32			0	37003	0	0	0	25085	23720	142650	27092	1017665	42710	109273	0	0	8233	594219	0	0
2024-06-24 20:01:32			0	37006	0	0	0	25059	23710	142666	27171	1017648	42700	109263	0	0	8234	594129	0	0
2024-06-24 20:02:32			0	37003	0	0	0	25033	23690	142634	26958	1017569	42687	109253	0	0	8234	594319	0	0
2024-06-24 20:03:32			0	37044	0	0	0	25028	23690	142606	27405	1017560	42709	109251	0	0	8236	592637	0	0
2024-06-24 20:04:32			0	37039	0	0	0	25025	23670	142554	27163	1017525	42696	109250	0	0	8236	592908	0	0
2024-06-24 20:05:32			0	37055	0	0	0	25018	23670	142578	26968	1017472	42685	109247	0	0	8237	592252	0	0
2024-06-24 20:06:32			0	37059	0	0	0	25020	23660	142450	27100	1017428	42695	109248	0	0	8237	592122	0	0
2024-06-24 20:07:32			0	37085	0	0	0	25007	23660	142478	27163	1017348	42695	109243	0	0	8239	591057	0	0
2024-06-24 20:08:32			0	37073	0	0	0	24999	23650	142414	27260	1017358	42694	109240	0	0	8238	591582	0	0
2024-06-24 20:09:32			0	37088	0	0	0	24992	23640	142514	27029	1017367	42693	109237	0	0	8239	591001	0	0
2024-06-24 20:10:32			0	37094	0	0	0	24986	23630	142374	27177	1017278	42703	109235	0	0	8240	590788	0	0
2024-06-24 20:11:32			0	37086	0	0	0	24989	23630	142382	27105	1017332	42703	109236	0	0	8239	591116	0	0
2024-06-24 20:12:32			0	37109	0	0	0	24997	23630	142418	27306	1017323	42713	109239	0	0	8240	590175	0	0
2024-06-24 20:13:32			0	37128	0	0	0	24999	23620	142410	27345	1017315	42703	109240	0	0	8241	589432	0	0
2024-06-24 20:14:32			0	37117	0	0	0	24994	23620	142314	27015	1017315	42692	109238	0	0	8241	589881	0	0
2024-06-24 20:15:32			0	37127	0	0	0	24997	23620	142358	27284	1017368	42703	109239	0	0	8241	589473	0	0
2024-06-24 20:16:32			0	37128	0	0	0	25018	23630	142318	27211	1017403	42703	109247	0	0	8241	589399	0	0
2024-06-24 20:17:32			0	37135	0	0	0	25018	23630	142234	27277	1017350	42725	109247	0	0	8241	589113	0	0
2024-06-24 20:18:32			0	37134	0	0	0	25015	23630	142286	26958	1017385	42692	109246	0	0	8241	589153	0	0
2024-06-24 20:19:32			0	37154	0	0	0	25018	23630	142302	27241	1017403	42692	109247	0	0	8242	588337	0	0
2024-06-24 20:20:32			0	37137	0	0	0	25018	23620	142266	27173	1017341	42713	109247	0	0	8241	589064	0	0
2024-06-24 20:21:32			0	37132	0	0	0	25012	23620	142254	27315	1017315	42703	109245	0	0	8241	589268	0	0
2024-06-24 20:22:32			0	37162	0	0	0	25002	23620	142210	27293	1017333	42702	109241	0	0	8243	588044	0	0
2024-06-24 20:23:32			0	37154	0	0	0	25007	23610	142186	27433	1017297	42701	109243	0	0	8242	588403	0	0
2024-06-24 20:24:32			0	37155	0	0	0	25010	23620	142258	27150	1017306	42702	109244	0	0	8242	588329	0	0
2024-06-24 20:25:32			0	37140	0	0	0	25002	23610	142130	27286	1017324	42701	109241	0	0	8242	588975	0	0
2024-06-24 20:26:32			0	37161	0	0	0	25005	23620	142210	27232	1017315	42703	109242	0	0	8243	588084	0	0
2024-06-24 20:27:32			0	37177	0	0	0	25015	23620	142202	27367	1017359	42702	109246	0	0	8243	587432	0	0
2024-06-24 20:28:32			0	37176	0	0	0	25036	23620	142194	27289	1017386	42702	109254	0	0	8243	587473	0	0
2024-06-24 20:29:32			0	37168	0	0	0	25049	23630	142226	27436	1017403	42703	109259	0	0	8242	587766	0	0
2024-06-24 20:30:32			0	37181	0	0	0	25054	23620	142298	27050	1017475	42713	109261	0	0	8243	587269	0	0
2024-06-24 20:31:32			0	37158	0	0	0	25059	23630	142226	27189	1017492	42725	109263	0	0	8242	588174	0	0
2024-06-24 20:32:32			0	37172	0	0	0	25051	23640	142258	26925	1017394	42704	109260	0	0	8243	587570	0	0
2024-06-24 20:33:32			0	37155	0	0	0	25041	23630	142198	27225	1017323	42713	109256	0	0	8242	588296	0	0
2024-06-24 20:34:32			0	37165	0	0	0	25020	23620	142134	27308	1017333	42702	109248	0	0	8243	587921	0	0
2024-06-24 20:35:32			0	37182	0	0	0	25028	23620	142190	27303	1017395	42703	109251	0	0	8243	587228	0	0
2024-06-24 20:36:32			0	37168	0	0	0	25033	23620	142222	27222	1017421	42703	109253	0	0	8243	587799	0	0
2024-06-24 20:37:32			0	37160	0	0	0	25028	23620	142222	27365	1017386	42724	109251	0	0	8242	588125	0	0
2024-06-24 20:38:32			0	37174	0	0	0	25020	23630	142246	27105	1017377	42713	109248	0	0	8243	587521	0	0
2024-06-24 20:39:32			0	37173	0	0	0	25002	23620	142134	27069	1017261	42692	109241	0	0	8243	587595	0	0
2024-06-24 20:40:32			0	37162	0	0	0	24989	23610	142274	27395	1017217	42679	109236	0	0	8243	588077	0	0
2024-06-24 20:41:32			0	37167	0	0	0	24963	23590	142266	26916	1017148	42677	109226	0	0	8244	587939	0	0
2024-06-24 20:42:32			0	37181	0	0	0	24950	23590	142322	27455	1017049	42688	109221	0	0	8244	587368	0	0
2024-06-24 20:43:32			0	37156	0	0	0	24940	23580	142394	27473	1017032	42676	109217	0	0	8243	588421	0	0
2024-06-24 20:44:32			0	37149	0	0	0	24940	23580	142374	27471	1017077	42698	109217	0	0	8243	588707	0	0
2024-06-24 20:45:32			0	37139	0	0	0	24932	23570	142322	27415	1017015	42686	109214	0	0	8243	589148	0	0
2024-06-24 20:46:32			0	37125	0	0	0	24919	23560	142334	27402	1016970	42674	109209	0	0	8242	589753	0	0
2024-06-24 20:47:32			0	37147	0	0	0	24916	23550	142466	27246	1016980	42696	109208	0	0	8243	588888	0	0
2024-06-24 20:48:32			0	37125	0	0	0	24911	23560	142470	27284	1016988	42697	109206	0	0	8242	589753	0	0
2024-06-24 20:49:32			0	37125	0	0	0	24914	23560	142498	27229	1016962	42697	109207	0	0	8242	589753	0	0
2024-06-24 20:50:32			0	37108	0	0	0	24924	23550	142558	27466	1017033	42717	109211	0	0	8241	590481	0	0
2024-06-24 20:51:32			0	37116	0	0	0	24937	23550	142558	27261	1017025	42695	109216	0	0	8241	590154	0	0
2024-06-24 20:52:32			0	37102	0	0	0	24950	23560	142630	27149	1017095	42697	109221	0	0	8240	590694	0	0
2024-06-24 20:53:32			0	37088	0	0	0	24945	23560	142634	27083	1017042	42708	109219	0	0	8240	591267	0	0
2024-06-24 20:54:32			0	37060	0	0	0	24950	23560	142734	27183	1017042	42697	109221	0	0	8238	592414	0	0
2024-06-24 20:55:32			0	37060	0	0	0	24948	23560	142762	27608	1016988	42685	109220	0	0	8238	592414	0	0
2024-06-24 20:56:32			0	37038	0	0	0	24927	23550	142746	27142	1017033	42707	109212	0	0	8237	593350	0	0
2024-06-24 20:57:32			0	37049	0	0	0	24927	23540	142690	26981	1016936	42706	109212	0	0	8238	592932	0	0
2024-06-24 20:58:32			0	37051	0	0	0	24922	23540	142806	27294	1016883	42695	109210	0	0	8238	592850	0	0
2024-06-24 20:59:32			0	37053	0	0	0	24919	23530	142814	27287	1016919	42694	109209	0	0	8238	592801	0	0
2024-06-24 21:00:32			0	37041	0	0	0	24911	23530	142766	27019	1016892	42682	109206	0	0	8238	593293	0	0
2024-06-24 21:01:32			0	37034	0	0	0	24914	23540	142826	27367	1016874	42695	109207	0	0	8237	593547	0	0
2024-06-24 21:02:32			0	37028	0	0	0	24898	23530	142742	27222	1016883	42670	109201	0	0	8237	593827	0	0
2024-06-24 21:03:32			0	37035	0	0	0	24896	23520	142834	27552	1016786	42692	109200	0	0	8237	593573	0	0
2024-06-24 21:04:32			0	37020	0	0	0	24885	23510	142798	27284	1016804	42681	109196	0	0	8237	594222	0	0
2024-06-24 21:05:32			0	37032	0	0	0	24883	23520	142914	27433	1016786	42714	109195	0	0	8238	593696	0	0
2024-06-24 21:06:32			0	37030	0	0	0	24885	23510	142918	27670	1016742	42691	109196	0	0	8237	593812	0	0
2024-06-24 21:07:32			0	37001	0	0	0	24888	23510	142890	27351	1016796	42702	109197	0	0	8236	595003	0	0
2024-06-24 21:08:32			0	37016	0	0	0	24880	23510	142954	27296	1016689	42680	109194	0	0	8237	594387	0	0
2024-06-24 21:09:32			0	37007	0	0	0	24867	23500	142990	27229	1016698	42690	109189	0	0	8236	594790	0	0
2024-06-24 21:10:32			0	36984	0	0	0	24864	23490	142914	27507	1016655	42689	109188	0	0	8235	595770	0	0
2024-06-24 21:11:32			0	37005	0	0	0	24844	23490	142986	27521	1016601	42689	109180	0	0	8237	594906	0	0
2024-06-24 21:12:32			0	36991	0	0	0	24854	23480	143006	27543	1016646	42700	109184	0	0	8236	595515	0	0
2024-06-24 21:13:32			0	36989	0	0	0	24859	23480	143062	27445	1016664	42700	109186	0	0	8236	595597	0	0
2024-06-24 21:14:32			0	36991	0	0	0	24864	23480	143094	27360	1016673	42667	109188	0	0	8236	595515	0	0
2024-06-24 21:15:32			0	36974	0	0	0	24862	23490	143130	27464	1016690	42690	109187	0	0	8235	596181	0	0
2024-06-24 21:16:32			0	36972	0	0	0	24872	23480	143002	27405	1016753	42678	109191	0	0	8234	596297	0	0
2024-06-24 21:17:32			0	36962	0	0	0	24888	23500	143062	27455	1016779	42690	109197	0	0	8234	596642	0	0
2024-06-24 21:18:32			0	36978	0	0	0	24924	23500	143034	27646	1016814	42691	109211	0	0	8234	595983	0	0
2024-06-24 21:19:32			0	36958	0	0	0	24932	23500	143174	27327	1016885	42712	109214	0	0	8233	596807	0	0
2024-06-24 21:20:32			0	36945	0	0	0	24942	23520	143162	27472	1016893	42692	109218	0	0	8232	597276	0	0
2024-06-24 21:21:32			0	36950	0	0	0	24940	23520	143198	27220	1016893	42714	109217	0	0	8232	597069	0	0
2024-06-24 21:22:32			0	36941	0	0	0	24937	23520	143146	27291	1016893	42692	109216	0	0	8232	597440	0	0
2024-06-24 21:23:32			0	36957	0	0	0	24927	23510	143158	27459	1016884	42692	109212	0	0	8233	596814	0	0
2024-06-24 21:24:32			0	36931	0	0	0	24932	23530	143194	27403	1016937	42693	109214	0	0	8231	597819	0	0
2024-06-24 21:25:32			0	36945	0	0	0	24935	23520	143166	27138	1016920	42703	109215	0	0	8232	597276	0	0
2024-06-24 21:26:32			0	36938	0	0	0	24937	23520	143150	27540	1016946	42714	109216	0	0	8232	597564	0	0
2024-06-24 21:27:32			0	36939	0	0	0	24932	23520	143126	27294	1016875	42704	109214	0	0	8232	597523	0	0
2024-06-24 21:28:32			0	36921	0	0	0	24924	23530	143178	27376	1016883	42693	109211	0	0	8231	598232	0	0
2024-06-24 21:29:32			0	36930	0	0	0	24927	23530	143218	27303	1016883	42693	109212	0	0	8232	597860	0	0
2024-06-24 21:30:32			0	36943	0	0	0	24919	23530	143198	27377	1016883	42682	109209	0	0	8232	597324	0	0
2024-06-24 21:31:32			0	36934	0	0	0	24909	23520	143234	27246	1016821	42682	109205	0	0	8232	597729	0	0
2024-06-24 21:32:32			0	36942	0	0	0	24898	23510	143066	27145	1016778	42714	109201	0	0	8233	597433	0	0
2024-06-24 21:33:32			0	36945	0	0	0	24896	23510	143230	27272	1016804	42681	109200	0	0	8233	597309	0	0
2024-06-24 21:34:32			0	36939	0	0	0	24896	23510	143170	27086	1016831	42692	109200	0	0	8232	597556	0	0
2024-06-24 21:35:32			0	36934	0	0	0	24885	23510	143218	27097	1016769	42691	109196	0	0	8232	597763	0	0
2024-06-24 21:36:32			0	36942	0	0	0	24877	23500	143134	27502	1016680	42680	109193	0	0	8233	597466	0	0
2024-06-24 21:37:32			0	36944	0	0	0	24867	23500	143178	27218	1016698	42679	109189	0	0	8233	597384	0	0
2024-06-24 21:38:32			0	36938	0	0	0	24859	23480	143190	27393	1016619	42678	109186	0	0	8233	597699	0	0
2024-06-24 21:39:32			0	36943	0	0	0	24851	23480	143158	27398	1016646	42678	109183	0	0	8233	597492	0	0
2024-06-24 21:40:32			0	36948	0	0	0	24849	23470	143274	27523	1016629	42699	109182	0	0	8234	597320	0	0
2024-06-24 21:41:32			0	36939	0	0	0	24851	23480	143166	27327	1016637	42688	109183	0	0	8233	597657	0	0
2024-06-24 21:42:32			0	36935	0	0	0	24844	23480	143126	27170	1016611	42688	109180	0	0	8233	597822	0	0
2024-06-24 21:43:32			0	36934	0	0	0	24838	23470	143154	27350	1016540	42676	109178	0	0	8233	597897	0	0
2024-06-24 21:44:32			0	36939	0	0	0	24838	23460	143242	27157	1016550	42675	109178	0	0	8233	597724	0	0
2024-06-24 21:45:32			0	36944	0	0	0	24849	23460	143230	26727	1016550	42698	109182	0	0	8233	597518	0	0
2024-06-24 21:46:32			0	36925	0	0	0	24836	23460	143282	27379	1016576	42686	109177	0	0	8232	598302	0	0
2024-06-24 21:47:32			0	36937	0	0	0	24833	23460	143210	27267	1016585	42687	109176	0	0	8233	597807	0	0
2024-06-24 21:48:32			0	36930	0	0	0	24828	23440	143250	27225	1016506	42697	109174	0	0	8233	598163	0	0
2024-06-24 21:49:32			0	36915	0	0	0	24823	23460	143238	27228	1016550	42675	109172	0	0	8232	598715	0	0
2024-06-24 21:50:32			0	36909	0	0	0	24825	23450	143282	27249	1016541	42685	109173	0	0	8232	598996	0	0
2024-06-24 21:51:32			0	36911	0	0	0	24825	23450	143342	27185	1016594	42685	109173	0	0	8232	598914	0	0
2024-06-24 21:52:32			0	36916	0	0	0	24831	23450	143334	27242	1016514	42685	109175	0	0	8232	598707	0	0
2024-06-24 21:53:32			0	36903	0	0	0	24836	23450	143410	27196	1016514	42685	109177	0	0	8231	599244	0	0
2024-06-24 21:54:32			0	36904	0	0	0	24825	23450	143374	27239	1016541	42685	109173	0	0	8232	599203	0	0
2024-06-24 21:55:32			0	36892	0	0	0	24831	23440	143322	27175	1016506	42674	109175	0	0	8231	599733	0	0
2024-06-24 21:56:32			0	36893	0	0	0	24825	23440	143346	27362	1016497	42685	109173	0	0	8231	599691	0	0
2024-06-24 21:57:32			0	36900	0	0	0	24825	23450	143322	27393	1016461	42697	109173	0	0	8231	599368	0	0
2024-06-24 21:58:32			0	36888	0	0	0	24820	23430	143442	27388	1016515	42685	109171	0	0	8231	599932	0	0
2024-06-24 21:59:32			0	36873	0	0	0	24820	23420	143398	27606	1016498	42684	109171	0	0	8230	600586	0	0
2024-06-24 22:00:32			0	36878	0	0	0	24818	23420	143410	27111	1016471	42684	109170	0	0	8230	600379	0	0
2024-06-24 22:01:32			0	36872	0	0	0	24818	23420	143454	27216	1016471	42684	109170	0	0	8230	600627	0	0
2024-06-24 22:02:32			0	36860	0	0	0	24818	23430	143458	27303	1016426	42684	109170	0	0	8229	601091	0	0
2024-06-24 22:03:32			0	36849	0	0	0	24805	23420	143470	27102	1016409	42671	109165	0	0	8229	601580	0	0
2024-06-24 22:04:32			0	36870	0	0	0	24805	23420	143530	27147	1016418	42684	109165	0	0	8230	600710	0	0
2024-06-24 22:05:32			0	36867	0	0	0	24810	23420	143406	26922	1016364	42695	109167	0	0	8230	600835	0	0
2024-06-24 22:06:32			0	36822	0	0	0	24797	23420	143494	27154	1016382	42683	109162	0	0	8228	602699	0	0
2024-06-24 22:07:32			0	36841	0	0	0	24810	23410	143498	27060	1016454	42694	109167	0	0	8228	601945	0	0
2024-06-24 22:08:32			0	36830	0	0	0	24807	23410	143494	27057	1016419	42670	109166	0	0	8228	602401	0	0
2024-06-24 22:09:32			0	36856	0	0	0	24805	23420	143522	27118	1016418	42684	109165	0	0	8229	601290	0	0
2024-06-24 22:10:32			0	36849	0	0	0	24815	23410	143654	27130	1016392	42682	109169	0	0	8229	601614	0	0
2024-06-24 22:11:32			0	36830	0	0	0	24805	23420	143570	27452	1016409	42683	109165	0	0	8228	602367	0	0
2024-06-24 22:12:32			0	36825	0	0	0	24820	23410	143570	27538	1016400	42694	109171	0	0	8227	602609	0	0
2024-06-24 22:13:32			0	36824	0	0	0	24815	23410	143618	27443	1016427	42694	109169	0	0	8227	602650	0	0
2024-06-24 22:14:32			0	36814	0	0	0	24812	23400	143602	27315	1016401	42692	109168	0	0	8227	603099	0	0
2024-06-24 22:15:32			0	36820	0	0	0	24810	23410	143718	27315	1016534	42683	109167	0	0	8227	602816	0	0
2024-06-24 22:16:32			0	36806	0	0	0	24828	23430	143678	27419	1016533	42706	109174	0	0	8226	603329	0	0
2024-06-24 22:17:32			0	36813	0	0	0	24846	23420	143750	27024	1016551	42684	109181	0	0	8226	603073	0	0
2024-06-24 22:18:32			0	36789	0	0	0	24849	23430	143746	27433	1016586	42695	109182	0	0	8225	604035	0	0
2024-06-24 22:19:32			0	36792	0	0	0	24854	23430	143702	27588	1016533	42672	109184	0	0	8225	603911	0	0
2024-06-24 22:20:32			0	36791	0	0	0	24849	23440	143686	27656	1016604	42696	109182	0	0	8225	603918	0	0
2024-06-24 22:21:32			0	36814	0	0	0	24870	23430	143698	27499	1016595	42696	109190	0	0	8226	602997	0	0
2024-06-24 22:22:32			0	36802	0	0	0	24872	23440	143782	27393	1016639	42685	109191	0	0	8225	603462	0	0
2024-06-24 22:23:32			0	36788	0	0	0	24875	23450	143750	27490	1016621	42685	109192	0	0	8225	604009	0	0
2024-06-24 22:24:32			0	36789	0	0	0	24883	23450	143878	27329	1016648	42708	109195	0	0	8225	603968	0	0
2024-06-24 22:25:32			0	36782	0	0	0	24883	23460	143866	27488	1016612	42699	109195	0	0	8224	604224	0	0
2024-06-24 22:26:32			0	36773	0	0	0	24883	23460	143822	27092	1016665	42699	109195	0	0	8224	604599	0	0
2024-06-24 22:27:32			0	36786	0	0	0	24888	23460	143850	27187	1016656	42698	109197	0	0	8224	604058	0	0
2024-06-24 22:28:32			0	36792	0	0	0	24877	23460	143790	27299	1016665	42699	109193	0	0	8225	603809	0	0
2024-06-24 22:29:32			0	36788	0	0	0	24880	23460	143798	27435	1016665	42699	109194	0	0	8225	603975	0	0
2024-06-24 22:30:32			0	36775	0	0	0	24883	23470	143890	26972	1016709	42699	109195	0	0	8224	604481	0	0
2024-06-24 22:31:32			0	36779	0	0	0	24893	23470	143722	27182	1016674	42699	109199	0	0	8224	604315	0	0
2024-06-24 22:32:32			0	36777	0	0	0	24890	23470	143814	27185	1016700	42699	109198	0	0	8224	604398	0	0
2024-06-24 22:33:32			0	36772	0	0	0	24890	23470	143730	27097	1016736	42699	109198	0	0	8224	604606	0	0
2024-06-24 22:34:32			0	36781	0	0	0	24893	23470	143750	27377	1016789	42709	109199	0	0	8224	604232	0	0
2024-06-24 22:35:32			0	36771	0	0	0	24888	23470	143678	27308	1016789	42699	109197	0	0	8224	604648	0	0
2024-06-24 22:36:32			0	36767	0	0	0	24890	23470	143782	27223	1016736	42699	109198	0	0	8223	604814	0	0
2024-06-24 22:37:32			0	36775	0	0	0	24903	23470	143690	27150	1016736	42699	109203	0	0	8224	604481	0	0
2024-06-24 22:38:32			0	36759	0	0	0	24896	23480	143738	27412	1016833	42700	109200	0	0	8223	605113	0	0
2024-06-24 22:39:32			0	36771	0	0	0	24909	23490	143774	27010	1016788	42700	109205	0	0	8223	604580	0	0
2024-06-24 22:40:32			0	36756	0	0	0	24901	23490	143778	27208	1016761	42700	109202	0	0	8223	605203	0	0
2024-06-24 22:41:32			0	36775	0	0	0	24906	23480	143670	27296	1016699	42711	109204	0	0	8224	604447	0	0
2024-06-24 22:42:32			0	36787	0	0	0	24898	23500	143778	27088	1016832	42701	109201	0	0	8224	603881	0	0
2024-06-24 22:43:32			0	36751	0	0	0	24906	23490	143722	27291	1016850	42701	109204	0	0	8222	605411	0	0
2024-06-24 22:44:32			0	36770	0	0	0	24903	23490	143746	27161	1016823	42712	109203	0	0	8223	604621	0	0
2024-06-24 22:45:32			0	36762	0	0	0	24903	23480	143794	27088	1016806	42700	109203	0	0	8223	604988	0	0
2024-06-24 22:46:32			0	36760	0	0	0	24911	23490	143718	27232	1016823	42701	109206	0	0	8223	605037	0	0
2024-06-24 22:47:32			0	36788	0	0	0	24909	23490	143822	27237	1016815	42689	109205	0	0	8224	603873	0	0
2024-06-24 22:48:32			0	36780	0	0	0	24906	23500	143770	27189	1016805	42712	109204	0	0	8224	604172	0	0
2024-06-24 22:49:32			0	36761	0	0	0	24906	23490	143790	27213	1016823	42701	109204	0	0	8223	604995	0	0
2024-06-24 22:50:32			0	36756	0	0	0	24906	23500	143842	26996	1016832	42701	109204	0	0	8223	605169	0	0
2024-06-24 22:51:32			0	36781	0	0	0	24909	23500	143818	27144	1016832	42701	109205	0	0	8224	604130	0	0
2024-06-24 22:52:32			0	36759	0	0	0	24906	23500	143794	27235	1016832	42701	109204	0	0	8223	605045	0	0
2024-06-24 22:53:32			0	36788	0	0	0	24911	23490	143794	27372	1016797	42690	109206	0	0	8224	603873	0	0
2024-06-24 22:54:32			0	36768	0	0	0	24903	23500	143838	27204	1016805	42701	109203	0	0	8223	604670	0	0
2024-06-24 22:55:32			0	36757	0	0	0	24898	23500	143750	27081	1016779	42712	109201	0	0	8223	605128	0	0
2024-06-24 22:56:32			0	36773	0	0	0	24898	23490	143754	27104	1016823	42701	109201	0	0	8224	604497	0	0
2024-06-24 22:57:32			0	36788	0	0	0	24898	23490	143714	27374	1016823	42712	109201	0	0	8224	603873	0	0
2024-06-24 22:58:32			0	36772	0	0	0	24893	23490	143718	27163	1016788	42700	109199	0	0	8224	604538	0	0
2024-06-24 22:59:32			0	36785	0	0	0	24893	23490	143710	26979	1016735	42700	109199	0	0	8224	603998	0	0
2024-06-24 23:00:32			0	36789	0	0	0	24883	23490	143698	27248	1016735	42700	109195	0	0	8225	603832	0	0
2024-06-24 23:01:32			0	36771	0	0	0	24888	23490	143666	27332	1016841	42689	109197	0	0	8224	604580	0	0
2024-06-24 23:02:32			0	36785	0	0	0	24883	23490	143730	27124	1016735	42711	109195	0	0	8224	603998	0	0
2024-06-24 23:03:32			0	36794	0	0	0	24893	23490	143690	26960	1016708	42700	109199	0	0	8225	603624	0	0
2024-06-24 23:04:32			0	36781	0	0	0	24885	23490	143782	27086	1016823	42690	109196	0	0	8224	604164	0	0
2024-06-24 23:05:32			0	36780	0	0	0	24885	23490	143674	27111	1016797	42701	109196	0	0	8224	604206	0	0
2024-06-24 23:06:32			0	36787	0	0	0	24883	23480	143730	27026	1016726	42678	109195	0	0	8225	603949	0	0
2024-06-24 23:07:32			0	36768	0	0	0	24883	23490	143714	27189	1016735	42711	109195	0	0	8224	604704	0	0
2024-06-24 23:08:32			0	36788	0	0	0	24877	23480	143750	27241	1016726	42689	109193	0	0	8225	603907	0	0
2024-06-24 23:09:32			0	36799	0	0	0	24872	23470	143638	27286	1016700	42687	109191	0	0	8225	603484	0	0
2024-06-24 23:10:32			0	36787	0	0	0	24877	23470	143646	27310	1016682	42709	109193	0	0	8225	603983	0	0
2024-06-24 23:11:32			0	36814	0	0	0	24875	23480	143742	27249	1016726	42700	109192	0	0	8226	602828	0	0
2024-06-24 23:12:32			0	36799	0	0	0	24870	23480	143698	27100	1016717	42700	109190	0	0	8225	603451	0	0
2024-06-24 23:13:32			0	36790	0	0	0	24870	23480	143646	27249	1016691	42688	109190	0	0	8225	603824	0	0
2024-06-24 23:14:32			0	36812	0	0	0	24864	23470	143642	27000	1016655	42699	109188	0	0	8226	602945	0	0
2024-06-24 23:15:32			0	36807	0	0	0	24862	23470	143578	27244	1016629	42699	109187	0	0	8226	603152	0	0
2024-06-24 23:16:32			0	36805	0	0	0	24870	23470	143586	27317	1016674	42687	109190	0	0	8226	603235	0	0
2024-06-24 23:17:32			0	36813	0	0	0	24859	23470	143582	27372	1016682	42687	109186	0	0	8226	602903	0	0
2024-06-24 23:18:32			0	36824	0	0	0	24857	23460	143666	27402	1016692	42699	109185	0	0	8227	602481	0	0
2024-06-24 23:19:32			0	36813	0	0	0	24849	23460	143586	27150	1016710	42698	109182	0	0	8226	602937	0	0
2024-06-24 23:20:32			0	36823	0	0	0	24859	23460	143498	27313	1016603	42686	109186	0	0	8227	602522	0	0
2024-06-24 23:21:32			0	36839	0	0	0	24857	23460	143530	27319	1016665	42699	109185	0	0	8228	601859	0	0
2024-06-24 23:22:32			0	36828	0	0	0	24854	23460	143562	27100	1016603	42698	109184	0	0	8227	602315	0	0
2024-06-24 23:23:32			0	36844	0	0	0	24851	23460	143534	26892	1016630	42686	109183	0	0	8228	601652	0	0
2024-06-24 23:24:32			0	36854	0	0	0	24851	23460	143506	26911	1016683	42698	109183	0	0	8229	601238	0	0
2024-06-24 23:25:32			0	36844	0	0	0	24870	23460	143454	27093	1016683	42698	109190	0	0	8228	601652	0	0
2024-06-24 23:26:32			0	36859	0	0	0	24859	23460	143362	27090	1016656	42686	109186	0	0	8229	601031	0	0
2024-06-24 23:27:32			0	36877	0	0	0	24854	23450	143338	27230	1016675	42697	109184	0	0	8230	600319	0	0
2024-06-24 23:28:32			0	36888	0	0	0	24859	23450	143402	27183	1016675	42697	109186	0	0	8230	599864	0	0
2024-06-24 23:29:32			0	36887	0	0	0	24862	23460	143242	27402	1016630	42698	109187	0	0	8230	599872	0	0
2024-06-24 23:30:32			0	36908	0	0	0	24867	23460	143302	27367	1016603	42686	109189	0	0	8231	599004	0	0
2024-06-24 23:31:32			0	36912	0	0	0	24857	23460	143222	27350	1016612	42699	109185	0	0	8231	598839	0	0
2024-06-24 23:32:32			0	36919	0	0	0	24857	23460	143330	27336	1016612	42709	109185	0	0	8232	598550	0	0
2024-06-24 23:33:32			0	36917	0	0	0	24864	23460	143314	27305	1016638	42699	109188	0	0	8232	598632	0	0
2024-06-24 23:34:32			0	36931	0	0	0	24864	23460	143146	27128	1016603	42686	109188	0	0	8232	598055	0	0
2024-06-24 23:35:32			0	36933	0	0	0	24857	23460	143158	27258	1016603	42698	109185	0	0	8233	597972	0	0
2024-06-24 23:36:32			0	36935	0	0	0	24854	23460	143106	27300	1016630	42698	109184	0	0	8233	597889	0	0
2024-06-24 23:37:32			0	36931	0	0	0	24844	23450	143126	27102	1016568	42685	109180	0	0	8233	598088	0	0
2024-06-24 23:38:32			0	36948	0	0	0	24846	23440	143090	27234	1016586	42697	109181	0	0	8233	597420	0	0
2024-06-24 23:39:32			0	36956	0	0	0	24841	23450	143142	27234	1016568	42697	109179	0	0	8234	597057	0	0
2024-06-24 23:40:32			0	36950	0	0	0	24851	23440	143082	27126	1016613	42697	109183	0	0	8233	597338	0	0
2024-06-24 23:41:32			0	36954	0	0	0	24838	23450	143150	27036	1016568	42697	109178	0	0	8234	597140	0	0
2024-06-24 23:42:32			0	36949	0	0	0	24833	23440	143154	26975	1016551	42685	109176	0	0	8234	597379	0	0
2024-06-24 23:43:32			0	36964	0	0	0	24833	23440	143046	27206	1016559	42697	109176	0	0	8234	596761	0	0
2024-06-24 23:44:32			0	36966	0	0	0	24833	23440	143070	26876	1016604	42696	109176	0	0	8235	596678	0	0
2024-06-24 23:45:32			0	36968	0	0	0	24825	23430	143098	27112	1016488	42707	109173	0	0	8235	596630	0	0
2024-06-24 23:46:32			0	36980	0	0	0	24825	23430	143150	27492	1016560	42672	109173	0	0	8235	596135	0	0
2024-06-24 23:47:32			0	36963	0	0	0	24828	23440	143158	27211	1016524	42707	109174	0	0	8235	596802	0	0
2024-06-24 23:48:32			0	36968	0	0	0	24825	23420	143058	27353	1016498	42695	109173	0	0	8235	596663	0	0
2024-06-24 23:49:32			0	36957	0	0	0	24823	23430	143018	27256	1016542	42673	109172	0	0	8234	597083	0	0
2024-06-24 23:50:32			0	36969	0	0	0	24823	23430	143066	27150	1016560	42684	109172	0	0	8235	596588	0	0
2024-06-24 23:51:32			0	36968	0	0	0	24820	23430	143006	27008	1016480	42684	109171	0	0	8235	596630	0	0
2024-06-24 23:52:32			0	36980	0	0	0	24831	23420	143018	27261	1016516	42694	109175	0	0	8235	596169	0	0
2024-06-24 23:53:32			0	36973	0	0	0	24818	23430	142970	27267	1016480	42684	109170	0	0	8235	596424	0	0
2024-06-24 23:54:32			0	36978	0	0	0	24812	23420	143018	27345	1016498	42695	109168	0	0	8235	596251	0	0
2024-06-24 23:55:32			0	36988	0	0	0	24807	23420	142918	27526	1016471	42695	109166	0	0	8236	595840	0	0
2024-06-24 23:56:32			0	36976	0	0	0	24810	23420	142934	27535	1016436	42694	109167	0	0	8235	596334	0	0
2024-06-24 23:57:32			0	36983	0	0	0	24810	23410	143030	27260	1016427	42716	109167	0	0	8236	596079	0	0
2024-06-24 23:58:32			0	37000	0	0	0	24807	23410	142974	27206	1016374	42683	109166	0	0	8237	595379	0	0
2024-06-24 23:59:32			0	36998	0	0	0	24805	23410	142918	27161	1016392	42693	109165	0	0	8237	595461	0	0
2024-06-25 00:00:32			0	36986	0	0	0	24797	23410	142942	27372	1016374	42683	109162	0	0	8236	595955	0	0
2024-06-25 00:01:32			0	36991	0	0	0	24802	23400	142958	27135	1016303	42692	109164	0	0	8236	595783	0	0
2024-06-25 00:02:32			0	36984	0	0	0	24797	23400	142906	26974	1016375	42692	109162	0	0	8236	596071	0	0
2024-06-25 00:03:32			0	36988	0	0	0	24789	23400	142906	27145	1016321	42692	109159	0	0	8236	595907	0	0
2024-06-25 00:04:32			0	37007	0	0	0	24792	23390	142898	27085	1016358	42680	109160	0	0	8237	595158	0	0
2024-06-25 00:05:32			0	36990	0	0	0	24784	23400	142950	27332	1016321	42692	109157	0	0	8237	595824	0	0
2024-06-25 00:06:32			0	37005	0	0	0	24784	23380	142826	27194	1016376	42702	109157	0	0	8237	595274	0	0
2024-06-25 00:07:32			0	37002	0	0	0	24786	23390	142918	27085	1016304	42702	109158	0	0	8237	595364	0	0
2024-06-25 00:08:32			0	37009	0	0	0	24781	23380	142886	27015	1016260	42679	109156	0	0	8237	595109	0	0
2024-06-25 00:09:32			0	37021	0	0	0	24786	23390	142838	27147	1016304	42702	109158	0	0	8238	594582	0	0
2024-06-25 00:10:32			0	37010	0	0	0	24779	23380	142870	27307	1016349	42702	109155	0	0	8238	595068	0	0
2024-06-25 00:11:32			0	37027	0	0	0	24784	23380	142782	27377	1016376	42679	109157	0	0	8238	594369	0	0
2024-06-25 00:12:32			0	37032	0	0	0	24776	23380	142838	27343	1016287	42690	109154	0	0	8239	594163	0	0
2024-06-25 00:13:32			0	37029	0	0	0	24776	23370	142842	27303	1016305	42679	109154	0	0	8239	594320	0	0
2024-06-25 00:14:32			0	37013	0	0	0	24776	23370	142754	27248	1016252	42702	109154	0	0	8238	594978	0	0
2024-06-25 00:15:32			0	37030	0	0	0	24779	23360	142846	27085	1016261	42677	109155	0	0	8239	594313	0	0
2024-06-25 00:16:32			0	37025	0	0	0	24771	23370	142746	27069	1016198	42690	109152	0	0	8238	594485	0	0
2024-06-25 00:17:32			0	37031	0	0	0	24761	23370	142686	27396	1016216	42678	109148	0	0	8239	594238	0	0
2024-06-25 00:18:32			0	37054	0	0	0	24768	23370	142722	27284	1016243	42678	109151	0	0	8240	593293	0	0
2024-06-25 00:19:32			0	37033	0	0	0	24763	23360	142758	27164	1016234	42700	109149	0	0	8239	594189	0	0
2024-06-25 00:20:32			0	37023	0	0	0	24761	23360	142778	27303	1016172	42688	109148	0	0	8238	594600	0	0
2024-06-25 00:21:32			0	37034	0	0	0	24761	23370	142674	27241	1016163	42701	109148	0	0	8239	594115	0	0
2024-06-25 00:22:32			0	37039	0	0	0	24753	23360	142714	27189	1016119	42666	109145	0	0	8239	593943	0	0
2024-06-25 00:23:32			0	37047	0	0	0	24753	23360	142702	27462	1016146	42677	109145	0	0	8240	593614	0	0
2024-06-25 00:24:32			0	37059	0	0	0	24745	23350	142806	27291	1016164	42699	109142	0	0	8241	593155	0	0
2024-06-25 00:25:32			0	37041	0	0	0	24758	23350	142686	27369	1016137	42666	109147	0	0	8239	593894	0	0
2024-06-25 00:26:32			0	37038	0	0	0	24753	23340	142698	27168	1016147	42675	109145	0	0	8239	594051	0	0
2024-06-25 00:27:32			0	37074	0	0	0	24740	23350	142630	27343	1016164	42676	109140	0	0	8241	592539	0	0
2024-06-25 00:28:32			0	37063	0	0	0	24742	23340	142606	27180	1016200	42687	109141	0	0	8241	593024	0	0
2024-06-25 00:29:32			0	37074	0	0	0	24745	23350	142534	27352	1016075	42687	109142	0	0	8241	592539	0	0
2024-06-25 00:30:32			0	37072	0	0	0	24750	23350	142574	27163	1016129	42687	109144	0	0	8241	592621	0	0
2024-06-25 00:31:32			0	37094	0	0	0	24742	23340	142498	26908	1016067	42665	109141	0	0	8242	591752	0	0
2024-06-25 00:32:32			0	37087	0	0	0	24745	23340	142534	27310	1016120	42675	109142	0	0	8242	592039	0	0
2024-06-25 00:33:32			0	37099	0	0	0	24748	23350	142630	27312	1016129	42699	109143	0	0	8243	591514	0	0
2024-06-25 00:34:32			0	37089	0	0	0	24745	23340	142622	27178	1016120	42687	109142	0	0	8242	591957	0	0
2024-06-25 00:35:32			0	37101	0	0	0	24742	23340	142534	27294	1016093	42675	109141	0	0	8243	591466	0	0
2024-06-25 00:36:32			0	37099	0	0	0	24745	23340	142510	27398	1016138	42686	109142	0	0	8243	591548	0	0
2024-06-25 00:37:32			0	37110	0	0	0	24748	23340	142406	27428	1016093	42687	109143	0	0	8243	591097	0	0
2024-06-25 00:38:32			0	37120	0	0	0	24750	23340	142470	27424	1016111	42664	109144	0	0	8244	590688	0	0
2024-06-25 00:39:32			0	37137	0	0	0	24748	23340	142430	27211	1016120	42675	109143	0	0	8245	589992	0	0
2024-06-25 00:40:32			0	37135	0	0	0	24742	23340	142354	27239	1016093	42687	109141	0	0	8245	590074	0	0
2024-06-25 00:41:32			0	37140	0	0	0	24742	23340	142422	27630	1016058	42674	109141	0	0	8245	589869	0	0
2024-06-25 00:42:32			0	37167	0	0	0	24742	23330	142382	27488	1016156	42674	109141	0	0	8246	588799	0	0
2024-06-25 00:43:32			0	37146	0	0	0	24742	23340	142386	27185	1016067	42687	109141	0	0	8245	589624	0	0
2024-06-25 00:44:32			0	37167	0	0	0	24742	23340	142290	27107	1016085	42686	109141	0	0	8246	588766	0	0
2024-06-25 00:45:32			0	37164	0	0	0	24737	23340	142318	27086	1016013	42687	109139	0	0	8246	588888	0	0
2024-06-25 00:46:32			0	37184	0	0	0	24737	23340	142214	27331	1016093	42675	109139	0	0	8247	588072	0	0
2024-06-25 00:47:32			0	37190	0	0	0	24735	23330	142274	27531	1016049	42686	109138	0	0	8247	587860	0	0
2024-06-25 00:48:32			0	37211	0	0	0	24729	23330	142218	27272	1016041	42664	109136	0	0	8249	587003	0	0
2024-06-25 00:49:32			0	37221	0	0	0	24722	23330	142154	27150	1016041	42686	109133	0	0	8249	586596	0	0
2024-06-25 00:50:32			0	37225	0	0	0	24724	23330	142118	27232	1016014	42674	109134	0	0	8250	586433	0	0
2024-06-25 00:51:32			0	37240	0	0	0	24735	23330	142098	27175	1016068	42674	109138	0	0	8250	585822	0	0
2024-06-25 00:52:32			0	37237	0	0	0	24722	23330	142094	27351	1016049	42686	109133	0	0	8250	585944	0	0
2024-06-25 00:53:32			0	37255	0	0	0	24735	23330	142078	27332	1016014	42674	109138	0	0	8251	585211	0	0
2024-06-25 00:54:32			0	37249	0	0	0	24727	23320	142066	27034	1016006	42685	109135	0	0	8251	585489	0	0
2024-06-25 00:55:32			0	37266	0	0	0	24724	23330	142002	27234	1016049	42697	109134	0	0	8252	584764	0	0
2024-06-25 00:56:32			0	37260	0	0	0	24727	23320	141934	27150	1016032	42685	109135	0	0	8251	585041	0	0
2024-06-25 00:57:32			0	37290	0	0	0	24732	23320	141942	27187	1016032	42685	109137	0	0	8253	583822	0	0
2024-06-25 00:58:32			0	37297	0	0	0	24740	23320	141970	26955	1016059	42685	109140	0	0	8253	583537	0	0
2024-06-25 00:59:32			0	37291	0	0	0	24735	23320	141870	27345	1015997	42673	109138	0	0	8253	583781	0	0
2024-06-25 01:00:32			0	37300	0	0	0	24732	23320	141842	27383	1016032	42673	109137	0	0	8253	583416	0	0
2024-06-25 01:01:32			0	37300	0	0	0	24727	23320	141898	27263	1016059	42685	109135	0	0	8253	583416	0	0
2024-06-25 01:02:32			0	37308	0	0	0	24719	23330	141866	27287	1016068	42674	109132	0	0	8254	583058	0	0
2024-06-25 01:03:32			0	37317	0	0	0	24727	23330	141850	26968	1016068	42674	109135	0	0	8254	582693	0	0
2024-06-25 01:04:32			0	37314	0	0	0	24732	23320	141822	27434	1016059	42673	109137	0	0	8254	582847	0	0
2024-06-25 01:05:32			0	37324	0	0	0	24732	23320	141710	27178	1016059	42685	109137	0	0	8254	582442	0	0
2024-06-25 01:06:32			0	37321	0	0	0	24722	23330	141771	27409	1016068	42686	109133	0	0	8255	582531	0	0
2024-06-25 01:07:32			0	37335	0	0	0	24716	23320	141743	27033	1015979	42673	109131	0	0	8255	581996	0	0
2024-06-25 01:08:32			0	37329	0	0	0	24722	23330	141771	27244	1016041	42674	109133	0	0	8255	582206	0	0
2024-06-25 01:09:32			0	37323	0	0	0	24727	23320	141766	27405	1015997	42684	109135	0	0	8255	582482	0	0
2024-06-25 01:10:32			0	37312	0	0	0	24727	23320	141710	27327	1016050	42684	109135	0	0	8254	582928	0	0
2024-06-25 01:11:32			0	37318	0	0	0	24724	23320	141703	27296	1016024	42684	109134	0	0	8254	582685	0	0
2024-06-25 01:12:32			0	37329	0	0	0	24724	23320	141791	27095	1016032	42685	109134	0	0	8255	582239	0	0
2024-06-25 01:13:32			0	37337	0	0	0	24714	23310	141687	27055	1015935	42684	109130	0	0	8255	581947	0	0
2024-06-25 01:14:32			0	37327	0	0	0	24719	23310	141679	27192	1016015	42684	109132	0	0	8255	582353	0	0
2024-06-25 01:15:32			0	37328	0	0	0	24724	23310	141719	27379	1016068	42673	109134	0	0	8255	582312	0	0
2024-06-25 01:16:32			0	37331	0	0	0	24716	23310	141667	27279	1016006	42673	109131	0	0	8255	582190	0	0
2024-06-25 01:17:32			0	37324	0	0	0	24709	23320	141763	27286	1015925	42707	109128	0	0	8255	582442	0	0
2024-06-25 01:18:32			0	37326	0	0	0	24709	23310	141738	27421	1015988	42684	109128	0	0	8255	582393	0	0
2024-06-25 01:19:32			0	37328	0	0	0	24711	23320	141719	27376	1015944	42695	109129	0	0	8255	582279	0	0
2024-06-25 01:20:32			0	37339	0	0	0	24719	23310	141727	27170	1015988	42684	109132	0	0	8255	581866	0	0
2024-06-25 01:21:32			0	37342	0	0	0	24709	23310	141747	27504	1015988	42684	109128	0	0	8256	581745	0	0
2024-06-25 01:22:32			0	37323	0	0	0	24716	23320	141751	27614	1015944	42684	109131	0	0	8255	582482	0	0
2024-06-25 01:23:32			0	37339	0	0	0	24709	23300	141735	27164	1015918	42683	109128	0	0	8256	581899	0	0
2024-06-25 01:24:32			0	37341	0	0	0	24711	23310	141663	27216	1015908	42673	109129	0	0	8256	581785	0	0
2024-06-25 01:25:32			0	37348	0	0	0	24709	23300	141759	27135	1015944	42683	109128	0	0	8256	581534	0	0
2024-06-25 01:26:32			0	37336	0	0	0	24706	23300	141743	27523	1015962	42682	109127	0	0	8255	582020	0	0
2024-06-25 01:27:32			0	37362	0	0	0	24714	23310	141771	27189	1015979	42695	109130	0	0	8257	580934	0	0
2024-06-25 01:28:32			0	37335	0	0	0	24709	23310	141675	27483	1015979	42662	109128	0	0	8255	582028	0	0
2024-06-25 01:29:32			0	37351	0	0	0	24706	23300	141731	27322	1015971	42705	109127	0	0	8256	581412	0	0
2024-06-25 01:30:32			0	37322	0	0	0	24716	23310	141735	27090	1015979	42673	109131	0	0	8255	582556	0	0
2024-06-25 01:31:32			0	37345	0	0	0	24711	23300	141767	27452	1015971	42683	109129	0	0	8256	581656	0	0
2024-06-25 01:32:32			0	37341	0	0	0	24709	23300	141675	27060	1015944	42683	109128	0	0	8256	581818	0	0
2024-06-25 01:33:32			0	37331	0	0	0	24703	23310	141655	27092	1015935	42684	109126	0	0	8255	582190	0	0
2024-06-25 01:34:32			0	37341	0	0	0	24703	23310	141675	27222	1015979	42673	109126	0	0	8256	581785	0	0
2024-06-25 01:35:32			0	37356	0	0	0	24701	23300	141603	27405	1015909	42671	109125	0	0	8257	581210	0	0
2024-06-25 01:36:32			0	37344	0	0	0	24696	23300	141631	27244	1015891	42672	109123	0	0	8256	581696	0	0
2024-06-25 01:37:32			0	37366	0	0	0	24703	23300	141595	27665	1015882	42682	109126	0	0	8257	580805	0	0
2024-06-25 01:38:32			0	37366	0	0	0	24709	23300	141687	27235	1015944	42672	109128	0	0	8257	580805	0	0
2024-06-25 01:39:32			0	37365	0	0	0	24703	23300	141631	27474	1015918	42672	109126	0	0	8257	580846	0	0
2024-06-25 01:40:32			0	37363	0	0	0	24706	23300	141711	27298	1015891	42672	109127	0	0	8257	580927	0	0
2024-06-25 01:41:32			0	37365	0	0	0	24701	23290	141595	27074	1015900	42682	109125	0	0	8257	580878	0	0
2024-06-25 01:42:32			0	37365	0	0	0	24703	23290	141699	27554	1015900	42682	109126	0	0	8257	580878	0	0
2024-06-25 01:43:32			0	37364	0	0	0	24701	23300	141655	27412	1015829	42682	109125	0	0	8257	580886	0	0
2024-06-25 01:44:32			0	37347	0	0	0	24701	23290	141719	27053	1015900	42660	109125	0	0	8256	581607	0	0
2024-06-25 01:45:32			0	37361	0	0	0	24703	23300	141683	27199	1015856	42682	109126	0	0	8257	581008	0	0
2024-06-25 01:46:32			0	37365	0	0	0	24696	23290	141675	27225	1015838	42671	109123	0	0	8257	580878	0	0
2024-06-25 01:47:32			0	37345	0	0	0	24690	23290	141635	26986	1015892	42671	109121	0	0	8256	581688	0	0
2024-06-25 01:48:32			0	37366	0	0	0	24698	23300	141615	27454	1015936	42693	109124	0	0	8257	580805	0	0
2024-06-25 01:49:32			0	37370	0	0	0	24701	23300	141747	27263	1015882	42693	109125	0	0	8257	580643	0	0
2024-06-25 01:50:32			0	37344	0	0	0	24703	23290	141703	27429	1015945	42671	109126	0	0	8256	581729	0	0
2024-06-25 01:51:32			0	37345	0	0	0	24698	23300	141735	27093	1015864	42672	109124	0	0	8256	581656	0	0
2024-06-25 01:52:32			0	37317	0	0	0	24698	23300	141827	27114	1015962	42693	109124	0	0	8255	582791	0	0
2024-06-25 01:53:32			0	37319	0	0	0	24701	23300	141843	27279	1015909	42682	109125	0	0	8255	582710	0	0
2024-06-25 01:54:32			0	37289	0	0	0	24703	23290	141842	27130	1015918	42682	109126	0	0	8253	583961	0	0
2024-06-25 01:55:32			0	37285	0	0	0	24693	23290	141970	27187	1015874	42682	109122	0	0	8253	584123	0	0
2024-06-25 01:56:32			0	37289	0	0	0	24688	23290	141978	27189	1015900	42671	109120	0	0	8253	583961	0	0
2024-06-25 01:57:32			0	37273	0	0	0	24685	23290	142062	27324	1015874	42682	109119	0	0	8252	584611	0	0
2024-06-25 01:58:32			0	37281	0	0	0	24685	23290	142022	27199	1015927	42682	109119	0	0	8253	584286	0	0
2024-06-25 01:59:32			0	37266	0	0	0	24688	23280	142038	27194	1015830	42692	109120	0	0	8252	584928	0	0
2024-06-25 02:00:32			0	37238	0	0	0	24685	23290	142062	27300	1015892	42682	109119	0	0	8251	586035	0	0
2024-06-25 02:01:32			0	37247	0	0	0	24680	23280	142098	27495	1015875	42680	109117	0	0	8251	585701	0	0
2024-06-25 02:02:32			0	37220	0	0	0	24685	23290	142222	27364	1015865	42671	109119	0	0	8250	586768	0	0
2024-06-25 02:03:32			0	37194	0	0	0	24688	23290	142318	27159	1015838	42682	109120	0	0	8248	587829	0	0
2024-06-25 02:04:32			0	37144	0	0	0	24680	23290	142482	27071	1015865	42671	109117	0	0	8246	589871	0	0
2024-06-25 02:05:32			0	37069	0	0	0	24683	23280	142678	27142	1015830	42681	109118	0	0	8242	592977	0	0
2024-06-25 02:06:32			0	37003	0	0	0	24688	23280	142942	27196	1015910	42681	109120	0	0	8238	595691	0	0
2024-06-25 02:07:32			0	36909	0	0	0	24688	23280	143354	27265	1015848	42691	109120	0	0	8233	599569	0	0
2024-06-25 02:08:32			0	36801	0	0	0	24677	23280	143798	27317	1015821	42658	109116	0	0	8228	604046	0	0
2024-06-25 02:09:32			0	36682	0	0	0	24680	23280	144090	27199	1015830	42681	109117	0	0	8222	609005	0	0
2024-06-25 02:10:32			0	36576	0	0	0	24688	23280	144649	27386	1015794	42680	109120	0	0	8216	613446	0	0
2024-06-25 02:11:32			0	36530	0	0	0	24688	23280	144873	26939	1015875	42680	109120	0	0	8213	615380	0	0
2024-06-25 02:12:32			0	36431	0	0	0	24688	23280	145221	27433	1015830	42670	109120	0	0	8208	619556	0	0
2024-06-25 02:13:32			0	36359	0	0	0	24683	23270	145585	26975	1015759	42690	109118	0	0	8204	622641	0	0
2024-06-25 02:14:32			0	36290	0	0	0	24685	23270	145849	27147	1015831	42679	109119	0	0	8201	625574	0	0
2024-06-25 02:15:32			0	36213	0	0	0	24677	23280	146045	27086	1015803	42670	109116	0	0	8197	628823	0	0
2024-06-25 02:16:32			0	36153	0	0	0	24688	23280	146265	27381	1015803	42681	109120	0	0	8194	631390	0	0
2024-06-25 02:17:32			0	36120	0	0	0	24683	23280	146425	27067	1015794	42691	109118	0	0	8192	632805	0	0
2024-06-25 02:18:32			0	36093	0	0	0	24683	23270	146669	27138	1015813	42668	109118	0	0	8190	634000	0	0
2024-06-25 02:19:32			0	36059	0	0	0	24677	23280	146701	27313	1015856	42692	109116	0	0	8189	635427	0	0
2024-06-25 02:20:32			0	36027	0	0	0	24685	23270	146773	27296	1015866	42668	109119	0	0	8187	636841	0	0
2024-06-25 02:21:32			0	35997	0	0	0	24683	23270	146941	27244	1015813	42668	109118	0	0	8185	638135	0	0
2024-06-25 02:22:32			0	36002	0	0	0	24680	23270	146985	27237	1015804	42668	109117	0	0	8186	637919	0	0
2024-06-25 02:23:32			0	35955	0	0	0	24677	23280	146965	27164	1015883	42670	109116	0	0	8183	639914	0	0
2024-06-25 02:24:32			0	35968	0	0	0	24683	23280	146973	27410	1015794	42658	109118	0	0	8184	639352	0	0
2024-06-25 02:25:32			0	35948	0	0	0	24685	23280	147029	26856	1015821	42680	109119	0	0	8183	640217	0	0
2024-06-25 02:26:32			0	35930	0	0	0	24683	23280	147077	27086	1015875	42669	109118	0	0	8182	640996	0	0
2024-06-25 02:27:32			0	35953	0	0	0	24683	23280	147013	27164	1015883	42659	109118	0	0	8183	640001	0	0
2024-06-25 02:28:32			0	35936	0	0	0	24683	23280	147021	26958	1015821	42691	109118	0	0	8182	640737	0	0
2024-06-25 02:29:32			0	35941	0	0	0	24690	23280	147097	27118	1015821	42658	109121	0	0	8182	640520	0	0
2024-06-25 02:30:32			0	35952	0	0	0	24683	23290	147089	27066	1015865	42682	109118	0	0	8183	640008	0	0
2024-06-25 02:31:32			0	35999	0	0	0	24685	23270	147093	27521	1015839	42668	109119	0	0	8185	638049	0	0
2024-06-25 02:32:32			0	35983	0	0	0	24683	23280	146965	27372	1015821	42680	109118	0	0	8185	638704	0	0
2024-06-25 02:33:32			0	36014	0	0	0	24677	23270	146881	27237	1015786	42668	109116	0	0	8186	637402	0	0
2024-06-25 02:34:32			0	36019	0	0	0	24683	23280	146781	27048	1015848	42680	109118	0	0	8186	637150	0	0
2024-06-25 02:35:32			0	36058	0	0	0	24688	23280	146569	27177	1015768	42669	109120	0	0	8188	635470	0	0
2024-06-25 02:36:32			0	36097	0	0	0	24683	23280	146565	27317	1015848	42691	109118	0	0	8191	633793	0	0
2024-06-25 02:37:32			0	36129	0	0	0	24685	23280	146425	27353	1015901	42669	109119	0	0	8192	632419	0	0
2024-06-25 02:38:32			0	36174	0	0	0	24688	23280	146189	27083	1015856	42681	109120	0	0	8195	630491	0	0
2024-06-25 02:39:32			0	36228	0	0	0	24688	23280	146021	27287	1015821	42703	109120	0	0	8197	628182	0	0
2024-06-25 02:40:32			0	36277	0	0	0	24693	23280	145909	27457	1015875	42680	109122	0	0	8200	626092	0	0
2024-06-25 02:41:32			0	36292	0	0	0	24688	23290	145761	27358	1015838	42682	109120	0	0	8201	625418	0	0
2024-06-25 02:42:32			0	36360	0	0	0	24696	23280	145553	27017	1015883	42681	109123	0	0	8204	622564	0	0
2024-06-25 02:43:32			0	36414	0	0	0	24683	23290	145313	27230	1015892	42682	109118	0	0	8207	620241	0	0
2024-06-25 02:44:32			0	36462	0	0	0	24685	23290	145193	27194	1015865	42682	109119	0	0	8210	618212	0	0
2024-06-25 02:45:32			0	36501	0	0	0	24683	23280	144993	27327	1015883	42670	109118	0	0	8212	616601	0	0
2024-06-25 02:46:32			0	36535	0	0	0	24685	23280	144733	27343	1015821	42669	109119	0	0	8214	615169	0	0
2024-06-25 02:47:32			0	36581	0	0	0	24688	23280	144649	27223	1015875	42703	109120	0	0	8216	613236	0	0
2024-06-25 02:48:32			0	36606	0	0	0	24690	23290	144482	27059	1015945	42682	109121	0	0	8217	612152	0	0
2024-06-25 02:49:32			0	36659	0	0	0	24696	23290	144294	27287	1015900	42682	109123	0	0	8220	609932	0	0
2024-06-25 02:50:32			0	36701	0	0	0	24701	23280	144178	27405	1015875	42691	109125	0	0	8222	608211	0	0
2024-06-25 02:51:32			0	36746	0	0	0	24698	23280	144006	27319	1015875	42680	109124	0	0	8225	606334	0	0
2024-06-25 02:52:32			0	36772	0	0	0	24690	23290	143918	27124	1015927	42682	109121	0	0	8226	605218	0	0
2024-06-25 02:53:32			0	36800	0	0	0	24698	23280	143786	27244	1015910	42670	109124	0	0	8227	604087	0	0
2024-06-25 02:54:32			0	36833	0	0	0	24701	23290	143578	27242	1015954	42693	109125	0	0	8229	602683	0	0
2024-06-25 02:55:32			0	36848	0	0	0	24701	23290	143690	27232	1015892	42671	109125	0	0	8230	602061	0	0
2024-06-25 02:56:32			0	36887	0	0	0	24696	23290	143542	27275	1015918	42682	109123	0	0	8232	600445	0	0
2024-06-25 02:57:32			0	36901	0	0	0	24711	23290	143518	26979	1015892	42682	109129	0	0	8233	599866	0	0
2024-06-25 02:58:32			0	36931	0	0	0	24706	23300	143338	27208	1015909	42693	109127	0	0	8234	598592	0	0
2024-06-25 02:59:32			0	36943	0	0	0	24706	23300	143250	27274	1015936	42671	109127	0	0	8235	598097	0	0
2024-06-25 03:00:32			0	36977	0	0	0	24706	23300	143106	27116	1015936	42704	109127	0	0	8237	596694	0	0
2024-06-25 03:01:32			0	36975	0	0	0	24711	23290	143134	27350	1015954	42693	109129	0	0	8236	596811	0	0
2024-06-25 03:02:32			0	36991	0	0	0	24714	23300	143130	27189	1015971	42683	109130	0	0	8237	596118	0	0
2024-06-25 03:03:32			0	37015	0	0	0	24709	23300	142986	27339	1015962	42660	109128	0	0	8239	595130	0	0
2024-06-25 03:04:32			0	37038	0	0	0	24709	23300	142890	27362	1015936	42660	109128	0	0	8240	594184	0	0
2024-06-25 03:05:32			0	37072	0	0	0	24711	23310	142826	27303	1015979	42684	109129	0	0	8242	592755	0	0
2024-06-25 03:06:32			0	37096	0	0	0	24714	23300	142862	27118	1015989	42693	109130	0	0	8243	591803	0	0
2024-06-25 03:07:32			0	37087	0	0	0	24716	23290	142754	27595	1016007	42682	109131	0	0	8242	592206	0	0
2024-06-25 03:08:32			0	37097	0	0	0	24711	23310	142654	27256	1016033	42695	109129	0	0	8243	591729	0	0
2024-06-25 03:09:32			0	37124	0	0	0	24714	23300	142574	27419	1015989	42682	109130	0	0	8244	590656	0	0
2024-06-25 03:10:32			0	37135	0	0	0	24714	23300	142638	27138	1015936	42693	109130	0	0	8245	590206	0	0
2024-06-25 03:11:32			0	37145	0	0	0	24716	23300	142490	27393	1015962	42671	109131	0	0	8245	589797	0	0
2024-06-25 03:12:32			0	37154	0	0	0	24711	23310	142454	27460	1015979	42684	109129	0	0	8246	589396	0	0
2024-06-25 03:13:32			0	37158	0	0	0	24716	23310	142390	27157	1016006	42673	109131	0	0	8246	589233	0	0
2024-06-25 03:14:32			0	37176	0	0	0	24709	23290	142430	27078	1015927	42671	109128	0	0	8247	588564	0	0
2024-06-25 03:15:32			0	37171	0	0	0	24709	23300	142402	27358	1015962	42682	109128	0	0	8247	588735	0	0
2024-06-25 03:16:32			0	37175	0	0	0	24711	23300	142354	27256	1015989	42671	109129	0	0	8247	588571	0	0
2024-06-25 03:17:32			0	37218	0	0	0	24714	23300	142318	27296	1016024	42683	109130	0	0	8249	586817	0	0
2024-06-25 03:18:32			0	37211	0	0	0	24716	23310	142274	27275	1015953	42695	109131	0	0	8249	587069	0	0
2024-06-25 03:19:32			0	37184	0	0	0	24716	23300	142270	27090	1015998	42683	109131	0	0	8247	588204	0	0
2024-06-25 03:20:32			0	37219	0	0	0	24719	23320	142234	27161	1015997	42673	109132	0	0	8249	586710	0	0
2024-06-25 03:21:32			0	37233	0	0	0	24709	23300	142158	26757	1015971	42694	109128	0	0	8250	586206	0	0
2024-06-25 03:22:32			0	37226	0	0	0	24711	23300	142114	27144	1015944	42672	109129	0	0	8250	586491	0	0
2024-06-25 03:23:32			0	37247	0	0	0	24714	23300	142154	27196	1015971	42694	109130	0	0	8251	585636	0	0
2024-06-25 03:24:32			0	37243	0	0	0	24714	23300	142122	27296	1015971	42694	109130	0	0	8250	585799	0	0
2024-06-25 03:25:32			0	37243	0	0	0	24711	23310	142186	27102	1016006	42673	109129	0	0	8251	585766	0	0
2024-06-25 03:26:32			0	37254	0	0	0	24719	23310	142062	27358	1016033	42684	109132	0	0	8251	585318	0	0
2024-06-25 03:27:32			0	37248	0	0	0	24719	23310	142150	27066	1016033	42684	109132	0	0	8251	585562	0	0
2024-06-25 03:28:32			0	37262	0	0	0	24714	23300	142138	27066	1016024	42683	109130	0	0	8251	585025	0	0
2024-06-25 03:29:32			0	37239	0	0	0	24711	23300	142106	27140	1016024	42683	109129	0	0	8250	585961	0	0
2024-06-25 03:30:32			0	37284	0	0	0	24716	23300	142074	27319	1015971	42672	109131	0	0	8253	584131	0	0
2024-06-25 03:31:32			0	37265	0	0	0	24716	23320	142058	26897	1015997	42684	109131	0	0	8252	584838	0	0
2024-06-25 03:32:32			0	37293	0	0	0	24714	23310	142110	27268	1015988	42673	109130	0	0	8253	583733	0	0
2024-06-25 03:33:32			0	37285	0	0	0	24709	23310	142038	27362	1015988	42684	109128	0	0	8253	584057	0	0
2024-06-25 03:34:32			0	37306	0	0	0	24714	23310	142054	27334	1016006	42684	109130	0	0	8254	583205	0	0
2024-06-25 03:35:32			0	37293	0	0	0	24716	23310	141982	27289	1016033	42695	109131	0	0	8253	583733	0	0
2024-06-25 03:36:32			0	37298	0	0	0	24714	23310	142034	27727	1016006	42684	109130	0	0	8253	583529	0	0
2024-06-25 03:37:32			0	37305	0	0	0	24714	23310	142078	27085	1016041	42684	109130	0	0	8254	583245	0	0
2024-06-25 03:38:32			0	37308	0	0	0	24711	23310	141946	27204	1016006	42695	109129	0	0	8254	583124	0	0
2024-06-25 03:39:32			0	37300	0	0	0	24709	23300	141954	27300	1015944	42672	109128	0	0	8254	583481	0	0
2024-06-25 03:40:32			0	37335	0	0	0	24716	23310	141923	27138	1016006	42695	109131	0	0	8255	582028	0	0
2024-06-25 03:41:32			0	37329	0	0	0	24714	23300	141871	26981	1015944	42694	109130	0	0	8255	582304	0	0
2024-06-25 03:42:32			0	37320	0	0	0	24703	23310	141811	27400	1015979	42684	109126	0	0	8255	582637	0	0
2024-06-25 03:43:32			0	37329	0	0	0	24716	23300	141851	27524	1015989	42693	109131	0	0	8255	582304	0	0
2024-06-25 03:44:32			0	37337	0	0	0	24714	23310	141831	27052	1016015	42673	109130	0	0	8255	581947	0	0
2024-06-25 03:45:32			0	37331	0	0	0	24719	23310	141855	27126	1015953	42684	109132	0	0	8255	582190	0	0
2024-06-25 03:46:32			0	37363	0	0	0	24711	23310	141811	27218	1015979	42695	109129	0	0	8257	580894	0	0
2024-06-25 03:47:32			0	37353	0	0	0	24714	23300	141787	27220	1015989	42682	109130	0	0	8256	581332	0	0
2024-06-25 03:48:32			0	37331	0	0	0	24722	23310	141763	27055	1015961	42684	109133	0	0	8255	582190	0	0
2024-06-25 03:49:32			0	37354	0	0	0	24722	23310	141763	26977	1016033	42717	109133	0	0	8256	581258	0	0
2024-06-25 03:50:32			0	37353	0	0	0	24716	23320	141731	27294	1015997	42695	109131	0	0	8256	581266	0	0
2024-06-25 03:51:32			0	37364	0	0	0	24729	23320	141815	27187	1016077	42684	109136	0	0	8257	580821	0	0
2024-06-25 03:52:32			0	37349	0	0	0	24722	23310	141823	27138	1016140	42684	109133	0	0	8256	581461	0	0
2024-06-25 03:53:32			0	37346	0	0	0	24724	23310	141799	27123	1016095	42673	109134	0	0	8256	581582	0	0
2024-06-25 03:54:32			0	37341	0	0	0	24719	23310	141795	27010	1016060	42695	109132	0	0	8256	581785	0	0
2024-06-25 03:55:32			0	37370	0	0	0	24724	23310	141735	27137	1016068	42695	109134	0	0	8257	580611	0	0
2024-06-25 03:56:32			0	37372	0	0	0	24722	23310	141587	27445	1016033	42684	109133	0	0	8257	580530	0	0
2024-06-25 03:57:32			0	37369	0	0	0	24724	23320	141667	27410	1016059	42696	109134	0	0	8257	580618	0	0
2024-06-25 03:58:32			0	37355	0	0	0	24716	23320	141643	27376	1016086	42685	109131	0	0	8256	581185	0	0
2024-06-25 03:59:32			0	37350	0	0	0	24724	23310	141691	27183	1016060	42695	109134	0	0	8256	581420	0	0
2024-06-25 04:00:32			0	37368	0	0	0	24722	23320	141671	27133	1016050	42684	109133	0	0	8257	580659	0	0
2024-06-25 04:01:32			0	37377	0	0	0	24727	23310	141667	27298	1016033	42673	109135	0	0	8257	580327	0	0
2024-06-25 04:02:32			0	37380	0	0	0	24719	23310	141631	26989	1015988	42673	109132	0	0	8258	580206	0	0
2024-06-25 04:03:32			0	37399	0	0	0	24722	23320	141655	27157	1016086	42696	109133	0	0	8259	579405	0	0
2024-06-25 04:04:32			0	37392	0	0	0	24729	23310	141591	26896	1016015	42684	109136	0	0	8258	579721	0	0
2024-06-25 04:05:32			0	37388	0	0	0	24727	23320	141663	27177	1016077	42695	109135	0	0	8258	579850	0	0
2024-06-25 04:06:32			0	37387	0	0	0	24735	23320	141643	27294	1016104	42684	109138	0	0	8258	579890	0	0
2024-06-25 04:07:32			0	37373	0	0	0	24732	23320	141699	27307	1016077	42684	109137	0	0	8257	580456	0	0
2024-06-25 04:08:32			0	37344	0	0	0	24735	23320	141659	27376	1016166	42685	109138	0	0	8255	581631	0	0
2024-06-25 04:09:32			0	37347	0	0	0	24735	23310	141703	27327	1016148	42684	109138	0	0	8256	581542	0	0
2024-06-25 04:10:32			0	37357	0	0	0	24729	23320	141815	27284	1016104	42695	109136	0	0	8256	581104	0	0
2024-06-25 04:11:32			0	37339	0	0	0	24735	23320	141831	27204	1016219	42685	109138	0	0	8255	581833	0	0
2024-06-25 04:12:32			0	37328	0	0	0	24735	23320	141783	27410	1016059	42696	109138	0	0	8255	582279	0	0
2024-06-25 04:13:32			0	37320	0	0	0	24737	23330	141899	27395	1016201	42697	109139	0	0	8254	582571	0	0
2024-06-25 04:14:32			0	37322	0	0	0	24745	23330	141839	27339	1016201	42697	109142	0	0	8254	582490	0	0
2024-06-25 04:15:32			0	37335	0	0	0	24745	23330	141891	27279	1016094	42697	109142	0	0	8255	581963	0	0
2024-06-25 04:16:32			0	37333	0	0	0	24737	23330	141883	27334	1016148	42686	109139	0	0	8255	582044	0	0
2024-06-25 04:17:32			0	37324	0	0	0	24737	23320	141883	26994	1016166	42673	109139	0	0	8254	582442	0	0
2024-06-25 04:18:32			0	37332	0	0	0	24729	23320	141843	27222	1016112	42696	109136	0	0	8255	582117	0	0
2024-06-25 04:19:32			0	37321	0	0	0	24732	23330	141827	26970	1016121	42674	109137	0	0	8254	582531	0	0
2024-06-25 04:20:32			0	37315	0	0	0	24729	23330	141834	27274	1016148	42697	109136	0	0	8254	582774	0	0
2024-06-25 04:21:32			0	37327	0	0	0	24740	23320	141759	27005	1016086	42685	109140	0	0	8255	582320	0	0
2024-06-25 04:22:32			0	37315	0	0	0	24732	23320	141887	27072	1016112	42685	109137	0	0	8254	582807	0	0
2024-06-25 04:23:32			0	37315	0	0	0	24737	23330	141919	27098	1016076	42686	109139	0	0	8254	582774	0	0
2024-06-25 04:24:32			0	37323	0	0	0	24735	23320	141878	27156	1016166	42696	109138	0	0	8254	582482	0	0
2024-06-25 04:25:32			0	37320	0	0	0	24740	23330	141763	26899	1016094	42674	109140	0	0	8254	582571	0	0
2024-06-25 04:26:32			0	37322	0	0	0	24740	23330	141807	27220	1016156	42686	109140	0	0	8254	582490	0	0
2024-06-25 04:27:32			0	37325	0	0	0	24737	23330	141863	27150	1016210	42674	109139	0	0	8255	582368	0	0
2024-06-25 04:28:32			0	37317	0	0	0	24740	23320	141978	27443	1016112	42696	109140	0	0	8254	582726	0	0
2024-06-25 04:29:32			0	37329	0	0	0	24742	23330	141783	27241	1016210	42697	109141	0	0	8255	582206	0	0
2024-06-25 04:30:32			0	37322	0	0	0	24742	23320	141815	27178	1016192	42685	109141	0	0	8254	582523	0	0
2024-06-25 04:31:32			0	37329	0	0	0	24748	23320	141819	27126	1016112	42696	109143	0	0	8254	582239	0	0
2024-06-25 04:32:32			0	37334	0	0	0	24740	23330	141819	27275	1016103	42697	109140	0	0	8255	582003	0	0
2024-06-25 04:33:32			0	37333	0	0	0	24737	23330	141887	27043	1016094	42697	109139	0	0	8255	582044	0	0
2024-06-25 04:34:32			0	37339	0	0	0	24740	23320	141803	27024	1016086	42673	109140	0	0	8255	581833	0	0
2024-06-25 04:35:32			0	37344	0	0	0	24737	23330	141783	27301	1016121	42686	109139	0	0	8255	581598	0	0
2024-06-25 04:36:32			0	37358	0	0	0	24735	23320	141739	27213	1016166	42707	109138	0	0	8256	581064	0	0
2024-06-25 04:37:32			0	37342	0	0	0	24735	23330	141807	27041	1016148	42674	109138	0	0	8255	581679	0	0
2024-06-25 04:38:32			0	37363	0	0	0	24735	23320	141735	27071	1016077	42695	109138	0	0	8256	580861	0	0
2024-06-25 04:39:32			0	37355	0	0	0	24742	23320	141783	26987	1016104	42695	109141	0	0	8256	581185	0	0
2024-06-25 04:40:32			0	37362	0	0	0	24742	23330	141743	27078	1016121	42686	109141	0	0	8256	580869	0	0
2024-06-25 04:41:32			0	37344	0	0	0	24740	23330	141739	27336	1016103	42697	109140	0	0	8255	581598	0	0
2024-06-25 04:42:32			0	37359	0	0	0	24745	23330	141707	27059	1016148	42697	109142	0	0	8256	580991	0	0
2024-06-25 04:43:32			0	37371	0	0	0	24740	23320	141675	27312	1016166	42685	109140	0	0	8257	580538	0	0
2024-06-25 04:44:32			0	37361	0	0	0	24742	23330	141639	27459	1016183	42697	109141	0	0	8256	580910	0	0
2024-06-25 04:45:32			0	37358	0	0	0	24737	23320	141719	27308	1016166	42685	109139	0	0	8256	581064	0	0
2024-06-25 04:46:32			0	37355	0	0	0	24740	23330	141687	27234	1016210	42697	109140	0	0	8256	581153	0	0
2024-06-25 04:47:32			0	37370	0	0	0	24742	23330	141691	27234	1016174	42664	109141	0	0	8257	580545	0	0
2024-06-25 04:48:32			0	37362	0	0	0	24745	23330	141627	27234	1016130	42686	109142	0	0	8256	580869	0	0
2024-06-25 04:49:32			0	37369	0	0	0	24745	23330	141643	27123	1016068	42686	109142	0	0	8257	580586	0	0
2024-06-25 04:50:32			0	37347	0	0	0	24735	23340	141603	27202	1016191	42686	109138	0	0	8256	581444	0	0
2024-06-25 04:51:32			0	37385	0	0	0	24740	23330	141591	27187	1016130	42697	109140	0	0	8258	579939	0	0
2024-06-25 04:52:32			0	37372	0	0	0	24740	23330	141559	27175	1016183	42686	109140	0	0	8257	580464	0	0
2024-06-25 04:53:32			0	37373	0	0	0	24735	23330	141503	27072	1016263	42686	109138	0	0	8257	580424	0	0
2024-06-25 04:54:32			0	37380	0	0	0	24737	23340	141507	27100	1016200	42675	109139	0	0	8257	580108	0	0
2024-06-25 04:55:32			0	37380	0	0	0	24748	23330	141543	27372	1016174	42686	109143	0	0	8257	580141	0	0
2024-06-25 04:56:32			0	37372	0	0	0	24755	23320	141563	27012	1016192	42685	109146	0	0	8257	580497	0	0
2024-06-25 04:57:32			0	37384	0	0	0	24745	23320	141587	27071	1016192	42685	109142	0	0	8257	580012	0	0
2024-06-25 04:58:32			0	37374	0	0	0	24745	23330	141507	27440	1016183	42697	109142	0	0	8257	580384	0	0
2024-06-25 04:59:32			0	37387	0	0	0	24748	23330	141479	27346	1016210	42686	109143	0	0	8258	579858	0	0
2024-06-25 05:00:32			0	37380	0	0	0	24748	23330	141535	27121	1016130	42686	109143	0	0	8257	580141	0	0
2024-06-25 05:01:32			0	37391	0	0	0	24755	23320	141555	27343	1016157	42673	109146	0	0	8258	579729	0	0
2024-06-25 05:02:32			0	37395	0	0	0	24748	23330	141491	27322	1016068	42674	109143	0	0	8258	579534	0	0
2024-06-25 05:03:32			0	37368	0	0	0	24748	23330	141543	27005	1016210	42686	109143	0	0	8257	580626	0	0
2024-06-25 05:04:32			0	37391	0	0	0	24737	23330	141599	27298	1016049	42697	109139	0	0	8258	579696	0	0
2024-06-25 05:05:32			0	37388	0	0	0	24742	23330	141579	27088	1016236	42708	109141	0	0	8258	579817	0	0
2024-06-25 05:06:32			0	37386	0	0	0	24745	23330	141559	27111	1016174	42697	109142	0	0	8258	579898	0	0
2024-06-25 05:07:32			0	37365	0	0	0	24740	23330	141503	27055	1016130	42686	109140	0	0	8257	580748	0	0
2024-06-25 05:08:32			0	37376	0	0	0	24727	23320	141543	27319	1016059	42673	109135	0	0	8257	580335	0	0
2024-06-25 05:09:32			0	37388	0	0	0	24727	23330	141527	27192	1016148	42697	109135	0	0	8258	579817	0	0
2024-06-25 05:10:32			0	37399	0	0	0	24724	23330	141547	27203	1016094	42697	109134	0	0	8259	579373	0	0
2024-06-25 05:11:32			0	37397	0	0	0	24724	23330	141631	27275	1016174	42697	109134	0	0	8258	579453	0	0
2024-06-25 05:12:32			0	37402	0	0	0	24724	23330	141567	27036	1016174	42686	109134	0	0	8259	579251	0	0
2024-06-25 05:13:32			0	37404	0	0	0	24732	23330	141531	27211	1016183	42697	109137	0	0	8259	579171	0	0
2024-06-25 05:14:32			0	37400	0	0	0	24729	23320	141427	27452	1016184	42695	109136	0	0	8259	579365	0	0
2024-06-25 05:15:32			0	37396	0	0	0	24740	23310	141499	27319	1016202	42695	109140	0	0	8258	579559	0	0
2024-06-25 05:16:32			0	37388	0	0	0	24732	23330	141459	27490	1016183	42686	109137	0	0	8258	579817	0	0
2024-06-25 05:17:32			0	37404	0	0	0	24737	23330	141471	27260	1016174	42697	109139	0	0	8259	579171	0	0
2024-06-25 05:18:32			0	37405	0	0	0	24745	23330	141483	27267	1016210	42697	109142	0	0	8259	579130	0	0
2024-06-25 05:19:32			0	37429	0	0	0	24748	23320	141327	27286	1016219	42673	109143	0	0	8260	578193	0	0
2024-06-25 05:20:32			0	37455	0	0	0	24753	23330	141363	27331	1016236	42697	109145	0	0	8261	577112	0	0
2024-06-25 05:21:32			0	37458	0	0	0	24763	23340	141231	27393	1016191	42697	109149	0	0	8261	576959	0	0
2024-06-25 05:22:32			0	37476	0	0	0	24755	23330	141263	27253	1016236	42708	109146	0	0	8262	576266	0	0
2024-06-25 05:23:32			0	37500	0	0	0	24753	23340	141179	27045	1016245	42686	109145	0	0	8263	575268	0	0
2024-06-25 05:24:32			0	37521	0	0	0	24755	23340	141059	27239	1016218	42686	109146	0	0	8264	574423	0	0
2024-06-25 05:25:32			0	37517	0	0	0	24761	23330	141067	27062	1016236	42697	109148	0	0	8264	574616	0	0
2024-06-25 05:26:32			0	37544	0	0	0	24763	23340	140991	27166	1016298	42697	109149	0	0	8266	573500	0	0
2024-06-25 05:27:32			0	37540	0	0	0	24766	23340	141003	27462	1016218	42686	109150	0	0	8265	573660	0	0
2024-06-25 05:28:32			0	37531	0	0	0	24763	23350	140963	27374	1016297	42687	109149	0	0	8265	573989	0	0
2024-06-25 05:29:32			0	37523	0	0	0	24768	23350	140955	27170	1016289	42699	109151	0	0	8264	574311	0	0
2024-06-25 05:30:32			0	37536	0	0	0	24768	23350	140959	27277	1016315	42699	109151	0	0	8265	573789	0	0
2024-06-25 05:31:32			0	37542	0	0	0	24766	23350	141119	27346	1016235	42687	109150	0	0	8265	573548	0	0
2024-06-25 05:32:32			0	37513	0	0	0	24771	23350	140975	27229	1016324	42699	109152	0	0	8264	574713	0	0
2024-06-25 05:33:32			0	37509	0	0	0	24776	23350	141103	27092	1016297	42699	109154	0	0	8264	574873	0	0
2024-06-25 05:34:32			0	37510	0	0	0	24776	23350	141099	27282	1016315	42699	109154	0	0	8264	574833	0	0
2024-06-25 05:35:32			0	37513	0	0	0	24781	23360	141047	27201	1016386	42700	109156	0	0	8264	574680	0	0
2024-06-25 05:36:32			0	37478	0	0	0	24771	23360	141099	27102	1016359	42710	109152	0	0	8262	576088	0	0
2024-06-25 05:37:32			0	37480	0	0	0	24771	23360	141103	27124	1016279	42688	109152	0	0	8262	576008	0	0
2024-06-25 05:38:32			0	37456	0	0	0	24776	23350	141159	26800	1016324	42687	109154	0	0	8261	577007	0	0
2024-06-25 05:39:32			0	37464	0	0	0	24771	23360	141259	27003	1016333	42700	109152	0	0	8261	576652	0	0
2024-06-25 05:40:32			0	37475	0	0	0	24768	23360	141211	27180	1016368	42677	109151	0	0	8262	576209	0	0
2024-06-25 05:41:32			0	37466	0	0	0	24771	23350	141279	27294	1016315	42699	109152	0	0	8261	576604	0	0
2024-06-25 05:42:32			0	37456	0	0	0	24766	23350	141295	27384	1016297	42709	109150	0	0	8261	577007	0	0
2024-06-25 05:43:32			0	37437	0	0	0	24761	23350	141303	27001	1016297	42709	109148	0	0	8260	577773	0	0
2024-06-25 05:44:32			0	37439	0	0	0	24763	23360	141371	27248	1016386	42700	109149	0	0	8260	577660	0	0
2024-06-25 05:45:32			0	37434	0	0	0	24761	23350	141351	27013	1016324	42676	109148	0	0	8260	577894	0	0
2024-06-25 05:46:32			0	37432	0	0	0	24761	23350	141427	27305	1016262	42687	109148	0	0	8260	577975	0	0
2024-06-25 05:47:32			0	37432	0	0	0	24763	23350	141347	27284	1016315	42699	109149	0	0	8260	577975	0	0
2024-06-25 05:48:32			0	37421	0	0	0	24761	23350	141367	27130	1016289	42687	109148	0	0	8259	578419	0	0
2024-06-25 05:49:32			0	37428	0	0	0	24761	23350	141391	27180	1016297	42699	109148	0	0	8260	578136	0	0
2024-06-25 05:50:32			0	37411	0	0	0	24761	23350	141383	27130	1016271	42709	109148	0	0	8259	578823	0	0
2024-06-25 05:51:32			0	37420	0	0	0	24761	23350	141435	27078	1016377	42676	109148	0	0	8259	578459	0	0
2024-06-25 05:52:32			0	37414	0	0	0	24766	23350	141467	27329	1016297	42687	109150	0	0	8259	578701	0	0
2024-06-25 05:53:32			0	37382	0	0	0	24768	23350	141587	27093	1016324	42676	109151	0	0	8257	579995	0	0
2024-06-25 05:54:32			0	37401	0	0	0	24768	23360	141507	27497	1016386	42700	109151	0	0	8258	579194	0	0
2024-06-25 05:55:32			0	37398	0	0	0	24761	23350	141559	27178	1016351	42676	109148	0	0	8258	579348	0	0
2024-06-25 05:56:32			0	37392	0	0	0	24763	23360	141607	27114	1016279	42700	109149	0	0	8258	579558	0	0
2024-06-25 05:57:32			0	37404	0	0	0	24766	23360	141651	26977	1016306	42700	109150	0	0	8258	579073	0	0
2024-06-25 05:58:32			0	37371	0	0	0	24766	23350	141535	27157	1016262	42699	109150	0	0	8256	580440	0	0
2024-06-25 05:59:32			0	37383	0	0	0	24761	23350	141659	27352	1016262	42699	109148	0	0	8257	579954	0	0
2024-06-25 06:00:32			0	37360	0	0	0	24766	23350	141647	27230	1016262	42687	109150	0	0	8256	580885	0	0
2024-06-25 06:01:32			0	37389	0	0	0	24755	23350	141615	27213	1016297	42699	109146	0	0	8258	579712	0	0
2024-06-25 06:02:32			0	37367	0	0	0	24758	23350	141607	27460	1016289	42699	109147	0	0	8256	580601	0	0
2024-06-25 06:03:32			0	37381	0	0	0	24758	23350	141627	27419	1016342	42687	109147	0	0	8257	580035	0	0
2024-06-25 06:04:32			0	37370	0	0	0	24768	23360	141567	27020	1016386	42688	109151	0	0	8256	580448	0	0
2024-06-25 06:05:32			0	37375	0	0	0	24768	23340	141539	27005	1016307	42698	109151	0	0	8257	580310	0	0
2024-06-25 06:06:32			0	37368	0	0	0	24766	23350	141587	26883	1016262	42687	109150	0	0	8256	580561	0	0
2024-06-25 06:07:32			0	37375	0	0	0	24771	23350	141607	27147	1016351	42687	109152	0	0	8257	580278	0	0
2024-06-25 06:08:32			0	37369	0	0	0	24771	23340	141567	27305	1016360	42687	109152	0	0	8256	580553	0	0
2024-06-25 06:09:32			0	37377	0	0	0	24766	23360	141587	27248	1016306	42710	109150	0	0	8257	580164	0	0
2024-06-25 06:10:32			0	37380	0	0	0	24771	23360	141735	27046	1016333	42688	109152	0	0	8257	580043	0	0
2024-06-25 06:11:32			0	37370	0	0	0	24771	23350	141619	27237	1016324	42699	109152	0	0	8256	580480	0	0
2024-06-25 06:12:32			0	37350	0	0	0	24768	23360	141655	26837	1016359	42688	109151	0	0	8255	581257	0	0
2024-06-25 06:13:32			0	37389	0	0	0	24758	23360	141635	27038	1016333	42688	109147	0	0	8258	579679	0	0
2024-06-25 06:14:32			0	37362	0	0	0	24768	23350	141667	27157	1016297	42687	109151	0	0	8256	580804	0	0
2024-06-25 06:15:32			0	37356	0	0	0	24761	23360	141659	27209	1016279	42688	109148	0	0	8256	581014	0	0
2024-06-25 06:16:32			0	37367	0	0	0	24766	23360	141571	27339	1016359	42688	109150	0	0	8256	580569	0	0
2024-06-25 06:17:32			0	37375	0	0	0	24758	23360	141667	27260	1016315	42688	109147	0	0	8257	580245	0	0
2024-06-25 06:18:32			0	37365	0	0	0	24763	23350	141667	27364	1016244	42676	109149	0	0	8256	580682	0	0
2024-06-25 06:19:32			0	37380	0	0	0	24766	23350	141579	27272	1016262	42709	109150	0	0	8257	580076	0	0
2024-06-25 06:20:32			0	37407	0	0	0	24758	23360	141563	27253	1016315	42688	109147	0	0	8259	578952	0	0
2024-06-25 06:21:32			0	37389	0	0	0	24755	23350	141631	27400	1016297	42687	109146	0	0	8258	579712	0	0
2024-06-25 06:22:32			0	37397	0	0	0	24745	23350	141551	27566	1016244	42699	109142	0	0	8258	579388	0	0
2024-06-25 06:23:32			0	37393	0	0	0	24753	23350	141587	27180	1016209	42699	109145	0	0	8258	579550	0	0
2024-06-25 06:24:32			0	37394	0	0	0	24748	23350	141531	27144	1016182	42676	109143	0	0	8258	579509	0	0
2024-06-25 06:25:32			0	37401	0	0	0	24750	23330	141547	27346	1016236	42686	109144	0	0	8258	579292	0	0
2024-06-25 06:26:32			0	37410	0	0	0	24750	23340	141527	27332	1016191	42697	109144	0	0	8259	578896	0	0
2024-06-25 06:27:32			0	37401	0	0	0	24742	23340	141571	27152	1016191	42686	109141	0	0	8258	579259	0	0
2024-06-25 06:28:32			0	37419	0	0	0	24745	23330	141523	27365	1016236	42697	109142	0	0	8259	578565	0	0
2024-06-25 06:29:32			0	37402	0	0	0	24745	23350	141479	27248	1016289	42687	109142	0	0	8258	579186	0	0
2024-06-25 06:30:32			0	37396	0	0	0	24748	23340	141551	27339	1016253	42687	109143	0	0	8258	579461	0	0
2024-06-25 06:31:32			0	37389	0	0	0	24750	23330	141487	27152	1016210	42697	109144	0	0	8258	579777	0	0
2024-06-25 06:32:32			0	37399	0	0	0	24745	23340	141555	27467	1016272	42686	109142	0	0	8258	579340	0	0
2024-06-25 06:33:32			0	37414	0	0	0	24748	23340	141475	27381	1016253	42687	109143	0	0	8259	578734	0	0
2024-06-25 06:34:32			0	37416	0	0	0	24755	23350	141515	27092	1016235	42687	109146	0	0	8259	578621	0	0
2024-06-25 06:35:32			0	37411	0	0	0	24745	23340	141587	27206	1016298	42674	109142	0	0	8259	578855	0	0
2024-06-25 06:36:32			0	37397	0	0	0	24753	23340	141531	27561	1016191	42697	109145	0	0	8258	579421	0	0
2024-06-25 06:37:32			0	37407	0	0	0	24753	23350	141539	27339	1016262	42699	109145	0	0	8259	578984	0	0
2024-06-25 06:38:32			0	37400	0	0	0	24748	23340	141535	27656	1016253	42698	109143	0	0	8258	579299	0	0
2024-06-25 06:39:32			0	37390	0	0	0	24755	23340	141551	26979	1016280	42698	109146	0	0	8258	579704	0	0
2024-06-25 06:40:32			0	37393	0	0	0	24750	23340	141467	27308	1016280	42687	109144	0	0	8258	579582	0	0
2024-06-25 06:41:32			0	37399	0	0	0	24753	23350	141479	27282	1016262	42699	109145	0	0	8258	579307	0	0
2024-06-25 06:42:32			0	37409	0	0	0	24761	23340	141459	27305	1016253	42698	109148	0	0	8259	578936	0	0
2024-06-25 06:43:32			0	37404	0	0	0	24755	23340	141443	27386	1016280	42698	109146	0	0	8258	579138	0	0
2024-06-25 06:44:32			0	37418	0	0	0	24761	23340	141579	27462	1016253	42698	109148	0	0	8259	578572	0	0
2024-06-25 06:45:32			0	37400	0	0	0	24763	23340	141399	26941	1016307	42665	109149	0	0	8258	579299	0	0
2024-06-25 06:46:32			0	37400	0	0	0	24774	23350	141539	27386	1016262	42687	109153	0	0	8258	579267	0	0
2024-06-25 06:47:32			0	37423	0	0	0	24758	23340	141459	27284	1016280	42687	109147	0	0	8259	578371	0	0
2024-06-25 06:48:32			0	37430	0	0	0	24768	23350	141407	27352	1016297	42699	109151	0	0	8260	578056	0	0
2024-06-25 06:49:32			0	37408	0	0	0	24763	23340	141583	27531	1016334	42698	109149	0	0	8258	578976	0	0
2024-06-25 06:50:32			0	37404	0	0	0	24758	23340	141447	27338	1016360	42687	109147	0	0	8258	579138	0	0
2024-06-25 06:51:32			0	37418	0	0	0	24753	23340	141367	27168	1016253	42698	109145	0	0	8259	578572	0	0
2024-06-25 06:52:32			0	37424	0	0	0	24761	23360	141411	26989	1016333	42700	109148	0	0	8259	578265	0	0
2024-06-25 06:53:32			0	37425	0	0	0	24763	23350	141399	27346	1016271	42699	109149	0	0	8259	578257	0	0
2024-06-25 06:54:32			0	37425	0	0	0	24768	23350	141319	27204	1016324	42699	109151	0	0	8259	578257	0	0
2024-06-25 06:55:32			0	37428	0	0	0	24766	23360	141379	27206	1016306	42688	109150	0	0	8260	578104	0	0
2024-06-25 06:56:32			0	37437	0	0	0	24763	23350	141467	27331	1016342	42687	109149	0	0	8260	577773	0	0
2024-06-25 06:57:32			0	37432	0	0	0	24761	23360	141419	27230	1016306	42688	109148	0	0	8260	577942	0	0
2024-06-25 06:58:32			0	37424	0	0	0	24771	23360	141355	27334	1016341	42688	109152	0	0	8259	578265	0	0
2024-06-25 06:59:32			0	37431	0	0	0	24768	23360	141339	27414	1016333	42710	109151	0	0	8260	577983	0	0
2024-06-25 07:00:32			0	37428	0	0	0	24774	23360	141343	27031	1016333	42700	109153	0	0	8259	578104	0	0
2024-06-25 07:01:32			0	37437	0	0	0	24774	23350	141371	26960	1016324	42699	109153	0	0	8260	577773	0	0
2024-06-25 07:02:32			0	37449	0	0	0	24763	23350	141247	27254	1016351	42699	109149	0	0	8261	577289	0	0
2024-06-25 07:03:32			0	37467	0	0	0	24763	23360	141355	27100	1016386	42710	109149	0	0	8262	576531	0	0
2024-06-25 07:04:32			0	37450	0	0	0	24766	23360	141359	27192	1016395	42700	109150	0	0	8261	577216	0	0
2024-06-25 07:05:32			0	37461	0	0	0	24763	23360	141319	27128	1016333	42700	109149	0	0	8261	576773	0	0
2024-06-25 07:06:32			0	37449	0	0	0	24784	23360	141379	27098	1016421	42700	109157	0	0	8260	577257	0	0
2024-06-25 07:07:32			0	37456	0	0	0	24779	23360	141311	27202	1016421	42700	109155	0	0	8261	576975	0	0
2024-06-25 07:08:32			0	37467	0	0	0	24774	23360	141299	27012	1016341	42700	109153	0	0	8261	576531	0	0
2024-06-25 07:09:32			0	37456	0	0	0	24786	23360	141299	27433	1016395	42688	109158	0	0	8261	576975	0	0
2024-06-25 07:10:32			0	37458	0	0	0	24792	23370	141239	26984	1016385	42702	109160	0	0	8261	576862	0	0
2024-06-25 07:11:32			0	37463	0	0	0	24784	23350	141319	27327	1016351	42709	109157	0	0	8261	576725	0	0
2024-06-25 07:12:32			0	37462	0	0	0	24781	23370	141243	27228	1016457	42711	109156	0	0	8261	576700	0	0
2024-06-25 07:13:32			0	37466	0	0	0	24792	23370	141235	27062	1016385	42702	109160	0	0	8261	576539	0	0
2024-06-25 07:14:32			0	37490	0	0	0	24792	23370	141215	27137	1016430	42701	109160	0	0	8262	575573	0	0
2024-06-25 07:15:32			0	37475	0	0	0	24792	23370	141295	27377	1016430	42689	109160	0	0	8262	576177	0	0
2024-06-25 07:16:32			0	37476	0	0	0	24784	23370	141219	27142	1016439	42702	109157	0	0	8262	576136	0	0
2024-06-25 07:17:32			0	37478	0	0	0	24792	23370	141263	27410	1016439	42702	109160	0	0	8262	576056	0	0
2024-06-25 07:18:32			0	37493	0	0	0	24789	23380	141231	27329	1016447	42702	109159	0	0	8263	575420	0	0
2024-06-25 07:19:32			0	37475	0	0	0	24792	23380	141219	27511	1016420	42690	109160	0	0	8262	576144	0	0
2024-06-25 07:20:32			0	37498	0	0	0	24792	23390	141207	27294	1016491	42702	109160	0	0	8263	575186	0	0
2024-06-25 07:21:32			0	37495	0	0	0	24794	23380	141179	27518	1016394	42702	109161	0	0	8263	575340	0	0
2024-06-25 07:22:32			0	37501	0	0	0	24792	23380	141207	27313	1016509	42690	109160	0	0	8263	575098	0	0
2024-06-25 07:23:32			0	37488	0	0	0	24797	23380	141099	27258	1016429	42702	109162	0	0	8262	575621	0	0
2024-06-25 07:24:32			0	37484	0	0	0	24812	23380	141171	27131	1016509	42712	109168	0	0	8262	575782	0	0
2024-06-25 07:25:32			0	37511	0	0	0	24810	23390	141223	27357	1016518	42691	109167	0	0	8263	574664	0	0
2024-06-25 07:26:32			0	37512	0	0	0	24807	23380	141195	27343	1016482	42712	109166	0	0	8263	574656	0	0
2024-06-25 07:27:32			0	37490	0	0	0	24815	23390	141111	27372	1016544	42691	109169	0	0	8262	575508	0	0
2024-06-25 07:28:32			0	37508	0	0	0	24818	23400	141127	27126	1016535	42703	109170	0	0	8263	574752	0	0
2024-06-25 07:29:32			0	37499	0	0	0	24820	23390	141151	27202	1016580	42703	109171	0	0	8262	575146	0	0
2024-06-25 07:30:32			0	37507	0	0	0	24812	23400	141155	27241	1016535	42703	109168	0	0	8263	574792	0	0
2024-06-25 07:31:32			0	37493	0	0	0	24823	23400	141103	27046	1016562	42703	109172	0	0	8262	575355	0	0
2024-06-25 07:32:32			0	37516	0	0	0	24823	23410	141171	27407	1016552	42693	109172	0	0	8263	574398	0	0
2024-06-25 07:33:32			0	37511	0	0	0	24833	23400	141163	27043	1016588	42681	109176	0	0	8263	574631	0	0
2024-06-25 07:34:32			0	37516	0	0	0	24833	23410	141183	27374	1016579	42704	109176	0	0	8263	574398	0	0
2024-06-25 07:35:32			0	37491	0	0	0	24838	23420	141147	27372	1016631	42706	109178	0	0	8262	575371	0	0
2024-06-25 07:36:32			0	37507	0	0	0	24831	23420	141143	27241	1016596	42705	109175	0	0	8263	574728	0	0
2024-06-25 07:37:32			0	37493	0	0	0	24828	23410	141063	27388	1016534	42694	109174	0	0	8262	575323	0	0
2024-06-25 07:38:32			0	37530	0	0	0	24825	23410	141059	27086	1016632	42693	109173	0	0	8264	573836	0	0
2024-06-25 07:39:32			0	37508	0	0	0	24825	23410	141015	27182	1016579	42704	109173	0	0	8263	574720	0	0
2024-06-25 07:40:32			0	37527	0	0	0	24841	23400	141167	27405	1016562	42692	109179	0	0	8264	573989	0	0
2024-06-25 07:41:32			0	37502	0	0	0	24833	23420	140975	27237	1016658	42706	109176	0	0	8262	574929	0	0
2024-06-25 07:42:32			0	37523	0	0	0	24836	23420	141079	27307	1016596	42694	109177	0	0	8264	574085	0	0
2024-06-25 07:43:32			0	37515	0	0	0	24831	23420	141011	27116	1016738	42706	109175	0	0	8263	574406	0	0
2024-06-25 07:44:32			0	37509	0	0	0	24841	23420	141051	27154	1016711	42695	109179	0	0	8263	574647	0	0
2024-06-25 07:45:32			0	37527	0	0	0	24838	23410	141015	27388	1016641	42705	109178	0	0	8264	573956	0	0
2024-06-25 07:46:32			0	37517	0	0	0	24849	23420	141003	27067	1016676	42683	109182	0	0	8263	574326	0	0
2024-06-25 07:47:32			0	37525	0	0	0	24838	23410	141099	27235	1016667	42705	109178	0	0	8264	574037	0	0
2024-06-25 07:48:32			0	37537	0	0	0	24841	23420	141059	27274	1016649	42716	109179	0	0	8264	573523	0	0
2024-06-25 07:49:32			0	37524	0	0	0	24844	23430	141043	27066	1016720	42706	109180	0	0	8263	574012	0	0
2024-06-25 07:50:32			0	37531	0	0	0	24841	23420	141007	27218	1016738	42706	109179	0	0	8264	573764	0	0
2024-06-25 07:51:32			0	37521	0	0	0	24846	23420	141011	27419	1016658	42695	109181	0	0	8263	574165	0	0
2024-06-25 07:52:32			0	37538	0	0	0	24851	23440	141071	27140	1016737	42696	109183	0	0	8264	573418	0	0
2024-06-25 07:53:32			0	37521	0	0	0	24844	23440	141035	27185	1016737	42707	109180	0	0	8263	574101	0	0
2024-06-25 07:54:32			0	37542	0	0	0	24854	23430	141035	27338	1016747	42706	109184	0	0	8264	573290	0	0
2024-06-25 07:55:32			0	37537	0	0	0	24857	23430	140903	27341	1016755	42685	109185	0	0	8264	573490	0	0
2024-06-25 07:56:32			0	37547	0	0	0	24857	23440	141043	27391	1016764	42707	109185	0	0	8264	573057	0	0
2024-06-25 07:57:32			0	37532	0	0	0	24862	23440	140983	27428	1016746	42708	109187	0	0	8264	573659	0	0
2024-06-25 07:58:32			0	37517	0	0	0	24859	23440	141011	27862	1016826	42697	109186	0	0	8263	574261	0	0
2024-06-25 07:59:32			0	37527	0	0	0	24867	23460	141039	27441	1016817	42719	109189	0	0	8263	573795	0	0
2024-06-25 08:00:32			0	37534	0	0	0	24870	23450	140991	27578	1016781	42697	109190	0	0	8264	573546	0	0
2024-06-25 08:01:32			0	37557	0	0	0	24870	23460	140991	27474	1016790	42708	109190	0	0	8265	572592	0	0
2024-06-25 08:02:32			0	37558	0	0	0	24877	23460	140963	27175	1016897	42698	109193	0	0	8265	572551	0	0
2024-06-25 08:03:32			0	37539	0	0	0	24870	23460	140927	27159	1016879	42699	109190	0	0	8264	573314	0	0
2024-06-25 08:04:32			0	37530	0	0	0	24872	23460	140991	26982	1016852	42699	109191	0	0	8263	573675	0	0
2024-06-25 08:05:32			0	37527	0	0	0	24877	23460	140999	27547	1016817	42698	109193	0	0	8263	573795	0	0
2024-06-25 08:06:32			0	37536	0	0	0	24870	23460	140999	27320	1016825	42709	109190	0	0	8264	573434	0	0
2024-06-25 08:07:32			0	37538	0	0	0	24872	23470	141043	27263	1016869	42699	109191	0	0	8264	573321	0	0
2024-06-25 08:08:32			0	37542	0	0	0	24880	23460	141055	27334	1016905	42709	109194	0	0	8264	573193	0	0
2024-06-25 08:09:32			0	37523	0	0	0	24883	23470	141019	27348	1016896	42720	109195	0	0	8263	573924	0	0
2024-06-25 08:10:32			0	37524	0	0	0	24870	23460	140919	27300	1016897	42708	109190	0	0	8263	573916	0	0
2024-06-25 08:11:32			0	37515	0	0	0	24880	23470	141071	27124	1016914	42709	109194	0	0	8263	574245	0	0
2024-06-25 08:12:32			0	37514	0	0	0	24893	23470	141035	27253	1016949	42709	109199	0	0	8262	574285	0	0
2024-06-25 08:13:32			0	37520	0	0	0	24893	23480	140987	27007	1016878	42721	109199	0	0	8263	574012	0	0
2024-06-25 08:14:32			0	37516	0	0	0	24888	23470	141091	27194	1016914	42699	109197	0	0	8262	574205	0	0
2024-06-25 08:15:32			0	37509	0	0	0	24883	23480	141083	27234	1016966	42700	109195	0	0	8262	574454	0	0
2024-06-25 08:16:32			0	37520	0	0	0	24888	23480	141031	26989	1016940	42711	109197	0	0	8263	574012	0	0
2024-06-25 08:17:32			0	37514	0	0	0	24898	23490	140979	26963	1017028	42722	109201	0	0	8262	574221	0	0
2024-06-25 08:18:32			0	37497	0	0	0	24906	23490	141051	27326	1016975	42722	109204	0	0	8261	574904	0	0
2024-06-25 08:19:32			0	37495	0	0	0	24901	23490	141051	27441	1016948	42700	109202	0	0	8261	574984	0	0
2024-06-25 08:20:32			0	37510	0	0	0	24909	23490	141035	27488	1017002	42711	109205	0	0	8262	574381	0	0
2024-06-25 08:21:32			0	37507	0	0	0	24901	23490	141027	27168	1016975	42700	109202	0	0	8262	574502	0	0
2024-06-25 08:22:32			0	37499	0	0	0	24903	23480	141075	27183	1017046	42700	109203	0	0	8261	574855	0	0
2024-06-25 08:23:32			0	37509	0	0	0	24906	23490	141075	27357	1016984	42712	109204	0	0	8262	574421	0	0
2024-06-25 08:24:32			0	37492	0	0	0	24901	23500	141063	27452	1017046	42712	109202	0	0	8261	575072	0	0
2024-06-25 08:25:32			0	37508	0	0	0	24901	23490	141031	27457	1016984	42701	109202	0	0	8262	574461	0	0
2024-06-25 08:26:32			0	37509	0	0	0	24906	23500	141079	27312	1016992	42701	109204	0	0	8262	574389	0	0
2024-06-25 08:27:32			0	37500	0	0	0	24909	23490	141147	27168	1017037	42712	109205	0	0	8261	574783	0	0
2024-06-25 08:28:32			0	37515	0	0	0	24909	23500	141159	27324	1017054	42713	109205	0	0	8262	574148	0	0
2024-06-25 08:29:32			0	37492	0	0	0	24909	23500	141075	27390	1017019	42712	109205	0	0	8261	575072	0	0
2024-06-25 08:30:32			0	37498	0	0	0	24914	23500	141167	26887	1017046	42723	109207	0	0	8261	574831	0	0
2024-06-25 08:31:32			0	37493	0	0	0	24914	23510	141151	27407	1017089	42702	109207	0	0	8261	575000	0	0
2024-06-25 08:32:32			0	37493	0	0	0	24914	23510	141127	27345	1017063	42735	109207	0	0	8261	575000	0	0
2024-06-25 08:33:32			0	37478	0	0	0	24909	23500	141151	27242	1017108	42713	109205	0	0	8260	575635	0	0
2024-06-25 08:34:32			0	37484	0	0	0	24924	23510	141107	27171	1017071	42703	109211	0	0	8260	575362	0	0
2024-06-25 08:35:32			0	37479	0	0	0	24914	23510	141171	27064	1017098	42725	109207	0	0	8260	575563	0	0
2024-06-25 08:36:32			0	37483	0	0	0	24924	23510	141091	27327	1017098	42714	109211	0	0	8260	575402	0	0
2024-06-25 08:37:32			0	37476	0	0	0	24929	23510	141087	27095	1017116	42713	109213	0	0	8260	575683	0	0
2024-06-25 08:38:32			0	37502	0	0	0	24929	23520	141087	26930	1017142	42714	109213	0	0	8261	574606	0	0
2024-06-25 08:39:32			0	37480	0	0	0	24932	23520	141031	27041	1017160	42714	109214	0	0	8260	575490	0	0
2024-06-25 08:40:32			0	37496	0	0	0	24940	23520	141095	27298	1017169	42714	109217	0	0	8261	574847	0	0
2024-06-25 08:41:32			0	37487	0	0	0	24932	23530	141179	27514	1017124	42726	109214	0	0	8260	575176	0	0
2024-06-25 08:42:32			0	37474	0	0	0	24940	23520	141231	27474	1017133	42725	109217	0	0	8260	575732	0	0
2024-06-25 08:43:32			0	37498	0	0	0	24937	23520	141123	27275	1017133	42725	109216	0	0	8261	574766	0	0
2024-06-25 08:44:32			0	37480	0	0	0	24950	23520	141171	27507	1017142	42726	109221	0	0	8260	575490	0	0
2024-06-25 08:45:32			0	37480	0	0	0	24940	23530	141179	27370	1017177	42704	109217	0	0	8260	575458	0	0
2024-06-25 08:46:32			0	37484	0	0	0	24948	23530	141283	27331	1017177	42714	109220	0	0	8260	575297	0	0
2024-06-25 08:47:32			0	37490	0	0	0	24937	23530	141067	27616	1017177	42714	109216	0	0	8261	575056	0	0
2024-06-25 08:48:32			0	37485	0	0	0	24942	23530	141155	27329	1017213	42727	109218	0	0	8260	575257	0	0
2024-06-25 08:49:32			0	37473	0	0	0	24955	23530	141111	27362	1017186	42715	109223	0	0	8259	575739	0	0
2024-06-25 08:50:32			0	37472	0	0	0	24958	23540	141083	27298	1017194	42716	109224	0	0	8259	575747	0	0
2024-06-25 08:51:32			0	37483	0	0	0	24955	23540	141175	27409	1017248	42728	109223	0	0	8260	575305	0	0
2024-06-25 08:52:32			0	37478	0	0	0	24955	23530	141183	27460	1017239	42727	109223	0	0	8260	575538	0	0
2024-06-25 08:53:32			0	37498	0	0	0	24963	23530	141175	27320	1017257	42726	109226	0	0	8261	574734	0	0
2024-06-25 08:54:32			0	37497	0	0	0	24961	23540	141095	27412	1017203	42716	109225	0	0	8261	574742	0	0
2024-06-25 08:55:32			0	37478	0	0	0	24976	23550	141127	27371	1017247	42707	109231	0	0	8259	575473	0	0
2024-06-25 08:56:32			0	37475	0	0	0	24966	23540	141095	27417	1017221	42716	109227	0	0	8259	575627	0	0
2024-06-25 08:57:32			0	37472	0	0	0	24971	23550	141175	27305	1017274	42717	109229	0	0	8259	575715	0	0
2024-06-25 08:58:32			0	37475	0	0	0	24981	23560	141143	27284	1017282	42718	109233	0	0	8259	575562	0	0
2024-06-25 08:59:32			0	37483	0	0	0	24979	23550	141151	27646	1017300	42729	109232	0	0	8260	575272	0	0
2024-06-25 09:00:32			0	37477	0	0	0	24986	23560	141083	27445	1017344	42729	109235	0	0	8259	575481	0	0
2024-06-25 09:01:32			0	37474	0	0	0	24994	23560	141223	27263	1017371	42718	109238	0	0	8259	575602	0	0
2024-06-25 09:02:32			0	37478	0	0	0	24997	23560	141203	27338	1017389	42718	109239	0	0	8259	575441	0	0
2024-06-25 09:03:32			0	37477	0	0	0	24994	23570	141127	27407	1017415	42719	109238	0	0	8259	575449	0	0
2024-06-25 09:04:32			0	37470	0	0	0	24999	23570	141171	27457	1017415	42730	109240	0	0	8259	575730	0	0
2024-06-25 09:05:32			0	37474	0	0	0	25005	23580	141267	27365	1017424	42720	109242	0	0	8259	575537	0	0
2024-06-25 09:06:32			0	37481	0	0	0	25007	23580	141267	27462	1017486	42720	109243	0	0	8259	575256	0	0
2024-06-25 09:07:32			0	37459	0	0	0	25010	23580	141163	27178	1017459	42709	109244	0	0	8258	576141	0	0
2024-06-25 09:08:32			0	37466	0	0	0	25012	23590	141131	27251	1017530	42744	109245	0	0	8258	575827	0	0
2024-06-25 09:09:32			0	37473	0	0	0	25015	23590	141167	27516	1017441	42721	109246	0	0	8259	575545	0	0
2024-06-25 09:10:32			0	37459	0	0	0	25015	23580	141191	27424	1017459	42731	109246	0	0	8258	576141	0	0
2024-06-25 09:11:32			0	37468	0	0	0	25007	23600	141247	27182	1017485	42733	109243	0	0	8259	575714	0	0
2024-06-25 09:12:32			0	37475	0	0	0	25005	23590	141307	27265	1017468	42732	109242	0	0	8259	575465	0	0
2024-06-25 09:13:32			0	37471	0	0	0	25012	23590	141195	27455	1017361	42732	109245	0	0	8259	575626	0	0
2024-06-25 09:14:32			0	37472	0	0	0	25005	23600	141131	27164	1017512	42733	109242	0	0	8259	575553	0	0
2024-06-25 09:15:32			0	37455	0	0	0	25005	23590	141131	27308	1017503	42732	109242	0	0	8258	576269	0	0
2024-06-25 09:16:32			0	37486	0	0	0	25012	23600	141131	27281	1017521	42734	109245	0	0	8259	574990	0	0
2024-06-25 09:17:32			0	37464	0	0	0	25012	23600	141107	27116	1017432	42722	109245	0	0	8258	575875	0	0
2024-06-25 09:18:32			0	37478	0	0	0	25010	23600	141115	27164	1017539	42744	109244	0	0	8259	575312	0	0
2024-06-25 09:19:32			0	37474	0	0	0	25015	23590	141123	27178	1017477	42732	109246	0	0	8259	575505	0	0
2024-06-25 09:20:32			0	37482	0	0	0	25012	23590	141099	27118	1017477	42732	109245	0	0	8259	575183	0	0
2024-06-25 09:21:32			0	37463	0	0	0	25002	23600	141151	27502	1017485	42722	109241	0	0	8258	575915	0	0
2024-06-25 09:22:32			0	37480	0	0	0	25012	23610	141203	27447	1017556	42734	109245	0	0	8259	575199	0	0
2024-06-25 09:23:32			0	37461	0	0	0	25012	23610	141063	27164	1017556	42734	109245	0	0	8258	575963	0	0
2024-06-25 09:24:32			0	37474	0	0	0	25012	23600	141079	27163	1017512	42722	109245	0	0	8259	575473	0	0
2024-06-25 09:25:32			0	37468	0	0	0	25012	23600	141171	27524	1017521	42734	109245	0	0	8258	575714	0	0
2024-06-25 09:26:32			0	37475	0	0	0	25020	23600	141159	27277	1017539	42722	109248	0	0	8259	575432	0	0
2024-06-25 09:27:32			0	37469	0	0	0	25018	23590	141187	27447	1017610	42732	109247	0	0	8258	575706	0	0
2024-06-25 09:28:32			0	37460	0	0	0	25020	23620	141103	27433	1017653	42724	109248	0	0	8258	575971	0	0
2024-06-25 09:29:32			0	37487	0	0	0	25031	23610	141119	27557	1017556	42711	109252	0	0	8259	574918	0	0
2024-06-25 09:30:32			0	37447	0	0	0	25028	23620	141211	27351	1017688	42725	109251	0	0	8257	576494	0	0
2024-06-25 09:31:32			0	37456	0	0	0	25025	23610	141139	27680	1017618	42745	109250	0	0	8258	576164	0	0
2024-06-25 09:32:32			0	37452	0	0	0	25020	23610	141147	27322	1017645	42734	109248	0	0	8258	576325	0	0
2024-06-25 09:33:32			0	37468	0	0	0	25036	23610	141087	27483	1017645	42734	109254	0	0	8258	575682	0	0
2024-06-25 09:34:32			0	37459	0	0	0	25036	23620	141167	27447	1017653	42735	109254	0	0	8258	576011	0	0
2024-06-25 09:35:32			0	37484	0	0	0	25028	23610	141103	27410	1017538	42723	109251	0	0	8259	575038	0	0
2024-06-25 09:36:32			0	37472	0	0	0	25028	23620	141151	26998	1017653	42724	109251	0	0	8258	575488	0	0
2024-06-25 09:37:32			0	37466	0	0	0	25036	23610	141135	27118	1017671	42734	109254	0	0	8258	575762	0	0
2024-06-25 09:38:32			0	37461	0	0	0	25044	23620	141143	26979	1017635	42736	109257	0	0	8258	575931	0	0
2024-06-25 09:39:32			0	37467	0	0	0	25044	23620	141123	27289	1017653	42724	109257	0	0	8258	575689	0	0
2024-06-25 09:40:32			0	37456	0	0	0	25025	23610	141095	27326	1017564	42723	109250	0	0	8258	576164	0	0
2024-06-25 09:41:32			0	37463	0	0	0	25020	23620	141159	27391	1017653	42735	109248	0	0	8258	575850	0	0
2024-06-25 09:42:32			0	37475	0	0	0	25031	23620	141139	27287	1017635	42725	109252	0	0	8259	575368	0	0
2024-06-25 09:43:32			0	37452	0	0	0	25031	23620	141195	27308	1017573	42735	109252	0	0	8257	576293	0	0
2024-06-25 09:44:32			0	37447	0	0	0	25036	23620	141171	27334	1017626	42724	109254	0	0	8257	576494	0	0
2024-06-25 09:45:32			0	37454	0	0	0	25038	23620	141083	27334	1017680	42735	109255	0	0	8257	576213	0	0
2024-06-25 09:46:32			0	37475	0	0	0	25031	23620	141107	27097	1017662	42725	109252	0	0	8259	575368	0	0
2024-06-25 09:47:32			0	37474	0	0	0	25038	23620	141163	27452	1017662	42725	109255	0	0	8258	575408	0	0
2024-06-25 09:48:32			0	37471	0	0	0	25054	23620	141127	27166	1017733	42724	109261	0	0	8258	575528	0	0
2024-06-25 09:49:32			0	37468	0	0	0	25057	23630	141163	27000	1017777	42736	109262	0	0	8258	575617	0	0
2024-06-25 09:50:32			0	37466	0	0	0	25080	23630	141167	27256	1017786	42725	109271	0	0	8257	575697	0	0
2024-06-25 09:51:32			0	37445	0	0	0	25077	23640	141223	27331	1017821	42737	109270	0	0	8256	576510	0	0
2024-06-25 09:52:32			0	37451	0	0	0	25080	23650	141271	27453	1017812	42738	109271	0	0	8257	576236	0	0
2024-06-25 09:53:32			0	37432	0	0	0	25096	23640	141335	27102	1017856	42738	109277	0	0	8255	577033	0	0
2024-06-25 09:54:32			0	37429	0	0	0	25093	23650	141271	27222	1017865	42749	109276	0	0	8255	577122	0	0
2024-06-25 09:55:32			0	37440	0	0	0	25093	23650	141303	27341	1017927	42727	109276	0	0	8256	576679	0	0
2024-06-25 09:56:32			0	37421	0	0	0	25098	23660	141331	27275	1017802	42739	109278	0	0	8255	577412	0	0
2024-06-25 09:57:32			0	37416	0	0	0	25096	23660	141315	27033	1017936	42739	109277	0	0	8255	577613	0	0
2024-06-25 09:58:32			0	37428	0	0	0	25098	23660	141343	27118	1017944	42717	109278	0	0	8255	577130	0	0
2024-06-25 09:59:32			0	37421	0	0	0	25106	23660	141243	27516	1017864	42728	109281	0	0	8255	577412	0	0
2024-06-25 10:00:32			0	37403	0	0	0	25101	23660	141295	27473	1017891	42728	109279	0	0	8254	578137	0	0
2024-06-25 10:01:32			0	37392	0	0	0	25098	23670	141311	27443	1017873	42729	109278	0	0	8253	578549	0	0
2024-06-25 10:02:32			0	37409	0	0	0	25098	23670	141319	27587	1017935	42751	109278	0	0	8254	577863	0	0
2024-06-25 10:03:32			0	37418	0	0	0	25109	23670	141347	27346	1017935	42729	109282	0	0	8254	577500	0	0
2024-06-25 10:04:32			0	37422	0	0	0	25106	23680	141355	27180	1017970	42741	109281	0	0	8255	577306	0	0
2024-06-25 10:05:32			0	37399	0	0	0	25119	23670	141275	27159	1017988	42729	109286	0	0	8253	578266	0	0
2024-06-25 10:06:32			0	37405	0	0	0	25122	23690	141371	26977	1018041	42743	109287	0	0	8254	577959	0	0
2024-06-25 10:07:32			0	37413	0	0	0	25116	23690	141375	26812	1018068	42743	109285	0	0	8254	577637	0	0
2024-06-25 10:08:32			0	37391	0	0	0	25142	23690	141467	27277	1018023	42743	109295	0	0	8253	578524	0	0
2024-06-25 10:09:32			0	37381	0	0	0	25132	23700	141423	27270	1018058	42743	109291	0	0	8252	578895	0	0
2024-06-25 10:10:32			0	37396	0	0	0	25129	23690	141423	27203	1018068	42743	109290	0	0	8253	578322	0	0
2024-06-25 10:11:32			0	37387	0	0	0	25135	23700	141419	26856	1018085	42731	109292	0	0	8253	578652	0	0
2024-06-25 10:12:32			0	37387	0	0	0	25132	23710	141371	26809	1018049	42755	109291	0	0	8253	578620	0	0
2024-06-25 10:13:32			0	37378	0	0	0	25140	23700	141407	26875	1018147	42754	109294	0	0	8252	579016	0	0
2024-06-25 10:14:32			0	37387	0	0	0	25150	23700	141427	27241	1018094	42743	109298	0	0	8252	578652	0	0
2024-06-25 10:15:32			0	37379	0	0	0	25148	23710	141435	27093	1018156	42744	109297	0	0	8252	578943	0	0
2024-06-25 10:16:32			0	37365	0	0	0	25148	23710	141327	27206	1018137	42733	109297	0	0	8251	579508	0	0
2024-06-25 10:17:32			0	37362	0	0	0	25150	23710	141507	27203	1018218	42744	109298	0	0	8251	579629	0	0
2024-06-25 10:18:32			0	37377	0	0	0	25148	23720	141387	27248	1018181	42734	109297	0	0	8252	578991	0	0
2024-06-25 10:19:32			0	37366	0	0	0	25153	23720	141403	27265	1018208	42756	109299	0	0	8251	579435	0	0
2024-06-25 10:20:32			0	37371	0	0	0	25145	23720	141487	27248	1018226	42744	109296	0	0	8252	579233	0	0
2024-06-25 10:21:32			0	37360	0	0	0	25150	23720	141535	27379	1018119	42744	109298	0	0	8251	579678	0	0
2024-06-25 10:22:32			0	37360	0	0	0	25145	23720	141447	27133	1018119	42755	109296	0	0	8251	579678	0	0
2024-06-25 10:23:32			0	37352	0	0	0	25145	23710	141495	27303	1018164	42733	109296	0	0	8251	580033	0	0
2024-06-25 10:24:32			0	37365	0	0	0	25140	23720	141463	27341	1018101	42745	109294	0	0	8251	579475	0	0
2024-06-25 10:25:32			0	37366	0	0	0	25132	23710	141415	27379	1018057	42722	109291	0	0	8252	579468	0	0
2024-06-25 10:26:32			0	37344	0	0	0	25124	23710	141427	27055	1018031	42744	109288	0	0	8251	580357	0	0
2024-06-25 10:27:32			0	37365	0	0	0	25124	23710	141443	27150	1018084	42733	109288	0	0	8252	579508	0	0
2024-06-25 10:28:32			0	37365	0	0	0	25122	23710	141395	27232	1018102	42733	109287	0	0	8252	579508	0	0
2024-06-25 10:29:32			0	37374	0	0	0	25116	23700	141367	27338	1018040	42754	109285	0	0	8252	579177	0	0
2024-06-25 10:30:32			0	37353	0	0	0	25111	23710	141475	27353	1018075	42733	109283	0	0	8251	579993	0	0
2024-06-25 10:31:32			0	37349	0	0	0	25109	23700	141451	27097	1018040	42721	109282	0	0	8251	580187	0	0
2024-06-25 10:32:32			0	37358	0	0	0	25111	23710	141559	27246	1018057	42733	109283	0	0	8251	579791	0	0
2024-06-25 10:33:32			0	37368	0	0	0	25114	23710	141423	27384	1018049	42733	109284	0	0	8252	579387	0	0
2024-06-25 10:34:32			0	37347	0	0	0	25109	23700	141455	27154	1017987	42765	109282	0	0	8251	580268	0	0
2024-06-25 10:35:32			0	37354	0	0	0	25101	23700	141447	27183	1018005	42743	109279	0	0	8251	579985	0	0
2024-06-25 10:36:32			0	37362	0	0	0	25103	23710	141495	27248	1018022	42733	109280	0	0	8252	579629	0	0
2024-06-25 10:37:32			0	37342	0	0	0	25096	23690	141483	26805	1017969	42743	109277	0	0	8251	580503	0	0
2024-06-25 10:38:32			0	37359	0	0	0	25098	23700	141531	27074	1018005	42731	109278	0	0	8252	579783	0	0
2024-06-25 10:39:32			0	37371	0	0	0	25101	23700	141439	27348	1018005	42753	109279	0	0	8252	579299	0	0
2024-06-25 10:40:32			0	37341	0	0	0	25096	23690	141583	27443	1017988	42731	109277	0	0	8251	580543	0	0
2024-06-25 10:41:32			0	37340	0	0	0	25088	23690	141587	27326	1017961	42753	109274	0	0	8251	580584	0	0
2024-06-25 10:42:32			0	37332	0	0	0	25098	23680	141495	27454	1017997	42729	109278	0	0	8250	580940	0	0
2024-06-25 10:43:32			0	37352	0	0	0	25109	23690	141435	27121	1017969	42731	109282	0	0	8251	580099	0	0
2024-06-25 10:44:32			0	37340	0	0	0	25103	23690	141527	27180	1018014	42743	109280	0	0	8251	580584	0	0
2024-06-25 10:45:32			0	37319	0	0	0	25093	23690	141567	27260	1017961	42743	109276	0	0	8250	581434	0	0
2024-06-25 10:46:32			0	37310	0	0	0	25096	23680	141602	27438	1017979	42742	109277	0	0	8249	581831	0	0
2024-06-25 10:47:32			0	37337	0	0	0	25101	23700	141651	27327	1018005	42731	109279	0	0	8251	580672	0	0
2024-06-25 10:48:32			0	37336	0	0	0	25103	23690	141527	27166	1017961	42731	109280	0	0	8250	580746	0	0
2024-06-25 10:49:32			0	37330	0	0	0	25101	23680	141615	27216	1018005	42730	109279	0	0	8250	581021	0	0
2024-06-25 10:50:32			0	37317	0	0	0	25101	23690	141679	27312	1018014	42731	109279	0	0	8249	581515	0	0
2024-06-25 10:51:32			0	37299	0	0	0	25103	23700	141714	27130	1018031	42731	109280	0	0	8249	582211	0	0
2024-06-25 10:52:32			0	37323	0	0	0	25111	23690	141595	27062	1018041	42743	109283	0	0	8250	581272	0	0
2024-06-25 10:53:32			0	37300	0	0	0	25109	23690	141642	27270	1017969	42743	109282	0	0	8248	582203	0	0
2024-06-25 10:54:32			0	37291	0	0	0	25101	23680	141654	26937	1018032	42752	109279	0	0	8248	582601	0	0
2024-06-25 10:55:32			0	37296	0	0	0	25101	23680	141702	27041	1018005	42730	109279	0	0	8248	582398	0	0
2024-06-25 10:56:32			0	37297	0	0	0	25103	23680	141682	27284	1018005	42742	109280	0	0	8248	582357	0	0
2024-06-25 10:57:32			0	37294	0	0	0	25103	23680	141734	27308	1018005	42742	109280	0	0	8248	582479	0	0
2024-06-25 10:58:32			0	37276	0	0	0	25101	23690	141826	27183	1018068	42764	109279	0	0	8247	583176	0	0
2024-06-25 10:59:32			0	37283	0	0	0	25101	23700	141794	27431	1018058	42720	109279	0	0	8248	582859	0	0
2024-06-25 11:00:32			0	37262	0	0	0	25103	23690	141726	27211	1018023	42743	109280	0	0	8247	583744	0	0
2024-06-25 11:01:32			0	37284	0	0	0	25103	23680	141810	27445	1018050	42741	109280	0	0	8248	582884	0	0
2024-06-25 11:02:32			0	37261	0	0	0	25114	23690	141878	27079	1018076	42731	109284	0	0	8246	583785	0	0
2024-06-25 11:03:32			0	37241	0	0	0	25119	23690	141942	27339	1018041	42743	109286	0	0	8245	584597	0	0
2024-06-25 11:04:32			0	37251	0	0	0	25122	23700	141982	27055	1018085	42731	109287	0	0	8246	584158	0	0
2024-06-25 11:05:32			0	37226	0	0	0	25119	23700	141958	27237	1018138	42743	109286	0	0	8244	585173	0	0
2024-06-25 11:06:32			0	37214	0	0	0	25122	23700	142062	27026	1018094	42743	109287	0	0	8244	585661	0	0
2024-06-25 11:07:32			0	37215	0	0	0	25124	23700	142074	27291	1018085	42731	109288	0	0	8244	585621	0	0
2024-06-25 11:08:32			0	37202	0	0	0	25129	23710	142162	27131	1018156	42733	109290	0	0	8243	586117	0	0
2024-06-25 11:09:32			0	37205	0	0	0	25135	23700	142162	27556	1018085	42731	109292	0	0	8243	586027	0	0
2024-06-25 11:10:32			0	37195	0	0	0	25129	23700	142230	27459	1018094	42743	109290	0	0	8243	586435	0	0
2024-06-25 11:11:32			0	37200	0	0	0	25140	23710	142210	27306	1018057	42733	109294	0	0	8243	586198	0	0
2024-06-25 11:12:32			0	37177	0	0	0	25145	23710	142250	27253	1018156	42722	109296	0	0	8241	587135	0	0
2024-06-25 11:13:32			0	37188	0	0	0	25142	23720	142246	27232	1018173	42744	109295	0	0	8242	586654	0	0
2024-06-25 11:14:32			0	37170	0	0	0	25140	23720	142318	27320	1018146	42733	109294	0	0	8241	587387	0	0
2024-06-25 11:15:32			0	37158	0	0	0	25132	23710	142322	27365	1018191	42744	109291	0	0	8241	587909	0	0
2024-06-25 11:16:32			0	37156	0	0	0	25148	23720	142358	26972	1018200	42733	109297	0	0	8240	587958	0	0
2024-06-25 11:17:32			0	37137	0	0	0	25140	23720	142374	27298	1018173	42733	109294	0	0	8240	588733	0	0
2024-06-25 11:18:32			0	37136	0	0	0	25145	23720	142402	27001	1018146	42733	109296	0	0	8239	588773	0	0
2024-06-25 11:19:32			0	37136	0	0	0	25142	23720	142362	27036	1018119	42755	109295	0	0	8239	588773	0	0
2024-06-25 11:20:32			0	37124	0	0	0	25142	23720	142426	27357	1018146	42744	109295	0	0	8239	589263	0	0
2024-06-25 11:21:32			0	37136	0	0	0	25129	23720	142394	27455	1018119	42744	109290	0	0	8240	588773	0	0
2024-06-25 11:22:32			0	37140	0	0	0	25129	23710	142362	27298	1018209	42722	109290	0	0	8240	588643	0	0
2024-06-25 11:23:32			0	37133	0	0	0	25129	23720	142438	27445	1018173	42766	109290	0	0	8240	588896	0	0
2024-06-25 11:24:32			0	37142	0	0	0	25135	23720	142382	27223	1018119	42744	109292	0	0	8240	588529	0	0
2024-06-25 11:25:32			0	37133	0	0	0	25127	23710	142410	27166	1018129	42733	109289	0	0	8240	588929	0	0
2024-06-25 11:26:32			0	37135	0	0	0	25129	23720	142334	27235	1018146	42744	109290	0	0	8240	588814	0	0
2024-06-25 11:27:32			0	37128	0	0	0	25127	23720	142426	27324	1018173	42733	109289	0	0	8239	589100	0	0
2024-06-25 11:28:32			0	37139	0	0	0	25122	23700	142442	27197	1018094	42721	109287	0	0	8240	588717	0	0
2024-06-25 11:29:32			0	37121	0	0	0	25127	23710	142374	27417	1018102	42744	109289	0	0	8239	589419	0	0
2024-06-25 11:30:32			0	37123	0	0	0	25122	23720	142446	27268	1018200	42733	109287	0	0	8239	589304	0	0
2024-06-25 11:31:32			0	37141	0	0	0	25119	23710	142386	27319	1018111	42733	109286	0	0	8240	588603	0	0
2024-06-25 11:32:32			0	37123	0	0	0	25116	23700	142390	27090	1018094	42732	109285	0	0	8239	589371	0	0
2024-06-25 11:33:32			0	37135	0	0	0	25122	23710	142446	27488	1018102	42744	109287	0	0	8240	588847	0	0
2024-06-25 11:34:32			0	37139	0	0	0	25116	23710	142338	27197	1018057	42744	109285	0	0	8240	588684	0	0
2024-06-25 11:35:32			0	37124	0	0	0	25119	23710	142398	27201	1018129	42744	109286	0	0	8239	589296	0	0
2024-06-25 11:36:32			0	37132	0	0	0	25129	23710	142382	27322	1018156	42744	109290	0	0	8239	588970	0	0
2024-06-25 11:37:32			0	37125	0	0	0	25127	23720	142374	27327	1018119	42744	109289	0	0	8239	589223	0	0
2024-06-25 11:38:32			0	37131	0	0	0	25119	23710	142454	27521	1018084	42733	109286	0	0	8240	589011	0	0
2024-06-25 11:39:32			0	37147	0	0	0	25114	23710	142406	27372	1018075	42733	109284	0	0	8240	588358	0	0
2024-06-25 11:40:32			0	37133	0	0	0	25116	23710	142462	27168	1018111	42722	109285	0	0	8240	588929	0	0
2024-06-25 11:41:32			0	37142	0	0	0	25114	23710	142466	27293	1018084	42744	109284	0	0	8240	588562	0	0
2024-06-25 11:42:32			0	37144	0	0	0	25122	23710	142442	27180	1018075	42744	109287	0	0	8240	588480	0	0
2024-06-25 11:43:32			0	37142	0	0	0	25124	23720	142462	27377	1018119	42744	109288	0	0	8240	588529	0	0
2024-06-25 11:44:32			0	37127	0	0	0	25132	23700	142466	27557	1018120	42732	109291	0	0	8239	589207	0	0
2024-06-25 11:45:32			0	37137	0	0	0	25132	23710	142462	27331	1018164	42744	109291	0	0	8240	588766	0	0
2024-06-25 11:46:32			0	37124	0	0	0	25127	23700	142410	27533	1018120	42732	109289	0	0	8239	589330	0	0
2024-06-25 11:47:32			0	37140	0	0	0	25127	23700	142414	27343	1018120	42754	109289	0	0	8240	588677	0	0
2024-06-25 11:48:32			0	37115	0	0	0	25132	23710	142350	27369	1018111	42744	109291	0	0	8238	589664	0	0
2024-06-25 11:49:32			0	37134	0	0	0	25135	23710	142326	27055	1018218	42744	109292	0	0	8239	588888	0	0
2024-06-25 11:50:32			0	37126	0	0	0	25124	23720	142342	27549	1018093	42744	109288	0	0	8239	589182	0	0
2024-06-25 11:51:32			0	37134	0	0	0	25122	23710	142366	27281	1018164	42755	109287	0	0	8240	588888	0	0
2024-06-25 11:52:32			0	37115	0	0	0	25132	23720	142394	27147	1018200	42744	109291	0	0	8239	589631	0	0
2024-06-25 11:53:32			0	37129	0	0	0	25137	23710	142442	27237	1018137	42733	109293	0	0	8239	589092	0	0
2024-06-25 11:54:32			0	37135	0	0	0	25140	23710	142374	27215	1018164	42733	109294	0	0	8239	588847	0	0
2024-06-25 11:55:32			0	37128	0	0	0	25135	23720	142454	26967	1018155	42723	109292	0	0	8239	589100	0	0
2024-06-25 11:56:32			0	37124	0	0	0	25135	23720	142430	27078	1018146	42722	109292	0	0	8239	589263	0	0
2024-06-25 11:57:32			0	37125	0	0	0	25135	23720	142394	27170	1018200	42744	109292	0	0	8239	589223	0	0
2024-06-25 11:58:32			0	37120	0	0	0	25137	23720	142338	27422	1018181	42734	109293	0	0	8239	589427	0	0
2024-06-25 11:59:32			0	37137	0	0	0	25137	23710	142478	27535	1018191	42744	109293	0	0	8240	588766	0	0
2024-06-25 12:00:32			0	37126	0	0	0	25132	23720	142334	27410	1018181	42734	109291	0	0	8239	589182	0	0
2024-06-25 12:01:32			0	37115	0	0	0	25142	23730	142374	27339	1018163	42746	109295	0	0	8238	589598	0	0
2024-06-25 12:02:32			0	37127	0	0	0	25135	23720	142354	27287	1018235	42745	109292	0	0	8239	589141	0	0
2024-06-25 12:03:32			0	37142	0	0	0	25137	23720	142322	27332	1018200	42744	109293	0	0	8240	588529	0	0
2024-06-25 12:04:32			0	37143	0	0	0	25140	23730	142426	27268	1018190	42757	109294	0	0	8240	588455	0	0
2024-06-25 12:05:32			0	37142	0	0	0	25153	23730	142338	27067	1018252	42736	109299	0	0	8240	588495	0	0
2024-06-25 12:06:32			0	37134	0	0	0	25150	23730	142338	27507	1018270	42746	109298	0	0	8239	588822	0	0
2024-06-25 12:07:32			0	37146	0	0	0	25155	23730	142202	27371	1018252	42757	109300	0	0	8240	588332	0	0
2024-06-25 12:08:32			0	37151	0	0	0	25158	23740	142238	27192	1018234	42757	109301	0	0	8240	588095	0	0
2024-06-25 12:09:32			0	37143	0	0	0	25161	23740	142246	27407	1018314	42747	109302	0	0	8240	588421	0	0
2024-06-25 12:10:32			0	37151	0	0	0	25161	23750	142142	27038	1018331	42737	109302	0	0	8240	588062	0	0
2024-06-25 12:11:32			0	37158	0	0	0	25163	23730	142178	27201	1018305	42747	109303	0	0	8240	587843	0	0
2024-06-25 12:12:32			0	37158	0	0	0	25166	23750	142190	27329	1018269	42747	109304	0	0	8240	587777	0	0
2024-06-25 12:13:32			0	37170	0	0	0	25168	23750	142106	27147	1018251	42748	109305	0	0	8241	587288	0	0
2024-06-25 12:14:32			0	37160	0	0	0	25161	23750	142074	27332	1018278	42737	109302	0	0	8241	587695	0	0
2024-06-25 12:15:32			0	37199	0	0	0	25158	23750	142098	27308	1018269	42736	109301	0	0	8243	586107	0	0
2024-06-25 12:16:32			0	37196	0	0	0	25163	23750	142094	27372	1018296	42747	109303	0	0	8242	586229	0	0
2024-06-25 12:17:32			0	37203	0	0	0	25168	23750	142018	27216	1018305	42748	109305	0	0	8243	585944	0	0
2024-06-25 12:18:32			0	37204	0	0	0	25173	23750	141978	27306	1018278	42737	109307	0	0	8243	585903	0	0
2024-06-25 12:19:32			0	37231	0	0	0	25171	23760	141962	27196	1018260	42749	109306	0	0	8244	584773	0	0
2024-06-25 12:20:32			0	37243	0	0	0	25173	23760	141978	27358	1018313	42749	109307	0	0	8245	584285	0	0
2024-06-25 12:21:32			0	37242	0	0	0	25173	23760	141950	27248	1018286	42738	109307	0	0	8245	584326	0	0
2024-06-25 12:22:32			0	37246	0	0	0	25166	23760	141922	27369	1018367	42738	109304	0	0	8245	584164	0	0
2024-06-25 12:23:32			0	37276	0	0	0	25158	23750	141926	27317	1018331	42758	109301	0	0	8247	582979	0	0
2024-06-25 12:24:32			0	37280	0	0	0	25161	23750	141838	27048	1018331	42748	109302	0	0	8247	582817	0	0
2024-06-25 12:25:32			0	37288	0	0	0	25166	23760	141866	27358	1018340	42726	109304	0	0	8247	582460	0	0
2024-06-25 12:26:32			0	37295	0	0	0	25173	23760	141846	27130	1018322	42759	109307	0	0	8247	582176	0	0
2024-06-25 12:27:32			0	37306	0	0	0	25184	23760	141682	27296	1018348	42749	109311	0	0	8248	581731	0	0
2024-06-25 12:28:32			0	37304	0	0	0	25186	23770	141690	27152	1018410	42738	109312	0	0	8248	581779	0	0
2024-06-25 12:29:32			0	37323	0	0	0	25194	23780	141627	27313	1018348	42750	109315	0	0	8249	580977	0	0
2024-06-25 12:30:32			0	37343	0	0	0	25189	23770	141671	27308	1018366	42750	109313	0	0	8250	580201	0	0
2024-06-25 12:31:32			0	37356	0	0	0	25184	23770	141591	27144	1018392	42739	109311	0	0	8250	579676	0	0
2024-06-25 12:32:32			0	37347	0	0	0	25189	23770	141619	27390	1018410	42759	109313	0	0	8250	580040	0	0
2024-06-25 12:33:32			0	37351	0	0	0	25186	23780	141591	27235	1018428	42761	109312	0	0	8250	579845	0	0
2024-06-25 12:34:32			0	37374	0	0	0	25194	23770	141567	27144	1018419	42750	109315	0	0	8251	578949	0	0
2024-06-25 12:35:32			0	37363	0	0	0	25194	23780	141503	27164	1018454	42740	109315	0	0	8251	579361	0	0
2024-06-25 12:36:32			0	37382	0	0	0	25199	23780	141515	27140	1018463	42750	109317	0	0	8252	578594	0	0
2024-06-25 12:37:32			0	37402	0	0	0	25197	23780	141471	27135	1018410	42761	109316	0	0	8253	577787	0	0
2024-06-25 12:38:32			0	37384	0	0	0	25194	23780	141467	26935	1018410	42740	109315	0	0	8252	578513	0	0
2024-06-25 12:39:32			0	37396	0	0	0	25197	23770	141535	27448	1018392	42750	109316	0	0	8252	578062	0	0
2024-06-25 12:40:32			0	37415	0	0	0	25205	23780	141455	27305	1018516	42750	109319	0	0	8253	577263	0	0
2024-06-25 12:41:32			0	37389	0	0	0	25205	23790	141315	27187	1018472	42761	109319	0	0	8252	578279	0	0
2024-06-25 12:42:32			0	37423	0	0	0	25212	23790	141371	26986	1018525	42761	109322	0	0	8254	576909	0	0
2024-06-25 12:43:32			0	37423	0	0	0	25212	23790	141439	26840	1018534	42751	109322	0	0	8254	576909	0	0
2024-06-25 12:44:32			0	37414	0	0	0	25218	23790	141323	27352	1018552	42761	109324	0	0	8253	577271	0	0
2024-06-25 12:45:32			0	37440	0	0	0	25220	23800	141251	27130	1018551	42753	109325	0	0	8254	576192	0	0
2024-06-25 12:46:32			0	37431	0	0	0	25218	23800	141331	27644	1018569	42741	109324	0	0	8254	576554	0	0
2024-06-25 12:47:32			0	37443	0	0	0	25228	23800	141299	27400	1018551	42775	109328	0	0	8254	576071	0	0
2024-06-25 12:48:32			0	37433	0	0	0	25233	23800	141295	27265	1018551	42742	109330	0	0	8254	576474	0	0
2024-06-25 12:49:32			0	37432	0	0	0	25228	23810	141239	27505	1018559	42764	109328	0	0	8254	576481	0	0
2024-06-25 12:50:32			0	37440	0	0	0	25231	23810	141223	27358	1018568	42764	109329	0	0	8254	576160	0	0
2024-06-25 12:51:32			0	37449	0	0	0	25231	23810	141219	27055	1018621	42775	109329	0	0	8255	575797	0	0
2024-06-25 12:52:32			0	37440	0	0	0	25236	23810	141203	27230	1018621	42753	109331	0	0	8254	576160	0	0
2024-06-25 12:53:32			0	37463	0	0	0	25246	23820	141223	27588	1018612	42744	109335	0	0	8255	575202	0	0
2024-06-25 12:54:32			0	37475	0	0	0	25254	23810	141195	27176	1018675	42753	109338	0	0	8256	574753	0	0
2024-06-25 12:55:32			0	37466	0	0	0	25254	23820	141167	27457	1018719	42754	109338	0	0	8255	575082	0	0
2024-06-25 12:56:32			0	37456	0	0	0	25257	23830	141163	27388	1018701	42744	109339	0	0	8255	575451	0	0
2024-06-25 12:57:32			0	37470	0	0	0	25251	23820	141199	27234	1018719	42754	109337	0	0	8255	574921	0	0
2024-06-25 12:58:32			0	37468	0	0	0	25257	23830	141143	27289	1018710	42766	109339	0	0	8255	574969	0	0
2024-06-25 12:59:32			0	37481	0	0	0	25290	23840	141043	27353	1018914	42768	109352	0	0	8255	574415	0	0
2024-06-25 13:00:32			0	37478	0	0	0	25329	23860	141043	27424	1019020	42791	109367	0	0	8255	574470	0	0
2024-06-25 13:01:32			0	37462	0	0	0	25355	23870	141079	27488	1019019	42759	109377	0	0	8253	575080	0	0
2024-06-25 13:02:32			0	37459	0	0	0	25368	23880	140995	27381	1019054	42782	109382	0	0	8253	575169	0	0
2024-06-25 13:03:32			0	37491	0	0	0	25376	23890	140983	27072	1019053	42784	109385	0	0	8255	573851	0	0
2024-06-25 13:04:32			0	37461	0	0	0	25353	23890	141083	27365	1018973	42772	109376	0	0	8254	575056	0	0
2024-06-25 13:05:32			0	37472	0	0	0	25332	23890	141131	27310	1018885	42739	109368	0	0	8254	574614	0	0
2024-06-25 13:06:32			0	37469	0	0	0	25314	23880	141131	27268	1018903	42750	109361	0	0	8255	574767	0	0
2024-06-25 13:07:32			0	37491	0	0	0	25293	23880	141055	27253	1018841	42749	109353	0	0	8256	573884	0	0
2024-06-25 13:08:32			0	37492	0	0	0	25280	23880	141015	27268	1018841	42759	109348	0	0	8256	573844	0	0
2024-06-25 13:09:32			0	37498	0	0	0	25272	23860	140939	27199	1018868	42748	109345	0	0	8257	573668	0	0
2024-06-25 13:10:32			0	37522	0	0	0	25270	23870	140915	27564	1018779	42759	109344	0	0	8258	572673	0	0
2024-06-25 13:11:32			0	37521	0	0	0	25267	23860	140907	27308	1018788	42758	109343	0	0	8258	572745	0	0
2024-06-25 13:12:32			0	37539	0	0	0	25264	23850	140771	27279	1018771	42768	109342	0	0	8259	572057	0	0
2024-06-25 13:13:32			0	37536	0	0	0	25259	23850	140807	27196	1018771	42756	109340	0	0	8259	572177	0	0
2024-06-25 13:14:32			0	37543	0	0	0	25262	23850	140847	27294	1018771	42768	109341	0	0	8259	571897	0	0
2024-06-25 13:15:32			0	37562	0	0	0	25275	23870	140763	27331	1018850	42759	109346	0	0	8260	571072	0	0
2024-06-25 13:16:32			0	37559	0	0	0	25275	23860	140755	27564	1018815	42748	109346	0	0	8260	571224	0	0
2024-06-25 13:17:32			0	37567	0	0	0	25280	23870	140727	27279	1018797	42770	109348	0	0	8260	570872	0	0
2024-06-25 13:18:32			0	37556	0	0	0	25285	23870	140747	27343	1018850	42749	109350	0	0	8260	571312	0	0
2024-06-25 13:19:32			0	37547	0	0	0	25280	23860	140775	27436	1018788	42758	109348	0	0	8259	571704	0	0
2024-06-25 13:20:32			0	37566	0	0	0	25270	23860	140707	27474	1018841	42748	109344	0	0	8260	570944	0	0
2024-06-25 13:21:32			0	37557	0	0	0	25264	23860	140739	27272	1018761	42758	109342	0	0	8260	571304	0	0
2024-06-25 13:22:32			0	37569	0	0	0	25275	23860	140811	27142	1018779	42757	109346	0	0	8260	570824	0	0
2024-06-25 13:23:32			0	37577	0	0	0	25270	23860	140747	27052	1018806	42757	109344	0	0	8261	570504	0	0
2024-06-25 13:24:32			0	37569	0	0	0	25280	23860	140819	27419	1018815	42748	109348	0	0	8260	570824	0	0
2024-06-25 13:25:32			0	37576	0	0	0	25280	23870	140711	27313	1018885	42759	109348	0	0	8261	570512	0	0
2024-06-25 13:26:32			0	37543	0	0	0	25283	23870	140747	27428	1018885	42770	109349	0	0	8259	571832	0	0
2024-06-25 13:27:32			0	37537	0	0	0	25285	23870	140751	27263	1018832	42749	109350	0	0	8259	572072	0	0
2024-06-25 13:28:32			0	37555	0	0	0	25285	23880	140779	27583	1018814	42749	109350	0	0	8260	571320	0	0
2024-06-25 13:29:32			0	37549	0	0	0	25283	23870	140791	27126	1018859	42749	109349	0	0	8259	571592	0	0
2024-06-25 13:30:32			0	37570	0	0	0	25270	23870	140823	27241	1018823	42759	109344	0	0	8261	570752	0	0
2024-06-25 13:31:32			0	37550	0	0	0	25277	23860	140811	27123	1018735	42758	109347	0	0	8259	571584	0	0
2024-06-25 13:32:32			0	37540	0	0	0	25275	23860	140759	26913	1018860	42769	109346	0	0	8259	571984	0	0
2024-06-25 13:33:32			0	37562	0	0	0	25264	23870	140803	27111	1018823	42770	109342	0	0	8260	571072	0	0
2024-06-25 13:34:32			0	37554	0	0	0	25267	23860	140807	27372	1018788	42758	109343	0	0	8260	571424	0	0
2024-06-25 13:35:32			0	37534	0	0	0	25272	23860	140783	27109	1018788	42769	109345	0	0	8259	572225	0	0
2024-06-25 13:36:32			0	37558	0	0	0	25267	23860	140831	27192	1018753	42769	109343	0	0	8260	571264	0	0
2024-06-25 13:37:32			0	37550	0	0	0	25270	23850	140875	26778	1018798	42756	109344	0	0	8259	571616	0	0
2024-06-25 13:38:32			0	37543	0	0	0	25270	23860	140767	26857	1018761	42769	109344	0	0	8259	571864	0	0
2024-06-25 13:39:32			0	37540	0	0	0	25264	23860	140819	26986	1018841	42758	109342	0	0	8259	571984	0	0
2024-06-25 13:40:32			0	37537	0	0	0	25267	23850	140831	27175	1018798	42756	109343	0	0	8259	572137	0	0
2024-06-25 13:41:32			0	37551	0	0	0	25270	23850	140851	27178	1018762	42756	109344	0	0	8259	571576	0	0
2024-06-25 13:42:32			0	37531	0	0	0	25262	23850	140775	27175	1018744	42756	109341	0	0	8259	572377	0	0
2024-06-25 13:43:32			0	37532	0	0	0	25262	23860	140883	27270	1018806	42747	109341	0	0	8259	572305	0	0
2024-06-25 13:44:32			0	37528	0	0	0	25262	23860	140935	27360	1018779	42757	109341	0	0	8258	572465	0	0
2024-06-25 13:45:32			0	37529	0	0	0	25249	23850	140951	27447	1018762	42756	109336	0	0	8259	572457	0	0
2024-06-25 13:46:32			0	37535	0	0	0	25238	23840	140879	27313	1018754	42756	109332	0	0	8259	572249	0	0
2024-06-25 13:47:32			0	37530	0	0	0	25231	23840	140851	27038	1018754	42735	109329	0	0	8259	572449	0	0
2024-06-25 13:48:32			0	37531	0	0	0	25223	23840	140923	27156	1018665	42767	109326	0	0	8259	572409	0	0
2024-06-25 13:49:32			0	37538	0	0	0	25223	23840	140847	27147	1018665	42755	109326	0	0	8260	572129	0	0
2024-06-25 13:50:32			0	37527	0	0	0	25218	23830	140811	27410	1018648	42744	109324	0	0	8259	572602	0	0
2024-06-25 13:51:32			0	37544	0	0	0	25220	23830	140823	27353	1018630	42754	109325	0	0	8260	571921	0	0
2024-06-25 13:52:32			0	37528	0	0	0	25212	23820	140879	27365	1018612	42744	109322	0	0	8259	572594	0	0
2024-06-25 13:53:32			0	37529	0	0	0	25212	23830	140883	27355	1018656	42766	109322	0	0	8259	572522	0	0
2024-06-25 13:54:32			0	37547	0	0	0	25210	23820	140887	27138	1018693	42754	109321	0	0	8260	571833	0	0
2024-06-25 13:55:32			0	37533	0	0	0	25207	23820	140903	27367	1018604	42754	109320	0	0	8259	572394	0	0
2024-06-25 13:56:32			0	37526	0	0	0	25218	23830	140943	27517	1018621	42744	109324	0	0	8259	572642	0	0
2024-06-25 13:57:32			0	37513	0	0	0	25218	23820	140923	27293	1018666	42754	109324	0	0	8258	573195	0	0
2024-06-25 13:58:32			0	37504	0	0	0	25236	23840	140991	27320	1018718	42767	109331	0	0	8258	573492	0	0
2024-06-25 13:59:32			0	37510	0	0	0	25244	23840	141023	27346	1018727	42768	109334	0	0	8258	573251	0	0
2024-06-25 14:00:32			0	37491	0	0	0	25254	23830	141035	27341	1018710	42754	109338	0	0	8257	574045	0	0
2024-06-25 14:01:32			0	37464	0	0	0	25249	23840	141035	27533	1018727	42756	109336	0	0	8255	575097	0	0
2024-06-25 14:02:32			0	37442	0	0	0	25249	23840	141191	27189	1018780	42756	109336	0	0	8254	575982	0	0
2024-06-25 14:03:32			0	37428	0	0	0	25246	23840	141235	27602	1018718	42745	109335	0	0	8253	576545	0	0
2024-06-25 14:04:32			0	37395	0	0	0	25249	23830	141311	27433	1018710	42766	109336	0	0	8252	577907	0	0
2024-06-25 14:05:32			0	37369	0	0	0	25251	23840	141379	27118	1018692	42755	109337	0	0	8250	578923	0	0
2024-06-25 14:06:32			0	37368	0	0	0	25262	23840	141383	27310	1018772	42745	109341	0	0	8250	578963	0	0
2024-06-25 14:07:32			0	37353	0	0	0	25262	23840	141419	27365	1018780	42746	109341	0	0	8249	579569	0	0
2024-06-25 14:08:32			0	37327	0	0	0	25262	23850	141523	27327	1018736	42768	109341	0	0	8248	580587	0	0
2024-06-25 14:09:32			0	37318	0	0	0	25264	23840	141542	27249	1018780	42779	109342	0	0	8247	580983	0	0
2024-06-25 14:10:32			0	37322	0	0	0	25267	23850	141619	27535	1018798	42768	109343	0	0	8248	580789	0	0
2024-06-25 14:11:32			0	37296	0	0	0	25270	23840	141454	27163	1018807	42756	109344	0	0	8246	581873	0	0
2024-06-25 14:12:32			0	37316	0	0	0	25270	23850	141635	27279	1018771	42756	109344	0	0	8247	581031	0	0
2024-06-25 14:13:32			0	37314	0	0	0	25272	23850	141554	27223	1018798	42756	109345	0	0	8247	581112	0	0
2024-06-25 14:14:32			0	37305	0	0	0	25272	23860	141630	27277	1018833	42747	109345	0	0	8247	581444	0	0
2024-06-25 14:15:32			0	37333	0	0	0	25272	23850	141535	27227	1018824	42768	109345	0	0	8248	580344	0	0
2024-06-25 14:16:32			0	37314	0	0	0	25275	23860	141630	27308	1018815	42748	109346	0	0	8247	581080	0	0
2024-06-25 14:17:32			0	37318	0	0	0	25283	23860	141559	27248	1018841	42769	109349	0	0	8247	580918	0	0
2024-06-25 14:18:32			0	37310	0	0	0	25285	23860	141678	26791	1018860	42769	109350	0	0	8247	581241	0	0
2024-06-25 14:19:32			0	37319	0	0	0	25290	23870	141518	27256	1018850	42759	109352	0	0	8247	580845	0	0
2024-06-25 14:20:32			0	37317	0	0	0	25306	23860	141671	27393	1019002	42769	109358	0	0	8247	580958	0	0
2024-06-25 14:21:32			0	37305	0	0	0	25332	23890	141722	27357	1019072	42772	109368	0	0	8246	581345	0	0
2024-06-25 14:22:32			0	37296	0	0	0	25371	23890	141682	27097	1019160	42772	109383	0	0	8245	581710	0	0
2024-06-25 14:23:32			0	37269	0	0	0	25407	23910	141750	27277	1019168	42796	109397	0	0	8243	582738	0	0
2024-06-25 14:24:32			0	37232	0	0	0	25402	23910	141942	27066	1019221	42763	109395	0	0	8241	584238	0	0
2024-06-25 14:25:32			0	37210	0	0	0	25399	23920	141954	26727	1019203	42751	109394	0	0	8240	585099	0	0
2024-06-25 14:26:32			0	37201	0	0	0	25374	23920	142030	27305	1019159	42775	109384	0	0	8240	585464	0	0
2024-06-25 14:27:32			0	37194	0	0	0	25348	23910	142034	27279	1019061	42763	109374	0	0	8240	585782	0	0
2024-06-25 14:28:32			0	37214	0	0	0	25337	23900	141950	26896	1019044	42751	109370	0	0	8241	585002	0	0
2024-06-25 14:29:32			0	37209	0	0	0	25327	23910	141850	27587	1019026	42751	109366	0	0	8241	585172	0	0
2024-06-25 14:30:32			0	37209	0	0	0	25319	23910	141922	27036	1019088	42774	109363	0	0	8241	585172	0	0
2024-06-25 14:31:32			0	37260	0	0	0	25337	23920	141790	27213	1019123	42763	109370	0	0	8243	583070	0	0
2024-06-25 14:32:32			0	37228	0	0	0	25345	23910	141834	27180	1019141	42763	109373	0	0	8242	584401	0	0
2024-06-25 14:33:32			0	37239	0	0	0	25350	23920	141810	27533	1019150	42751	109375	0	0	8242	583921	0	0
2024-06-25 14:34:32			0	37256	0	0	0	25350	23930	141906	27452	1019247	42765	109375	0	0	8243	583199	0	0
2024-06-25 14:35:32			0	37254	0	0	0	25355	23930	141626	27357	1019167	42765	109377	0	0	8243	583280	0	0
2024-06-25 14:36:32			0	37265	0	0	0	25345	23930	141730	27144	1019140	42776	109373	0	0	8244	582834	0	0
2024-06-25 14:37:32			0	37254	0	0	0	25358	23930	141698	27150	1019256	42776	109378	0	0	8243	583280	0	0
2024-06-25 14:38:32			0	37282	0	0	0	25358	23940	141690	27166	1019185	42777	109378	0	0	8244	582112	0	0
2024-06-25 14:39:32			0	37260	0	0	0	25353	23940	141734	27053	1019158	42777	109376	0	0	8243	583004	0	0
2024-06-25 14:40:32			0	37262	0	0	0	25361	23940	141666	27123	1019211	42766	109379	0	0	8243	582923	0	0
2024-06-25 14:41:32			0	37298	0	0	0	25361	23930	141690	27336	1019256	42765	109379	0	0	8245	581498	0	0
2024-06-25 14:42:32			0	37295	0	0	0	25361	23930	141658	27303	1019256	42753	109379	0	0	8245	581619	0	0
2024-06-25 14:43:32			0	37290	0	0	0	25350	23940	141642	27303	1019185	42766	109375	0	0	8245	581789	0	0
2024-06-25 14:44:32			0	37314	0	0	0	25350	23930	141606	27469	1019203	42765	109375	0	0	8246	580850	0	0
2024-06-25 14:45:32			0	37316	0	0	0	25342	23930	141530	27303	1019203	42765	109372	0	0	8246	580769	0	0
2024-06-25 14:46:32			0	37342	0	0	0	25340	23950	141511	27291	1019229	42766	109371	0	0	8248	579654	0	0
2024-06-25 14:47:32			0	37332	0	0	0	25342	23930	141487	26987	1019221	42753	109372	0	0	8247	580123	0	0
2024-06-25 14:48:32			0	37342	0	0	0	25348	23920	141439	27308	1019159	42775	109374	0	0	8248	579752	0	0
2024-06-25 14:49:32			0	37353	0	0	0	25361	23930	141343	27255	1019203	42776	109379	0	0	8248	579275	0	0
2024-06-25 14:50:32			0	37358	0	0	0	25366	23940	141299	27053	1019292	42777	109381	0	0	8248	579040	0	0
2024-06-25 14:51:32			0	37382	0	0	0	25371	23950	141327	27362	1019309	42766	109383	0	0	8249	578040	0	0
2024-06-25 14:52:32			0	37379	0	0	0	25368	23950	141319	27362	1019309	42755	109382	0	0	8249	578161	0	0
2024-06-25 14:53:32			0	37372	0	0	0	25379	23950	141259	27072	1019344	42779	109386	0	0	8249	578443	0	0
2024-06-25 14:54:32			0	37371	0	0	0	25384	23960	141219	27024	1019361	42779	109388	0	0	8249	578451	0	0
2024-06-25 14:55:32			0	37383	0	0	0	25389	23960	141279	27483	1019299	42779	109390	0	0	8249	577967	0	0
2024-06-25 14:56:32			0	37399	0	0	0	25384	23960	141239	27048	1019308	42779	109388	0	0	8250	577322	0	0
2024-06-25 14:57:32			0	37418	0	0	0	25376	23960	141259	27168	1019361	42767	109385	0	0	8251	576558	0	0
2024-06-25 14:58:32			0	37411	0	0	0	25386	23970	141199	27403	1019379	42769	109389	0	0	8251	576807	0	0
2024-06-25 14:59:32			0	37413	0	0	0	25376	23970	141171	27119	1019290	42768	109385	0	0	8251	576726	0	0
2024-06-25 15:00:32			0	37427	0	0	0	25374	23950	141155	27206	1019317	42756	109384	0	0	8252	576228	0	0
2024-06-25 15:01:32			0	37411	0	0	0	25368	23950	141131	27275	1019317	42779	109382	0	0	8251	576872	0	0
2024-06-25 15:02:32			0	37448	0	0	0	25361	23950	141131	27274	1019264	42779	109379	0	0	8253	575384	0	0
2024-06-25 15:03:32			0	37448	0	0	0	25355	23950	141051	27268	1019264	42756	109377	0	0	8253	575384	0	0
2024-06-25 15:04:32			0	37447	0	0	0	25355	23950	141155	27326	1019184	42756	109377	0	0	8253	575424	0	0
2024-06-25 15:05:32			0	37430	0	0	0	25358	23950	141171	27156	1019264	42779	109378	0	0	8252	576107	0	0
2024-06-25 15:06:32			0	37435	0	0	0	25361	23960	141147	27263	1019326	42767	109379	0	0	8252	575874	0	0
2024-06-25 15:07:32			0	37433	0	0	0	25353	23950	141063	26837	1019317	42779	109376	0	0	8252	575987	0	0
2024-06-25 15:08:32			0	37431	0	0	0	25371	23950	141095	27601	1019291	42779	109383	0	0	8252	576067	0	0
2024-06-25 15:09:32			0	37408	0	0	0	25379	23960	141199	27332	1019353	42779	109386	0	0	8251	576960	0	0
2024-06-25 15:10:32			0	37382	0	0	0	25384	23960	141187	27533	1019361	42756	109388	0	0	8249	578007	0	0
2024-06-25 15:11:32			0	37360	0	0	0	25361	23960	141347	27197	1019308	42767	109379	0	0	8248	578894	0	0
2024-06-25 15:12:32			0	37303	0	0	0	25353	23960	141530	27313	1019273	42779	109376	0	0	8246	581197	0	0
2024-06-25 15:13:32			0	37257	0	0	0	25350	23950	141726	26949	1019264	42767	109375	0	0	8243	583093	0	0
2024-06-25 15:14:32			0	37160	0	0	0	25361	23960	142018	27118	1019380	42779	109379	0	0	8238	587000	0	0
2024-06-25 15:15:32			0	37074	0	0	0	25363	23960	142370	27235	1019326	42779	109380	0	0	8233	590509	0	0
2024-06-25 15:16:32			0	36979	0	0	0	25355	23960	142718	27152	1019353	42756	109377	0	0	8229	594401	0	0
2024-06-25 15:17:32			0	36907	0	0	0	25361	23960	143102	27130	1019335	42767	109379	0	0	8225	597362	0	0
2024-06-25 15:18:32			0	36808	0	0	0	25384	23970	143350	27287	1019343	42780	109388	0	0	8219	601416	0	0
2024-06-25 15:19:32			0	36708	0	0	0	25384	23970	143774	27334	1019370	42780	109388	0	0	8214	605564	0	0
2024-06-25 15:20:32			0	36624	0	0	0	25402	23970	143986	27412	1019423	42768	109395	0	0	8209	609063	0	0
2024-06-25 15:21:32			0	36563	0	0	0	25431	23980	144313	27220	1019556	42791	109406	0	0	8206	611579	0	0
2024-06-25 15:22:32			0	36488	0	0	0	25428	23980	144557	27126	1019556	42781	109405	0	0	8202	614723	0	0
2024-06-25 15:23:32			0	36434	0	0	0	25449	24000	144753	27332	1019644	42794	109413	0	0	8199	616925	0	0
2024-06-25 15:24:32			0	36367	0	0	0	25425	24000	144953	27364	1019591	42783	109404	0	0	8196	619751	0	0
2024-06-25 15:25:32			0	36341	0	0	0	25407	24000	145237	27310	1019529	42760	109397	0	0	8194	620850	0	0
2024-06-25 15:26:32			0	36283	0	0	0	25386	23990	145341	27473	1019493	42771	109389	0	0	8192	623342	0	0
2024-06-25 15:27:32			0	36216	0	0	0	25379	23990	145509	27088	1019458	42781	109386	0	0	8188	626188	0	0
2024-06-25 15:28:32			0	36200	0	0	0	25384	23990	145673	27017	1019547	42760	109388	0	0	8187	626869	0	0
2024-06-25 15:29:32			0	36169	0	0	0	25381	23990	145893	27230	1019466	42760	109387	0	0	8186	628190	0	0
2024-06-25 15:30:32			0	36126	0	0	0	25381	23990	146029	26896	1019485	42770	109387	0	0	8183	630026	0	0
2024-06-25 15:31:32			0	36121	0	0	0	25374	24000	146089	27105	1019475	42771	109384	0	0	8183	630204	0	0
2024-06-25 15:32:32			0	36104	0	0	0	25399	23990	146137	27190	1019573	42771	109394	0	0	8182	630966	0	0
2024-06-25 15:33:32			0	36076	0	0	0	25418	24000	146173	27229	1019564	42794	109401	0	0	8180	632129	0	0
2024-06-25 15:34:32			0	36071	0	0	0	25402	24000	146133	27473	1019555	42771	109395	0	0	8180	632344	0	0
2024-06-25 15:35:32			0	36052	0	0	0	25402	24000	146221	27235	1019617	42772	109395	0	0	8179	633158	0	0
2024-06-25 15:36:32			0	36057	0	0	0	25407	24000	146297	27523	1019617	42761	109397	0	0	8179	632944	0	0
2024-06-25 15:37:32			0	36035	0	0	0	25410	24000	146365	27543	1019582	42760	109398	0	0	8178	633887	0	0
2024-06-25 15:38:32			0	36017	0	0	0	25392	24000	146461	27627	1019617	42761	109391	0	0	8178	634660	0	0
2024-06-25 15:39:32			0	36000	0	0	0	25376	24000	146497	27293	1019529	42782	109385	0	0	8177	635391	0	0
2024-06-25 15:40:32			0	35993	0	0	0	25363	24000	146613	27244	1019537	42761	109380	0	0	8177	635692	0	0
2024-06-25 15:41:32			0	35964	0	0	0	25368	23990	146693	27343	1019466	42760	109382	0	0	8175	636975	0	0
2024-06-25 15:42:32			0	35937	0	0	0	25376	23990	146873	27331	1019466	42771	109385	0	0	8174	638139	0	0
2024-06-25 15:43:32			0	35929	0	0	0	25412	23990	146905	27183	1019600	42782	109399	0	0	8172	638484	0	0
2024-06-25 15:44:32			0	35904	0	0	0	25449	24010	146941	27039	1019706	42783	109413	0	0	8171	639491	0	0
2024-06-25 15:45:32			0	35897	0	0	0	25459	24010	147037	27222	1019715	42750	109417	0	0	8170	639793	0	0
2024-06-25 15:46:32			0	35890	0	0	0	25415	24020	147045	26974	1019643	42750	109400	0	0	8171	640060	0	0
2024-06-25 15:47:32			0	35895	0	0	0	25384	24010	146981	27126	1019519	42750	109388	0	0	8171	639880	0	0
2024-06-25 15:48:32			0	35872	0	0	0	25358	24000	146957	27369	1019510	42761	109378	0	0	8170	640910	0	0
2024-06-25 15:49:32			0	35885	0	0	0	25355	24000	147041	26857	1019448	42750	109377	0	0	8171	640348	0	0
2024-06-25 15:50:32			0	35866	0	0	0	25363	23990	147072	27097	1019378	42749	109380	0	0	8170	641206	0	0
2024-06-25 15:51:32			0	35862	0	0	0	25361	23980	147013	27281	1019414	42748	109379	0	0	8170	641415	0	0
2024-06-25 15:52:32			0	35872	0	0	0	25363	23980	147137	27085	1019361	42758	109380	0	0	8170	640982	0	0
2024-06-25 15:53:32			0	35863	0	0	0	25358	23970	147133	27305	1019352	42758	109378	0	0	8170	641408	0	0
2024-06-25 15:54:32			0	35847	0	0	0	25361	23980	147092	27324	1019396	42769	109379	0	0	8169	642065	0	0
2024-06-25 15:55:32			0	35854	0	0	0	25366	23980	147144	27019	1019441	42758	109381	0	0	8169	641762	0	0
2024-06-25 15:56:32			0	35818	0	0	0	25363	23980	147248	27492	1019423	42769	109380	0	0	8167	643322	0	0
2024-06-25 15:57:32			0	35837	0	0	0	25363	23970	147348	27327	1019370	42757	109380	0	0	8168	642534	0	0
2024-06-25 15:58:32			0	35799	0	0	0	25368	23980	147356	27126	1019361	42769	109382	0	0	8166	644146	0	0
2024-06-25 15:59:32			0	35789	0	0	0	25376	23980	147476	27315	1019441	42781	109385	0	0	8166	644580	0	0
2024-06-25 16:00:32			0	35793	0	0	0	25392	23980	147376	27301	1019423	42791	109391	0	0	8166	644407	0	0
2024-06-25 16:01:32			0	35801	0	0	0	25374	23990	147532	27395	1019440	42760	109384	0	0	8166	644023	0	0
2024-06-25 16:02:32			0	35772	0	0	0	25374	23980	147556	27199	1019423	42758	109384	0	0	8165	645319	0	0
2024-06-25 16:03:32			0	35778	0	0	0	25366	23990	147472	27300	1019458	42781	109381	0	0	8165	645022	0	0
2024-06-25 16:04:32			0	35791	0	0	0	25350	23980	147460	27313	1019369	42758	109375	0	0	8166	644493	0	0
2024-06-25 16:05:32			0	35781	0	0	0	25342	23980	147504	27234	1019334	42748	109372	0	0	8166	644928	0	0
2024-06-25 16:06:32			0	35812	0	0	0	25355	23960	147416	27281	1019442	42756	109377	0	0	8167	643654	0	0
2024-06-25 16:07:32			0	35823	0	0	0	25353	23980	147348	27478	1019387	42758	109376	0	0	8168	643105	0	0
2024-06-25 16:08:32			0	35830	0	0	0	25340	23980	147280	27124	1019387	42758	109371	0	0	8168	642801	0	0
2024-06-25 16:09:32			0	35828	0	0	0	25355	23970	147268	27287	1019379	42758	109377	0	0	8168	642924	0	0
2024-06-25 16:10:32			0	35825	0	0	0	25342	23980	147340	27093	1019369	42769	109372	0	0	8168	643018	0	0
2024-06-25 16:11:32			0	35823	0	0	0	25337	23970	147388	27235	1019379	42758	109370	0	0	8168	643141	0	0
2024-06-25 16:12:32			0	35803	0	0	0	25355	23980	147416	27310	1019423	42758	109377	0	0	8167	643972	0	0
2024-06-25 16:13:32			0	35793	0	0	0	25381	23970	147484	27239	1019432	42769	109387	0	0	8166	644443	0	0
2024-06-25 16:14:32			0	35770	0	0	0	25381	23980	147588	27119	1019494	42769	109387	0	0	8164	645406	0	0
2024-06-25 16:15:32			0	35758	0	0	0	25397	23980	147532	27350	1019503	42758	109393	0	0	8164	645928	0	0
2024-06-25 16:16:32			0	35749	0	0	0	25379	23980	147500	27414	1019529	42758	109386	0	0	8163	646319	0	0
2024-06-25 16:17:32			0	35734	0	0	0	25457	24000	147672	27379	1019662	42771	109416	0	0	8161	646899	0	0
2024-06-25 16:18:32			0	35750	0	0	0	25522	24010	147704	27407	1019848	42795	109441	0	0	8161	646167	0	0
2024-06-25 16:19:32			0	35716	0	0	0	25561	24030	147840	27222	1019963	42796	109456	0	0	8159	647574	0	0
2024-06-25 16:20:32			0	35715	0	0	0	25493	24060	147748	27524	1019926	42789	109430	0	0	8160	647508	0	0
2024-06-25 16:21:32			0	35715	0	0	0	25470	24050	147672	27175	1019882	42776	109421	0	0	8160	647545	0	0
2024-06-25 16:22:32			0	35739	0	0	0	25449	24050	147564	26998	1019882	42776	109413	0	0	8162	646500	0	0
2024-06-25 16:23:32			0	35762	0	0	0	25485	24050	147608	27410	1019882	42776	109427	0	0	8163	645499	0	0
2024-06-25 16:24:32			0	35747	0	0	0	25490	24060	147556	27282	1019953	42789	109429	0	0	8162	646115	0	0
2024-06-25 16:25:32			0	35773	0	0	0	25475	24070	147524	27405	1019890	42756	109423	0	0	8163	644948	0	0
2024-06-25 16:26:32			0	35777	0	0	0	25503	24070	147404	27178	1019997	42779	109434	0	0	8163	644774	0	0
2024-06-25 16:27:32			0	35761	0	0	0	25573	24080	147444	27258	1020068	42780	109461	0	0	8161	645433	0	0
2024-06-25 16:28:32			0	35792	0	0	0	25599	24090	147488	27076	1020165	42791	109471	0	0	8162	644050	0	0
2024-06-25 16:29:32			0	35799	0	0	0	25561	24110	147352	26942	1020173	42782	109456	0	0	8164	643674	0	0
2024-06-25 16:30:32			0	35811	0	0	0	25537	24110	147328	27345	1020146	42782	109447	0	0	8165	643154	0	0
2024-06-25 16:31:32			0	35818	0	0	0	25529	24110	147284	27336	1020173	42793	109444	0	0	8165	642850	0	0
2024-06-25 16:32:32			0	35828	0	0	0	25566	24120	147108	27412	1020262	42794	109458	0	0	8165	642381	0	0
2024-06-25 16:33:32			0	35833	0	0	0	25605	24140	147224	27020	1020269	42795	109473	0	0	8165	642092	0	0
2024-06-25 16:34:32			0	35850	0	0	0	25638	24140	147200	27232	1020412	42807	109486	0	0	8165	641356	0	0
2024-06-25 16:35:32			0	35853	0	0	0	25625	24160	147096	27126	1020464	42809	109481	0	0	8166	641153	0	0
2024-06-25 16:36:32			0	35870	0	0	0	25625	24160	147037	27332	1020419	42797	109481	0	0	8167	640419	0	0
2024-06-25 16:37:32			0	35887	0	0	0	25592	24170	146965	27462	1020455	42788	109468	0	0	8168	639648	0	0
2024-06-25 16:38:32			0	35876	0	0	0	25563	24170	146889	27398	1020401	42788	109457	0	0	8168	640123	0	0
2024-06-25 16:39:32			0	35910	0	0	0	25558	24160	146865	27549	1020286	42764	109455	0	0	8170	638691	0	0
2024-06-25 16:40:32			0	35911	0	0	0	25568	24160	146889	27216	1020312	42787	109459	0	0	8170	638648	0	0
2024-06-25 16:41:32			0	35903	0	0	0	25592	24160	146753	27112	1020339	42787	109468	0	0	8169	638993	0	0
2024-06-25 16:42:32			0	35906	0	0	0	25605	24160	146937	27414	1020357	42809	109473	0	0	8169	638864	0	0
2024-06-25 16:43:32			0	35933	0	0	0	25612	24170	146769	27313	1020401	42798	109476	0	0	8170	637664	0	0
2024-06-25 16:44:32			0	35928	0	0	0	25610	24160	146861	26909	1020393	42797	109475	0	0	8170	637915	0	0
2024-06-25 16:45:32			0	35918	0	0	0	25615	24170	146761	27402	1020463	42788	109477	0	0	8169	638310	0	0
2024-06-25 16:46:32			0	35918	0	0	0	25633	24180	146869	27495	1020499	42810	109484	0	0	8169	638274	0	0
2024-06-25 16:47:32			0	35893	0	0	0	25625	24180	146921	27074	1020481	42790	109481	0	0	8168	639353	0	0
2024-06-25 16:48:32			0	35870	0	0	0	25641	24180	147037	27199	1020507	42811	109487	0	0	8166	640346	0	0
2024-06-25 16:49:32			0	35868	0	0	0	25654	24190	147125	27216	1020543	42800	109492	0	0	8166	640397	0	0
2024-06-25 16:50:32			0	35835	0	0	0	25646	24190	147212	27060	1020516	42811	109489	0	0	8164	641824	0	0
2024-06-25 16:51:32			0	35814	0	0	0	25649	24200	147208	27159	1020560	42812	109490	0	0	8163	642697	0	0
2024-06-25 16:52:32			0	35815	0	0	0	25646	24200	147288	27163	1020569	42813	109489	0	0	8163	642654	0	0
2024-06-25 16:53:32			0	35813	0	0	0	25649	24200	147276	27124	1020542	42802	109490	0	0	8163	642740	0	0
2024-06-25 16:54:32			0	35825	0	0	0	25654	24200	147216	27298	1020622	42813	109492	0	0	8164	642221	0	0
2024-06-25 16:55:32			0	35801	0	0	0	25657	24210	147360	27097	1020586	42791	109493	0	0	8163	643224	0	0
2024-06-25 16:56:32			0	35821	0	0	0	25651	24210	147316	27353	1020613	42802	109491	0	0	8164	642358	0	0
2024-06-25 16:57:32			0	35821	0	0	0	25659	24220	147324	27421	1020621	42803	109494	0	0	8164	642321	0	0
2024-06-25 16:58:32			0	35813	0	0	0	25659	24220	147284	27067	1020603	42804	109494	0	0	8163	642668	0	0
2024-06-25 16:59:32			0	35819	0	0	0	25667	24220	147304	27071	1020710	42804	109497	0	0	8163	642408	0	0
2024-06-25 17:00:32			0	35831	0	0	0	25659	24220	147252	27372	1020710	42815	109494	0	0	8164	641888	0	0
2024-06-25 17:01:32			0	35835	0	0	0	25657	24220	147244	27298	1020710	42782	109493	0	0	8164	641715	0	0
2024-06-25 17:02:32			0	35827	0	0	0	25657	24220	147260	27336	1020710	42804	109493	0	0	8164	642062	0	0
2024-06-25 17:03:32			0	35806	0	0	0	25664	24230	147304	27388	1020701	42816	109496	0	0	8163	642935	0	0
2024-06-25 17:04:32			0	35804	0	0	0	25644	24230	147244	27222	1020621	42816	109488	0	0	8163	643022	0	0
2024-06-25 17:05:32			0	35803	0	0	0	25641	24230	147276	27175	1020728	42805	109487	0	0	8163	643065	0	0
2024-06-25 17:06:32			0	35786	0	0	0	25644	24230	147428	27447	1020647	42793	109488	0	0	8162	643802	0	0
2024-06-25 17:07:32			0	35759	0	0	0	25649	24230	147468	27467	1020594	42816	109490	0	0	8160	644974	0	0
2024-06-25 17:08:32			0	35741	0	0	0	25636	24230	147428	27585	1020639	42804	109485	0	0	8160	645756	0	0
2024-06-25 17:09:32			0	35726	0	0	0	25657	24230	147576	27490	1020692	42815	109493	0	0	8159	646408	0	0
2024-06-25 17:10:32			0	35735	0	0	0	25662	24240	147552	27431	1020709	42816	109495	0	0	8159	645981	0	0
2024-06-25 17:11:32			0	35734	0	0	0	25651	24240	147548	27118	1020745	42817	109491	0	0	8159	646024	0	0
2024-06-25 17:12:32			0	35738	0	0	0	25644	24230	147516	27163	1020621	42805	109488	0	0	8159	645887	0	0
2024-06-25 17:13:32			0	35776	0	0	0	25646	24240	147412	27294	1020691	42828	109489	0	0	8161	644200	0	0
2024-06-25 17:14:32			0	35766	0	0	0	25651	24240	147384	27415	1020736	42805	109491	0	0	8161	644634	0	0
2024-06-25 17:15:32			0	35761	0	0	0	25654	24240	147332	27339	1020709	42805	109492	0	0	8161	644851	0	0
2024-06-25 17:16:32			0	35778	0	0	0	25651	24250	147272	27550	1020753	42807	109491	0	0	8162	644076	0	0
2024-06-25 17:17:32			0	35785	0	0	0	25659	24250	147344	27498	1020780	42807	109494	0	0	8162	643773	0	0
2024-06-25 17:18:32			0	35795	0	0	0	25654	24240	147328	27540	1020665	42806	109492	0	0	8162	643375	0	0
2024-06-25 17:19:32			0	35820	0	0	0	25657	24240	147176	27524	1020745	42806	109493	0	0	8164	642292	0	0
2024-06-25 17:20:32			0	35810	0	0	0	25659	24240	147116	27348	1020771	42794	109494	0	0	8163	642725	0	0
2024-06-25 17:21:32			0	35802	0	0	0	25657	24240	147232	27137	1020798	42817	109493	0	0	8163	643072	0	0
2024-06-25 17:22:32			0	35798	0	0	0	25662	24250	147264	27203	1020780	42795	109495	0	0	8162	643209	0	0
2024-06-25 17:23:32			0	35793	0	0	0	25654	24250	147300	27391	1020780	42807	109492	0	0	8162	643426	0	0
2024-06-25 17:24:32			0	35782	0	0	0	25662	24250	147260	27374	1020727	42795	109495	0	0	8162	643903	0	0
2024-06-25 17:25:32			0	35783	0	0	0	25662	24250	147328	27381	1020762	42795	109495	0	0	8162	643859	0	0
2024-06-25 17:26:32			0	35758	0	0	0	25657	24250	147396	27473	1020735	42807	109493	0	0	8160	644945	0	0
2024-06-25 17:27:32			0	35769	0	0	0	25659	24250	147368	27048	1020727	42807	109494	0	0	8161	644467	0	0
2024-06-25 17:28:32			0	35787	0	0	0	25664	24240	147332	27379	1020771	42806	109496	0	0	8162	643722	0	0
2024-06-25 17:29:32			0	35797	0	0	0	25662	24250	147236	27419	1020753	42807	109495	0	0	8162	643252	0	0
2024-06-25 17:30:32			0	35800	0	0	0	25680	24260	147188	27196	1020797	42795	109502	0	0	8162	643086	0	0
2024-06-25 17:31:32			0	35831	0	0	0	25680	24250	147120	27229	1020762	42795	109502	0	0	8164	641780	0	0
2024-06-25 17:32:32			0	35840	0	0	0	25683	24250	147092	27417	1020780	42818	109503	0	0	8164	641390	0	0
2024-06-25 17:33:32			0	35834	0	0	0	25685	24250	147020	27270	1020727	42807	109504	0	0	8164	641650	0	0
2024-06-25 17:34:32			0	35861	0	0	0	25690	24270	147029	26935	1020850	42808	109506	0	0	8165	640410	0	0
2024-06-25 17:35:32			0	35866	0	0	0	25688	24270	147041	27098	1020796	42820	109505	0	0	8166	640194	0	0
2024-06-25 17:36:32			0	35836	0	0	0	25688	24250	146924	27185	1020842	42785	109505	0	0	8164	641563	0	0
2024-06-25 17:37:32			0	35851	0	0	0	25693	24260	147052	27235	1020851	42807	109507	0	0	8165	640878	0	0
2024-06-25 17:38:32			0	35846	0	0	0	25690	24280	147028	27142	1020859	42797	109506	0	0	8165	641022	0	0
2024-06-25 17:39:32			0	35830	0	0	0	25698	24280	146996	27568	1020885	42808	109509	0	0	8164	641714	0	0
2024-06-25 17:40:32			0	35847	0	0	0	25696	24270	147004	27293	1020823	42808	109508	0	0	8165	641015	0	0
2024-06-25 17:41:32			0	35855	0	0	0	25693	24260	147040	27107	1020859	42807	109507	0	0	8165	640705	0	0
2024-06-25 17:42:32			0	35850	0	0	0	25709	24270	147088	27029	1020895	42820	109513	0	0	8165	640885	0	0
2024-06-25 17:43:32			0	35844	0	0	0	25696	24290	147080	27267	1020903	42833	109508	0	0	8164	641072	0	0
2024-06-25 17:44:32			0	35846	0	0	0	25703	24290	147072	27206	1020903	42810	109511	0	0	8164	640986	0	0
2024-06-25 17:45:32			0	35817	0	0	0	25716	24290	147124	27078	1020903	42822	109516	0	0	8163	642241	0	0
2024-06-25 17:46:32			0	35816	0	0	0	25714	24280	147148	27244	1020912	42831	109515	0	0	8163	642320	0	0
2024-06-25 17:47:32			0	35790	0	0	0	25711	24290	147228	27320	1020911	42822	109514	0	0	8161	643410	0	0
2024-06-25 17:48:32			0	35813	0	0	0	25719	24290	147256	27211	1021018	42822	109517	0	0	8162	642414	0	0
2024-06-25 17:49:32			0	35825	0	0	0	25727	24300	147144	27159	1020947	42822	109520	0	0	8163	641858	0	0
2024-06-25 17:50:32			0	35788	0	0	0	25724	24300	147008	27478	1021000	42810	109519	0	0	8161	643461	0	0
2024-06-25 17:51:32			0	35820	0	0	0	25722	24300	147044	27345	1021036	42833	109518	0	0	8163	642075	0	0
2024-06-25 17:52:32			0	35819	0	0	0	25727	24300	147016	27490	1020947	42810	109520	0	0	8163	642118	0	0
2024-06-25 17:53:32			0	35836	0	0	0	25729	24300	147144	27364	1021036	42822	109521	0	0	8164	641382	0	0
2024-06-25 17:54:32			0	35809	0	0	0	25727	24310	147112	27326	1021018	42845	109520	0	0	8162	642515	0	0
2024-06-25 17:55:32			0	35808	0	0	0	25727	24300	147192	27407	1021009	42822	109520	0	0	8162	642594	0	0
2024-06-25 17:56:32			0	35822	0	0	0	25727	24310	147088	27431	1021045	42812	109520	0	0	8163	641952	0	0
2024-06-25 17:57:32			0	35815	0	0	0	25716	24310	147128	27407	1021045	42823	109516	0	0	8163	642255	0	0
2024-06-25 17:58:32			0	35812	0	0	0	25727	24310	147176	27457	1020991	42801	109520	0	0	8162	642385	0	0
2024-06-25 17:59:32			0	35813	0	0	0	25711	24310	147112	27222	1020991	42812	109514	0	0	8163	642341	0	0
2024-06-25 18:00:32			0	35829	0	0	0	25711	24320	147156	27296	1021000	42813	109514	0	0	8164	641613	0	0
2024-06-25 18:01:32			0	35814	0	0	0	25719	24290	147132	27424	1020965	42810	109517	0	0	8163	642371	0	0
2024-06-25 18:02:32			0	35833	0	0	0	25724	24300	147044	27350	1021081	42810	109519	0	0	8163	641512	0	0
2024-06-25 18:03:32			0	35842	0	0	0	25724	24300	147020	27507	1020947	42822	109519	0	0	8164	641123	0	0
2024-06-25 18:04:32			0	35864	0	0	0	25711	24320	146937	27225	1021027	42824	109514	0	0	8165	640100	0	0
2024-06-25 18:05:32			0	35854	0	0	0	25719	24310	146888	27345	1020991	42823	109517	0	0	8165	640568	0	0
2024-06-25 18:06:32			0	35878	0	0	0	25719	24300	146869	27528	1020974	42810	109517	0	0	8166	639567	0	0
2024-06-25 18:07:32			0	35909	0	0	0	25716	24300	146809	27602	1020982	42800	109516	0	0	8168	638230	0	0
2024-06-25 18:08:32			0	35908	0	0	0	25716	24300	146777	27514	1021027	42822	109516	0	0	8168	638273	0	0
2024-06-25 18:09:32			0	35917	0	0	0	25711	24300	146729	27422	1021009	42833	109514	0	0	8168	637885	0	0
2024-06-25 18:10:32			0	35945	0	0	0	25696	24300	146697	27131	1020982	42811	109508	0	0	8170	636679	0	0
2024-06-25 18:11:32			0	35939	0	0	0	25696	24300	146629	27317	1021009	42822	109508	0	0	8170	636938	0	0
2024-06-25 18:12:32			0	35946	0	0	0	25696	24290	146621	27350	1020903	42810	109508	0	0	8170	636672	0	0
2024-06-25 18:13:32			0	35954	0	0	0	25701	24300	146657	27514	1020974	42822	109510	0	0	8170	636292	0	0
2024-06-25 18:14:32			0	35955	0	0	0	25703	24290	146621	27216	1020965	42810	109511	0	0	8170	636285	0	0
2024-06-25 18:15:32			0	35969	0	0	0	25711	24290	146593	27253	1020938	42822	109514	0	0	8171	635683	0	0
2024-06-25 18:16:32			0	35960	0	0	0	25711	24300	146549	27414	1021009	42811	109514	0	0	8170	636034	0	0
2024-06-25 18:17:32			0	35966	0	0	0	25727	24290	146501	27407	1021018	42799	109520	0	0	8170	635812	0	0
2024-06-25 18:18:32			0	35970	0	0	0	25719	24290	146453	27256	1020991	42822	109517	0	0	8171	635640	0	0
2024-06-25 18:19:32			0	36001	0	0	0	25722	24300	146501	27320	1020955	42833	109518	0	0	8172	634273	0	0
2024-06-25 18:20:32			0	35980	0	0	0	25722	24300	146373	27222	1021009	42800	109518	0	0	8171	635175	0	0
2024-06-25 18:21:32			0	35997	0	0	0	25719	24310	146461	27145	1020991	42823	109517	0	0	8172	634409	0	0
2024-06-25 18:22:32			0	35998	0	0	0	25711	24300	146445	27429	1020982	42811	109514	0	0	8172	634402	0	0
2024-06-25 18:23:32			0	36012	0	0	0	25722	24310	146405	27123	1021045	42812	109518	0	0	8173	633765	0	0
2024-06-25 18:24:32			0	36028	0	0	0	25719	24300	146413	27388	1020982	42811	109517	0	0	8174	633115	0	0
2024-06-25 18:25:32			0	36026	0	0	0	25716	24300	146337	27462	1021009	42822	109516	0	0	8174	633201	0	0
2024-06-25 18:26:32			0	36016	0	0	0	25711	24300	146305	26960	1021036	42811	109514	0	0	8173	633630	0	0
2024-06-25 18:27:32			0	36002	0	0	0	25716	24300	146377	27355	1020982	42800	109516	0	0	8173	634230	0	0
2024-06-25 18:28:32			0	36001	0	0	0	25719	24310	146321	27239	1020991	42812	109517	0	0	8173	634237	0	0
2024-06-25 18:29:32			0	36010	0	0	0	25709	24310	146385	27079	1021018	42823	109513	0	0	8173	633851	0	0
2024-06-25 18:30:32			0	35971	0	0	0	25714	24300	146497	27190	1021036	42822	109515	0	0	8171	635561	0	0
2024-06-25 18:31:32			0	35987	0	0	0	25716	24310	146489	27400	1021045	42812	109516	0	0	8172	634838	0	0
2024-06-25 18:32:32			0	35964	0	0	0	25714	24320	146637	27552	1021027	42813	109515	0	0	8171	635790	0	0
2024-06-25 18:33:32			0	35965	0	0	0	25719	24300	146645	27206	1021009	42822	109517	0	0	8171	635819	0	0
2024-06-25 18:34:32			0	35959	0	0	0	25724	24310	146661	27159	1021045	42823	109519	0	0	8170	636041	0	0
2024-06-25 18:35:32			0	35964	0	0	0	25722	24320	146685	27258	1021027	42813	109518	0	0	8171	635790	0	0
2024-06-25 18:36:32			0	35949	0	0	0	25722	24310	146593	27296	1020991	42823	109518	0	0	8170	636471	0	0
2024-06-25 18:37:32			0	35962	0	0	0	25724	24310	146565	27599	1021045	42823	109519	0	0	8170	635912	0	0
2024-06-25 18:38:32			0	35960	0	0	0	25724	24320	146533	27296	1021062	42802	109519	0	0	8170	635962	0	0
2024-06-25 18:39:32			0	35978	0	0	0	25719	24320	146569	27317	1021027	42824	109517	0	0	8171	635189	0	0
2024-06-25 18:40:32			0	35987	0	0	0	25719	24310	146625	27092	1021098	42823	109517	0	0	8172	634838	0	0
2024-06-25 18:41:32			0	35990	0	0	0	25729	24320	146545	27412	1021107	42824	109521	0	0	8172	634673	0	0
2024-06-25 18:42:32			0	35996	0	0	0	25724	24310	146577	27301	1021071	42823	109519	0	0	8172	634452	0	0
2024-06-25 18:43:32			0	35987	0	0	0	25735	24320	146489	27123	1021107	42824	109523	0	0	8172	634802	0	0
2024-06-25 18:44:32			0	35996	0	0	0	25737	24320	146413	27088	1021062	42813	109524	0	0	8172	634416	0	0
2024-06-25 18:45:32			0	36000	0	0	0	25729	24330	146569	27632	1021097	42835	109521	0	0	8172	634208	0	0
2024-06-25 18:46:32			0	35995	0	0	0	25740	24320	146529	27105	1021080	42813	109525	0	0	8172	634459	0	0
2024-06-25 18:47:32			0	36004	0	0	0	25740	24330	146537	26805	1021159	42825	109525	0	0	8172	634037	0	0
2024-06-25 18:48:32			0	35999	0	0	0	25750	24330	146545	27100	1021106	42825	109529	0	0	8172	634251	0	0
2024-06-25 18:49:32			0	35997	0	0	0	25753	24330	146541	27348	1021159	42814	109530	0	0	8172	634337	0	0
2024-06-25 18:50:32			0	35988	0	0	0	25761	24330	146669	27346	1021178	42824	109533	0	0	8171	634723	0	0
2024-06-25 18:51:32			0	35973	0	0	0	25750	24330	146541	27182	1021133	42836	109529	0	0	8171	635368	0	0
2024-06-25 18:52:32			0	35983	0	0	0	25761	24330	146493	27274	1021186	42847	109533	0	0	8171	634938	0	0
2024-06-25 18:53:32			0	36004	0	0	0	25763	24340	146357	27204	1021248	42815	109534	0	0	8172	634001	0	0
2024-06-25 18:54:32			0	36011	0	0	0	25774	24330	146349	27663	1021266	42836	109538	0	0	8172	633736	0	0
2024-06-25 18:55:32			0	36052	0	0	0	25771	24350	146225	27336	1021274	42827	109537	0	0	8175	631909	0	0
2024-06-25 18:56:32			0	36117	0	0	0	25771	24350	146037	27228	1021221	42837	109537	0	0	8178	629131	0	0
2024-06-25 18:57:32			0	36141	0	0	0	25779	24350	145917	27197	1021247	42816	109540	0	0	8179	628108	0	0
2024-06-25 18:58:32			0	36196	0	0	0	25776	24350	145697	27313	1021247	42816	109539	0	0	8182	625767	0	0
2024-06-25 18:59:32			0	36244	0	0	0	25771	24360	145477	27355	1021336	42828	109537	0	0	8185	623694	0	0
2024-06-25 19:00:32			0	36258	0	0	0	25774	24350	145305	27369	1021381	42837	109538	0	0	8185	623135	0	0
2024-06-25 19:01:32			0	36289	0	0	0	25781	24350	145253	27448	1021274	42827	109541	0	0	8187	621823	0	0
2024-06-25 19:02:32			0	36337	0	0	0	25781	24360	145145	27381	1021372	42828	109541	0	0	8189	619759	0	0
2024-06-25 19:03:32			0	36376	0	0	0	25771	24360	145077	27062	1021265	42817	109537	0	0	8192	618114	0	0
2024-06-25 19:04:32			0	36404	0	0	0	25781	24370	144937	27384	1021353	42828	109541	0	0	8193	616900	0	0
2024-06-25 19:05:32			0	36423	0	0	0	25784	24360	144969	27386	1021336	42838	109542	0	0	8194	616135	0	0
2024-06-25 19:06:32			0	36435	0	0	0	25792	24370	144889	27562	1021362	42818	109545	0	0	8195	615596	0	0
2024-06-25 19:07:32			0	36411	0	0	0	25786	24370	144929	27350	1021335	42818	109543	0	0	8193	616605	0	0
2024-06-25 19:08:32			0	36392	0	0	0	25779	24370	144853	27386	1021246	42838	109540	0	0	8192	617405	0	0
2024-06-25 19:09:32			0	36405	0	0	0	25784	24370	144957	27301	1021309	42829	109542	0	0	8193	616858	0	0
2024-06-25 19:10:32			0	36403	0	0	0	25786	24360	144909	27443	1021345	42838	109543	0	0	8193	616977	0	0
2024-06-25 19:11:32			0	36396	0	0	0	25797	24370	144969	27267	1021353	42838	109547	0	0	8192	617236	0	0
2024-06-25 19:12:32			0	36400	0	0	0	25792	24370	145013	27407	1021380	42805	109545	0	0	8193	617068	0	0
2024-06-25 19:13:32			0	36383	0	0	0	25792	24380	145085	27230	1021371	42830	109545	0	0	8192	617749	0	0
2024-06-25 19:14:32			0	36382	0	0	0	25789	24380	144997	27339	1021451	42840	109544	0	0	8192	617791	0	0
2024-06-25 19:15:32			0	36372	0	0	0	25784	24370	145041	27118	1021362	42818	109542	0	0	8191	618247	0	0
2024-06-25 19:16:32			0	36372	0	0	0	25779	24370	145089	27339	1021362	42818	109540	0	0	8191	618247	0	0
2024-06-25 19:17:32			0	36352	0	0	0	25792	24370	145177	27351	1021362	42829	109545	0	0	8190	619091	0	0
2024-06-25 19:18:32			0	36335	0	0	0	25792	24380	145201	27222	1021379	42841	109545	0	0	8189	619773	0	0
2024-06-25 19:19:32			0	36347	0	0	0	25789	24370	145109	27654	1021362	42829	109544	0	0	8190	619302	0	0
2024-06-25 19:20:32			0	36339	0	0	0	25781	24370	145225	27431	1021389	42829	109541	0	0	8190	619639	0	0
2024-06-25 19:21:32			0	36331	0	0	0	25786	24380	145269	27402	1021397	42840	109543	0	0	8189	619942	0	0
2024-06-25 19:22:32			0	36327	0	0	0	25789	24370	145313	27052	1021362	42839	109544	0	0	8189	620146	0	0
2024-06-25 19:23:32			0	36275	0	0	0	25786	24380	145385	27383	1021379	42831	109543	0	0	8186	622310	0	0
2024-06-25 19:24:32			0	36268	0	0	0	25784	24370	145461	27209	1021282	42818	109542	0	0	8186	622641	0	0
2024-06-25 19:25:32			0	36251	0	0	0	25766	24370	145501	27246	1021380	42828	109535	0	0	8185	623362	0	0
2024-06-25 19:26:32			0	36242	0	0	0	25776	24370	145517	27114	1021416	42829	109539	0	0	8185	623743	0	0
2024-06-25 19:27:32			0	36245	0	0	0	25776	24370	145649	27509	1021246	42828	109539	0	0	8185	623616	0	0
2024-06-25 19:28:32			0	36215	0	0	0	25776	24370	145689	27338	1021327	42828	109539	0	0	8183	624889	0	0
2024-06-25 19:29:32			0	36219	0	0	0	25774	24370	145637	27563	1021389	42829	109538	0	0	8183	624719	0	0
2024-06-25 19:30:32			0	36211	0	0	0	25786	24370	145761	27263	1021273	42838	109543	0	0	8183	625059	0	0
2024-06-25 19:31:32			0	36224	0	0	0	25774	24360	145645	26937	1021345	42828	109538	0	0	8184	624542	0	0
2024-06-25 19:32:32			0	36227	0	0	0	25784	24370	145717	27467	1021255	42839	109542	0	0	8184	624379	0	0
2024-06-25 19:33:32			0	36223	0	0	0	25776	24370	145677	27573	1021380	42828	109539	0	0	8184	624549	0	0
2024-06-25 19:34:32			0	36240	0	0	0	25784	24370	145713	27369	1021362	42818	109542	0	0	8184	623828	0	0
2024-06-25 19:35:32			0	36241	0	0	0	25781	24380	145677	27317	1021317	42819	109541	0	0	8185	623750	0	0
2024-06-25 19:36:32			0	36269	0	0	0	25781	24370	145585	27580	1021407	42828	109541	0	0	8186	622599	0	0
2024-06-25 19:37:32			0	36263	0	0	0	25792	24370	145537	27291	1021389	42818	109545	0	0	8185	622853	0	0
2024-06-25 19:38:32			0	36288	0	0	0	25789	24390	145473	27450	1021415	42841	109544	0	0	8187	621724	0	0
2024-06-25 19:39:32			0	36289	0	0	0	25792	24370	145437	27571	1021353	42817	109545	0	0	8187	621752	0	0
2024-06-25 19:40:32			0	36322	0	0	0	25786	24380	145289	27320	1021317	42830	109543	0	0	8189	620322	0	0
2024-06-25 19:41:32			0	36320	0	0	0	25789	24380	145377	27405	1021371	42819	109544	0	0	8189	620407	0	0
2024-06-25 19:42:32			0	36335	0	0	0	25797	24380	145357	27440	1021371	42819	109547	0	0	8189	619773	0	0
2024-06-25 19:43:32			0	36312	0	0	0	25789	24370	145277	27286	1021380	42838	109544	0	0	8188	620780	0	0
2024-06-25 19:44:32			0	36337	0	0	0	25786	24380	145305	27524	1021326	42820	109543	0	0	8189	619689	0	0
2024-06-25 19:45:32			0	36343	0	0	0	25794	24390	145229	27346	1021415	42820	109546	0	0	8190	619400	0	0
2024-06-25 19:46:32			0	36322	0	0	0	25794	24380	145265	27390	1021397	42819	109546	0	0	8189	620322	0	0
2024-06-25 19:47:32			0	36326	0	0	0	25807	24370	145265	27736	1021416	42839	109551	0	0	8189	620188	0	0
2024-06-25 19:48:32			0	36341	0	0	0	25799	24370	145269	27244	1021362	42829	109548	0	0	8189	619555	0	0
2024-06-25 19:49:32			0	36344	0	0	0	25794	24400	145221	27227	1021467	42833	109546	0	0	8190	619323	0	0
2024-06-25 19:50:32			0	36349	0	0	0	25802	24370	145261	27123	1021389	42818	109549	0	0	8190	619217	0	0
2024-06-25 19:51:32			0	36333	0	0	0	25797	24390	145177	27066	1021423	42831	109547	0	0	8189	619823	0	0
2024-06-25 19:52:32			0	36357	0	0	0	25797	24380	145169	27308	1021478	42830	109547	0	0	8190	618845	0	0
2024-06-25 19:53:32			0	36344	0	0	0	25799	24400	145237	27447	1021432	42842	109548	0	0	8190	619323	0	0
2024-06-25 19:54:32			0	36346	0	0	0	25797	24390	145221	27135	1021450	42808	109547	0	0	8190	619274	0	0
2024-06-25 19:55:32			0	36347	0	0	0	25792	24390	145125	27260	1021423	42841	109545	0	0	8190	619232	0	0
2024-06-25 19:56:32			0	36350	0	0	0	25799	24390	145197	27379	1021388	42820	109548	0	0	8190	619105	0	0
2024-06-25 19:57:32			0	36364	0	0	0	25807	24400	145205	27149	1021459	42820	109551	0	0	8191	618480	0	0
2024-06-25 19:58:32			0	36351	0	0	0	25799	24390	145161	27312	1021441	42841	109548	0	0	8190	619063	0	0
2024-06-25 19:59:32			0	36359	0	0	0	25792	24380	145145	27488	1021424	42830	109545	0	0	8191	618760	0	0
2024-06-25 20:00:32			0	36375	0	0	0	25799	24380	145121	27324	1021486	42831	109548	0	0	8191	618086	0	0
2024-06-25 20:01:32			0	36393	0	0	0	25797	24390	144985	27353	1021397	42820	109547	0	0	8192	617293	0	0
2024-06-25 20:02:32			0	36412	0	0	0	25794	24390	144945	27116	1021495	42831	109546	0	0	8193	616494	0	0
2024-06-25 20:03:32			0	36423	0	0	0	25794	24390	144917	27215	1021415	42831	109546	0	0	8194	616031	0	0
2024-06-25 20:04:32			0	36439	0	0	0	25794	24390	144913	27147	1021423	42831	109546	0	0	8195	615359	0	0
2024-06-25 20:05:32			0	36447	0	0	0	25802	24390	144801	27367	1021415	42831	109549	0	0	8195	615023	0	0
2024-06-25 20:06:32			0	36482	0	0	0	25799	24390	144765	27282	1021477	42841	109548	0	0	8197	613554	0	0
2024-06-25 20:07:32			0	36487	0	0	0	25794	24400	144797	27282	1021405	42832	109546	0	0	8197	613310	0	0
2024-06-25 20:08:32			0	36505	0	0	0	25802	24390	144673	27130	1021423	42820	109549	0	0	8198	612590	0	0
2024-06-25 20:09:32			0	36524	0	0	0	25792	24390	144625	27384	1021423	42831	109545	0	0	8199	611795	0	0
2024-06-25 20:10:32			0	36523	0	0	0	25794	24390	144557	27530	1021415	42841	109546	0	0	8199	611837	0	0
2024-06-25 20:11:32			0	36530	0	0	0	25799	24390	144473	27338	1021423	42831	109548	0	0	8199	611544	0	0
2024-06-25 20:12:32			0	36554	0	0	0	25797	24390	144485	27493	1021423	42820	109547	0	0	8201	610541	0	0
2024-06-25 20:13:32			0	36565	0	0	0	25799	24380	144473	27310	1021451	42830	109548	0	0	8201	610116	0	0
2024-06-25 20:14:32			0	36576	0	0	0	25807	24390	144389	27327	1021450	42841	109551	0	0	8202	609622	0	0
2024-06-25 20:15:32			0	36576	0	0	0	25807	24390	144345	27104	1021450	42831	109551	0	0	8202	609622	0	0
2024-06-25 20:16:32			0	36605	0	0	0	25799	24390	144330	27118	1021397	42841	109548	0	0	8203	608413	0	0
2024-06-25 20:17:32			0	36601	0	0	0	25792	24390	144234	27163	1021423	42841	109545	0	0	8203	608579	0	0
2024-06-25 20:18:32			0	36603	0	0	0	25797	24390	144230	27547	1021423	42852	109547	0	0	8203	608496	0	0
2024-06-25 20:19:32			0	36610	0	0	0	25805	24400	144162	27142	1021459	42842	109550	0	0	8204	608170	0	0
2024-06-25 20:20:32			0	36652	0	0	0	25799	24380	144102	27282	1021424	42819	109548	0	0	8206	606490	0	0
2024-06-25 20:21:32			0	36664	0	0	0	25805	24390	144042	27163	1021423	42831	109550	0	0	8206	605957	0	0
2024-06-25 20:22:32			0	36679	0	0	0	25797	24400	143946	27206	1021485	42842	109547	0	0	8207	605299	0	0
2024-06-25 20:23:32			0	36728	0	0	0	25802	24390	143918	27390	1021415	42831	109549	0	0	8210	603301	0	0
2024-06-25 20:24:32			0	36741	0	0	0	25805	24390	143718	26993	1021397	42831	109550	0	0	8210	602762	0	0
2024-06-25 20:25:32			0	36767	0	0	0	25794	24380	143726	26956	1021379	42831	109546	0	0	8212	601720	0	0
2024-06-25 20:26:32			0	36780	0	0	0	25792	24380	143610	27090	1021397	42830	109545	0	0	8213	601183	0	0
2024-06-25 20:27:32			0	36800	0	0	0	25789	24380	143518	27147	1021424	42830	109544	0	0	8214	600356	0	0
2024-06-25 20:28:32			0	36816	0	0	0	25799	24380	143426	27116	1021397	42840	109548	0	0	8214	599695	0	0
2024-06-25 20:29:32			0	36814	0	0	0	25789	24380	143462	27220	1021371	42830	109544	0	0	8215	599778	0	0
2024-06-25 20:30:32			0	36830	0	0	0	25786	24390	143418	27128	1021415	42820	109543	0	0	8215	599084	0	0
2024-06-25 20:31:32			0	36846	0	0	0	25786	24380	143406	27265	1021371	42840	109543	0	0	8216	598458	0	0
2024-06-25 20:32:32			0	36838	0	0	0	25781	24380	143410	27164	1021379	42820	109541	0	0	8216	598788	0	0
2024-06-25 20:33:32			0	36837	0	0	0	25774	24370	143370	27218	1021300	42817	109538	0	0	8216	598863	0	0
2024-06-25 20:34:32			0	36855	0	0	0	25781	24380	143410	27045	1021317	42840	109541	0	0	8217	598087	0	0
2024-06-25 20:35:32			0	36849	0	0	0	25774	24370	143398	27287	1021389	42829	109538	0	0	8217	598368	0	0
2024-06-25 20:36:32			0	36849	0	0	0	25768	24370	143378	27479	1021362	42829	109536	0	0	8217	598368	0	0
2024-06-25 20:37:32			0	36848	0	0	0	25776	24370	143258	27263	1021389	42829	109539	0	0	8216	598410	0	0
2024-06-25 20:38:32			0	36856	0	0	0	25774	24370	143326	27583	1021416	42829	109538	0	0	8217	598080	0	0
2024-06-25 20:39:32			0	36878	0	0	0	25776	24370	143334	27171	1021335	42839	109539	0	0	8218	597174	0	0
2024-06-25 20:40:32			0	36877	0	0	0	25776	24370	143330	27367	1021353	42838	109539	0	0	8218	597215	0	0
2024-06-25 20:41:32			0	36889	0	0	0	25784	24380	143170	27182	1021478	42830	109542	0	0	8219	596688	0	0
2024-06-25 20:42:32			0	36888	0	0	0	25781	24370	143234	27190	1021362	42829	109541	0	0	8218	596763	0	0
2024-06-25 20:43:32			0	36900	0	0	0	25779	24380	143130	27452	1021397	42830	109540	0	0	8219	596235	0	0
2024-06-25 20:44:32			0	36924	0	0	0	25779	24370	143086	27367	1021353	42828	109540	0	0	8220	595283	0	0
2024-06-25 20:45:32			0	36938	0	0	0	25781	24370	143026	27502	1021362	42829	109541	0	0	8221	594708	0	0
2024-06-25 20:46:32			0	36946	0	0	0	25776	24370	143010	27284	1021380	42828	109539	0	0	8222	594380	0	0
2024-06-25 20:47:32			0	36948	0	0	0	25768	24360	142926	27343	1021345	42828	109536	0	0	8222	594331	0	0
2024-06-25 20:48:32			0	36991	0	0	0	25768	24360	142874	27393	1021372	42817	109536	0	0	8224	592569	0	0
2024-06-25 20:49:32			0	36982	0	0	0	25766	24370	142742	27013	1021282	42851	109535	0	0	8224	592904	0	0
2024-06-25 20:50:32			0	37006	0	0	0	25776	24370	142802	27296	1021255	42839	109539	0	0	8225	591922	0	0
2024-06-25 20:51:32			0	37011	0	0	0	25766	24350	142702	27417	1021328	42837	109535	0	0	8225	591784	0	0
2024-06-25 20:52:32			0	37016	0	0	0	25774	24370	142786	27130	1021273	42817	109538	0	0	8225	591513	0	0
2024-06-25 20:53:32			0	37019	0	0	0	25761	24360	142770	27279	1021291	42838	109533	0	0	8226	591423	0	0
2024-06-25 20:54:32			0	37010	0	0	0	25768	24360	142698	27358	1021229	42838	109536	0	0	8225	591792	0	0
2024-06-25 20:55:32			0	37005	0	0	0	25761	24370	142666	27275	1021246	42805	109533	0	0	8225	591963	0	0
2024-06-25 20:56:32			0	36989	0	0	0	25750	24360	142714	27138	1021336	42828	109529	0	0	8224	592651	0	0
2024-06-25 20:57:32			0	37006	0	0	0	25755	24360	142698	27319	1021229	42828	109531	0	0	8225	591955	0	0
2024-06-25 20:58:32			0	36994	0	0	0	25758	24360	142754	27178	1021238	42828	109532	0	0	8224	592446	0	0
2024-06-25 20:59:32			0	37010	0	0	0	25758	24360	142814	27133	1021309	42828	109532	0	0	8225	591792	0	0
2024-06-25 21:00:32			0	37003	0	0	0	25766	24350	142754	27338	1021239	42826	109535	0	0	8225	592111	0	0
2024-06-25 21:01:32			0	36991	0	0	0	25768	24360	142770	27371	1021283	42838	109536	0	0	8224	592569	0	0
2024-06-25 21:02:32			0	37005	0	0	0	25763	24360	142790	26908	1021336	42828	109534	0	0	8225	591996	0	0
2024-06-25 21:03:32			0	36983	0	0	0	25753	24360	142794	27069	1021345	42828	109530	0	0	8224	592897	0	0
2024-06-25 21:04:32			0	36982	0	0	0	25766	24350	142694	27403	1021328	42837	109535	0	0	8224	592971	0	0
2024-06-25 21:05:32			0	37025	0	0	0	25766	24350	142654	27320	1021328	42816	109535	0	0	8226	591212	0	0
2024-06-25 21:06:32			0	37011	0	0	0	25771	24350	142626	27015	1021265	42826	109537	0	0	8225	591784	0	0
2024-06-25 21:07:32			0	37027	0	0	0	25758	24360	142662	27417	1021372	42817	109532	0	0	8226	591096	0	0
2024-06-25 21:08:32			0	37041	0	0	0	25763	24360	142590	27261	1021390	42828	109534	0	0	8227	590524	0	0
2024-06-25 21:09:32			0	37054	0	0	0	25774	24350	142482	27313	1021328	42827	109538	0	0	8227	590027	0	0
2024-06-25 21:10:32			0	37083	0	0	0	25761	24350	142490	27345	1021301	42837	109533	0	0	8229	588844	0	0
2024-06-25 21:11:32			0	37094	0	0	0	25774	24350	142354	27294	1021319	42826	109538	0	0	8229	588395	0	0
2024-06-25 21:12:32			0	37142	0	0	0	25761	24360	142130	27281	1021283	42838	109533	0	0	8232	586408	0	0
2024-06-25 21:13:32			0	37169	0	0	0	25771	24360	142102	27521	1021390	42838	109537	0	0	8233	585311	0	0
2024-06-25 21:14:32			0	37166	0	0	0	25768	24360	142098	27590	1021363	42850	109536	0	0	8233	585433	0	0
2024-06-25 21:15:32			0	37203	0	0	0	25766	24360	141978	27083	1021336	42828	109535	0	0	8235	583932	0	0
2024-06-25 21:16:32			0	37226	0	0	0	25766	24360	141934	27282	1021425	42838	109535	0	0	8236	583000	0	0
2024-06-25 21:17:32			0	37236	0	0	0	25776	24360	141838	27516	1021390	42838	109539	0	0	8237	582595	0	0
2024-06-25 21:18:32			0	37254	0	0	0	25779	24370	141742	27528	1021309	42839	109540	0	0	8238	581833	0	0
2024-06-25 21:19:32			0	37270	0	0	0	25776	24360	141738	27218	1021372	42838	109539	0	0	8238	581219	0	0
2024-06-25 21:20:32			0	37276	0	0	0	25784	24370	141650	27428	1021389	42829	109542	0	0	8239	580944	0	0
2024-06-25 21:21:32			0	37276	0	0	0	25779	24370	141694	27329	1021407	42838	109540	0	0	8239	580944	0	0
2024-06-25 21:22:32			0	37291	0	0	0	25771	24360	141746	27462	1021363	42828	109537	0	0	8240	580371	0	0
2024-06-25 21:23:32			0	37279	0	0	0	25781	24370	141614	27178	1021327	42838	109541	0	0	8239	580823	0	0
2024-06-25 21:24:32			0	37288	0	0	0	25784	24370	141606	27154	1021380	42828	109542	0	0	8239	580459	0	0
2024-06-25 21:25:32			0	37291	0	0	0	25786	24370	141646	26970	1021407	42838	109543	0	0	8239	580338	0	0
2024-06-25 21:26:32			0	37294	0	0	0	25781	24360	141630	26885	1021372	42838	109541	0	0	8240	580250	0	0
2024-06-25 21:27:32			0	37296	0	0	0	25784	24370	141578	27050	1021460	42828	109542	0	0	8240	580136	0	0
2024-06-25 21:28:32			0	37299	0	0	0	25784	24370	141522	27131	1021407	42838	109542	0	0	8240	580015	0	0
2024-06-25 21:29:32			0	37314	0	0	0	25786	24390	141546	27341	1021441	42852	109543	0	0	8241	579345	0	0
2024-06-25 21:30:32			0	37303	0	0	0	25784	24370	141554	27064	1021380	42828	109542	0	0	8240	579854	0	0
2024-06-25 21:31:32			0	37305	0	0	0	25792	24370	141562	27341	1021407	42828	109545	0	0	8240	579773	0	0
2024-06-25 21:32:32			0	37317	0	0	0	25786	24370	141578	27414	1021416	42818	109543	0	0	8241	579289	0	0
2024-06-25 21:33:32			0	37318	0	0	0	25786	24380	141591	27279	1021451	42830	109543	0	0	8241	579216	0	0
2024-06-25 21:34:32			0	37318	0	0	0	25784	24370	141447	27000	1021407	42850	109542	0	0	8241	579249	0	0
2024-06-25 21:35:32			0	37321	0	0	0	25779	24390	141503	27230	1021415	42841	109540	0	0	8241	579062	0	0
2024-06-25 21:36:32			0	37340	0	0	0	25781	24370	141383	27246	1021380	42838	109541	0	0	8242	578362	0	0
2024-06-25 21:37:32			0	37322	0	0	0	25774	24370	141490	26842	1021460	42817	109538	0	0	8241	579087	0	0
2024-06-25 21:38:32			0	37371	0	0	0	25792	24380	141491	26882	1021371	42840	109545	0	0	8243	577081	0	0
2024-06-25 21:39:32			0	37352	0	0	0	25786	24380	141479	26987	1021433	42831	109543	0	0	8243	577846	0	0
2024-06-25 21:40:32			0	37365	0	0	0	25794	24380	141423	27253	1021424	42840	109546	0	0	8243	577323	0	0
2024-06-25 21:41:32			0	37377	0	0	0	25794	24370	141371	27187	1021389	42829	109546	0	0	8244	576873	0	0
2024-06-25 21:42:32			0	37365	0	0	0	25786	24370	141371	27407	1021407	42838	109543	0	0	8243	577355	0	0
2024-06-25 21:43:32			0	37372	0	0	0	25792	24380	141299	26949	1021397	42840	109545	0	0	8244	577041	0	0
2024-06-25 21:44:32			0	37377	0	0	0	25779	24370	141339	27303	1021442	42829	109540	0	0	8244	576873	0	0
2024-06-25 21:45:32			0	37362	0	0	0	25784	24390	141331	27241	1021441	42841	109542	0	0	8243	577411	0	0
2024-06-25 21:46:32			0	37356	0	0	0	25794	24370	141367	27334	1021442	42829	109546	0	0	8243	577718	0	0
2024-06-25 21:47:32			0	37349	0	0	0	25792	24380	141411	27213	1021424	42830	109545	0	0	8242	577967	0	0
2024-06-25 21:48:32			0	37375	0	0	0	25797	24380	141411	27383	1021451	42840	109547	0	0	8244	576920	0	0
2024-06-25 21:49:32			0	37349	0	0	0	25792	24380	141423	27131	1021504	42830	109545	0	0	8242	577967	0	0
2024-06-25 21:50:32			0	37341	0	0	0	25789	24370	141475	27045	1021442	42839	109544	0	0	8242	578322	0	0
2024-06-25 21:51:32			0	37350	0	0	0	25781	24390	141455	27090	1021423	42831	109541	0	0	8243	577894	0	0
2024-06-25 21:52:32			0	37317	0	0	0	25781	24380	141471	27296	1021478	42840	109541	0	0	8241	579256	0	0
2024-06-25 21:53:32			0	37301	0	0	0	25779	24370	141530	27355	1021442	42839	109540	0	0	8240	579935	0	0
2024-06-25 21:54:32			0	37309	0	0	0	25779	24390	141630	27545	1021415	42841	109540	0	0	8241	579546	0	0
2024-06-25 21:55:32			0	37279	0	0	0	25779	24370	141674	27296	1021469	42839	109540	0	0	8239	580823	0	0
2024-06-25 21:56:32			0	37263	0	0	0	25784	24360	141806	27324	1021372	42838	109542	0	0	8238	581502	0	0
2024-06-25 21:57:32			0	37240	0	0	0	25776	24370	141710	27402	1021407	42828	109539	0	0	8237	582400	0	0
2024-06-25 21:58:32			0	37261	0	0	0	25771	24370	141770	27339	1021442	42839	109537	0	0	8238	581550	0	0
2024-06-25 21:59:32			0	37239	0	0	0	25774	24370	141766	27241	1021389	42839	109538	0	0	8237	582440	0	0
2024-06-25 22:00:32			0	37227	0	0	0	25776	24370	141854	27178	1021416	42839	109539	0	0	8236	582926	0	0
2024-06-25 22:01:32			0	37207	0	0	0	25776	24370	141850	27092	1021407	42828	109539	0	0	8235	583736	0	0
2024-06-25 22:02:32			0	37228	0	0	0	25771	24370	141958	27386	1021407	42838	109537	0	0	8236	582886	0	0
2024-06-25 22:03:32			0	37202	0	0	0	25774	24370	141982	27481	1021353	42838	109538	0	0	8235	583939	0	0
2024-06-25 22:04:32			0	37200	0	0	0	25774	24360	141962	27282	1021372	42838	109538	0	0	8235	584053	0	0
2024-06-25 22:05:32			0	37163	0	0	0	25766	24370	141966	27327	1021416	42839	109535	0	0	8233	585522	0	0
2024-06-25 22:06:32			0	37176	0	0	0	25774	24360	141970	27358	1021345	42828	109538	0	0	8234	585027	0	0
2024-06-25 22:07:32			0	37168	0	0	0	25774	24360	142006	27223	1021425	42838	109538	0	0	8233	585352	0	0
2024-06-25 22:08:32			0	37160	0	0	0	25776	24360	142026	27346	1021372	42850	109539	0	0	8233	585677	0	0
2024-06-25 22:09:32			0	37142	0	0	0	25774	24370	142058	27208	1021353	42828	109538	0	0	8232	586375	0	0
2024-06-25 22:10:32			0	37155	0	0	0	25779	24370	142098	27187	1021434	42828	109540	0	0	8232	585847	0	0
2024-06-25 22:11:32			0	37142	0	0	0	25779	24360	142118	27232	1021443	42838	109540	0	0	8232	586408	0	0
2024-06-25 22:12:32			0	37142	0	0	0	25779	24370	142094	27338	1021353	42838	109540	0	0	8232	586375	0	0
2024-06-25 22:13:32			0	37139	0	0	0	25768	24370	142134	27261	1021407	42828	109536	0	0	8232	586497	0	0
2024-06-25 22:14:32			0	37131	0	0	0	25766	24370	142074	27220	1021353	42828	109535	0	0	8231	586822	0	0
2024-06-25 22:15:32			0	37137	0	0	0	25774	24360	142218	27201	1021336	42838	109538	0	0	8232	586612	0	0
2024-06-25 22:16:32			0	37128	0	0	0	25763	24360	142158	26967	1021372	42828	109534	0	0	8231	586978	0	0
2024-06-25 22:17:32			0	37111	0	0	0	25779	24360	142182	27027	1021372	42838	109540	0	0	8230	587670	0	0
2024-06-25 22:18:32			0	37107	0	0	0	25768	24370	142214	27282	1021353	42838	109536	0	0	8230	587799	0	0
2024-06-25 22:19:32			0	37115	0	0	0	25774	24370	142270	27176	1021407	42838	109538	0	0	8230	587473	0	0
2024-06-25 22:20:32			0	37108	0	0	0	25771	24360	142258	27149	1021416	42828	109537	0	0	8230	587792	0	0
2024-06-25 22:21:32			0	37127	0	0	0	25771	24360	142210	27263	1021345	42828	109537	0	0	8231	587018	0	0
2024-06-25 22:22:32			0	37099	0	0	0	25781	24360	142302	27104	1021345	42828	109541	0	0	8229	588158	0	0
2024-06-25 22:23:32			0	37110	0	0	0	25779	24370	142306	26765	1021416	42829	109540	0	0	8230	587677	0	0
2024-06-25 22:24:32			0	37115	0	0	0	25779	24360	142194	27137	1021398	42838	109540	0	0	8230	587507	0	0
2024-06-25 22:25:32			0	37098	0	0	0	25779	24360	142250	27107	1021345	42828	109540	0	0	8229	588199	0	0
2024-06-25 22:26:32			0	37107	0	0	0	25781	24370	142226	26927	1021416	42829	109541	0	0	8230	587799	0	0
2024-06-25 22:27:32			0	37107	0	0	0	25771	24370	142142	26987	1021407	42838	109537	0	0	8230	587799	0	0
2024-06-25 22:28:32			0	37117	0	0	0	25768	24370	142202	26930	1021407	42828	109536	0	0	8231	587392	0	0
2024-06-25 22:29:32			0	37115	0	0	0	25776	24360	142194	27038	1021390	42838	109539	0	0	8230	587507	0	0
2024-06-25 22:30:32			0	37113	0	0	0	25779	24360	142162	27088	1021398	42817	109540	0	0	8230	587588	0	0
2024-06-25 22:31:32			0	37111	0	0	0	25774	24370	142158	27438	1021389	42829	109538	0	0	8230	587636	0	0
2024-06-25 22:32:32			0	37120	0	0	0	25774	24360	142094	27206	1021363	42838	109538	0	0	8231	587303	0	0
2024-06-25 22:33:32			0	37112	0	0	0	25771	24360	142194	27306	1021390	42838	109537	0	0	8230	587629	0	0
2024-06-25 22:34:32			0	37115	0	0	0	25784	24370	142122	27208	1021434	42838	109542	0	0	8230	587473	0	0
2024-06-25 22:35:32			0	37121	0	0	0	25761	24370	142154	27116	1021460	42838	109533	0	0	8231	587229	0	0
2024-06-25 22:36:32			0	37117	0	0	0	25776	24370	142146	27170	1021300	42850	109539	0	0	8230	587392	0	0
2024-06-25 22:37:32			0	37119	0	0	0	25776	24370	142122	27253	1021353	42838	109539	0	0	8231	587311	0	0
2024-06-25 22:38:32			0	37144	0	0	0	25774	24370	142106	26876	1021389	42851	109538	0	0	8232	586294	0	0
2024-06-25 22:39:32			0	37146	0	0	0	25779	24370	142118	27284	1021434	42838	109540	0	0	8232	586213	0	0
2024-06-25 22:40:32			0	37149	0	0	0	25774	24370	142002	27211	1021389	42839	109538	0	0	8232	586091	0	0
2024-06-25 22:41:32			0	37171	0	0	0	25771	24360	142078	26996	1021398	42817	109537	0	0	8233	585230	0	0
2024-06-25 22:42:32			0	37162	0	0	0	25786	24360	142098	26864	1021398	42828	109543	0	0	8233	585596	0	0
2024-06-25 22:43:32			0	37162	0	0	0	25776	24360	142090	27013	1021398	42838	109539	0	0	8233	585596	0	0
2024-06-25 22:44:32			0	37180	0	0	0	25779	24360	142034	26783	1021336	42817	109540	0	0	8234	584865	0	0
2024-06-25 22:45:32			0	37190	0	0	0	25774	24370	141982	27133	1021389	42839	109538	0	0	8234	584426	0	0
2024-06-25 22:46:32			0	37183	0	0	0	25774	24360	141918	27241	1021372	42828	109538	0	0	8234	584743	0	0
2024-06-25 22:47:32			0	37192	0	0	0	25776	24360	141918	27263	1021425	42838	109539	0	0	8234	584378	0	0
2024-06-25 22:48:32			0	37185	0	0	0	25766	24350	141938	26795	1021381	42827	109535	0	0	8234	584695	0	0
2024-06-25 22:49:32			0	37183	0	0	0	25766	24360	141918	27057	1021363	42838	109535	0	0	8234	584743	0	0
2024-06-25 22:50:32			0	37198	0	0	0	25768	24360	141938	26944	1021291	42828	109536	0	0	8235	584134	0	0
2024-06-25 22:51:32			0	37197	0	0	0	25766	24360	141858	27267	1021372	42850	109535	0	0	8235	584175	0	0
2024-06-25 22:52:32			0	37212	0	0	0	25758	24360	141798	26942	1021345	42838	109532	0	0	8236	583567	0	0
2024-06-25 22:53:32			0	37219	0	0	0	25758	24360	141838	27280	1021291	42828	109532	0	0	8236	583283	0	0
2024-06-25 22:54:32			0	37211	0	0	0	25774	24360	141870	27111	1021283	42828	109538	0	0	8235	583607	0	0
2024-06-25 22:55:32			0	37219	0	0	0	25761	24360	141838	27256	1021372	42850	109533	0	0	8236	583283	0	0
2024-06-25 22:56:32			0	37204	0	0	0	25763	24360	141770	27281	1021372	42838	109534	0	0	8235	583891	0	0
2024-06-25 22:57:32			0	37210	0	0	0	25761	24360	141790	26927	1021345	42828	109533	0	0	8236	583648	0	0
2024-06-25 22:58:32			0	37232	0	0	0	25771	24360	141834	27208	1021336	42828	109537	0	0	8237	582757	0	0
2024-06-25 22:59:32			0	37214	0	0	0	25768	24350	141778	26967	1021381	42837	109536	0	0	8236	583519	0	0
2024-06-25 23:00:32			0	37245	0	0	0	25768	24360	141694	26717	1021363	42828	109536	0	0	8237	582230	0	0
2024-06-25 23:01:32			0	37236	0	0	0	25766	24350	141714	27046	1021381	42827	109535	0	0	8237	582628	0	0
2024-06-25 23:02:32			0	37237	0	0	0	25758	24360	141734	27086	1021336	42838	109532	0	0	8237	582554	0	0
2024-06-25 23:03:32			0	37259	0	0	0	25768	24360	141638	27039	1021398	42838	109536	0	0	8238	581664	0	0
2024-06-25 23:04:32			0	37249	0	0	0	25768	24350	141646	27455	1021381	42837	109536	0	0	8237	582102	0	0
2024-06-25 23:05:32			0	37267	0	0	0	25766	24350	141594	26909	1021346	42815	109535	0	0	8238	581374	0	0
2024-06-25 23:06:32			0	37265	0	0	0	25758	24360	141546	26890	1021345	42838	109532	0	0	8238	581422	0	0
2024-06-25 23:07:32			0	37272	0	0	0	25766	24360	141578	26949	1021336	42838	109535	0	0	8239	581139	0	0
2024-06-25 23:08:32			0	37295	0	0	0	25768	24360	141566	27104	1021363	42838	109536	0	0	8240	580210	0	0
2024-06-25 23:09:32			0	37300	0	0	0	25766	24360	141598	27308	1021398	42861	109535	0	0	8240	580008	0	0
2024-06-25 23:10:32			0	37293	0	0	0	25766	24360	141398	26814	1021336	42828	109535	0	0	8240	580290	0	0
2024-06-25 23:11:32			0	37307	0	0	0	25758	24360	141426	26658	1021363	42828	109532	0	0	8241	579725	0	0
2024-06-25 23:12:32			0	37310	0	0	0	25766	24350	141470	27275	1021354	42837	109535	0	0	8241	579637	0	0
2024-06-25 23:13:32			0	37313	0	0	0	25763	24350	141398	27201	1021354	42837	109534	0	0	8241	579516	0	0
2024-06-25 23:14:32			0	37321	0	0	0	25750	24350	141483	26965	1021328	42837	109529	0	0	8241	579193	0	0
2024-06-25 23:15:32			0	37324	0	0	0	25758	24360	141359	27045	1021363	42828	109532	0	0	8242	579039	0	0
2024-06-25 23:16:32			0	37339	0	0	0	25753	24360	141387	27187	1021372	42838	109530	0	0	8242	578435	0	0
2024-06-25 23:17:32			0	37343	0	0	0	25753	24350	141403	27067	1021328	42837	109530	0	0	8243	578306	0	0
2024-06-25 23:18:32			0	37351	0	0	0	25753	24350	141375	26909	1021346	42826	109530	0	0	8243	577984	0	0
2024-06-25 23:19:32			0	37354	0	0	0	25748	24340	141355	27069	1021310	42836	109528	0	0	8243	577896	0	0
2024-06-25 23:20:32			0	37340	0	0	0	25745	24350	141423	27059	1021319	42826	109527	0	0	8243	578427	0	0
2024-06-25 23:21:32			0	37362	0	0	0	25753	24340	141419	27180	1021328	42826	109530	0	0	8244	577574	0	0
2024-06-25 23:22:32			0	37372	0	0	0	25748	24350	141311	27116	1021212	42836	109528	0	0	8244	577139	0	0
2024-06-25 23:23:32			0	37376	0	0	0	25745	24350	141375	27336	1021265	42836	109527	0	0	8244	576978	0	0
2024-06-25 23:24:32			0	37364	0	0	0	25748	24350	141299	26823	1021221	42837	109528	0	0	8244	577461	0	0
2024-06-25 23:25:32			0	37373	0	0	0	25745	24350	141267	27208	1021239	42826	109527	0	0	8244	577099	0	0
2024-06-25 23:26:32			0	37374	0	0	0	25740	24340	141303	27027	1021328	42826	109525	0	0	8244	577091	0	0
2024-06-25 23:27:32			0	37381	0	0	0	25735	24340	141383	27395	1021230	42836	109523	0	0	8245	576809	0	0
2024-06-25 23:28:32			0	37367	0	0	0	25742	24340	141283	26896	1021310	42826	109526	0	0	8244	577373	0	0
2024-06-25 23:29:32			0	37392	0	0	0	25753	24350	141291	27152	1021328	42827	109530	0	0	8245	576335	0	0
2024-06-25 23:30:32			0	37391	0	0	0	25753	24340	141235	27286	1021302	42836	109530	0	0	8245	576407	0	0
2024-06-25 23:31:32			0	37369	0	0	0	25740	24350	141335	26948	1021292	42836	109525	0	0	8244	577260	0	0
2024-06-25 23:32:32			0	37397	0	0	0	25740	24340	141203	27183	1021257	42826	109525	0	0	8246	576166	0	0
2024-06-25 23:33:32			0	37399	0	0	0	25727	24340	141147	26979	1021248	42836	109520	0	0	8246	576086	0	0
2024-06-25 23:34:32			0	37391	0	0	0	25735	24340	141163	27284	1021221	42836	109523	0	0	8245	576407	0	0
2024-06-25 23:35:32			0	37383	0	0	0	25735	24340	141155	27064	1021230	42836	109523	0	0	8245	576729	0	0
2024-06-25 23:36:32			0	37398	0	0	0	25732	24330	141123	27206	1021266	42825	109522	0	0	8246	576159	0	0
2024-06-25 23:37:32			0	37394	0	0	0	25735	24340	141151	27171	1021203	42826	109523	0	0	8245	576287	0	0
2024-06-25 23:38:32			0	37407	0	0	0	25735	24320	141227	27116	1021169	42824	109523	0	0	8246	575829	0	0
2024-06-25 23:39:32			0	37408	0	0	0	25732	24330	141227	27119	1021186	42847	109522	0	0	8246	575757	0	0
2024-06-25 23:40:32			0	37407	0	0	0	25724	24330	141183	26861	1021159	42836	109519	0	0	8246	575797	0	0
2024-06-25 23:41:32			0	37396	0	0	0	25724	24330	141123	27130	1021204	42835	109519	0	0	8246	576239	0	0
2024-06-25 23:42:32			0	37411	0	0	0	25724	24330	141095	27326	1021124	42824	109519	0	0	8247	575636	0	0
2024-06-25 23:43:32			0	37408	0	0	0	25719	24320	141135	27454	1021115	42824	109517	0	0	8246	575789	0	0
2024-06-25 23:44:32			0	37427	0	0	0	25711	24330	141095	27175	1021151	42824	109514	0	0	8248	574994	0	0
2024-06-25 23:45:32			0	37412	0	0	0	25716	24330	141091	27234	1021124	42824	109516	0	0	8247	575596	0	0
2024-06-25 23:46:32			0	37406	0	0	0	25714	24320	141059	27072	1021115	42835	109515	0	0	8246	575870	0	0
2024-06-25 23:47:32			0	37418	0	0	0	25703	24320	141119	27440	1021196	42824	109511	0	0	8247	575388	0	0
2024-06-25 23:48:32			0	37428	0	0	0	25716	24320	141147	27072	1021107	42824	109516	0	0	8247	574986	0	0
2024-06-25 23:49:32			0	37408	0	0	0	25709	24320	141179	27338	1021089	42824	109513	0	0	8247	575789	0	0
2024-06-25 23:50:32			0	37420	0	0	0	25706	24290	141143	27163	1021063	42810	109512	0	0	8247	575405	0	0
2024-06-25 23:51:32			0	37408	0	0	0	25703	24310	141199	27253	1021071	42834	109511	0	0	8247	575822	0	0
2024-06-25 23:52:32			0	37409	0	0	0	25703	24310	141179	27208	1021045	42834	109511	0	0	8247	575782	0	0
2024-06-25 23:53:32			0	37415	0	0	0	25701	24300	141051	27388	1021089	42833	109510	0	0	8247	575573	0	0
2024-06-25 23:54:32			0	37426	0	0	0	25706	24300	141099	27434	1021062	42822	109512	0	0	8247	575131	0	0
2024-06-25 23:55:32			0	37431	0	0	0	25698	24300	141031	27519	1021116	42822	109509	0	0	8248	574931	0	0
2024-06-25 23:56:32			0	37428	0	0	0	25696	24300	141059	27156	1021081	42843	109508	0	0	8248	575051	0	0
2024-06-25 23:57:32			0	37408	0	0	0	25698	24300	141135	27253	1021027	42843	109509	0	0	8247	575854	0	0
2024-06-25 23:58:32			0	37424	0	0	0	25703	24300	141087	27161	1021027	42810	109511	0	0	8247	575212	0	0
2024-06-25 23:59:32			0	37412	0	0	0	25688	24300	141167	27111	1021054	42833	109505	0	0	8247	575694	0	0
2024-06-26 00:00:32			0	37399	0	0	0	25688	24290	141207	26904	1021072	42843	109505	0	0	8246	576249	0	0
2024-06-26 00:01:32			0	37416	0	0	0	25698	24300	141139	27157	1021000	42822	109509	0	0	8247	575533	0	0
2024-06-26 00:02:32			0	37404	0	0	0	25688	24290	141115	27228	1021018	42833	109505	0	0	8247	576048	0	0
2024-06-26 00:03:32			0	37397	0	0	0	25683	24290	141147	27493	1021063	42822	109503	0	0	8246	576329	0	0
2024-06-26 00:04:32			0	37404	0	0	0	25690	24290	141243	26994	1021045	42810	109506	0	0	8247	576048	0	0
2024-06-26 00:05:32			0	37407	0	0	0	25693	24280	141275	27260	1020966	42831	109507	0	0	8247	575959	0	0
2024-06-26 00:06:32			0	37411	0	0	0	25698	24290	141175	27072	1021072	42833	109509	0	0	8247	575766	0	0
2024-06-26 00:07:32			0	37382	0	0	0	25680	24280	141255	27208	1021054	42832	109502	0	0	8246	576965	0	0
2024-06-26 00:08:32			0	37382	0	0	0	25693	24290	141263	27126	1020991	42843	109507	0	0	8245	576932	0	0
2024-06-26 00:09:32			0	37380	0	0	0	25688	24300	141187	27417	1021054	42833	109505	0	0	8245	576980	0	0
2024-06-26 00:10:32			0	37380	0	0	0	25690	24290	141219	27076	1020965	42822	109506	0	0	8245	577013	0	0
2024-06-26 00:11:32			0	37380	0	0	0	25683	24280	141275	27268	1021001	42821	109503	0	0	8245	577045	0	0
2024-06-26 00:12:32			0	37379	0	0	0	25688	24290	141259	27100	1021072	42822	109505	0	0	8245	577053	0	0
2024-06-26 00:13:32			0	37375	0	0	0	25698	24300	141311	27242	1021000	42822	109509	0	0	8245	577181	0	0
2024-06-26 00:14:32			0	37366	0	0	0	25688	24280	141311	27438	1021028	42821	109505	0	0	8245	577609	0	0
2024-06-26 00:15:32			0	37368	0	0	0	25693	24290	141339	27289	1021010	42843	109507	0	0	8245	577495	0	0
2024-06-26 00:16:32			0	37360	0	0	0	25693	24290	141371	27327	1021018	42833	109507	0	0	8244	577818	0	0
2024-06-26 00:17:32			0	37350	0	0	0	25685	24270	141339	27334	1020984	42831	109504	0	0	8244	578286	0	0
2024-06-26 00:18:32			0	37362	0	0	0	25685	24290	141427	27267	1021018	42822	109504	0	0	8244	577737	0	0
2024-06-26 00:19:32			0	37337	0	0	0	25698	24290	141407	27376	1021036	42843	109509	0	0	8243	578744	0	0
2024-06-26 00:20:32			0	37327	0	0	0	25690	24280	141383	27156	1020992	42841	109506	0	0	8243	579180	0	0
2024-06-26 00:21:32			0	37343	0	0	0	25680	24290	141467	27183	1020983	42833	109502	0	0	8244	578503	0	0
2024-06-26 00:22:32			0	37330	0	0	0	25688	24280	141503	27185	1020966	42831	109505	0	0	8243	579059	0	0
2024-06-26 00:23:32			0	37339	0	0	0	25693	24260	141531	27441	1020940	42830	109507	0	0	8243	578762	0	0
2024-06-26 00:24:32			0	37311	0	0	0	25688	24280	141474	27067	1020992	42841	109505	0	0	8242	579826	0	0
2024-06-26 00:25:32			0	37334	0	0	0	25685	24280	141547	27234	1020966	42841	109504	0	0	8243	578898	0	0
2024-06-26 00:26:32			0	37304	0	0	0	25685	24290	141542	27296	1020983	42833	109504	0	0	8241	580075	0	0
2024-06-26 00:27:32			0	37299	0	0	0	25688	24260	141474	27237	1020940	42830	109505	0	0	8241	580376	0	0
2024-06-26 00:28:32			0	37295	0	0	0	25690	24280	141494	27166	1021001	42832	109506	0	0	8241	580472	0	0
2024-06-26 00:29:32			0	37316	0	0	0	25680	24280	141546	27348	1020974	42821	109502	0	0	8242	579624	0	0
2024-06-26 00:30:32			0	37325	0	0	0	25677	24280	141539	27145	1021019	42841	109501	0	0	8243	579261	0	0
2024-06-26 00:31:32			0	37294	0	0	0	25688	24280	141442	27308	1020992	42820	109505	0	0	8241	580512	0	0
2024-06-26 00:32:32			0	37300	0	0	0	25683	24270	141506	27225	1020948	42820	109503	0	0	8241	580303	0	0
2024-06-26 00:33:32			0	37307	0	0	0	25683	24280	141634	27005	1020947	42821	109503	0	0	8242	579987	0	0
2024-06-26 00:34:32			0	37297	0	0	0	25690	24270	141550	27157	1020957	42831	109506	0	0	8241	580424	0	0
2024-06-26 00:35:32			0	37303	0	0	0	25680	24280	141614	27535	1020966	42820	109502	0	0	8241	580149	0	0
2024-06-26 00:36:32			0	37293	0	0	0	25672	24270	141618	27201	1020957	42808	109499	0	0	8241	580585	0	0
2024-06-26 00:37:32			0	37294	0	0	0	25677	24280	141622	27142	1020939	42831	109501	0	0	8241	580512	0	0
2024-06-26 00:38:32			0	37302	0	0	0	25677	24280	141670	27419	1020974	42832	109501	0	0	8241	580189	0	0
2024-06-26 00:39:32			0	37292	0	0	0	25672	24260	141626	27602	1020940	42830	109499	0	0	8241	580659	0	0
2024-06-26 00:40:32			0	37269	0	0	0	25680	24270	141598	27383	1020975	42820	109502	0	0	8240	581555	0	0
2024-06-26 00:41:32			0	37298	0	0	0	25675	24280	141602	27284	1020992	42820	109500	0	0	8241	580351	0	0
2024-06-26 00:42:32			0	37305	0	0	0	25680	24280	141610	27338	1020992	42831	109502	0	0	8242	580068	0	0
2024-06-26 00:43:32			0	37303	0	0	0	25680	24260	141610	27261	1020904	42829	109502	0	0	8241	580214	0	0
2024-06-26 00:44:32			0	37302	0	0	0	25680	24250	141626	27097	1020834	42829	109502	0	0	8241	580287	0	0
2024-06-26 00:45:32			0	37298	0	0	0	25675	24250	141642	27346	1020949	42839	109500	0	0	8241	580449	0	0
2024-06-26 00:46:32			0	37293	0	0	0	25672	24250	141646	26824	1020949	42839	109499	0	0	8241	580651	0	0
2024-06-26 00:47:32			0	37304	0	0	0	25672	24260	141586	27175	1020993	42840	109499	0	0	8242	580174	0	0
2024-06-26 00:48:32			0	37295	0	0	0	25667	24250	141594	27414	1020922	42829	109497	0	0	8241	580570	0	0
2024-06-26 00:49:32			0	37290	0	0	0	25675	24260	141614	27504	1020904	42829	109500	0	0	8241	580739	0	0
2024-06-26 00:50:32			0	37293	0	0	0	25680	24260	141614	27237	1020904	42829	109502	0	0	8241	580618	0	0
2024-06-26 00:51:32			0	37302	0	0	0	25670	24250	141642	27281	1020860	42829	109498	0	0	8241	580287	0	0
2024-06-26 00:52:32			0	37293	0	0	0	25672	24260	141594	27137	1020931	42807	109499	0	0	8241	580618	0	0
2024-06-26 00:53:32			0	37313	0	0	0	25664	24260	141578	27067	1020904	42829	109496	0	0	8242	579810	0	0
2024-06-26 00:54:32			0	37300	0	0	0	25667	24250	141614	26920	1020807	42807	109497	0	0	8241	580368	0	0
2024-06-26 00:55:32			0	37316	0	0	0	25667	24250	141602	27128	1020887	42839	109497	0	0	8242	579722	0	0
2024-06-26 00:56:32			0	37296	0	0	0	25670	24260	141582	27034	1020851	42829	109498	0	0	8241	580497	0	0
2024-06-26 00:57:32			0	37277	0	0	0	25659	24240	141582	27133	1020852	42806	109494	0	0	8240	581330	0	0
2024-06-26 00:58:32			0	37311	0	0	0	25670	24250	141550	27180	1020869	42829	109498	0	0	8242	579924	0	0
2024-06-26 00:59:32			0	37308	0	0	0	25659	24250	141614	26981	1020869	42829	109494	0	0	8242	580045	0	0
2024-06-26 01:00:32			0	37293	0	0	0	25657	24250	141590	26944	1020807	42829	109493	0	0	8241	580651	0	0
2024-06-26 01:01:32			0	37305	0	0	0	25659	24250	141722	27272	1020842	42839	109494	0	0	8242	580166	0	0
2024-06-26 01:02:32			0	37334	0	0	0	25662	24240	141707	27131	1020870	42838	109495	0	0	8243	579029	0	0
2024-06-26 01:03:32			0	37302	0	0	0	25659	24240	141634	27300	1020825	42828	109494	0	0	8242	580320	0	0
2024-06-26 01:04:32			0	37298	0	0	0	25657	24230	141750	27170	1020834	42827	109493	0	0	8241	580514	0	0
2024-06-26 01:05:32			0	37313	0	0	0	25662	24240	141602	27190	1020870	42827	109495	0	0	8242	579876	0	0
2024-06-26 01:06:32			0	37312	0	0	0	25644	24240	141606	27235	1020816	42827	109488	0	0	8242	579916	0	0
2024-06-26 01:07:32			0	37315	0	0	0	25662	24240	141471	27244	1020825	42817	109495	0	0	8242	579795	0	0
2024-06-26 01:08:32			0	37308	0	0	0	25657	24240	141534	27708	1020852	42828	109493	0	0	8242	580078	0	0
2024-06-26 01:09:32			0	37305	0	0	0	25649	24240	141530	27235	1020825	42839	109490	0	0	8242	580199	0	0
2024-06-26 01:10:32			0	37315	0	0	0	25654	24240	141630	26861	1020878	42828	109492	0	0	8242	579795	0	0
2024-06-26 01:11:32			0	37325	0	0	0	25651	24250	141599	26932	1020887	42829	109491	0	0	8243	579359	0	0
2024-06-26 01:12:32			0	37325	0	0	0	25654	24240	141551	27315	1020843	42816	109492	0	0	8243	579392	0	0
2024-06-26 01:13:32			0	37328	0	0	0	25649	24250	141543	27022	1020834	42829	109490	0	0	8243	579238	0	0
2024-06-26 01:14:32			0	37319	0	0	0	25646	24240	141639	27086	1020790	42827	109489	0	0	8243	579634	0	0
2024-06-26 01:15:32			0	37341	0	0	0	25649	24230	141527	27145	1020808	42816	109490	0	0	8244	578779	0	0
2024-06-26 01:16:32			0	37329	0	0	0	25644	24230	141511	27202	1020808	42827	109488	0	0	8243	579263	0	0
2024-06-26 01:17:32			0	37342	0	0	0	25638	24240	141495	27274	1020816	42827	109486	0	0	8244	578706	0	0
2024-06-26 01:18:32			0	37333	0	0	0	25638	24230	141439	27289	1020799	42826	109486	0	0	8243	579102	0	0
2024-06-26 01:19:32			0	37369	0	0	0	25636	24220	141475	27230	1020764	42837	109485	0	0	8245	577684	0	0
2024-06-26 01:20:32			0	37356	0	0	0	25641	24230	141419	26989	1020834	42827	109487	0	0	8245	578175	0	0
2024-06-26 01:21:32			0	37345	0	0	0	25641	24230	141511	27462	1020772	42815	109487	0	0	8244	578618	0	0
2024-06-26 01:22:32			0	37341	0	0	0	25641	24220	141511	26922	1020790	42826	109487	0	0	8244	578812	0	0
2024-06-26 01:23:32			0	37356	0	0	0	25644	24220	141483	27175	1020790	42826	109488	0	0	8245	578207	0	0
2024-06-26 01:24:32			0	37369	0	0	0	25636	24220	141447	27364	1020817	42837	109485	0	0	8245	577684	0	0
2024-06-26 01:25:32			0	37362	0	0	0	25633	24230	141383	26909	1020746	42826	109484	0	0	8245	577933	0	0
2024-06-26 01:26:32			0	37362	0	0	0	25631	24220	141479	27265	1020790	42815	109483	0	0	8245	577965	0	0
2024-06-26 01:27:32			0	37385	0	0	0	25625	24210	141427	27251	1020773	42813	109481	0	0	8246	577072	0	0
2024-06-26 01:28:32			0	37375	0	0	0	25628	24220	141403	27300	1020702	42803	109482	0	0	8246	577442	0	0
2024-06-26 01:29:32			0	37356	0	0	0	25631	24220	141423	27019	1020737	42826	109483	0	0	8245	578207	0	0
2024-06-26 01:30:32			0	37365	0	0	0	25620	24220	141543	27163	1020675	42825	109479	0	0	8245	577844	0	0
2024-06-26 01:31:32			0	37386	0	0	0	25623	24210	141395	27360	1020720	42825	109480	0	0	8246	577032	0	0
2024-06-26 01:32:32			0	37389	0	0	0	25618	24220	141407	27241	1020702	42825	109478	0	0	8247	576878	0	0
2024-06-26 01:33:32			0	37384	0	0	0	25620	24210	141411	26904	1020693	42813	109479	0	0	8246	577112	0	0
2024-06-26 01:34:32			0	37378	0	0	0	25623	24200	141375	27131	1020729	42825	109480	0	0	8246	577386	0	0
2024-06-26 01:35:32			0	37412	0	0	0	25620	24210	141323	27112	1020738	42825	109479	0	0	8248	575986	0	0
2024-06-26 01:36:32			0	37403	0	0	0	25623	24210	141347	27152	1020738	42813	109480	0	0	8247	576348	0	0
2024-06-26 01:37:32			0	37383	0	0	0	25623	24210	141331	27185	1020684	42813	109480	0	0	8246	577153	0	0
2024-06-26 01:38:32			0	37400	0	0	0	25623	24210	141251	27327	1020684	42825	109480	0	0	8247	576469	0	0
2024-06-26 01:39:32			0	37412	0	0	0	25615	24200	141251	27107	1020747	42824	109477	0	0	8248	576019	0	0
2024-06-26 01:40:32			0	37398	0	0	0	25612	24210	141295	26939	1020684	42813	109476	0	0	8247	576549	0	0
2024-06-26 01:41:32			0	37414	0	0	0	25618	24210	141175	26937	1020738	42813	109478	0	0	8248	575906	0	0
2024-06-26 01:42:32			0	37430	0	0	0	25620	24200	141195	27102	1020649	42835	109479	0	0	8249	575295	0	0
2024-06-26 01:43:32			0	37426	0	0	0	25618	24200	141183	26908	1020703	42825	109478	0	0	8249	575456	0	0
2024-06-26 01:44:32			0	37418	0	0	0	25623	24200	141179	26961	1020694	42834	109480	0	0	8248	575778	0	0
2024-06-26 01:45:32			0	37434	0	0	0	25615	24190	141231	27000	1020632	42833	109477	0	0	8249	575167	0	0
2024-06-26 01:46:32			0	37427	0	0	0	25615	24200	141227	27421	1020649	42825	109477	0	0	8249	575416	0	0
2024-06-26 01:47:32			0	37444	0	0	0	25612	24200	141075	26887	1020667	42824	109476	0	0	8250	574733	0	0
2024-06-26 01:48:32			0	37440	0	0	0	25607	24200	141011	26811	1020694	42824	109474	0	0	8249	574894	0	0
2024-06-26 01:49:32			0	37452	0	0	0	25597	24190	141043	27105	1020632	42823	109470	0	0	8250	574445	0	0
2024-06-26 01:50:32			0	37443	0	0	0	25605	24210	141043	26731	1020604	42835	109473	0	0	8250	574741	0	0
2024-06-26 01:51:32			0	37472	0	0	0	25605	24190	141003	27138	1020578	42833	109473	0	0	8251	573643	0	0
2024-06-26 01:52:32			0	37466	0	0	0	25602	24200	140947	27076	1020560	42824	109472	0	0	8251	573851	0	0
2024-06-26 01:53:32			0	37463	0	0	0	25599	24200	140983	27409	1020622	42813	109471	0	0	8251	573971	0	0
2024-06-26 01:54:32			0	37481	0	0	0	25607	24200	140935	27284	1020587	42834	109474	0	0	8252	573250	0	0
2024-06-26 01:55:32			0	37477	0	0	0	25605	24200	141003	27265	1020640	42824	109473	0	0	8251	573410	0	0
2024-06-26 01:56:32			0	37486	0	0	0	25602	24190	140979	27270	1020632	42823	109472	0	0	8252	573082	0	0
2024-06-26 01:57:32			0	37497	0	0	0	25615	24190	140947	27022	1020605	42823	109477	0	0	8252	572641	0	0
2024-06-26 01:58:32			0	37495	0	0	0	25602	24200	140903	27180	1020676	42825	109472	0	0	8252	572689	0	0
2024-06-26 01:59:32			0	37507	0	0	0	25610	24200	140939	27130	1020694	42824	109475	0	0	8253	572209	0	0
2024-06-26 02:00:32			0	37514	0	0	0	25605	24190	140919	26715	1020623	42823	109473	0	0	8253	571961	0	0
2024-06-26 02:01:32			0	37518	0	0	0	25610	24190	140819	27301	1020650	42811	109475	0	0	8253	571801	0	0
2024-06-26 02:02:32			0	37503	0	0	0	25610	24200	140835	27111	1020640	42824	109475	0	0	8253	572369	0	0
2024-06-26 02:03:32			0	37531	0	0	0	25605	24200	140819	27066	1020667	42824	109473	0	0	8254	571249	0	0
2024-06-26 02:04:32			0	37512	0	0	0	25612	24200	140827	27246	1020667	42834	109476	0	0	8253	572008	0	0
2024-06-26 02:05:32			0	37516	0	0	0	25610	24200	140915	27072	1020649	42825	109475	0	0	8253	571848	0	0
2024-06-26 02:06:32			0	37519	0	0	0	25620	24190	140847	26812	1020632	42823	109479	0	0	8253	571761	0	0
2024-06-26 02:07:32			0	37526	0	0	0	25612	24180	140851	27376	1020588	42823	109476	0	0	8254	571513	0	0
2024-06-26 02:08:32			0	37517	0	0	0	25615	24200	140891	27319	1020640	42824	109477	0	0	8253	571808	0	0
2024-06-26 02:09:32			0	37489	0	0	0	25607	24200	140863	27230	1020614	42824	109474	0	0	8252	572929	0	0
2024-06-26 02:10:32			0	37505	0	0	0	25605	24190	140931	27329	1020623	42833	109473	0	0	8253	572321	0	0
2024-06-26 02:11:32			0	37519	0	0	0	25599	24190	140907	27190	1020596	42823	109471	0	0	8254	571761	0	0
2024-06-26 02:12:32			0	37522	0	0	0	25605	24190	140767	27241	1020570	42823	109473	0	0	8254	571641	0	0
2024-06-26 02:13:32			0	37514	0	0	0	25610	24190	140863	27268	1020596	42823	109475	0	0	8253	571961	0	0
2024-06-26 02:14:32			0	37532	0	0	0	25599	24180	140839	26984	1020561	42823	109471	0	0	8254	571273	0	0
2024-06-26 02:15:32			0	37519	0	0	0	25602	24190	140839	27015	1020596	42833	109472	0	0	8254	571761	0	0
2024-06-26 02:16:32			0	37531	0	0	0	25594	24190	140835	27105	1020596	42823	109469	0	0	8254	571281	0	0
2024-06-26 02:17:32			0	37527	0	0	0	25589	24180	140855	27034	1020561	42823	109467	0	0	8254	571473	0	0
2024-06-26 02:18:32			0	37537	0	0	0	25594	24180	140759	26909	1020552	42822	109469	0	0	8255	571073	0	0
2024-06-26 02:19:32			0	37524	0	0	0	25602	24180	140695	26961	1020588	42833	109472	0	0	8254	571593	0	0
2024-06-26 02:20:32			0	37553	0	0	0	25599	24190	140759	26906	1020570	42823	109471	0	0	8255	570402	0	0
2024-06-26 02:21:32			0	37533	0	0	0	25599	24180	140707	27235	1020534	42833	109471	0	0	8254	571233	0	0
2024-06-26 02:22:32			0	37539	0	0	0	25599	24180	140743	27360	1020561	42811	109471	0	0	8255	570993	0	0
2024-06-26 02:23:32			0	37544	0	0	0	25594	24180	140691	27306	1020588	42823	109469	0	0	8255	570794	0	0
2024-06-26 02:24:32			0	37545	0	0	0	25592	24170	140799	27452	1020544	42821	109468	0	0	8255	570786	0	0
2024-06-26 02:25:32			0	37525	0	0	0	25584	24180	140691	27171	1020552	42822	109465	0	0	8254	571553	0	0
2024-06-26 02:26:32			0	37526	0	0	0	25597	24190	140707	27109	1020623	42811	109470	0	0	8254	571481	0	0
2024-06-26 02:27:32			0	37535	0	0	0	25586	24170	140767	26755	1020544	42821	109466	0	0	8255	571185	0	0
2024-06-26 02:28:32			0	37543	0	0	0	25589	24170	140695	26967	1020544	42832	109467	0	0	8255	570866	0	0
2024-06-26 02:29:32			0	37532	0	0	0	25584	24180	140731	27225	1020499	42822	109465	0	0	8255	571273	0	0
2024-06-26 02:30:32			0	37538	0	0	0	25579	24170	140739	27258	1020544	42832	109463	0	0	8255	571066	0	0
2024-06-26 02:31:32			0	37536	0	0	0	25586	24170	140779	27090	1020544	42821	109466	0	0	8255	571145	0	0
2024-06-26 02:32:32			0	37539	0	0	0	25581	24170	140795	27235	1020535	42810	109464	0	0	8255	571025	0	0
2024-06-26 02:33:32			0	37528	0	0	0	25586	24180	140803	27248	1020579	42833	109466	0	0	8254	571433	0	0
2024-06-26 02:34:32			0	37551	0	0	0	25579	24170	140699	27118	1020508	42832	109463	0	0	8256	570546	0	0
2024-06-26 02:35:32			0	37539	0	0	0	25592	24170	140727	27206	1020535	42821	109468	0	0	8255	571025	0	0
2024-06-26 02:36:32			0	37543	0	0	0	25584	24170	140775	27086	1020544	42821	109465	0	0	8255	570866	0	0
2024-06-26 02:37:32			0	37524	0	0	0	25579	24170	140807	27441	1020508	42832	109463	0	0	8254	571625	0	0
2024-06-26 02:38:32			0	37544	0	0	0	25581	24170	140739	27322	1020508	42832	109464	0	0	8255	570826	0	0
2024-06-26 02:39:32			0	37554	0	0	0	25586	24170	140767	27199	1020517	42821	109466	0	0	8256	570426	0	0
2024-06-26 02:40:32			0	37552	0	0	0	25579	24160	140703	27388	1020473	42820	109463	0	0	8256	570538	0	0
2024-06-26 02:41:32			0	37524	0	0	0	25579	24170	140823	27234	1020463	42821	109463	0	0	8254	571625	0	0
2024-06-26 02:42:32			0	37545	0	0	0	25581	24160	140691	27303	1020473	42820	109464	0	0	8255	570818	0	0
2024-06-26 02:43:32			0	37541	0	0	0	25581	24170	140783	27100	1020481	42821	109464	0	0	8255	570945	0	0
2024-06-26 02:44:32			0	37529	0	0	0	25579	24160	140823	26996	1020500	42809	109463	0	0	8254	571458	0	0
2024-06-26 02:45:32			0	37546	0	0	0	25561	24150	140739	26944	1020429	42830	109456	0	0	8256	570810	0	0
2024-06-26 02:46:32			0	37536	0	0	0	25571	24170	140715	27464	1020508	42832	109460	0	0	8255	571145	0	0
2024-06-26 02:47:32			0	37533	0	0	0	25579	24160	140735	27098	1020473	42820	109463	0	0	8255	571298	0	0
2024-06-26 02:48:32			0	37528	0	0	0	25571	24150	140791	26918	1020482	42819	109460	0	0	8254	571530	0	0
2024-06-26 02:49:32			0	37545	0	0	0	25573	24160	140783	27329	1020518	42809	109461	0	0	8255	570818	0	0
2024-06-26 02:50:32			0	37550	0	0	0	25573	24150	140803	27462	1020456	42808	109461	0	0	8256	570650	0	0
2024-06-26 02:51:32			0	37530	0	0	0	25568	24160	140739	27124	1020491	42831	109459	0	0	8255	571418	0	0
2024-06-26 02:52:32			0	37534	0	0	0	25573	24160	140739	27474	1020500	42831	109461	0	0	8255	571258	0	0
2024-06-26 02:53:32			0	37533	0	0	0	25576	24160	140759	27135	1020544	42842	109462	0	0	8255	571298	0	0
2024-06-26 02:54:32			0	37529	0	0	0	25571	24160	140803	27419	1020518	42820	109460	0	0	8255	571458	0	0
2024-06-26 02:55:32			0	37519	0	0	0	25566	24170	140819	27474	1020508	42821	109458	0	0	8254	571825	0	0
2024-06-26 02:56:32			0	37540	0	0	0	25576	24150	140783	27383	1020456	42819	109462	0	0	8255	571050	0	0
2024-06-26 02:57:32			0	37534	0	0	0	25568	24170	140747	27284	1020481	42842	109459	0	0	8255	571225	0	0
2024-06-26 02:58:32			0	37528	0	0	0	25571	24160	140703	26994	1020491	42809	109460	0	0	8254	571498	0	0
2024-06-26 02:59:32			0	37534	0	0	0	25573	24150	140855	26882	1020482	42819	109461	0	0	8255	571290	0	0
2024-06-26 03:00:32			0	37532	0	0	0	25566	24150	140759	27374	1020456	42819	109458	0	0	8255	571370	0	0
2024-06-26 03:01:32			0	37544	0	0	0	25563	24160	140759	27204	1020491	42831	109457	0	0	8255	570858	0	0
2024-06-26 03:02:32			0	37528	0	0	0	25568	24150	140743	27303	1020482	42819	109459	0	0	8254	571530	0	0
2024-06-26 03:03:32			0	37524	0	0	0	25571	24160	140791	26850	1020464	42809	109460	0	0	8254	571658	0	0
2024-06-26 03:04:32			0	37521	0	0	0	25566	24160	140791	27012	1020464	42820	109458	0	0	8254	571777	0	0
2024-06-26 03:05:32			0	37538	0	0	0	25568	24160	140699	27260	1020446	42820	109459	0	0	8255	571098	0	0
2024-06-26 03:06:32			0	37534	0	0	0	25571	24170	140759	27128	1020508	42832	109460	0	0	8255	571225	0	0
2024-06-26 03:07:32			0	37532	0	0	0	25568	24160	140703	27275	1020437	42809	109459	0	0	8255	571337	0	0
2024-06-26 03:08:32			0	37525	0	0	0	25568	24150	140855	27225	1020456	42808	109459	0	0	8254	571650	0	0
2024-06-26 03:09:32			0	37520	0	0	0	25563	24160	140811	27251	1020446	42820	109457	0	0	8254	571817	0	0
2024-06-26 03:10:32			0	37524	0	0	0	25561	24150	140771	27178	1020375	42830	109456	0	0	8254	571690	0	0
2024-06-26 03:11:32			0	37548	0	0	0	25563	24150	140863	27071	1020456	42819	109457	0	0	8256	570730	0	0
2024-06-26 03:12:32			0	37558	0	0	0	25558	24150	140767	26979	1020447	42819	109455	0	0	8256	570331	0	0
2024-06-26 03:13:32			0	37554	0	0	0	25561	24150	140747	27215	1020420	42819	109456	0	0	8256	570491	0	0
2024-06-26 03:14:32			0	37539	0	0	0	25563	24140	140823	26961	1020430	42818	109457	0	0	8255	571122	0	0
2024-06-26 03:15:32			0	37558	0	0	0	25558	24140	140715	27072	1020412	42829	109455	0	0	8256	570363	0	0
2024-06-26 03:16:32			0	37534	0	0	0	25555	24140	140719	27079	1020438	42818	109454	0	0	8255	571322	0	0
2024-06-26 03:17:32			0	37534	0	0	0	25555	24150	140823	27098	1020402	42819	109454	0	0	8255	571290	0	0
2024-06-26 03:18:32			0	37561	0	0	0	25561	24140	140695	27192	1020438	42807	109456	0	0	8256	570243	0	0
2024-06-26 03:19:32			0	37536	0	0	0	25555	24140	140751	27173	1020465	42829	109454	0	0	8255	571242	0	0
2024-06-26 03:20:32			0	37564	0	0	0	25558	24150	140679	27417	1020447	42819	109455	0	0	8257	570091	0	0
2024-06-26 03:21:32			0	37544	0	0	0	25561	24140	140779	27410	1020465	42829	109456	0	0	8255	570922	0	0
2024-06-26 03:22:32			0	37531	0	0	0	25555	24140	140807	27322	1020438	42818	109454	0	0	8255	571442	0	0
2024-06-26 03:23:32			0	37529	0	0	0	25558	24130	140775	27256	1020421	42806	109455	0	0	8255	571554	0	0
2024-06-26 03:24:32			0	37543	0	0	0	25550	24130	140823	27313	1020368	42817	109452	0	0	8255	570994	0	0
2024-06-26 03:25:32			0	37543	0	0	0	25553	24140	140707	27284	1020412	42818	109453	0	0	8255	570962	0	0
2024-06-26 03:26:32			0	37548	0	0	0	25550	24150	140703	27270	1020420	42819	109452	0	0	8256	570730	0	0
2024-06-26 03:27:32			0	37541	0	0	0	25555	24140	140727	27071	1020412	42829	109454	0	0	8255	571042	0	0
2024-06-26 03:28:32			0	37557	0	0	0	25558	24140	140767	27142	1020403	42818	109455	0	0	8256	570403	0	0
2024-06-26 03:29:32			0	37545	0	0	0	25548	24150	140775	27256	1020447	42830	109451	0	0	8256	570850	0	0
2024-06-26 03:30:32			0	37553	0	0	0	25548	24130	140727	27452	1020421	42828	109451	0	0	8256	570595	0	0
2024-06-26 03:31:32			0	37556	0	0	0	25545	24150	140731	27307	1020420	42819	109450	0	0	8256	570411	0	0
2024-06-26 03:32:32			0	37547	0	0	0	25553	24130	140775	27152	1020448	42817	109453	0	0	8256	570835	0	0
2024-06-26 03:33:32			0	37547	0	0	0	25550	24130	140759	27452	1020368	42839	109452	0	0	8256	570835	0	0
2024-06-26 03:34:32			0	37566	0	0	0	25545	24140	140731	27407	1020412	42807	109450	0	0	8257	570043	0	0
2024-06-26 03:35:32			0	37557	0	0	0	25542	24140	140763	26817	1020430	42818	109449	0	0	8256	570403	0	0
2024-06-26 03:36:32			0	37549	0	0	0	25542	24140	140651	27464	1020412	42829	109449	0	0	8256	570722	0	0
2024-06-26 03:37:32			0	37551	0	0	0	25545	24140	140643	27145	1020438	42829	109450	0	0	8256	570643	0	0
2024-06-26 03:38:32			0	37550	0	0	0	25535	24140	140699	27244	1020403	42818	109446	0	0	8256	570683	0	0
2024-06-26 03:39:32			0	37555	0	0	0	25537	24140	140815	27232	1020376	42829	109447	0	0	8256	570483	0	0
2024-06-26 03:40:32			0	37551	0	0	0	25550	24140	140731	27298	1020358	42818	109452	0	0	8256	570643	0	0
2024-06-26 03:41:32			0	37539	0	0	0	25542	24140	140723	27123	1020376	42840	109449	0	0	8255	571122	0	0
2024-06-26 03:42:32			0	37538	0	0	0	25540	24140	140771	27272	1020385	42818	109448	0	0	8255	571162	0	0
2024-06-26 03:43:32			0	37529	0	0	0	25542	24130	140767	27137	1020359	42816	109449	0	0	8255	571554	0	0
2024-06-26 03:44:32			0	37573	0	0	0	25542	24130	140723	26731	1020359	42805	109449	0	0	8257	569796	0	0
2024-06-26 03:45:32			0	37561	0	0	0	25542	24130	140687	27126	1020359	42816	109449	0	0	8257	570275	0	0
2024-06-26 03:46:32			0	37549	0	0	0	25540	24140	140683	27213	1020403	42818	109448	0	0	8256	570722	0	0
2024-06-26 03:47:32			0	37539	0	0	0	25540	24120	140759	27234	1020342	42816	109448	0	0	8255	571187	0	0
2024-06-26 03:48:32			0	37542	0	0	0	25540	24120	140807	27281	1020350	42816	109448	0	0	8256	571067	0	0
2024-06-26 03:49:32			0	37538	0	0	0	25535	24120	140791	27436	1020369	42805	109446	0	0	8255	571227	0	0
2024-06-26 03:50:32			0	37554	0	0	0	25540	24120	140799	27196	1020377	42805	109448	0	0	8256	570587	0	0
2024-06-26 03:51:32			0	37545	0	0	0	25540	24120	140783	27234	1020315	42816	109448	0	0	8256	570947	0	0
2024-06-26 03:52:32			0	37546	0	0	0	25540	24120	140879	27083	1020315	42816	109448	0	0	8256	570907	0	0
2024-06-26 03:53:32			0	37535	0	0	0	25535	24110	140871	27052	1020280	42827	109446	0	0	8255	571379	0	0
2024-06-26 03:54:32			0	37535	0	0	0	25535	24110	140819	27324	1020298	42826	109446	0	0	8255	571379	0	0
2024-06-26 03:55:32			0	37528	0	0	0	25529	24120	140939	27055	1020377	42805	109444	0	0	8255	571627	0	0
2024-06-26 03:56:32			0	37555	0	0	0	25540	24110	140875	26961	1020360	42827	109448	0	0	8256	570579	0	0
2024-06-26 03:57:32			0	37527	0	0	0	25524	24120	140923	27164	1020369	42816	109442	0	0	8255	571666	0	0
2024-06-26 03:58:32			0	37527	0	0	0	25529	24120	140839	27121	1020315	42816	109444	0	0	8255	571666	0	0
2024-06-26 03:59:32			0	37557	0	0	0	25529	24120	140911	27190	1020377	42816	109444	0	0	8257	570467	0	0
2024-06-26 04:00:32			0	37553	0	0	0	25524	24110	140823	27066	1020280	42827	109442	0	0	8256	570659	0	0
2024-06-26 04:01:32			0	37538	0	0	0	25529	24120	140879	27100	1020342	42828	109444	0	0	8256	571227	0	0
2024-06-26 04:02:32			0	37550	0	0	0	25516	24110	140931	26774	1020280	42827	109439	0	0	8256	570779	0	0
2024-06-26 04:03:32			0	37541	0	0	0	25529	24110	140915	27111	1020333	42804	109444	0	0	8256	571139	0	0
2024-06-26 04:04:32			0	37530	0	0	0	25524	24100	140895	27239	1020343	42814	109442	0	0	8255	571611	0	0
2024-06-26 04:05:32			0	37544	0	0	0	25524	24110	140919	27241	1020325	42826	109442	0	0	8256	571019	0	0
2024-06-26 04:06:32			0	37541	0	0	0	25527	24120	140975	27138	1020342	42816	109443	0	0	8256	571107	0	0
2024-06-26 04:07:32			0	37534	0	0	0	25527	24100	140811	27124	1020263	42826	109443	0	0	8255	571451	0	0
2024-06-26 04:08:32			0	37521	0	0	0	25527	24120	140931	27241	1020315	42816	109443	0	0	8255	571907	0	0
2024-06-26 04:09:32			0	37528	0	0	0	25519	24110	140927	27149	1020325	42814	109440	0	0	8255	571659	0	0
2024-06-26 04:10:32			0	37537	0	0	0	25514	24110	140947	27012	1020271	42826	109438	0	0	8256	571299	0	0
2024-06-26 04:11:32			0	37539	0	0	0	25511	24120	140875	27312	1020315	42816	109437	0	0	8256	571187	0	0
2024-06-26 04:12:32			0	37556	0	0	0	25524	24100	140887	27064	1020236	42826	109442	0	0	8256	570572	0	0
2024-06-26 04:13:32			0	37534	0	0	0	25514	24090	140851	27319	1020237	42824	109438	0	0	8255	571483	0	0
2024-06-26 04:14:32			0	37525	0	0	0	25509	24100	140935	27163	1020263	42792	109436	0	0	8255	571811	0	0
2024-06-26 04:15:32			0	37526	0	0	0	25516	24110	140923	27244	1020271	42826	109439	0	0	8255	571739	0	0
2024-06-26 04:16:32			0	37534	0	0	0	25514	24110	140891	26979	1020244	42814	109438	0	0	8256	571419	0	0
2024-06-26 04:17:32			0	37538	0	0	0	25516	24100	140867	26894	1020263	42814	109439	0	0	8256	571291	0	0
2024-06-26 04:18:32			0	37534	0	0	0	25519	24100	140947	27332	1020236	42826	109440	0	0	8255	571451	0	0
2024-06-26 04:19:32			0	37520	0	0	0	25514	24090	140863	27261	1020210	42812	109438	0	0	8255	572043	0	0
2024-06-26 04:20:32			0	37535	0	0	0	25516	24090	140907	27098	1020219	42813	109439	0	0	8255	571443	0	0
2024-06-26 04:21:32			0	37527	0	0	0	25496	24110	140883	27100	1020191	42826	109431	0	0	8255	571699	0	0
2024-06-26 04:22:32			0	37531	0	0	0	25503	24090	140919	27281	1020192	42813	109434	0	0	8255	571603	0	0
2024-06-26 04:23:32			0	37535	0	0	0	25501	24090	140851	27251	1020210	42801	109433	0	0	8256	571443	0	0
2024-06-26 04:24:32			0	37536	0	0	0	25498	24080	140959	27388	1020113	42823	109432	0	0	8256	571436	0	0
2024-06-26 04:25:32			0	37513	0	0	0	25488	24080	140863	27300	1020148	42812	109428	0	0	8255	572356	0	0
2024-06-26 04:26:32			0	37542	0	0	0	25488	24090	140911	27201	1020130	42824	109428	0	0	8256	571163	0	0
2024-06-26 04:27:32			0	37530	0	0	0	25488	24080	140871	26925	1020175	42824	109428	0	0	8256	571676	0	0
2024-06-26 04:28:32			0	37534	0	0	0	25490	24090	140915	27339	1020183	42824	109429	0	0	8256	571483	0	0
2024-06-26 04:29:32			0	37536	0	0	0	25490	24090	140847	27204	1020156	42824	109429	0	0	8256	571403	0	0
2024-06-26 04:30:32			0	37535	0	0	0	25488	24080	140875	27431	1020139	42800	109428	0	0	8256	571475	0	0
2024-06-26 04:31:32			0	37536	0	0	0	25488	24080	140991	27488	1020094	42812	109428	0	0	8256	571436	0	0
2024-06-26 04:32:32			0	37527	0	0	0	25485	24080	140931	27504	1020175	42801	109427	0	0	8256	571796	0	0
2024-06-26 04:33:32			0	37534	0	0	0	25488	24080	140979	27377	1020175	42824	109428	0	0	8256	571515	0	0
2024-06-26 04:34:32			0	37508	0	0	0	25477	24070	140827	27353	1020184	42812	109424	0	0	8255	572588	0	0
2024-06-26 04:35:32			0	37520	0	0	0	25488	24070	140935	27585	1020104	42812	109428	0	0	8255	572108	0	0
2024-06-26 04:36:32			0	37527	0	0	0	25480	24080	140939	27263	1020086	42812	109425	0	0	8256	571796	0	0
2024-06-26 04:37:32			0	37511	0	0	0	25485	24070	140947	27111	1020104	42833	109427	0	0	8255	572468	0	0
2024-06-26 04:38:32			0	37533	0	0	0	25475	24070	140859	27348	1020095	42811	109423	0	0	8256	571588	0	0
2024-06-26 04:39:32			0	37522	0	0	0	25480	24070	140919	27419	1020077	42812	109425	0	0	8255	572028	0	0
2024-06-26 04:40:32			0	37535	0	0	0	25477	24070	140859	27258	1020104	42812	109424	0	0	8256	571508	0	0
2024-06-26 04:41:32			0	37530	0	0	0	25477	24070	140979	27452	1020095	42799	109424	0	0	8256	571708	0	0
2024-06-26 04:42:32			0	37508	0	0	0	25483	24060	140919	27118	1020078	42821	109426	0	0	8254	572621	0	0
2024-06-26 04:43:32			0	37530	0	0	0	25464	24060	141063	27398	1020051	42821	109419	0	0	8256	571740	0	0
2024-06-26 04:44:32			0	37511	0	0	0	25472	24070	140835	27024	1020042	42811	109422	0	0	8255	572468	0	0
2024-06-26 04:45:32			0	37534	0	0	0	25470	24050	141019	27248	1020087	42809	109421	0	0	8256	571612	0	0
2024-06-26 04:46:32			0	37521	0	0	0	25467	24050	140963	27253	1020069	42809	109420	0	0	8255	572132	0	0
2024-06-26 04:47:32			0	37516	0	0	0	25464	24060	140995	27031	1020078	42821	109419	0	0	8255	572300	0	0
2024-06-26 04:48:32			0	37517	0	0	0	25477	24060	140967	27355	1020024	42810	109424	0	0	8255	572260	0	0
2024-06-26 04:49:32			0	37522	0	0	0	25467	24050	140947	27124	1020069	42820	109420	0	0	8255	572092	0	0
2024-06-26 04:50:32			0	37508	0	0	0	25470	24070	140995	27135	1020069	42822	109421	0	0	8255	572588	0	0
2024-06-26 04:51:32			0	37524	0	0	0	25467	24050	140963	27275	1020060	42809	109420	0	0	8256	572012	0	0
2024-06-26 04:52:32			0	37508	0	0	0	25470	24060	140979	27204	1020051	42810	109421	0	0	8255	572621	0	0
2024-06-26 04:53:32			0	37509	0	0	0	25467	24050	140943	27124	1019962	42820	109420	0	0	8255	572613	0	0
2024-06-26 04:54:32			0	37511	0	0	0	25464	24050	141011	27237	1020042	42831	109419	0	0	8255	572533	0	0
2024-06-26 04:55:32			0	37524	0	0	0	25457	24050	141015	27604	1020007	42809	109416	0	0	8256	572012	0	0
2024-06-26 04:56:32			0	37507	0	0	0	25470	24050	141019	27329	1020034	42809	109421	0	0	8255	572693	0	0
2024-06-26 04:57:32			0	37492	0	0	0	25459	24040	141007	26951	1019998	42797	109417	0	0	8254	573326	0	0
2024-06-26 04:58:32			0	37510	0	0	0	25462	24050	141059	27147	1020007	42809	109418	0	0	8255	572573	0	0
2024-06-26 04:59:32			0	37496	0	0	0	25459	24050	141047	27206	1020034	42809	109417	0	0	8254	573134	0	0
2024-06-26 05:00:32			0	37505	0	0	0	25467	24040	141039	27291	1019945	42820	109420	0	0	8255	572805	0	0
2024-06-26 05:01:32			0	37506	0	0	0	25477	24050	141079	27234	1019989	42809	109424	0	0	8254	572733	0	0
2024-06-26 05:02:32			0	37500	0	0	0	25485	24040	140999	27249	1020079	42831	109427	0	0	8254	573006	0	0
2024-06-26 05:03:32			0	37490	0	0	0	25496	24050	141075	27279	1020034	42809	109431	0	0	8253	573374	0	0
2024-06-26 05:04:32			0	37486	0	0	0	25503	24060	141211	27237	1020185	42832	109434	0	0	8253	573502	0	0
2024-06-26 05:05:32			0	37476	0	0	0	25511	24050	141087	27403	1020123	42820	109437	0	0	8252	573935	0	0
2024-06-26 05:06:32			0	37489	0	0	0	25529	24070	141091	27090	1020238	42833	109444	0	0	8253	573350	0	0
2024-06-26 05:07:32			0	37487	0	0	0	25548	24070	141067	27343	1020184	42823	109451	0	0	8252	573430	0	0
2024-06-26 05:08:32			0	37471	0	0	0	25561	24090	141119	27261	1020370	42824	109456	0	0	8251	574007	0	0
2024-06-26 05:09:32			0	37470	0	0	0	25558	24100	141107	26965	1020369	42836	109455	0	0	8251	574014	0	0
2024-06-26 05:10:32			0	37463	0	0	0	25566	24110	141107	27180	1020413	42827	109458	0	0	8251	574263	0	0
2024-06-26 05:11:32			0	37454	0	0	0	25566	24120	141167	26807	1020475	42838	109458	0	0	8251	574592	0	0
2024-06-26 05:12:32			0	37475	0	0	0	25571	24120	141231	27533	1020431	42838	109460	0	0	8252	573749	0	0
2024-06-26 05:13:32			0	37451	0	0	0	25576	24130	141187	27505	1020466	42828	109462	0	0	8250	574679	0	0
2024-06-26 05:14:32			0	37439	0	0	0	25579	24130	141159	27206	1020519	42828	109463	0	0	8250	575161	0	0
2024-06-26 05:15:32			0	37436	0	0	0	25592	24140	141171	27426	1020510	42829	109468	0	0	8249	575249	0	0
2024-06-26 05:16:32			0	37435	0	0	0	25584	24140	141135	27232	1020510	42840	109465	0	0	8249	575289	0	0
2024-06-26 05:17:32			0	37435	0	0	0	25594	24130	141219	26923	1020501	42828	109469	0	0	8249	575322	0	0
2024-06-26 05:18:32			0	37449	0	0	0	25586	24150	141227	27112	1020563	42830	109466	0	0	8250	574695	0	0
2024-06-26 05:19:32			0	37431	0	0	0	25584	24150	141235	27204	1020554	42830	109465	0	0	8249	575418	0	0
2024-06-26 05:20:32			0	37422	0	0	0	25602	24160	141155	27351	1020598	42820	109472	0	0	8248	575747	0	0
2024-06-26 05:21:32			0	37444	0	0	0	25597	24160	141251	27168	1020518	42831	109470	0	0	8250	574863	0	0
2024-06-26 05:22:32			0	37415	0	0	0	25599	24170	141135	27308	1020588	42821	109471	0	0	8248	575996	0	0
2024-06-26 05:23:32			0	37425	0	0	0	25599	24160	141211	27218	1020625	42820	109471	0	0	8249	575626	0	0
2024-06-26 05:24:32			0	37419	0	0	0	25602	24180	141375	27367	1020659	42833	109472	0	0	8248	575802	0	0
2024-06-26 05:25:32			0	37383	0	0	0	25592	24170	141391	27277	1020615	42832	109468	0	0	8247	577283	0	0
2024-06-26 05:26:32			0	37354	0	0	0	25597	24160	141463	27093	1020553	42842	109470	0	0	8245	578484	0	0
2024-06-26 05:27:32			0	37339	0	0	0	25597	24170	141503	27201	1020588	42832	109470	0	0	8244	579056	0	0
2024-06-26 05:28:32			0	37301	0	0	0	25599	24170	141662	27064	1020624	42821	109471	0	0	8242	580590	0	0
2024-06-26 05:29:32			0	37272	0	0	0	25597	24170	141902	27486	1020562	42832	109470	0	0	8241	581762	0	0
2024-06-26 05:30:32			0	37218	0	0	0	25602	24170	141934	27376	1020597	42832	109472	0	0	8238	583950	0	0
2024-06-26 05:31:32			0	37171	0	0	0	25597	24170	142138	27455	1020570	42810	109470	0	0	8235	585858	0	0
2024-06-26 05:32:32			0	37114	0	0	0	25597	24180	142362	27377	1020668	42833	109470	0	0	8233	588145	0	0
2024-06-26 05:33:32			0	37054	0	0	0	25594	24180	142530	27395	1020659	42833	109469	0	0	8229	590593	0	0
2024-06-26 05:34:32			0	36997	0	0	0	25592	24170	142818	27384	1020615	42832	109468	0	0	8226	592959	0	0
2024-06-26 05:35:32			0	36919	0	0	0	25592	24170	143002	27457	1020615	42842	109468	0	0	8222	596161	0	0
2024-06-26 05:36:32			0	36863	0	0	0	25599	24170	143286	27535	1020588	42821	109471	0	0	8219	598467	0	0
2024-06-26 05:37:32			0	36810	0	0	0	25592	24170	143406	27137	1020624	42832	109468	0	0	8217	600655	0	0
2024-06-26 05:38:32			0	36773	0	0	0	25597	24180	143746	27441	1020579	42833	109470	0	0	8215	602152	0	0
2024-06-26 05:39:32			0	36686	0	0	0	25607	24180	143974	27274	1020632	42833	109474	0	0	8210	605761	0	0
2024-06-26 05:40:32			0	36638	0	0	0	25594	24180	144122	27235	1020632	42833	109469	0	0	8208	607759	0	0
2024-06-26 05:41:32			0	36582	0	0	0	25594	24170	144345	27154	1020624	42821	109469	0	0	8205	610129	0	0
2024-06-26 05:42:32			0	36535	0	0	0	25599	24170	144605	27213	1020624	42842	109471	0	0	8202	612095	0	0
2024-06-26 05:43:32			0	36489	0	0	0	25594	24180	144709	27140	1020579	42843	109469	0	0	8200	613988	0	0
2024-06-26 05:44:32			0	36423	0	0	0	25594	24170	144937	27057	1020588	42821	109469	0	0	8196	616797	0	0
2024-06-26 05:45:32			0	36388	0	0	0	25599	24180	145149	27237	1020579	42822	109471	0	0	8194	618236	0	0
2024-06-26 05:46:32			0	36350	0	0	0	25605	24180	145245	27322	1020579	42843	109473	0	0	8192	619840	0	0
2024-06-26 05:47:32			0	36304	0	0	0	25592	24180	145477	27670	1020686	42843	109468	0	0	8190	621785	0	0
2024-06-26 05:48:32			0	36263	0	0	0	25594	24170	145617	27230	1020597	42842	109469	0	0	8188	623557	0	0
2024-06-26 05:49:32			0	36227	0	0	0	25592	24170	145813	26970	1020624	42832	109468	0	0	8186	625085	0	0
2024-06-26 05:50:32			0	36214	0	0	0	25602	24160	145965	27185	1020580	42831	109472	0	0	8185	625673	0	0
2024-06-26 05:51:32			0	36168	0	0	0	25589	24180	146053	27237	1020659	42855	109467	0	0	8183	627560	0	0
2024-06-26 05:52:32			0	36135	0	0	0	25589	24180	146181	27481	1020606	42833	109467	0	0	8181	628967	0	0
2024-06-26 05:53:32			0	36101	0	0	0	25589	24170	146317	27215	1020570	42842	109467	0	0	8179	630454	0	0
2024-06-26 05:54:32			0	36051	0	0	0	25592	24180	146441	27078	1020659	42843	109468	0	0	8177	632558	0	0
2024-06-26 05:55:32			0	36059	0	0	0	25592	24180	146561	27253	1020606	42833	109468	0	0	8177	632216	0	0
2024-06-26 05:56:32			0	36021	0	0	0	25584	24170	146517	27036	1020597	42842	109465	0	0	8175	633880	0	0
2024-06-26 05:57:32			0	35998	0	0	0	25597	24170	146701	27064	1020624	42821	109470	0	0	8174	634867	0	0
2024-06-26 05:58:32			0	35984	0	0	0	25592	24180	146793	27256	1020552	42833	109468	0	0	8173	635433	0	0
2024-06-26 05:59:32			0	35950	0	0	0	25597	24190	146873	27128	1020623	42823	109470	0	0	8171	636860	0	0
2024-06-26 06:00:32			0	35927	0	0	0	25594	24180	146981	27199	1020606	42822	109469	0	0	8170	637886	0	0
2024-06-26 06:01:32			0	35923	0	0	0	25586	24170	147001	27173	1020624	42821	109466	0	0	8170	638095	0	0
2024-06-26 06:02:32			0	35913	0	0	0	25584	24170	147057	27144	1020588	42842	109465	0	0	8170	638526	0	0
2024-06-26 06:03:32			0	35894	0	0	0	25581	24160	147117	27258	1020580	42842	109464	0	0	8169	639382	0	0
2024-06-26 06:04:32			0	35873	0	0	0	25586	24180	147245	27194	1020606	42822	109466	0	0	8167	640217	0	0
2024-06-26 06:05:32			0	35862	0	0	0	25586	24170	147292	27045	1020535	42832	109466	0	0	8167	640728	0	0
2024-06-26 06:06:32			0	35856	0	0	0	25586	24170	147192	27371	1020562	42832	109466	0	0	8166	640988	0	0
2024-06-26 06:07:32			0	35834	0	0	0	25586	24170	147304	27485	1020615	42821	109466	0	0	8165	641940	0	0
2024-06-26 06:08:32			0	35823	0	0	0	25584	24160	147364	27310	1020580	42820	109465	0	0	8165	642452	0	0
2024-06-26 06:09:32			0	35814	0	0	0	25579	24170	147380	27157	1020588	42832	109463	0	0	8164	642806	0	0
2024-06-26 06:10:32			0	35806	0	0	0	25589	24170	147524	27145	1020642	42832	109467	0	0	8164	643153	0	0
2024-06-26 06:11:32			0	35795	0	0	0	25584	24170	147512	27154	1020570	42832	109465	0	0	8163	643630	0	0
2024-06-26 06:12:32			0	35789	0	0	0	25584	24170	147544	27137	1020562	42832	109465	0	0	8163	643890	0	0
2024-06-26 06:13:32			0	35776	0	0	0	25579	24170	147644	27185	1020588	42832	109463	0	0	8162	644454	0	0
2024-06-26 06:14:32			0	35781	0	0	0	25576	24170	147672	27012	1020588	42821	109462	0	0	8163	644237	0	0
2024-06-26 06:15:32			0	35761	0	0	0	25579	24160	147660	27279	1020633	42820	109463	0	0	8161	645142	0	0
2024-06-26 06:16:32			0	35757	0	0	0	25576	24160	147668	27317	1020553	42831	109462	0	0	8161	645316	0	0
2024-06-26 06:17:32			0	35764	0	0	0	25568	24160	147620	27239	1020544	42831	109459	0	0	8162	645012	0	0
2024-06-26 06:18:32			0	35736	0	0	0	25576	24160	147728	27357	1020571	42831	109462	0	0	8160	646229	0	0
2024-06-26 06:19:32			0	35771	0	0	0	25573	24160	147764	27281	1020446	42842	109461	0	0	8162	644708	0	0
2024-06-26 06:20:32			0	35738	0	0	0	25568	24170	147672	27400	1020535	42821	109459	0	0	8160	646105	0	0
2024-06-26 06:21:32			0	35737	0	0	0	25568	24150	147664	27291	1020474	42819	109459	0	0	8160	646222	0	0
2024-06-26 06:22:32			0	35734	0	0	0	25563	24160	147768	27357	1020500	42820	109457	0	0	8160	646316	0	0
2024-06-26 06:23:32			0	35737	0	0	0	25563	24150	147664	26986	1020500	42819	109457	0	0	8160	646222	0	0
2024-06-26 06:24:32			0	35727	0	0	0	25558	24150	147836	27270	1020500	42841	109455	0	0	8160	646657	0	0
2024-06-26 06:25:32			0	35712	0	0	0	25555	24160	147792	27227	1020491	42831	109454	0	0	8159	647273	0	0
2024-06-26 06:26:32			0	35709	0	0	0	25555	24150	147776	27171	1020554	42808	109454	0	0	8159	647441	0	0
2024-06-26 06:27:32			0	35711	0	0	0	25561	24150	147832	27022	1020447	42830	109456	0	0	8159	647354	0	0
2024-06-26 06:28:32			0	35711	0	0	0	25550	24140	147816	27279	1020545	42818	109452	0	0	8159	647390	0	0
2024-06-26 06:29:32			0	35708	0	0	0	25550	24140	147768	27393	1020430	42818	109452	0	0	8159	647521	0	0
2024-06-26 06:30:32			0	35712	0	0	0	25545	24140	147792	27326	1020492	42818	109450	0	0	8159	647347	0	0
2024-06-26 06:31:32			0	35697	0	0	0	25540	24140	147928	26949	1020376	42829	109448	0	0	8159	648000	0	0
2024-06-26 06:32:32			0	35704	0	0	0	25522	24140	147968	27258	1020331	42829	109441	0	0	8159	647695	0	0
2024-06-26 06:33:32			0	35718	0	0	0	25527	24130	147896	27036	1020341	42828	109443	0	0	8160	647122	0	0
2024-06-26 06:34:32			0	35715	0	0	0	25516	24130	147832	27166	1020332	42828	109439	0	0	8160	647252	0	0
2024-06-26 06:35:32			0	35689	0	0	0	25503	24120	147940	27419	1020315	42816	109434	0	0	8159	648422	0	0
2024-06-26 06:36:32			0	35703	0	0	0	25498	24110	147848	27443	1020306	42827	109432	0	0	8160	647848	0	0
2024-06-26 06:37:32			0	35717	0	0	0	25509	24110	147872	27329	1020333	42815	109436	0	0	8160	647238	0	0
2024-06-26 06:38:32			0	35700	0	0	0	25501	24110	147824	27057	1020298	42826	109433	0	0	8159	647979	0	0
2024-06-26 06:39:32			0	35703	0	0	0	25516	24120	147888	27400	1020315	42828	109439	0	0	8159	647812	0	0
2024-06-26 06:40:32			0	35718	0	0	0	25503	24110	147796	27393	1020325	42814	109434	0	0	8160	647195	0	0
2024-06-26 06:41:32			0	35715	0	0	0	25511	24110	147828	27360	1020244	42814	109437	0	0	8160	647325	0	0
2024-06-26 06:42:32			0	35703	0	0	0	25493	24110	147804	27403	1020325	42814	109430	0	0	8160	647848	0	0
2024-06-26 06:43:32			0	35702	0	0	0	25496	24110	147892	27260	1020298	42826	109431	0	0	8160	647892	0	0
2024-06-26 06:44:32			0	35703	0	0	0	25498	24100	147776	27362	1020254	42825	109432	0	0	8159	647885	0	0
2024-06-26 06:45:32			0	35715	0	0	0	25483	24090	147816	27433	1020245	42813	109426	0	0	8160	647399	0	0
2024-06-26 06:46:32			0	35726	0	0	0	25490	24100	147844	27435	1020281	42813	109429	0	0	8161	646883	0	0
2024-06-26 06:47:32			0	35705	0	0	0	25501	24100	147760	27152	1020281	42835	109433	0	0	8160	647798	0	0
2024-06-26 06:48:32			0	35724	0	0	0	25498	24100	147852	27227	1020254	42835	109432	0	0	8161	646970	0	0
2024-06-26 06:49:32			0	35725	0	0	0	25506	24100	147828	27114	1020316	42826	109435	0	0	8161	646927	0	0
2024-06-26 06:50:32			0	35722	0	0	0	25509	24090	147928	27144	1020299	42825	109436	0	0	8160	647094	0	0
2024-06-26 06:51:32			0	35711	0	0	0	25509	24100	147900	27275	1020281	42813	109436	0	0	8160	647536	0	0
2024-06-26 06:52:32			0	35730	0	0	0	25514	24100	147788	27405	1020254	42802	109438	0	0	8161	646709	0	0
2024-06-26 06:53:32			0	35724	0	0	0	25490	24090	147820	27274	1020237	42812	109429	0	0	8161	647007	0	0
2024-06-26 06:54:32			0	35709	0	0	0	25501	24100	147836	26890	1020227	42825	109433	0	0	8160	647623	0	0
2024-06-26 06:55:32			0	35729	0	0	0	25496	24090	147868	27320	1020165	42813	109431	0	0	8161	646789	0	0
2024-06-26 06:56:32			0	35716	0	0	0	25477	24090	147880	26838	1020165	42813	109424	0	0	8160	647355	0	0
2024-06-26 06:57:32			0	35735	0	0	0	25485	24080	147792	27029	1020175	42812	109427	0	0	8161	646564	0	0
2024-06-26 06:58:32			0	35737	0	0	0	25475	24080	147804	27190	1020166	42823	109423	0	0	8162	646477	0	0
2024-06-26 06:59:32			0	35731	0	0	0	25485	24080	147892	27402	1020166	42823	109427	0	0	8161	646738	0	0
2024-06-26 07:00:32			0	35735	0	0	0	25477	24070	147756	27445	1020184	42823	109424	0	0	8161	646601	0	0
2024-06-26 07:01:32			0	35735	0	0	0	25477	24070	147760	27383	1020211	42823	109424	0	0	8161	646601	0	0
2024-06-26 07:02:32			0	35730	0	0	0	25477	24080	147752	26928	1020139	42812	109424	0	0	8161	646782	0	0
2024-06-26 07:03:32			0	35747	0	0	0	25475	24070	147724	27088	1020175	42822	109423	0	0	8162	646078	0	0
2024-06-26 07:04:32			0	35733	0	0	0	25470	24080	147712	27135	1020113	42823	109421	0	0	8161	646651	0	0
2024-06-26 07:05:32			0	35755	0	0	0	25464	24080	147772	27097	1020113	42823	109419	0	0	8163	645694	0	0
2024-06-26 07:06:32			0	35738	0	0	0	25464	24070	147808	27436	1020095	42822	109419	0	0	8162	646470	0	0
2024-06-26 07:07:32			0	35771	0	0	0	25470	24060	147692	27353	1020051	42821	109421	0	0	8163	645071	0	0
2024-06-26 07:08:32			0	35759	0	0	0	25464	24060	147664	27137	1020024	42810	109419	0	0	8163	645593	0	0
2024-06-26 07:09:32			0	35754	0	0	0	25457	24050	147628	27246	1020060	42797	109416	0	0	8163	645847	0	0
2024-06-26 07:10:32			0	35753	0	0	0	25462	24070	147648	27282	1020095	42822	109418	0	0	8163	645818	0	0
2024-06-26 07:11:32			0	35780	0	0	0	25459	24050	147644	27371	1020069	42820	109417	0	0	8164	644717	0	0
2024-06-26 07:12:32			0	35771	0	0	0	25454	24050	147696	26961	1020060	42820	109415	0	0	8164	645108	0	0
2024-06-26 07:13:32			0	35780	0	0	0	25446	24040	147620	27403	1020105	42809	109412	0	0	8164	644753	0	0
2024-06-26 07:14:32			0	35756	0	0	0	25459	24050	147708	27258	1020034	42831	109417	0	0	8163	645760	0	0
2024-06-26 07:15:32			0	35772	0	0	0	25454	24050	147776	26951	1020060	42820	109415	0	0	8164	645064	0	0
2024-06-26 07:16:32			0	35777	0	0	0	25446	24040	147648	27279	1019998	42820	109412	0	0	8164	644883	0	0
2024-06-26 07:17:32			0	35767	0	0	0	25438	24040	147604	26987	1019972	42820	109409	0	0	8164	645318	0	0
2024-06-26 07:18:32			0	35753	0	0	0	25441	24030	147584	27505	1019990	42819	109410	0	0	8163	645963	0	0
2024-06-26 07:19:32			0	35780	0	0	0	25441	24040	147608	27306	1019998	42809	109410	0	0	8164	644753	0	0
2024-06-26 07:20:32			0	35772	0	0	0	25436	24030	147572	27072	1019936	42830	109408	0	0	8164	645137	0	0
2024-06-26 07:21:32			0	35793	0	0	0	25444	24030	147572	27036	1020008	42818	109411	0	0	8165	644225	0	0
2024-06-26 07:22:32			0	35791	0	0	0	25441	24030	147580	27189	1020017	42808	109410	0	0	8165	644312	0	0
2024-06-26 07:23:32			0	35797	0	0	0	25449	24030	147648	27147	1020008	42818	109413	0	0	8165	644051	0	0
2024-06-26 07:24:32			0	35788	0	0	0	25454	24030	147636	27341	1020097	42819	109415	0	0	8164	644442	0	0
2024-06-26 07:25:32			0	35788	0	0	0	25444	24030	147628	27203	1020043	42808	109411	0	0	8165	644442	0	0
2024-06-26 07:26:32			0	35786	0	0	0	25446	24050	147628	27376	1020007	42820	109412	0	0	8165	644456	0	0
2024-06-26 07:27:32			0	35804	0	0	0	25438	24040	147608	27260	1019972	42797	109409	0	0	8166	643711	0	0
2024-06-26 07:28:32			0	35790	0	0	0	25428	24050	147552	27305	1020007	42820	109405	0	0	8165	644282	0	0
2024-06-26 07:29:32			0	35815	0	0	0	25423	24020	147584	27135	1019919	42818	109403	0	0	8166	643307	0	0
2024-06-26 07:30:32			0	35812	0	0	0	25415	24030	147540	27194	1019928	42818	109400	0	0	8166	643400	0	0
2024-06-26 07:31:32			0	35799	0	0	0	25407	24020	147596	27067	1019937	42806	109397	0	0	8166	644001	0	0
2024-06-26 07:32:32			0	35819	0	0	0	25397	24020	147580	26892	1019892	42796	109393	0	0	8167	643133	0	0
2024-06-26 07:33:32			0	35808	0	0	0	25402	24020	147472	27039	1019857	42806	109395	0	0	8166	643610	0	0
2024-06-26 07:34:32			0	35835	0	0	0	25392	24010	147528	26887	1019893	42805	109391	0	0	8168	642476	0	0
2024-06-26 07:35:32			0	35838	0	0	0	25392	24010	147540	27557	1019786	42828	109391	0	0	8168	642346	0	0
2024-06-26 07:36:32			0	35828	0	0	0	25394	24000	147500	27332	1019823	42815	109392	0	0	8167	642816	0	0
2024-06-26 07:37:32			0	35833	0	0	0	25381	23990	147464	27275	1019761	42782	109387	0	0	8168	642635	0	0
2024-06-26 07:38:32			0	35834	0	0	0	25384	23990	147388	27312	1019707	42804	109388	0	0	8168	642592	0	0
2024-06-26 07:39:32			0	35849	0	0	0	25374	23990	147460	27145	1019734	42804	109384	0	0	8169	641942	0	0
2024-06-26 07:40:32			0	35881	0	0	0	25366	23990	147377	26996	1019698	42814	109381	0	0	8171	640557	0	0
2024-06-26 07:41:32			0	35864	0	0	0	25363	23980	147333	27263	1019663	42814	109380	0	0	8170	641329	0	0
2024-06-26 07:42:32			0	35888	0	0	0	25361	23980	147181	27301	1019681	42814	109379	0	0	8171	640291	0	0
2024-06-26 07:43:32			0	35897	0	0	0	25358	23980	147205	27033	1019655	42802	109378	0	0	8172	639902	0	0
2024-06-26 07:44:32			0	35917	0	0	0	25361	23970	147237	26989	1019699	42802	109379	0	0	8173	639074	0	0
2024-06-26 07:45:32			0	35915	0	0	0	25361	23980	147153	26949	1019681	42802	109379	0	0	8173	639124	0	0
2024-06-26 07:46:32			0	35944	0	0	0	25358	23970	147125	27239	1019637	42813	109378	0	0	8174	637909	0	0
2024-06-26 07:47:32			0	35946	0	0	0	25358	23960	147093	27371	1019602	42800	109378	0	0	8174	637859	0	0
2024-06-26 07:48:32			0	35958	0	0	0	25342	23960	146945	27301	1019575	42812	109372	0	0	8175	637342	0	0
2024-06-26 07:49:32			0	35957	0	0	0	25340	23950	146917	27144	1019558	42800	109371	0	0	8175	637421	0	0
2024-06-26 07:50:32			0	36004	0	0	0	25335	23950	146901	27039	1019549	42811	109369	0	0	8178	635398	0	0
2024-06-26 07:51:32			0	36011	0	0	0	25327	23950	146929	27379	1019531	42812	109366	0	0	8178	635097	0	0
2024-06-26 07:52:32			0	36022	0	0	0	25327	23940	146781	27130	1019568	42788	109366	0	0	8179	634660	0	0
2024-06-26 07:53:32			0	36037	0	0	0	25327	23940	146769	27410	1019461	42788	109366	0	0	8179	634016	0	0
2024-06-26 07:54:32			0	36040	0	0	0	25316	23940	146701	27170	1019461	42798	109362	0	0	8180	633887	0	0
2024-06-26 07:55:32			0	36057	0	0	0	25329	23940	146669	27306	1019514	42798	109367	0	0	8180	633158	0	0
2024-06-26 07:56:32			0	36090	0	0	0	25329	23950	146525	27540	1019523	42811	109367	0	0	8182	631708	0	0
2024-06-26 07:57:32			0	36087	0	0	0	25316	23940	146437	27421	1019505	42798	109362	0	0	8182	631872	0	0
2024-06-26 07:58:32			0	36122	0	0	0	25311	23930	146377	27445	1019470	42798	109360	0	0	8184	630410	0	0
2024-06-26 07:59:32			0	36121	0	0	0	25322	23920	146369	27429	1019479	42808	109364	0	0	8184	630488	0	0
2024-06-26 08:00:32			0	36155	0	0	0	25314	23920	146297	27393	1019506	42797	109361	0	0	8186	629036	0	0
2024-06-26 08:01:32			0	36156	0	0	0	25303	23910	146269	27270	1019462	42796	109357	0	0	8186	629028	0	0
2024-06-26 08:02:32			0	36156	0	0	0	25314	23930	146273	27133	1019434	42798	109361	0	0	8186	628957	0	0
2024-06-26 08:03:32			0	36167	0	0	0	25306	23930	146209	27159	1019408	42787	109358	0	0	8187	628488	0	0
2024-06-26 08:04:32			0	36174	0	0	0	25290	23920	146109	27279	1019453	42797	109352	0	0	8187	628225	0	0
2024-06-26 08:05:32			0	36179	0	0	0	25296	23920	146149	27109	1019426	42797	109354	0	0	8187	628011	0	0
2024-06-26 08:06:32			0	36205	0	0	0	25298	23910	146085	27286	1019435	42807	109355	0	0	8189	626939	0	0
2024-06-26 08:07:32			0	36228	0	0	0	25290	23910	146037	26837	1019355	42796	109352	0	0	8190	625960	0	0
2024-06-26 08:08:32			0	36235	0	0	0	25290	23910	145969	26870	1019409	42796	109352	0	0	8190	625662	0	0
2024-06-26 08:09:32			0	36252	0	0	0	25288	23900	146025	27306	1019365	42795	109351	0	0	8191	624974	0	0
2024-06-26 08:10:32			0	36239	0	0	0	25296	23900	145949	26807	1019391	42795	109354	0	0	8191	625527	0	0
2024-06-26 08:11:32			0	36238	0	0	0	25290	23900	145949	26953	1019329	42784	109352	0	0	8191	625570	0	0
2024-06-26 08:12:32			0	36270	0	0	0	25283	23900	145909	27234	1019338	42806	109349	0	0	8192	624210	0	0
2024-06-26 08:13:32			0	36255	0	0	0	25296	23900	145973	27166	1019276	42794	109354	0	0	8191	624847	0	0
2024-06-26 08:14:32			0	36254	0	0	0	25285	23890	145945	27448	1019267	42794	109350	0	0	8191	624925	0	0
2024-06-26 08:15:32			0	36256	0	0	0	25288	23900	145873	27095	1019356	42794	109351	0	0	8192	624804	0	0
2024-06-26 08:16:32			0	36259	0	0	0	25285	23900	145837	26873	1019418	42806	109350	0	0	8192	624677	0	0
2024-06-26 08:17:32			0	36250	0	0	0	25288	23890	145801	27232	1019259	42794	109351	0	0	8191	625095	0	0
2024-06-26 08:18:32			0	36271	0	0	0	25277	23890	145917	27286	1019259	42794	109347	0	0	8192	624203	0	0
2024-06-26 08:19:32			0	36238	0	0	0	25280	23890	145865	27388	1019205	42794	109348	0	0	8191	625605	0	0
2024-06-26 08:20:32			0	36263	0	0	0	25272	23890	146013	27092	1019205	42805	109345	0	0	8192	624542	0	0
2024-06-26 08:21:32			0	36255	0	0	0	25272	23870	146025	27289	1019233	42792	109345	0	0	8192	624953	0	0
2024-06-26 08:22:32			0	36249	0	0	0	25262	23880	145941	27024	1019241	42792	109341	0	0	8192	625172	0	0
2024-06-26 08:23:32			0	36240	0	0	0	25259	23880	146109	27031	1019250	42793	109340	0	0	8191	625555	0	0
2024-06-26 08:24:32			0	36208	0	0	0	25259	23870	146081	27339	1019179	42792	109340	0	0	8189	626952	0	0
2024-06-26 08:25:32			0	36203	0	0	0	25254	23870	146085	27034	1019117	42792	109338	0	0	8189	627165	0	0
2024-06-26 08:26:32			0	36212	0	0	0	25257	23860	146229	27024	1019135	42791	109339	0	0	8190	626817	0	0
2024-06-26 08:27:32			0	36197	0	0	0	25246	23860	146201	27298	1019154	42791	109335	0	0	8189	627456	0	0
2024-06-26 08:28:32			0	36198	0	0	0	25249	23860	146185	27088	1019162	42791	109336	0	0	8189	627414	0	0
2024-06-26 08:29:32			0	36193	0	0	0	25246	23860	146233	27306	1019154	42791	109335	0	0	8189	627627	0	0
2024-06-26 08:30:32			0	36176	0	0	0	25249	23860	146281	27391	1019154	42780	109336	0	0	8188	628352	0	0
2024-06-26 08:31:32			0	36150	0	0	0	25249	23850	146401	27182	1019145	42790	109336	0	0	8186	629497	0	0
2024-06-26 08:32:32			0	36146	0	0	0	25254	23860	146357	27142	1019154	42791	109338	0	0	8186	629633	0	0
2024-06-26 08:33:32			0	36147	0	0	0	25254	23860	146477	27098	1019154	42791	109338	0	0	8186	629590	0	0
2024-06-26 08:34:32			0	36118	0	0	0	25251	23860	146405	27078	1019189	42791	109337	0	0	8185	630830	0	0
2024-06-26 08:35:32			0	36126	0	0	0	25267	23860	146533	27235	1019269	42802	109343	0	0	8185	630487	0	0
2024-06-26 08:36:32			0	36094	0	0	0	25259	23860	146565	27150	1019189	42781	109340	0	0	8183	631857	0	0
2024-06-26 08:37:32			0	36116	0	0	0	25272	23860	146657	27133	1019162	42781	109345	0	0	8184	630915	0	0
2024-06-26 08:38:32			0	36075	0	0	0	25283	23870	146737	27357	1019286	42792	109349	0	0	8182	632635	0	0
2024-06-26 08:39:32			0	36078	0	0	0	25290	23870	146741	27242	1019251	42782	109352	0	0	8182	632507	0	0
2024-06-26 08:40:32			0	36053	0	0	0	25285	23870	146665	27538	1019179	42815	109350	0	0	8181	633579	0	0
2024-06-26 08:41:32			0	36068	0	0	0	25280	23870	146841	27343	1019286	42803	109348	0	0	8182	632936	0	0
2024-06-26 08:42:32			0	36035	0	0	0	25277	23870	146849	27258	1019286	42803	109347	0	0	8180	634352	0	0
2024-06-26 08:43:32			0	36034	0	0	0	25280	23870	146885	27105	1019251	42782	109348	0	0	8180	634395	0	0
2024-06-26 08:44:32			0	36027	0	0	0	25275	23870	147057	27351	1019224	42792	109346	0	0	8179	634695	0	0
2024-06-26 08:45:32			0	36012	0	0	0	25277	23860	146897	27254	1019189	42802	109347	0	0	8179	635376	0	0
2024-06-26 08:46:32			0	35991	0	0	0	25264	23870	146985	27152	1019286	42803	109342	0	0	8178	636243	0	0
2024-06-26 08:47:32			0	35980	0	0	0	25251	23860	147017	27462	1019135	42791	109337	0	0	8177	636753	0	0
2024-06-26 08:48:32			0	35983	0	0	0	25241	23860	146945	27549	1019135	42802	109333	0	0	8178	636624	0	0
2024-06-26 08:49:32			0	35969	0	0	0	25238	23850	146917	27504	1019136	42790	109332	0	0	8177	637263	0	0
2024-06-26 08:50:32			0	35954	0	0	0	25241	23850	147081	27007	1019065	42790	109333	0	0	8176	637909	0	0
2024-06-26 08:51:32			0	35941	0	0	0	25236	23850	147125	27488	1019056	42790	109331	0	0	8175	638470	0	0
2024-06-26 08:52:32			0	35963	0	0	0	25238	23850	147221	27298	1019110	42779	109332	0	0	8177	637521	0	0
2024-06-26 08:53:32			0	35930	0	0	0	25238	23850	147233	27381	1019083	42812	109332	0	0	8175	638945	0	0
2024-06-26 08:54:32			0	35935	0	0	0	25246	23850	147265	27196	1019083	42790	109335	0	0	8175	638729	0	0
2024-06-26 08:55:32			0	35912	0	0	0	25236	23850	147285	27365	1019083	42790	109331	0	0	8174	639722	0	0
2024-06-26 08:56:32			0	35912	0	0	0	25238	23840	147209	27383	1019101	42801	109332	0	0	8174	639758	0	0
2024-06-26 08:57:32			0	35899	0	0	0	25231	23840	147325	27383	1019066	42800	109329	0	0	8173	640320	0	0
2024-06-26 08:58:32			0	35888	0	0	0	25231	23840	147369	27225	1018994	42801	109329	0	0	8173	640796	0	0
2024-06-26 08:59:32			0	35877	0	0	0	25225	23830	147301	27315	1019030	42788	109327	0	0	8172	641308	0	0
2024-06-26 09:00:32			0	35880	0	0	0	25228	23840	147353	27320	1018986	42789	109328	0	0	8172	641142	0	0
2024-06-26 09:01:32			0	35893	0	0	0	25225	23840	147349	27348	1019074	42801	109327	0	0	8173	640580	0	0
2024-06-26 09:02:32			0	35862	0	0	0	25228	23830	147404	27244	1019110	42788	109328	0	0	8171	641958	0	0
2024-06-26 09:03:32			0	35885	0	0	0	25236	23840	147381	27436	1019092	42800	109331	0	0	8172	640926	0	0
2024-06-26 09:04:32			0	35882	0	0	0	25228	23840	147441	27310	1019039	42778	109328	0	0	8172	641056	0	0
2024-06-26 09:05:32			0	35861	0	0	0	25238	23840	147460	27111	1019066	42778	109332	0	0	8171	641965	0	0
2024-06-26 09:06:32			0	35846	0	0	0	25236	23840	147500	27189	1019039	42789	109331	0	0	8170	642615	0	0
2024-06-26 09:07:32			0	35875	0	0	0	25244	23840	147501	27192	1019012	42789	109334	0	0	8172	641358	0	0
2024-06-26 09:08:32			0	35849	0	0	0	25233	23830	147512	27390	1019084	42788	109330	0	0	8171	642521	0	0
2024-06-26 09:09:32			0	35869	0	0	0	25231	23830	147581	27178	1019084	42799	109329	0	0	8172	641654	0	0
2024-06-26 09:10:32			0	35859	0	0	0	25228	23830	147548	26979	1018923	42788	109328	0	0	8171	642087	0	0
2024-06-26 09:11:32			0	35831	0	0	0	25231	23830	147592	27473	1019030	42788	109329	0	0	8170	643301	0	0
2024-06-26 09:12:32			0	35836	0	0	0	25236	23830	147548	27145	1019022	42799	109331	0	0	8170	643085	0	0
2024-06-26 09:13:32			0	35848	0	0	0	25251	23840	147664	27275	1019092	42800	109337	0	0	8170	642528	0	0
2024-06-26 09:14:32			0	35840	0	0	0	25246	23840	147628	26939	1019154	42790	109335	0	0	8170	642875	0	0
2024-06-26 09:15:32			0	35845	0	0	0	25249	23840	147612	26883	1019173	42800	109336	0	0	8170	642658	0	0
2024-06-26 09:16:32			0	35824	0	0	0	25262	23830	147556	26878	1019191	42799	109341	0	0	8169	643605	0	0
2024-06-26 09:17:32			0	35843	0	0	0	25288	23850	147548	26941	1019252	42812	109351	0	0	8169	642709	0	0
2024-06-26 09:18:32			0	35843	0	0	0	25296	23860	147448	27300	1019296	42802	109354	0	0	8169	642672	0	0
2024-06-26 09:19:32			0	35834	0	0	0	25309	23860	147584	27305	1019349	42814	109359	0	0	8169	643063	0	0
2024-06-26 09:20:32			0	35833	0	0	0	25311	23870	147596	27204	1019331	42792	109360	0	0	8169	643070	0	0
2024-06-26 09:21:32			0	35859	0	0	0	25311	23870	147673	27133	1019340	42803	109360	0	0	8170	641943	0	0
2024-06-26 09:22:32			0	35852	0	0	0	25314	23880	147540	27019	1019384	42793	109361	0	0	8170	642210	0	0
2024-06-26 09:23:32			0	35844	0	0	0	25329	23870	147580	27222	1019313	42792	109367	0	0	8169	642593	0	0
2024-06-26 09:24:32			0	35822	0	0	0	25329	23890	147552	26901	1019374	42816	109367	0	0	8168	643474	0	0
2024-06-26 09:25:32			0	35837	0	0	0	25332	23890	147612	26937	1019366	42805	109368	0	0	8169	642824	0	0
2024-06-26 09:26:32			0	35826	0	0	0	25337	23890	147548	27220	1019428	42805	109370	0	0	8168	643301	0	0
2024-06-26 09:27:32			0	35843	0	0	0	25337	23900	147628	27355	1019472	42806	109370	0	0	8169	642528	0	0
2024-06-26 09:28:32			0	35867	0	0	0	25332	23900	147609	27227	1019445	42806	109368	0	0	8170	641488	0	0
2024-06-26 09:29:32			0	35838	0	0	0	25332	23910	147560	27300	1019480	42807	109368	0	0	8169	642708	0	0
2024-06-26 09:30:32			0	35840	0	0	0	25340	23910	147572	26994	1019480	42807	109371	0	0	8169	642621	0	0
2024-06-26 09:31:32			0	35858	0	0	0	25335	23910	147569	27194	1019489	42796	109369	0	0	8170	641841	0	0
2024-06-26 09:32:32			0	35856	0	0	0	25335	23910	147561	27336	1019489	42807	109369	0	0	8170	641928	0	0
2024-06-26 09:33:32			0	35840	0	0	0	25340	23910	147484	27578	1019480	42807	109371	0	0	8169	642621	0	0
2024-06-26 09:34:32			0	35849	0	0	0	25345	23910	147528	27253	1019507	42807	109373	0	0	8169	642231	0	0
2024-06-26 09:35:32			0	35879	0	0	0	25342	23910	147485	27322	1019489	42807	109372	0	0	8171	640933	0	0
2024-06-26 09:36:32			0	35849	0	0	0	25340	23910	147396	27490	1019507	42818	109371	0	0	8169	642231	0	0
2024-06-26 09:37:32			0	35846	0	0	0	25348	23920	147428	27374	1019524	42818	109374	0	0	8169	642325	0	0
2024-06-26 09:38:32			0	35873	0	0	0	25355	23930	147441	27258	1019595	42820	109377	0	0	8170	641120	0	0
2024-06-26 09:39:32			0	35866	0	0	0	25363	23940	147348	27400	1019505	42821	109380	0	0	8170	641387	0	0
2024-06-26 09:40:32			0	35868	0	0	0	25355	23930	147441	27249	1019568	42820	109377	0	0	8170	641336	0	0
2024-06-26 09:41:32			0	35874	0	0	0	25355	23930	147489	27230	1019550	42820	109377	0	0	8170	641077	0	0
2024-06-26 09:42:32			0	35872	0	0	0	25342	23940	147385	27459	1019559	42810	109372	0	0	8170	641127	0	0
2024-06-26 09:43:32			0	35883	0	0	0	25337	23930	147365	27253	1019541	42809	109370	0	0	8171	640687	0	0
2024-06-26 09:44:32			0	35885	0	0	0	25340	23930	147333	26816	1019523	42787	109371	0	0	8171	640601	0	0
2024-06-26 09:45:32			0	35897	0	0	0	25337	23920	147365	27133	1019479	42797	109370	0	0	8172	640118	0	0
2024-06-26 09:46:32			0	35891	0	0	0	25335	23920	147325	27059	1019479	42797	109369	0	0	8171	640378	0	0
2024-06-26 09:47:32			0	35886	0	0	0	25327	23920	147313	26928	1019453	42797	109366	0	0	8171	640594	0	0
2024-06-26 09:48:32			0	35886	0	0	0	25324	23920	147297	27215	1019533	42808	109365	0	0	8171	640594	0	0
2024-06-26 09:49:32			0	35906	0	0	0	25322	23920	147305	27033	1019497	42807	109364	0	0	8172	639729	0	0
2024-06-26 09:50:32			0	35901	0	0	0	25316	23920	147309	26788	1019471	42807	109362	0	0	8172	639945	0	0
2024-06-26 09:51:32			0	35915	0	0	0	25319	23920	147277	27144	1019453	42797	109363	0	0	8173	639340	0	0
2024-06-26 09:52:32			0	35911	0	0	0	25324	23910	147233	27367	1019462	42807	109365	0	0	8173	639549	0	0
2024-06-26 09:53:32			0	35905	0	0	0	25319	23920	147253	27098	1019497	42807	109363	0	0	8172	639772	0	0
2024-06-26 09:54:32			0	35908	0	0	0	25327	23920	147185	26854	1019533	42831	109366	0	0	8173	639643	0	0
2024-06-26 09:55:32			0	35925	0	0	0	25324	23930	147213	27353	1019488	42798	109365	0	0	8174	638873	0	0
2024-06-26 09:56:32			0	35918	0	0	0	25316	23920	147213	27114	1019479	42797	109362	0	0	8173	639211	0	0
2024-06-26 09:57:32			0	35931	0	0	0	25316	23920	147097	27260	1019479	42808	109362	0	0	8174	638650	0	0
2024-06-26 09:58:32			0	35939	0	0	0	25314	23910	147229	27248	1019462	42796	109361	0	0	8174	638341	0	0
2024-06-26 09:59:32			0	35932	0	0	0	25329	23920	147125	27322	1019471	42796	109367	0	0	8174	638607	0	0
2024-06-26 10:00:32			0	35941	0	0	0	25319	23920	147185	27369	1019444	42807	109363	0	0	8174	638218	0	0
2024-06-26 10:01:32			0	35938	0	0	0	25316	23920	147245	27182	1019471	42807	109362	0	0	8174	638348	0	0
2024-06-26 10:02:32			0	35960	0	0	0	25314	23910	147109	27192	1019489	42807	109361	0	0	8175	637435	0	0
2024-06-26 10:03:32			0	35953	0	0	0	25311	23920	147109	27060	1019444	42807	109360	0	0	8175	637701	0	0
2024-06-26 10:04:32			0	35966	0	0	0	25309	23910	146925	27140	1019489	42818	109359	0	0	8176	637177	0	0
2024-06-26 10:05:32			0	35964	0	0	0	25311	23920	146937	27201	1019506	42797	109360	0	0	8176	637227	0	0
2024-06-26 10:06:32			0	35969	0	0	0	25306	23910	147009	27390	1019489	42796	109358	0	0	8176	637047	0	0
2024-06-26 10:07:32			0	35970	0	0	0	25303	23900	146961	27289	1019445	42806	109357	0	0	8176	637040	0	0
2024-06-26 10:08:32			0	35978	0	0	0	25301	23900	146929	26845	1019383	42794	109356	0	0	8177	636696	0	0
2024-06-26 10:09:32			0	35984	0	0	0	25301	23910	146989	27308	1019355	42796	109356	0	0	8177	636401	0	0
2024-06-26 10:10:32			0	35994	0	0	0	25290	23910	146977	27312	1019373	42818	109352	0	0	8178	635971	0	0
2024-06-26 10:11:32			0	35992	0	0	0	25293	23910	146909	27145	1019373	42796	109353	0	0	8178	636057	0	0
2024-06-26 10:12:32			0	35996	0	0	0	25288	23900	146765	27294	1019365	42795	109351	0	0	8178	635921	0	0
2024-06-26 10:13:32			0	36002	0	0	0	25293	23910	146865	27462	1019427	42796	109353	0	0	8178	635627	0	0
2024-06-26 10:14:32			0	36011	0	0	0	25285	23900	146801	27246	1019311	42784	109350	0	0	8179	635276	0	0
2024-06-26 10:15:32			0	36019	0	0	0	25283	23900	146753	27227	1019276	42794	109349	0	0	8179	634932	0	0
2024-06-26 10:16:32			0	36025	0	0	0	25283	23890	146689	26987	1019232	42784	109349	0	0	8179	634710	0	0
2024-06-26 10:17:32			0	36037	0	0	0	25270	23890	146769	27202	1019259	42805	109344	0	0	8180	634194	0	0
2024-06-26 10:18:32			0	36049	0	0	0	25262	23870	146685	27197	1019233	42803	109341	0	0	8181	633751	0	0
2024-06-26 10:19:32			0	36037	0	0	0	25251	23880	146597	27424	1019241	42803	109337	0	0	8180	634230	0	0
2024-06-26 10:20:32			0	36063	0	0	0	25254	23880	146613	27170	1019223	42793	109338	0	0	8182	633114	0	0
2024-06-26 10:21:32			0	36065	0	0	0	25251	23880	146593	27038	1019241	42803	109337	0	0	8182	633029	0	0
2024-06-26 10:22:32			0	36074	0	0	0	25259	23870	146645	27234	1019206	42792	109340	0	0	8182	632678	0	0
2024-06-26 10:23:32			0	36090	0	0	0	25249	23870	146525	27433	1019206	42782	109336	0	0	8183	631993	0	0
2024-06-26 10:24:32			0	36107	0	0	0	25241	23870	146389	26951	1019179	42792	109333	0	0	8184	631265	0	0
2024-06-26 10:25:32			0	36099	0	0	0	25249	23870	146361	27204	1019171	42792	109336	0	0	8184	631607	0	0
2024-06-26 10:26:32			0	36114	0	0	0	25246	23870	146409	27419	1019224	42803	109335	0	0	8185	630965	0	0
2024-06-26 10:27:32			0	36112	0	0	0	25241	23860	146309	27502	1019189	42802	109333	0	0	8185	631086	0	0
2024-06-26 10:28:32			0	36136	0	0	0	25244	23850	146369	27533	1019118	42790	109334	0	0	8186	630095	0	0
2024-06-26 10:29:32			0	36142	0	0	0	25246	23860	146241	27196	1019234	42791	109335	0	0	8186	629804	0	0
2024-06-26 10:30:32			0	36156	0	0	0	25251	23850	146213	27163	1019145	42801	109337	0	0	8187	629241	0	0
2024-06-26 10:31:32			0	36175	0	0	0	25251	23860	146225	27050	1019180	42801	109337	0	0	8188	628394	0	0
2024-06-26 10:32:32			0	36184	0	0	0	25246	23860	146165	27296	1019127	42801	109335	0	0	8188	628011	0	0
2024-06-26 10:33:32			0	36195	0	0	0	25238	23850	146129	27332	1019091	42790	109332	0	0	8189	627577	0	0
2024-06-26 10:34:32			0	36192	0	0	0	25244	23860	146121	27131	1019109	42791	109334	0	0	8189	627669	0	0
2024-06-26 10:35:32			0	36202	0	0	0	25228	23860	146017	27453	1019180	42780	109328	0	0	8190	627243	0	0
2024-06-26 10:36:32			0	36220	0	0	0	25236	23840	146153	27313	1019128	42779	109331	0	0	8190	626547	0	0
2024-06-26 10:37:32			0	36225	0	0	0	25249	23860	145969	27360	1019127	42791	109336	0	0	8190	626264	0	0
2024-06-26 10:38:32			0	36240	0	0	0	25238	23850	145869	27417	1019065	42779	109332	0	0	8191	625661	0	0
2024-06-26 10:39:32			0	36260	0	0	0	25236	23840	145845	27261	1019066	42789	109331	0	0	8192	624846	0	0
2024-06-26 10:40:32			0	36258	0	0	0	25220	23840	145901	27287	1019048	42801	109325	0	0	8193	624931	0	0
2024-06-26 10:41:32			0	36278	0	0	0	25220	23830	145845	27287	1019057	42799	109325	0	0	8194	624116	0	0
2024-06-26 10:42:32			0	36278	0	0	0	25218	23830	145773	27222	1019057	42810	109324	0	0	8194	624116	0	0
2024-06-26 10:43:32			0	36312	0	0	0	25223	23840	145801	27267	1019128	42790	109326	0	0	8195	622639	0	0
2024-06-26 10:44:32			0	36321	0	0	0	25244	23830	145689	27142	1019084	42788	109334	0	0	8195	622292	0	0
2024-06-26 10:45:32			0	36317	0	0	0	25241	23850	145633	27585	1019056	42801	109333	0	0	8195	622391	0	0
2024-06-26 10:46:32			0	36342	0	0	0	25236	23850	145613	27255	1019083	42812	109331	0	0	8197	621333	0	0
2024-06-26 10:47:32			0	36358	0	0	0	25218	23840	145613	27274	1019074	42790	109324	0	0	8198	620691	0	0
2024-06-26 10:48:32			0	36367	0	0	0	25210	23830	145457	27220	1018995	42788	109321	0	0	8198	620345	0	0
2024-06-26 10:49:32			0	36381	0	0	0	25202	23820	145433	27024	1018960	42788	109318	0	0	8199	619788	0	0
2024-06-26 10:50:32			0	36391	0	0	0	25199	23820	145369	27069	1019005	42787	109317	0	0	8200	619366	0	0
2024-06-26 10:51:32			0	36414	0	0	0	25181	23820	145313	27409	1018978	42798	109310	0	0	8201	618395	0	0
2024-06-26 10:52:32			0	36428	0	0	0	25173	23800	145257	27658	1018845	42764	109307	0	0	8202	617874	0	0
2024-06-26 10:53:32			0	36431	0	0	0	25158	23790	145153	27280	1018828	42773	109301	0	0	8203	617782	0	0
2024-06-26 10:54:32			0	36446	0	0	0	25158	23790	145173	27227	1018854	42785	109301	0	0	8203	617150	0	0
2024-06-26 10:55:32			0	36473	0	0	0	25155	23790	145133	27390	1018828	42785	109300	0	0	8205	616013	0	0
2024-06-26 10:56:32			0	36468	0	0	0	25153	23780	145061	27159	1018784	42784	109299	0	0	8204	616258	0	0
2024-06-26 10:57:32			0	36507	0	0	0	25155	23780	145009	27126	1018730	42784	109300	0	0	8207	614618	0	0
2024-06-26 10:58:32			0	36533	0	0	0	25142	23780	144957	27377	1018748	42784	109295	0	0	8208	613526	0	0
2024-06-26 10:59:32			0	36502	0	0	0	25142	23770	144893	27258	1018758	42792	109295	0	0	8206	614863	0	0
2024-06-26 11:00:32			0	36511	0	0	0	25148	23770	144841	27274	1018713	42793	109297	0	0	8207	614484	0	0
2024-06-26 11:01:32			0	36540	0	0	0	25142	23770	144801	27189	1018731	42771	109295	0	0	8208	613267	0	0
2024-06-26 11:02:32			0	36550	0	0	0	25148	23780	144745	27140	1018703	42784	109297	0	0	8209	612813	0	0
2024-06-26 11:03:32			0	36554	0	0	0	25145	23760	144701	27293	1018696	42782	109296	0	0	8209	612714	0	0
2024-06-26 11:04:32			0	36573	0	0	0	25148	23760	144749	27272	1018749	42792	109297	0	0	8210	611918	0	0
2024-06-26 11:05:32			0	36594	0	0	0	25168	23770	144697	26811	1018873	42793	109305	0	0	8211	611004	0	0
2024-06-26 11:06:32			0	36599	0	0	0	25194	23770	144762	27362	1018873	42804	109315	0	0	8211	610795	0	0
2024-06-26 11:07:32			0	36606	0	0	0	25199	23780	144610	26970	1018909	42794	109317	0	0	8211	610468	0	0
2024-06-26 11:08:32			0	36604	0	0	0	25202	23780	144546	27338	1018828	42794	109318	0	0	8211	610552	0	0
2024-06-26 11:09:32			0	36626	0	0	0	25205	23790	144590	27022	1018881	42795	109319	0	0	8212	609598	0	0
2024-06-26 11:10:32			0	36616	0	0	0	25199	23790	144630	27274	1018819	42784	109317	0	0	8212	610015	0	0
2024-06-26 11:11:32			0	36623	0	0	0	25197	23790	144538	26998	1018846	42784	109316	0	0	8212	609723	0	0
2024-06-26 11:12:32			0	36623	0	0	0	25192	23790	144506	27306	1018846	42794	109314	0	0	8212	609723	0	0
2024-06-26 11:13:32			0	36640	0	0	0	25192	23790	144570	27163	1018899	42784	109314	0	0	8213	609013	0	0
2024-06-26 11:14:32			0	36632	0	0	0	25181	23790	144538	27059	1018766	42794	109310	0	0	8213	609347	0	0
2024-06-26 11:15:32			0	36661	0	0	0	25168	23780	144510	27178	1018775	42794	109305	0	0	8214	608171	0	0
2024-06-26 11:16:32			0	36651	0	0	0	25168	23780	144502	27220	1018802	42784	109305	0	0	8214	608588	0	0
2024-06-26 11:17:32			0	36647	0	0	0	25168	23780	144478	26979	1018810	42784	109305	0	0	8214	608755	0	0
2024-06-26 11:18:32			0	36637	0	0	0	25163	23770	144342	27060	1018713	42793	109303	0	0	8213	609207	0	0
2024-06-26 11:19:32			0	36654	0	0	0	25158	23780	144410	26889	1018775	42794	109301	0	0	8214	608463	0	0
2024-06-26 11:20:32			0	36663	0	0	0	25158	23760	144390	27241	1018714	42782	109301	0	0	8215	608156	0	0
2024-06-26 11:21:32			0	36689	0	0	0	25163	23770	144294	27170	1018731	42782	109303	0	0	8216	607038	0	0
2024-06-26 11:22:32			0	36674	0	0	0	25163	23770	144258	27370	1018740	42804	109303	0	0	8215	607663	0	0
2024-06-26 11:23:32			0	36676	0	0	0	25166	23770	144262	27414	1018766	42804	109304	0	0	8215	607579	0	0
2024-06-26 11:24:32			0	36687	0	0	0	25155	23760	144282	26953	1018722	42804	109300	0	0	8216	607155	0	0
2024-06-26 11:25:32			0	36702	0	0	0	25161	23760	144250	27118	1018722	42782	109302	0	0	8217	606530	0	0
2024-06-26 11:26:32			0	36711	0	0	0	25155	23760	144274	27254	1018696	42792	109300	0	0	8217	606156	0	0
2024-06-26 11:27:32			0	36704	0	0	0	25153	23760	144242	27355	1018714	42792	109299	0	0	8217	606447	0	0
2024-06-26 11:28:32			0	36698	0	0	0	25150	23760	144262	27291	1018687	42804	109298	0	0	8217	606697	0	0
2024-06-26 11:29:32			0	36709	0	0	0	25153	23750	144178	27213	1018705	42791	109299	0	0	8217	606273	0	0
2024-06-26 11:30:32			0	36715	0	0	0	25155	23760	144134	27045	1018741	42782	109300	0	0	8217	605989	0	0
2024-06-26 11:31:32			0	36710	0	0	0	25153	23760	144238	27305	1018714	42792	109299	0	0	8217	606197	0	0
2024-06-26 11:32:32			0	36735	0	0	0	25153	23750	144126	27161	1018670	42791	109299	0	0	8218	605191	0	0
2024-06-26 11:33:32			0	36722	0	0	0	25155	23760	144174	27436	1018714	42782	109300	0	0	8218	605698	0	0
2024-06-26 11:34:32			0	36722	0	0	0	25161	23760	144218	27137	1018767	42804	109302	0	0	8218	605698	0	0
2024-06-26 11:35:32			0	36732	0	0	0	25161	23760	144298	27078	1018749	42782	109302	0	0	8218	605282	0	0
2024-06-26 11:36:32			0	36726	0	0	0	25168	23760	144182	27225	1018722	42782	109305	0	0	8218	605531	0	0
2024-06-26 11:37:32			0	36727	0	0	0	25168	23760	144174	26935	1018776	42782	109305	0	0	8218	605490	0	0
2024-06-26 11:38:32			0	36731	0	0	0	25168	23770	144214	27010	1018785	42792	109305	0	0	8218	605290	0	0
2024-06-26 11:39:32			0	36727	0	0	0	25166	23760	144146	27300	1018803	42804	109304	0	0	8218	605490	0	0
2024-06-26 11:40:32			0	36732	0	0	0	25171	23760	144162	27397	1018829	42804	109306	0	0	8218	605282	0	0
2024-06-26 11:41:32			0	36751	0	0	0	25176	23770	144158	27336	1018766	42793	109308	0	0	8219	604458	0	0
2024-06-26 11:42:32			0	36743	0	0	0	25176	23770	144074	27100	1018785	42792	109308	0	0	8219	604791	0	0
2024-06-26 11:43:32			0	36733	0	0	0	25189	23770	144130	27281	1018785	42792	109313	0	0	8218	605206	0	0
2024-06-26 11:44:32			0	36736	0	0	0	25194	23770	144166	27086	1018838	42792	109315	0	0	8218	605082	0	0
2024-06-26 11:45:32			0	36746	0	0	0	25186	23780	144038	27090	1018802	42794	109312	0	0	8219	604632	0	0
2024-06-26 11:46:32			0	36756	0	0	0	25192	23780	144070	27441	1018837	42794	109314	0	0	8219	604217	0	0
2024-06-26 11:47:32			0	36739	0	0	0	25197	23780	144114	27105	1018855	42784	109316	0	0	8218	604923	0	0
2024-06-26 11:48:32			0	36739	0	0	0	25186	23780	144030	27215	1018810	42794	109312	0	0	8218	604923	0	0
2024-06-26 11:49:32			0	36744	0	0	0	25194	23770	144162	27424	1018847	42783	109315	0	0	8218	604749	0	0
2024-06-26 11:50:32			0	36748	0	0	0	25199	23790	144094	27185	1018926	42805	109317	0	0	8218	604515	0	0
2024-06-26 11:51:32			0	36756	0	0	0	25197	23790	144130	27232	1018872	42794	109316	0	0	8219	604183	0	0
2024-06-26 11:52:32			0	36752	0	0	0	25186	23790	144162	27336	1018854	42806	109312	0	0	8219	604349	0	0
2024-06-26 11:53:32			0	36750	0	0	0	25197	23790	144114	27429	1018899	42794	109316	0	0	8219	604432	0	0
2024-06-26 11:54:32			0	36755	0	0	0	25202	23790	143950	27313	1018953	42784	109318	0	0	8219	604224	0	0
2024-06-26 11:55:32			0	36762	0	0	0	25205	23790	144002	27405	1018934	42795	109319	0	0	8219	603934	0	0
2024-06-26 11:56:32			0	36757	0	0	0	25212	23790	143914	27329	1018961	42806	109322	0	0	8219	604141	0	0
2024-06-26 11:57:32			0	36763	0	0	0	25215	23790	144006	27332	1018934	42785	109323	0	0	8219	603892	0	0
2024-06-26 11:58:32			0	36757	0	0	0	25212	23800	143982	27039	1018943	42796	109322	0	0	8219	604107	0	0
2024-06-26 11:59:32			0	36770	0	0	0	25212	23800	143986	27319	1018890	42796	109322	0	0	8219	603568	0	0
2024-06-26 12:00:32			0	36770	0	0	0	25207	23790	143902	27320	1018934	42785	109320	0	0	8220	603601	0	0
2024-06-26 12:01:32			0	36787	0	0	0	25210	23800	143966	27345	1018970	42786	109321	0	0	8220	602862	0	0
2024-06-26 12:02:32			0	36794	0	0	0	25207	23790	143914	26875	1018934	42795	109320	0	0	8221	602606	0	0
2024-06-26 12:03:32			0	36775	0	0	0	25205	23800	143918	27339	1018863	42807	109319	0	0	8220	603360	0	0
2024-06-26 12:04:32			0	36773	0	0	0	25212	23800	143926	27270	1018916	42796	109322	0	0	8220	603443	0	0
2024-06-26 12:05:32			0	36775	0	0	0	25202	23800	143866	27234	1018978	42797	109318	0	0	8220	603360	0	0
2024-06-26 12:06:32			0	36780	0	0	0	25210	23800	143862	27343	1018952	42797	109321	0	0	8220	603153	0	0
2024-06-26 12:07:32			0	36788	0	0	0	25205	23800	143858	27353	1018890	42796	109319	0	0	8221	602821	0	0
2024-06-26 12:08:32			0	36773	0	0	0	25205	23800	143806	27041	1018916	42796	109319	0	0	8220	603443	0	0
2024-06-26 12:09:32			0	36810	0	0	0	25202	23790	143822	27130	1018934	42806	109318	0	0	8222	601943	0	0
2024-06-26 12:10:32			0	36784	0	0	0	25207	23800	143806	27357	1018925	42808	109320	0	0	8220	602987	0	0
2024-06-26 12:11:32			0	36783	0	0	0	25210	23800	143774	27371	1018916	42796	109321	0	0	8220	603028	0	0
2024-06-26 12:12:32			0	36799	0	0	0	25212	23800	143814	27334	1019023	42786	109322	0	0	8221	602365	0	0
2024-06-26 12:13:32			0	36819	0	0	0	25215	23810	143858	27215	1018987	42797	109323	0	0	8222	601503	0	0
2024-06-26 12:14:32			0	36820	0	0	0	25215	23810	143754	27298	1019022	42797	109323	0	0	8222	601461	0	0
2024-06-26 12:15:32			0	36822	0	0	0	25225	23810	143706	27227	1019014	42808	109327	0	0	8222	601378	0	0
2024-06-26 12:16:32			0	36818	0	0	0	25233	23810	143706	27317	1018960	42797	109330	0	0	8222	601544	0	0
2024-06-26 12:17:32			0	36828	0	0	0	25228	23800	143654	27111	1019032	42797	109328	0	0	8222	601164	0	0
2024-06-26 12:18:32			0	36842	0	0	0	25231	23810	143646	27495	1019022	42797	109329	0	0	8223	600551	0	0
2024-06-26 12:19:32			0	36824	0	0	0	25220	23810	143730	27334	1018996	42797	109325	0	0	8222	601296	0	0
2024-06-26 12:20:32			0	36851	0	0	0	25215	23810	143650	27524	1019022	42797	109323	0	0	8224	600179	0	0
2024-06-26 12:21:32			0	36827	0	0	0	25220	23810	143622	27209	1018987	42797	109325	0	0	8222	601172	0	0
2024-06-26 12:22:32			0	36846	0	0	0	25205	23800	143582	27220	1018898	42797	109319	0	0	8224	600419	0	0
2024-06-26 12:23:32			0	36851	0	0	0	25205	23810	143714	27123	1018934	42775	109319	0	0	8224	600179	0	0
2024-06-26 12:24:32			0	36845	0	0	0	25199	23800	143658	27138	1018916	42796	109317	0	0	8224	600461	0	0
2024-06-26 12:25:32			0	36840	0	0	0	25199	23810	143698	27414	1018907	42797	109317	0	0	8223	600634	0	0
2024-06-26 12:26:32			0	36845	0	0	0	25207	23800	143666	26913	1018952	42787	109320	0	0	8223	600461	0	0
2024-06-26 12:27:32			0	36851	0	0	0	25212	23790	143746	27282	1019015	42795	109322	0	0	8224	600246	0	0
2024-06-26 12:28:32			0	36843	0	0	0	25225	23800	143714	27358	1018952	42819	109327	0	0	8223	600543	0	0
2024-06-26 12:29:32			0	36829	0	0	0	25225	23800	143546	27092	1018952	42808	109327	0	0	8222	601123	0	0
2024-06-26 12:30:32			0	36843	0	0	0	25218	23800	143670	27369	1018978	42787	109324	0	0	8223	600543	0	0
2024-06-26 12:31:32			0	36853	0	0	0	25218	23810	143594	27230	1018942	42797	109324	0	0	8224	600096	0	0
2024-06-26 12:32:32			0	36848	0	0	0	25238	23810	143638	26942	1018987	42819	109332	0	0	8223	600303	0	0
2024-06-26 12:33:32			0	36843	0	0	0	25220	23810	143614	27227	1018987	42797	109325	0	0	8223	600510	0	0
2024-06-26 12:34:32			0	36844	0	0	0	25205	23810	143590	27242	1018907	42787	109319	0	0	8223	600468	0	0
2024-06-26 12:35:32			0	36873	0	0	0	25197	23800	143582	27045	1018925	42797	109316	0	0	8225	599304	0	0
2024-06-26 12:36:32			0	36863	0	0	0	25189	23800	143622	27421	1018952	42775	109313	0	0	8225	599717	0	0
2024-06-26 12:37:32			0	36850	0	0	0	25186	23800	143702	27483	1018916	42807	109312	0	0	8224	600254	0	0
2024-06-26 12:38:32			0	36873	0	0	0	25186	23800	143638	27313	1018890	42796	109312	0	0	8225	599304	0	0
2024-06-26 12:39:32			0	36876	0	0	0	25199	23790	143598	27310	1018854	42773	109317	0	0	8225	599214	0	0
2024-06-26 12:40:32			0	36863	0	0	0	25197	23800	143602	27235	1018916	42807	109316	0	0	8225	599717	0	0
2024-06-26 12:41:32			0	36869	0	0	0	25186	23800	143510	27270	1018943	42807	109312	0	0	8225	599469	0	0
2024-06-26 12:42:32			0	36899	0	0	0	25199	23800	143518	27312	1018978	42797	109317	0	0	8226	598231	0	0
2024-06-26 12:43:32			0	36867	0	0	0	25189	23790	143474	27005	1018934	42795	109313	0	0	8225	599585	0	0
2024-06-26 12:44:32			0	36898	0	0	0	25192	23790	143430	27033	1018934	42806	109314	0	0	8226	598306	0	0
2024-06-26 12:45:32			0	36904	0	0	0	25194	23790	143482	27007	1018872	42805	109315	0	0	8227	598058	0	0
2024-06-26 12:46:32			0	36913	0	0	0	25186	23790	143402	27260	1018934	42795	109312	0	0	8227	597687	0	0
2024-06-26 12:47:32			0	36897	0	0	0	25181	23800	143398	27206	1018916	42807	109310	0	0	8227	598313	0	0
2024-06-26 12:48:32			0	36912	0	0	0	25184	23790	143470	27187	1018819	42794	109311	0	0	8227	597728	0	0
2024-06-26 12:49:32			0	36901	0	0	0	25181	23780	143514	27377	1018864	42784	109310	0	0	8227	598215	0	0
2024-06-26 12:50:32			0	36895	0	0	0	25184	23780	143482	27327	1018810	42805	109311	0	0	8226	598463	0	0
2024-06-26 12:51:32			0	36927	0	0	0	25168	23790	143398	27109	1018766	42794	109305	0	0	8228	597110	0	0
2024-06-26 12:52:32			0	36930	0	0	0	25166	23780	143450	27166	1018810	42784	109304	0	0	8229	597020	0	0
2024-06-26 12:53:32			0	36960	0	0	0	25166	23780	143414	27407	1018810	42794	109304	0	0	8230	595785	0	0
2024-06-26 12:54:32			0	36944	0	0	0	25161	23780	143410	27241	1018775	42794	109302	0	0	8229	596443	0	0
2024-06-26 12:55:32			0	36966	0	0	0	25150	23770	143382	27535	1018704	42782	109298	0	0	8231	595572	0	0
2024-06-26 12:56:32			0	36971	0	0	0	25145	23760	143278	27447	1018722	42792	109296	0	0	8231	595400	0	0
2024-06-26 12:57:32			0	36968	0	0	0	25148	23770	143274	27156	1018758	42792	109297	0	0	8231	595490	0	0
2024-06-26 12:58:32			0	36967	0	0	0	25155	23770	143262	27133	1018758	42804	109300	0	0	8231	595531	0	0
2024-06-26 12:59:32			0	36984	0	0	0	25150	23770	143346	27268	1018758	42804	109298	0	0	8232	594832	0	0
2024-06-26 13:00:32			0	36976	0	0	0	25150	23750	143242	27270	1018732	42770	109298	0	0	8231	595228	0	0
2024-06-26 13:01:32			0	36997	0	0	0	25148	23760	143286	27400	1018749	42771	109297	0	0	8232	594331	0	0
2024-06-26 13:02:32			0	37008	0	0	0	25132	23760	143286	27485	1018642	42792	109291	0	0	8233	593880	0	0
2024-06-26 13:03:32			0	37004	0	0	0	25132	23750	143206	27053	1018652	42781	109291	0	0	8233	594077	0	0
2024-06-26 13:04:32			0	37007	0	0	0	25124	23730	143170	27107	1018653	42791	109288	0	0	8233	594021	0	0
2024-06-26 13:05:32			0	37012	0	0	0	25122	23750	143158	27441	1018670	42791	109287	0	0	8233	593749	0	0
2024-06-26 13:06:32			0	37018	0	0	0	25132	23720	143130	27298	1018555	42778	109291	0	0	8233	593603	0	0
2024-06-26 13:07:32			0	37028	0	0	0	25119	23750	143218	27390	1018670	42791	109286	0	0	8234	593092	0	0
2024-06-26 13:08:32			0	37035	0	0	0	25129	23740	142982	27149	1018608	42791	109290	0	0	8234	592839	0	0
2024-06-26 13:09:32			0	37031	0	0	0	25116	23720	143026	27289	1018547	42777	109285	0	0	8234	593070	0	0
2024-06-26 13:10:32			0	37045	0	0	0	25122	23730	143062	27194	1018599	42791	109287	0	0	8235	592462	0	0
2024-06-26 13:11:32			0	37038	0	0	0	25127	23720	143026	27067	1018555	42789	109289	0	0	8235	592783	0	0
2024-06-26 13:12:32			0	37065	0	0	0	25124	23720	143014	26934	1018547	42766	109288	0	0	8236	591676	0	0
2024-06-26 13:13:32			0	37061	0	0	0	25116	23720	143134	27253	1018573	42789	109285	0	0	8236	591840	0	0
2024-06-26 13:14:32			0	37060	0	0	0	25119	23720	143078	26989	1018573	42789	109286	0	0	8236	591881	0	0
2024-06-26 13:15:32			0	37068	0	0	0	25111	23720	143026	27194	1018600	42789	109283	0	0	8236	591553	0	0
2024-06-26 13:16:32			0	37066	0	0	0	25116	23720	142986	27341	1018573	42789	109285	0	0	8236	591635	0	0
2024-06-26 13:17:32			0	37083	0	0	0	25111	23700	143026	27133	1018539	42764	109283	0	0	8237	591006	0	0
2024-06-26 13:18:32			0	37051	0	0	0	25101	23710	142990	27145	1018458	42777	109279	0	0	8236	592283	0	0
2024-06-26 13:19:32			0	37068	0	0	0	25101	23700	143118	27639	1018468	42776	109279	0	0	8237	591620	0	0
2024-06-26 13:20:32			0	37075	0	0	0	25093	23710	143054	27346	1018503	42777	109276	0	0	8237	591300	0	0
2024-06-26 13:21:32			0	37054	0	0	0	25096	23700	142958	27149	1018486	42787	109277	0	0	8236	592193	0	0
2024-06-26 13:22:32			0	37071	0	0	0	25096	23710	143042	27524	1018511	42789	109277	0	0	8237	591464	0	0
2024-06-26 13:23:32			0	37068	0	0	0	25111	23700	143062	27109	1018494	42798	109283	0	0	8236	591620	0	0
2024-06-26 13:24:32			0	37062	0	0	0	25135	23710	143026	27182	1018618	42799	109292	0	0	8236	591832	0	0
2024-06-26 13:25:32			0	37057	0	0	0	25171	23730	143074	27246	1018778	42790	109306	0	0	8235	591971	0	0
2024-06-26 13:26:32			0	37068	0	0	0	25184	23750	143178	27543	1018830	42802	109311	0	0	8235	591453	0	0
2024-06-26 13:27:32			0	37065	0	0	0	25192	23750	143066	27305	1018777	42791	109314	0	0	8235	591576	0	0
2024-06-26 13:28:32			0	37062	0	0	0	25181	23750	143122	27145	1018812	42781	109310	0	0	8235	591699	0	0
2024-06-26 13:29:32			0	37050	0	0	0	25171	23750	143070	27102	1018777	42791	109306	0	0	8235	592191	0	0
2024-06-26 13:30:32			0	37055	0	0	0	25171	23750	143086	27308	1018777	42802	109306	0	0	8235	591986	0	0
2024-06-26 13:31:32			0	37051	0	0	0	25181	23780	143106	27293	1018909	42784	109310	0	0	8235	592050	0	0
2024-06-26 13:32:32			0	37031	0	0	0	25194	23770	143122	27433	1018811	42804	109315	0	0	8233	592903	0	0
2024-06-26 13:33:32			0	37040	0	0	0	25228	23780	143138	27107	1018989	42817	109328	0	0	8233	592500	0	0
2024-06-26 13:34:32			0	37034	0	0	0	25244	23790	143046	27305	1018979	42817	109334	0	0	8233	592713	0	0
2024-06-26 13:35:32			0	37038	0	0	0	25257	23790	143126	27173	1018988	42806	109339	0	0	8233	592549	0	0
2024-06-26 13:36:32			0	37040	0	0	0	25257	23800	143182	27429	1019103	42807	109339	0	0	8233	592433	0	0
2024-06-26 13:37:32			0	37038	0	0	0	25249	23810	143142	27371	1019201	42808	109336	0	0	8233	592482	0	0
2024-06-26 13:38:32			0	37022	0	0	0	25264	23820	143218	27300	1019218	42820	109342	0	0	8232	593105	0	0
2024-06-26 13:39:32			0	37019	0	0	0	25296	23830	143142	27345	1019298	42810	109354	0	0	8231	593194	0	0
2024-06-26 13:40:32			0	37025	0	0	0	25332	23840	143174	27086	1019386	42811	109368	0	0	8231	592915	0	0
2024-06-26 13:41:32			0	37002	0	0	0	25353	23860	143182	27386	1019501	42824	109376	0	0	8229	593792	0	0
2024-06-26 13:42:32			0	37005	0	0	0	25368	23860	143202	27455	1019563	42814	109382	0	0	8229	593668	0	0
2024-06-26 13:43:32			0	37014	0	0	0	25386	23890	143150	27409	1019633	42828	109389	0	0	8230	593199	0	0
2024-06-26 13:44:32			0	36998	0	0	0	25412	23900	143250	27452	1019703	42805	109399	0	0	8228	593822	0	0
2024-06-26 13:45:32			0	37015	0	0	0	25415	23920	143218	27041	1019711	42807	109400	0	0	8229	593058	0	0
2024-06-26 13:46:32			0	36995	0	0	0	25428	23910	143234	26982	1019729	42818	109405	0	0	8228	593911	0	0
2024-06-26 13:47:32			0	36976	0	0	0	25433	23930	143186	27128	1019844	42820	109407	0	0	8227	594624	0	0
2024-06-26 13:48:32			0	36986	0	0	0	25431	23930	143166	26913	1019817	42809	109406	0	0	8228	594214	0	0
2024-06-26 13:49:32			0	36988	0	0	0	25431	23940	143162	27052	1019808	42821	109406	0	0	8228	594098	0	0
2024-06-26 13:50:32			0	36985	0	0	0	25436	23960	143198	27267	1019923	42823	109408	0	0	8228	594154	0	0
2024-06-26 13:51:32			0	36991	0	0	0	25428	23960	143286	26804	1019914	42833	109405	0	0	8228	593908	0	0
2024-06-26 13:52:32			0	36985	0	0	0	25431	23960	143134	27130	1019923	42823	109406	0	0	8228	594154	0	0
2024-06-26 13:53:32			0	36974	0	0	0	25433	23960	143114	27352	1019949	42823	109407	0	0	8227	594606	0	0
2024-06-26 13:54:32			0	36983	0	0	0	25436	23970	143058	27090	1019913	42814	109408	0	0	8228	594203	0	0
2024-06-26 13:55:32			0	36988	0	0	0	25428	23970	143150	27144	1019886	42825	109405	0	0	8228	593998	0	0
2024-06-26 13:56:32			0	36953	0	0	0	25431	23980	143122	27357	1019930	42814	109406	0	0	8226	595402	0	0
2024-06-26 13:57:32			0	36967	0	0	0	25428	23980	143082	27046	1019904	42825	109405	0	0	8227	594827	0	0
2024-06-26 13:58:32			0	36952	0	0	0	25438	23980	143146	27272	1019895	42825	109409	0	0	8226	595443	0	0
2024-06-26 13:59:32			0	36964	0	0	0	25423	23990	143170	27215	1019966	42826	109403	0	0	8227	594916	0	0
2024-06-26 14:00:32			0	36974	0	0	0	25425	23980	143158	27229	1019930	42825	109404	0	0	8227	594539	0	0
2024-06-26 14:01:32			0	36966	0	0	0	25428	23990	143170	27289	1019939	42814	109405	0	0	8227	594834	0	0
2024-06-26 14:02:32			0	36953	0	0	0	25428	23980	143130	27332	1019930	42825	109405	0	0	8226	595402	0	0
2024-06-26 14:03:32			0	36968	0	0	0	25428	23990	143182	27300	1019912	42814	109405	0	0	8227	594752	0	0
2024-06-26 14:04:32			0	36956	0	0	0	25420	23990	143222	27130	1019948	42804	109402	0	0	8226	595245	0	0
2024-06-26 14:05:32			0	36963	0	0	0	25423	23990	143122	27124	1019966	42803	109403	0	0	8227	594957	0	0
2024-06-26 14:06:32			0	36958	0	0	0	25428	23990	143194	27065	1019912	42814	109405	0	0	8226	595163	0	0
2024-06-26 14:07:32			0	36962	0	0	0	25420	23990	143154	27215	1019921	42827	109402	0	0	8227	594998	0	0
2024-06-26 14:08:32			0	36976	0	0	0	25436	24000	143122	27055	1019992	42828	109408	0	0	8227	594390	0	0
2024-06-26 14:09:32			0	36974	0	0	0	25433	23990	143042	27268	1019974	42815	109407	0	0	8227	594506	0	0
2024-06-26 14:10:32			0	36969	0	0	0	25436	24000	143062	27216	1020036	42827	109408	0	0	8227	594677	0	0
2024-06-26 14:11:32			0	36984	0	0	0	25433	24000	143126	27046	1019983	42815	109407	0	0	8228	594061	0	0
2024-06-26 14:12:32			0	36985	0	0	0	25423	24000	143006	26913	1019983	42815	109403	0	0	8228	594020	0	0
2024-06-26 14:13:32			0	36971	0	0	0	25428	24000	142938	27272	1019983	42815	109405	0	0	8227	594595	0	0
2024-06-26 14:14:32			0	36984	0	0	0	25433	24000	142994	26882	1019965	42816	109407	0	0	8228	594061	0	0
2024-06-26 14:15:32			0	36997	0	0	0	25425	24020	143006	27282	1019991	42829	109404	0	0	8229	593461	0	0
2024-06-26 14:16:32			0	36973	0	0	0	25423	24010	142990	27274	1019973	42828	109403	0	0	8227	594480	0	0
2024-06-26 14:17:32			0	37003	0	0	0	25420	24000	143006	27189	1019885	42838	109402	0	0	8229	593282	0	0
2024-06-26 14:18:32			0	36993	0	0	0	25425	24010	142958	27033	1019973	42816	109404	0	0	8228	593659	0	0
2024-06-26 14:19:32			0	37019	0	0	0	25423	24010	142886	27306	1020000	42816	109403	0	0	8230	592593	0	0
2024-06-26 14:20:32			0	36995	0	0	0	25412	24000	142994	27317	1019992	42828	109399	0	0	8229	593610	0	0
2024-06-26 14:21:32			0	36990	0	0	0	25412	23990	142930	27173	1019948	42837	109399	0	0	8228	593849	0	0
2024-06-26 14:22:32			0	37014	0	0	0	25420	24000	142990	27267	1019992	42816	109402	0	0	8230	592831	0	0
2024-06-26 14:23:32			0	37001	0	0	0	25418	23990	143010	27015	1019921	42815	109401	0	0	8229	593398	0	0
2024-06-26 14:24:32			0	36994	0	0	0	25415	24000	143014	27329	1019956	42827	109400	0	0	8229	593651	0	0
2024-06-26 14:25:32			0	37004	0	0	0	25423	24000	142954	27109	1019938	42828	109403	0	0	8229	593241	0	0
2024-06-26 14:26:32			0	36977	0	0	0	25431	24010	142986	27168	1020000	42828	109406	0	0	8227	594315	0	0
2024-06-26 14:27:32			0	36979	0	0	0	25436	23990	143078	27041	1020028	42837	109408	0	0	8227	594300	0	0
2024-06-26 14:28:32			0	36982	0	0	0	25436	24000	143110	27568	1020018	42838	109408	0	0	8228	594144	0	0
2024-06-26 14:29:32			0	36960	0	0	0	25444	24010	143174	27517	1020054	42828	109411	0	0	8226	595013	0	0
2024-06-26 14:30:32			0	36929	0	0	0	25444	24020	143362	27229	1020106	42840	109411	0	0	8225	596254	0	0
2024-06-26 14:31:32			0	36900	0	0	0	25449	24010	143386	27033	1020089	42829	109413	0	0	8223	597482	0	0
2024-06-26 14:32:32			0	36859	0	0	0	25454	24010	143598	27104	1020062	42829	109415	0	0	8221	599173	0	0
2024-06-26 14:33:32			0	36825	0	0	0	25459	24030	143658	27348	1020142	42818	109417	0	0	8219	600509	0	0
2024-06-26 14:34:32			0	36779	0	0	0	25462	24030	143714	27253	1020168	42829	109418	0	0	8217	602413	0	0
2024-06-26 14:35:32			0	36760	0	0	0	25472	24020	143830	27474	1020133	42840	109422	0	0	8215	603234	0	0
2024-06-26 14:36:32			0	36752	0	0	0	25477	24020	143958	27578	1020213	42840	109424	0	0	8215	603566	0	0
2024-06-26 14:37:32			0	36701	0	0	0	25477	24040	144134	27249	1020212	42842	109424	0	0	8212	605616	0	0
2024-06-26 14:38:32			0	36695	0	0	0	25501	24050	144186	27386	1020229	42831	109433	0	0	8212	605831	0	0
2024-06-26 14:39:32			0	36644	0	0	0	25509	24050	144234	27336	1020310	42831	109436	0	0	8209	607954	0	0
2024-06-26 14:40:32			0	36619	0	0	0	25511	24070	144322	27201	1020282	42843	109437	0	0	8208	608928	0	0
2024-06-26 14:41:32			0	36598	0	0	0	25532	24070	144365	27133	1020416	42833	109445	0	0	8206	609805	0	0
2024-06-26 14:42:32			0	36581	0	0	0	25548	24080	144601	27708	1020362	42845	109451	0	0	8205	610481	0	0
2024-06-26 14:43:32			0	36557	0	0	0	25548	24080	144665	27242	1020407	42833	109451	0	0	8204	611485	0	0
2024-06-26 14:44:32			0	36526	0	0	0	25555	24090	144741	27237	1020459	42835	109454	0	0	8202	612748	0	0
2024-06-26 14:45:32			0	36523	0	0	0	25566	24090	144781	27053	1020486	42835	109458	0	0	8202	612874	0	0
2024-06-26 14:46:32			0	36494	0	0	0	25573	24100	144837	27521	1020557	42847	109461	0	0	8200	614056	0	0
2024-06-26 14:47:32			0	36459	0	0	0	25576	24110	144949	27013	1020619	42836	109462	0	0	8198	615491	0	0
2024-06-26 14:48:32			0	36451	0	0	0	25586	24120	145021	27426	1020618	42849	109466	0	0	8198	615793	0	0
2024-06-26 14:49:32			0	36441	0	0	0	25592	24120	145073	27242	1020645	42849	109468	0	0	8197	616213	0	0
2024-06-26 14:50:32			0	36395	0	0	0	25586	24130	145101	27360	1020653	42849	109466	0	0	8195	618116	0	0
2024-06-26 14:51:32			0	36408	0	0	0	25592	24140	145213	27149	1020644	42840	109468	0	0	8195	617533	0	0
2024-06-26 14:52:32			0	36377	0	0	0	25597	24140	145173	27345	1020670	42851	109470	0	0	8194	618840	0	0
2024-06-26 14:53:32			0	36376	0	0	0	25586	24150	145337	26972	1020714	42841	109466	0	0	8194	618847	0	0
2024-06-26 14:54:32			0	36385	0	0	0	25592	24150	145245	27312	1020696	42852	109468	0	0	8194	618467	0	0
2024-06-26 14:55:32			0	36364	0	0	0	25592	24140	145281	27391	1020706	42851	109468	0	0	8193	619388	0	0
2024-06-26 14:56:32			0	36385	0	0	0	25592	24150	145193	27364	1020670	42841	109468	0	0	8194	618467	0	0
2024-06-26 14:57:32			0	36390	0	0	0	25592	24150	145205	27412	1020714	42852	109468	0	0	8195	618257	0	0
2024-06-26 14:58:32			0	36390	0	0	0	25594	24150	145229	27530	1020670	42863	109469	0	0	8195	618257	0	0
2024-06-26 14:59:32			0	36415	0	0	0	25589	24150	145181	27274	1020670	42841	109467	0	0	8196	617203	0	0
2024-06-26 15:00:32			0	36394	0	0	0	25592	24160	145193	27400	1020705	42853	109468	0	0	8195	618053	0	0
2024-06-26 15:01:32			0	36395	0	0	0	25581	24160	145181	27182	1020678	42853	109464	0	0	8195	618011	0	0
2024-06-26 15:02:32			0	36404	0	0	0	25584	24160	145145	27326	1020732	42853	109465	0	0	8195	617632	0	0
2024-06-26 15:03:32			0	36383	0	0	0	25592	24160	145149	27517	1020705	42831	109468	0	0	8194	618517	0	0
2024-06-26 15:04:32			0	36404	0	0	0	25589	24160	145137	27386	1020732	42842	109467	0	0	8195	617632	0	0
2024-06-26 15:05:32			0	36413	0	0	0	25592	24170	145077	27220	1020802	42854	109468	0	0	8196	617218	0	0
2024-06-26 15:06:32			0	36412	0	0	0	25589	24170	145085	27395	1020722	42854	109467	0	0	8196	617260	0	0
2024-06-26 15:07:32			0	36417	0	0	0	25594	24170	145113	27232	1020749	42854	109469	0	0	8196	617049	0	0
2024-06-26 15:08:32			0	36404	0	0	0	25592	24170	145085	27434	1020749	42854	109468	0	0	8195	617597	0	0
2024-06-26 15:09:32			0	36435	0	0	0	25584	24160	145013	27374	1020732	42842	109465	0	0	8197	616326	0	0
2024-06-26 15:10:32			0	36427	0	0	0	25602	24170	145121	27512	1020829	42854	109472	0	0	8196	616629	0	0
2024-06-26 15:11:32			0	36421	0	0	0	25584	24170	145093	27353	1020749	42842	109465	0	0	8196	616881	0	0
2024-06-26 15:12:32			0	36415	0	0	0	25592	24190	145073	27060	1020784	42833	109468	0	0	8196	617064	0	0
2024-06-26 15:13:32			0	36433	0	0	0	25594	24170	145021	27107	1020757	42842	109469	0	0	8197	616376	0	0
2024-06-26 15:14:32			0	36412	0	0	0	25597	24180	145125	27126	1020820	42855	109470	0	0	8196	617225	0	0
2024-06-26 15:15:32			0	36437	0	0	0	25602	24180	145141	27029	1020766	42843	109472	0	0	8197	616173	0	0
2024-06-26 15:16:32			0	36430	0	0	0	25602	24180	144981	27345	1020793	42855	109472	0	0	8197	616467	0	0
2024-06-26 15:17:32			0	36448	0	0	0	25607	24170	145037	27317	1020864	42854	109474	0	0	8197	615745	0	0
2024-06-26 15:18:32			0	36437	0	0	0	25597	24180	144997	27407	1020775	42844	109470	0	0	8197	616173	0	0
2024-06-26 15:19:32			0	36454	0	0	0	25602	24180	145009	27362	1020828	42856	109472	0	0	8198	615458	0	0
2024-06-26 15:20:32			0	36472	0	0	0	25597	24180	144929	27166	1020820	42843	109470	0	0	8199	614702	0	0
2024-06-26 15:21:32			0	36462	0	0	0	25589	24180	144909	27204	1020766	42855	109467	0	0	8199	615122	0	0
2024-06-26 15:22:32			0	36473	0	0	0	25597	24170	144813	27201	1020784	42842	109470	0	0	8199	614695	0	0
2024-06-26 15:23:32			0	36490	0	0	0	25589	24170	144813	27481	1020757	42854	109467	0	0	8200	613981	0	0
2024-06-26 15:24:32			0	36488	0	0	0	25594	24180	144797	26972	1020820	42855	109469	0	0	8200	614030	0	0
2024-06-26 15:25:32			0	36518	0	0	0	25589	24180	144745	27531	1020801	42833	109467	0	0	8201	612772	0	0
2024-06-26 15:26:32			0	36513	0	0	0	25602	24180	144713	27338	1020793	42855	109472	0	0	8201	612982	0	0
2024-06-26 15:27:32			0	36551	0	0	0	25597	24180	144661	27341	1020775	42856	109470	0	0	8203	611391	0	0
2024-06-26 15:28:32			0	36551	0	0	0	25605	24180	144629	27391	1020793	42855	109473	0	0	8203	611391	0	0
2024-06-26 15:29:32			0	36541	0	0	0	25610	24180	144593	27388	1020793	42855	109475	0	0	8202	611809	0	0
2024-06-26 15:30:32			0	36565	0	0	0	25605	24180	144377	27339	1020793	42843	109473	0	0	8204	610805	0	0
2024-06-26 15:31:32			0	36566	0	0	0	25602	24170	144509	27281	1020838	42842	109472	0	0	8204	610798	0	0
2024-06-26 15:32:32			0	36576	0	0	0	25599	24170	144509	27209	1020811	42842	109471	0	0	8204	610380	0	0
2024-06-26 15:33:32			0	36580	0	0	0	25592	24180	144493	27253	1020820	42843	109468	0	0	8205	610178	0	0
2024-06-26 15:34:32			0	36560	0	0	0	25592	24190	144577	27088	1020810	42856	109468	0	0	8204	610980	0	0
2024-06-26 15:35:32			0	36571	0	0	0	25592	24170	144477	27270	1020811	42832	109468	0	0	8204	610589	0	0
2024-06-26 15:36:32			0	36571	0	0	0	25586	24170	144501	27121	1020802	42842	109466	0	0	8204	610589	0	0
2024-06-26 15:37:32			0	36544	0	0	0	25586	24180	144633	27301	1020855	42844	109466	0	0	8203	611684	0	0
2024-06-26 15:38:32			0	36546	0	0	0	25597	24170	144517	26793	1020784	42832	109470	0	0	8203	611634	0	0
2024-06-26 15:39:32			0	36542	0	0	0	25599	24170	144601	27066	1020784	42854	109471	0	0	8203	611802	0	0
2024-06-26 15:40:32			0	36549	0	0	0	25599	24180	144573	27055	1020882	42844	109471	0	0	8203	611474	0	0
2024-06-26 15:41:32			0	36567	0	0	0	25594	24170	144533	27081	1020838	42854	109469	0	0	8204	610756	0	0
2024-06-26 15:42:32			0	36569	0	0	0	25592	24180	144637	27213	1020820	42855	109468	0	0	8204	610638	0	0
2024-06-26 15:43:32			0	36547	0	0	0	25602	24170	144613	27204	1020784	42865	109472	0	0	8203	611593	0	0
2024-06-26 15:44:32			0	36521	0	0	0	25605	24180	144685	27436	1020820	42843	109473	0	0	8201	612647	0	0
2024-06-26 15:45:32			0	36507	0	0	0	25612	24180	144701	27421	1020873	42843	109476	0	0	8201	613233	0	0
2024-06-26 15:46:32			0	36491	0	0	0	25607	24180	144821	27218	1020855	42856	109474	0	0	8200	613904	0	0
2024-06-26 15:47:32			0	36494	0	0	0	25610	24190	144741	27298	1020872	42844	109475	0	0	8200	613744	0	0
2024-06-26 15:48:32			0	36501	0	0	0	25618	24180	144693	27469	1020882	42856	109478	0	0	8200	613485	0	0
2024-06-26 15:49:32			0	36516	0	0	0	25628	24190	144713	27393	1020944	42867	109482	0	0	8201	612822	0	0
2024-06-26 15:50:32			0	36546	0	0	0	25625	24200	144593	27306	1020908	42857	109481	0	0	8202	611531	0	0
2024-06-26 15:51:32			0	36555	0	0	0	25636	24200	144541	27367	1021068	42868	109485	0	0	8203	611154	0	0
2024-06-26 15:52:32			0	36574	0	0	0	25633	24210	144473	27462	1020987	42857	109484	0	0	8204	610326	0	0
2024-06-26 15:53:32			0	36598	0	0	0	25638	24210	144417	27614	1021059	42857	109486	0	0	8205	609324	0	0
2024-06-26 15:54:32			0	36593	0	0	0	25654	24220	144309	27161	1021192	42871	109492	0	0	8205	609498	0	0
2024-06-26 15:55:32			0	36611	0	0	0	25651	24220	144374	27441	1021138	42848	109491	0	0	8206	608747	0	0
2024-06-26 15:56:32			0	36630	0	0	0	25659	24230	144210	27268	1021120	42871	109494	0	0	8206	607920	0	0
2024-06-26 15:57:32			0	36622	0	0	0	25667	24230	144330	27194	1021173	42859	109497	0	0	8206	608254	0	0
2024-06-26 15:58:32			0	36615	0	0	0	25672	24240	144302	27251	1021244	42849	109499	0	0	8205	608511	0	0
2024-06-26 15:59:32			0	36619	0	0	0	25685	24240	144318	27204	1021271	42872	109504	0	0	8205	608345	0	0
2024-06-26 16:00:32			0	36631	0	0	0	25693	24250	144174	27187	1021324	42851	109507	0	0	8206	607810	0	0
2024-06-26 16:01:32			0	36638	0	0	0	25701	24260	144214	27138	1021341	42863	109510	0	0	8206	607484	0	0
2024-06-26 16:02:32			0	36653	0	0	0	25698	24280	144234	27448	1021313	42853	109509	0	0	8207	606791	0	0
2024-06-26 16:03:32			0	36643	0	0	0	25716	24270	144242	27403	1021411	42853	109516	0	0	8206	607242	0	0
2024-06-26 16:04:32			0	36640	0	0	0	25709	24280	144142	27255	1021367	42864	109513	0	0	8206	607332	0	0
2024-06-26 16:05:32			0	36652	0	0	0	25724	24290	144070	27289	1021473	42855	109519	0	0	8207	606799	0	0
2024-06-26 16:06:32			0	36662	0	0	0	25735	24310	144162	27320	1021473	42868	109523	0	0	8207	606314	0	0
2024-06-26 16:07:32			0	36627	0	0	0	25737	24310	144174	27343	1021580	42856	109524	0	0	8205	607771	0	0
2024-06-26 16:08:32			0	36662	0	0	0	25737	24320	144238	27218	1021535	42857	109524	0	0	8207	606280	0	0
2024-06-26 16:09:32			0	36645	0	0	0	25742	24320	144162	27305	1021570	42869	109526	0	0	8206	606987	0	0
2024-06-26 16:10:32			0	36635	0	0	0	25745	24320	144198	27118	1021597	42869	109527	0	0	8206	607403	0	0
2024-06-26 16:11:32			0	36632	0	0	0	25761	24340	144126	27345	1021676	42870	109533	0	0	8205	607460	0	0
2024-06-26 16:12:32			0	36635	0	0	0	25763	24340	144154	27220	1021631	42859	109534	0	0	8205	607335	0	0
2024-06-26 16:13:32			0	36636	0	0	0	25784	24350	144154	27346	1021729	42860	109542	0	0	8205	607259	0	0
2024-06-26 16:14:32			0	36631	0	0	0	25797	24360	144186	27365	1021764	42872	109547	0	0	8205	607433	0	0
2024-06-26 16:15:32			0	36649	0	0	0	25812	24370	144114	27326	1021835	42872	109553	0	0	8205	606649	0	0
2024-06-26 16:16:32			0	36645	0	0	0	25828	24370	144114	27088	1021924	42884	109559	0	0	8205	606816	0	0
2024-06-26 16:17:32			0	36673	0	0	0	25833	24390	144126	27405	1021958	42875	109561	0	0	8206	605583	0	0
2024-06-26 16:18:32			0	36669	0	0	0	25841	24410	144030	27429	1022011	42866	109564	0	0	8206	605681	0	0
2024-06-26 16:19:32			0	36687	0	0	0	25836	24410	144002	27213	1021984	42876	109562	0	0	8207	604933	0	0
2024-06-26 16:20:32			0	36726	0	0	0	25851	24420	143878	27104	1022055	42867	109568	0	0	8209	603281	0	0
2024-06-26 16:21:32			0	36718	0	0	0	25838	24430	143838	27326	1022072	42856	109563	0	0	8209	603579	0	0
2024-06-26 16:22:32			0	36733	0	0	0	25846	24440	143854	27379	1022063	42890	109566	0	0	8210	602923	0	0
2024-06-26 16:23:32			0	36737	0	0	0	25841	24430	143770	27642	1021992	42856	109564	0	0	8210	602792	0	0
2024-06-26 16:24:32			0	36730	0	0	0	25838	24420	143802	27452	1022010	42867	109563	0	0	8209	603116	0	0
2024-06-26 16:25:32			0	36737	0	0	0	25851	24440	143710	27412	1022063	42890	109568	0	0	8210	602758	0	0
2024-06-26 16:26:32			0	36732	0	0	0	25859	24440	143746	27144	1022143	42890	109571	0	0	8209	602965	0	0
2024-06-26 16:27:32			0	36743	0	0	0	25862	24440	143790	27275	1022179	42869	109572	0	0	8210	602509	0	0
2024-06-26 16:28:32			0	36755	0	0	0	25875	24450	143714	27201	1022196	42859	109577	0	0	8210	601978	0	0
2024-06-26 16:29:32			0	36740	0	0	0	25885	24460	143734	27140	1022258	42892	109581	0	0	8209	602565	0	0
2024-06-26 16:30:32			0	36733	0	0	0	25883	24470	143778	27391	1022302	42894	109580	0	0	8209	602821	0	0
2024-06-26 16:31:32			0	36735	0	0	0	25890	24470	143782	27464	1022302	42882	109583	0	0	8209	602738	0	0
2024-06-26 16:32:32			0	36722	0	0	0	25903	24470	143790	27256	1022364	42894	109588	0	0	8208	603277	0	0
2024-06-26 16:33:32			0	36726	0	0	0	25906	24490	143782	27448	1022337	42896	109589	0	0	8208	603043	0	0
2024-06-26 16:34:32			0	36715	0	0	0	25914	24480	143790	27301	1022319	42872	109592	0	0	8208	603533	0	0
2024-06-26 16:35:32			0	36712	0	0	0	25916	24500	143814	27474	1022381	42884	109593	0	0	8208	603589	0	0
2024-06-26 16:36:32			0	36721	0	0	0	25919	24500	143706	27275	1022488	42874	109594	0	0	8208	603216	0	0
2024-06-26 16:37:32			0	36724	0	0	0	25911	24500	143694	27227	1022434	42874	109591	0	0	8208	603092	0	0
2024-06-26 16:38:32			0	36743	0	0	0	25929	24500	143718	27535	1022469	42875	109598	0	0	8209	602305	0	0
2024-06-26 16:39:32			0	36750	0	0	0	25911	24510	143782	27450	1022460	42897	109591	0	0	8210	601981	0	0
2024-06-26 16:40:32			0	36751	0	0	0	25924	24510	143642	27384	1022451	42865	109596	0	0	8209	601940	0	0
2024-06-26 16:41:32			0	36761	0	0	0	25929	24520	143570	27493	1022450	42887	109598	0	0	8210	601492	0	0
2024-06-26 16:42:32			0	36765	0	0	0	25927	24510	143618	27383	1022487	42886	109597	0	0	8210	601361	0	0
2024-06-26 16:43:32			0	36782	0	0	0	25922	24520	143554	27298	1022477	42876	109595	0	0	8211	600624	0	0
2024-06-26 16:44:32			0	36776	0	0	0	25906	24520	143458	27391	1022450	42887	109589	0	0	8211	600872	0	0
2024-06-26 16:45:32			0	36791	0	0	0	25903	24510	143482	27254	1022425	42875	109588	0	0	8212	600287	0	0
2024-06-26 16:46:32			0	36795	0	0	0	25909	24510	143458	27478	1022460	42875	109590	0	0	8212	600122	0	0
2024-06-26 16:47:32			0	36805	0	0	0	25903	24520	143466	27390	1022397	42887	109588	0	0	8213	599675	0	0
2024-06-26 16:48:32			0	36812	0	0	0	25893	24520	143322	27190	1022442	42866	109584	0	0	8213	599386	0	0
2024-06-26 16:49:32			0	36828	0	0	0	25883	24510	143282	27395	1022299	42865	109580	0	0	8214	598760	0	0
2024-06-26 16:50:32			0	36827	0	0	0	25864	24500	143242	27072	1022336	42885	109573	0	0	8214	598835	0	0
2024-06-26 16:51:32			0	36852	0	0	0	25870	24500	143226	27445	1022255	42864	109575	0	0	8216	597805	0	0
2024-06-26 16:52:32			0	36853	0	0	0	25870	24500	143126	27564	1022362	42864	109575	0	0	8216	597764	0	0
2024-06-26 16:53:32			0	36859	0	0	0	25875	24500	143086	27505	1022336	42875	109577	0	0	8216	597517	0	0
2024-06-26 16:54:32			0	36867	0	0	0	25880	24510	143102	27364	1022344	42875	109579	0	0	8216	597154	0	0
2024-06-26 16:55:32			0	36868	0	0	0	25885	24500	143130	27526	1022416	42864	109581	0	0	8216	597147	0	0
2024-06-26 16:56:32			0	36887	0	0	0	25890	24510	142958	27329	1022398	42875	109583	0	0	8217	596332	0	0
2024-06-26 16:57:32			0	36905	0	0	0	25883	24510	143122	27403	1022398	42886	109580	0	0	8218	595592	0	0
2024-06-26 16:58:32			0	36914	0	0	0	25880	24510	142966	27332	1022398	42875	109579	0	0	8219	595222	0	0
2024-06-26 16:59:32			0	36913	0	0	0	25877	24510	143014	27154	1022371	42886	109578	0	0	8219	595264	0	0
2024-06-26 17:00:32			0	36889	0	0	0	25867	24500	142990	27185	1022274	42863	109574	0	0	8218	596283	0	0
2024-06-26 17:01:32			0	36920	0	0	0	25872	24500	142894	27105	1022354	42874	109576	0	0	8219	595010	0	0
2024-06-26 17:02:32			0	36920	0	0	0	25888	24500	142978	27447	1022389	42875	109582	0	0	8219	595010	0	0
2024-06-26 17:03:32			0	36938	0	0	0	25909	24510	143038	27116	1022460	42886	109590	0	0	8220	594238	0	0
2024-06-26 17:04:32			0	36938	0	0	0	25914	24520	142942	27258	1022495	42876	109592	0	0	8219	594204	0	0
2024-06-26 17:05:32			0	36932	0	0	0	25922	24530	142910	27256	1022486	42866	109595	0	0	8219	594417	0	0
2024-06-26 17:06:32			0	36933	0	0	0	25929	24520	143006	26899	1022584	42866	109598	0	0	8219	594409	0	0
2024-06-26 17:07:32			0	36925	0	0	0	25924	24530	142970	27216	1022601	42867	109596	0	0	8219	594704	0	0
2024-06-26 17:08:32			0	36927	0	0	0	25911	24530	142934	27281	1022486	42877	109591	0	0	8219	594622	0	0
2024-06-26 17:09:32			0	36918	0	0	0	25901	24530	142910	27298	1022521	42867	109587	0	0	8219	594991	0	0
2024-06-26 17:10:32			0	36921	0	0	0	25914	24530	142914	27376	1022486	42877	109592	0	0	8219	594868	0	0
2024-06-26 17:11:32			0	36930	0	0	0	25927	24540	142862	27307	1022637	42878	109597	0	0	8219	594465	0	0
2024-06-26 17:12:32			0	36944	0	0	0	25937	24540	142890	26981	1022744	42878	109601	0	0	8219	593891	0	0
2024-06-26 17:13:32			0	36927	0	0	0	25937	24550	142878	26854	1022681	42868	109601	0	0	8219	594555	0	0
2024-06-26 17:14:32			0	36928	0	0	0	25953	24540	142842	27381	1022726	42878	109607	0	0	8218	594547	0	0
2024-06-26 17:15:32			0	36951	0	0	0	25979	24560	142794	27274	1022814	42869	109617	0	0	8219	593537	0	0
2024-06-26 17:16:32			0	36950	0	0	0	25994	24560	142878	27246	1022805	42891	109623	0	0	8219	593578	0	0
2024-06-26 17:17:32			0	36934	0	0	0	26007	24570	142942	27450	1022805	42904	109628	0	0	8218	594200	0	0
2024-06-26 17:18:32			0	36939	0	0	0	26025	24580	142886	27071	1022929	42882	109635	0	0	8218	593962	0	0
2024-06-26 17:19:32			0	36945	0	0	0	26036	24590	142866	27362	1022919	42895	109639	0	0	8218	593682	0	0
2024-06-26 17:20:32			0	36932	0	0	0	26044	24590	142802	27308	1023000	42883	109642	0	0	8217	594215	0	0
2024-06-26 17:21:32			0	36945	0	0	0	26041	24600	142882	27183	1022982	42883	109641	0	0	8218	593649	0	0
2024-06-26 17:22:32			0	36932	0	0	0	26041	24590	142886	27055	1022919	42895	109641	0	0	8217	594215	0	0
2024-06-26 17:23:32			0	36929	0	0	0	26038	24620	142834	27305	1022981	42875	109640	0	0	8217	594237	0	0
2024-06-26 17:24:32			0	36938	0	0	0	26046	24620	142822	27171	1022989	42886	109643	0	0	8218	593868	0	0
2024-06-26 17:25:32			0	36934	0	0	0	26057	24620	142934	26998	1023123	42897	109647	0	0	8217	594032	0	0
2024-06-26 17:26:32			0	36949	0	0	0	26059	24630	142906	26769	1023033	42875	109648	0	0	8218	593384	0	0
2024-06-26 17:27:32			0	36951	0	0	0	26059	24630	142842	27140	1023078	42897	109648	0	0	8218	593302	0	0
2024-06-26 17:28:32			0	36932	0	0	0	26059	24640	142894	27277	1023096	42898	109648	0	0	8217	594047	0	0
2024-06-26 17:29:32			0	36931	0	0	0	26057	24640	142882	27377	1023149	42876	109647	0	0	8217	594088	0	0
2024-06-26 17:30:32			0	36932	0	0	0	26062	24640	142898	27218	1023096	42898	109649	0	0	8217	594047	0	0
2024-06-26 17:31:32			0	36944	0	0	0	26041	24650	142746	27176	1023140	42888	109641	0	0	8218	593522	0	0
2024-06-26 17:32:32			0	36940	0	0	0	26028	24650	142854	27393	1023006	42899	109636	0	0	8218	593685	0	0
2024-06-26 17:33:32			0	36946	0	0	0	26025	24640	142774	27154	1023069	42876	109635	0	0	8219	593473	0	0
2024-06-26 17:34:32			0	36947	0	0	0	26012	24640	142786	27092	1023015	42887	109630	0	0	8219	593432	0	0
2024-06-26 17:35:32			0	36926	0	0	0	26010	24640	142750	27173	1022997	42888	109629	0	0	8218	594293	0	0
2024-06-26 17:36:32			0	36936	0	0	0	26010	24630	142822	27405	1022953	42897	109629	0	0	8218	593916	0	0
2024-06-26 17:37:32			0	36949	0	0	0	26015	24630	142846	27261	1023087	42886	109631	0	0	8219	593384	0	0
2024-06-26 17:38:32			0	36957	0	0	0	26028	24640	142814	27027	1023069	42887	109636	0	0	8219	593023	0	0
2024-06-26 17:39:32			0	36946	0	0	0	26036	24640	142770	27315	1023131	42899	109639	0	0	8218	593473	0	0
2024-06-26 17:40:32			0	36945	0	0	0	26038	24650	142798	27190	1023113	42877	109640	0	0	8218	593481	0	0
2024-06-26 17:41:32			0	36940	0	0	0	26051	24650	142842	27142	1023175	42900	109645	0	0	8218	593685	0	0
2024-06-26 17:42:32			0	36930	0	0	0	26059	24650	142858	27287	1023175	42889	109648	0	0	8217	594095	0	0
2024-06-26 17:43:32			0	36923	0	0	0	26057	24650	142914	27254	1023166	42899	109647	0	0	8217	594382	0	0
2024-06-26 17:44:32			0	36917	0	0	0	26057	24660	142834	27213	1023165	42901	109647	0	0	8217	594595	0	0
2024-06-26 17:45:32			0	36915	0	0	0	26057	24660	142886	27253	1023192	42890	109647	0	0	8216	594677	0	0
2024-06-26 17:46:32			0	36919	0	0	0	26049	24660	142958	27128	1023157	42878	109644	0	0	8217	594513	0	0
2024-06-26 17:47:32			0	36921	0	0	0	26044	24650	142854	27343	1023068	42889	109642	0	0	8217	594464	0	0
2024-06-26 17:48:32			0	36886	0	0	0	26036	24660	142982	27289	1023130	42889	109639	0	0	8215	595867	0	0
2024-06-26 17:49:32			0	36912	0	0	0	26038	24650	142942	27313	1023095	42889	109640	0	0	8217	594833	0	0
2024-06-26 17:50:32			0	36899	0	0	0	26033	24650	142934	27222	1023086	42888	109638	0	0	8216	595367	0	0
2024-06-26 17:51:32			0	36911	0	0	0	26033	24640	142926	27395	1023104	42899	109638	0	0	8217	594908	0	0
2024-06-26 17:52:32			0	36901	0	0	0	26041	24650	143026	27268	1023086	42911	109641	0	0	8216	595285	0	0
2024-06-26 17:53:32			0	36898	0	0	0	26038	24650	142946	27241	1023113	42888	109640	0	0	8216	595408	0	0
2024-06-26 17:54:32			0	36902	0	0	0	26036	24650	142994	27213	1023059	42899	109639	0	0	8216	595244	0	0
2024-06-26 17:55:32			0	36896	0	0	0	26036	24650	142990	27234	1023095	42900	109639	0	0	8216	595490	0	0
2024-06-26 17:56:32			0	36902	0	0	0	26038	24640	143018	27365	1023051	42888	109640	0	0	8216	595277	0	0
2024-06-26 17:57:32			0	36904	0	0	0	26046	24660	143078	27072	1023103	42889	109643	0	0	8216	595128	0	0
2024-06-26 17:58:32			0	36885	0	0	0	26041	24650	143034	27123	1023148	42900	109641	0	0	8215	595942	0	0
2024-06-26 17:59:32			0	36901	0	0	0	26038	24650	143082	27246	1023095	42889	109640	0	0	8216	595285	0	0
2024-06-26 18:00:32			0	36906	0	0	0	26041	24650	142974	27196	1023140	42888	109641	0	0	8216	595080	0	0
2024-06-26 18:01:32			0	36910	0	0	0	26044	24640	143038	27339	1023158	42899	109642	0	0	8216	594949	0	0
2024-06-26 18:02:32			0	36877	0	0	0	26051	24650	143074	27317	1023175	42912	109645	0	0	8215	596270	0	0
2024-06-26 18:03:32			0	36906	0	0	0	26046	24640	143022	27322	1023104	42877	109643	0	0	8216	595113	0	0
2024-06-26 18:04:32			0	36926	0	0	0	26036	24640	142942	27145	1023131	42899	109639	0	0	8217	594293	0	0
2024-06-26 18:05:32			0	36922	0	0	0	26038	24640	143006	27438	1023077	42899	109640	0	0	8217	594457	0	0
2024-06-26 18:06:32			0	36908	0	0	0	26033	24640	143002	27079	1023077	42877	109638	0	0	8216	595031	0	0
2024-06-26 18:07:32			0	36923	0	0	0	26033	24650	143014	27722	1023140	42899	109638	0	0	8217	594382	0	0
2024-06-26 18:08:32			0	36939	0	0	0	26031	24650	142978	27338	1023113	42877	109637	0	0	8218	593726	0	0
2024-06-26 18:09:32			0	36930	0	0	0	26020	24650	142938	27357	1023059	42899	109633	0	0	8218	594095	0	0
2024-06-26 18:10:32			0	36931	0	0	0	26033	24640	142986	27436	1023051	42888	109638	0	0	8218	594088	0	0
2024-06-26 18:11:32			0	36940	0	0	0	26028	24640	142906	27346	1023077	42899	109636	0	0	8218	593719	0	0
2024-06-26 18:12:32			0	36925	0	0	0	26023	24640	142950	27227	1023042	42887	109634	0	0	8217	594334	0	0
2024-06-26 18:13:32			0	36936	0	0	0	26023	24640	143006	27436	1023104	42899	109634	0	0	8218	593883	0	0
2024-06-26 18:14:32			0	36941	0	0	0	26033	24640	142918	27388	1023051	42911	109638	0	0	8218	593678	0	0
2024-06-26 18:15:32			0	36952	0	0	0	26033	24640	142962	27407	1023122	42865	109638	0	0	8219	593227	0	0
2024-06-26 18:16:32			0	36939	0	0	0	26028	24630	142858	27253	1023033	42886	109636	0	0	8218	593794	0	0
2024-06-26 18:17:32			0	36946	0	0	0	26031	24640	142938	27142	1023042	42898	109637	0	0	8218	593473	0	0
2024-06-26 18:18:32			0	36955	0	0	0	26031	24630	142930	27074	1023060	42886	109637	0	0	8219	593138	0	0
2024-06-26 18:19:32			0	36958	0	0	0	26028	24630	142874	27157	1023007	42897	109636	0	0	8219	593015	0	0
2024-06-26 18:20:32			0	36962	0	0	0	26015	24640	142850	26946	1023069	42887	109631	0	0	8220	592818	0	0
2024-06-26 18:21:32			0	36961	0	0	0	26023	24640	142818	27190	1023015	42876	109634	0	0	8219	592859	0	0
2024-06-26 18:22:32			0	36968	0	0	0	26018	24630	142710	27194	1023025	42875	109632	0	0	8220	592606	0	0
2024-06-26 18:23:32			0	36973	0	0	0	26023	24640	142806	26861	1023042	42910	109634	0	0	8220	592368	0	0
2024-06-26 18:24:32			0	36957	0	0	0	26028	24640	142822	27223	1023042	42887	109636	0	0	8219	593023	0	0
2024-06-26 18:25:32			0	36984	0	0	0	26033	24630	142762	27235	1023033	42886	109638	0	0	8220	591951	0	0
2024-06-26 18:26:32			0	36978	0	0	0	26031	24640	142762	27313	1023096	42887	109637	0	0	8220	592163	0	0
2024-06-26 18:27:32			0	37002	0	0	0	26038	24630	142834	27471	1023060	42909	109640	0	0	8221	591216	0	0
2024-06-26 18:28:32			0	37017	0	0	0	26051	24640	142722	26807	1023096	42898	109645	0	0	8222	590570	0	0
2024-06-26 18:29:32			0	36994	0	0	0	26054	24640	142710	27003	1023069	42887	109646	0	0	8221	591509	0	0
2024-06-26 18:30:32			0	37006	0	0	0	26044	24640	142670	27147	1023149	42898	109642	0	0	8221	591019	0	0
2024-06-26 18:31:32			0	37009	0	0	0	26031	24640	142694	27105	1023051	42899	109637	0	0	8222	590896	0	0
2024-06-26 18:32:32			0	36993	0	0	0	26038	24650	142550	27334	1023059	42899	109640	0	0	8221	591516	0	0
2024-06-26 18:33:32			0	37020	0	0	0	26031	24640	142534	27142	1023051	42911	109637	0	0	8222	590447	0	0
2024-06-26 18:34:32			0	37014	0	0	0	26033	24640	142574	27286	1023069	42898	109638	0	0	8222	590692	0	0
2024-06-26 18:35:32			0	37025	0	0	0	26023	24630	142542	27289	1023051	42909	109634	0	0	8223	590276	0	0
2024-06-26 18:36:32			0	37033	0	0	0	26033	24640	142490	27176	1023096	42898	109638	0	0	8223	589917	0	0
2024-06-26 18:37:32			0	37047	0	0	0	26033	24650	142498	27362	1023086	42899	109638	0	0	8224	589312	0	0
2024-06-26 18:38:32			0	37036	0	0	0	26038	24630	142522	27218	1023087	42909	109640	0	0	8223	589828	0	0
2024-06-26 18:39:32			0	37048	0	0	0	26049	24640	142618	27150	1023069	42887	109644	0	0	8223	589305	0	0
2024-06-26 18:40:32			0	37033	0	0	0	26057	24650	142674	27060	1023113	42899	109647	0	0	8223	589883	0	0
2024-06-26 18:41:32			0	37037	0	0	0	26064	24630	142550	27131	1023087	42909	109650	0	0	8223	589787	0	0
2024-06-26 18:42:32			0	37023	0	0	0	26062	24650	142554	27187	1023113	42911	109649	0	0	8222	590291	0	0
2024-06-26 18:43:32			0	37051	0	0	0	26057	24650	142618	26814	1023166	42888	109647	0	0	8224	589149	0	0
2024-06-26 18:44:32			0	37043	0	0	0	26049	24640	142562	27218	1023149	42898	109644	0	0	8223	589509	0	0
2024-06-26 18:45:32			0	37057	0	0	0	26044	24640	142542	27381	1023077	42899	109642	0	0	8224	588938	0	0
2024-06-26 18:46:32			0	37049	0	0	0	26046	24640	142542	27029	1023104	42899	109643	0	0	8224	589264	0	0
2024-06-26 18:47:32			0	37052	0	0	0	26041	24640	142498	27253	1023104	42899	109641	0	0	8224	589142	0	0
2024-06-26 18:48:32			0	37046	0	0	0	26033	24640	142474	27020	1023077	42899	109638	0	0	8224	589386	0	0
2024-06-26 18:49:32			0	37062	0	0	0	26044	24640	142502	27294	1023122	42898	109642	0	0	8224	588734	0	0
2024-06-26 18:50:32			0	37055	0	0	0	26036	24640	142514	26804	1023122	42887	109639	0	0	8224	589019	0	0
2024-06-26 18:51:32			0	37059	0	0	0	26031	24640	142474	27235	1023096	42887	109637	0	0	8224	588856	0	0
2024-06-26 18:52:32			0	37048	0	0	0	26028	24630	142526	27131	1023025	42886	109636	0	0	8224	589338	0	0
2024-06-26 18:53:32			0	37068	0	0	0	26023	24640	142498	27412	1023069	42898	109634	0	0	8225	588490	0	0
2024-06-26 18:54:32			0	37067	0	0	0	26033	24640	142490	27149	1023042	42898	109638	0	0	8225	588530	0	0
2024-06-26 18:55:32			0	37044	0	0	0	26031	24630	142570	27029	1023051	42897	109637	0	0	8223	589501	0	0
2024-06-26 18:56:32			0	37035	0	0	0	26033	24640	142566	27244	1023122	42910	109638	0	0	8223	589835	0	0
2024-06-26 18:57:32			0	37033	0	0	0	26036	24640	142690	26998	1023042	42887	109639	0	0	8223	589917	0	0
2024-06-26 18:58:32			0	37015	0	0	0	26023	24630	142646	27097	1023033	42909	109634	0	0	8222	590685	0	0
2024-06-26 18:59:32			0	37017	0	0	0	26033	24630	142698	27320	1023087	42897	109638	0	0	8222	590603	0	0
2024-06-26 19:00:32			0	37014	0	0	0	26038	24630	142742	27294	1023078	42886	109640	0	0	8222	590725	0	0
2024-06-26 19:01:32			0	36998	0	0	0	26033	24630	142810	27088	1023060	42886	109638	0	0	8221	591379	0	0
2024-06-26 19:02:32			0	36984	0	0	0	26025	24630	142806	27128	1023078	42886	109635	0	0	8220	591951	0	0
2024-06-26 19:03:32			0	36980	0	0	0	26010	24630	142830	27443	1023060	42897	109629	0	0	8221	592115	0	0
2024-06-26 19:04:32			0	36965	0	0	0	26018	24620	142850	27308	1022936	42897	109632	0	0	8220	592762	0	0
2024-06-26 19:05:32			0	36963	0	0	0	25997	24620	142910	27119	1022954	42885	109624	0	0	8220	592844	0	0
2024-06-26 19:06:32			0	36942	0	0	0	26007	24620	142850	27369	1022954	42896	109628	0	0	8219	593704	0	0
2024-06-26 19:07:32			0	36944	0	0	0	25999	24610	143034	27255	1022945	42884	109625	0	0	8219	593656	0	0
2024-06-26 19:08:32			0	36943	0	0	0	25992	24610	142914	27531	1022919	42907	109622	0	0	8219	593697	0	0
2024-06-26 19:09:32			0	36942	0	0	0	25997	24600	143006	27225	1022848	42906	109624	0	0	8219	593771	0	0
2024-06-26 19:10:32			0	36920	0	0	0	25986	24610	143074	27230	1022919	42884	109620	0	0	8218	594640	0	0
2024-06-26 19:11:32			0	36913	0	0	0	25997	24600	143158	27592	1022901	42883	109624	0	0	8217	594961	0	0
2024-06-26 19:12:32			0	36896	0	0	0	25994	24600	143158	27562	1022901	42895	109623	0	0	8216	595658	0	0
2024-06-26 19:13:32			0	36873	0	0	0	25989	24590	143274	27299	1022866	42883	109621	0	0	8215	596637	0	0
2024-06-26 19:14:32			0	36877	0	0	0	25992	24590	143222	27211	1022830	42882	109622	0	0	8215	596473	0	0
2024-06-26 19:15:32			0	36865	0	0	0	25976	24590	143386	27013	1022857	42894	109616	0	0	8215	596966	0	0
2024-06-26 19:16:32			0	36837	0	0	0	25976	24590	143398	27312	1022830	42894	109616	0	0	8213	598119	0	0
2024-06-26 19:17:32			0	36822	0	0	0	25971	24590	143478	27492	1022866	42895	109614	0	0	8213	598737	0	0
2024-06-26 19:18:32			0	36820	0	0	0	25981	24580	143470	27365	1022795	42905	109618	0	0	8212	598853	0	0
2024-06-26 19:19:32			0	36790	0	0	0	25981	24580	143558	27485	1022822	42894	109618	0	0	8211	600090	0	0
2024-06-26 19:20:32			0	36787	0	0	0	25986	24580	143634	27232	1022849	42894	109620	0	0	8211	600214	0	0
2024-06-26 19:21:32			0	36777	0	0	0	25992	24570	143610	27263	1022831	42904	109622	0	0	8210	600661	0	0
2024-06-26 19:22:32			0	36762	0	0	0	25984	24580	143658	27384	1022822	42894	109619	0	0	8209	601247	0	0
2024-06-26 19:23:32			0	36755	0	0	0	25981	24580	143778	27071	1022840	42904	109618	0	0	8209	601536	0	0
2024-06-26 19:24:32			0	36748	0	0	0	25979	24580	143850	27130	1022813	42904	109617	0	0	8209	601826	0	0
2024-06-26 19:25:32			0	36736	0	0	0	25981	24580	143810	27057	1022813	42904	109618	0	0	8208	602322	0	0
2024-06-26 19:26:32			0	36713	0	0	0	25984	24570	143790	27086	1022831	42893	109619	0	0	8207	603308	0	0
2024-06-26 19:27:32			0	36737	0	0	0	25981	24570	143866	27312	1022805	42893	109618	0	0	8208	602315	0	0
2024-06-26 19:28:32			0	36717	0	0	0	25992	24570	143862	26946	1022805	42904	109622	0	0	8207	603143	0	0
2024-06-26 19:29:32			0	36718	0	0	0	25989	24580	143862	27263	1022840	42893	109621	0	0	8207	603067	0	0
2024-06-26 19:30:32			0	36705	0	0	0	25992	24580	143910	27308	1022840	42904	109622	0	0	8206	603606	0	0
2024-06-26 19:31:32			0	36700	0	0	0	25984	24580	143950	27235	1022786	42893	109619	0	0	8206	603813	0	0
2024-06-26 19:32:32			0	36711	0	0	0	25981	24570	143878	27211	1022742	42892	109618	0	0	8207	603391	0	0
2024-06-26 19:33:32			0	36707	0	0	0	25958	24570	143890	26975	1022796	42892	109609	0	0	8207	603557	0	0
2024-06-26 19:34:32			0	36702	0	0	0	25955	24560	143806	26982	1022734	42891	109608	0	0	8207	603798	0	0
2024-06-26 19:35:32			0	36702	0	0	0	25953	24560	143838	27254	1022707	42891	109607	0	0	8207	603798	0	0
2024-06-26 19:36:32			0	36713	0	0	0	25950	24570	143910	27213	1022671	42893	109606	0	0	8207	603308	0	0
2024-06-26 19:37:32			0	36705	0	0	0	25948	24560	143926	27409	1022618	42891	109605	0	0	8207	603674	0	0
2024-06-26 19:38:32			0	36692	0	0	0	25929	24560	143942	27312	1022725	42891	109598	0	0	8207	604213	0	0
2024-06-26 19:39:32			0	36677	0	0	0	25948	24550	144074	27557	1022654	42879	109605	0	0	8205	604870	0	0
2024-06-26 19:40:32			0	36683	0	0	0	25929	24550	144018	26918	1022689	42891	109598	0	0	8206	604621	0	0
2024-06-26 19:41:32			0	36683	0	0	0	25929	24550	144182	27268	1022654	42913	109598	0	0	8206	604621	0	0
2024-06-26 19:42:32			0	36639	0	0	0	25937	24540	144362	27244	1022619	42878	109601	0	0	8204	606482	0	0
2024-06-26 19:43:32			0	36596	0	0	0	25940	24540	144442	27357	1022592	42889	109602	0	0	8201	608272	0	0
2024-06-26 19:44:32			0	36551	0	0	0	25937	24540	144613	27076	1022664	42878	109601	0	0	8199	610149	0	0
2024-06-26 19:45:32			0	36515	0	0	0	25940	24540	144673	27414	1022583	42878	109602	0	0	8197	611653	0	0
2024-06-26 19:46:32			0	36488	0	0	0	25937	24540	144833	27306	1022583	42889	109601	0	0	8196	612783	0	0
2024-06-26 19:47:32			0	36452	0	0	0	25929	24540	144945	27374	1022637	42889	109598	0	0	8194	614292	0	0
2024-06-26 19:48:32			0	36447	0	0	0	25932	24540	145009	27291	1022583	42889	109599	0	0	8194	614501	0	0
2024-06-26 19:49:32			0	36430	0	0	0	25935	24540	145081	26960	1022557	42889	109600	0	0	8193	615215	0	0
2024-06-26 19:50:32			0	36418	0	0	0	25932	24530	145041	27213	1022575	42900	109599	0	0	8192	615754	0	0
2024-06-26 19:51:32			0	36428	0	0	0	25929	24540	145045	27294	1022557	42889	109598	0	0	8193	615299	0	0
2024-06-26 19:52:32			0	36432	0	0	0	25932	24530	144981	27466	1022620	42888	109599	0	0	8193	615166	0	0
2024-06-26 19:53:32			0	36454	0	0	0	25927	24520	145001	27272	1022584	42887	109597	0	0	8194	614277	0	0
2024-06-26 19:54:32			0	36463	0	0	0	25942	24530	145021	27093	1022655	42900	109603	0	0	8194	613865	0	0
2024-06-26 19:55:32			0	36465	0	0	0	25937	24530	144929	27241	1022548	42912	109601	0	0	8194	613781	0	0
2024-06-26 19:56:32			0	36485	0	0	0	25942	24530	144817	27454	1022548	42889	109603	0	0	8195	612943	0	0
2024-06-26 19:57:32			0	36502	0	0	0	25932	24520	144789	27498	1022495	42887	109599	0	0	8196	612266	0	0
2024-06-26 19:58:32			0	36529	0	0	0	25937	24540	144593	27374	1022530	42878	109601	0	0	8198	611068	0	0
2024-06-26 19:59:32			0	36570	0	0	0	25927	24520	144501	27698	1022522	42876	109597	0	0	8200	609425	0	0
2024-06-26 20:00:32			0	36602	0	0	0	25924	24530	144426	27199	1022539	42899	109596	0	0	8202	608056	0	0
2024-06-26 20:01:32			0	36603	0	0	0	25937	24530	144342	27180	1022548	42900	109601	0	0	8202	608015	0	0
2024-06-26 20:02:32			0	36617	0	0	0	25937	24530	144382	27398	1022539	42877	109601	0	0	8202	607432	0	0
2024-06-26 20:03:32			0	36640	0	0	0	25924	24520	144278	27294	1022549	42898	109596	0	0	8204	606509	0	0
2024-06-26 20:04:32			0	36638	0	0	0	25932	24520	144254	27147	1022504	42898	109599	0	0	8203	606592	0	0
2024-06-26 20:05:32			0	36637	0	0	0	25935	24520	144174	27053	1022531	42887	109600	0	0	8203	606634	0	0
2024-06-26 20:06:32			0	36630	0	0	0	25924	24520	144206	27478	1022522	42887	109596	0	0	8203	606925	0	0
2024-06-26 20:07:32			0	36643	0	0	0	25919	24520	144258	27046	1022495	42898	109594	0	0	8204	606384	0	0
2024-06-26 20:08:32			0	36642	0	0	0	25916	24530	144226	27360	1022521	42889	109593	0	0	8204	606392	0	0
2024-06-26 20:09:32			0	36612	0	0	0	25922	24510	144390	27150	1022513	42886	109595	0	0	8202	607709	0	0
2024-06-26 20:10:32			0	36576	0	0	0	25914	24510	144541	27280	1022460	42897	109592	0	0	8200	609209	0	0
2024-06-26 20:11:32			0	36555	0	0	0	25911	24510	144621	27416	1022433	42897	109591	0	0	8199	610085	0	0
2024-06-26 20:12:32			0	36522	0	0	0	25919	24520	144649	27140	1022450	42898	109594	0	0	8198	611429	0	0
2024-06-26 20:13:32			0	36472	0	0	0	25924	24510	144813	27116	1022513	42897	109596	0	0	8195	613557	0	0
2024-06-26 20:14:32			0	36442	0	0	0	25935	24520	145033	26779	1022531	42910	109600	0	0	8193	614781	0	0
2024-06-26 20:15:32			0	36398	0	0	0	25935	24520	145145	27371	1022576	42898	109600	0	0	8191	616629	0	0
2024-06-26 20:16:32			0	36355	0	0	0	25932	24520	145325	27367	1022495	42898	109599	0	0	8189	618440	0	0
2024-06-26 20:17:32			0	36343	0	0	0	25935	24520	145477	27357	1022557	42898	109600	0	0	8188	618945	0	0
2024-06-26 20:18:32			0	36296	0	0	0	25935	24520	145573	27098	1022531	42898	109600	0	0	8185	620930	0	0
2024-06-26 20:19:32			0	36275	0	0	0	25937	24530	145657	27334	1022593	42899	109601	0	0	8184	621782	0	0
2024-06-26 20:20:32			0	36254	0	0	0	25937	24530	145785	27196	1022593	42888	109601	0	0	8183	622671	0	0
2024-06-26 20:21:32			0	36213	0	0	0	25942	24520	145853	26998	1022611	42887	109603	0	0	8181	624444	0	0
2024-06-26 20:22:32			0	36206	0	0	0	25932	24520	145917	27282	1022584	42898	109599	0	0	8181	624741	0	0
2024-06-26 20:23:32			0	36223	0	0	0	25942	24530	146021	27263	1022655	42900	109603	0	0	8182	623985	0	0
2024-06-26 20:24:32			0	36199	0	0	0	25937	24530	145985	27478	1022486	42888	109601	0	0	8180	625003	0	0
2024-06-26 20:25:32			0	36199	0	0	0	25935	24530	146017	27081	1022620	42877	109600	0	0	8180	625003	0	0
2024-06-26 20:26:32			0	36206	0	0	0	25937	24530	145885	27369	1022601	42900	109601	0	0	8181	624706	0	0
2024-06-26 20:27:32			0	36221	0	0	0	25935	24530	145933	27149	1022646	42899	109600	0	0	8182	624069	0	0
2024-06-26 20:28:32			0	36240	0	0	0	25940	24540	145841	27114	1022690	42912	109602	0	0	8182	623229	0	0
2024-06-26 20:29:32			0	36246	0	0	0	25942	24530	145709	26909	1022601	42889	109603	0	0	8183	623010	0	0
2024-06-26 20:30:32			0	36266	0	0	0	25935	24540	145589	27185	1022530	42889	109600	0	0	8184	622128	0	0
2024-06-26 20:31:32			0	36284	0	0	0	25927	24520	145577	27072	1022477	42910	109597	0	0	8185	621437	0	0
2024-06-26 20:32:32			0	36326	0	0	0	25927	24530	145433	27059	1022539	42877	109597	0	0	8187	619628	0	0
2024-06-26 20:33:32			0	36341	0	0	0	25914	24530	145309	26878	1022566	42888	109592	0	0	8188	618995	0	0
2024-06-26 20:34:32			0	36368	0	0	0	25916	24520	145209	27251	1022504	42887	109593	0	0	8190	617892	0	0
2024-06-26 20:35:32			0	36398	0	0	0	25914	24520	145085	27256	1022504	42898	109592	0	0	8191	616629	0	0
2024-06-26 20:36:32			0	36418	0	0	0	25916	24520	144957	27149	1022531	42887	109593	0	0	8192	615789	0	0
2024-06-26 20:37:32			0	36438	0	0	0	25909	24520	144873	27343	1022611	42898	109590	0	0	8193	614949	0	0
2024-06-26 20:38:32			0	36443	0	0	0	25909	24520	144881	27353	1022477	42887	109590	0	0	8194	614739	0	0
2024-06-26 20:39:32			0	36480	0	0	0	25854	24500	144741	27112	1022309	42885	109569	0	0	8196	613257	0	0
2024-06-26 20:40:32			0	36499	0	0	0	25794	24500	144745	26750	1022220	42863	109546	0	0	8198	612461	0	0
2024-06-26 20:41:32			0	36514	0	0	0	25779	24480	144757	27100	1022132	42872	109540	0	0	8199	611902	0	0
2024-06-26 20:42:32			0	36531	0	0	0	25781	24470	144681	27196	1022123	42894	109541	0	0	8200	611226	0	0
2024-06-26 20:43:32			0	36538	0	0	0	25797	24460	144585	27199	1022213	42882	109547	0	0	8200	610968	0	0
2024-06-26 20:44:32			0	36556	0	0	0	25794	24450	144601	27045	1022142	42892	109546	0	0	8201	610250	0	0
2024-06-26 20:45:32			0	36581	0	0	0	25792	24470	144505	26911	1022141	42872	109545	0	0	8203	609138	0	0
2024-06-26 20:46:32			0	36588	0	0	0	25781	24460	144425	27166	1022124	42892	109541	0	0	8203	608881	0	0
2024-06-26 20:47:32			0	36575	0	0	0	25766	24440	144421	26850	1022063	42868	109535	0	0	8203	609492	0	0
2024-06-26 20:48:32			0	36584	0	0	0	25768	24430	144337	27310	1022000	42878	109536	0	0	8203	609151	0	0
2024-06-26 20:49:32			0	36609	0	0	0	25786	24430	144378	27180	1022045	42889	109543	0	0	8204	608108	0	0
2024-06-26 20:50:32			0	36610	0	0	0	25802	24450	144378	26953	1022080	42903	109549	0	0	8204	607998	0	0
2024-06-26 20:51:32			0	36609	0	0	0	25812	24440	144474	27026	1022125	42880	109553	0	0	8204	608074	0	0
2024-06-26 20:52:32			0	36615	0	0	0	25823	24430	144482	27229	1022099	42900	109557	0	0	8204	607858	0	0
2024-06-26 20:53:32			0	36609	0	0	0	25849	24440	144330	27249	1022232	42891	109567	0	0	8203	608074	0	0
2024-06-26 20:54:32			0	36612	0	0	0	25849	24450	144378	27300	1022196	42903	109567	0	0	8203	607915	0	0
2024-06-26 20:55:32			0	36625	0	0	0	25849	24440	144342	27140	1022152	42891	109567	0	0	8204	607408	0	0
2024-06-26 20:56:32			0	36629	0	0	0	25851	24440	144386	27128	1022205	42880	109568	0	0	8204	607241	0	0
2024-06-26 20:57:32			0	36620	0	0	0	25851	24450	144358	27279	1022214	42870	109568	0	0	8204	607582	0	0
2024-06-26 20:58:32			0	36638	0	0	0	25859	24450	144342	27060	1022214	42903	109571	0	0	8204	606832	0	0
2024-06-26 20:59:32			0	36624	0	0	0	25862	24450	144378	26946	1022214	42881	109572	0	0	8204	607415	0	0
2024-06-26 21:00:32			0	36636	0	0	0	25870	24450	144330	27170	1022249	42892	109575	0	0	8204	606916	0	0
2024-06-26 21:01:32			0	36631	0	0	0	25864	24450	144430	26960	1022214	42881	109573	0	0	8204	607124	0	0
2024-06-26 21:02:32			0	36656	0	0	0	25857	24460	144246	27312	1022178	42870	109570	0	0	8205	606050	0	0
2024-06-26 21:03:32			0	36629	0	0	0	25849	24460	144326	27154	1022205	42881	109567	0	0	8204	607173	0	0
2024-06-26 21:04:32			0	36637	0	0	0	25846	24460	144306	27211	1022213	42882	109566	0	0	8205	606840	0	0
2024-06-26 21:05:32			0	36625	0	0	0	25838	24440	144310	27305	1022125	42880	109563	0	0	8204	607408	0	0
2024-06-26 21:06:32			0	36647	0	0	0	25833	24440	144294	27287	1022205	42880	109561	0	0	8205	606492	0	0
2024-06-26 21:07:32			0	36634	0	0	0	25823	24440	144326	26700	1022063	42879	109557	0	0	8205	607033	0	0
2024-06-26 21:08:32			0	36638	0	0	0	25818	24430	144298	27241	1022107	42889	109555	0	0	8205	606901	0	0
2024-06-26 21:09:32			0	36628	0	0	0	25812	24430	144302	27111	1022019	42867	109553	0	0	8205	607317	0	0
2024-06-26 21:10:32			0	36650	0	0	0	25799	24420	144186	26998	1021921	42877	109548	0	0	8206	606436	0	0
2024-06-26 21:11:32			0	36619	0	0	0	25786	24420	144398	26925	1021894	42877	109543	0	0	8205	607726	0	0
2024-06-26 21:12:32			0	36579	0	0	0	25766	24400	144649	27192	1021922	42866	109535	0	0	8203	609463	0	0
2024-06-26 21:13:32			0	36480	0	0	0	25750	24400	144869	27300	1021842	42866	109529	0	0	8198	613603	0	0
2024-06-26 21:14:32			0	36386	0	0	0	25761	24390	145289	27244	1021878	42885	109533	0	0	8193	617588	0	0
2024-06-26 21:15:32			0	36315	0	0	0	25745	24390	145589	26991	1021878	42864	109527	0	0	8189	620583	0	0
2024-06-26 21:16:32			0	36233	0	0	0	25748	24390	145901	27131	1021843	42875	109528	0	0	8185	624054	0	0
2024-06-26 21:17:32			0	36177	0	0	0	25755	24370	146201	27178	1021728	42872	109531	0	0	8182	626504	0	0
2024-06-26 21:18:32			0	36126	0	0	0	25750	24370	146429	27092	1021683	42873	109529	0	0	8179	628676	0	0
2024-06-26 21:19:32			0	36069	0	0	0	25740	24360	146525	27100	1021711	42861	109525	0	0	8176	631146	0	0
2024-06-26 21:20:32			0	36037	0	0	0	25727	24350	146621	26837	1021648	42849	109520	0	0	8174	632551	0	0
2024-06-26 21:21:32			0	36085	0	0	0	25716	24360	146653	27135	1021719	42861	109516	0	0	8177	630462	0	0
2024-06-26 21:22:32			0	36057	0	0	0	25722	24340	146681	27083	1021658	42881	109518	0	0	8176	631730	0	0
2024-06-26 21:23:32			0	36068	0	0	0	25724	24330	146645	27074	1021694	42880	109519	0	0	8176	631295	0	0
2024-06-26 21:24:32			0	36065	0	0	0	25732	24330	146733	27190	1021641	42880	109522	0	0	8176	631424	0	0
2024-06-26 21:25:32			0	36022	0	0	0	25745	24330	146785	27029	1021694	42880	109527	0	0	8173	633265	0	0
2024-06-26 21:26:32			0	35999	0	0	0	25745	24340	146869	27149	1021730	42870	109527	0	0	8172	634215	0	0
2024-06-26 21:27:32			0	35987	0	0	0	25745	24340	146949	27062	1021756	42881	109527	0	0	8171	634731	0	0
2024-06-26 21:28:32			0	35967	0	0	0	25755	24340	147057	27223	1021730	42870	109531	0	0	8170	635590	0	0
2024-06-26 21:29:32			0	35948	0	0	0	25755	24350	147033	26876	1021720	42870	109531	0	0	8169	636370	0	0
2024-06-26 21:30:32			0	35967	0	0	0	25735	24340	147041	27279	1021676	42870	109523	0	0	8171	635590	0	0
2024-06-26 21:31:32			0	35973	0	0	0	25719	24340	147037	27310	1021596	42870	109517	0	0	8171	635332	0	0
2024-06-26 21:32:32			0	35990	0	0	0	25711	24340	146857	27362	1021623	42848	109514	0	0	8172	634602	0	0
2024-06-26 21:33:32			0	35975	0	0	0	25698	24320	146905	27393	1021543	42879	109509	0	0	8172	635318	0	0
2024-06-26 21:34:32			0	35987	0	0	0	25701	24320	146909	27474	1021570	42879	109510	0	0	8172	634802	0	0
2024-06-26 21:35:32			0	36003	0	0	0	25698	24310	146957	27000	1021553	42868	109509	0	0	8173	634151	0	0
2024-06-26 21:36:32			0	35994	0	0	0	25703	24320	146897	27255	1021561	42869	109511	0	0	8172	634502	0	0
2024-06-26 21:37:32			0	35980	0	0	0	25706	24290	146945	27204	1021446	42866	109512	0	0	8172	635210	0	0
2024-06-26 21:38:32			0	35964	0	0	0	25706	24300	147029	27192	1021482	42876	109512	0	0	8171	635862	0	0
2024-06-26 21:39:32			0	35974	0	0	0	25701	24290	147021	27097	1021499	42876	109510	0	0	8171	635468	0	0
2024-06-26 21:40:32			0	35986	0	0	0	25698	24290	146933	27005	1021411	42887	109509	0	0	8172	634953	0	0
2024-06-26 21:41:32			0	36000	0	0	0	25690	24300	146885	27298	1021428	42876	109506	0	0	8173	634316	0	0
2024-06-26 21:42:32			0	36021	0	0	0	25680	24290	146765	26974	1021419	42876	109502	0	0	8174	633451	0	0
2024-06-26 21:43:32			0	36047	0	0	0	25677	24290	146765	27020	1021393	42866	109501	0	0	8176	632337	0	0
2024-06-26 21:44:32			0	36049	0	0	0	25664	24260	146701	27239	1021394	42863	109496	0	0	8176	632358	0	0
2024-06-26 21:45:32			0	36059	0	0	0	25670	24250	146669	27228	1021297	42862	109498	0	0	8176	631966	0	0
2024-06-26 21:46:32			0	36080	0	0	0	25664	24270	146673	26870	1021349	42864	109496	0	0	8177	630996	0	0
2024-06-26 21:47:32			0	36077	0	0	0	25677	24260	146709	26918	1021305	42873	109501	0	0	8177	631160	0	0
2024-06-26 21:48:32			0	36065	0	0	0	25677	24250	146713	27308	1021297	42873	109501	0	0	8176	631709	0	0
2024-06-26 21:49:32			0	36045	0	0	0	25683	24250	146725	27121	1021350	42873	109503	0	0	8175	632565	0	0
2024-06-26 21:50:32			0	36066	0	0	0	25683	24250	146789	27157	1021350	42873	109503	0	0	8176	631666	0	0
2024-06-26 21:51:32			0	36033	0	0	0	25683	24250	146889	27003	1021377	42862	109503	0	0	8175	633079	0	0
2024-06-26 21:52:32			0	36036	0	0	0	25675	24260	146829	27135	1021359	42873	109500	0	0	8175	632915	0	0
2024-06-26 21:53:32			0	36050	0	0	0	25664	24240	146853	26994	1021298	42860	109496	0	0	8176	632387	0	0
2024-06-26 21:54:32			0	36053	0	0	0	25659	24240	146765	26977	1021199	42873	109494	0	0	8176	632258	0	0
2024-06-26 21:55:32			0	36050	0	0	0	25644	24230	146833	27071	1021022	42860	109488	0	0	8176	632422	0	0
2024-06-26 21:56:32			0	36061	0	0	0	25615	24220	146829	26826	1021103	42870	109477	0	0	8177	631987	0	0
2024-06-26 21:57:32			0	36051	0	0	0	25610	24220	146721	27291	1021058	42871	109475	0	0	8177	632415	0	0
2024-06-26 21:58:32			0	36042	0	0	0	25605	24210	146769	27071	1020952	42857	109473	0	0	8176	632837	0	0
2024-06-26 21:59:32			0	36048	0	0	0	25589	24200	146717	26913	1020881	42857	109467	0	0	8177	632615	0	0
2024-06-26 22:00:32			0	36048	0	0	0	25579	24200	146765	27001	1020881	42868	109463	0	0	8177	632615	0	0
2024-06-26 22:01:32			0	36022	0	0	0	25576	24180	146953	26965	1020926	42855	109462	0	0	8176	633801	0	0
2024-06-26 22:02:32			0	35962	0	0	0	25568	24170	147169	26904	1020829	42842	109459	0	0	8172	636415	0	0
2024-06-26 22:03:32			0	35920	0	0	0	25558	24160	147425	27164	1020767	42853	109455	0	0	8170	638260	0	0
2024-06-26 22:04:32			0	35834	0	0	0	25553	24160	147764	26958	1020758	42864	109453	0	0	8166	641976	0	0
2024-06-26 22:05:32			0	35719	0	0	0	25545	24150	148180	26998	1020714	42863	109450	0	0	8160	647005	0	0
2024-06-26 22:06:32			0	35630	0	0	0	25537	24150	148644	27041	1020714	42852	109447	0	0	8155	650889	0	0
2024-06-26 22:07:32			0	35516	0	0	0	25537	24150	148896	27010	1020768	42852	109447	0	0	8149	655888	0	0
2024-06-26 22:08:32			0	35460	0	0	0	25540	24140	149196	26700	1020751	42851	109448	0	0	8146	658391	0	0
2024-06-26 22:09:32			0	35407	0	0	0	25550	24140	149416	26863	1020751	42862	109452	0	0	8143	660731	0	0
2024-06-26 22:10:32			0	35384	0	0	0	25568	24140	149588	27130	1020831	42862	109459	0	0	8141	661748	0	0
2024-06-26 22:11:32			0	35363	0	0	0	25579	24140	149732	27050	1020813	42862	109463	0	0	8140	662678	0	0
2024-06-26 22:12:32			0	35345	0	0	0	25605	24150	149660	27133	1020901	42885	109473	0	0	8139	663439	0	0
2024-06-26 22:13:32			0	35329	0	0	0	25607	24160	149744	27239	1020945	42853	109474	0	0	8138	664111	0	0
2024-06-26 22:14:32			0	35334	0	0	0	25618	24160	149656	27102	1020892	42864	109478	0	0	8138	663889	0	0
2024-06-26 22:15:32			0	35347	0	0	0	25625	24170	149636	27140	1021016	42875	109481	0	0	8139	663275	0	0
2024-06-26 22:16:32			0	35352	0	0	0	25633	24180	149656	26667	1021087	42876	109484	0	0	8139	663016	0	0
2024-06-26 22:17:32			0	35340	0	0	0	25631	24180	149600	27055	1021060	42866	109483	0	0	8138	663548	0	0
2024-06-26 22:18:32			0	35362	0	0	0	25646	24180	149648	26942	1021087	42888	109489	0	0	8139	662573	0	0
2024-06-26 22:19:32			0	35372	0	0	0	25646	24180	149488	27230	1021096	42877	109489	0	0	8140	662130	0	0
2024-06-26 22:20:32			0	35388	0	0	0	25649	24180	149524	27027	1021042	42867	109490	0	0	8140	661422	0	0
2024-06-26 22:21:32			0	35405	0	0	0	25644	24190	149480	27090	1021086	42889	109488	0	0	8141	660633	0	0
2024-06-26 22:22:32			0	35423	0	0	0	25641	24200	149292	27365	1021015	42857	109487	0	0	8142	659800	0	0
2024-06-26 22:23:32			0	35429	0	0	0	25638	24190	149304	26857	1021078	42867	109486	0	0	8143	659573	0	0
2024-06-26 22:24:32			0	35469	0	0	0	25618	24190	149180	27277	1021078	42856	109478	0	0	8145	657808	0	0
2024-06-26 22:25:32			0	35487	0	0	0	25607	24170	149100	27147	1021025	42865	109474	0	0	8146	657090	0	0
2024-06-26 22:26:32			0	35511	0	0	0	25605	24180	148916	27189	1021069	42844	109473	0	0	8148	655996	0	0
2024-06-26 22:27:32			0	35558	0	0	0	25612	24170	148836	27046	1020918	42854	109476	0	0	8150	653969	0	0
2024-06-26 22:28:32			0	35562	0	0	0	25599	24180	148720	27041	1020989	42867	109471	0	0	8151	653757	0	0
2024-06-26 22:29:32			0	35561	0	0	0	25605	24180	148648	26948	1020980	42876	109473	0	0	8150	653800	0	0
2024-06-26 22:30:32			0	35594	0	0	0	25607	24180	148676	26975	1020953	42876	109474	0	0	8152	652354	0	0
2024-06-26 22:31:32			0	35584	0	0	0	25607	24180	148640	26991	1021060	42876	109474	0	0	8152	652792	0	0
2024-06-26 22:32:32			0	35562	0	0	0	25602	24190	148684	27145	1020998	42877	109472	0	0	8151	653720	0	0
2024-06-26 22:33:32			0	35565	0	0	0	25607	24180	148720	27223	1021042	42856	109474	0	0	8151	653625	0	0
2024-06-26 22:34:32			0	35530	0	0	0	25607	24180	148864	27123	1021042	42867	109474	0	0	8149	655161	0	0
2024-06-26 22:35:32			0	35490	0	0	0	25607	24190	149088	27052	1021051	42867	109474	0	0	8147	656883	0	0
2024-06-26 22:36:32			0	35428	0	0	0	25615	24180	149280	26850	1021069	42867	109477	0	0	8143	659654	0	0
2024-06-26 22:37:32			0	35385	0	0	0	25623	24180	149504	26804	1021060	42866	109480	0	0	8141	661555	0	0
2024-06-26 22:38:32			0	35346	0	0	0	25620	24180	149608	26828	1021042	42867	109479	0	0	8139	663282	0	0
2024-06-26 22:39:32			0	35324	0	0	0	25633	24200	149696	27223	1021122	42878	109484	0	0	8137	664183	0	0
2024-06-26 22:40:32			0	35326	0	0	0	25633	24200	149744	27081	1021148	42878	109484	0	0	8137	664094	0	0
2024-06-26 22:41:32			0	35321	0	0	0	25633	24210	149796	27154	1021219	42869	109484	0	0	8137	664279	0	0
2024-06-26 22:42:32			0	35320	0	0	0	25654	24210	149844	27111	1021201	42879	109492	0	0	8137	664323	0	0
2024-06-26 22:43:32			0	35309	0	0	0	25662	24210	149696	27216	1021255	42879	109495	0	0	8136	664811	0	0
2024-06-26 22:44:32			0	35307	0	0	0	25672	24210	149780	27216	1021201	42879	109499	0	0	8136	664900	0	0
2024-06-26 22:45:32			0	35343	0	0	0	25667	24220	149664	27261	1021290	42880	109497	0	0	8138	663265	0	0
2024-06-26 22:46:32			0	35351	0	0	0	25677	24230	149696	27010	1021280	42881	109501	0	0	8138	662873	0	0
2024-06-26 22:47:32			0	35372	0	0	0	25672	24230	149700	26998	1021316	42872	109499	0	0	8139	661943	0	0
2024-06-26 22:48:32			0	35401	0	0	0	25685	24230	149432	27225	1021316	42872	109504	0	0	8141	660660	0	0
2024-06-26 22:49:32			0	35420	0	0	0	25685	24230	149284	27381	1021343	42872	109504	0	0	8142	659821	0	0
2024-06-26 22:50:32			0	35424	0	0	0	25696	24240	149236	27066	1021351	42882	109508	0	0	8142	659607	0	0
2024-06-26 22:51:32			0	35468	0	0	0	25693	24240	149108	27109	1021440	42861	109507	0	0	8144	657667	0	0
2024-06-26 22:52:32			0	35489	0	0	0	25706	24240	149060	26928	1021405	42882	109512	0	0	8145	656742	0	0
2024-06-26 22:53:32			0	35540	0	0	0	25703	24250	148844	27438	1021457	42884	109511	0	0	8148	654463	0	0
2024-06-26 22:54:32			0	35549	0	0	0	25706	24260	148796	27294	1021474	42874	109512	0	0	8148	654032	0	0
2024-06-26 22:55:32			0	35591	0	0	0	25706	24260	148680	27041	1021474	42885	109512	0	0	8151	652191	0	0
2024-06-26 22:56:32			0	35597	0	0	0	25716	24280	148596	27156	1021482	42898	109516	0	0	8151	651854	0	0
2024-06-26 22:57:32			0	35626	0	0	0	25716	24280	148568	27102	1021581	42886	109516	0	0	8152	650586	0	0
2024-06-26 22:58:32			0	35641	0	0	0	25727	24290	148408	27156	1021544	42876	109520	0	0	8153	649894	0	0
2024-06-26 22:59:32			0	35649	0	0	0	25729	24290	148320	27038	1021571	42887	109521	0	0	8154	649545	0	0
2024-06-26 23:00:32			0	35637	0	0	0	25740	24300	148244	27007	1021615	42887	109525	0	0	8153	650032	0	0
2024-06-26 23:01:32			0	35683	0	0	0	25737	24300	148276	27216	1021597	42888	109524	0	0	8155	648025	0	0
2024-06-26 23:02:32			0	35686	0	0	0	25740	24310	148096	26696	1021633	42878	109525	0	0	8155	647858	0	0
2024-06-26 23:03:32			0	35701	0	0	0	25742	24300	148224	27045	1021624	42877	109526	0	0	8156	647241	0	0
2024-06-26 23:04:32			0	35717	0	0	0	25740	24320	148124	26994	1021642	42902	109525	0	0	8157	646472	0	0
2024-06-26 23:05:32			0	35727	0	0	0	25745	24330	148024	26942	1021739	42879	109527	0	0	8158	646000	0	0
2024-06-26 23:06:32			0	35714	0	0	0	25745	24330	147976	26731	1021686	42879	109527	0	0	8157	646566	0	0
2024-06-26 23:07:32			0	35718	0	0	0	25750	24320	147912	26889	1021650	42879	109529	0	0	8157	646428	0	0
2024-06-26 23:08:32			0	35740	0	0	0	25758	24330	147972	27145	1021739	42902	109532	0	0	8158	645435	0	0
2024-06-26 23:09:32			0	35746	0	0	0	25761	24330	147952	27024	1021801	42891	109533	0	0	8158	645174	0	0
2024-06-26 23:10:32			0	35733	0	0	0	25763	24340	147880	26844	1021783	42892	109534	0	0	8158	645703	0	0
2024-06-26 23:11:32			0	35733	0	0	0	25755	24330	147768	27034	1021748	42870	109531	0	0	8158	645739	0	0
2024-06-26 23:12:32			0	35742	0	0	0	25768	24340	147840	26951	1021738	42892	109536	0	0	8158	645312	0	0
2024-06-26 23:13:32			0	35756	0	0	0	25763	24350	147852	27248	1021747	42892	109534	0	0	8159	644667	0	0
2024-06-26 23:14:32			0	35760	0	0	0	25766	24340	147812	27298	1021818	42870	109535	0	0	8159	644530	0	0
2024-06-26 23:15:32			0	35758	0	0	0	25768	24340	147704	26901	1021765	42881	109536	0	0	8159	644617	0	0
2024-06-26 23:16:32			0	35768	0	0	0	25753	24340	147752	26878	1021792	42881	109530	0	0	8160	644183	0	0
2024-06-26 23:17:32			0	35776	0	0	0	25763	24360	147760	27194	1021764	42872	109534	0	0	8160	643763	0	0
2024-06-26 23:18:32			0	35773	0	0	0	25758	24340	147792	26934	1021765	42881	109532	0	0	8160	643966	0	0
2024-06-26 23:19:32			0	35789	0	0	0	25761	24350	147768	27059	1021782	42882	109533	0	0	8161	643236	0	0
2024-06-26 23:20:32			0	35790	0	0	0	25755	24360	147720	27390	1021764	42905	109531	0	0	8161	643156	0	0
2024-06-26 23:21:32			0	35813	0	0	0	25753	24350	147680	27057	1021800	42881	109530	0	0	8162	642196	0	0
2024-06-26 23:22:32			0	35829	0	0	0	25750	24350	147544	27190	1021800	42881	109529	0	0	8163	641504	0	0
2024-06-26 23:23:32			0	35828	0	0	0	25737	24350	147532	26835	1021747	42881	109524	0	0	8163	641547	0	0
2024-06-26 23:24:32			0	35835	0	0	0	25742	24350	147532	26904	1021747	42870	109526	0	0	8164	641244	0	0
2024-06-26 23:25:32			0	35860	0	0	0	25737	24340	147400	26951	1021810	42881	109524	0	0	8165	640200	0	0
2024-06-26 23:26:32			0	35857	0	0	0	25737	24340	147380	26793	1021703	42881	109524	0	0	8165	640330	0	0
2024-06-26 23:27:32			0	35894	0	0	0	25729	24340	147341	26828	1021676	42881	109521	0	0	8167	638732	0	0
2024-06-26 23:28:32			0	35897	0	0	0	25716	24320	147281	26772	1021650	42869	109516	0	0	8167	638675	0	0
2024-06-26 23:29:32			0	35901	0	0	0	25698	24330	147261	26916	1021614	42880	109509	0	0	8168	638467	0	0
2024-06-26 23:30:32			0	35928	0	0	0	25685	24320	147245	26864	1021543	42869	109504	0	0	8169	637339	0	0
2024-06-26 23:31:32			0	35946	0	0	0	25670	24320	147121	26916	1021535	42890	109498	0	0	8170	636565	0	0
2024-06-26 23:32:32			0	35952	0	0	0	25659	24300	147065	27182	1021490	42867	109494	0	0	8171	636378	0	0
2024-06-26 23:33:32			0	35993	0	0	0	25641	24290	146997	26733	1021393	42887	109487	0	0	8173	634652	0	0
2024-06-26 23:34:32			0	36016	0	0	0	25644	24280	146901	27100	1021367	42875	109488	0	0	8174	633701	0	0
2024-06-26 23:35:32			0	36027	0	0	0	25623	24260	146809	27022	1021368	42863	109480	0	0	8175	633301	0	0
2024-06-26 23:36:32			0	36047	0	0	0	25612	24250	146745	27067	1021235	42862	109476	0	0	8177	632480	0	0
2024-06-26 23:37:32			0	36065	0	0	0	25592	24230	146565	27123	1021155	42860	109468	0	0	8178	631780	0	0
2024-06-26 23:38:32			0	36081	0	0	0	25592	24240	146537	27027	1021164	42860	109468	0	0	8179	631060	0	0
2024-06-26 23:39:32			0	36095	0	0	0	25576	24220	146513	26795	1021049	42858	109462	0	0	8180	630533	0	0
2024-06-26 23:40:32			0	36114	0	0	0	25573	24220	146521	26767	1021103	42870	109461	0	0	8181	629721	0	0
2024-06-26 23:41:32			0	36102	0	0	0	25571	24210	146381	27260	1021041	42857	109460	0	0	8180	630269	0	0
2024-06-26 23:42:32			0	36121	0	0	0	25566	24210	146385	27062	1021032	42857	109458	0	0	8181	629458	0	0
2024-06-26 23:43:32			0	36126	0	0	0	25568	24200	146421	27114	1021015	42857	109459	0	0	8181	629280	0	0
2024-06-26 23:44:32			0	36122	0	0	0	25555	24190	146413	26989	1020953	42856	109454	0	0	8181	629486	0	0
2024-06-26 23:45:32			0	36115	0	0	0	25558	24190	146533	27050	1021006	42856	109455	0	0	8181	629785	0	0
2024-06-26 23:46:32			0	36105	0	0	0	25558	24180	146557	27074	1020935	42867	109455	0	0	8180	630248	0	0
2024-06-26 23:47:32			0	36092	0	0	0	25558	24180	146553	27149	1020900	42866	109455	0	0	8180	630803	0	0
2024-06-26 23:48:32			0	36072	0	0	0	25548	24170	146637	26679	1020945	42865	109451	0	0	8179	631695	0	0
2024-06-26 23:49:32			0	36075	0	0	0	25555	24180	146709	26748	1020953	42855	109454	0	0	8179	631531	0	0
2024-06-26 23:50:32			0	36056	0	0	0	25561	24160	146657	26739	1020927	42864	109456	0	0	8177	632415	0	0
2024-06-26 23:51:32			0	36051	0	0	0	25566	24180	146689	26880	1021096	42867	109458	0	0	8177	632558	0	0
2024-06-26 23:52:32			0	36052	0	0	0	25576	24190	146721	27027	1021024	42867	109462	0	0	8177	632480	0	0
2024-06-26 23:53:32			0	36017	0	0	0	25584	24180	146945	27031	1020962	42856	109465	0	0	8175	634016	0	0
2024-06-26 23:54:32			0	36000	0	0	0	25592	24170	147001	26845	1021078	42865	109468	0	0	8174	634782	0	0
2024-06-26 23:55:32			0	35984	0	0	0	25586	24180	146993	27114	1021069	42867	109466	0	0	8173	635433	0	0
2024-06-26 23:56:32			0	35969	0	0	0	25597	24190	147225	26981	1021078	42867	109470	0	0	8172	636042	0	0
2024-06-26 23:57:32			0	35956	0	0	0	25594	24180	147133	27137	1021060	42866	109469	0	0	8172	636637	0	0
2024-06-26 23:58:32			0	35925	0	0	0	25594	24190	147189	26883	1021104	42889	109469	0	0	8170	637937	0	0
2024-06-26 23:59:32			0	35933	0	0	0	25589	24190	147361	26852	1021051	42867	109467	0	0	8171	637592	0	0
2024-06-27 00:00:32			0	35908	0	0	0	25584	24190	147393	27159	1020971	42856	109465	0	0	8169	638669	0	0
2024-06-27 00:01:32			0	35873	0	0	0	25584	24180	147409	26939	1020953	42855	109465	0	0	8167	640217	0	0
2024-06-27 00:02:32			0	35855	0	0	0	25579	24180	147449	26913	1021042	42844	109463	0	0	8167	640995	0	0
2024-06-27 00:03:32			0	35848	0	0	0	25571	24180	147568	27258	1021042	42856	109460	0	0	8166	641298	0	0
2024-06-27 00:04:32			0	35845	0	0	0	25568	24160	147608	27138	1020954	42875	109459	0	0	8166	641500	0	0
2024-06-27 00:05:32			0	35817	0	0	0	25558	24170	147704	26927	1021025	42854	109455	0	0	8165	642676	0	0
2024-06-27 00:06:32			0	35789	0	0	0	25566	24170	147752	27039	1020971	42865	109458	0	0	8163	643890	0	0
2024-06-27 00:07:32			0	35781	0	0	0	25555	24160	147860	27142	1020945	42853	109454	0	0	8163	644273	0	0
2024-06-27 00:08:32			0	35775	0	0	0	25561	24170	147752	26994	1020936	42854	109456	0	0	8163	644497	0	0
2024-06-27 00:09:32			0	35761	0	0	0	25571	24180	147880	26965	1020953	42866	109460	0	0	8162	645069	0	0
2024-06-27 00:10:32			0	35747	0	0	0	25576	24170	147996	27121	1021052	42854	109462	0	0	8161	645714	0	0
2024-06-27 00:11:32			0	35736	0	0	0	25584	24170	147992	27260	1020971	42854	109465	0	0	8160	646192	0	0
2024-06-27 00:12:32			0	35724	0	0	0	25586	24170	148048	26785	1021025	42865	109466	0	0	8159	646715	0	0
2024-06-27 00:13:32			0	35698	0	0	0	25581	24180	148228	27289	1021033	42866	109464	0	0	8158	647810	0	0
2024-06-27 00:14:32			0	35699	0	0	0	25589	24170	148224	26981	1021025	42854	109467	0	0	8158	647803	0	0
2024-06-27 00:15:32			0	35682	0	0	0	25597	24170	148240	27253	1021105	42865	109470	0	0	8157	648544	0	0
2024-06-27 00:16:32			0	35679	0	0	0	25607	24180	148324	27126	1021060	42876	109474	0	0	8157	648639	0	0
2024-06-27 00:17:32			0	35668	0	0	0	25605	24180	148308	27327	1021015	42867	109473	0	0	8156	649119	0	0
2024-06-27 00:18:32			0	35652	0	0	0	25602	24180	148344	27248	1021033	42866	109472	0	0	8155	649817	0	0
2024-06-27 00:19:32			0	35622	0	0	0	25592	24180	148404	26908	1021122	42867	109468	0	0	8154	651128	0	0
2024-06-27 00:20:32			0	35622	0	0	0	25589	24190	148472	27223	1021104	42867	109467	0	0	8154	651092	0	0
2024-06-27 00:21:32			0	35633	0	0	0	25584	24180	148520	27026	1020935	42844	109465	0	0	8155	650647	0	0
2024-06-27 00:22:32			0	35618	0	0	0	25571	24180	148544	27332	1020926	42855	109460	0	0	8154	651303	0	0
2024-06-27 00:23:32			0	35605	0	0	0	25555	24170	148588	26967	1020802	42854	109454	0	0	8154	651909	0	0
2024-06-27 00:24:32			0	35603	0	0	0	25524	24160	148560	27039	1020838	42842	109442	0	0	8154	652033	0	0
2024-06-27 00:25:32			0	35611	0	0	0	25501	24140	148600	27248	1020751	42840	109433	0	0	8155	651757	0	0
2024-06-27 00:26:32			0	35594	0	0	0	25490	24140	148664	27237	1020670	42851	109429	0	0	8154	652501	0	0
2024-06-27 00:27:32			0	35593	0	0	0	25480	24130	148772	27157	1020653	42849	109425	0	0	8154	652582	0	0
2024-06-27 00:28:32			0	35597	0	0	0	25470	24100	148752	27213	1020583	42836	109421	0	0	8154	652517	0	0
2024-06-27 00:29:32			0	35588	0	0	0	25459	24110	148780	27279	1020538	42858	109417	0	0	8154	652874	0	0
2024-06-27 00:30:32			0	35583	0	0	0	25451	24100	148780	27332	1020548	42835	109414	0	0	8154	653131	0	0
2024-06-27 00:31:32			0	35570	0	0	0	25446	24090	148800	27249	1020477	42857	109412	0	0	8153	653738	0	0
2024-06-27 00:32:32			0	35555	0	0	0	25449	24080	148820	27170	1020549	42868	109413	0	0	8152	654433	0	0
2024-06-27 00:33:32			0	35552	0	0	0	25441	24090	148916	27203	1020531	42845	109410	0	0	8152	654528	0	0
2024-06-27 00:34:32			0	35565	0	0	0	25446	24080	148980	27248	1020495	42845	109412	0	0	8153	653994	0	0
2024-06-27 00:35:32			0	35538	0	0	0	25454	24090	148972	27248	1020566	42846	109415	0	0	8151	655143	0	0
2024-06-27 00:36:32			0	35550	0	0	0	25464	24080	149000	27303	1020567	42856	109419	0	0	8152	654652	0	0
2024-06-27 00:37:32			0	35534	0	0	0	25472	24070	148976	27289	1020532	42856	109422	0	0	8151	655392	0	0
2024-06-27 00:38:32			0	35530	0	0	0	25498	24080	148936	27109	1020602	42857	109432	0	0	8150	655531	0	0
2024-06-27 00:39:32			0	35534	0	0	0	25501	24090	148964	27062	1020638	42845	109433	0	0	8150	655318	0	0
2024-06-27 00:40:32			0	35516	0	0	0	25503	24090	149020	27034	1020646	42858	109434	0	0	8149	656110	0	0
2024-06-27 00:41:32			0	35518	0	0	0	25501	24090	149100	27031	1020593	42869	109433	0	0	8149	656022	0	0
2024-06-27 00:42:32			0	35528	0	0	0	25488	24080	149108	26942	1020576	42845	109428	0	0	8150	655619	0	0
2024-06-27 00:43:32			0	35534	0	0	0	25477	24070	149108	27116	1020451	42844	109424	0	0	8151	655392	0	0
2024-06-27 00:44:32			0	35528	0	0	0	25457	24070	149048	26918	1020398	42833	109416	0	0	8151	655656	0	0
2024-06-27 00:45:32			0	35510	0	0	0	25433	24070	149064	26942	1020389	42833	109407	0	0	8150	656448	0	0
2024-06-27 00:46:32			0	35524	0	0	0	25418	24050	149036	27043	1020221	42842	109401	0	0	8151	655906	0	0
2024-06-27 00:47:32			0	35519	0	0	0	25392	24030	149084	27261	1020177	42830	109391	0	0	8151	656200	0	0
2024-06-27 00:48:32			0	35520	0	0	0	25368	24020	149072	27161	1020124	42829	109382	0	0	8152	656193	0	0
2024-06-27 00:49:32			0	35516	0	0	0	25361	24000	149148	26892	1020045	42828	109379	0	0	8151	656443	0	0
2024-06-27 00:50:32			0	35517	0	0	0	25345	23980	149032	27116	1019957	42825	109373	0	0	8152	656473	0	0
2024-06-27 00:51:32			0	35531	0	0	0	25322	23980	149128	27216	1019975	42835	109364	0	0	8153	655857	0	0
2024-06-27 00:52:32			0	35524	0	0	0	25306	23980	149052	26949	1019842	42835	109358	0	0	8153	656165	0	0
2024-06-27 00:53:32			0	35522	0	0	0	25301	23960	149124	27417	1019780	42833	109356	0	0	8152	656327	0	0
2024-06-27 00:54:32			0	35531	0	0	0	25296	23950	149036	27003	1019817	42822	109354	0	0	8153	655968	0	0
2024-06-27 00:55:32			0	35533	0	0	0	25277	23950	149212	26859	1019798	42845	109347	0	0	8153	655880	0	0
2024-06-27 00:56:32			0	35519	0	0	0	25267	23930	149120	26889	1019737	42832	109343	0	0	8153	656570	0	0
2024-06-27 00:57:32			0	35542	0	0	0	25262	23920	149152	27144	1019738	42818	109341	0	0	8154	655595	0	0
2024-06-27 00:58:32			0	35541	0	0	0	25272	23920	149088	27116	1019800	42841	109345	0	0	8154	655639	0	0
2024-06-27 00:59:32			0	35535	0	0	0	25311	23930	149128	27112	1019915	42853	109360	0	0	8153	655866	0	0
2024-06-27 01:00:32			0	35519	0	0	0	25350	23950	149108	27059	1020004	42833	109375	0	0	8151	656496	0	0
2024-06-27 01:01:32			0	35530	0	0	0	25381	23960	149132	27410	1020128	42845	109387	0	0	8152	655975	0	0
2024-06-27 01:02:32			0	35513	0	0	0	25394	23960	149164	27081	1020083	42856	109392	0	0	8150	656723	0	0
2024-06-27 01:03:32			0	35502	0	0	0	25410	23970	149200	27159	1020118	42857	109398	0	0	8150	657170	0	0
2024-06-27 01:04:32			0	35509	0	0	0	25415	23970	149152	27305	1020127	42858	109400	0	0	8150	656862	0	0
2024-06-27 01:05:32			0	35514	0	0	0	25425	23970	149144	27005	1020092	42846	109404	0	0	8150	656642	0	0
2024-06-27 01:06:32			0	35503	0	0	0	25425	23980	149200	27048	1020171	42835	109404	0	0	8149	657089	0	0
2024-06-27 01:07:32			0	35506	0	0	0	25428	23980	149184	27059	1020171	42846	109405	0	0	8150	656957	0	0
2024-06-27 01:08:32			0	35482	0	0	0	25428	23990	149136	26814	1020233	42836	109405	0	0	8148	657978	0	0
2024-06-27 01:09:32			0	35496	0	0	0	25418	23990	149180	27041	1020153	42836	109401	0	0	8149	657361	0	0
2024-06-27 01:10:32			0	35512	0	0	0	25423	23990	149308	27005	1020206	42847	109403	0	0	8150	656656	0	0
2024-06-27 01:11:32			0	35498	0	0	0	25428	23990	149248	27048	1020233	42847	109405	0	0	8149	657272	0	0
2024-06-27 01:12:32			0	35494	0	0	0	25423	23980	149288	26878	1020171	42846	109403	0	0	8149	657486	0	0
2024-06-27 01:13:32			0	35502	0	0	0	25428	23990	149244	27204	1020233	42826	109405	0	0	8149	657096	0	0
2024-06-27 01:14:32			0	35486	0	0	0	25420	23990	149236	27284	1020180	42847	109402	0	0	8149	657801	0	0
2024-06-27 01:15:32			0	35523	0	0	0	25420	23990	149156	27229	1020242	42860	109402	0	0	8151	656172	0	0
2024-06-27 01:16:32			0	35528	0	0	0	25431	24000	149128	27208	1020277	42827	109406	0	0	8151	655915	0	0
2024-06-27 01:17:32			0	35538	0	0	0	25436	24000	149008	27005	1020250	42860	109408	0	0	8151	655475	0	0
2024-06-27 01:18:32			0	35576	0	0	0	25441	24000	148996	27124	1020259	42849	109410	0	0	8153	653806	0	0
2024-06-27 01:19:32			0	35567	0	0	0	25438	24000	148952	27220	1020205	42861	109409	0	0	8153	654201	0	0
2024-06-27 01:20:32			0	35577	0	0	0	25436	24000	148908	26849	1020312	42838	109408	0	0	8153	653762	0	0
2024-06-27 01:21:32			0	35548	0	0	0	25441	24010	148932	27118	1020321	42828	109410	0	0	8152	654999	0	0
2024-06-27 01:22:32			0	35569	0	0	0	25438	24010	148924	27204	1020241	42861	109409	0	0	8153	654076	0	0
2024-06-27 01:23:32			0	35558	0	0	0	25438	24000	148976	27445	1020286	42861	109409	0	0	8152	654596	0	0
2024-06-27 01:24:32			0	35546	0	0	0	25436	24010	149016	27464	1020214	42828	109408	0	0	8152	655087	0	0
2024-06-27 01:25:32			0	35547	0	0	0	25418	24010	149044	27206	1020294	42849	109401	0	0	8152	655043	0	0
2024-06-27 01:26:32			0	35534	0	0	0	25428	24010	149044	27209	1020267	42849	109405	0	0	8151	655614	0	0
2024-06-27 01:27:32			0	35539	0	0	0	25425	24000	149116	27327	1020232	42861	109404	0	0	8151	655431	0	0
2024-06-27 01:28:32			0	35525	0	0	0	25425	24000	149056	27234	1020259	42838	109404	0	0	8151	656047	0	0
2024-06-27 01:29:32			0	35517	0	0	0	25423	24010	149060	27242	1020267	42838	109403	0	0	8150	656362	0	0
2024-06-27 01:30:32			0	35516	0	0	0	25415	24010	149136	27128	1020294	42849	109400	0	0	8150	656406	0	0
2024-06-27 01:31:32			0	35510	0	0	0	25423	24000	149060	27043	1020205	42849	109403	0	0	8150	656707	0	0
2024-06-27 01:32:32			0	35514	0	0	0	25415	23990	149108	27216	1020215	42837	109400	0	0	8150	656568	0	0
2024-06-27 01:33:32			0	35508	0	0	0	25423	24000	149164	27274	1020232	42861	109403	0	0	8150	656795	0	0
2024-06-27 01:34:32			0	35509	0	0	0	25420	23990	149208	27248	1020188	42848	109402	0	0	8150	656788	0	0
2024-06-27 01:35:32			0	35492	0	0	0	25423	24000	149192	27090	1020250	42848	109403	0	0	8149	657500	0	0
2024-06-27 01:36:32			0	35501	0	0	0	25418	24000	149184	27237	1020286	42861	109401	0	0	8150	657103	0	0
2024-06-27 01:37:32			0	35522	0	0	0	25423	24010	149272	27092	1020187	42849	109403	0	0	8151	656142	0	0
2024-06-27 01:38:32			0	35497	0	0	0	25425	23990	149180	27218	1020215	42860	109404	0	0	8149	657316	0	0
2024-06-27 01:39:32			0	35491	0	0	0	25423	23990	149204	27251	1020161	42837	109403	0	0	8149	657581	0	0
2024-06-27 01:40:32			0	35510	0	0	0	25418	24000	149184	27192	1020250	42848	109401	0	0	8150	656707	0	0
2024-06-27 01:41:32			0	35512	0	0	0	25425	24000	149108	27175	1020286	42849	109404	0	0	8150	656619	0	0
2024-06-27 01:42:32			0	35503	0	0	0	25423	24000	149176	27317	1020197	42848	109403	0	0	8150	657015	0	0
2024-06-27 01:43:32			0	35533	0	0	0	25428	24000	149124	27317	1020312	42849	109405	0	0	8151	655695	0	0
2024-06-27 01:44:32			0	35514	0	0	0	25423	24000	149052	27350	1020232	42861	109403	0	0	8150	656531	0	0
2024-06-27 01:45:32			0	35532	0	0	0	25431	24010	149004	27275	1020267	42838	109406	0	0	8151	655702	0	0
2024-06-27 01:46:32			0	35524	0	0	0	25425	24010	149032	27206	1020267	42849	109404	0	0	8151	656054	0	0
2024-06-27 01:47:32			0	35533	0	0	0	25412	24000	148996	27339	1020197	42860	109399	0	0	8151	655695	0	0
2024-06-27 01:48:32			0	35541	0	0	0	25420	24000	148948	27479	1020259	42849	109402	0	0	8152	655343	0	0
2024-06-27 01:49:32			0	35558	0	0	0	25431	24000	148964	27246	1020205	42861	109406	0	0	8152	654596	0	0
2024-06-27 01:50:32			0	35556	0	0	0	25420	24000	148868	27144	1020312	42849	109402	0	0	8152	654684	0	0
2024-06-27 01:51:32			0	35585	0	0	0	25428	24000	148820	27126	1020250	42848	109405	0	0	8154	653411	0	0
2024-06-27 01:52:32			0	35573	0	0	0	25425	24010	148796	27313	1020214	42838	109404	0	0	8153	653901	0	0
2024-06-27 01:53:32			0	35593	0	0	0	25423	24000	148856	27239	1020179	42838	109403	0	0	8154	653061	0	0
2024-06-27 01:54:32			0	35597	0	0	0	25425	23990	148780	27256	1020242	42837	109404	0	0	8155	652922	0	0
2024-06-27 01:55:32			0	35624	0	0	0	25423	24000	148660	27246	1020197	42848	109403	0	0	8156	651702	0	0
2024-06-27 01:56:32			0	35641	0	0	0	25425	23990	148600	27060	1020161	42860	109404	0	0	8157	650995	0	0
2024-06-27 01:57:32			0	35631	0	0	0	25423	24000	148604	27334	1020205	42849	109403	0	0	8156	651396	0	0
2024-06-27 01:58:32			0	35654	0	0	0	25420	24000	148564	27388	1020232	42849	109402	0	0	8158	650390	0	0
2024-06-27 01:59:32			0	35644	0	0	0	25423	24010	148488	26934	1020241	42838	109403	0	0	8157	650790	0	0
2024-06-27 02:00:32			0	35674	0	0	0	25420	24000	148424	27326	1020205	42849	109402	0	0	8159	649516	0	0
2024-06-27 02:01:32			0	35667	0	0	0	25415	24010	148524	27092	1020241	42838	109400	0	0	8159	649785	0	0
2024-06-27 02:02:32			0	35679	0	0	0	25428	24010	148500	27315	1020223	42839	109405	0	0	8159	649261	0	0
2024-06-27 02:03:32			0	35682	0	0	0	25423	23990	148464	27443	1020242	42860	109403	0	0	8159	649203	0	0
2024-06-27 02:04:32			0	35704	0	0	0	25415	24010	148452	27027	1020187	42849	109400	0	0	8161	648170	0	0
2024-06-27 02:05:32			0	35697	0	0	0	25425	24000	148324	27029	1020259	42872	109404	0	0	8160	648512	0	0
2024-06-27 02:06:32			0	35707	0	0	0	25423	24000	148372	27175	1020197	42848	109403	0	0	8161	648076	0	0
2024-06-27 02:07:32			0	35707	0	0	0	25418	24000	148296	27118	1020197	42860	109401	0	0	8161	648076	0	0
2024-06-27 02:08:32			0	35704	0	0	0	25420	24000	148344	27308	1020259	42849	109402	0	0	8160	648207	0	0
2024-06-27 02:09:32			0	35720	0	0	0	25425	24000	148264	27282	1020170	42860	109404	0	0	8161	647509	0	0
2024-06-27 02:10:32			0	35715	0	0	0	25418	24000	148300	27229	1020197	42848	109401	0	0	8161	647727	0	0
2024-06-27 02:11:32			0	35712	0	0	0	25423	24000	148240	27123	1020232	42849	109403	0	0	8161	647858	0	0
2024-06-27 02:12:32			0	35725	0	0	0	25418	24010	148272	27242	1020214	42849	109401	0	0	8162	647255	0	0
2024-06-27 02:13:32			0	35735	0	0	0	25415	24000	148180	27168	1020259	42849	109400	0	0	8162	646856	0	0
2024-06-27 02:14:32			0	35763	0	0	0	25410	23990	148056	27107	1020215	42860	109398	0	0	8164	645674	0	0
2024-06-27 02:15:32			0	35750	0	0	0	25412	24000	148040	27017	1020205	42849	109399	0	0	8163	646203	0	0
2024-06-27 02:16:32			0	35747	0	0	0	25402	24000	148068	27095	1020223	42848	109395	0	0	8163	646333	0	0
2024-06-27 02:17:32			0	35756	0	0	0	25407	24000	148060	26909	1020223	42837	109397	0	0	8163	645942	0	0
2024-06-27 02:18:32			0	35754	0	0	0	25405	24010	148056	27088	1020294	42849	109396	0	0	8163	645992	0	0
2024-06-27 02:19:32			0	35772	0	0	0	25397	23990	147948	27072	1020206	42847	109393	0	0	8164	645283	0	0
2024-06-27 02:20:32			0	35781	0	0	0	25392	23980	147976	26986	1020144	42835	109391	0	0	8165	644928	0	0
2024-06-27 02:21:32			0	35775	0	0	0	25384	23980	147956	27319	1020117	42835	109388	0	0	8165	645188	0	0
2024-06-27 02:22:32			0	35766	0	0	0	25379	23990	147980	27168	1020099	42826	109386	0	0	8164	645543	0	0
2024-06-27 02:23:32			0	35803	0	0	0	25371	23980	147960	26868	1020064	42835	109383	0	0	8166	643972	0	0
2024-06-27 02:24:32			0	35798	0	0	0	25368	23980	147892	27149	1020117	42846	109382	0	0	8166	644190	0	0
2024-06-27 02:25:32			0	35808	0	0	0	25353	23980	147808	27060	1020055	42846	109376	0	0	8167	643756	0	0
2024-06-27 02:26:32			0	35816	0	0	0	25348	23970	147748	27031	1019958	42834	109374	0	0	8167	643445	0	0
2024-06-27 02:27:32			0	35814	0	0	0	25337	23960	147700	27206	1019914	42845	109370	0	0	8168	643568	0	0
2024-06-27 02:28:32			0	35835	0	0	0	25340	23960	147772	27027	1019976	42845	109371	0	0	8169	642657	0	0
2024-06-27 02:29:32			0	35842	0	0	0	25348	23970	147720	27220	1020073	42846	109374	0	0	8169	642317	0	0
2024-06-27 02:30:32			0	35825	0	0	0	25368	23960	147576	27317	1020030	42845	109382	0	0	8168	643091	0	0
2024-06-27 02:31:32			0	35842	0	0	0	25371	23970	147468	27083	1020100	42858	109383	0	0	8168	642317	0	0
2024-06-27 02:32:32			0	35847	0	0	0	25381	23970	147544	27424	1020100	42846	109387	0	0	8169	642101	0	0
2024-06-27 02:33:32			0	35854	0	0	0	25386	23970	147660	27353	1020100	42846	109389	0	0	8169	641798	0	0
2024-06-27 02:34:32			0	35878	0	0	0	25397	23960	147569	26935	1020056	42833	109393	0	0	8170	640795	0	0
2024-06-27 02:35:32			0	35889	0	0	0	25392	23980	147505	27196	1020144	42858	109391	0	0	8171	640247	0	0
2024-06-27 02:36:32			0	35864	0	0	0	25397	23980	147505	27119	1020171	42858	109393	0	0	8169	641329	0	0
2024-06-27 02:37:32			0	35890	0	0	0	25402	23980	147589	27317	1020171	42846	109395	0	0	8171	640204	0	0
2024-06-27 02:38:32			0	35886	0	0	0	25402	23980	147509	27428	1020136	42846	109395	0	0	8170	640377	0	0
2024-06-27 02:39:32			0	35881	0	0	0	25394	23970	147505	27416	1020145	42846	109392	0	0	8170	640629	0	0
2024-06-27 02:40:32			0	35901	0	0	0	25410	23980	147413	27270	1020117	42846	109398	0	0	8171	639729	0	0
2024-06-27 02:41:32			0	35903	0	0	0	25410	23980	147485	27234	1020117	42858	109398	0	0	8171	639642	0	0
2024-06-27 02:42:32			0	35915	0	0	0	25405	23980	147401	27353	1020162	42846	109396	0	0	8172	639124	0	0
2024-06-27 02:43:32			0	35925	0	0	0	25405	23980	147417	27182	1020144	42846	109396	0	0	8172	638693	0	0
2024-06-27 02:44:32			0	35901	0	0	0	25410	23980	147385	27140	1020082	42869	109398	0	0	8171	639729	0	0
2024-06-27 02:45:32			0	35920	0	0	0	25412	23980	147441	27105	1020136	42846	109399	0	0	8172	638908	0	0
2024-06-27 02:46:32			0	35928	0	0	0	25402	23980	147409	27216	1020171	42835	109395	0	0	8173	638563	0	0
2024-06-27 02:47:32			0	35940	0	0	0	25405	23980	147329	27076	1020109	42846	109396	0	0	8173	638046	0	0
2024-06-27 02:48:32			0	35914	0	0	0	25407	23980	147281	27164	1020082	42846	109397	0	0	8172	639167	0	0
2024-06-27 02:49:32			0	35941	0	0	0	25397	23980	147349	27164	1020109	42846	109393	0	0	8173	638002	0	0
2024-06-27 02:50:32			0	35933	0	0	0	25407	23970	147297	27196	1020100	42835	109397	0	0	8173	638384	0	0
2024-06-27 02:51:32			0	35912	0	0	0	25397	23970	147413	27287	1020073	42846	109393	0	0	8172	639290	0	0
2024-06-27 02:52:32			0	35926	0	0	0	25394	23980	147337	27360	1020055	42846	109392	0	0	8173	638650	0	0
2024-06-27 02:53:32			0	35934	0	0	0	25402	23980	147281	27223	1020136	42846	109395	0	0	8173	638305	0	0
2024-06-27 02:54:32			0	35912	0	0	0	25402	23980	147317	27261	1020109	42858	109395	0	0	8172	639254	0	0
2024-06-27 02:55:32			0	35943	0	0	0	25394	23970	147361	27229	1020092	42857	109392	0	0	8173	637952	0	0
2024-06-27 02:56:32			0	35931	0	0	0	25392	23980	147249	27573	1020117	42858	109391	0	0	8173	638434	0	0
2024-06-27 02:57:32			0	35934	0	0	0	25397	23980	147273	26982	1020144	42869	109393	0	0	8173	638305	0	0
2024-06-27 02:58:32			0	35929	0	0	0	25394	23980	147385	27369	1020171	42858	109392	0	0	8173	638520	0	0
2024-06-27 02:59:32			0	35924	0	0	0	25386	23990	147393	27126	1020161	42871	109389	0	0	8173	638700	0	0
2024-06-27 03:00:32			0	35919	0	0	0	25379	23980	147413	26986	1020117	42835	109386	0	0	8172	638952	0	0
2024-06-27 03:01:32			0	35909	0	0	0	25371	23980	147341	27466	1020082	42846	109383	0	0	8172	639383	0	0
2024-06-27 03:02:32			0	35920	0	0	0	25374	23990	147493	27171	1020099	42847	109384	0	0	8173	638872	0	0
2024-06-27 03:03:32			0	35910	0	0	0	25350	23980	147477	26927	1020091	42835	109375	0	0	8172	639340	0	0
2024-06-27 03:04:32			0	35912	0	0	0	25361	23970	147421	27308	1020047	42835	109379	0	0	8172	639290	0	0
2024-06-27 03:05:32			0	35888	0	0	0	25358	23970	147405	26953	1020065	42846	109378	0	0	8171	640327	0	0
2024-06-27 03:06:32			0	35909	0	0	0	25358	23970	147577	27348	1020038	42857	109378	0	0	8172	639419	0	0
2024-06-27 03:07:32			0	35886	0	0	0	25350	23970	147557	26876	1020073	42846	109375	0	0	8171	640413	0	0
2024-06-27 03:08:32			0	35884	0	0	0	25350	23970	147521	26993	1020011	42846	109375	0	0	8171	640500	0	0
2024-06-27 03:09:32			0	35874	0	0	0	25332	23960	147577	27116	1020048	42845	109368	0	0	8171	640968	0	0
2024-06-27 03:10:32			0	35868	0	0	0	25324	23960	147737	27187	1019914	42845	109365	0	0	8171	641228	0	0
2024-06-27 03:11:32			0	35855	0	0	0	25322	23960	147772	27090	1019861	42845	109364	0	0	8170	641791	0	0
2024-06-27 03:12:32			0	35850	0	0	0	25322	23940	147688	26809	1019942	42843	109364	0	0	8170	642080	0	0
2024-06-27 03:13:32			0	35837	0	0	0	25303	23940	147824	27190	1019861	42832	109357	0	0	8169	642643	0	0
2024-06-27 03:14:32			0	35819	0	0	0	25301	23940	147844	27112	1019906	42843	109356	0	0	8168	643423	0	0
2024-06-27 03:15:32			0	35830	0	0	0	25296	23930	147872	26791	1019764	42832	109354	0	0	8169	642982	0	0
2024-06-27 03:16:32			0	35808	0	0	0	25285	23920	147888	27303	1019746	42831	109350	0	0	8168	643973	0	0
2024-06-27 03:17:32			0	35786	0	0	0	25270	23920	148000	27118	1019684	42830	109344	0	0	8167	644929	0	0
2024-06-27 03:18:32			0	35787	0	0	0	25264	23900	148052	27249	1019623	42816	109342	0	0	8167	644958	0	0
2024-06-27 03:19:32			0	35779	0	0	0	25262	23890	148076	26944	1019641	42828	109341	0	0	8167	645342	0	0
2024-06-27 03:20:32			0	35772	0	0	0	25244	23890	148104	27194	1019606	42828	109334	0	0	8167	645646	0	0
2024-06-27 03:21:32			0	35764	0	0	0	25249	23890	148180	27263	1019606	42828	109336	0	0	8166	645994	0	0
2024-06-27 03:22:32			0	35736	0	0	0	25241	23880	148212	27041	1019624	42827	109333	0	0	8165	647250	0	0
2024-06-27 03:23:32			0	35735	0	0	0	25238	23880	148272	27334	1019517	42837	109332	0	0	8165	647294	0	0
2024-06-27 03:24:32			0	35715	0	0	0	25233	23870	148284	27203	1019634	42826	109330	0	0	8164	648202	0	0
2024-06-27 03:25:32			0	35716	0	0	0	25233	23870	148508	27201	1019491	42815	109330	0	0	8164	648158	0	0
2024-06-27 03:26:32			0	35690	0	0	0	25236	23870	148432	27145	1019598	42836	109331	0	0	8162	649293	0	0
2024-06-27 03:27:32			0	35675	0	0	0	25233	23870	148496	26927	1019553	42836	109330	0	0	8161	649948	0	0
2024-06-27 03:28:32			0	35670	0	0	0	25231	23870	148492	27225	1019500	42826	109329	0	0	8161	650167	0	0
2024-06-27 03:29:32			0	35669	0	0	0	25231	23870	148556	27111	1019518	42836	109329	0	0	8161	650211	0	0
2024-06-27 03:30:32			0	35652	0	0	0	25228	23860	148644	27267	1019447	42824	109328	0	0	8160	650991	0	0
2024-06-27 03:31:32			0	35650	0	0	0	25223	23860	148684	27208	1019474	42824	109326	0	0	8160	651078	0	0
2024-06-27 03:32:32			0	35621	0	0	0	25228	23860	148724	26909	1019483	42835	109328	0	0	8159	652348	0	0
2024-06-27 03:33:32			0	35616	0	0	0	25223	23860	148764	27123	1019501	42824	109326	0	0	8158	652567	0	0
2024-06-27 03:34:32			0	35610	0	0	0	25223	23860	148736	26975	1019501	42824	109326	0	0	8158	652830	0	0
2024-06-27 03:35:32			0	35594	0	0	0	25225	23850	148808	27235	1019466	42823	109327	0	0	8157	653569	0	0
2024-06-27 03:36:32			0	35603	0	0	0	25225	23850	148768	27234	1019439	42823	109327	0	0	8158	653174	0	0
2024-06-27 03:37:32			0	35593	0	0	0	25215	23840	148900	27197	1019360	42822	109323	0	0	8157	653650	0	0
2024-06-27 03:38:32			0	35563	0	0	0	25212	23830	148992	27345	1019351	42821	109322	0	0	8156	655004	0	0
2024-06-27 03:39:32			0	35550	0	0	0	25205	23830	148972	27111	1019324	42821	109319	0	0	8155	655576	0	0
2024-06-27 03:40:32			0	35539	0	0	0	25218	23830	148948	27343	1019351	42833	109324	0	0	8154	656059	0	0
2024-06-27 03:41:32			0	35538	0	0	0	25215	23840	149100	26897	1019466	42833	109323	0	0	8154	656067	0	0
2024-06-27 03:42:32			0	35538	0	0	0	25215	23830	149160	27327	1019378	42833	109323	0	0	8154	656103	0	0
2024-06-27 03:43:32			0	35489	0	0	0	25228	23840	149196	27017	1019422	42812	109328	0	0	8151	658225	0	0
2024-06-27 03:44:32			0	35502	0	0	0	25223	23830	149156	27357	1019431	42833	109326	0	0	8152	657689	0	0
2024-06-27 03:45:32			0	35486	0	0	0	25220	23840	149344	27377	1019440	42833	109325	0	0	8151	658358	0	0
2024-06-27 03:46:32			0	35469	0	0	0	25233	23840	149408	27303	1019502	42845	109330	0	0	8150	659108	0	0
2024-06-27 03:47:32			0	35430	0	0	0	25238	23840	149328	27199	1019502	42823	109332	0	0	8148	660831	0	0
2024-06-27 03:48:32			0	35424	0	0	0	25254	23850	149464	27064	1019457	42845	109338	0	0	8148	661060	0	0
2024-06-27 03:49:32			0	35438	0	0	0	25249	23840	149544	27246	1019555	42823	109336	0	0	8148	660477	0	0
2024-06-27 03:50:32			0	35410	0	0	0	25257	23840	149560	27092	1019502	42833	109339	0	0	8147	661716	0	0
2024-06-27 03:51:32			0	35405	0	0	0	25259	23850	149604	27168	1019537	42845	109340	0	0	8146	661901	0	0
2024-06-27 03:52:32			0	35385	0	0	0	25259	23850	149636	27281	1019510	42823	109340	0	0	8145	662787	0	0
2024-06-27 03:53:32			0	35382	0	0	0	25254	23840	149728	27258	1019529	42833	109338	0	0	8145	662957	0	0
2024-06-27 03:54:32			0	35357	0	0	0	25249	23850	149764	27088	1019492	42845	109336	0	0	8144	664029	0	0
2024-06-27 03:55:32			0	35345	0	0	0	25251	23850	149832	27005	1019439	42833	109337	0	0	8143	664562	0	0
2024-06-27 03:56:32			0	35324	0	0	0	25244	23840	149932	27260	1019529	42823	109334	0	0	8142	665533	0	0
2024-06-27 03:57:32			0	35330	0	0	0	25244	23840	149852	27062	1019520	42822	109334	0	0	8143	665266	0	0
2024-06-27 03:58:32			0	35330	0	0	0	25251	23850	150008	27046	1019537	42833	109337	0	0	8142	665228	0	0
2024-06-27 03:59:32			0	35306	0	0	0	25254	23850	150084	26996	1019537	42833	109338	0	0	8141	666296	0	0
2024-06-27 04:00:32			0	35275	0	0	0	25249	23850	150128	27251	1019510	42833	109336	0	0	8140	667676	0	0
2024-06-27 04:01:32			0	35296	0	0	0	25254	23850	150112	27076	1019546	42845	109338	0	0	8141	666741	0	0
2024-06-27 04:02:32			0	35259	0	0	0	25264	23850	150216	27116	1019546	42833	109342	0	0	8138	668390	0	0
2024-06-27 04:03:32			0	35270	0	0	0	25270	23860	150196	27098	1019510	42835	109344	0	0	8139	667862	0	0
2024-06-27 04:04:32			0	35244	0	0	0	25267	23860	150284	26974	1019590	42847	109343	0	0	8138	669022	0	0
2024-06-27 04:05:32			0	35218	0	0	0	25280	23860	150316	26974	1019581	42846	109348	0	0	8136	670183	0	0
2024-06-27 04:06:32			0	35234	0	0	0	25277	23860	150348	27039	1019616	42835	109347	0	0	8137	669468	0	0
2024-06-27 04:07:32			0	35215	0	0	0	25270	23860	150428	27315	1019554	42824	109344	0	0	8136	670317	0	0
2024-06-27 04:08:32			0	35241	0	0	0	25277	23870	150336	27253	1019572	42848	109347	0	0	8137	669118	0	0
2024-06-27 04:09:32			0	35224	0	0	0	25283	23870	150400	27131	1019598	42836	109349	0	0	8136	669877	0	0
2024-06-27 04:10:32			0	35219	0	0	0	25280	23860	150460	27220	1019590	42835	109348	0	0	8136	670138	0	0
2024-06-27 04:11:32			0	35199	0	0	0	25267	23870	150424	26998	1019598	42836	109343	0	0	8135	670995	0	0
2024-06-27 04:12:32			0	35198	0	0	0	25270	23860	150448	27272	1019563	42825	109344	0	0	8135	671077	0	0
2024-06-27 04:13:32			0	35196	0	0	0	25264	23870	150512	27078	1019518	42836	109342	0	0	8135	671129	0	0
2024-06-27 04:14:32			0	35189	0	0	0	25254	23860	150500	27441	1019501	42834	109338	0	0	8135	671480	0	0
2024-06-27 04:15:32			0	35207	0	0	0	25262	23850	150528	27218	1019572	42833	109341	0	0	8136	670712	0	0
2024-06-27 04:16:32			0	35203	0	0	0	25267	23860	150584	27170	1019581	42834	109343	0	0	8135	670854	0	0
2024-06-27 04:17:32			0	35182	0	0	0	25246	23860	150520	26875	1019590	42825	109335	0	0	8135	671793	0	0
2024-06-27 04:18:32			0	35192	0	0	0	25254	23860	150504	27279	1019554	42846	109338	0	0	8135	671346	0	0
2024-06-27 04:19:32			0	35186	0	0	0	25262	23860	150624	27370	1019590	42847	109341	0	0	8135	671614	0	0
2024-06-27 04:20:32			0	35198	0	0	0	25254	23870	150604	27455	1019572	42836	109338	0	0	8135	671039	0	0
2024-06-27 04:21:32			0	35206	0	0	0	25267	23860	150620	27064	1019581	42846	109343	0	0	8136	670719	0	0
2024-06-27 04:22:32			0	35195	0	0	0	25262	23860	150552	27114	1019616	42835	109341	0	0	8135	671211	0	0
2024-06-27 04:23:32			0	35186	0	0	0	25277	23850	150572	27211	1019546	42833	109347	0	0	8134	671652	0	0
2024-06-27 04:24:32			0	35196	0	0	0	25280	23870	150564	27291	1019652	42848	109348	0	0	8135	671129	0	0
2024-06-27 04:25:32			0	35193	0	0	0	25283	23870	150500	27220	1019598	42836	109349	0	0	8135	671263	0	0
2024-06-27 04:26:32			0	35214	0	0	0	25296	23860	150528	27258	1019590	42847	109354	0	0	8135	670362	0	0
2024-06-27 04:27:32			0	35188	0	0	0	25309	23870	150488	26935	1019634	42848	109359	0	0	8134	671487	0	0
2024-06-27 04:28:32			0	35198	0	0	0	25298	23870	150476	27100	1019598	42848	109355	0	0	8135	671039	0	0
2024-06-27 04:29:32			0	35216	0	0	0	25301	23870	150500	27275	1019687	42859	109356	0	0	8136	670235	0	0
2024-06-27 04:30:32			0	35211	0	0	0	25311	23870	150476	27007	1019660	42836	109360	0	0	8135	670458	0	0
2024-06-27 04:31:32			0	35191	0	0	0	25303	23870	150544	27072	1019660	42848	109357	0	0	8134	671353	0	0
2024-06-27 04:32:32			0	35211	0	0	0	25324	23880	150584	27241	1019678	42837	109365	0	0	8135	670420	0	0
2024-06-27 04:33:32			0	35215	0	0	0	25322	23880	150416	26894	1019758	42848	109364	0	0	8135	670242	0	0
2024-06-27 04:34:32			0	35217	0	0	0	25316	23890	150376	26961	1019660	42849	109362	0	0	8135	670114	0	0
2024-06-27 04:35:32			0	35227	0	0	0	25314	23900	150340	26979	1019784	42838	109361	0	0	8136	669630	0	0
2024-06-27 04:36:32			0	35226	0	0	0	25327	23890	150440	27202	1019775	42849	109366	0	0	8136	669712	0	0
2024-06-27 04:37:32			0	35242	0	0	0	25322	23900	150388	27020	1019810	42828	109364	0	0	8137	668960	0	0
2024-06-27 04:38:32			0	35226	0	0	0	25324	23900	150460	27248	1019784	42849	109365	0	0	8136	669674	0	0
2024-06-27 04:39:32			0	35246	0	0	0	25327	23900	150416	27130	1019810	42849	109366	0	0	8137	668782	0	0
2024-06-27 04:40:32			0	35231	0	0	0	25319	23890	150420	27438	1019748	42849	109363	0	0	8136	669489	0	0
2024-06-27 04:41:32			0	35250	0	0	0	25324	23900	150360	27128	1019810	42849	109365	0	0	8137	668603	0	0
2024-06-27 04:42:32			0	35255	0	0	0	25314	23890	150240	26984	1019748	42849	109361	0	0	8138	668418	0	0
2024-06-27 04:43:32			0	35251	0	0	0	25327	23890	150304	27147	1019775	42838	109366	0	0	8137	668596	0	0
2024-06-27 04:44:32			0	35245	0	0	0	25322	23900	150240	27189	1019757	42838	109364	0	0	8137	668826	0	0
2024-06-27 04:45:32			0	35264	0	0	0	25319	23890	150224	27218	1019775	42849	109363	0	0	8138	668016	0	0
2024-06-27 04:46:32			0	35281	0	0	0	25316	23900	150264	27194	1019792	42839	109362	0	0	8139	667221	0	0
2024-06-27 04:47:32			0	35274	0	0	0	25311	23890	150296	26941	1019695	42838	109360	0	0	8139	667571	0	0
2024-06-27 04:48:32			0	35276	0	0	0	25316	23900	150176	27281	1019757	42838	109362	0	0	8139	667444	0	0
2024-06-27 04:49:32			0	35273	0	0	0	25314	23890	150176	27029	1019748	42828	109361	0	0	8139	667615	0	0
2024-06-27 04:50:32			0	35258	0	0	0	25311	23900	150164	27301	1019792	42829	109360	0	0	8138	668246	0	0
2024-06-27 04:51:32			0	35260	0	0	0	25306	23900	150164	27196	1019650	42838	109358	0	0	8138	668157	0	0
2024-06-27 04:52:32			0	35260	0	0	0	25280	23890	150188	27147	1019668	42849	109348	0	0	8138	668195	0	0
2024-06-27 04:53:32			0	35268	0	0	0	25267	23890	150120	26986	1019615	42838	109343	0	0	8139	667838	0	0
2024-06-27 04:54:32			0	35270	0	0	0	25246	23880	150204	27107	1019624	42837	109335	0	0	8139	667786	0	0
2024-06-27 04:55:32			0	35261	0	0	0	25220	23870	150252	27272	1019527	42826	109325	0	0	8139	668225	0	0
2024-06-27 04:56:32			0	35239	0	0	0	25212	23870	150228	27145	1019491	42826	109322	0	0	8138	669207	0	0
2024-06-27 04:57:32			0	35239	0	0	0	25205	23860	150312	27185	1019429	42825	109319	0	0	8138	669245	0	0
2024-06-27 04:58:32			0	35223	0	0	0	25194	23860	150416	27175	1019447	42801	109315	0	0	8138	669960	0	0
2024-06-27 04:59:32			0	35198	0	0	0	25181	23840	150508	26713	1019368	42823	109310	0	0	8136	671153	0	0
2024-06-27 05:00:32			0	35189	0	0	0	25173	23840	150556	27008	1019333	42833	109307	0	0	8136	671556	0	0
2024-06-27 05:01:32			0	35182	0	0	0	25158	23830	150620	26948	1019324	42821	109301	0	0	8136	671907	0	0
2024-06-27 05:02:32			0	35132	0	0	0	25140	23810	150760	26989	1019183	42819	109294	0	0	8133	674225	0	0
2024-06-27 05:03:32			0	35120	0	0	0	25127	23820	150940	27270	1019165	42809	109289	0	0	8133	674726	0	0
2024-06-27 05:04:32			0	35092	0	0	0	25116	23790	151063	27142	1019121	42806	109285	0	0	8132	676099	0	0
2024-06-27 05:05:32			0	35084	0	0	0	25114	23790	151151	27102	1019140	42817	109284	0	0	8131	676459	0	0
2024-06-27 05:06:32			0	35068	0	0	0	25101	23790	151095	26890	1019059	42817	109279	0	0	8131	677179	0	0
2024-06-27 05:07:32			0	35036	0	0	0	25096	23780	151203	27230	1019042	42828	109277	0	0	8129	678660	0	0
2024-06-27 05:08:32			0	35031	0	0	0	25101	23770	151371	27000	1018945	42804	109279	0	0	8128	678924	0	0
2024-06-27 05:09:32			0	35048	0	0	0	25088	23750	151427	27280	1018919	42825	109274	0	0	8130	678233	0	0
2024-06-27 05:10:32			0	35031	0	0	0	25096	23760	151503	27327	1018954	42826	109277	0	0	8128	678962	0	0
2024-06-27 05:11:32			0	35007	0	0	0	25106	23750	151459	27206	1018999	42825	109281	0	0	8127	680084	0	0
2024-06-27 05:12:32			0	35016	0	0	0	25129	23760	151507	27490	1019123	42826	109290	0	0	8127	679639	0	0
2024-06-27 05:13:32			0	35011	0	0	0	25158	23770	151411	26987	1019212	42836	109301	0	0	8126	679827	0	0
2024-06-27 05:14:32			0	35003	0	0	0	25166	23770	151499	27001	1019185	42836	109304	0	0	8126	680189	0	0
2024-06-27 05:15:32			0	35020	0	0	0	25179	23780	151531	26859	1019202	42838	109309	0	0	8127	679382	0	0
2024-06-27 05:16:32			0	35000	0	0	0	25202	23780	151439	27216	1019291	42828	109318	0	0	8125	680286	0	0
2024-06-27 05:17:32			0	35008	0	0	0	25223	23800	151475	27237	1019397	42830	109326	0	0	8125	679848	0	0
2024-06-27 05:18:32			0	35025	0	0	0	25244	23810	151447	27255	1019396	42841	109334	0	0	8126	679042	0	0
2024-06-27 05:19:32			0	35012	0	0	0	25251	23800	151459	27135	1019371	42851	109337	0	0	8125	679667	0	0
2024-06-27 05:20:32			0	35018	0	0	0	25257	23820	151399	27208	1019494	42854	109339	0	0	8125	679319	0	0
2024-06-27 05:21:32			0	35011	0	0	0	25246	23820	151359	27104	1019459	42832	109335	0	0	8125	679636	0	0
2024-06-27 05:22:32			0	35020	0	0	0	25257	23830	151399	27246	1019449	42833	109339	0	0	8125	679191	0	0
2024-06-27 05:23:32			0	35022	0	0	0	25249	23810	151303	27109	1019423	42831	109336	0	0	8126	679177	0	0
2024-06-27 05:24:32			0	35032	0	0	0	25236	23820	151299	27067	1019387	42821	109331	0	0	8126	678687	0	0
2024-06-27 05:25:32			0	35054	0	0	0	25228	23820	151203	27192	1019298	42842	109328	0	0	8128	677695	0	0
2024-06-27 05:26:32			0	35053	0	0	0	25210	23810	151159	26857	1019308	42841	109321	0	0	8128	677779	0	0
2024-06-27 05:27:32			0	35094	0	0	0	25212	23810	151023	27149	1019361	42819	109322	0	0	8130	675932	0	0
2024-06-27 05:28:32			0	35099	0	0	0	25199	23800	150855	26856	1019299	42831	109317	0	0	8131	675746	0	0
2024-06-27 05:29:32			0	35126	0	0	0	25192	23800	150876	26899	1019290	42830	109314	0	0	8132	674532	0	0
2024-06-27 05:30:32			0	35136	0	0	0	25181	23790	150924	27024	1019113	42817	109310	0	0	8133	674121	0	0
2024-06-27 05:31:32			0	35163	0	0	0	25173	23780	150808	26785	1019104	42805	109307	0	0	8134	672948	0	0
2024-06-27 05:32:32			0	35179	0	0	0	25161	23780	150644	27039	1019078	42817	109302	0	0	8136	672230	0	0
2024-06-27 05:33:32			0	35203	0	0	0	25150	23780	150444	27121	1019069	42817	109298	0	0	8137	671156	0	0
2024-06-27 05:34:32			0	35216	0	0	0	25142	23770	150536	27197	1019052	42815	109295	0	0	8138	670612	0	0
2024-06-27 05:35:32			0	35255	0	0	0	25124	23750	150364	27081	1018946	42814	109288	0	0	8140	668945	0	0
2024-06-27 05:36:32			0	35249	0	0	0	25111	23750	150300	27431	1018919	42814	109283	0	0	8140	669213	0	0
2024-06-27 05:37:32			0	35283	0	0	0	25119	23750	150232	26968	1019017	42813	109286	0	0	8142	667696	0	0
2024-06-27 05:38:32			0	35255	0	0	0	25119	23740	150228	27383	1018982	42813	109286	0	0	8140	668983	0	0
2024-06-27 05:39:32			0	35254	0	0	0	25116	23730	150296	27258	1018911	42812	109285	0	0	8140	669065	0	0
2024-06-27 05:40:32			0	35268	0	0	0	25116	23730	150356	27213	1018973	42813	109285	0	0	8141	668440	0	0
2024-06-27 05:41:32			0	35254	0	0	0	25111	23730	150476	27218	1018947	42824	109283	0	0	8140	669065	0	0
2024-06-27 05:42:32			0	35171	0	0	0	25114	23720	150708	27234	1018876	42833	109284	0	0	8136	672816	0	0
2024-06-27 05:43:32			0	35082	0	0	0	25106	23720	151167	27027	1018956	42811	109281	0	0	8131	676815	0	0
2024-06-27 05:44:32			0	34949	0	0	0	25106	23720	151611	27140	1018841	42821	109281	0	0	8124	682825	0	0
2024-06-27 05:45:32			0	34853	0	0	0	25101	23710	152115	27114	1018797	42810	109279	0	0	8118	687226	0	0
2024-06-27 05:46:32			0	34773	0	0	0	25093	23710	152483	26873	1018770	42810	109276	0	0	8114	690877	0	0
2024-06-27 05:47:32			0	34700	0	0	0	25085	23700	152795	27164	1018753	42820	109273	0	0	8110	694261	0	0
2024-06-27 05:48:32			0	34649	0	0	0	25077	23690	153039	26831	1018771	42820	109270	0	0	8108	696645	0	0
2024-06-27 05:49:32			0	34596	0	0	0	25083	23690	153179	26890	1018771	42808	109272	0	0	8105	699088	0	0
2024-06-27 05:50:32			0	34582	0	0	0	25080	23690	153327	27034	1018798	42808	109271	0	0	8104	699734	0	0
2024-06-27 05:51:32			0	34541	0	0	0	25083	23690	153283	27256	1018771	42820	109272	0	0	8101	701629	0	0
2024-06-27 05:52:32			0	34598	0	0	0	25085	23680	153287	27260	1018753	42819	109273	0	0	8105	699035	0	0
2024-06-27 05:53:32			0	34557	0	0	0	25080	23680	153303	27192	1018718	42818	109271	0	0	8102	700929	0	0
2024-06-27 05:54:32			0	34556	0	0	0	25088	23680	153335	27249	1018673	42840	109274	0	0	8102	700975	0	0
2024-06-27 05:55:32			0	34559	0	0	0	25080	23680	153463	27022	1018691	42806	109271	0	0	8102	700836	0	0
2024-06-27 05:56:32			0	34534	0	0	0	25072	23680	153575	27211	1018700	42830	109268	0	0	8101	701993	0	0
2024-06-27 05:57:32			0	34513	0	0	0	25080	23680	153651	27545	1018745	42829	109271	0	0	8100	702966	0	0
2024-06-27 05:58:32			0	34481	0	0	0	25072	23680	153715	27261	1018691	42806	109268	0	0	8098	704450	0	0
2024-06-27 05:59:32			0	34468	0	0	0	25075	23670	153807	27204	1018683	42806	109269	0	0	8097	705094	0	0
2024-06-27 06:00:32			0	34483	0	0	0	25075	23680	153799	27234	1018798	42806	109269	0	0	8098	704357	0	0
2024-06-27 06:01:32			0	34488	0	0	0	25077	23670	153787	27072	1018674	42818	109270	0	0	8099	704165	0	0
2024-06-27 06:02:32			0	34495	0	0	0	25070	23670	153715	27279	1018603	42806	109267	0	0	8099	703840	0	0
2024-06-27 06:03:32			0	34526	0	0	0	25062	23660	153583	27138	1018585	42817	109264	0	0	8101	702443	0	0
2024-06-27 06:04:32			0	34536	0	0	0	25059	23660	153515	26902	1018577	42816	109263	0	0	8101	701979	0	0
2024-06-27 06:05:32			0	34583	0	0	0	25051	23660	153355	27286	1018612	42805	109260	0	0	8104	699806	0	0
2024-06-27 06:06:32			0	34614	0	0	0	25041	23660	153275	27305	1018577	42816	109256	0	0	8106	698375	0	0
2024-06-27 06:07:32			0	34673	0	0	0	25049	23660	153007	27218	1018603	42816	109259	0	0	8109	695658	0	0
2024-06-27 06:08:32			0	34737	0	0	0	25038	23650	152811	27180	1018568	42827	109255	0	0	8113	692759	0	0
2024-06-27 06:09:32			0	34775	0	0	0	25046	23640	152507	27015	1018649	42803	109258	0	0	8115	691058	0	0
2024-06-27 06:10:32			0	34829	0	0	0	25044	23640	152267	27027	1018569	42825	109257	0	0	8118	688591	0	0
2024-06-27 06:11:32			0	34914	0	0	0	25046	23650	152127	26935	1018613	42815	109258	0	0	8122	684682	0	0
2024-06-27 06:12:32			0	34947	0	0	0	25054	23650	151831	27242	1018586	42804	109261	0	0	8124	683184	0	0
2024-06-27 06:13:32			0	35000	0	0	0	25062	23650	151507	27130	1018640	42836	109264	0	0	8127	680784	0	0
2024-06-27 06:14:32			0	35058	0	0	0	25064	23650	151271	26935	1018675	42827	109265	0	0	8130	678164	0	0
2024-06-27 06:15:32			0	35116	0	0	0	25064	23650	151052	27168	1018640	42826	109265	0	0	8133	675552	0	0
2024-06-27 06:16:32			0	35183	0	0	0	25070	23660	150788	26892	1018657	42805	109267	0	0	8137	672506	0	0
2024-06-27 06:17:32			0	35229	0	0	0	25075	23660	150600	27038	1018719	42817	109269	0	0	8139	670446	0	0
2024-06-27 06:18:32			0	35276	0	0	0	25080	23650	150312	27301	1018640	42804	109271	0	0	8142	668384	0	0
2024-06-27 06:19:32			0	35332	0	0	0	25085	23660	150156	27209	1018692	42817	109273	0	0	8145	665851	0	0
2024-06-27 06:20:32			0	35373	0	0	0	25093	23660	149984	27001	1018719	42817	109276	0	0	8147	664029	0	0
2024-06-27 06:21:32			0	35411	0	0	0	25093	23660	149772	27114	1018746	42817	109276	0	0	8149	662343	0	0
2024-06-27 06:22:32			0	35437	0	0	0	25098	23660	149668	27211	1018772	42838	109278	0	0	8150	661191	0	0
2024-06-27 06:23:32			0	35481	0	0	0	25098	23670	149592	27189	1018790	42829	109278	0	0	8152	659209	0	0
2024-06-27 06:24:32			0	35510	0	0	0	25103	23670	149368	27272	1018763	42829	109280	0	0	8154	657929	0	0
2024-06-27 06:25:32			0	35536	0	0	0	25101	23680	149184	26991	1018771	42818	109279	0	0	8155	656746	0	0
2024-06-27 06:26:32			0	35567	0	0	0	25101	23670	148956	27331	1018736	42806	109279	0	0	8157	655418	0	0
2024-06-27 06:27:32			0	35604	0	0	0	25106	23670	148916	27225	1018816	42818	109281	0	0	8159	653792	0	0
2024-06-27 06:28:32			0	35618	0	0	0	25106	23680	148844	27256	1018798	42829	109281	0	0	8160	653141	0	0
2024-06-27 06:29:32			0	35637	0	0	0	25129	23690	148684	26989	1018878	42820	109290	0	0	8160	652271	0	0
2024-06-27 06:30:32			0	35635	0	0	0	25137	23690	148724	27310	1018896	42820	109293	0	0	8160	652359	0	0
2024-06-27 06:31:32			0	35669	0	0	0	25142	23710	148600	27208	1018930	42833	109295	0	0	8162	650797	0	0
2024-06-27 06:32:32			0	35689	0	0	0	25150	23700	148592	27161	1018913	42841	109298	0	0	8163	649959	0	0
2024-06-27 06:33:32			0	35717	0	0	0	25161	23700	148500	26764	1018975	42842	109302	0	0	8164	648735	0	0
2024-06-27 06:34:32			0	35747	0	0	0	25155	23710	148408	27216	1018939	42821	109300	0	0	8166	647390	0	0
2024-06-27 06:35:32			0	35757	0	0	0	25155	23710	148312	27100	1018966	42833	109300	0	0	8166	646955	0	0
2024-06-27 06:36:32			0	35752	0	0	0	25148	23720	148224	27185	1018956	42822	109297	0	0	8166	647136	0	0
2024-06-27 06:37:32			0	35785	0	0	0	25150	23720	148252	27313	1018947	42821	109298	0	0	8168	645699	0	0
2024-06-27 06:38:32			0	35789	0	0	0	25145	23720	148096	26944	1018974	42833	109296	0	0	8168	645525	0	0
2024-06-27 06:39:32			0	35791	0	0	0	25137	23720	148108	26920	1019001	42821	109293	0	0	8169	645438	0	0
2024-06-27 06:40:32			0	35808	0	0	0	25137	23720	147996	26991	1019090	42822	109293	0	0	8170	644699	0	0
2024-06-27 06:41:32			0	35815	0	0	0	25145	23720	148040	26682	1019001	42833	109296	0	0	8170	644395	0	0
2024-06-27 06:42:32			0	35797	0	0	0	25142	23720	148020	27121	1019028	42821	109295	0	0	8169	645177	0	0
2024-06-27 06:43:32			0	35825	0	0	0	25140	23720	147940	27159	1019036	42833	109294	0	0	8170	643961	0	0
2024-06-27 06:44:32			0	35813	0	0	0	25148	23720	148076	27334	1019001	42821	109297	0	0	8170	644482	0	0
2024-06-27 06:45:32			0	35847	0	0	0	25158	23720	147952	27170	1018974	42810	109301	0	0	8171	643006	0	0
2024-06-27 06:46:32			0	35818	0	0	0	25150	23730	147940	27050	1019107	42824	109298	0	0	8170	644228	0	0
2024-06-27 06:47:32			0	35817	0	0	0	25158	23730	147944	27241	1019080	42834	109301	0	0	8170	644272	0	0
2024-06-27 06:48:32			0	35823	0	0	0	25166	23730	148028	27088	1019053	42834	109304	0	0	8170	644011	0	0
2024-06-27 06:49:32			0	35841	0	0	0	25161	23740	147992	27104	1019142	42834	109302	0	0	8171	643194	0	0
2024-06-27 06:50:32			0	35826	0	0	0	25161	23740	147988	27398	1019116	42824	109302	0	0	8170	643845	0	0
2024-06-27 06:51:32			0	35825	0	0	0	25166	23760	147996	27196	1019115	42826	109304	0	0	8170	643815	0	0
2024-06-27 06:52:32			0	35831	0	0	0	25166	23750	147840	26986	1019106	42825	109304	0	0	8170	643591	0	0
2024-06-27 06:53:32			0	35826	0	0	0	25163	23750	147952	27046	1019124	42824	109303	0	0	8170	643808	0	0
2024-06-27 06:54:32			0	35840	0	0	0	25163	23750	147888	27237	1019044	42824	109303	0	0	8171	643201	0	0
2024-06-27 06:55:32			0	35826	0	0	0	25155	23750	147916	27275	1019017	42813	109300	0	0	8170	643808	0	0
2024-06-27 06:56:32			0	35832	0	0	0	25155	23740	147888	27326	1019009	42846	109300	0	0	8171	643584	0	0
2024-06-27 06:57:32			0	35833	0	0	0	25161	23750	148016	27085	1019017	42824	109302	0	0	8171	643505	0	0
2024-06-27 06:58:32			0	35859	0	0	0	25153	23740	147797	27441	1019062	42813	109299	0	0	8172	642413	0	0
2024-06-27 06:59:32			0	35861	0	0	0	25150	23740	147881	26974	1019062	42846	109298	0	0	8172	642326	0	0
2024-06-27 07:00:32			0	35874	0	0	0	25158	23750	147801	26833	1019026	42835	109301	0	0	8173	641727	0	0
2024-06-27 07:01:32			0	35851	0	0	0	25161	23740	147764	27098	1019062	42834	109302	0	0	8171	642760	0	0
2024-06-27 07:02:32			0	35867	0	0	0	25163	23740	147764	27225	1019089	42834	109303	0	0	8172	642066	0	0
2024-06-27 07:03:32			0	35879	0	0	0	25161	23730	147725	27123	1019107	42834	109302	0	0	8173	641583	0	0
2024-06-27 07:04:32			0	35885	0	0	0	25155	23730	147705	27152	1019107	42824	109300	0	0	8173	641323	0	0
2024-06-27 07:05:32			0	35892	0	0	0	25148	23740	147745	26967	1019035	42824	109297	0	0	8174	640984	0	0
2024-06-27 07:06:32			0	35887	0	0	0	25153	23750	147621	26753	1019071	42834	109299	0	0	8174	641164	0	0
2024-06-27 07:07:32			0	35899	0	0	0	25145	23740	147757	27046	1019035	42834	109296	0	0	8174	640681	0	0
2024-06-27 07:08:32			0	35881	0	0	0	25150	23730	147709	27159	1018973	42824	109298	0	0	8173	641496	0	0
2024-06-27 07:09:32			0	35887	0	0	0	25142	23750	147645	27227	1019097	42824	109295	0	0	8174	641164	0	0
2024-06-27 07:10:32			0	35894	0	0	0	25142	23750	147645	27135	1019044	42813	109295	0	0	8174	640861	0	0
2024-06-27 07:11:32			0	35912	0	0	0	25142	23740	147677	27081	1019009	42824	109295	0	0	8175	640119	0	0
2024-06-27 07:12:32			0	35918	0	0	0	25129	23730	147613	27114	1018973	42802	109290	0	0	8176	639895	0	0
2024-06-27 07:13:32			0	35903	0	0	0	25135	23720	147597	27107	1018956	42822	109292	0	0	8175	640580	0	0
2024-06-27 07:14:32			0	35914	0	0	0	25140	23740	147637	26930	1019035	42834	109294	0	0	8175	640032	0	0
2024-06-27 07:15:32			0	35901	0	0	0	25137	23720	147641	27322	1019090	42833	109293	0	0	8174	640666	0	0
2024-06-27 07:16:32			0	35883	0	0	0	25148	23740	147709	26908	1019035	42824	109297	0	0	8173	641373	0	0
2024-06-27 07:17:32			0	35900	0	0	0	25145	23730	147721	26908	1019018	42823	109296	0	0	8174	640674	0	0
2024-06-27 07:18:32			0	35886	0	0	0	25145	23750	147749	27234	1019044	42824	109296	0	0	8174	641207	0	0
2024-06-27 07:19:32			0	35903	0	0	0	25158	23730	147701	27147	1019027	42824	109301	0	0	8174	640544	0	0
2024-06-27 07:20:32			0	35892	0	0	0	25148	23720	147749	27170	1019010	42822	109297	0	0	8174	641056	0	0
2024-06-27 07:21:32			0	35914	0	0	0	25132	23730	147617	27473	1018973	42834	109291	0	0	8175	640068	0	0
2024-06-27 07:22:32			0	35914	0	0	0	25124	23720	147649	27189	1018956	42822	109288	0	0	8175	640104	0	0
2024-06-27 07:23:32			0	35938	0	0	0	25132	23720	147621	27377	1018974	42833	109291	0	0	8177	639067	0	0
2024-06-27 07:24:32			0	35947	0	0	0	25124	23710	147549	27190	1018966	42821	109288	0	0	8177	638715	0	0
2024-06-27 07:25:32			0	35951	0	0	0	25127	23710	147541	27086	1018904	42821	109289	0	0	8177	638542	0	0
2024-06-27 07:26:32			0	35946	0	0	0	25124	23710	147565	27190	1018939	42821	109288	0	0	8177	638758	0	0
2024-06-27 07:27:32			0	35977	0	0	0	25124	23720	147441	27237	1019001	42833	109288	0	0	8179	637384	0	0
2024-06-27 07:28:32			0	35985	0	0	0	25132	23720	147389	27083	1019054	42821	109291	0	0	8179	637040	0	0
2024-06-27 07:29:32			0	35994	0	0	0	25129	23720	147333	27419	1019063	42833	109290	0	0	8180	636652	0	0
2024-06-27 07:30:32			0	36002	0	0	0	25127	23720	147317	27081	1018956	42833	109289	0	0	8180	636308	0	0
2024-06-27 07:31:32			0	36016	0	0	0	25124	23720	147189	27071	1018921	42833	109288	0	0	8181	635705	0	0
2024-06-27 07:32:32			0	36055	0	0	0	25124	23710	147021	27306	1019019	42821	109288	0	0	8183	634064	0	0
2024-06-27 07:33:32			0	36097	0	0	0	25135	23720	146957	27137	1018947	42833	109292	0	0	8185	632227	0	0
2024-06-27 07:34:32			0	36122	0	0	0	25132	23720	146801	27107	1019028	42821	109291	0	0	8186	631156	0	0
2024-06-27 07:35:32			0	36183	0	0	0	25145	23720	146585	27298	1019036	42844	109296	0	0	8189	628549	0	0
2024-06-27 07:36:32			0	36229	0	0	0	25150	23720	146373	27208	1019001	42821	109298	0	0	8192	626587	0	0
2024-06-27 07:37:32			0	36298	0	0	0	25148	23740	146081	27173	1019062	42824	109297	0	0	8195	623583	0	0
2024-06-27 07:38:32			0	36373	0	0	0	25137	23710	145885	27242	1018912	42810	109293	0	0	8199	620510	0	0
2024-06-27 07:39:32			0	36449	0	0	0	25142	23720	145537	26861	1019010	42822	109295	0	0	8203	617267	0	0
2024-06-27 07:40:32			0	36518	0	0	0	25150	23730	145361	26972	1019072	42823	109298	0	0	8207	614329	0	0
2024-06-27 07:41:32			0	36574	0	0	0	25153	23730	145025	27263	1019080	42824	109299	0	0	8210	611979	0	0
2024-06-27 07:42:32			0	36640	0	0	0	25161	23730	144870	27071	1019080	42824	109302	0	0	8213	609219	0	0
2024-06-27 07:43:32			0	36679	0	0	0	25168	23750	144726	26897	1019178	42846	109305	0	0	8215	607523	0	0
2024-06-27 07:44:32			0	36730	0	0	0	25173	23740	144590	27159	1019062	42834	109307	0	0	8218	605433	0	0
2024-06-27 07:45:32			0	36727	0	0	0	25176	23750	144426	27187	1019124	42824	109308	0	0	8218	605524	0	0
2024-06-27 07:46:32			0	36774	0	0	0	25168	23760	144262	27145	1019150	42826	109305	0	0	8220	603538	0	0
2024-06-27 07:47:32			0	36792	0	0	0	25171	23750	144222	27298	1019186	42825	109306	0	0	8221	602825	0	0
2024-06-27 07:48:32			0	36795	0	0	0	25171	23760	144194	26812	1019115	42848	109306	0	0	8221	602666	0	0
2024-06-27 07:49:32			0	36810	0	0	0	25181	23750	144122	27150	1019124	42834	109310	0	0	8222	602079	0	0
2024-06-27 07:50:32			0	36810	0	0	0	25176	23760	144158	27500	1019221	42848	109308	0	0	8222	602045	0	0
2024-06-27 07:51:32			0	36814	0	0	0	25166	23760	144174	27072	1019168	42836	109304	0	0	8222	601879	0	0
2024-06-27 07:52:32			0	36812	0	0	0	25171	23760	144106	27374	1019177	42826	109306	0	0	8222	601962	0	0
2024-06-27 07:53:32			0	36804	0	0	0	25173	23760	144050	27142	1019195	42848	109307	0	0	8222	602293	0	0
2024-06-27 07:54:32			0	36817	0	0	0	25184	23760	144110	27249	1019177	42836	109311	0	0	8222	601755	0	0
2024-06-27 07:55:32			0	36846	0	0	0	25176	23760	144058	27381	1019248	42826	109308	0	0	8224	600555	0	0
2024-06-27 07:56:32			0	36827	0	0	0	25186	23770	144086	27353	1019239	42836	109312	0	0	8223	601307	0	0
2024-06-27 07:57:32			0	36831	0	0	0	25194	23770	144046	27383	1019265	42836	109315	0	0	8223	601141	0	0
2024-06-27 07:58:32			0	36835	0	0	0	25189	23770	144086	27137	1019221	42837	109313	0	0	8223	600976	0	0
2024-06-27 07:59:32			0	36839	0	0	0	25192	23780	144106	26896	1019256	42850	109314	0	0	8223	600776	0	0
2024-06-27 08:00:32			0	36806	0	0	0	25197	23770	144098	27357	1019239	42836	109316	0	0	8221	602177	0	0
2024-06-27 08:01:32			0	36801	0	0	0	25199	23770	144130	27218	1019247	42837	109317	0	0	8221	602384	0	0
2024-06-27 08:02:32			0	36798	0	0	0	25202	23780	144322	27256	1019283	42838	109318	0	0	8221	602474	0	0
2024-06-27 08:03:32			0	36753	0	0	0	25205	23780	144410	26949	1019283	42828	109319	0	0	8219	604341	0	0
2024-06-27 08:04:32			0	36716	0	0	0	25207	23780	144554	27097	1019318	42838	109320	0	0	8217	605879	0	0
2024-06-27 08:05:32			0	36690	0	0	0	25210	23790	144582	27086	1019353	42828	109321	0	0	8215	606928	0	0
2024-06-27 08:06:32			0	36649	0	0	0	25212	23800	144706	27154	1019264	42830	109322	0	0	8213	608603	0	0
2024-06-27 08:07:32			0	36614	0	0	0	25212	23780	144786	27249	1019291	42850	109322	0	0	8211	610134	0	0
2024-06-27 08:08:32			0	36584	0	0	0	25212	23790	144989	27346	1019300	42850	109322	0	0	8210	611354	0	0
2024-06-27 08:09:32			0	36588	0	0	0	25210	23790	145050	26977	1019246	42838	109321	0	0	8210	611187	0	0
2024-06-27 08:10:32			0	36543	0	0	0	25212	23790	145065	27045	1019353	42850	109322	0	0	8207	613072	0	0
2024-06-27 08:11:32			0	36548	0	0	0	25205	23790	145185	27358	1019353	42838	109319	0	0	8208	612862	0	0
2024-06-27 08:12:32			0	36531	0	0	0	25210	23800	145273	27329	1019371	42840	109321	0	0	8207	613541	0	0
2024-06-27 08:13:32			0	36508	0	0	0	25218	23800	145269	27015	1019406	42852	109324	0	0	8206	614507	0	0
2024-06-27 08:14:32			0	36487	0	0	0	25228	23800	145305	27017	1019371	42840	109328	0	0	8204	615389	0	0
2024-06-27 08:15:32			0	36486	0	0	0	25225	23790	145349	27166	1019389	42839	109327	0	0	8204	615466	0	0
2024-06-27 08:16:32			0	36450	0	0	0	25231	23800	145517	27391	1019352	42831	109329	0	0	8202	616947	0	0
2024-06-27 08:17:32			0	36394	0	0	0	25220	23800	145653	26925	1019326	42841	109325	0	0	8200	619309	0	0
2024-06-27 08:18:32			0	36369	0	0	0	25218	23810	145873	27114	1019388	42831	109324	0	0	8198	620330	0	0
2024-06-27 08:19:32			0	36290	0	0	0	25231	23810	146073	27133	1019441	42841	109329	0	0	8194	623677	0	0
2024-06-27 08:20:32			0	36242	0	0	0	25238	23810	146197	27057	1019450	42852	109332	0	0	8191	625717	0	0
2024-06-27 08:21:32			0	36212	0	0	0	25251	23810	146413	27055	1019503	42864	109337	0	0	8189	626994	0	0
2024-06-27 08:22:32			0	36141	0	0	0	25272	23830	146565	27258	1019538	42843	109345	0	0	8185	629953	0	0
2024-06-27 08:23:32			0	36086	0	0	0	25298	23830	146857	27282	1019591	42854	109355	0	0	8182	632307	0	0
2024-06-27 08:24:32			0	36029	0	0	0	25301	23830	147165	27140	1019698	42854	109356	0	0	8179	634752	0	0
2024-06-27 08:25:32			0	35980	0	0	0	25314	23840	147285	27055	1019662	42856	109361	0	0	8176	636825	0	0
2024-06-27 08:26:32			0	35942	0	0	0	25322	23850	147489	27046	1019751	42833	109364	0	0	8174	638427	0	0
2024-06-27 08:27:32			0	35874	0	0	0	25316	23860	147749	27403	1019741	42857	109362	0	0	8171	641330	0	0
2024-06-27 08:28:32			0	35810	0	0	0	25324	23860	148036	27203	1019803	42847	109365	0	0	8167	644104	0	0
2024-06-27 08:29:32			0	35739	0	0	0	25332	23870	148312	27274	1019821	42848	109368	0	0	8163	647156	0	0
2024-06-27 08:30:32			0	35673	0	0	0	25348	23880	148660	27137	1019829	42859	109374	0	0	8159	649999	0	0
2024-06-27 08:31:32			0	35574	0	0	0	25345	23890	148908	27317	1019882	42861	109373	0	0	8154	654299	0	0
2024-06-27 08:32:32			0	35525	0	0	0	25348	23890	149164	27246	1019909	42861	109374	0	0	8152	656454	0	0
2024-06-27 08:33:32			0	35460	0	0	0	25350	23900	149392	27052	1019917	42849	109375	0	0	8148	659282	0	0
2024-06-27 08:34:32			0	35419	0	0	0	25358	23900	149380	27111	1019872	42850	109378	0	0	8146	661095	0	0
2024-06-27 08:35:32			0	35375	0	0	0	25371	23900	149652	27152	1019979	42839	109383	0	0	8143	663043	0	0
2024-06-27 08:36:32			0	35374	0	0	0	25366	23910	149780	27194	1020023	42874	109381	0	0	8143	663050	0	0
2024-06-27 08:37:32			0	35356	0	0	0	25366	23910	149804	27244	1019970	42851	109381	0	0	8142	663849	0	0
2024-06-27 08:38:32			0	35341	0	0	0	25368	23920	149744	27275	1020059	42851	109382	0	0	8141	664477	0	0
2024-06-27 08:39:32			0	35329	0	0	0	25374	23920	149996	27203	1020067	42852	109384	0	0	8141	665010	0	0
2024-06-27 08:40:32			0	35323	0	0	0	25394	23930	149936	27017	1020138	42864	109392	0	0	8140	665239	0	0
2024-06-27 08:41:32			0	35338	0	0	0	25386	23930	149884	27012	1020058	42864	109389	0	0	8141	664573	0	0
2024-06-27 08:42:32			0	35319	0	0	0	25394	23950	149952	27208	1020164	42866	109392	0	0	8140	665342	0	0
2024-06-27 08:43:32			0	35320	0	0	0	25389	23940	150004	27109	1020129	42865	109390	0	0	8140	665336	0	0
2024-06-27 08:44:32			0	35328	0	0	0	25394	23950	149984	27124	1020146	42867	109392	0	0	8140	664943	0	0
2024-06-27 08:45:32			0	35305	0	0	0	25412	23950	149988	27251	1020226	42867	109399	0	0	8139	665965	0	0
2024-06-27 08:46:32			0	35319	0	0	0	25428	23970	150120	27277	1020279	42868	109405	0	0	8139	665267	0	0
2024-06-27 08:47:32			0	35292	0	0	0	25433	23960	150176	27282	1020243	42856	109407	0	0	8138	666506	0	0
2024-06-27 08:48:32			0	35258	0	0	0	25415	23970	150216	27274	1020261	42869	109400	0	0	8136	667983	0	0
2024-06-27 08:49:32			0	35255	0	0	0	25410	23980	150212	26977	1020242	42869	109398	0	0	8136	668079	0	0
2024-06-27 08:50:32			0	35242	0	0	0	25407	23980	150296	26981	1020278	42869	109397	0	0	8136	668659	0	0
2024-06-27 08:51:32			0	35242	0	0	0	25415	23970	150320	27081	1020261	42869	109400	0	0	8136	668696	0	0
2024-06-27 08:52:32			0	35229	0	0	0	25415	23980	150328	27331	1020278	42869	109400	0	0	8135	669239	0	0
2024-06-27 08:53:32			0	35211	0	0	0	25425	23990	150332	27093	1020313	42870	109404	0	0	8134	670005	0	0
2024-06-27 08:54:32			0	35199	0	0	0	25433	23990	150420	27000	1020295	42871	109407	0	0	8133	670541	0	0
2024-06-27 08:55:32			0	35191	0	0	0	25444	23990	150456	27062	1020393	42870	109411	0	0	8132	670899	0	0
2024-06-27 08:56:32			0	35170	0	0	0	25454	23990	150620	27105	1020286	42870	109415	0	0	8131	671838	0	0
2024-06-27 08:57:32			0	35157	0	0	0	25454	23990	150564	27391	1020349	42871	109415	0	0	8130	672421	0	0
2024-06-27 08:58:32			0	35119	0	0	0	25464	24000	150680	27060	1020446	42882	109419	0	0	8128	674086	0	0
2024-06-27 08:59:32			0	35113	0	0	0	25470	24010	150832	27093	1020455	42872	109421	0	0	8128	674318	0	0
2024-06-27 09:00:32			0	35105	0	0	0	25472	24010	150804	27027	1020455	42872	109422	0	0	8127	674677	0	0
2024-06-27 09:01:32			0	35108	0	0	0	25470	24020	150759	27201	1020499	42861	109421	0	0	8128	674504	0	0
2024-06-27 09:02:32			0	35099	0	0	0	25467	24010	150775	27088	1020436	42873	109420	0	0	8127	674947	0	0
2024-06-27 09:03:32			0	35114	0	0	0	25464	24020	150852	27371	1020507	42884	109419	0	0	8128	674235	0	0
2024-06-27 09:04:32			0	35119	0	0	0	25459	24020	150872	27206	1020445	42873	109417	0	0	8128	674010	0	0
2024-06-27 09:05:32			0	35111	0	0	0	25457	24020	150811	27015	1020480	42862	109416	0	0	8128	674370	0	0
2024-06-27 09:06:32			0	35128	0	0	0	25457	24020	150740	27069	1020445	42850	109416	0	0	8129	673607	0	0
2024-06-27 09:07:32			0	35119	0	0	0	25457	24030	150696	27126	1020462	42851	109416	0	0	8128	673972	0	0
2024-06-27 09:08:32			0	35133	0	0	0	25459	24020	150576	27360	1020472	42873	109417	0	0	8129	673383	0	0
2024-06-27 09:09:32			0	35155	0	0	0	25477	24030	150576	27312	1020516	42874	109424	0	0	8130	672359	0	0
2024-06-27 09:10:32			0	35178	0	0	0	25459	24040	150480	27209	1020480	42886	109417	0	0	8132	671291	0	0
2024-06-27 09:11:32			0	35171	0	0	0	25457	24020	150508	27241	1020454	42874	109416	0	0	8131	671680	0	0
2024-06-27 09:12:32			0	35181	0	0	0	25449	24050	150476	27043	1020488	42864	109413	0	0	8132	671119	0	0
2024-06-27 09:13:32			0	35191	0	0	0	25444	24030	150404	27277	1020551	42875	109411	0	0	8133	670747	0	0
2024-06-27 09:14:32			0	35206	0	0	0	25446	24040	150492	27220	1020506	42864	109412	0	0	8133	670039	0	0
2024-06-27 09:15:32			0	35199	0	0	0	25451	24030	150464	27239	1020471	42875	109414	0	0	8133	670390	0	0
2024-06-27 09:16:32			0	35192	0	0	0	25446	24030	150372	27246	1020462	42862	109412	0	0	8133	670703	0	0
2024-06-27 09:17:32			0	35198	0	0	0	25441	24020	150396	27460	1020480	42862	109410	0	0	8133	670472	0	0
2024-06-27 09:18:32			0	35195	0	0	0	25451	24030	150432	27003	1020489	42874	109414	0	0	8133	670569	0	0
2024-06-27 09:19:32			0	35196	0	0	0	25451	24020	150336	27178	1020445	42873	109414	0	0	8133	670562	0	0
2024-06-27 09:20:32			0	35203	0	0	0	25457	24030	150412	27078	1020498	42863	109416	0	0	8133	670211	0	0
2024-06-27 09:21:32			0	35208	0	0	0	25457	24030	150296	27192	1020489	42874	109416	0	0	8133	669988	0	0
2024-06-27 09:22:32			0	35231	0	0	0	25475	24040	150316	27306	1020533	42875	109423	0	0	8134	668923	0	0
2024-06-27 09:23:32			0	35232	0	0	0	25480	24050	150256	27239	1020595	42875	109425	0	0	8134	668841	0	0
2024-06-27 09:24:32			0	35238	0	0	0	25477	24050	150172	27457	1020542	42875	109424	0	0	8135	668573	0	0
2024-06-27 09:25:32			0	35235	0	0	0	25480	24040	150136	27438	1020613	42864	109425	0	0	8134	668745	0	0
2024-06-27 09:26:32			0	35245	0	0	0	25488	24040	150188	27142	1020640	42875	109428	0	0	8135	668299	0	0
2024-06-27 09:27:32			0	35256	0	0	0	25488	24060	150028	27291	1020621	42866	109428	0	0	8135	667733	0	0
2024-06-27 09:28:32			0	35276	0	0	0	25493	24060	150084	27171	1020621	42876	109430	0	0	8136	666842	0	0
2024-06-27 09:29:32			0	35285	0	0	0	25501	24070	150092	27275	1020719	42889	109433	0	0	8137	666404	0	0
2024-06-27 09:30:32			0	35303	0	0	0	25511	24070	150060	26941	1020692	42877	109437	0	0	8138	665603	0	0
2024-06-27 09:31:32			0	35299	0	0	0	25511	24070	149940	27275	1020692	42867	109437	0	0	8137	665781	0	0
2024-06-27 09:32:32			0	35297	0	0	0	25516	24090	149968	27492	1020718	42878	109439	0	0	8137	665795	0	0
2024-06-27 09:33:32			0	35319	0	0	0	25519	24090	149944	27358	1020771	42878	109440	0	0	8138	664817	0	0
2024-06-27 09:34:32			0	35314	0	0	0	25535	24090	149904	27001	1020771	42868	109446	0	0	8138	665040	0	0
2024-06-27 09:35:32			0	35339	0	0	0	25535	24090	149936	27390	1020825	42890	109446	0	0	8139	663930	0	0
2024-06-27 09:36:32			0	35329	0	0	0	25540	24090	149888	27197	1020798	42890	109448	0	0	8139	664373	0	0
2024-06-27 09:37:32			0	35356	0	0	0	25532	24090	149888	27352	1020833	42879	109445	0	0	8140	663176	0	0
2024-06-27 09:38:32			0	35373	0	0	0	25524	24100	149676	27088	1020789	42879	109442	0	0	8141	662385	0	0
2024-06-27 09:39:32			0	35381	0	0	0	25522	24100	149576	27013	1020895	42891	109441	0	0	8142	662030	0	0
2024-06-27 09:40:32			0	35406	0	0	0	25550	24110	149680	27038	1020833	42880	109452	0	0	8143	660887	0	0
2024-06-27 09:41:32			0	35395	0	0	0	25555	24110	149788	27509	1020859	42891	109454	0	0	8142	661373	0	0
2024-06-27 09:42:32			0	35357	0	0	0	25563	24110	149756	27149	1021002	42881	109457	0	0	8140	663056	0	0
2024-06-27 09:43:32			0	35338	0	0	0	25571	24120	149924	27007	1021019	42893	109460	0	0	8139	663861	0	0
2024-06-27 09:44:32			0	35309	0	0	0	25584	24140	149980	26946	1021045	42895	109465	0	0	8137	665074	0	0
2024-06-27 09:45:32			0	35315	0	0	0	25597	24130	149952	26844	1021054	42882	109470	0	0	8137	664845	0	0
2024-06-27 09:46:32			0	35331	0	0	0	25597	24130	149980	27090	1021063	42883	109470	0	0	8138	664135	0	0
2024-06-27 09:47:32			0	35347	0	0	0	25594	24150	149784	27334	1021115	42896	109469	0	0	8139	663350	0	0
2024-06-27 09:48:32			0	35376	0	0	0	25594	24150	149716	27140	1021115	42885	109469	0	0	8141	662065	0	0
2024-06-27 09:49:32			0	35356	0	0	0	25594	24150	149644	26930	1021142	42885	109469	0	0	8139	662951	0	0
2024-06-27 09:50:32			0	35366	0	0	0	25594	24150	149712	27081	1021177	42896	109469	0	0	8140	662508	0	0
2024-06-27 09:51:32			0	35356	0	0	0	25612	24150	149776	27135	1021204	42896	109476	0	0	8139	662951	0	0
2024-06-27 09:52:32			0	35362	0	0	0	25615	24160	149896	26838	1021275	42897	109477	0	0	8139	662648	0	0
2024-06-27 09:53:32			0	35349	0	0	0	25628	24170	149848	26967	1021239	42898	109482	0	0	8139	663186	0	0
2024-06-27 09:54:32			0	35330	0	0	0	25625	24170	149848	26908	1021212	42898	109481	0	0	8138	664029	0	0
2024-06-27 09:55:32			0	35324	0	0	0	25631	24180	149892	27213	1021336	42900	109483	0	0	8137	664258	0	0
2024-06-27 09:56:32			0	35325	0	0	0	25641	24180	149900	27190	1021283	42900	109487	0	0	8137	664214	0	0
2024-06-27 09:57:32			0	35316	0	0	0	25670	24190	149916	27296	1021407	42911	109498	0	0	8136	664575	0	0
2024-06-27 09:58:32			0	35333	0	0	0	25667	24200	149852	27241	1021424	42923	109497	0	0	8137	663784	0	0
2024-06-27 09:59:32			0	35347	0	0	0	25672	24210	149776	27053	1021442	42902	109499	0	0	8138	663125	0	0
2024-06-27 10:00:32			0	35354	0	0	0	25685	24210	149788	27180	1021495	42902	109504	0	0	8138	662815	0	0
2024-06-27 10:01:32			0	35370	0	0	0	25709	24230	149736	26632	1021494	42904	109513	0	0	8139	662032	0	0
2024-06-27 10:02:32			0	35335	0	0	0	25703	24230	149796	26769	1021575	42904	109511	0	0	8137	663583	0	0
2024-06-27 10:03:32			0	35336	0	0	0	25719	24230	149728	26750	1021637	42893	109517	0	0	8137	663538	0	0
2024-06-27 10:04:32			0	35335	0	0	0	25719	24250	149748	27199	1021663	42906	109517	0	0	8137	663508	0	0
2024-06-27 10:05:32			0	35323	0	0	0	25729	24250	149828	27012	1021671	42906	109521	0	0	8136	664040	0	0
2024-06-27 10:06:32			0	35304	0	0	0	25735	24280	149904	27074	1021821	42919	109523	0	0	8135	664771	0	0
2024-06-27 10:07:32			0	35306	0	0	0	25742	24270	149992	27093	1021777	42908	109526	0	0	8135	664719	0	0
2024-06-27 10:08:32			0	35290	0	0	0	25742	24270	149940	27230	1021786	42908	109526	0	0	8134	665430	0	0
2024-06-27 10:09:32			0	35303	0	0	0	25753	24290	149956	26928	1021794	42899	109530	0	0	8135	664777	0	0
2024-06-27 10:10:32			0	35325	0	0	0	25753	24290	149780	26981	1021794	42920	109530	0	0	8136	663801	0	0
2024-06-27 10:11:32			0	35363	0	0	0	25750	24300	149656	27147	1021883	42899	109529	0	0	8138	662080	0	0
2024-06-27 10:12:32			0	35385	0	0	0	25748	24300	149556	27145	1021838	42900	109528	0	0	8139	661107	0	0
2024-06-27 10:13:32			0	35382	0	0	0	25742	24310	149588	27026	1021847	42912	109526	0	0	8139	661202	0	0
2024-06-27 10:14:32			0	35403	0	0	0	25722	24310	149588	26989	1021820	42922	109518	0	0	8141	660274	0	0
2024-06-27 10:15:32			0	35406	0	0	0	25716	24310	149492	27083	1021767	42912	109516	0	0	8141	660141	0	0
2024-06-27 10:16:32			0	35407	0	0	0	25709	24310	149520	27133	1021740	42889	109513	0	0	8141	660097	0	0
2024-06-27 10:17:32			0	35389	0	0	0	25709	24300	149512	27124	1021722	42899	109513	0	0	8140	660930	0	0
2024-06-27 10:18:32			0	35386	0	0	0	25706	24290	149584	27227	1021705	42899	109512	0	0	8140	661100	0	0
2024-06-27 10:19:32			0	35389	0	0	0	25716	24300	149552	27190	1021803	42910	109516	0	0	8140	660930	0	0
2024-06-27 10:20:32			0	35393	0	0	0	25722	24300	149556	27189	1021803	42899	109518	0	0	8140	660753	0	0
2024-06-27 10:21:32			0	35398	0	0	0	25729	24300	149560	27046	1021838	42911	109521	0	0	8140	660532	0	0
2024-06-27 10:22:32			0	35371	0	0	0	25742	24310	149508	27274	1021927	42912	109526	0	0	8138	661689	0	0
2024-06-27 10:23:32			0	35381	0	0	0	25758	24320	149580	27313	1021909	42902	109532	0	0	8139	661209	0	0
2024-06-27 10:24:32			0	35397	0	0	0	25755	24320	149584	27362	1021918	42902	109531	0	0	8140	660502	0	0
2024-06-27 10:25:32			0	35367	0	0	0	25763	24320	149576	27027	1021963	42902	109534	0	0	8138	661828	0	0
2024-06-27 10:26:32			0	35363	0	0	0	25761	24350	149668	27074	1022014	42903	109533	0	0	8138	661893	0	0
2024-06-27 10:27:32			0	35352	0	0	0	25742	24330	149672	27187	1021881	42914	109526	0	0	8138	662455	0	0
2024-06-27 10:28:32			0	35366	0	0	0	25724	24330	149648	27367	1021873	42890	109519	0	0	8139	661835	0	0
2024-06-27 10:29:32			0	35346	0	0	0	25709	24320	149576	26894	1021784	42890	109513	0	0	8138	662758	0	0
2024-06-27 10:30:32			0	35352	0	0	0	25685	24310	149616	27138	1021740	42901	109504	0	0	8138	662530	0	0
2024-06-27 10:31:32			0	35372	0	0	0	25651	24290	149580	27405	1021651	42887	109491	0	0	8140	661719	0	0
2024-06-27 10:32:32			0	35370	0	0	0	25654	24280	149516	27043	1021696	42887	109492	0	0	8140	661845	0	0
2024-06-27 10:33:32			0	35374	0	0	0	25654	24270	149424	27005	1021563	42897	109492	0	0	8140	661705	0	0
2024-06-27 10:34:32			0	35414	0	0	0	25638	24270	149404	27001	1021545	42908	109486	0	0	8142	659937	0	0
2024-06-27 10:35:32			0	35414	0	0	0	25633	24270	149404	26760	1021572	42886	109484	0	0	8142	659937	0	0
2024-06-27 10:36:32			0	35406	0	0	0	25636	24270	149360	27585	1021590	42897	109485	0	0	8142	660291	0	0
2024-06-27 10:37:32			0	35434	0	0	0	25649	24250	149372	27152	1021582	42895	109490	0	0	8143	659129	0	0
2024-06-27 10:38:32			0	35459	0	0	0	25667	24260	149292	27027	1021715	42907	109497	0	0	8144	657989	0	0
2024-06-27 10:39:32			0	35437	0	0	0	25716	24280	149360	27526	1021776	42898	109516	0	0	8142	658885	0	0
2024-06-27 10:40:32			0	35439	0	0	0	25732	24290	149264	27379	1021820	42932	109522	0	0	8142	658759	0	0
2024-06-27 10:41:32			0	35436	0	0	0	25750	24300	149380	27074	1021936	42932	109529	0	0	8142	658854	0	0
2024-06-27 10:42:32			0	35446	0	0	0	25768	24320	149352	27164	1021971	42923	109536	0	0	8142	658339	0	0
2024-06-27 10:43:32			0	35381	0	0	0	25761	24330	149448	27105	1022042	42914	109533	0	0	8139	661171	0	0
2024-06-27 10:44:32			0	35380	0	0	0	25735	24330	149612	27341	1021926	42890	109523	0	0	8139	661216	0	0
2024-06-27 10:45:32			0	35359	0	0	0	25719	24330	149652	27218	1021926	42890	109517	0	0	8138	662145	0	0
2024-06-27 10:46:32			0	35348	0	0	0	25706	24310	149680	27178	1021767	42889	109512	0	0	8138	662707	0	0
2024-06-27 10:47:32			0	35327	0	0	0	25677	24300	149812	27209	1021696	42899	109501	0	0	8137	663675	0	0
2024-06-27 10:48:32			0	35323	0	0	0	25664	24290	149924	27154	1021660	42887	109496	0	0	8137	663890	0	0
2024-06-27 10:49:32			0	35326	0	0	0	25659	24290	149840	27010	1021633	42899	109494	0	0	8137	663757	0	0
2024-06-27 10:50:32			0	35351	0	0	0	25646	24290	149696	27289	1021625	42887	109489	0	0	8139	662649	0	0
2024-06-27 10:51:32			0	35337	0	0	0	25638	24280	149696	27157	1021554	42897	109486	0	0	8138	663307	0	0
2024-06-27 10:52:32			0	35333	0	0	0	25638	24260	149808	27029	1021635	42885	109486	0	0	8138	663559	0	0
2024-06-27 10:53:32			0	35304	0	0	0	25670	24260	149828	27211	1021662	42896	109498	0	0	8136	664846	0	0
2024-06-27 10:54:32			0	35263	0	0	0	25685	24270	150124	27294	1021670	42908	109504	0	0	8133	666630	0	0
2024-06-27 10:55:32			0	35244	0	0	0	25696	24280	150124	27275	1021714	42908	109508	0	0	8132	667439	0	0
2024-06-27 10:56:32			0	35209	0	0	0	25698	24270	150048	27201	1021652	42897	109509	0	0	8130	669036	0	0
2024-06-27 10:57:32			0	35207	0	0	0	25696	24280	150276	27059	1021696	42898	109508	0	0	8130	669088	0	0
2024-06-27 10:58:32			0	35213	0	0	0	25690	24280	150096	27272	1021750	42898	109506	0	0	8131	668820	0	0
2024-06-27 10:59:32			0	35229	0	0	0	25688	24280	150088	27147	1021696	42898	109505	0	0	8132	668107	0	0
2024-06-27 11:00:32			0	35240	0	0	0	25688	24270	150068	27059	1021670	42897	109505	0	0	8132	667654	0	0
2024-06-27 11:01:32			0	35255	0	0	0	25685	24290	149952	27086	1021732	42887	109504	0	0	8133	666911	0	0
2024-06-27 11:02:32			0	35275	0	0	0	25670	24270	149872	27043	1021599	42897	109498	0	0	8134	666097	0	0
2024-06-27 11:03:32			0	35294	0	0	0	25654	24260	149872	27074	1021600	42906	109492	0	0	8136	665290	0	0
2024-06-27 11:04:32			0	35291	0	0	0	25662	24270	149808	27124	1021617	42919	109495	0	0	8135	665386	0	0
2024-06-27 11:05:32			0	35299	0	0	0	25664	24260	149768	27116	1021581	42896	109496	0	0	8136	665068	0	0
2024-06-27 11:06:32			0	35311	0	0	0	25664	24280	149740	26870	1021607	42908	109496	0	0	8136	664460	0	0
2024-06-27 11:07:32			0	35331	0	0	0	25670	24260	149692	27293	1021573	42906	109498	0	0	8137	663647	0	0
2024-06-27 11:08:32			0	35316	0	0	0	25672	24280	149668	27036	1021634	42908	109499	0	0	8137	664238	0	0
2024-06-27 11:09:32			0	35342	0	0	0	25670	24260	149736	27209	1021581	42896	109498	0	0	8138	663160	0	0
2024-06-27 11:10:32			0	35326	0	0	0	25664	24260	149684	27190	1021626	42895	109496	0	0	8137	663869	0	0
2024-06-27 11:11:32			0	35312	0	0	0	25690	24280	149612	27327	1021688	42908	109506	0	0	8136	664416	0	0
2024-06-27 11:12:32			0	35300	0	0	0	25693	24280	149624	27007	1021714	42908	109507	0	0	8135	664948	0	0
2024-06-27 11:13:32			0	35319	0	0	0	25685	24280	149632	27178	1021696	42898	109504	0	0	8137	664105	0	0
2024-06-27 11:14:32			0	35319	0	0	0	25680	24270	149652	27085	1021670	42897	109502	0	0	8137	664142	0	0
2024-06-27 11:15:32			0	35322	0	0	0	25670	24280	149684	27168	1021643	42887	109498	0	0	8137	663972	0	0
2024-06-27 11:16:32			0	35302	0	0	0	25662	24260	149680	27057	1021573	42895	109495	0	0	8136	664935	0	0
2024-06-27 11:17:32			0	35325	0	0	0	25644	24250	149636	27012	1021556	42873	109488	0	0	8137	663951	0	0
2024-06-27 11:18:32			0	35334	0	0	0	25646	24250	149704	26987	1021430	42895	109489	0	0	8138	663552	0	0
2024-06-27 11:19:32			0	35333	0	0	0	25631	24250	149708	27203	1021475	42895	109483	0	0	8138	663596	0	0
2024-06-27 11:20:32			0	35357	0	0	0	25636	24240	149640	27544	1021405	42893	109485	0	0	8139	662570	0	0
2024-06-27 11:21:32			0	35347	0	0	0	25610	24220	149600	27215	1021379	42915	109475	0	0	8139	663088	0	0
2024-06-27 11:22:32			0	35348	0	0	0	25607	24210	149612	27431	1021361	42890	109474	0	0	8139	663081	0	0
2024-06-27 11:23:32			0	35351	0	0	0	25602	24220	149540	27119	1021343	42891	109472	0	0	8139	662911	0	0
2024-06-27 11:24:32			0	35367	0	0	0	25599	24220	149488	27594	1021343	42880	109471	0	0	8140	662202	0	0
2024-06-27 11:25:32			0	35393	0	0	0	25581	24210	149468	27140	1021326	42890	109464	0	0	8142	661089	0	0
2024-06-27 11:26:32			0	35395	0	0	0	25589	24200	149328	27059	1021344	42890	109467	0	0	8142	661038	0	0
2024-06-27 11:27:32			0	35433	0	0	0	25579	24200	149280	27364	1021255	42889	109463	0	0	8144	659359	0	0
2024-06-27 11:28:32			0	35441	0	0	0	25571	24210	149160	27268	1021273	42890	109460	0	0	8145	658968	0	0
2024-06-27 11:29:32			0	35499	0	0	0	25553	24190	148888	27371	1021220	42889	109453	0	0	8148	656487	0	0
2024-06-27 11:30:32			0	35506	0	0	0	25545	24190	148836	27239	1021167	42889	109450	0	0	8149	656179	0	0
2024-06-27 11:31:32			0	35541	0	0	0	25542	24180	148700	27253	1021167	42888	109449	0	0	8150	654678	0	0
2024-06-27 11:32:32			0	35571	0	0	0	25535	24170	148608	27170	1021096	42875	109446	0	0	8152	653399	0	0
2024-06-27 11:33:32			0	35615	0	0	0	25529	24160	148608	27234	1021088	42886	109444	0	0	8155	651508	0	0
2024-06-27 11:34:32			0	35624	0	0	0	25519	24150	148456	27062	1021044	42874	109440	0	0	8155	651151	0	0
2024-06-27 11:35:32			0	35628	0	0	0	25524	24150	148452	27166	1021017	42874	109442	0	0	8155	650976	0	0
2024-06-27 11:36:32			0	35645	0	0	0	25514	24160	148360	27133	1021026	42886	109438	0	0	8156	650196	0	0
2024-06-27 11:37:32			0	35652	0	0	0	25514	24150	148368	26987	1021097	42885	109438	0	0	8157	649927	0	0
2024-06-27 11:38:32			0	35670	0	0	0	25524	24150	148276	27098	1021115	42874	109442	0	0	8157	649141	0	0
2024-06-27 11:39:32			0	35646	0	0	0	25540	24150	148288	27140	1021142	42874	109448	0	0	8156	650189	0	0
2024-06-27 11:40:32			0	35652	0	0	0	25555	24150	148316	27369	1021142	42885	109454	0	0	8156	649927	0	0
2024-06-27 11:41:32			0	35660	0	0	0	25597	24150	148324	27426	1021284	42896	109470	0	0	8156	649578	0	0
2024-06-27 11:42:32			0	35660	0	0	0	25586	24160	148352	27338	1021275	42897	109466	0	0	8156	649541	0	0
2024-06-27 11:43:32			0	35657	0	0	0	25599	24170	148424	27327	1021257	42887	109471	0	0	8156	649635	0	0
2024-06-27 11:44:32			0	35648	0	0	0	25602	24180	148344	27189	1021274	42899	109472	0	0	8155	649992	0	0
2024-06-27 11:45:32			0	35650	0	0	0	25620	24180	148400	27306	1021363	42911	109479	0	0	8155	649904	0	0
2024-06-27 11:46:32			0	35649	0	0	0	25641	24180	148472	27308	1021301	42899	109487	0	0	8155	649948	0	0
2024-06-27 11:47:32			0	35640	0	0	0	25636	24190	148344	27046	1021345	42911	109485	0	0	8154	650305	0	0
2024-06-27 11:48:32			0	35656	0	0	0	25646	24190	148452	27114	1021434	42889	109489	0	0	8155	649606	0	0
2024-06-27 11:49:32			0	35658	0	0	0	25649	24200	148400	27027	1021389	42912	109490	0	0	8155	649482	0	0
2024-06-27 11:50:32			0	35634	0	0	0	25657	24200	148396	27284	1021478	42902	109493	0	0	8154	650530	0	0
2024-06-27 11:51:32			0	35654	0	0	0	25662	24210	148316	27227	1021487	42902	109495	0	0	8155	649620	0	0
2024-06-27 11:52:32			0	35656	0	0	0	25672	24210	148408	27204	1021540	42902	109499	0	0	8155	649533	0	0
2024-06-27 11:53:32			0	35644	0	0	0	25690	24230	148380	27213	1021690	42916	109506	0	0	8154	649983	0	0
2024-06-27 11:54:32			0	35644	0	0	0	25732	24240	148388	27123	1021814	42927	109522	0	0	8153	649946	0	0
2024-06-27 11:55:32			0	35636	0	0	0	25799	24280	148368	27312	1022017	42919	109548	0	0	8152	650149	0	0
2024-06-27 11:56:32			0	35616	0	0	0	25854	24310	148384	27296	1022168	42922	109569	0	0	8150	650913	0	0
2024-06-27 11:57:32			0	35602	0	0	0	25877	24340	148428	27104	1022291	42925	109578	0	0	8149	651415	0	0
2024-06-27 11:58:32			0	35598	0	0	0	25901	24360	148588	27274	1022352	42950	109587	0	0	8148	651516	0	0
2024-06-27 11:59:32			0	35627	0	0	0	25903	24380	148540	27140	1022476	42930	109588	0	0	8150	650175	0	0
2024-06-27 12:00:32			0	35618	0	0	0	25911	24390	148540	27244	1022493	42930	109591	0	0	8149	650531	0	0
2024-06-27 12:01:32			0	35607	0	0	0	25924	24410	148496	27038	1022573	42932	109596	0	0	8149	650939	0	0
2024-06-27 12:02:32			0	35606	0	0	0	25937	24420	148452	27045	1022679	42922	109601	0	0	8148	650946	0	0
2024-06-27 12:03:32			0	35604	0	0	0	25935	24430	148392	27048	1022642	42933	109600	0	0	8148	650996	0	0
2024-06-27 12:04:32			0	35613	0	0	0	25948	24440	148428	27578	1022678	42923	109605	0	0	8149	650566	0	0
2024-06-27 12:05:32			0	35604	0	0	0	25961	24460	148392	27085	1022775	42948	109610	0	0	8148	650886	0	0
2024-06-27 12:06:32			0	35606	0	0	0	25963	24460	148404	27265	1022766	42925	109611	0	0	8148	650798	0	0
2024-06-27 12:07:32			0	35600	0	0	0	25963	24470	148544	27170	1022765	42938	109611	0	0	8148	651024	0	0
2024-06-27 12:08:32			0	35612	0	0	0	25958	24470	148348	26955	1022810	42916	109609	0	0	8148	650499	0	0
2024-06-27 12:09:32			0	35597	0	0	0	25953	24480	148368	27289	1022783	42928	109607	0	0	8148	651118	0	0
2024-06-27 12:10:32			0	35615	0	0	0	25953	24490	148496	27350	1022818	42917	109607	0	0	8149	650295	0	0
2024-06-27 12:11:32			0	35606	0	0	0	25953	24490	148356	27319	1022853	42929	109607	0	0	8148	650688	0	0
2024-06-27 12:12:32			0	35615	0	0	0	25942	24490	148276	27374	1022827	42917	109603	0	0	8149	650295	0	0
2024-06-27 12:13:32			0	35626	0	0	0	25948	24490	148268	27367	1022827	42940	109605	0	0	8149	649815	0	0
2024-06-27 12:14:32			0	35629	0	0	0	25932	24490	148248	27291	1022907	42929	109599	0	0	8150	649683	0	0
2024-06-27 12:15:32			0	35662	0	0	0	25940	24500	148200	27381	1022817	42952	109602	0	0	8152	648208	0	0
2024-06-27 12:16:32			0	35679	0	0	0	25932	24500	148044	27306	1022782	42917	109599	0	0	8153	647467	0	0
2024-06-27 12:17:32			0	35728	0	0	0	25916	24500	147912	27246	1022782	42940	109593	0	0	8156	645336	0	0
2024-06-27 12:18:32			0	35778	0	0	0	25909	24500	147760	27422	1022755	42940	109590	0	0	8158	643167	0	0
2024-06-27 12:19:32			0	35806	0	0	0	25903	24500	147592	26937	1022809	42929	109588	0	0	8160	641955	0	0
2024-06-27 12:20:32			0	35849	0	0	0	25901	24490	147352	27092	1022800	42907	109587	0	0	8162	640132	0	0
2024-06-27 12:21:32			0	35888	0	0	0	25901	24500	147277	27112	1022755	42929	109587	0	0	8164	638414	0	0
2024-06-27 12:22:32			0	35873	0	0	0	25911	24490	147305	27523	1022800	42929	109591	0	0	8163	639096	0	0
2024-06-27 12:23:32			0	35846	0	0	0	25916	24500	147344	27189	1022835	42940	109593	0	0	8162	640226	0	0
2024-06-27 12:24:32			0	35824	0	0	0	25929	24500	147516	27535	1022817	42930	109598	0	0	8160	641176	0	0
2024-06-27 12:25:32			0	35821	0	0	0	25942	24510	147504	27267	1022879	42930	109603	0	0	8160	641270	0	0
2024-06-27 12:26:32			0	35808	0	0	0	25950	24510	147488	27201	1022861	42930	109606	0	0	8159	641832	0	0
2024-06-27 12:27:32			0	35820	0	0	0	25948	24520	147536	27131	1022923	42931	109605	0	0	8160	641277	0	0
2024-06-27 12:28:32			0	35811	0	0	0	25971	24520	147336	27540	1022985	42931	109614	0	0	8159	641666	0	0
2024-06-27 12:29:32			0	35833	0	0	0	25976	24530	147408	27303	1022994	42932	109616	0	0	8160	640679	0	0
2024-06-27 12:30:32			0	35846	0	0	0	25979	24530	147384	27272	1022976	42933	109617	0	0	8161	640117	0	0
2024-06-27 12:31:32			0	35829	0	0	0	25976	24530	147404	27092	1022967	42944	109616	0	0	8160	640852	0	0
2024-06-27 12:32:32			0	35830	0	0	0	25963	24540	147500	27317	1023011	42922	109611	0	0	8160	640772	0	0
2024-06-27 12:33:32			0	35822	0	0	0	25955	24530	147444	27022	1022976	42922	109608	0	0	8160	641154	0	0
2024-06-27 12:34:32			0	35820	0	0	0	25929	24530	147556	27294	1022807	42911	109598	0	0	8160	641240	0	0
2024-06-27 12:35:32			0	35820	0	0	0	25880	24510	147512	27053	1022727	42919	109579	0	0	8161	641313	0	0
2024-06-27 12:36:32			0	35809	0	0	0	25867	24510	147500	27362	1022754	42919	109574	0	0	8161	641789	0	0
2024-06-27 12:37:32			0	35815	0	0	0	25885	24490	147456	27216	1022746	42929	109581	0	0	8161	641602	0	0
2024-06-27 12:38:32			0	35830	0	0	0	25901	24510	147436	27211	1022826	42930	109587	0	0	8161	640881	0	0
2024-06-27 12:39:32			0	35822	0	0	0	25929	24510	147372	27124	1022933	42942	109598	0	0	8160	641227	0	0
2024-06-27 12:40:32			0	35846	0	0	0	25924	24520	147520	27033	1022923	42931	109596	0	0	8162	640153	0	0
2024-06-27 12:41:32			0	35833	0	0	0	25937	24510	147492	27208	1022941	42930	109601	0	0	8161	640751	0	0
2024-06-27 12:42:32			0	35844	0	0	0	25932	24510	147488	26826	1022888	42942	109599	0	0	8161	640276	0	0
2024-06-27 12:43:32			0	35831	0	0	0	25922	24520	147372	27124	1022825	42910	109595	0	0	8161	640801	0	0
2024-06-27 12:44:32			0	35842	0	0	0	25896	24520	147404	27239	1022816	42920	109585	0	0	8162	640326	0	0
2024-06-27 12:45:32			0	35823	0	0	0	25890	24510	147432	27012	1022826	42919	109583	0	0	8161	641183	0	0
2024-06-27 12:46:32			0	35841	0	0	0	25901	24510	147468	27211	1022915	42942	109587	0	0	8162	640405	0	0
2024-06-27 12:47:32			0	35844	0	0	0	25929	24510	147476	27310	1022941	42930	109598	0	0	8162	640276	0	0
2024-06-27 12:48:32			0	35837	0	0	0	25942	24520	147464	27112	1023012	42931	109603	0	0	8161	640542	0	0
2024-06-27 12:49:32			0	35839	0	0	0	25953	24520	147472	27265	1023012	42943	109607	0	0	8161	640456	0	0
2024-06-27 12:50:32			0	35835	0	0	0	25942	24530	147400	27111	1022922	42933	109603	0	0	8161	640592	0	0
2024-06-27 12:51:32			0	35851	0	0	0	25903	24510	147376	27133	1022808	42919	109588	0	0	8162	639973	0	0
2024-06-27 12:52:32			0	35841	0	0	0	25875	24510	147424	27095	1022692	42897	109577	0	0	8162	640405	0	0
2024-06-27 12:53:32			0	35842	0	0	0	25838	24500	147388	27322	1022595	42907	109563	0	0	8163	640398	0	0
2024-06-27 12:54:32			0	35855	0	0	0	25810	24480	147269	27116	1022515	42895	109552	0	0	8164	639909	0	0
2024-06-27 12:55:32			0	35872	0	0	0	25794	24460	147249	27345	1022427	42893	109546	0	0	8165	639248	0	0
2024-06-27 12:56:32			0	35863	0	0	0	25776	24460	147177	27258	1022454	42904	109539	0	0	8165	639636	0	0
2024-06-27 12:57:32			0	35878	0	0	0	25774	24440	147101	27220	1022357	42901	109538	0	0	8166	639062	0	0
2024-06-27 12:58:32			0	35898	0	0	0	25761	24420	147137	27343	1022277	42912	109533	0	0	8167	638271	0	0
2024-06-27 12:59:32			0	35919	0	0	0	25753	24420	147165	27274	1022251	42922	109530	0	0	8168	637367	0	0
2024-06-27 13:00:32			0	35937	0	0	0	25758	24420	146973	27296	1022242	42911	109532	0	0	8169	636592	0	0
2024-06-27 13:01:32			0	35949	0	0	0	25753	24410	146953	26878	1022207	42899	109530	0	0	8170	636112	0	0
2024-06-27 13:02:32			0	35959	0	0	0	25735	24400	146961	27105	1022189	42910	109523	0	0	8170	635718	0	0
2024-06-27 13:03:32			0	35968	0	0	0	25750	24400	146969	27015	1022154	42898	109529	0	0	8171	635331	0	0
2024-06-27 13:04:32			0	35988	0	0	0	25755	24390	146861	27223	1022252	42918	109531	0	0	8172	634508	0	0
2024-06-27 13:05:32			0	35993	0	0	0	25789	24400	146901	27471	1022448	42942	109544	0	0	8171	634258	0	0
2024-06-27 13:06:32			0	36003	0	0	0	25838	24410	146921	27209	1022581	42943	109563	0	0	8171	633793	0	0
2024-06-27 13:07:32			0	36008	0	0	0	25896	24440	146817	26993	1022767	42958	109585	0	0	8170	633471	0	0
2024-06-27 13:08:32			0	36008	0	0	0	25937	24460	146781	27308	1022882	42937	109601	0	0	8170	633400	0	0
2024-06-27 13:09:32			0	36023	0	0	0	25950	24490	146797	27137	1022898	42962	109606	0	0	8171	632650	0	0
2024-06-27 13:10:32			0	36017	0	0	0	25932	24490	146777	26920	1022765	42929	109599	0	0	8171	632907	0	0
2024-06-27 13:11:32			0	36028	0	0	0	25906	24480	146709	27225	1022783	42916	109589	0	0	8172	632471	0	0
2024-06-27 13:12:32			0	36018	0	0	0	25890	24490	146789	27104	1022845	42929	109583	0	0	8171	632864	0	0
2024-06-27 13:13:32			0	36049	0	0	0	25867	24490	146649	27124	1022693	42929	109574	0	0	8173	631537	0	0
2024-06-27 13:14:32			0	36030	0	0	0	25849	24490	146653	27327	1022604	42907	109567	0	0	8173	632350	0	0
2024-06-27 13:15:32			0	36052	0	0	0	25812	24460	146641	27407	1022534	42904	109553	0	0	8174	631516	0	0
2024-06-27 13:16:32			0	36067	0	0	0	25815	24460	146565	27118	1022588	42916	109554	0	0	8175	630874	0	0
2024-06-27 13:17:32			0	36087	0	0	0	25823	24470	146521	27123	1022703	42916	109557	0	0	8176	629984	0	0
2024-06-27 13:18:32			0	36087	0	0	0	25820	24480	146397	27005	1022827	42905	109556	0	0	8176	629949	0	0
2024-06-27 13:19:32			0	36095	0	0	0	25851	24490	146305	26953	1022898	42929	109568	0	0	8176	629572	0	0
2024-06-27 13:20:32			0	36113	0	0	0	25898	24490	146273	27149	1023041	42962	109586	0	0	8176	628804	0	0
2024-06-27 13:21:32			0	36113	0	0	0	25924	24510	146277	27107	1022995	42930	109596	0	0	8176	628733	0	0
2024-06-27 13:22:32			0	36132	0	0	0	25937	24530	146273	27116	1023110	42945	109601	0	0	8177	627852	0	0
2024-06-27 13:23:32			0	36150	0	0	0	25937	24530	146245	27270	1023163	42945	109601	0	0	8178	627086	0	0
2024-06-27 13:24:32			0	36141	0	0	0	25950	24540	146129	26955	1023118	42912	109606	0	0	8177	627433	0	0
2024-06-27 13:25:32			0	36152	0	0	0	25948	24550	146157	27229	1023055	42923	109605	0	0	8178	626930	0	0
2024-06-27 13:26:32			0	36170	0	0	0	25958	24540	146077	27364	1023100	42933	109609	0	0	8178	626200	0	0
2024-06-27 13:27:32			0	36167	0	0	0	25968	24550	146101	27393	1023118	42924	109613	0	0	8178	626292	0	0
2024-06-27 13:28:32			0	36171	0	0	0	25963	24560	146009	27287	1023126	42924	109611	0	0	8179	626086	0	0
2024-06-27 13:29:32			0	36191	0	0	0	25958	24550	145965	27192	1023064	42913	109609	0	0	8180	625272	0	0
2024-06-27 13:30:32			0	36185	0	0	0	25940	24560	146069	26981	1023046	42924	109602	0	0	8180	625491	0	0
2024-06-27 13:31:32			0	36198	0	0	0	25916	24550	145973	27216	1023011	42924	109593	0	0	8181	624975	0	0
2024-06-27 13:32:32			0	36214	0	0	0	25935	24550	145941	27111	1023029	42923	109600	0	0	8181	624296	0	0
2024-06-27 13:33:32			0	36214	0	0	0	25909	24540	145877	27409	1022913	42900	109590	0	0	8182	624331	0	0
2024-06-27 13:34:32			0	36232	0	0	0	25864	24520	145825	27498	1022718	42887	109573	0	0	8183	623639	0	0
2024-06-27 13:35:32			0	36259	0	0	0	25831	24500	145769	27272	1022657	42897	109560	0	0	8185	622565	0	0
2024-06-27 13:36:32			0	36269	0	0	0	25818	24490	145645	27090	1022551	42896	109555	0	0	8186	622177	0	0
2024-06-27 13:37:32			0	36279	0	0	0	25784	24480	145633	26927	1022560	42905	109542	0	0	8187	621789	0	0
2024-06-27 13:38:32			0	36304	0	0	0	25815	24480	145537	27327	1022676	42906	109554	0	0	8188	620732	0	0
2024-06-27 13:39:32			0	36313	0	0	0	25880	24490	145445	27222	1022853	42929	109579	0	0	8187	620317	0	0
2024-06-27 13:40:32			0	36313	0	0	0	25916	24500	145457	27116	1022924	42952	109593	0	0	8187	620281	0	0
2024-06-27 13:41:32			0	36319	0	0	0	25950	24520	145509	27197	1023057	42943	109606	0	0	8186	619958	0	0
2024-06-27 13:42:32			0	36322	0	0	0	25986	24540	145409	26949	1023065	42945	109620	0	0	8186	619761	0	0
2024-06-27 13:43:32			0	36322	0	0	0	25953	24520	145465	27369	1023012	42931	109607	0	0	8186	619831	0	0
2024-06-27 13:44:32			0	36319	0	0	0	25937	24540	145461	27345	1022958	42933	109601	0	0	8187	619888	0	0
2024-06-27 13:45:32			0	36334	0	0	0	25929	24540	145473	27464	1023020	42922	109598	0	0	8188	619255	0	0
2024-06-27 13:46:32			0	36326	0	0	0	25909	24540	145405	27348	1022824	42912	109590	0	0	8188	619593	0	0
2024-06-27 13:47:32			0	36353	0	0	0	25864	24520	145329	27164	1022745	42887	109573	0	0	8190	618524	0	0
2024-06-27 13:48:32			0	36344	0	0	0	25820	24500	145277	27409	1022648	42896	109556	0	0	8190	618973	0	0
2024-06-27 13:49:32			0	36356	0	0	0	25794	24480	145261	27192	1022462	42906	109546	0	0	8191	618537	0	0
2024-06-27 13:50:32			0	36382	0	0	0	25774	24470	145257	27121	1022436	42894	109538	0	0	8192	617477	0	0
2024-06-27 13:51:32			0	36400	0	0	0	25779	24450	145221	27402	1022383	42915	109540	0	0	8193	616789	0	0
2024-06-27 13:52:32			0	36400	0	0	0	25761	24440	145145	27237	1022393	42902	109533	0	0	8194	616824	0	0
2024-06-27 13:53:32			0	36403	0	0	0	25771	24440	145093	27391	1022330	42890	109537	0	0	8193	616698	0	0
2024-06-27 13:54:32			0	36404	0	0	0	25761	24440	145101	27429	1022357	42901	109533	0	0	8194	616656	0	0
2024-06-27 13:55:32			0	36408	0	0	0	25748	24420	145105	27462	1022251	42900	109528	0	0	8194	616557	0	0
2024-06-27 13:56:32			0	36431	0	0	0	25740	24400	145065	27317	1022216	42899	109525	0	0	8195	615660	0	0
2024-06-27 13:57:32			0	36430	0	0	0	25737	24400	144973	27760	1022189	42899	109524	0	0	8195	615702	0	0
2024-06-27 13:58:32			0	36442	0	0	0	25735	24400	145085	27383	1022136	42910	109523	0	0	8196	615198	0	0
2024-06-27 13:59:32			0	36435	0	0	0	25724	24390	145121	27358	1022190	42908	109519	0	0	8196	615527	0	0
2024-06-27 14:00:32			0	36437	0	0	0	25727	24370	145137	27185	1022111	42906	109520	0	0	8196	615512	0	0
2024-06-27 14:01:32			0	36445	0	0	0	25735	24360	145073	27384	1022094	42905	109523	0	0	8196	615211	0	0
2024-06-27 14:02:32			0	36434	0	0	0	25742	24360	145001	27201	1022147	42905	109526	0	0	8195	615673	0	0
2024-06-27 14:03:32			0	36447	0	0	0	25742	24380	145081	27190	1022120	42907	109526	0	0	8196	615057	0	0
2024-06-27 14:04:32			0	36460	0	0	0	25745	24370	145009	27334	1022209	42905	109527	0	0	8197	614546	0	0
2024-06-27 14:05:32			0	36456	0	0	0	25750	24360	145101	27369	1022201	42927	109529	0	0	8196	614749	0	0
2024-06-27 14:06:32			0	36465	0	0	0	25750	24370	144941	27353	1022156	42916	109529	0	0	8197	614336	0	0
2024-06-27 14:07:32			0	36479	0	0	0	25745	24360	144949	27557	1022174	42916	109527	0	0	8198	613784	0	0
2024-06-27 14:08:32			0	36482	0	0	0	25748	24360	144905	27614	1022112	42905	109528	0	0	8198	613658	0	0
2024-06-27 14:09:32			0	36477	0	0	0	25742	24360	145017	27204	1022094	42905	109526	0	0	8198	613868	0	0
2024-06-27 14:10:32			0	36474	0	0	0	25753	24360	145033	27364	1022147	42905	109530	0	0	8197	613994	0	0
2024-06-27 14:11:32			0	36475	0	0	0	25753	24360	145033	27249	1022147	42905	109530	0	0	8197	613952	0	0
2024-06-27 14:12:32			0	36486	0	0	0	25758	24370	144913	27485	1022156	42905	109532	0	0	8198	613456	0	0
2024-06-27 14:13:32			0	36486	0	0	0	25753	24360	144949	27227	1022112	42905	109530	0	0	8198	613490	0	0
2024-06-27 14:14:32			0	36487	0	0	0	25758	24360	144897	27150	1022067	42905	109532	0	0	8198	613448	0	0
2024-06-27 14:15:32			0	36511	0	0	0	25755	24360	144869	27350	1022112	42916	109531	0	0	8199	612443	0	0
2024-06-27 14:16:32			0	36515	0	0	0	25742	24360	144873	27476	1022058	42905	109526	0	0	8200	612276	0	0
2024-06-27 14:17:32			0	36501	0	0	0	25750	24360	144821	27244	1022112	42905	109529	0	0	8199	612862	0	0
2024-06-27 14:18:32			0	36525	0	0	0	25735	24340	144765	27055	1022059	42903	109523	0	0	8200	611926	0	0
2024-06-27 14:19:32			0	36534	0	0	0	25742	24350	144773	27447	1022076	42904	109526	0	0	8200	611515	0	0
2024-06-27 14:20:32			0	36517	0	0	0	25753	24360	144689	27448	1022165	42905	109530	0	0	8199	612192	0	0
2024-06-27 14:21:32			0	36534	0	0	0	25755	24350	144657	27424	1022103	42893	109531	0	0	8200	611515	0	0
2024-06-27 14:22:32			0	36545	0	0	0	25768	24370	144773	27365	1022263	42927	109536	0	0	8201	610986	0	0
2024-06-27 14:23:32			0	36526	0	0	0	25794	24370	144621	27228	1022236	42916	109546	0	0	8199	611781	0	0
2024-06-27 14:24:32			0	36552	0	0	0	25786	24370	144733	27196	1022183	42905	109543	0	0	8201	610694	0	0
2024-06-27 14:25:32			0	36542	0	0	0	25786	24380	144657	27460	1022360	42917	109543	0	0	8200	611077	0	0
2024-06-27 14:26:32			0	36550	0	0	0	25789	24370	144677	27138	1022236	42905	109544	0	0	8201	610777	0	0
2024-06-27 14:27:32			0	36555	0	0	0	25779	24380	144657	27005	1022227	42917	109540	0	0	8201	610534	0	0
2024-06-27 14:28:32			0	36545	0	0	0	25781	24380	144645	27358	1022200	42896	109541	0	0	8201	610952	0	0
2024-06-27 14:29:32			0	36548	0	0	0	25774	24380	144681	27182	1022235	42908	109538	0	0	8201	610826	0	0
2024-06-27 14:30:32			0	36584	0	0	0	25779	24380	144645	27170	1022227	42917	109540	0	0	8203	609323	0	0
2024-06-27 14:31:32			0	36558	0	0	0	25768	24370	144725	27284	1022191	42917	109536	0	0	8201	610443	0	0
2024-06-27 14:32:32			0	36556	0	0	0	25771	24380	144657	27274	1022253	42907	109537	0	0	8201	610492	0	0
2024-06-27 14:33:32			0	36558	0	0	0	25776	24370	144633	27112	1022218	42917	109539	0	0	8201	610443	0	0
2024-06-27 14:34:32			0	36565	0	0	0	25774	24380	144693	27213	1022280	42907	109538	0	0	8202	610116	0	0
2024-06-27 14:35:32			0	36568	0	0	0	25768	24370	144665	27504	1022218	42906	109536	0	0	8202	610025	0	0
2024-06-27 14:36:32			0	36571	0	0	0	25771	24390	144673	27215	1022190	42908	109537	0	0	8202	609831	0	0
2024-06-27 14:37:32			0	36559	0	0	0	25758	24380	144565	27246	1022173	42907	109532	0	0	8202	610367	0	0
2024-06-27 14:38:32			0	36569	0	0	0	25766	24380	144629	27306	1022200	42907	109535	0	0	8202	609949	0	0
2024-06-27 14:39:32			0	36572	0	0	0	25768	24370	144689	27135	1022209	42916	109536	0	0	8202	609858	0	0
2024-06-27 14:40:32			0	36564	0	0	0	25771	24370	144637	26953	1022245	42906	109537	0	0	8202	610192	0	0
2024-06-27 14:41:32			0	36559	0	0	0	25776	24390	144589	27170	1022271	42918	109539	0	0	8201	610332	0	0
2024-06-27 14:42:32			0	36549	0	0	0	25784	24370	144681	27201	1022271	42917	109542	0	0	8201	610819	0	0
2024-06-27 14:43:32			0	36570	0	0	0	25786	24390	144605	27331	1022279	42918	109543	0	0	8202	609873	0	0
2024-06-27 14:44:32			0	36549	0	0	0	25794	24390	144717	27041	1022359	42918	109546	0	0	8201	610750	0	0
2024-06-27 14:45:32			0	36551	0	0	0	25792	24370	144681	27435	1022298	42895	109545	0	0	8201	610735	0	0
2024-06-27 14:46:32			0	36553	0	0	0	25781	24390	144753	27277	1022244	42908	109541	0	0	8201	610583	0	0
2024-06-27 14:47:32			0	36555	0	0	0	25771	24380	144685	27230	1022307	42929	109537	0	0	8201	610534	0	0
2024-06-27 14:48:32			0	36546	0	0	0	25771	24390	144705	27095	1022252	42918	109537	0	0	8201	610875	0	0
2024-06-27 14:49:32			0	36547	0	0	0	25784	24390	144709	27315	1022297	42918	109542	0	0	8201	610833	0	0
2024-06-27 14:50:32			0	36531	0	0	0	25792	24400	144705	27329	1022315	42898	109545	0	0	8200	611468	0	0
2024-06-27 14:51:32			0	36525	0	0	0	25797	24390	144725	27419	1022306	42918	109547	0	0	8199	611753	0	0
2024-06-27 14:52:32			0	36552	0	0	0	25797	24390	144705	27393	1022413	42918	109547	0	0	8201	610625	0	0
2024-06-27 14:53:32			0	36541	0	0	0	25802	24410	144709	27388	1022439	42920	109549	0	0	8200	611015	0	0
2024-06-27 14:54:32			0	36541	0	0	0	25823	24400	144733	27441	1022537	42932	109557	0	0	8200	611050	0	0
2024-06-27 14:55:32			0	36538	0	0	0	25872	24430	144685	27306	1022723	42956	109576	0	0	8199	611072	0	0
2024-06-27 14:56:32			0	36524	0	0	0	25901	24450	144773	27306	1022758	42948	109587	0	0	8198	611588	0	0
2024-06-27 14:57:32			0	36515	0	0	0	25916	24480	144817	27038	1022881	42927	109593	0	0	8197	611860	0	0
2024-06-27 14:58:32			0	36518	0	0	0	25914	24480	144917	27159	1022943	42939	109592	0	0	8197	611735	0	0
2024-06-27 14:59:32			0	36513	0	0	0	25953	24510	144829	27213	1023262	42953	109607	0	0	8197	611840	0	0
2024-06-27 15:00:32			0	36527	0	0	0	25994	24540	144833	27275	1023448	42945	109623	0	0	8197	611151	0	0
2024-06-27 15:01:32			0	36513	0	0	0	26046	24580	144845	26706	1023536	42937	109643	0	0	8195	611598	0	0
2024-06-27 15:02:32			0	36523	0	0	0	26098	24600	144929	27124	1023793	42961	109663	0	0	8195	611111	0	0
2024-06-27 15:03:32			0	36501	0	0	0	26163	24650	144885	27178	1024031	42977	109688	0	0	8193	611858	0	0
2024-06-27 15:04:32			0	36510	0	0	0	26251	24690	144805	27102	1024306	42980	109722	0	0	8192	611343	0	0
2024-06-27 15:05:32			0	36491	0	0	0	26327	24730	144877	26965	1024518	42996	109751	0	0	8190	611999	0	0
2024-06-27 15:06:32			0	36463	0	0	0	26376	24770	144885	27303	1024632	42989	109770	0	0	8188	613032	0	0
2024-06-27 15:07:32			0	36480	0	0	0	26420	24800	144913	27102	1024799	42981	109787	0	0	8188	612216	0	0
2024-06-27 15:08:32			0	36491	0	0	0	26399	24840	144833	26833	1024833	42961	109779	0	0	8189	611618	0	0
2024-06-27 15:09:32			0	36440	0	0	0	26379	24850	144957	27351	1024878	42963	109771	0	0	8187	613717	0	0
2024-06-27 15:10:32			0	36467	0	0	0	26376	24860	144893	27275	1024903	42975	109770	0	0	8188	612552	0	0
2024-06-27 15:11:32			0	36448	0	0	0	26361	24870	144797	27260	1024805	42965	109764	0	0	8188	613313	0	0
2024-06-27 15:12:32			0	36484	0	0	0	26332	24890	144725	27261	1024840	42967	109753	0	0	8190	611737	0	0
2024-06-27 15:13:32			0	36478	0	0	0	26340	24890	144781	27274	1025000	42978	109756	0	0	8190	611988	0	0
2024-06-27 15:14:32			0	36482	0	0	0	26355	24910	144725	27022	1025115	42991	109762	0	0	8190	611751	0	0
2024-06-27 15:15:32			0	36483	0	0	0	26361	24920	144705	27177	1024999	42981	109764	0	0	8190	611675	0	0
2024-06-27 15:16:32			0	36492	0	0	0	26337	24930	144745	26993	1025016	42970	109755	0	0	8191	611264	0	0
2024-06-27 15:17:32			0	36474	0	0	0	26319	24930	144713	27239	1024963	42970	109748	0	0	8190	612016	0	0
2024-06-27 15:18:32			0	36476	0	0	0	26335	24930	144709	27102	1025070	42982	109754	0	0	8190	611933	0	0
2024-06-27 15:19:32			0	36492	0	0	0	26327	24950	144689	27079	1025015	42960	109751	0	0	8191	611195	0	0
2024-06-27 15:20:32			0	36472	0	0	0	26316	24950	144669	26771	1025104	42984	109747	0	0	8190	612031	0	0
2024-06-27 15:21:32			0	36486	0	0	0	26298	24960	144725	26993	1024979	42952	109740	0	0	8191	611411	0	0
2024-06-27 15:22:32			0	36471	0	0	0	26223	24950	144601	27275	1024855	42916	109711	0	0	8192	612072	0	0
2024-06-27 15:23:32			0	36502	0	0	0	26210	24940	144561	27275	1024900	42960	109706	0	0	8193	610812	0	0
2024-06-27 15:24:32			0	36515	0	0	0	26176	24920	144529	27256	1024677	42915	109693	0	0	8195	610339	0	0
2024-06-27 15:25:32			0	36511	0	0	0	26109	24890	144449	27196	1024366	42902	109667	0	0	8195	610609	0	0
2024-06-27 15:26:32			0	36518	0	0	0	26059	24860	144457	27287	1024181	42887	109648	0	0	8196	610421	0	0
2024-06-27 15:27:32			0	36542	0	0	0	26023	24830	144493	27081	1023906	42895	109634	0	0	8198	609523	0	0
2024-06-27 15:28:32			0	36543	0	0	0	25981	24800	144425	27187	1023827	42880	109618	0	0	8199	609585	0	0
2024-06-27 15:29:32			0	36546	0	0	0	25953	24760	144437	27005	1023705	42899	109607	0	0	8199	609598	0	0
2024-06-27 15:30:32			0	36559	0	0	0	25922	24730	144409	27166	1023528	42896	109595	0	0	8200	609160	0	0
2024-06-27 15:31:32			0	36557	0	0	0	25906	24700	144369	27043	1023414	42882	109589	0	0	8200	609346	0	0
2024-06-27 15:32:32			0	36577	0	0	0	25877	24680	144417	27135	1023334	42903	109578	0	0	8202	608582	0	0
2024-06-27 15:33:32			0	36587	0	0	0	25885	24670	144369	27298	1023388	42912	109581	0	0	8202	608199	0	0
2024-06-27 15:34:32			0	36598	0	0	0	25890	24650	144281	27180	1023335	42922	109583	0	0	8203	607810	0	0
2024-06-27 15:35:32			0	36606	0	0	0	25893	24650	144362	27220	1023327	42921	109584	0	0	8203	607477	0	0
2024-06-27 15:36:32			0	36609	0	0	0	25885	24640	144266	27417	1023203	42910	109581	0	0	8203	607387	0	0
2024-06-27 15:37:32			0	36612	0	0	0	25872	24620	144350	27066	1023150	42897	109576	0	0	8204	607331	0	0
2024-06-27 15:38:32			0	36610	0	0	0	25864	24600	144266	27161	1023062	42906	109573	0	0	8203	607483	0	0
2024-06-27 15:39:32			0	36624	0	0	0	25851	24580	144294	27081	1022982	42905	109568	0	0	8204	606969	0	0
2024-06-27 15:40:32			0	36642	0	0	0	25844	24560	144266	27227	1022948	42902	109565	0	0	8205	606289	0	0
2024-06-27 15:41:32			0	36628	0	0	0	25836	24550	144202	27346	1022868	42913	109562	0	0	8205	606905	0	0
2024-06-27 15:42:32			0	36638	0	0	0	25831	24540	144190	27019	1022806	42889	109560	0	0	8205	606524	0	0
2024-06-27 15:43:32			0	36644	0	0	0	25833	24550	144298	27145	1022868	42901	109561	0	0	8206	606240	0	0
2024-06-27 15:44:32			0	36646	0	0	0	25825	24520	144306	27400	1022798	42910	109558	0	0	8206	606260	0	0
2024-06-27 15:45:32			0	36660	0	0	0	25818	24520	144222	27026	1022736	42898	109555	0	0	8207	605678	0	0
2024-06-27 15:46:32			0	36668	0	0	0	25820	24510	144286	27412	1022719	42919	109556	0	0	8207	605380	0	0
2024-06-27 15:47:32			0	36673	0	0	0	25810	24500	144158	27561	1022728	42907	109552	0	0	8207	605207	0	0
2024-06-27 15:48:32			0	36689	0	0	0	25828	24500	144118	27204	1022817	42930	109559	0	0	8208	604542	0	0
2024-06-27 15:49:32			0	36701	0	0	0	25859	24510	144158	27170	1023022	42919	109571	0	0	8208	604011	0	0
2024-06-27 15:50:32			0	36709	0	0	0	25867	24510	144194	27183	1022986	42919	109574	0	0	8208	603679	0	0
2024-06-27 15:51:32			0	36712	0	0	0	25890	24530	144094	27383	1023155	42944	109583	0	0	8208	603486	0	0
2024-06-27 15:52:32			0	36710	0	0	0	25914	24530	144106	27215	1023083	42900	109592	0	0	8208	603569	0	0
2024-06-27 15:53:32			0	36715	0	0	0	25914	24540	144102	27230	1022985	42922	109592	0	0	8208	603328	0	0
2024-06-27 15:54:32			0	36713	0	0	0	25950	24550	144078	27048	1023278	42935	109606	0	0	8207	603377	0	0
2024-06-27 15:55:32			0	36704	0	0	0	25999	24560	144018	27431	1023349	42935	109625	0	0	8206	603716	0	0
2024-06-27 15:56:32			0	36719	0	0	0	25999	24580	143922	27203	1023348	42926	109625	0	0	8207	603026	0	0
2024-06-27 15:57:32			0	36732	0	0	0	25994	24580	143962	26946	1023348	42937	109623	0	0	8208	602488	0	0
2024-06-27 15:58:32			0	36727	0	0	0	26012	24590	143930	27414	1023455	42939	109630	0	0	8207	602660	0	0
2024-06-27 15:59:32			0	36724	0	0	0	26020	24620	144038	27395	1023524	42919	109633	0	0	8207	602682	0	0
2024-06-27 16:00:32			0	36753	0	0	0	26031	24620	143962	27092	1023578	42942	109637	0	0	8208	601483	0	0
2024-06-27 16:01:32			0	36736	0	0	0	26023	24620	143954	27119	1023444	42919	109634	0	0	8207	602186	0	0
2024-06-27 16:02:32			0	36741	0	0	0	25994	24620	143910	27360	1023275	42896	109623	0	0	8208	601979	0	0
2024-06-27 16:03:32			0	36738	0	0	0	25966	24610	143874	27466	1023293	42884	109612	0	0	8209	602137	0	0
2024-06-27 16:04:32			0	36751	0	0	0	25948	24590	143794	27239	1023267	42906	109605	0	0	8209	601668	0	0
2024-06-27 16:05:32			0	36739	0	0	0	25927	24580	143890	27248	1023170	42916	109597	0	0	8209	602198	0	0
2024-06-27 16:06:32			0	36761	0	0	0	25911	24580	143878	27298	1023054	42904	109591	0	0	8211	601288	0	0
2024-06-27 16:07:32			0	36772	0	0	0	25885	24560	143678	27003	1022975	42902	109581	0	0	8211	600902	0	0
2024-06-27 16:08:32			0	36781	0	0	0	25872	24560	143778	27076	1023020	42913	109576	0	0	8212	600530	0	0
2024-06-27 16:09:32			0	36797	0	0	0	25864	24550	143690	27229	1023037	42913	109573	0	0	8213	599903	0	0
2024-06-27 16:10:32			0	36801	0	0	0	25880	24550	143778	27263	1022957	42902	109579	0	0	8213	599738	0	0
2024-06-27 16:11:32			0	36800	0	0	0	25872	24540	143586	27225	1022993	42900	109576	0	0	8213	599813	0	0
2024-06-27 16:12:32			0	36802	0	0	0	25854	24540	143622	26932	1022966	42900	109569	0	0	8213	599731	0	0
2024-06-27 16:13:32			0	36796	0	0	0	25844	24520	143686	27204	1022905	42898	109565	0	0	8213	600046	0	0
2024-06-27 16:14:32			0	36798	0	0	0	25854	24530	143598	27187	1022887	42921	109569	0	0	8213	599930	0	0
2024-06-27 16:15:32			0	36804	0	0	0	25867	24530	143710	27326	1023021	42932	109574	0	0	8213	599682	0	0
2024-06-27 16:16:32			0	36800	0	0	0	25909	24520	143770	27279	1023092	42931	109590	0	0	8212	599881	0	0
2024-06-27 16:17:32			0	36790	0	0	0	25927	24550	143766	27071	1023136	42913	109597	0	0	8212	600192	0	0
2024-06-27 16:18:32			0	36800	0	0	0	25919	24550	143762	27105	1023162	42913	109594	0	0	8212	599779	0	0
2024-06-27 16:19:32			0	36772	0	0	0	25927	24560	143742	27196	1023207	42935	109597	0	0	8211	600902	0	0
2024-06-27 16:20:32			0	36774	0	0	0	25927	24550	143734	27422	1023118	42924	109597	0	0	8211	600853	0	0
2024-06-27 16:21:32			0	36782	0	0	0	25911	24560	143858	27315	1023082	42902	109591	0	0	8212	600488	0	0
2024-06-27 16:22:32			0	36792	0	0	0	25911	24560	143810	27357	1023153	42913	109591	0	0	8212	600076	0	0
2024-06-27 16:23:32			0	36779	0	0	0	25916	24540	143814	27039	1023074	42900	109593	0	0	8211	600680	0	0
2024-06-27 16:24:32			0	36749	0	0	0	25909	24550	143850	27183	1023091	42913	109590	0	0	8210	601886	0	0
2024-06-27 16:25:32			0	36750	0	0	0	25916	24550	143822	27244	1023109	42913	109593	0	0	8210	601845	0	0
2024-06-27 16:26:32			0	36778	0	0	0	25911	24550	143910	27001	1023082	42901	109591	0	0	8211	600688	0	0
2024-06-27 16:27:32			0	36770	0	0	0	25916	24540	143826	27097	1023047	42922	109593	0	0	8211	601052	0	0
2024-06-27 16:28:32			0	36777	0	0	0	25914	24550	143846	27265	1023118	42913	109592	0	0	8211	600729	0	0
2024-06-27 16:29:32			0	36765	0	0	0	25909	24540	143862	27180	1023047	42922	109590	0	0	8211	601259	0	0
2024-06-27 16:30:32			0	36760	0	0	0	25924	24550	143930	27270	1023082	42923	109596	0	0	8210	601432	0	0
2024-06-27 16:31:32			0	36746	0	0	0	25919	24540	143894	27471	1023100	42933	109594	0	0	8209	602045	0	0
2024-06-27 16:32:32			0	36748	0	0	0	25935	24560	143870	26909	1023189	42935	109600	0	0	8209	601894	0	0
2024-06-27 16:33:32			0	36775	0	0	0	25929	24560	143906	27300	1023153	42935	109598	0	0	8211	600778	0	0
2024-06-27 16:34:32			0	36750	0	0	0	25948	24560	143890	26892	1023287	42913	109605	0	0	8209	601811	0	0
2024-06-27 16:35:32			0	36749	0	0	0	25986	24580	143998	27199	1023410	42927	109620	0	0	8209	601784	0	0
2024-06-27 16:36:32			0	36752	0	0	0	26002	24590	143878	27197	1023455	42927	109626	0	0	8209	601626	0	0
2024-06-27 16:37:32			0	36741	0	0	0	26005	24600	143918	26979	1023517	42939	109627	0	0	8208	602047	0	0
2024-06-27 16:38:32			0	36748	0	0	0	26015	24600	143926	27079	1023436	42916	109631	0	0	8208	601758	0	0
2024-06-27 16:39:32			0	36747	0	0	0	25994	24600	143938	27229	1023392	42917	109623	0	0	8208	601799	0	0
2024-06-27 16:40:32			0	36743	0	0	0	25958	24590	143950	27216	1023240	42906	109609	0	0	8209	601998	0	0
2024-06-27 16:41:32			0	36739	0	0	0	25929	24580	143818	27218	1023196	42905	109598	0	0	8209	602198	0	0
2024-06-27 16:42:32			0	36745	0	0	0	25919	24570	143862	27005	1023099	42893	109594	0	0	8210	601984	0	0
2024-06-27 16:43:32			0	36722	0	0	0	25898	24560	143858	26922	1023028	42913	109586	0	0	8209	602970	0	0
2024-06-27 16:44:32			0	36752	0	0	0	25903	24560	143974	27324	1023082	42902	109588	0	0	8210	601728	0	0
2024-06-27 16:45:32			0	36743	0	0	0	25909	24560	143930	27171	1023055	42913	109590	0	0	8210	602101	0	0
2024-06-27 16:46:32			0	36733	0	0	0	25906	24550	143926	27400	1023064	42902	109589	0	0	8209	602548	0	0
2024-06-27 16:47:32			0	36733	0	0	0	25901	24550	143946	27092	1023037	42902	109587	0	0	8209	602548	0	0
2024-06-27 16:48:32			0	36735	0	0	0	25906	24550	143990	27142	1023091	42913	109589	0	0	8209	602466	0	0
2024-06-27 16:49:32			0	36714	0	0	0	25916	24550	143962	27251	1023091	42913	109593	0	0	8208	603335	0	0
2024-06-27 16:50:32			0	36729	0	0	0	25924	24550	143994	27121	1023055	42923	109596	0	0	8209	602714	0	0
2024-06-27 16:51:32			0	36719	0	0	0	25935	24560	144030	27024	1023207	42935	109600	0	0	8208	603094	0	0
2024-06-27 16:52:32			0	36722	0	0	0	25955	24560	144002	27279	1023260	42913	109608	0	0	8208	602970	0	0
2024-06-27 16:53:32			0	36723	0	0	0	25984	24570	144066	27166	1023393	42948	109619	0	0	8207	602894	0	0
2024-06-27 16:54:32			0	36713	0	0	0	25992	24590	144022	27531	1023392	42927	109622	0	0	8207	603240	0	0
2024-06-27 16:55:32			0	36707	0	0	0	26010	24610	143990	27230	1023480	42940	109629	0	0	8206	603420	0	0
2024-06-27 16:56:32			0	36718	0	0	0	26010	24610	144038	27194	1023507	42917	109629	0	0	8207	602965	0	0
2024-06-27 16:57:32			0	36711	0	0	0	25997	24620	144154	27229	1023444	42919	109624	0	0	8207	603221	0	0
2024-06-27 16:58:32			0	36709	0	0	0	25981	24610	144070	27105	1023373	42917	109618	0	0	8207	603338	0	0
2024-06-27 16:59:32			0	36704	0	0	0	25963	24600	144050	27062	1023329	42895	109611	0	0	8207	603579	0	0
2024-06-27 17:00:32			0	36689	0	0	0	25950	24600	144038	26908	1023303	42916	109606	0	0	8206	604201	0	0
2024-06-27 17:01:32			0	36701	0	0	0	25955	24590	143986	27123	1023321	42906	109608	0	0	8207	603737	0	0
2024-06-27 17:02:32			0	36712	0	0	0	25953	24590	144030	27234	1023285	42916	109607	0	0	8207	603281	0	0
2024-06-27 17:03:32			0	36718	0	0	0	25953	24580	144026	27336	1023170	42894	109607	0	0	8208	603067	0	0
2024-06-27 17:04:32			0	36733	0	0	0	25935	24570	143990	27390	1023206	42915	109600	0	0	8209	602480	0	0
2024-06-27 17:05:32			0	36702	0	0	0	25940	24570	144006	27281	1023152	42915	109602	0	0	8207	603764	0	0
2024-06-27 17:06:32			0	36714	0	0	0	25935	24570	144006	27189	1023152	42915	109600	0	0	8208	603267	0	0
2024-06-27 17:07:32			0	36706	0	0	0	25927	24570	143982	27043	1023152	42926	109597	0	0	8207	603598	0	0
2024-06-27 17:08:32			0	36714	0	0	0	25929	24570	143998	26906	1023171	42914	109598	0	0	8208	603267	0	0
2024-06-27 17:09:32			0	36710	0	0	0	25935	24560	143978	26946	1023162	42913	109600	0	0	8207	603467	0	0
2024-06-27 17:10:32			0	36699	0	0	0	25948	24570	144062	27121	1023224	42936	109605	0	0	8207	603888	0	0
2024-06-27 17:11:32			0	36718	0	0	0	25942	24570	144058	27246	1023152	42915	109603	0	0	8208	603101	0	0
2024-06-27 17:12:32			0	36713	0	0	0	25942	24560	144018	27013	1023180	42924	109603	0	0	8207	603343	0	0
2024-06-27 17:13:32			0	36716	0	0	0	25953	24570	143978	27161	1023197	42914	109607	0	0	8207	603184	0	0
2024-06-27 17:14:32			0	36728	0	0	0	25950	24560	144010	27034	1023269	42913	109606	0	0	8208	602721	0	0
2024-06-27 17:15:32			0	36718	0	0	0	25961	24570	144118	26831	1023259	42948	109610	0	0	8207	603101	0	0
2024-06-27 17:16:32			0	36722	0	0	0	25968	24570	144042	27358	1023340	42937	109613	0	0	8207	602936	0	0
2024-06-27 17:17:32			0	36714	0	0	0	25989	24580	143950	27048	1023330	42927	109621	0	0	8207	603233	0	0
2024-06-27 17:18:32			0	36725	0	0	0	26002	24600	144002	27332	1023490	42939	109626	0	0	8207	602709	0	0
2024-06-27 17:19:32			0	36718	0	0	0	26012	24610	143966	27144	1023480	42928	109630	0	0	8207	602965	0	0
2024-06-27 17:20:32			0	36715	0	0	0	26025	24620	143938	26960	1023516	42941	109635	0	0	8206	603055	0	0
2024-06-27 17:21:32			0	36717	0	0	0	26005	24610	144010	26975	1023373	42907	109627	0	0	8207	603006	0	0
2024-06-27 17:22:32			0	36728	0	0	0	26020	24620	143942	27019	1023489	42918	109633	0	0	8207	602517	0	0
2024-06-27 17:23:32			0	36717	0	0	0	26038	24630	144054	27263	1023613	42919	109640	0	0	8206	602938	0	0
2024-06-27 17:24:32			0	36702	0	0	0	26062	24640	143946	26925	1023657	42943	109649	0	0	8205	603525	0	0
2024-06-27 17:25:32			0	36709	0	0	0	26075	24640	143918	27109	1023639	42955	109654	0	0	8205	603235	0	0
2024-06-27 17:26:32			0	36709	0	0	0	26077	24650	143982	27294	1023710	42956	109655	0	0	8205	603201	0	0
2024-06-27 17:27:32			0	36712	0	0	0	26075	24650	144018	27265	1023755	42932	109654	0	0	8205	603077	0	0
2024-06-27 17:28:32			0	36703	0	0	0	26083	24660	144010	27232	1023674	42945	109657	0	0	8205	603415	0	0
2024-06-27 17:29:32			0	36699	0	0	0	26096	24670	143994	27208	1023825	42946	109662	0	0	8205	603547	0	0
2024-06-27 17:30:32			0	36717	0	0	0	26109	24690	143906	27142	1023851	42958	109667	0	0	8205	602733	0	0
2024-06-27 17:31:32			0	36710	0	0	0	26098	24680	143990	27145	1023843	42914	109663	0	0	8205	603057	0	0
2024-06-27 17:32:32			0	36697	0	0	0	26103	24690	143962	27246	1023798	42936	109665	0	0	8204	603562	0	0
2024-06-27 17:33:32			0	36692	0	0	0	26111	24680	143954	27194	1023896	42936	109668	0	0	8204	603803	0	0
2024-06-27 17:34:32			0	36707	0	0	0	26111	24690	144038	26635	1023905	42925	109668	0	0	8205	603147	0	0
2024-06-27 17:35:32			0	36691	0	0	0	26103	24690	144010	27149	1023798	42947	109665	0	0	8204	603810	0	0
2024-06-27 17:36:32			0	36705	0	0	0	26111	24700	143946	27268	1023842	42949	109668	0	0	8205	603196	0	0
2024-06-27 17:37:32			0	36704	0	0	0	26090	24690	143990	27281	1023806	42926	109660	0	0	8205	603272	0	0
2024-06-27 17:38:32			0	36712	0	0	0	26090	24690	143882	27187	1023798	42936	109660	0	0	8205	602940	0	0
2024-06-27 17:39:32			0	36707	0	0	0	26080	24690	144010	27284	1023771	42936	109656	0	0	8205	603147	0	0
2024-06-27 17:40:32			0	36723	0	0	0	26083	24690	143942	26974	1023780	42926	109657	0	0	8206	602485	0	0
2024-06-27 17:41:32			0	36724	0	0	0	26072	24690	143938	27345	1023744	42936	109653	0	0	8206	602444	0	0
2024-06-27 17:42:32			0	36737	0	0	0	26080	24680	143886	27105	1023896	42947	109656	0	0	8207	601940	0	0
2024-06-27 17:43:32			0	36743	0	0	0	26101	24690	143854	27220	1023913	42937	109664	0	0	8207	601658	0	0
2024-06-27 17:44:32			0	36753	0	0	0	26127	24710	143798	27253	1023993	42949	109674	0	0	8207	601177	0	0
2024-06-27 17:45:32			0	36735	0	0	0	26148	24730	143806	27369	1024027	42952	109682	0	0	8206	601852	0	0
2024-06-27 17:46:32			0	36748	0	0	0	26137	24730	143814	26996	1024001	42929	109678	0	0	8207	601315	0	0
2024-06-27 17:47:32			0	36758	0	0	0	26153	24730	143842	26958	1024161	42941	109684	0	0	8207	600902	0	0
2024-06-27 17:48:32			0	36748	0	0	0	26161	24740	143734	27517	1024178	42953	109687	0	0	8206	601281	0	0
2024-06-27 17:49:32			0	36751	0	0	0	26155	24750	143766	27244	1024089	42954	109685	0	0	8207	601123	0	0
2024-06-27 17:50:32			0	36732	0	0	0	26158	24740	143706	27296	1024134	42942	109686	0	0	8206	601942	0	0
2024-06-27 17:51:32			0	36736	0	0	0	26168	24750	143730	27284	1024151	42942	109690	0	0	8206	601743	0	0
2024-06-27 17:52:32			0	36737	0	0	0	26174	24770	143806	27403	1024293	42956	109692	0	0	8206	601633	0	0
2024-06-27 17:53:32			0	36747	0	0	0	26207	24780	143858	27279	1024363	42968	109705	0	0	8206	601186	0	0
2024-06-27 17:54:32			0	36736	0	0	0	26225	24790	143826	27138	1024461	42958	109712	0	0	8205	601607	0	0
2024-06-27 17:55:32			0	36745	0	0	0	26270	24810	143738	27261	1024656	42982	109729	0	0	8205	601167	0	0
2024-06-27 17:56:32			0	36717	0	0	0	26316	24830	143878	27140	1024656	42972	109747	0	0	8202	602256	0	0
2024-06-27 17:57:32			0	36715	0	0	0	26293	24820	143806	26797	1024567	42950	109738	0	0	8203	602373	0	0
2024-06-27 17:58:32			0	36720	0	0	0	26259	24820	143918	27203	1024513	42939	109725	0	0	8204	602166	0	0
2024-06-27 17:59:32			0	36710	0	0	0	26246	24830	143826	26882	1024530	42951	109720	0	0	8203	602545	0	0
2024-06-27 18:00:32			0	36725	0	0	0	26231	24830	143790	27142	1024415	42951	109714	0	0	8204	601925	0	0
2024-06-27 18:01:32			0	36715	0	0	0	26212	24820	143818	27067	1024460	42950	109707	0	0	8204	602373	0	0
2024-06-27 18:02:32			0	36708	0	0	0	26223	24820	143826	26769	1024531	42949	109711	0	0	8204	602662	0	0
2024-06-27 18:03:32			0	36708	0	0	0	26251	24830	143858	27194	1024557	42961	109722	0	0	8203	602628	0	0
2024-06-27 18:04:32			0	36714	0	0	0	26251	24830	143798	27010	1024664	42951	109722	0	0	8203	602380	0	0
2024-06-27 18:05:32			0	36725	0	0	0	26254	24860	143850	27260	1024761	42974	109723	0	0	8204	601823	0	0
2024-06-27 18:06:32			0	36711	0	0	0	26244	24860	143898	27024	1024689	42975	109719	0	0	8203	602402	0	0
2024-06-27 18:07:32			0	36714	0	0	0	26228	24860	143918	27095	1024627	42941	109713	0	0	8204	602277	0	0
2024-06-27 18:08:32			0	36703	0	0	0	26241	24850	143898	27067	1024699	42974	109718	0	0	8203	602767	0	0
2024-06-27 18:09:32			0	36729	0	0	0	26246	24870	143886	26899	1024760	42976	109720	0	0	8204	601623	0	0
2024-06-27 18:10:32			0	36700	0	0	0	26259	24880	143886	27114	1024804	42977	109725	0	0	8203	602788	0	0
2024-06-27 18:11:32			0	36721	0	0	0	26257	24870	143802	26878	1024778	42943	109724	0	0	8204	601954	0	0
2024-06-27 18:12:32			0	36710	0	0	0	26257	24880	143830	27218	1024903	42965	109724	0	0	8203	602375	0	0
2024-06-27 18:13:32			0	36708	0	0	0	26296	24890	143850	27223	1024982	42990	109739	0	0	8203	602423	0	0
2024-06-27 18:14:32			0	36711	0	0	0	26332	24930	143882	27163	1025248	42992	109753	0	0	8202	602163	0	0
2024-06-27 18:15:32			0	36691	0	0	0	26348	24950	143886	27121	1025283	42983	109759	0	0	8201	602921	0	0
2024-06-27 18:16:32			0	36692	0	0	0	26355	24950	143938	26955	1025283	42983	109762	0	0	8201	602880	0	0
2024-06-27 18:17:32			0	36701	0	0	0	26373	24970	143910	26726	1025433	42985	109769	0	0	8201	602439	0	0
2024-06-27 18:18:32			0	36675	0	0	0	26407	24990	143882	27272	1025486	42976	109782	0	0	8199	603447	0	0
2024-06-27 18:19:32			0	36680	0	0	0	26436	25010	143898	27386	1025503	42978	109793	0	0	8199	603172	0	0
2024-06-27 18:20:32			0	36691	0	0	0	26420	25000	143882	27095	1025432	42978	109787	0	0	8200	602751	0	0
2024-06-27 18:21:32			0	36679	0	0	0	26407	24990	143910	27355	1025361	42965	109782	0	0	8200	603281	0	0
2024-06-27 18:22:32			0	36673	0	0	0	26410	25000	143966	27007	1025459	42978	109783	0	0	8199	603496	0	0
2024-06-27 18:23:32			0	36696	0	0	0	26472	25020	143918	27161	1025619	43000	109807	0	0	8200	602476	0	0
2024-06-27 18:24:32			0	36660	0	0	0	26506	25040	143934	27371	1025689	42982	109820	0	0	8197	603897	0	0
2024-06-27 18:25:32			0	36666	0	0	0	26480	25050	143974	27253	1025698	42982	109810	0	0	8198	603614	0	0
2024-06-27 18:26:32			0	36657	0	0	0	26454	25050	143914	27150	1025519	42994	109800	0	0	8198	603987	0	0
2024-06-27 18:27:32			0	36651	0	0	0	26433	25030	143962	27029	1025502	42958	109792	0	0	8198	604304	0	0
2024-06-27 18:28:32			0	36654	0	0	0	26457	25060	143998	27251	1025715	42994	109801	0	0	8198	604077	0	0
2024-06-27 18:29:32			0	36653	0	0	0	26506	25060	144026	27260	1025831	43005	109820	0	0	8197	604119	0	0
2024-06-27 18:30:32			0	36664	0	0	0	26522	25070	143946	27227	1025875	43006	109826	0	0	8197	603629	0	0
2024-06-27 18:31:32			0	36654	0	0	0	26516	25080	144002	27336	1025812	42997	109824	0	0	8197	604009	0	0
2024-06-27 18:32:32			0	36658	0	0	0	26503	25070	143974	27163	1025768	42984	109819	0	0	8197	603877	0	0
2024-06-27 18:33:32			0	36670	0	0	0	26490	25080	144050	27192	1025750	42984	109814	0	0	8198	603346	0	0
2024-06-27 18:34:32			0	36661	0	0	0	26480	25080	143978	26908	1025598	42963	109810	0	0	8198	603719	0	0
2024-06-27 18:35:32			0	36657	0	0	0	26451	25070	144046	27455	1025554	42984	109799	0	0	8198	603919	0	0
2024-06-27 18:36:32			0	36653	0	0	0	26444	25070	144042	26804	1025572	42973	109796	0	0	8198	604084	0	0
2024-06-27 18:37:32			0	36663	0	0	0	26425	25050	144002	27372	1025519	42971	109789	0	0	8199	603739	0	0
2024-06-27 18:38:32			0	36666	0	0	0	26436	25050	144022	27166	1025546	42982	109793	0	0	8199	603614	0	0
2024-06-27 18:39:32			0	36655	0	0	0	26428	25040	143966	26979	1025501	42993	109790	0	0	8198	604104	0	0
2024-06-27 18:40:32			0	36676	0	0	0	26418	25050	143958	26965	1025457	42982	109786	0	0	8200	603200	0	0
2024-06-27 18:41:32			0	36660	0	0	0	26399	25020	143882	27324	1025405	42979	109779	0	0	8199	603966	0	0
2024-06-27 18:42:32			0	36683	0	0	0	26394	25020	143906	27341	1025306	42968	109777	0	0	8200	603013	0	0
2024-06-27 18:43:32			0	36684	0	0	0	26389	25010	143954	27253	1025334	42967	109775	0	0	8200	603006	0	0
2024-06-27 18:44:32			0	36696	0	0	0	26389	25010	143934	27038	1025450	42967	109775	0	0	8201	602510	0	0
2024-06-27 18:45:32			0	36686	0	0	0	26407	25010	143858	26989	1025450	42967	109782	0	0	8200	602923	0	0
2024-06-27 18:46:32			0	36681	0	0	0	26405	25020	143942	27088	1025431	42979	109781	0	0	8200	603096	0	0
2024-06-27 18:47:32			0	36694	0	0	0	26381	25020	143970	27045	1025378	42967	109772	0	0	8201	602558	0	0
2024-06-27 18:48:32			0	36709	0	0	0	26363	25000	143806	27027	1025191	42967	109765	0	0	8202	602006	0	0
2024-06-27 18:49:32			0	36701	0	0	0	26353	24990	143818	26991	1025147	42965	109761	0	0	8202	602371	0	0
2024-06-27 18:50:32			0	36695	0	0	0	26345	24980	143818	27296	1025121	42975	109758	0	0	8201	602654	0	0
2024-06-27 18:51:32			0	36713	0	0	0	26345	24980	143830	27242	1025174	42975	109758	0	0	8202	601909	0	0
2024-06-27 18:52:32			0	36713	0	0	0	26353	24970	143798	27521	1025219	42963	109761	0	0	8202	601943	0	0
2024-06-27 18:53:32			0	36713	0	0	0	26368	24970	143826	27043	1025219	42963	109767	0	0	8202	601943	0	0
2024-06-27 18:54:32			0	36705	0	0	0	26366	24980	143826	27194	1025237	42987	109766	0	0	8202	602240	0	0
2024-06-27 18:55:32			0	36710	0	0	0	26381	24980	143914	27112	1025344	42999	109772	0	0	8202	602033	0	0
2024-06-27 18:56:32			0	36698	0	0	0	26394	24990	143806	26937	1025441	42987	109777	0	0	8201	602495	0	0
2024-06-27 18:57:32			0	36716	0	0	0	26407	25020	143850	27301	1025458	43000	109782	0	0	8202	601649	0	0
2024-06-27 18:58:32			0	36683	0	0	0	26410	25010	143838	26906	1025450	42989	109783	0	0	8200	603048	0	0
2024-06-27 18:59:32			0	36700	0	0	0	26412	25010	143798	27161	1025494	42989	109784	0	0	8201	602344	0	0
2024-06-27 19:00:32			0	36709	0	0	0	26449	25020	143798	26887	1025627	43001	109798	0	0	8201	601938	0	0
2024-06-27 19:01:32			0	36693	0	0	0	26472	25040	143830	27043	1025635	42982	109807	0	0	8199	602531	0	0
2024-06-27 19:02:32			0	36703	0	0	0	26475	25040	143874	26948	1025635	42970	109808	0	0	8200	602118	0	0
2024-06-27 19:03:32			0	36696	0	0	0	26472	25050	143870	27194	1025644	42982	109807	0	0	8200	602373	0	0
2024-06-27 19:04:32			0	36685	0	0	0	26464	25050	143842	27208	1025724	43004	109804	0	0	8199	602828	0	0
2024-06-27 19:05:32			0	36690	0	0	0	26485	25060	143802	27046	1025724	42995	109812	0	0	8199	602587	0	0
2024-06-27 19:06:32			0	36698	0	0	0	26488	25060	143886	26942	1025688	42994	109813	0	0	8200	602256	0	0
2024-06-27 19:07:32			0	36702	0	0	0	26493	25060	143910	27005	1025751	42983	109815	0	0	8200	602091	0	0
2024-06-27 19:08:32			0	36681	0	0	0	26480	25070	143914	26953	1025768	42984	109810	0	0	8199	602925	0	0
2024-06-27 19:09:32			0	36681	0	0	0	26485	25070	143786	26734	1025795	42984	109812	0	0	8199	602925	0	0
2024-06-27 19:10:32			0	36687	0	0	0	26511	25100	143874	27371	1026025	43020	109822	0	0	8199	602574	0	0
2024-06-27 19:11:32			0	36678	0	0	0	26535	25110	143862	26896	1025936	43021	109831	0	0	8198	602912	0	0
2024-06-27 19:12:32			0	36681	0	0	0	26519	25110	143954	27131	1025917	43011	109825	0	0	8198	602788	0	0
2024-06-27 19:13:32			0	36676	0	0	0	26490	25110	143834	27194	1025828	42965	109814	0	0	8199	602995	0	0
2024-06-27 19:14:32			0	36688	0	0	0	26459	25090	143810	27320	1025615	42965	109802	0	0	8200	602567	0	0
2024-06-27 19:15:32			0	36676	0	0	0	26441	25090	143882	27180	1025722	42965	109795	0	0	8199	603064	0	0
2024-06-27 19:16:32			0	36688	0	0	0	26454	25090	143842	26791	1025821	42998	109800	0	0	8200	602567	0	0
2024-06-27 19:17:32			0	36688	0	0	0	26464	25080	143846	26953	1025758	42997	109804	0	0	8200	602601	0	0
2024-06-27 19:18:32			0	36693	0	0	0	26477	25090	143870	27215	1025794	42986	109809	0	0	8200	602360	0	0
2024-06-27 19:19:32			0	36665	0	0	0	26509	25100	143914	27187	1025954	43020	109821	0	0	8198	603485	0	0
2024-06-27 19:20:32			0	36694	0	0	0	26532	25110	143818	26979	1026069	43021	109830	0	0	8199	602251	0	0
2024-06-27 19:21:32			0	36687	0	0	0	26540	25120	143902	27090	1026015	43000	109833	0	0	8198	602506	0	0
2024-06-27 19:22:32			0	36679	0	0	0	26537	25130	143894	27229	1025970	42990	109832	0	0	8198	602803	0	0
2024-06-27 19:23:32			0	36676	0	0	0	26532	25130	143986	26968	1026077	43000	109830	0	0	8198	602927	0	0
2024-06-27 19:24:32			0	36690	0	0	0	26522	25130	143882	26887	1025943	42979	109826	0	0	8199	602348	0	0
2024-06-27 19:25:32			0	36675	0	0	0	26522	25130	143970	27196	1026032	42980	109826	0	0	8198	602968	0	0
2024-06-27 19:26:32			0	36674	0	0	0	26516	25130	143894	27237	1026024	43012	109824	0	0	8198	603009	0	0
2024-06-27 19:27:32			0	36691	0	0	0	26532	25130	143974	27109	1025943	43012	109830	0	0	8199	602306	0	0
2024-06-27 19:28:32			0	36688	0	0	0	26522	25140	144010	27078	1025988	43013	109826	0	0	8199	602396	0	0
2024-06-27 19:29:32			0	36694	0	0	0	26516	25130	143918	26987	1025943	43000	109824	0	0	8199	602182	0	0
2024-06-27 19:30:32			0	36694	0	0	0	26522	25130	143866	26989	1026140	43013	109826	0	0	8199	602182	0	0
2024-06-27 19:31:32			0	36689	0	0	0	26563	25150	143878	26951	1026326	43013	109842	0	0	8198	602321	0	0
2024-06-27 19:32:32			0	36679	0	0	0	26633	25180	143878	26764	1026548	43040	109869	0	0	8197	602632	0	0
2024-06-27 19:33:32			0	36695	0	0	0	26680	25200	143982	26925	1026574	43030	109887	0	0	8197	601902	0	0
2024-06-27 19:34:32			0	36685	0	0	0	26657	25220	143858	27215	1026501	42999	109878	0	0	8197	602247	0	0
2024-06-27 19:35:32			0	36670	0	0	0	26625	25220	143922	27272	1026519	43009	109866	0	0	8196	602867	0	0
2024-06-27 19:36:32			0	36679	0	0	0	26581	25210	143870	27190	1026270	42975	109849	0	0	8198	602529	0	0
2024-06-27 19:37:32			0	36696	0	0	0	26519	25200	143850	27334	1026118	42975	109825	0	0	8200	601861	0	0
2024-06-27 19:38:32			0	36692	0	0	0	26485	25170	143866	27059	1025995	42972	109812	0	0	8200	602128	0	0
2024-06-27 19:39:32			0	36684	0	0	0	26454	25160	143878	26856	1025915	42970	109800	0	0	8200	602493	0	0
2024-06-27 19:40:32			0	36697	0	0	0	26441	25150	143818	27334	1025951	42969	109795	0	0	8201	601990	0	0
2024-06-27 19:41:32			0	36697	0	0	0	26457	25140	143866	27313	1025969	43001	109801	0	0	8200	602024	0	0
2024-06-27 19:42:32			0	36705	0	0	0	26470	25140	143814	27031	1025988	42991	109806	0	0	8201	601694	0	0
2024-06-27 19:43:32			0	36713	0	0	0	26464	25150	143894	26883	1025978	42981	109804	0	0	8201	601329	0	0
2024-06-27 19:44:32			0	36727	0	0	0	26470	25140	143798	27227	1025889	42980	109806	0	0	8202	600785	0	0
2024-06-27 19:45:32			0	36736	0	0	0	26438	25110	143774	27145	1025641	42955	109794	0	0	8203	600516	0	0
2024-06-27 19:46:32			0	36736	0	0	0	26412	25090	143802	27225	1025481	42965	109784	0	0	8203	600584	0	0
2024-06-27 19:47:32			0	36729	0	0	0	26376	25070	143862	26961	1025358	42940	109770	0	0	8203	600942	0	0
2024-06-27 19:48:32			0	36735	0	0	0	26348	25040	143842	27152	1025252	42936	109759	0	0	8204	600796	0	0
2024-06-27 19:49:32			0	36739	0	0	0	26316	25020	143910	26993	1025199	42958	109747	0	0	8204	600699	0	0
2024-06-27 19:50:32			0	36737	0	0	0	26306	25000	143890	26875	1025129	42955	109743	0	0	8204	600850	0	0
2024-06-27 19:51:32			0	36777	0	0	0	26283	24980	143806	27336	1025022	42954	109734	0	0	8207	599268	0	0
2024-06-27 19:52:32			0	36786	0	0	0	26270	24970	143694	26989	1024978	42963	109729	0	0	8207	598931	0	0
2024-06-27 19:53:32			0	36811	0	0	0	26249	24960	143730	27013	1024792	42940	109721	0	0	8209	597936	0	0
2024-06-27 19:54:32			0	36818	0	0	0	26236	24930	143654	26814	1024829	42959	109716	0	0	8210	597750	0	0
2024-06-27 19:55:32			0	36831	0	0	0	26246	24930	143710	27128	1024882	42970	109720	0	0	8210	597215	0	0
2024-06-27 19:56:32			0	36822	0	0	0	26244	24930	143614	27241	1024820	42958	109719	0	0	8210	597585	0	0
2024-06-27 19:57:32			0	36838	0	0	0	26251	24920	143582	27256	1024865	42981	109722	0	0	8210	596961	0	0
2024-06-27 19:58:32			0	36860	0	0	0	26262	24910	143570	26987	1024794	42980	109726	0	0	8211	596091	0	0
2024-06-27 19:59:32			0	36837	0	0	0	26257	24910	143554	27057	1024874	42947	109724	0	0	8210	597036	0	0
2024-06-27 20:00:32			0	36865	0	0	0	26277	24920	143478	27232	1024963	42969	109732	0	0	8211	595852	0	0
2024-06-27 20:01:32			0	36881	0	0	0	26293	24920	143562	27171	1024963	42969	109738	0	0	8212	595195	0	0
2024-06-27 20:02:32			0	36844	0	0	0	26290	24920	143462	27370	1024945	42981	109737	0	0	8210	596714	0	0
2024-06-27 20:03:32			0	36856	0	0	0	26290	24920	143514	27001	1024910	42958	109737	0	0	8211	596221	0	0
2024-06-27 20:04:32			0	36855	0	0	0	26280	24900	143522	27277	1024866	42968	109733	0	0	8211	596330	0	0
2024-06-27 20:05:32			0	36869	0	0	0	26272	24900	143546	27124	1024839	42968	109730	0	0	8211	595755	0	0
2024-06-27 20:06:32			0	36863	0	0	0	26267	24890	143490	26967	1024822	42968	109728	0	0	8211	596035	0	0
2024-06-27 20:07:32			0	36875	0	0	0	26270	24890	143434	26993	1024795	42968	109729	0	0	8212	595543	0	0
2024-06-27 20:08:32			0	36892	0	0	0	26246	24890	143434	27332	1024706	42978	109720	0	0	8213	594845	0	0
2024-06-27 20:09:32			0	36904	0	0	0	26225	24880	143434	27355	1024662	42943	109712	0	0	8214	594387	0	0
2024-06-27 20:10:32			0	36919	0	0	0	26218	24860	143422	27187	1024529	42954	109709	0	0	8215	593840	0	0
2024-06-27 20:11:32			0	36935	0	0	0	26189	24850	143274	27121	1024503	42953	109698	0	0	8216	593218	0	0
2024-06-27 20:12:32			0	36949	0	0	0	26179	24840	143278	27008	1024298	42951	109694	0	0	8217	592679	0	0
2024-06-27 20:13:32			0	36982	0	0	0	26153	24820	143066	27234	1024264	42938	109684	0	0	8219	591397	0	0
2024-06-27 20:14:32			0	36986	0	0	0	26155	24800	143162	27293	1024344	42948	109685	0	0	8219	591300	0	0
2024-06-27 20:15:32			0	37003	0	0	0	26161	24800	143038	27201	1024425	42970	109687	0	0	8220	590606	0	0
2024-06-27 20:16:32			0	37019	0	0	0	26168	24800	142934	26828	1024389	42969	109690	0	0	8221	589953	0	0
2024-06-27 20:17:32			0	37027	0	0	0	26174	24810	142890	26955	1024407	42970	109692	0	0	8221	589594	0	0
2024-06-27 20:18:32			0	37044	0	0	0	26176	24810	142886	27170	1024327	42970	109693	0	0	8222	588901	0	0
2024-06-27 20:19:32			0	37058	0	0	0	26176	24800	142926	27282	1024416	42947	109693	0	0	8222	588364	0	0
2024-06-27 20:20:32			0	37037	0	0	0	26179	24800	142886	27020	1024425	42970	109694	0	0	8221	589220	0	0
2024-06-27 20:21:32			0	37057	0	0	0	26181	24800	142886	27338	1024371	42970	109695	0	0	8222	588405	0	0
2024-06-27 20:22:32			0	37054	0	0	0	26181	24800	142906	27157	1024318	42958	109695	0	0	8222	588527	0	0
2024-06-27 20:23:32			0	37050	0	0	0	26189	24800	142890	26776	1024363	42969	109698	0	0	8222	588690	0	0
2024-06-27 20:24:32			0	37071	0	0	0	26192	24800	142902	26961	1024443	42958	109699	0	0	8223	587835	0	0
2024-06-27 20:25:32			0	37077	0	0	0	26194	24800	142798	27471	1024416	42969	109700	0	0	8223	587591	0	0
2024-06-27 20:26:32			0	37070	0	0	0	26199	24810	142894	27538	1024487	42981	109702	0	0	8223	587842	0	0
2024-06-27 20:27:32			0	37082	0	0	0	26233	24820	142830	27112	1024638	42982	109715	0	0	8223	587321	0	0
2024-06-27 20:28:32			0	37073	0	0	0	26246	24830	142830	27133	1024575	42984	109720	0	0	8222	587654	0	0
2024-06-27 20:29:32			0	37078	0	0	0	26241	24820	142714	26852	1024567	42960	109718	0	0	8223	587484	0	0
2024-06-27 20:30:32			0	37077	0	0	0	26228	24820	142778	27140	1024486	42972	109713	0	0	8223	587524	0	0
2024-06-27 20:31:32			0	37092	0	0	0	26223	24810	142838	27156	1024460	42958	109711	0	0	8224	586948	0	0
2024-06-27 20:32:32			0	37082	0	0	0	26218	24820	142726	27166	1024558	42982	109709	0	0	8223	587321	0	0
2024-06-27 20:33:32			0	37088	0	0	0	26205	24820	142674	27012	1024540	42960	109704	0	0	8224	587077	0	0
2024-06-27 20:34:32			0	37094	0	0	0	26210	24820	142738	27407	1024486	42950	109706	0	0	8224	586833	0	0
2024-06-27 20:35:32			0	37089	0	0	0	26207	24810	142834	27395	1024469	42959	109705	0	0	8224	587070	0	0
2024-06-27 20:36:32			0	37099	0	0	0	26199	24820	142678	27261	1024451	42959	109702	0	0	8224	586630	0	0
2024-06-27 20:37:32			0	37088	0	0	0	26199	24810	142690	27114	1024407	42970	109702	0	0	8224	587110	0	0
2024-06-27 20:38:32			0	37100	0	0	0	26207	24810	142782	27263	1024487	42981	109705	0	0	8224	586623	0	0
2024-06-27 20:39:32			0	37122	0	0	0	26202	24810	142678	27460	1024407	42958	109703	0	0	8225	585729	0	0
2024-06-27 20:40:32			0	37114	0	0	0	26218	24810	142682	26948	1024496	42959	109709	0	0	8225	586054	0	0
2024-06-27 20:41:32			0	37102	0	0	0	26212	24810	142722	27267	1024514	42970	109707	0	0	8224	586541	0	0
2024-06-27 20:42:32			0	37105	0	0	0	26212	24820	142706	27111	1024531	42982	109707	0	0	8224	586386	0	0
2024-06-27 20:43:32			0	37087	0	0	0	26223	24830	142710	26838	1024602	42984	109711	0	0	8223	587084	0	0
2024-06-27 20:44:32			0	37085	0	0	0	26223	24830	142702	27159	1024584	42984	109711	0	0	8223	587166	0	0
2024-06-27 20:45:32			0	37091	0	0	0	26238	24830	142714	26979	1024656	42995	109717	0	0	8223	586922	0	0
2024-06-27 20:46:32			0	37085	0	0	0	26262	24870	142746	27241	1024885	42999	109726	0	0	8223	587033	0	0
2024-06-27 20:47:32			0	37079	0	0	0	26316	24880	142710	27367	1025152	43010	109747	0	0	8222	587243	0	0
2024-06-27 20:48:32			0	37064	0	0	0	26384	24920	142714	27227	1025347	43014	109773	0	0	8220	587720	0	0
2024-06-27 20:49:32			0	37076	0	0	0	26410	24950	142682	27095	1025390	43016	109783	0	0	8220	587132	0	0
2024-06-27 20:50:32			0	37054	0	0	0	26420	24960	142734	27092	1025577	42997	109787	0	0	8219	587994	0	0
2024-06-27 20:51:32			0	37062	0	0	0	26457	24980	142770	27196	1025611	43009	109801	0	0	8219	587602	0	0
2024-06-27 20:52:32			0	37057	0	0	0	26483	25010	142778	27220	1025744	43011	109811	0	0	8218	587705	0	0
2024-06-27 20:53:32			0	37064	0	0	0	26464	25020	142714	27033	1025654	42980	109804	0	0	8219	587387	0	0
2024-06-27 20:54:32			0	37045	0	0	0	26467	25030	142870	27197	1025698	42981	109805	0	0	8218	588126	0	0
2024-06-27 20:55:32			0	37047	0	0	0	26480	25030	142718	27241	1025743	42981	109810	0	0	8218	588045	0	0
2024-06-27 20:56:32			0	37031	0	0	0	26483	25050	142834	27552	1025858	43004	109811	0	0	8217	588629	0	0
2024-06-27 20:57:32			0	37035	0	0	0	26503	25070	142802	27180	1025920	43017	109819	0	0	8217	588400	0	0
2024-06-27 20:58:32			0	37034	0	0	0	26524	25090	142694	27441	1026008	43008	109827	0	0	8217	588374	0	0
2024-06-27 20:59:32			0	37027	0	0	0	26532	25090	142682	27244	1026070	42998	109830	0	0	8216	588659	0	0
2024-06-27 21:00:32			0	37035	0	0	0	26548	25110	142630	27196	1026132	43000	109836	0	0	8216	588266	0	0
2024-06-27 21:01:32			0	37021	0	0	0	26574	25120	142750	27088	1026194	43011	109846	0	0	8215	588803	0	0
2024-06-27 21:02:32			0	37002	0	0	0	26605	25130	142786	27237	1026407	43024	109858	0	0	8214	589543	0	0
2024-06-27 21:03:32			0	37002	0	0	0	26651	25160	142718	27211	1026504	43026	109876	0	0	8213	589443	0	0
2024-06-27 21:04:32			0	36986	0	0	0	26680	25170	142802	26845	1026530	43028	109887	0	0	8212	590061	0	0
2024-06-27 21:05:32			0	36995	0	0	0	26711	25210	142826	27104	1026698	43030	109899	0	0	8212	589561	0	0
2024-06-27 21:06:32			0	36970	0	0	0	26748	25230	142822	26864	1026778	43032	109913	0	0	8210	590513	0	0
2024-06-27 21:07:32			0	36983	0	0	0	26761	25230	142766	26772	1026867	43022	109918	0	0	8211	589982	0	0
2024-06-27 21:08:32			0	36993	0	0	0	26771	25270	142798	26871	1026963	43026	109922	0	0	8211	589441	0	0
2024-06-27 21:09:32			0	36984	0	0	0	26789	25280	142786	26935	1027025	43048	109929	0	0	8210	589774	0	0
2024-06-27 21:10:32			0	36973	0	0	0	26815	25290	142798	26842	1027078	43049	109939	0	0	8209	590189	0	0
2024-06-27 21:11:32			0	36989	0	0	0	26825	25320	142782	26925	1027122	43041	109943	0	0	8210	589437	0	0
2024-06-27 21:12:32			0	37001	0	0	0	26818	25310	142758	26882	1027113	43041	109940	0	0	8211	588982	0	0
2024-06-27 21:13:32			0	36974	0	0	0	26812	25330	142818	26974	1027193	43031	109938	0	0	8210	590014	0	0
2024-06-27 21:14:32			0	36963	0	0	0	26818	25320	142802	27045	1027184	43019	109940	0	0	8209	590496	0	0
2024-06-27 21:15:32			0	36944	0	0	0	26815	25340	142978	27121	1027156	43021	109939	0	0	8208	591204	0	0
2024-06-27 21:16:32			0	36908	0	0	0	26812	25340	143030	27345	1027210	43032	109938	0	0	8206	592674	0	0
2024-06-27 21:17:32			0	36860	0	0	0	26802	25340	143146	27034	1027183	43009	109934	0	0	8204	594638	0	0
2024-06-27 21:18:32			0	36837	0	0	0	26797	25340	143230	26896	1027129	43043	109932	0	0	8203	595581	0	0
2024-06-27 21:19:32			0	36791	0	0	0	26779	25340	143362	27123	1027049	43032	109925	0	0	8201	597469	0	0
2024-06-27 21:20:32			0	36749	0	0	0	26763	25330	143554	27171	1027067	43020	109919	0	0	8199	599231	0	0
2024-06-27 21:21:32			0	36711	0	0	0	26753	25340	143726	27374	1027022	43009	109915	0	0	8197	600763	0	0
2024-06-27 21:22:32			0	36652	0	0	0	26748	25330	143822	27043	1027059	43020	109913	0	0	8194	603235	0	0
2024-06-27 21:23:32			0	36646	0	0	0	26737	25330	143918	27289	1027005	43020	109909	0	0	8194	603483	0	0
2024-06-27 21:24:32			0	36607	0	0	0	26724	25330	144098	27220	1027005	43031	109904	0	0	8192	605098	0	0
2024-06-27 21:25:32			0	36595	0	0	0	26732	25330	144177	27190	1026951	43031	109907	0	0	8191	605596	0	0
2024-06-27 21:26:32			0	36564	0	0	0	26729	25330	144249	27223	1027014	43042	109906	0	0	8190	606883	0	0
2024-06-27 21:27:32			0	36556	0	0	0	26735	25330	144309	26828	1027059	43031	109908	0	0	8189	607215	0	0
2024-06-27 21:28:32			0	36529	0	0	0	26742	25340	144369	27105	1027129	43032	109911	0	0	8188	608303	0	0
2024-06-27 21:29:32			0	36526	0	0	0	26753	25330	144401	26726	1027148	43031	109915	0	0	8187	608462	0	0
2024-06-27 21:30:32			0	36495	0	0	0	26766	25350	144461	26857	1027209	43033	109920	0	0	8185	609684	0	0
2024-06-27 21:31:32			0	36511	0	0	0	26768	25340	144517	27000	1027138	43043	109921	0	0	8186	609052	0	0
2024-06-27 21:32:32			0	36509	0	0	0	26763	25360	144453	27180	1027191	43044	109919	0	0	8186	609066	0	0
2024-06-27 21:33:32			0	36510	0	0	0	26758	25370	144457	27197	1027235	43035	109917	0	0	8186	608990	0	0
2024-06-27 21:34:32			0	36515	0	0	0	26766	25370	144469	27419	1027324	43035	109920	0	0	8187	608782	0	0
2024-06-27 21:35:32			0	36507	0	0	0	26771	25370	144485	27079	1027244	43035	109922	0	0	8186	609115	0	0
2024-06-27 21:36:32			0	36516	0	0	0	26776	25380	144457	27026	1027315	43025	109924	0	0	8187	608706	0	0
2024-06-27 21:37:32			0	36521	0	0	0	26789	25380	144393	27088	1027252	43046	109929	0	0	8187	608498	0	0
2024-06-27 21:38:32			0	36530	0	0	0	26792	25380	144349	27093	1027279	43046	109930	0	0	8187	608123	0	0
2024-06-27 21:39:32			0	36550	0	0	0	26781	25380	144257	27053	1027279	43046	109926	0	0	8188	607292	0	0
2024-06-27 21:40:32			0	36524	0	0	0	26781	25380	144281	27319	1027252	43036	109926	0	0	8187	608373	0	0
2024-06-27 21:41:32			0	36541	0	0	0	26761	25380	144441	27294	1027199	43046	109918	0	0	8188	607666	0	0
2024-06-27 21:42:32			0	36545	0	0	0	26750	25380	144325	27242	1027199	43046	109914	0	0	8188	607500	0	0
2024-06-27 21:43:32			0	36553	0	0	0	26724	25370	144325	27208	1027136	43035	109904	0	0	8189	607202	0	0
2024-06-27 21:44:32			0	36523	0	0	0	26680	25360	144297	27130	1027057	43034	109887	0	0	8188	608484	0	0
2024-06-27 21:45:32			0	36566	0	0	0	26659	25360	144285	27034	1027030	43023	109879	0	0	8191	606696	0	0
2024-06-27 21:46:32			0	36557	0	0	0	26667	25350	144197	26968	1027129	43055	109882	0	0	8190	607104	0	0
2024-06-27 21:47:32			0	36575	0	0	0	26680	25360	144257	27194	1027164	43056	109887	0	0	8191	606322	0	0
2024-06-27 21:48:32			0	36568	0	0	0	26696	25360	144217	27260	1027226	43035	109893	0	0	8191	606613	0	0
2024-06-27 21:49:32			0	36558	0	0	0	26714	25370	144241	27114	1027270	43045	109900	0	0	8190	606994	0	0
2024-06-27 21:50:32			0	36563	0	0	0	26735	25370	144241	27211	1027297	43024	109908	0	0	8190	606786	0	0
2024-06-27 21:51:32			0	36563	0	0	0	26737	25390	144301	27272	1027323	43047	109909	0	0	8190	606717	0	0
2024-06-27 21:52:32			0	36539	0	0	0	26745	25380	144237	26809	1027341	43047	109912	0	0	8188	607749	0	0
2024-06-27 21:53:32			0	36549	0	0	0	26748	25380	144389	27225	1027306	43025	109913	0	0	8189	607333	0	0
2024-06-27 21:54:32			0	36535	0	0	0	26729	25370	144401	27105	1027190	43024	109906	0	0	8188	607950	0	0
2024-06-27 21:55:32			0	36535	0	0	0	26711	25380	144405	27142	1027118	43025	109899	0	0	8189	607915	0	0
2024-06-27 21:56:32			0	36553	0	0	0	26685	25350	144385	26883	1027021	43022	109889	0	0	8190	607271	0	0
2024-06-27 21:57:32			0	36564	0	0	0	26664	25350	144305	27208	1026914	43010	109881	0	0	8191	606814	0	0
2024-06-27 21:58:32			0	36573	0	0	0	26620	25330	144165	27355	1026737	42998	109864	0	0	8192	606509	0	0
2024-06-27 21:59:32			0	36599	0	0	0	26563	25290	144158	27185	1026408	42960	109842	0	0	8194	605567	0	0
2024-06-27 22:00:32			0	36630	0	0	0	26509	25260	144142	27137	1026115	42958	109821	0	0	8196	604385	0	0
2024-06-27 22:01:32			0	36655	0	0	0	26451	25220	144014	27313	1025966	42955	109799	0	0	8199	603488	0	0
2024-06-27 22:02:32			0	36670	0	0	0	26399	25180	143878	27107	1025664	42940	109779	0	0	8200	603004	0	0
2024-06-27 22:03:32			0	36701	0	0	0	26366	25130	143790	27176	1025497	42947	109766	0	0	8202	601893	0	0
2024-06-27 22:04:32			0	36707	0	0	0	26342	25100	143826	26986	1025463	42976	109757	0	0	8203	601748	0	0
2024-06-27 22:05:32			0	36747	0	0	0	26311	25080	143794	27183	1025330	42974	109745	0	0	8205	600165	0	0
2024-06-27 22:06:32			0	36746	0	0	0	26301	25050	143710	27251	1025251	42960	109741	0	0	8205	600308	0	0
2024-06-27 22:07:32			0	36768	0	0	0	26285	25040	143690	27130	1025198	42981	109735	0	0	8207	599435	0	0
2024-06-27 22:08:32			0	36771	0	0	0	26280	25020	143774	27216	1025333	43001	109733	0	0	8207	599379	0	0
2024-06-27 22:09:32			0	36796	0	0	0	26322	25040	143622	27215	1025600	43025	109749	0	0	8207	598282	0	0
2024-06-27 22:10:32			0	36782	0	0	0	26371	25060	143566	26918	1025795	43038	109768	0	0	8206	598790	0	0
2024-06-27 22:11:32			0	36786	0	0	0	26394	25080	143630	27332	1025884	43006	109777	0	0	8206	598558	0	0
2024-06-27 22:12:32			0	36766	0	0	0	26415	25080	143622	27185	1025919	43018	109785	0	0	8204	599382	0	0
2024-06-27 22:13:32			0	36759	0	0	0	26433	25090	143634	27031	1026043	43032	109792	0	0	8204	599636	0	0
2024-06-27 22:14:32			0	36752	0	0	0	26454	25110	143634	26691	1026096	43010	109800	0	0	8203	599856	0	0
2024-06-27 22:15:32			0	36767	0	0	0	26467	25120	143682	27135	1026069	43011	109805	0	0	8204	599204	0	0
2024-06-27 22:16:32			0	36755	0	0	0	26462	25120	143770	26868	1025988	43000	109803	0	0	8203	599699	0	0
2024-06-27 22:17:32			0	36752	0	0	0	26472	25130	143766	27142	1026131	42990	109807	0	0	8203	599788	0	0
2024-06-27 22:18:32			0	36745	0	0	0	26483	25130	143730	26790	1026184	43012	109811	0	0	8202	600077	0	0
2024-06-27 22:19:32			0	36747	0	0	0	26527	25150	143694	27371	1026299	43025	109828	0	0	8202	599926	0	0
2024-06-27 22:20:32			0	36745	0	0	0	26558	25150	143770	27066	1026308	43014	109840	0	0	8201	600009	0	0
2024-06-27 22:21:32			0	36735	0	0	0	26563	25160	143690	27326	1026236	43014	109842	0	0	8201	600387	0	0
2024-06-27 22:22:32			0	36735	0	0	0	26548	25160	143726	27031	1026299	43015	109836	0	0	8201	600387	0	0
2024-06-27 22:23:32			0	36732	0	0	0	26548	25170	143770	27249	1026280	43004	109836	0	0	8201	600477	0	0
2024-06-27 22:24:32			0	36733	0	0	0	26540	25160	143814	27303	1026245	43004	109833	0	0	8201	600470	0	0
2024-06-27 22:25:32			0	36717	0	0	0	26532	25160	143846	27254	1026156	43003	109830	0	0	8200	601130	0	0
2024-06-27 22:26:32			0	36738	0	0	0	26519	25150	143786	27357	1026058	43002	109825	0	0	8202	600298	0	0
2024-06-27 22:27:32			0	36747	0	0	0	26501	25140	143738	26955	1026050	43001	109818	0	0	8202	599960	0	0
2024-06-27 22:28:32			0	36744	0	0	0	26490	25140	143762	27069	1026023	43001	109814	0	0	8202	600084	0	0
2024-06-27 22:29:32			0	36766	0	0	0	26483	25130	143782	27010	1025952	43001	109811	0	0	8203	599212	0	0
2024-06-27 22:30:32			0	36745	0	0	0	26459	25120	143686	27171	1025881	43000	109802	0	0	8203	600111	0	0
2024-06-27 22:31:32			0	36742	0	0	0	26451	25110	143674	27078	1025864	42978	109799	0	0	8203	600269	0	0
2024-06-27 22:32:32			0	36751	0	0	0	26446	25110	143790	27244	1025855	42999	109797	0	0	8203	599898	0	0
2024-06-27 22:33:32			0	36744	0	0	0	26451	25110	143754	27053	1025917	43000	109799	0	0	8203	600186	0	0
2024-06-27 22:34:32			0	36740	0	0	0	26444	25100	143770	27041	1025900	42998	109796	0	0	8203	600385	0	0
2024-06-27 22:35:32			0	36755	0	0	0	26462	25110	143834	27017	1025909	43010	109803	0	0	8203	599733	0	0
2024-06-27 22:36:32			0	36745	0	0	0	26464	25110	143810	27154	1025891	43000	109804	0	0	8203	600145	0	0
2024-06-27 22:37:32			0	36735	0	0	0	26457	25110	143790	27429	1025855	42988	109801	0	0	8202	600558	0	0
2024-06-27 22:38:32			0	36726	0	0	0	26467	25100	143826	26833	1025945	43009	109805	0	0	8202	600963	0	0
2024-06-27 22:39:32			0	36725	0	0	0	26509	25110	143834	27358	1026096	43010	109821	0	0	8201	600970	0	0
2024-06-27 22:40:32			0	36716	0	0	0	26542	25120	143882	27279	1026149	43022	109834	0	0	8200	601308	0	0
2024-06-27 22:41:32			0	36714	0	0	0	26563	25130	143878	26830	1026273	43013	109842	0	0	8199	601356	0	0
2024-06-27 22:42:32			0	36699	0	0	0	26584	25130	143858	27336	1026247	43035	109850	0	0	8198	601976	0	0
2024-06-27 22:43:32			0	36685	0	0	0	26581	25140	144074	27227	1026210	43013	109849	0	0	8198	602520	0	0
2024-06-27 22:44:32			0	36664	0	0	0	26592	25150	144026	26837	1026228	43026	109853	0	0	8196	603355	0	0
2024-06-27 22:45:32			0	36656	0	0	0	26584	25150	144042	27112	1026192	43013	109850	0	0	8196	603686	0	0
2024-06-27 22:46:32			0	36648	0	0	0	26589	25160	144154	27254	1026263	43026	109852	0	0	8196	603983	0	0
2024-06-27 22:47:32			0	36656	0	0	0	26592	25150	144194	26883	1026228	43014	109853	0	0	8196	603686	0	0
2024-06-27 22:48:32			0	36654	0	0	0	26597	25160	144226	26882	1026272	43038	109855	0	0	8196	603734	0	0
2024-06-27 22:49:32			0	36650	0	0	0	26597	25150	144154	26791	1026281	43014	109855	0	0	8196	603934	0	0
2024-06-27 22:50:32			0	36631	0	0	0	26599	25160	144178	27078	1026290	43014	109856	0	0	8195	604687	0	0
2024-06-27 22:51:32			0	36641	0	0	0	26592	25170	144258	27131	1026280	43015	109853	0	0	8195	604239	0	0
2024-06-27 22:52:32			0	36621	0	0	0	26581	25160	144314	27256	1026325	43027	109849	0	0	8194	605102	0	0
2024-06-27 22:53:32			0	36615	0	0	0	26586	25170	144278	27126	1026254	43027	109851	0	0	8194	605316	0	0
2024-06-27 22:54:32			0	36607	0	0	0	26581	25160	144310	26838	1026218	43015	109849	0	0	8194	605683	0	0
2024-06-27 22:55:32			0	36614	0	0	0	26579	25160	144282	27107	1026218	43004	109848	0	0	8194	605392	0	0
2024-06-27 22:56:32			0	36623	0	0	0	26568	25170	144358	27209	1026227	43015	109844	0	0	8195	604984	0	0
2024-06-27 22:57:32			0	36599	0	0	0	26555	25160	144354	27416	1026129	43014	109839	0	0	8194	606015	0	0
2024-06-27 22:58:32			0	36599	0	0	0	26548	25150	144450	27107	1026112	43002	109836	0	0	8194	606049	0	0
2024-06-27 22:59:32			0	36597	0	0	0	26537	25140	144358	26993	1026041	43001	109832	0	0	8194	606166	0	0
2024-06-27 23:00:32			0	36579	0	0	0	26540	25140	144417	26991	1026041	43024	109833	0	0	8193	606914	0	0
2024-06-27 23:01:32			0	36576	0	0	0	26529	25140	144397	26944	1026095	43013	109829	0	0	8193	607039	0	0
2024-06-27 23:02:32			0	36558	0	0	0	26516	25130	144553	27074	1026086	43024	109824	0	0	8192	607822	0	0
2024-06-27 23:03:32			0	36566	0	0	0	26490	25140	144545	26996	1025916	42991	109814	0	0	8193	607454	0	0
2024-06-27 23:04:32			0	36560	0	0	0	26464	25120	144477	26955	1025819	42989	109804	0	0	8193	607773	0	0
2024-06-27 23:05:32			0	36558	0	0	0	26428	25100	144565	27102	1025704	42976	109790	0	0	8193	607925	0	0
2024-06-27 23:06:32			0	36550	0	0	0	26392	25070	144557	26876	1025554	42973	109776	0	0	8193	608362	0	0
2024-06-27 23:07:32			0	36552	0	0	0	26361	25060	144577	27053	1025367	42960	109764	0	0	8194	608313	0	0
2024-06-27 23:08:32			0	36543	0	0	0	26329	25040	144653	27173	1025279	42981	109752	0	0	8194	608756	0	0
2024-06-27 23:09:32			0	36538	0	0	0	26311	25010	144749	26923	1025173	42967	109745	0	0	8194	609068	0	0
2024-06-27 23:10:32			0	36535	0	0	0	26293	24990	144657	27045	1025174	42965	109738	0	0	8194	609262	0	0
2024-06-27 23:11:32			0	36522	0	0	0	26270	24980	144717	27149	1025067	42975	109729	0	0	8194	609839	0	0
2024-06-27 23:12:32			0	36533	0	0	0	26259	24960	144721	27062	1024979	42973	109725	0	0	8194	609449	0	0
2024-06-27 23:13:32			0	36508	0	0	0	26254	24950	144781	27000	1024971	42984	109723	0	0	8193	610527	0	0
2024-06-27 23:14:32			0	36503	0	0	0	26244	24940	144773	27161	1024891	42983	109719	0	0	8193	610770	0	0
2024-06-27 23:15:32			0	36513	0	0	0	26254	24920	144877	27083	1024892	42969	109723	0	0	8193	610422	0	0
2024-06-27 23:16:32			0	36503	0	0	0	26231	24910	144793	27170	1024821	42980	109714	0	0	8193	610874	0	0
2024-06-27 23:17:32			0	36502	0	0	0	26231	24890	144925	26897	1024759	42978	109714	0	0	8193	610985	0	0
2024-06-27 23:18:32			0	36498	0	0	0	26212	24900	144933	27173	1024670	42968	109707	0	0	8193	611117	0	0
2024-06-27 23:19:32			0	36493	0	0	0	26205	24870	144953	27128	1024653	42988	109704	0	0	8193	611430	0	0
2024-06-27 23:20:32			0	36484	0	0	0	26194	24860	145041	27294	1024636	42975	109700	0	0	8192	611841	0	0
2024-06-27 23:21:32			0	36464	0	0	0	26199	24850	145085	27097	1024618	42986	109702	0	0	8191	612712	0	0
2024-06-27 23:22:32			0	36485	0	0	0	26202	24840	145113	26876	1024486	42972	109703	0	0	8192	611869	0	0
2024-06-27 23:23:32			0	36461	0	0	0	26197	24830	145125	27005	1024504	42984	109701	0	0	8191	612907	0	0
2024-06-27 23:24:32			0	36455	0	0	0	26192	24830	145221	26859	1024450	42995	109699	0	0	8191	613158	0	0
2024-06-27 23:25:32			0	36457	0	0	0	26184	24830	145137	26960	1024495	42984	109696	0	0	8191	613075	0	0
2024-06-27 23:26:32			0	36454	0	0	0	26181	24820	145189	27005	1024478	42971	109695	0	0	8191	613235	0	0
2024-06-27 23:27:32			0	36459	0	0	0	26181	24810	145237	26967	1024442	42993	109695	0	0	8191	613060	0	0
2024-06-27 23:28:32			0	36460	0	0	0	26176	24810	145309	26906	1024407	42992	109693	0	0	8191	613019	0	0
2024-06-27 23:29:32			0	36435	0	0	0	26176	24810	145201	27020	1024416	42982	109693	0	0	8190	614066	0	0
2024-06-27 23:30:32			0	36452	0	0	0	26179	24800	145197	27215	1024416	42969	109694	0	0	8191	613388	0	0
2024-06-27 23:31:32			0	36460	0	0	0	26186	24810	145305	27079	1024434	42981	109697	0	0	8191	613019	0	0
2024-06-27 23:32:32			0	36430	0	0	0	26189	24800	145277	26804	1024416	42980	109698	0	0	8189	614310	0	0
2024-06-27 23:33:32			0	36438	0	0	0	26181	24800	145357	26873	1024389	42958	109695	0	0	8190	613975	0	0
2024-06-27 23:34:32			0	36442	0	0	0	26192	24790	145233	27182	1024407	42979	109699	0	0	8190	613842	0	0
2024-06-27 23:35:32			0	36428	0	0	0	26186	24800	145321	26970	1024470	42980	109697	0	0	8189	614394	0	0
2024-06-27 23:36:32			0	36417	0	0	0	26184	24790	145325	27098	1024381	42979	109696	0	0	8189	614890	0	0
2024-06-27 23:37:32			0	36404	0	0	0	26174	24780	145361	27258	1024381	42967	109692	0	0	8188	615471	0	0
2024-06-27 23:38:32			0	36401	0	0	0	26176	24790	145469	27052	1024354	42979	109693	0	0	8188	615562	0	0
2024-06-27 23:39:32			0	36399	0	0	0	26181	24780	145453	27140	1024355	42967	109695	0	0	8188	615681	0	0
2024-06-27 23:40:32			0	36394	0	0	0	26168	24780	145489	26930	1024363	42968	109690	0	0	8188	615891	0	0
2024-06-27 23:41:32			0	36369	0	0	0	26161	24770	145537	27121	1024319	42966	109687	0	0	8187	616976	0	0
2024-06-27 23:42:32			0	36370	0	0	0	26168	24760	145517	27133	1024275	42977	109690	0	0	8186	616969	0	0
2024-06-27 23:43:32			0	36367	0	0	0	26161	24770	145597	26977	1024204	42966	109687	0	0	8186	617060	0	0
2024-06-27 23:44:32			0	36351	0	0	0	26155	24760	145649	26918	1024275	42977	109685	0	0	8186	617769	0	0
2024-06-27 23:45:32			0	36365	0	0	0	26163	24770	145681	26911	1024284	42989	109688	0	0	8186	617145	0	0
2024-06-27 23:46:32			0	36343	0	0	0	26150	24760	145669	27116	1024222	42977	109683	0	0	8185	618106	0	0
2024-06-27 23:47:32			0	36356	0	0	0	26153	24760	145689	27010	1024302	42966	109684	0	0	8186	617558	0	0
2024-06-27 23:48:32			0	36318	0	0	0	26153	24750	145817	27189	1024285	42975	109684	0	0	8184	619194	0	0
2024-06-27 23:49:32			0	36302	0	0	0	26163	24760	145809	27313	1024275	42977	109688	0	0	8183	619834	0	0
2024-06-27 23:50:32			0	36292	0	0	0	26163	24760	145889	27294	1024320	42976	109688	0	0	8182	620256	0	0
2024-06-27 23:51:32			0	36281	0	0	0	26166	24760	145945	27007	1024275	42989	109689	0	0	8182	620720	0	0
2024-06-27 23:52:32			0	36282	0	0	0	26163	24760	146021	27168	1024267	42976	109688	0	0	8182	620678	0	0
2024-06-27 23:53:32			0	36263	0	0	0	26166	24760	146041	27015	1024329	42989	109689	0	0	8181	621481	0	0
2024-06-27 23:54:32			0	36252	0	0	0	26168	24770	146109	26922	1024311	42977	109690	0	0	8180	621911	0	0
2024-06-27 23:55:32			0	36242	0	0	0	26171	24760	146145	27118	1024267	42988	109691	0	0	8180	622369	0	0
2024-06-27 23:56:32			0	36237	0	0	0	26174	24770	146197	27435	1024311	42989	109692	0	0	8179	622545	0	0
2024-06-27 23:57:32			0	36214	0	0	0	26174	24760	146209	26863	1024329	42989	109692	0	0	8178	623554	0	0
2024-06-27 23:58:32			0	36218	0	0	0	26174	24760	146257	26998	1024267	42976	109692	0	0	8178	623385	0	0
2024-06-27 23:59:32			0	36183	0	0	0	26174	24760	146273	26953	1024329	42989	109692	0	0	8176	624869	0	0
2024-06-28 00:00:32			0	36180	0	0	0	26176	24750	146321	27218	1024303	42975	109693	0	0	8176	625032	0	0
2024-06-28 00:01:32			0	36168	0	0	0	26176	24760	146365	27055	1024320	42976	109693	0	0	8176	625506	0	0
2024-06-28 00:02:32			0	36162	0	0	0	26181	24760	146437	27036	1024382	42977	109695	0	0	8175	625760	0	0
2024-06-28 00:03:32			0	36171	0	0	0	26184	24770	146449	27320	1024311	42977	109696	0	0	8176	625343	0	0
2024-06-28 00:04:32			0	36144	0	0	0	26181	24760	146501	26916	1024302	42977	109695	0	0	8174	626525	0	0
2024-06-28 00:05:32			0	36136	0	0	0	26179	24770	146541	27267	1024284	43000	109694	0	0	8174	626830	0	0
2024-06-28 00:06:32			0	36144	0	0	0	26181	24760	146517	27239	1024329	42977	109695	0	0	8174	626525	0	0
2024-06-28 00:07:32			0	36105	0	0	0	26174	24770	146653	27296	1024337	42977	109692	0	0	8172	628149	0	0
2024-06-28 00:08:32			0	36137	0	0	0	26163	24760	146661	27251	1024329	42966	109688	0	0	8174	626823	0	0
2024-06-28 00:09:32			0	36089	0	0	0	26168	24760	146701	27052	1024240	42976	109690	0	0	8172	628866	0	0
2024-06-28 00:10:32			0	36102	0	0	0	26171	24770	146725	27175	1024311	42966	109691	0	0	8172	628277	0	0
2024-06-28 00:11:32			0	36091	0	0	0	26166	24760	146733	27043	1024302	42977	109689	0	0	8172	628781	0	0
2024-06-28 00:12:32			0	36064	0	0	0	26166	24760	146777	27209	1024293	42976	109689	0	0	8170	629933	0	0
2024-06-28 00:13:32			0	36053	0	0	0	26166	24750	146869	26729	1024231	42975	109689	0	0	8170	630438	0	0
2024-06-28 00:14:32			0	36056	0	0	0	26163	24770	146881	27100	1024284	42966	109688	0	0	8170	630238	0	0
2024-06-28 00:15:32			0	36058	0	0	0	26166	24770	146909	27104	1024257	42977	109689	0	0	8170	630153	0	0
2024-06-28 00:16:32			0	36039	0	0	0	26161	24760	146981	27223	1024293	42976	109687	0	0	8169	631000	0	0
2024-06-28 00:17:32			0	36027	0	0	0	26171	24750	146981	27263	1024311	42987	109691	0	0	8168	631549	0	0
2024-06-28 00:18:32			0	36022	0	0	0	26155	24760	147021	27138	1024267	42976	109685	0	0	8168	631727	0	0
2024-06-28 00:19:32			0	36032	0	0	0	26174	24760	147061	27126	1024302	42977	109692	0	0	8168	631299	0	0
2024-06-28 00:20:32			0	36005	0	0	0	26168	24760	147145	27088	1024275	42989	109690	0	0	8167	632454	0	0
2024-06-28 00:21:32			0	35997	0	0	0	26168	24760	147137	26918	1024248	42989	109690	0	0	8167	632796	0	0
2024-06-28 00:22:32			0	35979	0	0	0	26161	24750	147117	27131	1024249	42964	109687	0	0	8166	633603	0	0
2024-06-28 00:23:32			0	35988	0	0	0	26166	24760	147073	27157	1024248	43000	109689	0	0	8166	633182	0	0
2024-06-28 00:24:32			0	35972	0	0	0	26163	24760	147189	27379	1024240	42988	109688	0	0	8165	633867	0	0
2024-06-28 00:25:32			0	35981	0	0	0	26158	24750	147257	27053	1024231	42987	109686	0	0	8166	633518	0	0
2024-06-28 00:26:32			0	35971	0	0	0	26158	24750	147285	27249	1024249	42975	109686	0	0	8165	633946	0	0
2024-06-28 00:27:32			0	35967	0	0	0	26158	24750	147221	27180	1024204	42987	109686	0	0	8165	634118	0	0
2024-06-28 00:28:32			0	35962	0	0	0	26155	24760	147229	26979	1024240	42988	109685	0	0	8165	634296	0	0
2024-06-28 00:29:32			0	35953	0	0	0	26161	24750	147269	27057	1024231	42975	109687	0	0	8164	634718	0	0
2024-06-28 00:30:32			0	35948	0	0	0	26161	24750	147317	27371	1024249	42975	109687	0	0	8164	634932	0	0
2024-06-28 00:31:32			0	35942	0	0	0	26161	24750	147293	27168	1024249	42987	109687	0	0	8164	635190	0	0
2024-06-28 00:32:32			0	35939	0	0	0	26155	24750	147369	27293	1024223	42987	109685	0	0	8164	635319	0	0
2024-06-28 00:33:32			0	35921	0	0	0	26148	24750	147437	26993	1024196	42975	109682	0	0	8163	636092	0	0
2024-06-28 00:34:32			0	35919	0	0	0	26142	24750	147465	27358	1024223	42954	109680	0	0	8163	636178	0	0
2024-06-28 00:35:32			0	35908	0	0	0	26145	24740	147405	27062	1024134	42974	109681	0	0	8162	636687	0	0
2024-06-28 00:36:32			0	35926	0	0	0	26142	24740	147517	27284	1024178	42974	109680	0	0	8163	635913	0	0
2024-06-28 00:37:32			0	35893	0	0	0	26145	24740	147477	27092	1024134	42963	109681	0	0	8162	637332	0	0
2024-06-28 00:38:32			0	35929	0	0	0	26140	24730	147453	27121	1024143	42974	109679	0	0	8163	635820	0	0
2024-06-28 00:39:32			0	35913	0	0	0	26148	24730	147529	27213	1024197	42985	109682	0	0	8162	636508	0	0
2024-06-28 00:40:32			0	35910	0	0	0	26142	24740	147513	27402	1024187	42963	109680	0	0	8162	636601	0	0
2024-06-28 00:41:32			0	35898	0	0	0	26135	24730	147545	27452	1024170	42962	109677	0	0	8162	637153	0	0
2024-06-28 00:42:32			0	35898	0	0	0	26137	24740	147573	27301	1024160	42986	109678	0	0	8162	637117	0	0
2024-06-28 00:43:32			0	35887	0	0	0	26135	24730	147465	27597	1024170	42985	109677	0	0	8161	637626	0	0
2024-06-28 00:44:32			0	35885	0	0	0	26127	24730	147509	27341	1024170	42985	109674	0	0	8161	637713	0	0
2024-06-28 00:45:32			0	35894	0	0	0	26124	24730	147537	27156	1024090	42985	109673	0	0	8162	637325	0	0
2024-06-28 00:46:32			0	35868	0	0	0	26124	24720	147557	27149	1024153	42984	109673	0	0	8160	638481	0	0
2024-06-28 00:47:32			0	35860	0	0	0	26124	24730	147673	26951	1024027	42974	109673	0	0	8160	638789	0	0
2024-06-28 00:48:32			0	35863	0	0	0	26114	24720	147717	27170	1024037	42984	109669	0	0	8160	638696	0	0
2024-06-28 00:49:32			0	35863	0	0	0	26127	24720	147761	26739	1024064	42973	109674	0	0	8160	638696	0	0
2024-06-28 00:50:32			0	35870	0	0	0	26122	24720	147761	27244	1024045	42984	109672	0	0	8161	638395	0	0
2024-06-28 00:51:32			0	35865	0	0	0	26122	24720	147605	27043	1024144	42984	109672	0	0	8160	638610	0	0
2024-06-28 00:52:32			0	35865	0	0	0	26129	24720	147761	26961	1024126	42995	109675	0	0	8160	638610	0	0
2024-06-28 00:53:32			0	35847	0	0	0	26119	24720	147732	27152	1024117	42995	109671	0	0	8159	639386	0	0
2024-06-28 00:54:32			0	35850	0	0	0	26132	24720	147748	27092	1024126	42984	109676	0	0	8159	639257	0	0
2024-06-28 00:55:32			0	35850	0	0	0	26127	24730	147764	27102	1024108	42974	109674	0	0	8159	639221	0	0
2024-06-28 00:56:32			0	35833	0	0	0	26116	24720	147780	27022	1024197	42984	109670	0	0	8159	639990	0	0
2024-06-28 00:57:32			0	35828	0	0	0	26122	24730	147780	26899	1024054	42974	109672	0	0	8158	640170	0	0
2024-06-28 00:58:32			0	35823	0	0	0	26124	24720	147744	27332	1024090	42984	109673	0	0	8158	640422	0	0
2024-06-28 00:59:32			0	35826	0	0	0	26127	24720	147872	27417	1024126	42973	109674	0	0	8158	640292	0	0
2024-06-28 01:00:32			0	35827	0	0	0	26119	24720	147852	27218	1024099	42984	109671	0	0	8158	640249	0	0
2024-06-28 01:01:32			0	35833	0	0	0	26109	24720	147864	27222	1024064	42973	109667	0	0	8159	639990	0	0
2024-06-28 01:02:32			0	35814	0	0	0	26111	24720	147836	26908	1024099	42984	109668	0	0	8158	640811	0	0
2024-06-28 01:03:32			0	35823	0	0	0	26106	24700	147912	26731	1024029	42971	109666	0	0	8158	640494	0	0
2024-06-28 01:04:32			0	35822	0	0	0	26106	24700	147824	27277	1024064	42982	109666	0	0	8158	640538	0	0
2024-06-28 01:05:32			0	35819	0	0	0	26096	24710	147928	26897	1024028	42983	109662	0	0	8158	640631	0	0
2024-06-28 01:06:32			0	35824	0	0	0	26101	24700	147796	26880	1023984	42971	109664	0	0	8158	640451	0	0
2024-06-28 01:07:32			0	35811	0	0	0	26090	24700	147848	27057	1023957	42971	109660	0	0	8158	641013	0	0
2024-06-28 01:08:32			0	35815	0	0	0	26093	24700	147880	26693	1023949	42971	109661	0	0	8158	640840	0	0
2024-06-28 01:09:32			0	35818	0	0	0	26088	24690	147844	26939	1023994	42981	109659	0	0	8158	640747	0	0
2024-06-28 01:10:32			0	35800	0	0	0	26088	24690	147848	27038	1023940	42992	109659	0	0	8157	641525	0	0
2024-06-28 01:11:32			0	35808	0	0	0	26096	24700	147904	26786	1024056	42982	109662	0	0	8158	641143	0	0
2024-06-28 01:12:32			0	35802	0	0	0	26096	24690	147880	26779	1024020	42981	109662	0	0	8157	641438	0	0
2024-06-28 01:13:32			0	35830	0	0	0	26096	24690	147916	27008	1023967	42981	109662	0	0	8159	640228	0	0
2024-06-28 01:14:32			0	35819	0	0	0	26103	24690	147852	27150	1024047	42981	109665	0	0	8158	640703	0	0
2024-06-28 01:15:32			0	35815	0	0	0	26096	24700	147860	27265	1023976	42971	109662	0	0	8158	640840	0	0
2024-06-28 01:16:32			0	35806	0	0	0	26093	24690	147888	27232	1023994	42970	109661	0	0	8158	641265	0	0
2024-06-28 01:17:32			0	35816	0	0	0	26085	24700	147812	27313	1024029	42982	109658	0	0	8158	640797	0	0
2024-06-28 01:18:32			0	35793	0	0	0	26088	24690	147860	27060	1024020	42981	109659	0	0	8157	641827	0	0
2024-06-28 01:19:32			0	35811	0	0	0	26088	24710	147908	27149	1024020	42959	109659	0	0	8158	640977	0	0
2024-06-28 01:20:32			0	35809	0	0	0	26088	24690	147896	27301	1023931	42958	109659	0	0	8158	641136	0	0
2024-06-28 01:21:32			0	35804	0	0	0	26077	24680	148000	26994	1023941	42968	109655	0	0	8158	641388	0	0
2024-06-28 01:22:32			0	35819	0	0	0	26070	24690	147832	27194	1023931	42969	109652	0	0	8159	640703	0	0
2024-06-28 01:23:32			0	35812	0	0	0	26070	24680	147960	27265	1023869	42947	109652	0	0	8158	641042	0	0
2024-06-28 01:24:32			0	35812	0	0	0	26075	24680	147920	27237	1023869	42958	109654	0	0	8158	641042	0	0
2024-06-28 01:25:32			0	35788	0	0	0	26067	24680	147960	27135	1023807	42958	109651	0	0	8157	642080	0	0
2024-06-28 01:26:32			0	35785	0	0	0	26057	24680	147872	27263	1023807	42958	109647	0	0	8157	642210	0	0
2024-06-28 01:27:32			0	35795	0	0	0	26059	24670	147972	27325	1023736	42978	109648	0	0	8157	641814	0	0
2024-06-28 01:28:32			0	35799	0	0	0	26051	24660	147868	27336	1023808	42978	109645	0	0	8158	641677	0	0
2024-06-28 01:29:32			0	35781	0	0	0	26046	24650	147916	27048	1023790	42966	109643	0	0	8157	642492	0	0
2024-06-28 01:30:32			0	35798	0	0	0	26038	24650	147920	27305	1023737	42966	109640	0	0	8158	641756	0	0
2024-06-28 01:31:32			0	35786	0	0	0	26036	24650	147924	27043	1023728	42965	109639	0	0	8157	642276	0	0
2024-06-28 01:32:32			0	35804	0	0	0	26033	24650	148016	26979	1023675	42965	109638	0	0	8158	641497	0	0
2024-06-28 01:33:32			0	35809	0	0	0	26028	24640	147936	27306	1023666	42976	109636	0	0	8159	641317	0	0
2024-06-28 01:34:32			0	35778	0	0	0	26018	24640	147948	27137	1023631	42964	109632	0	0	8157	642658	0	0
2024-06-28 01:35:32			0	35789	0	0	0	26012	24640	147972	27339	1023684	42954	109630	0	0	8158	642182	0	0
2024-06-28 01:36:32			0	35793	0	0	0	26015	24630	148044	27261	1023613	42963	109631	0	0	8158	642045	0	0
2024-06-28 01:37:32			0	35805	0	0	0	26007	24620	147980	27300	1023605	42953	109628	0	0	8159	641563	0	0
2024-06-28 01:38:32			0	35784	0	0	0	26005	24620	148044	27104	1023578	42975	109627	0	0	8158	642471	0	0
2024-06-28 01:39:32			0	35778	0	0	0	25992	24620	147952	27012	1023543	42962	109622	0	0	8157	642731	0	0
2024-06-28 01:40:32			0	35796	0	0	0	25992	24600	147992	27166	1023499	42961	109622	0	0	8158	642024	0	0
2024-06-28 01:41:32			0	35779	0	0	0	25986	24600	148004	27076	1023499	42973	109620	0	0	8158	642760	0	0
2024-06-28 01:42:32			0	35761	0	0	0	25984	24590	148116	27286	1023508	42960	109619	0	0	8157	643576	0	0
2024-06-28 01:43:32			0	35782	0	0	0	25989	24600	148072	26920	1023490	42950	109621	0	0	8158	642630	0	0
2024-06-28 01:44:32			0	35778	0	0	0	25979	24600	148104	26922	1023517	42950	109617	0	0	8158	642804	0	0
2024-06-28 01:45:32			0	35773	0	0	0	25989	24600	148004	27298	1023517	42983	109621	0	0	8157	643020	0	0
2024-06-28 01:46:32			0	35764	0	0	0	25986	24590	148056	27048	1023508	42960	109620	0	0	8157	643447	0	0
2024-06-28 01:47:32			0	35763	0	0	0	25994	24590	148068	27156	1023535	42960	109623	0	0	8156	643490	0	0
2024-06-28 01:48:32			0	35761	0	0	0	25984	24590	148080	27229	1023508	42983	109619	0	0	8157	643576	0	0
2024-06-28 01:49:32			0	35754	0	0	0	25992	24600	148188	27291	1023463	42960	109622	0	0	8156	643844	0	0
2024-06-28 01:50:32			0	35760	0	0	0	25986	24590	148160	26736	1023508	42960	109620	0	0	8156	643620	0	0
2024-06-28 01:51:32			0	35772	0	0	0	25984	24600	148176	27112	1023570	42960	109619	0	0	8157	643064	0	0
2024-06-28 01:52:32			0	35755	0	0	0	25989	24590	148148	27022	1023562	42983	109621	0	0	8156	643837	0	0
2024-06-28 01:53:32			0	35756	0	0	0	25986	24590	148184	27078	1023553	42960	109620	0	0	8156	643793	0	0
2024-06-28 01:54:32			0	35742	0	0	0	25984	24590	148144	26955	1023473	42971	109619	0	0	8156	644400	0	0
2024-06-28 01:55:32			0	35739	0	0	0	25981	24590	148164	27215	1023446	42960	109618	0	0	8155	644531	0	0
2024-06-28 01:56:32			0	35748	0	0	0	25986	24580	148184	27124	1023482	42948	109620	0	0	8156	644177	0	0
2024-06-28 01:57:32			0	35752	0	0	0	25979	24590	148236	27393	1023473	42960	109617	0	0	8156	643967	0	0
2024-06-28 01:58:32			0	35749	0	0	0	25981	24580	148216	27348	1023437	42960	109618	0	0	8156	644133	0	0
2024-06-28 01:59:32			0	35741	0	0	0	25984	24580	148232	27388	1023491	42960	109619	0	0	8155	644480	0	0
2024-06-28 02:00:32			0	35735	0	0	0	25973	24570	148160	27362	1023473	42970	109615	0	0	8155	644777	0	0
2024-06-28 02:01:32			0	35734	0	0	0	25971	24580	148212	27450	1023429	42981	109614	0	0	8155	644784	0	0
2024-06-28 02:02:32			0	35744	0	0	0	25976	24580	148204	27334	1023429	42970	109616	0	0	8156	644350	0	0
2024-06-28 02:03:32			0	35735	0	0	0	25973	24580	148260	27144	1023455	42959	109615	0	0	8155	644741	0	0
2024-06-28 02:04:32			0	35741	0	0	0	25976	24580	148272	27301	1023491	42960	109616	0	0	8156	644480	0	0
2024-06-28 02:05:32			0	35726	0	0	0	25986	24580	148292	27036	1023437	42971	109620	0	0	8155	645131	0	0
2024-06-28 02:06:32			0	35735	0	0	0	25981	24580	148244	27460	1023482	42970	109618	0	0	8155	644741	0	0
2024-06-28 02:07:32			0	35747	0	0	0	25989	24580	148304	27422	1023482	42959	109621	0	0	8156	644220	0	0
2024-06-28 02:08:32			0	35739	0	0	0	25984	24590	148252	27163	1023473	42960	109619	0	0	8155	644531	0	0
2024-06-28 02:09:32			0	35741	0	0	0	25989	24580	148344	27270	1023518	42960	109621	0	0	8155	644480	0	0
2024-06-28 02:10:32			0	35737	0	0	0	25984	24570	148348	27116	1023420	42959	109619	0	0	8155	644690	0	0
2024-06-28 02:11:32			0	35724	0	0	0	25981	24590	148284	27208	1023419	42960	109618	0	0	8155	645182	0	0
2024-06-28 02:12:32			0	35733	0	0	0	25997	24580	148296	27376	1023536	42948	109624	0	0	8155	644827	0	0
2024-06-28 02:13:32			0	35735	0	0	0	25994	24580	148300	27402	1023518	42960	109623	0	0	8155	644741	0	0
2024-06-28 02:14:32			0	35730	0	0	0	26002	24580	148316	27215	1023544	42960	109626	0	0	8155	644958	0	0
2024-06-28 02:15:32			0	35724	0	0	0	26012	24600	148228	27331	1023597	42960	109630	0	0	8154	645145	0	0
2024-06-28 02:16:32			0	35738	0	0	0	26015	24600	148300	27300	1023543	42972	109631	0	0	8155	644538	0	0
2024-06-28 02:17:32			0	35741	0	0	0	26018	24600	148212	27424	1023632	42973	109632	0	0	8155	644407	0	0
2024-06-28 02:18:32			0	35718	0	0	0	26023	24600	148284	27204	1023677	42994	109634	0	0	8154	645406	0	0
2024-06-28 02:19:32			0	35702	0	0	0	26023	24610	148256	27003	1023587	42984	109634	0	0	8153	646064	0	0
2024-06-28 02:20:32			0	35721	0	0	0	26028	24600	148288	27173	1023606	42973	109636	0	0	8154	645276	0	0
2024-06-28 02:21:32			0	35716	0	0	0	26023	24620	148260	27234	1023596	42985	109634	0	0	8154	645420	0	0
2024-06-28 02:22:32			0	35725	0	0	0	26025	24620	148236	27211	1023631	42975	109635	0	0	8154	645029	0	0
2024-06-28 02:23:32			0	35730	0	0	0	26031	24620	148276	27308	1023631	42963	109637	0	0	8154	644812	0	0
2024-06-28 02:24:32			0	35719	0	0	0	26031	24610	148276	27597	1023668	42973	109637	0	0	8154	645326	0	0
2024-06-28 02:25:32			0	35722	0	0	0	26025	24620	148296	27228	1023623	42952	109635	0	0	8154	645159	0	0
2024-06-28 02:26:32			0	35723	0	0	0	26020	24620	148168	27246	1023605	42986	109633	0	0	8154	645116	0	0
2024-06-28 02:27:32			0	35700	0	0	0	26023	24620	148300	27433	1023658	42963	109634	0	0	8153	646115	0	0
2024-06-28 02:28:32			0	35737	0	0	0	26018	24620	148192	27291	1023623	42962	109632	0	0	8155	644508	0	0
2024-06-28 02:29:32			0	35732	0	0	0	26028	24620	148240	27552	1023596	42985	109636	0	0	8154	644725	0	0
2024-06-28 02:30:32			0	35712	0	0	0	26020	24620	148248	27052	1023676	42974	109633	0	0	8153	645593	0	0
2024-06-28 02:31:32			0	35724	0	0	0	26036	24620	148184	27189	1023623	42962	109639	0	0	8154	645072	0	0
2024-06-28 02:32:32			0	35712	0	0	0	26031	24620	148320	27338	1023658	42975	109637	0	0	8153	645593	0	0
2024-06-28 02:33:32			0	35740	0	0	0	26036	24630	148252	27381	1023783	42975	109639	0	0	8155	644341	0	0
2024-06-28 02:34:32			0	35736	0	0	0	26041	24630	148192	27097	1023702	42975	109641	0	0	8154	644515	0	0
2024-06-28 02:35:32			0	35718	0	0	0	26041	24630	148176	27287	1023676	42963	109641	0	0	8153	645296	0	0
2024-06-28 02:36:32			0	35717	0	0	0	26038	24630	148180	27410	1023667	42975	109640	0	0	8153	645340	0	0
2024-06-28 02:37:32			0	35737	0	0	0	26036	24630	148280	27384	1023676	42975	109639	0	0	8155	644472	0	0
2024-06-28 02:38:32			0	35725	0	0	0	26031	24630	148116	27519	1023694	42975	109637	0	0	8154	644992	0	0
2024-06-28 02:39:32			0	35719	0	0	0	26031	24620	148248	27161	1023712	42986	109637	0	0	8154	645289	0	0
2024-06-28 02:40:32			0	35740	0	0	0	26031	24620	148216	27334	1023730	42996	109637	0	0	8155	644378	0	0
2024-06-28 02:41:32			0	35722	0	0	0	26028	24620	148208	27350	1023685	42963	109636	0	0	8154	645159	0	0
2024-06-28 02:42:32			0	35744	0	0	0	26020	24630	148228	27514	1023676	42975	109633	0	0	8155	644168	0	0
2024-06-28 02:43:32			0	35734	0	0	0	26015	24620	148284	27275	1023605	42963	109631	0	0	8155	644638	0	0
2024-06-28 02:44:32			0	35732	0	0	0	26010	24620	148144	27369	1023596	42962	109629	0	0	8155	644725	0	0
2024-06-28 02:45:32			0	35738	0	0	0	25997	24620	148228	27576	1023543	42974	109624	0	0	8155	644465	0	0
2024-06-28 02:46:32			0	35759	0	0	0	25986	24600	148136	27086	1023525	42973	109620	0	0	8156	643627	0	0
2024-06-28 02:47:32			0	35754	0	0	0	25986	24600	148176	27201	1023525	42961	109620	0	0	8156	643844	0	0
2024-06-28 02:48:32			0	35735	0	0	0	25984	24600	148188	27280	1023463	42960	109619	0	0	8155	644668	0	0
2024-06-28 02:49:32			0	35755	0	0	0	25981	24590	148044	27078	1023455	42983	109618	0	0	8156	643837	0	0
2024-06-28 02:50:32			0	35752	0	0	0	25979	24590	148096	27388	1023473	42960	109617	0	0	8156	643967	0	0
2024-06-28 02:51:32			0	35752	0	0	0	25973	24590	148104	27216	1023473	42960	109615	0	0	8156	643967	0	0
2024-06-28 02:52:32			0	35754	0	0	0	25963	24580	148088	27239	1023384	42971	109611	0	0	8156	643916	0	0
2024-06-28 02:53:32			0	35766	0	0	0	25950	24570	148144	27059	1023304	42958	109606	0	0	8157	643433	0	0
2024-06-28 02:54:32			0	35767	0	0	0	25948	24560	148176	27274	1023403	42958	109605	0	0	8157	643426	0	0
2024-06-28 02:55:32			0	35778	0	0	0	25940	24570	148220	27215	1023304	42958	109602	0	0	8158	642913	0	0
2024-06-28 02:56:32			0	35767	0	0	0	25932	24560	148132	27005	1023296	42958	109599	0	0	8158	643426	0	0
2024-06-28 02:57:32			0	35768	0	0	0	25919	24540	148116	27222	1023207	42945	109594	0	0	8158	643455	0	0
2024-06-28 02:58:32			0	35782	0	0	0	25919	24540	148044	27012	1023199	42945	109594	0	0	8159	642848	0	0
2024-06-28 02:59:32			0	35769	0	0	0	25916	24540	148140	27280	1023154	42956	109593	0	0	8158	643412	0	0
2024-06-28 03:00:32			0	35775	0	0	0	25911	24530	148164	27230	1023110	42956	109591	0	0	8158	643188	0	0
2024-06-28 03:01:32			0	35773	0	0	0	25901	24530	148132	27128	1023128	42955	109587	0	0	8158	643275	0	0
2024-06-28 03:02:32			0	35766	0	0	0	25885	24530	148032	27020	1023074	42955	109581	0	0	8158	643578	0	0
2024-06-28 03:03:32			0	35781	0	0	0	25877	24520	148188	27367	1023146	42954	109578	0	0	8159	642965	0	0
2024-06-28 03:04:32			0	35772	0	0	0	25875	24510	148088	27367	1023075	42953	109577	0	0	8159	643391	0	0
2024-06-28 03:05:32			0	35793	0	0	0	25864	24500	148036	27353	1023076	42951	109573	0	0	8160	642518	0	0
2024-06-28 03:06:32			0	35771	0	0	0	25864	24500	148040	27222	1023023	42940	109573	0	0	8159	643471	0	0
2024-06-28 03:07:32			0	35783	0	0	0	25851	24500	148156	27043	1022969	42951	109568	0	0	8160	642951	0	0
2024-06-28 03:08:32			0	35792	0	0	0	25849	24500	148128	27223	1022969	42940	109567	0	0	8160	642561	0	0
2024-06-28 03:09:32			0	35772	0	0	0	25849	24480	148196	27533	1022908	42960	109567	0	0	8159	643500	0	0
2024-06-28 03:10:32			0	35779	0	0	0	25841	24480	148132	27364	1022890	42961	109564	0	0	8159	643197	0	0
2024-06-28 03:11:32			0	35770	0	0	0	25846	24470	148176	27150	1022864	42949	109566	0	0	8159	643623	0	0
2024-06-28 03:12:32			0	35768	0	0	0	25841	24470	148124	27268	1022917	42938	109564	0	0	8159	643710	0	0
2024-06-28 03:13:32			0	35782	0	0	0	25841	24480	148176	27092	1022827	42938	109564	0	0	8160	643067	0	0
2024-06-28 03:14:32			0	35781	0	0	0	25838	24460	148228	27010	1022882	42959	109563	0	0	8159	643183	0	0
2024-06-28 03:15:32			0	35774	0	0	0	25838	24460	148216	27057	1022846	42969	109563	0	0	8159	643486	0	0
2024-06-28 03:16:32			0	35774	0	0	0	25841	24460	148156	27133	1022846	42958	109564	0	0	8159	643486	0	0
2024-06-28 03:17:32			0	35780	0	0	0	25841	24450	148260	27123	1022838	42958	109564	0	0	8159	643262	0	0
2024-06-28 03:18:32			0	35763	0	0	0	25836	24460	148260	27317	1022900	42948	109562	0	0	8159	643963	0	0
2024-06-28 03:19:32			0	35780	0	0	0	25831	24450	148212	27102	1022838	42958	109560	0	0	8160	643262	0	0
2024-06-28 03:20:32			0	35764	0	0	0	25836	24460	148244	27041	1022873	42936	109562	0	0	8159	643920	0	0
2024-06-28 03:21:32			0	35774	0	0	0	25841	24460	148324	27074	1022873	42958	109564	0	0	8159	643486	0	0
2024-06-28 03:22:32			0	35766	0	0	0	25844	24450	148196	27159	1022838	42969	109565	0	0	8159	643869	0	0
2024-06-28 03:23:32			0	35760	0	0	0	25844	24460	148328	27145	1022855	42959	109565	0	0	8158	644093	0	0
2024-06-28 03:24:32			0	35773	0	0	0	25844	24450	148264	26911	1022838	42948	109565	0	0	8159	643566	0	0
2024-06-28 03:25:32			0	35756	0	0	0	25838	24450	148212	27062	1022856	42958	109563	0	0	8158	644303	0	0
2024-06-28 03:26:32			0	35764	0	0	0	25841	24460	148240	27215	1022900	42948	109564	0	0	8159	643920	0	0
2024-06-28 03:27:32			0	35763	0	0	0	25833	24450	148224	26987	1022838	42948	109561	0	0	8159	643999	0	0
2024-06-28 03:28:32			0	35771	0	0	0	25828	24440	148272	27062	1022794	42958	109559	0	0	8159	643689	0	0
2024-06-28 03:29:32			0	35759	0	0	0	25833	24440	148260	26776	1022794	42947	109561	0	0	8158	644209	0	0
2024-06-28 03:30:32			0	35775	0	0	0	25825	24450	148256	27315	1022776	42969	109558	0	0	8159	643479	0	0
2024-06-28 03:31:32			0	35762	0	0	0	25823	24440	148256	27175	1022821	42958	109557	0	0	8159	644079	0	0
2024-06-28 03:32:32			0	35768	0	0	0	25820	24460	148312	27173	1022793	42936	109556	0	0	8159	643746	0	0
2024-06-28 03:33:32			0	35758	0	0	0	25818	24440	148144	27022	1022794	42958	109555	0	0	8159	644253	0	0
2024-06-28 03:34:32			0	35759	0	0	0	25820	24450	148280	27029	1022749	42958	109556	0	0	8159	644173	0	0
2024-06-28 03:35:32			0	35742	0	0	0	25805	24440	148268	26894	1022714	42935	109550	0	0	8158	644947	0	0
2024-06-28 03:36:32			0	35771	0	0	0	25797	24430	148320	27199	1022616	42945	109547	0	0	8160	643725	0	0
2024-06-28 03:37:32			0	35768	0	0	0	25786	24420	148256	27166	1022625	42933	109543	0	0	8160	643892	0	0
2024-06-28 03:38:32			0	35767	0	0	0	25781	24420	148228	27277	1022617	42944	109541	0	0	8160	643935	0	0
2024-06-28 03:39:32			0	35779	0	0	0	25768	24400	148348	27135	1022529	42942	109536	0	0	8160	643488	0	0
2024-06-28 03:40:32			0	35775	0	0	0	25758	24410	148336	27310	1022554	42932	109532	0	0	8160	643625	0	0
2024-06-28 03:41:32			0	35778	0	0	0	25753	24400	148276	27225	1022502	42942	109530	0	0	8161	643531	0	0
2024-06-28 03:42:32			0	35749	0	0	0	25737	24400	148340	27293	1022475	42931	109524	0	0	8159	644789	0	0
2024-06-28 03:43:32			0	35759	0	0	0	25735	24380	148272	27144	1022467	42929	109523	0	0	8160	644428	0	0
2024-06-28 03:44:32			0	35759	0	0	0	25724	24380	148276	27284	1022387	42940	109519	0	0	8160	644428	0	0
2024-06-28 03:45:32			0	35752	0	0	0	25714	24370	148228	27213	1022352	42917	109515	0	0	8160	644768	0	0
2024-06-28 03:46:32			0	35745	0	0	0	25703	24360	148400	27201	1022334	42927	109511	0	0	8159	645109	0	0
2024-06-28 03:47:32			0	35751	0	0	0	25683	24350	148416	27267	1022228	42925	109503	0	0	8160	644884	0	0
2024-06-28 03:48:32			0	35755	0	0	0	25680	24350	148480	27355	1022201	42936	109502	0	0	8160	644711	0	0
2024-06-28 03:49:32			0	35744	0	0	0	25667	24340	148504	27434	1022077	42925	109497	0	0	8160	645225	0	0
2024-06-28 03:50:32			0	35737	0	0	0	25654	24330	148524	27118	1022140	42923	109492	0	0	8160	645566	0	0
2024-06-28 03:51:32			0	35748	0	0	0	25638	24320	148564	27421	1022069	42923	109486	0	0	8160	645124	0	0
2024-06-28 03:52:32			0	35731	0	0	0	25620	24300	148548	27159	1021936	42910	109479	0	0	8160	645936	0	0
2024-06-28 03:53:32			0	35726	0	0	0	25612	24280	148592	27116	1021910	42919	109476	0	0	8160	646226	0	0
2024-06-28 03:54:32			0	35730	0	0	0	25605	24280	148632	27317	1021875	42919	109473	0	0	8160	646052	0	0
2024-06-28 03:55:32			0	35732	0	0	0	25607	24280	148680	27291	1021848	42930	109474	0	0	8160	645965	0	0
2024-06-28 03:56:32			0	35725	0	0	0	25605	24260	148700	27227	1021947	42917	109473	0	0	8160	646343	0	0
2024-06-28 03:57:32			0	35720	0	0	0	25607	24260	148680	27327	1021902	42940	109474	0	0	8159	646560	0	0
2024-06-28 03:58:32			0	35716	0	0	0	25612	24250	148688	27319	1021885	42928	109476	0	0	8159	646771	0	0
2024-06-28 03:59:32			0	35697	0	0	0	25610	24260	148680	27431	1021902	42918	109475	0	0	8158	647562	0	0
2024-06-28 04:00:32			0	35706	0	0	0	25597	24250	148564	27232	1021805	42939	109470	0	0	8159	647206	0	0
2024-06-28 04:01:32			0	35690	0	0	0	25602	24260	148744	27274	1021867	42917	109472	0	0	8158	647866	0	0
2024-06-28 04:02:32			0	35685	0	0	0	25597	24250	148736	27298	1021903	42917	109470	0	0	8158	648121	0	0
2024-06-28 04:03:32			0	35683	0	0	0	25602	24240	148592	27055	1021841	42916	109472	0	0	8157	648245	0	0
2024-06-28 04:04:32			0	35681	0	0	0	25602	24240	148752	27300	1021832	42916	109472	0	0	8157	648332	0	0
2024-06-28 04:05:32			0	35663	0	0	0	25592	24240	148796	27633	1021806	42905	109468	0	0	8156	649117	0	0
2024-06-28 04:06:32			0	35671	0	0	0	25579	24240	148816	26941	1021725	42916	109463	0	0	8157	648768	0	0
2024-06-28 04:07:32			0	35668	0	0	0	25566	24220	148820	27107	1021691	42903	109458	0	0	8157	648972	0	0
2024-06-28 04:08:32			0	35684	0	0	0	25558	24210	148876	27246	1021629	42913	109455	0	0	8158	648311	0	0
2024-06-28 04:09:32			0	35645	0	0	0	25545	24200	148864	27244	1021558	42902	109450	0	0	8156	650050	0	0
2024-06-28 04:10:32			0	35660	0	0	0	25535	24190	148888	27215	1021559	42911	109446	0	0	8157	649431	0	0
2024-06-28 04:11:32			0	35642	0	0	0	25519	24180	148952	27497	1021488	42910	109440	0	0	8156	650254	0	0
2024-06-28 04:12:32			0	35676	0	0	0	25506	24180	148992	27433	1021381	42910	109435	0	0	8158	648770	0	0
2024-06-28 04:13:32			0	35651	0	0	0	25498	24170	148948	26887	1021390	42909	109432	0	0	8157	649897	0	0
2024-06-28 04:14:32			0	35657	0	0	0	25498	24150	148988	27396	1021302	42907	109432	0	0	8157	649709	0	0
2024-06-28 04:15:32			0	35660	0	0	0	25480	24150	148984	27305	1021258	42918	109425	0	0	8158	649578	0	0
2024-06-28 04:16:32			0	35641	0	0	0	25480	24140	149040	27357	1021232	42884	109425	0	0	8157	650445	0	0
2024-06-28 04:17:32			0	35649	0	0	0	25464	24120	148968	27235	1021179	42893	109419	0	0	8157	650168	0	0
2024-06-28 04:18:32			0	35630	0	0	0	25454	24110	149036	27383	1021073	42891	109415	0	0	8156	651036	0	0
2024-06-28 04:19:32			0	35626	0	0	0	25428	24090	148968	27196	1020967	42902	109405	0	0	8156	651284	0	0
2024-06-28 04:20:32			0	35636	0	0	0	25415	24080	148940	27069	1020941	42889	109400	0	0	8157	650883	0	0
2024-06-28 04:21:32			0	35644	0	0	0	25397	24080	149124	27190	1020914	42889	109393	0	0	8158	650534	0	0
2024-06-28 04:22:32			0	35622	0	0	0	25402	24050	149168	27218	1020924	42897	109395	0	0	8157	651606	0	0
2024-06-28 04:23:32			0	35640	0	0	0	25397	24070	149012	27435	1020924	42910	109393	0	0	8158	650745	0	0
2024-06-28 04:24:32			0	35617	0	0	0	25389	24050	149100	27119	1020924	42897	109390	0	0	8156	651825	0	0
2024-06-28 04:25:32			0	35627	0	0	0	25397	24050	149092	27248	1020889	42886	109393	0	0	8157	651387	0	0
2024-06-28 04:26:32			0	35629	0	0	0	25381	24030	149120	27329	1020810	42895	109387	0	0	8157	651373	0	0
2024-06-28 04:27:32			0	35639	0	0	0	25379	24010	149112	27222	1020704	42894	109386	0	0	8158	651009	0	0
2024-06-28 04:28:32			0	35634	0	0	0	25374	24020	149112	27171	1020712	42894	109384	0	0	8158	651191	0	0
2024-06-28 04:29:32			0	35631	0	0	0	25368	24000	149072	27270	1020767	42893	109382	0	0	8157	651396	0	0
2024-06-28 04:30:32			0	35649	0	0	0	25371	24010	149128	27216	1020749	42882	109383	0	0	8158	650572	0	0
2024-06-28 04:31:32			0	35609	0	0	0	25368	24000	149104	27403	1020713	42905	109382	0	0	8156	652359	0	0
2024-06-28 04:32:32			0	35616	0	0	0	25384	24000	149124	27350	1020785	42893	109388	0	0	8156	652053	0	0
2024-06-28 04:33:32			0	35627	0	0	0	25386	24000	149088	27627	1020847	42916	109389	0	0	8157	651571	0	0
2024-06-28 04:34:32			0	35618	0	0	0	25394	24000	149160	27306	1020793	42905	109392	0	0	8156	651965	0	0
2024-06-28 04:35:32			0	35614	0	0	0	25407	24000	149116	27471	1020847	42905	109397	0	0	8156	652140	0	0
2024-06-28 04:36:32			0	35619	0	0	0	25412	24010	149260	27450	1020855	42905	109399	0	0	8156	651884	0	0
2024-06-28 04:37:32			0	35612	0	0	0	25418	24020	149140	27360	1020899	42916	109401	0	0	8156	652154	0	0
2024-06-28 04:38:32			0	35609	0	0	0	25423	24010	149184	27265	1020918	42894	109403	0	0	8155	652322	0	0
2024-06-28 04:39:32			0	35605	0	0	0	25431	24020	149216	27218	1020908	42928	109406	0	0	8155	652461	0	0
2024-06-28 04:40:32			0	35589	0	0	0	25441	24020	149288	27336	1021042	42917	109410	0	0	8154	653162	0	0
2024-06-28 04:41:32			0	35603	0	0	0	25457	24030	149312	27104	1020979	42918	109416	0	0	8155	652512	0	0
2024-06-28 04:42:32			0	35603	0	0	0	25454	24040	149348	27211	1021041	42909	109415	0	0	8155	652475	0	0
2024-06-28 04:43:32			0	35594	0	0	0	25467	24050	149220	27251	1021076	42909	109420	0	0	8154	652832	0	0
2024-06-28 04:44:32			0	35562	0	0	0	25475	24050	149268	27305	1021031	42919	109423	0	0	8152	654236	0	0
2024-06-28 04:45:32			0	35585	0	0	0	25470	24040	149224	27081	1021068	42919	109421	0	0	8153	653264	0	0
2024-06-28 04:46:32			0	35567	0	0	0	25464	24050	149340	27256	1021023	42919	109419	0	0	8153	654017	0	0
2024-06-28 04:47:32			0	35549	0	0	0	25464	24060	149356	27377	1021076	42910	109419	0	0	8152	654770	0	0
2024-06-28 04:48:32			0	35559	0	0	0	25462	24050	149300	27031	1021031	42909	109418	0	0	8152	654368	0	0
2024-06-28 04:49:32			0	35552	0	0	0	25480	24070	149368	27242	1021111	42921	109425	0	0	8152	654602	0	0
2024-06-28 04:50:32			0	35555	0	0	0	25472	24070	149408	27286	1021111	42899	109422	0	0	8152	654470	0	0
2024-06-28 04:51:32			0	35550	0	0	0	25475	24070	149448	27355	1021111	42921	109423	0	0	8152	654689	0	0
2024-06-28 04:52:32			0	35528	0	0	0	25467	24050	149476	27327	1021005	42919	109420	0	0	8150	655730	0	0
2024-06-28 04:53:32			0	35540	0	0	0	25470	24050	149508	27182	1020969	42909	109421	0	0	8151	655202	0	0
2024-06-28 04:54:32			0	35528	0	0	0	25454	24060	149448	27189	1021093	42909	109415	0	0	8151	655693	0	0
2024-06-28 04:55:32			0	35512	0	0	0	25459	24070	149440	27429	1021066	42900	109417	0	0	8150	656360	0	0
2024-06-28 04:56:32			0	35499	0	0	0	25462	24050	149516	27178	1021005	42897	109418	0	0	8149	657006	0	0
2024-06-28 04:57:32			0	35496	0	0	0	25451	24070	149572	27312	1021058	42910	109414	0	0	8149	657064	0	0
2024-06-28 04:58:32			0	35512	0	0	0	25446	24050	149608	27130	1021023	42909	109412	0	0	8150	656434	0	0
2024-06-28 04:59:32			0	35508	0	0	0	25449	24050	149696	27672	1020978	42919	109413	0	0	8150	656610	0	0
2024-06-28 05:00:32			0	35478	0	0	0	25446	24050	149652	27542	1020996	42909	109412	0	0	8148	657931	0	0
2024-06-28 05:01:32			0	35486	0	0	0	25436	24050	149704	27176	1020978	42919	109408	0	0	8149	657579	0	0
2024-06-28 05:02:32			0	35478	0	0	0	25441	24050	149684	27585	1020969	42897	109410	0	0	8148	657931	0	0
2024-06-28 05:03:32			0	35460	0	0	0	25436	24050	149720	27428	1020969	42897	109408	0	0	8147	658725	0	0
2024-06-28 05:04:32			0	35468	0	0	0	25438	24050	149672	27222	1021005	42909	109409	0	0	8148	658372	0	0
2024-06-28 05:05:32			0	35477	0	0	0	25431	24050	149816	27203	1020969	42919	109406	0	0	8148	657975	0	0
2024-06-28 05:06:32			0	35449	0	0	0	25425	24030	149796	27180	1020952	42908	109404	0	0	8147	659285	0	0
2024-06-28 05:07:32			0	35435	0	0	0	25428	24030	149904	27154	1020899	42908	109405	0	0	8146	659903	0	0
2024-06-28 05:08:32			0	35427	0	0	0	25431	24030	149836	27227	1020943	42907	109406	0	0	8145	660257	0	0
2024-06-28 05:09:32			0	35420	0	0	0	25423	24030	149860	27379	1020899	42918	109403	0	0	8145	660566	0	0
2024-06-28 05:10:32			0	35430	0	0	0	25431	24030	149964	27251	1020890	42907	109406	0	0	8146	660124	0	0
2024-06-28 05:11:32			0	35421	0	0	0	25415	24020	149920	27239	1020873	42916	109400	0	0	8145	660559	0	0
2024-06-28 05:12:32			0	35403	0	0	0	25425	24020	149968	26897	1020881	42907	109404	0	0	8144	661355	0	0
2024-06-28 05:13:32			0	35390	0	0	0	25425	24020	149976	27319	1020873	42916	109404	0	0	8144	661931	0	0
2024-06-28 05:14:32			0	35385	0	0	0	25423	24020	150000	27570	1020881	42895	109403	0	0	8143	662152	0	0
2024-06-28 05:15:32			0	35388	0	0	0	25415	24020	150140	27291	1020881	42895	109400	0	0	8144	662019	0	0
2024-06-28 05:16:32			0	35394	0	0	0	25420	24020	150096	27334	1020828	42895	109402	0	0	8144	661754	0	0
2024-06-28 05:17:32			0	35367	0	0	0	25402	24010	150224	27329	1020784	42883	109395	0	0	8143	662987	0	0
2024-06-28 05:18:32			0	35377	0	0	0	25394	24020	150288	27473	1020712	42906	109392	0	0	8143	662507	0	0
2024-06-28 05:19:32			0	35364	0	0	0	25381	24000	150284	27310	1020660	42882	109387	0	0	8143	663157	0	0
2024-06-28 05:20:32			0	35358	0	0	0	25371	23990	150460	27350	1020723	42915	109383	0	0	8143	663461	0	0
2024-06-28 05:21:32			0	35346	0	0	0	25361	23980	150440	27374	1020572	42879	109379	0	0	8142	664031	0	0
2024-06-28 05:22:32			0	35332	0	0	0	25342	23980	150352	27159	1020563	42891	109372	0	0	8142	664652	0	0
2024-06-28 05:23:32			0	35344	0	0	0	25345	23970	150404	27260	1020635	42879	109373	0	0	8142	664157	0	0
2024-06-28 05:24:32			0	35332	0	0	0	25337	23970	150412	27462	1020528	42891	109370	0	0	8142	664690	0	0
2024-06-28 05:25:32			0	35343	0	0	0	25340	23960	150476	27514	1020511	42900	109371	0	0	8142	664239	0	0
2024-06-28 05:26:32			0	35328	0	0	0	25332	23970	150404	27345	1020573	42912	109368	0	0	8142	664868	0	0
2024-06-28 05:27:32			0	35327	0	0	0	25337	23970	150540	27265	1020573	42890	109370	0	0	8141	664912	0	0
2024-06-28 05:28:32			0	35321	0	0	0	25332	23960	150564	27589	1020449	42900	109368	0	0	8141	665216	0	0
2024-06-28 05:29:32			0	35309	0	0	0	25322	23950	150536	27133	1020467	42900	109364	0	0	8141	665787	0	0
2024-06-28 05:30:32			0	35307	0	0	0	25319	23950	150488	27535	1020467	42889	109363	0	0	8141	665876	0	0
2024-06-28 05:31:32			0	35292	0	0	0	25319	23950	150556	27398	1020440	42900	109363	0	0	8140	666543	0	0
2024-06-28 05:32:32			0	35288	0	0	0	25303	23940	150560	27509	1020449	42887	109357	0	0	8140	666759	0	0
2024-06-28 05:33:32			0	35303	0	0	0	25309	23940	150548	27486	1020414	42887	109359	0	0	8140	666091	0	0
2024-06-28 05:34:32			0	35296	0	0	0	25311	23930	150624	27386	1020423	42897	109360	0	0	8140	666440	0	0
2024-06-28 05:35:32			0	35305	0	0	0	25316	23920	150552	27241	1020334	42896	109362	0	0	8140	666078	0	0
2024-06-28 05:36:32			0	35276	0	0	0	25309	23930	150672	27216	1020343	42897	109359	0	0	8139	667331	0	0
2024-06-28 05:37:32			0	35285	0	0	0	25306	23930	150624	27310	1020352	42897	109358	0	0	8139	666930	0	0
2024-06-28 05:38:32			0	35286	0	0	0	25311	23930	150644	27085	1020370	42897	109360	0	0	8139	666886	0	0
2024-06-28 05:39:32			0	35274	0	0	0	25306	23920	150664	27582	1020326	42884	109358	0	0	8139	667458	0	0
2024-06-28 05:40:32			0	35263	0	0	0	25314	23920	150828	27249	1020361	42896	109361	0	0	8138	667948	0	0
2024-06-28 05:41:32			0	35277	0	0	0	25309	23910	150732	27111	1020344	42884	109359	0	0	8139	667362	0	0
2024-06-28 05:42:32			0	35264	0	0	0	25303	23920	150776	27505	1020326	42907	109357	0	0	8138	667903	0	0
2024-06-28 05:43:32			0	35274	0	0	0	25303	23910	150736	27234	1020282	42896	109357	0	0	8139	667495	0	0
2024-06-28 05:44:32			0	35250	0	0	0	25298	23920	150728	27448	1020326	42884	109355	0	0	8138	668528	0	0
2024-06-28 05:45:32			0	35257	0	0	0	25293	23910	150648	27255	1020282	42884	109353	0	0	8138	668253	0	0
2024-06-28 05:46:32			0	35264	0	0	0	25298	23910	150680	27443	1020309	42884	109355	0	0	8138	667941	0	0
2024-06-28 05:47:32			0	35251	0	0	0	25301	23900	150772	27350	1020273	42895	109356	0	0	8138	668559	0	0
2024-06-28 05:48:32			0	35240	0	0	0	25301	23900	150732	27204	1020265	42894	109356	0	0	8137	669049	0	0
2024-06-28 05:49:32			0	35265	0	0	0	25301	23900	150768	27093	1020247	42916	109356	0	0	8138	667934	0	0
2024-06-28 05:50:32			0	35258	0	0	0	25306	23900	150736	27220	1020238	42894	109358	0	0	8138	668246	0	0
2024-06-28 05:51:32			0	35265	0	0	0	25303	23900	150824	27152	1020300	42895	109357	0	0	8138	667934	0	0
2024-06-28 05:52:32			0	35246	0	0	0	25309	23890	150800	27171	1020309	42905	109359	0	0	8137	668819	0	0
2024-06-28 05:53:32			0	35246	0	0	0	25314	23900	150856	27270	1020273	42883	109361	0	0	8137	668782	0	0
2024-06-28 05:54:32			0	35245	0	0	0	25314	23910	150840	26960	1020371	42896	109361	0	0	8137	668789	0	0
2024-06-28 05:55:32			0	35255	0	0	0	25314	23910	150916	27396	1020317	42907	109361	0	0	8138	668342	0	0
2024-06-28 05:56:32			0	35261	0	0	0	25306	23910	150832	27554	1020309	42896	109358	0	0	8138	668075	0	0
2024-06-28 05:57:32			0	35248	0	0	0	25306	23910	150836	27386	1020317	42907	109358	0	0	8137	668655	0	0
2024-06-28 05:58:32			0	35248	0	0	0	25309	23900	150716	27163	1020327	42895	109359	0	0	8137	668692	0	0
2024-06-28 05:59:32			0	35261	0	0	0	25303	23910	150736	27315	1020335	42896	109357	0	0	8138	668075	0	0
2024-06-28 06:00:32			0	35257	0	0	0	25301	23900	150676	27341	1020265	42905	109356	0	0	8138	668291	0	0
2024-06-28 06:01:32			0	35266	0	0	0	25306	23890	150684	26979	1020229	42905	109358	0	0	8138	667927	0	0
2024-06-28 06:02:32			0	35272	0	0	0	25301	23900	150748	26871	1020265	42894	109356	0	0	8139	667622	0	0
2024-06-28 06:03:32			0	35279	0	0	0	25293	23900	150788	27258	1020238	42894	109353	0	0	8139	667310	0	0
2024-06-28 06:04:32			0	35279	0	0	0	25298	23890	150676	27306	1020283	42894	109355	0	0	8139	667348	0	0
2024-06-28 06:05:32			0	35270	0	0	0	25290	23890	150604	27263	1020247	42905	109352	0	0	8139	667749	0	0
2024-06-28 06:06:32			0	35276	0	0	0	25298	23890	150676	27241	1020247	42894	109355	0	0	8139	667481	0	0
2024-06-28 06:07:32			0	35291	0	0	0	25309	23880	150652	27149	1020212	42893	109359	0	0	8140	666851	0	0
2024-06-28 06:08:32			0	35293	0	0	0	25298	23890	150612	27595	1020221	42905	109355	0	0	8140	666724	0	0
2024-06-28 06:09:32			0	35286	0	0	0	25296	23900	150544	27253	1020265	42905	109354	0	0	8140	666998	0	0
2024-06-28 06:10:32			0	35305	0	0	0	25298	23890	150632	27168	1020229	42905	109355	0	0	8141	666190	0	0
2024-06-28 06:11:32			0	35302	0	0	0	25296	23890	150560	27440	1020256	42905	109354	0	0	8140	666324	0	0
2024-06-28 06:12:32			0	35316	0	0	0	25303	23890	150496	27275	1020256	42894	109357	0	0	8141	665701	0	0
2024-06-28 06:13:32			0	35312	0	0	0	25296	23890	150480	27215	1020247	42916	109354	0	0	8141	665879	0	0
2024-06-28 06:14:32			0	35322	0	0	0	25298	23890	150488	27095	1020336	42905	109355	0	0	8141	665434	0	0
2024-06-28 06:15:32			0	35323	0	0	0	25311	23900	150472	27211	1020327	42883	109360	0	0	8141	665352	0	0
2024-06-28 06:16:32			0	35318	0	0	0	25306	23890	150444	27260	1020336	42905	109358	0	0	8141	665612	0	0
2024-06-28 06:17:32			0	35341	0	0	0	25311	23890	150468	27422	1020229	42894	109360	0	0	8142	664590	0	0
2024-06-28 06:18:32			0	35345	0	0	0	25316	23900	150412	27216	1020265	42894	109362	0	0	8142	664375	0	0
2024-06-28 06:19:32			0	35351	0	0	0	25314	23900	150416	27235	1020353	42916	109361	0	0	8143	664108	0	0
2024-06-28 06:20:32			0	35353	0	0	0	25309	23900	150304	27393	1020247	42895	109359	0	0	8143	664019	0	0
2024-06-28 06:21:32			0	35357	0	0	0	25314	23900	150300	27253	1020300	42895	109361	0	0	8143	663842	0	0
2024-06-28 06:22:32			0	35364	0	0	0	25314	23890	150220	27326	1020283	42905	109361	0	0	8143	663569	0	0
2024-06-28 06:23:32			0	35377	0	0	0	25311	23900	150220	27249	1020291	42905	109360	0	0	8144	662955	0	0
2024-06-28 06:24:32			0	35402	0	0	0	25306	23890	150184	27076	1020229	42905	109358	0	0	8146	661884	0	0
2024-06-28 06:25:32			0	35390	0	0	0	25314	23890	150152	27228	1020221	42905	109361	0	0	8145	662416	0	0
2024-06-28 06:26:32			0	35390	0	0	0	25311	23890	150148	27178	1020283	42905	109360	0	0	8145	662416	0	0
2024-06-28 06:27:32			0	35407	0	0	0	25298	23890	149992	27353	1020283	42894	109355	0	0	8146	661663	0	0
2024-06-28 06:28:32			0	35400	0	0	0	25298	23900	150028	27291	1020300	42906	109355	0	0	8146	661936	0	0
2024-06-28 06:29:32			0	35414	0	0	0	25296	23900	150048	27272	1020238	42894	109354	0	0	8146	661316	0	0
2024-06-28 06:30:32			0	35439	0	0	0	25303	23900	150004	27202	1020265	42905	109357	0	0	8148	660210	0	0
2024-06-28 06:31:32			0	35429	0	0	0	25303	23890	149976	27026	1020256	42894	109357	0	0	8147	660689	0	0
2024-06-28 06:32:32			0	35431	0	0	0	25296	23890	149980	27098	1020256	42894	109354	0	0	8147	660601	0	0
2024-06-28 06:33:32			0	35463	0	0	0	25288	23890	149900	27429	1020256	42905	109351	0	0	8149	659187	0	0
2024-06-28 06:34:32			0	35457	0	0	0	25301	23900	149872	27085	1020265	42894	109356	0	0	8149	659415	0	0
2024-06-28 06:35:32			0	35470	0	0	0	25301	23890	149876	27150	1020229	42916	109356	0	0	8149	658878	0	0
2024-06-28 06:36:32			0	35465	0	0	0	25288	23890	149764	27116	1020203	42894	109351	0	0	8149	659099	0	0
2024-06-28 06:37:32			0	35504	0	0	0	25290	23880	149716	27263	1020185	42881	109352	0	0	8151	657416	0	0
2024-06-28 06:38:32			0	35502	0	0	0	25280	23880	149708	27121	1020185	42881	109348	0	0	8151	657504	0	0
2024-06-28 06:39:32			0	35524	0	0	0	25267	23880	149692	27209	1020123	42892	109343	0	0	8153	656535	0	0
2024-06-28 06:40:32			0	35502	0	0	0	25259	23870	149588	27338	1020088	42892	109340	0	0	8152	657541	0	0
2024-06-28 06:41:32			0	35509	0	0	0	25270	23870	149696	27209	1020079	42903	109344	0	0	8152	657232	0	0
2024-06-28 06:42:32			0	35526	0	0	0	25254	23870	149548	27365	1020115	42892	109338	0	0	8153	656484	0	0
2024-06-28 06:43:32			0	35533	0	0	0	25259	23870	149536	27081	1020053	42892	109340	0	0	8153	656176	0	0
2024-06-28 06:44:32			0	35548	0	0	0	25246	23850	149488	27178	1020027	42889	109335	0	0	8154	655590	0	0
2024-06-28 06:45:32			0	35564	0	0	0	25249	23850	149392	27488	1020027	42889	109336	0	0	8155	654886	0	0
2024-06-28 06:46:32			0	35563	0	0	0	25238	23850	149400	27327	1019991	42878	109332	0	0	8155	654930	0	0
2024-06-28 06:47:32			0	35582	0	0	0	25236	23840	149332	27123	1020010	42889	109331	0	0	8156	654132	0	0
2024-06-28 06:48:32			0	35597	0	0	0	25228	23840	149336	26991	1019947	42877	109328	0	0	8157	653474	0	0
2024-06-28 06:49:32			0	35605	0	0	0	25228	23830	149284	27092	1019930	42887	109328	0	0	8158	653160	0	0
2024-06-28 06:50:32			0	35607	0	0	0	25236	23830	149388	27298	1019966	42887	109331	0	0	8158	653072	0	0
2024-06-28 06:51:32			0	35620	0	0	0	25233	23840	149268	27192	1019956	42900	109330	0	0	8158	652466	0	0
2024-06-28 06:52:32			0	35628	0	0	0	25231	23840	149300	27140	1020001	42888	109329	0	0	8159	652115	0	0
2024-06-28 06:53:32			0	35625	0	0	0	25225	23840	149244	26998	1019921	42888	109327	0	0	8159	652246	0	0
2024-06-28 06:54:32			0	35636	0	0	0	25220	23830	149184	27237	1019957	42887	109325	0	0	8159	651801	0	0
2024-06-28 06:55:32			0	35637	0	0	0	25212	23830	149108	27298	1019957	42887	109322	0	0	8160	651757	0	0
2024-06-28 06:56:32			0	35641	0	0	0	25215	23820	149112	27647	1019895	42876	109323	0	0	8160	651619	0	0
2024-06-28 06:57:32			0	35647	0	0	0	25225	23830	149152	27552	1020010	42898	109327	0	0	8160	651320	0	0
2024-06-28 06:58:32			0	35665	0	0	0	25223	23820	149060	27213	1019948	42898	109326	0	0	8161	650569	0	0
2024-06-28 06:59:32			0	35670	0	0	0	25220	23820	149120	27251	1019841	42910	109325	0	0	8161	650350	0	0
2024-06-28 07:00:32			0	35665	0	0	0	25228	23820	149148	27350	1019948	42898	109328	0	0	8161	650569	0	0
2024-06-28 07:01:32			0	35647	0	0	0	25220	23830	149144	27441	1019903	42898	109325	0	0	8160	651320	0	0
2024-06-28 07:02:32			0	35641	0	0	0	25218	23830	149080	27206	1019903	42887	109324	0	0	8160	651582	0	0
2024-06-28 07:03:32			0	35653	0	0	0	25212	23820	149080	27350	1019922	42898	109322	0	0	8160	651094	0	0
2024-06-28 07:04:32			0	35659	0	0	0	25212	23810	149084	27405	1019904	42885	109322	0	0	8161	650868	0	0
2024-06-28 07:05:32			0	35655	0	0	0	25215	23820	149076	27312	1019913	42886	109323	0	0	8160	651006	0	0
2024-06-28 07:06:32			0	35670	0	0	0	25210	23810	149124	27274	1019851	42908	109321	0	0	8161	650387	0	0
2024-06-28 07:07:32			0	35652	0	0	0	25220	23820	149128	27204	1019940	42875	109325	0	0	8160	651137	0	0
2024-06-28 07:08:32			0	35655	0	0	0	25205	23820	149136	27332	1019886	42897	109319	0	0	8161	651006	0	0
2024-06-28 07:09:32			0	35654	0	0	0	25207	23810	149164	27279	1019949	42885	109320	0	0	8160	651087	0	0
2024-06-28 07:10:32			0	35647	0	0	0	25205	23810	149128	27364	1019904	42897	109319	0	0	8160	651393	0	0
2024-06-28 07:11:32			0	35659	0	0	0	25220	23820	149084	27105	1019913	42886	109325	0	0	8161	650831	0	0
2024-06-28 07:12:32			0	35619	0	0	0	25225	23830	149224	27277	1020010	42898	109327	0	0	8158	652546	0	0
2024-06-28 07:13:32			0	35619	0	0	0	25238	23820	149132	27010	1019966	42897	109332	0	0	8158	652583	0	0
2024-06-28 07:14:32			0	35642	0	0	0	25254	23830	149120	27211	1020037	42910	109338	0	0	8159	651539	0	0
2024-06-28 07:15:32			0	35632	0	0	0	25254	23830	149128	26821	1020019	42898	109338	0	0	8159	651976	0	0
2024-06-28 07:16:32			0	35615	0	0	0	25259	23840	149268	27203	1020054	42899	109340	0	0	8158	652685	0	0
2024-06-28 07:17:32			0	35619	0	0	0	25257	23840	149292	26951	1020001	42888	109339	0	0	8158	652509	0	0
2024-06-28 07:18:32			0	35609	0	0	0	25249	23840	149200	27261	1020036	42900	109336	0	0	8157	652948	0	0
2024-06-28 07:19:32			0	35611	0	0	0	25246	23840	149256	27041	1020036	42900	109335	0	0	8158	652860	0	0
2024-06-28 07:20:32			0	35594	0	0	0	25244	23830	149264	26953	1019984	42887	109334	0	0	8157	653642	0	0
2024-06-28 07:21:32			0	35603	0	0	0	25244	23830	149412	27039	1020046	42898	109334	0	0	8157	653248	0	0
2024-06-28 07:22:32			0	35599	0	0	0	25251	23830	149268	27270	1020019	42910	109337	0	0	8157	653423	0	0
2024-06-28 07:23:32			0	35581	0	0	0	25259	23850	149332	27358	1020098	42889	109340	0	0	8156	654139	0	0
2024-06-28 07:24:32			0	35564	0	0	0	25267	23840	149364	27241	1020143	42900	109343	0	0	8155	654923	0	0
2024-06-28 07:25:32			0	35593	0	0	0	25270	23860	149424	27313	1020142	42901	109344	0	0	8156	653576	0	0
2024-06-28 07:26:32			0	35573	0	0	0	25280	23860	149404	27078	1020222	42901	109348	0	0	8155	654454	0	0
2024-06-28 07:27:32			0	35576	0	0	0	25283	23860	149356	27107	1020196	42912	109349	0	0	8155	654322	0	0
2024-06-28 07:28:32			0	35563	0	0	0	25293	23860	149444	27256	1020178	42891	109353	0	0	8154	654893	0	0
2024-06-28 07:29:32			0	35557	0	0	0	25296	23870	149472	27301	1020168	42903	109354	0	0	8154	655120	0	0
2024-06-28 07:30:32			0	35581	0	0	0	25290	23860	149416	27312	1020222	42901	109352	0	0	8155	654103	0	0
2024-06-28 07:31:32			0	35558	0	0	0	25288	23870	149404	27590	1020186	42914	109351	0	0	8154	655076	0	0
2024-06-28 07:32:32			0	35574	0	0	0	25290	23870	149460	27268	1020213	42892	109352	0	0	8155	654373	0	0
2024-06-28 07:33:32			0	35567	0	0	0	25283	23870	149440	27175	1020222	42892	109349	0	0	8155	654681	0	0
2024-06-28 07:34:32			0	35561	0	0	0	25285	23860	149452	27374	1020204	42902	109350	0	0	8154	654981	0	0
2024-06-28 07:35:32			0	35564	0	0	0	25283	23880	149348	27072	1020230	42903	109349	0	0	8155	654776	0	0
2024-06-28 07:36:32			0	35561	0	0	0	25285	23870	149432	27260	1020141	42903	109350	0	0	8154	654944	0	0
2024-06-28 07:37:32			0	35553	0	0	0	25283	23870	149436	27251	1020213	42903	109349	0	0	8154	655296	0	0
2024-06-28 07:38:32			0	35557	0	0	0	25283	23870	149468	27315	1020275	42903	109349	0	0	8154	655120	0	0
2024-06-28 07:39:32			0	35530	0	0	0	25293	23880	149528	27464	1020203	42903	109353	0	0	8153	656271	0	0
2024-06-28 07:40:32			0	35534	0	0	0	25288	23870	149520	27060	1020222	42903	109351	0	0	8153	656132	0	0
2024-06-28 07:41:32			0	35531	0	0	0	25298	23880	149520	27483	1020203	42903	109355	0	0	8153	656227	0	0
2024-06-28 07:42:32			0	35551	0	0	0	25290	23880	149408	27332	1020230	42892	109352	0	0	8154	655347	0	0
2024-06-28 07:43:32			0	35562	0	0	0	25306	23880	149528	27417	1020319	42904	109358	0	0	8154	654863	0	0
2024-06-28 07:44:32			0	35556	0	0	0	25301	23880	149544	27248	1020265	42904	109356	0	0	8154	655127	0	0
2024-06-28 07:45:32			0	35546	0	0	0	25296	23870	149460	27166	1020248	42903	109354	0	0	8153	655604	0	0
2024-06-28 07:46:32			0	35552	0	0	0	25301	23890	149392	27164	1020247	42905	109356	0	0	8154	655266	0	0
2024-06-28 07:47:32			0	35550	0	0	0	25301	23870	149480	27319	1020195	42914	109356	0	0	8154	655428	0	0
2024-06-28 07:48:32			0	35559	0	0	0	25285	23870	149420	26889	1020275	42903	109350	0	0	8154	655032	0	0
2024-06-28 07:49:32			0	35561	0	0	0	25293	23880	149428	26974	1020239	42904	109353	0	0	8154	654907	0	0
2024-06-28 07:50:32			0	35558	0	0	0	25288	23880	149468	26942	1020212	42915	109351	0	0	8154	655039	0	0
2024-06-28 07:51:32			0	35554	0	0	0	25293	23880	149424	27012	1020230	42914	109353	0	0	8154	655215	0	0
2024-06-28 07:52:32			0	35549	0	0	0	25301	23880	149388	26949	1020239	42904	109356	0	0	8154	655435	0	0
2024-06-28 07:53:32			0	35556	0	0	0	25296	23880	149428	27239	1020319	42904	109354	0	0	8154	655127	0	0
2024-06-28 07:54:32			0	35552	0	0	0	25306	23890	149488	27279	1020256	42905	109358	0	0	8154	655266	0	0
2024-06-28 07:55:32			0	35561	0	0	0	25309	23900	149408	26996	1020318	42905	109359	0	0	8154	654833	0	0
2024-06-28 07:56:32			0	35558	0	0	0	25319	23890	149392	27282	1020309	42905	109363	0	0	8154	655002	0	0
2024-06-28 07:57:32			0	35566	0	0	0	25316	23890	149384	27090	1020256	42916	109362	0	0	8154	654651	0	0
2024-06-28 07:58:32			0	35561	0	0	0	25324	23890	149448	27320	1020336	42905	109365	0	0	8154	654870	0	0
2024-06-28 07:59:32			0	35563	0	0	0	25319	23900	149408	26922	1020345	42894	109363	0	0	8154	654746	0	0
2024-06-28 08:00:32			0	35585	0	0	0	25322	23900	149368	27154	1020398	42916	109364	0	0	8155	653780	0	0
2024-06-28 08:01:32			0	35565	0	0	0	25324	23910	149388	27556	1020397	42907	109365	0	0	8154	654621	0	0
2024-06-28 08:02:32			0	35583	0	0	0	25329	23910	149384	27300	1020415	42907	109367	0	0	8155	653831	0	0
2024-06-28 08:03:32			0	35589	0	0	0	25327	23900	149288	27412	1020380	42906	109366	0	0	8155	653604	0	0
2024-06-28 08:04:32			0	35582	0	0	0	25332	23910	149260	26994	1020335	42896	109368	0	0	8155	653874	0	0
2024-06-28 08:05:32			0	35610	0	0	0	25327	23900	149176	27008	1020380	42906	109366	0	0	8156	652683	0	0
2024-06-28 08:06:32			0	35595	0	0	0	25337	23920	149172	27305	1020379	42917	109370	0	0	8156	653267	0	0
2024-06-28 08:07:32			0	35583	0	0	0	25337	23910	149272	27085	1020389	42896	109370	0	0	8155	653831	0	0
2024-06-28 08:08:32			0	35607	0	0	0	25348	23910	149248	26998	1020389	42917	109374	0	0	8156	652778	0	0
2024-06-28 08:09:32			0	35593	0	0	0	25340	23910	149276	27256	1020424	42896	109371	0	0	8155	653392	0	0
2024-06-28 08:10:32			0	35593	0	0	0	25353	23920	149192	27159	1020459	42907	109376	0	0	8155	653355	0	0
2024-06-28 08:11:32			0	35605	0	0	0	25353	23910	149172	27395	1020415	42907	109376	0	0	8156	652866	0	0
2024-06-28 08:12:32			0	35581	0	0	0	25345	23920	149228	27417	1020468	42896	109373	0	0	8155	653882	0	0
2024-06-28 08:13:32			0	35598	0	0	0	25350	23920	149216	27171	1020486	42917	109375	0	0	8156	653136	0	0
2024-06-28 08:14:32			0	35589	0	0	0	25345	23920	149292	27374	1020441	42908	109373	0	0	8155	653530	0	0
2024-06-28 08:15:32			0	35608	0	0	0	25340	23930	149136	27495	1020477	42897	109371	0	0	8156	652660	0	0
2024-06-28 08:16:32			0	35604	0	0	0	25327	23930	149136	27275	1020477	42909	109366	0	0	8156	652836	0	0
2024-06-28 08:17:32			0	35624	0	0	0	25327	23920	149152	27242	1020486	42917	109366	0	0	8157	651996	0	0
2024-06-28 08:18:32			0	35615	0	0	0	25327	23920	149116	27367	1020441	42908	109366	0	0	8157	652390	0	0
2024-06-28 08:19:32			0	35614	0	0	0	25332	23930	149032	27222	1020396	42909	109368	0	0	8157	652398	0	0
2024-06-28 08:20:32			0	35636	0	0	0	25327	23930	149100	27138	1020450	42909	109366	0	0	8158	651434	0	0
2024-06-28 08:21:32			0	35642	0	0	0	25327	23920	149072	27383	1020468	42908	109366	0	0	8158	651208	0	0
2024-06-28 08:22:32			0	35640	0	0	0	25332	23930	149056	27121	1020503	42909	109368	0	0	8158	651259	0	0
2024-06-28 08:23:32			0	35648	0	0	0	25342	23930	149000	27159	1020503	42919	109372	0	0	8158	650909	0	0
2024-06-28 08:24:32			0	35641	0	0	0	25350	23930	149048	27253	1020512	42919	109375	0	0	8158	651215	0	0
2024-06-28 08:25:32			0	35637	0	0	0	25366	23940	148992	27440	1020690	42931	109381	0	0	8157	651354	0	0
2024-06-28 08:26:32			0	35646	0	0	0	25366	23940	149072	27020	1020556	42920	109381	0	0	8158	650960	0	0
2024-06-28 08:27:32			0	35650	0	0	0	25366	23930	149040	27320	1020619	42897	109381	0	0	8158	650821	0	0
2024-06-28 08:28:32			0	35660	0	0	0	25379	23950	148988	27348	1020672	42921	109386	0	0	8159	650311	0	0
2024-06-28 08:29:32			0	35657	0	0	0	25384	23950	148996	27150	1020600	42922	109388	0	0	8158	650442	0	0
2024-06-28 08:30:32			0	35657	0	0	0	25386	23960	148904	27256	1020689	42922	109389	0	0	8158	650405	0	0
2024-06-28 08:31:32			0	35673	0	0	0	25394	23950	148856	27234	1020707	42922	109392	0	0	8159	649743	0	0
2024-06-28 08:32:32			0	35660	0	0	0	25407	23960	148808	27216	1020698	42911	109397	0	0	8158	650274	0	0
2024-06-28 08:33:32			0	35686	0	0	0	25412	23970	148884	27277	1020795	42924	109399	0	0	8159	649102	0	0
2024-06-28 08:34:32			0	35684	0	0	0	25415	23960	148964	26939	1020769	42922	109400	0	0	8159	649226	0	0
2024-06-28 08:35:32			0	35702	0	0	0	25431	23970	148780	27338	1020786	42923	109406	0	0	8160	648404	0	0
2024-06-28 08:36:32			0	35691	0	0	0	25423	23980	148784	27365	1020830	42924	109403	0	0	8160	648847	0	0
2024-06-28 08:37:32			0	35729	0	0	0	25431	23990	148688	27149	1020901	42925	109406	0	0	8162	647154	0	0
2024-06-28 08:38:32			0	35749	0	0	0	25431	23980	148636	27176	1020830	42913	109406	0	0	8163	646319	0	0
2024-06-28 08:39:32			0	35769	0	0	0	25438	23990	148504	27289	1020928	42925	109409	0	0	8164	645413	0	0
2024-06-28 08:40:32			0	35797	0	0	0	25441	23990	148468	27213	1020856	42915	109410	0	0	8165	644197	0	0
2024-06-28 08:41:32			0	35814	0	0	0	25441	23990	148256	27131	1020910	42915	109410	0	0	8166	643459	0	0
2024-06-28 08:42:32			0	35827	0	0	0	25431	24000	148148	27199	1020838	42926	109406	0	0	8167	642859	0	0
2024-06-28 08:43:32			0	35913	0	0	0	25415	23990	148045	27211	1020803	42904	109400	0	0	8172	639175	0	0
2024-06-28 08:44:32			0	35919	0	0	0	25418	23990	147769	27218	1020803	42915	109401	0	0	8172	638916	0	0
2024-06-28 08:45:32			0	35974	0	0	0	25412	24000	147609	27353	1020927	42905	109399	0	0	8175	636509	0	0
2024-06-28 08:46:32			0	36021	0	0	0	25420	23990	147429	27370	1020883	42904	109402	0	0	8177	634524	0	0
2024-06-28 08:47:32			0	36040	0	0	0	25402	23990	147369	27190	1020741	42914	109395	0	0	8179	633708	0	0
2024-06-28 08:48:32			0	36085	0	0	0	25389	23980	147145	27116	1020732	42913	109390	0	0	8181	631815	0	0
2024-06-28 08:49:32			0	36134	0	0	0	25374	23970	146865	27230	1020608	42902	109384	0	0	8184	629755	0	0
2024-06-28 08:50:32			0	36172	0	0	0	25350	23970	146817	27144	1020546	42901	109375	0	0	8186	628133	0	0
2024-06-28 08:51:32			0	36215	0	0	0	25332	23960	146717	27256	1020511	42900	109368	0	0	8189	626336	0	0
2024-06-28 08:52:32			0	36253	0	0	0	25340	23960	146477	27364	1020582	42900	109371	0	0	8191	624721	0	0
2024-06-28 08:53:32			0	36272	0	0	0	25340	23970	146489	27293	1020626	42912	109371	0	0	8192	623879	0	0
2024-06-28 08:54:32			0	36282	0	0	0	25342	23970	146329	27137	1020546	42912	109372	0	0	8192	623454	0	0
2024-06-28 08:55:32			0	36291	0	0	0	25332	23950	146361	27079	1020493	42900	109368	0	0	8193	623143	0	0
2024-06-28 08:56:32			0	36324	0	0	0	25314	23950	146217	27440	1020431	42899	109361	0	0	8195	621744	0	0
2024-06-28 08:57:32			0	36363	0	0	0	25285	23930	146101	27369	1020378	42897	109350	0	0	8197	620165	0	0
2024-06-28 08:58:32			0	36393	0	0	0	25277	23930	145961	27232	1020290	42909	109347	0	0	8199	618897	0	0
2024-06-28 08:59:32			0	36408	0	0	0	25270	23920	145897	27164	1020308	42908	109344	0	0	8200	618299	0	0
2024-06-28 09:00:32			0	36432	0	0	0	25264	23910	145797	27469	1020264	42907	109342	0	0	8201	617322	0	0
2024-06-28 09:01:32			0	36450	0	0	0	25254	23910	145757	27239	1020282	42907	109338	0	0	8202	616564	0	0
2024-06-28 09:02:32			0	36461	0	0	0	25257	23910	145641	27344	1020282	42896	109339	0	0	8203	616101	0	0
2024-06-28 09:03:32			0	36485	0	0	0	25254	23910	145725	27457	1020309	42896	109338	0	0	8204	615092	0	0
2024-06-28 09:04:32			0	36487	0	0	0	25267	23900	145665	27270	1020265	42894	109343	0	0	8204	615043	0	0
2024-06-28 09:05:32			0	36501	0	0	0	25262	23890	145737	27192	1020221	42894	109341	0	0	8205	614489	0	0
2024-06-28 09:06:32			0	36486	0	0	0	25264	23890	145657	27135	1020176	42905	109342	0	0	8204	615119	0	0
2024-06-28 09:07:32			0	36490	0	0	0	25251	23880	145705	27445	1020185	42881	109337	0	0	8204	614986	0	0
2024-06-28 09:08:32			0	36493	0	0	0	25246	23880	145621	27587	1020212	42893	109335	0	0	8205	614860	0	0
2024-06-28 09:09:32			0	36497	0	0	0	25288	23880	145605	27227	1020265	42915	109351	0	0	8204	614692	0	0
2024-06-28 09:10:32			0	36495	0	0	0	25290	23880	145581	27436	1020212	42904	109352	0	0	8204	614776	0	0
2024-06-28 09:11:32			0	36502	0	0	0	25283	23880	145637	27365	1020230	42892	109349	0	0	8205	614482	0	0
2024-06-28 09:12:32			0	36496	0	0	0	25288	23880	145745	27203	1020239	42904	109351	0	0	8204	614734	0	0
2024-06-28 09:13:32			0	36481	0	0	0	25314	23890	145805	27443	1020363	42916	109361	0	0	8203	615330	0	0
2024-06-28 09:14:32			0	36476	0	0	0	25309	23900	145733	27105	1020345	42905	109359	0	0	8203	615505	0	0
2024-06-28 09:15:32			0	36467	0	0	0	25314	23890	145793	27034	1020336	42916	109361	0	0	8202	615918	0	0
2024-06-28 09:16:32			0	36479	0	0	0	25298	23890	145757	27279	1020283	42905	109355	0	0	8203	615414	0	0
2024-06-28 09:17:32			0	36459	0	0	0	25296	23890	145809	27041	1020309	42905	109354	0	0	8202	616255	0	0
2024-06-28 09:18:32			0	36451	0	0	0	25290	23900	145781	27008	1020265	42916	109352	0	0	8202	616557	0	0
2024-06-28 09:19:32			0	36456	0	0	0	25303	23890	145873	27646	1020328	42905	109357	0	0	8202	616381	0	0
2024-06-28 09:20:32			0	36439	0	0	0	25296	23900	145861	27211	1020291	42905	109354	0	0	8201	617062	0	0
2024-06-28 09:21:32			0	36433	0	0	0	25296	23890	145865	27222	1020363	42916	109354	0	0	8201	617350	0	0
2024-06-28 09:22:32			0	36416	0	0	0	25316	23900	145941	27429	1020327	42916	109362	0	0	8200	618032	0	0
2024-06-28 09:23:32			0	36423	0	0	0	25316	23900	145969	27332	1020407	42916	109362	0	0	8200	617737	0	0
2024-06-28 09:24:32			0	36415	0	0	0	25353	23900	146037	27284	1020621	42939	109376	0	0	8199	618074	0	0
2024-06-28 09:25:32			0	36394	0	0	0	25399	23930	146017	27227	1020672	42930	109394	0	0	8197	618855	0	0
2024-06-28 09:26:32			0	36364	0	0	0	25431	23950	146129	27220	1020948	42944	109406	0	0	8195	620052	0	0
2024-06-28 09:27:32			0	36362	0	0	0	25470	23980	146113	27189	1021018	42935	109421	0	0	8194	620032	0	0
2024-06-28 09:28:32			0	36372	0	0	0	25475	23990	146141	27327	1020990	42937	109423	0	0	8195	619575	0	0
2024-06-28 09:29:32			0	36354	0	0	0	25462	24000	146177	27131	1021025	42926	109418	0	0	8194	620300	0	0
2024-06-28 09:30:32			0	36357	0	0	0	25475	24000	146077	27078	1021034	42926	109423	0	0	8194	620174	0	0
2024-06-28 09:31:32			0	36323	0	0	0	25490	24030	146133	27345	1021139	42918	109429	0	0	8192	621506	0	0
2024-06-28 09:32:32			0	36341	0	0	0	25496	24050	146121	27358	1021156	42919	109431	0	0	8193	620675	0	0
2024-06-28 09:33:32			0	36324	0	0	0	25509	24050	146213	27050	1021237	42919	109436	0	0	8192	621394	0	0
2024-06-28 09:34:32			0	36334	0	0	0	25540	24070	146241	27104	1021325	42943	109448	0	0	8192	620901	0	0
2024-06-28 09:35:32			0	36314	0	0	0	25571	24080	146357	27180	1021431	42956	109460	0	0	8191	621712	0	0
2024-06-28 09:36:32			0	36285	0	0	0	25586	24110	146397	27279	1021554	42958	109466	0	0	8189	622835	0	0
2024-06-28 09:37:32			0	36272	0	0	0	25612	24100	146477	27222	1021572	42936	109476	0	0	8188	623421	0	0
2024-06-28 09:38:32			0	36261	0	0	0	25628	24130	146441	27246	1021731	42950	109482	0	0	8187	623782	0	0
2024-06-28 09:39:32			0	36256	0	0	0	25646	24150	146425	27067	1021837	42952	109489	0	0	8187	623924	0	0
2024-06-28 09:40:32			0	36277	0	0	0	25670	24160	146497	27225	1021890	42953	109498	0	0	8187	622999	0	0
2024-06-28 09:41:32			0	36266	0	0	0	25690	24190	146465	27060	1021907	42955	109506	0	0	8187	623359	0	0
2024-06-28 09:42:32			0	36276	0	0	0	25693	24190	146257	27145	1021942	42955	109507	0	0	8187	622935	0	0
2024-06-28 09:43:32			0	36327	0	0	0	25701	24210	146173	27180	1022075	42957	109510	0	0	8190	620707	0	0
2024-06-28 09:44:32			0	36368	0	0	0	25711	24210	146061	27244	1022003	42935	109514	0	0	8192	618975	0	0
2024-06-28 09:45:32			0	36393	0	0	0	25719	24220	145957	27202	1022119	42958	109517	0	0	8193	617886	0	0
2024-06-28 09:46:32			0	36402	0	0	0	25724	24240	145833	27121	1022153	42937	109519	0	0	8193	617437	0	0
2024-06-28 09:47:32			0	36411	0	0	0	25737	24240	145665	27289	1022180	42959	109524	0	0	8194	617058	0	0
2024-06-28 09:48:32			0	36414	0	0	0	25737	24250	145749	27443	1022259	42951	109524	0	0	8194	616897	0	0
2024-06-28 09:49:32			0	36375	0	0	0	25740	24270	145813	27279	1022259	42963	109525	0	0	8192	618470	0	0
2024-06-28 09:50:32			0	36365	0	0	0	25755	24280	146081	27119	1022311	42964	109531	0	0	8191	618857	0	0
2024-06-28 09:51:32			0	36347	0	0	0	25755	24290	146073	27235	1022373	42954	109531	0	0	8190	619582	0	0
2024-06-28 09:52:32			0	36309	0	0	0	25732	24300	146141	27050	1022311	42954	109522	0	0	8189	621152	0	0
2024-06-28 09:53:32			0	36306	0	0	0	25690	24290	146217	27159	1022221	42943	109506	0	0	8189	621314	0	0
2024-06-28 09:54:32			0	36278	0	0	0	25644	24290	146321	27218	1022115	42932	109488	0	0	8188	622499	0	0
2024-06-28 09:55:32			0	36275	0	0	0	25555	24260	146317	26894	1021822	42918	109454	0	0	8190	622732	0	0
2024-06-28 09:56:32			0	36237	0	0	0	25467	24230	146301	27246	1021610	42905	109420	0	0	8189	624449	0	0
2024-06-28 09:57:32			0	36240	0	0	0	25402	24200	146385	27156	1021416	42901	109395	0	0	8190	624427	0	0
2024-06-28 09:58:32			0	36236	0	0	0	25374	24180	146381	27015	1021408	42910	109384	0	0	8190	624668	0	0
2024-06-28 09:59:32			0	36229	0	0	0	25363	24150	146337	27031	1021284	42907	109380	0	0	8190	625071	0	0
2024-06-28 10:00:32			0	36232	0	0	0	25353	24150	146409	27050	1021249	42918	109376	0	0	8190	624943	0	0
2024-06-28 10:01:32			0	36246	0	0	0	25363	24140	146445	27095	1021312	42917	109380	0	0	8191	624384	0	0
2024-06-28 10:02:32			0	36212	0	0	0	25394	24130	146489	26970	1021375	42926	109392	0	0	8188	625864	0	0
2024-06-28 10:03:32			0	36196	0	0	0	25415	24140	146661	27279	1021419	42939	109400	0	0	8187	626509	0	0
2024-06-28 10:04:32			0	36198	0	0	0	25457	24130	146709	26994	1021491	42950	109416	0	0	8187	626459	0	0
2024-06-28 10:05:32			0	36184	0	0	0	25470	24150	146673	27031	1021578	42940	109421	0	0	8186	626985	0	0
2024-06-28 10:06:32			0	36165	0	0	0	25527	24170	146813	27012	1021773	42942	109443	0	0	8184	627723	0	0
2024-06-28 10:07:32			0	36154	0	0	0	25607	24180	146877	27301	1022023	42976	109474	0	0	8182	628156	0	0
2024-06-28 10:08:32			0	36155	0	0	0	25688	24210	146857	27076	1022155	42968	109505	0	0	8181	628007	0	0
2024-06-28 10:09:32			0	36133	0	0	0	25753	24230	146901	27199	1022305	42970	109530	0	0	8179	628875	0	0
2024-06-28 10:10:32			0	36117	0	0	0	25794	24280	146989	27216	1022436	42974	109546	0	0	8177	629380	0	0
2024-06-28 10:11:32			0	36121	0	0	0	25818	24300	146861	27062	1022613	42966	109555	0	0	8177	629138	0	0
2024-06-28 10:12:32			0	36106	0	0	0	25831	24310	146985	27152	1022649	42966	109560	0	0	8176	629743	0	0
2024-06-28 10:13:32			0	36111	0	0	0	25854	24340	146885	26887	1022781	42958	109569	0	0	8176	629423	0	0
2024-06-28 10:14:32			0	36100	0	0	0	25880	24370	147025	26817	1022851	42982	109579	0	0	8175	629785	0	0
2024-06-28 10:15:32			0	36098	0	0	0	25883	24390	146957	27093	1022894	42985	109580	0	0	8175	629800	0	0
2024-06-28 10:16:32			0	36099	0	0	0	25888	24400	146893	27201	1022983	42964	109582	0	0	8175	629721	0	0
2024-06-28 10:17:32			0	36080	0	0	0	25903	24420	146905	27190	1022991	42955	109588	0	0	8174	630461	0	0
2024-06-28 10:18:32			0	36109	0	0	0	25906	24430	146937	27059	1023062	42966	109589	0	0	8176	629188	0	0
2024-06-28 10:19:32			0	36113	0	0	0	25916	24450	146921	27258	1023123	42981	109593	0	0	8176	628946	0	0
2024-06-28 10:20:32			0	36104	0	0	0	25924	24440	146861	26967	1023160	42967	109596	0	0	8175	629366	0	0
2024-06-28 10:21:32			0	36102	0	0	0	25940	24460	146893	27218	1023203	42981	109602	0	0	8175	629380	0	0
2024-06-28 10:22:32			0	36102	0	0	0	25940	24460	146837	27128	1023221	42981	109602	0	0	8175	629380	0	0
2024-06-28 10:23:32			0	36110	0	0	0	25942	24480	146969	27024	1023291	42995	109603	0	0	8175	628967	0	0
2024-06-28 10:24:32			0	36094	0	0	0	25950	24490	146753	26970	1023335	42973	109606	0	0	8174	629614	0	0
2024-06-28 10:25:32			0	36114	0	0	0	25955	24490	146745	27258	1023308	42984	109608	0	0	8175	628761	0	0
2024-06-28 10:26:32			0	36114	0	0	0	25955	24510	146809	27000	1023388	42986	109608	0	0	8175	628690	0	0
2024-06-28 10:27:32			0	36122	0	0	0	25958	24520	146669	27104	1023432	42987	109609	0	0	8176	628314	0	0
2024-06-28 10:28:32			0	36152	0	0	0	25958	24510	146725	27208	1023423	42975	109609	0	0	8177	627072	0	0
2024-06-28 10:29:32			0	36144	0	0	0	25968	24520	146605	27118	1023413	42976	109613	0	0	8177	627377	0	0
2024-06-28 10:30:32			0	36163	0	0	0	25976	24530	146521	27377	1023422	42977	109616	0	0	8178	626533	0	0
2024-06-28 10:31:32			0	36182	0	0	0	25968	24520	146481	27034	1023360	42976	109613	0	0	8179	625761	0	0
2024-06-28 10:32:32			0	36214	0	0	0	25958	24520	146361	27057	1023432	42987	109609	0	0	8181	624402	0	0
2024-06-28 10:33:32			0	36248	0	0	0	25963	24520	146305	27097	1023467	42976	109611	0	0	8182	622960	0	0
2024-06-28 10:34:32			0	36252	0	0	0	25950	24530	146217	27229	1023422	42965	109606	0	0	8183	622756	0	0
2024-06-28 10:35:32			0	36292	0	0	0	25968	24530	146113	26994	1023377	42966	109613	0	0	8185	621063	0	0
2024-06-28 10:36:32			0	36301	0	0	0	25961	24540	146065	27440	1023439	42978	109610	0	0	8185	620648	0	0
2024-06-28 10:37:32			0	36313	0	0	0	25976	24530	145973	27211	1023395	42977	109616	0	0	8186	620176	0	0
2024-06-28 10:38:32			0	36330	0	0	0	25973	24540	145805	27131	1023520	42978	109615	0	0	8187	619424	0	0
2024-06-28 10:39:32			0	36341	0	0	0	25979	24550	145849	27326	1023483	42990	109617	0	0	8187	618925	0	0
2024-06-28 10:40:32			0	36338	0	0	0	25979	24560	145841	27175	1023563	42979	109617	0	0	8187	619016	0	0
2024-06-28 10:41:32			0	36341	0	0	0	25999	24560	145881	27180	1023643	42979	109625	0	0	8187	618890	0	0
2024-06-28 10:42:32			0	36353	0	0	0	26012	24570	145805	27372	1023688	42981	109630	0	0	8187	618349	0	0
2024-06-28 10:43:32			0	36346	0	0	0	26041	24570	145769	27064	1023652	43002	109641	0	0	8186	618644	0	0
2024-06-28 10:44:32			0	36351	0	0	0	26062	24580	145841	27227	1023732	43015	109649	0	0	8186	618398	0	0
2024-06-28 10:45:32			0	36350	0	0	0	26077	24610	145789	27008	1023882	43006	109655	0	0	8186	618336	0	0
2024-06-28 10:46:32			0	36324	0	0	0	26090	24620	145901	27369	1023864	42996	109660	0	0	8185	619396	0	0
2024-06-28 10:47:32			0	36344	0	0	0	26080	24620	145825	27310	1023917	43007	109656	0	0	8186	618553	0	0
2024-06-28 10:48:32			0	36369	0	0	0	26077	24630	145765	27034	1023908	43008	109655	0	0	8187	617465	0	0
2024-06-28 10:49:32			0	36370	0	0	0	26072	24620	145665	27241	1023899	42997	109653	0	0	8187	617458	0	0
2024-06-28 10:50:32			0	36400	0	0	0	26057	24630	145537	27445	1023943	42997	109647	0	0	8189	616162	0	0
2024-06-28 10:51:32			0	36437	0	0	0	26054	24630	145333	27345	1023916	42997	109646	0	0	8191	614608	0	0
2024-06-28 10:52:32			0	36461	0	0	0	26064	24630	145265	27220	1023881	42986	109650	0	0	8192	613602	0	0
2024-06-28 10:53:32			0	36465	0	0	0	26062	24640	145337	27303	1023898	42998	109649	0	0	8193	613399	0	0
2024-06-28 10:54:32			0	36464	0	0	0	26054	24640	145325	27287	1023898	42998	109646	0	0	8193	613441	0	0
2024-06-28 10:55:32			0	36449	0	0	0	26051	24630	145361	27251	1023908	42997	109645	0	0	8192	614105	0	0
2024-06-28 10:56:32			0	36449	0	0	0	26049	24640	145437	27222	1023880	43009	109644	0	0	8192	614070	0	0
2024-06-28 10:57:32			0	36402	0	0	0	26036	24630	145457	27341	1023890	42975	109639	0	0	8190	616078	0	0
2024-06-28 10:58:32			0	36381	0	0	0	26028	24640	145561	27320	1023845	42998	109636	0	0	8189	616926	0	0
2024-06-28 10:59:32			0	36359	0	0	0	26020	24630	145885	27483	1023729	42997	109633	0	0	8188	617886	0	0
2024-06-28 11:00:32			0	36301	0	0	0	26015	24620	145877	27345	1023872	42975	109631	0	0	8185	620367	0	0
2024-06-28 11:01:32			0	36284	0	0	0	26010	24630	146133	27157	1023747	42986	109629	0	0	8184	621050	0	0
2024-06-28 11:02:32			0	36230	0	0	0	25999	24620	146217	27244	1023792	42986	109625	0	0	8181	623371	0	0
2024-06-28 11:03:32			0	36199	0	0	0	26015	24620	146285	27086	1023757	42996	109631	0	0	8179	624685	0	0
2024-06-28 11:04:32			0	36173	0	0	0	26015	24620	146481	27315	1023819	42986	109631	0	0	8178	625789	0	0
2024-06-28 11:05:32			0	36172	0	0	0	26025	24630	146577	27248	1023881	42997	109635	0	0	8178	625796	0	0
2024-06-28 11:06:32			0	36131	0	0	0	26044	24630	146641	27412	1023934	42997	109642	0	0	8175	627540	0	0
2024-06-28 11:07:32			0	36141	0	0	0	26051	24630	146577	26908	1023916	42986	109645	0	0	8176	627114	0	0
2024-06-28 11:08:32			0	36115	0	0	0	26051	24630	146621	27209	1023970	43008	109645	0	0	8174	628221	0	0
2024-06-28 11:09:32			0	36109	0	0	0	26077	24640	146629	27163	1024067	43009	109655	0	0	8174	628441	0	0
2024-06-28 11:10:32			0	36118	0	0	0	26093	24660	146693	27144	1024174	43033	109661	0	0	8174	627987	0	0
2024-06-28 11:11:32			0	36094	0	0	0	26114	24670	146781	27072	1024173	43012	109669	0	0	8172	628974	0	0
2024-06-28 11:12:32			0	36086	0	0	0	26122	24680	146765	27377	1024235	43012	109672	0	0	8172	629279	0	0
2024-06-28 11:13:32			0	36100	0	0	0	26127	24690	146773	27322	1024253	43002	109674	0	0	8173	628647	0	0
2024-06-28 11:14:32			0	36091	0	0	0	26132	24690	146585	27421	1024234	43014	109676	0	0	8172	629030	0	0
2024-06-28 11:15:32			0	36077	0	0	0	26135	24700	146713	27357	1024332	43015	109677	0	0	8171	629592	0	0
2024-06-28 11:16:32			0	36101	0	0	0	26129	24690	146705	27467	1024288	43003	109675	0	0	8173	628604	0	0
2024-06-28 11:17:32			0	36092	0	0	0	26140	24700	146633	27081	1024243	43004	109679	0	0	8172	628952	0	0
2024-06-28 11:18:32			0	36102	0	0	0	26150	24690	146617	27350	1024315	43003	109683	0	0	8172	628561	0	0
2024-06-28 11:19:32			0	36087	0	0	0	26155	24710	146589	27145	1024341	43004	109685	0	0	8171	629130	0	0
2024-06-28 11:20:32			0	36097	0	0	0	26189	24730	146681	27173	1024456	43018	109698	0	0	8172	628632	0	0
2024-06-28 11:21:32			0	36085	0	0	0	26210	24730	146633	26958	1024544	43029	109706	0	0	8171	629144	0	0
2024-06-28 11:22:32			0	36100	0	0	0	26218	24750	146617	27019	1024659	43031	109709	0	0	8171	628433	0	0
2024-06-28 11:23:32			0	36094	0	0	0	26259	24760	146677	27412	1024703	43022	109725	0	0	8170	628653	0	0
2024-06-28 11:24:32			0	36087	0	0	0	26280	24780	146617	27173	1024792	43023	109733	0	0	8170	628880	0	0
2024-06-28 11:25:32			0	36121	0	0	0	26283	24790	146617	27100	1024827	43023	109734	0	0	8171	627397	0	0
2024-06-28 11:26:32			0	36125	0	0	0	26280	24800	146557	26977	1024791	43024	109733	0	0	8172	627191	0	0
2024-06-28 11:27:32			0	36162	0	0	0	26288	24800	146441	27390	1024826	43025	109736	0	0	8174	625619	0	0
2024-06-28 11:28:32			0	36206	0	0	0	26277	24820	146297	27142	1024852	43015	109732	0	0	8176	623681	0	0
2024-06-28 11:29:32			0	36231	0	0	0	26296	24820	146133	27312	1024968	43016	109739	0	0	8177	622623	0	0
2024-06-28 11:30:32			0	36266	0	0	0	26306	24830	146013	27253	1024977	43028	109743	0	0	8179	621108	0	0
2024-06-28 11:31:32			0	36271	0	0	0	26319	24840	145781	27530	1025101	43028	109748	0	0	8179	620861	0	0
2024-06-28 11:32:32			0	36282	0	0	0	26340	24850	145789	27196	1025127	43030	109756	0	0	8179	620362	0	0
2024-06-28 11:33:32			0	36314	0	0	0	26355	24870	145809	27066	1025180	43042	109762	0	0	8181	618942	0	0
2024-06-28 11:34:32			0	36304	0	0	0	26366	24870	145757	27150	1025188	43042	109766	0	0	8180	619363	0	0
2024-06-28 11:35:32			0	36341	0	0	0	26379	24890	145697	26871	1025295	43044	109771	0	0	8182	617735	0	0
2024-06-28 11:36:32			0	36354	0	0	0	26386	24880	145701	27291	1025277	43042	109774	0	0	8182	617223	0	0
2024-06-28 11:37:32			0	36389	0	0	0	26392	24910	145569	27168	1025410	43046	109776	0	0	8184	615647	0	0
2024-06-28 11:38:32			0	36380	0	0	0	26392	24920	145585	27112	1025392	43047	109776	0	0	8184	615990	0	0
2024-06-28 11:39:32			0	36385	0	0	0	26407	24920	145445	27112	1025454	43047	109782	0	0	8184	615780	0	0
2024-06-28 11:40:32			0	36410	0	0	0	26420	24930	145449	27235	1025516	43036	109787	0	0	8185	614696	0	0
2024-06-28 11:41:32			0	36418	0	0	0	26433	24940	145397	27258	1025596	43038	109792	0	0	8185	614326	0	0
2024-06-28 11:42:32			0	36429	0	0	0	26438	24950	145281	27241	1025613	43061	109794	0	0	8186	613830	0	0
2024-06-28 11:43:32			0	36445	0	0	0	26454	24970	145177	27083	1025693	43063	109800	0	0	8186	613091	0	0
2024-06-28 11:44:32			0	36441	0	0	0	26457	24980	145273	27142	1025719	43053	109801	0	0	8186	613223	0	0
2024-06-28 11:45:32			0	36481	0	0	0	26467	24970	145089	27171	1025674	43051	109805	0	0	8188	611585	0	0
2024-06-28 11:46:32			0	36487	0	0	0	26459	24990	145077	27081	1025700	43042	109802	0	0	8189	611265	0	0
2024-06-28 11:47:32			0	36512	0	0	0	26454	24990	144961	27230	1025674	43032	109800	0	0	8190	610221	0	0
2024-06-28 11:48:32			0	36536	0	0	0	26451	24990	144829	27289	1025727	43042	109799	0	0	8191	609221	0	0
2024-06-28 11:49:32			0	36592	0	0	0	26459	24990	144722	27137	1025843	43042	109802	0	0	8194	606890	0	0
2024-06-28 11:50:32			0	36604	0	0	0	26467	25000	144638	27052	1025807	43055	109805	0	0	8195	606357	0	0
2024-06-28 11:51:32			0	36624	0	0	0	26470	25000	144522	27263	1025753	43055	109806	0	0	8196	605527	0	0
2024-06-28 11:52:32			0	36649	0	0	0	26454	25000	144454	27152	1025780	43022	109800	0	0	8197	604490	0	0
2024-06-28 11:53:32			0	36679	0	0	0	26436	25010	144386	27248	1025762	43044	109793	0	0	8199	603213	0	0
2024-06-28 11:54:32			0	36707	0	0	0	26423	25000	144286	27144	1025700	43044	109788	0	0	8201	602089	0	0
2024-06-28 11:55:32			0	36738	0	0	0	26418	25000	144162	27159	1025726	43044	109786	0	0	8203	600809	0	0
2024-06-28 11:56:32			0	36768	0	0	0	26420	25000	143982	26892	1025780	43044	109787	0	0	8204	599571	0	0
2024-06-28 11:57:32			0	36808	0	0	0	26399	25000	143910	27112	1025718	43043	109779	0	0	8207	597924	0	0
2024-06-28 11:58:32			0	36811	0	0	0	26381	25000	143770	27315	1025700	43044	109772	0	0	8207	597800	0	0
2024-06-28 11:59:32			0	36850	0	0	0	26355	25000	143698	27156	1025566	43044	109762	0	0	8209	596198	0	0
2024-06-28 12:00:32			0	36872	0	0	0	26337	24990	143602	27059	1025522	43032	109755	0	0	8211	595328	0	0
2024-06-28 12:01:32			0	36911	0	0	0	26316	24990	143482	26835	1025415	43032	109747	0	0	8213	593730	0	0
2024-06-28 12:02:32			0	36902	0	0	0	26311	24960	143486	27244	1025389	43030	109745	0	0	8213	594200	0	0
2024-06-28 12:03:32			0	36940	0	0	0	26298	24960	143362	27192	1025389	43019	109740	0	0	8215	592644	0	0
2024-06-28 12:04:32			0	36931	0	0	0	26296	24960	143294	27284	1025354	43018	109739	0	0	8215	593012	0	0
2024-06-28 12:05:32			0	36955	0	0	0	26306	24950	143270	27353	1025337	43027	109743	0	0	8216	592064	0	0
2024-06-28 12:06:32			0	36973	0	0	0	26293	24940	143354	27301	1025408	43038	109738	0	0	8217	591362	0	0
2024-06-28 12:07:32			0	36981	0	0	0	26303	24950	143226	27203	1025310	43038	109742	0	0	8217	591002	0	0
2024-06-28 12:08:32			0	36978	0	0	0	26314	24940	143230	27248	1025355	43027	109746	0	0	8217	591158	0	0
2024-06-28 12:09:32			0	36972	0	0	0	26309	24940	143238	27038	1025355	43049	109744	0	0	8216	591403	0	0
2024-06-28 12:10:32			0	36945	0	0	0	26306	24930	143358	27203	1025284	43026	109743	0	0	8215	592540	0	0
2024-06-28 12:11:32			0	36947	0	0	0	26319	24930	143358	27317	1025302	43036	109748	0	0	8215	592458	0	0
2024-06-28 12:12:32			0	36920	0	0	0	26337	24930	143478	27338	1025364	43026	109755	0	0	8213	593563	0	0
2024-06-28 12:13:32			0	36917	0	0	0	26332	24930	143510	27083	1025284	43015	109753	0	0	8213	593686	0	0
2024-06-28 12:14:32			0	36905	0	0	0	26327	24940	143546	27310	1025319	43038	109751	0	0	8213	594144	0	0
2024-06-28 12:15:32			0	36927	0	0	0	26319	24940	143482	26956	1025293	43027	109748	0	0	8214	593243	0	0
2024-06-28 12:16:32			0	36939	0	0	0	26314	24930	143330	27571	1025257	43015	109746	0	0	8215	592786	0	0
2024-06-28 12:17:32			0	36993	0	0	0	26306	24930	143198	27490	1025248	43025	109743	0	0	8217	590579	0	0
2024-06-28 12:18:32			0	37048	0	0	0	26290	24900	143074	27338	1025214	43035	109737	0	0	8220	588438	0	0
2024-06-28 12:19:32			0	37092	0	0	0	26298	24900	142834	27251	1025240	43012	109740	0	0	8223	586648	0	0
2024-06-28 12:20:32			0	37132	0	0	0	26311	24920	142806	27452	1025258	43025	109745	0	0	8225	584959	0	0
2024-06-28 12:21:32			0	37169	0	0	0	26306	24910	142694	27168	1025249	43024	109743	0	0	8227	583493	0	0
2024-06-28 12:22:32			0	37140	0	0	0	26309	24900	142570	27114	1025267	43023	109744	0	0	8225	584701	0	0
2024-06-28 12:23:32			0	37174	0	0	0	26303	24900	142550	27331	1025267	43012	109742	0	0	8227	583323	0	0
2024-06-28 12:24:32			0	37185	0	0	0	26309	24890	142574	27147	1025250	43012	109744	0	0	8227	582911	0	0
2024-06-28 12:25:32			0	37178	0	0	0	26306	24890	142518	27092	1025250	43035	109743	0	0	8227	583194	0	0
2024-06-28 12:26:32			0	37157	0	0	0	26311	24900	142558	27289	1025240	43035	109745	0	0	8226	584012	0	0
2024-06-28 12:27:32			0	37161	0	0	0	26309	24920	142582	27531	1025231	43047	109744	0	0	8226	583783	0	0
2024-06-28 12:28:32			0	37161	0	0	0	26309	24900	142646	27064	1025205	43012	109744	0	0	8226	583850	0	0
2024-06-28 12:29:32			0	37155	0	0	0	26309	24910	142670	27471	1025222	43036	109744	0	0	8226	584060	0	0
2024-06-28 12:30:32			0	37132	0	0	0	26311	24900	142678	27248	1025178	43023	109745	0	0	8224	585025	0	0
2024-06-28 12:31:32			0	37128	0	0	0	26311	24900	142746	27306	1025240	43023	109745	0	0	8224	585187	0	0
2024-06-28 12:32:32			0	37106	0	0	0	26314	24900	142782	27013	1025232	43035	109746	0	0	8223	586080	0	0
2024-06-28 12:33:32			0	37088	0	0	0	26311	24900	142838	27388	1025214	43035	109745	0	0	8222	586811	0	0
2024-06-28 12:34:32			0	37080	0	0	0	26309	24900	142982	27253	1025240	43045	109744	0	0	8222	587136	0	0
2024-06-28 12:35:32			0	37027	0	0	0	26311	24900	143118	27258	1025214	43035	109745	0	0	8219	589293	0	0
2024-06-28 12:36:32			0	37034	0	0	0	26327	24900	143078	27067	1025240	43035	109751	0	0	8219	589008	0	0
2024-06-28 12:37:32			0	37012	0	0	0	26319	24910	143170	27147	1025276	43024	109748	0	0	8218	589871	0	0
2024-06-28 12:38:32			0	36969	0	0	0	26329	24910	143262	27339	1025222	43036	109752	0	0	8216	591626	0	0
2024-06-28 12:39:32			0	36967	0	0	0	26322	24910	143382	27123	1025303	43036	109749	0	0	8216	591708	0	0
2024-06-28 12:40:32			0	36959	0	0	0	26332	24910	143506	27282	1025276	43046	109753	0	0	8215	592035	0	0
2024-06-28 12:41:32			0	36933	0	0	0	26335	24920	143514	27524	1025373	43047	109754	0	0	8214	593065	0	0
2024-06-28 12:42:32			0	36931	0	0	0	26348	24930	143518	27317	1025329	43036	109759	0	0	8214	593113	0	0
2024-06-28 12:43:32			0	36936	0	0	0	26335	24920	143486	27275	1025320	43025	109754	0	0	8214	592942	0	0
2024-06-28 12:44:32			0	36928	0	0	0	26342	24920	143550	27287	1025347	43036	109757	0	0	8213	593269	0	0
2024-06-28 12:45:32			0	36928	0	0	0	26335	24910	143482	27315	1025329	43036	109754	0	0	8214	593303	0	0
2024-06-28 12:46:32			0	36919	0	0	0	26337	24920	143462	27178	1025311	43036	109755	0	0	8213	593638	0	0
2024-06-28 12:47:32			0	36918	0	0	0	26332	24930	143454	27223	1025338	43037	109753	0	0	8213	593645	0	0
2024-06-28 12:48:32			0	36939	0	0	0	26335	24930	143442	27123	1025329	43036	109754	0	0	8214	592786	0	0
2024-06-28 12:49:32			0	36938	0	0	0	26316	24920	143486	27294	1025293	43047	109747	0	0	8214	592860	0	0
2024-06-28 12:50:32			0	36933	0	0	0	26324	24920	143498	27445	1025266	43025	109750	0	0	8214	593065	0	0
2024-06-28 12:51:32			0	36951	0	0	0	26329	24910	143474	27078	1025329	43036	109752	0	0	8215	592362	0	0
2024-06-28 12:52:32			0	36935	0	0	0	26324	24920	143514	27301	1025320	43036	109750	0	0	8214	592983	0	0
2024-06-28 12:53:32			0	36926	0	0	0	26329	24920	143446	27277	1025347	43036	109752	0	0	8214	593351	0	0
2024-06-28 12:54:32			0	36901	0	0	0	26329	24920	143478	27258	1025284	43036	109752	0	0	8212	594375	0	0
2024-06-28 12:55:32			0	36927	0	0	0	26329	24920	143474	27265	1025293	43047	109752	0	0	8214	593310	0	0
2024-06-28 12:56:32			0	36916	0	0	0	26335	24920	143510	27421	1025338	43036	109754	0	0	8213	593761	0	0
2024-06-28 12:57:32			0	36936	0	0	0	26332	24920	143514	27495	1025293	43025	109753	0	0	8214	592942	0	0
2024-06-28 12:58:32			0	36899	0	0	0	26345	24920	143538	27429	1025427	43025	109758	0	0	8212	594457	0	0
2024-06-28 12:59:32			0	36891	0	0	0	26345	24920	143558	27424	1025400	43036	109758	0	0	8211	594785	0	0
2024-06-28 13:00:32			0	36914	0	0	0	26335	24930	143514	27440	1025418	43026	109754	0	0	8213	593809	0	0
2024-06-28 13:01:32			0	36895	0	0	0	26340	24930	143574	27422	1025364	43037	109756	0	0	8212	594587	0	0
2024-06-28 13:02:32			0	36912	0	0	0	26329	24920	143546	27422	1025311	43036	109752	0	0	8213	593924	0	0
2024-06-28 13:03:32			0	36914	0	0	0	26345	24930	143570	27769	1025355	43036	109758	0	0	8213	593809	0	0
2024-06-28 13:04:32			0	36907	0	0	0	26353	24930	143610	27331	1025329	43036	109761	0	0	8212	594096	0	0
2024-06-28 13:05:32			0	36901	0	0	0	26353	24930	143606	27199	1025355	43036	109761	0	0	8212	594341	0	0
2024-06-28 13:06:32			0	36903	0	0	0	26348	24930	143538	27223	1025382	43036	109759	0	0	8212	594260	0	0
2024-06-28 13:07:32			0	36879	0	0	0	26350	24930	143742	27294	1025436	43036	109760	0	0	8211	595244	0	0
2024-06-28 13:08:32			0	36888	0	0	0	26358	24930	143670	27204	1025471	43037	109763	0	0	8211	594874	0	0
2024-06-28 13:09:32			0	36892	0	0	0	26368	24930	143650	27161	1025489	43036	109767	0	0	8211	594711	0	0
2024-06-28 13:10:32			0	36892	0	0	0	26379	24940	143730	27152	1025489	43049	109771	0	0	8211	594677	0	0
2024-06-28 13:11:32			0	36862	0	0	0	26376	24940	143778	27350	1025542	43038	109770	0	0	8209	595908	0	0
2024-06-28 13:12:32			0	36854	0	0	0	26392	24950	143734	26984	1025631	43049	109776	0	0	8209	596202	0	0
2024-06-28 13:13:32			0	36878	0	0	0	26454	24960	143722	27386	1025737	43041	109800	0	0	8209	595183	0	0
2024-06-28 13:14:32			0	36864	0	0	0	26464	24970	143770	27379	1025755	43041	109804	0	0	8208	595724	0	0
2024-06-28 13:15:32			0	36855	0	0	0	26462	24980	143826	27517	1025745	43065	109803	0	0	8208	596060	0	0
2024-06-28 13:16:32			0	36826	0	0	0	26506	25000	143786	27634	1025985	43054	109820	0	0	8206	597184	0	0
2024-06-28 13:17:32			0	36849	0	0	0	26524	25010	143890	27261	1026030	43066	109827	0	0	8207	596205	0	0
2024-06-28 13:18:32			0	36828	0	0	0	26522	25020	143874	27516	1026056	43046	109826	0	0	8206	597034	0	0
2024-06-28 13:19:32			0	36771	0	0	0	26532	25050	143974	27576	1026242	43060	109830	0	0	8203	599277	0	0
2024-06-28 13:20:32			0	36763	0	0	0	26561	25070	144026	27457	1026348	43083	109841	0	0	8202	599539	0	0
2024-06-28 13:21:32			0	36736	0	0	0	26607	25080	144126	27020	1026446	43073	109859	0	0	8200	600618	0	0
2024-06-28 13:22:32			0	36714	0	0	0	26641	25100	144206	27336	1026623	43097	109872	0	0	8198	601458	0	0
2024-06-28 13:23:32			0	36680	0	0	0	26685	25130	144398	27199	1026747	43089	109889	0	0	8196	602761	0	0
2024-06-28 13:24:32			0	36663	0	0	0	26748	25150	144406	27479	1026951	43092	109913	0	0	8194	603396	0	0
2024-06-28 13:25:32			0	36650	0	0	0	26792	25190	144546	27320	1027146	43117	109930	0	0	8192	603797	0	0
2024-06-28 13:26:32			0	36618	0	0	0	26818	25230	144654	27325	1027287	43087	109940	0	0	8191	604986	0	0
2024-06-28 13:27:32			0	36607	0	0	0	26851	25260	144542	27211	1027419	43113	109953	0	0	8190	605339	0	0
2024-06-28 13:28:32			0	36622	0	0	0	26870	25280	144650	27118	1027543	43126	109960	0	0	8190	604648	0	0
2024-06-28 13:29:32			0	36630	0	0	0	26916	25310	144558	26856	1027720	43118	109978	0	0	8190	604214	0	0
2024-06-28 13:30:32			0	36662	0	0	0	26932	25330	144390	27284	1027862	43120	109984	0	0	8191	602821	0	0
2024-06-28 13:31:32			0	36704	0	0	0	26966	25360	144094	27331	1027887	43100	109997	0	0	8193	600984	0	0
2024-06-28 13:32:32			0	36778	0	0	0	26981	25380	144030	27185	1027984	43103	110003	0	0	8197	597868	0	0
2024-06-28 13:33:32			0	36794	0	0	0	26979	25410	143802	27230	1028135	43117	110002	0	0	8198	597109	0	0
2024-06-28 13:34:32			0	36839	0	0	0	26984	25420	143558	27263	1028072	43117	110004	0	0	8200	595228	0	0
2024-06-28 13:35:32			0	36908	0	0	0	26950	25430	143306	27213	1028036	43107	109991	0	0	8204	592371	0	0
2024-06-28 13:36:32			0	36932	0	0	0	26924	25430	143190	27462	1027956	43096	109981	0	0	8206	591391	0	0
2024-06-28 13:37:32			0	36994	0	0	0	26890	25440	142982	27208	1027893	43085	109968	0	0	8210	588832	0	0
2024-06-28 13:38:32			0	37027	0	0	0	26807	25420	142794	27237	1027652	43074	109936	0	0	8213	587557	0	0
2024-06-28 13:39:32			0	37028	0	0	0	26753	25410	142858	27100	1027626	43061	109915	0	0	8214	587549	0	0
2024-06-28 13:40:32			0	37013	0	0	0	26716	25410	142786	27286	1027545	43073	109901	0	0	8214	588159	0	0
2024-06-28 13:41:32			0	37059	0	0	0	26657	25380	142670	27260	1027279	43046	109878	0	0	8217	586391	0	0
2024-06-28 13:42:32			0	37091	0	0	0	26592	25340	142506	26882	1026924	43022	109853	0	0	8219	585226	0	0
2024-06-28 13:43:32			0	37125	0	0	0	26527	25310	142450	27090	1026756	43018	109828	0	0	8222	583949	0	0
2024-06-28 13:44:32			0	37154	0	0	0	26483	25260	142386	27246	1026517	43002	109811	0	0	8224	582941	0	0
2024-06-28 13:45:32			0	37192	0	0	0	26436	25230	142246	27098	1026376	43021	109793	0	0	8227	581505	0	0
2024-06-28 13:46:32			0	37201	0	0	0	26412	25200	142182	27171	1026271	43018	109784	0	0	8228	581241	0	0
2024-06-28 13:47:32			0	37220	0	0	0	26397	25160	142150	27164	1026084	43015	109778	0	0	8229	580607	0	0
2024-06-28 13:48:32			0	37234	0	0	0	26384	25140	142006	27242	1026014	43024	109773	0	0	8230	580108	0	0
2024-06-28 13:49:32			0	37252	0	0	0	26379	25120	142142	27159	1025988	43022	109771	0	0	8231	579449	0	0
2024-06-28 13:50:32			0	37247	0	0	0	26366	25110	142134	27575	1026051	43055	109766	0	0	8230	579683	0	0
2024-06-28 13:51:32			0	37239	0	0	0	26366	25090	142178	27343	1025910	43042	109766	0	0	8230	580071	0	0
2024-06-28 13:52:32			0	37261	0	0	0	26371	25080	142190	27272	1025884	43029	109768	0	0	8231	579218	0	0
2024-06-28 13:53:32			0	37250	0	0	0	26371	25070	142222	27190	1025902	43040	109768	0	0	8230	579694	0	0
2024-06-28 13:54:32			0	37220	0	0	0	26381	25060	142290	27001	1025884	43050	109772	0	0	8229	580936	0	0
2024-06-28 13:55:32			0	37196	0	0	0	26412	25060	142386	27372	1026018	43050	109784	0	0	8227	581905	0	0
2024-06-28 13:56:32			0	37170	0	0	0	26444	25070	142506	27358	1026062	43062	109796	0	0	8225	582923	0	0
2024-06-28 13:57:32			0	37162	0	0	0	26457	25070	142554	27301	1025982	43062	109801	0	0	8224	583247	0	0
2024-06-28 13:58:32			0	37131	0	0	0	26451	25070	142606	27277	1026036	43050	109799	0	0	8223	584502	0	0
2024-06-28 13:59:32			0	37117	0	0	0	26438	25070	142678	27348	1026062	43050	109794	0	0	8222	585069	0	0
2024-06-28 14:00:32			0	37075	0	0	0	26444	25060	142658	27029	1026045	43050	109796	0	0	8220	586807	0	0
2024-06-28 14:01:32			0	37079	0	0	0	26431	25070	142834	27265	1025920	43062	109791	0	0	8220	586611	0	0
2024-06-28 14:02:32			0	37099	0	0	0	26425	25060	142838	27173	1025911	43050	109789	0	0	8222	585832	0	0
2024-06-28 14:03:32			0	37077	0	0	0	26433	25050	142922	27024	1025974	43049	109792	0	0	8220	586759	0	0
2024-06-28 14:04:32			0	37087	0	0	0	26428	25050	142822	27291	1025938	43060	109790	0	0	8221	586353	0	0
2024-06-28 14:05:32			0	37088	0	0	0	26423	25050	142914	27071	1025938	43049	109788	0	0	8221	586312	0	0
2024-06-28 14:06:32			0	37070	0	0	0	26425	25050	142958	27116	1025965	43049	109789	0	0	8220	587043	0	0
2024-06-28 14:07:32			0	37079	0	0	0	26433	25050	142998	27116	1025938	43038	109792	0	0	8220	586678	0	0
2024-06-28 14:08:32			0	37042	0	0	0	26441	25050	142918	27358	1026019	43049	109795	0	0	8218	588182	0	0
2024-06-28 14:09:32			0	37057	0	0	0	26449	25050	143002	27345	1025992	43038	109798	0	0	8219	587572	0	0
2024-06-28 14:10:32			0	37055	0	0	0	26454	25050	143038	27209	1026019	43049	109800	0	0	8219	587653	0	0
2024-06-28 14:11:32			0	37060	0	0	0	26459	25050	143006	27083	1026055	43049	109802	0	0	8219	587450	0	0
2024-06-28 14:12:32			0	37041	0	0	0	26480	25070	143006	27306	1026107	43040	109810	0	0	8218	588156	0	0
2024-06-28 14:13:32			0	37034	0	0	0	26480	25060	143006	27595	1026179	43050	109810	0	0	8217	588474	0	0
2024-06-28 14:14:32			0	37017	0	0	0	26511	25070	143014	27216	1026268	43062	109822	0	0	8216	589133	0	0
2024-06-28 14:15:32			0	37023	0	0	0	26524	25080	143122	27343	1026232	43062	109827	0	0	8216	588855	0	0
2024-06-28 14:16:32			0	37010	0	0	0	26519	25090	143066	27150	1026249	43041	109825	0	0	8215	589351	0	0
2024-06-28 14:17:32			0	37010	0	0	0	26506	25080	143170	27445	1026187	43051	109820	0	0	8216	589384	0	0
2024-06-28 14:18:32			0	36994	0	0	0	26498	25090	143206	27303	1026329	43052	109817	0	0	8215	590003	0	0
2024-06-28 14:19:32			0	37002	0	0	0	26535	25100	143154	27152	1026427	43065	109831	0	0	8215	589644	0	0
2024-06-28 14:20:32			0	36982	0	0	0	26537	25110	143054	27424	1026426	43078	109832	0	0	8214	590425	0	0
2024-06-28 14:21:32			0	37015	0	0	0	26576	25130	143150	27374	1026693	43079	109847	0	0	8215	589014	0	0
2024-06-28 14:22:32			0	36997	0	0	0	26620	25150	143074	27485	1026835	43081	109864	0	0	8213	589680	0	0
2024-06-28 14:23:32			0	36986	0	0	0	26670	25170	143158	27854	1026825	43083	109883	0	0	8212	590061	0	0
2024-06-28 14:24:32			0	36991	0	0	0	26680	25200	143098	27332	1026887	43074	109887	0	0	8212	589757	0	0
2024-06-28 14:25:32			0	36970	0	0	0	26675	25200	143130	27322	1026949	43085	109885	0	0	8211	590613	0	0
2024-06-28 14:26:32			0	36973	0	0	0	26698	25230	143214	27374	1027072	43098	109894	0	0	8211	590390	0	0
2024-06-28 14:27:32			0	36979	0	0	0	26711	25250	143082	27334	1027241	43079	109899	0	0	8211	590079	0	0
2024-06-28 14:28:32			0	36946	0	0	0	26781	25270	143142	27324	1027499	43114	109926	0	0	8208	591358	0	0
2024-06-28 14:29:32			0	36940	0	0	0	26794	25300	143254	27281	1027435	43083	109931	0	0	8208	591502	0	0
2024-06-28 14:30:32			0	36940	0	0	0	26763	25300	143182	27215	1027247	43061	109919	0	0	8209	591502	0	0
2024-06-28 14:31:32			0	36941	0	0	0	26724	25290	143210	27362	1027176	43048	109904	0	0	8209	591494	0	0
2024-06-28 14:32:32			0	36945	0	0	0	26693	25270	143158	27251	1027097	43059	109892	0	0	8210	591398	0	0
2024-06-28 14:33:32			0	36955	0	0	0	26657	25260	143146	27365	1026946	43069	109878	0	0	8211	591024	0	0
2024-06-28 14:34:32			0	36948	0	0	0	26625	25250	143174	27046	1026901	43045	109866	0	0	8211	591343	0	0
2024-06-28 14:35:32			0	36948	0	0	0	26610	25250	143210	26911	1026893	43023	109860	0	0	8211	591343	0	0
2024-06-28 14:36:32			0	36943	0	0	0	26581	25250	143258	27372	1026786	43067	109849	0	0	8212	591547	0	0
2024-06-28 14:37:32			0	36939	0	0	0	26571	25230	143158	27031	1026644	43043	109845	0	0	8211	591778	0	0
2024-06-28 14:38:32			0	36940	0	0	0	26545	25210	143102	27097	1026591	43052	109835	0	0	8212	591804	0	0
2024-06-28 14:39:32			0	36927	0	0	0	26532	25200	143242	27431	1026601	43052	109830	0	0	8211	592369	0	0
2024-06-28 14:40:32			0	36929	0	0	0	26524	25180	143258	27327	1026521	43050	109827	0	0	8212	592354	0	0
2024-06-28 14:41:32			0	36916	0	0	0	26519	25170	143314	27296	1026548	43048	109825	0	0	8211	592919	0	0
2024-06-28 14:42:32			0	36928	0	0	0	26532	25170	143246	27499	1026584	43039	109830	0	0	8211	592429	0	0
2024-06-28 14:43:32			0	36917	0	0	0	26540	25180	143298	27376	1026539	43049	109833	0	0	8211	592845	0	0
2024-06-28 14:44:32			0	36917	0	0	0	26540	25170	143382	27244	1026637	43061	109833	0	0	8211	592878	0	0
2024-06-28 14:45:32			0	36915	0	0	0	26542	25170	143382	27171	1026629	43060	109834	0	0	8210	592960	0	0
2024-06-28 14:46:32			0	36909	0	0	0	26540	25180	143314	27298	1026512	43061	109833	0	0	8210	593172	0	0
2024-06-28 14:47:32			0	36896	0	0	0	26550	25180	143350	27308	1026593	43049	109837	0	0	8209	593704	0	0
2024-06-28 14:48:32			0	36906	0	0	0	26550	25190	143406	27168	1026637	43062	109837	0	0	8210	593261	0	0
2024-06-28 14:49:32			0	36912	0	0	0	26545	25170	143390	27157	1026611	43049	109835	0	0	8210	593083	0	0
2024-06-28 14:50:32			0	36904	0	0	0	26561	25180	143358	27331	1026735	43062	109841	0	0	8210	593377	0	0
2024-06-28 14:51:32			0	36909	0	0	0	26561	25180	143382	27168	1026682	43050	109841	0	0	8210	593172	0	0
2024-06-28 14:52:32			0	36883	0	0	0	26688	25210	143426	27022	1027198	43119	109890	0	0	8206	594135	0	0
2024-06-28 14:53:32			0	36902	0	0	0	26810	25240	143478	27270	1027304	43099	109937	0	0	8206	593256	0	0
2024-06-28 14:54:32			0	36896	0	0	0	26768	25270	143482	27194	1027231	43070	109921	0	0	8206	593401	0	0
2024-06-28 14:55:32			0	36884	0	0	0	26789	25270	143490	27211	1027472	43092	109929	0	0	8205	593892	0	0
2024-06-28 14:56:32			0	36862	0	0	0	26864	25320	143466	27507	1027765	43108	109958	0	0	8203	594624	0	0
2024-06-28 14:57:32			0	36887	0	0	0	26909	25350	143522	27332	1027950	43099	109975	0	0	8204	593499	0	0
2024-06-28 14:58:32			0	36851	0	0	0	26924	25390	143538	27633	1027939	43091	109981	0	0	8202	594838	0	0
2024-06-28 14:59:32			0	36840	0	0	0	26880	25390	143554	27365	1027814	43059	109964	0	0	8202	595289	0	0
2024-06-28 15:00:32			0	36845	0	0	0	26838	25380	143590	27587	1027601	43058	109948	0	0	8203	595118	0	0
2024-06-28 15:01:32			0	36858	0	0	0	26797	25370	143526	27407	1027619	43057	109932	0	0	8204	594619	0	0
2024-06-28 15:02:32			0	36869	0	0	0	26784	25370	143494	27467	1027610	43068	109927	0	0	8205	594168	0	0
2024-06-28 15:03:32			0	36873	0	0	0	26758	25350	143398	27346	1027370	43043	109917	0	0	8205	594072	0	0
2024-06-28 15:04:32			0	36873	0	0	0	26719	25330	143398	27223	1027228	43064	109902	0	0	8206	594140	0	0
2024-06-28 15:05:32			0	36868	0	0	0	26672	25320	143434	27268	1027122	43052	109884	0	0	8206	594378	0	0
2024-06-28 15:06:32			0	36879	0	0	0	26638	25300	143454	27249	1027006	43050	109871	0	0	8207	593995	0	0
2024-06-28 15:07:32			0	36876	0	0	0	26625	25290	143426	27249	1027043	43027	109866	0	0	8208	594152	0	0
2024-06-28 15:08:32			0	36883	0	0	0	26610	25280	143406	27196	1027034	43048	109860	0	0	8208	593899	0	0
2024-06-28 15:09:32			0	36897	0	0	0	26602	25270	143402	27438	1026936	43047	109857	0	0	8209	593360	0	0
2024-06-28 15:10:32			0	36885	0	0	0	26599	25270	143450	27088	1026954	43058	109856	0	0	8208	593851	0	0
2024-06-28 15:11:32			0	36902	0	0	0	26610	25270	143378	27473	1026927	43058	109860	0	0	8209	593155	0	0
2024-06-28 15:12:32			0	36882	0	0	0	26607	25260	143406	27154	1026972	43046	109859	0	0	8208	594007	0	0
2024-06-28 15:13:32			0	36884	0	0	0	26597	25260	143298	27046	1026946	43058	109855	0	0	8208	593926	0	0
2024-06-28 15:14:32			0	36885	0	0	0	26605	25260	143398	27391	1026964	43068	109858	0	0	8208	593885	0	0
2024-06-28 15:15:32			0	36891	0	0	0	26594	25250	143370	26955	1026901	43045	109854	0	0	8209	593673	0	0
2024-06-28 15:16:32			0	36898	0	0	0	26584	25240	143478	27364	1026857	43034	109850	0	0	8209	593420	0	0
2024-06-28 15:17:32			0	36907	0	0	0	26594	25240	143414	27365	1026857	43056	109854	0	0	8209	593052	0	0
2024-06-28 15:18:32			0	36908	0	0	0	26581	25240	143366	27428	1026849	43066	109849	0	0	8210	593011	0	0
2024-06-28 15:19:32			0	36907	0	0	0	26579	25240	143406	27284	1026876	43055	109848	0	0	8210	593052	0	0
2024-06-28 15:20:32			0	36923	0	0	0	26566	25230	143430	26982	1026724	43054	109843	0	0	8211	592431	0	0
2024-06-28 15:21:32			0	36911	0	0	0	26558	25220	143494	27415	1026689	43032	109840	0	0	8210	592956	0	0
2024-06-28 15:22:32			0	36900	0	0	0	26553	25210	143366	27291	1026591	43041	109838	0	0	8210	593439	0	0
2024-06-28 15:23:32			0	36920	0	0	0	26542	25200	143434	27530	1026601	43030	109834	0	0	8211	592655	0	0
2024-06-28 15:24:32			0	36934	0	0	0	26527	25180	143346	27469	1026548	43062	109828	0	0	8212	592150	0	0
2024-06-28 15:25:32			0	36978	0	0	0	26524	25180	143354	27196	1026521	43050	109827	0	0	8214	590354	0	0
2024-06-28 15:26:32			0	36953	0	0	0	26522	25180	143330	27405	1026566	43039	109826	0	0	8213	591374	0	0
2024-06-28 15:27:32			0	36965	0	0	0	26511	25170	143174	27137	1026548	43048	109822	0	0	8214	590918	0	0
2024-06-28 15:28:32			0	36977	0	0	0	26522	25160	143230	27355	1026486	43048	109826	0	0	8214	590462	0	0
2024-06-28 15:29:32			0	36974	0	0	0	26519	25160	143246	27222	1026513	43048	109825	0	0	8214	590584	0	0
2024-06-28 15:30:32			0	36980	0	0	0	26519	25160	143186	27381	1026513	43060	109825	0	0	8214	590339	0	0
2024-06-28 15:31:32			0	36966	0	0	0	26532	25170	143194	27065	1026629	43038	109830	0	0	8213	590877	0	0
2024-06-28 15:32:32			0	36967	0	0	0	26537	25170	143254	27131	1026611	43061	109832	0	0	8213	590836	0	0
2024-06-28 15:33:32			0	36990	0	0	0	26555	25180	143154	27400	1026673	43049	109839	0	0	8214	589865	0	0
2024-06-28 15:34:32			0	36956	0	0	0	26558	25180	143254	27267	1026789	43073	109840	0	0	8212	591251	0	0
2024-06-28 15:35:32			0	36946	0	0	0	26584	25200	143354	27211	1026922	43063	109850	0	0	8211	591593	0	0
2024-06-28 15:36:32			0	36940	0	0	0	26615	25210	143354	27294	1026913	43075	109862	0	0	8211	591804	0	0
2024-06-28 15:37:32			0	36932	0	0	0	26607	25220	143410	27268	1026903	43054	109859	0	0	8210	592097	0	0
2024-06-28 15:38:32			0	36930	0	0	0	26607	25230	143326	27192	1026974	43044	109859	0	0	8210	592145	0	0
2024-06-28 15:39:32			0	36925	0	0	0	26623	25230	143318	27421	1026947	43055	109865	0	0	8210	592350	0	0
2024-06-28 15:40:32			0	36930	0	0	0	26607	25230	143370	27284	1026947	43055	109859	0	0	8210	592145	0	0
2024-06-28 15:41:32			0	36910	0	0	0	26610	25240	143398	27109	1027018	43056	109860	0	0	8209	592929	0	0
2024-06-28 15:42:32			0	36914	0	0	0	26612	25250	143402	27519	1027000	43056	109861	0	0	8210	592732	0	0
2024-06-28 15:43:32			0	36906	0	0	0	26641	25250	143390	27015	1027080	43067	109872	0	0	8209	593059	0	0
2024-06-28 15:44:32			0	36888	0	0	0	26696	25270	143506	27175	1027311	43070	109893	0	0	8207	593728	0	0
2024-06-28 15:45:32			0	36880	0	0	0	26768	25290	143530	27435	1027498	43093	109921	0	0	8205	593988	0	0
2024-06-28 15:46:32			0	36904	0	0	0	26807	25310	143358	27360	1027649	43084	109936	0	0	8206	592939	0	0
2024-06-28 15:47:32			0	36903	0	0	0	26797	25330	143378	27464	1027514	43076	109932	0	0	8206	592912	0	0
2024-06-28 15:48:32			0	36923	0	0	0	26771	25340	143290	27699	1027505	43065	109922	0	0	8208	592061	0	0
2024-06-28 15:49:32			0	36918	0	0	0	26766	25330	143346	27190	1027487	43064	109920	0	0	8207	592299	0	0
2024-06-28 15:50:32			0	36939	0	0	0	26755	25330	143194	27367	1027523	43064	109916	0	0	8209	591442	0	0
2024-06-28 15:51:32			0	36935	0	0	0	26753	25340	143250	27448	1027594	43066	109915	0	0	8209	591571	0	0
2024-06-28 15:52:32			0	36929	0	0	0	26745	25350	143294	27189	1027468	43055	109912	0	0	8209	591783	0	0
2024-06-28 15:53:32			0	36917	0	0	0	26714	25330	143286	27306	1027362	43064	109900	0	0	8208	592340	0	0
2024-06-28 15:54:32			0	36932	0	0	0	26688	25340	143294	27253	1027371	43054	109890	0	0	8210	591694	0	0
2024-06-28 15:55:32			0	36941	0	0	0	26685	25330	143214	27639	1027353	43064	109889	0	0	8210	591360	0	0
2024-06-28 15:56:32			0	36942	0	0	0	26690	25330	143294	27232	1027434	43053	109891	0	0	8210	591319	0	0
2024-06-28 15:57:32			0	36947	0	0	0	26701	25330	143202	27036	1027460	43064	109895	0	0	8210	591115	0	0
2024-06-28 15:58:32			0	36955	0	0	0	26742	25340	143230	27222	1027567	43077	109911	0	0	8210	590755	0	0
2024-06-28 15:59:32			0	36948	0	0	0	26768	25360	143106	27204	1027646	43089	109921	0	0	8209	590974	0	0
2024-06-28 16:00:32			0	36966	0	0	0	26779	25360	143174	27220	1027700	43078	109925	0	0	8210	590240	0	0
2024-06-28 16:01:32			0	36929	0	0	0	26794	25380	143194	27045	1027735	43080	109931	0	0	8208	591682	0	0
2024-06-28 16:02:32			0	36953	0	0	0	26799	25380	143190	27046	1027743	43081	109933	0	0	8209	590703	0	0
2024-06-28 16:03:32			0	36964	0	0	0	26792	25380	143158	27144	1027797	43091	109930	0	0	8210	590254	0	0
2024-06-28 16:04:32			0	36954	0	0	0	26789	25390	143150	27187	1027761	43071	109929	0	0	8209	590628	0	0
2024-06-28 16:05:32			0	36974	0	0	0	26794	25400	143066	27128	1027850	43071	109931	0	0	8210	589780	0	0
2024-06-28 16:06:32			0	36971	0	0	0	26797	25400	143126	26968	1027796	43071	109932	0	0	8210	589902	0	0
2024-06-28 16:07:32			0	36967	0	0	0	26786	25410	143126	27315	1027787	43083	109928	0	0	8210	590031	0	0
2024-06-28 16:08:32			0	36980	0	0	0	26784	25400	143050	27223	1027778	43072	109927	0	0	8211	589535	0	0
2024-06-28 16:09:32			0	36962	0	0	0	26792	25410	143050	27204	1027787	43061	109930	0	0	8210	590235	0	0
2024-06-28 16:10:32			0	36965	0	0	0	26781	25410	143062	27274	1027768	43061	109926	0	0	8210	590113	0	0
2024-06-28 16:11:32			0	36974	0	0	0	26763	25400	143054	27227	1027689	43071	109919	0	0	8211	589780	0	0
2024-06-28 16:12:32			0	36987	0	0	0	26745	25390	143074	27249	1027707	43059	109912	0	0	8212	589284	0	0
2024-06-28 16:13:32			0	36974	0	0	0	26740	25390	143030	27362	1027680	43059	109910	0	0	8211	589813	0	0
2024-06-28 16:14:32			0	36972	0	0	0	26750	25380	143006	27312	1027690	43070	109914	0	0	8211	589928	0	0
2024-06-28 16:15:32			0	36978	0	0	0	26748	25390	143074	27391	1027645	43047	109913	0	0	8211	589650	0	0
2024-06-28 16:16:32			0	36982	0	0	0	26761	25390	143130	27166	1027752	43070	109918	0	0	8211	589487	0	0
2024-06-28 16:17:32			0	36970	0	0	0	26789	25390	143118	27267	1027895	43082	109929	0	0	8210	589976	0	0
2024-06-28 16:18:32			0	36976	0	0	0	26828	25410	143078	27364	1027947	43094	109944	0	0	8210	589665	0	0
2024-06-28 16:19:32			0	36973	0	0	0	26833	25420	143078	27301	1027884	43094	109946	0	0	8210	589753	0	0
2024-06-28 16:20:32			0	36995	0	0	0	26823	25420	143058	26994	1027858	43073	109942	0	0	8211	588858	0	0
2024-06-28 16:21:32			0	36967	0	0	0	26815	25410	143038	27196	1027822	43073	109939	0	0	8210	590031	0	0
2024-06-28 16:22:32			0	36974	0	0	0	26825	25420	143034	27031	1027920	43084	109943	0	0	8210	589713	0	0
2024-06-28 16:23:32			0	36956	0	0	0	26833	25420	143102	27173	1027911	43073	109946	0	0	8209	590446	0	0
2024-06-28 16:24:32			0	36957	0	0	0	26836	25430	143054	27220	1027956	43074	109947	0	0	8209	590372	0	0
2024-06-28 16:25:32			0	36962	0	0	0	26836	25420	143138	27104	1027920	43084	109947	0	0	8209	590201	0	0
2024-06-28 16:26:32			0	36968	0	0	0	26823	25440	143138	26963	1027946	43085	109942	0	0	8210	589890	0	0
2024-06-28 16:27:32			0	36968	0	0	0	26825	25430	143142	27185	1027937	43074	109943	0	0	8210	589924	0	0
2024-06-28 16:28:32			0	36949	0	0	0	26833	25420	143098	26953	1027920	43084	109946	0	0	8208	590731	0	0
2024-06-28 16:29:32			0	36958	0	0	0	26833	25430	143146	27187	1027956	43074	109946	0	0	8209	590331	0	0
2024-06-28 16:30:32			0	36970	0	0	0	26844	25430	143078	27265	1027991	43085	109950	0	0	8209	589842	0	0
2024-06-28 16:31:32			0	36970	0	0	0	26849	25440	143090	27093	1027946	43085	109952	0	0	8209	589809	0	0
2024-06-28 16:32:32			0	36968	0	0	0	26851	25440	143094	27135	1028089	43075	109953	0	0	8209	589890	0	0
2024-06-28 16:33:32			0	36962	0	0	0	26862	25440	143082	27462	1028062	43086	109957	0	0	8209	590134	0	0
2024-06-28 16:34:32			0	36958	0	0	0	26867	25460	143102	27183	1028123	43099	109959	0	0	8208	590230	0	0
2024-06-28 16:35:32			0	36948	0	0	0	26870	25460	143198	27272	1028142	43087	109960	0	0	8208	590638	0	0
2024-06-28 16:36:32			0	36944	0	0	0	26877	25470	143234	27251	1028186	43078	109963	0	0	8208	590767	0	0
2024-06-28 16:37:32			0	36941	0	0	0	26896	25470	143214	27301	1028186	43100	109970	0	0	8207	590890	0	0
2024-06-28 16:38:32			0	36914	0	0	0	26880	25470	143186	27348	1028141	43068	109964	0	0	8206	591992	0	0
2024-06-28 16:39:32			0	36923	0	0	0	26857	25470	143342	27227	1028141	43068	109955	0	0	8207	591624	0	0
2024-06-28 16:40:32			0	36907	0	0	0	26854	25460	143358	27281	1028123	43055	109954	0	0	8206	592311	0	0
2024-06-28 16:41:32			0	36916	0	0	0	26854	25480	143394	26949	1028096	43089	109954	0	0	8207	591876	0	0
2024-06-28 16:42:32			0	36897	0	0	0	26857	25470	143326	27142	1028114	43079	109955	0	0	8205	592686	0	0
2024-06-28 16:43:32			0	36895	0	0	0	26864	25480	143338	27104	1028105	43089	109958	0	0	8205	592734	0	0
2024-06-28 16:44:32			0	36887	0	0	0	26862	25470	143282	27133	1028114	43089	109957	0	0	8205	593095	0	0
2024-06-28 16:45:32			0	36887	0	0	0	26854	25470	143342	27512	1028060	43079	109954	0	0	8205	593095	0	0
2024-06-28 16:46:32			0	36879	0	0	0	26841	25460	143386	27019	1028016	43088	109949	0	0	8205	593455	0	0
2024-06-28 16:47:32			0	36886	0	0	0	26846	25470	143362	27428	1028025	43078	109951	0	0	8205	593135	0	0
2024-06-28 16:48:32			0	36900	0	0	0	26831	25460	143386	26979	1028088	43087	109945	0	0	8206	592597	0	0
2024-06-28 16:49:32			0	36891	0	0	0	26833	25460	143346	27270	1028061	43087	109946	0	0	8206	592965	0	0
2024-06-28 16:50:32			0	36903	0	0	0	26831	25460	143362	27253	1027990	43088	109945	0	0	8206	592474	0	0
2024-06-28 16:51:32			0	36902	0	0	0	26812	25450	143238	27116	1027999	43054	109938	0	0	8206	592549	0	0
2024-06-28 16:52:32			0	36898	0	0	0	26818	25450	143322	27246	1028017	43087	109940	0	0	8206	592712	0	0
2024-06-28 16:53:32			0	36907	0	0	0	26805	25450	143246	27403	1027999	43087	109935	0	0	8207	592345	0	0
2024-06-28 16:54:32			0	36923	0	0	0	26805	25450	143314	27281	1027937	43087	109935	0	0	8208	591691	0	0
2024-06-28 16:55:32			0	36946	0	0	0	26781	25440	143170	27121	1027848	43064	109926	0	0	8209	590787	0	0
2024-06-28 16:56:32			0	36960	0	0	0	26776	25430	143146	26989	1027857	43063	109924	0	0	8210	590250	0	0
2024-06-28 16:57:32			0	36955	0	0	0	26781	25420	143122	27223	1027813	43062	109926	0	0	8210	590487	0	0
2024-06-28 16:58:32			0	36937	0	0	0	26773	25420	143174	27133	1027750	43073	109923	0	0	8209	591221	0	0
2024-06-28 16:59:32			0	36963	0	0	0	26761	25410	143138	26901	1027768	43073	109918	0	0	8210	590194	0	0
2024-06-28 17:00:32			0	36969	0	0	0	26742	25410	143186	26870	1027715	43061	109911	0	0	8211	589950	0	0
2024-06-28 17:01:32			0	36951	0	0	0	26750	25400	143098	27251	1027742	43071	109914	0	0	8210	590717	0	0
2024-06-28 17:02:32			0	36960	0	0	0	26763	25400	143170	27033	1027716	43059	109919	0	0	8210	590350	0	0
2024-06-28 17:03:32			0	36960	0	0	0	26761	25400	143110	27267	1027689	43071	109918	0	0	8210	590350	0	0
2024-06-28 17:04:32			0	36974	0	0	0	26761	25400	143082	27263	1027662	43059	109918	0	0	8211	589780	0	0
2024-06-28 17:05:32			0	37000	0	0	0	26763	25390	143106	27150	1027672	43070	109919	0	0	8212	588755	0	0
2024-06-28 17:06:32			0	36970	0	0	0	26758	25390	143042	26908	1027618	43070	109917	0	0	8211	589976	0	0
2024-06-28 17:07:32			0	36983	0	0	0	26763	25390	143070	27289	1027672	43070	109919	0	0	8211	589447	0	0
2024-06-28 17:08:32			0	37003	0	0	0	26761	25390	143110	27164	1027618	43081	109918	0	0	8212	588633	0	0
2024-06-28 17:09:32			0	37003	0	0	0	26763	25380	143058	27166	1027654	43069	109919	0	0	8212	588666	0	0
2024-06-28 17:10:32			0	37036	0	0	0	26755	25380	142990	26913	1027690	43081	109916	0	0	8214	587325	0	0
2024-06-28 17:11:32			0	37022	0	0	0	26781	25400	143006	27289	1027858	43093	109926	0	0	8213	587827	0	0
2024-06-28 17:12:32			0	37036	0	0	0	26812	25400	142974	27270	1027885	43093	109938	0	0	8213	587258	0	0
2024-06-28 17:13:32			0	37047	0	0	0	26812	25420	143010	27398	1027973	43084	109938	0	0	8214	586744	0	0
2024-06-28 17:14:32			0	37024	0	0	0	26797	25430	143018	27062	1027982	43074	109932	0	0	8213	587645	0	0
2024-06-28 17:15:32			0	37017	0	0	0	26799	25420	143038	27112	1027866	43062	109933	0	0	8212	587963	0	0
2024-06-28 17:16:32			0	37016	0	0	0	26792	25420	143086	27251	1027750	43061	109930	0	0	8213	588004	0	0
2024-06-28 17:17:32			0	36991	0	0	0	26784	25410	143154	27417	1027733	43073	109927	0	0	8211	589054	0	0
2024-06-28 17:18:32			0	36976	0	0	0	26768	25410	143222	27201	1027787	43073	109921	0	0	8211	589665	0	0
2024-06-28 17:19:32			0	36965	0	0	0	26771	25400	143310	27293	1027751	43083	109922	0	0	8210	590146	0	0
2024-06-28 17:20:32			0	36945	0	0	0	26771	25400	143266	27119	1027769	43071	109922	0	0	8209	590962	0	0
2024-06-28 17:21:32			0	36952	0	0	0	26768	25400	143278	27152	1027751	43072	109921	0	0	8210	590676	0	0
2024-06-28 17:22:32			0	36978	0	0	0	26755	25390	143306	27171	1027645	43059	109916	0	0	8211	589650	0	0
2024-06-28 17:23:32			0	36932	0	0	0	26758	25380	143306	27176	1027636	43059	109917	0	0	8209	591559	0	0
2024-06-28 17:24:32			0	36929	0	0	0	26758	25380	143334	27251	1027556	43070	109917	0	0	8208	591682	0	0
2024-06-28 17:25:32			0	36936	0	0	0	26740	25380	143306	27185	1027574	43069	109910	0	0	8209	591396	0	0
2024-06-28 17:26:32			0	36921	0	0	0	26727	25370	143374	27312	1027530	43057	109905	0	0	8208	592042	0	0
2024-06-28 17:27:32			0	36914	0	0	0	26722	25380	143358	27079	1027547	43080	109903	0	0	8208	592294	0	0
2024-06-28 17:28:32			0	36920	0	0	0	26701	25340	143510	27194	1027352	43043	109895	0	0	8209	592184	0	0
2024-06-28 17:29:32			0	36911	0	0	0	26690	25340	143446	27163	1027317	43054	109891	0	0	8208	592552	0	0
2024-06-28 17:30:32			0	36911	0	0	0	26677	25320	143502	27350	1027291	43041	109886	0	0	8209	592619	0	0
2024-06-28 17:31:32			0	36903	0	0	0	26670	25310	143566	27140	1027193	43062	109883	0	0	8208	592980	0	0
2024-06-28 17:32:32			0	36901	0	0	0	26657	25320	143558	27265	1027202	43052	109878	0	0	8208	593028	0	0
2024-06-28 17:33:32			0	36886	0	0	0	26651	25300	143606	27345	1027221	43050	109876	0	0	8208	593709	0	0
2024-06-28 17:34:32			0	36858	0	0	0	26662	25300	143674	27145	1027230	43073	109880	0	0	8206	594855	0	0
2024-06-28 17:35:32			0	36843	0	0	0	26654	25290	143854	27398	1027212	43072	109877	0	0	8205	595504	0	0
2024-06-28 17:36:32			0	36839	0	0	0	26646	25290	143818	27564	1027176	43071	109874	0	0	8205	595668	0	0
2024-06-28 17:37:32			0	36831	0	0	0	26654	25290	143926	27336	1027185	43049	109877	0	0	8205	595996	0	0
2024-06-28 17:38:32			0	36781	0	0	0	26638	25280	143942	27050	1027141	43071	109871	0	0	8202	598084	0	0
2024-06-28 17:39:32			0	36752	0	0	0	26633	25290	144138	27364	1027203	43071	109869	0	0	8201	599244	0	0
2024-06-28 17:40:32			0	36721	0	0	0	26649	25280	144210	27343	1027186	43060	109875	0	0	8199	600556	0	0
2024-06-28 17:41:32			0	36727	0	0	0	26654	25270	144270	27332	1027195	43069	109877	0	0	8199	600342	0	0
2024-06-28 17:42:32			0	36702	0	0	0	26664	25280	144350	27218	1027221	43048	109881	0	0	8198	601340	0	0
2024-06-28 17:43:32			0	36678	0	0	0	26670	25280	144422	27315	1027221	43071	109883	0	0	8196	602331	0	0
2024-06-28 17:44:32			0	36661	0	0	0	26683	25290	144402	27275	1027257	43071	109888	0	0	8195	603000	0	0
2024-06-28 17:45:32			0	36645	0	0	0	26688	25290	144534	27358	1027337	43071	109890	0	0	8194	603661	0	0
2024-06-28 17:46:32			0	36648	0	0	0	26696	25300	144602	27422	1027417	43073	109893	0	0	8194	603503	0	0
2024-06-28 17:47:32			0	36606	0	0	0	26729	25310	144682	27237	1027506	43084	109906	0	0	8192	605208	0	0
2024-06-28 17:48:32			0	36596	0	0	0	26748	25330	144662	27220	1027568	43076	109913	0	0	8191	605554	0	0
2024-06-28 17:49:32			0	36595	0	0	0	26742	25340	144757	27235	1027558	43076	109911	0	0	8191	605561	0	0
2024-06-28 17:50:32			0	36571	0	0	0	26729	25340	144765	27483	1027513	43077	109906	0	0	8190	606557	0	0
2024-06-28 17:51:32			0	36561	0	0	0	26732	25350	144861	27201	1027575	43077	109907	0	0	8190	606938	0	0
2024-06-28 17:52:32			0	36578	0	0	0	26729	25340	144825	27275	1027478	43065	109906	0	0	8190	606267	0	0
2024-06-28 17:53:32			0	36535	0	0	0	26719	25340	144817	27182	1027531	43065	109902	0	0	8188	608053	0	0
2024-06-28 17:54:32			0	36547	0	0	0	26716	25340	144929	27333	1027478	43065	109901	0	0	8189	607554	0	0
2024-06-28 17:55:32			0	36547	0	0	0	26711	25330	144861	27376	1027460	43064	109899	0	0	8189	607589	0	0
2024-06-28 17:56:32			0	36575	0	0	0	26709	25330	144725	27310	1027460	43053	109898	0	0	8191	606426	0	0
2024-06-28 17:57:32			0	36574	0	0	0	26724	25340	144765	27216	1027585	43076	109904	0	0	8190	606433	0	0
2024-06-28 17:58:32			0	36580	0	0	0	26753	25340	144773	27249	1027647	43099	109915	0	0	8190	606184	0	0
2024-06-28 17:59:32			0	36602	0	0	0	26786	25360	144674	27305	1027700	43078	109928	0	0	8191	605202	0	0
2024-06-28 18:00:32			0	36605	0	0	0	26781	25370	144698	27235	1027690	43079	109926	0	0	8191	605044	0	0
2024-06-28 18:01:32			0	36613	0	0	0	26773	25360	144590	27400	1027700	43067	109923	0	0	8192	604746	0	0
2024-06-28 18:02:32			0	36613	0	0	0	26763	25370	144602	27232	1027646	43079	109919	0	0	8192	604712	0	0
2024-06-28 18:03:32			0	36599	0	0	0	26732	25360	144686	27116	1027539	43078	109907	0	0	8192	605327	0	0
2024-06-28 18:04:32			0	36597	0	0	0	26711	25350	144670	27251	1027450	43033	109899	0	0	8192	605444	0	0
2024-06-28 18:05:32			0	36604	0	0	0	26683	25340	144730	27272	1027424	43054	109888	0	0	8193	605188	0	0
2024-06-28 18:06:32			0	36584	0	0	0	26683	25330	144821	27242	1027380	43053	109888	0	0	8191	606052	0	0
2024-06-28 18:07:32			0	36599	0	0	0	26683	25330	144762	26982	1027434	43076	109888	0	0	8192	605430	0	0
2024-06-28 18:08:32			0	36595	0	0	0	26701	25320	144802	27303	1027523	43063	109895	0	0	8192	605630	0	0
2024-06-28 18:09:32			0	36613	0	0	0	26740	25340	144642	27152	1027781	43088	109910	0	0	8192	604815	0	0
2024-06-28 18:10:32			0	36606	0	0	0	26802	25390	144674	27090	1027939	43091	109934	0	0	8191	604933	0	0
2024-06-28 18:11:32			0	36614	0	0	0	26844	25400	144586	27178	1028099	43093	109950	0	0	8191	604568	0	0
2024-06-28 18:12:32			0	36612	0	0	0	26909	25440	144618	26930	1028544	43153	109975	0	0	8190	604513	0	0
2024-06-28 18:13:32			0	36621	0	0	0	27028	25500	144566	27144	1028961	43147	110021	0	0	8188	603934	0	0
2024-06-28 18:14:32			0	36602	0	0	0	27070	25550	144510	27211	1029102	43140	110037	0	0	8187	604549	0	0
2024-06-28 18:15:32			0	36617	0	0	0	27083	25600	144578	27053	1029162	43124	110042	0	0	8188	603756	0	0
2024-06-28 18:16:32			0	36641	0	0	0	27067	25630	144318	27287	1029232	43093	110036	0	0	8189	602661	0	0
2024-06-28 18:17:32			0	36678	0	0	0	27062	25650	144294	26902	1029374	43118	110034	0	0	8191	601065	0	0
2024-06-28 18:18:32			0	36718	0	0	0	27085	25680	144146	26974	1029426	43109	110043	0	0	8193	599315	0	0
2024-06-28 18:19:32			0	36740	0	0	0	27119	25710	143962	27258	1029648	43124	110056	0	0	8194	598308	0	0
2024-06-28 18:20:32			0	36747	0	0	0	27153	25730	143898	26946	1029567	43091	110069	0	0	8194	597952	0	0
2024-06-28 18:21:32			0	36762	0	0	0	27124	25720	143774	27209	1029344	43090	110058	0	0	8195	597370	0	0
2024-06-28 18:22:32			0	36780	0	0	0	27085	25720	143654	27270	1029228	43068	110043	0	0	8197	596631	0	0
2024-06-28 18:23:32			0	36781	0	0	0	27085	25710	143650	27256	1029238	43079	110043	0	0	8197	596624	0	0
2024-06-28 18:24:32			0	36805	0	0	0	27046	25700	143690	26948	1029113	43078	110028	0	0	8198	595674	0	0
2024-06-28 18:25:32			0	36820	0	0	0	27106	25700	143642	26955	1029443	43122	110051	0	0	8198	595059	0	0
2024-06-28 18:26:32			0	36832	0	0	0	27137	25710	143558	27066	1029380	43113	110063	0	0	8198	594534	0	0
2024-06-28 18:27:32			0	36848	0	0	0	27124	25720	143494	27268	1029496	43113	110058	0	0	8199	593845	0	0
2024-06-28 18:28:32			0	36864	0	0	0	27127	25730	143478	27436	1029388	43092	110059	0	0	8200	593158	0	0
2024-06-28 18:29:32			0	36866	0	0	0	27142	25730	143382	27137	1029630	43125	110065	0	0	8200	593076	0	0
2024-06-28 18:30:32			0	36878	0	0	0	27184	25760	143294	27246	1029762	43139	110081	0	0	8200	592484	0	0
2024-06-28 18:31:32			0	36886	0	0	0	27244	25790	143258	27364	1029958	43152	110104	0	0	8200	592056	0	0
2024-06-28 18:32:32			0	36901	0	0	0	27288	25810	143238	27320	1030109	43155	110121	0	0	8200	591377	0	0
2024-06-28 18:33:32			0	36904	0	0	0	27327	25840	143202	27376	1030268	43147	110136	0	0	8199	591154	0	0
2024-06-28 18:34:32			0	36910	0	0	0	27368	25880	143190	26845	1030463	43162	110152	0	0	8199	590775	0	0
2024-06-28 18:35:32			0	36894	0	0	0	27394	25910	143326	27048	1030649	43164	110162	0	0	8198	591326	0	0
2024-06-28 18:36:32			0	36869	0	0	0	27402	25940	143398	27223	1030791	43167	110165	0	0	8197	592244	0	0
2024-06-28 18:37:32			0	36866	0	0	0	27394	25970	143398	26904	1030727	43147	110162	0	0	8197	592265	0	0
2024-06-28 18:38:32			0	36860	0	0	0	27337	25970	143518	27171	1030601	43137	110140	0	0	8198	592510	0	0
2024-06-28 18:39:32			0	36848	0	0	0	27301	25980	143450	27163	1030530	43115	110126	0	0	8198	592966	0	0
2024-06-28 18:40:32			0	36840	0	0	0	27241	25960	143458	27216	1030093	43069	110103	0	0	8198	593361	0	0
2024-06-28 18:41:32			0	36810	0	0	0	27176	25910	143546	27339	1029871	43064	110078	0	0	8197	594757	0	0
2024-06-28 18:42:32			0	36805	0	0	0	27103	25870	143502	27003	1029587	43060	110050	0	0	8198	595097	0	0
2024-06-28 18:43:32			0	36813	0	0	0	27062	25830	143510	26890	1029304	43056	110034	0	0	8199	594905	0	0
2024-06-28 18:44:32			0	36852	0	0	0	27025	25800	143474	27029	1029332	43076	110020	0	0	8202	593411	0	0
2024-06-28 18:45:32			0	36870	0	0	0	26999	25770	143370	27039	1029235	43106	110010	0	0	8203	592777	0	0
2024-06-28 18:46:32			0	36899	0	0	0	26992	25770	143294	27230	1029315	43095	110007	0	0	8205	591594	0	0
2024-06-28 18:47:32			0	36913	0	0	0	26979	25750	143226	27090	1029182	43072	110002	0	0	8205	591090	0	0
2024-06-28 18:48:32			0	36962	0	0	0	26979	25730	143058	27171	1029147	43092	110002	0	0	8208	589162	0	0
2024-06-28 18:49:32			0	36955	0	0	0	26994	25720	142978	27119	1029156	43113	110008	0	0	8207	589480	0	0
2024-06-28 18:50:32			0	36978	0	0	0	27023	25730	143030	27109	1029353	43114	110019	0	0	8208	588511	0	0
2024-06-28 18:51:32			0	36995	0	0	0	27062	25750	142954	27149	1029522	43126	110034	0	0	8208	587753	0	0
2024-06-28 18:52:32			0	36990	0	0	0	27129	25760	143006	27130	1029843	43128	110060	0	0	8207	587923	0	0
2024-06-28 18:53:32			0	36994	0	0	0	27236	25800	142962	27208	1029975	43153	110101	0	0	8206	587627	0	0
2024-06-28 18:54:32			0	37012	0	0	0	27254	25810	142962	27530	1029975	43111	110108	0	0	8206	586863	0	0
2024-06-28 18:55:32			0	37023	0	0	0	27254	25830	142726	27324	1029974	43133	110108	0	0	8207	586350	0	0
2024-06-28 18:56:32			0	37080	0	0	0	27249	25840	142674	27038	1030054	43135	110106	0	0	8210	584008	0	0
2024-06-28 18:57:32			0	37106	0	0	0	27301	25870	142474	27301	1030338	43126	110126	0	0	8211	582858	0	0
2024-06-28 18:58:32			0	37143	0	0	0	27290	25880	142414	27166	1030168	43128	110122	0	0	8213	581332	0	0
2024-06-28 18:59:32			0	37173	0	0	0	27251	25870	142258	27301	1030132	43116	110107	0	0	8215	580157	0	0
2024-06-28 19:00:32			0	37199	0	0	0	27205	25870	142178	27140	1029864	43094	110089	0	0	8217	579111	0	0
2024-06-28 19:01:32			0	37207	0	0	0	27153	25850	142166	27336	1029669	43081	110069	0	0	8218	578855	0	0
2024-06-28 19:02:32			0	37209	0	0	0	27101	25820	142122	27277	1029456	43067	110049	0	0	8219	578874	0	0
2024-06-28 19:03:32			0	37197	0	0	0	27051	25800	142270	27398	1029439	43076	110030	0	0	8219	579423	0	0
2024-06-28 19:04:32			0	37178	0	0	0	27044	25780	142294	27154	1029565	43118	110027	0	0	8218	580253	0	0
2024-06-28 19:05:32			0	37186	0	0	0	27046	25780	142346	27431	1029592	43118	110028	0	0	8219	579931	0	0
2024-06-28 19:06:32			0	37180	0	0	0	27046	25790	142342	27194	1029529	43085	110028	0	0	8218	580140	0	0
2024-06-28 19:07:32			0	37160	0	0	0	27038	25790	142338	27358	1029475	43108	110025	0	0	8217	580945	0	0
2024-06-28 19:08:32			0	37165	0	0	0	27049	25770	142326	27274	1029529	43095	110029	0	0	8217	580810	0	0
2024-06-28 19:09:32			0	37182	0	0	0	27085	25790	142302	27149	1029716	43130	110043	0	0	8218	580059	0	0
2024-06-28 19:10:32			0	37177	0	0	0	27111	25800	142214	27275	1029814	43109	110053	0	0	8217	580227	0	0
2024-06-28 19:11:32			0	37183	0	0	0	27135	25810	142254	27022	1029939	43143	110062	0	0	8217	579953	0	0
2024-06-28 19:12:32			0	37199	0	0	0	27179	25830	142146	27118	1030143	43134	110079	0	0	8217	579243	0	0
2024-06-28 19:13:32			0	37212	0	0	0	27238	25870	142078	27213	1030338	43160	110102	0	0	8217	578589	0	0
2024-06-28 19:14:32			0	37233	0	0	0	27249	25890	142018	26750	1030355	43129	110106	0	0	8218	577679	0	0
2024-06-28 19:15:32			0	37294	0	0	0	27241	25890	141854	27104	1030248	43118	110103	0	0	8221	575234	0	0
2024-06-28 19:16:32			0	37319	0	0	0	27238	25900	141715	27319	1030256	43096	110102	0	0	8223	574202	0	0
2024-06-28 19:17:32			0	37339	0	0	0	27231	25910	141599	27222	1030274	43120	110099	0	0	8224	573370	0	0
2024-06-28 19:18:32			0	37360	0	0	0	27202	25890	141531	27088	1030140	43107	110088	0	0	8225	572597	0	0
2024-06-28 19:19:32			0	37369	0	0	0	27171	25890	141623	27123	1029917	43096	110076	0	0	8226	572238	0	0
2024-06-28 19:20:32			0	37365	0	0	0	27122	25850	141555	26885	1029642	43070	110057	0	0	8227	572528	0	0
2024-06-28 19:21:32			0	37361	0	0	0	27064	25820	141611	27092	1029313	43055	110035	0	0	8228	572785	0	0
2024-06-28 19:22:32			0	37353	0	0	0	27015	25770	141567	27209	1029181	43062	110016	0	0	8228	573268	0	0
2024-06-28 19:23:32			0	37356	0	0	0	26979	25750	141695	27098	1029146	43048	110002	0	0	8228	573213	0	0
2024-06-28 19:24:32			0	37346	0	0	0	26953	25730	141779	27114	1029058	43091	109992	0	0	8228	573678	0	0
2024-06-28 19:25:32			0	37326	0	0	0	26919	25710	141731	27287	1028898	43068	109979	0	0	8228	574543	0	0
2024-06-28 19:26:32			0	37316	0	0	0	26896	25670	141811	27370	1028801	43064	109970	0	0	8227	575074	0	0
2024-06-28 19:27:32			0	37322	0	0	0	26929	25660	141939	27505	1028971	43084	109983	0	0	8227	574867	0	0
2024-06-28 19:28:32			0	37306	0	0	0	26961	25670	141858	27388	1028953	43097	109995	0	0	8226	575475	0	0
2024-06-28 19:29:32			0	37326	0	0	0	26963	25670	141867	27015	1028926	43097	109996	0	0	8227	574674	0	0
2024-06-28 19:30:32			0	37326	0	0	0	26968	25670	141822	27346	1028926	43085	109998	0	0	8227	574674	0	0
2024-06-28 19:31:32			0	37333	0	0	0	26979	25670	141799	27386	1029087	43097	110002	0	0	8227	574394	0	0
2024-06-28 19:32:32			0	37330	0	0	0	26979	25670	141863	27168	1028926	43097	110002	0	0	8227	574514	0	0
2024-06-28 19:33:32			0	37311	0	0	0	26963	25650	141890	26902	1028838	43073	109996	0	0	8226	575340	0	0
2024-06-28 19:34:32			0	37333	0	0	0	26935	25640	141883	27268	1028713	43071	109985	0	0	8228	574492	0	0
2024-06-28 19:35:32			0	37386	0	0	0	26903	25620	141819	27289	1028572	43069	109973	0	0	8231	572439	0	0
2024-06-28 19:36:32			0	37364	0	0	0	26877	25600	141759	27222	1028483	43079	109963	0	0	8230	573383	0	0
2024-06-28 19:37:32			0	37370	0	0	0	26870	25580	141843	27263	1028564	43078	109960	0	0	8230	573209	0	0
2024-06-28 19:38:32			0	37383	0	0	0	26922	25590	141759	27234	1028743	43100	109980	0	0	8230	572657	0	0
2024-06-28 19:39:32			0	37381	0	0	0	26981	25590	141811	27019	1028823	43111	110003	0	0	8229	572736	0	0
2024-06-28 19:40:32			0	37362	0	0	0	26999	25610	141855	27067	1028876	43114	110010	0	0	8228	573430	0	0
2024-06-28 19:41:32			0	37330	0	0	0	27025	25610	141907	27511	1028956	43125	110020	0	0	8226	574710	0	0
2024-06-28 19:42:32			0	37352	0	0	0	27059	25630	141855	27145	1029018	43116	110033	0	0	8226	573765	0	0
2024-06-28 19:43:32			0	37347	0	0	0	27075	25640	141891	27414	1029035	43116	110039	0	0	8226	573932	0	0
2024-06-28 19:44:32			0	37349	0	0	0	27075	25640	141899	27034	1029071	43117	110039	0	0	8226	573852	0	0
2024-06-28 19:45:32			0	37362	0	0	0	27080	25630	141771	27504	1029053	43104	110041	0	0	8227	573365	0	0
2024-06-28 19:46:32			0	37376	0	0	0	27064	25640	141855	27157	1029142	43093	110035	0	0	8228	572773	0	0
2024-06-28 19:47:32			0	37373	0	0	0	27059	25650	141743	27149	1029088	43106	110033	0	0	8228	572860	0	0
2024-06-28 19:48:32			0	37390	0	0	0	27059	25660	141763	27124	1029097	43095	110033	0	0	8228	572149	0	0
2024-06-28 19:49:32			0	37411	0	0	0	27057	25660	141711	27104	1029123	43106	110032	0	0	8230	571312	0	0
2024-06-28 19:50:32			0	37416	0	0	0	27057	25660	141627	27024	1029132	43119	110032	0	0	8230	571112	0	0
2024-06-28 19:51:32			0	37411	0	0	0	27036	25660	141631	27341	1029159	43119	110024	0	0	8230	571312	0	0
2024-06-28 19:52:32			0	37423	0	0	0	27033	25660	141595	27145	1029078	43107	110023	0	0	8231	570833	0	0
2024-06-28 19:53:32			0	37412	0	0	0	26999	25650	141635	27220	1028865	43084	110010	0	0	8231	571304	0	0
2024-06-28 19:54:32			0	37404	0	0	0	26984	25640	141679	27270	1028803	43105	110004	0	0	8230	571656	0	0
2024-06-28 19:55:32			0	37401	0	0	0	26958	25630	141639	27421	1028803	43093	109994	0	0	8231	571808	0	0
2024-06-28 19:56:32			0	37412	0	0	0	26942	25610	141651	27074	1028769	43103	109988	0	0	8231	571434	0	0
2024-06-28 19:57:32			0	37413	0	0	0	26940	25610	141639	27121	1028742	43103	109987	0	0	8231	571395	0	0
2024-06-28 19:58:32			0	37385	0	0	0	26937	25600	141691	27275	1028706	43090	109986	0	0	8230	572544	0	0
2024-06-28 19:59:32			0	37398	0	0	0	26948	25600	141759	27246	1028760	43102	109990	0	0	8231	572025	0	0
2024-06-28 20:00:32			0	37402	0	0	0	26932	25590	141779	27267	1028635	43100	109984	0	0	8231	571898	0	0
2024-06-28 20:01:32			0	37389	0	0	0	26935	25580	141775	27156	1028618	43100	109985	0	0	8230	572450	0	0
2024-06-28 20:02:32			0	37359	0	0	0	26948	25580	141803	27166	1028609	43099	109990	0	0	8228	573648	0	0
2024-06-28 20:03:32			0	37379	0	0	0	26945	25580	141799	26833	1028645	43100	109989	0	0	8229	572849	0	0
2024-06-28 20:04:32			0	37379	0	0	0	26966	25580	141855	26875	1028779	43111	109997	0	0	8229	572849	0	0
2024-06-28 20:05:32			0	37351	0	0	0	26979	25590	141971	26996	1028743	43122	110002	0	0	8228	573935	0	0
2024-06-28 20:06:32			0	37331	0	0	0	26981	25580	142111	27154	1028725	43111	110003	0	0	8226	574768	0	0
2024-06-28 20:07:32			0	37331	0	0	0	27005	25600	142039	27268	1028912	43123	110012	0	0	8226	574703	0	0
2024-06-28 20:08:32			0	37315	0	0	0	27023	25610	142022	27135	1028956	43125	110019	0	0	8225	575311	0	0
2024-06-28 20:09:32			0	37309	0	0	0	27036	25620	142078	27345	1028982	43115	110024	0	0	8224	575518	0	0
2024-06-28 20:10:32			0	37300	0	0	0	27054	25630	142134	27189	1029018	43126	110031	0	0	8224	575846	0	0
2024-06-28 20:11:32			0	37274	0	0	0	27057	25630	142210	27055	1029026	43104	110032	0	0	8222	576889	0	0
2024-06-28 20:12:32			0	37244	0	0	0	27057	25630	142270	26953	1029053	43104	110032	0	0	8221	578093	0	0
2024-06-28 20:13:32			0	37229	0	0	0	27059	25650	142318	27109	1029052	43118	110033	0	0	8220	578630	0	0
2024-06-28 20:14:32			0	37219	0	0	0	27070	25640	142318	27105	1029062	43126	110037	0	0	8219	579065	0	0
2024-06-28 20:15:32			0	37218	0	0	0	27075	25650	142410	27348	1029133	43128	110039	0	0	8219	579073	0	0
2024-06-28 20:16:32			0	37220	0	0	0	27090	25670	142254	27237	1029257	43130	110045	0	0	8219	578926	0	0
2024-06-28 20:17:32			0	37231	0	0	0	27106	25670	142302	27400	1029284	43130	110051	0	0	8219	578484	0	0
2024-06-28 20:18:32			0	37260	0	0	0	27116	25690	142298	27182	1029399	43133	110055	0	0	8221	577253	0	0
2024-06-28 20:19:32			0	37262	0	0	0	27132	25680	142294	27249	1029373	43142	110061	0	0	8221	577206	0	0
2024-06-28 20:20:32			0	37257	0	0	0	27137	25700	142386	27440	1029363	43122	110063	0	0	8220	577341	0	0
2024-06-28 20:21:32			0	37259	0	0	0	27124	25690	142246	26956	1029346	43122	110058	0	0	8221	577294	0	0
2024-06-28 20:22:32			0	37289	0	0	0	27124	25700	142266	27338	1029301	43122	110058	0	0	8222	576057	0	0
2024-06-28 20:23:32			0	37284	0	0	0	27109	25700	142158	26984	1029336	43122	110052	0	0	8222	576258	0	0
2024-06-28 20:24:32			0	37277	0	0	0	27103	25700	142102	27183	1029309	43122	110050	0	0	8222	576539	0	0
2024-06-28 20:25:32			0	37274	0	0	0	27090	25690	142154	27249	1029212	43088	110045	0	0	8222	576692	0	0
2024-06-28 20:26:32			0	37289	0	0	0	27062	25690	142106	27327	1029123	43121	110034	0	0	8223	576090	0	0
2024-06-28 20:27:32			0	37296	0	0	0	27031	25670	142122	27388	1028980	43108	110022	0	0	8224	575875	0	0
2024-06-28 20:28:32			0	37286	0	0	0	27005	25660	142014	27268	1028944	43096	110012	0	0	8224	576309	0	0
2024-06-28 20:29:32			0	37313	0	0	0	26979	25640	142026	27326	1028910	43105	110002	0	0	8226	575293	0	0
2024-06-28 20:30:32			0	37313	0	0	0	26974	25640	141930	27263	1028829	43105	110000	0	0	8226	575293	0	0
2024-06-28 20:31:32			0	37341	0	0	0	26958	25640	141951	27248	1028847	43104	109994	0	0	8228	574172	0	0
2024-06-28 20:32:32			0	37360	0	0	0	26948	25630	141903	27229	1028785	43093	109990	0	0	8229	573445	0	0
2024-06-28 20:33:32			0	37356	0	0	0	26922	25620	141847	27260	1028732	43081	109980	0	0	8229	573638	0	0
2024-06-28 20:34:32			0	37377	0	0	0	26890	25590	141815	27085	1028520	43078	109968	0	0	8230	572896	0	0
2024-06-28 20:35:32			0	37370	0	0	0	26849	25560	141883	27164	1028396	43065	109952	0	0	8231	573274	0	0
2024-06-28 20:36:32			0	37389	0	0	0	26828	25550	141899	27126	1028325	43074	109944	0	0	8232	572547	0	0
2024-06-28 20:37:32			0	37378	0	0	0	26815	25530	141839	27046	1028236	43094	109939	0	0	8231	573052	0	0
2024-06-28 20:38:32			0	37388	0	0	0	26802	25510	141899	26956	1028148	43082	109934	0	0	8232	572718	0	0
2024-06-28 20:39:32			0	37391	0	0	0	26789	25500	141791	27383	1028077	43070	109929	0	0	8232	572630	0	0
2024-06-28 20:40:32			0	37404	0	0	0	26776	25470	141795	27015	1028034	43079	109924	0	0	8233	572209	0	0
2024-06-28 20:41:32			0	37389	0	0	0	26755	25460	141831	27010	1027936	43066	109916	0	0	8233	572840	0	0
2024-06-28 20:42:32			0	37402	0	0	0	26740	25440	141895	27131	1027874	43075	109910	0	0	8234	572386	0	0
2024-06-28 20:43:32			0	37412	0	0	0	26727	25440	141795	26934	1027839	43096	109905	0	0	8234	571987	0	0
2024-06-28 20:44:32			0	37420	0	0	0	26732	25420	141803	27078	1027786	43095	109907	0	0	8235	571733	0	0
2024-06-28 20:45:32			0	37435	0	0	0	26727	25420	141775	27270	1027804	43083	109905	0	0	8235	571134	0	0
2024-06-28 20:46:32			0	37438	0	0	0	26716	25410	141611	26946	1027733	43083	109901	0	0	8236	571047	0	0
2024-06-28 20:47:32			0	37457	0	0	0	26711	25400	141699	27039	1027662	43071	109899	0	0	8237	570322	0	0
2024-06-28 20:48:32			0	37473	0	0	0	26698	25390	141743	27069	1027653	43071	109894	0	0	8238	569718	0	0
2024-06-28 20:49:32			0	37458	0	0	0	26690	25370	141715	27441	1027565	43068	109891	0	0	8237	570380	0	0
2024-06-28 20:50:32			0	37450	0	0	0	26690	25360	141687	27213	1027566	43078	109891	0	0	8237	570731	0	0
2024-06-28 20:51:32			0	37448	0	0	0	26690	25350	141751	27241	1027495	43077	109891	0	0	8236	570843	0	0
2024-06-28 20:52:32			0	37458	0	0	0	26683	25340	141739	27126	1027567	43066	109888	0	0	8237	570477	0	0
2024-06-28 20:53:32			0	37463	0	0	0	26688	25350	141679	27031	1027575	43088	109890	0	0	8237	570245	0	0
2024-06-28 20:54:32			0	37445	0	0	0	26688	25350	141751	26975	1027575	43077	109890	0	0	8236	570963	0	0
2024-06-28 20:55:32			0	37448	0	0	0	26677	25330	141851	26968	1027442	43076	109886	0	0	8237	570908	0	0
2024-06-28 20:56:32			0	37458	0	0	0	26672	25320	141739	27145	1027452	43085	109884	0	0	8237	570542	0	0
2024-06-28 20:57:32			0	37434	0	0	0	26664	25320	141747	27081	1027390	43075	109881	0	0	8236	571499	0	0
2024-06-28 20:58:32			0	37425	0	0	0	26654	25300	141767	26831	1027363	43083	109877	0	0	8236	571923	0	0
2024-06-28 20:59:32			0	37431	0	0	0	26654	25310	141899	27098	1027372	43074	109877	0	0	8236	571651	0	0
2024-06-28 21:00:32			0	37433	0	0	0	26651	25300	141935	27060	1027381	43073	109876	0	0	8236	571604	0	0
2024-06-28 21:01:32			0	37407	0	0	0	26659	25300	141915	26890	1027408	43073	109879	0	0	8235	572642	0	0
2024-06-28 21:02:32			0	37413	0	0	0	26662	25290	141907	26752	1027230	43071	109880	0	0	8235	572435	0	0
2024-06-28 21:03:32			0	37414	0	0	0	26657	25290	141919	27150	1027337	43071	109878	0	0	8235	572395	0	0
2024-06-28 21:04:32			0	37397	0	0	0	26641	25280	141971	26706	1027195	43071	109872	0	0	8234	573107	0	0
2024-06-28 21:05:32			0	37374	0	0	0	26628	25270	142079	27081	1027097	43059	109867	0	0	8233	574059	0	0
2024-06-28 21:06:32			0	37360	0	0	0	26620	25260	142143	27062	1027160	43058	109864	0	0	8233	574652	0	0
2024-06-28 21:07:32			0	37351	0	0	0	26615	25270	142283	26984	1027088	43069	109862	0	0	8232	574980	0	0
2024-06-28 21:08:32			0	37320	0	0	0	26605	25260	142378	27163	1027071	43068	109858	0	0	8231	576256	0	0
2024-06-28 21:09:32			0	37291	0	0	0	26597	25250	142274	27048	1027035	43068	109855	0	0	8229	577453	0	0
2024-06-28 21:10:32			0	37289	0	0	0	26594	25250	142466	27395	1027027	43067	109854	0	0	8229	577533	0	0
2024-06-28 21:11:32			0	37276	0	0	0	26605	25240	142526	27249	1027063	43099	109858	0	0	8228	578089	0	0
2024-06-28 21:12:32			0	37251	0	0	0	26599	25240	142698	27208	1027072	43089	109856	0	0	8227	579094	0	0
2024-06-28 21:13:32			0	37203	0	0	0	26623	25250	142710	27081	1027107	43079	109865	0	0	8224	580996	0	0
2024-06-28 21:14:32			0	37167	0	0	0	26631	25240	142886	27154	1027072	43089	109868	0	0	8222	582482	0	0
2024-06-28 21:15:32			0	37146	0	0	0	26638	25240	142974	27168	1027098	43079	109871	0	0	8221	583331	0	0
2024-06-28 21:16:32			0	37121	0	0	0	26631	25250	142914	26719	1027080	43079	109868	0	0	8220	584310	0	0
2024-06-28 21:17:32			0	37076	0	0	0	26623	25240	143094	27324	1027072	43079	109865	0	0	8218	586167	0	0
2024-06-28 21:18:32			0	37063	0	0	0	26633	25240	143314	27083	1027009	43078	109869	0	0	8217	586695	0	0
2024-06-28 21:19:32			0	37027	0	0	0	26625	25240	143374	26953	1027036	43066	109866	0	0	8215	588158	0	0
2024-06-28 21:20:32			0	37020	0	0	0	26620	25230	143394	27258	1026947	43066	109864	0	0	8215	588476	0	0
2024-06-28 21:21:32			0	36983	0	0	0	26607	25220	143542	27161	1026930	43077	109859	0	0	8213	590016	0	0
2024-06-28 21:22:32			0	36995	0	0	0	26610	25220	143670	27209	1026787	43064	109860	0	0	8214	589527	0	0
2024-06-28 21:23:32			0	36961	0	0	0	26586	25210	143690	27308	1026752	43063	109851	0	0	8212	590947	0	0
2024-06-28 21:24:32			0	36924	0	0	0	26579	25200	143822	27183	1026753	43051	109848	0	0	8210	592491	0	0
2024-06-28 21:25:32			0	36895	0	0	0	26563	25200	143894	27478	1026779	43063	109842	0	0	8209	593678	0	0
2024-06-28 21:26:32			0	36869	0	0	0	26553	25170	144018	27137	1026691	43072	109838	0	0	8208	594844	0	0
2024-06-28 21:27:32			0	36830	0	0	0	26540	25160	144102	27308	1026593	43048	109833	0	0	8206	596477	0	0
2024-06-28 21:28:32			0	36815	0	0	0	26540	25160	144234	26961	1026593	43060	109833	0	0	8205	597094	0	0
2024-06-28 21:29:32			0	36800	0	0	0	26535	25150	144266	27041	1026603	43081	109831	0	0	8204	597744	0	0
2024-06-28 21:30:32			0	36761	0	0	0	26535	25150	144438	27039	1026621	43081	109831	0	0	8202	599349	0	0
2024-06-28 21:31:32			0	36749	0	0	0	26532	25140	144610	27074	1026612	43080	109830	0	0	8202	599878	0	0
2024-06-28 21:32:32			0	36702	0	0	0	26532	25140	144682	27305	1026639	43068	109830	0	0	8199	601818	0	0
2024-06-28 21:33:32			0	36688	0	0	0	26535	25150	144714	26993	1026621	43081	109831	0	0	8199	602362	0	0
2024-06-28 21:34:32			0	36656	0	0	0	26532	25150	144826	27135	1026674	43069	109830	0	0	8197	603686	0	0
2024-06-28 21:35:32			0	36664	0	0	0	26540	25150	144802	26984	1026674	43069	109833	0	0	8197	603355	0	0
2024-06-28 21:36:32			0	36632	0	0	0	26558	25150	144882	27114	1026710	43081	109840	0	0	8195	604680	0	0
2024-06-28 21:37:32			0	36609	0	0	0	26571	25160	144962	27234	1026861	43082	109845	0	0	8194	605599	0	0
2024-06-28 21:38:32			0	36605	0	0	0	26589	25170	145046	27182	1026905	43094	109852	0	0	8193	605731	0	0
2024-06-28 21:39:32			0	36583	0	0	0	26612	25180	145053	27008	1027030	43106	109861	0	0	8192	606610	0	0
2024-06-28 21:40:32			0	36543	0	0	0	26646	25220	145197	26845	1027162	43097	109874	0	0	8189	608135	0	0
2024-06-28 21:41:32			0	36545	0	0	0	26685	25230	145337	27241	1027233	43087	109889	0	0	8189	608017	0	0
2024-06-28 21:42:32			0	36531	0	0	0	26688	25250	145313	27097	1027303	43090	109890	0	0	8188	608531	0	0
2024-06-28 21:43:32			0	36504	0	0	0	26716	25260	145353	26923	1027347	43102	109901	0	0	8186	609621	0	0
2024-06-28 21:44:32			0	36490	0	0	0	26722	25270	145421	27083	1027445	43103	109903	0	0	8186	610170	0	0
2024-06-28 21:45:32			0	36502	0	0	0	26735	25280	145381	26981	1027462	43082	109908	0	0	8186	609635	0	0
2024-06-28 21:46:32			0	36463	0	0	0	26732	25280	145481	27090	1027489	43093	109907	0	0	8184	611261	0	0
2024-06-28 21:47:32			0	36476	0	0	0	26750	25280	145461	26930	1027489	43104	109914	0	0	8184	610719	0	0
2024-06-28 21:48:32			0	36463	0	0	0	26740	25300	145561	27052	1027551	43094	109910	0	0	8184	611192	0	0
2024-06-28 21:49:32			0	36449	0	0	0	26732	25310	145449	27015	1027479	43095	109907	0	0	8183	611742	0	0
2024-06-28 21:50:32			0	36451	0	0	0	26716	25310	145537	27074	1027479	43084	109901	0	0	8184	611658	0	0
2024-06-28 21:51:32			0	36445	0	0	0	26693	25310	145677	27358	1027479	43084	109892	0	0	8184	611909	0	0
2024-06-28 21:52:32			0	36440	0	0	0	26688	25300	145545	26779	1027355	43073	109890	0	0	8184	612153	0	0
2024-06-28 21:53:32			0	36430	0	0	0	26683	25290	145617	27015	1027399	43083	109888	0	0	8183	612605	0	0
2024-06-28 21:54:32			0	36411	0	0	0	26693	25290	145701	27300	1027426	43072	109892	0	0	8182	613400	0	0
2024-06-28 21:55:32			0	36392	0	0	0	26688	25300	145689	27163	1027355	43094	109890	0	0	8181	614161	0	0
2024-06-28 21:56:32			0	36409	0	0	0	26667	25290	145721	27367	1027337	43071	109882	0	0	8182	613484	0	0
2024-06-28 21:57:32			0	36417	0	0	0	26657	25270	145793	27048	1027150	43070	109878	0	0	8183	613219	0	0
2024-06-28 21:58:32			0	36389	0	0	0	26641	25280	145713	27345	1027186	43071	109872	0	0	8182	614356	0	0
2024-06-28 21:59:32			0	36374	0	0	0	26623	25260	145753	27227	1027160	43069	109865	0	0	8181	615055	0	0
2024-06-28 22:00:32			0	36383	0	0	0	26610	25260	145869	26774	1027044	43068	109860	0	0	8182	614677	0	0
2024-06-28 22:01:32			0	36368	0	0	0	26597	25250	145805	27274	1027000	43067	109855	0	0	8181	615341	0	0
2024-06-28 22:02:32			0	36378	0	0	0	26586	25240	145841	26968	1026911	43067	109851	0	0	8182	614957	0	0
2024-06-28 22:03:32			0	36356	0	0	0	26563	25220	145913	27303	1026823	43065	109842	0	0	8181	615950	0	0
2024-06-28 22:04:32			0	36356	0	0	0	26550	25210	145913	26981	1026770	43063	109837	0	0	8181	615985	0	0
2024-06-28 22:05:32			0	36364	0	0	0	26540	25190	145949	27076	1026637	43062	109833	0	0	8182	615719	0	0
2024-06-28 22:06:32			0	36343	0	0	0	26529	25170	146041	27166	1026637	43049	109829	0	0	8181	616671	0	0
2024-06-28 22:07:32			0	36343	0	0	0	26516	25160	145981	26937	1026620	43060	109824	0	0	8181	616706	0	0
2024-06-28 22:08:32			0	36335	0	0	0	26516	25160	146017	27131	1026585	43059	109824	0	0	8180	617042	0	0
2024-06-28 22:09:32			0	36356	0	0	0	26514	25150	146029	27192	1026603	43059	109823	0	0	8182	616194	0	0
2024-06-28 22:10:32			0	36352	0	0	0	26516	25150	146061	27119	1026594	43069	109824	0	0	8181	616362	0	0
2024-06-28 22:11:32			0	36330	0	0	0	26532	25160	146265	27391	1026692	43070	109830	0	0	8180	617252	0	0
2024-06-28 22:12:32			0	36317	0	0	0	26535	25160	146193	27244	1026692	43081	109831	0	0	8179	617798	0	0
2024-06-28 22:13:32			0	36309	0	0	0	26532	25160	146157	27029	1026638	43081	109830	0	0	8179	618135	0	0
2024-06-28 22:14:32			0	36329	0	0	0	26540	25150	146185	27102	1026656	43059	109833	0	0	8180	617329	0	0
2024-06-28 22:15:32			0	36317	0	0	0	26532	25160	146197	27300	1026700	43093	109830	0	0	8179	617798	0	0
2024-06-28 22:16:32			0	36339	0	0	0	26555	25160	146197	27362	1026807	43093	109839	0	0	8180	616874	0	0
2024-06-28 22:17:32			0	36329	0	0	0	26568	25180	146193	27185	1026914	43083	109844	0	0	8179	617224	0	0
2024-06-28 22:18:32			0	36335	0	0	0	26581	25180	146149	27272	1026887	43061	109849	0	0	8179	616972	0	0
2024-06-28 22:19:32			0	36308	0	0	0	26579	25180	146213	26951	1026923	43083	109848	0	0	8178	618107	0	0
2024-06-28 22:20:32			0	36310	0	0	0	26584	25200	146201	26991	1026940	43096	109850	0	0	8178	617953	0	0
2024-06-28 22:21:32			0	36305	0	0	0	26594	25200	146165	27095	1027056	43085	109854	0	0	8178	618163	0	0
2024-06-28 22:22:32			0	36299	0	0	0	26625	25200	146253	27196	1027029	43097	109866	0	0	8177	618416	0	0
2024-06-28 22:23:32			0	36295	0	0	0	26623	25210	146213	26935	1027065	43097	109865	0	0	8177	618549	0	0
2024-06-28 22:24:32			0	36280	0	0	0	26620	25210	146237	27201	1027020	43085	109864	0	0	8176	619181	0	0
2024-06-28 22:25:32			0	36325	0	0	0	26623	25210	146185	27317	1027038	43075	109865	0	0	8178	617287	0	0
2024-06-28 22:26:32			0	36297	0	0	0	26620	25220	146301	27090	1027028	43076	109864	0	0	8177	618430	0	0
2024-06-28 22:27:32			0	36292	0	0	0	26628	25210	146257	27079	1027020	43075	109867	0	0	8177	618675	0	0
2024-06-28 22:28:32			0	36283	0	0	0	26623	25220	146153	26724	1027002	43076	109865	0	0	8176	619019	0	0
2024-06-28 22:29:32			0	36303	0	0	0	26625	25220	146193	26934	1027091	43087	109866	0	0	8177	618177	0	0
2024-06-28 22:30:32			0	36320	0	0	0	26631	25220	146281	27067	1027037	43087	109868	0	0	8178	617462	0	0
2024-06-28 22:31:32			0	36298	0	0	0	26633	25220	146197	26779	1027055	43076	109869	0	0	8177	618388	0	0
2024-06-28 22:32:32			0	36298	0	0	0	26625	25220	146225	26694	1027028	43086	109866	0	0	8177	618388	0	0
2024-06-28 22:33:32			0	36306	0	0	0	26623	25220	146185	27085	1027010	43077	109865	0	0	8177	618051	0	0
2024-06-28 22:34:32			0	36285	0	0	0	26607	25220	146197	27105	1026975	43064	109859	0	0	8177	618935	0	0
2024-06-28 22:35:32			0	36299	0	0	0	26618	25220	146249	27059	1027028	43076	109863	0	0	8177	618345	0	0
2024-06-28 22:36:32			0	36311	0	0	0	26607	25220	146225	26956	1026975	43076	109859	0	0	8178	617841	0	0
2024-06-28 22:37:32			0	36318	0	0	0	26610	25210	146101	27033	1026993	43075	109860	0	0	8178	617581	0	0
2024-06-28 22:38:32			0	36314	0	0	0	26620	25220	146077	26961	1026975	43086	109864	0	0	8178	617714	0	0
2024-06-28 22:39:32			0	36308	0	0	0	26610	25220	146129	26981	1026983	43087	109860	0	0	8178	617967	0	0
2024-06-28 22:40:32			0	36323	0	0	0	26612	25210	146137	26720	1026939	43085	109861	0	0	8178	617371	0	0
2024-06-28 22:41:32			0	36334	0	0	0	26610	25220	146121	26949	1026975	43086	109860	0	0	8179	616874	0	0
2024-06-28 22:42:32			0	36327	0	0	0	26602	25200	146109	26892	1026868	43097	109857	0	0	8179	617238	0	0
2024-06-28 22:43:32			0	36323	0	0	0	26576	25200	146089	26663	1026779	43074	109847	0	0	8179	617406	0	0
2024-06-28 22:44:32			0	36324	0	0	0	26563	25200	146053	27206	1026779	43074	109842	0	0	8179	617364	0	0
2024-06-28 22:45:32			0	36345	0	0	0	26566	25180	146065	27105	1026816	43073	109843	0	0	8180	616551	0	0
2024-06-28 22:46:32			0	36350	0	0	0	26576	25190	146061	27033	1026851	43083	109847	0	0	8180	616307	0	0
2024-06-28 22:47:32			0	36346	0	0	0	26576	25180	146021	26968	1026842	43083	109847	0	0	8180	616509	0	0
2024-06-28 22:48:32			0	36372	0	0	0	26574	25180	145965	27008	1026842	43095	109846	0	0	8182	615418	0	0
2024-06-28 22:49:32			0	36358	0	0	0	26584	25180	145957	27124	1026896	43095	109850	0	0	8181	616006	0	0
2024-06-28 22:50:32			0	36345	0	0	0	26581	25190	145965	26835	1026851	43095	109849	0	0	8180	616517	0	0
2024-06-28 22:51:32			0	36357	0	0	0	26592	25190	145941	27230	1026905	43095	109853	0	0	8180	616013	0	0
2024-06-28 22:52:32			0	36356	0	0	0	26586	25200	145989	26844	1026860	43074	109851	0	0	8181	616020	0	0
2024-06-28 22:53:32			0	36356	0	0	0	26592	25190	145937	27157	1026931	43083	109853	0	0	8180	616055	0	0
2024-06-28 22:54:32			0	36365	0	0	0	26605	25200	145913	27282	1026940	43084	109858	0	0	8181	615642	0	0
2024-06-28 22:55:32			0	36375	0	0	0	26607	25210	145865	27097	1026984	43097	109859	0	0	8181	615187	0	0
2024-06-28 22:56:32			0	36379	0	0	0	26615	25210	145765	27298	1027011	43085	109862	0	0	8181	615020	0	0
2024-06-28 22:57:32			0	36377	0	0	0	26618	25210	145809	27043	1026993	43075	109863	0	0	8181	615104	0	0
2024-06-28 22:58:32			0	36379	0	0	0	26615	25210	145757	27007	1027020	43075	109862	0	0	8181	615020	0	0
2024-06-28 22:59:32			0	36395	0	0	0	26628	25220	145777	27046	1026975	43086	109867	0	0	8182	614314	0	0
2024-06-28 23:00:32			0	36389	0	0	0	26633	25220	145709	27161	1027028	43086	109869	0	0	8182	614566	0	0
2024-06-28 23:01:32			0	36397	0	0	0	26628	25210	145689	27324	1027073	43085	109867	0	0	8182	614265	0	0
2024-06-28 23:02:32			0	36404	0	0	0	26636	25230	145525	27215	1027099	43098	109870	0	0	8182	613902	0	0
2024-06-28 23:03:32			0	36413	0	0	0	26641	25230	145629	27109	1027108	43099	109872	0	0	8183	613526	0	0
2024-06-28 23:04:32			0	36390	0	0	0	26649	25230	145717	27050	1027126	43087	109875	0	0	8181	614489	0	0
2024-06-28 23:05:32			0	36409	0	0	0	26651	25220	145661	27197	1027117	43087	109876	0	0	8182	613728	0	0
2024-06-28 23:06:32			0	36404	0	0	0	26646	25230	145473	27048	1027108	43099	109874	0	0	8182	613902	0	0
2024-06-28 23:07:32			0	36415	0	0	0	26654	25230	145561	27270	1027072	43098	109877	0	0	8183	613442	0	0
2024-06-28 23:08:32			0	36435	0	0	0	26651	25230	145661	27116	1027081	43099	109876	0	0	8184	612605	0	0
2024-06-28 23:09:32			0	36420	0	0	0	26638	25230	145541	26975	1027099	43077	109871	0	0	8183	613233	0	0
2024-06-28 23:10:32			0	36444	0	0	0	26641	25220	145589	26717	1027064	43077	109872	0	0	8184	612264	0	0
2024-06-28 23:11:32			0	36453	0	0	0	26631	25210	145549	26979	1026993	43085	109868	0	0	8185	611922	0	0
2024-06-28 23:12:32			0	36451	0	0	0	26623	25220	145525	26904	1027002	43086	109865	0	0	8185	611971	0	0
2024-06-28 23:13:32			0	36458	0	0	0	26631	25210	145545	27204	1027038	43097	109868	0	0	8185	611713	0	0
2024-06-28 23:14:32			0	36470	0	0	0	26623	25210	145465	27008	1027020	43097	109865	0	0	8186	611212	0	0
2024-06-28 23:15:32			0	36478	0	0	0	26618	25210	145493	27187	1026904	43085	109863	0	0	8186	610878	0	0
2024-06-28 23:16:32			0	36473	0	0	0	26612	25210	145517	27102	1026877	43097	109861	0	0	8186	611087	0	0
2024-06-28 23:17:32			0	36495	0	0	0	26610	25200	145425	26956	1026976	43119	109860	0	0	8187	610204	0	0
2024-06-28 23:18:32			0	36498	0	0	0	26605	25210	145417	27230	1026957	43097	109858	0	0	8188	610044	0	0
2024-06-28 23:19:32			0	36490	0	0	0	26605	25190	145369	27369	1026905	43095	109858	0	0	8187	610447	0	0
2024-06-28 23:20:32			0	36529	0	0	0	26602	25200	145257	27168	1026895	43085	109857	0	0	8189	608787	0	0
2024-06-28 23:21:32			0	36518	0	0	0	26610	25200	145309	27105	1026922	43097	109860	0	0	8189	609245	0	0
2024-06-28 23:22:32			0	36536	0	0	0	26607	25200	145261	27086	1026922	43097	109859	0	0	8190	608495	0	0
2024-06-28 23:23:32			0	36553	0	0	0	26605	25210	145193	27341	1026931	43108	109858	0	0	8191	607754	0	0
2024-06-28 23:24:32			0	36544	0	0	0	26605	25210	145181	26913	1027038	43108	109858	0	0	8190	608128	0	0
2024-06-28 23:25:32			0	36552	0	0	0	26612	25200	145085	27142	1026994	43096	109861	0	0	8190	607830	0	0
2024-06-28 23:26:32			0	36565	0	0	0	26618	25200	145117	27312	1026940	43096	109863	0	0	8191	607289	0	0
2024-06-28 23:27:32			0	36551	0	0	0	26625	25210	144949	27159	1027011	43085	109866	0	0	8190	607837	0	0
2024-06-28 23:28:32			0	36579	0	0	0	26633	25210	144941	27248	1027020	43085	109869	0	0	8192	606673	0	0
2024-06-28 23:29:32			0	36599	0	0	0	26615	25210	144930	27402	1026984	43097	109862	0	0	8193	605843	0	0
2024-06-28 23:30:32			0	36583	0	0	0	26607	25210	144937	27076	1027011	43097	109859	0	0	8192	606507	0	0
2024-06-28 23:31:32			0	36581	0	0	0	26607	25190	144973	27232	1026931	43095	109859	0	0	8192	606659	0	0
2024-06-28 23:32:32			0	36607	0	0	0	26584	25200	144874	27149	1026833	43096	109850	0	0	8194	605545	0	0
2024-06-28 23:33:32			0	36600	0	0	0	26576	25180	144994	27358	1026842	43073	109847	0	0	8193	605904	0	0
2024-06-28 23:34:32			0	36605	0	0	0	26568	25190	144898	27447	1026798	43083	109844	0	0	8194	605662	0	0
2024-06-28 23:35:32			0	36600	0	0	0	26576	25190	144926	26934	1026878	43083	109847	0	0	8193	605870	0	0
2024-06-28 23:36:32			0	36601	0	0	0	26576	25170	144805	26960	1026852	43083	109847	0	0	8193	605897	0	0
2024-06-28 23:37:32			0	36638	0	0	0	26563	25180	144914	27222	1026780	43094	109842	0	0	8196	604329	0	0
2024-06-28 23:38:32			0	36607	0	0	0	26558	25180	144842	27187	1026816	43083	109840	0	0	8194	605614	0	0
2024-06-28 23:39:32			0	36617	0	0	0	26548	25170	144878	27268	1026763	43093	109836	0	0	8195	605233	0	0
2024-06-28 23:40:32			0	36637	0	0	0	26545	25170	144890	27149	1026691	43083	109835	0	0	8196	604404	0	0
2024-06-28 23:41:32			0	36629	0	0	0	26545	25160	144874	27036	1026754	43082	109835	0	0	8195	604770	0	0
2024-06-28 23:42:32			0	36623	0	0	0	26548	25160	144754	27005	1026772	43092	109836	0	0	8195	605019	0	0
2024-06-28 23:43:32			0	36635	0	0	0	26532	25160	144862	27064	1026700	43093	109830	0	0	8196	604521	0	0
2024-06-28 23:44:32			0	36656	0	0	0	26537	25150	144722	27112	1026648	43091	109832	0	0	8197	603686	0	0
2024-06-28 23:45:32			0	36662	0	0	0	26535	25150	144738	26668	1026683	43081	109831	0	0	8197	603438	0	0
2024-06-28 23:46:32			0	36666	0	0	0	26527	25140	144806	26942	1026639	43068	109828	0	0	8198	603306	0	0
2024-06-28 23:47:32			0	36664	0	0	0	26519	25140	144690	26819	1026612	43080	109825	0	0	8198	603389	0	0
2024-06-28 23:48:32			0	36658	0	0	0	26519	25130	144754	27105	1026568	43090	109825	0	0	8197	603672	0	0
2024-06-28 23:49:32			0	36675	0	0	0	26522	25130	144742	27112	1026595	43090	109826	0	0	8198	602968	0	0
2024-06-28 23:50:32			0	36666	0	0	0	26529	25140	144686	27300	1026657	43090	109829	0	0	8198	603306	0	0
2024-06-28 23:51:32			0	36691	0	0	0	26537	25140	144722	26970	1026746	43090	109832	0	0	8199	602272	0	0
2024-06-28 23:52:32			0	36671	0	0	0	26540	25140	144678	27147	1026746	43090	109833	0	0	8198	603099	0	0
2024-06-28 23:53:32			0	36692	0	0	0	26545	25150	144646	27225	1026701	43102	109835	0	0	8199	602197	0	0
2024-06-28 23:54:32			0	36660	0	0	0	26555	25160	144574	27395	1026718	43092	109839	0	0	8197	603486	0	0
2024-06-28 23:55:32			0	36688	0	0	0	26548	25160	144686	27183	1026799	43081	109836	0	0	8198	602328	0	0
2024-06-28 23:56:32			0	36681	0	0	0	26566	25150	144694	27300	1026728	43091	109843	0	0	8198	602652	0	0
2024-06-28 23:57:32			0	36686	0	0	0	26566	25150	144682	27374	1026710	43081	109843	0	0	8198	602445	0	0
2024-06-28 23:58:32			0	36685	0	0	0	26558	25150	144610	27230	1026710	43092	109840	0	0	8198	602486	0	0
2024-06-28 23:59:32			0	36687	0	0	0	26555	25140	144570	27336	1026666	43068	109839	0	0	8198	602438	0	0
2024-06-29 00:00:32			0	36696	0	0	0	26542	25140	144562	27123	1026666	43080	109834	0	0	8199	602066	0	0
2024-06-29 00:01:32			0	36699	0	0	0	26535	25140	144570	27261	1026666	43068	109831	0	0	8199	601942	0	0
2024-06-29 00:02:32			0	36709	0	0	0	26532	25150	144538	27093	1026656	43081	109830	0	0	8200	601494	0	0
2024-06-29 00:03:32			0	36706	0	0	0	26524	25140	144474	27241	1026639	43090	109827	0	0	8200	601652	0	0
2024-06-29 00:04:32			0	36732	0	0	0	26527	25130	144518	27100	1026622	43068	109828	0	0	8201	600613	0	0
2024-06-29 00:05:32			0	36737	0	0	0	26519	25140	144434	27086	1026585	43080	109825	0	0	8201	600373	0	0
2024-06-29 00:06:32			0	36739	0	0	0	26516	25140	144278	27274	1026666	43090	109824	0	0	8202	600290	0	0
2024-06-29 00:07:32			0	36746	0	0	0	26519	25130	144326	27338	1026622	43090	109825	0	0	8202	600036	0	0
2024-06-29 00:08:32			0	36744	0	0	0	26532	25130	144278	26979	1026648	43101	109830	0	0	8202	600118	0	0
2024-06-29 00:09:32			0	36791	0	0	0	26524	25140	144294	27142	1026630	43080	109827	0	0	8204	598148	0	0
2024-06-29 00:10:32			0	36786	0	0	0	26511	25130	144322	27279	1026622	43080	109822	0	0	8204	598388	0	0
2024-06-29 00:11:32			0	36792	0	0	0	26516	25130	144266	27303	1026622	43080	109824	0	0	8204	598141	0	0
2024-06-29 00:12:32			0	36778	0	0	0	26514	25130	144314	27255	1026586	43089	109823	0	0	8204	598717	0	0
2024-06-29 00:13:32			0	36774	0	0	0	26511	25120	144250	27007	1026569	43066	109822	0	0	8203	598916	0	0
2024-06-29 00:14:32			0	36792	0	0	0	26496	25120	144234	27415	1026462	43088	109816	0	0	8205	598175	0	0
2024-06-29 00:15:32			0	36785	0	0	0	26498	25120	144182	27268	1026515	43078	109817	0	0	8204	598463	0	0
2024-06-29 00:16:32			0	36791	0	0	0	26503	25110	144214	27355	1026533	43099	109819	0	0	8204	598250	0	0
2024-06-29 00:17:32			0	36810	0	0	0	26514	25120	144098	27229	1026551	43088	109823	0	0	8205	597435	0	0
2024-06-29 00:18:32			0	36821	0	0	0	26522	25110	144202	27260	1026578	43098	109826	0	0	8206	597017	0	0
2024-06-29 00:19:32			0	36817	0	0	0	26540	25120	144102	27223	1026676	43088	109833	0	0	8205	597147	0	0
2024-06-29 00:20:32			0	36814	0	0	0	26553	25130	144162	27417	1026720	43100	109838	0	0	8205	597236	0	0
2024-06-29 00:21:32			0	36801	0	0	0	26558	25130	144178	27234	1026729	43090	109840	0	0	8204	597771	0	0
2024-06-29 00:22:32			0	36830	0	0	0	26574	25140	144066	27274	1026791	43090	109846	0	0	8205	596545	0	0
2024-06-29 00:23:32			0	36804	0	0	0	26579	25150	144114	27145	1026781	43113	109848	0	0	8204	597580	0	0
2024-06-29 00:24:32			0	36801	0	0	0	26592	25150	144194	27286	1026781	43091	109853	0	0	8204	597703	0	0
2024-06-29 00:25:32			0	36802	0	0	0	26597	25160	144230	27289	1026834	43104	109855	0	0	8204	597628	0	0
2024-06-29 00:26:32			0	36823	0	0	0	26602	25160	144130	27171	1026807	43093	109857	0	0	8205	596765	0	0
2024-06-29 00:27:32			0	36832	0	0	0	26610	25170	144162	27041	1026852	43094	109860	0	0	8205	596361	0	0
2024-06-29 00:28:32			0	36814	0	0	0	26620	25170	144106	27201	1026959	43105	109864	0	0	8204	597101	0	0
2024-06-29 00:29:32			0	36825	0	0	0	26618	25180	144058	27090	1026896	43117	109863	0	0	8205	596615	0	0
2024-06-29 00:30:32			0	36834	0	0	0	26618	25180	144078	27403	1026968	43094	109863	0	0	8205	596246	0	0
2024-06-29 00:31:32			0	36849	0	0	0	26625	25190	144022	26998	1026931	43095	109866	0	0	8206	595596	0	0
2024-06-29 00:32:32			0	36864	0	0	0	26615	25190	144022	27327	1026905	43095	109862	0	0	8207	594981	0	0
2024-06-29 00:33:32			0	36865	0	0	0	26612	25180	144018	27275	1026923	43095	109861	0	0	8207	594974	0	0
2024-06-29 00:34:32			0	36871	0	0	0	26620	25180	143946	27348	1026923	43095	109864	0	0	8207	594728	0	0
2024-06-29 00:35:32			0	36872	0	0	0	26623	25180	143914	27263	1026923	43095	109865	0	0	8207	594687	0	0
2024-06-29 00:36:32			0	36868	0	0	0	26615	25180	143858	27360	1026914	43083	109862	0	0	8207	594851	0	0
2024-06-29 00:37:32			0	36895	0	0	0	26605	25180	143754	27371	1026869	43095	109858	0	0	8208	593745	0	0
2024-06-29 00:38:32			0	36915	0	0	0	26579	25180	143782	27092	1026842	43095	109848	0	0	8210	592927	0	0
2024-06-29 00:39:32			0	36900	0	0	0	26542	25170	143782	27168	1026637	43072	109834	0	0	8210	593574	0	0
2024-06-29 00:40:32			0	36930	0	0	0	26483	25150	143838	27320	1026407	43047	109811	0	0	8212	592414	0	0
2024-06-29 00:41:32			0	36927	0	0	0	26412	25100	143738	27303	1025954	43032	109784	0	0	8213	592705	0	0
2024-06-29 00:42:32			0	36936	0	0	0	26327	25070	143670	27227	1025732	42996	109751	0	0	8215	592438	0	0
2024-06-29 00:43:32			0	36948	0	0	0	26257	25010	143558	27258	1025387	42989	109724	0	0	8216	592149	0	0
2024-06-29 00:44:32			0	36971	0	0	0	26189	24970	143526	27448	1025077	42985	109698	0	0	8218	591343	0	0
2024-06-29 00:45:32			0	36997	0	0	0	26103	24910	143558	27118	1024794	42947	109665	0	0	8221	590483	0	0
2024-06-29 00:46:32			0	36989	0	0	0	26028	24860	143422	27312	1024547	42941	109636	0	0	8222	590977	0	0
2024-06-29 00:47:32			0	37001	0	0	0	25953	24800	143610	27034	1024202	42936	109607	0	0	8223	590688	0	0
2024-06-29 00:48:32			0	36958	0	0	0	25901	24760	143822	27116	1024026	42921	109587	0	0	8222	592579	0	0
2024-06-29 00:49:32			0	36880	0	0	0	25854	24700	144006	27367	1023788	42949	109569	0	0	8218	595978	0	0
2024-06-29 00:50:32			0	36835	0	0	0	25828	24660	144326	27286	1023754	42967	109559	0	0	8216	597964	0	0
2024-06-29 00:51:32			0	36755	0	0	0	25810	24640	144634	27052	1023791	42964	109552	0	0	8212	601332	0	0
2024-06-29 00:52:32			0	36689	0	0	0	25810	24620	144890	27017	1023676	42985	109552	0	0	8209	604132	0	0
2024-06-29 00:53:32			0	36631	0	0	0	25805	24600	145214	27294	1023704	42994	109550	0	0	8206	606609	0	0
2024-06-29 00:54:32			0	36587	0	0	0	25810	24590	145361	27161	1023767	43004	109552	0	0	8203	608475	0	0
2024-06-29 00:55:32			0	36547	0	0	0	25820	24580	145445	27249	1023732	43015	109556	0	0	8201	610177	0	0
2024-06-29 00:56:32			0	36515	0	0	0	25825	24570	145589	27334	1023741	43014	109558	0	0	8199	611549	0	0
2024-06-29 00:57:32			0	36510	0	0	0	25849	24580	145649	27280	1023830	43026	109567	0	0	8198	611724	0	0
2024-06-29 00:58:32			0	36520	0	0	0	25862	24600	145661	27338	1024025	43060	109572	0	0	8199	611236	0	0
2024-06-29 00:59:32			0	36503	0	0	0	25932	24620	145701	26994	1024399	43084	109599	0	0	8197	611878	0	0
2024-06-29 01:00:32			0	36497	0	0	0	26020	24650	145633	27142	1024638	43098	109633	0	0	8195	612025	0	0
2024-06-29 01:01:32			0	36488	0	0	0	26114	24680	145645	27095	1024931	43101	109669	0	0	8193	612298	0	0
2024-06-29 01:02:32			0	36495	0	0	0	26194	24730	145545	27192	1025178	43095	109700	0	0	8192	611832	0	0
2024-06-29 01:03:32			0	36517	0	0	0	26254	24770	145497	26705	1025310	43099	109723	0	0	8193	610774	0	0
2024-06-29 01:04:32			0	36546	0	0	0	26306	24800	145365	27322	1025460	43090	109743	0	0	8194	609460	0	0
2024-06-29 01:05:32			0	36541	0	0	0	26342	24820	145461	27232	1025575	43092	109757	0	0	8193	609599	0	0
2024-06-29 01:06:32			0	36547	0	0	0	26381	24850	145497	27060	1025716	43096	109772	0	0	8193	609246	0	0
2024-06-29 01:07:32			0	36525	0	0	0	26402	24880	145609	26854	1025795	43099	109780	0	0	8191	610059	0	0
2024-06-29 01:08:32			0	36470	0	0	0	26412	24900	145593	27192	1025874	43101	109784	0	0	8188	612288	0	0
2024-06-29 01:09:32			0	36416	0	0	0	26436	24900	145813	27190	1025910	43079	109793	0	0	8185	614549	0	0
2024-06-29 01:10:32			0	36408	0	0	0	26441	24920	145917	27013	1025962	43091	109795	0	0	8185	614815	0	0
2024-06-29 01:11:32			0	36402	0	0	0	26454	24950	146001	27206	1026086	43093	109800	0	0	8184	614962	0	0
2024-06-29 01:12:32			0	36397	0	0	0	26472	24960	145941	27367	1026077	43073	109807	0	0	8184	615137	0	0
2024-06-29 01:13:32			0	36393	0	0	0	26472	24970	146001	27015	1026148	43084	109807	0	0	8183	615270	0	0
2024-06-29 01:14:32			0	36406	0	0	0	26483	24980	145917	26994	1026174	43086	109811	0	0	8184	614690	0	0
2024-06-29 01:15:32			0	36412	0	0	0	26485	25000	145869	27372	1026208	43078	109812	0	0	8184	614369	0	0
2024-06-29 01:16:32			0	36416	0	0	0	26496	25000	145905	27163	1026182	43078	109816	0	0	8184	614201	0	0
2024-06-29 01:17:32			0	36422	0	0	0	26496	25010	145765	27157	1026244	43078	109816	0	0	8185	613915	0	0
2024-06-29 01:18:32			0	36447	0	0	0	26501	25020	145705	27371	1026297	43080	109818	0	0	8186	612833	0	0
2024-06-29 01:19:32			0	36477	0	0	0	26483	25020	145657	27074	1026270	43080	109811	0	0	8188	611579	0	0
2024-06-29 01:20:32			0	36485	0	0	0	26449	25030	145669	27033	1026118	43058	109798	0	0	8189	611210	0	0
2024-06-29 01:21:32			0	36479	0	0	0	26407	25010	145505	27147	1025958	43044	109782	0	0	8189	611530	0	0
2024-06-29 01:22:32			0	36511	0	0	0	26345	24990	145461	27270	1025700	43032	109758	0	0	8192	610263	0	0
2024-06-29 01:23:32			0	36515	0	0	0	26303	24980	145405	27255	1025630	43031	109742	0	0	8193	610131	0	0
2024-06-29 01:24:32			0	36526	0	0	0	26280	24960	145417	27355	1025515	43040	109733	0	0	8194	609741	0	0
2024-06-29 01:25:32			0	36538	0	0	0	26251	24930	145261	27407	1025445	43037	109722	0	0	8195	609345	0	0
2024-06-29 01:26:32			0	36570	0	0	0	26223	24910	145265	26927	1025169	43036	109711	0	0	8197	608081	0	0
2024-06-29 01:27:32			0	36546	0	0	0	26168	24880	145281	27121	1025018	43021	109690	0	0	8196	609184	0	0
2024-06-29 01:28:32			0	36575	0	0	0	26135	24850	145217	26913	1024878	43019	109677	0	0	8198	608079	0	0
2024-06-29 01:29:32			0	36570	0	0	0	26103	24820	145229	26953	1024808	43027	109665	0	0	8198	608391	0	0
2024-06-29 01:30:32			0	36597	0	0	0	26064	24800	145194	27102	1024710	43013	109650	0	0	8200	607336	0	0
2024-06-29 01:31:32			0	36596	0	0	0	26057	24790	145074	27260	1024648	43012	109647	0	0	8200	607412	0	0
2024-06-29 01:32:32			0	36613	0	0	0	26049	24780	145154	27227	1024765	43035	109644	0	0	8201	606739	0	0
2024-06-29 01:33:32			0	36603	0	0	0	26064	24780	145102	27083	1024783	43034	109650	0	0	8201	607155	0	0
2024-06-29 01:34:32			0	36574	0	0	0	26077	24760	145177	26823	1024775	43054	109655	0	0	8199	608431	0	0
2024-06-29 01:35:32			0	36588	0	0	0	26093	24770	145141	27154	1024846	43055	109661	0	0	8199	607814	0	0
2024-06-29 01:36:32			0	36592	0	0	0	26109	24770	145222	27017	1024873	43033	109667	0	0	8199	607647	0	0
2024-06-29 01:37:32			0	36598	0	0	0	26103	24770	145302	27038	1024962	43055	109665	0	0	8200	607397	0	0
2024-06-29 01:38:32			0	36578	0	0	0	26119	24780	145261	27144	1024890	43056	109671	0	0	8198	608196	0	0
2024-06-29 01:39:32			0	36566	0	0	0	26129	24780	145213	27332	1024979	43056	109675	0	0	8197	608695	0	0
2024-06-29 01:40:32			0	36560	0	0	0	26140	24790	145289	27298	1025023	43056	109679	0	0	8197	608911	0	0
2024-06-29 01:41:32			0	36568	0	0	0	26166	24800	145405	27223	1025121	43058	109689	0	0	8197	608543	0	0
2024-06-29 01:42:32			0	36554	0	0	0	26199	24820	145293	27015	1025281	43071	109702	0	0	8196	609057	0	0
2024-06-29 01:43:32			0	36558	0	0	0	26233	24830	145425	27244	1025360	43061	109715	0	0	8196	608856	0	0
2024-06-29 01:44:32			0	36543	0	0	0	26251	24860	145389	27124	1025484	43063	109722	0	0	8195	609378	0	0
2024-06-29 01:45:32			0	36534	0	0	0	26275	24880	145441	26949	1025652	43076	109731	0	0	8194	609684	0	0
2024-06-29 01:46:32			0	36532	0	0	0	26311	24890	145385	26857	1025670	43067	109745	0	0	8193	609733	0	0
2024-06-29 01:47:32			0	36513	0	0	0	26335	24890	145549	27235	1025758	43068	109754	0	0	8192	610526	0	0
2024-06-29 01:48:32			0	36528	0	0	0	26361	24910	145445	27192	1025784	43057	109764	0	0	8192	609831	0	0
2024-06-29 01:49:32			0	36521	0	0	0	26381	24930	145497	27208	1025819	43070	109772	0	0	8192	610054	0	0
2024-06-29 01:50:32			0	36520	0	0	0	26394	24940	145521	26998	1025944	43083	109777	0	0	8191	610061	0	0
2024-06-29 01:51:32			0	36503	0	0	0	26397	24940	145573	26804	1025944	43071	109778	0	0	8190	610770	0	0
2024-06-29 01:52:32			0	36508	0	0	0	26405	24960	145577	27407	1025952	43074	109781	0	0	8191	610492	0	0
2024-06-29 01:53:32			0	36494	0	0	0	26412	24960	145549	27398	1025997	43062	109784	0	0	8190	611077	0	0
2024-06-29 01:54:32			0	36501	0	0	0	26420	24970	145513	27020	1026049	43084	109787	0	0	8190	610750	0	0
2024-06-29 01:55:32			0	36492	0	0	0	26418	24980	145517	27258	1026058	43085	109786	0	0	8190	611091	0	0
2024-06-29 01:56:32			0	36499	0	0	0	26412	24980	145517	27322	1025960	43098	109784	0	0	8190	610799	0	0
2024-06-29 01:57:32			0	36484	0	0	0	26397	24970	145529	27429	1025915	43074	109778	0	0	8189	611460	0	0
2024-06-29 01:58:32			0	36501	0	0	0	26381	24980	145541	27057	1025924	43052	109772	0	0	8191	610715	0	0
2024-06-29 01:59:32			0	36480	0	0	0	26348	24970	145473	27258	1025853	43063	109759	0	0	8190	611627	0	0
2024-06-29 02:00:32			0	36486	0	0	0	26340	24970	145521	27104	1025800	43051	109756	0	0	8191	611376	0	0
2024-06-29 02:01:32			0	36501	0	0	0	26335	24950	145517	27152	1025774	43050	109754	0	0	8191	610819	0	0
2024-06-29 02:02:32			0	36495	0	0	0	26309	24950	145557	27246	1025667	43039	109744	0	0	8191	611070	0	0
2024-06-29 02:03:32			0	36485	0	0	0	26296	24950	145521	27079	1025631	43049	109739	0	0	8191	611487	0	0
2024-06-29 02:04:32			0	36483	0	0	0	26270	24930	145661	27279	1025578	43037	109729	0	0	8191	611640	0	0
2024-06-29 02:05:32			0	36480	0	0	0	26244	24920	145617	27085	1025347	43036	109719	0	0	8192	611800	0	0
2024-06-29 02:06:32			0	36481	0	0	0	26212	24910	145677	27232	1025303	43036	109707	0	0	8192	611793	0	0
2024-06-29 02:07:32			0	36468	0	0	0	26199	24900	145673	27320	1025258	43035	109702	0	0	8192	612372	0	0
2024-06-29 02:08:32			0	36474	0	0	0	26155	24880	145617	27060	1025090	43032	109685	0	0	8193	612190	0	0
2024-06-29 02:09:32			0	36460	0	0	0	26124	24840	145685	26960	1024976	43006	109673	0	0	8192	612915	0	0
2024-06-29 02:10:32			0	36451	0	0	0	26116	24840	145769	27142	1024994	43039	109670	0	0	8192	613291	0	0
2024-06-29 02:11:32			0	36453	0	0	0	26109	24840	145741	27090	1025021	43039	109667	0	0	8192	613208	0	0
2024-06-29 02:12:32			0	36430	0	0	0	26114	24820	145757	26894	1024933	43038	109669	0	0	8191	614241	0	0
2024-06-29 02:13:32			0	36415	0	0	0	26119	24810	145973	27289	1024951	43026	109671	0	0	8190	614905	0	0
2024-06-29 02:14:32			0	36415	0	0	0	26116	24810	146009	27199	1024942	43025	109670	0	0	8190	614905	0	0
2024-06-29 02:15:32			0	36402	0	0	0	26111	24800	146005	27403	1024880	43025	109668	0	0	8189	615485	0	0
2024-06-29 02:16:32			0	36376	0	0	0	26106	24790	146065	27242	1024862	43035	109666	0	0	8188	616612	0	0
2024-06-29 02:17:32			0	36362	0	0	0	26106	24790	146189	27234	1024854	43035	109666	0	0	8187	617201	0	0
2024-06-29 02:18:32			0	36371	0	0	0	26101	24790	146193	27582	1024836	43035	109664	0	0	8188	616822	0	0
2024-06-29 02:19:32			0	36338	0	0	0	26098	24780	146181	27164	1024756	43022	109663	0	0	8186	618246	0	0
2024-06-29 02:20:32			0	36328	0	0	0	26111	24780	146273	27268	1024917	43056	109668	0	0	8185	618667	0	0
2024-06-29 02:21:32			0	36321	0	0	0	26124	24790	146317	27478	1024996	43045	109673	0	0	8185	618927	0	0
2024-06-29 02:22:32			0	36302	0	0	0	26124	24790	146313	27279	1024934	43045	109673	0	0	8184	619728	0	0
2024-06-29 02:23:32			0	36306	0	0	0	26137	24780	146441	27281	1024925	43023	109678	0	0	8184	619595	0	0
2024-06-29 02:24:32			0	36286	0	0	0	26158	24800	146509	27287	1025005	43046	109686	0	0	8182	620368	0	0
2024-06-29 02:25:32			0	36279	0	0	0	26174	24790	146545	26771	1025076	43045	109692	0	0	8182	620699	0	0
2024-06-29 02:26:32			0	36255	0	0	0	26197	24800	146681	27109	1025228	43058	109701	0	0	8180	621678	0	0
2024-06-29 02:27:32			0	36265	0	0	0	26223	24810	146725	27196	1025245	43048	109711	0	0	8180	621220	0	0
2024-06-29 02:28:32			0	36243	0	0	0	26244	24830	146669	27114	1025253	43061	109719	0	0	8179	622080	0	0
2024-06-29 02:29:32			0	36235	0	0	0	26262	24830	146693	27208	1025387	43061	109726	0	0	8178	622418	0	0
2024-06-29 02:30:32			0	36214	0	0	0	26288	24850	146785	27019	1025413	43063	109736	0	0	8177	623237	0	0
2024-06-29 02:31:32			0	36199	0	0	0	26316	24860	146793	27190	1025484	43063	109747	0	0	8175	623837	0	0
2024-06-29 02:32:32			0	36206	0	0	0	26332	24870	146841	27161	1025555	43065	109753	0	0	8176	623505	0	0
2024-06-29 02:33:32			0	36181	0	0	0	26340	24880	146909	27149	1025688	43054	109756	0	0	8174	624529	0	0
2024-06-29 02:34:32			0	36181	0	0	0	26350	24890	146993	27282	1025625	43068	109760	0	0	8174	624494	0	0
2024-06-29 02:35:32			0	36176	0	0	0	26353	24890	146901	27388	1025589	43067	109761	0	0	8174	624706	0	0
2024-06-29 02:36:32			0	36174	0	0	0	26361	24900	146977	27416	1025722	43045	109764	0	0	8173	624755	0	0
2024-06-29 02:37:32			0	36167	0	0	0	26355	24910	146941	27365	1025731	43057	109762	0	0	8173	625017	0	0
2024-06-29 02:38:32			0	36165	0	0	0	26358	24920	146929	27301	1025740	43069	109763	0	0	8173	625066	0	0
2024-06-29 02:39:32			0	36147	0	0	0	26371	24910	146913	27242	1025651	43069	109768	0	0	8172	625866	0	0
2024-06-29 02:40:32			0	36156	0	0	0	26366	24920	146969	27133	1025721	43058	109766	0	0	8173	625448	0	0
2024-06-29 02:41:32			0	36151	0	0	0	26371	24930	147041	27274	1025757	43058	109768	0	0	8172	625625	0	0
2024-06-29 02:42:32			0	36147	0	0	0	26371	24930	147057	27147	1025793	43082	109768	0	0	8172	625795	0	0
2024-06-29 02:43:32			0	36131	0	0	0	26368	24930	147013	27303	1025793	43082	109767	0	0	8171	626474	0	0
2024-06-29 02:44:32			0	36128	0	0	0	26363	24930	147041	27206	1025766	43070	109765	0	0	8171	626602	0	0
2024-06-29 02:45:32			0	36132	0	0	0	26345	24930	147149	27010	1025659	43059	109758	0	0	8172	626432	0	0
2024-06-29 02:46:32			0	36118	0	0	0	26288	24930	147061	27332	1025436	43036	109736	0	0	8172	627027	0	0
2024-06-29 02:47:32			0	36117	0	0	0	26207	24900	147189	27222	1025178	43023	109705	0	0	8173	627176	0	0
2024-06-29 02:48:32			0	36115	0	0	0	26132	24870	147133	27268	1024939	42999	109676	0	0	8174	627368	0	0
2024-06-29 02:49:32			0	36130	0	0	0	26038	24830	147141	27223	1024549	42995	109640	0	0	8176	626872	0	0
2024-06-29 02:50:32			0	36121	0	0	0	25958	24770	147137	27124	1024185	42956	109609	0	0	8177	627468	0	0
2024-06-29 02:51:32			0	36109	0	0	0	25888	24710	147217	27001	1023913	42949	109582	0	0	8177	628192	0	0
2024-06-29 02:52:32			0	36059	0	0	0	25818	24670	147309	27133	1023683	42945	109555	0	0	8176	630467	0	0
2024-06-29 02:53:32			0	36061	0	0	0	25753	24620	147353	27022	1023364	42930	109530	0	0	8177	630560	0	0
2024-06-29 02:54:32			0	36029	0	0	0	25693	24560	147557	27204	1023215	42924	109507	0	0	8176	632143	0	0
2024-06-29 02:55:32			0	36017	0	0	0	25638	24520	147645	27230	1023039	42943	109486	0	0	8176	632799	0	0
2024-06-29 02:56:32			0	35992	0	0	0	25599	24490	147705	27222	1023032	42962	109471	0	0	8175	633978	0	0
2024-06-29 02:57:32			0	35995	0	0	0	25605	24480	147849	27093	1023344	43005	109473	0	0	8175	633885	0	0
2024-06-29 02:58:32			0	35979	0	0	0	25659	24500	147861	26736	1023531	43050	109494	0	0	8173	634500	0	0
2024-06-29 02:59:32			0	35977	0	0	0	25722	24510	147937	26991	1023816	43063	109518	0	0	8172	634550	0	0
2024-06-29 03:00:32			0	35959	0	0	0	25792	24550	147913	27085	1024099	43056	109545	0	0	8170	635179	0	0
2024-06-29 03:01:32			0	35933	0	0	0	25883	24580	147885	27185	1024293	43059	109580	0	0	8167	636188	0	0
2024-06-29 03:02:32			0	35927	0	0	0	25971	24630	147989	27157	1024470	43063	109614	0	0	8166	636266	0	0
2024-06-29 03:03:32			0	35941	0	0	0	26028	24650	148069	26748	1024638	43054	109636	0	0	8166	635593	0	0
2024-06-29 03:04:32			0	35937	0	0	0	26090	24680	147865	27079	1024824	43068	109660	0	0	8165	635657	0	0
2024-06-29 03:05:32			0	35938	0	0	0	26135	24690	147873	27213	1024903	43058	109677	0	0	8164	635578	0	0
2024-06-29 03:06:32			0	35938	0	0	0	26186	24720	147897	27112	1024973	43073	109697	0	0	8163	635470	0	0
2024-06-29 03:07:32			0	35941	0	0	0	26210	24730	147953	26987	1025053	43041	109706	0	0	8163	635305	0	0
2024-06-29 03:08:32			0	35983	0	0	0	26244	24770	147813	27223	1025247	43077	109719	0	0	8165	633360	0	0
2024-06-29 03:09:32			0	35980	0	0	0	26270	24770	147801	26953	1025202	43066	109729	0	0	8164	633489	0	0
2024-06-29 03:10:32			0	35994	0	0	0	26257	24780	147657	27039	1025247	43056	109724	0	0	8165	632853	0	0
2024-06-29 03:11:32			0	36009	0	0	0	26228	24810	147601	26852	1025290	43058	109713	0	0	8167	632104	0	0
2024-06-29 03:12:32			0	36039	0	0	0	26166	24810	147617	27095	1025138	43048	109689	0	0	8169	630821	0	0
2024-06-29 03:13:32			0	36054	0	0	0	26088	24800	147477	26949	1024933	43025	109659	0	0	8171	630217	0	0
2024-06-29 03:14:32			0	36041	0	0	0	26015	24780	147477	26878	1024685	43012	109631	0	0	8172	630843	0	0
2024-06-29 03:15:32			0	36032	0	0	0	25948	24750	147437	26920	1024303	42964	109605	0	0	8172	631335	0	0
2024-06-29 03:16:32			0	36052	0	0	0	25880	24710	147525	26890	1024020	42971	109579	0	0	8174	630623	0	0
2024-06-29 03:17:32			0	36026	0	0	0	25823	24650	147609	27105	1023817	42956	109557	0	0	8174	631949	0	0
2024-06-29 03:18:32			0	36019	0	0	0	25761	24620	147661	27104	1023543	42962	109533	0	0	8174	632356	0	0
2024-06-29 03:19:32			0	36006	0	0	0	25706	24580	147813	27242	1023384	42949	109512	0	0	8174	633056	0	0
2024-06-29 03:20:32			0	35962	0	0	0	25664	24540	147921	27085	1023332	42956	109496	0	0	8172	635086	0	0
2024-06-29 03:21:32			0	35932	0	0	0	25641	24530	147981	26778	1023342	42977	109487	0	0	8171	636411	0	0
2024-06-29 03:22:32			0	35901	0	0	0	25657	24530	148221	26991	1023556	43010	109493	0	0	8169	637745	0	0
2024-06-29 03:23:32			0	35869	0	0	0	25732	24550	148376	26811	1023965	43044	109522	0	0	8166	639052	0	0
2024-06-29 03:24:32			0	35810	0	0	0	25823	24560	148536	26824	1024152	43035	109557	0	0	8162	641564	0	0
2024-06-29 03:25:32			0	35777	0	0	0	25906	24590	148608	26981	1024364	43027	109589	0	0	8159	642883	0	0
2024-06-29 03:26:32			0	35776	0	0	0	25971	24620	148636	26729	1024488	43041	109614	0	0	8158	642817	0	0
2024-06-29 03:27:32			0	35738	0	0	0	26018	24650	148736	26949	1024593	43066	109632	0	0	8155	644355	0	0
2024-06-29 03:28:32			0	35749	0	0	0	26064	24670	148656	26833	1024681	43045	109650	0	0	8155	643805	0	0
2024-06-29 03:29:32			0	35784	0	0	0	26116	24690	148468	27175	1024770	43037	109670	0	0	8156	642217	0	0
2024-06-29 03:30:32			0	35813	0	0	0	26145	24710	148492	27493	1024849	43048	109681	0	0	8157	640890	0	0
2024-06-29 03:31:32			0	35821	0	0	0	26189	24730	148404	26968	1024999	43051	109698	0	0	8157	640472	0	0
2024-06-29 03:32:32			0	35810	0	0	0	26210	24750	148372	26894	1024999	43053	109706	0	0	8156	640875	0	0
2024-06-29 03:33:32			0	35830	0	0	0	26202	24760	148348	27078	1025051	43055	109703	0	0	8157	639975	0	0
2024-06-29 03:34:32			0	35822	0	0	0	26189	24780	148424	26906	1025051	43044	109698	0	0	8157	640248	0	0
2024-06-29 03:35:32			0	35807	0	0	0	26174	24770	148356	26871	1025015	43033	109692	0	0	8157	640932	0	0
2024-06-29 03:36:32			0	35771	0	0	0	26153	24790	148624	27189	1025041	43035	109684	0	0	8155	642416	0	0
2024-06-29 03:37:32			0	35745	0	0	0	26129	24780	148656	26998	1024943	43044	109675	0	0	8154	643578	0	0
2024-06-29 03:38:32			0	35719	0	0	0	26119	24770	148748	26984	1024881	43022	109671	0	0	8153	644742	0	0
2024-06-29 03:39:32			0	35714	0	0	0	26101	24770	148936	26979	1024801	43022	109664	0	0	8153	644959	0	0
2024-06-29 03:40:32			0	35696	0	0	0	26090	24760	148908	27085	1024695	43009	109660	0	0	8152	645777	0	0
2024-06-29 03:41:32			0	35692	0	0	0	26085	24740	148864	27282	1024607	43019	109658	0	0	8152	646024	0	0
2024-06-29 03:42:32			0	35679	0	0	0	26064	24740	148908	26925	1024660	43019	109650	0	0	8151	646589	0	0
2024-06-29 03:43:32			0	35693	0	0	0	26072	24730	149000	27116	1024652	43029	109653	0	0	8152	646017	0	0
2024-06-29 03:44:32			0	35690	0	0	0	26062	24720	148896	26932	1024599	43017	109649	0	0	8152	646184	0	0
2024-06-29 03:45:32			0	35681	0	0	0	26062	24720	149008	27034	1024652	43040	109649	0	0	8152	646575	0	0
2024-06-29 03:46:32			0	35678	0	0	0	26088	24720	149044	27072	1024688	43017	109659	0	0	8151	646705	0	0
2024-06-29 03:47:32			0	35681	0	0	0	26088	24730	149024	26809	1024696	43029	109659	0	0	8151	646538	0	0
2024-06-29 03:48:32			0	35682	0	0	0	26083	24730	148976	26715	1024670	43029	109657	0	0	8151	646495	0	0
2024-06-29 03:49:32			0	35680	0	0	0	26080	24730	148976	26930	1024616	43041	109656	0	0	8151	646582	0	0
2024-06-29 03:50:32			0	35685	0	0	0	26067	24720	149040	27078	1024626	43017	109651	0	0	8152	646401	0	0
2024-06-29 03:51:32			0	35687	0	0	0	26054	24700	149044	26738	1024546	43038	109646	0	0	8152	646387	0	0
2024-06-29 03:52:32			0	35668	0	0	0	26051	24720	149008	26908	1024634	43040	109645	0	0	8151	647140	0	0
2024-06-29 03:53:32			0	35676	0	0	0	26070	24710	149128	26880	1024608	43015	109652	0	0	8151	646829	0	0
2024-06-29 03:54:32			0	35669	0	0	0	26064	24720	149012	26955	1024626	43040	109650	0	0	8151	647097	0	0
2024-06-29 03:55:32			0	35697	0	0	0	26059	24710	149064	27111	1024555	43015	109648	0	0	8152	645916	0	0
2024-06-29 03:56:32			0	35683	0	0	0	26046	24700	149028	27114	1024412	43004	109643	0	0	8152	646561	0	0
2024-06-29 03:57:32			0	35687	0	0	0	26012	24690	149088	27263	1024386	43002	109630	0	0	8153	646424	0	0
2024-06-29 03:58:32			0	35681	0	0	0	25976	24680	148980	27223	1024288	43001	109616	0	0	8153	646721	0	0
2024-06-29 03:59:32			0	35680	0	0	0	25955	24660	148996	27326	1024156	42990	109608	0	0	8153	646838	0	0
2024-06-29 04:00:32			0	35704	0	0	0	25911	24640	148944	27279	1023952	42987	109591	0	0	8155	645868	0	0
2024-06-29 04:01:32			0	35698	0	0	0	25885	24600	148936	27196	1023766	42984	109581	0	0	8155	646275	0	0
2024-06-29 04:02:32			0	35691	0	0	0	25841	24580	149000	27319	1023589	42981	109564	0	0	8155	646652	0	0
2024-06-29 04:03:32			0	35702	0	0	0	25815	24550	148896	27244	1023457	42967	109554	0	0	8156	646284	0	0
2024-06-29 04:04:32			0	35715	0	0	0	25786	24520	148828	27341	1023333	42964	109543	0	0	8157	645828	0	0
2024-06-29 04:05:32			0	35735	0	0	0	25771	24500	148828	27493	1023299	42952	109537	0	0	8158	645032	0	0
2024-06-29 04:06:32			0	35733	0	0	0	25758	24480	148900	27152	1023264	42995	109532	0	0	8158	645192	0	0
2024-06-29 04:07:32			0	35749	0	0	0	25737	24470	148848	27111	1023158	42994	109524	0	0	8160	644534	0	0
2024-06-29 04:08:32			0	35734	0	0	0	25732	24450	148880	26890	1023097	42981	109522	0	0	8159	645258	0	0
2024-06-29 04:09:32			0	35746	0	0	0	25719	24430	148808	27371	1023044	43000	109517	0	0	8160	644810	0	0
2024-06-29 04:10:32			0	35756	0	0	0	25706	24420	148860	27093	1022964	42977	109512	0	0	8160	644412	0	0
2024-06-29 04:11:32			0	35765	0	0	0	25696	24390	148800	27050	1022921	42974	109508	0	0	8161	644131	0	0
2024-06-29 04:12:32			0	35749	0	0	0	25690	24380	148808	26885	1022895	42996	109506	0	0	8160	644862	0	0
2024-06-29 04:13:32			0	35765	0	0	0	25677	24370	148816	26937	1022824	42982	109501	0	0	8161	644204	0	0
2024-06-29 04:14:32			0	35751	0	0	0	25675	24370	148960	27303	1022860	43005	109500	0	0	8160	644812	0	0
2024-06-29 04:15:32			0	35758	0	0	0	25675	24370	148896	27194	1022824	42982	109500	0	0	8161	644508	0	0
2024-06-29 04:16:32			0	35756	0	0	0	25667	24350	148948	27046	1022772	42993	109497	0	0	8161	644667	0	0
2024-06-29 04:17:32			0	35761	0	0	0	25654	24330	148948	27005	1022737	42980	109492	0	0	8161	644523	0	0
2024-06-29 04:18:32			0	35756	0	0	0	25662	24340	148956	27213	1022755	42981	109495	0	0	8161	644704	0	0
2024-06-29 04:19:32			0	35737	0	0	0	25664	24330	149016	27163	1022702	42990	109496	0	0	8160	645566	0	0
2024-06-29 04:20:32			0	35735	0	0	0	25670	24330	149016	27166	1022836	42979	109498	0	0	8159	645652	0	0
2024-06-29 04:21:32			0	35741	0	0	0	25688	24350	148996	27301	1022897	43002	109505	0	0	8159	645319	0	0
2024-06-29 04:22:32			0	35733	0	0	0	25698	24340	149152	27081	1022880	43014	109509	0	0	8159	645703	0	0
2024-06-29 04:23:32			0	35717	0	0	0	25703	24350	149148	27237	1022959	42993	109511	0	0	8158	646362	0	0
2024-06-29 04:24:32			0	35716	0	0	0	25719	24350	149088	27296	1022986	43015	109517	0	0	8158	646406	0	0
2024-06-29 04:25:32			0	35714	0	0	0	25706	24360	149164	27322	1022941	42994	109512	0	0	8158	646456	0	0
2024-06-29 04:26:32			0	35706	0	0	0	25711	24360	149184	27048	1022861	42994	109514	0	0	8157	646804	0	0
2024-06-29 04:27:32			0	35696	0	0	0	25709	24350	149124	27031	1022852	42982	109513	0	0	8157	647276	0	0
2024-06-29 04:28:32			0	35685	0	0	0	25701	24360	149280	26774	1022887	43015	109510	0	0	8156	647718	0	0
2024-06-29 04:29:32			0	35686	0	0	0	25701	24360	149276	26989	1022887	43004	109510	0	0	8156	647675	0	0
2024-06-29 04:30:32			0	35689	0	0	0	25703	24350	149248	27050	1022950	42992	109511	0	0	8156	647581	0	0
2024-06-29 04:31:32			0	35664	0	0	0	25698	24340	149308	27062	1022835	42992	109509	0	0	8155	648707	0	0
2024-06-29 04:32:32			0	35643	0	0	0	25688	24340	149268	27216	1022728	42981	109505	0	0	8154	649623	0	0
2024-06-29 04:33:32			0	35645	0	0	0	25667	24330	149404	27095	1022737	42980	109497	0	0	8155	649573	0	0
2024-06-29 04:34:32			0	35645	0	0	0	25664	24310	149460	27192	1022676	42978	109496	0	0	8155	649646	0	0
2024-06-29 04:35:32			0	35634	0	0	0	25646	24310	149444	27097	1022596	42978	109489	0	0	8154	650126	0	0
2024-06-29 04:36:32			0	35623	0	0	0	25623	24300	149572	27227	1022551	42976	109480	0	0	8154	650644	0	0
2024-06-29 04:37:32			0	35618	0	0	0	25607	24290	149584	26951	1022454	42954	109474	0	0	8154	650899	0	0
2024-06-29 04:38:32			0	35589	0	0	0	25576	24280	149596	27409	1022356	42963	109462	0	0	8153	652205	0	0
2024-06-29 04:39:32			0	35592	0	0	0	25561	24250	149664	27168	1022224	42961	109456	0	0	8153	652184	0	0
2024-06-29 04:40:32			0	35573	0	0	0	25553	24240	149736	26998	1022207	42959	109453	0	0	8152	653053	0	0
2024-06-29 04:41:32			0	35555	0	0	0	25522	24220	149720	26831	1021985	42958	109441	0	0	8152	653916	0	0
2024-06-29 04:42:32			0	35547	0	0	0	25509	24200	149856	27173	1021977	42956	109436	0	0	8151	654341	0	0
2024-06-29 04:43:32			0	35520	0	0	0	25488	24190	149956	27170	1021969	42944	109428	0	0	8150	655564	0	0
2024-06-29 04:44:32			0	35500	0	0	0	25470	24180	150060	27317	1021835	42965	109421	0	0	8149	656480	0	0
2024-06-29 04:45:32			0	35471	0	0	0	25457	24160	150088	27255	1021863	42963	109416	0	0	8148	657832	0	0
2024-06-29 04:46:32			0	35473	0	0	0	25459	24150	150032	27086	1021792	42962	109417	0	0	8148	657781	0	0
2024-06-29 04:47:32			0	35446	0	0	0	25457	24140	150316	27511	1021802	42961	109416	0	0	8147	659008	0	0
2024-06-29 04:48:32			0	35448	0	0	0	25464	24140	150380	27228	1021847	42972	109419	0	0	8147	658920	0	0
2024-06-29 04:49:32			0	35422	0	0	0	25477	24130	150400	27301	1021811	42971	109424	0	0	8145	660105	0	0
2024-06-29 04:50:32			0	35400	0	0	0	25483	24140	150500	27124	1021873	42961	109426	0	0	8144	661040	0	0
2024-06-29 04:51:32			0	35378	0	0	0	25485	24150	150472	27097	1021819	42985	109427	0	0	8142	661977	0	0
2024-06-29 04:52:32			0	35367	0	0	0	25483	24130	150580	27039	1021856	42959	109426	0	0	8142	662538	0	0
2024-06-29 04:53:32			0	35358	0	0	0	25470	24120	150756	27352	1021794	42959	109421	0	0	8142	662975	0	0
2024-06-29 04:54:32			0	35339	0	0	0	25464	24110	150780	26793	1021697	42970	109419	0	0	8141	663855	0	0
2024-06-29 04:55:32			0	35325	0	0	0	25457	24110	150840	27377	1021688	42958	109416	0	0	8140	664476	0	0
2024-06-29 04:56:32			0	35309	0	0	0	25441	24100	150788	27235	1021617	42957	109410	0	0	8139	665224	0	0
2024-06-29 04:57:32			0	35321	0	0	0	25428	24100	150956	27223	1021564	42946	109405	0	0	8140	664691	0	0
2024-06-29 04:58:32			0	35295	0	0	0	25420	24080	150952	27282	1021449	42944	109402	0	0	8139	665922	0	0
2024-06-29 04:59:32			0	35312	0	0	0	25405	24050	151048	27022	1021432	42953	109396	0	0	8140	665278	0	0
2024-06-29 05:00:32			0	35275	0	0	0	25399	24070	151108	27296	1021459	42955	109394	0	0	8138	666849	0	0
2024-06-29 05:01:32			0	35262	0	0	0	25407	24050	151264	27093	1021432	42953	109397	0	0	8137	667503	0	0
2024-06-29 05:02:32			0	35257	0	0	0	25399	24050	151304	27189	1021432	42963	109394	0	0	8137	667726	0	0
2024-06-29 05:03:32			0	35251	0	0	0	25405	24050	151240	27043	1021406	42953	109396	0	0	8137	667993	0	0
2024-06-29 05:04:32			0	35245	0	0	0	25397	24050	151280	27242	1021450	42941	109393	0	0	8136	668261	0	0
2024-06-29 05:05:32			0	35240	0	0	0	25399	24040	151396	27277	1021362	42963	109394	0	0	8136	668522	0	0
2024-06-29 05:06:32			0	35202	0	0	0	25392	24030	151428	27017	1021406	42973	109391	0	0	8134	670256	0	0
2024-06-29 05:07:32			0	35201	0	0	0	25389	24030	151352	27201	1021300	42952	109390	0	0	8134	670301	0	0
2024-06-29 05:08:32			0	35186	0	0	0	25381	24030	151456	27135	1021326	42941	109387	0	0	8133	670971	0	0
2024-06-29 05:09:32			0	35185	0	0	0	25371	24020	151612	27161	1021300	42950	109383	0	0	8133	671054	0	0
2024-06-29 05:10:32			0	35170	0	0	0	25371	24010	151532	27339	1021230	42949	109383	0	0	8133	671763	0	0
2024-06-29 05:11:32			0	35164	0	0	0	25368	24010	151680	26906	1021292	42960	109382	0	0	8132	672031	0	0
2024-06-29 05:12:32			0	35143	0	0	0	25366	24000	151692	27234	1021266	42958	109381	0	0	8131	673010	0	0
2024-06-29 05:13:32			0	35140	0	0	0	25353	23990	151712	27313	1021222	42936	109376	0	0	8131	673183	0	0
2024-06-29 05:14:32			0	35120	0	0	0	25348	23990	151704	27140	1021231	42948	109374	0	0	8130	674080	0	0
2024-06-29 05:15:32			0	35091	0	0	0	25348	23980	151855	27281	1021133	42958	109374	0	0	8128	675420	0	0
2024-06-29 05:16:32			0	35112	0	0	0	25350	23980	151903	27317	1021106	42968	109375	0	0	8130	674477	0	0
2024-06-29 05:17:32			0	35086	0	0	0	25350	23980	152043	27027	1021178	42946	109375	0	0	8128	675645	0	0
2024-06-29 05:18:32			0	35090	0	0	0	25361	23970	151955	26850	1021196	42958	109379	0	0	8128	675503	0	0
2024-06-29 05:19:32			0	35071	0	0	0	25358	23980	152007	27334	1021187	42946	109378	0	0	8127	676320	0	0
2024-06-29 05:20:32			0	35042	0	0	0	25361	23980	152227	27119	1021187	42958	109379	0	0	8126	677625	0	0
2024-06-29 05:21:32			0	35040	0	0	0	25371	23980	152167	27244	1021160	42968	109383	0	0	8125	677715	0	0
2024-06-29 05:22:32			0	35030	0	0	0	25376	23980	152243	27177	1021293	42958	109385	0	0	8125	678166	0	0
2024-06-29 05:23:32			0	35017	0	0	0	25384	23990	152339	27414	1021222	42958	109388	0	0	8124	678714	0	0
2024-06-29 05:24:32			0	35006	0	0	0	25389	23980	152391	27163	1021187	42958	109390	0	0	8123	679249	0	0
2024-06-29 05:25:32			0	35003	0	0	0	25384	23990	152363	26939	1021249	42958	109388	0	0	8123	679346	0	0
2024-06-29 05:26:32			0	34984	0	0	0	25384	23980	152395	27390	1021133	42958	109388	0	0	8122	680242	0	0
2024-06-29 05:27:32			0	34971	0	0	0	25381	23980	152527	27031	1021231	42958	109387	0	0	8121	680830	0	0
2024-06-29 05:28:32			0	34960	0	0	0	25374	23980	152499	27319	1021106	42946	109384	0	0	8121	681328	0	0
2024-06-29 05:29:32			0	34942	0	0	0	25376	23970	152583	27007	1021089	42946	109385	0	0	8120	682181	0	0
2024-06-29 05:30:32			0	34945	0	0	0	25361	23980	152659	27163	1021098	42958	109379	0	0	8120	682006	0	0
2024-06-29 05:31:32			0	34946	0	0	0	25363	23960	152727	27152	1021045	42966	109380	0	0	8120	682038	0	0
2024-06-29 05:32:32			0	34923	0	0	0	25355	23950	152699	27109	1021055	42956	109377	0	0	8119	683118	0	0
2024-06-29 05:33:32			0	34913	0	0	0	25353	23960	152755	26953	1021063	42956	109376	0	0	8119	683534	0	0
2024-06-29 05:34:32			0	34881	0	0	0	25350	23960	152867	27090	1021072	42956	109375	0	0	8117	684986	0	0
2024-06-29 05:35:32			0	34898	0	0	0	25355	23960	152839	27274	1021037	42956	109377	0	0	8118	684214	0	0
2024-06-29 05:36:32			0	34884	0	0	0	25363	23960	152927	27514	1021117	42956	109380	0	0	8117	684850	0	0
2024-06-29 05:37:32			0	34859	0	0	0	25358	23950	152955	27187	1021055	42944	109378	0	0	8116	686024	0	0
2024-06-29 05:38:32			0	34867	0	0	0	25361	23950	153027	27255	1021108	42956	109379	0	0	8116	685661	0	0
2024-06-29 05:39:32			0	34854	0	0	0	25361	23960	152979	27369	1021152	42944	109379	0	0	8115	686213	0	0
2024-06-29 05:40:32			0	34841	0	0	0	25355	23960	153039	26870	1021125	42966	109377	0	0	8115	686805	0	0
2024-06-29 05:41:32			0	34836	0	0	0	25361	23950	153135	27348	1021028	42989	109379	0	0	8114	687071	0	0
2024-06-29 05:42:32			0	34845	0	0	0	25361	23960	153263	27443	1021090	42944	109379	0	0	8115	686623	0	0
2024-06-29 05:43:32			0	34821	0	0	0	25358	23950	153219	27351	1021055	42966	109378	0	0	8113	687754	0	0
2024-06-29 05:44:32			0	34823	0	0	0	25358	23950	153171	27130	1021019	42955	109378	0	0	8114	687663	0	0
2024-06-29 05:45:32			0	34796	0	0	0	25348	23950	153267	27281	1021055	42956	109374	0	0	8112	688894	0	0
2024-06-29 05:46:32			0	34807	0	0	0	25350	23950	153175	27114	1021055	42956	109375	0	0	8113	688392	0	0
2024-06-29 05:47:32			0	34796	0	0	0	25342	23940	153319	27154	1021011	42964	109372	0	0	8112	688933	0	0
2024-06-29 05:48:32			0	34792	0	0	0	25345	23940	153351	27229	1020984	42954	109373	0	0	8112	689115	0	0
2024-06-29 05:49:32			0	34765	0	0	0	25337	23930	153435	27265	1020966	42953	109370	0	0	8111	690387	0	0
2024-06-29 05:50:32			0	34783	0	0	0	25340	23940	153363	27473	1021064	42954	109371	0	0	8112	689526	0	0
2024-06-29 05:51:32			0	34769	0	0	0	25345	23940	153491	27093	1021064	42954	109373	0	0	8111	690166	0	0
2024-06-29 05:52:32			0	34772	0	0	0	25342	23940	153455	27154	1020975	42954	109372	0	0	8111	690029	0	0
2024-06-29 05:53:32			0	34753	0	0	0	25342	23940	153571	27126	1021011	42964	109372	0	0	8110	690897	0	0
2024-06-29 05:54:32			0	34757	0	0	0	25348	23930	153511	27140	1020966	42953	109374	0	0	8110	690753	0	0
2024-06-29 05:55:32			0	34746	0	0	0	25345	23940	153467	27308	1020975	42954	109373	0	0	8110	691217	0	0
2024-06-29 05:56:32			0	34755	0	0	0	25342	23940	153563	27289	1021011	42964	109372	0	0	8110	690805	0	0
2024-06-29 05:57:32			0	34744	0	0	0	25332	23940	153567	26876	1020975	42954	109368	0	0	8110	691309	0	0
2024-06-29 05:58:32			0	34747	0	0	0	25335	23930	153595	26894	1020886	42953	109369	0	0	8110	691210	0	0
2024-06-29 05:59:32			0	34751	0	0	0	25327	23930	153499	26920	1021020	42953	109366	0	0	8110	691027	0	0
2024-06-29 06:00:32			0	34750	0	0	0	25329	23920	153627	27097	1020834	42951	109367	0	0	8110	691112	0	0
2024-06-29 06:01:32			0	34727	0	0	0	25322	23920	153551	27239	1020896	42952	109364	0	0	8109	692165	0	0
2024-06-29 06:02:32			0	34738	0	0	0	25324	23910	153711	27168	1020843	42961	109365	0	0	8109	691700	0	0
2024-06-29 06:03:32			0	34731	0	0	0	25316	23910	153663	27062	1020843	42961	109362	0	0	8109	692020	0	0
2024-06-29 06:04:32			0	34729	0	0	0	25303	23910	153595	27050	1020852	42951	109357	0	0	8109	692112	0	0
2024-06-29 06:05:32			0	34725	0	0	0	25303	23910	153767	26882	1020870	42961	109357	0	0	8109	692295	0	0
2024-06-29 06:06:32			0	34721	0	0	0	25290	23910	153727	27182	1020816	42951	109352	0	0	8109	692478	0	0
2024-06-29 06:07:32			0	34705	0	0	0	25303	23900	153711	27100	1020799	42949	109357	0	0	8108	693250	0	0
2024-06-29 06:08:32			0	34740	0	0	0	25296	23890	153739	27248	1020755	42949	109354	0	0	8110	691686	0	0
2024-06-29 06:09:32			0	34723	0	0	0	25283	23900	153759	27083	1020799	42959	109349	0	0	8109	692426	0	0
2024-06-29 06:10:32			0	34728	0	0	0	25293	23890	153671	27218	1020764	42949	109353	0	0	8109	692236	0	0
2024-06-29 06:11:32			0	34713	0	0	0	25285	23890	153683	27026	1020702	42959	109350	0	0	8108	692923	0	0
2024-06-29 06:12:32			0	34716	0	0	0	25277	23880	153651	27097	1020666	42948	109347	0	0	8109	692825	0	0
2024-06-29 06:13:32			0	34730	0	0	0	25272	23880	153747	26951	1020711	42958	109345	0	0	8110	692183	0	0
2024-06-29 06:14:32			0	34720	0	0	0	25267	23870	153759	26880	1020703	42958	109343	0	0	8109	692680	0	0
2024-06-29 06:15:32			0	34713	0	0	0	25272	23890	153771	27145	1020728	42959	109345	0	0	8109	692923	0	0
2024-06-29 06:16:32			0	34731	0	0	0	25277	23880	153771	27201	1020773	42958	109347	0	0	8110	692137	0	0
2024-06-29 06:17:32			0	34723	0	0	0	25283	23880	153727	26960	1020746	42970	109349	0	0	8109	692504	0	0
2024-06-29 06:18:32			0	34704	0	0	0	25275	23890	153719	27249	1020728	42949	109346	0	0	8108	693335	0	0
2024-06-29 06:19:32			0	34711	0	0	0	25277	23870	153739	26807	1020729	42958	109347	0	0	8108	693093	0	0
2024-06-29 06:20:32			0	34716	0	0	0	25264	23870	153651	27071	1020676	42936	109342	0	0	8109	692864	0	0
2024-06-29 06:21:32			0	34692	0	0	0	25257	23870	153727	27176	1020614	42958	109339	0	0	8108	693964	0	0
2024-06-29 06:22:32			0	34722	0	0	0	25259	23860	153731	27277	1020596	42945	109340	0	0	8109	692628	0	0
2024-06-29 06:23:32			0	34718	0	0	0	25246	23870	153695	27078	1020614	42936	109335	0	0	8109	692772	0	0
2024-06-29 06:24:32			0	34723	0	0	0	25241	23850	153723	26949	1020534	42933	109333	0	0	8110	692621	0	0
2024-06-29 06:25:32			0	34718	0	0	0	25249	23840	153759	27230	1020571	42944	109336	0	0	8109	692889	0	0
2024-06-29 06:26:32			0	34714	0	0	0	25238	23840	153659	26975	1020571	42956	109332	0	0	8109	693072	0	0
2024-06-29 06:27:32			0	34718	0	0	0	25233	23860	153651	27170	1020543	42945	109330	0	0	8110	692811	0	0
2024-06-29 06:28:32			0	34723	0	0	0	25236	23850	153763	27346	1020526	42944	109331	0	0	8110	692621	0	0
2024-06-29 06:29:32			0	34728	0	0	0	25233	23840	153751	27092	1020517	42944	109330	0	0	8110	692431	0	0
2024-06-29 06:30:32			0	34731	0	0	0	25228	23830	153659	27074	1020447	42943	109328	0	0	8110	692332	0	0
2024-06-29 06:31:32			0	34710	0	0	0	25223	23830	153663	27102	1020527	42943	109326	0	0	8109	693295	0	0
2024-06-29 06:32:32			0	34720	0	0	0	25225	23840	153691	27069	1020482	42944	109327	0	0	8110	692797	0	0
2024-06-29 06:33:32			0	34728	0	0	0	25231	23830	153571	27284	1020465	42943	109329	0	0	8110	692470	0	0
2024-06-29 06:34:32			0	34715	0	0	0	25220	23830	153727	27215	1020491	42943	109325	0	0	8109	693065	0	0
2024-06-29 06:35:32			0	34722	0	0	0	25233	23830	153607	27535	1020500	42943	109330	0	0	8110	692745	0	0
2024-06-29 06:36:32			0	34727	0	0	0	25228	23830	153751	27287	1020447	42954	109328	0	0	8110	692516	0	0
2024-06-29 06:37:32			0	34719	0	0	0	25231	23820	153739	27326	1020483	42964	109329	0	0	8109	692921	0	0
2024-06-29 06:38:32			0	34735	0	0	0	25238	23830	153751	27263	1020545	42954	109332	0	0	8110	692149	0	0
2024-06-29 06:39:32			0	34714	0	0	0	25231	23830	153579	26892	1020465	42931	109329	0	0	8109	693111	0	0
2024-06-29 06:40:32			0	34732	0	0	0	25241	23830	153687	27275	1020491	42954	109333	0	0	8110	692287	0	0
2024-06-29 06:41:32			0	34733	0	0	0	25246	23830	153671	26852	1020527	42964	109335	0	0	8110	692241	0	0
2024-06-29 06:42:32			0	34744	0	0	0	25254	23830	153663	27209	1020607	42964	109338	0	0	8110	691737	0	0
2024-06-29 06:43:32			0	34718	0	0	0	25270	23860	153679	27263	1020650	42967	109344	0	0	8109	692811	0	0
2024-06-29 06:44:32			0	34727	0	0	0	25275	23860	153795	27272	1020712	42968	109346	0	0	8109	692399	0	0
2024-06-29 06:45:32			0	34730	0	0	0	25270	23860	153619	27119	1020712	42968	109344	0	0	8110	692261	0	0
2024-06-29 06:46:32			0	34722	0	0	0	25285	23870	153643	27104	1020694	42958	109350	0	0	8109	692589	0	0
2024-06-29 06:47:32			0	34742	0	0	0	25290	23870	153659	27135	1020756	42958	109352	0	0	8110	691673	0	0
2024-06-29 06:48:32			0	34739	0	0	0	25285	23870	153635	27412	1020756	42969	109350	0	0	8110	691810	0	0
2024-06-29 06:49:32			0	34744	0	0	0	25296	23870	153643	27237	1020783	42980	109354	0	0	8110	691581	0	0
2024-06-29 06:50:32			0	34748	0	0	0	25301	23870	153647	27351	1020783	42947	109356	0	0	8110	691398	0	0
2024-06-29 06:51:32			0	34745	0	0	0	25301	23880	153647	27391	1020818	42969	109356	0	0	8110	691497	0	0
2024-06-29 06:52:32			0	34748	0	0	0	25309	23880	153631	27253	1020800	42970	109359	0	0	8110	691359	0	0
2024-06-29 06:53:32			0	34735	0	0	0	25311	23900	153591	27206	1020879	42971	109360	0	0	8109	691876	0	0
2024-06-29 06:54:32			0	34731	0	0	0	25316	23890	153627	27119	1020871	42959	109362	0	0	8109	692098	0	0
2024-06-29 06:55:32			0	34756	0	0	0	25319	23900	153615	27409	1020941	42972	109363	0	0	8110	690915	0	0
2024-06-29 06:56:32			0	34767	0	0	0	25319	23900	153603	26889	1020933	42959	109363	0	0	8111	690413	0	0
2024-06-29 06:57:32			0	34743	0	0	0	25314	23900	153567	27175	1020933	42971	109361	0	0	8110	691510	0	0
2024-06-29 06:58:32			0	34748	0	0	0	25322	23910	153479	26960	1020896	42961	109364	0	0	8110	691242	0	0
2024-06-29 06:59:32			0	34767	0	0	0	25324	23910	153431	27150	1020896	42973	109365	0	0	8111	690374	0	0
2024-06-29 07:00:32			0	34756	0	0	0	25322	23900	153507	26993	1020888	42972	109364	0	0	8110	690915	0	0
2024-06-29 07:01:32			0	34759	0	0	0	25319	23900	153459	27026	1020781	42950	109363	0	0	8110	690778	0	0
2024-06-29 07:02:32			0	34771	0	0	0	25314	23910	153439	27020	1020896	42961	109361	0	0	8111	690191	0	0
2024-06-29 07:03:32			0	34773	0	0	0	25316	23910	153503	27163	1020870	42961	109362	0	0	8111	690100	0	0
2024-06-29 07:04:32			0	34802	0	0	0	25311	23890	153391	26870	1020844	42971	109360	0	0	8113	688853	0	0
2024-06-29 07:05:32			0	34780	0	0	0	25319	23910	153447	27222	1020896	42973	109363	0	0	8112	689780	0	0
2024-06-29 07:06:32			0	34776	0	0	0	25322	23900	153451	27010	1020879	42982	109364	0	0	8111	690001	0	0
2024-06-29 07:07:32			0	34779	0	0	0	25322	23910	153431	27317	1020905	42973	109364	0	0	8112	689826	0	0
2024-06-29 07:08:32			0	34791	0	0	0	25314	23920	153467	26753	1020940	42961	109361	0	0	8112	689239	0	0
2024-06-29 07:09:32			0	34800	0	0	0	25309	23910	153351	27293	1020852	42961	109359	0	0	8113	688867	0	0
2024-06-29 07:10:32			0	34806	0	0	0	25306	23910	153295	27036	1020843	42961	109358	0	0	8113	688593	0	0
2024-06-29 07:11:32			0	34818	0	0	0	25309	23910	153327	27161	1020896	42961	109359	0	0	8114	688046	0	0
2024-06-29 07:12:32			0	34793	0	0	0	25314	23910	153311	26733	1020878	42961	109361	0	0	8112	689186	0	0
2024-06-29 07:13:32			0	34817	0	0	0	25314	23900	153259	27163	1020861	42972	109361	0	0	8114	688130	0	0
2024-06-29 07:14:32			0	34814	0	0	0	25306	23900	153227	26956	1020888	42972	109358	0	0	8114	688267	0	0
2024-06-29 07:15:32			0	34824	0	0	0	25309	23910	153235	27012	1020896	42973	109359	0	0	8114	687772	0	0
2024-06-29 07:16:32			0	34823	0	0	0	25311	23910	153227	26809	1020878	42973	109360	0	0	8114	687818	0	0
2024-06-29 07:17:32			0	34834	0	0	0	25316	23910	153191	27182	1020896	42961	109362	0	0	8115	687317	0	0
2024-06-29 07:18:32			0	34830	0	0	0	25322	23910	153251	27317	1020950	42951	109364	0	0	8114	687499	0	0
2024-06-29 07:19:32			0	34846	0	0	0	25332	23910	153171	27230	1020977	42973	109368	0	0	8115	686771	0	0
2024-06-29 07:20:32			0	34828	0	0	0	25332	23920	153207	26932	1020940	42961	109368	0	0	8114	687552	0	0
2024-06-29 07:21:32			0	34844	0	0	0	25322	23920	153139	27293	1020922	42962	109364	0	0	8115	686823	0	0
2024-06-29 07:22:32			0	34835	0	0	0	25335	23920	153159	26953	1021047	42961	109369	0	0	8114	687233	0	0
2024-06-29 07:23:32			0	34851	0	0	0	25348	23920	153127	27424	1020967	42961	109374	0	0	8115	686504	0	0
2024-06-29 07:24:32			0	34841	0	0	0	25345	23930	153175	27131	1021038	42986	109373	0	0	8115	686921	0	0
2024-06-29 07:25:32			0	34852	0	0	0	25353	23930	153039	27034	1021073	42974	109376	0	0	8115	686420	0	0
2024-06-29 07:26:32			0	34852	0	0	0	25366	23950	152995	27190	1021126	42976	109381	0	0	8115	686343	0	0
2024-06-29 07:27:32			0	34853	0	0	0	25376	23950	153051	27260	1021180	42965	109385	0	0	8115	686297	0	0
2024-06-29 07:28:32			0	34863	0	0	0	25389	23960	152995	27358	1021224	43000	109390	0	0	8115	685804	0	0
2024-06-29 07:29:32			0	34870	0	0	0	25397	23970	153031	27043	1021294	42978	109393	0	0	8116	685447	0	0
2024-06-29 07:30:32			0	34888	0	0	0	25402	23970	153027	27400	1021330	42979	109395	0	0	8116	684629	0	0
2024-06-29 07:31:32			0	34868	0	0	0	25423	23980	152927	27208	1021374	42990	109403	0	0	8115	685499	0	0
2024-06-29 07:32:32			0	34886	0	0	0	25438	23990	152911	26821	1021551	43014	109409	0	0	8116	684643	0	0
2024-06-29 07:33:32			0	34883	0	0	0	25470	24010	152919	26892	1021604	42993	109421	0	0	8115	684702	0	0
2024-06-29 07:34:32			0	34894	0	0	0	25496	24020	152919	27097	1021656	42995	109431	0	0	8115	684164	0	0
2024-06-29 07:35:32			0	34887	0	0	0	25506	24050	152855	27045	1021745	42986	109435	0	0	8115	684366	0	0
2024-06-29 07:36:32			0	34870	0	0	0	25519	24050	152843	27078	1021780	42986	109440	0	0	8114	685138	0	0
2024-06-29 07:37:32			0	34910	0	0	0	25522	24080	152807	27157	1021859	42989	109441	0	0	8116	683207	0	0
2024-06-29 07:38:32			0	34890	0	0	0	25527	24090	152795	27417	1021841	42978	109443	0	0	8115	684076	0	0
2024-06-29 07:39:32			0	34921	0	0	0	25540	24090	152703	27391	1021929	42990	109448	0	0	8116	682670	0	0
2024-06-29 07:40:32			0	34930	0	0	0	25550	24110	152647	27339	1022017	42981	109452	0	0	8117	682185	0	0
2024-06-29 07:41:32			0	34937	0	0	0	25555	24110	152619	27150	1021955	42980	109454	0	0	8117	681869	0	0
2024-06-29 07:42:32			0	34946	0	0	0	25550	24120	152527	26951	1021973	42993	109452	0	0	8118	681423	0	0
2024-06-29 07:43:32			0	34939	0	0	0	25555	24120	152479	27071	1022008	42993	109454	0	0	8117	681740	0	0
2024-06-29 07:44:32			0	34974	0	0	0	25566	24120	152531	27147	1022080	42993	109458	0	0	8119	680157	0	0
2024-06-29 07:45:32			0	34964	0	0	0	25579	24140	152459	27012	1022149	42984	109463	0	0	8118	680532	0	0
2024-06-29 07:46:32			0	34966	0	0	0	25597	24150	152423	27315	1022185	43006	109470	0	0	8118	680403	0	0
2024-06-29 07:47:32			0	34986	0	0	0	25618	24150	152395	26963	1022220	43018	109478	0	0	8119	679500	0	0
2024-06-29 07:48:32			0	35000	0	0	0	25628	24170	152279	26863	1022273	43019	109482	0	0	8120	678792	0	0
2024-06-29 07:49:32			0	35006	0	0	0	25631	24170	152267	27469	1022273	42998	109483	0	0	8120	678521	0	0
2024-06-29 07:50:32			0	35029	0	0	0	25623	24180	152259	27071	1022237	42987	109480	0	0	8121	677447	0	0
2024-06-29 07:51:32			0	35037	0	0	0	25612	24180	152107	27229	1022245	43000	109476	0	0	8122	677086	0	0
2024-06-29 07:52:32			0	35058	0	0	0	25610	24170	152095	27381	1022201	42975	109475	0	0	8123	676180	0	0
2024-06-29 07:53:32			0	35089	0	0	0	25594	24170	151971	27298	1022174	42998	109469	0	0	8125	674786	0	0
2024-06-29 07:54:32			0	35091	0	0	0	25581	24170	151919	27130	1022094	42998	109464	0	0	8125	674697	0	0
2024-06-29 07:55:32			0	35128	0	0	0	25573	24170	151716	27149	1022139	42987	109461	0	0	8128	673037	0	0
2024-06-29 07:56:32			0	35156	0	0	0	25571	24150	151672	27329	1022033	42996	109460	0	0	8129	671859	0	0
2024-06-29 07:57:32			0	35186	0	0	0	25555	24150	151516	27478	1022060	42996	109454	0	0	8131	670517	0	0
2024-06-29 07:58:32			0	35206	0	0	0	25553	24150	151412	27294	1022024	42996	109453	0	0	8132	669624	0	0
2024-06-29 07:59:32			0	35224	0	0	0	25540	24160	151332	27369	1022068	42997	109448	0	0	8133	668783	0	0
2024-06-29 08:00:32			0	35247	0	0	0	25545	24130	151200	27203	1021998	42983	109450	0	0	8134	667870	0	0
2024-06-29 08:01:32			0	35309	0	0	0	25535	24150	150992	27403	1021998	42996	109446	0	0	8138	665037	0	0
2024-06-29 08:02:32			0	35352	0	0	0	25529	24140	150880	27260	1021882	42972	109444	0	0	8140	663166	0	0
2024-06-29 08:03:32			0	35394	0	0	0	25516	24130	150616	27447	1021856	42993	109439	0	0	8143	661343	0	0
2024-06-29 08:04:32			0	35442	0	0	0	25509	24130	150412	27223	1021918	42971	109436	0	0	8145	659222	0	0
2024-06-29 08:05:32			0	35494	0	0	0	25503	24130	150280	27300	1021838	42983	109434	0	0	8148	656930	0	0
2024-06-29 08:06:32			0	35548	0	0	0	25488	24120	150008	27211	1021759	42971	109428	0	0	8151	654592	0	0
2024-06-29 08:07:32			0	35574	0	0	0	25483	24110	149908	27176	1021697	42992	109426	0	0	8153	653488	0	0
2024-06-29 08:08:32			0	35618	0	0	0	25485	24110	149660	26953	1021741	42991	109427	0	0	8155	651561	0	0
2024-06-29 08:09:32			0	35653	0	0	0	25490	24110	149588	26986	1021795	42991	109429	0	0	8157	650030	0	0
2024-06-29 08:10:32			0	35679	0	0	0	25498	24110	149472	27175	1021910	42992	109432	0	0	8158	648895	0	0
2024-06-29 08:11:32			0	35709	0	0	0	25511	24120	149308	27261	1021892	42993	109437	0	0	8160	647550	0	0
2024-06-29 08:12:32			0	35723	0	0	0	25511	24110	149292	26996	1021991	42992	109437	0	0	8160	646977	0	0
2024-06-29 08:13:32			0	35757	0	0	0	25527	24120	149140	27093	1022053	42993	109443	0	0	8162	645461	0	0
2024-06-29 08:14:32			0	35779	0	0	0	25545	24130	149004	27258	1022105	42994	109450	0	0	8163	644469	0	0
2024-06-29 08:15:32			0	35820	0	0	0	25542	24130	148920	27057	1022132	43016	109449	0	0	8165	642691	0	0
2024-06-29 08:16:32			0	35852	0	0	0	25558	24160	148792	27112	1022175	43007	109455	0	0	8167	641197	0	0
2024-06-29 08:17:32			0	35860	0	0	0	25579	24160	148641	27154	1022211	43019	109463	0	0	8167	640851	0	0
2024-06-29 08:18:32			0	35871	0	0	0	25589	24170	148657	27066	1022308	43031	109467	0	0	8167	640339	0	0
2024-06-29 08:19:32			0	35908	0	0	0	25610	24190	148493	26968	1022415	43021	109475	0	0	8169	638669	0	0
2024-06-29 08:20:32			0	35923	0	0	0	25625	24200	148421	27197	1022467	43001	109481	0	0	8170	637987	0	0
2024-06-29 08:21:32			0	35936	0	0	0	25662	24210	148325	27003	1022591	43023	109495	0	0	8170	637391	0	0
2024-06-29 08:22:32			0	35938	0	0	0	25685	24240	148261	27232	1022661	43026	109504	0	0	8169	637197	0	0
2024-06-29 08:23:32			0	35982	0	0	0	25693	24240	148189	27220	1022688	43026	109507	0	0	8172	635304	0	0
2024-06-29 08:24:32			0	35977	0	0	0	25724	24270	148113	26800	1022820	43030	109519	0	0	8171	635411	0	0
2024-06-29 08:25:32			0	35992	0	0	0	25729	24280	147985	27050	1022873	43008	109521	0	0	8172	634731	0	0
2024-06-29 08:26:32			0	36043	0	0	0	25750	24290	147917	27333	1022935	43020	109529	0	0	8174	632508	0	0
2024-06-29 08:27:32			0	36080	0	0	0	25758	24310	147773	27057	1022970	43011	109532	0	0	8176	630853	0	0
2024-06-29 08:28:32			0	36097	0	0	0	25776	24320	147673	27248	1023014	43023	109539	0	0	8177	630091	0	0
2024-06-29 08:29:32			0	36139	0	0	0	25792	24330	147445	27164	1023130	43023	109545	0	0	8179	628264	0	0
2024-06-29 08:30:32			0	36171	0	0	0	25812	24350	147281	27308	1023200	43037	109553	0	0	8180	626830	0	0
2024-06-29 08:31:32			0	36206	0	0	0	25825	24360	147133	26939	1023235	43027	109558	0	0	8182	625306	0	0
2024-06-29 08:32:32			0	36251	0	0	0	25836	24370	147013	27209	1023279	43027	109562	0	0	8184	623362	0	0
2024-06-29 08:33:32			0	36301	0	0	0	25844	24400	146841	27249	1023340	43053	109565	0	0	8187	621140	0	0
2024-06-29 08:34:32			0	36307	0	0	0	25849	24400	146685	27345	1023331	43041	109567	0	0	8187	620886	0	0
2024-06-29 08:35:32			0	36340	0	0	0	25857	24410	146489	27445	1023384	43031	109570	0	0	8189	619457	0	0
2024-06-29 08:36:32			0	36381	0	0	0	25857	24420	146309	27279	1023419	43021	109570	0	0	8191	617694	0	0
2024-06-29 08:37:32			0	36413	0	0	0	25846	24420	146209	27367	1023392	42999	109566	0	0	8193	616347	0	0
2024-06-29 08:38:32			0	36434	0	0	0	25857	24420	146141	27329	1023347	43022	109570	0	0	8194	615464	0	0
2024-06-29 08:39:32			0	36446	0	0	0	25838	24420	146137	27154	1023339	43021	109563	0	0	8195	614960	0	0
2024-06-29 08:40:32			0	36472	0	0	0	25833	24420	146061	27248	1023374	43022	109561	0	0	8196	613869	0	0
2024-06-29 08:41:32			0	36476	0	0	0	25828	24430	146009	27251	1023329	43022	109559	0	0	8196	613667	0	0
2024-06-29 08:42:32			0	36485	0	0	0	25818	24420	145901	27001	1023339	43021	109555	0	0	8197	613324	0	0
2024-06-29 08:43:32			0	36523	0	0	0	25831	24420	145869	26941	1023285	43021	109560	0	0	8199	611733	0	0
2024-06-29 08:44:32			0	36533	0	0	0	25812	24420	145817	26951	1023258	43021	109553	0	0	8200	611315	0	0
2024-06-29 08:45:32			0	36558	0	0	0	25805	24420	145737	27265	1023258	43021	109550	0	0	8201	610270	0	0
2024-06-29 08:46:32			0	36565	0	0	0	25794	24400	145733	27135	1023286	43031	109546	0	0	8201	610047	0	0
2024-06-29 08:47:32			0	36571	0	0	0	25789	24410	145629	27196	1023250	43020	109544	0	0	8202	609762	0	0
2024-06-29 08:48:32			0	36567	0	0	0	25784	24400	145633	27275	1023152	43009	109542	0	0	8202	609963	0	0
2024-06-29 08:49:32			0	36566	0	0	0	25771	24390	145661	26953	1023162	43007	109537	0	0	8202	610040	0	0
2024-06-29 08:50:32			0	36577	0	0	0	25758	24390	145733	27088	1023108	42997	109532	0	0	8203	609580	0	0
2024-06-29 08:51:32			0	36561	0	0	0	25737	24370	145805	27118	1022994	43005	109524	0	0	8202	610317	0	0
2024-06-29 08:52:32			0	36536	0	0	0	25727	24370	145749	27003	1022967	43005	109520	0	0	8201	611362	0	0
2024-06-29 08:53:32			0	36537	0	0	0	25706	24360	145797	27185	1022861	43004	109512	0	0	8201	611355	0	0
2024-06-29 08:54:32			0	36527	0	0	0	25690	24340	145901	26880	1022728	43014	109506	0	0	8201	611842	0	0
2024-06-29 08:55:32			0	36517	0	0	0	25670	24330	145945	26724	1022737	43001	109498	0	0	8201	612296	0	0
2024-06-29 08:56:32			0	36504	0	0	0	25670	24320	145969	27066	1022711	43000	109498	0	0	8200	612875	0	0
2024-06-29 08:57:32			0	36500	0	0	0	25667	24320	145989	27010	1022765	43023	109497	0	0	8200	613042	0	0
2024-06-29 08:58:32			0	36488	0	0	0	25657	24320	146017	26837	1022765	43023	109493	0	0	8199	613545	0	0
2024-06-29 08:59:32			0	36478	0	0	0	25659	24320	146053	27036	1022765	43034	109494	0	0	8199	613965	0	0
2024-06-29 09:00:32			0	36467	0	0	0	25675	24330	146073	27092	1022996	43034	109500	0	0	8198	614391	0	0
2024-06-29 09:01:32			0	36478	0	0	0	25711	24340	146029	27267	1023049	43036	109514	0	0	8198	613895	0	0
2024-06-29 09:02:32			0	36465	0	0	0	25719	24360	146077	27039	1023056	43027	109517	0	0	8197	614371	0	0
2024-06-29 09:03:32			0	36448	0	0	0	25729	24350	146137	27267	1023164	43036	109521	0	0	8196	615120	0	0
2024-06-29 09:04:32			0	36444	0	0	0	25766	24380	146101	27237	1023243	43017	109535	0	0	8195	615183	0	0
2024-06-29 09:05:32			0	36448	0	0	0	25768	24390	146177	27241	1023322	43041	109536	0	0	8196	614981	0	0
2024-06-29 09:06:32			0	36432	0	0	0	25797	24400	146169	26830	1023420	43042	109547	0	0	8194	615618	0	0
2024-06-29 09:07:32			0	36408	0	0	0	25825	24430	146221	27237	1023543	43044	109558	0	0	8193	616522	0	0
2024-06-29 09:08:32			0	36411	0	0	0	25864	24430	146289	27124	1023605	43044	109573	0	0	8192	616396	0	0
2024-06-29 09:09:32			0	36416	0	0	0	25883	24450	146117	27163	1023712	43046	109580	0	0	8192	616116	0	0
2024-06-29 09:10:32			0	36420	0	0	0	25919	24480	146137	27261	1023871	43048	109594	0	0	8192	615844	0	0
2024-06-29 09:11:32			0	36442	0	0	0	25961	24510	146185	26923	1024030	43041	109610	0	0	8193	614815	0	0
2024-06-29 09:12:32			0	36445	0	0	0	25979	24490	146029	26864	1023870	43040	109617	0	0	8192	614759	0	0
2024-06-29 09:13:32			0	36477	0	0	0	25981	24520	145953	27197	1023975	43053	109618	0	0	8194	613313	0	0
2024-06-29 09:14:32			0	36481	0	0	0	25979	24520	145945	27267	1024056	43042	109617	0	0	8194	613145	0	0
2024-06-29 09:15:32			0	36451	0	0	0	25994	24520	146109	27130	1024002	43053	109623	0	0	8193	614403	0	0
2024-06-29 09:16:32			0	36318	0	0	0	25997	24540	146653	27175	1024081	43055	109624	0	0	8186	619930	0	0
2024-06-29 09:17:32			0	36199	0	0	0	26007	24550	147165	26937	1024179	43067	109628	0	0	8179	624932	0	0
2024-06-29 09:18:32			0	36075	0	0	0	26018	24560	147553	26878	1024152	43057	109632	0	0	8173	630176	0	0
2024-06-29 09:19:32			0	35991	0	0	0	26025	24580	147917	27279	1024231	43059	109635	0	0	8168	633698	0	0
2024-06-29 09:20:32			0	35924	0	0	0	26023	24590	148061	26918	1024329	43071	109634	0	0	8165	636539	0	0
2024-06-29 09:21:32			0	35895	0	0	0	26028	24590	148069	26986	1024302	43048	109636	0	0	8163	637787	0	0
2024-06-29 09:22:32			0	35889	0	0	0	26010	24600	148181	27045	1024266	43049	109629	0	0	8163	638010	0	0
2024-06-29 09:23:32			0	35904	0	0	0	25999	24600	148225	27105	1024293	43027	109625	0	0	8164	637364	0	0
2024-06-29 09:24:32			0	35932	0	0	0	25992	24600	148161	27131	1024221	43040	109622	0	0	8166	636159	0	0
2024-06-29 09:25:32			0	35940	0	0	0	25976	24600	148001	26996	1024186	43039	109616	0	0	8166	635816	0	0
2024-06-29 09:26:32			0	35955	0	0	0	25958	24600	147921	26937	1024212	43039	109609	0	0	8167	635171	0	0
2024-06-29 09:27:32			0	35984	0	0	0	25935	24590	147897	27072	1024070	43027	109600	0	0	8169	633963	0	0
2024-06-29 09:28:32			0	36019	0	0	0	25885	24580	147689	27206	1023919	43015	109581	0	0	8172	632499	0	0
2024-06-29 09:29:32			0	36018	0	0	0	25844	24560	147581	27227	1023769	43012	109565	0	0	8172	632613	0	0
2024-06-29 09:30:32			0	36024	0	0	0	25844	24540	147617	27012	1023796	43011	109565	0	0	8173	632428	0	0
2024-06-29 09:31:32			0	36074	0	0	0	25838	24550	147497	26994	1023831	43034	109563	0	0	8175	630254	0	0
2024-06-29 09:32:32			0	36074	0	0	0	25867	24540	147389	27199	1023983	43055	109574	0	0	8175	630290	0	0
2024-06-29 09:33:32			0	36112	0	0	0	25903	24550	147361	26710	1024099	43056	109588	0	0	8176	628633	0	0
2024-06-29 09:34:32			0	36121	0	0	0	25901	24560	147341	26904	1023876	43035	109587	0	0	8177	628214	0	0
2024-06-29 09:35:32			0	36134	0	0	0	25854	24540	147233	26904	1023689	43011	109569	0	0	8178	627731	0	0
2024-06-29 09:36:32			0	36137	0	0	0	25820	24520	147217	27313	1023601	43009	109556	0	0	8179	627675	0	0
2024-06-29 09:37:32			0	36135	0	0	0	25789	24500	147177	27083	1023432	43007	109544	0	0	8179	627831	0	0
2024-06-29 09:38:32			0	36149	0	0	0	25763	24480	147173	26915	1023336	43027	109534	0	0	8180	627306	0	0
2024-06-29 09:39:32			0	36160	0	0	0	25745	24450	147173	27092	1023266	43025	109527	0	0	8181	626944	0	0
2024-06-29 09:40:32			0	36179	0	0	0	25732	24440	147157	26958	1023222	43001	109522	0	0	8182	626171	0	0
2024-06-29 09:41:32			0	36187	0	0	0	25703	24430	147081	27433	1023115	43000	109511	0	0	8183	625866	0	0
2024-06-29 09:42:32			0	36208	0	0	0	25701	24410	146985	26878	1023054	42998	109510	0	0	8184	625045	0	0
2024-06-29 09:43:32			0	36225	0	0	0	25701	24400	146861	26984	1023099	43009	109510	0	0	8185	624359	0	0
2024-06-29 09:44:32			0	36255	0	0	0	25711	24400	146749	27052	1023152	43020	109514	0	0	8187	623086	0	0
2024-06-29 09:45:32			0	36293	0	0	0	25735	24400	146609	27123	1023286	43042	109523	0	0	8188	621478	0	0
2024-06-29 09:46:32			0	36293	0	0	0	25771	24420	146689	27234	1023339	43043	109537	0	0	8188	621408	0	0
2024-06-29 09:47:32			0	36311	0	0	0	25799	24420	146545	27178	1023374	43022	109548	0	0	8188	620647	0	0
2024-06-29 09:48:32			0	36321	0	0	0	25820	24430	146637	27255	1023472	43033	109556	0	0	8188	620189	0	0
2024-06-29 09:49:32			0	36275	0	0	0	25807	24430	146657	27478	1023445	43022	109551	0	0	8186	622134	0	0
2024-06-29 09:50:32			0	36284	0	0	0	25799	24440	146729	27152	1023463	43024	109548	0	0	8187	621718	0	0
2024-06-29 09:51:32			0	36259	0	0	0	25799	24440	146769	27095	1023516	43035	109548	0	0	8185	622776	0	0
2024-06-29 09:52:32			0	36271	0	0	0	25810	24450	146865	27246	1023525	43036	109552	0	0	8186	622233	0	0
2024-06-29 09:53:32			0	36241	0	0	0	25828	24460	146913	26887	1023604	43047	109559	0	0	8184	623468	0	0
2024-06-29 09:54:32			0	36236	0	0	0	25836	24470	146889	26883	1023639	43027	109562	0	0	8184	623645	0	0
2024-06-29 09:55:32			0	36227	0	0	0	25854	24470	146749	27495	1023702	43048	109569	0	0	8183	624027	0	0
2024-06-29 09:56:32			0	36231	0	0	0	25867	24490	146849	26875	1023790	43050	109574	0	0	8183	623787	0	0
2024-06-29 09:57:32			0	36245	0	0	0	25909	24500	146781	27218	1023879	43028	109590	0	0	8183	623158	0	0
2024-06-29 09:58:32			0	36239	0	0	0	25937	24510	146929	26868	1024012	43075	109601	0	0	8182	623377	0	0
2024-06-29 09:59:32			0	36213	0	0	0	25979	24530	146953	27268	1024091	43065	109617	0	0	8180	624409	0	0
2024-06-29 10:00:32			0	36208	0	0	0	26012	24540	146913	27199	1024162	43066	109630	0	0	8180	624586	0	0
2024-06-29 10:01:32			0	36203	0	0	0	26018	24550	146989	27045	1024188	43068	109632	0	0	8179	624763	0	0
2024-06-29 10:02:32			0	36202	0	0	0	26018	24560	147105	26968	1024143	43057	109632	0	0	8179	624770	0	0
2024-06-29 10:03:32			0	36183	0	0	0	26031	24570	147077	27026	1024214	43069	109637	0	0	8178	625541	0	0
2024-06-29 10:04:32			0	36174	0	0	0	26033	24580	146989	26814	1024347	43059	109638	0	0	8178	625888	0	0
2024-06-29 10:05:32			0	36215	0	0	0	26051	24590	147037	27124	1024329	43038	109645	0	0	8179	624112	0	0
2024-06-29 10:06:32			0	36241	0	0	0	26080	24610	147009	26956	1024497	43061	109656	0	0	8180	622940	0	0
2024-06-29 10:07:32			0	36240	0	0	0	26093	24620	146885	26998	1024452	43062	109661	0	0	8180	622947	0	0
2024-06-29 10:08:32			0	36231	0	0	0	26093	24620	146965	26833	1024452	43041	109661	0	0	8180	623328	0	0
2024-06-29 10:09:32			0	36211	0	0	0	26085	24630	146933	26800	1024478	43074	109658	0	0	8179	624141	0	0
2024-06-29 10:10:32			0	36224	0	0	0	26088	24640	146829	27140	1024594	43064	109659	0	0	8180	623554	0	0
2024-06-29 10:11:32			0	36217	0	0	0	26098	24660	146953	27055	1024629	43077	109663	0	0	8179	623780	0	0
2024-06-29 10:12:32			0	36216	0	0	0	26114	24670	146841	27199	1024699	43067	109669	0	0	8179	623787	0	0
2024-06-29 10:13:32			0	36240	0	0	0	26111	24670	146857	26913	1024708	43068	109668	0	0	8180	622771	0	0
2024-06-29 10:14:32			0	36252	0	0	0	26106	24660	146697	27000	1024664	43044	109666	0	0	8181	622298	0	0
2024-06-29 10:15:32			0	36269	0	0	0	26114	24680	146697	27067	1024726	43069	109669	0	0	8182	621509	0	0
2024-06-29 10:16:32			0	36276	0	0	0	26124	24690	146521	27176	1024708	43046	109673	0	0	8182	621177	0	0
2024-06-29 10:17:32			0	36329	0	0	0	26111	24690	146501	27050	1024636	43058	109668	0	0	8185	618940	0	0
2024-06-29 10:18:32			0	36365	0	0	0	26090	24690	146357	27185	1024574	43058	109660	0	0	8187	617424	0	0
2024-06-29 10:19:32			0	36383	0	0	0	26059	24680	146245	26916	1024529	43035	109648	0	0	8189	616702	0	0
2024-06-29 10:20:32			0	36421	0	0	0	26046	24660	146145	27064	1024468	43033	109643	0	0	8191	615175	0	0
2024-06-29 10:21:32			0	36414	0	0	0	26051	24660	146017	26873	1024530	43044	109645	0	0	8190	615469	0	0
2024-06-29 10:22:32			0	36428	0	0	0	26054	24660	145937	26720	1024557	43078	109646	0	0	8191	614881	0	0
2024-06-29 10:23:32			0	36471	0	0	0	26051	24670	146001	27133	1024601	43079	109645	0	0	8193	613044	0	0
2024-06-29 10:24:32			0	36492	0	0	0	26051	24680	145929	27256	1024636	43089	109645	0	0	8194	612130	0	0
2024-06-29 10:25:32			0	36486	0	0	0	26075	24690	145877	27128	1024788	43080	109654	0	0	8194	612347	0	0
2024-06-29 10:26:32			0	36478	0	0	0	26098	24700	145693	27013	1024894	43071	109663	0	0	8193	612647	0	0
2024-06-29 10:27:32			0	36488	0	0	0	26145	24720	145753	26831	1024955	43083	109681	0	0	8193	612159	0	0
2024-06-29 10:28:32			0	36486	0	0	0	26168	24730	145737	27140	1025106	43084	109690	0	0	8192	612208	0	0
2024-06-29 10:29:32			0	36480	0	0	0	26197	24750	145785	27142	1025159	43097	109701	0	0	8192	612390	0	0
2024-06-29 10:30:32			0	36473	0	0	0	26212	24770	145829	27131	1025274	43099	109707	0	0	8191	612613	0	0
2024-06-29 10:31:32			0	36477	0	0	0	26228	24780	145873	27029	1025327	43079	109713	0	0	8191	612411	0	0
2024-06-29 10:32:32			0	36469	0	0	0	26225	24790	145857	26963	1025371	43089	109712	0	0	8191	612711	0	0
2024-06-29 10:33:32			0	36478	0	0	0	26246	24790	145817	26634	1025424	43089	109720	0	0	8191	612335	0	0
2024-06-29 10:34:32			0	36468	0	0	0	26262	24810	145813	27168	1025540	43092	109726	0	0	8190	612684	0	0
2024-06-29 10:35:32			0	36494	0	0	0	26283	24830	145845	27142	1025628	43105	109734	0	0	8191	611527	0	0
2024-06-29 10:36:32			0	36474	0	0	0	26311	24840	145809	27121	1025672	43084	109745	0	0	8190	612329	0	0
2024-06-29 10:37:32			0	36479	0	0	0	26322	24870	145793	27116	1025769	43098	109749	0	0	8190	612015	0	0
2024-06-29 10:38:32			0	36508	0	0	0	26332	24880	145701	27133	1025813	43109	109753	0	0	8191	610769	0	0
2024-06-29 10:39:32			0	36513	0	0	0	26353	24880	145705	27142	1025848	43099	109761	0	0	8191	610560	0	0
2024-06-29 10:40:32			0	36500	0	0	0	26361	24900	145749	27034	1025963	43089	109764	0	0	8191	611034	0	0
2024-06-29 10:41:32			0	36516	0	0	0	26384	24910	145697	27173	1025972	43090	109773	0	0	8191	610331	0	0
2024-06-29 10:42:32			0	36536	0	0	0	26407	24920	145629	27258	1026069	43102	109782	0	0	8192	609463	0	0
2024-06-29 10:43:32			0	36577	0	0	0	26431	24940	145493	27074	1026069	43104	109791	0	0	8194	607686	0	0
2024-06-29 10:44:32			0	36578	0	0	0	26441	24940	145477	27064	1026158	43104	109795	0	0	8194	607644	0	0
2024-06-29 10:45:32			0	36619	0	0	0	26459	24960	145366	26977	1026219	43107	109802	0	0	8195	605872	0	0
2024-06-29 10:46:32			0	36634	0	0	0	26451	24970	145202	26974	1026210	43096	109799	0	0	8196	605215	0	0
2024-06-29 10:47:32			0	36648	0	0	0	26457	24980	145066	27173	1026192	43108	109801	0	0	8197	604600	0	0
2024-06-29 10:48:32			0	36670	0	0	0	26464	24980	144930	27039	1026245	43108	109804	0	0	8198	603688	0	0
2024-06-29 10:49:32			0	36688	0	0	0	26459	24990	144910	27315	1026289	43109	109802	0	0	8199	602909	0	0
2024-06-29 10:50:32			0	36714	0	0	0	26477	24990	144846	26981	1026378	43109	109809	0	0	8200	601834	0	0
2024-06-29 10:51:32			0	36722	0	0	0	26485	25010	144766	27029	1026413	43122	109812	0	0	8201	601435	0	0
2024-06-29 10:52:32			0	36731	0	0	0	26493	25010	144742	27175	1026467	43122	109815	0	0	8201	601063	0	0
2024-06-29 10:53:32			0	36737	0	0	0	26509	25030	144690	27095	1026520	43114	109821	0	0	8201	600748	0	0
2024-06-29 10:54:32			0	36742	0	0	0	26503	25050	144686	26915	1026608	43126	109819	0	0	8202	600473	0	0
2024-06-29 10:55:32			0	36746	0	0	0	26496	25050	144666	27234	1026528	43116	109816	0	0	8202	600308	0	0
2024-06-29 10:56:32			0	36731	0	0	0	26506	25050	144738	26953	1026617	43116	109820	0	0	8201	600927	0	0
2024-06-29 10:57:32			0	36708	0	0	0	26501	25050	144726	27185	1026537	43104	109818	0	0	8200	601877	0	0
2024-06-29 10:58:32			0	36717	0	0	0	26488	25050	144838	27216	1026501	43104	109813	0	0	8200	601505	0	0
2024-06-29 10:59:32			0	36703	0	0	0	26480	25050	144838	27244	1026501	43104	109810	0	0	8200	602084	0	0
2024-06-29 11:00:32			0	36703	0	0	0	26477	25040	144842	27228	1026465	43103	109809	0	0	8200	602118	0	0
2024-06-29 11:01:32			0	36696	0	0	0	26480	25050	144782	27123	1026483	43104	109810	0	0	8200	602373	0	0
2024-06-29 11:02:32			0	36697	0	0	0	26483	25060	144886	27203	1026554	43105	109811	0	0	8200	602298	0	0
2024-06-29 11:03:32			0	36697	0	0	0	26485	25060	144690	27338	1026581	43116	109812	0	0	8200	602298	0	0
2024-06-29 11:04:32			0	36689	0	0	0	26498	25070	144746	27407	1026670	43117	109817	0	0	8199	602594	0	0
2024-06-29 11:05:32			0	36704	0	0	0	26506	25070	144894	27461	1026643	43139	109820	0	0	8200	601974	0	0
2024-06-29 11:06:32			0	36690	0	0	0	26514	25070	144942	27154	1026732	43117	109823	0	0	8199	602553	0	0
2024-06-29 11:07:32			0	36680	0	0	0	26540	25090	144838	27390	1026740	43109	109833	0	0	8198	602898	0	0
2024-06-29 11:08:32			0	36666	0	0	0	26545	25100	144874	27190	1026775	43131	109835	0	0	8197	603443	0	0
2024-06-29 11:09:32			0	36690	0	0	0	26561	25100	144778	27331	1026891	43131	109841	0	0	8198	602450	0	0
2024-06-29 11:10:32			0	36695	0	0	0	26566	25110	144906	27348	1026935	43144	109843	0	0	8198	602209	0	0
2024-06-29 11:11:32			0	36684	0	0	0	26584	25120	144918	27461	1026979	43144	109850	0	0	8197	602630	0	0
2024-06-29 11:12:32			0	36608	0	0	0	26592	25140	145026	27352	1027005	43146	109853	0	0	8193	605710	0	0
2024-06-29 11:13:32			0	36491	0	0	0	26599	25140	145457	27386	1027086	43124	109856	0	0	8187	610578	0	0
2024-06-29 11:14:32			0	36417	0	0	0	26607	25150	145773	26861	1026996	43113	109859	0	0	8183	613637	0	0
2024-06-29 11:15:32			0	36359	0	0	0	26599	25150	145993	27043	1027023	43125	109856	0	0	8180	616068	0	0
2024-06-29 11:16:32			0	36327	0	0	0	26607	25150	146093	26908	1027058	43136	109859	0	0	8178	617413	0	0
2024-06-29 11:17:32			0	36304	0	0	0	26610	25150	146165	26991	1027004	43136	109860	0	0	8177	618381	0	0
2024-06-29 11:18:32			0	36309	0	0	0	26599	25150	146241	27097	1026969	43125	109856	0	0	8178	618170	0	0
2024-06-29 11:19:32			0	36313	0	0	0	26589	25150	146185	27067	1026951	43125	109852	0	0	8178	618002	0	0
2024-06-29 11:20:32			0	36309	0	0	0	26571	25150	146185	26981	1026996	43113	109845	0	0	8178	618170	0	0
2024-06-29 11:21:32			0	36338	0	0	0	26555	25150	145993	27185	1026978	43092	109839	0	0	8180	616951	0	0
2024-06-29 11:22:32			0	36357	0	0	0	26566	25150	146029	26767	1026951	43114	109843	0	0	8181	616153	0	0
2024-06-29 11:23:32			0	36364	0	0	0	26576	25160	145945	27161	1027067	43147	109847	0	0	8181	615824	0	0
2024-06-29 11:24:32			0	36366	0	0	0	26589	25160	146009	26928	1027040	43136	109852	0	0	8181	615740	0	0
2024-06-29 11:25:32			0	36378	0	0	0	26586	25170	146025	27230	1027004	43126	109851	0	0	8182	615201	0	0
2024-06-29 11:26:32			0	36366	0	0	0	26555	25160	145841	26833	1026986	43114	109839	0	0	8181	615740	0	0
2024-06-29 11:27:32			0	36377	0	0	0	26574	25150	145981	27104	1027031	43125	109846	0	0	8182	615313	0	0
2024-06-29 11:28:32			0	36373	0	0	0	26602	25160	145957	27173	1027182	43148	109857	0	0	8181	615446	0	0
2024-06-29 11:29:32			0	36389	0	0	0	26636	25170	145865	27164	1027307	43138	109870	0	0	8181	614740	0	0
2024-06-29 11:30:32			0	36431	0	0	0	26662	25200	145665	27017	1027324	43141	109880	0	0	8183	612877	0	0
2024-06-29 11:31:32			0	36461	0	0	0	26659	25200	145505	27639	1027262	43140	109879	0	0	8185	611623	0	0
2024-06-29 11:32:32			0	36515	0	0	0	26646	25200	145377	27192	1027297	43129	109874	0	0	8188	609370	0	0
2024-06-29 11:33:32			0	36571	0	0	0	26641	25220	145145	27550	1027350	43142	109872	0	0	8191	606971	0	0
2024-06-29 11:34:32			0	36586	0	0	0	26628	25210	145101	27196	1027341	43129	109867	0	0	8192	606382	0	0
2024-06-29 11:35:32			0	36595	0	0	0	26623	25210	145026	27209	1027261	43108	109865	0	0	8193	606009	0	0
2024-06-29 11:36:32			0	36615	0	0	0	26615	25200	144998	27291	1027270	43119	109862	0	0	8194	605213	0	0
2024-06-29 11:37:32			0	36607	0	0	0	26599	25200	145022	27194	1027101	43096	109856	0	0	8194	605545	0	0
2024-06-29 11:38:32			0	36625	0	0	0	26597	25190	144842	27057	1027092	43128	109855	0	0	8194	604833	0	0
2024-06-29 11:39:32			0	36657	0	0	0	26574	25180	144898	27291	1027021	43127	109846	0	0	8196	603542	0	0
2024-06-29 11:40:32			0	36637	0	0	0	26555	25180	144850	27088	1027075	43127	109839	0	0	8196	604370	0	0
2024-06-29 11:41:32			0	36669	0	0	0	26568	25180	144834	26882	1027128	43127	109844	0	0	8197	603045	0	0
2024-06-29 11:42:32			0	36685	0	0	0	26566	25180	144822	27315	1027075	43127	109843	0	0	8198	602383	0	0
2024-06-29 11:43:32			0	36686	0	0	0	26561	25170	144678	27343	1027119	43127	109841	0	0	8198	602376	0	0
2024-06-29 11:44:32			0	36721	0	0	0	26571	25180	144642	26911	1027209	43149	109845	0	0	8200	600897	0	0
2024-06-29 11:45:32			0	36742	0	0	0	26594	25190	144642	27020	1027280	43139	109854	0	0	8201	599996	0	0
2024-06-29 11:46:32			0	36740	0	0	0	26594	25200	144458	26972	1027217	43119	109854	0	0	8201	600045	0	0
2024-06-29 11:47:32			0	36758	0	0	0	26589	25200	144398	27135	1027235	43107	109852	0	0	8202	599303	0	0
2024-06-29 11:48:32			0	36783	0	0	0	26602	25190	144350	27083	1027360	43139	109857	0	0	8203	598308	0	0
2024-06-29 11:49:32			0	36775	0	0	0	26607	25210	144394	26941	1027288	43129	109859	0	0	8202	598569	0	0
2024-06-29 11:50:32			0	36784	0	0	0	26610	25210	144290	26837	1027279	43141	109860	0	0	8203	598199	0	0
2024-06-29 11:51:32			0	36778	0	0	0	26607	25210	144322	27150	1027252	43129	109859	0	0	8202	598446	0	0
2024-06-29 11:52:32			0	36783	0	0	0	26597	25210	144394	27116	1027225	43119	109855	0	0	8203	598240	0	0
2024-06-29 11:53:32			0	36793	0	0	0	26602	25200	144286	27166	1027243	43119	109857	0	0	8203	597862	0	0
2024-06-29 11:54:32			0	36776	0	0	0	26597	25210	144286	27331	1027279	43119	109855	0	0	8202	598528	0	0
2024-06-29 11:55:32			0	36781	0	0	0	26597	25210	144334	27348	1027332	43119	109855	0	0	8203	598322	0	0
2024-06-29 11:56:32			0	36781	0	0	0	26615	25210	144350	27046	1027421	43141	109862	0	0	8202	598322	0	0
2024-06-29 11:57:32			0	36774	0	0	0	26641	25220	144374	27102	1027439	43143	109872	0	0	8202	598576	0	0
2024-06-29 11:58:32			0	36770	0	0	0	26664	25230	144242	27293	1027501	43131	109881	0	0	8201	598707	0	0
2024-06-29 11:59:32			0	36773	0	0	0	26672	25230	144358	27126	1027510	43132	109884	0	0	8201	598583	0	0
2024-06-29 12:00:32			0	36794	0	0	0	26667	25230	144294	27163	1027429	43122	109882	0	0	8202	597720	0	0
2024-06-29 12:01:32			0	36791	0	0	0	26662	25240	144326	27201	1027438	43132	109880	0	0	8202	597809	0	0
2024-06-29 12:02:32			0	36784	0	0	0	26657	25240	144338	27168	1027465	43122	109878	0	0	8202	598097	0	0
2024-06-29 12:03:32			0	36779	0	0	0	26654	25240	144262	27346	1027438	43144	109877	0	0	8202	598302	0	0
2024-06-29 12:04:32			0	36811	0	0	0	26638	25240	144306	27197	1027411	43132	109871	0	0	8204	596987	0	0
2024-06-29 12:05:32			0	36788	0	0	0	26644	25240	144266	27390	1027384	43132	109873	0	0	8202	597932	0	0
2024-06-29 12:06:32			0	36785	0	0	0	26636	25240	144302	27322	1027465	43122	109870	0	0	8202	598056	0	0
2024-06-29 12:07:32			0	36773	0	0	0	26636	25230	144402	27310	1027376	43132	109870	0	0	8202	598583	0	0
2024-06-29 12:08:32			0	36777	0	0	0	26636	25230	144326	27182	1027349	43132	109870	0	0	8202	598419	0	0
2024-06-29 12:09:32			0	36785	0	0	0	26625	25230	144358	27284	1027340	43131	109866	0	0	8203	598090	0	0
2024-06-29 12:10:32			0	36780	0	0	0	26610	25230	144338	27241	1027340	43121	109860	0	0	8203	598295	0	0
2024-06-29 12:11:32			0	36773	0	0	0	26625	25220	144386	27237	1027350	43130	109866	0	0	8202	598617	0	0
2024-06-29 12:12:32			0	36764	0	0	0	26628	25220	144382	26899	1027323	43130	109867	0	0	8201	598988	0	0
2024-06-29 12:13:32			0	36749	0	0	0	26620	25230	144390	27059	1027367	43143	109864	0	0	8201	599572	0	0
2024-06-29 12:14:32			0	36746	0	0	0	26631	25220	144454	27000	1027358	43131	109868	0	0	8200	599729	0	0
2024-06-29 12:15:32			0	36757	0	0	0	26641	25230	144462	27270	1027421	43143	109872	0	0	8201	599242	0	0
2024-06-29 12:16:32			0	36772	0	0	0	26644	25230	144374	27320	1027447	43121	109873	0	0	8202	598625	0	0
2024-06-29 12:17:32			0	36763	0	0	0	26657	25240	144490	27055	1027447	43133	109878	0	0	8201	598961	0	0
2024-06-29 12:18:32			0	36765	0	0	0	26670	25240	144498	26911	1027465	43144	109883	0	0	8201	598879	0	0
2024-06-29 12:19:32			0	36779	0	0	0	26677	25250	144474	27235	1027482	43145	109886	0	0	8201	598268	0	0
2024-06-29 12:20:32			0	36782	0	0	0	26683	25250	144338	27440	1027509	43123	109888	0	0	8201	598145	0	0
2024-06-29 12:21:32			0	36794	0	0	0	26677	25260	144266	27379	1027526	43167	109886	0	0	8202	597618	0	0
2024-06-29 12:22:32			0	36812	0	0	0	26696	25250	144226	27175	1027598	43145	109893	0	0	8203	596912	0	0
2024-06-29 12:23:32			0	36807	0	0	0	26701	25270	144194	27192	1027624	43135	109895	0	0	8203	597050	0	0
2024-06-29 12:24:32			0	36791	0	0	0	26693	25270	144270	27199	1027606	43159	109892	0	0	8202	597707	0	0
2024-06-29 12:25:32			0	36733	0	0	0	26685	25270	144442	27204	1027570	43135	109889	0	0	8199	600095	0	0
2024-06-29 12:26:32			0	36604	0	0	0	26680	25260	144942	27072	1027562	43135	109887	0	0	8192	605463	0	0
2024-06-29 12:27:32			0	36539	0	0	0	26690	25260	145285	27208	1027615	43135	109891	0	0	8189	608163	0	0
2024-06-29 12:28:32			0	36475	0	0	0	26706	25270	145533	27602	1027633	43136	109897	0	0	8185	610795	0	0
2024-06-29 12:29:32			0	36419	0	0	0	26724	25280	145793	26941	1027668	43160	109904	0	0	8182	613100	0	0
2024-06-29 12:30:32			0	36406	0	0	0	26729	25280	145853	26890	1027757	43148	109906	0	0	8181	613644	0	0
2024-06-29 12:31:32			0	36389	0	0	0	26740	25290	145905	27072	1027855	43149	109910	0	0	8180	614321	0	0
2024-06-29 12:32:32			0	36402	0	0	0	26750	25300	145857	26979	1027792	43139	109914	0	0	8181	613742	0	0
2024-06-29 12:33:32			0	36393	0	0	0	26761	25300	145857	27052	1027837	43139	109918	0	0	8180	614119	0	0
2024-06-29 12:34:32			0	36385	0	0	0	26753	25320	145833	27033	1027845	43141	109915	0	0	8180	614384	0	0
2024-06-29 12:35:32			0	36378	0	0	0	26753	25320	145877	27490	1027845	43141	109915	0	0	8179	614678	0	0
2024-06-29 12:36:32			0	36384	0	0	0	26732	25320	145913	27395	1027773	43141	109907	0	0	8180	614426	0	0
2024-06-29 12:37:32			0	36368	0	0	0	26722	25310	145933	27126	1027783	43151	109903	0	0	8179	615132	0	0
2024-06-29 12:38:32			0	36350	0	0	0	26763	25310	145921	27102	1027881	43162	109919	0	0	8178	615887	0	0
2024-06-29 12:39:32			0	36373	0	0	0	26768	25320	145961	27281	1027934	43141	109921	0	0	8179	614887	0	0
2024-06-29 12:40:32			0	36400	0	0	0	26768	25320	145829	27048	1027907	43152	109921	0	0	8180	613756	0	0
2024-06-29 12:41:32			0	36410	0	0	0	26768	25320	145797	27403	1027880	43141	109921	0	0	8181	613338	0	0
2024-06-29 12:42:32			0	36418	0	0	0	26768	25330	145673	26958	1027969	43142	109921	0	0	8181	612968	0	0
2024-06-29 12:43:32			0	36432	0	0	0	26763	25330	145677	27267	1027924	43142	109919	0	0	8182	612383	0	0
2024-06-29 12:44:32			0	36422	0	0	0	26771	25340	145665	27109	1027960	43154	109922	0	0	8182	612766	0	0
2024-06-29 12:45:32			0	36397	0	0	0	26768	25340	145849	27308	1027942	43166	109921	0	0	8180	613812	0	0
2024-06-29 12:46:32			0	36358	0	0	0	26771	25340	145989	27353	1027969	43155	109922	0	0	8178	615446	0	0
2024-06-29 12:47:32			0	36318	0	0	0	26768	25330	146021	27177	1027978	43153	109921	0	0	8176	617160	0	0
2024-06-29 12:48:32			0	36275	0	0	0	26784	25350	146269	27076	1028013	43155	109927	0	0	8174	618899	0	0
2024-06-29 12:49:32			0	36245	0	0	0	26789	25370	146489	27454	1028039	43167	109929	0	0	8172	620093	0	0
2024-06-29 12:50:32			0	36216	0	0	0	26789	25350	146521	27286	1028013	43155	109929	0	0	8170	621387	0	0
2024-06-29 12:51:32			0	36181	0	0	0	26792	25370	146569	27079	1028066	43145	109930	0	0	8169	622795	0	0
2024-06-29 12:52:32			0	36153	0	0	0	26763	25370	146809	26963	1028047	43134	109919	0	0	8168	623980	0	0
2024-06-29 12:53:32			0	36130	0	0	0	26761	25360	146793	27286	1027995	43133	109918	0	0	8166	624990	0	0
2024-06-29 12:54:32			0	36122	0	0	0	26745	25350	146861	27066	1027959	43143	109912	0	0	8166	625365	0	0
2024-06-29 12:55:32			0	36134	0	0	0	26768	25340	146841	27242	1027995	43155	109921	0	0	8166	624891	0	0
2024-06-29 12:56:32			0	36103	0	0	0	26807	25350	146917	27241	1028093	43166	109936	0	0	8164	626171	0	0
2024-06-29 12:57:32			0	36114	0	0	0	26825	25370	146893	27542	1028173	43145	109943	0	0	8165	625633	0	0
2024-06-29 12:58:32			0	36086	0	0	0	26857	25390	146953	27350	1028216	43170	109955	0	0	8163	626751	0	0
2024-06-29 12:59:32			0	36066	0	0	0	26849	25390	147029	27230	1028216	43159	109952	0	0	8162	627600	0	0
2024-06-29 13:00:32			0	36068	0	0	0	26846	25400	147069	27083	1028233	43171	109951	0	0	8162	627480	0	0
2024-06-29 13:01:32			0	36061	0	0	0	26807	25400	147069	27352	1028144	43137	109936	0	0	8162	627777	0	0
2024-06-29 13:02:32			0	36063	0	0	0	26755	25390	147085	27300	1027993	43136	109916	0	0	8163	627728	0	0
2024-06-29 13:03:32			0	36069	0	0	0	26748	25390	147069	27301	1028154	43159	109913	0	0	8164	627473	0	0
2024-06-29 13:04:32			0	36060	0	0	0	26805	25380	147077	27445	1028163	43158	109935	0	0	8162	627891	0	0
2024-06-29 13:05:32			0	36062	0	0	0	26857	25390	147097	27229	1028243	43159	109955	0	0	8161	627770	0	0
2024-06-29 13:06:32			0	36060	0	0	0	26862	25410	147113	27111	1028349	43161	109957	0	0	8161	627784	0	0
2024-06-29 13:07:32			0	36050	0	0	0	26867	25420	147101	27279	1028393	43172	109959	0	0	8161	628174	0	0
2024-06-29 13:08:32			0	36067	0	0	0	26857	25410	147125	27369	1028331	43161	109955	0	0	8162	627487	0	0
2024-06-29 13:09:32			0	36055	0	0	0	26846	25420	147109	27336	1028375	43151	109951	0	0	8161	627961	0	0
2024-06-29 13:10:32			0	36072	0	0	0	26833	25420	147057	27460	1028375	43162	109946	0	0	8162	627238	0	0
2024-06-29 13:11:32			0	36045	0	0	0	26794	25400	147101	27052	1028198	43137	109931	0	0	8162	628458	0	0
2024-06-29 13:12:32			0	36050	0	0	0	26768	25410	147081	27150	1028117	43139	109921	0	0	8162	628210	0	0
2024-06-29 13:13:32			0	36079	0	0	0	26758	25390	147073	27168	1028109	43137	109917	0	0	8164	627048	0	0
2024-06-29 13:14:32			0	36085	0	0	0	26753	25380	147033	26942	1028092	43147	109915	0	0	8164	626829	0	0
2024-06-29 13:15:32			0	36109	0	0	0	26758	25380	146953	27274	1028065	43159	109917	0	0	8165	625810	0	0
2024-06-29 13:16:32			0	36115	0	0	0	26781	25390	146997	27351	1028216	43159	109926	0	0	8165	625519	0	0
2024-06-29 13:17:32			0	36103	0	0	0	26820	25400	146861	27306	1028260	43149	109941	0	0	8164	625993	0	0
2024-06-29 13:18:32			0	36095	0	0	0	26820	25410	146909	27462	1028269	43150	109941	0	0	8164	626297	0	0
2024-06-29 13:19:32			0	36112	0	0	0	26820	25420	146909	27384	1028286	43172	109941	0	0	8165	625540	0	0
2024-06-29 13:20:32			0	36122	0	0	0	26825	25410	146837	26991	1028322	43139	109943	0	0	8165	625151	0	0
2024-06-29 13:21:32			0	36123	0	0	0	26836	25420	146829	27118	1028313	43161	109947	0	0	8165	625074	0	0
2024-06-29 13:22:32			0	36123	0	0	0	26836	25430	146925	27064	1028420	43163	109947	0	0	8165	625038	0	0
2024-06-29 13:23:32			0	36116	0	0	0	26849	25420	146877	27280	1028375	43162	109952	0	0	8164	625370	0	0
2024-06-29 13:24:32			0	36108	0	0	0	26870	25430	146853	27222	1028393	43152	109960	0	0	8164	625674	0	0
2024-06-29 13:25:32			0	36105	0	0	0	26888	25430	146865	27209	1028438	43163	109967	0	0	8163	625801	0	0
2024-06-29 13:26:32			0	36111	0	0	0	26901	25450	146957	27440	1028526	43175	109972	0	0	8163	625476	0	0
2024-06-29 13:27:32			0	36100	0	0	0	26909	25440	146925	27256	1028544	43153	109975	0	0	8163	625978	0	0
2024-06-29 13:28:32			0	36107	0	0	0	26916	25460	146909	27409	1028570	43165	109978	0	0	8163	625610	0	0
2024-06-29 13:29:32			0	36112	0	0	0	26922	25470	146977	27060	1028614	43166	109980	0	0	8163	625362	0	0
2024-06-29 13:30:32			0	36112	0	0	0	26929	25470	146973	27315	1028650	43167	109983	0	0	8163	625362	0	0
2024-06-29 13:31:32			0	36094	0	0	0	26924	25480	146905	27218	1028685	43178	109981	0	0	8162	626090	0	0
2024-06-29 13:32:32			0	36121	0	0	0	26927	25480	146969	27383	1028721	43167	109982	0	0	8164	624945	0	0
2024-06-29 13:33:32			0	36099	0	0	0	26932	25490	146901	27317	1028730	43168	109984	0	0	8162	625843	0	0
2024-06-29 13:34:32			0	36096	0	0	0	26940	25500	146885	27505	1028765	43158	109987	0	0	8162	625934	0	0
2024-06-29 13:35:32			0	36111	0	0	0	26948	25500	146897	27161	1028819	43158	109990	0	0	8163	625298	0	0
2024-06-29 13:36:32			0	36122	0	0	0	26963	25510	146853	27263	1028845	43170	109996	0	0	8163	624796	0	0
2024-06-29 13:37:32			0	36107	0	0	0	26976	25520	146941	27367	1028934	43182	110001	0	0	8162	625397	0	0
2024-06-29 13:38:32			0	36112	0	0	0	26984	25530	146853	27514	1028924	43193	110004	0	0	8162	625149	0	0
2024-06-29 13:39:32			0	36121	0	0	0	26994	25540	146825	27601	1028915	43162	110008	0	0	8163	624732	0	0
2024-06-29 13:40:32			0	36103	0	0	0	26986	25540	146813	27412	1028968	43173	110005	0	0	8162	625495	0	0
2024-06-29 13:41:32			0	36113	0	0	0	26981	25550	146801	27254	1028941	43163	110003	0	0	8163	625036	0	0
2024-06-29 13:42:32			0	36110	0	0	0	26986	25530	146813	27291	1028960	43183	110005	0	0	8162	625234	0	0
2024-06-29 13:43:32			0	36099	0	0	0	26994	25550	146829	27027	1029013	43173	110008	0	0	8162	625629	0	0
2024-06-29 13:44:32			0	36114	0	0	0	26997	25560	146781	27388	1029003	43174	110009	0	0	8162	624958	0	0
2024-06-29 13:45:32			0	36112	0	0	0	27007	25550	146737	27407	1029048	43173	110013	0	0	8162	625078	0	0
2024-06-29 13:46:32			0	36098	0	0	0	27005	25570	146825	27374	1029101	43175	110012	0	0	8162	625600	0	0
2024-06-29 13:47:32			0	36116	0	0	0	26979	25560	146821	27010	1029039	43165	110002	0	0	8163	624873	0	0
2024-06-29 13:48:32			0	36120	0	0	0	26955	25550	146721	27130	1028888	43163	109993	0	0	8163	624739	0	0
2024-06-29 13:49:32			0	36125	0	0	0	26953	25560	146813	27100	1028843	43174	109992	0	0	8164	624492	0	0
2024-06-29 13:50:32			0	36137	0	0	0	26955	25560	146777	27379	1028950	43153	109993	0	0	8164	623983	0	0
2024-06-29 13:51:32			0	36114	0	0	0	26940	25560	146857	27072	1028869	43174	109987	0	0	8163	624958	0	0
2024-06-29 13:52:32			0	36123	0	0	0	26883	25540	146833	26967	1028629	43152	109965	0	0	8165	624647	0	0
2024-06-29 13:53:32			0	36128	0	0	0	26805	25500	146781	27306	1028238	43103	109935	0	0	8166	624578	0	0
2024-06-29 13:54:32			0	36126	0	0	0	26714	25470	146761	27289	1028052	43089	109900	0	0	8167	624769	0	0
2024-06-29 13:55:32			0	36109	0	0	0	26680	25430	146857	27343	1028098	43119	109887	0	0	8167	625632	0	0
2024-06-29 13:56:32			0	36103	0	0	0	26688	25410	146941	27296	1028090	43127	109890	0	0	8166	625958	0	0
2024-06-29 13:57:32			0	36111	0	0	0	26703	25410	146933	27374	1028144	43150	109896	0	0	8167	625618	0	0
2024-06-29 13:58:32			0	36062	0	0	0	26722	25420	147017	27319	1028152	43150	109903	0	0	8164	627663	0	0
2024-06-29 13:59:32			0	36046	0	0	0	26703	25410	146989	27440	1028144	43139	109896	0	0	8163	628380	0	0
2024-06-29 14:00:32			0	36035	0	0	0	26667	25400	147125	27514	1027984	43137	109882	0	0	8163	628884	0	0
2024-06-29 14:01:32			0	36043	0	0	0	26638	25390	147085	27119	1027913	43125	109871	0	0	8164	628579	0	0
2024-06-29 14:02:32			0	36042	0	0	0	26620	25370	147197	27358	1027940	43134	109864	0	0	8164	628693	0	0
2024-06-29 14:03:32			0	36028	0	0	0	26631	25370	147341	27492	1027967	43134	109868	0	0	8163	629289	0	0
2024-06-29 14:04:32			0	35998	0	0	0	26638	25380	147293	27441	1028003	43135	109871	0	0	8162	630532	0	0
2024-06-29 14:05:32			0	35985	0	0	0	26659	25380	147337	27182	1028056	43158	109879	0	0	8161	631087	0	0
2024-06-29 14:06:32			0	35976	0	0	0	26680	25380	147357	27498	1028056	43135	109887	0	0	8160	631471	0	0
2024-06-29 14:07:32			0	35962	0	0	0	26675	25380	147421	27545	1028029	43146	109885	0	0	8159	632069	0	0
2024-06-29 14:08:32			0	35941	0	0	0	26664	25360	147505	27467	1027995	43133	109881	0	0	8158	633039	0	0
2024-06-29 14:09:32			0	35943	0	0	0	26659	25370	147577	27182	1027994	43124	109879	0	0	8158	632917	0	0
2024-06-29 14:10:32			0	35916	0	0	0	26638	25370	147573	27490	1028012	43134	109871	0	0	8157	634073	0	0
2024-06-29 14:11:32			0	35909	0	0	0	26664	25360	147601	27358	1027995	43133	109881	0	0	8156	634409	0	0
2024-06-29 14:12:32			0	35916	0	0	0	26651	25380	147657	27315	1027949	43125	109876	0	0	8157	634037	0	0
2024-06-29 14:13:32			0	35879	0	0	0	26555	25350	147777	27211	1027736	43099	109839	0	0	8157	635732	0	0
2024-06-29 14:14:32			0	35868	0	0	0	26457	25310	147837	27298	1027238	43062	109801	0	0	8157	636348	0	0
2024-06-29 14:15:32			0	35850	0	0	0	26368	25270	147916	27242	1026802	43047	109767	0	0	8158	637266	0	0
2024-06-29 14:16:32			0	35837	0	0	0	26277	25200	147968	27336	1026386	43030	109732	0	0	8158	638079	0	0
2024-06-29 14:17:32			0	35833	0	0	0	26202	25130	148136	27466	1026140	43001	109703	0	0	8159	638505	0	0
2024-06-29 14:18:32			0	35810	0	0	0	26124	25070	148292	27351	1025759	42973	109673	0	0	8159	639713	0	0
2024-06-29 14:19:32			0	35783	0	0	0	26057	25010	148384	27280	1025387	42967	109647	0	0	8158	641097	0	0
2024-06-29 14:20:32			0	35762	0	0	0	25984	24960	148560	27514	1025060	42940	109619	0	0	8158	642186	0	0
2024-06-29 14:21:32			0	35736	0	0	0	25919	24890	148624	27416	1024866	42945	109594	0	0	8158	643567	0	0
2024-06-29 14:22:32			0	35731	0	0	0	25909	24860	148792	27502	1024984	42998	109590	0	0	8157	643893	0	0
2024-06-29 14:23:32			0	35707	0	0	0	25948	24850	148840	27492	1025038	43030	109605	0	0	8155	644970	0	0
2024-06-29 14:24:32			0	35681	0	0	0	25966	24820	148952	27182	1024959	43026	109612	0	0	8154	646209	0	0
2024-06-29 14:25:32			0	35664	0	0	0	25955	24800	149020	27291	1024791	43024	109608	0	0	8153	647021	0	0
2024-06-29 14:26:32			0	35655	0	0	0	25961	24770	149172	27300	1024801	43033	109610	0	0	8152	647523	0	0
2024-06-29 14:27:32			0	35631	0	0	0	25994	24780	149208	27241	1025024	43067	109623	0	0	8150	648531	0	0
2024-06-29 14:28:32			0	35617	0	0	0	26075	24790	149288	27118	1025210	43089	109654	0	0	8148	649105	0	0
2024-06-29 14:29:32			0	35617	0	0	0	26140	24800	149332	27138	1025308	43103	109679	0	0	8147	649068	0	0
2024-06-29 14:30:32			0	35620	0	0	0	26135	24800	149304	27351	1025201	43070	109677	0	0	8147	648937	0	0
2024-06-29 14:31:32			0	35616	0	0	0	26116	24790	149328	27133	1025157	43068	109670	0	0	8147	649148	0	0
2024-06-29 14:32:32			0	35607	0	0	0	26116	24790	149496	27345	1025228	43079	109670	0	0	8147	649541	0	0
2024-06-29 14:33:32			0	35616	0	0	0	26153	24800	149344	27218	1025460	43102	109684	0	0	8147	649112	0	0
2024-06-29 14:34:32			0	35608	0	0	0	26194	24820	149368	27059	1025477	43105	109700	0	0	8146	649387	0	0
2024-06-29 14:35:32			0	35601	0	0	0	26155	24830	149536	27358	1025467	43072	109685	0	0	8146	649655	0	0
2024-06-29 14:36:32			0	35601	0	0	0	26220	24840	149436	27254	1025592	43084	109710	0	0	8145	649618	0	0
2024-06-29 14:37:32			0	35606	0	0	0	26220	24840	149388	27279	1025511	43084	109710	0	0	8145	649401	0	0
2024-06-29 14:38:32			0	35593	0	0	0	26184	24840	149364	27419	1025342	43061	109696	0	0	8145	649968	0	0
2024-06-29 14:39:32			0	35597	0	0	0	26148	24830	149408	27222	1025244	43061	109682	0	0	8146	649830	0	0
2024-06-29 14:40:32			0	35607	0	0	0	26114	24820	149460	27024	1025129	43049	109669	0	0	8147	649431	0	0
2024-06-29 14:41:32			0	35610	0	0	0	26085	24800	149404	27395	1024978	43046	109658	0	0	8148	649373	0	0
2024-06-29 14:42:32			0	35600	0	0	0	26046	24770	149412	27398	1024873	43022	109643	0	0	8148	649920	0	0
2024-06-29 14:43:32			0	35610	0	0	0	26020	24760	149416	27364	1024829	43065	109633	0	0	8149	649520	0	0
2024-06-29 14:44:32			0	35604	0	0	0	26010	24740	149368	27209	1024776	43041	109629	0	0	8148	649856	0	0
2024-06-29 14:45:32			0	35626	0	0	0	26023	24750	149348	26982	1024945	43053	109634	0	0	8149	648859	0	0
2024-06-29 14:46:32			0	35610	0	0	0	26015	24740	149372	27332	1024696	43052	109631	0	0	8149	649594	0	0
2024-06-29 14:47:32			0	35622	0	0	0	25994	24710	149380	27192	1024501	43015	109623	0	0	8149	649181	0	0
2024-06-29 14:48:32			0	35607	0	0	0	25942	24680	149412	27223	1024431	43013	109603	0	0	8149	649946	0	0
2024-06-29 14:49:32			0	35618	0	0	0	25911	24660	149384	27199	1024209	43023	109591	0	0	8150	649539	0	0
2024-06-29 14:50:32			0	35625	0	0	0	25857	24640	149408	27447	1024121	42999	109570	0	0	8152	649307	0	0
2024-06-29 14:51:32			0	35627	0	0	0	25815	24600	149464	27284	1023927	43006	109554	0	0	8152	649367	0	0
2024-06-29 14:52:32			0	35618	0	0	0	25797	24570	149484	27140	1023848	43003	109547	0	0	8152	649870	0	0
2024-06-29 14:53:32			0	35611	0	0	0	25794	24560	149324	27242	1023929	43024	109546	0	0	8152	650212	0	0
2024-06-29 14:54:32			0	35623	0	0	0	25823	24550	149500	27424	1024054	43057	109557	0	0	8152	649725	0	0
2024-06-29 14:55:32			0	35631	0	0	0	25854	24570	149360	27334	1024134	43046	109569	0	0	8152	649302	0	0
2024-06-29 14:56:32			0	35612	0	0	0	25906	24580	149500	27505	1024320	43082	109589	0	0	8150	650095	0	0
2024-06-29 14:57:32			0	35615	0	0	0	25948	24590	149480	27367	1024275	43071	109605	0	0	8149	649927	0	0
2024-06-29 14:58:32			0	35621	0	0	0	25950	24600	149488	27050	1024381	43061	109606	0	0	8150	649629	0	0
2024-06-29 14:59:32			0	35615	0	0	0	25950	24590	149524	27379	1024257	43027	109606	0	0	8149	649927	0	0
2024-06-29 15:00:32			0	35618	0	0	0	25958	24600	149592	27298	1024355	43050	109609	0	0	8149	649760	0	0
2024-06-29 15:01:32			0	35608	0	0	0	25950	24600	149512	27367	1024248	43028	109606	0	0	8149	650196	0	0
2024-06-29 15:02:32			0	35613	0	0	0	25929	24600	149668	27341	1024239	43039	109598	0	0	8150	649978	0	0
2024-06-29 15:03:32			0	35590	0	0	0	25914	24590	149556	27499	1024150	43016	109592	0	0	8149	651019	0	0
2024-06-29 15:04:32			0	35618	0	0	0	25875	24570	149560	27249	1023973	43013	109577	0	0	8151	649870	0	0
2024-06-29 15:05:32			0	35606	0	0	0	25859	24550	149568	27552	1024000	43012	109571	0	0	8150	650467	0	0
2024-06-29 15:06:32			0	35613	0	0	0	25844	24540	149620	27232	1023876	43011	109565	0	0	8151	650198	0	0
2024-06-29 15:07:32			0	35605	0	0	0	25833	24540	149588	27251	1023796	43000	109561	0	0	8151	650548	0	0
2024-06-29 15:08:32			0	35619	0	0	0	25815	24520	149576	27114	1023761	43009	109554	0	0	8152	650010	0	0
2024-06-29 15:09:32			0	35625	0	0	0	25805	24520	149712	27086	1023833	43020	109550	0	0	8152	649748	0	0
2024-06-29 15:10:32			0	35627	0	0	0	25844	24540	149588	27235	1024215	43066	109565	0	0	8152	649587	0	0
2024-06-29 15:11:32			0	35616	0	0	0	25893	24560	149508	27145	1024223	43068	109584	0	0	8150	649994	0	0
2024-06-29 15:12:32			0	35612	0	0	0	25924	24590	149496	27249	1024516	43071	109596	0	0	8150	650058	0	0
2024-06-29 15:13:32			0	35621	0	0	0	25950	24610	149600	27428	1024497	43050	109606	0	0	8150	649592	0	0
2024-06-29 15:14:32			0	35624	0	0	0	25961	24620	149572	27300	1024461	43041	109610	0	0	8150	649424	0	0
2024-06-29 15:15:32			0	35621	0	0	0	25984	24630	149460	27112	1024559	43041	109619	0	0	8149	649518	0	0
2024-06-29 15:16:32			0	35620	0	0	0	25966	24610	149524	27157	1024337	43017	109612	0	0	8149	649636	0	0
2024-06-29 15:17:32			0	35628	0	0	0	25929	24600	149508	27291	1024079	43005	109598	0	0	8150	649323	0	0
2024-06-29 15:18:32			0	35600	0	0	0	25914	24590	149532	27390	1024230	43027	109592	0	0	8149	650582	0	0
2024-06-29 15:19:32			0	35609	0	0	0	25888	24580	149500	27199	1024097	43026	109582	0	0	8150	650226	0	0
2024-06-29 15:20:32			0	35629	0	0	0	25862	24570	149436	27268	1023982	43003	109572	0	0	8151	649390	0	0
2024-06-29 15:21:32			0	35625	0	0	0	25825	24550	149420	27331	1023778	42990	109558	0	0	8152	649638	0	0
2024-06-29 15:22:32			0	35634	0	0	0	25794	24530	149404	27294	1023672	42989	109546	0	0	8153	649319	0	0
2024-06-29 15:23:32			0	35631	0	0	0	25766	24510	149512	27438	1023637	42986	109535	0	0	8153	649523	0	0
2024-06-29 15:24:32			0	35643	0	0	0	25774	24500	149480	27400	1023638	43006	109538	0	0	8153	649036	0	0
2024-06-29 15:25:32			0	35660	0	0	0	25789	24490	149452	27402	1023621	42996	109544	0	0	8154	648332	0	0
2024-06-29 15:26:32			0	35634	0	0	0	25792	24480	149428	27211	1023603	43004	109545	0	0	8153	649502	0	0
2024-06-29 15:27:32			0	35644	0	0	0	25779	24480	149488	27312	1023550	42994	109540	0	0	8153	649066	0	0
2024-06-29 15:28:32			0	35644	0	0	0	25758	24460	149500	27130	1023524	43003	109532	0	0	8154	649139	0	0
2024-06-29 15:29:32			0	35655	0	0	0	25776	24470	149408	27232	1023621	43004	109539	0	0	8154	648623	0	0
2024-06-29 15:30:32			0	35640	0	0	0	25776	24470	149352	27346	1023506	43015	109539	0	0	8153	649277	0	0
2024-06-29 15:31:32			0	35656	0	0	0	25763	24460	149440	27360	1023470	43003	109534	0	0	8154	648616	0	0
2024-06-29 15:32:32			0	35662	0	0	0	25745	24440	149420	27514	1023400	43000	109527	0	0	8155	648428	0	0
2024-06-29 15:33:32			0	35669	0	0	0	25761	24440	149360	27618	1023489	43001	109533	0	0	8155	648123	0	0
2024-06-29 15:34:32			0	35654	0	0	0	25763	24440	149384	27334	1023489	43024	109534	0	0	8154	648776	0	0
2024-06-29 15:35:32			0	35648	0	0	0	25768	24440	149420	27545	1023436	43024	109536	0	0	8153	649038	0	0
2024-06-29 15:36:32			0	35663	0	0	0	25745	24440	149332	27265	1023400	43012	109527	0	0	8155	648384	0	0
2024-06-29 15:37:32			0	35682	0	0	0	25732	24430	149432	27183	1023329	42989	109522	0	0	8156	647593	0	0
2024-06-29 15:38:32			0	35689	0	0	0	25727	24410	149404	27235	1023223	42987	109520	0	0	8156	647361	0	0
2024-06-29 15:39:32			0	35668	0	0	0	25711	24410	149440	27008	1023250	43009	109514	0	0	8155	648276	0	0
2024-06-29 15:40:32			0	35672	0	0	0	25709	24410	149428	27346	1023268	42987	109513	0	0	8156	648102	0	0
2024-06-29 15:41:32			0	35697	0	0	0	25714	24390	149448	27438	1023215	42997	109515	0	0	8157	647086	0	0
2024-06-29 15:42:32			0	35693	0	0	0	25711	24400	149476	27436	1023340	43020	109514	0	0	8157	647224	0	0
2024-06-29 15:43:32			0	35671	0	0	0	25722	24410	149480	27161	1023321	43009	109518	0	0	8155	648145	0	0
2024-06-29 15:44:32			0	35684	0	0	0	25714	24400	149412	27530	1023286	43009	109515	0	0	8156	647616	0	0
2024-06-29 15:45:32			0	35676	0	0	0	25724	24410	149496	27398	1023402	43009	109519	0	0	8156	647927	0	0
2024-06-29 15:46:32			0	35674	0	0	0	25797	24420	149484	27371	1023909	43078	109547	0	0	8154	647978	0	0
2024-06-29 15:47:32			0	35676	0	0	0	25929	24470	149484	27270	1023916	43060	109598	0	0	8152	647708	0	0
2024-06-29 15:48:32			0	35681	0	0	0	25880	24480	149412	27206	1023799	43039	109579	0	0	8154	647453	0	0
2024-06-29 15:49:32			0	35675	0	0	0	25883	24500	149556	27133	1023986	43050	109580	0	0	8153	647642	0	0
2024-06-29 15:50:32			0	35669	0	0	0	25929	24510	149412	27485	1024056	43041	109598	0	0	8152	647866	0	0
2024-06-29 15:51:32			0	35647	0	0	0	25950	24520	149404	27521	1024243	43053	109606	0	0	8151	648788	0	0
2024-06-29 15:52:32			0	35654	0	0	0	26005	24560	149452	27036	1024393	43057	109627	0	0	8150	648336	0	0
2024-06-29 15:53:32			0	35656	0	0	0	26005	24570	149412	27364	1024383	43037	109627	0	0	8150	648213	0	0
2024-06-29 15:54:32			0	35652	0	0	0	26031	24600	149444	27621	1024667	43072	109637	0	0	8150	648277	0	0
2024-06-29 15:55:32			0	35654	0	0	0	26044	24620	149440	27502	1024452	43029	109642	0	0	8150	648116	0	0
2024-06-29 15:56:32			0	35640	0	0	0	26051	24630	149416	27431	1024603	43030	109645	0	0	8149	648690	0	0
2024-06-29 15:57:32			0	35653	0	0	0	26044	24620	149496	27360	1024514	43030	109642	0	0	8150	648160	0	0
2024-06-29 15:58:32			0	35624	0	0	0	25981	24620	149444	27334	1024238	42996	109618	0	0	8149	649424	0	0
2024-06-29 15:59:32			0	35638	0	0	0	25911	24590	149520	27376	1024088	42982	109591	0	0	8151	648924	0	0
2024-06-29 16:00:32			0	35632	0	0	0	25963	24570	149400	27478	1024348	43046	109611	0	0	8150	649259	0	0
2024-06-29 16:01:32			0	35629	0	0	0	25979	24590	149472	27274	1024311	43039	109617	0	0	8150	649316	0	0
2024-06-29 16:02:32			0	35636	0	0	0	26127	24600	149572	27526	1024622	43073	109674	0	0	8147	648974	0	0
2024-06-29 16:03:32			0	35643	0	0	0	26088	24600	149468	27232	1024221	43028	109659	0	0	8149	648669	0	0
2024-06-29 16:04:32			0	35637	0	0	0	25958	24570	149536	27350	1023875	42981	109609	0	0	8150	649041	0	0
2024-06-29 16:05:32			0	35629	0	0	0	25885	24550	149564	27173	1023920	42991	109581	0	0	8151	649463	0	0
2024-06-29 16:06:32			0	35641	0	0	0	25841	24540	149452	27445	1023796	43011	109564	0	0	8152	648976	0	0
2024-06-29 16:07:32			0	35639	0	0	0	25784	24530	149420	27398	1023663	42988	109542	0	0	8153	649100	0	0
2024-06-29 16:08:32			0	35629	0	0	0	25748	24500	149520	27679	1023584	42984	109528	0	0	8153	649647	0	0
2024-06-29 16:09:32			0	35634	0	0	0	25799	24490	149544	27414	1023870	43028	109548	0	0	8152	649465	0	0
2024-06-29 16:10:32			0	35641	0	0	0	25898	24500	149456	27608	1023967	43062	109586	0	0	8151	649123	0	0
2024-06-29 16:11:32			0	35657	0	0	0	25948	24530	149532	27396	1024091	43054	109605	0	0	8151	648316	0	0
2024-06-29 16:12:32			0	35640	0	0	0	25953	24540	149452	27479	1024135	43055	109607	0	0	8150	649020	0	0
2024-06-29 16:13:32			0	35648	0	0	0	25963	24550	149540	27274	1024152	43044	109611	0	0	8151	648635	0	0
2024-06-29 16:14:32			0	35642	0	0	0	25973	24560	149420	27173	1024607	43079	109615	0	0	8150	648860	0	0
2024-06-29 16:15:32			0	35649	0	0	0	26083	24620	149472	26928	1024693	43074	109657	0	0	8149	648334	0	0
2024-06-29 16:16:32			0	35645	0	0	0	26072	24640	149400	27287	1024701	43053	109653	0	0	8149	648435	0	0
2024-06-29 16:17:32			0	35650	0	0	0	26103	24660	149368	27095	1024736	43066	109665	0	0	8149	648144	0	0
2024-06-29 16:18:32			0	35671	0	0	0	26077	24660	149324	27357	1024744	43034	109655	0	0	8150	647230	0	0
2024-06-29 16:19:32			0	35650	0	0	0	26057	24660	149488	27434	1024655	43022	109647	0	0	8150	648144	0	0
2024-06-29 16:20:32			0	35656	0	0	0	26044	24660	149420	27086	1024548	43022	109642	0	0	8150	647883	0	0
2024-06-29 16:21:32			0	35659	0	0	0	26028	24640	149424	27301	1024522	43021	109636	0	0	8151	647825	0	0
2024-06-29 16:22:32			0	35658	0	0	0	26020	24650	149424	26904	1024451	43032	109633	0	0	8151	647832	0	0
2024-06-29 16:23:32			0	35684	0	0	0	25999	24640	149472	27419	1024460	43031	109625	0	0	8152	646737	0	0
2024-06-29 16:24:32			0	35666	0	0	0	25989	24620	149324	27265	1024407	43019	109621	0	0	8152	647594	0	0
2024-06-29 16:25:32			0	35677	0	0	0	25976	24620	149340	27462	1024399	43041	109616	0	0	8152	647115	0	0
2024-06-29 16:26:32			0	35660	0	0	0	25979	24620	149392	27376	1024354	43030	109617	0	0	8151	647855	0	0
2024-06-29 16:27:32			0	35681	0	0	0	25968	24620	149332	27338	1024399	43041	109613	0	0	8153	646941	0	0
2024-06-29 16:28:32			0	35696	0	0	0	25968	24630	149388	27180	1024478	43052	109613	0	0	8154	646252	0	0
2024-06-29 16:29:32			0	35677	0	0	0	25958	24630	149376	27227	1024344	43030	109609	0	0	8153	647078	0	0
2024-06-29 16:30:32			0	35700	0	0	0	25948	24610	149308	27360	1024283	43028	109605	0	0	8154	646151	0	0
2024-06-29 16:31:32			0	35696	0	0	0	25942	24610	149264	27100	1024256	43017	109603	0	0	8154	646325	0	0
2024-06-29 16:32:32			0	35688	0	0	0	25932	24590	149360	27183	1024257	43027	109599	0	0	8154	646746	0	0
2024-06-29 16:33:32			0	35679	0	0	0	25935	24590	149384	27241	1024382	43038	109600	0	0	8153	647138	0	0
2024-06-29 16:34:32			0	35686	0	0	0	26096	24640	149292	27189	1024888	43097	109662	0	0	8151	646650	0	0
2024-06-29 16:35:32			0	35730	0	0	0	26142	24670	149152	26979	1025074	43089	109680	0	0	8153	644629	0	0
2024-06-29 16:36:32			0	35753	0	0	0	26223	24720	149060	26953	1025482	43105	109711	0	0	8153	643450	0	0
2024-06-29 16:37:32			0	35792	0	0	0	26189	24740	148920	27398	1025231	43063	109698	0	0	8155	641689	0	0
2024-06-29 16:38:32			0	35855	0	0	0	26062	24740	148624	27216	1024874	43019	109649	0	0	8161	638969	0	0
2024-06-29 16:39:32			0	35911	0	0	0	25997	24700	148261	27100	1024626	43004	109624	0	0	8165	636702	0	0
2024-06-29 16:40:32			0	35946	0	0	0	25973	24680	148225	27119	1024512	43013	109615	0	0	8167	635270	0	0
2024-06-29 16:41:32			0	35944	0	0	0	25945	24660	148205	26984	1024370	43011	109604	0	0	8167	635428	0	0
2024-06-29 16:42:32			0	35948	0	0	0	25916	24650	148161	26821	1024290	43021	109593	0	0	8168	635292	0	0
2024-06-29 16:43:32			0	35976	0	0	0	25880	24620	148061	27201	1024158	42996	109579	0	0	8170	634198	0	0
2024-06-29 16:44:32			0	35988	0	0	0	25859	24590	148045	27171	1023954	43015	109571	0	0	8171	633791	0	0
2024-06-29 16:45:32			0	36020	0	0	0	25838	24560	147937	27131	1023876	43001	109563	0	0	8173	632528	0	0
2024-06-29 16:46:32			0	36048	0	0	0	25823	24550	147877	27253	1023831	43000	109557	0	0	8174	631365	0	0
2024-06-29 16:47:32			0	36066	0	0	0	25812	24530	147749	27263	1023966	43022	109553	0	0	8175	630667	0	0
2024-06-29 16:48:32			0	36091	0	0	0	25841	24530	147845	27303	1024019	43033	109564	0	0	8176	629600	0	0
2024-06-29 16:49:32			0	36111	0	0	0	25836	24540	147769	27466	1023787	43022	109562	0	0	8177	628711	0	0
2024-06-29 16:50:32			0	36124	0	0	0	25807	24510	147593	26892	1023744	43019	109551	0	0	8178	628264	0	0
2024-06-29 16:51:32			0	36125	0	0	0	25789	24500	147581	27069	1023727	43018	109544	0	0	8179	628257	0	0
2024-06-29 16:52:32			0	36129	0	0	0	25789	24500	147549	27177	1023638	43006	109544	0	0	8179	628086	0	0
2024-06-29 16:53:32			0	36125	0	0	0	25771	24480	147565	27436	1023603	43015	109537	0	0	8179	628328	0	0
2024-06-29 16:54:32			0	36137	0	0	0	25763	24470	147573	26934	1023506	43015	109534	0	0	8180	627852	0	0
2024-06-29 16:55:32			0	36165	0	0	0	25755	24470	147497	27145	1023568	43015	109531	0	0	8181	626660	0	0
2024-06-29 16:56:32			0	36152	0	0	0	25745	24450	147501	27055	1023453	43002	109527	0	0	8181	627284	0	0
2024-06-29 16:57:32			0	36155	0	0	0	25714	24430	147441	26968	1023365	43022	109515	0	0	8181	627228	0	0
2024-06-29 16:58:32			0	36166	0	0	0	25716	24420	147465	27159	1023347	43011	109516	0	0	8182	626795	0	0
2024-06-29 16:59:32			0	36169	0	0	0	25714	24410	147421	27308	1023384	43020	109515	0	0	8182	626703	0	0
2024-06-29 17:00:32			0	36180	0	0	0	25732	24420	147437	27319	1023454	43022	109522	0	0	8182	626199	0	0
2024-06-29 17:01:32			0	36176	0	0	0	25727	24430	147425	27254	1023498	43033	109520	0	0	8182	626334	0	0
2024-06-29 17:02:32			0	36213	0	0	0	25722	24430	147333	27576	1023365	43022	109518	0	0	8184	624762	0	0
2024-06-29 17:03:32			0	36203	0	0	0	25714	24430	147369	27197	1023418	43022	109515	0	0	8184	625187	0	0
2024-06-29 17:04:32			0	36207	0	0	0	25714	24410	147325	27150	1023384	43020	109515	0	0	8184	625087	0	0
2024-06-29 17:05:32			0	36197	0	0	0	25709	24420	147337	27111	1023339	42999	109513	0	0	8184	625477	0	0
2024-06-29 17:06:32			0	36208	0	0	0	25706	24400	147269	27093	1023197	43019	109512	0	0	8184	625080	0	0
2024-06-29 17:07:32			0	36187	0	0	0	25703	24400	147233	27466	1023197	42998	109511	0	0	8183	625973	0	0
2024-06-29 17:08:32			0	36232	0	0	0	25693	24380	147237	27400	1023225	43018	109507	0	0	8186	624132	0	0
2024-06-29 17:09:32			0	36250	0	0	0	25698	24380	147193	27474	1023136	43017	109509	0	0	8186	623369	0	0
2024-06-29 17:10:32			0	36249	0	0	0	25690	24380	147225	27218	1023136	43006	109506	0	0	8186	623411	0	0
2024-06-29 17:11:32			0	36271	0	0	0	25698	24370	147045	27320	1023261	43016	109509	0	0	8187	622514	0	0
2024-06-29 17:12:32			0	36302	0	0	0	25732	24380	146945	27338	1023332	43041	109522	0	0	8189	621167	0	0
2024-06-29 17:13:32			0	36324	0	0	0	25768	24400	146841	26989	1023491	43019	109536	0	0	8189	620167	0	0
2024-06-29 17:14:32			0	36364	0	0	0	25805	24420	146749	27152	1023686	43077	109550	0	0	8191	618410	0	0
2024-06-29 17:15:32			0	36397	0	0	0	25877	24450	146581	27362	1023988	43069	109578	0	0	8191	616915	0	0
2024-06-29 17:16:32			0	36463	0	0	0	25927	24480	146429	27462	1024040	43061	109597	0	0	8194	614039	0	0
2024-06-29 17:17:32			0	36498	0	0	0	25945	24500	146285	27263	1024075	43062	109604	0	0	8196	612503	0	0
2024-06-29 17:18:32			0	36551	0	0	0	25961	24500	145973	27396	1024128	43029	109610	0	0	8198	610287	0	0
2024-06-29 17:19:32			0	36599	0	0	0	25940	24530	145865	27185	1024198	43054	109602	0	0	8201	608181	0	0
2024-06-29 17:20:32			0	36644	0	0	0	26212	24570	145586	27088	1024990	43125	109707	0	0	8199	606171	0	0
2024-06-29 17:21:32			0	36741	0	0	0	26607	24670	145470	27324	1025859	43178	109859	0	0	8198	601809	0	0
2024-06-29 17:22:32			0	36788	0	0	0	26620	24770	145154	27365	1026139	43154	109864	0	0	8201	599528	0	0
2024-06-29 17:23:32			0	36753	0	0	0	26586	24820	145298	26996	1026199	43137	109851	0	0	8200	600802	0	0
2024-06-29 17:24:32			0	36688	0	0	0	26586	24870	145470	27064	1026358	43121	109851	0	0	8197	603319	0	0
2024-06-29 17:25:32			0	36625	0	0	0	26581	24900	145722	27331	1026391	43101	109849	0	0	8193	605829	0	0
2024-06-29 17:26:32			0	36548	0	0	0	26550	24920	145693	27308	1026337	43081	109837	0	0	8190	608962	0	0
2024-06-29 17:27:32			0	36532	0	0	0	26545	24940	145901	27041	1026560	43104	109835	0	0	8189	609560	0	0
2024-06-29 17:28:32			0	36506	0	0	0	26581	24970	145945	27303	1026790	43107	109849	0	0	8188	610541	0	0
2024-06-29 17:29:32			0	36470	0	0	0	26651	25020	146093	27291	1027020	43146	109876	0	0	8185	611871	0	0
2024-06-29 17:30:32			0	36440	0	0	0	26636	25050	146141	26937	1026849	43116	109870	0	0	8183	613022	0	0
2024-06-29 17:31:32			0	36420	0	0	0	26574	25050	146265	27116	1026885	43104	109846	0	0	8183	613859	0	0
2024-06-29 17:32:32			0	36396	0	0	0	26522	25060	146265	27239	1026822	43105	109826	0	0	8183	614830	0	0
2024-06-29 17:33:32			0	36388	0	0	0	26535	25060	146289	27507	1026768	43072	109831	0	0	8182	615166	0	0
2024-06-29 17:34:32			0	36385	0	0	0	26514	25070	146333	27211	1026670	43095	109823	0	0	8183	615257	0	0
2024-06-29 17:35:32			0	36382	0	0	0	26472	25050	146249	27034	1026456	43082	109807	0	0	8183	615452	0	0
2024-06-29 17:36:32			0	36407	0	0	0	26428	25020	146153	27157	1026297	43080	109790	0	0	8185	614508	0	0
2024-06-29 17:37:32			0	36418	0	0	0	26381	25000	146169	27377	1026093	43077	109772	0	0	8186	614117	0	0
2024-06-29 17:38:32			0	36401	0	0	0	26353	24990	146169	27303	1026316	43076	109761	0	0	8186	614865	0	0
2024-06-29 17:39:32			0	36364	0	0	0	26425	25010	146329	27213	1026601	43133	109789	0	0	8183	616348	0	0
2024-06-29 17:40:32			0	36319	0	0	0	26441	25040	146505	27260	1026492	43115	109795	0	0	8180	618135	0	0
2024-06-29 17:41:32			0	36303	0	0	0	26438	25030	146589	27208	1026493	43114	109794	0	0	8180	618844	0	0
2024-06-29 17:42:32			0	36334	0	0	0	26428	25040	146485	27315	1026519	43103	109790	0	0	8181	617504	0	0
2024-06-29 17:43:32			0	36352	0	0	0	26415	25040	146305	27298	1026483	43091	109785	0	0	8183	616747	0	0
2024-06-29 17:44:32			0	36356	0	0	0	26425	25030	146365	27388	1026528	43125	109789	0	0	8183	616614	0	0
2024-06-29 17:45:32			0	36378	0	0	0	26457	25050	146065	27417	1026670	43104	109801	0	0	8183	615620	0	0
2024-06-29 17:46:32			0	36399	0	0	0	26475	25050	146033	27336	1026697	43126	109808	0	0	8184	614739	0	0
2024-06-29 17:47:32			0	36464	0	0	0	26509	25060	145949	27265	1026795	43105	109821	0	0	8187	611983	0	0
2024-06-29 17:48:32			0	36494	0	0	0	26535	25090	145889	27365	1026945	43119	109831	0	0	8188	610626	0	0
2024-06-29 17:49:32			0	36516	0	0	0	26561	25100	145749	27052	1027052	43120	109841	0	0	8189	609674	0	0
2024-06-29 17:50:32			0	36547	0	0	0	26602	25120	145521	27081	1027247	43132	109857	0	0	8190	608314	0	0
2024-06-29 17:51:32			0	36579	0	0	0	26657	25150	145465	27204	1027478	43158	109878	0	0	8191	606880	0	0
2024-06-29 17:52:32			0	36614	0	0	0	26698	25170	145430	27074	1027486	43148	109894	0	0	8192	605358	0	0
2024-06-29 17:53:32			0	36607	0	0	0	26714	25190	145278	26870	1027547	43139	109900	0	0	8192	605579	0	0
2024-06-29 17:54:32			0	36605	0	0	0	26735	25220	145318	27043	1027644	43142	109908	0	0	8191	605559	0	0
2024-06-29 17:55:32			0	36602	0	0	0	26727	25240	145298	26870	1027786	43122	109905	0	0	8191	605615	0	0
2024-06-29 17:56:32			0	36603	0	0	0	26805	25260	145426	27194	1027990	43168	109935	0	0	8190	605505	0	0
2024-06-29 17:57:32			0	36591	0	0	0	26786	25280	145393	27045	1027909	43148	109928	0	0	8190	605934	0	0
2024-06-29 17:58:32			0	36581	0	0	0	26748	25300	145345	27095	1027944	43128	109913	0	0	8190	606280	0	0
2024-06-29 17:59:32			0	36608	0	0	0	26745	25300	145166	27192	1027890	43139	109912	0	0	8192	605160	0	0
2024-06-29 18:00:32			0	36593	0	0	0	26696	25300	145194	27138	1027846	43128	109893	0	0	8192	605782	0	0
2024-06-29 18:01:32			0	36613	0	0	0	26698	25300	145174	27279	1027971	43139	109894	0	0	8193	604953	0	0
2024-06-29 18:02:32			0	36598	0	0	0	26737	25310	145206	27197	1027970	43162	109909	0	0	8191	605540	0	0
2024-06-29 18:03:32			0	36590	0	0	0	26771	25330	145186	26833	1028050	43164	109922	0	0	8190	605803	0	0
2024-06-29 18:04:32			0	36566	0	0	0	26794	25340	145297	27405	1028121	43143	109931	0	0	8189	606765	0	0
2024-06-29 18:05:32			0	36537	0	0	0	26786	25340	145457	27258	1028129	43143	109928	0	0	8187	607970	0	0
2024-06-29 18:06:32			0	36523	0	0	0	26805	25350	145417	27211	1028272	43176	109935	0	0	8186	608518	0	0
2024-06-29 18:07:32			0	36471	0	0	0	26898	25380	145469	27303	1028485	43158	109971	0	0	8182	610581	0	0
2024-06-29 18:08:32			0	36481	0	0	0	26883	25390	145545	27286	1028422	43147	109965	0	0	8183	610129	0	0
2024-06-29 18:09:32			0	36475	0	0	0	26851	25390	145601	27419	1028243	43148	109953	0	0	8183	610379	0	0
2024-06-29 18:10:32			0	36466	0	0	0	26831	25400	145585	27268	1028305	43148	109945	0	0	8183	610720	0	0
2024-06-29 18:11:32			0	36445	0	0	0	26838	25390	145641	27097	1028296	43148	109948	0	0	8182	611631	0	0
2024-06-29 18:12:32			0	36454	0	0	0	26818	25390	145709	27135	1028288	43147	109940	0	0	8183	611255	0	0
2024-06-29 18:13:32			0	36455	0	0	0	26794	25390	145681	27142	1028216	43148	109931	0	0	8183	611213	0	0
2024-06-29 18:14:32			0	36421	0	0	0	26792	25390	145745	27196	1028234	43147	109930	0	0	8181	612634	0	0
2024-06-29 18:15:32			0	36438	0	0	0	26786	25390	145677	27192	1028288	43147	109928	0	0	8182	611923	0	0
2024-06-29 18:16:32			0	36462	0	0	0	26745	25390	145689	27109	1028073	43114	109912	0	0	8184	610921	0	0
2024-06-29 18:17:32			0	36436	0	0	0	26685	25370	145757	27059	1027905	43101	109889	0	0	8184	612076	0	0
2024-06-29 18:18:32			0	36430	0	0	0	26636	25350	145793	27180	1027709	43088	109870	0	0	8184	612397	0	0
2024-06-29 18:19:32			0	36402	0	0	0	26579	25310	145805	27367	1027586	43095	109848	0	0	8184	613707	0	0
2024-06-29 18:20:32			0	36406	0	0	0	26514	25300	145809	27104	1027462	43094	109823	0	0	8185	613575	0	0
2024-06-29 18:21:32			0	36398	0	0	0	26612	25270	145861	27185	1027552	43136	109861	0	0	8183	614014	0	0
2024-06-29 18:22:32			0	36404	0	0	0	26641	25280	145893	27338	1027588	43137	109872	0	0	8182	613728	0	0
2024-06-29 18:23:32			0	36393	0	0	0	26586	25260	146029	27256	1027374	43102	109851	0	0	8183	614258	0	0
2024-06-29 18:24:32			0	36425	0	0	0	26524	25240	145849	27166	1027232	43133	109827	0	0	8185	612989	0	0
2024-06-29 18:25:32			0	36510	0	0	0	26480	25230	145537	27300	1027072	43098	109810	0	0	8191	609475	0	0
2024-06-29 18:26:32			0	36592	0	0	0	26449	25210	145093	27145	1027065	43097	109798	0	0	8195	606133	0	0
2024-06-29 18:27:32			0	36654	0	0	0	26446	25200	145066	27381	1027109	43119	109797	0	0	8199	603597	0	0
2024-06-29 18:28:32			0	36690	0	0	0	26529	25200	144742	26982	1027288	43129	109829	0	0	8199	602109	0	0
2024-06-29 18:29:32			0	36712	0	0	0	26625	25220	144654	27298	1027564	43142	109866	0	0	8199	601131	0	0
2024-06-29 18:30:32			0	36699	0	0	0	26636	25230	144790	27230	1027581	43154	109870	0	0	8198	601634	0	0
2024-06-29 18:31:32			0	36705	0	0	0	26667	25240	144818	27104	1027706	43155	109882	0	0	8198	601352	0	0
2024-06-29 18:32:32			0	36694	0	0	0	26711	25270	144814	27230	1027865	43158	109899	0	0	8196	601704	0	0
2024-06-29 18:33:32			0	36695	0	0	0	26745	25290	144910	27294	1028015	43161	109912	0	0	8196	601594	0	0
2024-06-29 18:34:32			0	36687	0	0	0	26745	25320	144838	27013	1028193	43163	109912	0	0	8196	601822	0	0
2024-06-29 18:35:32			0	36705	0	0	0	26732	25340	144794	27111	1028201	43165	109907	0	0	8197	601011	0	0
2024-06-29 18:36:32			0	36721	0	0	0	26683	25340	144646	26902	1028076	43143	109888	0	0	8199	600351	0	0
2024-06-29 18:37:32			0	36717	0	0	0	26641	25340	144658	26939	1028049	43132	109872	0	0	8199	600516	0	0
2024-06-29 18:38:32			0	36702	0	0	0	26615	25350	144614	27251	1027906	43143	109862	0	0	8199	601101	0	0
2024-06-29 18:39:32			0	36717	0	0	0	26602	25340	144690	27289	1027969	43132	109857	0	0	8200	600516	0	0
2024-06-29 18:40:32			0	36718	0	0	0	26625	25340	144638	27209	1027933	43143	109866	0	0	8199	600475	0	0
2024-06-29 18:41:32			0	36669	0	0	0	26628	25330	144654	27003	1027978	43130	109867	0	0	8197	602532	0	0
2024-06-29 18:42:32			0	36662	0	0	0	26641	25330	144770	27222	1027951	43130	109872	0	0	8196	602821	0	0
2024-06-29 18:43:32			0	36653	0	0	0	26628	25320	144902	27133	1027746	43108	109867	0	0	8196	603228	0	0
2024-06-29 18:44:32			0	36658	0	0	0	26625	25320	144838	27175	1027907	43129	109866	0	0	8196	603021	0	0
2024-06-29 18:45:32			0	36688	0	0	0	26651	25320	144794	27241	1027907	43119	109876	0	0	8197	601781	0	0
2024-06-29 18:46:32			0	36708	0	0	0	26625	25330	144682	26994	1027898	43130	109866	0	0	8199	600921	0	0
2024-06-29 18:47:32			0	36730	0	0	0	26620	25320	144606	27248	1027773	43108	109864	0	0	8200	600048	0	0
2024-06-29 18:48:32			0	36717	0	0	0	26610	25310	144682	27324	1027881	43140	109860	0	0	8200	600618	0	0
2024-06-29 18:49:32			0	36706	0	0	0	26693	25330	144622	27123	1028103	43164	109892	0	0	8198	601004	0	0
2024-06-29 18:50:32			0	36689	0	0	0	26776	25350	144778	27345	1028307	43176	109924	0	0	8195	601637	0	0
2024-06-29 18:51:32			0	36642	0	0	0	26888	25380	144978	27182	1028565	43179	109967	0	0	8191	603477	0	0
2024-06-29 18:52:32			0	36629	0	0	0	26919	25410	145014	27384	1028564	43172	109979	0	0	8190	603912	0	0
2024-06-29 18:53:32			0	36623	0	0	0	26935	25440	145014	26913	1028750	43174	109985	0	0	8190	604057	0	0
2024-06-29 18:54:32			0	36616	0	0	0	26922	25460	144970	26826	1028704	43165	109980	0	0	8190	604279	0	0
2024-06-29 18:55:32			0	36663	0	0	0	26919	25460	144906	27419	1028820	43155	109979	0	0	8192	602335	0	0
2024-06-29 18:56:32			0	36676	0	0	0	26932	25480	144766	27452	1028819	43157	109984	0	0	8193	601729	0	0
2024-06-29 18:57:32			0	36664	0	0	0	26909	25480	144726	27244	1028721	43145	109975	0	0	8192	602225	0	0
2024-06-29 18:58:32			0	36689	0	0	0	26906	25480	144750	27130	1028766	43145	109974	0	0	8194	601193	0	0
2024-06-29 18:59:32			0	36684	0	0	0	26937	25490	144782	27244	1028917	43168	109986	0	0	8193	601365	0	0
2024-06-29 19:00:32			0	36685	0	0	0	26981	25510	144678	26807	1029005	43181	110003	0	0	8192	601255	0	0
2024-06-29 19:01:32			0	36660	0	0	0	26981	25530	144806	27338	1029147	43183	110003	0	0	8191	602219	0	0
2024-06-29 19:02:32			0	36677	0	0	0	27025	25550	144786	27005	1029209	43185	110020	0	0	8191	601449	0	0
2024-06-29 19:03:32			0	36670	0	0	0	27010	25570	144710	27029	1029316	43175	110014	0	0	8191	601669	0	0
2024-06-29 19:04:32			0	36676	0	0	0	27062	25580	144670	27239	1029422	43189	110034	0	0	8191	601387	0	0
2024-06-29 19:05:32			0	36660	0	0	0	27025	25610	144674	27400	1029474	43191	110020	0	0	8191	601945	0	0
2024-06-29 19:06:32			0	36666	0	0	0	27059	25610	144694	27367	1029501	43203	110033	0	0	8191	601697	0	0
2024-06-29 19:07:32			0	36656	0	0	0	27096	25640	144734	27177	1029625	43182	110047	0	0	8190	602007	0	0
2024-06-29 19:08:32			0	36658	0	0	0	27124	25650	144674	27338	1029758	43184	110058	0	0	8189	601890	0	0
2024-06-29 19:09:32			0	36649	0	0	0	27148	25660	144714	27095	1029767	43195	110067	0	0	8188	602228	0	0
2024-06-29 19:10:32			0	36628	0	0	0	27135	25680	144774	27326	1029829	43175	110062	0	0	8188	603027	0	0
2024-06-29 19:11:32			0	36616	0	0	0	27135	25690	144846	27213	1029909	43200	110062	0	0	8187	603488	0	0
2024-06-29 19:12:32			0	36609	0	0	0	27111	25700	144834	27187	1029890	43188	110053	0	0	8187	603744	0	0
2024-06-29 19:13:32			0	36593	0	0	0	27070	25700	144921	27043	1029738	43166	110037	0	0	8187	604406	0	0
2024-06-29 19:14:32			0	36596	0	0	0	27085	25700	144889	27317	1029756	43177	110043	0	0	8187	604282	0	0
2024-06-29 19:15:32			0	36566	0	0	0	27070	25690	145017	26956	1029614	43177	110037	0	0	8186	605558	0	0
2024-06-29 19:16:32			0	36576	0	0	0	27038	25680	145009	27322	1029507	43165	110025	0	0	8187	605179	0	0
2024-06-29 19:17:32			0	36562	0	0	0	27025	25660	144877	27505	1029472	43172	110020	0	0	8186	605828	0	0
2024-06-29 19:18:32			0	36576	0	0	0	27031	25660	145001	27144	1029561	43185	110022	0	0	8187	605247	0	0
2024-06-29 19:19:32			0	36568	0	0	0	27020	25660	145033	27270	1029445	43162	110018	0	0	8186	605579	0	0
2024-06-29 19:20:32			0	36573	0	0	0	26999	25660	144937	27038	1029338	43162	110010	0	0	8187	605372	0	0
2024-06-29 19:21:32			0	36566	0	0	0	26976	25630	145009	27265	1029321	43160	110001	0	0	8187	605765	0	0
2024-06-29 19:22:32			0	36603	0	0	0	26979	25630	145006	27270	1029375	43170	110002	0	0	8189	604233	0	0
2024-06-29 19:23:32			0	36577	0	0	0	26953	25630	145005	27331	1029286	43170	109992	0	0	8188	605309	0	0
2024-06-29 19:24:32			0	36566	0	0	0	26922	25600	144969	27135	1029135	43157	109980	0	0	8188	605869	0	0
2024-06-29 19:25:32			0	36592	0	0	0	26903	25580	144981	27001	1028993	43133	109973	0	0	8189	604860	0	0
2024-06-29 19:26:32			0	36590	0	0	0	26888	25570	145050	26850	1028895	43131	109967	0	0	8189	604977	0	0
2024-06-29 19:27:32			0	36574	0	0	0	26859	25550	145033	27124	1028834	43163	109956	0	0	8189	605709	0	0
2024-06-29 19:28:32			0	36584	0	0	0	26820	25530	145081	27232	1028638	43127	109941	0	0	8190	605364	0	0
2024-06-29 19:29:32			0	36575	0	0	0	26812	25520	145037	27237	1028728	43138	109938	0	0	8190	605771	0	0
2024-06-29 19:30:32			0	36606	0	0	0	26825	25510	144930	26989	1028684	43159	109943	0	0	8191	604521	0	0
2024-06-29 19:31:32			0	36593	0	0	0	26836	25510	145026	27300	1028702	43147	109947	0	0	8190	605060	0	0
2024-06-29 19:32:32			0	36595	0	0	0	26833	25510	144973	27164	1028675	43169	109946	0	0	8190	604977	0	0
2024-06-29 19:33:32			0	36588	0	0	0	26849	25500	145001	27178	1028738	43158	109952	0	0	8190	605301	0	0
2024-06-29 19:34:32			0	36576	0	0	0	26854	25500	145101	27246	1028827	43180	109954	0	0	8189	605799	0	0
2024-06-29 19:35:32			0	36595	0	0	0	26888	25510	145054	27230	1028871	43170	109967	0	0	8189	604977	0	0
2024-06-29 19:36:32			0	36583	0	0	0	26890	25520	145105	27093	1028880	43171	109968	0	0	8189	605440	0	0
2024-06-29 19:37:32			0	36566	0	0	0	26888	25510	145101	27424	1028782	43147	109967	0	0	8188	606179	0	0
2024-06-29 19:38:32			0	36566	0	0	0	26877	25510	145101	27175	1028818	43159	109963	0	0	8188	606179	0	0
2024-06-29 19:39:32			0	36570	0	0	0	26883	25520	145085	27046	1028880	43160	109965	0	0	8188	605979	0	0
2024-06-29 19:40:32			0	36556	0	0	0	26885	25510	145117	27246	1028809	43169	109966	0	0	8187	606594	0	0
2024-06-29 19:41:32			0	36553	0	0	0	26890	25520	145053	27177	1028853	43171	109968	0	0	8187	606684	0	0
2024-06-29 19:42:32			0	36555	0	0	0	26898	25510	145197	27190	1028863	43180	109971	0	0	8187	606635	0	0
2024-06-29 19:43:32			0	36569	0	0	0	26911	25520	145221	27072	1028889	43182	109976	0	0	8188	606020	0	0
2024-06-29 19:44:32			0	36553	0	0	0	26916	25510	145189	26852	1028898	43148	109978	0	0	8187	606719	0	0
2024-06-29 19:45:32			0	36550	0	0	0	26901	25520	145249	27046	1028853	43171	109972	0	0	8187	606809	0	0
2024-06-29 19:46:32			0	36544	0	0	0	26890	25510	145197	27307	1028782	43180	109968	0	0	8187	607092	0	0
2024-06-29 19:47:32			0	36563	0	0	0	26883	25510	145269	27341	1028737	43148	109965	0	0	8188	606304	0	0
2024-06-29 19:48:32			0	36551	0	0	0	26857	25490	145277	27575	1028622	43135	109955	0	0	8187	606871	0	0
2024-06-29 19:49:32			0	36570	0	0	0	26828	25460	145253	27222	1028418	43143	109944	0	0	8189	606185	0	0
2024-06-29 19:50:32			0	36562	0	0	0	26792	25450	145173	27246	1028365	43142	109930	0	0	8189	606552	0	0
2024-06-29 19:51:32			0	36576	0	0	0	26768	25440	145153	26989	1028294	43141	109921	0	0	8190	606005	0	0
2024-06-29 19:52:32			0	36558	0	0	0	26742	25420	145213	27154	1028259	43139	109911	0	0	8189	606821	0	0
2024-06-29 19:53:32			0	36596	0	0	0	26719	25400	145173	27166	1028180	43149	109902	0	0	8192	605314	0	0
2024-06-29 19:54:32			0	36594	0	0	0	26703	25390	145089	27057	1028082	43148	109896	0	0	8192	605431	0	0
2024-06-29 19:55:32			0	36605	0	0	0	26675	25380	145074	27286	1027976	43135	109885	0	0	8193	605009	0	0
2024-06-29 19:56:32			0	36631	0	0	0	26654	25340	145046	27086	1027835	43099	109877	0	0	8194	604069	0	0
2024-06-29 19:57:32			0	36630	0	0	0	26612	25330	145010	26981	1027648	43120	109861	0	0	8195	604145	0	0
2024-06-29 19:58:32			0	36647	0	0	0	26584	25300	144974	26951	1027605	43117	109850	0	0	8196	603545	0	0
2024-06-29 19:59:32			0	36671	0	0	0	26550	25290	144934	27123	1027533	43105	109837	0	0	8198	602586	0	0
2024-06-29 20:00:32			0	36679	0	0	0	26555	25270	144874	27159	1027472	43136	109839	0	0	8198	602324	0	0
2024-06-29 20:01:32			0	36676	0	0	0	26542	25260	144902	26984	1027428	43135	109834	0	0	8198	602482	0	0
2024-06-29 20:02:32			0	36680	0	0	0	26527	25240	144878	26923	1027304	43111	109828	0	0	8199	602385	0	0
2024-06-29 20:03:32			0	36697	0	0	0	26516	25220	144914	27208	1027305	43110	109824	0	0	8200	601751	0	0
2024-06-29 20:04:32			0	36688	0	0	0	26498	25210	144838	27135	1027180	43097	109817	0	0	8200	602157	0	0
2024-06-29 20:05:32			0	36713	0	0	0	26475	25200	144886	27163	1027020	43096	109808	0	0	8201	601159	0	0
2024-06-29 20:06:32			0	36711	0	0	0	26470	25170	144802	27163	1026985	43105	109806	0	0	8201	601344	0	0
2024-06-29 20:07:32			0	36729	0	0	0	26441	25150	144794	27027	1026870	43103	109795	0	0	8202	600669	0	0
2024-06-29 20:08:32			0	36719	0	0	0	26418	25130	144894	27284	1026693	43100	109786	0	0	8202	601150	0	0
2024-06-29 20:09:32			0	36723	0	0	0	26397	25110	144806	27211	1026667	43111	109778	0	0	8203	601053	0	0
2024-06-29 20:10:32			0	36732	0	0	0	26373	25080	144738	27431	1026535	43074	109769	0	0	8203	600784	0	0
2024-06-29 20:11:32			0	36745	0	0	0	26368	25070	144750	27310	1026437	43106	109767	0	0	8204	600281	0	0
2024-06-29 20:12:32			0	36730	0	0	0	26355	25060	144794	27144	1026492	43104	109762	0	0	8203	600934	0	0
2024-06-29 20:13:32			0	36747	0	0	0	26363	25060	144810	27123	1026518	43116	109765	0	0	8204	600233	0	0
2024-06-29 20:14:32			0	36738	0	0	0	26373	25060	144910	26998	1026572	43126	109769	0	0	8204	600604	0	0
2024-06-29 20:15:32			0	36694	0	0	0	26394	25050	145002	27112	1026617	43137	109777	0	0	8201	602456	0	0
2024-06-29 20:16:32			0	36695	0	0	0	26402	25050	144970	27229	1026617	43126	109780	0	0	8201	602414	0	0
2024-06-29 20:17:32			0	36686	0	0	0	26410	25050	145074	26866	1026617	43137	109783	0	0	8200	602787	0	0
2024-06-29 20:18:32			0	36676	0	0	0	26420	25050	145234	27010	1026563	43126	109787	0	0	8199	603200	0	0
2024-06-29 20:19:32			0	36644	0	0	0	26423	25060	145142	27026	1026652	43137	109788	0	0	8198	604491	0	0
2024-06-29 20:20:32			0	36673	0	0	0	26449	25050	145198	27265	1026724	43116	109798	0	0	8199	603325	0	0
2024-06-29 20:21:32			0	36660	0	0	0	26446	25060	145162	27211	1026786	43137	109797	0	0	8198	603829	0	0
2024-06-29 20:22:32			0	36659	0	0	0	26470	25070	145194	27374	1026919	43150	109806	0	0	8198	603836	0	0
2024-06-29 20:23:32			0	36660	0	0	0	26522	25090	145218	27275	1027034	43153	109826	0	0	8197	603726	0	0
2024-06-29 20:24:32			0	36625	0	0	0	26553	25100	145350	27128	1027123	43153	109838	0	0	8195	605142	0	0
2024-06-29 20:25:32			0	36619	0	0	0	26584	25110	145310	27341	1027176	43166	109850	0	0	8194	605356	0	0
2024-06-29 20:26:32			0	36590	0	0	0	26607	25130	145337	27071	1027318	43146	109859	0	0	8192	606491	0	0
2024-06-29 20:27:32			0	36589	0	0	0	26620	25150	145445	27215	1027371	43135	109864	0	0	8192	606464	0	0
2024-06-29 20:28:32			0	36580	0	0	0	26631	25160	145505	27052	1027450	43160	109868	0	0	8191	606804	0	0
2024-06-29 20:29:32			0	36573	0	0	0	26636	25180	145489	27486	1027432	43150	109870	0	0	8191	607026	0	0
2024-06-29 20:30:32			0	36571	0	0	0	26646	25180	145465	27294	1027432	43150	109874	0	0	8191	607109	0	0
2024-06-29 20:31:32			0	36555	0	0	0	26638	25200	145417	27095	1027449	43140	109871	0	0	8190	607705	0	0
2024-06-29 20:32:32			0	36566	0	0	0	26628	25200	145397	27183	1027449	43151	109867	0	0	8191	607247	0	0
2024-06-29 20:33:32			0	36570	0	0	0	26623	25200	145445	27145	1027458	43152	109865	0	0	8191	607081	0	0
2024-06-29 20:34:32			0	36607	0	0	0	26628	25210	145310	27383	1027493	43152	109867	0	0	8193	605511	0	0
2024-06-29 20:35:32			0	36638	0	0	0	26623	25210	145174	27230	1027475	43129	109865	0	0	8195	604226	0	0
2024-06-29 20:36:32			0	36649	0	0	0	26610	25220	145126	27163	1027537	43142	109860	0	0	8196	603736	0	0
2024-06-29 20:37:32			0	36678	0	0	0	26581	25210	145138	27189	1027332	43119	109849	0	0	8198	602570	0	0
2024-06-29 20:38:32			0	36709	0	0	0	26545	25200	145018	27367	1027208	43129	109835	0	0	8200	601324	0	0
2024-06-29 20:39:32			0	36699	0	0	0	26516	25180	144914	27085	1027182	43116	109824	0	0	8200	601805	0	0
2024-06-29 20:40:32			0	36724	0	0	0	26498	25180	144874	27126	1027075	43116	109817	0	0	8201	600773	0	0
2024-06-29 20:41:32			0	36719	0	0	0	26509	25160	144886	27282	1027290	43137	109821	0	0	8201	601047	0	0
2024-06-29 20:42:32			0	36723	0	0	0	26545	25170	144886	27022	1027271	43137	109835	0	0	8200	600848	0	0
2024-06-29 20:43:32			0	36698	0	0	0	26581	25170	144994	27209	1027387	43149	109849	0	0	8198	601880	0	0
2024-06-29 20:44:32			0	36712	0	0	0	26618	25190	145054	27476	1027494	43150	109863	0	0	8199	601234	0	0
2024-06-29 20:45:32			0	36707	0	0	0	26646	25220	145110	27173	1027626	43154	109874	0	0	8198	601338	0	0
2024-06-29 20:46:32			0	36664	0	0	0	26670	25230	145090	27476	1027635	43154	109883	0	0	8195	603081	0	0
2024-06-29 20:47:32			0	36679	0	0	0	26698	25240	145006	27460	1027706	43166	109894	0	0	8196	602426	0	0
2024-06-29 20:48:32			0	36664	0	0	0	26696	25250	145054	27424	1027804	43156	109893	0	0	8195	603012	0	0
2024-06-29 20:49:32			0	36657	0	0	0	26696	25260	145086	27281	1027767	43145	109893	0	0	8195	603268	0	0
2024-06-29 20:50:32			0	36678	0	0	0	26688	25260	145054	27086	1027722	43135	109890	0	0	8196	602399	0	0
2024-06-29 20:51:32			0	36661	0	0	0	26646	25240	145118	27173	1027554	43133	109874	0	0	8196	603171	0	0
2024-06-29 20:52:32			0	36689	0	0	0	26610	25240	144994	27064	1027384	43122	109860	0	0	8198	602013	0	0
2024-06-29 20:53:32			0	36692	0	0	0	26558	25230	144910	27043	1027314	43121	109840	0	0	8199	601923	0	0
2024-06-29 20:54:32			0	36731	0	0	0	26522	25210	144786	27157	1027261	43119	109826	0	0	8201	600382	0	0
2024-06-29 20:55:32			0	36770	0	0	0	26527	25210	144614	27298	1027332	43129	109828	0	0	8203	598775	0	0
2024-06-29 20:56:32			0	36782	0	0	0	26553	25210	144550	27364	1027475	43129	109838	0	0	8203	598281	0	0
2024-06-29 20:57:32			0	36791	0	0	0	26618	25220	144490	27230	1027618	43142	109863	0	0	8203	597877	0	0
2024-06-29 20:58:32			0	36778	0	0	0	26667	25230	144534	26982	1027644	43155	109882	0	0	8201	598378	0	0
2024-06-29 20:59:32			0	36788	0	0	0	26654	25240	144622	27069	1027661	43145	109877	0	0	8202	597932	0	0
2024-06-29 21:00:32			0	36790	0	0	0	26641	25240	144646	26932	1027599	43144	109872	0	0	8203	597850	0	0
2024-06-29 21:01:32			0	36790	0	0	0	26620	25230	144638	27135	1027510	43132	109864	0	0	8203	597884	0	0
2024-06-29 21:02:32			0	36785	0	0	0	26599	25230	144550	27034	1027474	43131	109856	0	0	8203	598090	0	0
2024-06-29 21:03:32			0	36777	0	0	0	26589	25220	144622	27197	1027466	43143	109852	0	0	8203	598453	0	0
2024-06-29 21:04:32			0	36748	0	0	0	26594	25230	144726	27377	1027581	43143	109854	0	0	8201	599613	0	0
2024-06-29 21:05:32			0	36723	0	0	0	26618	25240	144786	26955	1027741	43145	109863	0	0	8199	600610	0	0
2024-06-29 21:06:32			0	36724	0	0	0	26623	25250	144858	27189	1027696	43133	109865	0	0	8199	600534	0	0
2024-06-29 21:07:32			0	36680	0	0	0	26657	25260	144942	27131	1027794	43134	109878	0	0	8197	602317	0	0
2024-06-29 21:08:32			0	36651	0	0	0	26667	25260	144998	27090	1027803	43146	109882	0	0	8195	603516	0	0
2024-06-29 21:09:32			0	36653	0	0	0	26688	25280	145106	27173	1027837	43148	109890	0	0	8195	603365	0	0
2024-06-29 21:10:32			0	36639	0	0	0	26683	25270	145070	27109	1027811	43146	109888	0	0	8194	603978	0	0
2024-06-29 21:11:32			0	36622	0	0	0	26675	25280	145126	27107	1027829	43160	109885	0	0	8193	604648	0	0
2024-06-29 21:12:32			0	36634	0	0	0	26693	25280	145158	27242	1027918	43160	109892	0	0	8194	604151	0	0
2024-06-29 21:13:32			0	36620	0	0	0	26693	25290	145162	26986	1027935	43149	109892	0	0	8193	604697	0	0
2024-06-29 21:14:32			0	36650	0	0	0	26690	25300	145138	27133	1027917	43150	109891	0	0	8195	603420	0	0
2024-06-29 21:15:32			0	36639	0	0	0	26675	25300	145110	26897	1027810	43150	109885	0	0	8194	603876	0	0
2024-06-29 21:16:32			0	36608	0	0	0	26644	25300	145198	27218	1027783	43128	109873	0	0	8193	605160	0	0
2024-06-29 21:17:32			0	36620	0	0	0	26602	25280	145122	27150	1027534	43126	109857	0	0	8194	604731	0	0
2024-06-29 21:18:32			0	36612	0	0	0	26550	25270	145178	26866	1027490	43125	109837	0	0	8195	605097	0	0
2024-06-29 21:19:32			0	36634	0	0	0	26545	25240	145214	27059	1027554	43123	109835	0	0	8196	604288	0	0
2024-06-29 21:20:32			0	36617	0	0	0	26579	25250	145138	26909	1027723	43145	109848	0	0	8195	604959	0	0
2024-06-29 21:21:32			0	36638	0	0	0	26610	25260	145066	27171	1027776	43146	109860	0	0	8195	604054	0	0
2024-06-29 21:22:32			0	36623	0	0	0	26654	25270	145190	26946	1027847	43147	109877	0	0	8194	604641	0	0
2024-06-29 21:23:32			0	36624	0	0	0	26698	25280	145158	26857	1027864	43160	109894	0	0	8193	604565	0	0
2024-06-29 21:24:32			0	36619	0	0	0	26703	25290	145194	27055	1027766	43126	109896	0	0	8193	604738	0	0
2024-06-29 21:25:32			0	36622	0	0	0	26651	25280	145202	26868	1027641	43115	109876	0	0	8194	604648	0	0
2024-06-29 21:26:32			0	36624	0	0	0	26618	25260	145242	27178	1027553	43124	109863	0	0	8194	604634	0	0
2024-06-29 21:27:32			0	36624	0	0	0	26615	25260	145206	27320	1027660	43134	109862	0	0	8194	604634	0	0
2024-06-29 21:28:32			0	36613	0	0	0	26615	25260	145318	27026	1027696	43146	109862	0	0	8194	605090	0	0
2024-06-29 21:29:32			0	36603	0	0	0	26631	25260	145194	27175	1027848	43145	109868	0	0	8193	605505	0	0
2024-06-29 21:30:32			0	36604	0	0	0	26651	25280	145310	26979	1027829	43160	109876	0	0	8193	605395	0	0
2024-06-29 21:31:32			0	36574	0	0	0	26646	25280	145261	27173	1027730	43148	109874	0	0	8191	606639	0	0
2024-06-29 21:32:32			0	36601	0	0	0	26605	25270	145350	26991	1027517	43113	109858	0	0	8193	605553	0	0
2024-06-29 21:33:32			0	36583	0	0	0	26568	25240	145333	27109	1027420	43112	109844	0	0	8193	606404	0	0
2024-06-29 21:34:32			0	36593	0	0	0	26527	25230	145309	27279	1027314	43098	109828	0	0	8194	606023	0	0
2024-06-29 21:35:32			0	36619	0	0	0	26501	25220	145298	27208	1027278	43098	109818	0	0	8196	604979	0	0
2024-06-29 21:36:32			0	36603	0	0	0	26490	25200	145222	27029	1027208	43118	109814	0	0	8195	605711	0	0
2024-06-29 21:37:32			0	36605	0	0	0	26493	25180	145394	27197	1027217	43117	109815	0	0	8195	605697	0	0
2024-06-29 21:38:32			0	36593	0	0	0	26509	25190	145341	27100	1027306	43139	109821	0	0	8194	606160	0	0
2024-06-29 21:39:32			0	36582	0	0	0	26519	25190	145453	27287	1027253	43150	109825	0	0	8194	606617	0	0
2024-06-29 21:40:32			0	36585	0	0	0	26496	25180	145501	26941	1027244	43128	109816	0	0	8194	606527	0	0
2024-06-29 21:41:32			0	36557	0	0	0	26477	25160	145461	27171	1027048	43115	109809	0	0	8193	607760	0	0
2024-06-29 21:42:32			0	36553	0	0	0	26470	25160	145469	26793	1027147	43125	109806	0	0	8193	607926	0	0
2024-06-29 21:43:32			0	36562	0	0	0	26493	25180	145433	27085	1027396	43161	109815	0	0	8193	607483	0	0
2024-06-29 21:44:32			0	36557	0	0	0	26537	25190	145461	27235	1027440	43162	109832	0	0	8192	607656	0	0
2024-06-29 21:45:32			0	36562	0	0	0	26576	25200	145473	26908	1027618	43152	109847	0	0	8192	607414	0	0
2024-06-29 21:46:32			0	36580	0	0	0	26618	25220	145509	26793	1027733	43154	109863	0	0	8192	606597	0	0
2024-06-29 21:47:32			0	36564	0	0	0	26641	25230	145485	27074	1027697	43144	109872	0	0	8191	607227	0	0
2024-06-29 21:48:32			0	36559	0	0	0	26605	25240	145469	27133	1027661	43145	109858	0	0	8191	607401	0	0
2024-06-29 21:49:32			0	36576	0	0	0	26592	25250	145449	26965	1027777	43133	109853	0	0	8192	606660	0	0
2024-06-29 21:50:32			0	36572	0	0	0	26612	25250	145501	27081	1027812	43157	109861	0	0	8192	606826	0	0
2024-06-29 21:51:32			0	36566	0	0	0	26654	25270	145441	27107	1027954	43147	109877	0	0	8191	607006	0	0
2024-06-29 21:52:32			0	36552	0	0	0	26698	25290	145369	27229	1028060	43170	109894	0	0	8189	607519	0	0
2024-06-29 21:53:32			0	36532	0	0	0	26722	25300	145525	26935	1028114	43161	109903	0	0	8188	608316	0	0
2024-06-29 21:54:32			0	36544	0	0	0	26714	25320	145509	27339	1028059	43163	109900	0	0	8189	607748	0	0
2024-06-29 21:55:32			0	36522	0	0	0	26688	25320	145441	27083	1027898	43141	109890	0	0	8188	608663	0	0
2024-06-29 21:56:32			0	36527	0	0	0	26675	25300	145449	26889	1027819	43139	109885	0	0	8188	608524	0	0
2024-06-29 21:57:32			0	36544	0	0	0	26651	25290	145457	27220	1027801	43127	109876	0	0	8190	607852	0	0
2024-06-29 21:58:32			0	36545	0	0	0	26592	25270	145433	26967	1027544	43102	109853	0	0	8191	607879	0	0
2024-06-29 21:59:32			0	36555	0	0	0	26576	25260	145385	27112	1027660	43124	109847	0	0	8191	607498	0	0
2024-06-29 22:00:32			0	36564	0	0	0	26581	25250	145453	27481	1027616	43133	109849	0	0	8192	607158	0	0
2024-06-29 22:01:32			0	36572	0	0	0	26576	25270	145429	27067	1027731	43158	109847	0	0	8192	606757	0	0
2024-06-29 22:02:32			0	36579	0	0	0	26584	25270	145429	26944	1027740	43125	109850	0	0	8193	606466	0	0
2024-06-29 22:03:32			0	36547	0	0	0	26581	25260	145445	27007	1027580	43134	109849	0	0	8191	607831	0	0
2024-06-29 22:04:32			0	36576	0	0	0	26581	25250	145525	26975	1027509	43112	109849	0	0	8192	606660	0	0
2024-06-29 22:05:32			0	36548	0	0	0	26558	25240	145469	27327	1027447	43123	109840	0	0	8191	607858	0	0
2024-06-29 22:06:32			0	36538	0	0	0	26516	25220	145497	27312	1027224	43098	109824	0	0	8191	608343	0	0
2024-06-29 22:07:32			0	36558	0	0	0	26467	25200	145445	27064	1027002	43075	109805	0	0	8193	607580	0	0
2024-06-29 22:08:32			0	36568	0	0	0	26407	25180	145425	26989	1026887	43094	109782	0	0	8195	607233	0	0
2024-06-29 22:09:32			0	36558	0	0	0	26412	25160	145473	27124	1027201	43125	109784	0	0	8194	607718	0	0
2024-06-29 22:10:32			0	36584	0	0	0	26490	25180	145473	27282	1027619	43172	109814	0	0	8194	606569	0	0
2024-06-29 22:11:32			0	36582	0	0	0	26597	25230	145425	27036	1027858	43177	109855	0	0	8192	606479	0	0
2024-06-29 22:12:32			0	36576	0	0	0	26680	25270	145373	27118	1027919	43168	109887	0	0	8191	606591	0	0
2024-06-29 22:13:32			0	36583	0	0	0	26709	25270	145461	26887	1027919	43135	109898	0	0	8191	606300	0	0
2024-06-29 22:14:32			0	36566	0	0	0	26716	25280	145381	26791	1027971	43160	109901	0	0	8190	606972	0	0
2024-06-29 22:15:32			0	36562	0	0	0	26716	25290	145373	26991	1027926	43137	109901	0	0	8190	607104	0	0
2024-06-29 22:16:32			0	36587	0	0	0	26714	25300	145293	27093	1027944	43150	109900	0	0	8191	606031	0	0
2024-06-29 22:17:32			0	36577	0	0	0	26688	25290	145397	26871	1027828	43138	109890	0	0	8191	606481	0	0
2024-06-29 22:18:32			0	36595	0	0	0	26633	25280	145293	26844	1027722	43126	109869	0	0	8193	605768	0	0
2024-06-29 22:19:32			0	36602	0	0	0	26579	25270	145290	27317	1027410	43102	109848	0	0	8194	605512	0	0
2024-06-29 22:20:32			0	36610	0	0	0	26532	25230	145186	27305	1027242	43088	109830	0	0	8195	605318	0	0
2024-06-29 22:21:32			0	36613	0	0	0	26477	25200	145146	26915	1027056	43085	109809	0	0	8196	605296	0	0
2024-06-29 22:22:32			0	36644	0	0	0	26444	25170	145206	27090	1026870	43071	109796	0	0	8198	604114	0	0
2024-06-29 22:23:32			0	36634	0	0	0	26420	25140	145182	27154	1026800	43090	109787	0	0	8198	604632	0	0
2024-06-29 22:24:32			0	36617	0	0	0	26425	25140	145146	27112	1026800	43113	109789	0	0	8197	605336	0	0
2024-06-29 22:25:32			0	36647	0	0	0	26420	25130	145154	27196	1026863	43124	109787	0	0	8198	604127	0	0
2024-06-29 22:26:32			0	36632	0	0	0	26425	25120	145142	26970	1026819	43122	109789	0	0	8197	604783	0	0
2024-06-29 22:27:32			0	36649	0	0	0	26428	25110	145158	27154	1026801	43122	109790	0	0	8198	604113	0	0
2024-06-29 22:28:32			0	36627	0	0	0	26438	25110	145282	27013	1026819	43121	109794	0	0	8197	605025	0	0
2024-06-29 22:29:32			0	36632	0	0	0	26428	25100	145210	27284	1026811	43120	109790	0	0	8197	604852	0	0
2024-06-29 22:30:32			0	36629	0	0	0	26420	25110	145222	27260	1026846	43121	109787	0	0	8197	604942	0	0
2024-06-29 22:31:32			0	36645	0	0	0	26415	25090	145286	26687	1026767	43131	109785	0	0	8198	604347	0	0
2024-06-29 22:32:32			0	36637	0	0	0	26410	25090	145286	26948	1026820	43120	109783	0	0	8198	604679	0	0
2024-06-29 22:33:32			0	36628	0	0	0	26431	25090	145234	27092	1026927	43120	109791	0	0	8197	605052	0	0
2024-06-29 22:34:32			0	36646	0	0	0	26467	25100	145270	27189	1026945	43142	109805	0	0	8197	604271	0	0
2024-06-29 22:35:32			0	36614	0	0	0	26444	25100	145274	27227	1026837	43109	109796	0	0	8196	605598	0	0
2024-06-29 22:36:32			0	36633	0	0	0	26423	25100	145338	27267	1026829	43109	109788	0	0	8197	604810	0	0
2024-06-29 22:37:32			0	36645	0	0	0	26402	25090	145286	27208	1026731	43108	109780	0	0	8198	604347	0	0
2024-06-29 22:38:32			0	36623	0	0	0	26386	25070	145214	27336	1026723	43106	109774	0	0	8197	605328	0	0
2024-06-29 22:39:32			0	36622	0	0	0	26402	25080	145378	27012	1026883	43129	109780	0	0	8197	605335	0	0
2024-06-29 22:40:32			0	36618	0	0	0	26457	25090	145254	27422	1027034	43131	109801	0	0	8196	605467	0	0
2024-06-29 22:41:32			0	36629	0	0	0	26490	25110	145238	27234	1027114	43143	109814	0	0	8196	604942	0	0
2024-06-29 22:42:32			0	36634	0	0	0	26529	25120	145314	27171	1027220	43155	109829	0	0	8196	604700	0	0
2024-06-29 22:43:32			0	36627	0	0	0	26566	25130	145210	27163	1027264	43134	109843	0	0	8195	604956	0	0
2024-06-29 22:44:32			0	36637	0	0	0	26589	25150	145350	27301	1027353	43147	109852	0	0	8195	604473	0	0
2024-06-29 22:45:32			0	36640	0	0	0	26597	25150	145390	27320	1027379	43147	109855	0	0	8195	604349	0	0
2024-06-29 22:46:32			0	36617	0	0	0	26638	25170	145354	27036	1027486	43137	109871	0	0	8193	605233	0	0
2024-06-29 22:47:32			0	36624	0	0	0	26670	25200	145338	27244	1027726	43163	109883	0	0	8193	604840	0	0
2024-06-29 22:48:32			0	36628	0	0	0	26701	25210	145414	27161	1027716	43174	109895	0	0	8193	604640	0	0
2024-06-29 22:49:32			0	36619	0	0	0	26748	25230	145370	27062	1027831	43155	109913	0	0	8192	604944	0	0
2024-06-29 22:50:32			0	36610	0	0	0	26750	25260	145378	26844	1027874	43167	109914	0	0	8191	605214	0	0
2024-06-29 22:51:32			0	36631	0	0	0	26750	25270	145382	27268	1027919	43168	109914	0	0	8193	604310	0	0
2024-06-29 22:52:32			0	36632	0	0	0	26740	25270	145202	27149	1027892	43146	109910	0	0	8193	604268	0	0
2024-06-29 22:53:32			0	36628	0	0	0	26737	25290	145210	27218	1027926	43160	109909	0	0	8193	604366	0	0
2024-06-29 22:54:32			0	36647	0	0	0	26735	25290	145110	27150	1027873	43148	109908	0	0	8194	603579	0	0
2024-06-29 22:55:32			0	36663	0	0	0	26735	25300	145150	27291	1027944	43161	109908	0	0	8195	602883	0	0
2024-06-29 22:56:32			0	36661	0	0	0	26748	25300	145070	26951	1028033	43161	109913	0	0	8194	602965	0	0
2024-06-29 22:57:32			0	36645	0	0	0	26750	25300	145054	26802	1027971	43161	109914	0	0	8193	603627	0	0
2024-06-29 22:58:32			0	36667	0	0	0	26755	25310	145110	27222	1028077	43140	109916	0	0	8194	602683	0	0
2024-06-29 22:59:32			0	36666	0	0	0	26755	25320	145082	27105	1028041	43163	109916	0	0	8194	602690	0	0
2024-06-29 23:00:32			0	36663	0	0	0	26745	25320	145022	27081	1028059	43163	109912	0	0	8194	602814	0	0
2024-06-29 23:01:32			0	36654	0	0	0	26755	25320	145010	27131	1028041	43163	109916	0	0	8194	603186	0	0
2024-06-29 23:02:32			0	36661	0	0	0	26745	25320	145046	27098	1028068	43163	109912	0	0	8194	602897	0	0
2024-06-29 23:03:32			0	36668	0	0	0	26745	25330	145026	26882	1028166	43142	109912	0	0	8195	602573	0	0
2024-06-29 23:04:32			0	36669	0	0	0	26732	25320	145086	27196	1027988	43152	109907	0	0	8195	602566	0	0
2024-06-29 23:05:32			0	36671	0	0	0	26729	25330	145146	26984	1028103	43164	109906	0	0	8195	602449	0	0
2024-06-29 23:06:32			0	36654	0	0	0	26722	25340	145074	26920	1028040	43165	109903	0	0	8194	603118	0	0
2024-06-29 23:07:32			0	36680	0	0	0	26664	25310	145134	27111	1027729	43128	109881	0	0	8197	602146	0	0
2024-06-29 23:08:32			0	36668	0	0	0	26607	25290	145134	26972	1027525	43137	109859	0	0	8197	602710	0	0
2024-06-29 23:09:32			0	36655	0	0	0	26568	25260	145146	26975	1027339	43113	109844	0	0	8197	603351	0	0
2024-06-29 23:10:32			0	36678	0	0	0	26490	25230	145070	27308	1027054	43078	109814	0	0	8199	602502	0	0
2024-06-29 23:11:32			0	36703	0	0	0	26431	25190	145034	27076	1026931	43083	109791	0	0	8201	601606	0	0
2024-06-29 23:12:32			0	36744	0	0	0	26361	25150	144858	27039	1026603	43059	109764	0	0	8204	600050	0	0
2024-06-29 23:13:32			0	36765	0	0	0	26277	25100	144774	27216	1026302	43042	109732	0	0	8207	599355	0	0
2024-06-29 23:14:32			0	36767	0	0	0	26189	25050	144762	26916	1025805	43027	109698	0	0	8208	599442	0	0
2024-06-29 23:15:32			0	36770	0	0	0	26111	24980	144730	27145	1025451	42999	109668	0	0	8209	599557	0	0
2024-06-29 23:16:32			0	36721	0	0	0	26049	24930	145006	27414	1025302	42992	109644	0	0	8208	601749	0	0
2024-06-29 23:17:32			0	36661	0	0	0	26015	24890	145262	27315	1025375	43034	109631	0	0	8205	604369	0	0
2024-06-29 23:18:32			0	36588	0	0	0	26070	24880	145517	27331	1025848	43099	109652	0	0	8200	607435	0	0
2024-06-29 23:19:32			0	36518	0	0	0	26179	24920	145829	26861	1026230	43158	109694	0	0	8195	610213	0	0
2024-06-29 23:20:32			0	36448	0	0	0	26231	24950	145945	27092	1026247	43137	109714	0	0	8190	613035	0	0
2024-06-29 23:21:32			0	36416	0	0	0	26270	24950	146217	27261	1026470	43150	109729	0	0	8188	614375	0	0
2024-06-29 23:22:32			0	36366	0	0	0	26381	25000	146389	27261	1026896	43176	109772	0	0	8184	616299	0	0
2024-06-29 23:23:32			0	36325	0	0	0	26433	25030	146433	27156	1026903	43158	109792	0	0	8181	617918	0	0
2024-06-29 23:24:32			0	36316	0	0	0	26407	25050	146597	27208	1026769	43149	109782	0	0	8181	618226	0	0
2024-06-29 23:25:32			0	36315	0	0	0	26412	25060	146573	27130	1026795	43127	109784	0	0	8181	618233	0	0
2024-06-29 23:26:32			0	36318	0	0	0	26412	25060	146529	27291	1026759	43126	109784	0	0	8181	618107	0	0
2024-06-29 23:27:32			0	36334	0	0	0	26379	25050	146521	27039	1026715	43126	109771	0	0	8182	617469	0	0
2024-06-29 23:28:32			0	36356	0	0	0	26392	25060	146365	26911	1026795	43127	109776	0	0	8183	616509	0	0
2024-06-29 23:29:32			0	36368	0	0	0	26405	25070	146329	27005	1026777	43139	109781	0	0	8184	615970	0	0
2024-06-29 23:30:32			0	36374	0	0	0	26392	25060	146309	27341	1026715	43127	109776	0	0	8184	615753	0	0
2024-06-29 23:31:32			0	36399	0	0	0	26376	25060	146229	27277	1026661	43116	109770	0	0	8186	614705	0	0
2024-06-29 23:32:32			0	36397	0	0	0	26337	25050	146341	26984	1026510	43093	109755	0	0	8186	614823	0	0
2024-06-29 23:33:32			0	36382	0	0	0	26324	25030	146225	27105	1026466	43125	109750	0	0	8186	615522	0	0
2024-06-29 23:34:32			0	36376	0	0	0	26322	25040	146197	27230	1026510	43114	109749	0	0	8185	615739	0	0
2024-06-29 23:35:32			0	36384	0	0	0	26327	25030	146269	27287	1026573	43135	109751	0	0	8186	615438	0	0
2024-06-29 23:36:32			0	36365	0	0	0	26342	25020	146245	27092	1026538	43113	109757	0	0	8184	616271	0	0
2024-06-29 23:37:32			0	36378	0	0	0	26340	25020	146237	27012	1026511	43113	109756	0	0	8185	615725	0	0
2024-06-29 23:38:32			0	36362	0	0	0	26314	25020	146301	27183	1026377	43101	109746	0	0	8185	616397	0	0
2024-06-29 23:39:32			0	36354	0	0	0	26288	25010	146365	27171	1026244	43100	109736	0	0	8185	616768	0	0
2024-06-29 23:40:32			0	36353	0	0	0	26257	24980	146501	27126	1026120	43053	109724	0	0	8185	616915	0	0
2024-06-29 23:41:32			0	36333	0	0	0	26212	24960	146461	27177	1025925	43084	109707	0	0	8185	617826	0	0
2024-06-29 23:42:32			0	36337	0	0	0	26189	24940	146517	27017	1025837	43071	109698	0	0	8185	617728	0	0
2024-06-29 23:43:32			0	36332	0	0	0	26197	24930	146589	27189	1026034	43092	109701	0	0	8185	617973	0	0
2024-06-29 23:44:32			0	36318	0	0	0	26215	24930	146585	27255	1025998	43091	109708	0	0	8184	618563	0	0
2024-06-29 23:45:32			0	36306	0	0	0	26210	24920	146713	27223	1025936	43102	109706	0	0	8183	619104	0	0
2024-06-29 23:46:32			0	36315	0	0	0	26202	24920	146673	27081	1025847	43081	109703	0	0	8184	618724	0	0
2024-06-29 23:47:32			0	36314	0	0	0	26189	24900	146557	27072	1025856	43056	109698	0	0	8184	618837	0	0
2024-06-29 23:48:32			0	36333	0	0	0	26212	24910	146641	27086	1025972	43102	109707	0	0	8184	618001	0	0
2024-06-29 23:49:32			0	36314	0	0	0	26267	24930	146609	27150	1026292	43136	109728	0	0	8183	618731	0	0
2024-06-29 23:50:32			0	36321	0	0	0	26368	24970	146613	27066	1026576	43140	109767	0	0	8181	618296	0	0
2024-06-29 23:51:32			0	36312	0	0	0	26444	24990	146597	27072	1026834	43153	109796	0	0	8180	618605	0	0
2024-06-29 23:52:32			0	36328	0	0	0	26477	25020	146553	27095	1026850	43123	109809	0	0	8180	617826	0	0
2024-06-29 23:53:32			0	36335	0	0	0	26488	25030	146525	27005	1026787	43125	109813	0	0	8180	617497	0	0
2024-06-29 23:54:32			0	36320	0	0	0	26480	25050	146561	27090	1026742	43137	109810	0	0	8180	618058	0	0
2024-06-29 23:55:32			0	36330	0	0	0	26501	25060	146541	27078	1027036	43138	109818	0	0	8180	617602	0	0
2024-06-29 23:56:32			0	36321	0	0	0	26529	25080	146525	27133	1027035	43139	109829	0	0	8179	617911	0	0
2024-06-29 23:57:32			0	36339	0	0	0	26532	25090	146581	27064	1027141	43142	109830	0	0	8180	617119	0	0
2024-06-29 23:58:32			0	36333	0	0	0	26532	25110	146489	26878	1027194	43143	109830	0	0	8180	617301	0	0
2024-06-29 23:59:32			0	36343	0	0	0	26529	25120	146385	27060	1027238	43122	109829	0	0	8180	616846	0	0
2024-06-30 00:00:32			0	36343	0	0	0	26514	25120	146417	27124	1027078	43122	109823	0	0	8181	616846	0	0
2024-06-30 00:01:32			0	36347	0	0	0	26483	25120	146449	27166	1027051	43111	109811	0	0	8181	616677	0	0
2024-06-30 00:02:32			0	36363	0	0	0	26436	25110	146377	27104	1026793	43077	109793	0	0	8183	616040	0	0
2024-06-30 00:03:32			0	36351	0	0	0	26394	25090	146357	27410	1026651	43075	109777	0	0	8183	616614	0	0
2024-06-30 00:04:32			0	36372	0	0	0	26350	25060	146353	27277	1026420	43083	109760	0	0	8185	615837	0	0
2024-06-30 00:05:32			0	36368	0	0	0	26316	25030	146265	26752	1026306	43069	109747	0	0	8185	616110	0	0
2024-06-30 00:06:32			0	36376	0	0	0	26275	25010	146289	27105	1026137	43066	109731	0	0	8186	615844	0	0
2024-06-30 00:07:32			0	36376	0	0	0	26228	24980	146281	27192	1025960	43042	109713	0	0	8187	615949	0	0
2024-06-30 00:08:32			0	36374	0	0	0	26194	24940	146357	26996	1025828	43038	109700	0	0	8187	616172	0	0
2024-06-30 00:09:32			0	36389	0	0	0	26158	24920	146285	27001	1025579	43047	109686	0	0	8188	615612	0	0
2024-06-30 00:10:32			0	36376	0	0	0	26124	24880	146301	26967	1025492	43032	109673	0	0	8188	616298	0	0
2024-06-30 00:11:32			0	36367	0	0	0	26093	24850	146421	26955	1025288	43041	109661	0	0	8188	616781	0	0
2024-06-30 00:12:32			0	36358	0	0	0	26059	24830	146485	26935	1025084	43039	109648	0	0	8188	617229	0	0
2024-06-30 00:13:32			0	36317	0	0	0	26031	24810	146685	27310	1025156	43047	109637	0	0	8186	619026	0	0
2024-06-30 00:14:32			0	36312	0	0	0	26023	24790	146585	27147	1025130	43056	109634	0	0	8186	619307	0	0
2024-06-30 00:15:32			0	36316	0	0	0	26033	24760	146757	27187	1025078	43055	109638	0	0	8186	619243	0	0
2024-06-30 00:16:32			0	36260	0	0	0	26046	24780	146837	27034	1025184	43078	109643	0	0	8183	621537	0	0
2024-06-30 00:17:32			0	36246	0	0	0	26062	24770	146989	26840	1025194	43099	109649	0	0	8182	622164	0	0
2024-06-30 00:18:32			0	36241	0	0	0	26093	24780	147125	27095	1025354	43101	109661	0	0	8181	622341	0	0
2024-06-30 00:19:32			0	36241	0	0	0	26145	24790	147149	27230	1025657	43112	109681	0	0	8180	622305	0	0
2024-06-30 00:20:32			0	36215	0	0	0	26225	24830	147209	27180	1025914	43138	109712	0	0	8178	623265	0	0
2024-06-30 00:21:32			0	36185	0	0	0	26314	24860	147273	26994	1026153	43140	109746	0	0	8175	624430	0	0
2024-06-30 00:22:32			0	36170	0	0	0	26407	24900	147337	27166	1026445	43156	109782	0	0	8172	624925	0	0
2024-06-30 00:23:32			0	36155	0	0	0	26480	24940	147281	27253	1026658	43137	109810	0	0	8171	625420	0	0
2024-06-30 00:24:32			0	36168	0	0	0	26511	24980	147209	27213	1026870	43142	109822	0	0	8171	624726	0	0
2024-06-30 00:25:32			0	36187	0	0	0	26561	25010	147265	26979	1026994	43144	109841	0	0	8171	623815	0	0
2024-06-30 00:26:32			0	36189	0	0	0	26586	25040	147213	27481	1027108	43148	109851	0	0	8171	623624	0	0
2024-06-30 00:27:32			0	36202	0	0	0	26605	25060	147105	26899	1027197	43161	109858	0	0	8172	623003	0	0
2024-06-30 00:28:32			0	36219	0	0	0	26625	25090	147153	27185	1027275	43153	109866	0	0	8172	622178	0	0
2024-06-30 00:29:32			0	36236	0	0	0	26633	25110	147109	26935	1027310	43144	109869	0	0	8173	621389	0	0
2024-06-30 00:30:32			0	36231	0	0	0	26633	25120	147057	27081	1027292	43155	109869	0	0	8173	621565	0	0
2024-06-30 00:31:32			0	36222	0	0	0	26631	25130	147077	27164	1027390	43145	109868	0	0	8172	621910	0	0
2024-06-30 00:32:32			0	36221	0	0	0	26628	25150	147009	27268	1027397	43135	109867	0	0	8173	621881	0	0
2024-06-30 00:33:32			0	36219	0	0	0	26605	25150	146901	27024	1027406	43136	109858	0	0	8173	621966	0	0
2024-06-30 00:34:32			0	36227	0	0	0	26584	25140	146985	27223	1027335	43146	109850	0	0	8174	621663	0	0
2024-06-30 00:35:32			0	36221	0	0	0	26561	25150	147041	27008	1027264	43125	109841	0	0	8174	621881	0	0
2024-06-30 00:36:32			0	36218	0	0	0	26540	25150	146921	27003	1027156	43125	109833	0	0	8174	622008	0	0
2024-06-30 00:37:32			0	36214	0	0	0	26524	25140	147009	27031	1027175	43124	109827	0	0	8174	622213	0	0
2024-06-30 00:38:32			0	36200	0	0	0	26503	25140	147113	27055	1027139	43124	109819	0	0	8173	622805	0	0
2024-06-30 00:39:32			0	36188	0	0	0	26485	25140	147077	27057	1027139	43124	109812	0	0	8173	623313	0	0
2024-06-30 00:40:32			0	36182	0	0	0	26485	25130	147129	27147	1027104	43146	109812	0	0	8173	623602	0	0
2024-06-30 00:41:32			0	36174	0	0	0	26503	25130	147197	26875	1027149	43133	109819	0	0	8172	623941	0	0
2024-06-30 00:42:32			0	36151	0	0	0	26503	25140	147161	26975	1027273	43124	109819	0	0	8171	624880	0	0
2024-06-30 00:43:32			0	36147	0	0	0	26506	25130	147269	27033	1027157	43124	109820	0	0	8171	625085	0	0
2024-06-30 00:44:32			0	36123	0	0	0	26498	25140	147281	26896	1027201	43124	109817	0	0	8169	626068	0	0
2024-06-30 00:45:32			0	36136	0	0	0	26498	25150	147313	27255	1027156	43135	109817	0	0	8170	625481	0	0
2024-06-30 00:46:32			0	36114	0	0	0	26483	25150	147405	27145	1027165	43114	109811	0	0	8169	626415	0	0
2024-06-30 00:47:32			0	36081	0	0	0	26467	25140	147293	27348	1027005	43124	109805	0	0	8168	627853	0	0
2024-06-30 00:48:32			0	36111	0	0	0	26464	25120	147445	27261	1027060	43111	109804	0	0	8169	626649	0	0
2024-06-30 00:49:32			0	36101	0	0	0	26438	25120	147557	27268	1026944	43122	109794	0	0	8169	627074	0	0
2024-06-30 00:50:32			0	36083	0	0	0	26436	25110	147457	27215	1026900	43121	109793	0	0	8168	627875	0	0
2024-06-30 00:51:32			0	36065	0	0	0	26425	25100	147581	26849	1026775	43131	109789	0	0	8167	628677	0	0
2024-06-30 00:52:32			0	36077	0	0	0	26410	25090	147557	27291	1026785	43119	109783	0	0	8168	628202	0	0
2024-06-30 00:53:32			0	36068	0	0	0	26410	25090	147617	27078	1026758	43130	109783	0	0	8168	628585	0	0
2024-06-30 00:54:32			0	36069	0	0	0	26405	25070	147581	27351	1026732	43106	109781	0	0	8168	628614	0	0
2024-06-30 00:55:32			0	36059	0	0	0	26405	25060	147585	27213	1026661	43105	109781	0	0	8167	629076	0	0
2024-06-30 00:56:32			0	36053	0	0	0	26379	25060	147633	27140	1026492	43082	109771	0	0	8167	629331	0	0
2024-06-30 00:57:32			0	36035	0	0	0	26350	25020	147689	27327	1026404	43101	109760	0	0	8167	630242	0	0
2024-06-30 00:58:32			0	36055	0	0	0	26348	25040	147697	27201	1026510	43102	109759	0	0	8168	629317	0	0
2024-06-30 00:59:32			0	36055	0	0	0	26342	25020	147661	27277	1026377	43101	109757	0	0	8168	629389	0	0
2024-06-30 01:00:32			0	36044	0	0	0	26345	25010	147773	27274	1026431	43122	109758	0	0	8167	629894	0	0
2024-06-30 01:01:32			0	36036	0	0	0	26327	25000	147761	27261	1026423	43122	109751	0	0	8167	630271	0	0
2024-06-30 01:02:32			0	36027	0	0	0	26324	24990	147793	27031	1026378	43109	109750	0	0	8167	630691	0	0
2024-06-30 01:03:32			0	36038	0	0	0	26327	24990	147753	27268	1026397	43109	109751	0	0	8167	630221	0	0
2024-06-30 01:04:32			0	36048	0	0	0	26329	24990	147877	27031	1026397	43120	109752	0	0	8168	629794	0	0
2024-06-30 01:05:32			0	36019	0	0	0	26322	24990	147701	26878	1026316	43109	109749	0	0	8166	631032	0	0
2024-06-30 01:06:32			0	36028	0	0	0	26327	24970	147781	27144	1026290	43118	109751	0	0	8167	630719	0	0
2024-06-30 01:07:32			0	36023	0	0	0	26303	24960	147885	27235	1026166	43107	109742	0	0	8167	630969	0	0
2024-06-30 01:08:32			0	36021	0	0	0	26285	24960	147929	27168	1026211	43106	109735	0	0	8167	631054	0	0
2024-06-30 01:09:32			0	36013	0	0	0	26283	24950	147937	27093	1026149	43105	109734	0	0	8166	631432	0	0
2024-06-30 01:10:32			0	36018	0	0	0	26285	24950	147929	27178	1026220	43116	109735	0	0	8167	631218	0	0
2024-06-30 01:11:32			0	36027	0	0	0	26293	24940	147829	27079	1026158	43126	109738	0	0	8167	630869	0	0
2024-06-30 01:12:32			0	36014	0	0	0	26283	24940	147945	27163	1026069	43116	109734	0	0	8166	631425	0	0
2024-06-30 01:13:32			0	36003	0	0	0	26270	24940	147873	27415	1025989	43093	109729	0	0	8166	631895	0	0
2024-06-30 01:14:32			0	35998	0	0	0	26244	24920	148029	26944	1025927	43081	109719	0	0	8166	632180	0	0
2024-06-30 01:15:32			0	36027	0	0	0	26246	24900	147969	27046	1025990	43112	109720	0	0	8168	631012	0	0
2024-06-30 01:16:32			0	35992	0	0	0	26249	24900	147993	27270	1025963	43112	109721	0	0	8166	632509	0	0
2024-06-30 01:17:32			0	36012	0	0	0	26246	24900	147969	27286	1025955	43112	109720	0	0	8167	631653	0	0
2024-06-30 01:18:32			0	36011	0	0	0	26259	24900	148037	27483	1026035	43123	109725	0	0	8167	631696	0	0
2024-06-30 01:19:32			0	36008	0	0	0	26275	24920	148025	26981	1026221	43147	109731	0	0	8166	631753	0	0
2024-06-30 01:20:32			0	36007	0	0	0	26283	24920	148037	27152	1026177	43136	109734	0	0	8166	631795	0	0
2024-06-30 01:21:32			0	36007	0	0	0	26301	24940	148053	27203	1026310	43137	109741	0	0	8166	631724	0	0
2024-06-30 01:22:32			0	36002	0	0	0	26324	24940	148041	27357	1026452	43137	109750	0	0	8165	631938	0	0
2024-06-30 01:23:32			0	35997	0	0	0	26353	24970	147969	26967	1026478	43129	109761	0	0	8165	632044	0	0
2024-06-30 01:24:32			0	36014	0	0	0	26371	24960	148005	27279	1026478	43139	109768	0	0	8165	631353	0	0
2024-06-30 01:25:32			0	35992	0	0	0	26402	24980	148013	26916	1026549	43120	109780	0	0	8163	632222	0	0
2024-06-30 01:26:32			0	36000	0	0	0	26407	24990	148001	26762	1026557	43131	109782	0	0	8164	631844	0	0
2024-06-30 01:27:32			0	35983	0	0	0	26415	25000	147957	27293	1026583	43122	109785	0	0	8163	632535	0	0
2024-06-30 01:28:32			0	35992	0	0	0	26420	25000	148045	27156	1026601	43121	109787	0	0	8163	632150	0	0
2024-06-30 01:29:32			0	35995	0	0	0	26420	25000	147941	27213	1026610	43133	109787	0	0	8163	632022	0	0
2024-06-30 01:30:32			0	36013	0	0	0	26420	25000	147953	27185	1026583	43122	109787	0	0	8164	631253	0	0
2024-06-30 01:31:32			0	36012	0	0	0	26407	25010	147993	27194	1026574	43122	109782	0	0	8165	631260	0	0
2024-06-30 01:32:32			0	36006	0	0	0	26399	25020	147973	26765	1026609	43123	109779	0	0	8164	631480	0	0
2024-06-30 01:33:32			0	36012	0	0	0	26397	25000	147897	27249	1026530	43122	109778	0	0	8165	631295	0	0
2024-06-30 01:34:32			0	36004	0	0	0	26379	25000	147917	26958	1026530	43133	109771	0	0	8165	631637	0	0
2024-06-30 01:35:32			0	36011	0	0	0	26379	25000	147893	27163	1026494	43110	109771	0	0	8165	631338	0	0
2024-06-30 01:36:32			0	36018	0	0	0	26373	25000	147869	27104	1026521	43121	109769	0	0	8165	631039	0	0
2024-06-30 01:37:32			0	36025	0	0	0	26368	25000	147857	27253	1026476	43122	109767	0	0	8166	630740	0	0
2024-06-30 01:38:32			0	36003	0	0	0	26371	25000	147817	26625	1026583	43144	109768	0	0	8165	631680	0	0
2024-06-30 01:39:32			0	36035	0	0	0	26389	24990	147881	26953	1026566	43131	109775	0	0	8166	630349	0	0
2024-06-30 01:40:32			0	36018	0	0	0	26392	25010	147749	27237	1026547	43133	109776	0	0	8165	631003	0	0
2024-06-30 01:41:32			0	36018	0	0	0	26366	25010	147861	27015	1026440	43122	109766	0	0	8166	631003	0	0
2024-06-30 01:42:32			0	36016	0	0	0	26358	25000	147849	27144	1026423	43111	109763	0	0	8166	631125	0	0
2024-06-30 01:43:32			0	36024	0	0	0	26353	24990	147865	27234	1026459	43120	109761	0	0	8166	630819	0	0
2024-06-30 01:44:32			0	36030	0	0	0	26340	24980	147769	27133	1026308	43098	109756	0	0	8167	630598	0	0
2024-06-30 01:45:32			0	36022	0	0	0	26316	24980	147773	27315	1026245	43108	109747	0	0	8167	630940	0	0
2024-06-30 01:46:32			0	36031	0	0	0	26311	24960	147817	27216	1026219	43107	109745	0	0	8167	630627	0	0
2024-06-30 01:47:32			0	36046	0	0	0	26293	24950	147861	27215	1026086	43093	109738	0	0	8168	630022	0	0
2024-06-30 01:48:32			0	36031	0	0	0	26270	24940	147777	27147	1026042	43093	109729	0	0	8168	630699	0	0
2024-06-30 01:49:32			0	36040	0	0	0	26262	24930	147861	26826	1026114	43115	109726	0	0	8168	630350	0	0
2024-06-30 01:50:32			0	36038	0	0	0	26270	24930	147877	27170	1026114	43136	109729	0	0	8168	630436	0	0
2024-06-30 01:51:32			0	36046	0	0	0	26277	24920	147833	26885	1026150	43114	109732	0	0	8168	630130	0	0
2024-06-30 01:52:32			0	36025	0	0	0	26262	24920	147897	26935	1026016	43114	109726	0	0	8167	631026	0	0
2024-06-30 01:53:32			0	36019	0	0	0	26251	24920	147929	27156	1025989	43102	109722	0	0	8167	631282	0	0
2024-06-30 01:54:32			0	36034	0	0	0	26233	24900	147869	26975	1025936	43112	109715	0	0	8168	630713	0	0
2024-06-30 01:55:32			0	36004	0	0	0	26218	24900	147877	26873	1025821	43112	109709	0	0	8167	631995	0	0
2024-06-30 01:56:32			0	36021	0	0	0	26202	24880	147977	27013	1025795	43077	109703	0	0	8168	631340	0	0
2024-06-30 01:57:32			0	36025	0	0	0	26181	24860	147929	27185	1025680	43108	109695	0	0	8168	631241	0	0
2024-06-30 01:58:32			0	36012	0	0	0	26168	24850	147921	27265	1025609	43085	109690	0	0	8168	631832	0	0
2024-06-30 01:59:32			0	36002	0	0	0	26158	24840	147917	26677	1025511	43084	109686	0	0	8168	632296	0	0
2024-06-30 02:00:32			0	36007	0	0	0	26137	24840	147929	27088	1025529	43083	109678	0	0	8168	632082	0	0
2024-06-30 02:01:32			0	36001	0	0	0	26135	24820	148029	27152	1025441	43092	109677	0	0	8168	632410	0	0
2024-06-30 02:02:32			0	36002	0	0	0	26119	24820	147929	26701	1025548	43092	109671	0	0	8168	632368	0	0
2024-06-30 02:03:32			0	36001	0	0	0	26119	24810	147993	26844	1025459	43104	109671	0	0	8168	632446	0	0
2024-06-30 02:04:32			0	35995	0	0	0	26103	24810	148013	27168	1025370	43091	109665	0	0	8168	632703	0	0
2024-06-30 02:05:32			0	35997	0	0	0	26088	24800	148033	27055	1025353	43080	109659	0	0	8168	632653	0	0
2024-06-30 02:06:32			0	36001	0	0	0	26072	24780	148121	27284	1025247	43079	109653	0	0	8169	632554	0	0
2024-06-30 02:07:32			0	35991	0	0	0	26075	24770	148165	26870	1025256	43088	109654	0	0	8168	633017	0	0
2024-06-30 02:08:32			0	35989	0	0	0	26057	24770	148169	26908	1025140	43088	109647	0	0	8168	633103	0	0
2024-06-30 02:09:32			0	35993	0	0	0	26049	24760	148241	27189	1025150	43087	109644	0	0	8169	632968	0	0
2024-06-30 02:10:32			0	35961	0	0	0	26038	24740	148161	26941	1025062	43074	109640	0	0	8167	634411	0	0
2024-06-30 02:11:32			0	35970	0	0	0	26033	24720	148217	27059	1024955	43073	109638	0	0	8167	634097	0	0
2024-06-30 02:12:32			0	35965	0	0	0	26020	24710	148217	26828	1024938	43060	109633	0	0	8167	634347	0	0
2024-06-30 02:13:32			0	35961	0	0	0	26010	24700	148273	27020	1024894	43071	109629	0	0	8167	634554	0	0
2024-06-30 02:14:32			0	35967	0	0	0	25999	24700	148301	26996	1024832	43059	109625	0	0	8168	634297	0	0
2024-06-30 02:15:32			0	35953	0	0	0	25989	24680	148489	27249	1024752	43069	109621	0	0	8167	634970	0	0
2024-06-30 02:16:32			0	35938	0	0	0	25986	24670	148333	26837	1024681	43057	109620	0	0	8166	635650	0	0
2024-06-30 02:17:32			0	35934	0	0	0	25973	24650	148469	26981	1024673	43077	109615	0	0	8166	635894	0	0
2024-06-30 02:18:32			0	35939	0	0	0	25971	24650	148393	27170	1024673	43077	109614	0	0	8166	635679	0	0
2024-06-30 02:19:32			0	35897	0	0	0	25973	24650	148461	27329	1024665	43076	109615	0	0	8164	637485	0	0
2024-06-30 02:20:32			0	35912	0	0	0	25966	24650	148601	27066	1024611	43087	109612	0	0	8165	636839	0	0
2024-06-30 02:21:32			0	35901	0	0	0	25966	24640	148585	26840	1024594	43064	109612	0	0	8165	637349	0	0
2024-06-30 02:22:32			0	35899	0	0	0	25958	24630	148673	27220	1024550	43074	109609	0	0	8165	637471	0	0
2024-06-30 02:23:32			0	35860	0	0	0	25961	24620	148689	27256	1024595	43085	109610	0	0	8162	639187	0	0
2024-06-30 02:24:32			0	35855	0	0	0	25955	24600	148728	27156	1024408	43073	109608	0	0	8162	639475	0	0
2024-06-30 02:25:32			0	35844	0	0	0	25948	24600	148824	26826	1024426	43072	109605	0	0	8162	639950	0	0
2024-06-30 02:26:32			0	35849	0	0	0	25929	24600	148968	27022	1024373	43072	109598	0	0	8162	639734	0	0
2024-06-30 02:27:32			0	35827	0	0	0	25919	24570	148960	26930	1024383	43070	109594	0	0	8161	640793	0	0
2024-06-30 02:28:32			0	35822	0	0	0	25914	24560	148968	27204	1024339	43068	109592	0	0	8161	641045	0	0
2024-06-30 02:29:32			0	35797	0	0	0	25906	24560	149056	27041	1024312	43068	109589	0	0	8160	642126	0	0
2024-06-30 02:30:32			0	35798	0	0	0	25893	24570	149132	27173	1024214	43069	109584	0	0	8160	642047	0	0
2024-06-30 02:31:32			0	35765	0	0	0	25883	24540	149204	27126	1024028	43043	109580	0	0	8158	643585	0	0
2024-06-30 02:32:32			0	35781	0	0	0	25864	24540	149316	26819	1024081	43055	109573	0	0	8159	642892	0	0
2024-06-30 02:33:32			0	35768	0	0	0	25854	24520	149276	27319	1024002	43053	109569	0	0	8159	643528	0	0
2024-06-30 02:34:32			0	35722	0	0	0	25844	24510	149480	27071	1023976	43075	109565	0	0	8156	645561	0	0
2024-06-30 02:35:32			0	35717	0	0	0	25833	24500	149536	27223	1023986	43050	109561	0	0	8156	645814	0	0
2024-06-30 02:36:32			0	35720	0	0	0	25818	24480	149528	26944	1023906	43049	109555	0	0	8157	645757	0	0
2024-06-30 02:37:32			0	35690	0	0	0	25820	24490	149648	27121	1023915	43050	109556	0	0	8155	647025	0	0
2024-06-30 02:38:32			0	35655	0	0	0	25818	24470	149800	27019	1023916	43060	109555	0	0	8153	648623	0	0
2024-06-30 02:39:32			0	35647	0	0	0	25820	24470	149804	27230	1023889	43060	109556	0	0	8153	648972	0	0
2024-06-30 02:40:32			0	35632	0	0	0	25810	24460	149968	26819	1023791	43047	109552	0	0	8152	649663	0	0
2024-06-30 02:41:32			0	35634	0	0	0	25807	24460	149844	27034	1023783	43069	109551	0	0	8152	649576	0	0
2024-06-30 02:42:32			0	35603	0	0	0	25818	24450	150056	27256	1023721	43069	109555	0	0	8150	650966	0	0
2024-06-30 02:43:32			0	35596	0	0	0	25807	24450	150104	26920	1023774	43058	109551	0	0	8150	651272	0	0
2024-06-30 02:44:32			0	35576	0	0	0	25799	24440	150132	27196	1023668	43056	109548	0	0	8149	652184	0	0
2024-06-30 02:45:32			0	35559	0	0	0	25792	24430	150128	26970	1023704	43066	109545	0	0	8148	652966	0	0
2024-06-30 02:46:32			0	35553	0	0	0	25784	24420	150192	27152	1023633	43054	109542	0	0	8148	653265	0	0
2024-06-30 02:47:32			0	35538	0	0	0	25768	24420	150152	27268	1023561	43044	109536	0	0	8148	653923	0	0
2024-06-30 02:48:32			0	35545	0	0	0	25774	24410	150296	27190	1023517	43064	109538	0	0	8148	653653	0	0
2024-06-30 02:49:32			0	35521	0	0	0	25768	24400	150400	27279	1023473	43053	109536	0	0	8147	654743	0	0
2024-06-30 02:50:32			0	35521	0	0	0	25753	24400	150436	27038	1023491	43063	109530	0	0	8147	654743	0	0
2024-06-30 02:51:32			0	35513	0	0	0	25742	24390	150500	27365	1023376	43063	109526	0	0	8146	655131	0	0
2024-06-30 02:52:32			0	35488	0	0	0	25729	24390	150560	26830	1023429	43051	109521	0	0	8145	656230	0	0
2024-06-30 02:53:32			0	35502	0	0	0	25724	24370	150588	27017	1023314	43049	109519	0	0	8146	655689	0	0
2024-06-30 02:54:32			0	35469	0	0	0	25703	24370	150688	27057	1023341	43049	109511	0	0	8145	657140	0	0
2024-06-30 02:55:32			0	35454	0	0	0	25690	24360	150656	27064	1023217	43048	109506	0	0	8144	657838	0	0
2024-06-30 02:56:32			0	35446	0	0	0	25659	24340	150680	27092	1023209	43047	109494	0	0	8144	658265	0	0
2024-06-30 02:57:32			0	35419	0	0	0	25641	24330	150732	26909	1023005	43035	109487	0	0	8143	659493	0	0
2024-06-30 02:58:32			0	35420	0	0	0	25618	24310	150872	26776	1022917	43011	109478	0	0	8143	659523	0	0
2024-06-30 02:59:32			0	35418	0	0	0	25594	24290	150888	26811	1022855	43032	109469	0	0	8143	659686	0	0
2024-06-30 03:00:32			0	35395	0	0	0	25566	24270	150960	27142	1022722	43041	109458	0	0	8143	660776	0	0
2024-06-30 03:01:32			0	35401	0	0	0	25550	24230	151004	26897	1022519	43015	109452	0	0	8143	660660	0	0
2024-06-30 03:02:32			0	35384	0	0	0	25511	24200	151132	27064	1022414	43012	109437	0	0	8143	661524	0	0
2024-06-30 03:03:32			0	35347	0	0	0	25485	24190	151140	27043	1022361	43000	109427	0	0	8141	663200	0	0
2024-06-30 03:04:32			0	35342	0	0	0	25449	24160	151280	27220	1022157	42997	109413	0	0	8141	663534	0	0
2024-06-30 03:05:32			0	35321	0	0	0	25420	24150	151292	26807	1022086	42985	109402	0	0	8141	664504	0	0
2024-06-30 03:06:32			0	35315	0	0	0	25389	24120	151524	27171	1021999	42993	109390	0	0	8141	664883	0	0
2024-06-30 03:07:32			0	35290	0	0	0	25386	24100	151592	27178	1022054	42991	109389	0	0	8139	666069	0	0
2024-06-30 03:08:32			0	35271	0	0	0	25405	24100	151664	27173	1022072	43023	109396	0	0	8138	666914	0	0
2024-06-30 03:09:32			0	35252	0	0	0	25436	24110	151728	27284	1022365	43047	109408	0	0	8136	667723	0	0
2024-06-30 03:10:32			0	35237	0	0	0	25496	24130	151732	26847	1022391	43059	109431	0	0	8135	668316	0	0
2024-06-30 03:11:32			0	35228	0	0	0	25514	24150	151844	27147	1022479	43062	109438	0	0	8134	668642	0	0
2024-06-30 03:12:32			0	35228	0	0	0	25542	24140	151900	27031	1022604	43039	109449	0	0	8133	668680	0	0
2024-06-30 03:13:32			0	35191	0	0	0	25592	24180	151916	27033	1022985	43076	109468	0	0	8131	670180	0	0
2024-06-30 03:14:32			0	35199	0	0	0	25659	24220	152036	27085	1023215	43101	109494	0	0	8130	669672	0	0
2024-06-30 03:15:32			0	35176	0	0	0	25703	24250	151956	27265	1023222	43083	109511	0	0	8128	670586	0	0
2024-06-30 03:16:32			0	35170	0	0	0	25716	24270	151992	27263	1023230	43063	109516	0	0	8128	670778	0	0
2024-06-30 03:17:32			0	35168	0	0	0	25706	24270	152040	27211	1023168	43051	109512	0	0	8128	670867	0	0
2024-06-30 03:18:32			0	35134	0	0	0	25706	24280	152096	27022	1023158	43063	109512	0	0	8126	672351	0	0
2024-06-30 03:19:32			0	35157	0	0	0	25696	24270	152028	26870	1023123	43051	109508	0	0	8128	671359	0	0
2024-06-30 03:20:32			0	35135	0	0	0	25693	24280	152008	27024	1023132	43051	109507	0	0	8126	672306	0	0
2024-06-30 03:21:32			0	35126	0	0	0	25690	24290	152096	27215	1023238	43053	109506	0	0	8126	672671	0	0
2024-06-30 03:22:32			0	35115	0	0	0	25696	24300	152111	27218	1023282	43054	109508	0	0	8125	673126	0	0
2024-06-30 03:23:32			0	35104	0	0	0	25724	24300	152135	27144	1023354	43076	109519	0	0	8124	673619	0	0
2024-06-30 03:24:32			0	35094	0	0	0	25763	24330	152087	26769	1023566	43080	109534	0	0	8123	673953	0	0
2024-06-30 03:25:32			0	35104	0	0	0	25799	24350	152151	27222	1023628	43081	109548	0	0	8123	673428	0	0
2024-06-30 03:26:32			0	35106	0	0	0	25849	24370	152203	26982	1023796	43094	109567	0	0	8123	673263	0	0
2024-06-30 03:27:32			0	35089	0	0	0	25862	24400	152139	27036	1023839	43063	109572	0	0	8122	673911	0	0
2024-06-30 03:28:32			0	35101	0	0	0	25870	24400	152223	27235	1023821	43076	109575	0	0	8122	673373	0	0
2024-06-30 03:29:32			0	35090	0	0	0	25862	24420	152251	27279	1023847	43077	109572	0	0	8122	673790	0	0
2024-06-30 03:30:32			0	35075	0	0	0	25851	24410	152223	27154	1023812	43064	109568	0	0	8121	674501	0	0
2024-06-30 03:31:32			0	35086	0	0	0	25833	24410	152275	27149	1023678	43053	109561	0	0	8122	674007	0	0
2024-06-30 03:32:32			0	35072	0	0	0	25792	24400	152199	27208	1023661	43053	109545	0	0	8122	674673	0	0
2024-06-30 03:33:32			0	35069	0	0	0	25789	24400	152263	26915	1023554	43064	109544	0	0	8122	674808	0	0
2024-06-30 03:34:32			0	35086	0	0	0	25789	24400	152235	27045	1023687	43064	109544	0	0	8123	674045	0	0
2024-06-30 03:35:32			0	35066	0	0	0	25781	24400	152295	27019	1023580	43076	109541	0	0	8122	674943	0	0
2024-06-30 03:36:32			0	35077	0	0	0	25786	24410	152347	27111	1023696	43053	109543	0	0	8122	674411	0	0
2024-06-30 03:37:32			0	35073	0	0	0	25792	24410	152295	27327	1023642	43064	109545	0	0	8122	674590	0	0
2024-06-30 03:38:32			0	35061	0	0	0	25792	24400	152335	27116	1023687	43086	109545	0	0	8121	675167	0	0
2024-06-30 03:39:32			0	35052	0	0	0	25792	24400	152403	27307	1023580	43064	109545	0	0	8121	675572	0	0
2024-06-30 03:40:32			0	35057	0	0	0	25789	24410	152291	27192	1023571	43053	109544	0	0	8121	675309	0	0
2024-06-30 03:41:32			0	35054	0	0	0	25786	24400	152379	27079	1023661	43053	109543	0	0	8121	675482	0	0
2024-06-30 03:42:32			0	35052	0	0	0	25779	24390	152367	27192	1023510	43063	109540	0	0	8121	675610	0	0
2024-06-30 03:43:32			0	35051	0	0	0	25776	24400	152359	27126	1023545	43063	109539	0	0	8121	675616	0	0
2024-06-30 03:44:32			0	35045	0	0	0	25755	24380	152415	26875	1023510	43050	109531	0	0	8121	675962	0	0
2024-06-30 03:45:32			0	35037	0	0	0	25755	24380	152447	27041	1023484	43050	109531	0	0	8121	676322	0	0
2024-06-30 03:46:32			0	35043	0	0	0	25737	24370	152467	27201	1023421	43039	109524	0	0	8121	676091	0	0
2024-06-30 03:47:32			0	35045	0	0	0	25724	24360	152495	27220	1023377	43038	109519	0	0	8121	676039	0	0
2024-06-30 03:48:32			0	35036	0	0	0	25716	24360	152511	27048	1023431	43060	109516	0	0	8121	676443	0	0
2024-06-30 03:49:32			0	35030	0	0	0	25729	24360	152531	27227	1023396	43060	109521	0	0	8120	676713	0	0
2024-06-30 03:50:32			0	35026	0	0	0	25727	24360	152539	27454	1023404	43048	109520	0	0	8120	676893	0	0
2024-06-30 03:51:32			0	35025	0	0	0	25732	24360	152583	27410	1023431	43048	109522	0	0	8120	676938	0	0
2024-06-30 03:52:32			0	35034	0	0	0	25737	24360	152451	27512	1023396	43048	109524	0	0	8121	676533	0	0
2024-06-30 03:53:32			0	35033	0	0	0	25727	24360	152583	27568	1023377	43060	109520	0	0	8121	676578	0	0
2024-06-30 03:54:32			0	35014	0	0	0	25735	24360	152591	27479	1023396	43048	109523	0	0	8120	677433	0	0
2024-06-30 03:55:32			0	35014	0	0	0	25719	24340	152567	27556	1023316	43047	109517	0	0	8120	677510	0	0
2024-06-30 03:56:32			0	35016	0	0	0	25727	24350	152507	27357	1023333	43059	109520	0	0	8120	677382	0	0
2024-06-30 03:57:32			0	35011	0	0	0	25724	24340	152595	27319	1023263	43069	109519	0	0	8119	677645	0	0
2024-06-30 03:58:32			0	34996	0	0	0	25706	24340	152587	27415	1023289	43058	109512	0	0	8119	678321	0	0
2024-06-30 03:59:32			0	35005	0	0	0	25696	24330	152627	27431	1023245	43057	109508	0	0	8120	677954	0	0
2024-06-30 04:00:32			0	34997	0	0	0	25703	24330	152699	27403	1023237	43034	109511	0	0	8119	678314	0	0
2024-06-30 04:01:32			0	35007	0	0	0	25683	24320	152683	27415	1023201	43034	109503	0	0	8120	677902	0	0
2024-06-30 04:02:32			0	35001	0	0	0	25680	24300	152679	27190	1023122	43032	109502	0	0	8119	678249	0	0
2024-06-30 04:03:32			0	35010	0	0	0	25670	24300	152631	27345	1023068	43032	109498	0	0	8120	677843	0	0
2024-06-30 04:04:32			0	34992	0	0	0	25662	24290	152687	27107	1023024	43042	109495	0	0	8119	678693	0	0
2024-06-30 04:05:32			0	34993	0	0	0	25641	24280	152631	27119	1022953	43041	109487	0	0	8120	678686	0	0
2024-06-30 04:06:32			0	34986	0	0	0	25623	24260	152731	27409	1022856	43028	109480	0	0	8119	679078	0	0
2024-06-30 04:07:32			0	35000	0	0	0	25602	24240	152655	27327	1022742	43037	109472	0	0	8120	678524	0	0
2024-06-30 04:08:32			0	34993	0	0	0	25584	24240	152747	27239	1022688	43026	109465	0	0	8120	678839	0	0
2024-06-30 04:09:32			0	34986	0	0	0	25558	24230	152711	27355	1022671	43025	109455	0	0	8120	679193	0	0
2024-06-30 04:10:32			0	34992	0	0	0	25548	24220	152839	27206	1022654	43035	109451	0	0	8121	678961	0	0
2024-06-30 04:11:32			0	35000	0	0	0	25542	24210	152791	27414	1022663	43035	109449	0	0	8121	678639	0	0
2024-06-30 04:12:32			0	34980	0	0	0	25545	24200	152783	27147	1022654	43035	109450	0	0	8120	679579	0	0
2024-06-30 04:13:32			0	34995	0	0	0	25532	24200	152739	27268	1022539	43034	109445	0	0	8121	678902	0	0
2024-06-30 04:14:32			0	34986	0	0	0	25516	24180	152759	27355	1022379	43021	109439	0	0	8121	679385	0	0
2024-06-30 04:15:32			0	34994	0	0	0	25477	24150	152823	27154	1022274	43006	109424	0	0	8122	679139	0	0
2024-06-30 04:16:32			0	34987	0	0	0	25451	24150	152859	27180	1022185	43018	109414	0	0	8122	679455	0	0
2024-06-30 04:17:32			0	34984	0	0	0	25433	24120	152715	27254	1022088	43026	109407	0	0	8122	679705	0	0
2024-06-30 04:18:32			0	34979	0	0	0	25402	24100	152887	27310	1021973	43002	109395	0	0	8122	680008	0	0
2024-06-30 04:19:32			0	34974	0	0	0	25376	24090	152867	27145	1021921	42989	109385	0	0	8122	680272	0	0
2024-06-30 04:20:32			0	34977	0	0	0	25361	24070	152951	27341	1021779	42988	109379	0	0	8122	680213	0	0
2024-06-30 04:21:32			0	34965	0	0	0	25329	24030	152907	27147	1021674	43006	109367	0	0	8122	680909	0	0
2024-06-30 04:22:32			0	34977	0	0	0	25324	24020	152967	27100	1021576	43005	109365	0	0	8123	680405	0	0
2024-06-30 04:23:32			0	34967	0	0	0	25303	24000	153027	27438	1021515	43004	109357	0	0	8123	680934	0	0
2024-06-30 04:24:32			0	34963	0	0	0	25285	23980	153059	27395	1021427	42990	109350	0	0	8123	681192	0	0
2024-06-30 04:25:32			0	34969	0	0	0	25272	23970	153055	27538	1021321	43011	109345	0	0	8123	680959	0	0
2024-06-30 04:26:32			0	34973	0	0	0	25254	23960	153091	26904	1021286	43010	109338	0	0	8124	680816	0	0
2024-06-30 04:27:32			0	34962	0	0	0	25249	23950	153019	27312	1021260	43009	109336	0	0	8123	681352	0	0
2024-06-30 04:28:32			0	34947	0	0	0	25236	23930	153135	27133	1021260	43007	109331	0	0	8122	682108	0	0
2024-06-30 04:29:32			0	34957	0	0	0	25228	23910	153143	27279	1021172	43006	109328	0	0	8123	681732	0	0
2024-06-30 04:30:32			0	34957	0	0	0	25228	23910	153143	27180	1021119	43006	109328	0	0	8123	681732	0	0
2024-06-30 04:31:32			0	34953	0	0	0	25215	23900	153179	27334	1021128	42994	109323	0	0	8123	681952	0	0
2024-06-30 04:32:32			0	34947	0	0	0	25215	23900	153087	27209	1021066	43004	109323	0	0	8123	682223	0	0
2024-06-30 04:33:32			0	34943	0	0	0	25207	23880	153143	27216	1021032	42991	109320	0	0	8122	682481	0	0
2024-06-30 04:34:32			0	34932	0	0	0	25197	23870	153231	27305	1020943	43002	109316	0	0	8122	683018	0	0
2024-06-30 04:35:32			0	34955	0	0	0	25192	23870	153083	27268	1020961	43002	109314	0	0	8123	681976	0	0
2024-06-30 04:36:32			0	34933	0	0	0	25176	23860	153191	27173	1021006	43012	109308	0	0	8122	683012	0	0
2024-06-30 04:37:32			0	34927	0	0	0	25189	23860	153251	27390	1021077	43000	109313	0	0	8122	683284	0	0
2024-06-30 04:38:32			0	34932	0	0	0	25202	23860	153275	27211	1021033	43012	109318	0	0	8122	683057	0	0
2024-06-30 04:39:32			0	34930	0	0	0	25199	23870	153243	27251	1021050	43013	109317	0	0	8122	683109	0	0
2024-06-30 04:40:32			0	34929	0	0	0	25199	23870	153271	27199	1021095	43013	109317	0	0	8122	683154	0	0
2024-06-30 04:41:32			0	34929	0	0	0	25199	23860	153239	27412	1021024	43011	109317	0	0	8122	683193	0	0
2024-06-30 04:42:32			0	34922	0	0	0	25194	23860	153335	27339	1021024	43000	109315	0	0	8121	683510	0	0
2024-06-30 04:43:32			0	34927	0	0	0	25205	23870	153263	27241	1021077	43002	109319	0	0	8121	683245	0	0
2024-06-30 04:44:32			0	34926	0	0	0	25236	23860	153259	27237	1021211	43023	109331	0	0	8121	683329	0	0
2024-06-30 04:45:32			0	34925	0	0	0	25249	23870	153259	27454	1021210	43024	109336	0	0	8121	683336	0	0
2024-06-30 04:46:32			0	34908	0	0	0	25257	23870	153239	27121	1021264	43024	109339	0	0	8120	684107	0	0
2024-06-30 04:47:32			0	34928	0	0	0	25277	23880	153247	27403	1021246	43002	109347	0	0	8120	683161	0	0
2024-06-30 04:48:32			0	34932	0	0	0	25285	23890	153191	27376	1021271	43026	109350	0	0	8120	682941	0	0
2024-06-30 04:49:32			0	34914	0	0	0	25296	23890	153247	27365	1021352	43026	109354	0	0	8119	683758	0	0
2024-06-30 04:50:32			0	34920	0	0	0	25309	23890	153319	27138	1021352	43004	109359	0	0	8119	683486	0	0
2024-06-30 04:51:32			0	34920	0	0	0	25324	23910	153303	27452	1021378	43017	109365	0	0	8119	683409	0	0
2024-06-30 04:52:32			0	34908	0	0	0	25337	23910	153267	27535	1021466	43017	109370	0	0	8118	683953	0	0
2024-06-30 04:53:32			0	34884	0	0	0	25329	23910	153271	27625	1021386	43028	109367	0	0	8117	685043	0	0
2024-06-30 04:54:32			0	34909	0	0	0	25332	23920	153263	27253	1021430	43006	109368	0	0	8119	683869	0	0
2024-06-30 04:55:32			0	34887	0	0	0	25324	23910	153383	27255	1021359	43006	109365	0	0	8117	684906	0	0
2024-06-30 04:56:32			0	34885	0	0	0	25319	23920	153515	27284	1021395	43017	109363	0	0	8117	684959	0	0
2024-06-30 04:57:32			0	34900	0	0	0	25316	23910	153483	26913	1021440	43006	109362	0	0	8118	684316	0	0
2024-06-30 04:58:32			0	34890	0	0	0	25324	23910	153363	27194	1021359	43017	109365	0	0	8118	684770	0	0
2024-06-30 04:59:32			0	34875	0	0	0	25311	23920	153367	27248	1021448	42995	109360	0	0	8117	685413	0	0
2024-06-30 05:00:32			0	34880	0	0	0	25306	23920	153511	27196	1021403	43018	109358	0	0	8117	685186	0	0
2024-06-30 05:01:32			0	34881	0	0	0	25319	23930	153631	27457	1021332	43019	109363	0	0	8117	685102	0	0
2024-06-30 05:02:32			0	34872	0	0	0	25319	23910	153567	27284	1021386	43017	109363	0	0	8117	685588	0	0
2024-06-30 05:03:32			0	34866	0	0	0	25316	23920	153635	26975	1021368	43006	109362	0	0	8116	685822	0	0
2024-06-30 05:04:32			0	34874	0	0	0	25319	23920	153627	27227	1021403	43018	109363	0	0	8117	685458	0	0
2024-06-30 05:05:32			0	34858	0	0	0	25316	23920	153727	27180	1021341	43017	109362	0	0	8116	686186	0	0
2024-06-30 05:06:32			0	34845	0	0	0	25311	23910	153635	27294	1021279	43006	109360	0	0	8115	686816	0	0
2024-06-30 05:07:32			0	34856	0	0	0	25309	23910	153663	27131	1021324	43006	109359	0	0	8116	686316	0	0
2024-06-30 05:08:32			0	34840	0	0	0	25309	23910	153671	27090	1021333	43006	109359	0	0	8115	687044	0	0
2024-06-30 05:09:32			0	34845	0	0	0	25303	23900	153751	27355	1021307	43015	109357	0	0	8115	686855	0	0
2024-06-30 05:10:32			0	34842	0	0	0	25293	23900	153707	27277	1021315	43016	109353	0	0	8115	686991	0	0
2024-06-30 05:11:32			0	34842	0	0	0	25298	23910	153683	27171	1021324	43006	109355	0	0	8115	686953	0	0
2024-06-30 05:12:32			0	34830	0	0	0	25296	23910	153783	27156	1021306	43028	109354	0	0	8115	687499	0	0
2024-06-30 05:13:32			0	34836	0	0	0	25288	23900	153839	27306	1021262	43016	109351	0	0	8115	687265	0	0
2024-06-30 05:14:32			0	34812	0	0	0	25288	23900	153779	27182	1021253	43004	109351	0	0	8114	688358	0	0
2024-06-30 05:15:32			0	34818	0	0	0	25288	23890	153859	27362	1021245	43015	109351	0	0	8114	688124	0	0
2024-06-30 05:16:32			0	34821	0	0	0	25275	23900	153871	27220	1021253	43015	109346	0	0	8115	687948	0	0
2024-06-30 05:17:32			0	34808	0	0	0	25283	23890	153943	27353	1021183	43015	109349	0	0	8114	688580	0	0
2024-06-30 05:18:32			0	34804	0	0	0	25270	23880	153911	27305	1021147	43014	109344	0	0	8114	688801	0	0
2024-06-30 05:19:32			0	34794	0	0	0	25280	23880	153951	27171	1021201	43025	109348	0	0	8113	689257	0	0
2024-06-30 05:20:32			0	34794	0	0	0	25275	23880	153915	27300	1021254	43014	109346	0	0	8113	689257	0	0
2024-06-30 05:21:32			0	34773	0	0	0	25293	23890	154063	27170	1021218	43026	109353	0	0	8112	690177	0	0
2024-06-30 05:22:32			0	34775	0	0	0	25288	23880	153979	27343	1021201	43014	109351	0	0	8112	690125	0	0
2024-06-30 05:23:32			0	34769	0	0	0	25280	23880	153963	27183	1021201	43014	109348	0	0	8112	690399	0	0
2024-06-30 05:24:32			0	34768	0	0	0	25272	23890	153983	27274	1021183	43004	109345	0	0	8112	690406	0	0
2024-06-30 05:25:32			0	34769	0	0	0	25259	23880	154155	27364	1021147	43003	109340	0	0	8112	690399	0	0
2024-06-30 05:26:32			0	34744	0	0	0	25280	23880	154131	27326	1021121	43014	109348	0	0	8110	691542	0	0
2024-06-30 05:27:32			0	34751	0	0	0	25272	23880	154095	27521	1021165	43013	109345	0	0	8111	691222	0	0
2024-06-30 05:28:32			0	34753	0	0	0	25257	23880	154119	27440	1021085	43013	109339	0	0	8111	691131	0	0
2024-06-30 05:29:32			0	34759	0	0	0	25272	23870	154127	27194	1021130	43002	109345	0	0	8111	690895	0	0
2024-06-30 05:30:32			0	34768	0	0	0	25264	23880	154047	27062	1021165	43002	109342	0	0	8112	690445	0	0
2024-06-30 05:31:32			0	34742	0	0	0	25262	23870	154071	27388	1021068	43013	109341	0	0	8110	691673	0	0
2024-06-30 05:32:32			0	34739	0	0	0	25259	23870	154143	27334	1021103	43013	109340	0	0	8110	691810	0	0
2024-06-30 05:33:32			0	34747	0	0	0	25249	23860	154099	26981	1021077	43011	109336	0	0	8111	691483	0	0
2024-06-30 05:34:32			0	34731	0	0	0	25251	23860	154087	26977	1021113	43012	109337	0	0	8110	692215	0	0
2024-06-30 05:35:32			0	34736	0	0	0	25241	23860	154203	26904	1021077	43011	109333	0	0	8110	691986	0	0
2024-06-30 05:36:32			0	34723	0	0	0	25238	23850	154171	27350	1021096	43010	109332	0	0	8110	692621	0	0
2024-06-30 05:37:32			0	34731	0	0	0	25246	23860	154247	27348	1021051	43011	109335	0	0	8110	692215	0	0
2024-06-30 05:38:32			0	34719	0	0	0	25233	23850	154239	27383	1021069	43000	109330	0	0	8110	692804	0	0
2024-06-30 05:39:32			0	34720	0	0	0	25238	23840	154127	27367	1020963	42988	109332	0	0	8109	692797	0	0
2024-06-30 05:40:32			0	34714	0	0	0	25231	23850	154163	27353	1021034	43022	109329	0	0	8109	693033	0	0
2024-06-30 05:41:32			0	34725	0	0	0	25228	23840	154099	27135	1020990	43009	109328	0	0	8110	692568	0	0
2024-06-30 05:42:32			0	34711	0	0	0	25223	23840	154199	27471	1020936	43009	109326	0	0	8109	693210	0	0
2024-06-30 05:43:32			0	34714	0	0	0	25218	23840	154239	27358	1021016	43009	109324	0	0	8109	693072	0	0
2024-06-30 05:44:32			0	34721	0	0	0	25231	23830	154187	27124	1020954	43008	109329	0	0	8110	692790	0	0
2024-06-30 05:45:32			0	34710	0	0	0	25212	23830	154255	27334	1020927	42998	109322	0	0	8109	693295	0	0
2024-06-30 05:46:32			0	34707	0	0	0	25212	23840	154151	27537	1020963	43021	109322	0	0	8109	693393	0	0
2024-06-30 05:47:32			0	34708	0	0	0	25202	23820	154147	27102	1020928	43019	109318	0	0	8109	693426	0	0
2024-06-30 05:48:32			0	34714	0	0	0	25199	23820	154263	27509	1020848	43008	109317	0	0	8110	693150	0	0
2024-06-30 05:49:32			0	34724	0	0	0	25194	23830	154243	27235	1020874	43008	109315	0	0	8110	692653	0	0
2024-06-30 05:50:32			0	34716	0	0	0	25189	23810	154263	27402	1020831	42996	109313	0	0	8110	693098	0	0
2024-06-30 05:51:32			0	34723	0	0	0	25194	23820	154207	27301	1020821	43019	109315	0	0	8110	692738	0	0
2024-06-30 05:52:32			0	34702	0	0	0	25176	23810	154279	27383	1020813	42996	109308	0	0	8109	693740	0	0
2024-06-30 05:53:32			0	34712	0	0	0	25163	23790	154291	27433	1020671	42983	109303	0	0	8110	693359	0	0
2024-06-30 05:54:32			0	34708	0	0	0	25161	23800	154243	27516	1020706	43006	109302	0	0	8110	693504	0	0
2024-06-30 05:55:32			0	34685	0	0	0	25150	23780	154303	27265	1020654	42982	109298	0	0	8109	694637	0	0
2024-06-30 05:56:32			0	34704	0	0	0	25145	23770	154199	27223	1020610	43003	109296	0	0	8110	693804	0	0
2024-06-30 05:57:32			0	34703	0	0	0	25148	23770	154303	27277	1020663	43003	109297	0	0	8110	693850	0	0
2024-06-30 05:58:32			0	34716	0	0	0	25145	23770	154287	27254	1020655	43025	109296	0	0	8110	693254	0	0
2024-06-30 05:59:32			0	34704	0	0	0	25145	23770	154383	27450	1020681	42992	109296	0	0	8110	693804	0	0
2024-06-30 06:00:32			0	34699	0	0	0	25150	23770	154275	27476	1020708	43002	109298	0	0	8109	694034	0	0
2024-06-30 06:01:32			0	34703	0	0	0	25161	23780	154323	27395	1020779	43015	109302	0	0	8110	693811	0	0
2024-06-30 06:02:32			0	34715	0	0	0	25163	23770	154211	27421	1020690	43003	109303	0	0	8110	693300	0	0
2024-06-30 06:03:32			0	34710	0	0	0	25176	23780	154283	27573	1020752	43004	109308	0	0	8110	693490	0	0
2024-06-30 06:04:32			0	34708	0	0	0	25192	23800	154275	27564	1020813	43006	109314	0	0	8109	693504	0	0
2024-06-30 06:05:32			0	34702	0	0	0	25189	23790	154251	27189	1020796	43015	109313	0	0	8109	693818	0	0
2024-06-30 06:06:32			0	34704	0	0	0	25202	23790	154271	27327	1020831	43005	109318	0	0	8109	693726	0	0
2024-06-30 06:07:32			0	34700	0	0	0	25202	23800	154267	27180	1020894	43006	109318	0	0	8109	693871	0	0
2024-06-30 06:08:32			0	34719	0	0	0	25210	23800	154219	27362	1020894	42995	109321	0	0	8110	692999	0	0
2024-06-30 06:09:32			0	34701	0	0	0	25223	23800	154315	27454	1020929	43018	109326	0	0	8108	693825	0	0
2024-06-30 06:10:32			0	34705	0	0	0	25218	23800	154331	27360	1020902	43018	109324	0	0	8109	693641	0	0
2024-06-30 06:11:32			0	34696	0	0	0	25231	23800	154267	27199	1020956	43018	109329	0	0	8108	694054	0	0
2024-06-30 06:12:32			0	34712	0	0	0	25220	23810	154187	27312	1021053	43018	109325	0	0	8109	693281	0	0
2024-06-30 06:13:32			0	34695	0	0	0	25244	23830	154275	27123	1021026	43008	109334	0	0	8108	693983	0	0
2024-06-30 06:14:32			0	34706	0	0	0	25241	23820	154303	27377	1021044	43031	109333	0	0	8109	693517	0	0
2024-06-30 06:15:32			0	34697	0	0	0	25244	23830	154295	27111	1020999	43008	109334	0	0	8108	693891	0	0
2024-06-30 06:16:32			0	34687	0	0	0	25251	23840	154215	27234	1021016	43021	109337	0	0	8107	694311	0	0
2024-06-30 06:17:32			0	34701	0	0	0	25251	23830	154331	27216	1021008	43008	109337	0	0	8108	693707	0	0
2024-06-30 06:18:32			0	34705	0	0	0	25249	23840	154323	27383	1021070	43021	109336	0	0	8108	693485	0	0
2024-06-30 06:19:32			0	34712	0	0	0	25257	23840	154295	27138	1021043	43021	109339	0	0	8109	693164	0	0
2024-06-30 06:20:32			0	34717	0	0	0	25249	23840	154323	27369	1021025	43000	109336	0	0	8109	692935	0	0
2024-06-30 06:21:32			0	34693	0	0	0	25257	23840	154275	27190	1021052	43010	109339	0	0	8108	694035	0	0
2024-06-30 06:22:32			0	34724	0	0	0	25251	23840	154299	27235	1021070	43021	109337	0	0	8109	692614	0	0
2024-06-30 06:23:32			0	34707	0	0	0	25257	23840	154279	27272	1021016	43009	109339	0	0	8108	693393	0	0
2024-06-30 06:24:32			0	34707	0	0	0	25262	23840	154239	27294	1021096	43021	109341	0	0	8108	693393	0	0
2024-06-30 06:25:32			0	34719	0	0	0	25267	23840	154183	26883	1021105	43022	109343	0	0	8109	692843	0	0
2024-06-30 06:26:32			0	34716	0	0	0	25262	23840	154219	27481	1021105	43022	109341	0	0	8109	692981	0	0
2024-06-30 06:27:32			0	34713	0	0	0	25277	23850	154251	27325	1021122	43010	109347	0	0	8108	693079	0	0
2024-06-30 06:28:32			0	34699	0	0	0	25267	23860	154203	27334	1021131	43023	109343	0	0	8108	693682	0	0
2024-06-30 06:29:32			0	34692	0	0	0	25267	23860	154187	27422	1021131	43023	109343	0	0	8108	694003	0	0
2024-06-30 06:30:32			0	34720	0	0	0	25275	23860	154263	27473	1021140	43023	109346	0	0	8109	692719	0	0
2024-06-30 06:31:32			0	34710	0	0	0	25270	23850	154203	27435	1021042	43022	109344	0	0	8108	693217	0	0
2024-06-30 06:32:32			0	34714	0	0	0	25264	23860	154167	27237	1021104	43023	109342	0	0	8109	692994	0	0
2024-06-30 06:33:32			0	34721	0	0	0	25264	23860	154107	27433	1021051	43011	109342	0	0	8109	692673	0	0
2024-06-30 06:34:32			0	34723	0	0	0	25259	23850	154111	27447	1021042	43022	109340	0	0	8109	692621	0	0
2024-06-30 06:35:32			0	34728	0	0	0	25259	23840	154119	27287	1021096	43021	109340	0	0	8110	692431	0	0
2024-06-30 06:36:32			0	34717	0	0	0	25251	23850	154139	27350	1021087	43010	109337	0	0	8109	692896	0	0
2024-06-30 06:37:32			0	34729	0	0	0	25238	23850	154183	27332	1020953	43010	109332	0	0	8110	692346	0	0
2024-06-30 06:38:32			0	34729	0	0	0	25241	23840	154111	27360	1020998	43010	109333	0	0	8110	692385	0	0
2024-06-30 06:39:32			0	34721	0	0	0	25238	23830	154163	27284	1020981	43020	109332	0	0	8109	692790	0	0
2024-06-30 06:40:32			0	34724	0	0	0	25233	23840	154111	27159	1021025	43022	109330	0	0	8110	692614	0	0
2024-06-30 06:41:32			0	34741	0	0	0	25236	23830	154123	27286	1020972	43020	109331	0	0	8111	691874	0	0
2024-06-30 06:42:32			0	34730	0	0	0	25233	23830	154115	27180	1020972	43008	109330	0	0	8110	692378	0	0
2024-06-30 06:43:32			0	34740	0	0	0	25236	23820	154151	27362	1020990	43031	109331	0	0	8110	691959	0	0
2024-06-30 06:44:32			0	34750	0	0	0	25233	23830	154191	27088	1021008	43031	109330	0	0	8111	691462	0	0
2024-06-30 06:45:32			0	34748	0	0	0	25231	23830	154115	27161	1020919	43020	109329	0	0	8111	691554	0	0
2024-06-30 06:46:32			0	34760	0	0	0	25236	23830	154127	27170	1021052	43020	109331	0	0	8112	691005	0	0
2024-06-30 06:47:32			0	34741	0	0	0	25241	23830	154147	27173	1020999	43020	109333	0	0	8110	691874	0	0
2024-06-30 06:48:32			0	34741	0	0	0	25241	23840	154087	27486	1020936	43032	109333	0	0	8111	691835	0	0
2024-06-30 06:49:32			0	34764	0	0	0	25244	23830	154083	27190	1020972	43020	109334	0	0	8112	690822	0	0
2024-06-30 06:50:32			0	34760	0	0	0	25244	23830	154111	27460	1021008	43008	109334	0	0	8111	691005	0	0
2024-06-30 06:51:32			0	34769	0	0	0	25254	23830	154171	27291	1021088	43008	109338	0	0	8112	690593	0	0
2024-06-30 06:52:32			0	34752	0	0	0	25251	23830	154027	27464	1021008	43020	109337	0	0	8111	691371	0	0
2024-06-30 06:53:32			0	34757	0	0	0	25244	23840	154039	27303	1020998	43010	109334	0	0	8111	691103	0	0
2024-06-30 06:54:32			0	34763	0	0	0	25246	23840	154055	27277	1021052	43000	109335	0	0	8112	690829	0	0
2024-06-30 06:55:32			0	34758	0	0	0	25241	23840	154015	27327	1020998	43022	109333	0	0	8111	691058	0	0
2024-06-30 06:56:32			0	34766	0	0	0	25225	23830	154063	27282	1020972	43020	109327	0	0	8112	690731	0	0
2024-06-30 06:57:32			0	34775	0	0	0	25212	23840	154079	27353	1020909	43009	109322	0	0	8113	690280	0	0
2024-06-30 06:58:32			0	34776	0	0	0	25194	23810	154047	27358	1020759	43007	109315	0	0	8113	690351	0	0
2024-06-30 06:59:32			0	34767	0	0	0	25153	23800	154071	27383	1020635	42974	109299	0	0	8113	690802	0	0
2024-06-30 07:00:32			0	34795	0	0	0	25122	23790	154047	27732	1020529	42993	109287	0	0	8115	689561	0	0
2024-06-30 07:01:32			0	34796	0	0	0	25088	23770	154015	27192	1020361	42958	109274	0	0	8116	689593	0	0
2024-06-30 07:02:32			0	34793	0	0	0	25062	23760	154003	27256	1020370	42969	109264	0	0	8116	689769	0	0
2024-06-30 07:03:32			0	34801	0	0	0	25038	23720	153991	27274	1020158	42977	109255	0	0	8117	689559	0	0
2024-06-30 07:04:32			0	34798	0	0	0	25015	23700	153939	27371	1020070	42975	109246	0	0	8117	689773	0	0
2024-06-30 07:05:32			0	34811	0	0	0	24986	23680	153819	27364	1020027	42972	109235	0	0	8118	689257	0	0
2024-06-30 07:06:32			0	34814	0	0	0	24963	23650	153875	27320	1019877	42970	109226	0	0	8118	689237	0	0
2024-06-30 07:07:32			0	34813	0	0	0	24953	23650	153835	27464	1019904	42970	109222	0	0	8118	689282	0	0
2024-06-30 07:08:32			0	34825	0	0	0	24942	23630	153871	27597	1019843	42990	109218	0	0	8119	688812	0	0
2024-06-30 07:09:32			0	34828	0	0	0	24942	23630	153899	27275	1019923	43000	109218	0	0	8119	688675	0	0
2024-06-30 07:10:32			0	34818	0	0	0	24989	23640	153939	27142	1020207	43013	109236	0	0	8118	689093	0	0
2024-06-30 07:11:32			0	34820	0	0	0	25070	23660	153875	26930	1020402	43027	109267	0	0	8117	688924	0	0
2024-06-30 07:12:32			0	34819	0	0	0	25150	23690	153879	27059	1020606	43029	109298	0	0	8116	688853	0	0
2024-06-30 07:13:32			0	34800	0	0	0	25210	23710	153903	27331	1020720	43031	109321	0	0	8114	689643	0	0
2024-06-30 07:14:32			0	34807	0	0	0	25244	23740	153963	27123	1020799	43034	109334	0	0	8114	689207	0	0
2024-06-30 07:15:32			0	34801	0	0	0	25262	23770	153915	27104	1020922	43025	109341	0	0	8113	689365	0	0
2024-06-30 07:16:32			0	34794	0	0	0	25270	23770	154015	27069	1020904	43025	109344	0	0	8113	689684	0	0
2024-06-30 07:17:32			0	34796	0	0	0	25277	23790	153979	27083	1021010	43026	109347	0	0	8113	689515	0	0
2024-06-30 07:18:32			0	34812	0	0	0	25293	23790	153951	27435	1021018	43016	109353	0	0	8113	688785	0	0
2024-06-30 07:19:32			0	34806	0	0	0	25301	23800	153895	27405	1021089	43040	109356	0	0	8113	689020	0	0
2024-06-30 07:20:32			0	34798	0	0	0	25301	23830	153911	27410	1021133	43031	109356	0	0	8113	689269	0	0
2024-06-30 07:21:32			0	34810	0	0	0	25311	23840	153855	27486	1021177	43032	109360	0	0	8113	688682	0	0
2024-06-30 07:22:32			0	34818	0	0	0	25309	23840	153875	27327	1021203	43032	109359	0	0	8114	688317	0	0
2024-06-30 07:23:32			0	34796	0	0	0	25306	23850	153879	27421	1021194	43022	109358	0	0	8113	689282	0	0
2024-06-30 07:24:32			0	34807	0	0	0	25311	23860	153803	27015	1021238	43023	109360	0	0	8113	688742	0	0
2024-06-30 07:25:32			0	34805	0	0	0	25301	23860	153799	27088	1021158	43023	109356	0	0	8113	688833	0	0
2024-06-30 07:26:32			0	34807	0	0	0	25288	23860	153791	27326	1021131	43034	109351	0	0	8113	688742	0	0
2024-06-30 07:27:32			0	34811	0	0	0	25275	23850	153851	27476	1021122	43010	109346	0	0	8114	688598	0	0
2024-06-30 07:28:32			0	34795	0	0	0	25257	23840	153743	27358	1021052	43022	109339	0	0	8113	689367	0	0
2024-06-30 07:29:32			0	34806	0	0	0	25249	23840	153763	27416	1021052	43022	109336	0	0	8114	688865	0	0
2024-06-30 07:30:32			0	34831	0	0	0	25236	23840	153743	27067	1020998	43010	109331	0	0	8116	687725	0	0
2024-06-30 07:31:32			0	34824	0	0	0	25228	23830	153731	27222	1020981	42998	109328	0	0	8115	688083	0	0
2024-06-30 07:32:32			0	34829	0	0	0	25210	23820	153723	27492	1020937	43008	109321	0	0	8116	687894	0	0
2024-06-30 07:33:32			0	34812	0	0	0	25210	23830	153691	27190	1020972	43020	109321	0	0	8115	688630	0	0
2024-06-30 07:34:32			0	34828	0	0	0	25207	23840	153647	27346	1020963	43021	109320	0	0	8116	687862	0	0
2024-06-30 07:35:32			0	34833	0	0	0	25202	23820	153695	27384	1020857	43020	109318	0	0	8116	687711	0	0
2024-06-30 07:36:32			0	34828	0	0	0	25205	23820	153715	27230	1020875	43008	109319	0	0	8116	687939	0	0
2024-06-30 07:37:32			0	34833	0	0	0	25199	23810	153667	26870	1020866	43018	109317	0	0	8116	687750	0	0
2024-06-30 07:38:32			0	34837	0	0	0	25192	23810	153687	27505	1020804	43018	109314	0	0	8116	687568	0	0
2024-06-30 07:39:32			0	34840	0	0	0	25192	23810	153771	27256	1020831	43007	109314	0	0	8117	687431	0	0
2024-06-30 07:40:32			0	34839	0	0	0	25202	23800	153647	27066	1020929	42996	109318	0	0	8116	687515	0	0
2024-06-30 07:41:32			0	34843	0	0	0	25199	23800	153667	27123	1020840	43006	109317	0	0	8117	687333	0	0
2024-06-30 07:42:32			0	34841	0	0	0	25199	23800	153599	27317	1020849	43018	109317	0	0	8117	687424	0	0
2024-06-30 07:43:32			0	34838	0	0	0	25189	23800	153623	27518	1020840	43017	109313	0	0	8117	687561	0	0
2024-06-30 07:44:32			0	34844	0	0	0	25192	23800	153643	27121	1020822	43018	109314	0	0	8117	687287	0	0
2024-06-30 07:45:32			0	34860	0	0	0	25184	23790	153575	27187	1020796	43015	109311	0	0	8118	686598	0	0
2024-06-30 07:46:32			0	34863	0	0	0	25181	23790	153643	27395	1020769	43015	109310	0	0	8118	686461	0	0
2024-06-30 07:47:32			0	34863	0	0	0	25161	23790	153607	27192	1020725	43027	109302	0	0	8118	686461	0	0
2024-06-30 07:48:32			0	34879	0	0	0	25158	23780	153559	27329	1020654	43004	109301	0	0	8119	685772	0	0
2024-06-30 07:49:32			0	34853	0	0	0	25150	23780	153583	27438	1020672	42993	109298	0	0	8118	686955	0	0
2024-06-30 07:50:32			0	34874	0	0	0	25153	23760	153443	27138	1020700	43013	109299	0	0	8119	686076	0	0
2024-06-30 07:51:32			0	34890	0	0	0	25150	23770	153575	27324	1020690	43014	109298	0	0	8120	685310	0	0
2024-06-30 07:52:32			0	34874	0	0	0	25163	23780	153559	27171	1020734	43015	109303	0	0	8119	685999	0	0
2024-06-30 07:53:32			0	34872	0	0	0	25161	23780	153543	27253	1020699	43026	109302	0	0	8119	686090	0	0
2024-06-30 07:54:32			0	34883	0	0	0	25171	23780	153431	27308	1020734	43026	109306	0	0	8119	685590	0	0
2024-06-30 07:55:32			0	34902	0	0	0	25184	23780	153491	27229	1020761	43038	109311	0	0	8120	684726	0	0
2024-06-30 07:56:32			0	34881	0	0	0	25197	23780	153523	27222	1020779	43026	109316	0	0	8119	685681	0	0
2024-06-30 07:57:32			0	34885	0	0	0	25212	23780	153487	27204	1020841	43015	109322	0	0	8119	685499	0	0
2024-06-30 07:58:32			0	34902	0	0	0	25212	23800	153403	27251	1020894	43028	109322	0	0	8120	684649	0	0
2024-06-30 07:59:32			0	34895	0	0	0	25220	23800	153395	26915	1020875	43007	109325	0	0	8119	684967	0	0
2024-06-30 08:00:32			0	34904	0	0	0	25236	23800	153371	27467	1020902	43029	109331	0	0	8119	684559	0	0
2024-06-30 08:01:32			0	34898	0	0	0	25236	23800	153407	27530	1020929	43018	109331	0	0	8119	684831	0	0
2024-06-30 08:02:32			0	34927	0	0	0	25231	23800	153371	27585	1020875	43029	109329	0	0	8121	683515	0	0
2024-06-30 08:03:32			0	34922	0	0	0	25228	23810	153403	27317	1020911	43029	109328	0	0	8121	683703	0	0
2024-06-30 08:04:32			0	34914	0	0	0	25236	23810	153295	27538	1020937	43018	109331	0	0	8120	684066	0	0
2024-06-30 08:05:32			0	34936	0	0	0	25223	23810	153263	27092	1020831	43018	109326	0	0	8121	683068	0	0
2024-06-30 08:06:32			0	34938	0	0	0	25225	23810	153155	27301	1020991	43029	109327	0	0	8121	682977	0	0
2024-06-30 08:07:32			0	34924	0	0	0	25223	23810	153167	27008	1020884	43018	109326	0	0	8121	683612	0	0
2024-06-30 08:08:32			0	34955	0	0	0	25228	23810	153159	27305	1020919	43018	109328	0	0	8122	682207	0	0
2024-06-30 08:09:32			0	34961	0	0	0	25223	23810	153115	27213	1021000	43040	109326	0	0	8123	681935	0	0
2024-06-30 08:10:32			0	34965	0	0	0	25228	23810	153087	27400	1020946	43029	109328	0	0	8123	681754	0	0
2024-06-30 08:11:32			0	34975	0	0	0	25225	23810	153027	27390	1020937	43029	109327	0	0	8123	681301	0	0
2024-06-30 08:12:32			0	35019	0	0	0	25223	23820	153039	27336	1020902	43019	109326	0	0	8126	679274	0	0
2024-06-30 08:13:32			0	35039	0	0	0	25225	23810	152791	27079	1021026	43040	109327	0	0	8127	678410	0	0
2024-06-30 08:14:32			0	35080	0	0	0	25223	23810	152599	26968	1021000	43007	109326	0	0	8129	676562	0	0
2024-06-30 08:15:32			0	35142	0	0	0	25246	23820	152272	27046	1020982	43030	109335	0	0	8132	673738	0	0
2024-06-30 08:16:32			0	35247	0	0	0	25251	23830	151884	26965	1021052	43031	109337	0	0	8138	669001	0	0
2024-06-30 08:17:32			0	35337	0	0	0	25251	23830	151492	27344	1021026	43020	109337	0	0	8143	664992	0	0
2024-06-30 08:18:32			0	35406	0	0	0	25262	23820	151092	27180	1021044	43031	109341	0	0	8146	661968	0	0
2024-06-30 08:19:32			0	35511	0	0	0	25262	23840	150616	27234	1021096	43021	109341	0	0	8152	657255	0	0
2024-06-30 08:20:32			0	35563	0	0	0	25277	23840	150496	27046	1021159	43022	109347	0	0	8155	654967	0	0
2024-06-30 08:21:32			0	35559	0	0	0	25275	23840	150544	27357	1021185	43043	109346	0	0	8154	655143	0	0
2024-06-30 08:22:32			0	35501	0	0	0	25283	23840	150808	27367	1021239	43022	109349	0	0	8151	657696	0	0
2024-06-30 08:23:32			0	35420	0	0	0	25298	23850	151148	26956	1021229	43043	109355	0	0	8147	661237	0	0
2024-06-30 08:24:32			0	35354	0	0	0	25298	23860	151392	27410	1021184	43044	109355	0	0	8143	664125	0	0
2024-06-30 08:25:32			0	35282	0	0	0	25293	23860	151652	27222	1021220	43035	109353	0	0	8139	667327	0	0
2024-06-30 08:26:32			0	35210	0	0	0	25296	23860	151996	27000	1021246	43035	109354	0	0	8135	670541	0	0
2024-06-30 08:27:32			0	35170	0	0	0	25303	23850	152152	27135	1021229	43010	109357	0	0	8133	672369	0	0
2024-06-30 08:28:32			0	35116	0	0	0	25303	23870	152332	27289	1021264	43046	109357	0	0	8130	674715	0	0
2024-06-30 08:29:32			0	35094	0	0	0	25314	23860	152467	27322	1021246	43023	109361	0	0	8129	675742	0	0
2024-06-30 08:30:32			0	35047	0	0	0	25314	23880	152699	27102	1021299	43036	109361	0	0	8126	677782	0	0
2024-06-30 08:31:32			0	35048	0	0	0	25309	23880	152675	26993	1021219	43036	109359	0	0	8126	677737	0	0
2024-06-30 08:32:32			0	35061	0	0	0	25309	23880	152719	27161	1021308	43025	109359	0	0	8127	677151	0	0
2024-06-30 08:33:32			0	35042	0	0	0	25314	23890	152739	27052	1021290	43038	109361	0	0	8126	677969	0	0
2024-06-30 08:34:32			0	35045	0	0	0	25324	23890	152735	27059	1021343	43026	109365	0	0	8126	677834	0	0
2024-06-30 08:35:32			0	35037	0	0	0	25314	23880	152699	27211	1021272	43024	109361	0	0	8126	678233	0	0
2024-06-30 08:36:32			0	35034	0	0	0	25322	23890	152743	27417	1021370	43048	109364	0	0	8125	678330	0	0
2024-06-30 08:37:32			0	35007	0	0	0	25319	23890	152811	27386	1021343	43038	109363	0	0	8124	679548	0	0
2024-06-30 08:38:32			0	35013	0	0	0	25324	23890	152931	27493	1021378	43015	109365	0	0	8124	679277	0	0
2024-06-30 08:39:32			0	34976	0	0	0	25322	23900	152935	27258	1021360	43038	109364	0	0	8122	680911	0	0
2024-06-30 08:40:32			0	34991	0	0	0	25332	23890	152939	27237	1021378	43048	109368	0	0	8123	680271	0	0
2024-06-30 08:41:32			0	34984	0	0	0	25327	23900	153003	27126	1021334	43038	109366	0	0	8123	680549	0	0
2024-06-30 08:42:32			0	34981	0	0	0	25332	23900	152979	27192	1021369	43039	109368	0	0	8122	680685	0	0
2024-06-30 08:43:32			0	34974	0	0	0	25332	23900	152927	26996	1021396	43039	109368	0	0	8122	681001	0	0
2024-06-30 08:44:32			0	34977	0	0	0	25342	23910	152999	27147	1021458	43039	109372	0	0	8122	680827	0	0
2024-06-30 08:45:32			0	34962	0	0	0	25340	23910	153079	26916	1021493	43039	109371	0	0	8121	681506	0	0
2024-06-30 08:46:32			0	34942	0	0	0	25340	23900	153015	27388	1021449	43039	109371	0	0	8120	682450	0	0
2024-06-30 08:47:32			0	34933	0	0	0	25329	23920	153139	27187	1021422	43039	109367	0	0	8120	682781	0	0
2024-06-30 08:48:32			0	34960	0	0	0	25335	23920	153071	27164	1021502	43039	109369	0	0	8121	681558	0	0
2024-06-30 08:49:32			0	34972	0	0	0	25348	23910	153059	27185	1021440	43028	109374	0	0	8122	681053	0	0
2024-06-30 08:50:32			0	34944	0	0	0	25285	23910	153059	26974	1021466	43039	109350	0	0	8121	682321	0	0
2024-06-30 08:51:32			0	34973	0	0	0	25290	23910	153123	27109	1021413	43028	109352	0	0	8123	681008	0	0
2024-06-30 08:52:32			0	34963	0	0	0	25298	23910	153123	27085	1021351	43028	109355	0	0	8122	681461	0	0
2024-06-30 08:53:32			0	34957	0	0	0	25314	23900	153107	27386	1021396	43039	109361	0	0	8121	681770	0	0
2024-06-30 08:54:32			0	34963	0	0	0	25298	23900	153167	27201	1021289	43039	109355	0	0	8122	681499	0	0
2024-06-30 08:55:32			0	34954	0	0	0	25270	23900	153115	27343	1021369	43027	109344	0	0	8122	681906	0	0
2024-06-30 08:56:32			0	34957	0	0	0	25290	23890	153199	27403	1021378	43026	109352	0	0	8122	681809	0	0
2024-06-30 08:57:32			0	34944	0	0	0	25293	23890	153163	27194	1021298	43038	109353	0	0	8121	682398	0	0
2024-06-30 08:58:32			0	34932	0	0	0	25309	23900	153331	26949	1021334	43026	109359	0	0	8120	682903	0	0
2024-06-30 08:59:32			0	34923	0	0	0	25301	23890	153439	27365	1021352	43038	109356	0	0	8120	683349	0	0
2024-06-30 09:00:32			0	34920	0	0	0	25314	23900	153415	27213	1021315	43027	109361	0	0	8119	683447	0	0
2024-06-30 09:01:32			0	34904	0	0	0	25337	23890	153427	27161	1021432	43038	109370	0	0	8118	684212	0	0
2024-06-30 09:02:32			0	34898	0	0	0	25355	23910	153483	27286	1021431	43028	109377	0	0	8118	684407	0	0
2024-06-30 09:03:32			0	34894	0	0	0	25368	23910	153475	27279	1021440	43050	109382	0	0	8117	684588	0	0
2024-06-30 09:04:32			0	34892	0	0	0	25386	23910	153455	27180	1021627	43028	109389	0	0	8117	684679	0	0
2024-06-30 09:05:32			0	34875	0	0	0	25394	23920	153599	27289	1021644	43040	109392	0	0	8116	685413	0	0
2024-06-30 09:06:32			0	34839	0	0	0	25379	23930	153703	27138	1021599	43041	109386	0	0	8114	687012	0	0
2024-06-30 09:07:32			0	34822	0	0	0	25384	23940	153775	27336	1021670	43031	109388	0	0	8113	687748	0	0
2024-06-30 09:08:32			0	34811	0	0	0	25402	23930	153807	27010	1021688	43041	109395	0	0	8112	688288	0	0
2024-06-30 09:09:32			0	34790	0	0	0	25386	23930	153979	27274	1021661	43041	109389	0	0	8111	689245	0	0
2024-06-30 09:10:32			0	34784	0	0	0	25397	23940	153887	27152	1021652	43041	109393	0	0	8111	689481	0	0
2024-06-30 09:11:32			0	34762	0	0	0	25410	23950	153991	26972	1021696	43043	109398	0	0	8109	690446	0	0
2024-06-30 09:12:32			0	34742	0	0	0	25405	23960	154115	27235	1021767	43054	109396	0	0	8108	691322	0	0
2024-06-30 09:13:32			0	34738	0	0	0	25402	23960	154167	27086	1021767	43054	109395	0	0	8108	691505	0	0
2024-06-30 09:14:32			0	34735	0	0	0	25418	23960	154155	27403	1021740	43043	109401	0	0	8108	691642	0	0
2024-06-30 09:15:32			0	34725	0	0	0	25415	23960	154071	27057	1021820	43054	109400	0	0	8107	692100	0	0
2024-06-30 09:16:32			0	34718	0	0	0	25412	23960	154187	27183	1021767	43043	109399	0	0	8107	692421	0	0
2024-06-30 09:17:32			0	34693	0	0	0	25412	23970	154227	27232	1021811	43056	109399	0	0	8106	693527	0	0
2024-06-30 09:18:32			0	34677	0	0	0	25412	23970	154355	27154	1021838	43045	109399	0	0	8105	694261	0	0
2024-06-30 09:19:32			0	34659	0	0	0	25407	23980	154423	27265	1021828	43056	109397	0	0	8104	695048	0	0
2024-06-30 09:20:32			0	34664	0	0	0	25418	23980	154355	27632	1021793	43045	109401	0	0	8104	694819	0	0
2024-06-30 09:21:32			0	34662	0	0	0	25410	23980	154303	27303	1021828	43045	109398	0	0	8104	694911	0	0
2024-06-30 09:22:32			0	34672	0	0	0	25412	23980	154299	27281	1021855	43045	109399	0	0	8105	694451	0	0
2024-06-30 09:23:32			0	34685	0	0	0	25420	23980	154311	27405	1021801	43056	109402	0	0	8105	693855	0	0
2024-06-30 09:24:32			0	34697	0	0	0	25431	23970	154231	27111	1021891	43035	109406	0	0	8106	693344	0	0
2024-06-30 09:25:32			0	34705	0	0	0	25436	23980	154327	27211	1021819	43045	109408	0	0	8106	692938	0	0
2024-06-30 09:26:32			0	34716	0	0	0	25425	23980	154211	27066	1021881	43045	109404	0	0	8107	692434	0	0
2024-06-30 09:27:32			0	34703	0	0	0	25420	23990	154291	27324	1021863	43036	109402	0	0	8106	692991	0	0
2024-06-30 09:28:32			0	34683	0	0	0	25423	23980	154315	27319	1021935	43045	109403	0	0	8105	693947	0	0
2024-06-30 09:29:32			0	34695	0	0	0	25425	23990	154239	27324	1021970	43046	109404	0	0	8106	693357	0	0
2024-06-30 09:30:32			0	34694	0	0	0	25415	23990	154295	27414	1021872	43058	109400	0	0	8106	693403	0	0
2024-06-30 09:31:32			0	34712	0	0	0	25371	23990	154287	27448	1021899	43037	109383	0	0	8107	692578	0	0
2024-06-30 09:32:32			0	34701	0	0	0	25358	23990	154299	27424	1021810	43036	109378	0	0	8107	693082	0	0
2024-06-30 09:33:32			0	34709	0	0	0	25355	23970	154319	27308	1021731	43035	109377	0	0	8107	692794	0	0
2024-06-30 09:34:32			0	34665	0	0	0	25371	23970	154307	27274	1021704	43035	109383	0	0	8105	694812	0	0
2024-06-30 09:35:32			0	34657	0	0	0	25381	23970	154511	27230	1021749	43044	109387	0	0	8104	695179	0	0
2024-06-30 09:36:32			0	34613	0	0	0	25384	23980	154559	27124	1021793	43045	109388	0	0	8102	697164	0	0
2024-06-30 09:37:32			0	34617	0	0	0	25449	23980	154723	27326	1021801	43045	109413	0	0	8101	696979	0	0
2024-06-30 09:38:32			0	34610	0	0	0	25451	23980	154795	27383	1021908	43068	109414	0	0	8100	697302	0	0
2024-06-30 09:39:32			0	34605	0	0	0	25451	23990	154735	27220	1021952	43058	109414	0	0	8100	697493	0	0
2024-06-30 09:40:32			0	34594	0	0	0	25433	23990	154655	27284	1021952	43058	109407	0	0	8100	697999	0	0
2024-06-30 09:41:32			0	34620	0	0	0	25441	23990	154651	27109	1021925	43058	109410	0	0	8101	696802	0	0
2024-06-30 09:42:32			0	34612	0	0	0	25472	23990	154711	27234	1022059	43058	109422	0	0	8100	697170	0	0
2024-06-30 09:43:32			0	34613	0	0	0	25480	24010	154555	27232	1022067	43049	109425	0	0	8100	697046	0	0
2024-06-30 09:44:32			0	34632	0	0	0	25472	24020	154479	27100	1022156	43060	109422	0	0	8101	696132	0	0
2024-06-30 09:45:32			0	34621	0	0	0	25501	24030	154523	27315	1022120	43061	109433	0	0	8100	696599	0	0
2024-06-30 09:46:32			0	34628	0	0	0	25498	24020	154455	27329	1022138	43072	109432	0	0	8101	696316	0	0
2024-06-30 09:47:32			0	34645	0	0	0	25485	24030	154451	27396	1022173	43061	109427	0	0	8102	695495	0	0
2024-06-30 09:48:32			0	34663	0	0	0	25470	24030	154383	26979	1022120	43050	109421	0	0	8103	694669	0	0
2024-06-30 09:49:32			0	34686	0	0	0	25459	24030	154419	27064	1022101	43051	109417	0	0	8105	693613	0	0
2024-06-30 09:50:32			0	34669	0	0	0	25459	24040	154375	27086	1022164	43041	109417	0	0	8104	694354	0	0
2024-06-30 09:51:32			0	34682	0	0	0	25488	24030	154271	27324	1022155	43040	109428	0	0	8104	693797	0	0
2024-06-30 09:52:32			0	34717	0	0	0	25493	24040	154159	27424	1022217	43051	109430	0	0	8106	692154	0	0
2024-06-30 09:53:32			0	34748	0	0	0	25488	24050	154063	26965	1022208	43063	109428	0	0	8108	690697	0	0
2024-06-30 09:54:32			0	34770	0	0	0	25485	24050	153891	27267	1022154	43051	109427	0	0	8109	689692	0	0
2024-06-30 09:55:32			0	34808	0	0	0	25480	24050	153675	27379	1022154	43051	109425	0	0	8111	687959	0	0
2024-06-30 09:56:32			0	34824	0	0	0	25464	24050	153575	27150	1022127	43051	109419	0	0	8112	687230	0	0
2024-06-30 09:57:32			0	34814	0	0	0	25480	24060	153651	27322	1022163	43064	109425	0	0	8112	687647	0	0
2024-06-30 09:58:32			0	34813	0	0	0	25470	24050	153659	27554	1022208	43074	109421	0	0	8112	687731	0	0
2024-06-30 09:59:32			0	34784	0	0	0	25485	24060	153783	27055	1022136	43052	109427	0	0	8110	689014	0	0
2024-06-30 10:00:32			0	34765	0	0	0	25490	24050	153919	27274	1022181	43041	109429	0	0	8109	689920	0	0
2024-06-30 10:01:32			0	34744	0	0	0	25490	24070	153895	27270	1022234	43053	109429	0	0	8108	690802	0	0
2024-06-30 10:02:32			0	34752	0	0	0	25467	24070	154119	26918	1022154	43053	109420	0	0	8108	690436	0	0
2024-06-30 10:03:32			0	34741	0	0	0	25509	24070	153895	27369	1022260	43053	109436	0	0	8107	690939	0	0
2024-06-30 10:04:32			0	34772	0	0	0	25532	24070	153871	26972	1022314	43065	109445	0	0	8108	689523	0	0
2024-06-30 10:05:32			0	34767	0	0	0	25529	24080	153943	27192	1022331	43066	109444	0	0	8108	689712	0	0
2024-06-30 10:06:32			0	34762	0	0	0	25540	24080	153883	27261	1022367	43055	109448	0	0	8108	689941	0	0
2024-06-30 10:07:32			0	34781	0	0	0	25548	24090	153731	27220	1022464	43067	109451	0	0	8109	689035	0	0
2024-06-30 10:08:32			0	34814	0	0	0	25553	24090	153735	27135	1022384	43079	109453	0	0	8110	687530	0	0
2024-06-30 10:09:32			0	34818	0	0	0	25550	24100	153615	27180	1022428	43068	109452	0	0	8111	687309	0	0
2024-06-30 10:10:32			0	34841	0	0	0	25548	24100	153507	27201	1022419	43067	109451	0	0	8112	686263	0	0
2024-06-30 10:11:32			0	34853	0	0	0	25566	24110	153451	26939	1022490	43068	109458	0	0	8112	685678	0	0
2024-06-30 10:12:32			0	34848	0	0	0	25553	24100	153487	27209	1022455	43068	109453	0	0	8112	685944	0	0
2024-06-30 10:13:32			0	34851	0	0	0	25542	24120	153455	27105	1022534	43070	109449	0	0	8113	685731	0	0
2024-06-30 10:14:32			0	34850	0	0	0	25537	24120	153407	27124	1022462	43059	109447	0	0	8113	685776	0	0
2024-06-30 10:15:32			0	34858	0	0	0	25514	24110	153419	27326	1022436	43068	109438	0	0	8114	685451	0	0
2024-06-30 10:16:32			0	34869	0	0	0	25522	24110	153283	27053	1022410	43057	109441	0	0	8114	684952	0	0
2024-06-30 10:17:32			0	34870	0	0	0	25501	24110	153291	26741	1022392	43058	109433	0	0	8114	684906	0	0
2024-06-30 10:18:32			0	34869	0	0	0	25477	24110	153219	27041	1022383	43046	109424	0	0	8115	684952	0	0
2024-06-30 10:19:32			0	34869	0	0	0	25483	24100	153215	26779	1022401	43057	109426	0	0	8115	684990	0	0
2024-06-30 10:20:32			0	34863	0	0	0	25503	24110	153371	26767	1022383	43046	109434	0	0	8114	685224	0	0
2024-06-30 10:21:32			0	34845	0	0	0	25514	24100	153283	27144	1022455	43057	109438	0	0	8113	686081	0	0
2024-06-30 10:22:32			0	34850	0	0	0	25503	24100	153407	27150	1022374	43068	109434	0	0	8113	685854	0	0
2024-06-30 10:23:32			0	34842	0	0	0	25475	24110	153459	26994	1022410	43046	109423	0	0	8113	686179	0	0
2024-06-30 10:24:32			0	34831	0	0	0	25493	24100	153527	27235	1022401	43068	109430	0	0	8112	686718	0	0
2024-06-30 10:25:32			0	34838	0	0	0	25488	24110	153471	27192	1022383	43068	109428	0	0	8113	686360	0	0
2024-06-30 10:26:32			0	34815	0	0	0	25501	24100	153599	27204	1022348	43068	109433	0	0	8111	687446	0	0
2024-06-30 10:27:32			0	34835	0	0	0	25477	24100	153579	27180	1022286	43056	109424	0	0	8113	686536	0	0
2024-06-30 10:28:32			0	34839	0	0	0	25475	24090	153559	26994	1022304	43056	109423	0	0	8113	686392	0	0
2024-06-30 10:29:32			0	34831	0	0	0	25493	24110	153499	26968	1022303	43046	109430	0	0	8112	686679	0	0
2024-06-30 10:30:32			0	34815	0	0	0	25433	24080	153539	27034	1022206	43044	109407	0	0	8112	687524	0	0
2024-06-30 10:31:32			0	34809	0	0	0	25418	24090	153575	26974	1022304	43056	109401	0	0	8112	687758	0	0
2024-06-30 10:32:32			0	34838	0	0	0	25381	24070	153555	27130	1022082	43043	109387	0	0	8115	686515	0	0
2024-06-30 10:33:32			0	34847	0	0	0	25402	24070	153491	27086	1022082	43043	109395	0	0	8115	686106	0	0
2024-06-30 10:34:32			0	34854	0	0	0	25462	24060	153423	27145	1022109	43041	109418	0	0	8114	685826	0	0
2024-06-30 10:35:32			0	34859	0	0	0	25402	24050	153459	26963	1022119	43063	109395	0	0	8115	685638	0	0
2024-06-30 10:36:32			0	34846	0	0	0	25384	24070	153439	26996	1022127	43065	109388	0	0	8115	686151	0	0
2024-06-30 10:37:32			0	34851	0	0	0	25361	24050	153435	27353	1022012	43019	109379	0	0	8116	686001	0	0
2024-06-30 10:38:32			0	34867	0	0	0	25350	24030	153435	27140	1021941	43029	109375	0	0	8116	685351	0	0
2024-06-30 10:39:32			0	34857	0	0	0	25402	24030	153523	27194	1021959	43050	109395	0	0	8115	685806	0	0
2024-06-30 10:40:32			0	34844	0	0	0	25407	24030	153587	27059	1021986	43039	109397	0	0	8114	686397	0	0
2024-06-30 10:41:32			0	34859	0	0	0	25392	24020	153539	27090	1021969	43038	109391	0	0	8115	685754	0	0
2024-06-30 10:42:32			0	34847	0	0	0	25394	24020	153579	27043	1021995	43060	109392	0	0	8115	686299	0	0
2024-06-30 10:43:32			0	34865	0	0	0	25415	24020	153655	27085	1021977	43061	109400	0	0	8115	685481	0	0
2024-06-30 10:44:32			0	34832	0	0	0	25397	24020	153707	26795	1021995	43038	109393	0	0	8114	686982	0	0
2024-06-30 10:45:32			0	34844	0	0	0	25420	24030	153599	26944	1022066	43028	109402	0	0	8114	686397	0	0
2024-06-30 10:46:32			0	34861	0	0	0	25420	24020	153611	27124	1022004	43050	109402	0	0	8115	685663	0	0
2024-06-30 10:47:32			0	34868	0	0	0	25381	24020	153463	26955	1021977	43039	109387	0	0	8116	685345	0	0
2024-06-30 10:48:32			0	34839	0	0	0	25394	24010	153507	27267	1021987	43049	109392	0	0	8114	686702	0	0
2024-06-30 10:49:32			0	34856	0	0	0	25418	24010	153467	26906	1021987	43049	109401	0	0	8115	685929	0	0
2024-06-30 10:50:32			0	34892	0	0	0	25459	24010	153495	26956	1022013	43049	109417	0	0	8116	684293	0	0
2024-06-30 10:51:32			0	34875	0	0	0	25444	24020	153403	27287	1022102	43060	109411	0	0	8115	685027	0	0
2024-06-30 10:52:32			0	34864	0	0	0	25420	24020	153419	27045	1022049	43049	109402	0	0	8115	685527	0	0
2024-06-30 10:53:32			0	34893	0	0	0	25366	24020	153403	27053	1021969	43038	109381	0	0	8118	684209	0	0
2024-06-30 10:54:32			0	34904	0	0	0	25348	24010	153371	27279	1021880	43049	109374	0	0	8118	683749	0	0
2024-06-30 10:55:32			0	34923	0	0	0	25358	24010	153251	27100	1021951	43026	109378	0	0	8119	682887	0	0
2024-06-30 10:56:32			0	34940	0	0	0	25353	24010	153283	27428	1021951	43048	109376	0	0	8120	682117	0	0
2024-06-30 10:57:32			0	34929	0	0	0	25348	24000	153231	27364	1021881	43037	109374	0	0	8120	682654	0	0
2024-06-30 10:58:32			0	34922	0	0	0	25355	23990	153195	27197	1021810	43046	109377	0	0	8119	683010	0	0
2024-06-30 10:59:32			0	34935	0	0	0	25392	24000	153235	27272	1021881	43047	109391	0	0	8119	682382	0	0
2024-06-30 11:00:32			0	34923	0	0	0	25389	24000	153103	27199	1021881	43047	109390	0	0	8119	682926	0	0
2024-06-30 11:01:32			0	34959	0	0	0	25379	23990	153079	27105	1021845	43058	109386	0	0	8121	681334	0	0
2024-06-30 11:02:32			0	34962	0	0	0	25384	24000	153047	27270	1021934	43037	109388	0	0	8121	681160	0	0
2024-06-30 11:03:32			0	34958	0	0	0	25366	24000	153047	27213	1021881	43037	109381	0	0	8121	681341	0	0
2024-06-30 11:04:32			0	34959	0	0	0	25361	23990	153107	27180	1021819	43037	109379	0	0	8121	681334	0	0
2024-06-30 11:05:32			0	34974	0	0	0	25376	23980	152999	27319	1021801	43045	109385	0	0	8122	680694	0	0
2024-06-30 11:06:32			0	35001	0	0	0	25392	23980	152939	27206	1021855	43045	109391	0	0	8123	679475	0	0
2024-06-30 11:07:32			0	34999	0	0	0	25386	23990	152891	27092	1021837	43046	109389	0	0	8123	679526	0	0
2024-06-30 11:08:32			0	34999	0	0	0	25379	23990	152855	27504	1021837	43046	109386	0	0	8123	679526	0	0
2024-06-30 11:09:32			0	35014	0	0	0	25371	23990	152827	27450	1021872	43025	109383	0	0	8124	678850	0	0
2024-06-30 11:10:32			0	35022	0	0	0	25386	23980	152863	27588	1021828	43045	109389	0	0	8124	678527	0	0
2024-06-30 11:11:32			0	35045	0	0	0	25410	24000	152759	27390	1021907	43058	109398	0	0	8125	677414	0	0
2024-06-30 11:12:32			0	35041	0	0	0	25441	23990	152775	27575	1022006	43058	109410	0	0	8124	677632	0	0
2024-06-30 11:13:32			0	35032	0	0	0	25436	24000	152719	27441	1022050	43059	109408	0	0	8124	677999	0	0
2024-06-30 11:14:32			0	35041	0	0	0	25405	24000	152671	27293	1021996	43059	109396	0	0	8125	677594	0	0
2024-06-30 11:15:32			0	35049	0	0	0	25381	24000	152723	27100	1021916	43037	109387	0	0	8126	677234	0	0
2024-06-30 11:16:32			0	35061	0	0	0	25384	24000	152683	27353	1021889	43037	109388	0	0	8126	676693	0	0
2024-06-30 11:17:32			0	35085	0	0	0	25366	23990	152507	27390	1021863	43024	109381	0	0	8128	675652	0	0
2024-06-30 11:18:32			0	35085	0	0	0	25353	23980	152583	27479	1021801	43035	109376	0	0	8128	675690	0	0
2024-06-30 11:19:32			0	35111	0	0	0	25337	23980	152539	27284	1021801	43035	109370	0	0	8130	674522	0	0
2024-06-30 11:20:32			0	35097	0	0	0	25340	23970	152455	27177	1021757	43045	109371	0	0	8129	675189	0	0
2024-06-30 11:21:32			0	35134	0	0	0	25345	23980	152380	27256	1021793	43035	109373	0	0	8131	673490	0	0
2024-06-30 11:22:32			0	35143	0	0	0	25353	23960	152348	27130	1021713	43033	109376	0	0	8131	673162	0	0
2024-06-30 11:23:32			0	35137	0	0	0	25342	23950	152260	27064	1021696	43043	109372	0	0	8131	673469	0	0
2024-06-30 11:24:32			0	35150	0	0	0	25345	23960	152224	27166	1021767	43033	109373	0	0	8132	672848	0	0
2024-06-30 11:25:32			0	35144	0	0	0	25348	23960	152228	27150	1021713	43054	109374	0	0	8131	673117	0	0
2024-06-30 11:26:32			0	35159	0	0	0	25348	23950	152120	27041	1021750	43043	109374	0	0	8132	672483	0	0
2024-06-30 11:27:32			0	35174	0	0	0	25335	23960	152252	27348	1021705	43033	109369	0	0	8133	671773	0	0
2024-06-30 11:28:32			0	35165	0	0	0	25340	23950	152064	27336	1021714	43032	109371	0	0	8133	672214	0	0
2024-06-30 11:29:32			0	35166	0	0	0	25353	23950	152264	27334	1021696	43033	109376	0	0	8132	672169	0	0
2024-06-30 11:30:32			0	35163	0	0	0	25358	23960	152140	27332	1021731	43054	109378	0	0	8132	672266	0	0
2024-06-30 11:31:32			0	35184	0	0	0	25363	23950	152064	27434	1021723	43033	109380	0	0	8133	671363	0	0
2024-06-30 11:32:32			0	35169	0	0	0	25371	23950	152264	27237	1021723	43054	109383	0	0	8132	672035	0	0
2024-06-30 11:33:32			0	35184	0	0	0	25371	23950	152212	26968	1021723	43054	109383	0	0	8133	671363	0	0
2024-06-30 11:34:32			0	35158	0	0	0	25363	23960	152240	27306	1021740	43033	109380	0	0	8132	672490	0	0
2024-06-30 11:35:32			0	35188	0	0	0	25368	23970	152276	27462	1021775	43022	109382	0	0	8133	671109	0	0
2024-06-30 11:36:32			0	35163	0	0	0	25368	23960	152232	27239	1021740	43021	109382	0	0	8132	672266	0	0
2024-06-30 11:37:32			0	35179	0	0	0	25376	23970	152208	27223	1021775	43034	109385	0	0	8133	671511	0	0
2024-06-30 11:38:32			0	35187	0	0	0	25374	23970	152140	27064	1021757	43056	109384	0	0	8133	671153	0	0
2024-06-30 11:39:32			0	35188	0	0	0	25368	23970	152152	27258	1021811	43045	109382	0	0	8133	671109	0	0
2024-06-30 11:40:32			0	35199	0	0	0	25363	23960	152060	27078	1021758	43033	109380	0	0	8134	670654	0	0
2024-06-30 11:41:32			0	35203	0	0	0	25376	23960	152060	27059	1021758	43033	109385	0	0	8134	670476	0	0
2024-06-30 11:42:32			0	35216	0	0	0	25412	23970	152032	27012	1021802	43055	109399	0	0	8134	669857	0	0
2024-06-30 11:43:32			0	35204	0	0	0	25451	23970	152112	27384	1021944	43045	109414	0	0	8133	670393	0	0
2024-06-30 11:44:32			0	35179	0	0	0	25470	23990	152132	27569	1021997	43069	109421	0	0	8131	671436	0	0
2024-06-30 11:45:32			0	35164	0	0	0	25470	24000	152276	27453	1022094	43058	109421	0	0	8130	672069	0	0
2024-06-30 11:46:32			0	35175	0	0	0	25449	24000	152236	27267	1022130	43048	109413	0	0	8131	671577	0	0
2024-06-30 11:47:32			0	35171	0	0	0	25431	24010	152252	27237	1022085	43048	109406	0	0	8132	671718	0	0
2024-06-30 11:48:32			0	35166	0	0	0	25394	24010	152208	27326	1021951	43048	109392	0	0	8132	671942	0	0
2024-06-30 11:49:32			0	35176	0	0	0	25425	24000	152268	27123	1021961	43047	109404	0	0	8132	671532	0	0
2024-06-30 11:50:32			0	35154	0	0	0	25386	24000	152304	27046	1021916	43026	109389	0	0	8131	672517	0	0
2024-06-30 11:51:32			0	35174	0	0	0	25368	23990	152312	27260	1021863	43036	109382	0	0	8133	671659	0	0
2024-06-30 11:52:32			0	35169	0	0	0	25371	23990	152252	27326	1021845	43037	109383	0	0	8132	671883	0	0
2024-06-30 11:53:32			0	35188	0	0	0	25363	23980	152164	27107	1021766	43035	109380	0	0	8134	671071	0	0
2024-06-30 11:54:32			0	35185	0	0	0	25363	23970	152168	27332	1021829	43034	109380	0	0	8133	671243	0	0
2024-06-30 11:55:32			0	35197	0	0	0	25363	23970	152212	27403	1021784	43035	109380	0	0	8134	670706	0	0
2024-06-30 11:56:32			0	35209	0	0	0	25371	23970	152080	27345	1021784	43045	109383	0	0	8134	670170	0	0
2024-06-30 11:57:32			0	35198	0	0	0	25389	23970	152184	27358	1021784	43056	109390	0	0	8134	670661	0	0
2024-06-30 11:58:32			0	35183	0	0	0	25389	23960	152220	27138	1021847	43043	109390	0	0	8133	671370	0	0
2024-06-30 11:59:32			0	35187	0	0	0	25394	23980	152292	27386	1021793	43035	109392	0	0	8133	671115	0	0
2024-06-30 12:00:32			0	35185	0	0	0	25394	23970	152232	27194	1021856	43067	109392	0	0	8133	671243	0	0
2024-06-30 12:01:32			0	35194	0	0	0	25399	23970	152188	27319	1021864	43045	109394	0	0	8133	670840	0	0
2024-06-30 12:02:32			0	35197	0	0	0	25428	23990	152324	27365	1021944	43069	109405	0	0	8133	670630	0	0
2024-06-30 12:03:32			0	35193	0	0	0	25399	23980	152188	27078	1021935	43045	109394	0	0	8133	670847	0	0
2024-06-30 12:04:32			0	35193	0	0	0	25423	23980	152168	27171	1021962	43045	109403	0	0	8133	670847	0	0
2024-06-30 12:05:32			0	35178	0	0	0	25407	23990	152144	27039	1021925	43047	109397	0	0	8132	671480	0	0
2024-06-30 12:06:32			0	35202	0	0	0	25418	23980	152148	27286	1021962	43045	109401	0	0	8133	670445	0	0
2024-06-30 12:07:32			0	35199	0	0	0	25420	23980	152168	27564	1021908	43045	109402	0	0	8133	670579	0	0
2024-06-30 12:08:32			0	35205	0	0	0	25397	23980	151992	27364	1021908	43045	109393	0	0	8134	670311	0	0
2024-06-30 12:09:32			0	35223	0	0	0	25381	23980	151920	27034	1021908	43045	109387	0	0	8135	669507	0	0
2024-06-30 12:10:32			0	35216	0	0	0	25379	23980	151992	27460	1021855	43045	109386	0	0	8135	669819	0	0
2024-06-30 12:11:32			0	35229	0	0	0	25384	23980	151952	27313	1021801	43035	109388	0	0	8135	669239	0	0
2024-06-30 12:12:32			0	35249	0	0	0	25381	23980	151932	27350	1021819	43023	109387	0	0	8137	668346	0	0
2024-06-30 12:13:32			0	35229	0	0	0	25386	23980	151868	27357	1021900	43056	109389	0	0	8135	669239	0	0
2024-06-30 12:14:32			0	35250	0	0	0	25394	23980	151880	27261	1021819	43035	109392	0	0	8136	668302	0	0
2024-06-30 12:15:32			0	35249	0	0	0	25381	23980	151856	27492	1021828	43045	109387	0	0	8137	668346	0	0
2024-06-30 12:16:32			0	35251	0	0	0	25389	23980	151852	27203	1021855	43045	109390	0	0	8136	668257	0	0
2024-06-30 12:17:32			0	35257	0	0	0	25389	23980	151872	27029	1021819	43045	109390	0	0	8137	667990	0	0
2024-06-30 12:18:32			0	35262	0	0	0	25392	23980	151928	27398	1021846	43045	109391	0	0	8137	667767	0	0
2024-06-30 12:19:32			0	35265	0	0	0	25418	23980	151800	27483	1021855	43045	109401	0	0	8137	667633	0	0
2024-06-30 12:20:32			0	35255	0	0	0	25415	23980	151776	27294	1021873	43045	109400	0	0	8136	668079	0	0
2024-06-30 12:21:32			0	35263	0	0	0	25433	23980	151768	27154	1021935	43056	109407	0	0	8136	667722	0	0
2024-06-30 12:22:32			0	35274	0	0	0	25438	23990	151880	27478	1021970	43057	109409	0	0	8137	667195	0	0
2024-06-30 12:23:32			0	35288	0	0	0	25441	23990	151796	27199	1021979	43047	109410	0	0	8138	666571	0	0
2024-06-30 12:24:32			0	35291	0	0	0	25457	24000	151664	27391	1022041	43058	109416	0	0	8138	666400	0	0
2024-06-30 12:25:32			0	35300	0	0	0	25472	24000	151608	27199	1022103	43059	109422	0	0	8138	666000	0	0
2024-06-30 12:26:32			0	35301	0	0	0	25480	24010	151584	27220	1022192	43070	109425	0	0	8138	665918	0	0
2024-06-30 12:27:32			0	35332	0	0	0	25488	24020	151576	27286	1022164	43061	109428	0	0	8139	664502	0	0
2024-06-30 12:28:32			0	35331	0	0	0	25498	24020	151504	27175	1022209	43060	109432	0	0	8139	664547	0	0
2024-06-30 12:29:32			0	35355	0	0	0	25498	24020	151320	27048	1022218	43061	109432	0	0	8140	663482	0	0
2024-06-30 12:30:32			0	35382	0	0	0	25496	24040	151236	27261	1022190	43063	109431	0	0	8142	662210	0	0
2024-06-30 12:31:32			0	35405	0	0	0	25496	24050	151192	27208	1022252	43063	109431	0	0	8143	661155	0	0
2024-06-30 12:32:32			0	35412	0	0	0	25493	24040	151172	27499	1022217	43063	109430	0	0	8144	660883	0	0
2024-06-30 12:33:32			0	35416	0	0	0	25501	24050	151084	27059	1022341	43063	109433	0	0	8144	660668	0	0
2024-06-30 12:34:32			0	35428	0	0	0	25516	24060	150920	27355	1022296	43075	109439	0	0	8144	660101	0	0
2024-06-30 12:35:32			0	35437	0	0	0	25537	24070	151020	27178	1022403	43054	109447	0	0	8144	659666	0	0
2024-06-30 12:36:32			0	35450	0	0	0	25579	24090	150952	27220	1022509	43078	109463	0	0	8144	659018	0	0
2024-06-30 12:37:32			0	35452	0	0	0	25597	24090	150960	27033	1022571	43079	109470	0	0	8144	658929	0	0
2024-06-30 12:38:32			0	35450	0	0	0	25615	24110	150916	27260	1022624	43090	109477	0	0	8144	658943	0	0
2024-06-30 12:39:32			0	35444	0	0	0	25620	24120	150904	27327	1022748	43092	109479	0	0	8144	659171	0	0
2024-06-30 12:40:32			0	35472	0	0	0	25638	24140	150948	27293	1022782	43061	109486	0	0	8145	657862	0	0
2024-06-30 12:41:32			0	35484	0	0	0	25657	24150	150772	27050	1022826	43083	109493	0	0	8145	657296	0	0
2024-06-30 12:42:32			0	35476	0	0	0	25667	24150	150796	27244	1022862	43073	109497	0	0	8145	657648	0	0
2024-06-30 12:43:32			0	35490	0	0	0	25667	24160	150720	27007	1022879	43074	109497	0	0	8145	656995	0	0
2024-06-30 12:44:32			0	35504	0	0	0	25657	24180	150624	27317	1022905	43086	109493	0	0	8146	656304	0	0
2024-06-30 12:45:32			0	35506	0	0	0	25664	24180	150628	27064	1022940	43087	109496	0	0	8146	656216	0	0
2024-06-30 12:46:32			0	35521	0	0	0	25654	24190	150488	27324	1022949	43087	109492	0	0	8147	655520	0	0
2024-06-30 12:47:32			0	35522	0	0	0	25667	24190	150492	27159	1023003	43087	109497	0	0	8147	655476	0	0
2024-06-30 12:48:32			0	35537	0	0	0	25680	24200	150536	27235	1023029	43079	109502	0	0	8148	654780	0	0
2024-06-30 12:49:32			0	35556	0	0	0	25696	24220	150280	27109	1023081	43080	109508	0	0	8149	653872	0	0
2024-06-30 12:50:32			0	35568	0	0	0	25688	24210	150288	27287	1023126	43089	109505	0	0	8150	653383	0	0
2024-06-30 12:51:32			0	35558	0	0	0	25693	24230	150196	27256	1023134	43082	109507	0	0	8149	653748	0	0
2024-06-30 12:52:32			0	35587	0	0	0	25696	24230	150064	26979	1023152	43069	109508	0	0	8150	652476	0	0
2024-06-30 12:53:32			0	35592	0	0	0	25719	24230	150124	27102	1023152	43081	109517	0	0	8150	652257	0	0
2024-06-30 12:54:32			0	35573	0	0	0	25732	24250	150188	27156	1023213	43094	109522	0	0	8149	653016	0	0
2024-06-30 12:55:32			0	35558	0	0	0	25732	24260	150116	27280	1023284	43105	109522	0	0	8148	653637	0	0
2024-06-30 12:56:32			0	35533	0	0	0	25737	24280	150272	27176	1023372	43096	109524	0	0	8147	654660	0	0
2024-06-30 12:57:32			0	35548	0	0	0	25758	24280	150388	27176	1023426	43096	109532	0	0	8148	654002	0	0
2024-06-30 12:58:32			0	35532	0	0	0	25771	24300	150328	27277	1023407	43086	109537	0	0	8147	654630	0	0
2024-06-30 12:59:32			0	35536	0	0	0	25774	24300	150360	27253	1023496	43087	109538	0	0	8147	654454	0	0
2024-06-30 13:00:32			0	35518	0	0	0	25789	24300	150252	27362	1023496	43087	109544	0	0	8146	655245	0	0
2024-06-30 13:01:32			0	35560	0	0	0	25786	24320	150240	27441	1023576	43089	109543	0	0	8148	653328	0	0
2024-06-30 13:02:32			0	35562	0	0	0	25784	24330	150240	27390	1023558	43089	109542	0	0	8148	653203	0	0
2024-06-30 13:03:32			0	35570	0	0	0	25799	24330	150004	27251	1023620	43080	109548	0	0	8148	652853	0	0
2024-06-30 13:04:32			0	35576	0	0	0	25789	24330	150028	27227	1023566	43113	109544	0	0	8149	652590	0	0
2024-06-30 13:05:32			0	35604	0	0	0	25786	24340	150056	27246	1023628	43102	109543	0	0	8150	651327	0	0
2024-06-30 13:06:32			0	35619	0	0	0	25784	24340	149976	27124	1023584	43091	109542	0	0	8151	650672	0	0
2024-06-30 13:07:32			0	35636	0	0	0	25797	24350	149900	27208	1023646	43102	109547	0	0	8152	649892	0	0
2024-06-30 13:08:32			0	35646	0	0	0	25807	24360	149904	27275	1023716	43093	109551	0	0	8152	649419	0	0
2024-06-30 13:09:32			0	35662	0	0	0	25805	24360	149860	27270	1023663	43115	109550	0	0	8153	648721	0	0
2024-06-30 13:10:32			0	35658	0	0	0	25812	24360	149824	27116	1023725	43093	109553	0	0	8153	648895	0	0
2024-06-30 13:11:32			0	35658	0	0	0	25812	24370	149824	27471	1023841	43104	109553	0	0	8153	648859	0	0
2024-06-30 13:12:32			0	35695	0	0	0	25828	24380	149640	27010	1023858	43095	109559	0	0	8155	647210	0	0
2024-06-30 13:13:32			0	35682	0	0	0	25833	24370	149564	27313	1023769	43094	109561	0	0	8154	647812	0	0
2024-06-30 13:14:32			0	35709	0	0	0	25828	24390	149532	27147	1023911	43107	109559	0	0	8156	646564	0	0
2024-06-30 13:15:32			0	35733	0	0	0	25838	24390	149440	27111	1023849	43107	109563	0	0	8157	645520	0	0
2024-06-30 13:16:32			0	35766	0	0	0	25841	24400	149268	27274	1023928	43097	109564	0	0	8158	644051	0	0
2024-06-30 13:17:32			0	35781	0	0	0	25849	24410	149208	27045	1023937	43109	109567	0	0	8159	643365	0	0
2024-06-30 13:18:32			0	35818	0	0	0	25844	24400	149136	27267	1023901	43109	109565	0	0	8161	641798	0	0
2024-06-30 13:19:32			0	35846	0	0	0	25857	24410	148948	27116	1023919	43109	109570	0	0	8162	640551	0	0
2024-06-30 13:20:32			0	35882	0	0	0	25844	24410	148897	27067	1023937	43120	109565	0	0	8165	638997	0	0
2024-06-30 13:21:32			0	35881	0	0	0	25849	24420	148781	27098	1023989	43111	109567	0	0	8164	639004	0	0
2024-06-30 13:22:32			0	35914	0	0	0	25841	24420	148721	27374	1023954	43110	109564	0	0	8166	637582	0	0
2024-06-30 13:23:32			0	35923	0	0	0	25836	24420	148749	27156	1023954	43098	109562	0	0	8167	637194	0	0
2024-06-30 13:24:32			0	35921	0	0	0	25815	24420	148621	27124	1023963	43099	109554	0	0	8167	637281	0	0
2024-06-30 13:25:32			0	35944	0	0	0	25797	24420	148585	27282	1023856	43099	109547	0	0	8169	636291	0	0
2024-06-30 13:26:32			0	35917	0	0	0	25810	24420	148633	27459	1023927	43110	109552	0	0	8167	637453	0	0
2024-06-30 13:27:32			0	35917	0	0	0	25812	24420	148701	27372	1023900	43098	109553	0	0	8167	637453	0	0
2024-06-30 13:28:32			0	35894	0	0	0	25815	24420	148805	27701	1023954	43098	109554	0	0	8166	638444	0	0
2024-06-30 13:29:32			0	35857	0	0	0	25810	24420	148772	27263	1023874	43098	109552	0	0	8164	640040	0	0
2024-06-30 13:30:32			0	35878	0	0	0	25812	24420	148829	27072	1023963	43099	109553	0	0	8165	639134	0	0
2024-06-30 13:31:32			0	35861	0	0	0	25799	24410	148773	27258	1023812	43086	109548	0	0	8164	639904	0	0
2024-06-30 13:32:32			0	35867	0	0	0	25797	24410	148805	27315	1023830	43097	109547	0	0	8165	639644	0	0
2024-06-30 13:33:32			0	35854	0	0	0	25825	24410	148956	27263	1023910	43086	109558	0	0	8163	640206	0	0
2024-06-30 13:34:32			0	35831	0	0	0	25844	24420	148924	27436	1023927	43087	109565	0	0	8162	641164	0	0
2024-06-30 13:35:32			0	35829	0	0	0	25820	24430	149000	27448	1023864	43099	109556	0	0	8162	641214	0	0
2024-06-30 13:36:32			0	35830	0	0	0	25797	24420	149084	27170	1023856	43099	109547	0	0	8163	641207	0	0
2024-06-30 13:37:32			0	35846	0	0	0	25807	24410	148932	27111	1023919	43086	109551	0	0	8163	640551	0	0
2024-06-30 13:38:32			0	35826	0	0	0	25797	24410	149044	27178	1023865	43097	109547	0	0	8162	641416	0	0
2024-06-30 13:39:32			0	35821	0	0	0	25784	24410	149068	27144	1023838	43097	109542	0	0	8162	641632	0	0
2024-06-30 13:40:32			0	35833	0	0	0	25781	24400	149000	27228	1023768	43086	109541	0	0	8163	641150	0	0
2024-06-30 13:41:32			0	35807	0	0	0	25766	24400	149128	27171	1023768	43086	109535	0	0	8162	642274	0	0
2024-06-30 13:42:32			0	35793	0	0	0	25766	24390	149212	27258	1023777	43096	109535	0	0	8161	642917	0	0
2024-06-30 13:43:32			0	35784	0	0	0	25774	24400	149208	26932	1023759	43119	109538	0	0	8160	643271	0	0
2024-06-30 13:44:32			0	35772	0	0	0	25761	24390	149268	27149	1023688	43084	109533	0	0	8160	643828	0	0
2024-06-30 13:45:32			0	35762	0	0	0	25755	24370	149324	27072	1023716	43105	109531	0	0	8159	644334	0	0
2024-06-30 13:46:32			0	35777	0	0	0	25755	24380	149168	27095	1023671	43062	109531	0	0	8160	643647	0	0
2024-06-30 13:47:32			0	35798	0	0	0	25758	24380	149080	26913	1023671	43095	109532	0	0	8161	642737	0	0
2024-06-30 13:48:32			0	35810	0	0	0	25763	24380	149128	27026	1023698	43095	109534	0	0	8162	642217	0	0
2024-06-30 13:49:32			0	35856	0	0	0	25776	24370	149012	27296	1023742	43094	109539	0	0	8164	640264	0	0
2024-06-30 13:50:32			0	35876	0	0	0	25786	24380	148877	27083	1023751	43106	109543	0	0	8165	639365	0	0
2024-06-30 13:51:32			0	35881	0	0	0	25794	24380	148793	27192	1023706	43107	109546	0	0	8165	639149	0	0
2024-06-30 13:52:32			0	35899	0	0	0	25786	24390	148705	26961	1023795	43096	109543	0	0	8166	638337	0	0
2024-06-30 13:53:32			0	35934	0	0	0	25799	24380	148657	27024	1023760	43084	109548	0	0	8168	636865	0	0
2024-06-30 13:54:32			0	35946	0	0	0	25810	24390	148513	27114	1023830	43107	109552	0	0	8168	636313	0	0
2024-06-30 13:55:32			0	35965	0	0	0	25807	24390	148385	27229	1023830	43107	109551	0	0	8170	635496	0	0
2024-06-30 13:56:32			0	35982	0	0	0	25818	24400	148353	27239	1023839	43108	109555	0	0	8170	634730	0	0
2024-06-30 13:57:32			0	36000	0	0	0	25807	24400	148337	27074	1023875	43097	109551	0	0	8171	633958	0	0
2024-06-30 13:58:32			0	36027	0	0	0	25807	24400	148169	27192	1023901	43097	109551	0	0	8173	632800	0	0
2024-06-30 13:59:32			0	36051	0	0	0	25799	24400	148073	27192	1023839	43096	109548	0	0	8174	631773	0	0
2024-06-30 14:00:32			0	36108	0	0	0	25786	24400	147953	26960	1023759	43096	109543	0	0	8177	629337	0	0
2024-06-30 14:01:32			0	36153	0	0	0	25792	24400	147697	26797	1023839	43085	109545	0	0	8180	627419	0	0
2024-06-30 14:02:32			0	36239	0	0	0	25781	24400	147369	26870	1023759	43096	109541	0	0	8184	623765	0	0
2024-06-30 14:03:32			0	36310	0	0	0	25786	24390	147033	27374	1023750	43084	109543	0	0	8188	620794	0	0
2024-06-30 14:04:32			0	36381	0	0	0	25789	24390	146769	27225	1023830	43096	109544	0	0	8192	617798	0	0
2024-06-30 14:05:32			0	36436	0	0	0	25779	24400	146485	27182	1023812	43108	109540	0	0	8195	615450	0	0
2024-06-30 14:06:32			0	36508	0	0	0	25797	24390	146281	26930	1023804	43107	109547	0	0	8198	612465	0	0
2024-06-30 14:07:32			0	36543	0	0	0	25794	24400	146173	27026	1023812	43096	109546	0	0	8200	610966	0	0
2024-06-30 14:08:32			0	36552	0	0	0	25812	24400	146013	27414	1023928	43109	109553	0	0	8200	610590	0	0
2024-06-30 14:09:32			0	36553	0	0	0	25815	24400	146149	26979	1023928	43109	109554	0	0	8200	610548	0	0
2024-06-30 14:10:32			0	36520	0	0	0	25820	24410	146213	27180	1023937	43109	109556	0	0	8199	611893	0	0
2024-06-30 14:11:32			0	36498	0	0	0	25836	24420	146405	27526	1023954	43098	109562	0	0	8197	612780	0	0
2024-06-30 14:12:32			0	36480	0	0	0	25859	24420	146405	27495	1024034	43098	109571	0	0	8196	613534	0	0
2024-06-30 14:13:32			0	36457	0	0	0	25883	24430	146497	27036	1024087	43099	109580	0	0	8194	614464	0	0
2024-06-30 14:14:32			0	36420	0	0	0	25893	24440	146533	26974	1024123	43123	109584	0	0	8192	615983	0	0
2024-06-30 14:15:32			0	36399	0	0	0	25903	24450	146657	27300	1024167	43113	109588	0	0	8191	616831	0	0
2024-06-30 14:16:32			0	36380	0	0	0	25927	24460	146769	27121	1024237	43113	109597	0	0	8190	617596	0	0
2024-06-30 14:17:32			0	36365	0	0	0	25911	24470	146781	27426	1024255	43115	109591	0	0	8189	618193	0	0
2024-06-30 14:18:32			0	36350	0	0	0	25906	24470	146693	27229	1024210	43115	109589	0	0	8189	618825	0	0
2024-06-30 14:19:32			0	36353	0	0	0	25883	24470	146889	27201	1024228	43115	109580	0	0	8189	618699	0	0
2024-06-30 14:20:32			0	36325	0	0	0	25864	24470	146901	27100	1024148	43082	109573	0	0	8188	619880	0	0
2024-06-30 14:21:32			0	36303	0	0	0	25862	24460	147033	27024	1024112	43114	109572	0	0	8187	620844	0	0
2024-06-30 14:22:32			0	36271	0	0	0	25862	24460	147181	27161	1024157	43113	109572	0	0	8185	622198	0	0
2024-06-30 14:23:32			0	36232	0	0	0	25880	24460	147329	27286	1024211	43102	109579	0	0	8183	623850	0	0
2024-06-30 14:24:32			0	36202	0	0	0	25896	24460	147385	26981	1024219	43114	109585	0	0	8181	625123	0	0
2024-06-30 14:25:32			0	36180	0	0	0	25906	24480	147521	26984	1024307	43116	109589	0	0	8180	625987	0	0
2024-06-30 14:26:32			0	36171	0	0	0	25893	24480	147605	26974	1024281	43116	109584	0	0	8179	626370	0	0
2024-06-30 14:27:32			0	36148	0	0	0	25885	24480	147637	27232	1024272	43104	109581	0	0	8178	627348	0	0
2024-06-30 14:28:32			0	36144	0	0	0	25890	24480	147725	27050	1024227	43105	109583	0	0	8178	627519	0	0
2024-06-30 14:29:32			0	36135	0	0	0	25890	24480	147609	27208	1024218	43115	109583	0	0	8178	627902	0	0
2024-06-30 14:30:32			0	36120	0	0	0	25872	24480	147765	26911	1024254	43105	109576	0	0	8177	628541	0	0
2024-06-30 14:31:32			0	36104	0	0	0	25896	24470	147817	27256	1024290	43115	109585	0	0	8176	629259	0	0
2024-06-30 14:32:32			0	36095	0	0	0	25916	24490	147853	27183	1024325	43106	109593	0	0	8175	629572	0	0
2024-06-30 14:33:32			0	36097	0	0	0	25924	24490	147785	27518	1024325	43117	109596	0	0	8175	629486	0	0
2024-06-30 14:34:32			0	36093	0	0	0	25922	24500	147909	27154	1024369	43118	109595	0	0	8175	629622	0	0
2024-06-30 14:35:32			0	36098	0	0	0	25906	24490	147877	27249	1024351	43117	109589	0	0	8175	629444	0	0
2024-06-30 14:36:32			0	36081	0	0	0	25929	24510	147937	27374	1024440	43119	109598	0	0	8174	630098	0	0
2024-06-30 14:37:32			0	36086	0	0	0	25942	24520	147853	27185	1024502	43120	109603	0	0	8174	629849	0	0
2024-06-30 14:38:32			0	36082	0	0	0	25948	24520	147893	27274	1024457	43130	109605	0	0	8174	630020	0	0
2024-06-30 14:39:32			0	36067	0	0	0	25963	24520	147957	27209	1024537	43120	109611	0	0	8173	630660	0	0
2024-06-30 14:40:32			0	36074	0	0	0	25971	24540	148005	27339	1024563	43122	109614	0	0	8173	630290	0	0
2024-06-30 14:41:32			0	36090	0	0	0	25979	24540	147905	27282	1024643	43132	109617	0	0	8174	629607	0	0
2024-06-30 14:42:32			0	36082	0	0	0	25979	24550	147861	27267	1024562	43112	109617	0	0	8174	629913	0	0
2024-06-30 14:43:32			0	36097	0	0	0	25955	24540	147885	27235	1024545	43110	109608	0	0	8175	629308	0	0
2024-06-30 14:44:32			0	36104	0	0	0	25961	24550	147773	27284	1024554	43111	109610	0	0	8175	628974	0	0
2024-06-30 14:45:32			0	36109	0	0	0	25968	24540	147645	27029	1024625	43099	109613	0	0	8175	628797	0	0
2024-06-30 14:46:32			0	36129	0	0	0	25968	24550	147581	26989	1024669	43112	109613	0	0	8176	627909	0	0
2024-06-30 14:47:32			0	36145	0	0	0	25981	24560	147721	27459	1024678	43124	109618	0	0	8177	627192	0	0
2024-06-30 14:48:32			0	36151	0	0	0	25984	24560	147537	27244	1024732	43134	109619	0	0	8177	626937	0	0
2024-06-30 14:49:32			0	36152	0	0	0	25976	24570	147501	26899	1024669	43102	109616	0	0	8177	626859	0	0
2024-06-30 14:50:32			0	36145	0	0	0	25968	24560	147605	26989	1024651	43112	109613	0	0	8177	627192	0	0
2024-06-30 14:51:32			0	36136	0	0	0	25971	24570	147713	27275	1024669	43125	109614	0	0	8177	627540	0	0
2024-06-30 14:52:32			0	36141	0	0	0	25958	24570	147661	27045	1024722	43125	109609	0	0	8177	627327	0	0
2024-06-30 14:53:32			0	36134	0	0	0	25963	24560	147725	27064	1024633	43112	109611	0	0	8177	627660	0	0
2024-06-30 14:54:32			0	36104	0	0	0	25961	24570	147653	27251	1024731	43114	109610	0	0	8175	628903	0	0
2024-06-30 14:55:32			0	36088	0	0	0	25963	24570	147913	27007	1024696	43113	109611	0	0	8174	629586	0	0
2024-06-30 14:56:32			0	36105	0	0	0	25971	24570	147909	27270	1024722	43102	109614	0	0	8175	628861	0	0
2024-06-30 14:57:32			0	36076	0	0	0	25968	24570	147905	27455	1024731	43125	109613	0	0	8173	630098	0	0
2024-06-30 14:58:32			0	36064	0	0	0	25981	24570	148025	27573	1024731	43114	109618	0	0	8173	630610	0	0
2024-06-30 14:59:32			0	36050	0	0	0	25994	24580	148053	27357	1024802	43125	109623	0	0	8172	631173	0	0
2024-06-30 15:00:32			0	36028	0	0	0	25994	24580	148193	27199	1024775	43125	109623	0	0	8171	632114	0	0
2024-06-30 15:01:32			0	36013	0	0	0	25999	24590	148237	27137	1024846	43116	109625	0	0	8170	632720	0	0
2024-06-30 15:02:32			0	36006	0	0	0	25999	24590	148285	27145	1024792	43116	109625	0	0	8169	633020	0	0
2024-06-30 15:03:32			0	35992	0	0	0	26007	24600	148257	27267	1024854	43126	109628	0	0	8168	633584	0	0
2024-06-30 15:04:32			0	35987	0	0	0	26002	24590	148309	27164	1024846	43138	109626	0	0	8168	633834	0	0
2024-06-30 15:05:32			0	35970	0	0	0	26005	24600	148337	27436	1024828	43116	109627	0	0	8167	634527	0	0
2024-06-30 15:06:32			0	35957	0	0	0	25999	24600	148313	27393	1024890	43127	109625	0	0	8167	635085	0	0
2024-06-30 15:07:32			0	35937	0	0	0	26018	24600	148353	27076	1024836	43139	109632	0	0	8165	635944	0	0
2024-06-30 15:08:32			0	35958	0	0	0	26031	24620	148501	27417	1024961	43140	109637	0	0	8166	634971	0	0
2024-06-30 15:09:32			0	35926	0	0	0	26049	24620	148469	27492	1025014	43128	109644	0	0	8164	636345	0	0
2024-06-30 15:10:32			0	35918	0	0	0	26041	24620	148445	27211	1025050	43129	109641	0	0	8164	636689	0	0
2024-06-30 15:11:32			0	35926	0	0	0	26023	24630	148557	27242	1025005	43119	109634	0	0	8165	636309	0	0
2024-06-30 15:12:32			0	35926	0	0	0	26010	24630	148565	27307	1025040	43129	109629	0	0	8165	636309	0	0
2024-06-30 15:13:32			0	35922	0	0	0	26007	24630	148465	27261	1024987	43129	109628	0	0	8165	636481	0	0
2024-06-30 15:14:32			0	35909	0	0	0	26012	24620	148597	27438	1024916	43129	109630	0	0	8164	637076	0	0
2024-06-30 15:15:32			0	35894	0	0	0	25984	24620	148617	27486	1024889	43129	109619	0	0	8164	637722	0	0
2024-06-30 15:16:32			0	35913	0	0	0	25981	24600	148573	27621	1024863	43117	109618	0	0	8165	636977	0	0
2024-06-30 15:17:32			0	35892	0	0	0	25979	24620	148525	27433	1024800	43118	109617	0	0	8164	637808	0	0
2024-06-30 15:18:32			0	35918	0	0	0	25973	24610	148545	27429	1024925	43117	109615	0	0	8165	636725	0	0
2024-06-30 15:19:32			0	35902	0	0	0	26002	24610	148561	27353	1024899	43139	109626	0	0	8164	637414	0	0
2024-06-30 15:20:32			0	35893	0	0	0	26007	24610	148665	27317	1024952	43127	109628	0	0	8163	637801	0	0
2024-06-30 15:21:32			0	35886	0	0	0	26007	24620	148637	27220	1024934	43118	109628	0	0	8163	638067	0	0
2024-06-30 15:22:32			0	35889	0	0	0	26002	24610	148585	27187	1024818	43127	109626	0	0	8163	637974	0	0
2024-06-30 15:23:32			0	35891	0	0	0	25986	24600	148645	27241	1024810	43139	109620	0	0	8163	637924	0	0
2024-06-30 15:24:32			0	35883	0	0	0	25989	24620	148657	27270	1024880	43128	109621	0	0	8163	638196	0	0
2024-06-30 15:25:32			0	35894	0	0	0	25999	24610	148649	27111	1024872	43127	109625	0	0	8163	637758	0	0
2024-06-30 15:26:32			0	35880	0	0	0	25994	24620	148681	27024	1024934	43118	109623	0	0	8163	638325	0	0
2024-06-30 15:27:32			0	35874	0	0	0	25992	24610	148705	27272	1024952	43106	109622	0	0	8163	638620	0	0
2024-06-30 15:28:32			0	35886	0	0	0	25981	24610	148589	27083	1024872	43117	109618	0	0	8163	638103	0	0
2024-06-30 15:29:32			0	35875	0	0	0	25932	24590	148597	27256	1024739	43105	109599	0	0	8163	638649	0	0
2024-06-30 15:30:32			0	35886	0	0	0	25922	24600	148565	26948	1024756	43106	109595	0	0	8164	638139	0	0
2024-06-30 15:31:32			0	35867	0	0	0	25966	24600	148661	27161	1024881	43105	109612	0	0	8163	638958	0	0
2024-06-30 15:32:32			0	35873	0	0	0	25963	24600	148717	27412	1024836	43117	109611	0	0	8163	638699	0	0
2024-06-30 15:33:32			0	35871	0	0	0	25963	24590	148705	27324	1024757	43115	109611	0	0	8163	638821	0	0
2024-06-30 15:34:32			0	35861	0	0	0	26015	24600	148724	27074	1024943	43127	109631	0	0	8161	639216	0	0
2024-06-30 15:35:32			0	35867	0	0	0	26083	24620	148841	27157	1025068	43128	109657	0	0	8161	638885	0	0
2024-06-30 15:36:32			0	35840	0	0	0	26124	24640	148796	27402	1025209	43153	109673	0	0	8159	639978	0	0
2024-06-30 15:37:32			0	35855	0	0	0	26064	24650	148893	27242	1025120	43142	109650	0	0	8160	639294	0	0
2024-06-30 15:38:32			0	35839	0	0	0	26010	24650	148760	27308	1025066	43109	109629	0	0	8161	639985	0	0
2024-06-30 15:39:32			0	35863	0	0	0	25958	24640	148733	27287	1024942	43097	109609	0	0	8163	638986	0	0
2024-06-30 15:40:32			0	35861	0	0	0	25945	24620	148613	26720	1024773	43084	109604	0	0	8163	639144	0	0
2024-06-30 15:41:32			0	35854	0	0	0	25945	24600	148616	27161	1024756	43106	109604	0	0	8162	639518	0	0
2024-06-30 15:42:32			0	35861	0	0	0	25937	24590	148705	27258	1024739	43093	109601	0	0	8163	639253	0	0
2024-06-30 15:43:32			0	35867	0	0	0	25945	24600	148709	27177	1024747	43116	109604	0	0	8163	638958	0	0
2024-06-30 15:44:32			0	35876	0	0	0	25937	24590	148785	27248	1024685	43105	109601	0	0	8163	638606	0	0
2024-06-30 15:45:32			0	35864	0	0	0	25922	24580	148661	27300	1024668	43104	109595	0	0	8163	639159	0	0
2024-06-30 15:46:32			0	35872	0	0	0	25929	24580	148653	27249	1024668	43115	109598	0	0	8163	638814	0	0
2024-06-30 15:47:32			0	35859	0	0	0	25940	24590	148600	27244	1024703	43115	109602	0	0	8163	639339	0	0
2024-06-30 15:48:32			0	35853	0	0	0	25932	24580	148656	26883	1024713	43114	109599	0	0	8162	639634	0	0
2024-06-30 15:49:32			0	35839	0	0	0	25932	24580	148692	27157	1024740	43103	109599	0	0	8162	640238	0	0
2024-06-30 15:50:32			0	35850	0	0	0	25927	24580	148840	27000	1024633	43103	109597	0	0	8162	639763	0	0
2024-06-30 15:51:32			0	35837	0	0	0	25922	24570	148840	26953	1024669	43102	109595	0	0	8162	640361	0	0
2024-06-30 15:52:32			0	35832	0	0	0	25922	24570	148916	26967	1024615	43102	109595	0	0	8161	640577	0	0
2024-06-30 15:53:32			0	35792	0	0	0	25916	24560	148936	27178	1024553	43112	109593	0	0	8159	642343	0	0
2024-06-30 15:54:32			0	35801	0	0	0	25919	24560	148968	26958	1024633	43101	109594	0	0	8160	641953	0	0
2024-06-30 15:55:32			0	35781	0	0	0	25935	24570	149080	27157	1024615	43125	109600	0	0	8158	642783	0	0
2024-06-30 15:56:32			0	35758	0	0	0	25927	24570	149140	27067	1024642	43102	109597	0	0	8157	643779	0	0
2024-06-30 15:57:32			0	35730	0	0	0	25914	24560	149212	27164	1024580	43090	109592	0	0	8156	645031	0	0
2024-06-30 15:58:32			0	35703	0	0	0	25919	24550	149336	27055	1024589	43112	109594	0	0	8154	646240	0	0
2024-06-30 15:59:32			0	35697	0	0	0	25922	24560	149488	26977	1024633	43112	109595	0	0	8154	646465	0	0
2024-06-30 16:00:32			0	35654	0	0	0	25932	24560	149664	26823	1024625	43101	109599	0	0	8152	648336	0	0
2024-06-30 16:01:32			0	35618	0	0	0	25940	24560	149704	27138	1024687	43101	109602	0	0	8150	649907	0	0
2024-06-30 16:02:32			0	35604	0	0	0	25963	24560	149884	27166	1024687	43112	109611	0	0	8148	650518	0	0
2024-06-30 16:03:32			0	35580	0	0	0	25968	24570	150032	26833	1024749	43125	109613	0	0	8147	651530	0	0
2024-06-30 16:04:32			0	35555	0	0	0	25961	24560	150120	27074	1024687	43112	109610	0	0	8146	652661	0	0
2024-06-30 16:05:32			0	35536	0	0	0	25955	24570	150140	26819	1024722	43102	109608	0	0	8145	653456	0	0
2024-06-30 16:06:32			0	35529	0	0	0	25958	24580	150188	26942	1024713	43114	109609	0	0	8145	653726	0	0
2024-06-30 16:07:32			0	35553	0	0	0	25950	24570	150188	26909	1024731	43103	109606	0	0	8146	652711	0	0
2024-06-30 16:08:32			0	35537	0	0	0	25955	24590	150132	26902	1024810	43104	109608	0	0	8145	653339	0	0
2024-06-30 16:09:32			0	35522	0	0	0	25984	24580	150024	27161	1024793	43114	109619	0	0	8144	654033	0	0
2024-06-30 16:10:32			0	35523	0	0	0	25984	24590	150096	27093	1024837	43115	109619	0	0	8144	653952	0	0
2024-06-30 16:11:32			0	35529	0	0	0	25976	24580	150052	27284	1024766	43103	109616	0	0	8144	653726	0	0
2024-06-30 16:12:32			0	35506	0	0	0	25971	24570	150064	26956	1024784	43114	109614	0	0	8143	654772	0	0
2024-06-30 16:13:32			0	35517	0	0	0	25966	24580	150092	27346	1024748	43092	109612	0	0	8144	654253	0	0
2024-06-30 16:14:32			0	35511	0	0	0	25992	24580	150112	26967	1024802	43137	109622	0	0	8143	654516	0	0
2024-06-30 16:15:32			0	35503	0	0	0	26010	24590	150272	27588	1024873	43126	109629	0	0	8142	654830	0	0
2024-06-30 16:16:32			0	35513	0	0	0	26025	24600	150152	27081	1024908	43105	109635	0	0	8143	654354	0	0
2024-06-30 16:17:32			0	35506	0	0	0	26036	24600	150264	27360	1024970	43117	109639	0	0	8142	654661	0	0
2024-06-30 16:18:32			0	35510	0	0	0	26044	24620	150264	27531	1025050	43129	109642	0	0	8142	654411	0	0
2024-06-30 16:19:32			0	35506	0	0	0	26046	24630	150220	27121	1025031	43119	109643	0	0	8142	654550	0	0
2024-06-30 16:20:32			0	35480	0	0	0	26025	24630	150300	27038	1025031	43119	109635	0	0	8141	655691	0	0
2024-06-30 16:21:32			0	35492	0	0	0	26023	24630	150268	27017	1025058	43107	109634	0	0	8142	655164	0	0
2024-06-30 16:22:32			0	35498	0	0	0	26023	24640	150236	27291	1025049	43130	109634	0	0	8142	654864	0	0
2024-06-30 16:23:32			0	35524	0	0	0	26018	24630	150244	27053	1025040	43119	109632	0	0	8143	653761	0	0
2024-06-30 16:24:32			0	35505	0	0	0	26015	24630	150236	27393	1025040	43119	109631	0	0	8143	654594	0	0
2024-06-30 16:25:32			0	35499	0	0	0	26031	24640	150276	27459	1025076	43120	109637	0	0	8142	654820	0	0
2024-06-30 16:26:32			0	35517	0	0	0	26033	24640	150216	27715	1025102	43130	109638	0	0	8143	654030	0	0
2024-06-30 16:27:32			0	35494	0	0	0	26041	24650	150188	27341	1025120	43121	109641	0	0	8142	655002	0	0
2024-06-30 16:28:32			0	35518	0	0	0	26036	24650	150228	27448	1025093	43121	109639	0	0	8143	653949	0	0
2024-06-30 16:29:32			0	35512	0	0	0	26028	24640	150116	27232	1025111	43109	109636	0	0	8143	654250	0	0
2024-06-30 16:30:32			0	35540	0	0	0	26044	24640	150140	26748	1025156	43108	109642	0	0	8144	653022	0	0
2024-06-30 16:31:32			0	35533	0	0	0	26070	24640	150136	26909	1025138	43131	109652	0	0	8143	653329	0	0
2024-06-30 16:32:32			0	35549	0	0	0	26098	24660	150152	27211	1025271	43122	109663	0	0	8144	652554	0	0
2024-06-30 16:33:32			0	35554	0	0	0	26122	24670	150112	27334	1025404	43134	109672	0	0	8144	652299	0	0
2024-06-30 16:34:32			0	35544	0	0	0	26129	24680	150004	27045	1025421	43135	109675	0	0	8143	652699	0	0
2024-06-30 16:35:32			0	35552	0	0	0	26137	24690	149936	27206	1025484	43124	109678	0	0	8143	652312	0	0
2024-06-30 16:36:32			0	35564	0	0	0	26127	24700	149972	27215	1025474	43137	109674	0	0	8144	651750	0	0
2024-06-30 16:37:32			0	35587	0	0	0	26148	24700	149808	27187	1025536	43125	109682	0	0	8145	650745	0	0
2024-06-30 16:38:32			0	35597	0	0	0	26168	24710	149848	27166	1025518	43125	109690	0	0	8145	650272	0	0
2024-06-30 16:39:32			0	35626	0	0	0	26158	24720	149716	27294	1025571	43127	109686	0	0	8147	648970	0	0
2024-06-30 16:40:32			0	35621	0	0	0	26174	24730	149668	26935	1025687	43139	109692	0	0	8146	649151	0	0
2024-06-30 16:41:32			0	35648	0	0	0	26189	24740	149596	27107	1025713	43129	109698	0	0	8148	647938	0	0
2024-06-30 16:42:32			0	35644	0	0	0	26223	24760	149544	27215	1025774	43154	109711	0	0	8147	648038	0	0
2024-06-30 16:43:32			0	35656	0	0	0	26238	24760	149636	27407	1025881	43154	109717	0	0	8147	647516	0	0
2024-06-30 16:44:32			0	35654	0	0	0	26225	24770	149520	27164	1025836	43143	109712	0	0	8148	647566	0	0
2024-06-30 16:45:32			0	35662	0	0	0	26236	24780	149480	27215	1025934	43144	109716	0	0	8148	647182	0	0
2024-06-30 16:46:32			0	35667	0	0	0	26254	24790	149488	27017	1025978	43145	109723	0	0	8148	646927	0	0
2024-06-30 16:47:32			0	35652	0	0	0	26277	24800	149428	27440	1026031	43147	109732	0	0	8147	647543	0	0
2024-06-30 16:48:32			0	35685	0	0	0	26301	24820	149464	27433	1026199	43160	109741	0	0	8148	646035	0	0
2024-06-30 16:49:32			0	35698	0	0	0	26324	24830	149420	27150	1026217	43161	109750	0	0	8149	645434	0	0
2024-06-30 16:50:32			0	35713	0	0	0	26335	24850	149376	27218	1026243	43163	109754	0	0	8149	644710	0	0
2024-06-30 16:51:32			0	35721	0	0	0	26353	24870	149224	27647	1026438	43165	109761	0	0	8149	644290	0	0
2024-06-30 16:52:32			0	35746	0	0	0	26345	24870	149156	27111	1026331	43153	109758	0	0	8151	643207	0	0
2024-06-30 16:53:32			0	35750	0	0	0	26337	24880	149140	27130	1026402	43142	109755	0	0	8151	642997	0	0
2024-06-30 16:54:32			0	35759	0	0	0	26322	24880	149040	27164	1026357	43154	109749	0	0	8152	642607	0	0
2024-06-30 16:55:32			0	35779	0	0	0	26327	24890	149064	27324	1026392	43166	109751	0	0	8153	641706	0	0
2024-06-30 16:56:32			0	35772	0	0	0	26332	24900	148764	27230	1026383	43145	109753	0	0	8153	641972	0	0
2024-06-30 16:57:32			0	35806	0	0	0	26342	24900	148848	27267	1026499	43156	109757	0	0	8154	640503	0	0
2024-06-30 16:58:32			0	35805	0	0	0	26350	24910	148820	27138	1026507	43157	109760	0	0	8154	640510	0	0
2024-06-30 16:59:32			0	35789	0	0	0	26358	24920	148792	27147	1026551	43147	109763	0	0	8153	641165	0	0
2024-06-30 17:00:32			0	35835	0	0	0	26348	24920	148732	26816	1026525	43168	109759	0	0	8156	639179	0	0
2024-06-30 17:01:32			0	35850	0	0	0	26355	24920	148636	27215	1026516	43158	109762	0	0	8156	638533	0	0
2024-06-30 17:02:32			0	35845	0	0	0	26337	24920	148576	27024	1026551	43158	109755	0	0	8157	638748	0	0
2024-06-30 17:03:32			0	35866	0	0	0	26324	24930	148541	26981	1026435	43159	109750	0	0	8158	637808	0	0
2024-06-30 17:04:32			0	35881	0	0	0	26332	24920	148457	27152	1026471	43136	109753	0	0	8159	637199	0	0
2024-06-30 17:05:32			0	35895	0	0	0	26319	24930	148457	26904	1026506	43158	109748	0	0	8160	636561	0	0
2024-06-30 17:06:32			0	35912	0	0	0	26335	24920	148365	27048	1026578	43168	109754	0	0	8160	635866	0	0
2024-06-30 17:07:32			0	35921	0	0	0	26376	24930	148373	27201	1026623	43169	109770	0	0	8160	635444	0	0
2024-06-30 17:08:32			0	35940	0	0	0	26449	24950	148217	27059	1026818	43171	109798	0	0	8160	634557	0	0
2024-06-30 17:09:32			0	35940	0	0	0	26493	24970	148213	26937	1026978	43173	109815	0	0	8159	634485	0	0
2024-06-30 17:10:32			0	35959	0	0	0	26501	24990	148217	26946	1027101	43186	109818	0	0	8160	633599	0	0
2024-06-30 17:11:32			0	35963	0	0	0	26496	25010	148125	27033	1027101	43177	109816	0	0	8160	633355	0	0
2024-06-30 17:12:32			0	35967	0	0	0	26475	25020	148117	27055	1027145	43166	109808	0	0	8161	633148	0	0
2024-06-30 17:13:32			0	35973	0	0	0	26467	25020	147989	27039	1027118	43166	109805	0	0	8162	632891	0	0
2024-06-30 17:14:32			0	35975	0	0	0	26477	25040	148013	26871	1027153	43180	109809	0	0	8162	632734	0	0
2024-06-30 17:15:32			0	35993	0	0	0	26464	25040	147925	27012	1027206	43158	109804	0	0	8163	631964	0	0
2024-06-30 17:16:32			0	35995	0	0	0	26477	25050	147893	27216	1027206	43160	109809	0	0	8163	631843	0	0
2024-06-30 17:17:32			0	35998	0	0	0	26467	25050	147937	27253	1027206	43170	109805	0	0	8163	631715	0	0
2024-06-30 17:18:32			0	36026	0	0	0	26420	25050	147853	27126	1027143	43160	109787	0	0	8165	630519	0	0
2024-06-30 17:19:32			0	36044	0	0	0	26384	25050	147681	27154	1027045	43149	109773	0	0	8167	629751	0	0
2024-06-30 17:20:32			0	36093	0	0	0	26373	25030	147561	27104	1027028	43158	109769	0	0	8170	627735	0	0
2024-06-30 17:21:32			0	36151	0	0	0	26379	25040	147429	27012	1027046	43147	109771	0	0	8173	625235	0	0
2024-06-30 17:22:32			0	36195	0	0	0	26399	25040	147105	27029	1027028	43136	109779	0	0	8175	623370	0	0
2024-06-30 17:23:32			0	36210	0	0	0	26402	25030	147073	26712	1027037	43147	109780	0	0	8175	622770	0	0
2024-06-30 17:24:32			0	36189	0	0	0	26420	25030	147081	26963	1027028	43168	109787	0	0	8174	623659	0	0
2024-06-30 17:25:32			0	36186	0	0	0	26457	25050	147145	27034	1027260	43182	109801	0	0	8173	623716	0	0
2024-06-30 17:26:32			0	36173	0	0	0	26589	25080	147257	26981	1027553	43196	109852	0	0	8170	624160	0	0
2024-06-30 17:27:32			0	36120	0	0	0	26690	25110	147553	26876	1027757	43209	109891	0	0	8166	626302	0	0
2024-06-30 17:28:32			0	36091	0	0	0	26711	25150	147625	27225	1027942	43213	109899	0	0	8164	627393	0	0
2024-06-30 17:29:32			0	36070	0	0	0	26729	25180	147625	27258	1028093	43227	109906	0	0	8163	628179	0	0
2024-06-30 17:30:32			0	36082	0	0	0	26696	25190	147601	27284	1028003	43195	109893	0	0	8164	627633	0	0
2024-06-30 17:31:32			0	36114	0	0	0	26680	25210	147369	27390	1028064	43185	109887	0	0	8166	626202	0	0
2024-06-30 17:32:32			0	36161	0	0	0	26703	25230	147221	27085	1028179	43210	109896	0	0	8168	624137	0	0
2024-06-30 17:33:32			0	36198	0	0	0	26709	25240	147057	27182	1028170	43200	109898	0	0	8170	622536	0	0
2024-06-30 17:34:32			0	36199	0	0	0	26709	25240	147001	27057	1028188	43199	109898	0	0	8170	622494	0	0
2024-06-30 17:35:32			0	36205	0	0	0	26711	25250	146873	27066	1028179	43189	109899	0	0	8171	622205	0	0
2024-06-30 17:36:32			0	36217	0	0	0	26698	25270	146817	27074	1028240	43191	109894	0	0	8172	621627	0	0
2024-06-30 17:37:32			0	36244	0	0	0	26662	25270	146821	27279	1028186	43202	109880	0	0	8174	620487	0	0
2024-06-30 17:38:32			0	36250	0	0	0	26638	25260	146817	27017	1028124	43191	109871	0	0	8174	620269	0	0
2024-06-30 17:39:32			0	36240	0	0	0	26649	25260	146729	26949	1028124	43179	109875	0	0	8174	620691	0	0
2024-06-30 17:40:32			0	36245	0	0	0	26664	25260	146877	27325	1028205	43179	109881	0	0	8174	620480	0	0
2024-06-30 17:41:32			0	36263	0	0	0	26683	25280	146841	27190	1028204	43181	109888	0	0	8174	619651	0	0
2024-06-30 17:42:32			0	36234	0	0	0	26690	25280	146821	27315	1028177	43181	109891	0	0	8173	620874	0	0
2024-06-30 17:43:32			0	36216	0	0	0	26685	25270	146917	27275	1028195	43180	109889	0	0	8172	621669	0	0
2024-06-30 17:44:32			0	36230	0	0	0	26677	25270	146825	27305	1028195	43192	109886	0	0	8173	621078	0	0
2024-06-30 17:45:32			0	36229	0	0	0	26677	25280	146781	27421	1028177	43193	109886	0	0	8173	621085	0	0
2024-06-30 17:46:32			0	36238	0	0	0	26664	25280	146977	27405	1028212	43204	109881	0	0	8173	620705	0	0
2024-06-30 17:47:32			0	36237	0	0	0	26659	25270	146893	27055	1028195	43180	109879	0	0	8173	620783	0	0
2024-06-30 17:48:32			0	36254	0	0	0	26615	25270	146773	27265	1028079	43168	109862	0	0	8175	620065	0	0
2024-06-30 17:49:32			0	36273	0	0	0	26561	25260	146653	27010	1027928	43167	109841	0	0	8177	619300	0	0
2024-06-30 17:50:32			0	36362	0	0	0	26555	25240	146313	27282	1027867	43155	109839	0	0	8182	615628	0	0
2024-06-30 17:51:32			0	36427	0	0	0	26571	25240	145989	27230	1027867	43166	109845	0	0	8185	612905	0	0
2024-06-30 17:52:32			0	36498	0	0	0	26568	25240	145873	27215	1027893	43177	109844	0	0	8188	609940	0	0
2024-06-30 17:53:32			0	36551	0	0	0	26519	25230	145689	27102	1027822	43176	109825	0	0	8192	607768	0	0
2024-06-30 17:54:32			0	36561	0	0	0	26545	25210	145561	27220	1027850	43185	109835	0	0	8192	607421	0	0
2024-06-30 17:55:32			0	36573	0	0	0	26555	25220	145549	27293	1027814	43165	109839	0	0	8193	606888	0	0
2024-06-30 17:56:32			0	36579	0	0	0	26548	25210	145489	27396	1027788	43185	109836	0	0	8193	606673	0	0
2024-06-30 17:57:32			0	36589	0	0	0	26563	25200	145494	27010	1027726	43185	109842	0	0	8193	606292	0	0
2024-06-30 17:58:32			0	36583	0	0	0	26524	25200	145389	26866	1027663	43173	109827	0	0	8194	606541	0	0
2024-06-30 17:59:32			0	36594	0	0	0	26477	25190	145377	27177	1027655	43172	109809	0	0	8195	606119	0	0
2024-06-30 18:00:32			0	36607	0	0	0	26509	25180	145394	27339	1027646	43183	109821	0	0	8195	605614	0	0
2024-06-30 18:01:32			0	36603	0	0	0	26550	25190	145554	27109	1027708	43183	109837	0	0	8194	605745	0	0
2024-06-30 18:02:32			0	36578	0	0	0	26542	25180	145481	27222	1027753	43172	109834	0	0	8193	606818	0	0
2024-06-30 18:03:32			0	36580	0	0	0	26545	25180	145593	27310	1027726	43183	109835	0	0	8193	606735	0	0
2024-06-30 18:04:32			0	36592	0	0	0	26514	25180	145634	27173	1027718	43161	109823	0	0	8194	606236	0	0
2024-06-30 18:05:32			0	36597	0	0	0	26501	25170	145566	27343	1027628	43171	109818	0	0	8195	606063	0	0
2024-06-30 18:06:32			0	36571	0	0	0	26509	25170	145477	27215	1027628	43182	109821	0	0	8193	607143	0	0
2024-06-30 18:07:32			0	36616	0	0	0	26496	25160	145386	27398	1027549	43169	109816	0	0	8196	605309	0	0
2024-06-30 18:08:32			0	36595	0	0	0	26503	25160	145377	27436	1027602	43192	109819	0	0	8194	606181	0	0
2024-06-30 18:09:32			0	36609	0	0	0	26506	25170	145446	27140	1027727	43193	109820	0	0	8195	605565	0	0
2024-06-30 18:10:32			0	36624	0	0	0	26519	25170	145462	27258	1027709	43182	109825	0	0	8196	604943	0	0
2024-06-30 18:11:32			0	36614	0	0	0	26529	25180	145486	26864	1027691	43182	109829	0	0	8195	605324	0	0
2024-06-30 18:12:32			0	36613	0	0	0	26527	25170	145446	26840	1027700	43181	109828	0	0	8195	605399	0	0
2024-06-30 18:13:32			0	36611	0	0	0	26519	25170	145346	27017	1027682	43171	109825	0	0	8195	605482	0	0
2024-06-30 18:14:32			0	36631	0	0	0	26522	25170	145426	27024	1027655	43171	109826	0	0	8196	604653	0	0
2024-06-30 18:15:32			0	36627	0	0	0	26529	25160	145358	27350	1027664	43170	109829	0	0	8196	604853	0	0
2024-06-30 18:16:32			0	36660	0	0	0	26550	25170	145294	27192	1027673	43170	109837	0	0	8197	603452	0	0
2024-06-30 18:17:32			0	36670	0	0	0	26574	25170	145318	27109	1027673	43193	109846	0	0	8197	603038	0	0
2024-06-30 18:18:32			0	36668	0	0	0	26571	25170	145286	26948	1027682	43194	109845	0	0	8197	603121	0	0
2024-06-30 18:19:32			0	36638	0	0	0	26568	25170	145258	27206	1027727	43181	109844	0	0	8196	604363	0	0
2024-06-30 18:20:32			0	36631	0	0	0	26550	25170	145370	27339	1027709	43182	109837	0	0	8195	604653	0	0
2024-06-30 18:21:32			0	36622	0	0	0	26558	25160	145386	26928	1027691	43181	109840	0	0	8195	605060	0	0
2024-06-30 18:22:32			0	36607	0	0	0	26553	25160	145586	27069	1027718	43170	109838	0	0	8194	605683	0	0
2024-06-30 18:23:32			0	36600	0	0	0	26555	25170	145538	27270	1027700	43193	109839	0	0	8194	605939	0	0
2024-06-30 18:24:32			0	36584	0	0	0	26558	25170	145565	27135	1027709	43182	109840	0	0	8193	606603	0	0
2024-06-30 18:25:32			0	36571	0	0	0	26545	25160	145585	27036	1027664	43170	109835	0	0	8192	607178	0	0
2024-06-30 18:26:32			0	36545	0	0	0	26537	25170	145689	27178	1027735	43161	109832	0	0	8191	608224	0	0
2024-06-30 18:27:32			0	36529	0	0	0	26540	25170	145701	27107	1027673	43181	109833	0	0	8190	608891	0	0
2024-06-30 18:28:32			0	36536	0	0	0	26553	25160	145777	27317	1027664	43193	109838	0	0	8190	608634	0	0
2024-06-30 18:29:32			0	36531	0	0	0	26522	25160	145749	27220	1027664	43181	109826	0	0	8191	608842	0	0
2024-06-30 18:30:32			0	36537	0	0	0	26496	25160	145689	27071	1027629	43169	109816	0	0	8191	608592	0	0
2024-06-30 18:31:32			0	36578	0	0	0	26519	25160	145537	26982	1027602	43181	109825	0	0	8193	606887	0	0
2024-06-30 18:32:32			0	36610	0	0	0	26568	25170	145622	26951	1027673	43193	109844	0	0	8194	605524	0	0
2024-06-30 18:33:32			0	36579	0	0	0	26563	25160	145641	27057	1027745	43193	109842	0	0	8192	606845	0	0
2024-06-30 18:34:32			0	36579	0	0	0	26566	25160	145621	27422	1027718	43193	109843	0	0	8192	606845	0	0
2024-06-30 18:35:32			0	36574	0	0	0	26574	25170	145729	27308	1027762	43182	109846	0	0	8192	607018	0	0
2024-06-30 18:36:32			0	36554	0	0	0	26607	25180	145689	26994	1027798	43194	109859	0	0	8191	607815	0	0
2024-06-30 18:37:32			0	36545	0	0	0	26618	25180	145845	26972	1027852	43182	109863	0	0	8190	608190	0	0
2024-06-30 18:38:32			0	36510	0	0	0	26631	25190	145937	27327	1027869	43195	109868	0	0	8188	609613	0	0
2024-06-30 18:39:32			0	36498	0	0	0	26610	25190	145937	27152	1027922	43195	109860	0	0	8188	610113	0	0
2024-06-30 18:40:32			0	36478	0	0	0	26620	25200	145949	26894	1027833	43197	109864	0	0	8186	610913	0	0
2024-06-30 18:41:32			0	36475	0	0	0	26618	25200	146033	27180	1027806	43208	109863	0	0	8186	611038	0	0
2024-06-30 18:42:32			0	36475	0	0	0	26607	25200	145977	27156	1027806	43197	109859	0	0	8186	611038	0	0
2024-06-30 18:43:32			0	36492	0	0	0	26571	25200	145921	26738	1027752	43185	109845	0	0	8188	610329	0	0
2024-06-30 18:44:32			0	36517	0	0	0	26571	25200	145853	27100	1027797	43163	109845	0	0	8189	609287	0	0
2024-06-30 18:45:32			0	36552	0	0	0	26545	25180	145777	26981	1027691	43182	109835	0	0	8191	607899	0	0
2024-06-30 18:46:32			0	36578	0	0	0	26532	25170	145641	26876	1027593	43170	109830	0	0	8193	606852	0	0
2024-06-30 18:47:32			0	36570	0	0	0	26503	25170	145593	26927	1027566	43170	109819	0	0	8193	607185	0	0
2024-06-30 18:48:32			0	36596	0	0	0	26477	25150	145589	27227	1027486	43169	109809	0	0	8195	606173	0	0
2024-06-30 18:49:32			0	36578	0	0	0	26454	25150	145589	27135	1027433	43169	109800	0	0	8194	606921	0	0
2024-06-30 18:50:32			0	36570	0	0	0	26431	25130	145661	26833	1027371	43167	109791	0	0	8194	607323	0	0
2024-06-30 18:51:32			0	36530	0	0	0	26412	25120	145725	27258	1027381	43166	109784	0	0	8192	609022	0	0
2024-06-30 18:52:32			0	36484	0	0	0	26433	25120	145953	27173	1027479	43188	109792	0	0	8190	610940	0	0
2024-06-30 18:53:32			0	36453	0	0	0	26472	25130	146261	26840	1027416	43189	109807	0	0	8187	612200	0	0
2024-06-30 18:54:32			0	36404	0	0	0	26496	25130	146309	27170	1027559	43167	109816	0	0	8184	614251	0	0
2024-06-30 18:55:32			0	36382	0	0	0	26454	25130	146353	27201	1027470	43178	109800	0	0	8184	615173	0	0
2024-06-30 18:56:32			0	36373	0	0	0	26446	25120	146441	27168	1027461	43155	109797	0	0	8183	615586	0	0
2024-06-30 18:57:32			0	36367	0	0	0	26480	25110	146577	27000	1027444	43166	109810	0	0	8183	615872	0	0
2024-06-30 18:58:32			0	36349	0	0	0	26477	25110	146653	27317	1027364	43177	109809	0	0	8182	616628	0	0
2024-06-30 18:59:32			0	36353	0	0	0	26423	25110	146553	27078	1027283	43155	109788	0	0	8183	616460	0	0
2024-06-30 19:00:32			0	36360	0	0	0	26389	25100	146537	27199	1027177	43165	109775	0	0	8184	616201	0	0
2024-06-30 19:01:32			0	36416	0	0	0	26389	25080	146425	27137	1027151	43163	109775	0	0	8187	613922	0	0
2024-06-30 19:02:32			0	36427	0	0	0	26381	25070	146161	27306	1027098	43162	109772	0	0	8187	613497	0	0
2024-06-30 19:03:32			0	36473	0	0	0	26353	25060	146101	27060	1027000	43160	109761	0	0	8190	611607	0	0
2024-06-30 19:04:32			0	36498	0	0	0	26371	25060	145981	27109	1027027	43160	109768	0	0	8191	610563	0	0
2024-06-30 19:05:32			0	36514	0	0	0	26392	25050	145941	27218	1027063	43160	109776	0	0	8191	609930	0	0
2024-06-30 19:06:32			0	36538	0	0	0	26389	25040	145849	26717	1027001	43159	109775	0	0	8193	608965	0	0
2024-06-30 19:07:32			0	36554	0	0	0	26373	25040	145917	27041	1026992	43168	109769	0	0	8194	608298	0	0
2024-06-30 19:08:32			0	36549	0	0	0	26361	25020	145865	27050	1026993	43157	109764	0	0	8194	608576	0	0
2024-06-30 19:09:32			0	36568	0	0	0	26376	25030	145765	26854	1026975	43158	109770	0	0	8194	607750	0	0
2024-06-30 19:10:32			0	36573	0	0	0	26392	25020	145833	27003	1026958	43166	109776	0	0	8194	607577	0	0
2024-06-30 19:11:32			0	36575	0	0	0	26379	25020	145821	27218	1026931	43166	109771	0	0	8195	607494	0	0
2024-06-30 19:12:32			0	36551	0	0	0	26384	25010	145753	27383	1026976	43177	109773	0	0	8193	608527	0	0
2024-06-30 19:13:32			0	36568	0	0	0	26361	25010	145757	27300	1026887	43166	109764	0	0	8195	607819	0	0
2024-06-30 19:14:32			0	36577	0	0	0	26324	25000	145721	27218	1026824	43155	109750	0	0	8196	607479	0	0
2024-06-30 19:15:32			0	36581	0	0	0	26301	24980	145721	27038	1026736	43153	109741	0	0	8196	607382	0	0
2024-06-30 19:16:32			0	36624	0	0	0	26290	24980	145694	27324	1026629	43142	109737	0	0	8199	605595	0	0
2024-06-30 19:17:32			0	36644	0	0	0	26290	24970	145494	27074	1026603	43140	109737	0	0	8200	604800	0	0
2024-06-30 19:18:32			0	36663	0	0	0	26290	24970	145510	27178	1026531	43151	109737	0	0	8201	604013	0	0
2024-06-30 19:19:32			0	36693	0	0	0	26277	24950	145418	27248	1026577	43150	109732	0	0	8202	602839	0	0
2024-06-30 19:20:32			0	36674	0	0	0	26259	24950	145422	27255	1026470	43150	109725	0	0	8202	603625	0	0
2024-06-30 19:21:32			0	36681	0	0	0	26251	24930	145366	26698	1026462	43148	109722	0	0	8202	603404	0	0
2024-06-30 19:22:32			0	36698	0	0	0	26277	24930	145270	27255	1026542	43148	109732	0	0	8203	602700	0	0
2024-06-30 19:23:32			0	36703	0	0	0	26290	24940	145354	27241	1026497	43149	109737	0	0	8203	602459	0	0
2024-06-30 19:24:32			0	36683	0	0	0	26306	24940	145466	27124	1026524	43160	109743	0	0	8201	603287	0	0
2024-06-30 19:25:32			0	36670	0	0	0	26296	24940	145486	26934	1026497	43160	109739	0	0	8201	603825	0	0
2024-06-30 19:26:32			0	36656	0	0	0	26314	24930	145438	27020	1026587	43158	109746	0	0	8200	604440	0	0
2024-06-30 19:27:32			0	36638	0	0	0	26329	24930	145578	27076	1026533	43158	109752	0	0	8199	605186	0	0
2024-06-30 19:28:32			0	36636	0	0	0	26335	24940	145638	27203	1026658	43182	109754	0	0	8198	605235	0	0
2024-06-30 19:29:32			0	36586	0	0	0	26345	24940	145729	27123	1026631	43160	109758	0	0	8196	607312	0	0
2024-06-30 19:30:32			0	36552	0	0	0	26389	24940	146001	27124	1026747	43170	109775	0	0	8193	608727	0	0
2024-06-30 19:31:32			0	36486	0	0	0	26405	24950	146121	27034	1026782	43170	109781	0	0	8189	611446	0	0
2024-06-30 19:32:32			0	36463	0	0	0	26412	24950	146325	27071	1026782	43182	109784	0	0	8188	612407	0	0
2024-06-30 19:33:32			0	36442	0	0	0	26415	24960	146441	27085	1026862	43173	109785	0	0	8187	613251	0	0
2024-06-30 19:34:32			0	36421	0	0	0	26420	24970	146429	26821	1026871	43184	109787	0	0	8186	614096	0	0
2024-06-30 19:35:32			0	36406	0	0	0	26431	24980	146481	27104	1026897	43186	109791	0	0	8185	614690	0	0
2024-06-30 19:36:32			0	36388	0	0	0	26451	24980	146617	27003	1026950	43186	109799	0	0	8184	615445	0	0
2024-06-30 19:37:32			0	36382	0	0	0	26457	24990	146661	26875	1026986	43165	109801	0	0	8183	615662	0	0
2024-06-30 19:38:32			0	36335	0	0	0	26470	25000	146801	26927	1027003	43176	109806	0	0	8181	617602	0	0
2024-06-30 19:39:32			0	36320	0	0	0	26485	25010	146821	27123	1027074	43188	109812	0	0	8180	618198	0	0
2024-06-30 19:40:32			0	36276	0	0	0	26498	25010	146949	27254	1027136	43177	109817	0	0	8177	620052	0	0
2024-06-30 19:41:32			0	36268	0	0	0	26490	25020	146981	27000	1027154	43179	109814	0	0	8177	620355	0	0
2024-06-30 19:42:32			0	36249	0	0	0	26488	25020	147045	26854	1027207	43179	109813	0	0	8176	621157	0	0
2024-06-30 19:43:32			0	36220	0	0	0	26483	25040	147217	27190	1027135	43181	109811	0	0	8174	622312	0	0
2024-06-30 19:44:32			0	36241	0	0	0	26480	25050	147053	27260	1027251	43170	109810	0	0	8176	621389	0	0
2024-06-30 19:45:32			0	36250	0	0	0	26490	25050	147133	27315	1027224	43170	109814	0	0	8176	621009	0	0
2024-06-30 19:46:32			0	36251	0	0	0	26493	25040	147069	27211	1027188	43159	109815	0	0	8176	621002	0	0
2024-06-30 19:47:32			0	36267	0	0	0	26464	25060	147081	27242	1027241	43182	109804	0	0	8177	620256	0	0
2024-06-30 19:48:32			0	36269	0	0	0	26477	25050	146981	26904	1027233	43182	109809	0	0	8177	620207	0	0
2024-06-30 19:49:32			0	36287	0	0	0	26503	25050	146985	27300	1027224	43170	109819	0	0	8178	619448	0	0
2024-06-30 19:50:32			0	36273	0	0	0	26514	25050	146965	27142	1027304	43170	109823	0	0	8177	620038	0	0
2024-06-30 19:51:32			0	36291	0	0	0	26514	25060	146969	27036	1027250	43182	109823	0	0	8178	619244	0	0
2024-06-30 19:52:32			0	36259	0	0	0	26524	25060	147049	27249	1027277	43194	109827	0	0	8176	620594	0	0
2024-06-30 19:53:32			0	36252	0	0	0	26503	25080	147025	27355	1027330	43195	109819	0	0	8176	620819	0	0
2024-06-30 19:54:32			0	36277	0	0	0	26509	25070	147029	27145	1027267	43195	109821	0	0	8177	619799	0	0
2024-06-30 19:55:32			0	36241	0	0	0	26527	25080	146913	27364	1027392	43196	109828	0	0	8175	621283	0	0
2024-06-30 19:56:32			0	36241	0	0	0	26519	25080	147017	27291	1027392	43196	109825	0	0	8175	621283	0	0
2024-06-30 19:57:32			0	36247	0	0	0	26532	25090	147109	27350	1027401	43185	109830	0	0	8175	620995	0	0
2024-06-30 19:58:32			0	36234	0	0	0	26535	25100	147121	27123	1027525	43186	109831	0	0	8175	621509	0	0
2024-06-30 19:59:32			0	36225	0	0	0	26545	25090	147069	27350	1027436	43186	109835	0	0	8174	621924	0	0
2024-06-30 20:00:32			0	36235	0	0	0	26532	25090	146965	27251	1027382	43175	109830	0	0	8175	621502	0	0
2024-06-30 20:01:32			0	36285	0	0	0	26522	25090	146913	27140	1027409	43175	109826	0	0	8177	619392	0	0
2024-06-30 20:02:32			0	36295	0	0	0	26516	25100	146821	27173	1027453	43186	109824	0	0	8178	618935	0	0
2024-06-30 20:03:32			0	36313	0	0	0	26509	25100	146729	27185	1027346	43175	109821	0	0	8179	618177	0	0
2024-06-30 20:04:32			0	36332	0	0	0	26506	25110	146713	26974	1027382	43187	109820	0	0	8180	617343	0	0
2024-06-30 20:05:32			0	36358	0	0	0	26509	25100	146601	27093	1027400	43175	109821	0	0	8182	616285	0	0
2024-06-30 20:06:32			0	36358	0	0	0	26519	25090	146577	27346	1027409	43198	109825	0	0	8181	616320	0	0
2024-06-30 20:07:32			0	36336	0	0	0	26542	25100	146681	27202	1027427	43208	109834	0	0	8180	617210	0	0
2024-06-30 20:08:32			0	36331	0	0	0	26540	25110	146821	27020	1027524	43210	109833	0	0	8180	617385	0	0
2024-06-30 20:09:32			0	36320	0	0	0	26548	25110	146841	27215	1027542	43198	109836	0	0	8179	617848	0	0
2024-06-30 20:10:32			0	36322	0	0	0	26540	25110	146921	27229	1027489	43187	109833	0	0	8179	617764	0	0
2024-06-30 20:11:32			0	36315	0	0	0	26527	25110	146849	27010	1027471	43188	109828	0	0	8179	618058	0	0
2024-06-30 20:12:32			0	36310	0	0	0	26511	25110	146893	26842	1027471	43188	109822	0	0	8179	618268	0	0
2024-06-30 20:13:32			0	36308	0	0	0	26496	25100	146869	26953	1027427	43186	109816	0	0	8179	618388	0	0
2024-06-30 20:14:32			0	36292	0	0	0	26477	25100	146925	27357	1027391	43186	109809	0	0	8179	619062	0	0
2024-06-30 20:15:32			0	36276	0	0	0	26488	25090	146957	26902	1027356	43175	109813	0	0	8178	619771	0	0
2024-06-30 20:16:32			0	36258	0	0	0	26475	25090	147057	27331	1027320	43174	109808	0	0	8177	620530	0	0
2024-06-30 20:17:32			0	36243	0	0	0	26475	25090	147221	27026	1027320	43185	109808	0	0	8176	621164	0	0
2024-06-30 20:18:32			0	36203	0	0	0	26475	25090	147249	26939	1027320	43185	109808	0	0	8174	622855	0	0
2024-06-30 20:19:32			0	36218	0	0	0	26470	25080	147325	26981	1027231	43173	109806	0	0	8175	622255	0	0
2024-06-30 20:20:32			0	36181	0	0	0	26464	25080	147333	26901	1027303	43183	109804	0	0	8173	623821	0	0
2024-06-30 20:21:32			0	36181	0	0	0	26470	25080	147393	26963	1027258	43196	109806	0	0	8173	623821	0	0
2024-06-30 20:22:32			0	36182	0	0	0	26459	25080	147433	27069	1027249	43183	109802	0	0	8173	623779	0	0
2024-06-30 20:23:32			0	36161	0	0	0	26446	25060	147469	26812	1027143	43182	109797	0	0	8172	624740	0	0
2024-06-30 20:24:32			0	36161	0	0	0	26446	25060	147389	27069	1027143	43182	109797	0	0	8172	624740	0	0
2024-06-30 20:25:32			0	36149	0	0	0	26438	25060	147397	27216	1027170	43182	109794	0	0	8172	625249	0	0
2024-06-30 20:26:32			0	36142	0	0	0	26449	25050	147421	27105	1027099	43170	109798	0	0	8171	625581	0	0
2024-06-30 20:27:32			0	36151	0	0	0	26436	25050	147473	26847	1027152	43170	109793	0	0	8172	625199	0	0
2024-06-30 20:28:32			0	36131	0	0	0	26438	25050	147425	27000	1027170	43182	109794	0	0	8171	626048	0	0
2024-06-30 20:29:32			0	36148	0	0	0	26433	25040	147513	26956	1027126	43180	109792	0	0	8171	625362	0	0
2024-06-30 20:30:32			0	36125	0	0	0	26415	25030	147517	27248	1027091	43168	109785	0	0	8171	626374	0	0
2024-06-30 20:31:32			0	36096	0	0	0	26412	25040	147561	27079	1027108	43169	109784	0	0	8169	627572	0	0
2024-06-30 20:32:32			0	36128	0	0	0	26415	25020	147589	26833	1027091	43178	109785	0	0	8171	626282	0	0
2024-06-30 20:33:32			0	36114	0	0	0	26418	25030	147601	27260	1027091	43191	109786	0	0	8170	626842	0	0
2024-06-30 20:34:32			0	36102	0	0	0	26415	25030	147653	26896	1027082	43180	109785	0	0	8169	627352	0	0
2024-06-30 20:35:32			0	36130	0	0	0	26418	25010	147637	27235	1026949	43177	109786	0	0	8171	626233	0	0
2024-06-30 20:36:32			0	36105	0	0	0	26397	25010	147665	26824	1027029	43166	109778	0	0	8170	627295	0	0
2024-06-30 20:37:32			0	36116	0	0	0	26405	25020	147545	26941	1027011	43166	109781	0	0	8170	626792	0	0
2024-06-30 20:38:32			0	36120	0	0	0	26402	25020	147585	27171	1026931	43189	109780	0	0	8170	626622	0	0
2024-06-30 20:39:32			0	36143	0	0	0	26397	25000	147473	27180	1026931	43177	109778	0	0	8172	625716	0	0
2024-06-30 20:40:32			0	36135	0	0	0	26399	25000	147533	27116	1026931	43188	109779	0	0	8171	626056	0	0
2024-06-30 20:41:32			0	36158	0	0	0	26402	25000	147529	27241	1026976	43187	109780	0	0	8172	625080	0	0
2024-06-30 20:42:32			0	36177	0	0	0	26386	25000	147301	27204	1026931	43177	109774	0	0	8174	624274	0	0
2024-06-30 20:43:32			0	36187	0	0	0	26397	25000	147429	27038	1026976	43176	109778	0	0	8174	623850	0	0
2024-06-30 20:44:32			0	36197	0	0	0	26389	25000	147245	26981	1026904	43177	109775	0	0	8175	623427	0	0
2024-06-30 20:45:32			0	36218	0	0	0	26384	24980	147153	27053	1026870	43175	109773	0	0	8176	622608	0	0
2024-06-30 20:46:32			0	36219	0	0	0	26355	24980	147157	26887	1026834	43152	109762	0	0	8176	622566	0	0
2024-06-30 20:47:32			0	36251	0	0	0	26353	24980	147093	27187	1026727	43185	109761	0	0	8178	621213	0	0
2024-06-30 20:48:32			0	36254	0	0	0	26366	24970	146969	27088	1026799	43184	109766	0	0	8178	621122	0	0
2024-06-30 20:49:32			0	36268	0	0	0	26368	24980	146965	26871	1026781	43174	109767	0	0	8179	620495	0	0
2024-06-30 20:50:32			0	36285	0	0	0	26376	24980	146917	27182	1026754	43174	109770	0	0	8179	619778	0	0
2024-06-30 20:51:32			0	36299	0	0	0	26366	24970	146837	27118	1026817	43184	109766	0	0	8180	619223	0	0
2024-06-30 20:52:32			0	36294	0	0	0	26355	24970	146821	27258	1026826	43173	109762	0	0	8180	619434	0	0
2024-06-30 20:53:32			0	36304	0	0	0	26353	24970	146785	26831	1026719	43163	109761	0	0	8181	619012	0	0
2024-06-30 20:54:32			0	36297	0	0	0	26345	24960	146869	26866	1026701	43184	109758	0	0	8180	619342	0	0
2024-06-30 20:55:32			0	36316	0	0	0	26350	24960	146849	26987	1026701	43163	109760	0	0	8181	618542	0	0
2024-06-30 20:56:32			0	36317	0	0	0	26342	24950	146773	26970	1026684	43161	109757	0	0	8182	618535	0	0
2024-06-30 20:57:32			0	36322	0	0	0	26350	24960	146757	26956	1026675	43173	109760	0	0	8182	618289	0	0
2024-06-30 20:58:32			0	36329	0	0	0	26342	24960	146781	26759	1026693	43184	109757	0	0	8182	617995	0	0
2024-06-30 20:59:32			0	36332	0	0	0	26337	24950	146837	27180	1026648	43160	109755	0	0	8182	617903	0	0
2024-06-30 21:00:32			0	36321	0	0	0	26345	24950	146841	26935	1026675	43182	109758	0	0	8182	618366	0	0
2024-06-30 21:01:32			0	36319	0	0	0	26345	24950	146749	27157	1026684	43183	109758	0	0	8182	618451	0	0
2024-06-30 21:02:32			0	36313	0	0	0	26337	24940	146833	27022	1026667	43170	109755	0	0	8181	618738	0	0
2024-06-30 21:03:32			0	36311	0	0	0	26355	24950	146861	27229	1026675	43160	109762	0	0	8181	618788	0	0
2024-06-30 21:04:32			0	36296	0	0	0	26345	24940	147001	27286	1026613	43170	109758	0	0	8180	619455	0	0
2024-06-30 21:05:32			0	36297	0	0	0	26353	24940	147033	27005	1026693	43160	109761	0	0	8180	619413	0	0
2024-06-30 21:06:32			0	36273	0	0	0	26337	24940	146933	26948	1026631	43170	109755	0	0	8179	620425	0	0
2024-06-30 21:07:32			0	36297	0	0	0	26348	24930	146901	27090	1026649	43169	109759	0	0	8180	619448	0	0
2024-06-30 21:08:32			0	36278	0	0	0	26319	24940	146845	26927	1026640	43160	109748	0	0	8180	620214	0	0
2024-06-30 21:09:32			0	36302	0	0	0	26285	24930	146813	27197	1026506	43168	109735	0	0	8182	619237	0	0
2024-06-30 21:10:32			0	36308	0	0	0	26262	24920	146809	27093	1026462	43168	109726	0	0	8182	619019	0	0
2024-06-30 21:11:32			0	36302	0	0	0	26288	24920	146877	27170	1026489	43168	109736	0	0	8182	619272	0	0
2024-06-30 21:12:32			0	36294	0	0	0	26301	24920	146881	27196	1026551	43180	109741	0	0	8181	619609	0	0
2024-06-30 21:13:32			0	36284	0	0	0	26314	24920	147001	26974	1026516	43168	109746	0	0	8180	620031	0	0
2024-06-30 21:14:32			0	36287	0	0	0	26322	24900	147073	27024	1026552	43178	109749	0	0	8180	619975	0	0
2024-06-30 21:15:32			0	36276	0	0	0	26324	24930	147053	27261	1026614	43180	109750	0	0	8180	620334	0	0
2024-06-30 21:16:32			0	36258	0	0	0	26311	24930	147149	27171	1026533	43180	109745	0	0	8179	621094	0	0
2024-06-30 21:17:32			0	36244	0	0	0	26288	24920	147237	27263	1026498	43180	109736	0	0	8178	621720	0	0
2024-06-30 21:18:32			0	36221	0	0	0	26270	24920	147269	26948	1026489	43158	109729	0	0	8178	622693	0	0
2024-06-30 21:19:32			0	36202	0	0	0	26272	24910	147253	26781	1026454	43167	109730	0	0	8176	623533	0	0
2024-06-30 21:20:32			0	36197	0	0	0	26283	24900	147481	26977	1026445	43167	109734	0	0	8176	623780	0	0
2024-06-30 21:21:32			0	36166	0	0	0	26285	24890	147493	26913	1026428	43167	109735	0	0	8174	625130	0	0
2024-06-30 21:22:32			0	36169	0	0	0	26288	24890	147465	27203	1026428	43167	109736	0	0	8174	625003	0	0
2024-06-30 21:23:32			0	36178	0	0	0	26275	24900	147469	26842	1026490	43178	109731	0	0	8175	624585	0	0
2024-06-30 21:24:32			0	36133	0	0	0	26257	24900	147573	27055	1026383	43156	109724	0	0	8173	626496	0	0
2024-06-30 21:25:32			0	36133	0	0	0	26228	24890	147633	26928	1026294	43167	109713	0	0	8173	626531	0	0
2024-06-30 21:26:32			0	36127	0	0	0	26220	24880	147561	27152	1026268	43142	109710	0	0	8173	626822	0	0
2024-06-30 21:27:32			0	36140	0	0	0	26207	24870	147585	27033	1026197	43142	109705	0	0	8174	626305	0	0
2024-06-30 21:28:32			0	36143	0	0	0	26194	24860	147557	27093	1026126	43152	109700	0	0	8174	626213	0	0
2024-06-30 21:29:32			0	36167	0	0	0	26174	24850	147477	27282	1026082	43152	109692	0	0	8176	625229	0	0
2024-06-30 21:30:32			0	36134	0	0	0	26163	24820	147525	27251	1025958	43137	109688	0	0	8174	626737	0	0
2024-06-30 21:31:32			0	36170	0	0	0	26158	24830	147557	27144	1025967	43150	109686	0	0	8176	625173	0	0
2024-06-30 21:32:32			0	36160	0	0	0	26142	24810	147541	27308	1025914	43136	109680	0	0	8176	625668	0	0
2024-06-30 21:33:32			0	36149	0	0	0	26145	24800	147521	27055	1025897	43147	109681	0	0	8175	626171	0	0
2024-06-30 21:34:32			0	36155	0	0	0	26145	24800	147497	27327	1025915	43157	109681	0	0	8176	625916	0	0
2024-06-30 21:35:32			0	36156	0	0	0	26142	24800	147577	27079	1025843	43158	109680	0	0	8176	625873	0	0
2024-06-30 21:36:32			0	36161	0	0	0	26158	24800	147501	26923	1025968	43146	109686	0	0	8176	625661	0	0
2024-06-30 21:37:32			0	36148	0	0	0	26155	24800	147561	26970	1025915	43157	109685	0	0	8175	626213	0	0
2024-06-30 21:38:32			0	36145	0	0	0	26161	24790	147605	27015	1025960	43167	109687	0	0	8175	626376	0	0
2024-06-30 21:39:32			0	36121	0	0	0	26174	24780	147649	26987	1025889	43156	109692	0	0	8173	627433	0	0
2024-06-30 21:40:32			0	36124	0	0	0	26166	24790	147753	27111	1025906	43156	109689	0	0	8174	627269	0	0
2024-06-30 21:41:32			0	36118	0	0	0	26174	24780	147733	26824	1025880	43155	109692	0	0	8173	627560	0	0
2024-06-30 21:42:32			0	36108	0	0	0	26184	24780	147821	27138	1025916	43156	109696	0	0	8172	627986	0	0
2024-06-30 21:43:32			0	36100	0	0	0	26179	24780	147813	26942	1025889	43156	109694	0	0	8172	628327	0	0
2024-06-30 21:44:32			0	36104	0	0	0	26168	24790	147821	27005	1025924	43156	109690	0	0	8173	628121	0	0
2024-06-30 21:45:32			0	36080	0	0	0	26168	24780	147797	27182	1025916	43156	109690	0	0	8171	629179	0	0
2024-06-30 21:46:32			0	36082	0	0	0	26179	24780	147821	27000	1025942	43156	109694	0	0	8171	629094	0	0
2024-06-30 21:47:32			0	36095	0	0	0	26223	24800	147913	27019	1026031	43169	109711	0	0	8171	628468	0	0
2024-06-30 21:48:32			0	36090	0	0	0	26275	24810	147897	26807	1026173	43169	109731	0	0	8170	628646	0	0
2024-06-30 21:49:32			0	36072	0	0	0	26314	24830	148009	26809	1026262	43171	109746	0	0	8169	629342	0	0
2024-06-30 21:50:32			0	36052	0	0	0	26335	24830	148045	26857	1026377	43183	109754	0	0	8167	630195	0	0
2024-06-30 21:51:32			0	36052	0	0	0	26345	24860	148089	26819	1026421	43173	109758	0	0	8167	630088	0	0
2024-06-30 21:52:32			0	36010	0	0	0	26355	24870	148121	26920	1026491	43186	109762	0	0	8165	631846	0	0
2024-06-30 21:53:32			0	36006	0	0	0	26379	24870	148185	26663	1026527	43175	109771	0	0	8164	632017	0	0
2024-06-30 21:54:32			0	35996	0	0	0	26402	24890	148225	27046	1026606	43177	109780	0	0	8163	632373	0	0
2024-06-30 21:55:32			0	35966	0	0	0	26394	24900	148209	26974	1026597	43189	109777	0	0	8162	633622	0	0
2024-06-30 21:56:32			0	35956	0	0	0	26399	24900	148353	27039	1026651	43178	109779	0	0	8161	634050	0	0
2024-06-30 21:57:32			0	35922	0	0	0	26431	24920	148537	27147	1026792	43191	109791	0	0	8159	635437	0	0
2024-06-30 21:58:32			0	35873	0	0	0	26467	24940	148717	26896	1026934	43193	109805	0	0	8156	637471	0	0
2024-06-30 21:59:32			0	35828	0	0	0	26475	24950	148864	27170	1026898	43194	109808	0	0	8153	639373	0	0
2024-06-30 22:00:32			0	35789	0	0	0	26477	24960	149048	27130	1026960	43195	109809	0	0	8151	641019	0	0
2024-06-30 22:01:32			0	35743	0	0	0	26472	24960	149156	27232	1026960	43184	109807	0	0	8149	643008	0	0
2024-06-30 22:02:32			0	35693	0	0	0	26488	24970	149368	27048	1027067	43173	109813	0	0	8146	645139	0	0
2024-06-30 22:03:32			0	35669	0	0	0	26490	25000	149424	27197	1027110	43176	109814	0	0	8145	646071	0	0
2024-06-30 22:04:32			0	35652	0	0	0	26496	25000	149524	27362	1027244	43199	109816	0	0	8144	646810	0	0
2024-06-30 22:05:32			0	35613	0	0	0	26496	25020	149728	27001	1027225	43189	109816	0	0	8142	648433	0	0
2024-06-30 22:06:32			0	35592	0	0	0	26483	25030	149776	27268	1027243	43180	109811	0	0	8141	649312	0	0
2024-06-30 22:07:32			0	35579	0	0	0	26488	25030	149848	27083	1027243	43191	109813	0	0	8140	649878	0	0
2024-06-30 22:08:32			0	35562	0	0	0	26493	25020	149844	26998	1027207	43190	109815	0	0	8139	650657	0	0
2024-06-30 22:09:32			0	35559	0	0	0	26496	25040	149824	26975	1027287	43180	109816	0	0	8139	650714	0	0
2024-06-30 22:10:32			0	35548	0	0	0	26498	25040	149844	26982	1027269	43181	109817	0	0	8138	651195	0	0
2024-06-30 22:11:32			0	35572	0	0	0	26493	25050	149772	26956	1027251	43182	109815	0	0	8140	650110	0	0
2024-06-30 22:12:32			0	35562	0	0	0	26503	25050	149848	27364	1027340	43182	109819	0	0	8139	650547	0	0
2024-06-30 22:13:32			0	35570	0	0	0	26514	25050	149840	26772	1027340	43204	109823	0	0	8139	650197	0	0
2024-06-30 22:14:32			0	35570	0	0	0	26511	25080	149772	27284	1027410	43206	109822	0	0	8140	650087	0	0
2024-06-30 22:15:32			0	35594	0	0	0	26509	25070	149764	27216	1027446	43206	109821	0	0	8141	649077	0	0
2024-06-30 22:16:32			0	35592	0	0	0	26511	25080	149736	26922	1027517	43195	109822	0	0	8141	649128	0	0
2024-06-30 22:17:32			0	35583	0	0	0	26506	25090	149732	27107	1027427	43197	109820	0	0	8140	649483	0	0
2024-06-30 22:18:32			0	35581	0	0	0	26509	25090	149748	26627	1027508	43197	109821	0	0	8140	649570	0	0
2024-06-30 22:19:32			0	35588	0	0	0	26506	25090	149736	26797	1027490	43198	109820	0	0	8141	649265	0	0
2024-06-30 22:20:32			0	35569	0	0	0	26509	25090	149704	27197	1027516	43186	109821	0	0	8140	650093	0	0
2024-06-30 22:21:32			0	35597	0	0	0	26516	25100	149768	27223	1027534	43198	109824	0	0	8141	648836	0	0
2024-06-30 22:22:32			0	35606	0	0	0	26511	25100	149648	27208	1027445	43186	109822	0	0	8142	648444	0	0
2024-06-30 22:23:32			0	35646	0	0	0	26493	25100	149532	27118	1027391	43165	109815	0	0	8144	646704	0	0
2024-06-30 22:24:32			0	35698	0	0	0	26477	25100	149248	27008	1027346	43175	109809	0	0	8147	644447	0	0
2024-06-30 22:25:32			0	35748	0	0	0	26454	25090	148920	27050	1027347	43185	109800	0	0	8150	642318	0	0
2024-06-30 22:26:32			0	35832	0	0	0	26451	25070	148636	27133	1027267	43172	109799	0	0	8155	638765	0	0
2024-06-30 22:27:32			0	35912	0	0	0	26449	25080	148329	26840	1027276	43172	109798	0	0	8159	635290	0	0
2024-06-30 22:28:32			0	35951	0	0	0	26446	25070	148209	26876	1027241	43183	109797	0	0	8161	633654	0	0
2024-06-30 22:29:32			0	35970	0	0	0	26441	25070	148109	26977	1027232	43183	109795	0	0	8162	632840	0	0
2024-06-30 22:30:32			0	35969	0	0	0	26431	25070	148133	26994	1027286	43195	109791	0	0	8162	632883	0	0
2024-06-30 22:31:32			0	35949	0	0	0	26423	25060	148205	27265	1027161	43170	109788	0	0	8161	633775	0	0
2024-06-30 22:32:32			0	35908	0	0	0	26420	25050	148361	27045	1027126	43182	109787	0	0	8159	635569	0	0
2024-06-30 22:33:32			0	35889	0	0	0	26410	25030	148477	27036	1027117	43180	109783	0	0	8158	636458	0	0
2024-06-30 22:34:32			0	35835	0	0	0	26407	25040	148620	27213	1027135	43192	109782	0	0	8155	638745	0	0
2024-06-30 22:35:32			0	35820	0	0	0	26402	25030	148748	26930	1027082	43180	109780	0	0	8155	639427	0	0
2024-06-30 22:36:32			0	35801	0	0	0	26392	25020	148828	27225	1027020	43179	109776	0	0	8154	640283	0	0
2024-06-30 22:37:32			0	35783	0	0	0	26376	25020	148864	27267	1026958	43178	109770	0	0	8153	641060	0	0
2024-06-30 22:38:32			0	35786	0	0	0	26361	25000	148976	27085	1026931	43177	109764	0	0	8153	641004	0	0
2024-06-30 22:39:32			0	35786	0	0	0	26348	24990	148896	26859	1026887	43175	109759	0	0	8154	641040	0	0
2024-06-30 22:40:32			0	35763	0	0	0	26340	25000	148812	27085	1026851	43166	109756	0	0	8152	641997	0	0
2024-06-30 22:41:32			0	35793	0	0	0	26335	25000	148896	26795	1026842	43176	109754	0	0	8154	640701	0	0
2024-06-30 22:42:32			0	35797	0	0	0	26329	24980	148924	26958	1026861	43174	109752	0	0	8154	640601	0	0
2024-06-30 22:43:32			0	35777	0	0	0	26332	24970	148900	26788	1026879	43163	109753	0	0	8153	641501	0	0
2024-06-30 22:44:32			0	35784	0	0	0	26329	24970	148812	27201	1026772	43184	109752	0	0	8154	641199	0	0
2024-06-30 22:45:32			0	35804	0	0	0	26340	24980	148892	27130	1026727	43174	109756	0	0	8155	640299	0	0
2024-06-30 22:46:32			0	35812	0	0	0	26327	24970	149020	27206	1026763	43163	109751	0	0	8155	639990	0	0
2024-06-30 22:47:32			0	35795	0	0	0	26340	24950	148876	27104	1026764	43171	109756	0	0	8154	640797	0	0
2024-06-30 22:48:32			0	35822	0	0	0	26335	24960	148876	26937	1026773	43162	109754	0	0	8156	639595	0	0
2024-06-30 22:49:32			0	35817	0	0	0	26342	24960	148796	26920	1026773	43172	109757	0	0	8155	639811	0	0
2024-06-30 22:50:32			0	35829	0	0	0	26348	24950	148876	27145	1026711	43171	109759	0	0	8156	639329	0	0
2024-06-30 22:51:32			0	35808	0	0	0	26353	24950	148924	27398	1026764	43171	109761	0	0	8154	640235	0	0
2024-06-30 22:52:32			0	35822	0	0	0	26358	24950	148880	27324	1026764	43183	109763	0	0	8155	639631	0	0
2024-06-30 22:53:32			0	35824	0	0	0	26355	24950	148888	27234	1026845	43171	109762	0	0	8155	639545	0	0
2024-06-30 22:54:32			0	35813	0	0	0	26363	24950	148848	27216	1026711	43194	109765	0	0	8155	640020	0	0
2024-06-30 22:55:32			0	35827	0	0	0	26371	24950	148972	27076	1026791	43183	109768	0	0	8155	639416	0	0
2024-06-30 22:56:32			0	35822	0	0	0	26376	24950	148884	26824	1026845	43183	109770	0	0	8155	639631	0	0
2024-06-30 22:57:32			0	35810	0	0	0	26373	24960	148840	26965	1026808	43163	109769	0	0	8154	640113	0	0
2024-06-30 22:58:32			0	35812	0	0	0	26373	24960	148956	26915	1026835	43196	109769	0	0	8154	640026	0	0
2024-06-30 22:59:32			0	35813	0	0	0	26379	24960	148980	26986	1026853	43184	109771	0	0	8154	639983	0	0
2024-06-30 23:00:32			0	35815	0	0	0	26379	24960	148892	27460	1026853	43184	109771	0	0	8154	639897	0	0
2024-06-30 23:01:32			0	35801	0	0	0	26384	24960	148960	27140	1026862	43196	109773	0	0	8154	640501	0	0
2024-06-30 23:02:32			0	35813	0	0	0	26389	24970	148988	26994	1026871	43184	109775	0	0	8154	639947	0	0
2024-06-30 23:03:32			0	35815	0	0	0	26394	24960	148880	26991	1026853	43184	109777	0	0	8154	639897	0	0
2024-06-30 23:04:32			0	35820	0	0	0	26386	24970	148840	27041	1026852	43173	109774	0	0	8155	639645	0	0
2024-06-30 23:05:32			0	35809	0	0	0	26389	24970	148908	27126	1026844	43184	109775	0	0	8154	640120	0	0
2024-06-30 23:06:32			0	35840	0	0	0	26386	24960	148800	27039	1026835	43184	109774	0	0	8156	638819	0	0
2024-06-30 23:07:32			0	35836	0	0	0	26389	24960	148740	27244	1026880	43172	109775	0	0	8155	638991	0	0
2024-06-30 23:08:32			0	35827	0	0	0	26389	24970	148812	27223	1026844	43196	109775	0	0	8155	639343	0	0
2024-06-30 23:09:32			0	35843	0	0	0	26379	24970	148708	27317	1026844	43173	109771	0	0	8156	638654	0	0
2024-06-30 23:10:32			0	35853	0	0	0	26379	24970	148660	27196	1026852	43184	109771	0	0	8156	638223	0	0
2024-06-30 23:11:32			0	35868	0	0	0	26371	24970	148633	26882	1026879	43184	109768	0	0	8157	637577	0	0
2024-06-30 23:12:32			0	35864	0	0	0	26373	24960	148641	27274	1026862	43184	109769	0	0	8157	637786	0	0
2024-06-30 23:13:32			0	35884	0	0	0	26379	24960	148497	27251	1026862	43184	109771	0	0	8158	636925	0	0
2024-06-30 23:14:32			0	35882	0	0	0	26381	24960	148593	27012	1026800	43184	109772	0	0	8158	637011	0	0
2024-06-30 23:15:32			0	35898	0	0	0	26368	24950	148585	27100	1026845	43183	109767	0	0	8159	636360	0	0
2024-06-30 23:16:32			0	35889	0	0	0	26368	24950	148573	27383	1026791	43171	109767	0	0	8158	636746	0	0
2024-06-30 23:17:32			0	35906	0	0	0	26371	24960	148569	27050	1026835	43184	109768	0	0	8159	635980	0	0
2024-06-30 23:18:32			0	35915	0	0	0	26373	24960	148525	27045	1026853	43184	109769	0	0	8160	635593	0	0
2024-06-30 23:19:32			0	35911	0	0	0	26376	24960	148517	27137	1026800	43172	109770	0	0	8160	635765	0	0
2024-06-30 23:20:32			0	35914	0	0	0	26363	24950	148445	26882	1026836	43182	109765	0	0	8160	635672	0	0
2024-06-30 23:21:32			0	35895	0	0	0	26366	24960	148605	27107	1026800	43172	109766	0	0	8159	636452	0	0
2024-06-30 23:22:32			0	35902	0	0	0	26358	24950	148481	27232	1026818	43161	109763	0	0	8159	636188	0	0
2024-06-30 23:23:32			0	35913	0	0	0	26353	24950	148477	27149	1026791	43183	109761	0	0	8160	635715	0	0
2024-06-30 23:24:32			0	35900	0	0	0	26358	24950	148449	27007	1026737	43183	109763	0	0	8159	636273	0	0
2024-06-30 23:25:32			0	35902	0	0	0	26368	24940	148457	26830	1026800	43182	109767	0	0	8159	636224	0	0
2024-06-30 23:26:32			0	35883	0	0	0	26376	24950	148485	27059	1026836	43170	109770	0	0	8158	637004	0	0
2024-06-30 23:27:32			0	35881	0	0	0	26381	24960	148537	27109	1026800	43195	109772	0	0	8158	637054	0	0
2024-06-30 23:28:32			0	35900	0	0	0	26363	24950	148625	27033	1026791	43171	109765	0	0	8159	636273	0	0
2024-06-30 23:29:32			0	35902	0	0	0	26366	24960	148749	27320	1026826	43172	109766	0	0	8159	636152	0	0
2024-06-30 23:30:32			0	35885	0	0	0	26366	24950	148677	27267	1026836	43182	109766	0	0	8158	636918	0	0
2024-06-30 23:31:32			0	35877	0	0	0	26358	24960	148633	27138	1026800	43162	109763	0	0	8158	637226	0	0
2024-06-30 23:32:32			0	35876	0	0	0	26371	24960	148693	27326	1026826	43162	109768	0	0	8158	637269	0	0
2024-06-30 23:33:32			0	35864	0	0	0	26371	24960	148725	27248	1026826	43172	109768	0	0	8157	637786	0	0
2024-06-30 23:34:32			0	35858	0	0	0	26376	24940	148720	27319	1026854	43193	109770	0	0	8157	638116	0	0
2024-06-30 23:35:32			0	35866	0	0	0	26363	24950	148789	27026	1026818	43171	109765	0	0	8157	637736	0	0
2024-06-30 23:36:32			0	35849	0	0	0	26363	24950	148676	26987	1026782	43170	109765	0	0	8156	638468	0	0
2024-06-30 23:37:32			0	35866	0	0	0	26361	24950	148621	27163	1026764	43194	109764	0	0	8157	637736	0	0
2024-06-30 23:38:32			0	35850	0	0	0	26350	24940	148744	27338	1026800	43193	109760	0	0	8157	638461	0	0
2024-06-30 23:39:32			0	35854	0	0	0	26345	24940	148740	27053	1026774	43193	109758	0	0	8157	638288	0	0
2024-06-30 23:40:32			0	35864	0	0	0	26345	24940	148708	27130	1026712	43170	109758	0	0	8157	637858	0	0
2024-06-30 23:41:32			0	35838	0	0	0	26345	24930	148764	27196	1026703	43192	109758	0	0	8156	639014	0	0
2024-06-30 23:42:32			0	35870	0	0	0	26348	24950	148725	27215	1026809	43160	109759	0	0	8158	637564	0	0
2024-06-30 23:43:32			0	35866	0	0	0	26348	24940	148697	27201	1026747	43170	109759	0	0	8158	637772	0	0
2024-06-30 23:44:32			0	35875	0	0	0	26345	24940	148741	27192	1026738	43170	109758	0	0	8158	637384	0	0
2024-06-30 23:45:32			0	35857	0	0	0	26342	24940	148693	27372	1026658	43182	109757	0	0	8157	638159	0	0
2024-06-30 23:46:32			0	35855	0	0	0	26335	24930	148632	27203	1026694	43191	109754	0	0	8157	638282	0	0
2024-06-30 23:47:32			0	35866	0	0	0	26337	24930	148705	27268	1026667	43191	109755	0	0	8158	637808	0	0
2024-06-30 23:48:32			0	35879	0	0	0	26335	24930	148733	27280	1026649	43169	109754	0	0	8158	637248	0	0
2024-06-30 23:49:32			0	35868	0	0	0	26340	24940	148701	27114	1026667	43182	109756	0	0	8158	637686	0	0
2024-06-30 23:50:32			0	35868	0	0	0	26342	24940	148757	27263	1026658	43182	109757	0	0	8158	637686	0	0
2024-06-30 23:51:32			0	35875	0	0	0	26337	24930	148749	26857	1026623	43181	109755	0	0	8158	637421	0	0
2024-06-30 23:52:32			0	35866	0	0	0	26337	24930	148677	26830	1026596	43181	109755	0	0	8158	637808	0	0
2024-06-30 23:53:32			0	35872	0	0	0	26342	24930	148741	27072	1026623	43181	109757	0	0	8158	637550	0	0
2024-06-30 23:54:32			0	35875	0	0	0	26342	24930	148709	27218	1026596	43181	109757	0	0	8158	637421	0	0
2024-06-30 23:55:32			0	35863	0	0	0	26345	24930	148641	27008	1026649	43192	109758	0	0	8157	637937	0	0
2024-06-30 23:56:32			0	35871	0	0	0	26355	24930	148713	27105	1026703	43181	109762	0	0	8158	637593	0	0
2024-06-30 23:57:32			0	35873	0	0	0	26353	24930	148669	27012	1026676	43181	109761	0	0	8158	637507	0	0
2024-06-30 23:58:32			0	35860	0	0	0	26353	24940	148665	27064	1026658	43193	109761	0	0	8157	638030	0	0
2024-06-30 23:59:32			0	35888	0	0	0	26350	24920	148589	26772	1026792	43191	109760	0	0	8159	636898	0	0
2024-07-01 00:00:32			0	35878	0	0	0	26350	24930	148545	26977	1026721	43180	109760	0	0	8158	637292	0	0
2024-07-01 00:01:32			0	35885	0	0	0	26348	24930	148549	27079	1026676	43181	109759	0	0	8158	636991	0	0
2024-07-01 00:02:32			0	35889	0	0	0	26350	24930	148621	27261	1026703	43181	109760	0	0	8159	636819	0	0
2024-07-01 00:03:32			0	35903	0	0	0	26348	24930	148553	27190	1026694	43180	109759	0	0	8159	636217	0	0
2024-07-01 00:04:32			0	35910	0	0	0	26350	24940	148513	27121	1026604	43193	109760	0	0	8160	635880	0	0
2024-07-01 00:05:32			0	35904	0	0	0	26350	24930	148573	27279	1026721	43191	109760	0	0	8159	636174	0	0
2024-07-01 00:06:32			0	35899	0	0	0	26348	24930	148609	26904	1026640	43158	109759	0	0	8159	636389	0	0
2024-07-01 00:07:32			0	35889	0	0	0	26342	24940	148561	27192	1026738	43182	109757	0	0	8159	636782	0	0
2024-07-01 00:08:32			0	35910	0	0	0	26332	24930	148421	26968	1026640	43180	109753	0	0	8160	635916	0	0
2024-07-01 00:09:32			0	35905	0	0	0	26316	24930	148537	26939	1026614	43168	109747	0	0	8160	636131	0	0
2024-07-01 00:10:32			0	35895	0	0	0	26319	24920	148445	26925	1026632	43168	109748	0	0	8159	636597	0	0
2024-07-01 00:11:32			0	35898	0	0	0	26316	24920	148385	27052	1026578	43168	109747	0	0	8160	636468	0	0
2024-07-01 00:12:32			0	35925	0	0	0	26324	24920	148561	27007	1026569	43180	109750	0	0	8161	635308	0	0
2024-07-01 00:13:32			0	35914	0	0	0	26311	24920	148473	27194	1026569	43180	109745	0	0	8161	635780	0	0
2024-07-01 00:14:32			0	35915	0	0	0	26322	24920	148393	27123	1026551	43191	109749	0	0	8160	635737	0	0
2024-07-01 00:15:32			0	35912	0	0	0	26314	24920	148449	26701	1026516	43202	109746	0	0	8160	635866	0	0
2024-07-01 00:16:32			0	35920	0	0	0	26301	24900	148413	27142	1026552	43178	109741	0	0	8161	635595	0	0
2024-07-01 00:17:32			0	35907	0	0	0	26296	24900	148465	26984	1026499	43178	109739	0	0	8160	636153	0	0
2024-07-01 00:18:32			0	35910	0	0	0	26285	24900	148497	27067	1026499	43156	109735	0	0	8161	636024	0	0
2024-07-01 00:19:32			0	35923	0	0	0	26267	24910	148393	27007	1026454	43167	109728	0	0	8162	635430	0	0
2024-07-01 00:20:32			0	35918	0	0	0	26259	24900	148469	26922	1026391	43156	109725	0	0	8162	635681	0	0
2024-07-01 00:21:32			0	35918	0	0	0	26257	24890	148421	27173	1026392	43166	109724	0	0	8162	635717	0	0
2024-07-01 00:22:32			0	35919	0	0	0	26251	24880	148389	27116	1026357	43176	109722	0	0	8162	635710	0	0
2024-07-01 00:23:32			0	35913	0	0	0	26259	24880	148481	26805	1026348	43165	109725	0	0	8161	635968	0	0
2024-07-01 00:24:32			0	35919	0	0	0	26264	24870	148509	27043	1026420	43175	109727	0	0	8161	635746	0	0
2024-07-01 00:25:32			0	35903	0	0	0	26267	24870	148557	27088	1026420	43175	109728	0	0	8161	636433	0	0
2024-07-01 00:26:32			0	35901	0	0	0	26296	24870	148445	26833	1026366	43186	109739	0	0	8160	636519	0	0
2024-07-01 00:27:32			0	35894	0	0	0	26301	24870	148665	26904	1026447	43175	109741	0	0	8160	636820	0	0
2024-07-01 00:28:32			0	35885	0	0	0	26296	24880	148597	26975	1026509	43175	109739	0	0	8159	637171	0	0
2024-07-01 00:29:32			0	35892	0	0	0	26298	24880	148609	27260	1026482	43175	109740	0	0	8159	636870	0	0
2024-07-01 00:30:32			0	35877	0	0	0	26296	24890	148637	27225	1026473	43177	109739	0	0	8159	637479	0	0
2024-07-01 00:31:32			0	35886	0	0	0	26296	24890	148733	27275	1026473	43177	109739	0	0	8159	637092	0	0
2024-07-01 00:32:32			0	35907	0	0	0	26290	24880	148633	27128	1026464	43166	109737	0	0	8160	636225	0	0
2024-07-01 00:33:32			0	35875	0	0	0	26293	24880	148573	26661	1026428	43165	109738	0	0	8159	637601	0	0
2024-07-01 00:34:32			0	35900	0	0	0	26293	24890	148645	26972	1026446	43166	109738	0	0	8160	636490	0	0
2024-07-01 00:35:32			0	35887	0	0	0	26288	24880	148705	26927	1026428	43186	109736	0	0	8159	637085	0	0
2024-07-01 00:36:32			0	35879	0	0	0	26285	24870	148681	26779	1026366	43165	109735	0	0	8159	637465	0	0
2024-07-01 00:37:32			0	35853	0	0	0	26275	24880	148720	27218	1026384	43176	109731	0	0	8158	638548	0	0
2024-07-01 00:38:32			0	35857	0	0	0	26275	24870	148764	26915	1026473	43186	109731	0	0	8158	638412	0	0
2024-07-01 00:39:32			0	35845	0	0	0	26270	24870	148752	27114	1026358	43175	109729	0	0	8157	638929	0	0
2024-07-01 00:40:32			0	35824	0	0	0	26275	24870	148808	26885	1026420	43175	109731	0	0	8156	639835	0	0
2024-07-01 00:41:32			0	35798	0	0	0	26277	24860	149024	27130	1026403	43174	109732	0	0	8155	640994	0	0
2024-07-01 00:42:32			0	35776	0	0	0	26280	24870	149084	27192	1026384	43175	109733	0	0	8154	641908	0	0
2024-07-01 00:43:32			0	35778	0	0	0	26288	24880	149156	26866	1026402	43175	109736	0	0	8154	641785	0	0
2024-07-01 00:44:32			0	35750	0	0	0	26267	24870	149216	27194	1026420	43175	109728	0	0	8152	643033	0	0
2024-07-01 00:45:32			0	35711	0	0	0	26275	24870	149284	27229	1026384	43175	109731	0	0	8150	644724	0	0
2024-07-01 00:46:32			0	35693	0	0	0	26277	24870	149364	27157	1026411	43175	109732	0	0	8149	645505	0	0
2024-07-01 00:47:32			0	35688	0	0	0	26280	24860	149476	26871	1026349	43186	109733	0	0	8149	645758	0	0
2024-07-01 00:48:32			0	35675	0	0	0	26283	24870	149596	27121	1026331	43175	109734	0	0	8148	646287	0	0
2024-07-01 00:49:32			0	35645	0	0	0	26280	24870	149652	27334	1026358	43186	109733	0	0	8147	647591	0	0
2024-07-01 00:50:32			0	35631	0	0	0	26275	24870	149764	26802	1026358	43186	109731	0	0	8146	648201	0	0
2024-07-01 00:51:32			0	35622	0	0	0	26275	24860	149776	27166	1026340	43185	109731	0	0	8145	648629	0	0
2024-07-01 00:52:32			0	35602	0	0	0	26275	24860	149820	26748	1026403	43186	109731	0	0	8144	649501	0	0
2024-07-01 00:53:32			0	35558	0	0	0	26280	24870	150080	26956	1026331	43175	109733	0	0	8142	651386	0	0
2024-07-01 00:54:32			0	35553	0	0	0	26267	24870	150060	27317	1026358	43186	109728	0	0	8142	651604	0	0
2024-07-01 00:55:32			0	35539	0	0	0	26264	24870	150152	26937	1026340	43186	109727	0	0	8141	652216	0	0
2024-07-01 00:56:32			0	35484	0	0	0	26270	24870	150204	27149	1026384	43165	109729	0	0	8138	654625	0	0
2024-07-01 00:57:32			0	35472	0	0	0	26277	24860	150356	27076	1026349	43174	109732	0	0	8137	655189	0	0
2024-07-01 00:58:32			0	35448	0	0	0	26267	24860	150532	26611	1026322	43174	109728	0	0	8136	656243	0	0
2024-07-01 00:59:32			0	35399	0	0	0	26264	24850	150708	27067	1026332	43196	109727	0	0	8134	658436	0	0
2024-07-01 01:00:32			0	35375	0	0	0	26275	24860	150728	27220	1026295	43174	109731	0	0	8132	659457	0	0
2024-07-01 01:01:32			0	35359	0	0	0	26275	24860	150808	26963	1026394	43185	109731	0	0	8131	660163	0	0
2024-07-01 01:02:32			0	35346	0	0	0	26277	24850	150884	26885	1026332	43196	109732	0	0	8131	660774	0	0
2024-07-01 01:03:32			0	35328	0	0	0	26272	24860	150896	27343	1026340	43163	109730	0	0	8130	661532	0	0
2024-07-01 01:04:32			0	35331	0	0	0	26283	24860	150904	27050	1026376	43174	109734	0	0	8130	661399	0	0
2024-07-01 01:05:32			0	35313	0	0	0	26285	24870	150952	27017	1026358	43175	109735	0	0	8129	662158	0	0
2024-07-01 01:06:32			0	35325	0	0	0	26285	24850	150992	27097	1026305	43185	109735	0	0	8129	661702	0	0
2024-07-01 01:07:32			0	35324	0	0	0	26280	24870	151040	27045	1026358	43175	109733	0	0	8129	661671	0	0
2024-07-01 01:08:32			0	35318	0	0	0	26293	24870	151076	27123	1026358	43186	109738	0	0	8129	661936	0	0
2024-07-01 01:09:32			0	35303	0	0	0	26272	24870	151088	27067	1026358	43175	109730	0	0	8128	662600	0	0
2024-07-01 01:10:32			0	35275	0	0	0	26275	24880	151120	27123	1026402	43175	109731	0	0	8127	663802	0	0
2024-07-01 01:11:32			0	35279	0	0	0	26275	24860	151224	27157	1026376	43164	109731	0	0	8127	663700	0	0
2024-07-01 01:12:32			0	35286	0	0	0	26270	24860	151152	27102	1026340	43163	109729	0	0	8127	663390	0	0
2024-07-01 01:13:32			0	35258	0	0	0	26277	24870	151336	26788	1026384	43175	109732	0	0	8126	664594	0	0
2024-07-01 01:14:32			0	35252	0	0	0	26280	24870	151312	27090	1026438	43165	109733	0	0	8126	664860	0	0
2024-07-01 01:15:32			0	35244	0	0	0	26275	24870	151400	26941	1026411	43175	109731	0	0	8125	665215	0	0
2024-07-01 01:16:32			0	35247	0	0	0	26280	24860	151388	26739	1026314	43163	109733	0	0	8125	665119	0	0
2024-07-01 01:17:32			0	35240	0	0	0	26264	24860	151344	26835	1026376	43174	109727	0	0	8125	665430	0	0
2024-07-01 01:18:32			0	35247	0	0	0	26270	24860	151340	27131	1026349	43174	109729	0	0	8125	665119	0	0
2024-07-01 01:19:32			0	35240	0	0	0	26270	24860	151376	27260	1026367	43173	109729	0	0	8125	665430	0	0
2024-07-01 01:20:32			0	35258	0	0	0	26259	24870	151300	26783	1026384	43165	109725	0	0	8126	664594	0	0
2024-07-01 01:21:32			0	35253	0	0	0	26257	24870	151320	27280	1026366	43175	109724	0	0	8126	664816	0	0
2024-07-01 01:22:32			0	35242	0	0	0	26254	24850	151292	26986	1026278	43173	109723	0	0	8125	665379	0	0
2024-07-01 01:23:32			0	35265	0	0	0	26259	24850	151392	27048	1026296	43173	109725	0	0	8126	664359	0	0
2024-07-01 01:24:32			0	35261	0	0	0	26254	24850	151340	26958	1026332	43173	109723	0	0	8126	664536	0	0
2024-07-01 01:25:32			0	35251	0	0	0	26254	24860	151256	27066	1026287	43173	109723	0	0	8126	664942	0	0
2024-07-01 01:26:32			0	35257	0	0	0	26246	24850	151332	26809	1026243	43173	109720	0	0	8126	664713	0	0
2024-07-01 01:27:32			0	35266	0	0	0	26238	24840	151188	27183	1026288	43172	109717	0	0	8127	664352	0	0
2024-07-01 01:28:32			0	35255	0	0	0	26238	24840	151252	26902	1026261	43172	109717	0	0	8126	664840	0	0
2024-07-01 01:29:32			0	35249	0	0	0	26241	24830	151340	27284	1026243	43183	109718	0	0	8126	665144	0	0
2024-07-01 01:30:32			0	35248	0	0	0	26244	24840	151332	26961	1026234	43184	109719	0	0	8126	665150	0	0
2024-07-01 01:31:32			0	35213	0	0	0	26249	24840	151520	27067	1026261	43162	109721	0	0	8124	666705	0	0
2024-07-01 01:32:32			0	35158	0	0	0	26241	24840	151708	27119	1026180	43172	109718	0	0	8121	669154	0	0
2024-07-01 01:33:32			0	35124	0	0	0	26233	24830	151920	27074	1026190	43183	109715	0	0	8119	670709	0	0
2024-07-01 01:34:32			0	35079	0	0	0	26233	24830	152195	27036	1026190	43171	109715	0	0	8117	672721	0	0
2024-07-01 01:35:32			0	35038	0	0	0	26225	24830	152327	27190	1026190	43183	109712	0	0	8115	674558	0	0
2024-07-01 01:36:32			0	35003	0	0	0	26231	24830	152463	26677	1026181	43171	109714	0	0	8113	676129	0	0
2024-07-01 01:37:32			0	34972	0	0	0	26225	24830	152739	27041	1026208	43183	109712	0	0	8111	677523	0	0
2024-07-01 01:38:32			0	34902	0	0	0	26215	24830	152759	27033	1026155	43183	109708	0	0	8107	680678	0	0
2024-07-01 01:39:32			0	34904	0	0	0	26218	24830	153003	27078	1026181	43171	109709	0	0	8108	680588	0	0
2024-07-01 01:40:32			0	34855	0	0	0	26218	24820	153075	26828	1026146	43182	109709	0	0	8105	682841	0	0
2024-07-01 01:41:32			0	34842	0	0	0	26212	24820	153171	27272	1026092	43182	109707	0	0	8104	683430	0	0
2024-07-01 01:42:32			0	34826	0	0	0	26218	24820	153419	27121	1026119	43170	109709	0	0	8103	684155	0	0
2024-07-01 01:43:32			0	34753	0	0	0	26210	24820	153459	27223	1026164	43169	109706	0	0	8099	687470	0	0
2024-07-01 01:44:32			0	34722	0	0	0	26212	24820	153751	27182	1026164	43159	109707	0	0	8098	688882	0	0
2024-07-01 01:45:32			0	34700	0	0	0	26207	24810	153819	27003	1026093	43158	109705	0	0	8096	689924	0	0
2024-07-01 01:46:32			0	34667	0	0	0	26220	24810	153947	27216	1026129	43181	109710	0	0	8094	691431	0	0
2024-07-01 01:47:32			0	34642	0	0	0	26212	24810	154003	27064	1026155	43169	109707	0	0	8093	692574	0	0
2024-07-01 01:48:32			0	34658	0	0	0	26218	24810	154023	27346	1026120	43180	109709	0	0	8094	691842	0	0
2024-07-01 01:49:32			0	34651	0	0	0	26215	24810	154159	26863	1026093	43180	109708	0	0	8094	692162	0	0
2024-07-01 01:50:32			0	34622	0	0	0	26223	24810	154179	26883	1026075	43159	109711	0	0	8092	693489	0	0
2024-07-01 01:51:32			0	34607	0	0	0	26223	24810	154199	26793	1026182	43204	109711	0	0	8091	694177	0	0
2024-07-01 01:52:32			0	34564	0	0	0	26225	24820	154351	26663	1026119	43170	109712	0	0	8089	696110	0	0
2024-07-01 01:53:32			0	34550	0	0	0	26236	24820	154455	26618	1026164	43159	109716	0	0	8088	696753	0	0
2024-07-01 01:54:32			0	34548	0	0	0	26228	24810	154535	26909	1026120	43169	109713	0	0	8088	696885	0	0
2024-07-01 01:55:32			0	34534	0	0	0	26225	24810	154579	27076	1026129	43169	109712	0	0	8087	697529	0	0
2024-07-01 01:56:32			0	34518	0	0	0	26223	24810	154543	27105	1026155	43192	109711	0	0	8086	698265	0	0
2024-07-01 01:57:32			0	34524	0	0	0	26220	24820	154499	27069	1026191	43181	109710	0	0	8087	697949	0	0
2024-07-01 01:58:32			0	34528	0	0	0	26231	24820	154491	27121	1026110	43181	109714	0	0	8087	697765	0	0
2024-07-01 01:59:32			0	34532	0	0	0	26225	24820	154543	26925	1026146	43182	109712	0	0	8087	697581	0	0
2024-07-01 02:00:32			0	34525	0	0	0	26225	24810	154451	27246	1026129	43181	109712	0	0	8087	697943	0	0
2024-07-01 02:01:32			0	34540	0	0	0	26228	24810	154575	26901	1026120	43169	109713	0	0	8087	697253	0	0
2024-07-01 02:02:32			0	34545	0	0	0	26231	24820	154459	27215	1026164	43181	109714	0	0	8088	696983	0	0
2024-07-01 02:03:32			0	34517	0	0	0	26212	24810	154591	27163	1026147	43180	109707	0	0	8086	698311	0	0
2024-07-01 02:04:32			0	34512	0	0	0	26215	24810	154615	26837	1026102	43169	109708	0	0	8086	698541	0	0
2024-07-01 02:05:32			0	34501	0	0	0	26210	24810	154755	27008	1026093	43191	109706	0	0	8085	699048	0	0
2024-07-01 02:06:32			0	34455	0	0	0	26215	24800	154839	26795	1026084	43169	109708	0	0	8083	701210	0	0
2024-07-01 02:07:32			0	34434	0	0	0	26207	24810	155019	26987	1026102	43169	109705	0	0	8082	702141	0	0
2024-07-01 02:08:32			0	34404	0	0	0	26215	24810	155167	26682	1026048	43169	109708	0	0	8080	703529	0	0
2024-07-01 02:09:32			0	34377	0	0	0	26218	24810	155319	27031	1026093	43169	109709	0	0	8078	704781	0	0
2024-07-01 02:10:32			0	34343	0	0	0	26207	24800	155395	27260	1026057	43180	109705	0	0	8077	706399	0	0
2024-07-01 02:11:32			0	34317	0	0	0	26202	24800	155482	27140	1026004	43158	109703	0	0	8075	707607	0	0
2024-07-01 02:12:32			0	34289	0	0	0	26192	24800	155698	26757	1026004	43158	109699	0	0	8074	708911	0	0
2024-07-01 02:13:32			0	34256	0	0	0	26194	24800	155802	27034	1026049	43179	109700	0	0	8072	710449	0	0
2024-07-01 02:14:32			0	34229	0	0	0	26181	24800	155910	26870	1026057	43158	109695	0	0	8071	711710	0	0
2024-07-01 02:15:32			0	34194	0	0	0	26181	24800	156114	27350	1026022	43168	109695	0	0	8069	713347	0	0
2024-07-01 02:16:32			0	34136	0	0	0	26181	24790	156406	27140	1025986	43178	109695	0	0	8066	716107	0	0
2024-07-01 02:17:32			0	34077	0	0	0	26174	24790	156734	27027	1025978	43156	109692	0	0	8062	718882	0	0
2024-07-01 02:18:32			0	34011	0	0	0	26166	24790	156986	27251	1025933	43156	109689	0	0	8059	721995	0	0
2024-07-01 02:19:32			0	33922	0	0	0	26153	24780	157250	26823	1025934	43166	109684	0	0	8054	726252	0	0
2024-07-01 02:20:32			0	33877	0	0	0	26163	24770	157438	27293	1025925	43166	109688	0	0	8051	728433	0	0
2024-07-01 02:21:32			0	33805	0	0	0	26168	24780	157854	26953	1025889	43167	109690	0	0	8047	731825	0	0
2024-07-01 02:22:32			0	33753	0	0	0	26161	24770	158166	26935	1025943	43176	109687	0	0	8044	734354	0	0
2024-07-01 02:23:32			0	33703	0	0	0	26155	24760	158414	26706	1025854	43154	109685	0	0	8042	736794	0	0
2024-07-01 02:24:32			0	33670	0	0	0	26158	24770	158630	27001	1025890	43154	109686	0	0	8040	738338	0	0
2024-07-01 02:25:32			0	33610	0	0	0	26163	24760	158842	27144	1025881	43166	109688	0	0	8036	741271	0	0
2024-07-01 02:26:32			0	33552	0	0	0	26158	24770	159177	26776	1025943	43176	109686	0	0	8033	744033	0	0
2024-07-01 02:27:32			0	33496	0	0	0	26155	24760	159545	27076	1025881	43188	109685	0	0	8030	746790	0	0
2024-07-01 02:28:32			0	33420	0	0	0	26158	24760	159745	26941	1025881	43166	109686	0	0	8025	750488	0	0
2024-07-01 02:29:32			0	33371	0	0	0	26148	24770	160029	27088	1025890	43154	109682	0	0	8023	752838	0	0
2024-07-01 02:30:32			0	33296	0	0	0	26166	24760	160413	27100	1025846	43154	109689	0	0	8018	756553	0	0
2024-07-01 02:31:32			0	33224	0	0	0	26155	24760	160765	27088	1025872	43165	109685	0	0	8014	760093	0	0
2024-07-01 02:32:32			0	33183	0	0	0	26158	24750	161057	27069	1025810	43153	109686	0	0	8012	762159	0	0
2024-07-01 02:33:32			0	33129	0	0	0	26150	24750	161293	27090	1025810	43174	109683	0	0	8009	764828	0	0
2024-07-01 02:34:32			0	33105	0	0	0	26155	24750	161349	27130	1025882	43164	109685	0	0	8007	766018	0	0
2024-07-01 02:35:32			0	33079	0	0	0	26158	24760	161645	26935	1025899	43165	109686	0	0	8006	767264	0	0
2024-07-01 02:36:32			0	33018	0	0	0	26155	24750	161789	27053	1025855	43164	109685	0	0	8002	770341	0	0
2024-07-01 02:37:32			0	32985	0	0	0	26155	24750	162033	26993	1025783	43130	109685	0	0	8000	771986	0	0
2024-07-01 02:38:32			0	32954	0	0	0	26148	24750	162193	27020	1025864	43174	109682	0	0	7998	773535	0	0
2024-07-01 02:39:32			0	32929	0	0	0	26148	24750	162253	26942	1025802	43174	109682	0	0	7997	774785	0	0
2024-07-01 02:40:32			0	32896	0	0	0	26158	24740	162357	26816	1025811	43163	109686	0	0	7995	776482	0	0
2024-07-01 02:41:32			0	32891	0	0	0	26145	24740	162561	27220	1025820	43163	109681	0	0	7995	776733	0	0
2024-07-01 02:42:32			0	32871	0	0	0	26150	24750	162509	26986	1025802	43174	109683	0	0	7993	777692	0	0
2024-07-01 02:43:32			0	32880	0	0	0	26145	24740	162357	27026	1025811	43163	109681	0	0	7994	777285	0	0
2024-07-01 02:44:32			0	32906	0	0	0	26140	24740	162309	26923	1025784	43152	109679	0	0	7996	775981	0	0
2024-07-01 02:45:32			0	32901	0	0	0	26142	24740	162333	26648	1025820	43163	109680	0	0	7995	776231	0	0
2024-07-01 02:46:32			0	32915	0	0	0	26142	24740	162389	27007	1025873	43163	109680	0	0	7996	775530	0	0
2024-07-01 02:47:32			0	32915	0	0	0	26142	24740	162365	26859	1025784	43173	109680	0	0	7996	775530	0	0
2024-07-01 02:48:32			0	32905	0	0	0	26137	24740	162369	26902	1025820	43173	109678	0	0	7996	776031	0	0
2024-07-01 02:49:32			0	32947	0	0	0	26142	24740	162257	27008	1025784	43173	109680	0	0	7998	773928	0	0
2024-07-01 02:50:32			0	32944	0	0	0	26124	24730	162213	26658	1025776	43162	109673	0	0	7998	774122	0	0
2024-07-01 02:51:32			0	32943	0	0	0	26135	24730	162241	26753	1025740	43184	109677	0	0	7998	774172	0	0
2024-07-01 02:52:32			0	32952	0	0	0	26132	24740	162185	27137	1025731	43163	109676	0	0	7998	773678	0	0
2024-07-01 02:53:32			0	32967	0	0	0	26137	24740	162097	26908	1025784	43163	109678	0	0	7999	772929	0	0
2024-07-01 02:54:32			0	32952	0	0	0	26127	24730	162085	26875	1025722	43172	109674	0	0	7999	773722	0	0
2024-07-01 02:55:32			0	32971	0	0	0	26135	24730	162069	27170	1025749	43172	109677	0	0	7999	772773	0	0
2024-07-01 02:56:32			0	32965	0	0	0	26137	24740	162105	27348	1025731	43173	109678	0	0	7999	773029	0	0
2024-07-01 02:57:32			0	32958	0	0	0	26137	24730	162029	27059	1025767	43172	109678	0	0	7999	773422	0	0
2024-07-01 02:58:32			0	32973	0	0	0	26132	24740	162037	26977	1025731	43173	109676	0	0	8000	772629	0	0
2024-07-01 02:59:32			0	32976	0	0	0	26124	24730	161997	27048	1025776	43172	109673	0	0	8000	772523	0	0
2024-07-01 03:00:32			0	32974	0	0	0	26135	24720	161993	27206	1025758	43161	109677	0	0	8000	772667	0	0
2024-07-01 03:01:32			0	32979	0	0	0	26124	24720	161925	27170	1025696	43150	109673	0	0	8000	772417	0	0
2024-07-01 03:02:32			0	32950	0	0	0	26129	24730	162121	27003	1025740	43172	109675	0	0	7998	773822	0	0
2024-07-01 03:03:32			0	32939	0	0	0	26127	24730	162241	26852	1025740	43172	109674	0	0	7998	774372	0	0
2024-07-01 03:04:32			0	32940	0	0	0	26135	24720	162241	27161	1025731	43161	109677	0	0	7998	774366	0	0
2024-07-01 03:05:32			0	32907	0	0	0	26127	24710	162277	27293	1025679	43159	109674	0	0	7996	776062	0	0
2024-07-01 03:06:32			0	32893	0	0	0	26119	24710	162333	27345	1025741	43171	109671	0	0	7995	776764	0	0
2024-07-01 03:07:32			0	32901	0	0	0	26129	24720	162429	27194	1025731	43171	109675	0	0	7995	776319	0	0
2024-07-01 03:08:32			0	32895	0	0	0	26137	24730	162509	27331	1025713	43172	109678	0	0	7995	776576	0	0
2024-07-01 03:09:32			0	32907	0	0	0	26132	24710	162457	27237	1025679	43181	109676	0	0	7996	776062	0	0
2024-07-01 03:10:32			0	32888	0	0	0	26135	24720	162573	27462	1025750	43183	109677	0	0	7995	776971	0	0
2024-07-01 03:11:32			0	32881	0	0	0	26132	24720	162533	27130	1025705	43171	109676	0	0	7994	777322	0	0
2024-07-01 03:12:32			0	32898	0	0	0	26124	24720	162529	27001	1025678	43171	109673	0	0	7995	776470	0	0
2024-07-01 03:13:32			0	32888	0	0	0	26116	24720	162577	27334	1025669	43161	109670	0	0	7995	776971	0	0
2024-07-01 03:14:32			0	32903	0	0	0	26124	24720	162585	27097	1025678	43171	109673	0	0	7996	776219	0	0
2024-07-01 03:15:32			0	32902	0	0	0	26127	24710	162533	27362	1025706	43159	109674	0	0	7995	776313	0	0
2024-07-01 03:16:32			0	32917	0	0	0	26127	24720	162577	26994	1025696	43161	109674	0	0	7996	775517	0	0
2024-07-01 03:17:32			0	32911	0	0	0	26119	24710	162461	27170	1025679	43170	109671	0	0	7996	775862	0	0
2024-07-01 03:18:32			0	32912	0	0	0	26119	24720	162481	27119	1025651	43171	109671	0	0	7996	775768	0	0
2024-07-01 03:19:32			0	32890	0	0	0	26116	24720	162341	27211	1025723	43171	109670	0	0	7995	776871	0	0
2024-07-01 03:20:32			0	32892	0	0	0	26122	24720	162457	26928	1025696	43161	109672	0	0	7995	776771	0	0
2024-07-01 03:21:32			0	32900	0	0	0	26122	24720	162297	27157	1025678	43161	109672	0	0	7995	776369	0	0
2024-07-01 03:22:32			0	32891	0	0	0	26122	24700	162457	27109	1025643	43181	109672	0	0	7995	776909	0	0
2024-07-01 03:23:32			0	32894	0	0	0	26124	24720	162437	26920	1025669	43171	109673	0	0	7995	776670	0	0
2024-07-01 03:24:32			0	32871	0	0	0	26124	24710	162493	27282	1025679	43170	109673	0	0	7994	777869	0	0
2024-07-01 03:25:32			0	32881	0	0	0	26116	24710	162389	27334	1025679	43159	109670	0	0	7994	777366	0	0
2024-07-01 03:26:32			0	32891	0	0	0	26111	24710	162289	27383	1025652	43159	109668	0	0	7995	776865	0	0
2024-07-01 03:27:32			0	32931	0	0	0	26122	24710	162337	27315	1025625	43159	109672	0	0	7997	774860	0	0
2024-07-01 03:28:32			0	32958	0	0	0	26111	24700	162137	27026	1025608	43159	109668	0	0	7999	773554	0	0
2024-07-01 03:29:32			0	32979	0	0	0	26116	24710	161997	27166	1025625	43159	109670	0	0	8000	772461	0	0
2024-07-01 03:30:32			0	32978	0	0	0	26109	24700	161981	27268	1025661	43159	109667	0	0	8000	772554	0	0
2024-07-01 03:31:32			0	32991	0	0	0	26116	24700	161945	27164	1025670	43159	109670	0	0	8001	771905	0	0
2024-07-01 03:32:32			0	32997	0	0	0	26111	24700	162005	27135	1025608	43170	109668	0	0	8001	771606	0	0
2024-07-01 03:33:32			0	33000	0	0	0	26106	24700	161849	26844	1025635	43159	109666	0	0	8002	771456	0	0
2024-07-01 03:34:32			0	33009	0	0	0	26109	24700	161889	26885	1025608	43170	109667	0	0	8002	771008	0	0
2024-07-01 03:35:32			0	33026	0	0	0	26109	24700	161829	26915	1025608	43170	109667	0	0	8003	770161	0	0
2024-07-01 03:36:32			0	33019	0	0	0	26096	24700	161845	26790	1025581	43170	109662	0	0	8003	770509	0	0
2024-07-01 03:37:32			0	33055	0	0	0	26116	24700	161697	26889	1025617	43170	109670	0	0	8005	768717	0	0
2024-07-01 03:38:32			0	33061	0	0	0	26106	24700	161697	26831	1025635	43170	109666	0	0	8005	768419	0	0
2024-07-01 03:39:32			0	33030	0	0	0	26106	24690	161857	27206	1025599	43158	109666	0	0	8003	770005	0	0
2024-07-01 03:40:32			0	33033	0	0	0	26096	24690	161709	27388	1025653	43169	109662	0	0	8004	769856	0	0
2024-07-01 03:41:32			0	33036	0	0	0	26106	24700	161689	27319	1025581	43159	109666	0	0	8004	769663	0	0
2024-07-01 03:42:32			0	33052	0	0	0	26098	24690	161661	26970	1025626	43158	109663	0	0	8005	768910	0	0
2024-07-01 03:43:32			0	33049	0	0	0	26111	24690	161677	27015	1025599	43169	109668	0	0	8004	769059	0	0
2024-07-01 03:44:32			0	33052	0	0	0	26103	24690	161669	27060	1025626	43158	109665	0	0	8005	768910	0	0
2024-07-01 03:45:32			0	33052	0	0	0	26096	24700	161581	26991	1025554	43159	109662	0	0	8005	768867	0	0
2024-07-01 03:46:32			0	33061	0	0	0	26093	24690	161529	27196	1025591	43168	109661	0	0	8005	768463	0	0
2024-07-01 03:47:32			0	33068	0	0	0	26093	24680	161537	27034	1025555	43168	109661	0	0	8006	768158	0	0
2024-07-01 03:48:32			0	33042	0	0	0	26080	24690	161753	26981	1025546	43147	109656	0	0	8004	769408	0	0
2024-07-01 03:49:32			0	33029	0	0	0	26090	24690	161713	27376	1025572	43158	109660	0	0	8003	770055	0	0
2024-07-01 03:50:32			0	33006	0	0	0	26080	24690	161861	27206	1025546	43158	109656	0	0	8002	771201	0	0
2024-07-01 03:51:32			0	33012	0	0	0	26090	24690	162029	27211	1025564	43157	109660	0	0	8002	770902	0	0
2024-07-01 03:52:32			0	33014	0	0	0	26093	24680	162025	27118	1025502	43168	109661	0	0	8002	770846	0	0
2024-07-01 03:53:32			0	33026	0	0	0	26090	24680	161813	27261	1025609	43157	109660	0	0	8003	770248	0	0
2024-07-01 03:54:32			0	33029	0	0	0	26083	24670	161941	27121	1025502	43156	109657	0	0	8003	770142	0	0
2024-07-01 03:55:32			0	33027	0	0	0	26085	24680	161853	27156	1025546	43167	109658	0	0	8003	770198	0	0
2024-07-01 03:56:32			0	33056	0	0	0	26090	24670	161777	27490	1025511	43167	109660	0	0	8005	768798	0	0
2024-07-01 03:57:32			0	33082	0	0	0	26077	24670	161629	27175	1025538	43156	109655	0	0	8007	767506	0	0
2024-07-01 03:58:32			0	33110	0	0	0	26096	24680	161481	27371	1025546	43178	109662	0	0	8008	766073	0	0
2024-07-01 03:59:32			0	33120	0	0	0	26077	24670	161473	27076	1025538	43156	109655	0	0	8009	765621	0	0
2024-07-01 04:00:32			0	33144	0	0	0	26088	24680	161485	27071	1025546	43156	109659	0	0	8010	764389	0	0
2024-07-01 04:01:32			0	33153	0	0	0	26080	24680	161377	27286	1025519	43167	109656	0	0	8011	763944	0	0
2024-07-01 04:02:32			0	33159	0	0	0	26080	24680	161301	27109	1025546	43167	109656	0	0	8011	763647	0	0
2024-07-01 04:03:32			0	33153	0	0	0	26077	24680	161149	27137	1025519	43156	109655	0	0	8011	763944	0	0
2024-07-01 04:04:32			0	33161	0	0	0	26093	24670	161169	27093	1025538	43156	109661	0	0	8011	763591	0	0
2024-07-01 04:05:32			0	33162	0	0	0	26083	24670	161281	27159	1025475	43156	109657	0	0	8011	763542	0	0
2024-07-01 04:06:32			0	33153	0	0	0	26088	24670	161197	27131	1025538	43156	109659	0	0	8011	763987	0	0
2024-07-01 04:07:32			0	33156	0	0	0	26080	24670	161265	27137	1025511	43167	109656	0	0	8011	763838	0	0
2024-07-01 04:08:32			0	33141	0	0	0	26070	24670	161289	26955	1025457	43145	109652	0	0	8010	764581	0	0
2024-07-01 04:09:32			0	33160	0	0	0	26072	24670	161329	27001	1025449	43144	109653	0	0	8011	763640	0	0
2024-07-01 04:10:32			0	33153	0	0	0	26080	24670	161437	27225	1025475	43166	109656	0	0	8011	763987	0	0
2024-07-01 04:11:32			0	33173	0	0	0	26083	24670	161253	27381	1025511	43145	109657	0	0	8012	762998	0	0
2024-07-01 04:12:32			0	33174	0	0	0	26072	24670	161129	27279	1025449	43166	109653	0	0	8012	762948	0	0
2024-07-01 04:13:32			0	33207	0	0	0	26077	24670	161097	27031	1025475	43156	109655	0	0	8014	761319	0	0
2024-07-01 04:14:32			0	33248	0	0	0	26072	24670	160989	27171	1025529	43156	109653	0	0	8016	759299	0	0
2024-07-01 04:15:32			0	33270	0	0	0	26085	24660	160865	27100	1025493	43166	109658	0	0	8017	758259	0	0
2024-07-01 04:16:32			0	33267	0	0	0	26077	24670	160769	26982	1025475	43166	109655	0	0	8017	758364	0	0
2024-07-01 04:17:32			0	33273	0	0	0	26062	24670	160793	26887	1025457	43167	109649	0	0	8018	758069	0	0
2024-07-01 04:18:32			0	33238	0	0	0	26057	24670	160753	26948	1025475	43166	109647	0	0	8016	759791	0	0
2024-07-01 04:19:32			0	33236	0	0	0	26067	24660	160897	26847	1025458	43155	109651	0	0	8016	759932	0	0
2024-07-01 04:20:32			0	33231	0	0	0	26067	24660	160905	27066	1025378	43143	109651	0	0	8015	760179	0	0
2024-07-01 04:21:32			0	33233	0	0	0	26059	24660	160937	26953	1025458	43166	109648	0	0	8016	760080	0	0
2024-07-01 04:22:32			0	33225	0	0	0	26046	24660	160941	26859	1025405	43155	109643	0	0	8015	760475	0	0
2024-07-01 04:23:32			0	33225	0	0	0	26041	24650	161129	27078	1025449	43176	109641	0	0	8015	760518	0	0
2024-07-01 04:24:32			0	33214	0	0	0	26051	24640	161021	26861	1025379	43165	109645	0	0	8015	761103	0	0
2024-07-01 04:25:32			0	33221	0	0	0	26059	24650	161009	27159	1025369	43143	109648	0	0	8015	760715	0	0
2024-07-01 04:26:32			0	33246	0	0	0	26057	24650	160989	27105	1025396	43166	109647	0	0	8016	759483	0	0
2024-07-01 04:27:32			0	33264	0	0	0	26054	24640	160805	27164	1025352	43165	109646	0	0	8017	758640	0	0
2024-07-01 04:28:32			0	33273	0	0	0	26051	24650	160709	26986	1025334	43175	109645	0	0	8018	758155	0	0
2024-07-01 04:29:32			0	33254	0	0	0	26041	24640	160933	27293	1025379	43175	109641	0	0	8017	759132	0	0
2024-07-01 04:30:32			0	33244	0	0	0	26038	24650	160893	27199	1025360	43154	109640	0	0	8017	759581	0	0
2024-07-01 04:31:32			0	33244	0	0	0	26036	24640	160969	27222	1025298	43165	109639	0	0	8017	759624	0	0
2024-07-01 04:32:32			0	33232	0	0	0	26046	24650	161069	27395	1025334	43142	109643	0	0	8016	760173	0	0
2024-07-01 04:33:32			0	33225	0	0	0	26038	24650	160973	27332	1025360	43175	109640	0	0	8016	760518	0	0
2024-07-01 04:34:32			0	33237	0	0	0	26025	24640	160973	27130	1025325	43142	109635	0	0	8016	759969	0	0
2024-07-01 04:35:32			0	33230	0	0	0	26015	24640	161021	27234	1025298	43165	109631	0	0	8016	760314	0	0
2024-07-01 04:36:32			0	33222	0	0	0	26018	24620	161057	27156	1025228	43151	109632	0	0	8016	760795	0	0
2024-07-01 04:37:32			0	33211	0	0	0	26012	24630	161117	26902	1025308	43140	109630	0	0	8015	761294	0	0
2024-07-01 04:38:32			0	33222	0	0	0	26012	24630	161057	26896	1025219	43152	109630	0	0	8016	760752	0	0
2024-07-01 04:39:32			0	33228	0	0	0	26012	24620	161061	26928	1025210	43152	109630	0	0	8016	760499	0	0
2024-07-01 04:40:32			0	33206	0	0	0	26005	24620	161169	26899	1025237	43152	109627	0	0	8015	761584	0	0
2024-07-01 04:41:32			0	33215	0	0	0	26002	24620	161153	27208	1025228	43162	109626	0	0	8015	761140	0	0
2024-07-01 04:42:32			0	33211	0	0	0	26007	24630	161073	27170	1025219	43152	109628	0	0	8015	761294	0	0
2024-07-01 04:43:32			0	33225	0	0	0	26005	24620	160973	27327	1025201	43151	109627	0	0	8016	760647	0	0
2024-07-01 04:44:32			0	33218	0	0	0	25994	24600	161029	27152	1025184	43150	109623	0	0	8016	761078	0	0
2024-07-01 04:45:32			0	33244	0	0	0	26005	24600	161017	27296	1025184	43161	109627	0	0	8017	759796	0	0
2024-07-01 04:46:32			0	33232	0	0	0	26002	24610	161217	27093	1025193	43161	109626	0	0	8016	760345	0	0
2024-07-01 04:47:32			0	33245	0	0	0	26005	24590	161013	27220	1025167	43138	109627	0	0	8017	759790	0	0
2024-07-01 04:48:32			0	33232	0	0	0	26005	24600	161061	27336	1025122	43171	109627	0	0	8016	760388	0	0
2024-07-01 04:49:32			0	33240	0	0	0	26007	24600	161001	26923	1025122	43160	109628	0	0	8017	759993	0	0
2024-07-01 04:50:32			0	33258	0	0	0	26010	24600	160849	27057	1025211	43139	109629	0	0	8018	759107	0	0
2024-07-01 04:51:32			0	33238	0	0	0	26002	24600	160969	27144	1025229	43149	109626	0	0	8017	760092	0	0
2024-07-01 04:52:32			0	33222	0	0	0	26012	24590	161045	26979	1025113	43160	109630	0	0	8015	760924	0	0
2024-07-01 04:53:32			0	33227	0	0	0	26005	24600	160941	26904	1025211	43150	109627	0	0	8016	760634	0	0
2024-07-01 04:54:32			0	33266	0	0	0	26007	24590	160969	27163	1025087	43160	109628	0	0	8018	758756	0	0
2024-07-01 04:55:32			0	33256	0	0	0	26005	24590	161017	27322	1025220	43160	109627	0	0	8018	759249	0	0
2024-07-01 04:56:32			0	33256	0	0	0	26005	24620	160921	27135	1025228	43162	109627	0	0	8018	759120	0	0
2024-07-01 04:57:32			0	33276	0	0	0	25997	24600	160901	27223	1025131	43150	109624	0	0	8019	758222	0	0
2024-07-01 04:58:32			0	33263	0	0	0	26007	24600	160865	27163	1025211	43161	109628	0	0	8018	758861	0	0
2024-07-01 04:59:32			0	33246	0	0	0	26007	24600	160957	26991	1025122	43160	109628	0	0	8017	759698	0	0
2024-07-01 05:00:32			0	33252	0	0	0	26005	24600	160985	26951	1025176	43149	109627	0	0	8017	759402	0	0
2024-07-01 05:01:32			0	33279	0	0	0	26010	24600	160897	26790	1025202	43149	109629	0	0	8019	758074	0	0
2024-07-01 05:02:32			0	33259	0	0	0	26012	24600	160925	26894	1025256	43171	109630	0	0	8018	759058	0	0
2024-07-01 05:03:32			0	33284	0	0	0	26018	24590	160757	27119	1025158	43159	109632	0	0	8019	757871	0	0
2024-07-01 05:04:32			0	33278	0	0	0	26015	24590	160945	27284	1025194	43160	109631	0	0	8019	758166	0	0
2024-07-01 05:05:32			0	33280	0	0	0	26010	24600	160789	27223	1025202	43171	109629	0	0	8019	758025	0	0
2024-07-01 05:06:32			0	33275	0	0	0	26020	24600	160873	27170	1025229	43160	109633	0	0	8018	758271	0	0
2024-07-01 05:07:32			0	33256	0	0	0	26012	24590	160913	27093	1025247	43182	109630	0	0	8017	759249	0	0
2024-07-01 05:08:32			0	33263	0	0	0	26023	24600	160921	26844	1025184	43150	109634	0	0	8018	758861	0	0
2024-07-01 05:09:32			0	33261	0	0	0	26012	24610	161021	27164	1025273	43161	109630	0	0	8018	758916	0	0
2024-07-01 05:10:32			0	33254	0	0	0	26025	24600	160825	27229	1025184	43161	109635	0	0	8017	759304	0	0
2024-07-01 05:11:32			0	33268	0	0	0	26012	24600	160881	27216	1025283	43160	109630	0	0	8018	758615	0	0
2024-07-01 05:12:32			0	33266	0	0	0	26012	24620	160925	27140	1025201	43173	109630	0	0	8018	758628	0	0
2024-07-01 05:13:32			0	33268	0	0	0	26005	24600	160893	26831	1025202	43149	109627	0	0	8018	758615	0	0
2024-07-01 05:14:32			0	33268	0	0	0	26018	24610	160849	26743	1025246	43150	109632	0	0	8018	758572	0	0
2024-07-01 05:15:32			0	33266	0	0	0	26018	24600	160905	27124	1025238	43161	109632	0	0	8018	758714	0	0
2024-07-01 05:16:32			0	33288	0	0	0	26005	24590	160733	27315	1025194	43160	109627	0	0	8019	757675	0	0
2024-07-01 05:17:32			0	33289	0	0	0	26005	24610	160889	27320	1025193	43161	109627	0	0	8020	757540	0	0
2024-07-01 05:18:32			0	33265	0	0	0	26002	24610	160889	27133	1025220	43161	109626	0	0	8018	758720	0	0
2024-07-01 05:19:32			0	33268	0	0	0	26018	24600	160941	27284	1025176	43160	109632	0	0	8018	758615	0	0
2024-07-01 05:20:32			0	33270	0	0	0	25994	24600	160957	27234	1025176	43149	109623	0	0	8019	758517	0	0
2024-07-01 05:21:32			0	33243	0	0	0	26002	24600	161017	27097	1025095	43160	109626	0	0	8017	759846	0	0
2024-07-01 05:22:32			0	33242	0	0	0	26007	24590	161089	27220	1025113	43149	109628	0	0	8017	759938	0	0
2024-07-01 05:23:32			0	33232	0	0	0	25999	24590	161141	27208	1025078	43170	109625	0	0	8016	760431	0	0
2024-07-01 05:24:32			0	33229	0	0	0	25994	24590	161153	27107	1025087	43160	109623	0	0	8016	760579	0	0
2024-07-01 05:25:32			0	33200	0	0	0	26005	24600	161269	27303	1025176	43160	109627	0	0	8014	761966	0	0
2024-07-01 05:26:32			0	33207	0	0	0	26005	24600	161213	27289	1025077	43172	109627	0	0	8015	761621	0	0
2024-07-01 05:27:32			0	33211	0	0	0	25992	24590	161293	27104	1025113	43149	109622	0	0	8015	761466	0	0
2024-07-01 05:28:32			0	33192	0	0	0	25994	24590	161361	27076	1025105	43159	109623	0	0	8014	762404	0	0
2024-07-01 05:29:32			0	33179	0	0	0	26002	24590	161369	27131	1025087	43149	109626	0	0	8013	763047	0	0
2024-07-01 05:30:32			0	33179	0	0	0	25986	24590	161409	26935	1025212	43159	109620	0	0	8013	763047	0	0
2024-07-01 05:31:32			0	33164	0	0	0	25986	24580	161377	27277	1025176	43148	109620	0	0	8013	763831	0	0
2024-07-01 05:32:32			0	33181	0	0	0	25989	24580	161329	27255	1025096	43159	109621	0	0	8013	762991	0	0
2024-07-01 05:33:32			0	33176	0	0	0	25989	24590	161473	27170	1025087	43149	109621	0	0	8013	763195	0	0
2024-07-01 05:34:32			0	33146	0	0	0	25986	24590	161625	27251	1025105	43170	109620	0	0	8012	764679	0	0
2024-07-01 05:35:32			0	33149	0	0	0	25973	24580	161585	27282	1025069	43159	109615	0	0	8012	764574	0	0
2024-07-01 05:36:32			0	33161	0	0	0	25981	24580	161565	27232	1025141	43158	109618	0	0	8012	763980	0	0
2024-07-01 05:37:32			0	33135	0	0	0	25989	24580	161505	27362	1025061	43158	109621	0	0	8011	765267	0	0
2024-07-01 05:38:32			0	33160	0	0	0	25971	24580	161641	27416	1025069	43148	109614	0	0	8013	764029	0	0
2024-07-01 05:39:32			0	33130	0	0	0	25963	24570	161649	27123	1025052	43158	109611	0	0	8011	765558	0	0
2024-07-01 05:40:32			0	33125	0	0	0	25966	24570	161649	27319	1025025	43147	109612	0	0	8011	765806	0	0
2024-07-01 05:41:32			0	33109	0	0	0	25968	24570	161753	27178	1025025	43158	109613	0	0	8010	766600	0	0
2024-07-01 05:42:32			0	33097	0	0	0	25950	24570	161833	27225	1025070	43146	109606	0	0	8009	767195	0	0
2024-07-01 05:43:32			0	33120	0	0	0	25932	24570	161745	27277	1024998	43158	109599	0	0	8011	766054	0	0
2024-07-01 05:44:32			0	33101	0	0	0	25937	24550	161757	27088	1024937	43157	109601	0	0	8010	767084	0	0
2024-07-01 05:45:32			0	33117	0	0	0	25927	24560	161697	27133	1024919	43145	109597	0	0	8011	766246	0	0
2024-07-01 05:46:32			0	33106	0	0	0	25914	24560	161709	27369	1024892	43167	109592	0	0	8010	766792	0	0
2024-07-01 05:47:32			0	33100	0	0	0	25927	24550	161773	27322	1024901	43144	109597	0	0	8010	767133	0	0
2024-07-01 05:48:32			0	33099	0	0	0	25922	24550	161973	27251	1024928	43144	109595	0	0	8010	767183	0	0
2024-07-01 05:49:32			0	33079	0	0	0	25885	24530	161941	27230	1024768	43132	109581	0	0	8009	768263	0	0
2024-07-01 05:50:32			0	33108	0	0	0	25823	24530	161753	27069	1024733	43154	109557	0	0	8012	766823	0	0
2024-07-01 05:51:32			0	33128	0	0	0	25872	24530	161733	27388	1024760	43131	109576	0	0	8012	765831	0	0
2024-07-01 05:52:32			0	33147	0	0	0	25872	24510	161641	27248	1024600	43129	109576	0	0	8013	764976	0	0
2024-07-01 05:53:32			0	33123	0	0	0	25841	24510	161681	27386	1024627	43152	109564	0	0	8012	766165	0	0
2024-07-01 05:54:32			0	33121	0	0	0	25893	24510	161817	26911	1024565	43141	109584	0	0	8011	766265	0	0
2024-07-01 05:55:32			0	33122	0	0	0	25851	24510	161721	27339	1024698	43129	109568	0	0	8012	766215	0	0
2024-07-01 05:56:32			0	33108	0	0	0	25854	24500	161781	26861	1024628	43139	109569	0	0	8011	766953	0	0
2024-07-01 05:57:32			0	33126	0	0	0	25841	24500	161737	27111	1024628	43139	109564	0	0	8012	766060	0	0
2024-07-01 05:58:32			0	33133	0	0	0	25849	24490	161737	27306	1024584	43139	109567	0	0	8013	765756	0	0
2024-07-01 05:59:32			0	33107	0	0	0	25838	24480	161805	27353	1024575	43126	109563	0	0	8011	767089	0	0
2024-07-01 06:00:32			0	33132	0	0	0	25820	24470	161729	27052	1024504	43126	109556	0	0	8013	765892	0	0
2024-07-01 06:01:32			0	33124	0	0	0	25779	24480	161653	27228	1024468	43126	109540	0	0	8013	766246	0	0
2024-07-01 06:02:32			0	33159	0	0	0	25807	24470	161673	27154	1024415	43137	109551	0	0	8015	764554	0	0
2024-07-01 06:03:32			0	33151	0	0	0	25768	24460	161545	26935	1024380	43125	109536	0	0	8015	764994	0	0
2024-07-01 06:04:32			0	33175	0	0	0	25781	24450	161493	27227	1024336	43125	109541	0	0	8016	763849	0	0
2024-07-01 06:05:32			0	33205	0	0	0	25766	24440	161417	27215	1024292	43124	109535	0	0	8018	762409	0	0
2024-07-01 06:06:32			0	33228	0	0	0	25735	24440	161221	27100	1024256	43133	109523	0	0	8020	761273	0	0
2024-07-01 06:07:32			0	33235	0	0	0	25690	24440	161125	27253	1024230	43123	109506	0	0	8021	760928	0	0
2024-07-01 06:08:32			0	33275	0	0	0	25719	24420	160965	27419	1024177	43111	109517	0	0	8023	759043	0	0
2024-07-01 06:09:32			0	33302	0	0	0	25758	24410	160933	26979	1024097	43109	109532	0	0	8024	757758	0	0
2024-07-01 06:10:32			0	33297	0	0	0	25737	24410	160925	27166	1024133	43109	109524	0	0	8024	758004	0	0
2024-07-01 06:11:32			0	33282	0	0	0	25766	24400	161033	27199	1024115	43120	109535	0	0	8022	758784	0	0
2024-07-01 06:12:32			0	33273	0	0	0	25683	24390	161065	27268	1024063	43107	109503	0	0	8023	759270	0	0
2024-07-01 06:13:32			0	33284	0	0	0	25677	24380	161069	27230	1024027	43118	109501	0	0	8024	758772	0	0
2024-07-01 06:14:32			0	33332	0	0	0	25724	24370	160893	27072	1023956	43116	109519	0	0	8026	756455	0	0
2024-07-01 06:15:32			0	33327	0	0	0	25716	24370	160901	27216	1023948	43126	109516	0	0	8025	756701	0	0
2024-07-01 06:16:32			0	33296	0	0	0	25722	24370	160945	27369	1023930	43138	109518	0	0	8024	758224	0	0
2024-07-01 06:17:32			0	33299	0	0	0	25690	24360	161061	27272	1023939	43115	109506	0	0	8024	758119	0	0
2024-07-01 06:18:32			0	33293	0	0	0	25698	24360	161021	27225	1023930	43137	109509	0	0	8024	758414	0	0
2024-07-01 06:19:32			0	33299	0	0	0	25719	24350	160941	27270	1023949	43125	109517	0	0	8024	758162	0	0
2024-07-01 06:20:32			0	33260	0	0	0	25740	24360	161221	26842	1023930	43115	109525	0	0	8021	760039	0	0
2024-07-01 06:21:32			0	33241	0	0	0	25722	24350	161337	27140	1023940	43135	109518	0	0	8020	761019	0	0
2024-07-01 06:22:32			0	33212	0	0	0	25742	24350	161565	26882	1023949	43136	109526	0	0	8018	762451	0	0
2024-07-01 06:23:32			0	33180	0	0	0	25735	24350	161561	27130	1023886	43113	109523	0	0	8017	764033	0	0
2024-07-01 06:24:32			0	33176	0	0	0	25724	24350	161585	27126	1024002	43114	109519	0	0	8017	764231	0	0
2024-07-01 06:25:32			0	33163	0	0	0	25748	24350	161573	27256	1023975	43136	109528	0	0	8015	764875	0	0
2024-07-01 06:26:32			0	33186	0	0	0	25735	24340	161669	26812	1023931	43125	109523	0	0	8017	763779	0	0
2024-07-01 06:27:32			0	33167	0	0	0	25745	24350	161697	27133	1023967	43125	109527	0	0	8016	764677	0	0
2024-07-01 06:28:32			0	33154	0	0	0	25745	24350	161813	27059	1023940	43125	109527	0	0	8015	765321	0	0
2024-07-01 06:29:32			0	33125	0	0	0	25755	24340	161889	27114	1023958	43125	109531	0	0	8013	766802	0	0
2024-07-01 06:30:32			0	33116	0	0	0	25755	24350	161953	27249	1023993	43125	109531	0	0	8012	767206	0	0
2024-07-01 06:31:32			0	33107	0	0	0	25755	24350	161969	27142	1024020	43135	109531	0	0	8012	767653	0	0
2024-07-01 06:32:32			0	33111	0	0	0	25753	24350	161937	27024	1023967	43135	109530	0	0	8012	767454	0	0
2024-07-01 06:33:32			0	33101	0	0	0	25755	24350	162073	27092	1024002	43125	109531	0	0	8012	767951	0	0
2024-07-01 06:34:32			0	33083	0	0	0	25761	24350	162133	26838	1023967	43125	109533	0	0	8010	768846	0	0
2024-07-01 06:35:32			0	33086	0	0	0	25786	24340	162249	26901	1023985	43135	109543	0	0	8010	768741	0	0
2024-07-01 06:36:32			0	33049	0	0	0	25774	24350	162281	26896	1024047	43125	109538	0	0	8008	770539	0	0
2024-07-01 06:37:32			0	33052	0	0	0	25771	24360	162393	27013	1024037	43126	109537	0	0	8009	770346	0	0
2024-07-01 06:38:32			0	33022	0	0	0	25781	24350	162481	26984	1024056	43136	109541	0	0	8007	771886	0	0
2024-07-01 06:39:32			0	33001	0	0	0	25786	24360	162493	27052	1024100	43137	109543	0	0	8005	772891	0	0
2024-07-01 06:40:32			0	33010	0	0	0	25789	24360	162453	26871	1024100	43126	109544	0	0	8006	772442	0	0
2024-07-01 06:41:32			0	32991	0	0	0	25781	24360	162473	27222	1024073	43148	109541	0	0	8005	773391	0	0
2024-07-01 06:42:32			0	33008	0	0	0	25789	24360	162453	27223	1024126	43137	109544	0	0	8006	772541	0	0
2024-07-01 06:43:32			0	33026	0	0	0	25774	24360	162421	26970	1024046	43137	109538	0	0	8007	771643	0	0
2024-07-01 06:44:32			0	33028	0	0	0	25781	24360	162369	27088	1024064	43137	109541	0	0	8007	771543	0	0
2024-07-01 06:45:32			0	33028	0	0	0	25786	24360	162401	27300	1024046	43137	109543	0	0	8007	771543	0	0
2024-07-01 06:46:32			0	33035	0	0	0	25776	24370	162217	27157	1024081	43126	109539	0	0	8007	771150	0	0
2024-07-01 06:47:32			0	33065	0	0	0	25789	24370	162257	26961	1024090	43138	109544	0	0	8009	769655	0	0
2024-07-01 06:48:32			0	33059	0	0	0	25797	24370	162105	26901	1024063	43138	109547	0	0	8009	769954	0	0
2024-07-01 06:49:32			0	33079	0	0	0	25792	24370	162169	26778	1024108	43126	109545	0	0	8010	768959	0	0
2024-07-01 06:50:32			0	33077	0	0	0	25810	24380	162121	26710	1024161	43140	109552	0	0	8009	769015	0	0
2024-07-01 06:51:32			0	33079	0	0	0	25828	24390	162097	26994	1024196	43151	109559	0	0	8009	768872	0	0
2024-07-01 06:52:32			0	33135	0	0	0	25799	24370	161841	27092	1024197	43138	109548	0	0	8013	766176	0	0
2024-07-01 06:53:32			0	33165	0	0	0	25823	24390	161777	26719	1024143	43140	109557	0	0	8014	764603	0	0
2024-07-01 06:54:32			0	33182	0	0	0	25838	24400	161561	26987	1024267	43152	109563	0	0	8015	763718	0	0
2024-07-01 06:55:32			0	33228	0	0	0	25831	24390	161357	27428	1024232	43151	109560	0	0	8018	761488	0	0
2024-07-01 06:56:32			0	33238	0	0	0	25828	24400	161245	26970	1024276	43153	109559	0	0	8019	760952	0	0
2024-07-01 06:57:32			0	33254	0	0	0	25825	24400	161241	27194	1024249	43142	109558	0	0	8020	760163	0	0
2024-07-01 06:58:32			0	33248	0	0	0	25828	24400	161265	26951	1024240	43141	109559	0	0	8019	760459	0	0
2024-07-01 06:59:32			0	33261	0	0	0	25833	24400	161229	26906	1024302	43142	109561	0	0	8020	759818	0	0
2024-07-01 07:00:32			0	33270	0	0	0	25820	24400	161149	26847	1024249	43142	109556	0	0	8021	759375	0	0
2024-07-01 07:01:32			0	33286	0	0	0	25831	24420	161137	26764	1024337	43166	109560	0	0	8021	758502	0	0
2024-07-01 07:02:32			0	33275	0	0	0	25841	24410	161045	27241	1024346	43142	109564	0	0	8021	759086	0	0
2024-07-01 07:03:32			0	33287	0	0	0	25841	24420	161101	26693	1024302	43143	109564	0	0	8021	758453	0	0
2024-07-01 07:04:32			0	33302	0	0	0	25831	24410	161101	27000	1024293	43142	109560	0	0	8022	757758	0	0
2024-07-01 07:05:32			0	33305	0	0	0	25836	24410	161033	27098	1024293	43142	109562	0	0	8022	757610	0	0
2024-07-01 07:06:32			0	33311	0	0	0	25859	24420	160985	27334	1024391	43143	109571	0	0	8022	757273	0	0
2024-07-01 07:07:32			0	33323	0	0	0	25846	24410	160793	27033	1024346	43142	109566	0	0	8023	756726	0	0
2024-07-01 07:08:32			0	33356	0	0	0	25857	24430	160773	27317	1024399	43155	109570	0	0	8025	755022	0	0
2024-07-01 07:09:32			0	33382	0	0	0	25841	24430	160669	27154	1024408	43143	109564	0	0	8027	753748	0	0
2024-07-01 07:10:32			0	33402	0	0	0	25859	24430	160521	27003	1024346	43143	109571	0	0	8028	752770	0	0
2024-07-01 07:11:32			0	33409	0	0	0	25844	24420	160477	27109	1024391	43143	109565	0	0	8028	752470	0	0
2024-07-01 07:12:32			0	33427	0	0	0	25857	24440	160437	27130	1024417	43156	109570	0	0	8029	751506	0	0
2024-07-01 07:13:32			0	33449	0	0	0	25854	24430	160337	27041	1024372	43132	109569	0	0	8030	750475	0	0
2024-07-01 07:14:32			0	33429	0	0	0	25857	24440	160357	26913	1024390	43133	109570	0	0	8029	751408	0	0
2024-07-01 07:15:32			0	33442	0	0	0	25857	24440	160317	27284	1024425	43157	109570	0	0	8030	750774	0	0
2024-07-01 07:16:32			0	33453	0	0	0	25864	24440	160285	26991	1024417	43133	109573	0	0	8031	750238	0	0
2024-07-01 07:17:32			0	33460	0	0	0	25862	24440	160285	27118	1024417	43133	109572	0	0	8031	749897	0	0
2024-07-01 07:18:32			0	33472	0	0	0	25862	24450	160141	27211	1024434	43146	109572	0	0	8032	749269	0	0
2024-07-01 07:19:32			0	33472	0	0	0	25859	24440	160169	27121	1024452	43145	109571	0	0	8032	749312	0	0
2024-07-01 07:20:32			0	33473	0	0	0	25859	24450	160173	27128	1024461	43146	109571	0	0	8032	749221	0	0
2024-07-01 07:21:32			0	33481	0	0	0	25857	24440	160165	26859	1024425	43145	109570	0	0	8032	748874	0	0
2024-07-01 07:22:32			0	33472	0	0	0	25864	24450	160201	26939	1024443	43158	109573	0	0	8032	749269	0	0
2024-07-01 07:23:32			0	33466	0	0	0	25857	24450	160205	26875	1024461	43146	109570	0	0	8032	749562	0	0
2024-07-01 07:24:32			0	33465	0	0	0	25857	24450	160181	27256	1024470	43146	109570	0	0	8031	749610	0	0
2024-07-01 07:25:32			0	33456	0	0	0	25864	24450	160257	27305	1024470	43158	109573	0	0	8031	750049	0	0
2024-07-01 07:26:32			0	33485	0	0	0	25872	24450	160213	27189	1024523	43146	109576	0	0	8032	748636	0	0
2024-07-01 07:27:32			0	33510	0	0	0	25870	24450	160117	27086	1024434	43135	109575	0	0	8034	747421	0	0
2024-07-01 07:28:32			0	33471	0	0	0	25864	24440	160061	26941	1024452	43145	109573	0	0	8032	749360	0	0
2024-07-01 07:29:32			0	33501	0	0	0	25893	24460	160025	26981	1024532	43158	109584	0	0	8033	747816	0	0
2024-07-01 07:30:32			0	33521	0	0	0	25885	24460	159909	27227	1024540	43159	109581	0	0	8034	746844	0	0
2024-07-01 07:31:32			0	33555	0	0	0	25877	24470	159809	27256	1024549	43148	109578	0	0	8036	745152	0	0
2024-07-01 07:32:32			0	33571	0	0	0	25883	24460	159669	26694	1024558	43146	109580	0	0	8037	744418	0	0
2024-07-01 07:33:32			0	33585	0	0	0	25880	24460	159618	27213	1024585	43135	109579	0	0	8038	743740	0	0
2024-07-01 07:34:32			0	33577	0	0	0	25875	24470	159614	27291	1024531	43148	109577	0	0	8038	744086	0	0
2024-07-01 07:35:32			0	33555	0	0	0	25872	24460	159733	26982	1024532	43146	109576	0	0	8036	745194	0	0
2024-07-01 07:36:32			0	33568	0	0	0	25862	24460	159690	27225	1024567	43147	109572	0	0	8037	744564	0	0
2024-07-01 07:37:32			0	33574	0	0	0	25870	24460	159774	27142	1024532	43146	109575	0	0	8038	744273	0	0
2024-07-01 07:38:32			0	33545	0	0	0	25877	24450	159821	27374	1024523	43135	109578	0	0	8036	745721	0	0
2024-07-01 07:39:32			0	33550	0	0	0	25875	24460	159829	27254	1024514	43147	109577	0	0	8036	745436	0	0
2024-07-01 07:40:32			0	33555	0	0	0	25875	24460	159841	27300	1024514	43147	109577	0	0	8036	745194	0	0
2024-07-01 07:41:32			0	33545	0	0	0	25885	24470	159853	26802	1024584	43137	109581	0	0	8036	745637	0	0
2024-07-01 07:42:32			0	33557	0	0	0	25883	24480	159729	27105	1024593	43148	109580	0	0	8036	745013	0	0
2024-07-01 07:43:32			0	33560	0	0	0	25880	24470	159649	26991	1024576	43159	109579	0	0	8037	744909	0	0
2024-07-01 07:44:32			0	33581	0	0	0	25893	24480	159742	26811	1024620	43148	109584	0	0	8038	743850	0	0
2024-07-01 07:45:32			0	33560	0	0	0	25893	24470	159697	27109	1024584	43148	109584	0	0	8036	744909	0	0
2024-07-01 07:46:32			0	33608	0	0	0	25893	24480	159530	27107	1024647	43148	109584	0	0	8039	742543	0	0
2024-07-01 07:47:32			0	33604	0	0	0	25885	24480	159590	27275	1024655	43149	109581	0	0	8039	742737	0	0
2024-07-01 07:48:32			0	33590	0	0	0	25885	24480	159650	27222	1024709	43160	109581	0	0	8038	743414	0	0
2024-07-01 07:49:32			0	33613	0	0	0	25890	24480	159502	27059	1024620	43137	109583	0	0	8040	742302	0	0
2024-07-01 07:50:32			0	33611	0	0	0	25880	24490	159478	27053	1024584	43150	109579	0	0	8040	742357	0	0
2024-07-01 07:51:32			0	33605	0	0	0	25880	24480	159586	27237	1024628	43149	109579	0	0	8039	742689	0	0
2024-07-01 07:52:32			0	33607	0	0	0	25885	24490	159446	27275	1024610	43172	109581	0	0	8039	742550	0	0
2024-07-01 07:53:32			0	33604	0	0	0	25885	24480	159574	27315	1024602	43160	109581	0	0	8039	742737	0	0
2024-07-01 07:54:32			0	33592	0	0	0	25883	24480	159542	27251	1024628	43160	109580	0	0	8038	743317	0	0
2024-07-01 07:55:32			0	33604	0	0	0	25893	24480	159582	27138	1024628	43149	109584	0	0	8039	742737	0	0
2024-07-01 07:56:32			0	33616	0	0	0	25893	24480	159486	27031	1024682	43160	109584	0	0	8040	742157	0	0
2024-07-01 07:57:32			0	33610	0	0	0	25903	24490	159598	27426	1024637	43150	109588	0	0	8039	742405	0	0
2024-07-01 07:58:32			0	33633	0	0	0	25906	24490	159498	27161	1024691	43161	109589	0	0	8040	741294	0	0
2024-07-01 07:59:32			0	33629	0	0	0	25909	24490	159470	26870	1024717	43150	109590	0	0	8040	741487	0	0
2024-07-01 08:00:32			0	33631	0	0	0	25922	24490	159458	27093	1024717	43139	109595	0	0	8040	741390	0	0
2024-07-01 08:01:32			0	33645	0	0	0	25911	24490	159342	27034	1024753	43161	109591	0	0	8041	740714	0	0
2024-07-01 08:02:32			0	33654	0	0	0	25914	24500	159210	27211	1024761	43150	109592	0	0	8042	740239	0	0
2024-07-01 08:03:32			0	33656	0	0	0	25903	24500	159254	26729	1024770	43162	109588	0	0	8042	740142	0	0
2024-07-01 08:04:32			0	33676	0	0	0	25911	24510	159298	27242	1024698	43163	109591	0	0	8043	739136	0	0
2024-07-01 08:05:32			0	33658	0	0	0	25914	24500	159230	27216	1024708	43139	109592	0	0	8042	740046	0	0
2024-07-01 08:06:32			0	33658	0	0	0	25924	24510	159170	26961	1024805	43152	109596	0	0	8042	740004	0	0
2024-07-01 08:07:32			0	33662	0	0	0	25927	24500	159230	27249	1024761	43161	109597	0	0	8042	739853	0	0
2024-07-01 08:08:32			0	33670	0	0	0	25914	24490	159178	26923	1024753	43161	109592	0	0	8042	739509	0	0
2024-07-01 08:09:32			0	33679	0	0	0	25916	24500	159258	26972	1024743	43151	109593	0	0	8043	739034	0	0
2024-07-01 08:10:32			0	33676	0	0	0	25916	24500	159126	26927	1024788	43139	109593	0	0	8043	739178	0	0
2024-07-01 08:11:32			0	33683	0	0	0	25922	24500	159210	27020	1024797	43151	109595	0	0	8043	738841	0	0
2024-07-01 08:12:32			0	33694	0	0	0	25927	24510	159146	26923	1024805	43163	109597	0	0	8044	738270	0	0
2024-07-01 08:13:32			0	33675	0	0	0	25932	24500	159118	27003	1024797	43151	109599	0	0	8042	739226	0	0
2024-07-01 08:14:32			0	33685	0	0	0	25929	24510	159142	26899	1024805	43163	109598	0	0	8043	738703	0	0
2024-07-01 08:15:32			0	33677	0	0	0	25916	24510	159194	27156	1024805	43163	109593	0	0	8043	739088	0	0
2024-07-01 08:16:32			0	33663	0	0	0	25916	24510	159170	26805	1024805	43152	109593	0	0	8042	739763	0	0
2024-07-01 08:17:32			0	33660	0	0	0	25916	24510	159254	27189	1024779	43163	109593	0	0	8042	739907	0	0
2024-07-01 08:18:32			0	33653	0	0	0	25945	24510	159338	27284	1024841	43141	109604	0	0	8041	740245	0	0
2024-07-01 08:19:32			0	33640	0	0	0	25942	24510	159298	27227	1024841	43152	109603	0	0	8040	740872	0	0
2024-07-01 08:20:32			0	33651	0	0	0	25948	24510	159390	27031	1024841	43163	109605	0	0	8041	740341	0	0
2024-07-01 08:21:32			0	33683	0	0	0	25942	24510	159198	27248	1024894	43152	109603	0	0	8043	738799	0	0
2024-07-01 08:22:32			0	33699	0	0	0	25940	24530	159118	27152	1024867	43165	109602	0	0	8044	737946	0	0
2024-07-01 08:23:32			0	33734	0	0	0	25961	24530	159022	26998	1024920	43154	109610	0	0	8045	736263	0	0
2024-07-01 08:24:32			0	33752	0	0	0	25966	24530	158918	27270	1024947	43154	109612	0	0	8046	735400	0	0
2024-07-01 08:25:32			0	33765	0	0	0	25981	24530	158854	27374	1025009	43166	109618	0	0	8047	734776	0	0
2024-07-01 08:26:32			0	33795	0	0	0	25986	24530	158606	27126	1025009	43176	109620	0	0	8048	733339	0	0
2024-07-01 08:27:32			0	33836	0	0	0	25997	24550	158410	27166	1025035	43166	109624	0	0	8051	731296	0	0
2024-07-01 08:28:32			0	33895	0	0	0	25989	24540	158178	26972	1025000	43176	109621	0	0	8054	728524	0	0
2024-07-01 08:29:32			0	33949	0	0	0	26005	24550	158130	27177	1025124	43190	109627	0	0	8057	725916	0	0
2024-07-01 08:30:32			0	33971	0	0	0	26015	24560	157894	27157	1025160	43167	109631	0	0	8058	724831	0	0
2024-07-01 08:31:32			0	34001	0	0	0	26007	24560	157570	26802	1025133	43167	109628	0	0	8060	723409	0	0
2024-07-01 08:32:32			0	34025	0	0	0	26015	24570	157566	27225	1025177	43158	109631	0	0	8061	722233	0	0
2024-07-01 08:33:32			0	34051	0	0	0	26020	24570	157542	27166	1025231	43168	109633	0	0	8063	721004	0	0
2024-07-01 08:34:32			0	34080	0	0	0	26025	24580	157398	26944	1025257	43170	109635	0	0	8064	719595	0	0
2024-07-01 08:35:32			0	34089	0	0	0	26028	24580	157338	26896	1025257	43159	109636	0	0	8065	719171	0	0
2024-07-01 08:36:32			0	34102	0	0	0	26049	24580	157330	27289	1025275	43169	109644	0	0	8065	718558	0	0
2024-07-01 08:37:32			0	34122	0	0	0	26059	24590	157094	27034	1025354	43182	109648	0	0	8066	717576	0	0
2024-07-01 08:38:32			0	34158	0	0	0	26067	24600	157062	26870	1025398	43172	109651	0	0	8068	715844	0	0
2024-07-01 08:39:32			0	34171	0	0	0	26080	24620	156890	26823	1025469	43162	109656	0	0	8068	715153	0	0
2024-07-01 08:40:32			0	34210	0	0	0	26093	24620	156754	27053	1025505	43173	109661	0	0	8070	713325	0	0
2024-07-01 08:41:32			0	34240	0	0	0	26085	24630	156606	26994	1025495	43173	109658	0	0	8072	711881	0	0
2024-07-01 08:42:32			0	34285	0	0	0	26101	24630	156522	27069	1025486	43173	109664	0	0	8074	709780	0	0
2024-07-01 08:43:32			0	34342	0	0	0	26098	24630	156238	27017	1025513	43185	109663	0	0	8078	707125	0	0
2024-07-01 08:44:32			0	34364	0	0	0	26088	24640	156171	27202	1025530	43186	109659	0	0	8079	706063	0	0
2024-07-01 08:45:32			0	34378	0	0	0	26106	24650	155959	27215	1025521	43175	109666	0	0	8080	705373	0	0
2024-07-01 08:46:32			0	34403	0	0	0	26106	24650	155963	26814	1025556	43176	109666	0	0	8081	704213	0	0
2024-07-01 08:47:32			0	34433	0	0	0	26109	24660	155835	27244	1025645	43176	109667	0	0	8083	702784	0	0
2024-07-01 08:48:32			0	34447	0	0	0	26103	24660	155807	26928	1025592	43188	109665	0	0	8084	702136	0	0
2024-07-01 08:49:32			0	34441	0	0	0	26119	24660	155687	27086	1025681	43189	109671	0	0	8083	702414	0	0
2024-07-01 08:50:32			0	34470	0	0	0	26111	24670	155671	27001	1025698	43167	109668	0	0	8085	701033	0	0
2024-07-01 08:51:32			0	34464	0	0	0	26085	24670	155559	27081	1025663	43166	109658	0	0	8085	701310	0	0
2024-07-01 08:52:32			0	34465	0	0	0	26098	24670	155543	26844	1025636	43200	109663	0	0	8085	701264	0	0
2024-07-01 08:53:32			0	34465	0	0	0	26093	24680	155551	26908	1025626	43178	109661	0	0	8085	701225	0	0
2024-07-01 08:54:32			0	34465	0	0	0	26129	24680	155667	27069	1025680	43167	109675	0	0	8084	701225	0	0
2024-07-01 08:55:32			0	34468	0	0	0	26148	24670	155615	26968	1025725	43189	109682	0	0	8084	701126	0	0
2024-07-01 08:56:32			0	34467	0	0	0	26145	24680	155499	27112	1025716	43202	109681	0	0	8084	701132	0	0
2024-07-01 08:57:32			0	34517	0	0	0	26142	24690	155351	27041	1025813	43169	109680	0	0	8087	698786	0	0
2024-07-01 08:58:32			0	34499	0	0	0	26142	24690	155291	26908	1025813	43169	109680	0	0	8086	699615	0	0
2024-07-01 08:59:32			0	34520	0	0	0	26129	24710	155255	26883	1025866	43181	109675	0	0	8087	698568	0	0
2024-07-01 09:00:32			0	34526	0	0	0	26129	24700	155267	26615	1025822	43170	109675	0	0	8088	698332	0	0
2024-07-01 09:01:32			0	34532	0	0	0	26140	24690	155203	26634	1025805	43179	109679	0	0	8088	698095	0	0
2024-07-01 09:02:32			0	34532	0	0	0	26129	24700	155227	26946	1025724	43181	109675	0	0	8088	698055	0	0
2024-07-01 09:03:32			0	34526	0	0	0	26140	24710	155375	26925	1025786	43192	109679	0	0	8088	698292	0	0
2024-07-01 09:04:32			0	34515	0	0	0	26145	24710	155251	26981	1025821	43182	109681	0	0	8087	698799	0	0
2024-07-01 09:05:32			0	34528	0	0	0	26142	24710	155223	27069	1025839	43192	109680	0	0	8088	698200	0	0
2024-07-01 09:06:32			0	34541	0	0	0	26137	24710	155235	26850	1025866	43181	109678	0	0	8088	697602	0	0
2024-07-01 09:07:32			0	34525	0	0	0	26148	24720	155267	27220	1025892	43194	109682	0	0	8087	698299	0	0
2024-07-01 09:08:32			0	34518	0	0	0	26161	24710	155183	27078	1025901	43182	109687	0	0	8087	698660	0	0
2024-07-01 09:09:32			0	34521	0	0	0	26158	24720	155175	26791	1025857	43194	109686	0	0	8087	698483	0	0
2024-07-01 09:10:32			0	34547	0	0	0	26137	24720	155239	27083	1025919	43194	109678	0	0	8089	697286	0	0
2024-07-01 09:11:32			0	34555	0	0	0	26122	24730	155123	27166	1025829	43195	109672	0	0	8090	696879	0	0
2024-07-01 09:12:32			0	34524	0	0	0	26145	24730	155231	27144	1025909	43184	109681	0	0	8087	698305	0	0
2024-07-01 09:13:32			0	34544	0	0	0	26155	24720	155207	26968	1025910	43183	109685	0	0	8088	697424	0	0
2024-07-01 09:14:32			0	34523	0	0	0	26161	24730	155187	27031	1025909	43184	109687	0	0	8087	698351	0	0
2024-07-01 09:15:32			0	34540	0	0	0	26150	24740	155235	27059	1025927	43196	109683	0	0	8088	697529	0	0
2024-07-01 09:16:32			0	34555	0	0	0	26166	24730	155231	27138	1025963	43172	109689	0	0	8089	696879	0	0
2024-07-01 09:17:32			0	34588	0	0	0	26171	24750	155075	27098	1025989	43186	109691	0	0	8091	695284	0	0
2024-07-01 09:18:32			0	34593	0	0	0	26189	24750	154975	27053	1025962	43197	109698	0	0	8091	695055	0	0
2024-07-01 09:19:32			0	34611	0	0	0	26176	24750	154915	27050	1026069	43197	109693	0	0	8092	694229	0	0
2024-07-01 09:20:32			0	34606	0	0	0	26192	24740	154935	27090	1026114	43196	109699	0	0	8091	694498	0	0
2024-07-01 09:21:32			0	34645	0	0	0	26194	24760	154771	27029	1026113	43198	109700	0	0	8093	692632	0	0
2024-07-01 09:22:32			0	34641	0	0	0	26186	24750	154807	27336	1026051	43197	109697	0	0	8093	692855	0	0
2024-07-01 09:23:32			0	34652	0	0	0	26215	24760	154691	26837	1026060	43220	109708	0	0	8093	692312	0	0
2024-07-01 09:24:32			0	34657	0	0	0	26212	24760	154699	27175	1026113	43208	109707	0	0	8094	692084	0	0
2024-07-01 09:25:32			0	34703	0	0	0	26220	24760	154499	27109	1026149	43188	109710	0	0	8096	689982	0	0
2024-07-01 09:26:32			0	34754	0	0	0	26228	24780	154255	27192	1026148	43210	109713	0	0	8099	687580	0	0
2024-07-01 09:27:32			0	34813	0	0	0	26212	24770	154035	26804	1026193	43199	109707	0	0	8102	684938	0	0
2024-07-01 09:28:32			0	34809	0	0	0	26210	24790	153995	27008	1026227	43201	109706	0	0	8102	685042	0	0
2024-07-01 09:29:32			0	34818	0	0	0	26220	24790	153995	26935	1026192	43189	109710	0	0	8103	684634	0	0
2024-07-01 09:30:32			0	34859	0	0	0	26218	24780	153831	26741	1026210	43189	109709	0	0	8105	682815	0	0
2024-07-01 09:31:32			0	34868	0	0	0	26223	24790	153763	26844	1026227	43201	109711	0	0	8105	682369	0	0
2024-07-01 09:32:32			0	34885	0	0	0	26231	24790	153735	26968	1026281	43189	109714	0	0	8106	681600	0	0
2024-07-01 09:33:32			0	34890	0	0	0	26225	24800	153743	27150	1026325	43203	109712	0	0	8106	681336	0	0
2024-07-01 09:34:32			0	34891	0	0	0	26241	24800	153639	26745	1026370	43190	109718	0	0	8106	681291	0	0
2024-07-01 09:35:32			0	34916	0	0	0	26257	24810	153619	27218	1026388	43203	109724	0	0	8107	680123	0	0
2024-07-01 09:36:32			0	34919	0	0	0	26257	24810	153439	27086	1026388	43191	109724	0	0	8108	679988	0	0
2024-07-01 09:37:32			0	34949	0	0	0	26257	24810	153395	27168	1026369	43204	109724	0	0	8109	678635	0	0
2024-07-01 09:38:32			0	34971	0	0	0	26267	24820	153355	27001	1026351	43214	109728	0	0	8110	677606	0	0
2024-07-01 09:39:32			0	34987	0	0	0	26259	24830	153183	27327	1026449	43183	109725	0	0	8111	676848	0	0
2024-07-01 09:40:32			0	35011	0	0	0	26267	24830	153103	27133	1026449	43216	109728	0	0	8112	675769	0	0
2024-07-01 09:41:32			0	35014	0	0	0	26283	24830	152971	27001	1026476	43194	109734	0	0	8112	675635	0	0
2024-07-01 09:42:32			0	35034	0	0	0	26288	24830	152991	27171	1026458	43205	109736	0	0	8113	674737	0	0
2024-07-01 09:43:32			0	35068	0	0	0	26296	24830	152791	27109	1026591	43205	109739	0	0	8115	673213	0	0
2024-07-01 09:44:32			0	35095	0	0	0	26293	24850	152827	27275	1026617	43218	109738	0	0	8117	671929	0	0
2024-07-01 09:45:32			0	35097	0	0	0	26306	24850	152639	27059	1026546	43218	109743	0	0	8117	671839	0	0
2024-07-01 09:46:32			0	35099	0	0	0	26298	24860	152767	26982	1026581	43196	109740	0	0	8117	671712	0	0
2024-07-01 09:47:32			0	35106	0	0	0	26296	24860	152684	27130	1026608	43218	109739	0	0	8117	671399	0	0
2024-07-01 09:48:32			0	35094	0	0	0	26309	24860	152731	27001	1026688	43207	109744	0	0	8116	671935	0	0
2024-07-01 09:49:32			0	35091	0	0	0	26309	24870	152619	27199	1026634	43219	109744	0	0	8116	672031	0	0
2024-07-01 09:50:32			0	35080	0	0	0	26319	24870	152719	26928	1026634	43219	109748	0	0	8116	672523	0	0
2024-07-01 09:51:32			0	35106	0	0	0	26335	24880	152727	27352	1026696	43208	109754	0	0	8117	671323	0	0
2024-07-01 09:52:32			0	35133	0	0	0	26355	24880	152592	27123	1026750	43219	109762	0	0	8118	670117	0	0
2024-07-01 09:53:32			0	35177	0	0	0	26366	24890	152336	26882	1026749	43222	109766	0	0	8120	668118	0	0
2024-07-01 09:54:32			0	35230	0	0	0	26371	24890	152188	27116	1026856	43211	109768	0	0	8123	665761	0	0
2024-07-01 09:55:32			0	35252	0	0	0	26363	24900	152032	27362	1026847	43211	109765	0	0	8124	664747	0	0
2024-07-01 09:56:32			0	35288	0	0	0	26363	24910	151848	27123	1026855	43202	109765	0	0	8126	663114	0	0
2024-07-01 09:57:32			0	35302	0	0	0	26361	24920	151800	27187	1026891	43202	109764	0	0	8127	662457	0	0
2024-07-01 09:58:32			0	35304	0	0	0	26361	24930	151800	27230	1026962	43191	109764	0	0	8127	662331	0	0
2024-07-01 09:59:32			0	35318	0	0	0	26373	24930	151784	27209	1026908	43213	109769	0	0	8128	661711	0	0
2024-07-01 10:00:32			0	35312	0	0	0	26376	24920	151720	27164	1026917	43213	109770	0	0	8127	662014	0	0
2024-07-01 10:01:32			0	35336	0	0	0	26381	24940	151748	27086	1027033	43204	109772	0	0	8129	660879	0	0
2024-07-01 10:02:32			0	35341	0	0	0	26386	24940	151640	26887	1027041	43215	109774	0	0	8129	660658	0	0
2024-07-01 10:03:32			0	35371	0	0	0	26402	24940	151560	26706	1027006	43204	109780	0	0	8130	659334	0	0
2024-07-01 10:04:32			0	35353	0	0	0	26402	24940	151524	27152	1027041	43226	109780	0	0	8129	660128	0	0
2024-07-01 10:05:32			0	35389	0	0	0	26405	24950	151464	26932	1027077	43215	109781	0	0	8131	658504	0	0
2024-07-01 10:06:32			0	35393	0	0	0	26376	24960	151376	26993	1027094	43217	109770	0	0	8132	658290	0	0
2024-07-01 10:07:32			0	35392	0	0	0	26399	24960	151460	27263	1027067	43206	109779	0	0	8131	658334	0	0
2024-07-01 10:08:32			0	35392	0	0	0	26418	24950	151232	27059	1027112	43205	109786	0	0	8131	658371	0	0
2024-07-01 10:09:32			0	35417	0	0	0	26433	24990	151224	26844	1027146	43219	109792	0	0	8132	657122	0	0
2024-07-01 10:10:32			0	35451	0	0	0	26444	24980	151112	26890	1027182	43218	109796	0	0	8134	655665	0	0
2024-07-01 10:11:32			0	35465	0	0	0	26423	24980	151180	26942	1027245	43208	109788	0	0	8135	655051	0	0
2024-07-01 10:12:32			0	35477	0	0	0	26433	24990	151024	27163	1027280	43231	109792	0	0	8136	654487	0	0
2024-07-01 10:13:32			0	35466	0	0	0	26431	24990	150980	27159	1027307	43219	109791	0	0	8135	654970	0	0
2024-07-01 10:14:32			0	35488	0	0	0	26457	24990	150916	26809	1027289	43219	109801	0	0	8136	654005	0	0
2024-07-01 10:15:32			0	35485	0	0	0	26462	24990	150936	27171	1027334	43208	109803	0	0	8135	654137	0	0
2024-07-01 10:16:32			0	35518	0	0	0	26454	25010	150824	27020	1027369	43233	109800	0	0	8137	652617	0	0
2024-07-01 10:17:32			0	35534	0	0	0	26462	25000	150836	27097	1027360	43233	109803	0	0	8138	651955	0	0
2024-07-01 10:18:32			0	35545	0	0	0	26459	25010	150736	27372	1027404	43221	109802	0	0	8139	651437	0	0
2024-07-01 10:19:32			0	35539	0	0	0	26472	25010	150684	26972	1027404	43244	109807	0	0	8138	651699	0	0
2024-07-01 10:20:32			0	35564	0	0	0	26475	25010	150660	27263	1027404	43210	109808	0	0	8140	650607	0	0
2024-07-01 10:21:32			0	35594	0	0	0	26475	25020	150576	27019	1027421	43234	109808	0	0	8141	649261	0	0
2024-07-01 10:22:32			0	35589	0	0	0	26475	25020	150532	27289	1027413	43233	109808	0	0	8141	649479	0	0
2024-07-01 10:23:32			0	35596	0	0	0	26498	25030	150536	27274	1027466	43235	109817	0	0	8141	649137	0	0
2024-07-01 10:24:32			0	35611	0	0	0	26496	25050	150420	27164	1027501	43226	109816	0	0	8142	648410	0	0
2024-07-01 10:25:32			0	35609	0	0	0	26514	25040	150348	27092	1027536	43225	109823	0	0	8141	648534	0	0
2024-07-01 10:26:32			0	35629	0	0	0	26498	25060	150420	27109	1027563	43226	109817	0	0	8143	647590	0	0
2024-07-01 10:27:32			0	35661	0	0	0	26509	25060	150336	27109	1027590	43237	109821	0	0	8144	646199	0	0
2024-07-01 10:28:32			0	35646	0	0	0	26535	25070	150296	27066	1027660	43228	109831	0	0	8143	646814	0	0
2024-07-01 10:29:32			0	35664	0	0	0	26537	25080	150136	27131	1027651	43228	109832	0	0	8144	645995	0	0
2024-07-01 10:30:32			0	35711	0	0	0	26537	25080	150060	26844	1027678	43228	109832	0	0	8147	643956	0	0
2024-07-01 10:31:32			0	35711	0	0	0	26555	25090	150000	27216	1027784	43219	109839	0	0	8146	643920	0	0
2024-07-01 10:32:32			0	35718	0	0	0	26555	25100	150020	27367	1027739	43252	109839	0	0	8147	643580	0	0
2024-07-01 10:33:32			0	35754	0	0	0	26553	25090	149800	26882	1027704	43242	109838	0	0	8149	642059	0	0
2024-07-01 10:34:32			0	35757	0	0	0	26568	25090	149852	26974	1027802	43241	109844	0	0	8149	641929	0	0
2024-07-01 10:35:32			0	35772	0	0	0	26574	25100	149696	26998	1027855	43242	109846	0	0	8149	641245	0	0
2024-07-01 10:36:32			0	35807	0	0	0	26574	25110	149652	26902	1027819	43244	109846	0	0	8151	639698	0	0
2024-07-01 10:37:32			0	35797	0	0	0	26540	25110	149660	26733	1027846	43221	109833	0	0	8151	640129	0	0
2024-07-01 10:38:32			0	35815	0	0	0	26545	25120	149516	26975	1027890	43232	109835	0	0	8152	639317	0	0
2024-07-01 10:39:32			0	35828	0	0	0	26563	25110	149572	27312	1027810	43220	109842	0	0	8153	638793	0	0
2024-07-01 10:40:32			0	35787	0	0	0	26574	25120	149680	26981	1027890	43232	109846	0	0	8150	640524	0	0
2024-07-01 10:41:32			0	35789	0	0	0	26574	25130	149680	27126	1027925	43245	109846	0	0	8150	640402	0	0
2024-07-01 10:42:32			0	35808	0	0	0	26568	25130	149660	27255	1027880	43223	109844	0	0	8152	639582	0	0
2024-07-01 10:43:32			0	35804	0	0	0	26579	25140	149648	27241	1027969	43234	109848	0	0	8151	639718	0	0
2024-07-01 10:44:32			0	35784	0	0	0	26558	25140	149728	27043	1027978	43234	109840	0	0	8151	640581	0	0
2024-07-01 10:45:32			0	35774	0	0	0	26584	25150	149696	27296	1027960	43247	109850	0	0	8150	640976	0	0
2024-07-01 10:46:32			0	35741	0	0	0	26594	25150	149868	26798	1027987	43235	109854	0	0	8148	642402	0	0
2024-07-01 10:47:32			0	35736	0	0	0	26597	25140	149932	26844	1027951	43234	109855	0	0	8147	642655	0	0
2024-07-01 10:48:32			0	35758	0	0	0	26607	25150	149872	27114	1028013	43224	109859	0	0	8148	641667	0	0
2024-07-01 10:49:32			0	35761	0	0	0	26623	25150	149736	26726	1028067	43247	109865	0	0	8148	641538	0	0
2024-07-01 10:50:32			0	35771	0	0	0	26623	25160	149740	26791	1028058	43258	109865	0	0	8149	641069	0	0
2024-07-01 10:51:32			0	35800	0	0	0	26620	25170	149600	27168	1028191	43260	109864	0	0	8150	639782	0	0
2024-07-01 10:52:32			0	35801	0	0	0	26641	25170	149684	26750	1028182	43259	109872	0	0	8150	639739	0	0
2024-07-01 10:53:32			0	35827	0	0	0	26667	25180	149604	26913	1028226	43260	109882	0	0	8151	638582	0	0
2024-07-01 10:54:32			0	35832	0	0	0	26651	25190	149500	27194	1028271	43239	109876	0	0	8152	638330	0	0
2024-07-01 10:55:32			0	35878	0	0	0	26664	25200	149361	27060	1028342	43241	109881	0	0	8154	636316	0	0
2024-07-01 10:56:32			0	35900	0	0	0	26670	25210	149221	26864	1028332	43218	109883	0	0	8155	635336	0	0
2024-07-01 10:57:32			0	35910	0	0	0	26646	25210	149089	27083	1028412	43251	109874	0	0	8156	634907	0	0
2024-07-01 10:58:32			0	35930	0	0	0	26657	25220	149185	27147	1028341	43252	109878	0	0	8157	634014	0	0
2024-07-01 10:59:32			0	35933	0	0	0	26677	25230	149145	27013	1028385	43253	109886	0	0	8157	633849	0	0
2024-07-01 11:00:32			0	35921	0	0	0	26698	25220	149029	27263	1028376	43243	109894	0	0	8156	634399	0	0
2024-07-01 11:01:32			0	35947	0	0	0	26709	25230	149005	26963	1028420	43254	109898	0	0	8157	633250	0	0
2024-07-01 11:02:32			0	35986	0	0	0	26709	25240	148833	27267	1028429	43244	109898	0	0	8159	631546	0	0
2024-07-01 11:03:32			0	36010	0	0	0	26690	25240	148733	27090	1028509	43254	109891	0	0	8161	630522	0	0
2024-07-01 11:04:32			0	36024	0	0	0	26685	25250	148685	27265	1028607	43245	109889	0	0	8162	629889	0	0
2024-07-01 11:05:32			0	36015	0	0	0	26685	25250	148657	26908	1028509	43267	109889	0	0	8161	630273	0	0
2024-07-01 11:06:32			0	36004	0	0	0	26675	25260	148661	26804	1028544	43246	109885	0	0	8161	630706	0	0
2024-07-01 11:07:32			0	35976	0	0	0	26688	25260	148829	27260	1028517	43267	109890	0	0	8159	631902	0	0
2024-07-01 11:08:32			0	35956	0	0	0	26698	25260	148953	27109	1028517	43246	109894	0	0	8158	632757	0	0
2024-07-01 11:09:32			0	35946	0	0	0	26680	25250	148913	26859	1028589	43256	109887	0	0	8158	633221	0	0
2024-07-01 11:10:32			0	35932	0	0	0	26677	25260	148929	26863	1028553	43246	109886	0	0	8157	633784	0	0
2024-07-01 11:11:32			0	35925	0	0	0	26706	25270	148849	27114	1028561	43235	109897	0	0	8156	634048	0	0
2024-07-01 11:12:32			0	35916	0	0	0	26698	25260	149057	26951	1028491	43234	109894	0	0	8156	634470	0	0
2024-07-01 11:13:32			0	35903	0	0	0	26683	25270	149149	27150	1028490	43225	109888	0	0	8155	634991	0	0
2024-07-01 11:14:32			0	35862	0	0	0	26709	25270	149233	26911	1028615	43268	109898	0	0	8153	636751	0	0
2024-07-01 11:15:32			0	35880	0	0	0	26693	25280	149205	26925	1028695	43259	109892	0	0	8154	635941	0	0
2024-07-01 11:16:32			0	35867	0	0	0	26706	25280	149253	26854	1028606	43259	109897	0	0	8153	636500	0	0
2024-07-01 11:17:32			0	35856	0	0	0	26716	25270	149325	26807	1028588	43246	109901	0	0	8152	637009	0	0
2024-07-01 11:18:32			0	35850	0	0	0	26719	25280	149300	27235	1028721	43270	109902	0	0	8152	637230	0	0
2024-07-01 11:19:32			0	35857	0	0	0	26711	25280	149385	27229	1028659	43248	109899	0	0	8152	636929	0	0
2024-07-01 11:20:32			0	35848	0	0	0	26696	25290	149320	27112	1028712	43249	109893	0	0	8152	637280	0	0
2024-07-01 11:21:32			0	35845	0	0	0	26740	25290	149432	27072	1028677	43259	109910	0	0	8151	637409	0	0
2024-07-01 11:22:32			0	35847	0	0	0	26742	25290	149392	26951	1028730	43248	109911	0	0	8151	637323	0	0
2024-07-01 11:23:32			0	35842	0	0	0	26745	25290	149344	27395	1028810	43248	109912	0	0	8151	637538	0	0
2024-07-01 11:24:32			0	35872	0	0	0	26680	25300	149225	27166	1028774	43261	109887	0	0	8154	636213	0	0
2024-07-01 11:25:32			0	35876	0	0	0	26701	25290	149221	27308	1028596	43237	109895	0	0	8154	636077	0	0
2024-07-01 11:26:32			0	35863	0	0	0	26709	25290	149269	27346	1028685	43238	109898	0	0	8153	636635	0	0
2024-07-01 11:27:32			0	35857	0	0	0	26690	25300	149288	26953	1028747	43250	109891	0	0	8153	636857	0	0
2024-07-01 11:28:32			0	35822	0	0	0	26703	25280	149384	27422	1028721	43259	109896	0	0	8151	638435	0	0
2024-07-01 11:29:32			0	35827	0	0	0	26688	25300	149492	27201	1028730	43250	109890	0	0	8151	638147	0	0
2024-07-01 11:30:32			0	35809	0	0	0	26670	25290	149460	27180	1028677	43237	109883	0	0	8151	638958	0	0
2024-07-01 11:31:32			0	35800	0	0	0	26716	25300	149452	26953	1028614	43250	109901	0	0	8149	639310	0	0
2024-07-01 11:32:32			0	35793	0	0	0	26719	25290	149592	27076	1028739	43249	109902	0	0	8149	639648	0	0
2024-07-01 11:33:32			0	35774	0	0	0	26662	25290	149624	26892	1028703	43259	109880	0	0	8149	640467	0	0
2024-07-01 11:34:32			0	35765	0	0	0	26670	25290	149752	27064	1028712	43260	109883	0	0	8148	640855	0	0
2024-07-01 11:35:32			0	35793	0	0	0	26659	25290	149604	26738	1028685	43238	109879	0	0	8150	639648	0	0
2024-07-01 11:36:32			0	35800	0	0	0	26753	25300	149492	27079	1028747	43250	109915	0	0	8149	639310	0	0
2024-07-01 11:37:32			0	35784	0	0	0	26786	25300	149568	27194	1028855	43261	109928	0	0	8147	639999	0	0
2024-07-01 11:38:32			0	35794	0	0	0	26781	25320	149608	27071	1028890	43241	109926	0	0	8148	639496	0	0
2024-07-01 11:39:32			0	35838	0	0	0	26755	25330	149436	27225	1028934	43263	109916	0	0	8151	637565	0	0
2024-07-01 11:40:32			0	35876	0	0	0	26745	25320	149189	26944	1028925	43262	109912	0	0	8153	635969	0	0
2024-07-01 11:41:32			0	35886	0	0	0	26729	25330	149201	27123	1028880	43242	109906	0	0	8154	635503	0	0
2024-07-01 11:42:32			0	35891	0	0	0	26784	25340	149257	27161	1028978	43253	109927	0	0	8153	635253	0	0
2024-07-01 11:43:32			0	35894	0	0	0	26745	25340	149113	27282	1028951	43253	109912	0	0	8154	635124	0	0
2024-07-01 11:44:32			0	35910	0	0	0	26755	25340	148997	27228	1028951	43264	109916	0	0	8155	634438	0	0
2024-07-01 11:45:32			0	35950	0	0	0	26784	25340	148993	27107	1028978	43264	109927	0	0	8156	632726	0	0
2024-07-01 11:46:32			0	35922	0	0	0	26807	25340	149029	27248	1029067	43254	109936	0	0	8155	633924	0	0
2024-07-01 11:47:32			0	35967	0	0	0	26828	25350	148877	27003	1029058	43277	109944	0	0	8157	631963	0	0
2024-07-01 11:48:32			0	35997	0	0	0	26820	25360	148741	27046	1029093	43266	109941	0	0	8158	630646	0	0
2024-07-01 11:49:32			0	36044	0	0	0	26833	25370	148545	27017	1029164	43267	109946	0	0	8161	628608	0	0
2024-07-01 11:50:32			0	36052	0	0	0	26831	25380	148521	27114	1029181	43268	109945	0	0	8161	628232	0	0
2024-07-01 11:51:32			0	36059	0	0	0	26812	25380	148397	27138	1029244	43258	109938	0	0	8162	627934	0	0
2024-07-01 11:52:32			0	36071	0	0	0	26776	25380	148393	27071	1029136	43269	109924	0	0	8163	627424	0	0
2024-07-01 11:53:32			0	36070	0	0	0	26820	25380	148353	27133	1029190	43258	109941	0	0	8162	627466	0	0
2024-07-01 11:54:32			0	36086	0	0	0	26828	25390	148225	26890	1029315	43270	109944	0	0	8163	626751	0	0
2024-07-01 11:55:32			0	36099	0	0	0	26841	25400	148237	27241	1029323	43270	109949	0	0	8164	626163	0	0
2024-07-01 11:56:32			0	36116	0	0	0	26877	25410	148285	27306	1029314	43260	109963	0	0	8164	625406	0	0
2024-07-01 11:57:32			0	36169	0	0	0	26867	25410	148141	27412	1029376	43283	109959	0	0	8167	623161	0	0
2024-07-01 11:58:32			0	36177	0	0	0	26867	25420	147889	27086	1029367	43273	109959	0	0	8167	622787	0	0
2024-07-01 11:59:32			0	36177	0	0	0	26880	25430	147861	27163	1029429	43274	109964	0	0	8167	622752	0	0
2024-07-01 12:00:32			0	36186	0	0	0	26888	25420	147945	26892	1029385	43272	109967	0	0	8167	622407	0	0
2024-07-01 12:01:32			0	36225	0	0	0	26893	25430	147829	27085	1029483	43274	109969	0	0	8169	620725	0	0
2024-07-01 12:02:32			0	36236	0	0	0	26896	25430	147701	27171	1029465	43262	109970	0	0	8170	620261	0	0
2024-07-01 12:03:32			0	36239	0	0	0	26903	25440	147589	26946	1029455	43286	109973	0	0	8170	620099	0	0
2024-07-01 12:04:32			0	36277	0	0	0	26909	25450	147665	27301	1029491	43275	109975	0	0	8172	618463	0	0
2024-07-01 12:05:32			0	36265	0	0	0	26916	25440	147569	27015	1029509	43286	109978	0	0	8171	619004	0	0
2024-07-01 12:06:32			0	36308	0	0	0	26919	25460	147445	26922	1029562	43287	109979	0	0	8174	617125	0	0
2024-07-01 12:07:32			0	36333	0	0	0	26924	25460	147505	27248	1029589	43275	109981	0	0	8175	616075	0	0
2024-07-01 12:08:32			0	36340	0	0	0	26927	25470	147385	26772	1029660	43266	109982	0	0	8175	615746	0	0
2024-07-01 12:09:32			0	36356	0	0	0	26916	25470	147321	26807	1029695	43278	109978	0	0	8176	615076	0	0
2024-07-01 12:10:32			0	36371	0	0	0	26924	25470	147265	27154	1029641	43267	109981	0	0	8177	614447	0	0
2024-07-01 12:11:32			0	36355	0	0	0	26942	25480	147229	27249	1029677	43267	109988	0	0	8176	615082	0	0
2024-07-01 12:12:32			0	36366	0	0	0	26950	25480	147285	27183	1029730	43278	109991	0	0	8176	614621	0	0
2024-07-01 12:13:32			0	36392	0	0	0	26963	25490	147189	27130	1029748	43291	109996	0	0	8177	613498	0	0
2024-07-01 12:14:32			0	36393	0	0	0	26948	25510	147161	26956	1029747	43280	109990	0	0	8178	613386	0	0
2024-07-01 12:15:32			0	36435	0	0	0	26937	25510	146997	27069	1029827	43280	109986	0	0	8180	611631	0	0
2024-07-01 12:16:32			0	36447	0	0	0	26940	25520	146953	27372	1029791	43271	109987	0	0	8181	611096	0	0
2024-07-01 12:17:32			0	36452	0	0	0	26953	25520	147009	26937	1029818	43292	109992	0	0	8181	610887	0	0
2024-07-01 12:18:32			0	36462	0	0	0	26989	25520	146921	26765	1029845	43282	110006	0	0	8181	610470	0	0
2024-07-01 12:19:32			0	36465	0	0	0	26984	25520	146945	27215	1029845	43282	110004	0	0	8181	610345	0	0
2024-07-01 12:20:32			0	36493	0	0	0	26981	25530	146701	27185	1029889	43282	110003	0	0	8183	609144	0	0
2024-07-01 12:21:32			0	36520	0	0	0	26992	25530	146745	27093	1029925	43272	110007	0	0	8184	608021	0	0
2024-07-01 12:22:32			0	36519	0	0	0	26994	25540	146653	26960	1029933	43284	110008	0	0	8184	608027	0	0
2024-07-01 12:23:32			0	36509	0	0	0	26984	25540	146649	27242	1029969	43295	110004	0	0	8183	608443	0	0
2024-07-01 12:24:32			0	36493	0	0	0	27028	25550	146725	27109	1030013	43295	110021	0	0	8182	609075	0	0
2024-07-01 12:25:32			0	36488	0	0	0	27007	25550	146773	27159	1030013	43295	110013	0	0	8182	609283	0	0
2024-07-01 12:26:32			0	36498	0	0	0	27005	25560	146689	27287	1030084	43287	110012	0	0	8183	608832	0	0
2024-07-01 12:27:32			0	36519	0	0	0	27018	25560	146557	26934	1030111	43287	110017	0	0	8183	607958	0	0
2024-07-01 12:28:32			0	36536	0	0	0	27036	25570	146541	27187	1030075	43287	110024	0	0	8184	607217	0	0
2024-07-01 12:29:32			0	36535	0	0	0	27038	25590	146585	27211	1030163	43277	110025	0	0	8184	607190	0	0
2024-07-01 12:30:32			0	36559	0	0	0	27054	25580	146449	27121	1030199	43289	110031	0	0	8185	606228	0	0
2024-07-01 12:31:32			0	36571	0	0	0	27054	25590	146409	26859	1030324	43289	110031	0	0	8186	605696	0	0
2024-07-01 12:32:32			0	36577	0	0	0	27080	25600	146341	27260	1030225	43300	110041	0	0	8186	605413	0	0
2024-07-01 12:33:32			0	36585	0	0	0	27080	25610	146325	27338	1030359	43291	110041	0	0	8186	605047	0	0
2024-07-01 12:34:32			0	36611	0	0	0	27088	25630	146190	27223	1030438	43282	110044	0	0	8187	603901	0	0
2024-07-01 12:35:32			0	36604	0	0	0	27077	25620	146198	27066	1030376	43314	110040	0	0	8187	604226	0	0
2024-07-01 12:36:32			0	36624	0	0	0	27106	25630	146102	27154	1030411	43315	110051	0	0	8188	603364	0	0
2024-07-01 12:37:32			0	36634	0	0	0	27098	25630	146138	26960	1030474	43315	110048	0	0	8188	602950	0	0
2024-07-01 12:38:32			0	36655	0	0	0	27127	25640	146130	27246	1030536	43292	110059	0	0	8189	602049	0	0
2024-07-01 12:39:32			0	36666	0	0	0	27127	25660	145966	27059	1030633	43306	110059	0	0	8190	601526	0	0
2024-07-01 12:40:32			0	36690	0	0	0	27153	25660	145994	26890	1030526	43318	110069	0	0	8190	600536	0	0
2024-07-01 12:41:32			0	36697	0	0	0	27132	25670	145814	26944	1030678	43319	110061	0	0	8191	600214	0	0
2024-07-01 12:42:32			0	36725	0	0	0	27124	25680	145698	27104	1030686	43297	110058	0	0	8193	599027	0	0
2024-07-01 12:43:32			0	36743	0	0	0	27127	25680	145598	27272	1030722	43297	110059	0	0	8194	598286	0	0
2024-07-01 12:44:32			0	36750	0	0	0	27135	25690	145534	27286	1030713	43299	110062	0	0	8194	597965	0	0
2024-07-01 12:45:32			0	36774	0	0	0	27148	25690	145574	26797	1030713	43299	110067	0	0	8195	596979	0	0
2024-07-01 12:46:32			0	36791	0	0	0	27161	25700	145334	27052	1030802	43299	110072	0	0	8196	596248	0	0
2024-07-01 12:47:32			0	36823	0	0	0	27161	25700	145338	27010	1030811	43310	110072	0	0	8197	594936	0	0
2024-07-01 12:48:32			0	36830	0	0	0	27179	25710	145290	27156	1030900	43311	110079	0	0	8198	594616	0	0
2024-07-01 12:49:32			0	36838	0	0	0	27184	25720	145150	27048	1030926	43312	110081	0	0	8198	594254	0	0
2024-07-01 12:50:32			0	36864	0	0	0	27197	25730	144986	26734	1030916	43303	110086	0	0	8199	593158	0	0
2024-07-01 12:51:32			0	36892	0	0	0	27194	25740	144962	26720	1030925	43303	110085	0	0	8201	591980	0	0
2024-07-01 12:52:32			0	36934	0	0	0	27184	25740	144930	26941	1031014	43315	110081	0	0	8203	590268	0	0
2024-07-01 12:53:32			0	36938	0	0	0	27207	25740	145006	26989	1031041	43315	110090	0	0	8203	590105	0	0
2024-07-01 12:54:32			0	36921	0	0	0	27212	25750	145050	26908	1031005	43316	110092	0	0	8202	590764	0	0
2024-07-01 12:55:32			0	36911	0	0	0	27212	25760	145054	27083	1031094	43316	110092	0	0	8201	591138	0	0
2024-07-01 12:56:32			0	36926	0	0	0	27220	25760	144942	27379	1031076	43305	110095	0	0	8202	590527	0	0
2024-07-01 12:57:32			0	36942	0	0	0	27246	25790	144950	27289	1031137	43319	110105	0	0	8203	589774	0	0
2024-07-01 12:58:32			0	36933	0	0	0	27238	25790	144918	27218	1031164	43307	110102	0	0	8202	590141	0	0
2024-07-01 12:59:32			0	36957	0	0	0	27241	25800	144766	27170	1031208	43320	110103	0	0	8204	589130	0	0
2024-07-01 13:00:32			0	36987	0	0	0	27233	25790	144646	26974	1031253	43307	110100	0	0	8205	587944	0	0
2024-07-01 13:01:32			0	37015	0	0	0	27223	25800	144630	27124	1031235	43308	110096	0	0	8207	586774	0	0
2024-07-01 13:02:32			0	37036	0	0	0	27233	25800	144522	26826	1031235	43308	110100	0	0	8208	585923	0	0
2024-07-01 13:03:32			0	37023	0	0	0	27220	25790	144618	27147	1031200	43319	110095	0	0	8207	586483	0	0
2024-07-01 13:04:32			0	37007	0	0	0	27223	25800	144582	27059	1031235	43308	110096	0	0	8206	587099	0	0
2024-07-01 13:05:32			0	37009	0	0	0	27228	25810	144590	27003	1031226	43309	110098	0	0	8206	586984	0	0
2024-07-01 13:06:32			0	37018	0	0	0	27223	25810	144550	26743	1031226	43321	110096	0	0	8207	586619	0	0
2024-07-01 13:07:32			0	37036	0	0	0	27215	25810	144514	27001	1031172	43321	110093	0	0	8208	585889	0	0
2024-07-01 13:08:32			0	37037	0	0	0	27238	25810	144486	27001	1031253	43309	110102	0	0	8208	585849	0	0
2024-07-01 13:09:32			0	37015	0	0	0	27233	25800	144542	26821	1031217	43321	110100	0	0	8207	586774	0	0
2024-07-01 13:10:32			0	37003	0	0	0	27231	25810	144566	27092	1031280	43321	110099	0	0	8206	587228	0	0
2024-07-01 13:11:32			0	37016	0	0	0	27223	25810	144578	26932	1031226	43321	110096	0	0	8207	586700	0	0
2024-07-01 13:12:32			0	37001	0	0	0	27238	25810	144542	27090	1031253	43309	110102	0	0	8206	587309	0	0
2024-07-01 13:13:32			0	37000	0	0	0	27249	25810	144662	26771	1031306	43321	110106	0	0	8206	587350	0	0
2024-07-01 13:14:32			0	37002	0	0	0	27249	25810	144602	26994	1031262	43343	110106	0	0	8206	587268	0	0
2024-07-01 13:15:32			0	37004	0	0	0	27251	25820	144566	26981	1031324	43310	110107	0	0	8206	587154	0	0
2024-07-01 13:16:32			0	37025	0	0	0	27220	25820	144430	27092	1031351	43333	110095	0	0	8207	586302	0	0
2024-07-01 13:17:32			0	37053	0	0	0	27212	25830	144486	26982	1031314	43311	110092	0	0	8209	585134	0	0
2024-07-01 13:18:32			0	37048	0	0	0	27218	25820	144502	27194	1031252	43311	110094	0	0	8209	585370	0	0
2024-07-01 13:19:32			0	37045	0	0	0	27223	25820	144386	26764	1031297	43321	110096	0	0	8208	585492	0	0
2024-07-01 13:20:32			0	37053	0	0	0	27220	25820	144410	26693	1031279	43311	110095	0	0	8209	585167	0	0
2024-07-01 13:21:32			0	37023	0	0	0	27236	25820	144546	26772	1031306	43300	110101	0	0	8207	586383	0	0
2024-07-01 13:22:32			0	37023	0	0	0	27257	25820	144634	26800	1031297	43321	110109	0	0	8207	586383	0	0
2024-07-01 13:23:32			0	36992	0	0	0	27236	25830	144706	26897	1031341	43333	110101	0	0	8206	587607	0	0
2024-07-01 13:24:32			0	36978	0	0	0	27212	25840	144718	27017	1031332	43323	110092	0	0	8205	588142	0	0
2024-07-01 13:25:32			0	36974	0	0	0	27194	25830	144742	26817	1031288	43322	110085	0	0	8205	588338	0	0
2024-07-01 13:26:32			0	37011	0	0	0	27189	25830	144626	26918	1031261	43322	110083	0	0	8207	586836	0	0
2024-07-01 13:27:32			0	37024	0	0	0	27189	25820	144486	26916	1031243	43288	110083	0	0	8208	586343	0	0
2024-07-01 13:28:32			0	37004	0	0	0	27212	25820	144574	26982	1031243	43310	110092	0	0	8207	587154	0	0
2024-07-01 13:29:32			0	36984	0	0	0	27218	25820	144606	27166	1031217	43321	110094	0	0	8205	587966	0	0
2024-07-01 13:30:32			0	36936	0	0	0	27249	25820	144746	26979	1031378	43299	110106	0	0	8202	589918	0	0
2024-07-01 13:31:32			0	36907	0	0	0	27197	25820	144922	27242	1031333	43333	110086	0	0	8202	591099	0	0
2024-07-01 13:32:32			0	36901	0	0	0	27231	25830	144994	27194	1031314	43322	110099	0	0	8201	591310	0	0
2024-07-01 13:33:32			0	36925	0	0	0	27148	25830	144918	27154	1031288	43322	110067	0	0	8204	590332	0	0
2024-07-01 13:34:32			0	36890	0	0	0	27215	25820	144898	27012	1031270	43321	110093	0	0	8201	591792	0	0
2024-07-01 13:35:32			0	36899	0	0	0	27207	25820	145042	26762	1031297	43299	110090	0	0	8201	591425	0	0
2024-07-01 13:36:32			0	36899	0	0	0	27189	25820	145026	27133	1031225	43311	110083	0	0	8201	591425	0	0
2024-07-01 13:37:32			0	36928	0	0	0	27192	25820	144910	26698	1031270	43321	110084	0	0	8203	590243	0	0
2024-07-01 13:38:32			0	36881	0	0	0	27246	25820	145082	26635	1031270	43310	110105	0	0	8200	592159	0	0
2024-07-01 13:39:32			0	36839	0	0	0	27228	25820	145274	26694	1031333	43311	110098	0	0	8198	593875	0	0
2024-07-01 13:40:32			0	36829	0	0	0	27205	25820	145262	26760	1031351	43310	110089	0	0	8198	594284	0	0
2024-07-01 13:41:32			0	36853	0	0	0	27207	25820	145250	27085	1031386	43311	110090	0	0	8199	593303	0	0
2024-07-01 13:42:32			0	36831	0	0	0	27212	25820	145258	27060	1031252	43322	110092	0	0	8198	594202	0	0
2024-07-01 13:43:32			0	36820	0	0	0	27225	25820	145318	26975	1031279	43311	110097	0	0	8197	594652	0	0
2024-07-01 13:44:32			0	36786	0	0	0	27228	25830	145430	26948	1031314	43311	110098	0	0	8195	596011	0	0
2024-07-01 13:45:32			0	36742	0	0	0	27264	25820	145486	27029	1031324	43310	110112	0	0	8192	597851	0	0
2024-07-01 13:46:32			0	36755	0	0	0	27244	25810	145658	27185	1031342	43321	110104	0	0	8193	597351	0	0
2024-07-01 13:47:32			0	36727	0	0	0	27233	25820	145606	27192	1031306	43322	110100	0	0	8192	598467	0	0
2024-07-01 13:48:32			0	36726	0	0	0	27257	25840	145622	27064	1031385	43312	110109	0	0	8191	598440	0	0
2024-07-01 13:49:32			0	36727	0	0	0	27288	25830	145602	27126	1031404	43323	110121	0	0	8191	598433	0	0
2024-07-01 13:50:32			0	36740	0	0	0	27290	25840	145546	26951	1031466	43334	110122	0	0	8192	597865	0	0
2024-07-01 13:51:32			0	36787	0	0	0	27293	25840	145510	27097	1031466	43334	110123	0	0	8194	595936	0	0
2024-07-01 13:52:32			0	36822	0	0	0	27296	25850	145442	27003	1031546	43347	110124	0	0	8196	594469	0	0
2024-07-01 13:53:32			0	36821	0	0	0	27296	25860	145258	27045	1031536	43315	110124	0	0	8196	594476	0	0
2024-07-01 13:54:32			0	36849	0	0	0	27306	25860	145146	27033	1031590	43326	110128	0	0	8197	593331	0	0
2024-07-01 13:55:32			0	36868	0	0	0	27319	25870	145106	27150	1031625	43326	110133	0	0	8198	592521	0	0
2024-07-01 13:56:32			0	36876	0	0	0	27324	25870	145058	27027	1031607	43327	110135	0	0	8198	592195	0	0
2024-07-01 13:57:32			0	36898	0	0	0	27314	25870	144954	27216	1031607	43327	110131	0	0	8200	591297	0	0
2024-07-01 13:58:32			0	36923	0	0	0	27309	25870	144874	27097	1031625	43326	110129	0	0	8201	590279	0	0
2024-07-01 13:59:32			0	36930	0	0	0	27303	25880	144706	27017	1031651	43328	110127	0	0	8201	589960	0	0
2024-07-01 14:00:32			0	36946	0	0	0	27319	25880	144778	27090	1031678	43328	110133	0	0	8202	589309	0	0
2024-07-01 14:01:32			0	36939	0	0	0	27298	25880	144786	26722	1031670	43317	110125	0	0	8202	589594	0	0
2024-07-01 14:02:32			0	36945	0	0	0	27301	25880	144706	27182	1031625	43317	110126	0	0	8202	589350	0	0
2024-07-01 14:03:32			0	36948	0	0	0	27309	25890	144686	27067	1031633	43318	110129	0	0	8202	589194	0	0
2024-07-01 14:04:32			0	36960	0	0	0	27309	25890	144774	27142	1031696	43318	110129	0	0	8203	588706	0	0
2024-07-01 14:05:32			0	36947	0	0	0	27306	25880	144774	26831	1031678	43338	110128	0	0	8202	589268	0	0
2024-07-01 14:06:32			0	36942	0	0	0	27311	25880	144806	26698	1031651	43328	110130	0	0	8202	589472	0	0
2024-07-01 14:07:32			0	36939	0	0	0	27314	25890	144810	27055	1031660	43339	110131	0	0	8202	589560	0	0
2024-07-01 14:08:32			0	36934	0	0	0	27311	25880	144930	27190	1031625	43317	110130	0	0	8201	589797	0	0
2024-07-01 14:09:32			0	36940	0	0	0	27303	25880	144806	27128	1031759	43305	110127	0	0	8202	589553	0	0
2024-07-01 14:10:32			0	36940	0	0	0	27301	25900	144858	27128	1031704	43330	110126	0	0	8202	589486	0	0
2024-07-01 14:11:32			0	36933	0	0	0	27298	25890	144854	26996	1031696	43329	110125	0	0	8202	589804	0	0
2024-07-01 14:12:32			0	36936	0	0	0	27309	25880	144786	27093	1031651	43338	110129	0	0	8202	589716	0	0
2024-07-01 14:13:32			0	36905	0	0	0	27324	25900	144846	26781	1031704	43340	110135	0	0	8200	590911	0	0
2024-07-01 14:14:32			0	36914	0	0	0	27311	25890	144938	27268	1031696	43329	110130	0	0	8200	590578	0	0
2024-07-01 14:15:32			0	36882	0	0	0	27309	25890	145022	27258	1031722	43318	110129	0	0	8199	591882	0	0
2024-07-01 14:16:32			0	36900	0	0	0	27293	25890	145006	26942	1031722	43329	110123	0	0	8200	591148	0	0
2024-07-01 14:17:32			0	36888	0	0	0	27293	25890	144978	26899	1031642	43318	110123	0	0	8199	591638	0	0
2024-07-01 14:18:32			0	36891	0	0	0	27306	25890	145158	27208	1031633	43329	110128	0	0	8199	591515	0	0
2024-07-01 14:19:32			0	36848	0	0	0	27290	25890	145106	27107	1031660	43318	110122	0	0	8197	593271	0	0
2024-07-01 14:20:32			0	36857	0	0	0	27267	25880	145154	26861	1031651	43305	110113	0	0	8198	592937	0	0
2024-07-01 14:21:32			0	36836	0	0	0	27272	25880	145214	26781	1031625	43317	110115	0	0	8197	593795	0	0
2024-07-01 14:22:32			0	36817	0	0	0	27275	25890	145270	26979	1031607	43329	110116	0	0	8196	594538	0	0
2024-07-01 14:23:32			0	36783	0	0	0	27277	25870	145466	27152	1031607	43337	110117	0	0	8194	595998	0	0
2024-07-01 14:24:32			0	36781	0	0	0	27280	25880	145534	27170	1031598	43317	110118	0	0	8194	596046	0	0
2024-07-01 14:25:32			0	36748	0	0	0	27301	25870	145602	27043	1031634	43316	110126	0	0	8192	597434	0	0
2024-07-01 14:26:32			0	36768	0	0	0	27303	25880	145598	27008	1031651	43328	110127	0	0	8193	596579	0	0
2024-07-01 14:27:32			0	36753	0	0	0	27285	25880	145598	27052	1031625	43328	110120	0	0	8192	597195	0	0
2024-07-01 14:28:32			0	36765	0	0	0	27298	25890	145578	26776	1031660	43339	110125	0	0	8193	596668	0	0
2024-07-01 14:29:32			0	36779	0	0	0	27301	25880	145434	26991	1031651	43338	110126	0	0	8194	596128	0	0
2024-07-01 14:30:32			0	36793	0	0	0	27319	25890	145458	27178	1031696	43329	110133	0	0	8194	595521	0	0
2024-07-01 14:31:32			0	36807	0	0	0	27322	25900	145434	26837	1031704	43340	110134	0	0	8195	594914	0	0
2024-07-01 14:32:32			0	36805	0	0	0	27332	25900	145434	27034	1031758	43340	110138	0	0	8194	594995	0	0
2024-07-01 14:33:32			0	36796	0	0	0	27319	25900	145290	26816	1031820	43330	110133	0	0	8194	595364	0	0
2024-07-01 14:34:32			0	36836	0	0	0	27309	25900	145370	26951	1031812	43330	110129	0	0	8196	593727	0	0
2024-07-01 14:35:32			0	36840	0	0	0	27319	25910	145382	27066	1031802	43331	110133	0	0	8197	593530	0	0
2024-07-01 14:36:32			0	36833	0	0	0	27319	25890	145286	27204	1031741	43318	110133	0	0	8196	593884	0	0
2024-07-01 14:37:32			0	36816	0	0	0	27322	25900	145362	27066	1031731	43319	110134	0	0	8195	594545	0	0
2024-07-01 14:38:32			0	36820	0	0	0	27316	25910	145346	27175	1031856	43341	110132	0	0	8196	594348	0	0
2024-07-01 14:39:32			0	36830	0	0	0	27316	25910	145246	26781	1031749	43331	110132	0	0	8196	593939	0	0
2024-07-01 14:40:32			0	36829	0	0	0	27319	25900	145334	26925	1031713	43330	110133	0	0	8196	594013	0	0
2024-07-01 14:41:32			0	36811	0	0	0	27350	25910	145358	27258	1031802	43331	110145	0	0	8195	594716	0	0
2024-07-01 14:42:32			0	36811	0	0	0	27361	25910	145326	27282	1031936	43341	110149	0	0	8194	594716	0	0
2024-07-01 14:43:32			0	36810	0	0	0	27376	25920	145330	26878	1031820	43332	110155	0	0	8194	594723	0	0
2024-07-01 14:44:32			0	36819	0	0	0	27368	25920	145398	27027	1031981	43332	110152	0	0	8195	594355	0	0
2024-07-01 14:45:32			0	36827	0	0	0	27358	25920	145314	27220	1031936	43343	110148	0	0	8195	594027	0	0
2024-07-01 14:46:32			0	36852	0	0	0	27342	25930	145122	27194	1031918	43333	110142	0	0	8197	592972	0	0
2024-07-01 14:47:32			0	36877	0	0	0	27314	25930	145074	26817	1031864	43321	110131	0	0	8199	591952	0	0
2024-07-01 14:48:32			0	36866	0	0	0	27345	25930	145058	27086	1031864	43343	110143	0	0	8198	592400	0	0
2024-07-01 14:49:32			0	36856	0	0	0	27361	25930	145178	26700	1031918	43343	110149	0	0	8197	592809	0	0
2024-07-01 14:50:32			0	36850	0	0	0	27358	25930	145138	26984	1031918	43333	110148	0	0	8197	593054	0	0
2024-07-01 14:51:32			0	36829	0	0	0	27358	25930	145146	27182	1031953	43333	110148	0	0	8195	593912	0	0
2024-07-01 14:52:32			0	36831	0	0	0	27348	25930	145174	27109	1031891	43343	110144	0	0	8196	593830	0	0
2024-07-01 14:53:32			0	36824	0	0	0	27361	25930	145294	26916	1031953	43343	110149	0	0	8195	594116	0	0
2024-07-01 14:54:32			0	36833	0	0	0	27353	25940	145262	26974	1031935	43311	110146	0	0	8196	593714	0	0
2024-07-01 14:55:32			0	36820	0	0	0	27361	25930	145338	26996	1031953	43310	110149	0	0	8195	594280	0	0
2024-07-01 14:56:32			0	36841	0	0	0	27345	25930	145246	27067	1031900	43333	110143	0	0	8196	593421	0	0
2024-07-01 14:57:32			0	36816	0	0	0	27366	25930	145270	27074	1031953	43333	110151	0	0	8195	594443	0	0
2024-07-01 14:58:32			0	36837	0	0	0	27348	25930	145182	26807	1031953	43321	110144	0	0	8196	593585	0	0
2024-07-01 14:59:32			0	36839	0	0	0	27348	25930	145206	27088	1031953	43343	110144	0	0	8196	593503	0	0
2024-07-01 15:00:32			0	36834	0	0	0	27358	25930	145234	27216	1031953	43343	110148	0	0	8196	593707	0	0
2024-07-01 15:01:32			0	36864	0	0	0	27368	25940	145166	26609	1031962	43333	110152	0	0	8197	592448	0	0
2024-07-01 15:02:32			0	36861	0	0	0	27366	25940	145186	26875	1031989	43344	110151	0	0	8197	592571	0	0
2024-07-01 15:03:32			0	36871	0	0	0	27355	25930	145130	27029	1031980	43321	110147	0	0	8198	592196	0	0
2024-07-01 15:04:32			0	36880	0	0	0	27376	25940	144998	26998	1032016	43344	110155	0	0	8198	591795	0	0
2024-07-01 15:05:32			0	36889	0	0	0	27355	25940	145122	26889	1031962	43344	110147	0	0	8199	591428	0	0
2024-07-01 15:06:32			0	36890	0	0	0	27342	25940	145106	27098	1031971	43323	110142	0	0	8199	591388	0	0
2024-07-01 15:07:32			0	36867	0	0	0	27379	25940	145010	27187	1031971	43323	110156	0	0	8197	592326	0	0
2024-07-01 15:08:32			0	36840	0	0	0	27379	25940	145150	27088	1032024	43323	110156	0	0	8196	593428	0	0
2024-07-01 15:09:32			0	36823	0	0	0	27386	25950	145414	26873	1032095	43334	110159	0	0	8195	594089	0	0
2024-07-01 15:10:32			0	36806	0	0	0	27376	25950	145266	26736	1032087	43334	110155	0	0	8194	594785	0	0
2024-07-01 15:11:32			0	36819	0	0	0	27363	25950	145346	27005	1032033	43345	110150	0	0	8195	594253	0	0
2024-07-01 15:12:32			0	36828	0	0	0	27368	25940	145174	27085	1032051	43334	110152	0	0	8195	593919	0	0
2024-07-01 15:13:32			0	36818	0	0	0	27345	25950	145266	26944	1032033	43323	110143	0	0	8195	594294	0	0
2024-07-01 15:14:32			0	36811	0	0	0	27316	25950	145278	27071	1031926	43323	110132	0	0	8195	594580	0	0
2024-07-01 15:15:32			0	36797	0	0	0	27329	25940	145314	27123	1031944	43334	110137	0	0	8194	595187	0	0
2024-07-01 15:16:32			0	36795	0	0	0	27329	25940	145326	26994	1031935	43322	110137	0	0	8194	595269	0	0
2024-07-01 15:17:32			0	36744	0	0	0	27303	25940	145514	27076	1031908	43322	110127	0	0	8192	597360	0	0
2024-07-01 15:18:32			0	36724	0	0	0	27285	25920	145706	26904	1031882	43321	110120	0	0	8191	598250	0	0
2024-07-01 15:19:32			0	36672	0	0	0	27342	25930	145738	26923	1031891	43310	110142	0	0	8188	600355	0	0
2024-07-01 15:20:32			0	36602	0	0	0	27309	25920	146150	26880	1031802	43321	110129	0	0	8184	603277	0	0
2024-07-01 15:21:32			0	36554	0	0	0	27340	25920	146353	26809	1031882	43321	110141	0	0	8181	605263	0	0
2024-07-01 15:22:32			0	36521	0	0	0	27358	25930	146509	27064	1031980	43333	110148	0	0	8179	606596	0	0
2024-07-01 15:23:32			0	36482	0	0	0	27358	25930	146549	26842	1031971	43333	110148	0	0	8177	608215	0	0
2024-07-01 15:24:32			0	36479	0	0	0	27337	25930	146545	27142	1031980	43321	110140	0	0	8178	608340	0	0
2024-07-01 15:25:32			0	36491	0	0	0	27322	25930	146505	26821	1031900	43333	110134	0	0	8178	607841	0	0
2024-07-01 15:26:32			0	36508	0	0	0	27342	25920	146373	26852	1031909	43321	110142	0	0	8179	607170	0	0
2024-07-01 15:27:32			0	36552	0	0	0	27353	25940	146333	26899	1031935	43333	110146	0	0	8181	605277	0	0
2024-07-01 15:28:32			0	36558	0	0	0	27316	25920	146261	27126	1031936	43333	110132	0	0	8182	605097	0	0
2024-07-01 15:29:32			0	36560	0	0	0	27381	25940	146169	26793	1031989	43344	110157	0	0	8181	604945	0	0
2024-07-01 15:30:32			0	36578	0	0	0	27376	25940	146277	27015	1032042	43322	110155	0	0	8182	604200	0	0
2024-07-01 15:31:32			0	36575	0	0	0	27366	25940	146121	27114	1032016	43333	110151	0	0	8182	604324	0	0
2024-07-01 15:32:32			0	36597	0	0	0	27366	25940	146066	27076	1032051	43323	110151	0	0	8183	603415	0	0
2024-07-01 15:33:32			0	36639	0	0	0	27363	25940	146046	27138	1032016	43333	110150	0	0	8185	601680	0	0
2024-07-01 15:34:32			0	36655	0	0	0	27355	25950	145882	27093	1032015	43334	110147	0	0	8186	600987	0	0
2024-07-01 15:35:32			0	36657	0	0	0	27361	25940	145890	26805	1032051	43334	110149	0	0	8186	600938	0	0
2024-07-01 15:36:32			0	36664	0	0	0	27350	25940	145834	26883	1032016	43322	110145	0	0	8187	600650	0	0
2024-07-01 15:37:32			0	36661	0	0	0	27366	25940	145914	27173	1031998	43345	110151	0	0	8187	600773	0	0
2024-07-01 15:38:32			0	36644	0	0	0	27361	25940	145918	26620	1032016	43333	110149	0	0	8186	601474	0	0
2024-07-01 15:39:32			0	36627	0	0	0	27363	25950	145986	27053	1032033	43323	110150	0	0	8185	602141	0	0
2024-07-01 15:40:32			0	36627	0	0	0	27376	25950	146010	27277	1032060	43334	110155	0	0	8185	602141	0	0
2024-07-01 15:41:32			0	36630	0	0	0	27366	25950	145966	26951	1032042	43323	110151	0	0	8185	602017	0	0
2024-07-01 15:42:32			0	36621	0	0	0	27355	25950	146038	26935	1032113	43334	110147	0	0	8185	602389	0	0
2024-07-01 15:43:32			0	36628	0	0	0	27361	25950	145946	26923	1032060	43334	110149	0	0	8185	602100	0	0
2024-07-01 15:44:32			0	36636	0	0	0	27353	25950	145954	27027	1032042	43323	110146	0	0	8186	601770	0	0
2024-07-01 15:45:32			0	36644	0	0	0	27355	25940	145878	27003	1031998	43323	110147	0	0	8186	601474	0	0
2024-07-01 15:46:32			0	36633	0	0	0	27358	25950	146030	27187	1032042	43334	110148	0	0	8185	601894	0	0
2024-07-01 15:47:32			0	36642	0	0	0	27358	25950	145942	27192	1032069	43334	110148	0	0	8186	601523	0	0
2024-07-01 15:48:32			0	36641	0	0	0	27399	25950	145930	27097	1032113	43334	110164	0	0	8185	601564	0	0
2024-07-01 15:49:32			0	36664	0	0	0	27399	25950	145890	27152	1032095	43345	110164	0	0	8186	600616	0	0
2024-07-01 15:50:32			0	36646	0	0	0	27410	25960	145894	27159	1032113	43335	110168	0	0	8185	601323	0	0
2024-07-01 15:51:32			0	36680	0	0	0	27405	25970	145742	27050	1032229	43347	110166	0	0	8187	599888	0	0
2024-07-01 15:52:32			0	36719	0	0	0	27381	25970	145682	26896	1032175	43335	110157	0	0	8189	598284	0	0
2024-07-01 15:53:32			0	36765	0	0	0	27384	25970	145482	26953	1032184	43326	110158	0	0	8192	596396	0	0
2024-07-01 15:54:32			0	36786	0	0	0	27402	25970	145418	27003	1032184	43348	110165	0	0	8193	595536	0	0
2024-07-01 15:55:32			0	36797	0	0	0	27399	25970	145422	27020	1032184	43336	110164	0	0	8193	595085	0	0
2024-07-01 15:56:32			0	36799	0	0	0	27389	25980	145366	26935	1032255	43337	110160	0	0	8194	594970	0	0
2024-07-01 15:57:32			0	36823	0	0	0	27386	25980	145278	26991	1032139	43348	110159	0	0	8195	593988	0	0
2024-07-01 15:58:32			0	36845	0	0	0	27384	25960	145154	26882	1032193	43325	110158	0	0	8196	593156	0	0
2024-07-01 15:59:32			0	36841	0	0	0	27379	25970	145154	27166	1032148	43335	110156	0	0	8196	593286	0	0
2024-07-01 16:00:32			0	36852	0	0	0	27386	25960	145182	26769	1032220	43314	110159	0	0	8196	592871	0	0
2024-07-01 16:01:32			0	36854	0	0	0	27381	25970	145110	27086	1032175	43347	110157	0	0	8197	592755	0	0
2024-07-01 16:02:32			0	36853	0	0	0	27384	25970	145102	27227	1032148	43314	110158	0	0	8196	592796	0	0
2024-07-01 16:03:32			0	36840	0	0	0	27397	25980	145126	27261	1032201	43337	110163	0	0	8196	593293	0	0
2024-07-01 16:04:32			0	36851	0	0	0	27397	25960	145186	27419	1032220	43335	110163	0	0	8196	592911	0	0
2024-07-01 16:05:32			0	36839	0	0	0	27397	25980	145242	26741	1032139	43336	110163	0	0	8196	593334	0	0
2024-07-01 16:06:32			0	36854	0	0	0	27402	25970	145322	27225	1032157	43336	110165	0	0	8196	592755	0	0
2024-07-01 16:07:32			0	36839	0	0	0	27405	25980	145178	26975	1032201	43337	110166	0	0	8195	593334	0	0
2024-07-01 16:08:32			0	36854	0	0	0	27405	25980	145218	26968	1032273	43348	110166	0	0	8196	592721	0	0
2024-07-01 16:09:32			0	36869	0	0	0	27402	25990	145186	27024	1032264	43338	110165	0	0	8197	592075	0	0
2024-07-01 16:10:32			0	36863	0	0	0	27415	25990	145114	27289	1032317	43338	110170	0	0	8197	592320	0	0
2024-07-01 16:11:32			0	36866	0	0	0	27415	25990	145046	27244	1032299	43350	110170	0	0	8197	592198	0	0
2024-07-01 16:12:32			0	36872	0	0	0	27425	25990	145186	26906	1032371	43338	110174	0	0	8197	591953	0	0
2024-07-01 16:13:32			0	36871	0	0	0	27433	26000	145150	27251	1032308	43350	110177	0	0	8197	591960	0	0
2024-07-01 16:14:32			0	36869	0	0	0	27438	26000	145130	27239	1032370	43351	110179	0	0	8196	592042	0	0
2024-07-01 16:15:32			0	36870	0	0	0	27449	26000	145190	27046	1032370	43339	110183	0	0	8196	592001	0	0
2024-07-01 16:16:32			0	36853	0	0	0	27451	26020	145206	26772	1032405	43341	110184	0	0	8196	592627	0	0
2024-07-01 16:17:32			0	36863	0	0	0	27464	26020	145178	27031	1032485	43331	110189	0	0	8196	592219	0	0
2024-07-01 16:18:32			0	36907	0	0	0	27472	26030	145058	27059	1032530	43342	110192	0	0	8198	590392	0	0
2024-07-01 16:19:32			0	36944	0	0	0	27485	26020	144898	27294	1032512	43352	110197	0	0	8200	588920	0	0
2024-07-01 16:20:32			0	36948	0	0	0	27501	26040	144882	26972	1032565	43353	110203	0	0	8200	588690	0	0
2024-07-01 16:21:32			0	36985	0	0	0	27485	26040	144618	26935	1032592	43342	110197	0	0	8202	587188	0	0
2024-07-01 16:22:32			0	37012	0	0	0	27483	26040	144618	27081	1032574	43343	110196	0	0	8203	586094	0	0
2024-07-01 16:23:32			0	37028	0	0	0	27506	26050	144438	27126	1032637	43344	110205	0	0	8204	585412	0	0
2024-07-01 16:24:32			0	37037	0	0	0	27496	26050	144426	26996	1032672	43356	110201	0	0	8204	585048	0	0
2024-07-01 16:25:32			0	37041	0	0	0	27503	26070	144466	27138	1032663	43345	110204	0	0	8205	584819	0	0
2024-07-01 16:26:32			0	37049	0	0	0	27501	26070	144446	27161	1032689	43356	110203	0	0	8205	584496	0	0
2024-07-01 16:27:32			0	37042	0	0	0	27516	26080	144382	26956	1032653	43369	110209	0	0	8204	584746	0	0
2024-07-01 16:28:32			0	37031	0	0	0	27514	26080	144438	27124	1032707	43347	110208	0	0	8204	585191	0	0
2024-07-01 16:29:32			0	37031	0	0	0	27532	26080	144394	27277	1032796	43358	110215	0	0	8204	585191	0	0
2024-07-01 16:30:32			0	37043	0	0	0	27535	26090	144350	27182	1032813	43359	110216	0	0	8204	584672	0	0
2024-07-01 16:31:32			0	37050	0	0	0	27529	26100	144294	27244	1032822	43360	110214	0	0	8205	584355	0	0
2024-07-01 16:32:32			0	37040	0	0	0	27529	26100	144338	27232	1032831	43349	110214	0	0	8204	584760	0	0
2024-07-01 16:33:32			0	37057	0	0	0	27527	26100	144234	27168	1032858	43349	110213	0	0	8205	584073	0	0
2024-07-01 16:34:32			0	37086	0	0	0	27519	26100	144202	27142	1032795	43349	110210	0	0	8207	582901	0	0
2024-07-01 16:35:32			0	37111	0	0	0	27496	26100	144038	27168	1032750	43349	110201	0	0	8208	581893	0	0
2024-07-01 16:36:32			0	37163	0	0	0	27501	26100	143978	26949	1032831	43360	110203	0	0	8211	579799	0	0
2024-07-01 16:37:32			0	37174	0	0	0	27496	26100	143898	27086	1032858	43349	110201	0	0	8212	579357	0	0
2024-07-01 16:38:32			0	37184	0	0	0	27514	26100	143802	27313	1032822	43360	110208	0	0	8212	578955	0	0
2024-07-01 16:39:32			0	37179	0	0	0	27506	26100	143954	26989	1032777	43337	110205	0	0	8212	579156	0	0
2024-07-01 16:40:32			0	37179	0	0	0	27509	26100	143942	27260	1032795	43349	110206	0	0	8212	579156	0	0
2024-07-01 16:41:32			0	37160	0	0	0	27503	26090	143866	27168	1032706	43359	110204	0	0	8211	579953	0	0
2024-07-01 16:42:32			0	37186	0	0	0	27522	26100	143902	27142	1032804	43349	110211	0	0	8212	578874	0	0
2024-07-01 16:43:32			0	37178	0	0	0	27506	26100	143926	27062	1032777	43349	110205	0	0	8212	579196	0	0
2024-07-01 16:44:32			0	37163	0	0	0	27516	26100	143906	26941	1032795	43349	110209	0	0	8211	579799	0	0
2024-07-01 16:45:32			0	37172	0	0	0	27524	26120	143986	26913	1032884	43373	110212	0	0	8211	579371	0	0
2024-07-01 16:46:32			0	37168	0	0	0	27524	26120	143910	26955	1032884	43350	110212	0	0	8211	579532	0	0
2024-07-01 16:47:32			0	37163	0	0	0	27519	26110	143990	27199	1032875	43372	110210	0	0	8211	579766	0	0
2024-07-01 16:48:32			0	37143	0	0	0	27535	26110	144018	27135	1032875	43338	110216	0	0	8210	580570	0	0
2024-07-01 16:49:32			0	37143	0	0	0	27548	26120	143990	27209	1032911	43339	110221	0	0	8209	580537	0	0
2024-07-01 16:50:32			0	37137	0	0	0	27553	26120	144050	26833	1032893	43351	110223	0	0	8209	580779	0	0
2024-07-01 16:51:32			0	37136	0	0	0	27550	26130	144022	27237	1032937	43363	110222	0	0	8209	580786	0	0
2024-07-01 16:52:32			0	37124	0	0	0	27548	26130	144062	27121	1032964	43363	110221	0	0	8208	581269	0	0
2024-07-01 16:53:32			0	37127	0	0	0	27550	26130	144102	27097	1032928	43374	110222	0	0	8209	581148	0	0
2024-07-01 16:54:32			0	37139	0	0	0	27555	26130	144010	26927	1032928	43351	110224	0	0	8209	580665	0	0
2024-07-01 16:55:32			0	37156	0	0	0	27558	26130	143958	27081	1032990	43374	110225	0	0	8210	579981	0	0
2024-07-01 16:56:32			0	37168	0	0	0	27563	26140	144022	26835	1033035	43353	110227	0	0	8210	579466	0	0
2024-07-01 16:57:32			0	37206	0	0	0	27561	26140	143818	26876	1033008	43353	110226	0	0	8212	577939	0	0
2024-07-01 16:58:32			0	37237	0	0	0	27568	26130	143646	27208	1033044	43363	110229	0	0	8214	576729	0	0
2024-07-01 16:59:32			0	37289	0	0	0	27581	26140	143418	27189	1032999	43364	110234	0	0	8216	574615	0	0
2024-07-01 17:00:32			0	37287	0	0	0	27576	26140	143426	27001	1033061	43353	110232	0	0	8216	574695	0	0
2024-07-01 17:01:32			0	37309	0	0	0	27574	26150	143438	26838	1033070	43342	110231	0	0	8218	573783	0	0
2024-07-01 17:02:32			0	37318	0	0	0	27584	26150	143339	27046	1033043	43353	110235	0	0	8218	573423	0	0
2024-07-01 17:03:32			0	37335	0	0	0	27584	26170	143295	26911	1033159	43355	110235	0	0	8219	572680	0	0
2024-07-01 17:04:32			0	37350	0	0	0	27579	26160	143235	26944	1033061	43376	110233	0	0	8220	572114	0	0
2024-07-01 17:05:32			0	37350	0	0	0	27586	26160	143223	27237	1033123	43355	110236	0	0	8220	572114	0	0
2024-07-01 17:06:32			0	37342	0	0	0	27594	26170	143279	26748	1033132	43355	110239	0	0	8219	572400	0	0
2024-07-01 17:07:32			0	37333	0	0	0	27594	26170	143279	26977	1033141	43355	110239	0	0	8219	572759	0	0
2024-07-01 17:08:32			0	37317	0	0	0	27592	26170	143287	27131	1033105	43344	110238	0	0	8218	573398	0	0
2024-07-01 17:09:32			0	37319	0	0	0	27597	26170	143395	27159	1033132	43366	110240	0	0	8218	573318	0	0
2024-07-01 17:10:32			0	37290	0	0	0	27597	26180	143422	26972	1033176	43367	110240	0	0	8216	574444	0	0
2024-07-01 17:11:32			0	37279	0	0	0	27589	26170	143466	27265	1033132	43366	110237	0	0	8216	574916	0	0
2024-07-01 17:12:32			0	37277	0	0	0	27586	26170	143466	27124	1033168	43355	110236	0	0	8216	574996	0	0
2024-07-01 17:13:32			0	37244	0	0	0	27579	26180	143590	26972	1033123	43367	110233	0	0	8214	576284	0	0
2024-07-01 17:14:32			0	37257	0	0	0	27568	26170	143614	26915	1033159	43355	110229	0	0	8215	575796	0	0
2024-07-01 17:15:32			0	37262	0	0	0	27571	26170	143502	26795	1033141	43344	110230	0	0	8215	575596	0	0
2024-07-01 17:16:32			0	37274	0	0	0	27579	26170	143434	27178	1033195	43333	110233	0	0	8216	575116	0	0
2024-07-01 17:17:32			0	37304	0	0	0	27584	26170	143442	27213	1033078	43366	110235	0	0	8217	573917	0	0
2024-07-01 17:18:32			0	37283	0	0	0	27579	26170	143466	27112	1033159	43355	110233	0	0	8216	574756	0	0
2024-07-01 17:19:32			0	37262	0	0	0	27581	26170	143606	27053	1033168	43377	110234	0	0	8215	575596	0	0
2024-07-01 17:20:32			0	37228	0	0	0	27581	26170	143706	27176	1033078	43366	110234	0	0	8213	576958	0	0
2024-07-01 17:21:32			0	37229	0	0	0	27574	26160	143842	27249	1033123	43366	110231	0	0	8214	576951	0	0
2024-07-01 17:22:32			0	37207	0	0	0	27579	26170	143794	27053	1033132	43366	110233	0	0	8212	577800	0	0
2024-07-01 17:23:32			0	37228	0	0	0	27574	26160	143778	27265	1033096	43355	110231	0	0	8214	576991	0	0
2024-07-01 17:24:32			0	37178	0	0	0	27579	26170	143770	26772	1033132	43377	110233	0	0	8211	578964	0	0
2024-07-01 17:25:32			0	37166	0	0	0	27581	26170	143898	26816	1033159	43366	110234	0	0	8210	579447	0	0
2024-07-01 17:26:32			0	37122	0	0	0	27566	26160	143938	27007	1033096	43366	110228	0	0	8208	581250	0	0
2024-07-01 17:27:32			0	37098	0	0	0	27571	26160	144190	27092	1033096	43366	110230	0	0	8207	582218	0	0
2024-07-01 17:28:32			0	37050	0	0	0	27566	26160	144354	27112	1033150	43366	110228	0	0	8204	584155	0	0
2024-07-01 17:29:32			0	37040	0	0	0	27555	26160	144402	26953	1033141	43354	110224	0	0	8204	584560	0	0
2024-07-01 17:30:32			0	37080	0	0	0	27574	26160	144238	26981	1033096	43366	110231	0	0	8206	582944	0	0
2024-07-01 17:31:32			0	37129	0	0	0	27561	26160	143966	27154	1033016	43355	110226	0	0	8209	580968	0	0
2024-07-01 17:32:32			0	37220	0	0	0	27571	26160	143666	26804	1033043	43377	110230	0	0	8213	577312	0	0
2024-07-01 17:33:32			0	37290	0	0	0	27566	26160	143462	27131	1033141	43354	110228	0	0	8217	574509	0	0
2024-07-01 17:34:32			0	37363	0	0	0	27563	26150	143139	27088	1033079	43353	110227	0	0	8221	571629	0	0
2024-07-01 17:35:32			0	37413	0	0	0	27550	26150	142971	27154	1033052	43375	110222	0	0	8223	569639	0	0
2024-07-01 17:36:32			0	37420	0	0	0	27553	26150	142959	27052	1033052	43353	110223	0	0	8224	569361	0	0
2024-07-01 17:37:32			0	37409	0	0	0	27545	26160	142987	27175	1033061	43354	110220	0	0	8223	569765	0	0
2024-07-01 17:38:32			0	37431	0	0	0	27553	26150	143031	27064	1033052	43353	110223	0	0	8224	568924	0	0
2024-07-01 17:39:32			0	37403	0	0	0	27555	26150	143003	26778	1033052	43365	110224	0	0	8223	570037	0	0
2024-07-01 17:40:32			0	37436	0	0	0	27558	26150	142983	27022	1033106	43375	110225	0	0	8224	568725	0	0
2024-07-01 17:41:32			0	37440	0	0	0	27558	26150	142859	26680	1033052	43375	110225	0	0	8225	568566	0	0
2024-07-01 17:42:32			0	37473	0	0	0	27571	26140	142839	27060	1033035	43365	110230	0	0	8226	567290	0	0
2024-07-01 17:43:32			0	37474	0	0	0	27561	26160	142827	26739	1033088	43366	110226	0	0	8226	567185	0	0
2024-07-01 17:44:32			0	37472	0	0	0	27558	26160	142755	26863	1033061	43376	110225	0	0	8226	567264	0	0
2024-07-01 17:45:32			0	37486	0	0	0	27566	26150	142759	26772	1033079	43365	110228	0	0	8227	566742	0	0
2024-07-01 17:46:32			0	37491	0	0	0	27561	26150	142743	27147	1033043	43365	110226	0	0	8227	566544	0	0
2024-07-01 17:47:32			0	37492	0	0	0	27568	26150	142783	27102	1033017	43353	110229	0	0	8227	566504	0	0
2024-07-01 17:48:32			0	37491	0	0	0	27568	26160	142803	26785	1033123	43355	110229	0	0	8227	566512	0	0
2024-07-01 17:49:32			0	37486	0	0	0	27555	26160	142843	26738	1033034	43376	110224	0	0	8227	566710	0	0
2024-07-01 17:50:32			0	37496	0	0	0	27558	26150	142683	26814	1033079	43365	110225	0	0	8228	566346	0	0
2024-07-01 17:51:32			0	37560	0	0	0	27563	26160	142491	27204	1033141	43354	110227	0	0	8231	563783	0	0
2024-07-01 17:52:32			0	37586	0	0	0	27568	26160	142331	26934	1033141	43366	110229	0	0	8232	562757	0	0
2024-07-01 17:53:32			0	37637	0	0	0	27555	26160	142219	26932	1033114	43366	110224	0	0	8235	560748	0	0
2024-07-01 17:54:32			0	37674	0	0	0	27545	26170	141991	27187	1033105	43377	110220	0	0	8237	559262	0	0
2024-07-01 17:55:32			0	37724	0	0	0	27566	26160	141895	26594	1033096	43366	110228	0	0	8239	557332	0	0
2024-07-01 17:56:32			0	37777	0	0	0	27568	26160	141695	26656	1033123	43377	110229	0	0	8242	555257	0	0
2024-07-01 17:57:32			0	37826	0	0	0	27584	26160	141479	27007	1033177	43366	110235	0	0	8244	553344	0	0
2024-07-01 17:58:32			0	37867	0	0	0	27597	26170	141339	26880	1033159	43377	110240	0	0	8246	551714	0	0
2024-07-01 17:59:32			0	37860	0	0	0	27594	26180	141343	27038	1033176	43378	110239	0	0	8246	551955	0	0
2024-07-01 18:00:32			0	37830	0	0	0	27581	26170	141451	27263	1033221	43366	110234	0	0	8245	553156	0	0
2024-07-01 18:01:32			0	37781	0	0	0	27558	26180	141607	27116	1033203	43356	110225	0	0	8242	555038	0	0
2024-07-01 18:02:32			0	37728	0	0	0	27545	26170	141903	26927	1033105	43344	110220	0	0	8240	557143	0	0
2024-07-01 18:03:32			0	37701	0	0	0	27535	26160	142063	27022	1032989	43355	110216	0	0	8239	558234	0	0
2024-07-01 18:04:32			0	37707	0	0	0	27561	26170	141951	26967	1033114	43377	110226	0	0	8239	557967	0	0
2024-07-01 18:05:32			0	37711	0	0	0	27584	26170	141963	27066	1033051	43377	110235	0	0	8238	557810	0	0
2024-07-01 18:06:32			0	37746	0	0	0	27586	26160	141847	26932	1033150	43366	110236	0	0	8240	556470	0	0
2024-07-01 18:07:32			0	37739	0	0	0	27589	26160	141895	27225	1033150	43366	110237	0	0	8240	556744	0	0
2024-07-01 18:08:32			0	37709	0	0	0	27584	26170	141967	26970	1033141	43344	110235	0	0	8238	557888	0	0
2024-07-01 18:09:32			0	37666	0	0	0	27581	26160	142091	27036	1033123	43355	110234	0	0	8236	559608	0	0
2024-07-01 18:10:32			0	37638	0	0	0	27574	26170	142143	26842	1033186	43366	110231	0	0	8235	560677	0	0
2024-07-01 18:11:32			0	37657	0	0	0	27584	26160	142143	26876	1033204	43344	110235	0	0	8236	559962	0	0
2024-07-01 18:12:32			0	37663	0	0	0	27579	26160	142223	27059	1033114	43343	110233	0	0	8236	559726	0	0
2024-07-01 18:13:32			0	37663	0	0	0	27574	26170	142115	26911	1033195	43366	110231	0	0	8236	559694	0	0
2024-07-01 18:14:32			0	37669	0	0	0	27579	26170	142127	27196	1033186	43366	110233	0	0	8236	559458	0	0
2024-07-01 18:15:32			0	37674	0	0	0	27589	26170	142103	27026	1033239	43377	110237	0	0	8236	559262	0	0
2024-07-01 18:16:32			0	37652	0	0	0	27581	26180	142151	26824	1033150	43367	110234	0	0	8235	560094	0	0
2024-07-01 18:17:32			0	37619	0	0	0	27589	26170	142223	26960	1033168	43366	110237	0	0	8234	561425	0	0
2024-07-01 18:18:32			0	37587	0	0	0	27602	26170	142419	26890	1033159	43366	110242	0	0	8232	562686	0	0
2024-07-01 18:19:32			0	37536	0	0	0	27581	26170	142551	27137	1033186	43366	110234	0	0	8229	564699	0	0
2024-07-01 18:20:32			0	37486	0	0	0	27568	26190	142743	27000	1033194	43380	110229	0	0	8227	566613	0	0
2024-07-01 18:21:32			0	37455	0	0	0	27566	26180	142899	27147	1033176	43367	110228	0	0	8225	567874	0	0
2024-07-01 18:22:32			0	37374	0	0	0	27550	26170	143151	26708	1033168	43366	110222	0	0	8222	571125	0	0
2024-07-01 18:23:32			0	37311	0	0	0	27542	26160	143358	27027	1033123	43366	110219	0	0	8218	573670	0	0
2024-07-01 18:24:32			0	37258	0	0	0	27571	26170	143538	26994	1033132	43377	110230	0	0	8215	575756	0	0
2024-07-01 18:25:32			0	37229	0	0	0	27610	26170	143722	26883	1033212	43355	110245	0	0	8213	576918	0	0
2024-07-01 18:26:32			0	37201	0	0	0	27625	26170	143882	27256	1033248	43377	110251	0	0	8211	578041	0	0
2024-07-01 18:27:32			0	37217	0	0	0	27633	26170	143874	26778	1033275	43366	110254	0	0	8212	577399	0	0
2024-07-01 18:28:32			0	37277	0	0	0	27625	26180	143554	27095	1033346	43379	110251	0	0	8215	574963	0	0
2024-07-01 18:29:32			0	37355	0	0	0	27599	26190	143143	26880	1033328	43369	110241	0	0	8220	571817	0	0
2024-07-01 18:30:32			0	37423	0	0	0	27576	26200	143115	26795	1033327	43370	110232	0	0	8224	569079	0	0
2024-07-01 18:31:32			0	37437	0	0	0	27581	26180	142967	26896	1033212	43357	110234	0	0	8224	568588	0	0
2024-07-01 18:32:32			0	37435	0	0	0	27592	26180	143019	26802	1033266	43368	110238	0	0	8224	568667	0	0
2024-07-01 18:33:32			0	37399	0	0	0	27579	26190	143019	27024	1033256	43347	110233	0	0	8222	570065	0	0
2024-07-01 18:34:32			0	37393	0	0	0	27568	26190	143199	27008	1033229	43358	110229	0	0	8222	570304	0	0
2024-07-01 18:35:32			0	37348	0	0	0	27576	26180	143263	27079	1033158	43357	110232	0	0	8220	572129	0	0
2024-07-01 18:36:32			0	37353	0	0	0	27581	26180	143355	27206	1033203	43356	110234	0	0	8220	571929	0	0
2024-07-01 18:37:32			0	37283	0	0	0	27589	26180	143510	26767	1033266	43368	110237	0	0	8216	574723	0	0
2024-07-01 18:38:32			0	37212	0	0	0	27574	26180	143674	26861	1033185	43368	110231	0	0	8213	577566	0	0
2024-07-01 18:39:32			0	37177	0	0	0	27586	26180	143902	27156	1033239	43357	110236	0	0	8211	578972	0	0
2024-07-01 18:40:32			0	37100	0	0	0	27581	26180	144122	26972	1033239	43379	110234	0	0	8207	582071	0	0
2024-07-01 18:41:32			0	37055	0	0	0	27599	26170	144242	26823	1033248	43366	110241	0	0	8204	583920	0	0
2024-07-01 18:42:32			0	36993	0	0	0	27615	26170	144470	26986	1033221	43366	110247	0	0	8201	586429	0	0
2024-07-01 18:43:32			0	36951	0	0	0	27623	26190	144690	26731	1033364	43380	110250	0	0	8198	588065	0	0
2024-07-01 18:44:32			0	36906	0	0	0	27594	26190	144862	27059	1033256	43369	110239	0	0	8197	589894	0	0
2024-07-01 18:45:32			0	36864	0	0	0	27602	26190	145006	27142	1033283	43380	110242	0	0	8194	591604	0	0
2024-07-01 18:46:32			0	36853	0	0	0	27612	26190	145114	26932	1033328	43369	110246	0	0	8194	592052	0	0
2024-07-01 18:47:32			0	36855	0	0	0	27618	26180	145110	27170	1033319	43368	110248	0	0	8193	592005	0	0
2024-07-01 18:48:32			0	36819	0	0	0	27610	26190	145178	27185	1033301	43380	110245	0	0	8192	593440	0	0
2024-07-01 18:49:32			0	36790	0	0	0	27594	26200	145342	27185	1033292	43380	110239	0	0	8191	594591	0	0
2024-07-01 18:50:32			0	36767	0	0	0	27599	26190	145402	27029	1033274	43347	110241	0	0	8189	595567	0	0
2024-07-01 18:51:32			0	36770	0	0	0	27586	26190	145414	27128	1033274	43347	110236	0	0	8190	595444	0	0
2024-07-01 18:52:32			0	36755	0	0	0	27605	26190	145566	27244	1033301	43369	110243	0	0	8189	596058	0	0
2024-07-01 18:53:32			0	36737	0	0	0	27607	26190	145642	27119	1033283	43358	110244	0	0	8188	596796	0	0
2024-07-01 18:54:32			0	36715	0	0	0	27599	26190	145646	27039	1033328	43369	110241	0	0	8187	597698	0	0
2024-07-01 18:55:32			0	36670	0	0	0	27581	26190	145730	27097	1033256	43369	110234	0	0	8184	599547	0	0
2024-07-01 18:56:32			0	36643	0	0	0	27576	26180	145862	27102	1033239	43368	110232	0	0	8183	600693	0	0
2024-07-01 18:57:32			0	36616	0	0	0	27581	26180	145990	26861	1033212	43357	110234	0	0	8182	601805	0	0
2024-07-01 18:58:32			0	36597	0	0	0	27563	26180	146153	26854	1033158	43379	110227	0	0	8181	602589	0	0
2024-07-01 18:59:32			0	36579	0	0	0	27576	26170	146169	27078	1033248	43366	110232	0	0	8180	603367	0	0
2024-07-01 19:00:32			0	36579	0	0	0	27568	26170	146197	26798	1033195	43366	110229	0	0	8180	603367	0	0
2024-07-01 19:01:32			0	36563	0	0	0	27589	26180	146313	27225	1033212	43379	110237	0	0	8179	603994	0	0
2024-07-01 19:02:32			0	36543	0	0	0	27594	26180	146317	27180	1033239	43368	110239	0	0	8178	604821	0	0
2024-07-01 19:03:32			0	36530	0	0	0	27602	26180	146441	27017	1033239	43357	110242	0	0	8177	605359	0	0
2024-07-01 19:04:32			0	36498	0	0	0	27592	26180	146629	27001	1033257	43378	110238	0	0	8175	606685	0	0
2024-07-01 19:05:32			0	36479	0	0	0	27558	26170	146637	27277	1033212	43366	110225	0	0	8175	607508	0	0
2024-07-01 19:06:32			0	36489	0	0	0	27550	26170	146645	26993	1033186	43366	110222	0	0	8175	607093	0	0
2024-07-01 19:07:32			0	36470	0	0	0	27542	26170	146645	27022	1033132	43377	110219	0	0	8175	607881	0	0
2024-07-01 19:08:32			0	36487	0	0	0	27540	26170	146609	27064	1033168	43366	110218	0	0	8176	607176	0	0
2024-07-01 19:09:32			0	36478	0	0	0	27550	26160	146613	27069	1033114	43366	110222	0	0	8175	607584	0	0
2024-07-01 19:10:32			0	36478	0	0	0	27524	26150	146661	27360	1033106	43365	110212	0	0	8175	607618	0	0
2024-07-01 19:11:32			0	36464	0	0	0	27527	26150	146737	27293	1033052	43353	110213	0	0	8174	608200	0	0
2024-07-01 19:12:32			0	36434	0	0	0	27535	26140	146781	27166	1033053	43352	110216	0	0	8173	609482	0	0
2024-07-01 19:13:32			0	36372	0	0	0	27545	26140	147061	27244	1032981	43365	110220	0	0	8169	612065	0	0
2024-07-01 19:14:32			0	36327	0	0	0	27545	26160	147281	27078	1033034	43376	110220	0	0	8167	613874	0	0
2024-07-01 19:15:32			0	36293	0	0	0	27535	26140	147481	26811	1033061	43365	110216	0	0	8165	615367	0	0
2024-07-01 19:16:32			0	36257	0	0	0	27535	26150	147557	27074	1033070	43375	110216	0	0	8163	616841	0	0
2024-07-01 19:17:32			0	36219	0	0	0	27535	26140	147645	27170	1033035	43365	110216	0	0	8161	618472	0	0
2024-07-01 19:18:32			0	36229	0	0	0	27524	26130	147637	27003	1032990	43363	110212	0	0	8162	618087	0	0
2024-07-01 19:19:32			0	36208	0	0	0	27522	26140	147693	26991	1033026	43352	110211	0	0	8161	618934	0	0
2024-07-01 19:20:32			0	36189	0	0	0	27519	26140	147705	26996	1032945	43375	110210	0	0	8160	619734	0	0
2024-07-01 19:21:32			0	36216	0	0	0	27509	26130	147797	27284	1032990	43374	110206	0	0	8162	618633	0	0
2024-07-01 19:22:32			0	36198	0	0	0	27509	26110	147765	26880	1032902	43361	110206	0	0	8161	619461	0	0
2024-07-01 19:23:32			0	36204	0	0	0	27509	26120	147849	27332	1032964	43362	110206	0	0	8161	619173	0	0
2024-07-01 19:24:32			0	36166	0	0	0	27516	26120	147909	26765	1033000	43363	110209	0	0	8159	620773	0	0
2024-07-01 19:25:32			0	36161	0	0	0	27516	26120	148029	26949	1032964	43362	110209	0	0	8159	620984	0	0
2024-07-01 19:26:32			0	36126	0	0	0	27514	26120	148169	27005	1032857	43383	110208	0	0	8157	622460	0	0
2024-07-01 19:27:32			0	36112	0	0	0	27524	26120	148093	27211	1032937	43362	110212	0	0	8156	623051	0	0
2024-07-01 19:28:32			0	36082	0	0	0	27511	26120	148105	27159	1032937	43362	110207	0	0	8155	624320	0	0
2024-07-01 19:29:32			0	36084	0	0	0	27503	26120	148269	27109	1032937	43373	110204	0	0	8155	624235	0	0
2024-07-01 19:30:32			0	36082	0	0	0	27501	26110	148253	27230	1032902	43372	110203	0	0	8155	624355	0	0
2024-07-01 19:31:32			0	36060	0	0	0	27509	26110	148333	27255	1032902	43361	110206	0	0	8153	625287	0	0
2024-07-01 19:32:32			0	36057	0	0	0	27501	26110	148381	27336	1032866	43360	110203	0	0	8153	625414	0	0
2024-07-01 19:33:32			0	36058	0	0	0	27490	26110	148409	27393	1032840	43371	110199	0	0	8154	625371	0	0
2024-07-01 19:34:32			0	36035	0	0	0	27498	26110	148485	27156	1032840	43360	110202	0	0	8152	626346	0	0
2024-07-01 19:35:32			0	36026	0	0	0	27496	26090	148541	27192	1032840	43348	110201	0	0	8152	626800	0	0
2024-07-01 19:36:32			0	35998	0	0	0	27490	26100	148617	27452	1032795	43360	110199	0	0	8150	627953	0	0
2024-07-01 19:37:32			0	36003	0	0	0	27490	26100	148605	27346	1032831	43349	110199	0	0	8151	627740	0	0
2024-07-01 19:38:32			0	35988	0	0	0	27485	26090	148545	27388	1032813	43359	110197	0	0	8150	628413	0	0
2024-07-01 19:39:32			0	35986	0	0	0	27483	26090	148713	27303	1032813	43359	110196	0	0	8150	628498	0	0
2024-07-01 19:40:32			0	35976	0	0	0	27483	26090	148693	27033	1032805	43358	110196	0	0	8149	628924	0	0
2024-07-01 19:41:32			0	35971	0	0	0	27483	26080	148689	26981	1032716	43358	110196	0	0	8149	629172	0	0
2024-07-01 19:42:32			0	35972	0	0	0	27464	26080	148677	27268	1032742	43358	110189	0	0	8149	629130	0	0
2024-07-01 19:43:32			0	35968	0	0	0	27472	26080	148821	27384	1032716	43369	110192	0	0	8149	629300	0	0
2024-07-01 19:44:32			0	35968	0	0	0	27472	26080	148713	27249	1032680	43358	110192	0	0	8149	629300	0	0
2024-07-01 19:45:32			0	35962	0	0	0	27464	26080	148853	27203	1032761	43358	110189	0	0	8149	629555	0	0
2024-07-01 19:46:32			0	35947	0	0	0	27467	26070	148849	27128	1032671	43379	110190	0	0	8148	630230	0	0
2024-07-01 19:47:32			0	35942	0	0	0	27464	26060	148909	27114	1032681	43368	110189	0	0	8148	630479	0	0
2024-07-01 19:48:32			0	35949	0	0	0	27464	26060	148957	27157	1032681	43356	110189	0	0	8148	630181	0	0
2024-07-01 19:49:32			0	35943	0	0	0	27467	26050	148821	27407	1032672	43368	110190	0	0	8148	630472	0	0
2024-07-01 19:50:32			0	35939	0	0	0	27464	26070	148901	27175	1032645	43357	110189	0	0	8148	630571	0	0
2024-07-01 19:51:32			0	35936	0	0	0	27462	26060	148933	27038	1032627	43368	110188	0	0	8147	630734	0	0
2024-07-01 19:52:32			0	35940	0	0	0	27464	26060	148925	27161	1032654	43356	110189	0	0	8148	630564	0	0
2024-07-01 19:53:32			0	35962	0	0	0	27462	26050	148869	27118	1032637	43355	110188	0	0	8149	629663	0	0
2024-07-01 19:54:32			0	35970	0	0	0	27457	26050	148741	27060	1032645	43368	110186	0	0	8149	629322	0	0
2024-07-01 19:55:32			0	35982	0	0	0	27454	26060	148789	27218	1032681	43356	110185	0	0	8150	628776	0	0
2024-07-01 19:56:32			0	36012	0	0	0	27451	26050	148645	27197	1032618	43356	110184	0	0	8152	627537	0	0
2024-07-01 19:57:32			0	36063	0	0	0	27459	26040	148501	27197	1032601	43354	110187	0	0	8154	625409	0	0
2024-07-01 19:58:32			0	36075	0	0	0	27446	26040	148453	27033	1032574	43354	110182	0	0	8155	624901	0	0
2024-07-01 19:59:32			0	36120	0	0	0	27444	26040	148257	27351	1032547	43354	110181	0	0	8157	622998	0	0
2024-07-01 20:00:32			0	36148	0	0	0	27428	26040	148125	27353	1032592	43353	110175	0	0	8159	621816	0	0
2024-07-01 20:01:32			0	36175	0	0	0	27431	26030	147981	27228	1032556	43365	110176	0	0	8160	620712	0	0
2024-07-01 20:02:32			0	36199	0	0	0	27425	26040	147849	27178	1032538	43353	110174	0	0	8162	619666	0	0
2024-07-01 20:03:32			0	36231	0	0	0	27431	26040	147745	27338	1032592	43365	110176	0	0	8163	618320	0	0
2024-07-01 20:04:32			0	36245	0	0	0	27433	26030	147741	27130	1032503	43375	110177	0	0	8164	617767	0	0
2024-07-01 20:05:32			0	36286	0	0	0	27425	26030	147641	26977	1032503	43365	110174	0	0	8166	616047	0	0
2024-07-01 20:06:32			0	36279	0	0	0	27415	26030	147561	27223	1032494	43342	110170	0	0	8166	616340	0	0
2024-07-01 20:07:32			0	36294	0	0	0	27407	26030	147537	27208	1032494	43353	110167	0	0	8167	615712	0	0
2024-07-01 20:08:32			0	36302	0	0	0	27412	26020	147609	27585	1032405	43364	110169	0	0	8167	615411	0	0
2024-07-01 20:09:32			0	36323	0	0	0	27402	26010	147449	27241	1032352	43352	110165	0	0	8169	614567	0	0
2024-07-01 20:10:32			0	36313	0	0	0	27397	26010	147561	27081	1032406	43352	110163	0	0	8168	614986	0	0
2024-07-01 20:11:32			0	36316	0	0	0	27397	26000	147517	27121	1032388	43361	110163	0	0	8168	614895	0	0
2024-07-01 20:12:32			0	36303	0	0	0	27405	26000	147469	27260	1032370	43362	110166	0	0	8167	615440	0	0
2024-07-01 20:13:32			0	36301	0	0	0	27397	26000	147701	27202	1032388	43361	110163	0	0	8167	615524	0	0
2024-07-01 20:14:32			0	36284	0	0	0	27397	26000	147585	27306	1032397	43362	110163	0	0	8167	616236	0	0
2024-07-01 20:15:32			0	36286	0	0	0	27402	25990	147657	27078	1032371	43361	110165	0	0	8167	616187	0	0
2024-07-01 20:16:32			0	36284	0	0	0	27389	25990	147633	27092	1032406	43372	110160	0	0	8167	616271	0	0
2024-07-01 20:17:32			0	36289	0	0	0	27389	25990	147657	27265	1032380	43350	110160	0	0	8167	616062	0	0
2024-07-01 20:18:32			0	36273	0	0	0	27394	25980	147609	26967	1032309	43349	110162	0	0	8166	616768	0	0
2024-07-01 20:19:32			0	36286	0	0	0	27379	25990	147533	27180	1032326	43350	110156	0	0	8167	616187	0	0
2024-07-01 20:20:32			0	36299	0	0	0	27371	25980	147545	27272	1032300	43359	110153	0	0	8168	615678	0	0
2024-07-01 20:21:32			0	36324	0	0	0	27363	25980	147517	27197	1032282	43349	110150	0	0	8169	614630	0	0
2024-07-01 20:22:32			0	36354	0	0	0	27371	25970	147397	27194	1032264	43348	110153	0	0	8171	613411	0	0
2024-07-01 20:23:32			0	36377	0	0	0	27361	25970	147257	27286	1032264	43359	110149	0	0	8172	612450	0	0
2024-07-01 20:24:32			0	36429	0	0	0	27361	25970	147025	27312	1032211	43348	110149	0	0	8175	610281	0	0
2024-07-01 20:25:32			0	36459	0	0	0	27361	25960	146997	27253	1032220	43335	110149	0	0	8176	609067	0	0
2024-07-01 20:26:32			0	36515	0	0	0	27358	25960	146777	27208	1032158	43357	110148	0	0	8179	606741	0	0
2024-07-01 20:27:32			0	36560	0	0	0	27361	25960	146637	27488	1032247	43347	110149	0	0	8181	604876	0	0
2024-07-01 20:28:32			0	36597	0	0	0	27353	25960	146489	27161	1032158	43346	110146	0	0	8184	603346	0	0
2024-07-01 20:29:32			0	36642	0	0	0	27358	25950	146238	26897	1032203	43356	110148	0	0	8186	601523	0	0
2024-07-01 20:30:32			0	36669	0	0	0	27355	25950	146126	27332	1032149	43356	110147	0	0	8187	600410	0	0
2024-07-01 20:31:32			0	36714	0	0	0	27358	25950	146010	27118	1032113	43345	110148	0	0	8190	598558	0	0
2024-07-01 20:32:32			0	36728	0	0	0	27345	25950	145894	27033	1032149	43356	110143	0	0	8190	597983	0	0
2024-07-01 20:33:32			0	36743	0	0	0	27345	25950	145866	26852	1032149	43345	110143	0	0	8191	597367	0	0
2024-07-01 20:34:32			0	36760	0	0	0	27337	25940	145870	27079	1032078	43345	110140	0	0	8192	596704	0	0
2024-07-01 20:35:32			0	36751	0	0	0	27340	25940	145938	27216	1032105	43345	110141	0	0	8192	597073	0	0
2024-07-01 20:36:32			0	36737	0	0	0	27342	25930	145954	27270	1032141	43354	110142	0	0	8191	597681	0	0
2024-07-01 20:37:32			0	36731	0	0	0	27345	25930	146010	27229	1032141	43343	110143	0	0	8191	597928	0	0
2024-07-01 20:38:32			0	36717	0	0	0	27337	25940	146066	27093	1032069	43344	110140	0	0	8190	598469	0	0
2024-07-01 20:39:32			0	36694	0	0	0	27345	25940	146190	26833	1032096	43344	110143	0	0	8189	599415	0	0
2024-07-01 20:40:32			0	36658	0	0	0	27340	25940	146330	27000	1032069	43355	110141	0	0	8187	600897	0	0
2024-07-01 20:41:32			0	36625	0	0	0	27337	25930	146318	27196	1032034	43343	110140	0	0	8185	602292	0	0
2024-07-01 20:42:32			0	36619	0	0	0	27340	25930	146454	27118	1032087	43354	110141	0	0	8185	602540	0	0
2024-07-01 20:43:32			0	36561	0	0	0	27337	25930	146633	27199	1031998	43354	110140	0	0	8182	604938	0	0
2024-07-01 20:44:32			0	36542	0	0	0	27327	25930	146569	27150	1032052	43366	110136	0	0	8181	605725	0	0
2024-07-01 20:45:32			0	36510	0	0	0	27332	25920	146805	26949	1032070	43343	110138	0	0	8179	607087	0	0
2024-07-01 20:46:32			0	36496	0	0	0	27324	25930	146737	27176	1032025	43354	110135	0	0	8179	607634	0	0
2024-07-01 20:47:32			0	36470	0	0	0	27322	25920	146857	27237	1032034	43342	110134	0	0	8177	608749	0	0
2024-07-01 20:48:32			0	36456	0	0	0	27327	25920	147085	27251	1031963	43343	110136	0	0	8176	609331	0	0
2024-07-01 20:49:32			0	36433	0	0	0	27324	25920	147029	26989	1031981	43342	110135	0	0	8175	610289	0	0
2024-07-01 20:50:32			0	36411	0	0	0	27303	25920	147185	27327	1031927	43342	110127	0	0	8174	611205	0	0
2024-07-01 20:51:32			0	36410	0	0	0	27311	25910	147133	27088	1031936	43341	110130	0	0	8174	611282	0	0
2024-07-01 20:52:32			0	36417	0	0	0	27303	25900	147209	26994	1031874	43363	110127	0	0	8175	611025	0	0
2024-07-01 20:53:32			0	36401	0	0	0	27316	25910	147217	27281	1031990	43341	110132	0	0	8174	611657	0	0
2024-07-01 20:54:32			0	36393	0	0	0	27303	25910	147145	27244	1031936	43352	110127	0	0	8173	611991	0	0
2024-07-01 20:55:32			0	36410	0	0	0	27298	25910	147149	27234	1031883	43352	110125	0	0	8174	611282	0	0
2024-07-01 20:56:32			0	36395	0	0	0	27298	25900	147157	27196	1031901	43340	110125	0	0	8174	611943	0	0
2024-07-01 20:57:32			0	36409	0	0	0	27301	25900	147141	27052	1031892	43340	110126	0	0	8174	611359	0	0
2024-07-01 20:58:32			0	36421	0	0	0	27288	25890	147073	27358	1031857	43339	110121	0	0	8175	610893	0	0
2024-07-01 20:59:32			0	36444	0	0	0	27298	25890	147185	27185	1031848	43339	110125	0	0	8176	609935	0	0
2024-07-01 21:00:32			0	36451	0	0	0	27283	25890	147021	27196	1031857	43351	110119	0	0	8177	609643	0	0
2024-07-01 21:01:32			0	36460	0	0	0	27288	25890	147097	27241	1031883	43339	110121	0	0	8177	609269	0	0
2024-07-01 21:02:32			0	36476	0	0	0	27280	25890	147013	27381	1031875	43351	110118	0	0	8178	608603	0	0
2024-07-01 21:03:32			0	36497	0	0	0	27285	25890	147013	27440	1031794	43351	110120	0	0	8179	607730	0	0
2024-07-01 21:04:32			0	36487	0	0	0	27293	25880	146921	27476	1031812	43338	110123	0	0	8178	608181	0	0
2024-07-01 21:05:32			0	36510	0	0	0	27280	25890	146817	27223	1031857	43351	110118	0	0	8180	607191	0	0
2024-07-01 21:06:32			0	36530	0	0	0	27288	25890	146761	27348	1031821	43351	110121	0	0	8181	606361	0	0
2024-07-01 21:07:32			0	36540	0	0	0	27267	25890	146737	27294	1031794	43339	110113	0	0	8182	605946	0	0
2024-07-01 21:08:32			0	36554	0	0	0	27264	25870	146569	27124	1031795	43337	110112	0	0	8182	605435	0	0
2024-07-01 21:09:32			0	36558	0	0	0	27257	25880	146517	27241	1031723	43338	110109	0	0	8183	605235	0	0
2024-07-01 21:10:32			0	36608	0	0	0	27262	25870	146486	27126	1031759	43326	110111	0	0	8185	603201	0	0
2024-07-01 21:11:32			0	36609	0	0	0	27254	25870	146402	27396	1031759	43348	110108	0	0	8185	603159	0	0
2024-07-01 21:12:32			0	36639	0	0	0	27251	25870	146294	26939	1031706	43336	110107	0	0	8187	601921	0	0
2024-07-01 21:13:32			0	36659	0	0	0	27259	25850	146202	27183	1031680	43347	110110	0	0	8188	601164	0	0
2024-07-01 21:14:32			0	36660	0	0	0	27257	25870	146266	27144	1031733	43348	110109	0	0	8188	601054	0	0
2024-07-01 21:15:32			0	36676	0	0	0	27259	25850	146194	27062	1031626	43347	110110	0	0	8189	600463	0	0
2024-07-01 21:16:32			0	36697	0	0	0	27244	25860	146062	27228	1031635	43336	110104	0	0	8190	599565	0	0
2024-07-01 21:17:32			0	36697	0	0	0	27251	25850	146050	27138	1031644	43346	110107	0	0	8190	599599	0	0
2024-07-01 21:18:32			0	36723	0	0	0	27241	25850	145994	27173	1031680	43347	110103	0	0	8192	598529	0	0
2024-07-01 21:19:32			0	36753	0	0	0	27246	25850	145894	27105	1031572	43347	110105	0	0	8193	597297	0	0
2024-07-01 21:20:32			0	36751	0	0	0	27231	25840	145890	27550	1031582	43346	110099	0	0	8193	597413	0	0
2024-07-01 21:21:32			0	36783	0	0	0	27218	25840	145914	27104	1031609	43324	110094	0	0	8195	596100	0	0
2024-07-01 21:22:32			0	36803	0	0	0	27223	25850	145678	26916	1031564	43346	110096	0	0	8196	595247	0	0
2024-07-01 21:23:32			0	36807	0	0	0	27212	25830	145730	27003	1031511	43345	110092	0	0	8196	595151	0	0
2024-07-01 21:24:32			0	36807	0	0	0	27207	25840	145674	27159	1031520	43345	110090	0	0	8196	595117	0	0
2024-07-01 21:25:32			0	36811	0	0	0	27192	25820	145734	26987	1031493	43344	110084	0	0	8197	595021	0	0
2024-07-01 21:26:32			0	36780	0	0	0	27181	25820	145810	26998	1031404	43333	110080	0	0	8195	596291	0	0
2024-07-01 21:27:32			0	36708	0	0	0	27179	25810	146006	27343	1031360	43342	110079	0	0	8192	599283	0	0
2024-07-01 21:28:32			0	36616	0	0	0	27176	25810	146410	27000	1031342	43343	110078	0	0	8187	603076	0	0
2024-07-01 21:29:32			0	36557	0	0	0	27163	25800	146685	27039	1031289	43331	110073	0	0	8184	605552	0	0
2024-07-01 21:30:32			0	36539	0	0	0	27166	25800	146705	27325	1031316	43320	110074	0	0	8183	606298	0	0
2024-07-01 21:31:32			0	36542	0	0	0	27155	25790	146625	27000	1031334	43340	110070	0	0	8183	606209	0	0
2024-07-01 21:32:32			0	36547	0	0	0	27140	25780	146653	27255	1031281	43318	110064	0	0	8184	606036	0	0
2024-07-01 21:33:32			0	36542	0	0	0	27119	25760	146657	27345	1031156	43338	110056	0	0	8184	606312	0	0
2024-07-01 21:34:32			0	36586	0	0	0	27114	25760	146582	27324	1031129	43328	110054	0	0	8186	604489	0	0
2024-07-01 21:35:32			0	36594	0	0	0	27103	25750	146545	27258	1031139	43327	110050	0	0	8187	604192	0	0
2024-07-01 21:36:32			0	36643	0	0	0	27103	25740	146338	27230	1031041	43315	110050	0	0	8189	602201	0	0
2024-07-01 21:37:32			0	36639	0	0	0	27098	25740	146298	27019	1030987	43337	110048	0	0	8189	602366	0	0
2024-07-01 21:38:32			0	36616	0	0	0	27093	25740	146486	26781	1031041	43326	110046	0	0	8188	603317	0	0
2024-07-01 21:39:32			0	36586	0	0	0	27106	25720	146582	27291	1030926	43334	110051	0	0	8186	604627	0	0
2024-07-01 21:40:32			0	36557	0	0	0	27109	25720	146769	27263	1031006	43323	110052	0	0	8185	605828	0	0
2024-07-01 21:41:32			0	36530	0	0	0	27093	25720	146933	27150	1030944	43323	110046	0	0	8183	606948	0	0
2024-07-01 21:42:32			0	36481	0	0	0	27101	25720	147049	27417	1030979	43323	110049	0	0	8181	608985	0	0
2024-07-01 21:43:32			0	36455	0	0	0	27096	25710	147165	27263	1030962	43334	110047	0	0	8179	610102	0	0
2024-07-01 21:44:32			0	36412	0	0	0	27096	25720	147233	27142	1030953	43334	110047	0	0	8177	611861	0	0
2024-07-01 21:45:32			0	36349	0	0	0	27085	25700	147449	27244	1030945	43333	110043	0	0	8174	614564	0	0
2024-07-01 21:46:32			0	36327	0	0	0	27083	25700	147553	27383	1030891	43322	110042	0	0	8173	615486	0	0
2024-07-01 21:47:32			0	36318	0	0	0	27072	25700	147633	27286	1030882	43333	110038	0	0	8173	615863	0	0
2024-07-01 21:48:32			0	36303	0	0	0	27085	25700	147793	27033	1030864	43310	110043	0	0	8172	616493	0	0
2024-07-01 21:49:32			0	36279	0	0	0	27083	25690	147801	27263	1030874	43333	110042	0	0	8170	617536	0	0
2024-07-01 21:50:32			0	36307	0	0	0	27083	25690	147813	27400	1030838	43342	110042	0	0	8172	616360	0	0
2024-07-01 21:51:32			0	36307	0	0	0	27088	25690	147817	27417	1030820	43343	110044	0	0	8172	616360	0	0
2024-07-01 21:52:32			0	36317	0	0	0	27088	25700	147685	27289	1030856	43322	110044	0	0	8172	615905	0	0
2024-07-01 21:53:32			0	36326	0	0	0	27083	25690	147713	27481	1030892	43342	110042	0	0	8173	615563	0	0
2024-07-01 21:54:32			0	36336	0	0	0	27080	25690	147661	27433	1030838	43332	110041	0	0	8173	615144	0	0
2024-07-01 21:55:32			0	36368	0	0	0	27090	25670	147653	27248	1030803	43330	110045	0	0	8175	613874	0	0
2024-07-01 21:56:32			0	36355	0	0	0	27093	25690	147661	27055	1030838	43321	110046	0	0	8174	614348	0	0
2024-07-01 21:57:32			0	36389	0	0	0	27088	25670	147561	27234	1030839	43330	110044	0	0	8176	612996	0	0
2024-07-01 21:58:32			0	36359	0	0	0	27096	25670	147561	27218	1030892	43330	110047	0	0	8174	614251	0	0
2024-07-01 21:59:32			0	36379	0	0	0	27088	25670	147461	26913	1030785	43319	110044	0	0	8175	613414	0	0
2024-07-01 22:00:32			0	36378	0	0	0	27085	25670	147589	27116	1030839	43330	110043	0	0	8175	613456	0	0
2024-07-01 22:01:32			0	36377	0	0	0	27093	25690	147585	27126	1030892	43332	110046	0	0	8175	613428	0	0
2024-07-01 22:02:32			0	36397	0	0	0	27090	25680	147405	27057	1030847	43308	110045	0	0	8176	612626	0	0
2024-07-01 22:03:32			0	36413	0	0	0	27088	25670	147373	27275	1030812	43330	110044	0	0	8177	611993	0	0
2024-07-01 22:04:32			0	36451	0	0	0	27093	25680	147305	27126	1030847	43341	110046	0	0	8179	610373	0	0
2024-07-01 22:05:32			0	36461	0	0	0	27093	25680	147169	27360	1030794	43341	110046	0	0	8180	609956	0	0
2024-07-01 22:06:32			0	36470	0	0	0	27096	25680	147113	27204	1030874	43353	110047	0	0	8180	609581	0	0
2024-07-01 22:07:32			0	36524	0	0	0	27098	25670	147001	27067	1030812	43330	110048	0	0	8183	607370	0	0
2024-07-01 22:08:32			0	36552	0	0	0	27098	25680	146841	27133	1030883	43341	110048	0	0	8184	606174	0	0
2024-07-01 22:09:32			0	36584	0	0	0	27088	25670	146761	27005	1030919	43340	110044	0	0	8186	604882	0	0
2024-07-01 22:10:32			0	36611	0	0	0	27106	25680	146494	26942	1030928	43320	110051	0	0	8187	603730	0	0
2024-07-01 22:11:32			0	36660	0	0	0	27101	25690	146370	27003	1030892	43332	110049	0	0	8190	601671	0	0
2024-07-01 22:12:32			0	36703	0	0	0	27103	25690	146246	27067	1030954	43333	110050	0	0	8192	599898	0	0
2024-07-01 22:13:32			0	36727	0	0	0	27103	25680	146118	27064	1030954	43331	110050	0	0	8193	598944	0	0
2024-07-01 22:14:32			0	36780	0	0	0	27106	25690	145846	27130	1030874	43343	110051	0	0	8196	596733	0	0
2024-07-01 22:15:32			0	36816	0	0	0	27106	25680	145858	27291	1030883	43331	110051	0	0	8198	595291	0	0
2024-07-01 22:16:32			0	36856	0	0	0	27103	25690	145734	27072	1030865	43332	110050	0	0	8200	593620	0	0
2024-07-01 22:17:32			0	36866	0	0	0	27098	25690	145506	27204	1030900	43343	110048	0	0	8201	593211	0	0
2024-07-01 22:18:32			0	36888	0	0	0	27090	25700	145538	27012	1030909	43333	110045	0	0	8202	592278	0	0
2024-07-01 22:19:32			0	36883	0	0	0	27093	25690	145490	27229	1030838	43332	110046	0	0	8202	592516	0	0
2024-07-01 22:20:32			0	36889	0	0	0	27088	25680	145522	27142	1030856	43331	110044	0	0	8202	592305	0	0
2024-07-01 22:21:32			0	36884	0	0	0	27093	25690	145454	27059	1030865	43342	110046	0	0	8202	592475	0	0
2024-07-01 22:22:32			0	36908	0	0	0	27096	25690	145398	26965	1030874	43333	110047	0	0	8203	591496	0	0
2024-07-01 22:23:32			0	36889	0	0	0	27101	25690	145422	27007	1030892	43332	110049	0	0	8202	592271	0	0
2024-07-01 22:24:32			0	36915	0	0	0	27098	25690	145482	27279	1030927	43355	110048	0	0	8203	591210	0	0
2024-07-01 22:25:32			0	36891	0	0	0	27101	25690	145518	27138	1030892	43332	110049	0	0	8202	592190	0	0
2024-07-01 22:26:32			0	36909	0	0	0	27101	25690	145366	27521	1030892	43321	110049	0	0	8203	591455	0	0
2024-07-01 22:27:32			0	36913	0	0	0	27103	25690	145414	27152	1030945	43342	110050	0	0	8203	591292	0	0
2024-07-01 22:28:32			0	36925	0	0	0	27101	25680	145454	26908	1030928	43331	110049	0	0	8204	590836	0	0
2024-07-01 22:29:32			0	36914	0	0	0	27103	25700	145446	27039	1030909	43355	110050	0	0	8203	591217	0	0
2024-07-01 22:30:32			0	36909	0	0	0	27103	25690	145418	27235	1030945	43342	110050	0	0	8203	591455	0	0
2024-07-01 22:31:32			0	36934	0	0	0	27114	25690	145366	27229	1030865	43332	110054	0	0	8204	590436	0	0
2024-07-01 22:32:32			0	36933	0	0	0	27101	25700	145302	27355	1030829	43343	110049	0	0	8204	590443	0	0
2024-07-01 22:33:32			0	36934	0	0	0	27109	25690	145294	27265	1030900	43333	110052	0	0	8204	590436	0	0
2024-07-01 22:34:32			0	36958	0	0	0	27106	25700	145274	27391	1030909	43333	110051	0	0	8205	589425	0	0
2024-07-01 22:35:32			0	36956	0	0	0	27103	25690	145230	27182	1030954	43355	110050	0	0	8205	589540	0	0
2024-07-01 22:36:32			0	36956	0	0	0	27103	25680	145254	27255	1030874	43320	110050	0	0	8205	589573	0	0
2024-07-01 22:37:32			0	36970	0	0	0	27090	25690	145310	27289	1030847	43333	110045	0	0	8206	588970	0	0
2024-07-01 22:38:32			0	36979	0	0	0	27085	25690	145110	27119	1030892	43332	110043	0	0	8207	588604	0	0
2024-07-01 22:39:32			0	36979	0	0	0	27080	25680	145214	27402	1030936	43320	110041	0	0	8207	588638	0	0
2024-07-01 22:40:32			0	36981	0	0	0	27077	25680	145114	27208	1030829	43320	110040	0	0	8207	588557	0	0
2024-07-01 22:41:32			0	36979	0	0	0	27077	25680	145114	27015	1030820	43331	110040	0	0	8207	588638	0	0
2024-07-01 22:42:32			0	36990	0	0	0	27077	25670	145142	27090	1030865	43319	110040	0	0	8207	588224	0	0
2024-07-01 22:43:32			0	36977	0	0	0	27077	25670	145126	27076	1030785	43340	110040	0	0	8207	588753	0	0
2024-07-01 22:44:32			0	36993	0	0	0	27083	25670	145134	27041	1030812	43330	110042	0	0	8208	588102	0	0
2024-07-01 22:45:32			0	36980	0	0	0	27072	25670	145050	26821	1030812	43319	110038	0	0	8207	588631	0	0
2024-07-01 22:46:32			0	36995	0	0	0	27075	25670	145158	27098	1030785	43319	110039	0	0	8208	588021	0	0
2024-07-01 22:47:32			0	36982	0	0	0	27059	25670	145098	27138	1030803	43319	110033	0	0	8207	588549	0	0
2024-07-01 22:48:32			0	36991	0	0	0	27049	25660	145134	27166	1030740	43329	110029	0	0	8208	588217	0	0
2024-07-01 22:49:32			0	36975	0	0	0	27057	25670	145138	27196	1030749	43340	110032	0	0	8207	588834	0	0
2024-07-01 22:50:32			0	36986	0	0	0	27067	25660	145138	27196	1030740	43340	110036	0	0	8207	588420	0	0
2024-07-01 22:51:32			0	36995	0	0	0	27059	25660	145134	27034	1030785	43339	110033	0	0	8208	588055	0	0
2024-07-01 22:52:32			0	36983	0	0	0	27064	25660	145166	27230	1030767	43329	110035	0	0	8207	588542	0	0
2024-07-01 22:53:32			0	36991	0	0	0	27067	25660	145146	26753	1030732	43339	110036	0	0	8208	588217	0	0
2024-07-01 22:54:32			0	36971	0	0	0	27062	25660	145158	27003	1030740	43318	110034	0	0	8207	589030	0	0
2024-07-01 22:55:32			0	36985	0	0	0	27062	25650	145138	27246	1030777	43339	110034	0	0	8207	588494	0	0
2024-07-01 22:56:32			0	36967	0	0	0	27067	25650	145246	26896	1030750	43339	110036	0	0	8206	589227	0	0
2024-07-01 22:57:32			0	36972	0	0	0	27057	25660	145150	27057	1030732	43339	110032	0	0	8207	588990	0	0
2024-07-01 22:58:32			0	36964	0	0	0	27070	25650	145170	26998	1030777	43328	110037	0	0	8206	589349	0	0
2024-07-01 22:59:32			0	36959	0	0	0	27075	25660	145230	26974	1030714	43340	110039	0	0	8206	589519	0	0
2024-07-01 23:00:32			0	36963	0	0	0	27075	25660	145214	27045	1030785	43317	110039	0	0	8206	589356	0	0
2024-07-01 23:01:32			0	36969	0	0	0	27075	25660	145174	26987	1030794	43340	110039	0	0	8206	589112	0	0
2024-07-01 23:02:32			0	36954	0	0	0	27083	25680	145158	27085	1030820	43331	110042	0	0	8206	589655	0	0
2024-07-01 23:03:32			0	36966	0	0	0	27080	25670	145142	27104	1030776	43340	110041	0	0	8206	589200	0	0
2024-07-01 23:04:32			0	36962	0	0	0	27080	25670	145234	27001	1030749	43340	110041	0	0	8206	589363	0	0
2024-07-01 23:05:32			0	36953	0	0	0	27077	25660	145230	27199	1030794	43340	110040	0	0	8205	589763	0	0
2024-07-01 23:06:32			0	36961	0	0	0	27077	25660	145214	26961	1030794	43329	110040	0	0	8206	589437	0	0
2024-07-01 23:07:32			0	36963	0	0	0	27083	25660	145278	26942	1030848	43340	110042	0	0	8206	589356	0	0
2024-07-01 23:08:32			0	36983	0	0	0	27085	25660	145238	27066	1030848	43340	110043	0	0	8207	588542	0	0
2024-07-01 23:09:32			0	36938	0	0	0	27085	25660	145298	26845	1030785	43339	110043	0	0	8205	590374	0	0
2024-07-01 23:10:32			0	36940	0	0	0	27088	25660	145302	26955	1030848	43351	110044	0	0	8205	590292	0	0
2024-07-01 23:11:32			0	36944	0	0	0	27085	25670	145254	27060	1030812	43330	110043	0	0	8205	590096	0	0
2024-07-01 23:12:32			0	36951	0	0	0	27077	25660	145178	27039	1030839	43339	110040	0	0	8205	589844	0	0
2024-07-01 23:13:32			0	36942	0	0	0	27072	25670	145230	26972	1030803	43340	110038	0	0	8205	590177	0	0
2024-07-01 23:14:32			0	36953	0	0	0	27080	25670	145206	27015	1030856	43340	110041	0	0	8205	589729	0	0
2024-07-01 23:15:32			0	36930	0	0	0	27085	25660	145294	26849	1030848	43340	110043	0	0	8204	590700	0	0
2024-07-01 23:16:32			0	36924	0	0	0	27088	25670	145298	26870	1030856	43340	110044	0	0	8204	590911	0	0
2024-07-01 23:17:32			0	36932	0	0	0	27085	25670	145314	27067	1030830	43330	110043	0	0	8204	590585	0	0
2024-07-01 23:18:32			0	36929	0	0	0	27083	25660	145262	26812	1030821	43329	110042	0	0	8204	590740	0	0
2024-07-01 23:19:32			0	36937	0	0	0	27064	25670	145286	26847	1030803	43340	110035	0	0	8205	590381	0	0
2024-07-01 23:20:32			0	36907	0	0	0	27049	25660	145338	27163	1030767	43329	110029	0	0	8204	591638	0	0
2024-07-01 23:21:32			0	36912	0	0	0	27054	25660	145462	27255	1030758	43317	110031	0	0	8204	591434	0	0
2024-07-01 23:22:32			0	36917	0	0	0	27072	25650	145418	27121	1030723	43328	110038	0	0	8204	591263	0	0
2024-07-01 23:23:32			0	36909	0	0	0	27054	25660	145370	26876	1030812	43328	110031	0	0	8204	591556	0	0
2024-07-01 23:24:32			0	36907	0	0	0	27049	25650	145378	27208	1030723	43328	110029	0	0	8204	591671	0	0
2024-07-01 23:25:32			0	36918	0	0	0	27051	25650	145382	27027	1030777	43339	110030	0	0	8204	591223	0	0
2024-07-01 23:26:32			0	36903	0	0	0	27046	25650	145506	27036	1030741	43339	110028	0	0	8203	591835	0	0
2024-07-01 23:27:32			0	36892	0	0	0	27051	25650	145422	27124	1030777	43339	110030	0	0	8203	592284	0	0
2024-07-01 23:28:32			0	36886	0	0	0	27059	25650	145450	27251	1030777	43350	110033	0	0	8202	592528	0	0
2024-07-01 23:29:32			0	36897	0	0	0	27067	25650	145466	27038	1030750	43328	110036	0	0	8203	592079	0	0
2024-07-01 23:30:32			0	36902	0	0	0	27059	25660	145486	27013	1030785	43339	110033	0	0	8203	591842	0	0
2024-07-01 23:31:32			0	36907	0	0	0	27059	25650	145514	27090	1030714	43317	110033	0	0	8203	591671	0	0
2024-07-01 23:32:32			0	36888	0	0	0	27067	25650	145590	27052	1030768	43339	110036	0	0	8202	592447	0	0
2024-07-01 23:33:32			0	36882	0	0	0	27062	25640	145498	27223	1030706	43349	110034	0	0	8202	592726	0	0
2024-07-01 23:34:32			0	36887	0	0	0	27057	25640	145534	27229	1030670	43337	110032	0	0	8202	592521	0	0
2024-07-01 23:35:32			0	36878	0	0	0	27054	25650	145474	27057	1030741	43317	110031	0	0	8202	592855	0	0
2024-07-01 23:36:32			0	36886	0	0	0	27051	25640	145610	27358	1030679	43349	110030	0	0	8202	592562	0	0
2024-07-01 23:37:32			0	36878	0	0	0	27031	25640	145506	27085	1030670	43326	110022	0	0	8202	592889	0	0
2024-07-01 23:38:32			0	36873	0	0	0	26981	25640	145562	27033	1030456	43326	110003	0	0	8203	593093	0	0
2024-07-01 23:39:32			0	36878	0	0	0	26942	25620	145530	27234	1030403	43314	109988	0	0	8204	592957	0	0
2024-07-01 23:40:32			0	36884	0	0	0	26911	25600	145562	27261	1030199	43290	109976	0	0	8204	592779	0	0
2024-07-01 23:41:32			0	36896	0	0	0	26883	25580	145530	27074	1030271	43321	109965	0	0	8205	592356	0	0
2024-07-01 23:42:32			0	36916	0	0	0	26927	25580	145474	27261	1030333	43310	109982	0	0	8206	591540	0	0
2024-07-01 23:43:32			0	36905	0	0	0	26979	25580	145422	27298	1030414	43333	110002	0	0	8204	591989	0	0
2024-07-01 23:44:32			0	36913	0	0	0	26997	25570	145474	27102	1030423	43342	110009	0	0	8204	591696	0	0
2024-07-01 23:45:32			0	36912	0	0	0	26994	25600	145482	27081	1030467	43323	110008	0	0	8204	591636	0	0
2024-07-01 23:46:32			0	36915	0	0	0	26958	25570	145486	27121	1030316	43320	109994	0	0	8205	591614	0	0
2024-07-01 23:47:32			0	36923	0	0	0	26935	25560	145378	27367	1030299	43320	109985	0	0	8206	591321	0	0
2024-07-01 23:48:32			0	36919	0	0	0	26968	25560	145402	27166	1030299	43331	109998	0	0	8205	591485	0	0
2024-07-01 23:49:32			0	36923	0	0	0	26976	25560	145478	27138	1030397	43330	110001	0	0	8205	591321	0	0
2024-07-01 23:50:32			0	36918	0	0	0	26971	25570	145538	27036	1030343	43331	109999	0	0	8205	591492	0	0
2024-07-01 23:51:32			0	36930	0	0	0	26994	25570	145438	27417	1030450	43331	110008	0	0	8205	591002	0	0
2024-07-01 23:52:32			0	36945	0	0	0	26999	25580	145390	27003	1030432	43332	110010	0	0	8206	590357	0	0
2024-07-01 23:53:32			0	36928	0	0	0	26999	25580	145502	27267	1030441	43322	110010	0	0	8205	591050	0	0
2024-07-01 23:54:32			0	36923	0	0	0	27010	25590	145382	27312	1030449	43322	110014	0	0	8205	591220	0	0
2024-07-01 23:55:32			0	36915	0	0	0	27010	25580	145414	27135	1030467	43333	110014	0	0	8204	591580	0	0
2024-07-01 23:56:32			0	36920	0	0	0	27002	25580	145398	27440	1030432	43321	110011	0	0	8205	591377	0	0
2024-07-01 23:57:32			0	36925	0	0	0	26976	25590	145386	27150	1030449	43310	110001	0	0	8205	591139	0	0
2024-07-01 23:58:32			0	36940	0	0	0	26963	25580	145378	27078	1030325	43332	109996	0	0	8206	590561	0	0
2024-07-01 23:59:32			0	36921	0	0	0	26974	25580	145438	27131	1030432	43332	110000	0	0	8205	591336	0	0
2024-07-02 00:00:32			0	36945	0	0	0	26981	25570	145434	27308	1030343	43331	110003	0	0	8206	590391	0	0
2024-07-02 00:01:32			0	36929	0	0	0	26979	25570	145442	27255	1030423	43320	110002	0	0	8206	591043	0	0
2024-07-02 00:02:32			0	36889	0	0	0	26981	25580	145582	27251	1030441	43333	110003	0	0	8203	592642	0	0
2024-07-02 00:03:32			0	36893	0	0	0	26999	25580	145606	27033	1030432	43321	110010	0	0	8203	592479	0	0
2024-07-02 00:04:32			0	36885	0	0	0	27002	25580	145622	27131	1030512	43332	110011	0	0	8203	592806	0	0
2024-07-02 00:05:32			0	36863	0	0	0	27002	25580	145622	27277	1030485	43332	110011	0	0	8202	593705	0	0
2024-07-02 00:06:32			0	36838	0	0	0	27007	25590	145710	27334	1030449	43322	110013	0	0	8200	594694	0	0
2024-07-02 00:07:32			0	36829	0	0	0	26999	25590	145726	27414	1030458	43322	110010	0	0	8200	595063	0	0
2024-07-02 00:08:32			0	36835	0	0	0	27007	25580	145782	27377	1030441	43322	110013	0	0	8200	594851	0	0
2024-07-02 00:09:32			0	36824	0	0	0	27002	25580	145890	27194	1030405	43321	110011	0	0	8200	595302	0	0
2024-07-02 00:10:32			0	36780	0	0	0	27002	25580	145930	27377	1030459	43332	110011	0	0	8197	597106	0	0
2024-07-02 00:11:32			0	36774	0	0	0	27007	25590	145890	27204	1030512	43333	110013	0	0	8197	597319	0	0
2024-07-02 00:12:32			0	36765	0	0	0	27007	25580	145994	27303	1030432	43332	110013	0	0	8197	597723	0	0
2024-07-02 00:13:32			0	36761	0	0	0	27002	25590	146050	26901	1030422	43333	110011	0	0	8196	597853	0	0
2024-07-02 00:14:32			0	36736	0	0	0	27005	25590	146054	27187	1030458	43343	110012	0	0	8195	598881	0	0
2024-07-02 00:15:32			0	36708	0	0	0	27012	25600	146134	27249	1030493	43333	110015	0	0	8194	600000	0	0
2024-07-02 00:16:32			0	36728	0	0	0	27012	25600	146202	27192	1030520	43323	110015	0	0	8195	599176	0	0
2024-07-02 00:17:32			0	36709	0	0	0	27010	25590	146262	27126	1030485	43333	110014	0	0	8194	599992	0	0
2024-07-02 00:18:32			0	36690	0	0	0	27012	25600	146326	27010	1030502	43312	110015	0	0	8193	600741	0	0
2024-07-02 00:19:32			0	36682	0	0	0	27020	25600	146270	26857	1030529	43334	110018	0	0	8192	601071	0	0
2024-07-02 00:20:32			0	36657	0	0	0	27015	25600	146326	26894	1030502	43334	110016	0	0	8191	602103	0	0
2024-07-02 00:21:32			0	36650	0	0	0	27020	25600	146478	27223	1030520	43323	110018	0	0	8190	602392	0	0
2024-07-02 00:22:32			0	36638	0	0	0	27025	25600	146558	26902	1030529	43324	110020	0	0	8190	602888	0	0
2024-07-02 00:23:32			0	36624	0	0	0	27031	25600	146534	27131	1030556	43334	110022	0	0	8189	603467	0	0
2024-07-02 00:24:32			0	36625	0	0	0	27020	25600	146674	27395	1030448	43324	110018	0	0	8189	603425	0	0
2024-07-02 00:25:32			0	36633	0	0	0	27020	25590	146686	27357	1030530	43322	110018	0	0	8189	603129	0	0
2024-07-02 00:26:32			0	36588	0	0	0	27015	25600	146597	27417	1030493	43344	110016	0	0	8187	604957	0	0
2024-07-02 00:27:32			0	36620	0	0	0	27002	25600	146658	27287	1030413	43311	110011	0	0	8189	603632	0	0
2024-07-02 00:28:32			0	36602	0	0	0	26981	25580	146690	27177	1030351	43309	110003	0	0	8188	604446	0	0
2024-07-02 00:29:32			0	36594	0	0	0	26955	25570	146669	27029	1030370	43320	109993	0	0	8188	604812	0	0
2024-07-02 00:30:32			0	36587	0	0	0	26945	25560	146709	27140	1030245	43320	109989	0	0	8188	605136	0	0
2024-07-02 00:31:32			0	36580	0	0	0	26940	25550	146717	26944	1030228	43307	109987	0	0	8188	605460	0	0
2024-07-02 00:32:32			0	36578	0	0	0	26932	25560	146761	27150	1030210	43330	109984	0	0	8188	605509	0	0
2024-07-02 00:33:32			0	36569	0	0	0	26922	25550	146765	27156	1030245	43307	109980	0	0	8188	605917	0	0
2024-07-02 00:34:32			0	36568	0	0	0	26922	25550	146729	27102	1030165	43329	109980	0	0	8188	605958	0	0
2024-07-02 00:35:32			0	36558	0	0	0	26909	25540	146805	27376	1030148	43306	109975	0	0	8187	606408	0	0
2024-07-02 00:36:32			0	36570	0	0	0	26914	25530	146857	27064	1030166	43327	109977	0	0	8188	605944	0	0
2024-07-02 00:37:32			0	36568	0	0	0	26911	25540	146853	27202	1030121	43328	109976	0	0	8188	605993	0	0
2024-07-02 00:38:32			0	36572	0	0	0	26903	25530	146817	26953	1030059	43327	109973	0	0	8188	605861	0	0
2024-07-02 00:39:32			0	36557	0	0	0	26906	25520	146881	27196	1030059	43304	109974	0	0	8187	606518	0	0
2024-07-02 00:40:32			0	36558	0	0	0	26903	25510	146881	27265	1030024	43326	109973	0	0	8187	606511	0	0
2024-07-02 00:41:32			0	36590	0	0	0	26901	25510	146837	27036	1030024	43326	109972	0	0	8189	605184	0	0
2024-07-02 00:42:32			0	36560	0	0	0	26893	25510	146813	27171	1029935	43313	109969	0	0	8187	606428	0	0
2024-07-02 00:43:32			0	36558	0	0	0	26898	25510	146797	27076	1030015	43325	109971	0	0	8187	606511	0	0
2024-07-02 00:44:32			0	36577	0	0	0	26888	25500	146781	27093	1030006	43325	109967	0	0	8188	605757	0	0
2024-07-02 00:45:32			0	36581	0	0	0	26885	25500	146773	27119	1029971	43325	109966	0	0	8189	605591	0	0
2024-07-02 00:46:32			0	36605	0	0	0	26880	25500	146762	27027	1029980	43325	109964	0	0	8190	604597	0	0
2024-07-02 00:47:32			0	36598	0	0	0	26877	25510	146646	27020	1029988	43335	109963	0	0	8190	604852	0	0
2024-07-02 00:48:32			0	36620	0	0	0	26883	25500	146754	27268	1029980	43325	109965	0	0	8191	603976	0	0
2024-07-02 00:49:32			0	36612	0	0	0	26885	25490	146682	26989	1029909	43334	109966	0	0	8190	604341	0	0
2024-07-02 00:50:32			0	36629	0	0	0	26890	25490	146578	27201	1029935	43312	109968	0	0	8191	603637	0	0
2024-07-02 00:51:32			0	36635	0	0	0	26883	25490	146566	27123	1029935	43324	109965	0	0	8191	603389	0	0
2024-07-02 00:52:32			0	36661	0	0	0	26888	25480	146486	27001	1029954	43311	109967	0	0	8193	602349	0	0
2024-07-02 00:53:32			0	36656	0	0	0	26885	25480	146494	26942	1029891	43323	109966	0	0	8192	602555	0	0
2024-07-02 00:54:32			0	36681	0	0	0	26890	25470	146502	27003	1029883	43333	109968	0	0	8194	601557	0	0
2024-07-02 00:55:32			0	36707	0	0	0	26883	25470	146410	27001	1029909	43311	109965	0	0	8195	600485	0	0
2024-07-02 00:56:32			0	36703	0	0	0	26890	25470	146422	26991	1029883	43323	109968	0	0	8195	600649	0	0
2024-07-02 00:57:32			0	36728	0	0	0	26888	25480	146298	26970	1029918	43333	109967	0	0	8196	599585	0	0
2024-07-02 00:58:32			0	36720	0	0	0	26885	25480	146294	26748	1029891	43333	109966	0	0	8196	599915	0	0
2024-07-02 00:59:32			0	36742	0	0	0	26885	25480	146302	27284	1029918	43311	109966	0	0	8197	599009	0	0
2024-07-02 01:00:32			0	36729	0	0	0	26872	25470	146210	27098	1029874	43310	109961	0	0	8196	599578	0	0
2024-07-02 01:01:32			0	36735	0	0	0	26872	25470	146186	27015	1029775	43323	109961	0	0	8197	599331	0	0
2024-07-02 01:02:32			0	36753	0	0	0	26846	25460	146134	27208	1029749	43309	109951	0	0	8198	598624	0	0
2024-07-02 01:03:32			0	36748	0	0	0	26838	25450	146138	26928	1029687	43287	109948	0	0	8198	598864	0	0
2024-07-02 01:04:32			0	36768	0	0	0	26825	25440	146126	26713	1029661	43307	109943	0	0	8199	598075	0	0
2024-07-02 01:05:32			0	36777	0	0	0	26807	25430	146190	26975	1029652	43295	109936	0	0	8200	597739	0	0
2024-07-02 01:06:32			0	36788	0	0	0	26812	25410	146142	26951	1029617	43316	109938	0	0	8200	597355	0	0
2024-07-02 01:07:32			0	36799	0	0	0	26799	25430	145998	27062	1029617	43307	109933	0	0	8201	596835	0	0
2024-07-02 01:08:32			0	36819	0	0	0	26805	25410	146018	26939	1029590	43316	109935	0	0	8202	596082	0	0
2024-07-02 01:09:32			0	36823	0	0	0	26797	25410	145906	26885	1029555	43316	109932	0	0	8202	595918	0	0
2024-07-02 01:10:32			0	36816	0	0	0	26786	25410	145942	27168	1029609	43316	109928	0	0	8202	596205	0	0
2024-07-02 01:11:32			0	36834	0	0	0	26794	25410	145846	27034	1029564	43316	109931	0	0	8203	595467	0	0
2024-07-02 01:12:32			0	36843	0	0	0	26784	25410	145898	27031	1029528	43316	109927	0	0	8204	595098	0	0
2024-07-02 01:13:32			0	36833	0	0	0	26792	25410	145894	26948	1029555	43305	109930	0	0	8203	595508	0	0
2024-07-02 01:14:32			0	36844	0	0	0	26776	25390	145922	27229	1029475	43303	109924	0	0	8204	595125	0	0
2024-07-02 01:15:32			0	36830	0	0	0	26786	25390	145970	27189	1029493	43313	109928	0	0	8203	595699	0	0
2024-07-02 01:16:32			0	36829	0	0	0	26786	25390	145918	27242	1029440	43302	109928	0	0	8203	595740	0	0
2024-07-02 01:17:32			0	36831	0	0	0	26781	25390	145970	27116	1029520	43325	109926	0	0	8203	595658	0	0
2024-07-02 01:18:32			0	36832	0	0	0	26789	25400	145926	26871	1029484	43314	109929	0	0	8203	595583	0	0
2024-07-02 01:19:32			0	36825	0	0	0	26794	25390	145942	27225	1029502	43314	109931	0	0	8202	595904	0	0
2024-07-02 01:20:32			0	36845	0	0	0	26807	25400	145866	27124	1029564	43314	109936	0	0	8203	595050	0	0
2024-07-02 01:21:32			0	36840	0	0	0	26797	25400	145946	27133	1029645	43314	109932	0	0	8203	595255	0	0
2024-07-02 01:22:32			0	36832	0	0	0	26802	25400	145926	26863	1029493	43304	109934	0	0	8203	595583	0	0
2024-07-02 01:23:32			0	36838	0	0	0	26810	25410	145878	27244	1029528	43316	109937	0	0	8203	595303	0	0
2024-07-02 01:24:32			0	36854	0	0	0	26802	25390	146006	26911	1029636	43314	109934	0	0	8204	594715	0	0
2024-07-02 01:25:32			0	36830	0	0	0	26812	25390	145922	26791	1029529	43326	109938	0	0	8202	595699	0	0
2024-07-02 01:26:32			0	36846	0	0	0	26807	25400	145914	27003	1029591	43314	109936	0	0	8203	595009	0	0
2024-07-02 01:27:32			0	36834	0	0	0	26802	25390	145934	27015	1029502	43303	109934	0	0	8203	595535	0	0
2024-07-02 01:28:32			0	36845	0	0	0	26802	25390	145874	26873	1029529	43303	109934	0	0	8203	595084	0	0
2024-07-02 01:29:32			0	36863	0	0	0	26797	25400	145834	26913	1029564	43314	109932	0	0	8204	594313	0	0
2024-07-02 01:30:32			0	36868	0	0	0	26789	25390	145810	27196	1029556	43303	109929	0	0	8205	594142	0	0
2024-07-02 01:31:32			0	36877	0	0	0	26792	25390	145750	27239	1029529	43303	109930	0	0	8205	593774	0	0
2024-07-02 01:32:32			0	36890	0	0	0	26784	25390	145734	27260	1029502	43303	109927	0	0	8206	593242	0	0
2024-07-02 01:33:32			0	36887	0	0	0	26784	25390	145646	26824	1029440	43313	109927	0	0	8206	593364	0	0
2024-07-02 01:34:32			0	36899	0	0	0	26779	25380	145662	27334	1029431	43302	109925	0	0	8207	592908	0	0
2024-07-02 01:35:32			0	36902	0	0	0	26779	25380	145698	27216	1029512	43302	109925	0	0	8207	592785	0	0
2024-07-02 01:36:32			0	36900	0	0	0	26789	25370	145790	27246	1029494	43311	109929	0	0	8206	592900	0	0
2024-07-02 01:37:32			0	36892	0	0	0	26794	25370	145626	27327	1029441	43300	109931	0	0	8206	593227	0	0
2024-07-02 01:38:32			0	36906	0	0	0	26786	25380	145682	27159	1029485	43313	109928	0	0	8207	592621	0	0
2024-07-02 01:39:32			0	36905	0	0	0	26794	25390	145642	27230	1029547	43302	109931	0	0	8207	592629	0	0
2024-07-02 01:40:32			0	36910	0	0	0	26792	25380	145590	27357	1029538	43325	109930	0	0	8207	592458	0	0
2024-07-02 01:41:32			0	36912	0	0	0	26792	25380	145598	27535	1029476	43312	109930	0	0	8207	592376	0	0
2024-07-02 01:42:32			0	36926	0	0	0	26781	25380	145570	27230	1029503	43312	109926	0	0	8208	591804	0	0
2024-07-02 01:43:32			0	36943	0	0	0	26779	25380	145566	27329	1029423	43312	109925	0	0	8209	591111	0	0
2024-07-02 01:44:32			0	36948	0	0	0	26768	25370	145466	27067	1029378	43311	109921	0	0	8209	590940	0	0
2024-07-02 01:45:32			0	36953	0	0	0	26771	25370	145518	27048	1029432	43300	109922	0	0	8209	590736	0	0
2024-07-02 01:46:32			0	36984	0	0	0	26761	25370	145434	27331	1029325	43290	109918	0	0	8211	589473	0	0
2024-07-02 01:47:32			0	36984	0	0	0	26758	25370	145322	27170	1029298	43311	109917	0	0	8211	589473	0	0
2024-07-02 01:48:32			0	37007	0	0	0	26750	25370	145270	27265	1029378	43300	109914	0	0	8213	588537	0	0
2024-07-02 01:49:32			0	37023	0	0	0	26750	25350	145218	27163	1029352	43321	109914	0	0	8213	587953	0	0
2024-07-02 01:50:32			0	37020	0	0	0	26750	25350	145166	27118	1029299	43310	109914	0	0	8213	588075	0	0
2024-07-02 01:51:32			0	37038	0	0	0	26745	25340	145170	27223	1029255	43298	109912	0	0	8214	587377	0	0
2024-07-02 01:52:32			0	37043	0	0	0	26750	25350	145074	27209	1029290	43310	109914	0	0	8214	587140	0	0
2024-07-02 01:53:32			0	37061	0	0	0	26755	25350	145086	27377	1029370	43298	109916	0	0	8215	586409	0	0
2024-07-02 01:54:32			0	37069	0	0	0	26753	25350	145070	27308	1029290	43310	109915	0	0	8216	586085	0	0
2024-07-02 01:55:32			0	37077	0	0	0	26750	25350	145018	27336	1029352	43310	109914	0	0	8216	585760	0	0
2024-07-02 01:56:32			0	37087	0	0	0	26755	25340	145002	27171	1029308	43310	109916	0	0	8217	585388	0	0
2024-07-02 01:57:32			0	37110	0	0	0	26755	25340	144850	27301	1029380	43320	109916	0	0	8218	584456	0	0
2024-07-02 01:58:32			0	37107	0	0	0	26761	25340	144882	27303	1029273	43297	109918	0	0	8217	584578	0	0
2024-07-02 01:59:32			0	37126	0	0	0	26758	25350	144858	27196	1029290	43321	109917	0	0	8219	583776	0	0
2024-07-02 02:00:32			0	37135	0	0	0	26766	25340	144822	27152	1029362	43310	109920	0	0	8219	583445	0	0
2024-07-02 02:01:32			0	37149	0	0	0	26773	25350	144726	27175	1029344	43332	109923	0	0	8219	582846	0	0
2024-07-02 02:02:32			0	37147	0	0	0	26776	25350	144706	27319	1029424	43310	109924	0	0	8219	582926	0	0
2024-07-02 02:03:32			0	37165	0	0	0	26784	25340	144698	27154	1029281	43332	109927	0	0	8220	582232	0	0
2024-07-02 02:04:32			0	37184	0	0	0	26773	25340	144694	27270	1029308	43321	109923	0	0	8221	581465	0	0
2024-07-02 02:05:32			0	37200	0	0	0	26776	25340	144582	27256	1029389	43321	109924	0	0	8222	580820	0	0
2024-07-02 02:06:32			0	37207	0	0	0	26771	25340	144486	27270	1029335	43310	109922	0	0	8222	580537	0	0
2024-07-02 02:07:32			0	37218	0	0	0	26761	25350	144402	27403	1029299	43310	109918	0	0	8223	580061	0	0
2024-07-02 02:08:32			0	37228	0	0	0	26755	25340	144330	27351	1029299	43320	109916	0	0	8224	579691	0	0
2024-07-02 02:09:32			0	37240	0	0	0	26758	25340	144302	27150	1029273	43309	109917	0	0	8224	579208	0	0
2024-07-02 02:10:32			0	37267	0	0	0	26755	25330	144250	27097	1029264	43296	109916	0	0	8226	578155	0	0
2024-07-02 02:11:32			0	37280	0	0	0	26755	25340	144286	26915	1029273	43309	109916	0	0	8227	577600	0	0
2024-07-02 02:12:32			0	37299	0	0	0	26768	25330	144278	26840	1029398	43296	109921	0	0	8227	576869	0	0
2024-07-02 02:13:32			0	37277	0	0	0	26768	25340	144162	27085	1029353	43309	109921	0	0	8226	577720	0	0
2024-07-02 02:14:32			0	37286	0	0	0	26784	25350	144178	27372	1029344	43321	109927	0	0	8226	577326	0	0
2024-07-02 02:15:32			0	37285	0	0	0	26792	25350	144134	27547	1029459	43321	109930	0	0	8226	577366	0	0
2024-07-02 02:16:32			0	37272	0	0	0	26802	25350	144158	27287	1029513	43321	109934	0	0	8225	577888	0	0
2024-07-02 02:17:32			0	37279	0	0	0	26820	25350	144130	27202	1029513	43310	109941	0	0	8225	577607	0	0
2024-07-02 02:18:32			0	37293	0	0	0	26825	25360	144214	27206	1029530	43323	109943	0	0	8226	577012	0	0
2024-07-02 02:19:32			0	37291	0	0	0	26836	25370	144210	27138	1029548	43333	109947	0	0	8226	577059	0	0
2024-07-02 02:20:32			0	37296	0	0	0	26846	25370	144126	27109	1029539	43323	109951	0	0	8226	576859	0	0
2024-07-02 02:21:32			0	37318	0	0	0	26841	25380	144126	27053	1029592	43313	109949	0	0	8227	575943	0	0
2024-07-02 02:22:32			0	37313	0	0	0	26844	25380	144111	27317	1029592	43313	109950	0	0	8227	576144	0	0
2024-07-02 02:23:32			0	37317	0	0	0	26838	25370	144138	27220	1029548	43333	109948	0	0	8227	576016	0	0
2024-07-02 02:24:32			0	37305	0	0	0	26818	25370	144134	27154	1029521	43311	109940	0	0	8227	576497	0	0
2024-07-02 02:25:32			0	37311	0	0	0	26807	25370	144098	26750	1029441	43311	109936	0	0	8227	576257	0	0
2024-07-02 02:26:32			0	37331	0	0	0	26792	25370	144079	26984	1029467	43323	109930	0	0	8229	575455	0	0
2024-07-02 02:27:32			0	37293	0	0	0	26781	25360	144046	27128	1029415	43311	109926	0	0	8227	577012	0	0
2024-07-02 02:28:32			0	37312	0	0	0	26771	25350	144187	27274	1029379	43298	109922	0	0	8228	576282	0	0
2024-07-02 02:29:32			0	37270	0	0	0	26758	25350	144258	27135	1029326	43310	109917	0	0	8226	577969	0	0
2024-07-02 02:30:32			0	37241	0	0	0	26755	25350	144286	27057	1029290	43298	109916	0	0	8225	579135	0	0
2024-07-02 02:31:32			0	37256	0	0	0	26740	25350	144314	26890	1029290	43310	109910	0	0	8226	578531	0	0
2024-07-02 02:32:32			0	37227	0	0	0	26727	25340	144398	27260	1029273	43309	109905	0	0	8224	579732	0	0
2024-07-02 02:33:32			0	37219	0	0	0	26732	25330	144398	26896	1029210	43296	109907	0	0	8224	580087	0	0
2024-07-02 02:34:32			0	37198	0	0	0	26729	25330	144466	27128	1029264	43308	109906	0	0	8223	580933	0	0
2024-07-02 02:35:32			0	37189	0	0	0	26716	25320	144558	27227	1029193	43295	109901	0	0	8222	581330	0	0
2024-07-02 02:36:32			0	37168	0	0	0	26711	25320	144686	26882	1029131	43307	109899	0	0	8221	582177	0	0
2024-07-02 02:37:32			0	37143	0	0	0	26696	25310	144726	27147	1029149	43295	109893	0	0	8220	583221	0	0
2024-07-02 02:38:32			0	37133	0	0	0	26703	25310	144762	26859	1029113	43306	109896	0	0	8220	583625	0	0
2024-07-02 02:39:32			0	37104	0	0	0	26693	25300	144814	27000	1029042	43305	109892	0	0	8218	584832	0	0
2024-07-02 02:40:32			0	37092	0	0	0	26696	25290	144946	26993	1029033	43293	109893	0	0	8218	585352	0	0
2024-07-02 02:41:32			0	37076	0	0	0	26690	25290	145066	26753	1029007	43293	109891	0	0	8217	586001	0	0
2024-07-02 02:42:32			0	37062	0	0	0	26688	25290	145138	27223	1029007	43304	109890	0	0	8216	586569	0	0
2024-07-02 02:43:32			0	37054	0	0	0	26688	25280	145270	27244	1029043	43314	109890	0	0	8216	586927	0	0
2024-07-02 02:44:32			0	37025	0	0	0	26690	25290	145306	27007	1029007	43304	109891	0	0	8214	588072	0	0
2024-07-02 02:45:32			0	37011	0	0	0	26698	25280	145334	26927	1029007	43303	109894	0	0	8213	588675	0	0
2024-07-02 02:46:32			0	36999	0	0	0	26711	25280	145426	27152	1029123	43314	109899	0	0	8212	589163	0	0
2024-07-02 02:47:32			0	36955	0	0	0	26735	25300	145522	27109	1029158	43316	109908	0	0	8210	590889	0	0
2024-07-02 02:48:32			0	36947	0	0	0	26753	25300	145530	26963	1029212	43316	109915	0	0	8209	591216	0	0
2024-07-02 02:49:32			0	36945	0	0	0	26768	25320	145610	27182	1029354	43318	109921	0	0	8209	591230	0	0
2024-07-02 02:50:32			0	36945	0	0	0	26779	25330	145714	27286	1029389	43319	109925	0	0	8209	591197	0	0
2024-07-02 02:51:32			0	36923	0	0	0	26794	25320	145682	26849	1029425	43307	109931	0	0	8207	592129	0	0
2024-07-02 02:52:32			0	36908	0	0	0	26810	25330	145766	27033	1029371	43319	109937	0	0	8206	592708	0	0
2024-07-02 02:53:32			0	36877	0	0	0	26825	25340	145778	27144	1029487	43320	109943	0	0	8204	593942	0	0
2024-07-02 02:54:32			0	36870	0	0	0	26833	25350	145866	26930	1029620	43321	109946	0	0	8204	594195	0	0
2024-07-02 02:55:32			0	36848	0	0	0	26849	25370	145858	27230	1029566	43333	109952	0	0	8203	595029	0	0
2024-07-02 02:56:32			0	36855	0	0	0	26844	25370	145970	26963	1029512	43311	109950	0	0	8203	594742	0	0
2024-07-02 02:57:32			0	36853	0	0	0	26838	25350	145894	26927	1029486	43310	109948	0	0	8203	594891	0	0
2024-07-02 02:58:32			0	36850	0	0	0	26831	25350	146046	27098	1029459	43310	109945	0	0	8203	595014	0	0
2024-07-02 02:59:32			0	36822	0	0	0	26818	25360	145942	26963	1029388	43299	109940	0	0	8202	596129	0	0
2024-07-02 03:00:32			0	36838	0	0	0	26820	25350	145990	27270	1029379	43321	109941	0	0	8202	595506	0	0
2024-07-02 03:01:32			0	36815	0	0	0	26828	25340	146014	27303	1029415	43332	109944	0	0	8201	596484	0	0
2024-07-02 03:02:32			0	36812	0	0	0	26838	25350	146038	26982	1029567	43332	109948	0	0	8201	596573	0	0
2024-07-02 03:03:32			0	36798	0	0	0	26857	25380	146134	27036	1029672	43335	109955	0	0	8200	597046	0	0
2024-07-02 03:04:32			0	36778	0	0	0	26872	25380	146238	27190	1029619	43335	109961	0	0	8199	597868	0	0
2024-07-02 03:05:32			0	36787	0	0	0	26870	25390	146222	27194	1029574	43313	109960	0	0	8199	597464	0	0
2024-07-02 03:06:32			0	36774	0	0	0	26838	25380	146166	27157	1029538	43325	109948	0	0	8199	598033	0	0
2024-07-02 03:07:32			0	36769	0	0	0	26828	25380	146134	27026	1029423	43301	109944	0	0	8199	598238	0	0
2024-07-02 03:08:32			0	36773	0	0	0	26810	25360	146162	26800	1029388	43311	109937	0	0	8199	598142	0	0
2024-07-02 03:09:32			0	36781	0	0	0	26789	25360	146162	27157	1029361	43311	109929	0	0	8200	597813	0	0
2024-07-02 03:10:32			0	36768	0	0	0	26773	25340	146138	26797	1029335	43310	109923	0	0	8200	598415	0	0
2024-07-02 03:11:32			0	36757	0	0	0	26763	25340	146210	27156	1029281	43310	109919	0	0	8199	598868	0	0
2024-07-02 03:12:32			0	36763	0	0	0	26755	25340	146210	27005	1029353	43309	109916	0	0	8200	598621	0	0
2024-07-02 03:13:32			0	36760	0	0	0	26750	25330	146174	27177	1029229	43319	109914	0	0	8200	598778	0	0
2024-07-02 03:14:32			0	36756	0	0	0	26727	25320	146302	27345	1029166	43318	109905	0	0	8200	598977	0	0
2024-07-02 03:15:32			0	36743	0	0	0	26714	25320	146246	27260	1029113	43307	109900	0	0	8199	599512	0	0
2024-07-02 03:16:32			0	36755	0	0	0	26701	25320	146358	27081	1029184	43307	109895	0	0	8200	599018	0	0
2024-07-02 03:17:32			0	36751	0	0	0	26706	25320	146346	26956	1029158	43307	109897	0	0	8200	599183	0	0
2024-07-02 03:18:32			0	36729	0	0	0	26729	25310	146370	27163	1029194	43317	109906	0	0	8198	600123	0	0
2024-07-02 03:19:32			0	36727	0	0	0	26742	25320	146462	27369	1029318	43329	109911	0	0	8198	600172	0	0
2024-07-02 03:20:32			0	36708	0	0	0	26755	25320	146398	27034	1029300	43340	109916	0	0	8197	600955	0	0
2024-07-02 03:21:32			0	36711	0	0	0	26768	25320	146482	27116	1029265	43329	109921	0	0	8197	600832	0	0
2024-07-02 03:22:32			0	36711	0	0	0	26771	25320	146502	27275	1029345	43318	109922	0	0	8197	600832	0	0
2024-07-02 03:23:32			0	36711	0	0	0	26784	25320	146554	27055	1029354	43329	109927	0	0	8196	600832	0	0
2024-07-02 03:24:32			0	36700	0	0	0	26784	25340	146462	27196	1029380	43331	109927	0	0	8196	601217	0	0
2024-07-02 03:25:32			0	36716	0	0	0	26792	25340	146506	27372	1029407	43331	109930	0	0	8197	600557	0	0
2024-07-02 03:26:32			0	36691	0	0	0	26797	25350	146654	27027	1029451	43332	109932	0	0	8195	601554	0	0
2024-07-02 03:27:32			0	36678	0	0	0	26799	25350	146606	27079	1029406	43332	109933	0	0	8194	602091	0	0
2024-07-02 03:28:32			0	36675	0	0	0	26794	25340	146594	27315	1029415	43343	109931	0	0	8194	602250	0	0
2024-07-02 03:29:32			0	36670	0	0	0	26802	25350	146622	26961	1029486	43332	109934	0	0	8194	602422	0	0
2024-07-02 03:30:32			0	36677	0	0	0	26794	25360	146602	26765	1029468	43333	109931	0	0	8195	602099	0	0
2024-07-02 03:31:32			0	36658	0	0	0	26802	25350	146682	27178	1029424	43321	109934	0	0	8193	602918	0	0
2024-07-02 03:32:32			0	36644	0	0	0	26797	25350	146774	26863	1029486	43321	109932	0	0	8193	603497	0	0
2024-07-02 03:33:32			0	36643	0	0	0	26786	25370	146722	26911	1029459	43333	109928	0	0	8193	603470	0	0
2024-07-02 03:34:32			0	36639	0	0	0	26781	25350	146786	27071	1029397	43321	109926	0	0	8193	603704	0	0
2024-07-02 03:35:32			0	36612	0	0	0	26771	25350	146886	27173	1029352	43321	109922	0	0	8192	604822	0	0
2024-07-02 03:36:32			0	36604	0	0	0	26771	25350	146874	27064	1029397	43310	109922	0	0	8191	605154	0	0
2024-07-02 03:37:32			0	36580	0	0	0	26761	25350	146921	27215	1029344	43310	109918	0	0	8190	606149	0	0
2024-07-02 03:38:32			0	36583	0	0	0	26763	25350	147033	27308	1029433	43343	109919	0	0	8190	606025	0	0
2024-07-02 03:39:32			0	36551	0	0	0	26750	25340	147029	27317	1029335	43332	109914	0	0	8189	607388	0	0
2024-07-02 03:40:32			0	36533	0	0	0	26745	25350	147125	27208	1029397	43321	109912	0	0	8188	608102	0	0
2024-07-02 03:41:32			0	36540	0	0	0	26740	25340	147181	27390	1029335	43310	109910	0	0	8188	607845	0	0
2024-07-02 03:42:32			0	36488	0	0	0	26742	25330	147241	27445	1029291	43319	109911	0	0	8185	610045	0	0
2024-07-02 03:43:32			0	36475	0	0	0	26732	25340	147341	27429	1029273	43309	109907	0	0	8185	610553	0	0
2024-07-02 03:44:32			0	36445	0	0	0	26711	25330	147389	27192	1029148	43308	109899	0	0	8184	611840	0	0
2024-07-02 03:45:32			0	36419	0	0	0	26685	25310	147513	27253	1029069	43295	109889	0	0	8183	612996	0	0
2024-07-02 03:46:32			0	36411	0	0	0	26680	25310	147617	27183	1029060	43295	109887	0	0	8182	613331	0	0
2024-07-02 03:47:32			0	36369	0	0	0	26662	25300	147701	27308	1029015	43294	109880	0	0	8180	615125	0	0
2024-07-02 03:48:32			0	36333	0	0	0	26654	25280	147937	27376	1028927	43281	109877	0	0	8179	616706	0	0
2024-07-02 03:49:32			0	36297	0	0	0	26644	25280	148013	27116	1028873	43303	109873	0	0	8177	618219	0	0
2024-07-02 03:50:32			0	36268	0	0	0	26631	25280	148201	27171	1028981	43292	109868	0	0	8176	619440	0	0
2024-07-02 03:51:32			0	36227	0	0	0	26625	25260	148357	27235	1028812	43312	109866	0	0	8173	621240	0	0
2024-07-02 03:52:32			0	36187	0	0	0	26620	25260	148633	27355	1028866	43312	109864	0	0	8171	622931	0	0
2024-07-02 03:53:32			0	36118	0	0	0	26623	25250	148745	27287	1028776	43300	109865	0	0	8168	625890	0	0
2024-07-02 03:54:32			0	36099	0	0	0	26618	25250	149001	27170	1028776	43300	109863	0	0	8167	626697	0	0
2024-07-02 03:55:32			0	36042	0	0	0	26610	25250	149137	27218	1028795	43289	109860	0	0	8164	629122	0	0
2024-07-02 03:56:32			0	35982	0	0	0	26605	25240	149301	27019	1028724	43288	109858	0	0	8161	631717	0	0
2024-07-02 03:57:32			0	35961	0	0	0	26610	25240	149557	26953	1028777	43310	109860	0	0	8159	632615	0	0
2024-07-02 03:58:32			0	35904	0	0	0	26607	25230	149793	26942	1028742	43298	109859	0	0	8156	635092	0	0
2024-07-02 03:59:32			0	35831	0	0	0	26597	25230	149940	27206	1028680	43309	109855	0	0	8153	638229	0	0
2024-07-02 04:00:32			0	35793	0	0	0	26602	25220	150272	27377	1028716	43286	109857	0	0	8151	639902	0	0
2024-07-02 04:01:32			0	35744	0	0	0	26594	25220	150400	27048	1028743	43297	109854	0	0	8148	642017	0	0
2024-07-02 04:02:32			0	35683	0	0	0	26589	25220	150608	27384	1028689	43286	109852	0	0	8145	644658	0	0
2024-07-02 04:03:32			0	35627	0	0	0	26589	25230	150684	27268	1028680	43297	109852	0	0	8142	647053	0	0
2024-07-02 04:04:32			0	35577	0	0	0	26586	25210	150984	27187	1028654	43285	109851	0	0	8139	649302	0	0
2024-07-02 04:05:32			0	35532	0	0	0	26581	25200	151256	27218	1028636	43307	109849	0	0	8137	651302	0	0
2024-07-02 04:06:32			0	35472	0	0	0	26581	25200	151560	27192	1028583	43296	109849	0	0	8134	653927	0	0
2024-07-02 04:07:32			0	35418	0	0	0	26566	25190	151632	27118	1028538	43305	109843	0	0	8131	656333	0	0
2024-07-02 04:08:32			0	35385	0	0	0	26542	25180	151900	27060	1028449	43283	109834	0	0	8130	657821	0	0
2024-07-02 04:09:32			0	35335	0	0	0	26535	25180	152188	27100	1028441	43282	109831	0	0	8127	660024	0	0
2024-07-02 04:10:32			0	35280	0	0	0	26537	25160	152408	27492	1028414	43292	109832	0	0	8124	662528	0	0
2024-07-02 04:11:32			0	35237	0	0	0	26519	25160	152620	27183	1028352	43291	109825	0	0	8122	664432	0	0
2024-07-02 04:12:32			0	35202	0	0	0	26506	25150	152676	27041	1028281	43280	109820	0	0	8120	666023	0	0
2024-07-02 04:13:32			0	35171	0	0	0	26506	25140	152884	27358	1028237	43290	109820	0	0	8119	667438	0	0
2024-07-02 04:14:32			0	35147	0	0	0	26503	25140	153016	27164	1028210	43290	109819	0	0	8117	668506	0	0
2024-07-02 04:15:32			0	35138	0	0	0	26493	25130	153084	27488	1028175	43290	109815	0	0	8117	668945	0	0
2024-07-02 04:16:32			0	35112	0	0	0	26480	25120	153199	27511	1028149	43288	109810	0	0	8116	670142	0	0
2024-07-02 04:17:32			0	35098	0	0	0	26477	25100	153319	27229	1028069	43286	109809	0	0	8115	670843	0	0
2024-07-02 04:18:32			0	35070	0	0	0	26457	25090	153383	27396	1028079	43286	109801	0	0	8114	672132	0	0
2024-07-02 04:19:32			0	35051	0	0	0	26451	25090	153495	27185	1027972	43297	109799	0	0	8113	672982	0	0
2024-07-02 04:20:32			0	35040	0	0	0	26441	25090	153467	27209	1028016	43285	109795	0	0	8112	673475	0	0
2024-07-02 04:21:32			0	35022	0	0	0	26431	25080	153643	26989	1027919	43272	109791	0	0	8111	674319	0	0
2024-07-02 04:22:32			0	35004	0	0	0	26399	25060	153639	27319	1027777	43270	109779	0	0	8111	675203	0	0
2024-07-02 04:23:32			0	34971	0	0	0	26373	25050	153763	27479	1027706	43270	109769	0	0	8110	676723	0	0
2024-07-02 04:24:32			0	34968	0	0	0	26345	25020	153827	27050	1027520	43255	109758	0	0	8110	676973	0	0
2024-07-02 04:25:32			0	34937	0	0	0	26314	25010	153975	27313	1027529	43254	109746	0	0	8109	678406	0	0
2024-07-02 04:26:32			0	34916	0	0	0	26285	24990	153991	27239	1027449	43264	109735	0	0	8108	679430	0	0
2024-07-02 04:27:32			0	34896	0	0	0	26264	24980	154019	27367	1027397	43274	109727	0	0	8107	680370	0	0
2024-07-02 04:28:32			0	34888	0	0	0	26223	24960	154263	27376	1027228	43250	109711	0	0	8107	680809	0	0
2024-07-02 04:29:32			0	34873	0	0	0	26205	24930	154307	27258	1027131	43248	109704	0	0	8107	681602	0	0
2024-07-02 04:30:32			0	34832	0	0	0	26171	24920	154391	27069	1027006	43235	109691	0	0	8105	683496	0	0
2024-07-02 04:31:32			0	34802	0	0	0	26140	24890	154515	26857	1026856	43211	109679	0	0	8104	684972	0	0
2024-07-02 04:32:32			0	34785	0	0	0	26090	24870	154663	27203	1026714	43219	109660	0	0	8103	685821	0	0
2024-07-02 04:33:32			0	34773	0	0	0	26077	24840	154695	27187	1026555	43217	109655	0	0	8103	686483	0	0
2024-07-02 04:34:32			0	34756	0	0	0	26046	24820	154883	27088	1026440	43215	109643	0	0	8102	687334	0	0
2024-07-02 04:35:32			0	34739	0	0	0	26018	24790	154819	27046	1026281	43222	109632	0	0	8102	688224	0	0
2024-07-02 04:36:32			0	34729	0	0	0	25986	24760	154979	27104	1026175	43188	109620	0	0	8102	688797	0	0
2024-07-02 04:37:32			0	34727	0	0	0	25968	24740	155075	27341	1025998	43207	109613	0	0	8102	688966	0	0
2024-07-02 04:38:32			0	34707	0	0	0	25948	24710	155243	27142	1025946	43204	109605	0	0	8101	689995	0	0
2024-07-02 04:39:32			0	34685	0	0	0	25927	24680	155287	27031	1025903	43202	109597	0	0	8100	691117	0	0
2024-07-02 04:40:32			0	34669	0	0	0	25914	24660	155259	27493	1025761	43210	109592	0	0	8099	691927	0	0
2024-07-02 04:41:32			0	34659	0	0	0	25896	24640	155443	27362	1025726	43208	109585	0	0	8099	692462	0	0
2024-07-02 04:42:32			0	34650	0	0	0	25888	24640	155419	26951	1025584	43197	109582	0	0	8098	692874	0	0
2024-07-02 04:43:32			0	34645	0	0	0	25859	24600	155499	27521	1025559	43206	109571	0	0	8098	693260	0	0
2024-07-02 04:44:32			0	34650	0	0	0	25844	24590	155599	27251	1025426	43192	109565	0	0	8099	693070	0	0
2024-07-02 04:45:32			0	34637	0	0	0	25807	24570	155579	27270	1025338	43190	109551	0	0	8099	693744	0	0
2024-07-02 04:46:32			0	34633	0	0	0	25794	24550	155651	27086	1025169	43200	109546	0	0	8099	694006	0	0
2024-07-02 04:47:32			0	34630	0	0	0	25750	24520	155587	27246	1024992	43186	109529	0	0	8099	694261	0	0
2024-07-02 04:48:32			0	34613	0	0	0	25724	24500	155643	27313	1024949	43172	109519	0	0	8098	695120	0	0
2024-07-02 04:49:32			0	34617	0	0	0	25698	24470	155675	27131	1024825	43192	109509	0	0	8099	695054	0	0
2024-07-02 04:50:32			0	34626	0	0	0	25677	24440	155815	27396	1024720	43178	109501	0	0	8100	694759	0	0
2024-07-02 04:51:32			0	34581	0	0	0	25664	24440	155899	27183	1024658	43177	109496	0	0	8097	696826	0	0
2024-07-02 04:52:32			0	34568	0	0	0	25644	24410	155919	27105	1024534	43186	109488	0	0	8097	697543	0	0
2024-07-02 04:53:32			0	34561	0	0	0	25633	24390	155991	27232	1024499	43173	109484	0	0	8097	697944	0	0
2024-07-02 04:54:32			0	34542	0	0	0	25615	24380	156111	27170	1024420	43172	109477	0	0	8096	698859	0	0
2024-07-02 04:55:32			0	34523	0	0	0	25589	24350	156219	27284	1024189	43159	109467	0	0	8095	699854	0	0
2024-07-02 04:56:32			0	34523	0	0	0	25542	24330	156267	27319	1024048	43167	109449	0	0	8096	699933	0	0
2024-07-02 04:57:32			0	34508	0	0	0	25514	24300	156347	27244	1023924	43154	109438	0	0	8095	700744	0	0
2024-07-02 04:58:32			0	34493	0	0	0	25472	24250	156363	26849	1023695	43149	109422	0	0	8095	701635	0	0
2024-07-02 04:59:32			0	34479	0	0	0	25436	24240	156487	27135	1023597	43136	109408	0	0	8095	702323	0	0
2024-07-02 05:00:32			0	34460	0	0	0	25399	24210	156551	27081	1023438	43133	109394	0	0	8094	703322	0	0
2024-07-02 05:01:32			0	34456	0	0	0	25358	24170	156583	27137	1023262	43108	109378	0	0	8094	703666	0	0
2024-07-02 05:02:32			0	34440	0	0	0	25327	24130	156627	27176	1023086	43115	109366	0	0	8094	704567	0	0
2024-07-02 05:03:32			0	34453	0	0	0	25314	24110	156735	27055	1023247	43147	109361	0	0	8095	704043	0	0
2024-07-02 05:04:32			0	34425	0	0	0	25311	24100	156811	26955	1023088	43145	109360	0	0	8093	705382	0	0
2024-07-02 05:05:32			0	34420	0	0	0	25306	24090	156823	26930	1023017	43144	109358	0	0	8093	705655	0	0
2024-07-02 05:06:32			0	34418	0	0	0	25298	24070	156923	27066	1023009	43153	109355	0	0	8093	705827	0	0
2024-07-02 05:07:32			0	34414	0	0	0	25355	24070	156943	27197	1023365	43198	109377	0	0	8092	706013	0	0
2024-07-02 05:08:32			0	34414	0	0	0	25454	24090	157087	27154	1023391	43199	109415	0	0	8090	705933	0	0
2024-07-02 05:09:32			0	34383	0	0	0	25509	24110	157027	27336	1023568	43180	109436	0	0	8088	707295	0	0
2024-07-02 05:10:32			0	34409	0	0	0	25542	24120	157055	27552	1023665	43192	109449	0	0	8088	706046	0	0
2024-07-02 05:11:32			0	34398	0	0	0	25579	24150	157159	27074	1023816	43228	109463	0	0	8087	706438	0	0
2024-07-02 05:12:32			0	34388	0	0	0	25641	24170	157119	27003	1023984	43218	109487	0	0	8086	706823	0	0
2024-07-02 05:13:32			0	34405	0	0	0	25649	24190	157103	27123	1023992	43220	109490	0	0	8087	705953	0	0
2024-07-02 05:14:32			0	34395	0	0	0	25638	24180	157059	27126	1023823	43187	109486	0	0	8086	706458	0	0
2024-07-02 05:15:32			0	34403	0	0	0	25631	24180	157055	27164	1023868	43175	109483	0	0	8087	706086	0	0
2024-07-02 05:16:32			0	34414	0	0	0	25633	24190	157099	26934	1023894	43187	109484	0	0	8088	705535	0	0
2024-07-02 05:17:32			0	34402	0	0	0	25659	24200	156915	27308	1024125	43211	109494	0	0	8086	706053	0	0
2024-07-02 05:18:32			0	34420	0	0	0	25714	24230	156995	27436	1024311	43213	109515	0	0	8087	705097	0	0
2024-07-02 05:19:32			0	34388	0	0	0	25742	24250	157099	27225	1024337	43215	109526	0	0	8084	706504	0	0
2024-07-02 05:20:32			0	34399	0	0	0	25755	24270	157031	27144	1024407	43217	109531	0	0	8085	705913	0	0
2024-07-02 05:21:32			0	34390	0	0	0	25750	24290	156955	27232	1024459	43208	109529	0	0	8085	706252	0	0
2024-07-02 05:22:32			0	34407	0	0	0	25761	24280	156891	27140	1024397	43208	109533	0	0	8085	705502	0	0
2024-07-02 05:23:32			0	34393	0	0	0	25763	24290	156871	27471	1024548	43208	109534	0	0	8085	706112	0	0
2024-07-02 05:24:32			0	34397	0	0	0	25802	24320	156875	27215	1024744	43210	109549	0	0	8084	705807	0	0
2024-07-02 05:25:32			0	34422	0	0	0	25862	24330	156919	27124	1024797	43223	109572	0	0	8085	704606	0	0
2024-07-02 05:26:32			0	34409	0	0	0	25883	24360	156927	27074	1024947	43237	109580	0	0	8084	705090	0	0
2024-07-02 05:27:32			0	34410	0	0	0	25883	24380	156915	27332	1024901	43216	109580	0	0	8084	704964	0	0
2024-07-02 05:28:32			0	34412	0	0	0	25883	24380	156843	27550	1024990	43217	109580	0	0	8084	704871	0	0
2024-07-02 05:29:32			0	34413	0	0	0	25885	24400	156755	27268	1025043	43208	109581	0	0	8084	704745	0	0
2024-07-02 05:30:32			0	34435	0	0	0	25877	24410	156751	27308	1025033	43219	109578	0	0	8086	703685	0	0
2024-07-02 05:31:32			0	34422	0	0	0	25877	24420	156803	27324	1024997	43242	109578	0	0	8085	704248	0	0
2024-07-02 05:32:32			0	34428	0	0	0	25883	24420	156683	27105	1025033	43209	109580	0	0	8085	703970	0	0
2024-07-02 05:33:32			0	34445	0	0	0	25872	24420	156739	26904	1024997	43231	109576	0	0	8086	703182	0	0
2024-07-02 05:34:32			0	34421	0	0	0	25872	24430	156747	27119	1025068	43221	109576	0	0	8085	704255	0	0
2024-07-02 05:35:32			0	34447	0	0	0	25867	24430	156715	27022	1025095	43209	109574	0	0	8086	703050	0	0
2024-07-02 05:36:32			0	34448	0	0	0	25870	24440	156703	27071	1025094	43211	109575	0	0	8087	702964	0	0
2024-07-02 05:37:32			0	34455	0	0	0	25880	24440	156619	27131	1025166	43233	109579	0	0	8087	702640	0	0
2024-07-02 05:38:32			0	34466	0	0	0	25877	24450	156671	26993	1025210	43224	109578	0	0	8087	702091	0	0
2024-07-02 05:39:32			0	34467	0	0	0	25875	24450	156591	27135	1025156	43202	109577	0	0	8088	702045	0	0
2024-07-02 05:40:32			0	34457	0	0	0	25867	24450	156487	27015	1025103	43212	109574	0	0	8087	702508	0	0
2024-07-02 05:41:32			0	34476	0	0	0	25864	24450	156471	27097	1025165	43212	109573	0	0	8088	701629	0	0
2024-07-02 05:42:32			0	34483	0	0	0	25870	24460	156459	26856	1025093	43212	109575	0	0	8089	701265	0	0
2024-07-02 05:43:32			0	34490	0	0	0	25859	24450	156387	26934	1025103	43212	109571	0	0	8089	700982	0	0
2024-07-02 05:44:32			0	34493	0	0	0	25857	24460	156387	27222	1025049	43203	109570	0	0	8089	700803	0	0
2024-07-02 05:45:32			0	34509	0	0	0	25851	24450	156267	27116	1025049	43224	109568	0	0	8090	700104	0	0
2024-07-02 05:46:32			0	34534	0	0	0	25846	24440	156323	26925	1025005	43200	109566	0	0	8092	698990	0	0
2024-07-02 05:47:32			0	34550	0	0	0	25841	24450	156195	27197	1025076	43212	109564	0	0	8093	698214	0	0
2024-07-02 05:48:32			0	34547	0	0	0	25836	24440	156143	27325	1025014	43201	109562	0	0	8093	698391	0	0
2024-07-02 05:49:32			0	34566	0	0	0	25831	24430	156099	27341	1025023	43209	109560	0	0	8094	697556	0	0
2024-07-02 05:50:32			0	34580	0	0	0	25836	24430	156055	27256	1025050	43209	109562	0	0	8094	696912	0	0
2024-07-02 05:51:32			0	34594	0	0	0	25831	24440	155907	27402	1025041	43223	109560	0	0	8095	696228	0	0
2024-07-02 05:52:32			0	34621	0	0	0	25836	24440	155927	27331	1025032	43222	109562	0	0	8097	694989	0	0
2024-07-02 05:53:32			0	34646	0	0	0	25836	24440	155775	27239	1025059	43200	109562	0	0	8098	693842	0	0
2024-07-02 05:54:32			0	34653	0	0	0	25838	24430	155675	27294	1025023	43209	109563	0	0	8098	693560	0	0
2024-07-02 05:55:32			0	34679	0	0	0	25828	24430	155631	27164	1024970	43209	109559	0	0	8100	692369	0	0
2024-07-02 05:56:32			0	34691	0	0	0	25825	24430	155707	27062	1025077	43221	109558	0	0	8101	691820	0	0
2024-07-02 05:57:32			0	34720	0	0	0	25833	24440	155371	27055	1025014	43223	109561	0	0	8102	690456	0	0
2024-07-02 05:58:32			0	34747	0	0	0	25828	24440	155347	26961	1024987	43223	109559	0	0	8104	689223	0	0
2024-07-02 05:59:32			0	34785	0	0	0	25828	24430	155251	27024	1024961	43221	109559	0	0	8106	687531	0	0
2024-07-02 06:00:32			0	34819	0	0	0	25823	24430	155059	27024	1025050	43209	109557	0	0	8108	685984	0	0
2024-07-02 06:01:32			0	34852	0	0	0	25841	24430	154799	26961	1025014	43221	109564	0	0	8109	684486	0	0
2024-07-02 06:02:32			0	34878	0	0	0	25828	24440	154599	27012	1025032	43210	109559	0	0	8111	683269	0	0
2024-07-02 06:03:32			0	34926	0	0	0	25841	24440	154631	27208	1025059	43233	109564	0	0	8113	681096	0	0
2024-07-02 06:04:32			0	34956	0	0	0	25857	24440	154331	27083	1025086	43210	109570	0	0	8115	679741	0	0
2024-07-02 06:05:32			0	35004	0	0	0	25854	24440	154331	27331	1025067	43234	109569	0	0	8117	677577	0	0
2024-07-02 06:06:32			0	35040	0	0	0	25864	24440	154115	27422	1025094	43211	109573	0	0	8119	675958	0	0
2024-07-02 06:07:32			0	35072	0	0	0	25849	24450	153891	27220	1025130	43224	109567	0	0	8121	674483	0	0
2024-07-02 06:08:32			0	35082	0	0	0	25859	24450	153775	27005	1025049	43224	109571	0	0	8122	674034	0	0
2024-07-02 06:09:32			0	35121	0	0	0	25859	24450	153756	26856	1025085	43224	109571	0	0	8124	672287	0	0
2024-07-02 06:10:32			0	35122	0	0	0	25849	24450	153652	27293	1025076	43212	109567	0	0	8124	672242	0	0
2024-07-02 06:11:32			0	35149	0	0	0	25857	24450	153556	27059	1025058	43212	109570	0	0	8125	671034	0	0
2024-07-02 06:12:32			0	35175	0	0	0	25854	24440	153468	27227	1025059	43233	109569	0	0	8127	669911	0	0
2024-07-02 06:13:32			0	35202	0	0	0	25844	24450	153276	27046	1025076	43224	109565	0	0	8128	668668	0	0
2024-07-02 06:14:32			0	35222	0	0	0	25849	24450	153252	27086	1025076	43224	109567	0	0	8129	667777	0	0
2024-07-02 06:15:32			0	35228	0	0	0	25857	24450	153220	26894	1025049	43235	109570	0	0	8129	667510	0	0
2024-07-02 06:16:32			0	35248	0	0	0	25849	24450	153112	26838	1025111	43202	109567	0	0	8131	666620	0	0
2024-07-02 06:17:32			0	35264	0	0	0	25833	24440	153064	27123	1024925	43222	109561	0	0	8132	665946	0	0
2024-07-02 06:18:32			0	35272	0	0	0	25807	24430	152968	27251	1024943	43232	109551	0	0	8133	665628	0	0
2024-07-02 06:19:32			0	35307	0	0	0	25799	24430	152856	26831	1024800	43199	109548	0	0	8135	664075	0	0
2024-07-02 06:20:32			0	35316	0	0	0	25792	24420	152888	27164	1024819	43221	109545	0	0	8135	663713	0	0
2024-07-02 06:21:32			0	35306	0	0	0	25781	24410	152736	26873	1024801	43208	109541	0	0	8135	664194	0	0
2024-07-02 06:22:32			0	35333	0	0	0	25774	24420	152632	26798	1024810	43208	109538	0	0	8136	662959	0	0
2024-07-02 06:23:32			0	35349	0	0	0	25771	24410	152636	26941	1024855	43219	109537	0	0	8137	662288	0	0
2024-07-02 06:24:32			0	35355	0	0	0	25763	24400	152620	26878	1024775	43196	109534	0	0	8138	662060	0	0
2024-07-02 06:25:32			0	35382	0	0	0	25766	24410	152468	27128	1024793	43186	109535	0	0	8139	660829	0	0
2024-07-02 06:26:32			0	35388	0	0	0	25750	24400	152404	27260	1024722	43208	109529	0	0	8140	660601	0	0
2024-07-02 06:27:32			0	35393	0	0	0	25716	24390	152396	27053	1024598	43195	109516	0	0	8140	660417	0	0
2024-07-02 06:28:32			0	35405	0	0	0	25696	24360	152268	26963	1024474	43170	109508	0	0	8141	659999	0	0
2024-07-02 06:29:32			0	35422	0	0	0	25670	24360	152300	26946	1024421	43193	109498	0	0	8143	659249	0	0
2024-07-02 06:30:32			0	35437	0	0	0	25659	24340	152188	27320	1024439	43191	109494	0	0	8144	658661	0	0
2024-07-02 06:31:32			0	35435	0	0	0	25670	24340	152212	27156	1024493	43191	109498	0	0	8143	658750	0	0
2024-07-02 06:32:32			0	35460	0	0	0	25675	24340	152200	27010	1024466	43191	109500	0	0	8145	657648	0	0
2024-07-02 06:33:32			0	35473	0	0	0	25672	24340	152092	27391	1024404	43179	109499	0	0	8145	657075	0	0
2024-07-02 06:34:32			0	35471	0	0	0	25662	24340	152012	27239	1024377	43191	109495	0	0	8145	657163	0	0
2024-07-02 06:35:32			0	35504	0	0	0	25657	24320	152020	27322	1024405	43200	109493	0	0	8147	655786	0	0
2024-07-02 06:36:32			0	35507	0	0	0	25646	24330	151944	27300	1024387	43200	109489	0	0	8148	655617	0	0
2024-07-02 06:37:32			0	35520	0	0	0	25636	24320	151888	26989	1024289	43200	109485	0	0	8148	655083	0	0
2024-07-02 06:38:32			0	35539	0	0	0	25625	24310	151840	27275	1024254	43199	109481	0	0	8149	654286	0	0
2024-07-02 06:39:32			0	35568	0	0	0	25620	24300	151816	27142	1024183	43197	109479	0	0	8151	653051	0	0
2024-07-02 06:40:32			0	35587	0	0	0	25599	24290	151728	27159	1024112	43186	109471	0	0	8152	652255	0	0
2024-07-02 06:41:32			0	35565	0	0	0	25571	24260	151724	27083	1023961	43183	109460	0	0	8152	653330	0	0
2024-07-02 06:42:32			0	35580	0	0	0	25550	24230	151488	26785	1023829	43147	109452	0	0	8153	652783	0	0
2024-07-02 06:43:32			0	35600	0	0	0	25535	24230	151492	27256	1023847	43179	109446	0	0	8154	651907	0	0
2024-07-02 06:44:32			0	35628	0	0	0	25537	24210	151484	27010	1023821	43178	109447	0	0	8155	650756	0	0
2024-07-02 06:45:32			0	35632	0	0	0	25545	24210	151500	27104	1023920	43211	109450	0	0	8155	650581	0	0
2024-07-02 06:46:32			0	35629	0	0	0	25579	24210	151516	27149	1024009	43189	109463	0	0	8155	650712	0	0
2024-07-02 06:47:32			0	35622	0	0	0	25610	24220	151552	27050	1023991	43201	109475	0	0	8154	650981	0	0
2024-07-02 06:48:32			0	35627	0	0	0	25657	24230	151540	27048	1024150	43213	109493	0	0	8153	650726	0	0
2024-07-02 06:49:32			0	35620	0	0	0	25688	24240	151636	27270	1024301	43214	109505	0	0	8152	650995	0	0
2024-07-02 06:50:32			0	35612	0	0	0	25724	24260	151576	27124	1024381	43205	109519	0	0	8151	651272	0	0
2024-07-02 06:51:32			0	35615	0	0	0	25742	24280	151620	27066	1024335	43217	109526	0	0	8151	651067	0	0
2024-07-02 06:52:32			0	35603	0	0	0	25735	24280	151620	27339	1024397	43208	109523	0	0	8151	651592	0	0
2024-07-02 06:53:32			0	35614	0	0	0	25737	24290	151472	27358	1024406	43219	109524	0	0	8152	651074	0	0
2024-07-02 06:54:32			0	35610	0	0	0	25729	24290	151608	27222	1024414	43197	109521	0	0	8151	651249	0	0
2024-07-02 06:55:32			0	35611	0	0	0	25711	24290	151524	27213	1024272	43208	109514	0	0	8152	651205	0	0
2024-07-02 06:56:32			0	35627	0	0	0	25696	24270	151580	26915	1024300	43184	109508	0	0	8153	650579	0	0
2024-07-02 06:57:32			0	35620	0	0	0	25690	24270	151628	27384	1024291	43195	109506	0	0	8153	650885	0	0
2024-07-02 06:58:32			0	35617	0	0	0	25696	24280	151568	27157	1024344	43196	109508	0	0	8152	650979	0	0
2024-07-02 06:59:32			0	35613	0	0	0	25677	24280	151560	27128	1024263	43196	109501	0	0	8152	651154	0	0
2024-07-02 07:00:32			0	35632	0	0	0	25677	24280	151532	27020	1024201	43207	109501	0	0	8153	650324	0	0
2024-07-02 07:01:32			0	35619	0	0	0	25670	24260	151496	27372	1024282	43194	109498	0	0	8153	650966	0	0
2024-07-02 07:02:32			0	35627	0	0	0	25667	24280	151620	27490	1024201	43195	109497	0	0	8153	650542	0	0
2024-07-02 07:03:32			0	35608	0	0	0	25659	24250	151548	27149	1024203	43194	109494	0	0	8152	651483	0	0
2024-07-02 07:04:32			0	35606	0	0	0	25657	24260	151572	27168	1024175	43183	109493	0	0	8152	651534	0	0
2024-07-02 07:05:32			0	35595	0	0	0	25662	24260	151568	27092	1024229	43194	109495	0	0	8152	652016	0	0
2024-07-02 07:06:32			0	35599	0	0	0	25662	24260	151568	27345	1024175	43194	109495	0	0	8152	651841	0	0
2024-07-02 07:07:32			0	35590	0	0	0	25631	24260	151652	27098	1024140	43205	109483	0	0	8152	652234	0	0
2024-07-02 07:08:32			0	35594	0	0	0	25623	24260	151636	26909	1024140	43194	109480	0	0	8152	652059	0	0
2024-07-02 07:09:32			0	35586	0	0	0	25623	24250	151752	27267	1024149	43205	109480	0	0	8152	652447	0	0
2024-07-02 07:10:32			0	35592	0	0	0	25636	24260	151644	27336	1024193	43205	109485	0	0	8152	652147	0	0
2024-07-02 07:11:32			0	35600	0	0	0	25654	24250	151784	26970	1024149	43182	109492	0	0	8152	651834	0	0
2024-07-02 07:12:32			0	35578	0	0	0	25662	24250	151708	27353	1024211	43194	109495	0	0	8151	652797	0	0
2024-07-02 07:13:32			0	35573	0	0	0	25659	24260	151808	27222	1024167	43194	109494	0	0	8151	652979	0	0
2024-07-02 07:14:32			0	35564	0	0	0	25664	24250	151812	27208	1024211	43182	109496	0	0	8150	653411	0	0
2024-07-02 07:15:32			0	35548	0	0	0	25667	24260	151816	27182	1024175	43194	109497	0	0	8149	654075	0	0
2024-07-02 07:16:32			0	35562	0	0	0	25667	24250	151868	27345	1024265	43194	109497	0	0	8150	653498	0	0
2024-07-02 07:17:32			0	35556	0	0	0	25670	24270	151808	27095	1024273	43195	109498	0	0	8149	653688	0	0
2024-07-02 07:18:32			0	35555	0	0	0	25680	24270	151888	27537	1024273	43207	109502	0	0	8149	653731	0	0
2024-07-02 07:19:32			0	35557	0	0	0	25690	24270	151816	27275	1024264	43207	109506	0	0	8149	653644	0	0
2024-07-02 07:20:32			0	35549	0	0	0	25688	24260	151984	27282	1024336	43206	109505	0	0	8149	654032	0	0
2024-07-02 07:21:32			0	35539	0	0	0	25698	24280	151944	27241	1024228	43195	109509	0	0	8148	654396	0	0
2024-07-02 07:22:32			0	35529	0	0	0	25703	24290	151944	27319	1024352	43208	109511	0	0	8148	654799	0	0
2024-07-02 07:23:32			0	35513	0	0	0	25703	24260	151940	27364	1024282	43206	109511	0	0	8147	655612	0	0
2024-07-02 07:24:32			0	35527	0	0	0	25709	24290	151920	27396	1024406	43208	109513	0	0	8147	654886	0	0
2024-07-02 07:25:32			0	35520	0	0	0	25716	24290	151936	27358	1024468	43197	109516	0	0	8147	655194	0	0
2024-07-02 07:26:32			0	35513	0	0	0	25735	24300	152000	26981	1024450	43208	109523	0	0	8146	655464	0	0
2024-07-02 07:27:32			0	35512	0	0	0	25748	24310	152040	27287	1024495	43209	109528	0	0	8146	655471	0	0
2024-07-02 07:28:32			0	35506	0	0	0	25748	24320	151940	27338	1024539	43210	109528	0	0	8146	655698	0	0
2024-07-02 07:29:32			0	35516	0	0	0	25768	24330	152008	27407	1024627	43222	109536	0	0	8146	655222	0	0
2024-07-02 07:30:32			0	35516	0	0	0	25771	24330	151960	27008	1024654	43210	109537	0	0	8146	655222	0	0
2024-07-02 07:31:32			0	35505	0	0	0	25776	24340	152020	27171	1024671	43212	109539	0	0	8145	655668	0	0
2024-07-02 07:32:32			0	35500	0	0	0	25776	24340	152044	27272	1024680	43202	109539	0	0	8145	655888	0	0
2024-07-02 07:33:32			0	35507	0	0	0	25771	24350	151968	27300	1024742	43202	109537	0	0	8145	655543	0	0
2024-07-02 07:34:32			0	35493	0	0	0	25789	24350	151964	27369	1024697	43236	109544	0	0	8144	656158	0	0
2024-07-02 07:35:32			0	35497	0	0	0	25799	24360	151960	27409	1024760	43225	109548	0	0	8145	655945	0	0
2024-07-02 07:36:32			0	35483	0	0	0	25802	24360	152072	27286	1024795	43237	109549	0	0	8144	656561	0	0
2024-07-02 07:37:32			0	35478	0	0	0	25810	24370	152000	26783	1024804	43237	109552	0	0	8143	656744	0	0
2024-07-02 07:38:32			0	35486	0	0	0	25812	24380	151960	27267	1024883	43228	109553	0	0	8144	656355	0	0
2024-07-02 07:39:32			0	35499	0	0	0	25810	24390	152036	27272	1024892	43228	109552	0	0	8145	655746	0	0
2024-07-02 07:40:32			0	35480	0	0	0	25823	24390	152120	27377	1024892	43217	109557	0	0	8143	656582	0	0
2024-07-02 07:41:32			0	35476	0	0	0	25820	24390	152032	27211	1024874	43228	109556	0	0	8143	656758	0	0
2024-07-02 07:42:32			0	35492	0	0	0	25810	24390	151960	27222	1024865	43217	109552	0	0	8144	656054	0	0
2024-07-02 07:43:32			0	35502	0	0	0	25805	24400	151900	27367	1024891	43230	109550	0	0	8145	655577	0	0
2024-07-02 07:44:32			0	35502	0	0	0	25818	24400	151916	26991	1024971	43230	109555	0	0	8145	655577	0	0
2024-07-02 07:45:32			0	35484	0	0	0	25815	24400	151952	27050	1024971	43219	109554	0	0	8144	656369	0	0
2024-07-02 07:46:32			0	35503	0	0	0	25807	24400	151840	27377	1024891	43208	109551	0	0	8145	655534	0	0
2024-07-02 07:47:32			0	35502	0	0	0	25794	24410	151820	27267	1024873	43208	109546	0	0	8145	655540	0	0
2024-07-02 07:48:32			0	35524	0	0	0	25768	24400	151764	27185	1024757	43208	109536	0	0	8147	654611	0	0
2024-07-02 07:49:32			0	35514	0	0	0	25753	24380	151840	27225	1024749	43195	109530	0	0	8146	655124	0	0
2024-07-02 07:50:32			0	35543	0	0	0	25740	24390	151780	27187	1024740	43195	109525	0	0	8148	653815	0	0
2024-07-02 07:51:32			0	35530	0	0	0	25740	24380	151856	27381	1024696	43217	109525	0	0	8147	654422	0	0
2024-07-02 07:52:32			0	35547	0	0	0	25755	24390	151800	27258	1024865	43207	109531	0	0	8148	653639	0	0
2024-07-02 07:53:32			0	35523	0	0	0	25761	24380	151780	27150	1024821	43216	109533	0	0	8147	654729	0	0
2024-07-02 07:54:32			0	35527	0	0	0	25789	24390	151852	27343	1024865	43240	109544	0	0	8146	654517	0	0
2024-07-02 07:55:32			0	35523	0	0	0	25799	24390	151768	27258	1024927	43207	109548	0	0	8146	654692	0	0
2024-07-02 07:56:32			0	35530	0	0	0	25802	24390	151792	27235	1024847	43207	109549	0	0	8146	654385	0	0
2024-07-02 07:57:32			0	35522	0	0	0	25805	24400	151808	27232	1024891	43219	109550	0	0	8146	654699	0	0
2024-07-02 07:58:32			0	35523	0	0	0	25807	24400	151788	27057	1024891	43219	109551	0	0	8146	654655	0	0
2024-07-02 07:59:32			0	35534	0	0	0	25792	24400	151936	27114	1024891	43219	109545	0	0	8147	654172	0	0
2024-07-02 08:00:32			0	35531	0	0	0	25789	24400	151972	27320	1024909	43218	109544	0	0	8147	654304	0	0
2024-07-02 08:01:32			0	35529	0	0	0	25789	24400	151832	27124	1024856	43208	109544	0	0	8147	654392	0	0
2024-07-02 08:02:32			0	35535	0	0	0	25781	24400	151880	27286	1024837	43208	109541	0	0	8147	654129	0	0
2024-07-02 08:03:32			0	35546	0	0	0	25779	24400	151880	27095	1024829	43218	109540	0	0	8148	653646	0	0
2024-07-02 08:04:32			0	35533	0	0	0	25768	24390	151936	27365	1024820	43217	109536	0	0	8147	654253	0	0
2024-07-02 08:05:32			0	35540	0	0	0	25761	24370	151852	27296	1024697	43214	109533	0	0	8148	654020	0	0
2024-07-02 08:06:32			0	35548	0	0	0	25740	24380	151800	27147	1024669	43195	109525	0	0	8148	653632	0	0
2024-07-02 08:07:32			0	35565	0	0	0	25727	24370	151824	27019	1024625	43205	109520	0	0	8149	652924	0	0
2024-07-02 08:08:32			0	35545	0	0	0	25724	24370	151824	27154	1024563	43204	109519	0	0	8148	653801	0	0
2024-07-02 08:09:32			0	35533	0	0	0	25716	24360	151860	27216	1024634	43214	109516	0	0	8148	654364	0	0
2024-07-02 08:10:32			0	35558	0	0	0	25711	24350	151756	27244	1024617	43213	109514	0	0	8149	653305	0	0
2024-07-02 08:11:32			0	35559	0	0	0	25703	24350	151756	27346	1024564	43203	109511	0	0	8149	653261	0	0
2024-07-02 08:12:32			0	35554	0	0	0	25709	24340	151852	27173	1024538	43212	109513	0	0	8149	653517	0	0
2024-07-02 08:13:32			0	35542	0	0	0	25714	24340	151848	27358	1024671	43212	109515	0	0	8148	654043	0	0
2024-07-02 08:14:32			0	35536	0	0	0	25740	24350	151900	27013	1024662	43224	109525	0	0	8148	654269	0	0
2024-07-02 08:15:32			0	35539	0	0	0	25755	24350	151916	27215	1024751	43203	109531	0	0	8147	654138	0	0
2024-07-02 08:16:32			0	35522	0	0	0	25768	24360	152040	26974	1024715	43214	109536	0	0	8146	654847	0	0
2024-07-02 08:17:32			0	35521	0	0	0	25768	24360	152100	27405	1024715	43237	109536	0	0	8146	654891	0	0
2024-07-02 08:18:32			0	35528	0	0	0	25774	24370	151976	27246	1024723	43204	109538	0	0	8147	654547	0	0
2024-07-02 08:19:32			0	35538	0	0	0	25776	24360	152116	27263	1024768	43214	109539	0	0	8147	654145	0	0
2024-07-02 08:20:32			0	35525	0	0	0	25792	24370	152100	27223	1024866	43226	109545	0	0	8146	654678	0	0
2024-07-02 08:21:32			0	35526	0	0	0	25797	24370	151984	27010	1024839	43226	109547	0	0	8146	654634	0	0
2024-07-02 08:22:32			0	35524	0	0	0	25794	24370	151960	27060	1024866	43215	109546	0	0	8146	654722	0	0
2024-07-02 08:23:32			0	35526	0	0	0	25805	24380	151980	27291	1024874	43216	109550	0	0	8146	654597	0	0
2024-07-02 08:24:32			0	35527	0	0	0	25810	24390	152008	27324	1024874	43228	109552	0	0	8146	654517	0	0
2024-07-02 08:25:32			0	35527	0	0	0	25820	24400	152012	27126	1024936	43218	109556	0	0	8146	654480	0	0
2024-07-02 08:26:32			0	35511	0	0	0	25825	24390	152040	27010	1024874	43228	109558	0	0	8145	655219	0	0
2024-07-02 08:27:32			0	35524	0	0	0	25833	24410	151964	27229	1025007	43219	109561	0	0	8146	654574	0	0
2024-07-02 08:28:32			0	35528	0	0	0	25841	24400	151988	27192	1024998	43230	109564	0	0	8146	654436	0	0
2024-07-02 08:29:32			0	35529	0	0	0	25838	24410	152036	27171	1025033	43230	109563	0	0	8146	654355	0	0
2024-07-02 08:30:32			0	35529	0	0	0	25838	24410	151968	27211	1025033	43230	109563	0	0	8146	654355	0	0
2024-07-02 08:31:32			0	35540	0	0	0	25841	24420	151968	27291	1025077	43231	109564	0	0	8146	653835	0	0
2024-07-02 08:32:32			0	35538	0	0	0	25838	24420	151904	27090	1024979	43221	109563	0	0	8146	653923	0	0
2024-07-02 08:33:32			0	35541	0	0	0	25838	24420	151844	27038	1025086	43221	109563	0	0	8146	653791	0	0
2024-07-02 08:34:32			0	35535	0	0	0	25838	24420	151772	27306	1025024	43220	109563	0	0	8146	654055	0	0
2024-07-02 08:35:32			0	35552	0	0	0	25831	24420	151816	27509	1024997	43231	109560	0	0	8147	653309	0	0
2024-07-02 08:36:32			0	35571	0	0	0	25831	24420	151836	27111	1024970	43231	109560	0	0	8148	652477	0	0
2024-07-02 08:37:32			0	35545	0	0	0	25836	24430	151836	27170	1025041	43243	109562	0	0	8147	653579	0	0
2024-07-02 08:38:32			0	35575	0	0	0	25836	24420	151740	27111	1025024	43220	109562	0	0	8148	652302	0	0
2024-07-02 08:39:32			0	35584	0	0	0	25831	24430	151656	27008	1025068	43232	109560	0	0	8149	651871	0	0
2024-07-02 08:40:32			0	35590	0	0	0	25836	24430	151744	27225	1025095	43209	109562	0	0	8149	651608	0	0
2024-07-02 08:41:32			0	35577	0	0	0	25838	24430	151660	27319	1025068	43232	109563	0	0	8148	652177	0	0
2024-07-02 08:42:32			0	35602	0	0	0	25833	24430	151576	27255	1025077	43232	109561	0	0	8150	651084	0	0
2024-07-02 08:43:32			0	35592	0	0	0	25833	24420	151500	27244	1025033	43221	109561	0	0	8149	651558	0	0
2024-07-02 08:44:32			0	35629	0	0	0	25828	24420	151536	27182	1025077	43231	109559	0	0	8151	649941	0	0
2024-07-02 08:45:32			0	35619	0	0	0	25812	24430	151440	27301	1024988	43221	109553	0	0	8151	650341	0	0
2024-07-02 08:46:32			0	35634	0	0	0	25818	24430	151328	27137	1025014	43221	109555	0	0	8152	649686	0	0
2024-07-02 08:47:32			0	35645	0	0	0	25818	24420	151336	27204	1025033	43209	109555	0	0	8152	649242	0	0
2024-07-02 08:48:32			0	35654	0	0	0	25810	24420	151288	27123	1025033	43232	109552	0	0	8153	648850	0	0
2024-07-02 08:49:32			0	35670	0	0	0	25805	24420	151216	27435	1025024	43208	109550	0	0	8154	648152	0	0
2024-07-02 08:50:32			0	35673	0	0	0	25805	24420	151224	27284	1025059	43221	109550	0	0	8154	648021	0	0
2024-07-02 08:51:32			0	35675	0	0	0	25802	24420	151136	27215	1024970	43231	109549	0	0	8154	647934	0	0
2024-07-02 08:52:32			0	35705	0	0	0	25807	24420	151164	27407	1025006	43221	109551	0	0	8156	646628	0	0
2024-07-02 08:53:32			0	35689	0	0	0	25802	24420	151112	27481	1025033	43209	109549	0	0	8155	647325	0	0
2024-07-02 08:54:32			0	35702	0	0	0	25802	24430	151000	27516	1025041	43209	109549	0	0	8156	646722	0	0
2024-07-02 08:55:32			0	35718	0	0	0	25805	24430	150984	27637	1024988	43232	109550	0	0	8157	646027	0	0
2024-07-02 08:56:32			0	35710	0	0	0	25807	24420	151024	27601	1024970	43220	109551	0	0	8156	646411	0	0
2024-07-02 08:57:32			0	35724	0	0	0	25810	24430	150984	27341	1024961	43221	109552	0	0	8157	645766	0	0
2024-07-02 08:58:32			0	35728	0	0	0	25807	24430	150936	27218	1024961	43221	109551	0	0	8157	645592	0	0
2024-07-02 08:59:32			0	35734	0	0	0	25805	24430	150968	26948	1024988	43221	109550	0	0	8157	645331	0	0
2024-07-02 09:00:32			0	35744	0	0	0	25805	24410	150968	27135	1024935	43230	109550	0	0	8158	644970	0	0
2024-07-02 09:01:32			0	35758	0	0	0	25812	24420	150940	27317	1024917	43220	109553	0	0	8159	644326	0	0
2024-07-02 09:02:32			0	35758	0	0	0	25797	24430	150848	26837	1024988	43232	109547	0	0	8159	644289	0	0
2024-07-02 09:03:32			0	35768	0	0	0	25802	24420	150884	26984	1024944	43231	109549	0	0	8159	643892	0	0
2024-07-02 09:04:32			0	35763	0	0	0	25802	24420	150772	27053	1025006	43221	109549	0	0	8159	644109	0	0
2024-07-02 09:05:32			0	35792	0	0	0	25812	24410	150860	26982	1025060	43219	109553	0	0	8160	642888	0	0
2024-07-02 09:06:32			0	35782	0	0	0	25833	24420	150896	27001	1025059	43232	109561	0	0	8159	643285	0	0
2024-07-02 09:07:32			0	35783	0	0	0	25838	24430	150756	27192	1025068	43232	109563	0	0	8159	643205	0	0
2024-07-02 09:08:32			0	35796	0	0	0	25844	24430	150832	27081	1025121	43232	109565	0	0	8160	642642	0	0
2024-07-02 09:09:32			0	35785	0	0	0	25841	24430	150776	26979	1025157	43232	109564	0	0	8160	643118	0	0
2024-07-02 09:10:32			0	35790	0	0	0	25844	24430	150864	27029	1025130	43221	109565	0	0	8160	642902	0	0
2024-07-02 09:11:32			0	35791	0	0	0	25841	24440	150768	26986	1025219	43222	109564	0	0	8160	642822	0	0
2024-07-02 09:12:32			0	35791	0	0	0	25849	24430	150728	27098	1025184	43221	109567	0	0	8160	642858	0	0
2024-07-02 09:13:32			0	35788	0	0	0	25862	24440	150664	26970	1025112	43222	109572	0	0	8159	642952	0	0
2024-07-02 09:14:32			0	35782	0	0	0	25862	24440	150788	27022	1025174	43234	109572	0	0	8159	643212	0	0
2024-07-02 09:15:32			0	35762	0	0	0	25875	24450	150848	27003	1025183	43224	109577	0	0	8158	644043	0	0
2024-07-02 09:16:32			0	35760	0	0	0	25888	24450	150776	27071	1025245	43224	109582	0	0	8157	644130	0	0
2024-07-02 09:17:32			0	35771	0	0	0	25890	24450	150804	26878	1025272	43224	109583	0	0	8158	643653	0	0
2024-07-02 09:18:32			0	35764	0	0	0	25901	24460	151028	26974	1025343	43247	109587	0	0	8158	643920	0	0
2024-07-02 09:19:32			0	35735	0	0	0	25911	24470	150860	26791	1025325	43248	109591	0	0	8156	645142	0	0
2024-07-02 09:20:32			0	35721	0	0	0	25919	24470	151036	26807	1025387	43248	109594	0	0	8155	645750	0	0
2024-07-02 09:21:32			0	35709	0	0	0	25927	24490	151120	27118	1025440	43239	109597	0	0	8154	646199	0	0
2024-07-02 09:22:32			0	35693	0	0	0	25950	24490	151216	27128	1025466	43227	109606	0	0	8153	646894	0	0
2024-07-02 09:23:32			0	35663	0	0	0	25955	24510	151288	27109	1025474	43240	109608	0	0	8151	648128	0	0
2024-07-02 09:24:32			0	35641	0	0	0	25958	24510	151444	27176	1025501	43262	109609	0	0	8150	649087	0	0
2024-07-02 09:25:32			0	35599	0	0	0	25955	24510	151504	26889	1025536	43251	109608	0	0	8148	650920	0	0
2024-07-02 09:26:32			0	35555	0	0	0	25958	24510	151668	27296	1025563	43240	109609	0	0	8146	652845	0	0
2024-07-02 09:27:32			0	35540	0	0	0	25971	24520	151804	27204	1025518	43230	109614	0	0	8145	653466	0	0
2024-07-02 09:28:32			0	35499	0	0	0	25971	24530	151864	27026	1025643	43253	109614	0	0	8142	655228	0	0
2024-07-02 09:29:32			0	35504	0	0	0	25971	24520	151964	27064	1025625	43252	109614	0	0	8143	655045	0	0
2024-07-02 09:30:32			0	35487	0	0	0	25989	24530	152016	26859	1025625	43254	109621	0	0	8142	655755	0	0
2024-07-02 09:31:32			0	35484	0	0	0	25971	24540	152088	27222	1025660	43254	109614	0	0	8142	655849	0	0
2024-07-02 09:32:32			0	35452	0	0	0	25979	24540	152080	27140	1025660	43265	109617	0	0	8140	657257	0	0
2024-07-02 09:33:32			0	35454	0	0	0	25994	24540	152132	27306	1025695	43243	109623	0	0	8140	657169	0	0
2024-07-02 09:34:32			0	35462	0	0	0	25986	24550	152152	27201	1025739	43234	109620	0	0	8140	656780	0	0
2024-07-02 09:35:32			0	35450	0	0	0	25994	24550	152088	27142	1025739	43245	109623	0	0	8140	657308	0	0
2024-07-02 09:36:32			0	35449	0	0	0	25992	24550	152116	27012	1025766	43255	109622	0	0	8140	657352	0	0
2024-07-02 09:37:32			0	35464	0	0	0	25994	24570	152012	26965	1025766	43256	109623	0	0	8140	656617	0	0
2024-07-02 09:38:32			0	35459	0	0	0	26002	24570	152056	27300	1025819	43256	109626	0	0	8140	656837	0	0
2024-07-02 09:39:32			0	35463	0	0	0	26010	24570	152020	27118	1025855	43247	109629	0	0	8140	656661	0	0
2024-07-02 09:40:32			0	35450	0	0	0	26015	24570	152092	27313	1025900	43246	109631	0	0	8139	657233	0	0
2024-07-02 09:41:32			0	35467	0	0	0	26031	24590	152060	27296	1025881	43248	109637	0	0	8140	656411	0	0
2024-07-02 09:42:32			0	35468	0	0	0	26025	24590	152012	27223	1025970	43249	109635	0	0	8140	656367	0	0
2024-07-02 09:43:32			0	35476	0	0	0	26031	24590	151992	27206	1025970	43259	109637	0	0	8140	656015	0	0
2024-07-02 09:44:32			0	35491	0	0	0	26028	24590	152032	26927	1025907	43248	109636	0	0	8141	655357	0	0
2024-07-02 09:45:32			0	35494	0	0	0	26033	24590	151864	26993	1025916	43249	109638	0	0	8141	655225	0	0
2024-07-02 09:46:32			0	35520	0	0	0	26033	24600	151824	27131	1025951	43249	109638	0	0	8143	654047	0	0
2024-07-02 09:47:32			0	35533	0	0	0	26025	24600	151668	27216	1025871	43259	109635	0	0	8144	653477	0	0
2024-07-02 09:48:32			0	35572	0	0	0	26025	24600	151648	27098	1025933	43250	109635	0	0	8146	651769	0	0
2024-07-02 09:49:32			0	35577	0	0	0	26028	24600	151532	27039	1025933	43238	109636	0	0	8146	651551	0	0
2024-07-02 09:50:32			0	35607	0	0	0	26020	24600	151328	27230	1025933	43238	109633	0	0	8148	650240	0	0
2024-07-02 09:51:32			0	35629	0	0	0	26018	24600	151236	26968	1025933	43250	109632	0	0	8149	649279	0	0
2024-07-02 09:52:32			0	35682	0	0	0	26018	24590	151088	27007	1025943	43259	109632	0	0	8152	647007	0	0
2024-07-02 09:53:32			0	35683	0	0	0	26025	24600	150936	27189	1026014	43238	109635	0	0	8152	646927	0	0
2024-07-02 09:54:32			0	35695	0	0	0	26028	24620	150904	27164	1026004	43250	109636	0	0	8152	646332	0	0
2024-07-02 09:55:32			0	35724	0	0	0	26031	24620	150796	26795	1025977	43250	109637	0	0	8154	645072	0	0
2024-07-02 09:56:32			0	35725	0	0	0	26033	24630	150772	27211	1026022	43262	109638	0	0	8154	644992	0	0
2024-07-02 09:57:32			0	35759	0	0	0	26028	24620	150728	27178	1025986	43251	109636	0	0	8156	643554	0	0
2024-07-02 09:58:32			0	35766	0	0	0	26033	24620	150668	26911	1026040	43262	109638	0	0	8156	643251	0	0
2024-07-02 09:59:32			0	35773	0	0	0	26041	24630	150592	26967	1026022	43273	109641	0	0	8156	642911	0	0
2024-07-02 10:00:32			0	35801	0	0	0	26046	24610	150468	26774	1025996	43238	109643	0	0	8158	641772	0	0
2024-07-02 10:01:32			0	35822	0	0	0	26044	24620	150468	26844	1026093	43240	109642	0	0	8159	640828	0	0
2024-07-02 10:02:32			0	35836	0	0	0	26049	24630	150384	27154	1026022	43240	109644	0	0	8160	640187	0	0
2024-07-02 10:03:32			0	35841	0	0	0	26038	24630	150280	27069	1026003	43262	109640	0	0	8160	639971	0	0
2024-07-02 10:04:32			0	35858	0	0	0	26044	24630	150244	27159	1026102	43262	109642	0	0	8161	639237	0	0
2024-07-02 10:05:32			0	35860	0	0	0	26054	24640	150193	27197	1026119	43263	109646	0	0	8161	639115	0	0
2024-07-02 10:06:32			0	35868	0	0	0	26064	24640	150309	27177	1026119	43263	109650	0	0	8161	638770	0	0
2024-07-02 10:07:32			0	35869	0	0	0	26057	24640	150205	27074	1026074	43242	109647	0	0	8161	638727	0	0
2024-07-02 10:08:32			0	35882	0	0	0	26054	24640	150209	27284	1026128	43253	109646	0	0	8162	638167	0	0
2024-07-02 10:09:32			0	35891	0	0	0	26046	24640	150073	27026	1026074	43242	109643	0	0	8163	637779	0	0
2024-07-02 10:10:32			0	35892	0	0	0	26059	24640	150021	26953	1026146	43252	109648	0	0	8162	637736	0	0
2024-07-02 10:11:32			0	35900	0	0	0	26067	24640	150077	27175	1026155	43242	109651	0	0	8163	637392	0	0
2024-07-02 10:12:32			0	35901	0	0	0	26070	24650	150025	26970	1026163	43253	109652	0	0	8163	637313	0	0
2024-07-02 10:13:32			0	35898	0	0	0	26067	24650	150025	27093	1026163	43264	109651	0	0	8163	637442	0	0
2024-07-02 10:14:32			0	35904	0	0	0	26067	24640	150073	26909	1026128	43231	109651	0	0	8163	637219	0	0
2024-07-02 10:15:32			0	35899	0	0	0	26070	24640	149945	27142	1026155	43264	109652	0	0	8163	637435	0	0
2024-07-02 10:16:32			0	35923	0	0	0	26072	24660	150001	27156	1026261	43254	109653	0	0	8164	636330	0	0
2024-07-02 10:17:32			0	35926	0	0	0	26072	24660	150033	26795	1026181	43254	109653	0	0	8164	636201	0	0
2024-07-02 10:18:32			0	35951	0	0	0	26070	24650	149901	27258	1026225	43243	109652	0	0	8165	635163	0	0
2024-07-02 10:19:32			0	35936	0	0	0	26077	24670	149921	26942	1026305	43266	109655	0	0	8165	635736	0	0
2024-07-02 10:20:32			0	35934	0	0	0	26080	24660	149865	27128	1026234	43265	109656	0	0	8164	635858	0	0
2024-07-02 10:21:32			0	35950	0	0	0	26080	24670	149901	27111	1026278	43266	109656	0	0	8165	635134	0	0
2024-07-02 10:22:32			0	35952	0	0	0	26096	24660	149921	27249	1026270	43244	109662	0	0	8165	635084	0	0
2024-07-02 10:23:32			0	35939	0	0	0	26093	24660	149841	27190	1026288	43265	109661	0	0	8164	635643	0	0
2024-07-02 10:24:32			0	35961	0	0	0	26101	24670	149873	27202	1026358	43266	109664	0	0	8166	634662	0	0
2024-07-02 10:25:32			0	35967	0	0	0	26122	24690	149833	27242	1026447	43268	109672	0	0	8166	634333	0	0
2024-07-02 10:26:32			0	35939	0	0	0	26140	24690	149869	27338	1026447	43279	109679	0	0	8164	635535	0	0
2024-07-02 10:27:32			0	35961	0	0	0	26145	24690	149813	27071	1026482	43280	109681	0	0	8165	634590	0	0
2024-07-02 10:28:32			0	35967	0	0	0	26137	24700	149793	26882	1026518	43270	109678	0	0	8165	634297	0	0
2024-07-02 10:29:32			0	35983	0	0	0	26148	24700	149713	27232	1026500	43258	109682	0	0	8166	633611	0	0
2024-07-02 10:30:32			0	35981	0	0	0	26137	24700	149833	27227	1026464	43270	109678	0	0	8166	633697	0	0
2024-07-02 10:31:32			0	35992	0	0	0	26137	24700	149625	27100	1026526	43258	109678	0	0	8167	633226	0	0
2024-07-02 10:32:32			0	36007	0	0	0	26140	24700	149677	27069	1026500	43270	109679	0	0	8167	632583	0	0
2024-07-02 10:33:32			0	36013	0	0	0	26127	24710	149677	27138	1026490	43259	109674	0	0	8168	632291	0	0
2024-07-02 10:34:32			0	36013	0	0	0	26114	24700	149537	26963	1026446	43258	109669	0	0	8168	632326	0	0
2024-07-02 10:35:32			0	36035	0	0	0	26124	24720	149453	27147	1026499	43283	109673	0	0	8169	631314	0	0
2024-07-02 10:36:32			0	36048	0	0	0	26132	24710	149429	26759	1026428	43258	109676	0	0	8170	630794	0	0
2024-07-02 10:37:32			0	36029	0	0	0	26148	24710	149325	26956	1026535	43270	109682	0	0	8169	631606	0	0
2024-07-02 10:38:32			0	36032	0	0	0	26150	24730	149413	27204	1026597	43272	109683	0	0	8169	631406	0	0
2024-07-02 10:39:32			0	36035	0	0	0	26153	24730	149473	27156	1026578	43261	109684	0	0	8169	631278	0	0
2024-07-02 10:40:32			0	36020	0	0	0	26161	24740	149549	27277	1026614	43262	109687	0	0	8168	631884	0	0
2024-07-02 10:41:32			0	35990	0	0	0	26166	24730	149661	27137	1026605	43261	109689	0	0	8166	633204	0	0
2024-07-02 10:42:32			0	35994	0	0	0	26168	24730	149737	27300	1026659	43261	109690	0	0	8166	633032	0	0
2024-07-02 10:43:32			0	35979	0	0	0	26174	24740	149705	27176	1026667	43262	109692	0	0	8166	633639	0	0
2024-07-02 10:44:32			0	35956	0	0	0	26163	24740	149685	27246	1026694	43273	109688	0	0	8165	634625	0	0
2024-07-02 10:45:32			0	35939	0	0	0	26163	24740	149789	27178	1026667	43273	109688	0	0	8164	635355	0	0
2024-07-02 10:46:32			0	35903	0	0	0	26168	24750	149961	27052	1026747	43274	109690	0	0	8162	636866	0	0
2024-07-02 10:47:32			0	35908	0	0	0	26174	24740	149901	27081	1026649	43273	109692	0	0	8162	636687	0	0
2024-07-02 10:48:32			0	35904	0	0	0	26174	24750	149985	27168	1026658	43263	109692	0	0	8162	636823	0	0
2024-07-02 10:49:32			0	35922	0	0	0	26171	24750	149977	26804	1026720	43263	109691	0	0	8163	636049	0	0
2024-07-02 10:50:32			0	35907	0	0	0	26176	24750	149921	27215	1026711	43263	109693	0	0	8162	636694	0	0
2024-07-02 10:51:32			0	35905	0	0	0	26181	24760	149969	27206	1026702	43252	109695	0	0	8162	636744	0	0
2024-07-02 10:52:32			0	35918	0	0	0	26176	24770	149909	27291	1026746	43276	109693	0	0	8162	636149	0	0
2024-07-02 10:53:32			0	35905	0	0	0	26189	24760	149917	27223	1026675	43275	109698	0	0	8161	636744	0	0
2024-07-02 10:54:32			0	35909	0	0	0	26184	24770	149869	27367	1026746	43265	109696	0	0	8162	636536	0	0
2024-07-02 10:55:32			0	35940	0	0	0	26197	24760	149921	27300	1026809	43286	109701	0	0	8163	635240	0	0
2024-07-02 10:56:32			0	35938	0	0	0	26192	24760	149821	27164	1026791	43276	109699	0	0	8163	635326	0	0
2024-07-02 10:57:32			0	35944	0	0	0	26192	24780	149953	27045	1026799	43267	109699	0	0	8164	634996	0	0
2024-07-02 10:58:32			0	35954	0	0	0	26197	24770	149777	26922	1026773	43276	109701	0	0	8164	634603	0	0
2024-07-02 10:59:32			0	35972	0	0	0	26189	24770	149797	27324	1026808	43265	109698	0	0	8165	633831	0	0
2024-07-02 11:00:32			0	35964	0	0	0	26189	24770	149681	27107	1026728	43265	109698	0	0	8165	634174	0	0
2024-07-02 11:01:32			0	35988	0	0	0	26186	24770	149617	26927	1026800	43265	109697	0	0	8166	633146	0	0
2024-07-02 11:02:32			0	36016	0	0	0	26192	24770	149469	27317	1026782	43276	109699	0	0	8167	631948	0	0
2024-07-02 11:03:32			0	36028	0	0	0	26194	24770	149497	27348	1026782	43265	109700	0	0	8168	631434	0	0
2024-07-02 11:04:32			0	36047	0	0	0	26194	24770	149425	26951	1026808	43276	109700	0	0	8169	630623	0	0
2024-07-02 11:05:32			0	36055	0	0	0	26192	24770	149429	27448	1026808	43265	109699	0	0	8169	630281	0	0
2024-07-02 11:06:32			0	36080	0	0	0	26184	24780	149365	26951	1026817	43266	109696	0	0	8171	629179	0	0
2024-07-02 11:07:32			0	36124	0	0	0	26163	24780	149033	26901	1026844	43254	109688	0	0	8174	627305	0	0
2024-07-02 11:08:32			0	36164	0	0	0	26166	24770	148929	26972	1026728	43265	109689	0	0	8176	625640	0	0
2024-07-02 11:09:32			0	36186	0	0	0	26161	24760	148769	27343	1026764	43276	109687	0	0	8177	624741	0	0
2024-07-02 11:10:32			0	36224	0	0	0	26174	24770	148721	27135	1026773	43276	109692	0	0	8179	623095	0	0
2024-07-02 11:11:32			0	36236	0	0	0	26174	24770	148549	27237	1026755	43276	109692	0	0	8179	622588	0	0
2024-07-02 11:12:32			0	36260	0	0	0	26174	24770	148609	27015	1026719	43287	109692	0	0	8181	621572	0	0
2024-07-02 11:13:32			0	36282	0	0	0	26174	24770	148517	27093	1026719	43265	109692	0	0	8182	620643	0	0
2024-07-02 11:14:32			0	36298	0	0	0	26189	24770	148353	27329	1026800	43265	109698	0	0	8182	619967	0	0
2024-07-02 11:15:32			0	36307	0	0	0	26194	24780	148445	26922	1026852	43278	109700	0	0	8183	619553	0	0
2024-07-02 11:16:32			0	36298	0	0	0	26197	24780	148469	27339	1026879	43278	109701	0	0	8182	619932	0	0
2024-07-02 11:17:32			0	36292	0	0	0	26205	24780	148549	27123	1026871	43266	109704	0	0	8182	620185	0	0
2024-07-02 11:18:32			0	36308	0	0	0	26199	24780	148533	26882	1026817	43266	109702	0	0	8183	619511	0	0
2024-07-02 11:19:32			0	36306	0	0	0	26194	24780	148365	27078	1026826	43278	109700	0	0	8183	619595	0	0
2024-07-02 11:20:32			0	36340	0	0	0	26186	24790	148177	26908	1026808	43267	109697	0	0	8185	618127	0	0
2024-07-02 11:21:32			0	36373	0	0	0	26189	24770	148181	27039	1026755	43276	109698	0	0	8186	616808	0	0
2024-07-02 11:22:32			0	36390	0	0	0	26186	24780	147961	27175	1026826	43267	109697	0	0	8187	616059	0	0
2024-07-02 11:23:32			0	36394	0	0	0	26197	24780	147917	26935	1026844	43277	109701	0	0	8187	615891	0	0
2024-07-02 11:24:32			0	36415	0	0	0	26192	24780	147949	27253	1026826	43278	109699	0	0	8188	615009	0	0
2024-07-02 11:25:32			0	36421	0	0	0	26199	24790	147981	27083	1026870	43278	109702	0	0	8189	614722	0	0
2024-07-02 11:26:32			0	36443	0	0	0	26194	24790	147781	27152	1026834	43278	109700	0	0	8190	613800	0	0
2024-07-02 11:27:32			0	36425	0	0	0	26197	24790	147821	27001	1026861	43267	109701	0	0	8189	614555	0	0
2024-07-02 11:28:32			0	36452	0	0	0	26194	24800	147741	27008	1026914	43291	109700	0	0	8190	613388	0	0
2024-07-02 11:29:32			0	36476	0	0	0	26205	24790	147709	27133	1026861	43278	109704	0	0	8192	612418	0	0
2024-07-02 11:30:32			0	36481	0	0	0	26210	24800	147741	27060	1026959	43268	109706	0	0	8192	612175	0	0
2024-07-02 11:31:32			0	36481	0	0	0	26202	24790	147621	27346	1026923	43278	109703	0	0	8192	612209	0	0
2024-07-02 11:32:32			0	36489	0	0	0	26212	24810	147569	26793	1026950	43268	109707	0	0	8192	611805	0	0
2024-07-02 11:33:32			0	36487	0	0	0	26257	24800	147681	27241	1026994	43280	109724	0	0	8191	611924	0	0
2024-07-02 11:34:32			0	36451	0	0	0	26270	24820	147817	26840	1027128	43291	109729	0	0	8189	613361	0	0
2024-07-02 11:35:32			0	36446	0	0	0	26285	24820	147805	27152	1027136	43292	109735	0	0	8189	613570	0	0
2024-07-02 11:36:32			0	36438	0	0	0	26314	24840	147833	27258	1027278	43294	109746	0	0	8188	613836	0	0
2024-07-02 11:37:32			0	36422	0	0	0	26309	24850	147909	27279	1027260	43295	109744	0	0	8187	614472	0	0
2024-07-02 11:38:32			0	36436	0	0	0	26301	24860	147785	27317	1027224	43273	109741	0	0	8188	613850	0	0
2024-07-02 11:39:32			0	36448	0	0	0	26296	24860	147729	27284	1027304	43285	109739	0	0	8189	613347	0	0
2024-07-02 11:40:32			0	36472	0	0	0	26303	24870	147605	27027	1027321	43275	109742	0	0	8190	612308	0	0
2024-07-02 11:41:32			0	36488	0	0	0	26322	24870	147597	27176	1027330	43297	109749	0	0	8191	611639	0	0
2024-07-02 11:42:32			0	36493	0	0	0	26366	24890	147581	26974	1027517	43310	109766	0	0	8190	611361	0	0
2024-07-02 11:43:32			0	36482	0	0	0	26386	24890	147589	27445	1027517	43299	109774	0	0	8189	611821	0	0
2024-07-02 11:44:32			0	36481	0	0	0	26407	24920	147589	27253	1027614	43301	109782	0	0	8189	611759	0	0
2024-07-02 11:45:32			0	36483	0	0	0	26397	24920	147549	26928	1027649	43301	109778	0	0	8189	611675	0	0
2024-07-02 11:46:32			0	36507	0	0	0	26366	24930	147337	27293	1027506	43291	109766	0	0	8191	610638	0	0
2024-07-02 11:47:32			0	36579	0	0	0	26340	24930	147165	27123	1027506	43269	109756	0	0	8195	607637	0	0
2024-07-02 11:48:32			0	36614	0	0	0	26319	24930	147010	27131	1027443	43301	109748	0	0	8197	606182	0	0
2024-07-02 11:49:32			0	36639	0	0	0	26298	24910	146926	27274	1027471	43279	109740	0	0	8199	605213	0	0
2024-07-02 11:50:32			0	36666	0	0	0	26288	24910	146790	27294	1027391	43290	109736	0	0	8201	604094	0	0
2024-07-02 11:51:32			0	36693	0	0	0	26270	24900	146634	27438	1027320	43278	109729	0	0	8202	603010	0	0
2024-07-02 11:52:32			0	36743	0	0	0	26249	24890	146442	27312	1027249	43277	109721	0	0	8205	600977	0	0
2024-07-02 11:53:32			0	36760	0	0	0	26233	24880	146450	26892	1027213	43276	109715	0	0	8206	600309	0	0
2024-07-02 11:54:32			0	36772	0	0	0	26223	24870	146434	27098	1027223	43275	109711	0	0	8207	599848	0	0
2024-07-02 11:55:32			0	36807	0	0	0	26220	24870	146342	27111	1027187	43264	109710	0	0	8209	598406	0	0
2024-07-02 11:56:32			0	36811	0	0	0	26231	24870	146182	27050	1027187	43264	109714	0	0	8209	598241	0	0
2024-07-02 11:57:32			0	36825	0	0	0	26233	24870	146254	27031	1027241	43275	109715	0	0	8210	597665	0	0
2024-07-02 11:58:32			0	36802	0	0	0	26267	24890	146250	27473	1027383	43288	109728	0	0	8208	598544	0	0
2024-07-02 11:59:32			0	36801	0	0	0	26306	24890	146278	27353	1027410	43299	109743	0	0	8207	598585	0	0
2024-07-02 12:00:32			0	36795	0	0	0	26342	24900	146390	27133	1027534	43289	109757	0	0	8206	598798	0	0
2024-07-02 12:01:32			0	36768	0	0	0	26363	24920	146530	27507	1027595	43301	109765	0	0	8205	599843	0	0
2024-07-02 12:02:32			0	36750	0	0	0	26392	24930	146558	27405	1027747	43302	109776	0	0	8203	600552	0	0
2024-07-02 12:03:32			0	36716	0	0	0	26420	24940	146622	27414	1027764	43303	109787	0	0	8201	601922	0	0
2024-07-02 12:04:32			0	36710	0	0	0	26441	24950	146614	27234	1027862	43316	109795	0	0	8200	602136	0	0
2024-07-02 12:05:32			0	36714	0	0	0	26446	24970	146562	27416	1027897	43306	109797	0	0	8201	601902	0	0
2024-07-02 12:06:32			0	36701	0	0	0	26464	24980	146714	27438	1027959	43296	109804	0	0	8200	602405	0	0
2024-07-02 12:07:32			0	36714	0	0	0	26462	25000	146666	27206	1028047	43309	109803	0	0	8201	601800	0	0
2024-07-02 12:08:32			0	36718	0	0	0	26488	25000	146578	27074	1028101	43298	109813	0	0	8200	601635	0	0
2024-07-02 12:09:32			0	36746	0	0	0	26485	25010	146510	26982	1028100	43298	109812	0	0	8202	600444	0	0
2024-07-02 12:10:32			0	36718	0	0	0	26493	25020	146538	27187	1028055	43299	109815	0	0	8200	601566	0	0
2024-07-02 12:11:32			0	36718	0	0	0	26503	25030	146562	27074	1028153	43301	109819	0	0	8200	601532	0	0
2024-07-02 12:12:32			0	36735	0	0	0	26509	25030	146622	27393	1028207	43301	109821	0	0	8201	600830	0	0
2024-07-02 12:13:32			0	36707	0	0	0	26522	25050	146602	26963	1028241	43326	109826	0	0	8199	601918	0	0
2024-07-02 12:14:32			0	36688	0	0	0	26529	25060	146734	27109	1028286	43315	109829	0	0	8198	602670	0	0
2024-07-02 12:15:32			0	36684	0	0	0	26550	25070	146702	27209	1028365	43316	109837	0	0	8198	602801	0	0
2024-07-02 12:16:32			0	36674	0	0	0	26558	25080	146678	27215	1028436	43317	109840	0	0	8197	603181	0	0
2024-07-02 12:17:32			0	36668	0	0	0	26566	25090	146786	27180	1028472	43307	109843	0	0	8197	603395	0	0
2024-07-02 12:18:32			0	36668	0	0	0	26574	25090	146718	27093	1028427	43319	109846	0	0	8197	603395	0	0
2024-07-02 12:19:32			0	36677	0	0	0	26579	25100	146818	27376	1028489	43319	109848	0	0	8197	602988	0	0
2024-07-02 12:20:32			0	36640	0	0	0	26581	25120	146794	27163	1028559	43310	109849	0	0	8195	604452	0	0
2024-07-02 12:21:32			0	36642	0	0	0	26594	25130	146802	26977	1028603	43333	109854	0	0	8195	604334	0	0
2024-07-02 12:22:32			0	36621	0	0	0	26599	25110	146758	27020	1028595	43298	109856	0	0	8194	605274	0	0
2024-07-02 12:23:32			0	36624	0	0	0	26597	25140	146858	27124	1028648	43323	109855	0	0	8194	605046	0	0
2024-07-02 12:24:32			0	36640	0	0	0	26589	25140	146918	27244	1028639	43333	109852	0	0	8195	604383	0	0
2024-07-02 12:25:32			0	36619	0	0	0	26589	25140	146938	27182	1028674	43312	109852	0	0	8194	605253	0	0
2024-07-02 12:26:32			0	36620	0	0	0	26599	25150	146874	27053	1028683	43334	109856	0	0	8194	605178	0	0
2024-07-02 12:27:32			0	36574	0	0	0	26607	25150	147005	27176	1028737	43324	109859	0	0	8191	607087	0	0
2024-07-02 12:28:32			0	36598	0	0	0	26625	25160	146977	26807	1028789	43326	109866	0	0	8192	606056	0	0
2024-07-02 12:29:32			0	36582	0	0	0	26641	25170	146965	27116	1028852	43336	109872	0	0	8191	606686	0	0
2024-07-02 12:30:32			0	36578	0	0	0	26649	25180	147013	27057	1028905	43328	109875	0	0	8191	606818	0	0
2024-07-02 12:31:32			0	36564	0	0	0	26654	25180	147053	27284	1028851	43316	109877	0	0	8190	607400	0	0
2024-07-02 12:32:32			0	36572	0	0	0	26659	25200	146973	27109	1028895	43329	109879	0	0	8191	606998	0	0
2024-07-02 12:33:32			0	36549	0	0	0	26667	25200	146961	27199	1028984	43318	109882	0	0	8189	607954	0	0
2024-07-02 12:34:32			0	36567	0	0	0	26680	25220	147013	27168	1029037	43319	109887	0	0	8190	607137	0	0
2024-07-02 12:35:32			0	36563	0	0	0	26680	25220	146981	27111	1028992	43342	109887	0	0	8190	607303	0	0
2024-07-02 12:36:32			0	36546	0	0	0	26672	25230	147113	27223	1029055	43331	109884	0	0	8189	607976	0	0
2024-07-02 12:37:32			0	36560	0	0	0	26667	25230	147061	27291	1028983	43332	109882	0	0	8190	607393	0	0
2024-07-02 12:38:32			0	36551	0	0	0	26654	25230	146973	27213	1029028	43331	109877	0	0	8190	607768	0	0
2024-07-02 12:39:32			0	36538	0	0	0	26654	25230	147045	26901	1029010	43321	109877	0	0	8189	608309	0	0
2024-07-02 12:40:32			0	36560	0	0	0	26646	25230	147029	27196	1029028	43309	109874	0	0	8190	607393	0	0
2024-07-02 12:41:32			0	36556	0	0	0	26654	25230	147009	27121	1029010	43332	109877	0	0	8190	607560	0	0
2024-07-02 12:42:32			0	36545	0	0	0	26641	25230	146965	27272	1029010	43321	109872	0	0	8190	608017	0	0
2024-07-02 12:43:32			0	36578	0	0	0	26636	25230	146997	27242	1029063	43332	109870	0	0	8191	606646	0	0
2024-07-02 12:44:32			0	36573	0	0	0	26633	25240	147025	27062	1028965	43321	109869	0	0	8191	606819	0	0
2024-07-02 12:45:32			0	36572	0	0	0	26651	25230	147069	27045	1028983	43321	109876	0	0	8191	606895	0	0
2024-07-02 12:46:32			0	36583	0	0	0	26664	25250	146921	27275	1029143	43344	109881	0	0	8191	606369	0	0
2024-07-02 12:47:32			0	36551	0	0	0	26693	25250	146953	27197	1029232	43356	109892	0	0	8189	607699	0	0
2024-07-02 12:48:32			0	36569	0	0	0	26727	25250	146933	27159	1029223	43333	109905	0	0	8190	606951	0	0
2024-07-02 12:49:32			0	36608	0	0	0	26729	25270	146882	27046	1029231	43324	109906	0	0	8192	605263	0	0
2024-07-02 12:50:32			0	36598	0	0	0	26727	25270	146834	27248	1029258	43324	109905	0	0	8191	605678	0	0
2024-07-02 12:51:32			0	36610	0	0	0	26716	25270	146826	27206	1029267	43325	109901	0	0	8192	605180	0	0
2024-07-02 12:52:32			0	36618	0	0	0	26716	25280	146794	27274	1029302	43336	109901	0	0	8192	604814	0	0
2024-07-02 12:53:32			0	36613	0	0	0	26732	25280	146814	27227	1029338	43347	109907	0	0	8192	605021	0	0
2024-07-02 12:54:32			0	36611	0	0	0	26724	25280	146794	27220	1029338	43336	109904	0	0	8192	605104	0	0
2024-07-02 12:55:32			0	36623	0	0	0	26711	25290	146722	27216	1029319	43314	109899	0	0	8193	604572	0	0
2024-07-02 12:56:32			0	36627	0	0	0	26711	25280	146738	26965	1029257	43326	109899	0	0	8193	604441	0	0
2024-07-02 12:57:32			0	36641	0	0	0	26693	25280	146682	27196	1029230	43314	109892	0	0	8194	603861	0	0
2024-07-02 12:58:32			0	36641	0	0	0	26688	25280	146786	27150	1029204	43326	109890	0	0	8194	603861	0	0
2024-07-02 12:59:32			0	36645	0	0	0	26683	25270	146626	27319	1029240	43325	109888	0	0	8194	603730	0	0
2024-07-02 13:00:32			0	36649	0	0	0	26685	25280	146650	26981	1029168	43336	109889	0	0	8195	603530	0	0
2024-07-02 13:01:32			0	36657	0	0	0	26690	25280	146622	27246	1029249	43326	109891	0	0	8195	603199	0	0
2024-07-02 13:02:32			0	36658	0	0	0	26683	25270	146586	27336	1029240	43335	109888	0	0	8195	603192	0	0
2024-07-02 13:03:32			0	36657	0	0	0	26690	25280	146570	27161	1029284	43336	109891	0	0	8195	603199	0	0
2024-07-02 13:04:32			0	36662	0	0	0	26685	25280	146590	27121	1029275	43347	109889	0	0	8195	602992	0	0
2024-07-02 13:05:32			0	36674	0	0	0	26703	25280	146550	27199	1029284	43336	109896	0	0	8196	602496	0	0
2024-07-02 13:06:32			0	36696	0	0	0	26716	25290	146510	27183	1029400	43326	109901	0	0	8197	601553	0	0
2024-07-02 13:07:32			0	36654	0	0	0	26729	25290	146486	27225	1029382	43348	109906	0	0	8194	603289	0	0
2024-07-02 13:08:32			0	36685	0	0	0	26737	25300	146562	27307	1029498	43349	109909	0	0	8196	601973	0	0
2024-07-02 13:09:32			0	36682	0	0	0	26758	25300	146478	27407	1029426	43349	109917	0	0	8195	602097	0	0
2024-07-02 13:10:32			0	36706	0	0	0	26766	25300	146486	27305	1029533	43338	109920	0	0	8196	601106	0	0
2024-07-02 13:11:32			0	36685	0	0	0	26773	25320	146410	27164	1029515	43351	109923	0	0	8195	601905	0	0
2024-07-02 13:12:32			0	36707	0	0	0	26766	25320	146382	27393	1029506	43340	109920	0	0	8196	600997	0	0
2024-07-02 13:13:32			0	36699	0	0	0	26750	25320	146390	27298	1029506	43340	109914	0	0	8196	601327	0	0
2024-07-02 13:14:32			0	36721	0	0	0	26748	25320	146366	27298	1029488	43329	109913	0	0	8197	600419	0	0
2024-07-02 13:15:32			0	36725	0	0	0	26735	25320	146390	27329	1029506	43351	109908	0	0	8198	600254	0	0
2024-07-02 13:16:32			0	36725	0	0	0	26740	25310	146302	27338	1029435	43317	109910	0	0	8198	600288	0	0
2024-07-02 13:17:32			0	36735	0	0	0	26727	25310	146282	27119	1029390	43329	109905	0	0	8199	599876	0	0
2024-07-02 13:18:32			0	36739	0	0	0	26722	25310	146246	27180	1029390	43317	109903	0	0	8199	599711	0	0
2024-07-02 13:19:32			0	36742	0	0	0	26714	25310	146258	27428	1029444	43339	109900	0	0	8199	599588	0	0
2024-07-02 13:20:32			0	36750	0	0	0	26719	25310	146202	27313	1029363	43329	109902	0	0	8199	599258	0	0
2024-07-02 13:21:32			0	36741	0	0	0	26709	25300	146214	27064	1029373	43328	109898	0	0	8199	599663	0	0
2024-07-02 13:22:32			0	36752	0	0	0	26701	25320	146214	27104	1029452	43340	109895	0	0	8200	599142	0	0
2024-07-02 13:23:32			0	36768	0	0	0	26709	25310	146170	27471	1029417	43329	109898	0	0	8201	598517	0	0
2024-07-02 13:24:32			0	36742	0	0	0	26714	25310	146258	27417	1029444	43329	109900	0	0	8199	599588	0	0
2024-07-02 13:25:32			0	36745	0	0	0	26729	25310	146302	27059	1029497	43350	109906	0	0	8199	599464	0	0
2024-07-02 13:26:32			0	36732	0	0	0	26748	25320	146254	27322	1029506	43340	109913	0	0	8198	599966	0	0
2024-07-02 13:27:32			0	36731	0	0	0	26768	25320	146274	27326	1029488	43340	109921	0	0	8198	600007	0	0
2024-07-02 13:28:32			0	36737	0	0	0	26758	25320	146338	27274	1029515	43329	109917	0	0	8198	599760	0	0
2024-07-02 13:29:32			0	36748	0	0	0	26761	25330	146386	27275	1029478	43352	109918	0	0	8199	599272	0	0
2024-07-02 13:30:32			0	36734	0	0	0	26745	25320	146342	27313	1029515	43329	109912	0	0	8198	599883	0	0
2024-07-02 13:31:32			0	36723	0	0	0	26748	25320	146278	27294	1029461	43329	109913	0	0	8198	600337	0	0
2024-07-02 13:32:32			0	36729	0	0	0	26745	25320	146434	27189	1029479	43329	109912	0	0	8198	600089	0	0
2024-07-02 13:33:32			0	36710	0	0	0	26740	25330	146314	27320	1029443	43308	109910	0	0	8197	600839	0	0
2024-07-02 13:34:32			0	36702	0	0	0	26742	25330	146350	27005	1029523	43341	109911	0	0	8197	601169	0	0
2024-07-02 13:35:32			0	36700	0	0	0	26740	25330	146378	26979	1029532	43330	109910	0	0	8197	601251	0	0
2024-07-02 13:36:32			0	36725	0	0	0	26722	25330	146438	26981	1029470	43330	109903	0	0	8198	600220	0	0
2024-07-02 13:37:32			0	36701	0	0	0	26709	25320	146354	27336	1029372	43340	109898	0	0	8197	601244	0	0
2024-07-02 13:38:32			0	36690	0	0	0	26703	25320	146334	27204	1029399	43329	109896	0	0	8197	601698	0	0
2024-07-02 13:39:32			0	36701	0	0	0	26703	25320	146362	27261	1029399	43340	109896	0	0	8197	601244	0	0
2024-07-02 13:40:32			0	36718	0	0	0	26709	25320	146394	27194	1029488	43329	109898	0	0	8198	600543	0	0
2024-07-02 13:41:32			0	36714	0	0	0	26714	25310	146314	27232	1029497	43317	109900	0	0	8198	600742	0	0
2024-07-02 13:42:32			0	36719	0	0	0	26729	25320	146378	27362	1029452	43340	109906	0	0	8198	600502	0	0
2024-07-02 13:43:32			0	36732	0	0	0	26750	25320	146414	27225	1029452	43329	109914	0	0	8198	599966	0	0
2024-07-02 13:44:32			0	36736	0	0	0	26745	25320	146366	27502	1029488	43340	109912	0	0	8198	599801	0	0
2024-07-02 13:45:32			0	36762	0	0	0	26750	25330	146262	27265	1029577	43341	109914	0	0	8200	598696	0	0
2024-07-02 13:46:32			0	36779	0	0	0	26745	25320	146226	27071	1029541	43351	109912	0	0	8201	598031	0	0
2024-07-02 13:47:32			0	36780	0	0	0	26742	25330	146150	27424	1029577	43341	109911	0	0	8201	597956	0	0
2024-07-02 13:48:32			0	36795	0	0	0	26745	25330	146134	27187	1029585	43341	109912	0	0	8201	597339	0	0
2024-07-02 13:49:32			0	36824	0	0	0	26755	25330	146114	27241	1029577	43352	109916	0	0	8203	596148	0	0
2024-07-02 13:50:32			0	36810	0	0	0	26758	25340	146026	27072	1029567	43331	109917	0	0	8202	596689	0	0
2024-07-02 13:51:32			0	36827	0	0	0	26755	25330	146130	27135	1029559	43341	109916	0	0	8203	596025	0	0
2024-07-02 13:52:32			0	36833	0	0	0	26748	25330	146086	27013	1029532	43341	109913	0	0	8203	595779	0	0
2024-07-02 13:53:32			0	36815	0	0	0	26750	25340	146118	27268	1029541	43342	109914	0	0	8202	596484	0	0
2024-07-02 13:54:32			0	36808	0	0	0	26750	25330	146078	26979	1029585	43330	109914	0	0	8202	596805	0	0
2024-07-02 13:55:32			0	36802	0	0	0	26745	25330	146094	27019	1029523	43341	109912	0	0	8202	597051	0	0
2024-07-02 13:56:32			0	36788	0	0	0	26745	25340	146130	27008	1029576	43343	109912	0	0	8201	597593	0	0
2024-07-02 13:57:32			0	36776	0	0	0	26753	25330	146174	26897	1029550	43330	109915	0	0	8200	598120	0	0
2024-07-02 13:58:32			0	36784	0	0	0	26750	25330	146202	27015	1029532	43341	109914	0	0	8201	597791	0	0
2024-07-02 13:59:32			0	36766	0	0	0	26766	25340	146114	27303	1029621	43342	109920	0	0	8200	598498	0	0
2024-07-02 14:00:32			0	36793	0	0	0	26761	25330	146262	27013	1029612	43341	109918	0	0	8201	597421	0	0
2024-07-02 14:01:32			0	36796	0	0	0	26758	25340	146114	27130	1029603	43332	109917	0	0	8201	597264	0	0
2024-07-02 14:02:32			0	36790	0	0	0	26768	25340	146086	27372	1029621	43331	109921	0	0	8201	597510	0	0
2024-07-02 14:03:32			0	36797	0	0	0	26755	25340	146086	27286	1029549	43343	109916	0	0	8201	597223	0	0
2024-07-02 14:04:32			0	36804	0	0	0	26755	25340	146058	27076	1029603	43332	109916	0	0	8202	596935	0	0
2024-07-02 14:05:32			0	36812	0	0	0	26784	25350	146010	27185	1029701	43354	109927	0	0	8202	596573	0	0
2024-07-02 14:06:32			0	36817	0	0	0	26792	25360	146050	27107	1029709	43355	109930	0	0	8202	596334	0	0
2024-07-02 14:07:32			0	36806	0	0	0	26802	25370	146106	27471	1029762	43344	109934	0	0	8201	596751	0	0
2024-07-02 14:08:32			0	36790	0	0	0	26784	25380	146174	27133	1029798	43345	109927	0	0	8201	597375	0	0
2024-07-02 14:09:32			0	36798	0	0	0	26799	25380	146146	27116	1029780	43335	109933	0	0	8201	597046	0	0
2024-07-02 14:10:32			0	36785	0	0	0	26799	25380	146150	27029	1029780	43358	109933	0	0	8200	597580	0	0
2024-07-02 14:11:32			0	36789	0	0	0	26799	25380	146150	27123	1029780	43346	109933	0	0	8200	597416	0	0
2024-07-02 14:12:32			0	36788	0	0	0	26792	25380	146106	27100	1029771	43357	109930	0	0	8200	597457	0	0
2024-07-02 14:13:32			0	36784	0	0	0	26773	25380	146146	27154	1029726	43335	109923	0	0	8201	597621	0	0
2024-07-02 14:14:32			0	36806	0	0	0	26784	25370	146126	27185	1029700	43333	109927	0	0	8202	596751	0	0
2024-07-02 14:15:32			0	36798	0	0	0	26825	25380	146034	26863	1029833	43358	109943	0	0	8200	597046	0	0
2024-07-02 14:16:32			0	36756	0	0	0	26846	25390	146170	27015	1029877	43347	109951	0	0	8198	598739	0	0
2024-07-02 14:17:32			0	36716	0	0	0	26880	25400	146370	27105	1030020	43359	109964	0	0	8195	600352	0	0
2024-07-02 14:18:32			0	36626	0	0	0	26888	25410	146650	27145	1030064	43349	109967	0	0	8191	604036	0	0
2024-07-02 14:19:32			0	36600	0	0	0	26880	25420	146846	27121	1030117	43361	109964	0	0	8189	605079	0	0
2024-07-02 14:20:32			0	36550	0	0	0	26875	25420	147097	27121	1030055	43349	109962	0	0	8187	607154	0	0
2024-07-02 14:21:32			0	36510	0	0	0	26854	25420	147149	27263	1030063	43350	109954	0	0	8185	608817	0	0
2024-07-02 14:22:32			0	36480	0	0	0	26846	25420	147197	27358	1030063	43350	109951	0	0	8184	610067	0	0
2024-07-02 14:23:32			0	36496	0	0	0	26849	25430	147133	27092	1030135	43351	109952	0	0	8184	609365	0	0
2024-07-02 14:24:32			0	36537	0	0	0	26831	25440	146933	27358	1030090	43362	109945	0	0	8187	607625	0	0
2024-07-02 14:25:32			0	36588	0	0	0	26836	25440	146750	27445	1030090	43351	109947	0	0	8190	605508	0	0
2024-07-02 14:26:32			0	36670	0	0	0	26872	25440	146590	27185	1030143	43362	109961	0	0	8193	602114	0	0
2024-07-02 14:27:32			0	36733	0	0	0	26867	25440	146130	27303	1030090	43351	109959	0	0	8197	599515	0	0
2024-07-02 14:28:32			0	36808	0	0	0	26867	25450	145962	27393	1030187	43353	109959	0	0	8201	596398	0	0
2024-07-02 14:29:32			0	36871	0	0	0	26877	25440	145762	27225	1030179	43363	109963	0	0	8204	593850	0	0
2024-07-02 14:30:32			0	36904	0	0	0	26872	25450	145658	27036	1030250	43353	109961	0	0	8205	592467	0	0
2024-07-02 14:31:32			0	36925	0	0	0	26883	25450	145550	27012	1030169	43353	109965	0	0	8206	591610	0	0
2024-07-02 14:32:32			0	36960	0	0	0	26877	25450	145362	27041	1030214	43353	109963	0	0	8208	590182	0	0
2024-07-02 14:33:32			0	36995	0	0	0	26885	25460	145234	27306	1030232	43342	109966	0	0	8210	588724	0	0
2024-07-02 14:34:32			0	37025	0	0	0	26893	25470	145210	26920	1030169	43366	109969	0	0	8212	587471	0	0
2024-07-02 14:35:32			0	37035	0	0	0	26896	25460	145146	27287	1030240	43365	109970	0	0	8212	587098	0	0
2024-07-02 14:36:32			0	37051	0	0	0	26898	25480	145066	26996	1030293	43344	109971	0	0	8213	586382	0	0
2024-07-02 14:37:32			0	37053	0	0	0	26890	25480	145014	27176	1030320	43356	109968	0	0	8213	586301	0	0
2024-07-02 14:38:32			0	37081	0	0	0	26898	25480	144950	27341	1030347	43356	109971	0	0	8214	585166	0	0
2024-07-02 14:39:32			0	37057	0	0	0	26877	25480	144938	27338	1030293	43356	109963	0	0	8214	586139	0	0
2024-07-02 14:40:32			0	37077	0	0	0	26872	25470	144878	27232	1030311	43367	109961	0	0	8215	585361	0	0
2024-07-02 14:41:32			0	37066	0	0	0	26877	25480	144894	27189	1030293	43333	109963	0	0	8214	585774	0	0
2024-07-02 14:42:32			0	37071	0	0	0	26890	25480	144902	26925	1030266	43356	109968	0	0	8214	585571	0	0
2024-07-02 14:43:32			0	37051	0	0	0	26901	25480	144890	26824	1030347	43367	109972	0	0	8213	586382	0	0
2024-07-02 14:44:32			0	37067	0	0	0	26916	25480	144886	27227	1030374	43333	109978	0	0	8213	585733	0	0
2024-07-02 14:45:32			0	37059	0	0	0	26909	25500	144922	27088	1030373	43358	109975	0	0	8213	585991	0	0
2024-07-02 14:46:32			0	37034	0	0	0	26909	25490	144926	26949	1030391	43357	109975	0	0	8212	587039	0	0
2024-07-02 14:47:32			0	37040	0	0	0	26909	25500	145042	27253	1030462	43358	109975	0	0	8212	586762	0	0
2024-07-02 14:48:32			0	37034	0	0	0	26919	25510	145098	27072	1030444	43369	109979	0	0	8212	586972	0	0
2024-07-02 14:49:32			0	37017	0	0	0	26932	25500	145046	27204	1030435	43358	109984	0	0	8211	587696	0	0
2024-07-02 14:50:32			0	37015	0	0	0	26935	25510	145126	27267	1030471	43369	109985	0	0	8210	587743	0	0
2024-07-02 14:51:32			0	36996	0	0	0	26929	25510	145154	27131	1030471	43369	109983	0	0	8210	588516	0	0
2024-07-02 14:52:32			0	37002	0	0	0	26922	25520	145078	27152	1030497	43348	109980	0	0	8210	588239	0	0
2024-07-02 14:53:32			0	37012	0	0	0	26937	25520	145090	27251	1030497	43348	109986	0	0	8210	587832	0	0
2024-07-02 14:54:32			0	37007	0	0	0	26919	25520	145050	27242	1030523	43360	109979	0	0	8210	588035	0	0
2024-07-02 14:55:32			0	37037	0	0	0	26911	25510	144998	27199	1030453	43359	109976	0	0	8212	586850	0	0
2024-07-02 14:56:32			0	37060	0	0	0	26911	25520	144966	27260	1030461	43360	109976	0	0	8213	585884	0	0
2024-07-02 14:57:32			0	37073	0	0	0	26909	25500	144734	27308	1030382	43358	109975	0	0	8214	585423	0	0
2024-07-02 14:58:32			0	37107	0	0	0	26914	25510	144786	27282	1030453	43359	109977	0	0	8216	584013	0	0
2024-07-02 14:59:32			0	37162	0	0	0	26922	25520	144618	27497	1030497	43371	109980	0	0	8218	581758	0	0
2024-07-02 15:00:32			0	37200	0	0	0	26924	25520	144378	27199	1030461	43360	109981	0	0	8220	580226	0	0
2024-07-02 15:01:32			0	37223	0	0	0	26924	25520	144406	27213	1030523	43360	109981	0	0	8222	579300	0	0
2024-07-02 15:02:32			0	37251	0	0	0	26916	25520	144274	27069	1030523	43371	109978	0	0	8223	578174	0	0
2024-07-02 15:03:32			0	37236	0	0	0	26914	25520	144118	27133	1030443	43360	109977	0	0	8222	578777	0	0
2024-07-02 15:04:32			0	37272	0	0	0	26911	25510	144150	27232	1030426	43359	109976	0	0	8224	577363	0	0
2024-07-02 15:05:32			0	37270	0	0	0	26919	25520	144162	26951	1030497	43348	109979	0	0	8224	577410	0	0
2024-07-02 15:06:32			0	37295	0	0	0	26919	25530	144118	27005	1030479	43337	109979	0	0	8225	576374	0	0
2024-07-02 15:07:32			0	37296	0	0	0	26914	25510	144070	27015	1030479	43370	109977	0	0	8225	576400	0	0
2024-07-02 15:08:32			0	37280	0	0	0	26893	25520	144098	27145	1030434	43360	109969	0	0	8225	577009	0	0
2024-07-02 15:09:32			0	37294	0	0	0	26890	25520	144054	27202	1030434	43348	109968	0	0	8226	576447	0	0
2024-07-02 15:10:32			0	37299	0	0	0	26893	25530	144090	27282	1030398	43360	109969	0	0	8226	576214	0	0
2024-07-02 15:11:32			0	37301	0	0	0	26888	25520	144094	27225	1030461	43360	109967	0	0	8226	576167	0	0
2024-07-02 15:12:32			0	37288	0	0	0	26877	25510	143994	26956	1030372	43359	109963	0	0	8226	576721	0	0
2024-07-02 15:13:32			0	37301	0	0	0	26877	25510	144126	26823	1030399	43359	109963	0	0	8226	576199	0	0
2024-07-02 15:14:32			0	37328	0	0	0	26885	25500	143891	27376	1030373	43369	109966	0	0	8228	575150	0	0
2024-07-02 15:15:32			0	37340	0	0	0	26885	25510	143907	27057	1030399	43347	109966	0	0	8228	574637	0	0
2024-07-02 15:16:32			0	37345	0	0	0	26872	25510	143871	27034	1030345	43347	109961	0	0	8229	574437	0	0
2024-07-02 15:17:32			0	37339	0	0	0	26862	25490	143879	27157	1030337	43345	109957	0	0	8228	574742	0	0
2024-07-02 15:18:32			0	37356	0	0	0	26846	25490	143803	27100	1030257	43345	109951	0	0	8230	574062	0	0
2024-07-02 15:19:32			0	37348	0	0	0	26833	25490	143775	26899	1030203	43345	109946	0	0	8229	574382	0	0
2024-07-02 15:20:32			0	37369	0	0	0	26820	25470	143787	27213	1030204	43323	109941	0	0	8231	573607	0	0
2024-07-02 15:21:32			0	37356	0	0	0	26820	25470	143851	27072	1030177	43333	109941	0	0	8230	574127	0	0
2024-07-02 15:22:32			0	37357	0	0	0	26833	25470	143827	26856	1030204	43344	109946	0	0	8230	574087	0	0
2024-07-02 15:23:32			0	37370	0	0	0	26838	25470	143827	27123	1030222	43333	109948	0	0	8230	573567	0	0
2024-07-02 15:24:32			0	37364	0	0	0	26841	25460	143683	26928	1030214	43354	109949	0	0	8230	573840	0	0
2024-07-02 15:25:32			0	37367	0	0	0	26841	25470	143787	27166	1030195	43344	109949	0	0	8230	573687	0	0
2024-07-02 15:26:32			0	37379	0	0	0	26841	25460	143723	26823	1030133	43332	109949	0	0	8231	573240	0	0
2024-07-02 15:27:32			0	37379	0	0	0	26818	25460	143767	26842	1030124	43353	109940	0	0	8231	573240	0	0
2024-07-02 15:28:32			0	37363	0	0	0	26815	25460	143787	27085	1030124	43331	109939	0	0	8230	573880	0	0
2024-07-02 15:29:32			0	37348	0	0	0	26805	25440	143823	27085	1029983	43329	109935	0	0	8230	574545	0	0
2024-07-02 15:30:32			0	37347	0	0	0	26802	25440	143919	27313	1029956	43351	109934	0	0	8230	574585	0	0
2024-07-02 15:31:32			0	37327	0	0	0	26792	25430	143867	27107	1030054	43340	109930	0	0	8229	575419	0	0
2024-07-02 15:32:32			0	37328	0	0	0	26786	25420	143955	27013	1029867	43338	109928	0	0	8229	575412	0	0
2024-07-02 15:33:32			0	37340	0	0	0	26784	25420	143979	27154	1029876	43328	109927	0	0	8230	574931	0	0
2024-07-02 15:34:32			0	37325	0	0	0	26758	25410	143967	27206	1029832	43338	109917	0	0	8229	575565	0	0
2024-07-02 15:35:32			0	37338	0	0	0	26763	25410	143899	27218	1029858	43338	109919	0	0	8230	575044	0	0
2024-07-02 15:36:32			0	37360	0	0	0	26758	25410	143855	26861	1029823	43338	109917	0	0	8231	574163	0	0
2024-07-02 15:37:32			0	37356	0	0	0	26763	25400	143931	27308	1029814	43337	109919	0	0	8231	574356	0	0
2024-07-02 15:38:32			0	37388	0	0	0	26761	25400	143875	27355	1029832	43336	109918	0	0	8232	573076	0	0
2024-07-02 15:39:32			0	37395	0	0	0	26755	25380	143723	26934	1029780	43335	109916	0	0	8233	572861	0	0
2024-07-02 15:40:32			0	37378	0	0	0	26766	25400	143807	27079	1029832	43347	109920	0	0	8232	573476	0	0
2024-07-02 15:41:32			0	37385	0	0	0	26786	25390	143867	27192	1029842	43346	109928	0	0	8232	573228	0	0
2024-07-02 15:42:32			0	37360	0	0	0	26805	25400	143827	27027	1029921	43337	109935	0	0	8230	574196	0	0
2024-07-02 15:43:32			0	37353	0	0	0	26794	25400	143907	27291	1030002	43337	109931	0	0	8230	574476	0	0
2024-07-02 15:44:32			0	37328	0	0	0	26797	25400	144043	27159	1030002	43360	109932	0	0	8229	575477	0	0
2024-07-02 15:45:32			0	37310	0	0	0	26805	25400	144210	27182	1029895	43337	109935	0	0	8228	576199	0	0
2024-07-02 15:46:32			0	37292	0	0	0	26792	25400	144146	26967	1029832	43347	109930	0	0	8227	576921	0	0
2024-07-02 15:47:32			0	37277	0	0	0	26773	25400	144190	27234	1029832	43347	109923	0	0	8226	577523	0	0
2024-07-02 15:48:32			0	37239	0	0	0	26773	25400	144322	27305	1029859	43326	109923	0	0	8224	579051	0	0
2024-07-02 15:49:32			0	37236	0	0	0	26779	25390	144366	27215	1029842	43346	109925	0	0	8224	579205	0	0
2024-07-02 15:50:32			0	37226	0	0	0	26779	25400	144590	27149	1029806	43336	109925	0	0	8224	579574	0	0
2024-07-02 15:51:32			0	37151	0	0	0	26784	25390	144642	27008	1029850	43347	109927	0	0	8220	582632	0	0
2024-07-02 15:52:32			0	37152	0	0	0	26786	25390	144662	27086	1029877	43336	109928	0	0	8220	582592	0	0
2024-07-02 15:53:32			0	37138	0	0	0	26784	25400	144686	27192	1029886	43347	109927	0	0	8219	583125	0	0
2024-07-02 15:54:32			0	37118	0	0	0	26776	25400	144842	27192	1029814	43337	109924	0	0	8218	583933	0	0
2024-07-02 15:55:32			0	37093	0	0	0	26776	25400	144882	27388	1029832	43347	109924	0	0	8217	584946	0	0
2024-07-02 15:56:32			0	37055	0	0	0	26753	25400	145042	27064	1029779	43326	109915	0	0	8215	586486	0	0
2024-07-02 15:57:32			0	37037	0	0	0	26763	25380	145070	27336	1029780	43335	109919	0	0	8214	587284	0	0
2024-07-02 15:58:32			0	37045	0	0	0	26758	25390	144970	27220	1029815	43346	109917	0	0	8215	586926	0	0
2024-07-02 15:59:32			0	37031	0	0	0	26758	25380	145102	27471	1029771	43324	109917	0	0	8214	587528	0	0
2024-07-02 16:00:32			0	37020	0	0	0	26758	25380	145182	27067	1029744	43345	109917	0	0	8213	587975	0	0
2024-07-02 16:01:32			0	37015	0	0	0	26766	25390	145138	27183	1029842	43335	109920	0	0	8213	588145	0	0
2024-07-02 16:02:32			0	37010	0	0	0	26763	25380	145234	27192	1029771	43334	109919	0	0	8213	588381	0	0
2024-07-02 16:03:32			0	37011	0	0	0	26755	25380	145206	27066	1029753	43346	109916	0	0	8213	588341	0	0
2024-07-02 16:04:32			0	37007	0	0	0	26753	25380	145278	27182	1029771	43334	109915	0	0	8213	588503	0	0
2024-07-02 16:05:32			0	36995	0	0	0	26748	25370	145246	27007	1029709	43323	109913	0	0	8212	589025	0	0
2024-07-02 16:06:32			0	37001	0	0	0	26753	25380	145258	27095	1029753	43346	109915	0	0	8212	588747	0	0
2024-07-02 16:07:32			0	37013	0	0	0	26758	25370	145266	27353	1029735	43333	109917	0	0	8213	588293	0	0
2024-07-02 16:08:32			0	37012	0	0	0	26781	25380	145242	27126	1029798	43345	109926	0	0	8212	588300	0	0
2024-07-02 16:09:32			0	37004	0	0	0	26779	25380	145314	26994	1029824	43334	109925	0	0	8212	588625	0	0
2024-07-02 16:10:32			0	36990	0	0	0	26784	25380	145314	27332	1029833	43346	109927	0	0	8211	589195	0	0
2024-07-02 16:11:32			0	36975	0	0	0	26784	25380	145250	27208	1029771	43345	109927	0	0	8210	589806	0	0
2024-07-02 16:12:32			0	36991	0	0	0	26789	25390	145378	27097	1029904	43326	109929	0	0	8211	589121	0	0
2024-07-02 16:13:32			0	36983	0	0	0	26786	25390	145378	27111	1029895	43335	109928	0	0	8211	589447	0	0
2024-07-02 16:14:32			0	36978	0	0	0	26792	25390	145322	27154	1029842	43335	109930	0	0	8210	589650	0	0
2024-07-02 16:15:32			0	36969	0	0	0	26794	25390	145386	27209	1029850	43347	109931	0	0	8210	590017	0	0
2024-07-02 16:16:32			0	36962	0	0	0	26799	25390	145434	27417	1029877	43347	109933	0	0	8209	590302	0	0
2024-07-02 16:17:32			0	36950	0	0	0	26786	25400	145382	26979	1029868	43337	109928	0	0	8209	590758	0	0
2024-07-02 16:18:32			0	36944	0	0	0	26781	25390	145362	27277	1029850	43336	109926	0	0	8209	591036	0	0
2024-07-02 16:19:32			0	36953	0	0	0	26786	25400	145422	26901	1029913	43336	109928	0	0	8209	590636	0	0
2024-07-02 16:20:32			0	36963	0	0	0	26789	25390	145402	27407	1029815	43335	109929	0	0	8210	590261	0	0
2024-07-02 16:21:32			0	36971	0	0	0	26789	25400	145422	27180	1029921	43348	109929	0	0	8210	589902	0	0
2024-07-02 16:22:32			0	36974	0	0	0	26786	25390	145366	27033	1029877	43359	109928	0	0	8210	589813	0	0
2024-07-02 16:23:32			0	36967	0	0	0	26812	25400	145362	27116	1030020	43359	109938	0	0	8210	590065	0	0
2024-07-02 16:24:32			0	36971	0	0	0	26818	25410	145458	27270	1030019	43349	109940	0	0	8210	589868	0	0
2024-07-02 16:25:32			0	36952	0	0	0	26815	25420	145426	26838	1030028	43360	109939	0	0	8209	590609	0	0
2024-07-02 16:26:32			0	36961	0	0	0	26815	25420	145514	27376	1030081	43338	109939	0	0	8209	590242	0	0
2024-07-02 16:27:32			0	36963	0	0	0	26802	25410	145402	27098	1030046	43338	109934	0	0	8210	590194	0	0
2024-07-02 16:28:32			0	36957	0	0	0	26776	25400	145478	27078	1029975	43337	109924	0	0	8210	590472	0	0
2024-07-02 16:29:32			0	36959	0	0	0	26805	25420	145386	27339	1029947	43338	109935	0	0	8209	590324	0	0
2024-07-02 16:30:32			0	36970	0	0	0	26812	25410	145366	27213	1030046	43338	109938	0	0	8210	589909	0	0
2024-07-02 16:31:32			0	36985	0	0	0	26799	25420	145386	27319	1029903	43350	109933	0	0	8211	589265	0	0
2024-07-02 16:32:32			0	36981	0	0	0	26745	25410	145430	27338	1029885	43316	109912	0	0	8211	589461	0	0
2024-07-02 16:33:32			0	36984	0	0	0	26722	25400	145374	27180	1029779	43314	109903	0	0	8212	589372	0	0
2024-07-02 16:34:32			0	37010	0	0	0	26711	25400	145242	27118	1029859	43336	109899	0	0	8214	588315	0	0
2024-07-02 16:35:32			0	37050	0	0	0	26755	25400	145018	27223	1029886	43336	109916	0	0	8215	586689	0	0
2024-07-02 16:36:32			0	37058	0	0	0	26797	25410	145078	27062	1030037	43338	109932	0	0	8215	586331	0	0
2024-07-02 16:37:32			0	37049	0	0	0	26820	25400	145026	27327	1029975	43327	109941	0	0	8214	586730	0	0
2024-07-02 16:38:32			0	37037	0	0	0	26836	25420	145058	27067	1030108	43328	109947	0	0	8213	587150	0	0
2024-07-02 16:39:32			0	37031	0	0	0	26838	25430	145166	27232	1030126	43351	109948	0	0	8213	587361	0	0
2024-07-02 16:40:32			0	37025	0	0	0	26825	25430	145166	27187	1030161	43340	109943	0	0	8213	587604	0	0
2024-07-02 16:41:32			0	36999	0	0	0	26846	25440	145334	26837	1030090	43351	109951	0	0	8211	588628	0	0
2024-07-02 16:42:32			0	36985	0	0	0	26854	25440	145334	27343	1030197	43340	109954	0	0	8210	589198	0	0
2024-07-02 16:43:32			0	36967	0	0	0	26870	25450	145402	27334	1030196	43353	109960	0	0	8209	589897	0	0
2024-07-02 16:44:32			0	36955	0	0	0	26877	25450	145534	27157	1030330	43342	109963	0	0	8208	590386	0	0
2024-07-02 16:45:32			0	36946	0	0	0	26885	25450	145498	27111	1030303	43364	109966	0	0	8207	590753	0	0
2024-07-02 16:46:32			0	36927	0	0	0	26880	25460	145606	27192	1030321	43354	109964	0	0	8207	591495	0	0
2024-07-02 16:47:32			0	36916	0	0	0	26867	25460	145574	27254	1030267	43354	109959	0	0	8206	591944	0	0
2024-07-02 16:48:32			0	36903	0	0	0	26864	25460	145690	27388	1030214	43354	109958	0	0	8206	592474	0	0
2024-07-02 16:49:32			0	36912	0	0	0	26867	25460	145638	26922	1030240	43343	109959	0	0	8206	592107	0	0
2024-07-02 16:50:32			0	36899	0	0	0	26844	25460	145702	27225	1030178	43331	109950	0	0	8206	592638	0	0
2024-07-02 16:51:32			0	36913	0	0	0	26833	25450	145538	27069	1030143	43353	109946	0	0	8207	592100	0	0
2024-07-02 16:52:32			0	36910	0	0	0	26841	25460	145634	27248	1030178	43331	109949	0	0	8206	592189	0	0
2024-07-02 16:53:32			0	36918	0	0	0	26875	25460	145486	26925	1030285	43342	109962	0	0	8206	591862	0	0
2024-07-02 16:54:32			0	36899	0	0	0	26919	25470	145582	27282	1030329	43355	109979	0	0	8205	592604	0	0
2024-07-02 16:55:32			0	36881	0	0	0	26901	25480	145650	27076	1030374	43356	109972	0	0	8204	593306	0	0
2024-07-02 16:56:32			0	36862	0	0	0	26901	25480	145770	27152	1030356	43344	109972	0	0	8203	594084	0	0
2024-07-02 16:57:32			0	36844	0	0	0	26888	25480	145874	27116	1030293	43356	109967	0	0	8202	594821	0	0
2024-07-02 16:58:32			0	36873	0	0	0	26875	25490	145690	26705	1030364	43357	109962	0	0	8204	593600	0	0
2024-07-02 16:59:32			0	36893	0	0	0	26851	25480	145698	26889	1030347	43356	109953	0	0	8205	592816	0	0
2024-07-02 17:00:32			0	36914	0	0	0	26849	25480	145526	26987	1030329	43356	109952	0	0	8207	591958	0	0
2024-07-02 17:01:32			0	36942	0	0	0	26844	25480	145454	26994	1030213	43344	109950	0	0	8208	590815	0	0
2024-07-02 17:02:32			0	36963	0	0	0	26846	25480	145374	27329	1030266	43344	109951	0	0	8209	589959	0	0
2024-07-02 17:03:32			0	36954	0	0	0	26859	25470	145270	27320	1030276	43344	109956	0	0	8208	590360	0	0
2024-07-02 17:04:32			0	36992	0	0	0	26862	25480	145294	27154	1030293	43344	109957	0	0	8210	588779	0	0
2024-07-02 17:05:32			0	36983	0	0	0	26862	25480	145310	27274	1030347	43356	109957	0	0	8210	589145	0	0
2024-07-02 17:06:32			0	37010	0	0	0	26859	25480	145238	27232	1030320	43344	109956	0	0	8211	588047	0	0
2024-07-02 17:07:32			0	37001	0	0	0	26849	25470	145202	27235	1030285	43344	109952	0	0	8211	588446	0	0
2024-07-02 17:08:32			0	37023	0	0	0	26849	25480	145166	26870	1030320	43333	109952	0	0	8212	587519	0	0
2024-07-02 17:09:32			0	37034	0	0	0	26838	25470	145086	26915	1030258	43333	109948	0	0	8213	587105	0	0
2024-07-02 17:10:32			0	37048	0	0	0	26825	25470	144974	27438	1030195	43344	109943	0	0	8214	586537	0	0
2024-07-02 17:11:32			0	37064	0	0	0	26833	25470	145074	27157	1030276	43344	109946	0	0	8215	585888	0	0
2024-07-02 17:12:32			0	37069	0	0	0	26846	25470	145002	27261	1030276	43355	109951	0	0	8215	585685	0	0
2024-07-02 17:13:32			0	37065	0	0	0	26870	25480	145066	27164	1030374	43356	109960	0	0	8214	585814	0	0
2024-07-02 17:14:32			0	37064	0	0	0	26875	25470	145126	27059	1030338	43344	109962	0	0	8214	585888	0	0
2024-07-02 17:15:32			0	37044	0	0	0	26872	25470	145118	27187	1030195	43344	109961	0	0	8213	586699	0	0
2024-07-02 17:16:32			0	37063	0	0	0	26859	25460	145082	27201	1030205	43353	109956	0	0	8214	585962	0	0
2024-07-02 17:17:32			0	37037	0	0	0	26857	25460	145106	26894	1030267	43343	109955	0	0	8213	587017	0	0
2024-07-02 17:18:32			0	37056	0	0	0	26875	25460	145090	26739	1030267	43365	109962	0	0	8213	586246	0	0
2024-07-02 17:19:32			0	37036	0	0	0	26880	25470	145178	26935	1030338	43356	109964	0	0	8212	587024	0	0
2024-07-02 17:20:32			0	37059	0	0	0	26916	25470	145094	27251	1030392	43367	109978	0	0	8213	586091	0	0
2024-07-02 17:21:32			0	37038	0	0	0	26922	25480	145170	26896	1030463	43344	109980	0	0	8212	586910	0	0
2024-07-02 17:22:32			0	37032	0	0	0	26935	25500	145206	26760	1030426	43358	109985	0	0	8211	587086	0	0
2024-07-02 17:23:32			0	37032	0	0	0	26937	25500	145270	26930	1030480	43346	109986	0	0	8211	587086	0	0
2024-07-02 17:24:32			0	37017	0	0	0	26916	25500	145246	26996	1030435	43358	109978	0	0	8211	587696	0	0
2024-07-02 17:25:32			0	37033	0	0	0	26885	25510	145090	26847	1030471	43335	109966	0	0	8212	587012	0	0
2024-07-02 17:26:32			0	37040	0	0	0	26888	25500	144974	27114	1030489	43335	109967	0	0	8213	586762	0	0
2024-07-02 17:27:32			0	37062	0	0	0	26916	25510	144942	27083	1030524	43346	109978	0	0	8213	585836	0	0
2024-07-02 17:28:32			0	37067	0	0	0	26922	25510	144870	26961	1030551	43346	109980	0	0	8213	585633	0	0
2024-07-02 17:29:32			0	37073	0	0	0	26927	25510	144862	27178	1030506	43370	109982	0	0	8214	585390	0	0
2024-07-02 17:30:32			0	37064	0	0	0	26937	25510	145006	27499	1030533	43370	109986	0	0	8213	585755	0	0
2024-07-02 17:31:32			0	37060	0	0	0	26932	25520	145038	27329	1030577	43360	109984	0	0	8213	585884	0	0
2024-07-02 17:32:32			0	37047	0	0	0	26906	25520	145010	27020	1030443	43337	109974	0	0	8213	586411	0	0
2024-07-02 17:33:32			0	37067	0	0	0	26885	25510	144850	27019	1030399	43347	109966	0	0	8214	585633	0	0
2024-07-02 17:34:32			0	37080	0	0	0	26901	25510	144886	27053	1030471	43346	109972	0	0	8214	585106	0	0
2024-07-02 17:35:32			0	37111	0	0	0	26906	25520	144862	27199	1030434	43360	109974	0	0	8216	583818	0	0
2024-07-02 17:36:32			0	37118	0	0	0	26911	25510	144722	27159	1030560	43347	109976	0	0	8216	583568	0	0
2024-07-02 17:37:32			0	37121	0	0	0	26901	25510	144798	27244	1030426	43336	109972	0	0	8217	583447	0	0
2024-07-02 17:38:32			0	37113	0	0	0	26890	25510	144678	27279	1030417	43335	109968	0	0	8216	583771	0	0
2024-07-02 17:39:32			0	37129	0	0	0	26883	25500	144642	27067	1030408	43358	109965	0	0	8217	583157	0	0
2024-07-02 17:40:32			0	37146	0	0	0	26901	25510	144606	27199	1030390	43346	109972	0	0	8218	582437	0	0
2024-07-02 17:41:32			0	37145	0	0	0	26906	25500	144718	27098	1030426	43369	109974	0	0	8218	582510	0	0
2024-07-02 17:42:32			0	37170	0	0	0	26909	25510	144546	26915	1030444	43346	109975	0	0	8219	581468	0	0
2024-07-02 17:43:32			0	37149	0	0	0	26896	25510	144658	26911	1030479	43347	109970	0	0	8218	582316	0	0
2024-07-02 17:44:32			0	37162	0	0	0	26888	25500	144666	27034	1030462	43358	109967	0	0	8219	581824	0	0
2024-07-02 17:45:32			0	37147	0	0	0	26880	25500	144582	26821	1030400	43358	109964	0	0	8218	582430	0	0
2024-07-02 17:46:32			0	37162	0	0	0	26872	25500	144614	26733	1030373	43335	109961	0	0	8219	581824	0	0
2024-07-02 17:47:32			0	37155	0	0	0	26875	25490	144626	26826	1030337	43357	109962	0	0	8219	582140	0	0
2024-07-02 17:48:32			0	37174	0	0	0	26867	25480	144506	27256	1030409	43356	109959	0	0	8220	581406	0	0
2024-07-02 17:49:32			0	37174	0	0	0	26877	25500	144478	27022	1030400	43358	109963	0	0	8220	581340	0	0
2024-07-02 17:50:32			0	37166	0	0	0	26883	25500	144674	27112	1030462	43358	109965	0	0	8219	581663	0	0
2024-07-02 17:51:32			0	37177	0	0	0	26880	25500	144642	26873	1030462	43346	109964	0	0	8220	581219	0	0
2024-07-02 17:52:32			0	37164	0	0	0	26885	25510	144514	27284	1030390	43369	109966	0	0	8219	581710	0	0
2024-07-02 17:53:32			0	37170	0	0	0	26880	25490	144422	26993	1030391	43345	109964	0	0	8219	581534	0	0
2024-07-02 17:54:32			0	37191	0	0	0	26846	25490	144494	27244	1030311	43345	109951	0	0	8221	580687	0	0
2024-07-02 17:55:32			0	37191	0	0	0	26841	25480	144458	27206	1030329	43333	109949	0	0	8221	580720	0	0
2024-07-02 17:56:32			0	37198	0	0	0	26833	25480	144462	27303	1030213	43356	109946	0	0	8222	580438	0	0
2024-07-02 17:57:32			0	37219	0	0	0	26844	25470	144342	27017	1030258	43344	109950	0	0	8222	579625	0	0
2024-07-02 17:58:32			0	37213	0	0	0	26836	25470	144406	27149	1030249	43344	109947	0	0	8222	579867	0	0
2024-07-02 17:59:32			0	37244	0	0	0	26838	25470	144342	26986	1030276	43366	109948	0	0	8224	578620	0	0
2024-07-02 18:00:32			0	37235	0	0	0	26864	25460	144266	27196	1030240	43354	109958	0	0	8223	579014	0	0
2024-07-02 18:01:32			0	37261	0	0	0	26877	25470	144350	26727	1030311	43367	109963	0	0	8224	577936	0	0
2024-07-02 18:02:32			0	37255	0	0	0	26883	25470	144314	27246	1030249	43376	109965	0	0	8224	578177	0	0
2024-07-02 18:03:32			0	37269	0	0	0	26864	25470	144234	27305	1030392	43356	109958	0	0	8225	577615	0	0
2024-07-02 18:04:32			0	37293	0	0	0	26877	25480	144142	26951	1030374	43367	109963	0	0	8226	576619	0	0
2024-07-02 18:05:32			0	37294	0	0	0	26872	25480	144210	27142	1030356	43356	109961	0	0	8226	576578	0	0
2024-07-02 18:06:32			0	37301	0	0	0	26867	25480	144230	27019	1030427	43367	109959	0	0	8226	576298	0	0
2024-07-02 18:07:32			0	37318	0	0	0	26883	25490	144018	27265	1030391	43357	109965	0	0	8227	575583	0	0
2024-07-02 18:08:32			0	37325	0	0	0	26896	25480	144191	27222	1030409	43367	109970	0	0	8227	575336	0	0
2024-07-02 18:09:32			0	37320	0	0	0	26903	25490	144051	27261	1030391	43357	109973	0	0	8227	575503	0	0
2024-07-02 18:10:32			0	37317	0	0	0	26901	25490	144018	27471	1030391	43345	109972	0	0	8227	575623	0	0
2024-07-02 18:11:32			0	37320	0	0	0	26890	25480	144014	27123	1030356	43356	109968	0	0	8227	575536	0	0
2024-07-02 18:12:32			0	37338	0	0	0	26877	25490	144023	27464	1030284	43345	109963	0	0	8228	574782	0	0
2024-07-02 18:13:32			0	37351	0	0	0	26875	25470	143951	27384	1030285	43367	109962	0	0	8229	574327	0	0
2024-07-02 18:14:32			0	37339	0	0	0	26883	25480	143899	27370	1030302	43367	109965	0	0	8228	574775	0	0
2024-07-02 18:15:32			0	37355	0	0	0	26885	25480	143947	27270	1030347	43367	109966	0	0	8229	574135	0	0
2024-07-02 18:16:32			0	37376	0	0	0	26883	25470	143887	26961	1030303	43355	109965	0	0	8230	573327	0	0
2024-07-02 18:17:32			0	37366	0	0	0	26870	25480	144003	27393	1030302	43356	109960	0	0	8230	573695	0	0
2024-07-02 18:18:32			0	37359	0	0	0	26864	25470	143959	27327	1030311	43344	109958	0	0	8229	574007	0	0
2024-07-02 18:19:32			0	37390	0	0	0	26846	25470	143831	27156	1030303	43333	109951	0	0	8231	572768	0	0
2024-07-02 18:20:32			0	37401	0	0	0	26844	25470	143767	27225	1030222	43344	109950	0	0	8232	572329	0	0
2024-07-02 18:21:32			0	37399	0	0	0	26844	25460	143759	27391	1030187	43354	109950	0	0	8232	572441	0	0
2024-07-02 18:22:32			0	37401	0	0	0	26851	25460	143691	27149	1030294	43376	109953	0	0	8232	572361	0	0
2024-07-02 18:23:32			0	37398	0	0	0	26875	25450	143791	27282	1030277	43364	109962	0	0	8231	572514	0	0
2024-07-02 18:24:32			0	37409	0	0	0	26911	25460	143735	27263	1030482	43365	109976	0	0	8231	572042	0	0
2024-07-02 18:25:32			0	37385	0	0	0	26932	25480	143823	27341	1030489	43367	109984	0	0	8230	572935	0	0
2024-07-02 18:26:32			0	37379	0	0	0	26937	25490	143771	27300	1030471	43378	109986	0	0	8229	573142	0	0
2024-07-02 18:27:32			0	37384	0	0	0	26924	25500	143827	26904	1030480	43369	109981	0	0	8230	572910	0	0
2024-07-02 18:28:32			0	37383	0	0	0	26872	25480	143823	27338	1030302	43333	109961	0	0	8231	573015	0	0
2024-07-02 18:29:32			0	37401	0	0	0	26841	25470	143771	27351	1030195	43344	109949	0	0	8232	572329	0	0
2024-07-02 18:30:32			0	37414	0	0	0	26797	25450	143643	27261	1030054	43331	109932	0	0	8233	571875	0	0
2024-07-02 18:31:32			0	37431	0	0	0	26766	25440	143623	27138	1029991	43341	109920	0	0	8235	571229	0	0
2024-07-02 18:32:32			0	37416	0	0	0	26771	25430	143619	27241	1030019	43351	109922	0	0	8234	571860	0	0
2024-07-02 18:33:32			0	37441	0	0	0	26807	25420	143675	27305	1030055	43349	109936	0	0	8234	570895	0	0
2024-07-02 18:34:32			0	37425	0	0	0	26838	25440	143571	27279	1030197	43362	109948	0	0	8233	571468	0	0
2024-07-02 18:35:32			0	37441	0	0	0	26854	25440	143743	27310	1030206	43363	109954	0	0	8234	570830	0	0
2024-07-02 18:36:32			0	37411	0	0	0	26883	25450	143667	27216	1030277	43353	109965	0	0	8232	571995	0	0
2024-07-02 18:37:32			0	37411	0	0	0	26903	25450	143755	27149	1030321	43364	109973	0	0	8231	571995	0	0
2024-07-02 18:38:32			0	37410	0	0	0	26914	25460	143775	27307	1030294	43365	109977	0	0	8231	572002	0	0
2024-07-02 18:39:32			0	37398	0	0	0	26916	25460	143819	27157	1030374	43354	109978	0	0	8230	572481	0	0
2024-07-02 18:40:32			0	37400	0	0	0	26896	25460	143771	27140	1030401	43354	109970	0	0	8231	572401	0	0
2024-07-02 18:41:32			0	37414	0	0	0	26901	25470	143759	26930	1030356	43366	109972	0	0	8232	571810	0	0
2024-07-02 18:42:32			0	37421	0	0	0	26909	25470	143759	27213	1030419	43356	109975	0	0	8232	571530	0	0
2024-07-02 18:43:32			0	37403	0	0	0	26911	25470	143719	27235	1030383	43355	109976	0	0	8231	572249	0	0
2024-07-02 18:44:32			0	37413	0	0	0	26903	25470	143767	27234	1030392	43356	109973	0	0	8231	571850	0	0
2024-07-02 18:45:32			0	37411	0	0	0	26888	25470	143819	27369	1030392	43356	109967	0	0	8232	571930	0	0
2024-07-02 18:46:32			0	37412	0	0	0	26877	25480	143671	27459	1030320	43367	109963	0	0	8232	571857	0	0
2024-07-02 18:47:32			0	37427	0	0	0	26849	25460	143679	27180	1030285	43353	109952	0	0	8233	571324	0	0
2024-07-02 18:48:32			0	37416	0	0	0	26844	25460	143623	27157	1030240	43343	109950	0	0	8233	571762	0	0
2024-07-02 18:49:32			0	37411	0	0	0	26854	25450	143647	27237	1030223	43342	109954	0	0	8232	571995	0	0
2024-07-02 18:50:32			0	37417	0	0	0	26859	25460	143659	27255	1030267	43354	109956	0	0	8232	571723	0	0
2024-07-02 18:51:32			0	37421	0	0	0	26870	25460	143591	27410	1030339	43375	109960	0	0	8232	571563	0	0
2024-07-02 18:52:32			0	37412	0	0	0	26872	25470	143659	27222	1030356	43366	109961	0	0	8232	571890	0	0
2024-07-02 18:53:32			0	37415	0	0	0	26883	25460	143731	27019	1030321	43365	109965	0	0	8232	571802	0	0
2024-07-02 18:54:32			0	37406	0	0	0	26890	25470	143635	27126	1030392	43377	109968	0	0	8231	572129	0	0
2024-07-02 18:55:32			0	37385	0	0	0	26880	25470	143723	27329	1030356	43355	109964	0	0	8230	572968	0	0
2024-07-02 18:56:32			0	37378	0	0	0	26877	25480	143879	27265	1030347	43367	109963	0	0	8230	573215	0	0
2024-07-02 18:57:32			0	37380	0	0	0	26872	25470	143763	27175	1030258	43356	109961	0	0	8230	573167	0	0
2024-07-02 18:58:32			0	37394	0	0	0	26867	25470	143839	27131	1030276	43344	109959	0	0	8231	572608	0	0
2024-07-02 18:59:32			0	37378	0	0	0	26846	25460	143815	27260	1030214	43354	109951	0	0	8231	573280	0	0
2024-07-02 19:00:32			0	37390	0	0	0	26844	25460	143851	27381	1030240	43354	109950	0	0	8231	572801	0	0
2024-07-02 19:01:32			0	37401	0	0	0	26849	25460	143819	27092	1030285	43353	109952	0	0	8232	572361	0	0
2024-07-02 19:02:32			0	37382	0	0	0	26849	25450	143847	27005	1030187	43364	109952	0	0	8231	573153	0	0
2024-07-02 19:03:32			0	37372	0	0	0	26846	25450	143811	27071	1030268	43353	109951	0	0	8230	573552	0	0
2024-07-02 19:04:32			0	37379	0	0	0	26849	25460	143751	27092	1030205	43353	109952	0	0	8231	573240	0	0
2024-07-02 19:05:32			0	37377	0	0	0	26841	25450	143811	26937	1030196	43375	109949	0	0	8231	573353	0	0
2024-07-02 19:06:32			0	37380	0	0	0	26828	25450	143787	27261	1030187	43353	109944	0	0	8231	573233	0	0
2024-07-02 19:07:32			0	37399	0	0	0	26823	25440	143715	27383	1030143	43362	109942	0	0	8232	572506	0	0
2024-07-02 19:08:32			0	37430	0	0	0	26810	25440	143699	27000	1030152	43363	109937	0	0	8234	571269	0	0
2024-07-02 19:09:32			0	37435	0	0	0	26776	25430	143551	27281	1030027	43329	109924	0	0	8235	571102	0	0
2024-07-02 19:10:32			0	37435	0	0	0	26758	25420	143571	27225	1030028	43338	109917	0	0	8235	571134	0	0
2024-07-02 19:11:32			0	37466	0	0	0	26753	25410	143547	27031	1030010	43338	109915	0	0	8237	569932	0	0
2024-07-02 19:12:32			0	37451	0	0	0	26753	25410	143503	27369	1029912	43338	109915	0	0	8236	570529	0	0
2024-07-02 19:13:32			0	37467	0	0	0	26748	25400	143447	27036	1029868	43348	109913	0	0	8237	569924	0	0
2024-07-02 19:14:32			0	37466	0	0	0	26737	25390	143555	27315	1029850	43347	109909	0	0	8237	569996	0	0
2024-07-02 19:15:32			0	37471	0	0	0	26742	25390	143459	27072	1029788	43346	109911	0	0	8237	569797	0	0
2024-07-02 19:16:32			0	37474	0	0	0	26735	25370	143495	27256	1029727	43344	109908	0	0	8237	569743	0	0
2024-07-02 19:17:32			0	37476	0	0	0	26729	25360	143499	27180	1029709	43344	109906	0	0	8237	569695	0	0
2024-07-02 19:18:32			0	37478	0	0	0	26724	25360	143431	27267	1029682	43333	109904	0	0	8237	569616	0	0
2024-07-02 19:19:32			0	37472	0	0	0	26716	25360	143431	27310	1029709	43344	109901	0	0	8237	569855	0	0
2024-07-02 19:20:32			0	37488	0	0	0	26709	25350	143487	27272	1029638	43332	109898	0	0	8238	569250	0	0
2024-07-02 19:21:32			0	37496	0	0	0	26706	25340	143455	26949	1029630	43343	109897	0	0	8239	568964	0	0
2024-07-02 19:22:32			0	37489	0	0	0	26703	25340	143443	26830	1029648	43342	109896	0	0	8238	569243	0	0
2024-07-02 19:23:32			0	37499	0	0	0	26701	25330	143451	27029	1029577	43319	109895	0	0	8239	568877	0	0
2024-07-02 19:24:32			0	37499	0	0	0	26680	25330	143419	27083	1029496	43330	109887	0	0	8239	568877	0	0
2024-07-02 19:25:32			0	37500	0	0	0	26677	25320	143455	27135	1029533	43340	109886	0	0	8239	568870	0	0
2024-07-02 19:26:32			0	37507	0	0	0	26664	25310	143467	26880	1029435	43339	109881	0	0	8240	568623	0	0
2024-07-02 19:27:32			0	37520	0	0	0	26667	25320	143451	26859	1029452	43340	109882	0	0	8240	568074	0	0
2024-07-02 19:28:32			0	37525	0	0	0	26654	25290	143399	27377	1029382	43327	109877	0	0	8241	567972	0	0
2024-07-02 19:29:32			0	37506	0	0	0	26651	25290	143411	27270	1029382	43327	109876	0	0	8240	568728	0	0
2024-07-02 19:30:32			0	37529	0	0	0	26644	25280	143463	27173	1029338	43347	109873	0	0	8241	567846	0	0
2024-07-02 19:31:32			0	37515	0	0	0	26628	25280	143439	27145	1029302	43336	109867	0	0	8241	568402	0	0
2024-07-02 19:32:32			0	37539	0	0	0	26638	25270	143431	27265	1029293	43335	109871	0	0	8242	567481	0	0
2024-07-02 19:33:32			0	37565	0	0	0	26641	25280	143311	26909	1029275	43336	109872	0	0	8243	566416	0	0
2024-07-02 19:34:32			0	37537	0	0	0	26651	25270	143387	26890	1029338	43334	109876	0	0	8241	567560	0	0
2024-07-02 19:35:32			0	37531	0	0	0	26654	25270	143423	27019	1029338	43334	109877	0	0	8241	567799	0	0
2024-07-02 19:36:32			0	37548	0	0	0	26657	25260	143379	26785	1029276	43324	109878	0	0	8242	567155	0	0
2024-07-02 19:37:32			0	37528	0	0	0	26654	25260	143419	26835	1029276	43345	109877	0	0	8241	567950	0	0
2024-07-02 19:38:32			0	37535	0	0	0	26649	25260	143371	27255	1029276	43334	109875	0	0	8241	567672	0	0
2024-07-02 19:39:32			0	37534	0	0	0	26649	25260	143467	27039	1029294	43333	109875	0	0	8241	567712	0	0
2024-07-02 19:40:32			0	37534	0	0	0	26641	25250	143447	27085	1029285	43323	109872	0	0	8241	567744	0	0
2024-07-02 19:41:32			0	37529	0	0	0	26641	25250	143495	27145	1029205	43333	109872	0	0	8241	567942	0	0
2024-07-02 19:42:32			0	37538	0	0	0	26641	25250	143503	26734	1029232	43333	109872	0	0	8241	567585	0	0
2024-07-02 19:43:32			0	37511	0	0	0	26644	25240	143479	27164	1029206	43332	109873	0	0	8240	568690	0	0
2024-07-02 19:44:32			0	37521	0	0	0	26623	25240	143479	27166	1029161	43333	109865	0	0	8241	568293	0	0
2024-07-02 19:45:32			0	37537	0	0	0	26623	25240	143411	26904	1029179	43332	109865	0	0	8242	567657	0	0
2024-07-02 19:46:32			0	37526	0	0	0	26618	25240	143451	27248	1029134	43333	109863	0	0	8241	568094	0	0
2024-07-02 19:47:32			0	37513	0	0	0	26612	25250	143463	26824	1029196	43322	109861	0	0	8241	568579	0	0
2024-07-02 19:48:32			0	37512	0	0	0	26615	25230	143403	26996	1029144	43332	109862	0	0	8240	568683	0	0
2024-07-02 19:49:32			0	37511	0	0	0	26623	25220	143523	26809	1029126	43342	109865	0	0	8240	568755	0	0
2024-07-02 19:50:32			0	37527	0	0	0	26607	25230	143547	26944	1029135	43342	109859	0	0	8241	568086	0	0
2024-07-02 19:51:32			0	37511	0	0	0	26618	25230	143455	26774	1029135	43331	109863	0	0	8240	568723	0	0
2024-07-02 19:52:32			0	37486	0	0	0	26607	25220	143623	27114	1029091	43330	109859	0	0	8239	569750	0	0
2024-07-02 19:53:32			0	37500	0	0	0	26607	25220	143603	26935	1029126	43331	109859	0	0	8240	569193	0	0
2024-07-02 19:54:32			0	37492	0	0	0	26605	25210	143575	27213	1029082	43330	109858	0	0	8240	569544	0	0
2024-07-02 19:55:32			0	37489	0	0	0	26599	25210	143639	27010	1029055	43330	109856	0	0	8239	569663	0	0
2024-07-02 19:56:32			0	37474	0	0	0	26605	25200	143635	27159	1028931	43351	109858	0	0	8239	570293	0	0
2024-07-02 19:57:32			0	37474	0	0	0	26594	25210	143683	27220	1029020	43340	109854	0	0	8239	570261	0	0
2024-07-02 19:58:32			0	37480	0	0	0	26602	25210	143635	27203	1029020	43330	109857	0	0	8239	570022	0	0
2024-07-02 19:59:32			0	37462	0	0	0	26592	25210	143663	27343	1028993	43330	109853	0	0	8238	570739	0	0
2024-07-02 20:00:32			0	37483	0	0	0	26589	25200	143647	27270	1028931	43330	109852	0	0	8239	569934	0	0
2024-07-02 20:01:32			0	37458	0	0	0	26586	25200	143591	27374	1028922	43329	109851	0	0	8238	570931	0	0
2024-07-02 20:02:32			0	37477	0	0	0	26581	25180	143635	27071	1028905	43316	109849	0	0	8239	570238	0	0
2024-07-02 20:03:32			0	37468	0	0	0	26558	25180	143755	27086	1028958	43328	109840	0	0	8239	570597	0	0
2024-07-02 20:04:32			0	37472	0	0	0	26563	25180	143671	27072	1028869	43315	109842	0	0	8239	570437	0	0
2024-07-02 20:05:32			0	37475	0	0	0	26566	25170	143639	27267	1028914	43327	109843	0	0	8239	570350	0	0
2024-07-02 20:06:32			0	37491	0	0	0	26561	25180	143631	27383	1028923	43348	109841	0	0	8240	569680	0	0
2024-07-02 20:07:32			0	37486	0	0	0	26558	25180	143711	27265	1028869	43337	109840	0	0	8240	569880	0	0
2024-07-02 20:08:32			0	37491	0	0	0	26553	25170	143703	27098	1028825	43336	109838	0	0	8240	569713	0	0
2024-07-02 20:09:32			0	37492	0	0	0	26545	25160	143535	26955	1028781	43325	109835	0	0	8240	569705	0	0
2024-07-02 20:10:32			0	37500	0	0	0	26545	25160	143591	27147	1028789	43326	109835	0	0	8241	569387	0	0
2024-07-02 20:11:32			0	37510	0	0	0	26545	25150	143663	27272	1028763	43324	109835	0	0	8241	569021	0	0
2024-07-02 20:12:32			0	37506	0	0	0	26529	25150	143603	27116	1028718	43325	109829	0	0	8241	569180	0	0
2024-07-02 20:13:32			0	37511	0	0	0	26532	25150	143595	26892	1028737	43334	109830	0	0	8241	568981	0	0
2024-07-02 20:14:32			0	37494	0	0	0	26529	25150	143591	26982	1028692	43347	109829	0	0	8241	569658	0	0
2024-07-02 20:15:32			0	37494	0	0	0	26524	25130	143643	27291	1028684	43323	109827	0	0	8241	569723	0	0
2024-07-02 20:16:32			0	37491	0	0	0	26529	25140	143647	27114	1028728	43312	109829	0	0	8240	569810	0	0
2024-07-02 20:17:32			0	37513	0	0	0	26519	25130	143591	27059	1028657	43323	109825	0	0	8242	568966	0	0
2024-07-02 20:18:32			0	37513	0	0	0	26522	25120	143539	26934	1028666	43332	109826	0	0	8242	568998	0	0
2024-07-02 20:19:32			0	37507	0	0	0	26509	25120	143651	27312	1028640	43332	109821	0	0	8242	569237	0	0
2024-07-02 20:20:32			0	37491	0	0	0	26519	25120	143551	27320	1028666	43332	109825	0	0	8241	569874	0	0
2024-07-02 20:21:32			0	37514	0	0	0	26511	25120	143571	27166	1028613	43332	109822	0	0	8242	568959	0	0
2024-07-02 20:22:32			0	37511	0	0	0	26506	25120	143531	26859	1028631	43343	109820	0	0	8242	569078	0	0
2024-07-02 20:23:32			0	37509	0	0	0	26506	25120	143559	27128	1028604	43321	109820	0	0	8242	569158	0	0
2024-07-02 20:24:32			0	37513	0	0	0	26501	25110	143611	27222	1028622	43332	109818	0	0	8242	569031	0	0
2024-07-02 20:25:32			0	37495	0	0	0	26506	25110	143571	27272	1028569	43321	109820	0	0	8241	569747	0	0
2024-07-02 20:26:32			0	37509	0	0	0	26498	25110	143663	27078	1028614	43320	109817	0	0	8242	569190	0	0
2024-07-02 20:27:32			0	37529	0	0	0	26501	25110	143611	27282	1028587	43309	109818	0	0	8243	568394	0	0
2024-07-02 20:28:32			0	37506	0	0	0	26498	25110	143543	27414	1028595	43343	109817	0	0	8242	569309	0	0
2024-07-02 20:29:32			0	37521	0	0	0	26503	25100	143607	27336	1028525	43319	109819	0	0	8242	568744	0	0
2024-07-02 20:30:32			0	37514	0	0	0	26496	25100	143619	27064	1028525	43341	109816	0	0	8242	569023	0	0
2024-07-02 20:31:32			0	37526	0	0	0	26506	25100	143655	26981	1028551	43319	109820	0	0	8243	568545	0	0
2024-07-02 20:32:32			0	37518	0	0	0	26493	25100	143635	27043	1028605	43319	109815	0	0	8242	568864	0	0
2024-07-02 20:33:32			0	37502	0	0	0	26503	25090	143539	27138	1028588	43331	109819	0	0	8241	569533	0	0
2024-07-02 20:34:32			0	37526	0	0	0	26493	25090	143603	27112	1028534	43308	109815	0	0	8243	568578	0	0
2024-07-02 20:35:32			0	37532	0	0	0	26498	25100	143599	27152	1028525	43319	109817	0	0	8243	568307	0	0
2024-07-02 20:36:32			0	37508	0	0	0	26493	25080	143651	27324	1028517	43329	109815	0	0	8242	569326	0	0
2024-07-02 20:37:32			0	37518	0	0	0	26496	25090	143567	27124	1028507	43319	109816	0	0	8242	568896	0	0
2024-07-02 20:38:32			0	37517	0	0	0	26493	25090	143631	27239	1028480	43319	109815	0	0	8242	568936	0	0
2024-07-02 20:39:32			0	37520	0	0	0	26488	25090	143699	27069	1028507	43319	109813	0	0	8242	568817	0	0
2024-07-02 20:40:32			0	37510	0	0	0	26485	25080	143567	26944	1028517	43329	109812	0	0	8242	569247	0	0
2024-07-02 20:41:32			0	37518	0	0	0	26488	25090	143643	27272	1028552	43307	109813	0	0	8242	568896	0	0
2024-07-02 20:42:32			0	37512	0	0	0	26485	25080	143607	27090	1028490	43339	109812	0	0	8242	569167	0	0
2024-07-02 20:43:32			0	37516	0	0	0	26483	25080	143711	27303	1028428	43316	109811	0	0	8242	569008	0	0
2024-07-02 20:44:32			0	37500	0	0	0	26483	25080	143655	27072	1028454	43328	109811	0	0	8241	569645	0	0
2024-07-02 20:45:32			0	37504	0	0	0	26477	25070	143671	27097	1028446	43338	109809	0	0	8242	569518	0	0
2024-07-02 20:46:32			0	37507	0	0	0	26485	25080	143687	27312	1028508	43328	109812	0	0	8242	569366	0	0
2024-07-02 20:47:32			0	37488	0	0	0	26480	25080	143695	27008	1028454	43328	109810	0	0	8241	570123	0	0
2024-07-02 20:48:32			0	37503	0	0	0	26477	25090	143651	27057	1028400	43331	109809	0	0	8242	569493	0	0
2024-07-02 20:49:32			0	37476	0	0	0	26485	25080	143747	27564	1028454	43328	109812	0	0	8240	570602	0	0
2024-07-02 20:50:32			0	37483	0	0	0	26480	25070	143751	26991	1028419	43328	109810	0	0	8241	570355	0	0
2024-07-02 20:51:32			0	37477	0	0	0	26480	25080	143759	26970	1028481	43316	109810	0	0	8240	570562	0	0
2024-07-02 20:52:32			0	37479	0	0	0	26483	25070	143791	27097	1028472	43316	109811	0	0	8240	570514	0	0
2024-07-02 20:53:32			0	37474	0	0	0	26477	25080	143899	26831	1028347	43316	109809	0	0	8240	570681	0	0
2024-07-02 20:54:32			0	37442	0	0	0	26477	25070	143983	27017	1028410	43328	109809	0	0	8239	571991	0	0
2024-07-02 20:55:32			0	37445	0	0	0	26477	25070	143855	27282	1028365	43316	109809	0	0	8239	571871	0	0
2024-07-02 20:56:32			0	37434	0	0	0	26470	25060	143935	27203	1028348	43315	109806	0	0	8238	572343	0	0
2024-07-02 20:57:32			0	37443	0	0	0	26470	25070	143967	27298	1028419	43316	109806	0	0	8239	571951	0	0
2024-07-02 20:58:32			0	37415	0	0	0	26470	25060	143935	27203	1028366	43326	109806	0	0	8237	573103	0	0
2024-07-02 20:59:32			0	37399	0	0	0	26475	25060	144099	27400	1028393	43326	109808	0	0	8236	573743	0	0
2024-07-02 21:00:32			0	37403	0	0	0	26475	25070	144075	27183	1028464	43328	109808	0	0	8237	573550	0	0
2024-07-02 21:01:32			0	37383	0	0	0	26470	25060	144063	27345	1028375	43327	109806	0	0	8236	574383	0	0
2024-07-02 21:02:32			0	37380	0	0	0	26472	25070	144043	27260	1028410	43328	109807	0	0	8235	574471	0	0
2024-07-02 21:03:32			0	37358	0	0	0	26472	25060	144091	26994	1028375	43327	109807	0	0	8234	575385	0	0
2024-07-02 21:04:32			0	37373	0	0	0	26462	25070	144259	27268	1028383	43328	109803	0	0	8235	574751	0	0
2024-07-02 21:05:32			0	37361	0	0	0	26464	25050	144215	27175	1028304	43315	109804	0	0	8234	575298	0	0
2024-07-02 21:06:32			0	37334	0	0	0	26464	25060	144299	27220	1028339	43315	109804	0	0	8233	576348	0	0
2024-07-02 21:07:32			0	37335	0	0	0	26462	25060	144267	27284	1028375	43327	109803	0	0	8233	576308	0	0
2024-07-02 21:08:32			0	37311	0	0	0	26459	25060	144450	27315	1028366	43336	109802	0	0	8232	577272	0	0
2024-07-02 21:09:32			0	37293	0	0	0	26454	25060	144518	27081	1028321	43315	109800	0	0	8231	577995	0	0
2024-07-02 21:10:32			0	37303	0	0	0	26451	25050	144550	27036	1028295	43326	109799	0	0	8232	577626	0	0
2024-07-02 21:11:32			0	37302	0	0	0	26462	25060	144558	27222	1028321	43327	109803	0	0	8231	577634	0	0
2024-07-02 21:12:32			0	37266	0	0	0	26444	25050	144546	26911	1028295	43326	109796	0	0	8230	579115	0	0
2024-07-02 21:13:32			0	37270	0	0	0	26459	25040	144602	26883	1028313	43314	109802	0	0	8230	578987	0	0
2024-07-02 21:14:32			0	37266	0	0	0	26449	25050	144686	27388	1028268	43315	109798	0	0	8230	579115	0	0
2024-07-02 21:15:32			0	37256	0	0	0	26451	25040	144710	27121	1028313	43314	109799	0	0	8229	579550	0	0
2024-07-02 21:16:32			0	37235	0	0	0	26449	25040	144690	27296	1028286	43314	109798	0	0	8228	580397	0	0
2024-07-02 21:17:32			0	37226	0	0	0	26446	25040	144674	27620	1028278	43313	109797	0	0	8228	580760	0	0
2024-07-02 21:18:32			0	37215	0	0	0	26446	25040	144818	27447	1028331	43324	109797	0	0	8227	581204	0	0
2024-07-02 21:19:32			0	37208	0	0	0	26444	25040	144858	27305	1028304	43324	109796	0	0	8227	581486	0	0
2024-07-02 21:20:32			0	37212	0	0	0	26441	25040	144830	27376	1028224	43313	109795	0	0	8227	581325	0	0
2024-07-02 21:21:32			0	37206	0	0	0	26446	25030	144874	27157	1028260	43313	109797	0	0	8227	581600	0	0
2024-07-02 21:22:32			0	37177	0	0	0	26444	25040	144982	27268	1028233	43325	109796	0	0	8225	582739	0	0
2024-07-02 21:23:32			0	37180	0	0	0	26444	25030	144966	27341	1028207	43324	109796	0	0	8225	582651	0	0
2024-07-02 21:24:32			0	37161	0	0	0	26441	25030	144978	27192	1028242	43324	109795	0	0	8224	583419	0	0
2024-07-02 21:25:32			0	37159	0	0	0	26441	25050	144974	27223	1028295	43315	109795	0	0	8224	583434	0	0
2024-07-02 21:26:32			0	37154	0	0	0	26441	25050	144970	27020	1028268	43326	109795	0	0	8224	583637	0	0
2024-07-02 21:27:32			0	37155	0	0	0	26441	25030	145086	27227	1028233	43324	109795	0	0	8224	583662	0	0
2024-07-02 21:28:32			0	37148	0	0	0	26441	25040	145074	27279	1028278	43334	109795	0	0	8224	583913	0	0
2024-07-02 21:29:32			0	37134	0	0	0	26436	25040	145106	27246	1028224	43324	109793	0	0	8223	584480	0	0
2024-07-02 21:30:32			0	37130	0	0	0	26436	25030	145138	26828	1028269	43324	109793	0	0	8223	584675	0	0
2024-07-02 21:31:32			0	37114	0	0	0	26436	25030	145130	27017	1028260	43324	109793	0	0	8222	585324	0	0
2024-07-02 21:32:32			0	37121	0	0	0	26436	25020	145174	27265	1028198	43323	109793	0	0	8222	585073	0	0
2024-07-02 21:33:32			0	37108	0	0	0	26433	25030	145274	26958	1028180	43324	109792	0	0	8222	585567	0	0
2024-07-02 21:34:32			0	37107	0	0	0	26433	25020	145254	27062	1028243	43322	109792	0	0	8222	585641	0	0
2024-07-02 21:35:32			0	37099	0	0	0	26433	25030	145282	27251	1028233	43324	109792	0	0	8221	585932	0	0
2024-07-02 21:36:32			0	37099	0	0	0	26436	25020	145314	26996	1028198	43312	109793	0	0	8221	585965	0	0
2024-07-02 21:37:32			0	37079	0	0	0	26436	25030	145362	26892	1028260	43301	109793	0	0	8220	586744	0	0
2024-07-02 21:38:32			0	37085	0	0	0	26438	25030	145306	26845	1028180	43313	109794	0	0	8220	586500	0	0
2024-07-02 21:39:32			0	37069	0	0	0	26436	25030	145326	26953	1028180	43324	109793	0	0	8220	587150	0	0
2024-07-02 21:40:32			0	37078	0	0	0	26431	25020	145394	27048	1028225	43333	109791	0	0	8220	586818	0	0
2024-07-02 21:41:32			0	37061	0	0	0	26433	25020	145450	27201	1028243	43311	109792	0	0	8219	587509	0	0
2024-07-02 21:42:32			0	37052	0	0	0	26433	25020	145498	26779	1028216	43299	109792	0	0	8219	587875	0	0
2024-07-02 21:43:32			0	37047	0	0	0	26428	25020	145526	26816	1028198	43323	109790	0	0	8219	588078	0	0
2024-07-02 21:44:32			0	37032	0	0	0	26436	25020	145622	26951	1028225	43333	109793	0	0	8218	588689	0	0
2024-07-02 21:45:32			0	37040	0	0	0	26438	25030	145506	26698	1028233	43313	109794	0	0	8218	588330	0	0
2024-07-02 21:46:32			0	37034	0	0	0	26428	25020	145514	26859	1028270	43322	109790	0	0	8218	588607	0	0
2024-07-02 21:47:32			0	37028	0	0	0	26438	25020	145562	27119	1028216	43311	109794	0	0	8217	588852	0	0
2024-07-02 21:48:32			0	37043	0	0	0	26438	25020	145462	26901	1028198	43312	109794	0	0	8218	588241	0	0
2024-07-02 21:49:32			0	37032	0	0	0	26425	25010	145634	27017	1028234	43310	109789	0	0	8218	588722	0	0
2024-07-02 21:50:32			0	37002	0	0	0	26433	25010	145674	26708	1028207	43333	109792	0	0	8216	589945	0	0
2024-07-02 21:51:32			0	37014	0	0	0	26433	25030	145718	27060	1028233	43324	109792	0	0	8217	589389	0	0
2024-07-02 21:52:32			0	37018	0	0	0	26436	25020	145626	27177	1028225	43333	109793	0	0	8217	589259	0	0
2024-07-02 21:53:32			0	37006	0	0	0	26438	25020	145670	27116	1028216	43322	109794	0	0	8216	589748	0	0
2024-07-02 21:54:32			0	36993	0	0	0	26431	25010	145610	27031	1028181	43333	109791	0	0	8216	590312	0	0
2024-07-02 21:55:32			0	36998	0	0	0	26431	25010	145710	26859	1028145	43310	109791	0	0	8216	590108	0	0
2024-07-02 21:56:32			0	36989	0	0	0	26425	25010	145686	27192	1028207	43310	109789	0	0	8216	590475	0	0
2024-07-02 21:57:32			0	36979	0	0	0	26423	25000	145722	26899	1028163	43321	109788	0	0	8215	590916	0	0
2024-07-02 21:58:32			0	36982	0	0	0	26415	25010	145746	27013	1028154	43321	109785	0	0	8215	590760	0	0
2024-07-02 21:59:32			0	36978	0	0	0	26415	25010	145722	27147	1028154	43321	109785	0	0	8215	590924	0	0
2024-07-02 22:00:32			0	36968	0	0	0	26418	25010	145746	27291	1028181	43321	109786	0	0	8215	591332	0	0
2024-07-02 22:01:32			0	36962	0	0	0	26415	25010	145886	27026	1028145	43310	109785	0	0	8214	591577	0	0
2024-07-02 22:02:32			0	36951	0	0	0	26415	25010	145822	27182	1028118	43321	109785	0	0	8214	592026	0	0
2024-07-02 22:03:32			0	36963	0	0	0	26407	25010	145882	26864	1028145	43321	109782	0	0	8215	591536	0	0
2024-07-02 22:04:32			0	36939	0	0	0	26402	25000	145846	27270	1028127	43320	109780	0	0	8213	592550	0	0
2024-07-02 22:05:32			0	36927	0	0	0	26407	25010	145878	27098	1028172	43333	109782	0	0	8213	593008	0	0
2024-07-02 22:06:32			0	36923	0	0	0	26399	25000	145830	27293	1028074	43309	109779	0	0	8213	593205	0	0
2024-07-02 22:07:32			0	36934	0	0	0	26402	25000	145978	27012	1028109	43333	109780	0	0	8213	592755	0	0
2024-07-02 22:08:32			0	36934	0	0	0	26405	24990	145918	27093	1028038	43319	109781	0	0	8213	592789	0	0
2024-07-02 22:09:32			0	36904	0	0	0	26399	24990	146006	27445	1028092	43308	109779	0	0	8212	594017	0	0
2024-07-02 22:10:32			0	36906	0	0	0	26397	25000	145966	26989	1028020	43320	109778	0	0	8212	593901	0	0
2024-07-02 22:11:32			0	36878	0	0	0	26394	24980	145966	27246	1028012	43318	109777	0	0	8210	595116	0	0
2024-07-02 22:12:32			0	36896	0	0	0	26392	24990	146026	27294	1028057	43319	109776	0	0	8211	594344	0	0
2024-07-02 22:13:32			0	36896	0	0	0	26397	24990	146074	27161	1028057	43319	109778	0	0	8211	594344	0	0
2024-07-02 22:14:32			0	36889	0	0	0	26389	24980	146046	27204	1028048	43308	109775	0	0	8211	594665	0	0
2024-07-02 22:15:32			0	36889	0	0	0	26397	25000	146098	27315	1028127	43309	109778	0	0	8211	594597	0	0
2024-07-02 22:16:32			0	36859	0	0	0	26392	24990	146026	27164	1028038	43331	109776	0	0	8209	595862	0	0
2024-07-02 22:17:32			0	36864	0	0	0	26394	24990	146154	27064	1028038	43331	109777	0	0	8210	595657	0	0
2024-07-02 22:18:32			0	36882	0	0	0	26392	25000	146138	27298	1028074	43332	109776	0	0	8211	594884	0	0
2024-07-02 22:19:32			0	36867	0	0	0	26397	24990	146162	27213	1028030	43319	109778	0	0	8210	595533	0	0
2024-07-02 22:20:32			0	36862	0	0	0	26392	24980	146158	27355	1028039	43318	109776	0	0	8209	595772	0	0
2024-07-02 22:21:32			0	36876	0	0	0	26392	24980	146146	27213	1028048	43331	109776	0	0	8210	595198	0	0
2024-07-02 22:22:32			0	36854	0	0	0	26389	24990	146250	27298	1028003	43319	109775	0	0	8209	596067	0	0
2024-07-02 22:23:32			0	36861	0	0	0	26389	24980	146202	27140	1027994	43319	109775	0	0	8209	595813	0	0
2024-07-02 22:24:32			0	36854	0	0	0	26399	24980	146282	27246	1028021	43308	109779	0	0	8209	596101	0	0
2024-07-02 22:25:32			0	36842	0	0	0	26399	24980	146258	26951	1028066	43318	109779	0	0	8208	596594	0	0
2024-07-02 22:26:32			0	36842	0	0	0	26394	24990	146314	27291	1028030	43331	109777	0	0	8208	596560	0	0
2024-07-02 22:27:32			0	36845	0	0	0	26392	24970	146294	27171	1028031	43295	109776	0	0	8208	596504	0	0
2024-07-02 22:28:32			0	36843	0	0	0	26392	24970	146298	26923	1028004	43306	109776	0	0	8208	596586	0	0
2024-07-02 22:29:32			0	36817	0	0	0	26394	24980	146326	27227	1027986	43318	109777	0	0	8207	597621	0	0
2024-07-02 22:30:32			0	36840	0	0	0	26384	24970	146350	27107	1027995	43317	109773	0	0	8208	596710	0	0
2024-07-02 22:31:32			0	36829	0	0	0	26389	24980	146370	27348	1028012	43318	109775	0	0	8208	597128	0	0
2024-07-02 22:32:32			0	36833	0	0	0	26379	24980	146370	27310	1027986	43318	109771	0	0	8208	596963	0	0
2024-07-02 22:33:32			0	36816	0	0	0	26381	24970	146402	26939	1027950	43317	109772	0	0	8207	597696	0	0
2024-07-02 22:34:32			0	36816	0	0	0	26384	24970	146318	27334	1027995	43317	109773	0	0	8207	597696	0	0
2024-07-02 22:35:32			0	36823	0	0	0	26384	24970	146330	27149	1027968	43317	109773	0	0	8207	597408	0	0
2024-07-02 22:36:32			0	36806	0	0	0	26376	24980	146414	27235	1028039	43330	109770	0	0	8207	598074	0	0
2024-07-02 22:37:32			0	36799	0	0	0	26384	24970	146446	27282	1027968	43329	109773	0	0	8206	598396	0	0
2024-07-02 22:38:32			0	36792	0	0	0	26379	24970	146514	27303	1027968	43329	109771	0	0	8206	598684	0	0
2024-07-02 22:39:32			0	36806	0	0	0	26384	24970	146466	27145	1028022	43306	109773	0	0	8207	598108	0	0
2024-07-02 22:40:32			0	36810	0	0	0	26376	24970	146550	27176	1027995	43329	109770	0	0	8207	597943	0	0
2024-07-02 22:41:32			0	36802	0	0	0	26371	24980	146610	27241	1027986	43330	109768	0	0	8207	598239	0	0
2024-07-02 22:42:32			0	36799	0	0	0	26376	24970	146450	27185	1027942	43329	109770	0	0	8206	598396	0	0
2024-07-02 22:43:32			0	36796	0	0	0	26381	24960	146442	27017	1027951	43317	109772	0	0	8206	598553	0	0
2024-07-02 22:44:32			0	36802	0	0	0	26379	24970	146546	27033	1027942	43329	109771	0	0	8206	598272	0	0
2024-07-02 22:45:32			0	36763	0	0	0	26376	24960	146462	27079	1028013	43329	109770	0	0	8204	599913	0	0
2024-07-02 22:46:32			0	36786	0	0	0	26371	24960	146530	26904	1027960	43317	109768	0	0	8206	598965	0	0
2024-07-02 22:47:32			0	36770	0	0	0	26371	24980	146546	26896	1028012	43318	109768	0	0	8205	599557	0	0
2024-07-02 22:48:32			0	36774	0	0	0	26371	24970	146598	26857	1027915	43317	109768	0	0	8205	599426	0	0
2024-07-02 22:49:32			0	36767	0	0	0	26373	24960	146554	26904	1027960	43329	109769	0	0	8205	599748	0	0
2024-07-02 22:50:32			0	36764	0	0	0	26368	24960	146666	27140	1027924	43338	109767	0	0	8205	599872	0	0
2024-07-02 22:51:32			0	36762	0	0	0	26366	24960	146610	27015	1027871	43317	109766	0	0	8205	599954	0	0
2024-07-02 22:52:32			0	36763	0	0	0	26358	24960	146658	27277	1027924	43317	109763	0	0	8205	599913	0	0
2024-07-02 22:53:32			0	36761	0	0	0	26366	24960	146658	27206	1027933	43329	109766	0	0	8204	599996	0	0
2024-07-02 22:54:32			0	36745	0	0	0	26368	24950	146670	27267	1027916	43316	109767	0	0	8204	600690	0	0
2024-07-02 22:55:32			0	36754	0	0	0	26366	24950	146618	27156	1027889	43316	109766	0	0	8204	600318	0	0
2024-07-02 22:56:32			0	36752	0	0	0	26361	24960	146634	27140	1027897	43317	109764	0	0	8204	600367	0	0
2024-07-02 22:57:32			0	36743	0	0	0	26373	24960	146718	26927	1027978	43328	109769	0	0	8203	600738	0	0
2024-07-02 22:58:32			0	36732	0	0	0	26363	24960	146682	27112	1027897	43317	109765	0	0	8203	601193	0	0
2024-07-02 22:59:32			0	36724	0	0	0	26368	24950	146730	27338	1027916	43316	109767	0	0	8202	601557	0	0
2024-07-02 23:00:32			0	36748	0	0	0	26366	24960	146778	27263	1028005	43328	109766	0	0	8204	600532	0	0
2024-07-02 23:01:32			0	36734	0	0	0	26361	24950	146798	27220	1027916	43327	109764	0	0	8203	601144	0	0
2024-07-02 23:02:32			0	36734	0	0	0	26361	24950	146758	27064	1027853	43315	109764	0	0	8203	601144	0	0
2024-07-02 23:03:32			0	36738	0	0	0	26358	24950	146714	27327	1027880	43315	109763	0	0	8203	600979	0	0
2024-07-02 23:04:32			0	36720	0	0	0	26358	24950	146878	27144	1027889	43316	109763	0	0	8202	601722	0	0
2024-07-02 23:05:32			0	36724	0	0	0	26353	24950	146834	27048	1027907	43315	109761	0	0	8203	601557	0	0
2024-07-02 23:06:32			0	36728	0	0	0	26358	24940	146806	26831	1027871	43326	109763	0	0	8203	601426	0	0
2024-07-02 23:07:32			0	36726	0	0	0	26353	24940	146790	27050	1027871	43315	109761	0	0	8203	601508	0	0
2024-07-02 23:08:32			0	36699	0	0	0	26350	24940	146870	26857	1027818	43303	109760	0	0	8201	602625	0	0
2024-07-02 23:09:32			0	36718	0	0	0	26348	24940	146790	26724	1027871	43326	109759	0	0	8202	601839	0	0
2024-07-02 23:10:32			0	36693	0	0	0	26350	24950	146910	26873	1027907	43303	109760	0	0	8201	602839	0	0
2024-07-02 23:11:32			0	36700	0	0	0	26353	24940	146918	26887	1027845	43315	109761	0	0	8201	602583	0	0
2024-07-02 23:12:32			0	36684	0	0	0	26348	24940	146870	26812	1027845	43303	109759	0	0	8201	603246	0	0
2024-07-02 23:13:32			0	36671	0	0	0	26345	24940	146942	27126	1027898	43303	109758	0	0	8200	603784	0	0
2024-07-02 23:14:32			0	36669	0	0	0	26342	24950	146958	27039	1027880	43326	109757	0	0	8200	603832	0	0
2024-07-02 23:15:32			0	36665	0	0	0	26348	24940	147026	27301	1027836	43315	109759	0	0	8200	604032	0	0
2024-07-02 23:16:32			0	36678	0	0	0	26353	24940	147002	27242	1027898	43315	109761	0	0	8200	603494	0	0
2024-07-02 23:17:32			0	36667	0	0	0	26340	24940	147030	27176	1027863	43315	109756	0	0	8200	603950	0	0
2024-07-02 23:18:32			0	36662	0	0	0	26345	24940	146994	27352	1027836	43315	109758	0	0	8200	604157	0	0
2024-07-02 23:19:32			0	36666	0	0	0	26350	24930	147118	27036	1027791	43313	109760	0	0	8200	604025	0	0
2024-07-02 23:20:32			0	36648	0	0	0	26345	24940	147106	27176	1027782	43315	109758	0	0	8199	604737	0	0
2024-07-02 23:21:32			0	36629	0	0	0	26340	24930	147086	27102	1027774	43302	109756	0	0	8198	605560	0	0
2024-07-02 23:22:32			0	36627	0	0	0	26342	24930	147106	27072	1027818	43324	109757	0	0	8198	605643	0	0
2024-07-02 23:23:32			0	36620	0	0	0	26345	24930	147182	27400	1027765	43301	109758	0	0	8197	605933	0	0
2024-07-02 23:24:32			0	36628	0	0	0	26340	24920	147170	27327	1027836	43324	109756	0	0	8198	605635	0	0
2024-07-02 23:25:32			0	36624	0	0	0	26335	24930	147210	27390	1027765	43334	109754	0	0	8198	605767	0	0
2024-07-02 23:26:32			0	36614	0	0	0	26335	24930	147166	27280	1027765	43291	109754	0	0	8197	606182	0	0
2024-07-02 23:27:32			0	36609	0	0	0	26335	24930	147234	27149	1027827	43325	109754	0	0	8197	606390	0	0
2024-07-02 23:28:32			0	36613	0	0	0	26332	24930	147374	26918	1027800	43302	109753	0	0	8197	606224	0	0
2024-07-02 23:29:32			0	36583	0	0	0	26327	24930	147285	26826	1027774	43314	109751	0	0	8196	607471	0	0
2024-07-02 23:30:32			0	36603	0	0	0	26327	24920	147262	27093	1027783	43301	109751	0	0	8197	606674	0	0
2024-07-02 23:31:32			0	36593	0	0	0	26329	24930	147365	26906	1027791	43313	109752	0	0	8196	607055	0	0
2024-07-02 23:32:32			0	36573	0	0	0	26319	24930	147405	27033	1027765	43313	109748	0	0	8195	607887	0	0
2024-07-02 23:33:32			0	36580	0	0	0	26327	24920	147405	27279	1027703	43324	109751	0	0	8195	607630	0	0
2024-07-02 23:34:32			0	36563	0	0	0	26324	24930	147429	27157	1027765	43324	109750	0	0	8195	608303	0	0
2024-07-02 23:35:32			0	36551	0	0	0	26319	24920	147361	27327	1027729	43313	109748	0	0	8194	608837	0	0
2024-07-02 23:36:32			0	36554	0	0	0	26316	24920	147409	27279	1027756	43324	109747	0	0	8194	608712	0	0
2024-07-02 23:37:32			0	36554	0	0	0	26329	24920	147425	26904	1027810	43301	109752	0	0	8194	608712	0	0
2024-07-02 23:38:32			0	36549	0	0	0	26314	24920	147489	27339	1027756	43324	109746	0	0	8194	608921	0	0
2024-07-02 23:39:32			0	36541	0	0	0	26316	24920	147513	27561	1027721	43313	109747	0	0	8194	609254	0	0
2024-07-02 23:40:32			0	36526	0	0	0	26324	24910	147537	27124	1027658	43312	109750	0	0	8193	609914	0	0
2024-07-02 23:41:32			0	36540	0	0	0	26316	24900	147549	27270	1027730	43300	109747	0	0	8193	609365	0	0
2024-07-02 23:42:32			0	36518	0	0	0	26316	24890	147573	27203	1027659	43311	109747	0	0	8192	610317	0	0
2024-07-02 23:43:32			0	36539	0	0	0	26311	24910	147577	27182	1027739	43323	109745	0	0	8194	609372	0	0
2024-07-02 23:44:32			0	36512	0	0	0	26309	24900	147629	27208	1027676	43322	109744	0	0	8192	610533	0	0
2024-07-02 23:45:32			0	36506	0	0	0	26311	24900	147729	27242	1027641	43311	109745	0	0	8192	610783	0	0
2024-07-02 23:46:32			0	36503	0	0	0	26306	24910	147745	27218	1027685	43300	109743	0	0	8192	610874	0	0
2024-07-02 23:47:32			0	36487	0	0	0	26309	24890	147653	27286	1027713	43311	109744	0	0	8191	611612	0	0
2024-07-02 23:48:32			0	36492	0	0	0	26306	24900	147629	27076	1027596	43311	109743	0	0	8191	611368	0	0
2024-07-02 23:49:32			0	36504	0	0	0	26301	24900	147665	27228	1027641	43311	109741	0	0	8192	610867	0	0
2024-07-02 23:50:32			0	36478	0	0	0	26298	24890	147793	26746	1027606	43300	109740	0	0	8190	611988	0	0
2024-07-02 23:51:32			0	36479	0	0	0	26306	24890	147817	27324	1027659	43311	109743	0	0	8190	611946	0	0
2024-07-02 23:52:32			0	36472	0	0	0	26298	24900	147853	27170	1027695	43311	109740	0	0	8190	612204	0	0
2024-07-02 23:53:32			0	36482	0	0	0	26303	24900	147849	27253	1027614	43311	109742	0	0	8191	611786	0	0
2024-07-02 23:54:32			0	36447	0	0	0	26296	24900	147805	27504	1027641	43322	109739	0	0	8189	613250	0	0
2024-07-02 23:55:32			0	36473	0	0	0	26296	24890	147917	27261	1027624	43333	109739	0	0	8190	612197	0	0
2024-07-02 23:56:32			0	36473	0	0	0	26296	24890	147853	27232	1027579	43311	109739	0	0	8190	612197	0	0
2024-07-02 23:57:32			0	36470	0	0	0	26293	24900	147905	27372	1027614	43322	109738	0	0	8190	612288	0	0
2024-07-02 23:58:32			0	36437	0	0	0	26296	24890	147941	27251	1027624	43310	109739	0	0	8188	613704	0	0
2024-07-02 23:59:32			0	36461	0	0	0	26298	24880	147925	27046	1027642	43309	109740	0	0	8190	612734	0	0
2024-07-03 00:00:32			0	36434	0	0	0	26298	24890	147909	27190	1027632	43322	109740	0	0	8188	613830	0	0
2024-07-03 00:01:32			0	36449	0	0	0	26293	24890	147921	27215	1027570	43310	109738	0	0	8189	613201	0	0
2024-07-03 00:02:32			0	36438	0	0	0	26277	24890	147913	27164	1027606	43322	109732	0	0	8189	613662	0	0
2024-07-03 00:03:32			0	36434	0	0	0	26298	24890	148073	27199	1027650	43310	109740	0	0	8188	613830	0	0
2024-07-03 00:04:32			0	36426	0	0	0	26293	24890	147989	27196	1027570	43310	109738	0	0	8188	614165	0	0
2024-07-03 00:05:32			0	36416	0	0	0	26288	24880	147957	27253	1027588	43309	109736	0	0	8187	614619	0	0
2024-07-03 00:06:32			0	36427	0	0	0	26288	24880	148105	27322	1027633	43308	109736	0	0	8188	614158	0	0
2024-07-03 00:07:32			0	36440	0	0	0	26290	24870	148125	27466	1027544	43331	109737	0	0	8189	613648	0	0
2024-07-03 00:08:32			0	36405	0	0	0	26283	24880	148093	27341	1027553	43297	109734	0	0	8187	615080	0	0
2024-07-03 00:09:32			0	36417	0	0	0	26283	24880	148025	27306	1027526	43308	109734	0	0	8187	614577	0	0
2024-07-03 00:10:32			0	36399	0	0	0	26275	24870	148093	27357	1027544	43319	109731	0	0	8187	615367	0	0
2024-07-03 00:11:32			0	36415	0	0	0	26272	24870	147989	27343	1027598	43297	109730	0	0	8188	614696	0	0
2024-07-03 00:12:32			0	36409	0	0	0	26283	24870	148105	27393	1027571	43308	109734	0	0	8187	614947	0	0
2024-07-03 00:13:32			0	36409	0	0	0	26277	24870	148109	27339	1027562	43319	109732	0	0	8187	614947	0	0
2024-07-03 00:14:32			0	36397	0	0	0	26280	24870	148133	27313	1027571	43319	109733	0	0	8186	615451	0	0
2024-07-03 00:15:32			0	36403	0	0	0	26272	24870	148169	27350	1027571	43308	109730	0	0	8187	615199	0	0
2024-07-03 00:16:32			0	36391	0	0	0	26275	24860	148153	27270	1027500	43318	109731	0	0	8186	615738	0	0
2024-07-03 00:17:32			0	36401	0	0	0	26272	24870	148105	27296	1027491	43308	109730	0	0	8187	615283	0	0
2024-07-03 00:18:32			0	36391	0	0	0	26270	24870	148117	27594	1027482	43319	109729	0	0	8186	615703	0	0
2024-07-03 00:19:32			0	36385	0	0	0	26267	24870	148193	27204	1027517	43319	109728	0	0	8186	615955	0	0
2024-07-03 00:20:32			0	36377	0	0	0	26270	24860	148193	27163	1027500	43296	109729	0	0	8186	616326	0	0
2024-07-03 00:21:32			0	36367	0	0	0	26262	24850	148209	27064	1027429	43306	109726	0	0	8185	616781	0	0
2024-07-03 00:22:32			0	36375	0	0	0	26262	24870	148225	27156	1027455	43319	109726	0	0	8186	616375	0	0
2024-07-03 00:23:32			0	36362	0	0	0	26262	24860	148305	27358	1027473	43307	109726	0	0	8185	616956	0	0
2024-07-03 00:24:32			0	36357	0	0	0	26259	24860	148309	27076	1027527	43307	109725	0	0	8185	617167	0	0
2024-07-03 00:25:32			0	36364	0	0	0	26264	24860	148301	27237	1027411	43306	109727	0	0	8185	616872	0	0
2024-07-03 00:26:32			0	36359	0	0	0	26262	24860	148325	27433	1027438	43318	109726	0	0	8185	617082	0	0
2024-07-03 00:27:32			0	36359	0	0	0	26267	24870	148337	27374	1027482	43319	109728	0	0	8185	617047	0	0
2024-07-03 00:28:32			0	36341	0	0	0	26262	24860	148285	27464	1027491	43318	109726	0	0	8184	617840	0	0
2024-07-03 00:29:32			0	36352	0	0	0	26262	24860	148337	27112	1027465	43306	109726	0	0	8184	617377	0	0
2024-07-03 00:30:32			0	36352	0	0	0	26262	24840	148297	27175	1027457	43316	109726	0	0	8184	617447	0	0
2024-07-03 00:31:32			0	36348	0	0	0	26257	24860	148349	27422	1027491	43295	109724	0	0	8184	617545	0	0
2024-07-03 00:32:32			0	36351	0	0	0	26257	24850	148325	27010	1027456	43306	109724	0	0	8184	617454	0	0
2024-07-03 00:33:32			0	36334	0	0	0	26257	24850	148357	26958	1027474	43306	109724	0	0	8183	618169	0	0
2024-07-03 00:34:32			0	36337	0	0	0	26246	24850	148413	27170	1027474	43306	109720	0	0	8184	618043	0	0
2024-07-03 00:35:32			0	36345	0	0	0	26254	24850	148397	27183	1027402	43306	109723	0	0	8184	617706	0	0
2024-07-03 00:36:32			0	36327	0	0	0	26251	24850	148405	27246	1027456	43306	109722	0	0	8183	618464	0	0
2024-07-03 00:37:32			0	36340	0	0	0	26257	24840	148525	27064	1027376	43304	109724	0	0	8184	617952	0	0
2024-07-03 00:38:32			0	36329	0	0	0	26249	24840	148517	26896	1027412	43305	109721	0	0	8183	618415	0	0
2024-07-03 00:39:32			0	36351	0	0	0	26254	24840	148433	26793	1027439	43305	109723	0	0	8184	617489	0	0
2024-07-03 00:40:32			0	36328	0	0	0	26233	24840	148449	26804	1027465	43305	109715	0	0	8183	618457	0	0
2024-07-03 00:41:32			0	36326	0	0	0	26241	24840	148557	27131	1027385	43317	109718	0	0	8183	618541	0	0
2024-07-03 00:42:32			0	36313	0	0	0	26233	24840	148429	27133	1027332	43317	109715	0	0	8183	619089	0	0
2024-07-03 00:43:32			0	36320	0	0	0	26233	24830	148457	27215	1027341	43304	109715	0	0	8183	618829	0	0
2024-07-03 00:44:32			0	36308	0	0	0	26236	24840	148613	26922	1027350	43304	109716	0	0	8182	619300	0	0
2024-07-03 00:45:32			0	36314	0	0	0	26228	24840	148573	27043	1027358	43317	109713	0	0	8183	619047	0	0
2024-07-03 00:46:32			0	36307	0	0	0	26223	24830	148557	27220	1027341	43304	109711	0	0	8182	619377	0	0
2024-07-03 00:47:32			0	36300	0	0	0	26223	24820	148569	26981	1027297	43303	109711	0	0	8182	619707	0	0
2024-07-03 00:48:32			0	36304	0	0	0	26228	24830	148533	27059	1027386	43304	109713	0	0	8182	619504	0	0
2024-07-03 00:49:32			0	36297	0	0	0	26236	24830	148529	27045	1027359	43293	109716	0	0	8182	619799	0	0
2024-07-03 00:50:32			0	36292	0	0	0	26225	24830	148541	26844	1027368	43316	109712	0	0	8182	620010	0	0
2024-07-03 00:51:32			0	36297	0	0	0	26233	24820	148617	27144	1027324	43303	109715	0	0	8182	619834	0	0
2024-07-03 00:52:32			0	36280	0	0	0	26236	24820	148645	27008	1027270	43292	109716	0	0	8181	620552	0	0
2024-07-03 00:53:32			0	36290	0	0	0	26233	24830	148617	27163	1027306	43304	109715	0	0	8181	620094	0	0
2024-07-03 00:54:32			0	36288	0	0	0	26238	24820	148577	26890	1027377	43303	109717	0	0	8181	620214	0	0
2024-07-03 00:55:32			0	36290	0	0	0	26233	24830	148681	26802	1027359	43316	109715	0	0	8181	620094	0	0
2024-07-03 00:56:32			0	36280	0	0	0	26238	24830	148785	27029	1027332	43316	109717	0	0	8181	620516	0	0
2024-07-03 00:57:32			0	36297	0	0	0	26233	24820	148637	27263	1027288	43314	109715	0	0	8182	619834	0	0
2024-07-03 00:58:32			0	36280	0	0	0	26233	24830	148625	27213	1027332	43304	109715	0	0	8181	620516	0	0
2024-07-03 00:59:32			0	36278	0	0	0	26231	24830	148669	26909	1027341	43304	109714	0	0	8181	620601	0	0
2024-07-03 01:00:32			0	36289	0	0	0	26236	24820	148657	27092	1027324	43326	109716	0	0	8181	620172	0	0
2024-07-03 01:01:32			0	36269	0	0	0	26236	24830	148653	27216	1027341	43327	109716	0	0	8180	620981	0	0
2024-07-03 01:02:32			0	36281	0	0	0	26225	24820	148745	26920	1027270	43303	109712	0	0	8181	620509	0	0
2024-07-03 01:03:32			0	36282	0	0	0	26231	24810	148725	27057	1027333	43314	109714	0	0	8181	620502	0	0
2024-07-03 01:04:32			0	36270	0	0	0	26223	24830	148653	27111	1027279	43304	109711	0	0	8181	620939	0	0
2024-07-03 01:05:32			0	36263	0	0	0	26228	24820	148741	26975	1027270	43315	109713	0	0	8180	621270	0	0
2024-07-03 01:06:32			0	36269	0	0	0	26228	24820	148761	27429	1027297	43303	109713	0	0	8180	621016	0	0
2024-07-03 01:07:32			0	36250	0	0	0	26225	24820	148737	27081	1027261	43314	109712	0	0	8179	621819	0	0
2024-07-03 01:08:32			0	36243	0	0	0	26228	24820	148853	26868	1027315	43302	109713	0	0	8179	622115	0	0
2024-07-03 01:09:32			0	36252	0	0	0	26223	24820	148833	27116	1027261	43302	109711	0	0	8180	621735	0	0
2024-07-03 01:10:32			0	36250	0	0	0	26223	24810	148753	27196	1027280	43314	109711	0	0	8179	621854	0	0
2024-07-03 01:11:32			0	36249	0	0	0	26218	24820	148757	27036	1027270	43315	109709	0	0	8179	621861	0	0
2024-07-03 01:12:32			0	36257	0	0	0	26218	24810	148789	26974	1027244	43302	109709	0	0	8180	621558	0	0
2024-07-03 01:13:32			0	36237	0	0	0	26215	24810	148801	26601	1027226	43314	109708	0	0	8179	622404	0	0
2024-07-03 01:14:32			0	36240	0	0	0	26220	24820	148785	26987	1027288	43314	109710	0	0	8179	622242	0	0
2024-07-03 01:15:32			0	36227	0	0	0	26225	24820	148821	27041	1027261	43302	109712	0	0	8178	622792	0	0
2024-07-03 01:16:32			0	36233	0	0	0	26220	24820	148841	26726	1027315	43314	109710	0	0	8179	622538	0	0
2024-07-03 01:17:32			0	36221	0	0	0	26228	24820	148777	27137	1027315	43314	109713	0	0	8178	623046	0	0
2024-07-03 01:18:32			0	36230	0	0	0	26233	24820	148789	27119	1027315	43325	109715	0	0	8178	622665	0	0
2024-07-03 01:19:32			0	36225	0	0	0	26236	24830	148801	26830	1027413	43316	109716	0	0	8178	622842	0	0
2024-07-03 01:20:32			0	36241	0	0	0	26238	24820	148849	26706	1027342	43325	109717	0	0	8179	622200	0	0
2024-07-03 01:21:32			0	36235	0	0	0	26246	24830	148897	26876	1027332	43316	109720	0	0	8178	622418	0	0
2024-07-03 01:22:32			0	36211	0	0	0	26236	24830	148805	27118	1027386	43304	109716	0	0	8177	623434	0	0
2024-07-03 01:23:32			0	36232	0	0	0	26244	24830	148737	26916	1027359	43327	109719	0	0	8178	622545	0	0
2024-07-03 01:24:32			0	36223	0	0	0	26233	24820	148753	27124	1027324	43303	109715	0	0	8178	622961	0	0
2024-07-03 01:25:32			0	36230	0	0	0	26241	24820	148785	26909	1027368	43302	109718	0	0	8178	622665	0	0
2024-07-03 01:26:32			0	36207	0	0	0	26238	24820	148873	27204	1027297	43303	109717	0	0	8177	623639	0	0
2024-07-03 01:27:32			0	36214	0	0	0	26241	24830	148901	27369	1027368	43327	109718	0	0	8177	623307	0	0
2024-07-03 01:28:32			0	36217	0	0	0	26236	24830	148925	27213	1027368	43304	109716	0	0	8178	623180	0	0
2024-07-03 01:29:32			0	36214	0	0	0	26244	24830	148829	27414	1027421	43316	109719	0	0	8177	623307	0	0
2024-07-03 01:30:32			0	36226	0	0	0	26233	24820	148857	27048	1027324	43315	109715	0	0	8178	622834	0	0
2024-07-03 01:31:32			0	36224	0	0	0	26246	24830	148917	27338	1027421	43316	109720	0	0	8178	622884	0	0
2024-07-03 01:32:32			0	36219	0	0	0	26251	24830	148909	26897	1027386	43316	109722	0	0	8177	623095	0	0
2024-07-03 01:33:32			0	36237	0	0	0	26254	24830	148805	26859	1027386	43304	109723	0	0	8178	622334	0	0
2024-07-03 01:34:32			0	36238	0	0	0	26249	24830	148865	26896	1027395	43316	109721	0	0	8178	622291	0	0
2024-07-03 01:35:32			0	36258	0	0	0	26249	24840	148733	27199	1027457	43316	109721	0	0	8180	621411	0	0
2024-07-03 01:36:32			0	36251	0	0	0	26249	24840	148689	26958	1027430	43304	109721	0	0	8179	621706	0	0
2024-07-03 01:37:32			0	36257	0	0	0	26254	24830	148641	26771	1027395	43293	109723	0	0	8179	621488	0	0
2024-07-03 01:38:32			0	36243	0	0	0	26244	24840	148621	27000	1027457	43304	109719	0	0	8179	622045	0	0
2024-07-03 01:39:32			0	36262	0	0	0	26244	24840	148669	27048	1027403	43304	109719	0	0	8180	621241	0	0
2024-07-03 01:40:32			0	36264	0	0	0	26254	24830	148709	26800	1027448	43337	109723	0	0	8180	621192	0	0
2024-07-03 01:41:32			0	36272	0	0	0	26249	24840	148553	27066	1027465	43294	109721	0	0	8180	620819	0	0
2024-07-03 01:42:32			0	36248	0	0	0	26254	24840	148749	27015	1027510	43304	109723	0	0	8179	621833	0	0
2024-07-03 01:43:32			0	36287	0	0	0	26257	24840	148669	27152	1027430	43316	109724	0	0	8181	620186	0	0
2024-07-03 01:44:32			0	36265	0	0	0	26246	24840	148585	27124	1027376	43327	109720	0	0	8180	621115	0	0
2024-07-03 01:45:32			0	36250	0	0	0	26251	24830	148637	27039	1027421	43316	109722	0	0	8179	621784	0	0
2024-07-03 01:46:32			0	36273	0	0	0	26249	24830	148661	26849	1027421	43316	109721	0	0	8180	620812	0	0
2024-07-03 01:47:32			0	36263	0	0	0	26251	24850	148621	27161	1027501	43306	109722	0	0	8180	621164	0	0
2024-07-03 01:48:32			0	36261	0	0	0	26251	24830	148621	27499	1027341	43316	109722	0	0	8180	621319	0	0
2024-07-03 01:49:32			0	36243	0	0	0	26251	24830	148653	27015	1027421	43327	109722	0	0	8179	622080	0	0
2024-07-03 01:50:32			0	36240	0	0	0	26257	24840	148649	27249	1027350	43304	109724	0	0	8178	622171	0	0
2024-07-03 01:51:32			0	36240	0	0	0	26257	24840	148757	26868	1027457	43316	109724	0	0	8178	622171	0	0
2024-07-03 01:52:32			0	36263	0	0	0	26257	24840	148773	27118	1027465	43317	109724	0	0	8180	621199	0	0
2024-07-03 01:53:32			0	36233	0	0	0	26251	24840	148721	27128	1027457	43316	109722	0	0	8178	622468	0	0
2024-07-03 01:54:32			0	36245	0	0	0	26257	24850	148749	27211	1027474	43318	109724	0	0	8179	621925	0	0
2024-07-03 01:55:32			0	36238	0	0	0	26259	24840	148749	27265	1027492	43317	109725	0	0	8178	622256	0	0
2024-07-03 01:56:32			0	36237	0	0	0	26257	24840	148765	27015	1027403	43304	109724	0	0	8178	622298	0	0
2024-07-03 01:57:32			0	36252	0	0	0	26251	24840	148745	27019	1027439	43317	109722	0	0	8179	621664	0	0
2024-07-03 01:58:32			0	36233	0	0	0	26262	24840	148789	27175	1027457	43304	109726	0	0	8178	622468	0	0
2024-07-03 01:59:32			0	36241	0	0	0	26257	24840	148785	27114	1027412	43305	109724	0	0	8178	622129	0	0
2024-07-03 02:00:32			0	36219	0	0	0	26246	24850	148665	27431	1027474	43318	109720	0	0	8178	623025	0	0
2024-07-03 02:01:32			0	36241	0	0	0	26259	24840	148677	26854	1027412	43317	109725	0	0	8178	622129	0	0
2024-07-03 02:02:32			0	36256	0	0	0	26262	24840	148645	27114	1027457	43304	109726	0	0	8179	621495	0	0
2024-07-03 02:03:32			0	36271	0	0	0	26251	24840	148721	27145	1027439	43328	109722	0	0	8180	620861	0	0
2024-07-03 02:04:32			0	36262	0	0	0	26251	24850	148577	26817	1027447	43318	109722	0	0	8180	621206	0	0
2024-07-03 02:05:32			0	36251	0	0	0	26249	24840	148713	27149	1027439	43317	109721	0	0	8179	621706	0	0
2024-07-03 02:06:32			0	36246	0	0	0	26254	24840	148621	26771	1027403	43327	109723	0	0	8179	621918	0	0
2024-07-03 02:07:32			0	36267	0	0	0	26251	24830	148621	27154	1027448	43293	109722	0	0	8180	621065	0	0
2024-07-03 02:08:32			0	36291	0	0	0	26246	24830	148669	27135	1027448	43316	109720	0	0	8181	620052	0	0
2024-07-03 02:09:32			0	36284	0	0	0	26241	24840	148625	27119	1027430	43327	109718	0	0	8181	620312	0	0
2024-07-03 02:10:32			0	36288	0	0	0	26254	24840	148549	27258	1027439	43317	109723	0	0	8181	620144	0	0
2024-07-03 02:11:32			0	36277	0	0	0	26251	24840	148553	27320	1027465	43317	109722	0	0	8180	620608	0	0
2024-07-03 02:12:32			0	36272	0	0	0	26246	24840	148641	26982	1027465	43317	109720	0	0	8180	620819	0	0
2024-07-03 02:13:32			0	36294	0	0	0	26246	24840	148541	27246	1027465	43305	109720	0	0	8181	619890	0	0
2024-07-03 02:14:32			0	36290	0	0	0	26254	24840	148525	26953	1027457	43304	109723	0	0	8181	620059	0	0
2024-07-03 02:15:32			0	36297	0	0	0	26254	24840	148525	27144	1027403	43316	109723	0	0	8181	619764	0	0
2024-07-03 02:16:32			0	36292	0	0	0	26246	24840	148545	26864	1027457	43316	109720	0	0	8181	619975	0	0
2024-07-03 02:17:32			0	36297	0	0	0	26246	24840	148461	26906	1027376	43316	109720	0	0	8182	619764	0	0
2024-07-03 02:18:32			0	36319	0	0	0	26236	24840	148409	27050	1027430	43316	109716	0	0	8183	618836	0	0
2024-07-03 02:19:32			0	36337	0	0	0	26246	24830	148429	27142	1027395	43304	109720	0	0	8184	618113	0	0
2024-07-03 02:20:32			0	36338	0	0	0	26246	24830	148421	27320	1027421	43293	109720	0	0	8184	618071	0	0
2024-07-03 02:21:32			0	36342	0	0	0	26244	24830	148333	27010	1027448	43304	109719	0	0	8184	617903	0	0
2024-07-03 02:22:32			0	36351	0	0	0	26236	24840	148337	27249	1027439	43317	109716	0	0	8185	617489	0	0
2024-07-03 02:23:32			0	36352	0	0	0	26236	24830	148249	27060	1027332	43304	109716	0	0	8185	617482	0	0
2024-07-03 02:24:32			0	36363	0	0	0	26238	24830	148253	27034	1027341	43316	109717	0	0	8185	617019	0	0
2024-07-03 02:25:32			0	36374	0	0	0	26236	24830	148165	26715	1027439	43304	109716	0	0	8186	616557	0	0
2024-07-03 02:26:32			0	36385	0	0	0	26238	24840	148277	26819	1027457	43327	109717	0	0	8186	616059	0	0
2024-07-03 02:27:32			0	36377	0	0	0	26238	24830	148289	26791	1027386	43304	109717	0	0	8186	616430	0	0
2024-07-03 02:28:32			0	36402	0	0	0	26236	24840	148081	27183	1027430	43304	109716	0	0	8187	615346	0	0
2024-07-03 02:29:32			0	36404	0	0	0	26236	24830	148165	26757	1027332	43316	109716	0	0	8187	615297	0	0
2024-07-03 02:30:32			0	36407	0	0	0	26238	24840	148213	26948	1027457	43316	109717	0	0	8188	615136	0	0
2024-07-03 02:31:32			0	36404	0	0	0	26241	24830	148157	26816	1027448	43316	109718	0	0	8187	615297	0	0
2024-07-03 02:32:32			0	36391	0	0	0	26246	24830	148173	27098	1027395	43304	109720	0	0	8187	615842	0	0
2024-07-03 02:33:32			0	36417	0	0	0	26241	24830	148157	27157	1027439	43316	109718	0	0	8188	614751	0	0
2024-07-03 02:34:32			0	36408	0	0	0	26238	24830	148093	26765	1027386	43316	109717	0	0	8188	615129	0	0
2024-07-03 02:35:32			0	36424	0	0	0	26236	24830	148057	27107	1027332	43316	109716	0	0	8188	614457	0	0
2024-07-03 02:36:32			0	36419	0	0	0	26233	24830	147973	26916	1027439	43316	109715	0	0	8188	614667	0	0
2024-07-03 02:37:32			0	36432	0	0	0	26225	24830	147981	27161	1027332	43304	109712	0	0	8189	614122	0	0
2024-07-03 02:38:32			0	36467	0	0	0	26231	24820	147937	26937	1027377	43303	109714	0	0	8191	612691	0	0
2024-07-03 02:39:32			0	36449	0	0	0	26228	24820	147949	27078	1027324	43303	109713	0	0	8190	613444	0	0
2024-07-03 02:40:32			0	36466	0	0	0	26236	24820	147837	27161	1027350	43303	109716	0	0	8191	612733	0	0
2024-07-03 02:41:32			0	36481	0	0	0	26231	24820	147829	27234	1027342	43314	109714	0	0	8191	612105	0	0
2024-07-03 02:42:32			0	36466	0	0	0	26228	24820	147829	26987	1027350	43315	109713	0	0	8191	612733	0	0
2024-07-03 02:43:32			0	36497	0	0	0	26218	24820	147773	27182	1027377	43303	109709	0	0	8193	611436	0	0
2024-07-03 02:44:32			0	36491	0	0	0	26231	24820	147769	26979	1027324	43303	109714	0	0	8192	611687	0	0
2024-07-03 02:45:32			0	36496	0	0	0	26236	24830	147761	27055	1027359	43316	109716	0	0	8192	611443	0	0
2024-07-03 02:46:32			0	36498	0	0	0	26220	24830	147777	26927	1027359	43316	109710	0	0	8193	611360	0	0
2024-07-03 02:47:32			0	36512	0	0	0	26223	24820	147701	27202	1027324	43315	109711	0	0	8193	610810	0	0
2024-07-03 02:48:32			0	36516	0	0	0	26223	24820	147721	26819	1027342	43302	109711	0	0	8193	610643	0	0
2024-07-03 02:49:32			0	36501	0	0	0	26225	24820	147697	27182	1027342	43302	109712	0	0	8193	611269	0	0
2024-07-03 02:50:32			0	36525	0	0	0	26220	24810	147581	26961	1027271	43313	109710	0	0	8194	610301	0	0
2024-07-03 02:51:32			0	36509	0	0	0	26218	24810	147661	27170	1027351	43313	109709	0	0	8193	610970	0	0
2024-07-03 02:52:32			0	36533	0	0	0	26220	24810	147449	26857	1027333	43325	109710	0	0	8194	609968	0	0
2024-07-03 02:53:32			0	36553	0	0	0	26218	24810	147537	27007	1027280	43302	109709	0	0	8195	609134	0	0
2024-07-03 02:54:32			0	36551	0	0	0	26205	24810	147513	26861	1027298	43302	109704	0	0	8196	609217	0	0
2024-07-03 02:55:32			0	36557	0	0	0	26205	24810	147365	27100	1027298	43302	109704	0	0	8196	608967	0	0
2024-07-03 02:56:32			0	36579	0	0	0	26210	24800	147425	26897	1027235	43313	109706	0	0	8197	608085	0	0
2024-07-03 02:57:32			0	36581	0	0	0	26205	24790	147369	27157	1027218	43300	109704	0	0	8197	608036	0	0
2024-07-03 02:58:32			0	36581	0	0	0	26202	24800	147361	27209	1027289	43302	109703	0	0	8197	608002	0	0
2024-07-03 02:59:32			0	36605	0	0	0	26210	24810	147362	27109	1027271	43302	109706	0	0	8198	606969	0	0
2024-07-03 03:00:32			0	36590	0	0	0	26205	24810	147397	27012	1027244	43324	109704	0	0	8198	607593	0	0
2024-07-03 03:01:32			0	36589	0	0	0	26215	24800	147358	26949	1027262	43302	109708	0	0	8197	607669	0	0
2024-07-03 03:02:32			0	36586	0	0	0	26205	24800	147501	27218	1027235	43302	109704	0	0	8197	607794	0	0
2024-07-03 03:03:32			0	36587	0	0	0	26212	24800	147438	27310	1027235	43313	109707	0	0	8197	607752	0	0
2024-07-03 03:04:32			0	36583	0	0	0	26210	24790	147313	27034	1027191	43300	109706	0	0	8197	607953	0	0
2024-07-03 03:05:32			0	36588	0	0	0	26212	24800	147358	27255	1027235	43302	109707	0	0	8197	607710	0	0
2024-07-03 03:06:32			0	36598	0	0	0	26205	24800	147298	26989	1027226	43312	109704	0	0	8198	607294	0	0
2024-07-03 03:07:32			0	36592	0	0	0	26197	24800	147365	27305	1027226	43312	109701	0	0	8198	607544	0	0
2024-07-03 03:08:32			0	36590	0	0	0	26205	24800	147401	27182	1027182	43313	109704	0	0	8198	607627	0	0
2024-07-03 03:09:32			0	36592	0	0	0	26202	24800	147345	27277	1027226	43312	109703	0	0	8198	607544	0	0
2024-07-03 03:10:32			0	36592	0	0	0	26202	24790	147393	27267	1027218	43300	109703	0	0	8198	607578	0	0
2024-07-03 03:11:32			0	36595	0	0	0	26199	24790	147414	27130	1027271	43311	109702	0	0	8198	607453	0	0
2024-07-03 03:12:32			0	36583	0	0	0	26202	24800	147393	26994	1027226	43312	109703	0	0	8197	607918	0	0
2024-07-03 03:13:32			0	36579	0	0	0	26205	24800	147373	27270	1027200	43301	109704	0	0	8197	608085	0	0
2024-07-03 03:14:32			0	36590	0	0	0	26207	24800	147285	27013	1027200	43312	109705	0	0	8198	607627	0	0
2024-07-03 03:15:32			0	36596	0	0	0	26202	24790	147334	27235	1027182	43311	109703	0	0	8198	607412	0	0
2024-07-03 03:16:32			0	36594	0	0	0	26199	24780	147326	27474	1027200	43311	109702	0	0	8198	607529	0	0
2024-07-03 03:17:32			0	36585	0	0	0	26205	24790	147337	27130	1027191	43300	109704	0	0	8197	607870	0	0
2024-07-03 03:18:32			0	36597	0	0	0	26205	24790	147393	27064	1027182	43289	109704	0	0	8198	607370	0	0
2024-07-03 03:19:32			0	36597	0	0	0	26202	24790	147422	27066	1027137	43311	109703	0	0	8198	607370	0	0
2024-07-03 03:20:32			0	36592	0	0	0	26205	24790	147425	26977	1027182	43300	109704	0	0	8198	607578	0	0
2024-07-03 03:21:32			0	36610	0	0	0	26199	24780	147362	27270	1027227	43300	109702	0	0	8199	606864	0	0
2024-07-03 03:22:32			0	36601	0	0	0	26192	24780	147410	27319	1027174	43322	109699	0	0	8198	607238	0	0
2024-07-03 03:23:32			0	36587	0	0	0	26192	24780	147345	26925	1027200	43311	109699	0	0	8198	607821	0	0
2024-07-03 03:24:32			0	36586	0	0	0	26199	24780	147433	27026	1027174	43300	109702	0	0	8197	607862	0	0
2024-07-03 03:25:32			0	36599	0	0	0	26192	24790	147430	27013	1027182	43322	109699	0	0	8198	607287	0	0
2024-07-03 03:26:32			0	36584	0	0	0	26192	24790	147365	27255	1027209	43311	109699	0	0	8197	607911	0	0
2024-07-03 03:27:32			0	36605	0	0	0	26186	24790	147490	27308	1027218	43311	109697	0	0	8199	607038	0	0
2024-07-03 03:28:32			0	36595	0	0	0	26194	24790	147373	27142	1027236	43322	109700	0	0	8198	607453	0	0
2024-07-03 03:29:32			0	36583	0	0	0	26199	24800	147425	27005	1027200	43301	109702	0	0	8197	607918	0	0
2024-07-03 03:30:32			0	36574	0	0	0	26192	24780	147473	27081	1027174	43311	109699	0	0	8197	608362	0	0
2024-07-03 03:31:32			0	36585	0	0	0	26194	24790	147421	27109	1027156	43311	109700	0	0	8197	607870	0	0
2024-07-03 03:32:32			0	36582	0	0	0	26192	24790	147397	27320	1027182	43300	109699	0	0	8197	607994	0	0
2024-07-03 03:33:32			0	36577	0	0	0	26199	24780	147505	27195	1027174	43311	109702	0	0	8197	608237	0	0
2024-07-03 03:34:32			0	36601	0	0	0	26186	24780	147442	27310	1027147	43300	109697	0	0	8198	607238	0	0
2024-07-03 03:35:32			0	36571	0	0	0	26186	24790	147449	27211	1027156	43311	109697	0	0	8197	608453	0	0
2024-07-03 03:36:32			0	36593	0	0	0	26189	24790	147389	27377	1027182	43333	109698	0	0	8198	607537	0	0
2024-07-03 03:37:32			0	36609	0	0	0	26181	24790	147338	27164	1027182	43311	109695	0	0	8199	606871	0	0
2024-07-03 03:38:32			0	36583	0	0	0	26189	24780	147457	27206	1027147	43322	109698	0	0	8197	607987	0	0
2024-07-03 03:39:32			0	36590	0	0	0	26181	24780	147337	26854	1027200	43289	109695	0	0	8198	607696	0	0
2024-07-03 03:40:32			0	36591	0	0	0	26186	24780	147425	27033	1027120	43311	109697	0	0	8198	607654	0	0
2024-07-03 03:41:32			0	36580	0	0	0	26179	24770	147429	27007	1027103	43309	109694	0	0	8197	608147	0	0
2024-07-03 03:42:32			0	36609	0	0	0	26179	24780	147350	27097	1027138	43299	109694	0	0	8199	606905	0	0
2024-07-03 03:43:32			0	36601	0	0	0	26179	24770	147366	27244	1027076	43309	109694	0	0	8198	607273	0	0
2024-07-03 03:44:32			0	36604	0	0	0	26184	24780	147314	27116	1027165	43321	109696	0	0	8199	607114	0	0
2024-07-03 03:45:32			0	36610	0	0	0	26181	24770	147366	27135	1027121	43309	109695	0	0	8199	606898	0	0
2024-07-03 03:46:32			0	36596	0	0	0	26176	24770	147382	26804	1027130	43320	109693	0	0	8198	607481	0	0
2024-07-03 03:47:32			0	36607	0	0	0	26174	24770	147410	27171	1027130	43309	109692	0	0	8199	607023	0	0
2024-07-03 03:48:32			0	36602	0	0	0	26176	24760	147418	27312	1027112	43309	109693	0	0	8198	607265	0	0
2024-07-03 03:49:32			0	36585	0	0	0	26176	24770	147401	27057	1027076	43309	109693	0	0	8198	607939	0	0
2024-07-03 03:50:32			0	36600	0	0	0	26174	24770	147330	27085	1027121	43298	109692	0	0	8198	607314	0	0
2024-07-03 03:51:32			0	36604	0	0	0	26179	24770	147382	27365	1027130	43309	109694	0	0	8199	607148	0	0
2024-07-03 03:52:32			0	36582	0	0	0	26179	24770	147313	27086	1027130	43309	109694	0	0	8197	608063	0	0
2024-07-03 03:53:32			0	36597	0	0	0	26176	24770	147382	27374	1027121	43309	109693	0	0	8198	607439	0	0
2024-07-03 03:54:32			0	36605	0	0	0	26176	24760	147338	27296	1027112	43309	109693	0	0	8199	607141	0	0
2024-07-03 03:55:32			0	36596	0	0	0	26174	24770	147349	27197	1027156	43298	109692	0	0	8198	607481	0	0
2024-07-03 03:56:32			0	36594	0	0	0	26179	24760	147421	27355	1027085	43320	109694	0	0	8198	607598	0	0
2024-07-03 03:57:32			0	36596	0	0	0	26179	24770	147473	27128	1027094	43309	109694	0	0	8198	607481	0	0
2024-07-03 03:58:32			0	36592	0	0	0	26171	24770	147377	26918	1027121	43309	109691	0	0	8198	607647	0	0
2024-07-03 03:59:32			0	36594	0	0	0	26179	24770	147393	26923	1027094	43309	109694	0	0	8198	607564	0	0
2024-07-03 04:00:32			0	36590	0	0	0	26168	24760	147401	27286	1027085	43298	109690	0	0	8198	607765	0	0
2024-07-03 04:01:32			0	36570	0	0	0	26171	24760	147433	27403	1027059	43309	109691	0	0	8197	608598	0	0
2024-07-03 04:02:32			0	36589	0	0	0	26174	24760	147410	27351	1027112	43320	109692	0	0	8198	607806	0	0
2024-07-03 04:03:32			0	36565	0	0	0	26179	24760	147457	27105	1027085	43309	109694	0	0	8197	608806	0	0
2024-07-03 04:04:32			0	36593	0	0	0	26179	24760	147477	27313	1027059	43309	109694	0	0	8198	607640	0	0
2024-07-03 04:05:32			0	36571	0	0	0	26174	24760	147397	27341	1027130	43308	109692	0	0	8197	608556	0	0
2024-07-03 04:06:32			0	36573	0	0	0	26171	24760	147441	27045	1027112	43320	109691	0	0	8197	608473	0	0
2024-07-03 04:07:32			0	36579	0	0	0	26174	24770	147461	26925	1027121	43309	109692	0	0	8197	608188	0	0
2024-07-03 04:08:32			0	36581	0	0	0	26181	24770	147461	26805	1027121	43309	109695	0	0	8197	608105	0	0
2024-07-03 04:09:32			0	36582	0	0	0	26179	24770	147337	27374	1027148	43309	109694	0	0	8197	608063	0	0
2024-07-03 04:10:32			0	36581	0	0	0	26179	24770	147413	27298	1027121	43332	109694	0	0	8197	608105	0	0
2024-07-03 04:11:32			0	36595	0	0	0	26176	24770	147485	26994	1027174	43309	109693	0	0	8198	607522	0	0
2024-07-03 04:12:32			0	36584	0	0	0	26174	24760	147353	27098	1027112	43320	109692	0	0	8198	608015	0	0
2024-07-03 04:13:32			0	36591	0	0	0	26181	24770	147417	27303	1027121	43309	109695	0	0	8198	607689	0	0
2024-07-03 04:14:32			0	36568	0	0	0	26184	24770	147385	27107	1027130	43287	109696	0	0	8197	608646	0	0
2024-07-03 04:15:32			0	36575	0	0	0	26174	24770	147429	27239	1027174	43309	109692	0	0	8197	608355	0	0
2024-07-03 04:16:32			0	36571	0	0	0	26179	24760	147457	27235	1027166	43320	109694	0	0	8197	608556	0	0
2024-07-03 04:17:32			0	36572	0	0	0	26174	24770	147509	27280	1027130	43309	109692	0	0	8197	608480	0	0
2024-07-03 04:18:32			0	36560	0	0	0	26174	24770	147529	27140	1027148	43309	109692	0	0	8196	608980	0	0
2024-07-03 04:19:32			0	36566	0	0	0	26163	24770	147525	27109	1027148	43320	109688	0	0	8197	608730	0	0
2024-07-03 04:20:32			0	36564	0	0	0	26176	24770	147513	27069	1027130	43298	109693	0	0	8197	608813	0	0
2024-07-03 04:21:32			0	36546	0	0	0	26176	24770	147485	27531	1027121	43332	109693	0	0	8196	609563	0	0
2024-07-03 04:22:32			0	36544	0	0	0	26176	24780	147609	27209	1027138	43310	109693	0	0	8196	609613	0	0
2024-07-03 04:23:32			0	36558	0	0	0	26174	24760	147505	27235	1027112	43309	109692	0	0	8196	609098	0	0
2024-07-03 04:24:32			0	36564	0	0	0	26174	24770	147581	27242	1027121	43320	109692	0	0	8197	608813	0	0
2024-07-03 04:25:32			0	36560	0	0	0	26171	24770	147589	27281	1027094	43309	109691	0	0	8196	608980	0	0
2024-07-03 04:26:32			0	36563	0	0	0	26171	24770	147509	27078	1027121	43298	109691	0	0	8197	608855	0	0
2024-07-03 04:27:32			0	36547	0	0	0	26163	24750	147621	27045	1027041	43296	109688	0	0	8196	609591	0	0
2024-07-03 04:28:32			0	36549	0	0	0	26161	24760	147569	27121	1027077	43308	109687	0	0	8196	609473	0	0
2024-07-03 04:29:32			0	36530	0	0	0	26161	24760	147489	27149	1027103	43331	109687	0	0	8195	610266	0	0
2024-07-03 04:30:32			0	36530	0	0	0	26166	24760	147565	27575	1027077	43308	109689	0	0	8195	610266	0	0
2024-07-03 04:31:32			0	36554	0	0	0	26155	24750	147605	27192	1027041	43330	109685	0	0	8196	609299	0	0
2024-07-03 04:32:32			0	36550	0	0	0	26163	24750	147665	27393	1027041	43307	109688	0	0	8196	609466	0	0
2024-07-03 04:33:32			0	36549	0	0	0	26161	24750	147605	27227	1027095	43319	109687	0	0	8196	609507	0	0
2024-07-03 04:34:32			0	36537	0	0	0	26161	24750	147665	27286	1027033	43307	109687	0	0	8195	610008	0	0
2024-07-03 04:35:32			0	36529	0	0	0	26150	24750	147669	27322	1027033	43319	109683	0	0	8195	610342	0	0
2024-07-03 04:36:32			0	36535	0	0	0	26150	24750	147753	27291	1027041	43319	109683	0	0	8195	610091	0	0
2024-07-03 04:37:32			0	36516	0	0	0	26158	24750	147621	27609	1027041	43307	109686	0	0	8194	610885	0	0
2024-07-03 04:38:32			0	36520	0	0	0	26158	24750	147709	27303	1027015	43307	109686	0	0	8194	610718	0	0
2024-07-03 04:39:32			0	36526	0	0	0	26166	24750	147661	27161	1027041	43319	109689	0	0	8195	610467	0	0
2024-07-03 04:40:32			0	36525	0	0	0	26158	24750	147761	27242	1027041	43296	109686	0	0	8195	610509	0	0
2024-07-03 04:41:32			0	36534	0	0	0	26153	24760	147753	27345	1027103	43308	109684	0	0	8195	610099	0	0
2024-07-03 04:42:32			0	36540	0	0	0	26150	24750	147681	27492	1027059	43319	109683	0	0	8196	609883	0	0
2024-07-03 04:43:32			0	36523	0	0	0	26161	24750	147649	27284	1027006	43319	109687	0	0	8195	610592	0	0
2024-07-03 04:44:32			0	36522	0	0	0	26155	24750	147681	27287	1027095	43330	109685	0	0	8195	610634	0	0
2024-07-03 04:45:32			0	36526	0	0	0	26166	24750	147713	27138	1027068	43319	109689	0	0	8195	610467	0	0
2024-07-03 04:46:32			0	36523	0	0	0	26161	24750	147857	27223	1027086	43296	109687	0	0	8195	610592	0	0
2024-07-03 04:47:32			0	36542	0	0	0	26161	24750	147677	27057	1027086	43307	109687	0	0	8196	609799	0	0
2024-07-03 04:48:32			0	36524	0	0	0	26168	24750	147797	27338	1027059	43307	109690	0	0	8194	610551	0	0
2024-07-03 04:49:32			0	36523	0	0	0	26158	24750	147585	27282	1027068	43319	109686	0	0	8195	610592	0	0
2024-07-03 04:50:32			0	36533	0	0	0	26158	24750	147685	27258	1027033	43319	109686	0	0	8195	610175	0	0
2024-07-03 04:51:32			0	36507	0	0	0	26150	24750	147697	27478	1027068	43307	109683	0	0	8194	611261	0	0
2024-07-03 04:52:32			0	36523	0	0	0	26161	24740	147689	27341	1027024	43306	109687	0	0	8195	610627	0	0
2024-07-03 04:53:32			0	36516	0	0	0	26153	24750	147857	27215	1027059	43307	109684	0	0	8194	610885	0	0
2024-07-03 04:54:32			0	36544	0	0	0	26145	24750	147741	27327	1027095	43307	109681	0	0	8196	609716	0	0
2024-07-03 04:55:32			0	36542	0	0	0	26148	24740	147801	27485	1026997	43306	109682	0	0	8196	609834	0	0
2024-07-03 04:56:32			0	36528	0	0	0	26158	24750	147821	27391	1027059	43307	109686	0	0	8195	610384	0	0
2024-07-03 04:57:32			0	36531	0	0	0	26142	24750	147725	27388	1027033	43307	109680	0	0	8195	610258	0	0
2024-07-03 04:58:32			0	36522	0	0	0	26145	24750	147765	27303	1027006	43307	109681	0	0	8195	610634	0	0
2024-07-03 04:59:32			0	36514	0	0	0	26150	24740	147769	27421	1027015	43318	109683	0	0	8194	611003	0	0
2024-07-03 05:00:32			0	36506	0	0	0	26150	24750	147805	27379	1027006	43319	109683	0	0	8194	611302	0	0
2024-07-03 05:01:32			0	36510	0	0	0	26150	24750	147657	27239	1027086	43307	109683	0	0	8194	611135	0	0
2024-07-03 05:02:32			0	36516	0	0	0	26145	24740	147777	27372	1027024	43306	109681	0	0	8194	610919	0	0
2024-07-03 05:03:32			0	36522	0	0	0	26150	24740	147813	27381	1027024	43306	109683	0	0	8195	610669	0	0
2024-07-03 05:04:32			0	36521	0	0	0	26148	24740	147805	27450	1027024	43306	109682	0	0	8195	610710	0	0
2024-07-03 05:05:32			0	36506	0	0	0	26145	24740	147745	27090	1026997	43318	109681	0	0	8194	611337	0	0
2024-07-03 05:06:32			0	36510	0	0	0	26150	24730	147809	27291	1026980	43317	109683	0	0	8194	611205	0	0
2024-07-03 05:07:32			0	36504	0	0	0	26142	24730	147817	27331	1026971	43294	109680	0	0	8194	611455	0	0
2024-07-03 05:08:32			0	36517	0	0	0	26150	24740	147753	27377	1027042	43318	109683	0	0	8194	610878	0	0
2024-07-03 05:09:32			0	36511	0	0	0	26148	24740	147853	27469	1027015	43306	109682	0	0	8194	611128	0	0
2024-07-03 05:10:32			0	36526	0	0	0	26145	24740	147797	27289	1027042	43318	109681	0	0	8195	610502	0	0
2024-07-03 05:11:32			0	36519	0	0	0	26145	24720	147861	26927	1027007	43293	109681	0	0	8194	610863	0	0
2024-07-03 05:12:32			0	36528	0	0	0	26137	24730	147809	27102	1026998	43317	109678	0	0	8195	610453	0	0
2024-07-03 05:13:32			0	36515	0	0	0	26140	24740	147677	27241	1026997	43295	109679	0	0	8194	610961	0	0
2024-07-03 05:14:32			0	36525	0	0	0	26142	24730	147713	27206	1027007	43317	109680	0	0	8195	610578	0	0
2024-07-03 05:15:32			0	36515	0	0	0	26148	24740	147761	27457	1027015	43306	109682	0	0	8194	610961	0	0
2024-07-03 05:16:32			0	36513	0	0	0	26140	24740	147873	27305	1027015	43318	109679	0	0	8194	611045	0	0
2024-07-03 05:17:32			0	36500	0	0	0	26142	24740	147793	26928	1026970	43306	109680	0	0	8194	611588	0	0
2024-07-03 05:18:32			0	36507	0	0	0	26145	24740	147741	27298	1027015	43306	109681	0	0	8194	611295	0	0
2024-07-03 05:19:32			0	36514	0	0	0	26140	24740	147685	27287	1027024	43306	109679	0	0	8194	611003	0	0
2024-07-03 05:20:32			0	36504	0	0	0	26140	24730	147677	27391	1026980	43305	109679	0	0	8194	611455	0	0
2024-07-03 05:21:32			0	36512	0	0	0	26135	24740	147685	27203	1026989	43306	109677	0	0	8194	611086	0	0
2024-07-03 05:22:32			0	36536	0	0	0	26137	24740	147657	27020	1026989	43295	109678	0	0	8196	610084	0	0
2024-07-03 05:23:32			0	36512	0	0	0	26132	24730	147753	27171	1026926	43294	109676	0	0	8194	611121	0	0
2024-07-03 05:24:32			0	36525	0	0	0	26135	24730	147693	27296	1026998	43305	109677	0	0	8195	610578	0	0
2024-07-03 05:25:32			0	36524	0	0	0	26135	24730	147697	27218	1026953	43305	109677	0	0	8195	610620	0	0
2024-07-03 05:26:32			0	36517	0	0	0	26129	24730	147649	26941	1026980	43294	109675	0	0	8195	610912	0	0
2024-07-03 05:27:32			0	36527	0	0	0	26124	24720	147589	27327	1026989	43304	109673	0	0	8195	610529	0	0
2024-07-03 05:28:32			0	36538	0	0	0	26127	24730	147701	27332	1026918	43294	109674	0	0	8196	610036	0	0
2024-07-03 05:29:32			0	36539	0	0	0	26122	24730	147657	27376	1026971	43305	109672	0	0	8196	609994	0	0
2024-07-03 05:30:32			0	36547	0	0	0	26124	24730	147561	27242	1026918	43305	109673	0	0	8196	609660	0	0
2024-07-03 05:31:32			0	36532	0	0	0	26124	24730	147561	27362	1026944	43317	109673	0	0	8196	610286	0	0
2024-07-03 05:32:32			0	36523	0	0	0	26122	24730	147597	27317	1026944	43305	109672	0	0	8195	610662	0	0
2024-07-03 05:33:32			0	36526	0	0	0	26124	24720	147637	27296	1026936	43304	109673	0	0	8195	610571	0	0
2024-07-03 05:34:32			0	36530	0	0	0	26114	24720	147621	27211	1026927	43293	109669	0	0	8196	610404	0	0
2024-07-03 05:35:32			0	36531	0	0	0	26122	24720	147645	27071	1026909	43304	109672	0	0	8196	610362	0	0
2024-07-03 05:36:32			0	36529	0	0	0	26119	24700	147601	26961	1026901	43291	109671	0	0	8195	610515	0	0
2024-07-03 05:37:32			0	36514	0	0	0	26122	24730	147661	27090	1026944	43317	109672	0	0	8195	611037	0	0
2024-07-03 05:38:32			0	36529	0	0	0	26119	24720	147729	27315	1026874	43293	109671	0	0	8195	610446	0	0
2024-07-03 05:39:32			0	36521	0	0	0	26116	24720	147761	27072	1026927	43304	109670	0	0	8195	610780	0	0
2024-07-03 05:40:32			0	36518	0	0	0	26114	24710	147761	27400	1026945	43292	109669	0	0	8195	610940	0	0
2024-07-03 05:41:32			0	36517	0	0	0	26122	24710	147769	27235	1026830	43314	109672	0	0	8195	610981	0	0
2024-07-03 05:42:32			0	36510	0	0	0	26111	24710	147737	27079	1026892	43292	109668	0	0	8195	611274	0	0
2024-07-03 05:43:32			0	36505	0	0	0	26106	24700	147745	27350	1026866	43303	109666	0	0	8194	611517	0	0
2024-07-03 05:44:32			0	36515	0	0	0	26106	24700	147805	27152	1026874	43303	109666	0	0	8195	611100	0	0
2024-07-03 05:45:32			0	36484	0	0	0	26098	24700	147873	27376	1026892	43303	109663	0	0	8193	612396	0	0
2024-07-03 05:46:32			0	36488	0	0	0	26111	24700	147885	27178	1026839	43303	109668	0	0	8193	612228	0	0
2024-07-03 05:47:32			0	36486	0	0	0	26106	24700	147829	27253	1026839	43291	109666	0	0	8193	612312	0	0
2024-07-03 05:48:32			0	36472	0	0	0	26109	24700	147977	27220	1026866	43303	109667	0	0	8193	612898	0	0
2024-07-03 05:49:32			0	36474	0	0	0	26109	24700	147989	27597	1026866	43303	109667	0	0	8193	612814	0	0
2024-07-03 05:50:32			0	36451	0	0	0	26106	24700	147877	27289	1026839	43314	109666	0	0	8191	613778	0	0
2024-07-03 05:51:32			0	36447	0	0	0	26101	24700	147985	27227	1026866	43314	109664	0	0	8191	613945	0	0
2024-07-03 05:52:32			0	36442	0	0	0	26101	24700	148009	27282	1026866	43314	109664	0	0	8191	614155	0	0
2024-07-03 05:53:32			0	36446	0	0	0	26106	24700	148029	27307	1026812	43303	109666	0	0	8191	613987	0	0
2024-07-03 05:54:32			0	36433	0	0	0	26106	24690	147985	27263	1026884	43302	109666	0	0	8190	614567	0	0
2024-07-03 05:55:32			0	36424	0	0	0	26098	24690	148037	26965	1026795	43290	109663	0	0	8190	614945	0	0
2024-07-03 05:56:32			0	36415	0	0	0	26101	24690	148057	27460	1026830	43302	109664	0	0	8190	615323	0	0
2024-07-03 05:57:32			0	36415	0	0	0	26103	24690	148109	27450	1026822	43301	109665	0	0	8190	615323	0	0
2024-07-03 05:58:32			0	36409	0	0	0	26098	24690	148137	27312	1026848	43301	109663	0	0	8189	615574	0	0
2024-07-03 05:59:32			0	36401	0	0	0	26093	24680	148189	27230	1026813	43301	109661	0	0	8189	615945	0	0
2024-07-03 06:00:32			0	36383	0	0	0	26088	24690	148309	27332	1026830	43302	109659	0	0	8188	616667	0	0
2024-07-03 06:01:32			0	36376	0	0	0	26080	24690	148273	27362	1026768	43323	109656	0	0	8188	616961	0	0
2024-07-03 06:02:32			0	36375	0	0	0	26075	24680	148289	27329	1026697	43311	109654	0	0	8188	617038	0	0
2024-07-03 06:03:32			0	36349	0	0	0	26067	24680	148353	27300	1026679	43312	109651	0	0	8187	618133	0	0
2024-07-03 06:04:32			0	36339	0	0	0	26070	24680	148385	27286	1026724	43289	109652	0	0	8186	618554	0	0
2024-07-03 06:05:32			0	36322	0	0	0	26057	24680	148433	27130	1026670	43300	109647	0	0	8185	619271	0	0
2024-07-03 06:06:32			0	36297	0	0	0	26049	24670	148621	27281	1026626	43299	109644	0	0	8184	620361	0	0
2024-07-03 06:07:32			0	36298	0	0	0	26044	24670	148621	27281	1026706	43288	109642	0	0	8184	620318	0	0
2024-07-03 06:08:32			0	36271	0	0	0	26051	24660	148633	27357	1026671	43299	109645	0	0	8183	621494	0	0
2024-07-03 06:09:32			0	36256	0	0	0	26044	24660	148761	27229	1026671	43299	109642	0	0	8182	622129	0	0
2024-07-03 06:10:32			0	36239	0	0	0	26031	24660	148869	27093	1026609	43288	109637	0	0	8181	622848	0	0
2024-07-03 06:11:32			0	36213	0	0	0	26028	24650	148949	27161	1026600	43298	109636	0	0	8180	623985	0	0
2024-07-03 06:12:32			0	36205	0	0	0	26033	24640	149005	27124	1026601	43296	109638	0	0	8179	624360	0	0
2024-07-03 06:13:32			0	36211	0	0	0	26036	24660	149029	27114	1026609	43309	109639	0	0	8180	624035	0	0
2024-07-03 06:14:32			0	36193	0	0	0	26041	24640	149041	27180	1026556	43297	109641	0	0	8179	624869	0	0
2024-07-03 06:15:32			0	36195	0	0	0	26036	24650	149081	26807	1026591	43287	109639	0	0	8179	624749	0	0
2024-07-03 06:16:32			0	36198	0	0	0	26023	24640	149057	27015	1026494	43274	109634	0	0	8179	624657	0	0
2024-07-03 06:17:32			0	36193	0	0	0	26012	24630	149077	27001	1026432	43285	109630	0	0	8179	624904	0	0
2024-07-03 06:18:32			0	36170	0	0	0	25999	24620	149069	27223	1026334	43295	109625	0	0	8178	625917	0	0
2024-07-03 06:19:32			0	36185	0	0	0	25984	24620	149037	27069	1026352	43284	109619	0	0	8179	625279	0	0
2024-07-03 06:20:32			0	36170	0	0	0	25984	24600	149093	27109	1026326	43282	109619	0	0	8178	625987	0	0
2024-07-03 06:21:32			0	36204	0	0	0	25989	24610	149053	27216	1026343	43293	109621	0	0	8180	624508	0	0
2024-07-03 06:22:32			0	36189	0	0	0	25984	24600	149037	27232	1026380	43304	109619	0	0	8179	625180	0	0
2024-07-03 06:23:32			0	36181	0	0	0	25989	24600	148969	27119	1026326	43292	109621	0	0	8179	625520	0	0
2024-07-03 06:24:32			0	36220	0	0	0	25986	24590	148937	27512	1026344	43292	109620	0	0	8181	623900	0	0
2024-07-03 06:25:32			0	36229	0	0	0	25981	24600	148821	26958	1026326	43292	109618	0	0	8181	623483	0	0
2024-07-03 06:26:32			0	36228	0	0	0	25986	24590	148921	27258	1026344	43282	109620	0	0	8181	623561	0	0
2024-07-03 06:27:32			0	36265	0	0	0	25984	24590	148865	27301	1026317	43282	109619	0	0	8183	621994	0	0
2024-07-03 06:28:32			0	36260	0	0	0	25979	24580	148849	27265	1026273	43291	109617	0	0	8183	622241	0	0
2024-07-03 06:29:32			0	36285	0	0	0	25971	24590	148761	27322	1026255	43291	109614	0	0	8185	621149	0	0
2024-07-03 06:30:32			0	36294	0	0	0	25981	24590	148641	27303	1026309	43281	109618	0	0	8185	620768	0	0
2024-07-03 06:31:32			0	36312	0	0	0	25971	24570	148597	27156	1026229	43280	109614	0	0	8186	620078	0	0
2024-07-03 06:32:32			0	36310	0	0	0	25971	24580	148509	27116	1026265	43291	109614	0	0	8186	620128	0	0
2024-07-03 06:33:32			0	36350	0	0	0	25968	24580	148377	27053	1026300	43291	109613	0	0	8188	618440	0	0
2024-07-03 06:34:32			0	36390	0	0	0	25955	24570	148305	27223	1026229	43302	109608	0	0	8190	616791	0	0
2024-07-03 06:35:32			0	36389	0	0	0	25958	24570	148321	27209	1026167	43290	109609	0	0	8190	616833	0	0
2024-07-03 06:36:32			0	36414	0	0	0	25945	24560	148189	27424	1026150	43278	109604	0	0	8192	615817	0	0
2024-07-03 06:37:32			0	36415	0	0	0	25940	24550	148233	27438	1026168	43289	109602	0	0	8192	615810	0	0
2024-07-03 06:38:32			0	36426	0	0	0	25942	24560	148093	27107	1026132	43278	109603	0	0	8192	615313	0	0
2024-07-03 06:39:32			0	36455	0	0	0	25942	24550	148109	27121	1026114	43300	109603	0	0	8194	614131	0	0
2024-07-03 06:40:32			0	36461	0	0	0	25937	24550	148065	27644	1026114	43278	109601	0	0	8194	613879	0	0
2024-07-03 06:41:32			0	36454	0	0	0	25927	24540	148001	27242	1026123	43288	109597	0	0	8194	614208	0	0
2024-07-03 06:42:32			0	36455	0	0	0	25935	24540	147977	27620	1026097	43276	109600	0	0	8194	614166	0	0
2024-07-03 06:43:32			0	36481	0	0	0	25927	24520	148025	27345	1026062	43296	109597	0	0	8195	613145	0	0
2024-07-03 06:44:32			0	36503	0	0	0	25924	24540	147873	27118	1026043	43298	109596	0	0	8197	612155	0	0
2024-07-03 06:45:32			0	36494	0	0	0	25922	24530	147917	27485	1026079	43276	109595	0	0	8196	612566	0	0
2024-07-03 06:46:32			0	36497	0	0	0	25919	24530	147901	27270	1026026	43276	109594	0	0	8196	612441	0	0
2024-07-03 06:47:32			0	36507	0	0	0	25927	24530	147893	27331	1026044	43287	109597	0	0	8197	612022	0	0
2024-07-03 06:48:32			0	36516	0	0	0	25919	24530	147837	27282	1026017	43287	109594	0	0	8197	611646	0	0
2024-07-03 06:49:32			0	36519	0	0	0	25909	24520	147845	27358	1025955	43274	109590	0	0	8198	611555	0	0
2024-07-03 06:50:32			0	36533	0	0	0	25911	24530	147749	27460	1026044	43275	109591	0	0	8198	610935	0	0
2024-07-03 06:51:32			0	36526	0	0	0	25914	24520	147777	27525	1026053	43274	109592	0	0	8198	611262	0	0
2024-07-03 06:52:32			0	36530	0	0	0	25914	24520	147689	27209	1026027	43286	109592	0	0	8198	611095	0	0
2024-07-03 06:53:32			0	36550	0	0	0	25911	24510	147761	27138	1025938	43295	109591	0	0	8199	610294	0	0
2024-07-03 06:54:32			0	36534	0	0	0	25911	24520	147877	27478	1025893	43274	109591	0	0	8198	610928	0	0
2024-07-03 06:55:32			0	36546	0	0	0	25919	24510	147761	27255	1025876	43273	109594	0	0	8199	610461	0	0
2024-07-03 06:56:32			0	36542	0	0	0	25901	24510	147781	27093	1026018	43285	109587	0	0	8199	610628	0	0
2024-07-03 06:57:32			0	36522	0	0	0	25903	24510	147789	27412	1025938	43295	109588	0	0	8198	611464	0	0
2024-07-03 06:58:32			0	36533	0	0	0	25901	24520	147821	27345	1026000	43286	109587	0	0	8198	610969	0	0
2024-07-03 06:59:32			0	36506	0	0	0	25896	24510	147921	27545	1025938	43273	109585	0	0	8197	612133	0	0
2024-07-03 07:00:32			0	36504	0	0	0	25896	24510	148001	27447	1025964	43285	109585	0	0	8197	612217	0	0
2024-07-03 07:01:32			0	36487	0	0	0	25898	24500	148065	27505	1025920	43294	109586	0	0	8196	612963	0	0
2024-07-03 07:02:32			0	36465	0	0	0	25909	24510	148113	27488	1026009	43273	109590	0	0	8195	613851	0	0
2024-07-03 07:03:32			0	36453	0	0	0	25890	24500	148069	27270	1025867	43284	109583	0	0	8194	614389	0	0
2024-07-03 07:04:32			0	36422	0	0	0	25901	24510	148253	27260	1025911	43285	109587	0	0	8193	615655	0	0
2024-07-03 07:05:32			0	36392	0	0	0	25901	24510	148333	27190	1025902	43285	109587	0	0	8191	616917	0	0
2024-07-03 07:06:32			0	36375	0	0	0	25906	24500	148373	27131	1025867	43273	109589	0	0	8190	617667	0	0
2024-07-03 07:07:32			0	36353	0	0	0	25906	24500	148497	27308	1025912	43293	109589	0	0	8189	618594	0	0
2024-07-03 07:08:32			0	36327	0	0	0	25909	24500	148641	27260	1025947	43284	109590	0	0	8187	619690	0	0
2024-07-03 07:09:32			0	36282	0	0	0	25916	24500	148769	27001	1025947	43273	109593	0	0	8185	621592	0	0
2024-07-03 07:10:32			0	36255	0	0	0	25916	24500	148941	27313	1025867	43284	109593	0	0	8183	622734	0	0
2024-07-03 07:11:32			0	36226	0	0	0	25916	24500	149057	27270	1025920	43294	109593	0	0	8182	623963	0	0
2024-07-03 07:12:32			0	36193	0	0	0	25922	24510	149117	27216	1026009	43295	109595	0	0	8180	625329	0	0
2024-07-03 07:13:32			0	36174	0	0	0	25924	24510	149197	27350	1026063	43273	109596	0	0	8179	626136	0	0
2024-07-03 07:14:32			0	36133	0	0	0	25916	24510	149333	27454	1026018	43273	109593	0	0	8177	627881	0	0
2024-07-03 07:15:32			0	36124	0	0	0	25922	24520	149541	27466	1026027	43274	109595	0	0	8177	628228	0	0
2024-07-03 07:16:32			0	36091	0	0	0	25922	24510	149593	27180	1026009	43295	109595	0	0	8175	629671	0	0
2024-07-03 07:17:32			0	36069	0	0	0	25924	24520	149693	27116	1026062	43296	109596	0	0	8174	630575	0	0
2024-07-03 07:18:32			0	36040	0	0	0	25927	24510	149845	27274	1026018	43285	109597	0	0	8172	631851	0	0
2024-07-03 07:19:32			0	36003	0	0	0	25935	24520	149897	27055	1026035	43286	109600	0	0	8170	633399	0	0
2024-07-03 07:20:32			0	35978	0	0	0	25935	24530	149993	27197	1026017	43297	109600	0	0	8169	634435	0	0
2024-07-03 07:21:32			0	35976	0	0	0	25932	24520	150105	27150	1026169	43274	109599	0	0	8169	634557	0	0
2024-07-03 07:22:32			0	35924	0	0	0	25937	24520	150237	27306	1026053	43286	109601	0	0	8166	636791	0	0
2024-07-03 07:23:32			0	35922	0	0	0	25927	24530	150213	27164	1026079	43298	109597	0	0	8166	636841	0	0
2024-07-03 07:24:32			0	35894	0	0	0	25935	24520	150333	27346	1026000	43286	109600	0	0	8164	638083	0	0
2024-07-03 07:25:32			0	35871	0	0	0	25937	24520	150509	27343	1026035	43307	109601	0	0	8163	639074	0	0
2024-07-03 07:26:32			0	35855	0	0	0	25935	24520	150564	27027	1026062	43286	109600	0	0	8162	639765	0	0
2024-07-03 07:27:32			0	35854	0	0	0	25950	24520	150528	27242	1026035	43286	109606	0	0	8162	639808	0	0
2024-07-03 07:28:32			0	35825	0	0	0	25940	24530	150580	27320	1026071	43287	109602	0	0	8160	641024	0	0
2024-07-03 07:29:32			0	35821	0	0	0	25945	24520	150736	27360	1026116	43286	109604	0	0	8160	641234	0	0
2024-07-03 07:30:32			0	35785	0	0	0	25945	24530	150780	27156	1026106	43298	109604	0	0	8158	642755	0	0
2024-07-03 07:31:32			0	35778	0	0	0	25945	24530	150872	27069	1026097	43297	109604	0	0	8158	643058	0	0
2024-07-03 07:32:32			0	35764	0	0	0	25948	24530	151008	26960	1026097	43287	109605	0	0	8157	643665	0	0
2024-07-03 07:33:32			0	35742	0	0	0	25942	24540	151032	27081	1026088	43288	109603	0	0	8156	644583	0	0
2024-07-03 07:34:32			0	35725	0	0	0	25950	24540	151044	27421	1026150	43298	109606	0	0	8155	645321	0	0
2024-07-03 07:35:32			0	35719	0	0	0	25940	24540	151100	27249	1026115	43309	109602	0	0	8155	645581	0	0
2024-07-03 07:36:32			0	35715	0	0	0	25945	24530	151216	27331	1026053	43298	109604	0	0	8154	645792	0	0
2024-07-03 07:37:32			0	35700	0	0	0	25942	24530	151312	27027	1026106	43288	109603	0	0	8154	646444	0	0
2024-07-03 07:38:32			0	35667	0	0	0	25940	24530	151348	27265	1026124	43297	109602	0	0	8152	647880	0	0
2024-07-03 07:39:32			0	35675	0	0	0	25937	24530	151308	26852	1026079	43288	109601	0	0	8152	647532	0	0
2024-07-03 07:40:32			0	35665	0	0	0	25948	24530	151388	26949	1026133	43276	109605	0	0	8152	647967	0	0
2024-07-03 07:41:32			0	35650	0	0	0	25942	24530	151476	27239	1026044	43297	109603	0	0	8151	648621	0	0
2024-07-03 07:42:32			0	35653	0	0	0	25948	24530	151564	27102	1026160	43288	109605	0	0	8151	648490	0	0
2024-07-03 07:43:32			0	35643	0	0	0	25945	24540	151476	27192	1026088	43298	109604	0	0	8151	648889	0	0
2024-07-03 07:44:32			0	35642	0	0	0	25942	24530	151608	27038	1026133	43298	109603	0	0	8151	648970	0	0
2024-07-03 07:45:32			0	35635	0	0	0	25945	24530	151568	26965	1026133	43288	109604	0	0	8150	649275	0	0
2024-07-03 07:46:32			0	35628	0	0	0	25940	24530	151584	27251	1026079	43298	109602	0	0	8150	649580	0	0
2024-07-03 07:47:32			0	35608	0	0	0	25945	24530	151660	27246	1026186	43288	109604	0	0	8149	650453	0	0
2024-07-03 07:48:32			0	35630	0	0	0	25950	24530	151624	27601	1026044	43287	109606	0	0	8150	649493	0	0
2024-07-03 07:49:32			0	35610	0	0	0	25945	24530	151704	27445	1026106	43276	109604	0	0	8149	650366	0	0
2024-07-03 07:50:32			0	35619	0	0	0	25942	24540	151696	27209	1026035	43298	109603	0	0	8149	649936	0	0
2024-07-03 07:51:32			0	35606	0	0	0	25940	24530	151696	27253	1026133	43288	109602	0	0	8149	650541	0	0
2024-07-03 07:52:32			0	35576	0	0	0	25937	24540	151748	27161	1026035	43276	109601	0	0	8147	651816	0	0
2024-07-03 07:53:32			0	35590	0	0	0	25932	24540	151800	27071	1026088	43298	109599	0	0	8148	651203	0	0
2024-07-03 07:54:32			0	35594	0	0	0	25929	24530	151832	27156	1025999	43276	109598	0	0	8148	651065	0	0
2024-07-03 07:55:32			0	35583	0	0	0	25927	24530	151736	27275	1025964	43297	109597	0	0	8148	651546	0	0
2024-07-03 07:56:32			0	35583	0	0	0	25914	24520	151676	27159	1026009	43274	109592	0	0	8148	651583	0	0
2024-07-03 07:57:32			0	35581	0	0	0	25909	24520	151760	27211	1026062	43274	109590	0	0	8148	651671	0	0
2024-07-03 07:58:32			0	35590	0	0	0	25911	24520	151768	27164	1026000	43296	109591	0	0	8148	651277	0	0
2024-07-03 07:59:32			0	35564	0	0	0	25903	24520	151724	26979	1025973	43274	109588	0	0	8147	652415	0	0
2024-07-03 08:00:32			0	35558	0	0	0	25906	24510	151732	26875	1025911	43285	109589	0	0	8147	652714	0	0
2024-07-03 08:01:32			0	35585	0	0	0	25883	24500	151824	27301	1025858	43283	109580	0	0	8148	651569	0	0
2024-07-03 08:02:32			0	35555	0	0	0	25893	24500	151840	27235	1025992	43293	109584	0	0	8147	652882	0	0
2024-07-03 08:03:32			0	35553	0	0	0	25898	24500	151884	27294	1025920	43273	109586	0	0	8146	652970	0	0
2024-07-03 08:04:32			0	35565	0	0	0	25898	24510	151908	27284	1025929	43285	109586	0	0	8147	652408	0	0
2024-07-03 08:05:32			0	35553	0	0	0	25898	24500	151888	27216	1025840	43294	109586	0	0	8146	652970	0	0
2024-07-03 08:06:32			0	35537	0	0	0	25888	24500	151848	27138	1025858	43283	109582	0	0	8146	653671	0	0
2024-07-03 08:07:32			0	35545	0	0	0	25888	24500	151904	27168	1025885	43283	109582	0	0	8146	653321	0	0
2024-07-03 08:08:32			0	35535	0	0	0	25890	24500	151868	27396	1025885	43283	109583	0	0	8146	653759	0	0
2024-07-03 08:09:32			0	35528	0	0	0	25893	24490	151876	27301	1025850	43283	109584	0	0	8145	654103	0	0
2024-07-03 08:10:32			0	35560	0	0	0	25883	24500	151856	27026	1025894	43294	109580	0	0	8147	652663	0	0
2024-07-03 08:11:32			0	35544	0	0	0	25880	24490	151960	27424	1025850	43293	109579	0	0	8146	653401	0	0
2024-07-03 08:12:32			0	35545	0	0	0	25880	24490	151896	27232	1025841	43283	109579	0	0	8146	653358	0	0
2024-07-03 08:13:32			0	35558	0	0	0	25872	24480	151960	27039	1025832	43271	109576	0	0	8147	652825	0	0
2024-07-03 08:14:32			0	35538	0	0	0	25870	24480	151888	27053	1025805	43282	109575	0	0	8146	653701	0	0
2024-07-03 08:15:32			0	35542	0	0	0	25875	24490	151940	27031	1025787	43283	109577	0	0	8146	653489	0	0
2024-07-03 08:16:32			0	35555	0	0	0	25864	24480	151996	27013	1025717	43281	109573	0	0	8147	652956	0	0
2024-07-03 08:17:32			0	35530	0	0	0	25864	24470	151984	27050	1025681	43281	109573	0	0	8146	654089	0	0
2024-07-03 08:18:32			0	35531	0	0	0	25857	24470	152044	27270	1025788	43291	109570	0	0	8146	654045	0	0
2024-07-03 08:19:32			0	35529	0	0	0	25859	24480	152008	27029	1025770	43291	109571	0	0	8146	654096	0	0
2024-07-03 08:20:32			0	35538	0	0	0	25857	24470	151996	27144	1025726	43270	109570	0	0	8146	653738	0	0
2024-07-03 08:21:32			0	35540	0	0	0	25870	24470	151952	27123	1025735	43291	109575	0	0	8146	653651	0	0
2024-07-03 08:22:32			0	35549	0	0	0	25862	24480	151936	26987	1025717	43281	109572	0	0	8147	653219	0	0
2024-07-03 08:23:32			0	35515	0	0	0	25875	24470	152008	26750	1025788	43281	109577	0	0	8145	654747	0	0
2024-07-03 08:24:32			0	35544	0	0	0	25870	24490	152080	27395	1025814	43293	109575	0	0	8146	653401	0	0
2024-07-03 08:25:32			0	35534	0	0	0	25867	24460	152108	27282	1025717	43280	109574	0	0	8146	653951	0	0
2024-07-03 08:26:32			0	35542	0	0	0	25872	24470	152044	27384	1025761	43291	109576	0	0	8146	653563	0	0
2024-07-03 08:27:32			0	35518	0	0	0	25872	24480	152164	27301	1025797	43270	109576	0	0	8145	654578	0	0
2024-07-03 08:28:32			0	35523	0	0	0	25870	24470	152096	27206	1025833	43291	109575	0	0	8145	654396	0	0
2024-07-03 08:29:32			0	35531	0	0	0	25877	24480	152068	27081	1025824	43291	109578	0	0	8146	654008	0	0
2024-07-03 08:30:32			0	35523	0	0	0	25883	24490	152100	27248	1025868	43293	109580	0	0	8145	654322	0	0
2024-07-03 08:31:32			0	35508	0	0	0	25888	24480	151964	27414	1025824	43270	109582	0	0	8144	655018	0	0
2024-07-03 08:32:32			0	35545	0	0	0	25898	24490	151984	27154	1025850	43283	109586	0	0	8146	653358	0	0
2024-07-03 08:33:32			0	35533	0	0	0	25906	24490	152036	27045	1025894	43293	109589	0	0	8145	653883	0	0
2024-07-03 08:34:32			0	35522	0	0	0	25901	24490	152132	27289	1025921	43283	109587	0	0	8145	654366	0	0
2024-07-03 08:35:32			0	35518	0	0	0	25903	24490	152168	27060	1025975	43293	109588	0	0	8144	654541	0	0
2024-07-03 08:36:32			0	35517	0	0	0	25916	24500	152012	27203	1025867	43284	109593	0	0	8144	654549	0	0
2024-07-03 08:37:32			0	35525	0	0	0	25906	24500	152000	27343	1025965	43283	109589	0	0	8145	654197	0	0
2024-07-03 08:38:32			0	35509	0	0	0	25914	24500	152108	27301	1025858	43293	109592	0	0	8144	654900	0	0
2024-07-03 08:39:32			0	35548	0	0	0	25922	24490	152112	27234	1025983	43283	109595	0	0	8146	653226	0	0
2024-07-03 08:40:32			0	35522	0	0	0	25922	24500	152108	27102	1025965	43272	109595	0	0	8144	654329	0	0
2024-07-03 08:41:32			0	35520	0	0	0	25914	24500	152132	27315	1026019	43293	109592	0	0	8144	654417	0	0
2024-07-03 08:42:32			0	35509	0	0	0	25911	24500	152244	26807	1025894	43284	109591	0	0	8144	654900	0	0
2024-07-03 08:43:32			0	35510	0	0	0	25916	24490	152044	26934	1025876	43283	109593	0	0	8144	654893	0	0
2024-07-03 08:44:32			0	35502	0	0	0	25909	24490	152124	27135	1025814	43283	109590	0	0	8144	655244	0	0
2024-07-03 08:45:32			0	35527	0	0	0	25880	24480	152076	26965	1025752	43271	109579	0	0	8145	654184	0	0
2024-07-03 08:46:32			0	35532	0	0	0	25864	24470	152112	26955	1025673	43258	109573	0	0	8146	654001	0	0
2024-07-03 08:47:32			0	35534	0	0	0	25825	24470	152108	27211	1025619	43270	109558	0	0	8147	653914	0	0
2024-07-03 08:48:32			0	35532	0	0	0	25805	24440	151988	27390	1025495	43256	109550	0	0	8147	654112	0	0
2024-07-03 08:49:32			0	35530	0	0	0	25794	24440	151924	27046	1025469	43267	109546	0	0	8147	654200	0	0
2024-07-03 08:50:32			0	35522	0	0	0	25784	24430	152108	27026	1025442	43265	109542	0	0	8146	654588	0	0
2024-07-03 08:51:32			0	35518	0	0	0	25776	24430	152084	26840	1025478	43276	109539	0	0	8146	654763	0	0
2024-07-03 08:52:32			0	35512	0	0	0	25776	24420	152072	27031	1025487	43265	109539	0	0	8146	655064	0	0
2024-07-03 08:53:32			0	35530	0	0	0	25761	24420	152028	27265	1025434	43265	109533	0	0	8147	654274	0	0
2024-07-03 08:54:32			0	35523	0	0	0	25768	24410	152100	27298	1025390	43263	109536	0	0	8147	654618	0	0
2024-07-03 08:55:32			0	35536	0	0	0	25766	24410	152124	27060	1025363	43274	109535	0	0	8147	654048	0	0
2024-07-03 08:56:32			0	35527	0	0	0	25771	24400	152104	27164	1025364	43262	109537	0	0	8147	654480	0	0
2024-07-03 08:57:32			0	35547	0	0	0	25758	24390	151996	27041	1025355	43261	109532	0	0	8148	653639	0	0
2024-07-03 08:58:32			0	35549	0	0	0	25758	24400	152008	27209	1025399	43263	109532	0	0	8148	653515	0	0
2024-07-03 08:59:32			0	35559	0	0	0	25768	24390	151992	27312	1025346	43273	109536	0	0	8149	653113	0	0
2024-07-03 09:00:32			0	35575	0	0	0	25774	24390	151844	26909	1025355	43273	109538	0	0	8149	652412	0	0
2024-07-03 09:01:32			0	35615	0	0	0	25776	24380	151616	27213	1025383	43272	109539	0	0	8151	650699	0	0
2024-07-03 09:02:32			0	35620	0	0	0	25771	24390	151632	27137	1025400	43273	109537	0	0	8152	650444	0	0
2024-07-03 09:03:32			0	35655	0	0	0	25771	24390	151628	27284	1025355	43294	109537	0	0	8154	648916	0	0
2024-07-03 09:04:32			0	35693	0	0	0	25781	24400	151424	27105	1025390	43274	109541	0	0	8155	647224	0	0
2024-07-03 09:05:32			0	35729	0	0	0	25774	24390	151240	27088	1025409	43284	109538	0	0	8157	645694	0	0
2024-07-03 09:06:32			0	35756	0	0	0	25784	24390	151100	27192	1025382	43284	109542	0	0	8159	644522	0	0
2024-07-03 09:07:32			0	35818	0	0	0	25779	24390	151000	27326	1025382	43273	109540	0	0	8162	641835	0	0
2024-07-03 09:08:32			0	35847	0	0	0	25781	24380	150648	27128	1025356	43283	109541	0	0	8164	640617	0	0
2024-07-03 09:09:32			0	35871	0	0	0	25776	24380	150589	27116	1025356	43272	109539	0	0	8165	639580	0	0
2024-07-03 09:10:32			0	35919	0	0	0	25779	24390	150405	26986	1025373	43284	109540	0	0	8168	637475	0	0
2024-07-03 09:11:32			0	35950	0	0	0	25774	24370	150233	27398	1025320	43259	109538	0	0	8169	636213	0	0
2024-07-03 09:12:32			0	36000	0	0	0	25779	24390	150057	27388	1025355	43284	109540	0	0	8172	633993	0	0
2024-07-03 09:13:32			0	36049	0	0	0	25781	24390	149925	27130	1025320	43284	109541	0	0	8174	631894	0	0
2024-07-03 09:14:32			0	36068	0	0	0	25779	24380	149773	27511	1025356	43272	109540	0	0	8175	631117	0	0
2024-07-03 09:15:32			0	36112	0	0	0	25776	24380	149589	27166	1025356	43260	109539	0	0	8178	629238	0	0
2024-07-03 09:16:32			0	36128	0	0	0	25792	24380	149465	27213	1025311	43294	109545	0	0	8178	628555	0	0
2024-07-03 09:17:32			0	36187	0	0	0	25779	24400	149429	27189	1025417	43285	109540	0	0	8182	625973	0	0
2024-07-03 09:18:32			0	36213	0	0	0	25784	24380	149265	27138	1025329	43283	109542	0	0	8183	624938	0	0
2024-07-03 09:19:32			0	36260	0	0	0	25781	24390	149117	27194	1025400	43273	109541	0	0	8186	622910	0	0
2024-07-03 09:20:32			0	36287	0	0	0	25786	24390	148965	27287	1025427	43284	109543	0	0	8187	621767	0	0
2024-07-03 09:21:32			0	36317	0	0	0	25794	24380	148861	27222	1025391	43261	109546	0	0	8188	620533	0	0
2024-07-03 09:22:32			0	36334	0	0	0	25794	24390	148789	27183	1025462	43284	109546	0	0	8189	619780	0	0
2024-07-03 09:23:32			0	36369	0	0	0	25799	24390	148597	27199	1025409	43284	109548	0	0	8191	618304	0	0
2024-07-03 09:24:32			0	36398	0	0	0	25799	24400	148641	27161	1025426	43286	109548	0	0	8193	617048	0	0
2024-07-03 09:25:32			0	36416	0	0	0	25802	24400	148493	26890	1025497	43274	109549	0	0	8193	616290	0	0
2024-07-03 09:26:32			0	36418	0	0	0	25810	24400	148385	27313	1025444	43274	109552	0	0	8193	616206	0	0
2024-07-03 09:27:32			0	36459	0	0	0	25805	24380	148305	27159	1025365	43273	109550	0	0	8196	614554	0	0
2024-07-03 09:28:32			0	36473	0	0	0	25799	24400	148169	27168	1025444	43274	109548	0	0	8197	613897	0	0
2024-07-03 09:29:32			0	36497	0	0	0	25799	24390	148085	27365	1025435	43261	109548	0	0	8198	612925	0	0
2024-07-03 09:30:32			0	36518	0	0	0	25797	24400	147937	27022	1025453	43286	109547	0	0	8199	612012	0	0
2024-07-03 09:31:32			0	36517	0	0	0	25802	24390	147977	27300	1025462	43261	109549	0	0	8199	612088	0	0
2024-07-03 09:32:32			0	36538	0	0	0	25805	24400	148073	26897	1025417	43274	109550	0	0	8200	611175	0	0
2024-07-03 09:33:32			0	36539	0	0	0	25807	24390	147865	27152	1025435	43284	109551	0	0	8200	611168	0	0
2024-07-03 09:34:32			0	36534	0	0	0	25799	24400	147901	26982	1025399	43286	109548	0	0	8200	611342	0	0
2024-07-03 09:35:32			0	36560	0	0	0	25810	24390	147925	27320	1025435	43273	109552	0	0	8201	610290	0	0
2024-07-03 09:36:32			0	36565	0	0	0	25810	24390	147885	27286	1025409	43284	109552	0	0	8201	610081	0	0
2024-07-03 09:37:32			0	36583	0	0	0	25807	24400	147889	27284	1025471	43274	109551	0	0	8202	609296	0	0
2024-07-03 09:38:32			0	36558	0	0	0	25812	24400	147793	27190	1025533	43286	109553	0	0	8201	610339	0	0
2024-07-03 09:39:32			0	36590	0	0	0	25818	24400	147777	27516	1025506	43274	109555	0	0	8202	609004	0	0
2024-07-03 09:40:32			0	36581	0	0	0	25818	24420	147781	27417	1025505	43264	109555	0	0	8202	609310	0	0
2024-07-03 09:41:32			0	36544	0	0	0	25831	24410	147873	27248	1025550	43274	109560	0	0	8200	610890	0	0
2024-07-03 09:42:32			0	36576	0	0	0	25841	24410	147849	27218	1025577	43274	109564	0	0	8201	609553	0	0
2024-07-03 09:43:32			0	36571	0	0	0	25844	24420	147857	27305	1025541	43276	109565	0	0	8201	609728	0	0
2024-07-03 09:44:32			0	36568	0	0	0	25846	24410	147789	27308	1025604	43286	109566	0	0	8201	609887	0	0
2024-07-03 09:45:32			0	36557	0	0	0	25851	24430	147857	27305	1025665	43288	109568	0	0	8200	610278	0	0
2024-07-03 09:46:32			0	36551	0	0	0	25854	24440	147905	27190	1025683	43267	109569	0	0	8200	610494	0	0
2024-07-03 09:47:32			0	36568	0	0	0	25859	24440	147849	27027	1025674	43299	109571	0	0	8201	609784	0	0
2024-07-03 09:48:32			0	36566	0	0	0	25872	24440	147825	26928	1025728	43289	109576	0	0	8200	609867	0	0
2024-07-03 09:49:32			0	36583	0	0	0	25877	24440	147837	26797	1025709	43290	109578	0	0	8201	609158	0	0
2024-07-03 09:50:32			0	36593	0	0	0	25875	24440	147753	26948	1025709	43278	109577	0	0	8202	608741	0	0
2024-07-03 09:51:32			0	36570	0	0	0	25877	24450	147721	26901	1025745	43290	109578	0	0	8201	609666	0	0
2024-07-03 09:52:32			0	36603	0	0	0	25885	24450	147650	27119	1025780	43279	109581	0	0	8202	608290	0	0
2024-07-03 09:53:32			0	36605	0	0	0	25888	24460	147626	26897	1025762	43301	109582	0	0	8202	608172	0	0
2024-07-03 09:54:32			0	36594	0	0	0	25885	24460	147573	27197	1025789	43290	109581	0	0	8202	608630	0	0
2024-07-03 09:55:32			0	36613	0	0	0	25893	24460	147526	27196	1025824	43280	109584	0	0	8203	607839	0	0
2024-07-03 09:56:32			0	36634	0	0	0	25885	24460	147502	27161	1025798	43291	109581	0	0	8204	606965	0	0
2024-07-03 09:57:32			0	36632	0	0	0	25888	24460	147474	26811	1025771	43280	109582	0	0	8204	607048	0	0
2024-07-03 09:58:32			0	36671	0	0	0	25872	24470	147350	26899	1025788	43281	109576	0	0	8206	605392	0	0
2024-07-03 09:59:32			0	36685	0	0	0	25877	24470	147394	27196	1025780	43291	109578	0	0	8207	604811	0	0
2024-07-03 10:00:32			0	36703	0	0	0	25883	24470	147366	27064	1025806	43291	109580	0	0	8207	604064	0	0
2024-07-03 10:01:32			0	36704	0	0	0	25872	24460	147290	26889	1025735	43290	109576	0	0	8208	604057	0	0
2024-07-03 10:02:32			0	36719	0	0	0	25877	24460	147202	27211	1025744	43291	109578	0	0	8208	603435	0	0
2024-07-03 10:03:32			0	36736	0	0	0	25875	24460	147146	27258	1025771	43302	109577	0	0	8209	602731	0	0
2024-07-03 10:04:32			0	36727	0	0	0	25872	24470	147166	27260	1025806	43291	109576	0	0	8209	603070	0	0
2024-07-03 10:05:32			0	36729	0	0	0	25883	24470	147130	27039	1025860	43291	109580	0	0	8209	602987	0	0
2024-07-03 10:06:32			0	36737	0	0	0	25880	24470	147110	27083	1025887	43270	109579	0	0	8209	602655	0	0
2024-07-03 10:07:32			0	36738	0	0	0	25883	24470	147162	26882	1025788	43291	109580	0	0	8209	602614	0	0
2024-07-03 10:08:32			0	36741	0	0	0	25883	24470	147134	26948	1025913	43291	109580	0	0	8209	602490	0	0
2024-07-03 10:09:32			0	36726	0	0	0	25896	24470	147110	27124	1025815	43291	109585	0	0	8208	603111	0	0
2024-07-03 10:10:32			0	36728	0	0	0	25893	24480	147098	27268	1025859	43292	109584	0	0	8209	602994	0	0
2024-07-03 10:11:32			0	36748	0	0	0	25903	24490	147130	27149	1025921	43283	109588	0	0	8210	602132	0	0
2024-07-03 10:12:32			0	36731	0	0	0	25903	24490	147166	27118	1025921	43293	109588	0	0	8209	602836	0	0
2024-07-03 10:13:32			0	36724	0	0	0	25919	24490	147178	26906	1026037	43293	109594	0	0	8208	603126	0	0
2024-07-03 10:14:32			0	36713	0	0	0	25927	24500	147130	27279	1026045	43293	109597	0	0	8207	603547	0	0
2024-07-03 10:15:32			0	36711	0	0	0	25927	24500	147190	27048	1026081	43294	109597	0	0	8207	603630	0	0
2024-07-03 10:16:32			0	36696	0	0	0	25940	24500	147182	27124	1026081	43305	109602	0	0	8206	604252	0	0
2024-07-03 10:17:32			0	36720	0	0	0	25940	24510	147310	27109	1026045	43295	109602	0	0	8208	603223	0	0
2024-07-03 10:18:32			0	36707	0	0	0	25937	24510	147242	27305	1026063	43285	109601	0	0	8207	603762	0	0
2024-07-03 10:19:32			0	36724	0	0	0	25940	24510	147254	27026	1025964	43285	109602	0	0	8208	603057	0	0
2024-07-03 10:20:32			0	36722	0	0	0	25937	24510	147186	26982	1026045	43285	109601	0	0	8208	603140	0	0
2024-07-03 10:21:32			0	36725	0	0	0	25929	24520	147142	27170	1026116	43286	109598	0	0	8208	602982	0	0
2024-07-03 10:22:32			0	36755	0	0	0	25932	24510	147054	27272	1026098	43295	109599	0	0	8210	601774	0	0
2024-07-03 10:23:32			0	36730	0	0	0	25929	24520	146998	27360	1026035	43296	109598	0	0	8208	602775	0	0
2024-07-03 10:24:32			0	36742	0	0	0	25927	24520	147166	27270	1026053	43296	109597	0	0	8209	602278	0	0
2024-07-03 10:25:32			0	36754	0	0	0	25940	24520	147062	27173	1026080	43307	109602	0	0	8209	601782	0	0
2024-07-03 10:26:32			0	36748	0	0	0	25953	24520	147110	27287	1026169	43296	109607	0	0	8209	602030	0	0
2024-07-03 10:27:32			0	36735	0	0	0	25958	24530	147162	27334	1026160	43298	109609	0	0	8208	602534	0	0
2024-07-03 10:28:32			0	36713	0	0	0	25968	24530	147222	27071	1026186	43298	109613	0	0	8207	603445	0	0
2024-07-03 10:29:32			0	36711	0	0	0	25961	24540	147218	27083	1026168	43298	109610	0	0	8207	603494	0	0
2024-07-03 10:30:32			0	36708	0	0	0	25958	24530	147178	27211	1026186	43298	109609	0	0	8207	603652	0	0
2024-07-03 10:31:32			0	36714	0	0	0	25961	24540	147242	27206	1026142	43288	109610	0	0	8207	603369	0	0
2024-07-03 10:32:32			0	36729	0	0	0	25955	24520	147110	27092	1026169	43286	109608	0	0	8208	602816	0	0
2024-07-03 10:33:32			0	36764	0	0	0	25955	24540	147106	26870	1026195	43288	109608	0	0	8210	601300	0	0
2024-07-03 10:34:32			0	36760	0	0	0	25945	24550	147018	27197	1026159	43310	109604	0	0	8210	601432	0	0
2024-07-03 10:35:32			0	36774	0	0	0	25948	24540	146946	27203	1026142	43298	109605	0	0	8210	600887	0	0
2024-07-03 10:36:32			0	36779	0	0	0	25953	24540	146942	26918	1026142	43288	109607	0	0	8211	600680	0	0
2024-07-03 10:37:32			0	36779	0	0	0	25948	24540	146850	27182	1026142	43298	109605	0	0	8211	600680	0	0
2024-07-03 10:38:32			0	36815	0	0	0	25945	24530	146846	27072	1026213	43309	109604	0	0	8213	599229	0	0
2024-07-03 10:39:32			0	36810	0	0	0	25940	24530	146874	26890	1026213	43309	109602	0	0	8212	599435	0	0
2024-07-03 10:40:32			0	36824	0	0	0	25942	24530	146810	27168	1026133	43298	109603	0	0	8213	598857	0	0
2024-07-03 10:41:32			0	36820	0	0	0	25942	24530	146886	26856	1026124	43287	109603	0	0	8213	599022	0	0
2024-07-03 10:42:32			0	36821	0	0	0	25945	24530	146842	27492	1026178	43308	109604	0	0	8213	598981	0	0
2024-07-03 10:43:32			0	36841	0	0	0	25950	24530	146802	26998	1026186	43298	109606	0	0	8214	598157	0	0
2024-07-03 10:44:32			0	36842	0	0	0	25953	24530	146838	27019	1026178	43297	109607	0	0	8214	598116	0	0
2024-07-03 10:45:32			0	36826	0	0	0	25958	24540	146774	27114	1026230	43288	109609	0	0	8213	598741	0	0
2024-07-03 10:46:32			0	36817	0	0	0	25971	24550	146798	26833	1026248	43289	109614	0	0	8212	599078	0	0
2024-07-03 10:47:32			0	36813	0	0	0	25971	24550	146830	27109	1026248	43300	109614	0	0	8212	599243	0	0
2024-07-03 10:48:32			0	36811	0	0	0	25973	24550	146842	27105	1026212	43321	109615	0	0	8212	599326	0	0
2024-07-03 10:49:32			0	36802	0	0	0	25976	24550	146894	27126	1026266	43310	109616	0	0	8211	599697	0	0
2024-07-03 10:50:32			0	36801	0	0	0	25979	24550	146934	27161	1026248	43311	109617	0	0	8211	599738	0	0
2024-07-03 10:51:32			0	36790	0	0	0	25976	24560	146954	27203	1026319	43300	109616	0	0	8211	600158	0	0
2024-07-03 10:52:32			0	36798	0	0	0	25979	24550	146934	27131	1026248	43300	109617	0	0	8211	599862	0	0
2024-07-03 10:53:32			0	36798	0	0	0	25986	24560	146866	27105	1026310	43311	109620	0	0	8211	599828	0	0
2024-07-03 10:54:32			0	36805	0	0	0	25986	24550	146834	27192	1026355	43311	109620	0	0	8211	599573	0	0
2024-07-03 10:55:32			0	36808	0	0	0	25989	24560	146830	26868	1026372	43311	109621	0	0	8212	599416	0	0
2024-07-03 10:56:32			0	36810	0	0	0	25994	24560	146866	26941	1026399	43300	109623	0	0	8212	599333	0	0
2024-07-03 10:57:32			0	36818	0	0	0	26002	24580	146846	26812	1026345	43313	109626	0	0	8212	598935	0	0
2024-07-03 10:58:32			0	36796	0	0	0	26010	24580	146866	26942	1026372	43291	109629	0	0	8211	599843	0	0
2024-07-03 10:59:32			0	36804	0	0	0	26015	24570	146854	27138	1026470	43302	109631	0	0	8211	599546	0	0
2024-07-03 11:00:32			0	36814	0	0	0	26018	24570	146782	27078	1026417	43313	109632	0	0	8211	599134	0	0
2024-07-03 11:01:32			0	36821	0	0	0	26005	24580	146762	26925	1026452	43291	109627	0	0	8212	598812	0	0
2024-07-03 11:02:32			0	36808	0	0	0	26018	24580	146790	26876	1026487	43303	109632	0	0	8211	599348	0	0
2024-07-03 11:03:32			0	36805	0	0	0	26012	24580	146782	27066	1026487	43303	109630	0	0	8211	599471	0	0
2024-07-03 11:04:32			0	36794	0	0	0	26020	24590	146726	26774	1026478	43304	109633	0	0	8210	599891	0	0
2024-07-03 11:05:32			0	36834	0	0	0	26018	24600	146690	26767	1026469	43304	109632	0	0	8213	598208	0	0
2024-07-03 11:06:32			0	36834	0	0	0	26025	24590	146722	27078	1026558	43304	109635	0	0	8212	598242	0	0
2024-07-03 11:07:32			0	36830	0	0	0	26025	24590	146634	26672	1026478	43326	109635	0	0	8212	598407	0	0
2024-07-03 11:08:32			0	36836	0	0	0	26018	24590	146714	27085	1026398	43304	109632	0	0	8213	598160	0	0
2024-07-03 11:09:32			0	36843	0	0	0	26020	24600	146626	27092	1026487	43304	109633	0	0	8213	597838	0	0
2024-07-03 11:10:32			0	36852	0	0	0	26002	24600	146582	27281	1026433	43292	109626	0	0	8214	597467	0	0
2024-07-03 11:11:32			0	36860	0	0	0	26002	24590	146542	27024	1026451	43292	109626	0	0	8214	597172	0	0
2024-07-03 11:12:32			0	36865	0	0	0	25992	24590	146594	27241	1026424	43304	109622	0	0	8215	596966	0	0
2024-07-03 11:13:32			0	36857	0	0	0	25997	24590	146538	26883	1026416	43303	109624	0	0	8214	597295	0	0
2024-07-03 11:14:32			0	36872	0	0	0	25999	24590	146586	27105	1026389	43291	109625	0	0	8215	596678	0	0
2024-07-03 11:15:32			0	36852	0	0	0	25992	24580	146582	27053	1026407	43303	109622	0	0	8214	597535	0	0
2024-07-03 11:16:32			0	36867	0	0	0	25989	24590	146622	27183	1026389	43303	109621	0	0	8215	596884	0	0
2024-07-03 11:17:32			0	36868	0	0	0	25981	24570	146606	26824	1026301	43301	109618	0	0	8215	596910	0	0
2024-07-03 11:18:32			0	36842	0	0	0	25973	24580	146662	27364	1026327	43303	109615	0	0	8214	597947	0	0
2024-07-03 11:19:32			0	36823	0	0	0	25986	24580	146754	26944	1026407	43314	109620	0	0	8213	598729	0	0
2024-07-03 11:20:32			0	36809	0	0	0	25981	24590	146718	26906	1026362	43291	109618	0	0	8212	599273	0	0
2024-07-03 11:21:32			0	36825	0	0	0	25989	24570	146838	27062	1026390	43313	109621	0	0	8213	598681	0	0
2024-07-03 11:22:32			0	36809	0	0	0	25984	24570	146810	27124	1026390	43291	109619	0	0	8212	599340	0	0
2024-07-03 11:23:32			0	36772	0	0	0	25981	24580	146870	27338	1026398	43291	109618	0	0	8210	600834	0	0
2024-07-03 11:24:32			0	36764	0	0	0	25984	24580	146874	26960	1026407	43291	109619	0	0	8209	601164	0	0
2024-07-03 11:25:32			0	36750	0	0	0	25984	24570	147038	27194	1026336	43313	109619	0	0	8209	601777	0	0
2024-07-03 11:26:32			0	36744	0	0	0	25984	24570	147058	27267	1026363	43302	109619	0	0	8208	602025	0	0
2024-07-03 11:27:32			0	36713	0	0	0	25973	24590	147158	27206	1026416	43291	109615	0	0	8207	603240	0	0
2024-07-03 11:28:32			0	36703	0	0	0	25981	24570	147154	27220	1026363	43302	109618	0	0	8206	603723	0	0
2024-07-03 11:29:32			0	36705	0	0	0	25992	24570	147246	27301	1026390	43291	109622	0	0	8206	603640	0	0
2024-07-03 11:30:32			0	36675	0	0	0	25992	24570	147306	27083	1026390	43302	109622	0	0	8205	604884	0	0
2024-07-03 11:31:32			0	36674	0	0	0	25999	24580	147366	27331	1026461	43314	109625	0	0	8204	604891	0	0
2024-07-03 11:32:32			0	36643	0	0	0	25992	24580	147378	26955	1026372	43280	109622	0	0	8203	606179	0	0
2024-07-03 11:33:32			0	36639	0	0	0	26002	24580	147498	27060	1026398	43313	109626	0	0	8203	606345	0	0
2024-07-03 11:34:32			0	36620	0	0	0	26007	24580	147578	27291	1026425	43313	109628	0	0	8202	607135	0	0
2024-07-03 11:35:32			0	36604	0	0	0	26010	24590	147686	27066	1026443	43303	109629	0	0	8201	607767	0	0
2024-07-03 11:36:32			0	36585	0	0	0	26010	24590	147649	26949	1026416	43291	109629	0	0	8200	608558	0	0
2024-07-03 11:37:32			0	36557	0	0	0	26007	24590	147745	26566	1026531	43304	109628	0	0	8198	609726	0	0
2024-07-03 11:38:32			0	36555	0	0	0	26005	24580	147785	27147	1026461	43314	109627	0	0	8198	609844	0	0
2024-07-03 11:39:32			0	36538	0	0	0	26015	24580	147857	27105	1026487	43314	109631	0	0	8197	610554	0	0
2024-07-03 11:40:32			0	36535	0	0	0	26015	24590	147953	26949	1026496	43314	109631	0	0	8197	610644	0	0
2024-07-03 11:41:32			0	36522	0	0	0	26012	24600	147997	27206	1026567	43304	109630	0	0	8196	611153	0	0
2024-07-03 11:42:32			0	36526	0	0	0	26012	24600	147909	26897	1026513	43315	109630	0	0	8197	610986	0	0
2024-07-03 11:43:32			0	36505	0	0	0	26012	24590	147945	26979	1026478	43315	109630	0	0	8195	611898	0	0
2024-07-03 11:44:32			0	36481	0	0	0	26018	24590	148097	27379	1026478	43304	109632	0	0	8194	612903	0	0
2024-07-03 11:45:32			0	36491	0	0	0	26012	24590	148089	26885	1026531	43315	109630	0	0	8195	612484	0	0
2024-07-03 11:46:32			0	36488	0	0	0	26018	24590	148069	26842	1026505	43315	109632	0	0	8194	612610	0	0
2024-07-03 11:47:32			0	36474	0	0	0	26018	24600	148201	27180	1026522	43316	109632	0	0	8194	613161	0	0
2024-07-03 11:48:32			0	36495	0	0	0	26020	24600	148109	27130	1026540	43304	109633	0	0	8195	612282	0	0
2024-07-03 11:49:32			0	36474	0	0	0	26020	24590	148001	27111	1026531	43304	109633	0	0	8194	613196	0	0
2024-07-03 11:50:32			0	36470	0	0	0	26023	24610	148089	27137	1026531	43316	109634	0	0	8193	613294	0	0
2024-07-03 11:51:32			0	36481	0	0	0	26020	24610	148145	27008	1026531	43304	109633	0	0	8194	612833	0	0
2024-07-03 11:52:32			0	36472	0	0	0	26018	24620	148173	27130	1026620	43317	109632	0	0	8194	613176	0	0
2024-07-03 11:53:32			0	36484	0	0	0	26020	24610	148133	27353	1026584	43304	109633	0	0	8194	612708	0	0
2024-07-03 11:54:32			0	36476	0	0	0	26028	24620	148125	26955	1026620	43317	109636	0	0	8194	613008	0	0
2024-07-03 11:55:32			0	36472	0	0	0	26033	24620	147985	27284	1026575	43306	109638	0	0	8193	613176	0	0
2024-07-03 11:56:32			0	36492	0	0	0	26041	24620	147961	27237	1026620	43317	109641	0	0	8194	612338	0	0
2024-07-03 11:57:32			0	36494	0	0	0	26038	24630	148069	27072	1026637	43318	109640	0	0	8195	612220	0	0
2024-07-03 11:58:32			0	36497	0	0	0	26044	24630	148073	27244	1026610	43318	109642	0	0	8195	612094	0	0
2024-07-03 11:59:32			0	36492	0	0	0	26044	24630	148033	27107	1026637	43295	109642	0	0	8194	612303	0	0
2024-07-03 12:00:32			0	36514	0	0	0	26033	24620	147933	27486	1026655	43306	109638	0	0	8196	611418	0	0
2024-07-03 12:01:32			0	36490	0	0	0	26044	24630	147837	27454	1026691	43318	109642	0	0	8194	612387	0	0
2024-07-03 12:02:32			0	36499	0	0	0	26038	24630	147853	27258	1026664	43318	109640	0	0	8195	612011	0	0
2024-07-03 12:03:32			0	36528	0	0	0	26049	24630	147833	27166	1026672	43295	109644	0	0	8196	610798	0	0
2024-07-03 12:04:32			0	36534	0	0	0	26057	24630	147905	27170	1026619	43295	109647	0	0	8196	610548	0	0
2024-07-03 12:05:32			0	36536	0	0	0	26057	24630	147821	27131	1026664	43306	109647	0	0	8196	610464	0	0
2024-07-03 12:06:32			0	36544	0	0	0	26057	24630	147729	27206	1026672	43318	109647	0	0	8197	610130	0	0
2024-07-03 12:07:32			0	36560	0	0	0	26051	24640	147801	27189	1026735	43307	109645	0	0	8198	609428	0	0
2024-07-03 12:08:32			0	36572	0	0	0	26054	24640	147773	27504	1026681	43307	109646	0	0	8198	608928	0	0
2024-07-03 12:09:32			0	36568	0	0	0	26057	24640	147557	27012	1026690	43320	109647	0	0	8198	609094	0	0
2024-07-03 12:10:32			0	36578	0	0	0	26057	24640	147621	27235	1026690	43320	109647	0	0	8199	608678	0	0
2024-07-03 12:11:32			0	36589	0	0	0	26059	24640	147621	27147	1026708	43307	109648	0	0	8199	608219	0	0
2024-07-03 12:12:32			0	36606	0	0	0	26057	24630	147642	27594	1026753	43306	109647	0	0	8200	607546	0	0
2024-07-03 12:13:32			0	36603	0	0	0	26064	24640	147578	27033	1026708	43319	109650	0	0	8200	607636	0	0
2024-07-03 12:14:32			0	36603	0	0	0	26067	24650	147494	27279	1026725	43308	109651	0	0	8200	607602	0	0
2024-07-03 12:15:32			0	36639	0	0	0	26072	24640	147402	27661	1026770	43308	109653	0	0	8202	606139	0	0
2024-07-03 12:16:32			0	36645	0	0	0	26064	24640	147342	27450	1026743	43320	109650	0	0	8202	605890	0	0
2024-07-03 12:17:32			0	36643	0	0	0	26059	24650	147458	27242	1026779	43297	109648	0	0	8202	605939	0	0
2024-07-03 12:18:32			0	36632	0	0	0	26064	24650	147406	27137	1026761	43298	109650	0	0	8201	606396	0	0
2024-07-03 12:19:32			0	36659	0	0	0	26067	24650	147326	27234	1026787	43321	109651	0	0	8203	605274	0	0
2024-07-03 12:20:32			0	36683	0	0	0	26062	24660	147334	27121	1026769	43309	109649	0	0	8204	604244	0	0
2024-07-03 12:21:32			0	36671	0	0	0	26054	24650	147370	27098	1026725	43320	109646	0	0	8204	604776	0	0
2024-07-03 12:22:32			0	36688	0	0	0	26064	24650	147262	26889	1026752	43308	109650	0	0	8204	604071	0	0
2024-07-03 12:23:32			0	36686	0	0	0	26051	24650	147246	27027	1026805	43297	109645	0	0	8205	604154	0	0
2024-07-03 12:24:32			0	36687	0	0	0	26054	24650	147078	27102	1026752	43320	109646	0	0	8205	604113	0	0
2024-07-03 12:25:32			0	36694	0	0	0	26062	24650	147134	27267	1026779	43297	109649	0	0	8205	603823	0	0
2024-07-03 12:26:32			0	36728	0	0	0	26062	24650	147166	27017	1026707	43309	109649	0	0	8207	602414	0	0
2024-07-03 12:27:32			0	36718	0	0	0	26051	24650	147082	27275	1026752	43320	109645	0	0	8206	602828	0	0
2024-07-03 12:28:32			0	36718	0	0	0	26059	24640	147086	27341	1026717	43297	109648	0	0	8206	602863	0	0
2024-07-03 12:29:32			0	36731	0	0	0	26054	24650	147006	27293	1026761	43309	109646	0	0	8207	602290	0	0
2024-07-03 12:30:32			0	36726	0	0	0	26059	24640	146938	27377	1026735	43319	109648	0	0	8206	602531	0	0
2024-07-03 12:31:32			0	36740	0	0	0	26041	24640	146978	27128	1026743	43308	109641	0	0	8207	601952	0	0
2024-07-03 12:32:32			0	36748	0	0	0	26051	24640	147014	27157	1026770	43308	109645	0	0	8208	601621	0	0
2024-07-03 12:33:32			0	36756	0	0	0	26059	24650	147038	27263	1026752	43320	109648	0	0	8208	601257	0	0
2024-07-03 12:34:32			0	36738	0	0	0	26064	24660	147014	27301	1026796	43309	109650	0	0	8207	601967	0	0
2024-07-03 12:35:32			0	36748	0	0	0	26051	24650	146978	27072	1026725	43308	109645	0	0	8208	601587	0	0
2024-07-03 12:36:32			0	36722	0	0	0	26051	24650	147006	27310	1026725	43308	109645	0	0	8206	602663	0	0
2024-07-03 12:37:32			0	36757	0	0	0	26051	24650	146962	26904	1026725	43320	109645	0	0	8208	601215	0	0
2024-07-03 12:38:32			0	36762	0	0	0	26049	24650	147010	27182	1026752	43297	109644	0	0	8209	601009	0	0
2024-07-03 12:39:32			0	36748	0	0	0	26054	24650	146958	27334	1026752	43308	109646	0	0	8208	601587	0	0
2024-07-03 12:40:32			0	36748	0	0	0	26051	24650	146970	27208	1026752	43308	109645	0	0	8208	601587	0	0
2024-07-03 12:41:32			0	36743	0	0	0	26049	24650	146970	26816	1026645	43320	109644	0	0	8208	601794	0	0
2024-07-03 12:42:32			0	36734	0	0	0	26044	24650	146974	27267	1026672	43320	109642	0	0	8207	602166	0	0
2024-07-03 12:43:32			0	36731	0	0	0	26046	24640	146906	27095	1026717	43308	109643	0	0	8207	602325	0	0
2024-07-03 12:44:32			0	36746	0	0	0	26044	24650	146966	27161	1026672	43297	109642	0	0	8208	601670	0	0
2024-07-03 12:45:32			0	36746	0	0	0	26049	24650	146966	27066	1026672	43308	109644	0	0	8208	601670	0	0
2024-07-03 12:46:32			0	36745	0	0	0	26046	24650	146862	27228	1026698	43320	109643	0	0	8208	601711	0	0
2024-07-03 12:47:32			0	36774	0	0	0	26046	24640	146922	27183	1026690	43308	109643	0	0	8209	600547	0	0
2024-07-03 12:48:32			0	36760	0	0	0	26044	24640	146902	26913	1026743	43297	109642	0	0	8208	601125	0	0
2024-07-03 12:49:32			0	36760	0	0	0	26054	24650	146926	26705	1026672	43308	109646	0	0	8208	601091	0	0
2024-07-03 12:50:32			0	36753	0	0	0	26057	24650	146834	26896	1026707	43309	109647	0	0	8208	601381	0	0
2024-07-03 12:51:32			0	36759	0	0	0	26059	24640	146914	26854	1026717	43308	109648	0	0	8208	601167	0	0
2024-07-03 12:52:32			0	36747	0	0	0	26059	24650	146858	26994	1026787	43309	109648	0	0	8208	601629	0	0
2024-07-03 12:53:32			0	36768	0	0	0	26067	24650	146882	27152	1026725	43320	109651	0	0	8209	600761	0	0
2024-07-03 12:54:32			0	36755	0	0	0	26057	24650	146858	26989	1026752	43320	109647	0	0	8208	601298	0	0
2024-07-03 12:55:32			0	36766	0	0	0	26062	24660	146886	26949	1026823	43309	109649	0	0	8209	600810	0	0
2024-07-03 12:56:32			0	36773	0	0	0	26062	24650	146878	26897	1026761	43309	109649	0	0	8209	600554	0	0
2024-07-03 12:57:32			0	36759	0	0	0	26059	24650	146966	27204	1026787	43309	109648	0	0	8208	601133	0	0
2024-07-03 12:58:32			0	36776	0	0	0	26059	24650	146838	26972	1026761	43298	109648	0	0	8209	600431	0	0
2024-07-03 12:59:32			0	36764	0	0	0	26070	24660	146946	27182	1026796	43309	109652	0	0	8208	600892	0	0
2024-07-03 13:00:32			0	36778	0	0	0	26072	24660	146826	27275	1026805	43321	109653	0	0	8209	600314	0	0
2024-07-03 13:01:32			0	36773	0	0	0	26083	24660	146762	27230	1026823	43298	109657	0	0	8209	600520	0	0
2024-07-03 13:02:32			0	36778	0	0	0	26080	24660	146866	27369	1026831	43321	109656	0	0	8209	600314	0	0
2024-07-03 13:03:32			0	36773	0	0	0	26085	24660	146862	27008	1026823	43309	109658	0	0	8209	600520	0	0
2024-07-03 13:04:32			0	36786	0	0	0	26088	24680	146750	27046	1026831	43300	109659	0	0	8209	599916	0	0
2024-07-03 13:05:32			0	36794	0	0	0	26083	24670	146826	26941	1026822	43311	109657	0	0	8210	599620	0	0
2024-07-03 13:06:32			0	36779	0	0	0	26096	24660	146818	27286	1026858	43321	109662	0	0	8209	600273	0	0
2024-07-03 13:07:32			0	36790	0	0	0	26088	24670	146782	27424	1026902	43311	109659	0	0	8209	599785	0	0
2024-07-03 13:08:32			0	36799	0	0	0	26085	24670	146802	26993	1026867	43299	109658	0	0	8210	599414	0	0
2024-07-03 13:09:32			0	36800	0	0	0	26090	24680	146770	27066	1026831	43322	109660	0	0	8210	599338	0	0
2024-07-03 13:10:32			0	36802	0	0	0	26088	24660	146790	26942	1026858	43310	109659	0	0	8210	599324	0	0
2024-07-03 13:11:32			0	36828	0	0	0	26083	24670	146718	27003	1026876	43322	109657	0	0	8212	598219	0	0
2024-07-03 13:12:32			0	36819	0	0	0	26080	24680	146718	27298	1026831	43322	109656	0	0	8211	598555	0	0
2024-07-03 13:13:32			0	36828	0	0	0	26083	24670	146638	27100	1026849	43311	109657	0	0	8212	598219	0	0
2024-07-03 13:14:32			0	36832	0	0	0	26090	24680	146586	26974	1026893	43312	109660	0	0	8212	598020	0	0
2024-07-03 13:15:32			0	36850	0	0	0	26083	24680	146582	27092	1026893	43312	109657	0	0	8213	597279	0	0
2024-07-03 13:16:32			0	36854	0	0	0	26080	24670	146538	27289	1026822	43300	109656	0	0	8213	597148	0	0
2024-07-03 13:17:32			0	36877	0	0	0	26075	24660	146506	27270	1026805	43310	109654	0	0	8214	596237	0	0
2024-07-03 13:18:32			0	36860	0	0	0	26077	24670	146462	27161	1026822	43300	109655	0	0	8213	596902	0	0
2024-07-03 13:19:32			0	36852	0	0	0	26072	24660	146490	27355	1026778	43321	109653	0	0	8213	597265	0	0
2024-07-03 13:20:32			0	36905	0	0	0	26075	24670	146446	27086	1026867	43310	109654	0	0	8216	595053	0	0
2024-07-03 13:21:32			0	36875	0	0	0	26077	24670	146478	26986	1026813	43310	109655	0	0	8214	596285	0	0
2024-07-03 13:22:32			0	36887	0	0	0	26075	24670	146426	27100	1026813	43299	109654	0	0	8215	595792	0	0
2024-07-03 13:23:32			0	36890	0	0	0	26072	24670	146410	26844	1026876	43311	109653	0	0	8215	595669	0	0
2024-07-03 13:24:32			0	36878	0	0	0	26080	24660	146446	27279	1026743	43309	109656	0	0	8214	596196	0	0
2024-07-03 13:25:32			0	36888	0	0	0	26075	24680	146370	27019	1026857	43311	109654	0	0	8215	595717	0	0
2024-07-03 13:26:32			0	36873	0	0	0	26080	24670	146450	27177	1026822	43311	109656	0	0	8214	596367	0	0
2024-07-03 13:27:32			0	36885	0	0	0	26080	24670	146538	26994	1026849	43311	109656	0	0	8215	595874	0	0
2024-07-03 13:28:32			0	36889	0	0	0	26072	24680	146502	26882	1026911	43322	109653	0	0	8215	595676	0	0
2024-07-03 13:29:32			0	36873	0	0	0	26083	24680	146518	27275	1026857	43311	109657	0	0	8214	596334	0	0
2024-07-03 13:30:32			0	36873	0	0	0	26088	24670	146442	27124	1026894	43321	109659	0	0	8214	596367	0	0
2024-07-03 13:31:32			0	36868	0	0	0	26075	24680	146390	26894	1026857	43311	109654	0	0	8214	596539	0	0
2024-07-03 13:32:32			0	36871	0	0	0	26083	24680	146494	27218	1026884	43333	109657	0	0	8214	596416	0	0
2024-07-03 13:33:32			0	36886	0	0	0	26080	24670	146566	26902	1026876	43311	109656	0	0	8215	595833	0	0
2024-07-03 13:34:32			0	36874	0	0	0	26080	24670	146518	27319	1026894	43310	109656	0	0	8214	596326	0	0
2024-07-03 13:35:32			0	36876	0	0	0	26083	24670	146418	27393	1026876	43311	109657	0	0	8214	596244	0	0
2024-07-03 13:36:32			0	36881	0	0	0	26083	24680	146462	26958	1026911	43311	109657	0	0	8214	596005	0	0
2024-07-03 13:37:32			0	36872	0	0	0	26083	24670	146490	27319	1026902	43311	109657	0	0	8214	596408	0	0
2024-07-03 13:38:32			0	36868	0	0	0	26090	24680	146414	27196	1026893	43312	109660	0	0	8214	596539	0	0
2024-07-03 13:39:32			0	36869	0	0	0	26096	24680	146390	27088	1026893	43312	109662	0	0	8213	596498	0	0
2024-07-03 13:40:32			0	36896	0	0	0	26093	24680	146450	27046	1026893	43312	109661	0	0	8215	595389	0	0
2024-07-03 13:41:32			0	36883	0	0	0	26088	24680	146402	27170	1026947	43312	109659	0	0	8214	595923	0	0
2024-07-03 13:42:32			0	36890	0	0	0	26098	24680	146314	27294	1026866	43312	109663	0	0	8215	595635	0	0
2024-07-03 13:43:32			0	36894	0	0	0	26093	24680	146370	26922	1026920	43323	109661	0	0	8215	595471	0	0
2024-07-03 13:44:32			0	36911	0	0	0	26098	24680	146282	26817	1026911	43300	109663	0	0	8216	594773	0	0
2024-07-03 13:45:32			0	36921	0	0	0	26096	24680	146290	27116	1026947	43312	109662	0	0	8216	594363	0	0
2024-07-03 13:46:32			0	36923	0	0	0	26093	24680	146274	26840	1026893	43301	109661	0	0	8216	594281	0	0
2024-07-03 13:47:32			0	36926	0	0	0	26101	24690	146158	26909	1026991	43324	109664	0	0	8216	594125	0	0
2024-07-03 13:48:32			0	36924	0	0	0	26098	24680	146118	27371	1026920	43334	109663	0	0	8216	594240	0	0
2024-07-03 13:49:32			0	36937	0	0	0	26098	24690	146106	27300	1026929	43312	109663	0	0	8217	593674	0	0
2024-07-03 13:50:32			0	36936	0	0	0	26096	24690	146058	27170	1026964	43324	109662	0	0	8217	593715	0	0
2024-07-03 13:51:32			0	36952	0	0	0	26090	24690	146090	27008	1026964	43313	109660	0	0	8218	593060	0	0
2024-07-03 13:52:32			0	36961	0	0	0	26101	24690	146058	27317	1026991	43324	109664	0	0	8218	592691	0	0
2024-07-03 13:53:32			0	36965	0	0	0	26093	24690	145918	27287	1027018	43313	109661	0	0	8219	592528	0	0
2024-07-03 13:54:32			0	36972	0	0	0	26101	24690	145910	27100	1026964	43313	109664	0	0	8219	592241	0	0
2024-07-03 13:55:32			0	36972	0	0	0	26096	24690	145938	27244	1026991	43324	109662	0	0	8219	592241	0	0
2024-07-03 13:56:32			0	36980	0	0	0	26101	24690	145826	27194	1026937	43302	109664	0	0	8219	591914	0	0
2024-07-03 13:57:32			0	36999	0	0	0	26101	24700	145922	27286	1026919	43325	109664	0	0	8220	591104	0	0
2024-07-03 13:58:32			0	36980	0	0	0	26085	24690	145914	27147	1026991	43324	109658	0	0	8219	591914	0	0
2024-07-03 13:59:32			0	36992	0	0	0	26088	24690	145942	27209	1026929	43301	109659	0	0	8220	591423	0	0
2024-07-03 14:00:32			0	37006	0	0	0	26088	24680	145838	26961	1026920	43323	109659	0	0	8221	590885	0	0
2024-07-03 14:01:32			0	37008	0	0	0	26085	24680	145870	27204	1026911	43322	109658	0	0	8221	590803	0	0
2024-07-03 14:02:32			0	37010	0	0	0	26093	24690	145858	27391	1026991	43313	109661	0	0	8221	590688	0	0
2024-07-03 14:03:32			0	37025	0	0	0	26098	24690	145886	27353	1026964	43313	109663	0	0	8222	590076	0	0
2024-07-03 14:04:32			0	37017	0	0	0	26093	24690	145814	27183	1026929	43312	109661	0	0	8221	590403	0	0
2024-07-03 14:05:32			0	37011	0	0	0	26090	24690	145838	27267	1027018	43313	109660	0	0	8221	590647	0	0
2024-07-03 14:06:32			0	37018	0	0	0	26103	24700	145738	27277	1027000	43314	109665	0	0	8221	590328	0	0
2024-07-03 14:07:32			0	37013	0	0	0	26106	24690	145770	27339	1026937	43324	109666	0	0	8221	590566	0	0
2024-07-03 14:08:32			0	37026	0	0	0	26101	24700	145778	27102	1026973	43325	109664	0	0	8222	590002	0	0
2024-07-03 14:09:32			0	37009	0	0	0	26109	24690	145778	27156	1026991	43313	109667	0	0	8221	590729	0	0
2024-07-03 14:10:32			0	37013	0	0	0	26103	24690	145786	27079	1026937	43313	109665	0	0	8221	590566	0	0
2024-07-03 14:11:32			0	37016	0	0	0	26106	24700	145810	27312	1026946	43325	109666	0	0	8221	590410	0	0
2024-07-03 14:12:32			0	37023	0	0	0	26111	24700	145786	27130	1027026	43325	109668	0	0	8221	590124	0	0
2024-07-03 14:13:32			0	37007	0	0	0	26109	24700	145706	27012	1027000	43314	109667	0	0	8221	590777	0	0
2024-07-03 14:14:32			0	37041	0	0	0	26116	24700	145710	27381	1027080	43325	109670	0	0	8222	589390	0	0
2024-07-03 14:15:32			0	37034	0	0	0	26127	24700	145730	27242	1027088	43314	109674	0	0	8222	589675	0	0
2024-07-03 14:16:32			0	37025	0	0	0	26132	24700	145786	27178	1027088	43303	109676	0	0	8221	590043	0	0
2024-07-03 14:17:32			0	37021	0	0	0	26132	24720	145750	27007	1027114	43327	109676	0	0	8221	590139	0	0
2024-07-03 14:18:32			0	37027	0	0	0	26140	24710	145774	27338	1027079	43303	109679	0	0	8221	589928	0	0
2024-07-03 14:19:32			0	37021	0	0	0	26129	24720	145830	26981	1027168	43337	109675	0	0	8221	590139	0	0
2024-07-03 14:20:32			0	37016	0	0	0	26140	24720	145802	27339	1027195	43316	109679	0	0	8221	590343	0	0
2024-07-03 14:21:32			0	37029	0	0	0	26150	24730	145886	27272	1027159	43328	109683	0	0	8221	589779	0	0
2024-07-03 14:22:32			0	37024	0	0	0	26137	24720	145854	27012	1027123	43304	109678	0	0	8221	590017	0	0
2024-07-03 14:23:32			0	37037	0	0	0	26132	24730	145910	27137	1027167	43305	109676	0	0	8222	589453	0	0
2024-07-03 14:24:32			0	37008	0	0	0	26122	24730	145814	27131	1027167	43328	109672	0	0	8221	590636	0	0
2024-07-03 14:25:32			0	37017	0	0	0	26135	24730	145878	27209	1027140	43317	109677	0	0	8221	590269	0	0
2024-07-03 14:26:32			0	37029	0	0	0	26132	24730	145850	26991	1027105	43317	109676	0	0	8221	589779	0	0
2024-07-03 14:27:32			0	37017	0	0	0	26137	24730	145950	27131	1027140	43317	109678	0	0	8221	590269	0	0
2024-07-03 14:28:32			0	36997	0	0	0	26137	24730	145898	27170	1027159	43328	109678	0	0	8220	591085	0	0
2024-07-03 14:29:32			0	37006	0	0	0	26137	24740	145850	27060	1027176	43318	109678	0	0	8220	590684	0	0
2024-07-03 14:30:32			0	36995	0	0	0	26150	24740	145866	27074	1027211	43318	109683	0	0	8219	591134	0	0
2024-07-03 14:31:32			0	36998	0	0	0	26155	24740	145906	27024	1027238	43329	109685	0	0	8219	591011	0	0
2024-07-03 14:32:32			0	37006	0	0	0	26155	24740	145946	26901	1027238	43329	109685	0	0	8220	590684	0	0
2024-07-03 14:33:32			0	37002	0	0	0	26153	24740	145914	27237	1027238	43329	109684	0	0	8220	590848	0	0
2024-07-03 14:34:32			0	36996	0	0	0	26163	24750	145974	26918	1027229	43330	109688	0	0	8219	591059	0	0
2024-07-03 14:35:32			0	36988	0	0	0	26176	24740	145898	27069	1027310	43329	109693	0	0	8219	591420	0	0
2024-07-03 14:36:32			0	37006	0	0	0	26189	24760	145954	27059	1027344	43319	109698	0	0	8219	590617	0	0
2024-07-03 14:37:32			0	36998	0	0	0	26192	24760	145990	27239	1027407	43332	109699	0	0	8219	590944	0	0
2024-07-03 14:38:32			0	36973	0	0	0	26202	24760	146006	27208	1027318	43319	109703	0	0	8217	591966	0	0
2024-07-03 14:39:32			0	36978	0	0	0	26197	24770	146018	26941	1027389	43332	109701	0	0	8218	591728	0	0
2024-07-03 14:40:32			0	36982	0	0	0	26197	24770	146086	27147	1027442	43332	109701	0	0	8218	591564	0	0
2024-07-03 14:41:32			0	36991	0	0	0	26199	24770	145978	27291	1027370	43320	109702	0	0	8218	591196	0	0
2024-07-03 14:42:32			0	36966	0	0	0	26197	24770	146006	27159	1027335	43309	109701	0	0	8217	592218	0	0
2024-07-03 14:43:32			0	36969	0	0	0	26189	24780	145950	27218	1027379	43333	109698	0	0	8218	592062	0	0
2024-07-03 14:44:32			0	36965	0	0	0	26186	24780	145994	27263	1027415	43322	109697	0	0	8217	592226	0	0
2024-07-03 14:45:32			0	36960	0	0	0	26179	24770	145934	26876	1027424	43332	109694	0	0	8217	592464	0	0
2024-07-03 14:46:32			0	36976	0	0	0	26179	24780	145998	27239	1027388	43322	109694	0	0	8218	591776	0	0
2024-07-03 14:47:32			0	36975	0	0	0	26171	24770	146014	27128	1027389	43309	109691	0	0	8218	591850	0	0
2024-07-03 14:48:32			0	36973	0	0	0	26184	24780	146026	27157	1027361	43322	109696	0	0	8218	591899	0	0
2024-07-03 14:49:32			0	36953	0	0	0	26176	24770	145922	27204	1027451	43332	109693	0	0	8217	592750	0	0
2024-07-03 14:50:32			0	36976	0	0	0	26186	24770	146046	27230	1027362	43332	109697	0	0	8218	591809	0	0
2024-07-03 14:51:32			0	36955	0	0	0	26181	24780	146030	27053	1027352	43333	109695	0	0	8217	592635	0	0
2024-07-03 14:52:32			0	36954	0	0	0	26192	24780	146050	27274	1027379	43310	109699	0	0	8217	592676	0	0
2024-07-03 14:53:32			0	36967	0	0	0	26184	24780	145934	27303	1027441	43322	109696	0	0	8218	592144	0	0
2024-07-03 14:54:32			0	36977	0	0	0	26181	24780	146014	27173	1027433	43333	109695	0	0	8218	591735	0	0
2024-07-03 14:55:32			0	36953	0	0	0	26184	24790	145962	27358	1027432	43311	109696	0	0	8217	592683	0	0
2024-07-03 14:56:32			0	36959	0	0	0	26189	24790	145958	26996	1027503	43322	109698	0	0	8217	592438	0	0
2024-07-03 14:57:32			0	36958	0	0	0	26197	24790	145990	26857	1027450	43333	109701	0	0	8217	592478	0	0
2024-07-03 14:58:32			0	36955	0	0	0	26194	24800	146014	27228	1027503	43335	109700	0	0	8217	592568	0	0
2024-07-03 14:59:32			0	36938	0	0	0	26192	24790	145974	27194	1027477	43322	109699	0	0	8216	593297	0	0
2024-07-03 15:00:32			0	36938	0	0	0	26194	24790	146090	27152	1027485	43333	109700	0	0	8216	593297	0	0
2024-07-03 15:01:32			0	36936	0	0	0	26192	24800	146074	26899	1027503	43324	109699	0	0	8216	593345	0	0
2024-07-03 15:02:32			0	36950	0	0	0	26184	24800	146114	27270	1027467	43334	109696	0	0	8217	592772	0	0
2024-07-03 15:03:32			0	36950	0	0	0	26184	24800	146022	27170	1027503	43324	109696	0	0	8217	592772	0	0
2024-07-03 15:04:32			0	36944	0	0	0	26184	24790	146074	27201	1027450	43333	109696	0	0	8216	593051	0	0
2024-07-03 15:05:32			0	36939	0	0	0	26186	24790	146046	27346	1027459	43322	109697	0	0	8216	593256	0	0
2024-07-03 15:06:32			0	36939	0	0	0	26184	24790	146014	27145	1027485	43322	109696	0	0	8216	593256	0	0
2024-07-03 15:07:32			0	36939	0	0	0	26192	24800	146090	27227	1027530	43324	109699	0	0	8216	593222	0	0
2024-07-03 15:08:32			0	36922	0	0	0	26199	24800	146150	26994	1027583	43335	109702	0	0	8215	593919	0	0
2024-07-03 15:09:32			0	36909	0	0	0	26225	24810	146166	27192	1027592	43346	109712	0	0	8214	594418	0	0
2024-07-03 15:10:32			0	36902	0	0	0	26238	24820	146278	27046	1027690	43335	109717	0	0	8213	594671	0	0
2024-07-03 15:11:32			0	36905	0	0	0	26257	24820	146322	26885	1027698	43336	109724	0	0	8213	594548	0	0
2024-07-03 15:12:32			0	36880	0	0	0	26267	24830	146354	27329	1027742	43327	109728	0	0	8212	595540	0	0
2024-07-03 15:13:32			0	36854	0	0	0	26275	24850	146366	27053	1027822	43329	109731	0	0	8210	596540	0	0
2024-07-03 15:14:32			0	36846	0	0	0	26288	24860	146446	27301	1027866	43339	109736	0	0	8210	596835	0	0
2024-07-03 15:15:32			0	36849	0	0	0	26283	24870	146454	27150	1027857	43341	109734	0	0	8210	596678	0	0
2024-07-03 15:16:32			0	36844	0	0	0	26293	24860	146382	26870	1027848	43340	109738	0	0	8210	596917	0	0
2024-07-03 15:17:32			0	36839	0	0	0	26285	24860	146446	27512	1027893	43329	109735	0	0	8209	597123	0	0
2024-07-03 15:18:32			0	36837	0	0	0	26296	24880	146494	26975	1027981	43352	109739	0	0	8209	597137	0	0
2024-07-03 15:19:32			0	36827	0	0	0	26296	24880	146450	27168	1027981	43341	109739	0	0	8209	597549	0	0
2024-07-03 15:20:32			0	36843	0	0	0	26303	24880	146402	27126	1027928	43341	109742	0	0	8209	596891	0	0
2024-07-03 15:21:32			0	36830	0	0	0	26316	24890	146386	27161	1028025	43333	109747	0	0	8209	597391	0	0
2024-07-03 15:22:32			0	36836	0	0	0	26311	24890	146314	26975	1028061	43344	109745	0	0	8209	597145	0	0
2024-07-03 15:23:32			0	36804	0	0	0	26316	24900	146442	27164	1028025	43333	109747	0	0	8207	598427	0	0
2024-07-03 15:24:32			0	36826	0	0	0	26309	24900	146378	27076	1028069	43344	109744	0	0	8209	597522	0	0
2024-07-03 15:25:32			0	36825	0	0	0	26324	24900	146410	27305	1028105	43344	109750	0	0	8208	597563	0	0
2024-07-03 15:26:32			0	36820	0	0	0	26316	24920	146382	26883	1028104	43334	109747	0	0	8208	597701	0	0
2024-07-03 15:27:32			0	36830	0	0	0	26327	24920	146314	27062	1028077	43334	109751	0	0	8209	597290	0	0
2024-07-03 15:28:32			0	36842	0	0	0	26314	24930	146346	27296	1028113	43313	109746	0	0	8209	596763	0	0
2024-07-03 15:29:32			0	36830	0	0	0	26322	24920	146330	27149	1028158	43334	109749	0	0	8209	597290	0	0
2024-07-03 15:30:32			0	36802	0	0	0	26335	24930	146362	27142	1028202	43347	109754	0	0	8207	598408	0	0
2024-07-03 15:31:32			0	36806	0	0	0	26342	24930	146354	27312	1028166	43357	109757	0	0	8207	598243	0	0
2024-07-03 15:32:32			0	36808	0	0	0	26353	24930	146406	27255	1028202	43347	109761	0	0	8207	598161	0	0
2024-07-03 15:33:32			0	36782	0	0	0	26350	24940	146410	27232	1028219	43336	109760	0	0	8206	599198	0	0
2024-07-03 15:34:32			0	36799	0	0	0	26340	24940	146474	27116	1028130	43336	109756	0	0	8207	598498	0	0
2024-07-03 15:35:32			0	36803	0	0	0	26337	24940	146514	27098	1028157	43326	109755	0	0	8207	598333	0	0
2024-07-03 15:36:32			0	36810	0	0	0	26342	24940	146466	27235	1028273	43348	109757	0	0	8207	598045	0	0
2024-07-03 15:37:32			0	36784	0	0	0	26340	24950	146418	27142	1028264	43349	109756	0	0	8206	599082	0	0
2024-07-03 15:38:32			0	36799	0	0	0	26337	24950	146518	26882	1028228	43326	109755	0	0	8207	598464	0	0
2024-07-03 15:39:32			0	36798	0	0	0	26322	24940	146486	26993	1028157	43326	109749	0	0	8207	598539	0	0
2024-07-03 15:40:32			0	36815	0	0	0	26311	24950	146514	26949	1028148	43336	109745	0	0	8208	597805	0	0
2024-07-03 15:41:32			0	36805	0	0	0	26301	24940	146370	27097	1028130	43336	109741	0	0	8208	598251	0	0
2024-07-03 15:42:32			0	36814	0	0	0	26288	24940	146378	27215	1028157	43336	109736	0	0	8208	597880	0	0
2024-07-03 15:43:32			0	36839	0	0	0	26293	24940	146302	26857	1028112	43326	109738	0	0	8210	596852	0	0
2024-07-03 15:44:32			0	36844	0	0	0	26301	24950	146362	27107	1028201	43359	109741	0	0	8210	596613	0	0
2024-07-03 15:45:32			0	36823	0	0	0	26314	24950	146314	27168	1028264	43349	109746	0	0	8209	597476	0	0
2024-07-03 15:46:32			0	36842	0	0	0	26342	24950	146378	26984	1028317	43349	109757	0	0	8209	596695	0	0
2024-07-03 15:47:32			0	36817	0	0	0	26358	24970	146406	27138	1028379	43339	109763	0	0	8208	597655	0	0
2024-07-03 15:48:32			0	36800	0	0	0	26350	24970	146450	27204	1028432	43339	109760	0	0	8207	598355	0	0
2024-07-03 15:49:32			0	36789	0	0	0	26373	24980	146426	26918	1028414	43351	109769	0	0	8206	598774	0	0
2024-07-03 15:50:32			0	36777	0	0	0	26358	24990	146482	26944	1028467	43341	109763	0	0	8206	599234	0	0
2024-07-03 15:51:32			0	36808	0	0	0	26353	24990	146382	27020	1028413	43341	109761	0	0	8207	597958	0	0
2024-07-03 15:52:32			0	36786	0	0	0	26353	24990	146406	26935	1028440	43341	109761	0	0	8206	598863	0	0
2024-07-03 15:53:32			0	36790	0	0	0	26361	25000	146374	27230	1028476	43342	109764	0	0	8206	598665	0	0
2024-07-03 15:54:32			0	36812	0	0	0	26376	25000	146518	27024	1028556	43353	109770	0	0	8207	597759	0	0
2024-07-03 15:55:32			0	36787	0	0	0	26389	25010	146482	27320	1028555	43354	109775	0	0	8206	598754	0	0
2024-07-03 15:56:32			0	36782	0	0	0	26402	25010	146546	27048	1028582	43354	109780	0	0	8205	598960	0	0
2024-07-03 15:57:32			0	36760	0	0	0	26418	25020	146570	27062	1028626	43345	109786	0	0	8204	599833	0	0
2024-07-03 15:58:32			0	36766	0	0	0	26425	25020	146594	26939	1028671	43355	109789	0	0	8204	599586	0	0
2024-07-03 15:59:32			0	36763	0	0	0	26451	25030	146686	27130	1028715	43346	109799	0	0	8203	599675	0	0
2024-07-03 16:00:32			0	36745	0	0	0	26449	25040	146682	27327	1028715	43347	109798	0	0	8203	600383	0	0
2024-07-03 16:01:32			0	36735	0	0	0	26457	25040	146722	27324	1028795	43347	109801	0	0	8202	600796	0	0
2024-07-03 16:02:32			0	36747	0	0	0	26464	25050	146742	27062	1028839	43336	109804	0	0	8202	600267	0	0
2024-07-03 16:03:32			0	36747	0	0	0	26467	25060	146682	27232	1028821	43336	109805	0	0	8202	600233	0	0
2024-07-03 16:04:32			0	36745	0	0	0	26477	25070	146690	27064	1028839	43361	109809	0	0	8202	600281	0	0
2024-07-03 16:05:32			0	36738	0	0	0	26496	25060	146738	26896	1028910	43360	109816	0	0	8202	600604	0	0
2024-07-03 16:06:32			0	36736	0	0	0	26490	25080	146742	27098	1028936	43338	109814	0	0	8202	600618	0	0
2024-07-03 16:07:32			0	36719	0	0	0	26498	25090	146774	26963	1028909	43341	109817	0	0	8201	601286	0	0
2024-07-03 16:08:32			0	36714	0	0	0	26493	25090	146878	27059	1028962	43352	109815	0	0	8200	601493	0	0
2024-07-03 16:09:32			0	36713	0	0	0	26496	25100	146802	27241	1028980	43364	109816	0	0	8200	601500	0	0
2024-07-03 16:10:32			0	36710	0	0	0	26493	25090	146706	27092	1028909	43352	109815	0	0	8200	601658	0	0
2024-07-03 16:11:32			0	36719	0	0	0	26480	25090	146706	27241	1028936	43341	109810	0	0	8201	601286	0	0
2024-07-03 16:12:32			0	36746	0	0	0	26475	25090	146586	27344	1028855	43341	109808	0	0	8202	600172	0	0
2024-07-03 16:13:32			0	36734	0	0	0	26470	25100	146586	27199	1028918	43341	109806	0	0	8202	600633	0	0
2024-07-03 16:14:32			0	36759	0	0	0	26457	25100	146618	27060	1028918	43352	109801	0	0	8203	599602	0	0
2024-07-03 16:15:32			0	36760	0	0	0	26462	25090	146698	27317	1028909	43352	109803	0	0	8203	599595	0	0
2024-07-03 16:16:32			0	36760	0	0	0	26470	25100	146542	26852	1028944	43331	109806	0	0	8203	599561	0	0
2024-07-03 16:17:32			0	36752	0	0	0	26462	25090	146570	27227	1028873	43340	109803	0	0	8203	599924	0	0
2024-07-03 16:18:32			0	36767	0	0	0	26446	25090	146594	27312	1028847	43330	109797	0	0	8204	599306	0	0
2024-07-03 16:19:32			0	36778	0	0	0	26451	25090	146706	27493	1028820	43330	109799	0	0	8204	598853	0	0
2024-07-03 16:20:32			0	36770	0	0	0	26451	25090	146646	27244	1028900	43351	109799	0	0	8204	599183	0	0
2024-07-03 16:21:32			0	36766	0	0	0	26449	25090	146646	26916	1028802	43352	109798	0	0	8204	599348	0	0
2024-07-03 16:22:32			0	36765	0	0	0	26464	25090	146622	27157	1028909	43364	109804	0	0	8204	599389	0	0
2024-07-03 16:23:32			0	36771	0	0	0	26464	25100	146614	27211	1028971	43331	109804	0	0	8204	599107	0	0
2024-07-03 16:24:32			0	36755	0	0	0	26462	25100	146602	27206	1028891	43364	109803	0	0	8203	599767	0	0
2024-07-03 16:25:32			0	36766	0	0	0	26457	25100	146638	27287	1028864	43352	109801	0	0	8204	599314	0	0
2024-07-03 16:26:32			0	36748	0	0	0	26459	25080	146630	27164	1028892	43339	109802	0	0	8203	600124	0	0
2024-07-03 16:27:32			0	36769	0	0	0	26446	25080	146618	27027	1028838	43329	109797	0	0	8204	599258	0	0
2024-07-03 16:28:32			0	36759	0	0	0	26438	25070	146498	27102	1028821	43349	109794	0	0	8204	599704	0	0
2024-07-03 16:29:32			0	36773	0	0	0	26444	25090	146618	27119	1028954	43351	109796	0	0	8204	599059	0	0
2024-07-03 16:30:32			0	36755	0	0	0	26446	25080	146626	27234	1028829	43349	109797	0	0	8203	599835	0	0
2024-07-03 16:31:32			0	36764	0	0	0	26444	25080	146446	27251	1028829	43338	109796	0	0	8204	599464	0	0
2024-07-03 16:32:32			0	36788	0	0	0	26454	25090	146510	26927	1028873	43340	109800	0	0	8205	598442	0	0
2024-07-03 16:33:32			0	36762	0	0	0	26441	25080	146590	27345	1028829	43338	109795	0	0	8204	599546	0	0
2024-07-03 16:34:32			0	36774	0	0	0	26441	25080	146550	27429	1028865	43350	109795	0	0	8204	599052	0	0
2024-07-03 16:35:32			0	36777	0	0	0	26449	25080	146522	27137	1028918	43350	109798	0	0	8204	598928	0	0
2024-07-03 16:36:32			0	36763	0	0	0	26446	25080	146526	27161	1028803	43338	109797	0	0	8204	599505	0	0
2024-07-03 16:37:32			0	36775	0	0	0	26441	25080	146614	26951	1028803	43361	109795	0	0	8204	599011	0	0
2024-07-03 16:38:32			0	36775	0	0	0	26441	25070	146562	27206	1028767	43338	109795	0	0	8204	599045	0	0
2024-07-03 16:39:32			0	36772	0	0	0	26428	25060	146722	27334	1028696	43327	109790	0	0	8204	599202	0	0
2024-07-03 16:40:32			0	36787	0	0	0	26425	25050	146574	27017	1028679	43348	109789	0	0	8205	598618	0	0
2024-07-03 16:41:32			0	36759	0	0	0	26425	25050	146686	27203	1028706	43326	109789	0	0	8204	599772	0	0
2024-07-03 16:42:32			0	36765	0	0	0	26428	25040	146674	26922	1028634	43335	109790	0	0	8204	599559	0	0
2024-07-03 16:43:32			0	36769	0	0	0	26410	25050	146574	27081	1028652	43359	109783	0	0	8205	599360	0	0
2024-07-03 16:44:32			0	36760	0	0	0	26425	25040	146570	27059	1028715	43325	109789	0	0	8204	599765	0	0
2024-07-03 16:45:32			0	36783	0	0	0	26418	25030	146598	27251	1028644	43346	109786	0	0	8205	598851	0	0
2024-07-03 16:46:32			0	36776	0	0	0	26425	25020	146734	27161	1028626	43345	109789	0	0	8205	599173	0	0
2024-07-03 16:47:32			0	36768	0	0	0	26420	25040	146562	27121	1028661	43358	109787	0	0	8204	599435	0	0
2024-07-03 16:48:32			0	36763	0	0	0	26420	25040	146638	26913	1028626	43334	109787	0	0	8204	599641	0	0
2024-07-03 16:49:32			0	36746	0	0	0	26425	25040	146714	27029	1028706	43346	109789	0	0	8203	600342	0	0
2024-07-03 16:50:32			0	36768	0	0	0	26428	25030	146638	27060	1028635	43346	109790	0	0	8204	599469	0	0
2024-07-03 16:51:32			0	36760	0	0	0	26431	25040	146714	27229	1028679	43368	109791	0	0	8204	599765	0	0
2024-07-03 16:52:32			0	36743	0	0	0	26431	25040	146666	27034	1028688	43347	109791	0	0	8203	600466	0	0
2024-07-03 16:53:32			0	36748	0	0	0	26441	25040	146670	27147	1028715	43335	109795	0	0	8203	600260	0	0
2024-07-03 16:54:32			0	36741	0	0	0	26451	25040	146722	27400	1028768	43369	109799	0	0	8202	600548	0	0
2024-07-03 16:55:32			0	36730	0	0	0	26454	25040	146622	27067	1028715	43358	109800	0	0	8202	601002	0	0
2024-07-03 16:56:32			0	36739	0	0	0	26454	25060	146602	27187	1028714	43348	109800	0	0	8202	600563	0	0
2024-07-03 16:57:32			0	36746	0	0	0	26446	25050	146654	27220	1028813	43348	109797	0	0	8203	600308	0	0
2024-07-03 16:58:32			0	36721	0	0	0	26462	25050	146726	27353	1028813	43359	109803	0	0	8201	601340	0	0
2024-07-03 16:59:32			0	36743	0	0	0	26467	25060	146718	27225	1028821	43359	109805	0	0	8202	600398	0	0
2024-07-03 17:00:32			0	36743	0	0	0	26470	25060	146746	26830	1028795	43348	109806	0	0	8202	600398	0	0
2024-07-03 17:01:32			0	36738	0	0	0	26480	25060	146682	27119	1028830	43349	109810	0	0	8202	600604	0	0
2024-07-03 17:02:32			0	36719	0	0	0	26485	25060	146750	27234	1028821	43359	109812	0	0	8201	601388	0	0
2024-07-03 17:03:32			0	36728	0	0	0	26475	25070	146778	27124	1028839	43349	109808	0	0	8201	600983	0	0
2024-07-03 17:04:32			0	36740	0	0	0	26464	25060	146742	27123	1028795	43348	109804	0	0	8202	600522	0	0
2024-07-03 17:05:32			0	36736	0	0	0	26470	25080	146834	27402	1028883	43361	109806	0	0	8202	600618	0	0
2024-07-03 17:06:32			0	36728	0	0	0	26470	25070	146762	26951	1028785	43361	109806	0	0	8201	600983	0	0
2024-07-03 17:07:32			0	36730	0	0	0	26464	25060	146806	26882	1028776	43349	109804	0	0	8202	600934	0	0
2024-07-03 17:08:32			0	36728	0	0	0	26470	25060	146786	27029	1028803	43360	109806	0	0	8201	601017	0	0
2024-07-03 17:09:32			0	36736	0	0	0	26464	25060	146794	27209	1028884	43349	109804	0	0	8202	600687	0	0
2024-07-03 17:10:32			0	36729	0	0	0	26467	25070	146790	26941	1028839	43349	109805	0	0	8202	600942	0	0
2024-07-03 17:11:32			0	36726	0	0	0	26467	25070	146850	27157	1028847	43372	109805	0	0	8201	601065	0	0
2024-07-03 17:12:32			0	36721	0	0	0	26464	25070	146682	27048	1028839	43349	109804	0	0	8201	601272	0	0
2024-07-03 17:13:32			0	36738	0	0	0	26470	25080	146702	26845	1028865	43362	109806	0	0	8202	600536	0	0
2024-07-03 17:14:32			0	36723	0	0	0	26480	25060	146718	27215	1028857	43360	109810	0	0	8201	601223	0	0
2024-07-03 17:15:32			0	36718	0	0	0	26485	25080	146698	27062	1028883	43349	109812	0	0	8201	601362	0	0
2024-07-03 17:16:32			0	36734	0	0	0	26483	25070	146774	27223	1028874	43349	109811	0	0	8202	600735	0	0
2024-07-03 17:17:32			0	36726	0	0	0	26475	25070	146666	27211	1028847	43349	109808	0	0	8201	601065	0	0
2024-07-03 17:18:32			0	36740	0	0	0	26472	25060	146722	27124	1028821	43359	109807	0	0	8202	600522	0	0
2024-07-03 17:19:32			0	36727	0	0	0	26470	25070	146750	26835	1028865	43349	109806	0	0	8201	601024	0	0
2024-07-03 17:20:32			0	36748	0	0	0	26464	25060	146750	26970	1028857	43371	109804	0	0	8203	600192	0	0
2024-07-03 17:21:32			0	36736	0	0	0	26457	25060	146670	27282	1028776	43337	109801	0	0	8202	600687	0	0
2024-07-03 17:22:32			0	36731	0	0	0	26446	25060	146686	26776	1028795	43359	109797	0	0	8202	600893	0	0
2024-07-03 17:23:32			0	36769	0	0	0	26431	25060	146598	27192	1028741	43348	109791	0	0	8204	599326	0	0
2024-07-03 17:24:32			0	36772	0	0	0	26431	25050	146494	27412	1028679	43336	109791	0	0	8204	599236	0	0
2024-07-03 17:25:32			0	36780	0	0	0	26428	25050	146458	27213	1028679	43359	109790	0	0	8205	598907	0	0
2024-07-03 17:26:32			0	36788	0	0	0	26425	25050	146426	26958	1028706	43348	109789	0	0	8205	598577	0	0
2024-07-03 17:27:32			0	36819	0	0	0	26431	25050	146542	27064	1028813	43359	109791	0	0	8207	597302	0	0
2024-07-03 17:28:32			0	36785	0	0	0	26446	25050	146442	27201	1028759	43348	109797	0	0	8205	598701	0	0
2024-07-03 17:29:32			0	36787	0	0	0	26457	25050	146462	27133	1028777	43359	109801	0	0	8205	598618	0	0
2024-07-03 17:30:32			0	36793	0	0	0	26451	25060	146526	27145	1028795	43348	109799	0	0	8205	598338	0	0
2024-07-03 17:31:32			0	36775	0	0	0	26436	25050	146486	27154	1028786	43348	109793	0	0	8204	599113	0	0
2024-07-03 17:32:32			0	36802	0	0	0	26438	25050	146438	26892	1028777	43359	109794	0	0	8206	598001	0	0
2024-07-03 17:33:32			0	36791	0	0	0	26431	25050	146422	26863	1028786	43359	109791	0	0	8205	598454	0	0
2024-07-03 17:34:32			0	36795	0	0	0	26418	25040	146406	27244	1028661	43325	109786	0	0	8206	598323	0	0
2024-07-03 17:35:32			0	36810	0	0	0	26412	25050	146442	27157	1028670	43348	109784	0	0	8207	597672	0	0
2024-07-03 17:36:32			0	36833	0	0	0	26405	25020	146270	27194	1028626	43356	109781	0	0	8208	596828	0	0
2024-07-03 17:37:32			0	36832	0	0	0	26410	25030	146390	26986	1028581	43346	109783	0	0	8208	596835	0	0
2024-07-03 17:38:32			0	36847	0	0	0	26405	25030	146330	26987	1028662	43357	109781	0	0	8209	596219	0	0
2024-07-03 17:39:32			0	36845	0	0	0	26412	25030	146302	26854	1028689	43346	109784	0	0	8208	596301	0	0
2024-07-03 17:40:32			0	36868	0	0	0	26425	25030	146342	27119	1028697	43357	109789	0	0	8209	595357	0	0
2024-07-03 17:41:32			0	36857	0	0	0	26436	25030	146414	27109	1028715	43357	109793	0	0	8209	595809	0	0
2024-07-03 17:42:32			0	36848	0	0	0	26454	25050	146406	27003	1028777	43359	109800	0	0	8208	596111	0	0
2024-07-03 17:43:32			0	36851	0	0	0	26462	25040	146366	27358	1028768	43358	109803	0	0	8208	596021	0	0
2024-07-03 17:44:32			0	36840	0	0	0	26467	25040	146474	27060	1028795	43369	109805	0	0	8207	596473	0	0
2024-07-03 17:45:32			0	36816	0	0	0	26462	25050	146494	27107	1028786	43348	109803	0	0	8206	597425	0	0
2024-07-03 17:46:32			0	36816	0	0	0	26446	25050	146502	27079	1028786	43370	109797	0	0	8206	597425	0	0
2024-07-03 17:47:32			0	36828	0	0	0	26438	25050	146354	27168	1028670	43348	109794	0	0	8207	596932	0	0
2024-07-03 17:48:32			0	36848	0	0	0	26428	25030	146350	27369	1028635	43346	109790	0	0	8208	596178	0	0
2024-07-03 17:49:32			0	36848	0	0	0	26415	25030	146294	27412	1028635	43346	109785	0	0	8208	596178	0	0
2024-07-03 17:50:32			0	36871	0	0	0	26407	25030	146370	27291	1028608	43346	109782	0	0	8210	595234	0	0
2024-07-03 17:51:32			0	36860	0	0	0	26418	25030	146294	27249	1028715	43357	109786	0	0	8209	595686	0	0
2024-07-03 17:52:32			0	36833	0	0	0	26431	25030	146354	27133	1028697	43357	109791	0	0	8207	596794	0	0
2024-07-03 17:53:32			0	36840	0	0	0	26454	25030	146410	27256	1028724	43357	109800	0	0	8207	596507	0	0
2024-07-03 17:54:32			0	36815	0	0	0	26459	25050	146486	27156	1028777	43359	109802	0	0	8206	597467	0	0
2024-07-03 17:55:32			0	36799	0	0	0	26459	25030	146698	26902	1028742	43368	109802	0	0	8205	598192	0	0
2024-07-03 17:56:32			0	36784	0	0	0	26462	25050	146702	27275	1028804	43359	109803	0	0	8204	598742	0	0
2024-07-03 17:57:32			0	36752	0	0	0	26457	25050	146762	26868	1028777	43370	109801	0	0	8203	600061	0	0
2024-07-03 17:58:32			0	36749	0	0	0	26449	25040	146758	26901	1028768	43347	109798	0	0	8203	600218	0	0
2024-07-03 17:59:32			0	36752	0	0	0	26436	25050	146798	26934	1028750	43370	109793	0	0	8203	600061	0	0
2024-07-03 18:00:32			0	36751	0	0	0	26428	25050	146734	27194	1028697	43359	109790	0	0	8203	600102	0	0
2024-07-03 18:01:32			0	36738	0	0	0	26441	25030	146834	27123	1028697	43334	109795	0	0	8202	600706	0	0
2024-07-03 18:02:32			0	36767	0	0	0	26431	25020	146698	27026	1028707	43356	109791	0	0	8204	599544	0	0
2024-07-03 18:03:32			0	36743	0	0	0	26428	25040	146770	27232	1028733	43357	109790	0	0	8203	600466	0	0
2024-07-03 18:04:32			0	36754	0	0	0	26431	25040	146646	26831	1028741	43347	109791	0	0	8203	600012	0	0
2024-07-03 18:05:32			0	36744	0	0	0	26423	25040	146670	27215	1028768	43358	109788	0	0	8203	600425	0	0
2024-07-03 18:06:32			0	36745	0	0	0	26431	25040	146798	27133	1028706	43346	109791	0	0	8203	600383	0	0
2024-07-03 18:07:32			0	36761	0	0	0	26428	25020	146742	27282	1028626	43356	109790	0	0	8204	599792	0	0
2024-07-03 18:08:32			0	36738	0	0	0	26428	25030	146734	27114	1028662	43357	109790	0	0	8203	600706	0	0
2024-07-03 18:09:32			0	36737	0	0	0	26433	25030	146766	26741	1028742	43357	109792	0	0	8202	600748	0	0
2024-07-03 18:10:32			0	36726	0	0	0	26428	25020	146726	26998	1028680	43345	109790	0	0	8202	601236	0	0
2024-07-03 18:11:32			0	36733	0	0	0	26423	25040	146766	27050	1028706	43357	109788	0	0	8202	600879	0	0
2024-07-03 18:12:32			0	36743	0	0	0	26438	25040	146870	26750	1028706	43357	109794	0	0	8203	600466	0	0
2024-07-03 18:13:32			0	36704	0	0	0	26449	25040	146970	27131	1028715	43369	109798	0	0	8200	602077	0	0
2024-07-03 18:14:32			0	36683	0	0	0	26457	25030	147042	27242	1028778	43357	109801	0	0	8199	602979	0	0
2024-07-03 18:15:32			0	36660	0	0	0	26464	25060	147018	26908	1028848	43359	109804	0	0	8198	603829	0	0
2024-07-03 18:16:32			0	36635	0	0	0	26470	25060	147214	26939	1028848	43348	109806	0	0	8197	604865	0	0
2024-07-03 18:17:32			0	36606	0	0	0	26472	25060	147322	26965	1028875	43348	109807	0	0	8195	606068	0	0
2024-07-03 18:18:32			0	36596	0	0	0	26477	25050	147358	27197	1028839	43359	109809	0	0	8194	606518	0	0
2024-07-03 18:19:32			0	36595	0	0	0	26480	25060	147354	26925	1028857	43327	109810	0	0	8194	606525	0	0
2024-07-03 18:20:32			0	36592	0	0	0	26490	25060	147410	27085	1028910	43360	109814	0	0	8194	606649	0	0
2024-07-03 18:21:32			0	36571	0	0	0	26498	25070	147409	27222	1028901	43349	109817	0	0	8193	607488	0	0
2024-07-03 18:22:32			0	36561	0	0	0	26503	25080	147509	26904	1028999	43383	109819	0	0	8192	607869	0	0
2024-07-03 18:23:32			0	36551	0	0	0	26519	25080	147605	27039	1028999	43373	109825	0	0	8191	608285	0	0
2024-07-03 18:24:32			0	36523	0	0	0	26522	25090	147629	27260	1029043	43364	109826	0	0	8190	609417	0	0
2024-07-03 18:25:32			0	36521	0	0	0	26535	25100	147569	27341	1029025	43375	109831	0	0	8190	609466	0	0
2024-07-03 18:26:32			0	36510	0	0	0	26527	25090	147657	27029	1029123	43375	109828	0	0	8189	609959	0	0
2024-07-03 18:27:32			0	36520	0	0	0	26527	25100	147561	27372	1029140	43375	109828	0	0	8190	609507	0	0
2024-07-03 18:28:32			0	36521	0	0	0	26524	25100	147665	26963	1029060	43352	109827	0	0	8190	609466	0	0
2024-07-03 18:29:32			0	36567	0	0	0	26522	25110	147465	27060	1029096	43375	109826	0	0	8192	607516	0	0
2024-07-03 18:30:32			0	36588	0	0	0	26514	25110	147377	27377	1029042	43353	109823	0	0	8194	606643	0	0
2024-07-03 18:31:32			0	36612	0	0	0	26514	25110	147222	27274	1029042	43365	109823	0	0	8195	605647	0	0
2024-07-03 18:32:32			0	36671	0	0	0	26509	25110	147094	27062	1029078	43365	109821	0	0	8198	603202	0	0
2024-07-03 18:33:32			0	36681	0	0	0	26511	25100	146910	27473	1029060	43352	109822	0	0	8198	602822	0	0
2024-07-03 18:34:32			0	36725	0	0	0	26509	25120	146822	27166	1029033	43354	109821	0	0	8201	600936	0	0
2024-07-03 18:35:32			0	36741	0	0	0	26509	25110	146858	27313	1029042	43375	109821	0	0	8202	600310	0	0
2024-07-03 18:36:32			0	36736	0	0	0	26496	25100	146718	26941	1028953	43352	109816	0	0	8202	600550	0	0
2024-07-03 18:37:32			0	36779	0	0	0	26501	25090	146650	27218	1028989	43352	109818	0	0	8204	598812	0	0
2024-07-03 18:38:32			0	36777	0	0	0	26488	25100	146626	27182	1028998	43364	109813	0	0	8204	598860	0	0
2024-07-03 18:39:32			0	36799	0	0	0	26498	25100	146510	27150	1029007	43352	109817	0	0	8205	597955	0	0
2024-07-03 18:40:32			0	36798	0	0	0	26493	25100	146494	27161	1029033	43352	109815	0	0	8205	597996	0	0
2024-07-03 18:41:32			0	36794	0	0	0	26498	25100	146662	27362	1028971	43364	109817	0	0	8205	598161	0	0
2024-07-03 18:42:32			0	36783	0	0	0	26503	25090	146554	27177	1029016	43364	109819	0	0	8204	598647	0	0
2024-07-03 18:43:32			0	36749	0	0	0	26506	25090	146622	27128	1028989	43364	109820	0	0	8202	600048	0	0
2024-07-03 18:44:32			0	36772	0	0	0	26501	25100	146658	27319	1029051	43364	109818	0	0	8203	599066	0	0
2024-07-03 18:45:32			0	36750	0	0	0	26511	25100	146650	26854	1029051	43352	109822	0	0	8202	599973	0	0
2024-07-03 18:46:32			0	36769	0	0	0	26506	25100	146726	27211	1029025	43352	109820	0	0	8203	599190	0	0
2024-07-03 18:47:32			0	36773	0	0	0	26501	25090	146698	27095	1028989	43352	109818	0	0	8203	599059	0	0
2024-07-03 18:48:32			0	36768	0	0	0	26496	25100	146590	26890	1028980	43375	109816	0	0	8203	599231	0	0
2024-07-03 18:49:32			0	36813	0	0	0	26485	25090	146666	27182	1028936	43364	109812	0	0	8206	597413	0	0
2024-07-03 18:50:32			0	36826	0	0	0	26480	25080	146442	26835	1028865	43350	109810	0	0	8206	596913	0	0
2024-07-03 18:51:32			0	36841	0	0	0	26475	25080	146314	27218	1028918	43350	109808	0	0	8207	596296	0	0
2024-07-03 18:52:32			0	36854	0	0	0	26467	25080	146358	27263	1028945	43362	109805	0	0	8208	595763	0	0
2024-07-03 18:53:32			0	36865	0	0	0	26475	25070	146290	26908	1028928	43361	109808	0	0	8209	595345	0	0
2024-07-03 18:54:32			0	36883	0	0	0	26488	25080	146294	26821	1028910	43349	109813	0	0	8209	594574	0	0
2024-07-03 18:55:32			0	36879	0	0	0	26496	25090	146318	27154	1028981	43374	109816	0	0	8209	594704	0	0
2024-07-03 18:56:32			0	36873	0	0	0	26496	25080	146258	27185	1028936	43372	109816	0	0	8209	594983	0	0
2024-07-03 18:57:32			0	36864	0	0	0	26509	25090	146326	27066	1028989	43375	109821	0	0	8208	595319	0	0
2024-07-03 18:58:32			0	36857	0	0	0	26506	25090	146326	27196	1028981	43374	109820	0	0	8208	595606	0	0
2024-07-03 18:59:32			0	36853	0	0	0	26516	25090	146354	26935	1029016	43385	109824	0	0	8207	595770	0	0
2024-07-03 19:00:32			0	36846	0	0	0	26529	25100	146414	26965	1029051	43364	109829	0	0	8207	596024	0	0
2024-07-03 19:01:32			0	36837	0	0	0	26519	25090	146398	27128	1029016	43375	109825	0	0	8206	596427	0	0
2024-07-03 19:02:32			0	36840	0	0	0	26527	25090	146474	27020	1029007	43363	109828	0	0	8206	596304	0	0
2024-07-03 19:03:32			0	36842	0	0	0	26529	25090	146378	27149	1029070	43364	109829	0	0	8207	596222	0	0
2024-07-03 19:04:32			0	36847	0	0	0	26522	25100	146398	27327	1029114	43364	109826	0	0	8207	595983	0	0
2024-07-03 19:05:32			0	36865	0	0	0	26516	25100	146342	27331	1029051	43375	109824	0	0	8208	595244	0	0
2024-07-03 19:06:32			0	36867	0	0	0	26519	25100	146350	26996	1029051	43364	109825	0	0	8208	595162	0	0
2024-07-03 19:07:32			0	36869	0	0	0	26519	25090	146318	27289	1029061	43363	109825	0	0	8208	595114	0	0
2024-07-03 19:08:32			0	36887	0	0	0	26519	25090	146306	27072	1028962	43375	109825	0	0	8209	594376	0	0
2024-07-03 19:09:32			0	36885	0	0	0	26516	25090	146174	27149	1028962	43364	109824	0	0	8209	594458	0	0
2024-07-03 19:10:32			0	36901	0	0	0	26506	25100	146202	26960	1029051	43364	109820	0	0	8210	593769	0	0
2024-07-03 19:11:32			0	36913	0	0	0	26509	25090	146030	27076	1029043	43375	109821	0	0	8211	593311	0	0
2024-07-03 19:12:32			0	36912	0	0	0	26503	25100	146118	27244	1029025	43341	109819	0	0	8211	593319	0	0
2024-07-03 19:13:32			0	36932	0	0	0	26509	25090	146026	26993	1028962	43364	109821	0	0	8212	592534	0	0
2024-07-03 19:14:32			0	36936	0	0	0	26501	25090	146042	27201	1028954	43374	109818	0	0	8212	592371	0	0
2024-07-03 19:15:32			0	36947	0	0	0	26493	25090	146058	27350	1028989	43352	109815	0	0	8213	591921	0	0
2024-07-03 19:16:32			0	36952	0	0	0	26496	25100	146006	27419	1028971	43364	109816	0	0	8213	591683	0	0
2024-07-03 19:17:32			0	36962	0	0	0	26490	25090	145978	27017	1028954	43374	109814	0	0	8213	591308	0	0
2024-07-03 19:18:32			0	36977	0	0	0	26483	25080	145966	27039	1028918	43362	109811	0	0	8214	590730	0	0
2024-07-03 19:19:32			0	36984	0	0	0	26485	25080	145846	27039	1028945	43362	109812	0	0	8215	590444	0	0
2024-07-03 19:20:32			0	37013	0	0	0	26470	25070	145762	27128	1028901	43361	109806	0	0	8216	589296	0	0
2024-07-03 19:21:32			0	37019	0	0	0	26475	25080	145730	27307	1028856	43349	109808	0	0	8217	589018	0	0
2024-07-03 19:22:32			0	37021	0	0	0	26454	25070	145674	27142	1028847	43361	109800	0	0	8217	588970	0	0
2024-07-03 19:23:32			0	37045	0	0	0	26454	25070	145682	27353	1028839	43349	109800	0	0	8218	587993	0	0
2024-07-03 19:24:32			0	37067	0	0	0	26436	25060	145562	26800	1028741	43359	109793	0	0	8220	587132	0	0
2024-07-03 19:25:32			0	37082	0	0	0	26441	25060	145506	27039	1028821	43359	109795	0	0	8220	586522	0	0
2024-07-03 19:26:32			0	37113	0	0	0	26428	25060	145410	27367	1028795	43336	109790	0	0	8222	585265	0	0
2024-07-03 19:27:32			0	37096	0	0	0	26431	25050	145450	26908	1028723	43359	109791	0	0	8221	585987	0	0
2024-07-03 19:28:32			0	37115	0	0	0	26436	25050	145474	27225	1028777	43359	109793	0	0	8222	585216	0	0
2024-07-03 19:29:32			0	37103	0	0	0	26441	25040	145426	27346	1028768	43358	109795	0	0	8221	585736	0	0
2024-07-03 19:30:32			0	37095	0	0	0	26446	25040	145486	27180	1028760	43357	109797	0	0	8221	586061	0	0
2024-07-03 19:31:32			0	37087	0	0	0	26444	25040	145506	27326	1028760	43357	109796	0	0	8221	586386	0	0
2024-07-03 19:32:32			0	37092	0	0	0	26438	25040	145482	27010	1028741	43358	109794	0	0	8221	586183	0	0
2024-07-03 19:33:32			0	37054	0	0	0	26436	25040	145602	27022	1028768	43358	109793	0	0	8219	587727	0	0
2024-07-03 19:34:32			0	37085	0	0	0	26431	25040	145542	27229	1028679	43368	109791	0	0	8221	586467	0	0
2024-07-03 19:35:32			0	37058	0	0	0	26446	25030	145626	27138	1028742	43368	109797	0	0	8219	587598	0	0
2024-07-03 19:36:32			0	37054	0	0	0	26431	25040	145686	26908	1028741	43358	109791	0	0	8219	587727	0	0
2024-07-03 19:37:32			0	37061	0	0	0	26438	25030	145682	27149	1028715	43368	109794	0	0	8219	587476	0	0
2024-07-03 19:38:32			0	37056	0	0	0	26431	25040	145686	26941	1028688	43358	109791	0	0	8219	587646	0	0
2024-07-03 19:39:32			0	37042	0	0	0	26431	25030	145682	27003	1028662	43346	109791	0	0	8218	588248	0	0
2024-07-03 19:40:32			0	37065	0	0	0	26420	25020	145658	27206	1028600	43356	109787	0	0	8220	587346	0	0
2024-07-03 19:41:32			0	37052	0	0	0	26425	25020	145682	27183	1028671	43377	109789	0	0	8219	587875	0	0
2024-07-03 19:42:32			0	37053	0	0	0	26420	25010	145710	26887	1028663	43366	109787	0	0	8219	587868	0	0
2024-07-03 19:43:32			0	37044	0	0	0	26420	25020	145734	27137	1028653	43367	109787	0	0	8219	588200	0	0
2024-07-03 19:44:32			0	37042	0	0	0	26428	25010	145822	27140	1028636	43354	109790	0	0	8218	588315	0	0
2024-07-03 19:45:32			0	36996	0	0	0	26418	25010	145874	27201	1028636	43366	109786	0	0	8216	590189	0	0
2024-07-03 19:46:32			0	36979	0	0	0	26420	25010	145906	27258	1028574	43366	109787	0	0	8215	590883	0	0
2024-07-03 19:47:32			0	36980	0	0	0	26425	25010	145998	27268	1028654	43354	109789	0	0	8215	590842	0	0
2024-07-03 19:48:32			0	36964	0	0	0	26420	25010	146090	27189	1028609	43354	109787	0	0	8214	591495	0	0
2024-07-03 19:49:32			0	36927	0	0	0	26405	25000	146042	27064	1028591	43366	109781	0	0	8213	593041	0	0
2024-07-03 19:50:32			0	36927	0	0	0	26399	25010	146158	26963	1028547	43354	109779	0	0	8213	593008	0	0
2024-07-03 19:51:32			0	36927	0	0	0	26412	25010	146142	27124	1028654	43343	109784	0	0	8213	593008	0	0
2024-07-03 19:52:32			0	36913	0	0	0	26402	25000	146294	26906	1028645	43343	109780	0	0	8212	593614	0	0
2024-07-03 19:53:32			0	36894	0	0	0	26410	25000	146426	27241	1028565	43354	109783	0	0	8211	594392	0	0
2024-07-03 19:54:32			0	36858	0	0	0	26407	24990	146390	27045	1028520	43364	109782	0	0	8209	595903	0	0
2024-07-03 19:55:32			0	36865	0	0	0	26405	25010	146586	27078	1028547	43366	109781	0	0	8209	595548	0	0
2024-07-03 19:56:32			0	36846	0	0	0	26399	25000	146390	27284	1028556	43365	109779	0	0	8209	596362	0	0
2024-07-03 19:57:32			0	36819	0	0	0	26399	24990	146490	27203	1028628	43331	109779	0	0	8207	597505	0	0
2024-07-03 19:58:32			0	36818	0	0	0	26405	24990	146578	27001	1028547	43352	109781	0	0	8207	597546	0	0
2024-07-03 19:59:32			0	36816	0	0	0	26402	24990	146674	27100	1028494	43352	109780	0	0	8207	597629	0	0
2024-07-03 20:00:32			0	36787	0	0	0	26392	24990	146618	27168	1028538	43364	109776	0	0	8206	598822	0	0
2024-07-03 20:01:32			0	36742	0	0	0	26386	24990	146750	27059	1028512	43352	109774	0	0	8203	600677	0	0
2024-07-03 20:02:32			0	36751	0	0	0	26392	24990	146814	27060	1028520	43352	109776	0	0	8204	600306	0	0
2024-07-03 20:03:32			0	36728	0	0	0	26376	24980	146966	27331	1028521	43363	109770	0	0	8203	601289	0	0
2024-07-03 20:04:32			0	36695	0	0	0	26381	24980	146986	27185	1028530	43352	109772	0	0	8201	602654	0	0
2024-07-03 20:05:32			0	36676	0	0	0	26386	24970	147106	26705	1028486	43362	109774	0	0	8200	603474	0	0
2024-07-03 20:06:32			0	36645	0	0	0	26384	24970	147246	27170	1028459	43350	109773	0	0	8198	604759	0	0
2024-07-03 20:07:32			0	36634	0	0	0	26376	24980	147346	27156	1028476	43364	109770	0	0	8198	605181	0	0
2024-07-03 20:08:32			0	36610	0	0	0	26371	24980	147374	26944	1028441	43363	109768	0	0	8197	606177	0	0
2024-07-03 20:09:32			0	36600	0	0	0	26371	24970	147498	26804	1028379	43362	109768	0	0	8196	606626	0	0
2024-07-03 20:10:32			0	36571	0	0	0	26373	24970	147577	27249	1028405	43350	109769	0	0	8194	607832	0	0
2024-07-03 20:11:32			0	36566	0	0	0	26366	24970	147677	27038	1028432	43362	109766	0	0	8194	608040	0	0
2024-07-03 20:12:32			0	36562	0	0	0	26371	24970	147693	27043	1028352	43373	109768	0	0	8194	608207	0	0
2024-07-03 20:13:32			0	36550	0	0	0	26363	24960	147789	27237	1028353	43350	109765	0	0	8193	608741	0	0
2024-07-03 20:14:32			0	36532	0	0	0	26368	24960	147681	27225	1028361	43339	109767	0	0	8192	609491	0	0
2024-07-03 20:15:32			0	36521	0	0	0	26366	24950	147825	27076	1028344	43349	109766	0	0	8192	609984	0	0
2024-07-03 20:16:32			0	36537	0	0	0	26361	24970	147785	26788	1028370	43362	109764	0	0	8193	609248	0	0
2024-07-03 20:17:32			0	36510	0	0	0	26358	24970	147725	26916	1028316	43350	109763	0	0	8191	610374	0	0
2024-07-03 20:18:32			0	36505	0	0	0	26355	24960	147841	27306	1028308	43362	109762	0	0	8191	610617	0	0
2024-07-03 20:19:32			0	36508	0	0	0	26350	24950	147785	27088	1028335	43348	109760	0	0	8191	610527	0	0
2024-07-03 20:20:32			0	36493	0	0	0	26350	24950	147901	27286	1028344	43360	109760	0	0	8191	611153	0	0
2024-07-03 20:21:32			0	36501	0	0	0	26353	24950	147969	26993	1028282	43348	109761	0	0	8191	610819	0	0
2024-07-03 20:22:32			0	36501	0	0	0	26350	24940	147813	26866	1028273	43348	109760	0	0	8191	610854	0	0
2024-07-03 20:23:32			0	36490	0	0	0	26342	24940	147893	27137	1028246	43359	109757	0	0	8191	611313	0	0
2024-07-03 20:24:32			0	36497	0	0	0	26324	24930	147909	27293	1028282	43335	109750	0	0	8191	611055	0	0
2024-07-03 20:25:32			0	36514	0	0	0	26332	24930	147865	26994	1028247	43357	109753	0	0	8192	610346	0	0
2024-07-03 20:26:32			0	36510	0	0	0	26324	24930	147785	26968	1028282	43335	109750	0	0	8192	610513	0	0
2024-07-03 20:27:32			0	36507	0	0	0	26327	24930	147777	27072	1028229	43358	109751	0	0	8192	610638	0	0
2024-07-03 20:28:32			0	36522	0	0	0	26337	24940	147785	26870	1028318	43336	109755	0	0	8192	609977	0	0
2024-07-03 20:29:32			0	36513	0	0	0	26335	24930	147817	27405	1028166	43346	109754	0	0	8192	610387	0	0
2024-07-03 20:30:32			0	36507	0	0	0	26329	24930	147857	27088	1028166	43346	109752	0	0	8192	610638	0	0
2024-07-03 20:31:32			0	36503	0	0	0	26327	24930	147921	27033	1028202	43358	109751	0	0	8191	610805	0	0
2024-07-03 20:32:32			0	36497	0	0	0	26319	24900	147877	26934	1028158	43344	109748	0	0	8191	611159	0	0
2024-07-03 20:33:32			0	36503	0	0	0	26314	24920	147813	27178	1028149	43357	109746	0	0	8192	610840	0	0
2024-07-03 20:34:32			0	36516	0	0	0	26311	24920	147797	27104	1028238	43346	109745	0	0	8192	610297	0	0
2024-07-03 20:35:32			0	36514	0	0	0	26311	24920	147785	27019	1028176	43357	109745	0	0	8192	610380	0	0
2024-07-03 20:36:32			0	36519	0	0	0	26309	24910	147841	27088	1028221	43345	109744	0	0	8193	610206	0	0
2024-07-03 20:37:32			0	36512	0	0	0	26309	24900	147825	27163	1028132	43355	109744	0	0	8192	610533	0	0
2024-07-03 20:38:32			0	36519	0	0	0	26311	24920	147877	27367	1028149	43346	109745	0	0	8193	610172	0	0
2024-07-03 20:39:32			0	36515	0	0	0	26301	24910	147893	27300	1028113	43356	109741	0	0	8192	610373	0	0
2024-07-03 20:40:32			0	36525	0	0	0	26290	24900	147781	26975	1028132	43344	109737	0	0	8193	609990	0	0
2024-07-03 20:41:32			0	36530	0	0	0	26288	24900	147705	27280	1027989	43355	109736	0	0	8193	609782	0	0
2024-07-03 20:42:32			0	36565	0	0	0	26280	24900	147697	27281	1028096	43333	109733	0	0	8195	608323	0	0
2024-07-03 20:43:32			0	36583	0	0	0	26283	24880	147689	27504	1027954	43341	109734	0	0	8196	607643	0	0
2024-07-03 20:44:32			0	36607	0	0	0	26272	24880	147570	27357	1027981	43352	109730	0	0	8198	606645	0	0
2024-07-03 20:45:32			0	36612	0	0	0	26267	24870	147414	27381	1027999	43364	109728	0	0	8198	606472	0	0
2024-07-03 20:46:32			0	36611	0	0	0	26254	24880	147430	27206	1027981	43331	109723	0	0	8198	606479	0	0
2024-07-03 20:47:32			0	36626	0	0	0	26270	24880	147382	27400	1027990	43342	109729	0	0	8199	605856	0	0
2024-07-03 20:48:32			0	36640	0	0	0	26262	24870	147350	26847	1027883	43331	109726	0	0	8200	605309	0	0
2024-07-03 20:49:32			0	36628	0	0	0	26251	24870	147318	27327	1027910	43331	109722	0	0	8199	605807	0	0
2024-07-03 20:50:32			0	36624	0	0	0	26254	24860	147438	27072	1027875	43340	109723	0	0	8199	606007	0	0
2024-07-03 20:51:32			0	36607	0	0	0	26254	24870	147426	27166	1027999	43352	109723	0	0	8198	606679	0	0
2024-07-03 20:52:32			0	36603	0	0	0	26244	24860	147478	27003	1027839	43329	109719	0	0	8198	606880	0	0
2024-07-03 20:53:32			0	36578	0	0	0	26244	24860	147429	27407	1027848	43340	109719	0	0	8197	607920	0	0
2024-07-03 20:54:32			0	36578	0	0	0	26244	24850	147529	27329	1027857	43351	109719	0	0	8196	607954	0	0
2024-07-03 20:55:32			0	36568	0	0	0	26249	24850	147681	27081	1027831	43339	109721	0	0	8196	608371	0	0
2024-07-03 20:56:32			0	36556	0	0	0	26241	24850	147809	27443	1027822	43351	109718	0	0	8195	608871	0	0
2024-07-03 20:57:32			0	36515	0	0	0	26246	24850	147773	27223	1027822	43339	109720	0	0	8193	610581	0	0
2024-07-03 20:58:32			0	36514	0	0	0	26254	24840	147853	27229	1027867	43350	109723	0	0	8193	610657	0	0
2024-07-03 20:59:32			0	36477	0	0	0	26249	24840	147865	27287	1027858	43337	109721	0	0	8191	612203	0	0
2024-07-03 21:00:32			0	36487	0	0	0	26251	24840	147957	27105	1027840	43338	109722	0	0	8192	611785	0	0
2024-07-03 21:01:32			0	36462	0	0	0	26246	24840	148073	27298	1027831	43349	109720	0	0	8190	612831	0	0
2024-07-03 21:02:32			0	36424	0	0	0	26246	24840	148193	27178	1027867	43338	109720	0	0	8188	614423	0	0
2024-07-03 21:03:32			0	36429	0	0	0	26244	24840	148181	27194	1027894	43338	109719	0	0	8189	614213	0	0
2024-07-03 21:04:32			0	36428	0	0	0	26238	24850	148209	26961	1027822	43339	109717	0	0	8189	614220	0	0
2024-07-03 21:05:32			0	36426	0	0	0	26241	24840	148253	27116	1027867	43338	109718	0	0	8188	614339	0	0
2024-07-03 21:06:32			0	36440	0	0	0	26231	24840	148237	26864	1027778	43360	109714	0	0	8189	613752	0	0
2024-07-03 21:07:32			0	36443	0	0	0	26228	24830	148241	27116	1027787	43337	109713	0	0	8190	613661	0	0
2024-07-03 21:08:32			0	36451	0	0	0	26220	24830	148257	27052	1027796	43337	109710	0	0	8190	613326	0	0
2024-07-03 21:09:32			0	36459	0	0	0	26215	24830	148153	27012	1027716	43349	109708	0	0	8191	612991	0	0
2024-07-03 21:10:32			0	36480	0	0	0	26212	24820	148049	26918	1027725	43348	109707	0	0	8192	612147	0	0
2024-07-03 21:11:32			0	36486	0	0	0	26218	24820	147949	27213	1027725	43336	109709	0	0	8192	611896	0	0
2024-07-03 21:12:32			0	36505	0	0	0	26207	24820	147961	27291	1027716	43335	109705	0	0	8193	611102	0	0
2024-07-03 21:13:32			0	36516	0	0	0	26212	24810	147945	27104	1027708	43347	109707	0	0	8194	610677	0	0
2024-07-03 21:14:32			0	36515	0	0	0	26202	24810	147981	27320	1027681	43335	109703	0	0	8194	610719	0	0
2024-07-03 21:15:32			0	36517	0	0	0	26218	24810	148001	27119	1027646	43324	109709	0	0	8194	610636	0	0
2024-07-03 21:16:32			0	36479	0	0	0	26207	24810	147945	27235	1027672	43346	109705	0	0	8192	612223	0	0
2024-07-03 21:17:32			0	36485	0	0	0	26210	24800	148025	27291	1027637	43346	109706	0	0	8192	612007	0	0
2024-07-03 21:18:32			0	36494	0	0	0	26210	24810	148045	27204	1027619	43357	109706	0	0	8192	611596	0	0
2024-07-03 21:19:32			0	36469	0	0	0	26207	24800	148093	27232	1027717	43335	109705	0	0	8191	612676	0	0
2024-07-03 21:20:32			0	36478	0	0	0	26210	24810	148049	27187	1027601	43347	109706	0	0	8192	612265	0	0
2024-07-03 21:21:32			0	36462	0	0	0	26207	24800	148093	27140	1027663	43335	109705	0	0	8191	612970	0	0
2024-07-03 21:22:32			0	36461	0	0	0	26212	24800	148157	27229	1027655	43334	109707	0	0	8191	613012	0	0
2024-07-03 21:23:32			0	36438	0	0	0	26207	24810	148217	27282	1027627	43335	109705	0	0	8190	613940	0	0
2024-07-03 21:24:32			0	36439	0	0	0	26207	24800	148141	27260	1027574	43323	109705	0	0	8190	613933	0	0
2024-07-03 21:25:32			0	36441	0	0	0	26205	24800	148257	27303	1027628	43334	109704	0	0	8190	613849	0	0
2024-07-03 21:26:32			0	36425	0	0	0	26202	24800	148217	27079	1027655	43345	109703	0	0	8189	614520	0	0
2024-07-03 21:27:32			0	36433	0	0	0	26202	24800	148321	27248	1027574	43345	109703	0	0	8189	614185	0	0
2024-07-03 21:28:32			0	36445	0	0	0	26202	24800	148189	27194	1027628	43334	109703	0	0	8190	613682	0	0
2024-07-03 21:29:32			0	36444	0	0	0	26202	24790	148289	27293	1027619	43355	109703	0	0	8190	613758	0	0
2024-07-03 21:30:32			0	36455	0	0	0	26202	24790	148301	26902	1027592	43344	109703	0	0	8190	613297	0	0
2024-07-03 21:31:32			0	36431	0	0	0	26205	24790	148273	27102	1027566	43333	109704	0	0	8189	614303	0	0
2024-07-03 21:32:32			0	36464	0	0	0	26212	24790	148285	26958	1027619	43344	109707	0	0	8191	612921	0	0
2024-07-03 21:33:32			0	36441	0	0	0	26197	24790	148285	27152	1027619	43344	109701	0	0	8190	613884	0	0
2024-07-03 21:34:32			0	36451	0	0	0	26202	24790	148225	27090	1027539	43355	109703	0	0	8190	613465	0	0
2024-07-03 21:35:32			0	36456	0	0	0	26202	24790	148285	26984	1027637	43344	109703	0	0	8191	613256	0	0
2024-07-03 21:36:32			0	36457	0	0	0	26189	24800	148149	27093	1027655	43356	109698	0	0	8191	613179	0	0
2024-07-03 21:37:32			0	36467	0	0	0	26184	24790	148113	27105	1027503	43322	109696	0	0	8191	612795	0	0
2024-07-03 21:38:32			0	36490	0	0	0	26181	24790	148025	27152	1027584	43344	109695	0	0	8193	611833	0	0
2024-07-03 21:39:32			0	36469	0	0	0	26181	24790	148057	27258	1027503	43333	109695	0	0	8192	612711	0	0
2024-07-03 21:40:32			0	36505	0	0	0	26168	24770	147929	27203	1027558	43332	109690	0	0	8194	611275	0	0
2024-07-03 21:41:32			0	36522	0	0	0	26181	24770	147981	26797	1027585	43342	109695	0	0	8194	610565	0	0
2024-07-03 21:42:32			0	36524	0	0	0	26179	24770	147897	27438	1027549	43342	109694	0	0	8194	610482	0	0
2024-07-03 21:43:32			0	36530	0	0	0	26171	24780	147829	27109	1027575	43344	109691	0	0	8195	610197	0	0
2024-07-03 21:44:32			0	36537	0	0	0	26176	24770	147873	27015	1027558	43342	109693	0	0	8195	609939	0	0
2024-07-03 21:45:32			0	36543	0	0	0	26179	24780	147909	27003	1027575	43333	109694	0	0	8195	609654	0	0
2024-07-03 21:46:32			0	36527	0	0	0	26174	24780	147921	26783	1027459	43354	109692	0	0	8195	610322	0	0
2024-07-03 21:47:32			0	36512	0	0	0	26171	24770	147985	27189	1027496	43342	109691	0	0	8194	610983	0	0
2024-07-03 21:48:32			0	36511	0	0	0	26171	24770	147909	26753	1027558	43353	109691	0	0	8194	611024	0	0
2024-07-03 21:49:32			0	36536	0	0	0	26168	24770	147885	27078	1027442	43342	109690	0	0	8195	609981	0	0
2024-07-03 21:50:32			0	36509	0	0	0	26179	24770	147885	27176	1027504	43342	109694	0	0	8194	611108	0	0
2024-07-03 21:51:32			0	36492	0	0	0	26181	24770	147945	26736	1027558	43332	109695	0	0	8193	611818	0	0
2024-07-03 21:52:32			0	36489	0	0	0	26184	24770	148025	27085	1027469	43342	109696	0	0	8192	611944	0	0
2024-07-03 21:53:32			0	36467	0	0	0	26184	24770	147953	26785	1027496	43342	109696	0	0	8191	612864	0	0
2024-07-03 21:54:32			0	36450	0	0	0	26179	24770	148121	27065	1027496	43332	109694	0	0	8191	613576	0	0
2024-07-03 21:55:32			0	36478	0	0	0	26176	24770	148101	26890	1027522	43342	109693	0	0	8192	612404	0	0
2024-07-03 21:56:32			0	36481	0	0	0	26168	24770	148053	26925	1027549	43332	109690	0	0	8192	612279	0	0
2024-07-03 21:57:32			0	36469	0	0	0	26171	24770	148065	26804	1027477	43332	109691	0	0	8192	612781	0	0
2024-07-03 21:58:32			0	36482	0	0	0	26174	24770	148177	27098	1027496	43332	109692	0	0	8192	612237	0	0
2024-07-03 21:59:32			0	36495	0	0	0	26163	24760	148005	27043	1027514	43320	109688	0	0	8193	611728	0	0
2024-07-03 22:00:32			0	36482	0	0	0	26181	24760	148069	27133	1027540	43353	109695	0	0	8192	612271	0	0
2024-07-03 22:01:32			0	36471	0	0	0	26174	24770	148049	27225	1027477	43332	109692	0	0	8192	612697	0	0
2024-07-03 22:02:32			0	36479	0	0	0	26179	24770	148145	27242	1027549	43353	109694	0	0	8192	612362	0	0
2024-07-03 22:03:32			0	36463	0	0	0	26186	24760	148117	27156	1027487	43332	109697	0	0	8191	613066	0	0
2024-07-03 22:04:32			0	36429	0	0	0	26184	24770	148257	27213	1027531	43342	109696	0	0	8189	614457	0	0
2024-07-03 22:05:32			0	36426	0	0	0	26181	24780	148369	27244	1027540	43343	109695	0	0	8189	614548	0	0
2024-07-03 22:06:32			0	36423	0	0	0	26184	24760	148305	27067	1027514	43342	109696	0	0	8189	614743	0	0
2024-07-03 22:07:32			0	36425	0	0	0	26192	24770	148401	27332	1027585	43332	109699	0	0	8189	614624	0	0
2024-07-03 22:08:32			0	36418	0	0	0	26186	24780	148381	27447	1027548	43344	109697	0	0	8189	614883	0	0
2024-07-03 22:09:32			0	36405	0	0	0	26189	24780	148253	27310	1027540	43343	109698	0	0	8188	615429	0	0
2024-07-03 22:10:32			0	36420	0	0	0	26186	24770	148313	27244	1027558	43342	109697	0	0	8189	614834	0	0
2024-07-03 22:11:32			0	36402	0	0	0	26184	24770	148261	27313	1027496	43353	109696	0	0	8188	615590	0	0
2024-07-03 22:12:32			0	36433	0	0	0	26174	24770	148417	27039	1027549	43332	109692	0	0	8190	614289	0	0
2024-07-03 22:13:32			0	36453	0	0	0	26176	24770	148253	27305	1027496	43332	109693	0	0	8191	613451	0	0
2024-07-03 22:14:32			0	36472	0	0	0	26166	24770	148165	27152	1027522	43332	109689	0	0	8192	612655	0	0
2024-07-03 22:15:32			0	36493	0	0	0	26163	24760	147977	27076	1027407	43332	109688	0	0	8193	611811	0	0
2024-07-03 22:16:32			0	36514	0	0	0	26161	24770	147885	27208	1027442	43342	109687	0	0	8194	610899	0	0
2024-07-03 22:17:32			0	36555	0	0	0	26150	24760	147841	27509	1027398	43319	109683	0	0	8196	609223	0	0
2024-07-03 22:18:32			0	36579	0	0	0	26145	24750	147713	27268	1027443	43330	109681	0	0	8198	608257	0	0
2024-07-03 22:19:32			0	36597	0	0	0	26145	24750	147537	27019	1027434	43340	109681	0	0	8199	607508	0	0
2024-07-03 22:20:32			0	36612	0	0	0	26140	24750	147522	27071	1027416	43330	109679	0	0	8200	606884	0	0
2024-07-03 22:21:32			0	36604	0	0	0	26145	24740	147554	27282	1027372	43339	109681	0	0	8199	607251	0	0
2024-07-03 22:22:32			0	36593	0	0	0	26153	24750	147557	27119	1027381	43330	109684	0	0	8198	607674	0	0
2024-07-03 22:23:32			0	36592	0	0	0	26142	24750	147621	26953	1027362	43330	109680	0	0	8198	607716	0	0
2024-07-03 22:24:32			0	36574	0	0	0	26145	24750	147665	26942	1027407	43352	109681	0	0	8198	608465	0	0
2024-07-03 22:25:32			0	36547	0	0	0	26148	24750	147789	27351	1027470	43340	109682	0	0	8196	609591	0	0
2024-07-03 22:26:32			0	36551	0	0	0	26140	24750	147845	27074	1027416	43330	109679	0	0	8196	609424	0	0
2024-07-03 22:27:32			0	36545	0	0	0	26145	24750	147957	27159	1027389	43330	109681	0	0	8196	609674	0	0
2024-07-03 22:28:32			0	36538	0	0	0	26150	24750	147901	27137	1027407	43340	109683	0	0	8196	609966	0	0
2024-07-03 22:29:32			0	36532	0	0	0	26142	24740	147905	27147	1027363	43339	109680	0	0	8195	610251	0	0
2024-07-03 22:30:32			0	36529	0	0	0	26148	24740	147905	26965	1027310	43329	109682	0	0	8195	610377	0	0
2024-07-03 22:31:32			0	36534	0	0	0	26145	24740	147925	27067	1027399	43351	109681	0	0	8195	610168	0	0
2024-07-03 22:32:32			0	36530	0	0	0	26142	24730	147905	27307	1027328	43338	109680	0	0	8195	610369	0	0
2024-07-03 22:33:32			0	36554	0	0	0	26135	24730	147853	26932	1027301	43328	109677	0	0	8197	609368	0	0
2024-07-03 22:34:32			0	36530	0	0	0	26140	24740	147921	27223	1027363	43339	109679	0	0	8195	610335	0	0
2024-07-03 22:35:32			0	36530	0	0	0	26142	24730	147869	27256	1027355	43350	109680	0	0	8195	610369	0	0
2024-07-03 22:36:32			0	36538	0	0	0	26132	24740	147801	27459	1027310	43329	109676	0	0	8196	610001	0	0
2024-07-03 22:37:32			0	36534	0	0	0	26137	24740	147953	27119	1027310	43329	109678	0	0	8195	610168	0	0
2024-07-03 22:38:32			0	36550	0	0	0	26135	24740	147781	27403	1027417	43329	109677	0	0	8196	609500	0	0
2024-07-03 22:39:32			0	36548	0	0	0	26127	24730	147945	26925	1027301	43328	109674	0	0	8196	609618	0	0
2024-07-03 22:40:32			0	36557	0	0	0	26135	24730	147825	26708	1027266	43317	109677	0	0	8197	609243	0	0
2024-07-03 22:41:32			0	36545	0	0	0	26124	24730	147777	27100	1027274	43338	109673	0	0	8196	609743	0	0
2024-07-03 22:42:32			0	36540	0	0	0	26132	24730	147713	26795	1027355	43338	109676	0	0	8196	609952	0	0
2024-07-03 22:43:32			0	36539	0	0	0	26124	24720	147865	27015	1027310	43327	109673	0	0	8196	610028	0	0
2024-07-03 22:44:32			0	36566	0	0	0	26124	24720	147829	27001	1027257	43337	109673	0	0	8197	608902	0	0
2024-07-03 22:45:32			0	36562	0	0	0	26127	24720	147841	27126	1027275	43349	109674	0	0	8197	609069	0	0
2024-07-03 22:46:32			0	36537	0	0	0	26122	24720	147825	27390	1027248	43337	109672	0	0	8196	610112	0	0
2024-07-03 22:47:32			0	36565	0	0	0	26119	24710	147849	26889	1027231	43336	109671	0	0	8197	608978	0	0
2024-07-03 22:48:32			0	36554	0	0	0	26122	24710	147741	27206	1027231	43325	109672	0	0	8197	609437	0	0
2024-07-03 22:49:32			0	36561	0	0	0	26119	24720	147729	27211	1027275	43337	109671	0	0	8197	609111	0	0
2024-07-03 22:50:32			0	36573	0	0	0	26116	24710	147753	26885	1027258	43358	109670	0	0	8198	608645	0	0
2024-07-03 22:51:32			0	36568	0	0	0	26116	24700	147725	27265	1027222	43325	109670	0	0	8197	608888	0	0
2024-07-03 22:52:32			0	36576	0	0	0	26114	24710	147725	27092	1027258	43347	109669	0	0	8198	608520	0	0
2024-07-03 22:53:32			0	36562	0	0	0	26122	24700	147793	27180	1027214	43336	109672	0	0	8197	609138	0	0
2024-07-03 22:54:32			0	36564	0	0	0	26106	24700	147789	27138	1027187	43336	109666	0	0	8197	609054	0	0
2024-07-03 22:55:32			0	36572	0	0	0	26116	24710	147837	27074	1027231	43347	109670	0	0	8198	608687	0	0
2024-07-03 22:56:32			0	36552	0	0	0	26109	24700	147809	27189	1027195	43336	109667	0	0	8197	609555	0	0
2024-07-03 22:57:32			0	36551	0	0	0	26103	24700	147765	27022	1027169	43336	109665	0	0	8197	609597	0	0
2024-07-03 22:58:32			0	36575	0	0	0	26111	24700	147845	26814	1027240	43325	109668	0	0	8198	608596	0	0
2024-07-03 22:59:32			0	36571	0	0	0	26103	24710	147785	27171	1027231	43314	109665	0	0	8198	608728	0	0
2024-07-03 23:00:32			0	36557	0	0	0	26106	24690	147845	27124	1027098	43313	109666	0	0	8197	609381	0	0
2024-07-03 23:01:32			0	36574	0	0	0	26111	24700	147849	26760	1027169	43336	109668	0	0	8198	608638	0	0
2024-07-03 23:02:32			0	36567	0	0	0	26101	24700	147945	26857	1027160	43314	109664	0	0	8198	608929	0	0
2024-07-03 23:03:32			0	36563	0	0	0	26101	24700	147933	27203	1027107	43347	109664	0	0	8197	609096	0	0
2024-07-03 23:04:32			0	36551	0	0	0	26096	24690	147877	26932	1027151	43324	109662	0	0	8197	609631	0	0
2024-07-03 23:05:32			0	36555	0	0	0	26096	24690	147789	26925	1027089	43323	109662	0	0	8197	609464	0	0
2024-07-03 23:06:32			0	36567	0	0	0	26103	24700	147877	27185	1027133	43347	109665	0	0	8198	608929	0	0
2024-07-03 23:07:32			0	36562	0	0	0	26101	24700	147849	27104	1027107	43336	109664	0	0	8197	609138	0	0
2024-07-03 23:08:32			0	36581	0	0	0	26093	24690	147917	27104	1027143	43334	109661	0	0	8198	608380	0	0
2024-07-03 23:09:32			0	36560	0	0	0	26093	24680	147861	27104	1027072	43322	109661	0	0	8197	609290	0	0
2024-07-03 23:10:32			0	36574	0	0	0	26090	24680	147813	27145	1027134	43334	109660	0	0	8198	608707	0	0
2024-07-03 23:11:32			0	36580	0	0	0	26088	24690	147849	26960	1027125	43324	109659	0	0	8199	608422	0	0
2024-07-03 23:12:32			0	36581	0	0	0	26083	24680	147793	26873	1027098	43344	109657	0	0	8199	608415	0	0
2024-07-03 23:13:32			0	36596	0	0	0	26077	24680	147802	27208	1027072	43311	109655	0	0	8200	607790	0	0
2024-07-03 23:14:32			0	36580	0	0	0	26080	24680	147801	26963	1027134	43334	109656	0	0	8199	608456	0	0
2024-07-03 23:15:32			0	36573	0	0	0	26075	24670	147769	26925	1027081	43354	109654	0	0	8198	608783	0	0
2024-07-03 23:16:32			0	36576	0	0	0	26070	24670	147881	26934	1027054	43321	109652	0	0	8199	608658	0	0
2024-07-03 23:17:32			0	36594	0	0	0	26064	24670	147781	27008	1027054	43343	109650	0	0	8200	607908	0	0
2024-07-03 23:18:32			0	36586	0	0	0	26075	24670	147785	26975	1027090	43333	109654	0	0	8199	608241	0	0
2024-07-03 23:19:32			0	36591	0	0	0	26067	24660	147830	26955	1027064	43332	109651	0	0	8199	608067	0	0
2024-07-03 23:20:32			0	36572	0	0	0	26062	24670	147793	27388	1027027	43310	109649	0	0	8198	608824	0	0
2024-07-03 23:21:32			0	36602	0	0	0	26054	24660	147790	27092	1027019	43321	109646	0	0	8200	607609	0	0
2024-07-03 23:22:32			0	36610	0	0	0	26059	24670	147690	26989	1026974	43343	109648	0	0	8201	607242	0	0
2024-07-03 23:23:32			0	36608	0	0	0	26054	24660	147750	27164	1027019	43343	109646	0	0	8200	607360	0	0
2024-07-03 23:24:32			0	36594	0	0	0	26051	24650	147758	27201	1027001	43342	109645	0	0	8200	607977	0	0
2024-07-03 23:25:32			0	36600	0	0	0	26051	24650	147638	26915	1026948	43332	109645	0	0	8200	607727	0	0
2024-07-03 23:26:32			0	36593	0	0	0	26049	24660	147817	27111	1026930	43321	109644	0	0	8200	607984	0	0
2024-07-03 23:27:32			0	36592	0	0	0	26046	24660	147746	27286	1026957	43321	109643	0	0	8200	608026	0	0
2024-07-03 23:28:32			0	36593	0	0	0	26038	24640	147826	27322	1026895	43330	109640	0	0	8200	608053	0	0
2024-07-03 23:29:32			0	36589	0	0	0	26044	24650	147789	27232	1026948	43332	109642	0	0	8200	608185	0	0
2024-07-03 23:30:32			0	36594	0	0	0	26038	24650	147793	27208	1026993	43331	109640	0	0	8200	607977	0	0
2024-07-03 23:31:32			0	36572	0	0	0	26044	24650	147861	26961	1026939	43331	109642	0	0	8199	608893	0	0
2024-07-03 23:32:32			0	36566	0	0	0	26049	24650	147945	27003	1026948	43332	109644	0	0	8198	609143	0	0
2024-07-03 23:33:32			0	36543	0	0	0	26044	24650	147933	27150	1026966	43341	109642	0	0	8197	610103	0	0
2024-07-03 23:34:32			0	36512	0	0	0	26044	24640	148097	27098	1026895	43340	109642	0	0	8195	611432	0	0
2024-07-03 23:35:32			0	36501	0	0	0	26046	24640	148185	27232	1026922	43319	109643	0	0	8195	611892	0	0
2024-07-03 23:36:32			0	36492	0	0	0	26046	24640	148185	27235	1026957	43320	109643	0	0	8194	612269	0	0
2024-07-03 23:37:32			0	36449	0	0	0	26044	24650	148333	27131	1026912	43331	109642	0	0	8192	614035	0	0
2024-07-03 23:38:32			0	36418	0	0	0	26049	24640	148441	27046	1026850	43320	109644	0	0	8190	615371	0	0
2024-07-03 23:39:32			0	36383	0	0	0	26038	24640	148625	27254	1026895	43319	109640	0	0	8189	616842	0	0
2024-07-03 23:40:32			0	36347	0	0	0	26036	24640	148769	26994	1026922	43319	109639	0	0	8187	618357	0	0
2024-07-03 23:41:32			0	36316	0	0	0	26038	24630	148957	26951	1026824	43329	109640	0	0	8185	619699	0	0
2024-07-03 23:42:32			0	36278	0	0	0	26036	24630	149141	27209	1026886	43329	109639	0	0	8183	621304	0	0
2024-07-03 23:43:32			0	36216	0	0	0	26033	24630	149261	27135	1026967	43318	109638	0	0	8180	623929	0	0
2024-07-03 23:44:32			0	36172	0	0	0	26028	24630	149517	26949	1026798	43329	109636	0	0	8178	625796	0	0
2024-07-03 23:45:32			0	36142	0	0	0	26036	24630	149685	27196	1026860	43329	109639	0	0	8176	627072	0	0
2024-07-03 23:46:32			0	36097	0	0	0	26025	24630	149877	27422	1026833	43339	109635	0	0	8174	628988	0	0
2024-07-03 23:47:32			0	36070	0	0	0	26028	24630	149937	27275	1026860	43329	109636	0	0	8172	630140	0	0
2024-07-03 23:48:32			0	36017	0	0	0	26023	24630	150013	27057	1026860	43329	109634	0	0	8170	632406	0	0
2024-07-03 23:49:32			0	35996	0	0	0	26020	24630	150253	27469	1026779	43318	109633	0	0	8169	633305	0	0
2024-07-03 23:50:32			0	35957	0	0	0	26025	24630	150269	27422	1026851	43339	109635	0	0	8166	634978	0	0
2024-07-03 23:51:32			0	35944	0	0	0	26028	24630	150429	27164	1026806	43339	109636	0	0	8166	635536	0	0
2024-07-03 23:52:32			0	35913	0	0	0	26020	24620	150573	27064	1026753	43328	109633	0	0	8164	636904	0	0
2024-07-03 23:53:32			0	35862	0	0	0	26020	24630	150589	27246	1026824	43329	109633	0	0	8161	639065	0	0
2024-07-03 23:54:32			0	35849	0	0	0	26012	24630	150852	27085	1026824	43318	109630	0	0	8161	639626	0	0
2024-07-03 23:55:32			0	35804	0	0	0	26020	24620	150904	27187	1026807	43317	109633	0	0	8158	641606	0	0
2024-07-03 23:56:32			0	35782	0	0	0	26010	24610	151136	27142	1026772	43316	109629	0	0	8157	642594	0	0
2024-07-03 23:57:32			0	35738	0	0	0	26015	24610	151360	27145	1026718	43327	109631	0	0	8155	644501	0	0
2024-07-03 23:58:32			0	35710	0	0	0	26002	24620	151516	26779	1026700	43328	109626	0	0	8154	645680	0	0
2024-07-03 23:59:32			0	35669	0	0	0	26007	24610	151696	27300	1026798	43316	109628	0	0	8151	647500	0	0
2024-07-04 00:00:32			0	35624	0	0	0	26010	24610	151836	27222	1026772	43327	109629	0	0	8149	649461	0	0
2024-07-04 00:01:32			0	35577	0	0	0	26015	24610	151964	27161	1026798	43327	109631	0	0	8146	651514	0	0
2024-07-04 00:02:32			0	35534	0	0	0	26020	24600	152116	27241	1026754	43326	109633	0	0	8144	653433	0	0
2024-07-04 00:03:32			0	35518	0	0	0	26018	24600	152280	27435	1026709	43327	109632	0	0	8143	654134	0	0
2024-07-04 00:04:32			0	35468	0	0	0	26010	24600	152392	27339	1026736	43316	109629	0	0	8140	656330	0	0
2024-07-04 00:05:32			0	35431	0	0	0	26005	24600	152604	27053	1026763	43327	109627	0	0	8139	657958	0	0
2024-07-04 00:06:32			0	35419	0	0	0	25999	24600	152644	27400	1026701	43348	109625	0	0	8138	658487	0	0
2024-07-04 00:07:32			0	35406	0	0	0	25999	24600	152804	27268	1026701	43336	109625	0	0	8137	659060	0	0
2024-07-04 00:08:32			0	35370	0	0	0	25986	24600	152792	27126	1026620	43315	109620	0	0	8136	660649	0	0
2024-07-04 00:09:32			0	35361	0	0	0	25984	24590	152868	27192	1026630	43325	109619	0	0	8135	661084	0	0
2024-07-04 00:10:32			0	35355	0	0	0	25963	24580	153048	27326	1026613	43313	109611	0	0	8135	661387	0	0
2024-07-04 00:11:32			0	35334	0	0	0	25973	24580	153100	27222	1026666	43324	109615	0	0	8134	662316	0	0
2024-07-04 00:12:32			0	35316	0	0	0	25973	24580	153204	26965	1026613	43313	109615	0	0	8133	663113	0	0
2024-07-04 00:13:32			0	35298	0	0	0	25966	24570	153204	27291	1026577	43324	109612	0	0	8132	663948	0	0
2024-07-04 00:14:32			0	35288	0	0	0	25958	24580	153244	27218	1026532	43313	109609	0	0	8132	664354	0	0
2024-07-04 00:15:32			0	35274	0	0	0	25924	24560	153372	27533	1026453	43311	109596	0	0	8131	665050	0	0
2024-07-04 00:16:32			0	35260	0	0	0	25893	24540	153408	27473	1026356	43321	109584	0	0	8131	665748	0	0
2024-07-04 00:17:32			0	35242	0	0	0	25862	24540	153388	27187	1026195	43298	109572	0	0	8131	666548	0	0
2024-07-04 00:18:32			0	35222	0	0	0	25836	24510	153532	27555	1026143	43285	109562	0	0	8130	667551	0	0
2024-07-04 00:19:32			0	35183	0	0	0	25802	24500	153676	27263	1026045	43283	109549	0	0	8128	669327	0	0
2024-07-04 00:20:32			0	35179	0	0	0	25789	24490	153772	27457	1026001	43293	109544	0	0	8128	669543	0	0
2024-07-04 00:21:32			0	35178	0	0	0	25771	24470	153788	26993	1025913	43291	109537	0	0	8128	669663	0	0
2024-07-04 00:22:32			0	35186	0	0	0	25755	24460	153756	27156	1025816	43290	109531	0	0	8129	669344	0	0
2024-07-04 00:23:32			0	35217	0	0	0	25763	24430	153732	27140	1025692	43276	109534	0	0	8130	668075	0	0
2024-07-04 00:24:32			0	35205	0	0	0	25753	24440	153812	27303	1025754	43289	109530	0	0	8130	668572	0	0
2024-07-04 00:25:32			0	35210	0	0	0	25740	24410	153580	27010	1025630	43274	109525	0	0	8130	668463	0	0
2024-07-04 00:26:32			0	35208	0	0	0	25732	24400	153680	26946	1025613	43274	109522	0	0	8130	668590	0	0
2024-07-04 00:27:32			0	35210	0	0	0	25742	24390	153724	27409	1025676	43294	109526	0	0	8130	668538	0	0
2024-07-04 00:28:32			0	35218	0	0	0	25750	24400	153644	27336	1025685	43295	109529	0	0	8130	668144	0	0
2024-07-04 00:29:32			0	35232	0	0	0	25776	24410	153512	27109	1025729	43296	109539	0	0	8131	667483	0	0
2024-07-04 00:30:32			0	35277	0	0	0	25786	24400	153448	27556	1025711	43306	109543	0	0	8133	665519	0	0
2024-07-04 00:31:32			0	35306	0	0	0	25786	24400	153384	27319	1025711	43306	109543	0	0	8135	664231	0	0
2024-07-04 00:32:32			0	35355	0	0	0	25786	24390	153020	27131	1025694	43317	109543	0	0	8137	662098	0	0
2024-07-04 00:33:32			0	35432	0	0	0	25784	24390	152776	27098	1025703	43305	109542	0	0	8141	658696	0	0
2024-07-04 00:34:32			0	35518	0	0	0	25789	24380	152332	27095	1025650	43293	109544	0	0	8146	654949	0	0
2024-07-04 00:35:32			0	35616	0	0	0	25766	24370	152108	27296	1025668	43292	109535	0	0	8151	650692	0	0
2024-07-04 00:36:32			0	35692	0	0	0	25763	24380	151692	27307	1025650	43316	109534	0	0	8156	647340	0	0
2024-07-04 00:37:32			0	35741	0	0	0	25768	24380	151304	27031	1025597	43305	109536	0	0	8158	645209	0	0
2024-07-04 00:38:32			0	35807	0	0	0	25758	24370	151096	27239	1025615	43315	109532	0	0	8162	642383	0	0
2024-07-04 00:39:32			0	35864	0	0	0	25755	24370	150889	27038	1025579	43291	109531	0	0	8165	639919	0	0
2024-07-04 00:40:32			0	35895	0	0	0	25750	24370	150745	27287	1025633	43303	109529	0	0	8167	638581	0	0
2024-07-04 00:41:32			0	35942	0	0	0	25753	24370	150653	27180	1025561	43304	109530	0	0	8169	636557	0	0
2024-07-04 00:42:32			0	35966	0	0	0	25750	24360	150637	27246	1025589	43291	109529	0	0	8170	635561	0	0
2024-07-04 00:43:32			0	35984	0	0	0	25748	24360	150457	26833	1025482	43281	109528	0	0	8171	634788	0	0
2024-07-04 00:44:32			0	36014	0	0	0	25750	24360	150301	27254	1025535	43291	109529	0	0	8173	633500	0	0
2024-07-04 00:45:32			0	36022	0	0	0	25737	24360	150349	27473	1025508	43303	109524	0	0	8174	633158	0	0
2024-07-04 00:46:32			0	36057	0	0	0	25740	24350	150277	27180	1025527	43291	109525	0	0	8175	631695	0	0
2024-07-04 00:47:32			0	36096	0	0	0	25740	24350	150089	27133	1025518	43291	109525	0	0	8177	630027	0	0
2024-07-04 00:48:32			0	36078	0	0	0	25750	24350	149973	27317	1025545	43301	109529	0	0	8176	630796	0	0
2024-07-04 00:49:32			0	36105	0	0	0	25758	24360	150049	27102	1025571	43303	109532	0	0	8178	629607	0	0
2024-07-04 00:50:32			0	36114	0	0	0	25761	24360	150037	27424	1025615	43314	109533	0	0	8178	629223	0	0
2024-07-04 00:51:32			0	36105	0	0	0	25768	24360	149953	27126	1025589	43314	109536	0	0	8177	629607	0	0
2024-07-04 00:52:32			0	36108	0	0	0	25768	24350	149893	27365	1025607	43302	109536	0	0	8178	629515	0	0
2024-07-04 00:53:32			0	36111	0	0	0	25776	24350	149869	27523	1025553	43313	109539	0	0	8178	629387	0	0
2024-07-04 00:54:32			0	36136	0	0	0	25784	24350	149873	27142	1025633	43313	109542	0	0	8179	628321	0	0
2024-07-04 00:55:32			0	36130	0	0	0	25781	24370	149853	27192	1025695	43315	109541	0	0	8179	628505	0	0
2024-07-04 00:56:32			0	36135	0	0	0	25792	24360	149865	27034	1025642	43314	109545	0	0	8179	628328	0	0
2024-07-04 00:57:32			0	36145	0	0	0	25784	24370	149709	27303	1025686	43303	109542	0	0	8179	627866	0	0
2024-07-04 00:58:32			0	36166	0	0	0	25794	24370	149709	27213	1025713	43303	109546	0	0	8180	626972	0	0
2024-07-04 00:59:32			0	36168	0	0	0	25792	24360	149629	27176	1025678	43314	109545	0	0	8180	626922	0	0
2024-07-04 01:00:32			0	36192	0	0	0	25799	24370	149649	26795	1025660	43291	109548	0	0	8182	625866	0	0
2024-07-04 01:01:32			0	36204	0	0	0	25805	24360	149517	27192	1025624	43314	109550	0	0	8182	625391	0	0
2024-07-04 01:02:32			0	36201	0	0	0	25810	24370	149481	27081	1025740	43303	109552	0	0	8182	625484	0	0
2024-07-04 01:03:32			0	36228	0	0	0	25805	24370	149493	26894	1025686	43303	109550	0	0	8183	624337	0	0
2024-07-04 01:04:32			0	36248	0	0	0	25828	24370	149425	26845	1025802	43292	109559	0	0	8184	623489	0	0
2024-07-04 01:05:32			0	36254	0	0	0	25831	24380	149361	27149	1025811	43316	109560	0	0	8184	623199	0	0
2024-07-04 01:06:32			0	36260	0	0	0	25831	24390	149349	27013	1025801	43317	109560	0	0	8185	622910	0	0
2024-07-04 01:07:32			0	36294	0	0	0	25841	24390	149345	26991	1025908	43317	109564	0	0	8186	621471	0	0
2024-07-04 01:08:32			0	36326	0	0	0	25838	24400	149065	27379	1025925	43306	109563	0	0	8188	620083	0	0
2024-07-04 01:09:32			0	36391	0	0	0	25833	24400	148933	27017	1025907	43319	109561	0	0	8192	617342	0	0
2024-07-04 01:10:32			0	36462	0	0	0	25818	24400	148577	27180	1025845	43306	109555	0	0	8196	614358	0	0
2024-07-04 01:11:32			0	36527	0	0	0	25797	24410	148249	27177	1025809	43307	109547	0	0	8199	611600	0	0
2024-07-04 01:12:32			0	36600	0	0	0	25805	24390	148070	27270	1025730	43305	109550	0	0	8203	608621	0	0
2024-07-04 01:13:32			0	36624	0	0	0	25802	24400	147890	27010	1025845	43318	109549	0	0	8204	607587	0	0
2024-07-04 01:14:32			0	36651	0	0	0	25794	24390	147850	27109	1025810	43294	109546	0	0	8206	606497	0	0
2024-07-04 01:15:32			0	36675	0	0	0	25797	24400	147798	27279	1025747	43307	109547	0	0	8207	605466	0	0
2024-07-04 01:16:32			0	36649	0	0	0	25799	24390	147678	26979	1025783	43305	109548	0	0	8206	606581	0	0
2024-07-04 01:17:32			0	36671	0	0	0	25799	24400	147718	27274	1025881	43319	109548	0	0	8207	605632	0	0
2024-07-04 01:18:32			0	36657	0	0	0	25805	24400	147742	27081	1025845	43295	109550	0	0	8206	606214	0	0
2024-07-04 01:19:32			0	36644	0	0	0	25812	24400	147914	26948	1025845	43318	109553	0	0	8205	606754	0	0
2024-07-04 01:20:32			0	36636	0	0	0	25818	24400	147754	26890	1025827	43307	109555	0	0	8205	607087	0	0
2024-07-04 01:21:32			0	36631	0	0	0	25807	24400	147870	26996	1025827	43319	109551	0	0	8205	607295	0	0
2024-07-04 01:22:32			0	36632	0	0	0	25818	24390	147758	27166	1025863	43305	109555	0	0	8205	607288	0	0
2024-07-04 01:23:32			0	36650	0	0	0	25815	24400	147818	26909	1025854	43319	109554	0	0	8206	606505	0	0
2024-07-04 01:24:32			0	36646	0	0	0	25812	24400	147902	26994	1025872	43295	109553	0	0	8205	606671	0	0
2024-07-04 01:25:32			0	36636	0	0	0	25807	24410	147826	26835	1025863	43307	109551	0	0	8205	607053	0	0
2024-07-04 01:26:32			0	36631	0	0	0	25820	24400	147834	26944	1025854	43307	109556	0	0	8204	607295	0	0
2024-07-04 01:27:32			0	36622	0	0	0	25807	24410	147850	27244	1025889	43319	109551	0	0	8204	607636	0	0
2024-07-04 01:28:32			0	36630	0	0	0	25820	24400	147774	27069	1025818	43318	109556	0	0	8204	607337	0	0
2024-07-04 01:29:32			0	36604	0	0	0	25810	24400	147950	27007	1025827	43319	109552	0	0	8203	608420	0	0
2024-07-04 01:30:32			0	36619	0	0	0	25812	24400	147858	27156	1025854	43319	109553	0	0	8204	607795	0	0
2024-07-04 01:31:32			0	36596	0	0	0	25807	24410	147973	26930	1025863	43319	109551	0	0	8203	608719	0	0
2024-07-04 01:32:32			0	36611	0	0	0	25810	24410	147998	27022	1025782	43307	109552	0	0	8204	608094	0	0
2024-07-04 01:33:32			0	36584	0	0	0	25818	24410	147929	27190	1025889	43307	109555	0	0	8202	609219	0	0
2024-07-04 01:34:32			0	36562	0	0	0	25807	24410	148065	27258	1025863	43307	109551	0	0	8201	610138	0	0
2024-07-04 01:35:32			0	36564	0	0	0	25810	24410	148089	27067	1025836	43307	109552	0	0	8201	610054	0	0
2024-07-04 01:36:32			0	36547	0	0	0	25812	24400	148117	27267	1025800	43319	109553	0	0	8200	610799	0	0
2024-07-04 01:37:32			0	36529	0	0	0	25802	24410	148249	27168	1025863	43319	109549	0	0	8199	611517	0	0
2024-07-04 01:38:32			0	36513	0	0	0	25820	24400	148357	26757	1025881	43296	109556	0	0	8198	612221	0	0
2024-07-04 01:39:32			0	36476	0	0	0	25818	24400	148389	27057	1025881	43307	109555	0	0	8196	613771	0	0
2024-07-04 01:40:32			0	36460	0	0	0	25828	24400	148457	26731	1025881	43319	109559	0	0	8195	614442	0	0
2024-07-04 01:41:32			0	36416	0	0	0	25846	24410	148681	27182	1025951	43319	109566	0	0	8193	616256	0	0
2024-07-04 01:42:32			0	36385	0	0	0	25849	24410	148789	26979	1025943	43296	109567	0	0	8191	617560	0	0
2024-07-04 01:43:32			0	36370	0	0	0	25844	24410	148949	27218	1025978	43296	109565	0	0	8190	618192	0	0
2024-07-04 01:44:32			0	36339	0	0	0	25846	24420	148989	26927	1025933	43308	109566	0	0	8189	619464	0	0
2024-07-04 01:45:32			0	36354	0	0	0	25838	24420	149057	26918	1025933	43320	109563	0	0	8190	618831	0	0
2024-07-04 01:46:32			0	36317	0	0	0	25851	24420	149125	27173	1025960	43308	109568	0	0	8188	620393	0	0
2024-07-04 01:47:32			0	36317	0	0	0	25859	24420	149225	27015	1025942	43321	109571	0	0	8187	620393	0	0
2024-07-04 01:48:32			0	36285	0	0	0	25862	24430	149205	26817	1025977	43332	109572	0	0	8186	621711	0	0
2024-07-04 01:49:32			0	36266	0	0	0	25862	24430	149329	26994	1026093	43298	109572	0	0	8185	622515	0	0
2024-07-04 01:50:32			0	36234	0	0	0	25870	24440	149489	27123	1026057	43322	109575	0	0	8183	623836	0	0
2024-07-04 01:51:32			0	36225	0	0	0	25875	24440	149505	27060	1026057	43300	109577	0	0	8182	624217	0	0
2024-07-04 01:52:32			0	36213	0	0	0	25880	24440	149621	27310	1026129	43321	109579	0	0	8182	624727	0	0
2024-07-04 01:53:32			0	36192	0	0	0	25877	24450	149641	27324	1026101	43323	109578	0	0	8181	625583	0	0
2024-07-04 01:54:32			0	36150	0	0	0	25885	24450	149765	27078	1026066	43312	109581	0	0	8178	627369	0	0
2024-07-04 01:55:32			0	36128	0	0	0	25885	24450	149877	26937	1026093	43323	109581	0	0	8177	628307	0	0
2024-07-04 01:56:32			0	36094	0	0	0	25901	24450	150017	26944	1026101	43345	109587	0	0	8175	629757	0	0
2024-07-04 01:57:32			0	36041	0	0	0	25893	24450	150185	27124	1026146	43323	109584	0	0	8172	632022	0	0
2024-07-04 01:58:32			0	36018	0	0	0	25890	24460	150389	27000	1026172	43313	109583	0	0	8171	632971	0	0
2024-07-04 01:59:32			0	35987	0	0	0	25896	24460	150497	27159	1026172	43313	109585	0	0	8169	634300	0	0
2024-07-04 02:00:32			0	35934	0	0	0	25909	24470	150621	27081	1026181	43325	109590	0	0	8166	636541	0	0
2024-07-04 02:01:32			0	35912	0	0	0	25901	24460	150761	27079	1026056	43312	109587	0	0	8165	637524	0	0
2024-07-04 02:02:32			0	35864	0	0	0	25888	24460	150901	27332	1026056	43312	109582	0	0	8163	639593	0	0
2024-07-04 02:03:32			0	35828	0	0	0	25875	24460	151064	27301	1026056	43312	109577	0	0	8161	641148	0	0
2024-07-04 02:04:32			0	35811	0	0	0	25875	24460	151216	27216	1026056	43312	109577	0	0	8160	641884	0	0
2024-07-04 02:05:32			0	35758	0	0	0	25859	24440	151440	26804	1025977	43311	109571	0	0	8158	644253	0	0
2024-07-04 02:06:32			0	35723	0	0	0	25851	24440	151592	27272	1026004	43311	109568	0	0	8156	645773	0	0
2024-07-04 02:07:32			0	35708	0	0	0	25849	24440	151828	27057	1025995	43310	109567	0	0	8155	646425	0	0
2024-07-04 02:08:32			0	35651	0	0	0	25844	24450	151856	27156	1025959	43312	109565	0	0	8152	648871	0	0
2024-07-04 02:09:32			0	35610	0	0	0	25846	24440	152040	27111	1026049	43310	109566	0	0	8150	650697	0	0
2024-07-04 02:10:32			0	35579	0	0	0	25846	24440	152060	27319	1025977	43322	109566	0	0	8148	652053	0	0
2024-07-04 02:11:32			0	35551	0	0	0	25854	24450	152400	27268	1026012	43312	109569	0	0	8147	653242	0	0
2024-07-04 02:12:32			0	35521	0	0	0	25849	24440	152488	27270	1025995	43299	109567	0	0	8145	654595	0	0
2024-07-04 02:13:32			0	35477	0	0	0	25844	24440	152584	27166	1025968	43310	109565	0	0	8143	656528	0	0
2024-07-04 02:14:32			0	35450	0	0	0	25854	24450	152740	27055	1026012	43312	109569	0	0	8141	657679	0	0
2024-07-04 02:15:32			0	35414	0	0	0	25859	24440	152848	27166	1026030	43300	109571	0	0	8139	659303	0	0
2024-07-04 02:16:32			0	35390	0	0	0	25864	24440	152948	27215	1026022	43299	109573	0	0	8138	660363	0	0
2024-07-04 02:17:32			0	35366	0	0	0	25851	24430	153068	27085	1025933	43321	109568	0	0	8137	661461	0	0
2024-07-04 02:18:32			0	35346	0	0	0	25831	24420	153240	27244	1025880	43308	109560	0	0	8136	662384	0	0
2024-07-04 02:19:32			0	35328	0	0	0	25825	24420	153308	27286	1025907	43320	109558	0	0	8135	663181	0	0
2024-07-04 02:20:32			0	35280	0	0	0	25828	24420	153428	27324	1025880	43308	109559	0	0	8133	665311	0	0
2024-07-04 02:21:32			0	35266	0	0	0	25833	24410	153528	27274	1025898	43296	109561	0	0	8132	665970	0	0
2024-07-04 02:22:32			0	35246	0	0	0	25841	24420	153644	27215	1025942	43332	109564	0	0	8131	666822	0	0
2024-07-04 02:23:32			0	35227	0	0	0	25857	24420	153740	27156	1026014	43331	109570	0	0	8129	667668	0	0
2024-07-04 02:24:32			0	35196	0	0	0	25862	24440	153808	27409	1026102	43321	109572	0	0	8128	668974	0	0
2024-07-04 02:25:32			0	35208	0	0	0	25880	24440	153848	27251	1026137	43333	109579	0	0	8128	668439	0	0
2024-07-04 02:26:32			0	35192	0	0	0	25883	24440	153876	27170	1026137	43333	109580	0	0	8127	669152	0	0
2024-07-04 02:27:32			0	35178	0	0	0	25896	24450	153984	27403	1026075	43323	109585	0	0	8126	669739	0	0
2024-07-04 02:28:32			0	35156	0	0	0	25898	24440	154020	26897	1026191	43322	109586	0	0	8125	670759	0	0
2024-07-04 02:29:32			0	35138	0	0	0	25901	24450	154028	27272	1026208	43334	109587	0	0	8124	671526	0	0
2024-07-04 02:30:32			0	35131	0	0	0	25903	24460	154124	26852	1026217	43323	109588	0	0	8123	671801	0	0
2024-07-04 02:31:32			0	35137	0	0	0	25906	24470	154212	27364	1026234	43314	109589	0	0	8124	671495	0	0
2024-07-04 02:32:32			0	35109	0	0	0	25909	24480	154272	26942	1026252	43336	109590	0	0	8122	672710	0	0
2024-07-04 02:33:32			0	35097	0	0	0	25914	24480	154267	27156	1026225	43325	109592	0	0	8122	673247	0	0
2024-07-04 02:34:32			0	35095	0	0	0	25916	24480	154307	27261	1026314	43336	109593	0	0	8121	673337	0	0
2024-07-04 02:35:32			0	35109	0	0	0	25927	24480	154240	26901	1026287	43336	109597	0	0	8122	672710	0	0
2024-07-04 02:36:32			0	35078	0	0	0	25927	24490	154335	26939	1026269	43327	109597	0	0	8120	674061	0	0
2024-07-04 02:37:32			0	35095	0	0	0	25935	24490	154331	27149	1026331	43337	109600	0	0	8121	673299	0	0
2024-07-04 02:38:32			0	35072	0	0	0	25942	24500	154319	27055	1026393	43337	109603	0	0	8120	674292	0	0
2024-07-04 02:39:32			0	35063	0	0	0	25955	24490	154355	27033	1026411	43327	109608	0	0	8119	674734	0	0
2024-07-04 02:40:32			0	35066	0	0	0	25958	24500	154407	27008	1026393	43327	109609	0	0	8119	674561	0	0
2024-07-04 02:41:32			0	35065	0	0	0	25961	24510	154343	27213	1026464	43329	109610	0	0	8119	674568	0	0
2024-07-04 02:42:32			0	35083	0	0	0	25971	24510	154439	27154	1026419	43339	109614	0	0	8120	673761	0	0
2024-07-04 02:43:32			0	35066	0	0	0	25968	24510	154439	27034	1026437	43318	109613	0	0	8119	674523	0	0
2024-07-04 02:44:32			0	35080	0	0	0	25971	24520	154399	27062	1026428	43330	109614	0	0	8120	673857	0	0
2024-07-04 02:45:32			0	35056	0	0	0	25971	24520	154483	26958	1026490	43340	109614	0	0	8119	674934	0	0
2024-07-04 02:46:32			0	35073	0	0	0	25976	24520	154431	27319	1026463	43330	109616	0	0	8119	674171	0	0
2024-07-04 02:47:32			0	35069	0	0	0	25968	24520	154379	26998	1026428	43340	109613	0	0	8119	674350	0	0
2024-07-04 02:48:32			0	35068	0	0	0	25968	24520	154371	27164	1026463	43330	109613	0	0	8119	674395	0	0
2024-07-04 02:49:32			0	35052	0	0	0	25976	24520	154403	26760	1026517	43330	109616	0	0	8118	675113	0	0
2024-07-04 02:50:32			0	35077	0	0	0	25973	24530	154375	27100	1026507	43332	109615	0	0	8120	673954	0	0
2024-07-04 02:51:32			0	35055	0	0	0	25973	24520	154403	27159	1026517	43330	109615	0	0	8118	674979	0	0
2024-07-04 02:52:32			0	35040	0	0	0	25973	24530	154483	27208	1026472	43331	109615	0	0	8118	675614	0	0
2024-07-04 02:53:32			0	35046	0	0	0	25963	24530	154543	27364	1026507	43342	109611	0	0	8118	675345	0	0
2024-07-04 02:54:32			0	35036	0	0	0	25973	24530	154483	26890	1026534	43332	109615	0	0	8117	675794	0	0
2024-07-04 02:55:32			0	35043	0	0	0	25961	24530	154515	26802	1026526	43331	109610	0	0	8118	675479	0	0
2024-07-04 02:56:32			0	35030	0	0	0	25958	24530	154555	27133	1026534	43353	109609	0	0	8117	676064	0	0
2024-07-04 02:57:32			0	35037	0	0	0	25953	24540	154539	27050	1026516	43332	109607	0	0	8118	675711	0	0
2024-07-04 02:58:32			0	35033	0	0	0	25948	24520	154499	26968	1026463	43330	109605	0	0	8118	675967	0	0
2024-07-04 02:59:32			0	35028	0	0	0	25932	24520	154607	26993	1026437	43296	109599	0	0	8118	676192	0	0
2024-07-04 03:00:32			0	35011	0	0	0	25922	24510	154599	27118	1026384	43318	109595	0	0	8117	676994	0	0
2024-07-04 03:01:32			0	35008	0	0	0	25916	24510	154711	27228	1026366	43329	109593	0	0	8117	677129	0	0
2024-07-04 03:02:32			0	34993	0	0	0	25914	24510	154687	26863	1026357	43318	109592	0	0	8116	677805	0	0
2024-07-04 03:03:32			0	34995	0	0	0	25885	24490	154663	26743	1026171	43316	109581	0	0	8117	677791	0	0
2024-07-04 03:04:32			0	34977	0	0	0	25849	24490	154671	26946	1026171	43316	109567	0	0	8116	678602	0	0
2024-07-04 03:05:32			0	34989	0	0	0	25828	24470	154719	27166	1026002	43291	109559	0	0	8117	678138	0	0
2024-07-04 03:06:32			0	34978	0	0	0	25802	24460	154723	27374	1026003	43279	109549	0	0	8117	678672	0	0
2024-07-04 03:07:32			0	34971	0	0	0	25786	24440	154779	27241	1025950	43311	109543	0	0	8117	679064	0	0
2024-07-04 03:08:32			0	34961	0	0	0	25763	24430	154907	27216	1025799	43298	109534	0	0	8116	679554	0	0
2024-07-04 03:09:32			0	34934	0	0	0	25758	24420	154839	27180	1025781	43309	109532	0	0	8115	680812	0	0
2024-07-04 03:10:32			0	34952	0	0	0	25750	24410	154803	27228	1025711	43286	109529	0	0	8116	680037	0	0
2024-07-04 03:11:32			0	34929	0	0	0	25742	24400	154887	27166	1025658	43295	109526	0	0	8115	681115	0	0
2024-07-04 03:12:32			0	34923	0	0	0	25742	24390	155015	27308	1025596	43294	109526	0	0	8115	681424	0	0
2024-07-04 03:13:32			0	34911	0	0	0	25750	24390	155111	27225	1025721	43305	109529	0	0	8114	681967	0	0
2024-07-04 03:14:32			0	34910	0	0	0	25766	24380	155047	27280	1025766	43317	109535	0	0	8113	682051	0	0
2024-07-04 03:15:32			0	34888	0	0	0	25794	24390	155267	27183	1025774	43294	109546	0	0	8112	683008	0	0
2024-07-04 03:16:32			0	34885	0	0	0	25805	24400	155199	27052	1025845	43329	109550	0	0	8111	683106	0	0
2024-07-04 03:17:32			0	34892	0	0	0	25818	24390	155199	27232	1025890	43317	109555	0	0	8112	682827	0	0
2024-07-04 03:18:32			0	34894	0	0	0	25825	24400	155143	27282	1025925	43318	109558	0	0	8112	682698	0	0
2024-07-04 03:19:32			0	34890	0	0	0	25812	24400	155163	27189	1025854	43330	109553	0	0	8112	682879	0	0
2024-07-04 03:20:32			0	34879	0	0	0	25794	24400	155251	27085	1025845	43306	109546	0	0	8111	683378	0	0
2024-07-04 03:21:32			0	34891	0	0	0	25774	24380	155183	27090	1025632	43317	109538	0	0	8112	682911	0	0
2024-07-04 03:22:32			0	34885	0	0	0	25763	24390	155235	27156	1025641	43305	109534	0	0	8112	683144	0	0
2024-07-04 03:23:32			0	34892	0	0	0	25750	24370	155219	27272	1025615	43304	109529	0	0	8113	682905	0	0
2024-07-04 03:24:32			0	34884	0	0	0	25750	24370	155143	27255	1025534	43304	109529	0	0	8112	683267	0	0
2024-07-04 03:25:32			0	34890	0	0	0	25735	24360	155319	27431	1025562	43303	109523	0	0	8113	683034	0	0
2024-07-04 03:26:32			0	34906	0	0	0	25727	24350	155191	27282	1025491	43312	109520	0	0	8114	682348	0	0
2024-07-04 03:27:32			0	34878	0	0	0	25714	24340	155183	27225	1025429	43291	109515	0	0	8112	683655	0	0
2024-07-04 03:28:32			0	34892	0	0	0	25714	24340	155139	27206	1025563	43323	109515	0	0	8113	683020	0	0
2024-07-04 03:29:32			0	34892	0	0	0	25711	24340	155135	26934	1025536	43312	109514	0	0	8113	683020	0	0
2024-07-04 03:30:32			0	34895	0	0	0	25727	24340	155255	27166	1025589	43312	109520	0	0	8113	682884	0	0
2024-07-04 03:31:32			0	34881	0	0	0	25753	24350	155351	27187	1025598	43312	109530	0	0	8112	683480	0	0
2024-07-04 03:32:32			0	34883	0	0	0	25768	24340	155303	26774	1025670	43323	109536	0	0	8112	683428	0	0
2024-07-04 03:33:32			0	34892	0	0	0	25771	24340	155267	27118	1025608	43312	109537	0	0	8112	683020	0	0
2024-07-04 03:34:32			0	34886	0	0	0	25779	24350	155295	27119	1025687	43313	109540	0	0	8112	683253	0	0
2024-07-04 03:35:32			0	34861	0	0	0	25786	24360	155251	27275	1025758	43325	109543	0	0	8110	684348	0	0
2024-07-04 03:36:32			0	34869	0	0	0	25802	24350	155263	27216	1025785	43312	109549	0	0	8110	684024	0	0
2024-07-04 03:37:32			0	34887	0	0	0	25815	24370	155251	26909	1025829	43326	109554	0	0	8111	683131	0	0
2024-07-04 03:38:32			0	34900	0	0	0	25807	24370	155223	27353	1025820	43303	109551	0	0	8112	682542	0	0
2024-07-04 03:39:32			0	34891	0	0	0	25802	24370	155227	27386	1025722	43304	109549	0	0	8112	682950	0	0
2024-07-04 03:40:32			0	34896	0	0	0	25802	24380	155183	27216	1025757	43293	109549	0	0	8112	682685	0	0
2024-07-04 03:41:32			0	34875	0	0	0	25797	24370	155203	27215	1025748	43304	109547	0	0	8111	683675	0	0
2024-07-04 03:42:32			0	34899	0	0	0	25784	24380	155135	26937	1025730	43316	109542	0	0	8113	682549	0	0
2024-07-04 03:43:32			0	34908	0	0	0	25786	24360	155107	27013	1025731	43303	109543	0	0	8113	682218	0	0
2024-07-04 03:44:32			0	34905	0	0	0	25776	24370	155151	27071	1025686	43314	109539	0	0	8113	682316	0	0
2024-07-04 03:45:32			0	34944	0	0	0	25774	24370	155051	27374	1025660	43314	109538	0	0	8115	680552	0	0
2024-07-04 03:46:32			0	34925	0	0	0	25771	24360	155023	27220	1025669	43303	109537	0	0	8114	681449	0	0
2024-07-04 03:47:32			0	34941	0	0	0	25766	24350	154947	27100	1025607	43324	109535	0	0	8115	680764	0	0
2024-07-04 03:48:32			0	34953	0	0	0	25755	24350	155027	27322	1025580	43313	109531	0	0	8116	680222	0	0
2024-07-04 03:49:32			0	34942	0	0	0	25758	24340	154879	26889	1025536	43312	109532	0	0	8115	680758	0	0
2024-07-04 03:50:32			0	34940	0	0	0	25753	24350	154803	27268	1025660	43313	109530	0	0	8115	680810	0	0
2024-07-04 03:51:32			0	34959	0	0	0	25755	24350	154887	27156	1025625	43323	109531	0	0	8116	679951	0	0
2024-07-04 03:52:32			0	34951	0	0	0	25768	24350	154879	27267	1025652	43312	109536	0	0	8115	680313	0	0
2024-07-04 03:53:32			0	34979	0	0	0	25781	24350	154807	27535	1025740	43335	109541	0	0	8117	679049	0	0
2024-07-04 03:54:32			0	34985	0	0	0	25786	24360	154723	27308	1025678	43314	109543	0	0	8117	678740	0	0
2024-07-04 03:55:32			0	34975	0	0	0	25784	24360	154775	27105	1025776	43314	109542	0	0	8117	679191	0	0
2024-07-04 03:56:32			0	34982	0	0	0	25792	24360	154703	27144	1025749	43314	109545	0	0	8117	678875	0	0
2024-07-04 03:57:32			0	35002	0	0	0	25789	24360	154683	27156	1025776	43314	109544	0	0	8118	677974	0	0
2024-07-04 03:58:32			0	35000	0	0	0	25797	24370	154631	27350	1025686	43314	109547	0	0	8118	678026	0	0
2024-07-04 03:59:32			0	35003	0	0	0	25797	24360	154659	27177	1025758	43303	109547	0	0	8118	677929	0	0
2024-07-04 04:00:32			0	35023	0	0	0	25792	24370	154551	27119	1025686	43325	109545	0	0	8119	676990	0	0
2024-07-04 04:01:32			0	35011	0	0	0	25789	24360	154655	27244	1025704	43314	109544	0	0	8118	677568	0	0
2024-07-04 04:02:32			0	35042	0	0	0	25781	24370	154627	27235	1025695	43315	109541	0	0	8120	676135	0	0
2024-07-04 04:03:32			0	35042	0	0	0	25763	24360	154523	27137	1025624	43291	109534	0	0	8121	676174	0	0
2024-07-04 04:04:32			0	35062	0	0	0	25748	24350	154459	27163	1025500	43313	109528	0	0	8122	675313	0	0
2024-07-04 04:05:32			0	35064	0	0	0	25732	24340	154315	27220	1025536	43301	109522	0	0	8122	675261	0	0
2024-07-04 04:06:32			0	35079	0	0	0	25709	24340	154391	27345	1025474	43279	109513	0	0	8123	674588	0	0
2024-07-04 04:07:32			0	35090	0	0	0	25693	24330	154403	27161	1025350	43299	109507	0	0	8124	674132	0	0
2024-07-04 04:08:32			0	35082	0	0	0	25670	24320	154351	27055	1025314	43299	109498	0	0	8124	674529	0	0
2024-07-04 04:09:32			0	35096	0	0	0	25672	24320	154399	27074	1025305	43289	109499	0	0	8125	673901	0	0
2024-07-04 04:10:32			0	35090	0	0	0	25670	24300	154299	27505	1025306	43275	109498	0	0	8124	674247	0	0
2024-07-04 04:11:32			0	35102	0	0	0	25664	24290	154347	27422	1025324	43296	109496	0	0	8125	673746	0	0
2024-07-04 04:12:32			0	35108	0	0	0	25651	24290	154287	27086	1025235	43296	109491	0	0	8126	673477	0	0
2024-07-04 04:13:32			0	35132	0	0	0	25654	24270	154244	27412	1025227	43306	109492	0	0	8127	672478	0	0
2024-07-04 04:14:32			0	35118	0	0	0	25651	24260	154188	27256	1025183	43304	109491	0	0	8126	673143	0	0
2024-07-04 04:15:32			0	35116	0	0	0	25649	24270	154283	27114	1025200	43294	109490	0	0	8126	673195	0	0
2024-07-04 04:16:32			0	35119	0	0	0	25657	24260	154248	27417	1025191	43305	109493	0	0	8126	673098	0	0
2024-07-04 04:17:32			0	35137	0	0	0	25649	24270	154284	27142	1025227	43306	109490	0	0	8127	672254	0	0
2024-07-04 04:18:32			0	35146	0	0	0	25664	24260	154244	27095	1025272	43305	109496	0	0	8127	671889	0	0
2024-07-04 04:19:32			0	35091	0	0	0	25677	24280	154239	27339	1025280	43318	109501	0	0	8124	674278	0	0
2024-07-04 04:20:32			0	35127	0	0	0	25680	24270	154212	27140	1025361	43284	109502	0	0	8126	672702	0	0
2024-07-04 04:21:32			0	35121	0	0	0	25696	24270	154280	27319	1025334	43306	109508	0	0	8126	672971	0	0
2024-07-04 04:22:32			0	35124	0	0	0	25703	24280	154272	26752	1025360	43306	109511	0	0	8126	672798	0	0
2024-07-04 04:23:32			0	35140	0	0	0	25703	24280	154240	27026	1025387	43306	109511	0	0	8127	672082	0	0
2024-07-04 04:24:32			0	35119	0	0	0	25706	24290	154272	27059	1025395	43319	109512	0	0	8125	672984	0	0
2024-07-04 04:25:32			0	35114	0	0	0	25709	24290	154236	27144	1025395	43307	109513	0	0	8125	673209	0	0
2024-07-04 04:26:32			0	35140	0	0	0	25714	24290	154156	27222	1025368	43319	109515	0	0	8126	672044	0	0
2024-07-04 04:27:32			0	35136	0	0	0	25706	24290	154248	27053	1025342	43296	109512	0	0	8126	672223	0	0
2024-07-04 04:28:32			0	35119	0	0	0	25698	24290	154324	27135	1025262	43296	109509	0	0	8126	672984	0	0
2024-07-04 04:29:32			0	35127	0	0	0	25677	24260	154176	26930	1025236	43292	109501	0	0	8126	672740	0	0
2024-07-04 04:30:32			0	35126	0	0	0	25654	24280	154240	27105	1025217	43284	109492	0	0	8127	672709	0	0
2024-07-04 04:31:32			0	35132	0	0	0	25659	24260	154076	27234	1025183	43282	109494	0	0	8127	672516	0	0
2024-07-04 04:32:32			0	35140	0	0	0	25641	24260	154072	27326	1025183	43282	109487	0	0	8127	672158	0	0
2024-07-04 04:33:32			0	35138	0	0	0	25646	24240	154136	27218	1025184	43291	109489	0	0	8127	672323	0	0
2024-07-04 04:34:32			0	35143	0	0	0	25636	24250	154228	27308	1025112	43292	109485	0	0	8128	672061	0	0
2024-07-04 04:35:32			0	35142	0	0	0	25638	24250	154172	27261	1025139	43315	109486	0	0	8128	672106	0	0
2024-07-04 04:36:32			0	35131	0	0	0	25631	24240	154172	27111	1025157	43303	109483	0	0	8127	672637	0	0
2024-07-04 04:37:32			0	35155	0	0	0	25620	24240	154116	27261	1025077	43303	109479	0	0	8129	671562	0	0
2024-07-04 04:38:32			0	35154	0	0	0	25610	24230	154124	27020	1025104	43291	109475	0	0	8129	671645	0	0
2024-07-04 04:39:32			0	35149	0	0	0	25607	24220	154192	27119	1025042	43291	109474	0	0	8128	671907	0	0
2024-07-04 04:40:32			0	35151	0	0	0	25605	24230	154212	27124	1025024	43291	109473	0	0	8129	671779	0	0
2024-07-04 04:41:32			0	35150	0	0	0	25599	24220	154072	26906	1024980	43290	109471	0	0	8129	671862	0	0
2024-07-04 04:42:32			0	35143	0	0	0	25592	24210	154096	27223	1024909	43277	109468	0	0	8128	672213	0	0
2024-07-04 04:43:32			0	35147	0	0	0	25592	24200	154100	27270	1024954	43289	109468	0	0	8128	672072	0	0
2024-07-04 04:44:32			0	35148	0	0	0	25584	24200	154128	27166	1024900	43299	109465	0	0	8129	672027	0	0
2024-07-04 04:45:32			0	35151	0	0	0	25584	24190	154048	26972	1024883	43275	109465	0	0	8129	671931	0	0
2024-07-04 04:46:32			0	35145	0	0	0	25594	24200	154080	26651	1024972	43288	109469	0	0	8128	672162	0	0
2024-07-04 04:47:32			0	35151	0	0	0	25602	24190	154124	27095	1024963	43297	109472	0	0	8128	671931	0	0
2024-07-04 04:48:32			0	35149	0	0	0	25623	24190	154196	26791	1024990	43297	109480	0	0	8128	672021	0	0
2024-07-04 04:49:32			0	35133	0	0	0	25644	24210	154112	27149	1025096	43299	109488	0	0	8127	672661	0	0
2024-07-04 04:50:32			0	35151	0	0	0	25651	24210	154216	26889	1025096	43310	109491	0	0	8128	671855	0	0
2024-07-04 04:51:32			0	35139	0	0	0	25651	24220	154240	26941	1025149	43323	109491	0	0	8127	672354	0	0
2024-07-04 04:52:32			0	35131	0	0	0	25664	24220	154132	27229	1025114	43290	109496	0	0	8126	672713	0	0
2024-07-04 04:53:32			0	35158	0	0	0	25677	24230	154212	27112	1025158	43301	109501	0	0	8128	671466	0	0
2024-07-04 04:54:32			0	35156	0	0	0	25683	24220	154224	26793	1025202	43312	109503	0	0	8127	671594	0	0
2024-07-04 04:55:32			0	35148	0	0	0	25690	24240	154236	27045	1025237	43303	109506	0	0	8127	671876	0	0
2024-07-04 04:56:32			0	35149	0	0	0	25685	24240	154116	27131	1025130	43281	109504	0	0	8127	671831	0	0
2024-07-04 04:57:32			0	35161	0	0	0	25680	24240	154108	26923	1025148	43302	109502	0	0	8128	671294	0	0
2024-07-04 04:58:32			0	35156	0	0	0	25651	24230	154092	26823	1025131	43291	109491	0	0	8128	671556	0	0
2024-07-04 04:59:32			0	35175	0	0	0	25631	24210	154064	27059	1024963	43299	109483	0	0	8129	670782	0	0
2024-07-04 05:00:32			0	35159	0	0	0	25618	24220	154124	26729	1024926	43290	109478	0	0	8129	671459	0	0
2024-07-04 05:01:32			0	35180	0	0	0	25605	24210	154044	27013	1024864	43289	109473	0	0	8130	670558	0	0
2024-07-04 05:02:32			0	35194	0	0	0	25589	24200	154048	27034	1024865	43298	109467	0	0	8131	669970	0	0
2024-07-04 05:03:32			0	35185	0	0	0	25581	24190	154028	27093	1024830	43275	109464	0	0	8131	670410	0	0
2024-07-04 05:04:32			0	35200	0	0	0	25576	24190	153940	26828	1024848	43287	109462	0	0	8132	669740	0	0
2024-07-04 05:05:32			0	35208	0	0	0	25568	24180	154056	27197	1024785	43275	109459	0	0	8132	669421	0	0
2024-07-04 05:06:32			0	35192	0	0	0	25566	24180	154012	26847	1024812	43297	109458	0	0	8131	670135	0	0
2024-07-04 05:07:32			0	35189	0	0	0	25563	24170	153944	26729	1024795	43285	109457	0	0	8131	670307	0	0
2024-07-04 05:08:32			0	35200	0	0	0	25542	24170	153904	27237	1024741	43295	109449	0	0	8132	669816	0	0
2024-07-04 05:09:32			0	35205	0	0	0	25537	24160	154044	27029	1024697	43284	109447	0	0	8132	669630	0	0
2024-07-04 05:10:32			0	35213	0	0	0	25535	24160	153912	27086	1024724	43273	109446	0	0	8133	669273	0	0
2024-07-04 05:11:32			0	35202	0	0	0	25540	24160	153928	27192	1024689	43284	109448	0	0	8132	669764	0	0
2024-07-04 05:12:32			0	35203	0	0	0	25532	24140	153964	26972	1024636	43292	109445	0	0	8132	669795	0	0
2024-07-04 05:13:32			0	35201	0	0	0	25542	24140	153988	27090	1024582	43282	109449	0	0	8132	669885	0	0
2024-07-04 05:14:32			0	35206	0	0	0	25535	24150	154020	27270	1024751	43283	109446	0	0	8132	669624	0	0
2024-07-04 05:15:32			0	35212	0	0	0	25540	24150	154040	26915	1024671	43272	109448	0	0	8133	669356	0	0
2024-07-04 05:16:32			0	35207	0	0	0	25529	24150	153960	27074	1024698	43293	109444	0	0	8132	669579	0	0
2024-07-04 05:17:32			0	35200	0	0	0	25535	24140	153952	27268	1024654	43292	109446	0	0	8132	669929	0	0
2024-07-04 05:18:32			0	35190	0	0	0	25527	24140	154072	27381	1024663	43282	109443	0	0	8132	670376	0	0
2024-07-04 05:19:32			0	35198	0	0	0	25527	24140	154044	27118	1024654	43282	109443	0	0	8132	670019	0	0
2024-07-04 05:20:32			0	35197	0	0	0	25529	24130	154052	26913	1024592	43291	109444	0	0	8132	670101	0	0
2024-07-04 05:21:32			0	35187	0	0	0	25532	24140	154012	27114	1024654	43282	109445	0	0	8131	670510	0	0
2024-07-04 05:22:32			0	35206	0	0	0	25527	24130	154104	26968	1024672	43303	109443	0	0	8132	669699	0	0
2024-07-04 05:23:32			0	35176	0	0	0	25540	24130	154016	27260	1024645	43281	109448	0	0	8131	671040	0	0
2024-07-04 05:24:32			0	35180	0	0	0	25537	24130	154064	27131	1024645	43281	109447	0	0	8131	670861	0	0
2024-07-04 05:25:32			0	35174	0	0	0	25537	24130	154160	27433	1024645	43270	109447	0	0	8130	671129	0	0
2024-07-04 05:26:32			0	35166	0	0	0	25542	24130	154136	27126	1024619	43270	109449	0	0	8130	671487	0	0
2024-07-04 05:27:32			0	35190	0	0	0	25535	24120	154096	27270	1024601	43280	109446	0	0	8131	670452	0	0
2024-07-04 05:28:32			0	35170	0	0	0	25527	24130	154196	27326	1024619	43303	109443	0	0	8130	671308	0	0
2024-07-04 05:29:32			0	35163	0	0	0	25535	24130	154252	27180	1024637	43280	109446	0	0	8130	671621	0	0
2024-07-04 05:30:32			0	35163	0	0	0	25550	24140	154144	27445	1024681	43282	109452	0	0	8130	671584	0	0
2024-07-04 05:31:32			0	35160	0	0	0	25558	24140	154264	27324	1024689	43282	109455	0	0	8129	671718	0	0
2024-07-04 05:32:32			0	35165	0	0	0	25550	24130	154272	27426	1024610	43302	109452	0	0	8130	671532	0	0
2024-07-04 05:33:32			0	35154	0	0	0	25558	24130	154340	27168	1024672	43291	109455	0	0	8129	672024	0	0
2024-07-04 05:34:32			0	35160	0	0	0	25550	24130	154252	27289	1024637	43280	109452	0	0	8130	671756	0	0
2024-07-04 05:35:32			0	35166	0	0	0	25548	24130	154396	27204	1024663	43291	109451	0	0	8130	671487	0	0
2024-07-04 05:36:32			0	35167	0	0	0	25558	24130	154280	27095	1024663	43280	109455	0	0	8130	671442	0	0
2024-07-04 05:37:32			0	35143	0	0	0	25563	24130	154416	26972	1024672	43291	109457	0	0	8128	672517	0	0
2024-07-04 05:38:32			0	35150	0	0	0	25571	24140	154324	27371	1024689	43292	109460	0	0	8129	672165	0	0
2024-07-04 05:39:32			0	35152	0	0	0	25566	24150	154312	27036	1024698	43293	109458	0	0	8129	672038	0	0
2024-07-04 05:40:32			0	35158	0	0	0	25573	24140	154296	27079	1024716	43282	109461	0	0	8129	671807	0	0
2024-07-04 05:41:32			0	35154	0	0	0	25568	24140	154308	27251	1024689	43292	109459	0	0	8129	671986	0	0
2024-07-04 05:42:32			0	35141	0	0	0	25558	24140	154300	27208	1024770	43292	109455	0	0	8128	672569	0	0
2024-07-04 05:43:32			0	35142	0	0	0	25558	24140	154220	27124	1024689	43282	109455	0	0	8128	672524	0	0
2024-07-04 05:44:32			0	35149	0	0	0	25576	24140	154288	27045	1024734	43292	109462	0	0	8129	672210	0	0
2024-07-04 05:45:32			0	35138	0	0	0	25605	24150	154324	27076	1024787	43316	109473	0	0	8127	672665	0	0
2024-07-04 05:46:32			0	35137	0	0	0	25628	24160	154328	27156	1024938	43317	109482	0	0	8127	672672	0	0
2024-07-04 05:47:32			0	35132	0	0	0	25644	24170	154412	27022	1024982	43318	109488	0	0	8127	672858	0	0
2024-07-04 05:48:32			0	35131	0	0	0	25664	24200	154364	27196	1025079	43309	109496	0	0	8126	672789	0	0
2024-07-04 05:49:32			0	35123	0	0	0	25672	24190	154268	27147	1025017	43287	109499	0	0	8126	673185	0	0
2024-07-04 05:50:32			0	35122	0	0	0	25680	24200	154352	26870	1025114	43289	109502	0	0	8126	673192	0	0
2024-07-04 05:51:32			0	35120	0	0	0	25690	24200	154388	27007	1025025	43298	109506	0	0	8125	673282	0	0
2024-07-04 05:52:32			0	35123	0	0	0	25680	24210	154296	27332	1024998	43299	109502	0	0	8126	673109	0	0
2024-07-04 05:53:32			0	35110	0	0	0	25654	24210	154472	27098	1025043	43277	109492	0	0	8125	673692	0	0
2024-07-04 05:54:32			0	35123	0	0	0	25638	24200	154312	26935	1024972	43276	109486	0	0	8126	673147	0	0
2024-07-04 05:55:32			0	35118	0	0	0	25631	24190	154496	27235	1024963	43297	109483	0	0	8126	673409	0	0
2024-07-04 05:56:32			0	35114	0	0	0	25628	24200	154464	26994	1024927	43289	109482	0	0	8126	673551	0	0
2024-07-04 05:57:32			0	35090	0	0	0	25628	24190	154507	27093	1024883	43287	109482	0	0	8125	674665	0	0
2024-07-04 05:58:32			0	35093	0	0	0	25597	24180	154567	26948	1024723	43286	109470	0	0	8125	674569	0	0
2024-07-04 05:59:32			0	35073	0	0	0	25573	24170	154663	27310	1024733	43306	109461	0	0	8125	675505	0	0
2024-07-04 06:00:32			0	35070	0	0	0	25566	24170	154667	27284	1024733	43295	109458	0	0	8125	675640	0	0
2024-07-04 06:01:32			0	35041	0	0	0	25563	24170	154683	27092	1024759	43274	109457	0	0	8123	676945	0	0
2024-07-04 06:02:32			0	35021	0	0	0	25558	24160	154691	27315	1024751	43284	109455	0	0	8122	677883	0	0
2024-07-04 06:03:32			0	34995	0	0	0	25548	24160	154923	27312	1024689	43284	109451	0	0	8121	679056	0	0
2024-07-04 06:04:32			0	34977	0	0	0	25550	24150	155027	27019	1024733	43283	109452	0	0	8120	679906	0	0
2024-07-04 06:05:32			0	34948	0	0	0	25561	24160	155147	27069	1024777	43294	109456	0	0	8118	681179	0	0
2024-07-04 06:06:32			0	34930	0	0	0	25563	24160	155267	27118	1024742	43294	109457	0	0	8117	681993	0	0
2024-07-04 06:07:32			0	34909	0	0	0	25576	24160	155243	26831	1024769	43294	109462	0	0	8116	682944	0	0
2024-07-04 06:08:32			0	34882	0	0	0	25592	24160	155491	27324	1024804	43306	109468	0	0	8114	684168	0	0
2024-07-04 06:09:32			0	34865	0	0	0	25581	24170	155459	27402	1024848	43306	109464	0	0	8113	684901	0	0
2024-07-04 06:10:32			0	34845	0	0	0	25573	24160	155623	27072	1024724	43306	109461	0	0	8112	685849	0	0
2024-07-04 06:11:32			0	34821	0	0	0	25561	24160	155707	27305	1024715	43294	109456	0	0	8111	686940	0	0
2024-07-04 06:12:32			0	34814	0	0	0	25555	24160	155783	27374	1024689	43306	109454	0	0	8111	687259	0	0
2024-07-04 06:13:32			0	34807	0	0	0	25550	24150	155891	27237	1024680	43283	109452	0	0	8110	687616	0	0
2024-07-04 06:14:32			0	34771	0	0	0	25550	24150	155935	27227	1024671	43293	109452	0	0	8108	689257	0	0
2024-07-04 06:15:32			0	34741	0	0	0	25548	24150	156179	27064	1024698	43283	109451	0	0	8107	690627	0	0
2024-07-04 06:16:32			0	34727	0	0	0	25545	24140	156135	26944	1024707	43292	109450	0	0	8106	691306	0	0
2024-07-04 06:17:32			0	34703	0	0	0	25558	24140	156227	27057	1024716	43292	109455	0	0	8104	692405	0	0
2024-07-04 06:18:32			0	34680	0	0	0	25566	24150	156351	27138	1024751	43305	109458	0	0	8103	693419	0	0
2024-07-04 06:19:32			0	34652	0	0	0	25581	24140	156519	27124	1024823	43292	109464	0	0	8101	694743	0	0
2024-07-04 06:20:32			0	34625	0	0	0	25592	24160	156495	27289	1024831	43317	109468	0	0	8100	695904	0	0
2024-07-04 06:21:32			0	34628	0	0	0	25592	24160	156671	27246	1024858	43294	109468	0	0	8100	695767	0	0
2024-07-04 06:22:32			0	34613	0	0	0	25607	24160	156659	26967	1024858	43306	109474	0	0	8099	696456	0	0
2024-07-04 06:23:32			0	34589	0	0	0	25612	24160	156823	27041	1024822	43294	109476	0	0	8097	697561	0	0
2024-07-04 06:24:32			0	34579	0	0	0	25610	24170	156795	27029	1024920	43295	109475	0	0	8097	697982	0	0
2024-07-04 06:25:32			0	34547	0	0	0	25610	24170	156951	27338	1024920	43295	109475	0	0	8095	699457	0	0
2024-07-04 06:26:32			0	34532	0	0	0	25607	24180	156991	27185	1024857	43296	109474	0	0	8094	700110	0	0
2024-07-04 06:27:32			0	34520	0	0	0	25605	24160	157087	27197	1024831	43306	109473	0	0	8094	700743	0	0
2024-07-04 06:28:32			0	34512	0	0	0	25602	24160	157147	27149	1024884	43294	109472	0	0	8093	701113	0	0
2024-07-04 06:29:32			0	34491	0	0	0	25597	24170	157287	27241	1024866	43285	109470	0	0	8092	702045	0	0
2024-07-04 06:30:32			0	34486	0	0	0	25592	24170	157163	27326	1024821	43306	109468	0	0	8092	702276	0	0
2024-07-04 06:31:32			0	34486	0	0	0	25592	24170	157303	27261	1024795	43295	109468	0	0	8092	702276	0	0
2024-07-04 06:32:32			0	34453	0	0	0	25594	24170	157271	26911	1024741	43295	109469	0	0	8090	703805	0	0
2024-07-04 06:33:32			0	34460	0	0	0	25584	24160	157295	27093	1024795	43284	109465	0	0	8091	703520	0	0
2024-07-04 06:34:32			0	34452	0	0	0	25589	24170	157327	27079	1024813	43285	109467	0	0	8090	703851	0	0
2024-07-04 06:35:32			0	34438	0	0	0	25576	24150	157355	27317	1024787	43283	109462	0	0	8090	704580	0	0
2024-07-04 06:36:32			0	34429	0	0	0	25563	24160	157379	26951	1024769	43294	109457	0	0	8089	704958	0	0
2024-07-04 06:37:32			0	34418	0	0	0	25573	24160	157375	27400	1024742	43294	109461	0	0	8089	705469	0	0
2024-07-04 06:38:32			0	34420	0	0	0	25573	24160	157487	27367	1024795	43306	109461	0	0	8089	705376	0	0
2024-07-04 06:39:32			0	34413	0	0	0	25576	24150	157439	27052	1024787	43316	109462	0	0	8088	705741	0	0
2024-07-04 06:40:32			0	34418	0	0	0	25579	24150	157523	27183	1024787	43293	109463	0	0	8088	705509	0	0
2024-07-04 06:41:32			0	34406	0	0	0	25581	24160	157539	27053	1024777	43306	109464	0	0	8088	706026	0	0
2024-07-04 06:42:32			0	34406	0	0	0	25581	24160	157607	26878	1024804	43294	109464	0	0	8088	706026	0	0
2024-07-04 06:43:32			0	34378	0	0	0	25592	24160	157595	27256	1024849	43306	109468	0	0	8086	707329	0	0
2024-07-04 06:44:32			0	34400	0	0	0	25584	24160	157539	26965	1024831	43294	109465	0	0	8087	706305	0	0
2024-07-04 06:45:32			0	34380	0	0	0	25584	24160	157595	27313	1024858	43294	109465	0	0	8086	707235	0	0
2024-07-04 06:46:32			0	34378	0	0	0	25573	24160	157563	27131	1024858	43294	109461	0	0	8086	707329	0	0
2024-07-04 06:47:32			0	34370	0	0	0	25576	24170	157675	26927	1024840	43295	109462	0	0	8086	707661	0	0
2024-07-04 06:48:32			0	34358	0	0	0	25571	24160	157683	27133	1024804	43294	109460	0	0	8085	708260	0	0
2024-07-04 06:49:32			0	34379	0	0	0	25579	24160	157667	27144	1024777	43294	109463	0	0	8086	707282	0	0
2024-07-04 06:50:32			0	34357	0	0	0	25579	24170	157687	26883	1024840	43295	109463	0	0	8085	708267	0	0
2024-07-04 06:51:32			0	34353	0	0	0	25579	24160	157719	26963	1024804	43284	109463	0	0	8085	708493	0	0
2024-07-04 06:52:32			0	34340	0	0	0	25563	24160	157642	27383	1024742	43284	109457	0	0	8084	709099	0	0
2024-07-04 06:53:32			0	34336	0	0	0	25558	24150	157798	26937	1024680	43283	109455	0	0	8084	709326	0	0
2024-07-04 06:54:32			0	34337	0	0	0	25550	24160	157798	27479	1024715	43284	109452	0	0	8084	709239	0	0
2024-07-04 06:55:32			0	34315	0	0	0	25558	24150	157858	27003	1024707	43293	109455	0	0	8083	710306	0	0
2024-07-04 06:56:32			0	34328	0	0	0	25545	24150	157854	27305	1024751	43293	109450	0	0	8084	709699	0	0
2024-07-04 06:57:32			0	34323	0	0	0	25553	24140	157934	27229	1024689	43282	109453	0	0	8084	709972	0	0
2024-07-04 06:58:32			0	34320	0	0	0	25550	24150	157922	27222	1024725	43305	109452	0	0	8083	710072	0	0
2024-07-04 06:59:32			0	34304	0	0	0	25555	24150	157942	27083	1024751	43283	109454	0	0	8083	710819	0	0
2024-07-04 07:00:32			0	34294	0	0	0	25558	24150	158042	27348	1024751	43293	109455	0	0	8082	711287	0	0
2024-07-04 07:01:32			0	34273	0	0	0	25563	24150	157954	27498	1024760	43293	109457	0	0	8081	712269	0	0
2024-07-04 07:02:32			0	34287	0	0	0	25558	24150	158114	27471	1024725	43305	109455	0	0	8082	711614	0	0
2024-07-04 07:03:32			0	34275	0	0	0	25563	24140	158082	27085	1024689	43292	109457	0	0	8081	712215	0	0
2024-07-04 07:04:32			0	34285	0	0	0	25553	24150	158146	27441	1024725	43293	109453	0	0	8081	711708	0	0
2024-07-04 07:05:32			0	34256	0	0	0	25548	24140	158214	27414	1024707	43282	109451	0	0	8080	713105	0	0
2024-07-04 07:06:32			0	34257	0	0	0	25532	24130	158206	27135	1024645	43291	109445	0	0	8080	713098	0	0
2024-07-04 07:07:32			0	34259	0	0	0	25532	24140	158242	27284	1024681	43292	109445	0	0	8080	712965	0	0
2024-07-04 07:08:32			0	34254	0	0	0	25532	24130	158186	27268	1024663	43280	109445	0	0	8080	713239	0	0
2024-07-04 07:09:32			0	34246	0	0	0	25535	24120	158210	27119	1024601	43291	109446	0	0	8079	713654	0	0
2024-07-04 07:10:32			0	34232	0	0	0	25516	24110	158298	27279	1024557	43279	109439	0	0	8079	714351	0	0
2024-07-04 07:11:32			0	34245	0	0	0	25511	24120	158374	27171	1024539	43280	109437	0	0	8080	713701	0	0
2024-07-04 07:12:32			0	34219	0	0	0	25501	24120	158330	27183	1024521	43280	109433	0	0	8079	714920	0	0
2024-07-04 07:13:32			0	34229	0	0	0	25490	24110	158298	27274	1024504	43279	109429	0	0	8079	714491	0	0
2024-07-04 07:14:32			0	34231	0	0	0	25475	24110	158358	27131	1024442	43290	109423	0	0	8080	714398	0	0
2024-07-04 07:15:32			0	34208	0	0	0	25480	24090	158338	27046	1024389	43277	109425	0	0	8078	715558	0	0
2024-07-04 07:16:32			0	34227	0	0	0	25472	24090	158386	27095	1024416	43289	109422	0	0	8079	714666	0	0
2024-07-04 07:17:32			0	34204	0	0	0	25477	24080	158498	27093	1024479	43288	109424	0	0	8078	715786	0	0
2024-07-04 07:18:32			0	34232	0	0	0	25475	24090	158314	27003	1024416	43289	109423	0	0	8080	714431	0	0
2024-07-04 07:19:32			0	34210	0	0	0	25485	24080	158446	27301	1024372	43276	109427	0	0	8078	715504	0	0
2024-07-04 07:20:32			0	34238	0	0	0	25490	24080	158410	26987	1024443	43287	109429	0	0	8080	714190	0	0
2024-07-04 07:21:32			0	34221	0	0	0	25493	24080	158474	26994	1024390	43287	109430	0	0	8079	714988	0	0
2024-07-04 07:22:32			0	34211	0	0	0	25488	24080	158502	27244	1024443	43297	109428	0	0	8078	715457	0	0
2024-07-04 07:23:32			0	34217	0	0	0	25501	24090	158434	27320	1024434	43298	109433	0	0	8078	715135	0	0
2024-07-04 07:24:32			0	34220	0	0	0	25493	24080	158426	27324	1024497	43287	109430	0	0	8079	715035	0	0
2024-07-04 07:25:32			0	34223	0	0	0	25506	24090	158466	27176	1024434	43298	109435	0	0	8079	714854	0	0
2024-07-04 07:26:32			0	34233	0	0	0	25506	24080	158510	27190	1024479	43298	109435	0	0	8079	714425	0	0
2024-07-04 07:27:32			0	34236	0	0	0	25498	24090	158446	27203	1024469	43299	109432	0	0	8079	714244	0	0
2024-07-04 07:28:32			0	34229	0	0	0	25498	24080	158410	26994	1024479	43288	109432	0	0	8079	714612	0	0
2024-07-04 07:29:32			0	34229	0	0	0	25493	24080	158390	27053	1024479	43288	109430	0	0	8079	714612	0	0
2024-07-04 07:30:32			0	34237	0	0	0	25496	24080	158350	27185	1024416	43275	109431	0	0	8079	714237	0	0
2024-07-04 07:31:32			0	34233	0	0	0	25493	24080	158378	26972	1024470	43275	109430	0	0	8079	714425	0	0
2024-07-04 07:32:32			0	34253	0	0	0	25493	24080	158438	27216	1024452	43288	109430	0	0	8080	713487	0	0
2024-07-04 07:33:32			0	34247	0	0	0	25490	24080	158434	27001	1024443	43287	109429	0	0	8080	713768	0	0
2024-07-04 07:34:32			0	34236	0	0	0	25485	24080	158370	27088	1024505	43276	109427	0	0	8080	714284	0	0
2024-07-04 07:35:32			0	34260	0	0	0	25488	24080	158266	26994	1024425	43288	109428	0	0	8081	713159	0	0
2024-07-04 07:36:32			0	34260	0	0	0	25485	24070	158290	26987	1024381	43287	109427	0	0	8081	713199	0	0
2024-07-04 07:37:32			0	34269	0	0	0	25472	24080	158314	27142	1024390	43275	109422	0	0	8082	712737	0	0
2024-07-04 07:38:32			0	34267	0	0	0	25467	24080	158242	27053	1024336	43287	109420	0	0	8082	712831	0	0
2024-07-04 07:39:32			0	34273	0	0	0	25472	24070	158238	27123	1024319	43275	109422	0	0	8082	712590	0	0
2024-07-04 07:40:32			0	34269	0	0	0	25467	24070	158286	27261	1024319	43263	109420	0	0	8082	712778	0	0
2024-07-04 07:41:32			0	34259	0	0	0	25467	24040	158150	27197	1024275	43284	109420	0	0	8081	713367	0	0
2024-07-04 07:42:32			0	34264	0	0	0	25467	24070	158254	27251	1024381	43287	109420	0	0	8081	713012	0	0
2024-07-04 07:43:32			0	34298	0	0	0	25464	24060	158210	27396	1024390	43286	109419	0	0	8083	711461	0	0
2024-07-04 07:44:32			0	34297	0	0	0	25467	24060	158286	27280	1024328	43285	109420	0	0	8083	711508	0	0
2024-07-04 07:45:32			0	34294	0	0	0	25472	24060	158166	27414	1024364	43275	109422	0	0	8083	711648	0	0
2024-07-04 07:46:32			0	34293	0	0	0	25464	24060	158206	27119	1024364	43286	109419	0	0	8083	711695	0	0
2024-07-04 07:47:32			0	34294	0	0	0	25470	24050	158150	26928	1024257	43284	109421	0	0	8083	711688	0	0
2024-07-04 07:48:32			0	34297	0	0	0	25457	24050	158162	27357	1024293	43284	109416	0	0	8083	711548	0	0
2024-07-04 07:49:32			0	34309	0	0	0	25457	24030	158062	27379	1024293	43283	109416	0	0	8084	711067	0	0
2024-07-04 07:50:32			0	34311	0	0	0	25451	24050	158110	27182	1024284	43273	109414	0	0	8084	710893	0	0
2024-07-04 07:51:32			0	34311	0	0	0	25457	24030	158142	27234	1024240	43283	109416	0	0	8084	710973	0	0
2024-07-04 07:52:32			0	34301	0	0	0	25457	24030	158034	27168	1024347	43283	109416	0	0	8083	711441	0	0
2024-07-04 07:53:32			0	34302	0	0	0	25457	24030	158110	27419	1024240	43272	109416	0	0	8084	711394	0	0
2024-07-04 07:54:32			0	34308	0	0	0	25459	24040	158086	27237	1024249	43294	109417	0	0	8084	711074	0	0
2024-07-04 07:55:32			0	34314	0	0	0	25451	24040	158094	27390	1024275	43284	109414	0	0	8084	710793	0	0
2024-07-04 07:56:32			0	34318	0	0	0	25464	24040	157998	27308	1024275	43294	109419	0	0	8084	710606	0	0
2024-07-04 07:57:32			0	34326	0	0	0	25472	24040	157986	27263	1024275	43273	109422	0	0	8085	710233	0	0
2024-07-04 07:58:32			0	34319	0	0	0	25467	24050	157986	27395	1024311	43284	109420	0	0	8084	710520	0	0
2024-07-04 07:59:32			0	34338	0	0	0	25472	24040	157966	27124	1024329	43284	109422	0	0	8085	709672	0	0
2024-07-04 08:00:32			0	34319	0	0	0	25475	24040	157930	27189	1024275	43273	109423	0	0	8084	710560	0	0
2024-07-04 08:01:32			0	34318	0	0	0	25464	24050	157962	27199	1024284	43273	109419	0	0	8084	710566	0	0
2024-07-04 08:02:32			0	34327	0	0	0	25470	24040	158018	27261	1024275	43273	109421	0	0	8085	710186	0	0
2024-07-04 08:03:32			0	34328	0	0	0	25464	24050	158018	26920	1024257	43284	109419	0	0	8085	710099	0	0
2024-07-04 08:04:32			0	34344	0	0	0	25475	24030	158006	26901	1024267	43293	109423	0	0	8086	709432	0	0
2024-07-04 08:05:32			0	34327	0	0	0	25470	24040	157962	27199	1024302	43284	109421	0	0	8085	710186	0	0
2024-07-04 08:06:32			0	34346	0	0	0	25464	24030	157962	27436	1024267	43272	109419	0	0	8086	709339	0	0
2024-07-04 08:07:32			0	34338	0	0	0	25457	24030	158042	27088	1024267	43283	109416	0	0	8086	709712	0	0
2024-07-04 08:08:32			0	34336	0	0	0	25454	24040	157918	26660	1024329	43261	109415	0	0	8085	709766	0	0
2024-07-04 08:09:32			0	34335	0	0	0	25459	24040	157978	27055	1024329	43261	109417	0	0	8085	709812	0	0
2024-07-04 08:10:32			0	34328	0	0	0	25459	24030	157958	26871	1024267	43283	109417	0	0	8085	710179	0	0
2024-07-04 08:11:32			0	34350	0	0	0	25454	24030	157991	27093	1024293	43283	109415	0	0	8086	709153	0	0
2024-07-04 08:12:32			0	34329	0	0	0	25467	24040	157982	27043	1024249	43284	109420	0	0	8085	710093	0	0
2024-07-04 08:13:32			0	34342	0	0	0	25462	24040	157990	27156	1024302	43284	109418	0	0	8086	709486	0	0
2024-07-04 08:14:32			0	34330	0	0	0	25457	24030	158026	27332	1024258	43292	109416	0	0	8085	710086	0	0
2024-07-04 08:15:32			0	34353	0	0	0	25457	24030	158027	26942	1024240	43293	109416	0	0	8086	709013	0	0
2024-07-04 08:16:32			0	34346	0	0	0	25449	24030	157835	26908	1024213	43272	109413	0	0	8086	709339	0	0
2024-07-04 08:17:32			0	34333	0	0	0	25449	24030	157926	27031	1024151	43282	109413	0	0	8085	709946	0	0
2024-07-04 08:18:32			0	34353	0	0	0	25449	24030	157935	27196	1024267	43283	109413	0	0	8086	709013	0	0
2024-07-04 08:19:32			0	34346	0	0	0	25449	24030	157907	26986	1024293	43272	109413	0	0	8086	709339	0	0
2024-07-04 08:20:32			0	34348	0	0	0	25459	24030	157975	27150	1024293	43305	109417	0	0	8086	709246	0	0
2024-07-04 08:21:32			0	34350	0	0	0	25459	24040	158027	27268	1024249	43273	109417	0	0	8086	709113	0	0
2024-07-04 08:22:32			0	34341	0	0	0	25462	24050	158014	27102	1024337	43284	109418	0	0	8086	709492	0	0
2024-07-04 08:23:32			0	34355	0	0	0	25467	24030	158011	27189	1024293	43283	109420	0	0	8086	708919	0	0
2024-07-04 08:24:32			0	34356	0	0	0	25462	24050	158011	27107	1024364	43284	109418	0	0	8087	708793	0	0
2024-07-04 08:25:32			0	34354	0	0	0	25467	24040	158014	27222	1024356	43294	109420	0	0	8086	708926	0	0
2024-07-04 08:26:32			0	34355	0	0	0	25464	24050	157915	27112	1024337	43273	109419	0	0	8086	708839	0	0
2024-07-04 08:27:32			0	34354	0	0	0	25459	24050	157902	27421	1024284	43284	109417	0	0	8086	708886	0	0
2024-07-04 08:28:32			0	34368	0	0	0	25467	24040	157875	27367	1024302	43284	109420	0	0	8087	708273	0	0
2024-07-04 08:29:32			0	34385	0	0	0	25459	24030	157915	27187	1024258	43282	109417	0	0	8088	707522	0	0
2024-07-04 08:30:32			0	34363	0	0	0	25467	24040	157863	27326	1024329	43273	109420	0	0	8087	708506	0	0
2024-07-04 08:31:32			0	34381	0	0	0	25477	24050	157807	27150	1024373	43273	109424	0	0	8088	707628	0	0
2024-07-04 08:32:32			0	34386	0	0	0	25464	24050	157831	27043	1024293	43284	109419	0	0	8088	707395	0	0
2024-07-04 08:33:32			0	34391	0	0	0	25472	24050	157883	27071	1024426	43273	109422	0	0	8088	707162	0	0
2024-07-04 08:34:32			0	34387	0	0	0	25472	24050	157811	27345	1024337	43294	109422	0	0	8088	707349	0	0
2024-07-04 08:35:32			0	34404	0	0	0	25472	24060	157879	27175	1024381	43295	109422	0	0	8089	706518	0	0
2024-07-04 08:36:32			0	34395	0	0	0	25472	24050	157739	27350	1024293	43273	109422	0	0	8089	706976	0	0
2024-07-04 08:37:32			0	34397	0	0	0	25470	24050	157715	27135	1024346	43284	109421	0	0	8089	706883	0	0
2024-07-04 08:38:32			0	34395	0	0	0	25470	24050	157655	27301	1024391	43284	109421	0	0	8089	706976	0	0
2024-07-04 08:39:32			0	34402	0	0	0	25467	24050	157711	27256	1024346	43273	109420	0	0	8089	706651	0	0
2024-07-04 08:40:32			0	34411	0	0	0	25472	24050	157615	27223	1024373	43294	109422	0	0	8089	706232	0	0
2024-07-04 08:41:32			0	34417	0	0	0	25470	24050	157587	27140	1024400	43294	109421	0	0	8090	705953	0	0
2024-07-04 08:42:32			0	34427	0	0	0	25475	24050	157499	26939	1024311	43284	109423	0	0	8090	705489	0	0
2024-07-04 08:43:32			0	34439	0	0	0	25472	24060	157467	26889	1024408	43285	109422	0	0	8091	704891	0	0
2024-07-04 08:44:32			0	34446	0	0	0	25477	24060	157483	27248	1024381	43274	109424	0	0	8091	704567	0	0
2024-07-04 08:45:32			0	34446	0	0	0	25480	24050	157515	27105	1024337	43284	109425	0	0	8091	704606	0	0
2024-07-04 08:46:32			0	34462	0	0	0	25480	24050	157479	27027	1024337	43273	109425	0	0	8092	703864	0	0
2024-07-04 08:47:32			0	34465	0	0	0	25483	24060	157343	26955	1024364	43275	109426	0	0	8092	703685	0	0
2024-07-04 08:48:32			0	34474	0	0	0	25488	24060	157367	27199	1024364	43275	109428	0	0	8093	703268	0	0
2024-07-04 08:49:32			0	34483	0	0	0	25488	24060	157255	27095	1024408	43285	109428	0	0	8093	702851	0	0
2024-07-04 08:50:32			0	34491	0	0	0	25485	24070	157263	27045	1024453	43275	109427	0	0	8094	702441	0	0
2024-07-04 08:51:32			0	34499	0	0	0	25488	24070	157139	27242	1024435	43287	109428	0	0	8094	702071	0	0
2024-07-04 08:52:32			0	34499	0	0	0	25496	24060	157167	27305	1024390	43275	109431	0	0	8094	702110	0	0
2024-07-04 08:53:32			0	34516	0	0	0	25485	24070	157119	27055	1024461	43297	109427	0	0	8095	701284	0	0
2024-07-04 08:54:32			0	34506	0	0	0	25493	24070	157087	27400	1024408	43287	109430	0	0	8094	701747	0	0
2024-07-04 08:55:32			0	34529	0	0	0	25498	24080	156995	27431	1024443	43287	109432	0	0	8096	700644	0	0
2024-07-04 08:56:32			0	34544	0	0	0	25485	24070	157079	27083	1024453	43286	109427	0	0	8097	699990	0	0
2024-07-04 08:57:32			0	34562	0	0	0	25493	24070	156787	26946	1024488	43287	109430	0	0	8097	699160	0	0
2024-07-04 08:58:32			0	34561	0	0	0	25498	24070	156807	27298	1024435	43287	109432	0	0	8097	699206	0	0
2024-07-04 08:59:32			0	34560	0	0	0	25490	24070	156815	27346	1024461	43287	109429	0	0	8097	699252	0	0
2024-07-04 09:00:32			0	34586	0	0	0	25485	24070	156843	27486	1024453	43296	109427	0	0	8099	698053	0	0
2024-07-04 09:01:32			0	34583	0	0	0	25496	24080	156699	27291	1024452	43288	109431	0	0	8099	698152	0	0
2024-07-04 09:02:32			0	34594	0	0	0	25485	24070	156719	27130	1024435	43264	109427	0	0	8099	697684	0	0
2024-07-04 09:03:32			0	34619	0	0	0	25483	24070	156663	27137	1024399	43286	109426	0	0	8101	696534	0	0
2024-07-04 09:04:32			0	34610	0	0	0	25485	24070	156623	27022	1024461	43297	109427	0	0	8100	696948	0	0
2024-07-04 09:05:32			0	34620	0	0	0	25488	24070	156559	27358	1024381	43287	109428	0	0	8101	696488	0	0
2024-07-04 09:06:32			0	34621	0	0	0	25485	24080	156499	27039	1024425	43288	109427	0	0	8101	696403	0	0
2024-07-04 09:07:32			0	34636	0	0	0	25477	24070	156439	27414	1024435	43308	109424	0	0	8102	695752	0	0
2024-07-04 09:08:32			0	34663	0	0	0	25483	24070	156483	27336	1024479	43275	109426	0	0	8103	694512	0	0
2024-07-04 09:09:32			0	34650	0	0	0	25485	24070	156387	26771	1024453	43296	109427	0	0	8102	695109	0	0
2024-07-04 09:10:32			0	34663	0	0	0	25488	24070	156431	27258	1024461	43275	109428	0	0	8103	694512	0	0
2024-07-04 09:11:32			0	34659	0	0	0	25485	24070	156435	27414	1024399	43286	109427	0	0	8103	694696	0	0
2024-07-04 09:12:32			0	34674	0	0	0	25485	24080	156331	27436	1024443	43297	109427	0	0	8104	693968	0	0
2024-07-04 09:13:32			0	34666	0	0	0	25490	24080	156291	27060	1024443	43275	109429	0	0	8103	694335	0	0
2024-07-04 09:14:32			0	34693	0	0	0	25488	24070	156251	27256	1024488	43287	109428	0	0	8105	693136	0	0
2024-07-04 09:15:32			0	34719	0	0	0	25490	24080	156231	27263	1024470	43297	109429	0	0	8106	691906	0	0
2024-07-04 09:16:32			0	34715	0	0	0	25483	24070	156291	27312	1024435	43297	109426	0	0	8106	692129	0	0
2024-07-04 09:17:32			0	34712	0	0	0	25485	24070	156303	27272	1024408	43287	109427	0	0	8106	692266	0	0
2024-07-04 09:18:32			0	34732	0	0	0	25493	24070	156119	27223	1024435	43275	109430	0	0	8107	691351	0	0
2024-07-04 09:19:32			0	34746	0	0	0	25485	24070	156131	27296	1024461	43287	109427	0	0	8108	690711	0	0
2024-07-04 09:20:32			0	34758	0	0	0	25485	24070	156007	27372	1024488	43287	109427	0	0	8108	690162	0	0
2024-07-04 09:21:32			0	34758	0	0	0	25488	24070	156087	27131	1024461	43275	109428	0	0	8108	690162	0	0
2024-07-04 09:22:32			0	34749	0	0	0	25485	24080	156151	27327	1024416	43287	109427	0	0	8108	690535	0	0
2024-07-04 09:23:32			0	34740	0	0	0	25485	24070	156139	27312	1024435	43297	109427	0	0	8107	690985	0	0
2024-07-04 09:24:32			0	34757	0	0	0	25488	24070	156131	27204	1024399	43286	109428	0	0	8108	690208	0	0
2024-07-04 09:25:32			0	34753	0	0	0	25483	24070	155995	27228	1024426	43275	109426	0	0	8108	690391	0	0
2024-07-04 09:26:32			0	34738	0	0	0	25459	24060	156027	27242	1024364	43275	109417	0	0	8108	691115	0	0
2024-07-04 09:27:32			0	34776	0	0	0	25457	24050	156079	26800	1024373	43273	109416	0	0	8110	689418	0	0
2024-07-04 09:28:32			0	34751	0	0	0	25449	24050	156007	27093	1024266	43284	109413	0	0	8109	690560	0	0
2024-07-04 09:29:32			0	34751	0	0	0	25441	24040	156083	27045	1024249	43284	109410	0	0	8109	690599	0	0
2024-07-04 09:30:32			0	34752	0	0	0	25441	24030	156131	26961	1024240	43293	109410	0	0	8109	690592	0	0
2024-07-04 09:31:32			0	34769	0	0	0	25433	24030	156135	27194	1024213	43272	109407	0	0	8110	689815	0	0
2024-07-04 09:32:32			0	34755	0	0	0	25433	24040	156131	27189	1024275	43284	109407	0	0	8109	690416	0	0
2024-07-04 09:33:32			0	34750	0	0	0	25433	24030	156227	26889	1024213	43283	109407	0	0	8109	690684	0	0
2024-07-04 09:34:32			0	34754	0	0	0	25428	24020	156159	26970	1024196	43282	109405	0	0	8109	690540	0	0
2024-07-04 09:35:32			0	34739	0	0	0	25425	24020	156263	27294	1024249	43259	109404	0	0	8108	691226	0	0
2024-07-04 09:36:32			0	34720	0	0	0	25433	24030	156211	27390	1024160	43293	109407	0	0	8107	692056	0	0
2024-07-04 09:37:32			0	34725	0	0	0	25431	24020	156175	27246	1024223	43271	109406	0	0	8107	691866	0	0
2024-07-04 09:38:32			0	34734	0	0	0	25433	24020	156263	27306	1024276	43282	109407	0	0	8108	691454	0	0
2024-07-04 09:39:32			0	34724	0	0	0	25428	24020	156287	27196	1024276	43282	109405	0	0	8107	691912	0	0
2024-07-04 09:40:32			0	34719	0	0	0	25433	24020	156407	27059	1024214	43259	109407	0	0	8107	692140	0	0
2024-07-04 09:41:32			0	34712	0	0	0	25431	24020	156363	27157	1024187	43281	109406	0	0	8107	692461	0	0
2024-07-04 09:42:32			0	34695	0	0	0	25444	24020	156319	27322	1024267	43281	109411	0	0	8105	693240	0	0
2024-07-04 09:43:32			0	34689	0	0	0	25446	24030	156399	27415	1024231	43292	109412	0	0	8105	693476	0	0
2024-07-04 09:44:32			0	34711	0	0	0	25451	24030	156431	27391	1024285	43304	109414	0	0	8106	692468	0	0
2024-07-04 09:45:32			0	34706	0	0	0	25459	24030	156427	27215	1024374	43283	109417	0	0	8106	692697	0	0
2024-07-04 09:46:32			0	34682	0	0	0	25462	24030	156327	27251	1024311	43292	109418	0	0	8104	693797	0	0
2024-07-04 09:47:32			0	34700	0	0	0	25470	24020	156415	27173	1024303	43292	109421	0	0	8105	693011	0	0
2024-07-04 09:48:32			0	34685	0	0	0	25475	24040	156447	27121	1024356	43284	109423	0	0	8104	693620	0	0
2024-07-04 09:49:32			0	34674	0	0	0	25477	24030	156483	27393	1024320	43293	109424	0	0	8104	694164	0	0
2024-07-04 09:50:32			0	34683	0	0	0	25472	24040	156447	27183	1024329	43284	109422	0	0	8104	693712	0	0
2024-07-04 09:51:32			0	34679	0	0	0	25464	24050	156447	27239	1024373	43306	109419	0	0	8104	693856	0	0
2024-07-04 09:52:32			0	34682	0	0	0	25477	24050	156351	26993	1024400	43284	109424	0	0	8104	693719	0	0
2024-07-04 09:53:32			0	34706	0	0	0	25483	24050	156371	27003	1024373	43306	109426	0	0	8105	692619	0	0
2024-07-04 09:54:32			0	34682	0	0	0	25483	24060	156295	27012	1024328	43285	109426	0	0	8104	693680	0	0
2024-07-04 09:55:32			0	34707	0	0	0	25480	24050	156339	27119	1024400	43284	109425	0	0	8106	692573	0	0
2024-07-04 09:56:32			0	34696	0	0	0	25490	24060	156231	26745	1024381	43285	109429	0	0	8105	693038	0	0
2024-07-04 09:57:32			0	34704	0	0	0	25488	24050	156179	26996	1024400	43294	109428	0	0	8105	692710	0	0
2024-07-04 09:58:32			0	34717	0	0	0	25496	24050	156239	27059	1024480	43284	109431	0	0	8106	692115	0	0
2024-07-04 09:59:32			0	34724	0	0	0	25483	24060	156071	26854	1024497	43275	109426	0	0	8107	691756	0	0
2024-07-04 10:00:32			0	34728	0	0	0	25496	24070	156031	27072	1024461	43297	109431	0	0	8107	691534	0	0
2024-07-04 10:01:32			0	34736	0	0	0	25496	24070	156043	27013	1024453	43286	109431	0	0	8107	691168	0	0
2024-07-04 10:02:32			0	34737	0	0	0	25488	24070	155995	26883	1024541	43287	109428	0	0	8107	691122	0	0
2024-07-04 10:03:32			0	34765	0	0	0	25496	24070	156015	27093	1024453	43286	109431	0	0	8109	689843	0	0
2024-07-04 10:04:32			0	34767	0	0	0	25493	24070	155915	27109	1024488	43287	109430	0	0	8109	689751	0	0
2024-07-04 10:05:32			0	34783	0	0	0	25501	24080	155939	27118	1024497	43297	109433	0	0	8110	688982	0	0
2024-07-04 10:06:32			0	34800	0	0	0	25496	24070	155887	27183	1024515	43297	109431	0	0	8111	688246	0	0
2024-07-04 10:07:32			0	34807	0	0	0	25498	24070	155899	27227	1024488	43275	109432	0	0	8111	687927	0	0
2024-07-04 10:08:32			0	34825	0	0	0	25488	24080	155743	26897	1024470	43297	109428	0	0	8112	687068	0	0
2024-07-04 10:09:32			0	34815	0	0	0	25496	24070	155747	27150	1024515	43275	109431	0	0	8111	687562	0	0
2024-07-04 10:10:32			0	34830	0	0	0	25490	24080	155687	27173	1024505	43288	109429	0	0	8112	686840	0	0
2024-07-04 10:11:32			0	34845	0	0	0	25493	24080	155539	27161	1024497	43287	109430	0	0	8113	686158	0	0
2024-07-04 10:12:32			0	34855	0	0	0	25496	24080	155463	26908	1024497	43297	109431	0	0	8114	685704	0	0
2024-07-04 10:13:32			0	34872	0	0	0	25498	24080	155443	27124	1024505	43298	109432	0	0	8114	684931	0	0
2024-07-04 10:14:32			0	34886	0	0	0	25496	24080	155459	27131	1024523	43287	109431	0	0	8115	684296	0	0
2024-07-04 10:15:32			0	34908	0	0	0	25496	24080	155423	26937	1024505	43288	109431	0	0	8116	683298	0	0
2024-07-04 10:16:32			0	34925	0	0	0	25496	24080	155363	27249	1024452	43276	109431	0	0	8117	682527	0	0
2024-07-04 10:17:32			0	34921	0	0	0	25496	24080	155267	26977	1024550	43297	109431	0	0	8117	682708	0	0
2024-07-04 10:18:32			0	34932	0	0	0	25496	24090	155231	26857	1024514	43288	109431	0	0	8118	682172	0	0
2024-07-04 10:19:32			0	34957	0	0	0	25503	24090	155087	27081	1024541	43288	109434	0	0	8119	681041	0	0
2024-07-04 10:20:32			0	34971	0	0	0	25506	24080	155059	27131	1024523	43297	109435	0	0	8120	680446	0	0
2024-07-04 10:21:32			0	34989	0	0	0	25498	24090	154927	27178	1024541	43288	109432	0	0	8121	679595	0	0
2024-07-04 10:22:32			0	34998	0	0	0	25503	24090	154927	27135	1024576	43289	109434	0	0	8121	679189	0	0
2024-07-04 10:23:32			0	35028	0	0	0	25509	24080	154791	26991	1024559	43298	109436	0	0	8123	677874	0	0
2024-07-04 10:24:32			0	35053	0	0	0	25501	24090	154731	27078	1024487	43298	109433	0	0	8124	676710	0	0
2024-07-04 10:25:32			0	35060	0	0	0	25503	24090	154675	27237	1024549	43310	109434	0	0	8125	676395	0	0
2024-07-04 10:26:32			0	35078	0	0	0	25509	24090	154615	26915	1024621	43309	109436	0	0	8126	675585	0	0
2024-07-04 10:27:32			0	35092	0	0	0	25514	24090	154551	27126	1024576	43289	109438	0	0	8126	674957	0	0
2024-07-04 10:28:32			0	35103	0	0	0	25522	24100	154467	27003	1024665	43299	109441	0	0	8127	674424	0	0
2024-07-04 10:29:32			0	35136	0	0	0	25524	24100	154272	27279	1024638	43299	109442	0	0	8129	672944	0	0
2024-07-04 10:30:32			0	35154	0	0	0	25535	24110	154336	26949	1024718	43323	109446	0	0	8129	672100	0	0
2024-07-04 10:31:32			0	35170	0	0	0	25545	24110	154256	27092	1024709	43278	109450	0	0	8130	671384	0	0
2024-07-04 10:32:32			0	35170	0	0	0	25537	24110	154188	26974	1024691	43301	109447	0	0	8130	671384	0	0
2024-07-04 10:33:32			0	35200	0	0	0	25550	24110	154104	27072	1024718	43291	109452	0	0	8132	670043	0	0
2024-07-04 10:34:32			0	35220	0	0	0	25563	24130	153940	27164	1024690	43313	109457	0	0	8133	669074	0	0
2024-07-04 10:35:32			0	35248	0	0	0	25555	24120	153924	26863	1024780	43302	109454	0	0	8134	667863	0	0
2024-07-04 10:36:32			0	35256	0	0	0	25561	24130	153888	26965	1024744	43291	109456	0	0	8135	667469	0	0
2024-07-04 10:37:32			0	35273	0	0	0	25566	24120	153892	27287	1024842	43302	109458	0	0	8135	666750	0	0
2024-07-04 10:38:32			0	35298	0	0	0	25571	24140	153700	27092	1024876	43282	109460	0	0	8137	665563	0	0
2024-07-04 10:39:32			0	35287	0	0	0	25581	24150	153656	27412	1024832	43305	109464	0	0	8136	666014	0	0
2024-07-04 10:40:32			0	35322	0	0	0	25592	24140	153552	27313	1024876	43304	109468	0	0	8138	664497	0	0
2024-07-04 10:41:32			0	35340	0	0	0	25581	24150	153396	27403	1024921	43316	109464	0	0	8139	663660	0	0
2024-07-04 10:42:32			0	35354	0	0	0	25579	24160	153448	27000	1024902	43294	109463	0	0	8140	663002	0	0
2024-07-04 10:43:32			0	35389	0	0	0	25584	24160	153372	27202	1024929	43284	109465	0	0	8141	661452	0	0
2024-07-04 10:44:32			0	35402	0	0	0	25576	24160	153204	27190	1024849	43317	109462	0	0	8142	660877	0	0
2024-07-04 10:45:32			0	35414	0	0	0	25579	24150	153196	27261	1024894	43293	109463	0	0	8143	660384	0	0
2024-07-04 10:46:32			0	35433	0	0	0	25576	24160	153092	27078	1024876	43306	109462	0	0	8144	659508	0	0
2024-07-04 10:47:32			0	35430	0	0	0	25579	24160	152984	27268	1024911	43306	109463	0	0	8144	659640	0	0
2024-07-04 10:48:32			0	35466	0	0	0	25579	24160	152928	27213	1024956	43306	109463	0	0	8146	658052	0	0
2024-07-04 10:49:32			0	35483	0	0	0	25584	24170	152896	27173	1024920	43295	109465	0	0	8147	657266	0	0
2024-07-04 10:50:32			0	35498	0	0	0	25584	24160	152772	27000	1024911	43306	109465	0	0	8147	656642	0	0
2024-07-04 10:51:32			0	35510	0	0	0	25584	24160	152760	26948	1024911	43317	109465	0	0	8148	656115	0	0
2024-07-04 10:52:32			0	35524	0	0	0	25584	24160	152696	26941	1024911	43284	109465	0	0	8149	655499	0	0
2024-07-04 10:53:32			0	35534	0	0	0	25584	24160	152684	27187	1024938	43306	109465	0	0	8149	655060	0	0
2024-07-04 10:54:32			0	35561	0	0	0	25581	24160	152500	27105	1024991	43306	109464	0	0	8151	653874	0	0
2024-07-04 10:55:32			0	35573	0	0	0	25584	24160	152432	27177	1024965	43317	109465	0	0	8151	653348	0	0
2024-07-04 10:56:32			0	35599	0	0	0	25594	24160	152416	27223	1024911	43306	109469	0	0	8153	652209	0	0
2024-07-04 10:57:32			0	35593	0	0	0	25589	24160	152344	26883	1024911	43284	109467	0	0	8152	652471	0	0
2024-07-04 10:58:32			0	35599	0	0	0	25586	24170	152308	27185	1024866	43295	109466	0	0	8153	652172	0	0
2024-07-04 10:59:32			0	35622	0	0	0	25579	24170	152260	26935	1024893	43295	109463	0	0	8154	651165	0	0
2024-07-04 11:00:32			0	35635	0	0	0	25573	24160	152180	27206	1024831	43284	109461	0	0	8155	650633	0	0
2024-07-04 11:01:32			0	35665	0	0	0	25561	24150	152220	26831	1024840	43293	109456	0	0	8157	649360	0	0
2024-07-04 11:02:32			0	35687	0	0	0	25555	24150	152032	27118	1024894	43283	109454	0	0	8158	648400	0	0
2024-07-04 11:03:32			0	35698	0	0	0	25548	24150	152044	27251	1024832	43283	109451	0	0	8159	647920	0	0
2024-07-04 11:04:32			0	35722	0	0	0	25548	24150	151852	27180	1024814	43293	109451	0	0	8160	646875	0	0
2024-07-04 11:05:32			0	35743	0	0	0	25540	24150	151876	26979	1024840	43293	109448	0	0	8161	645961	0	0
2024-07-04 11:06:32			0	35744	0	0	0	25542	24150	151692	27098	1024840	43283	109449	0	0	8161	645917	0	0
2024-07-04 11:07:32			0	35770	0	0	0	25545	24140	151672	27215	1024823	43304	109450	0	0	8162	644824	0	0
2024-07-04 11:08:32			0	35760	0	0	0	25524	24140	151612	26972	1024761	43304	109442	0	0	8162	645258	0	0
2024-07-04 11:09:32			0	35795	0	0	0	25537	24140	151600	27142	1024734	43292	109447	0	0	8164	643739	0	0
2024-07-04 11:10:32			0	35803	0	0	0	25537	24130	151492	26791	1024725	43303	109447	0	0	8164	643428	0	0
2024-07-04 11:11:32			0	35816	0	0	0	25537	24130	151444	27176	1024797	43280	109447	0	0	8165	642864	0	0
2024-07-04 11:12:32			0	35806	0	0	0	25555	24140	151424	26850	1024814	43282	109454	0	0	8164	643262	0	0
2024-07-04 11:13:32			0	35833	0	0	0	25553	24140	151348	27324	1024814	43304	109453	0	0	8166	642092	0	0
2024-07-04 11:14:32			0	35828	0	0	0	25563	24140	151292	27261	1024921	43304	109457	0	0	8165	642308	0	0
2024-07-04 11:15:32			0	35843	0	0	0	25589	24150	151296	27128	1024939	43293	109467	0	0	8166	641623	0	0
2024-07-04 11:16:32			0	35841	0	0	0	25592	24150	151280	27220	1024885	43316	109468	0	0	8165	641709	0	0
2024-07-04 11:17:32			0	35833	0	0	0	25584	24150	151276	26689	1024921	43305	109465	0	0	8165	642055	0	0
2024-07-04 11:18:32			0	35843	0	0	0	25589	24160	151272	26781	1024965	43317	109467	0	0	8166	641586	0	0
2024-07-04 11:19:32			0	35858	0	0	0	25605	24170	151285	26840	1025000	43295	109473	0	0	8166	640901	0	0
2024-07-04 11:20:32			0	35853	0	0	0	25589	24170	151256	27142	1024973	43295	109467	0	0	8166	641117	0	0
2024-07-04 11:21:32			0	35888	0	0	0	25586	24160	151305	27074	1024956	43306	109466	0	0	8168	639641	0	0
2024-07-04 11:22:32			0	35872	0	0	0	25594	24160	151109	27168	1024965	43306	109469	0	0	8167	640332	0	0
2024-07-04 11:23:32			0	35890	0	0	0	25607	24170	151145	26986	1025009	43306	109474	0	0	8168	639518	0	0
2024-07-04 11:24:32			0	35887	0	0	0	25633	24180	151129	27072	1025133	43308	109484	0	0	8167	639612	0	0
2024-07-04 11:25:32			0	35889	0	0	0	25654	24190	151129	27116	1025204	43320	109492	0	0	8167	639489	0	0
2024-07-04 11:26:32			0	35882	0	0	0	25677	24210	151273	27100	1025257	43322	109501	0	0	8166	639719	0	0
2024-07-04 11:27:32			0	35863	0	0	0	25677	24210	151109	27086	1025230	43322	109501	0	0	8165	640540	0	0
2024-07-04 11:28:32			0	35884	0	0	0	25680	24210	151053	27076	1025265	43310	109502	0	0	8167	639633	0	0
2024-07-04 11:29:32			0	35936	0	0	0	25670	24220	150889	27182	1025247	43300	109498	0	0	8170	637355	0	0
2024-07-04 11:30:32			0	35950	0	0	0	25657	24220	150833	27187	1025167	43300	109493	0	0	8170	636752	0	0
2024-07-04 11:31:32			0	35972	0	0	0	25657	24220	150645	27159	1025309	43312	109493	0	0	8172	635805	0	0
2024-07-04 11:32:32			0	36021	0	0	0	25662	24220	150609	26630	1025274	43300	109495	0	0	8174	633701	0	0
2024-07-04 11:33:32			0	36039	0	0	0	25651	24220	150517	27017	1025229	43301	109491	0	0	8175	632929	0	0
2024-07-04 11:34:32			0	36049	0	0	0	25638	24210	150421	27098	1025158	43299	109486	0	0	8176	632537	0	0
2024-07-04 11:35:32			0	36076	0	0	0	25615	24200	150225	27156	1025168	43289	109477	0	0	8178	631417	0	0
2024-07-04 11:36:32			0	36111	0	0	0	25594	24200	150105	26948	1025052	43288	109469	0	0	8180	629920	0	0
2024-07-04 11:37:32			0	36153	0	0	0	25584	24200	149929	27067	1025052	43288	109465	0	0	8182	628128	0	0
2024-07-04 11:38:32			0	36167	0	0	0	25581	24200	149829	27176	1025052	43288	109464	0	0	8183	627532	0	0
2024-07-04 11:39:32			0	36176	0	0	0	25573	24190	149833	27092	1025044	43297	109461	0	0	8184	627184	0	0
2024-07-04 11:40:32			0	36181	0	0	0	25573	24190	149741	26981	1025008	43297	109461	0	0	8184	626971	0	0
2024-07-04 11:41:32			0	36199	0	0	0	25563	24180	149821	27105	1024999	43297	109457	0	0	8185	626240	0	0
2024-07-04 11:42:32			0	36206	0	0	0	25563	24170	149725	26719	1025009	43306	109457	0	0	8185	625978	0	0
2024-07-04 11:43:32			0	36197	0	0	0	25576	24180	149693	26949	1024964	43296	109462	0	0	8185	626325	0	0
2024-07-04 11:44:32			0	36195	0	0	0	25592	24180	149777	27045	1025044	43296	109468	0	0	8184	626410	0	0
2024-07-04 11:45:32			0	36176	0	0	0	25612	24190	149857	27194	1025169	43320	109476	0	0	8183	627184	0	0
2024-07-04 11:46:32			0	36162	0	0	0	25620	24200	149937	27171	1025248	43310	109479	0	0	8182	627745	0	0
2024-07-04 11:47:32			0	36151	0	0	0	25625	24190	149917	27305	1025124	43308	109481	0	0	8182	628249	0	0
2024-07-04 11:48:32			0	36134	0	0	0	25638	24190	150065	27220	1025169	43308	109486	0	0	8180	628974	0	0
2024-07-04 11:49:32			0	36142	0	0	0	25636	24200	150041	26949	1025159	43309	109485	0	0	8181	628597	0	0
2024-07-04 11:50:32			0	36145	0	0	0	25636	24210	150033	26967	1025185	43310	109485	0	0	8181	628434	0	0
2024-07-04 11:51:32			0	36146	0	0	0	25644	24210	150045	27203	1025203	43299	109488	0	0	8181	628391	0	0
2024-07-04 11:52:32			0	36132	0	0	0	25649	24220	150009	27102	1025274	43323	109490	0	0	8180	628953	0	0
2024-07-04 11:53:32			0	36125	0	0	0	25654	24210	149981	26802	1025239	43310	109492	0	0	8180	629287	0	0
2024-07-04 11:54:32			0	36144	0	0	0	25651	24220	149917	27098	1025256	43301	109491	0	0	8181	628441	0	0
2024-07-04 11:55:32			0	36139	0	0	0	25649	24220	149877	27064	1025256	43312	109490	0	0	8181	628654	0	0
2024-07-04 11:56:32			0	36148	0	0	0	25638	24220	149853	26955	1025221	43311	109486	0	0	8181	628270	0	0
2024-07-04 11:57:32			0	36167	0	0	0	25641	24220	149889	27291	1025256	43312	109487	0	0	8182	627461	0	0
2024-07-04 11:58:32			0	36170	0	0	0	25646	24220	149913	26939	1025336	43334	109489	0	0	8182	627333	0	0
2024-07-04 11:59:32			0	36170	0	0	0	25657	24230	149785	27133	1025318	43312	109493	0	0	8182	627298	0	0
2024-07-04 12:00:32			0	36168	0	0	0	25667	24230	149829	27173	1025318	43323	109497	0	0	8182	627383	0	0
2024-07-04 12:01:32			0	36154	0	0	0	25670	24250	149893	27154	1025326	43304	109498	0	0	8181	627908	0	0
2024-07-04 12:02:32			0	36152	0	0	0	25677	24240	149877	27235	1025371	43303	109501	0	0	8181	628029	0	0
2024-07-04 12:03:32			0	36137	0	0	0	25664	24240	149893	27012	1025362	43302	109496	0	0	8180	628668	0	0
2024-07-04 12:04:32			0	36149	0	0	0	25664	24240	149881	26892	1025335	43313	109496	0	0	8181	628157	0	0
2024-07-04 12:05:32			0	36162	0	0	0	25667	24240	149877	27048	1025317	43325	109497	0	0	8182	627603	0	0
2024-07-04 12:06:32			0	36148	0	0	0	25672	24240	149885	27060	1025398	43314	109499	0	0	8181	628199	0	0
2024-07-04 12:07:32			0	36174	0	0	0	25672	24240	149977	26928	1025424	43291	109499	0	0	8182	627092	0	0
2024-07-04 12:08:32			0	36154	0	0	0	25675	24260	149941	27128	1025432	43327	109500	0	0	8181	627873	0	0
2024-07-04 12:09:32			0	36154	0	0	0	25675	24250	149845	27048	1025442	43326	109500	0	0	8181	627908	0	0
2024-07-04 12:10:32			0	36160	0	0	0	25680	24260	149865	27064	1025486	43316	109502	0	0	8181	627617	0	0
2024-07-04 12:11:32			0	36155	0	0	0	25688	24260	149797	27046	1025512	43327	109505	0	0	8181	627830	0	0
2024-07-04 12:12:32			0	36158	0	0	0	25688	24270	149837	27346	1025530	43317	109505	0	0	8181	627667	0	0
2024-07-04 12:13:32			0	36139	0	0	0	25698	24290	149841	27192	1025645	43319	109509	0	0	8180	628406	0	0
2024-07-04 12:14:32			0	36152	0	0	0	25706	24290	149901	27026	1025564	43319	109512	0	0	8181	627852	0	0
2024-07-04 12:15:32			0	36150	0	0	0	25706	24290	150025	27060	1025564	43307	109512	0	0	8181	627937	0	0
2024-07-04 12:16:32			0	36141	0	0	0	25706	24290	149865	27001	1025636	43307	109512	0	0	8180	628320	0	0
2024-07-04 12:17:32			0	36154	0	0	0	25716	24300	149909	27026	1025742	43331	109516	0	0	8181	627731	0	0
2024-07-04 12:18:32			0	36126	0	0	0	25735	24300	149913	26939	1025716	43320	109523	0	0	8179	628925	0	0
2024-07-04 12:19:32			0	36104	0	0	0	25758	24320	150005	27150	1025822	43322	109532	0	0	8177	629792	0	0
2024-07-04 12:20:32			0	36088	0	0	0	25776	24340	150129	26972	1025857	43334	109539	0	0	8176	630405	0	0
2024-07-04 12:21:32			0	36041	0	0	0	25786	24340	150309	27138	1025910	43323	109543	0	0	8174	632415	0	0
2024-07-04 12:22:32			0	36019	0	0	0	25792	24360	150337	27074	1026017	43314	109545	0	0	8172	633286	0	0
2024-07-04 12:23:32			0	36017	0	0	0	25815	24360	150365	27039	1025972	43314	109554	0	0	8172	633372	0	0
2024-07-04 12:24:32			0	36000	0	0	0	25807	24380	150357	27055	1026051	43327	109551	0	0	8171	634029	0	0
2024-07-04 12:25:32			0	36038	0	0	0	25799	24360	150377	27261	1025963	43314	109548	0	0	8173	632472	0	0
2024-07-04 12:26:32			0	36028	0	0	0	25807	24370	150233	27204	1026016	43326	109551	0	0	8173	632865	0	0
2024-07-04 12:27:32			0	36013	0	0	0	25807	24380	150381	27284	1026060	43328	109551	0	0	8172	633472	0	0
2024-07-04 12:28:32			0	36002	0	0	0	25815	24390	150393	27204	1026051	43305	109554	0	0	8171	633908	0	0
2024-07-04 12:29:32			0	35994	0	0	0	25828	24400	150377	26932	1026166	43329	109559	0	0	8171	634215	0	0
2024-07-04 12:30:32			0	35988	0	0	0	25825	24390	150425	26994	1026158	43338	109558	0	0	8170	634508	0	0
2024-07-04 12:31:32			0	36012	0	0	0	25836	24400	150441	26948	1026121	43330	109562	0	0	8172	633443	0	0
2024-07-04 12:32:32			0	36029	0	0	0	25833	24400	150229	27000	1026148	43330	109561	0	0	8173	632715	0	0
2024-07-04 12:33:32			0	36043	0	0	0	25838	24410	150209	26890	1026184	43330	109563	0	0	8173	632079	0	0
2024-07-04 12:34:32			0	36069	0	0	0	25846	24420	150017	27241	1026209	43332	109566	0	0	8174	630932	0	0
2024-07-04 12:35:32			0	36086	0	0	0	25841	24420	150021	27203	1026228	43331	109564	0	0	8175	630205	0	0
2024-07-04 12:36:32			0	36119	0	0	0	25841	24420	149957	26937	1026228	43320	109564	0	0	8177	628797	0	0
2024-07-04 12:37:32			0	36127	0	0	0	25841	24420	149793	27107	1026236	43321	109564	0	0	8178	628456	0	0
2024-07-04 12:38:32			0	36160	0	0	0	25841	24420	149617	27142	1026263	43332	109564	0	0	8179	627050	0	0
2024-07-04 12:39:32			0	36172	0	0	0	25846	24430	149717	26939	1026280	43309	109566	0	0	8180	626504	0	0
2024-07-04 12:40:32			0	36179	0	0	0	25851	24420	149565	26967	1026263	43332	109568	0	0	8180	626242	0	0
2024-07-04 12:41:32			0	36211	0	0	0	25854	24440	149525	26948	1026236	43310	109569	0	0	8182	624812	0	0
2024-07-04 12:42:32			0	36256	0	0	0	25851	24430	149509	27258	1026245	43321	109568	0	0	8184	622938	0	0
2024-07-04 12:43:32			0	36271	0	0	0	25862	24430	149365	27003	1026280	43321	109572	0	0	8185	622303	0	0
2024-07-04 12:44:32			0	36264	0	0	0	25857	24450	149261	26752	1026333	43323	109570	0	0	8185	622529	0	0
2024-07-04 12:45:32			0	36280	0	0	0	25872	24440	149301	27185	1026351	43322	109576	0	0	8185	621887	0	0
2024-07-04 12:46:32			0	36300	0	0	0	25872	24440	149277	27071	1026432	43344	109576	0	0	8186	621041	0	0
2024-07-04 12:47:32			0	36313	0	0	0	25880	24450	149077	27140	1026369	43334	109579	0	0	8187	620457	0	0
2024-07-04 12:48:32			0	36340	0	0	0	25872	24450	149085	26925	1026369	43334	109576	0	0	8189	619317	0	0
2024-07-04 12:49:32			0	36345	0	0	0	25875	24460	149077	27265	1026386	43335	109577	0	0	8189	619071	0	0
2024-07-04 12:50:32			0	36348	0	0	0	25877	24460	148901	27090	1026404	43334	109578	0	0	8189	618945	0	0
2024-07-04 12:51:32			0	36369	0	0	0	25883	24460	148969	27211	1026413	43324	109580	0	0	8190	618059	0	0
2024-07-04 12:52:32			0	36392	0	0	0	25893	24470	148837	27360	1026448	43336	109584	0	0	8191	617056	0	0
2024-07-04 12:53:32			0	36400	0	0	0	25888	24460	148817	27241	1026466	43324	109582	0	0	8191	616754	0	0
2024-07-04 12:54:32			0	36386	0	0	0	25896	24470	148781	27261	1026484	43336	109585	0	0	8191	617309	0	0
2024-07-04 12:55:32			0	36412	0	0	0	25888	24480	148761	27111	1026466	43325	109582	0	0	8192	616180	0	0
2024-07-04 12:56:32			0	36412	0	0	0	25896	24480	148777	27182	1026439	43347	109585	0	0	8192	616180	0	0
2024-07-04 12:57:32			0	36423	0	0	0	25888	24480	148765	27166	1026492	43336	109582	0	0	8193	615718	0	0
2024-07-04 12:58:32			0	36442	0	0	0	25898	24480	148593	27402	1026519	43347	109586	0	0	8194	614920	0	0
2024-07-04 12:59:32			0	36441	0	0	0	25901	24490	148569	27390	1026536	43337	109587	0	0	8194	614927	0	0
2024-07-04 13:00:32			0	36454	0	0	0	25906	24490	148653	27041	1026510	43337	109589	0	0	8194	614381	0	0
2024-07-04 13:01:32			0	36463	0	0	0	25901	24490	148549	27405	1026536	43327	109587	0	0	8195	614004	0	0
2024-07-04 13:02:32			0	36449	0	0	0	25890	24500	148541	27499	1026536	43338	109583	0	0	8194	614556	0	0
2024-07-04 13:03:32			0	36480	0	0	0	25888	24490	148473	27131	1026510	43349	109582	0	0	8196	613291	0	0
2024-07-04 13:04:32			0	36480	0	0	0	25883	24480	148553	27367	1026448	43336	109580	0	0	8196	613326	0	0
2024-07-04 13:05:32			0	36473	0	0	0	25888	24490	148417	27332	1026465	43337	109582	0	0	8195	613585	0	0
2024-07-04 13:06:32			0	36492	0	0	0	25885	24480	148393	26939	1026448	43348	109581	0	0	8196	612823	0	0
2024-07-04 13:07:32			0	36483	0	0	0	25880	24470	148389	27445	1026430	43325	109579	0	0	8196	613235	0	0
2024-07-04 13:08:32			0	36524	0	0	0	25883	24490	148309	27093	1026536	43349	109580	0	0	8198	611450	0	0
2024-07-04 13:09:32			0	36508	0	0	0	25880	24490	148317	27241	1026456	43349	109579	0	0	8197	612119	0	0
2024-07-04 13:10:32			0	36484	0	0	0	25864	24490	148305	27336	1026510	43327	109573	0	0	8196	613124	0	0
2024-07-04 13:11:32			0	36488	0	0	0	25864	24480	148405	27020	1026474	43326	109573	0	0	8197	612991	0	0
2024-07-04 13:12:32			0	36499	0	0	0	25867	24480	148393	27178	1026474	43326	109574	0	0	8197	612530	0	0
2024-07-04 13:13:32			0	36515	0	0	0	25846	24480	148361	27090	1026412	43314	109566	0	0	8198	611860	0	0
2024-07-04 13:14:32			0	36519	0	0	0	25846	24460	148297	27092	1026333	43313	109566	0	0	8198	611762	0	0
2024-07-04 13:15:32			0	36503	0	0	0	25846	24470	148285	27261	1026403	43325	109566	0	0	8198	612397	0	0
2024-07-04 13:16:32			0	36523	0	0	0	25838	24470	148265	27414	1026288	43314	109563	0	0	8199	611561	0	0
2024-07-04 13:17:32			0	36517	0	0	0	25841	24460	148361	27126	1026333	43324	109564	0	0	8198	611846	0	0
2024-07-04 13:18:32			0	36509	0	0	0	25841	24460	148269	27209	1026377	43312	109564	0	0	8198	612181	0	0
2024-07-04 13:19:32			0	36502	0	0	0	25841	24460	148293	27248	1026333	43335	109564	0	0	8198	612474	0	0
2024-07-04 13:20:32			0	36475	0	0	0	25844	24460	148501	26970	1026324	43345	109565	0	0	8196	613605	0	0
2024-07-04 13:21:32			0	36475	0	0	0	25841	24450	148577	27057	1026342	43323	109564	0	0	8196	613640	0	0
2024-07-04 13:22:32			0	36441	0	0	0	25844	24450	148573	27265	1026289	43323	109565	0	0	8194	615066	0	0
2024-07-04 13:23:32			0	36444	0	0	0	25846	24460	148549	26923	1026324	43334	109566	0	0	8194	614905	0	0
2024-07-04 13:24:32			0	36427	0	0	0	25857	24460	148705	27215	1026333	43335	109570	0	0	8193	615619	0	0
2024-07-04 13:25:32			0	36412	0	0	0	25864	24450	148737	27026	1026369	43334	109573	0	0	8192	616285	0	0
2024-07-04 13:26:32			0	36410	0	0	0	25867	24460	148761	26896	1026306	43335	109574	0	0	8192	616334	0	0
2024-07-04 13:27:32			0	36409	0	0	0	25864	24460	148649	27048	1026333	43324	109573	0	0	8192	616376	0	0
2024-07-04 13:28:32			0	36411	0	0	0	25870	24460	148677	26970	1026386	43324	109575	0	0	8192	616292	0	0
2024-07-04 13:29:32			0	36406	0	0	0	25872	24460	148781	27163	1026386	43324	109576	0	0	8192	616502	0	0
2024-07-04 13:30:32			0	36416	0	0	0	25867	24470	148753	26946	1026368	43336	109574	0	0	8193	616047	0	0
2024-07-04 13:31:32			0	36408	0	0	0	25872	24460	148721	27284	1026404	43323	109576	0	0	8192	616418	0	0
2024-07-04 13:32:32			0	36410	0	0	0	25862	24460	148713	26927	1026377	43334	109572	0	0	8192	616334	0	0
2024-07-04 13:33:32			0	36434	0	0	0	25864	24450	148729	27306	1026289	43334	109573	0	0	8194	615360	0	0
2024-07-04 13:34:32			0	36444	0	0	0	25867	24470	148713	27303	1026368	43347	109574	0	0	8194	614870	0	0
2024-07-04 13:35:32			0	36449	0	0	0	25877	24470	148565	27296	1026403	43347	109578	0	0	8194	614661	0	0
2024-07-04 13:36:32			0	36422	0	0	0	25862	24460	148709	27379	1026386	43335	109572	0	0	8193	615829	0	0
2024-07-04 13:37:32			0	36447	0	0	0	25877	24480	148669	27175	1026466	43325	109578	0	0	8194	614710	0	0
2024-07-04 13:38:32			0	36449	0	0	0	25880	24470	148589	27253	1026403	43336	109579	0	0	8194	614661	0	0
2024-07-04 13:39:32			0	36442	0	0	0	25883	24470	148613	27201	1026457	43336	109580	0	0	8194	614954	0	0
2024-07-04 13:40:32			0	36454	0	0	0	25890	24470	148573	27053	1026430	43347	109583	0	0	8194	614451	0	0
2024-07-04 13:41:32			0	36439	0	0	0	25903	24480	148593	27263	1026519	43347	109588	0	0	8193	615046	0	0
2024-07-04 13:42:32			0	36415	0	0	0	25903	24490	148613	27222	1026563	43349	109588	0	0	8192	616019	0	0
2024-07-04 13:43:32			0	36429	0	0	0	25911	24480	148657	27012	1026501	43326	109591	0	0	8193	615466	0	0
2024-07-04 13:44:32			0	36415	0	0	0	25924	24490	148717	27029	1026545	43337	109596	0	0	8192	616019	0	0
2024-07-04 13:45:32			0	36391	0	0	0	25922	24490	148769	27222	1026563	43349	109595	0	0	8191	617028	0	0
2024-07-04 13:46:32			0	36401	0	0	0	25922	24500	148821	27078	1026562	43350	109595	0	0	8191	616573	0	0
2024-07-04 13:47:32			0	36391	0	0	0	25924	24500	148829	27265	1026589	43361	109596	0	0	8191	616994	0	0
2024-07-04 13:48:32			0	36386	0	0	0	25922	24510	148833	27164	1026598	43339	109595	0	0	8190	617169	0	0
2024-07-04 13:49:32			0	36402	0	0	0	25927	24510	148785	27353	1026598	43339	109597	0	0	8191	616496	0	0
2024-07-04 13:50:32			0	36395	0	0	0	25932	24510	148721	27383	1026678	43351	109599	0	0	8191	616790	0	0
2024-07-04 13:51:32			0	36428	0	0	0	25932	24520	148621	27414	1026642	43330	109599	0	0	8192	615368	0	0
2024-07-04 13:52:32			0	36407	0	0	0	25942	24520	148593	27499	1026704	43340	109603	0	0	8191	616251	0	0
2024-07-04 13:53:32			0	36397	0	0	0	25948	24530	148701	27431	1026713	43353	109605	0	0	8191	616636	0	0
2024-07-04 13:54:32			0	36421	0	0	0	25953	24520	148733	27348	1026669	43340	109607	0	0	8192	615662	0	0
2024-07-04 13:55:32			0	36431	0	0	0	25953	24530	148629	27301	1026766	43341	109607	0	0	8192	615208	0	0
2024-07-04 13:56:32			0	36439	0	0	0	25973	24530	148597	27190	1026766	43353	109615	0	0	8192	614872	0	0
2024-07-04 13:57:32			0	36413	0	0	0	26007	24540	148617	27201	1026837	43353	109628	0	0	8190	615929	0	0
2024-07-04 13:58:32			0	36399	0	0	0	26018	24540	148661	26882	1026953	43353	109632	0	0	8190	616518	0	0
2024-07-04 13:59:32			0	36383	0	0	0	26041	24560	148785	27196	1027006	43355	109641	0	0	8188	617121	0	0
2024-07-04 14:00:32			0	36345	0	0	0	26054	24570	148809	27105	1027104	43368	109646	0	0	8186	618686	0	0
2024-07-04 14:01:32			0	36331	0	0	0	26051	24590	149009	27286	1027192	43369	109645	0	0	8186	619206	0	0
2024-07-04 14:02:32			0	36317	0	0	0	26051	24600	148973	27258	1027137	43360	109645	0	0	8185	619762	0	0
2024-07-04 14:03:32			0	36366	0	0	0	26051	24600	148941	26968	1027164	43360	109645	0	0	8188	617697	0	0
2024-07-04 14:04:32			0	36392	0	0	0	26038	24600	148889	26955	1027156	43348	109640	0	0	8189	616603	0	0
2024-07-04 14:05:32			0	36433	0	0	0	26031	24590	148553	27255	1027067	43336	109637	0	0	8191	614915	0	0
2024-07-04 14:06:32			0	36497	0	0	0	26023	24600	148397	26939	1027084	43349	109634	0	0	8195	612198	0	0
2024-07-04 14:07:32			0	36566	0	0	0	26025	24610	148157	27086	1027039	43349	109635	0	0	8199	609281	0	0
2024-07-04 14:08:32			0	36592	0	0	0	26028	24600	147957	27142	1027057	43349	109636	0	0	8200	608232	0	0
2024-07-04 14:09:32			0	36639	0	0	0	26031	24610	147838	27270	1027146	43360	109637	0	0	8202	606242	0	0
2024-07-04 14:10:32			0	36658	0	0	0	26018	24620	147654	26956	1027128	43350	109632	0	0	8203	605418	0	0
2024-07-04 14:11:32			0	36663	0	0	0	26015	24600	147638	27190	1027111	43360	109631	0	0	8204	605280	0	0
2024-07-04 14:12:32			0	36695	0	0	0	26018	24600	147678	26837	1027102	43370	109632	0	0	8205	603952	0	0
2024-07-04 14:13:32			0	36690	0	0	0	26025	24620	147462	27071	1027101	43361	109635	0	0	8205	604091	0	0
2024-07-04 14:14:32			0	36706	0	0	0	26028	24620	147498	27358	1027155	43361	109636	0	0	8206	603428	0	0
2024-07-04 14:15:32			0	36690	0	0	0	26023	24610	147466	27163	1027146	43360	109634	0	0	8205	604125	0	0
2024-07-04 14:16:32			0	36694	0	0	0	26010	24620	147482	27225	1027128	43350	109629	0	0	8206	603925	0	0
2024-07-04 14:17:32			0	36687	0	0	0	26012	24610	147574	27284	1027119	43349	109630	0	0	8205	604249	0	0
2024-07-04 14:18:32			0	36694	0	0	0	26025	24620	147466	27123	1027182	43350	109635	0	0	8205	603925	0	0
2024-07-04 14:19:32			0	36683	0	0	0	26028	24620	147542	27301	1027182	43361	109636	0	0	8205	604381	0	0
2024-07-04 14:20:32			0	36679	0	0	0	26033	24630	147574	27203	1027226	43351	109638	0	0	8204	604513	0	0
2024-07-04 14:21:32			0	36675	0	0	0	26038	24640	147626	27396	1027216	43352	109640	0	0	8204	604645	0	0
2024-07-04 14:22:32			0	36651	0	0	0	26033	24620	147662	27232	1027190	43362	109638	0	0	8203	605709	0	0
2024-07-04 14:23:32			0	36627	0	0	0	26038	24640	147670	27177	1027270	43352	109640	0	0	8202	606638	0	0
2024-07-04 14:24:32			0	36627	0	0	0	26044	24640	147858	27277	1027243	43363	109642	0	0	8202	606638	0	0
2024-07-04 14:25:32			0	36607	0	0	0	26046	24650	147834	27057	1027314	43352	109643	0	0	8200	607436	0	0
2024-07-04 14:26:32			0	36591	0	0	0	26051	24650	147942	27168	1027341	43375	109645	0	0	8200	608102	0	0
2024-07-04 14:27:32			0	36573	0	0	0	26077	24650	148037	27557	1027349	43353	109655	0	0	8198	608852	0	0
2024-07-04 14:28:32			0	36499	0	0	0	26093	24660	148189	27303	1027465	43353	109661	0	0	8194	611907	0	0
2024-07-04 14:29:32			0	36480	0	0	0	26103	24670	148425	27329	1027545	43355	109665	0	0	8193	612667	0	0
2024-07-04 14:30:32			0	36424	0	0	0	26124	24670	148525	27124	1027518	43367	109673	0	0	8190	615014	0	0
2024-07-04 14:31:32			0	36366	0	0	0	26135	24690	148757	27178	1027598	43368	109677	0	0	8186	617382	0	0
2024-07-04 14:32:32			0	36333	0	0	0	26119	24690	148769	26949	1027660	43368	109671	0	0	8185	618772	0	0
2024-07-04 14:33:32			0	36339	0	0	0	26127	24700	148929	27111	1027624	43358	109674	0	0	8185	618484	0	0
2024-07-04 14:34:32			0	36336	0	0	0	26119	24700	148981	27093	1027615	43347	109671	0	0	8185	618610	0	0
2024-07-04 14:35:32			0	36359	0	0	0	26111	24700	148829	27281	1027543	43347	109668	0	0	8187	617642	0	0
2024-07-04 14:36:32			0	36374	0	0	0	26116	24690	148753	27218	1027633	43346	109670	0	0	8187	617045	0	0
2024-07-04 14:37:32			0	36383	0	0	0	26122	24700	148713	27386	1027570	43358	109672	0	0	8188	616632	0	0
2024-07-04 14:38:32			0	36392	0	0	0	26135	24710	148733	27218	1027695	43359	109677	0	0	8188	616219	0	0
2024-07-04 14:39:32			0	36368	0	0	0	26163	24730	148789	27376	1027801	43361	109688	0	0	8186	617158	0	0
2024-07-04 14:40:32			0	36338	0	0	0	26184	24740	148925	27088	1027872	43373	109696	0	0	8184	618386	0	0
2024-07-04 14:41:32			0	36303	0	0	0	26168	24750	149041	27015	1027809	43363	109690	0	0	8183	619826	0	0
2024-07-04 14:42:32			0	36296	0	0	0	26145	24750	149069	26901	1027791	43363	109681	0	0	8183	620122	0	0
2024-07-04 14:43:32			0	36321	0	0	0	26135	24750	148949	27234	1027702	43374	109677	0	0	8184	619067	0	0
2024-07-04 14:44:32			0	36398	0	0	0	26127	24740	148597	27150	1027747	43362	109674	0	0	8189	615862	0	0
2024-07-04 14:45:32			0	36447	0	0	0	26127	24740	148405	27104	1027711	43362	109674	0	0	8191	613806	0	0
2024-07-04 14:46:32			0	36508	0	0	0	26119	24740	148301	27055	1027720	43362	109671	0	0	8194	611254	0	0
2024-07-04 14:47:32			0	36526	0	0	0	26103	24740	148209	26984	1027684	43362	109665	0	0	8196	610502	0	0
2024-07-04 14:48:32			0	36577	0	0	0	26103	24740	147929	27187	1027658	43362	109665	0	0	8198	608375	0	0
2024-07-04 14:49:32			0	36597	0	0	0	26106	24740	147902	27332	1027720	43362	109666	0	0	8199	607542	0	0
2024-07-04 14:50:32			0	36592	0	0	0	26111	24740	147849	27159	1027720	43362	109668	0	0	8199	607750	0	0
2024-07-04 14:51:32			0	36606	0	0	0	26119	24740	147910	27013	1027711	43362	109671	0	0	8200	607168	0	0
2024-07-04 14:52:32			0	36557	0	0	0	26116	24730	148033	26833	1027676	43350	109670	0	0	8197	609243	0	0
2024-07-04 14:53:32			0	36534	0	0	0	26106	24730	148041	27306	1027729	43350	109666	0	0	8196	610202	0	0
2024-07-04 14:54:32			0	36543	0	0	0	26129	24740	148245	26899	1027738	43362	109675	0	0	8196	609792	0	0
2024-07-04 14:55:32			0	36485	0	0	0	26129	24750	148333	26989	1027729	43352	109675	0	0	8193	612181	0	0
2024-07-04 14:56:32			0	36458	0	0	0	26124	24750	148481	27067	1027809	43352	109673	0	0	8192	613311	0	0
2024-07-04 14:57:32			0	36424	0	0	0	26140	24750	148605	26930	1027782	43374	109679	0	0	8190	614736	0	0
2024-07-04 14:58:32			0	36404	0	0	0	26142	24750	148717	26889	1027782	43363	109680	0	0	8189	615575	0	0
2024-07-04 14:59:32			0	36356	0	0	0	26142	24750	148885	26894	1027782	43363	109680	0	0	8186	617593	0	0
2024-07-04 15:00:32			0	36336	0	0	0	26135	24760	148925	27078	1027799	43341	109677	0	0	8185	618400	0	0
2024-07-04 15:01:32			0	36331	0	0	0	26140	24760	148913	26934	1027853	43352	109679	0	0	8185	618611	0	0
2024-07-04 15:02:32			0	36321	0	0	0	26166	24750	148929	27133	1027871	43374	109689	0	0	8184	619067	0	0
2024-07-04 15:03:32			0	36266	0	0	0	26179	24770	149181	27086	1027924	43365	109694	0	0	8181	621319	0	0
2024-07-04 15:04:32			0	36245	0	0	0	26179	24770	149281	27118	1027924	43365	109694	0	0	8180	622207	0	0
2024-07-04 15:05:32			0	36219	0	0	0	26176	24770	149361	27034	1027924	43365	109693	0	0	8178	623307	0	0
2024-07-04 15:06:32			0	36203	0	0	0	26174	24770	149397	27088	1027924	43365	109692	0	0	8178	623985	0	0
2024-07-04 15:07:32			0	36199	0	0	0	26168	24780	149453	27254	1027888	43376	109690	0	0	8178	624119	0	0
2024-07-04 15:08:32			0	36216	0	0	0	26179	24770	149329	26927	1027959	43365	109694	0	0	8178	623434	0	0
2024-07-04 15:09:32			0	36208	0	0	0	26171	24770	149269	27145	1027932	43365	109691	0	0	8178	623773	0	0
2024-07-04 15:10:32			0	36221	0	0	0	26166	24780	149245	26991	1027923	43367	109689	0	0	8179	623187	0	0
2024-07-04 15:11:32			0	36255	0	0	0	26163	24770	149129	27048	1027951	43365	109688	0	0	8181	621784	0	0
2024-07-04 15:12:32			0	36279	0	0	0	26158	24770	149105	26835	1027959	43353	109686	0	0	8182	620770	0	0
2024-07-04 15:13:32			0	36278	0	0	0	26163	24790	149209	26845	1027985	43367	109688	0	0	8182	620741	0	0
2024-07-04 15:14:32			0	36321	0	0	0	26179	24790	149081	27289	1027959	43367	109694	0	0	8184	618927	0	0
2024-07-04 15:15:32			0	36314	0	0	0	26174	24790	148961	27372	1028021	43367	109692	0	0	8184	619222	0	0
2024-07-04 15:16:32			0	36293	0	0	0	26176	24790	149065	26927	1027994	43377	109693	0	0	8182	620108	0	0
2024-07-04 15:17:32			0	36306	0	0	0	26179	24790	149053	26901	1028012	43355	109694	0	0	8183	619560	0	0
2024-07-04 15:18:32			0	36279	0	0	0	26192	24790	149053	26844	1027994	43344	109699	0	0	8181	620699	0	0
2024-07-04 15:19:32			0	36295	0	0	0	26192	24800	149133	26965	1028003	43378	109699	0	0	8182	619989	0	0
2024-07-04 15:20:32			0	36276	0	0	0	26181	24790	149085	26934	1028074	43367	109695	0	0	8181	620826	0	0
2024-07-04 15:21:32			0	36300	0	0	0	26179	24800	149033	26963	1028038	43357	109694	0	0	8183	619778	0	0
2024-07-04 15:22:32			0	36317	0	0	0	26194	24790	149009	27041	1028074	43367	109700	0	0	8183	619096	0	0
2024-07-04 15:23:32			0	36311	0	0	0	26199	24800	149001	27270	1028056	43378	109702	0	0	8183	619314	0	0
2024-07-04 15:24:32			0	36323	0	0	0	26202	24810	148961	27298	1028127	43368	109703	0	0	8184	618773	0	0
2024-07-04 15:25:32			0	36296	0	0	0	26207	24810	149033	27168	1028109	43358	109705	0	0	8182	619911	0	0
2024-07-04 15:26:32			0	36292	0	0	0	26194	24820	149117	27043	1028091	43369	109700	0	0	8182	620045	0	0
2024-07-04 15:27:32			0	36293	0	0	0	26192	24810	149017	26965	1028074	43368	109699	0	0	8182	620038	0	0
2024-07-04 15:28:32			0	36302	0	0	0	26194	24810	148945	27029	1028127	43379	109700	0	0	8183	619658	0	0
2024-07-04 15:29:32			0	36349	0	0	0	26210	24820	148885	26831	1028153	43359	109706	0	0	8185	617643	0	0
2024-07-04 15:30:32			0	36331	0	0	0	26210	24820	148917	27126	1028171	43358	109706	0	0	8184	618401	0	0
2024-07-04 15:31:32			0	36321	0	0	0	26205	24820	148949	26911	1028073	43370	109704	0	0	8183	618822	0	0
2024-07-04 15:32:32			0	36343	0	0	0	26197	24820	148817	26928	1028091	43358	109701	0	0	8185	617896	0	0
2024-07-04 15:33:32			0	36377	0	0	0	26176	24820	148769	27118	1028153	43359	109693	0	0	8187	616465	0	0
2024-07-04 15:34:32			0	36416	0	0	0	26174	24820	148777	26949	1028145	43358	109692	0	0	8189	614828	0	0
2024-07-04 15:35:32			0	36438	0	0	0	26176	24820	148509	27338	1028145	43369	109693	0	0	8190	613905	0	0
2024-07-04 15:36:32			0	36465	0	0	0	26189	24810	148361	27133	1028056	43369	109698	0	0	8191	612809	0	0
2024-07-04 15:37:32			0	36471	0	0	0	26202	24820	148405	27303	1028234	43381	109703	0	0	8191	612523	0	0
2024-07-04 15:38:32			0	36452	0	0	0	26223	24830	148493	27092	1028269	43371	109711	0	0	8190	613284	0	0
2024-07-04 15:39:32			0	36432	0	0	0	26231	24830	148481	27161	1028189	43382	109714	0	0	8189	614122	0	0
2024-07-04 15:40:32			0	36414	0	0	0	26210	24840	148581	27078	1028206	43360	109706	0	0	8188	614842	0	0
2024-07-04 15:41:32			0	36424	0	0	0	26207	24840	148653	27265	1028161	43372	109705	0	0	8189	614423	0	0
2024-07-04 15:42:32			0	36431	0	0	0	26192	24830	148529	27204	1028144	43349	109699	0	0	8190	614164	0	0
2024-07-04 15:43:32			0	36436	0	0	0	26181	24820	148485	27190	1028171	43358	109695	0	0	8190	613989	0	0
2024-07-04 15:44:32			0	36439	0	0	0	26192	24830	148413	27163	1028144	43360	109699	0	0	8190	613829	0	0
2024-07-04 15:45:32			0	36452	0	0	0	26189	24830	148445	27140	1028216	43360	109698	0	0	8191	613284	0	0
2024-07-04 15:46:32			0	36482	0	0	0	26181	24830	148421	27052	1028162	43371	109695	0	0	8192	612029	0	0
2024-07-04 15:47:32			0	36468	0	0	0	26192	24820	148441	27027	1028207	43348	109699	0	0	8191	612649	0	0
2024-07-04 15:48:32			0	36475	0	0	0	26199	24830	148457	27422	1028242	43382	109702	0	0	8192	612322	0	0
2024-07-04 15:49:32			0	36463	0	0	0	26205	24830	148409	27133	1028305	43360	109704	0	0	8191	612824	0	0
2024-07-04 15:50:32			0	36458	0	0	0	26220	24830	148501	27147	1028251	43371	109710	0	0	8190	613033	0	0
2024-07-04 15:51:32			0	36447	0	0	0	26231	24850	148441	26968	1028384	43362	109714	0	0	8190	613424	0	0
2024-07-04 15:52:32			0	36415	0	0	0	26267	24860	148625	27294	1028375	43373	109728	0	0	8188	614730	0	0
2024-07-04 15:53:32			0	36364	0	0	0	26275	24870	148801	26889	1028499	43375	109731	0	0	8185	616837	0	0
2024-07-04 15:54:32			0	36309	0	0	0	26283	24860	149113	27274	1028437	43363	109734	0	0	8182	619188	0	0
2024-07-04 15:55:32			0	36280	0	0	0	26280	24880	149093	27370	1028490	43375	109733	0	0	8180	620341	0	0
2024-07-04 15:56:32			0	36266	0	0	0	26280	24880	149145	27145	1028498	43386	109733	0	0	8180	620932	0	0
2024-07-04 15:57:32			0	36277	0	0	0	26267	24880	149065	27012	1028490	43352	109728	0	0	8180	620467	0	0
2024-07-04 15:58:32			0	36290	0	0	0	26270	24880	148969	26996	1028445	43365	109729	0	0	8181	619919	0	0
2024-07-04 15:59:32			0	36322	0	0	0	26264	24880	148957	27199	1028463	43364	109727	0	0	8183	618570	0	0
2024-07-04 16:00:32			0	36329	0	0	0	26254	24890	149017	27112	1028435	43377	109723	0	0	8183	618240	0	0
2024-07-04 16:01:32			0	36355	0	0	0	26244	24880	148921	27154	1028436	43352	109719	0	0	8185	617181	0	0
2024-07-04 16:02:32			0	36339	0	0	0	26257	24870	148813	26937	1028454	43364	109724	0	0	8184	617889	0	0
2024-07-04 16:03:32			0	36353	0	0	0	26259	24880	148937	27260	1028463	43364	109725	0	0	8185	617265	0	0
2024-07-04 16:04:32			0	36360	0	0	0	26272	24880	148877	26889	1028436	43352	109730	0	0	8185	616970	0	0
2024-07-04 16:05:32			0	36340	0	0	0	26275	24870	148809	26823	1028401	43385	109731	0	0	8184	617847	0	0
2024-07-04 16:06:32			0	36340	0	0	0	26272	24880	148741	27043	1028436	43364	109730	0	0	8184	617812	0	0
2024-07-04 16:07:32			0	36342	0	0	0	26246	24880	148917	27220	1028391	43353	109720	0	0	8184	617728	0	0
2024-07-04 16:08:32			0	36337	0	0	0	26257	24870	148785	27348	1028401	43364	109724	0	0	8184	617973	0	0
2024-07-04 16:09:32			0	36371	0	0	0	26254	24880	148713	26908	1028383	43375	109723	0	0	8186	616508	0	0
2024-07-04 16:10:32			0	36376	0	0	0	26246	24870	148669	27199	1028401	43375	109720	0	0	8186	616333	0	0
2024-07-04 16:11:32			0	36395	0	0	0	26244	24870	148625	27093	1028374	43375	109719	0	0	8187	615535	0	0
2024-07-04 16:12:32			0	36412	0	0	0	26236	24870	148477	27090	1028401	43364	109716	0	0	8188	614821	0	0
2024-07-04 16:13:32			0	36432	0	0	0	26251	24860	148581	27164	1028357	43374	109722	0	0	8189	614018	0	0
2024-07-04 16:14:32			0	36433	0	0	0	26251	24880	148329	26982	1028410	43375	109722	0	0	8189	613906	0	0
2024-07-04 16:15:32			0	36437	0	0	0	26280	24880	148461	27194	1028490	43364	109733	0	0	8189	613739	0	0
2024-07-04 16:16:32			0	36424	0	0	0	26285	24880	148433	27206	1028498	43365	109735	0	0	8188	614283	0	0
2024-07-04 16:17:32			0	36406	0	0	0	26277	24880	148525	27074	1028472	43365	109732	0	0	8187	615038	0	0
2024-07-04 16:18:32			0	36400	0	0	0	26280	24880	148649	27170	1028391	43375	109733	0	0	8187	615290	0	0
2024-07-04 16:19:32			0	36425	0	0	0	26267	24880	148581	27072	1028445	43365	109728	0	0	8188	614242	0	0
2024-07-04 16:20:32			0	36438	0	0	0	26267	24880	148401	27182	1028498	43375	109728	0	0	8189	613697	0	0
2024-07-04 16:21:32			0	36448	0	0	0	26257	24890	148417	27265	1028427	43376	109724	0	0	8190	613243	0	0
2024-07-04 16:22:32			0	36470	0	0	0	26264	24890	148321	27332	1028480	43366	109727	0	0	8191	612322	0	0
2024-07-04 16:23:32			0	36478	0	0	0	26257	24890	148289	27289	1028454	43376	109724	0	0	8191	611988	0	0
2024-07-04 16:24:32			0	36500	0	0	0	26254	24890	148281	27248	1028480	43376	109723	0	0	8192	611069	0	0
2024-07-04 16:25:32			0	36521	0	0	0	26262	24880	148129	26951	1028498	43365	109726	0	0	8193	610226	0	0
2024-07-04 16:26:32			0	36518	0	0	0	26257	24890	148081	27071	1028400	43376	109724	0	0	8193	610317	0	0
2024-07-04 16:27:32			0	36527	0	0	0	26262	24890	148033	27124	1028489	43377	109726	0	0	8194	609942	0	0
2024-07-04 16:28:32			0	36514	0	0	0	26277	24900	148101	27098	1028578	43388	109732	0	0	8193	610449	0	0
2024-07-04 16:29:32			0	36505	0	0	0	26301	24900	148153	27187	1028632	43367	109741	0	0	8192	610825	0	0
2024-07-04 16:30:32			0	36497	0	0	0	26311	24910	148145	26909	1028595	43378	109745	0	0	8191	611125	0	0
2024-07-04 16:31:32			0	36480	0	0	0	26309	24920	148441	27329	1028577	43368	109744	0	0	8191	611800	0	0
2024-07-04 16:32:32			0	36437	0	0	0	26306	24910	148437	26830	1028649	43368	109743	0	0	8188	613634	0	0
2024-07-04 16:33:32			0	36438	0	0	0	26303	24920	148449	27329	1028684	43379	109742	0	0	8188	613558	0	0
2024-07-04 16:34:32			0	36436	0	0	0	26293	24900	148481	27281	1028587	43377	109738	0	0	8188	613711	0	0
2024-07-04 16:35:32			0	36449	0	0	0	26293	24920	148313	27124	1028684	43379	109738	0	0	8189	613097	0	0
2024-07-04 16:36:32			0	36441	0	0	0	26322	24920	148389	27300	1028747	43390	109749	0	0	8188	613432	0	0
2024-07-04 16:37:32			0	36428	0	0	0	26337	24930	148481	27138	1028791	43391	109755	0	0	8187	613942	0	0
2024-07-04 16:38:32			0	36411	0	0	0	26345	24930	148685	27083	1028782	43390	109758	0	0	8186	614654	0	0
2024-07-04 16:39:32			0	36385	0	0	0	26340	24950	148617	27265	1028817	43381	109756	0	0	8185	615676	0	0
2024-07-04 16:40:32			0	36362	0	0	0	26345	24940	148725	27097	1028808	43381	109758	0	0	8184	616677	0	0
2024-07-04 16:41:32			0	36369	0	0	0	26350	24950	148613	27338	1028853	43382	109760	0	0	8184	616348	0	0
2024-07-04 16:42:32			0	36353	0	0	0	26366	24950	148705	27261	1028853	43371	109766	0	0	8183	617020	0	0
2024-07-04 16:43:32			0	36358	0	0	0	26353	24950	148725	27197	1028817	43381	109761	0	0	8184	616810	0	0
2024-07-04 16:44:32			0	36349	0	0	0	26337	24950	148693	27419	1028853	43382	109755	0	0	8183	617188	0	0
2024-07-04 16:45:32			0	36384	0	0	0	26324	24950	148593	27455	1028719	43382	109750	0	0	8185	615718	0	0
2024-07-04 16:46:32			0	36421	0	0	0	26303	24940	148493	27512	1028728	43381	109742	0	0	8188	614200	0	0
2024-07-04 16:47:32			0	36452	0	0	0	26316	24940	148457	27656	1028755	43370	109747	0	0	8189	612902	0	0
2024-07-04 16:48:32			0	36479	0	0	0	26309	24940	148193	27426	1028782	43370	109744	0	0	8191	611773	0	0
2024-07-04 16:49:32			0	36507	0	0	0	26316	24940	148125	27215	1028755	43359	109747	0	0	8192	610603	0	0
2024-07-04 16:50:32			0	36526	0	0	0	26335	24950	148049	27116	1028871	43381	109754	0	0	8193	609776	0	0
2024-07-04 16:51:32			0	36525	0	0	0	26407	24960	148009	26991	1028968	43394	109782	0	0	8191	609783	0	0
2024-07-04 16:52:32			0	36490	0	0	0	26402	24970	148161	27057	1028986	43406	109780	0	0	8190	611209	0	0
2024-07-04 16:53:32			0	36494	0	0	0	26389	24970	148233	26963	1028994	43395	109775	0	0	8190	611042	0	0
2024-07-04 16:54:32			0	36511	0	0	0	26399	24990	148241	27072	1029101	43385	109779	0	0	8191	610263	0	0
2024-07-04 16:55:32			0	36506	0	0	0	26410	24990	148137	27192	1029109	43385	109783	0	0	8190	610472	0	0
2024-07-04 16:56:32			0	36497	0	0	0	26420	25000	148177	27628	1029172	43398	109787	0	0	8190	610813	0	0
2024-07-04 16:57:32			0	36523	0	0	0	26425	25010	148161	27313	1029189	43387	109789	0	0	8191	609694	0	0
2024-07-04 16:58:32			0	36516	0	0	0	26415	25010	147985	27291	1029118	43387	109785	0	0	8191	609985	0	0
2024-07-04 16:59:32			0	36544	0	0	0	26386	25010	147941	27161	1029056	43366	109774	0	0	8193	608819	0	0
2024-07-04 17:00:32			0	36599	0	0	0	26363	25000	147806	26981	1028957	43398	109765	0	0	8196	606565	0	0
2024-07-04 17:01:32			0	36626	0	0	0	26350	25000	147558	27001	1028966	43366	109760	0	0	8198	605444	0	0
2024-07-04 17:02:32			0	36690	0	0	0	26342	24990	147330	27196	1028949	43364	109757	0	0	8201	602826	0	0
2024-07-04 17:03:32			0	36727	0	0	0	26368	24990	147202	26960	1029002	43375	109767	0	0	8203	601297	0	0
2024-07-04 17:04:32			0	36731	0	0	0	26386	25000	147190	27064	1029065	43386	109774	0	0	8203	601098	0	0
2024-07-04 17:05:32			0	36741	0	0	0	26399	24990	147214	27017	1029083	43397	109779	0	0	8203	600719	0	0
2024-07-04 17:06:32			0	36710	0	0	0	26379	25010	147266	27145	1029029	43376	109771	0	0	8202	601931	0	0
2024-07-04 17:07:32			0	36715	0	0	0	26345	25010	147242	27248	1029002	43366	109758	0	0	8203	601724	0	0
2024-07-04 17:08:32			0	36737	0	0	0	26345	24990	147146	27072	1029029	43375	109758	0	0	8204	600884	0	0
2024-07-04 17:09:32			0	36774	0	0	0	26345	24990	146966	26979	1028967	43375	109758	0	0	8206	599358	0	0
2024-07-04 17:10:32			0	36814	0	0	0	26345	24990	146830	27320	1028994	43375	109758	0	0	8208	597711	0	0
2024-07-04 17:11:32			0	36811	0	0	0	26329	24990	146870	27364	1028860	43375	109752	0	0	8208	597834	0	0
2024-07-04 17:12:32			0	36851	0	0	0	26327	24980	146774	27071	1028931	43364	109751	0	0	8210	596224	0	0
2024-07-04 17:13:32			0	36852	0	0	0	26329	24980	146638	27095	1028878	43385	109752	0	0	8210	596183	0	0
2024-07-04 17:14:32			0	36865	0	0	0	26337	24980	146598	27121	1028931	43385	109755	0	0	8210	595649	0	0
2024-07-04 17:15:32			0	36866	0	0	0	26368	24990	146626	27060	1029020	43408	109767	0	0	8210	595574	0	0
2024-07-04 17:16:32			0	36838	0	0	0	26402	25000	146830	26948	1029172	43398	109780	0	0	8208	596690	0	0
2024-07-04 17:17:32			0	36773	0	0	0	26423	25000	147034	27149	1029180	43398	109788	0	0	8204	599365	0	0
2024-07-04 17:18:32			0	36701	0	0	0	26438	25020	147214	27131	1029242	43400	109794	0	0	8200	602269	0	0
2024-07-04 17:19:32			0	36658	0	0	0	26433	25030	147478	27085	1029233	43401	109792	0	0	8198	604014	0	0
2024-07-04 17:20:32			0	36649	0	0	0	26420	25030	147546	27078	1029224	43390	109787	0	0	8198	604387	0	0
2024-07-04 17:21:32			0	36653	0	0	0	26410	25030	147426	27114	1029179	43379	109783	0	0	8198	604221	0	0
2024-07-04 17:22:32			0	36678	0	0	0	26392	25020	147354	27178	1029135	43378	109776	0	0	8200	603220	0	0
2024-07-04 17:23:32			0	36714	0	0	0	26389	25020	147230	26998	1029135	43367	109775	0	0	8202	601731	0	0
2024-07-04 17:24:32			0	36732	0	0	0	26389	25020	147218	26644	1029100	43388	109775	0	0	8203	600988	0	0
2024-07-04 17:25:32			0	36700	0	0	0	26397	25020	147154	26941	1029153	43377	109778	0	0	8201	602310	0	0
2024-07-04 17:26:32			0	36748	0	0	0	26394	25020	147138	26979	1029126	43399	109777	0	0	8204	600328	0	0
2024-07-04 17:27:32			0	36766	0	0	0	26394	25020	147058	27145	1029189	43367	109777	0	0	8205	599586	0	0
2024-07-04 17:28:32			0	36749	0	0	0	26407	25030	147134	26923	1029144	43401	109782	0	0	8203	600252	0	0
2024-07-04 17:29:32			0	36735	0	0	0	26412	25030	147082	26994	1029144	43390	109784	0	0	8203	600830	0	0
2024-07-04 17:30:32			0	36729	0	0	0	26410	25020	147190	26982	1029215	43378	109783	0	0	8202	601112	0	0
2024-07-04 17:31:32			0	36714	0	0	0	26407	25030	147174	27255	1029144	43379	109782	0	0	8202	601697	0	0
2024-07-04 17:32:32			0	36715	0	0	0	26402	25030	147118	27246	1029197	43379	109780	0	0	8202	601656	0	0
2024-07-04 17:33:32			0	36715	0	0	0	26431	25040	147146	27072	1029250	43391	109791	0	0	8201	601622	0	0
2024-07-04 17:34:32			0	36712	0	0	0	26457	25050	147254	27242	1029312	43381	109801	0	0	8201	601712	0	0
2024-07-04 17:35:32			0	36693	0	0	0	26488	25060	147350	26861	1029437	43381	109813	0	0	8199	602463	0	0
2024-07-04 17:36:32			0	36643	0	0	0	26506	25060	147490	27152	1029491	43415	109820	0	0	8196	604533	0	0
2024-07-04 17:37:32			0	36629	0	0	0	26514	25070	147610	27242	1029517	43394	109823	0	0	8196	605079	0	0
2024-07-04 17:38:32			0	36603	0	0	0	26522	25090	147594	26854	1029623	43396	109826	0	0	8194	606089	0	0
2024-07-04 17:39:32			0	36579	0	0	0	26537	25090	147637	26986	1029686	43408	109832	0	0	8193	607086	0	0
2024-07-04 17:40:32			0	36584	0	0	0	26548	25100	147669	27260	1029730	43408	109836	0	0	8193	606844	0	0
2024-07-04 17:41:32			0	36595	0	0	0	26555	25110	147617	27079	1029801	43410	109839	0	0	8193	606353	0	0
2024-07-04 17:42:32			0	36588	0	0	0	26568	25120	147705	27286	1029711	43410	109844	0	0	8193	606609	0	0
2024-07-04 17:43:32			0	36579	0	0	0	26571	25130	147705	27182	1029827	43411	109845	0	0	8192	606949	0	0
2024-07-04 17:44:32			0	36589	0	0	0	26566	25140	147681	27204	1029764	43422	109843	0	0	8193	606499	0	0
2024-07-04 17:45:32			0	36618	0	0	0	26550	25140	147574	26840	1029853	43412	109837	0	0	8195	605295	0	0
2024-07-04 17:46:32			0	36658	0	0	0	26537	25130	147342	26963	1029728	43389	109832	0	0	8197	603672	0	0
2024-07-04 17:47:32			0	36702	0	0	0	26529	25150	147110	27242	1029817	43402	109829	0	0	8199	601784	0	0
2024-07-04 17:48:32			0	36747	0	0	0	26555	25160	146906	27190	1029932	43402	109839	0	0	8201	599892	0	0
2024-07-04 17:49:32			0	36805	0	0	0	26561	25160	146674	27332	1029887	43414	109841	0	0	8204	597505	0	0
2024-07-04 17:50:32			0	36856	0	0	0	26511	25150	146570	27251	1029736	43391	109822	0	0	8208	595444	0	0
2024-07-04 17:51:32			0	36901	0	0	0	26446	25150	146210	27033	1029594	43390	109797	0	0	8211	593600	0	0
2024-07-04 17:52:32			0	36957	0	0	0	26423	25130	146142	27095	1029594	43389	109788	0	0	8214	591378	0	0
2024-07-04 17:53:32			0	36990	0	0	0	26389	25110	145966	26902	1029506	43365	109775	0	0	8217	590099	0	0
2024-07-04 17:54:32			0	37012	0	0	0	26368	25100	145994	26998	1029328	43364	109767	0	0	8218	589236	0	0
2024-07-04 17:55:32			0	36979	0	0	0	26345	25080	146042	27133	1029311	43361	109758	0	0	8217	590648	0	0
2024-07-04 17:56:32			0	36933	0	0	0	26412	25090	146262	27196	1029471	43385	109784	0	0	8213	592493	0	0
2024-07-04 17:57:32			0	36879	0	0	0	26459	25100	146570	27329	1029623	43418	109802	0	0	8210	594670	0	0
2024-07-04 17:58:32			0	36844	0	0	0	26451	25090	146554	26974	1029525	43385	109799	0	0	8208	596139	0	0
2024-07-04 17:59:32			0	36816	0	0	0	26462	25100	146670	27156	1029542	43397	109803	0	0	8206	597256	0	0
2024-07-04 18:00:32			0	36791	0	0	0	26467	25100	146790	26949	1029507	43397	109805	0	0	8205	598284	0	0
2024-07-04 18:01:32			0	36762	0	0	0	26480	25100	146910	27111	1029560	43375	109810	0	0	8203	599478	0	0
2024-07-04 18:02:32			0	36735	0	0	0	26480	25090	146994	27010	1029552	43397	109810	0	0	8202	600626	0	0
2024-07-04 18:03:32			0	36725	0	0	0	26488	25100	147126	27060	1029489	43385	109813	0	0	8201	601004	0	0
2024-07-04 18:04:32			0	36707	0	0	0	26470	25100	147110	27105	1029453	43397	109806	0	0	8200	601748	0	0
2024-07-04 18:05:32			0	36725	0	0	0	26464	25100	147126	26918	1029453	43397	109804	0	0	8202	601004	0	0
2024-07-04 18:06:32			0	36727	0	0	0	26451	25090	146950	26972	1029391	43375	109799	0	0	8202	600956	0	0
2024-07-04 18:07:32			0	36741	0	0	0	26441	25080	147026	27351	1029445	43394	109795	0	0	8203	600412	0	0
2024-07-04 18:08:32			0	36748	0	0	0	26444	25070	146982	27208	1029303	43382	109796	0	0	8203	600158	0	0
2024-07-04 18:09:32			0	36798	0	0	0	26394	25070	146854	27057	1029303	43361	109777	0	0	8206	598098	0	0
2024-07-04 18:10:32			0	36808	0	0	0	26376	25050	146818	27183	1029161	43359	109770	0	0	8207	597754	0	0
2024-07-04 18:11:32			0	36832	0	0	0	26361	25060	146674	27287	1029196	43381	109764	0	0	8209	596734	0	0
2024-07-04 18:12:32			0	36867	0	0	0	26368	25040	146566	27277	1029161	43379	109767	0	0	8210	595365	0	0
2024-07-04 18:13:32			0	36898	0	0	0	26361	25040	146430	27331	1029215	43379	109764	0	0	8212	594094	0	0
2024-07-04 18:14:32			0	36903	0	0	0	26379	25040	146410	27003	1029170	43402	109771	0	0	8212	593889	0	0
2024-07-04 18:15:32			0	36939	0	0	0	26376	25040	146346	26975	1029215	43368	109770	0	0	8214	592416	0	0
2024-07-04 18:16:32			0	36936	0	0	0	26368	25040	146302	26965	1029134	43390	109767	0	0	8214	592539	0	0
2024-07-04 18:17:32			0	36961	0	0	0	26361	25020	146294	26769	1029055	43367	109764	0	0	8215	591584	0	0
2024-07-04 18:18:32			0	36972	0	0	0	26348	25020	146226	27000	1029126	43388	109759	0	0	8216	591135	0	0
2024-07-04 18:19:32			0	36995	0	0	0	26350	25020	146122	26987	1029100	43388	109760	0	0	8217	590196	0	0
2024-07-04 18:20:32			0	36994	0	0	0	26363	25030	146138	26991	1029117	43379	109765	0	0	8217	590204	0	0
2024-07-04 18:21:32			0	37010	0	0	0	26366	25020	146074	27480	1029135	43389	109766	0	0	8218	589585	0	0
2024-07-04 18:22:32			0	37009	0	0	0	26381	25010	146098	26889	1029145	43387	109772	0	0	8217	589659	0	0
2024-07-04 18:23:32			0	37001	0	0	0	26361	25010	146066	27008	1029064	43376	109764	0	0	8217	589985	0	0
2024-07-04 18:24:32			0	37001	0	0	0	26355	25000	146066	27064	1028993	43354	109762	0	0	8217	590019	0	0
2024-07-04 18:25:32			0	37012	0	0	0	26363	25000	146114	27152	1029020	43387	109765	0	0	8218	589570	0	0
2024-07-04 18:26:32			0	37002	0	0	0	26376	25010	146054	27211	1029029	43376	109770	0	0	8217	589945	0	0
2024-07-04 18:27:32			0	37013	0	0	0	26399	25010	146074	27315	1029163	43398	109779	0	0	8217	589496	0	0
2024-07-04 18:28:32			0	36999	0	0	0	26410	25020	146174	27111	1029234	43388	109783	0	0	8216	590033	0	0
2024-07-04 18:29:32			0	36960	0	0	0	26433	25020	146350	27135	1029215	43389	109792	0	0	8214	591625	0	0
2024-07-04 18:30:32			0	36906	0	0	0	26428	25020	146398	26856	1029242	43389	109790	0	0	8211	593834	0	0
2024-07-04 18:31:32			0	36887	0	0	0	26433	25030	146694	26819	1029233	43401	109792	0	0	8210	594578	0	0
2024-07-04 18:32:32			0	36854	0	0	0	26428	25030	146762	26892	1029260	43401	109790	0	0	8209	595932	0	0
2024-07-04 18:33:32			0	36813	0	0	0	26446	25040	146814	27173	1029402	43401	109797	0	0	8206	597583	0	0
2024-07-04 18:34:32			0	36800	0	0	0	26462	25050	146978	27140	1029429	43392	109803	0	0	8205	598083	0	0
2024-07-04 18:35:32			0	36765	0	0	0	26462	25060	147006	27265	1029437	43392	109803	0	0	8203	599491	0	0
2024-07-04 18:36:32			0	36753	0	0	0	26454	25050	147086	27083	1029429	43381	109800	0	0	8203	600019	0	0
2024-07-04 18:37:32			0	36769	0	0	0	26446	25060	147114	27173	1029312	43393	109797	0	0	8204	599326	0	0
2024-07-04 18:38:32			0	36759	0	0	0	26420	25060	147146	27078	1029250	43381	109787	0	0	8204	599738	0	0
2024-07-04 18:39:32			0	36781	0	0	0	26412	25050	146966	26967	1029214	43392	109784	0	0	8205	598866	0	0
2024-07-04 18:40:32			0	36813	0	0	0	26392	25030	146810	27370	1029224	43379	109776	0	0	8207	597616	0	0
2024-07-04 18:41:32			0	36828	0	0	0	26394	25040	146654	26977	1029277	43402	109777	0	0	8208	596966	0	0
2024-07-04 18:42:32			0	36875	0	0	0	26428	25050	146602	27098	1029393	43392	109790	0	0	8210	595003	0	0
2024-07-04 18:43:32			0	36901	0	0	0	26444	25050	146610	27048	1029455	43403	109796	0	0	8211	593937	0	0
2024-07-04 18:44:32			0	36856	0	0	0	26480	25060	146594	26798	1029518	43403	109810	0	0	8208	595748	0	0
2024-07-04 18:45:32			0	36834	0	0	0	26483	25080	146734	27076	1029526	43405	109811	0	0	8207	596584	0	0
2024-07-04 18:46:32			0	36811	0	0	0	26475	25070	146858	27388	1029490	43405	109808	0	0	8206	597563	0	0
2024-07-04 18:47:32			0	36794	0	0	0	26451	25080	146874	27140	1029418	43382	109799	0	0	8205	598229	0	0
2024-07-04 18:48:32			0	36808	0	0	0	26444	25070	146934	27467	1029437	43394	109796	0	0	8206	597687	0	0
2024-07-04 18:49:32			0	36815	0	0	0	26457	25070	146898	26882	1029428	43382	109801	0	0	8206	597399	0	0
2024-07-04 18:50:32			0	36829	0	0	0	26454	25070	146806	26859	1029347	43394	109800	0	0	8207	596823	0	0
2024-07-04 18:51:32			0	36866	0	0	0	26438	25070	146738	26951	1029321	43382	109794	0	0	8209	595304	0	0
2024-07-04 18:52:32			0	36844	0	0	0	26394	25060	146654	26941	1029223	43381	109777	0	0	8209	596241	0	0
2024-07-04 18:53:32			0	36922	0	0	0	26381	25050	146614	27166	1029107	43381	109772	0	0	8213	593078	0	0
2024-07-04 18:54:32			0	36938	0	0	0	26386	25050	146334	26987	1029232	43370	109774	0	0	8214	592423	0	0
2024-07-04 18:55:32			0	36987	0	0	0	26381	25040	146350	26994	1029170	43369	109772	0	0	8216	590456	0	0
2024-07-04 18:56:32			0	36989	0	0	0	26389	25020	146250	26913	1029180	43377	109775	0	0	8216	590441	0	0
2024-07-04 18:57:32			0	36998	0	0	0	26386	25030	146142	27118	1029179	43379	109774	0	0	8217	590041	0	0
2024-07-04 18:58:32			0	37023	0	0	0	26386	25030	146122	26739	1029171	43390	109774	0	0	8218	589022	0	0
2024-07-04 18:59:32			0	37030	0	0	0	26389	25030	146150	27381	1029197	43390	109775	0	0	8218	588737	0	0
2024-07-04 19:00:32			0	37051	0	0	0	26412	25030	145930	27052	1029340	43401	109784	0	0	8219	587882	0	0
2024-07-04 19:01:32			0	37051	0	0	0	26428	25050	146034	27085	1029339	43392	109790	0	0	8219	587816	0	0
2024-07-04 19:02:32			0	37022	0	0	0	26459	25050	146106	27024	1029482	43403	109802	0	0	8217	588996	0	0
2024-07-04 19:03:32			0	36972	0	0	0	26475	25060	146174	27020	1029410	43415	109808	0	0	8214	591001	0	0
2024-07-04 19:04:32			0	36918	0	0	0	26490	25060	146402	27067	1029464	43403	109814	0	0	8211	593208	0	0
2024-07-04 19:05:32			0	36876	0	0	0	26488	25070	146626	27046	1029437	43394	109813	0	0	8209	594894	0	0
2024-07-04 19:06:32			0	36835	0	0	0	26496	25070	146726	27211	1029508	43394	109816	0	0	8207	596577	0	0
2024-07-04 19:07:32			0	36823	0	0	0	26496	25070	146914	26986	1029437	43405	109816	0	0	8206	597070	0	0
2024-07-04 19:08:32			0	36821	0	0	0	26477	25070	146866	27253	1029463	43394	109809	0	0	8206	597152	0	0
2024-07-04 19:09:32			0	36824	0	0	0	26467	25070	146786	26909	1029374	43382	109805	0	0	8207	597029	0	0
2024-07-04 19:10:32			0	36836	0	0	0	26454	25060	146762	27100	1029330	43392	109800	0	0	8207	596570	0	0
2024-07-04 19:11:32			0	36876	0	0	0	26425	25060	146722	27036	1029277	43392	109789	0	0	8210	594928	0	0
2024-07-04 19:12:32			0	36911	0	0	0	26410	25050	146466	27196	1029241	43392	109783	0	0	8212	593528	0	0
2024-07-04 19:13:32			0	36939	0	0	0	26420	25050	146394	27090	1029295	43381	109787	0	0	8213	592382	0	0
2024-07-04 19:14:32			0	36967	0	0	0	26420	25040	146294	27225	1029223	43402	109787	0	0	8215	591272	0	0
2024-07-04 19:15:32			0	36965	0	0	0	26415	25050	146278	27111	1029205	43370	109785	0	0	8215	591320	0	0
2024-07-04 19:16:32			0	37011	0	0	0	26402	25040	146194	27050	1029223	43391	109780	0	0	8217	589477	0	0
2024-07-04 19:17:32			0	37004	0	0	0	26402	25030	146214	26984	1029117	43390	109780	0	0	8217	589796	0	0
2024-07-04 19:18:32			0	37020	0	0	0	26392	25030	146078	27057	1029179	43390	109776	0	0	8218	589144	0	0
2024-07-04 19:19:32			0	37033	0	0	0	26384	25020	146006	26998	1029108	43400	109773	0	0	8219	588648	0	0
2024-07-04 19:20:32			0	37060	0	0	0	26389	25030	146026	27206	1029117	43390	109775	0	0	8220	587516	0	0
2024-07-04 19:21:32			0	37074	0	0	0	26389	25020	145930	27064	1029135	43389	109775	0	0	8221	586980	0	0
2024-07-04 19:22:32			0	37087	0	0	0	26371	25010	145858	26956	1029145	43387	109768	0	0	8222	586486	0	0
2024-07-04 19:23:32			0	37107	0	0	0	26373	25020	145810	27429	1029153	43388	109769	0	0	8223	585641	0	0
2024-07-04 19:24:32			0	37133	0	0	0	26376	24990	145666	27364	1029083	43375	109770	0	0	8224	584686	0	0
2024-07-04 19:25:32			0	37145	0	0	0	26373	25010	145710	27246	1029056	43387	109769	0	0	8225	584133	0	0
2024-07-04 19:26:32			0	37153	0	0	0	26381	25000	145694	27079	1029091	43386	109772	0	0	8225	583842	0	0
2024-07-04 19:27:32			0	37163	0	0	0	26373	25010	145634	27277	1029082	43387	109769	0	0	8226	583405	0	0
2024-07-04 19:28:32			0	37128	0	0	0	26366	24980	145654	27216	1029012	43397	109766	0	0	8224	584922	0	0
2024-07-04 19:29:32			0	37149	0	0	0	26350	24990	145678	26961	1028994	43385	109760	0	0	8225	584038	0	0
2024-07-04 19:30:32			0	37148	0	0	0	26340	24980	145598	26722	1028905	43375	109756	0	0	8225	584111	0	0
2024-07-04 19:31:32			0	37158	0	0	0	26327	24970	145690	26852	1028834	43350	109751	0	0	8226	583739	0	0
2024-07-04 19:32:32			0	37156	0	0	0	26319	24960	145562	27497	1028790	43383	109748	0	0	8226	583854	0	0
2024-07-04 19:33:32			0	37177	0	0	0	26314	24960	145574	26930	1028816	43383	109746	0	0	8227	583004	0	0
2024-07-04 19:34:32			0	37177	0	0	0	26303	24950	145470	26823	1028737	43381	109742	0	0	8227	583037	0	0
2024-07-04 19:35:32			0	37199	0	0	0	26301	24940	145502	27001	1028701	43370	109741	0	0	8228	582180	0	0
2024-07-04 19:36:32			0	37202	0	0	0	26296	24940	145442	26982	1028693	43359	109739	0	0	8229	582059	0	0
2024-07-04 19:37:32			0	37210	0	0	0	26290	24930	145362	27227	1028630	43369	109737	0	0	8229	581768	0	0
2024-07-04 19:38:32			0	37225	0	0	0	26277	24920	145338	27060	1028586	43379	109732	0	0	8230	581196	0	0
2024-07-04 19:39:32			0	37235	0	0	0	26262	24930	145266	26955	1028621	43368	109726	0	0	8231	580759	0	0
2024-07-04 19:40:32			0	37260	0	0	0	26267	24900	145278	27204	1028533	43367	109728	0	0	8232	579849	0	0
2024-07-04 19:41:32			0	37253	0	0	0	26254	24910	145354	27156	1028488	43368	109723	0	0	8232	580099	0	0
2024-07-04 19:42:32			0	37255	0	0	0	26262	24900	145266	27171	1028506	43377	109726	0	0	8232	580051	0	0
2024-07-04 19:43:32			0	37256	0	0	0	26262	24890	145318	27012	1028516	43355	109726	0	0	8232	580043	0	0
2024-07-04 19:44:32			0	37238	0	0	0	26267	24890	145338	27272	1028543	43377	109728	0	0	8231	580770	0	0
2024-07-04 19:45:32			0	37266	0	0	0	26267	24900	145322	26911	1028551	43388	109728	0	0	8232	579607	0	0
2024-07-04 19:46:32			0	37251	0	0	0	26264	24880	145222	27357	1028552	43375	109727	0	0	8231	580278	0	0
2024-07-04 19:47:32			0	37239	0	0	0	26264	24880	145406	27282	1028472	43386	109727	0	0	8231	580762	0	0
2024-07-04 19:48:32			0	37256	0	0	0	26267	24880	145406	27161	1028525	43375	109728	0	0	8232	580076	0	0
2024-07-04 19:49:32			0	37240	0	0	0	26277	24890	145522	26790	1028561	43376	109732	0	0	8231	580689	0	0
2024-07-04 19:50:32			0	37210	0	0	0	26270	24890	145390	27248	1028534	43376	109729	0	0	8229	581900	0	0
2024-07-04 19:51:32			0	37216	0	0	0	26288	24870	145510	27241	1028508	43375	109736	0	0	8229	581724	0	0
2024-07-04 19:52:32			0	37191	0	0	0	26280	24870	145634	27152	1028481	43385	109733	0	0	8228	582734	0	0
2024-07-04 19:53:32			0	37182	0	0	0	26288	24880	145522	26998	1028552	43375	109736	0	0	8227	583066	0	0
2024-07-04 19:54:32			0	37170	0	0	0	26285	24880	145638	27223	1028570	43385	109735	0	0	8227	583551	0	0
2024-07-04 19:55:32			0	37149	0	0	0	26288	24890	145718	27327	1028587	43376	109736	0	0	8226	584369	0	0
2024-07-04 19:56:32			0	37123	0	0	0	26280	24880	145778	27249	1028543	43397	109733	0	0	8224	585456	0	0
2024-07-04 19:57:32			0	37112	0	0	0	26283	24880	146002	26979	1028606	43386	109734	0	0	8224	585903	0	0
2024-07-04 19:58:32			0	37096	0	0	0	26285	24880	145954	27135	1028525	43386	109735	0	0	8223	586552	0	0
2024-07-04 19:59:32			0	37058	0	0	0	26288	24880	146006	27001	1028579	43386	109736	0	0	8221	588097	0	0
2024-07-04 20:00:32			0	37050	0	0	0	26285	24880	146118	27412	1028570	43397	109735	0	0	8221	588423	0	0
2024-07-04 20:01:32			0	37016	0	0	0	26293	24880	146158	27422	1028543	43375	109738	0	0	8219	589808	0	0
2024-07-04 20:02:32			0	37009	0	0	0	26288	24890	146278	27064	1028614	43387	109736	0	0	8218	590060	0	0
2024-07-04 20:03:32			0	36989	0	0	0	26306	24890	146362	27149	1028614	43387	109743	0	0	8217	590876	0	0
2024-07-04 20:04:32			0	36959	0	0	0	26306	24890	146474	27109	1028587	43399	109743	0	0	8216	592102	0	0
2024-07-04 20:05:32			0	36913	0	0	0	26314	24900	146630	27320	1028605	43388	109746	0	0	8213	593951	0	0
2024-07-04 20:06:32			0	36871	0	0	0	26319	24890	146778	27112	1028676	43399	109748	0	0	8211	595707	0	0
2024-07-04 20:07:32			0	36839	0	0	0	26311	24890	146818	27123	1028650	43377	109745	0	0	8209	597021	0	0
2024-07-04 20:08:32			0	36781	0	0	0	26314	24900	147026	26927	1028658	43388	109746	0	0	8206	599375	0	0
2024-07-04 20:09:32			0	36790	0	0	0	26306	24900	146998	27071	1028632	43377	109743	0	0	8207	599004	0	0
2024-07-04 20:10:32			0	36795	0	0	0	26293	24890	147130	27322	1028561	43376	109738	0	0	8207	598832	0	0
2024-07-04 20:11:32			0	36797	0	0	0	26293	24880	147074	27319	1028579	43375	109738	0	0	8207	598784	0	0
2024-07-04 20:12:32			0	36799	0	0	0	26288	24890	147006	27556	1028614	43387	109736	0	0	8207	598667	0	0
2024-07-04 20:13:32			0	36826	0	0	0	26285	24890	146994	27407	1028614	43387	109735	0	0	8209	597556	0	0
2024-07-04 20:14:32			0	36824	0	0	0	26293	24880	146914	27281	1028579	43398	109738	0	0	8209	597672	0	0
2024-07-04 20:15:32			0	36834	0	0	0	26288	24890	146818	27341	1028668	43376	109736	0	0	8209	597227	0	0
2024-07-04 20:16:32			0	36839	0	0	0	26290	24880	146966	27422	1028552	43375	109737	0	0	8209	597055	0	0
2024-07-04 20:17:32			0	36824	0	0	0	26277	24890	146930	27312	1028561	43376	109732	0	0	8209	597638	0	0
2024-07-04 20:18:32			0	36836	0	0	0	26275	24880	146850	27104	1028543	43385	109731	0	0	8210	597179	0	0
2024-07-04 20:19:32			0	36833	0	0	0	26288	24890	146878	27192	1028614	43399	109736	0	0	8209	597268	0	0
2024-07-04 20:20:32			0	36818	0	0	0	26301	24890	146922	27464	1028668	43399	109741	0	0	8208	597885	0	0
2024-07-04 20:21:32			0	36783	0	0	0	26301	24890	147150	27300	1028703	43388	109741	0	0	8206	599327	0	0
2024-07-04 20:22:32			0	36750	0	0	0	26309	24890	147246	27791	1028641	43387	109744	0	0	8205	600688	0	0
2024-07-04 20:23:32			0	36716	0	0	0	26298	24880	147322	27339	1028632	43375	109740	0	0	8203	602127	0	0
2024-07-04 20:24:32			0	36709	0	0	0	26296	24880	147374	27433	1028632	43375	109739	0	0	8203	602416	0	0
2024-07-04 20:25:32			0	36722	0	0	0	26298	24890	147386	27268	1028676	43388	109740	0	0	8203	601844	0	0
2024-07-04 20:26:32			0	36700	0	0	0	26303	24890	147458	27000	1028650	43399	109742	0	0	8202	602754	0	0
2024-07-04 20:27:32			0	36680	0	0	0	26319	24900	147518	27248	1028747	43411	109748	0	0	8201	603548	0	0
2024-07-04 20:28:32			0	36629	0	0	0	26332	24900	147690	27033	1028712	43388	109753	0	0	8198	605663	0	0
2024-07-04 20:29:32			0	36616	0	0	0	26324	24900	147646	27085	1028667	43367	109750	0	0	8197	606202	0	0
2024-07-04 20:30:32			0	36630	0	0	0	26314	24900	147742	27088	1028632	43388	109746	0	0	8198	605621	0	0
2024-07-04 20:31:32			0	36640	0	0	0	26296	24900	147670	27296	1028632	43388	109739	0	0	8199	605206	0	0
2024-07-04 20:32:32			0	36681	0	0	0	26288	24890	147570	27121	1028614	43387	109736	0	0	8201	603541	0	0
2024-07-04 20:33:32			0	36703	0	0	0	26277	24890	147354	27208	1028614	43376	109732	0	0	8203	602630	0	0
2024-07-04 20:34:32			0	36737	0	0	0	26285	24880	147262	27351	1028517	43397	109735	0	0	8204	601259	0	0
2024-07-04 20:35:32			0	36761	0	0	0	26280	24880	147234	27263	1028525	43398	109733	0	0	8206	600268	0	0
2024-07-04 20:36:32			0	36767	0	0	0	26280	24880	147098	27185	1028570	43385	109733	0	0	8206	600020	0	0
2024-07-04 20:37:32			0	36784	0	0	0	26275	24870	147142	27282	1028561	43364	109731	0	0	8207	599353	0	0
2024-07-04 20:38:32			0	36801	0	0	0	26257	24880	147158	27222	1028490	43375	109724	0	0	8208	598619	0	0
2024-07-04 20:39:32			0	36808	0	0	0	26262	24870	147054	27222	1028472	43375	109726	0	0	8208	598365	0	0
2024-07-04 20:40:32			0	36814	0	0	0	26257	24860	146966	27272	1028491	43374	109724	0	0	8209	598151	0	0
2024-07-04 20:41:32			0	36824	0	0	0	26254	24860	147038	27511	1028428	43373	109723	0	0	8209	597740	0	0
2024-07-04 20:42:32			0	36841	0	0	0	26244	24860	146998	27005	1028428	43373	109719	0	0	8210	597041	0	0
2024-07-04 20:43:32			0	36829	0	0	0	26244	24850	146894	27306	1028384	43362	109719	0	0	8210	597568	0	0
2024-07-04 20:44:32			0	36832	0	0	0	26236	24840	147010	26981	1028376	43372	109716	0	0	8210	597478	0	0
2024-07-04 20:45:32			0	36854	0	0	0	26231	24840	146902	27372	1028322	43372	109714	0	0	8211	596574	0	0
2024-07-04 20:46:32			0	36832	0	0	0	26236	24840	146918	27000	1028349	43383	109716	0	0	8210	597478	0	0
2024-07-04 20:47:32			0	36847	0	0	0	26233	24840	146966	27287	1028340	43371	109715	0	0	8211	596862	0	0
2024-07-04 20:48:32			0	36823	0	0	0	26233	24840	146882	27400	1028322	43383	109715	0	0	8209	597849	0	0
2024-07-04 20:49:32			0	36838	0	0	0	26231	24840	146958	27036	1028313	43371	109714	0	0	8210	597232	0	0
2024-07-04 20:50:32			0	36825	0	0	0	26218	24840	146938	27187	1028367	43371	109709	0	0	8210	597766	0	0
2024-07-04 20:51:32			0	36845	0	0	0	26223	24830	147002	27201	1028278	43382	109711	0	0	8211	596978	0	0
2024-07-04 20:52:32			0	36813	0	0	0	26212	24820	146974	26911	1028279	43369	109707	0	0	8209	598328	0	0
2024-07-04 20:53:32			0	36830	0	0	0	26205	24820	146994	27123	1028225	43380	109704	0	0	8210	597628	0	0
2024-07-04 20:54:32			0	36868	0	0	0	26199	24810	146934	26807	1028288	43368	109702	0	0	8212	596100	0	0
2024-07-04 20:55:32			0	36872	0	0	0	26202	24810	146834	27086	1028261	43368	109703	0	0	8212	595936	0	0
2024-07-04 20:56:32			0	36894	0	0	0	26176	24800	146818	27386	1028145	43368	109693	0	0	8214	595067	0	0
2024-07-04 20:57:32			0	36926	0	0	0	26171	24810	146694	27227	1028154	43368	109691	0	0	8216	593721	0	0
2024-07-04 20:58:32			0	36941	0	0	0	26174	24790	146574	27334	1028074	43367	109692	0	0	8216	593174	0	0
2024-07-04 20:59:32			0	36961	0	0	0	26168	24790	146458	27196	1028101	43377	109690	0	0	8218	592356	0	0
2024-07-04 21:00:32			0	36967	0	0	0	26168	24790	146442	27232	1028039	43388	109690	0	0	8218	592110	0	0
2024-07-04 21:01:32			0	36986	0	0	0	26158	24790	146414	27168	1028119	43355	109686	0	0	8219	591334	0	0
2024-07-04 21:02:32			0	36997	0	0	0	26158	24780	146354	27100	1028057	43367	109686	0	0	8220	590918	0	0
2024-07-04 21:03:32			0	37013	0	0	0	26161	24780	146438	27041	1027995	43366	109687	0	0	8220	590265	0	0
2024-07-04 21:04:32			0	37018	0	0	0	26145	24780	146266	26946	1028048	43366	109681	0	0	8221	590061	0	0
2024-07-04 21:05:32			0	37037	0	0	0	26142	24780	146310	27123	1028030	43377	109680	0	0	8222	589286	0	0
2024-07-04 21:06:32			0	37051	0	0	0	26148	24770	146162	27008	1027977	43375	109682	0	0	8222	588749	0	0
2024-07-04 21:07:32			0	37060	0	0	0	26142	24760	146166	27248	1027969	43365	109680	0	0	8223	588416	0	0
2024-07-04 21:08:32			0	37078	0	0	0	26122	24760	146138	27194	1027906	43364	109672	0	0	8224	587683	0	0
2024-07-04 21:09:32			0	37054	0	0	0	26127	24740	146118	26790	1027827	43362	109674	0	0	8223	588727	0	0
2024-07-04 21:10:32			0	37076	0	0	0	26116	24740	146166	27336	1027880	43362	109670	0	0	8224	587831	0	0
2024-07-04 21:11:32			0	37089	0	0	0	26124	24740	146062	27095	1027827	43362	109673	0	0	8225	587302	0	0
2024-07-04 21:12:32			0	37092	0	0	0	26114	24740	146018	27123	1027765	43362	109669	0	0	8225	587180	0	0
2024-07-04 21:13:32			0	37110	0	0	0	26093	24730	146082	27081	1027836	43361	109661	0	0	8226	586482	0	0
2024-07-04 21:14:32			0	37129	0	0	0	26093	24720	146006	27319	1027765	43360	109661	0	0	8227	585743	0	0
2024-07-04 21:15:32			0	37132	0	0	0	26093	24720	145942	27279	1027739	43360	109661	0	0	8227	585622	0	0
2024-07-04 21:16:32			0	37132	0	0	0	26085	24720	145870	27235	1027703	43382	109658	0	0	8228	585622	0	0
2024-07-04 21:17:32			0	37133	0	0	0	26085	24700	145870	27029	1027704	43358	109658	0	0	8228	585647	0	0
2024-07-04 21:18:32			0	37128	0	0	0	26085	24700	145874	27215	1027650	43369	109658	0	0	8227	585850	0	0
2024-07-04 21:19:32			0	37126	0	0	0	26077	24690	145922	27092	1027678	43356	109655	0	0	8227	585965	0	0
2024-07-04 21:20:32			0	37123	0	0	0	26075	24680	145994	27280	1027643	43356	109654	0	0	8227	586120	0	0
2024-07-04 21:21:32			0	37106	0	0	0	26080	24700	145926	27443	1027669	43369	109656	0	0	8226	586744	0	0
2024-07-04 21:22:32			0	37112	0	0	0	26067	24690	146058	27268	1027571	43368	109651	0	0	8227	586533	0	0
2024-07-04 21:23:32			0	37099	0	0	0	26077	24690	146106	27124	1027544	43356	109655	0	0	8226	587062	0	0
2024-07-04 21:24:32			0	37070	0	0	0	26064	24680	146162	27060	1027616	43368	109650	0	0	8225	588275	0	0
2024-07-04 21:25:32			0	37059	0	0	0	26064	24680	146242	27255	1027535	43378	109650	0	0	8224	588723	0	0
2024-07-04 21:26:32			0	37032	0	0	0	26080	24680	146362	27345	1027607	43377	109656	0	0	8222	589824	0	0
2024-07-04 21:27:32			0	37026	0	0	0	26072	24680	146282	27261	1027607	43355	109653	0	0	8222	590069	0	0
2024-07-04 21:28:32			0	36995	0	0	0	26080	24680	146442	27171	1027607	43355	109656	0	0	8220	591334	0	0
2024-07-04 21:29:32			0	36984	0	0	0	26064	24680	146370	27150	1027634	43355	109650	0	0	8220	591784	0	0
2024-07-04 21:30:32			0	36989	0	0	0	26072	24680	146394	26951	1027526	43355	109653	0	0	8220	591580	0	0
2024-07-04 21:31:32			0	36973	0	0	0	26062	24670	146542	27239	1027571	43367	109649	0	0	8219	592267	0	0
2024-07-04 21:32:32			0	36964	0	0	0	26072	24670	146514	27326	1027598	43377	109653	0	0	8219	592635	0	0
2024-07-04 21:33:32			0	36949	0	0	0	26080	24680	146678	27272	1027607	43388	109656	0	0	8218	593216	0	0
2024-07-04 21:34:32			0	36921	0	0	0	26085	24680	146850	27079	1027696	43378	109658	0	0	8216	594363	0	0
2024-07-04 21:35:32			0	36888	0	0	0	26106	24690	146906	27364	1027651	43378	109666	0	0	8214	595684	0	0
2024-07-04 21:36:32			0	36832	0	0	0	26114	24700	147074	27543	1027722	43380	109669	0	0	8211	597952	0	0
2024-07-04 21:37:32			0	36798	0	0	0	26116	24700	147258	27398	1027695	43369	109670	0	0	8210	599353	0	0
2024-07-04 21:38:32			0	36777	0	0	0	26101	24700	147322	27045	1027776	43369	109664	0	0	8209	600219	0	0
2024-07-04 21:39:32			0	36741	0	0	0	26109	24700	147474	27334	1027776	43369	109667	0	0	8207	601706	0	0
2024-07-04 21:40:32			0	36728	0	0	0	26114	24700	147574	27137	1027722	43358	109669	0	0	8206	602244	0	0
2024-07-04 21:41:32			0	36701	0	0	0	26116	24700	147666	27015	1027749	43369	109670	0	0	8204	603362	0	0
2024-07-04 21:42:32			0	36684	0	0	0	26119	24720	147834	27293	1027757	43382	109671	0	0	8204	603998	0	0
2024-07-04 21:43:32			0	36672	0	0	0	26127	24710	147754	27235	1027846	43369	109674	0	0	8203	604529	0	0
2024-07-04 21:44:32			0	36657	0	0	0	26132	24710	147986	27072	1027820	43358	109676	0	0	8202	605152	0	0
2024-07-04 21:45:32			0	36635	0	0	0	26145	24710	147978	27244	1027873	43369	109681	0	0	8201	606065	0	0
2024-07-04 21:46:32			0	36619	0	0	0	26137	24700	148006	27128	1027838	43358	109678	0	0	8200	606765	0	0
2024-07-04 21:47:32			0	36592	0	0	0	26137	24710	148054	27329	1027802	43381	109678	0	0	8198	607854	0	0
2024-07-04 21:48:32			0	36606	0	0	0	26132	24720	148022	27234	1027864	43382	109676	0	0	8199	607237	0	0
2024-07-04 21:49:32			0	36591	0	0	0	26132	24720	148001	27048	1027864	43360	109676	0	0	8198	607861	0	0
2024-07-04 21:50:32			0	36605	0	0	0	26132	24720	147986	27036	1027730	43371	109676	0	0	8199	607278	0	0
2024-07-04 21:51:32			0	36608	0	0	0	26135	24720	148002	27379	1027792	43360	109677	0	0	8199	607153	0	0
2024-07-04 21:52:32			0	36594	0	0	0	26129	24720	147945	26894	1027819	43371	109675	0	0	8199	607736	0	0
2024-07-04 21:53:32			0	36629	0	0	0	26137	24710	147874	27128	1027820	43380	109678	0	0	8200	606315	0	0
2024-07-04 21:54:32			0	36625	0	0	0	26140	24720	147890	27268	1027846	43382	109679	0	0	8200	606446	0	0
2024-07-04 21:55:32			0	36648	0	0	0	26135	24720	147822	27194	1027819	43371	109677	0	0	8201	605491	0	0
2024-07-04 21:56:32			0	36663	0	0	0	26137	24720	147826	26996	1027784	43382	109678	0	0	8202	604869	0	0
2024-07-04 21:57:32			0	36656	0	0	0	26137	24720	147778	27097	1027837	43371	109678	0	0	8202	605159	0	0
2024-07-04 21:58:32			0	36657	0	0	0	26132	24720	147782	27104	1027837	43382	109676	0	0	8202	605117	0	0
2024-07-04 21:59:32			0	36677	0	0	0	26135	24730	147954	27227	1027854	43383	109677	0	0	8203	604254	0	0
2024-07-04 22:00:32			0	36683	0	0	0	26137	24720	147758	26991	1027846	43382	109678	0	0	8203	604039	0	0
2024-07-04 22:01:32			0	36678	0	0	0	26135	24720	147738	27265	1027846	43371	109677	0	0	8203	604246	0	0
2024-07-04 22:02:32			0	36674	0	0	0	26148	24730	147766	27258	1027828	43361	109682	0	0	8203	604378	0	0
2024-07-04 22:03:32			0	36686	0	0	0	26137	24720	147754	27052	1027846	43371	109678	0	0	8203	603915	0	0
2024-07-04 22:04:32			0	36689	0	0	0	26129	24720	147794	27007	1027837	43371	109675	0	0	8204	603790	0	0
2024-07-04 22:05:32			0	36705	0	0	0	26127	24730	147734	27161	1027801	43383	109674	0	0	8205	603094	0	0
2024-07-04 22:06:32			0	36720	0	0	0	26135	24720	147646	27490	1027819	43382	109677	0	0	8205	602507	0	0
2024-07-04 22:07:32			0	36719	0	0	0	26135	24720	147610	27331	1027846	43382	109677	0	0	8205	602548	0	0
2024-07-04 22:08:32			0	36721	0	0	0	26132	24730	147606	27246	1027854	43372	109676	0	0	8205	602431	0	0
2024-07-04 22:09:32			0	36725	0	0	0	26135	24720	147566	27097	1027846	43371	109677	0	0	8205	602300	0	0
2024-07-04 22:10:32			0	36738	0	0	0	26122	24730	147530	27256	1027854	43372	109672	0	0	8206	601728	0	0
2024-07-04 22:11:32			0	36746	0	0	0	26127	24720	147526	26998	1027819	43371	109674	0	0	8207	601432	0	0
2024-07-04 22:12:32			0	36783	0	0	0	26127	24730	147390	27277	1027890	43372	109674	0	0	8209	599870	0	0
2024-07-04 22:13:32			0	36755	0	0	0	26124	24720	147458	27410	1027784	43360	109673	0	0	8207	601060	0	0
2024-07-04 22:14:32			0	36751	0	0	0	26132	24710	147490	27159	1027802	43392	109676	0	0	8207	601259	0	0
2024-07-04 22:15:32			0	36771	0	0	0	26127	24700	147442	27123	1027784	43369	109674	0	0	8208	600467	0	0
2024-07-04 22:16:32			0	36767	0	0	0	26124	24720	147402	27104	1027819	43382	109673	0	0	8208	600564	0	0
2024-07-04 22:17:32			0	36778	0	0	0	26127	24720	147418	27291	1027837	43382	109674	0	0	8208	600110	0	0
2024-07-04 22:18:32			0	36782	0	0	0	26119	24720	147374	27090	1027757	43371	109671	0	0	8209	599945	0	0
2024-07-04 22:19:32			0	36785	0	0	0	26124	24700	147338	27263	1027838	43380	109673	0	0	8209	599889	0	0
2024-07-04 22:20:32			0	36784	0	0	0	26119	24720	147382	27305	1027784	43393	109671	0	0	8209	599863	0	0
2024-07-04 22:21:32			0	36804	0	0	0	26122	24720	147282	27076	1027784	43371	109672	0	0	8210	599038	0	0
2024-07-04 22:22:32			0	36816	0	0	0	26114	24720	147186	26963	1027765	43371	109669	0	0	8211	598543	0	0
2024-07-04 22:23:32			0	36821	0	0	0	26111	24720	147134	27177	1027810	43360	109668	0	0	8211	598338	0	0
2024-07-04 22:24:32			0	36822	0	0	0	26114	24700	147114	26894	1027731	43380	109669	0	0	8211	598364	0	0
2024-07-04 22:25:32			0	36855	0	0	0	26111	24700	147046	26975	1027704	43369	109668	0	0	8213	597006	0	0
2024-07-04 22:26:32			0	36839	0	0	0	26116	24720	147118	26977	1027730	43393	109670	0	0	8212	597596	0	0
2024-07-04 22:27:32			0	36838	0	0	0	26109	24700	147094	27033	1027784	43369	109667	0	0	8212	597705	0	0
2024-07-04 22:28:32			0	36858	0	0	0	26109	24700	146930	27133	1027758	43380	109667	0	0	8213	596882	0	0
2024-07-04 22:29:32			0	36837	0	0	0	26109	24690	146930	26941	1027740	43368	109667	0	0	8212	597780	0	0
2024-07-04 22:30:32			0	36870	0	0	0	26101	24700	147050	27253	1027695	43369	109664	0	0	8214	596389	0	0
2024-07-04 22:31:32			0	36860	0	0	0	26116	24700	146930	27312	1027776	43369	109670	0	0	8213	596800	0	0
2024-07-04 22:32:32			0	36874	0	0	0	26103	24700	146970	27248	1027722	43369	109665	0	0	8214	596225	0	0
2024-07-04 22:33:32			0	36896	0	0	0	26101	24700	146962	26932	1027749	43369	109664	0	0	8215	595321	0	0
2024-07-04 22:34:32			0	36874	0	0	0	26101	24690	146994	27249	1027713	43357	109664	0	0	8214	596259	0	0
2024-07-04 22:35:32			0	36884	0	0	0	26098	24690	146962	27239	1027705	43368	109663	0	0	8214	595848	0	0
2024-07-04 22:36:32			0	36890	0	0	0	26093	24690	146946	27013	1027687	43357	109661	0	0	8215	595602	0	0
2024-07-04 22:37:32			0	36923	0	0	0	26085	24690	146874	27131	1027687	43368	109658	0	0	8217	594248	0	0
2024-07-04 22:38:32			0	36925	0	0	0	26090	24680	146762	27213	1027687	43377	109660	0	0	8217	594199	0	0
2024-07-04 22:39:32			0	36936	0	0	0	26083	24680	146722	27267	1027607	43367	109657	0	0	8217	593748	0	0
2024-07-04 22:40:32			0	36941	0	0	0	26080	24680	146650	27164	1027607	43367	109656	0	0	8218	593544	0	0
2024-07-04 22:41:32			0	36955	0	0	0	26083	24680	146722	27060	1027607	43388	109657	0	0	8218	592970	0	0
2024-07-04 22:42:32			0	36962	0	0	0	26080	24690	146766	26833	1027705	43389	109656	0	0	8219	592650	0	0
2024-07-04 22:43:32			0	36964	0	0	0	26088	24680	146730	27081	1027669	43368	109659	0	0	8219	592602	0	0
2024-07-04 22:44:32			0	36958	0	0	0	26083	24670	146778	27462	1027652	43377	109657	0	0	8218	592881	0	0
2024-07-04 22:45:32			0	36951	0	0	0	26083	24690	146790	27112	1027651	43356	109657	0	0	8218	593101	0	0
2024-07-04 22:46:32			0	36940	0	0	0	26075	24660	146726	27183	1027608	43366	109654	0	0	8217	593652	0	0
2024-07-04 22:47:32			0	36940	0	0	0	26072	24680	146718	27242	1027607	43367	109653	0	0	8218	593585	0	0
2024-07-04 22:48:32			0	36961	0	0	0	26070	24680	146698	27189	1027580	43377	109652	0	0	8219	592725	0	0
2024-07-04 22:49:32			0	36957	0	0	0	26064	24670	146694	27138	1027589	43354	109650	0	0	8219	592922	0	0
2024-07-04 22:50:32			0	36968	0	0	0	26064	24670	146630	27164	1027509	43376	109650	0	0	8219	592472	0	0
2024-07-04 22:51:32			0	36998	0	0	0	26059	24670	146566	27315	1027589	43366	109648	0	0	8221	591245	0	0
2024-07-04 22:52:32			0	37009	0	0	0	26044	24660	146574	27286	1027527	43366	109642	0	0	8222	590829	0	0
2024-07-04 22:53:32			0	37032	0	0	0	26046	24650	146462	27081	1027510	43365	109643	0	0	8223	589924	0	0
2024-07-04 22:54:32			0	37036	0	0	0	26038	24660	146430	27183	1027465	43375	109640	0	0	8223	589727	0	0
2024-07-04 22:55:32			0	37051	0	0	0	26044	24660	146434	27213	1027519	43365	109642	0	0	8224	589116	0	0
2024-07-04 22:56:32			0	37022	0	0	0	26046	24670	146458	26797	1027509	43366	109643	0	0	8222	590265	0	0
2024-07-04 22:57:32			0	37020	0	0	0	26054	24660	146506	27355	1027545	43365	109646	0	0	8222	590380	0	0
2024-07-04 22:58:32			0	36999	0	0	0	26054	24650	146570	27111	1027501	43364	109646	0	0	8221	591271	0	0
2024-07-04 22:59:32			0	36977	0	0	0	26054	24640	146742	26948	1027493	43375	109646	0	0	8220	592204	0	0
2024-07-04 23:00:32			0	36963	0	0	0	26051	24640	146726	27341	1027519	43364	109645	0	0	8219	592777	0	0
2024-07-04 23:01:32			0	36940	0	0	0	26044	24640	146870	26861	1027493	43364	109642	0	0	8218	593719	0	0
2024-07-04 23:02:32			0	36936	0	0	0	26054	24640	146858	26923	1027493	43364	109646	0	0	8218	593883	0	0
2024-07-04 23:03:32			0	36922	0	0	0	26033	24650	146862	27130	1027421	43375	109638	0	0	8217	594423	0	0
2024-07-04 23:04:32			0	36917	0	0	0	26036	24650	146874	27208	1027474	43352	109639	0	0	8217	594628	0	0
2024-07-04 23:05:32			0	36925	0	0	0	26036	24630	146934	26982	1027395	43373	109639	0	0	8217	594367	0	0
2024-07-04 23:06:32			0	36931	0	0	0	26044	24640	146850	27258	1027430	43363	109642	0	0	8217	594088	0	0
2024-07-04 23:07:32			0	36927	0	0	0	26038	24630	146786	26998	1027395	43351	109640	0	0	8217	594286	0	0
2024-07-04 23:08:32			0	36936	0	0	0	26028	24630	146822	27100	1027475	43384	109636	0	0	8218	593916	0	0
2024-07-04 23:09:32			0	36939	0	0	0	26023	24630	146822	26993	1027475	43373	109634	0	0	8218	593794	0	0
2024-07-04 23:10:32			0	36954	0	0	0	26033	24640	146714	26939	1027404	43363	109638	0	0	8219	593146	0	0
2024-07-04 23:11:32			0	36934	0	0	0	26025	24630	146798	27017	1027333	43373	109635	0	0	8218	593999	0	0
2024-07-04 23:12:32			0	36939	0	0	0	26018	24630	146678	27097	1027386	43373	109632	0	0	8218	593794	0	0
2024-07-04 23:13:32			0	36944	0	0	0	26028	24630	146790	27293	1027386	43373	109636	0	0	8218	593589	0	0
2024-07-04 23:14:32			0	36933	0	0	0	26023	24630	146786	26996	1027315	43373	109634	0	0	8218	594039	0	0
2024-07-04 23:15:32			0	36916	0	0	0	26023	24620	146794	26961	1027351	43362	109634	0	0	8217	594770	0	0
2024-07-04 23:16:32			0	36939	0	0	0	26018	24620	146690	27365	1027351	43351	109632	0	0	8218	593827	0	0
2024-07-04 23:17:32			0	36938	0	0	0	26018	24620	146766	27140	1027378	43362	109632	0	0	8218	593868	0	0
2024-07-04 23:18:32			0	36938	0	0	0	26005	24620	146818	27000	1027315	43361	109627	0	0	8218	593868	0	0
2024-07-04 23:19:32			0	36941	0	0	0	26015	24620	146842	26774	1027431	43373	109631	0	0	8218	593745	0	0
2024-07-04 23:20:32			0	36957	0	0	0	26010	24610	146866	26816	1027253	43360	109629	0	0	8219	593123	0	0
2024-07-04 23:21:32			0	36930	0	0	0	26015	24610	146758	27086	1027333	43360	109631	0	0	8218	594230	0	0
2024-07-04 23:22:32			0	36923	0	0	0	26018	24610	146874	27209	1027307	43360	109632	0	0	8217	594517	0	0
2024-07-04 23:23:32			0	36942	0	0	0	26015	24610	146826	27248	1027333	43349	109631	0	0	8218	593738	0	0
2024-07-04 23:24:32			0	36925	0	0	0	26007	24600	146858	27196	1027298	43360	109628	0	0	8218	594468	0	0
2024-07-04 23:25:32			0	36943	0	0	0	26010	24610	146666	27256	1027333	43360	109629	0	0	8218	593697	0	0
2024-07-04 23:26:32			0	36938	0	0	0	26010	24600	146842	26894	1027316	43359	109629	0	0	8218	593935	0	0
2024-07-04 23:27:32			0	36941	0	0	0	26010	24620	146814	27163	1027315	43361	109629	0	0	8218	593745	0	0
2024-07-04 23:28:32			0	36944	0	0	0	26010	24600	146778	27220	1027352	43360	109629	0	0	8219	593689	0	0
2024-07-04 23:29:32			0	36948	0	0	0	26002	24600	146798	26987	1027325	43371	109626	0	0	8219	593525	0	0
2024-07-04 23:30:32			0	36957	0	0	0	26002	24600	146762	27206	1027352	43360	109626	0	0	8219	593157	0	0
2024-07-04 23:31:32			0	36969	0	0	0	26007	24600	146814	27355	1027263	43359	109628	0	0	8220	592666	0	0
2024-07-04 23:32:32			0	36975	0	0	0	26005	24600	146714	27168	1027298	43360	109627	0	0	8220	592420	0	0
2024-07-04 23:33:32			0	36957	0	0	0	26007	24590	146758	27067	1027254	43359	109628	0	0	8219	593190	0	0
2024-07-04 23:34:32			0	36969	0	0	0	25997	24590	146814	27171	1027281	43370	109624	0	0	8220	592699	0	0
2024-07-04 23:35:32			0	36982	0	0	0	26007	24580	146786	27320	1027183	43358	109628	0	0	8220	592201	0	0
2024-07-04 23:36:32			0	36962	0	0	0	25999	24590	146710	27440	1027254	43359	109625	0	0	8220	592986	0	0
2024-07-04 23:37:32			0	36979	0	0	0	25989	24590	146718	27279	1027245	43369	109621	0	0	8221	592290	0	0
2024-07-04 23:38:32			0	36969	0	0	0	25994	24600	146706	27216	1027191	43371	109623	0	0	8220	592666	0	0
2024-07-04 23:39:32			0	36985	0	0	0	25989	24590	146626	27078	1027245	43358	109621	0	0	8221	592044	0	0
2024-07-04 23:40:32			0	36991	0	0	0	25989	24580	146638	27118	1027174	43357	109621	0	0	8221	591833	0	0
2024-07-04 23:41:32			0	36997	0	0	0	25986	24580	146526	27079	1027148	43369	109620	0	0	8222	591587	0	0
2024-07-04 23:42:32			0	37002	0	0	0	25973	24570	146574	27163	1027219	43357	109615	0	0	8222	591416	0	0
2024-07-04 23:43:32			0	37004	0	0	0	25979	24580	146578	26953	1027210	43358	109617	0	0	8222	591301	0	0
2024-07-04 23:44:32			0	37028	0	0	0	25973	24580	146566	27185	1027094	43357	109615	0	0	8223	590321	0	0
2024-07-04 23:45:32			0	37039	0	0	0	25976	24570	146438	26861	1027104	43345	109616	0	0	8224	589905	0	0
2024-07-04 23:46:32			0	37042	0	0	0	25973	24580	146398	26824	1027148	43369	109615	0	0	8224	589750	0	0
2024-07-04 23:47:32			0	37069	0	0	0	25961	24570	146450	27159	1027059	43357	109610	0	0	8226	588682	0	0
2024-07-04 23:48:32			0	37054	0	0	0	25961	24560	146358	27263	1027095	43355	109610	0	0	8225	589327	0	0
2024-07-04 23:49:32			0	37058	0	0	0	25968	24550	146354	27360	1027131	43355	109613	0	0	8225	589197	0	0
2024-07-04 23:50:32			0	37075	0	0	0	25966	24560	146326	27348	1027068	43367	109612	0	0	8226	588471	0	0
2024-07-04 23:51:32			0	37066	0	0	0	25961	24560	146366	27287	1027033	43355	109610	0	0	8226	588838	0	0
2024-07-04 23:52:32			0	37073	0	0	0	25958	24560	146238	27466	1027095	43355	109609	0	0	8226	588552	0	0
2024-07-04 23:53:32			0	37083	0	0	0	25955	24560	146222	27305	1027086	43355	109608	0	0	8227	588145	0	0
2024-07-04 23:54:32			0	37083	0	0	0	25950	24550	146194	27246	1027050	43355	109606	0	0	8227	588178	0	0
2024-07-04 23:55:32			0	37090	0	0	0	25953	24550	146282	27045	1027015	43354	109607	0	0	8227	587893	0	0
2024-07-04 23:56:32			0	37103	0	0	0	25953	24550	146282	27064	1027077	43344	109607	0	0	8228	587364	0	0
2024-07-04 23:57:32			0	37083	0	0	0	25955	24550	146330	27341	1026988	43366	109608	0	0	8226	588178	0	0
2024-07-04 23:58:32			0	37088	0	0	0	25955	24560	146102	27055	1027041	43367	109608	0	0	8227	587941	0	0
2024-07-04 23:59:32			0	37095	0	0	0	25950	24550	146202	27296	1027024	43355	109606	0	0	8227	587690	0	0
2024-07-05 00:00:32			0	37092	0	0	0	25945	24550	146246	27317	1027024	43367	109604	0	0	8227	587812	0	0
2024-07-05 00:01:32			0	37107	0	0	0	25948	24550	146190	27090	1026970	43367	109605	0	0	8228	587202	0	0
2024-07-05 00:02:32			0	37106	0	0	0	25955	24550	146226	27324	1027015	43366	109608	0	0	8228	587242	0	0
2024-07-05 00:03:32			0	37113	0	0	0	25945	24550	146270	27242	1026988	43354	109604	0	0	8228	586958	0	0
2024-07-05 00:04:32			0	37115	0	0	0	25942	24540	146210	27428	1027033	43353	109603	0	0	8228	586909	0	0
2024-07-05 00:05:32			0	37113	0	0	0	25937	24540	146170	27377	1026998	43375	109601	0	0	8228	586991	0	0
2024-07-05 00:06:32			0	37118	0	0	0	25940	24540	146158	27274	1026998	43353	109602	0	0	8229	586787	0	0
2024-07-05 00:07:32			0	37117	0	0	0	25932	24540	146214	27352	1026998	43353	109599	0	0	8229	586828	0	0
2024-07-05 00:08:32			0	37110	0	0	0	25942	24530	146210	27398	1026989	43342	109603	0	0	8228	587146	0	0
2024-07-05 00:09:32			0	37106	0	0	0	25927	24530	146166	27242	1026980	43364	109597	0	0	8228	587309	0	0
2024-07-05 00:10:32			0	37104	0	0	0	25935	24530	146170	27474	1026927	43364	109600	0	0	8228	587390	0	0
2024-07-05 00:11:32			0	37111	0	0	0	25935	24530	146166	27237	1027016	43365	109600	0	0	8228	587105	0	0
2024-07-05 00:12:32			0	37115	0	0	0	25935	24530	146158	27402	1026954	43364	109600	0	0	8228	586942	0	0
2024-07-05 00:13:32			0	37113	0	0	0	25932	24530	146158	27334	1026989	43365	109599	0	0	8228	587024	0	0
2024-07-05 00:14:32			0	37105	0	0	0	25932	24530	146182	27178	1026954	43375	109599	0	0	8228	587349	0	0
2024-07-05 00:15:32			0	37103	0	0	0	25932	24530	146186	27029	1026962	43342	109599	0	0	8228	587431	0	0
2024-07-05 00:16:32			0	37087	0	0	0	25932	24530	146122	27476	1026927	43364	109599	0	0	8227	588082	0	0
2024-07-05 00:17:32			0	37109	0	0	0	25924	24530	146158	27287	1026980	43375	109596	0	0	8228	587187	0	0
2024-07-05 00:18:32			0	37106	0	0	0	25924	24520	146242	27319	1026910	43340	109596	0	0	8228	587342	0	0
2024-07-05 00:19:32			0	37107	0	0	0	25927	24530	146282	27305	1026954	43364	109597	0	0	8228	587268	0	0
2024-07-05 00:20:32			0	37076	0	0	0	25924	24530	146158	27357	1026936	43342	109596	0	0	8227	588530	0	0
2024-07-05 00:21:32			0	37123	0	0	0	25927	24530	146158	27305	1026909	43365	109597	0	0	8229	586617	0	0
2024-07-05 00:22:32			0	37118	0	0	0	25924	24530	146242	27180	1026936	43365	109596	0	0	8229	586820	0	0
2024-07-05 00:23:32			0	37109	0	0	0	25927	24520	146094	27100	1026945	43374	109597	0	0	8228	587220	0	0
2024-07-05 00:24:32			0	37116	0	0	0	25927	24520	146126	27242	1026936	43352	109597	0	0	8229	586935	0	0
2024-07-05 00:25:32			0	37115	0	0	0	25919	24520	146190	26977	1026910	43352	109594	0	0	8229	586976	0	0
2024-07-05 00:26:32			0	37126	0	0	0	25919	24520	146158	27079	1026918	43374	109594	0	0	8229	586528	0	0
2024-07-05 00:27:32			0	37119	0	0	0	25922	24520	146118	26974	1026883	43340	109595	0	0	8229	586813	0	0
2024-07-05 00:28:32			0	37112	0	0	0	25922	24520	146082	27325	1026963	43352	109595	0	0	8228	587098	0	0
2024-07-05 00:29:32			0	37134	0	0	0	25919	24510	146182	27305	1026839	43339	109594	0	0	8230	586236	0	0
2024-07-05 00:30:32			0	37126	0	0	0	25916	24520	146186	27265	1026856	43363	109593	0	0	8229	586528	0	0
2024-07-05 00:31:32			0	37112	0	0	0	25919	24510	146186	27298	1026874	43362	109594	0	0	8228	587131	0	0
2024-07-05 00:32:32			0	37116	0	0	0	25906	24510	146066	27043	1026812	43351	109589	0	0	8229	586968	0	0
2024-07-05 00:33:32			0	37133	0	0	0	25911	24510	146102	27248	1026812	43351	109591	0	0	8230	586277	0	0
2024-07-05 00:34:32			0	37139	0	0	0	25903	24510	146138	27131	1026865	43362	109588	0	0	8230	586033	0	0
2024-07-05 00:35:32			0	37129	0	0	0	25906	24510	146086	27130	1026821	43362	109589	0	0	8230	586440	0	0
2024-07-05 00:36:32			0	37129	0	0	0	25906	24510	146102	27230	1026865	43373	109589	0	0	8230	586440	0	0
2024-07-05 00:37:32			0	37144	0	0	0	25911	24500	146074	27244	1026795	43349	109591	0	0	8230	585863	0	0
2024-07-05 00:38:32			0	37137	0	0	0	25906	24510	146034	27281	1026839	43373	109589	0	0	8230	586114	0	0
2024-07-05 00:39:32			0	37121	0	0	0	25903	24510	146138	27267	1026847	43351	109588	0	0	8229	586765	0	0
2024-07-05 00:40:32			0	37127	0	0	0	25914	24500	146106	27216	1026857	43361	109592	0	0	8229	586554	0	0
2024-07-05 00:41:32			0	37138	0	0	0	25911	24500	146142	27291	1026857	43361	109591	0	0	8230	586107	0	0
2024-07-05 00:42:32			0	37131	0	0	0	25909	24510	146166	26890	1026812	43362	109590	0	0	8230	586358	0	0
2024-07-05 00:43:32			0	37129	0	0	0	25914	24510	146238	27306	1026865	43362	109592	0	0	8229	586440	0	0
2024-07-05 00:44:32			0	37097	0	0	0	25909	24500	146234	27161	1026776	43361	109590	0	0	8228	587775	0	0
2024-07-05 00:45:32			0	37127	0	0	0	25896	24500	146134	27130	1026741	43349	109585	0	0	8230	586554	0	0
2024-07-05 00:46:32			0	37111	0	0	0	25906	24500	146302	27306	1026795	43349	109589	0	0	8229	587205	0	0
2024-07-05 00:47:32			0	37105	0	0	0	25903	24500	146306	27196	1026848	43360	109588	0	0	8228	587449	0	0
2024-07-05 00:48:32			0	37108	0	0	0	25898	24500	146226	27282	1026803	43361	109586	0	0	8229	587327	0	0
2024-07-05 00:49:32			0	37115	0	0	0	25903	24500	146230	27149	1026857	43361	109588	0	0	8229	587042	0	0
2024-07-05 00:50:32			0	37110	0	0	0	25901	24490	146186	27203	1026839	43360	109587	0	0	8229	587279	0	0
2024-07-05 00:51:32			0	37112	0	0	0	25901	24500	146234	27291	1026776	43350	109587	0	0	8229	587164	0	0
2024-07-05 00:52:32			0	37129	0	0	0	25906	24500	146306	26955	1026848	43349	109589	0	0	8229	586473	0	0
2024-07-05 00:53:32			0	37110	0	0	0	25901	24500	146274	27048	1026768	43360	109587	0	0	8229	587245	0	0
2024-07-05 00:54:32			0	37093	0	0	0	25901	24490	146242	26923	1026759	43360	109587	0	0	8228	587971	0	0
2024-07-05 00:55:32			0	37099	0	0	0	25903	24500	146214	27405	1026848	43360	109588	0	0	8228	587693	0	0
2024-07-05 00:56:32			0	37103	0	0	0	25896	24490	146202	27050	1026813	43349	109585	0	0	8228	587564	0	0
2024-07-05 00:57:32			0	37085	0	0	0	25901	24490	146338	27325	1026786	43337	109587	0	0	8227	588297	0	0
2024-07-05 00:58:32			0	37111	0	0	0	25896	24500	146338	27177	1026830	43350	109585	0	0	8229	587205	0	0
2024-07-05 00:59:32			0	37120	0	0	0	25893	24490	146202	26977	1026759	43349	109584	0	0	8229	586872	0	0
2024-07-05 01:00:32			0	37113	0	0	0	25898	24500	146150	27242	1026795	43349	109586	0	0	8229	587123	0	0
2024-07-05 01:01:32			0	37123	0	0	0	25898	24480	146286	27173	1026742	43359	109586	0	0	8229	586783	0	0
2024-07-05 01:02:32			0	37115	0	0	0	25903	24500	146194	27374	1026776	43350	109588	0	0	8229	587042	0	0
2024-07-05 01:03:32			0	37104	0	0	0	25890	24490	146238	27201	1026804	43349	109583	0	0	8228	587523	0	0
2024-07-05 01:04:32			0	37096	0	0	0	25890	24490	146230	27159	1026724	43371	109583	0	0	8228	587848	0	0
2024-07-05 01:05:32			0	37108	0	0	0	25890	24490	146234	27358	1026786	43360	109583	0	0	8229	587360	0	0
2024-07-05 01:06:32			0	37116	0	0	0	25893	24490	146206	26868	1026813	43360	109584	0	0	8229	587035	0	0
2024-07-05 01:07:32			0	37120	0	0	0	25893	24500	146222	27078	1026768	43349	109584	0	0	8229	586839	0	0
2024-07-05 01:08:32			0	37116	0	0	0	25893	24490	146146	27256	1026759	43360	109584	0	0	8229	587035	0	0
2024-07-05 01:09:32			0	37098	0	0	0	25883	24490	146234	27249	1026724	43360	109580	0	0	8228	587767	0	0
2024-07-05 01:10:32			0	37113	0	0	0	25885	24480	146162	27095	1026706	43358	109581	0	0	8229	587190	0	0
2024-07-05 01:11:32			0	37106	0	0	0	25888	24490	146162	27479	1026777	43360	109582	0	0	8229	587441	0	0
2024-07-05 01:12:32			0	37127	0	0	0	25890	24490	146174	27481	1026724	43360	109583	0	0	8230	586587	0	0
2024-07-05 01:13:32			0	37114	0	0	0	25890	24490	146178	27209	1026759	43349	109583	0	0	8229	587116	0	0
2024-07-05 01:14:32			0	37131	0	0	0	25880	24480	146190	27524	1026742	43359	109579	0	0	8230	586458	0	0
2024-07-05 01:15:32			0	37111	0	0	0	25880	24480	146210	27576	1026688	43348	109579	0	0	8229	587271	0	0
2024-07-05 01:16:32			0	37101	0	0	0	25880	24480	146206	27450	1026680	43358	109579	0	0	8228	587678	0	0
2024-07-05 01:17:32			0	37101	0	0	0	25877	24480	146230	27229	1026742	43370	109578	0	0	8228	587678	0	0
2024-07-05 01:18:32			0	37117	0	0	0	25880	24480	146274	27395	1026769	43359	109579	0	0	8229	587027	0	0
2024-07-05 01:19:32			0	37099	0	0	0	25877	24480	146210	27625	1026715	43359	109578	0	0	8228	587760	0	0
2024-07-05 01:20:32			0	37084	0	0	0	25877	24480	146234	27319	1026742	43359	109578	0	0	8228	588371	0	0
2024-07-05 01:21:32			0	37095	0	0	0	25883	24480	146366	27348	1026715	43359	109580	0	0	8228	587922	0	0
2024-07-05 01:22:32			0	37084	0	0	0	25883	24480	146346	27204	1026715	43359	109580	0	0	8227	588371	0	0
2024-07-05 01:23:32			0	37092	0	0	0	25877	24470	146402	27248	1026671	43347	109578	0	0	8228	588078	0	0
2024-07-05 01:24:32			0	37082	0	0	0	25883	24470	146342	27116	1026662	43370	109580	0	0	8227	588485	0	0
2024-07-05 01:25:32			0	37080	0	0	0	25875	24480	146366	27208	1026626	43336	109577	0	0	8227	588533	0	0
2024-07-05 01:26:32			0	37086	0	0	0	25870	24470	146378	26982	1026725	43370	109575	0	0	8228	588322	0	0
2024-07-05 01:27:32			0	37074	0	0	0	25875	24470	146350	27426	1026689	43370	109577	0	0	8227	588811	0	0
2024-07-05 01:28:32			0	37058	0	0	0	25872	24460	146330	27502	1026707	43357	109576	0	0	8226	589497	0	0
2024-07-05 01:29:32			0	37068	0	0	0	25875	24470	146390	27405	1026689	43347	109577	0	0	8227	589056	0	0
2024-07-05 01:30:32			0	37062	0	0	0	25875	24480	146442	27019	1026653	43358	109577	0	0	8226	589267	0	0
2024-07-05 01:31:32			0	37060	0	0	0	25872	24470	146510	27367	1026751	43347	109576	0	0	8226	589382	0	0
2024-07-05 01:32:32			0	37037	0	0	0	25885	24480	146450	27171	1026680	43347	109581	0	0	8225	590287	0	0
2024-07-05 01:33:32			0	37043	0	0	0	25883	24460	146398	27008	1026645	43368	109580	0	0	8225	590109	0	0
2024-07-05 01:34:32			0	37038	0	0	0	25872	24470	146462	27206	1026689	43370	109576	0	0	8225	590280	0	0
2024-07-05 01:35:32			0	37039	0	0	0	25875	24460	146446	26935	1026645	43345	109577	0	0	8225	590272	0	0
2024-07-05 01:36:32			0	37049	0	0	0	25872	24470	146498	27133	1026636	43358	109576	0	0	8226	589831	0	0
2024-07-05 01:37:32			0	37026	0	0	0	25864	24470	146490	27213	1026725	43358	109573	0	0	8225	590770	0	0
2024-07-05 01:38:32			0	37051	0	0	0	25864	24440	146462	27381	1026619	43333	109573	0	0	8226	589849	0	0
2024-07-05 01:39:32			0	37024	0	0	0	25867	24470	146554	27275	1026671	43347	109574	0	0	8225	590852	0	0
2024-07-05 01:40:32			0	37027	0	0	0	25859	24480	146458	27447	1026599	43370	109571	0	0	8225	590696	0	0
2024-07-05 01:41:32			0	37028	0	0	0	25872	24450	146490	27090	1026636	43356	109576	0	0	8225	590755	0	0
2024-07-05 01:42:32			0	37018	0	0	0	25867	24470	146630	27202	1026662	43347	109574	0	0	8224	591097	0	0
2024-07-05 01:43:32			0	37021	0	0	0	25867	24460	146554	27164	1026627	43357	109574	0	0	8224	591008	0	0
2024-07-05 01:44:32			0	37002	0	0	0	25872	24460	146606	27227	1026600	43357	109576	0	0	8223	591784	0	0
2024-07-05 01:45:32			0	36995	0	0	0	25864	24460	146658	27029	1026600	43369	109573	0	0	8223	592071	0	0
2024-07-05 01:46:32			0	36987	0	0	0	25864	24460	146622	27419	1026618	43368	109573	0	0	8223	592398	0	0
2024-07-05 01:47:32			0	36993	0	0	0	25854	24460	146602	27069	1026627	43357	109569	0	0	8223	592152	0	0
2024-07-05 01:48:32			0	37011	0	0	0	25870	24460	146634	26922	1026591	43345	109575	0	0	8224	591416	0	0
2024-07-05 01:49:32			0	37006	0	0	0	25857	24450	146710	27137	1026583	43356	109570	0	0	8224	591654	0	0
2024-07-05 01:50:32			0	36993	0	0	0	25862	24460	146726	27130	1026591	43368	109572	0	0	8223	592152	0	0
2024-07-05 01:51:32			0	36989	0	0	0	25857	24460	146706	27272	1026627	43346	109570	0	0	8223	592316	0	0
2024-07-05 01:52:32			0	36992	0	0	0	25864	24450	146726	26965	1026636	43368	109573	0	0	8223	592227	0	0
2024-07-05 01:53:32			0	36985	0	0	0	25854	24450	146598	27034	1026663	43356	109569	0	0	8223	592513	0	0
2024-07-05 01:54:32			0	36982	0	0	0	25851	24450	146678	27168	1026583	43356	109568	0	0	8223	592636	0	0
2024-07-05 01:55:32			0	36973	0	0	0	25851	24450	146754	27528	1026610	43368	109568	0	0	8222	593005	0	0
2024-07-05 01:56:32			0	36971	0	0	0	25849	24460	146802	27076	1026618	43345	109567	0	0	8222	593053	0	0
2024-07-05 01:57:32			0	36980	0	0	0	25851	24450	146682	27381	1026636	43356	109568	0	0	8222	592718	0	0
2024-07-05 01:58:32			0	36985	0	0	0	25849	24450	146806	27241	1026574	43356	109567	0	0	8223	592513	0	0
2024-07-05 01:59:32			0	36980	0	0	0	25851	24440	146758	27469	1026539	43355	109568	0	0	8222	592752	0	0
2024-07-05 02:00:32			0	36978	0	0	0	25849	24450	146810	27353	1026556	43345	109567	0	0	8222	592800	0	0
2024-07-05 02:01:32			0	36978	0	0	0	25836	24440	146778	27194	1026539	43367	109562	0	0	8223	592833	0	0
2024-07-05 02:02:32			0	36979	0	0	0	25844	24440	146738	27237	1026503	43354	109565	0	0	8222	592792	0	0
2024-07-05 02:03:32			0	36957	0	0	0	25838	24430	146746	26887	1026548	43342	109563	0	0	8221	593727	0	0
2024-07-05 02:04:32			0	36956	0	0	0	25836	24440	146790	27171	1026512	43355	109562	0	0	8221	593735	0	0
2024-07-05 02:05:32			0	36987	0	0	0	25838	24440	146838	27204	1026584	43343	109563	0	0	8223	592465	0	0
2024-07-05 02:06:32			0	36988	0	0	0	25828	24440	146854	27114	1026503	43354	109559	0	0	8223	592424	0	0
2024-07-05 02:07:32			0	36977	0	0	0	25831	24440	146806	27256	1026530	43366	109560	0	0	8223	592874	0	0
2024-07-05 02:08:32			0	36988	0	0	0	25831	24430	146694	27242	1026494	43365	109560	0	0	8223	592458	0	0
2024-07-05 02:09:32			0	36960	0	0	0	25823	24430	146682	27424	1026459	43354	109557	0	0	8222	593604	0	0
2024-07-05 02:10:32			0	36968	0	0	0	25820	24420	146830	27547	1026477	43354	109556	0	0	8222	593310	0	0
2024-07-05 02:11:32			0	36968	0	0	0	25810	24420	146814	27294	1026450	43354	109552	0	0	8222	593310	0	0
2024-07-05 02:12:32			0	36988	0	0	0	25807	24420	146718	26996	1026442	43341	109551	0	0	8223	592491	0	0
2024-07-05 02:13:32			0	36966	0	0	0	25810	24420	146794	27229	1026388	43331	109552	0	0	8222	593392	0	0
2024-07-05 02:14:32			0	36987	0	0	0	25807	24420	146778	27244	1026495	43353	109551	0	0	8223	592532	0	0
2024-07-05 02:15:32			0	36972	0	0	0	25802	24410	146878	27274	1026433	43363	109549	0	0	8223	593180	0	0
2024-07-05 02:16:32			0	36955	0	0	0	25805	24410	146814	26953	1026406	43352	109550	0	0	8222	593876	0	0
2024-07-05 02:17:32			0	36967	0	0	0	25794	24410	146870	27424	1026406	43363	109546	0	0	8223	593385	0	0
2024-07-05 02:18:32			0	36956	0	0	0	25797	24400	146878	27371	1026389	43352	109547	0	0	8222	593869	0	0
2024-07-05 02:19:32			0	36948	0	0	0	25797	24410	146866	27192	1026344	43340	109547	0	0	8221	594163	0	0
2024-07-05 02:20:32			0	36937	0	0	0	25784	24400	146906	27270	1026380	43351	109542	0	0	8221	594648	0	0
2024-07-05 02:21:32			0	36930	0	0	0	25794	24400	146886	26868	1026389	43352	109546	0	0	8221	594936	0	0
2024-07-05 02:22:32			0	36932	0	0	0	25792	24400	146914	27270	1026389	43363	109545	0	0	8221	594854	0	0
2024-07-05 02:23:32			0	36928	0	0	0	25789	24400	147006	27298	1026353	43362	109544	0	0	8221	595018	0	0
2024-07-05 02:24:32			0	36940	0	0	0	25792	24390	147042	27284	1026345	43361	109545	0	0	8221	594559	0	0
2024-07-05 02:25:32			0	36923	0	0	0	25786	24400	146986	27081	1026327	43351	109543	0	0	8220	595223	0	0
2024-07-05 02:26:32			0	36896	0	0	0	25779	24400	147070	27183	1026460	43339	109540	0	0	8219	596332	0	0
2024-07-05 02:27:32			0	36892	0	0	0	25784	24390	147098	27367	1026345	43338	109542	0	0	8219	596531	0	0
2024-07-05 02:28:32			0	36883	0	0	0	25792	24400	147098	26871	1026300	43351	109545	0	0	8218	596867	0	0
2024-07-05 02:29:32			0	36896	0	0	0	25789	24390	147082	27150	1026345	43338	109544	0	0	8219	596366	0	0
2024-07-05 02:30:32			0	36880	0	0	0	25786	24390	147162	27022	1026283	43350	109543	0	0	8218	597024	0	0
2024-07-05 02:31:32			0	36878	0	0	0	25774	24390	147190	27324	1026283	43350	109538	0	0	8218	597107	0	0
2024-07-05 02:32:32			0	36874	0	0	0	25774	24380	147082	27225	1026274	43338	109538	0	0	8218	597305	0	0
2024-07-05 02:33:32			0	36893	0	0	0	25776	24370	147114	27287	1026283	43348	109539	0	0	8219	596557	0	0
2024-07-05 02:34:32			0	36899	0	0	0	25774	24380	147170	27293	1026220	43361	109538	0	0	8219	596277	0	0
2024-07-05 02:35:32			0	36891	0	0	0	25771	24370	147142	27609	1026203	43326	109537	0	0	8219	596639	0	0
2024-07-05 02:36:32			0	36900	0	0	0	25758	24370	147234	27228	1026176	43348	109532	0	0	8219	596269	0	0
2024-07-05 02:37:32			0	36902	0	0	0	25753	24360	147150	27308	1026159	43336	109530	0	0	8220	596221	0	0
2024-07-05 02:38:32			0	36876	0	0	0	25758	24360	147210	26948	1026186	43347	109532	0	0	8218	597290	0	0
2024-07-05 02:39:32			0	36884	0	0	0	25755	24360	147170	27003	1026150	43347	109531	0	0	8219	596961	0	0
2024-07-05 02:40:32			0	36869	0	0	0	25742	24360	147306	27194	1026231	43347	109526	0	0	8218	597578	0	0
2024-07-05 02:41:32			0	36877	0	0	0	25745	24350	147218	27345	1026088	43369	109527	0	0	8218	597283	0	0
2024-07-05 02:42:32			0	36883	0	0	0	25748	24350	147230	26986	1026142	43346	109528	0	0	8219	597036	0	0
2024-07-05 02:43:32			0	36887	0	0	0	25748	24360	147150	27072	1026150	43336	109528	0	0	8219	596837	0	0
2024-07-05 02:44:32			0	36881	0	0	0	25750	24350	147182	27124	1026142	43346	109529	0	0	8219	597118	0	0
2024-07-05 02:45:32			0	36869	0	0	0	25742	24350	147174	27135	1026133	43345	109526	0	0	8218	597612	0	0
2024-07-05 02:46:32			0	36876	0	0	0	25745	24350	147262	27253	1026061	43357	109527	0	0	8218	597324	0	0
2024-07-05 02:47:32			0	36869	0	0	0	25740	24350	147254	27017	1026080	43345	109525	0	0	8218	597612	0	0
2024-07-05 02:48:32			0	36857	0	0	0	25740	24340	147270	27308	1026089	43334	109525	0	0	8217	598140	0	0
2024-07-05 02:49:32			0	36865	0	0	0	25732	24340	147318	27294	1026178	43356	109522	0	0	8218	597810	0	0
2024-07-05 02:50:32			0	36875	0	0	0	25737	24340	147266	27147	1026062	43345	109524	0	0	8218	597399	0	0
2024-07-05 02:51:32			0	36859	0	0	0	25729	24340	147274	27284	1026124	43356	109521	0	0	8218	598058	0	0
2024-07-05 02:52:32			0	36858	0	0	0	25737	24340	147466	27322	1026124	43334	109524	0	0	8218	598099	0	0
2024-07-05 02:53:32			0	36855	0	0	0	25737	24340	147342	27066	1026062	43334	109524	0	0	8217	598222	0	0
2024-07-05 02:54:32			0	36847	0	0	0	25732	24330	147286	27235	1026080	43344	109522	0	0	8217	598586	0	0
2024-07-05 02:55:32			0	36850	0	0	0	25732	24330	147386	27357	1026080	43355	109522	0	0	8217	598462	0	0
2024-07-05 02:56:32			0	36839	0	0	0	25727	24340	147330	27270	1026169	43345	109520	0	0	8217	598882	0	0
2024-07-05 02:57:32			0	36842	0	0	0	25727	24330	147386	27072	1026054	43344	109520	0	0	8217	598792	0	0
2024-07-05 02:58:32			0	36836	0	0	0	25729	24330	147346	27364	1026072	43343	109521	0	0	8216	599040	0	0
2024-07-05 02:59:32			0	36825	0	0	0	25727	24330	147414	27251	1026107	43333	109520	0	0	8216	599493	0	0
2024-07-05 03:00:32			0	36825	0	0	0	25727	24340	147434	27199	1026089	43345	109520	0	0	8216	599460	0	0
2024-07-05 03:01:32			0	36812	0	0	0	25729	24330	147466	27327	1026045	43343	109521	0	0	8215	600030	0	0
2024-07-05 03:02:32			0	36813	0	0	0	25732	24330	147514	27157	1026054	43344	109522	0	0	8215	599989	0	0
2024-07-05 03:03:32			0	36799	0	0	0	25724	24330	147582	27121	1026045	43354	109519	0	0	8215	600567	0	0
2024-07-05 03:04:32			0	36807	0	0	0	25729	24320	147386	27033	1026036	43343	109521	0	0	8215	600270	0	0
2024-07-05 03:05:32			0	36781	0	0	0	25724	24330	147574	27190	1026072	43343	109519	0	0	8214	601311	0	0
2024-07-05 03:06:32			0	36779	0	0	0	25719	24320	147510	27171	1026036	43354	109517	0	0	8214	601428	0	0
2024-07-05 03:07:32			0	36784	0	0	0	25714	24320	147602	27235	1026009	43354	109515	0	0	8214	601221	0	0
2024-07-05 03:08:32			0	36784	0	0	0	25716	24320	147550	26996	1026009	43343	109516	0	0	8214	601221	0	0
2024-07-05 03:09:32			0	36781	0	0	0	25719	24300	147634	27287	1025983	43331	109517	0	0	8214	601413	0	0
2024-07-05 03:10:32			0	36796	0	0	0	25711	24330	147650	27150	1025991	43333	109514	0	0	8215	600691	0	0
2024-07-05 03:11:32			0	36783	0	0	0	25714	24300	147606	27255	1025975	43340	109515	0	0	8214	601330	0	0
2024-07-05 03:12:32			0	36794	0	0	0	25709	24320	147466	27039	1026001	43354	109513	0	0	8215	600808	0	0
2024-07-05 03:13:32			0	36816	0	0	0	25711	24300	147522	27041	1026001	43330	109514	0	0	8216	599967	0	0
2024-07-05 03:14:32			0	36807	0	0	0	25709	24300	147538	27225	1025930	43364	109513	0	0	8215	600338	0	0
2024-07-05 03:15:32			0	36809	0	0	0	25701	24300	147546	27121	1025956	43320	109510	0	0	8215	600256	0	0
2024-07-05 03:16:32			0	36805	0	0	0	25709	24300	147518	27199	1025975	43340	109513	0	0	8215	600421	0	0
2024-07-05 03:17:32			0	36796	0	0	0	25711	24300	147626	27305	1025921	43330	109514	0	0	8215	600793	0	0
2024-07-05 03:18:32			0	36792	0	0	0	25711	24310	147614	27144	1026019	43332	109514	0	0	8214	600924	0	0
2024-07-05 03:19:32			0	36785	0	0	0	25709	24300	147614	27223	1025983	43353	109513	0	0	8214	601247	0	0
2024-07-05 03:20:32			0	36796	0	0	0	25716	24310	147658	27274	1026019	43354	109516	0	0	8214	600759	0	0
2024-07-05 03:21:32			0	36776	0	0	0	25714	24310	147658	27298	1025992	43354	109515	0	0	8213	601586	0	0
2024-07-05 03:22:32			0	36755	0	0	0	25706	24300	147718	26981	1025983	43341	109512	0	0	8212	602489	0	0
2024-07-05 03:23:32			0	36765	0	0	0	25716	24310	147730	27346	1026019	43342	109516	0	0	8213	602041	0	0
2024-07-05 03:24:32			0	36725	0	0	0	25703	24300	147746	27263	1025956	43353	109511	0	0	8211	603732	0	0
2024-07-05 03:25:32			0	36725	0	0	0	25706	24300	147794	27121	1026001	43340	109512	0	0	8211	603732	0	0
2024-07-05 03:26:32			0	36748	0	0	0	25706	24300	147898	27039	1025921	43330	109512	0	0	8212	602779	0	0
2024-07-05 03:27:32			0	36726	0	0	0	25714	24300	147798	27213	1026001	43340	109515	0	0	8211	603690	0	0
2024-07-05 03:28:32			0	36747	0	0	0	25706	24290	147862	27053	1025939	43340	109512	0	0	8212	602854	0	0
2024-07-05 03:29:32			0	36728	0	0	0	25711	24300	147786	26828	1025948	43352	109514	0	0	8211	603608	0	0
2024-07-05 03:30:32			0	36735	0	0	0	25714	24300	147762	27234	1025975	43352	109515	0	0	8211	603317	0	0
2024-07-05 03:31:32			0	36741	0	0	0	25709	24300	147786	27267	1025975	43340	109513	0	0	8212	603069	0	0
2024-07-05 03:32:32			0	36749	0	0	0	25709	24300	147814	27305	1025956	43364	109513	0	0	8212	602737	0	0
2024-07-05 03:33:32			0	36766	0	0	0	25696	24290	147714	27381	1025939	43340	109508	0	0	8213	602068	0	0
2024-07-05 03:34:32			0	36758	0	0	0	25703	24300	147766	27196	1025948	43352	109511	0	0	8213	602365	0	0
2024-07-05 03:35:32			0	36775	0	0	0	25696	24300	147690	27154	1025921	43340	109508	0	0	8214	601661	0	0
2024-07-05 03:36:32			0	36778	0	0	0	25701	24290	147550	26968	1025930	43340	109510	0	0	8214	601571	0	0
2024-07-05 03:37:32			0	36792	0	0	0	25693	24290	147598	27100	1025939	43330	109507	0	0	8215	600992	0	0
2024-07-05 03:38:32			0	36817	0	0	0	25696	24280	147514	27287	1025895	43329	109508	0	0	8216	599993	0	0
2024-07-05 03:39:32			0	36830	0	0	0	25693	24280	147530	27371	1025913	43338	109507	0	0	8217	599456	0	0
2024-07-05 03:40:32			0	36828	0	0	0	25690	24270	147486	27481	1025949	43328	109506	0	0	8216	599573	0	0
2024-07-05 03:41:32			0	36858	0	0	0	25688	24290	147314	27088	1025877	43330	109505	0	0	8218	598268	0	0
2024-07-05 03:42:32			0	36874	0	0	0	25685	24280	147314	27267	1025868	43339	109504	0	0	8219	597642	0	0
2024-07-05 03:43:32			0	36876	0	0	0	25683	24280	147338	27085	1025886	43361	109503	0	0	8219	597560	0	0
2024-07-05 03:44:32			0	36865	0	0	0	25690	24270	147362	27038	1025842	43338	109506	0	0	8218	598047	0	0
2024-07-05 03:45:32			0	36853	0	0	0	25696	24280	147286	27331	1025886	43350	109508	0	0	8218	598508	0	0
2024-07-05 03:46:32			0	36863	0	0	0	25688	24260	147342	27223	1025878	43326	109505	0	0	8218	598163	0	0
2024-07-05 03:47:32			0	36868	0	0	0	25685	24290	147342	27072	1025957	43340	109504	0	0	8219	597856	0	0
2024-07-05 03:48:32			0	36856	0	0	0	25685	24280	147374	27076	1025859	43338	109504	0	0	8218	598384	0	0
2024-07-05 03:49:32			0	36854	0	0	0	25680	24280	147314	27206	1025940	43338	109502	0	0	8218	598466	0	0
2024-07-05 03:50:32			0	36856	0	0	0	25675	24270	147362	27001	1025797	43338	109500	0	0	8218	598418	0	0
2024-07-05 03:51:32			0	36851	0	0	0	25677	24280	147298	27163	1025814	43329	109501	0	0	8218	598590	0	0
2024-07-05 03:52:32			0	36868	0	0	0	25675	24280	147250	27187	1025806	43350	109500	0	0	8219	597890	0	0
2024-07-05 03:53:32			0	36871	0	0	0	25672	24250	147278	27157	1025789	43326	109499	0	0	8219	597867	0	0
2024-07-05 03:54:32			0	36862	0	0	0	25667	24250	147314	27187	1025763	43326	109497	0	0	8219	598238	0	0
2024-07-05 03:55:32			0	36885	0	0	0	25662	24260	147278	27038	1025780	43327	109495	0	0	8220	597257	0	0
2024-07-05 03:56:32			0	36893	0	0	0	25667	24270	147266	27364	1025797	43338	109497	0	0	8220	596894	0	0
2024-07-05 03:57:32			0	36887	0	0	0	25662	24250	147230	27074	1025754	43337	109495	0	0	8220	597208	0	0
2024-07-05 03:58:32			0	36917	0	0	0	25662	24250	147202	27469	1025727	43337	109495	0	0	8221	595974	0	0
2024-07-05 03:59:32			0	36890	0	0	0	25657	24240	147218	27306	1025692	43347	109493	0	0	8220	597119	0	0
2024-07-05 04:00:32			0	36916	0	0	0	25662	24250	147134	27100	1025700	43337	109495	0	0	8221	596015	0	0
2024-07-05 04:01:32			0	36904	0	0	0	25651	24250	147166	27104	1025763	43337	109491	0	0	8221	596509	0	0
2024-07-05 04:02:32			0	36918	0	0	0	25654	24260	147154	27019	1025771	43326	109492	0	0	8222	595899	0	0
2024-07-05 04:03:32			0	36899	0	0	0	25654	24240	147222	26885	1025665	43325	109492	0	0	8221	596748	0	0
2024-07-05 04:04:32			0	36921	0	0	0	25657	24240	147258	27104	1025692	43314	109493	0	0	8222	595843	0	0
2024-07-05 04:05:32			0	36918	0	0	0	25649	24240	147218	27119	1025745	43347	109490	0	0	8222	595967	0	0
2024-07-05 04:06:32			0	36934	0	0	0	25651	24240	147054	27183	1025683	43346	109491	0	0	8223	595309	0	0
2024-07-05 04:07:32			0	36941	0	0	0	25641	24240	147146	27334	1025603	43324	109487	0	0	8223	595022	0	0
2024-07-05 04:08:32			0	36931	0	0	0	25649	24240	147018	27182	1025656	43335	109490	0	0	8222	595432	0	0
2024-07-05 04:09:32			0	36911	0	0	0	25638	24240	147030	27222	1025656	43346	109486	0	0	8222	596255	0	0
2024-07-05 04:10:32			0	36924	0	0	0	25646	24240	147094	27275	1025692	43347	109489	0	0	8222	595720	0	0
2024-07-05 04:11:32			0	36926	0	0	0	25646	24230	147158	27459	1025728	43335	109489	0	0	8222	595672	0	0
2024-07-05 04:12:32			0	36911	0	0	0	25654	24230	147218	26880	1025648	43346	109492	0	0	8221	596288	0	0
2024-07-05 04:13:32			0	36911	0	0	0	25641	24220	147254	26700	1025684	43323	109487	0	0	8221	596322	0	0
2024-07-05 04:14:32			0	36895	0	0	0	25649	24230	147350	27071	1025701	43346	109490	0	0	8220	596946	0	0
2024-07-05 04:15:32			0	36895	0	0	0	25646	24240	147338	27166	1025683	43335	109489	0	0	8221	596913	0	0
2024-07-05 04:16:32			0	36882	0	0	0	25646	24230	147394	27436	1025648	43335	109489	0	0	8220	597482	0	0
2024-07-05 04:17:32			0	36897	0	0	0	25646	24240	147290	27168	1025656	43324	109489	0	0	8221	596830	0	0
2024-07-05 04:18:32			0	36879	0	0	0	25646	24230	147358	27211	1025666	43334	109489	0	0	8220	597605	0	0
2024-07-05 04:19:32			0	36857	0	0	0	25646	24230	147446	27173	1025621	43346	109489	0	0	8219	598512	0	0
2024-07-05 04:20:32			0	36836	0	0	0	25649	24230	147502	27310	1025585	43356	109490	0	0	8217	599378	0	0
2024-07-05 04:21:32			0	36849	0	0	0	25651	24230	147494	27185	1025621	43335	109491	0	0	8218	598842	0	0
2024-07-05 04:22:32			0	36840	0	0	0	25649	24230	147466	27384	1025674	43335	109490	0	0	8218	599213	0	0
2024-07-05 04:23:32			0	36826	0	0	0	25646	24220	147578	27112	1025711	43323	109489	0	0	8217	599825	0	0
2024-07-05 04:24:32			0	36815	0	0	0	25641	24230	147650	27104	1025666	43334	109487	0	0	8216	600245	0	0
2024-07-05 04:25:32			0	36830	0	0	0	25657	24230	147554	27213	1025666	43345	109493	0	0	8217	599626	0	0
2024-07-05 04:26:32			0	36814	0	0	0	25649	24220	147610	27126	1025684	43334	109490	0	0	8216	600320	0	0
2024-07-05 04:27:32			0	36818	0	0	0	25651	24230	147670	27183	1025692	43323	109491	0	0	8216	600121	0	0
2024-07-05 04:28:32			0	36801	0	0	0	25649	24220	147638	27253	1025657	43334	109490	0	0	8215	600858	0	0
2024-07-05 04:29:32			0	36783	0	0	0	25638	24220	147698	27306	1025684	43334	109486	0	0	8215	601602	0	0
2024-07-05 04:30:32			0	36770	0	0	0	25654	24230	147782	27410	1025674	43324	109492	0	0	8214	602106	0	0
2024-07-05 04:31:32			0	36749	0	0	0	25649	24230	147874	27229	1025692	43334	109490	0	0	8213	602976	0	0
2024-07-05 04:32:32			0	36747	0	0	0	25651	24240	147854	27038	1025656	43324	109491	0	0	8213	603024	0	0
2024-07-05 04:33:32			0	36742	0	0	0	25654	24230	147866	27206	1025666	43334	109492	0	0	8212	603266	0	0
2024-07-05 04:34:32			0	36752	0	0	0	25649	24220	147890	27254	1025657	43345	109490	0	0	8213	602885	0	0
2024-07-05 04:35:32			0	36750	0	0	0	25654	24230	147874	27249	1025719	43334	109492	0	0	8213	602934	0	0
2024-07-05 04:36:32			0	36733	0	0	0	25657	24230	147998	27293	1025746	43334	109493	0	0	8212	603639	0	0
2024-07-05 04:37:32			0	36738	0	0	0	25651	24230	147878	27268	1025701	43346	109491	0	0	8212	603432	0	0
2024-07-05 04:38:32			0	36714	0	0	0	25657	24230	147870	27334	1025746	43334	109493	0	0	8211	604427	0	0
2024-07-05 04:39:32			0	36730	0	0	0	25654	24220	147966	27374	1025684	43345	109492	0	0	8212	603797	0	0
2024-07-05 04:40:32			0	36733	0	0	0	25659	24230	147954	27144	1025701	43324	109494	0	0	8212	603639	0	0
2024-07-05 04:41:32			0	36730	0	0	0	25659	24230	147938	26896	1025674	43346	109494	0	0	8212	603763	0	0
2024-07-05 04:42:32			0	36719	0	0	0	25659	24230	147950	27213	1025666	43345	109494	0	0	8211	604220	0	0
2024-07-05 04:43:32			0	36738	0	0	0	25651	24240	147938	26965	1025710	43324	109491	0	0	8212	603398	0	0
2024-07-05 04:44:32			0	36733	0	0	0	25662	24230	147890	27072	1025808	43335	109495	0	0	8212	603639	0	0
2024-07-05 04:45:32			0	36729	0	0	0	25657	24230	147866	27424	1025692	43356	109493	0	0	8212	603805	0	0
2024-07-05 04:46:32			0	36736	0	0	0	25657	24230	147962	27156	1025719	43334	109493	0	0	8212	603514	0	0
2024-07-05 04:47:32			0	36747	0	0	0	25662	24230	147994	27334	1025728	43324	109495	0	0	8212	603058	0	0
2024-07-05 04:48:32			0	36736	0	0	0	25654	24230	147946	27239	1025674	43357	109492	0	0	8212	603514	0	0
2024-07-05 04:49:32			0	36748	0	0	0	25654	24230	147882	27154	1025728	43346	109492	0	0	8213	603017	0	0
2024-07-05 04:50:32			0	36740	0	0	0	25651	24250	147758	27112	1025781	43337	109491	0	0	8212	603281	0	0
2024-07-05 04:51:32			0	36748	0	0	0	25667	24240	147822	27460	1025692	43325	109497	0	0	8213	602983	0	0
2024-07-05 04:52:32			0	36747	0	0	0	25659	24240	147874	27405	1025683	43324	109494	0	0	8213	603024	0	0
2024-07-05 04:53:32			0	36748	0	0	0	25654	24230	147818	26984	1025701	43335	109492	0	0	8213	603017	0	0
2024-07-05 04:54:32			0	36777	0	0	0	25649	24240	147938	27327	1025736	43324	109490	0	0	8214	601782	0	0
2024-07-05 04:55:32			0	36773	0	0	0	25662	24230	147778	27118	1025648	43357	109495	0	0	8214	601982	0	0
2024-07-05 04:56:32			0	36757	0	0	0	25657	24240	147846	27500	1025718	43358	109493	0	0	8213	602610	0	0
2024-07-05 04:57:32			0	36776	0	0	0	25657	24240	147778	27135	1025710	43335	109493	0	0	8214	601824	0	0
2024-07-05 04:58:32			0	36778	0	0	0	25654	24230	147846	26982	1025755	43335	109492	0	0	8214	601775	0	0
2024-07-05 04:59:32			0	36784	0	0	0	25654	24230	147842	27057	1025719	43345	109492	0	0	8215	601527	0	0
2024-07-05 05:00:32			0	36760	0	0	0	25651	24240	147818	27098	1025736	43324	109491	0	0	8213	602486	0	0
2024-07-05 05:01:32			0	36755	0	0	0	25651	24240	147814	26974	1025710	43346	109491	0	0	8213	602693	0	0
2024-07-05 05:02:32			0	36733	0	0	0	25641	24240	147894	27229	1025656	43335	109487	0	0	8212	603605	0	0
2024-07-05 05:03:32			0	36738	0	0	0	25654	24230	147910	27168	1025701	43346	109492	0	0	8212	603432	0	0
2024-07-05 05:04:32			0	36718	0	0	0	25651	24230	147946	27088	1025746	43334	109491	0	0	8211	604261	0	0
2024-07-05 05:05:32			0	36726	0	0	0	25651	24230	147970	27315	1025755	43346	109491	0	0	8212	603929	0	0
2024-07-05 05:06:32			0	36713	0	0	0	25649	24230	148034	27060	1025728	43346	109490	0	0	8211	604469	0	0
2024-07-05 05:07:32			0	36707	0	0	0	25641	24230	148042	27230	1025746	43323	109487	0	0	8211	604718	0	0
2024-07-05 05:08:32			0	36706	0	0	0	25654	24230	148018	27301	1025674	43335	109492	0	0	8210	604759	0	0
2024-07-05 05:09:32			0	36694	0	0	0	25638	24230	148110	27348	1025719	43334	109486	0	0	8210	605258	0	0
2024-07-05 05:10:32			0	36684	0	0	0	25644	24220	148086	27270	1025729	43333	109488	0	0	8209	605707	0	0
2024-07-05 05:11:32			0	36679	0	0	0	25649	24230	148142	27319	1025755	43346	109490	0	0	8209	605881	0	0
2024-07-05 05:12:32			0	36664	0	0	0	25644	24230	148142	27076	1025719	43334	109488	0	0	8208	606505	0	0
2024-07-05 05:13:32			0	36659	0	0	0	25638	24230	148186	27147	1025674	43335	109486	0	0	8208	606713	0	0
2024-07-05 05:14:32			0	36646	0	0	0	25638	24230	148270	27083	1025639	43334	109486	0	0	8208	607254	0	0
2024-07-05 05:15:32			0	36645	0	0	0	25638	24220	148250	27183	1025604	43345	109486	0	0	8208	607330	0	0
2024-07-05 05:16:32			0	36623	0	0	0	25638	24230	148354	27242	1025692	43334	109486	0	0	8206	608212	0	0
2024-07-05 05:17:32			0	36604	0	0	0	25654	24220	148406	27390	1025684	43345	109492	0	0	8205	609039	0	0
2024-07-05 05:18:32			0	36576	0	0	0	25649	24230	148533	27104	1025701	43335	109490	0	0	8204	610173	0	0
2024-07-05 05:19:32			0	36559	0	0	0	25649	24230	148645	27408	1025746	43323	109490	0	0	8203	610884	0	0
2024-07-05 05:20:32			0	36551	0	0	0	25644	24220	148745	27440	1025702	43333	109488	0	0	8202	611253	0	0
2024-07-05 05:21:32			0	36523	0	0	0	25649	24230	148817	27632	1025674	43335	109490	0	0	8201	612390	0	0
2024-07-05 05:22:32			0	36525	0	0	0	25646	24230	148829	27350	1025674	43346	109489	0	0	8201	612306	0	0
2024-07-05 05:23:32			0	36519	0	0	0	25644	24230	148757	27154	1025719	43334	109488	0	0	8201	612558	0	0
2024-07-05 05:24:32			0	36489	0	0	0	25646	24230	148785	27149	1025692	43334	109489	0	0	8199	613815	0	0
2024-07-05 05:25:32			0	36481	0	0	0	25641	24220	148813	27131	1025684	43334	109487	0	0	8199	614185	0	0
2024-07-05 05:26:32			0	36468	0	0	0	25649	24220	148881	27282	1025737	43345	109490	0	0	8198	614731	0	0
2024-07-05 05:27:32			0	36445	0	0	0	25644	24230	148929	27182	1025666	43323	109488	0	0	8197	615663	0	0
2024-07-05 05:28:32			0	36459	0	0	0	25649	24220	148969	26965	1025630	43334	109490	0	0	8198	615109	0	0
2024-07-05 05:29:32			0	36451	0	0	0	25646	24230	149021	26984	1025701	43335	109489	0	0	8197	615410	0	0
2024-07-05 05:30:32			0	36447	0	0	0	25649	24220	149049	27189	1025675	43333	109490	0	0	8197	615613	0	0
2024-07-05 05:31:32			0	36441	0	0	0	25654	24230	149117	27206	1025674	43346	109492	0	0	8197	615831	0	0
2024-07-05 05:32:32			0	36425	0	0	0	25649	24230	149121	27336	1025701	43335	109490	0	0	8196	616504	0	0
2024-07-05 05:33:32			0	36432	0	0	0	25641	24220	149185	27490	1025684	43334	109487	0	0	8196	616244	0	0
2024-07-05 05:34:32			0	36427	0	0	0	25651	24230	149161	27130	1025692	43345	109491	0	0	8196	616420	0	0
2024-07-05 05:35:32			0	36412	0	0	0	25641	24220	149097	27421	1025622	43344	109487	0	0	8195	617086	0	0
2024-07-05 05:36:32			0	36423	0	0	0	25644	24220	149193	27459	1025684	43334	109488	0	0	8196	616623	0	0
2024-07-05 05:37:32			0	36393	0	0	0	25644	24220	149133	26994	1025702	43355	109488	0	0	8194	617886	0	0
2024-07-05 05:38:32			0	36400	0	0	0	25638	24220	149169	27365	1025657	43323	109486	0	0	8195	617591	0	0
2024-07-05 05:39:32			0	36402	0	0	0	25636	24220	149181	27225	1025675	43333	109485	0	0	8195	617507	0	0
2024-07-05 05:40:32			0	36410	0	0	0	25641	24220	149169	27474	1025675	43333	109487	0	0	8195	617170	0	0
2024-07-05 05:41:32			0	36422	0	0	0	25638	24220	149189	27460	1025675	43333	109486	0	0	8196	616665	0	0
2024-07-05 05:42:32			0	36418	0	0	0	25638	24230	149205	27433	1025701	43324	109486	0	0	8196	616798	0	0
2024-07-05 05:43:32			0	36395	0	0	0	25641	24230	149225	27079	1025692	43345	109487	0	0	8194	617767	0	0
2024-07-05 05:44:32			0	36402	0	0	0	25654	24220	149185	27447	1025711	43345	109492	0	0	8194	617507	0	0
2024-07-05 05:45:32			0	36395	0	0	0	25644	24230	149233	27438	1025692	43334	109488	0	0	8194	617767	0	0
2024-07-05 05:46:32			0	36407	0	0	0	25646	24230	149261	27628	1025666	43345	109489	0	0	8195	617261	0	0
2024-07-05 05:47:32			0	36384	0	0	0	25646	24220	149225	27364	1025657	43323	109489	0	0	8194	618265	0	0
2024-07-05 05:48:32			0	36371	0	0	0	25641	24230	149265	27308	1025692	43334	109487	0	0	8193	618779	0	0
2024-07-05 05:49:32			0	36380	0	0	0	25651	24230	149353	27211	1025701	43335	109491	0	0	8193	618399	0	0
2024-07-05 05:50:32			0	36367	0	0	0	25644	24240	149277	27360	1025736	43335	109488	0	0	8193	618912	0	0
2024-07-05 05:51:32			0	36344	0	0	0	25649	24220	149373	27313	1025711	43345	109490	0	0	8191	619953	0	0
2024-07-05 05:52:32			0	36332	0	0	0	25657	24230	149481	27241	1025755	43324	109493	0	0	8191	620425	0	0
2024-07-05 05:53:32			0	36319	0	0	0	25657	24240	149597	27121	1025763	43335	109493	0	0	8190	620940	0	0
2024-07-05 05:54:32			0	36317	0	0	0	25670	24230	149529	27182	1025755	43335	109498	0	0	8190	621059	0	0
2024-07-05 05:55:32			0	36301	0	0	0	25664	24240	149601	27351	1025736	43335	109496	0	0	8189	621701	0	0
2024-07-05 05:56:32			0	36311	0	0	0	25667	24240	149613	27272	1025745	43336	109497	0	0	8190	621278	0	0
2024-07-05 05:57:32			0	36290	0	0	0	25670	24240	149657	27294	1025852	43325	109498	0	0	8188	622167	0	0
2024-07-05 05:58:32			0	36296	0	0	0	25670	24240	149637	27197	1025799	43347	109498	0	0	8189	621913	0	0
2024-07-05 05:59:32			0	36314	0	0	0	25672	24250	149545	27296	1025781	43348	109499	0	0	8190	621116	0	0
2024-07-05 06:00:32			0	36317	0	0	0	25662	24240	149561	27286	1025799	43347	109495	0	0	8190	621024	0	0
2024-07-05 06:01:32			0	36329	0	0	0	25672	24250	149533	27514	1025843	43348	109499	0	0	8190	620482	0	0
2024-07-05 06:02:32			0	36353	0	0	0	25680	24250	149541	27300	1025807	43348	109502	0	0	8192	619468	0	0
2024-07-05 06:03:32			0	36353	0	0	0	25667	24250	149361	27237	1025888	43337	109497	0	0	8192	619468	0	0
2024-07-05 06:04:32			0	36354	0	0	0	25680	24250	149465	27300	1025861	43348	109502	0	0	8192	619426	0	0
2024-07-05 06:05:32			0	36347	0	0	0	25683	24250	149473	27088	1025896	43337	109503	0	0	8191	619722	0	0
2024-07-05 06:06:32			0	36337	0	0	0	25685	24260	149517	27020	1025940	43338	109504	0	0	8191	620109	0	0
2024-07-05 06:07:32			0	36346	0	0	0	25685	24260	149461	27402	1025878	43348	109504	0	0	8191	619729	0	0
2024-07-05 06:08:32			0	36338	0	0	0	25688	24250	149425	27119	1025941	43348	109505	0	0	8191	620102	0	0
2024-07-05 06:09:32			0	36358	0	0	0	25693	24250	149321	27163	1025869	43348	109507	0	0	8192	619257	0	0
2024-07-05 06:10:32			0	36379	0	0	0	25688	24250	149333	27130	1025869	43348	109505	0	0	8193	618371	0	0
2024-07-05 06:11:32			0	36367	0	0	0	25685	24260	149381	26955	1025940	43338	109504	0	0	8192	618842	0	0
2024-07-05 06:12:32			0	36400	0	0	0	25680	24270	149189	27263	1025922	43350	109502	0	0	8194	617417	0	0
2024-07-05 06:13:32			0	36402	0	0	0	25685	24260	149145	27275	1025860	43349	109504	0	0	8194	617367	0	0
2024-07-05 06:14:32			0	36412	0	0	0	25690	24280	149169	27183	1025895	43339	109506	0	0	8195	616877	0	0
2024-07-05 06:15:32			0	36425	0	0	0	25693	24270	149161	27175	1025904	43338	109507	0	0	8195	616365	0	0
2024-07-05 06:16:32			0	36445	0	0	0	25696	24270	149141	27010	1025949	43338	109508	0	0	8196	615524	0	0
2024-07-05 06:17:32			0	36431	0	0	0	25688	24280	149117	26994	1025913	43350	109505	0	0	8196	616077	0	0
2024-07-05 06:18:32			0	36439	0	0	0	25696	24280	149081	27145	1025886	43338	109508	0	0	8196	615741	0	0
2024-07-05 06:19:32			0	36434	0	0	0	25690	24280	149117	26942	1025948	43351	109506	0	0	8196	615951	0	0
2024-07-05 06:20:32			0	36442	0	0	0	25701	24280	149137	27078	1025940	43350	109510	0	0	8196	615615	0	0
2024-07-05 06:21:32			0	36414	0	0	0	25688	24290	149189	26906	1025965	43352	109505	0	0	8195	616758	0	0
2024-07-05 06:22:32			0	36431	0	0	0	25698	24280	149145	27258	1025921	43339	109509	0	0	8196	616077	0	0
2024-07-05 06:23:32			0	36421	0	0	0	25698	24280	149049	27109	1025948	43339	109509	0	0	8195	616498	0	0
2024-07-05 06:24:32			0	36422	0	0	0	25690	24280	148989	27164	1025975	43339	109506	0	0	8195	616456	0	0
2024-07-05 06:25:32			0	36430	0	0	0	25703	24280	149129	27272	1025895	43362	109511	0	0	8195	616119	0	0
2024-07-05 06:26:32			0	36458	0	0	0	25688	24280	149041	27234	1025868	43329	109505	0	0	8197	614943	0	0
2024-07-05 06:27:32			0	36469	0	0	0	25693	24280	148829	27156	1025886	43338	109507	0	0	8198	614481	0	0
2024-07-05 06:28:32			0	36504	0	0	0	25688	24270	148777	27265	1025922	43338	109505	0	0	8199	613048	0	0
2024-07-05 06:29:32			0	36529	0	0	0	25688	24280	148721	27116	1025895	43351	109505	0	0	8201	611966	0	0
2024-07-05 06:30:32			0	36518	0	0	0	25677	24280	148645	27237	1025921	43329	109501	0	0	8200	612427	0	0
2024-07-05 06:31:32			0	36543	0	0	0	25675	24290	148629	27128	1025957	43352	109500	0	0	8202	611346	0	0
2024-07-05 06:32:32			0	36553	0	0	0	25680	24280	148533	27152	1025886	43338	109502	0	0	8202	610962	0	0
2024-07-05 06:33:32			0	36579	0	0	0	25688	24290	148477	27279	1025957	43319	109505	0	0	8203	609842	0	0
2024-07-05 06:34:32			0	36581	0	0	0	25685	24270	148545	27289	1025949	43361	109504	0	0	8204	609827	0	0
2024-07-05 06:35:32			0	36566	0	0	0	25690	24280	148437	27284	1025940	43338	109506	0	0	8203	610419	0	0
2024-07-05 06:36:32			0	36586	0	0	0	25690	24270	148470	27093	1025949	43338	109506	0	0	8204	609618	0	0
2024-07-05 06:37:32			0	36573	0	0	0	25693	24290	148593	27100	1025957	43330	109507	0	0	8203	610092	0	0
2024-07-05 06:38:32			0	36557	0	0	0	25696	24270	148593	27287	1025904	43338	109508	0	0	8202	610829	0	0
2024-07-05 06:39:32			0	36555	0	0	0	25703	24290	148613	27403	1026010	43340	109511	0	0	8202	610844	0	0
2024-07-05 06:40:32			0	36520	0	0	0	25690	24270	148613	27303	1025958	43338	109506	0	0	8200	612378	0	0
2024-07-05 06:41:32			0	36536	0	0	0	25698	24280	148625	27502	1025966	43350	109509	0	0	8201	611673	0	0
2024-07-05 06:42:32			0	36537	0	0	0	25698	24290	148629	27248	1025877	43340	109509	0	0	8201	611597	0	0
2024-07-05 06:43:32			0	36550	0	0	0	25688	24270	148705	27218	1025904	43338	109505	0	0	8202	611122	0	0
2024-07-05 06:44:32			0	36547	0	0	0	25698	24290	148669	27000	1025992	43340	109509	0	0	8202	611178	0	0
2024-07-05 06:45:32			0	36586	0	0	0	25690	24290	148466	27282	1025992	43330	109506	0	0	8204	609549	0	0
2024-07-05 06:46:32			0	36562	0	0	0	25690	24280	148537	27234	1025966	43350	109506	0	0	8203	610586	0	0
2024-07-05 06:47:32			0	36559	0	0	0	25688	24280	148561	27324	1025948	43351	109505	0	0	8202	610711	0	0
2024-07-05 06:48:32			0	36586	0	0	0	25696	24290	148473	27246	1025984	43340	109508	0	0	8204	609549	0	0
2024-07-05 06:49:32			0	36583	0	0	0	25690	24280	148485	27128	1026028	43351	109506	0	0	8204	609709	0	0
2024-07-05 06:50:32			0	36586	0	0	0	25703	24290	148481	27154	1025984	43352	109511	0	0	8204	609549	0	0
2024-07-05 06:51:32			0	36573	0	0	0	25703	24280	148477	27234	1025948	43339	109511	0	0	8203	610126	0	0
2024-07-05 06:52:32			0	36580	0	0	0	25698	24290	148489	27393	1025992	43352	109509	0	0	8203	609799	0	0
2024-07-05 06:53:32			0	36585	0	0	0	25685	24290	148505	27248	1025939	43340	109504	0	0	8204	609591	0	0
2024-07-05 06:54:32			0	36579	0	0	0	25690	24290	148525	27116	1025984	43340	109506	0	0	8203	609842	0	0
2024-07-05 06:55:32			0	36593	0	0	0	25690	24290	148473	27343	1026019	43340	109506	0	0	8204	609257	0	0
2024-07-05 06:56:32			0	36585	0	0	0	25693	24280	148453	27348	1026002	43351	109507	0	0	8204	609625	0	0
2024-07-05 06:57:32			0	36583	0	0	0	25696	24290	148345	27156	1026010	43352	109508	0	0	8204	609674	0	0
2024-07-05 06:58:32			0	36587	0	0	0	25701	24270	148429	27424	1025904	43350	109510	0	0	8204	609576	0	0
2024-07-05 06:59:32			0	36593	0	0	0	25698	24290	148513	27341	1025984	43340	109509	0	0	8204	609257	0	0
2024-07-05 07:00:32			0	36590	0	0	0	25696	24280	148417	27381	1025921	43351	109508	0	0	8204	609417	0	0
2024-07-05 07:01:32			0	36607	0	0	0	25701	24290	148454	27547	1026010	43352	109510	0	0	8205	608673	0	0
2024-07-05 07:02:32			0	36593	0	0	0	25693	24290	148354	27024	1026046	43330	109507	0	0	8204	609257	0	0
2024-07-05 07:03:32			0	36580	0	0	0	25701	24290	148421	27248	1025992	43352	109510	0	0	8203	609799	0	0
2024-07-05 07:04:32			0	36587	0	0	0	25709	24300	148438	27105	1026081	43352	109513	0	0	8204	609473	0	0
2024-07-05 07:05:32			0	36587	0	0	0	25703	24300	148473	27294	1026010	43341	109511	0	0	8204	609473	0	0
2024-07-05 07:06:32			0	36565	0	0	0	25706	24290	148461	27500	1026046	43340	109512	0	0	8202	610426	0	0
2024-07-05 07:07:32			0	36567	0	0	0	25706	24300	148481	27303	1026028	43340	109512	0	0	8203	610308	0	0
2024-07-05 07:08:32			0	36560	0	0	0	25709	24300	148521	27421	1026055	43352	109513	0	0	8202	610601	0	0
2024-07-05 07:09:32			0	36547	0	0	0	25711	24300	148481	27267	1026001	43363	109514	0	0	8201	611144	0	0
2024-07-05 07:10:32			0	36560	0	0	0	25711	24300	148549	27512	1026055	43340	109514	0	0	8202	610601	0	0
2024-07-05 07:11:32			0	36552	0	0	0	25716	24300	148513	26968	1026010	43353	109516	0	0	8202	610935	0	0
2024-07-05 07:12:32			0	36579	0	0	0	25703	24310	148509	27038	1026046	43354	109511	0	0	8203	609773	0	0
2024-07-05 07:13:32			0	36561	0	0	0	25716	24320	148549	27377	1026135	43354	109516	0	0	8202	610490	0	0
2024-07-05 07:14:32			0	36564	0	0	0	25714	24320	148473	27114	1026081	43354	109515	0	0	8202	610365	0	0
2024-07-05 07:15:32			0	36580	0	0	0	25724	24300	148561	27331	1026117	43353	109519	0	0	8203	609765	0	0
2024-07-05 07:16:32			0	36564	0	0	0	25714	24300	148609	27190	1026090	43364	109515	0	0	8202	610433	0	0
2024-07-05 07:17:32			0	36565	0	0	0	25722	24310	148629	27261	1026046	43354	109518	0	0	8202	610357	0	0
2024-07-05 07:18:32			0	36570	0	0	0	25716	24310	148525	27189	1026153	43342	109516	0	0	8203	610148	0	0
2024-07-05 07:19:32			0	36561	0	0	0	25722	24320	148605	27196	1026143	43343	109518	0	0	8202	610490	0	0
2024-07-05 07:20:32			0	36551	0	0	0	25722	24310	148569	27300	1026153	43354	109518	0	0	8202	610942	0	0
2024-07-05 07:21:32			0	36568	0	0	0	25716	24310	148541	26998	1026099	43354	109516	0	0	8203	610232	0	0
2024-07-05 07:22:32			0	36602	0	0	0	25714	24320	148414	27076	1026081	43343	109515	0	0	8204	608778	0	0
2024-07-05 07:23:32			0	36608	0	0	0	25716	24320	148294	27111	1026090	43354	109516	0	0	8205	608528	0	0
2024-07-05 07:24:32			0	36609	0	0	0	25719	24310	148342	27261	1026099	43354	109517	0	0	8205	608521	0	0
2024-07-05 07:25:32			0	36641	0	0	0	25709	24320	148374	27097	1026108	43343	109513	0	0	8207	607154	0	0
2024-07-05 07:26:32			0	36630	0	0	0	25714	24310	148306	27216	1026072	43354	109515	0	0	8206	607646	0	0
2024-07-05 07:27:32			0	36650	0	0	0	25716	24310	148158	27003	1026153	43342	109516	0	0	8207	606813	0	0
2024-07-05 07:28:32			0	36643	0	0	0	25714	24320	148282	27410	1026143	43343	109515	0	0	8207	607070	0	0
2024-07-05 07:29:32			0	36648	0	0	0	25724	24310	148262	27145	1026126	43365	109519	0	0	8207	606896	0	0
2024-07-05 07:30:32			0	36624	0	0	0	25722	24320	148338	27010	1026135	43354	109518	0	0	8205	607861	0	0
2024-07-05 07:31:32			0	36629	0	0	0	25722	24320	148390	26986	1026090	43354	109518	0	0	8206	607653	0	0
2024-07-05 07:32:32			0	36616	0	0	0	25729	24320	148498	26717	1026197	43354	109521	0	0	8205	608195	0	0
2024-07-05 07:33:32			0	36621	0	0	0	25735	24320	148446	27147	1026161	43343	109523	0	0	8205	607986	0	0
2024-07-05 07:34:32			0	36604	0	0	0	25719	24320	148506	27211	1026143	43354	109517	0	0	8204	608695	0	0
2024-07-05 07:35:32			0	36580	0	0	0	25719	24320	148509	27171	1026170	43343	109517	0	0	8203	609696	0	0
2024-07-05 07:36:32			0	36603	0	0	0	25719	24310	148542	27251	1026179	43342	109517	0	0	8204	608771	0	0
2024-07-05 07:37:32			0	36586	0	0	0	25724	24320	148473	27341	1026143	43343	109519	0	0	8203	609446	0	0
2024-07-05 07:38:32			0	36587	0	0	0	25729	24330	148470	27027	1026152	43366	109521	0	0	8203	609370	0	0
2024-07-05 07:39:32			0	36578	0	0	0	25727	24330	148569	27223	1026179	43354	109520	0	0	8203	609745	0	0
2024-07-05 07:40:32			0	36578	0	0	0	25719	24330	148585	27350	1026134	43355	109517	0	0	8203	609745	0	0
2024-07-05 07:41:32			0	36581	0	0	0	25732	24340	148561	27483	1026169	43368	109522	0	0	8203	609586	0	0
2024-07-05 07:42:32			0	36574	0	0	0	25729	24320	148529	27481	1026135	43366	109521	0	0	8203	609947	0	0
2024-07-05 07:43:32			0	36594	0	0	0	25735	24320	148533	27255	1026143	43354	109523	0	0	8204	609112	0	0
2024-07-05 07:44:32			0	36546	0	0	0	25729	24330	148557	27429	1026179	43343	109521	0	0	8201	611082	0	0
2024-07-05 07:45:32			0	36572	0	0	0	25735	24320	148597	27036	1026223	43343	109523	0	0	8202	610030	0	0
2024-07-05 07:46:32			0	36577	0	0	0	25737	24330	148577	27260	1026179	43343	109524	0	0	8203	609787	0	0
2024-07-05 07:47:32			0	36560	0	0	0	25732	24330	148633	27145	1026214	43344	109522	0	0	8202	610497	0	0
2024-07-05 07:48:32			0	36557	0	0	0	25745	24340	148581	26863	1026169	43356	109527	0	0	8202	610588	0	0
2024-07-05 07:49:32			0	36557	0	0	0	25740	24320	148629	26908	1026170	43366	109525	0	0	8202	610657	0	0
2024-07-05 07:50:32			0	36564	0	0	0	25737	24330	148589	27289	1026214	43355	109524	0	0	8202	610330	0	0
2024-07-05 07:51:32			0	36557	0	0	0	25732	24330	148561	27147	1026161	43355	109522	0	0	8202	610623	0	0
2024-07-05 07:52:32			0	36570	0	0	0	25729	24340	148545	27268	1026205	43356	109521	0	0	8203	610045	0	0
2024-07-05 07:53:32			0	36571	0	0	0	25735	24340	148541	27301	1026223	43356	109523	0	0	8203	610003	0	0
2024-07-05 07:54:32			0	36575	0	0	0	25740	24330	148577	27301	1026161	43344	109525	0	0	8203	609871	0	0
2024-07-05 07:55:32			0	36569	0	0	0	25745	24330	148581	27204	1026214	43367	109527	0	0	8202	610121	0	0
2024-07-05 07:56:32			0	36577	0	0	0	25742	24340	148617	27248	1026223	43356	109526	0	0	8203	609753	0	0
2024-07-05 07:57:32			0	36570	0	0	0	25750	24340	148641	27403	1026231	43356	109529	0	0	8202	610045	0	0
2024-07-05 07:58:32			0	36548	0	0	0	25750	24340	148725	27154	1026249	43356	109529	0	0	8201	610964	0	0
2024-07-05 07:59:32			0	36566	0	0	0	25753	24340	148721	27211	1026223	43356	109530	0	0	8202	610212	0	0
2024-07-05 08:00:32			0	36569	0	0	0	25753	24350	148633	27249	1026249	43346	109530	0	0	8202	610052	0	0
2024-07-05 08:01:32			0	36548	0	0	0	25750	24340	148625	27319	1026205	43345	109529	0	0	8201	610964	0	0
2024-07-05 08:02:32			0	36553	0	0	0	25748	24340	148677	27213	1026223	43345	109528	0	0	8201	610755	0	0
2024-07-05 08:03:32			0	36526	0	0	0	25750	24340	148705	27067	1026223	43368	109529	0	0	8200	611884	0	0
2024-07-05 08:04:32			0	36544	0	0	0	25750	24350	148689	27033	1026249	43346	109529	0	0	8201	611097	0	0
2024-07-05 08:05:32			0	36548	0	0	0	25742	24340	148781	27514	1026258	43368	109526	0	0	8201	610964	0	0
2024-07-05 08:06:32			0	36529	0	0	0	25748	24350	148713	27253	1026240	43345	109528	0	0	8200	611724	0	0
2024-07-05 08:07:32			0	36522	0	0	0	25748	24350	148805	27022	1026320	43356	109528	0	0	8200	612017	0	0
2024-07-05 08:08:32			0	36533	0	0	0	25755	24350	148829	27173	1026267	43334	109531	0	0	8200	611557	0	0
2024-07-05 08:09:32			0	36531	0	0	0	25758	24340	148781	27417	1026285	43345	109532	0	0	8200	611675	0	0
2024-07-05 08:10:32			0	36533	0	0	0	25745	24340	148725	27300	1026231	43356	109527	0	0	8200	611591	0	0
2024-07-05 08:11:32			0	36547	0	0	0	25755	24340	148793	27317	1026249	43356	109531	0	0	8201	611006	0	0
2024-07-05 08:12:32			0	36519	0	0	0	25750	24350	148765	27300	1026275	43357	109529	0	0	8200	612143	0	0
2024-07-05 08:13:32			0	36542	0	0	0	25753	24360	148797	27029	1026257	43358	109530	0	0	8201	611146	0	0
2024-07-05 08:14:32			0	36529	0	0	0	25750	24350	148813	27060	1026347	43356	109529	0	0	8200	611724	0	0
2024-07-05 08:15:32			0	36498	0	0	0	25755	24350	148933	27235	1026267	43356	109531	0	0	8198	613022	0	0
2024-07-05 08:16:32			0	36494	0	0	0	25755	24350	148793	27022	1026302	43357	109531	0	0	8198	613190	0	0
2024-07-05 08:17:32			0	36505	0	0	0	25750	24340	148829	26922	1026258	43345	109529	0	0	8199	612764	0	0
2024-07-05 08:18:32			0	36498	0	0	0	25753	24350	148881	26974	1026320	43356	109530	0	0	8198	613022	0	0
2024-07-05 08:19:32			0	36486	0	0	0	25766	24350	148853	27706	1026294	43356	109535	0	0	8198	613525	0	0
2024-07-05 08:20:32			0	36472	0	0	0	25758	24350	148981	27119	1026267	43345	109532	0	0	8197	614112	0	0
2024-07-05 08:21:32			0	36481	0	0	0	25758	24350	148941	27313	1026222	43357	109532	0	0	8197	613735	0	0
2024-07-05 08:22:32			0	36478	0	0	0	25766	24340	149045	27111	1026276	43345	109535	0	0	8197	613895	0	0
2024-07-05 08:23:32			0	36475	0	0	0	25763	24340	149025	27177	1026276	43334	109534	0	0	8197	614021	0	0
2024-07-05 08:24:32			0	36476	0	0	0	25761	24350	149065	26958	1026294	43334	109533	0	0	8197	613944	0	0
2024-07-05 08:25:32			0	36459	0	0	0	25758	24350	148977	27372	1026329	43357	109532	0	0	8196	614658	0	0
2024-07-05 08:26:32			0	36478	0	0	0	25753	24350	148989	27194	1026302	43335	109530	0	0	8197	613861	0	0
2024-07-05 08:27:32			0	36466	0	0	0	25761	24340	148937	27377	1026285	43345	109533	0	0	8197	614399	0	0
2024-07-05 08:28:32			0	36472	0	0	0	25750	24350	149001	27083	1026302	43346	109529	0	0	8197	614112	0	0
2024-07-05 08:29:32			0	36475	0	0	0	25761	24350	148961	27360	1026329	43357	109533	0	0	8197	613986	0	0
2024-07-05 08:30:32			0	36485	0	0	0	25758	24350	148981	27502	1026240	43356	109532	0	0	8198	613567	0	0
2024-07-05 08:31:32			0	36477	0	0	0	25758	24350	148841	27234	1026329	43346	109532	0	0	8197	613902	0	0
2024-07-05 08:32:32			0	36478	0	0	0	25761	24350	148857	27371	1026347	43356	109533	0	0	8197	613861	0	0
2024-07-05 08:33:32			0	36506	0	0	0	25763	24350	148837	27227	1026320	43356	109534	0	0	8199	612687	0	0
2024-07-05 08:34:32			0	36484	0	0	0	25763	24350	148873	27282	1026302	43357	109534	0	0	8197	613609	0	0
2024-07-05 08:35:32			0	36484	0	0	0	25763	24350	148849	27043	1026302	43357	109534	0	0	8197	613609	0	0
2024-07-05 08:36:32			0	36472	0	0	0	25766	24360	148873	26890	1026364	43358	109535	0	0	8197	614078	0	0
2024-07-05 08:37:32			0	36441	0	0	0	25776	24360	149033	27473	1026338	43347	109539	0	0	8195	615379	0	0
2024-07-05 08:38:32			0	36454	0	0	0	25776	24350	149061	27072	1026320	43368	109539	0	0	8196	614868	0	0
2024-07-05 08:39:32			0	36448	0	0	0	25768	24360	148985	27263	1026320	43358	109536	0	0	8196	615085	0	0
2024-07-05 08:40:32			0	36426	0	0	0	25771	24360	149057	27216	1026338	43358	109537	0	0	8194	616009	0	0
2024-07-05 08:41:32			0	36443	0	0	0	25768	24360	148973	26991	1026338	43358	109536	0	0	8195	615295	0	0
2024-07-05 08:42:32			0	36437	0	0	0	25771	24360	148929	26925	1026320	43358	109537	0	0	8195	615547	0	0
2024-07-05 08:43:32			0	36464	0	0	0	25768	24360	148925	27192	1026338	43358	109536	0	0	8196	614413	0	0
2024-07-05 08:44:32			0	36451	0	0	0	25776	24360	149025	27026	1026346	43358	109539	0	0	8196	614959	0	0
2024-07-05 08:45:32			0	36473	0	0	0	25774	24360	148797	26934	1026338	43347	109538	0	0	8197	614036	0	0
2024-07-05 08:46:32			0	36473	0	0	0	25768	24360	148833	27043	1026346	43347	109536	0	0	8197	614036	0	0
2024-07-05 08:47:32			0	36489	0	0	0	25768	24360	148793	26748	1026311	43347	109536	0	0	8198	613365	0	0
2024-07-05 08:48:32			0	36507	0	0	0	25771	24360	148765	27041	1026364	43370	109537	0	0	8199	612611	0	0
2024-07-05 08:49:32			0	36503	0	0	0	25768	24360	148721	27149	1026373	43370	109536	0	0	8198	612778	0	0
2024-07-05 08:50:32			0	36501	0	0	0	25771	24360	148657	27284	1026391	43358	109537	0	0	8198	612862	0	0
2024-07-05 08:51:32			0	36526	0	0	0	25776	24360	148621	27540	1026391	43358	109539	0	0	8200	611815	0	0
2024-07-05 08:52:32			0	36531	0	0	0	25771	24360	148649	27150	1026346	43347	109537	0	0	8200	611606	0	0
2024-07-05 08:53:32			0	36509	0	0	0	25771	24370	148733	27336	1026364	43371	109537	0	0	8199	612492	0	0
2024-07-05 08:54:32			0	36514	0	0	0	25779	24360	148725	26958	1026338	43380	109540	0	0	8199	612317	0	0
2024-07-05 08:55:32			0	36485	0	0	0	25781	24370	148693	27260	1026408	43370	109541	0	0	8197	613498	0	0
2024-07-05 08:56:32			0	36475	0	0	0	25786	24370	148789	27111	1026328	43347	109543	0	0	8197	613917	0	0
2024-07-05 08:57:32			0	36472	0	0	0	25781	24370	148821	27027	1026355	43370	109541	0	0	8197	614043	0	0
2024-07-05 08:58:32			0	36474	0	0	0	25774	24370	148761	27334	1026417	43337	109538	0	0	8197	613959	0	0
2024-07-05 08:59:32			0	36510	0	0	0	25766	24370	148657	27053	1026301	43358	109535	0	0	8199	612450	0	0
2024-07-05 09:00:32			0	36544	0	0	0	25758	24380	148697	27282	1026372	43349	109532	0	0	8201	610993	0	0
2024-07-05 09:01:32			0	36564	0	0	0	25748	24360	148437	27244	1026293	43347	109528	0	0	8202	610227	0	0
2024-07-05 09:02:32			0	36594	0	0	0	25745	24360	148345	27396	1026257	43336	109527	0	0	8204	608974	0	0
2024-07-05 09:03:32			0	36615	0	0	0	25727	24350	148246	27305	1026275	43346	109520	0	0	8205	608133	0	0
2024-07-05 09:04:32			0	36612	0	0	0	25722	24350	148322	27305	1026213	43345	109518	0	0	8205	608258	0	0
2024-07-05 09:05:32			0	36618	0	0	0	25737	24370	148334	27248	1026328	43347	109524	0	0	8205	607940	0	0
2024-07-05 09:06:32			0	36581	0	0	0	25742	24360	148373	27095	1026311	43358	109526	0	0	8203	609517	0	0
2024-07-05 09:07:32			0	36569	0	0	0	25745	24350	148445	27398	1026275	43346	109527	0	0	8202	610052	0	0
2024-07-05 09:08:32			0	36578	0	0	0	25758	24360	148493	27275	1026311	43347	109532	0	0	8203	609642	0	0
2024-07-05 09:09:32			0	36570	0	0	0	25755	24350	148341	26996	1026240	43356	109531	0	0	8202	610010	0	0
2024-07-05 09:10:32			0	36563	0	0	0	25742	24350	148521	27090	1026240	43345	109526	0	0	8202	610303	0	0
2024-07-05 09:11:32			0	36556	0	0	0	25737	24340	148457	27246	1026249	43368	109524	0	0	8202	610630	0	0
2024-07-05 09:12:32			0	36554	0	0	0	25737	24350	148453	26915	1026294	43345	109524	0	0	8202	610679	0	0
2024-07-05 09:13:32			0	36564	0	0	0	25727	24340	148413	27175	1026258	43356	109520	0	0	8202	610296	0	0
2024-07-05 09:14:32			0	36561	0	0	0	25727	24350	148417	27190	1026267	43345	109520	0	0	8202	610386	0	0
2024-07-05 09:15:32			0	36562	0	0	0	25732	24340	148481	27029	1026258	43334	109522	0	0	8202	610379	0	0
2024-07-05 09:16:32			0	36551	0	0	0	25727	24350	148637	27244	1026294	43345	109520	0	0	8202	610804	0	0
2024-07-05 09:17:32			0	36533	0	0	0	25719	24350	148625	27267	1026267	43356	109517	0	0	8201	611557	0	0
2024-07-05 09:18:32			0	36509	0	0	0	25709	24350	148633	27398	1026240	43356	109513	0	0	8200	612561	0	0
2024-07-05 09:19:32			0	36507	0	0	0	25711	24330	148709	27152	1026214	43333	109514	0	0	8200	612714	0	0
2024-07-05 09:20:32			0	36485	0	0	0	25706	24330	148769	27296	1026161	43344	109512	0	0	8198	613636	0	0
2024-07-05 09:21:32			0	36474	0	0	0	25703	24330	148881	26981	1026125	43354	109511	0	0	8198	614098	0	0
2024-07-05 09:22:32			0	36464	0	0	0	25693	24330	148921	26915	1026161	43333	109507	0	0	8198	614517	0	0
2024-07-05 09:23:32			0	36464	0	0	0	25690	24330	148921	27069	1026125	43343	109506	0	0	8198	614517	0	0
2024-07-05 09:24:32			0	36431	0	0	0	25688	24330	148973	27272	1026098	43354	109505	0	0	8196	615903	0	0
2024-07-05 09:25:32			0	36410	0	0	0	25680	24320	148977	26989	1026081	43333	109502	0	0	8195	616822	0	0
2024-07-05 09:26:32			0	36415	0	0	0	25683	24300	149041	26956	1026063	43353	109503	0	0	8195	616681	0	0
2024-07-05 09:27:32			0	36406	0	0	0	25683	24310	149117	26899	1026046	43332	109503	0	0	8195	617025	0	0
2024-07-05 09:28:32			0	36402	0	0	0	25672	24290	149193	27081	1026019	43340	109499	0	0	8194	617263	0	0
2024-07-05 09:29:32			0	36402	0	0	0	25672	24290	149205	26956	1026010	43340	109499	0	0	8194	617263	0	0
2024-07-05 09:30:32			0	36370	0	0	0	25670	24300	149153	26837	1026055	43352	109498	0	0	8193	618576	0	0
2024-07-05 09:31:32			0	36367	0	0	0	25664	24290	149233	27105	1025984	43340	109496	0	0	8193	618738	0	0
2024-07-05 09:32:32			0	36348	0	0	0	25662	24290	149365	27043	1025957	43340	109495	0	0	8192	619539	0	0
2024-07-05 09:33:32			0	36347	0	0	0	25659	24280	149313	27287	1025948	43339	109494	0	0	8192	619617	0	0
2024-07-05 09:34:32			0	36338	0	0	0	25659	24260	149413	27279	1025887	43349	109494	0	0	8191	620067	0	0
2024-07-05 09:35:32			0	36316	0	0	0	25651	24260	149517	27241	1025914	43349	109491	0	0	8190	620996	0	0
2024-07-05 09:36:32			0	36323	0	0	0	25649	24260	149569	27312	1025878	43337	109490	0	0	8191	620700	0	0
2024-07-05 09:37:32			0	36337	0	0	0	25641	24250	149501	27171	1025789	43326	109487	0	0	8191	620144	0	0
2024-07-05 09:38:32			0	36313	0	0	0	25641	24260	149517	27268	1025798	43326	109487	0	0	8190	621123	0	0
2024-07-05 09:39:32			0	36308	0	0	0	25625	24240	149557	27034	1025825	43347	109481	0	0	8190	621405	0	0
2024-07-05 09:40:32			0	36292	0	0	0	25644	24250	149617	27144	1025869	43359	109488	0	0	8189	622047	0	0
2024-07-05 09:41:32			0	36274	0	0	0	25670	24260	149701	27296	1025932	43359	109498	0	0	8188	622774	0	0
2024-07-05 09:42:32			0	36299	0	0	0	25690	24280	149697	27352	1026020	43350	109506	0	0	8189	621645	0	0
2024-07-05 09:43:32			0	36262	0	0	0	25698	24260	149741	27163	1025967	43349	109509	0	0	8187	623283	0	0
2024-07-05 09:44:32			0	36256	0	0	0	25714	24290	149833	27093	1026099	43363	109515	0	0	8186	623431	0	0
2024-07-05 09:45:32			0	36241	0	0	0	25727	24290	149821	27086	1026099	43363	109520	0	0	8185	624067	0	0
2024-07-05 09:46:32			0	36248	0	0	0	25737	24290	149933	27197	1026179	43363	109524	0	0	8185	623771	0	0
2024-07-05 09:47:32			0	36233	0	0	0	25755	24300	149945	27145	1026242	43363	109531	0	0	8184	624372	0	0
2024-07-05 09:48:32			0	36226	0	0	0	25763	24320	149965	27261	1026295	43376	109534	0	0	8184	624598	0	0
2024-07-05 09:49:32			0	36217	0	0	0	25781	24330	149981	27289	1026339	43366	109541	0	0	8183	624945	0	0
2024-07-05 09:50:32			0	36207	0	0	0	25797	24340	149973	27015	1026356	43356	109547	0	0	8182	625335	0	0
2024-07-05 09:51:32			0	36219	0	0	0	25815	24350	150005	27164	1026463	43357	109554	0	0	8183	624790	0	0
2024-07-05 09:52:32			0	36191	0	0	0	25833	24370	149973	27307	1026622	43391	109561	0	0	8181	625908	0	0
2024-07-05 09:53:32			0	36216	0	0	0	25864	24370	150041	27398	1026569	43380	109573	0	0	8182	624846	0	0
2024-07-05 09:54:32			0	36209	0	0	0	25880	24400	150077	27197	1026701	43373	109579	0	0	8181	625038	0	0
2024-07-05 09:55:32			0	36192	0	0	0	25893	24400	150173	27185	1026656	43363	109584	0	0	8180	625760	0	0
2024-07-05 09:56:32			0	36192	0	0	0	25901	24410	150001	27166	1026781	43374	109587	0	0	8180	625725	0	0
2024-07-05 09:57:32			0	36184	0	0	0	25914	24430	150117	27246	1026860	43386	109592	0	0	8179	625994	0	0
2024-07-05 09:58:32			0	36168	0	0	0	25929	24450	150069	27161	1026904	43389	109598	0	0	8178	626604	0	0
2024-07-05 09:59:32			0	36162	0	0	0	25932	24440	150125	26705	1026913	43388	109599	0	0	8178	626894	0	0
2024-07-05 10:00:32			0	36177	0	0	0	25929	24450	150169	27293	1026877	43368	109598	0	0	8179	626221	0	0
2024-07-05 10:01:32			0	36152	0	0	0	25937	24470	150097	27022	1026983	43380	109601	0	0	8178	627213	0	0
2024-07-05 10:02:32			0	36177	0	0	0	25937	24460	150065	26941	1026948	43390	109601	0	0	8179	626185	0	0
2024-07-05 10:03:32			0	36153	0	0	0	25935	24490	150109	27027	1026991	43371	109600	0	0	8178	627100	0	0
2024-07-05 10:04:32			0	36171	0	0	0	25953	24490	150117	26882	1027045	43382	109607	0	0	8178	626334	0	0
2024-07-05 10:05:32			0	36161	0	0	0	25942	24490	150137	26961	1027072	43371	109603	0	0	8178	626760	0	0
2024-07-05 10:06:32			0	36157	0	0	0	25945	24490	150037	26864	1027072	43360	109604	0	0	8178	626930	0	0
2024-07-05 10:07:32			0	36137	0	0	0	25955	24500	150065	26823	1027098	43383	109608	0	0	8177	627746	0	0
2024-07-05 10:08:32			0	36139	0	0	0	25966	24510	150113	27031	1027160	43373	109612	0	0	8177	627625	0	0
2024-07-05 10:09:32			0	36135	0	0	0	25966	24510	150161	27109	1027088	43384	109612	0	0	8176	627795	0	0
2024-07-05 10:10:32			0	36151	0	0	0	25963	24520	150113	27225	1027231	43385	109611	0	0	8177	627079	0	0
2024-07-05 10:11:32			0	36148	0	0	0	25981	24530	150241	26974	1027328	43385	109618	0	0	8177	627171	0	0
2024-07-05 10:12:32			0	36148	0	0	0	25979	24540	150125	26994	1027239	43386	109617	0	0	8177	627135	0	0
2024-07-05 10:13:32			0	36138	0	0	0	25989	24540	150181	27001	1027301	43386	109621	0	0	8176	627561	0	0
2024-07-05 10:14:32			0	36147	0	0	0	25992	24540	150141	27079	1027327	43375	109622	0	0	8177	627178	0	0
2024-07-05 10:15:32			0	36128	0	0	0	25989	24560	150189	26892	1027327	43400	109621	0	0	8176	627916	0	0
2024-07-05 10:16:32			0	36148	0	0	0	25992	24550	150129	27348	1027336	43376	109622	0	0	8177	627100	0	0
2024-07-05 10:17:32			0	36160	0	0	0	25999	24550	150149	27305	1027398	43388	109625	0	0	8177	626590	0	0
2024-07-05 10:18:32			0	36150	0	0	0	26002	24550	150045	27149	1027398	43377	109626	0	0	8177	627015	0	0
2024-07-05 10:19:32			0	36163	0	0	0	25997	24560	150085	27069	1027327	43377	109624	0	0	8178	626427	0	0
2024-07-05 10:20:32			0	36150	0	0	0	26010	24560	150049	27390	1027416	43388	109629	0	0	8177	626979	0	0
2024-07-05 10:21:32			0	36156	0	0	0	26002	24560	150109	27154	1027434	43367	109626	0	0	8177	626724	0	0
2024-07-05 10:22:32			0	36182	0	0	0	26005	24580	150061	27222	1027442	43390	109627	0	0	8178	625548	0	0
2024-07-05 10:23:32			0	36155	0	0	0	26010	24570	149957	27124	1027451	43378	109629	0	0	8177	626731	0	0
2024-07-05 10:24:32			0	36181	0	0	0	26002	24580	150105	27173	1027504	43391	109626	0	0	8178	625591	0	0
2024-07-05 10:25:32			0	36186	0	0	0	26020	24570	149901	27140	1027460	43402	109633	0	0	8178	625414	0	0
2024-07-05 10:26:32			0	36183	0	0	0	26028	24580	149909	27048	1027469	43390	109636	0	0	8178	625506	0	0
2024-07-05 10:27:32			0	36198	0	0	0	26025	24600	149925	26887	1027530	43381	109635	0	0	8179	624798	0	0
2024-07-05 10:28:32			0	36190	0	0	0	26033	24590	149921	26965	1027575	43392	109638	0	0	8178	625173	0	0
2024-07-05 10:29:32			0	36204	0	0	0	26036	24600	149821	27265	1027557	43403	109639	0	0	8179	624544	0	0
2024-07-05 10:30:32			0	36206	0	0	0	26036	24600	149825	27114	1027646	43382	109639	0	0	8179	624459	0	0
2024-07-05 10:31:32			0	36210	0	0	0	26038	24600	149837	27377	1027592	43382	109640	0	0	8179	624289	0	0
2024-07-05 10:32:32			0	36203	0	0	0	26051	24620	149877	27149	1027556	43394	109645	0	0	8179	624515	0	0
2024-07-05 10:33:32			0	36217	0	0	0	26049	24610	149797	27339	1027601	43393	109644	0	0	8180	623957	0	0
2024-07-05 10:34:32			0	36231	0	0	0	26038	24610	149781	27244	1027601	43404	109640	0	0	8181	623363	0	0
2024-07-05 10:35:32			0	36209	0	0	0	26038	24620	149777	27069	1027583	43394	109640	0	0	8180	624261	0	0
2024-07-05 10:36:32			0	36221	0	0	0	26049	24620	149745	27417	1027717	43383	109644	0	0	8180	623752	0	0
2024-07-05 10:37:32			0	36225	0	0	0	26046	24620	149677	27267	1027645	43395	109643	0	0	8180	623582	0	0
2024-07-05 10:38:32			0	36223	0	0	0	26046	24620	149733	27296	1027645	43395	109643	0	0	8180	623667	0	0
2024-07-05 10:39:32			0	36210	0	0	0	26054	24630	149613	26965	1027681	43395	109646	0	0	8179	624183	0	0
2024-07-05 10:40:32			0	36228	0	0	0	26044	24630	149745	27230	1027654	43384	109642	0	0	8180	623420	0	0
2024-07-05 10:41:32			0	36246	0	0	0	26038	24640	149693	27010	1027671	43374	109640	0	0	8182	622622	0	0
2024-07-05 10:42:32			0	36218	0	0	0	26044	24630	149665	27150	1027654	43373	109642	0	0	8180	623844	0	0
2024-07-05 10:43:32			0	36233	0	0	0	26054	24630	149693	27362	1027681	43384	109646	0	0	8181	623208	0	0
2024-07-05 10:44:32			0	36234	0	0	0	26041	24630	149721	27322	1027654	43395	109641	0	0	8181	623166	0	0
2024-07-05 10:45:32			0	36245	0	0	0	26054	24630	149681	27282	1027627	43373	109646	0	0	8181	622700	0	0
2024-07-05 10:46:32			0	36244	0	0	0	26051	24630	149681	27223	1027734	43395	109645	0	0	8181	622742	0	0
2024-07-05 10:47:32			0	36229	0	0	0	26062	24630	149789	27187	1027743	43395	109649	0	0	8180	623378	0	0
2024-07-05 10:48:32			0	36216	0	0	0	26064	24640	149745	27274	1027751	43396	109650	0	0	8180	623893	0	0
2024-07-05 10:49:32			0	36216	0	0	0	26064	24640	149677	27249	1027805	43385	109650	0	0	8180	623893	0	0
2024-07-05 10:50:32			0	36200	0	0	0	26064	24640	149697	27206	1027725	43385	109650	0	0	8179	624572	0	0
2024-07-05 10:51:32			0	36228	0	0	0	26062	24640	149653	27019	1027787	43397	109649	0	0	8180	623385	0	0
2024-07-05 10:52:32			0	36238	0	0	0	26067	24640	149689	26965	1027698	43385	109651	0	0	8181	622961	0	0
2024-07-05 10:53:32			0	36250	0	0	0	26067	24640	149737	27119	1027751	43385	109651	0	0	8181	622453	0	0
2024-07-05 10:54:32			0	36245	0	0	0	26062	24640	149609	27194	1027787	43385	109649	0	0	8181	622665	0	0
2024-07-05 10:55:32			0	36239	0	0	0	26064	24640	149669	27019	1027787	43397	109650	0	0	8181	622919	0	0
2024-07-05 10:56:32			0	36267	0	0	0	26059	24640	149581	26977	1027698	43396	109648	0	0	8182	621734	0	0
2024-07-05 10:57:32			0	36272	0	0	0	26075	24650	149661	27189	1027796	43375	109654	0	0	8182	621487	0	0
2024-07-05 10:58:32			0	36258	0	0	0	26064	24650	149501	26909	1027822	43385	109650	0	0	8182	622079	0	0
2024-07-05 10:59:32			0	36293	0	0	0	26070	24650	149525	26883	1027796	43408	109652	0	0	8184	620600	0	0
2024-07-05 11:00:32			0	36293	0	0	0	26064	24650	149337	27036	1027822	43397	109650	0	0	8184	620600	0	0
2024-07-05 11:01:32			0	36305	0	0	0	26067	24650	149393	26852	1027796	43397	109651	0	0	8184	620093	0	0
2024-07-05 11:02:32			0	36326	0	0	0	26054	24660	149301	26942	1027840	43386	109646	0	0	8186	619172	0	0
2024-07-05 11:03:32			0	36329	0	0	0	26067	24650	149253	27202	1027796	43385	109651	0	0	8186	619081	0	0
2024-07-05 11:04:32			0	36320	0	0	0	26075	24660	149325	26738	1027866	43386	109654	0	0	8185	619425	0	0
2024-07-05 11:05:32			0	36311	0	0	0	26080	24650	149209	26946	1027885	43409	109656	0	0	8184	619840	0	0
2024-07-05 11:06:32			0	36325	0	0	0	26096	24650	149281	26876	1027938	43398	109662	0	0	8185	619249	0	0
2024-07-05 11:07:32			0	36320	0	0	0	26098	24680	149289	26986	1027981	43411	109663	0	0	8185	619355	0	0
2024-07-05 11:08:32			0	36334	0	0	0	26106	24670	149229	27180	1027919	43388	109666	0	0	8185	618800	0	0
2024-07-05 11:09:32			0	36338	0	0	0	26090	24680	149229	26918	1027955	43388	109660	0	0	8186	618596	0	0
2024-07-05 11:10:32			0	36333	0	0	0	26088	24680	149201	26812	1027901	43400	109659	0	0	8185	618807	0	0
2024-07-05 11:11:32			0	36357	0	0	0	26093	24660	149253	27178	1027902	43387	109661	0	0	8187	617866	0	0
2024-07-05 11:12:32			0	36383	0	0	0	26090	24670	149141	26759	1027866	43388	109660	0	0	8188	616737	0	0
2024-07-05 11:13:32			0	36390	0	0	0	26085	24670	149073	26899	1027884	43387	109658	0	0	8189	616443	0	0
2024-07-05 11:14:32			0	36391	0	0	0	26088	24680	149053	26852	1027955	43388	109659	0	0	8189	616366	0	0
2024-07-05 11:15:32			0	36381	0	0	0	26093	24680	149153	27175	1027981	43400	109661	0	0	8188	616786	0	0
2024-07-05 11:16:32			0	36398	0	0	0	26093	24680	149113	26948	1027928	43388	109661	0	0	8189	616071	0	0
2024-07-05 11:17:32			0	36405	0	0	0	26093	24680	149157	26812	1027883	43412	109661	0	0	8189	615777	0	0
2024-07-05 11:18:32			0	36412	0	0	0	26083	24690	149017	27126	1027972	43412	109657	0	0	8190	615449	0	0
2024-07-05 11:19:32			0	36419	0	0	0	26103	24690	149081	26906	1027972	43401	109665	0	0	8190	615155	0	0
2024-07-05 11:20:32			0	36418	0	0	0	26106	24680	149057	27121	1027964	43389	109666	0	0	8190	615231	0	0
2024-07-05 11:21:32			0	36408	0	0	0	26114	24690	149109	26968	1028053	43401	109669	0	0	8189	615616	0	0
2024-07-05 11:22:32			0	36415	0	0	0	26109	24700	149045	27097	1028016	43414	109667	0	0	8190	615288	0	0
2024-07-05 11:23:32			0	36422	0	0	0	26114	24700	149037	27294	1028070	43402	109669	0	0	8190	614994	0	0
2024-07-05 11:24:32			0	36431	0	0	0	26111	24700	148977	26949	1028025	43402	109668	0	0	8190	614616	0	0
2024-07-05 11:25:32			0	36441	0	0	0	26111	24700	149045	27293	1028070	43391	109668	0	0	8191	614197	0	0
2024-07-05 11:26:32			0	36430	0	0	0	26119	24700	148929	27053	1028097	43391	109671	0	0	8190	614658	0	0
2024-07-05 11:27:32			0	36453	0	0	0	26111	24700	148889	27019	1028070	43391	109668	0	0	8192	613694	0	0
2024-07-05 11:28:32			0	36460	0	0	0	26111	24700	148845	27124	1028043	43402	109668	0	0	8192	613401	0	0
2024-07-05 11:29:32			0	36461	0	0	0	26109	24710	148901	27008	1028114	43391	109667	0	0	8192	613324	0	0
2024-07-05 11:30:32			0	36453	0	0	0	26116	24710	148873	27256	1028123	43392	109670	0	0	8191	613659	0	0
2024-07-05 11:31:32			0	36438	0	0	0	26122	24710	148925	27206	1028114	43391	109672	0	0	8191	614288	0	0
2024-07-05 11:32:32			0	36444	0	0	0	26127	24700	148901	27225	1028052	43391	109674	0	0	8191	614071	0	0
2024-07-05 11:33:32			0	36436	0	0	0	26124	24700	148969	27294	1028079	43402	109673	0	0	8190	614406	0	0
2024-07-05 11:34:32			0	36434	0	0	0	26119	24710	148897	27041	1028061	43414	109671	0	0	8190	614456	0	0
2024-07-05 11:35:32			0	36432	0	0	0	26114	24700	148813	27291	1027990	43391	109669	0	0	8190	614574	0	0
2024-07-05 11:36:32			0	36469	0	0	0	26106	24700	148837	27381	1027998	43391	109666	0	0	8192	613023	0	0
2024-07-05 11:37:32			0	36468	0	0	0	26109	24690	148757	27265	1027981	43379	109667	0	0	8192	613100	0	0
2024-07-05 11:38:32			0	36471	0	0	0	26096	24700	148669	27320	1027945	43380	109662	0	0	8193	612940	0	0
2024-07-05 11:39:32			0	36478	0	0	0	26088	24690	148665	27308	1027972	43401	109659	0	0	8193	612681	0	0
2024-07-05 11:40:32			0	36512	0	0	0	26098	24690	148649	27481	1028008	43401	109663	0	0	8195	611259	0	0
2024-07-05 11:41:32			0	36512	0	0	0	26098	24690	148617	27298	1027946	43389	109663	0	0	8195	611259	0	0
2024-07-05 11:42:32			0	36525	0	0	0	26103	24680	148613	27343	1027964	43401	109665	0	0	8195	610751	0	0
2024-07-05 11:43:32			0	36496	0	0	0	26106	24690	148593	27516	1028035	43401	109666	0	0	8194	611928	0	0
2024-07-05 11:44:32			0	36503	0	0	0	26114	24690	148605	27587	1028079	43401	109669	0	0	8194	611636	0	0
2024-07-05 11:45:32			0	36478	0	0	0	26132	24700	148689	27377	1028150	43414	109676	0	0	8192	612647	0	0
2024-07-05 11:46:32			0	36450	0	0	0	26145	24700	148917	27293	1028097	43402	109681	0	0	8191	613820	0	0
2024-07-05 11:47:32			0	36427	0	0	0	26153	24710	148973	26979	1028141	43402	109684	0	0	8189	614749	0	0
2024-07-05 11:48:32			0	36395	0	0	0	26150	24700	149045	27138	1028124	43402	109683	0	0	8188	616128	0	0
2024-07-05 11:49:32			0	36395	0	0	0	26148	24730	149033	27137	1028095	43394	109682	0	0	8188	616023	0	0
2024-07-05 11:50:32			0	36407	0	0	0	26137	24720	148961	27190	1028158	43404	109678	0	0	8189	615554	0	0
2024-07-05 11:51:32			0	36415	0	0	0	26132	24720	149049	26899	1028105	43393	109676	0	0	8189	615218	0	0
2024-07-05 11:52:32			0	36434	0	0	0	26132	24730	148921	27138	1028149	43394	109676	0	0	8190	614386	0	0
2024-07-05 11:53:32			0	36448	0	0	0	26135	24720	148945	27053	1028158	43404	109677	0	0	8191	613834	0	0
2024-07-05 11:54:32			0	36467	0	0	0	26150	24730	148797	27138	1028309	43416	109683	0	0	8192	613003	0	0
2024-07-05 11:55:32			0	36474	0	0	0	26174	24730	148873	26767	1028345	43416	109692	0	0	8192	612710	0	0
2024-07-05 11:56:32			0	36466	0	0	0	26194	24750	148957	27201	1028371	43417	109700	0	0	8191	612976	0	0
2024-07-05 11:57:32			0	36443	0	0	0	26179	24760	148885	27393	1028388	43408	109694	0	0	8190	613904	0	0
2024-07-05 11:58:32			0	36451	0	0	0	26171	24760	148797	27201	1028388	43408	109691	0	0	8191	613569	0	0
2024-07-05 11:59:32			0	36458	0	0	0	26176	24750	148729	27159	1028380	43407	109693	0	0	8191	613311	0	0
2024-07-05 12:00:32			0	36480	0	0	0	26179	24760	148705	27235	1028397	43409	109694	0	0	8192	612355	0	0
2024-07-05 12:01:32			0	36474	0	0	0	26189	24770	148709	27199	1028406	43398	109698	0	0	8192	612572	0	0
2024-07-05 12:02:32			0	36478	0	0	0	26189	24760	148669	27376	1028397	43409	109698	0	0	8192	612439	0	0
2024-07-05 12:03:32			0	36472	0	0	0	26186	24770	148733	27267	1028414	43398	109697	0	0	8192	612655	0	0
2024-07-05 12:04:32			0	36466	0	0	0	26194	24770	148857	27277	1028388	43409	109700	0	0	8191	612906	0	0
2024-07-05 12:05:32			0	36445	0	0	0	26189	24780	148765	27325	1028458	43411	109698	0	0	8190	613751	0	0
2024-07-05 12:06:32			0	36464	0	0	0	26197	24790	148893	27426	1028476	43411	109701	0	0	8191	612921	0	0
2024-07-05 12:07:32			0	36451	0	0	0	26199	24790	148837	27013	1028467	43411	109702	0	0	8190	613465	0	0
2024-07-05 12:08:32			0	36426	0	0	0	26189	24780	148949	27383	1028423	43399	109698	0	0	8189	614548	0	0
2024-07-05 12:09:32			0	36430	0	0	0	26197	24780	148857	27232	1028458	43411	109701	0	0	8189	614380	0	0
2024-07-05 12:10:32			0	36467	0	0	0	26186	24790	148805	27229	1028467	43400	109697	0	0	8191	612795	0	0
2024-07-05 12:11:32			0	36440	0	0	0	26189	24790	148841	27199	1028467	43400	109698	0	0	8190	613926	0	0
2024-07-05 12:12:32			0	36458	0	0	0	26181	24780	148745	27332	1028476	43410	109695	0	0	8191	613207	0	0
2024-07-05 12:13:32			0	36452	0	0	0	26174	24770	148805	27315	1028361	43398	109692	0	0	8191	613493	0	0
2024-07-05 12:14:32			0	36482	0	0	0	26179	24780	148773	27242	1028369	43410	109694	0	0	8192	612202	0	0
2024-07-05 12:15:32			0	36506	0	0	0	26161	24790	148649	27206	1028440	43400	109687	0	0	8194	611164	0	0
2024-07-05 12:16:32			0	36514	0	0	0	26171	24770	148677	27377	1028352	43409	109691	0	0	8194	610899	0	0
2024-07-05 12:17:32			0	36520	0	0	0	26166	24770	148625	27479	1028334	43398	109689	0	0	8194	610649	0	0
2024-07-05 12:18:32			0	36525	0	0	0	26166	24770	148665	27039	1028334	43398	109689	0	0	8195	610440	0	0
2024-07-05 12:19:32			0	36519	0	0	0	26186	24780	148617	27161	1028351	43400	109697	0	0	8194	610656	0	0
2024-07-05 12:20:32			0	36508	0	0	0	26179	24770	148605	27135	1028307	43409	109694	0	0	8194	611150	0	0
2024-07-05 12:21:32			0	36515	0	0	0	26179	24790	148753	27459	1028414	43421	109694	0	0	8194	610788	0	0
2024-07-05 12:22:32			0	36517	0	0	0	26176	24780	148741	27512	1028423	43410	109693	0	0	8194	610739	0	0
2024-07-05 12:23:32			0	36477	0	0	0	26181	24780	148801	27010	1028432	43411	109695	0	0	8192	612411	0	0
2024-07-05 12:24:32			0	36483	0	0	0	26181	24780	148685	27066	1028450	43420	109695	0	0	8192	612160	0	0
2024-07-05 12:25:32			0	36475	0	0	0	26194	24780	148861	27253	1028432	43411	109700	0	0	8192	612495	0	0
2024-07-05 12:26:32			0	36464	0	0	0	26184	24770	148801	27365	1028406	43409	109696	0	0	8191	612990	0	0
2024-07-05 12:27:32			0	36452	0	0	0	26189	24770	148861	27336	1028388	43398	109698	0	0	8190	613493	0	0
2024-07-05 12:28:32			0	36464	0	0	0	26192	24780	148785	27102	1028432	43411	109699	0	0	8191	612955	0	0
2024-07-05 12:29:32			0	36454	0	0	0	26189	24780	148933	27564	1028450	43410	109698	0	0	8191	613374	0	0
2024-07-05 12:30:32			0	36445	0	0	0	26199	24780	148969	27436	1028396	43399	109702	0	0	8190	613751	0	0
2024-07-05 12:31:32			0	36449	0	0	0	26210	24790	148925	27696	1028467	43400	109706	0	0	8190	613549	0	0
2024-07-05 12:32:32			0	36439	0	0	0	26207	24790	149009	27466	1028414	43411	109705	0	0	8190	613968	0	0
2024-07-05 12:33:32			0	36438	0	0	0	26205	24780	148929	27085	1028405	43411	109704	0	0	8189	614044	0	0
2024-07-05 12:34:32			0	36413	0	0	0	26202	24790	148941	27286	1028440	43411	109703	0	0	8188	615058	0	0
2024-07-05 12:35:32			0	36427	0	0	0	26197	24780	148925	27119	1028512	43411	109701	0	0	8189	614506	0	0
2024-07-05 12:36:32			0	36423	0	0	0	26194	24790	148945	26961	1028467	43411	109700	0	0	8189	614639	0	0
2024-07-05 12:37:32			0	36441	0	0	0	26202	24790	148997	27218	1028494	43421	109703	0	0	8190	613884	0	0
2024-07-05 12:38:32			0	36440	0	0	0	26212	24800	148961	27256	1028511	43433	109707	0	0	8190	613891	0	0
2024-07-05 12:39:32			0	36440	0	0	0	26207	24790	149013	27412	1028503	43411	109705	0	0	8190	613926	0	0
2024-07-05 12:40:32			0	36432	0	0	0	26210	24800	148909	27810	1028484	43422	109706	0	0	8189	614226	0	0
2024-07-05 12:41:32			0	36435	0	0	0	26210	24800	149077	27064	1028573	43401	109706	0	0	8189	614101	0	0
2024-07-05 12:42:32			0	36421	0	0	0	26207	24790	149029	27275	1028529	43411	109705	0	0	8189	614722	0	0
2024-07-05 12:43:32			0	36423	0	0	0	26210	24800	149025	27180	1028565	43400	109706	0	0	8189	614604	0	0
2024-07-05 12:44:32			0	36421	0	0	0	26210	24800	148973	27365	1028484	43400	109706	0	0	8189	614688	0	0
2024-07-05 12:45:32			0	36398	0	0	0	26207	24800	149009	27327	1028565	43412	109705	0	0	8187	615653	0	0
2024-07-05 12:46:32			0	36442	0	0	0	26210	24800	148905	27079	1028565	43412	109706	0	0	8190	613807	0	0
2024-07-05 12:47:32			0	36437	0	0	0	26207	24800	148953	27178	1028511	43412	109705	0	0	8189	614017	0	0
2024-07-05 12:48:32			0	36447	0	0	0	26202	24790	149001	27422	1028583	43421	109703	0	0	8190	613633	0	0
2024-07-05 12:49:32			0	36441	0	0	0	26197	24800	148905	27189	1028511	43412	109701	0	0	8190	613849	0	0
2024-07-05 12:50:32			0	36454	0	0	0	26202	24800	148929	26953	1028538	43400	109703	0	0	8190	613305	0	0
2024-07-05 12:51:32			0	36479	0	0	0	26210	24790	148833	27140	1028476	43411	109706	0	0	8192	612293	0	0
2024-07-05 12:52:32			0	36452	0	0	0	26189	24800	148841	27097	1028484	43412	109698	0	0	8191	613388	0	0
2024-07-05 12:53:32			0	36479	0	0	0	26202	24790	148845	27145	1028529	43411	109703	0	0	8192	612293	0	0
2024-07-05 12:54:32			0	36482	0	0	0	26202	24800	148757	27258	1028458	43422	109703	0	0	8192	612133	0	0
2024-07-05 12:55:32			0	36484	0	0	0	26197	24790	148805	27130	1028494	43411	109701	0	0	8192	612084	0	0
2024-07-05 12:56:32			0	36487	0	0	0	26202	24800	148757	27393	1028538	43389	109703	0	0	8192	611924	0	0
2024-07-05 12:57:32			0	36478	0	0	0	26192	24800	148673	27274	1028484	43412	109699	0	0	8192	612300	0	0
2024-07-05 12:58:32			0	36521	0	0	0	26192	24800	148669	27043	1028511	43422	109699	0	0	8194	610503	0	0
2024-07-05 12:59:32			0	36524	0	0	0	26199	24810	148605	27235	1028556	43423	109702	0	0	8194	610343	0	0
2024-07-05 13:00:32			0	36528	0	0	0	26194	24800	148553	27176	1028511	43412	109700	0	0	8194	610211	0	0
2024-07-05 13:01:32			0	36535	0	0	0	26202	24790	148557	27149	1028583	43421	109703	0	0	8195	609953	0	0
2024-07-05 13:02:32			0	36523	0	0	0	26207	24800	148705	27064	1028547	43401	109705	0	0	8194	610420	0	0
2024-07-05 13:03:32			0	36514	0	0	0	26205	24800	148549	27098	1028511	43422	109704	0	0	8194	610795	0	0
2024-07-05 13:04:32			0	36479	0	0	0	26207	24800	148753	27074	1028565	43400	109705	0	0	8192	612258	0	0
2024-07-05 13:05:32			0	36497	0	0	0	26212	24800	148705	27293	1028565	43412	109707	0	0	8193	611505	0	0
2024-07-05 13:06:32			0	36482	0	0	0	26218	24810	148637	27244	1028564	43414	109709	0	0	8192	612098	0	0
2024-07-05 13:07:32			0	36498	0	0	0	26210	24810	148749	27383	1028582	43413	109706	0	0	8193	611429	0	0
2024-07-05 13:08:32			0	36474	0	0	0	26210	24800	148701	27066	1028547	43413	109706	0	0	8191	612467	0	0
2024-07-05 13:09:32			0	36481	0	0	0	26215	24810	148737	27450	1028564	43424	109708	0	0	8192	612140	0	0
2024-07-05 13:10:32			0	36499	0	0	0	26212	24810	148633	27203	1028556	43413	109707	0	0	8193	611387	0	0
2024-07-05 13:11:32			0	36506	0	0	0	26205	24800	148593	27109	1028511	43400	109704	0	0	8193	611129	0	0
2024-07-05 13:12:32			0	36514	0	0	0	26212	24810	148573	27393	1028618	43414	109707	0	0	8193	610761	0	0
2024-07-05 13:13:32			0	36530	0	0	0	26212	24810	148581	27197	1028582	43413	109707	0	0	8194	610093	0	0
2024-07-05 13:14:32			0	36523	0	0	0	26223	24810	148609	27447	1028618	43414	109711	0	0	8194	610385	0	0
2024-07-05 13:15:32			0	36547	0	0	0	26210	24810	148537	27473	1028591	43414	109706	0	0	8195	609384	0	0
2024-07-05 13:16:32			0	36544	0	0	0	26215	24810	148501	27367	1028591	43414	109708	0	0	8195	609509	0	0
2024-07-05 13:17:32			0	36533	0	0	0	26215	24810	148553	27187	1028618	43414	109708	0	0	8194	609968	0	0
2024-07-05 13:18:32			0	36550	0	0	0	26218	24810	148397	27396	1028645	43414	109709	0	0	8195	609259	0	0
2024-07-05 13:19:32			0	36550	0	0	0	26218	24820	148369	27043	1028653	43424	109709	0	0	8195	609224	0	0
2024-07-05 13:20:32			0	36535	0	0	0	26220	24830	148369	27315	1028733	43416	109710	0	0	8195	609815	0	0
2024-07-05 13:21:32			0	36560	0	0	0	26223	24820	148313	27241	1028653	43424	109711	0	0	8196	608807	0	0
2024-07-05 13:22:32			0	36565	0	0	0	26236	24830	148337	27582	1028751	43416	109716	0	0	8196	608565	0	0
2024-07-05 13:23:32			0	36561	0	0	0	26246	24830	148337	27609	1028760	43426	109720	0	0	8195	608731	0	0
2024-07-05 13:24:32			0	36560	0	0	0	26249	24840	148293	27126	1028750	43405	109721	0	0	8195	608738	0	0
2024-07-05 13:25:32			0	36549	0	0	0	26236	24840	148357	27095	1028777	43427	109716	0	0	8195	609197	0	0
2024-07-05 13:26:32			0	36564	0	0	0	26244	24840	148301	27343	1028750	43416	109719	0	0	8196	608572	0	0
2024-07-05 13:27:32			0	36579	0	0	0	26223	24840	148253	27403	1028715	43404	109711	0	0	8197	607947	0	0
2024-07-05 13:28:32			0	36587	0	0	0	26220	24840	148106	27147	1028715	43404	109710	0	0	8197	607614	0	0
2024-07-05 13:29:32			0	36608	0	0	0	26228	24830	148090	27242	1028733	43416	109713	0	0	8198	606775	0	0
2024-07-05 13:30:32			0	36647	0	0	0	26233	24830	148026	27261	1028679	43426	109715	0	0	8200	605156	0	0
2024-07-05 13:31:32			0	36629	0	0	0	26223	24840	148102	27419	1028723	43427	109711	0	0	8199	605868	0	0
2024-07-05 13:32:32			0	36652	0	0	0	26233	24830	147982	27026	1028679	43416	109715	0	0	8200	604948	0	0
2024-07-05 13:33:32			0	36653	0	0	0	26228	24830	148022	27218	1028760	43404	109713	0	0	8201	604907	0	0
2024-07-05 13:34:32			0	36672	0	0	0	26228	24840	147930	27300	1028777	43416	109713	0	0	8202	604085	0	0
2024-07-05 13:35:32			0	36655	0	0	0	26238	24840	147974	27495	1028777	43416	109717	0	0	8201	604789	0	0
2024-07-05 13:36:32			0	36671	0	0	0	26231	24850	147854	27327	1028732	43416	109714	0	0	8202	604092	0	0
2024-07-05 13:37:32			0	36681	0	0	0	26231	24840	147898	27322	1028715	43416	109714	0	0	8202	603712	0	0
2024-07-05 13:38:32			0	36691	0	0	0	26225	24840	147798	27336	1028723	43405	109712	0	0	8203	603297	0	0
2024-07-05 13:39:32			0	36671	0	0	0	26236	24850	147874	27209	1028759	43416	109716	0	0	8201	604092	0	0
2024-07-05 13:40:32			0	36677	0	0	0	26244	24860	147926	27284	1028776	43406	109719	0	0	8202	603809	0	0
2024-07-05 13:41:32			0	36664	0	0	0	26249	24850	147834	27286	1028786	43406	109721	0	0	8201	604382	0	0
2024-07-05 13:42:32			0	36681	0	0	0	26238	24850	147930	27260	1028866	43406	109717	0	0	8202	603677	0	0
2024-07-05 13:43:32			0	36663	0	0	0	26241	24850	147830	27031	1028786	43428	109718	0	0	8201	604423	0	0
2024-07-05 13:44:32			0	36670	0	0	0	26244	24840	147902	27163	1028831	43416	109719	0	0	8201	604167	0	0
2024-07-05 13:45:32			0	36703	0	0	0	26238	24850	147846	27293	1028759	43406	109717	0	0	8203	602767	0	0
2024-07-05 13:46:32			0	36695	0	0	0	26249	24850	147782	27208	1028786	43406	109721	0	0	8203	603098	0	0
2024-07-05 13:47:32			0	36704	0	0	0	26238	24850	147798	27189	1028786	43416	109717	0	0	8203	602725	0	0
2024-07-05 13:48:32			0	36713	0	0	0	26241	24860	147742	27144	1028803	43406	109718	0	0	8204	602319	0	0
2024-07-05 13:49:32			0	36727	0	0	0	26249	24850	147662	27015	1028812	43428	109721	0	0	8204	601774	0	0
2024-07-05 13:50:32			0	36709	0	0	0	26241	24850	147638	27308	1028786	43406	109718	0	0	8203	602518	0	0
2024-07-05 13:51:32			0	36709	0	0	0	26246	24850	147734	27230	1028839	43406	109720	0	0	8203	602518	0	0
2024-07-05 13:52:32			0	36722	0	0	0	26246	24850	147702	27170	1028794	43416	109720	0	0	8204	601981	0	0
2024-07-05 13:53:32			0	36720	0	0	0	26244	24850	147726	26998	1028866	43416	109719	0	0	8204	602063	0	0
2024-07-05 13:54:32			0	36705	0	0	0	26251	24850	147862	27059	1028786	43416	109722	0	0	8203	602684	0	0
2024-07-05 13:55:32			0	36709	0	0	0	26249	24850	147834	27178	1028821	43406	109721	0	0	8203	602518	0	0
2024-07-05 13:56:32			0	36674	0	0	0	26249	24860	147878	27071	1028865	43407	109721	0	0	8201	603933	0	0
2024-07-05 13:57:32			0	36646	0	0	0	26257	24850	147918	27059	1028821	43428	109724	0	0	8200	605128	0	0
2024-07-05 13:58:32			0	36647	0	0	0	26262	24860	148058	27007	1028839	43417	109726	0	0	8200	605053	0	0
2024-07-05 13:59:32			0	36620	0	0	0	26270	24860	148130	27303	1028857	43416	109729	0	0	8198	606174	0	0
2024-07-05 14:00:32			0	36587	0	0	0	26272	24860	148253	27275	1028857	43439	109730	0	0	8197	607545	0	0
2024-07-05 14:01:32			0	36567	0	0	0	26275	24860	148373	27092	1028865	43417	109731	0	0	8195	608378	0	0
2024-07-05 14:02:32			0	36558	0	0	0	26270	24860	148313	27376	1028865	43417	109729	0	0	8195	608753	0	0
2024-07-05 14:03:32			0	36550	0	0	0	26283	24860	148465	27142	1028919	43429	109734	0	0	8194	609086	0	0
2024-07-05 14:04:32			0	36533	0	0	0	26290	24870	148489	27118	1028954	43418	109737	0	0	8193	609760	0	0
2024-07-05 14:05:32			0	36522	0	0	0	26306	24880	148489	26811	1029034	43419	109743	0	0	8193	610185	0	0
2024-07-05 14:06:32			0	36501	0	0	0	26309	24880	148685	27045	1029114	43431	109744	0	0	8191	611061	0	0
2024-07-05 14:07:32			0	36473	0	0	0	26335	24890	148709	27142	1029150	43443	109754	0	0	8190	612197	0	0
2024-07-05 14:08:32			0	36433	0	0	0	26345	24900	148865	27196	1029140	43433	109758	0	0	8187	613837	0	0
2024-07-05 14:09:32			0	36411	0	0	0	26358	24920	149029	26937	1029247	43434	109763	0	0	8186	614689	0	0
2024-07-05 14:10:32			0	36365	0	0	0	26399	24920	149121	26977	1029336	43434	109779	0	0	8183	616620	0	0
2024-07-05 14:11:32			0	36319	0	0	0	26415	24940	149273	27220	1029362	43458	109785	0	0	8180	618486	0	0
2024-07-05 14:12:32			0	36307	0	0	0	26420	24950	149341	26993	1029406	43458	109787	0	0	8180	618956	0	0
2024-07-05 14:13:32			0	36283	0	0	0	26415	24950	149425	27048	1029468	43437	109785	0	0	8179	619968	0	0
2024-07-05 14:14:32			0	36293	0	0	0	26407	24950	149357	27201	1029406	43425	109782	0	0	8179	619546	0	0
2024-07-05 14:15:32			0	36360	0	0	0	26402	24960	149229	26956	1029432	43428	109780	0	0	8183	616691	0	0
2024-07-05 14:16:32			0	36413	0	0	0	26394	24970	149009	26916	1029468	43439	109777	0	0	8186	614431	0	0
2024-07-05 14:17:32			0	36464	0	0	0	26392	24970	148801	27118	1029450	43428	109776	0	0	8189	612296	0	0
2024-07-05 14:18:32			0	36494	0	0	0	26418	24980	148601	27142	1029512	43429	109786	0	0	8190	611007	0	0
2024-07-05 14:19:32			0	36516	0	0	0	26425	24980	148581	27301	1029574	43452	109789	0	0	8191	610089	0	0
2024-07-05 14:20:32			0	36533	0	0	0	26436	24990	148509	26897	1029583	43441	109793	0	0	8191	609346	0	0
2024-07-05 14:21:32			0	36531	0	0	0	26444	24990	148553	27239	1029610	43441	109796	0	0	8191	609429	0	0
2024-07-05 14:22:32			0	36530	0	0	0	26436	25010	148565	27223	1029618	43432	109793	0	0	8191	609402	0	0
2024-07-05 14:23:32			0	36516	0	0	0	26441	25000	148485	27201	1029689	43432	109795	0	0	8191	610020	0	0
2024-07-05 14:24:32			0	36523	0	0	0	26444	25000	148561	27479	1029654	43442	109796	0	0	8191	609728	0	0
2024-07-05 14:25:32			0	36509	0	0	0	26438	25010	148597	27164	1029653	43432	109794	0	0	8190	610278	0	0
2024-07-05 14:26:32			0	36549	0	0	0	26441	25010	148529	27150	1029653	43432	109795	0	0	8192	608610	0	0
2024-07-05 14:27:32			0	36549	0	0	0	26441	25020	148433	27204	1029662	43455	109795	0	0	8192	608576	0	0
2024-07-05 14:28:32			0	36558	0	0	0	26444	25010	148489	27137	1029734	43443	109796	0	0	8193	608236	0	0
2024-07-05 14:29:32			0	36570	0	0	0	26446	25020	148301	27447	1029697	43433	109797	0	0	8193	607702	0	0
2024-07-05 14:30:32			0	36579	0	0	0	26433	25030	148397	27133	1029661	43446	109792	0	0	8194	607293	0	0
2024-07-05 14:31:32			0	36589	0	0	0	26444	25020	148321	27287	1029617	43433	109796	0	0	8194	606912	0	0
2024-07-05 14:32:32			0	36618	0	0	0	26433	25030	148162	27443	1029679	43446	109792	0	0	8196	605673	0	0
2024-07-05 14:33:32			0	36639	0	0	0	26436	25020	148078	26939	1029689	43432	109793	0	0	8197	604836	0	0
2024-07-05 14:34:32			0	36656	0	0	0	26441	25030	147974	27251	1029733	43446	109795	0	0	8198	604097	0	0
2024-07-05 14:35:32			0	36645	0	0	0	26438	25030	147946	27230	1029786	43434	109794	0	0	8197	604553	0	0
2024-07-05 14:36:32			0	36655	0	0	0	26449	25050	148086	27254	1029821	43436	109798	0	0	8198	604070	0	0
2024-07-05 14:37:32			0	36665	0	0	0	26457	25040	147882	27384	1029786	43435	109801	0	0	8198	603690	0	0
2024-07-05 14:38:32			0	36677	0	0	0	26470	25050	147910	26948	1029794	43448	109806	0	0	8199	603159	0	0
2024-07-05 14:39:32			0	36659	0	0	0	26462	25060	147898	27107	1029839	43436	109803	0	0	8198	603870	0	0
2024-07-05 14:40:32			0	36681	0	0	0	26467	25060	147846	27149	1029866	43436	109805	0	0	8199	602959	0	0
2024-07-05 14:41:32			0	36663	0	0	0	26488	25050	147870	27126	1029911	43448	109813	0	0	8198	603739	0	0
2024-07-05 14:42:32			0	36652	0	0	0	26501	25070	147942	27196	1029990	43438	109818	0	0	8197	604126	0	0
2024-07-05 14:43:32			0	36650	0	0	0	26506	25070	147962	27045	1030106	43438	109820	0	0	8197	604208	0	0
2024-07-05 14:44:32			0	36635	0	0	0	26519	25080	148122	27241	1030123	43439	109825	0	0	8196	604796	0	0
2024-07-05 14:45:32			0	36615	0	0	0	26527	25090	148066	27112	1030114	43452	109828	0	0	8195	605591	0	0
2024-07-05 14:46:32			0	36606	0	0	0	26532	25100	148102	27090	1030123	43463	109830	0	0	8194	605930	0	0
2024-07-05 14:47:32			0	36573	0	0	0	26558	25110	148125	27293	1030283	43476	109840	0	0	8192	607267	0	0
2024-07-05 14:48:32			0	36577	0	0	0	26561	25120	148201	27543	1030211	43464	109841	0	0	8192	607066	0	0
2024-07-05 14:49:32			0	36539	0	0	0	26563	25130	148257	27033	1030255	43455	109842	0	0	8190	608612	0	0
2024-07-05 14:50:32			0	36537	0	0	0	26561	25130	148305	27268	1030264	43445	109841	0	0	8190	608696	0	0
2024-07-05 14:51:32			0	36534	0	0	0	26561	25130	148261	27348	1030264	43466	109841	0	0	8190	608820	0	0
2024-07-05 14:52:32			0	36543	0	0	0	26555	25130	148265	26923	1030291	43433	109839	0	0	8191	608446	0	0
2024-07-05 14:53:32			0	36577	0	0	0	26540	25140	148161	27213	1030281	43456	109833	0	0	8193	606997	0	0
2024-07-05 14:54:32			0	36600	0	0	0	26537	25140	148106	27034	1030192	43433	109832	0	0	8194	606042	0	0
2024-07-05 14:55:32			0	36617	0	0	0	26527	25140	147914	27062	1030228	43445	109828	0	0	8195	605336	0	0
2024-07-05 14:56:32			0	36667	0	0	0	26529	25140	147874	27057	1030273	43433	109829	0	0	8198	603265	0	0
2024-07-05 14:57:32			0	36666	0	0	0	26550	25140	147922	27182	1030255	43445	109837	0	0	8197	603306	0	0
2024-07-05 14:58:32			0	36681	0	0	0	26563	25160	147822	26908	1030388	43435	109842	0	0	8198	602617	0	0
2024-07-05 14:59:32			0	36682	0	0	0	26558	25150	147742	27258	1030325	43458	109840	0	0	8198	602610	0	0
2024-07-05 15:00:32			0	36710	0	0	0	26548	25160	147630	27137	1030307	43458	109836	0	0	8200	601419	0	0
2024-07-05 15:01:32			0	36697	0	0	0	26563	25160	147674	27039	1030281	43447	109842	0	0	8199	601956	0	0
2024-07-05 15:02:32			0	36713	0	0	0	26553	25160	147570	27145	1030334	43447	109838	0	0	8200	601295	0	0
2024-07-05 15:03:32			0	36738	0	0	0	26545	25150	147534	26908	1030379	43447	109835	0	0	8201	600298	0	0
2024-07-05 15:04:32			0	36751	0	0	0	26561	25160	147450	27235	1030388	43435	109841	0	0	8202	599727	0	0
2024-07-05 15:05:32			0	36755	0	0	0	26568	25170	147410	27244	1030378	43447	109844	0	0	8202	599529	0	0
2024-07-05 15:06:32			0	36752	0	0	0	26555	25170	147346	27199	1030378	43447	109839	0	0	8202	599652	0	0
2024-07-05 15:07:32			0	36777	0	0	0	26542	25160	147282	27140	1030388	43424	109834	0	0	8203	598656	0	0
2024-07-05 15:08:32			0	36793	0	0	0	26542	25150	147254	27284	1030299	43435	109834	0	0	8204	598032	0	0
2024-07-05 15:09:32			0	36819	0	0	0	26524	25160	147302	27213	1030307	43435	109827	0	0	8206	596929	0	0
2024-07-05 15:10:32			0	36840	0	0	0	26529	25160	147146	27171	1030316	43458	109829	0	0	8207	596067	0	0
2024-07-05 15:11:32			0	36861	0	0	0	26522	25160	146982	27249	1030307	43435	109826	0	0	8208	595205	0	0
2024-07-05 15:12:32			0	36887	0	0	0	26522	25150	146890	26923	1030236	43423	109826	0	0	8209	594174	0	0
2024-07-05 15:13:32			0	36902	0	0	0	26522	25160	146778	27062	1030307	43447	109826	0	0	8210	593526	0	0
2024-07-05 15:14:32			0	36897	0	0	0	26529	25160	146742	27211	1030281	43424	109829	0	0	8210	593731	0	0
2024-07-05 15:15:32			0	36928	0	0	0	26524	25160	146682	27317	1030334	43435	109827	0	0	8211	592462	0	0
2024-07-05 15:16:32			0	36950	0	0	0	26519	25160	146686	27107	1030307	43435	109825	0	0	8213	591563	0	0
2024-07-05 15:17:32			0	36972	0	0	0	26529	25160	146602	26885	1030343	43447	109829	0	0	8214	590666	0	0
2024-07-05 15:18:32			0	36951	0	0	0	26537	25170	146618	27026	1030351	43458	109832	0	0	8212	591489	0	0
2024-07-05 15:19:32			0	36963	0	0	0	26553	25160	146678	26857	1030370	43458	109838	0	0	8213	591033	0	0
2024-07-05 15:20:32			0	36932	0	0	0	26550	25170	146678	27274	1030405	43436	109837	0	0	8211	592265	0	0
2024-07-05 15:21:32			0	36893	0	0	0	26545	25170	146806	27263	1030351	43447	109835	0	0	8209	593860	0	0
2024-07-05 15:22:32			0	36905	0	0	0	26550	25170	146778	27046	1030405	43447	109837	0	0	8210	593369	0	0
2024-07-05 15:23:32			0	36910	0	0	0	26558	25170	146726	27178	1030325	43425	109840	0	0	8210	593165	0	0
2024-07-05 15:24:32			0	36894	0	0	0	26545	25160	146730	27013	1030370	43425	109835	0	0	8209	593853	0	0
2024-07-05 15:25:32			0	36903	0	0	0	26527	25160	146782	27312	1030289	43447	109828	0	0	8210	593485	0	0
2024-07-05 15:26:32			0	36928	0	0	0	26524	25160	146810	27062	1030316	43436	109827	0	0	8211	592462	0	0
2024-07-05 15:27:32			0	36947	0	0	0	26509	25160	146586	27150	1030307	43447	109821	0	0	8213	591686	0	0
2024-07-05 15:28:32			0	36981	0	0	0	26514	25160	146610	27123	1030289	43447	109823	0	0	8214	590299	0	0
2024-07-05 15:29:32			0	36997	0	0	0	26527	25160	146510	27256	1030343	43436	109828	0	0	8215	589646	0	0
2024-07-05 15:30:32			0	36965	0	0	0	26550	25160	146478	27043	1030388	43447	109837	0	0	8213	590951	0	0
2024-07-05 15:31:32			0	36972	0	0	0	26589	25180	146538	27175	1030583	43448	109852	0	0	8213	590599	0	0
2024-07-05 15:32:32			0	36934	0	0	0	26628	25190	146678	27374	1030601	43482	109867	0	0	8210	592116	0	0
2024-07-05 15:33:32			0	36916	0	0	0	26651	25210	146838	26908	1030681	43451	109876	0	0	8209	592785	0	0
2024-07-05 15:34:32			0	36854	0	0	0	26657	25220	147018	27289	1030751	43463	109878	0	0	8206	595290	0	0
2024-07-05 15:35:32			0	36839	0	0	0	26646	25220	147078	27265	1030733	43453	109874	0	0	8205	595905	0	0
2024-07-05 15:36:32			0	36832	0	0	0	26646	25230	147106	27196	1030831	43454	109874	0	0	8205	596158	0	0
2024-07-05 15:37:32			0	36813	0	0	0	26657	25230	147138	26953	1030778	43454	109878	0	0	8203	596939	0	0
2024-07-05 15:38:32			0	36843	0	0	0	26646	25240	147102	27147	1030813	43443	109874	0	0	8205	595673	0	0
2024-07-05 15:39:32			0	36869	0	0	0	26646	25240	146954	26996	1030786	43443	109874	0	0	8207	594607	0	0
2024-07-05 15:40:32			0	36880	0	0	0	26623	25250	146814	27048	1030777	43455	109865	0	0	8208	594123	0	0
2024-07-05 15:41:32			0	36918	0	0	0	26597	25230	146698	27008	1030590	43443	109855	0	0	8210	592636	0	0
2024-07-05 15:42:32			0	36933	0	0	0	26561	25230	146574	27171	1030510	43443	109841	0	0	8211	592023	0	0
2024-07-05 15:43:32			0	36992	0	0	0	26535	25220	146446	27329	1030492	43442	109831	0	0	8215	589649	0	0
2024-07-05 15:44:32			0	37040	0	0	0	26550	25220	146266	27135	1030618	43429	109837	0	0	8217	587696	0	0
2024-07-05 15:45:32			0	37069	0	0	0	26568	25220	146194	27298	1030626	43453	109844	0	0	8218	586518	0	0
2024-07-05 15:46:32			0	37078	0	0	0	26599	25230	146014	27190	1030742	43475	109856	0	0	8218	586119	0	0
2024-07-05 15:47:32			0	37078	0	0	0	26599	25220	146106	27150	1030680	43430	109856	0	0	8218	586153	0	0
2024-07-05 15:48:32			0	37040	0	0	0	26594	25230	146126	27159	1030662	43442	109854	0	0	8216	587662	0	0
2024-07-05 15:49:32			0	37030	0	0	0	26584	25220	146286	27095	1030644	43441	109850	0	0	8216	588103	0	0
2024-07-05 15:50:32			0	37039	0	0	0	26579	25230	146318	27315	1030670	43443	109848	0	0	8217	587703	0	0
2024-07-05 15:51:32			0	37031	0	0	0	26579	25230	146310	27109	1030581	43442	109848	0	0	8216	588028	0	0
2024-07-05 15:52:32			0	37026	0	0	0	26574	25230	146322	27242	1030670	43454	109846	0	0	8216	588232	0	0
2024-07-05 15:53:32			0	37061	0	0	0	26576	25220	146298	27315	1030680	43430	109847	0	0	8218	586843	0	0
2024-07-05 15:54:32			0	37066	0	0	0	26599	25230	146298	27114	1030831	43454	109856	0	0	8218	586606	0	0
2024-07-05 15:55:32			0	37033	0	0	0	26610	25250	146286	27464	1030884	43465	109860	0	0	8216	587880	0	0
2024-07-05 15:56:32			0	37030	0	0	0	26628	25250	146338	27041	1030893	43445	109867	0	0	8215	588002	0	0
2024-07-05 15:57:32			0	37018	0	0	0	26615	25260	146362	27105	1030857	43457	109862	0	0	8215	588457	0	0
2024-07-05 15:58:32			0	37019	0	0	0	26599	25260	146318	27062	1030794	43433	109856	0	0	8215	588416	0	0
2024-07-05 15:59:32			0	37026	0	0	0	26597	25240	146298	27235	1030768	43432	109855	0	0	8216	588198	0	0
2024-07-05 16:00:32			0	37046	0	0	0	26592	25250	146258	26927	1030830	43444	109853	0	0	8217	587352	0	0
2024-07-05 16:01:32			0	37062	0	0	0	26599	25250	146174	27326	1030777	43455	109856	0	0	8217	586702	0	0
2024-07-05 16:02:32			0	37072	0	0	0	26605	25260	146098	27078	1030848	43456	109858	0	0	8218	586263	0	0
2024-07-05 16:03:32			0	37064	0	0	0	26592	25260	146202	27211	1030830	43446	109853	0	0	8218	586588	0	0
2024-07-05 16:04:32			0	37095	0	0	0	26566	25260	146066	27092	1030714	43433	109843	0	0	8220	585330	0	0
2024-07-05 16:05:32			0	37119	0	0	0	26545	25250	145958	27341	1030589	43421	109835	0	0	8221	584391	0	0
2024-07-05 16:06:32			0	37133	0	0	0	26519	25220	145938	27246	1030412	43419	109825	0	0	8222	583923	0	0
2024-07-05 16:07:32			0	37159	0	0	0	26506	25220	145902	27246	1030430	43418	109820	0	0	8224	582872	0	0
2024-07-05 16:08:32			0	37159	0	0	0	26498	25220	145838	27187	1030457	43418	109817	0	0	8224	582872	0	0
2024-07-05 16:09:32			0	37127	0	0	0	26485	25200	145934	27562	1030404	43429	109812	0	0	8223	584233	0	0
2024-07-05 16:10:32			0	37118	0	0	0	26480	25190	146086	27296	1030440	43416	109810	0	0	8222	584630	0	0
2024-07-05 16:11:32			0	37095	0	0	0	26464	25170	146098	27163	1030298	43403	109804	0	0	8221	585629	0	0
2024-07-05 16:12:32			0	37088	0	0	0	26470	25170	146118	27029	1030271	43403	109806	0	0	8221	585913	0	0
2024-07-05 16:13:32			0	37071	0	0	0	26459	25170	146230	26901	1030280	43415	109802	0	0	8220	586603	0	0
2024-07-05 16:14:32			0	37081	0	0	0	26457	25160	146182	27102	1030254	43414	109801	0	0	8220	586230	0	0
2024-07-05 16:15:32			0	37039	0	0	0	26462	25160	146302	27175	1030254	43414	109803	0	0	8218	587937	0	0
2024-07-05 16:16:32			0	37039	0	0	0	26457	25160	146370	27111	1030200	43414	109801	0	0	8218	587937	0	0
2024-07-05 16:17:32			0	37028	0	0	0	26459	25140	146450	27190	1030139	43412	109802	0	0	8218	588451	0	0
2024-07-05 16:18:32			0	37021	0	0	0	26446	25140	146442	27074	1030139	43412	109797	0	0	8217	588736	0	0
2024-07-05 16:19:32			0	37001	0	0	0	26438	25130	146426	27255	1030121	43411	109794	0	0	8217	589584	0	0
2024-07-05 16:20:32			0	36996	0	0	0	26438	25140	146542	27126	1030139	43422	109794	0	0	8216	589754	0	0
2024-07-05 16:21:32			0	36993	0	0	0	26449	25130	146546	27391	1030121	43421	109798	0	0	8216	589910	0	0
2024-07-05 16:22:32			0	36984	0	0	0	26459	25130	146622	27296	1030175	43432	109802	0	0	8215	590277	0	0
2024-07-05 16:23:32			0	36956	0	0	0	26451	25130	146674	27280	1030148	43421	109799	0	0	8214	591419	0	0
2024-07-05 16:24:32			0	36963	0	0	0	26462	25120	146638	27267	1030139	43420	109803	0	0	8214	591167	0	0
2024-07-05 16:25:32			0	36951	0	0	0	26446	25120	146606	27319	1030086	43420	109797	0	0	8214	591657	0	0
2024-07-05 16:26:32			0	36939	0	0	0	26436	25110	146662	27260	1030042	43431	109793	0	0	8213	592181	0	0
2024-07-05 16:27:32			0	36936	0	0	0	26428	25100	146726	27395	1030024	43430	109790	0	0	8213	592337	0	0
2024-07-05 16:28:32			0	36943	0	0	0	26433	25110	146670	27192	1030015	43431	109792	0	0	8213	592017	0	0
2024-07-05 16:29:32			0	36928	0	0	0	26428	25100	146786	27067	1030078	43408	109790	0	0	8213	592664	0	0
2024-07-05 16:30:32			0	36936	0	0	0	26423	25090	146846	27038	1029953	43430	109788	0	0	8213	592371	0	0
2024-07-05 16:31:32			0	36942	0	0	0	26407	25100	146742	27364	1029989	43418	109782	0	0	8214	592092	0	0
2024-07-05 16:32:32			0	36936	0	0	0	26412	25100	146778	27220	1029962	43408	109784	0	0	8213	592337	0	0
2024-07-05 16:33:32			0	36938	0	0	0	26418	25080	146714	27190	1029936	43395	109786	0	0	8213	592323	0	0
2024-07-05 16:34:32			0	36951	0	0	0	26423	25090	146702	27197	1029998	43417	109788	0	0	8214	591758	0	0
2024-07-05 16:35:32			0	36936	0	0	0	26425	25090	146630	27339	1029945	43429	109789	0	0	8213	592371	0	0
2024-07-05 16:36:32			0	36962	0	0	0	26431	25090	146706	27046	1030007	43418	109791	0	0	8214	591308	0	0
2024-07-05 16:37:32			0	36957	0	0	0	26446	25080	146798	27429	1030008	43427	109797	0	0	8214	591546	0	0
2024-07-05 16:38:32			0	36953	0	0	0	26472	25100	146750	26953	1030123	43441	109807	0	0	8213	591643	0	0
2024-07-05 16:39:32			0	36946	0	0	0	26506	25100	146770	27317	1030185	43452	109820	0	0	8212	591928	0	0
2024-07-05 16:40:32			0	36950	0	0	0	26498	25110	146586	27222	1030202	43431	109817	0	0	8213	591731	0	0
2024-07-05 16:41:32			0	36950	0	0	0	26511	25120	146614	27248	1030300	43443	109822	0	0	8213	591698	0	0
2024-07-05 16:42:32			0	36952	0	0	0	26511	25140	146670	27026	1030388	43456	109822	0	0	8213	591549	0	0
2024-07-05 16:43:32			0	36953	0	0	0	26571	25160	146662	27265	1030637	43458	109845	0	0	8212	591441	0	0
2024-07-05 16:44:32			0	36940	0	0	0	26625	25190	146662	27268	1030788	43482	109866	0	0	8210	591871	0	0
2024-07-05 16:45:32			0	36947	0	0	0	26597	25210	146702	27329	1030788	43429	109855	0	0	8211	591518	0	0
2024-07-05 16:46:32			0	36957	0	0	0	26576	25210	146674	27076	1030662	43417	109847	0	0	8212	591110	0	0
2024-07-05 16:47:32			0	36968	0	0	0	26548	25200	146586	27310	1030538	43429	109836	0	0	8213	590695	0	0
2024-07-05 16:48:32			0	36974	0	0	0	26540	25200	146466	27050	1030610	43428	109833	0	0	8214	590450	0	0
2024-07-05 16:49:32			0	36993	0	0	0	26561	25210	146514	26850	1030743	43440	109841	0	0	8214	589642	0	0
2024-07-05 16:50:32			0	37013	0	0	0	26574	25220	146454	27300	1030725	43429	109846	0	0	8215	588794	0	0
2024-07-05 16:51:32			0	36988	0	0	0	26579	25220	146398	27053	1030725	43452	109848	0	0	8214	589812	0	0
2024-07-05 16:52:32			0	36993	0	0	0	26566	25220	146406	27104	1030680	43430	109843	0	0	8214	589609	0	0
2024-07-05 16:53:32			0	37003	0	0	0	26542	25210	146418	27190	1030528	43417	109834	0	0	8215	589235	0	0
2024-07-05 16:54:32			0	37006	0	0	0	26522	25210	146302	27157	1030520	43407	109826	0	0	8216	589113	0	0
2024-07-05 16:55:32			0	37041	0	0	0	26516	25200	146254	27066	1030458	43429	109824	0	0	8218	587722	0	0
2024-07-05 16:56:32			0	37040	0	0	0	26511	25200	146314	26932	1030511	43440	109822	0	0	8218	587763	0	0
2024-07-05 16:57:32			0	37036	0	0	0	26524	25200	146158	27270	1030538	43451	109827	0	0	8217	587925	0	0
2024-07-05 16:58:32			0	37070	0	0	0	26537	25210	146158	27313	1030654	43440	109832	0	0	8219	586511	0	0
2024-07-05 16:59:32			0	37060	0	0	0	26553	25210	146282	27225	1030636	43462	109838	0	0	8218	586917	0	0
2024-07-05 17:00:32			0	37082	0	0	0	26542	25220	146150	27249	1030618	43441	109834	0	0	8219	585990	0	0
2024-07-05 17:01:32			0	37065	0	0	0	26535	25210	146158	27286	1030600	43429	109831	0	0	8219	586714	0	0
2024-07-05 17:02:32			0	37081	0	0	0	26524	25210	146138	26927	1030493	43407	109827	0	0	8220	586064	0	0
2024-07-05 17:03:32			0	37095	0	0	0	26511	25200	145994	27199	1030458	43429	109822	0	0	8220	585529	0	0
2024-07-05 17:04:32			0	37113	0	0	0	26514	25200	145954	27029	1030502	43406	109823	0	0	8221	584800	0	0
2024-07-05 17:05:32			0	37119	0	0	0	26503	25190	145974	27131	1030413	43427	109819	0	0	8222	584590	0	0
2024-07-05 17:06:32			0	37126	0	0	0	26490	25180	145858	27107	1030378	43427	109814	0	0	8222	584339	0	0
2024-07-05 17:07:32			0	37159	0	0	0	26488	25180	145910	27258	1030342	43426	109813	0	0	8224	583004	0	0
2024-07-05 17:08:32			0	37175	0	0	0	26490	25170	145886	26883	1030333	43426	109814	0	0	8225	582390	0	0
2024-07-05 17:09:32			0	37138	0	0	0	26467	25170	145774	26885	1030378	43425	109805	0	0	8223	583887	0	0
2024-07-05 17:10:32			0	37171	0	0	0	26477	25170	145750	26984	1030307	43415	109809	0	0	8225	582552	0	0
2024-07-05 17:11:32			0	37188	0	0	0	26475	25160	145778	27121	1030307	43424	109808	0	0	8226	581898	0	0
2024-07-05 17:12:32			0	37190	0	0	0	26527	25160	145730	26908	1030370	43425	109828	0	0	8225	581817	0	0
2024-07-05 17:13:32			0	37184	0	0	0	26545	25170	145726	27015	1030566	43425	109835	0	0	8224	582027	0	0
2024-07-05 17:14:32			0	37177	0	0	0	26586	25180	145794	27434	1030646	43449	109851	0	0	8223	582276	0	0
2024-07-05 17:15:32			0	37160	0	0	0	26628	25200	145818	27116	1030797	43439	109867	0	0	8222	582897	0	0
2024-07-05 17:16:32			0	37141	0	0	0	26698	25230	145970	27024	1031064	43486	109894	0	0	8220	583567	0	0
2024-07-05 17:17:32			0	37122	0	0	0	26781	25260	146026	27357	1031285	43490	109926	0	0	8218	584236	0	0
2024-07-05 17:18:32			0	37081	0	0	0	26792	25290	146178	27270	1031284	43470	109930	0	0	8215	585798	0	0
2024-07-05 17:19:32			0	37061	0	0	0	26776	25310	146210	27204	1031310	43439	109924	0	0	8215	586543	0	0
2024-07-05 17:20:32			0	37049	0	0	0	26773	25320	146250	27315	1031408	43473	109923	0	0	8214	586997	0	0
2024-07-05 17:21:32			0	37073	0	0	0	26773	25320	146130	27270	1031363	43473	109923	0	0	8215	586022	0	0
2024-07-05 17:22:32			0	37084	0	0	0	26755	25320	146174	27159	1031336	43451	109916	0	0	8216	585576	0	0
2024-07-05 17:23:32			0	37073	0	0	0	26740	25330	146006	26974	1031407	43452	109910	0	0	8216	585989	0	0
2024-07-05 17:24:32			0	37083	0	0	0	26722	25320	145926	26897	1031283	43429	109903	0	0	8217	585617	0	0
2024-07-05 17:25:32			0	37085	0	0	0	26698	25330	146050	26925	1031238	43441	109894	0	0	8217	585503	0	0
2024-07-05 17:26:32			0	37087	0	0	0	26664	25320	145930	27107	1031229	43451	109881	0	0	8218	585455	0	0
2024-07-05 17:27:32			0	37110	0	0	0	26607	25320	145854	27097	1031086	43417	109859	0	0	8220	584523	0	0
2024-07-05 17:28:32			0	37137	0	0	0	26599	25310	145786	26856	1031051	43450	109856	0	0	8222	583463	0	0
2024-07-05 17:29:32			0	37170	0	0	0	26612	25310	145650	27170	1031105	43428	109861	0	0	8223	582130	0	0
2024-07-05 17:30:32			0	37198	0	0	0	26636	25310	145538	27007	1031158	43450	109870	0	0	8224	580999	0	0
2024-07-05 17:31:32			0	37215	0	0	0	26623	25310	145510	27119	1031105	43450	109865	0	0	8225	580314	0	0
2024-07-05 17:32:32			0	37213	0	0	0	26607	25300	145590	27041	1030980	43449	109859	0	0	8225	580427	0	0
2024-07-05 17:33:32			0	37198	0	0	0	26584	25300	145526	27154	1030971	43427	109850	0	0	8225	581032	0	0
2024-07-05 17:34:32			0	37195	0	0	0	26563	25290	145490	26873	1030927	43414	109842	0	0	8225	581186	0	0
2024-07-05 17:35:32			0	37200	0	0	0	26540	25280	145566	27234	1030775	43425	109833	0	0	8226	581018	0	0
2024-07-05 17:36:32			0	37213	0	0	0	26524	25270	145650	26826	1030731	43413	109827	0	0	8227	580526	0	0
2024-07-05 17:37:32			0	37210	0	0	0	26516	25250	145554	26972	1030777	43411	109824	0	0	8227	580713	0	0
2024-07-05 17:38:32			0	37207	0	0	0	26522	25250	145466	26786	1030723	43411	109826	0	0	8226	580834	0	0
2024-07-05 17:39:32			0	37214	0	0	0	26550	25240	145546	26986	1030760	43431	109837	0	0	8226	580585	0	0
2024-07-05 17:40:32			0	37225	0	0	0	26605	25250	145582	27048	1030857	43432	109858	0	0	8226	580109	0	0
2024-07-05 17:41:32			0	37186	0	0	0	26607	25250	145662	27384	1030866	43433	109859	0	0	8224	581682	0	0
2024-07-05 17:42:32			0	37153	0	0	0	26615	25260	145654	27138	1030928	43433	109862	0	0	8222	582982	0	0
2024-07-05 17:43:32			0	37147	0	0	0	26654	25270	145786	27192	1031026	43457	109877	0	0	8221	583191	0	0
2024-07-05 17:44:32			0	37163	0	0	0	26638	25270	145734	26946	1030981	43458	109871	0	0	8222	582545	0	0
2024-07-05 17:45:32			0	37163	0	0	0	26631	25280	145706	27301	1031070	43458	109868	0	0	8222	582512	0	0
2024-07-05 17:46:32			0	37142	0	0	0	26654	25280	145746	27310	1031159	43458	109877	0	0	8221	583360	0	0
2024-07-05 17:47:32			0	37149	0	0	0	26693	25310	145806	27235	1031337	43472	109892	0	0	8221	582978	0	0
2024-07-05 17:48:32			0	37123	0	0	0	26750	25320	145858	27041	1031515	43473	109914	0	0	8218	583997	0	0
2024-07-05 17:49:32			0	37111	0	0	0	26823	25350	145998	27001	1031648	43487	109942	0	0	8217	584383	0	0
2024-07-05 17:50:32			0	37104	0	0	0	26820	25370	146030	26880	1031549	43466	109941	0	0	8216	584600	0	0
2024-07-05 17:51:32			0	37066	0	0	0	26815	25390	146006	27098	1031691	43468	109939	0	0	8215	586073	0	0
2024-07-05 17:52:32			0	37080	0	0	0	26872	25420	146054	27190	1032038	43504	109961	0	0	8215	585406	0	0
2024-07-05 17:53:32			0	37081	0	0	0	26976	25450	146066	27078	1032340	43519	110001	0	0	8213	585265	0	0
2024-07-05 17:54:32			0	37077	0	0	0	27023	25510	145994	27111	1032507	43501	110019	0	0	8212	585228	0	0
2024-07-05 17:55:32			0	37073	0	0	0	26945	25520	146018	27095	1032310	43470	109989	0	0	8213	585357	0	0
2024-07-05 17:56:32			0	37099	0	0	0	26919	25530	145930	26977	1032337	43471	109979	0	0	8215	584271	0	0
2024-07-05 17:57:32			0	37113	0	0	0	26927	25530	145786	26897	1032328	43470	109982	0	0	8216	583704	0	0
2024-07-05 17:58:32			0	37125	0	0	0	26924	25540	145674	27192	1032184	43460	109981	0	0	8216	583186	0	0
2024-07-05 17:59:32			0	37124	0	0	0	26875	25520	145650	27277	1032203	43459	109962	0	0	8217	583293	0	0
2024-07-05 18:00:32			0	37120	0	0	0	26857	25520	145650	27168	1032096	43459	109955	0	0	8217	583454	0	0
2024-07-05 18:01:32			0	37108	0	0	0	26872	25520	145806	27109	1032176	43470	109961	0	0	8216	583940	0	0
2024-07-05 18:02:32			0	37082	0	0	0	26909	25520	145954	27215	1032203	43459	109975	0	0	8214	584992	0	0
2024-07-05 18:03:32			0	37059	0	0	0	26919	25520	146058	27327	1032176	43470	109979	0	0	8213	585924	0	0
2024-07-05 18:04:32			0	37057	0	0	0	26890	25530	145978	27319	1032087	43470	109968	0	0	8213	585972	0	0
2024-07-05 18:05:32			0	37047	0	0	0	26836	25510	145970	27026	1031980	43436	109947	0	0	8214	586444	0	0
2024-07-05 18:06:32			0	37061	0	0	0	26820	25500	145966	27230	1031954	43435	109941	0	0	8215	585910	0	0
2024-07-05 18:07:32			0	37069	0	0	0	26789	25480	145966	27161	1031767	43456	109929	0	0	8216	585652	0	0
2024-07-05 18:08:32			0	37097	0	0	0	26758	25470	145762	27426	1031776	43432	109917	0	0	8218	584551	0	0
2024-07-05 18:09:32			0	37154	0	0	0	26758	25450	145726	27202	1031724	43442	109917	0	0	8220	582313	0	0
2024-07-05 18:10:32			0	37170	0	0	0	26729	25430	145666	27161	1031582	43429	109906	0	0	8222	581733	0	0
2024-07-05 18:11:32			0	37196	0	0	0	26724	25440	145514	27104	1031724	43440	109904	0	0	8223	580651	0	0
2024-07-05 18:12:32			0	37187	0	0	0	26797	25440	145586	27251	1031805	43451	109932	0	0	8221	581014	0	0
2024-07-05 18:13:32			0	37186	0	0	0	26786	25440	145566	27362	1031706	43452	109928	0	0	8222	581054	0	0
2024-07-05 18:14:32			0	37187	0	0	0	26740	25440	145434	27300	1031679	43441	109910	0	0	8222	581014	0	0
2024-07-05 18:15:32			0	37187	0	0	0	26735	25430	145514	27272	1031626	43440	109908	0	0	8222	581047	0	0
2024-07-05 18:16:32			0	37182	0	0	0	26722	25410	145454	27287	1031573	43427	109903	0	0	8222	581315	0	0
2024-07-05 18:17:32			0	37195	0	0	0	26690	25410	145450	27102	1031538	43449	109891	0	0	8224	580790	0	0
2024-07-05 18:18:32			0	37194	0	0	0	26672	25400	145534	27457	1031449	43437	109884	0	0	8224	580864	0	0
2024-07-05 18:19:32			0	37206	0	0	0	26654	25400	145446	27320	1031449	43437	109877	0	0	8225	580380	0	0
2024-07-05 18:20:32			0	37226	0	0	0	26633	25380	145370	27204	1031333	43424	109869	0	0	8226	579640	0	0
2024-07-05 18:21:32			0	37243	0	0	0	26618	25370	145222	26987	1031120	43412	109863	0	0	8227	578989	0	0
2024-07-05 18:22:32			0	37269	0	0	0	26566	25340	145226	27121	1030961	43409	109843	0	0	8229	578042	0	0
2024-07-05 18:23:32			0	37287	0	0	0	26553	25310	145138	27124	1030917	43406	109838	0	0	8230	577417	0	0
2024-07-05 18:24:32			0	37279	0	0	0	26514	25300	145138	27204	1030703	43394	109823	0	0	8230	577771	0	0
2024-07-05 18:25:32			0	37269	0	0	0	26493	25280	145118	27038	1030588	43380	109815	0	0	8230	578239	0	0
2024-07-05 18:26:32			0	37256	0	0	0	26477	25250	145270	27215	1030482	43377	109809	0	0	8230	578860	0	0
2024-07-05 18:27:32			0	37235	0	0	0	26451	25240	145346	27272	1030411	43387	109799	0	0	8229	579739	0	0
2024-07-05 18:28:32			0	37218	0	0	0	26451	25220	145486	26634	1030323	43385	109799	0	0	8228	580490	0	0
2024-07-05 18:29:32			0	37194	0	0	0	26433	25190	145554	27123	1030279	43394	109792	0	0	8227	581557	0	0
2024-07-05 18:30:32			0	37178	0	0	0	26428	25180	145642	27007	1030182	43404	109790	0	0	8226	582236	0	0
2024-07-05 18:31:32			0	37144	0	0	0	26433	25160	145754	26911	1030209	43392	109792	0	0	8224	583677	0	0
2024-07-05 18:32:32			0	37132	0	0	0	26441	25150	145970	26968	1030245	43391	109795	0	0	8223	584196	0	0
2024-07-05 18:33:32			0	37139	0	0	0	26431	25140	145882	27175	1030112	43400	109791	0	0	8224	583946	0	0
2024-07-05 18:34:32			0	37105	0	0	0	26418	25130	146050	27369	1030094	43411	109786	0	0	8222	585357	0	0
2024-07-05 18:35:32			0	37099	0	0	0	26462	25130	146082	26923	1030237	43422	109803	0	0	8221	585600	0	0
2024-07-05 18:36:32			0	37112	0	0	0	26524	25140	146086	27237	1030326	43445	109827	0	0	8221	585039	0	0
2024-07-05 18:37:32			0	37103	0	0	0	26529	25150	146154	27156	1030343	43423	109829	0	0	8220	585371	0	0
2024-07-05 18:38:32			0	37081	0	0	0	26501	25140	146138	27154	1030246	43422	109818	0	0	8220	586297	0	0
2024-07-05 18:39:32			0	37096	0	0	0	26480	25130	146110	27019	1030202	43421	109810	0	0	8221	585721	0	0
2024-07-05 18:40:32			0	37098	0	0	0	26475	25120	146094	27019	1030139	43431	109808	0	0	8221	585674	0	0
2024-07-05 18:41:32			0	37132	0	0	0	26480	25120	146162	26974	1030193	43420	109810	0	0	8223	584295	0	0
2024-07-05 18:42:32			0	37090	0	0	0	26522	25120	146046	26778	1030273	43420	109826	0	0	8220	585998	0	0
2024-07-05 18:43:32			0	37092	0	0	0	26522	25130	145934	26786	1030398	43456	109826	0	0	8220	585884	0	0
2024-07-05 18:44:32			0	37107	0	0	0	26516	25130	145978	27190	1030291	43422	109824	0	0	8221	585275	0	0
2024-07-05 18:45:32			0	37117	0	0	0	26485	25130	145954	26722	1030175	43432	109812	0	0	8222	584870	0	0
2024-07-05 18:46:32			0	37119	0	0	0	26454	25120	145942	27069	1030104	43398	109800	0	0	8222	584822	0	0
2024-07-05 18:47:32			0	37146	0	0	0	26441	25100	145930	27005	1029997	43418	109795	0	0	8224	583795	0	0
2024-07-05 18:48:32			0	37187	0	0	0	26431	25090	145802	27130	1029900	43418	109791	0	0	8226	582170	0	0
2024-07-05 18:49:32			0	37201	0	0	0	26425	25090	145702	26724	1030034	43418	109789	0	0	8227	581604	0	0
2024-07-05 18:50:32			0	37236	0	0	0	26433	25090	145582	26961	1030060	43418	109792	0	0	8229	580192	0	0
2024-07-05 18:51:32			0	37250	0	0	0	26433	25090	145606	27105	1030079	43429	109792	0	0	8229	579628	0	0
2024-07-05 18:52:32			0	37240	0	0	0	26423	25070	145562	27178	1029972	43438	109788	0	0	8229	580097	0	0
2024-07-05 18:53:32			0	37253	0	0	0	26423	25070	145518	27185	1029999	43427	109788	0	0	8230	579573	0	0
2024-07-05 18:54:32			0	37245	0	0	0	26436	25080	145546	27358	1029927	43438	109793	0	0	8229	579862	0	0
2024-07-05 18:55:32			0	37249	0	0	0	26425	25070	145570	27312	1029972	43427	109789	0	0	8229	579734	0	0
2024-07-05 18:56:32			0	37264	0	0	0	26433	25070	145634	26984	1029972	43416	109792	0	0	8230	579130	0	0
2024-07-05 18:57:32			0	37239	0	0	0	26433	25070	145606	27315	1030079	43427	109792	0	0	8229	580137	0	0
2024-07-05 18:58:32			0	37261	0	0	0	26446	25070	145494	27350	1029999	43427	109797	0	0	8230	579250	0	0
2024-07-05 18:59:32			0	37249	0	0	0	26438	25060	145578	27107	1030008	43426	109794	0	0	8229	579767	0	0
2024-07-05 19:00:32			0	37232	0	0	0	26438	25080	145626	27090	1029954	43416	109794	0	0	8228	580386	0	0
2024-07-05 19:01:32			0	37242	0	0	0	26407	25060	145686	27338	1029874	43437	109782	0	0	8229	580049	0	0
2024-07-05 19:02:32			0	37244	0	0	0	26392	25050	145618	27052	1029777	43415	109776	0	0	8230	580001	0	0
2024-07-05 19:03:32			0	37253	0	0	0	26394	25040	145618	27301	1029759	43414	109777	0	0	8230	579671	0	0
2024-07-05 19:04:32			0	37270	0	0	0	26384	25030	145658	27357	1029706	43413	109773	0	0	8231	579019	0	0
2024-07-05 19:05:32			0	37262	0	0	0	26355	25020	145606	27140	1029644	43412	109762	0	0	8231	579374	0	0
2024-07-05 19:06:32			0	37279	0	0	0	26350	25010	145538	27083	1029600	43410	109760	0	0	8232	578723	0	0
2024-07-05 19:07:32			0	37286	0	0	0	26335	25010	145626	27185	1029519	43398	109754	0	0	8233	578441	0	0
2024-07-05 19:08:32			0	37301	0	0	0	26335	25000	145450	27227	1029493	43409	109754	0	0	8233	577870	0	0
2024-07-05 19:09:32			0	37294	0	0	0	26327	24980	145438	27118	1029413	43418	109751	0	0	8233	578218	0	0
2024-07-05 19:10:32			0	37305	0	0	0	26322	24980	145526	27003	1029440	43408	109749	0	0	8234	577775	0	0
2024-07-05 19:11:32			0	37298	0	0	0	26314	24970	145430	27156	1029369	43406	109746	0	0	8233	578089	0	0
2024-07-05 19:12:32			0	37301	0	0	0	26296	24970	145582	27029	1029387	43416	109739	0	0	8234	577969	0	0
2024-07-05 19:13:32			0	37296	0	0	0	26290	24960	145518	27093	1029325	43428	109737	0	0	8234	578202	0	0
2024-07-05 19:14:32			0	37300	0	0	0	26290	24950	145502	26975	1029335	43426	109737	0	0	8234	578074	0	0
2024-07-05 19:15:32			0	37300	0	0	0	26290	24950	145502	26979	1029308	43404	109737	0	0	8234	578074	0	0
2024-07-05 19:16:32			0	37285	0	0	0	26293	24930	145438	26967	1029300	43414	109738	0	0	8233	578744	0	0
2024-07-05 19:17:32			0	37283	0	0	0	26301	24940	145506	27031	1029290	43415	109741	0	0	8233	578791	0	0
2024-07-05 19:18:32			0	37274	0	0	0	26306	24930	145602	26955	1029353	43402	109743	0	0	8232	579187	0	0
2024-07-05 19:19:32			0	37270	0	0	0	26296	24940	145558	27204	1029308	43425	109739	0	0	8232	579315	0	0
2024-07-05 19:20:32			0	37257	0	0	0	26316	24930	145578	27124	1029273	43414	109747	0	0	8231	579872	0	0
2024-07-05 19:21:32			0	37249	0	0	0	26311	24930	145642	27081	1029327	43424	109745	0	0	8231	580194	0	0
2024-07-05 19:22:32			0	37230	0	0	0	26309	24930	145606	27093	1029327	43424	109744	0	0	8230	580961	0	0
2024-07-05 19:23:32			0	37232	0	0	0	26296	24940	145626	27644	1029255	43403	109739	0	0	8230	580847	0	0
2024-07-05 19:24:32			0	37230	0	0	0	26296	24920	145654	27338	1029282	43413	109739	0	0	8230	580994	0	0
2024-07-05 19:25:32			0	37230	0	0	0	26290	24920	145694	27098	1029175	43413	109737	0	0	8230	580994	0	0
2024-07-05 19:26:32			0	37233	0	0	0	26296	24930	145750	27351	1029264	43423	109739	0	0	8230	580840	0	0
2024-07-05 19:27:32			0	37205	0	0	0	26290	24930	145770	27248	1029264	43413	109737	0	0	8229	581970	0	0
2024-07-05 19:28:32			0	37199	0	0	0	26290	24930	145770	27208	1029210	43401	109737	0	0	8228	582213	0	0
2024-07-05 19:29:32			0	37216	0	0	0	26288	24920	145826	27345	1029220	43413	109736	0	0	8229	581559	0	0
2024-07-05 19:30:32			0	37192	0	0	0	26285	24900	145874	27140	1029229	43411	109735	0	0	8228	582595	0	0
2024-07-05 19:31:32			0	37193	0	0	0	26283	24900	145918	26835	1029167	43421	109734	0	0	8228	582554	0	0
2024-07-05 19:32:32			0	37180	0	0	0	26283	24900	146002	27140	1029202	43411	109734	0	0	8227	583080	0	0
2024-07-05 19:33:32			0	37180	0	0	0	26283	24900	145990	27112	1029149	43399	109734	0	0	8227	583080	0	0
2024-07-05 19:34:32			0	37179	0	0	0	26280	24900	145926	27215	1029221	43411	109733	0	0	8227	583121	0	0
2024-07-05 19:35:32			0	37159	0	0	0	26283	24900	145922	27076	1029194	43411	109734	0	0	8226	583930	0	0
2024-07-05 19:36:32			0	37173	0	0	0	26283	24900	146014	27131	1029167	43421	109734	0	0	8227	583364	0	0
2024-07-05 19:37:32			0	37181	0	0	0	26283	24890	146142	27170	1029132	43411	109734	0	0	8227	583073	0	0
2024-07-05 19:38:32			0	37149	0	0	0	26283	24890	146102	26896	1029150	43410	109734	0	0	8226	584369	0	0
2024-07-05 19:39:32			0	37150	0	0	0	26275	24890	146066	27215	1029150	43420	109731	0	0	8226	584328	0	0
2024-07-05 19:40:32			0	37155	0	0	0	26283	24890	146094	27149	1029212	43421	109734	0	0	8226	584126	0	0
2024-07-05 19:41:32			0	37145	0	0	0	26290	24900	146098	27279	1029221	43411	109737	0	0	8226	584498	0	0
2024-07-05 19:42:32			0	37158	0	0	0	26288	24890	146014	27118	1029185	43399	109736	0	0	8226	584004	0	0
2024-07-05 19:43:32			0	37144	0	0	0	26288	24900	146074	27027	1029140	43421	109736	0	0	8226	584538	0	0
2024-07-05 19:44:32			0	37145	0	0	0	26283	24880	146134	27118	1029087	43409	109734	0	0	8226	584564	0	0
2024-07-05 19:45:32			0	37158	0	0	0	26280	24890	146102	27164	1029132	43421	109733	0	0	8226	584004	0	0
2024-07-05 19:46:32			0	37156	0	0	0	26270	24900	146102	26911	1029113	43421	109729	0	0	8226	584052	0	0
2024-07-05 19:47:32			0	37155	0	0	0	26275	24880	146074	26804	1029114	43409	109731	0	0	8226	584159	0	0
2024-07-05 19:48:32			0	37161	0	0	0	26280	24890	146178	27079	1029150	43420	109733	0	0	8226	583883	0	0
2024-07-05 19:49:32			0	37166	0	0	0	26275	24890	146018	26968	1029105	43411	109731	0	0	8227	583680	0	0
2024-07-05 19:50:32			0	37178	0	0	0	26267	24870	146134	27180	1029016	43418	109728	0	0	8228	583260	0	0
2024-07-05 19:51:32			0	37175	0	0	0	26262	24880	146042	27107	1029034	43409	109726	0	0	8227	583349	0	0
2024-07-05 19:52:32			0	37200	0	0	0	26272	24870	146170	26793	1029016	43408	109730	0	0	8229	582370	0	0
2024-07-05 19:53:32			0	37188	0	0	0	26259	24880	146094	27211	1028945	43397	109725	0	0	8228	582823	0	0
2024-07-05 19:54:32			0	37204	0	0	0	26251	24870	146078	27192	1029070	43418	109722	0	0	8229	582209	0	0
2024-07-05 19:55:32			0	37207	0	0	0	26267	24860	146082	27027	1028999	43417	109728	0	0	8229	582120	0	0
2024-07-05 19:56:32			0	37212	0	0	0	26277	24870	145998	27218	1029097	43408	109732	0	0	8229	581885	0	0
2024-07-05 19:57:32			0	37188	0	0	0	26283	24870	145934	26972	1029124	43418	109734	0	0	8228	582856	0	0
2024-07-05 19:58:32			0	37211	0	0	0	26298	24880	145998	27000	1029106	43430	109740	0	0	8229	581893	0	0
2024-07-05 19:59:32			0	37204	0	0	0	26306	24880	145962	27362	1029195	43419	109743	0	0	8228	582176	0	0
2024-07-05 20:00:32			0	37205	0	0	0	26311	24900	145970	27436	1029247	43421	109745	0	0	8228	582069	0	0
2024-07-05 20:01:32			0	37201	0	0	0	26324	24900	146010	27279	1029301	43433	109750	0	0	8228	582231	0	0
2024-07-05 20:02:32			0	37197	0	0	0	26319	24880	146038	27140	1029168	43419	109748	0	0	8228	582459	0	0
2024-07-05 20:03:32			0	37203	0	0	0	26319	24900	145978	27293	1029221	43411	109748	0	0	8228	582150	0	0
2024-07-05 20:04:32			0	37203	0	0	0	26314	24900	145986	27381	1029113	43421	109746	0	0	8228	582150	0	0
2024-07-05 20:05:32			0	37212	0	0	0	26309	24890	146030	27216	1029212	43411	109744	0	0	8229	581819	0	0
2024-07-05 20:06:32			0	37230	0	0	0	26290	24890	145978	27249	1029132	43399	109737	0	0	8230	581093	0	0
2024-07-05 20:07:32			0	37228	0	0	0	26259	24870	145906	26878	1028990	43408	109725	0	0	8230	581239	0	0
2024-07-05 20:08:32			0	37237	0	0	0	26241	24870	145878	27133	1028954	43397	109718	0	0	8231	580876	0	0
2024-07-05 20:09:32			0	37268	0	0	0	26233	24860	145710	27039	1028839	43407	109715	0	0	8233	579658	0	0
2024-07-05 20:10:32			0	37288	0	0	0	26212	24850	145686	26923	1028875	43395	109707	0	0	8234	578885	0	0
2024-07-05 20:11:32			0	37282	0	0	0	26223	24840	145682	27107	1028911	43416	109711	0	0	8234	579160	0	0
2024-07-05 20:12:32			0	37272	0	0	0	26262	24870	145714	27256	1029195	43441	109726	0	0	8232	579464	0	0
2024-07-05 20:13:32			0	37272	0	0	0	26314	24890	145718	27026	1029364	43454	109746	0	0	8232	579398	0	0
2024-07-05 20:14:32			0	37262	0	0	0	26327	24890	145750	26923	1029265	43455	109751	0	0	8231	579801	0	0
2024-07-05 20:15:32			0	37252	0	0	0	26298	24900	145846	26968	1029221	43433	109740	0	0	8231	580172	0	0
2024-07-05 20:16:32			0	37240	0	0	0	26285	24890	145822	27390	1029158	43411	109735	0	0	8231	580689	0	0
2024-07-05 20:17:32			0	37255	0	0	0	26280	24890	145762	27235	1029203	43420	109733	0	0	8231	580084	0	0
2024-07-05 20:18:32			0	37237	0	0	0	26306	24880	145898	27209	1029213	43430	109743	0	0	8230	580843	0	0
2024-07-05 20:19:32			0	37243	0	0	0	26332	24890	145886	27230	1029292	43433	109753	0	0	8230	580568	0	0
2024-07-05 20:20:32			0	37232	0	0	0	26337	24900	145826	27052	1029354	43433	109755	0	0	8229	580979	0	0
2024-07-05 20:21:32			0	37222	0	0	0	26340	24910	145954	27187	1029399	43433	109756	0	0	8229	581350	0	0
2024-07-05 20:22:32			0	37221	0	0	0	26337	24920	145906	27301	1029255	43434	109755	0	0	8229	581357	0	0
2024-07-05 20:23:32			0	37229	0	0	0	26319	24920	145978	27267	1029354	43423	109748	0	0	8229	581034	0	0
2024-07-05 20:24:32			0	37224	0	0	0	26324	24910	145982	27223	1029291	43412	109750	0	0	8229	581269	0	0
2024-07-05 20:25:32			0	37211	0	0	0	26322	24910	146054	27241	1029345	43412	109749	0	0	8228	581794	0	0
2024-07-05 20:26:32			0	37218	0	0	0	26332	24910	145990	27417	1029318	43422	109753	0	0	8229	581511	0	0
2024-07-05 20:27:32			0	37209	0	0	0	26337	24920	145958	27280	1029336	43423	109755	0	0	8228	581842	0	0
2024-07-05 20:28:32			0	37220	0	0	0	26329	24930	145966	27512	1029318	43423	109752	0	0	8229	581364	0	0
2024-07-05 20:29:32			0	37219	0	0	0	26319	24920	146026	27031	1029362	43423	109748	0	0	8229	581438	0	0
2024-07-05 20:30:32			0	37208	0	0	0	26322	24930	146014	27088	1029371	43413	109749	0	0	8228	581849	0	0
2024-07-05 20:31:32			0	37208	0	0	0	26324	24920	145998	27606	1029336	43413	109750	0	0	8228	581882	0	0
2024-07-05 20:32:32			0	37207	0	0	0	26309	24920	145942	27268	1029247	43423	109744	0	0	8229	581923	0	0
2024-07-05 20:33:32			0	37221	0	0	0	26298	24920	145954	27339	1029229	43423	109740	0	0	8229	581357	0	0
2024-07-05 20:34:32			0	37203	0	0	0	26290	24910	145922	27194	1029291	43422	109737	0	0	8229	582117	0	0
2024-07-05 20:35:32			0	37199	0	0	0	26311	24910	146014	27435	1029291	43422	109745	0	0	8228	582279	0	0
2024-07-05 20:36:32			0	37216	0	0	0	26316	24910	145922	27088	1029291	43422	109747	0	0	8229	581592	0	0
2024-07-05 20:37:32			0	37205	0	0	0	26332	24910	145982	27431	1029318	43445	109753	0	0	8228	582036	0	0
2024-07-05 20:38:32			0	37211	0	0	0	26353	24920	146038	27383	1029407	43446	109761	0	0	8228	581761	0	0
2024-07-05 20:39:32			0	37204	0	0	0	26373	24930	146130	27467	1029487	43435	109769	0	0	8227	582011	0	0
2024-07-05 20:40:32			0	37183	0	0	0	26389	24940	146090	27341	1029505	43436	109775	0	0	8226	582827	0	0
2024-07-05 20:41:32			0	37158	0	0	0	26399	24950	146118	27374	1029486	43436	109779	0	0	8225	583806	0	0
2024-07-05 20:42:32			0	37145	0	0	0	26394	24950	146274	27053	1029513	43425	109777	0	0	8224	584332	0	0
2024-07-05 20:43:32			0	37157	0	0	0	26384	24950	146234	27097	1029567	43436	109773	0	0	8225	583846	0	0
2024-07-05 20:44:32			0	37149	0	0	0	26402	24970	146178	27317	1029655	43439	109780	0	0	8224	584104	0	0
2024-07-05 20:45:32			0	37117	0	0	0	26405	24970	146198	27157	1029682	43450	109781	0	0	8222	585401	0	0
2024-07-05 20:46:32			0	37127	0	0	0	26407	24970	146234	27315	1029610	43450	109782	0	0	8223	584995	0	0
2024-07-05 20:47:32			0	37146	0	0	0	26399	24970	146242	27211	1029610	43428	109779	0	0	8224	584225	0	0
2024-07-05 20:48:32			0	37147	0	0	0	26389	24970	146238	27313	1029602	43416	109775	0	0	8224	584185	0	0
2024-07-05 20:49:32			0	37171	0	0	0	26373	24960	146158	27301	1029557	43427	109769	0	0	8226	583246	0	0
2024-07-05 20:50:32			0	37154	0	0	0	26355	24960	146098	27000	1029513	43416	109762	0	0	8225	583935	0	0
2024-07-05 20:51:32			0	37151	0	0	0	26337	24970	146138	27395	1029494	43428	109755	0	0	8225	584023	0	0
2024-07-05 20:52:32			0	37174	0	0	0	26348	24950	146022	27291	1029495	43426	109759	0	0	8226	583158	0	0
2024-07-05 20:53:32			0	37180	0	0	0	26355	24950	146042	27156	1029549	43449	109762	0	0	8226	582915	0	0
2024-07-05 20:54:32			0	37169	0	0	0	26368	24950	146154	27476	1029495	43437	109767	0	0	8226	583360	0	0
2024-07-05 20:55:32			0	37160	0	0	0	26366	24960	146106	27492	1029531	43438	109766	0	0	8225	583692	0	0
2024-07-05 20:56:32			0	37150	0	0	0	26379	24950	146166	27464	1029549	43437	109771	0	0	8224	584129	0	0
2024-07-05 20:57:32			0	37136	0	0	0	26373	24960	146190	27294	1029539	43439	109769	0	0	8224	584664	0	0
2024-07-05 20:58:32			0	37131	0	0	0	26368	24960	146202	27365	1029531	43416	109767	0	0	8224	584866	0	0
2024-07-05 20:59:32			0	37126	0	0	0	26361	24960	146210	27374	1029539	43439	109764	0	0	8224	585069	0	0
2024-07-05 21:00:32			0	37140	0	0	0	26358	24960	146146	27512	1029486	43416	109763	0	0	8224	584502	0	0
2024-07-05 21:01:32			0	37148	0	0	0	26358	24950	146146	27346	1029433	43425	109763	0	0	8225	584211	0	0
2024-07-05 21:02:32			0	37137	0	0	0	26348	24940	146174	27390	1029469	43415	109759	0	0	8224	584689	0	0
2024-07-05 21:03:32			0	37144	0	0	0	26332	24950	146086	27213	1029460	43415	109753	0	0	8225	584373	0	0
2024-07-05 21:04:32			0	37162	0	0	0	26329	24950	146026	27478	1029468	43416	109752	0	0	8226	583644	0	0
2024-07-05 21:05:32			0	37177	0	0	0	26332	24940	145994	27081	1029362	43403	109753	0	0	8227	583070	0	0
2024-07-05 21:06:32			0	37175	0	0	0	26329	24940	146154	27287	1029362	43425	109752	0	0	8227	583150	0	0
2024-07-05 21:07:32			0	37182	0	0	0	26324	24940	146018	27308	1029389	43436	109750	0	0	8227	582867	0	0
2024-07-05 21:08:32			0	37171	0	0	0	26329	24940	146062	27142	1029335	43415	109752	0	0	8226	583312	0	0
2024-07-05 21:09:32			0	37154	0	0	0	26311	24940	146106	27130	1029362	43415	109745	0	0	8226	584001	0	0
2024-07-05 21:10:32			0	37169	0	0	0	26316	24930	146082	27192	1029344	43434	109747	0	0	8226	583426	0	0
2024-07-05 21:11:32			0	37161	0	0	0	26311	24930	146058	27436	1029291	43423	109745	0	0	8226	583750	0	0
2024-07-05 21:12:32			0	37185	0	0	0	26311	24920	146026	27350	1029255	43423	109745	0	0	8227	582812	0	0
2024-07-05 21:13:32			0	37180	0	0	0	26301	24920	146030	27083	1029255	43423	109741	0	0	8227	583014	0	0
2024-07-05 21:14:32			0	37178	0	0	0	26293	24920	146002	27261	1029273	43423	109738	0	0	8227	583095	0	0
2024-07-05 21:15:32			0	37197	0	0	0	26285	24900	146078	27026	1029149	43411	109735	0	0	8228	582393	0	0
2024-07-05 21:16:32			0	37181	0	0	0	26257	24900	145994	27412	1029087	43411	109724	0	0	8228	583040	0	0
2024-07-05 21:17:32			0	37190	0	0	0	26259	24890	145962	27157	1029132	43411	109725	0	0	8228	582709	0	0
2024-07-05 21:18:32			0	37206	0	0	0	26244	24870	145878	27478	1029016	43418	109719	0	0	8229	582128	0	0
2024-07-05 21:19:32			0	37216	0	0	0	26223	24870	145930	27327	1028963	43418	109711	0	0	8230	581724	0	0
2024-07-05 21:20:32			0	37215	0	0	0	26210	24850	145998	27156	1028821	43406	109706	0	0	8230	581830	0	0
2024-07-05 21:21:32			0	37197	0	0	0	26192	24850	145950	27331	1028812	43395	109699	0	0	8230	582558	0	0
2024-07-05 21:22:32			0	37182	0	0	0	26179	24830	146182	27090	1028733	43393	109694	0	0	8229	583231	0	0
2024-07-05 21:23:32			0	37154	0	0	0	26171	24820	146162	27398	1028716	43403	109691	0	0	8228	584398	0	0
2024-07-05 21:24:32			0	37115	0	0	0	26174	24820	146310	27095	1028716	43425	109692	0	0	8226	585980	0	0
2024-07-05 21:25:32			0	37113	0	0	0	26192	24820	146370	27294	1028769	43415	109699	0	0	8225	586061	0	0
2024-07-05 21:26:32			0	37120	0	0	0	26197	24820	146342	27060	1028787	43402	109701	0	0	8225	585777	0	0
2024-07-05 21:27:32			0	37106	0	0	0	26192	24810	146374	27587	1028752	43414	109699	0	0	8225	586379	0	0
2024-07-05 21:28:32			0	37131	0	0	0	26192	24810	146274	27485	1028805	43414	109699	0	0	8226	585364	0	0
2024-07-05 21:29:32			0	37115	0	0	0	26189	24810	146262	27215	1028752	43424	109698	0	0	8225	586013	0	0
2024-07-05 21:30:32			0	37136	0	0	0	26186	24820	146350	27431	1028734	43424	109697	0	0	8226	585128	0	0
2024-07-05 21:31:32			0	37149	0	0	0	26189	24800	146298	27466	1028725	43412	109698	0	0	8227	584667	0	0
2024-07-05 21:32:32			0	37156	0	0	0	26174	24800	146218	27346	1028680	43413	109692	0	0	8228	584383	0	0
2024-07-05 21:33:32			0	37148	0	0	0	26168	24790	146206	27211	1028601	43411	109690	0	0	8227	584740	0	0
2024-07-05 21:34:32			0	37140	0	0	0	26155	24790	146306	27227	1028610	43388	109685	0	0	8227	585065	0	0
2024-07-05 21:35:32			0	37158	0	0	0	26142	24770	146290	27275	1028521	43409	109680	0	0	8228	584401	0	0
2024-07-05 21:36:32			0	37123	0	0	0	26158	24780	146214	27256	1028637	43410	109686	0	0	8226	585788	0	0
2024-07-05 21:37:32			0	37125	0	0	0	26155	24790	146270	27150	1028601	43411	109685	0	0	8226	585674	0	0
2024-07-05 21:38:32			0	37120	0	0	0	26158	24770	146334	27206	1028575	43431	109686	0	0	8226	585943	0	0
2024-07-05 21:39:32			0	37120	0	0	0	26148	24770	146402	27046	1028548	43419	109682	0	0	8226	585943	0	0
2024-07-05 21:40:32			0	37145	0	0	0	26135	24760	146370	27215	1028477	43398	109677	0	0	8228	584961	0	0
2024-07-05 21:41:32			0	37128	0	0	0	26132	24760	146414	27537	1028504	43409	109676	0	0	8227	585651	0	0
2024-07-05 21:42:32			0	37136	0	0	0	26145	24770	146382	27493	1028566	43419	109681	0	0	8227	585293	0	0
2024-07-05 21:43:32			0	37115	0	0	0	26148	24770	146402	27194	1028566	43419	109682	0	0	8226	586146	0	0
2024-07-05 21:44:32			0	37119	0	0	0	26155	24760	146474	27164	1028584	43419	109685	0	0	8226	586017	0	0
2024-07-05 21:45:32			0	37108	0	0	0	26148	24760	146474	27003	1028558	43419	109682	0	0	8225	586463	0	0
2024-07-05 21:46:32			0	37119	0	0	0	26148	24770	146406	27067	1028566	43419	109682	0	0	8226	585983	0	0
2024-07-05 21:47:32			0	37121	0	0	0	26148	24760	146470	27287	1028576	43418	109682	0	0	8226	585936	0	0
2024-07-05 21:48:32			0	37115	0	0	0	26158	24770	146450	27372	1028602	43409	109686	0	0	8226	586146	0	0
2024-07-05 21:49:32			0	37112	0	0	0	26168	24770	146590	27083	1028593	43431	109690	0	0	8225	586268	0	0
2024-07-05 21:50:32			0	37125	0	0	0	26184	24770	146562	26979	1028655	43431	109696	0	0	8226	585740	0	0
2024-07-05 21:51:32			0	37103	0	0	0	26186	24760	146522	27124	1028584	43419	109697	0	0	8225	586667	0	0
2024-07-05 21:52:32			0	37083	0	0	0	26184	24770	146658	27275	1028655	43409	109696	0	0	8224	587446	0	0
2024-07-05 21:53:32			0	37075	0	0	0	26192	24780	146714	26994	1028646	43433	109699	0	0	8223	587739	0	0
2024-07-05 21:54:32			0	37074	0	0	0	26192	24780	146730	27124	1028673	43421	109699	0	0	8223	587779	0	0
2024-07-05 21:55:32			0	37057	0	0	0	26186	24770	146770	27260	1028628	43431	109697	0	0	8222	588505	0	0
2024-07-05 21:56:32			0	37059	0	0	0	26184	24770	146806	27239	1028682	43419	109696	0	0	8222	588423	0	0
2024-07-05 21:57:32			0	37057	0	0	0	26192	24780	146846	27291	1028646	43411	109699	0	0	8222	588471	0	0
2024-07-05 21:58:32			0	37028	0	0	0	26192	24770	146842	27130	1028682	43431	109699	0	0	8221	589686	0	0
2024-07-05 21:59:32			0	37036	0	0	0	26184	24790	146902	27178	1028628	43421	109696	0	0	8221	589294	0	0
2024-07-05 22:00:32			0	37022	0	0	0	26189	24780	146882	27367	1028610	43410	109698	0	0	8220	589898	0	0
2024-07-05 22:01:32			0	37027	0	0	0	26184	24780	146886	27244	1028691	43410	109696	0	0	8221	589694	0	0
2024-07-05 22:02:32			0	37013	0	0	0	26186	24780	146946	27483	1028637	43432	109697	0	0	8220	590265	0	0
2024-07-05 22:03:32			0	37030	0	0	0	26189	24780	146882	27348	1028619	43421	109698	0	0	8221	589572	0	0
2024-07-05 22:04:32			0	37006	0	0	0	26189	24790	146942	27282	1028628	43411	109698	0	0	8220	590517	0	0
2024-07-05 22:05:32			0	37024	0	0	0	26189	24770	146970	27097	1028682	43419	109698	0	0	8220	589850	0	0
2024-07-05 22:06:32			0	37016	0	0	0	26192	24780	146970	27473	1028699	43421	109699	0	0	8220	590143	0	0
2024-07-05 22:07:32			0	37003	0	0	0	26186	24780	146910	27324	1028673	43411	109697	0	0	8219	590673	0	0
2024-07-05 22:08:32			0	36995	0	0	0	26192	24770	146954	26965	1028655	43419	109699	0	0	8219	591033	0	0
2024-07-05 22:09:32			0	36988	0	0	0	26186	24780	146986	27313	1028699	43421	109697	0	0	8219	591286	0	0
2024-07-05 22:10:32			0	36993	0	0	0	26184	24790	147038	27294	1028681	43444	109696	0	0	8219	591048	0	0
2024-07-05 22:11:32			0	36998	0	0	0	26192	24780	146974	27222	1028753	43421	109699	0	0	8219	590877	0	0
2024-07-05 22:12:32			0	36984	0	0	0	26199	24780	147058	27150	1028691	43420	109702	0	0	8218	591449	0	0
2024-07-05 22:13:32			0	36989	0	0	0	26197	24780	147070	27298	1028673	43421	109701	0	0	8218	591245	0	0
2024-07-05 22:14:32			0	36990	0	0	0	26189	24790	147034	27343	1028681	43421	109698	0	0	8219	591170	0	0
2024-07-05 22:15:32			0	36990	0	0	0	26186	24770	147050	27076	1028709	43419	109697	0	0	8219	591237	0	0
2024-07-05 22:16:32			0	36977	0	0	0	26186	24780	146974	27166	1028673	43433	109697	0	0	8218	591735	0	0
2024-07-05 22:17:32			0	36986	0	0	0	26184	24790	147010	27168	1028681	43433	109696	0	0	8219	591334	0	0
2024-07-05 22:18:32			0	36992	0	0	0	26189	24790	147006	27098	1028654	43411	109698	0	0	8219	591089	0	0
2024-07-05 22:19:32			0	36993	0	0	0	26184	24780	146926	27270	1028664	43420	109696	0	0	8219	591081	0	0
2024-07-05 22:20:32			0	36996	0	0	0	26184	24790	147002	27395	1028690	43433	109696	0	0	8219	590925	0	0
2024-07-05 22:21:32			0	37000	0	0	0	26186	24770	146970	27428	1028682	43398	109697	0	0	8219	590829	0	0
2024-07-05 22:22:32			0	36992	0	0	0	26197	24790	146946	27022	1028717	43411	109701	0	0	8219	591089	0	0
2024-07-05 22:23:32			0	36983	0	0	0	26189	24790	147014	27189	1028708	43433	109698	0	0	8218	591456	0	0
2024-07-05 22:24:32			0	36981	0	0	0	26194	24790	147022	27144	1028743	43433	109700	0	0	8218	591538	0	0
2024-07-05 22:25:32			0	36985	0	0	0	26194	24780	147006	27301	1028699	43433	109700	0	0	8218	591408	0	0
2024-07-05 22:26:32			0	36989	0	0	0	26194	24800	147006	27358	1028725	43422	109700	0	0	8219	591178	0	0
2024-07-05 22:27:32			0	36981	0	0	0	26202	24790	147026	27163	1028770	43421	109703	0	0	8218	591538	0	0
2024-07-05 22:28:32			0	36997	0	0	0	26202	24790	147130	27405	1028824	43433	109703	0	0	8219	590884	0	0
2024-07-05 22:29:32			0	36979	0	0	0	26207	24780	147110	27173	1028726	43421	109705	0	0	8218	591653	0	0
2024-07-05 22:30:32			0	36986	0	0	0	26205	24800	147130	27072	1028752	43422	109704	0	0	8218	591300	0	0
2024-07-05 22:31:32			0	36984	0	0	0	26205	24790	147006	27156	1028717	43421	109704	0	0	8218	591416	0	0
2024-07-05 22:32:32			0	36984	0	0	0	26225	24810	147006	27336	1028823	43423	109712	0	0	8218	591349	0	0
2024-07-05 22:33:32			0	36975	0	0	0	26218	24810	147090	27339	1028823	43423	109709	0	0	8218	591716	0	0
2024-07-05 22:34:32			0	36987	0	0	0	26215	24800	147058	27433	1028788	43434	109708	0	0	8218	591260	0	0
2024-07-05 22:35:32			0	36971	0	0	0	26207	24810	147078	27362	1028778	43424	109705	0	0	8217	591880	0	0
2024-07-05 22:36:32			0	36979	0	0	0	26218	24800	146978	27443	1028734	43434	109709	0	0	8218	591586	0	0
2024-07-05 22:37:32			0	36993	0	0	0	26215	24810	146918	27235	1028770	43423	109708	0	0	8218	590981	0	0
2024-07-05 22:38:32			0	36986	0	0	0	26205	24800	146962	27339	1028761	43423	109704	0	0	8218	591300	0	0
2024-07-05 22:39:32			0	37007	0	0	0	26212	24800	146858	27369	1028779	43412	109707	0	0	8219	590443	0	0
2024-07-05 22:40:32			0	37010	0	0	0	26205	24800	146890	27350	1028814	43413	109704	0	0	8220	590321	0	0
2024-07-05 22:41:32			0	37009	0	0	0	26215	24810	146834	27149	1028823	43434	109708	0	0	8219	590328	0	0
2024-07-05 22:42:32			0	37006	0	0	0	26212	24800	146898	27455	1028841	43423	109707	0	0	8219	590484	0	0
2024-07-05 22:43:32			0	37004	0	0	0	26218	24800	146878	27376	1028814	43446	109709	0	0	8219	590565	0	0
2024-07-05 22:44:32			0	37007	0	0	0	26218	24810	146906	27254	1028823	43423	109709	0	0	8219	590409	0	0
2024-07-05 22:45:32			0	36998	0	0	0	26225	24810	146910	27497	1028770	43413	109712	0	0	8219	590777	0	0
2024-07-05 22:46:32			0	36994	0	0	0	26223	24810	146954	27441	1028805	43435	109711	0	0	8218	590940	0	0
2024-07-05 22:47:32			0	36992	0	0	0	26220	24810	146926	27275	1028797	43423	109710	0	0	8218	591022	0	0
2024-07-05 22:48:32			0	37000	0	0	0	26218	24810	146958	27452	1028823	43434	109709	0	0	8219	590695	0	0
2024-07-05 22:49:32			0	36973	0	0	0	26215	24810	147014	26946	1028770	43423	109708	0	0	8217	591798	0	0
2024-07-05 22:50:32			0	36993	0	0	0	26218	24810	146978	27154	1028770	43423	109709	0	0	8218	590981	0	0
2024-07-05 22:51:32			0	36997	0	0	0	26215	24800	147050	27357	1028788	43413	109708	0	0	8219	590851	0	0
2024-07-05 22:52:32			0	36974	0	0	0	26215	24800	147058	27280	1028788	43423	109708	0	0	8217	591791	0	0
2024-07-05 22:53:32			0	36992	0	0	0	26215	24800	146938	27396	1028814	43423	109708	0	0	8218	591055	0	0
2024-07-05 22:54:32			0	36993	0	0	0	26215	24800	147002	27029	1028814	43434	109708	0	0	8218	591014	0	0
2024-07-05 22:55:32			0	36978	0	0	0	26202	24810	146962	27261	1028823	43423	109703	0	0	8218	591594	0	0
2024-07-05 22:56:32			0	36993	0	0	0	26207	24800	146962	27351	1028788	43413	109705	0	0	8219	591014	0	0
2024-07-05 22:57:32			0	36983	0	0	0	26210	24800	146966	27138	1028734	43413	109706	0	0	8218	591423	0	0
2024-07-05 22:58:32			0	36994	0	0	0	26202	24800	146954	27253	1028779	43412	109703	0	0	8219	590974	0	0
2024-07-05 22:59:32			0	36980	0	0	0	26194	24800	146934	27400	1028752	43422	109700	0	0	8218	591545	0	0
2024-07-05 23:00:32			0	36988	0	0	0	26194	24800	146962	27410	1028752	43433	109700	0	0	8219	591219	0	0
2024-07-05 23:01:32			0	36990	0	0	0	26199	24790	146894	26955	1028717	43421	109702	0	0	8219	591170	0	0
2024-07-05 23:02:32			0	36999	0	0	0	26197	24800	146910	27204	1028725	43422	109701	0	0	8219	590769	0	0
2024-07-05 23:03:32			0	36978	0	0	0	26194	24780	146938	27104	1028673	43421	109700	0	0	8218	591694	0	0
2024-07-05 23:04:32			0	37009	0	0	0	26184	24790	146990	27008	1028654	43433	109696	0	0	8220	590395	0	0
2024-07-05 23:05:32			0	37009	0	0	0	26179	24780	146902	27199	1028699	43421	109694	0	0	8220	590428	0	0
2024-07-05 23:06:32			0	36999	0	0	0	26184	24780	146962	27083	1028699	43433	109696	0	0	8219	590836	0	0
2024-07-05 23:07:32			0	37008	0	0	0	26176	24780	147062	27216	1028584	43410	109693	0	0	8220	590469	0	0
2024-07-05 23:08:32			0	37002	0	0	0	26186	24780	147082	27412	1028592	43421	109697	0	0	8219	590714	0	0
2024-07-05 23:09:32			0	36997	0	0	0	26174	24780	146966	27453	1028699	43421	109692	0	0	8219	590918	0	0
2024-07-05 23:10:32			0	36991	0	0	0	26176	24770	146950	27310	1028628	43419	109693	0	0	8219	591196	0	0
2024-07-05 23:11:32			0	36995	0	0	0	26174	24780	146882	27415	1028664	43410	109692	0	0	8219	591000	0	0
2024-07-05 23:12:32			0	36983	0	0	0	26176	24780	146974	27185	1028584	43420	109693	0	0	8219	591490	0	0
2024-07-05 23:13:32			0	36996	0	0	0	26168	24770	146994	27334	1028628	43431	109690	0	0	8219	590992	0	0
2024-07-05 23:14:32			0	36977	0	0	0	26179	24770	146974	27319	1028575	43419	109694	0	0	8218	591769	0	0
2024-07-05 23:15:32			0	36988	0	0	0	26171	24770	147122	27199	1028566	43419	109691	0	0	8219	591319	0	0
2024-07-05 23:16:32			0	36991	0	0	0	26171	24770	147102	27241	1028628	43431	109691	0	0	8219	591196	0	0
2024-07-05 23:17:32			0	36959	0	0	0	26174	24770	147146	27360	1028593	43419	109692	0	0	8217	592505	0	0
2024-07-05 23:18:32			0	36953	0	0	0	26171	24770	147098	27332	1028602	43409	109691	0	0	8217	592750	0	0
2024-07-05 23:19:32			0	36977	0	0	0	26163	24770	147158	27175	1028646	43431	109688	0	0	8218	591769	0	0
2024-07-05 23:20:32			0	36960	0	0	0	26168	24760	147218	27500	1028611	43419	109690	0	0	8217	592497	0	0
2024-07-05 23:21:32			0	36948	0	0	0	26166	24770	147270	27317	1028620	43431	109689	0	0	8217	592955	0	0
2024-07-05 23:22:32			0	36943	0	0	0	26168	24760	147286	27415	1028638	43419	109690	0	0	8216	593193	0	0
2024-07-05 23:23:32			0	36924	0	0	0	26163	24770	147258	27291	1028593	43431	109688	0	0	8216	593938	0	0
2024-07-05 23:24:32			0	36914	0	0	0	26168	24760	147262	27223	1028558	43419	109690	0	0	8215	594381	0	0
2024-07-05 23:25:32			0	36900	0	0	0	26168	24760	147290	27390	1028549	43441	109690	0	0	8214	594955	0	0
2024-07-05 23:26:32			0	36915	0	0	0	26166	24760	147302	27326	1028576	43430	109689	0	0	8215	594340	0	0
2024-07-05 23:27:32			0	36907	0	0	0	26166	24760	147366	27227	1028558	43409	109689	0	0	8215	594668	0	0
2024-07-05 23:28:32			0	36916	0	0	0	26163	24770	147346	27097	1028566	43431	109688	0	0	8215	594265	0	0
2024-07-05 23:29:32			0	36926	0	0	0	26163	24760	147338	27142	1028576	43430	109688	0	0	8216	593889	0	0
2024-07-05 23:30:32			0	36916	0	0	0	26155	24750	147258	27322	1028540	43417	109685	0	0	8215	594333	0	0
2024-07-05 23:31:32			0	36931	0	0	0	26158	24750	147214	26975	1028487	43417	109686	0	0	8216	593718	0	0
2024-07-05 23:32:32			0	36939	0	0	0	26158	24750	147214	27235	1028540	43429	109686	0	0	8216	593390	0	0
2024-07-05 23:33:32			0	36936	0	0	0	26150	24740	147266	27218	1028523	43428	109683	0	0	8216	593547	0	0
2024-07-05 23:34:32			0	36949	0	0	0	26142	24750	147222	27305	1028487	43429	109680	0	0	8217	592981	0	0
2024-07-05 23:35:32			0	36944	0	0	0	26140	24750	147242	27173	1028513	43417	109679	0	0	8217	593186	0	0
2024-07-05 23:36:32			0	36937	0	0	0	26148	24750	147238	27469	1028531	43429	109682	0	0	8216	593472	0	0
2024-07-05 23:37:32			0	36956	0	0	0	26145	24740	147302	27078	1028523	43428	109681	0	0	8217	592728	0	0
2024-07-05 23:38:32			0	36965	0	0	0	26145	24740	147206	27370	1028523	43417	109681	0	0	8218	592360	0	0
2024-07-05 23:39:32			0	36948	0	0	0	26155	24740	147230	27183	1028496	43417	109685	0	0	8217	593055	0	0
2024-07-05 23:40:32			0	36962	0	0	0	26145	24740	147330	27267	1028550	43428	109681	0	0	8218	592482	0	0
2024-07-05 23:41:32			0	36970	0	0	0	26150	24750	147246	27365	1028585	43417	109683	0	0	8218	592122	0	0
2024-07-05 23:42:32			0	36928	0	0	0	26155	24760	147166	27109	1028602	43430	109685	0	0	8216	593807	0	0
2024-07-05 23:43:32			0	36936	0	0	0	26158	24750	147250	27086	1028585	43429	109686	0	0	8216	593513	0	0
2024-07-05 23:44:32			0	36887	0	0	0	26163	24750	147382	27076	1028620	43417	109688	0	0	8214	595522	0	0
2024-07-05 23:45:32			0	36894	0	0	0	26174	24750	147534	26913	1028558	43429	109692	0	0	8214	595235	0	0
2024-07-05 23:46:32			0	36885	0	0	0	26174	24760	147566	27421	1028611	43442	109692	0	0	8213	595571	0	0
2024-07-05 23:47:32			0	36853	0	0	0	26176	24770	147566	27211	1028593	43419	109693	0	0	8212	596852	0	0
2024-07-05 23:48:32			0	36847	0	0	0	26174	24760	147574	27069	1028576	43430	109692	0	0	8211	597132	0	0
2024-07-05 23:49:32			0	36841	0	0	0	26179	24770	147566	27301	1028646	43431	109694	0	0	8211	597345	0	0
2024-07-05 23:50:32			0	36859	0	0	0	26184	24760	147574	27144	1028584	43419	109696	0	0	8212	596639	0	0
2024-07-05 23:51:32			0	36853	0	0	0	26179	24770	147542	27306	1028620	43419	109694	0	0	8212	596852	0	0
2024-07-05 23:52:32			0	36867	0	0	0	26179	24760	147590	27398	1028638	43431	109694	0	0	8212	596310	0	0
2024-07-05 23:53:32			0	36868	0	0	0	26176	24760	147494	27164	1028638	43431	109693	0	0	8212	596269	0	0
2024-07-05 23:54:32			0	36878	0	0	0	26176	24760	147482	27569	1028602	43418	109693	0	0	8213	595858	0	0
2024-07-05 23:55:32			0	36893	0	0	0	26174	24760	147534	27265	1028602	43418	109692	0	0	8214	595242	0	0
2024-07-05 23:56:32			0	36902	0	0	0	26163	24760	147454	27171	1028576	43430	109688	0	0	8214	594873	0	0
2024-07-05 23:57:32			0	36942	0	0	0	26168	24760	147290	27237	1028558	43419	109690	0	0	8216	593234	0	0
2024-07-05 23:58:32			0	36962	0	0	0	26163	24760	147242	27147	1028558	43431	109688	0	0	8218	592415	0	0
2024-07-05 23:59:32			0	36977	0	0	0	26163	24760	147130	27327	1028584	43431	109688	0	0	8218	591802	0	0
2024-07-06 00:00:32			0	36993	0	0	0	26166	24750	147046	27279	1028567	43417	109689	0	0	8219	591182	0	0
2024-07-06 00:01:32			0	37024	0	0	0	26166	24750	146998	27235	1028558	43429	109689	0	0	8221	589916	0	0
2024-07-06 00:02:32			0	37044	0	0	0	26166	24760	146834	27462	1028558	43419	109689	0	0	8222	589068	0	0
2024-07-06 00:03:32			0	37034	0	0	0	26161	24750	146830	27178	1028567	43417	109687	0	0	8221	589509	0	0
2024-07-06 00:04:32			0	37052	0	0	0	26168	24760	146882	27528	1028576	43418	109690	0	0	8222	588742	0	0
2024-07-06 00:05:32			0	37059	0	0	0	26171	24760	146766	27303	1028584	43431	109691	0	0	8222	588457	0	0
2024-07-06 00:06:32			0	37094	0	0	0	26166	24750	146750	27320	1028594	43429	109689	0	0	8224	587066	0	0
2024-07-06 00:07:32			0	37084	0	0	0	26176	24750	146674	27509	1028612	43417	109693	0	0	8224	587472	0	0
2024-07-06 00:08:32			0	37098	0	0	0	26163	24750	146626	27421	1028567	43440	109688	0	0	8225	586903	0	0
2024-07-06 00:09:32			0	37111	0	0	0	26174	24750	146614	27277	1028594	43440	109692	0	0	8225	586375	0	0
2024-07-06 00:10:32			0	37105	0	0	0	26166	24750	146498	27142	1028594	43417	109689	0	0	8225	586619	0	0
2024-07-06 00:11:32			0	37160	0	0	0	26171	24760	146438	27561	1028584	43431	109691	0	0	8228	584353	0	0
2024-07-06 00:12:32			0	37133	0	0	0	26174	24760	146490	27171	1028558	43419	109692	0	0	8226	585448	0	0
2024-07-06 00:13:32			0	37151	0	0	0	26168	24750	146470	27483	1028558	43417	109690	0	0	8227	584751	0	0
2024-07-06 00:14:32			0	37155	0	0	0	26166	24750	146434	26875	1028540	43417	109689	0	0	8228	584589	0	0
2024-07-06 00:15:32			0	37142	0	0	0	26168	24750	146466	27277	1028531	43429	109690	0	0	8227	585116	0	0
2024-07-06 00:16:32			0	37167	0	0	0	26161	24750	146358	27175	1028513	43407	109687	0	0	8228	584103	0	0
2024-07-06 00:17:32			0	37177	0	0	0	26153	24750	146426	27661	1028585	43417	109684	0	0	8229	583698	0	0
2024-07-06 00:18:32			0	37183	0	0	0	26163	24750	146326	27213	1028540	43417	109688	0	0	8229	583455	0	0
2024-07-06 00:19:32			0	37189	0	0	0	26158	24750	146274	27111	1028513	43429	109686	0	0	8229	583212	0	0
2024-07-06 00:20:32			0	37179	0	0	0	26142	24750	146310	27390	1028531	43417	109680	0	0	8229	583617	0	0
2024-07-06 00:21:32			0	37196	0	0	0	26142	24740	146278	27334	1028461	43428	109680	0	0	8230	582961	0	0
2024-07-06 00:22:32			0	37187	0	0	0	26150	24730	146310	27322	1028497	43416	109683	0	0	8229	583359	0	0
2024-07-06 00:23:32			0	37172	0	0	0	26158	24750	146302	27105	1028478	43417	109686	0	0	8229	583900	0	0
2024-07-06 00:24:32			0	37186	0	0	0	26142	24730	146318	27460	1028505	43394	109680	0	0	8229	583399	0	0
2024-07-06 00:25:32			0	37192	0	0	0	26135	24740	146302	27294	1028487	43417	109677	0	0	8230	583123	0	0
2024-07-06 00:26:32			0	37191	0	0	0	26132	24740	146370	27464	1028380	43439	109676	0	0	8230	583164	0	0
2024-07-06 00:27:32			0	37188	0	0	0	26132	24730	146274	27270	1028390	43405	109676	0	0	8230	583318	0	0
2024-07-06 00:28:32			0	37198	0	0	0	26129	24730	146222	27147	1028372	43416	109675	0	0	8230	582913	0	0
2024-07-06 00:29:32			0	37197	0	0	0	26119	24720	146190	27310	1028399	43426	109671	0	0	8230	582987	0	0
2024-07-06 00:30:32			0	37216	0	0	0	26114	24710	146242	27156	1028328	43414	109669	0	0	8231	582251	0	0
2024-07-06 00:31:32			0	37223	0	0	0	26114	24720	146174	27107	1028319	43416	109669	0	0	8232	581935	0	0
2024-07-06 00:32:32			0	37236	0	0	0	26111	24720	146158	27119	1028372	43416	109668	0	0	8233	581410	0	0
2024-07-06 00:33:32			0	37234	0	0	0	26103	24700	146138	27027	1028373	43402	109665	0	0	8232	581556	0	0
2024-07-06 00:34:32			0	37239	0	0	0	26106	24710	146174	27440	1028355	43402	109666	0	0	8233	581322	0	0
2024-07-06 00:35:32			0	37231	0	0	0	26103	24700	146198	27256	1028400	43424	109665	0	0	8232	581678	0	0
2024-07-06 00:36:32			0	37220	0	0	0	26106	24720	146146	27057	1028399	43416	109666	0	0	8232	582056	0	0
2024-07-06 00:37:32			0	37230	0	0	0	26103	24710	146082	26998	1028382	43424	109665	0	0	8232	581685	0	0
2024-07-06 00:38:32			0	37240	0	0	0	26109	24700	146198	27284	1028311	43435	109667	0	0	8233	581314	0	0
2024-07-06 00:39:32			0	37220	0	0	0	26109	24700	146246	27286	1028293	43435	109667	0	0	8232	582122	0	0
2024-07-06 00:40:32			0	37208	0	0	0	26106	24700	146298	27419	1028284	43424	109666	0	0	8231	582608	0	0
2024-07-06 00:41:32			0	37200	0	0	0	26103	24700	146334	27109	1028320	43414	109665	0	0	8231	582931	0	0
2024-07-06 00:42:32			0	37191	0	0	0	26101	24700	146362	27208	1028373	43424	109664	0	0	8230	583296	0	0
2024-07-06 00:43:32			0	37178	0	0	0	26098	24700	146418	27211	1028311	43424	109663	0	0	8230	583822	0	0
2024-07-06 00:44:32			0	37156	0	0	0	26109	24690	146446	27163	1028275	43423	109667	0	0	8228	584747	0	0
2024-07-06 00:45:32			0	37148	0	0	0	26106	24690	146474	27090	1028356	43413	109666	0	0	8228	585072	0	0
2024-07-06 00:46:32			0	37150	0	0	0	26106	24700	146490	27154	1028338	43414	109666	0	0	8228	584957	0	0
2024-07-06 00:47:32			0	37133	0	0	0	26101	24690	146546	27327	1028320	43412	109664	0	0	8227	585680	0	0
2024-07-06 00:48:32			0	37126	0	0	0	26101	24690	146550	27185	1028302	43434	109664	0	0	8227	585965	0	0
2024-07-06 00:49:32			0	37123	0	0	0	26109	24690	146554	26852	1028240	43422	109667	0	0	8227	586086	0	0
2024-07-06 00:50:32			0	37124	0	0	0	26096	24690	146710	27270	1028267	43422	109662	0	0	8227	586046	0	0
2024-07-06 00:51:32			0	37127	0	0	0	26093	24690	146670	27346	1028293	43422	109661	0	0	8227	585924	0	0
2024-07-06 00:52:32			0	37132	0	0	0	26101	24690	146674	27166	1028213	43422	109664	0	0	8227	585721	0	0
2024-07-06 00:53:32			0	37140	0	0	0	26093	24690	146570	27171	1028302	43423	109661	0	0	8228	585396	0	0
2024-07-06 00:54:32			0	37153	0	0	0	26093	24690	146482	27398	1028293	43412	109661	0	0	8228	584869	0	0
2024-07-06 00:55:32			0	37156	0	0	0	26103	24680	146506	27152	1028312	43422	109665	0	0	8228	584780	0	0
2024-07-06 00:56:32			0	37155	0	0	0	26101	24680	146522	27424	1028222	43433	109664	0	0	8228	584821	0	0
2024-07-06 00:57:32			0	37164	0	0	0	26096	24690	146526	27341	1028293	43422	109662	0	0	8229	584423	0	0
2024-07-06 00:58:32			0	37169	0	0	0	26090	24690	146438	27206	1028213	43422	109660	0	0	8229	584220	0	0
2024-07-06 00:59:32			0	37148	0	0	0	26083	24680	146438	27137	1028231	43412	109657	0	0	8228	585105	0	0
2024-07-06 01:00:32			0	37171	0	0	0	26093	24680	146534	27196	1028285	43412	109661	0	0	8229	584172	0	0
2024-07-06 01:01:32			0	37161	0	0	0	26101	24680	146530	26982	1028276	43421	109664	0	0	8229	584577	0	0
2024-07-06 01:02:32			0	37152	0	0	0	26093	24680	146486	27229	1028249	43411	109661	0	0	8228	584942	0	0
2024-07-06 01:03:32			0	37141	0	0	0	26098	24690	146562	27374	1028275	43434	109663	0	0	8228	585356	0	0
2024-07-06 01:04:32			0	37126	0	0	0	26096	24680	146598	27019	1028312	43422	109662	0	0	8227	585998	0	0
2024-07-06 01:05:32			0	37144	0	0	0	26096	24690	146518	27182	1028329	43423	109662	0	0	8228	585234	0	0
2024-07-06 01:06:32			0	37117	0	0	0	26093	24690	146702	27249	1028293	43422	109661	0	0	8227	586330	0	0
2024-07-06 01:07:32			0	37096	0	0	0	26101	24680	146610	27275	1028249	43421	109664	0	0	8225	587217	0	0
2024-07-06 01:08:32			0	37134	0	0	0	26101	24690	146506	27078	1028240	43422	109664	0	0	8227	585640	0	0
2024-07-06 01:09:32			0	37093	0	0	0	26109	24690	146594	27118	1028275	43423	109667	0	0	8225	587306	0	0
2024-07-06 01:10:32			0	37122	0	0	0	26103	24690	146630	27175	1028347	43422	109665	0	0	8227	586127	0	0
2024-07-06 01:11:32			0	37123	0	0	0	26103	24690	146582	27062	1028275	43413	109665	0	0	8227	586086	0	0
2024-07-06 01:12:32			0	37114	0	0	0	26114	24690	146602	27249	1028347	43422	109669	0	0	8226	586452	0	0
2024-07-06 01:13:32			0	37090	0	0	0	26111	24690	146594	27407	1028347	43422	109668	0	0	8225	587428	0	0
2024-07-06 01:14:32			0	37093	0	0	0	26119	24690	146630	27417	1028293	43412	109671	0	0	8225	587306	0	0
2024-07-06 01:15:32			0	37067	0	0	0	26114	24690	146646	27251	1028302	43423	109669	0	0	8224	588364	0	0
2024-07-06 01:16:32			0	37080	0	0	0	26111	24690	146758	27298	1028329	43423	109668	0	0	8224	587835	0	0
2024-07-06 01:17:32			0	37089	0	0	0	26114	24700	146658	27215	1028373	43424	109669	0	0	8225	587435	0	0
2024-07-06 01:18:32			0	37074	0	0	0	26119	24690	146662	27209	1028356	43423	109671	0	0	8224	588079	0	0
2024-07-06 01:19:32			0	37081	0	0	0	26116	24700	146662	27095	1028400	43424	109670	0	0	8224	587761	0	0
2024-07-06 01:20:32			0	37096	0	0	0	26122	24700	146606	27274	1028338	43424	109672	0	0	8225	587151	0	0
2024-07-06 01:21:32			0	37114	0	0	0	26111	24700	146646	27057	1028338	43424	109668	0	0	8226	586419	0	0
2024-07-06 01:22:32			0	37107	0	0	0	26114	24700	146578	27116	1028373	43414	109669	0	0	8226	586703	0	0
2024-07-06 01:23:32			0	37127	0	0	0	26122	24700	146610	27220	1028311	43424	109672	0	0	8227	585891	0	0
2024-07-06 01:24:32			0	37125	0	0	0	26111	24700	146506	27053	1028400	43435	109668	0	0	8227	585972	0	0
2024-07-06 01:25:32			0	37149	0	0	0	26116	24690	146458	27434	1028409	43423	109670	0	0	8228	585031	0	0
2024-07-06 01:26:32			0	37159	0	0	0	26122	24700	146346	27270	1028391	43424	109672	0	0	8228	584592	0	0
2024-07-06 01:27:32			0	37157	0	0	0	26116	24690	146346	27320	1028382	43413	109670	0	0	8228	584707	0	0
2024-07-06 01:28:32			0	37186	0	0	0	26111	24700	146302	27369	1028364	43402	109668	0	0	8230	583498	0	0
2024-07-06 01:29:32			0	37191	0	0	0	26103	24700	146226	27287	1028311	43414	109665	0	0	8230	583296	0	0
2024-07-06 01:30:32			0	37200	0	0	0	26114	24700	146118	27128	1028284	43402	109669	0	0	8231	582931	0	0
2024-07-06 01:31:32			0	37221	0	0	0	26096	24700	146102	27211	1028364	43424	109662	0	0	8232	582082	0	0
2024-07-06 01:32:32			0	37216	0	0	0	26093	24690	146046	27249	1028329	43423	109661	0	0	8232	582317	0	0
2024-07-06 01:33:32			0	37241	0	0	0	26101	24690	146018	27194	1028320	43412	109664	0	0	8233	581307	0	0
2024-07-06 01:34:32			0	37239	0	0	0	26098	24690	146054	27267	1028293	43422	109663	0	0	8233	581387	0	0
2024-07-06 01:35:32			0	37253	0	0	0	26098	24690	145906	27753	1028267	43422	109663	0	0	8233	580822	0	0
2024-07-06 01:36:32			0	37263	0	0	0	26098	24690	146018	27480	1028275	43413	109663	0	0	8234	580418	0	0
2024-07-06 01:37:32			0	37260	0	0	0	26098	24680	145938	27196	1028285	43412	109663	0	0	8234	580572	0	0
2024-07-06 01:38:32			0	37279	0	0	0	26101	24680	145926	26913	1028285	43434	109664	0	0	8235	579806	0	0
2024-07-06 01:39:32			0	37279	0	0	0	26093	24690	145946	27407	1028347	43422	109661	0	0	8235	579773	0	0
2024-07-06 01:40:32			0	37303	0	0	0	26096	24690	145858	27289	1028249	43434	109662	0	0	8236	578805	0	0
2024-07-06 01:41:32			0	37280	0	0	0	26101	24690	145802	27225	1028302	43413	109664	0	0	8235	579732	0	0
2024-07-06 01:42:32			0	37296	0	0	0	26093	24680	145870	27324	1028285	43422	109661	0	0	8236	579120	0	0
2024-07-06 01:43:32			0	37326	0	0	0	26088	24690	145839	27462	1028302	43413	109659	0	0	8237	577879	0	0
2024-07-06 01:44:32			0	37308	0	0	0	26090	24690	145742	27324	1028267	43422	109660	0	0	8236	578604	0	0
2024-07-06 01:45:32			0	37327	0	0	0	26083	24680	145703	27320	1028285	43422	109657	0	0	8238	577872	0	0
2024-07-06 01:46:32			0	37336	0	0	0	26088	24670	145735	27336	1028214	43421	109659	0	0	8238	577543	0	0
2024-07-06 01:47:32			0	37315	0	0	0	26083	24680	145710	27568	1028222	43433	109657	0	0	8237	578355	0	0
2024-07-06 01:48:32			0	37324	0	0	0	26085	24680	145759	27237	1028249	43411	109658	0	0	8237	577993	0	0
2024-07-06 01:49:32			0	37331	0	0	0	26075	24680	145659	26960	1028142	43421	109654	0	0	8238	577711	0	0
2024-07-06 01:50:32			0	37344	0	0	0	26077	24670	145659	27216	1028187	43421	109655	0	0	8238	577221	0	0
2024-07-06 01:51:32			0	37320	0	0	0	26075	24670	145619	27364	1028214	43411	109654	0	0	8237	578186	0	0
2024-07-06 01:52:32			0	37325	0	0	0	26070	24670	145675	27293	1028267	43411	109652	0	0	8238	577985	0	0
2024-07-06 01:53:32			0	37332	0	0	0	26077	24670	145579	27046	1028232	43410	109655	0	0	8238	577703	0	0
2024-07-06 01:54:32			0	37344	0	0	0	26070	24660	145671	27289	1028196	43432	109652	0	0	8239	577253	0	0
2024-07-06 01:55:32			0	37355	0	0	0	26070	24670	145739	26934	1028160	43421	109652	0	0	8239	576779	0	0
2024-07-06 01:56:32			0	37315	0	0	0	26062	24670	145690	27090	1028151	43420	109649	0	0	8237	578388	0	0
2024-07-06 01:57:32			0	37322	0	0	0	26062	24660	145651	27232	1028196	43410	109649	0	0	8238	578139	0	0
2024-07-06 01:58:32			0	37322	0	0	0	26059	24670	145707	27213	1028178	43410	109648	0	0	8238	578106	0	0
2024-07-06 01:59:32			0	37316	0	0	0	26067	24660	145670	27370	1028107	43398	109651	0	0	8237	578380	0	0
2024-07-06 02:00:32			0	37327	0	0	0	26057	24660	145763	27296	1028241	43442	109647	0	0	8238	577937	0	0
2024-07-06 02:01:32			0	37333	0	0	0	26059	24660	145695	27114	1028188	43409	109648	0	0	8238	577696	0	0
2024-07-06 02:02:32			0	37318	0	0	0	26054	24660	145719	26889	1028134	43398	109646	0	0	8237	578300	0	0
2024-07-06 02:03:32			0	37318	0	0	0	26057	24640	145723	27332	1028108	43408	109647	0	0	8237	578365	0	0
2024-07-06 02:04:32			0	37304	0	0	0	26054	24640	145762	27369	1028135	43418	109646	0	0	8237	578929	0	0
2024-07-06 02:05:32			0	37317	0	0	0	26046	24660	145755	27083	1028161	43431	109643	0	0	8238	578340	0	0
2024-07-06 02:06:32			0	37309	0	0	0	26051	24640	145746	27197	1028081	43408	109645	0	0	8237	578728	0	0
2024-07-06 02:07:32			0	37302	0	0	0	26041	24650	145838	27225	1028063	43408	109641	0	0	8237	578977	0	0
2024-07-06 02:08:32			0	37300	0	0	0	26051	24640	145866	27281	1028055	43430	109645	0	0	8237	579090	0	0
2024-07-06 02:09:32			0	37294	0	0	0	26038	24640	145830	27261	1028073	43407	109640	0	0	8236	579332	0	0
2024-07-06 02:10:32			0	37282	0	0	0	26031	24650	145826	27203	1028090	43418	109637	0	0	8236	579783	0	0
2024-07-06 02:11:32			0	37287	0	0	0	26044	24640	145814	26922	1028019	43407	109642	0	0	8236	579614	0	0
2024-07-06 02:12:32			0	37279	0	0	0	26033	24640	145826	26760	1028019	43429	109638	0	0	8236	579937	0	0
2024-07-06 02:13:32			0	37288	0	0	0	26031	24630	145830	27053	1027957	43417	109637	0	0	8236	579607	0	0
2024-07-06 02:14:32			0	37292	0	0	0	26033	24630	145818	27260	1027975	43417	109638	0	0	8236	579445	0	0
2024-07-06 02:15:32			0	37296	0	0	0	26020	24620	145726	27255	1027993	43406	109633	0	0	8237	579317	0	0
2024-07-06 02:16:32			0	37287	0	0	0	26012	24620	145786	27102	1027993	43406	109630	0	0	8236	579680	0	0
2024-07-06 02:17:32			0	37279	0	0	0	26007	24630	145850	26812	1027984	43417	109628	0	0	8236	579970	0	0
2024-07-06 02:18:32			0	37283	0	0	0	26010	24610	145938	26970	1027949	43416	109629	0	0	8236	579874	0	0
2024-07-06 02:19:32			0	37282	0	0	0	25999	24620	145930	26982	1027851	43427	109625	0	0	8236	579881	0	0
2024-07-06 02:20:32			0	37270	0	0	0	26005	24610	145970	27055	1027922	43426	109627	0	0	8236	580398	0	0
2024-07-06 02:21:32			0	37256	0	0	0	26010	24610	145970	26975	1027922	43404	109629	0	0	8235	580964	0	0
2024-07-06 02:22:32			0	37264	0	0	0	26002	24620	146102	27381	1027931	43416	109626	0	0	8235	580608	0	0
2024-07-06 02:23:32			0	37238	0	0	0	25994	24600	146094	27331	1027913	43426	109623	0	0	8234	581724	0	0
2024-07-06 02:24:32			0	37250	0	0	0	25999	24600	145998	27294	1027860	43404	109625	0	0	8235	581239	0	0
2024-07-06 02:25:32			0	37246	0	0	0	25997	24600	146118	27098	1027878	43403	109624	0	0	8234	581401	0	0
2024-07-06 02:26:32			0	37236	0	0	0	25984	24590	146142	27300	1027843	43415	109619	0	0	8234	581838	0	0
2024-07-06 02:27:32			0	37241	0	0	0	25989	24590	146070	27272	1027843	43415	109621	0	0	8234	581636	0	0
2024-07-06 02:28:32			0	37219	0	0	0	25989	24590	146170	27145	1027914	43424	109621	0	0	8233	582525	0	0
2024-07-06 02:29:32			0	37226	0	0	0	25994	24590	146126	27481	1027896	43415	109623	0	0	8233	582242	0	0
2024-07-06 02:30:32			0	37220	0	0	0	25994	24600	146230	27267	1027887	43437	109623	0	0	8233	582452	0	0
2024-07-06 02:31:32			0	37222	0	0	0	25994	24590	146178	27329	1027861	43414	109623	0	0	8233	582404	0	0
2024-07-06 02:32:32			0	37197	0	0	0	25997	24590	146274	27147	1027843	43415	109624	0	0	8232	583416	0	0
2024-07-06 02:33:32			0	37183	0	0	0	25989	24580	146302	27315	1027843	43413	109621	0	0	8231	584016	0	0
2024-07-06 02:34:32			0	37193	0	0	0	25984	24590	146370	27206	1027834	43402	109619	0	0	8232	583578	0	0
2024-07-06 02:35:32			0	37172	0	0	0	25979	24590	146398	27490	1027861	43402	109617	0	0	8231	584429	0	0
2024-07-06 02:36:32			0	37175	0	0	0	25986	24590	146430	27100	1027807	43402	109620	0	0	8231	584307	0	0
2024-07-06 02:37:32			0	37169	0	0	0	25986	24590	146430	26970	1027780	43435	109620	0	0	8231	584551	0	0
2024-07-06 02:38:32			0	37183	0	0	0	25992	24590	146482	27244	1027807	43414	109622	0	0	8231	583983	0	0
2024-07-06 02:39:32			0	37156	0	0	0	25989	24580	146442	27204	1027799	43414	109621	0	0	8230	585111	0	0
2024-07-06 02:40:32			0	37159	0	0	0	25989	24590	146494	27154	1027807	43414	109621	0	0	8230	584956	0	0
2024-07-06 02:41:32			0	37148	0	0	0	25989	24580	146422	27076	1027825	43414	109621	0	0	8229	585436	0	0
2024-07-06 02:42:32			0	37182	0	0	0	25986	24580	146470	27177	1027825	43414	109620	0	0	8231	584057	0	0
2024-07-06 02:43:32			0	37148	0	0	0	25984	24580	146526	27190	1027817	43435	109619	0	0	8229	585436	0	0
2024-07-06 02:44:32			0	37129	0	0	0	25989	24580	146438	27130	1027817	43423	109621	0	0	8228	586207	0	0
2024-07-06 02:45:32			0	37140	0	0	0	25984	24570	146510	27161	1027781	43423	109619	0	0	8229	585794	0	0
2024-07-06 02:46:32			0	37147	0	0	0	25981	24580	146510	26967	1027790	43413	109618	0	0	8229	585476	0	0
2024-07-06 02:47:32			0	37142	0	0	0	25976	24580	146494	27123	1027763	43413	109616	0	0	8229	585680	0	0
2024-07-06 02:48:32			0	37130	0	0	0	25971	24570	146466	27119	1027701	43402	109614	0	0	8229	586200	0	0
2024-07-06 02:49:32			0	37147	0	0	0	25966	24560	146482	27138	1027684	43411	109612	0	0	8230	585543	0	0
2024-07-06 02:50:32			0	37138	0	0	0	25968	24560	146538	27294	1027684	43411	109613	0	0	8229	585908	0	0
2024-07-06 02:51:32			0	37140	0	0	0	25961	24560	146498	27268	1027621	43411	109610	0	0	8229	585827	0	0
2024-07-06 02:52:32			0	37139	0	0	0	25953	24560	146506	27310	1027728	43400	109607	0	0	8229	585868	0	0
2024-07-06 02:53:32			0	37138	0	0	0	25955	24550	146514	27396	1027746	43421	109608	0	0	8229	585941	0	0
2024-07-06 02:54:32			0	37144	0	0	0	25955	24560	146446	27261	1027684	43388	109608	0	0	8230	585664	0	0
2024-07-06 02:55:32			0	37129	0	0	0	25948	24550	146462	27514	1027666	43400	109605	0	0	8229	586307	0	0
2024-07-06 02:56:32			0	37138	0	0	0	25950	24560	146410	27246	1027675	43400	109606	0	0	8229	585908	0	0
2024-07-06 02:57:32			0	37137	0	0	0	25950	24550	146530	27060	1027684	43410	109606	0	0	8229	585982	0	0
2024-07-06 02:58:32			0	37122	0	0	0	25945	24550	146494	27358	1027666	43411	109604	0	0	8229	586592	0	0
2024-07-06 02:59:32			0	37135	0	0	0	25948	24560	146526	27443	1027702	43400	109605	0	0	8229	586030	0	0
2024-07-06 03:00:32			0	37128	0	0	0	25945	24540	146450	27287	1027649	43409	109604	0	0	8229	586381	0	0
2024-07-06 03:01:32			0	37119	0	0	0	25948	24550	146562	27209	1027630	43420	109605	0	0	8228	586714	0	0
2024-07-06 03:02:32			0	37128	0	0	0	25940	24540	146618	27428	1027595	43398	109602	0	0	8229	586381	0	0
2024-07-06 03:03:32			0	37121	0	0	0	25945	24540	146542	27178	1027595	43386	109604	0	0	8229	586665	0	0
2024-07-06 03:04:32			0	37120	0	0	0	25942	24540	146550	26963	1027675	43419	109603	0	0	8229	586706	0	0
2024-07-06 03:05:32			0	37090	0	0	0	25937	24550	146602	27050	1027711	43410	109601	0	0	8227	587893	0	0
2024-07-06 03:06:32			0	37108	0	0	0	25940	24540	146698	26876	1027568	43419	109602	0	0	8228	587194	0	0
2024-07-06 03:07:32			0	37091	0	0	0	25935	24540	146714	27102	1027613	43386	109600	0	0	8227	587886	0	0
2024-07-06 03:08:32			0	37095	0	0	0	25935	24540	146690	27248	1027541	43398	109600	0	0	8227	587723	0	0
2024-07-06 03:09:32			0	37087	0	0	0	25935	24540	146678	27255	1027595	43409	109600	0	0	8227	588049	0	0
2024-07-06 03:10:32			0	37091	0	0	0	25940	24530	146738	27253	1027622	43418	109602	0	0	8227	587919	0	0
2024-07-06 03:11:32			0	37066	0	0	0	25935	24530	146794	27116	1027542	43408	109600	0	0	8226	588937	0	0
2024-07-06 03:12:32			0	37072	0	0	0	25924	24530	146814	27088	1027515	43408	109596	0	0	8226	588693	0	0
2024-07-06 03:13:32			0	37054	0	0	0	25929	24520	146842	26868	1027534	43396	109598	0	0	8225	589460	0	0
2024-07-06 03:14:32			0	37062	0	0	0	25924	24530	146814	27201	1027569	43408	109596	0	0	8226	589101	0	0
2024-07-06 03:15:32			0	37052	0	0	0	25935	24530	146830	26915	1027622	43408	109600	0	0	8225	589508	0	0
2024-07-06 03:16:32			0	37025	0	0	0	25927	24520	147010	27078	1027560	43407	109597	0	0	8224	590644	0	0
2024-07-06 03:17:32			0	37050	0	0	0	25935	24530	146998	27326	1027542	43408	109600	0	0	8225	589590	0	0
2024-07-06 03:18:32			0	37044	0	0	0	25932	24530	147026	27187	1027604	43409	109599	0	0	8225	589835	0	0
2024-07-06 03:19:32			0	37018	0	0	0	25935	24530	147102	27345	1027551	43409	109600	0	0	8223	590896	0	0
2024-07-06 03:20:32			0	37012	0	0	0	25929	24530	147038	27331	1027515	43418	109598	0	0	8223	591141	0	0
2024-07-06 03:21:32			0	37001	0	0	0	25929	24530	147086	27434	1027604	43419	109598	0	0	8223	591591	0	0
2024-07-06 03:22:32			0	37006	0	0	0	25924	24530	147214	27338	1027604	43409	109596	0	0	8223	591387	0	0
2024-07-06 03:23:32			0	36987	0	0	0	25922	24520	147098	27248	1027498	43396	109595	0	0	8222	592197	0	0
2024-07-06 03:24:32			0	36979	0	0	0	25929	24510	147070	27180	1027543	43428	109598	0	0	8221	592558	0	0
2024-07-06 03:25:32			0	36967	0	0	0	25927	24510	147154	26797	1027481	43417	109597	0	0	8221	593049	0	0
2024-07-06 03:26:32			0	36955	0	0	0	25924	24520	147266	26790	1027560	43407	109596	0	0	8220	593507	0	0
2024-07-06 03:27:32			0	36967	0	0	0	25919	24520	147202	27060	1027560	43407	109594	0	0	8221	593016	0	0
2024-07-06 03:28:32			0	36943	0	0	0	25916	24520	147214	27391	1027534	43407	109593	0	0	8220	593999	0	0
2024-07-06 03:29:32			0	36943	0	0	0	25919	24530	147342	26871	1027515	43397	109594	0	0	8220	593966	0	0
2024-07-06 03:30:32			0	36943	0	0	0	25916	24510	147358	27261	1027489	43417	109593	0	0	8220	594033	0	0
2024-07-06 03:31:32			0	36921	0	0	0	25914	24510	147402	27111	1027427	43417	109592	0	0	8219	594935	0	0
2024-07-06 03:32:32			0	36921	0	0	0	25911	24520	147322	27147	1027498	43407	109591	0	0	8219	594901	0	0
2024-07-06 03:33:32			0	36898	0	0	0	25914	24520	147486	26923	1027453	43407	109592	0	0	8217	595846	0	0
2024-07-06 03:34:32			0	36900	0	0	0	25909	24510	147402	26967	1027489	43406	109590	0	0	8218	595797	0	0
2024-07-06 03:35:32			0	36877	0	0	0	25901	24510	147442	26928	1027489	43428	109587	0	0	8216	596743	0	0
2024-07-06 03:36:32			0	36897	0	0	0	25898	24510	147522	26989	1027427	43395	109586	0	0	8218	595921	0	0
2024-07-06 03:37:32			0	36878	0	0	0	25906	24510	147574	27177	1027436	43406	109589	0	0	8216	596702	0	0
2024-07-06 03:38:32			0	36878	0	0	0	25890	24510	147566	27201	1027436	43395	109583	0	0	8217	596702	0	0
2024-07-06 03:39:32			0	36868	0	0	0	25888	24500	147566	27229	1027338	43416	109582	0	0	8216	597147	0	0
2024-07-06 03:40:32			0	36878	0	0	0	25893	24500	147682	27312	1027410	43404	109584	0	0	8217	596735	0	0
2024-07-06 03:41:32			0	36883	0	0	0	25898	24500	147678	26816	1027392	43405	109586	0	0	8217	596530	0	0
2024-07-06 03:42:32			0	36847	0	0	0	25898	24500	147650	27215	1027383	43404	109586	0	0	8215	598011	0	0
2024-07-06 03:43:32			0	36862	0	0	0	25896	24490	147718	26998	1027401	43393	109585	0	0	8216	597427	0	0
2024-07-06 03:44:32			0	36838	0	0	0	25893	24500	147758	27163	1027330	43404	109584	0	0	8215	598382	0	0
2024-07-06 03:45:32			0	36837	0	0	0	25890	24480	147814	27050	1027384	43415	109583	0	0	8214	598491	0	0
2024-07-06 03:46:32			0	36820	0	0	0	25893	24490	147886	27377	1027401	43404	109584	0	0	8214	599158	0	0
2024-07-06 03:47:32			0	36811	0	0	0	25896	24500	147882	27272	1027410	43393	109585	0	0	8213	599495	0	0
2024-07-06 03:48:32			0	36815	0	0	0	25893	24490	147894	27111	1027375	43404	109584	0	0	8213	599364	0	0
2024-07-06 03:49:32			0	36785	0	0	0	25888	24490	147946	27315	1027321	43404	109582	0	0	8212	600602	0	0
2024-07-06 03:50:32			0	36790	0	0	0	25888	24500	147950	27313	1027330	43404	109582	0	0	8212	600362	0	0
2024-07-06 03:51:32			0	36796	0	0	0	25875	24490	147918	27060	1027339	43404	109577	0	0	8213	600148	0	0
2024-07-06 03:52:32			0	36800	0	0	0	25880	24490	147950	27173	1027366	43416	109579	0	0	8213	599983	0	0
2024-07-06 03:53:32			0	36782	0	0	0	25875	24480	147954	27298	1027330	43403	109577	0	0	8212	600760	0	0
2024-07-06 03:54:32			0	36784	0	0	0	25872	24480	147918	27177	1027375	43403	109576	0	0	8212	600678	0	0
2024-07-06 03:55:32			0	36789	0	0	0	25867	24480	147994	27282	1027322	43403	109574	0	0	8212	600471	0	0
2024-07-06 03:56:32			0	36754	0	0	0	25864	24470	148042	27486	1027251	43391	109573	0	0	8210	601952	0	0
2024-07-06 03:57:32			0	36771	0	0	0	25864	24470	148018	27293	1027313	43414	109573	0	0	8211	601249	0	0
2024-07-06 03:58:32			0	36755	0	0	0	25859	24470	148006	27020	1027233	43403	109571	0	0	8211	601910	0	0
2024-07-06 03:59:32			0	36754	0	0	0	25854	24470	148130	27204	1027286	43403	109569	0	0	8211	601952	0	0
2024-07-06 04:00:32			0	36756	0	0	0	25849	24460	148082	27296	1027269	43413	109567	0	0	8211	601903	0	0
2024-07-06 04:01:32			0	36758	0	0	0	25844	24460	148102	27183	1027162	43402	109565	0	0	8211	601820	0	0
2024-07-06 04:02:32			0	36762	0	0	0	25841	24460	148066	27473	1027127	43401	109564	0	0	8211	601655	0	0
2024-07-06 04:03:32			0	36741	0	0	0	25841	24460	148182	27324	1027189	43402	109564	0	0	8210	602524	0	0
2024-07-06 04:04:32			0	36736	0	0	0	25841	24450	148142	27137	1027171	43389	109564	0	0	8210	602765	0	0
2024-07-06 04:05:32			0	36741	0	0	0	25844	24450	148202	27305	1027171	43412	109565	0	0	8210	602558	0	0
2024-07-06 04:06:32			0	36751	0	0	0	25849	24440	148174	26982	1027154	43400	109567	0	0	8210	602178	0	0
2024-07-06 04:07:32			0	36742	0	0	0	25841	24450	148246	27260	1027198	43389	109564	0	0	8210	602516	0	0
2024-07-06 04:08:32			0	36759	0	0	0	25841	24450	148282	27289	1027136	43401	109564	0	0	8211	601813	0	0
2024-07-06 04:09:32			0	36719	0	0	0	25849	24450	148318	27038	1027198	43401	109567	0	0	8209	603469	0	0
2024-07-06 04:10:32			0	36722	0	0	0	25844	24450	148150	27312	1027163	43412	109565	0	0	8209	603345	0	0
2024-07-06 04:11:32			0	36711	0	0	0	25844	24450	148182	27495	1027136	43412	109565	0	0	8208	603801	0	0
2024-07-06 04:12:32			0	36716	0	0	0	25849	24450	148242	27350	1027189	43401	109567	0	0	8209	603594	0	0
2024-07-06 04:13:32			0	36687	0	0	0	25846	24450	148318	27107	1027163	43401	109566	0	0	8207	604796	0	0
2024-07-06 04:14:32			0	36687	0	0	0	25849	24450	148450	27234	1027189	43412	109567	0	0	8207	604796	0	0
2024-07-06 04:15:32			0	36690	0	0	0	25854	24450	148394	27306	1027198	43412	109569	0	0	8207	604672	0	0
2024-07-06 04:16:32			0	36675	0	0	0	25854	24440	148410	27140	1027154	43411	109569	0	0	8206	605329	0	0
2024-07-06 04:17:32			0	36666	0	0	0	25846	24450	148426	27050	1027225	43412	109566	0	0	8206	605668	0	0
2024-07-06 04:18:32			0	36668	0	0	0	25854	24440	148490	27434	1027154	43400	109569	0	0	8206	605620	0	0
2024-07-06 04:19:32			0	36659	0	0	0	25838	24450	148490	27322	1027136	43401	109563	0	0	8206	605959	0	0
2024-07-06 04:20:32			0	36650	0	0	0	25857	24450	148518	27353	1027189	43401	109570	0	0	8205	606333	0	0
2024-07-06 04:21:32			0	36648	0	0	0	25841	24450	148490	27074	1027216	43422	109564	0	0	8205	606417	0	0
2024-07-06 04:22:32			0	36651	0	0	0	25859	24450	148570	27131	1027332	43412	109571	0	0	8205	606292	0	0
2024-07-06 04:23:32			0	36612	0	0	0	25854	24460	148546	27242	1027234	43401	109569	0	0	8203	607880	0	0
2024-07-06 04:24:32			0	36620	0	0	0	25859	24450	148682	26866	1027243	43412	109571	0	0	8203	607582	0	0
2024-07-06 04:25:32			0	36613	0	0	0	25857	24450	148638	27306	1027189	43412	109570	0	0	8203	607873	0	0
2024-07-06 04:26:32			0	36592	0	0	0	25854	24450	148613	27185	1027270	43412	109569	0	0	8202	608748	0	0
2024-07-06 04:27:32			0	36601	0	0	0	25859	24460	148710	27326	1027242	43390	109571	0	0	8203	608339	0	0
2024-07-06 04:28:32			0	36598	0	0	0	25859	24460	148789	27150	1027260	43401	109571	0	0	8202	608464	0	0
2024-07-06 04:29:32			0	36589	0	0	0	25851	24460	148737	27265	1027180	43412	109568	0	0	8202	608839	0	0
2024-07-06 04:30:32			0	36593	0	0	0	25857	24450	148761	27372	1027270	43401	109570	0	0	8202	608707	0	0
2024-07-06 04:31:32			0	36594	0	0	0	25849	24450	148746	27098	1027163	43401	109567	0	0	8202	608665	0	0
2024-07-06 04:32:32			0	36607	0	0	0	25854	24450	148798	27377	1027198	43389	109569	0	0	8203	608123	0	0
2024-07-06 04:33:32			0	36583	0	0	0	25851	24450	148829	27594	1027243	43401	109568	0	0	8202	609124	0	0
2024-07-06 04:34:32			0	36595	0	0	0	25849	24450	148841	27398	1027198	43401	109567	0	0	8202	608623	0	0
2024-07-06 04:35:32			0	36591	0	0	0	25857	24460	148773	27419	1027260	43401	109570	0	0	8202	608756	0	0
2024-07-06 04:36:32			0	36596	0	0	0	25859	24440	148789	27405	1027181	43411	109571	0	0	8202	608616	0	0
2024-07-06 04:37:32			0	36580	0	0	0	25854	24440	148821	27095	1027208	43411	109569	0	0	8201	609283	0	0
2024-07-06 04:38:32			0	36589	0	0	0	25859	24450	148858	27251	1027198	43412	109571	0	0	8202	608873	0	0
2024-07-06 04:39:32			0	36589	0	0	0	25844	24450	148833	27258	1027198	43401	109565	0	0	8202	608873	0	0
2024-07-06 04:40:32			0	36587	0	0	0	25849	24460	148769	27208	1027234	43412	109567	0	0	8202	608922	0	0
2024-07-06 04:41:32			0	36573	0	0	0	25846	24450	148869	27319	1027243	43422	109566	0	0	8201	609541	0	0
2024-07-06 04:42:32			0	36551	0	0	0	25857	24450	148769	27405	1027189	43401	109570	0	0	8200	610459	0	0
2024-07-06 04:43:32			0	36572	0	0	0	25857	24440	148781	27145	1027208	43421	109570	0	0	8201	609617	0	0
2024-07-06 04:44:32			0	36580	0	0	0	25857	24450	148793	26868	1027225	43401	109570	0	0	8201	609248	0	0
2024-07-06 04:45:32			0	36572	0	0	0	25851	24460	148845	27424	1027180	43401	109568	0	0	8201	609548	0	0
2024-07-06 04:46:32			0	36563	0	0	0	25854	24450	148841	27500	1027225	43401	109569	0	0	8201	609958	0	0
2024-07-06 04:47:32			0	36548	0	0	0	25846	24450	148809	27286	1027198	43412	109566	0	0	8200	610584	0	0
2024-07-06 04:48:32			0	36554	0	0	0	25851	24460	148905	27338	1027207	43401	109568	0	0	8200	610299	0	0
2024-07-06 04:49:32			0	36560	0	0	0	25849	24440	148917	27386	1027181	43411	109567	0	0	8200	610118	0	0
2024-07-06 04:50:32			0	36566	0	0	0	25849	24450	148889	27303	1027189	43401	109567	0	0	8201	609833	0	0
2024-07-06 04:51:32			0	36558	0	0	0	25846	24440	148925	27445	1027181	43400	109566	0	0	8200	610201	0	0
2024-07-06 04:52:32			0	36551	0	0	0	25851	24450	148901	27371	1027216	43401	109568	0	0	8200	610459	0	0
2024-07-06 04:53:32			0	36571	0	0	0	25838	24450	148953	27628	1027216	43389	109563	0	0	8201	609624	0	0
2024-07-06 04:54:32			0	36551	0	0	0	25849	24450	148901	27582	1027198	43389	109567	0	0	8200	610459	0	0
2024-07-06 04:55:32			0	36561	0	0	0	25844	24450	148945	27454	1027216	43389	109565	0	0	8201	610042	0	0
2024-07-06 04:56:32			0	36565	0	0	0	25846	24440	148921	27341	1027172	43410	109566	0	0	8201	609909	0	0
2024-07-06 04:57:32			0	36558	0	0	0	25841	24440	148861	27346	1027154	43400	109564	0	0	8200	610201	0	0
2024-07-06 04:58:32			0	36541	0	0	0	25833	24440	148873	27441	1027127	43411	109561	0	0	8200	610911	0	0
2024-07-06 04:59:32			0	36555	0	0	0	25838	24440	148877	27326	1027127	43411	109563	0	0	8200	610327	0	0
2024-07-06 05:00:32			0	36572	0	0	0	25836	24440	148925	27060	1027154	43421	109562	0	0	8201	609617	0	0
2024-07-06 05:01:32			0	36571	0	0	0	25836	24430	148833	27320	1027136	43398	109562	0	0	8201	609693	0	0
2024-07-06 05:02:32			0	36565	0	0	0	25836	24430	148869	27604	1027136	43409	109562	0	0	8201	609944	0	0
2024-07-06 05:03:32			0	36548	0	0	0	25831	24430	148845	27300	1027056	43409	109560	0	0	8200	610654	0	0
2024-07-06 05:04:32			0	36565	0	0	0	25831	24430	148849	27185	1027136	43409	109560	0	0	8201	609944	0	0
2024-07-06 05:05:32			0	36554	0	0	0	25838	24440	148929	27033	1027199	43410	109563	0	0	8200	610368	0	0
2024-07-06 05:06:32			0	36546	0	0	0	25838	24430	148949	27369	1027074	43398	109563	0	0	8200	610737	0	0
2024-07-06 05:07:32			0	36563	0	0	0	25828	24440	148861	27213	1027119	43399	109559	0	0	8201	609993	0	0
2024-07-06 05:08:32			0	36559	0	0	0	25825	24430	148841	27429	1027101	43398	109558	0	0	8201	610194	0	0
2024-07-06 05:09:32			0	36545	0	0	0	25825	24430	148933	27417	1027101	43409	109558	0	0	8200	610779	0	0
2024-07-06 05:10:32			0	36559	0	0	0	25833	24430	148909	27244	1027074	43409	109561	0	0	8201	610194	0	0
2024-07-06 05:11:32			0	36562	0	0	0	25831	24430	148893	27334	1027101	43409	109560	0	0	8201	610069	0	0
2024-07-06 05:12:32			0	36558	0	0	0	25823	24420	148941	27194	1027065	43398	109557	0	0	8201	610270	0	0
2024-07-06 05:13:32			0	36555	0	0	0	25828	24430	148985	27272	1027056	43398	109559	0	0	8200	610361	0	0
2024-07-06 05:14:32			0	36560	0	0	0	25815	24420	148913	27365	1027030	43397	109554	0	0	8201	610187	0	0
2024-07-06 05:15:32			0	36549	0	0	0	25815	24420	148865	27405	1027057	43408	109554	0	0	8200	610646	0	0
2024-07-06 05:16:32			0	36567	0	0	0	25820	24420	148861	27376	1027119	43386	109556	0	0	8201	609894	0	0
2024-07-06 05:17:32			0	36578	0	0	0	25815	24410	148877	26970	1027075	43396	109554	0	0	8202	609470	0	0
2024-07-06 05:18:32			0	36567	0	0	0	25815	24420	148813	27306	1027084	43408	109554	0	0	8201	609894	0	0
2024-07-06 05:19:32			0	36584	0	0	0	25810	24420	148861	27360	1027030	43397	109552	0	0	8202	609185	0	0
2024-07-06 05:20:32			0	36580	0	0	0	25810	24410	148785	27270	1027102	43396	109552	0	0	8202	609386	0	0
2024-07-06 05:21:32			0	36571	0	0	0	25802	24420	148829	27239	1027030	43386	109549	0	0	8202	609728	0	0
2024-07-06 05:22:32			0	36585	0	0	0	25802	24420	148829	27391	1027030	43408	109549	0	0	8202	609143	0	0
2024-07-06 05:23:32			0	36581	0	0	0	25807	24420	148837	27592	1027003	43408	109551	0	0	8202	609310	0	0
2024-07-06 05:24:32			0	36569	0	0	0	25799	24410	148733	27390	1027021	43407	109548	0	0	8202	609845	0	0
2024-07-06 05:25:32			0	36586	0	0	0	25797	24410	148793	27241	1026959	43407	109547	0	0	8203	609136	0	0
2024-07-06 05:26:32			0	36599	0	0	0	25802	24410	148798	27177	1027048	43407	109549	0	0	8203	608594	0	0
2024-07-06 05:27:32			0	36576	0	0	0	25797	24410	148865	27377	1026932	43407	109547	0	0	8202	609553	0	0
2024-07-06 05:28:32			0	36586	0	0	0	25792	24400	148757	27228	1026977	43396	109545	0	0	8203	609171	0	0
2024-07-06 05:29:32			0	36573	0	0	0	25802	24410	148833	27177	1026959	43396	109549	0	0	8202	609678	0	0
2024-07-06 05:30:32			0	36579	0	0	0	25792	24390	148737	27388	1026925	43394	109545	0	0	8202	609497	0	0
2024-07-06 05:31:32			0	36571	0	0	0	25797	24390	148901	27412	1026880	43394	109547	0	0	8202	609831	0	0
2024-07-06 05:32:32			0	36585	0	0	0	25789	24400	148857	27305	1026915	43384	109544	0	0	8203	609212	0	0
2024-07-06 05:33:32			0	36591	0	0	0	25786	24390	148793	27242	1026898	43394	109543	0	0	8203	608996	0	0
2024-07-06 05:34:32			0	36575	0	0	0	25786	24380	148813	27203	1026862	43383	109543	0	0	8202	609698	0	0
2024-07-06 05:35:32			0	36585	0	0	0	25786	24390	148877	27218	1026880	43383	109543	0	0	8203	609247	0	0
2024-07-06 05:36:32			0	36590	0	0	0	25784	24390	148869	27479	1026826	43383	109542	0	0	8203	609038	0	0
2024-07-06 05:37:32			0	36594	0	0	0	25781	24390	148845	27583	1026871	43416	109541	0	0	8203	608871	0	0
2024-07-06 05:38:32			0	36581	0	0	0	25779	24380	148853	27078	1026880	43404	109540	0	0	8202	609448	0	0
2024-07-06 05:39:32			0	36567	0	0	0	25779	24370	148797	27319	1026899	43403	109540	0	0	8202	610067	0	0
2024-07-06 05:40:32			0	36596	0	0	0	25776	24380	148861	27317	1026800	43393	109539	0	0	8203	608822	0	0
2024-07-06 05:41:32			0	36584	0	0	0	25776	24370	148805	27131	1026872	43392	109539	0	0	8203	609357	0	0
2024-07-06 05:42:32			0	36570	0	0	0	25779	24370	148777	27460	1026818	43403	109540	0	0	8202	609942	0	0
2024-07-06 05:43:32			0	36588	0	0	0	25776	24380	148777	27424	1026880	43404	109539	0	0	8203	609156	0	0
2024-07-06 05:44:32			0	36581	0	0	0	25774	24380	148765	27319	1026827	43393	109538	0	0	8203	609448	0	0
2024-07-06 05:45:32			0	36572	0	0	0	25776	24370	148817	27282	1026792	43392	109539	0	0	8202	609858	0	0
2024-07-06 05:46:32			0	36568	0	0	0	25776	24370	148849	27211	1026836	43391	109539	0	0	8202	610025	0	0
2024-07-06 05:47:32			0	36577	0	0	0	25779	24370	148813	27403	1026836	43380	109540	0	0	8202	609649	0	0
2024-07-06 05:48:32			0	36574	0	0	0	25768	24370	148837	27244	1026756	43403	109536	0	0	8202	609774	0	0
2024-07-06 05:49:32			0	36566	0	0	0	25768	24360	148757	27090	1026828	43391	109536	0	0	8202	610143	0	0
2024-07-06 05:50:32			0	36545	0	0	0	25763	24370	148865	27293	1026810	43380	109534	0	0	8201	610986	0	0
2024-07-06 05:51:32			0	36566	0	0	0	25774	24360	148905	27286	1026801	43391	109538	0	0	8202	610143	0	0
2024-07-06 05:52:32			0	36572	0	0	0	25766	24370	148761	27443	1026810	43403	109535	0	0	8202	609858	0	0
2024-07-06 05:53:32			0	36566	0	0	0	25758	24360	148721	27197	1026828	43403	109532	0	0	8202	610143	0	0
2024-07-06 05:54:32			0	36573	0	0	0	25755	24360	148781	27306	1026766	43380	109531	0	0	8202	609851	0	0
2024-07-06 05:55:32			0	36568	0	0	0	25755	24370	148805	27322	1026863	43403	109531	0	0	8202	610025	0	0
2024-07-06 05:56:32			0	36573	0	0	0	25758	24360	148841	27022	1026766	43391	109532	0	0	8202	609851	0	0
2024-07-06 05:57:32			0	36560	0	0	0	25758	24360	148925	27163	1026739	43403	109532	0	0	8202	610394	0	0
2024-07-06 05:58:32			0	36562	0	0	0	25753	24360	148833	27258	1026792	43403	109530	0	0	8202	610310	0	0
2024-07-06 05:59:32			0	36561	0	0	0	25750	24350	148877	27095	1026730	43390	109529	0	0	8202	610386	0	0
2024-07-06 06:00:32			0	36539	0	0	0	25758	24350	148913	27467	1026721	43378	109532	0	0	8200	611306	0	0
2024-07-06 06:01:32			0	36533	0	0	0	25755	24360	148817	27414	1026739	43391	109531	0	0	8200	611522	0	0
2024-07-06 06:02:32			0	36543	0	0	0	25758	24360	148953	27426	1026774	43403	109532	0	0	8201	611104	0	0
2024-07-06 06:03:32			0	36540	0	0	0	25761	24350	148985	27300	1026810	43390	109533	0	0	8200	611264	0	0
2024-07-06 06:04:32			0	36536	0	0	0	25748	24360	148933	27234	1026747	43380	109528	0	0	8201	611397	0	0
2024-07-06 06:05:32			0	36528	0	0	0	25758	24360	148933	27109	1026766	43391	109532	0	0	8200	611732	0	0
2024-07-06 06:06:32			0	36546	0	0	0	25753	24350	149057	27486	1026810	43402	109530	0	0	8201	611013	0	0
2024-07-06 06:07:32			0	36530	0	0	0	25755	24350	148989	27227	1026748	43378	109531	0	0	8200	611682	0	0
2024-07-06 06:08:32			0	36530	0	0	0	25750	24360	148961	27336	1026739	43380	109529	0	0	8200	611648	0	0
2024-07-06 06:09:32			0	36517	0	0	0	25748	24350	148981	26949	1026730	43402	109528	0	0	8199	612227	0	0
2024-07-06 06:10:32			0	36515	0	0	0	25753	24350	149037	27424	1026721	43389	109530	0	0	8199	612310	0	0
2024-07-06 06:11:32			0	36481	0	0	0	25753	24350	149025	27286	1026810	43402	109530	0	0	8198	613735	0	0
2024-07-06 06:12:32			0	36511	0	0	0	25753	24350	149057	27027	1026748	43378	109530	0	0	8199	612478	0	0
2024-07-06 06:13:32			0	36497	0	0	0	25745	24350	149101	27313	1026784	43390	109527	0	0	8198	613064	0	0
2024-07-06 06:14:32			0	36505	0	0	0	25742	24350	149185	27161	1026721	43401	109526	0	0	8199	612729	0	0
2024-07-06 06:15:32			0	36496	0	0	0	25753	24350	149113	27339	1026748	43401	109530	0	0	8198	613106	0	0
2024-07-06 06:16:32			0	36500	0	0	0	25750	24350	149045	27436	1026748	43401	109529	0	0	8199	612938	0	0
2024-07-06 06:17:32			0	36500	0	0	0	25740	24330	149069	27341	1026749	43400	109525	0	0	8199	613008	0	0
2024-07-06 06:18:32			0	36508	0	0	0	25742	24350	149145	27182	1026721	43401	109526	0	0	8199	612603	0	0
2024-07-06 06:19:32			0	36492	0	0	0	25740	24350	149221	27088	1026748	43389	109525	0	0	8198	613274	0	0
2024-07-06 06:20:32			0	36493	0	0	0	25748	24350	149181	27249	1026784	43402	109528	0	0	8198	613232	0	0
2024-07-06 06:21:32			0	36484	0	0	0	25745	24340	149165	26987	1026766	43401	109527	0	0	8198	613644	0	0
2024-07-06 06:22:32			0	36498	0	0	0	25753	24340	149169	27255	1026686	43412	109530	0	0	8198	613057	0	0
2024-07-06 06:23:32			0	36482	0	0	0	25742	24340	149145	27265	1026766	43412	109526	0	0	8198	613728	0	0
2024-07-06 06:24:32			0	36488	0	0	0	25740	24340	149197	27166	1026713	43389	109525	0	0	8198	613476	0	0
2024-07-06 06:25:32			0	36491	0	0	0	25740	24340	149245	27272	1026713	43401	109525	0	0	8198	613350	0	0
2024-07-06 06:26:32			0	36510	0	0	0	25748	24340	149205	27185	1026731	43389	109528	0	0	8199	612554	0	0
2024-07-06 06:27:32			0	36503	0	0	0	25735	24340	149233	27345	1026731	43401	109523	0	0	8199	612847	0	0
2024-07-06 06:28:32			0	36486	0	0	0	25742	24340	149165	27630	1026686	43401	109526	0	0	8198	613560	0	0
2024-07-06 06:29:32			0	36511	0	0	0	25740	24340	149101	26918	1026740	43401	109525	0	0	8199	612512	0	0
2024-07-06 06:30:32			0	36498	0	0	0	25735	24350	149089	27575	1026721	43378	109523	0	0	8199	613022	0	0
2024-07-06 06:31:32			0	36518	0	0	0	25735	24340	149181	27417	1026713	43389	109523	0	0	8200	612219	0	0
2024-07-06 06:32:32			0	36513	0	0	0	25737	24350	149209	26981	1026721	43389	109524	0	0	8199	612394	0	0
2024-07-06 06:33:32			0	36506	0	0	0	25732	24340	149157	27197	1026677	43401	109522	0	0	8199	612722	0	0
2024-07-06 06:34:32			0	36506	0	0	0	25727	24340	149165	27211	1026766	43401	109520	0	0	8199	612722	0	0
2024-07-06 06:35:32			0	36498	0	0	0	25740	24340	149173	27341	1026677	43401	109525	0	0	8199	613057	0	0
2024-07-06 06:36:32			0	36510	0	0	0	25727	24340	149153	27013	1026704	43401	109520	0	0	8199	612554	0	0
2024-07-06 06:37:32			0	36524	0	0	0	25724	24330	149113	27239	1026695	43400	109519	0	0	8200	612003	0	0
2024-07-06 06:38:32			0	36526	0	0	0	25729	24340	149145	27187	1026704	43401	109521	0	0	8200	611884	0	0
2024-07-06 06:39:32			0	36527	0	0	0	25724	24330	149157	27223	1026687	43399	109519	0	0	8200	611877	0	0
2024-07-06 06:40:32			0	36512	0	0	0	25729	24320	149069	27362	1026571	43387	109521	0	0	8199	612539	0	0
2024-07-06 06:41:32			0	36510	0	0	0	25727	24330	149013	27159	1026642	43388	109520	0	0	8199	612589	0	0
2024-07-06 06:42:32			0	36524	0	0	0	25722	24330	149045	27203	1026633	43399	109518	0	0	8200	612003	0	0
2024-07-06 06:43:32			0	36539	0	0	0	25716	24330	149113	27183	1026633	43399	109516	0	0	8201	611375	0	0
2024-07-06 06:44:32			0	36509	0	0	0	25716	24310	149065	27001	1026581	43387	109516	0	0	8199	612700	0	0
2024-07-06 06:45:32			0	36510	0	0	0	25719	24320	149029	27112	1026598	43376	109517	0	0	8199	612623	0	0
2024-07-06 06:46:32			0	36517	0	0	0	25709	24320	149133	27537	1026518	43387	109513	0	0	8200	612330	0	0
2024-07-06 06:47:32			0	36525	0	0	0	25703	24330	149113	27076	1026580	43399	109511	0	0	8201	611961	0	0
2024-07-06 06:48:32			0	36524	0	0	0	25716	24320	149077	27419	1026616	43399	109516	0	0	8200	612037	0	0
2024-07-06 06:49:32			0	36500	0	0	0	25711	24320	149229	27194	1026571	43387	109514	0	0	8199	613042	0	0
2024-07-06 06:50:32			0	36510	0	0	0	25714	24300	149109	26909	1026545	43375	109515	0	0	8199	612693	0	0
2024-07-06 06:51:32			0	36518	0	0	0	25703	24310	149177	27353	1026527	43398	109511	0	0	8200	612323	0	0
2024-07-06 06:52:32			0	36518	0	0	0	25706	24320	149213	26864	1026589	43387	109512	0	0	8200	612288	0	0
2024-07-06 06:53:32			0	36503	0	0	0	25706	24310	149093	27092	1026634	43387	109512	0	0	8199	612951	0	0
2024-07-06 06:54:32			0	36514	0	0	0	25701	24310	149209	27284	1026554	43387	109510	0	0	8200	612490	0	0
2024-07-06 06:55:32			0	36503	0	0	0	25693	24300	149125	27303	1026572	43386	109507	0	0	8199	612986	0	0
2024-07-06 06:56:32			0	36515	0	0	0	25701	24300	149245	27402	1026545	43386	109510	0	0	8200	612483	0	0
2024-07-06 06:57:32			0	36488	0	0	0	25698	24300	149165	27327	1026572	43397	109509	0	0	8199	613615	0	0
2024-07-06 06:58:32			0	36478	0	0	0	25698	24300	149301	27294	1026572	43397	109509	0	0	8198	614034	0	0
2024-07-06 06:59:32			0	36483	0	0	0	25701	24310	149273	27390	1026581	43398	109510	0	0	8198	613789	0	0
2024-07-06 07:00:32			0	36477	0	0	0	25703	24300	149261	27300	1026509	43396	109511	0	0	8198	614076	0	0
2024-07-06 07:01:32			0	36491	0	0	0	25698	24320	149181	27400	1026589	43399	109509	0	0	8199	613419	0	0
2024-07-06 07:02:32			0	36476	0	0	0	25706	24310	149285	27135	1026581	43398	109512	0	0	8198	614083	0	0
2024-07-06 07:03:32			0	36463	0	0	0	25706	24300	149401	27105	1026598	43408	109512	0	0	8197	614663	0	0
2024-07-06 07:04:32			0	36458	0	0	0	25701	24300	149321	27085	1026572	43397	109510	0	0	8197	614873	0	0
2024-07-06 07:05:32			0	36454	0	0	0	25698	24300	149313	27307	1026536	43385	109509	0	0	8197	615041	0	0
2024-07-06 07:06:32			0	36454	0	0	0	25701	24310	149285	27215	1026581	43375	109510	0	0	8197	615007	0	0
2024-07-06 07:07:32			0	36442	0	0	0	25706	24310	149377	27112	1026581	43398	109512	0	0	8196	615511	0	0
2024-07-06 07:08:32			0	36454	0	0	0	25714	24300	149457	27227	1026536	43385	109515	0	0	8197	615041	0	0
2024-07-06 07:09:32			0	36441	0	0	0	25714	24300	149421	27358	1026545	43375	109515	0	0	8196	615587	0	0
2024-07-06 07:10:32			0	36443	0	0	0	25706	24310	149385	26989	1026581	43387	109512	0	0	8196	615469	0	0
2024-07-06 07:11:32			0	36439	0	0	0	25703	24310	149413	27351	1026607	43398	109511	0	0	8196	615637	0	0
2024-07-06 07:12:32			0	36409	0	0	0	25714	24300	149525	26937	1026598	43397	109515	0	0	8194	616933	0	0
2024-07-06 07:13:32			0	36426	0	0	0	25716	24300	149505	27365	1026598	43397	109516	0	0	8195	616218	0	0
2024-07-06 07:14:32			0	36417	0	0	0	25711	24300	149557	27249	1026545	43386	109514	0	0	8195	616597	0	0
2024-07-06 07:15:32			0	36412	0	0	0	25724	24310	149501	27242	1026554	43387	109519	0	0	8194	616772	0	0
2024-07-06 07:16:32			0	36407	0	0	0	25714	24310	149553	27026	1026607	43387	109515	0	0	8194	616983	0	0
2024-07-06 07:17:32			0	36399	0	0	0	25716	24320	149521	27133	1026616	43387	109516	0	0	8194	617285	0	0
2024-07-06 07:18:32			0	36391	0	0	0	25722	24320	149569	27114	1026616	43399	109518	0	0	8193	617621	0	0
2024-07-06 07:19:32			0	36389	0	0	0	25719	24310	149489	26934	1026554	43387	109517	0	0	8193	617741	0	0
2024-07-06 07:20:32			0	36379	0	0	0	25716	24300	149581	27000	1026598	43397	109516	0	0	8193	618197	0	0
2024-07-06 07:21:32			0	36383	0	0	0	25714	24320	149657	27140	1026625	43376	109515	0	0	8193	617958	0	0
2024-07-06 07:22:32			0	36380	0	0	0	25716	24310	149585	26918	1026581	43387	109516	0	0	8193	618120	0	0
2024-07-06 07:23:32			0	36386	0	0	0	25724	24320	149637	27142	1026616	43376	109519	0	0	8193	617832	0	0
2024-07-06 07:24:32			0	36353	0	0	0	25724	24320	149665	27001	1026651	43399	109519	0	0	8191	619223	0	0
2024-07-06 07:25:32			0	36364	0	0	0	25722	24320	149717	26979	1026616	43399	109518	0	0	8192	618759	0	0
2024-07-06 07:26:32			0	36355	0	0	0	25724	24320	149785	27190	1026616	43376	109519	0	0	8191	619139	0	0
2024-07-06 07:27:32			0	36349	0	0	0	25724	24320	149829	27041	1026625	43399	109519	0	0	8191	619392	0	0
2024-07-06 07:28:32			0	36336	0	0	0	25724	24320	149781	27078	1026643	43387	109519	0	0	8190	619941	0	0
2024-07-06 07:29:32			0	36343	0	0	0	25719	24320	149821	27267	1026589	43399	109517	0	0	8191	619645	0	0
2024-07-06 07:30:32			0	36340	0	0	0	25732	24320	149817	27320	1026598	43410	109522	0	0	8190	619772	0	0
2024-07-06 07:31:32			0	36344	0	0	0	25737	24320	149797	26927	1026678	43387	109524	0	0	8190	619603	0	0
2024-07-06 07:32:32			0	36349	0	0	0	25740	24330	149909	26944	1026687	43399	109525	0	0	8191	619357	0	0
2024-07-06 07:33:32			0	36337	0	0	0	25740	24330	149885	27163	1026687	43399	109525	0	0	8190	619864	0	0
2024-07-06 07:34:32			0	36340	0	0	0	25737	24340	149805	27067	1026731	43422	109524	0	0	8190	619702	0	0
2024-07-06 07:35:32			0	36316	0	0	0	25740	24330	149777	27332	1026687	43410	109525	0	0	8189	620751	0	0
2024-07-06 07:36:32			0	36328	0	0	0	25742	24320	149881	27341	1026678	43410	109526	0	0	8190	620279	0	0
2024-07-06 07:37:32			0	36330	0	0	0	25740	24330	149769	27261	1026740	43399	109525	0	0	8190	620159	0	0
2024-07-06 07:38:32			0	36330	0	0	0	25745	24330	149885	27123	1026687	43387	109527	0	0	8190	620159	0	0
2024-07-06 07:39:32			0	36333	0	0	0	25740	24340	149809	27024	1026704	43401	109525	0	0	8190	619998	0	0
2024-07-06 07:40:32			0	36347	0	0	0	25735	24330	149817	27326	1026687	43399	109523	0	0	8191	619442	0	0
2024-07-06 07:41:32			0	36344	0	0	0	25742	24330	149809	27104	1026695	43400	109526	0	0	8190	619568	0	0
2024-07-06 07:42:32			0	36365	0	0	0	25735	24330	149757	27038	1026714	43399	109523	0	0	8192	618682	0	0
2024-07-06 07:43:32			0	36359	0	0	0	25729	24330	149897	26906	1026722	43400	109521	0	0	8191	618935	0	0
2024-07-06 07:44:32			0	36359	0	0	0	25737	24330	149697	27131	1026749	43411	109524	0	0	8191	618935	0	0
2024-07-06 07:45:32			0	36353	0	0	0	25735	24340	149745	27170	1026758	43401	109523	0	0	8191	619153	0	0
2024-07-06 07:46:32			0	36377	0	0	0	25735	24340	149733	27173	1026677	43401	109523	0	0	8192	618142	0	0
2024-07-06 07:47:32			0	36385	0	0	0	25735	24330	149721	27052	1026669	43388	109523	0	0	8193	617839	0	0
2024-07-06 07:48:32			0	36379	0	0	0	25740	24330	149705	27376	1026740	43399	109525	0	0	8192	618092	0	0
2024-07-06 07:49:32			0	36366	0	0	0	25748	24340	149733	27294	1026740	43378	109528	0	0	8191	618605	0	0
2024-07-06 07:50:32			0	36370	0	0	0	25737	24340	149669	27261	1026731	43378	109524	0	0	8192	618436	0	0
2024-07-06 07:51:32			0	36395	0	0	0	25740	24340	149629	27097	1026731	43412	109525	0	0	8193	617383	0	0
2024-07-06 07:52:32			0	36383	0	0	0	25740	24340	149737	27270	1026704	43389	109525	0	0	8193	617889	0	0
2024-07-06 07:53:32			0	36387	0	0	0	25748	24340	149697	27017	1026740	43401	109528	0	0	8193	617720	0	0
2024-07-06 07:54:32			0	36390	0	0	0	25748	24340	149677	27213	1026659	43401	109528	0	0	8193	617594	0	0
2024-07-06 07:55:32			0	36395	0	0	0	25753	24340	149609	27156	1026713	43389	109530	0	0	8193	617383	0	0
2024-07-06 07:56:32			0	36383	0	0	0	25745	24340	149589	27251	1026704	43389	109527	0	0	8192	617889	0	0
2024-07-06 07:57:32			0	36400	0	0	0	25753	24340	149633	27119	1026731	43389	109530	0	0	8193	617173	0	0
2024-07-06 07:58:32			0	36389	0	0	0	25745	24340	149637	27050	1026713	43401	109527	0	0	8193	617636	0	0
2024-07-06 07:59:32			0	36397	0	0	0	25748	24340	149677	27287	1026740	43389	109528	0	0	8193	617299	0	0
2024-07-06 08:00:32			0	36402	0	0	0	25755	24330	149589	27244	1026749	43388	109531	0	0	8193	617123	0	0
2024-07-06 08:01:32			0	36390	0	0	0	25745	24340	149649	27081	1026766	43401	109527	0	0	8193	617594	0	0
2024-07-06 08:02:32			0	36409	0	0	0	25748	24350	149617	27331	1026721	43378	109528	0	0	8194	616759	0	0
2024-07-06 08:03:32			0	36393	0	0	0	25755	24340	149569	27185	1026784	43401	109531	0	0	8193	617467	0	0
2024-07-06 08:04:32			0	36390	0	0	0	25755	24350	149553	27491	1026775	43401	109531	0	0	8193	617559	0	0
2024-07-06 08:05:32			0	36423	0	0	0	25761	24340	149613	27234	1026793	43389	109533	0	0	8194	616205	0	0
2024-07-06 08:06:32			0	36386	0	0	0	25748	24340	149673	27286	1026793	43389	109528	0	0	8193	617762	0	0
2024-07-06 08:07:32			0	36390	0	0	0	25748	24350	149661	27178	1026802	43389	109528	0	0	8193	617559	0	0
2024-07-06 08:08:32			0	36370	0	0	0	25755	24350	149729	27270	1026775	43389	109531	0	0	8192	618402	0	0
2024-07-06 08:09:32			0	36374	0	0	0	25758	24340	149785	27369	1026766	43389	109532	0	0	8192	618268	0	0
2024-07-06 08:10:32			0	36347	0	0	0	25748	24350	149885	27142	1026828	43401	109528	0	0	8191	619372	0	0
2024-07-06 08:11:32			0	36286	0	0	0	25755	24350	150029	27156	1026828	43401	109531	0	0	8187	621950	0	0
2024-07-06 08:12:32			0	36241	0	0	0	25766	24350	150289	27196	1026784	43402	109535	0	0	8185	623856	0	0
2024-07-06 08:13:32			0	36178	0	0	0	25761	24350	150573	27300	1026784	43390	109533	0	0	8181	626532	0	0
2024-07-06 08:14:32			0	36088	0	0	0	25766	24340	150889	27282	1026811	43389	109535	0	0	8176	630405	0	0
2024-07-06 08:15:32			0	36018	0	0	0	25763	24340	151185	27339	1026811	43401	109534	0	0	8173	633400	0	0
2024-07-06 08:16:32			0	35958	0	0	0	25768	24350	151421	27140	1026757	43390	109536	0	0	8170	635941	0	0
2024-07-06 08:17:32			0	35877	0	0	0	25768	24350	151769	27286	1026855	43389	109536	0	0	8165	639430	0	0
2024-07-06 08:18:32			0	35826	0	0	0	25771	24350	152044	27490	1026802	43401	109537	0	0	8163	641633	0	0
2024-07-06 08:19:32			0	35785	0	0	0	25758	24360	152164	27346	1026899	43403	109532	0	0	8161	643373	0	0
2024-07-06 08:20:32			0	35718	0	0	0	25768	24350	152436	27376	1026837	43390	109536	0	0	8157	646319	0	0
2024-07-06 08:21:32			0	35689	0	0	0	25763	24350	152576	27383	1026837	43402	109534	0	0	8155	647581	0	0
2024-07-06 08:22:32			0	35658	0	0	0	25771	24360	152724	27540	1026881	43403	109537	0	0	8154	648895	0	0
2024-07-06 08:23:32			0	35633	0	0	0	25774	24370	152736	27535	1026836	43403	109538	0	0	8152	649950	0	0
2024-07-06 08:24:32			0	35632	0	0	0	25771	24360	152892	27289	1026801	43414	109537	0	0	8152	650030	0	0
2024-07-06 08:25:32			0	35616	0	0	0	25771	24360	153112	27535	1026881	43403	109537	0	0	8151	650729	0	0
2024-07-06 08:26:32			0	35578	0	0	0	25768	24360	152960	27178	1026828	43414	109536	0	0	8149	652392	0	0
2024-07-06 08:27:32			0	35571	0	0	0	25766	24360	153100	27495	1026846	43391	109535	0	0	8149	652698	0	0
2024-07-06 08:28:32			0	35565	0	0	0	25768	24350	153048	27594	1026891	43402	109536	0	0	8149	652998	0	0
2024-07-06 08:29:32			0	35587	0	0	0	25766	24360	153068	27343	1026828	43414	109535	0	0	8150	651997	0	0
2024-07-06 08:30:32			0	35567	0	0	0	25776	24360	153124	27306	1026899	43403	109539	0	0	8149	652873	0	0
2024-07-06 08:31:32			0	35576	0	0	0	25779	24360	153000	27281	1026819	43391	109540	0	0	8149	652479	0	0
2024-07-06 08:32:32			0	35576	0	0	0	25766	24360	153024	27118	1026908	43391	109535	0	0	8149	652479	0	0
2024-07-06 08:33:32			0	35568	0	0	0	25771	24360	153008	27355	1026873	43403	109537	0	0	8149	652829	0	0
2024-07-06 08:34:32			0	35593	0	0	0	25771	24360	152964	26975	1026881	43403	109537	0	0	8150	651735	0	0
2024-07-06 08:35:32			0	35594	0	0	0	25761	24360	152964	27459	1026899	43403	109533	0	0	8150	651691	0	0
2024-07-06 08:36:32			0	35609	0	0	0	25758	24360	152860	27329	1026899	43391	109532	0	0	8151	651035	0	0
2024-07-06 08:37:32			0	35612	0	0	0	25758	24370	152768	27060	1026836	43403	109532	0	0	8151	650867	0	0
2024-07-06 08:38:32			0	35607	0	0	0	25763	24360	152860	27057	1026854	43414	109534	0	0	8151	651123	0	0
2024-07-06 08:39:32			0	35625	0	0	0	25758	24360	152872	26923	1026828	43403	109532	0	0	8152	650336	0	0
2024-07-06 08:40:32			0	35627	0	0	0	25768	24370	152876	27303	1026890	43391	109536	0	0	8152	650212	0	0
2024-07-06 08:41:32			0	35612	0	0	0	25781	24360	152924	27246	1026908	43391	109541	0	0	8151	650904	0	0
2024-07-06 08:42:32			0	35629	0	0	0	25776	24360	153008	27590	1026854	43403	109539	0	0	8152	650161	0	0
2024-07-06 08:43:32			0	35609	0	0	0	25784	24370	152956	27244	1026899	43403	109542	0	0	8151	650998	0	0
2024-07-06 08:44:32			0	35611	0	0	0	25776	24360	152864	27417	1026908	43403	109539	0	0	8151	650948	0	0
2024-07-06 08:45:32			0	35596	0	0	0	25774	24370	152952	27653	1026863	43391	109538	0	0	8150	651567	0	0
2024-07-06 08:46:32			0	35606	0	0	0	25768	24360	152836	27431	1026873	43403	109536	0	0	8151	651166	0	0
2024-07-06 08:47:32			0	35594	0	0	0	25753	24370	152868	27192	1026836	43391	109530	0	0	8151	651654	0	0
2024-07-06 08:48:32			0	35598	0	0	0	25748	24360	153104	27393	1026819	43380	109528	0	0	8151	651516	0	0
2024-07-06 08:49:32			0	35590	0	0	0	25745	24360	153012	27429	1026828	43403	109527	0	0	8150	651866	0	0
2024-07-06 08:50:32			0	35599	0	0	0	25732	24350	152952	27587	1026810	43390	109522	0	0	8151	651509	0	0
2024-07-06 08:51:32			0	35610	0	0	0	25724	24350	152988	27353	1026730	43369	109519	0	0	8152	651028	0	0
2024-07-06 08:52:32			0	35615	0	0	0	25711	24340	152984	27414	1026659	43378	109514	0	0	8152	650846	0	0
2024-07-06 08:53:32			0	35623	0	0	0	25716	24340	152956	27183	1026704	43378	109516	0	0	8153	650497	0	0
2024-07-06 08:54:32			0	35603	0	0	0	25729	24330	152868	27331	1026687	43387	109521	0	0	8151	651408	0	0
2024-07-06 08:55:32			0	35629	0	0	0	25714	24330	152872	27163	1026669	43411	109515	0	0	8153	650271	0	0
2024-07-06 08:56:32			0	35623	0	0	0	25716	24330	152760	27261	1026633	43387	109516	0	0	8153	650533	0	0
2024-07-06 08:57:32			0	35619	0	0	0	25709	24320	152744	27119	1026678	43387	109513	0	0	8152	650745	0	0
2024-07-06 08:58:32			0	35625	0	0	0	25703	24320	152728	27315	1026651	43387	109511	0	0	8153	650483	0	0
2024-07-06 08:59:32			0	35647	0	0	0	25716	24330	152740	27215	1026633	43387	109516	0	0	8154	649485	0	0
2024-07-06 09:00:32			0	35634	0	0	0	25719	24320	152768	27249	1026678	43399	109517	0	0	8153	650090	0	0
2024-07-06 09:01:32			0	35652	0	0	0	25724	24330	152808	27147	1026695	43400	109519	0	0	8154	649267	0	0
2024-07-06 09:02:32			0	35656	0	0	0	25719	24320	152836	27438	1026651	43410	109517	0	0	8154	649129	0	0
2024-07-06 09:03:32			0	35641	0	0	0	25711	24320	152812	27268	1026705	43410	109514	0	0	8154	649784	0	0
2024-07-06 09:04:32			0	35631	0	0	0	25714	24320	152880	27538	1026625	43410	109515	0	0	8153	650221	0	0
2024-07-06 09:05:32			0	35655	0	0	0	25716	24320	152848	27242	1026651	43399	109516	0	0	8154	649173	0	0
2024-07-06 09:06:32			0	35662	0	0	0	25706	24320	152808	27222	1026589	43399	109512	0	0	8155	648867	0	0
2024-07-06 09:07:32			0	35646	0	0	0	25709	24330	152864	27326	1026687	43399	109513	0	0	8154	649529	0	0
2024-07-06 09:08:32			0	35642	0	0	0	25709	24320	152860	27027	1026643	43387	109513	0	0	8154	649740	0	0
2024-07-06 09:09:32			0	35643	0	0	0	25711	24310	152832	27312	1026607	43387	109514	0	0	8154	649733	0	0
2024-07-06 09:10:32			0	35634	0	0	0	25714	24310	152816	27215	1026661	43409	109515	0	0	8153	650126	0	0
2024-07-06 09:11:32			0	35647	0	0	0	25724	24310	152880	27131	1026661	43387	109519	0	0	8154	649559	0	0
2024-07-06 09:12:32			0	35627	0	0	0	25729	24320	152788	27121	1026669	43387	109521	0	0	8152	650395	0	0
2024-07-06 09:13:32			0	35639	0	0	0	25729	24320	152796	27433	1026643	43399	109521	0	0	8153	649871	0	0
2024-07-06 09:14:32			0	35628	0	0	0	25729	24320	152872	27319	1026705	43410	109521	0	0	8153	650352	0	0
2024-07-06 09:15:32			0	35649	0	0	0	25714	24320	152888	27341	1026625	43399	109515	0	0	8154	649435	0	0
2024-07-06 09:16:32			0	35646	0	0	0	25714	24320	152824	27234	1026651	43399	109515	0	0	8154	649566	0	0
2024-07-06 09:17:32			0	35632	0	0	0	25706	24320	152804	27019	1026536	43399	109512	0	0	8153	650177	0	0
2024-07-06 09:18:32			0	35641	0	0	0	25714	24300	152936	27260	1026625	43386	109515	0	0	8153	649857	0	0
2024-07-06 09:19:32			0	35636	0	0	0	25709	24320	152960	27319	1026562	43387	109513	0	0	8153	650002	0	0
2024-07-06 09:20:32			0	35630	0	0	0	25716	24310	152928	27083	1026607	43398	109516	0	0	8153	650301	0	0
2024-07-06 09:21:32			0	35623	0	0	0	25711	24300	152904	27435	1026598	43386	109514	0	0	8152	650644	0	0
2024-07-06 09:22:32			0	35628	0	0	0	25719	24300	152904	27381	1026598	43386	109517	0	0	8153	650425	0	0
2024-07-06 09:23:32			0	35618	0	0	0	25706	24300	152952	27324	1026625	43386	109512	0	0	8152	650862	0	0
2024-07-06 09:24:32			0	35617	0	0	0	25706	24310	152864	27267	1026714	43398	109512	0	0	8152	650869	0	0
2024-07-06 09:25:32			0	35618	0	0	0	25709	24310	153032	27211	1026661	43398	109513	0	0	8152	650826	0	0
2024-07-06 09:26:32			0	35617	0	0	0	25709	24310	152900	27544	1026607	43398	109513	0	0	8152	650869	0	0
2024-07-06 09:27:32			0	35627	0	0	0	25711	24320	152956	27395	1026643	43399	109514	0	0	8153	650395	0	0
2024-07-06 09:28:32			0	35606	0	0	0	25706	24300	152912	27225	1026625	43397	109512	0	0	8152	651387	0	0
2024-07-06 09:29:32			0	35634	0	0	0	25701	24310	153004	27395	1026634	43398	109510	0	0	8153	650126	0	0
2024-07-06 09:30:32			0	35626	0	0	0	25703	24310	152912	27397	1026661	43387	109511	0	0	8153	650476	0	0
2024-07-06 09:31:32			0	35634	0	0	0	25706	24320	152796	27438	1026589	43410	109512	0	0	8153	650090	0	0
2024-07-06 09:32:32			0	35631	0	0	0	25706	24300	152812	27239	1026563	43385	109512	0	0	8153	650294	0	0
2024-07-06 09:33:32			0	35644	0	0	0	25709	24300	152776	27216	1026590	43396	109513	0	0	8154	649726	0	0
2024-07-06 09:34:32			0	35638	0	0	0	25709	24300	152716	27502	1026616	43396	109513	0	0	8153	649988	0	0
2024-07-06 09:35:32			0	35659	0	0	0	25711	24300	152608	27365	1026598	43397	109514	0	0	8154	649072	0	0
2024-07-06 09:36:32			0	35659	0	0	0	25709	24290	152584	26951	1026572	43396	109513	0	0	8154	649108	0	0
2024-07-06 09:37:32			0	35671	0	0	0	25711	24300	152688	27464	1026598	43397	109514	0	0	8155	648548	0	0
2024-07-06 09:38:32			0	35675	0	0	0	25714	24320	152532	27268	1026616	43410	109515	0	0	8155	648301	0	0
2024-07-06 09:39:32			0	35688	0	0	0	25714	24300	152600	27405	1026616	43396	109515	0	0	8156	647807	0	0
2024-07-06 09:40:32			0	35697	0	0	0	25711	24300	152572	27199	1026563	43385	109514	0	0	8156	647415	0	0
2024-07-06 09:41:32			0	35672	0	0	0	25719	24300	152664	27187	1026616	43385	109517	0	0	8155	648505	0	0
2024-07-06 09:42:32			0	35682	0	0	0	25719	24300	152584	27383	1026643	43385	109517	0	0	8156	648069	0	0
2024-07-06 09:43:32			0	35677	0	0	0	25732	24310	152580	27102	1026634	43387	109522	0	0	8155	648250	0	0
2024-07-06 09:44:32			0	35671	0	0	0	25724	24320	152596	27426	1026651	43399	109519	0	0	8155	648475	0	0
2024-07-06 09:45:32			0	35679	0	0	0	25714	24310	152540	27360	1026634	43387	109515	0	0	8155	648163	0	0
2024-07-06 09:46:32			0	35671	0	0	0	25761	24310	152548	27357	1026741	43398	109533	0	0	8154	648512	0	0
2024-07-06 09:47:32			0	35654	0	0	0	25792	24330	152668	27289	1026794	43410	109545	0	0	8153	649180	0	0
2024-07-06 09:48:32			0	35669	0	0	0	25776	24330	152688	27331	1026802	43400	109539	0	0	8154	648526	0	0
2024-07-06 09:49:32			0	35682	0	0	0	25753	24330	152620	27258	1026776	43421	109530	0	0	8155	647959	0	0
2024-07-06 09:50:32			0	35672	0	0	0	25732	24330	152704	27105	1026687	43399	109522	0	0	8155	648395	0	0
2024-07-06 09:51:32			0	35669	0	0	0	25724	24330	152636	27211	1026714	43399	109519	0	0	8155	648526	0	0
2024-07-06 09:52:32			0	35672	0	0	0	25716	24330	152664	27225	1026722	43388	109516	0	0	8155	648395	0	0
2024-07-06 09:53:32			0	35671	0	0	0	25719	24320	152624	27377	1026651	43399	109517	0	0	8155	648475	0	0
2024-07-06 09:54:32			0	35665	0	0	0	25722	24320	152696	27152	1026705	43399	109518	0	0	8155	648737	0	0
2024-07-06 09:55:32			0	35657	0	0	0	25714	24330	152672	27357	1026660	43387	109515	0	0	8154	649049	0	0
2024-07-06 09:56:32			0	35651	0	0	0	25709	24320	152596	27402	1026678	43399	109513	0	0	8154	649347	0	0
2024-07-06 09:57:32			0	35648	0	0	0	25714	24320	152620	27173	1026669	43399	109515	0	0	8154	649478	0	0
2024-07-06 09:58:32			0	35664	0	0	0	25709	24320	152688	27466	1026643	43387	109513	0	0	8155	648780	0	0
2024-07-06 09:59:32			0	35651	0	0	0	25711	24310	152688	27281	1026661	43387	109514	0	0	8154	649384	0	0
2024-07-06 10:00:32			0	35635	0	0	0	25706	24310	152696	27287	1026661	43398	109512	0	0	8153	650083	0	0
2024-07-06 10:01:32			0	35636	0	0	0	25716	24300	152668	27331	1026705	43397	109516	0	0	8153	650076	0	0
2024-07-06 10:02:32			0	35644	0	0	0	25729	24320	152728	27372	1026723	43399	109521	0	0	8153	649653	0	0
2024-07-06 10:03:32			0	35634	0	0	0	25735	24330	152812	27277	1026714	43387	109523	0	0	8153	650053	0	0
2024-07-06 10:04:32			0	35640	0	0	0	25737	24320	152760	27208	1026705	43420	109524	0	0	8153	649828	0	0
2024-07-06 10:05:32			0	35636	0	0	0	25737	24330	152692	27116	1026695	43400	109524	0	0	8153	649965	0	0
2024-07-06 10:06:32			0	35636	0	0	0	25745	24330	152864	27305	1026776	43411	109527	0	0	8153	649965	0	0
2024-07-06 10:07:32			0	35632	0	0	0	25745	24330	152780	27183	1026794	43410	109527	0	0	8153	650140	0	0
2024-07-06 10:08:32			0	35635	0	0	0	25750	24330	152888	27161	1026740	43410	109529	0	0	8153	650009	0	0
2024-07-06 10:09:32			0	35631	0	0	0	25763	24340	152744	27067	1026811	43389	109534	0	0	8152	650147	0	0
2024-07-06 10:10:32			0	35634	0	0	0	25758	24350	152748	27057	1026837	43402	109532	0	0	8153	649980	0	0
2024-07-06 10:11:32			0	35641	0	0	0	25742	24350	152760	27109	1026828	43401	109526	0	0	8153	649674	0	0
2024-07-06 10:12:32			0	35628	0	0	0	25753	24340	152644	27204	1026811	43401	109530	0	0	8152	650278	0	0
2024-07-06 10:13:32			0	35654	0	0	0	25748	24350	152652	27194	1026864	43413	109528	0	0	8154	649106	0	0
2024-07-06 10:14:32			0	35648	0	0	0	25758	24340	152748	27128	1026758	43401	109532	0	0	8153	649405	0	0
2024-07-06 10:15:32			0	35670	0	0	0	25761	24340	152528	27201	1026820	43412	109533	0	0	8154	648445	0	0
2024-07-06 10:16:32			0	35669	0	0	0	25755	24350	152600	27441	1026855	43401	109531	0	0	8154	648452	0	0
2024-07-06 10:17:32			0	35682	0	0	0	25779	24340	152596	27111	1026945	43412	109540	0	0	8155	647922	0	0
2024-07-06 10:18:32			0	35658	0	0	0	25807	24350	152580	27275	1027024	43402	109551	0	0	8153	648932	0	0
2024-07-06 10:19:32			0	35664	0	0	0	25828	24370	152564	27454	1027059	43403	109559	0	0	8153	648597	0	0
2024-07-06 10:20:32			0	35684	0	0	0	25838	24380	152508	27345	1027094	43404	109563	0	0	8154	647689	0	0
2024-07-06 10:21:32			0	35690	0	0	0	25836	24380	152512	27308	1027076	43405	109562	0	0	8154	647427	0	0
2024-07-06 10:22:32			0	35701	0	0	0	25828	24390	152496	27105	1027094	43405	109559	0	0	8155	646912	0	0
2024-07-06 10:23:32			0	35707	0	0	0	25818	24400	152424	27046	1027076	43406	109555	0	0	8156	646614	0	0
2024-07-06 10:24:32			0	35715	0	0	0	25807	24390	152372	27325	1027067	43394	109551	0	0	8156	646303	0	0
2024-07-06 10:25:32			0	35723	0	0	0	25799	24390	152332	27213	1027094	43405	109548	0	0	8157	645955	0	0
2024-07-06 10:26:32			0	35719	0	0	0	25805	24380	152360	27289	1027076	43416	109550	0	0	8156	646165	0	0
2024-07-06 10:27:32			0	35718	0	0	0	25810	24400	152308	26989	1027138	43418	109552	0	0	8156	646136	0	0
2024-07-06 10:28:32			0	35738	0	0	0	25818	24400	152308	27441	1027111	43407	109555	0	0	8157	645267	0	0
2024-07-06 10:29:32			0	35738	0	0	0	25792	24400	152212	27072	1027084	43407	109545	0	0	8158	645267	0	0
2024-07-06 10:30:32			0	35741	0	0	0	25807	24400	152280	27310	1027076	43406	109551	0	0	8158	645136	0	0
2024-07-06 10:31:32			0	35737	0	0	0	25810	24400	152228	27355	1027102	43395	109552	0	0	8157	645310	0	0
2024-07-06 10:32:32			0	35767	0	0	0	25815	24410	152124	27287	1027173	43418	109554	0	0	8159	643972	0	0
2024-07-06 10:33:32			0	35755	0	0	0	25836	24400	152232	27545	1027191	43407	109562	0	0	8158	644529	0	0
2024-07-06 10:34:32			0	35767	0	0	0	25823	24400	152152	27104	1027111	43418	109557	0	0	8159	644008	0	0
2024-07-06 10:35:32			0	35770	0	0	0	25844	24410	152272	27319	1027200	43407	109565	0	0	8159	643841	0	0
2024-07-06 10:36:32			0	35769	0	0	0	25854	24410	152304	27263	1027235	43418	109569	0	0	8158	643885	0	0
2024-07-06 10:37:32			0	35765	0	0	0	25862	24430	152176	27178	1027288	43419	109572	0	0	8158	643986	0	0
2024-07-06 10:38:32			0	35771	0	0	0	25854	24430	152192	27414	1027261	43419	109569	0	0	8159	643725	0	0
2024-07-06 10:39:32			0	35776	0	0	0	25846	24430	152168	27459	1027261	43419	109566	0	0	8159	643509	0	0
2024-07-06 10:40:32			0	35793	0	0	0	25846	24420	152116	27163	1027226	43409	109566	0	0	8160	642808	0	0
2024-07-06 10:41:32			0	35788	0	0	0	25841	24430	152056	27549	1027243	43409	109564	0	0	8160	642989	0	0
2024-07-06 10:42:32			0	35800	0	0	0	25844	24430	152080	27251	1027235	43398	109565	0	0	8160	642469	0	0
2024-07-06 10:43:32			0	35801	0	0	0	25836	24430	152032	27211	1027243	43419	109562	0	0	8160	642425	0	0
2024-07-06 10:44:32			0	35808	0	0	0	25838	24430	152052	26994	1027181	43409	109563	0	0	8161	642122	0	0
2024-07-06 10:45:32			0	35804	0	0	0	25823	24430	152020	27159	1027181	43398	109557	0	0	8161	642295	0	0
2024-07-06 10:46:32			0	35814	0	0	0	25828	24420	151924	27164	1027173	43409	109559	0	0	8161	641899	0	0
2024-07-06 10:47:32			0	35820	0	0	0	25833	24420	151980	27114	1027199	43409	109561	0	0	8161	641639	0	0
2024-07-06 10:48:32			0	35829	0	0	0	25828	24420	151852	27005	1027173	43409	109559	0	0	8162	641250	0	0
2024-07-06 10:49:32			0	35803	0	0	0	25836	24430	151960	27222	1027261	43431	109562	0	0	8161	642339	0	0
2024-07-06 10:50:32			0	35826	0	0	0	25833	24420	151776	27105	1027226	43419	109561	0	0	8162	641380	0	0
2024-07-06 10:51:32			0	35829	0	0	0	25841	24430	151864	26961	1027235	43419	109564	0	0	8162	641214	0	0
2024-07-06 10:52:32			0	35836	0	0	0	25838	24430	151880	26955	1027288	43409	109563	0	0	8162	640911	0	0
2024-07-06 10:53:32			0	35832	0	0	0	25838	24430	151828	27092	1027235	43409	109563	0	0	8162	641084	0	0
2024-07-06 10:54:32			0	35845	0	0	0	25828	24430	151916	27202	1027208	43398	109559	0	0	8163	640522	0	0
2024-07-06 10:55:32			0	35846	0	0	0	25823	24430	151820	27381	1027208	43409	109557	0	0	8163	640479	0	0
2024-07-06 10:56:32			0	35869	0	0	0	25828	24420	151729	27000	1027217	43408	109559	0	0	8164	639522	0	0
2024-07-06 10:57:32			0	35855	0	0	0	25825	24420	151704	27102	1027226	43398	109558	0	0	8163	640127	0	0
2024-07-06 10:58:32			0	35884	0	0	0	25838	24420	151737	27289	1027253	43419	109563	0	0	8165	638875	0	0
2024-07-06 10:59:32			0	35846	0	0	0	25823	24430	151724	27386	1027261	43409	109557	0	0	8163	640479	0	0
2024-07-06 11:00:32			0	35891	0	0	0	25841	24430	151589	27261	1027261	43409	109564	0	0	8165	638537	0	0
2024-07-06 11:01:32			0	35868	0	0	0	25859	24430	151721	27313	1027315	43431	109571	0	0	8164	639529	0	0
2024-07-06 11:02:32			0	35877	0	0	0	25877	24430	151677	27256	1027324	43419	109578	0	0	8164	639141	0	0
2024-07-06 11:03:32			0	35887	0	0	0	25875	24450	151689	26977	1027377	43422	109577	0	0	8164	638637	0	0
2024-07-06 11:04:32			0	35892	0	0	0	25875	24450	151613	27161	1027350	43401	109577	0	0	8165	638422	0	0
2024-07-06 11:05:32			0	35906	0	0	0	25880	24440	151541	27194	1027395	43411	109579	0	0	8165	637854	0	0
2024-07-06 11:06:32			0	35905	0	0	0	25859	24460	151469	27204	1027341	43401	109571	0	0	8166	637826	0	0
2024-07-06 11:07:32			0	35920	0	0	0	25857	24460	151525	27161	1027341	43412	109570	0	0	8167	637180	0	0
2024-07-06 11:08:32			0	35941	0	0	0	25854	24450	151465	27301	1027323	43401	109569	0	0	8168	636312	0	0
2024-07-06 11:09:32			0	35938	0	0	0	25846	24450	151485	27034	1027332	43422	109566	0	0	8168	636441	0	0
2024-07-06 11:10:32			0	35930	0	0	0	25846	24460	151441	27383	1027287	43422	109566	0	0	8167	636749	0	0
2024-07-06 11:11:32			0	35946	0	0	0	25854	24450	151413	27443	1027323	43412	109569	0	0	8168	636097	0	0
2024-07-06 11:12:32			0	35957	0	0	0	25862	24440	151361	26904	1027341	43421	109572	0	0	8168	635660	0	0
2024-07-06 11:13:32			0	35957	0	0	0	25864	24450	151293	27171	1027359	43422	109573	0	0	8168	635624	0	0
2024-07-06 11:14:32			0	35965	0	0	0	25870	24440	151365	26968	1027315	43433	109575	0	0	8169	635317	0	0
2024-07-06 11:15:32			0	35971	0	0	0	25862	24460	151245	27182	1027448	43422	109572	0	0	8169	634987	0	0
2024-07-06 11:16:32			0	35970	0	0	0	25857	24450	151189	27204	1027412	43412	109570	0	0	8169	635066	0	0
2024-07-06 11:17:32			0	35976	0	0	0	25859	24450	151173	27114	1027385	43422	109571	0	0	8169	634808	0	0
2024-07-06 11:18:32			0	35974	0	0	0	25870	24450	151225	27350	1027412	43434	109575	0	0	8169	634894	0	0
2024-07-06 11:19:32			0	35986	0	0	0	25883	24460	151257	27282	1027429	43423	109580	0	0	8170	634343	0	0
2024-07-06 11:20:32			0	35984	0	0	0	25872	24460	151213	27097	1027448	43422	109576	0	0	8170	634429	0	0
2024-07-06 11:21:32			0	36007	0	0	0	25877	24460	151133	27152	1027483	43435	109578	0	0	8171	633443	0	0
2024-07-06 11:22:32			0	36010	0	0	0	25885	24470	151157	27095	1027447	43414	109581	0	0	8171	633278	0	0
2024-07-06 11:23:32			0	36010	0	0	0	25880	24480	151073	27095	1027509	43424	109579	0	0	8171	633243	0	0
2024-07-06 11:24:32			0	36012	0	0	0	25875	24470	151077	27059	1027474	43424	109577	0	0	8171	633192	0	0
2024-07-06 11:25:32			0	36032	0	0	0	25880	24480	150997	27308	1027429	43424	109579	0	0	8172	632300	0	0
2024-07-06 11:26:32			0	36028	0	0	0	25875	24470	150969	27182	1027385	43424	109577	0	0	8172	632507	0	0
2024-07-06 11:27:32			0	36047	0	0	0	25877	24470	150981	26897	1027358	43403	109578	0	0	8173	631694	0	0
2024-07-06 11:28:32			0	36058	0	0	0	25875	24470	150785	27175	1027500	43424	109577	0	0	8174	631224	0	0
2024-07-06 11:29:32			0	36067	0	0	0	25883	24470	150837	27332	1027518	43414	109580	0	0	8174	630839	0	0
2024-07-06 11:30:32			0	36054	0	0	0	25880	24480	150829	27241	1027518	43425	109579	0	0	8173	631359	0	0
2024-07-06 11:31:32			0	36058	0	0	0	25875	24470	150865	26760	1027474	43414	109577	0	0	8174	631224	0	0
2024-07-06 11:32:32			0	36071	0	0	0	25864	24470	150725	27090	1027420	43414	109573	0	0	8175	630668	0	0
2024-07-06 11:33:32			0	36092	0	0	0	25875	24470	150701	27154	1027474	43414	109577	0	0	8175	629771	0	0
2024-07-06 11:34:32			0	36106	0	0	0	25872	24470	150769	27244	1027385	43414	109576	0	0	8176	629174	0	0
2024-07-06 11:35:32			0	36112	0	0	0	25859	24470	150677	27145	1027411	43403	109571	0	0	8177	628918	0	0
2024-07-06 11:36:32			0	36131	0	0	0	25867	24470	150653	27371	1027447	43414	109574	0	0	8178	628108	0	0
2024-07-06 11:37:32			0	36143	0	0	0	25867	24460	150565	27293	1027403	43413	109574	0	0	8178	627632	0	0
2024-07-06 11:38:32			0	36143	0	0	0	25880	24470	150525	27616	1027492	43414	109579	0	0	8178	627596	0	0
2024-07-06 11:39:32			0	36131	0	0	0	25877	24480	150501	27298	1027518	43415	109578	0	0	8178	628072	0	0
2024-07-06 11:40:32			0	36135	0	0	0	25883	24480	150529	27258	1027429	43414	109580	0	0	8178	627902	0	0
2024-07-06 11:41:32			0	36136	0	0	0	25888	24470	150541	27215	1027474	43414	109582	0	0	8178	627895	0	0
2024-07-06 11:42:32			0	36164	0	0	0	25875	24480	150597	27194	1027482	43414	109577	0	0	8179	626667	0	0
2024-07-06 11:43:32			0	36153	0	0	0	25883	24470	150421	27300	1027492	43414	109580	0	0	8179	627171	0	0
2024-07-06 11:44:32			0	36143	0	0	0	25885	24470	150501	27095	1027474	43424	109581	0	0	8178	627596	0	0
2024-07-06 11:45:32			0	36154	0	0	0	25893	24480	150525	27105	1027544	43425	109584	0	0	8178	627093	0	0
2024-07-06 11:46:32			0	36156	0	0	0	25893	24480	150497	27459	1027544	43425	109584	0	0	8179	627008	0	0
2024-07-06 11:47:32			0	36149	0	0	0	25893	24480	150501	27307	1027571	43425	109584	0	0	8178	627306	0	0
2024-07-06 11:48:32			0	36149	0	0	0	25893	24490	150505	27708	1027580	43416	109584	0	0	8178	627270	0	0
2024-07-06 11:49:32			0	36147	0	0	0	25906	24490	150505	27232	1027633	43416	109589	0	0	8178	627355	0	0
2024-07-06 11:50:32			0	36141	0	0	0	25916	24490	150613	27722	1027589	43416	109593	0	0	8177	627611	0	0
2024-07-06 11:51:32			0	36137	0	0	0	25929	24500	150549	27157	1027651	43426	109598	0	0	8177	627746	0	0
2024-07-06 11:52:32			0	36120	0	0	0	25935	24490	150549	27228	1027669	43426	109600	0	0	8176	628506	0	0
2024-07-06 11:53:32			0	36130	0	0	0	25966	24500	150685	27507	1027766	43427	109612	0	0	8176	628044	0	0
2024-07-06 11:54:32			0	36114	0	0	0	25976	24520	150693	27402	1027846	43440	109616	0	0	8175	628655	0	0
2024-07-06 11:55:32			0	36134	0	0	0	25948	24520	150617	27386	1027774	43440	109605	0	0	8177	627802	0	0
2024-07-06 11:56:32			0	36106	0	0	0	25940	24520	150665	27244	1027721	43429	109602	0	0	8175	628996	0	0
2024-07-06 11:57:32			0	36097	0	0	0	25945	24530	150717	27428	1027837	43418	109604	0	0	8175	629344	0	0
2024-07-06 11:58:32			0	36101	0	0	0	25973	24530	150733	27362	1027792	43431	109615	0	0	8175	629173	0	0
2024-07-06 11:59:32			0	36076	0	0	0	25981	24540	150793	27310	1027854	43431	109618	0	0	8173	630205	0	0
2024-07-06 12:00:32			0	36070	0	0	0	25999	24540	150833	27644	1027970	43431	109625	0	0	8172	630461	0	0
2024-07-06 12:01:32			0	36051	0	0	0	25999	24550	150921	27303	1027960	43421	109625	0	0	8172	631237	0	0
2024-07-06 12:02:32			0	36066	0	0	0	26012	24560	150881	27223	1028023	43433	109630	0	0	8172	630560	0	0
2024-07-06 12:03:32			0	36045	0	0	0	26018	24560	151037	26989	1028031	43433	109632	0	0	8171	631458	0	0
2024-07-06 12:04:32			0	36030	0	0	0	26018	24580	151049	27260	1028057	43446	109632	0	0	8170	632028	0	0
2024-07-06 12:05:32			0	36041	0	0	0	26025	24570	150977	27512	1027987	43434	109635	0	0	8171	631593	0	0
2024-07-06 12:06:32			0	36030	0	0	0	26023	24590	151057	27400	1028021	43435	109634	0	0	8170	631993	0	0
2024-07-06 12:07:32			0	35989	0	0	0	26023	24580	151177	27131	1028066	43424	109634	0	0	8168	633784	0	0
2024-07-06 12:08:32			0	35994	0	0	0	26010	24580	151125	27176	1028057	43446	109629	0	0	8168	633570	0	0
2024-07-06 12:09:32			0	35995	0	0	0	25997	24590	151077	27170	1028048	43435	109624	0	0	8169	633491	0	0
2024-07-06 12:10:32			0	35988	0	0	0	26007	24590	151129	27222	1028057	43415	109628	0	0	8168	633791	0	0
2024-07-06 12:11:32			0	35994	0	0	0	26020	24590	151129	27286	1028083	43436	109633	0	0	8168	633534	0	0
2024-07-06 12:12:32			0	36003	0	0	0	26012	24590	151113	27182	1028057	43425	109630	0	0	8169	633149	0	0
2024-07-06 12:13:32			0	36000	0	0	0	26010	24600	151125	27249	1028154	43437	109629	0	0	8169	633241	0	0
2024-07-06 12:14:32			0	35995	0	0	0	26010	24600	151093	26975	1028172	43436	109629	0	0	8169	633455	0	0
2024-07-06 12:15:32			0	35998	0	0	0	26012	24600	151097	27203	1028092	43425	109630	0	0	8169	633327	0	0
2024-07-06 12:16:32			0	35995	0	0	0	26002	24590	151081	27213	1028075	43435	109626	0	0	8169	633491	0	0
2024-07-06 12:17:32			0	35997	0	0	0	25994	24590	151061	27225	1028110	43425	109623	0	0	8169	633405	0	0
2024-07-06 12:18:32			0	36008	0	0	0	25999	24600	151065	26913	1028065	43425	109625	0	0	8169	632898	0	0
2024-07-06 12:19:32			0	35981	0	0	0	26018	24590	151101	27327	1028102	43424	109632	0	0	8168	634091	0	0
2024-07-06 12:20:32			0	35985	0	0	0	26023	24600	151113	27228	1028181	43449	109634	0	0	8168	633884	0	0
2024-07-06 12:21:32			0	35962	0	0	0	26023	24610	151221	27012	1028136	43459	109634	0	0	8167	634835	0	0
2024-07-06 12:22:32			0	35935	0	0	0	26033	24620	151449	26967	1028172	43427	109638	0	0	8165	635958	0	0
2024-07-06 12:23:32			0	35893	0	0	0	26028	24610	151609	27440	1028190	43437	109636	0	0	8163	637801	0	0
2024-07-06 12:24:32			0	35856	0	0	0	26049	24610	151708	26987	1028163	43416	109644	0	0	8161	639396	0	0
2024-07-06 12:25:32			0	35805	0	0	0	26067	24610	151812	27400	1028243	43437	109651	0	0	8158	641599	0	0
2024-07-06 12:26:32			0	35797	0	0	0	26054	24620	151872	27163	1028314	43439	109646	0	0	8157	641909	0	0
2024-07-06 12:27:32			0	35757	0	0	0	26062	24630	152164	27436	1028305	43439	109649	0	0	8155	643604	0	0
2024-07-06 12:28:32			0	35756	0	0	0	26072	24640	152204	27415	1028313	43429	109653	0	0	8155	643611	0	0
2024-07-06 12:29:32			0	35708	0	0	0	26096	24640	152356	27168	1028340	43462	109662	0	0	8152	645694	0	0
2024-07-06 12:30:32			0	35702	0	0	0	26088	24640	152444	27383	1028376	43441	109659	0	0	8152	645955	0	0
2024-07-06 12:31:32			0	35675	0	0	0	26064	24650	152568	27390	1028358	43430	109650	0	0	8151	647092	0	0
2024-07-06 12:32:32			0	35624	0	0	0	26062	24650	152696	27235	1028393	43442	109649	0	0	8148	649314	0	0
2024-07-06 12:33:32			0	35604	0	0	0	26070	24650	152728	27275	1028358	43430	109652	0	0	8147	650187	0	0
2024-07-06 12:34:32			0	35608	0	0	0	26101	24650	152820	27119	1028358	43463	109664	0	0	8147	650012	0	0
2024-07-06 12:35:32			0	35548	0	0	0	26085	24660	153008	27145	1028375	43442	109658	0	0	8144	652598	0	0
2024-07-06 12:36:32			0	35513	0	0	0	26064	24650	153112	27019	1028393	43419	109650	0	0	8142	654169	0	0
2024-07-06 12:37:32			0	35494	0	0	0	26070	24660	153276	27112	1028402	43442	109652	0	0	8141	654965	0	0
2024-07-06 12:38:32			0	35491	0	0	0	26083	24660	153272	26882	1028491	43443	109657	0	0	8141	655097	0	0
2024-07-06 12:39:32			0	35469	0	0	0	26090	24660	153228	26987	1028437	43465	109660	0	0	8139	656063	0	0
2024-07-06 12:40:32			0	35457	0	0	0	26111	24670	153336	27183	1028446	43454	109668	0	0	8138	656554	0	0
2024-07-06 12:41:32			0	35458	0	0	0	26119	24670	153312	27057	1028508	43466	109671	0	0	8138	656510	0	0
2024-07-06 12:42:32			0	35464	0	0	0	26090	24680	153216	27448	1028543	43466	109660	0	0	8139	656209	0	0
2024-07-06 12:43:32			0	35466	0	0	0	26051	24660	153208	27306	1028410	43432	109645	0	0	8140	656195	0	0
2024-07-06 12:44:32			0	35491	0	0	0	26054	24670	153192	27081	1028428	43444	109646	0	0	8141	655060	0	0
2024-07-06 12:45:32			0	35508	0	0	0	26057	24670	152940	27033	1028392	43443	109647	0	0	8142	654314	0	0
2024-07-06 12:46:32			0	35557	0	0	0	26072	24670	152824	27286	1028392	43420	109653	0	0	8145	652167	0	0
2024-07-06 12:47:32			0	35598	0	0	0	26072	24660	152716	27164	1028375	43431	109653	0	0	8147	650412	0	0
2024-07-06 12:48:32			0	35619	0	0	0	26083	24670	152636	27029	1028446	43443	109657	0	0	8148	649459	0	0
2024-07-06 12:49:32			0	35607	0	0	0	26096	24660	152764	27435	1028491	43465	109662	0	0	8147	650019	0	0
2024-07-06 12:50:32			0	35548	0	0	0	26093	24670	152828	27367	1028446	43432	109661	0	0	8144	652561	0	0
2024-07-06 12:51:32			0	35558	0	0	0	26077	24670	152948	27445	1028481	43444	109655	0	0	8144	652124	0	0
2024-07-06 12:52:32			0	35525	0	0	0	26059	24680	152952	27046	1028436	43433	109648	0	0	8143	653532	0	0
2024-07-06 12:53:32			0	35507	0	0	0	26088	24670	153012	27130	1028454	43455	109659	0	0	8142	654358	0	0
2024-07-06 12:54:32			0	35479	0	0	0	26080	24680	153220	27452	1028490	43433	109656	0	0	8140	655550	0	0
2024-07-06 12:55:32			0	35467	0	0	0	26083	24670	153272	27234	1028401	43433	109657	0	0	8139	656114	0	0
2024-07-06 12:56:32			0	35447	0	0	0	26059	24670	153368	27105	1028392	43432	109648	0	0	8139	656994	0	0
2024-07-06 12:57:32			0	35424	0	0	0	26051	24660	153420	27258	1028410	43432	109645	0	0	8138	658043	0	0
2024-07-06 12:58:32			0	35397	0	0	0	26062	24670	153600	27320	1028401	43421	109649	0	0	8136	659196	0	0
2024-07-06 12:59:32			0	35377	0	0	0	26075	24660	153744	27196	1028402	43431	109654	0	0	8135	660116	0	0
2024-07-06 13:00:32			0	35340	0	0	0	26062	24660	153752	27149	1028375	43442	109649	0	0	8133	661751	0	0
2024-07-06 13:01:32			0	35353	0	0	0	26072	24660	153792	27114	1028410	43465	109653	0	0	8134	661176	0	0
2024-07-06 13:02:32			0	35354	0	0	0	26072	24660	153888	27164	1028428	43431	109653	0	0	8134	661132	0	0
2024-07-06 13:03:32			0	35364	0	0	0	26072	24660	153752	27227	1028384	43443	109653	0	0	8134	660690	0	0
2024-07-06 13:04:32			0	35377	0	0	0	26075	24670	153768	27282	1028473	43443	109654	0	0	8135	660078	0	0
2024-07-06 13:05:32			0	35394	0	0	0	26070	24670	153668	27194	1028454	43444	109652	0	0	8136	659328	0	0
2024-07-06 13:06:32			0	35394	0	0	0	26090	24680	153652	27256	1028472	43434	109660	0	0	8136	659291	0	0
2024-07-06 13:07:32			0	35415	0	0	0	26085	24680	153568	27447	1028463	43444	109658	0	0	8137	658365	0	0
2024-07-06 13:08:32			0	35428	0	0	0	26088	24680	153456	27301	1028436	43433	109659	0	0	8137	657792	0	0
2024-07-06 13:09:32			0	35425	0	0	0	26083	24680	153396	27367	1028463	43444	109657	0	0	8137	657925	0	0
2024-07-06 13:10:32			0	35429	0	0	0	26109	24680	153416	26960	1028517	43444	109667	0	0	8137	657748	0	0
2024-07-06 13:11:32			0	35444	0	0	0	26109	24690	153492	27293	1028561	43445	109667	0	0	8138	657051	0	0
2024-07-06 13:12:32			0	35449	0	0	0	26109	24690	153464	27211	1028615	43456	109667	0	0	8138	656831	0	0
2024-07-06 13:13:32			0	35427	0	0	0	26119	24690	153512	27303	1028597	43457	109671	0	0	8137	657799	0	0
2024-07-06 13:14:32			0	35446	0	0	0	26111	24690	153368	27109	1028570	43446	109668	0	0	8138	656963	0	0
2024-07-06 13:15:32			0	35431	0	0	0	26129	24690	153424	27348	1028623	43446	109675	0	0	8137	657623	0	0
2024-07-06 13:16:32			0	35425	0	0	0	26132	24700	153416	27166	1028632	43468	109676	0	0	8137	657850	0	0
2024-07-06 13:17:32			0	35426	0	0	0	26135	24700	153420	27189	1028694	43435	109677	0	0	8137	657806	0	0
2024-07-06 13:18:32			0	35448	0	0	0	26129	24700	153388	27092	1028667	43458	109675	0	0	8138	656838	0	0
2024-07-06 13:19:32			0	35423	0	0	0	26142	24720	153420	27209	1028756	43449	109680	0	0	8136	657864	0	0
2024-07-06 13:20:32			0	35443	0	0	0	26140	24720	153316	27163	1028675	43449	109679	0	0	8137	656984	0	0
2024-07-06 13:21:32			0	35422	0	0	0	26135	24720	153468	27190	1028729	43437	109677	0	0	8136	657908	0	0
2024-07-06 13:22:32			0	35422	0	0	0	26119	24720	153444	27537	1028729	43449	109671	0	0	8137	657908	0	0
2024-07-06 13:23:32			0	35423	0	0	0	26124	24720	153504	27241	1028675	43449	109673	0	0	8137	657864	0	0
2024-07-06 13:24:32			0	35395	0	0	0	26129	24720	153564	26949	1028756	43437	109675	0	0	8135	659097	0	0
2024-07-06 13:25:32			0	35382	0	0	0	26132	24710	153660	27306	1028649	43447	109676	0	0	8134	659708	0	0
2024-07-06 13:26:32			0	35343	0	0	0	26142	24720	153720	27150	1028667	43449	109680	0	0	8132	661393	0	0
2024-07-06 13:27:32			0	35334	0	0	0	26163	24720	153856	27405	1028675	43449	109688	0	0	8131	661791	0	0
2024-07-06 13:28:32			0	35314	0	0	0	26168	24730	153828	27072	1028738	43450	109690	0	0	8130	662639	0	0
2024-07-06 13:29:32			0	35317	0	0	0	26116	24740	153952	27324	1028728	43461	109670	0	0	8131	662468	0	0
2024-07-06 13:30:32			0	35333	0	0	0	26109	24720	153888	27263	1028622	43437	109667	0	0	8132	661835	0	0
2024-07-06 13:31:32			0	35326	0	0	0	26093	24720	153892	27152	1028613	43449	109661	0	0	8132	662145	0	0
2024-07-06 13:32:32			0	35308	0	0	0	26085	24720	153888	27067	1028595	43416	109658	0	0	8131	662942	0	0
2024-07-06 13:33:32			0	35312	0	0	0	26085	24710	153980	26991	1028569	43447	109658	0	0	8131	662802	0	0
2024-07-06 13:34:32			0	35285	0	0	0	26109	24720	154096	27248	1028649	43426	109667	0	0	8129	663961	0	0
2024-07-06 13:35:32			0	35290	0	0	0	26140	24710	154080	27152	1028658	43448	109679	0	0	8129	663777	0	0
2024-07-06 13:36:32			0	35272	0	0	0	26155	24720	154176	26958	1028720	43437	109685	0	0	8128	664537	0	0
2024-07-06 13:37:32			0	35260	0	0	0	26158	24720	154232	27112	1028720	43470	109686	0	0	8127	665070	0	0
2024-07-06 13:38:32			0	35275	0	0	0	26145	24730	154232	27010	1028738	43460	109681	0	0	8128	664367	0	0
2024-07-06 13:39:32			0	35273	0	0	0	26142	24730	154156	27431	1028764	43450	109680	0	0	8128	664455	0	0
2024-07-06 13:40:32			0	35281	0	0	0	26145	24720	154044	27294	1028702	43449	109681	0	0	8129	664138	0	0
2024-07-06 13:41:32			0	35291	0	0	0	26127	24730	154076	27364	1028720	43427	109674	0	0	8130	663657	0	0
2024-07-06 13:42:32			0	35303	0	0	0	26137	24730	153996	27000	1028684	43438	109678	0	0	8130	663126	0	0
2024-07-06 13:43:32			0	35307	0	0	0	26124	24720	154060	27403	1028756	43459	109673	0	0	8130	662986	0	0
2024-07-06 13:44:32			0	35301	0	0	0	26135	24730	154056	27287	1028773	43438	109677	0	0	8130	663214	0	0
2024-07-06 13:45:32			0	35281	0	0	0	26132	24730	154076	27022	1028711	43427	109676	0	0	8129	664101	0	0
2024-07-06 13:46:32			0	35264	0	0	0	26124	24730	154132	27355	1028764	43460	109673	0	0	8128	664855	0	0
2024-07-06 13:47:32			0	35272	0	0	0	26135	24730	154108	27357	1028738	43438	109677	0	0	8128	664500	0	0
2024-07-06 13:48:32			0	35260	0	0	0	26132	24730	154180	27289	1028746	43450	109676	0	0	8128	665032	0	0
2024-07-06 13:49:32			0	35249	0	0	0	26124	24730	154332	27216	1028738	43450	109673	0	0	8127	665520	0	0
2024-07-06 13:50:32			0	35253	0	0	0	26132	24720	154160	27530	1028720	43449	109676	0	0	8127	665381	0	0
2024-07-06 13:51:32			0	35244	0	0	0	26124	24730	154180	27176	1028684	43438	109673	0	0	8127	665743	0	0
2024-07-06 13:52:32			0	35233	0	0	0	26119	24720	154280	27111	1028729	43459	109671	0	0	8127	666269	0	0
2024-07-06 13:53:32			0	35224	0	0	0	26132	24720	154400	27152	1028729	43437	109676	0	0	8126	666669	0	0
2024-07-06 13:54:32			0	35230	0	0	0	26127	24730	154308	27067	1028738	43438	109674	0	0	8126	666365	0	0
2024-07-06 13:55:32			0	35213	0	0	0	26116	24730	154400	27460	1028711	43450	109670	0	0	8126	667121	0	0
2024-07-06 13:56:32			0	35213	0	0	0	26116	24730	154444	27222	1028684	43450	109670	0	0	8126	667121	0	0
2024-07-06 13:57:32			0	35215	0	0	0	26127	24720	154456	27085	1028622	43459	109674	0	0	8125	667069	0	0
2024-07-06 13:58:32			0	35198	0	0	0	26116	24730	154416	27114	1028853	43460	109670	0	0	8125	667788	0	0
2024-07-06 13:59:32			0	35180	0	0	0	26127	24710	154608	27424	1028649	43447	109674	0	0	8123	668666	0	0
2024-07-06 14:00:32			0	35170	0	0	0	26122	24730	154596	27050	1028711	43438	109672	0	0	8123	669036	0	0
2024-07-06 14:01:32			0	35173	0	0	0	26114	24720	154688	26890	1028649	43437	109669	0	0	8123	668940	0	0
2024-07-06 14:02:32			0	35177	0	0	0	26111	24720	154712	26968	1028729	43437	109668	0	0	8124	668762	0	0
2024-07-06 14:03:32			0	35146	0	0	0	26119	24720	154564	27079	1028747	43437	109671	0	0	8122	670144	0	0
2024-07-06 14:04:32			0	35168	0	0	0	26116	24710	154624	27319	1028649	43447	109670	0	0	8123	669201	0	0
2024-07-06 14:05:32			0	35161	0	0	0	26122	24720	154660	27225	1028729	43449	109672	0	0	8123	669475	0	0
2024-07-06 14:06:32			0	35149	0	0	0	26129	24720	154696	27161	1028720	43437	109675	0	0	8122	670010	0	0
2024-07-06 14:07:32			0	35157	0	0	0	26132	24720	154664	27232	1028675	43437	109676	0	0	8122	669653	0	0
2024-07-06 14:08:32			0	35149	0	0	0	26132	24730	154676	27039	1028738	43471	109676	0	0	8122	669972	0	0
2024-07-06 14:09:32			0	35136	0	0	0	26140	24730	154624	27255	1028764	43450	109679	0	0	8121	670553	0	0
2024-07-06 14:10:32			0	35141	0	0	0	26145	24730	154728	26925	1028738	43471	109681	0	0	8121	670329	0	0
2024-07-06 14:11:32			0	35130	0	0	0	26153	24730	154768	27237	1028764	43460	109684	0	0	8120	670821	0	0
2024-07-06 14:12:32			0	35145	0	0	0	26166	24740	154740	27289	1028862	43461	109689	0	0	8121	670113	0	0
2024-07-06 14:13:32			0	35159	0	0	0	26174	24740	154756	27190	1028862	43451	109692	0	0	8122	669488	0	0
2024-07-06 14:14:32			0	35131	0	0	0	26166	24740	154728	27296	1028844	43451	109689	0	0	8120	670738	0	0
2024-07-06 14:15:32			0	35150	0	0	0	26150	24750	154716	27079	1028879	43451	109683	0	0	8122	669852	0	0
2024-07-06 14:16:32			0	35154	0	0	0	26153	24750	154680	27343	1028906	43451	109684	0	0	8122	669673	0	0
2024-07-06 14:17:32			0	35145	0	0	0	26153	24740	154664	27133	1028844	43439	109684	0	0	8121	670113	0	0
2024-07-06 14:18:32			0	35148	0	0	0	26161	24740	154664	27360	1028844	43461	109687	0	0	8121	669979	0	0
2024-07-06 14:19:32			0	35141	0	0	0	26179	24750	154788	27046	1028879	43462	109694	0	0	8121	670254	0	0
2024-07-06 14:20:32			0	35161	0	0	0	26179	24740	154764	27320	1028924	43461	109694	0	0	8122	669399	0	0
2024-07-06 14:21:32			0	35158	0	0	0	26192	24760	154780	27438	1028924	43474	109699	0	0	8121	669457	0	0
2024-07-06 14:22:32			0	35137	0	0	0	26192	24750	154772	27190	1028915	43473	109699	0	0	8120	670432	0	0
2024-07-06 14:23:32			0	35144	0	0	0	26192	24760	154768	27386	1028986	43453	109699	0	0	8121	670082	0	0
2024-07-06 14:24:32			0	35147	0	0	0	26189	24760	154708	27235	1028977	43463	109698	0	0	8121	669948	0	0
2024-07-06 14:25:32			0	35150	0	0	0	26181	24760	154720	27381	1028932	43453	109695	0	0	8121	669814	0	0
2024-07-06 14:26:32			0	35177	0	0	0	26189	24770	154604	27405	1029003	43453	109698	0	0	8123	668572	0	0
2024-07-06 14:27:32			0	35168	0	0	0	26184	24770	154592	27046	1029030	43453	109696	0	0	8122	668973	0	0
2024-07-06 14:28:32			0	35159	0	0	0	26197	24770	154716	27083	1029003	43475	109701	0	0	8121	669375	0	0
2024-07-06 14:29:32			0	35173	0	0	0	26207	24770	154624	27332	1029030	43453	109705	0	0	8122	668750	0	0
2024-07-06 14:30:32			0	35160	0	0	0	26223	24770	154592	27274	1028968	43464	109711	0	0	8121	669330	0	0
2024-07-06 14:31:32			0	35153	0	0	0	26228	24780	154576	26991	1029074	43477	109713	0	0	8121	669604	0	0
2024-07-06 14:32:32			0	35161	0	0	0	26220	24790	154528	27485	1029136	43455	109710	0	0	8121	669210	0	0
2024-07-06 14:33:32			0	35160	0	0	0	26212	24790	154524	27209	1029145	43444	109707	0	0	8121	669254	0	0
2024-07-06 14:34:32			0	35172	0	0	0	26215	24800	154504	26844	1029100	43467	109708	0	0	8122	668681	0	0
2024-07-06 14:35:32			0	35195	0	0	0	26212	24800	154428	27149	1029100	43445	109707	0	0	8123	667657	0	0
2024-07-06 14:36:32			0	35174	0	0	0	26212	24800	154484	27171	1029100	43456	109707	0	0	8122	668592	0	0
2024-07-06 14:37:32			0	35192	0	0	0	26215	24800	154476	27124	1029180	43456	109708	0	0	8123	667791	0	0
2024-07-06 14:38:32			0	35174	0	0	0	26205	24800	154464	27280	1029154	43445	109704	0	0	8122	668592	0	0
2024-07-06 14:39:32			0	35169	0	0	0	26202	24800	154548	27286	1029162	43490	109703	0	0	8122	668815	0	0
2024-07-06 14:40:32			0	35161	0	0	0	26202	24800	154596	27405	1029073	43456	109703	0	0	8122	669172	0	0
2024-07-06 14:41:32			0	35165	0	0	0	26202	24810	154512	27225	1029171	43446	109703	0	0	8122	668955	0	0
2024-07-06 14:42:32			0	35168	0	0	0	26212	24800	154576	27274	1029109	43457	109707	0	0	8122	668860	0	0
2024-07-06 14:43:32			0	35150	0	0	0	26212	24800	154584	27055	1029216	43457	109707	0	0	8121	669662	0	0
2024-07-06 14:44:32			0	35160	0	0	0	26220	24800	154544	27182	1029189	43457	109710	0	0	8121	669216	0	0
2024-07-06 14:45:32			0	35148	0	0	0	26210	24810	154660	26979	1029180	43468	109706	0	0	8121	669713	0	0
2024-07-06 14:46:32			0	35147	0	0	0	26189	24810	154532	27095	1029171	43457	109698	0	0	8121	669758	0	0
2024-07-06 14:47:32			0	35161	0	0	0	26184	24800	154560	26890	1029154	43433	109696	0	0	8122	669172	0	0
2024-07-06 14:48:32			0	35172	0	0	0	26184	24800	154552	27272	1029109	43446	109696	0	0	8122	668681	0	0
2024-07-06 14:49:32			0	35152	0	0	0	26184	24800	154736	27026	1029154	43478	109696	0	0	8121	669573	0	0
2024-07-06 14:50:32			0	35157	0	0	0	26184	24800	154632	27367	1029109	43479	109696	0	0	8122	669350	0	0
2024-07-06 14:51:32			0	35144	0	0	0	26207	24800	154636	27168	1029047	43445	109705	0	0	8121	669930	0	0
2024-07-06 14:52:32			0	35132	0	0	0	26249	24800	154548	26998	1029136	43457	109721	0	0	8119	670466	0	0
2024-07-06 14:53:32			0	35133	0	0	0	26236	24810	154848	27088	1029234	43458	109716	0	0	8120	670383	0	0
2024-07-06 14:54:32			0	35107	0	0	0	26223	24810	154763	27298	1029153	43458	109711	0	0	8118	671544	0	0
2024-07-06 14:55:32			0	35114	0	0	0	26199	24810	154852	26960	1029180	43458	109702	0	0	8119	671232	0	0
2024-07-06 14:56:32			0	35086	0	0	0	26197	24810	154891	27353	1029171	43457	109701	0	0	8118	672484	0	0
2024-07-06 14:57:32			0	35108	0	0	0	26199	24810	155007	27417	1029153	43468	109702	0	0	8119	671500	0	0
2024-07-06 14:58:32			0	35096	0	0	0	26192	24810	154907	26939	1029171	43446	109699	0	0	8118	672036	0	0
2024-07-06 14:59:32			0	35082	0	0	0	26194	24810	154951	27435	1029180	43458	109700	0	0	8117	672663	0	0
2024-07-06 15:00:32			0	35101	0	0	0	26207	24800	155043	27190	1029180	43456	109705	0	0	8118	671851	0	0
2024-07-06 15:01:32			0	35077	0	0	0	26218	24810	155015	27381	1029180	43458	109709	0	0	8117	672886	0	0
2024-07-06 15:02:32			0	35079	0	0	0	26225	24820	155007	27357	1029135	43458	109712	0	0	8117	672759	0	0
2024-07-06 15:03:32			0	35081	0	0	0	26231	24810	155003	27164	1029225	43457	109714	0	0	8117	672707	0	0
2024-07-06 15:04:32			0	35072	0	0	0	26231	24820	155011	27194	1029171	43458	109714	0	0	8116	673072	0	0
2024-07-06 15:05:32			0	35077	0	0	0	26231	24830	155079	26939	1029260	43459	109714	0	0	8117	672810	0	0
2024-07-06 15:06:32			0	35084	0	0	0	26223	24820	155023	27260	1029242	43468	109711	0	0	8117	672535	0	0
2024-07-06 15:07:32			0	35088	0	0	0	26228	24830	154983	27201	1029286	43459	109713	0	0	8117	672318	0	0
2024-07-06 15:08:32			0	35076	0	0	0	26210	24820	154987	27533	1029242	43458	109706	0	0	8117	672893	0	0
2024-07-06 15:09:32			0	35064	0	0	0	26218	24830	154991	27036	1029260	43449	109709	0	0	8116	673392	0	0
2024-07-06 15:10:32			0	35093	0	0	0	26220	24820	155015	27371	1029278	43458	109710	0	0	8118	672132	0	0
2024-07-06 15:11:32			0	35068	0	0	0	26236	24820	155031	27535	1029242	43458	109716	0	0	8116	673251	0	0
2024-07-06 15:12:32			0	35069	0	0	0	26238	24830	154975	27260	1029260	43449	109717	0	0	8116	673168	0	0
2024-07-06 15:13:32			0	35067	0	0	0	26244	24830	155087	27145	1029286	43449	109719	0	0	8116	673258	0	0
2024-07-06 15:14:32			0	35057	0	0	0	26249	24840	155055	27038	1029331	43459	109721	0	0	8115	673668	0	0
2024-07-06 15:15:32			0	35061	0	0	0	26254	24840	155163	27168	1029331	43470	109723	0	0	8115	673488	0	0
2024-07-06 15:16:32			0	35063	0	0	0	26251	24840	155091	27242	1029366	43450	109722	0	0	8116	673399	0	0
2024-07-06 15:17:32			0	35057	0	0	0	26257	24830	155047	27502	1029349	43459	109724	0	0	8115	673706	0	0
2024-07-06 15:18:32			0	35066	0	0	0	26264	24840	155027	27019	1029331	43459	109727	0	0	8116	673265	0	0
2024-07-06 15:19:32			0	35070	0	0	0	26272	24850	155035	27013	1029401	43461	109730	0	0	8116	673047	0	0
2024-07-06 15:20:32			0	35075	0	0	0	26267	24850	155039	26904	1029401	43472	109728	0	0	8116	672823	0	0
2024-07-06 15:21:32			0	35062	0	0	0	26251	24840	154907	27220	1029339	43460	109722	0	0	8116	673444	0	0
2024-07-06 15:22:32			0	35074	0	0	0	26254	24840	154959	27131	1029357	43459	109723	0	0	8116	672906	0	0
2024-07-06 15:23:32			0	35089	0	0	0	26254	24850	154867	27274	1029375	43450	109723	0	0	8117	672197	0	0
2024-07-06 15:24:32			0	35075	0	0	0	26251	24850	154919	27118	1029348	43461	109722	0	0	8116	672823	0	0
2024-07-06 15:25:32			0	35081	0	0	0	26246	24850	154955	27102	1029401	43450	109720	0	0	8117	672555	0	0
2024-07-06 15:26:32			0	35094	0	0	0	26262	24850	154935	27294	1029401	43472	109726	0	0	8117	671973	0	0
2024-07-06 15:27:32			0	35083	0	0	0	26257	24870	154931	27239	1029409	43452	109724	0	0	8117	672389	0	0
2024-07-06 15:28:32			0	35095	0	0	0	26254	24860	154987	27301	1029472	43483	109723	0	0	8117	671891	0	0
2024-07-06 15:29:32			0	35080	0	0	0	26264	24860	154895	27175	1029419	43472	109727	0	0	8116	672562	0	0
2024-07-06 15:30:32			0	35090	0	0	0	26259	24870	155043	27322	1029516	43474	109725	0	0	8117	672076	0	0
2024-07-06 15:31:32			0	35096	0	0	0	26259	24860	154963	27346	1029446	43461	109725	0	0	8117	671846	0	0
2024-07-06 15:32:32			0	35094	0	0	0	26267	24860	154919	27471	1029419	43450	109728	0	0	8117	671935	0	0
2024-07-06 15:33:32			0	35100	0	0	0	26257	24860	154883	27199	1029454	43462	109724	0	0	8118	671667	0	0
2024-07-06 15:34:32			0	35115	0	0	0	26264	24860	154927	27225	1029481	43462	109727	0	0	8118	670997	0	0
2024-07-06 15:35:32			0	35097	0	0	0	26262	24870	154943	27067	1029418	43463	109726	0	0	8117	671763	0	0
2024-07-06 15:36:32			0	35078	0	0	0	26272	24870	154947	27144	1029490	43463	109730	0	0	8116	672613	0	0
2024-07-06 15:37:32			0	35086	0	0	0	26275	24870	154943	26883	1029490	43463	109731	0	0	8117	672255	0	0
2024-07-06 15:38:32			0	35100	0	0	0	26270	24870	155031	27308	1029498	43463	109729	0	0	8117	671629	0	0
2024-07-06 15:39:32			0	35092	0	0	0	26280	24860	154999	27376	1029499	43461	109733	0	0	8117	672025	0	0
2024-07-06 15:40:32			0	35085	0	0	0	26283	24870	154971	27246	1029498	43452	109734	0	0	8116	672300	0	0
2024-07-06 15:41:32			0	35075	0	0	0	26280	24880	155011	27185	1029516	43464	109733	0	0	8116	672709	0	0
2024-07-06 15:42:32			0	35097	0	0	0	26283	24870	154991	27128	1029516	43452	109734	0	0	8117	671763	0	0
2024-07-06 15:43:32			0	35087	0	0	0	26267	24870	154863	27362	1029498	43463	109728	0	0	8117	672210	0	0
2024-07-06 15:44:32			0	35089	0	0	0	26275	24880	154991	27194	1029534	43463	109731	0	0	8117	672083	0	0
2024-07-06 15:45:32			0	35084	0	0	0	26280	24870	154935	27076	1029552	43474	109733	0	0	8116	672345	0	0
2024-07-06 15:46:32			0	35075	0	0	0	26283	24880	154935	26909	1029516	43475	109734	0	0	8116	672709	0	0
2024-07-06 15:47:32			0	35088	0	0	0	26283	24880	155047	26944	1029534	43463	109734	0	0	8117	672127	0	0
2024-07-06 15:48:32			0	35073	0	0	0	26275	24880	155007	27043	1029507	43463	109731	0	0	8116	672799	0	0
2024-07-06 15:49:32			0	35078	0	0	0	26298	24880	154915	27251	1029596	43453	109740	0	0	8116	672575	0	0
2024-07-06 15:50:32			0	35079	0	0	0	26298	24880	155011	26712	1029596	43475	109740	0	0	8116	672530	0	0
2024-07-06 15:51:32			0	35091	0	0	0	26314	24890	154951	26902	1029640	43466	109746	0	0	8116	671955	0	0
2024-07-06 15:52:32			0	35088	0	0	0	26306	24900	154931	27048	1029729	43466	109743	0	0	8116	672051	0	0
2024-07-06 15:53:32			0	35084	0	0	0	26311	24900	154951	26797	1029676	43455	109745	0	0	8116	672230	0	0
2024-07-06 15:54:32			0	35098	0	0	0	26319	24900	154959	27244	1029676	43444	109748	0	0	8117	671604	0	0
2024-07-06 15:55:32			0	35103	0	0	0	26340	24910	154895	27031	1029666	43466	109756	0	0	8117	671343	0	0
2024-07-06 15:56:32			0	35107	0	0	0	26335	24910	154908	27185	1029747	43466	109754	0	0	8117	671164	0	0
2024-07-06 15:57:32			0	35105	0	0	0	26335	24920	154883	27182	1029844	43467	109754	0	0	8117	671215	0	0
2024-07-06 15:58:32			0	35118	0	0	0	26324	24920	154776	27398	1029702	43467	109750	0	0	8118	670635	0	0
2024-07-06 15:59:32			0	35124	0	0	0	26311	24920	154704	27279	1029764	43457	109745	0	0	8118	670367	0	0
2024-07-06 16:00:32			0	35123	0	0	0	26311	24920	154732	27046	1029764	43467	109745	0	0	8118	670411	0	0
2024-07-06 16:01:32			0	35145	0	0	0	26314	24920	154724	27235	1029737	43479	109746	0	0	8119	669430	0	0
2024-07-06 16:02:32			0	35148	0	0	0	26311	24930	154780	27274	1029719	43467	109745	0	0	8120	669258	0	0
2024-07-06 16:03:32			0	35135	0	0	0	26322	24920	154764	27100	1029710	43457	109749	0	0	8119	669876	0	0
2024-07-06 16:04:32			0	35135	0	0	0	26324	24930	154664	27443	1029773	43467	109750	0	0	8119	669838	0	0
2024-07-06 16:05:32			0	35143	0	0	0	26340	24930	154848	27163	1029773	43457	109756	0	0	8119	669481	0	0
2024-07-06 16:06:32			0	35131	0	0	0	26337	24940	154772	27301	1029817	43469	109755	0	0	8118	669978	0	0
2024-07-06 16:07:32			0	35112	0	0	0	26345	24930	154748	27235	1029808	43468	109758	0	0	8117	670865	0	0
2024-07-06 16:08:32			0	35128	0	0	0	26355	24930	154728	27263	1029835	43468	109762	0	0	8118	670150	0	0
2024-07-06 16:09:32			0	35153	0	0	0	26366	24940	154640	27116	1029933	43481	109766	0	0	8119	668998	0	0
2024-07-06 16:10:32			0	35150	0	0	0	26358	24950	154632	27149	1029924	43493	109763	0	0	8119	669093	0	0
2024-07-06 16:11:32			0	35136	0	0	0	26355	24940	154632	27150	1029960	43469	109762	0	0	8118	669755	0	0
2024-07-06 16:12:32			0	35157	0	0	0	26345	24950	154676	27291	1029924	43482	109758	0	0	8120	668781	0	0
2024-07-06 16:13:32			0	35163	0	0	0	26335	24960	154616	27208	1029959	43460	109754	0	0	8120	668476	0	0
2024-07-06 16:14:32			0	35160	0	0	0	26324	24940	154564	27267	1029879	43481	109750	0	0	8120	668686	0	0
2024-07-06 16:15:32			0	35187	0	0	0	26329	24950	154572	27015	1029835	43469	109752	0	0	8122	667446	0	0
2024-07-06 16:16:32			0	35174	0	0	0	26322	24960	154568	27293	1029879	43483	109749	0	0	8121	667986	0	0
2024-07-06 16:17:32			0	35177	0	0	0	26342	24950	154488	27111	1029870	43459	109757	0	0	8121	667891	0	0
2024-07-06 16:18:32			0	35174	0	0	0	26332	24960	154528	27209	1029905	43460	109753	0	0	8121	667986	0	0
2024-07-06 16:19:32			0	35184	0	0	0	26316	24950	154512	26986	1029897	43459	109747	0	0	8122	667579	0	0
2024-07-06 16:20:32			0	35197	0	0	0	26327	24950	154556	27232	1029870	43470	109751	0	0	8122	667001	0	0
2024-07-06 16:21:32			0	35199	0	0	0	26340	24950	154528	27268	1029888	43469	109756	0	0	8122	666912	0	0
2024-07-06 16:22:32			0	35196	0	0	0	26340	24950	154528	27433	1029897	43449	109756	0	0	8122	667045	0	0
2024-07-06 16:23:32			0	35188	0	0	0	26327	24940	154464	26934	1029879	43448	109751	0	0	8122	667439	0	0
2024-07-06 16:24:32			0	35185	0	0	0	26329	24940	154436	27336	1029817	43481	109752	0	0	8121	667572	0	0
2024-07-06 16:25:32			0	35186	0	0	0	26327	24950	154548	27256	1029808	43458	109751	0	0	8122	667490	0	0
2024-07-06 16:26:32			0	35173	0	0	0	26314	24940	154516	27372	1029826	43458	109746	0	0	8121	668107	0	0
2024-07-06 16:27:32			0	35165	0	0	0	26319	24950	154600	27216	1029870	43437	109748	0	0	8121	668425	0	0
2024-07-06 16:28:32			0	35163	0	0	0	26327	24940	154616	27724	1029772	43458	109751	0	0	8120	668552	0	0
2024-07-06 16:29:32			0	35162	0	0	0	26327	24940	154716	27436	1029906	43469	109751	0	0	8120	668596	0	0
2024-07-06 16:30:32			0	35188	0	0	0	26340	24950	154576	27137	1029808	43481	109756	0	0	8121	667401	0	0
2024-07-06 16:31:32			0	35168	0	0	0	26324	24940	154564	26975	1029844	43469	109750	0	0	8121	668329	0	0
2024-07-06 16:32:32			0	35173	0	0	0	26335	24950	154544	27161	1029843	43459	109754	0	0	8121	668069	0	0
2024-07-06 16:33:32			0	35191	0	0	0	26327	24940	154548	27183	1029826	43458	109751	0	0	8122	667306	0	0
2024-07-06 16:34:32			0	35186	0	0	0	26327	24940	154580	27267	1029853	43458	109751	0	0	8121	667528	0	0
2024-07-06 16:35:32			0	35169	0	0	0	26324	24940	154540	27282	1029817	43458	109750	0	0	8121	668285	0	0
2024-07-06 16:36:32			0	35192	0	0	0	26335	24950	154604	27013	1029888	43458	109754	0	0	8122	667223	0	0
2024-07-06 16:37:32			0	35163	0	0	0	26342	24940	154580	27083	1029879	43469	109757	0	0	8120	668552	0	0
2024-07-06 16:38:32			0	35167	0	0	0	26350	24940	154612	27142	1029879	43469	109760	0	0	8120	668374	0	0
2024-07-06 16:39:32			0	35168	0	0	0	26353	24960	154760	27199	1029968	43495	109761	0	0	8120	668254	0	0
2024-07-06 16:40:32			0	35145	0	0	0	26337	24960	154648	27150	1029959	43460	109755	0	0	8119	669278	0	0
2024-07-06 16:41:32			0	35145	0	0	0	26348	24950	154672	26772	1029870	43459	109759	0	0	8119	669316	0	0
2024-07-06 16:42:32			0	35151	0	0	0	26345	24960	154540	26854	1029879	43471	109758	0	0	8119	669011	0	0
2024-07-06 16:43:32			0	35161	0	0	0	26340	24950	154556	27150	1029888	43481	109756	0	0	8120	668603	0	0
2024-07-06 16:44:32			0	35172	0	0	0	26353	24950	154640	27076	1029924	43470	109761	0	0	8120	668113	0	0
2024-07-06 16:45:32			0	35165	0	0	0	26348	24950	154416	27190	1029977	43459	109759	0	0	8120	668425	0	0
2024-07-06 16:46:32			0	35166	0	0	0	26348	24950	154480	27196	1029897	43459	109759	0	0	8120	668380	0	0
2024-07-06 16:47:32			0	35170	0	0	0	26342	24960	154528	27258	1029905	43471	109757	0	0	8120	668164	0	0
2024-07-06 16:48:32			0	35172	0	0	0	26355	24960	154544	27230	1029905	43460	109762	0	0	8120	668075	0	0
2024-07-06 16:49:32			0	35163	0	0	0	26361	24960	154560	27256	1029941	43461	109764	0	0	8120	668476	0	0
2024-07-06 16:50:32			0	35169	0	0	0	26363	24960	154404	27241	1029968	43483	109765	0	0	8120	668209	0	0
2024-07-06 16:51:32			0	35180	0	0	0	26353	24970	154476	27287	1029976	43461	109761	0	0	8121	667681	0	0
2024-07-06 16:52:32			0	35173	0	0	0	26376	24960	154504	27203	1029995	43472	109770	0	0	8120	668031	0	0
2024-07-06 16:53:32			0	35182	0	0	0	26371	24960	154576	26961	1029995	43472	109768	0	0	8121	667630	0	0
2024-07-06 16:54:32			0	35164	0	0	0	26376	24970	154536	26979	1030057	43472	109770	0	0	8120	668394	0	0
2024-07-06 16:55:32			0	35157	0	0	0	26366	24980	154456	27055	1029976	43463	109766	0	0	8119	668668	0	0
2024-07-06 16:56:32			0	35190	0	0	0	26355	24980	154408	27163	1029967	43462	109762	0	0	8121	667199	0	0
2024-07-06 16:57:32			0	35185	0	0	0	26355	24970	154548	27109	1029985	43472	109762	0	0	8121	667459	0	0
2024-07-06 16:58:32			0	35186	0	0	0	26368	24980	154556	27208	1030047	43473	109767	0	0	8121	667377	0	0
2024-07-06 16:59:32			0	35188	0	0	0	26389	24980	154536	27133	1030047	43473	109775	0	0	8121	667288	0	0
2024-07-06 17:00:32			0	35181	0	0	0	26366	24980	154508	27332	1030047	43462	109766	0	0	8121	667599	0	0
2024-07-06 17:01:32			0	35214	0	0	0	26379	24980	154464	27229	1030047	43473	109771	0	0	8122	666132	0	0
2024-07-06 17:02:32			0	35212	0	0	0	26361	24990	154388	27124	1030091	43497	109764	0	0	8123	666183	0	0
2024-07-06 17:03:32			0	35223	0	0	0	26376	24980	154420	27246	1030021	43462	109770	0	0	8123	665732	0	0
2024-07-06 17:04:32			0	35199	0	0	0	26384	24980	154392	26994	1030056	43474	109773	0	0	8121	666799	0	0
2024-07-06 17:05:32			0	35201	0	0	0	26389	24990	154364	27265	1030038	43463	109775	0	0	8121	666672	0	0
2024-07-06 17:06:32			0	35184	0	0	0	26399	24980	154416	27255	1030083	43463	109779	0	0	8120	667466	0	0
2024-07-06 17:07:32			0	35221	0	0	0	26402	24990	154432	27164	1030091	43474	109780	0	0	8122	665783	0	0
2024-07-06 17:08:32			0	35215	0	0	0	26407	24990	154416	27079	1030118	43474	109782	0	0	8122	666050	0	0
2024-07-06 17:09:32			0	35217	0	0	0	26399	25000	154348	27066	1030144	43476	109779	0	0	8122	665923	0	0
2024-07-06 17:10:32			0	35235	0	0	0	26379	24990	154336	27105	1030181	43474	109771	0	0	8123	665162	0	0
2024-07-06 17:11:32			0	35230	0	0	0	26379	24990	154360	27279	1030154	43474	109771	0	0	8123	665384	0	0
2024-07-06 17:12:32			0	35228	0	0	0	26394	25000	154336	27324	1030136	43475	109777	0	0	8123	665435	0	0
2024-07-06 17:13:32			0	35251	0	0	0	26399	24990	154268	26972	1030100	43474	109779	0	0	8124	664452	0	0
2024-07-06 17:14:32			0	35263	0	0	0	26399	24990	154272	27126	1030145	43474	109779	0	0	8125	663920	0	0
2024-07-06 17:15:32			0	35235	0	0	0	26418	24990	154304	27282	1030172	43463	109786	0	0	8123	665162	0	0
2024-07-06 17:16:32			0	35263	0	0	0	26412	24990	154300	27431	1030234	43463	109784	0	0	8124	663920	0	0
2024-07-06 17:17:32			0	35252	0	0	0	26418	25000	154272	27286	1030251	43476	109786	0	0	8124	664370	0	0
2024-07-06 17:18:32			0	35255	0	0	0	26420	25010	154284	27128	1030207	43465	109787	0	0	8124	664199	0	0
2024-07-06 17:19:32			0	35270	0	0	0	26412	25020	154216	27277	1030305	43465	109784	0	0	8125	663497	0	0
2024-07-06 17:20:32			0	35254	0	0	0	26405	25000	154200	26972	1030198	43454	109781	0	0	8124	664281	0	0
2024-07-06 17:21:32			0	35252	0	0	0	26405	25000	154236	27274	1030189	43475	109781	0	0	8124	664370	0	0
2024-07-06 17:22:32			0	35253	0	0	0	26397	25010	154332	27383	1030216	43476	109778	0	0	8124	664288	0	0
2024-07-06 17:23:32			0	35242	0	0	0	26399	25010	154220	27267	1030260	43476	109779	0	0	8124	664776	0	0
2024-07-06 17:24:32			0	35266	0	0	0	26402	25000	154216	27374	1030198	43476	109780	0	0	8125	663750	0	0
2024-07-06 17:25:32			0	35256	0	0	0	26407	25010	154128	27185	1030162	43465	109782	0	0	8124	664155	0	0
2024-07-06 17:26:32			0	35269	0	0	0	26407	25000	154164	27320	1030198	43454	109782	0	0	8125	663617	0	0
2024-07-06 17:27:32			0	35280	0	0	0	26399	25010	154140	27294	1030162	43476	109779	0	0	8126	663092	0	0
2024-07-06 17:28:32			0	35280	0	0	0	26402	25010	154136	27263	1030153	43476	109780	0	0	8126	663092	0	0
2024-07-06 17:29:32			0	35271	0	0	0	26397	25010	154124	27319	1030207	43476	109778	0	0	8125	663491	0	0
2024-07-06 17:30:32			0	35267	0	0	0	26389	25010	154172	26868	1030189	43465	109775	0	0	8125	663668	0	0
2024-07-06 17:31:32			0	35247	0	0	0	26394	25010	154256	27026	1030127	43476	109777	0	0	8124	664554	0	0
2024-07-06 17:32:32			0	35256	0	0	0	26392	25000	154308	27325	1030162	43475	109776	0	0	8124	664193	0	0
2024-07-06 17:33:32			0	35239	0	0	0	26384	25010	154324	27253	1030180	43476	109773	0	0	8124	664909	0	0
2024-07-06 17:34:32			0	35229	0	0	0	26381	25010	154296	27415	1030180	43465	109772	0	0	8123	665353	0	0
2024-07-06 17:35:32			0	35220	0	0	0	26389	25000	154400	27199	1030109	43464	109775	0	0	8123	665790	0	0
2024-07-06 17:36:32			0	35229	0	0	0	26381	24990	154332	27208	1030100	43463	109772	0	0	8123	665428	0	0
2024-07-06 17:37:32			0	35217	0	0	0	26394	25000	154364	27039	1030136	43475	109777	0	0	8122	665923	0	0
2024-07-06 17:38:32			0	35227	0	0	0	26386	24990	154412	27144	1030154	43463	109774	0	0	8123	665517	0	0
2024-07-06 17:39:32			0	35232	0	0	0	26381	24990	154344	27116	1030181	43474	109772	0	0	8123	665295	0	0
2024-07-06 17:40:32			0	35233	0	0	0	26363	24990	154400	27227	1030127	43474	109765	0	0	8124	665251	0	0
2024-07-06 17:41:32			0	35242	0	0	0	26379	24990	154388	27057	1030100	43463	109771	0	0	8124	664851	0	0
2024-07-06 17:42:32			0	35232	0	0	0	26379	24990	154340	27027	1030038	43452	109771	0	0	8123	665295	0	0
2024-07-06 17:43:32			0	35243	0	0	0	26381	24990	154324	26958	1030127	43463	109772	0	0	8124	664807	0	0
2024-07-06 17:44:32			0	35245	0	0	0	26376	25000	154408	27447	1030082	43475	109770	0	0	8124	664681	0	0
2024-07-06 17:45:32			0	35235	0	0	0	26366	24980	154348	27293	1030136	43474	109766	0	0	8124	665200	0	0
2024-07-06 17:46:32			0	35236	0	0	0	26358	24980	154400	27209	1030056	43463	109763	0	0	8124	665155	0	0
2024-07-06 17:47:32			0	35269	0	0	0	26350	24990	154268	27199	1030065	43474	109760	0	0	8126	663654	0	0
2024-07-06 17:48:32			0	35278	0	0	0	26358	24970	154292	27175	1030030	43450	109763	0	0	8126	663331	0	0
2024-07-06 17:49:32			0	35268	0	0	0	26371	24980	154304	27171	1030083	43474	109768	0	0	8125	663736	0	0
2024-07-06 17:50:32			0	35267	0	0	0	26355	24980	154148	27078	1029994	43462	109762	0	0	8126	663781	0	0
2024-07-06 17:51:32			0	35270	0	0	0	26366	24980	154224	26967	1030047	43473	109766	0	0	8126	663648	0	0
2024-07-06 17:52:32			0	35266	0	0	0	26376	24980	154216	27289	1030110	43474	109770	0	0	8125	663825	0	0
2024-07-06 17:53:32			0	35267	0	0	0	26376	24980	154124	27164	1029994	43462	109770	0	0	8125	663781	0	0
2024-07-06 17:54:32			0	35251	0	0	0	26381	24980	154108	26974	1030101	43462	109772	0	0	8124	664490	0	0
2024-07-06 17:55:32			0	35281	0	0	0	26386	24980	154160	27059	1030074	43473	109774	0	0	8126	663161	0	0
2024-07-06 17:56:32			0	35283	0	0	0	26373	24990	154128	27220	1030118	43474	109769	0	0	8126	663034	0	0
2024-07-06 17:57:32			0	35287	0	0	0	26371	24980	154104	27137	1030074	43462	109768	0	0	8126	662895	0	0
2024-07-06 17:58:32			0	35311	0	0	0	26373	24980	154040	27024	1030021	43496	109769	0	0	8128	661833	0	0
2024-07-06 17:59:32			0	35302	0	0	0	26373	24990	154008	27026	1030091	43474	109769	0	0	8127	662194	0	0
2024-07-06 18:00:32			0	35319	0	0	0	26355	24980	153968	27227	1029976	43474	109762	0	0	8128	661480	0	0
2024-07-06 18:01:32			0	35324	0	0	0	26368	24980	153936	26960	1030074	43473	109767	0	0	8128	661259	0	0
2024-07-06 18:02:32			0	35337	0	0	0	26363	24980	153832	27206	1030056	43474	109765	0	0	8129	660685	0	0
2024-07-06 18:03:32			0	35334	0	0	0	26353	24980	153828	26852	1030002	43452	109761	0	0	8129	660817	0	0
2024-07-06 18:04:32			0	35355	0	0	0	26373	24980	153820	26941	1030056	43463	109769	0	0	8130	659890	0	0
2024-07-06 18:05:32			0	35358	0	0	0	26379	24980	153768	27173	1030002	43474	109771	0	0	8130	659758	0	0
2024-07-06 18:06:32			0	35354	0	0	0	26381	24980	153884	27528	1030128	43484	109772	0	0	8130	659934	0	0
2024-07-06 18:07:32			0	35352	0	0	0	26381	24980	153760	27301	1030083	43474	109772	0	0	8130	660022	0	0
2024-07-06 18:08:32			0	35339	0	0	0	26397	24990	153856	27215	1030118	43474	109778	0	0	8129	660559	0	0
2024-07-06 18:09:32			0	35327	0	0	0	26402	24990	153804	27298	1030181	43474	109780	0	0	8128	661089	0	0
2024-07-06 18:10:32			0	35325	0	0	0	26407	24980	154024	26932	1030243	43474	109782	0	0	8128	661215	0	0
2024-07-06 18:11:32			0	35333	0	0	0	26392	24990	153912	27371	1030172	43463	109776	0	0	8129	660824	0	0
2024-07-06 18:12:32			0	35325	0	0	0	26379	24990	153928	27026	1030207	43474	109771	0	0	8128	661177	0	0
2024-07-06 18:13:32			0	35331	0	0	0	26376	24980	153868	27428	1030136	43474	109770	0	0	8129	660950	0	0
2024-07-06 18:14:32			0	35334	0	0	0	26376	24990	153932	27069	1030091	43474	109770	0	0	8129	660780	0	0
2024-07-06 18:15:32			0	35329	0	0	0	26371	24980	153824	27093	1030047	43462	109768	0	0	8129	661038	0	0
2024-07-06 18:16:32			0	35308	0	0	0	26363	24980	153880	27324	1030101	43462	109765	0	0	8128	661966	0	0
2024-07-06 18:17:32			0	35312	0	0	0	26363	24970	153972	27268	1030039	43472	109765	0	0	8128	661827	0	0
2024-07-06 18:18:32			0	35324	0	0	0	26353	24980	154056	27293	1030056	43474	109761	0	0	8129	661259	0	0
2024-07-06 18:19:32			0	35298	0	0	0	26355	24970	154112	27317	1030012	43483	109762	0	0	8127	662446	0	0
2024-07-06 18:20:32			0	35284	0	0	0	26358	24970	154092	27386	1030003	43472	109763	0	0	8126	663065	0	0
2024-07-06 18:21:32			0	35280	0	0	0	26358	24970	154168	27138	1029985	43461	109763	0	0	8126	663243	0	0
2024-07-06 18:22:32			0	35253	0	0	0	26363	24970	154200	27114	1030039	43461	109765	0	0	8125	664439	0	0
2024-07-06 18:23:32			0	35252	0	0	0	26379	24970	154188	27206	1030012	43483	109771	0	0	8124	664483	0	0
2024-07-06 18:24:32			0	35250	0	0	0	26376	24970	154188	27367	1030084	43483	109770	0	0	8124	664572	0	0
2024-07-06 18:25:32			0	35255	0	0	0	26373	24960	154204	27121	1030075	43461	109769	0	0	8125	664388	0	0
2024-07-06 18:26:32			0	35259	0	0	0	26373	24970	154200	27079	1030003	43472	109769	0	0	8125	664173	0	0
2024-07-06 18:27:32			0	35260	0	0	0	26373	24980	154188	27440	1029994	43484	109769	0	0	8125	664091	0	0
2024-07-06 18:28:32			0	35272	0	0	0	26384	24970	154156	27535	1030012	43472	109773	0	0	8125	663597	0	0
2024-07-06 18:29:32			0	35256	0	0	0	26371	24980	154196	26927	1030110	43463	109768	0	0	8125	664268	0	0
2024-07-06 18:30:32			0	35274	0	0	0	26368	24970	154084	27232	1030030	43461	109767	0	0	8126	663508	0	0
2024-07-06 18:31:32			0	35281	0	0	0	26381	24970	154152	27578	1029976	43461	109772	0	0	8126	663198	0	0
2024-07-06 18:32:32			0	35277	0	0	0	26384	24970	154116	27251	1030065	43495	109773	0	0	8126	663375	0	0
2024-07-06 18:33:32			0	35295	0	0	0	26373	24980	154104	27289	1030074	43484	109769	0	0	8127	662541	0	0
2024-07-06 18:34:32			0	35286	0	0	0	26373	24970	154176	27381	1030003	43483	109769	0	0	8126	662977	0	0
2024-07-06 18:35:32			0	35297	0	0	0	26379	24960	154164	26913	1030075	43483	109771	0	0	8127	662528	0	0
2024-07-06 18:36:32			0	35302	0	0	0	26371	24960	154092	27374	1030075	43472	109768	0	0	8127	662306	0	0
2024-07-06 18:37:32			0	35291	0	0	0	26376	24980	154064	27251	1030047	43462	109770	0	0	8126	662718	0	0
2024-07-06 18:38:32			0	35300	0	0	0	26373	24980	154104	27313	1030074	43473	109769	0	0	8127	662320	0	0
2024-07-06 18:39:32			0	35307	0	0	0	26376	24970	154108	27391	1030039	43495	109770	0	0	8127	662048	0	0
2024-07-06 18:40:32			0	35312	0	0	0	26371	24970	153908	27064	1030030	43461	109768	0	0	8128	661827	0	0
2024-07-06 18:41:32			0	35331	0	0	0	26371	24970	153924	27293	1030084	43483	109768	0	0	8129	660987	0	0
2024-07-06 18:42:32			0	35325	0	0	0	26373	24970	153908	27086	1030003	43483	109769	0	0	8128	661252	0	0
2024-07-06 18:43:32			0	35331	0	0	0	26379	24960	153864	27121	1030075	43461	109771	0	0	8128	661024	0	0
2024-07-06 18:44:32			0	35333	0	0	0	26376	24970	153920	27307	1030003	43472	109770	0	0	8129	660899	0	0
2024-07-06 18:45:32			0	35325	0	0	0	26386	24970	153880	27116	1030057	43495	109774	0	0	8128	661252	0	0
2024-07-06 18:46:32			0	35329	0	0	0	26392	24970	153900	27332	1030030	43505	109776	0	0	8128	661075	0	0
2024-07-06 18:47:32			0	35327	0	0	0	26384	24970	153868	27133	1030092	43483	109773	0	0	8128	661164	0	0
2024-07-06 18:48:32			0	35326	0	0	0	26394	24970	153844	27211	1030039	43472	109777	0	0	8128	661208	0	0
2024-07-06 18:49:32			0	35346	0	0	0	26392	24980	153920	26967	1030101	43473	109776	0	0	8129	660287	0	0
2024-07-06 18:50:32			0	35330	0	0	0	26386	24980	153864	27239	1030101	43473	109774	0	0	8128	660994	0	0
2024-07-06 18:51:32			0	35358	0	0	0	26394	24980	153812	27059	1030074	43473	109777	0	0	8130	659758	0	0
2024-07-06 18:52:32			0	35354	0	0	0	26386	24990	153804	27194	1030118	43474	109774	0	0	8130	659897	0	0
2024-07-06 18:53:32			0	35362	0	0	0	26389	24980	153792	27338	1030074	43473	109775	0	0	8130	659581	0	0
2024-07-06 18:54:32			0	35361	0	0	0	26402	24990	153860	27260	1030118	43474	109780	0	0	8130	659588	0	0
2024-07-06 18:55:32			0	35351	0	0	0	26407	24990	153668	27211	1030145	43497	109782	0	0	8129	660029	0	0
2024-07-06 18:56:32			0	35376	0	0	0	26412	24990	153776	27241	1030145	43474	109784	0	0	8130	658927	0	0
2024-07-06 18:57:32			0	35404	0	0	0	26428	24990	153712	26977	1030145	43485	109790	0	0	8132	657694	0	0
2024-07-06 18:58:32			0	35385	0	0	0	26436	25000	153688	26850	1030189	43508	109793	0	0	8131	658493	0	0
2024-07-06 18:59:32			0	35406	0	0	0	26457	25000	153624	27281	1030305	43487	109801	0	0	8131	657569	0	0
2024-07-06 19:00:32			0	35421	0	0	0	26459	25010	153636	27282	1030376	43487	109802	0	0	8132	656872	0	0
2024-07-06 19:01:32			0	35425	0	0	0	26496	25020	153552	27053	1030447	43500	109816	0	0	8132	656659	0	0
2024-07-06 19:02:32			0	35424	0	0	0	26483	25020	153516	27008	1030447	43500	109811	0	0	8132	656703	0	0
2024-07-06 19:03:32			0	35437	0	0	0	26457	25040	153452	27251	1030420	43479	109801	0	0	8133	656057	0	0
2024-07-06 19:04:32			0	35463	0	0	0	26467	25040	153264	27315	1030455	43480	109805	0	0	8134	654916	0	0
2024-07-06 19:05:32			0	35498	0	0	0	26490	25030	153292	27050	1030456	43479	109814	0	0	8136	653419	0	0
2024-07-06 19:06:32			0	35503	0	0	0	26498	25040	153180	26968	1030420	43490	109817	0	0	8136	653163	0	0
2024-07-06 19:07:32			0	35515	0	0	0	26498	25040	153028	26960	1030447	43500	109817	0	0	8137	652638	0	0
2024-07-06 19:08:32			0	35528	0	0	0	26501	25050	153028	26923	1030580	43502	109818	0	0	8137	652032	0	0
2024-07-06 19:09:32			0	35529	0	0	0	26496	25060	152952	27341	1030562	43481	109816	0	0	8138	651951	0	0
2024-07-06 19:10:32			0	35540	0	0	0	26506	25060	152936	26991	1030544	43482	109820	0	0	8138	651470	0	0
2024-07-06 19:11:32			0	35533	0	0	0	26501	25070	152920	27268	1030642	43504	109818	0	0	8138	651739	0	0
2024-07-06 19:12:32			0	35545	0	0	0	26485	25070	152864	27320	1030579	43504	109812	0	0	8139	651215	0	0
2024-07-06 19:13:32			0	35545	0	0	0	26498	25060	152876	27502	1030597	43503	109817	0	0	8138	651252	0	0
2024-07-06 19:14:32			0	35548	0	0	0	26480	25080	152904	27138	1030597	43504	109810	0	0	8139	651047	0	0
2024-07-06 19:15:32			0	35558	0	0	0	26475	25070	152936	27334	1030454	43494	109808	0	0	8140	650647	0	0
2024-07-06 19:16:32			0	35562	0	0	0	26446	25070	152952	27390	1030481	43482	109797	0	0	8140	650473	0	0
2024-07-06 19:17:32			0	35586	0	0	0	26464	25060	152800	27391	1030428	43481	109804	0	0	8141	649463	0	0
2024-07-06 19:18:32			0	35594	0	0	0	26451	25070	152768	26833	1030445	43471	109799	0	0	8142	649077	0	0
2024-07-06 19:19:32			0	35592	0	0	0	26449	25050	152788	26759	1030419	43481	109798	0	0	8142	649238	0	0
2024-07-06 19:20:32			0	35570	0	0	0	26449	25060	152728	27059	1030490	43470	109798	0	0	8141	650161	0	0
2024-07-06 19:21:32			0	35569	0	0	0	26444	25050	152820	27005	1030500	43481	109796	0	0	8141	650241	0	0
2024-07-06 19:22:32			0	35579	0	0	0	26446	25060	152816	26691	1030428	43481	109797	0	0	8141	649768	0	0
2024-07-06 19:23:32			0	35585	0	0	0	26454	25050	152852	27086	1030527	43481	109800	0	0	8141	649543	0	0
2024-07-06 19:24:32			0	35571	0	0	0	26449	25050	152912	27268	1030446	43469	109798	0	0	8141	650154	0	0
2024-07-06 19:25:32			0	35554	0	0	0	26457	25050	152872	27017	1030500	43481	109801	0	0	8140	650896	0	0
2024-07-06 19:26:32			0	35558	0	0	0	26454	25040	152772	26793	1030455	43480	109800	0	0	8140	650758	0	0
2024-07-06 19:27:32			0	35587	0	0	0	26464	25050	152776	27111	1030491	43492	109804	0	0	8141	649456	0	0
2024-07-06 19:28:32			0	35567	0	0	0	26454	25050	152756	27222	1030500	43481	109800	0	0	8140	650328	0	0
2024-07-06 19:29:32			0	35566	0	0	0	26462	25050	152880	27180	1030446	43502	109803	0	0	8140	650372	0	0
2024-07-06 19:30:32			0	35538	0	0	0	26470	25050	153020	27093	1030491	43492	109806	0	0	8138	651595	0	0
2024-07-06 19:31:32			0	35528	0	0	0	26475	25050	153052	27381	1030464	43492	109808	0	0	8138	652032	0	0
2024-07-06 19:32:32			0	35523	0	0	0	26462	25050	153116	27343	1030446	43481	109803	0	0	8138	652251	0	0
2024-07-06 19:33:32			0	35516	0	0	0	26464	25060	153168	27213	1030490	43482	109804	0	0	8137	652520	0	0
2024-07-06 19:34:32			0	35522	0	0	0	26457	25050	153200	27294	1030473	43492	109801	0	0	8138	652294	0	0
2024-07-06 19:35:32			0	35498	0	0	0	26462	25050	153156	27293	1030518	43481	109803	0	0	8136	653345	0	0
2024-07-06 19:36:32			0	35508	0	0	0	26464	25050	153176	27170	1030464	43469	109804	0	0	8137	652907	0	0
2024-07-06 19:37:32			0	35507	0	0	0	26459	25060	153184	27452	1030508	43502	109802	0	0	8137	652914	0	0
2024-07-06 19:38:32			0	35503	0	0	0	26470	25050	153200	27256	1030437	43502	109806	0	0	8137	653126	0	0
2024-07-06 19:39:32			0	35490	0	0	0	26467	25050	153264	27358	1030437	43502	109805	0	0	8136	653695	0	0
2024-07-06 19:40:32			0	35485	0	0	0	26464	25060	153252	27279	1030482	43492	109804	0	0	8136	653877	0	0
2024-07-06 19:41:32			0	35473	0	0	0	26470	25050	153272	27338	1030491	43481	109806	0	0	8135	654440	0	0
2024-07-06 19:42:32			0	35455	0	0	0	26475	25060	153392	27286	1030508	43469	109808	0	0	8134	655192	0	0
2024-07-06 19:43:32			0	35454	0	0	0	26467	25050	153392	27161	1030491	43481	109805	0	0	8134	655273	0	0
2024-07-06 19:44:32			0	35471	0	0	0	26462	25060	153376	27071	1030544	43482	109803	0	0	8135	654491	0	0
2024-07-06 19:45:32			0	35467	0	0	0	26451	25040	153404	27319	1030482	43480	109799	0	0	8135	654740	0	0
2024-07-06 19:46:32			0	35475	0	0	0	26459	25040	153372	27090	1030562	43491	109802	0	0	8135	654389	0	0
2024-07-06 19:47:32			0	35468	0	0	0	26451	25040	153248	27052	1030455	43480	109799	0	0	8135	654696	0	0
2024-07-06 19:48:32			0	35487	0	0	0	26454	25060	153276	27379	1030428	43502	109800	0	0	8136	653789	0	0
2024-07-06 19:49:32			0	35484	0	0	0	26454	25050	153232	27242	1030473	43492	109800	0	0	8136	653958	0	0
2024-07-06 19:50:32			0	35493	0	0	0	26449	25050	153120	27412	1030491	43492	109798	0	0	8136	653564	0	0
2024-07-06 19:51:32			0	35473	0	0	0	26457	25040	153128	27341	1030473	43500	109801	0	0	8135	654477	0	0
2024-07-06 19:52:32			0	35482	0	0	0	26462	25050	153352	27116	1030437	43481	109803	0	0	8136	654046	0	0
2024-07-06 19:53:32			0	35464	0	0	0	26462	25050	153316	27255	1030464	43492	109803	0	0	8135	654835	0	0
2024-07-06 19:54:32			0	35464	0	0	0	26467	25050	153336	27079	1030437	43469	109805	0	0	8135	654835	0	0
2024-07-06 19:55:32			0	35464	0	0	0	26457	25050	153336	27317	1030491	43502	109801	0	0	8135	654835	0	0
2024-07-06 19:56:32			0	35470	0	0	0	26462	25050	153408	27464	1030491	43502	109803	0	0	8135	654572	0	0
2024-07-06 19:57:32			0	35494	0	0	0	26459	25040	153360	27300	1030500	43500	109802	0	0	8136	653557	0	0
2024-07-06 19:58:32			0	35497	0	0	0	26459	25050	153200	27270	1030464	43481	109802	0	0	8136	653388	0	0
2024-07-06 19:59:32			0	35505	0	0	0	26462	25040	153152	27204	1030455	43501	109803	0	0	8137	653075	0	0
2024-07-06 20:00:32			0	35506	0	0	0	26451	25050	153156	26972	1030437	43502	109799	0	0	8137	652994	0	0
2024-07-06 20:01:32			0	35509	0	0	0	26446	25040	153152	27345	1030428	43501	109797	0	0	8137	652900	0	0
2024-07-06 20:02:32			0	35507	0	0	0	26441	25050	153112	27310	1030446	43492	109795	0	0	8137	652951	0	0
2024-07-06 20:03:32			0	35504	0	0	0	26433	25030	153268	27138	1030384	43500	109792	0	0	8137	653156	0	0
2024-07-06 20:04:32			0	35497	0	0	0	26444	25030	153144	27175	1030349	43479	109796	0	0	8137	653463	0	0
2024-07-06 20:05:32			0	35509	0	0	0	26446	25040	153208	26963	1030447	43490	109797	0	0	8137	652900	0	0
2024-07-06 20:06:32			0	35508	0	0	0	26436	25030	153184	27121	1030357	43479	109793	0	0	8137	652981	0	0
2024-07-06 20:07:32			0	35506	0	0	0	26412	25020	153208	27561	1030260	43489	109784	0	0	8138	653105	0	0
2024-07-06 20:08:32			0	35488	0	0	0	26410	25020	153176	27303	1030233	43489	109783	0	0	8137	653894	0	0
2024-07-06 20:09:32			0	35499	0	0	0	26392	25010	153236	26923	1030242	43487	109776	0	0	8138	653449	0	0
2024-07-06 20:10:32			0	35461	0	0	0	26402	25010	153376	27076	1030189	43487	109780	0	0	8135	655115	0	0
2024-07-06 20:11:32			0	35435	0	0	0	26405	25010	153452	27372	1030242	43487	109781	0	0	8134	656256	0	0
2024-07-06 20:12:32			0	35407	0	0	0	26407	25010	153480	27308	1030207	43487	109782	0	0	8132	657487	0	0
2024-07-06 20:13:32			0	35397	0	0	0	26405	25010	153720	27448	1030314	43487	109781	0	0	8132	657927	0	0
2024-07-06 20:14:32			0	35382	0	0	0	26420	25000	153788	27045	1030251	43476	109787	0	0	8131	658625	0	0
2024-07-06 20:15:32			0	35361	0	0	0	26431	25000	153900	27412	1030305	43476	109791	0	0	8129	659551	0	0
2024-07-06 20:16:32			0	35336	0	0	0	26433	25000	153912	27348	1030278	43499	109792	0	0	8128	660654	0	0
2024-07-06 20:17:32			0	35332	0	0	0	26441	25000	153984	27445	1030323	43498	109795	0	0	8128	660830	0	0
2024-07-06 20:18:32			0	35327	0	0	0	26446	25010	153912	27291	1030368	43476	109797	0	0	8127	661014	0	0
2024-07-06 20:19:32			0	35346	0	0	0	26451	25010	153916	27410	1030341	43499	109799	0	0	8128	660175	0	0
2024-07-06 20:20:32			0	35375	0	0	0	26457	25010	153812	27130	1030403	43499	109801	0	0	8130	658896	0	0
2024-07-06 20:21:32			0	35401	0	0	0	26457	25020	153788	27093	1030358	43510	109801	0	0	8131	657714	0	0
2024-07-06 20:22:32			0	35412	0	0	0	26462	25010	153596	27175	1030403	43499	109803	0	0	8132	657267	0	0
2024-07-06 20:23:32			0	35460	0	0	0	26457	25030	153412	27415	1030429	43500	109801	0	0	8134	655084	0	0
2024-07-06 20:24:32			0	35477	0	0	0	26475	25030	153420	27152	1030483	43512	109808	0	0	8135	654339	0	0
2024-07-06 20:25:32			0	35478	0	0	0	26470	25040	153364	27405	1030473	43490	109806	0	0	8135	654258	0	0
2024-07-06 20:26:32			0	35505	0	0	0	26472	25020	153212	27519	1030447	43511	109807	0	0	8137	653149	0	0
2024-07-06 20:27:32			0	35499	0	0	0	26483	25040	153228	27261	1030509	43501	109811	0	0	8136	653338	0	0
2024-07-06 20:28:32			0	35539	0	0	0	26480	25030	153084	27326	1030483	43512	109810	0	0	8138	651625	0	0
2024-07-06 20:29:32			0	35556	0	0	0	26485	25040	152952	27066	1030473	43479	109812	0	0	8139	650845	0	0
2024-07-06 20:30:32			0	35580	0	0	0	26493	25040	152808	27303	1030482	43513	109815	0	0	8140	649798	0	0
2024-07-06 20:31:32			0	35582	0	0	0	26480	25040	152852	27067	1030509	43501	109810	0	0	8141	649711	0	0
2024-07-06 20:32:32			0	35556	0	0	0	26498	25060	152932	27185	1030571	43503	109817	0	0	8139	650772	0	0
2024-07-06 20:33:32			0	35570	0	0	0	26493	25050	152968	27017	1030544	43492	109815	0	0	8140	650197	0	0
2024-07-06 20:34:32			0	35558	0	0	0	26490	25050	153148	27105	1030544	43502	109814	0	0	8139	650721	0	0
2024-07-06 20:35:32			0	35567	0	0	0	26496	25060	153140	26965	1030589	43502	109816	0	0	8140	650291	0	0
2024-07-06 20:36:32			0	35537	0	0	0	26496	25060	153076	26951	1030642	43514	109816	0	0	8138	651602	0	0
2024-07-06 20:37:32			0	35542	0	0	0	26503	25070	153164	26955	1030633	43504	109819	0	0	8138	651346	0	0
2024-07-06 20:38:32			0	35534	0	0	0	26506	25050	153160	27123	1030580	43502	109820	0	0	8138	651770	0	0
2024-07-06 20:39:32			0	35517	0	0	0	26506	25060	153224	27078	1030571	43493	109820	0	0	8137	652476	0	0
2024-07-06 20:40:32			0	35508	0	0	0	26490	25060	153276	27313	1030589	43502	109814	0	0	8137	652870	0	0
2024-07-06 20:41:32			0	35520	0	0	0	26503	25080	153196	27140	1030704	43504	109819	0	0	8137	652271	0	0
2024-07-06 20:42:32			0	35525	0	0	0	26503	25070	153140	27315	1030588	43504	109819	0	0	8137	652089	0	0
2024-07-06 20:43:32			0	35526	0	0	0	26503	25060	153088	27346	1030624	43503	109819	0	0	8137	652082	0	0
2024-07-06 20:44:32			0	35544	0	0	0	26511	25080	152932	27260	1030677	43504	109822	0	0	8138	651222	0	0
2024-07-06 20:45:32			0	35564	0	0	0	26506	25080	152928	27286	1030624	43494	109820	0	0	8139	650349	0	0
2024-07-06 20:46:32			0	35564	0	0	0	26501	25080	152936	27559	1030739	43495	109818	0	0	8139	650349	0	0
2024-07-06 20:47:32			0	35589	0	0	0	26506	25080	152920	27312	1030659	43483	109820	0	0	8141	649258	0	0
2024-07-06 20:48:32			0	35584	0	0	0	26511	25080	152924	27313	1030686	43505	109822	0	0	8140	649476	0	0
2024-07-06 20:49:32			0	35573	0	0	0	26506	25080	153008	27308	1030731	43482	109820	0	0	8140	649956	0	0
2024-07-06 20:50:32			0	35581	0	0	0	26514	25080	152980	27284	1030632	43505	109823	0	0	8140	649607	0	0
2024-07-06 20:51:32			0	35541	0	0	0	26501	25070	153032	27208	1030642	43515	109818	0	0	8138	651390	0	0
2024-07-06 20:52:32			0	35548	0	0	0	26493	25080	153072	27355	1030650	43494	109815	0	0	8139	651047	0	0
2024-07-06 20:53:32			0	35523	0	0	0	26506	25080	153076	27123	1030677	43515	109820	0	0	8137	652140	0	0
2024-07-06 20:54:32			0	35505	0	0	0	26511	25080	153108	27272	1030659	43483	109822	0	0	8136	652927	0	0
2024-07-06 20:55:32			0	35511	0	0	0	26503	25080	153148	27315	1030624	43482	109819	0	0	8137	652664	0	0
2024-07-06 20:56:32			0	35515	0	0	0	26498	25080	153124	27204	1030659	43495	109817	0	0	8137	652490	0	0
2024-07-06 20:57:32			0	35525	0	0	0	26509	25080	153128	26859	1030686	43505	109821	0	0	8137	652052	0	0
2024-07-06 20:58:32			0	35549	0	0	0	26511	25080	153068	27157	1030677	43504	109822	0	0	8139	651003	0	0
2024-07-06 20:59:32			0	35563	0	0	0	26503	25080	152948	27131	1030686	43516	109819	0	0	8139	650392	0	0
2024-07-06 21:00:32			0	35569	0	0	0	26511	25070	152896	27128	1030695	43504	109822	0	0	8140	650167	0	0
2024-07-06 21:01:32			0	35590	0	0	0	26503	25080	152832	27296	1030704	43504	109819	0	0	8141	649215	0	0
2024-07-06 21:02:32			0	35592	0	0	0	26493	25080	152752	27135	1030677	43504	109815	0	0	8141	649128	0	0
2024-07-06 21:03:32			0	35610	0	0	0	26506	25090	152664	27279	1030730	43507	109820	0	0	8142	648307	0	0
2024-07-06 21:04:32			0	35654	0	0	0	26501	25080	152620	27312	1030650	43504	109818	0	0	8144	646430	0	0
2024-07-06 21:05:32			0	35666	0	0	0	26501	25080	152448	27183	1030650	43482	109818	0	0	8145	645908	0	0
2024-07-06 21:06:32			0	35683	0	0	0	26501	25090	152452	27230	1030703	43507	109818	0	0	8146	645134	0	0
2024-07-06 21:07:32			0	35690	0	0	0	26498	25080	152412	27163	1030659	43505	109817	0	0	8146	644867	0	0
2024-07-06 21:08:32			0	35695	0	0	0	26498	25090	152380	27225	1030694	43506	109817	0	0	8147	644613	0	0
2024-07-06 21:09:32			0	35714	0	0	0	26498	25080	152376	26972	1030713	43505	109817	0	0	8148	643826	0	0
2024-07-06 21:10:32			0	35725	0	0	0	26501	25080	152400	27287	1030650	43504	109818	0	0	8148	643350	0	0
2024-07-06 21:11:32			0	35701	0	0	0	26488	25080	152300	26916	1030659	43495	109813	0	0	8147	644390	0	0
2024-07-06 21:12:32			0	35703	0	0	0	26493	25080	152328	27201	1030677	43494	109815	0	0	8147	644303	0	0
2024-07-06 21:13:32			0	35704	0	0	0	26496	25080	152380	27090	1030713	43495	109816	0	0	8147	644260	0	0
2024-07-06 21:14:32			0	35690	0	0	0	26493	25080	152428	27161	1030659	43505	109815	0	0	8146	644867	0	0
2024-07-06 21:15:32			0	35693	0	0	0	26488	25080	152412	27355	1030624	43504	109813	0	0	8147	644737	0	0
2024-07-06 21:16:32			0	35695	0	0	0	26488	25070	152400	27144	1030615	43494	109813	0	0	8147	644687	0	0
2024-07-06 21:17:32			0	35698	0	0	0	26488	25080	152368	27062	1030624	43504	109813	0	0	8147	644520	0	0
2024-07-06 21:18:32			0	35704	0	0	0	26483	25070	152424	27260	1030642	43482	109811	0	0	8147	644296	0	0
2024-07-06 21:19:32			0	35678	0	0	0	26483	25080	152520	27196	1030605	43483	109811	0	0	8146	645387	0	0
2024-07-06 21:20:32			0	35669	0	0	0	26485	25070	152448	27079	1030579	43504	109812	0	0	8145	645815	0	0
2024-07-06 21:21:32			0	35666	0	0	0	26488	25070	152388	27332	1030660	43504	109813	0	0	8145	645945	0	0
2024-07-06 21:22:32			0	35688	0	0	0	26493	25070	152416	27176	1030668	43494	109815	0	0	8146	644990	0	0
2024-07-06 21:23:32			0	35689	0	0	0	26488	25070	152428	27154	1030642	43504	109813	0	0	8146	644947	0	0
2024-07-06 21:24:32			0	35670	0	0	0	26488	25070	152584	27041	1030695	43504	109813	0	0	8145	645771	0	0
2024-07-06 21:25:32			0	35673	0	0	0	26485	25060	152604	27017	1030678	43503	109812	0	0	8145	645678	0	0
2024-07-06 21:26:32			0	35637	0	0	0	26493	25070	152680	27043	1030615	43504	109815	0	0	8143	647205	0	0
2024-07-06 21:27:32			0	35618	0	0	0	26488	25070	152744	27142	1030579	43504	109813	0	0	8143	648032	0	0
2024-07-06 21:28:32			0	35615	0	0	0	26488	25070	152884	27150	1030561	43504	109813	0	0	8142	648162	0	0
2024-07-06 21:29:32			0	35592	0	0	0	26480	25070	152860	27409	1030660	43515	109810	0	0	8141	649164	0	0
2024-07-06 21:30:32			0	35609	0	0	0	26477	25060	152872	27144	1030616	43492	109809	0	0	8142	648460	0	0
2024-07-06 21:31:32			0	35608	0	0	0	26475	25070	152848	27405	1030588	43482	109808	0	0	8142	648467	0	0
2024-07-06 21:32:32			0	35635	0	0	0	26457	25060	152756	27267	1030597	43503	109801	0	0	8144	647329	0	0
2024-07-06 21:33:32			0	35655	0	0	0	26462	25060	152724	27156	1030508	43481	109803	0	0	8145	646459	0	0
2024-07-06 21:34:32			0	35652	0	0	0	26462	25060	152480	27286	1030517	43514	109803	0	0	8145	646590	0	0
2024-07-06 21:35:32			0	35647	0	0	0	26475	25060	152656	27225	1030562	43502	109808	0	0	8144	646807	0	0
2024-07-06 21:36:32			0	35637	0	0	0	26467	25050	152728	27022	1030553	43492	109805	0	0	8144	647279	0	0
2024-07-06 21:37:32			0	35627	0	0	0	26477	25060	152748	27137	1030597	43493	109809	0	0	8143	647677	0	0
2024-07-06 21:38:32			0	35590	0	0	0	26470	25050	152856	27111	1030553	43502	109806	0	0	8141	649325	0	0
2024-07-06 21:39:32			0	35605	0	0	0	26477	25050	152872	27043	1030553	43502	109809	0	0	8142	648672	0	0
2024-07-06 21:40:32			0	35579	0	0	0	26462	25070	153032	27140	1030579	43504	109803	0	0	8141	649731	0	0
2024-07-06 21:41:32			0	35548	0	0	0	26472	25050	153048	27183	1030580	43502	109807	0	0	8139	651158	0	0
2024-07-06 21:42:32			0	35524	0	0	0	26472	25060	153116	27355	1030544	43503	109807	0	0	8138	652170	0	0
2024-07-06 21:43:32			0	35531	0	0	0	26467	25050	153132	27150	1030544	43502	109805	0	0	8138	651901	0	0
2024-07-06 21:44:32			0	35544	0	0	0	26464	25060	153172	27294	1030589	43502	109804	0	0	8139	651296	0	0
2024-07-06 21:45:32			0	35549	0	0	0	26477	25050	153168	27157	1030580	43502	109809	0	0	8139	651114	0	0
2024-07-06 21:46:32			0	35558	0	0	0	26472	25060	153040	27223	1030597	43503	109807	0	0	8140	650684	0	0
2024-07-06 21:47:32			0	35588	0	0	0	26480	25050	152956	27331	1030553	43502	109810	0	0	8141	649412	0	0
2024-07-06 21:48:32			0	35583	0	0	0	26477	25060	152920	27024	1030616	43502	109809	0	0	8141	649594	0	0
2024-07-06 21:49:32			0	35602	0	0	0	26483	25060	152924	27140	1030651	43503	109811	0	0	8142	648765	0	0
2024-07-06 21:50:32			0	35609	0	0	0	26488	25060	152840	27031	1030624	43514	109813	0	0	8142	648460	0	0
2024-07-06 21:51:32			0	35628	0	0	0	26493	25060	152744	27128	1030669	43502	109815	0	0	8143	647634	0	0
2024-07-06 21:52:32			0	35655	0	0	0	26483	25060	152720	27190	1030597	43503	109811	0	0	8145	646459	0	0
2024-07-06 21:53:32			0	35667	0	0	0	26488	25060	152740	27412	1030571	43514	109813	0	0	8145	645938	0	0
2024-07-06 21:54:32			0	35677	0	0	0	26475	25060	152548	27300	1030562	43481	109808	0	0	8146	645504	0	0
2024-07-06 21:55:32			0	35679	0	0	0	26483	25060	152520	27230	1030624	43514	109811	0	0	8146	645417	0	0
2024-07-06 21:56:32			0	35709	0	0	0	26490	25070	152516	27448	1030606	43515	109814	0	0	8147	644080	0	0
2024-07-06 21:57:32			0	35714	0	0	0	26485	25060	152544	27351	1030562	43514	109812	0	0	8148	643899	0	0
2024-07-06 21:58:32			0	35703	0	0	0	26493	25070	152440	27284	1030579	43504	109815	0	0	8147	644340	0	0
2024-07-06 21:59:32			0	35703	0	0	0	26483	25070	152412	27081	1030615	43504	109811	0	0	8147	644340	0	0
2024-07-06 22:00:32			0	35696	0	0	0	26472	25060	152420	27351	1030571	43514	109807	0	0	8147	644680	0	0
2024-07-06 22:01:32			0	35711	0	0	0	26472	25050	152336	27443	1030580	43481	109807	0	0	8148	644066	0	0
2024-07-06 22:02:32			0	35695	0	0	0	26464	25060	152380	27327	1030616	43492	109804	0	0	8147	644723	0	0
2024-07-06 22:03:32			0	35698	0	0	0	26475	25060	152464	27301	1030597	43514	109808	0	0	8147	644593	0	0
2024-07-06 22:04:32			0	35677	0	0	0	26485	25060	152572	27199	1030571	43514	109812	0	0	8146	645504	0	0
2024-07-06 22:05:32			0	35651	0	0	0	26483	25060	152596	27237	1030642	43502	109811	0	0	8144	646633	0	0
2024-07-06 22:06:32			0	35643	0	0	0	26480	25060	152628	27137	1030651	43493	109810	0	0	8144	646981	0	0
2024-07-06 22:07:32			0	35598	0	0	0	26472	25060	152776	27152	1030571	43503	109807	0	0	8142	648940	0	0
2024-07-06 22:08:32			0	35605	0	0	0	26477	25050	152864	27258	1030553	43502	109809	0	0	8142	648672	0	0
2024-07-06 22:09:32			0	35575	0	0	0	26470	25050	152904	27557	1030580	43502	109806	0	0	8140	649979	0	0
2024-07-06 22:10:32			0	35564	0	0	0	26472	25050	153080	27512	1030580	43502	109807	0	0	8140	650459	0	0
2024-07-06 22:11:32			0	35531	0	0	0	26475	25060	153260	27133	1030571	43503	109808	0	0	8138	651864	0	0
2024-07-06 22:12:32			0	35492	0	0	0	26490	25060	153256	26951	1030597	43493	109814	0	0	8136	653570	0	0
2024-07-06 22:13:32			0	35489	0	0	0	26493	25070	153292	27286	1030606	43504	109815	0	0	8136	653665	0	0
2024-07-06 22:14:32			0	35476	0	0	0	26490	25070	153404	27308	1030606	43504	109814	0	0	8135	654234	0	0
2024-07-06 22:15:32			0	35476	0	0	0	26498	25070	153300	27069	1030633	43494	109817	0	0	8135	654234	0	0
2024-07-06 22:16:32			0	35483	0	0	0	26490	25060	153388	27334	1030651	43493	109814	0	0	8135	653965	0	0
2024-07-06 22:17:32			0	35483	0	0	0	26488	25070	153468	27209	1030660	43504	109813	0	0	8135	653927	0	0
2024-07-06 22:18:32			0	35493	0	0	0	26477	25060	153404	27374	1030669	43502	109809	0	0	8136	653526	0	0
2024-07-06 22:19:32			0	35489	0	0	0	26496	25070	153440	26972	1030660	43504	109816	0	0	8135	653665	0	0
2024-07-06 22:20:32			0	35478	0	0	0	26498	25070	153436	27353	1030713	43504	109817	0	0	8135	654147	0	0
2024-07-06 22:21:32			0	35477	0	0	0	26501	25070	153424	27379	1030633	43515	109818	0	0	8135	654190	0	0
2024-07-06 22:22:32			0	35463	0	0	0	26503	25060	153420	27178	1030624	43514	109819	0	0	8134	654841	0	0
2024-07-06 22:23:32			0	35452	0	0	0	26498	25070	153600	27119	1030686	43494	109817	0	0	8133	655287	0	0
2024-07-06 22:24:32			0	35428	0	0	0	26511	25080	153540	27105	1030766	43495	109822	0	0	8132	656303	0	0
2024-07-06 22:25:32			0	35402	0	0	0	26514	25080	153680	26748	1030784	43504	109823	0	0	8131	657446	0	0
2024-07-06 22:26:32			0	35402	0	0	0	26514	25080	153620	27104	1030731	43504	109823	0	0	8131	657446	0	0
2024-07-06 22:27:32			0	35400	0	0	0	26516	25080	153644	26805	1030713	43505	109824	0	0	8130	657534	0	0
2024-07-06 22:28:32			0	35407	0	0	0	26519	25080	153648	27253	1030793	43495	109825	0	0	8131	657226	0	0
2024-07-06 22:29:32			0	35386	0	0	0	26524	25080	153664	27128	1030793	43505	109827	0	0	8130	658150	0	0
2024-07-06 22:30:32			0	35407	0	0	0	26522	25090	153656	27085	1030748	43517	109826	0	0	8131	657189	0	0
2024-07-06 22:31:32			0	35406	0	0	0	26532	25100	153628	27128	1030846	43507	109830	0	0	8131	657196	0	0
2024-07-06 22:32:32			0	35408	0	0	0	26535	25100	153632	27130	1030792	43518	109831	0	0	8131	657108	0	0
2024-07-06 22:33:32			0	35422	0	0	0	26535	25090	153680	27284	1030837	43507	109831	0	0	8131	656530	0	0
2024-07-06 22:34:32			0	35423	0	0	0	26540	25100	153620	27121	1030855	43507	109833	0	0	8131	656449	0	0
2024-07-06 22:35:32			0	35429	0	0	0	26529	25090	153440	27185	1030784	43518	109829	0	0	8132	656222	0	0
2024-07-06 22:36:32			0	35451	0	0	0	26540	25100	153476	27039	1030801	43507	109833	0	0	8133	655219	0	0
2024-07-06 22:37:32			0	35491	0	0	0	26532	25090	153316	27324	1030891	43507	109830	0	0	8135	653503	0	0
2024-07-06 22:38:32			0	35477	0	0	0	26542	25110	153324	26998	1030944	43519	109834	0	0	8134	654042	0	0
2024-07-06 22:39:32			0	35500	0	0	0	26548	25100	153264	27383	1030881	43497	109836	0	0	8135	653072	0	0
2024-07-06 22:40:32			0	35515	0	0	0	26555	25110	153208	27396	1030925	43509	109839	0	0	8136	652378	0	0
2024-07-06 22:41:32			0	35544	0	0	0	26555	25110	153140	27199	1030917	43519	109839	0	0	8138	651111	0	0
2024-07-06 22:42:32			0	35556	0	0	0	26571	25120	153060	27083	1030934	43509	109845	0	0	8138	650550	0	0
2024-07-06 22:43:32			0	35558	0	0	0	26574	25130	153024	27133	1030952	43521	109846	0	0	8138	650426	0	0
2024-07-06 22:44:32			0	35547	0	0	0	26568	25120	153012	27357	1030970	43520	109844	0	0	8138	650943	0	0
2024-07-06 22:45:32			0	35532	0	0	0	26561	25130	153060	27538	1031032	43521	109841	0	0	8137	651561	0	0
2024-07-06 22:46:32			0	35552	0	0	0	26568	25130	153004	27403	1030978	43521	109844	0	0	8138	650688	0	0
2024-07-06 22:47:32			0	35550	0	0	0	26576	25130	153100	27313	1031014	43511	109847	0	0	8138	650775	0	0
2024-07-06 22:48:32			0	35543	0	0	0	26576	25140	153052	27355	1031023	43511	109847	0	0	8137	651044	0	0
2024-07-06 22:49:32			0	35556	0	0	0	26571	25130	152996	27298	1030960	43500	109845	0	0	8138	650513	0	0
2024-07-06 22:50:32			0	35588	0	0	0	26571	25140	152956	27357	1030996	43522	109845	0	0	8140	649081	0	0
2024-07-06 22:51:32			0	35578	0	0	0	26566	25140	152888	27216	1031004	43489	109843	0	0	8139	649517	0	0
2024-07-06 22:52:32			0	35591	0	0	0	26571	25140	152776	27090	1030969	43511	109845	0	0	8140	648950	0	0
2024-07-06 22:53:32			0	35610	0	0	0	26568	25140	152704	27223	1031085	43511	109844	0	0	8141	648123	0	0
2024-07-06 22:54:32			0	35625	0	0	0	26571	25140	152696	27185	1031058	43511	109845	0	0	8142	647470	0	0
2024-07-06 22:55:32			0	35629	0	0	0	26558	25140	152580	27486	1031023	43500	109840	0	0	8142	647296	0	0
2024-07-06 22:56:32			0	35633	0	0	0	26555	25140	152636	27414	1030969	43522	109839	0	0	8143	647122	0	0
2024-07-06 22:57:32			0	35647	0	0	0	26576	25140	152660	27109	1031049	43511	109847	0	0	8143	646514	0	0
2024-07-06 22:58:32			0	35627	0	0	0	26574	25140	152656	27119	1031023	43522	109846	0	0	8142	647383	0	0
2024-07-06 22:59:32			0	35635	0	0	0	26574	25150	152708	27281	1031075	43513	109846	0	0	8142	646999	0	0
2024-07-06 23:00:32			0	35616	0	0	0	26576	25150	152640	27374	1031067	43523	109847	0	0	8141	647825	0	0
2024-07-06 23:01:32			0	35631	0	0	0	26574	25140	152684	27156	1031138	43511	109846	0	0	8142	647209	0	0
2024-07-06 23:02:32			0	35647	0	0	0	26574	25140	152692	27260	1031112	43522	109846	0	0	8143	646514	0	0
2024-07-06 23:03:32			0	35632	0	0	0	26568	25150	152716	27431	1031049	43524	109844	0	0	8142	647129	0	0
2024-07-06 23:04:32			0	35641	0	0	0	26571	25150	152704	27086	1031093	43512	109845	0	0	8143	646738	0	0
2024-07-06 23:05:32			0	35651	0	0	0	26574	25150	152620	26970	1031075	43524	109846	0	0	8143	646303	0	0
2024-07-06 23:06:32			0	35645	0	0	0	26576	25160	152648	27189	1031084	43524	109847	0	0	8143	646527	0	0
2024-07-06 23:07:32			0	35633	0	0	0	26574	25150	152672	27248	1031040	43523	109846	0	0	8142	647085	0	0
2024-07-06 23:08:32			0	35618	0	0	0	26581	25150	152736	27353	1031075	43513	109849	0	0	8141	647738	0	0
2024-07-06 23:09:32			0	35604	0	0	0	26571	25150	152852	26961	1031075	43513	109845	0	0	8141	648347	0	0
2024-07-06 23:10:32			0	35592	0	0	0	26579	25150	152860	27377	1031102	43513	109848	0	0	8140	648870	0	0
2024-07-06 23:11:32			0	35579	0	0	0	26579	25150	152820	27374	1031075	43513	109848	0	0	8139	649436	0	0
2024-07-06 23:12:32			0	35581	0	0	0	26574	25160	152784	27412	1031084	43524	109846	0	0	8140	649312	0	0
2024-07-06 23:13:32			0	35606	0	0	0	26576	25150	152896	27346	1031102	43501	109847	0	0	8141	648260	0	0
2024-07-06 23:14:32			0	35603	0	0	0	26576	25150	152812	27326	1031022	43524	109847	0	0	8141	648391	0	0
2024-07-06 23:15:32			0	35622	0	0	0	26568	25160	152792	27144	1031111	43513	109844	0	0	8142	647527	0	0
2024-07-06 23:16:32			0	35602	0	0	0	26576	25150	152684	27194	1031075	43491	109847	0	0	8141	648434	0	0
2024-07-06 23:17:32			0	35640	0	0	0	26576	25150	152540	27144	1031102	43513	109847	0	0	8143	646781	0	0
2024-07-06 23:18:32			0	35652	0	0	0	26579	25150	152552	27270	1031102	43524	109848	0	0	8143	646260	0	0
2024-07-06 23:19:32			0	35666	0	0	0	26574	25160	152348	27168	1031111	43524	109846	0	0	8144	645615	0	0
2024-07-06 23:20:32			0	35684	0	0	0	26563	25150	152444	27383	1031013	43512	109842	0	0	8145	644871	0	0
2024-07-06 23:21:32			0	35691	0	0	0	26561	25150	152404	27086	1031049	43513	109841	0	0	8146	644567	0	0
2024-07-06 23:22:32			0	35692	0	0	0	26563	25160	152344	27164	1031093	43525	109842	0	0	8146	644487	0	0
2024-07-06 23:23:32			0	35708	0	0	0	26563	25160	152340	27351	1031031	43501	109842	0	0	8146	643794	0	0
2024-07-06 23:24:32			0	35714	0	0	0	26576	25140	152348	27192	1031031	43511	109847	0	0	8146	643607	0	0
2024-07-06 23:25:32			0	35737	0	0	0	26571	25150	152336	27329	1031093	43512	109845	0	0	8148	642575	0	0
2024-07-06 23:26:32			0	35748	0	0	0	26574	25150	152192	27057	1031093	43523	109846	0	0	8148	642100	0	0
2024-07-06 23:27:32			0	35740	0	0	0	26574	25160	152132	27097	1031111	43513	109846	0	0	8148	642409	0	0
2024-07-06 23:28:32			0	35764	0	0	0	26576	25150	152048	27270	1031102	43524	109847	0	0	8149	641408	0	0
2024-07-06 23:29:32			0	35775	0	0	0	26576	25150	152056	27550	1031067	43534	109847	0	0	8150	640933	0	0
2024-07-06 23:30:32			0	35785	0	0	0	26571	25150	151952	27196	1031049	43524	109845	0	0	8150	640501	0	0
2024-07-06 23:31:32			0	35779	0	0	0	26574	25150	152036	27448	1031120	43512	109846	0	0	8150	640760	0	0
2024-07-06 23:32:32			0	35797	0	0	0	26576	25160	151924	27428	1031084	43513	109847	0	0	8151	639947	0	0
2024-07-06 23:33:32			0	35784	0	0	0	26568	25150	152016	26915	1031075	43513	109844	0	0	8150	640545	0	0
2024-07-06 23:34:32			0	35779	0	0	0	26579	25150	151908	27078	1031067	43512	109848	0	0	8150	640760	0	0
2024-07-06 23:35:32			0	35794	0	0	0	26566	25150	151884	27085	1031049	43524	109843	0	0	8151	640113	0	0
2024-07-06 23:36:32			0	35798	0	0	0	26568	25150	151972	27431	1031049	43513	109844	0	0	8151	639941	0	0
2024-07-06 23:37:32			0	35802	0	0	0	26561	25150	151964	27428	1031040	43523	109841	0	0	8151	639768	0	0
2024-07-06 23:38:32			0	35807	0	0	0	26561	25140	151988	27222	1031085	43533	109841	0	0	8152	639589	0	0
2024-07-06 23:39:32			0	35798	0	0	0	26574	25150	151920	27010	1031129	43524	109846	0	0	8151	639941	0	0
2024-07-06 23:40:32			0	35805	0	0	0	26563	25150	151964	27308	1031049	43524	109842	0	0	8152	639639	0	0
2024-07-06 23:41:32			0	35800	0	0	0	26568	25160	151980	27092	1031111	43513	109844	0	0	8151	639818	0	0
2024-07-06 23:42:32			0	35812	0	0	0	26574	25150	151808	26963	1031102	43535	109846	0	0	8152	639337	0	0
2024-07-06 23:43:32			0	35818	0	0	0	26571	25150	151860	27015	1031067	43512	109845	0	0	8152	639078	0	0
2024-07-06 23:44:32			0	35819	0	0	0	26574	25150	151896	27222	1031129	43524	109846	0	0	8152	639035	0	0
2024-07-06 23:45:32			0	35824	0	0	0	26558	25160	151804	27301	1031138	43513	109840	0	0	8153	638784	0	0
2024-07-06 23:46:32			0	35817	0	0	0	26558	25150	151836	27137	1031067	43534	109840	0	0	8152	639121	0	0
2024-07-06 23:47:32			0	35818	0	0	0	26561	25150	151904	27261	1031075	43501	109841	0	0	8152	639078	0	0
2024-07-06 23:48:32			0	35832	0	0	0	26558	25140	151848	27159	1031031	43511	109840	0	0	8153	638512	0	0
2024-07-06 23:49:32			0	35841	0	0	0	26558	25140	151732	26996	1031004	43522	109840	0	0	8154	638124	0	0
2024-07-06 23:50:32			0	35816	0	0	0	26563	25140	151740	27176	1031058	43500	109842	0	0	8152	639201	0	0
2024-07-06 23:51:32			0	35837	0	0	0	26555	25140	151768	27310	1031049	43489	109839	0	0	8153	638296	0	0
2024-07-06 23:52:32			0	35824	0	0	0	26563	25150	151704	27287	1031067	43523	109842	0	0	8153	638820	0	0
2024-07-06 23:53:32			0	35834	0	0	0	26555	25140	151804	27216	1031023	43511	109839	0	0	8153	638426	0	0
2024-07-06 23:54:32			0	35844	0	0	0	26553	25140	151724	27187	1030978	43522	109838	0	0	8154	637995	0	0
2024-07-06 23:55:32			0	35858	0	0	0	26561	25150	151665	27258	1031013	43512	109841	0	0	8154	637356	0	0
2024-07-06 23:56:32			0	35870	0	0	0	26555	25140	151617	27263	1031031	43533	109839	0	0	8155	636877	0	0
2024-07-06 23:57:32			0	35881	0	0	0	26558	25140	151649	27166	1030996	43533	109840	0	0	8156	636404	0	0
2024-07-06 23:58:32			0	35873	0	0	0	26563	25140	151541	27081	1031085	43511	109842	0	0	8155	636748	0	0
2024-07-06 23:59:32			0	35881	0	0	0	26555	25150	151573	27235	1031040	43512	109839	0	0	8156	636368	0	0
2024-07-07 00:00:32			0	35876	0	0	0	26550	25140	151385	27322	1031023	43522	109837	0	0	8156	636619	0	0
2024-07-07 00:01:32			0	35905	0	0	0	26548	25150	151489	27183	1031040	43500	109836	0	0	8157	635338	0	0
2024-07-07 00:02:32			0	35899	0	0	0	26553	25140	151449	27190	1031031	43522	109838	0	0	8157	635631	0	0
2024-07-07 00:03:32			0	35917	0	0	0	26542	25130	151309	27258	1031014	43511	109834	0	0	8158	634895	0	0
2024-07-07 00:04:32			0	35918	0	0	0	26558	25140	151333	27027	1031058	43511	109840	0	0	8158	634816	0	0
2024-07-07 00:05:32			0	35923	0	0	0	26548	25140	151297	27296	1031004	43522	109836	0	0	8158	634602	0	0
2024-07-07 00:06:32			0	35926	0	0	0	26550	25140	151273	27436	1031076	43522	109837	0	0	8158	634473	0	0
2024-07-07 00:07:32			0	35939	0	0	0	26553	25130	151189	27180	1031085	43510	109838	0	0	8159	633952	0	0
2024-07-07 00:08:32			0	35949	0	0	0	26561	25140	151165	27019	1031004	43522	109841	0	0	8159	633488	0	0
2024-07-07 00:09:32			0	35939	0	0	0	26561	25150	151129	26994	1030986	43523	109841	0	0	8159	633880	0	0
2024-07-07 00:10:32			0	35948	0	0	0	26555	25130	151249	27138	1031041	43500	109839	0	0	8159	633566	0	0
2024-07-07 00:11:32			0	35931	0	0	0	26553	25130	151289	27258	1031014	43522	109838	0	0	8158	634295	0	0
2024-07-07 00:12:32			0	35932	0	0	0	26545	25140	151261	27282	1030969	43511	109835	0	0	8159	634216	0	0
2024-07-07 00:13:32			0	35922	0	0	0	26537	25130	151341	27452	1030960	43511	109832	0	0	8158	634681	0	0
2024-07-07 00:14:32			0	35898	0	0	0	26550	25140	151357	27358	1031049	43522	109837	0	0	8157	635674	0	0
2024-07-07 00:15:32			0	35890	0	0	0	26548	25130	151437	27357	1031032	43510	109836	0	0	8156	636054	0	0
2024-07-07 00:16:32			0	35880	0	0	0	26550	25140	151481	27102	1030996	43511	109837	0	0	8156	636447	0	0
2024-07-07 00:17:32			0	35860	0	0	0	26558	25140	151553	27130	1031031	43511	109840	0	0	8155	637307	0	0
2024-07-07 00:18:32			0	35861	0	0	0	26555	25140	151597	27098	1031058	43533	109839	0	0	8155	637264	0	0
2024-07-07 00:19:32			0	35830	0	0	0	26555	25130	151716	27230	1031041	43522	109839	0	0	8153	638634	0	0
2024-07-07 00:20:32			0	35796	0	0	0	26550	25140	151840	27405	1030996	43522	109837	0	0	8151	640063	0	0
2024-07-07 00:21:32			0	35764	0	0	0	26555	25140	151904	27324	1031023	43533	109839	0	0	8149	641445	0	0
2024-07-07 00:22:32			0	35712	0	0	0	26553	25140	152184	26932	1031031	43511	109838	0	0	8147	643694	0	0
2024-07-07 00:23:32			0	35688	0	0	0	26550	25140	152312	27324	1030969	43500	109837	0	0	8146	644734	0	0
2024-07-07 00:24:32			0	35618	0	0	0	26545	25130	152616	27001	1030960	43522	109835	0	0	8142	647811	0	0
2024-07-07 00:25:32			0	35560	0	0	0	26542	25130	152884	27331	1030987	43522	109834	0	0	8139	650339	0	0
2024-07-07 00:26:32			0	35526	0	0	0	26545	25120	153076	27267	1030943	43509	109835	0	0	8137	651860	0	0
2024-07-07 00:27:32			0	35488	0	0	0	26537	25130	153288	27492	1030987	43500	109832	0	0	8135	653486	0	0
2024-07-07 00:28:32			0	35457	0	0	0	26535	25130	153412	27078	1030987	43511	109831	0	0	8133	654844	0	0
2024-07-07 00:29:32			0	35404	0	0	0	26535	25130	153584	27360	1030987	43522	109831	0	0	8131	657172	0	0
2024-07-07 00:30:32			0	35393	0	0	0	26542	25120	153704	27190	1030996	43520	109834	0	0	8130	657693	0	0
2024-07-07 00:31:32			0	35348	0	0	0	26537	25120	153872	27459	1030916	43520	109832	0	0	8127	659675	0	0
2024-07-07 00:32:32			0	35312	0	0	0	26535	25130	153896	27145	1030952	43510	109831	0	0	8126	661226	0	0
2024-07-07 00:33:32			0	35317	0	0	0	26535	25130	153924	27001	1030960	43511	109831	0	0	8126	661005	0	0
2024-07-07 00:34:32			0	35299	0	0	0	26540	25130	154092	27281	1030925	43510	109833	0	0	8125	661801	0	0
2024-07-07 00:35:32			0	35256	0	0	0	26535	25140	154148	27381	1030969	43533	109831	0	0	8123	663666	0	0
2024-07-07 00:36:32			0	35261	0	0	0	26537	25120	154268	27258	1030943	43520	109832	0	0	8123	663519	0	0
2024-07-07 00:37:32			0	35236	0	0	0	26535	25120	154368	27180	1030943	43531	109831	0	0	8121	664627	0	0
2024-07-07 00:38:32			0	35233	0	0	0	26537	25120	154308	27509	1030970	43509	109832	0	0	8121	664760	0	0
2024-07-07 00:39:32			0	35211	0	0	0	26542	25120	154404	27272	1030916	43520	109834	0	0	8120	665737	0	0
2024-07-07 00:40:32			0	35208	0	0	0	26532	25120	154476	27100	1030961	43509	109830	0	0	8120	665870	0	0
2024-07-07 00:41:32			0	35184	0	0	0	26537	25120	154488	27336	1030970	43509	109832	0	0	8119	666936	0	0
2024-07-07 00:42:32			0	35160	0	0	0	26535	25120	154612	27348	1030907	43520	109831	0	0	8117	668003	0	0
2024-07-07 00:43:32			0	35149	0	0	0	26529	25110	154660	27144	1030872	43520	109829	0	0	8117	668531	0	0
2024-07-07 00:44:32			0	35139	0	0	0	26532	25120	154688	27213	1030970	43520	109830	0	0	8116	668938	0	0
2024-07-07 00:45:32			0	35123	0	0	0	26537	25110	154836	27246	1030899	43520	109832	0	0	8115	669690	0	0
2024-07-07 00:46:32			0	35101	0	0	0	26532	25110	154887	27085	1030979	43509	109830	0	0	8114	670671	0	0
2024-07-07 00:47:32			0	35101	0	0	0	26529	25110	154951	27331	1030917	43508	109829	0	0	8114	670671	0	0
2024-07-07 00:48:32			0	35092	0	0	0	26527	25110	155027	27123	1030952	43520	109828	0	0	8114	671073	0	0
2024-07-07 00:49:32			0	35088	0	0	0	26532	25110	155015	27312	1030899	43509	109830	0	0	8113	671252	0	0
2024-07-07 00:50:32			0	35083	0	0	0	26519	25110	155003	27305	1030899	43520	109825	0	0	8113	671475	0	0
2024-07-07 00:51:32			0	35061	0	0	0	26524	25120	155031	27322	1030907	43520	109827	0	0	8112	672420	0	0
2024-07-07 00:52:32			0	35075	0	0	0	26529	25110	155087	27232	1030952	43520	109829	0	0	8113	671832	0	0
2024-07-07 00:53:32			0	35079	0	0	0	26527	25120	155003	27284	1030934	43520	109828	0	0	8113	671616	0	0
2024-07-07 00:54:32			0	35066	0	0	0	26527	25110	155127	27114	1030952	43509	109828	0	0	8112	672235	0	0
2024-07-07 00:55:32			0	35047	0	0	0	26529	25100	155103	27421	1030881	43507	109829	0	0	8111	673123	0	0
2024-07-07 00:56:32			0	35055	0	0	0	26529	25110	155135	27440	1030925	43509	109829	0	0	8112	672727	0	0
2024-07-07 00:57:32			0	35047	0	0	0	26519	25110	155151	27469	1030890	43508	109825	0	0	8111	673085	0	0
2024-07-07 00:58:32			0	35061	0	0	0	26519	25110	155187	27419	1030944	43508	109825	0	0	8112	672458	0	0
2024-07-07 00:59:32			0	35047	0	0	0	26522	25120	155235	27327	1030934	43542	109826	0	0	8111	673047	0	0
2024-07-07 01:00:32			0	35027	0	0	0	26529	25110	155215	27237	1030925	43531	109829	0	0	8110	673980	0	0
2024-07-07 01:01:32			0	35024	0	0	0	26527	25110	155335	27281	1030863	43519	109828	0	0	8110	674115	0	0
2024-07-07 01:02:32			0	35022	0	0	0	26522	25110	155303	27725	1030899	43520	109826	0	0	8110	674205	0	0
2024-07-07 01:03:32			0	35024	0	0	0	26529	25110	155315	27218	1030836	43519	109829	0	0	8110	674115	0	0
2024-07-07 01:04:32			0	35014	0	0	0	26519	25100	155295	27291	1030855	43518	109825	0	0	8110	674601	0	0
2024-07-07 01:05:32			0	35020	0	0	0	26524	25100	155323	27395	1030935	43518	109827	0	0	8110	674332	0	0
2024-07-07 01:06:32			0	35020	0	0	0	26522	25110	155363	27055	1030872	43509	109826	0	0	8110	674294	0	0
2024-07-07 01:07:32			0	35021	0	0	0	26516	25100	155371	26783	1030855	43518	109824	0	0	8110	674288	0	0
2024-07-07 01:08:32			0	35026	0	0	0	26509	25100	155383	27332	1030935	43518	109821	0	0	8110	674063	0	0
2024-07-07 01:09:32			0	35016	0	0	0	26519	25100	155371	27279	1030881	43507	109825	0	0	8110	674512	0	0
2024-07-07 01:10:32			0	35014	0	0	0	26535	25100	155351	27239	1030855	43518	109831	0	0	8109	674601	0	0
2024-07-07 01:11:32			0	35021	0	0	0	26522	25100	155359	27263	1030792	43518	109826	0	0	8110	674288	0	0
2024-07-07 01:12:32			0	35001	0	0	0	26516	25100	155451	27095	1030801	43518	109824	0	0	8109	675184	0	0
2024-07-07 01:13:32			0	35018	0	0	0	26514	25100	155459	27400	1030935	43530	109823	0	0	8110	674422	0	0
2024-07-07 01:14:32			0	35022	0	0	0	26511	25090	155367	27183	1030802	43517	109822	0	0	8110	674281	0	0
2024-07-07 01:15:32			0	35025	0	0	0	26522	25090	155487	27241	1030864	43518	109826	0	0	8110	674146	0	0
2024-07-07 01:16:32			0	35025	0	0	0	26522	25100	155371	27159	1030855	43518	109826	0	0	8110	674108	0	0
2024-07-07 01:17:32			0	35026	0	0	0	26522	25110	155327	27251	1030836	43519	109826	0	0	8110	674025	0	0
2024-07-07 01:18:32			0	35019	0	0	0	26516	25100	155355	27289	1030855	43530	109824	0	0	8110	674377	0	0
2024-07-07 01:19:32			0	35001	0	0	0	26519	25100	155551	27376	1030792	43507	109825	0	0	8109	675184	0	0
2024-07-07 01:20:32			0	34994	0	0	0	26516	25090	155611	27187	1030837	43507	109824	0	0	8109	675537	0	0
2024-07-07 01:21:32			0	34988	0	0	0	26519	25100	155555	27242	1030855	43507	109825	0	0	8108	675768	0	0
2024-07-07 01:22:32			0	34990	0	0	0	26522	25110	155635	27431	1030899	43520	109826	0	0	8108	675640	0	0
2024-07-07 01:23:32			0	34986	0	0	0	26516	25100	155583	27055	1030855	43518	109824	0	0	8108	675858	0	0
2024-07-07 01:24:32			0	35000	0	0	0	26524	25100	155647	27329	1030819	43530	109827	0	0	8109	675229	0	0
2024-07-07 01:25:32			0	34989	0	0	0	26519	25100	155683	27164	1030899	43518	109825	0	0	8108	675723	0	0
2024-07-07 01:26:32			0	34987	0	0	0	26522	25110	155703	27277	1030863	43508	109826	0	0	8108	675774	0	0
2024-07-07 01:27:32			0	34968	0	0	0	26514	25100	155679	27284	1030855	43507	109823	0	0	8107	676666	0	0
2024-07-07 01:28:32			0	34963	0	0	0	26514	25100	155507	27405	1030855	43507	109823	0	0	8107	676891	0	0
2024-07-07 01:29:32			0	34969	0	0	0	26506	25100	155811	27270	1030873	43518	109820	0	0	8107	676621	0	0
2024-07-07 01:30:32			0	34970	0	0	0	26509	25100	155719	27043	1030828	43518	109821	0	0	8107	676576	0	0
2024-07-07 01:31:32			0	34953	0	0	0	26503	25100	155791	27130	1030855	43507	109819	0	0	8107	677340	0	0
2024-07-07 01:32:32			0	34930	0	0	0	26503	25100	155815	27007	1030819	43507	109819	0	0	8105	678375	0	0
2024-07-07 01:33:32			0	34925	0	0	0	26501	25090	155807	27261	1030837	43518	109818	0	0	8105	678639	0	0
2024-07-07 01:34:32			0	34925	0	0	0	26496	25090	155875	27137	1030810	43518	109816	0	0	8105	678639	0	0
2024-07-07 01:35:32			0	34915	0	0	0	26503	25090	155959	27235	1030784	43497	109819	0	0	8104	679089	0	0
2024-07-07 01:36:32			0	34925	0	0	0	26490	25080	155791	26963	1030766	43505	109814	0	0	8105	678678	0	0
2024-07-07 01:37:32			0	34915	0	0	0	26493	25090	155951	27251	1030775	43517	109815	0	0	8105	679089	0	0
2024-07-07 01:38:32			0	34912	0	0	0	26503	25090	155887	27291	1030828	43506	109819	0	0	8104	679225	0	0
2024-07-07 01:39:32			0	34905	0	0	0	26493	25080	155955	26922	1030766	43516	109815	0	0	8104	679579	0	0
2024-07-07 01:40:32			0	34929	0	0	0	26493	25090	155963	26894	1030810	43507	109815	0	0	8105	678459	0	0
2024-07-07 01:41:32			0	34905	0	0	0	26503	25070	155899	26939	1030802	43515	109819	0	0	8104	679617	0	0
2024-07-07 01:42:32			0	34900	0	0	0	26496	25100	155915	26920	1030846	43541	109816	0	0	8104	679727	0	0
2024-07-07 01:43:32			0	34912	0	0	0	26506	25090	155815	26935	1030721	43529	109820	0	0	8104	679225	0	0
2024-07-07 01:44:32			0	34899	0	0	0	26503	25090	155831	26750	1030828	43517	109819	0	0	8104	679811	0	0
2024-07-07 01:45:32			0	34912	0	0	0	26501	25080	155907	27098	1030731	43504	109818	0	0	8104	679263	0	0
2024-07-07 01:46:32			0	34927	0	0	0	26501	25080	155999	27213	1030784	43538	109818	0	0	8105	678588	0	0
2024-07-07 01:47:32			0	34904	0	0	0	26509	25080	155903	26989	1030793	43505	109821	0	0	8104	679624	0	0
2024-07-07 01:48:32			0	34909	0	0	0	26496	25080	156003	27308	1030713	43516	109816	0	0	8104	679398	0	0
2024-07-07 01:49:32			0	34901	0	0	0	26509	25080	155995	27258	1030766	43505	109821	0	0	8104	679759	0	0
2024-07-07 01:50:32			0	34897	0	0	0	26498	25080	155991	27239	1030793	43505	109817	0	0	8104	679940	0	0
2024-07-07 01:51:32			0	34883	0	0	0	26498	25090	156011	27019	1030828	43517	109817	0	0	8103	680532	0	0
2024-07-07 01:52:32			0	34886	0	0	0	26488	25080	155987	26890	1030739	43516	109813	0	0	8103	680436	0	0
2024-07-07 01:53:32			0	34887	0	0	0	26498	25080	156023	27118	1030784	43504	109817	0	0	8103	680391	0	0
2024-07-07 01:54:32			0	34884	0	0	0	26496	25090	156119	27161	1030748	43517	109816	0	0	8103	680487	0	0
2024-07-07 01:55:32			0	34874	0	0	0	26483	25080	156131	26979	1030784	43494	109811	0	0	8103	680977	0	0
2024-07-07 01:56:32			0	34849	0	0	0	26490	25090	156095	27144	1030775	43517	109814	0	0	8101	682068	0	0
2024-07-07 01:57:32			0	34855	0	0	0	26498	25080	156139	27020	1030757	43527	109817	0	0	8101	681836	0	0
2024-07-07 01:58:32			0	34842	0	0	0	26493	25080	156171	27013	1030793	43516	109815	0	0	8101	682424	0	0
2024-07-07 01:59:32			0	34845	0	0	0	26485	25080	156203	27218	1030731	43515	109812	0	0	8101	682288	0	0
2024-07-07 02:00:32			0	34832	0	0	0	26480	25080	156303	27199	1030838	43515	109810	0	0	8100	682876	0	0
2024-07-07 02:01:32			0	34833	0	0	0	26483	25080	156187	26993	1030766	43505	109811	0	0	8100	682831	0	0
2024-07-07 02:02:32			0	34811	0	0	0	26488	25070	156415	27260	1030776	43515	109813	0	0	8099	683865	0	0
2024-07-07 02:03:32			0	34807	0	0	0	26485	25070	156283	26916	1030722	43527	109812	0	0	8099	684047	0	0
2024-07-07 02:04:32			0	34791	0	0	0	26490	25070	156439	27171	1030802	43515	109814	0	0	8098	684772	0	0
2024-07-07 02:05:32			0	34795	0	0	0	26488	25070	156447	27313	1030794	43515	109813	0	0	8098	684591	0	0
2024-07-07 02:06:32			0	34791	0	0	0	26483	25070	156507	26935	1030776	43515	109811	0	0	8098	684772	0	0
2024-07-07 02:07:32			0	34784	0	0	0	26485	25070	156571	26883	1030722	43515	109812	0	0	8098	685089	0	0
2024-07-07 02:08:32			0	34778	0	0	0	26490	25070	156555	27272	1030749	43515	109814	0	0	8097	685362	0	0
2024-07-07 02:09:32			0	34764	0	0	0	26485	25070	156615	26852	1030749	43515	109812	0	0	8096	685997	0	0
2024-07-07 02:10:32			0	34755	0	0	0	26480	25080	156527	26870	1030704	43515	109810	0	0	8096	686367	0	0
2024-07-07 02:11:32			0	34773	0	0	0	26480	25070	156631	27222	1030749	43515	109810	0	0	8097	685589	0	0
2024-07-07 02:12:32			0	34752	0	0	0	26477	25060	156663	27313	1030731	43526	109809	0	0	8096	686581	0	0
2024-07-07 02:13:32			0	34757	0	0	0	26483	25070	156663	26948	1030740	43504	109811	0	0	8096	686315	0	0
2024-07-07 02:14:32			0	34754	0	0	0	26477	25070	156819	26883	1030740	43515	109809	0	0	8096	686451	0	0
2024-07-07 02:15:32			0	34755	0	0	0	26477	25080	156839	26986	1030731	43515	109809	0	0	8096	686367	0	0
2024-07-07 02:16:32			0	34755	0	0	0	26477	25070	156775	26942	1030740	43504	109809	0	0	8096	686406	0	0
2024-07-07 02:17:32			0	34743	0	0	0	26485	25080	156839	27121	1030784	43515	109812	0	0	8095	686912	0	0
2024-07-07 02:18:32			0	34732	0	0	0	26480	25060	156827	27107	1030749	43502	109810	0	0	8095	687490	0	0
2024-07-07 02:19:32			0	34731	0	0	0	26477	25070	156759	27235	1030713	43504	109809	0	0	8095	687497	0	0
2024-07-07 02:20:32			0	34735	0	0	0	26475	25070	156795	27078	1030749	43515	109808	0	0	8095	687315	0	0
2024-07-07 02:21:32			0	34752	0	0	0	26467	25070	156731	27204	1030713	43515	109805	0	0	8096	686542	0	0
2024-07-07 02:22:32			0	34740	0	0	0	26470	25050	156731	27116	1030634	43514	109806	0	0	8095	687165	0	0
2024-07-07 02:23:32			0	34739	0	0	0	26467	25060	156723	27256	1030723	43514	109805	0	0	8095	687172	0	0
2024-07-07 02:24:32			0	34743	0	0	0	26477	25060	156783	26883	1030723	43492	109809	0	0	8095	686990	0	0
2024-07-07 02:25:32			0	34737	0	0	0	26467	25060	156823	27039	1030696	43514	109805	0	0	8095	687263	0	0
2024-07-07 02:26:32			0	34735	0	0	0	26472	25060	156819	27357	1030669	43502	109807	0	0	8095	687354	0	0
2024-07-07 02:27:32			0	34730	0	0	0	26470	25050	156875	27275	1030660	43502	109806	0	0	8095	687620	0	0
2024-07-07 02:28:32			0	34726	0	0	0	26470	25060	156771	27079	1030696	43514	109806	0	0	8095	687763	0	0
2024-07-07 02:29:32			0	34720	0	0	0	26459	25060	156839	27244	1030669	43481	109802	0	0	8094	688036	0	0
2024-07-07 02:30:32			0	34735	0	0	0	26462	25050	156823	27020	1030660	43502	109803	0	0	8095	687393	0	0
2024-07-07 02:31:32			0	34728	0	0	0	26467	25060	156811	27357	1030589	43525	109805	0	0	8095	687672	0	0
2024-07-07 02:32:32			0	34722	0	0	0	26462	25060	156707	27287	1030651	43526	109803	0	0	8095	687945	0	0
2024-07-07 02:33:32			0	34729	0	0	0	26459	25050	156831	27237	1030660	43514	109802	0	0	8095	687666	0	0
2024-07-07 02:34:32			0	34727	0	0	0	26464	25050	156803	26949	1030607	43525	109804	0	0	8095	687757	0	0
2024-07-07 02:35:32			0	34742	0	0	0	26462	25050	156807	26743	1030660	43514	109803	0	0	8096	687074	0	0
2024-07-07 02:36:32			0	34731	0	0	0	26459	25050	156795	27263	1030705	43525	109802	0	0	8095	687575	0	0
2024-07-07 02:37:32			0	34741	0	0	0	26457	25040	156823	27012	1030580	43512	109801	0	0	8096	687159	0	0
2024-07-07 02:38:32			0	34746	0	0	0	26454	25050	156811	27083	1030607	43514	109800	0	0	8096	686893	0	0
2024-07-07 02:39:32			0	34747	0	0	0	26462	25040	156747	27050	1030643	43501	109803	0	0	8096	686886	0	0
2024-07-07 02:40:32			0	34752	0	0	0	26449	25040	156783	27301	1030616	43524	109798	0	0	8096	686659	0	0
2024-07-07 02:41:32			0	34726	0	0	0	26454	25050	156855	27095	1030634	43525	109800	0	0	8095	687802	0	0
2024-07-07 02:42:32			0	34727	0	0	0	26451	25040	156903	27150	1030616	43513	109799	0	0	8095	687796	0	0
2024-07-07 02:43:32			0	34719	0	0	0	26451	25040	156931	27213	1030589	43501	109799	0	0	8094	688160	0	0
2024-07-07 02:44:32			0	34723	0	0	0	26444	25040	156939	27405	1030589	43524	109796	0	0	8095	687978	0	0
2024-07-07 02:45:32			0	34699	0	0	0	26449	25040	156951	27190	1030536	43513	109798	0	0	8093	689071	0	0
2024-07-07 02:46:32			0	34705	0	0	0	26441	25040	156915	27296	1030580	43512	109795	0	0	8094	688797	0	0
2024-07-07 02:47:32			0	34687	0	0	0	26420	25040	156971	27358	1030536	43513	109787	0	0	8093	689618	0	0
2024-07-07 02:48:32			0	34695	0	0	0	26410	25030	157203	27225	1030509	43500	109783	0	0	8094	689292	0	0
2024-07-07 02:49:32			0	34680	0	0	0	26405	25020	157099	27164	1030492	43510	109781	0	0	8093	690015	0	0
2024-07-07 02:50:32			0	34683	0	0	0	26412	25020	157171	27171	1030492	43499	109784	0	0	8093	689878	0	0
2024-07-07 02:51:32			0	34654	0	0	0	26410	25020	157223	26927	1030439	43499	109783	0	0	8091	691202	0	0
2024-07-07 02:52:32			0	34662	0	0	0	26405	25010	157259	27317	1030448	43509	109781	0	0	8092	690876	0	0
2024-07-07 02:53:32			0	34619	0	0	0	26402	25010	157375	27267	1030448	43499	109780	0	0	8090	692841	0	0
2024-07-07 02:54:32			0	34610	0	0	0	26415	25000	157535	27670	1030466	43499	109785	0	0	8089	693292	0	0
2024-07-07 02:55:32			0	34570	0	0	0	26412	25010	157599	27377	1030448	43487	109784	0	0	8087	695086	0	0
2024-07-07 02:56:32			0	34536	0	0	0	26415	25000	157791	27182	1030412	43509	109785	0	0	8085	696686	0	0
2024-07-07 02:57:32			0	34500	0	0	0	26402	25000	157959	27341	1030385	43499	109780	0	0	8083	698342	0	0
2024-07-07 02:58:32			0	34467	0	0	0	26397	25010	158075	27175	1030421	43509	109778	0	0	8081	699823	0	0
2024-07-07 02:59:32			0	34430	0	0	0	26392	25000	158251	27150	1030377	43498	109776	0	0	8079	701570	0	0
2024-07-07 03:00:32			0	34402	0	0	0	26386	25000	158339	27130	1030377	43508	109774	0	0	8078	702865	0	0
2024-07-07 03:01:32			0	34394	0	0	0	26384	24990	158455	27187	1030279	43507	109773	0	0	8077	703275	0	0
2024-07-07 03:02:32			0	34374	0	0	0	26392	24990	158655	27360	1030333	43507	109776	0	0	8076	704201	0	0
2024-07-07 03:03:32			0	34343	0	0	0	26386	24990	158662	27008	1030279	43497	109774	0	0	8075	705638	0	0
2024-07-07 03:04:32			0	34304	0	0	0	26386	24980	158922	27313	1030324	43507	109774	0	0	8072	707490	0	0
2024-07-07 03:05:32			0	34286	0	0	0	26386	24980	159174	26882	1030288	43506	109774	0	0	8071	708328	0	0
2024-07-07 03:06:32			0	34248	0	0	0	26381	24980	159182	26989	1030377	43497	109772	0	0	8069	710098	0	0
2024-07-07 03:07:32			0	34228	0	0	0	26384	24980	159358	27255	1030315	43506	109773	0	0	8068	711031	0	0
2024-07-07 03:08:32			0	34215	0	0	0	26384	24980	159302	27237	1030351	43507	109773	0	0	8067	711638	0	0
2024-07-07 03:09:32			0	34178	0	0	0	26384	24980	159466	27426	1030270	43497	109773	0	0	8065	713369	0	0
2024-07-07 03:10:32			0	34162	0	0	0	26384	24980	159622	27312	1030351	43518	109773	0	0	8065	714118	0	0
2024-07-07 03:11:32			0	34121	0	0	0	26389	24970	159570	27079	1030253	43505	109775	0	0	8062	716081	0	0
2024-07-07 03:12:32			0	34111	0	0	0	26394	24970	159750	27383	1030333	43505	109777	0	0	8061	716550	0	0
2024-07-07 03:13:32			0	34106	0	0	0	26399	24970	159810	27345	1030333	43505	109779	0	0	8061	716785	0	0
2024-07-07 03:14:32			0	34066	0	0	0	26392	24980	159910	27339	1030369	43517	109776	0	0	8059	718626	0	0
2024-07-07 03:15:32			0	34060	0	0	0	26394	24980	159922	27216	1030315	43496	109777	0	0	8059	718908	0	0
2024-07-07 03:16:32			0	34038	0	0	0	26386	24980	160082	27353	1030324	43507	109774	0	0	8058	719945	0	0
2024-07-07 03:17:32			0	34027	0	0	0	26394	24980	160054	27464	1030369	43496	109777	0	0	8057	720463	0	0
2024-07-07 03:18:32			0	34008	0	0	0	26386	24980	160246	27246	1030404	43497	109774	0	0	8056	721360	0	0
2024-07-07 03:19:32			0	33992	0	0	0	26386	24970	160354	27114	1030298	43495	109774	0	0	8055	722157	0	0
2024-07-07 03:20:32			0	33962	0	0	0	26384	24980	160526	27225	1030262	43506	109773	0	0	8053	723535	0	0
2024-07-07 03:21:32			0	33928	0	0	0	26379	24970	160510	27327	1030333	43516	109771	0	0	8051	725186	0	0
2024-07-07 03:22:32			0	33927	0	0	0	26389	24970	160638	27142	1030226	43495	109775	0	0	8051	725234	0	0
2024-07-07 03:23:32			0	33893	0	0	0	26394	24980	160706	27154	1030342	43517	109777	0	0	8049	726806	0	0
2024-07-07 03:24:32			0	33880	0	0	0	26394	24980	160850	27192	1030262	43506	109777	0	0	8049	727424	0	0
2024-07-07 03:25:32			0	33856	0	0	0	26386	24980	161074	27142	1030262	43506	109774	0	0	8047	728565	0	0
2024-07-07 03:26:32			0	33838	0	0	0	26386	24970	160978	27177	1030280	43505	109774	0	0	8046	729464	0	0
2024-07-07 03:27:32			0	33826	0	0	0	26394	24980	161110	27138	1030235	43506	109777	0	0	8046	729994	0	0
2024-07-07 03:28:32			0	33798	0	0	0	26386	24980	161194	27358	1030324	43507	109774	0	0	8044	731330	0	0
2024-07-07 03:29:32			0	33782	0	0	0	26394	24970	161326	27222	1030333	43505	109777	0	0	8043	732135	0	0
2024-07-07 03:30:32			0	33759	0	0	0	26402	24970	161342	27590	1030280	43516	109780	0	0	8042	733235	0	0
2024-07-07 03:31:32			0	33761	0	0	0	26402	24980	161354	27362	1030351	43497	109780	0	0	8042	733098	0	0
2024-07-07 03:32:32			0	33746	0	0	0	26405	24970	161534	27237	1030298	43505	109781	0	0	8041	733857	0	0
2024-07-07 03:33:32			0	33743	0	0	0	26402	24970	161498	27338	1030325	43505	109780	0	0	8041	734001	0	0
2024-07-07 03:34:32			0	33728	0	0	0	26394	24970	161478	27092	1030325	43516	109777	0	0	8040	734719	0	0
2024-07-07 03:35:32			0	33737	0	0	0	26386	24970	161610	27324	1030306	43505	109774	0	0	8041	734288	0	0
2024-07-07 03:36:32			0	33729	0	0	0	26402	24960	161466	27379	1030316	43505	109780	0	0	8040	734713	0	0
2024-07-07 03:37:32			0	33736	0	0	0	26376	24970	161574	27410	1030351	43528	109770	0	0	8041	734336	0	0
2024-07-07 03:38:32			0	33734	0	0	0	26384	24970	161586	27234	1030253	43495	109773	0	0	8040	734432	0	0
2024-07-07 03:39:32			0	33714	0	0	0	26386	24970	161610	27275	1030298	43505	109774	0	0	8039	735390	0	0
2024-07-07 03:40:32			0	33704	0	0	0	26379	24960	161706	27208	1030289	43505	109771	0	0	8039	735911	0	0
2024-07-07 03:41:32			0	33699	0	0	0	26399	24960	161802	27159	1030289	43505	109779	0	0	8038	736151	0	0
2024-07-07 03:42:32			0	33659	0	0	0	26394	24970	161894	27199	1030325	43528	109777	0	0	8036	738031	0	0
2024-07-07 03:43:32			0	33656	0	0	0	26392	24960	161842	27164	1030289	43505	109776	0	0	8036	738217	0	0
2024-07-07 03:44:32			0	33653	0	0	0	26392	24980	161946	27274	1030342	43529	109776	0	0	8036	738278	0	0
2024-07-07 03:45:32			0	33644	0	0	0	26394	24970	161970	27156	1030351	43505	109777	0	0	8035	738752	0	0
2024-07-07 03:46:32			0	33635	0	0	0	26389	24970	161878	27281	1030387	43495	109775	0	0	8035	739186	0	0
2024-07-07 03:47:32			0	33619	0	0	0	26381	24970	162150	27045	1030325	43516	109772	0	0	8034	739956	0	0
2024-07-07 03:48:32			0	33631	0	0	0	26384	24960	162078	27227	1030343	43505	109773	0	0	8035	739420	0	0
2024-07-07 03:49:32			0	33622	0	0	0	26381	24970	162126	27066	1030298	43516	109772	0	0	8034	739812	0	0
2024-07-07 03:50:32			0	33628	0	0	0	26366	24970	162054	26840	1030280	43495	109766	0	0	8035	739523	0	0
2024-07-07 03:51:32			0	33656	0	0	0	26363	24970	162038	26842	1030244	43505	109765	0	0	8036	738175	0	0
2024-07-07 03:52:32			0	33638	0	0	0	26358	24970	161970	27284	1030271	43495	109763	0	0	8035	739041	0	0
2024-07-07 03:53:32			0	33626	0	0	0	26363	24950	162054	27144	1030165	43503	109765	0	0	8035	739703	0	0
2024-07-07 03:54:32			0	33625	0	0	0	26379	24960	162114	27090	1030227	43494	109771	0	0	8034	739709	0	0
2024-07-07 03:55:32			0	33629	0	0	0	26389	24960	162078	27322	1030262	43505	109775	0	0	8034	739516	0	0
2024-07-07 03:56:32			0	33599	0	0	0	26392	24960	162274	27222	1030280	43504	109776	0	0	8033	740963	0	0
2024-07-07 03:57:32			0	33592	0	0	0	26392	24960	162298	27145	1030235	43505	109776	0	0	8032	741300	0	0
2024-07-07 03:58:32			0	33579	0	0	0	26397	24960	162134	27277	1030289	43516	109778	0	0	8031	741928	0	0
2024-07-07 03:59:32			0	33605	0	0	0	26381	24960	162290	27144	1030262	43505	109772	0	0	8033	740673	0	0
2024-07-07 04:00:32			0	33596	0	0	0	26384	24980	162190	27182	1030315	43517	109773	0	0	8033	741023	0	0
2024-07-07 04:01:32			0	33602	0	0	0	26386	24970	162242	26760	1030298	43505	109774	0	0	8033	740776	0	0
2024-07-07 04:02:32			0	33600	0	0	0	26376	24960	162150	27157	1030289	43505	109770	0	0	8033	740914	0	0
2024-07-07 04:03:32			0	33615	0	0	0	26384	24970	162082	27332	1030298	43516	109773	0	0	8034	740149	0	0
2024-07-07 04:04:32			0	33624	0	0	0	26379	24970	162158	27130	1030325	43516	109771	0	0	8034	739715	0	0
2024-07-07 04:05:32			0	33637	0	0	0	26366	24970	162006	27081	1030280	43505	109766	0	0	8035	739089	0	0
2024-07-07 04:06:32			0	33641	0	0	0	26373	24960	162070	26987	1030200	43515	109769	0	0	8035	738939	0	0
2024-07-07 04:07:32			0	33646	0	0	0	26376	24970	161898	27152	1030271	43516	109770	0	0	8036	738656	0	0
2024-07-07 04:08:32			0	33639	0	0	0	26371	24960	162042	27196	1030254	43504	109768	0	0	8035	739035	0	0
2024-07-07 04:09:32			0	33652	0	0	0	26355	24960	161938	27289	1030227	43504	109762	0	0	8036	738409	0	0
2024-07-07 04:10:32			0	33655	0	0	0	26366	24960	161934	26967	1030209	43505	109766	0	0	8036	738265	0	0
2024-07-07 04:11:32			0	33653	0	0	0	26368	24960	162034	27088	1030235	43528	109767	0	0	8036	738361	0	0
2024-07-07 04:12:32			0	33682	0	0	0	26384	24960	161938	27131	1030280	43515	109773	0	0	8037	736967	0	0
2024-07-07 04:13:32			0	33668	0	0	0	26384	24950	161962	27000	1030272	43493	109773	0	0	8037	737682	0	0
2024-07-07 04:14:32			0	33662	0	0	0	26384	24960	161922	27317	1030227	43504	109773	0	0	8036	737929	0	0
2024-07-07 04:15:32			0	33661	0	0	0	26376	24970	161858	26986	1030298	43495	109770	0	0	8036	737935	0	0
2024-07-07 04:16:32			0	33677	0	0	0	26386	24960	161886	27336	1030227	43504	109774	0	0	8037	737208	0	0
2024-07-07 04:17:32			0	33681	0	0	0	26376	24960	161930	27204	1030254	43515	109770	0	0	8037	737015	0	0
2024-07-07 04:18:32			0	33697	0	0	0	26373	24960	161798	27055	1030235	43516	109769	0	0	8038	736247	0	0
2024-07-07 04:19:32			0	33707	0	0	0	26366	24950	161726	27197	1030245	43503	109766	0	0	8039	735809	0	0
2024-07-07 04:20:32			0	33714	0	0	0	26379	24960	161730	27012	1030200	43515	109771	0	0	8039	735432	0	0
2024-07-07 04:21:32			0	33734	0	0	0	26379	24950	161654	27199	1030209	43514	109771	0	0	8040	734515	0	0
2024-07-07 04:22:32			0	33739	0	0	0	26381	24960	161570	27286	1030235	43516	109772	0	0	8041	734234	0	0
2024-07-07 04:23:32			0	33717	0	0	0	26384	24960	161722	27031	1030334	43504	109773	0	0	8039	735288	0	0
2024-07-07 04:24:32			0	33733	0	0	0	26371	24960	161634	27291	1030334	43515	109768	0	0	8041	734521	0	0
2024-07-07 04:25:32			0	33745	0	0	0	26371	24960	161682	26965	1030227	43504	109768	0	0	8041	733946	0	0
2024-07-07 04:26:32			0	33714	0	0	0	26376	24950	161698	27244	1030218	43537	109770	0	0	8039	735473	0	0
2024-07-07 04:27:32			0	33724	0	0	0	26373	24950	161658	27180	1030191	43503	109769	0	0	8040	734994	0	0
2024-07-07 04:28:32			0	33728	0	0	0	26366	24950	161666	27381	1030218	43503	109766	0	0	8040	734802	0	0
2024-07-07 04:29:32			0	33718	0	0	0	26386	24950	161714	27291	1030218	43514	109774	0	0	8039	735282	0	0
2024-07-07 04:30:32			0	33737	0	0	0	26379	24950	161686	27161	1030245	43503	109771	0	0	8041	734371	0	0
2024-07-07 04:31:32			0	33729	0	0	0	26384	24960	161698	27199	1030280	43527	109773	0	0	8040	734713	0	0
2024-07-07 04:32:32			0	33739	0	0	0	26379	24950	161638	27528	1030218	43526	109771	0	0	8041	734275	0	0
2024-07-07 04:33:32			0	33737	0	0	0	26373	24950	161566	27317	1030272	43493	109769	0	0	8041	734371	0	0
2024-07-07 04:34:32			0	33753	0	0	0	26368	24960	161594	27322	1030254	43504	109767	0	0	8042	733564	0	0
2024-07-07 04:35:32			0	33755	0	0	0	26368	24950	161602	27343	1030272	43503	109767	0	0	8042	733509	0	0
2024-07-07 04:36:32			0	33763	0	0	0	26361	24950	161618	27107	1030209	43502	109764	0	0	8042	733127	0	0
2024-07-07 04:37:32			0	33759	0	0	0	26366	24960	161490	27060	1030280	43515	109766	0	0	8042	733277	0	0
2024-07-07 04:38:32			0	33764	0	0	0	26371	24950	161494	27024	1030165	43503	109768	0	0	8042	733079	0	0
2024-07-07 04:39:32			0	33752	0	0	0	26371	24950	161682	27275	1030218	43503	109768	0	0	8042	733653	0	0
2024-07-07 04:40:32			0	33739	0	0	0	26366	24950	161650	27086	1030263	43514	109766	0	0	8041	734275	0	0
2024-07-07 04:41:32			0	33725	0	0	0	26361	24940	161614	27126	1030227	43502	109764	0	0	8040	734988	0	0
2024-07-07 04:42:32			0	33736	0	0	0	26366	24950	161550	27057	1030245	43514	109766	0	0	8041	734419	0	0
2024-07-07 04:43:32			0	33720	0	0	0	26379	24950	161570	26986	1030191	43503	109771	0	0	8040	735186	0	0
2024-07-07 04:44:32			0	33736	0	0	0	26376	24960	161762	27227	1030227	43515	109770	0	0	8041	734377	0	0
2024-07-07 04:45:32			0	33717	0	0	0	26363	24950	161730	26963	1030272	43526	109765	0	0	8040	735330	0	0
2024-07-07 04:46:32			0	33709	0	0	0	26368	24950	161710	27124	1030263	43502	109767	0	0	8039	735713	0	0
2024-07-07 04:47:32			0	33715	0	0	0	26361	24940	161718	27119	1030201	43502	109764	0	0	8040	735467	0	0
2024-07-07 04:48:32			0	33739	0	0	0	26363	24950	161742	26880	1030218	43503	109765	0	0	8041	734275	0	0
2024-07-07 04:49:32			0	33745	0	0	0	26358	24950	161714	27062	1030183	43514	109763	0	0	8041	733988	0	0
2024-07-07 04:50:32			0	33735	0	0	0	26361	24940	161638	26901	1030201	43502	109764	0	0	8041	734509	0	0
2024-07-07 04:51:32			0	33735	0	0	0	26363	24950	161710	27097	1030209	43492	109765	0	0	8041	734467	0	0
2024-07-07 04:52:32			0	33763	0	0	0	26358	24940	161630	27019	1030174	43514	109763	0	0	8042	733168	0	0
2024-07-07 04:53:32			0	33779	0	0	0	26358	24940	161482	26831	1030254	43492	109763	0	0	8043	732403	0	0
2024-07-07 04:54:32			0	33778	0	0	0	26348	24950	161466	27020	1030156	43525	109759	0	0	8043	732410	0	0
2024-07-07 04:55:32			0	33792	0	0	0	26340	24940	161354	27545	1030085	43502	109756	0	0	8044	731782	0	0
2024-07-07 04:56:32			0	33791	0	0	0	26335	24940	161334	27265	1030085	43492	109754	0	0	8044	731830	0	0
2024-07-07 04:57:32			0	33813	0	0	0	26345	24930	161350	27029	1030076	43513	109758	0	0	8045	730821	0	0
2024-07-07 04:58:32			0	33797	0	0	0	26348	24930	161406	27072	1030157	43513	109759	0	0	8044	731585	0	0
2024-07-07 04:59:32			0	33805	0	0	0	26348	24940	161330	26944	1030120	43502	109759	0	0	8045	731162	0	0
2024-07-07 05:00:32			0	33803	0	0	0	26345	24930	161302	27157	1030157	43524	109758	0	0	8045	731298	0	0
2024-07-07 05:01:32			0	33787	0	0	0	26348	24940	161414	26984	1030165	43514	109759	0	0	8044	732021	0	0
2024-07-07 05:02:32			0	33784	0	0	0	26348	24930	161518	26892	1030157	43513	109759	0	0	8044	732206	0	0
2024-07-07 05:03:32			0	33786	0	0	0	26348	24940	161394	27085	1030165	43502	109759	0	0	8044	732069	0	0
2024-07-07 05:04:32			0	33791	0	0	0	26345	24930	161374	27102	1030130	43501	109758	0	0	8044	731871	0	0
2024-07-07 05:05:32			0	33774	0	0	0	26345	24940	161530	27124	1030174	43502	109758	0	0	8043	732642	0	0
2024-07-07 05:06:32			0	33775	0	0	0	26353	24930	161554	26847	1030183	43501	109761	0	0	8043	732636	0	0
2024-07-07 05:07:32			0	33767	0	0	0	26332	24930	161514	27265	1030076	43513	109753	0	0	8043	733019	0	0
2024-07-07 05:08:32			0	33766	0	0	0	26332	24930	161498	27225	1030040	43490	109753	0	0	8043	733066	0	0
2024-07-07 05:09:32			0	33754	0	0	0	26337	24930	161494	27029	1030157	43501	109755	0	0	8042	733640	0	0
2024-07-07 05:10:32			0	33750	0	0	0	26335	24940	161594	27085	1030112	43514	109754	0	0	8042	733790	0	0
2024-07-07 05:11:32			0	33764	0	0	0	26342	24930	161630	27074	1030067	43490	109757	0	0	8043	733162	0	0
2024-07-07 05:12:32			0	33751	0	0	0	26345	24940	161670	27213	1030031	43502	109758	0	0	8042	733742	0	0
2024-07-07 05:13:32			0	33730	0	0	0	26342	24930	161734	27088	1030148	43512	109757	0	0	8041	734790	0	0
2024-07-07 05:14:32			0	33730	0	0	0	26353	24930	161618	27312	1030103	43513	109761	0	0	8041	734790	0	0
2024-07-07 05:15:32			0	33713	0	0	0	26350	24930	161762	26719	1030174	43512	109760	0	0	8040	735605	0	0
2024-07-07 05:16:32			0	33730	0	0	0	26358	24930	161718	27192	1030148	43490	109763	0	0	8040	734790	0	0
2024-07-07 05:17:32			0	33699	0	0	0	26358	24930	161886	26859	1030228	43523	109763	0	0	8039	736276	0	0
2024-07-07 05:18:32			0	33707	0	0	0	26368	24930	161766	27192	1030237	43513	109767	0	0	8039	735893	0	0
2024-07-07 05:19:32			0	33703	0	0	0	26358	24930	161830	27053	1030183	43513	109763	0	0	8039	736085	0	0
2024-07-07 05:20:32			0	33710	0	0	0	26345	24940	161734	26791	1030147	43502	109758	0	0	8040	735707	0	0
2024-07-07 05:21:32			0	33725	0	0	0	26345	24940	161694	27258	1030085	43502	109758	0	0	8040	734988	0	0
2024-07-07 05:22:32			0	33729	0	0	0	26337	24930	161662	27187	1030094	43500	109755	0	0	8041	734838	0	0
2024-07-07 05:23:32			0	33750	0	0	0	26332	24930	161538	27227	1030130	43501	109753	0	0	8042	733832	0	0
2024-07-07 05:24:32			0	33759	0	0	0	26348	24940	161518	26887	1030219	43502	109759	0	0	8042	733360	0	0
2024-07-07 05:25:32			0	33791	0	0	0	26366	24930	161402	26906	1030183	43513	109766	0	0	8044	731871	0	0
2024-07-07 05:26:32			0	33803	0	0	0	26381	24930	161402	26953	1030264	43513	109772	0	0	8044	731298	0	0
2024-07-07 05:27:32			0	33822	0	0	0	26379	24940	161294	26769	1030246	43514	109771	0	0	8045	730351	0	0
2024-07-07 05:28:32			0	33821	0	0	0	26368	24940	161214	26817	1030227	43525	109767	0	0	8045	730398	0	0
2024-07-07 05:29:32			0	33835	0	0	0	26366	24950	161130	27171	1030236	43525	109766	0	0	8046	729690	0	0
2024-07-07 05:30:32			0	33849	0	0	0	26355	24950	161210	26715	1030183	43502	109762	0	0	8047	729023	0	0
2024-07-07 05:31:32			0	33838	0	0	0	26340	24950	161078	27050	1030209	43502	109756	0	0	8047	729546	0	0
2024-07-07 05:32:32			0	33866	0	0	0	26324	24940	161026	26934	1030192	43502	109750	0	0	8049	728255	0	0
2024-07-07 05:33:32			0	33867	0	0	0	26314	24930	160882	27199	1030067	43490	109746	0	0	8049	728248	0	0
2024-07-07 05:34:32			0	33907	0	0	0	26322	24930	160938	26883	1030076	43491	109749	0	0	8051	726347	0	0
2024-07-07 05:35:32			0	33906	0	0	0	26345	24930	160886	27197	1030157	43524	109758	0	0	8051	726395	0	0
2024-07-07 05:36:32			0	33914	0	0	0	26355	24930	160690	27079	1030130	43513	109762	0	0	8051	726015	0	0
2024-07-07 05:37:32			0	33932	0	0	0	26327	24920	160690	27306	1030085	43500	109751	0	0	8052	725202	0	0
2024-07-07 05:38:32			0	33949	0	0	0	26337	24930	160690	26748	1030040	43500	109755	0	0	8053	724355	0	0
2024-07-07 05:39:32			0	33953	0	0	0	26342	24930	160758	27046	1030130	43513	109757	0	0	8053	724166	0	0
2024-07-07 05:40:32			0	33950	0	0	0	26329	24930	160694	26935	1030067	43500	109752	0	0	8053	724308	0	0
2024-07-07 05:41:32			0	33949	0	0	0	26327	24930	160594	27112	1030040	43500	109751	0	0	8053	724355	0	0
2024-07-07 05:42:32			0	33973	0	0	0	26337	24920	160586	27261	1030050	43500	109755	0	0	8054	723260	0	0
2024-07-07 05:43:32			0	33950	0	0	0	26335	24930	160662	27177	1030121	43500	109754	0	0	8053	724308	0	0
2024-07-07 05:44:32			0	33971	0	0	0	26322	24920	160582	27079	1030050	43490	109749	0	0	8055	723355	0	0
2024-07-07 05:45:32			0	33942	0	0	0	26332	24920	160610	27107	1030085	43512	109753	0	0	8053	724728	0	0
2024-07-07 05:46:32			0	33935	0	0	0	26348	24920	160766	27350	1030139	43512	109759	0	0	8052	725060	0	0
2024-07-07 05:47:32			0	33938	0	0	0	26355	24920	160750	26762	1030166	43500	109762	0	0	8052	724918	0	0
2024-07-07 05:48:32			0	33957	0	0	0	26353	24930	160762	27097	1030174	43500	109761	0	0	8053	723977	0	0
2024-07-07 05:49:32			0	33942	0	0	0	26348	24920	160790	26894	1030085	43512	109759	0	0	8053	724728	0	0
2024-07-07 05:50:32			0	33952	0	0	0	26353	24930	160710	27268	1030210	43491	109761	0	0	8053	724213	0	0
2024-07-07 05:51:32			0	33956	0	0	0	26368	24930	160674	27111	1030183	43501	109767	0	0	8053	724024	0	0
2024-07-07 05:52:32			0	33979	0	0	0	26366	24930	160546	27350	1030210	43524	109766	0	0	8054	722935	0	0
2024-07-07 05:53:32			0	33992	0	0	0	26366	24940	160558	26956	1030254	43514	109766	0	0	8055	722280	0	0
2024-07-07 05:54:32			0	34009	0	0	0	26376	24940	160362	27064	1030246	43525	109770	0	0	8056	721477	0	0
2024-07-07 05:55:32			0	34028	0	0	0	26384	24940	160426	27076	1030272	43525	109773	0	0	8057	720580	0	0
2024-07-07 05:56:32			0	34049	0	0	0	26350	24950	160178	26837	1030236	43502	109760	0	0	8059	719549	0	0
2024-07-07 05:57:32			0	34081	0	0	0	26353	24940	160042	26934	1030192	43502	109761	0	0	8060	718083	0	0
2024-07-07 05:58:32			0	34090	0	0	0	26337	24940	159966	26968	1030138	43492	109755	0	0	8061	717659	0	0
2024-07-07 05:59:32			0	34128	0	0	0	26329	24930	159822	27157	1030076	43501	109752	0	0	8063	715915	0	0
2024-07-07 06:00:32			0	34165	0	0	0	26324	24930	159634	26965	1030040	43500	109750	0	0	8065	714180	0	0
2024-07-07 06:01:32			0	34180	0	0	0	26329	24930	159434	27305	1030023	43513	109752	0	0	8066	713477	0	0
2024-07-07 06:02:32			0	34223	0	0	0	26329	24920	159394	27038	1030032	43500	109752	0	0	8069	711507	0	0
2024-07-07 06:03:32			0	34256	0	0	0	26340	24930	159262	26837	1030094	43490	109756	0	0	8070	709926	0	0
2024-07-07 06:04:32			0	34272	0	0	0	26355	24930	159102	27060	1030174	43500	109762	0	0	8071	709181	0	0
2024-07-07 06:05:32			0	34284	0	0	0	26350	24930	159042	27227	1030157	43501	109760	0	0	8072	708622	0	0
2024-07-07 06:06:32			0	34303	0	0	0	26358	24940	159106	27296	1030219	43525	109763	0	0	8073	707697	0	0
2024-07-07 06:07:32			0	34301	0	0	0	26340	24930	159122	27019	1030183	43501	109756	0	0	8073	707830	0	0
2024-07-07 06:08:32			0	34296	0	0	0	26371	24940	158994	26963	1030201	43514	109768	0	0	8072	708023	0	0
2024-07-07 06:09:32			0	34291	0	0	0	26386	24940	159078	27157	1030201	43502	109774	0	0	8071	708256	0	0
2024-07-07 06:10:32			0	34277	0	0	0	26407	24940	159194	26734	1030299	43525	109782	0	0	8070	708907	0	0
2024-07-07 06:11:32			0	34266	0	0	0	26402	24940	159162	27067	1030335	43525	109780	0	0	8070	709420	0	0
2024-07-07 06:12:32			0	34256	0	0	0	26407	24940	159210	27147	1030308	43514	109782	0	0	8069	709886	0	0
2024-07-07 06:13:32			0	34315	0	0	0	26402	24960	158982	27168	1030343	43539	109780	0	0	8073	707059	0	0
2024-07-07 06:14:32			0	34351	0	0	0	26428	24960	158783	27128	1030450	43516	109790	0	0	8074	705387	0	0
2024-07-07 06:15:32			0	34413	0	0	0	26428	24970	158523	27017	1030414	43528	109790	0	0	8078	702475	0	0
2024-07-07 06:16:32			0	34438	0	0	0	26392	24970	158359	26857	1030414	43528	109776	0	0	8080	701320	0	0
2024-07-07 06:17:32			0	34501	0	0	0	26389	24970	158315	27012	1030360	43516	109775	0	0	8083	698415	0	0
2024-07-07 06:18:32			0	34518	0	0	0	26420	24970	158123	26734	1030306	43516	109787	0	0	8084	697632	0	0
2024-07-07 06:19:32			0	34555	0	0	0	26418	24970	157859	26979	1030414	43516	109786	0	0	8086	695932	0	0
2024-07-07 06:20:32			0	34542	0	0	0	26410	24970	157819	27038	1030440	43505	109783	0	0	8085	696529	0	0
2024-07-07 06:21:32			0	34590	0	0	0	26402	24980	157775	26897	1030422	43529	109780	0	0	8088	694287	0	0
2024-07-07 06:22:32			0	34588	0	0	0	26371	24970	157675	26981	1030351	43495	109768	0	0	8088	694418	0	0
2024-07-07 06:23:32			0	34610	0	0	0	26376	24980	157591	27059	1030369	43506	109770	0	0	8089	693371	0	0
2024-07-07 06:24:32			0	34610	0	0	0	26399	24970	157623	26949	1030351	43516	109779	0	0	8089	693410	0	0
2024-07-07 06:25:32			0	34625	0	0	0	26405	24970	157543	26861	1030351	43516	109781	0	0	8090	692724	0	0
2024-07-07 06:26:32			0	34613	0	0	0	26412	24970	157547	27060	1030405	43528	109784	0	0	8089	693273	0	0
2024-07-07 06:27:32			0	34629	0	0	0	26428	24980	157719	27104	1030503	43517	109790	0	0	8090	692501	0	0
2024-07-07 06:28:32			0	34578	0	0	0	26410	24980	157699	27154	1030458	43530	109783	0	0	8087	694837	0	0
2024-07-07 06:29:32			0	34582	0	0	0	26410	24990	157743	26911	1030440	43518	109783	0	0	8087	694614	0	0
2024-07-07 06:30:32			0	34549	0	0	0	26407	24990	157791	27241	1030466	43530	109782	0	0	8086	696128	0	0
2024-07-07 06:31:32			0	34535	0	0	0	26418	24990	157935	27107	1030493	43518	109786	0	0	8085	696772	0	0
2024-07-07 06:32:32			0	34538	0	0	0	26389	24990	157883	27116	1030493	43518	109775	0	0	8085	696634	0	0
2024-07-07 06:33:32			0	34529	0	0	0	26402	24990	157887	26970	1030475	43518	109780	0	0	8085	697047	0	0
2024-07-07 06:34:32			0	34528	0	0	0	26373	24980	158015	27267	1030351	43507	109769	0	0	8085	697133	0	0
2024-07-07 06:35:32			0	34544	0	0	0	26402	24980	157995	27395	1030369	43506	109780	0	0	8085	696398	0	0
2024-07-07 06:36:32			0	34534	0	0	0	26407	24980	157931	27346	1030484	43518	109782	0	0	8085	696857	0	0
2024-07-07 06:37:32			0	34524	0	0	0	26405	24990	157995	27072	1030448	43530	109781	0	0	8084	697277	0	0
2024-07-07 06:38:32			0	34525	0	0	0	26389	24980	157907	26658	1030484	43518	109775	0	0	8085	697271	0	0
2024-07-07 06:39:32			0	34537	0	0	0	26386	24980	157955	27124	1030404	43497	109774	0	0	8085	696719	0	0
2024-07-07 06:40:32			0	34534	0	0	0	26386	24990	157971	27140	1030413	43507	109774	0	0	8085	696817	0	0
2024-07-07 06:41:32			0	34539	0	0	0	26389	24980	157923	27194	1030431	43507	109775	0	0	8085	696627	0	0
2024-07-07 06:42:32			0	34518	0	0	0	26381	24980	158075	27168	1030369	43517	109772	0	0	8084	697593	0	0
2024-07-07 06:43:32			0	34507	0	0	0	26381	24980	158051	26776	1030404	43507	109772	0	0	8084	698099	0	0
2024-07-07 06:44:32			0	34495	0	0	0	26392	24980	158111	27137	1030404	43530	109776	0	0	8083	698651	0	0
2024-07-07 06:45:32			0	34485	0	0	0	26431	24980	158211	27159	1030511	43518	109791	0	0	8082	699112	0	0
2024-07-07 06:46:32			0	34454	0	0	0	26438	25000	158299	27263	1030564	43519	109794	0	0	8080	700462	0	0
2024-07-07 06:47:32			0	34437	0	0	0	26428	25000	158419	26941	1030537	43519	109790	0	0	8079	701247	0	0
2024-07-07 06:48:32			0	34423	0	0	0	26423	24990	158527	27081	1030493	43507	109788	0	0	8078	701933	0	0
2024-07-07 06:49:32			0	34415	0	0	0	26420	24990	158467	27036	1030529	43507	109787	0	0	8078	702303	0	0
2024-07-07 06:50:32			0	34393	0	0	0	26423	24980	158571	27293	1030458	43518	109788	0	0	8077	703361	0	0
2024-07-07 06:51:32			0	34390	0	0	0	26420	25000	158615	27072	1030511	43508	109787	0	0	8077	703420	0	0
2024-07-07 06:52:32			0	34356	0	0	0	26423	25000	158687	27180	1030519	43520	109788	0	0	8075	704995	0	0
2024-07-07 06:53:32			0	34361	0	0	0	26431	24990	158739	27123	1030529	43530	109791	0	0	8075	704804	0	0
2024-07-07 06:54:32			0	34360	0	0	0	26407	25010	158771	27157	1030582	43520	109782	0	0	8075	704770	0	0
2024-07-07 06:55:32			0	34377	0	0	0	26418	25010	158659	26928	1030510	43520	109786	0	0	8076	703982	0	0
2024-07-07 06:56:32			0	34413	0	0	0	26423	25000	158591	27206	1030519	43520	109788	0	0	8078	702356	0	0
2024-07-07 06:57:32			0	34410	0	0	0	26438	25000	158435	27074	1030511	43519	109794	0	0	8077	702495	0	0
2024-07-07 06:58:32			0	34437	0	0	0	26428	25000	158351	27189	1030564	43519	109790	0	0	8079	701247	0	0
2024-07-07 06:59:32			0	34455	0	0	0	26438	25000	158291	26977	1030573	43509	109794	0	0	8080	700416	0	0
2024-07-07 07:00:32			0	34479	0	0	0	26441	25010	158035	27062	1030582	43531	109795	0	0	8081	699270	0	0
2024-07-07 07:01:32			0	34513	0	0	0	26451	25010	158095	26935	1030609	43520	109799	0	0	8083	697704	0	0
2024-07-07 07:02:32			0	34518	0	0	0	26446	25010	157979	27239	1030609	43520	109797	0	0	8083	697474	0	0
2024-07-07 07:03:32			0	34539	0	0	0	26446	25010	157891	27138	1030644	43542	109797	0	0	8085	696509	0	0
2024-07-07 07:04:32			0	34559	0	0	0	26446	25030	157879	26897	1030617	43523	109797	0	0	8086	695512	0	0
2024-07-07 07:05:32			0	34548	0	0	0	26444	25020	157807	27320	1030626	43521	109796	0	0	8085	696056	0	0
2024-07-07 07:06:32			0	34573	0	0	0	26459	25020	157671	27150	1030680	43521	109802	0	0	8086	694909	0	0
2024-07-07 07:07:32			0	34590	0	0	0	26451	25010	157683	27189	1030724	43531	109799	0	0	8087	694169	0	0
2024-07-07 07:08:32			0	34612	0	0	0	26441	25020	157619	27097	1030635	43522	109795	0	0	8089	693122	0	0
2024-07-07 07:09:32			0	34630	0	0	0	26454	25020	157511	27251	1030608	43533	109800	0	0	8089	692299	0	0
2024-07-07 07:10:32			0	34659	0	0	0	26459	25030	157291	27045	1030670	43534	109802	0	0	8091	690934	0	0
2024-07-07 07:11:32			0	34698	0	0	0	26462	25030	157223	27244	1030643	43512	109803	0	0	8093	689155	0	0
2024-07-07 07:12:32			0	34731	0	0	0	26467	25030	157095	27317	1030670	43523	109805	0	0	8095	687653	0	0
2024-07-07 07:13:32			0	34749	0	0	0	26451	25030	157011	27045	1030617	43523	109799	0	0	8096	686834	0	0
2024-07-07 07:14:32			0	34767	0	0	0	26451	25020	156875	27121	1030688	43522	109799	0	0	8097	686056	0	0
2024-07-07 07:15:32			0	34780	0	0	0	26444	25030	156839	27275	1030643	43523	109796	0	0	8098	685426	0	0
2024-07-07 07:16:32			0	34807	0	0	0	26462	25030	156835	27164	1030643	43523	109803	0	0	8099	684202	0	0
2024-07-07 07:17:32			0	34810	0	0	0	26449	25040	156695	26989	1030741	43523	109798	0	0	8099	684027	0	0
2024-07-07 07:18:32			0	34800	0	0	0	26454	25030	156639	27045	1030697	43523	109800	0	0	8099	684519	0	0
2024-07-07 07:19:32			0	34811	0	0	0	26472	25040	156647	27095	1030688	43534	109807	0	0	8099	683982	0	0
2024-07-07 07:20:32			0	34824	0	0	0	26480	25040	156647	27059	1030777	43535	109810	0	0	8100	683393	0	0
2024-07-07 07:21:32			0	34802	0	0	0	26472	25050	156735	27183	1030794	43536	109807	0	0	8099	684351	0	0
2024-07-07 07:22:32			0	34816	0	0	0	26459	25040	156611	27362	1030750	43535	109802	0	0	8100	683755	0	0
2024-07-07 07:23:32			0	34805	0	0	0	26488	25050	156695	27138	1030768	43525	109813	0	0	8099	684215	0	0
2024-07-07 07:24:32			0	34805	0	0	0	26498	25040	156811	27415	1030777	43535	109817	0	0	8098	684254	0	0
2024-07-07 07:25:32			0	34797	0	0	0	26493	25060	156787	27300	1030830	43536	109815	0	0	8098	684539	0	0
2024-07-07 07:26:32			0	34778	0	0	0	26493	25060	156859	27249	1030838	43537	109815	0	0	8097	685401	0	0
2024-07-07 07:27:32			0	34762	0	0	0	26488	25050	156903	27235	1030768	43536	109813	0	0	8096	686166	0	0
2024-07-07 07:28:32			0	34768	0	0	0	26475	25060	156899	27232	1030830	43525	109808	0	0	8097	685854	0	0
2024-07-07 07:29:32			0	34757	0	0	0	26467	25060	156811	27019	1030830	43525	109805	0	0	8096	686354	0	0
2024-07-07 07:30:32			0	34766	0	0	0	26472	25060	156919	27353	1030830	43525	109807	0	0	8097	685945	0	0
2024-07-07 07:31:32			0	34753	0	0	0	26480	25060	156963	27201	1030785	43537	109810	0	0	8096	686536	0	0
2024-07-07 07:32:32			0	34760	0	0	0	26485	25060	156999	27332	1030857	43525	109812	0	0	8096	686218	0	0
2024-07-07 07:33:32			0	34755	0	0	0	26493	25060	156951	27339	1030838	43514	109815	0	0	8096	686445	0	0
2024-07-07 07:34:32			0	34765	0	0	0	26511	25070	156923	27192	1030856	43527	109822	0	0	8096	685952	0	0
2024-07-07 07:35:32			0	34760	0	0	0	26519	25070	157047	27213	1030847	43515	109825	0	0	8096	686179	0	0
2024-07-07 07:36:32			0	34754	0	0	0	26514	25080	156971	27187	1030918	43538	109823	0	0	8095	686412	0	0
2024-07-07 07:37:32			0	34762	0	0	0	26519	25080	156907	27126	1030891	43527	109825	0	0	8096	686049	0	0
2024-07-07 07:38:32			0	34762	0	0	0	26519	25080	156927	27242	1030972	43538	109825	0	0	8096	686049	0	0
2024-07-07 07:39:32			0	34753	0	0	0	26519	25070	156827	26960	1030963	43527	109825	0	0	8095	686497	0	0
2024-07-07 07:40:32			0	34752	0	0	0	26509	25090	156983	27348	1030936	43529	109821	0	0	8095	686464	0	0
2024-07-07 07:41:32			0	34740	0	0	0	26529	25090	156923	27029	1030998	43541	109829	0	0	8095	687009	0	0
2024-07-07 07:42:32			0	34745	0	0	0	26522	25090	156883	27078	1030936	43550	109826	0	0	8095	686782	0	0
2024-07-07 07:43:32			0	34761	0	0	0	26516	25090	156731	27237	1031025	43541	109824	0	0	8096	686055	0	0
2024-07-07 07:44:32			0	34781	0	0	0	26522	25090	156715	27199	1030998	43530	109826	0	0	8097	685148	0	0
2024-07-07 07:45:32			0	34787	0	0	0	26524	25100	156775	27003	1031015	43541	109827	0	0	8097	684837	0	0
2024-07-07 07:46:32			0	34800	0	0	0	26516	25100	156699	27149	1031033	43551	109824	0	0	8098	684248	0	0
2024-07-07 07:47:32			0	34800	0	0	0	26529	25090	156647	27301	1030962	43529	109829	0	0	8098	684286	0	0
2024-07-07 07:48:32			0	34817	0	0	0	26529	25090	156611	27152	1030971	43541	109829	0	0	8099	683516	0	0
2024-07-07 07:49:32			0	34818	0	0	0	26529	25090	156639	27204	1030998	43530	109829	0	0	8099	683471	0	0
2024-07-07 07:50:32			0	34832	0	0	0	26527	25090	156667	27052	1031025	43530	109828	0	0	8100	682837	0	0
2024-07-07 07:51:32			0	34840	0	0	0	26524	25100	156531	27296	1031069	43530	109827	0	0	8100	682437	0	0
2024-07-07 07:52:32			0	34831	0	0	0	26527	25110	156463	27144	1031051	43541	109828	0	0	8100	682805	0	0
2024-07-07 07:53:32			0	34871	0	0	0	26535	25100	156531	27145	1031015	43541	109831	0	0	8102	681036	0	0
2024-07-07 07:54:32			0	34867	0	0	0	26524	25100	156467	27197	1031096	43530	109827	0	0	8102	681216	0	0
2024-07-07 07:55:32			0	34875	0	0	0	26529	25110	156351	27085	1031059	43542	109829	0	0	8102	680816	0	0
2024-07-07 07:56:32			0	34901	0	0	0	26535	25110	156195	27409	1031077	43531	109831	0	0	8103	679643	0	0
2024-07-07 07:57:32			0	34900	0	0	0	26527	25110	156191	27064	1031077	43531	109828	0	0	8103	679688	0	0
2024-07-07 07:58:32			0	34916	0	0	0	26524	25100	156147	27010	1031122	43530	109827	0	0	8104	679006	0	0
2024-07-07 07:59:32			0	34926	0	0	0	26529	25110	156131	27123	1031033	43520	109829	0	0	8105	678517	0	0
2024-07-07 08:00:32			0	34938	0	0	0	26535	25100	156091	26989	1031096	43530	109831	0	0	8105	678015	0	0
2024-07-07 08:01:32			0	34964	0	0	0	26537	25100	156123	27248	1031033	43530	109832	0	0	8107	676846	0	0
2024-07-07 08:02:32			0	34974	0	0	0	26532	25110	155967	27161	1031086	43542	109830	0	0	8107	676358	0	0
2024-07-07 08:03:32			0	34962	0	0	0	26535	25110	155911	27088	1031113	43531	109831	0	0	8107	676897	0	0
2024-07-07 08:04:32			0	34979	0	0	0	26540	25110	156015	27100	1031086	43531	109833	0	0	8107	676134	0	0
2024-07-07 08:05:32			0	34968	0	0	0	26532	25110	155895	27066	1031104	43519	109830	0	0	8107	676628	0	0
2024-07-07 08:06:32			0	34970	0	0	0	26529	25110	155971	27222	1031077	43531	109829	0	0	8107	676538	0	0
2024-07-07 08:07:32			0	34978	0	0	0	26540	25110	155895	27216	1031113	43542	109833	0	0	8107	676178	0	0
2024-07-07 08:08:32			0	35006	0	0	0	26529	25130	155815	27293	1031085	43543	109829	0	0	8109	674845	0	0
2024-07-07 08:09:32			0	35009	0	0	0	26532	25120	155691	27098	1031148	43531	109830	0	0	8109	674749	0	0
2024-07-07 08:10:32			0	35008	0	0	0	26516	25110	155639	27119	1031086	43520	109824	0	0	8109	674832	0	0
2024-07-07 08:11:32			0	35058	0	0	0	26524	25110	155531	27284	1031059	43531	109827	0	0	8112	672593	0	0
2024-07-07 08:12:32			0	35072	0	0	0	26529	25110	155523	27157	1031113	43531	109829	0	0	8113	671967	0	0
2024-07-07 08:13:32			0	35099	0	0	0	26527	25100	155431	26899	1031069	43541	109828	0	0	8114	670798	0	0
2024-07-07 08:14:32			0	35126	0	0	0	26540	25110	155288	27066	1031113	43531	109833	0	0	8115	669556	0	0
2024-07-07 08:15:32			0	35152	0	0	0	26537	25110	155244	27209	1031113	43531	109832	0	0	8117	668397	0	0
2024-07-07 08:16:32			0	35168	0	0	0	26545	25120	155068	27249	1031130	43542	109835	0	0	8118	667647	0	0
2024-07-07 08:17:32			0	35169	0	0	0	26545	25120	155000	27039	1031175	43542	109835	0	0	8118	667603	0	0
2024-07-07 08:18:32			0	35198	0	0	0	26555	25120	154988	27137	1031175	43531	109839	0	0	8119	666314	0	0
2024-07-07 08:19:32			0	35183	0	0	0	26558	25130	154912	27036	1031193	43543	109840	0	0	8118	666943	0	0
2024-07-07 08:20:32			0	35196	0	0	0	26548	25120	154956	27189	1031184	43542	109836	0	0	8119	666403	0	0
2024-07-07 08:21:32			0	35190	0	0	0	26555	25130	154932	27294	1031193	43532	109839	0	0	8119	666631	0	0
2024-07-07 08:22:32			0	35220	0	0	0	26561	25120	154940	27234	1031184	43531	109841	0	0	8120	665337	0	0
2024-07-07 08:23:32			0	35219	0	0	0	26558	25130	154928	27081	1031228	43544	109840	0	0	8120	665343	0	0
2024-07-07 08:24:32			0	35220	0	0	0	26553	25130	154924	27183	1031175	43522	109838	0	0	8120	665299	0	0
2024-07-07 08:25:32			0	35231	0	0	0	26555	25140	154804	27105	1031192	43522	109839	0	0	8121	664774	0	0
2024-07-07 08:26:32			0	35261	0	0	0	26555	25130	154788	26965	1031255	43544	109839	0	0	8123	663482	0	0
2024-07-07 08:27:32			0	35255	0	0	0	26558	25130	154824	27653	1031166	43532	109840	0	0	8122	663748	0	0
2024-07-07 08:28:32			0	35251	0	0	0	26553	25130	154720	27737	1031201	43533	109838	0	0	8122	663925	0	0
2024-07-07 08:29:32			0	35272	0	0	0	26553	25140	154672	27235	1031183	43544	109838	0	0	8123	662957	0	0
2024-07-07 08:30:32			0	35285	0	0	0	26550	25130	154556	27582	1031139	43532	109837	0	0	8124	662420	0	0
2024-07-07 08:31:32			0	35304	0	0	0	26563	25130	154452	27220	1031228	43544	109842	0	0	8125	661580	0	0
2024-07-07 08:32:32			0	35292	0	0	0	26566	25130	154492	27448	1031201	43533	109843	0	0	8124	662110	0	0
2024-07-07 08:33:32			0	35327	0	0	0	26558	25140	154476	26920	1031156	43544	109840	0	0	8126	660527	0	0
2024-07-07 08:34:32			0	35315	0	0	0	26563	25140	154488	26824	1031219	43544	109842	0	0	8125	661056	0	0
2024-07-07 08:35:32			0	35332	0	0	0	26571	25130	154356	27275	1031228	43511	109845	0	0	8126	660343	0	0
2024-07-07 08:36:32			0	35310	0	0	0	26563	25130	154432	27149	1031201	43533	109842	0	0	8125	661315	0	0
2024-07-07 08:37:32			0	35309	0	0	0	26558	25140	154412	27173	1031272	43533	109840	0	0	8125	661321	0	0
2024-07-07 08:38:32			0	35327	0	0	0	26571	25140	154448	27086	1031317	43533	109845	0	0	8126	660527	0	0
2024-07-07 08:39:32			0	35303	0	0	0	26561	25140	154448	27157	1031237	43533	109841	0	0	8125	661586	0	0
2024-07-07 08:40:32			0	35296	0	0	0	26563	25130	154444	27107	1031193	43532	109842	0	0	8124	661933	0	0
2024-07-07 08:41:32			0	35320	0	0	0	26561	25150	154512	26759	1031236	43524	109841	0	0	8126	660798	0	0
2024-07-07 08:42:32			0	35314	0	0	0	26561	25150	154476	27147	1031254	43556	109841	0	0	8125	661063	0	0
2024-07-07 08:43:32			0	35332	0	0	0	26555	25150	154472	27100	1031236	43546	109839	0	0	8126	660268	0	0
2024-07-07 08:44:32			0	35321	0	0	0	26555	25140	154564	27421	1031237	43544	109839	0	0	8126	660791	0	0
2024-07-07 08:45:32			0	35318	0	0	0	26555	25140	154540	27384	1031290	43533	109839	0	0	8126	660924	0	0
2024-07-07 08:46:32			0	35316	0	0	0	26545	25140	154520	27416	1031192	43544	109835	0	0	8126	661012	0	0
2024-07-07 08:47:32			0	35327	0	0	0	26550	25140	154532	27649	1031210	43544	109837	0	0	8126	660527	0	0
2024-07-07 08:48:32			0	35338	0	0	0	26540	25130	154468	27282	1031255	43533	109833	0	0	8127	660079	0	0
2024-07-07 08:49:32			0	35312	0	0	0	26550	25140	154448	27272	1031210	43533	109837	0	0	8125	661189	0	0
2024-07-07 08:50:32			0	35322	0	0	0	26561	25140	154448	27223	1031210	43544	109841	0	0	8126	660747	0	0
2024-07-07 08:51:32			0	35332	0	0	0	26574	25140	154412	27029	1031183	43544	109846	0	0	8126	660306	0	0
2024-07-07 08:52:32			0	35319	0	0	0	26555	25140	154504	27329	1031183	43533	109839	0	0	8126	660880	0	0
2024-07-07 08:53:32			0	35296	0	0	0	26540	25140	154664	27111	1031183	43533	109833	0	0	8125	661896	0	0
2024-07-07 08:54:32			0	35310	0	0	0	26548	25140	154700	27234	1031210	43544	109836	0	0	8125	661277	0	0
2024-07-07 08:55:32			0	35284	0	0	0	26550	25140	154744	27033	1031219	43544	109837	0	0	8124	662426	0	0
2024-07-07 08:56:32			0	35273	0	0	0	26550	25130	154680	27218	1031201	43533	109837	0	0	8123	662951	0	0
2024-07-07 08:57:32			0	35279	0	0	0	26553	25130	154740	27079	1031228	43522	109838	0	0	8124	662685	0	0
2024-07-07 08:58:32			0	35267	0	0	0	26537	25140	154760	27121	1031183	43544	109832	0	0	8123	663179	0	0
2024-07-07 08:59:32			0	35275	0	0	0	26537	25130	154664	27312	1031201	43533	109832	0	0	8124	662862	0	0
2024-07-07 09:00:32			0	35251	0	0	0	26535	25130	154732	26842	1031175	43544	109831	0	0	8122	663925	0	0
2024-07-07 09:01:32			0	35253	0	0	0	26540	25130	154860	27265	1031166	43521	109833	0	0	8122	663836	0	0
2024-07-07 09:02:32			0	35222	0	0	0	26542	25130	154844	27343	1031228	43533	109834	0	0	8121	665210	0	0
2024-07-07 09:03:32			0	35220	0	0	0	26537	25130	154948	27346	1031112	43543	109832	0	0	8121	665299	0	0
2024-07-07 09:04:32			0	35219	0	0	0	26545	25120	154952	27291	1031130	43542	109835	0	0	8120	665381	0	0
2024-07-07 09:05:32			0	35203	0	0	0	26545	25130	154924	27319	1031228	43544	109835	0	0	8120	666054	0	0
2024-07-07 09:06:32			0	35193	0	0	0	26540	25120	154976	27287	1031184	43542	109833	0	0	8119	666536	0	0
2024-07-07 09:07:32			0	35172	0	0	0	26537	25120	155136	27241	1031229	43542	109832	0	0	8118	667469	0	0
2024-07-07 09:08:32			0	35156	0	0	0	26540	25130	155200	27010	1031175	43533	109833	0	0	8117	668144	0	0
2024-07-07 09:09:32			0	35134	0	0	0	26553	25130	155336	27123	1031139	43532	109838	0	0	8116	669123	0	0
2024-07-07 09:10:32			0	35094	0	0	0	26535	25130	155471	27036	1031175	43533	109831	0	0	8114	670907	0	0
2024-07-07 09:11:32			0	35073	0	0	0	26548	25120	155407	26876	1031157	43542	109836	0	0	8112	671884	0	0
2024-07-07 09:12:32			0	35069	0	0	0	26545	25120	155463	27130	1031237	43542	109835	0	0	8112	672063	0	0
2024-07-07 09:13:32			0	35046	0	0	0	26545	25120	155579	27372	1031157	43531	109835	0	0	8111	673091	0	0
2024-07-07 09:14:32			0	35032	0	0	0	26542	25130	155659	27332	1031166	43554	109834	0	0	8110	673680	0	0
2024-07-07 09:15:32			0	35017	0	0	0	26542	25120	155791	27140	1031157	43531	109834	0	0	8110	674390	0	0
2024-07-07 09:16:32			0	34995	0	0	0	26545	25120	155823	27230	1031175	43553	109835	0	0	8108	675377	0	0
2024-07-07 09:17:32			0	34990	0	0	0	26548	25130	155879	27201	1031193	43543	109836	0	0	8108	675563	0	0
2024-07-07 09:18:32			0	34981	0	0	0	26548	25130	155939	27395	1031139	43543	109836	0	0	8107	675967	0	0
2024-07-07 09:19:32			0	34963	0	0	0	26548	25120	156039	27100	1031184	43542	109836	0	0	8106	676814	0	0
2024-07-07 09:20:32			0	34940	0	0	0	26555	25130	156063	27272	1031193	43543	109839	0	0	8105	677810	0	0
2024-07-07 09:21:32			0	34947	0	0	0	26558	25130	156087	27267	1031219	43521	109840	0	0	8105	677495	0	0
2024-07-07 09:22:32			0	34929	0	0	0	26566	25120	156215	27211	1031211	43542	109843	0	0	8104	678343	0	0
2024-07-07 09:23:32			0	34929	0	0	0	26568	25130	156167	26916	1031219	43521	109844	0	0	8104	678305	0	0
2024-07-07 09:24:32			0	34914	0	0	0	26566	25130	156179	27306	1031228	43533	109843	0	0	8104	678980	0	0
2024-07-07 09:25:32			0	34911	0	0	0	26566	25140	156163	26986	1031264	43533	109843	0	0	8103	679077	0	0
2024-07-07 09:26:32			0	34932	0	0	0	26555	25130	156227	27377	1031255	43533	109839	0	0	8105	678170	0	0
2024-07-07 09:27:32			0	34927	0	0	0	26561	25140	156295	27015	1031272	43533	109841	0	0	8104	678357	0	0
2024-07-07 09:28:32			0	34923	0	0	0	26566	25130	156339	27303	1031273	43543	109843	0	0	8104	678575	0	0
2024-07-07 09:29:32			0	34907	0	0	0	26568	25140	156343	27281	1031264	43555	109844	0	0	8103	679257	0	0
2024-07-07 09:30:32			0	34892	0	0	0	26576	25150	156367	27059	1031281	43534	109847	0	0	8102	679895	0	0
2024-07-07 09:31:32			0	34894	0	0	0	26579	25140	156371	27197	1031245	43533	109848	0	0	8102	679843	0	0
2024-07-07 09:32:32			0	34891	0	0	0	26579	25150	156495	27362	1031308	43556	109848	0	0	8102	679940	0	0
2024-07-07 09:33:32			0	34896	0	0	0	26584	25140	156471	26880	1031299	43533	109850	0	0	8102	679753	0	0
2024-07-07 09:34:32			0	34875	0	0	0	26576	25150	156471	27218	1031254	43523	109847	0	0	8101	680662	0	0
2024-07-07 09:35:32			0	34874	0	0	0	26571	25140	156459	26887	1031245	43544	109845	0	0	8101	680746	0	0
2024-07-07 09:36:32			0	34863	0	0	0	26576	25150	156515	27305	1031370	43546	109847	0	0	8101	681204	0	0
2024-07-07 09:37:32			0	34866	0	0	0	26576	25140	156479	27046	1031299	43522	109847	0	0	8101	681107	0	0
2024-07-07 09:38:32			0	34862	0	0	0	26584	25160	156471	27326	1031325	43546	109850	0	0	8101	681210	0	0
2024-07-07 09:39:32			0	34877	0	0	0	26584	25150	156431	27053	1031263	43557	109850	0	0	8101	680572	0	0
2024-07-07 09:40:32			0	34888	0	0	0	26586	25150	156395	27416	1031361	43534	109851	0	0	8102	680075	0	0
2024-07-07 09:41:32			0	34890	0	0	0	26586	25150	156299	27336	1031316	43557	109851	0	0	8102	679985	0	0
2024-07-07 09:42:32			0	34902	0	0	0	26584	25150	156383	27175	1031316	43546	109850	0	0	8103	679444	0	0
2024-07-07 09:43:32			0	34913	0	0	0	26581	25160	156187	27415	1031352	43546	109849	0	0	8103	678910	0	0
2024-07-07 09:44:32			0	34930	0	0	0	26592	25160	156151	27251	1031352	43546	109853	0	0	8104	678144	0	0
2024-07-07 09:45:32			0	34924	0	0	0	26589	25160	156095	27260	1031379	43546	109852	0	0	8104	678415	0	0
2024-07-07 09:46:32			0	34952	0	0	0	26581	25160	156035	27137	1031379	43546	109849	0	0	8106	677155	0	0
2024-07-07 09:47:32			0	34957	0	0	0	26589	25160	155947	27267	1031334	43547	109852	0	0	8106	676930	0	0
2024-07-07 09:48:32			0	34969	0	0	0	26579	25150	155987	27357	1031343	43546	109848	0	0	8106	676429	0	0
2024-07-07 09:49:32			0	34987	0	0	0	26586	25150	155907	27447	1031316	43546	109851	0	0	8107	675621	0	0
2024-07-07 09:50:32			0	34978	0	0	0	26589	25170	155815	27216	1031343	43547	109852	0	0	8107	675948	0	0
2024-07-07 09:51:32			0	34997	0	0	0	26589	25160	155791	27376	1031405	43535	109852	0	0	8108	675134	0	0
2024-07-07 09:52:32			0	35024	0	0	0	26589	25170	155711	27156	1031450	43536	109852	0	0	8109	673886	0	0
2024-07-07 09:53:32			0	35039	0	0	0	26584	25170	155579	27348	1031423	43547	109850	0	0	8110	673214	0	0
2024-07-07 09:54:32			0	35056	0	0	0	26592	25160	155591	27313	1031414	43536	109853	0	0	8111	672491	0	0
2024-07-07 09:55:32			0	35059	0	0	0	26602	25170	155459	27319	1031450	43547	109857	0	0	8111	672319	0	0
2024-07-07 09:56:32			0	35075	0	0	0	26597	25150	155539	27119	1031424	43535	109855	0	0	8112	671680	0	0
2024-07-07 09:57:32			0	35104	0	0	0	26594	25170	155395	27400	1031458	43559	109854	0	0	8114	670309	0	0
2024-07-07 09:58:32			0	35120	0	0	0	26597	25170	155356	27017	1031369	43536	109855	0	0	8114	669595	0	0
2024-07-07 09:59:32			0	35132	0	0	0	26602	25170	155264	27222	1031432	43547	109857	0	0	8115	669061	0	0
2024-07-07 10:00:32			0	35140	0	0	0	26602	25170	155288	27197	1031378	43559	109857	0	0	8115	668704	0	0
2024-07-07 10:01:32			0	35164	0	0	0	26589	25160	155312	27090	1031387	43558	109852	0	0	8117	667674	0	0
2024-07-07 10:02:32			0	35162	0	0	0	26597	25170	155180	27331	1031458	43547	109855	0	0	8117	667725	0	0
2024-07-07 10:03:32			0	35174	0	0	0	26584	25170	155056	27275	1031405	43547	109850	0	0	8118	667191	0	0
2024-07-07 10:04:32			0	35190	0	0	0	26586	25170	155124	27341	1031378	43537	109851	0	0	8118	666480	0	0
2024-07-07 10:05:32			0	35194	0	0	0	26586	25170	154952	27282	1031405	43537	109851	0	0	8119	666302	0	0
2024-07-07 10:06:32			0	35215	0	0	0	26576	25170	154936	27263	1031405	43537	109847	0	0	8120	665370	0	0
2024-07-07 10:07:32			0	35236	0	0	0	26571	25160	154920	27230	1031361	43536	109845	0	0	8121	664476	0	0
2024-07-07 10:08:32			0	35215	0	0	0	26574	25160	154832	27329	1031334	43536	109846	0	0	8120	665408	0	0
2024-07-07 10:09:32			0	35247	0	0	0	26571	25170	154804	27206	1031396	43536	109845	0	0	8122	663951	0	0
2024-07-07 10:10:32			0	35228	0	0	0	26568	25160	154772	27343	1031414	43547	109844	0	0	8121	664831	0	0
2024-07-07 10:11:32			0	35260	0	0	0	26571	25170	154752	27374	1031343	43547	109845	0	0	8122	663376	0	0
2024-07-07 10:12:32			0	35279	0	0	0	26576	25160	154696	27374	1031387	43536	109847	0	0	8123	662572	0	0
2024-07-07 10:13:32			0	35267	0	0	0	26581	25170	154720	27241	1031343	43536	109849	0	0	8123	663066	0	0
2024-07-07 10:14:32			0	35296	0	0	0	26584	25160	154624	27121	1031352	43535	109850	0	0	8124	661821	0	0
2024-07-07 10:15:32			0	35309	0	0	0	26576	25160	154636	27390	1031352	43546	109847	0	0	8125	661246	0	0
2024-07-07 10:16:32			0	35326	0	0	0	26581	25150	154500	27140	1031343	43546	109849	0	0	8126	660533	0	0
2024-07-07 10:17:32			0	35329	0	0	0	26586	25160	154524	27261	1031387	43536	109851	0	0	8126	660363	0	0
2024-07-07 10:18:32			0	35332	0	0	0	26586	25150	154640	27505	1031370	43535	109851	0	0	8126	660268	0	0
2024-07-07 10:19:32			0	35326	0	0	0	26599	25160	154496	27403	1031468	43558	109856	0	0	8125	660496	0	0
2024-07-07 10:20:32			0	35340	0	0	0	26605	25160	154488	27145	1031468	43547	109858	0	0	8126	659878	0	0
2024-07-07 10:21:32			0	35373	0	0	0	26615	25170	154428	27459	1031458	43547	109862	0	0	8128	658387	0	0
2024-07-07 10:22:32			0	35346	0	0	0	26620	25170	154344	27441	1031485	43547	109864	0	0	8126	659576	0	0
2024-07-07 10:23:32			0	35376	0	0	0	26612	25180	154228	27403	1031467	43559	109861	0	0	8128	658217	0	0
2024-07-07 10:24:32			0	35364	0	0	0	26605	25190	154268	27562	1031512	43560	109858	0	0	8127	658708	0	0
2024-07-07 10:25:32			0	35373	0	0	0	26592	25180	154352	27467	1031494	43547	109853	0	0	8128	658349	0	0
2024-07-07 10:26:32			0	35373	0	0	0	26584	25170	154156	27599	1031432	43547	109850	0	0	8128	658387	0	0
2024-07-07 10:27:32			0	35383	0	0	0	26594	25180	154096	27414	1031530	43538	109854	0	0	8129	657909	0	0
2024-07-07 10:28:32			0	35414	0	0	0	26620	25180	154080	27242	1031548	43547	109864	0	0	8130	656546	0	0
2024-07-07 10:29:32			0	35407	0	0	0	26620	25180	153984	27074	1031521	43559	109864	0	0	8129	656853	0	0
2024-07-07 10:30:32			0	35418	0	0	0	26625	25200	154056	26956	1031547	43561	109866	0	0	8130	656296	0	0
2024-07-07 10:31:32			0	35447	0	0	0	26610	25200	154032	27150	1031529	43550	109860	0	0	8132	655023	0	0
2024-07-07 10:32:32			0	35421	0	0	0	26620	25200	153976	27154	1031574	43549	109864	0	0	8130	656164	0	0
2024-07-07 10:33:32			0	35445	0	0	0	26599	25200	153912	27060	1031574	43561	109856	0	0	8132	655111	0	0
2024-07-07 10:34:32			0	35440	0	0	0	26610	25200	153908	27163	1031556	43540	109860	0	0	8132	655330	0	0
2024-07-07 10:35:32			0	35467	0	0	0	26618	25200	154008	27090	1031547	43561	109863	0	0	8133	654146	0	0
2024-07-07 10:36:32			0	35455	0	0	0	26615	25190	153936	27043	1031619	43548	109862	0	0	8132	654709	0	0
2024-07-07 10:37:32			0	35466	0	0	0	26636	25200	153740	27111	1031583	43550	109870	0	0	8132	654190	0	0
2024-07-07 10:38:32			0	35460	0	0	0	26654	25210	153804	27301	1031645	43562	109877	0	0	8132	654416	0	0
2024-07-07 10:39:32			0	35466	0	0	0	26667	25210	153768	27062	1031680	43550	109882	0	0	8132	654153	0	0
2024-07-07 10:40:32			0	35485	0	0	0	26675	25230	153712	26932	1031760	43541	109885	0	0	8133	653246	0	0
2024-07-07 10:41:32			0	35484	0	0	0	26672	25220	153796	26975	1031778	43552	109884	0	0	8133	653327	0	0
2024-07-07 10:42:32			0	35482	0	0	0	26672	25230	153832	27124	1031715	43564	109884	0	0	8133	653378	0	0
2024-07-07 10:43:32			0	35488	0	0	0	26672	25240	153764	26979	1031831	43564	109884	0	0	8133	653078	0	0
2024-07-07 10:44:32			0	35488	0	0	0	26683	25240	153836	27170	1031804	43553	109888	0	0	8133	653078	0	0
2024-07-07 10:45:32			0	35493	0	0	0	26664	25240	153812	26956	1031777	43564	109881	0	0	8134	652859	0	0
2024-07-07 10:46:32			0	35479	0	0	0	26636	25230	153752	27237	1031742	43531	109870	0	0	8133	653509	0	0
2024-07-07 10:47:32			0	35489	0	0	0	26646	25240	153736	27190	1031697	43564	109874	0	0	8134	653034	0	0
2024-07-07 10:48:32			0	35498	0	0	0	26631	25230	153628	27209	1031715	43542	109868	0	0	8134	652678	0	0
2024-07-07 10:49:32			0	35494	0	0	0	26631	25240	153692	27126	1031697	43553	109868	0	0	8134	652816	0	0
2024-07-07 10:50:32			0	35499	0	0	0	26620	25220	153692	26916	1031662	43541	109864	0	0	8135	652671	0	0
2024-07-07 10:51:32			0	35504	0	0	0	26620	25230	153776	27289	1031680	43541	109864	0	0	8135	652415	0	0
2024-07-07 10:52:32			0	35504	0	0	0	26636	25230	153696	27274	1031653	43552	109870	0	0	8135	652415	0	0
2024-07-07 10:53:32			0	35492	0	0	0	26651	25220	153728	27095	1031769	43541	109876	0	0	8134	652977	0	0
2024-07-07 10:54:32			0	35501	0	0	0	26672	25230	153764	27651	1031760	43541	109884	0	0	8134	652546	0	0
2024-07-07 10:55:32			0	35500	0	0	0	26696	25230	153708	27261	1031822	43553	109893	0	0	8133	652590	0	0
2024-07-07 10:56:32			0	35504	0	0	0	26690	25240	153736	27351	1031840	43565	109891	0	0	8134	652378	0	0
2024-07-07 10:57:32			0	35502	0	0	0	26659	25250	153740	27313	1031768	43565	109879	0	0	8134	652429	0	0
2024-07-07 10:58:32			0	35482	0	0	0	26625	25240	153704	27092	1031679	43521	109866	0	0	8134	653341	0	0
2024-07-07 10:59:32			0	35496	0	0	0	26633	25240	153672	27029	1031679	43554	109869	0	0	8134	652728	0	0
2024-07-07 11:00:32			0	35493	0	0	0	26654	25240	153756	27197	1031759	43554	109877	0	0	8134	652859	0	0
2024-07-07 11:01:32			0	35492	0	0	0	26664	25250	153652	26831	1031795	43554	109881	0	0	8134	652866	0	0
2024-07-07 11:02:32			0	35508	0	0	0	26657	25240	153660	27041	1031804	43553	109878	0	0	8135	652203	0	0
2024-07-07 11:03:32			0	35498	0	0	0	26662	25240	153656	27173	1031759	43554	109880	0	0	8134	652640	0	0
2024-07-07 11:04:32			0	35522	0	0	0	26672	25250	153684	27448	1031822	43554	109884	0	0	8135	651554	0	0
2024-07-07 11:05:32			0	35531	0	0	0	26670	25250	153672	26733	1031822	43565	109883	0	0	8136	651161	0	0
2024-07-07 11:06:32			0	35523	0	0	0	26657	25240	153616	26977	1031786	43554	109878	0	0	8135	651548	0	0
2024-07-07 11:07:32			0	35535	0	0	0	26644	25240	153636	27281	1031733	43554	109873	0	0	8136	651024	0	0
2024-07-07 11:08:32			0	35518	0	0	0	26641	25250	153612	27177	1031768	43554	109872	0	0	8135	651729	0	0
2024-07-07 11:09:32			0	35528	0	0	0	26651	25250	153692	27263	1031750	43555	109876	0	0	8136	651292	0	0
2024-07-07 11:10:32			0	35537	0	0	0	26685	25240	153652	27112	1031813	43554	109889	0	0	8136	650936	0	0
2024-07-07 11:11:32			0	35527	0	0	0	26670	25250	153428	27156	1031804	43555	109883	0	0	8135	651336	0	0
2024-07-07 11:12:32			0	35555	0	0	0	26646	25260	153436	27235	1031759	43555	109874	0	0	8137	650077	0	0
2024-07-07 11:13:32			0	35559	0	0	0	26654	25250	153476	27428	1031804	43566	109877	0	0	8137	649940	0	0
2024-07-07 11:14:32			0	35547	0	0	0	26657	25250	153384	27010	1031777	43555	109878	0	0	8137	650463	0	0
2024-07-07 11:15:32			0	35558	0	0	0	26667	25260	153296	26970	1031866	43555	109882	0	0	8137	649946	0	0
2024-07-07 11:16:32			0	35578	0	0	0	26677	25250	153296	27130	1031848	43554	109886	0	0	8138	649111	0	0
2024-07-07 11:17:32			0	35582	0	0	0	26675	25250	153276	27131	1031884	43566	109885	0	0	8138	648937	0	0
2024-07-07 11:18:32			0	35570	0	0	0	26659	25260	153352	27291	1031785	43555	109879	0	0	8138	649423	0	0
2024-07-07 11:19:32			0	35576	0	0	0	26641	25250	153316	27235	1031830	43544	109872	0	0	8139	649198	0	0
2024-07-07 11:20:32			0	35588	0	0	0	26667	25250	153308	27152	1031830	43544	109882	0	0	8139	648676	0	0
2024-07-07 11:21:32			0	35593	0	0	0	26698	25250	153268	26927	1031830	43544	109894	0	0	8138	648458	0	0
2024-07-07 11:22:32			0	35603	0	0	0	26701	25260	153220	27199	1031919	43566	109895	0	0	8139	647986	0	0
2024-07-07 11:23:32			0	35611	0	0	0	26714	25270	153192	27313	1031937	43567	109900	0	0	8139	647601	0	0
2024-07-07 11:24:32			0	35616	0	0	0	26690	25270	153152	27201	1031990	43534	109891	0	0	8140	647384	0	0
2024-07-07 11:25:32			0	35614	0	0	0	26690	25270	153188	27294	1031883	43545	109891	0	0	8140	647471	0	0
2024-07-07 11:26:32			0	35602	0	0	0	26683	25260	153052	27157	1031955	43556	109888	0	0	8139	648029	0	0
2024-07-07 11:27:32			0	35614	0	0	0	26722	25270	153108	27140	1031999	43557	109903	0	0	8139	647471	0	0
2024-07-07 11:28:32			0	35605	0	0	0	26755	25280	153080	27253	1032097	43581	109916	0	0	8138	647825	0	0
2024-07-07 11:29:32			0	35603	0	0	0	26701	25280	153088	27429	1032043	43569	109895	0	0	8139	647912	0	0
2024-07-07 11:30:32			0	35635	0	0	0	26685	25290	153028	26819	1032025	43558	109889	0	0	8141	646485	0	0
2024-07-07 11:31:32			0	35626	0	0	0	26680	25290	153032	27185	1031998	43546	109887	0	0	8141	646876	0	0
2024-07-07 11:32:32			0	35646	0	0	0	26696	25270	153036	27180	1031910	43545	109893	0	0	8141	646080	0	0
2024-07-07 11:33:32			0	35634	0	0	0	26698	25280	153068	27232	1031963	43546	109894	0	0	8141	646565	0	0
2024-07-07 11:34:32			0	35650	0	0	0	26696	25280	153008	27253	1031909	43546	109893	0	0	8142	645870	0	0
2024-07-07 11:35:32			0	35661	0	0	0	26683	25280	152972	27000	1031927	43546	109888	0	0	8142	645393	0	0
2024-07-07 11:36:32			0	35658	0	0	0	26683	25280	152920	27433	1031874	43558	109888	0	0	8142	645523	0	0
2024-07-07 11:37:32			0	35662	0	0	0	26693	25280	152900	27296	1031901	43558	109892	0	0	8142	645349	0	0
2024-07-07 11:38:32			0	35672	0	0	0	26677	25280	152800	27173	1032008	43558	109886	0	0	8143	644915	0	0
2024-07-07 11:39:32			0	35663	0	0	0	26690	25280	152952	27409	1031927	43546	109891	0	0	8142	645306	0	0
2024-07-07 11:40:32			0	35675	0	0	0	26703	25270	152892	27270	1032026	43557	109896	0	0	8143	644822	0	0
2024-07-07 11:41:32			0	35671	0	0	0	26722	25270	153020	27293	1032026	43557	109903	0	0	8142	644995	0	0
2024-07-07 11:42:32			0	35660	0	0	0	26722	25280	152980	27220	1032070	43558	109903	0	0	8142	645436	0	0
2024-07-07 11:43:32			0	35668	0	0	0	26719	25280	153004	27168	1032043	43569	109902	0	0	8142	645089	0	0
2024-07-07 11:44:32			0	35656	0	0	0	26732	25280	153016	27216	1032016	43569	109907	0	0	8141	645609	0	0
2024-07-07 11:45:32			0	35665	0	0	0	26719	25290	152924	27384	1032079	43558	109902	0	0	8142	645182	0	0
2024-07-07 11:46:32			0	35650	0	0	0	26714	25280	153000	27415	1032070	43569	109900	0	0	8141	645870	0	0
2024-07-07 11:47:32			0	35637	0	0	0	26714	25290	153032	27008	1032052	43558	109900	0	0	8141	646398	0	0
2024-07-07 11:48:32			0	35672	0	0	0	26724	25300	153048	27225	1032096	43560	109904	0	0	8142	644842	0	0
2024-07-07 11:49:32			0	35637	0	0	0	26761	25300	153008	27152	1032123	43560	109918	0	0	8140	646361	0	0
2024-07-07 11:50:32			0	35642	0	0	0	26771	25300	153092	27306	1032212	43571	109922	0	0	8140	646144	0	0
2024-07-07 11:51:32			0	35625	0	0	0	26761	25310	153180	27601	1032203	43561	109918	0	0	8139	646845	0	0
2024-07-07 11:52:32			0	35609	0	0	0	26773	25320	153200	27324	1032265	43573	109923	0	0	8138	647504	0	0
2024-07-07 11:53:32			0	35592	0	0	0	26755	25320	153240	27275	1032265	43562	109916	0	0	8138	648244	0	0
2024-07-07 11:54:32			0	35592	0	0	0	26724	25320	153324	27524	1032220	43562	109904	0	0	8138	648244	0	0
2024-07-07 11:55:32			0	35600	0	0	0	26693	25320	153192	27315	1032078	43550	109892	0	0	8139	647896	0	0
2024-07-07 11:56:32			0	35605	0	0	0	26732	25310	153288	27327	1032114	43561	109907	0	0	8139	647715	0	0
2024-07-07 11:57:32			0	35615	0	0	0	26716	25300	153152	27473	1032159	43548	109901	0	0	8140	647317	0	0
2024-07-07 11:58:32			0	35611	0	0	0	26768	25310	153164	27379	1032114	43572	109921	0	0	8139	647454	0	0
2024-07-07 11:59:32			0	35606	0	0	0	26753	25310	153228	27306	1032221	43572	109915	0	0	8138	647671	0	0
2024-07-07 12:00:32			0	35595	0	0	0	26768	25320	153220	27656	1032239	43550	109921	0	0	8138	648113	0	0
2024-07-07 12:01:32			0	35591	0	0	0	26758	25320	153284	27611	1032292	43562	109917	0	0	8138	648287	0	0
2024-07-07 12:02:32			0	35571	0	0	0	26807	25330	153288	27267	1032310	43584	109936	0	0	8136	649121	0	0
2024-07-07 12:03:32			0	35556	0	0	0	26763	25340	153400	27504	1032362	43564	109919	0	0	8136	649738	0	0
2024-07-07 12:04:32			0	35536	0	0	0	26761	25330	153532	27074	1032318	43563	109918	0	0	8135	650647	0	0
2024-07-07 12:05:32			0	35548	0	0	0	26753	25330	153436	27277	1032238	43541	109915	0	0	8135	650124	0	0
2024-07-07 12:06:32			0	35539	0	0	0	26755	25340	153464	27222	1032327	43563	109916	0	0	8135	650479	0	0
2024-07-07 12:07:32			0	35538	0	0	0	26766	25330	153492	27306	1032336	43541	109920	0	0	8135	650560	0	0
2024-07-07 12:08:32			0	35520	0	0	0	26786	25330	153616	27135	1032318	43563	109928	0	0	8133	651346	0	0
2024-07-07 12:09:32			0	35475	0	0	0	26776	25340	153784	27445	1032336	43586	109924	0	0	8131	653276	0	0
2024-07-07 12:10:32			0	35451	0	0	0	26792	25340	153744	27350	1032389	43576	109930	0	0	8130	654327	0	0
2024-07-07 12:11:32			0	35451	0	0	0	26771	25340	153924	27402	1032309	43576	109922	0	0	8130	654327	0	0
2024-07-07 12:12:32			0	35428	0	0	0	26805	25350	153812	27341	1032380	43576	109935	0	0	8128	655298	0	0
2024-07-07 12:13:32			0	35397	0	0	0	26794	25350	154136	27145	1032407	43586	109931	0	0	8127	656659	0	0
2024-07-07 12:14:32			0	35389	0	0	0	26799	25360	154000	27124	1032442	43565	109933	0	0	8126	656973	0	0
2024-07-07 12:15:32			0	35401	0	0	0	26794	25370	154096	27052	1032406	43566	109931	0	0	8127	656409	0	0
2024-07-07 12:16:32			0	35383	0	0	0	26818	25370	154176	27199	1032486	43566	109940	0	0	8126	657200	0	0
2024-07-07 12:17:32			0	35369	0	0	0	26815	25370	154192	27415	1032567	43566	109939	0	0	8125	657815	0	0
2024-07-07 12:18:32			0	35393	0	0	0	26836	25370	154116	27310	1032549	43566	109947	0	0	8126	656760	0	0
2024-07-07 12:19:32			0	35373	0	0	0	26864	25380	154092	27159	1032638	43579	109958	0	0	8124	657602	0	0
2024-07-07 12:20:32			0	35397	0	0	0	26885	25390	153992	27163	1032628	43601	109966	0	0	8125	656510	0	0
2024-07-07 12:21:32			0	35400	0	0	0	26906	25400	154012	27486	1032762	43592	109974	0	0	8125	656341	0	0
2024-07-07 12:22:32			0	35408	0	0	0	26854	25420	153952	27190	1032761	43593	109954	0	0	8127	655915	0	0
2024-07-07 12:23:32			0	35448	0	0	0	26849	25410	153852	27319	1032672	43582	109952	0	0	8129	654198	0	0
2024-07-07 12:24:32			0	35455	0	0	0	26846	25420	153804	27455	1032681	43571	109951	0	0	8129	653854	0	0
2024-07-07 12:25:32			0	35470	0	0	0	26851	25410	153748	27064	1032645	43560	109953	0	0	8130	653235	0	0
2024-07-07 12:26:32			0	35481	0	0	0	26859	25420	153644	27383	1032734	43560	109956	0	0	8131	652717	0	0
2024-07-07 12:27:32			0	35497	0	0	0	26844	25420	153640	27390	1032707	43560	109950	0	0	8132	652017	0	0
2024-07-07 12:28:32			0	35500	0	0	0	26833	25420	153544	27156	1032681	43560	109946	0	0	8132	651886	0	0
2024-07-07 12:29:32			0	35527	0	0	0	26833	25420	153504	27144	1032654	43582	109946	0	0	8133	650707	0	0
2024-07-07 12:30:32			0	35504	0	0	0	26828	25420	153492	27379	1032654	43571	109944	0	0	8132	651711	0	0
2024-07-07 12:31:32			0	35514	0	0	0	26849	25420	153408	27187	1032681	43582	109952	0	0	8132	651275	0	0
2024-07-07 12:32:32			0	35550	0	0	0	26844	25410	153412	27403	1032699	43571	109950	0	0	8134	649741	0	0
2024-07-07 12:33:32			0	35534	0	0	0	26883	25430	153368	27241	1032779	43583	109965	0	0	8133	650365	0	0
2024-07-07 12:34:32			0	35536	0	0	0	26867	25430	153412	27376	1032841	43595	109959	0	0	8133	650278	0	0
2024-07-07 12:35:32			0	35565	0	0	0	26877	25440	153328	27232	1032912	43584	109963	0	0	8135	648977	0	0
2024-07-07 12:36:32			0	35550	0	0	0	26880	25440	153304	27043	1032877	43583	109964	0	0	8134	649630	0	0
2024-07-07 12:37:32			0	35570	0	0	0	26916	25450	153180	27599	1032956	43585	109978	0	0	8134	648722	0	0
2024-07-07 12:38:32			0	35569	0	0	0	26909	25450	153240	27286	1032956	43597	109975	0	0	8135	648766	0	0
2024-07-07 12:39:32			0	35589	0	0	0	26950	25460	153180	27308	1033001	43586	109991	0	0	8135	647859	0	0
2024-07-07 12:40:32			0	35599	0	0	0	26932	25470	153132	27481	1033063	43598	109984	0	0	8136	647387	0	0
2024-07-07 12:41:32			0	35604	0	0	0	26893	25480	153028	27369	1033000	43599	109969	0	0	8137	647133	0	0
2024-07-07 12:42:32			0	35621	0	0	0	26859	25470	152876	27371	1032938	43566	109956	0	0	8138	646431	0	0
2024-07-07 12:43:32			0	35644	0	0	0	26864	25460	152864	27388	1032947	43564	109958	0	0	8139	645470	0	0
2024-07-07 12:44:32			0	35663	0	0	0	26844	25470	152800	27450	1032938	43578	109950	0	0	8141	644609	0	0
2024-07-07 12:45:32			0	35662	0	0	0	26857	25460	152736	27197	1032867	43564	109955	0	0	8140	644689	0	0
2024-07-07 12:46:32			0	35680	0	0	0	26867	25460	152712	27019	1032947	43576	109959	0	0	8141	643910	0	0
2024-07-07 12:47:32			0	35681	0	0	0	26854	25460	152736	27498	1032893	43586	109954	0	0	8141	643866	0	0
2024-07-07 12:48:32			0	35694	0	0	0	26859	25460	152796	27059	1032831	43575	109956	0	0	8142	643304	0	0
2024-07-07 12:49:32			0	35675	0	0	0	26893	25460	152736	27222	1032858	43575	109969	0	0	8140	644126	0	0
2024-07-07 12:50:32			0	35681	0	0	0	26890	25460	152704	26904	1032974	43586	109968	0	0	8141	643866	0	0
2024-07-07 12:51:32			0	35696	0	0	0	26898	25470	152808	27060	1032929	43598	109971	0	0	8142	643181	0	0
2024-07-07 12:52:32			0	35682	0	0	0	26922	25480	152704	27144	1033009	43588	109980	0	0	8140	643750	0	0
2024-07-07 12:53:32			0	35686	0	0	0	26961	25490	152844	27098	1033151	43579	109995	0	0	8140	643540	0	0
2024-07-07 12:54:32			0	35672	0	0	0	26958	25490	152856	27100	1033151	43600	109994	0	0	8139	644146	0	0
2024-07-07 12:55:32			0	35666	0	0	0	26974	25520	152872	26991	1033248	43603	110000	0	0	8139	644296	0	0
2024-07-07 12:56:32			0	35661	0	0	0	26948	25520	152740	27133	1033257	43592	109990	0	0	8139	644513	0	0
2024-07-07 12:57:32			0	35676	0	0	0	26896	25520	152804	27222	1033088	43581	109970	0	0	8141	643863	0	0
2024-07-07 12:58:32			0	35675	0	0	0	26870	25510	152756	27137	1033052	43569	109960	0	0	8141	643943	0	0
2024-07-07 12:59:32			0	35697	0	0	0	26872	25490	152684	27263	1033017	43579	109961	0	0	8142	643064	0	0
2024-07-07 13:00:32			0	35689	0	0	0	26875	25490	152764	27275	1032964	43556	109962	0	0	8142	643410	0	0
2024-07-07 13:01:32			0	35704	0	0	0	26883	25490	152800	27334	1032964	43567	109965	0	0	8142	642762	0	0
2024-07-07 13:02:32			0	35698	0	0	0	26922	25480	152712	27137	1033009	43578	109980	0	0	8141	643057	0	0
2024-07-07 13:03:32			0	35727	0	0	0	26927	25480	152768	27417	1033062	43578	109982	0	0	8143	641804	0	0
2024-07-07 13:04:32			0	35704	0	0	0	26924	25500	152756	27123	1033080	43580	109981	0	0	8142	642725	0	0
2024-07-07 13:05:32			0	35703	0	0	0	26909	25500	152752	27034	1033061	43580	109975	0	0	8142	642768	0	0
2024-07-07 13:06:32			0	35690	0	0	0	26898	25500	152836	27433	1033080	43590	109971	0	0	8141	643330	0	0
2024-07-07 13:07:32			0	35683	0	0	0	26906	25500	152720	27124	1033053	43580	109974	0	0	8141	643633	0	0
2024-07-07 13:08:32			0	35682	0	0	0	26896	25500	152796	27317	1033053	43568	109970	0	0	8141	643677	0	0
2024-07-07 13:09:32			0	35702	0	0	0	26906	25500	152764	27301	1033026	43580	109974	0	0	8142	642811	0	0
2024-07-07 13:10:32			0	35702	0	0	0	26919	25480	152708	27400	1033009	43578	109979	0	0	8142	642884	0	0
2024-07-07 13:11:32			0	35709	0	0	0	26911	25500	152804	27298	1033061	43580	109976	0	0	8142	642509	0	0
2024-07-07 13:12:32			0	35707	0	0	0	26906	25510	152728	27360	1033151	43590	109974	0	0	8142	642559	0	0
2024-07-07 13:13:32			0	35704	0	0	0	26916	25500	152696	27379	1033080	43580	109978	0	0	8142	642725	0	0
2024-07-07 13:14:32			0	35715	0	0	0	26927	25510	152676	27048	1033079	43580	109982	0	0	8142	642213	0	0
2024-07-07 13:15:32			0	35732	0	0	0	26953	25500	152776	27512	1033196	43580	109992	0	0	8143	641515	0	0
2024-07-07 13:16:32			0	35743	0	0	0	26932	25520	152588	27372	1033168	43603	109984	0	0	8144	640967	0	0
2024-07-07 13:17:32			0	35748	0	0	0	26911	25520	152532	27483	1033141	43592	109976	0	0	8144	640751	0	0
2024-07-07 13:18:32			0	35756	0	0	0	26906	25510	152488	27275	1033151	43568	109974	0	0	8145	640443	0	0
2024-07-07 13:19:32			0	35746	0	0	0	26901	25520	152500	27474	1033088	43581	109972	0	0	8144	640838	0	0
2024-07-07 13:20:32			0	35769	0	0	0	26901	25510	152460	27265	1033070	43580	109972	0	0	8146	639882	0	0
2024-07-07 13:21:32			0	35775	0	0	0	26924	25500	152404	27326	1033088	43580	109981	0	0	8145	639660	0	0
2024-07-07 13:22:32			0	35789	0	0	0	26948	25520	152348	27402	1033168	43592	109990	0	0	8146	638984	0	0
2024-07-07 13:23:32			0	35807	0	0	0	26945	25510	152252	26894	1033240	43591	109989	0	0	8147	638246	0	0
2024-07-07 13:24:32			0	35816	0	0	0	26916	25520	152328	27086	1033204	43592	109978	0	0	8148	637822	0	0
2024-07-07 13:25:32			0	35841	0	0	0	26924	25510	152164	27095	1033186	43591	109981	0	0	8149	636784	0	0
2024-07-07 13:26:32			0	35844	0	0	0	26940	25510	152080	27256	1033186	43591	109987	0	0	8149	636655	0	0
2024-07-07 13:27:32			0	35842	0	0	0	26942	25520	152132	27159	1033204	43592	109988	0	0	8149	636705	0	0
2024-07-07 13:28:32			0	35827	0	0	0	26968	25530	152116	27081	1033275	43593	109998	0	0	8148	637313	0	0
2024-07-07 13:29:32			0	35841	0	0	0	26984	25530	152136	27234	1033382	43593	110004	0	0	8148	636712	0	0
2024-07-07 13:30:32			0	35814	0	0	0	27049	25540	152348	27324	1033480	43583	110029	0	0	8146	637836	0	0
2024-07-07 13:31:32			0	35805	0	0	0	27057	25550	152352	27367	1033524	43606	110032	0	0	8145	638187	0	0
2024-07-07 13:32:32			0	35787	0	0	0	27002	25570	152376	27112	1033497	43596	110011	0	0	8145	638889	0	0
2024-07-07 13:33:32			0	35781	0	0	0	26974	25560	152408	27237	1033461	43596	110000	0	0	8145	639183	0	0
2024-07-07 13:34:32			0	35802	0	0	0	26999	25560	152180	26967	1033479	43596	110010	0	0	8146	638280	0	0
2024-07-07 13:35:32			0	35814	0	0	0	26986	25580	152156	27301	1033541	43597	110005	0	0	8147	637691	0	0
2024-07-07 13:36:32			0	35823	0	0	0	27025	25580	152104	27348	1033595	43597	110020	0	0	8147	637304	0	0
2024-07-07 13:37:32			0	35842	0	0	0	27070	25590	152180	27381	1033773	43621	110037	0	0	8147	636452	0	0
2024-07-07 13:38:32			0	35844	0	0	0	27018	25590	152140	27123	1033648	43598	110017	0	0	8148	636366	0	0
2024-07-07 13:39:32			0	35827	0	0	0	27129	25610	152148	27036	1033808	43624	110060	0	0	8145	637023	0	0
2024-07-07 13:40:32			0	35831	0	0	0	27127	25620	152244	27038	1033986	43613	110059	0	0	8146	636815	0	0
2024-07-07 13:41:32			0	35833	0	0	0	27098	25630	152148	26972	1033932	43603	110048	0	0	8146	636693	0	0
2024-07-07 13:42:32			0	35861	0	0	0	27002	25640	151893	27220	1033761	43582	110011	0	0	8149	635456	0	0
2024-07-07 13:43:32			0	35898	0	0	0	26968	25630	151849	27294	1033690	43581	109998	0	0	8152	633907	0	0
2024-07-07 13:44:32			0	35927	0	0	0	26981	25620	151729	26953	1033619	43580	110003	0	0	8153	632702	0	0
2024-07-07 13:45:32			0	35947	0	0	0	26974	25610	151529	27222	1033548	43579	110000	0	0	8154	631884	0	0
2024-07-07 13:46:32			0	35981	0	0	0	26981	25610	151481	27114	1033513	43590	110003	0	0	8156	630433	0	0
2024-07-07 13:47:32			0	35977	0	0	0	26989	25600	151449	27097	1033558	43589	110006	0	0	8156	630639	0	0
2024-07-07 13:48:32			0	36017	0	0	0	27015	25600	151429	26937	1033603	43578	110016	0	0	8157	628935	0	0
2024-07-07 13:49:32			0	35986	0	0	0	27028	25610	151441	27034	1033629	43601	110021	0	0	8155	630219	0	0
2024-07-07 13:50:32			0	35989	0	0	0	26997	25620	151421	27460	1033691	43601	110009	0	0	8156	630056	0	0
2024-07-07 13:51:32			0	35977	0	0	0	26994	25610	151537	27228	1033656	43601	110008	0	0	8155	630603	0	0
2024-07-07 13:52:32			0	35964	0	0	0	27028	25610	151497	27455	1033656	43601	110021	0	0	8154	631158	0	0
2024-07-07 13:53:32			0	35973	0	0	0	27015	25610	151613	27234	1033682	43613	110016	0	0	8155	630774	0	0
2024-07-07 13:54:32			0	35962	0	0	0	26992	25620	151625	27206	1033637	43590	110007	0	0	8155	631207	0	0
2024-07-07 13:55:32			0	35989	0	0	0	26986	25610	151457	27183	1033656	43601	110005	0	0	8156	630092	0	0
2024-07-07 13:56:32			0	35982	0	0	0	26976	25610	151569	27355	1033575	43590	110001	0	0	8156	630390	0	0
2024-07-07 13:57:32			0	35995	0	0	0	27023	25610	151425	27007	1033656	43590	110019	0	0	8156	629836	0	0
2024-07-07 13:58:32			0	36003	0	0	0	27041	25610	151465	27078	1033674	43601	110026	0	0	8156	629495	0	0
2024-07-07 13:59:32			0	35981	0	0	0	27090	25630	151465	27062	1033816	43614	110045	0	0	8154	630361	0	0
2024-07-07 14:00:32			0	35943	0	0	0	27155	25630	151653	26975	1033869	43614	110070	0	0	8151	631982	0	0
2024-07-07 14:01:32			0	35940	0	0	0	27158	25650	151681	26904	1034047	43627	110071	0	0	8151	632039	0	0
2024-07-07 14:02:32			0	35932	0	0	0	27129	25660	151889	27138	1034011	43617	110060	0	0	8151	632345	0	0
2024-07-07 14:03:32			0	35951	0	0	0	27122	25670	151765	27092	1034046	43618	110057	0	0	8152	631497	0	0
2024-07-07 14:04:32			0	35958	0	0	0	27064	25670	151645	26878	1033912	43607	110035	0	0	8154	631198	0	0
2024-07-07 14:05:32			0	35971	0	0	0	27080	25670	151589	26762	1033966	43584	110041	0	0	8154	630644	0	0
2024-07-07 14:06:32			0	35984	0	0	0	27064	25660	151505	27133	1033904	43606	110035	0	0	8155	630125	0	0
2024-07-07 14:07:32			0	36015	0	0	0	27054	25650	151533	27170	1033851	43594	110031	0	0	8157	628841	0	0
2024-07-07 14:08:32			0	36014	0	0	0	27051	25660	151329	27213	1033975	43583	110030	0	0	8157	628848	0	0
2024-07-07 14:09:32			0	36024	0	0	0	27049	25660	151413	27267	1033814	43583	110029	0	0	8157	628422	0	0
2024-07-07 14:10:32			0	36051	0	0	0	27046	25650	151257	27111	1033913	43605	110028	0	0	8159	627310	0	0
2024-07-07 14:11:32			0	36045	0	0	0	27106	25660	151197	27267	1033948	43605	110051	0	0	8157	627530	0	0
2024-07-07 14:12:32			0	36027	0	0	0	27057	25660	151153	27275	1033984	43595	110032	0	0	8157	628295	0	0
2024-07-07 14:13:32			0	36019	0	0	0	27072	25670	151201	27176	1033939	43607	110038	0	0	8157	628599	0	0
2024-07-07 14:14:32			0	36032	0	0	0	27062	25660	151293	27182	1033877	43595	110034	0	0	8157	628082	0	0
2024-07-07 14:15:32			0	36037	0	0	0	27041	25660	151261	26896	1033895	43594	110026	0	0	8158	627870	0	0
2024-07-07 14:16:32			0	36034	0	0	0	27033	25650	151269	26982	1033833	43583	110023	0	0	8158	628033	0	0
2024-07-07 14:17:32			0	36064	0	0	0	27020	25650	151173	27234	1033877	43594	110018	0	0	8160	626758	0	0
2024-07-07 14:18:32			0	36056	0	0	0	27041	25640	151069	26955	1033788	43582	110026	0	0	8159	627134	0	0
2024-07-07 14:19:32			0	36064	0	0	0	27067	25640	151157	27410	1033869	43593	110036	0	0	8159	626794	0	0
2024-07-07 14:20:32			0	36040	0	0	0	27085	25650	151285	26948	1033940	43605	110043	0	0	8157	627778	0	0
2024-07-07 14:21:32			0	36020	0	0	0	27119	25660	151445	27232	1034029	43605	110056	0	0	8156	628592	0	0
2024-07-07 14:22:32			0	35996	0	0	0	27116	25680	151525	27060	1034073	43619	110055	0	0	8155	629543	0	0
2024-07-07 14:23:32			0	35998	0	0	0	27135	25670	151389	27192	1034055	43618	110062	0	0	8154	629493	0	0
2024-07-07 14:24:32			0	35995	0	0	0	27132	25690	151437	27130	1034055	43597	110061	0	0	8154	629549	0	0
2024-07-07 14:25:32			0	35981	0	0	0	27103	25690	151489	27244	1034109	43609	110050	0	0	8154	630146	0	0
2024-07-07 14:26:32			0	35980	0	0	0	27166	25690	151433	27260	1034037	43598	110074	0	0	8153	630188	0	0
2024-07-07 14:27:32			0	35987	0	0	0	27129	25680	151465	27313	1034145	43619	110060	0	0	8154	629926	0	0
2024-07-07 14:28:32			0	35985	0	0	0	27168	25710	151453	27526	1034251	43632	110075	0	0	8153	629904	0	0
2024-07-07 14:29:32			0	35987	0	0	0	27077	25720	151397	27036	1034241	43623	110040	0	0	8155	629783	0	0
2024-07-07 14:30:32			0	35995	0	0	0	27093	25710	151389	27215	1034144	43599	110046	0	0	8155	629478	0	0
2024-07-07 14:31:32			0	35983	0	0	0	27106	25710	151321	27213	1034144	43611	110051	0	0	8154	629989	0	0
2024-07-07 14:32:32			0	36011	0	0	0	27096	25710	151353	27208	1034117	43599	110047	0	0	8156	628796	0	0
2024-07-07 14:33:32			0	36000	0	0	0	27129	25710	151377	27171	1034197	43611	110060	0	0	8155	629265	0	0
2024-07-07 14:34:32			0	36010	0	0	0	27145	25710	151221	27173	1034206	43600	110066	0	0	8155	628839	0	0
2024-07-07 14:35:32			0	36014	0	0	0	27148	25720	151229	27327	1034277	43612	110067	0	0	8155	628633	0	0
2024-07-07 14:36:32			0	36043	0	0	0	27158	25720	151169	27034	1034277	43612	110071	0	0	8157	627400	0	0
2024-07-07 14:37:32			0	36031	0	0	0	27194	25730	151157	27232	1034339	43624	110085	0	0	8155	627874	0	0
2024-07-07 14:38:32			0	36026	0	0	0	27262	25730	151341	27203	1034455	43646	110111	0	0	8154	628087	0	0
2024-07-07 14:39:32			0	35996	0	0	0	27202	25750	151329	27128	1034437	43637	110088	0	0	8154	629292	0	0
2024-07-07 14:40:32			0	35996	0	0	0	27168	25760	151273	27157	1034454	43616	110075	0	0	8154	629256	0	0
2024-07-07 14:41:32			0	35991	0	0	0	27137	25770	151369	27111	1034409	43627	110063	0	0	8155	629433	0	0
2024-07-07 14:42:32			0	36006	0	0	0	27137	25750	151289	27060	1034374	43603	110063	0	0	8155	628866	0	0
2024-07-07 14:43:32			0	36016	0	0	0	27155	25750	151193	26901	1034374	43603	110070	0	0	8155	628441	0	0
2024-07-07 14:44:32			0	36023	0	0	0	27166	25750	151189	27223	1034356	43615	110074	0	0	8156	628143	0	0
2024-07-07 14:45:32			0	36002	0	0	0	27163	25760	151245	27201	1034365	43615	110073	0	0	8155	629001	0	0
2024-07-07 14:46:32			0	36019	0	0	0	27168	25750	151161	27222	1034347	43614	110075	0	0	8155	628313	0	0
2024-07-07 14:47:32			0	36005	0	0	0	27171	25750	151305	26880	1034463	43615	110076	0	0	8155	628909	0	0
2024-07-07 14:48:32			0	36013	0	0	0	27166	25750	151249	27111	1034383	43604	110074	0	0	8155	628568	0	0
2024-07-07 14:49:32			0	35983	0	0	0	27207	25760	151345	26894	1034400	43616	110090	0	0	8153	629809	0	0
2024-07-07 14:50:32			0	35968	0	0	0	27181	25760	151269	27057	1034418	43615	110080	0	0	8152	630449	0	0
2024-07-07 14:51:32			0	35982	0	0	0	27161	25760	151289	27168	1034400	43616	110072	0	0	8154	629852	0	0
2024-07-07 14:52:32			0	35972	0	0	0	27174	25760	151353	27147	1034400	43605	110077	0	0	8153	630278	0	0
2024-07-07 14:53:32			0	35997	0	0	0	27163	25760	151317	27114	1034365	43615	110073	0	0	8154	629213	0	0
2024-07-07 14:54:32			0	35973	0	0	0	27168	25770	151329	26991	1034409	43605	110075	0	0	8153	630200	0	0
2024-07-07 14:55:32			0	35971	0	0	0	27161	25760	151357	26778	1034427	43616	110072	0	0	8153	630321	0	0
2024-07-07 14:56:32			0	35959	0	0	0	27140	25760	151361	27315	1034347	43627	110064	0	0	8153	630832	0	0
2024-07-07 14:57:32			0	35963	0	0	0	27137	25760	151357	27131	1034374	43594	110063	0	0	8153	630662	0	0
2024-07-07 14:58:32			0	35982	0	0	0	27181	25760	151377	27154	1034374	43594	110080	0	0	8153	629852	0	0
2024-07-07 14:59:32			0	35975	0	0	0	27161	25750	151369	27293	1034401	43614	110072	0	0	8153	630186	0	0
2024-07-07 15:00:32			0	35957	0	0	0	27150	25760	151365	26901	1034454	43605	110068	0	0	8152	630918	0	0
2024-07-07 15:01:32			0	35974	0	0	0	27140	25760	151441	27005	1034400	43605	110064	0	0	8154	630193	0	0
2024-07-07 15:02:32			0	35979	0	0	0	27135	25750	151369	27403	1034356	43615	110062	0	0	8154	630016	0	0
2024-07-07 15:03:32			0	35983	0	0	0	27150	25760	151309	27211	1034374	43616	110068	0	0	8154	629809	0	0
2024-07-07 15:04:32			0	35998	0	0	0	27194	25760	151277	27206	1034472	43615	110085	0	0	8154	629171	0	0
2024-07-07 15:05:32			0	35971	0	0	0	27163	25750	151389	27270	1034455	43603	110073	0	0	8153	630357	0	0
2024-07-07 15:06:32			0	35971	0	0	0	27179	25760	151425	27150	1034374	43605	110079	0	0	8153	630321	0	0
2024-07-07 15:07:32			0	35955	0	0	0	27142	25770	151469	27395	1034409	43616	110065	0	0	8153	630967	0	0
2024-07-07 15:08:32			0	35947	0	0	0	27150	25760	151501	27020	1034418	43615	110068	0	0	8152	631344	0	0
2024-07-07 15:09:32			0	35943	0	0	0	27181	25750	151541	27085	1034437	43615	110080	0	0	8151	631551	0	0
2024-07-07 15:10:32			0	35945	0	0	0	27168	25760	151457	27358	1034427	43627	110075	0	0	8152	631430	0	0
2024-07-07 15:11:32			0	35936	0	0	0	27153	25760	151553	27403	1034508	43605	110069	0	0	8151	631814	0	0
2024-07-07 15:12:32			0	35948	0	0	0	27155	25770	151545	26998	1034436	43616	110070	0	0	8152	631266	0	0
2024-07-07 15:13:32			0	35949	0	0	0	27174	25760	151521	27201	1034418	43604	110077	0	0	8152	631259	0	0
2024-07-07 15:14:32			0	35935	0	0	0	27176	25780	151441	27116	1034471	43606	110078	0	0	8151	631784	0	0
2024-07-07 15:15:32			0	35934	0	0	0	27166	25770	151605	27203	1034516	43616	110074	0	0	8151	631863	0	0
2024-07-07 15:16:32			0	35916	0	0	0	27171	25760	151541	27355	1034392	43604	110076	0	0	8150	632668	0	0
2024-07-07 15:17:32			0	35911	0	0	0	27137	25780	151521	27201	1034525	43617	110063	0	0	8150	632810	0	0
2024-07-07 15:18:32			0	35950	0	0	0	27140	25760	151537	27609	1034427	43594	110064	0	0	8152	631216	0	0
2024-07-07 15:19:32			0	35949	0	0	0	27166	25760	151537	27086	1034427	43616	110074	0	0	8152	631259	0	0
2024-07-07 15:20:32			0	35964	0	0	0	27109	25760	151437	27223	1034400	43627	110052	0	0	8154	630619	0	0
2024-07-07 15:21:32			0	35966	0	0	0	27093	25760	151245	27277	1034400	43605	110046	0	0	8154	630534	0	0
2024-07-07 15:22:32			0	35983	0	0	0	27106	25740	151261	27301	1034312	43603	110051	0	0	8154	629881	0	0
2024-07-07 15:23:32			0	35992	0	0	0	27116	25750	151369	27372	1034294	43592	110055	0	0	8155	629462	0	0
2024-07-07 15:24:32			0	35968	0	0	0	27111	25750	151453	27324	1034321	43592	110053	0	0	8154	630485	0	0
2024-07-07 15:25:32			0	35960	0	0	0	27122	25740	151481	27410	1034250	43613	110057	0	0	8153	630862	0	0
2024-07-07 15:26:32			0	35936	0	0	0	27129	25730	151437	27677	1034268	43613	110060	0	0	8152	631922	0	0
2024-07-07 15:27:32			0	35926	0	0	0	27129	25730	151513	27300	1034294	43613	110060	0	0	8151	632349	0	0
2024-07-07 15:28:32			0	35944	0	0	0	27116	25730	151533	27478	1034348	43591	110055	0	0	8152	631580	0	0
2024-07-07 15:29:32			0	35912	0	0	0	27109	25740	151601	27326	1034285	43603	110052	0	0	8151	632911	0	0
2024-07-07 15:30:32			0	35937	0	0	0	27116	25740	151509	27284	1034250	43613	110055	0	0	8152	631843	0	0
2024-07-07 15:31:32			0	35941	0	0	0	27122	25730	151565	27395	1034232	43601	110057	0	0	8152	631708	0	0
2024-07-07 15:32:32			0	35933	0	0	0	27111	25730	151641	27509	1034214	43602	110053	0	0	8152	632050	0	0
2024-07-07 15:33:32			0	35944	0	0	0	27098	25720	151573	27478	1034188	43600	110048	0	0	8152	631616	0	0
2024-07-07 15:34:32			0	35962	0	0	0	27085	25720	151445	27171	1034197	43600	110043	0	0	8154	630848	0	0
2024-07-07 15:35:32			0	35970	0	0	0	27101	25730	151497	27602	1034178	43601	110049	0	0	8154	630471	0	0
2024-07-07 15:36:32			0	35963	0	0	0	27111	25720	151457	26998	1034161	43589	110053	0	0	8153	630805	0	0
2024-07-07 15:37:32			0	35968	0	0	0	27127	25720	151505	27272	1034188	43600	110059	0	0	8153	630592	0	0
2024-07-07 15:38:32			0	35974	0	0	0	27148	25720	151557	27079	1034241	43600	110067	0	0	8153	630336	0	0
2024-07-07 15:39:32			0	35959	0	0	0	27179	25720	151541	27455	1034331	43612	110079	0	0	8152	630976	0	0
2024-07-07 15:40:32			0	35953	0	0	0	27168	25730	151601	27313	1034339	43624	110075	0	0	8152	631196	0	0
2024-07-07 15:41:32			0	35950	0	0	0	27161	25730	151461	27123	1034348	43613	110072	0	0	8152	631324	0	0
2024-07-07 15:42:32			0	35988	0	0	0	27127	25730	151381	26991	1034321	43625	110059	0	0	8154	629704	0	0
2024-07-07 15:43:32			0	35989	0	0	0	27111	25730	151477	27258	1034294	43613	110053	0	0	8155	629662	0	0
2024-07-07 15:44:32			0	35984	0	0	0	27101	25730	151429	27232	1034241	43613	110049	0	0	8155	629874	0	0
2024-07-07 15:45:32			0	35991	0	0	0	27109	25720	151389	27339	1034197	43600	110052	0	0	8155	629612	0	0
2024-07-07 15:46:32			0	35982	0	0	0	27111	25720	151345	27429	1034197	43600	110053	0	0	8154	629996	0	0
2024-07-07 15:47:32			0	35990	0	0	0	27124	25710	151301	27395	1034206	43612	110058	0	0	8154	629691	0	0
2024-07-07 15:48:32			0	36001	0	0	0	27109	25720	151425	27182	1034223	43600	110052	0	0	8155	629186	0	0
2024-07-07 15:49:32			0	35978	0	0	0	27098	25730	151429	27267	1034152	43601	110048	0	0	8154	630130	0	0
2024-07-07 15:50:32			0	35972	0	0	0	27088	25710	151465	27398	1034125	43612	110044	0	0	8154	630458	0	0
2024-07-07 15:51:32			0	35973	0	0	0	27098	25720	151449	27130	1034134	43600	110048	0	0	8154	630379	0	0
2024-07-07 15:52:32			0	35958	0	0	0	27098	25720	151417	27034	1034161	43589	110048	0	0	8153	631019	0	0
2024-07-07 15:53:32			0	35970	0	0	0	27124	25710	151485	27163	1034170	43588	110058	0	0	8153	630543	0	0
2024-07-07 15:54:32			0	35969	0	0	0	27137	25710	151549	27088	1034197	43611	110063	0	0	8153	630585	0	0
2024-07-07 15:55:32			0	35973	0	0	0	27135	25710	151621	27008	1034206	43623	110062	0	0	8153	630415	0	0
2024-07-07 15:56:32			0	35953	0	0	0	27116	25710	151565	27000	1034260	43623	110055	0	0	8153	631268	0	0
2024-07-07 15:57:32			0	35963	0	0	0	27119	25720	151701	27069	1034241	43612	110056	0	0	8153	630805	0	0
2024-07-07 15:58:32			0	35975	0	0	0	27127	25710	151701	26878	1034260	43612	110059	0	0	8154	630330	0	0
2024-07-07 15:59:32			0	35978	0	0	0	27114	25710	151673	27424	1034251	43611	110054	0	0	8154	630202	0	0
2024-07-07 16:00:32			0	35956	0	0	0	27101	25720	151629	27131	1034304	43612	110049	0	0	8153	631104	0	0
2024-07-07 16:01:32			0	35948	0	0	0	27124	25720	151673	27166	1034268	43612	110058	0	0	8152	631445	0	0
2024-07-07 16:02:32			0	35963	0	0	0	27168	25720	151541	27393	1034322	43612	110075	0	0	8152	630805	0	0
2024-07-07 16:03:32			0	35965	0	0	0	27181	25730	151697	27261	1034313	43613	110080	0	0	8152	630684	0	0
2024-07-07 16:04:32			0	35969	0	0	0	27163	25730	151649	27282	1034375	43625	110073	0	0	8153	630514	0	0
2024-07-07 16:05:32			0	35969	0	0	0	27158	25740	151609	27045	1034357	43613	110071	0	0	8153	630478	0	0
2024-07-07 16:06:32			0	35998	0	0	0	27153	25740	151517	27261	1034365	43603	110069	0	0	8154	629242	0	0
2024-07-07 16:07:32			0	35994	0	0	0	27184	25740	151481	27578	1034384	43625	110081	0	0	8154	629413	0	0
2024-07-07 16:08:32			0	36018	0	0	0	27158	25740	151481	27046	1034365	43614	110071	0	0	8155	628391	0	0
2024-07-07 16:09:32			0	36012	0	0	0	27158	25740	151437	27131	1034330	43625	110071	0	0	8155	628647	0	0
2024-07-07 16:10:32			0	36026	0	0	0	27145	25750	151413	27033	1034383	43626	110066	0	0	8156	628015	0	0
2024-07-07 16:11:32			0	36050	0	0	0	27140	25750	151305	27232	1034374	43603	110064	0	0	8157	626996	0	0
2024-07-07 16:12:32			0	36045	0	0	0	27145	25750	151273	27078	1034374	43614	110066	0	0	8157	627208	0	0
2024-07-07 16:13:32			0	36053	0	0	0	27145	25750	151209	27301	1034383	43626	110066	0	0	8158	626868	0	0
2024-07-07 16:14:32			0	36069	0	0	0	27161	25750	151189	27275	1034428	43614	110072	0	0	8158	626189	0	0
2024-07-07 16:15:32			0	36074	0	0	0	27153	25750	151177	27333	1034428	43636	110069	0	0	8159	625977	0	0
2024-07-07 16:16:32			0	36086	0	0	0	27148	25760	151121	27100	1034392	43604	110067	0	0	8159	625433	0	0
2024-07-07 16:17:32			0	36099	0	0	0	27142	25760	151021	27130	1034427	43627	110065	0	0	8160	624882	0	0
2024-07-07 16:18:32			0	36109	0	0	0	27155	25750	151101	27118	1034383	43604	110070	0	0	8160	624494	0	0
2024-07-07 16:19:32			0	36102	0	0	0	27163	25750	151081	26949	1034437	43615	110073	0	0	8160	624790	0	0
2024-07-07 16:20:32			0	36128	0	0	0	27205	25750	150973	27274	1034437	43615	110089	0	0	8161	623690	0	0
2024-07-07 16:21:32			0	36095	0	0	0	27212	25760	151053	27235	1034534	43605	110092	0	0	8159	625051	0	0
2024-07-07 16:22:32			0	36114	0	0	0	27197	25760	151001	27072	1034561	43627	110086	0	0	8160	624247	0	0
2024-07-07 16:23:32			0	36131	0	0	0	27181	25770	151037	27222	1034490	43616	110080	0	0	8161	623492	0	0
2024-07-07 16:24:32			0	36114	0	0	0	27163	25780	151021	27350	1034445	43606	110073	0	0	8161	624176	0	0
2024-07-07 16:25:32			0	36131	0	0	0	27145	25770	151009	27111	1034409	43605	110066	0	0	8162	623492	0	0
2024-07-07 16:26:32			0	36129	0	0	0	27132	25770	150901	27209	1034382	43605	110061	0	0	8162	623576	0	0
2024-07-07 16:27:32			0	36128	0	0	0	27155	25750	150945	27204	1034437	43604	110070	0	0	8161	623690	0	0
2024-07-07 16:28:32			0	36143	0	0	0	27137	25750	150953	27220	1034410	43604	110063	0	0	8162	623055	0	0
2024-07-07 16:29:32			0	36128	0	0	0	27150	25750	150885	27348	1034329	43604	110068	0	0	8161	623690	0	0
2024-07-07 16:30:32			0	36153	0	0	0	27166	25750	150953	27291	1034383	43593	110074	0	0	8162	622633	0	0
2024-07-07 16:31:32			0	36135	0	0	0	27176	25750	150981	27332	1034437	43604	110078	0	0	8161	623394	0	0
2024-07-07 16:32:32			0	36158	0	0	0	27189	25760	150881	27376	1034508	43627	110083	0	0	8162	622386	0	0
2024-07-07 16:33:32			0	36169	0	0	0	27189	25750	150897	26991	1034517	43637	110083	0	0	8163	621957	0	0
2024-07-07 16:34:32			0	36193	0	0	0	27192	25760	150841	27083	1034472	43615	110084	0	0	8164	620909	0	0
2024-07-07 16:35:32			0	36193	0	0	0	27189	25770	150713	27187	1034543	43616	110083	0	0	8164	620873	0	0
2024-07-07 16:36:32			0	36181	0	0	0	27192	25770	150653	27263	1034570	43616	110084	0	0	8164	621380	0	0
2024-07-07 16:37:32			0	36208	0	0	0	27186	25780	150637	27270	1034614	43618	110082	0	0	8165	620206	0	0
2024-07-07 16:38:32			0	36196	0	0	0	27189	25780	150673	27414	1034561	43618	110083	0	0	8164	620712	0	0
2024-07-07 16:39:32			0	36206	0	0	0	27197	25780	150589	27492	1034579	43606	110086	0	0	8165	620290	0	0
2024-07-07 16:40:32			0	36222	0	0	0	27189	25790	150649	27074	1034543	43640	110083	0	0	8166	619581	0	0
2024-07-07 16:41:32			0	36221	0	0	0	27176	25780	150621	27390	1034534	43629	110078	0	0	8166	619658	0	0
2024-07-07 16:42:32			0	36218	0	0	0	27181	25790	150633	27203	1034543	43629	110080	0	0	8166	619749	0	0
2024-07-07 16:43:32			0	36218	0	0	0	27194	25780	150673	27277	1034534	43618	110085	0	0	8166	619785	0	0
2024-07-07 16:44:32			0	36219	0	0	0	27192	25790	150661	27374	1034578	43607	110084	0	0	8166	619707	0	0
2024-07-07 16:45:32			0	36231	0	0	0	27186	25790	150577	27346	1034551	43618	110082	0	0	8166	619202	0	0
2024-07-07 16:46:32			0	36225	0	0	0	27207	25790	150605	27455	1034632	43629	110090	0	0	8166	619455	0	0
2024-07-07 16:47:32			0	36218	0	0	0	27212	25780	150609	27336	1034641	43629	110092	0	0	8165	619785	0	0
2024-07-07 16:48:32			0	36234	0	0	0	27220	25800	150585	27511	1034596	43620	110095	0	0	8166	619040	0	0
2024-07-07 16:49:32			0	36235	0	0	0	27218	25790	150589	27524	1034632	43618	110094	0	0	8166	619034	0	0
2024-07-07 16:50:32			0	36245	0	0	0	27220	25800	150625	27232	1034640	43629	110095	0	0	8167	618578	0	0
2024-07-07 16:51:32			0	36243	0	0	0	27220	25800	150641	27282	1034640	43608	110095	0	0	8167	618662	0	0
2024-07-07 16:52:32			0	36262	0	0	0	27212	25800	150581	27275	1034667	43619	110092	0	0	8168	617863	0	0
2024-07-07 16:53:32			0	36258	0	0	0	27223	25800	150597	26974	1034640	43619	110096	0	0	8167	618031	0	0
2024-07-07 16:54:32			0	36242	0	0	0	27215	25810	150581	26996	1034685	43630	110093	0	0	8167	618669	0	0
2024-07-07 16:55:32			0	36253	0	0	0	27225	25800	150565	27085	1034703	43630	110097	0	0	8167	618241	0	0
2024-07-07 16:56:32			0	36251	0	0	0	27233	25810	150537	27261	1034685	43630	110100	0	0	8167	618290	0	0
2024-07-07 16:57:32			0	36272	0	0	0	27231	25820	150585	27343	1034729	43631	110099	0	0	8168	617372	0	0
2024-07-07 16:58:32			0	36270	0	0	0	27223	25820	150469	27227	1034729	43631	110096	0	0	8168	617456	0	0
2024-07-07 16:59:32			0	36269	0	0	0	27220	25810	150529	27353	1034739	43609	110095	0	0	8168	617534	0	0
2024-07-07 17:00:32			0	36266	0	0	0	27228	25820	150465	27010	1034783	43631	110098	0	0	8168	617625	0	0
2024-07-07 17:01:32			0	36260	0	0	0	27223	25820	150521	27159	1034765	43622	110096	0	0	8167	617877	0	0
2024-07-07 17:02:32			0	36276	0	0	0	27225	25810	150501	26941	1034720	43631	110097	0	0	8168	617240	0	0
2024-07-07 17:03:32			0	36278	0	0	0	27225	25820	150389	27163	1034729	43621	110097	0	0	8168	617120	0	0
2024-07-07 17:04:32			0	36276	0	0	0	27238	25820	150373	27164	1034729	43631	110102	0	0	8168	617204	0	0
2024-07-07 17:05:32			0	36299	0	0	0	27238	25820	150337	27090	1034765	43632	110102	0	0	8169	616239	0	0
2024-07-07 17:06:32			0	36311	0	0	0	27249	25820	150321	26994	1034792	43622	110106	0	0	8170	615736	0	0
2024-07-07 17:07:32			0	36326	0	0	0	27241	25820	150241	27039	1034756	43631	110103	0	0	8171	615107	0	0
2024-07-07 17:08:32			0	36310	0	0	0	27236	25830	150305	27093	1034827	43632	110101	0	0	8170	615743	0	0
2024-07-07 17:09:32			0	36334	0	0	0	27238	25810	150357	26953	1034774	43631	110102	0	0	8171	614807	0	0
2024-07-07 17:10:32			0	36327	0	0	0	27246	25830	150213	27213	1034827	43632	110105	0	0	8171	615031	0	0
2024-07-07 17:11:32			0	36326	0	0	0	27244	25830	150213	27189	1034755	43645	110104	0	0	8171	615072	0	0
2024-07-07 17:12:32			0	36326	0	0	0	27251	25830	150165	26974	1034800	43622	110107	0	0	8170	615072	0	0
2024-07-07 17:13:32			0	36330	0	0	0	27249	25820	150169	27511	1034818	43622	110106	0	0	8171	614940	0	0
2024-07-07 17:14:32			0	36347	0	0	0	27254	25830	150153	27192	1034809	43656	110108	0	0	8172	614193	0	0
2024-07-07 17:15:32			0	36364	0	0	0	27251	25830	150057	27147	1034827	43622	110107	0	0	8172	613482	0	0
2024-07-07 17:16:32			0	36365	0	0	0	27257	25830	150105	27196	1034863	43645	110109	0	0	8172	613440	0	0
2024-07-07 17:17:32			0	36363	0	0	0	27257	25840	150177	26916	1034907	43634	110109	0	0	8172	613489	0	0
2024-07-07 17:18:32			0	36375	0	0	0	27257	25830	150137	26974	1034836	43633	110109	0	0	8173	613022	0	0
2024-07-07 17:19:32			0	36362	0	0	0	27249	25840	150177	27282	1034818	43612	110106	0	0	8172	613531	0	0
2024-07-07 17:20:32			0	36377	0	0	0	27251	25840	150133	27145	1034845	43623	110107	0	0	8173	612904	0	0
2024-07-07 17:21:32			0	36371	0	0	0	27257	25830	150057	27209	1034863	43633	110109	0	0	8173	613189	0	0
2024-07-07 17:22:32			0	36374	0	0	0	27257	25840	149961	27211	1034826	43634	110109	0	0	8173	613029	0	0
2024-07-07 17:23:32			0	36395	0	0	0	27254	25820	150021	27057	1034765	43622	110108	0	0	8174	612222	0	0
2024-07-07 17:24:32			0	36411	0	0	0	27249	25840	149893	27462	1034853	43634	110106	0	0	8175	611484	0	0
2024-07-07 17:25:32			0	36393	0	0	0	27246	25840	149953	27102	1034871	43623	110105	0	0	8174	612235	0	0
2024-07-07 17:26:32			0	36420	0	0	0	27236	25840	149953	27196	1034791	43645	110101	0	0	8176	611109	0	0
2024-07-07 17:27:32			0	36410	0	0	0	27225	25840	149925	26835	1034773	43624	110097	0	0	8175	611526	0	0
2024-07-07 17:28:32			0	36397	0	0	0	27244	25840	149837	26840	1034791	43623	110104	0	0	8174	612068	0	0
2024-07-07 17:29:32			0	36425	0	0	0	27236	25840	149861	27036	1034818	43623	110101	0	0	8176	610900	0	0
2024-07-07 17:30:32			0	36430	0	0	0	27233	25840	149829	27296	1034826	43634	110100	0	0	8176	610692	0	0
2024-07-07 17:31:32			0	36425	0	0	0	27254	25840	149873	26989	1034826	43634	110108	0	0	8176	610900	0	0
2024-07-07 17:32:32			0	36432	0	0	0	27246	25840	149937	27232	1034853	43634	110105	0	0	8176	610609	0	0
2024-07-07 17:33:32			0	36434	0	0	0	27225	25840	149893	27053	1034871	43645	110097	0	0	8177	610525	0	0
2024-07-07 17:34:32			0	36406	0	0	0	27241	25840	149989	27121	1034871	43623	110103	0	0	8175	611693	0	0
2024-07-07 17:35:32			0	36419	0	0	0	27264	25840	149949	26896	1034898	43633	110112	0	0	8175	611150	0	0
2024-07-07 17:36:32			0	36406	0	0	0	27270	25850	149893	26901	1034916	43624	110114	0	0	8174	611658	0	0
2024-07-07 17:37:32			0	36417	0	0	0	27270	25850	149953	27291	1034916	43634	110114	0	0	8175	611199	0	0
2024-07-07 17:38:32			0	36411	0	0	0	27264	25840	149885	26923	1034853	43634	110112	0	0	8175	611484	0	0
2024-07-07 17:39:32			0	36416	0	0	0	27257	25850	149849	27036	1034916	43645	110109	0	0	8175	611241	0	0
2024-07-07 17:40:32			0	36415	0	0	0	27246	25850	149889	27147	1034916	43624	110105	0	0	8175	611283	0	0
2024-07-07 17:41:32			0	36413	0	0	0	27233	25850	149849	27034	1034924	43625	110100	0	0	8175	611366	0	0
2024-07-07 17:42:32			0	36411	0	0	0	27246	25840	149917	26864	1034853	43624	110105	0	0	8175	611484	0	0
2024-07-07 17:43:32			0	36412	0	0	0	27264	25850	149953	27242	1034835	43645	110112	0	0	8175	611408	0	0
2024-07-07 17:44:32			0	36405	0	0	0	27259	25850	150025	26906	1034951	43625	110110	0	0	8175	611700	0	0
2024-07-07 17:45:32			0	36409	0	0	0	27231	25860	149969	27017	1034906	43625	110099	0	0	8175	611498	0	0
2024-07-07 17:46:32			0	36402	0	0	0	27246	25850	150029	27092	1034898	43646	110105	0	0	8175	611825	0	0
2024-07-07 17:47:32			0	36409	0	0	0	27249	25860	149945	27071	1034906	43625	110106	0	0	8175	611498	0	0
2024-07-07 17:48:32			0	36388	0	0	0	27249	25850	149877	27213	1034951	43613	110106	0	0	8174	612409	0	0
2024-07-07 17:49:32			0	36433	0	0	0	27233	25850	149781	27135	1034898	43625	110100	0	0	8177	610532	0	0
2024-07-07 17:50:32			0	36401	0	0	0	27249	25850	149969	27112	1034916	43634	110106	0	0	8175	611867	0	0
2024-07-07 17:51:32			0	36398	0	0	0	27246	25850	149993	27086	1034996	43634	110105	0	0	8174	611992	0	0
2024-07-07 17:52:32			0	36392	0	0	0	27233	25850	149973	27093	1034924	43613	110100	0	0	8174	612242	0	0
2024-07-07 17:53:32			0	36374	0	0	0	27215	25860	149929	26844	1034879	43625	110093	0	0	8174	612959	0	0
2024-07-07 17:54:32			0	36379	0	0	0	27218	25850	150065	26977	1034871	43635	110094	0	0	8174	612785	0	0
2024-07-07 17:55:32			0	36333	0	0	0	27246	25840	150081	27201	1034907	43624	110105	0	0	8171	614744	0	0
2024-07-07 17:56:32			0	36365	0	0	0	27246	25840	150053	26935	1034934	43634	110105	0	0	8173	613405	0	0
2024-07-07 17:57:32			0	36365	0	0	0	27246	25850	150117	27015	1034951	43646	110105	0	0	8173	613370	0	0
2024-07-07 17:58:32			0	36379	0	0	0	27244	25860	150005	26948	1034906	43636	110104	0	0	8174	612750	0	0
2024-07-07 17:59:32			0	36392	0	0	0	27249	25840	149921	26739	1034880	43624	110106	0	0	8174	612277	0	0
2024-07-07 18:00:32			0	36373	0	0	0	27241	25850	150001	27230	1034916	43634	110103	0	0	8173	613036	0	0
2024-07-07 18:01:32			0	36357	0	0	0	27259	25850	150073	27057	1034916	43624	110110	0	0	8172	613705	0	0
2024-07-07 18:02:32			0	36359	0	0	0	27259	25850	150149	27197	1034924	43625	110110	0	0	8172	613621	0	0
2024-07-07 18:03:32			0	36349	0	0	0	27257	25850	150121	27017	1034889	43634	110109	0	0	8172	614040	0	0
2024-07-07 18:04:32			0	36332	0	0	0	27251	25850	150173	27296	1034916	43624	110107	0	0	8171	614751	0	0
2024-07-07 18:05:32			0	36340	0	0	0	27257	25850	150229	27095	1034942	43624	110109	0	0	8171	614416	0	0
2024-07-07 18:06:32			0	36341	0	0	0	27249	25840	150269	27157	1034853	43645	110106	0	0	8171	614409	0	0
2024-07-07 18:07:32			0	36338	0	0	0	27244	25840	150205	27083	1034934	43624	110104	0	0	8171	614535	0	0
2024-07-07 18:08:32			0	36348	0	0	0	27238	25850	150181	27105	1034889	43634	110102	0	0	8172	614081	0	0
2024-07-07 18:09:32			0	36352	0	0	0	27244	25850	150125	27261	1034916	43624	110104	0	0	8172	613914	0	0
2024-07-07 18:10:32			0	36330	0	0	0	27244	25840	150225	27313	1034853	43624	110104	0	0	8171	614870	0	0
2024-07-07 18:11:32			0	36339	0	0	0	27251	25840	150193	27279	1034845	43633	110107	0	0	8171	614493	0	0
2024-07-07 18:12:32			0	36352	0	0	0	27244	25840	150157	27170	1034826	43624	110104	0	0	8172	613949	0	0
2024-07-07 18:13:32			0	36358	0	0	0	27241	25840	150013	27348	1034934	43634	110103	0	0	8172	613698	0	0
2024-07-07 18:14:32			0	36373	0	0	0	27244	25840	150077	27310	1034925	43623	110104	0	0	8173	613071	0	0
2024-07-07 18:15:32			0	36376	0	0	0	27254	25840	150085	27137	1034898	43623	110108	0	0	8173	612946	0	0
2024-07-07 18:16:32			0	36368	0	0	0	27246	25840	150073	27128	1034898	43633	110105	0	0	8173	613280	0	0
2024-07-07 18:17:32			0	36355	0	0	0	27249	25840	150201	27152	1034880	43634	110106	0	0	8172	613824	0	0
2024-07-07 18:18:32			0	36373	0	0	0	27262	25850	150065	27064	1034916	43634	110111	0	0	8173	613036	0	0
2024-07-07 18:19:32			0	36362	0	0	0	27254	25850	150129	27069	1034898	43646	110108	0	0	8172	613496	0	0
2024-07-07 18:20:32			0	36337	0	0	0	27251	25840	150193	27066	1034907	43634	110107	0	0	8171	614577	0	0
2024-07-07 18:21:32			0	36328	0	0	0	27254	25850	150181	27142	1034942	43645	110108	0	0	8171	614919	0	0
2024-07-07 18:22:32			0	36320	0	0	0	27251	25840	150221	27455	1034925	43645	110107	0	0	8170	615289	0	0
2024-07-07 18:23:32			0	36337	0	0	0	27241	25850	150181	27111	1034889	43634	110103	0	0	8171	614542	0	0
2024-07-07 18:24:32			0	36329	0	0	0	27238	25850	150181	27248	1034916	43634	110102	0	0	8171	614877	0	0
2024-07-07 18:25:32			0	36320	0	0	0	27238	25840	150241	27220	1034853	43634	110102	0	0	8170	615289	0	0
2024-07-07 18:26:32			0	36334	0	0	0	27233	25830	150117	27034	1034863	43633	110100	0	0	8171	614737	0	0
2024-07-07 18:27:32			0	36314	0	0	0	27236	25840	150217	27265	1034826	43634	110101	0	0	8170	615540	0	0
2024-07-07 18:28:32			0	36343	0	0	0	27244	25840	150217	27336	1034791	43633	110104	0	0	8172	614326	0	0
2024-07-07 18:29:32			0	36339	0	0	0	27233	25830	150117	26963	1034889	43633	110100	0	0	8171	614528	0	0
2024-07-07 18:30:32			0	36345	0	0	0	27231	25840	150117	27161	1034871	43645	110099	0	0	8172	614242	0	0
2024-07-07 18:31:32			0	36347	0	0	0	27207	25830	150133	27130	1034836	43623	110090	0	0	8172	614193	0	0
2024-07-07 18:32:32			0	36338	0	0	0	27207	25830	150185	27029	1034782	43623	110090	0	0	8172	614570	0	0
2024-07-07 18:33:32			0	36338	0	0	0	27202	25830	150221	27098	1034773	43611	110088	0	0	8172	614570	0	0
2024-07-07 18:34:32			0	36334	0	0	0	27207	25820	150205	27024	1034756	43610	110090	0	0	8172	614772	0	0
2024-07-07 18:35:32			0	36341	0	0	0	27197	25820	150113	27298	1034729	43621	110086	0	0	8172	614479	0	0
2024-07-07 18:36:32			0	36345	0	0	0	27197	25820	150121	27203	1034676	43621	110086	0	0	8172	614312	0	0
2024-07-07 18:37:32			0	36342	0	0	0	27205	25820	150069	27322	1034729	43621	110089	0	0	8172	614437	0	0
2024-07-07 18:38:32			0	36356	0	0	0	27215	25810	150105	27152	1034747	43621	110093	0	0	8173	613887	0	0
2024-07-07 18:39:32			0	36355	0	0	0	27202	25810	149977	27307	1034720	43621	110088	0	0	8173	613928	0	0
2024-07-07 18:40:32			0	36366	0	0	0	27205	25810	150061	27336	1034712	43620	110089	0	0	8173	613468	0	0
2024-07-07 18:41:32			0	36341	0	0	0	27197	25810	150145	27128	1034685	43609	110086	0	0	8172	614514	0	0
2024-07-07 18:42:32			0	36335	0	0	0	27210	25810	150141	26925	1034712	43630	110091	0	0	8172	614766	0	0
2024-07-07 18:43:32			0	36308	0	0	0	27215	25800	150273	27095	1034649	43630	110093	0	0	8170	615932	0	0
2024-07-07 18:44:32			0	36304	0	0	0	27199	25810	150289	27476	1034747	43631	110087	0	0	8170	616065	0	0
2024-07-07 18:45:32			0	36288	0	0	0	27194	25800	150285	27294	1034667	43619	110085	0	0	8169	616771	0	0
2024-07-07 18:46:32			0	36271	0	0	0	27202	25800	150421	27142	1034703	43620	110088	0	0	8168	617485	0	0
2024-07-07 18:47:32			0	36269	0	0	0	27210	25800	150497	27178	1034703	43630	110091	0	0	8168	617569	0	0
2024-07-07 18:48:32			0	36245	0	0	0	27207	25800	150585	27248	1034640	43629	110090	0	0	8167	618578	0	0
2024-07-07 18:49:32			0	36235	0	0	0	27194	25810	150645	27010	1034685	43620	110085	0	0	8167	618963	0	0
2024-07-07 18:50:32			0	36218	0	0	0	27197	25790	150737	26975	1034623	43629	110086	0	0	8166	619749	0	0
2024-07-07 18:51:32			0	36205	0	0	0	27210	25800	150705	26963	1034640	43619	110091	0	0	8165	620261	0	0
2024-07-07 18:52:32			0	36186	0	0	0	27215	25800	150829	27071	1034757	43630	110093	0	0	8164	621062	0	0
2024-07-07 18:53:32			0	36178	0	0	0	27199	25800	150813	27239	1034649	43630	110087	0	0	8163	621400	0	0
2024-07-07 18:54:32			0	36174	0	0	0	27184	25800	150829	26807	1034667	43629	110081	0	0	8164	621569	0	0
2024-07-07 18:55:32			0	36167	0	0	0	27166	25790	150849	27248	1034605	43607	110074	0	0	8163	621900	0	0
2024-07-07 18:56:32			0	36139	0	0	0	27158	25780	151057	27164	1034614	43629	110071	0	0	8162	623118	0	0
2024-07-07 18:57:32			0	36117	0	0	0	27158	25790	151137	27126	1034516	43607	110071	0	0	8161	624013	0	0
2024-07-07 18:58:32			0	36111	0	0	0	27155	25780	151137	26974	1034587	43607	110070	0	0	8161	624303	0	0
2024-07-07 18:59:32			0	36093	0	0	0	27163	25780	151237	26873	1034587	43618	110073	0	0	8159	625065	0	0
2024-07-07 19:00:32			0	36092	0	0	0	27166	25790	151341	27241	1034623	43607	110074	0	0	8159	625072	0	0
2024-07-07 19:01:32			0	36068	0	0	0	27158	25780	151325	27213	1034525	43639	110071	0	0	8158	626125	0	0
2024-07-07 19:02:32			0	36089	0	0	0	27142	25780	151277	27059	1034525	43617	110065	0	0	8160	625234	0	0
2024-07-07 19:03:32			0	36070	0	0	0	27140	25760	151353	27322	1034481	43627	110064	0	0	8159	626111	0	0
2024-07-07 19:04:32			0	36094	0	0	0	27132	25760	151301	27069	1034481	43605	110061	0	0	8160	625094	0	0
2024-07-07 19:05:32			0	36089	0	0	0	27127	25750	151297	27189	1034383	43604	110059	0	0	8160	625341	0	0
2024-07-07 19:06:32			0	36088	0	0	0	27127	25750	151349	27192	1034463	43615	110059	0	0	8160	625384	0	0
2024-07-07 19:07:32			0	36073	0	0	0	27129	25750	151337	27144	1034401	43614	110060	0	0	8159	626019	0	0
2024-07-07 19:08:32			0	36082	0	0	0	27137	25750	151377	26759	1034455	43614	110063	0	0	8159	625638	0	0
2024-07-07 19:09:32			0	36085	0	0	0	27127	25740	151257	26922	1034384	43613	110059	0	0	8160	625546	0	0
2024-07-07 19:10:32			0	36102	0	0	0	27140	25740	151257	27263	1034437	43625	110064	0	0	8160	624826	0	0
2024-07-07 19:11:32			0	36116	0	0	0	27132	25730	151305	27086	1034428	43625	110061	0	0	8161	624269	0	0
2024-07-07 19:12:32			0	36126	0	0	0	27132	25740	151289	27223	1034464	43625	110061	0	0	8162	623810	0	0
2024-07-07 19:13:32			0	36139	0	0	0	27127	25740	151233	27046	1034330	43613	110059	0	0	8162	623260	0	0
2024-07-07 19:14:32			0	36141	0	0	0	27132	25730	151213	26889	1034402	43635	110061	0	0	8162	623211	0	0
2024-07-07 19:15:32			0	36136	0	0	0	27119	25730	151297	27244	1034348	43602	110056	0	0	8162	623422	0	0
2024-07-07 19:16:32			0	36119	0	0	0	27111	25740	151257	27438	1034357	43602	110053	0	0	8162	624106	0	0
2024-07-07 19:17:32			0	36117	0	0	0	27122	25720	151317	27178	1034331	43612	110057	0	0	8161	624262	0	0
2024-07-07 19:18:32			0	36109	0	0	0	27114	25720	151409	27281	1034331	43623	110054	0	0	8161	624601	0	0
2024-07-07 19:19:32			0	36094	0	0	0	27127	25730	151385	26994	1034339	43613	110059	0	0	8160	625200	0	0
2024-07-07 19:20:32			0	36094	0	0	0	27127	25730	151513	27232	1034339	43634	110059	0	0	8160	625200	0	0
2024-07-07 19:21:32			0	36069	0	0	0	27106	25720	151493	27282	1034304	43612	110051	0	0	8159	626296	0	0
2024-07-07 19:22:32			0	36076	0	0	0	27093	25720	151493	27138	1034357	43612	110046	0	0	8160	625999	0	0
2024-07-07 19:23:32			0	36057	0	0	0	27090	25710	151517	27246	1034251	43611	110045	0	0	8159	626841	0	0
2024-07-07 19:24:32			0	36058	0	0	0	27083	25710	151617	27322	1034233	43623	110042	0	0	8159	626799	0	0
2024-07-07 19:25:32			0	36039	0	0	0	27083	25710	151565	26998	1034224	43611	110042	0	0	8158	627606	0	0
2024-07-07 19:26:32			0	36056	0	0	0	27077	25710	151689	27452	1034197	43611	110040	0	0	8159	626884	0	0
2024-07-07 19:27:32			0	36033	0	0	0	27077	25710	151729	27140	1034197	43588	110040	0	0	8157	627861	0	0
2024-07-07 19:28:32			0	36031	0	0	0	27093	25700	151801	26772	1034215	43587	110046	0	0	8157	627982	0	0
2024-07-07 19:29:32			0	36010	0	0	0	27090	25690	151785	27507	1034117	43621	110045	0	0	8156	628911	0	0
2024-07-07 19:30:32			0	35993	0	0	0	27085	25690	151809	27060	1034171	43610	110043	0	0	8155	629634	0	0
2024-07-07 19:31:32			0	36011	0	0	0	27077	25700	151809	27249	1034180	43621	110040	0	0	8156	628832	0	0
2024-07-07 19:32:32			0	36016	0	0	0	27080	25690	151849	26994	1034144	43621	110041	0	0	8156	628655	0	0
2024-07-07 19:33:32			0	36017	0	0	0	27072	25680	151909	27104	1034118	43608	110038	0	0	8157	628649	0	0
2024-07-07 19:34:32			0	36004	0	0	0	27070	25670	151789	27384	1034073	43618	110037	0	0	8156	629238	0	0
2024-07-07 19:35:32			0	36015	0	0	0	27070	25680	151761	27348	1034118	43608	110037	0	0	8157	628734	0	0
2024-07-07 19:36:32			0	36016	0	0	0	27070	25680	151921	27353	1034091	43619	110037	0	0	8157	628691	0	0
2024-07-07 19:37:32			0	36005	0	0	0	27064	25670	152013	27232	1034029	43618	110035	0	0	8156	629195	0	0
2024-07-07 19:38:32			0	35982	0	0	0	27059	25670	151989	27222	1034055	43618	110033	0	0	8155	630175	0	0
2024-07-07 19:39:32			0	36007	0	0	0	27062	25660	151965	27369	1034011	43617	110034	0	0	8156	629146	0	0
2024-07-07 19:40:32			0	35990	0	0	0	27064	25660	151945	27388	1034011	43628	110035	0	0	8155	629870	0	0
2024-07-07 19:41:32			0	35980	0	0	0	27062	25660	152049	27201	1034091	43617	110034	0	0	8155	630296	0	0
2024-07-07 19:42:32			0	35980	0	0	0	27064	25670	152093	27161	1034100	43629	110035	0	0	8155	630260	0	0
2024-07-07 19:43:32			0	35987	0	0	0	27059	25660	152069	27460	1034029	43605	110033	0	0	8155	629998	0	0
2024-07-07 19:44:32			0	35982	0	0	0	27064	25660	151977	27268	1034002	43616	110035	0	0	8155	630211	0	0
2024-07-07 19:45:32			0	35963	0	0	0	27051	25660	152009	27310	1034011	43606	110030	0	0	8154	631021	0	0
2024-07-07 19:46:32			0	35964	0	0	0	27059	25650	152065	27398	1033967	43616	110033	0	0	8154	631014	0	0
2024-07-07 19:47:32			0	35976	0	0	0	27054	25660	151981	27227	1034091	43606	110031	0	0	8155	630466	0	0
2024-07-07 19:48:32			0	35981	0	0	0	27064	25660	152005	27119	1034083	43605	110035	0	0	8155	630253	0	0
2024-07-07 19:49:32			0	35971	0	0	0	27067	25660	151969	27267	1034118	43617	110036	0	0	8154	630680	0	0
2024-07-07 19:50:32			0	35975	0	0	0	27067	25660	152025	27045	1034002	43616	110036	0	0	8154	630509	0	0
2024-07-07 19:51:32			0	36000	0	0	0	27057	25650	151925	27190	1033940	43616	110032	0	0	8156	629480	0	0
2024-07-07 19:52:32			0	35988	0	0	0	27062	25650	151921	27388	1034101	43605	110034	0	0	8155	629991	0	0
2024-07-07 19:53:32			0	36007	0	0	0	27054	25650	151965	27275	1034047	43627	110031	0	0	8156	629182	0	0
2024-07-07 19:54:32			0	36008	0	0	0	27051	25650	152017	27267	1034047	43616	110030	0	0	8156	629139	0	0
2024-07-07 19:55:32			0	36000	0	0	0	27054	25650	151917	27260	1033993	43616	110031	0	0	8156	629480	0	0
2024-07-07 19:56:32			0	35992	0	0	0	27049	25650	151837	26986	1033985	43605	110029	0	0	8156	629821	0	0
2024-07-07 19:57:32			0	36014	0	0	0	27057	25650	151785	27135	1034047	43616	110032	0	0	8157	628884	0	0
2024-07-07 19:58:32			0	36019	0	0	0	27054	25640	151909	27305	1033976	43604	110031	0	0	8157	628706	0	0
2024-07-07 19:59:32			0	35987	0	0	0	27059	25640	151797	27239	1034003	43626	110033	0	0	8155	630069	0	0
2024-07-07 20:00:32			0	36011	0	0	0	27067	25650	151773	26994	1034038	43605	110036	0	0	8156	629011	0	0
2024-07-07 20:01:32			0	36013	0	0	0	27064	25650	151885	27130	1034011	43616	110035	0	0	8156	628926	0	0
2024-07-07 20:02:32			0	36016	0	0	0	27062	25640	151817	27251	1034056	43637	110034	0	0	8157	628834	0	0
2024-07-07 20:03:32			0	36010	0	0	0	27064	25650	151789	27372	1033993	43605	110035	0	0	8156	629054	0	0
2024-07-07 20:04:32			0	36017	0	0	0	27059	25650	151885	27327	1033967	43605	110033	0	0	8157	628756	0	0
2024-07-07 20:05:32			0	36022	0	0	0	27064	25650	151789	27543	1033985	43616	110035	0	0	8157	628543	0	0
2024-07-07 20:06:32			0	36021	0	0	0	27057	25650	151717	27293	1033993	43627	110032	0	0	8157	628586	0	0
2024-07-07 20:07:32			0	36016	0	0	0	27059	25640	151741	27163	1034030	43604	110033	0	0	8157	628834	0	0
2024-07-07 20:08:32			0	36054	0	0	0	27057	25650	151753	27360	1033985	43616	110032	0	0	8159	627183	0	0
2024-07-07 20:09:32			0	36029	0	0	0	27057	25640	151761	27239	1033976	43615	110032	0	0	8157	628281	0	0
2024-07-07 20:10:32			0	36042	0	0	0	27049	25650	151629	27003	1033958	43616	110029	0	0	8158	627693	0	0
2024-07-07 20:11:32			0	36059	0	0	0	27054	25640	151689	27303	1034021	43614	110031	0	0	8159	627006	0	0
2024-07-07 20:12:32			0	36056	0	0	0	27049	25650	151717	27339	1033985	43638	110029	0	0	8159	627098	0	0
2024-07-07 20:13:32			0	36049	0	0	0	27059	25640	151629	27360	1034003	43615	110033	0	0	8158	627431	0	0
2024-07-07 20:14:32			0	36040	0	0	0	27044	25650	151653	27329	1033967	43616	110027	0	0	8158	627778	0	0
2024-07-07 20:15:32			0	36047	0	0	0	27046	25640	151689	27156	1033914	43614	110028	0	0	8158	627516	0	0
2024-07-07 20:16:32			0	36082	0	0	0	27044	25640	151721	27317	1033976	43604	110027	0	0	8160	626030	0	0
2024-07-07 20:17:32			0	36061	0	0	0	27049	25640	151625	27242	1034003	43604	110029	0	0	8159	626921	0	0
2024-07-07 20:18:32			0	36057	0	0	0	27041	25640	151625	27341	1033967	43603	110026	0	0	8159	627091	0	0
2024-07-07 20:19:32			0	36076	0	0	0	27049	25640	151625	27286	1033914	43603	110029	0	0	8160	626284	0	0
2024-07-07 20:20:32			0	36053	0	0	0	27054	25630	151569	27334	1033958	43625	110031	0	0	8159	627297	0	0
2024-07-07 20:21:32			0	36083	0	0	0	27051	25630	151545	27298	1033932	43614	110030	0	0	8160	626023	0	0
2024-07-07 20:22:32			0	36100	0	0	0	27049	25630	151513	27414	1033905	43614	110029	0	0	8161	625302	0	0
2024-07-07 20:23:32			0	36086	0	0	0	27049	25630	151477	27182	1033958	43603	110029	0	0	8160	625896	0	0
2024-07-07 20:24:32			0	36075	0	0	0	27044	25630	151509	27235	1033932	43625	110027	0	0	8160	626362	0	0
2024-07-07 20:25:32			0	36096	0	0	0	27036	25640	151513	27175	1033976	43615	110024	0	0	8161	625436	0	0
2024-07-07 20:26:32			0	36095	0	0	0	27046	25630	151417	27383	1033950	43625	110028	0	0	8161	625514	0	0
2024-07-07 20:27:32			0	36088	0	0	0	27049	25640	151437	27123	1033994	43614	110029	0	0	8161	625775	0	0
2024-07-07 20:28:32			0	36104	0	0	0	27057	25630	151369	27183	1033950	43625	110032	0	0	8161	625132	0	0
2024-07-07 20:29:32			0	36091	0	0	0	27054	25630	151389	27329	1033950	43625	110031	0	0	8161	625684	0	0
2024-07-07 20:30:32			0	36105	0	0	0	27057	25640	151401	27296	1033967	43614	110032	0	0	8161	625055	0	0
2024-07-07 20:31:32			0	36104	0	0	0	27051	25640	151381	27367	1033949	43626	110030	0	0	8161	625097	0	0
2024-07-07 20:32:32			0	36114	0	0	0	27046	25640	151401	27332	1033967	43603	110028	0	0	8162	624673	0	0
2024-07-07 20:33:32			0	36105	0	0	0	27044	25630	151357	26994	1033958	43625	110027	0	0	8161	625090	0	0
2024-07-07 20:34:32			0	36123	0	0	0	27044	25630	151369	27199	1033958	43614	110027	0	0	8162	624328	0	0
2024-07-07 20:35:32			0	36123	0	0	0	27038	25630	151325	27298	1033923	43614	110025	0	0	8163	624328	0	0
2024-07-07 20:36:32			0	36101	0	0	0	27041	25640	151349	27289	1033940	43603	110026	0	0	8161	625224	0	0
2024-07-07 20:37:32			0	36118	0	0	0	27028	25630	151301	27459	1033958	43636	110021	0	0	8162	624539	0	0
2024-07-07 20:38:32			0	36128	0	0	0	27046	25630	151369	27229	1033923	43603	110028	0	0	8163	624116	0	0
2024-07-07 20:39:32			0	36124	0	0	0	27049	25640	151337	27351	1034021	43614	110029	0	0	8162	624250	0	0
2024-07-07 20:40:32			0	36119	0	0	0	27044	25630	151325	27215	1033950	43603	110027	0	0	8162	624497	0	0
2024-07-07 20:41:32			0	36135	0	0	0	27051	25640	151441	27300	1033967	43614	110030	0	0	8163	623784	0	0
2024-07-07 20:42:32			0	36112	0	0	0	27054	25640	151321	27296	1033967	43614	110031	0	0	8162	624758	0	0
2024-07-07 20:43:32			0	36111	0	0	0	27046	25620	151225	27253	1033941	43613	110028	0	0	8162	624871	0	0
2024-07-07 20:44:32			0	36121	0	0	0	27049	25630	151325	27294	1033950	43614	110029	0	0	8162	624412	0	0
2024-07-07 20:45:32			0	36130	0	0	0	27057	25630	151353	27322	1033958	43614	110032	0	0	8163	624031	0	0
2024-07-07 20:46:32			0	36106	0	0	0	27054	25630	151273	27149	1033985	43625	110031	0	0	8161	625048	0	0
2024-07-07 20:47:32			0	36141	0	0	0	27051	25630	151317	27256	1033958	43614	110030	0	0	8163	623566	0	0
2024-07-07 20:48:32			0	36114	0	0	0	27054	25630	151229	27123	1033923	43614	110031	0	0	8162	624709	0	0
2024-07-07 20:49:32			0	36133	0	0	0	27051	25640	151229	27287	1033994	43603	110030	0	0	8163	623869	0	0
2024-07-07 20:50:32			0	36140	0	0	0	27080	25630	151329	27241	1034066	43625	110041	0	0	8163	623608	0	0
2024-07-07 20:51:32			0	36129	0	0	0	27106	25640	151245	27244	1034083	43648	110051	0	0	8162	624038	0	0
2024-07-07 20:52:32			0	36139	0	0	0	27122	25650	151373	27196	1034181	43638	110057	0	0	8162	623579	0	0
2024-07-07 20:53:32			0	36146	0	0	0	27135	25660	151297	27147	1034279	43639	110062	0	0	8162	623248	0	0
2024-07-07 20:54:32			0	36155	0	0	0	27168	25680	151185	27166	1034332	43641	110075	0	0	8162	622796	0	0
2024-07-07 20:55:32			0	36209	0	0	0	27163	25700	151001	27043	1034421	43643	110073	0	0	8165	620446	0	0
2024-07-07 20:56:32			0	36329	0	0	0	27171	25700	150441	27260	1034367	43621	110076	0	0	8171	615402	0	0
2024-07-07 20:57:32			0	36430	0	0	0	27192	25710	150117	27076	1034474	43656	110084	0	0	8176	611144	0	0
2024-07-07 20:58:32			0	36449	0	0	0	27197	25710	149945	27298	1034447	43633	110086	0	0	8177	610352	0	0
2024-07-07 20:59:32			0	36421	0	0	0	27197	25720	150165	26918	1034438	43645	110086	0	0	8176	611485	0	0
2024-07-07 21:00:32			0	36378	0	0	0	27205	25720	150333	27249	1034518	43645	110089	0	0	8174	613281	0	0
2024-07-07 21:01:32			0	36293	0	0	0	27207	25740	150613	26946	1034571	43635	110090	0	0	8169	616772	0	0
2024-07-07 21:02:32			0	36230	0	0	0	27215	25740	150837	27137	1034607	43636	110093	0	0	8166	619420	0	0
2024-07-07 21:03:32			0	36179	0	0	0	27210	25750	151177	27086	1034624	43648	110091	0	0	8163	621535	0	0
2024-07-07 21:04:32			0	36122	0	0	0	27207	25750	151373	27012	1034642	43636	110090	0	0	8160	623943	0	0
2024-07-07 21:05:32			0	36086	0	0	0	27205	25760	151441	27164	1034633	43626	110089	0	0	8158	625433	0	0
2024-07-07 21:06:32			0	36075	0	0	0	27197	25770	151553	27140	1034570	43627	110086	0	0	8158	625863	0	0
2024-07-07 21:07:32			0	36062	0	0	0	27202	25760	151565	26996	1034606	43615	110088	0	0	8157	626451	0	0
2024-07-07 21:08:32			0	36042	0	0	0	27207	25770	151649	27090	1034677	43627	110090	0	0	8156	627264	0	0
2024-07-07 21:09:32			0	36037	0	0	0	27210	25780	151793	27102	1034686	43628	110091	0	0	8156	627441	0	0
2024-07-07 21:10:32			0	36009	0	0	0	27218	25770	151745	27341	1034650	43627	110094	0	0	8154	628667	0	0
2024-07-07 21:11:32			0	36011	0	0	0	27205	25780	151829	26932	1034740	43628	110089	0	0	8154	628546	0	0
2024-07-07 21:12:32			0	35987	0	0	0	27225	25780	151897	27225	1034695	43640	110097	0	0	8153	629567	0	0
2024-07-07 21:13:32			0	35979	0	0	0	27215	25790	151881	27571	1034757	43651	110093	0	0	8153	629872	0	0
2024-07-07 21:14:32			0	35966	0	0	0	27228	25780	152009	27215	1034793	43639	110098	0	0	8152	630462	0	0
2024-07-07 21:15:32			0	35990	0	0	0	27233	25790	151873	27327	1034819	43640	110100	0	0	8153	629404	0	0
2024-07-07 21:16:32			0	35996	0	0	0	27236	25790	151921	27258	1034739	43640	110101	0	0	8153	629148	0	0
2024-07-07 21:17:32			0	36000	0	0	0	27233	25800	151829	26970	1034801	43629	110100	0	0	8153	628942	0	0
2024-07-07 21:18:32			0	36007	0	0	0	27236	25800	151833	27126	1034828	43641	110101	0	0	8154	628645	0	0
2024-07-07 21:19:32			0	36028	0	0	0	27223	25800	151785	27253	1034774	43641	110096	0	0	8155	627752	0	0
2024-07-07 21:20:32			0	36016	0	0	0	27236	25810	151745	27443	1034765	43642	110101	0	0	8154	628226	0	0
2024-07-07 21:21:32			0	36024	0	0	0	27241	25810	151829	27036	1034819	43642	110103	0	0	8155	627886	0	0
2024-07-07 21:22:32			0	36045	0	0	0	27241	25800	151653	27036	1034810	43642	110103	0	0	8156	627030	0	0
2024-07-07 21:23:32			0	36041	0	0	0	27241	25800	151617	26993	1034828	43641	110103	0	0	8156	627199	0	0
2024-07-07 21:24:32			0	36046	0	0	0	27244	25810	151573	27066	1034908	43654	110104	0	0	8156	626951	0	0
2024-07-07 21:25:32			0	36070	0	0	0	27244	25820	151433	26726	1034863	43654	110104	0	0	8157	625897	0	0
2024-07-07 21:26:32			0	36083	0	0	0	27249	25820	151465	26989	1034926	43644	110106	0	0	8158	625346	0	0
2024-07-07 21:27:32			0	36111	0	0	0	27251	25830	151357	26854	1034934	43632	110107	0	0	8159	624125	0	0
2024-07-07 21:28:32			0	36132	0	0	0	27257	25820	151401	26838	1034890	43643	110109	0	0	8160	623272	0	0
2024-07-07 21:29:32			0	36137	0	0	0	27262	25820	151261	26968	1034926	43644	110111	0	0	8160	623061	0	0
2024-07-07 21:30:32			0	36164	0	0	0	27262	25820	151057	27102	1034979	43632	110111	0	0	8162	621920	0	0
2024-07-07 21:31:32			0	36180	0	0	0	27251	25830	151197	26703	1034916	43633	110107	0	0	8163	621209	0	0
2024-07-07 21:32:32			0	36195	0	0	0	27259	25840	150989	27258	1034952	43645	110110	0	0	8164	620542	0	0
2024-07-07 21:33:32			0	36201	0	0	0	27262	25840	150925	27095	1034979	43633	110111	0	0	8164	620289	0	0
2024-07-07 21:34:32			0	36225	0	0	0	27267	25840	150945	26975	1035032	43633	110113	0	0	8165	619278	0	0
2024-07-07 21:35:32			0	36237	0	0	0	27272	25850	150873	26814	1035023	43645	110115	0	0	8166	618738	0	0
2024-07-07 21:36:32			0	36265	0	0	0	27259	25850	150769	27111	1034996	43657	110110	0	0	8167	617561	0	0
2024-07-07 21:37:32			0	36269	0	0	0	27275	25840	150673	27048	1035005	43656	110116	0	0	8167	617428	0	0
2024-07-07 21:38:32			0	36285	0	0	0	27277	25850	150625	27176	1035005	43658	110117	0	0	8168	616721	0	0
2024-07-07 21:39:32			0	36311	0	0	0	27275	25840	150461	27339	1035041	43634	110116	0	0	8169	615666	0	0
2024-07-07 21:40:32			0	36320	0	0	0	27272	25840	150505	26979	1035014	43645	110115	0	0	8170	615289	0	0
2024-07-07 21:41:32			0	36329	0	0	0	27283	25850	150445	27140	1035023	43645	110119	0	0	8170	614877	0	0
2024-07-07 21:42:32			0	36332	0	0	0	27283	25850	150405	27126	1035157	43657	110119	0	0	8170	614751	0	0
2024-07-07 21:43:32			0	36357	0	0	0	27277	25860	150341	27085	1035130	43647	110117	0	0	8172	613670	0	0
2024-07-07 21:44:32			0	36378	0	0	0	27285	25860	150301	27157	1035067	43647	110120	0	0	8173	612792	0	0
2024-07-07 21:45:32			0	36400	0	0	0	27288	25850	150273	26975	1035050	43657	110121	0	0	8174	611908	0	0
2024-07-07 21:46:32			0	36406	0	0	0	27285	25850	150233	27124	1035112	43646	110120	0	0	8174	611658	0	0
2024-07-07 21:47:32			0	36432	0	0	0	27298	25850	150173	27229	1035193	43646	110125	0	0	8175	610574	0	0
2024-07-07 21:48:32			0	36430	0	0	0	27288	25860	150077	27227	1035076	43636	110121	0	0	8175	610622	0	0
2024-07-07 21:49:32			0	36442	0	0	0	27285	25870	149977	26932	1035058	43647	110120	0	0	8176	610088	0	0
2024-07-07 21:50:32			0	36454	0	0	0	27290	25860	149925	27159	1035156	43659	110122	0	0	8177	609623	0	0
2024-07-07 21:51:32			0	36464	0	0	0	27288	25860	149933	27097	1035076	43659	110121	0	0	8177	609206	0	0
2024-07-07 21:52:32			0	36462	0	0	0	27285	25870	149937	27067	1035192	43636	110120	0	0	8177	609255	0	0
2024-07-07 21:53:32			0	36476	0	0	0	27293	25860	149937	27116	1035121	43647	110123	0	0	8178	608707	0	0
2024-07-07 21:54:32			0	36478	0	0	0	27283	25860	149973	27019	1035076	43647	110119	0	0	8178	608624	0	0
2024-07-07 21:55:32			0	36486	0	0	0	27283	25870	149885	27190	1035120	43660	110119	0	0	8179	608257	0	0
2024-07-07 21:56:32			0	36479	0	0	0	27275	25870	149765	26875	1035120	43648	110116	0	0	8178	608548	0	0
2024-07-07 21:57:32			0	36507	0	0	0	27283	25870	149781	27048	1035192	43636	110119	0	0	8180	607385	0	0
2024-07-07 21:58:32			0	36518	0	0	0	27285	25860	149733	27253	1035183	43636	110120	0	0	8180	606962	0	0
2024-07-07 21:59:32			0	36545	0	0	0	27283	25860	149685	27232	1035076	43647	110119	0	0	8182	605843	0	0
2024-07-07 22:00:32			0	36551	0	0	0	27277	25860	149661	27507	1035067	43647	110117	0	0	8182	605594	0	0
2024-07-07 22:01:32			0	36556	0	0	0	27277	25860	149509	27474	1035094	43659	110117	0	0	8182	605387	0	0
2024-07-07 22:02:32			0	36585	0	0	0	27283	25860	149545	27074	1035076	43647	110119	0	0	8184	604186	0	0
2024-07-07 22:03:32			0	36590	0	0	0	27280	25870	149457	27090	1035085	43669	110118	0	0	8184	603945	0	0
2024-07-07 22:04:32			0	36606	0	0	0	27277	25860	149450	27121	1035076	43647	110117	0	0	8185	603318	0	0
2024-07-07 22:05:32			0	36608	0	0	0	27272	25860	149274	27353	1035049	43669	110115	0	0	8185	603235	0	0
2024-07-07 22:06:32			0	36622	0	0	0	27275	25870	149274	27194	1035085	43659	110116	0	0	8186	602622	0	0
2024-07-07 22:07:32			0	36659	0	0	0	27275	25860	149226	27128	1035121	43647	110116	0	0	8188	601130	0	0
2024-07-07 22:08:32			0	36678	0	0	0	27283	25860	149302	27331	1035049	43659	110119	0	0	8189	600347	0	0
2024-07-07 22:09:32			0	36687	0	0	0	27288	25870	149186	27274	1035093	43648	110121	0	0	8189	599942	0	0
2024-07-07 22:10:32			0	36712	0	0	0	27283	25860	149090	27074	1035103	43647	110119	0	0	8190	598947	0	0
2024-07-07 22:11:32			0	36707	0	0	0	27285	25860	148938	27294	1035094	43647	110120	0	0	8190	599153	0	0
2024-07-07 22:12:32			0	36739	0	0	0	27272	25860	148926	27279	1035076	43647	110115	0	0	8192	597838	0	0
2024-07-07 22:13:32			0	36753	0	0	0	27283	25860	148834	27166	1035156	43647	110119	0	0	8192	597263	0	0
2024-07-07 22:14:32			0	36779	0	0	0	27283	25870	148702	27142	1035165	43647	110119	0	0	8194	596162	0	0
2024-07-07 22:15:32			0	36776	0	0	0	27280	25860	148662	27504	1035103	43647	110118	0	0	8194	596319	0	0
2024-07-07 22:16:32			0	36795	0	0	0	27283	25860	148674	27258	1035121	43647	110119	0	0	8195	595541	0	0
2024-07-07 22:17:32			0	36803	0	0	0	27283	25870	148574	26972	1035085	43647	110119	0	0	8195	595179	0	0
2024-07-07 22:18:32			0	36823	0	0	0	27288	25880	148618	27267	1035236	43649	110121	0	0	8196	594326	0	0
2024-07-07 22:19:32			0	36824	0	0	0	27285	25870	148522	27403	1035120	43670	110120	0	0	8196	594319	0	0
2024-07-07 22:20:32			0	36828	0	0	0	27288	25870	148558	27258	1035111	43647	110121	0	0	8196	594156	0	0
2024-07-07 22:21:32			0	36835	0	0	0	27280	25870	148558	27310	1035138	43636	110118	0	0	8197	593870	0	0
2024-07-07 22:22:32			0	36845	0	0	0	27293	25870	148450	27322	1035165	43647	110123	0	0	8197	593461	0	0
2024-07-07 22:23:32			0	36860	0	0	0	27290	25880	148494	27095	1035209	43649	110122	0	0	8198	592814	0	0
2024-07-07 22:24:32			0	36858	0	0	0	27285	25870	148438	26984	1035120	43648	110120	0	0	8198	592930	0	0
2024-07-07 22:25:32			0	36883	0	0	0	27290	25870	148374	27293	1035120	43648	110122	0	0	8199	591909	0	0
2024-07-07 22:26:32			0	36864	0	0	0	27288	25860	148426	27329	1035130	43636	110121	0	0	8198	592718	0	0
2024-07-07 22:27:32			0	36880	0	0	0	27285	25880	148306	27142	1035129	43661	110120	0	0	8199	591998	0	0
2024-07-07 22:28:32			0	36899	0	0	0	27288	25870	148370	27187	1035111	43625	110121	0	0	8200	591257	0	0
2024-07-07 22:29:32			0	36919	0	0	0	27293	25870	148286	27031	1035093	43660	110123	0	0	8201	590442	0	0
2024-07-07 22:30:32			0	36926	0	0	0	27283	25860	148190	27424	1035210	43647	110119	0	0	8201	590190	0	0
2024-07-07 22:31:32			0	36916	0	0	0	27288	25860	148114	27360	1035156	43659	110121	0	0	8201	590597	0	0
2024-07-07 22:32:32			0	36942	0	0	0	27285	25880	148174	27403	1035156	43649	110120	0	0	8202	589472	0	0
2024-07-07 22:33:32			0	36934	0	0	0	27280	25870	148074	27587	1035165	43647	110118	0	0	8202	589831	0	0
2024-07-07 22:34:32			0	36958	0	0	0	27283	25870	148178	27400	1035147	43637	110119	0	0	8203	588855	0	0
2024-07-07 22:35:32			0	36969	0	0	0	27280	25870	148150	27275	1035111	43647	110118	0	0	8204	588407	0	0
2024-07-07 22:36:32			0	36963	0	0	0	27283	25870	148086	27383	1035165	43659	110119	0	0	8203	588651	0	0
2024-07-07 22:37:32			0	36997	0	0	0	27285	25880	147978	27230	1035209	43661	110120	0	0	8205	587237	0	0
2024-07-07 22:38:32			0	36989	0	0	0	27275	25860	147918	27365	1035156	43647	110116	0	0	8205	587629	0	0
2024-07-07 22:39:32			0	37012	0	0	0	27288	25870	147894	27168	1035201	43660	110121	0	0	8206	586662	0	0
2024-07-07 22:40:32			0	37014	0	0	0	27280	25870	147818	27286	1035111	43647	110118	0	0	8206	586581	0	0
2024-07-07 22:41:32			0	37023	0	0	0	27277	25870	147842	27059	1035192	43659	110117	0	0	8207	586216	0	0
2024-07-07 22:42:32			0	37006	0	0	0	27277	25870	147882	27270	1035174	43637	110117	0	0	8206	586905	0	0
2024-07-07 22:43:32			0	37017	0	0	0	27280	25870	147854	27137	1035192	43659	110118	0	0	8206	586459	0	0
2024-07-07 22:44:32			0	37007	0	0	0	27277	25870	147854	27170	1035111	43636	110117	0	0	8206	586865	0	0
2024-07-07 22:45:32			0	37010	0	0	0	27283	25870	147894	27140	1035111	43647	110119	0	0	8206	586743	0	0
2024-07-07 22:46:32			0	37002	0	0	0	27275	25860	147850	27436	1035103	43636	110116	0	0	8206	587101	0	0
2024-07-07 22:47:32			0	37027	0	0	0	27283	25870	147878	27258	1035031	43647	110119	0	0	8207	586054	0	0
2024-07-07 22:48:32			0	37017	0	0	0	27277	25870	147934	27303	1035111	43636	110117	0	0	8206	586459	0	0
2024-07-07 22:49:32			0	37009	0	0	0	27277	25860	147930	27421	1035076	43647	110117	0	0	8206	586817	0	0
2024-07-07 22:50:32			0	37026	0	0	0	27277	25870	147814	26899	1035111	43625	110117	0	0	8207	586094	0	0
2024-07-07 22:51:32			0	37023	0	0	0	27275	25860	147834	27201	1035067	43647	110116	0	0	8207	586249	0	0
2024-07-07 22:52:32			0	37029	0	0	0	27275	25860	147814	27137	1035103	43636	110116	0	0	8207	586006	0	0
2024-07-07 22:53:32			0	37032	0	0	0	27272	25860	147862	27325	1035103	43647	110115	0	0	8207	585885	0	0
2024-07-07 22:54:32			0	37017	0	0	0	27275	25860	147814	27137	1035094	43659	110116	0	0	8206	586493	0	0
2024-07-07 22:55:32			0	37009	0	0	0	27283	25870	147806	27251	1035138	43636	110119	0	0	8206	586784	0	0
2024-07-07 22:56:32			0	37022	0	0	0	27272	25860	147854	27046	1035174	43647	110115	0	0	8207	586290	0	0
2024-07-07 22:57:32			0	37022	0	0	0	27275	25860	147802	27289	1035076	43636	110116	0	0	8207	586290	0	0
2024-07-07 22:58:32			0	37006	0	0	0	27267	25860	147934	27305	1035103	43659	110113	0	0	8206	586939	0	0
2024-07-07 22:59:32			0	37012	0	0	0	27267	25850	147862	27282	1035139	43635	110113	0	0	8206	586729	0	0
2024-07-07 23:00:32			0	37020	0	0	0	27272	25860	147938	27516	1035174	43647	110115	0	0	8207	586371	0	0
2024-07-07 23:01:32			0	36998	0	0	0	27270	25860	147934	27206	1035094	43647	110114	0	0	8205	587263	0	0
2024-07-07 23:02:32			0	37012	0	0	0	27262	25860	148014	27326	1035094	43647	110111	0	0	8206	586695	0	0
2024-07-07 23:03:32			0	36986	0	0	0	27259	25860	147942	27422	1035094	43647	110110	0	0	8205	587751	0	0
2024-07-07 23:04:32			0	36993	0	0	0	27259	25860	147954	26854	1035103	43647	110110	0	0	8205	587466	0	0
2024-07-07 23:05:32			0	36982	0	0	0	27257	25860	148018	27287	1035067	43647	110109	0	0	8205	587913	0	0
2024-07-07 23:06:32			0	36979	0	0	0	27254	25850	148074	27022	1035058	43635	110108	0	0	8205	588068	0	0
2024-07-07 23:07:32			0	36977	0	0	0	27254	25840	148058	27287	1035032	43645	110108	0	0	8205	588183	0	0
2024-07-07 23:08:32			0	36975	0	0	0	27244	25850	148158	27305	1034978	43646	110104	0	0	8205	588231	0	0
2024-07-07 23:09:32			0	36965	0	0	0	27246	25850	148102	27147	1034916	43645	110105	0	0	8204	588637	0	0
2024-07-07 23:10:32			0	36962	0	0	0	27254	25850	148182	27329	1035023	43645	110108	0	0	8204	588759	0	0
2024-07-07 23:11:32			0	36951	0	0	0	27249	25850	148258	27215	1034996	43634	110106	0	0	8203	589206	0	0
2024-07-07 23:12:32			0	36925	0	0	0	27249	25840	148254	27294	1035041	43634	110106	0	0	8202	590298	0	0
2024-07-07 23:13:32			0	36914	0	0	0	27259	25840	148222	27142	1035068	43645	110110	0	0	8201	590746	0	0
2024-07-07 23:14:32			0	36868	0	0	0	27259	25850	148370	27156	1035050	43657	110110	0	0	8199	592589	0	0
2024-07-07 23:15:32			0	36849	0	0	0	27262	25850	148390	27164	1035050	43657	110111	0	0	8198	593365	0	0
2024-07-07 23:16:32			0	36843	0	0	0	27267	25860	148610	26923	1035049	43659	110113	0	0	8197	593576	0	0
2024-07-07 23:17:32			0	36837	0	0	0	27267	25850	148602	27182	1035050	43645	110113	0	0	8197	593855	0	0
2024-07-07 23:18:32			0	36808	0	0	0	27277	25860	148614	27216	1035201	43659	110117	0	0	8195	595008	0	0
2024-07-07 23:19:32			0	36808	0	0	0	27277	25860	148662	26994	1035148	43647	110117	0	0	8195	595008	0	0
2024-07-07 23:20:32			0	36803	0	0	0	27283	25860	148798	27206	1035174	43669	110119	0	0	8195	595213	0	0
2024-07-07 23:21:32			0	36809	0	0	0	27275	25860	148706	27277	1035156	43647	110116	0	0	8195	594967	0	0
2024-07-07 23:22:32			0	36832	0	0	0	27277	25860	148602	27327	1035121	43659	110117	0	0	8197	594026	0	0
2024-07-07 23:23:32			0	36855	0	0	0	27280	25860	148482	27209	1035094	43647	110118	0	0	8198	593086	0	0
2024-07-07 23:24:32			0	36863	0	0	0	27283	25860	148410	27189	1035148	43659	110119	0	0	8198	592759	0	0
2024-07-07 23:25:32			0	36864	0	0	0	27277	25860	148370	27140	1035130	43669	110117	0	0	8198	592718	0	0
2024-07-07 23:26:32			0	36872	0	0	0	27283	25860	148418	27275	1035183	43647	110119	0	0	8199	592392	0	0
2024-07-07 23:27:32			0	36869	0	0	0	27280	25860	148362	26866	1035130	43659	110118	0	0	8199	592514	0	0
2024-07-07 23:28:32			0	36867	0	0	0	27270	25860	148422	27067	1035103	43659	110114	0	0	8199	592596	0	0
2024-07-07 23:29:32			0	36871	0	0	0	27272	25860	148366	27123	1035067	43659	110115	0	0	8199	592433	0	0
2024-07-07 23:30:32			0	36874	0	0	0	27275	25860	148486	27007	1035094	43647	110116	0	0	8199	592310	0	0
2024-07-07 23:31:32			0	36873	0	0	0	27277	25860	148538	26915	1035094	43636	110117	0	0	8199	592351	0	0
2024-07-07 23:32:32			0	36862	0	0	0	27264	25860	148422	27045	1035076	43647	110112	0	0	8198	592800	0	0
2024-07-07 23:33:32			0	36880	0	0	0	27267	25860	148446	27277	1035103	43625	110113	0	0	8199	592065	0	0
2024-07-07 23:34:32			0	36891	0	0	0	27264	25860	148398	27069	1035067	43647	110112	0	0	8200	591617	0	0
2024-07-07 23:35:32			0	36885	0	0	0	27270	25850	148414	27235	1035085	43635	110114	0	0	8199	591895	0	0
2024-07-07 23:36:32			0	36886	0	0	0	27259	25840	148402	27031	1035014	43657	110110	0	0	8200	591888	0	0
2024-07-07 23:37:32			0	36938	0	0	0	27259	25860	148350	26935	1035040	43636	110110	0	0	8202	589702	0	0
2024-07-07 23:38:32			0	36915	0	0	0	27257	25850	148358	27159	1035058	43646	110109	0	0	8201	590672	0	0
2024-07-07 23:39:32			0	36921	0	0	0	27254	25850	148206	27150	1035005	43658	110108	0	0	8202	590427	0	0
2024-07-07 23:40:32			0	36954	0	0	0	27251	25860	148254	27234	1035103	43647	110107	0	0	8203	589051	0	0
2024-07-07 23:41:32			0	36938	0	0	0	27251	25850	148190	27348	1035005	43646	110107	0	0	8203	589735	0	0
2024-07-07 23:42:32			0	36956	0	0	0	27257	25850	148218	27391	1035023	43667	110109	0	0	8203	589003	0	0
2024-07-07 23:43:32			0	36964	0	0	0	27251	25860	148210	27157	1035094	43659	110107	0	0	8204	588644	0	0
2024-07-07 23:44:32			0	36964	0	0	0	27244	25840	148198	27441	1034987	43645	110104	0	0	8204	588711	0	0
2024-07-07 23:45:32			0	36955	0	0	0	27249	25850	148198	27542	1035023	43645	110106	0	0	8203	589044	0	0
2024-07-07 23:46:32			0	36944	0	0	0	27233	25840	148182	27518	1035005	43645	110100	0	0	8203	589525	0	0
2024-07-07 23:47:32			0	36965	0	0	0	27238	25840	148206	27071	1035014	43645	110102	0	0	8204	588671	0	0
2024-07-07 23:48:32			0	36951	0	0	0	27241	25840	148162	27092	1035041	43657	110103	0	0	8203	589240	0	0
2024-07-07 23:49:32			0	36951	0	0	0	27238	25830	148226	26993	1034997	43645	110102	0	0	8203	589274	0	0
2024-07-07 23:50:32			0	36927	0	0	0	27246	25840	148150	27180	1034925	43645	110105	0	0	8202	590217	0	0
2024-07-07 23:51:32			0	36923	0	0	0	27231	25820	148286	27145	1034952	43644	110099	0	0	8202	590447	0	0
2024-07-07 23:52:32			0	36914	0	0	0	27233	25830	148254	27036	1034961	43632	110100	0	0	8202	590780	0	0
2024-07-07 23:53:32			0	36901	0	0	0	27233	25830	148278	26920	1034916	43645	110100	0	0	8201	591310	0	0
2024-07-07 23:54:32			0	36924	0	0	0	27215	25830	148294	27251	1034881	43632	110093	0	0	8202	590373	0	0
2024-07-07 23:55:32			0	36887	0	0	0	27223	25820	148346	27331	1034899	43632	110096	0	0	8200	591915	0	0
2024-07-07 23:56:32			0	36891	0	0	0	27223	25830	148422	27211	1034881	43655	110096	0	0	8201	591718	0	0
2024-07-07 23:57:32			0	36879	0	0	0	27228	25820	148490	26909	1034944	43665	110098	0	0	8200	592241	0	0
2024-07-07 23:58:32			0	36861	0	0	0	27225	25820	148590	27256	1034952	43655	110097	0	0	8199	592976	0	0
2024-07-07 23:59:32			0	36844	0	0	0	27218	25810	148598	27476	1034881	43631	110094	0	0	8198	593704	0	0
2024-07-08 00:00:32			0	36849	0	0	0	27223	25820	148562	27473	1034944	43643	110096	0	0	8198	593466	0	0
2024-07-08 00:01:32			0	36849	0	0	0	27218	25820	148594	27426	1034917	43643	110094	0	0	8198	593466	0	0
2024-07-08 00:02:32			0	36827	0	0	0	27218	25810	148662	27390	1034881	43654	110094	0	0	8197	594400	0	0
2024-07-08 00:03:32			0	36829	0	0	0	27210	25810	148674	27183	1034873	43642	110091	0	0	8197	594318	0	0
2024-07-08 00:04:32			0	36825	0	0	0	27207	25810	148674	27227	1034846	43664	110090	0	0	8197	594482	0	0
2024-07-08 00:05:32			0	36823	0	0	0	27205	25810	148702	27213	1034792	43642	110089	0	0	8197	594564	0	0
2024-07-08 00:06:32			0	36837	0	0	0	27212	25800	148690	27241	1034837	43630	110092	0	0	8198	594025	0	0
2024-07-08 00:07:32			0	36835	0	0	0	27199	25810	148654	27263	1034792	43642	110087	0	0	8198	594073	0	0
2024-07-08 00:08:32			0	36839	0	0	0	27199	25800	148590	27189	1034801	43652	110087	0	0	8198	593943	0	0
2024-07-08 00:09:32			0	36866	0	0	0	27194	25800	148738	27339	1034810	43642	110085	0	0	8200	592839	0	0
2024-07-08 00:10:32			0	36896	0	0	0	27192	25800	148494	26925	1034748	43629	110084	0	0	8201	591615	0	0
2024-07-08 00:11:32			0	36941	0	0	0	27192	25790	148222	27173	1034766	43640	110084	0	0	8203	589815	0	0
2024-07-08 00:12:32			0	37022	0	0	0	27181	25790	148034	26965	1034757	43629	110080	0	0	8208	586524	0	0
2024-07-08 00:13:32			0	37087	0	0	0	27186	25790	147718	26982	1034730	43640	110082	0	0	8211	583892	0	0
2024-07-08 00:14:32			0	37169	0	0	0	27179	25790	147526	27003	1034730	43640	110079	0	0	8216	580583	0	0
2024-07-08 00:15:32			0	37234	0	0	0	27179	25780	147210	27211	1034632	43639	110079	0	0	8219	578001	0	0
2024-07-08 00:16:32			0	37299	0	0	0	27176	25790	146882	27386	1034757	43640	110078	0	0	8222	575362	0	0
2024-07-08 00:17:32			0	37343	0	0	0	27174	25790	146623	27183	1034730	43651	110077	0	0	8225	573602	0	0
2024-07-08 00:18:32			0	37383	0	0	0	27176	25770	146519	27284	1034731	43627	110078	0	0	8227	572070	0	0
2024-07-08 00:19:32			0	37412	0	0	0	27181	25790	146415	27336	1034757	43640	110080	0	0	8228	570849	0	0
2024-07-08 00:20:32			0	37460	0	0	0	27176	25790	146355	27194	1034730	43651	110078	0	0	8231	568939	0	0
2024-07-08 00:21:32			0	37479	0	0	0	27189	25780	146311	27124	1034721	43651	110083	0	0	8231	568217	0	0
2024-07-08 00:22:32			0	37475	0	0	0	27184	25780	146203	27060	1034748	43663	110081	0	0	8231	568376	0	0
2024-07-08 00:23:32			0	37471	0	0	0	27189	25780	146203	26791	1034740	43650	110083	0	0	8231	568535	0	0
2024-07-08 00:24:32			0	37447	0	0	0	27186	25790	146331	27098	1034819	43651	110082	0	0	8230	569456	0	0
2024-07-08 00:25:32			0	37435	0	0	0	27186	25790	146435	26981	1034730	43651	110082	0	0	8229	569933	0	0
2024-07-08 00:26:32			0	37389	0	0	0	27194	25790	146479	27003	1034757	43640	110085	0	0	8227	571766	0	0
2024-07-08 00:27:32			0	37358	0	0	0	27202	25790	146647	26870	1034837	43651	110088	0	0	8225	573003	0	0
2024-07-08 00:28:32			0	37332	0	0	0	27205	25780	146743	26953	1034793	43639	110089	0	0	8224	574074	0	0
2024-07-08 00:29:32			0	37290	0	0	0	27205	25790	146942	27064	1034811	43651	110089	0	0	8221	575722	0	0
2024-07-08 00:30:32			0	37248	0	0	0	27215	25790	147150	26916	1034837	43651	110093	0	0	8219	577406	0	0
2024-07-08 00:31:32			0	37225	0	0	0	27212	25790	147226	27163	1034846	43663	110092	0	0	8218	578330	0	0
2024-07-08 00:32:32			0	37175	0	0	0	27215	25790	147398	27215	1034846	43651	110093	0	0	8215	580341	0	0
2024-07-08 00:33:32			0	37125	0	0	0	27218	25800	147522	27133	1034855	43629	110094	0	0	8213	582324	0	0
2024-07-08 00:34:32			0	37103	0	0	0	27218	25800	147686	27019	1034837	43664	110094	0	0	8211	583212	0	0
2024-07-08 00:35:32			0	37077	0	0	0	27215	25790	147854	27133	1034819	43651	110093	0	0	8210	584296	0	0
2024-07-08 00:36:32			0	37034	0	0	0	27218	25800	147870	26963	1034774	43652	110094	0	0	8208	586004	0	0
2024-07-08 00:37:32			0	36982	0	0	0	27212	25810	148142	27190	1034819	43653	110092	0	0	8205	588081	0	0
2024-07-08 00:38:32			0	36971	0	0	0	27218	25800	148226	26916	1034855	43663	110094	0	0	8205	588561	0	0
2024-07-08 00:39:32			0	36912	0	0	0	27199	25800	148374	27033	1034783	43642	110087	0	0	8202	590962	0	0
2024-07-08 00:40:32			0	36902	0	0	0	27205	25810	148454	26948	1034846	43653	110089	0	0	8201	591336	0	0
2024-07-08 00:41:32			0	36882	0	0	0	27199	25790	148498	27260	1034873	43640	110087	0	0	8200	592220	0	0
2024-07-08 00:42:32			0	36863	0	0	0	27202	25780	148714	27336	1034829	43640	110088	0	0	8199	593029	0	0
2024-07-08 00:43:32			0	36821	0	0	0	27197	25790	148738	27215	1034766	43651	110086	0	0	8197	594713	0	0
2024-07-08 00:44:32			0	36793	0	0	0	27199	25790	148882	27161	1034766	43640	110087	0	0	8196	595860	0	0
2024-07-08 00:45:32			0	36768	0	0	0	27197	25790	148966	27079	1034819	43663	110086	0	0	8194	596885	0	0
2024-07-08 00:46:32			0	36739	0	0	0	27192	25780	149166	26889	1034748	43651	110084	0	0	8193	598110	0	0
2024-07-08 00:47:32			0	36726	0	0	0	27205	25780	149262	27043	1034766	43650	110089	0	0	8192	598645	0	0
2024-07-08 00:48:32			0	36670	0	0	0	27192	25790	149362	27267	1034811	43629	110084	0	0	8189	600916	0	0
2024-07-08 00:49:32			0	36662	0	0	0	27192	25790	149514	27114	1034811	43651	110084	0	0	8189	601246	0	0
2024-07-08 00:50:32			0	36601	0	0	0	27197	25790	149562	26975	1034837	43651	110086	0	0	8186	603765	0	0
2024-07-08 00:51:32			0	36587	0	0	0	27199	25790	149722	26991	1034837	43651	110087	0	0	8185	604344	0	0
2024-07-08 00:52:32			0	36526	0	0	0	27205	25790	149853	27059	1034757	43640	110089	0	0	8182	606872	0	0
2024-07-08 00:53:32			0	36503	0	0	0	27207	25790	150053	27182	1034784	43640	110090	0	0	8180	607828	0	0
2024-07-08 00:54:32			0	36468	0	0	0	27199	25790	150105	26880	1034811	43640	110087	0	0	8179	609283	0	0
2024-07-08 00:55:32			0	36446	0	0	0	27197	25780	150269	27121	1034721	43640	110086	0	0	8177	610234	0	0
2024-07-08 00:56:32			0	36409	0	0	0	27202	25780	150289	27183	1034740	43639	110088	0	0	8175	611777	0	0
2024-07-08 00:57:32			0	36408	0	0	0	27207	25800	150413	26830	1034828	43641	110090	0	0	8175	611749	0	0
2024-07-08 00:58:32			0	36374	0	0	0	27202	25780	150505	27003	1034829	43651	110088	0	0	8174	613239	0	0
2024-07-08 00:59:32			0	36356	0	0	0	27205	25790	150597	27183	1034784	43663	110089	0	0	8173	613957	0	0
2024-07-08 01:00:32			0	36323	0	0	0	27205	25790	150657	27183	1034811	43651	110089	0	0	8171	615338	0	0
2024-07-08 01:01:32			0	36327	0	0	0	27202	25790	150737	27092	1034784	43651	110088	0	0	8171	615171	0	0
2024-07-08 01:02:32			0	36302	0	0	0	27210	25800	150725	27450	1034801	43663	110091	0	0	8170	616184	0	0
2024-07-08 01:03:32			0	36313	0	0	0	27202	25790	150833	27185	1034811	43640	110088	0	0	8170	615757	0	0
2024-07-08 01:04:32			0	36302	0	0	0	27207	25790	150881	27254	1034819	43640	110090	0	0	8170	616219	0	0
2024-07-08 01:05:32			0	36261	0	0	0	27212	25800	150901	27306	1034801	43652	110092	0	0	8168	617905	0	0
2024-07-08 01:06:32			0	36270	0	0	0	27207	25790	150965	27279	1034819	43640	110090	0	0	8168	617562	0	0
2024-07-08 01:07:32			0	36267	0	0	0	27218	25800	150889	27104	1034882	43663	110094	0	0	8168	617653	0	0
2024-07-08 01:08:32			0	36252	0	0	0	27218	25790	151005	27154	1034837	43651	110094	0	0	8167	618319	0	0
2024-07-08 01:09:32			0	36256	0	0	0	27210	25790	150989	27350	1034784	43651	110091	0	0	8167	618150	0	0
2024-07-08 01:10:32			0	36257	0	0	0	27210	25800	150929	27358	1034882	43663	110091	0	0	8167	618073	0	0
2024-07-08 01:11:32			0	36247	0	0	0	27210	25800	150985	26991	1034935	43641	110091	0	0	8167	618494	0	0
2024-07-08 01:12:32			0	36259	0	0	0	27210	25800	151073	27137	1034891	43653	110091	0	0	8168	617989	0	0
2024-07-08 01:13:32			0	36258	0	0	0	27220	25800	150885	27007	1034855	43652	110095	0	0	8167	618031	0	0
2024-07-08 01:14:32			0	36245	0	0	0	27212	25800	150881	27372	1034882	43663	110092	0	0	8167	618578	0	0
2024-07-08 01:15:32			0	36287	0	0	0	27218	25800	150977	27242	1034828	43652	110094	0	0	8169	616813	0	0
2024-07-08 01:16:32			0	36267	0	0	0	27210	25800	150925	26915	1034882	43641	110091	0	0	8168	617653	0	0
2024-07-08 01:17:32			0	36281	0	0	0	27212	25800	150881	27144	1034909	43652	110092	0	0	8169	617065	0	0
2024-07-08 01:18:32			0	36273	0	0	0	27210	25800	150905	26953	1034909	43652	110091	0	0	8168	617401	0	0
2024-07-08 01:19:32			0	36281	0	0	0	27210	25800	150913	27220	1034891	43653	110091	0	0	8169	617065	0	0
2024-07-08 01:20:32			0	36298	0	0	0	27212	25800	150937	27220	1034891	43664	110092	0	0	8170	616351	0	0
2024-07-08 01:21:32			0	36294	0	0	0	27215	25790	150889	27227	1034846	43651	110093	0	0	8169	616554	0	0
2024-07-08 01:22:32			0	36284	0	0	0	27215	25800	150913	27462	1034855	43641	110093	0	0	8169	616939	0	0
2024-07-08 01:23:32			0	36298	0	0	0	27218	25800	150953	27424	1034828	43663	110094	0	0	8169	616351	0	0
2024-07-08 01:24:32			0	36304	0	0	0	27210	25800	150889	27194	1034855	43652	110091	0	0	8170	616100	0	0
2024-07-08 01:25:32			0	36279	0	0	0	27218	25800	150861	27367	1034909	43641	110094	0	0	8168	617149	0	0
2024-07-08 01:26:32			0	36289	0	0	0	27215	25800	150913	27109	1034882	43652	110093	0	0	8169	616729	0	0
2024-07-08 01:27:32			0	36272	0	0	0	27218	25800	151013	26939	1034944	43653	110094	0	0	8168	617443	0	0
2024-07-08 01:28:32			0	36274	0	0	0	27223	25810	150961	26987	1034899	43630	110096	0	0	8168	617324	0	0
2024-07-08 01:29:32			0	36269	0	0	0	27218	25800	150973	27229	1034891	43653	110094	0	0	8168	617569	0	0
2024-07-08 01:30:32			0	36262	0	0	0	27210	25800	151029	27338	1034918	43653	110091	0	0	8168	617863	0	0
2024-07-08 01:31:32			0	36252	0	0	0	27218	25800	151101	26913	1034909	43663	110094	0	0	8167	618283	0	0
2024-07-08 01:32:32			0	36230	0	0	0	27212	25810	151201	27081	1034908	43654	110092	0	0	8166	619174	0	0
2024-07-08 01:33:32			0	36225	0	0	0	27225	25800	151153	27029	1034882	43663	110097	0	0	8165	619419	0	0
2024-07-08 01:34:32			0	36223	0	0	0	27225	25810	151201	27020	1034899	43664	110097	0	0	8165	619468	0	0
2024-07-08 01:35:32			0	36218	0	0	0	27223	25820	151245	27128	1034917	43665	110096	0	0	8165	619643	0	0
2024-07-08 01:36:32			0	36176	0	0	0	27225	25810	151253	26878	1034962	43665	110097	0	0	8163	621449	0	0
2024-07-08 01:37:32			0	36177	0	0	0	27223	25810	151301	26928	1035015	43643	110096	0	0	8163	621407	0	0
2024-07-08 01:38:32			0	36189	0	0	0	27228	25810	151385	27213	1034908	43665	110098	0	0	8164	620901	0	0
2024-07-08 01:39:32			0	36171	0	0	0	27223	25810	151401	27234	1034935	43643	110096	0	0	8163	621660	0	0
2024-07-08 01:40:32			0	36148	0	0	0	27225	25800	151445	26996	1034935	43652	110097	0	0	8161	622667	0	0
2024-07-08 01:41:32			0	36129	0	0	0	27220	25800	151425	27258	1034837	43642	110095	0	0	8161	623470	0	0
2024-07-08 01:42:32			0	36127	0	0	0	27220	25800	151709	27424	1034918	43653	110095	0	0	8160	623555	0	0
2024-07-08 01:43:32			0	36107	0	0	0	27225	25800	151653	27324	1034944	43653	110097	0	0	8159	624401	0	0
2024-07-08 01:44:32			0	36107	0	0	0	27225	25810	151725	27043	1034935	43665	110097	0	0	8159	624365	0	0
2024-07-08 01:45:32			0	36091	0	0	0	27231	25810	151781	27282	1034899	43664	110099	0	0	8158	625043	0	0
2024-07-08 01:46:32			0	36074	0	0	0	27228	25810	151749	27222	1034962	43665	110098	0	0	8158	625763	0	0
2024-07-08 01:47:32			0	36055	0	0	0	27228	25820	151801	27338	1034917	43643	110098	0	0	8157	626534	0	0
2024-07-08 01:48:32			0	36027	0	0	0	27233	25810	151865	27147	1034899	43653	110100	0	0	8155	627758	0	0
2024-07-08 01:49:32			0	36018	0	0	0	27233	25790	152145	27173	1034873	43651	110100	0	0	8154	628212	0	0
2024-07-08 01:50:32			0	35966	0	0	0	27212	25810	152177	27194	1034873	43642	110092	0	0	8152	630354	0	0
2024-07-08 01:51:32			0	35948	0	0	0	27205	25800	152405	27170	1034837	43642	110089	0	0	8151	631158	0	0
2024-07-08 01:52:32			0	35920	0	0	0	27189	25790	152477	27020	1034757	43640	110083	0	0	8150	632389	0	0
2024-07-08 01:53:32			0	35908	0	0	0	27168	25790	152613	27038	1034703	43629	110075	0	0	8150	632902	0	0
2024-07-08 01:54:32			0	35892	0	0	0	27163	25770	152733	27206	1034677	43627	110073	0	0	8149	633658	0	0
2024-07-08 01:55:32			0	35857	0	0	0	27163	25780	152785	27118	1034659	43650	110073	0	0	8147	635121	0	0
2024-07-08 01:56:32			0	35862	0	0	0	27148	25780	152741	27031	1034605	43617	110067	0	0	8148	634907	0	0
2024-07-08 01:57:32			0	35826	0	0	0	27142	25750	152744	27012	1034624	43637	110065	0	0	8146	636559	0	0
2024-07-08 01:58:32			0	35835	0	0	0	27140	25760	152852	27237	1034633	43615	110064	0	0	8146	636137	0	0
2024-07-08 01:59:32			0	35819	0	0	0	27129	25760	152956	26902	1034660	43626	110060	0	0	8145	636823	0	0
2024-07-08 02:00:32			0	35794	0	0	0	27137	25750	153004	27152	1034597	43648	110063	0	0	8144	637934	0	0
2024-07-08 02:01:32			0	35761	0	0	0	27145	25750	153188	27173	1034589	43636	110066	0	0	8142	639353	0	0
2024-07-08 02:02:32			0	35734	0	0	0	27142	25750	153316	27053	1034624	43648	110065	0	0	8141	640517	0	0
2024-07-08 02:03:32			0	35691	0	0	0	27140	25750	153416	27088	1034562	43647	110064	0	0	8138	642373	0	0
2024-07-08 02:04:32			0	35661	0	0	0	27137	25740	153556	27426	1034571	43646	110063	0	0	8137	643707	0	0
2024-07-08 02:05:32			0	35606	0	0	0	27145	25740	153704	27227	1034607	43647	110066	0	0	8134	646090	0	0
2024-07-08 02:06:32			0	35607	0	0	0	27142	25740	153884	27161	1034634	43647	110065	0	0	8134	646046	0	0
2024-07-08 02:07:32			0	35580	0	0	0	27148	25750	153956	27256	1034642	43659	110067	0	0	8132	647181	0	0
2024-07-08 02:08:32			0	35580	0	0	0	27153	25750	153944	27377	1034589	43636	110069	0	0	8132	647181	0	0
2024-07-08 02:09:32			0	35566	0	0	0	27150	25740	154096	27182	1034607	43647	110068	0	0	8132	647827	0	0
2024-07-08 02:10:32			0	35550	0	0	0	27153	25740	154144	27079	1034518	43668	110069	0	0	8131	648523	0	0
2024-07-08 02:11:32			0	35551	0	0	0	27148	25740	154224	26934	1034571	43635	110067	0	0	8131	648479	0	0
2024-07-08 02:12:32			0	35534	0	0	0	27150	25740	154196	27102	1034607	43636	110068	0	0	8130	649219	0	0
2024-07-08 02:13:32			0	35549	0	0	0	27148	25740	154156	27365	1034598	43646	110067	0	0	8131	648566	0	0
2024-07-08 02:14:32			0	35546	0	0	0	27158	25740	154152	27161	1034634	43647	110071	0	0	8130	648697	0	0
2024-07-08 02:15:32			0	35548	0	0	0	27145	25750	154208	27220	1034642	43636	110066	0	0	8131	648573	0	0
2024-07-08 02:16:32			0	35543	0	0	0	27155	25740	154128	27336	1034634	43659	110070	0	0	8130	648827	0	0
2024-07-08 02:17:32			0	35551	0	0	0	27166	25750	154116	27074	1034705	43637	110074	0	0	8131	648442	0	0
2024-07-08 02:18:32			0	35550	0	0	0	27181	25750	154192	27225	1034669	43659	110080	0	0	8130	648486	0	0
2024-07-08 02:19:32			0	35554	0	0	0	27184	25750	154132	26974	1034696	43669	110081	0	0	8130	648312	0	0
2024-07-08 02:20:32			0	35557	0	0	0	27181	25760	154072	27086	1034794	43660	110080	0	0	8131	648144	0	0
2024-07-08 02:21:32			0	35558	0	0	0	27192	25770	153980	27379	1034811	43661	110084	0	0	8131	648064	0	0
2024-07-08 02:22:32			0	35571	0	0	0	27202	25770	153948	27371	1034758	43671	110088	0	0	8131	647499	0	0
2024-07-08 02:23:32			0	35582	0	0	0	27205	25760	154044	27429	1034740	43660	110089	0	0	8132	647058	0	0
2024-07-08 02:24:32			0	35600	0	0	0	27207	25760	153988	27429	1034749	43671	110090	0	0	8133	646276	0	0
2024-07-08 02:25:32			0	35608	0	0	0	27199	25780	153892	27322	1034793	43639	110087	0	0	8133	645856	0	0
2024-07-08 02:26:32			0	35609	0	0	0	27202	25770	153892	27142	1034838	43671	110088	0	0	8133	645849	0	0
2024-07-08 02:27:32			0	35629	0	0	0	27189	25760	153772	27246	1034695	43661	110083	0	0	8134	645019	0	0
2024-07-08 02:28:32			0	35644	0	0	0	27192	25780	153644	26887	1034740	43650	110084	0	0	8135	644296	0	0
2024-07-08 02:29:32			0	35651	0	0	0	27184	25770	153748	27306	1034731	43661	110081	0	0	8136	644029	0	0
2024-07-08 02:30:32			0	35658	0	0	0	27192	25780	153708	27046	1034766	43662	110084	0	0	8136	643690	0	0
2024-07-08 02:31:32			0	35679	0	0	0	27192	25780	153648	27274	1034713	43639	110084	0	0	8137	642781	0	0
2024-07-08 02:32:32			0	35661	0	0	0	27197	25760	153596	27052	1034883	43661	110086	0	0	8136	643633	0	0
2024-07-08 02:33:32			0	35661	0	0	0	27192	25780	153752	27138	1034829	43663	110084	0	0	8136	643560	0	0
2024-07-08 02:34:32			0	35671	0	0	0	27192	25760	153740	27391	1034749	43649	110084	0	0	8137	643201	0	0
2024-07-08 02:35:32			0	35669	0	0	0	27189	25780	153700	27267	1034874	43662	110083	0	0	8137	643214	0	0
2024-07-08 02:36:32			0	35675	0	0	0	27179	25790	153608	27147	1034811	43651	110079	0	0	8137	642918	0	0
2024-07-08 02:37:32			0	35662	0	0	0	27186	25770	153588	27220	1034677	43638	110082	0	0	8136	643553	0	0
2024-07-08 02:38:32			0	35657	0	0	0	27189	25760	153576	27133	1034749	43649	110083	0	0	8136	643806	0	0
2024-07-08 02:39:32			0	35667	0	0	0	27189	25770	153652	27237	1034731	43649	110083	0	0	8136	643337	0	0
2024-07-08 02:40:32			0	35670	0	0	0	27186	25770	153664	26956	1034731	43649	110082	0	0	8137	643207	0	0
2024-07-08 02:41:32			0	35678	0	0	0	27189	25780	153632	26993	1034766	43650	110083	0	0	8137	642825	0	0
2024-07-08 02:42:32			0	35673	0	0	0	27181	25770	153580	27246	1034731	43649	110080	0	0	8137	643077	0	0
2024-07-08 02:43:32			0	35681	0	0	0	27171	25760	153584	26946	1034713	43648	110076	0	0	8137	642768	0	0
2024-07-08 02:44:32			0	35681	0	0	0	27174	25750	153632	27261	1034624	43648	110077	0	0	8137	642805	0	0
2024-07-08 02:45:32			0	35690	0	0	0	27168	25760	153596	27031	1034668	43649	110075	0	0	8138	642379	0	0
2024-07-08 02:46:32			0	35692	0	0	0	27148	25740	153568	27005	1034607	43659	110067	0	0	8138	642366	0	0
2024-07-08 02:47:32			0	35694	0	0	0	27135	25750	153564	27251	1034508	43614	110062	0	0	8139	642243	0	0
2024-07-08 02:48:32			0	35695	0	0	0	27122	25730	153492	27275	1034482	43635	110057	0	0	8139	642273	0	0
2024-07-08 02:49:32			0	35723	0	0	0	27093	25720	153464	27038	1034429	43623	110046	0	0	8141	641101	0	0
2024-07-08 02:50:32			0	35714	0	0	0	27090	25700	153436	27209	1034349	43621	110045	0	0	8140	641562	0	0
2024-07-08 02:51:32			0	35728	0	0	0	27080	25700	153452	27348	1034323	43610	110041	0	0	8141	640958	0	0
2024-07-08 02:52:32			0	35718	0	0	0	27070	25700	153424	27208	1034233	43621	110037	0	0	8141	641390	0	0
2024-07-08 02:53:32			0	35708	0	0	0	27057	25690	153456	27154	1034278	43610	110032	0	0	8140	641858	0	0
2024-07-08 02:54:32			0	35708	0	0	0	27051	25690	153576	27123	1034270	43609	110030	0	0	8141	641858	0	0
2024-07-08 02:55:32			0	35694	0	0	0	27038	25670	153500	27069	1034180	43618	110025	0	0	8140	642536	0	0
2024-07-08 02:56:32			0	35690	0	0	0	27038	25670	153520	27131	1034163	43618	110025	0	0	8140	642709	0	0
2024-07-08 02:57:32			0	35680	0	0	0	27033	25660	153588	27111	1034118	43617	110023	0	0	8139	643177	0	0
2024-07-08 02:58:32			0	35677	0	0	0	27025	25650	153640	27131	1034127	43627	110020	0	0	8139	643344	0	0
2024-07-08 02:59:32			0	35683	0	0	0	27018	25660	153704	26844	1034163	43616	110017	0	0	8140	643048	0	0
2024-07-08 03:00:32			0	35683	0	0	0	27028	25650	153672	27038	1034127	43638	110021	0	0	8139	643084	0	0
2024-07-08 03:01:32			0	35671	0	0	0	27023	25640	153684	26963	1034083	43637	110019	0	0	8139	643640	0	0
2024-07-08 03:02:32			0	35634	0	0	0	27023	25650	153820	27208	1034119	43638	110019	0	0	8137	645206	0	0
2024-07-08 03:03:32			0	35615	0	0	0	27041	25650	153936	26941	1034172	43649	110026	0	0	8136	646030	0	0
2024-07-08 03:04:32			0	35564	0	0	0	27044	25640	154244	27464	1034190	43637	110027	0	0	8133	648283	0	0
2024-07-08 03:05:32			0	35555	0	0	0	27051	25660	154272	27386	1034217	43649	110030	0	0	8132	648600	0	0
2024-07-08 03:06:32			0	35510	0	0	0	27067	25650	154392	27315	1034199	43649	110036	0	0	8130	650598	0	0
2024-07-08 03:07:32			0	35508	0	0	0	27067	25650	154476	27105	1034253	43649	110036	0	0	8129	650685	0	0
2024-07-08 03:08:32			0	35498	0	0	0	27075	25660	154588	27090	1034306	43639	110039	0	0	8129	651084	0	0
2024-07-08 03:09:32			0	35464	0	0	0	27090	25660	154572	26840	1034386	43662	110045	0	0	8127	652569	0	0
2024-07-08 03:10:32			0	35471	0	0	0	27096	25660	154504	27422	1034333	43662	110047	0	0	8127	652263	0	0
2024-07-08 03:11:32			0	35462	0	0	0	27101	25660	154596	27253	1034386	43662	110049	0	0	8126	652657	0	0
2024-07-08 03:12:32			0	35466	0	0	0	27103	25670	154644	26927	1034323	43640	110050	0	0	8127	652445	0	0
2024-07-08 03:13:32			0	35447	0	0	0	27114	25670	154692	27034	1034431	43640	110054	0	0	8126	653275	0	0
2024-07-08 03:14:32			0	35465	0	0	0	27106	25680	154632	27022	1034359	43663	110051	0	0	8127	652451	0	0
2024-07-08 03:15:32			0	35465	0	0	0	27114	25690	154604	26942	1034430	43653	110054	0	0	8127	652414	0	0
2024-07-08 03:16:32			0	35466	0	0	0	27114	25690	154644	27367	1034430	43642	110054	0	0	8127	652370	0	0
2024-07-08 03:17:32			0	35453	0	0	0	27119	25700	154528	27277	1034430	43654	110056	0	0	8126	652901	0	0
2024-07-08 03:18:32			0	35482	0	0	0	27109	25700	154616	26880	1034421	43643	110052	0	0	8128	651634	0	0
2024-07-08 03:19:32			0	35472	0	0	0	27116	25690	154588	27159	1034377	43642	110055	0	0	8127	652108	0	0
2024-07-08 03:20:32			0	35475	0	0	0	27103	25690	154552	27156	1034359	43665	110050	0	0	8127	651977	0	0
2024-07-08 03:21:32			0	35477	0	0	0	27109	25690	154556	27142	1034404	43653	110052	0	0	8127	651890	0	0
2024-07-08 03:22:32			0	35494	0	0	0	27101	25700	154600	26887	1034421	43654	110049	0	0	8128	651111	0	0
2024-07-08 03:23:32			0	35472	0	0	0	27109	25690	154544	27286	1034377	43653	110052	0	0	8127	652108	0	0
2024-07-08 03:24:32			0	35483	0	0	0	27101	25690	154584	27017	1034386	43665	110049	0	0	8128	651628	0	0
2024-07-08 03:25:32			0	35514	0	0	0	27103	25690	154452	27055	1034386	43654	110050	0	0	8129	650275	0	0
2024-07-08 03:26:32			0	35498	0	0	0	27101	25680	154488	27320	1034332	43652	110049	0	0	8129	651010	0	0
2024-07-08 03:27:32			0	35501	0	0	0	27090	25680	154492	27220	1034314	43629	110045	0	0	8129	650879	0	0
2024-07-08 03:28:32			0	35508	0	0	0	27098	25690	154444	27039	1034332	43631	110048	0	0	8129	650537	0	0
2024-07-08 03:29:32			0	35514	0	0	0	27085	25670	154412	27229	1034323	43651	110043	0	0	8130	650349	0	0
2024-07-08 03:30:32			0	35506	0	0	0	27077	25680	154392	27190	1034279	43641	110040	0	0	8129	650661	0	0
2024-07-08 03:31:32			0	35521	0	0	0	27072	25670	154416	27045	1034216	43640	110038	0	0	8130	650044	0	0
2024-07-08 03:32:32			0	35516	0	0	0	27072	25670	154360	27043	1034243	43629	110038	0	0	8130	650262	0	0
2024-07-08 03:33:32			0	35521	0	0	0	27067	25670	154328	27173	1034234	43640	110036	0	0	8130	650044	0	0
2024-07-08 03:34:32			0	35524	0	0	0	27059	25660	154428	27104	1034225	43639	110033	0	0	8131	649950	0	0
2024-07-08 03:35:32			0	35512	0	0	0	27064	25660	154496	27105	1034198	43650	110035	0	0	8130	650473	0	0
2024-07-08 03:36:32			0	35504	0	0	0	27067	25660	154464	27150	1034252	43628	110036	0	0	8129	650822	0	0
2024-07-08 03:37:32			0	35525	0	0	0	27057	25660	154396	27197	1034243	43616	110032	0	0	8131	649907	0	0
2024-07-08 03:38:32			0	35533	0	0	0	27064	25660	154404	27031	1034252	43639	110035	0	0	8131	649558	0	0
2024-07-08 03:39:32			0	35507	0	0	0	27072	25660	154440	27024	1034252	43628	110038	0	0	8129	650692	0	0
2024-07-08 03:40:32			0	35532	0	0	0	27072	25650	154484	27166	1034235	43649	110038	0	0	8131	649639	0	0
2024-07-08 03:41:32			0	35508	0	0	0	27070	25660	154464	27142	1034306	43639	110037	0	0	8129	650648	0	0
2024-07-08 03:42:32			0	35507	0	0	0	27088	25670	154452	27147	1034368	43651	110044	0	0	8129	650655	0	0
2024-07-08 03:43:32			0	35518	0	0	0	27090	25670	154384	26852	1034368	43629	110045	0	0	8130	650175	0	0
2024-07-08 03:44:32			0	35521	0	0	0	27088	25670	154484	27280	1034377	43640	110044	0	0	8130	650044	0	0
2024-07-08 03:45:32			0	35515	0	0	0	27090	25680	154452	27015	1034359	43641	110045	0	0	8130	650269	0	0
2024-07-08 03:46:32			0	35509	0	0	0	27096	25670	154412	27086	1034350	43640	110047	0	0	8129	650567	0	0
2024-07-08 03:47:32			0	35499	0	0	0	27088	25680	154384	27123	1034332	43641	110044	0	0	8129	650967	0	0
2024-07-08 03:48:32			0	35514	0	0	0	27098	25680	154468	27071	1034359	43652	110048	0	0	8129	650312	0	0
2024-07-08 03:49:32			0	35536	0	0	0	27096	25680	154476	27253	1034332	43619	110047	0	0	8131	649354	0	0
2024-07-08 03:50:32			0	35530	0	0	0	27101	25690	154420	26939	1034377	43653	110049	0	0	8130	649578	0	0
2024-07-08 03:51:32			0	35529	0	0	0	27096	25690	154360	27020	1034359	43643	110047	0	0	8130	649622	0	0
2024-07-08 03:52:32			0	35520	0	0	0	27096	25680	154444	27322	1034413	43652	110047	0	0	8130	650051	0	0
2024-07-08 03:53:32			0	35537	0	0	0	27096	25670	154388	27182	1034431	43640	110047	0	0	8131	649347	0	0
2024-07-08 03:54:32			0	35528	0	0	0	27098	25680	154448	26838	1034386	43663	110048	0	0	8130	649702	0	0
2024-07-08 03:55:32			0	35534	0	0	0	27116	25680	154404	27123	1034386	43652	110055	0	0	8130	649441	0	0
2024-07-08 03:56:32			0	35527	0	0	0	27116	25690	154412	27308	1034412	43643	110055	0	0	8130	649709	0	0
2024-07-08 03:57:32			0	35525	0	0	0	27114	25690	154420	27062	1034412	43654	110054	0	0	8130	649796	0	0
2024-07-08 03:58:32			0	35530	0	0	0	27116	25690	154324	26890	1034439	43643	110055	0	0	8130	649578	0	0
2024-07-08 03:59:32			0	35541	0	0	0	27119	25690	154332	27457	1034439	43654	110056	0	0	8131	649099	0	0
2024-07-08 04:00:32			0	35542	0	0	0	27119	25700	154292	27230	1034394	43665	110056	0	0	8131	649019	0	0
2024-07-08 04:01:32			0	35538	0	0	0	27122	25690	154352	27057	1034457	43653	110057	0	0	8130	649230	0	0
2024-07-08 04:02:32			0	35552	0	0	0	27140	25700	154300	27147	1034475	43654	110064	0	0	8131	648583	0	0
2024-07-08 04:03:32			0	35540	0	0	0	27142	25710	154344	27171	1034599	43644	110065	0	0	8130	649069	0	0
2024-07-08 04:04:32			0	35541	0	0	0	27150	25710	154284	27270	1034554	43666	110068	0	0	8130	649025	0	0
2024-07-08 04:05:32			0	35533	0	0	0	27158	25720	154292	27234	1034599	43666	110071	0	0	8130	649336	0	0
2024-07-08 04:06:32			0	35528	0	0	0	27150	25720	154316	27284	1034617	43645	110068	0	0	8129	649554	0	0
2024-07-08 04:07:32			0	35538	0	0	0	27155	25710	154368	27097	1034528	43633	110070	0	0	8130	649156	0	0
2024-07-08 04:08:32			0	35547	0	0	0	27140	25720	154216	27036	1034510	43633	110064	0	0	8131	648727	0	0
2024-07-08 04:09:32			0	35570	0	0	0	27140	25710	154160	27327	1034412	43644	110064	0	0	8132	647764	0	0
2024-07-08 04:10:32			0	35584	0	0	0	27124	25700	154140	26871	1034403	43654	110058	0	0	8133	647192	0	0
2024-07-08 04:11:32			0	35630	0	0	0	27114	25690	154112	27230	1034412	43643	110054	0	0	8135	645232	0	0
2024-07-08 04:12:32			0	35627	0	0	0	27106	25690	153976	27105	1034359	43643	110051	0	0	8135	645363	0	0
2024-07-08 04:13:32			0	35659	0	0	0	27101	25690	153868	27152	1034412	43654	110049	0	0	8137	643976	0	0
2024-07-08 04:14:32			0	35659	0	0	0	27088	25690	153848	27320	1034323	43642	110044	0	0	8137	643976	0	0
2024-07-08 04:15:32			0	35706	0	0	0	27088	25690	153732	27317	1034332	43654	110044	0	0	8140	641944	0	0
2024-07-08 04:16:32			0	35707	0	0	0	27085	25680	153592	27201	1034305	43641	110043	0	0	8140	641937	0	0
2024-07-08 04:17:32			0	35753	0	0	0	27080	25670	153512	27048	1034216	43640	110041	0	0	8142	639989	0	0
2024-07-08 04:18:32			0	35755	0	0	0	27072	25680	153508	27234	1034252	43652	110038	0	0	8143	639867	0	0
2024-07-08 04:19:32			0	35765	0	0	0	27072	25660	153392	27189	1034297	43616	110038	0	0	8143	639509	0	0
2024-07-08 04:20:32			0	35766	0	0	0	27062	25660	153368	27339	1034252	43639	110034	0	0	8143	639466	0	0
2024-07-08 04:21:32			0	35768	0	0	0	27064	25660	153356	27112	1034252	43650	110035	0	0	8143	639380	0	0
2024-07-08 04:22:32			0	35787	0	0	0	27064	25660	153276	27350	1034217	43627	110035	0	0	8144	638562	0	0
2024-07-08 04:23:32			0	35785	0	0	0	27054	25660	153264	27274	1034198	43639	110031	0	0	8145	638648	0	0
2024-07-08 04:24:32			0	35800	0	0	0	27033	25660	153232	27126	1034136	43627	110023	0	0	8146	638003	0	0
2024-07-08 04:25:32			0	35800	0	0	0	27031	25650	153276	27206	1034092	43616	110022	0	0	8146	638039	0	0
2024-07-08 04:26:32			0	35800	0	0	0	27023	25640	153220	27395	1034056	43615	110019	0	0	8146	638075	0	0
2024-07-08 04:27:32			0	35796	0	0	0	27010	25640	153272	27265	1034083	43615	110014	0	0	8146	638247	0	0
2024-07-08 04:28:32			0	35786	0	0	0	27020	25630	153228	27343	1034111	43636	110018	0	0	8145	638714	0	0
2024-07-08 04:29:32			0	35781	0	0	0	27012	25620	153320	27142	1033941	43635	110015	0	0	8145	638965	0	0
2024-07-08 04:30:32			0	35785	0	0	0	27010	25630	153304	27206	1033977	43625	110014	0	0	8145	638757	0	0
2024-07-08 04:31:32			0	35748	0	0	0	27005	25620	153404	27204	1033986	43624	110012	0	0	8143	640387	0	0
2024-07-08 04:32:32			0	35753	0	0	0	27007	25620	153396	27379	1033986	43634	110013	0	0	8143	640172	0	0
2024-07-08 04:33:32			0	35758	0	0	0	27007	25610	153512	27341	1034049	43624	110013	0	0	8144	639992	0	0
2024-07-08 04:34:32			0	35744	0	0	0	27010	25610	153516	27031	1033977	43634	110014	0	0	8143	640596	0	0
2024-07-08 04:35:32			0	35740	0	0	0	27020	25610	153508	27015	1034004	43634	110018	0	0	8142	640768	0	0
2024-07-08 04:36:32			0	35766	0	0	0	27015	25600	153440	26930	1033960	43623	110016	0	0	8144	639684	0	0
2024-07-08 04:37:32			0	35741	0	0	0	27010	25610	153420	27286	1034004	43646	110014	0	0	8143	640725	0	0
2024-07-08 04:38:32			0	35767	0	0	0	27010	25600	153404	27227	1033924	43622	110014	0	0	8144	639641	0	0
2024-07-08 04:39:32			0	35790	0	0	0	27010	25600	153408	27220	1033906	43656	110014	0	0	8145	638651	0	0
2024-07-08 04:40:32			0	35811	0	0	0	27002	25600	153292	26871	1033924	43644	110011	0	0	8146	637747	0	0
2024-07-08 04:41:32			0	35841	0	0	0	27002	25600	153096	27055	1033906	43623	110011	0	0	8148	636458	0	0
2024-07-08 04:42:32			0	35856	0	0	0	27002	25600	153048	27128	1033924	43632	110011	0	0	8149	635815	0	0
2024-07-08 04:43:32			0	35898	0	0	0	27002	25590	152925	27183	1033889	43631	110011	0	0	8151	634051	0	0
2024-07-08 04:44:32			0	35925	0	0	0	26986	25580	152853	26948	1033871	43631	110005	0	0	8153	632932	0	0
2024-07-08 04:45:32			0	35925	0	0	0	26992	25580	152733	27294	1033845	43631	110007	0	0	8153	632932	0	0
2024-07-08 04:46:32			0	35966	0	0	0	26994	25580	152621	27251	1033845	43631	110008	0	0	8155	631180	0	0
2024-07-08 04:47:32			0	35979	0	0	0	26971	25590	152537	27346	1033853	43621	109999	0	0	8156	630590	0	0
2024-07-08 04:48:32			0	36012	0	0	0	26966	25580	152449	27339	1033863	43642	109997	0	0	8158	629219	0	0
2024-07-08 04:49:32			0	36051	0	0	0	26950	25580	152321	27100	1033836	43630	109991	0	0	8160	627560	0	0
2024-07-08 04:50:32			0	36085	0	0	0	26948	25560	152197	27079	1033756	43629	109990	0	0	8162	626187	0	0
2024-07-08 04:51:32			0	36097	0	0	0	26945	25550	152045	27216	1033765	43617	109989	0	0	8162	625714	0	0
2024-07-08 04:52:32			0	36154	0	0	0	26937	25560	151889	27086	1033702	43641	109986	0	0	8166	623264	0	0
2024-07-08 04:53:32			0	36170	0	0	0	26929	25560	151717	27109	1033721	43618	109983	0	0	8167	622588	0	0
2024-07-08 04:54:32			0	36209	0	0	0	26924	25550	151637	27086	1033676	43617	109981	0	0	8169	620976	0	0
2024-07-08 04:55:32			0	36222	0	0	0	26929	25540	151597	27192	1033640	43628	109983	0	0	8169	620463	0	0
2024-07-08 04:56:32			0	36236	0	0	0	26929	25540	151461	27402	1033667	43617	109983	0	0	8170	619873	0	0
2024-07-08 04:57:32			0	36268	0	0	0	26935	25540	151389	27137	1033605	43616	109985	0	0	8172	618525	0	0
2024-07-08 04:58:32			0	36293	0	0	0	26937	25530	151301	27156	1033623	43626	109986	0	0	8173	617509	0	0
2024-07-08 04:59:32			0	36304	0	0	0	26932	25530	151309	27376	1033543	43604	109984	0	0	8173	617047	0	0
2024-07-08 05:00:32			0	36336	0	0	0	26935	25530	151153	27192	1033543	43626	109985	0	0	8175	615704	0	0
2024-07-08 05:01:32			0	36352	0	0	0	26945	25520	151089	26982	1033606	43625	109989	0	0	8176	615068	0	0
2024-07-08 05:02:32			0	36356	0	0	0	26953	25530	151089	27149	1033650	43626	109992	0	0	8176	614866	0	0
2024-07-08 05:03:32			0	36344	0	0	0	26961	25540	151073	27256	1033685	43638	109995	0	0	8175	615334	0	0
2024-07-08 05:04:32			0	36376	0	0	0	26971	25530	151057	26960	1033757	43637	109999	0	0	8177	614028	0	0
2024-07-08 05:05:32			0	36339	0	0	0	26974	25540	151017	27229	1033828	43639	110000	0	0	8175	615543	0	0
2024-07-08 05:06:32			0	36359	0	0	0	26981	25550	151025	27422	1033810	43628	110003	0	0	8176	614670	0	0
2024-07-08 05:07:32			0	36364	0	0	0	26986	25550	150921	27098	1033783	43639	110005	0	0	8176	614461	0	0
2024-07-08 05:08:32			0	36395	0	0	0	26984	25560	151001	27206	1033828	43640	110004	0	0	8177	613128	0	0
2024-07-08 05:09:32			0	36409	0	0	0	27002	25550	150877	27274	1033846	43628	110011	0	0	8178	612578	0	0
2024-07-08 05:10:32			0	36466	0	0	0	27002	25560	150693	27145	1033863	43652	110011	0	0	8181	610164	0	0
2024-07-08 05:11:32			0	36483	0	0	0	27002	25570	150469	26998	1033934	43641	110011	0	0	8182	609422	0	0
2024-07-08 05:12:32			0	36518	0	0	0	27012	25570	150441	27057	1033908	43641	110015	0	0	8183	607965	0	0
2024-07-08 05:13:32			0	36532	0	0	0	27015	25570	150361	27281	1033908	43641	110016	0	0	8184	607384	0	0
2024-07-08 05:14:32			0	36566	0	0	0	27010	25580	150229	27242	1033970	43642	110014	0	0	8186	605938	0	0
2024-07-08 05:15:32			0	36589	0	0	0	27018	25590	150274	27081	1033960	43643	110017	0	0	8187	604950	0	0
2024-07-08 05:16:32			0	36627	0	0	0	27005	25580	149982	27192	1033916	43653	110012	0	0	8189	603411	0	0
2024-07-08 05:17:32			0	36658	0	0	0	27010	25580	149846	27230	1033943	43642	110014	0	0	8191	602130	0	0
2024-07-08 05:18:32			0	36710	0	0	0	27018	25590	149730	27279	1033969	43621	110017	0	0	8194	599951	0	0
2024-07-08 05:19:32			0	36769	0	0	0	27010	25590	149454	27208	1033960	43643	110014	0	0	8197	597524	0	0
2024-07-08 05:20:32			0	36813	0	0	0	27002	25580	149242	27341	1033889	43653	110011	0	0	8199	595752	0	0
2024-07-08 05:21:32			0	36869	0	0	0	27010	25590	149046	27123	1033907	43631	110014	0	0	8202	593426	0	0
2024-07-08 05:22:32			0	36904	0	0	0	26999	25580	148798	27149	1033916	43642	110010	0	0	8204	592029	0	0
2024-07-08 05:23:32			0	36988	0	0	0	26994	25580	148598	27057	1033889	43642	110008	0	0	8208	588607	0	0
2024-07-08 05:24:32			0	37037	0	0	0	26992	25570	148306	27107	1033899	43629	110007	0	0	8211	586650	0	0
2024-07-08 05:25:32			0	37120	0	0	0	26984	25560	148114	27422	1033810	43629	110004	0	0	8215	583322	0	0
2024-07-08 05:26:32			0	37169	0	0	0	26963	25560	147794	27287	1033756	43629	109996	0	0	8218	581343	0	0
2024-07-08 05:27:32			0	37229	0	0	0	26958	25560	147582	27079	1033747	43640	109994	0	0	8221	578927	0	0
2024-07-08 05:28:32			0	37307	0	0	0	26955	25560	147362	26833	1033747	43629	109993	0	0	8226	575795	0	0
2024-07-08 05:29:32			0	37346	0	0	0	26942	25540	147139	27036	1033667	43639	109988	0	0	8228	574299	0	0
2024-07-08 05:30:32			0	37349	0	0	0	26937	25550	147055	26902	1033712	43639	109986	0	0	8228	574146	0	0
2024-07-08 05:31:32			0	37388	0	0	0	26929	25540	147051	27178	1033587	43617	109983	0	0	8230	572620	0	0
2024-07-08 05:32:32			0	37406	0	0	0	26901	25540	146887	26958	1033578	43638	109972	0	0	8231	571901	0	0
2024-07-08 05:33:32			0	37413	0	0	0	26901	25530	146791	27149	1033534	43614	109972	0	0	8232	571655	0	0
2024-07-08 05:34:32			0	37401	0	0	0	26890	25520	147027	26833	1033498	43625	109968	0	0	8231	572166	0	0
2024-07-08 05:35:32			0	37315	0	0	0	26888	25510	147258	26783	1033454	43614	109967	0	0	8227	575638	0	0
2024-07-08 05:36:32			0	37213	0	0	0	26888	25510	147722	27170	1033392	43624	109967	0	0	8222	579735	0	0
2024-07-08 05:37:32			0	37101	0	0	0	26870	25500	148090	27175	1033383	43613	109960	0	0	8216	584289	0	0
2024-07-08 05:38:32			0	37011	0	0	0	26872	25490	148538	27229	1033339	43623	109961	0	0	8211	587973	0	0
2024-07-08 05:39:32			0	36918	0	0	0	26859	25480	148886	27190	1033330	43611	109956	0	0	8207	591795	0	0
2024-07-08 05:40:32			0	36861	0	0	0	26859	25470	149062	27514	1033313	43611	109956	0	0	8204	594158	0	0
2024-07-08 05:41:32			0	36820	0	0	0	26862	25480	149290	26814	1033241	43622	109957	0	0	8201	595804	0	0
2024-07-08 05:42:32			0	36765	0	0	0	26851	25480	149462	27159	1033303	43611	109953	0	0	8199	598063	0	0
2024-07-08 05:43:32			0	36748	0	0	0	26859	25480	149626	27074	1033295	43611	109956	0	0	8198	598762	0	0
2024-07-08 05:44:32			0	36749	0	0	0	26854	25470	149662	27267	1033304	43610	109954	0	0	8198	598755	0	0
2024-07-08 05:45:32			0	36738	0	0	0	26854	25460	149734	27145	1033242	43620	109954	0	0	8197	599241	0	0
2024-07-08 05:46:32			0	36741	0	0	0	26831	25460	149690	27092	1033126	43608	109945	0	0	8198	599118	0	0
2024-07-08 05:47:32			0	36740	0	0	0	26831	25450	149574	27211	1033171	43619	109945	0	0	8198	599193	0	0
2024-07-08 05:48:32			0	36749	0	0	0	26823	25440	149618	27173	1033153	43618	109942	0	0	8198	598857	0	0
2024-07-08 05:49:32			0	36773	0	0	0	26823	25450	149446	27521	1033144	43597	109942	0	0	8199	597836	0	0
2024-07-08 05:50:32			0	36785	0	0	0	26815	25440	149510	27315	1033064	43617	109939	0	0	8200	597376	0	0
2024-07-08 05:51:32			0	36800	0	0	0	26818	25430	149430	27397	1033100	43595	109940	0	0	8201	596794	0	0
2024-07-08 05:52:32			0	36808	0	0	0	26810	25420	149374	27287	1033029	43604	109937	0	0	8201	596500	0	0
2024-07-08 05:53:32			0	36814	0	0	0	26805	25420	149330	27081	1032984	43616	109935	0	0	8202	596254	0	0
2024-07-08 05:54:32			0	36797	0	0	0	26805	25430	149382	27154	1033074	43617	109935	0	0	8201	596918	0	0
2024-07-08 05:55:32			0	36816	0	0	0	26805	25410	149338	27476	1032985	43626	109935	0	0	8202	596205	0	0
2024-07-08 05:56:32			0	36836	0	0	0	26799	25410	149278	26970	1033074	43615	109933	0	0	8203	595385	0	0
2024-07-08 05:57:32			0	36836	0	0	0	26794	25410	149274	26875	1033012	43604	109931	0	0	8203	595385	0	0
2024-07-08 05:58:32			0	36843	0	0	0	26802	25400	149282	27109	1032941	43625	109934	0	0	8203	595132	0	0
2024-07-08 05:59:32			0	36861	0	0	0	26799	25400	149330	26974	1032967	43614	109933	0	0	8204	594395	0	0
2024-07-08 06:00:32			0	36850	0	0	0	26794	25400	149138	27171	1033021	43602	109931	0	0	8204	594845	0	0
2024-07-08 06:01:32			0	36851	0	0	0	26794	25400	149194	27182	1032922	43603	109931	0	0	8204	594804	0	0
2024-07-08 06:02:32			0	36848	0	0	0	26792	25390	149282	26975	1032959	43614	109930	0	0	8204	594961	0	0
2024-07-08 06:03:32			0	36845	0	0	0	26792	25390	149186	26916	1032959	43614	109930	0	0	8204	595084	0	0
2024-07-08 06:04:32			0	36858	0	0	0	26784	25380	149166	27279	1032941	43613	109927	0	0	8204	594585	0	0
2024-07-08 06:05:32			0	36900	0	0	0	26786	25400	149178	27196	1032941	43602	109928	0	0	8207	592799	0	0
2024-07-08 06:06:32			0	36899	0	0	0	26781	25380	149022	27246	1032852	43612	109926	0	0	8206	592908	0	0
2024-07-08 06:07:32			0	36925	0	0	0	26779	25380	148954	27227	1032941	43613	109925	0	0	8208	591845	0	0
2024-07-08 06:08:32			0	36926	0	0	0	26773	25390	148966	27149	1032896	43613	109923	0	0	8208	591771	0	0
2024-07-08 06:09:32			0	36945	0	0	0	26779	25370	148762	27229	1032870	43622	109925	0	0	8209	591063	0	0
2024-07-08 06:10:32			0	36958	0	0	0	26771	25380	148814	27173	1032825	43612	109922	0	0	8210	590499	0	0
2024-07-08 06:11:32			0	36950	0	0	0	26768	25370	148770	27348	1032817	43622	109921	0	0	8209	590858	0	0
2024-07-08 06:12:32			0	36948	0	0	0	26761	25370	148798	27074	1032808	43599	109918	0	0	8209	590940	0	0
2024-07-08 06:13:32			0	36963	0	0	0	26758	25360	148746	27020	1032790	43610	109917	0	0	8210	590362	0	0
2024-07-08 06:14:32			0	36952	0	0	0	26758	25350	148834	26694	1032719	43620	109917	0	0	8209	590844	0	0
2024-07-08 06:15:32			0	36949	0	0	0	26766	25360	148798	26788	1032790	43610	109920	0	0	8209	590933	0	0
2024-07-08 06:16:32			0	36933	0	0	0	26768	25360	148774	27046	1032817	43631	109921	0	0	8208	591586	0	0
2024-07-08 06:17:32			0	36933	0	0	0	26763	25350	148886	27107	1032755	43609	109919	0	0	8208	591619	0	0
2024-07-08 06:18:32			0	36941	0	0	0	26758	25350	148902	27124	1032773	43597	109917	0	0	8209	591293	0	0
2024-07-08 06:19:32			0	36926	0	0	0	26753	25350	148834	26785	1032782	43620	109915	0	0	8208	591905	0	0
2024-07-08 06:20:32			0	36931	0	0	0	26750	25350	148918	27140	1032746	43609	109914	0	0	8209	591701	0	0
2024-07-08 06:21:32			0	36924	0	0	0	26748	25340	148854	27048	1032729	43608	109913	0	0	8208	592021	0	0
2024-07-08 06:22:32			0	36921	0	0	0	26745	25350	148926	27227	1032719	43597	109912	0	0	8208	592109	0	0
2024-07-08 06:23:32			0	36914	0	0	0	26735	25340	148858	26937	1032729	43608	109908	0	0	8208	592429	0	0
2024-07-08 06:24:32			0	36894	0	0	0	26748	25340	148886	27192	1032764	43609	109913	0	0	8207	593247	0	0
2024-07-08 06:25:32			0	36923	0	0	0	26750	25330	148918	26944	1032667	43607	109914	0	0	8208	592095	0	0
2024-07-08 06:26:32			0	36906	0	0	0	26745	25340	148978	27034	1032702	43619	109912	0	0	8207	592756	0	0
2024-07-08 06:27:32			0	36923	0	0	0	26737	25330	148918	27060	1032658	43607	109909	0	0	8208	592095	0	0
2024-07-08 06:28:32			0	36919	0	0	0	26740	25330	148942	27246	1032667	43618	109910	0	0	8208	592258	0	0
2024-07-08 06:29:32			0	36911	0	0	0	26737	25330	148930	26915	1032613	43607	109909	0	0	8208	592585	0	0
2024-07-08 06:30:32			0	36929	0	0	0	26737	25330	148958	27152	1032711	43618	109909	0	0	8209	591850	0	0
2024-07-08 06:31:32			0	36927	0	0	0	26735	25330	148978	27062	1032667	43618	109908	0	0	8208	591932	0	0
2024-07-08 06:32:32			0	36903	0	0	0	26729	25320	148966	27147	1032676	43617	109906	0	0	8207	592946	0	0
2024-07-08 06:33:32			0	36913	0	0	0	26735	25330	149026	26956	1032685	43629	109908	0	0	8208	592504	0	0
2024-07-08 06:34:32			0	36902	0	0	0	26735	25320	148962	27244	1032622	43606	109908	0	0	8207	592987	0	0
2024-07-08 06:35:32			0	36890	0	0	0	26740	25330	149038	27239	1032658	43618	109910	0	0	8206	593444	0	0
2024-07-08 06:36:32			0	36897	0	0	0	26742	25330	149026	27206	1032685	43618	109911	0	0	8207	593158	0	0
2024-07-08 06:37:32			0	36894	0	0	0	26737	25320	149126	27457	1032649	43617	109909	0	0	8207	593314	0	0
2024-07-08 06:38:32			0	36902	0	0	0	26724	25320	149178	27256	1032676	43606	109904	0	0	8207	592987	0	0
2024-07-08 06:39:32			0	36891	0	0	0	26745	25330	149046	27071	1032631	43618	109912	0	0	8206	593403	0	0
2024-07-08 06:40:32			0	36887	0	0	0	26740	25330	149018	27159	1032685	43596	109910	0	0	8206	593567	0	0
2024-07-08 06:41:32			0	36897	0	0	0	26732	25330	149062	27177	1032693	43607	109907	0	0	8207	593158	0	0
2024-07-08 06:42:32			0	36874	0	0	0	26732	25320	148958	27102	1032614	43606	109907	0	0	8206	594133	0	0
2024-07-08 06:43:32			0	36878	0	0	0	26729	25330	148982	27244	1032658	43629	109906	0	0	8206	593935	0	0
2024-07-08 06:44:32			0	36890	0	0	0	26737	25320	149118	27241	1032721	43606	109909	0	0	8206	593478	0	0
2024-07-08 06:45:32			0	36897	0	0	0	26735	25330	149022	27229	1032685	43618	109908	0	0	8207	593158	0	0
2024-07-08 06:46:32			0	36892	0	0	0	26740	25320	148998	27156	1032694	43617	109910	0	0	8207	593396	0	0
2024-07-08 06:47:32			0	36908	0	0	0	26740	25330	148966	27255	1032658	43618	109910	0	0	8207	592708	0	0
2024-07-08 06:48:32			0	36906	0	0	0	26740	25320	149086	27055	1032703	43617	109910	0	0	8207	592823	0	0
2024-07-08 06:49:32			0	36899	0	0	0	26737	25320	149058	27327	1032640	43606	109909	0	0	8207	593110	0	0
2024-07-08 06:50:32			0	36901	0	0	0	26732	25320	148998	26951	1032622	43595	109907	0	0	8207	593028	0	0
2024-07-08 06:51:32			0	36905	0	0	0	26735	25330	149114	27218	1032738	43618	109908	0	0	8207	592831	0	0
2024-07-08 06:52:32			0	36904	0	0	0	26735	25320	148954	27270	1032729	43606	109908	0	0	8207	592905	0	0
2024-07-08 06:53:32			0	36903	0	0	0	26748	25330	149022	27438	1032693	43618	109913	0	0	8207	592912	0	0
2024-07-08 06:54:32			0	36922	0	0	0	26755	25330	148994	27067	1032720	43629	109916	0	0	8208	592136	0	0
2024-07-08 06:55:32			0	36903	0	0	0	26763	25340	149030	27022	1032729	43619	109919	0	0	8207	592879	0	0
2024-07-08 06:56:32			0	36900	0	0	0	26771	25330	149078	27202	1032792	43618	109922	0	0	8206	593035	0	0
2024-07-08 06:57:32			0	36893	0	0	0	26781	25340	148994	27178	1032782	43629	109926	0	0	8206	593288	0	0
2024-07-08 06:58:32			0	36901	0	0	0	26771	25340	148938	27261	1032809	43619	109922	0	0	8207	592960	0	0
2024-07-08 06:59:32			0	36905	0	0	0	26786	25350	148978	27083	1032827	43620	109928	0	0	8207	592763	0	0
2024-07-08 07:00:32			0	36906	0	0	0	26789	25350	149002	27156	1032889	43620	109929	0	0	8207	592722	0	0
2024-07-08 07:01:32			0	36892	0	0	0	26807	25350	149034	27052	1032934	43642	109936	0	0	8206	593295	0	0
2024-07-08 07:02:32			0	36887	0	0	0	26815	25370	149054	27187	1033004	43632	109939	0	0	8205	593432	0	0
2024-07-08 07:03:32			0	36889	0	0	0	26825	25380	149098	27152	1033129	43634	109943	0	0	8205	593316	0	0
2024-07-08 07:04:32			0	36884	0	0	0	26838	25390	149042	27189	1033084	43646	109948	0	0	8205	593487	0	0
2024-07-08 07:05:32			0	36904	0	0	0	26854	25390	148974	27180	1033164	43634	109954	0	0	8206	592669	0	0
2024-07-08 07:06:32			0	36899	0	0	0	26867	25400	149126	26939	1033235	43625	109959	0	0	8205	592840	0	0
2024-07-08 07:07:32			0	36897	0	0	0	26875	25420	149042	27284	1033243	43637	109962	0	0	8205	592854	0	0
2024-07-08 07:08:32			0	36905	0	0	0	26877	25420	148958	27244	1033306	43627	109963	0	0	8205	592528	0	0
2024-07-08 07:09:32			0	36905	0	0	0	26893	25420	148942	27215	1033324	43637	109969	0	0	8205	592528	0	0
2024-07-08 07:10:32			0	36940	0	0	0	26901	25430	148858	27038	1033350	43650	109972	0	0	8207	591065	0	0
2024-07-08 07:11:32			0	36937	0	0	0	26911	25440	148594	27112	1033314	43640	109976	0	0	8207	591154	0	0
2024-07-08 07:12:32			0	36987	0	0	0	26911	25460	148638	27239	1033447	43641	109976	0	0	8209	589049	0	0
2024-07-08 07:13:32			0	36997	0	0	0	26922	25460	148598	27228	1033421	43629	109980	0	0	8210	588642	0	0
2024-07-08 07:14:32			0	37035	0	0	0	26927	25460	148402	27241	1033447	43629	109982	0	0	8211	587098	0	0
2024-07-08 07:15:32			0	37057	0	0	0	26924	25470	148334	27232	1033474	43644	109981	0	0	8213	586172	0	0
2024-07-08 07:16:32			0	37058	0	0	0	26932	25470	148258	27244	1033572	43643	109984	0	0	8213	586131	0	0
2024-07-08 07:17:32			0	37096	0	0	0	26932	25470	148162	27097	1033500	43644	109984	0	0	8215	584591	0	0
2024-07-08 07:18:32			0	37111	0	0	0	26942	25480	148094	27274	1033536	43644	109988	0	0	8215	583951	0	0
2024-07-08 07:19:32			0	37137	0	0	0	26935	25490	148022	27242	1033634	43645	109985	0	0	8217	582867	0	0
2024-07-08 07:20:32			0	37140	0	0	0	26945	25500	147986	26998	1033616	43657	109989	0	0	8217	582712	0	0
2024-07-08 07:21:32			0	37180	0	0	0	26942	25500	147850	27263	1033598	43646	109988	0	0	8219	581098	0	0
2024-07-08 07:22:32			0	37175	0	0	0	26945	25500	147750	27149	1033508	43646	109989	0	0	8219	581300	0	0
2024-07-08 07:23:32			0	37200	0	0	0	26953	25500	147706	27315	1033651	43646	109992	0	0	8220	580292	0	0
2024-07-08 07:24:32			0	37213	0	0	0	26958	25510	147706	27319	1033660	43634	109994	0	0	8220	579735	0	0
2024-07-08 07:25:32			0	37222	0	0	0	26958	25510	147682	27163	1033669	43646	109994	0	0	8221	579373	0	0
2024-07-08 07:26:32			0	37228	0	0	0	26963	25510	147618	26965	1033722	43646	109996	0	0	8221	579131	0	0
2024-07-08 07:27:32			0	37244	0	0	0	26971	25520	147630	27183	1033713	43647	109999	0	0	8222	578455	0	0
2024-07-08 07:28:32			0	37260	0	0	0	26961	25530	147626	27357	1033695	43636	109995	0	0	8223	577779	0	0
2024-07-08 07:29:32			0	37262	0	0	0	26974	25530	147550	27039	1033757	43637	110000	0	0	8223	577699	0	0
2024-07-08 07:30:32			0	37251	0	0	0	26963	25530	147506	27133	1033748	43636	109996	0	0	8222	578141	0	0
2024-07-08 07:31:32			0	37272	0	0	0	26966	25530	147386	27144	1033721	43636	109997	0	0	8223	577297	0	0
2024-07-08 07:32:32			0	37270	0	0	0	26968	25540	147418	27059	1033739	43638	109998	0	0	8223	577345	0	0
2024-07-08 07:33:32			0	37294	0	0	0	26958	25520	147390	26765	1033659	43625	109994	0	0	8225	576447	0	0
2024-07-08 07:34:32			0	37291	0	0	0	26961	25530	147370	27180	1033641	43636	109995	0	0	8224	576535	0	0
2024-07-08 07:35:32			0	37283	0	0	0	26961	25520	147450	27289	1033677	43636	109995	0	0	8224	576889	0	0
2024-07-08 07:36:32			0	37315	0	0	0	26953	25510	147387	27379	1033535	43625	109992	0	0	8226	575638	0	0
2024-07-08 07:37:32			0	37289	0	0	0	26945	25520	147326	27230	1033543	43647	109989	0	0	8225	576648	0	0
2024-07-08 07:38:32			0	37299	0	0	0	26942	25520	147418	27133	1033650	43625	109988	0	0	8225	576247	0	0
2024-07-08 07:39:32			0	37303	0	0	0	26940	25510	147406	27000	1033642	43635	109987	0	0	8225	576119	0	0
2024-07-08 07:40:32			0	37286	0	0	0	26948	25510	147470	27298	1033561	43625	109990	0	0	8224	576801	0	0
2024-07-08 07:41:32			0	37289	0	0	0	26940	25500	147446	27232	1033624	43634	109987	0	0	8225	576713	0	0
2024-07-08 07:42:32			0	37291	0	0	0	26950	25510	147510	26916	1033535	43635	109991	0	0	8225	576600	0	0
2024-07-08 07:43:32			0	37263	0	0	0	26948	25500	147450	27313	1033535	43634	109990	0	0	8223	577757	0	0
2024-07-08 07:44:32			0	37278	0	0	0	26940	25500	147502	27203	1033535	43634	109987	0	0	8224	577155	0	0
2024-07-08 07:45:32			0	37258	0	0	0	26940	25500	147550	27320	1033598	43646	109987	0	0	8223	577958	0	0
2024-07-08 07:46:32			0	37245	0	0	0	26945	25500	147654	27225	1033589	43634	109989	0	0	8222	578481	0	0
2024-07-08 07:47:32			0	37246	0	0	0	26940	25510	147542	26913	1033660	43657	109987	0	0	8222	578408	0	0
2024-07-08 07:48:32			0	37228	0	0	0	26955	25500	147678	27332	1033651	43634	109993	0	0	8221	579164	0	0
2024-07-08 07:49:32			0	37234	0	0	0	26955	25510	147714	27015	1033669	43635	109993	0	0	8222	578890	0	0
2024-07-08 07:50:32			0	37199	0	0	0	26966	25510	147766	27319	1033642	43658	109997	0	0	8220	580299	0	0
2024-07-08 07:51:32			0	37209	0	0	0	26961	25510	147874	27083	1033669	43635	109995	0	0	8220	579896	0	0
2024-07-08 07:52:32			0	37183	0	0	0	26950	25510	147762	27180	1033633	43646	109991	0	0	8219	580944	0	0
2024-07-08 07:53:32			0	37186	0	0	0	26942	25510	147878	26896	1033615	43635	109988	0	0	8219	580823	0	0
2024-07-08 07:54:32			0	37156	0	0	0	26948	25510	147974	27286	1033535	43635	109990	0	0	8218	582033	0	0
2024-07-08 07:55:32			0	37163	0	0	0	26929	25490	147958	27300	1033500	43623	109983	0	0	8218	581817	0	0
2024-07-08 07:56:32			0	37150	0	0	0	26922	25480	147970	27239	1033437	43622	109980	0	0	8218	582375	0	0
2024-07-08 07:57:32			0	37129	0	0	0	26903	25480	147998	27293	1033464	43622	109973	0	0	8217	583223	0	0
2024-07-08 07:58:32			0	37123	0	0	0	26906	25480	147982	27152	1033411	43622	109974	0	0	8216	583466	0	0
2024-07-08 07:59:32			0	37099	0	0	0	26888	25470	148158	27064	1033331	43610	109967	0	0	8215	584470	0	0
2024-07-08 08:00:32			0	37097	0	0	0	26870	25470	148094	27116	1033304	43643	109960	0	0	8216	584551	0	0
2024-07-08 08:01:32			0	37069	0	0	0	26864	25460	148322	27232	1033313	43619	109958	0	0	8214	585719	0	0
2024-07-08 08:02:32			0	37060	0	0	0	26854	25460	148306	26918	1033233	43619	109954	0	0	8214	586084	0	0
2024-07-08 08:03:32			0	37054	0	0	0	26854	25440	148390	27071	1033260	43618	109954	0	0	8214	586394	0	0
2024-07-08 08:04:32			0	37036	0	0	0	26844	25450	148410	27060	1033269	43641	109950	0	0	8213	587091	0	0
2024-07-08 08:05:32			0	37018	0	0	0	26836	25440	148518	27154	1033198	43606	109947	0	0	8212	587855	0	0
2024-07-08 08:06:32			0	36994	0	0	0	26854	25440	148606	27443	1033332	43628	109954	0	0	8210	588832	0	0
2024-07-08 08:07:32			0	36960	0	0	0	26841	25430	148706	27092	1033163	43617	109949	0	0	8209	590250	0	0
2024-07-08 08:08:32			0	36961	0	0	0	26838	25430	148766	27381	1033189	43639	109948	0	0	8209	590209	0	0
2024-07-08 08:09:32			0	36973	0	0	0	26844	25430	148742	27365	1033189	43617	109950	0	0	8209	589720	0	0
2024-07-08 08:10:32			0	36942	0	0	0	26833	25430	148766	27326	1033216	43639	109946	0	0	8208	590983	0	0
2024-07-08 08:11:32			0	36920	0	0	0	26833	25420	148922	26916	1033190	43615	109946	0	0	8207	591915	0	0
2024-07-08 08:12:32			0	36909	0	0	0	26836	25430	148986	27213	1033208	43617	109947	0	0	8206	592330	0	0
2024-07-08 08:13:32			0	36883	0	0	0	26833	25430	149022	26956	1033208	43639	109946	0	0	8205	593393	0	0
2024-07-08 08:14:32			0	36867	0	0	0	26838	25430	149030	27072	1033234	43639	109948	0	0	8204	594048	0	0
2024-07-08 08:15:32			0	36865	0	0	0	26844	25410	149174	27071	1033181	43626	109950	0	0	8204	594197	0	0
2024-07-08 08:16:32			0	36839	0	0	0	26849	25440	149178	27038	1033252	43639	109952	0	0	8202	595161	0	0
2024-07-08 08:17:32			0	36829	0	0	0	26854	25440	149274	27173	1033305	43628	109954	0	0	8202	595571	0	0
2024-07-08 08:18:32			0	36820	0	0	0	26859	25440	149390	27209	1033341	43640	109956	0	0	8201	595940	0	0
2024-07-08 08:19:32			0	36805	0	0	0	26870	25440	149402	27230	1033359	43650	109960	0	0	8200	596555	0	0
2024-07-08 08:20:32			0	36789	0	0	0	26870	25450	149378	27104	1033331	43641	109960	0	0	8200	597178	0	0
2024-07-08 08:21:32			0	36769	0	0	0	26875	25450	149538	27175	1033412	43641	109962	0	0	8198	598000	0	0
2024-07-08 08:22:32			0	36776	0	0	0	26875	25460	149462	27177	1033394	43641	109962	0	0	8199	597678	0	0
2024-07-08 08:23:32			0	36769	0	0	0	26872	25450	149522	27131	1033412	43641	109961	0	0	8198	598000	0	0
2024-07-08 08:24:32			0	36770	0	0	0	26883	25460	149594	27137	1033402	43630	109965	0	0	8198	597925	0	0
2024-07-08 08:25:32			0	36760	0	0	0	26898	25470	149562	27180	1033465	43631	109971	0	0	8198	598302	0	0
2024-07-08 08:26:32			0	36750	0	0	0	26893	25470	149710	27144	1033465	43631	109969	0	0	8197	598713	0	0
2024-07-08 08:27:32			0	36745	0	0	0	26898	25470	149630	27216	1033500	43644	109971	0	0	8197	598919	0	0
2024-07-08 08:28:32			0	36749	0	0	0	26903	25480	149562	27341	1033545	43655	109973	0	0	8197	598721	0	0
2024-07-08 08:29:32			0	36724	0	0	0	26916	25480	149622	27312	1033509	43644	109978	0	0	8195	599750	0	0
2024-07-08 08:30:32			0	36735	0	0	0	26916	25480	149666	27386	1033589	43644	109978	0	0	8196	599297	0	0
2024-07-08 08:31:32			0	36711	0	0	0	26922	25490	149730	27230	1033580	43656	109980	0	0	8195	600251	0	0
2024-07-08 08:32:32			0	36711	0	0	0	26922	25500	149790	27208	1033598	43634	109980	0	0	8195	600217	0	0
2024-07-08 08:33:32			0	36725	0	0	0	26927	25500	149758	27208	1033616	43634	109982	0	0	8195	599640	0	0
2024-07-08 08:34:32			0	36688	0	0	0	26922	25510	149842	26899	1033633	43646	109980	0	0	8194	601132	0	0
2024-07-08 08:35:32			0	36683	0	0	0	26937	25500	149890	27164	1033651	43646	109986	0	0	8193	601372	0	0
2024-07-08 08:36:32			0	36679	0	0	0	26942	25510	149870	27050	1033695	43635	109988	0	0	8193	601503	0	0
2024-07-08 08:37:32			0	36653	0	0	0	26945	25510	149906	27305	1033749	43646	109989	0	0	8191	602577	0	0
2024-07-08 08:38:32			0	36641	0	0	0	26940	25510	149982	27083	1033615	43646	109987	0	0	8191	603073	0	0
2024-07-08 08:39:32			0	36621	0	0	0	26935	25520	150042	26961	1033713	43647	109985	0	0	8190	603866	0	0
2024-07-08 08:40:32			0	36628	0	0	0	26945	25520	150130	27488	1033731	43647	109989	0	0	8190	603576	0	0
2024-07-08 08:41:32			0	36606	0	0	0	26932	25520	150166	27114	1033650	43614	109984	0	0	8189	604487	0	0
2024-07-08 08:42:32			0	36596	0	0	0	26937	25510	150158	27092	1033660	43634	109986	0	0	8189	604935	0	0
2024-07-08 08:43:32			0	36565	0	0	0	26942	25510	150165	27310	1033695	43635	109988	0	0	8187	606221	0	0
2024-07-08 08:44:32			0	36550	0	0	0	26940	25520	150265	27150	1033731	43636	109987	0	0	8186	606809	0	0
2024-07-08 08:45:32			0	36532	0	0	0	26950	25510	150297	26899	1033695	43635	109991	0	0	8185	607591	0	0
2024-07-08 08:46:32			0	36541	0	0	0	26955	25520	150369	27114	1033766	43636	109993	0	0	8185	607182	0	0
2024-07-08 08:47:32			0	36529	0	0	0	26958	25530	150393	27322	1033784	43637	109994	0	0	8185	607646	0	0
2024-07-08 08:48:32			0	36521	0	0	0	26971	25530	150597	26942	1033856	43659	109999	0	0	8184	607979	0	0
2024-07-08 08:49:32			0	36492	0	0	0	26979	25530	150493	27265	1033837	43648	110002	0	0	8182	609185	0	0
2024-07-08 08:50:32			0	36482	0	0	0	26984	25540	150509	27345	1033819	43649	110004	0	0	8182	609567	0	0
2024-07-08 08:51:32			0	36473	0	0	0	26984	25550	150685	27261	1033890	43650	110004	0	0	8182	609907	0	0
2024-07-08 08:52:32			0	36457	0	0	0	26997	25550	150733	27241	1033926	43662	110009	0	0	8180	610574	0	0
2024-07-08 08:53:32			0	36455	0	0	0	27005	25550	150685	27168	1033926	43650	110012	0	0	8180	610658	0	0
2024-07-08 08:54:32			0	36465	0	0	0	27012	25560	150581	27137	1034015	43663	110015	0	0	8181	610206	0	0
2024-07-08 08:55:32			0	36468	0	0	0	27023	25570	150581	27230	1034060	43652	110019	0	0	8181	610046	0	0
2024-07-08 08:56:32			0	36481	0	0	0	27028	25580	150573	27253	1034032	43654	110021	0	0	8181	609470	0	0
2024-07-08 08:57:32			0	36492	0	0	0	27028	25570	150521	27109	1034122	43652	110021	0	0	8182	609047	0	0
2024-07-08 08:58:32			0	36498	0	0	0	27041	25580	150445	27119	1034113	43643	110026	0	0	8182	608762	0	0
2024-07-08 08:59:32			0	36534	0	0	0	27051	25590	150341	27402	1034157	43654	110030	0	0	8184	607231	0	0
2024-07-08 09:00:32			0	36540	0	0	0	27051	25590	150321	27341	1034103	43665	110030	0	0	8184	606982	0	0
2024-07-08 09:01:32			0	36574	0	0	0	27041	25610	150101	27248	1034129	43646	110026	0	0	8186	605503	0	0
2024-07-08 09:02:32			0	36605	0	0	0	27049	25610	150130	27320	1034218	43657	110029	0	0	8188	604219	0	0
2024-07-08 09:03:32			0	36607	0	0	0	27057	25610	150042	27225	1034245	43657	110032	0	0	8188	604136	0	0
2024-07-08 09:04:32			0	36634	0	0	0	27057	25610	150022	27538	1034210	43657	110032	0	0	8189	603019	0	0
2024-07-08 09:05:32			0	36621	0	0	0	27059	25620	149882	27289	1034227	43667	110033	0	0	8188	603522	0	0
2024-07-08 09:06:32			0	36668	0	0	0	27064	25620	149902	27171	1034290	43658	110035	0	0	8191	601580	0	0
2024-07-08 09:07:32			0	36644	0	0	0	27064	25620	149826	27409	1034263	43658	110035	0	0	8189	602571	0	0
2024-07-08 09:08:32			0	36654	0	0	0	27070	25630	149742	27296	1034271	43647	110037	0	0	8190	602124	0	0
2024-07-08 09:09:32			0	36671	0	0	0	27077	25630	149806	27376	1034307	43659	110040	0	0	8191	601422	0	0
2024-07-08 09:10:32			0	36676	0	0	0	27080	25640	149802	27452	1034351	43660	110041	0	0	8191	601182	0	0
2024-07-08 09:11:32			0	36677	0	0	0	27088	25640	149730	27024	1034378	43648	110044	0	0	8191	601141	0	0
2024-07-08 09:12:32			0	36691	0	0	0	27090	25640	149746	27052	1034316	43659	110045	0	0	8192	600563	0	0
2024-07-08 09:13:32			0	36692	0	0	0	27098	25650	149662	27156	1034395	43661	110048	0	0	8191	600488	0	0
2024-07-08 09:14:32			0	36693	0	0	0	27109	25660	149678	27173	1034485	43661	110052	0	0	8191	600413	0	0
2024-07-08 09:15:32			0	36685	0	0	0	27111	25670	149722	27168	1034475	43673	110053	0	0	8191	600708	0	0
2024-07-08 09:16:32			0	36682	0	0	0	27119	25660	149710	27332	1034493	43662	110056	0	0	8191	600866	0	0
2024-07-08 09:17:32			0	36682	0	0	0	27119	25680	149726	27003	1034493	43652	110056	0	0	8191	600798	0	0
2024-07-08 09:18:32			0	36676	0	0	0	27119	25680	149806	27088	1034520	43674	110056	0	0	8190	601045	0	0
2024-07-08 09:19:32			0	36667	0	0	0	27129	25680	149846	27421	1034547	43663	110060	0	0	8190	601416	0	0
2024-07-08 09:20:32			0	36668	0	0	0	27119	25680	149818	27428	1034547	43652	110056	0	0	8190	601375	0	0
2024-07-08 09:21:32			0	36657	0	0	0	27122	25680	149866	27334	1034520	43663	110057	0	0	8189	601829	0	0
2024-07-08 09:22:32			0	36633	0	0	0	27122	25690	149926	27020	1034538	43664	110057	0	0	8188	602786	0	0
2024-07-08 09:23:32			0	36634	0	0	0	27119	25680	149878	27041	1034520	43652	110056	0	0	8188	602779	0	0
2024-07-08 09:24:32			0	36618	0	0	0	27122	25690	150030	27216	1034484	43664	110057	0	0	8187	603406	0	0
2024-07-08 09:25:32			0	36600	0	0	0	27119	25690	150050	27234	1034538	43675	110056	0	0	8186	604150	0	0
2024-07-08 09:26:32			0	36577	0	0	0	27116	25690	150165	27086	1034573	43676	110055	0	0	8185	605103	0	0
2024-07-08 09:27:32			0	36560	0	0	0	27116	25690	150217	27256	1034573	43665	110055	0	0	8184	605807	0	0
2024-07-08 09:28:32			0	36536	0	0	0	27106	25690	150293	27310	1034520	43654	110051	0	0	8183	606803	0	0
2024-07-08 09:29:32			0	36510	0	0	0	27101	25680	150393	27085	1034448	43641	110049	0	0	8182	607917	0	0
2024-07-08 09:30:32			0	36485	0	0	0	27103	25670	150417	27256	1034458	43651	110050	0	0	8181	608992	0	0
2024-07-08 09:31:32			0	36488	0	0	0	27096	25670	150457	27043	1034458	43663	110047	0	0	8181	608867	0	0
2024-07-08 09:32:32			0	36454	0	0	0	27096	25680	150645	27248	1034475	43641	110047	0	0	8179	610248	0	0
2024-07-08 09:33:32			0	36431	0	0	0	27096	25670	150673	27462	1034458	43640	110047	0	0	8178	611242	0	0
2024-07-08 09:34:32			0	36416	0	0	0	27096	25690	150785	27112	1034493	43643	110047	0	0	8177	611798	0	0
2024-07-08 09:35:32			0	36416	0	0	0	27098	25670	150837	27235	1034395	43663	110048	0	0	8177	611868	0	0
2024-07-08 09:36:32			0	36388	0	0	0	27101	25670	151045	27303	1034458	43651	110049	0	0	8176	613037	0	0
2024-07-08 09:37:32			0	36351	0	0	0	27103	25670	151121	27419	1034502	43673	110050	0	0	8174	614585	0	0
2024-07-08 09:38:32			0	36335	0	0	0	27116	25680	151173	27300	1034520	43663	110055	0	0	8173	615221	0	0
2024-07-08 09:39:32			0	36317	0	0	0	27103	25670	151177	27225	1034458	43651	110050	0	0	8172	616010	0	0
2024-07-08 09:40:32			0	36303	0	0	0	27096	25690	151265	27039	1034457	43664	110047	0	0	8171	616528	0	0
2024-07-08 09:41:32			0	36286	0	0	0	27101	25680	151385	27092	1034466	43663	110049	0	0	8170	617277	0	0
2024-07-08 09:42:32			0	36266	0	0	0	27096	25680	151341	27104	1034466	43652	110047	0	0	8169	618117	0	0
2024-07-08 09:43:32			0	36259	0	0	0	27090	25670	151461	27234	1034484	43651	110045	0	0	8169	618447	0	0
2024-07-08 09:44:32			0	36237	0	0	0	27103	25680	151593	27166	1034520	43674	110050	0	0	8168	619337	0	0
2024-07-08 09:45:32			0	36229	0	0	0	27111	25680	151617	27227	1034493	43663	110053	0	0	8167	619674	0	0
2024-07-08 09:46:32			0	36200	0	0	0	27122	25700	151665	27171	1034564	43654	110057	0	0	8165	620826	0	0
2024-07-08 09:47:32			0	36184	0	0	0	27127	25700	151821	27419	1034609	43676	110059	0	0	8165	621501	0	0
2024-07-08 09:48:32			0	36185	0	0	0	27135	25700	151813	27149	1034609	43676	110062	0	0	8164	621458	0	0
2024-07-08 09:49:32			0	36177	0	0	0	27140	25710	151845	27232	1034715	43678	110064	0	0	8164	621761	0	0
2024-07-08 09:50:32			0	36137	0	0	0	27135	25700	151921	26994	1034617	43676	110062	0	0	8162	623486	0	0
2024-07-08 09:51:32			0	36122	0	0	0	27145	25710	151933	27105	1034635	43666	110066	0	0	8161	624086	0	0
2024-07-08 09:52:32			0	36135	0	0	0	27135	25710	151961	26986	1034635	43666	110062	0	0	8162	623536	0	0
2024-07-08 09:53:32			0	36103	0	0	0	27140	25710	152105	27192	1034573	43666	110064	0	0	8160	624890	0	0
2024-07-08 09:54:32			0	36096	0	0	0	27135	25710	152113	27034	1034581	43666	110062	0	0	8160	625187	0	0
2024-07-08 09:55:32			0	36098	0	0	0	27142	25710	152037	27327	1034635	43666	110065	0	0	8160	625102	0	0
2024-07-08 09:56:32			0	36077	0	0	0	27150	25720	152181	27175	1034670	43666	110068	0	0	8159	625957	0	0
2024-07-08 09:57:32			0	36052	0	0	0	27145	25700	152229	27234	1034671	43654	110066	0	0	8157	627089	0	0
2024-07-08 09:58:32			0	36072	0	0	0	27145	25710	152225	27253	1034662	43656	110066	0	0	8158	626205	0	0
2024-07-08 09:59:32			0	36050	0	0	0	27132	25710	152281	27436	1034554	43645	110061	0	0	8157	627139	0	0
2024-07-08 10:00:32			0	36051	0	0	0	27135	25710	152341	27027	1034608	43656	110062	0	0	8157	627096	0	0
2024-07-08 10:01:32			0	36025	0	0	0	27140	25720	152277	27157	1034644	43678	110064	0	0	8156	628165	0	0
2024-07-08 10:02:32			0	36007	0	0	0	27148	25710	152385	27100	1034715	43656	110067	0	0	8155	628967	0	0
2024-07-08 10:03:32			0	35995	0	0	0	27132	25720	152437	27248	1034617	43666	110061	0	0	8155	629442	0	0
2024-07-08 10:04:32			0	35995	0	0	0	27140	25720	152541	27319	1034697	43656	110064	0	0	8154	629442	0	0
2024-07-08 10:05:32			0	35984	0	0	0	27142	25710	152473	27402	1034635	43656	110065	0	0	8154	629946	0	0
2024-07-08 10:06:32			0	35974	0	0	0	27142	25720	152629	27116	1034652	43678	110065	0	0	8153	630336	0	0
2024-07-08 10:07:32			0	35988	0	0	0	27140	25710	152601	27341	1034662	43678	110064	0	0	8154	629776	0	0
2024-07-08 10:08:32			0	35960	0	0	0	27137	25720	152593	27403	1034697	43666	110063	0	0	8153	630934	0	0
2024-07-08 10:09:32			0	35951	0	0	0	27142	25720	152701	27234	1034679	43666	110065	0	0	8152	631317	0	0
2024-07-08 10:10:32			0	35946	0	0	0	27140	25710	152721	27092	1034662	43645	110064	0	0	8152	631567	0	0
2024-07-08 10:11:32			0	35945	0	0	0	27142	25710	152673	27227	1034635	43666	110065	0	0	8152	631609	0	0
2024-07-08 10:12:32			0	35946	0	0	0	27153	25730	152661	27270	1034768	43667	110069	0	0	8152	631495	0	0
2024-07-08 10:13:32			0	35921	0	0	0	27153	25730	152789	27097	1034768	43645	110069	0	0	8150	632562	0	0
2024-07-08 10:14:32			0	35924	0	0	0	27148	25730	152785	27358	1034661	43657	110067	0	0	8151	632434	0	0
2024-07-08 10:15:32			0	35924	0	0	0	27145	25730	152833	27234	1034741	43667	110066	0	0	8151	632434	0	0
2024-07-08 10:16:32			0	35932	0	0	0	27142	25720	152877	27287	1034679	43678	110065	0	0	8151	632129	0	0
2024-07-08 10:17:32			0	35912	0	0	0	27142	25710	152845	27362	1034715	43666	110065	0	0	8150	633019	0	0
2024-07-08 10:18:32			0	35902	0	0	0	27145	25720	152853	27516	1034706	43678	110066	0	0	8149	633411	0	0
2024-07-08 10:19:32			0	35907	0	0	0	27145	25720	152869	27199	1034706	43678	110066	0	0	8150	633197	0	0
2024-07-08 10:20:32			0	35901	0	0	0	27150	25730	152909	27170	1034715	43667	110068	0	0	8149	633418	0	0
2024-07-08 10:21:32			0	35875	0	0	0	27142	25720	152837	27504	1034786	43666	110065	0	0	8148	634567	0	0
2024-07-08 10:22:32			0	35878	0	0	0	27148	25730	153009	27300	1034768	43667	110067	0	0	8148	634402	0	0
2024-07-08 10:23:32			0	35875	0	0	0	27155	25730	153017	27204	1034768	43667	110070	0	0	8148	634530	0	0
2024-07-08 10:24:32			0	35884	0	0	0	27158	25730	153045	27296	1034768	43690	110071	0	0	8148	634145	0	0
2024-07-08 10:25:32			0	35887	0	0	0	27163	25740	153013	27582	1034786	43691	110073	0	0	8148	633981	0	0
2024-07-08 10:26:32			0	35903	0	0	0	27168	25740	152981	27124	1034821	43669	110075	0	0	8149	633296	0	0
2024-07-08 10:27:32			0	35875	0	0	0	27174	25740	152977	27128	1034848	43680	110077	0	0	8148	634494	0	0
2024-07-08 10:28:32			0	35872	0	0	0	27181	25750	152937	27566	1034892	43681	110080	0	0	8147	634587	0	0
2024-07-08 10:29:32			0	35872	0	0	0	27197	25760	153077	27012	1034963	43682	110086	0	0	8147	634550	0	0
2024-07-08 10:30:32			0	35891	0	0	0	27194	25760	153029	27066	1034963	43671	110085	0	0	8148	633737	0	0
2024-07-08 10:31:32			0	35876	0	0	0	27202	25760	153041	27352	1035044	43671	110088	0	0	8147	634379	0	0
2024-07-08 10:32:32			0	35878	0	0	0	27202	25780	152925	27267	1035070	43673	110088	0	0	8147	634221	0	0
2024-07-08 10:33:32			0	35881	0	0	0	27210	25780	152925	27353	1035043	43684	110091	0	0	8147	634093	0	0
2024-07-08 10:34:32			0	35868	0	0	0	27205	25780	152905	27521	1034927	43683	110089	0	0	8147	634650	0	0
2024-07-08 10:35:32			0	35887	0	0	0	27212	25790	152933	27052	1034980	43673	110092	0	0	8148	633800	0	0
2024-07-08 10:36:32			0	35879	0	0	0	27207	25790	152925	27197	1035079	43673	110090	0	0	8147	634142	0	0
2024-07-08 10:37:32			0	35900	0	0	0	27218	25790	152877	27294	1035079	43673	110094	0	0	8148	633244	0	0
2024-07-08 10:38:32			0	35893	0	0	0	27223	25790	152897	27182	1035114	43673	110096	0	0	8148	633543	0	0
2024-07-08 10:39:32			0	35908	0	0	0	27231	25800	152881	27350	1035123	43674	110099	0	0	8149	632866	0	0
2024-07-08 10:40:32			0	35930	0	0	0	27228	25810	152753	27265	1035114	43675	110098	0	0	8150	631890	0	0
2024-07-08 10:41:32			0	35953	0	0	0	27236	25800	152577	27353	1035177	43674	110101	0	0	8151	630945	0	0
2024-07-08 10:42:32			0	35982	0	0	0	27233	25790	152553	27170	1035141	43684	110100	0	0	8152	629745	0	0
2024-07-08 10:43:32			0	36000	0	0	0	27225	25810	152421	27260	1035141	43664	110097	0	0	8154	628907	0	0
2024-07-08 10:44:32			0	36028	0	0	0	27233	25810	152329	27457	1035114	43664	110100	0	0	8155	627716	0	0
2024-07-08 10:45:32			0	36075	0	0	0	27233	25810	152145	27306	1035168	43686	110100	0	0	8157	625721	0	0
2024-07-08 10:46:32			0	36100	0	0	0	27233	25810	151961	27374	1035168	43686	110100	0	0	8159	624662	0	0
2024-07-08 10:47:32			0	36132	0	0	0	27238	25810	151861	27583	1035203	43687	110102	0	0	8160	623307	0	0
2024-07-08 10:48:32			0	36158	0	0	0	27238	25820	151765	27421	1035212	43676	110102	0	0	8162	622173	0	0
2024-07-08 10:49:32			0	36184	0	0	0	27244	25820	151665	27312	1035185	43665	110104	0	0	8163	621076	0	0
2024-07-08 10:50:32			0	36194	0	0	0	27249	25820	151525	27507	1035221	43677	110106	0	0	8164	620654	0	0
2024-07-08 10:51:32			0	36210	0	0	0	27244	25820	151553	27391	1035247	43677	110104	0	0	8164	619980	0	0
2024-07-08 10:52:32			0	36230	0	0	0	27246	25830	151429	27412	1035229	43666	110105	0	0	8166	619103	0	0
2024-07-08 10:53:32			0	36232	0	0	0	27249	25830	151537	27531	1035283	43688	110106	0	0	8166	619019	0	0
2024-07-08 10:54:32			0	36235	0	0	0	27251	25830	151509	27395	1035283	43677	110107	0	0	8166	618893	0	0
2024-07-08 10:55:32			0	36244	0	0	0	27249	25840	151305	27476	1035274	43666	110106	0	0	8166	618479	0	0
2024-07-08 10:56:32			0	36280	0	0	0	27249	25840	151409	26958	1035220	43689	110106	0	0	8168	616966	0	0
2024-07-08 10:57:32			0	36291	0	0	0	27251	25840	151213	27400	1035274	43678	110107	0	0	8169	616505	0	0
2024-07-08 10:58:32			0	36319	0	0	0	27264	25830	151105	27357	1035319	43678	110112	0	0	8170	615366	0	0
2024-07-08 10:59:32			0	36350	0	0	0	27259	25840	150937	27362	1035336	43690	110110	0	0	8172	614033	0	0
2024-07-08 11:00:32			0	36380	0	0	0	27257	25840	150893	27469	1035274	43689	110109	0	0	8173	612778	0	0
2024-07-08 11:01:32			0	36435	0	0	0	27249	25840	150585	27183	1035300	43678	110106	0	0	8176	610483	0	0
2024-07-08 11:02:32			0	36498	0	0	0	27259	25840	150453	27170	1035336	43667	110110	0	0	8179	607862	0	0
2024-07-08 11:03:32			0	36553	0	0	0	27254	25840	150113	27282	1035327	43678	110108	0	0	8182	605580	0	0
2024-07-08 11:04:32			0	36578	0	0	0	27262	25830	150109	27260	1035345	43666	110111	0	0	8184	604579	0	0
2024-07-08 11:05:32			0	36624	0	0	0	27259	25840	149962	26975	1035300	43666	110110	0	0	8186	602643	0	0
2024-07-08 11:06:32			0	36649	0	0	0	27257	25840	149782	27182	1035256	43690	110109	0	0	8187	601611	0	0
2024-07-08 11:07:32			0	36675	0	0	0	27275	25840	149794	27190	1035416	43690	110116	0	0	8188	600539	0	0
2024-07-08 11:08:32			0	36699	0	0	0	27277	25850	149618	27315	1035372	43679	110117	0	0	8190	599516	0	0
2024-07-08 11:09:32			0	36739	0	0	0	27264	25830	149566	27227	1035345	43689	110112	0	0	8192	597940	0	0
2024-07-08 11:10:32			0	36732	0	0	0	27267	25850	149374	27350	1035345	43690	110113	0	0	8192	598159	0	0
2024-07-08 11:11:32			0	36757	0	0	0	27275	25850	149446	27391	1035380	43691	110116	0	0	8193	597133	0	0
2024-07-08 11:12:32			0	36756	0	0	0	27267	25850	149382	27338	1035398	43679	110113	0	0	8193	597174	0	0
2024-07-08 11:13:32			0	36762	0	0	0	27275	25850	149370	27393	1035434	43691	110116	0	0	8193	596928	0	0
2024-07-08 11:14:32			0	36760	0	0	0	27280	25860	149430	27523	1035469	43692	110118	0	0	8193	596976	0	0
2024-07-08 11:15:32			0	36756	0	0	0	27311	25860	149314	27209	1035505	43692	110130	0	0	8192	597140	0	0
2024-07-08 11:16:32			0	36769	0	0	0	27335	25870	149350	27192	1035567	43692	110139	0	0	8192	596572	0	0
2024-07-08 11:17:32			0	36773	0	0	0	27342	25890	149318	27268	1035629	43706	110142	0	0	8193	596340	0	0
2024-07-08 11:18:32			0	36779	0	0	0	27348	25890	149238	27436	1035638	43695	110144	0	0	8193	596094	0	0
2024-07-08 11:19:32			0	36783	0	0	0	27353	25900	149214	27450	1035647	43684	110146	0	0	8193	595897	0	0
2024-07-08 11:20:32			0	36792	0	0	0	27355	25900	149202	27372	1035727	43684	110147	0	0	8193	595528	0	0
2024-07-08 11:21:32			0	36796	0	0	0	27353	25900	149218	27483	1035682	43684	110146	0	0	8194	595364	0	0
2024-07-08 11:22:32			0	36800	0	0	0	27368	25910	149194	27459	1035718	43697	110152	0	0	8194	595166	0	0
2024-07-08 11:23:32			0	36796	0	0	0	27379	25920	149122	27305	1035816	43708	110156	0	0	8193	595296	0	0
2024-07-08 11:24:32			0	36782	0	0	0	27410	25930	149302	27220	1035833	43698	110168	0	0	8192	595835	0	0
2024-07-08 11:25:32			0	36764	0	0	0	27412	25940	149294	27343	1035904	43688	110169	0	0	8191	596539	0	0
2024-07-08 11:26:32			0	36739	0	0	0	27420	25940	149386	27343	1035931	43710	110172	0	0	8190	597565	0	0
2024-07-08 11:27:32			0	36738	0	0	0	27420	25940	149326	27336	1035886	43689	110172	0	0	8190	597606	0	0
2024-07-08 11:28:32			0	36764	0	0	0	27418	25950	149374	27339	1035904	43689	110171	0	0	8191	596505	0	0
2024-07-08 11:29:32			0	36833	0	0	0	27405	25960	149162	27218	1035913	43690	110166	0	0	8195	593647	0	0
2024-07-08 11:30:32			0	36867	0	0	0	27405	25950	148930	27074	1035949	43689	110166	0	0	8197	592292	0	0
2024-07-08 11:31:32			0	36916	0	0	0	27410	25970	148694	27280	1035992	43692	110168	0	0	8199	590227	0	0
2024-07-08 11:32:32			0	36961	0	0	0	27405	25960	148566	27026	1035921	43702	110166	0	0	8202	588431	0	0
2024-07-08 11:33:32			0	36981	0	0	0	27405	25960	148462	27170	1035948	43691	110166	0	0	8203	587619	0	0
2024-07-08 11:34:32			0	36962	0	0	0	27420	25970	148554	27376	1035992	43692	110172	0	0	8201	588356	0	0
2024-07-08 11:35:32			0	36958	0	0	0	27410	25980	148462	27227	1036055	43692	110168	0	0	8201	588486	0	0
2024-07-08 11:36:32			0	36968	0	0	0	27423	25980	148494	27478	1036055	43680	110173	0	0	8202	588079	0	0
2024-07-08 11:37:32			0	36966	0	0	0	27418	25980	148570	27256	1036055	43703	110171	0	0	8202	588161	0	0
2024-07-08 11:38:32			0	36972	0	0	0	27431	25980	148534	27294	1036090	43681	110176	0	0	8202	587917	0	0
2024-07-08 11:39:32			0	36978	0	0	0	27441	25980	148422	27230	1036082	43692	110180	0	0	8202	587673	0	0
2024-07-08 11:40:32			0	36983	0	0	0	27457	25990	148278	27353	1036135	43705	110186	0	0	8202	587437	0	0
2024-07-08 11:41:32			0	36979	0	0	0	27459	26010	148438	27098	1036188	43696	110187	0	0	8202	587532	0	0
2024-07-08 11:42:32			0	37000	0	0	0	27467	26000	148330	27338	1036125	43706	110190	0	0	8203	586714	0	0
2024-07-08 11:43:32			0	36990	0	0	0	27475	26020	148382	27039	1036286	43717	110193	0	0	8202	587052	0	0
2024-07-08 11:44:32			0	36988	0	0	0	27472	26010	148342	27182	1036241	43707	110192	0	0	8202	587167	0	0
2024-07-08 11:45:32			0	36984	0	0	0	27475	26030	148330	27329	1036303	43697	110193	0	0	8202	587262	0	0
2024-07-08 11:46:32			0	37008	0	0	0	27480	26030	148358	27111	1036365	43708	110195	0	0	8203	586289	0	0
2024-07-08 11:47:32			0	37013	0	0	0	27480	26030	148374	27573	1036285	43708	110195	0	0	8203	586087	0	0
2024-07-08 11:48:32			0	36994	0	0	0	27483	26040	148382	27357	1036383	43698	110196	0	0	8202	586823	0	0
2024-07-08 11:49:32			0	37008	0	0	0	27490	26040	148302	27239	1036374	43708	110199	0	0	8203	586256	0	0
2024-07-08 11:50:32			0	37020	0	0	0	27501	26040	148338	27313	1036330	43698	110203	0	0	8203	585770	0	0
2024-07-08 11:51:32			0	36986	0	0	0	27501	26060	148398	27351	1036517	43700	110203	0	0	8202	587081	0	0
2024-07-08 11:52:32			0	36987	0	0	0	27511	26050	148434	27248	1036454	43711	110207	0	0	8202	587074	0	0
2024-07-08 11:53:32			0	36987	0	0	0	27522	26070	148374	27459	1036481	43712	110211	0	0	8201	587007	0	0
2024-07-08 11:54:32			0	36988	0	0	0	27524	26070	148474	27059	1036525	43711	110212	0	0	8202	586966	0	0
2024-07-08 11:55:32			0	36979	0	0	0	27537	26080	148358	27445	1036597	43713	110217	0	0	8201	587298	0	0
2024-07-08 11:56:32			0	36992	0	0	0	27535	26090	148350	27280	1036623	43725	110216	0	0	8202	586737	0	0
2024-07-08 11:57:32			0	37003	0	0	0	27548	26100	148354	27272	1036632	43714	110221	0	0	8202	586258	0	0
2024-07-08 11:58:32			0	37030	0	0	0	27550	26100	148302	27402	1036685	43714	110222	0	0	8203	585164	0	0
2024-07-08 11:59:32			0	37039	0	0	0	27558	26100	148258	27142	1036667	43726	110225	0	0	8204	584800	0	0
2024-07-08 12:00:32			0	37047	0	0	0	27555	26100	148314	27175	1036667	43714	110224	0	0	8204	584477	0	0
2024-07-08 12:01:32			0	37064	0	0	0	27561	26110	148134	27331	1036685	43694	110226	0	0	8205	583756	0	0
2024-07-08 12:02:32			0	37054	0	0	0	27568	26120	148114	27526	1036729	43729	110229	0	0	8204	584127	0	0
2024-07-08 12:03:32			0	37071	0	0	0	27568	26120	148118	27334	1036729	43717	110229	0	0	8205	583440	0	0
2024-07-08 12:04:32			0	37070	0	0	0	27568	26120	148062	27237	1036693	43716	110229	0	0	8205	583481	0	0
2024-07-08 12:05:32			0	37077	0	0	0	27571	26120	148046	27414	1036756	43707	110230	0	0	8206	583198	0	0
2024-07-08 12:06:32			0	37070	0	0	0	27576	26130	148094	26934	1036818	43717	110232	0	0	8205	583447	0	0
2024-07-08 12:07:32			0	37065	0	0	0	27594	26140	148074	27202	1036809	43718	110239	0	0	8205	583616	0	0
2024-07-08 12:08:32			0	37086	0	0	0	27589	26150	148002	27336	1036853	43742	110237	0	0	8206	582735	0	0
2024-07-08 12:09:32			0	37083	0	0	0	27597	26150	147974	27455	1036915	43719	110240	0	0	8206	582856	0	0
2024-07-08 12:10:32			0	37102	0	0	0	27612	26150	148014	27050	1036915	43708	110246	0	0	8206	582089	0	0
2024-07-08 12:11:32			0	37094	0	0	0	27618	26150	147926	27281	1036996	43719	110248	0	0	8206	582412	0	0
2024-07-08 12:12:32			0	37083	0	0	0	27625	26170	147882	27279	1037031	43721	110251	0	0	8205	582789	0	0
2024-07-08 12:13:32			0	37098	0	0	0	27623	26160	147978	27232	1037040	43721	110250	0	0	8206	582218	0	0
2024-07-08 12:14:32			0	37090	0	0	0	27636	26170	147914	27267	1037031	43710	110255	0	0	8205	582507	0	0
2024-07-08 12:15:32			0	37089	0	0	0	27638	26180	147986	27275	1037067	43722	110256	0	0	8205	582514	0	0
2024-07-08 12:16:32			0	37104	0	0	0	27636	26190	148026	27419	1037057	43713	110255	0	0	8206	581876	0	0
2024-07-08 12:17:32			0	37105	0	0	0	27654	26200	147978	27339	1037155	43724	110262	0	0	8206	581803	0	0
2024-07-08 12:18:32			0	37083	0	0	0	27654	26190	147950	27374	1037120	43724	110262	0	0	8205	582723	0	0
2024-07-08 12:19:32			0	37085	0	0	0	27667	26200	147954	27124	1037209	43724	110267	0	0	8205	582609	0	0
2024-07-08 12:20:32			0	37080	0	0	0	27672	26210	147902	27199	1037227	43714	110269	0	0	8204	582777	0	0
2024-07-08 12:21:32			0	37112	0	0	0	27685	26220	147898	27402	1037244	43714	110274	0	0	8206	581454	0	0
2024-07-08 12:22:32			0	37121	0	0	0	27685	26220	147822	27157	1037325	43737	110274	0	0	8206	581092	0	0
2024-07-08 12:23:32			0	37121	0	0	0	27696	26230	147702	27059	1037351	43739	110278	0	0	8206	581058	0	0
2024-07-08 12:24:32			0	37158	0	0	0	27706	26230	147682	27324	1037324	43739	110282	0	0	8208	579570	0	0
2024-07-08 12:25:32			0	37119	0	0	0	27703	26240	147694	27246	1037395	43717	110281	0	0	8206	581106	0	0
2024-07-08 12:26:32			0	37126	0	0	0	27709	26240	147602	27473	1037395	43729	110283	0	0	8206	580824	0	0
2024-07-08 12:27:32			0	37151	0	0	0	27711	26250	147618	27242	1037439	43718	110284	0	0	8208	579785	0	0
2024-07-08 12:28:32			0	37153	0	0	0	27706	26260	147510	27256	1037430	43719	110282	0	0	8208	579671	0	0
2024-07-08 12:29:32			0	37189	0	0	0	27711	26260	147470	27220	1037457	43730	110284	0	0	8210	578225	0	0
2024-07-08 12:30:32			0	37199	0	0	0	27719	26270	147514	27157	1037466	43720	110287	0	0	8210	577791	0	0
2024-07-08 12:31:32			0	37208	0	0	0	27719	26260	147390	27176	1037448	43730	110287	0	0	8210	577463	0	0
2024-07-08 12:32:32			0	37216	0	0	0	27735	26270	147414	27274	1037546	43720	110293	0	0	8211	577110	0	0
2024-07-08 12:33:32			0	37212	0	0	0	27735	26270	147334	27111	1037573	43720	110293	0	0	8210	577270	0	0
2024-07-08 12:34:32			0	37219	0	0	0	27727	26280	147250	27435	1037644	43744	110290	0	0	8211	576956	0	0
2024-07-08 12:35:32			0	37241	0	0	0	27729	26290	147306	27310	1037608	43733	110291	0	0	8212	576042	0	0
2024-07-08 12:36:32			0	37243	0	0	0	27742	26290	147230	27445	1037644	43734	110296	0	0	8212	575962	0	0
2024-07-08 12:37:32			0	37271	0	0	0	27748	26290	147258	27296	1037662	43722	110298	0	0	8213	574842	0	0
2024-07-08 12:38:32			0	37246	0	0	0	27753	26290	147130	27209	1037662	43722	110300	0	0	8212	575842	0	0
2024-07-08 12:39:32			0	37267	0	0	0	27745	26290	147234	27289	1037617	43734	110297	0	0	8213	575002	0	0
2024-07-08 12:40:32			0	37268	0	0	0	27745	26300	147198	27171	1037715	43734	110297	0	0	8213	574929	0	0
2024-07-08 12:41:32			0	37271	0	0	0	27753	26300	147170	27320	1037661	43723	110300	0	0	8213	574809	0	0
2024-07-08 12:42:32			0	37275	0	0	0	27753	26310	147094	27242	1037751	43746	110300	0	0	8214	574616	0	0
2024-07-08 12:43:32			0	37296	0	0	0	27766	26320	147170	27497	1037795	43736	110305	0	0	8214	573745	0	0
2024-07-08 12:44:32			0	37269	0	0	0	27789	26340	147126	27365	1037803	43749	110314	0	0	8213	574758	0	0
2024-07-08 12:45:32			0	37281	0	0	0	27789	26340	147190	26994	1037857	43749	110314	0	0	8213	574278	0	0
2024-07-08 12:46:32			0	37259	0	0	0	27794	26350	147194	27396	1037874	43728	110316	0	0	8212	575125	0	0
2024-07-08 12:47:32			0	37261	0	0	0	27812	26350	147138	27185	1037928	43750	110323	0	0	8212	575045	0	0
2024-07-08 12:48:32			0	37271	0	0	0	27820	26360	147030	27204	1037973	43751	110326	0	0	8212	574612	0	0
2024-07-08 12:49:32			0	37277	0	0	0	27820	26370	147046	27462	1038071	43741	110326	0	0	8213	574340	0	0
2024-07-08 12:50:32			0	37281	0	0	0	27831	26390	146998	27462	1038124	43753	110330	0	0	8213	574114	0	0
2024-07-08 12:51:32			0	37271	0	0	0	27838	26390	147058	27658	1038132	43754	110333	0	0	8212	574514	0	0
2024-07-08 12:52:32			0	37262	0	0	0	27841	26400	147054	27059	1038168	43732	110334	0	0	8212	574840	0	0
2024-07-08 12:53:32			0	37269	0	0	0	27857	26400	147122	27057	1038177	43733	110340	0	0	8212	574561	0	0
2024-07-08 12:54:32			0	37264	0	0	0	27857	26420	147102	27440	1038230	43734	110340	0	0	8212	574695	0	0
2024-07-08 12:55:32			0	37260	0	0	0	27862	26410	147130	27111	1038266	43745	110342	0	0	8211	574888	0	0
2024-07-08 12:56:32			0	37274	0	0	0	27851	26420	146922	27196	1038212	43746	110338	0	0	8212	574295	0	0
2024-07-08 12:57:32			0	37291	0	0	0	27864	26430	147002	27275	1038221	43724	110343	0	0	8213	573584	0	0
2024-07-08 12:58:32			0	37297	0	0	0	27867	26430	146902	27329	1038248	43746	110344	0	0	8213	573344	0	0
2024-07-08 12:59:32			0	37331	0	0	0	27838	26420	146887	26958	1038212	43735	110333	0	0	8215	572022	0	0
2024-07-08 13:00:32			0	37325	0	0	0	27841	26420	146791	27187	1038158	43724	110334	0	0	8215	572261	0	0
2024-07-08 13:01:32			0	37332	0	0	0	27833	26420	146759	27277	1038176	43734	110331	0	0	8216	571982	0	0
2024-07-08 13:02:32			0	37340	0	0	0	27836	26420	146819	27114	1038158	43724	110332	0	0	8216	571663	0	0
2024-07-08 13:03:32			0	37344	0	0	0	27838	26420	146807	27364	1038149	43734	110333	0	0	8216	571504	0	0
2024-07-08 13:04:32			0	37310	0	0	0	27836	26420	146850	27092	1038203	43734	110332	0	0	8214	572859	0	0
2024-07-08 13:05:32			0	37301	0	0	0	27818	26420	146934	27357	1038123	43711	110325	0	0	8214	573218	0	0
2024-07-08 13:06:32			0	37305	0	0	0	27818	26410	146998	27348	1038087	43734	110325	0	0	8214	573091	0	0
2024-07-08 13:07:32			0	37276	0	0	0	27825	26410	147042	27490	1038141	43734	110328	0	0	8213	574248	0	0
2024-07-08 13:08:32			0	37259	0	0	0	27818	26410	147062	26963	1038114	43734	110325	0	0	8212	574928	0	0
2024-07-08 13:09:32			0	37257	0	0	0	27828	26410	147070	27256	1038114	43746	110329	0	0	8212	575008	0	0
2024-07-08 13:10:32			0	37257	0	0	0	27836	26420	147114	27390	1038203	43734	110332	0	0	8212	574975	0	0
2024-07-08 13:11:32			0	37234	0	0	0	27844	26420	147050	26894	1038239	43746	110335	0	0	8210	575895	0	0
2024-07-08 13:12:32			0	37235	0	0	0	27857	26430	147174	27159	1038248	43735	110340	0	0	8210	575822	0	0
2024-07-08 13:13:32			0	37222	0	0	0	27854	26430	147190	27326	1038248	43735	110339	0	0	8210	576342	0	0
2024-07-08 13:14:32			0	37226	0	0	0	27859	26430	147178	27192	1038275	43735	110341	0	0	8210	576182	0	0
2024-07-08 13:15:32			0	37269	0	0	0	27859	26420	147126	27062	1038230	43723	110341	0	0	8212	574495	0	0
2024-07-08 13:16:32			0	37303	0	0	0	27854	26440	147034	27531	1038319	43726	110339	0	0	8214	573072	0	0
2024-07-08 13:17:32			0	37333	0	0	0	27859	26440	146911	27386	1038292	43737	110341	0	0	8215	571877	0	0
2024-07-08 13:18:32			0	37347	0	0	0	27859	26440	146783	27523	1038238	43714	110341	0	0	8216	571319	0	0
2024-07-08 13:19:32			0	37376	0	0	0	27854	26440	146703	27478	1038238	43737	110339	0	0	8218	570166	0	0
2024-07-08 13:20:32			0	37393	0	0	0	27864	26440	146651	27383	1038265	43737	110343	0	0	8218	569490	0	0
2024-07-08 13:21:32			0	37416	0	0	0	27864	26440	146535	27294	1038319	43737	110343	0	0	8220	568577	0	0
2024-07-08 13:22:32			0	37418	0	0	0	27859	26430	146443	27345	1038221	43735	110341	0	0	8220	568530	0	0
2024-07-08 13:23:32			0	37425	0	0	0	27851	26440	146371	27403	1038238	43737	110338	0	0	8220	568220	0	0
2024-07-08 13:24:32			0	37438	0	0	0	27859	26440	146407	27561	1038355	43737	110341	0	0	8221	567705	0	0
2024-07-08 13:25:32			0	37430	0	0	0	27854	26440	146451	27279	1038265	43737	110339	0	0	8220	568022	0	0
2024-07-08 13:26:32			0	37445	0	0	0	27854	26440	146419	27550	1038274	43748	110339	0	0	8221	567427	0	0
2024-07-08 13:27:32			0	37430	0	0	0	27857	26430	146351	27161	1038194	43724	110340	0	0	8220	568054	0	0
2024-07-08 13:28:32			0	37421	0	0	0	27846	26430	146415	27341	1038248	43735	110336	0	0	8220	568411	0	0
2024-07-08 13:29:32			0	37430	0	0	0	27854	26430	146519	27438	1038230	43736	110339	0	0	8220	568054	0	0
2024-07-08 13:30:32			0	37419	0	0	0	27854	26430	146523	27199	1038203	43747	110339	0	0	8220	568491	0	0
2024-07-08 13:31:32			0	37413	0	0	0	27854	26440	146459	27658	1038292	43748	110339	0	0	8220	568696	0	0
2024-07-08 13:32:32			0	37410	0	0	0	27854	26440	146511	27244	1038301	43748	110339	0	0	8219	568815	0	0
2024-07-08 13:33:32			0	37426	0	0	0	27867	26440	146363	27308	1038355	43737	110344	0	0	8220	568180	0	0
2024-07-08 13:34:32			0	37436	0	0	0	27862	26450	146503	27334	1038310	43749	110342	0	0	8221	567751	0	0
2024-07-08 13:35:32			0	37451	0	0	0	27864	26440	146443	27229	1038301	43737	110343	0	0	8221	567189	0	0
2024-07-08 13:36:32			0	37491	0	0	0	27864	26450	146307	27059	1038363	43749	110343	0	0	8223	565574	0	0
2024-07-08 13:37:32			0	37493	0	0	0	27864	26430	146267	27402	1038310	43736	110343	0	0	8223	565560	0	0
2024-07-08 13:38:32			0	37488	0	0	0	27867	26450	146247	27246	1038372	43760	110344	0	0	8223	565693	0	0
2024-07-08 13:39:32			0	37491	0	0	0	27883	26450	146191	27400	1038318	43749	110350	0	0	8223	565574	0	0
2024-07-08 13:40:32			0	37491	0	0	0	27875	26450	146219	27294	1038372	43749	110347	0	0	8223	565574	0	0
2024-07-08 13:41:32			0	37495	0	0	0	27890	26460	146127	27267	1038434	43750	110353	0	0	8223	565384	0	0
2024-07-08 13:42:32			0	37485	0	0	0	27903	26460	146231	27457	1038416	43739	110358	0	0	8223	565779	0	0
2024-07-08 13:43:32			0	37490	0	0	0	27901	26470	146099	27533	1038506	43740	110357	0	0	8223	565549	0	0
2024-07-08 13:44:32			0	37453	0	0	0	27903	26460	146107	27371	1038470	43750	110358	0	0	8221	567045	0	0
2024-07-08 13:45:32			0	37474	0	0	0	27898	26470	146139	27213	1038479	43750	110356	0	0	8222	566182	0	0
2024-07-08 13:46:32			0	37492	0	0	0	27901	26470	146139	27088	1038461	43750	110357	0	0	8223	565470	0	0
2024-07-08 13:47:32			0	37479	0	0	0	27901	26490	146187	27230	1038514	43752	110357	0	0	8222	565919	0	0
2024-07-08 13:48:32			0	37488	0	0	0	27901	26470	146195	27241	1038461	43729	110357	0	0	8223	565628	0	0
2024-07-08 13:49:32			0	37481	0	0	0	27893	26480	146147	27260	1038469	43751	110354	0	0	8223	565872	0	0
2024-07-08 13:50:32			0	37486	0	0	0	27893	26480	146171	26748	1038496	43741	110354	0	0	8223	565675	0	0
2024-07-08 13:51:32			0	37483	0	0	0	27893	26480	146195	27196	1038469	43741	110354	0	0	8223	565793	0	0
2024-07-08 13:52:32			0	37477	0	0	0	27898	26480	146223	27227	1038559	43751	110356	0	0	8222	566031	0	0
2024-07-08 13:53:32			0	37486	0	0	0	27903	26480	146227	27034	1038586	43741	110358	0	0	8223	565675	0	0
2024-07-08 13:54:32			0	37479	0	0	0	27903	26490	146243	26925	1038567	43752	110358	0	0	8222	565919	0	0
2024-07-08 13:55:32			0	37466	0	0	0	27924	26500	146255	27086	1038746	43753	110366	0	0	8221	566401	0	0
2024-07-08 13:56:32			0	37459	0	0	0	27937	26520	146311	27116	1038781	43755	110371	0	0	8221	566613	0	0
2024-07-08 13:57:32			0	37472	0	0	0	27945	26510	146343	27281	1038844	43765	110374	0	0	8221	566131	0	0
2024-07-08 13:58:32			0	37442	0	0	0	27976	26530	146391	27168	1038995	43779	110386	0	0	8219	567254	0	0
2024-07-08 13:59:32			0	37429	0	0	0	27992	26540	146427	27448	1039058	43768	110392	0	0	8218	567737	0	0
2024-07-08 14:00:32			0	37391	0	0	0	28018	26540	146499	27182	1039040	43758	110402	0	0	8216	569244	0	0
2024-07-08 14:01:32			0	37367	0	0	0	28025	26560	146551	27422	1039048	43782	110405	0	0	8215	570132	0	0
2024-07-08 14:02:32			0	37375	0	0	0	28018	26570	146495	27199	1039066	43761	110402	0	0	8215	569782	0	0
2024-07-08 14:03:32			0	37396	0	0	0	28002	26570	146503	27379	1039066	43750	110396	0	0	8217	568948	0	0
2024-07-08 14:04:32			0	37431	0	0	0	28015	26570	146463	27485	1039057	43761	110401	0	0	8218	567560	0	0
2024-07-08 14:05:32			0	37438	0	0	0	28028	26580	146283	27093	1039074	43761	110406	0	0	8218	567250	0	0
2024-07-08 14:06:32			0	37411	0	0	0	28041	26580	146295	27286	1039110	43762	110411	0	0	8217	568320	0	0
2024-07-08 14:07:32			0	37427	0	0	0	28049	26600	146323	27412	1039163	43762	110414	0	0	8218	567621	0	0
2024-07-08 14:08:32			0	37423	0	0	0	28049	26590	146367	27159	1039262	43774	110414	0	0	8217	567812	0	0
2024-07-08 14:09:32			0	37413	0	0	0	28046	26600	146231	27203	1039306	43763	110413	0	0	8217	568176	0	0
2024-07-08 14:10:32			0	37440	0	0	0	28059	26620	146199	27168	1039368	43777	110418	0	0	8218	567041	0	0
2024-07-08 14:11:32			0	37447	0	0	0	28088	26630	146135	27261	1039430	43778	110429	0	0	8218	566732	0	0
2024-07-08 14:12:32			0	37450	0	0	0	28116	26650	146195	27081	1039492	43780	110440	0	0	8218	566548	0	0
2024-07-08 14:13:32			0	37444	0	0	0	28135	26660	146131	27327	1039617	43780	110447	0	0	8217	566753	0	0
2024-07-08 14:14:32			0	37438	0	0	0	28148	26660	146231	27466	1039644	43780	110452	0	0	8217	566991	0	0
2024-07-08 14:15:32			0	37411	0	0	0	28150	26690	146271	27187	1039670	43783	110453	0	0	8215	567963	0	0
2024-07-08 14:16:32			0	37428	0	0	0	28158	26700	146223	27251	1039706	43773	110456	0	0	8216	567257	0	0
2024-07-08 14:17:32			0	37409	0	0	0	28163	26700	146307	27248	1039661	43785	110458	0	0	8215	568009	0	0
2024-07-08 14:18:32			0	37419	0	0	0	28153	26720	146239	27234	1039794	43775	110454	0	0	8216	567548	0	0
2024-07-08 14:19:32			0	37451	0	0	0	28155	26710	146143	27166	1039705	43774	110455	0	0	8218	566314	0	0
2024-07-08 14:20:32			0	37478	0	0	0	28150	26730	145991	26965	1039839	43787	110453	0	0	8219	565182	0	0
2024-07-08 14:21:32			0	37520	0	0	0	28142	26720	145775	27313	1039794	43775	110450	0	0	8221	563557	0	0
2024-07-08 14:22:32			0	37544	0	0	0	28150	26740	145723	27320	1039803	43777	110453	0	0	8223	562547	0	0
2024-07-08 14:23:32			0	37568	0	0	0	28142	26730	145615	27180	1039821	43753	110450	0	0	8224	561634	0	0
2024-07-08 14:24:32			0	37586	0	0	0	28135	26730	145627	27267	1039821	43787	110447	0	0	8225	560926	0	0
2024-07-08 14:25:32			0	37611	0	0	0	28127	26740	145419	27310	1039829	43788	110444	0	0	8226	559912	0	0
2024-07-08 14:26:32			0	37615	0	0	0	28142	26740	145379	27031	1039811	43799	110450	0	0	8226	559755	0	0
2024-07-08 14:27:32			0	37628	0	0	0	28129	26740	145431	27549	1039803	43765	110445	0	0	8227	559245	0	0
2024-07-08 14:28:32			0	37626	0	0	0	28116	26730	145355	27197	1039785	43764	110440	0	0	8227	559355	0	0
2024-07-08 14:29:32			0	37640	0	0	0	28135	26730	145383	27022	1039812	43764	110447	0	0	8228	558806	0	0
2024-07-08 14:30:32			0	37618	0	0	0	28142	26740	145311	27261	1039811	43766	110450	0	0	8227	559637	0	0
2024-07-08 14:31:32			0	37600	0	0	0	28155	26750	145383	27274	1039820	43755	110455	0	0	8225	560312	0	0
2024-07-08 14:32:32			0	37588	0	0	0	28163	26750	145407	27152	1039847	43778	110458	0	0	8225	560783	0	0
2024-07-08 14:33:32			0	37591	0	0	0	28161	26750	145463	26901	1039802	43766	110457	0	0	8225	560666	0	0
2024-07-08 14:34:32			0	37601	0	0	0	28140	26740	145383	27102	1039785	43755	110449	0	0	8226	560305	0	0
2024-07-08 14:35:32			0	37594	0	0	0	28137	26740	145375	27229	1039838	43766	110448	0	0	8225	560580	0	0
2024-07-08 14:36:32			0	37594	0	0	0	28148	26750	145387	27142	1039909	43766	110452	0	0	8225	560548	0	0
2024-07-08 14:37:32			0	37594	0	0	0	28168	26750	145435	27393	1039928	43766	110460	0	0	8225	560548	0	0
2024-07-08 14:38:32			0	37586	0	0	0	28202	26760	145415	27241	1040061	43779	110473	0	0	8224	560830	0	0
2024-07-08 14:39:32			0	37553	0	0	0	28225	26770	145503	27286	1040070	43780	110482	0	0	8222	562096	0	0
2024-07-08 14:40:32			0	37526	0	0	0	28246	26780	145607	27067	1040257	43781	110490	0	0	8220	563127	0	0
2024-07-08 14:41:32			0	37506	0	0	0	28267	26800	145807	27130	1040293	43783	110498	0	0	8219	563850	0	0
2024-07-08 14:42:32			0	37471	0	0	0	28259	26810	145883	26941	1040275	43795	110495	0	0	8217	565200	0	0
2024-07-08 14:43:32			0	37453	0	0	0	28244	26800	146027	27206	1040159	43772	110489	0	0	8217	565943	0	0
2024-07-08 14:44:32			0	37492	0	0	0	28218	26800	145759	27220	1040105	43772	110479	0	0	8219	564403	0	0
2024-07-08 14:45:32			0	37545	0	0	0	28202	26800	145523	27322	1040203	43771	110473	0	0	8222	562314	0	0
2024-07-08 14:46:32			0	37627	0	0	0	28192	26810	145347	27241	1040140	43773	110469	0	0	8226	559060	0	0
2024-07-08 14:47:32			0	37649	0	0	0	28181	26800	145091	27078	1040069	43760	110465	0	0	8228	558230	0	0
2024-07-08 14:48:32			0	37666	0	0	0	28181	26800	145131	27324	1040132	43760	110465	0	0	8229	557564	0	0
2024-07-08 14:49:32			0	37720	0	0	0	28168	26810	145023	27329	1040114	43761	110460	0	0	8232	555420	0	0
2024-07-08 14:50:32			0	37713	0	0	0	28171	26810	144927	27166	1040140	43773	110461	0	0	8231	555694	0	0
2024-07-08 14:51:32			0	37720	0	0	0	28176	26810	144835	27244	1040167	43773	110463	0	0	8232	555420	0	0
2024-07-08 14:52:32			0	37736	0	0	0	28186	26810	144935	27083	1040248	43773	110467	0	0	8232	554796	0	0
2024-07-08 14:53:32			0	37759	0	0	0	28179	26800	144855	27206	1040132	43772	110464	0	0	8233	553931	0	0
2024-07-08 14:54:32			0	37736	0	0	0	28184	26810	144951	27322	1040140	43784	110466	0	0	8232	554796	0	0
2024-07-08 14:55:32			0	37720	0	0	0	28192	26820	144971	27327	1040274	43774	110469	0	0	8231	555389	0	0
2024-07-08 14:56:32			0	37709	0	0	0	28194	26820	144987	27057	1040292	43773	110470	0	0	8231	555818	0	0
2024-07-08 14:57:32			0	37718	0	0	0	28189	26820	144979	27204	1040220	43762	110468	0	0	8231	555467	0	0
2024-07-08 14:58:32			0	37700	0	0	0	28179	26820	144959	27244	1040185	43784	110464	0	0	8230	556170	0	0
2024-07-08 14:59:32			0	37668	0	0	0	28194	26820	145071	27422	1040274	43774	110470	0	0	8229	557422	0	0
2024-07-08 15:00:32			0	37651	0	0	0	28202	26820	145163	27374	1040185	43761	110473	0	0	8228	558087	0	0
2024-07-08 15:01:32			0	37621	0	0	0	28207	26820	145183	27284	1040212	43761	110475	0	0	8226	559263	0	0
2024-07-08 15:02:32			0	37643	0	0	0	28186	26810	145179	27248	1040122	43761	110467	0	0	8227	558433	0	0
2024-07-08 15:03:32			0	37650	0	0	0	28181	26800	145207	27071	1040051	43760	110465	0	0	8228	558190	0	0
2024-07-08 15:04:32			0	37652	0	0	0	28192	26810	145179	27123	1040087	43761	110469	0	0	8228	558080	0	0
2024-07-08 15:05:32			0	37647	0	0	0	28186	26800	145147	27150	1040024	43760	110467	0	0	8228	558308	0	0
2024-07-08 15:06:32			0	37661	0	0	0	28184	26790	145199	27222	1040078	43760	110466	0	0	8228	557792	0	0
2024-07-08 15:07:32			0	37684	0	0	0	28189	26790	145131	27204	1040078	43771	110468	0	0	8229	556891	0	0
2024-07-08 15:08:32			0	37679	0	0	0	28189	26800	145075	27218	1040105	43772	110468	0	0	8229	557055	0	0
2024-07-08 15:09:32			0	37666	0	0	0	28199	26800	145155	26944	1040132	43783	110472	0	0	8228	557564	0	0
2024-07-08 15:10:32			0	37665	0	0	0	28212	26800	145131	27036	1040105	43783	110477	0	0	8228	557603	0	0
2024-07-08 15:11:32			0	37643	0	0	0	28215	26810	145187	27173	1040140	43795	110478	0	0	8227	558433	0	0
2024-07-08 15:12:32			0	37655	0	0	0	28220	26820	145283	27163	1040185	43784	110480	0	0	8227	557931	0	0
2024-07-08 15:13:32			0	37627	0	0	0	28228	26830	145283	27227	1040283	43786	110483	0	0	8226	558996	0	0
2024-07-08 15:14:32			0	37636	0	0	0	28228	26830	145275	27244	1040229	43775	110483	0	0	8226	558643	0	0
2024-07-08 15:15:32			0	37645	0	0	0	28210	26820	145167	27255	1040113	43762	110476	0	0	8227	558322	0	0
2024-07-08 15:16:32			0	37707	0	0	0	28186	26810	144959	27275	1040060	43761	110467	0	0	8231	555928	0	0
2024-07-08 15:17:32			0	37768	0	0	0	28173	26800	144751	27502	1040051	43760	110462	0	0	8234	553580	0	0
2024-07-08 15:18:32			0	37812	0	0	0	28181	26790	144579	27118	1040141	43760	110465	0	0	8236	551898	0	0
2024-07-08 15:19:32			0	37812	0	0	0	28199	26810	144579	27364	1040140	43773	110472	0	0	8236	551835	0	0
2024-07-08 15:20:32			0	37854	0	0	0	28225	26810	144543	27248	1040230	43784	110482	0	0	8238	550203	0	0
2024-07-08 15:21:32			0	37824	0	0	0	28238	26820	144563	27364	1040382	43796	110487	0	0	8236	551337	0	0
2024-07-08 15:22:32			0	37749	0	0	0	28283	26830	144747	27298	1040507	43775	110504	0	0	8231	554225	0	0
2024-07-08 15:23:32			0	37660	0	0	0	28303	26850	145255	27300	1040560	43798	110512	0	0	8226	557639	0	0
2024-07-08 15:24:32			0	37579	0	0	0	28301	26860	145475	27046	1040524	43789	110511	0	0	8222	560784	0	0
2024-07-08 15:25:32			0	37553	0	0	0	28283	26860	145583	27019	1040532	43799	110504	0	0	8221	561806	0	0
2024-07-08 15:26:32			0	37590	0	0	0	28290	26870	145403	27267	1040550	43791	110507	0	0	8223	560320	0	0
2024-07-08 15:27:32			0	37649	0	0	0	28290	26870	145227	27112	1040595	43790	110507	0	0	8226	558006	0	0
2024-07-08 15:28:32			0	37693	0	0	0	28301	26870	145079	27504	1040577	43768	110511	0	0	8228	556284	0	0
2024-07-08 15:29:32			0	37736	0	0	0	28303	26880	144883	27196	1040639	43779	110512	0	0	8230	554573	0	0
2024-07-08 15:30:32			0	37785	0	0	0	28303	26880	144875	27182	1040702	43779	110512	0	0	8233	552664	0	0
2024-07-08 15:31:32			0	37828	0	0	0	28311	26880	144647	27223	1040702	43791	110515	0	0	8235	550992	0	0
2024-07-08 15:32:32			0	37823	0	0	0	28319	26900	144555	27267	1040790	43793	110518	0	0	8235	551123	0	0
2024-07-08 15:33:32			0	37861	0	0	0	28342	26920	144347	27164	1040844	43794	110527	0	0	8236	549585	0	0
2024-07-08 15:34:32			0	37843	0	0	0	28363	26920	144307	27001	1040853	43806	110535	0	0	8235	550283	0	0
2024-07-08 15:35:32			0	37837	0	0	0	28376	26930	144615	27114	1040942	43784	110540	0	0	8235	550485	0	0
2024-07-08 15:36:32			0	37767	0	0	0	28379	26950	144735	27294	1040995	43796	110541	0	0	8231	553143	0	0
2024-07-08 15:37:32			0	37745	0	0	0	28389	26960	144755	27317	1041040	43809	110545	0	0	8230	553968	0	0
2024-07-08 15:38:32			0	37751	0	0	0	28394	26970	144791	26817	1041084	43798	110547	0	0	8230	553703	0	0
2024-07-08 15:39:32			0	37768	0	0	0	28407	26980	144835	27168	1041155	43789	110552	0	0	8231	553009	0	0
2024-07-08 15:40:32			0	37758	0	0	0	28407	26980	144671	27197	1041209	43789	110552	0	0	8230	553398	0	0
2024-07-08 15:41:32			0	37769	0	0	0	28428	27000	144659	27097	1041217	43813	110560	0	0	8231	552907	0	0
2024-07-08 15:42:32			0	37791	0	0	0	28428	27010	144531	27203	1041217	43803	110560	0	0	8232	552019	0	0
2024-07-08 15:43:32			0	37829	0	0	0	28420	27020	144407	27154	1041199	43782	110557	0	0	8234	550511	0	0
2024-07-08 15:44:32			0	37895	0	0	0	28394	27010	144155	27166	1041074	43780	110547	0	0	8238	547985	0	0
2024-07-08 15:45:32			0	37939	0	0	0	28392	27010	143907	27203	1041154	43791	110546	0	0	8240	546284	0	0
2024-07-08 15:46:32			0	38036	0	0	0	28402	27000	143752	27263	1041217	43801	110550	0	0	8245	542576	0	0
2024-07-08 15:47:32			0	38068	0	0	0	28441	27020	143608	27251	1041333	43804	110565	0	0	8246	541284	0	0
2024-07-08 15:48:32			0	38117	0	0	0	28464	27030	143416	26987	1041351	43804	110574	0	0	8248	539374	0	0
2024-07-08 15:49:32			0	38117	0	0	0	28477	27040	143348	27244	1041458	43806	110579	0	0	8248	539343	0	0
2024-07-08 15:50:32			0	38071	0	0	0	28488	27050	143584	27150	1041440	43795	110583	0	0	8245	541076	0	0
2024-07-08 15:51:32			0	38011	0	0	0	28498	27050	143755	27093	1041547	43807	110587	0	0	8242	543382	0	0
2024-07-08 15:52:32			0	37950	0	0	0	28506	27060	143963	27284	1041574	43808	110590	0	0	8239	545702	0	0
2024-07-08 15:53:32			0	37897	0	0	0	28511	27070	144035	27208	1041538	43820	110592	0	0	8236	547719	0	0
2024-07-08 15:54:32			0	37883	0	0	0	28514	27070	144183	27213	1041564	43797	110593	0	0	8235	548261	0	0
2024-07-08 15:55:32			0	37901	0	0	0	28511	27090	144247	27194	1041653	43811	110592	0	0	8236	547501	0	0
2024-07-08 15:56:32			0	37885	0	0	0	28516	27090	144211	27386	1041725	43799	110594	0	0	8235	548120	0	0
2024-07-08 15:57:32			0	37909	0	0	0	28535	27100	144131	27171	1041743	43800	110601	0	0	8236	547160	0	0
2024-07-08 15:58:32			0	37930	0	0	0	28524	27090	143959	27581	1041653	43799	110597	0	0	8238	546380	0	0
2024-07-08 15:59:32			0	37938	0	0	0	28522	27110	143959	27358	1041706	43812	110596	0	0	8238	546009	0	0
2024-07-08 16:00:32			0	37955	0	0	0	28522	27100	143911	27112	1041698	43812	110596	0	0	8239	545384	0	0
2024-07-08 16:01:32			0	37983	0	0	0	28532	27110	143867	27261	1041706	43812	110600	0	0	8240	544273	0	0
2024-07-08 16:02:32			0	37975	0	0	0	28537	27110	143779	27483	1041823	43824	110602	0	0	8240	544582	0	0
2024-07-08 16:03:32			0	37981	0	0	0	28540	27120	143711	27353	1041867	43826	110603	0	0	8240	544319	0	0
2024-07-08 16:04:32			0	37997	0	0	0	28548	27140	143731	27118	1041920	43827	110606	0	0	8241	543641	0	0
2024-07-08 16:05:32			0	37997	0	0	0	28555	27140	143683	27060	1041974	43815	110609	0	0	8241	543641	0	0
2024-07-08 16:06:32			0	37982	0	0	0	28566	27160	143671	27215	1042018	43818	110613	0	0	8240	544156	0	0
2024-07-08 16:07:32			0	38016	0	0	0	28561	27160	143775	27182	1042009	43806	110611	0	0	8242	542847	0	0
2024-07-08 16:08:32			0	37996	0	0	0	28553	27160	143751	27253	1042009	43806	110608	0	0	8241	543617	0	0
2024-07-08 16:09:32			0	38022	0	0	0	28545	27170	143719	27326	1042054	43819	110605	0	0	8242	542585	0	0
2024-07-08 16:10:32			0	37985	0	0	0	28540	27170	143779	27249	1041946	43796	110603	0	0	8240	544009	0	0
2024-07-08 16:11:32			0	37995	0	0	0	28498	27150	143715	27234	1041758	43773	110587	0	0	8242	543686	0	0
2024-07-08 16:12:32			0	37986	0	0	0	28496	27150	143711	27027	1041705	43761	110586	0	0	8241	544033	0	0
2024-07-08 16:13:32			0	37976	0	0	0	28472	27130	143787	27235	1041696	43782	110577	0	0	8241	544481	0	0
2024-07-08 16:14:32			0	37996	0	0	0	28475	27130	143847	26958	1041634	43770	110578	0	0	8242	543710	0	0
2024-07-08 16:15:32			0	37964	0	0	0	28464	27130	143831	27296	1041715	43781	110574	0	0	8241	544943	0	0
2024-07-08 16:16:32			0	37964	0	0	0	28459	27130	143879	27493	1041768	43814	110572	0	0	8241	544943	0	0
2024-07-08 16:17:32			0	37943	0	0	0	28490	27130	143995	27208	1041831	43815	110584	0	0	8239	545753	0	0
2024-07-08 16:18:32			0	37924	0	0	0	28511	27130	143915	27093	1041885	43804	110592	0	0	8238	546487	0	0
2024-07-08 16:19:32			0	37927	0	0	0	28519	27140	144043	26970	1041840	43815	110595	0	0	8238	546340	0	0
2024-07-08 16:20:32			0	37919	0	0	0	28490	27140	144019	27308	1041687	43793	110584	0	0	8238	546649	0	0
2024-07-08 16:21:32			0	37916	0	0	0	28480	27130	143991	27248	1041661	43781	110580	0	0	8238	546796	0	0
2024-07-08 16:22:32			0	37904	0	0	0	28457	27120	144059	27497	1041643	43780	110571	0	0	8238	547291	0	0
2024-07-08 16:23:32			0	37905	0	0	0	28464	27110	144111	27282	1041680	43801	110574	0	0	8237	547284	0	0
2024-07-08 16:24:32			0	37893	0	0	0	28475	27120	144111	27254	1041643	43802	110578	0	0	8237	547716	0	0
2024-07-08 16:25:32			0	37893	0	0	0	28488	27110	144131	27081	1041715	43791	110583	0	0	8236	547748	0	0
2024-07-08 16:26:32			0	37873	0	0	0	28490	27120	144127	27327	1041751	43813	110584	0	0	8235	548490	0	0
2024-07-08 16:27:32			0	37878	0	0	0	28509	27130	144271	27270	1041822	43803	110591	0	0	8235	548265	0	0
2024-07-08 16:28:32			0	37859	0	0	0	28522	27130	144207	27062	1041858	43815	110596	0	0	8234	549001	0	0
2024-07-08 16:29:32			0	37861	0	0	0	28529	27130	144303	27348	1041804	43804	110599	0	0	8234	548924	0	0
2024-07-08 16:30:32			0	37833	0	0	0	28540	27140	144235	27355	1041929	43816	110603	0	0	8233	549977	0	0
2024-07-08 16:31:32			0	37824	0	0	0	28514	27140	144291	26951	1041840	43792	110593	0	0	8233	550326	0	0
2024-07-08 16:32:32			0	37836	0	0	0	28496	27150	144239	27229	1041803	43784	110586	0	0	8233	549829	0	0
2024-07-08 16:33:32			0	37828	0	0	0	28470	27140	144291	27384	1041759	43792	110576	0	0	8233	550171	0	0
2024-07-08 16:34:32			0	37847	0	0	0	28451	27130	144255	27476	1041688	43781	110569	0	0	8235	549466	0	0
2024-07-08 16:35:32			0	37843	0	0	0	28433	27120	144183	27407	1041706	43792	110562	0	0	8235	549653	0	0
2024-07-08 16:36:32			0	37843	0	0	0	28436	27110	144351	27545	1041608	43779	110563	0	0	8235	549684	0	0
2024-07-08 16:37:32			0	37836	0	0	0	28438	27120	144219	27409	1041697	43802	110564	0	0	8234	549924	0	0
2024-07-08 16:38:32			0	37843	0	0	0	28451	27120	144219	27137	1041751	43791	110569	0	0	8234	549653	0	0
2024-07-08 16:39:32			0	37835	0	0	0	28457	27120	144339	27306	1041760	43792	110571	0	0	8234	549963	0	0
2024-07-08 16:40:32			0	37823	0	0	0	28470	27130	144335	26911	1041795	43803	110576	0	0	8233	550397	0	0
2024-07-08 16:41:32			0	37831	0	0	0	28485	27130	144383	27524	1041795	43792	110582	0	0	8233	550086	0	0
2024-07-08 16:42:32			0	37824	0	0	0	28498	27130	144395	27559	1041768	43792	110587	0	0	8233	550358	0	0
2024-07-08 16:43:32			0	37827	0	0	0	28488	27130	144471	27102	1041795	43814	110583	0	0	8233	550241	0	0
2024-07-08 16:44:32			0	37816	0	0	0	28496	27130	144351	27360	1041777	43792	110586	0	0	8232	550668	0	0
2024-07-08 16:45:32			0	37816	0	0	0	28506	27140	144343	27371	1041840	43804	110590	0	0	8232	550637	0	0
2024-07-08 16:46:32			0	37809	0	0	0	28524	27140	144355	26838	1041893	43815	110597	0	0	8232	550908	0	0
2024-07-08 16:47:32			0	37828	0	0	0	28540	27140	144415	27008	1041929	43793	110603	0	0	8232	550171	0	0
2024-07-08 16:48:32			0	37795	0	0	0	28555	27140	144487	27064	1041956	43793	110609	0	0	8230	551452	0	0
2024-07-08 16:49:32			0	37813	0	0	0	28573	27160	144415	27345	1042036	43817	110616	0	0	8231	550690	0	0
2024-07-08 16:50:32			0	37807	0	0	0	28586	27160	144511	27109	1042045	43807	110621	0	0	8231	550923	0	0
2024-07-08 16:51:32			0	37801	0	0	0	28597	27170	144419	27242	1042000	43819	110625	0	0	8230	551124	0	0
2024-07-08 16:52:32			0	37797	0	0	0	28605	27170	144379	27270	1042090	43808	110628	0	0	8230	551279	0	0
2024-07-08 16:53:32			0	37792	0	0	0	28605	27180	144475	27161	1042080	43809	110628	0	0	8230	551442	0	0
2024-07-08 16:54:32			0	37800	0	0	0	28612	27180	144411	26996	1042107	43809	110631	0	0	8230	551131	0	0
2024-07-08 16:55:32			0	37806	0	0	0	28607	27180	144423	27140	1042098	43808	110629	0	0	8230	550898	0	0
2024-07-08 16:56:32			0	37809	0	0	0	28607	27190	144359	27211	1042170	43821	110629	0	0	8230	550750	0	0
2024-07-08 16:57:32			0	37804	0	0	0	28625	27190	144411	27326	1042205	43821	110636	0	0	8230	550944	0	0
2024-07-08 16:58:32			0	37828	0	0	0	28623	27190	144315	27426	1042125	43821	110635	0	0	8231	550013	0	0
2024-07-08 16:59:32			0	37822	0	0	0	28618	27200	144267	27305	1042223	43833	110633	0	0	8231	550214	0	0
2024-07-08 17:00:32			0	37839	0	0	0	28623	27210	144251	27296	1042232	43811	110635	0	0	8232	549524	0	0
2024-07-08 17:01:32			0	37842	0	0	0	28620	27210	144299	27185	1042232	43823	110634	0	0	8232	549407	0	0
2024-07-08 17:02:32			0	37854	0	0	0	28597	27210	144287	27305	1042178	43811	110625	0	0	8233	548943	0	0
2024-07-08 17:03:32			0	37842	0	0	0	28584	27200	144191	26977	1042169	43799	110620	0	0	8233	549439	0	0
2024-07-08 17:04:32			0	37846	0	0	0	28576	27210	144155	27222	1042178	43811	110617	0	0	8233	549252	0	0
2024-07-08 17:05:32			0	37853	0	0	0	28571	27200	144275	27133	1042196	43811	110615	0	0	8233	549013	0	0
2024-07-08 17:06:32			0	37858	0	0	0	28581	27210	144199	27218	1042205	43811	110619	0	0	8233	548788	0	0
2024-07-08 17:07:32			0	37874	0	0	0	28594	27200	144127	27301	1042142	43811	110624	0	0	8234	548200	0	0
2024-07-08 17:08:32			0	37868	0	0	0	28597	27210	144115	27059	1042178	43811	110625	0	0	8234	548400	0	0
2024-07-08 17:09:32			0	37864	0	0	0	28605	27200	144243	27232	1042277	43811	110628	0	0	8233	548587	0	0
2024-07-08 17:10:32			0	37850	0	0	0	28602	27210	144107	27128	1042232	43823	110627	0	0	8233	549098	0	0
2024-07-08 17:11:32			0	37847	0	0	0	28597	27210	144295	27308	1042285	43811	110625	0	0	8233	549214	0	0
2024-07-08 17:12:32			0	37861	0	0	0	28607	27210	144123	26890	1042205	43811	110629	0	0	8233	548672	0	0
2024-07-08 17:13:32			0	37850	0	0	0	28605	27200	144279	27225	1042169	43811	110628	0	0	8233	549129	0	0
2024-07-08 17:14:32			0	37839	0	0	0	28599	27210	144163	27197	1042232	43811	110626	0	0	8232	549524	0	0
2024-07-08 17:15:32			0	37844	0	0	0	28605	27210	144191	26939	1042258	43823	110628	0	0	8232	549330	0	0
2024-07-08 17:16:32			0	37844	0	0	0	28615	27210	144231	27150	1042205	43811	110632	0	0	8232	549330	0	0
2024-07-08 17:17:32			0	37840	0	0	0	28618	27210	144175	27223	1042232	43811	110633	0	0	8232	549485	0	0
2024-07-08 17:18:32			0	37833	0	0	0	28628	27220	144179	27166	1042168	43812	110637	0	0	8231	549725	0	0
2024-07-08 17:19:32			0	37849	0	0	0	28631	27210	144307	27339	1042294	43834	110638	0	0	8232	549136	0	0
2024-07-08 17:20:32			0	37832	0	0	0	28633	27220	144247	27192	1042330	43812	110639	0	0	8231	549763	0	0
2024-07-08 17:21:32			0	37835	0	0	0	28638	27230	144347	27183	1042312	43824	110641	0	0	8231	549616	0	0
2024-07-08 17:22:32			0	37827	0	0	0	28625	27220	144247	27466	1042330	43812	110636	0	0	8231	549957	0	0
2024-07-08 17:23:32			0	37833	0	0	0	28631	27230	144259	27261	1042258	43812	110638	0	0	8231	549693	0	0
2024-07-08 17:24:32			0	37808	0	0	0	28618	27240	144271	27315	1042275	43826	110633	0	0	8230	550631	0	0
2024-07-08 17:25:32			0	37818	0	0	0	28625	27210	144315	27261	1042187	43801	110636	0	0	8231	550338	0	0
2024-07-08 17:26:32			0	37817	0	0	0	28612	27210	144367	27241	1042213	43801	110631	0	0	8231	550377	0	0
2024-07-08 17:27:32			0	37809	0	0	0	28623	27210	144371	27105	1042267	43801	110635	0	0	8230	550687	0	0
2024-07-08 17:28:32			0	37810	0	0	0	28623	27210	144407	27010	1042205	43800	110635	0	0	8230	550648	0	0
2024-07-08 17:29:32			0	37798	0	0	0	28612	27200	144411	27194	1042250	43811	110631	0	0	8230	551146	0	0
2024-07-08 17:30:32			0	37816	0	0	0	28618	27220	144383	27124	1042195	43801	110633	0	0	8231	550384	0	0
2024-07-08 17:31:32			0	37810	0	0	0	28602	27210	144455	27371	1042240	43801	110627	0	0	8231	550648	0	0
2024-07-08 17:32:32			0	37821	0	0	0	28612	27210	144479	27329	1042187	43812	110631	0	0	8231	550222	0	0
2024-07-08 17:33:32			0	37819	0	0	0	28602	27210	144519	27355	1042205	43811	110627	0	0	8231	550299	0	0
2024-07-08 17:34:32			0	37803	0	0	0	28602	27210	144479	27327	1042178	43800	110627	0	0	8230	550920	0	0
2024-07-08 17:35:32			0	37799	0	0	0	28610	27200	144535	27130	1042196	43811	110630	0	0	8230	551107	0	0
2024-07-08 17:36:32			0	37807	0	0	0	28605	27210	144455	26922	1042178	43823	110628	0	0	8230	550765	0	0
2024-07-08 17:37:32			0	37794	0	0	0	28607	27210	144491	27083	1042258	43823	110629	0	0	8230	551269	0	0
2024-07-08 17:38:32			0	37773	0	0	0	28612	27210	144523	27029	1042232	43823	110631	0	0	8229	552085	0	0
2024-07-08 17:39:32			0	37798	0	0	0	28599	27210	144559	27267	1042205	43823	110626	0	0	8230	551114	0	0
2024-07-08 17:40:32			0	37782	0	0	0	28592	27210	144467	27164	1042151	43811	110623	0	0	8229	551735	0	0
2024-07-08 17:41:32			0	37797	0	0	0	28594	27210	144499	27208	1042160	43824	110624	0	0	8230	551153	0	0
2024-07-08 17:42:32			0	37769	0	0	0	28599	27200	144483	27268	1042223	43811	110626	0	0	8229	552272	0	0
2024-07-08 17:43:32			0	37788	0	0	0	28610	27220	144559	27260	1042276	43824	110630	0	0	8229	551471	0	0
2024-07-08 17:44:32			0	37786	0	0	0	28628	27220	144563	27137	1042303	43812	110637	0	0	8229	551548	0	0
2024-07-08 17:45:32			0	37796	0	0	0	28620	27220	144499	27331	1042249	43812	110634	0	0	8230	551160	0	0
2024-07-08 17:46:32			0	37771	0	0	0	28625	27220	144603	27116	1042249	43812	110636	0	0	8228	552131	0	0
2024-07-08 17:47:32			0	37775	0	0	0	28597	27210	144547	27145	1042232	43811	110625	0	0	8229	552007	0	0
2024-07-08 17:48:32			0	37787	0	0	0	28594	27210	144639	26942	1042240	43801	110624	0	0	8230	551541	0	0
2024-07-08 17:49:32			0	37795	0	0	0	28597	27200	144503	27201	1042250	43811	110625	0	0	8230	551262	0	0
2024-07-08 17:50:32			0	37780	0	0	0	28612	27220	144607	26828	1042303	43824	110631	0	0	8229	551782	0	0
2024-07-08 17:51:32			0	37776	0	0	0	28620	27230	144531	27015	1042312	43812	110634	0	0	8229	551905	0	0
2024-07-08 17:52:32			0	37780	0	0	0	28618	27210	144543	27235	1042321	43812	110633	0	0	8229	551813	0	0
2024-07-08 17:53:32			0	37791	0	0	0	28625	27230	144527	26913	1042374	43825	110636	0	0	8229	551323	0	0
2024-07-08 17:54:32			0	37777	0	0	0	28633	27230	144571	27235	1042320	43813	110639	0	0	8228	551866	0	0
2024-07-08 17:55:32			0	37777	0	0	0	28597	27230	144599	27180	1042240	43802	110625	0	0	8229	551866	0	0
2024-07-08 17:56:32			0	37778	0	0	0	28599	27220	144487	27249	1042276	43801	110626	0	0	8229	551859	0	0
2024-07-08 17:57:32			0	37796	0	0	0	28594	27230	144543	27308	1042124	43812	110624	0	0	8230	551128	0	0
2024-07-08 17:58:32			0	37801	0	0	0	28579	27200	144515	26941	1042169	43789	110618	0	0	8231	551029	0	0
2024-07-08 17:59:32			0	37803	0	0	0	28573	27210	144363	27111	1042187	43801	110616	0	0	8231	550920	0	0
2024-07-08 18:00:32			0	37809	0	0	0	28573	27210	144459	26845	1042178	43811	110616	0	0	8231	550687	0	0
2024-07-08 18:01:32			0	37812	0	0	0	28592	27210	144415	27163	1042232	43823	110623	0	0	8231	550571	0	0
2024-07-08 18:02:32			0	37803	0	0	0	28586	27210	144371	27067	1042205	43823	110621	0	0	8231	550920	0	0
2024-07-08 18:03:32			0	37797	0	0	0	28589	27210	144567	27223	1042321	43812	110622	0	0	8230	551153	0	0
2024-07-08 18:04:32			0	37817	0	0	0	28589	27210	144491	27294	1042285	43811	110622	0	0	8231	550377	0	0
2024-07-08 18:05:32			0	37798	0	0	0	28607	27220	144511	27107	1042276	43812	110629	0	0	8230	551082	0	0
2024-07-08 18:06:32			0	37801	0	0	0	28615	27220	144519	27024	1042276	43812	110632	0	0	8230	550966	0	0
2024-07-08 18:07:32			0	37825	0	0	0	28623	27230	144599	27241	1042374	43813	110635	0	0	8231	550003	0	0
2024-07-08 18:08:32			0	37814	0	0	0	28649	27220	144463	26838	1042384	43824	110645	0	0	8230	550461	0	0
2024-07-08 18:09:32			0	37797	0	0	0	28654	27240	144579	27083	1042410	43826	110647	0	0	8229	551058	0	0
2024-07-08 18:10:32			0	37816	0	0	0	28677	27240	144583	27029	1042446	43814	110656	0	0	8230	550321	0	0
2024-07-08 18:11:32			0	37811	0	0	0	28672	27260	144499	27041	1042552	43838	110654	0	0	8230	550451	0	0
2024-07-08 18:12:32			0	37811	0	0	0	28677	27250	144463	27019	1042463	43815	110656	0	0	8230	550483	0	0
2024-07-08 18:13:32			0	37835	0	0	0	28683	27260	144403	26906	1042526	43849	110658	0	0	8231	549521	0	0
2024-07-08 18:14:32			0	37825	0	0	0	28683	27260	144427	27107	1042507	43828	110658	0	0	8230	549908	0	0
2024-07-08 18:15:32			0	37822	0	0	0	28683	27260	144423	27182	1042507	43838	110658	0	0	8230	550025	0	0
2024-07-08 18:16:32			0	37820	0	0	0	28675	27260	144443	27062	1042481	43828	110655	0	0	8230	550102	0	0
2024-07-08 18:17:32			0	37819	0	0	0	28672	27260	144419	27441	1042526	43838	110654	0	0	8230	550141	0	0
2024-07-08 18:18:32			0	37848	0	0	0	28670	27260	144299	27105	1042552	43828	110653	0	0	8232	549017	0	0
2024-07-08 18:19:32			0	37852	0	0	0	28677	27270	144359	27086	1042552	43839	110656	0	0	8232	548831	0	0
2024-07-08 18:20:32			0	37841	0	0	0	28683	27260	144391	26953	1042507	43828	110658	0	0	8231	549288	0	0
2024-07-08 18:21:32			0	37854	0	0	0	28659	27260	144419	27095	1042445	43828	110649	0	0	8232	548785	0	0
2024-07-08 18:22:32			0	37869	0	0	0	28644	27260	144307	27131	1042418	43805	110643	0	0	8233	548204	0	0
2024-07-08 18:23:32			0	37885	0	0	0	28628	27250	144327	26955	1042401	43803	110637	0	0	8234	547617	0	0
2024-07-08 18:24:32			0	37877	0	0	0	28628	27240	144227	27119	1042284	43826	110637	0	0	8234	547958	0	0
2024-07-08 18:25:32			0	37899	0	0	0	28620	27250	144159	27377	1042320	43814	110634	0	0	8235	547076	0	0
2024-07-08 18:26:32			0	37896	0	0	0	28610	27240	144179	27119	1042257	43836	110630	0	0	8235	547223	0	0
2024-07-08 18:27:32			0	37905	0	0	0	28602	27230	144127	27038	1042285	43812	110627	0	0	8236	546907	0	0
2024-07-08 18:28:32			0	37899	0	0	0	28594	27230	144087	27159	1042150	43812	110624	0	0	8235	547139	0	0
2024-07-08 18:29:32			0	37917	0	0	0	28592	27230	144123	27232	1042267	43813	110623	0	0	8236	546443	0	0
2024-07-08 18:30:32			0	37901	0	0	0	28602	27220	144103	27315	1042249	43812	110627	0	0	8235	547093	0	0
2024-07-08 18:31:32			0	37933	0	0	0	28594	27210	144123	27239	1042187	43824	110624	0	0	8237	545888	0	0
2024-07-08 18:32:32			0	37912	0	0	0	28597	27220	144087	27312	1042222	43801	110625	0	0	8236	546668	0	0
2024-07-08 18:33:32			0	37923	0	0	0	28602	27210	144195	27258	1042232	43811	110627	0	0	8236	546274	0	0
2024-07-08 18:34:32			0	37908	0	0	0	28605	27200	144087	27364	1042196	43822	110628	0	0	8236	546885	0	0
2024-07-08 18:35:32			0	37927	0	0	0	28607	27210	144143	26956	1042267	43834	110629	0	0	8237	546120	0	0
2024-07-08 18:36:32			0	37926	0	0	0	28615	27210	144079	27012	1042267	43812	110632	0	0	8236	546159	0	0
2024-07-08 18:37:32			0	37919	0	0	0	28618	27210	144063	27060	1042205	43811	110633	0	0	8236	546429	0	0
2024-07-08 18:38:32			0	37923	0	0	0	28615	27210	144003	26876	1042294	43801	110632	0	0	8236	546274	0	0
2024-07-08 18:39:32			0	37923	0	0	0	28615	27220	144139	26958	1042276	43834	110632	0	0	8236	546243	0	0
2024-07-08 18:40:32			0	37920	0	0	0	28618	27220	144039	26889	1042330	43824	110633	0	0	8236	546359	0	0
2024-07-08 18:41:32			0	37938	0	0	0	28631	27210	144063	27055	1042321	43824	110638	0	0	8237	545695	0	0
2024-07-08 18:42:32			0	37940	0	0	0	28615	27210	144043	27298	1042240	43801	110632	0	0	8237	545618	0	0
2024-07-08 18:43:32			0	37929	0	0	0	28605	27210	144091	26826	1042232	43811	110628	0	0	8237	546043	0	0
2024-07-08 18:44:32			0	37926	0	0	0	28594	27210	144103	27062	1042178	43823	110624	0	0	8237	546159	0	0
2024-07-08 18:45:32			0	37937	0	0	0	28597	27210	144007	27320	1042151	43811	110625	0	0	8237	545734	0	0
2024-07-08 18:46:32			0	37941	0	0	0	28584	27200	144031	27150	1042169	43822	110620	0	0	8238	545611	0	0
2024-07-08 18:47:32			0	37946	0	0	0	28589	27200	144079	27268	1042196	43811	110622	0	0	8238	545418	0	0
2024-07-08 18:48:32			0	37940	0	0	0	28589	27200	144047	27369	1042187	43810	110622	0	0	8237	545650	0	0
2024-07-08 18:49:32			0	37937	0	0	0	28579	27200	144067	27176	1042115	43822	110618	0	0	8237	545765	0	0
2024-07-08 18:50:32			0	37942	0	0	0	28568	27190	144023	27026	1042089	43810	110614	0	0	8238	545604	0	0
2024-07-08 18:51:32			0	37936	0	0	0	28571	27190	144071	27223	1042125	43798	110615	0	0	8238	545835	0	0
2024-07-08 18:52:32			0	37931	0	0	0	28568	27190	144015	27182	1042035	43810	110614	0	0	8237	546028	0	0
2024-07-08 18:53:32			0	37952	0	0	0	28545	27180	144027	27140	1041973	43797	110605	0	0	8239	545249	0	0
2024-07-08 18:54:32			0	37933	0	0	0	28514	27170	144059	26868	1041946	43796	110593	0	0	8238	546014	0	0
2024-07-08 18:55:32			0	37937	0	0	0	28514	27170	144039	27112	1041973	43796	110593	0	0	8238	545859	0	0
2024-07-08 18:56:32			0	37927	0	0	0	28516	27150	144155	27140	1041866	43806	110594	0	0	8238	546308	0	0
2024-07-08 18:57:32			0	37935	0	0	0	28529	27170	144127	27474	1041946	43819	110599	0	0	8238	545937	0	0
2024-07-08 18:58:32			0	37935	0	0	0	28522	27160	144127	26946	1041928	43817	110596	0	0	8238	545968	0	0
2024-07-08 18:59:32			0	37922	0	0	0	28483	27150	144147	27438	1041857	43806	110581	0	0	8238	546501	0	0
2024-07-08 19:00:32			0	37942	0	0	0	28462	27150	144095	27223	1041758	43784	110573	0	0	8240	545729	0	0
2024-07-08 19:01:32			0	37930	0	0	0	28449	27120	144011	26873	1041670	43791	110568	0	0	8239	546286	0	0
2024-07-08 19:02:32			0	37949	0	0	0	28457	27120	144059	27019	1041670	43802	110571	0	0	8240	545553	0	0
2024-07-08 19:03:32			0	37943	0	0	0	28449	27110	144143	26904	1041661	43791	110568	0	0	8240	545816	0	0
2024-07-08 19:04:32			0	37931	0	0	0	28444	27100	144047	27190	1041536	43791	110566	0	0	8239	546311	0	0
2024-07-08 19:05:32			0	37939	0	0	0	28418	27090	144159	27091	1041510	43777	110556	0	0	8240	546033	0	0
2024-07-08 19:06:32			0	37935	0	0	0	28418	27080	144195	27118	1041439	43788	110556	0	0	8240	546219	0	0
2024-07-08 19:07:32			0	37939	0	0	0	28418	27070	144199	27183	1041403	43797	110556	0	0	8240	546096	0	0
2024-07-08 19:08:32			0	37939	0	0	0	28420	27070	144159	27227	1041484	43797	110557	0	0	8240	546096	0	0
2024-07-08 19:09:32			0	37938	0	0	0	28423	27070	144227	27090	1041376	43787	110558	0	0	8240	546134	0	0
2024-07-08 19:10:32			0	37928	0	0	0	28418	27060	144175	27235	1041377	43796	110556	0	0	8239	546552	0	0
2024-07-08 19:11:32			0	37943	0	0	0	28412	27050	144195	27131	1041359	43785	110554	0	0	8240	546004	0	0
2024-07-08 19:12:32			0	37934	0	0	0	28412	27050	144183	27010	1041368	43785	110554	0	0	8240	546351	0	0
2024-07-08 19:13:32			0	37920	0	0	0	28394	27040	144211	27078	1041297	43794	110547	0	0	8239	546924	0	0
2024-07-08 19:14:32			0	37925	0	0	0	28389	27040	144275	27034	1041297	43806	110545	0	0	8239	546730	0	0
2024-07-08 19:15:32			0	37934	0	0	0	28412	27050	144247	27036	1041386	43795	110554	0	0	8240	546351	0	0
2024-07-08 19:16:32			0	37909	0	0	0	28420	27040	144203	27045	1041324	43784	110557	0	0	8238	547349	0	0
2024-07-08 19:17:32			0	37927	0	0	0	28394	27030	144183	27199	1041225	43794	110547	0	0	8239	546684	0	0
2024-07-08 19:18:32			0	37937	0	0	0	28376	27020	144183	27672	1041154	43782	110540	0	0	8240	546329	0	0
2024-07-08 19:19:32			0	37918	0	0	0	28374	27030	144159	27235	1041216	43804	110539	0	0	8239	547032	0	0
2024-07-08 19:20:32			0	37912	0	0	0	28376	27020	144283	27175	1041253	43793	110540	0	0	8239	547296	0	0
2024-07-08 19:21:32			0	37931	0	0	0	28371	27010	144259	27111	1041190	43803	110538	0	0	8240	546593	0	0
2024-07-08 19:22:32			0	37913	0	0	0	28345	27010	144335	27076	1041110	43781	110528	0	0	8239	547288	0	0
2024-07-08 19:23:32			0	37919	0	0	0	28355	27010	144271	27140	1041154	43802	110532	0	0	8240	547056	0	0
2024-07-08 19:24:32			0	37928	0	0	0	28345	27000	144319	26993	1041065	43780	110528	0	0	8240	546740	0	0
2024-07-08 19:25:32			0	37920	0	0	0	28329	26980	144271	27440	1040994	43777	110522	0	0	8240	547112	0	0
2024-07-08 19:26:32			0	37899	0	0	0	28340	26970	144275	27248	1041066	43789	110526	0	0	8239	547956	0	0
2024-07-08 19:27:32			0	37909	0	0	0	28358	26980	144383	27301	1041102	43789	110533	0	0	8239	547537	0	0
2024-07-08 19:28:32			0	37906	0	0	0	28361	26980	144351	27485	1040994	43789	110534	0	0	8239	547653	0	0
2024-07-08 19:29:32			0	37913	0	0	0	28332	26970	144327	27116	1041039	43766	110523	0	0	8239	547414	0	0
2024-07-08 19:30:32			0	37909	0	0	0	28345	26960	144359	27393	1041075	43810	110528	0	0	8239	547600	0	0
2024-07-08 19:31:32			0	37901	0	0	0	28358	26980	144363	26927	1041182	43789	110533	0	0	8238	547847	0	0
2024-07-08 19:32:32			0	37903	0	0	0	28368	26990	144379	27201	1041235	43801	110537	0	0	8238	547738	0	0
2024-07-08 19:33:32			0	37901	0	0	0	28376	27000	144387	26897	1041244	43801	110540	0	0	8238	547784	0	0
2024-07-08 19:34:32			0	37895	0	0	0	28376	27000	144371	27060	1041244	43801	110540	0	0	8238	548016	0	0
2024-07-08 19:35:32			0	37908	0	0	0	28386	26980	144395	26882	1041191	43790	110544	0	0	8238	547576	0	0
2024-07-08 19:36:32			0	37886	0	0	0	28418	27000	144407	27003	1041271	43801	110556	0	0	8237	548364	0	0
2024-07-08 19:37:32			0	37886	0	0	0	28428	27010	144459	26738	1041298	43803	110560	0	0	8237	548333	0	0
2024-07-08 19:38:32			0	37887	0	0	0	28423	27010	144499	26902	1041262	43802	110558	0	0	8237	548294	0	0
2024-07-08 19:39:32			0	37893	0	0	0	28425	27010	144511	27074	1041325	43814	110559	0	0	8237	548062	0	0
2024-07-08 19:40:32			0	37872	0	0	0	28428	27030	144491	27100	1041351	43804	110560	0	0	8236	548812	0	0
2024-07-08 19:41:32			0	37877	0	0	0	28428	27010	144519	26935	1041378	43814	110560	0	0	8236	548682	0	0
2024-07-08 19:42:32			0	37880	0	0	0	28436	27030	144439	27163	1041378	43793	110563	0	0	8236	548502	0	0
2024-07-08 19:43:32			0	37873	0	0	0	28438	27030	144423	27066	1041431	43827	110564	0	0	8236	548774	0	0
2024-07-08 19:44:32			0	37873	0	0	0	28444	27020	144459	26960	1041342	43815	110566	0	0	8236	548805	0	0
2024-07-08 19:45:32			0	37876	0	0	0	28444	27030	144487	26904	1041413	43816	110566	0	0	8236	548657	0	0
2024-07-08 19:46:32			0	37880	0	0	0	28446	27030	144475	27118	1041360	43805	110567	0	0	8236	548502	0	0
2024-07-08 19:47:32			0	37874	0	0	0	28431	27030	144459	27260	1041324	43815	110561	0	0	8236	548735	0	0
2024-07-08 19:48:32			0	37870	0	0	0	28431	27030	144407	27118	1041297	43804	110561	0	0	8236	548890	0	0
2024-07-08 19:49:32			0	37879	0	0	0	28418	27020	144423	27000	1041226	43804	110556	0	0	8236	548573	0	0
2024-07-08 19:50:32			0	37878	0	0	0	28399	27000	144503	26987	1041145	43802	110549	0	0	8237	548674	0	0
2024-07-08 19:51:32			0	37876	0	0	0	28386	27010	144435	27027	1041154	43791	110544	0	0	8237	548720	0	0
2024-07-08 19:52:32			0	37880	0	0	0	28371	27000	144483	27215	1041083	43801	110538	0	0	8237	548597	0	0
2024-07-08 19:53:32			0	37884	0	0	0	28374	26990	144491	27159	1041101	43791	110539	0	0	8237	548473	0	0
2024-07-08 19:54:32			0	37871	0	0	0	28350	26990	144475	26932	1041074	43801	110530	0	0	8237	548977	0	0
2024-07-08 19:55:32			0	37885	0	0	0	28335	26980	144419	27022	1040976	43790	110524	0	0	8238	548466	0	0
2024-07-08 19:56:32			0	37871	0	0	0	28277	26970	144403	27298	1040690	43777	110502	0	0	8238	549040	0	0
2024-07-08 19:57:32			0	37866	0	0	0	28199	26930	144395	27114	1040467	43751	110472	0	0	8239	549360	0	0
2024-07-08 19:58:32			0	37877	0	0	0	28145	26900	144507	27225	1040352	43748	110451	0	0	8240	549028	0	0
2024-07-08 19:59:32			0	37858	0	0	0	28114	26890	144451	27248	1040307	43736	110439	0	0	8240	549796	0	0
2024-07-08 20:00:32			0	37864	0	0	0	28090	26860	144547	27218	1040264	43755	110430	0	0	8241	549658	0	0
2024-07-08 20:01:32			0	37858	0	0	0	28072	26840	144511	27277	1040220	43764	110423	0	0	8240	549953	0	0
2024-07-08 20:02:32			0	37863	0	0	0	28044	26830	144563	27130	1039987	43752	110412	0	0	8241	549791	0	0
2024-07-08 20:03:32			0	37863	0	0	0	28018	26810	144583	27348	1039961	43740	110402	0	0	8242	549854	0	0
2024-07-08 20:04:32			0	37835	0	0	0	28031	26790	144567	27012	1040087	43760	110407	0	0	8240	551004	0	0
2024-07-08 20:05:32			0	37818	0	0	0	28109	26800	144675	27152	1040320	43783	110437	0	0	8238	551633	0	0
2024-07-08 20:06:32			0	37816	0	0	0	28168	26820	144791	27090	1040408	43774	110460	0	0	8237	551648	0	0
2024-07-08 20:07:32			0	37786	0	0	0	28236	26840	144751	27112	1040515	43776	110486	0	0	8234	552752	0	0
2024-07-08 20:08:32			0	37808	0	0	0	28254	26840	144851	27163	1040542	43797	110493	0	0	8235	551896	0	0
2024-07-08 20:09:32			0	37796	0	0	0	28249	26850	144919	27055	1040533	43788	110491	0	0	8234	552331	0	0
2024-07-08 20:10:32			0	37775	0	0	0	28246	26850	144923	27079	1040568	43778	110490	0	0	8233	553149	0	0
2024-07-08 20:11:32			0	37782	0	0	0	28199	26850	144891	26850	1040434	43778	110472	0	0	8234	552876	0	0
2024-07-08 20:12:32			0	37790	0	0	0	28176	26860	144947	26850	1040470	43766	110463	0	0	8235	552533	0	0
2024-07-08 20:13:32			0	37783	0	0	0	28158	26850	144943	27246	1040461	43766	110456	0	0	8235	552837	0	0
2024-07-08 20:14:32			0	37765	0	0	0	28153	26850	144751	27012	1040533	43788	110454	0	0	8234	553538	0	0
2024-07-08 20:15:32			0	37784	0	0	0	28142	26860	144883	27012	1040443	43789	110450	0	0	8236	552766	0	0
2024-07-08 20:16:32			0	37754	0	0	0	28132	26840	144767	27284	1040229	43764	110446	0	0	8234	553999	0	0
2024-07-08 20:17:32			0	37761	0	0	0	28098	26820	144863	27088	1040059	43729	110433	0	0	8235	553789	0	0
2024-07-08 20:18:32			0	37744	0	0	0	28070	26790	144907	26915	1039872	43726	110422	0	0	8234	554547	0	0
2024-07-08 20:19:32			0	37760	0	0	0	28062	26780	144911	27112	1039935	43770	110419	0	0	8235	553955	0	0
2024-07-08 20:20:32			0	37769	0	0	0	28057	26780	144943	26960	1039989	43759	110417	0	0	8236	553604	0	0
2024-07-08 20:21:32			0	37750	0	0	0	28057	26770	145019	27017	1039963	43758	110417	0	0	8235	554377	0	0
2024-07-08 20:22:32			0	37756	0	0	0	28038	26750	144999	26795	1039802	43733	110410	0	0	8235	554206	0	0
2024-07-08 20:23:32			0	37753	0	0	0	28033	26750	145083	26925	1039829	43766	110408	0	0	8235	554323	0	0
2024-07-08 20:24:32			0	37736	0	0	0	28023	26750	145111	27007	1039820	43755	110404	0	0	8235	554987	0	0
2024-07-08 20:25:32			0	37724	0	0	0	28044	26740	145087	26909	1039803	43754	110412	0	0	8234	555487	0	0
2024-07-08 20:26:32			0	37713	0	0	0	28051	26730	145179	26663	1039812	43753	110415	0	0	8233	555949	0	0
2024-07-08 20:27:32			0	37700	0	0	0	28046	26740	145187	26864	1039776	43765	110413	0	0	8232	556425	0	0
2024-07-08 20:28:32			0	37693	0	0	0	28054	26720	145275	26785	1039776	43764	110416	0	0	8232	556762	0	0
2024-07-08 20:29:32			0	37690	0	0	0	28054	26730	145291	27036	1039767	43753	110416	0	0	8232	556848	0	0
2024-07-08 20:30:32			0	37687	0	0	0	28028	26730	145351	27020	1039624	43743	110406	0	0	8232	556965	0	0
2024-07-08 20:31:32			0	37664	0	0	0	28020	26710	145311	26802	1039705	43762	110403	0	0	8231	557930	0	0
2024-07-08 20:32:32			0	37663	0	0	0	28015	26710	145379	26793	1039643	43762	110401	0	0	8231	557969	0	0
2024-07-08 20:33:32			0	37658	0	0	0	28018	26710	145443	27144	1039759	43762	110402	0	0	8231	558165	0	0
2024-07-08 20:34:32			0	37648	0	0	0	28049	26710	145483	27360	1039777	43774	110414	0	0	8230	558557	0	0
2024-07-08 20:35:32			0	37621	0	0	0	28077	26720	145535	27124	1039848	43763	110425	0	0	8228	559584	0	0
2024-07-08 20:36:32			0	37627	0	0	0	28106	26720	145679	26769	1039902	43775	110436	0	0	8228	559348	0	0
2024-07-08 20:37:32			0	37610	0	0	0	28106	26740	145655	27097	1039910	43777	110436	0	0	8227	559951	0	0
2024-07-08 20:38:32			0	37595	0	0	0	28109	26730	145711	26741	1039901	43776	110437	0	0	8226	560573	0	0
2024-07-08 20:39:32			0	37582	0	0	0	28090	26730	145811	27062	1039866	43764	110430	0	0	8226	561084	0	0
2024-07-08 20:40:32			0	37575	0	0	0	28070	26730	145831	27057	1039785	43753	110422	0	0	8225	561359	0	0
2024-07-08 20:41:32			0	37575	0	0	0	28057	26730	145823	27163	1039758	43753	110417	0	0	8226	561359	0	0
2024-07-08 20:42:32			0	37554	0	0	0	28044	26720	145747	27287	1039633	43752	110412	0	0	8225	562217	0	0
2024-07-08 20:43:32			0	37538	0	0	0	28028	26700	145811	27194	1039661	43762	110406	0	0	8224	562912	0	0
2024-07-08 20:44:32			0	37538	0	0	0	28028	26690	145939	27064	1039616	43761	110406	0	0	8224	562944	0	0
2024-07-08 20:45:32			0	37527	0	0	0	28036	26690	145927	27007	1039643	43772	110409	0	0	8223	563378	0	0
2024-07-08 20:46:32			0	37504	0	0	0	28023	26690	146051	26998	1039634	43738	110404	0	0	8222	564285	0	0
2024-07-08 20:47:32			0	37487	0	0	0	28018	26690	146091	27168	1039527	43771	110402	0	0	8222	564956	0	0
2024-07-08 20:48:32			0	37484	0	0	0	28015	26690	146139	27197	1039554	43749	110401	0	0	8222	565074	0	0
2024-07-08 20:49:32			0	37478	0	0	0	28005	26680	146051	26835	1039510	43760	110397	0	0	8221	565344	0	0
2024-07-08 20:50:32			0	37483	0	0	0	27999	26660	146163	26939	1039420	43747	110395	0	0	8222	565211	0	0
2024-07-08 20:51:32			0	37471	0	0	0	27992	26660	146235	26776	1039420	43758	110392	0	0	8221	565685	0	0
2024-07-08 20:52:32			0	37450	0	0	0	27986	26640	146239	27154	1039349	43756	110390	0	0	8220	566581	0	0
2024-07-08 20:53:32			0	37442	0	0	0	27974	26630	146295	26935	1039332	43746	110385	0	0	8220	566930	0	0
2024-07-08 20:54:32			0	37442	0	0	0	27963	26630	146315	26987	1039269	43745	110381	0	0	8220	566930	0	0
2024-07-08 20:55:32			0	37403	0	0	0	27966	26620	146343	27046	1039261	43754	110382	0	0	8218	568508	0	0
2024-07-08 20:56:32			0	37398	0	0	0	27958	26610	146451	27235	1039207	43743	110379	0	0	8218	568738	0	0
2024-07-08 20:57:32			0	37414	0	0	0	27961	26620	146343	27095	1039198	43753	110380	0	0	8219	568071	0	0
2024-07-08 20:58:32			0	37410	0	0	0	27955	26600	146431	27312	1039190	43751	110378	0	0	8218	568295	0	0
2024-07-08 20:59:32			0	37389	0	0	0	27950	26600	146491	27237	1039163	43741	110376	0	0	8217	569128	0	0
2024-07-08 21:00:32			0	37405	0	0	0	27948	26600	146479	27118	1039199	43752	110375	0	0	8218	568493	0	0
2024-07-08 21:01:32			0	37390	0	0	0	27945	26600	146551	27109	1039190	43751	110374	0	0	8217	569088	0	0
2024-07-08 21:02:32			0	37399	0	0	0	27958	26600	146651	27175	1039217	43751	110379	0	0	8218	568731	0	0
2024-07-08 21:03:32			0	37347	0	0	0	27968	26600	146583	27050	1039163	43762	110383	0	0	8215	570797	0	0
2024-07-08 21:04:32			0	37366	0	0	0	27968	26590	146619	27234	1039226	43762	110383	0	0	8216	570074	0	0
2024-07-08 21:05:32			0	37349	0	0	0	27979	26600	146735	27152	1039252	43763	110387	0	0	8215	570717	0	0
2024-07-08 21:06:32			0	37351	0	0	0	27984	26590	146755	27372	1039208	43751	110389	0	0	8215	570670	0	0
2024-07-08 21:07:32			0	37347	0	0	0	27989	26590	146727	26641	1039235	43774	110391	0	0	8214	570829	0	0
2024-07-08 21:08:32			0	37345	0	0	0	27984	26590	146827	26531	1039235	43751	110389	0	0	8214	570909	0	0
2024-07-08 21:09:32			0	37320	0	0	0	27981	26590	146779	27164	1039172	43762	110388	0	0	8213	571904	0	0
2024-07-08 21:10:32			0	37309	0	0	0	27979	26580	146802	26828	1039137	43762	110387	0	0	8213	572375	0	0
2024-07-08 21:11:32			0	37318	0	0	0	27981	26590	146810	27008	1039119	43751	110388	0	0	8213	571983	0	0
2024-07-08 21:12:32			0	37321	0	0	0	27974	26590	146831	26743	1039154	43762	110385	0	0	8213	571864	0	0
2024-07-08 21:13:32			0	37311	0	0	0	27963	26590	146922	26783	1039146	43762	110381	0	0	8213	572262	0	0
2024-07-08 21:14:32			0	37302	0	0	0	27971	26580	146978	27093	1039137	43762	110384	0	0	8212	572654	0	0
2024-07-08 21:15:32			0	37315	0	0	0	27953	26570	147035	27144	1039039	43750	110377	0	0	8213	572168	0	0
2024-07-08 21:16:32			0	37299	0	0	0	27953	26580	146914	26897	1039047	43761	110377	0	0	8213	572773	0	0
2024-07-08 21:17:32			0	37300	0	0	0	27955	26570	146870	27215	1039111	43761	110378	0	0	8213	572766	0	0
2024-07-08 21:18:32			0	37299	0	0	0	27955	26570	146958	27069	1039012	43750	110378	0	0	8212	572806	0	0
2024-07-08 21:19:32			0	37296	0	0	0	27948	26570	146974	26927	1039057	43761	110375	0	0	8212	572925	0	0
2024-07-08 21:20:32			0	37289	0	0	0	27950	26570	146974	26984	1039039	43761	110376	0	0	8212	573204	0	0
2024-07-08 21:21:32			0	37284	0	0	0	27961	26560	147014	27043	1039075	43771	110380	0	0	8212	573437	0	0
2024-07-08 21:22:32			0	37272	0	0	0	27955	26560	147114	26831	1039012	43759	110378	0	0	8211	573916	0	0
2024-07-08 21:23:32			0	37288	0	0	0	27955	26570	147066	26948	1039030	43772	110378	0	0	8212	573244	0	0
2024-07-08 21:24:32			0	37259	0	0	0	27945	26560	147098	27069	1039039	43770	110374	0	0	8211	574435	0	0
2024-07-08 21:25:32			0	37269	0	0	0	27953	26560	147198	27069	1039021	43760	110377	0	0	8211	574035	0	0
2024-07-08 21:26:32			0	37280	0	0	0	27948	26550	147130	27026	1038977	43759	110375	0	0	8212	573629	0	0
2024-07-08 21:27:32			0	37264	0	0	0	27953	26560	147166	27045	1039075	43782	110377	0	0	8211	574235	0	0
2024-07-08 21:28:32			0	37270	0	0	0	27958	26550	147102	27305	1038923	43770	110379	0	0	8211	574028	0	0
2024-07-08 21:29:32			0	37262	0	0	0	27955	26550	147258	27098	1038995	43769	110378	0	0	8210	574348	0	0
2024-07-08 21:30:32			0	37273	0	0	0	27963	26550	147342	27222	1039004	43759	110381	0	0	8211	573909	0	0
2024-07-08 21:31:32			0	37261	0	0	0	27961	26560	147178	27300	1038986	43781	110380	0	0	8210	574355	0	0
2024-07-08 21:32:32			0	37241	0	0	0	27966	26550	147182	27079	1039031	43759	110382	0	0	8209	575187	0	0
2024-07-08 21:33:32			0	37249	0	0	0	27966	26560	147166	26909	1039075	43771	110382	0	0	8210	574834	0	0
2024-07-08 21:34:32			0	37247	0	0	0	27971	26560	147282	27300	1039093	43781	110384	0	0	8209	574914	0	0
2024-07-08 21:35:32			0	37262	0	0	0	27971	26560	147230	27045	1039075	43782	110384	0	0	8210	574315	0	0
2024-07-08 21:36:32			0	37254	0	0	0	27984	26570	147262	27055	1039119	43761	110389	0	0	8210	574601	0	0
2024-07-08 21:37:32			0	37250	0	0	0	27984	26560	147278	27142	1039147	43770	110389	0	0	8209	574794	0	0
2024-07-08 21:38:32			0	37249	0	0	0	27984	26570	147234	27234	1039137	43783	110389	0	0	8209	574801	0	0
2024-07-08 21:39:32			0	37247	0	0	0	27989	26560	147226	27414	1039093	43770	110391	0	0	8209	574914	0	0
2024-07-08 21:40:32			0	37261	0	0	0	27989	26570	147250	27182	1039111	43772	110391	0	0	8210	574322	0	0
2024-07-08 21:41:32			0	37241	0	0	0	27992	26570	147190	27248	1039119	43783	110392	0	0	8209	575121	0	0
2024-07-08 21:42:32			0	37256	0	0	0	28002	26580	147242	26958	1039209	43794	110396	0	0	8210	574489	0	0
2024-07-08 21:43:32			0	37234	0	0	0	28007	26570	147246	27194	1039200	43772	110398	0	0	8208	575401	0	0
2024-07-08 21:44:32			0	37269	0	0	0	28010	26590	147274	27173	1039226	43796	110399	0	0	8210	573937	0	0
2024-07-08 21:45:32			0	37243	0	0	0	28018	26590	147094	27069	1039226	43774	110402	0	0	8209	574975	0	0
2024-07-08 21:46:32			0	37243	0	0	0	28028	26590	147194	26982	1039253	43796	110406	0	0	8208	574975	0	0
2024-07-08 21:47:32			0	37253	0	0	0	28023	26590	147074	27241	1039253	43785	110404	0	0	8209	574576	0	0
2024-07-08 21:48:32			0	37253	0	0	0	28020	26600	147146	27384	1039351	43785	110403	0	0	8209	574543	0	0
2024-07-08 21:49:32			0	37255	0	0	0	28025	26600	147126	27428	1039324	43774	110405	0	0	8209	574463	0	0
2024-07-08 21:50:32			0	37263	0	0	0	28031	26600	147162	27319	1039270	43774	110407	0	0	8209	574144	0	0
2024-07-08 21:51:32			0	37255	0	0	0	28028	26610	147126	27086	1039315	43787	110406	0	0	8209	574430	0	0
2024-07-08 21:52:32			0	37273	0	0	0	28028	26610	147058	27003	1039369	43787	110406	0	0	8210	573712	0	0
2024-07-08 21:53:32			0	37249	0	0	0	28031	26610	147038	27112	1039369	43776	110407	0	0	8209	574670	0	0
2024-07-08 21:54:32			0	37262	0	0	0	28031	26600	147162	27196	1039252	43797	110407	0	0	8209	574183	0	0
2024-07-08 21:55:32			0	37265	0	0	0	28025	26610	147150	27083	1039342	43787	110405	0	0	8210	574031	0	0
2024-07-08 21:56:32			0	37243	0	0	0	28023	26610	147106	27111	1039324	43764	110404	0	0	8209	574909	0	0
2024-07-08 21:57:32			0	37272	0	0	0	28028	26610	146994	27095	1039369	43787	110406	0	0	8210	573751	0	0
2024-07-08 21:58:32			0	37249	0	0	0	28025	26610	147034	26958	1039395	43776	110405	0	0	8209	574670	0	0
2024-07-08 21:59:32			0	37261	0	0	0	28031	26610	147126	27469	1039297	43787	110407	0	0	8209	574190	0	0
2024-07-08 22:00:32			0	37276	0	0	0	28031	26610	147082	27317	1039342	43787	110407	0	0	8210	573592	0	0
2024-07-08 22:01:32			0	37261	0	0	0	28025	26610	147090	27364	1039350	43787	110405	0	0	8210	574190	0	0
2024-07-08 22:02:32			0	37277	0	0	0	28033	26610	147094	27060	1039342	43787	110408	0	0	8210	573552	0	0
2024-07-08 22:03:32			0	37274	0	0	0	28046	26610	147078	27343	1039315	43787	110413	0	0	8210	573672	0	0
2024-07-08 22:04:32			0	37278	0	0	0	28041	26610	147074	27130	1039369	43776	110411	0	0	8210	573512	0	0
2024-07-08 22:05:32			0	37307	0	0	0	28033	26610	147010	27097	1039315	43787	110408	0	0	8212	572356	0	0
2024-07-08 22:06:32			0	37291	0	0	0	28044	26610	147046	27059	1039342	43787	110412	0	0	8211	572994	0	0
2024-07-08 22:07:32			0	37295	0	0	0	28038	26620	146978	27277	1039386	43787	110410	0	0	8211	572802	0	0
2024-07-08 22:08:32			0	37286	0	0	0	28046	26630	147102	27041	1039430	43778	110413	0	0	8211	573127	0	0
2024-07-08 22:09:32			0	37292	0	0	0	28049	26630	146994	27048	1039430	43789	110414	0	0	8211	572888	0	0
2024-07-08 22:10:32			0	37302	0	0	0	28046	26630	147018	27102	1039377	43778	110413	0	0	8211	572490	0	0
2024-07-08 22:11:32			0	37287	0	0	0	28049	26630	146990	27178	1039430	43778	110414	0	0	8211	573088	0	0
2024-07-08 22:12:32			0	37284	0	0	0	28046	26630	146918	27227	1039457	43789	110413	0	0	8210	573207	0	0
2024-07-08 22:13:32			0	37306	0	0	0	28062	26630	146878	27353	1039439	43800	110419	0	0	8211	572330	0	0
2024-07-08 22:14:32			0	37332	0	0	0	28057	26630	146891	27114	1039457	43778	110417	0	0	8213	571295	0	0
2024-07-08 22:15:32			0	37304	0	0	0	28051	26640	146958	27249	1039448	43800	110415	0	0	8211	572377	0	0
2024-07-08 22:16:32			0	37349	0	0	0	28064	26630	146859	27048	1039439	43790	110420	0	0	8213	570619	0	0
2024-07-08 22:17:32			0	37332	0	0	0	28059	26640	146859	27149	1039502	43779	110418	0	0	8213	571263	0	0
2024-07-08 22:18:32			0	37345	0	0	0	28064	26640	146855	27325	1039502	43779	110420	0	0	8213	570746	0	0
2024-07-08 22:19:32			0	37334	0	0	0	28064	26640	146863	27232	1039475	43790	110420	0	0	8213	571183	0	0
2024-07-08 22:20:32			0	37366	0	0	0	28062	26630	146855	27173	1039439	43790	110419	0	0	8214	569944	0	0
2024-07-08 22:21:32			0	37365	0	0	0	28064	26640	146767	27008	1039475	43800	110420	0	0	8214	569951	0	0
2024-07-08 22:22:32			0	37374	0	0	0	28070	26640	146731	27223	1039483	43790	110422	0	0	8215	569593	0	0
2024-07-08 22:23:32			0	37374	0	0	0	28062	26650	146711	27209	1039465	43780	110419	0	0	8215	569561	0	0
2024-07-08 22:24:32			0	37378	0	0	0	28059	26640	146695	26871	1039502	43779	110418	0	0	8215	569435	0	0
2024-07-08 22:25:32			0	37378	0	0	0	28059	26650	146699	26918	1039465	43791	110418	0	0	8215	569402	0	0
2024-07-08 22:26:32			0	37380	0	0	0	28054	26630	146711	27412	1039466	43779	110416	0	0	8215	569388	0	0
2024-07-08 22:27:32			0	37391	0	0	0	28049	26640	146631	27208	1039448	43790	110414	0	0	8216	568918	0	0
2024-07-08 22:28:32			0	37405	0	0	0	28049	26640	146567	27062	1039448	43779	110414	0	0	8217	568363	0	0
2024-07-08 22:29:32			0	37414	0	0	0	28049	26640	146543	27097	1039502	43790	110414	0	0	8217	568006	0	0
2024-07-08 22:30:32			0	37415	0	0	0	28054	26640	146579	27237	1039475	43790	110416	0	0	8217	567967	0	0
2024-07-08 22:31:32			0	37381	0	0	0	28051	26640	146651	27062	1039430	43779	110415	0	0	8215	569315	0	0
2024-07-08 22:32:32			0	37405	0	0	0	28057	26630	146627	26830	1039493	43767	110417	0	0	8217	568396	0	0
2024-07-08 22:33:32			0	37403	0	0	0	28051	26640	146583	27124	1039475	43790	110415	0	0	8217	568442	0	0
2024-07-08 22:34:32			0	37411	0	0	0	28051	26630	146599	27220	1039439	43779	110415	0	0	8217	568158	0	0
2024-07-08 22:35:32			0	37423	0	0	0	28051	26630	146551	26876	1039439	43790	110415	0	0	8218	567682	0	0
2024-07-08 22:36:32			0	37431	0	0	0	28051	26640	146567	27045	1039528	43790	110415	0	0	8218	567333	0	0
2024-07-08 22:37:32			0	37436	0	0	0	28057	26640	146423	27180	1039394	43790	110417	0	0	8218	567135	0	0
2024-07-08 22:38:32			0	37454	0	0	0	28049	26630	146355	27144	1039439	43800	110414	0	0	8219	566455	0	0
2024-07-08 22:39:32			0	37461	0	0	0	28051	26630	146283	26934	1039412	43779	110415	0	0	8219	566178	0	0
2024-07-08 22:40:32			0	37470	0	0	0	28046	26640	146343	26859	1039475	43790	110413	0	0	8220	565789	0	0
2024-07-08 22:41:32			0	37475	0	0	0	28049	26630	146355	26925	1039466	43800	110414	0	0	8220	565624	0	0
2024-07-08 22:42:32			0	37499	0	0	0	28049	26630	146359	27265	1039466	43779	110414	0	0	8221	564676	0	0
2024-07-08 22:43:32			0	37494	0	0	0	28046	26630	146295	27222	1039457	43778	110413	0	0	8221	564873	0	0
2024-07-08 22:44:32			0	37506	0	0	0	28041	26630	146223	27293	1039430	43789	110411	0	0	8222	564400	0	0
2024-07-08 22:45:32			0	37507	0	0	0	28038	26630	146199	27076	1039466	43790	110410	0	0	8222	564360	0	0
2024-07-08 22:46:32			0	37516	0	0	0	28049	26620	146139	27185	1039422	43798	110414	0	0	8222	564037	0	0
2024-07-08 22:47:32			0	37517	0	0	0	28041	26630	146123	27152	1039404	43778	110411	0	0	8223	563966	0	0
2024-07-08 22:48:32			0	37553	0	0	0	28046	26610	146131	27185	1039404	43787	110413	0	0	8224	562611	0	0
2024-07-08 22:49:32			0	37558	0	0	0	28038	26620	146035	27069	1039395	43777	110410	0	0	8225	562382	0	0
2024-07-08 22:50:32			0	37572	0	0	0	28038	26620	146031	27164	1039448	43788	110410	0	0	8225	561830	0	0
2024-07-08 22:51:32			0	37572	0	0	0	28051	26620	145979	27270	1039413	43787	110415	0	0	8225	561830	0	0
2024-07-08 22:52:32			0	37578	0	0	0	28033	26620	145947	27298	1039395	43810	110408	0	0	8226	561594	0	0
2024-07-08 22:53:32			0	37593	0	0	0	28033	26630	145847	27268	1039430	43811	110408	0	0	8227	560972	0	0
2024-07-08 22:54:32			0	37616	0	0	0	28041	26620	145803	26991	1039395	43798	110411	0	0	8228	560100	0	0
2024-07-08 22:55:32			0	37602	0	0	0	28033	26610	145803	26955	1039404	43787	110408	0	0	8227	560683	0	0
2024-07-08 22:56:32			0	37622	0	0	0	28044	26620	145783	27237	1039386	43776	110412	0	0	8228	559865	0	0
2024-07-08 22:57:32			0	37635	0	0	0	28028	26610	145843	27428	1039350	43787	110406	0	0	8229	559387	0	0
2024-07-08 22:58:32			0	37624	0	0	0	28038	26620	145791	27149	1039359	43787	110410	0	0	8228	559786	0	0
2024-07-08 22:59:32			0	37638	0	0	0	28036	26620	145791	26871	1039359	43798	110409	0	0	8229	559237	0	0
2024-07-08 23:00:32			0	37632	0	0	0	28036	26620	145815	27265	1039413	43809	110409	0	0	8229	559472	0	0
2024-07-08 23:01:32			0	37647	0	0	0	28025	26620	145731	27083	1039413	43809	110405	0	0	8229	558884	0	0
2024-07-08 23:02:32			0	37634	0	0	0	28041	26620	145699	27386	1039395	43798	110411	0	0	8229	559394	0	0
2024-07-08 23:03:32			0	37666	0	0	0	28041	26620	145643	27272	1039359	43787	110411	0	0	8230	558139	0	0
2024-07-08 23:04:32			0	37662	0	0	0	28044	26620	145691	27417	1039413	43776	110412	0	0	8230	558296	0	0
2024-07-08 23:05:32			0	37651	0	0	0	28036	26620	145659	27261	1039359	43798	110409	0	0	8230	558727	0	0
2024-07-08 23:06:32			0	37662	0	0	0	28036	26610	145591	27272	1039377	43798	110409	0	0	8230	558328	0	0
2024-07-08 23:07:32			0	37678	0	0	0	28041	26620	145679	27192	1039359	43798	110411	0	0	8231	557669	0	0
2024-07-08 23:08:32			0	37659	0	0	0	28046	26620	145595	27301	1039359	43776	110413	0	0	8230	558413	0	0
2024-07-08 23:09:32			0	37657	0	0	0	28046	26620	145571	27312	1039395	43788	110413	0	0	8230	558492	0	0
2024-07-08 23:10:32			0	37651	0	0	0	28059	26620	145591	27324	1039413	43809	110418	0	0	8229	558727	0	0
2024-07-08 23:11:32			0	37659	0	0	0	28051	26630	145651	26963	1039520	43800	110415	0	0	8230	558381	0	0
2024-07-08 23:12:32			0	37647	0	0	0	28057	26620	145563	27031	1039493	43798	110417	0	0	8229	558884	0	0
2024-07-08 23:13:32			0	37664	0	0	0	28057	26630	145671	27251	1039466	43790	110417	0	0	8230	558185	0	0
2024-07-08 23:14:32			0	37662	0	0	0	28062	26640	145579	27156	1039528	43790	110419	0	0	8230	558232	0	0
2024-07-08 23:15:32			0	37656	0	0	0	28062	26640	145543	27291	1039502	43812	110419	0	0	8229	558467	0	0
2024-07-08 23:16:32			0	37674	0	0	0	28057	26640	145679	27102	1039555	43790	110417	0	0	8230	557762	0	0
2024-07-08 23:17:32			0	37667	0	0	0	28064	26630	145635	27237	1039511	43799	110420	0	0	8230	558068	0	0
2024-07-08 23:18:32			0	37659	0	0	0	28067	26630	145651	27019	1039520	43800	110421	0	0	8229	558381	0	0
2024-07-08 23:19:32			0	37655	0	0	0	28064	26640	145543	27013	1039510	43800	110420	0	0	8229	558506	0	0
2024-07-08 23:20:32			0	37684	0	0	0	28062	26640	145683	27216	1039528	43812	110419	0	0	8231	557370	0	0
2024-07-08 23:21:32			0	37677	0	0	0	28064	26630	145559	27220	1039520	43790	110420	0	0	8230	557676	0	0
2024-07-08 23:22:32			0	37688	0	0	0	28059	26640	145579	27076	1039555	43800	110418	0	0	8231	557213	0	0
2024-07-08 23:23:32			0	37686	0	0	0	28051	26640	145527	27079	1039528	43790	110415	0	0	8231	557291	0	0
2024-07-08 23:24:32			0	37699	0	0	0	28046	26640	145499	27055	1039483	43812	110413	0	0	8232	556783	0	0
2024-07-08 23:25:32			0	37694	0	0	0	28049	26640	145443	27258	1039448	43790	110414	0	0	8232	556978	0	0
2024-07-08 23:26:32			0	37725	0	0	0	28046	26620	145435	27390	1039422	43798	110413	0	0	8233	555830	0	0
2024-07-08 23:27:32			0	37729	0	0	0	28044	26620	145339	27001	1039448	43777	110412	0	0	8233	555673	0	0
2024-07-08 23:28:32			0	37724	0	0	0	28046	26630	145407	27223	1039430	43799	110413	0	0	8233	555837	0	0
2024-07-08 23:29:32			0	37740	0	0	0	28038	26620	145407	27268	1039467	43787	110410	0	0	8234	555244	0	0
2024-07-08 23:30:32			0	37757	0	0	0	28031	26620	145271	27057	1039440	43787	110407	0	0	8235	554580	0	0
2024-07-08 23:31:32			0	37755	0	0	0	28038	26620	145255	27052	1039395	43788	110410	0	0	8235	554658	0	0
2024-07-08 23:32:32			0	37761	0	0	0	28041	26630	145227	27256	1039457	43811	110411	0	0	8235	554392	0	0
2024-07-08 23:33:32			0	37753	0	0	0	28038	26620	145331	26974	1039395	43798	110410	0	0	8235	554736	0	0
2024-07-08 23:34:32			0	37747	0	0	0	28041	26620	145307	27414	1039422	43798	110411	0	0	8234	554970	0	0
2024-07-08 23:35:32			0	37758	0	0	0	28049	26630	145355	26974	1039430	43789	110414	0	0	8235	554509	0	0
2024-07-08 23:36:32			0	37743	0	0	0	28044	26630	145479	27505	1039457	43799	110412	0	0	8234	555095	0	0
2024-07-08 23:37:32			0	37726	0	0	0	28041	26630	145347	27310	1039404	43811	110411	0	0	8233	555759	0	0
2024-07-08 23:38:32			0	37721	0	0	0	28046	26620	145347	27154	1039413	43776	110413	0	0	8233	555986	0	0
2024-07-08 23:39:32			0	37735	0	0	0	28044	26620	145383	27005	1039529	43788	110412	0	0	8234	555439	0	0
2024-07-08 23:40:32			0	37737	0	0	0	28046	26630	145375	26982	1039466	43800	110413	0	0	8234	555329	0	0
2024-07-08 23:41:32			0	37737	0	0	0	28049	26630	145483	27197	1039484	43799	110414	0	0	8234	555329	0	0
2024-07-08 23:42:32			0	37728	0	0	0	28054	26630	145407	27069	1039404	43799	110416	0	0	8233	555681	0	0
2024-07-08 23:43:32			0	37706	0	0	0	28054	26640	145435	27109	1039475	43823	110416	0	0	8232	556509	0	0
2024-07-08 23:44:32			0	37731	0	0	0	28049	26630	145391	27013	1039484	43789	110414	0	0	8233	555563	0	0
2024-07-08 23:45:32			0	37708	0	0	0	28049	26630	145451	26941	1039457	43799	110414	0	0	8232	556463	0	0
2024-07-08 23:46:32			0	37730	0	0	0	28051	26620	145443	27190	1039422	43810	110415	0	0	8233	555634	0	0
2024-07-08 23:47:32			0	37717	0	0	0	28044	26630	145499	26844	1039430	43799	110412	0	0	8233	556111	0	0
2024-07-08 23:48:32			0	37717	0	0	0	28051	26630	145399	27005	1039404	43789	110415	0	0	8233	556111	0	0
2024-07-08 23:49:32			0	37728	0	0	0	28036	26620	145403	27203	1039422	43798	110409	0	0	8233	555712	0	0
2024-07-08 23:50:32			0	37724	0	0	0	28033	26620	145403	26939	1039332	43787	110408	0	0	8233	555869	0	0
2024-07-08 23:51:32			0	37730	0	0	0	28031	26620	145403	27126	1039368	43788	110407	0	0	8234	555634	0	0
2024-07-08 23:52:32			0	37735	0	0	0	28028	26610	145371	26928	1039377	43787	110406	0	0	8234	555471	0	0
2024-07-08 23:53:32			0	37744	0	0	0	28028	26610	145363	27118	1039369	43798	110406	0	0	8234	555119	0	0
2024-07-08 23:54:32			0	37713	0	0	0	28023	26610	145387	27112	1039324	43776	110404	0	0	8233	556331	0	0
2024-07-08 23:55:32			0	37731	0	0	0	28031	26620	145467	27053	1039359	43798	110407	0	0	8234	555595	0	0
2024-07-08 23:56:32			0	37721	0	0	0	28036	26610	145427	27003	1039395	43798	110409	0	0	8233	556018	0	0
2024-07-08 23:57:32			0	37714	0	0	0	28028	26620	145451	27523	1039440	43798	110406	0	0	8233	556260	0	0
2024-07-08 23:58:32			0	37703	0	0	0	28033	26610	145543	26918	1039324	43798	110408	0	0	8232	556722	0	0
2024-07-08 23:59:32			0	37708	0	0	0	28028	26610	145443	27267	1039404	43798	110406	0	0	8233	556526	0	0
2024-07-09 00:00:32			0	37694	0	0	0	28033	26610	145555	27216	1039315	43809	110408	0	0	8232	557074	0	0
2024-07-09 00:01:32			0	37708	0	0	0	28031	26620	145531	27272	1039332	43809	110407	0	0	8233	556494	0	0
2024-07-09 00:02:32			0	37691	0	0	0	28018	26610	145483	27303	1039270	43798	110402	0	0	8232	557191	0	0
2024-07-09 00:03:32			0	37703	0	0	0	28015	26610	145555	27072	1039324	43798	110401	0	0	8233	556722	0	0
2024-07-09 00:04:32			0	37690	0	0	0	28012	26600	145579	27241	1039306	43786	110400	0	0	8232	557263	0	0
2024-07-09 00:05:32			0	37689	0	0	0	28018	26610	145599	27296	1039350	43798	110402	0	0	8232	557270	0	0
2024-07-09 00:06:32			0	37684	0	0	0	28010	26610	145555	27229	1039342	43809	110399	0	0	8232	557466	0	0
2024-07-09 00:07:32			0	37669	0	0	0	28007	26600	145627	26981	1039270	43785	110398	0	0	8231	558085	0	0
2024-07-09 00:08:32			0	37681	0	0	0	27999	26590	145623	27123	1039262	43774	110395	0	0	8232	557647	0	0
2024-07-09 00:09:32			0	37656	0	0	0	28007	26600	145711	27230	1039270	43796	110398	0	0	8230	558595	0	0
2024-07-09 00:10:32			0	37685	0	0	0	27999	26590	145607	27291	1039226	43785	110395	0	0	8232	557490	0	0
2024-07-09 00:11:32			0	37684	0	0	0	27989	26590	145643	27253	1039226	43807	110391	0	0	8232	557529	0	0
2024-07-09 00:12:32			0	37667	0	0	0	27979	26590	145739	26873	1039172	43796	110387	0	0	8231	558195	0	0
2024-07-09 00:13:32			0	37662	0	0	0	27979	26590	145747	27124	1039226	43807	110387	0	0	8231	558391	0	0
2024-07-09 00:14:32			0	37643	0	0	0	27976	26590	145771	27216	1039181	43785	110386	0	0	8230	559137	0	0
2024-07-09 00:15:32			0	37635	0	0	0	27979	26570	145811	26991	1039200	43794	110387	0	0	8229	559515	0	0
2024-07-09 00:16:32			0	37660	0	0	0	27981	26580	145795	27105	1039137	43795	110388	0	0	8231	558502	0	0
2024-07-09 00:17:32			0	37638	0	0	0	27968	26580	145763	27066	1039101	43794	110383	0	0	8230	559365	0	0
2024-07-09 00:18:32			0	37642	0	0	0	27963	26560	145847	26646	1039102	43782	110381	0	0	8230	559272	0	0
2024-07-09 00:19:32			0	37628	0	0	0	27955	26560	145879	27230	1039075	43793	110378	0	0	8229	559822	0	0
2024-07-09 00:20:32			0	37609	0	0	0	27955	26560	145863	27189	1039093	43792	110378	0	0	8228	560568	0	0
2024-07-09 00:21:32			0	37629	0	0	0	27966	26560	145883	27119	1039155	43793	110382	0	0	8229	559782	0	0
2024-07-09 00:22:32			0	37626	0	0	0	27963	26560	145907	26856	1039147	43803	110381	0	0	8229	559900	0	0
2024-07-09 00:23:32			0	37626	0	0	0	27966	26560	145887	26904	1039155	43793	110382	0	0	8229	559900	0	0
2024-07-09 00:24:32			0	37605	0	0	0	27981	26560	145951	27222	1039200	43781	110388	0	0	8228	560725	0	0
2024-07-09 00:25:32			0	37597	0	0	0	27979	26570	145971	27280	1039191	43794	110387	0	0	8227	561008	0	0
2024-07-09 00:26:32			0	37574	0	0	0	27976	26570	146103	26882	1039218	43794	110386	0	0	8226	561912	0	0
2024-07-09 00:27:32			0	37562	0	0	0	27981	26570	146139	26856	1039164	43783	110388	0	0	8226	562385	0	0
2024-07-09 00:28:32			0	37548	0	0	0	27989	26580	146127	26922	1039209	43805	110391	0	0	8225	562904	0	0
2024-07-09 00:29:32			0	37540	0	0	0	27986	26570	146127	27100	1039146	43794	110390	0	0	8224	563252	0	0
2024-07-09 00:30:32			0	37546	0	0	0	27984	26560	146211	27154	1039155	43782	110389	0	0	8225	563048	0	0
2024-07-09 00:31:32			0	37521	0	0	0	27986	26560	146139	26996	1039155	43804	110390	0	0	8223	564034	0	0
2024-07-09 00:32:32			0	37527	0	0	0	27984	26570	146239	26913	1039137	43794	110389	0	0	8224	563765	0	0
2024-07-09 00:33:32			0	37527	0	0	0	27984	26560	146315	26968	1039155	43804	110389	0	0	8224	563797	0	0
2024-07-09 00:34:32			0	37518	0	0	0	27986	26570	146347	26823	1039146	43794	110390	0	0	8223	564120	0	0
2024-07-09 00:35:32			0	37505	0	0	0	27986	26560	146323	27137	1039155	43793	110390	0	0	8223	564665	0	0
2024-07-09 00:36:32			0	37503	0	0	0	27984	26580	146271	27135	1039182	43794	110389	0	0	8223	564680	0	0
2024-07-09 00:37:32			0	37469	0	0	0	27979	26560	146331	27031	1039129	43782	110387	0	0	8221	566088	0	0
2024-07-09 00:38:32			0	37466	0	0	0	27976	26560	146295	26944	1039129	43782	110386	0	0	8221	566207	0	0
2024-07-09 00:39:32			0	37479	0	0	0	27976	26570	146475	27095	1039111	43783	110386	0	0	8221	565660	0	0
2024-07-09 00:40:32			0	37460	0	0	0	27976	26570	146475	26897	1039084	43783	110386	0	0	8220	566412	0	0
2024-07-09 00:41:32			0	37470	0	0	0	27984	26570	146443	26955	1039173	43794	110389	0	0	8221	566016	0	0
2024-07-09 00:42:32			0	37459	0	0	0	27981	26570	146483	27116	1039137	43794	110388	0	0	8220	566451	0	0
2024-07-09 00:43:32			0	37458	0	0	0	27974	26560	146539	27067	1039155	43793	110385	0	0	8220	566523	0	0
2024-07-09 00:44:32			0	37446	0	0	0	27971	26560	146527	27296	1039129	43793	110384	0	0	8220	566998	0	0
2024-07-09 00:45:32			0	37430	0	0	0	27974	26560	146635	27272	1039102	43782	110385	0	0	8219	567632	0	0
2024-07-09 00:46:32			0	37413	0	0	0	27968	26560	146571	27460	1039102	43793	110383	0	0	8218	568306	0	0
2024-07-09 00:47:32			0	37410	0	0	0	27963	26560	146715	26967	1039102	43793	110381	0	0	8218	568425	0	0
2024-07-09 00:48:32			0	37394	0	0	0	27961	26560	146783	27005	1039129	43804	110380	0	0	8217	569060	0	0
2024-07-09 00:49:32			0	37394	0	0	0	27968	26570	146727	27145	1039111	43805	110383	0	0	8217	569027	0	0
2024-07-09 00:50:32			0	37369	0	0	0	27971	26560	146811	27281	1039102	43782	110384	0	0	8216	570053	0	0
2024-07-09 00:51:32			0	37372	0	0	0	27968	26560	146791	27130	1039093	43792	110383	0	0	8216	569933	0	0
2024-07-09 00:52:32			0	37380	0	0	0	27961	26560	146895	27107	1039093	43770	110380	0	0	8217	569616	0	0
2024-07-09 00:53:32			0	37361	0	0	0	27961	26560	146903	27036	1039021	43793	110380	0	0	8216	570371	0	0
2024-07-09 00:54:32			0	37356	0	0	0	27953	26540	146895	26882	1039013	43781	110377	0	0	8215	570635	0	0
2024-07-09 00:55:32			0	37335	0	0	0	27942	26550	146887	26972	1038914	43781	110373	0	0	8214	571438	0	0
2024-07-09 00:56:32			0	37332	0	0	0	27942	26540	146911	26842	1038923	43791	110373	0	0	8214	571590	0	0
2024-07-09 00:57:32			0	37343	0	0	0	27935	26540	146935	27244	1038897	43780	110370	0	0	8215	571152	0	0
2024-07-09 00:58:32			0	37332	0	0	0	27927	26540	146963	27022	1038897	43801	110367	0	0	8215	571590	0	0
2024-07-09 00:59:32			0	37315	0	0	0	27927	26530	146990	26939	1038879	43800	110367	0	0	8214	572299	0	0
2024-07-09 01:00:32			0	37322	0	0	0	27922	26520	147031	27270	1038915	43778	110365	0	0	8214	572053	0	0
2024-07-09 01:01:32			0	37312	0	0	0	27924	26520	147023	27161	1038862	43789	110366	0	0	8213	572452	0	0
2024-07-09 01:02:32			0	37317	0	0	0	27919	26520	147038	27053	1038862	43789	110364	0	0	8214	572252	0	0
2024-07-09 01:03:32			0	37308	0	0	0	27914	26520	147086	27159	1038862	43789	110362	0	0	8213	572611	0	0
2024-07-09 01:04:32			0	37301	0	0	0	27906	26500	147062	26868	1038782	43777	110359	0	0	8213	572956	0	0
2024-07-09 01:05:32			0	37305	0	0	0	27896	26500	147138	26972	1038755	43788	110355	0	0	8213	572796	0	0
2024-07-09 01:06:32			0	37298	0	0	0	27898	26500	147194	27090	1038782	43788	110356	0	0	8213	573075	0	0
2024-07-09 01:07:32			0	37276	0	0	0	27911	26500	147202	27034	1038773	43787	110361	0	0	8212	573953	0	0
2024-07-09 01:08:32			0	37276	0	0	0	27898	26500	147234	27052	1038755	43788	110356	0	0	8212	573953	0	0
2024-07-09 01:09:32			0	37271	0	0	0	27906	26490	147198	27206	1038818	43797	110359	0	0	8212	574185	0	0
2024-07-09 01:10:32			0	37264	0	0	0	27903	26510	147234	27137	1038764	43788	110358	0	0	8211	574399	0	0
2024-07-09 01:11:32			0	37247	0	0	0	27906	26490	147266	27183	1038684	43775	110359	0	0	8210	575144	0	0
2024-07-09 01:12:32			0	37276	0	0	0	27903	26490	147298	27164	1038684	43786	110358	0	0	8212	573986	0	0
2024-07-09 01:13:32			0	37252	0	0	0	27903	26490	147242	26913	1038782	43786	110358	0	0	8211	574944	0	0
2024-07-09 01:14:32			0	37254	0	0	0	27896	26490	147338	27145	1038764	43797	110355	0	0	8211	574864	0	0
2024-07-09 01:15:32			0	37251	0	0	0	27901	26500	147330	27119	1038746	43776	110357	0	0	8211	574952	0	0
2024-07-09 01:16:32			0	37253	0	0	0	27903	26490	147398	27133	1038791	43786	110358	0	0	8211	574904	0	0
2024-07-09 01:17:32			0	37243	0	0	0	27901	26490	147386	26852	1038782	43797	110357	0	0	8210	575304	0	0
2024-07-09 01:18:32			0	37240	0	0	0	27898	26490	147458	27194	1038737	43786	110356	0	0	8210	575424	0	0
2024-07-09 01:19:32			0	37225	0	0	0	27898	26490	147406	27102	1038755	43797	110356	0	0	8209	576024	0	0
2024-07-09 01:20:32			0	37238	0	0	0	27901	26490	147386	27182	1038729	43786	110357	0	0	8210	575504	0	0
2024-07-09 01:21:32			0	37228	0	0	0	27893	26490	147454	27062	1038755	43786	110354	0	0	8210	575904	0	0
2024-07-09 01:22:32			0	37214	0	0	0	27890	26480	147354	27031	1038738	43785	110353	0	0	8209	576497	0	0
2024-07-09 01:23:32			0	37201	0	0	0	27890	26490	147502	27128	1038755	43797	110353	0	0	8208	576985	0	0
2024-07-09 01:24:32			0	37214	0	0	0	27888	26480	147430	27086	1038639	43785	110352	0	0	8209	576497	0	0
2024-07-09 01:25:32			0	37212	0	0	0	27880	26480	147482	26854	1038747	43796	110349	0	0	8209	576577	0	0
2024-07-09 01:26:32			0	37204	0	0	0	27883	26480	147502	27190	1038630	43774	110350	0	0	8208	576898	0	0
2024-07-09 01:27:32			0	37210	0	0	0	27877	26480	147418	27260	1038657	43785	110348	0	0	8209	576658	0	0
2024-07-09 01:28:32			0	37203	0	0	0	27877	26480	147470	27071	1038657	43785	110348	0	0	8208	576938	0	0
2024-07-09 01:29:32			0	37202	0	0	0	27864	26480	147450	27364	1038630	43785	110343	0	0	8209	576978	0	0
2024-07-09 01:30:32			0	37205	0	0	0	27862	26470	147462	27293	1038595	43795	110342	0	0	8209	576891	0	0
2024-07-09 01:31:32			0	37223	0	0	0	27864	26470	147562	26981	1038559	43784	110343	0	0	8210	576170	0	0
2024-07-09 01:32:32			0	37225	0	0	0	27857	26470	147478	27294	1038595	43784	110340	0	0	8210	576090	0	0
2024-07-09 01:33:32			0	37211	0	0	0	27854	26460	147494	27161	1038542	43794	110339	0	0	8209	576684	0	0
2024-07-09 01:34:32			0	37200	0	0	0	27851	26450	147510	27410	1038506	43771	110338	0	0	8209	577157	0	0
2024-07-09 01:35:32			0	37209	0	0	0	27851	26460	147566	27303	1038542	43783	110338	0	0	8209	576764	0	0
2024-07-09 01:36:32			0	37207	0	0	0	27849	26450	147514	27353	1038453	43782	110337	0	0	8209	576877	0	0
2024-07-09 01:37:32			0	37188	0	0	0	27841	26450	147494	27390	1038524	43782	110334	0	0	8208	577638	0	0
2024-07-09 01:38:32			0	37220	0	0	0	27841	26450	147446	27170	1038453	43782	110334	0	0	8210	576356	0	0
2024-07-09 01:39:32			0	37212	0	0	0	27844	26440	147446	27317	1038426	43759	110335	0	0	8209	576709	0	0
2024-07-09 01:40:32			0	37221	0	0	0	27833	26440	147430	27185	1038489	43770	110331	0	0	8210	576349	0	0
2024-07-09 01:41:32			0	37229	0	0	0	27841	26450	147462	27064	1038417	43771	110334	0	0	8210	575996	0	0
2024-07-09 01:42:32			0	37220	0	0	0	27831	26440	147486	27166	1038435	43803	110330	0	0	8210	576389	0	0
2024-07-09 01:43:32			0	37228	0	0	0	27833	26440	147526	26967	1038435	43781	110331	0	0	8210	576069	0	0
2024-07-09 01:44:32			0	37230	0	0	0	27825	26430	147554	27291	1038382	43780	110328	0	0	8211	576022	0	0
2024-07-09 01:45:32			0	37222	0	0	0	27828	26440	147526	27152	1038480	43792	110329	0	0	8210	576309	0	0
2024-07-09 01:46:32			0	37234	0	0	0	27828	26430	147486	27092	1038436	43780	110329	0	0	8211	575862	0	0
2024-07-09 01:47:32			0	37232	0	0	0	27825	26430	147454	27443	1038418	43781	110328	0	0	8211	575942	0	0
2024-07-09 01:48:32			0	37248	0	0	0	27823	26430	147442	27294	1038355	43780	110327	0	0	8211	575302	0	0
2024-07-09 01:49:32			0	37241	0	0	0	27820	26420	147446	26864	1038346	43768	110326	0	0	8211	575614	0	0
2024-07-09 01:50:32			0	37239	0	0	0	27818	26410	147398	27556	1038355	43790	110325	0	0	8211	575727	0	0
2024-07-09 01:51:32			0	37249	0	0	0	27818	26410	147438	27166	1038293	43778	110325	0	0	8212	575327	0	0
2024-07-09 01:52:32			0	37250	0	0	0	27802	26420	147446	27046	1038310	43790	110319	0	0	8212	575255	0	0
2024-07-09 01:53:32			0	37268	0	0	0	27812	26410	147454	26963	1038302	43779	110323	0	0	8213	574568	0	0
2024-07-09 01:54:32			0	37250	0	0	0	27818	26410	147458	27097	1038320	43778	110325	0	0	8212	575287	0	0
2024-07-09 01:55:32			0	37264	0	0	0	27805	26400	147454	27176	1038249	43788	110320	0	0	8212	574761	0	0
2024-07-09 01:56:32			0	37255	0	0	0	27810	26400	147322	26956	1038222	43765	110322	0	0	8212	575120	0	0
2024-07-09 01:57:32			0	37248	0	0	0	27807	26400	147430	27267	1038275	43777	110321	0	0	8212	575400	0	0
2024-07-09 01:58:32			0	37267	0	0	0	27799	26400	147374	27145	1038230	43789	110318	0	0	8213	574641	0	0
2024-07-09 01:59:32			0	37258	0	0	0	27807	26400	147402	27043	1038302	43777	110321	0	0	8212	575000	0	0
2024-07-09 02:00:32			0	37254	0	0	0	27802	26400	147418	27341	1038275	43799	110319	0	0	8212	575160	0	0
2024-07-09 02:01:32			0	37247	0	0	0	27812	26390	147406	26821	1038285	43776	110323	0	0	8211	575473	0	0
2024-07-09 02:02:32			0	37263	0	0	0	27815	26400	147450	27045	1038311	43778	110324	0	0	8212	574801	0	0
2024-07-09 02:03:32			0	37257	0	0	0	27815	26400	147378	27140	1038329	43777	110324	0	0	8212	575040	0	0
2024-07-09 02:04:32			0	37256	0	0	0	27812	26410	147506	27338	1038266	43778	110323	0	0	8212	575047	0	0
2024-07-09 02:05:32			0	37235	0	0	0	27820	26400	147422	27327	1038329	43788	110326	0	0	8211	575920	0	0
2024-07-09 02:06:32			0	37229	0	0	0	27815	26410	147406	27046	1038347	43778	110324	0	0	8211	576128	0	0
2024-07-09 02:07:32			0	37221	0	0	0	27833	26410	147498	27322	1038373	43789	110331	0	0	8210	576448	0	0
2024-07-09 02:08:32			0	37245	0	0	0	27828	26420	147574	27431	1038337	43790	110329	0	0	8211	575455	0	0
2024-07-09 02:09:32			0	37218	0	0	0	27831	26410	147598	27268	1038427	43778	110330	0	0	8210	576568	0	0
2024-07-09 02:10:32			0	37222	0	0	0	27841	26410	147522	27078	1038373	43799	110334	0	0	8210	576408	0	0
2024-07-09 02:11:32			0	37223	0	0	0	27831	26420	147510	26915	1038418	43790	110330	0	0	8210	576335	0	0
2024-07-09 02:12:32			0	37216	0	0	0	27841	26420	147530	27346	1038418	43790	110334	0	0	8209	576615	0	0
2024-07-09 02:13:32			0	37227	0	0	0	27846	26420	147502	27215	1038471	43779	110336	0	0	8210	576175	0	0
2024-07-09 02:14:32			0	37210	0	0	0	27849	26430	147530	27225	1038489	43791	110337	0	0	8209	576822	0	0
2024-07-09 02:15:32			0	37221	0	0	0	27851	26420	147422	27001	1038400	43801	110338	0	0	8210	576415	0	0
2024-07-09 02:16:32			0	37239	0	0	0	27849	26430	147542	27253	1038516	43801	110337	0	0	8211	575662	0	0
2024-07-09 02:17:32			0	37222	0	0	0	27846	26430	147518	26870	1038471	43781	110336	0	0	8210	576342	0	0
2024-07-09 02:18:32			0	37207	0	0	0	27859	26450	147538	27298	1038497	43782	110341	0	0	8209	576877	0	0
2024-07-09 02:19:32			0	37223	0	0	0	27854	26430	147426	27124	1038525	43781	110339	0	0	8210	576302	0	0
2024-07-09 02:20:32			0	37218	0	0	0	27851	26430	147530	27244	1038462	43791	110338	0	0	8209	576502	0	0
2024-07-09 02:21:32			0	37224	0	0	0	27857	26440	147498	26961	1038516	43803	110340	0	0	8210	576229	0	0
2024-07-09 02:22:32			0	37231	0	0	0	27857	26440	147562	27076	1038569	43781	110340	0	0	8210	575949	0	0
2024-07-09 02:23:32			0	37253	0	0	0	27854	26440	147378	27022	1038516	43792	110339	0	0	8211	575069	0	0
2024-07-09 02:24:32			0	37253	0	0	0	27854	26440	147406	27109	1038534	43803	110339	0	0	8211	575069	0	0
2024-07-09 02:25:32			0	37271	0	0	0	27846	26450	147370	27209	1038497	43804	110336	0	0	8212	574317	0	0
2024-07-09 02:26:32			0	37276	0	0	0	27859	26440	147310	27206	1038569	43792	110341	0	0	8212	574150	0	0
2024-07-09 02:27:32			0	37268	0	0	0	27857	26450	147334	27111	1038560	43793	110340	0	0	8212	574436	0	0
2024-07-09 02:28:32			0	37286	0	0	0	27857	26440	147258	27137	1038516	43792	110340	0	0	8213	573751	0	0
2024-07-09 02:29:32			0	37281	0	0	0	27857	26450	147234	27055	1038578	43782	110340	0	0	8213	573918	0	0
2024-07-09 02:30:32			0	37284	0	0	0	27857	26440	147230	27135	1038516	43792	110340	0	0	8213	573831	0	0
2024-07-09 02:31:32			0	37302	0	0	0	27857	26440	147146	27208	1038462	43781	110340	0	0	8214	573112	0	0
2024-07-09 02:32:32			0	37294	0	0	0	27849	26440	147186	26958	1038489	43781	110337	0	0	8213	573431	0	0
2024-07-09 02:33:32			0	37298	0	0	0	27851	26440	147202	27154	1038453	43770	110338	0	0	8214	573272	0	0
2024-07-09 02:34:32			0	37288	0	0	0	27846	26430	147198	27020	1038444	43769	110336	0	0	8213	573704	0	0
2024-07-09 02:35:32			0	37289	0	0	0	27841	26440	147202	27268	1038426	43792	110334	0	0	8213	573631	0	0
2024-07-09 02:36:32			0	37296	0	0	0	27854	26430	147166	27241	1038444	43791	110339	0	0	8213	573384	0	0
2024-07-09 02:37:32			0	37296	0	0	0	27849	26430	147170	27403	1038471	43791	110337	0	0	8214	573384	0	0
2024-07-09 02:38:32			0	37313	0	0	0	27851	26450	147186	27031	1038524	43782	110338	0	0	8214	572641	0	0
2024-07-09 02:39:32			0	37300	0	0	0	27844	26430	147198	26767	1038471	43791	110335	0	0	8214	573225	0	0
2024-07-09 02:40:32			0	37296	0	0	0	27836	26430	147158	26953	1038498	43791	110332	0	0	8214	573384	0	0
2024-07-09 02:41:32			0	37297	0	0	0	27838	26430	147238	26904	1038498	43791	110333	0	0	8214	573344	0	0
2024-07-09 02:42:32			0	37293	0	0	0	27838	26430	147198	27293	1038409	43801	110333	0	0	8214	573504	0	0
2024-07-09 02:43:32			0	37282	0	0	0	27831	26430	147242	26911	1038409	43780	110330	0	0	8213	573943	0	0
2024-07-09 02:44:32			0	37297	0	0	0	27807	26420	147154	26996	1038391	43790	110321	0	0	8214	573377	0	0
2024-07-09 02:45:32			0	37283	0	0	0	27807	26420	147258	26942	1038400	43791	110321	0	0	8214	573936	0	0
2024-07-09 02:46:32			0	37286	0	0	0	27789	26420	147202	27003	1038364	43767	110314	0	0	8214	573816	0	0
2024-07-09 02:47:32			0	37277	0	0	0	27786	26420	147246	26641	1038337	43779	110313	0	0	8214	574176	0	0
2024-07-09 02:48:32			0	37268	0	0	0	27771	26410	147318	26937	1038355	43767	110307	0	0	8213	574568	0	0
2024-07-09 02:49:32			0	37262	0	0	0	27773	26400	147386	26852	1038284	43789	110308	0	0	8213	574840	0	0
2024-07-09 02:50:32			0	37278	0	0	0	27758	26400	147362	27013	1038311	43778	110302	0	0	8214	574201	0	0
2024-07-09 02:51:32			0	37273	0	0	0	27755	26400	147358	26987	1038222	43777	110301	0	0	8214	574401	0	0
2024-07-09 02:52:32			0	37262	0	0	0	27755	26400	147366	27118	1038249	43777	110301	0	0	8213	574840	0	0
2024-07-09 02:53:32			0	37249	0	0	0	27748	26390	147310	27183	1038213	43777	110298	0	0	8213	575393	0	0
2024-07-09 02:54:32			0	37256	0	0	0	27732	26390	147442	27171	1038240	43788	110292	0	0	8213	575113	0	0
2024-07-09 02:55:32			0	37238	0	0	0	27724	26380	147466	27062	1038133	43775	110289	0	0	8212	575866	0	0
2024-07-09 02:56:32			0	37240	0	0	0	27703	26370	147418	27248	1038124	43763	110281	0	0	8213	575819	0	0
2024-07-09 02:57:32			0	37222	0	0	0	27690	26350	147610	26989	1037982	43739	110276	0	0	8212	576605	0	0
2024-07-09 02:58:32			0	37194	0	0	0	27677	26350	147586	27074	1037928	43772	110271	0	0	8211	577728	0	0
2024-07-09 02:59:32			0	37197	0	0	0	27672	26350	147694	26722	1037928	43750	110269	0	0	8211	577607	0	0
2024-07-09 03:00:32			0	37199	0	0	0	27651	26320	147686	27137	1037750	43759	110261	0	0	8211	577626	0	0
2024-07-09 03:01:32			0	37197	0	0	0	27641	26310	147730	27597	1037706	43747	110257	0	0	8211	577739	0	0
2024-07-09 03:02:32			0	37169	0	0	0	27612	26300	147674	27135	1037626	43746	110246	0	0	8210	578896	0	0
2024-07-09 03:03:32			0	37161	0	0	0	27597	26280	147810	27199	1037572	43744	110240	0	0	8210	579284	0	0
2024-07-09 03:04:32			0	37158	0	0	0	27576	26280	147830	27260	1037456	43744	110232	0	0	8210	579404	0	0
2024-07-09 03:05:32			0	37155	0	0	0	27568	26260	147934	26989	1037421	43742	110229	0	0	8210	579591	0	0
2024-07-09 03:06:32			0	37145	0	0	0	27550	26250	147886	26880	1037377	43741	110222	0	0	8210	580026	0	0
2024-07-09 03:07:32			0	37128	0	0	0	27529	26230	147958	27178	1037262	43739	110214	0	0	8209	580777	0	0
2024-07-09 03:08:32			0	37114	0	0	0	27514	26220	148142	27197	1037244	43737	110208	0	0	8209	581374	0	0
2024-07-09 03:09:32			0	37099	0	0	0	27503	26200	148150	27067	1037129	43724	110204	0	0	8208	582044	0	0
2024-07-09 03:10:32			0	37078	0	0	0	27490	26190	148270	26974	1037093	43735	110199	0	0	8207	582925	0	0
2024-07-09 03:11:32			0	37072	0	0	0	27483	26170	148202	27206	1037004	43732	110196	0	0	8207	583234	0	0
2024-07-09 03:12:32			0	37065	0	0	0	27459	26170	148310	27033	1036915	43732	110187	0	0	8207	583516	0	0
2024-07-09 03:13:32			0	37035	0	0	0	27451	26160	148362	27072	1036844	43743	110184	0	0	8206	584762	0	0
2024-07-09 03:14:32			0	37015	0	0	0	27438	26150	148458	26949	1036880	43742	110179	0	0	8205	585605	0	0
2024-07-09 03:15:32			0	37013	0	0	0	27431	26130	148618	27121	1036764	43729	110176	0	0	8205	585752	0	0
2024-07-09 03:16:32			0	36994	0	0	0	27425	26130	148610	26830	1036818	43729	110174	0	0	8204	586522	0	0
2024-07-09 03:17:32			0	36956	0	0	0	27420	26120	148706	27102	1036693	43728	110172	0	0	8202	588097	0	0
2024-07-09 03:18:32			0	36962	0	0	0	27420	26110	148806	27218	1036685	43738	110172	0	0	8202	587887	0	0
2024-07-09 03:19:32			0	36941	0	0	0	27407	26100	148854	27124	1036685	43726	110167	0	0	8201	588773	0	0
2024-07-09 03:20:32			0	36933	0	0	0	27402	26100	148894	27322	1036658	43726	110165	0	0	8201	589099	0	0
2024-07-09 03:21:32			0	36918	0	0	0	27397	26090	148994	27076	1036623	43725	110163	0	0	8200	589742	0	0
2024-07-09 03:22:32			0	36888	0	0	0	27384	26080	149066	27216	1036659	43724	110158	0	0	8199	590997	0	0
2024-07-09 03:23:32			0	36878	0	0	0	27384	26070	149138	27038	1036588	43746	110158	0	0	8198	591438	0	0
2024-07-09 03:24:32			0	36849	0	0	0	27384	26070	149174	27161	1036534	43734	110158	0	0	8197	592621	0	0
2024-07-09 03:25:32			0	36812	0	0	0	27381	26070	149218	27237	1036552	43733	110157	0	0	8195	594133	0	0
2024-07-09 03:26:32			0	36796	0	0	0	27381	26070	149410	27046	1036606	43733	110157	0	0	8194	594787	0	0
2024-07-09 03:27:32			0	36780	0	0	0	27376	26060	149530	27213	1036597	43733	110155	0	0	8193	595476	0	0
2024-07-09 03:28:32			0	36757	0	0	0	27373	26050	149490	27282	1036526	43732	110154	0	0	8192	596452	0	0
2024-07-09 03:29:32			0	36733	0	0	0	27373	26050	149686	27284	1036526	43710	110154	0	0	8191	597437	0	0
2024-07-09 03:30:32			0	36728	0	0	0	27392	26050	149650	27277	1036633	43721	110161	0	0	8190	597642	0	0
2024-07-09 03:31:32			0	36693	0	0	0	27381	26050	149854	27019	1036588	43733	110157	0	0	8188	599080	0	0
2024-07-09 03:32:32			0	36651	0	0	0	27371	26040	150030	26595	1036589	43730	110153	0	0	8186	600843	0	0
2024-07-09 03:33:32			0	36619	0	0	0	27379	26050	150102	27003	1036607	43744	110156	0	0	8185	602128	0	0
2024-07-09 03:34:32			0	36582	0	0	0	27381	26050	150213	26963	1036642	43733	110157	0	0	8183	603656	0	0
2024-07-09 03:35:32			0	36544	0	0	0	27392	26070	150337	26906	1036660	43722	110161	0	0	8181	605159	0	0
2024-07-09 03:36:32			0	36512	0	0	0	27399	26050	150541	27043	1036723	43745	110164	0	0	8179	606554	0	0
2024-07-09 03:37:32			0	36478	0	0	0	27410	26070	150701	26800	1036802	43767	110168	0	0	8177	607896	0	0
2024-07-09 03:38:32			0	36420	0	0	0	27441	26070	150821	27123	1036829	43746	110180	0	0	8173	610308	0	0
2024-07-09 03:39:32			0	36370	0	0	0	27464	26090	150985	27052	1036945	43747	110189	0	0	8170	612323	0	0
2024-07-09 03:40:32			0	36341	0	0	0	27493	26100	151129	26989	1037016	43759	110200	0	0	8168	613499	0	0
2024-07-09 03:41:32			0	36292	0	0	0	27514	26120	151445	26968	1037069	43761	110208	0	0	8166	615479	0	0
2024-07-09 03:42:32			0	36272	0	0	0	27542	26120	151509	26835	1037078	43750	110219	0	0	8164	616317	0	0
2024-07-09 03:43:32			0	36227	0	0	0	27550	26130	151689	26920	1037095	43773	110222	0	0	8162	618171	0	0
2024-07-09 03:44:32			0	36207	0	0	0	27579	26150	151789	26916	1037256	43752	110233	0	0	8160	618941	0	0
2024-07-09 03:45:32			0	36204	0	0	0	27599	26150	151857	26715	1037282	43752	110241	0	0	8160	619067	0	0
2024-07-09 03:46:32			0	36187	0	0	0	27620	26170	151813	27071	1037290	43777	110249	0	0	8158	619712	0	0
2024-07-09 03:47:32			0	36171	0	0	0	27620	26170	151981	26932	1037326	43765	110249	0	0	8158	620385	0	0
2024-07-09 03:48:32			0	36152	0	0	0	27631	26180	151973	26837	1037371	43767	110253	0	0	8156	621150	0	0
2024-07-09 03:49:32			0	36145	0	0	0	27623	26170	152025	26719	1037353	43754	110250	0	0	8156	621481	0	0
2024-07-09 03:50:32			0	36132	0	0	0	27620	26180	152069	26715	1037290	43756	110249	0	0	8156	621994	0	0
2024-07-09 03:51:32			0	36126	0	0	0	27618	26170	152077	26937	1037273	43765	110248	0	0	8155	622283	0	0
2024-07-09 03:52:32			0	36134	0	0	0	27615	26180	152089	27161	1037317	43756	110247	0	0	8156	621909	0	0
2024-07-09 03:53:32			0	36135	0	0	0	27607	26180	152045	26717	1037290	43756	110244	0	0	8156	621867	0	0
2024-07-09 03:54:32			0	36169	0	0	0	27589	26180	151885	27128	1037263	43756	110237	0	0	8158	620434	0	0
2024-07-09 03:55:32			0	36195	0	0	0	27581	26170	151685	27357	1037192	43765	110234	0	0	8160	619375	0	0
2024-07-09 03:56:32			0	36234	0	0	0	27584	26170	151553	27303	1037237	43765	110235	0	0	8162	617736	0	0
2024-07-09 03:57:32			0	36281	0	0	0	27576	26170	151453	27211	1037237	43744	110232	0	0	8164	615765	0	0
2024-07-09 03:58:32			0	36294	0	0	0	27571	26170	151473	27102	1037210	43777	110230	0	0	8165	615220	0	0
2024-07-09 03:59:32			0	36268	0	0	0	27563	26170	151481	26892	1037219	43765	110227	0	0	8164	616309	0	0
2024-07-09 04:00:32			0	36271	0	0	0	27568	26160	151537	27092	1037228	43765	110229	0	0	8164	616219	0	0
2024-07-09 04:01:32			0	36250	0	0	0	27568	26170	151605	26863	1037165	43744	110229	0	0	8163	617064	0	0
2024-07-09 04:02:32			0	36223	0	0	0	27566	26170	151673	26677	1037156	43765	110228	0	0	8161	618198	0	0
2024-07-09 04:03:32			0	36204	0	0	0	27563	26170	151741	27090	1037183	43765	110227	0	0	8160	618996	0	0
2024-07-09 04:04:32			0	36200	0	0	0	27558	26170	151873	27126	1037183	43754	110225	0	0	8160	619165	0	0
2024-07-09 04:05:32			0	36137	0	0	0	27561	26160	152033	26831	1037201	43754	110226	0	0	8157	621854	0	0
2024-07-09 04:06:32			0	36142	0	0	0	27563	26160	152113	27150	1037201	43754	110227	0	0	8157	621643	0	0
2024-07-09 04:07:32			0	36124	0	0	0	27566	26160	152261	27000	1037255	43765	110228	0	0	8156	622402	0	0
2024-07-09 04:08:32			0	36119	0	0	0	27555	26150	152261	27157	1037130	43764	110224	0	0	8156	622649	0	0
2024-07-09 04:09:32			0	36087	0	0	0	27561	26160	152293	27008	1037139	43743	110226	0	0	8154	623966	0	0
2024-07-09 04:10:32			0	36093	0	0	0	27558	26150	152229	26968	1037121	43764	110225	0	0	8154	623748	0	0
2024-07-09 04:11:32			0	36104	0	0	0	27558	26150	152245	27197	1037130	43764	110225	0	0	8155	623283	0	0
2024-07-09 04:12:32			0	36107	0	0	0	27558	26150	152213	27144	1037184	43764	110225	0	0	8155	623156	0	0
2024-07-09 04:13:32			0	36132	0	0	0	27553	26160	152201	26635	1037148	43765	110223	0	0	8157	622065	0	0
2024-07-09 04:14:32			0	36138	0	0	0	27550	26160	152201	27078	1037112	43743	110222	0	0	8157	621812	0	0
2024-07-09 04:15:32			0	36144	0	0	0	27550	26160	152129	26937	1037139	43765	110222	0	0	8157	621559	0	0
2024-07-09 04:16:32			0	36161	0	0	0	27555	26150	152077	26937	1037068	43764	110224	0	0	8158	620877	0	0
2024-07-09 04:17:32			0	36156	0	0	0	27558	26150	152045	27142	1037095	43764	110225	0	0	8158	621088	0	0
2024-07-09 04:18:32			0	36185	0	0	0	27550	26150	151945	26968	1037076	43752	110222	0	0	8159	619867	0	0
2024-07-09 04:19:32			0	36169	0	0	0	27548	26140	151821	27012	1037050	43763	110221	0	0	8159	620576	0	0
2024-07-09 04:20:32			0	36191	0	0	0	27545	26140	151849	27137	1037086	43752	110220	0	0	8160	619649	0	0
2024-07-09 04:21:32			0	36197	0	0	0	27548	26150	151801	26889	1037121	43775	110221	0	0	8160	619362	0	0
2024-07-09 04:22:32			0	36212	0	0	0	27537	26140	151693	27170	1037050	43751	110217	0	0	8161	618766	0	0
2024-07-09 04:23:32			0	36220	0	0	0	27542	26140	151809	27085	1037086	43764	110219	0	0	8161	618430	0	0
2024-07-09 04:24:32			0	36205	0	0	0	27545	26140	151721	27176	1036970	43763	110220	0	0	8161	619060	0	0
2024-07-09 04:25:32			0	36220	0	0	0	27537	26140	151733	27204	1037059	43775	110217	0	0	8161	618430	0	0
2024-07-09 04:26:32			0	36206	0	0	0	27540	26140	151797	27230	1037050	43751	110218	0	0	8161	619018	0	0
2024-07-09 04:27:32			0	36198	0	0	0	27535	26140	151829	27291	1037032	43775	110216	0	0	8160	619355	0	0
2024-07-09 04:28:32			0	36217	0	0	0	27540	26130	151769	27013	1037041	43750	110218	0	0	8161	618591	0	0
2024-07-09 04:29:32			0	36207	0	0	0	27529	26130	151821	27229	1036988	43750	110214	0	0	8161	619012	0	0
2024-07-09 04:30:32			0	36225	0	0	0	27540	26130	151785	27128	1036979	43773	110218	0	0	8162	618255	0	0
2024-07-09 04:31:32			0	36211	0	0	0	27519	26130	151745	27020	1037033	43762	110210	0	0	8161	618843	0	0
2024-07-09 04:32:32			0	36205	0	0	0	27529	26120	151729	26889	1036944	43762	110214	0	0	8161	619131	0	0
2024-07-09 04:33:32			0	36232	0	0	0	27527	26120	151773	27308	1036970	43762	110213	0	0	8162	617996	0	0
2024-07-09 04:34:32			0	36219	0	0	0	27511	26120	151729	26830	1036944	43750	110207	0	0	8162	618542	0	0
2024-07-09 04:35:32			0	36243	0	0	0	27516	26120	151729	27201	1036962	43761	110209	0	0	8163	617534	0	0
2024-07-09 04:36:32			0	36236	0	0	0	27511	26110	151657	26937	1036926	43783	110207	0	0	8163	617863	0	0
2024-07-09 04:37:32			0	36245	0	0	0	27511	26120	151609	27253	1036908	43761	110207	0	0	8163	617450	0	0
2024-07-09 04:38:32			0	36234	0	0	0	27519	26120	151649	26928	1036935	43772	110210	0	0	8162	617912	0	0
2024-07-09 04:39:32			0	36251	0	0	0	27527	26120	151597	27365	1036970	43750	110213	0	0	8163	617198	0	0
2024-07-09 04:40:32			0	36260	0	0	0	27522	26120	151565	26871	1036917	43750	110211	0	0	8164	616821	0	0
2024-07-09 04:41:32			0	36250	0	0	0	27527	26120	151445	27161	1036970	43762	110213	0	0	8163	617240	0	0
2024-07-09 04:42:32			0	36281	0	0	0	27527	26110	151513	26899	1036944	43759	110213	0	0	8165	615975	0	0
2024-07-09 04:43:32			0	36263	0	0	0	27529	26100	151505	26890	1036909	43759	110214	0	0	8164	616765	0	0
2024-07-09 04:44:32			0	36276	0	0	0	27522	26110	151457	27433	1036890	43759	110211	0	0	8165	616185	0	0
2024-07-09 04:45:32			0	36300	0	0	0	27516	26100	151397	27201	1036873	43759	110209	0	0	8166	615214	0	0
2024-07-09 04:46:32			0	36293	0	0	0	27516	26110	151413	27000	1036890	43759	110209	0	0	8166	615473	0	0
2024-07-09 04:47:32			0	36321	0	0	0	27516	26110	151369	27258	1036872	43771	110209	0	0	8167	614300	0	0
2024-07-09 04:48:32			0	36314	0	0	0	27511	26100	151301	27147	1036882	43759	110207	0	0	8167	614628	0	0
2024-07-09 04:49:32			0	36331	0	0	0	27498	26100	151281	27066	1036909	43748	110202	0	0	8168	613917	0	0
2024-07-09 04:50:32			0	36334	0	0	0	27511	26100	151301	27358	1036873	43770	110207	0	0	8168	613792	0	0
2024-07-09 04:51:32			0	36346	0	0	0	27503	26100	151261	26878	1036846	43759	110204	0	0	8168	613290	0	0
2024-07-09 04:52:32			0	36351	0	0	0	27509	26090	151241	27024	1036864	43758	110206	0	0	8169	613116	0	0
2024-07-09 04:53:32			0	36341	0	0	0	27506	26090	151217	27310	1036891	43769	110205	0	0	8168	613534	0	0
2024-07-09 04:54:32			0	36358	0	0	0	27503	26100	151257	27261	1036846	43759	110204	0	0	8169	612789	0	0
2024-07-09 04:55:32			0	36374	0	0	0	27509	26090	151161	27124	1036802	43747	110206	0	0	8170	612156	0	0
2024-07-09 04:56:32			0	36376	0	0	0	27506	26100	151185	27048	1036882	43759	110205	0	0	8170	612038	0	0
2024-07-09 04:57:32			0	36369	0	0	0	27509	26100	151105	26934	1036935	43759	110206	0	0	8170	612330	0	0
2024-07-09 04:58:32			0	36384	0	0	0	27506	26090	151125	27197	1036829	43757	110205	0	0	8170	611739	0	0
2024-07-09 04:59:32			0	36371	0	0	0	27498	26100	151085	27081	1036855	43759	110202	0	0	8170	612246	0	0
2024-07-09 05:00:32			0	36384	0	0	0	27490	26090	151097	27157	1036802	43747	110199	0	0	8171	611739	0	0
2024-07-09 05:01:32			0	36410	0	0	0	27485	26080	151153	27296	1036731	43747	110197	0	0	8172	610690	0	0
2024-07-09 05:02:32			0	36383	0	0	0	27477	26080	151121	27194	1036659	43757	110194	0	0	8171	611815	0	0
2024-07-09 05:03:32			0	36390	0	0	0	27475	26080	151165	27187	1036704	43757	110193	0	0	8171	611523	0	0
2024-07-09 05:04:32			0	36379	0	0	0	27477	26080	151113	27301	1036650	43757	110194	0	0	8171	611982	0	0
2024-07-09 05:05:32			0	36399	0	0	0	27464	26060	151141	27204	1036651	43755	110189	0	0	8172	611218	0	0
2024-07-09 05:06:32			0	36383	0	0	0	27464	26070	151081	26902	1036660	43766	110189	0	0	8171	611850	0	0
2024-07-09 05:07:32			0	36379	0	0	0	27457	26060	151129	27008	1036624	43755	110186	0	0	8171	612052	0	0
2024-07-09 05:08:32			0	36375	0	0	0	27454	26060	151161	27209	1036651	43755	110185	0	0	8171	612219	0	0
2024-07-09 05:09:32			0	36371	0	0	0	27449	26050	151217	27069	1036615	43745	110183	0	0	8170	612421	0	0
2024-07-09 05:10:32			0	36355	0	0	0	27446	26050	151177	27097	1036588	43755	110182	0	0	8170	613089	0	0
2024-07-09 05:11:32			0	36363	0	0	0	27444	26050	151265	27005	1036535	43745	110181	0	0	8170	612755	0	0
2024-07-09 05:12:32			0	36365	0	0	0	27438	26050	151297	27034	1036669	43755	110179	0	0	8170	612671	0	0
2024-07-09 05:13:32			0	36342	0	0	0	27446	26050	151305	26955	1036553	43765	110182	0	0	8169	613632	0	0
2024-07-09 05:14:32			0	36333	0	0	0	27441	26040	151229	27197	1036535	43742	110180	0	0	8169	614044	0	0
2024-07-09 05:15:32			0	36321	0	0	0	27436	26040	151309	27521	1036571	43753	110178	0	0	8168	614546	0	0
2024-07-09 05:16:32			0	36330	0	0	0	27438	26040	151325	27093	1036571	43753	110179	0	0	8168	614169	0	0
2024-07-09 05:17:32			0	36340	0	0	0	27438	26030	151329	27242	1036473	43752	110179	0	0	8169	613786	0	0
2024-07-09 05:18:32			0	36349	0	0	0	27428	26030	151329	27282	1036571	43775	110175	0	0	8170	613410	0	0
2024-07-09 05:19:32			0	36359	0	0	0	27436	26030	151293	27255	1036598	43742	110178	0	0	8170	612992	0	0
2024-07-09 05:20:32			0	36342	0	0	0	27436	26030	151301	27074	1036518	43764	110178	0	0	8169	613702	0	0
2024-07-09 05:21:32			0	36341	0	0	0	27438	26040	151245	27026	1036535	43775	110179	0	0	8169	613709	0	0
2024-07-09 05:22:32			0	36334	0	0	0	27436	26040	151261	27229	1036535	43742	110178	0	0	8169	614002	0	0
2024-07-09 05:23:32			0	36347	0	0	0	27431	26030	151217	26974	1036526	43752	110176	0	0	8169	613493	0	0
2024-07-09 05:24:32			0	36350	0	0	0	27431	26020	151157	27175	1036509	43741	110176	0	0	8170	613403	0	0
2024-07-09 05:25:32			0	36372	0	0	0	27423	26020	151225	27215	1036509	43751	110173	0	0	8171	612484	0	0
2024-07-09 05:26:32			0	36371	0	0	0	27420	26020	151257	27131	1036455	43763	110172	0	0	8171	612526	0	0
2024-07-09 05:27:32			0	36368	0	0	0	27410	26020	151145	27313	1036482	43741	110168	0	0	8171	612651	0	0
2024-07-09 05:28:32			0	36383	0	0	0	27407	26020	151137	27294	1036447	43750	110167	0	0	8172	612025	0	0
2024-07-09 05:29:32			0	36386	0	0	0	27407	26010	151137	27253	1036375	43750	110167	0	0	8172	611934	0	0
2024-07-09 05:30:32			0	36386	0	0	0	27402	26010	151109	27232	1036375	43762	110165	0	0	8172	611934	0	0
2024-07-09 05:31:32			0	36400	0	0	0	27405	26000	151113	26996	1036331	43771	110166	0	0	8173	611385	0	0
2024-07-09 05:32:32			0	36407	0	0	0	27392	25990	151037	27270	1036349	43760	110161	0	0	8173	611128	0	0
2024-07-09 05:33:32			0	36390	0	0	0	27399	26000	151101	27046	1036412	43760	110164	0	0	8172	611803	0	0
2024-07-09 05:34:32			0	36402	0	0	0	27389	26000	151149	27414	1036358	43771	110160	0	0	8173	611302	0	0
2024-07-09 05:35:32			0	36398	0	0	0	27389	25990	151049	27175	1036287	43760	110160	0	0	8173	611504	0	0
2024-07-09 05:36:32			0	36413	0	0	0	27394	25980	150989	27203	1036332	43759	110162	0	0	8173	610913	0	0
2024-07-09 05:37:32			0	36407	0	0	0	27397	25980	151077	27291	1036332	43748	110163	0	0	8173	611163	0	0
2024-07-09 05:38:32			0	36412	0	0	0	27394	25980	151117	27007	1036278	43748	110162	0	0	8173	610955	0	0
2024-07-09 05:39:32			0	36416	0	0	0	27389	25980	151001	27159	1036269	43748	110160	0	0	8174	610788	0	0
2024-07-09 05:40:32			0	36420	0	0	0	27394	25970	150977	26982	1036287	43748	110162	0	0	8174	610656	0	0
2024-07-09 05:41:32			0	36422	0	0	0	27389	25980	150957	26779	1036243	43748	110160	0	0	8174	610538	0	0
2024-07-09 05:42:32			0	36420	0	0	0	27392	25960	150949	26922	1036324	43757	110161	0	0	8174	610691	0	0
2024-07-09 05:43:32			0	36436	0	0	0	27407	25970	150873	26805	1036261	43769	110167	0	0	8174	609990	0	0
2024-07-09 05:44:32			0	36446	0	0	0	27402	25980	150721	26956	1036269	43748	110165	0	0	8175	609539	0	0
2024-07-09 05:45:32			0	36477	0	0	0	27394	25970	150857	27005	1036359	43747	110162	0	0	8177	608284	0	0
2024-07-09 05:46:32			0	36470	0	0	0	27405	25980	150753	26928	1036332	43770	110166	0	0	8176	608540	0	0
2024-07-09 05:47:32			0	36464	0	0	0	27399	25980	150705	27081	1036350	43748	110164	0	0	8176	608790	0	0
2024-07-09 05:48:32			0	36482	0	0	0	27399	25980	150757	27007	1036323	43748	110164	0	0	8177	608042	0	0
2024-07-09 05:49:32			0	36498	0	0	0	27394	25970	150769	27000	1036332	43747	110162	0	0	8178	607412	0	0
2024-07-09 05:50:32			0	36495	0	0	0	27386	25970	150697	26994	1036225	43757	110159	0	0	8178	607537	0	0
2024-07-09 05:51:32			0	36536	0	0	0	27381	25970	150601	27043	1036207	43758	110157	0	0	8180	605836	0	0
2024-07-09 05:52:32			0	36522	0	0	0	27371	25970	150605	27130	1036153	43748	110153	0	0	8179	606416	0	0
2024-07-09 05:53:32			0	36546	0	0	0	27363	25970	150613	27093	1036198	43747	110150	0	0	8181	605421	0	0
2024-07-09 05:54:32			0	36541	0	0	0	27361	25960	150569	26779	1036181	43756	110149	0	0	8180	605663	0	0
2024-07-09 05:55:32			0	36536	0	0	0	27353	25960	150569	27206	1036181	43756	110146	0	0	8180	605870	0	0
2024-07-09 05:56:32			0	36545	0	0	0	27353	25950	150473	26901	1036172	43733	110146	0	0	8181	605532	0	0
2024-07-09 05:57:32			0	36547	0	0	0	27340	25950	150501	27312	1036172	43733	110141	0	0	8181	605449	0	0
2024-07-09 05:58:32			0	36550	0	0	0	27345	25950	150465	26880	1036110	43755	110143	0	0	8181	605325	0	0
2024-07-09 05:59:32			0	36529	0	0	0	27348	25940	150513	27235	1036155	43745	110144	0	0	8180	606230	0	0
2024-07-09 06:00:32			0	36532	0	0	0	27345	25950	150513	26850	1036065	43745	110143	0	0	8180	606071	0	0
2024-07-09 06:01:32			0	36536	0	0	0	27345	25950	150429	27275	1036136	43755	110143	0	0	8180	605905	0	0
2024-07-09 06:02:32			0	36542	0	0	0	27348	25930	150509	27026	1036137	43743	110144	0	0	8181	605725	0	0
2024-07-09 06:03:32			0	36539	0	0	0	27340	25930	150441	27229	1036057	43743	110141	0	0	8181	605849	0	0
2024-07-09 06:04:32			0	36520	0	0	0	27337	25940	150461	27046	1036092	43744	110140	0	0	8180	606603	0	0
2024-07-09 06:05:32			0	36544	0	0	0	27340	25940	150513	27157	1036039	43744	110141	0	0	8181	605608	0	0
2024-07-09 06:06:32			0	36535	0	0	0	27337	25940	150501	27289	1036119	43744	110140	0	0	8180	605981	0	0
2024-07-09 06:07:32			0	36536	0	0	0	27329	25930	150441	27177	1036003	43753	110137	0	0	8181	605974	0	0
2024-07-09 06:08:32			0	36537	0	0	0	27329	25940	150485	27157	1036128	43745	110137	0	0	8181	605898	0	0
2024-07-09 06:09:32			0	36533	0	0	0	27332	25920	150477	27033	1036039	43753	110138	0	0	8180	606133	0	0
2024-07-09 06:10:32			0	36573	0	0	0	27337	25940	150389	26823	1036092	43744	110140	0	0	8182	604407	0	0
2024-07-09 06:11:32			0	36550	0	0	0	27329	25930	150429	27029	1036110	43743	110137	0	0	8181	605394	0	0
2024-07-09 06:12:32			0	36557	0	0	0	27337	25930	150413	26890	1036075	43753	110140	0	0	8182	605104	0	0
2024-07-09 06:13:32			0	36575	0	0	0	27327	25930	150377	27189	1036075	43753	110136	0	0	8183	604359	0	0
2024-07-09 06:14:32			0	36576	0	0	0	27332	25930	150297	27313	1036030	43743	110138	0	0	8183	604317	0	0
2024-07-09 06:15:32			0	36581	0	0	0	27324	25920	150217	27237	1036003	43719	110135	0	0	8183	604145	0	0
2024-07-09 06:16:32			0	36591	0	0	0	27329	25930	150298	27452	1036030	43765	110137	0	0	8184	603697	0	0
2024-07-09 06:17:32			0	36610	0	0	0	27324	25920	150162	26844	1036057	43742	110135	0	0	8185	602946	0	0
2024-07-09 06:18:32			0	36624	0	0	0	27324	25920	150074	26956	1036039	43743	110135	0	0	8185	602368	0	0
2024-07-09 06:19:32			0	36644	0	0	0	27327	25920	150010	27294	1036039	43743	110136	0	0	8186	601543	0	0
2024-07-09 06:20:32			0	36648	0	0	0	27311	25920	150106	27083	1035976	43742	110130	0	0	8187	601378	0	0
2024-07-09 06:21:32			0	36667	0	0	0	27327	25920	150030	27305	1036084	43742	110136	0	0	8187	600595	0	0
2024-07-09 06:22:32			0	36673	0	0	0	27319	25920	150054	27301	1035950	43764	110133	0	0	8188	600348	0	0
2024-07-09 06:23:32			0	36689	0	0	0	27322	25920	149894	27140	1036030	43742	110134	0	0	8189	599689	0	0
2024-07-09 06:24:32			0	36695	0	0	0	27319	25910	149866	27164	1035995	43741	110133	0	0	8189	599476	0	0
2024-07-09 06:25:32			0	36705	0	0	0	27322	25910	149870	27336	1035995	43741	110134	0	0	8189	599065	0	0
2024-07-09 06:26:32			0	36704	0	0	0	27319	25920	149874	27326	1036003	43742	110133	0	0	8190	599072	0	0
2024-07-09 06:27:32			0	36722	0	0	0	27314	25910	149794	27216	1035995	43741	110131	0	0	8191	598366	0	0
2024-07-09 06:28:32			0	36703	0	0	0	27314	25910	149754	27093	1035986	43741	110131	0	0	8190	599147	0	0
2024-07-09 06:29:32			0	36761	0	0	0	27309	25910	149774	27225	1035986	43751	110129	0	0	8193	596764	0	0
2024-07-09 06:30:32			0	36721	0	0	0	27306	25910	149638	27050	1035959	43751	110128	0	0	8191	598407	0	0
2024-07-09 06:31:32			0	36726	0	0	0	27309	25910	149706	27107	1035941	43751	110129	0	0	8191	598201	0	0
2024-07-09 06:32:32			0	36745	0	0	0	27301	25910	149702	27178	1035905	43741	110126	0	0	8192	597421	0	0
2024-07-09 06:33:32			0	36747	0	0	0	27301	25900	149654	27301	1035968	43740	110126	0	0	8192	597373	0	0
2024-07-09 06:34:32			0	36722	0	0	0	27303	25900	149690	27308	1035915	43740	110127	0	0	8191	598400	0	0
2024-07-09 06:35:32			0	36765	0	0	0	27298	25910	149618	27145	1035905	43741	110125	0	0	8193	596600	0	0
2024-07-09 06:36:32			0	36762	0	0	0	27293	25900	149598	26975	1035915	43740	110123	0	0	8193	596758	0	0
2024-07-09 06:37:32			0	36736	0	0	0	27285	25890	149530	27222	1035897	43739	110120	0	0	8192	597859	0	0
2024-07-09 06:38:32			0	36756	0	0	0	27277	25900	149626	27220	1035834	43762	110117	0	0	8193	597004	0	0
2024-07-09 06:39:32			0	36782	0	0	0	27277	25890	149606	27255	1035870	43739	110117	0	0	8194	595971	0	0
2024-07-09 06:40:32			0	36772	0	0	0	27275	25880	149590	27317	1035808	43727	110116	0	0	8194	596415	0	0
2024-07-09 06:41:32			0	36775	0	0	0	27277	25880	149598	27267	1035799	43738	110117	0	0	8194	596292	0	0
2024-07-09 06:42:32			0	36779	0	0	0	27267	25880	149610	26866	1035773	43727	110113	0	0	8194	596128	0	0
2024-07-09 06:43:32			0	36778	0	0	0	27277	25880	149570	27189	1035781	43749	110117	0	0	8194	596169	0	0
2024-07-09 06:44:32			0	36768	0	0	0	27272	25890	149586	27171	1035844	43772	110115	0	0	8194	596545	0	0
2024-07-09 06:45:32			0	36752	0	0	0	27267	25870	149598	27222	1035836	43748	110113	0	0	8193	597270	0	0
2024-07-09 06:46:32			0	36749	0	0	0	27277	25880	149738	26974	1035808	43749	110117	0	0	8192	597359	0	0
2024-07-09 06:47:32			0	36729	0	0	0	27277	25880	149810	27090	1035826	43738	110117	0	0	8191	598180	0	0
2024-07-09 06:48:32			0	36708	0	0	0	27283	25870	149810	27230	1035844	43748	110119	0	0	8190	599078	0	0
2024-07-09 06:49:32			0	36694	0	0	0	27290	25880	149938	27197	1035889	43760	110122	0	0	8189	599620	0	0
2024-07-09 06:50:32			0	36689	0	0	0	27303	25890	149922	27215	1035933	43761	110127	0	0	8189	599791	0	0
2024-07-09 06:51:32			0	36660	0	0	0	27314	25890	149890	27182	1035870	43750	110131	0	0	8187	600986	0	0
2024-07-09 06:52:32			0	36673	0	0	0	27314	25890	150010	27237	1035924	43761	110131	0	0	8188	600450	0	0
2024-07-09 06:53:32			0	36654	0	0	0	27311	25880	149978	27102	1035889	43738	110130	0	0	8187	601268	0	0
2024-07-09 06:54:32			0	36672	0	0	0	27298	25890	150106	27222	1035852	43739	110125	0	0	8188	600491	0	0
2024-07-09 06:55:32			0	36675	0	0	0	27288	25890	150058	27471	1035870	43750	110121	0	0	8188	600368	0	0
2024-07-09 06:56:32			0	36675	0	0	0	27285	25880	150046	27228	1035835	43749	110120	0	0	8188	600402	0	0
2024-07-09 06:57:32			0	36698	0	0	0	27288	25870	149886	27274	1035782	43736	110121	0	0	8190	599489	0	0
2024-07-09 06:58:32			0	36729	0	0	0	27270	25880	149802	27126	1035853	43738	110114	0	0	8191	598180	0	0
2024-07-09 06:59:32			0	36710	0	0	0	27272	25870	149814	26986	1035764	43737	110115	0	0	8190	598996	0	0
2024-07-09 07:00:32			0	36738	0	0	0	27275	25870	149778	27133	1035817	43748	110116	0	0	8192	597845	0	0
2024-07-09 07:01:32			0	36766	0	0	0	27264	25870	149694	27260	1035764	43737	110112	0	0	8193	596696	0	0
2024-07-09 07:02:32			0	36764	0	0	0	27262	25870	149658	27218	1035782	43736	110111	0	0	8193	596778	0	0
2024-07-09 07:03:32			0	36783	0	0	0	27259	25870	149610	27312	1035782	43736	110110	0	0	8194	595998	0	0
2024-07-09 07:04:32			0	36784	0	0	0	27259	25870	149482	26977	1035782	43725	110110	0	0	8195	595957	0	0
2024-07-09 07:05:32			0	36788	0	0	0	27264	25860	149538	27279	1035800	43748	110112	0	0	8195	595827	0	0
2024-07-09 07:06:32			0	36800	0	0	0	27259	25870	149558	27287	1035755	43736	110110	0	0	8195	595302	0	0
2024-07-09 07:07:32			0	36796	0	0	0	27254	25860	149526	27251	1035746	43748	110108	0	0	8195	595500	0	0
2024-07-09 07:08:32			0	36812	0	0	0	27244	25860	149526	27052	1035738	43748	110104	0	0	8196	594844	0	0
2024-07-09 07:09:32			0	36824	0	0	0	27249	25860	149486	27182	1035738	43736	110106	0	0	8197	594353	0	0
2024-07-09 07:10:32			0	36812	0	0	0	27251	25860	149506	27083	1035746	43736	110107	0	0	8196	594844	0	0
2024-07-09 07:11:32			0	36830	0	0	0	27241	25860	149466	27235	1035711	43736	110103	0	0	8197	594108	0	0
2024-07-09 07:12:32			0	36806	0	0	0	27246	25850	149502	27440	1035693	43734	110105	0	0	8196	595124	0	0
2024-07-09 07:13:32			0	36829	0	0	0	27238	25850	149570	27329	1035693	43746	110102	0	0	8197	594183	0	0
2024-07-09 07:14:32			0	36812	0	0	0	27259	25850	149430	27175	1035702	43747	110110	0	0	8196	594878	0	0
2024-07-09 07:15:32			0	36818	0	0	0	27254	25850	149478	27538	1035702	43747	110108	0	0	8196	594633	0	0
2024-07-09 07:16:32			0	36799	0	0	0	27259	25860	149482	27116	1035711	43748	110110	0	0	8195	595377	0	0
2024-07-09 07:17:32			0	36794	0	0	0	27267	25850	149650	27216	1035720	43734	110113	0	0	8195	595616	0	0
2024-07-09 07:18:32			0	36785	0	0	0	27246	25860	149762	27251	1035738	43748	110105	0	0	8195	595950	0	0
2024-07-09 07:19:32			0	36762	0	0	0	27241	25850	149798	26911	1035702	43747	110103	0	0	8194	596928	0	0
2024-07-09 07:20:32			0	36774	0	0	0	27238	25850	149786	27213	1035666	43756	110102	0	0	8194	596435	0	0
2024-07-09 07:21:32			0	36773	0	0	0	27225	25840	149778	27232	1035658	43746	110097	0	0	8194	596510	0	0
2024-07-09 07:22:32			0	36752	0	0	0	27244	25850	149838	27220	1035693	43746	110104	0	0	8193	597338	0	0
2024-07-09 07:23:32			0	36748	0	0	0	27233	25840	149794	27331	1035631	43734	110100	0	0	8193	597536	0	0
2024-07-09 07:24:32			0	36738	0	0	0	27228	25840	149814	27296	1035658	43734	110098	0	0	8192	597947	0	0
2024-07-09 07:25:32			0	36744	0	0	0	27225	25840	149786	27204	1035685	43734	110097	0	0	8193	597701	0	0
2024-07-09 07:26:32			0	36738	0	0	0	27236	25840	149842	27177	1035631	43746	110101	0	0	8192	597947	0	0
2024-07-09 07:27:32			0	36726	0	0	0	27236	25840	149886	27244	1035676	43733	110101	0	0	8192	598440	0	0
2024-07-09 07:28:32			0	36720	0	0	0	27236	25840	149918	27260	1035649	43745	110101	0	0	8191	598687	0	0
2024-07-09 07:29:32			0	36699	0	0	0	27236	25840	149998	27332	1035649	43745	110101	0	0	8190	599551	0	0
2024-07-09 07:30:32			0	36687	0	0	0	27236	25830	150074	27326	1035587	43722	110101	0	0	8190	600079	0	0
2024-07-09 07:31:32			0	36680	0	0	0	27223	25840	150222	26963	1035604	43746	110096	0	0	8190	600333	0	0
2024-07-09 07:32:32			0	36665	0	0	0	27238	25840	150202	27166	1035622	43745	110102	0	0	8189	600951	0	0
2024-07-09 07:33:32			0	36634	0	0	0	27238	25840	150318	27041	1035622	43733	110102	0	0	8187	602230	0	0
2024-07-09 07:34:32			0	36626	0	0	0	27236	25840	150254	27326	1035711	43734	110101	0	0	8187	602560	0	0
2024-07-09 07:35:32			0	36612	0	0	0	27238	25830	150294	27376	1035667	43755	110102	0	0	8186	603173	0	0
2024-07-09 07:36:32			0	36610	0	0	0	27231	25830	150414	27062	1035667	43745	110099	0	0	8186	603256	0	0
2024-07-09 07:37:32			0	36592	0	0	0	27244	25830	150410	26958	1035667	43733	110104	0	0	8185	604000	0	0
2024-07-09 07:38:32			0	36584	0	0	0	27244	25830	150469	27216	1035694	43755	110104	0	0	8184	604331	0	0
2024-07-09 07:39:32			0	36565	0	0	0	27251	25840	150501	27066	1035711	43746	110107	0	0	8183	605083	0	0
2024-07-09 07:40:32			0	36545	0	0	0	27249	25850	150625	27170	1035702	43747	110106	0	0	8182	605877	0	0
2024-07-09 07:41:32			0	36521	0	0	0	27262	25840	150673	27201	1035649	43733	110111	0	0	8181	606907	0	0
2024-07-09 07:42:32			0	36487	0	0	0	27259	25850	150777	27157	1035720	43734	110110	0	0	8179	608285	0	0
2024-07-09 07:43:32			0	36473	0	0	0	27264	25850	150869	27156	1035782	43747	110112	0	0	8178	608867	0	0
2024-07-09 07:44:32			0	36463	0	0	0	27275	25850	150897	27263	1035747	43756	110116	0	0	8177	609283	0	0
2024-07-09 07:45:32			0	36448	0	0	0	27277	25860	150989	27313	1035800	43748	110117	0	0	8177	609872	0	0
2024-07-09 07:46:32			0	36410	0	0	0	27283	25860	151089	27471	1035764	43748	110119	0	0	8174	611456	0	0
2024-07-09 07:47:32			0	36411	0	0	0	27277	25870	151173	27263	1035809	43758	110117	0	0	8175	611380	0	0
2024-07-09 07:48:32			0	36403	0	0	0	27280	25870	151209	27249	1035817	43748	110118	0	0	8174	611713	0	0
2024-07-09 07:49:32			0	36375	0	0	0	27285	25870	151269	27095	1035817	43759	110120	0	0	8173	612883	0	0
2024-07-09 07:50:32			0	36381	0	0	0	27288	25870	151253	27253	1035844	43759	110121	0	0	8173	612632	0	0
2024-07-09 07:51:32			0	36390	0	0	0	27288	25880	151281	27166	1035826	43749	110121	0	0	8173	612221	0	0
2024-07-09 07:52:32			0	36427	0	0	0	27298	25870	151105	27126	1035844	43748	110125	0	0	8175	610713	0	0
2024-07-09 07:53:32			0	36431	0	0	0	27298	25870	151105	27045	1035809	43748	110125	0	0	8175	610546	0	0
2024-07-09 07:54:32			0	36458	0	0	0	27303	25870	150941	26875	1035809	43758	110127	0	0	8177	609421	0	0
2024-07-09 07:55:32			0	36486	0	0	0	27311	25890	150657	27239	1035978	43750	110130	0	0	8178	608188	0	0
2024-07-09 07:56:32			0	36487	0	0	0	27324	25890	150705	26904	1036013	43772	110135	0	0	8178	608146	0	0
2024-07-09 07:57:32			0	36505	0	0	0	27327	25900	150565	27107	1036022	43750	110136	0	0	8179	607364	0	0
2024-07-09 07:58:32			0	36514	0	0	0	27335	25900	150625	27031	1036004	43750	110139	0	0	8179	606990	0	0
2024-07-09 07:59:32			0	36519	0	0	0	27335	25900	150577	27296	1036031	43750	110139	0	0	8180	606783	0	0
2024-07-09 08:00:32			0	36547	0	0	0	27340	25910	150581	26984	1036129	43763	110141	0	0	8181	605587	0	0
2024-07-09 08:01:32			0	36564	0	0	0	27348	25910	150413	27128	1036075	43763	110144	0	0	8182	604883	0	0
2024-07-09 08:02:32			0	36575	0	0	0	27355	25920	150329	27312	1036137	43752	110147	0	0	8182	604393	0	0
2024-07-09 08:03:32			0	36605	0	0	0	27361	25920	150230	27168	1036200	43765	110149	0	0	8184	603153	0	0
2024-07-09 08:04:32			0	36616	0	0	0	27366	25930	150134	27242	1036182	43753	110151	0	0	8184	602664	0	0
2024-07-09 08:05:32			0	36626	0	0	0	27371	25930	150178	27026	1036244	43765	110153	0	0	8185	602251	0	0
2024-07-09 08:06:32			0	36628	0	0	0	27379	25930	150126	27412	1036271	43787	110156	0	0	8185	602169	0	0
2024-07-09 08:07:32			0	36647	0	0	0	27392	25950	150094	27305	1036297	43755	110161	0	0	8185	601316	0	0
2024-07-09 08:08:32			0	36651	0	0	0	27394	25960	150050	27152	1036395	43779	110162	0	0	8186	601117	0	0
2024-07-09 08:09:32			0	36647	0	0	0	27412	25970	150038	27123	1036413	43780	110169	0	0	8185	601248	0	0
2024-07-09 08:10:32			0	36667	0	0	0	27420	25980	150102	27017	1036511	43781	110172	0	0	8186	600389	0	0
2024-07-09 08:11:32			0	36660	0	0	0	27428	25980	149974	26842	1036484	43781	110175	0	0	8186	600678	0	0
2024-07-09 08:12:32			0	36669	0	0	0	27436	26000	149926	27222	1036474	43761	110178	0	0	8186	600239	0	0
2024-07-09 08:13:32			0	36687	0	0	0	27444	26000	149902	26968	1036573	43760	110181	0	0	8187	599498	0	0
2024-07-09 08:14:32			0	36683	0	0	0	27425	26000	149866	26889	1036554	43772	110174	0	0	8187	599662	0	0
2024-07-09 08:15:32			0	36695	0	0	0	27433	25990	149858	27192	1036510	43749	110177	0	0	8187	599203	0	0
2024-07-09 08:16:32			0	36711	0	0	0	27425	26000	149758	27119	1036492	43749	110174	0	0	8188	598511	0	0
2024-07-09 08:17:32			0	36754	0	0	0	27425	26000	149766	27118	1036519	43749	110174	0	0	8191	596745	0	0
2024-07-09 08:18:32			0	36732	0	0	0	27428	26000	149686	27154	1036546	43749	110175	0	0	8189	597648	0	0
2024-07-09 08:19:32			0	36746	0	0	0	27428	26010	149706	27157	1036510	43762	110175	0	0	8190	597040	0	0
2024-07-09 08:20:32			0	36759	0	0	0	27418	26000	149618	27298	1036519	43771	110171	0	0	8191	596540	0	0
2024-07-09 08:21:32			0	36754	0	0	0	27425	26000	149618	27322	1036528	43761	110174	0	0	8191	596745	0	0
2024-07-09 08:22:32			0	36751	0	0	0	27436	26020	149574	27100	1036607	43762	110178	0	0	8190	596800	0	0
2024-07-09 08:23:32			0	36734	0	0	0	27433	26020	149514	27024	1036536	43763	110177	0	0	8190	597498	0	0
2024-07-09 08:24:32			0	36742	0	0	0	27431	26030	149606	26873	1036544	43764	110176	0	0	8190	597136	0	0
2024-07-09 08:25:32			0	36749	0	0	0	27431	26020	149606	27235	1036581	43784	110176	0	0	8190	596882	0	0
2024-07-09 08:26:32			0	36729	0	0	0	27433	26020	149682	27215	1036616	43774	110177	0	0	8189	597703	0	0
2024-07-09 08:27:32			0	36717	0	0	0	27431	26010	149778	27048	1036510	43762	110176	0	0	8189	598230	0	0
2024-07-09 08:28:32			0	36704	0	0	0	27423	26030	149806	27119	1036634	43764	110173	0	0	8188	598696	0	0
2024-07-09 08:29:32			0	36682	0	0	0	27428	26020	149914	27376	1036536	43751	110175	0	0	8187	599635	0	0
2024-07-09 08:30:32			0	36673	0	0	0	27418	26020	149894	27246	1036536	43751	110171	0	0	8187	600005	0	0
2024-07-09 08:31:32			0	36625	0	0	0	27425	26030	149974	27159	1036598	43764	110174	0	0	8184	601949	0	0
2024-07-09 08:32:32			0	36616	0	0	0	27431	26020	150094	27138	1036589	43763	110176	0	0	8183	602355	0	0
2024-07-09 08:33:32			0	36553	0	0	0	27425	26030	150305	27493	1036518	43752	110174	0	0	8180	604925	0	0
2024-07-09 08:34:32			0	36523	0	0	0	27423	26020	150401	27112	1036589	43763	110173	0	0	8179	606202	0	0
2024-07-09 08:35:32			0	36489	0	0	0	27433	26020	150593	27173	1036527	43762	110177	0	0	8177	607612	0	0
2024-07-09 08:36:32			0	36455	0	0	0	27418	26030	150829	27078	1036544	43752	110171	0	0	8175	608990	0	0
2024-07-09 08:37:32			0	36407	0	0	0	27410	26010	150877	27232	1036491	43762	110168	0	0	8173	611059	0	0
2024-07-09 08:38:32			0	36370	0	0	0	27405	26030	151121	27241	1036544	43775	110166	0	0	8171	612533	0	0
2024-07-09 08:39:32			0	36337	0	0	0	27405	26000	151281	27201	1036420	43761	110166	0	0	8169	614016	0	0
2024-07-09 08:40:32			0	36286	0	0	0	27394	26000	151469	26939	1036438	43760	110162	0	0	8167	616152	0	0
2024-07-09 08:41:32			0	36231	0	0	0	27394	26000	151749	27234	1036438	43760	110162	0	0	8164	618461	0	0
2024-07-09 08:42:32			0	36186	0	0	0	27392	25990	151773	26968	1036456	43749	110161	0	0	8161	620390	0	0
2024-07-09 08:43:32			0	36133	0	0	0	27402	26000	152117	27171	1036492	43749	110165	0	0	8159	622591	0	0
2024-07-09 08:44:32			0	36102	0	0	0	27407	26000	152261	27045	1036528	43772	110167	0	0	8157	623901	0	0
2024-07-09 08:45:32			0	36051	0	0	0	27412	26020	152473	27183	1036527	43762	110169	0	0	8154	625989	0	0
2024-07-09 08:46:32			0	36006	0	0	0	27418	26010	152577	27060	1036536	43750	110171	0	0	8152	627935	0	0
2024-07-09 08:47:32			0	35967	0	0	0	27431	26020	152821	26850	1036581	43784	110176	0	0	8149	629558	0	0
2024-07-09 08:48:32			0	35942	0	0	0	27428	26020	152929	27223	1036643	43763	110175	0	0	8148	630623	0	0
2024-07-09 08:49:32			0	35889	0	0	0	27441	26020	153021	26996	1036670	43774	110180	0	0	8145	632884	0	0
2024-07-09 08:50:32			0	35864	0	0	0	27441	26030	153285	26960	1036652	43764	110180	0	0	8144	633917	0	0
2024-07-09 08:51:32			0	35823	0	0	0	27449	26030	153264	27211	1036634	43764	110183	0	0	8141	635673	0	0
2024-07-09 08:52:32			0	35800	0	0	0	27451	26030	153424	26941	1036687	43764	110184	0	0	8140	636659	0	0
2024-07-09 08:53:32			0	35767	0	0	0	27459	26030	153616	26946	1036652	43775	110187	0	0	8138	638076	0	0
2024-07-09 08:54:32			0	35740	0	0	0	27462	26030	153680	26987	1036607	43775	110188	0	0	8137	639237	0	0
2024-07-09 08:55:32			0	35729	0	0	0	27459	26040	153856	27128	1036589	43775	110187	0	0	8136	639674	0	0
2024-07-09 08:56:32			0	35697	0	0	0	27451	26040	153888	27303	1036642	43775	110184	0	0	8135	641053	0	0
2024-07-09 08:57:32			0	35676	0	0	0	27457	26040	154040	26941	1036642	43775	110186	0	0	8134	641959	0	0
2024-07-09 08:58:32			0	35663	0	0	0	27449	26030	154128	27157	1036634	43775	110183	0	0	8133	642557	0	0
2024-07-09 08:59:32			0	35618	0	0	0	27446	26040	154312	27048	1036678	43765	110182	0	0	8131	644466	0	0
2024-07-09 09:00:32			0	35612	0	0	0	27451	26040	154328	27246	1036705	43776	110184	0	0	8130	644726	0	0
2024-07-09 09:01:32			0	35612	0	0	0	27446	26040	154344	27317	1036598	43753	110182	0	0	8130	644726	0	0
2024-07-09 09:02:32			0	35584	0	0	0	27454	26050	154464	27013	1036687	43777	110185	0	0	8129	645903	0	0
2024-07-09 09:03:32			0	35563	0	0	0	27459	26030	154572	27229	1036652	43764	110187	0	0	8127	646887	0	0
2024-07-09 09:04:32			0	35549	0	0	0	27454	26040	154560	27007	1036759	43765	110185	0	0	8127	647458	0	0
2024-07-09 09:05:32			0	35529	0	0	0	27464	26040	154560	27119	1036696	43752	110189	0	0	8126	648327	0	0
2024-07-09 09:06:32			0	35522	0	0	0	27462	26040	154620	27000	1036705	43743	110188	0	0	8125	648632	0	0
2024-07-09 09:07:32			0	35532	0	0	0	27451	26040	154668	27130	1036759	43765	110184	0	0	8126	648197	0	0
2024-07-09 09:08:32			0	35520	0	0	0	27457	26040	154684	27256	1036651	43753	110186	0	0	8125	648719	0	0
2024-07-09 09:09:32			0	35499	0	0	0	27459	26050	154772	27265	1036660	43754	110187	0	0	8124	649596	0	0
2024-07-09 09:10:32			0	35499	0	0	0	27454	26050	154832	27227	1036687	43765	110185	0	0	8124	649596	0	0
2024-07-09 09:11:32			0	35486	0	0	0	27451	26040	154764	27381	1036750	43764	110184	0	0	8124	650199	0	0
2024-07-09 09:12:32			0	35485	0	0	0	27446	26050	154844	27362	1036687	43765	110182	0	0	8124	650205	0	0
2024-07-09 09:13:32			0	35474	0	0	0	27441	26030	154812	27398	1036661	43775	110180	0	0	8123	650759	0	0
2024-07-09 09:14:32			0	35479	0	0	0	27446	26050	154840	27300	1036723	43778	110182	0	0	8123	650467	0	0
2024-07-09 09:15:32			0	35474	0	0	0	27444	26040	154936	27111	1036732	43765	110181	0	0	8123	650722	0	0
2024-07-09 09:16:32			0	35455	0	0	0	27457	26040	154984	27105	1036705	43776	110186	0	0	8122	651550	0	0
2024-07-09 09:17:32			0	35452	0	0	0	27451	26050	154848	27045	1036803	43778	110184	0	0	8122	651644	0	0
2024-07-09 09:18:32			0	35466	0	0	0	27462	26050	155080	27085	1036714	43754	110188	0	0	8122	651034	0	0
2024-07-09 09:19:32			0	35446	0	0	0	27459	26060	155072	27090	1036812	43766	110187	0	0	8121	651869	0	0
2024-07-09 09:20:32			0	35456	0	0	0	27472	26050	155028	27241	1036768	43765	110192	0	0	8122	651470	0	0
2024-07-09 09:21:32			0	35458	0	0	0	27472	26070	154988	27253	1036821	43778	110192	0	0	8122	651308	0	0
2024-07-09 09:22:32			0	35449	0	0	0	27464	26060	155068	27197	1036785	43766	110189	0	0	8121	651738	0	0
2024-07-09 09:23:32			0	35447	0	0	0	27470	26050	155072	27218	1036749	43766	110191	0	0	8121	651862	0	0
2024-07-09 09:24:32			0	35443	0	0	0	27475	26070	155112	27192	1036821	43778	110193	0	0	8121	651963	0	0
2024-07-09 09:25:32			0	35461	0	0	0	27483	26070	155088	26856	1036856	43779	110196	0	0	8122	651177	0	0
2024-07-09 09:26:32			0	35432	0	0	0	27480	26070	155056	27180	1036856	43767	110195	0	0	8120	652443	0	0
2024-07-09 09:27:32			0	35441	0	0	0	27498	26080	155056	26977	1036945	43780	110202	0	0	8121	652013	0	0
2024-07-09 09:28:32			0	35438	0	0	0	27496	26090	155004	27140	1036972	43769	110201	0	0	8120	652107	0	0
2024-07-09 09:29:32			0	35436	0	0	0	27493	26090	155036	27013	1036972	43758	110200	0	0	8120	652194	0	0
2024-07-09 09:30:32			0	35423	0	0	0	27488	26100	154984	27066	1036927	43770	110198	0	0	8120	652724	0	0
2024-07-09 09:31:32			0	35450	0	0	0	27501	26100	154968	27088	1036980	43782	110203	0	0	8121	651546	0	0
2024-07-09 09:32:32			0	35435	0	0	0	27540	26100	154956	27230	1037195	43792	110218	0	0	8120	652200	0	0
2024-07-09 09:33:32			0	35447	0	0	0	27537	26120	155004	27249	1037096	43783	110217	0	0	8120	651602	0	0
2024-07-09 09:34:32			0	35443	0	0	0	27529	26120	155016	27001	1037051	43773	110214	0	0	8120	651777	0	0
2024-07-09 09:35:32			0	35440	0	0	0	27514	26120	154992	27107	1037051	43762	110208	0	0	8120	651908	0	0
2024-07-09 09:36:32			0	35450	0	0	0	27527	26120	154892	26805	1037015	43783	110213	0	0	8121	651471	0	0
2024-07-09 09:37:32			0	35442	0	0	0	27529	26110	154908	26955	1037087	43783	110214	0	0	8120	651857	0	0
2024-07-09 09:38:32			0	35447	0	0	0	27535	26130	155092	27156	1037221	43784	110216	0	0	8120	651565	0	0
2024-07-09 09:39:32			0	35443	0	0	0	27540	26130	154920	27305	1037194	43784	110218	0	0	8120	651739	0	0
2024-07-09 09:40:32			0	35453	0	0	0	27540	26130	154892	27072	1037202	43795	110218	0	0	8121	651303	0	0
2024-07-09 09:41:32			0	35457	0	0	0	27553	26140	154908	26960	1037238	43785	110223	0	0	8121	651092	0	0
2024-07-09 09:42:32			0	35456	0	0	0	27558	26150	154948	27313	1037309	43786	110225	0	0	8121	651098	0	0
2024-07-09 09:43:32			0	35452	0	0	0	27592	26150	154912	27332	1037363	43775	110238	0	0	8120	651272	0	0
2024-07-09 09:44:32			0	35462	0	0	0	27592	26170	154892	27220	1037371	43788	110238	0	0	8120	650762	0	0
2024-07-09 09:45:32			0	35427	0	0	0	27620	26170	154956	27296	1037514	43810	110249	0	0	8118	652289	0	0
2024-07-09 09:46:32			0	35450	0	0	0	27625	26180	154952	27204	1037585	43790	110251	0	0	8119	651248	0	0
2024-07-09 09:47:32			0	35465	0	0	0	27654	26200	154784	27093	1037665	43801	110262	0	0	8120	650520	0	0
2024-07-09 09:48:32			0	35455	0	0	0	27683	26210	154828	27222	1037629	43803	110273	0	0	8119	650919	0	0
2024-07-09 09:49:32			0	35473	0	0	0	27701	26220	154832	26819	1037763	43804	110280	0	0	8119	650097	0	0
2024-07-09 09:50:32			0	35458	0	0	0	27701	26230	154824	27225	1037879	43794	110280	0	0	8119	650714	0	0
2024-07-09 09:51:32			0	35454	0	0	0	27722	26240	154808	26916	1037869	43805	110288	0	0	8118	650851	0	0
2024-07-09 09:52:32			0	35478	0	0	0	27709	26250	154712	27107	1037887	43807	110283	0	0	8120	649768	0	0
2024-07-09 09:53:32			0	35478	0	0	0	27696	26260	154672	27177	1037886	43797	110278	0	0	8120	649731	0	0
2024-07-09 09:54:32			0	35507	0	0	0	27701	26260	154572	27372	1037940	43797	110280	0	0	8121	648470	0	0
2024-07-09 09:55:32			0	35526	0	0	0	27709	26280	154516	27178	1038020	43821	110283	0	0	8122	647570	0	0
2024-07-09 09:56:32			0	35532	0	0	0	27724	26280	154440	27140	1038055	43821	110289	0	0	8122	647310	0	0
2024-07-09 09:57:32			0	35572	0	0	0	27735	26300	154284	27100	1038109	43812	110293	0	0	8125	645501	0	0
2024-07-09 09:58:32			0	35590	0	0	0	27737	26300	154204	27329	1038118	43800	110294	0	0	8125	644722	0	0
2024-07-09 09:59:32			0	35652	0	0	0	27755	26310	153928	27277	1038180	43801	110301	0	0	8128	642006	0	0
2024-07-09 10:00:32			0	35692	0	0	0	27753	26320	153624	27043	1038278	43791	110300	0	0	8131	640245	0	0
2024-07-09 10:01:32			0	35773	0	0	0	27771	26330	153444	27242	1038242	43803	110307	0	0	8135	636727	0	0
2024-07-09 10:02:32			0	35831	0	0	0	27763	26340	153092	27135	1038268	43805	110304	0	0	8138	634206	0	0
2024-07-09 10:03:32			0	35919	0	0	0	27750	26340	152789	26977	1038206	43816	110299	0	0	8143	630451	0	0
2024-07-09 10:04:32			0	35974	0	0	0	27714	26340	152457	27218	1038134	43794	110285	0	0	8146	628112	0	0
2024-07-09 10:05:32			0	36025	0	0	0	27675	26330	152157	27310	1038036	43782	110270	0	0	8150	625984	0	0
2024-07-09 10:06:32			0	36069	0	0	0	27636	26310	152073	27229	1037813	43781	110255	0	0	8153	624193	0	0
2024-07-09 10:07:32			0	36119	0	0	0	27594	26290	152021	27256	1037689	43755	110239	0	0	8156	622152	0	0
2024-07-09 10:08:32			0	36154	0	0	0	27553	26270	151861	27157	1037466	43753	110223	0	0	8158	620747	0	0
2024-07-09 10:09:32			0	36149	0	0	0	27524	26240	151721	26731	1037440	43739	110212	0	0	8158	621064	0	0
2024-07-09 10:10:32			0	36166	0	0	0	27490	26230	151653	27206	1037324	43750	110199	0	0	8160	620383	0	0
2024-07-09 10:11:32			0	36181	0	0	0	27467	26210	151681	26698	1037200	43748	110190	0	0	8161	619823	0	0
2024-07-09 10:12:32			0	36199	0	0	0	27467	26190	151693	26934	1037227	43757	110190	0	0	8162	619136	0	0
2024-07-09 10:13:32			0	36174	0	0	0	27470	26180	151733	26920	1037344	43767	110191	0	0	8160	620223	0	0
2024-07-09 10:14:32			0	36160	0	0	0	27490	26190	151741	27232	1037415	43780	110199	0	0	8159	620778	0	0
2024-07-09 10:15:32			0	36137	0	0	0	27522	26220	151777	27197	1037647	43792	110211	0	0	8158	621641	0	0
2024-07-09 10:16:32			0	36134	0	0	0	27605	26230	151865	27062	1037807	43794	110243	0	0	8156	621732	0	0
2024-07-09 10:17:32			0	36101	0	0	0	27711	26260	151949	27067	1038039	43819	110284	0	0	8153	623018	0	0
2024-07-09 10:18:32			0	36094	0	0	0	27786	26280	152053	27208	1038270	43799	110313	0	0	8151	623243	0	0
2024-07-09 10:19:32			0	36120	0	0	0	27831	26320	151933	27118	1038332	43814	110330	0	0	8152	622003	0	0
2024-07-09 10:20:32			0	36129	0	0	0	27872	26330	151981	26948	1038439	43827	110346	0	0	8152	621588	0	0
2024-07-09 10:21:32			0	36119	0	0	0	27898	26350	151901	26987	1038554	43806	110356	0	0	8151	621938	0	0
2024-07-09 10:22:32			0	36129	0	0	0	27906	26380	151917	26892	1038643	43831	110359	0	0	8151	621410	0	0
2024-07-09 10:23:32			0	36158	0	0	0	27916	26380	151853	27029	1038670	43819	110363	0	0	8153	620189	0	0
2024-07-09 10:24:32			0	36139	0	0	0	27916	26400	151765	27093	1038759	43821	110363	0	0	8152	620918	0	0
2024-07-09 10:25:32			0	36169	0	0	0	27919	26410	151665	27244	1038704	43812	110364	0	0	8154	619620	0	0
2024-07-09 10:26:32			0	36186	0	0	0	27919	26430	151589	27026	1038811	43813	110364	0	0	8154	618834	0	0
2024-07-09 10:27:32			0	36183	0	0	0	27927	26430	151661	27260	1038820	43825	110367	0	0	8154	618960	0	0
2024-07-09 10:28:32			0	36204	0	0	0	27922	26440	151589	26930	1038865	43826	110365	0	0	8155	618043	0	0
2024-07-09 10:29:32			0	36183	0	0	0	27914	26450	151649	27114	1038820	43815	110362	0	0	8155	618889	0	0
2024-07-09 10:30:32			0	36187	0	0	0	27898	26450	151593	26781	1038775	43815	110356	0	0	8155	618721	0	0
2024-07-09 10:31:32			0	36182	0	0	0	27885	26460	151721	27057	1038918	43805	110351	0	0	8155	618896	0	0
2024-07-09 10:32:32			0	36199	0	0	0	27890	26460	151581	26949	1038891	43828	110353	0	0	8156	618182	0	0
2024-07-09 10:33:32			0	36207	0	0	0	27880	26460	151381	26800	1038918	43816	110349	0	0	8156	617846	0	0
2024-07-09 10:34:32			0	36212	0	0	0	27888	26470	151305	27131	1038881	43817	110352	0	0	8157	617601	0	0
2024-07-09 10:35:32			0	36221	0	0	0	27893	26470	151385	27261	1038890	43817	110354	0	0	8157	617223	0	0
2024-07-09 10:36:32			0	36192	0	0	0	27893	26470	151381	26788	1038998	43817	110354	0	0	8155	618440	0	0
2024-07-09 10:37:32			0	36199	0	0	0	27903	26480	151469	27107	1038980	43796	110358	0	0	8156	618111	0	0
2024-07-09 10:38:32			0	36204	0	0	0	27901	26480	151341	26970	1038935	43807	110357	0	0	8156	617901	0	0
2024-07-09 10:39:32			0	36214	0	0	0	27903	26480	151365	27267	1038935	43818	110358	0	0	8156	617482	0	0
2024-07-09 10:40:32			0	36227	0	0	0	27896	26480	151373	27334	1038908	43807	110355	0	0	8157	616936	0	0
2024-07-09 10:41:32			0	36219	0	0	0	27870	26490	151409	27263	1038836	43808	110345	0	0	8157	617236	0	0
2024-07-09 10:42:32			0	36227	0	0	0	27841	26470	151361	27001	1038783	43806	110334	0	0	8158	616971	0	0
2024-07-09 10:43:32			0	36213	0	0	0	27812	26470	151429	27144	1038801	43806	110323	0	0	8158	617559	0	0
2024-07-09 10:44:32			0	36215	0	0	0	27807	26460	151301	27232	1038765	43794	110321	0	0	8158	617510	0	0
2024-07-09 10:45:32			0	36245	0	0	0	27799	26460	151261	27206	1038685	43805	110318	0	0	8160	616252	0	0
2024-07-09 10:46:32			0	36246	0	0	0	27784	26450	151233	27329	1038667	43793	110312	0	0	8160	616246	0	0
2024-07-09 10:47:32			0	36265	0	0	0	27779	26450	151093	27274	1038587	43793	110310	0	0	8161	615450	0	0
2024-07-09 10:48:32			0	36252	0	0	0	27771	26440	151073	27150	1038569	43792	110307	0	0	8161	616030	0	0
2024-07-09 10:49:32			0	36279	0	0	0	27768	26430	151145	26873	1038624	43801	110306	0	0	8162	614934	0	0
2024-07-09 10:50:32			0	36297	0	0	0	27763	26420	151053	27163	1038534	43791	110304	0	0	8163	614217	0	0
2024-07-09 10:51:32			0	36288	0	0	0	27758	26430	151049	26816	1038543	43791	110302	0	0	8163	614558	0	0
2024-07-09 10:52:32			0	36312	0	0	0	27742	26420	150953	27015	1038481	43791	110296	0	0	8164	613590	0	0
2024-07-09 10:53:32			0	36320	0	0	0	27750	26420	150977	26859	1038471	43800	110299	0	0	8164	613256	0	0
2024-07-09 10:54:32			0	36314	0	0	0	27735	26410	150949	27020	1038436	43800	110293	0	0	8164	613541	0	0
2024-07-09 10:55:32			0	36318	0	0	0	27724	26410	150873	26805	1038373	43789	110289	0	0	8165	613374	0	0
2024-07-09 10:56:32			0	36326	0	0	0	27688	26380	150937	26755	1038222	43764	110275	0	0	8166	613145	0	0
2024-07-09 10:57:32			0	36352	0	0	0	27677	26380	150881	27142	1038133	43775	110271	0	0	8167	612060	0	0
2024-07-09 10:58:32			0	36348	0	0	0	27646	26360	150773	27178	1038026	43763	110259	0	0	8167	612297	0	0
2024-07-09 10:59:32			0	36369	0	0	0	27628	26340	150729	27102	1037910	43782	110252	0	0	8169	611491	0	0
2024-07-09 11:00:32			0	36362	0	0	0	27615	26320	150669	27199	1037938	43782	110247	0	0	8168	611853	0	0
2024-07-09 11:01:32			0	36394	0	0	0	27620	26300	150697	27071	1037849	43779	110249	0	0	8170	610589	0	0
2024-07-09 11:02:32			0	36367	0	0	0	27620	26300	150717	27142	1037867	43767	110249	0	0	8168	611714	0	0
2024-07-09 11:03:32			0	36404	0	0	0	27599	26290	150709	27012	1037885	43767	110241	0	0	8171	610208	0	0
2024-07-09 11:04:32			0	36419	0	0	0	27584	26270	150685	27086	1037680	43753	110235	0	0	8172	609653	0	0
2024-07-09 11:05:32			0	36413	0	0	0	27566	26270	150565	27256	1037743	43765	110228	0	0	8172	609903	0	0
2024-07-09 11:06:32			0	36421	0	0	0	27561	26260	150533	27137	1037645	43764	110226	0	0	8172	609605	0	0
2024-07-09 11:07:32			0	36434	0	0	0	27563	26250	150589	27176	1037708	43774	110227	0	0	8173	609099	0	0
2024-07-09 11:08:32			0	36423	0	0	0	27592	26240	150617	27095	1037744	43784	110238	0	0	8172	609591	0	0
2024-07-09 11:09:32			0	36424	0	0	0	27612	26250	150637	27036	1037788	43774	110246	0	0	8171	609515	0	0
2024-07-09 11:10:32			0	36432	0	0	0	27607	26260	150673	26753	1037690	43764	110244	0	0	8172	609147	0	0
2024-07-09 11:11:32			0	36437	0	0	0	27592	26260	150613	26965	1037717	43775	110238	0	0	8172	608940	0	0
2024-07-09 11:12:32			0	36410	0	0	0	27586	26250	150673	26944	1037654	43763	110236	0	0	8171	610098	0	0
2024-07-09 11:13:32			0	36426	0	0	0	27563	26240	150601	27242	1037521	43750	110227	0	0	8172	609467	0	0
2024-07-09 11:14:32			0	36423	0	0	0	27527	26220	150645	27261	1037360	43749	110213	0	0	8173	609661	0	0
2024-07-09 11:15:32			0	36411	0	0	0	27496	26190	150669	26878	1037174	43735	110201	0	0	8172	610265	0	0
2024-07-09 11:16:32			0	36411	0	0	0	27457	26180	150773	27088	1037094	43733	110186	0	0	8173	610300	0	0
2024-07-09 11:17:32			0	36398	0	0	0	27449	26150	150873	27024	1036987	43730	110183	0	0	8172	610946	0	0
2024-07-09 11:18:32			0	36377	0	0	0	27418	26140	150961	27168	1036889	43741	110171	0	0	8172	611856	0	0
2024-07-09 11:19:32			0	36334	0	0	0	27389	26110	151053	27046	1036765	43738	110160	0	0	8170	613757	0	0
2024-07-09 11:20:32			0	36305	0	0	0	27376	26100	151269	27093	1036712	43737	110155	0	0	8168	615005	0	0
2024-07-09 11:21:32			0	36277	0	0	0	27368	26080	151381	26920	1036686	43747	110152	0	0	8167	616248	0	0
2024-07-09 11:22:32			0	36232	0	0	0	27348	26060	151693	27001	1036597	43733	110144	0	0	8165	618208	0	0
2024-07-09 11:23:32			0	36170	0	0	0	27340	26050	151813	27109	1036499	43732	110141	0	0	8162	620852	0	0
2024-07-09 11:24:32			0	36125	0	0	0	27340	26040	152041	26883	1036562	43730	110141	0	0	8159	622787	0	0
2024-07-09 11:25:32			0	36071	0	0	0	27345	26020	152257	27053	1036536	43741	110143	0	0	8156	625142	0	0
2024-07-09 11:26:32			0	36040	0	0	0	27345	26020	152501	26930	1036509	43751	110143	0	0	8155	626456	0	0
2024-07-09 11:27:32			0	35984	0	0	0	27358	26030	152653	27178	1036652	43752	110148	0	0	8152	628799	0	0
2024-07-09 11:28:32			0	35941	0	0	0	27366	26020	152825	27253	1036563	43751	110151	0	0	8149	630665	0	0
2024-07-09 11:29:32			0	35885	0	0	0	27373	26030	153065	26967	1036821	43764	110154	0	0	8146	633019	0	0
2024-07-09 11:30:32			0	35858	0	0	0	27407	26050	153161	26901	1036910	43755	110167	0	0	8144	634101	0	0
2024-07-09 11:31:32			0	35808	0	0	0	27405	26050	153384	26913	1036857	43766	110166	0	0	8142	636243	0	0
2024-07-09 11:32:32			0	35773	0	0	0	27423	26050	153548	27242	1036857	43789	110173	0	0	8139	637746	0	0
2024-07-09 11:33:32			0	35751	0	0	0	27451	26070	153688	26828	1037071	43779	110184	0	0	8138	638618	0	0
2024-07-09 11:34:32			0	35720	0	0	0	27480	26100	153760	27135	1037088	43792	110195	0	0	8136	639843	0	0
2024-07-09 11:35:32			0	35703	0	0	0	27532	26110	153932	26946	1037355	43793	110215	0	0	8134	640539	0	0
2024-07-09 11:36:32			0	35673	0	0	0	27524	26140	154088	27062	1037265	43763	110212	0	0	8133	641722	0	0
2024-07-09 11:37:32			0	35615	0	0	0	27522	26140	154092	26970	1037354	43775	110211	0	0	8130	644228	0	0
2024-07-09 11:38:32			0	35610	0	0	0	27529	26150	154304	27007	1037390	43764	110214	0	0	8129	644408	0	0
2024-07-09 11:39:32			0	35599	0	0	0	27540	26150	154260	26804	1037425	43775	110218	0	0	8129	644884	0	0
2024-07-09 11:40:32			0	35558	0	0	0	27561	26170	154416	27159	1037541	43788	110226	0	0	8126	646588	0	0
2024-07-09 11:41:32			0	35562	0	0	0	27589	26180	154544	26991	1037657	43789	110237	0	0	8126	646377	0	0
2024-07-09 11:42:32			0	35522	0	0	0	27636	26210	154616	26868	1037790	43792	110255	0	0	8123	648003	0	0
2024-07-09 11:43:32			0	35515	0	0	0	27675	26220	154716	26826	1037897	43816	110270	0	0	8122	648270	0	0
2024-07-09 11:44:32			0	35505	0	0	0	27727	26240	154572	26807	1038084	43828	110290	0	0	8121	648631	0	0
2024-07-09 11:45:32			0	35476	0	0	0	27768	26280	154688	27111	1038315	43821	110306	0	0	8119	649744	0	0
2024-07-09 11:46:32			0	35493	0	0	0	27807	26310	154664	27072	1038565	43825	110321	0	0	8119	648893	0	0
2024-07-09 11:47:32			0	35481	0	0	0	27883	26350	154764	26970	1038742	43839	110350	0	0	8117	649267	0	0
2024-07-09 11:48:32			0	35466	0	0	0	27914	26380	154756	27145	1038813	43820	110362	0	0	8116	649808	0	0
2024-07-09 11:49:32			0	35452	0	0	0	27924	26400	154756	27164	1038902	43822	110366	0	0	8115	650343	0	0
2024-07-09 11:50:32			0	35482	0	0	0	27927	26420	154736	27124	1038928	43812	110367	0	0	8117	648964	0	0
2024-07-09 11:51:32			0	35494	0	0	0	27937	26430	154652	27182	1038972	43813	110371	0	0	8118	648405	0	0
2024-07-09 11:52:32			0	35511	0	0	0	27948	26460	154568	27121	1039079	43828	110375	0	0	8118	647555	0	0
2024-07-09 11:53:32			0	35531	0	0	0	27958	26460	154384	27159	1039087	43816	110379	0	0	8119	646688	0	0
2024-07-09 11:54:32			0	35563	0	0	0	27984	26480	154216	27003	1039230	43840	110389	0	0	8121	645227	0	0
2024-07-09 11:55:32			0	35579	0	0	0	27984	26500	154156	26998	1039229	43820	110389	0	0	8122	644461	0	0
2024-07-09 11:56:32			0	35600	0	0	0	27986	26510	154088	27142	1039247	43810	110390	0	0	8123	643516	0	0
2024-07-09 11:57:32			0	35638	0	0	0	27992	26510	153880	27074	1039282	43821	110392	0	0	8125	641876	0	0
2024-07-09 11:58:32			0	35663	0	0	0	27997	26530	153740	26850	1039309	43812	110394	0	0	8126	640725	0	0
2024-07-09 11:59:32			0	35714	0	0	0	28018	26530	153648	27339	1039371	43833	110402	0	0	8128	638531	0	0
2024-07-09 12:00:32			0	35717	0	0	0	28025	26550	153584	27180	1039433	43826	110405	0	0	8128	638329	0	0
2024-07-09 12:01:32			0	35710	0	0	0	28033	26570	153504	27034	1039486	43828	110408	0	0	8128	638557	0	0
2024-07-09 12:02:32			0	35717	0	0	0	28036	26560	153592	26975	1039478	43827	110409	0	0	8128	638292	0	0
2024-07-09 12:03:32			0	35721	0	0	0	28038	26570	153500	26885	1039567	43838	110410	0	0	8129	638084	0	0
2024-07-09 12:04:32			0	35738	0	0	0	28049	26580	153388	27052	1039531	43828	110414	0	0	8129	637318	0	0
2024-07-09 12:05:32			0	35767	0	0	0	28051	26580	153292	27204	1039566	43817	110415	0	0	8131	636075	0	0
2024-07-09 12:06:32			0	35787	0	0	0	28067	26590	153228	27050	1039638	43840	110421	0	0	8132	635182	0	0
2024-07-09 12:07:32			0	35762	0	0	0	28093	26600	153348	27175	1039682	43831	110431	0	0	8130	636216	0	0
2024-07-09 12:08:32			0	35771	0	0	0	28090	26610	153324	27156	1039753	43842	110430	0	0	8130	635794	0	0
2024-07-09 12:09:32			0	35759	0	0	0	28072	26610	153196	27327	1039700	43842	110423	0	0	8130	636308	0	0
2024-07-09 12:10:32			0	35821	0	0	0	28064	26630	153136	27303	1039726	43822	110420	0	0	8134	633583	0	0
2024-07-09 12:11:32			0	35832	0	0	0	28049	26620	152960	27066	1039655	43820	110414	0	0	8134	633149	0	0
2024-07-09 12:12:32			0	35862	0	0	0	28038	26620	152857	27067	1039574	43809	110410	0	0	8136	631869	0	0
2024-07-09 12:13:32			0	35866	0	0	0	28031	26610	152801	27282	1039619	43832	110407	0	0	8137	631735	0	0
2024-07-09 12:14:32			0	35865	0	0	0	28031	26610	152817	26928	1039592	43820	110407	0	0	8136	631777	0	0
2024-07-09 12:15:32			0	35867	0	0	0	28033	26610	152820	26866	1039592	43820	110408	0	0	8137	631692	0	0
2024-07-09 12:16:32			0	35889	0	0	0	28038	26610	152693	27086	1039583	43832	110410	0	0	8138	630755	0	0
2024-07-09 12:17:32			0	35873	0	0	0	28054	26620	152653	27312	1039655	43820	110416	0	0	8137	631400	0	0
2024-07-09 12:18:32			0	35898	0	0	0	28070	26630	152641	26996	1039779	43833	110422	0	0	8138	630300	0	0
2024-07-09 12:19:32			0	35903	0	0	0	28085	26630	152593	27074	1039842	43845	110428	0	0	8138	630087	0	0
2024-07-09 12:20:32			0	35892	0	0	0	28114	26640	152605	27196	1039967	43845	110439	0	0	8137	630519	0	0
2024-07-09 12:21:32			0	35901	0	0	0	28135	26660	152673	27079	1040011	43847	110447	0	0	8137	630064	0	0
2024-07-09 12:22:32			0	35905	0	0	0	28150	26670	152557	26769	1040092	43836	110453	0	0	8137	629858	0	0
2024-07-09 12:23:32			0	35919	0	0	0	28161	26680	152493	27249	1040163	43837	110457	0	0	8137	629226	0	0
2024-07-09 12:24:32			0	35933	0	0	0	28186	26690	152421	27333	1040225	43837	110467	0	0	8138	628595	0	0
2024-07-09 12:25:32			0	35958	0	0	0	28184	26710	152317	27284	1040189	43840	110466	0	0	8139	627462	0	0
2024-07-09 12:26:32			0	35989	0	0	0	28186	26710	152193	26875	1040260	43840	110467	0	0	8141	626148	0	0
2024-07-09 12:27:32			0	36003	0	0	0	28202	26720	152169	27092	1040340	43853	110473	0	0	8141	625520	0	0
2024-07-09 12:28:32			0	36017	0	0	0	28215	26730	151953	27260	1040403	43842	110478	0	0	8142	624891	0	0
2024-07-09 12:29:32			0	36050	0	0	0	28236	26750	151957	27237	1040465	43855	110486	0	0	8143	623425	0	0
2024-07-09 12:30:32			0	36087	0	0	0	28241	26760	151897	27069	1040518	43869	110488	0	0	8145	621829	0	0
2024-07-09 12:31:32			0	36155	0	0	0	28244	26770	151581	27331	1040553	43847	110489	0	0	8149	618932	0	0
2024-07-09 12:32:32			0	36196	0	0	0	28254	26780	151337	27249	1040544	43847	110493	0	0	8151	617177	0	0
2024-07-09 12:33:32			0	36257	0	0	0	28267	26780	151149	27289	1040598	43869	110498	0	0	8154	614623	0	0
2024-07-09 12:34:32			0	36284	0	0	0	28272	26790	150901	27197	1040732	43860	110500	0	0	8155	613460	0	0
2024-07-09 12:35:32			0	36323	0	0	0	28285	26810	150745	27300	1040731	43850	110505	0	0	8157	611763	0	0
2024-07-09 12:36:32			0	36352	0	0	0	28272	26810	150613	27263	1040624	43829	110500	0	0	8159	610556	0	0
2024-07-09 12:37:32			0	36397	0	0	0	28257	26800	150457	26939	1040580	43837	110494	0	0	8161	608721	0	0
2024-07-09 12:38:32			0	36431	0	0	0	28233	26800	150373	27284	1040535	43850	110485	0	0	8164	607310	0	0
2024-07-09 12:39:32			0	36437	0	0	0	28236	26800	150209	27282	1040588	43838	110486	0	0	8164	607062	0	0
2024-07-09 12:40:32			0	36454	0	0	0	28236	26800	150129	27284	1040642	43861	110486	0	0	8165	606358	0	0
2024-07-09 12:41:32			0	36467	0	0	0	28228	26820	150221	27341	1040641	43862	110483	0	0	8166	605750	0	0
2024-07-09 12:42:32			0	36452	0	0	0	28220	26810	150189	27353	1040651	43850	110480	0	0	8165	606406	0	0
2024-07-09 12:43:32			0	36436	0	0	0	28194	26800	150193	27242	1040499	43837	110470	0	0	8165	607103	0	0
2024-07-09 12:44:32			0	36430	0	0	0	28179	26790	150189	27289	1040427	43827	110464	0	0	8164	607387	0	0
2024-07-09 12:45:32			0	36411	0	0	0	28163	26780	150385	27230	1040392	43836	110458	0	0	8164	608209	0	0
2024-07-09 12:46:32			0	36397	0	0	0	28153	26770	150449	27048	1040321	43825	110454	0	0	8163	608825	0	0
2024-07-09 12:47:32			0	36379	0	0	0	28142	26770	150537	27001	1040321	43835	110450	0	0	8162	609573	0	0
2024-07-09 12:48:32			0	36358	0	0	0	28135	26760	150557	27293	1040240	43833	110447	0	0	8161	610481	0	0
2024-07-09 12:49:32			0	36346	0	0	0	28129	26760	150717	27109	1040240	43845	110445	0	0	8161	610981	0	0
2024-07-09 12:50:32			0	36358	0	0	0	28129	26750	150709	27322	1040196	43833	110445	0	0	8161	610516	0	0
2024-07-09 12:51:32			0	36363	0	0	0	28124	26740	150665	27312	1040214	43833	110443	0	0	8162	610343	0	0
2024-07-09 12:52:32			0	36372	0	0	0	28127	26740	150705	26955	1040214	43844	110444	0	0	8162	609969	0	0
2024-07-09 12:53:32			0	36387	0	0	0	28129	26750	150589	27177	1040304	43822	110445	0	0	8163	609311	0	0
2024-07-09 12:54:32			0	36381	0	0	0	28132	26740	150657	27286	1040268	43844	110446	0	0	8162	609595	0	0
2024-07-09 12:55:32			0	36376	0	0	0	28140	26740	150521	27124	1040259	43843	110449	0	0	8162	609803	0	0
2024-07-09 12:56:32			0	36386	0	0	0	28132	26740	150477	27050	1040241	43833	110446	0	0	8163	609387	0	0
2024-07-09 12:57:32			0	36425	0	0	0	28142	26740	150405	27208	1040259	43843	110450	0	0	8165	607768	0	0
2024-07-09 12:58:32			0	36424	0	0	0	28135	26740	150369	27405	1040241	43844	110447	0	0	8165	607809	0	0
2024-07-09 12:59:32			0	36431	0	0	0	28137	26730	150313	27154	1040215	43842	110448	0	0	8165	607554	0	0
2024-07-09 13:00:32			0	36467	0	0	0	28114	26730	150285	27149	1040188	43842	110439	0	0	8167	606062	0	0
2024-07-09 13:01:32			0	36482	0	0	0	28114	26720	150257	27229	1040170	43841	110439	0	0	8168	605476	0	0
2024-07-09 13:02:32			0	36502	0	0	0	28114	26720	150137	26930	1040099	43842	110439	0	0	8169	604649	0	0
2024-07-09 13:03:32			0	36515	0	0	0	28103	26720	149921	27147	1040090	43831	110435	0	0	8170	604112	0	0
2024-07-09 13:04:32			0	36525	0	0	0	28088	26710	149897	27187	1039965	43830	110429	0	0	8171	603734	0	0
2024-07-09 13:05:32			0	36513	0	0	0	28085	26700	149865	27178	1039974	43817	110428	0	0	8170	604264	0	0
2024-07-09 13:06:32			0	36535	0	0	0	28077	26700	149841	26934	1039894	43829	110425	0	0	8171	603356	0	0
2024-07-09 13:07:32			0	36556	0	0	0	28057	26680	149853	26963	1039867	43815	110417	0	0	8173	602558	0	0
2024-07-09 13:08:32			0	36551	0	0	0	28049	26670	149813	27026	1039769	43826	110414	0	0	8172	602799	0	0
2024-07-09 13:09:32			0	36570	0	0	0	28031	26660	149753	27007	1039796	43825	110407	0	0	8174	602050	0	0
2024-07-09 13:10:32			0	36568	0	0	0	28028	26660	149801	27215	1039725	43835	110406	0	0	8174	602132	0	0
2024-07-09 13:11:32			0	36576	0	0	0	28023	26640	149713	27353	1039752	43833	110404	0	0	8174	601872	0	0
2024-07-09 13:12:32			0	36582	0	0	0	28018	26630	149669	26963	1039654	43823	110402	0	0	8174	601659	0	0
2024-07-09 13:13:32			0	36580	0	0	0	28025	26640	149809	26991	1039698	43812	110405	0	0	8174	601707	0	0
2024-07-09 13:14:32			0	36574	0	0	0	28015	26630	149693	27190	1039654	43823	110401	0	0	8174	601989	0	0
2024-07-09 13:15:32			0	36582	0	0	0	28015	26620	149765	27319	1039628	43832	110401	0	0	8174	601693	0	0
2024-07-09 13:16:32			0	36569	0	0	0	28010	26640	149773	27277	1039636	43823	110399	0	0	8174	602160	0	0
2024-07-09 13:17:32			0	36571	0	0	0	28018	26610	149657	27455	1039619	43832	110402	0	0	8174	602181	0	0
2024-07-09 13:18:32			0	36598	0	0	0	28002	26620	149681	27293	1039601	43832	110396	0	0	8175	601034	0	0
2024-07-09 13:19:32			0	36588	0	0	0	28002	26620	149841	27147	1039628	43842	110396	0	0	8175	601446	0	0
2024-07-09 13:20:32			0	36595	0	0	0	28005	26610	149865	27376	1039583	43832	110397	0	0	8175	601192	0	0
2024-07-09 13:21:32			0	36595	0	0	0	28005	26610	149770	27255	1039592	43809	110397	0	0	8175	601192	0	0
2024-07-09 13:22:32			0	36592	0	0	0	27997	26600	149793	27327	1039521	43808	110394	0	0	8175	601350	0	0
2024-07-09 13:23:32			0	36587	0	0	0	27986	26600	149781	27533	1039539	43818	110390	0	0	8175	601556	0	0
2024-07-09 13:24:32			0	36601	0	0	0	27984	26600	149822	27286	1039432	43818	110389	0	0	8176	600980	0	0
2024-07-09 13:25:32			0	36575	0	0	0	27961	26590	149769	27029	1039441	43818	110380	0	0	8175	602085	0	0
2024-07-09 13:26:32			0	36589	0	0	0	27966	26580	149865	27069	1039343	43816	110382	0	0	8175	601543	0	0
2024-07-09 13:27:32			0	36599	0	0	0	27950	26580	149814	27237	1039352	43829	110376	0	0	8176	601131	0	0
2024-07-09 13:28:32			0	36594	0	0	0	27953	26580	149817	27005	1039370	43816	110377	0	0	8176	601337	0	0
2024-07-09 13:29:32			0	36590	0	0	0	27961	26570	149770	27301	1039379	43816	110380	0	0	8176	601536	0	0
2024-07-09 13:30:32			0	36580	0	0	0	27945	26570	149897	26989	1039352	43828	110374	0	0	8175	601948	0	0
2024-07-09 13:31:32			0	36584	0	0	0	27937	26570	149941	27249	1039298	43816	110371	0	0	8176	601783	0	0
2024-07-09 13:32:32			0	36581	0	0	0	27945	26560	149949	26821	1039281	43826	110374	0	0	8175	601941	0	0
2024-07-09 13:33:32			0	36576	0	0	0	27942	26550	149893	27301	1039299	43803	110373	0	0	8175	602182	0	0
2024-07-09 13:34:32			0	36573	0	0	0	27945	26550	150009	27322	1039237	43825	110374	0	0	8175	602305	0	0
2024-07-09 13:35:32			0	36571	0	0	0	27937	26560	149949	27008	1039281	43815	110371	0	0	8175	602354	0	0
2024-07-09 13:36:32			0	36548	0	0	0	27932	26540	149997	27204	1039335	43814	110369	0	0	8174	603371	0	0
2024-07-09 13:37:32			0	36559	0	0	0	27937	26540	150013	27222	1039219	43824	110371	0	0	8174	602917	0	0
2024-07-09 13:38:32			0	36533	0	0	0	27935	26540	150037	27248	1039255	43825	110370	0	0	8173	603991	0	0
2024-07-09 13:39:32			0	36538	0	0	0	27929	26540	150057	27105	1039272	43834	110368	0	0	8173	603784	0	0
2024-07-09 13:40:32			0	36515	0	0	0	27935	26540	150145	26826	1039282	43835	110370	0	0	8172	604735	0	0
2024-07-09 13:41:32			0	36510	0	0	0	27940	26540	150165	27078	1039335	43835	110372	0	0	8172	604942	0	0
2024-07-09 13:42:32			0	36513	0	0	0	27945	26550	150221	27215	1039344	43825	110374	0	0	8172	604783	0	0
2024-07-09 13:43:32			0	36506	0	0	0	27948	26550	150293	27230	1039398	43825	110375	0	0	8171	605072	0	0
2024-07-09 13:44:32			0	36478	0	0	0	27966	26560	150257	27334	1039415	43836	110382	0	0	8170	606197	0	0
2024-07-09 13:45:32			0	36459	0	0	0	27976	26560	150337	27216	1039469	43826	110386	0	0	8168	606984	0	0
2024-07-09 13:46:32			0	36461	0	0	0	27976	26570	150381	27436	1039522	43816	110386	0	0	8169	606866	0	0
2024-07-09 13:47:32			0	36467	0	0	0	27981	26570	150349	27315	1039433	43838	110388	0	0	8169	606618	0	0
2024-07-09 13:48:32			0	36430	0	0	0	27986	26560	150469	27048	1039442	43826	110390	0	0	8167	608187	0	0
2024-07-09 13:49:32			0	36423	0	0	0	27986	26580	150525	27228	1039504	43828	110390	0	0	8166	608408	0	0
2024-07-09 13:50:32			0	36406	0	0	0	27994	26580	150425	27215	1039504	43838	110393	0	0	8165	609114	0	0
2024-07-09 13:51:32			0	36398	0	0	0	28002	26590	150613	27518	1039602	43830	110396	0	0	8165	609412	0	0
2024-07-09 13:52:32			0	36384	0	0	0	28007	26590	150537	26986	1039575	43840	110398	0	0	8164	609994	0	0
2024-07-09 13:53:32			0	36389	0	0	0	28010	26590	150649	27204	1039611	43840	110399	0	0	8164	609786	0	0
2024-07-09 13:54:32			0	36355	0	0	0	28049	26600	150749	27203	1039754	43851	110414	0	0	8162	611166	0	0
2024-07-09 13:55:32			0	36340	0	0	0	28075	26620	150861	27194	1039851	43843	110424	0	0	8161	611721	0	0
2024-07-09 13:56:32			0	36333	0	0	0	28085	26620	150773	27284	1039932	43866	110428	0	0	8160	612012	0	0
2024-07-09 13:57:32			0	36310	0	0	0	28085	26650	150833	26812	1039868	43846	110428	0	0	8159	612866	0	0
2024-07-09 13:58:32			0	36331	0	0	0	28083	26650	150957	27192	1039895	43834	110427	0	0	8160	611991	0	0
2024-07-09 13:59:32			0	36301	0	0	0	28085	26650	150953	27298	1039976	43834	110428	0	0	8159	613242	0	0
2024-07-09 14:00:32			0	36287	0	0	0	28080	26660	150981	27338	1039913	43825	110426	0	0	8158	613792	0	0
2024-07-09 14:01:32			0	36272	0	0	0	28080	26660	150989	27390	1040065	43847	110426	0	0	8157	614418	0	0
2024-07-09 14:02:32			0	36271	0	0	0	28080	26680	151057	27173	1040163	43849	110426	0	0	8157	614390	0	0
2024-07-09 14:03:32			0	36258	0	0	0	28109	26690	151061	27208	1040180	43861	110437	0	0	8156	614898	0	0
2024-07-09 14:04:32			0	36245	0	0	0	28114	26690	151201	27270	1040145	43837	110439	0	0	8155	615442	0	0
2024-07-09 14:05:32			0	36260	0	0	0	28098	26690	151253	27156	1040064	43827	110433	0	0	8156	614815	0	0
2024-07-09 14:06:32			0	36239	0	0	0	28077	26680	151305	27441	1039948	43815	110425	0	0	8156	615728	0	0
2024-07-09 14:07:32			0	36210	0	0	0	28051	26660	151289	27119	1039805	43825	110415	0	0	8155	617014	0	0
2024-07-09 14:08:32			0	36190	0	0	0	28036	26660	151353	27215	1039743	43814	110409	0	0	8154	617853	0	0
2024-07-09 14:09:32			0	36221	0	0	0	28007	26630	151393	27124	1039618	43799	110398	0	0	8156	616658	0	0
2024-07-09 14:10:32			0	36217	0	0	0	27997	26620	151361	27222	1039636	43798	110394	0	0	8156	616861	0	0
2024-07-09 14:11:32			0	36191	0	0	0	27979	26600	151373	26902	1039575	43819	110387	0	0	8154	618023	0	0
2024-07-09 14:12:32			0	36177	0	0	0	27976	26610	151457	27298	1039485	43820	110386	0	0	8154	618575	0	0
2024-07-09 14:13:32			0	36156	0	0	0	27971	26600	151541	27187	1039521	43819	110384	0	0	8153	619493	0	0
2024-07-09 14:14:32			0	36150	0	0	0	27958	26590	151581	27275	1039503	43830	110379	0	0	8153	619781	0	0
2024-07-09 14:15:32			0	36146	0	0	0	27968	26600	151461	27194	1039539	43830	110383	0	0	8152	619914	0	0
2024-07-09 14:16:32			0	36154	0	0	0	27958	26590	151633	27343	1039503	43818	110379	0	0	8153	619613	0	0
2024-07-09 14:17:32			0	36133	0	0	0	27974	26590	151713	27171	1039575	43818	110385	0	0	8151	620496	0	0
2024-07-09 14:18:32			0	36127	0	0	0	27974	26590	151633	27029	1039548	43807	110385	0	0	8151	620749	0	0
2024-07-09 14:19:32			0	36110	0	0	0	27976	26600	151665	27112	1039566	43830	110386	0	0	8150	621429	0	0
2024-07-09 14:20:32			0	36108	0	0	0	27974	26590	151745	27124	1039495	43807	110385	0	0	8150	621549	0	0
2024-07-09 14:21:32			0	36117	0	0	0	27971	26590	151833	26689	1039495	43830	110384	0	0	8151	621170	0	0
2024-07-09 14:22:32			0	36107	0	0	0	27971	26580	151837	26941	1039450	43816	110384	0	0	8150	621627	0	0
2024-07-09 14:23:32			0	36100	0	0	0	27968	26580	151745	27048	1039459	43817	110383	0	0	8150	621922	0	0
2024-07-09 14:24:32			0	36096	0	0	0	27968	26580	151845	27204	1039486	43839	110383	0	0	8150	622090	0	0
2024-07-09 14:25:32			0	36101	0	0	0	27963	26580	151821	27034	1039486	43817	110381	0	0	8150	621880	0	0
2024-07-09 14:26:32			0	36101	0	0	0	27976	26570	151885	26764	1039468	43816	110386	0	0	8150	621915	0	0
2024-07-09 14:27:32			0	36068	0	0	0	27986	26580	151857	27147	1039638	43850	110390	0	0	8148	623272	0	0
2024-07-09 14:28:32			0	36062	0	0	0	28077	26610	151925	26857	1039968	43875	110425	0	0	8146	623418	0	0
2024-07-09 14:29:32			0	36068	0	0	0	28114	26630	152013	27298	1040021	43855	110439	0	0	8146	623094	0	0
2024-07-09 14:30:32			0	36058	0	0	0	28132	26640	152093	27229	1040047	43856	110446	0	0	8145	623480	0	0
2024-07-09 14:31:32			0	36054	0	0	0	28194	26680	152037	27053	1040449	43904	110470	0	0	8144	623506	0	0
2024-07-09 14:32:32			0	36048	0	0	0	28205	26710	151997	27105	1040314	43851	110474	0	0	8144	623653	0	0
2024-07-09 14:33:32			0	36043	0	0	0	28176	26710	152013	27365	1040287	43818	110463	0	0	8144	623864	0	0
2024-07-09 14:34:32			0	36039	0	0	0	28171	26720	151989	26956	1040340	43853	110461	0	0	8144	623997	0	0
2024-07-09 14:35:32			0	36037	0	0	0	28150	26720	152045	27053	1040251	43819	110453	0	0	8144	624082	0	0
2024-07-09 14:36:32			0	36042	0	0	0	28129	26720	151933	27150	1040278	43841	110445	0	0	8145	623870	0	0
2024-07-09 14:37:32			0	36025	0	0	0	28103	26700	151997	26942	1040117	43830	110435	0	0	8144	624660	0	0
2024-07-09 14:38:32			0	36035	0	0	0	28088	26700	152057	27003	1040082	43829	110429	0	0	8145	624238	0	0
2024-07-09 14:39:32			0	36008	0	0	0	28083	26700	151997	27013	1040144	43851	110427	0	0	8144	625380	0	0
2024-07-09 14:40:32			0	36039	0	0	0	28109	26710	151973	26937	1040376	43874	110437	0	0	8145	624033	0	0
2024-07-09 14:41:32			0	36045	0	0	0	28176	26730	152053	27229	1040564	43875	110463	0	0	8144	623708	0	0
2024-07-09 14:42:32			0	36018	0	0	0	28238	26760	152105	26984	1040733	43890	110487	0	0	8142	624742	0	0
2024-07-09 14:43:32			0	35998	0	0	0	28254	26790	152097	27218	1040813	43882	110493	0	0	8141	625480	0	0
2024-07-09 14:44:32			0	36015	0	0	0	28264	26810	152085	27043	1040893	43862	110497	0	0	8141	624690	0	0
2024-07-09 14:45:32			0	36008	0	0	0	28264	26820	152041	27128	1040856	43862	110497	0	0	8141	624950	0	0
2024-07-09 14:46:32			0	35979	0	0	0	28309	26830	152101	27066	1041178	43885	110514	0	0	8139	626141	0	0
2024-07-09 14:47:32			0	35996	0	0	0	28394	26880	152125	27098	1041445	43902	110547	0	0	8138	625243	0	0
2024-07-09 14:48:32			0	35997	0	0	0	28405	26910	152169	27215	1041534	43883	110551	0	0	8138	625093	0	0
2024-07-09 14:49:32			0	35977	0	0	0	28415	26930	152153	27202	1041515	43884	110555	0	0	8137	625867	0	0
2024-07-09 14:50:32			0	35974	0	0	0	28410	26950	152129	27204	1041452	43864	110553	0	0	8137	625922	0	0
2024-07-09 14:51:32			0	35987	0	0	0	28371	26940	151953	27218	1041363	43852	110538	0	0	8139	625408	0	0
2024-07-09 14:52:32			0	35989	0	0	0	28329	26940	152017	27552	1041443	43841	110522	0	0	8139	625324	0	0
2024-07-09 14:53:32			0	36002	0	0	0	28342	26940	152021	26913	1041470	43885	110527	0	0	8140	624774	0	0
2024-07-09 14:54:32			0	36009	0	0	0	28514	26970	151965	27192	1041872	43911	110593	0	0	8138	624371	0	0
2024-07-09 14:55:32			0	36012	0	0	0	28797	27020	152061	27234	1042229	43916	110702	0	0	8133	624065	0	0
2024-07-09 14:56:32			0	36080	0	0	0	28771	27060	151805	27216	1042407	43930	110692	0	0	8137	621055	0	0
2024-07-09 14:57:32			0	36097	0	0	0	28820	27100	151633	27055	1042665	43946	110711	0	0	8138	620198	0	0
2024-07-09 14:58:32			0	36094	0	0	0	28823	27150	151529	27128	1043013	43951	110712	0	0	8138	620146	0	0
2024-07-09 14:59:32			0	36092	0	0	0	28859	27200	151473	26942	1043271	43944	110726	0	0	8137	620052	0	0
2024-07-09 15:00:32			0	36107	0	0	0	28779	27240	151337	27126	1043351	43915	110695	0	0	8139	619279	0	0
2024-07-09 15:01:32			0	36123	0	0	0	28742	27280	151333	26928	1043528	43940	110681	0	0	8141	618466	0	0
2024-07-09 15:02:32			0	36123	0	0	0	28683	27300	151145	26814	1043411	43920	110658	0	0	8142	618395	0	0
2024-07-09 15:03:32			0	36127	0	0	0	28503	27300	150973	27320	1043277	43899	110589	0	0	8145	618227	0	0
2024-07-09 15:04:32			0	36138	0	0	0	28610	27330	151005	27306	1043348	43889	110630	0	0	8144	617659	0	0
2024-07-09 15:05:32			0	36133	0	0	0	28540	27340	150953	27192	1043446	43901	110603	0	0	8145	617833	0	0
2024-07-09 15:06:32			0	36130	0	0	0	28438	27330	150929	27422	1043141	43867	110564	0	0	8147	617995	0	0
2024-07-09 15:07:32			0	36138	0	0	0	28405	27320	150937	27228	1043061	43877	110551	0	0	8148	617695	0	0
2024-07-09 15:08:32			0	36153	0	0	0	28584	27320	150933	27336	1043088	43855	110620	0	0	8145	617066	0	0
2024-07-09 15:09:32			0	36143	0	0	0	28615	27300	150981	27268	1043116	43865	110632	0	0	8144	617556	0	0
2024-07-09 15:10:32			0	36144	0	0	0	28625	27310	151025	27074	1043017	43887	110636	0	0	8144	617479	0	0
2024-07-09 15:11:32			0	36163	0	0	0	28355	27280	150941	26993	1042731	43841	110532	0	0	8150	616790	0	0
2024-07-09 15:12:32			0	36185	0	0	0	28374	27250	150861	27090	1042571	43837	110539	0	0	8150	615975	0	0
2024-07-09 15:13:32			0	36171	0	0	0	28555	27250	150777	27187	1042669	43870	110609	0	0	8147	616561	0	0
2024-07-09 15:14:32			0	36198	0	0	0	28573	27240	150845	27164	1042741	43870	110616	0	0	8148	615467	0	0
2024-07-09 15:15:32			0	36205	0	0	0	28540	27240	150825	27038	1042706	43881	110603	0	0	8149	615174	0	0
2024-07-09 15:16:32			0	36226	0	0	0	28586	27240	150777	27046	1042714	43881	110621	0	0	8149	614297	0	0
2024-07-09 15:17:32			0	36227	0	0	0	28545	27230	150677	26975	1042688	43868	110605	0	0	8150	614290	0	0
2024-07-09 15:18:32			0	36232	0	0	0	28524	27240	150677	27258	1042706	43870	110597	0	0	8150	614047	0	0
2024-07-09 15:19:32			0	36239	0	0	0	28581	27230	150701	27112	1042697	43880	110619	0	0	8150	613790	0	0
2024-07-09 15:20:32			0	36239	0	0	0	28586	27230	150645	27135	1042670	43880	110621	0	0	8150	613790	0	0
2024-07-09 15:21:32			0	36256	0	0	0	28584	27230	150701	27239	1042769	43868	110620	0	0	8150	613081	0	0
2024-07-09 15:22:32			0	36239	0	0	0	28599	27240	150585	27104	1042759	43892	110626	0	0	8149	613754	0	0
2024-07-09 15:23:32			0	36241	0	0	0	28571	27230	150533	27079	1042751	43880	110615	0	0	8150	613706	0	0
2024-07-09 15:24:32			0	36248	0	0	0	28579	27230	150665	27102	1042724	43880	110618	0	0	8150	613414	0	0
2024-07-09 15:25:32			0	36211	0	0	0	28594	27230	150793	27081	1042769	43868	110624	0	0	8148	614959	0	0
2024-07-09 15:26:32			0	36193	0	0	0	28597	27230	150917	27348	1042751	43891	110625	0	0	8147	615711	0	0
2024-07-09 15:27:32			0	36155	0	0	0	28537	27240	151061	26998	1042759	43881	110602	0	0	8146	617266	0	0
2024-07-09 15:28:32			0	36124	0	0	0	28454	27230	151185	27095	1042724	43869	110570	0	0	8146	618601	0	0
2024-07-09 15:29:32			0	36123	0	0	0	28470	27240	151181	27116	1042706	43892	110576	0	0	8145	618608	0	0
2024-07-09 15:30:32			0	36112	0	0	0	28441	27230	151141	27114	1042634	43879	110565	0	0	8145	619105	0	0
2024-07-09 15:31:32			0	36110	0	0	0	28420	27230	151161	26811	1042562	43880	110557	0	0	8146	619189	0	0
2024-07-09 15:32:32			0	36139	0	0	0	28386	27210	151021	27053	1042473	43856	110544	0	0	8148	618043	0	0
2024-07-09 15:33:32			0	36134	0	0	0	28277	27210	151057	27156	1042285	43856	110502	0	0	8149	618253	0	0
2024-07-09 15:34:32			0	36146	0	0	0	28215	27180	151057	27100	1042045	43831	110478	0	0	8151	617856	0	0
2024-07-09 15:35:32			0	36166	0	0	0	28179	27140	150985	27192	1041795	43816	110464	0	0	8152	617160	0	0
2024-07-09 15:36:32			0	36146	0	0	0	28135	27110	151089	26863	1041554	43801	110447	0	0	8152	618105	0	0
2024-07-09 15:37:32			0	36146	0	0	0	28101	27070	151153	27104	1041394	43797	110434	0	0	8152	618246	0	0
2024-07-09 15:38:32			0	36140	0	0	0	28093	27040	151149	27017	1041315	43806	110431	0	0	8152	618605	0	0
2024-07-09 15:39:32			0	36145	0	0	0	28062	27000	151145	27057	1041145	43802	110419	0	0	8152	618537	0	0
2024-07-09 15:40:32			0	36145	0	0	0	28020	26970	151161	26906	1041012	43811	110403	0	0	8153	618643	0	0
2024-07-09 15:41:32			0	36162	0	0	0	28025	26950	151109	27435	1040897	43809	110405	0	0	8154	618001	0	0
2024-07-09 15:42:32			0	36181	0	0	0	28010	26920	151089	27293	1040772	43817	110399	0	0	8155	617310	0	0
2024-07-09 15:43:32			0	36199	0	0	0	28023	26900	151105	26946	1040764	43815	110404	0	0	8155	616627	0	0
2024-07-09 15:44:32			0	36214	0	0	0	27981	26880	151017	26939	1040621	43813	110388	0	0	8157	616069	0	0
2024-07-09 15:45:32			0	36218	0	0	0	27919	26870	150937	26679	1040541	43812	110364	0	0	8158	615937	0	0
2024-07-09 15:46:32			0	36251	0	0	0	27919	26840	150889	26814	1040408	43797	110364	0	0	8160	614663	0	0
2024-07-09 15:47:32			0	36264	0	0	0	27833	26820	150725	26920	1040301	43796	110331	0	0	8162	614190	0	0
2024-07-09 15:48:32			0	36284	0	0	0	27789	26800	150741	27067	1039971	43772	110314	0	0	8163	613425	0	0
2024-07-09 15:49:32			0	36277	0	0	0	27729	26750	150561	27100	1039829	43755	110291	0	0	8164	613893	0	0
2024-07-09 15:50:32			0	36288	0	0	0	27740	26710	150645	27001	1039598	43774	110295	0	0	8164	613574	0	0
2024-07-09 15:51:32			0	36312	0	0	0	27714	26680	150601	27209	1039456	43760	110285	0	0	8166	612678	0	0
2024-07-09 15:52:32			0	36314	0	0	0	27716	26640	150689	26908	1039314	43767	110286	0	0	8166	612735	0	0
2024-07-09 15:53:32			0	36303	0	0	0	27724	26620	150681	27190	1039368	43777	110289	0	0	8165	613264	0	0
2024-07-09 15:54:32			0	36303	0	0	0	27758	26590	150893	27076	1039342	43774	110302	0	0	8164	613369	0	0
2024-07-09 15:55:32			0	36283	0	0	0	27781	26590	150985	27020	1039396	43796	110311	0	0	8163	614205	0	0
2024-07-09 15:56:32			0	36303	0	0	0	27802	26590	151025	26923	1039387	43796	110319	0	0	8163	613369	0	0
2024-07-09 15:57:32			0	36278	0	0	0	27792	26590	150965	26949	1039396	43796	110315	0	0	8162	614414	0	0
2024-07-09 15:58:32			0	36285	0	0	0	27818	26580	150977	26639	1039432	43806	110325	0	0	8162	614156	0	0
2024-07-09 15:59:32			0	36292	0	0	0	27828	26590	150977	27154	1039495	43796	110329	0	0	8162	613829	0	0
2024-07-09 16:00:32			0	36282	0	0	0	27823	26590	150953	27008	1039548	43807	110327	0	0	8162	614246	0	0
2024-07-09 16:01:32			0	36285	0	0	0	27818	26590	151053	26831	1039557	43796	110325	0	0	8162	614121	0	0
2024-07-09 16:02:32			0	36290	0	0	0	27802	26600	150925	26767	1039485	43796	110319	0	0	8163	613877	0	0
2024-07-09 16:03:32			0	36291	0	0	0	27810	26600	150997	26951	1039378	43774	110322	0	0	8163	613835	0	0
2024-07-09 16:04:32			0	36294	0	0	0	27797	26590	151025	26850	1039414	43796	110317	0	0	8163	613745	0	0
2024-07-09 16:05:32			0	36278	0	0	0	27823	26590	150961	27168	1039521	43796	110327	0	0	8162	614414	0	0
2024-07-09 16:06:32			0	36281	0	0	0	27870	26590	151097	27071	1039656	43818	110345	0	0	8161	614288	0	0
2024-07-09 16:07:32			0	36282	0	0	0	27893	26610	151061	26982	1039780	43820	110354	0	0	8161	614176	0	0
2024-07-09 16:08:32			0	36272	0	0	0	27940	26620	151121	27258	1039851	43821	110372	0	0	8159	614559	0	0
2024-07-09 16:09:32			0	36272	0	0	0	28028	26630	151165	27095	1040003	43823	110406	0	0	8158	614524	0	0
2024-07-09 16:10:32			0	36258	0	0	0	28101	26670	151241	27145	1040333	43836	110434	0	0	8156	614969	0	0
2024-07-09 16:11:32			0	36263	0	0	0	28096	26700	151177	26987	1040458	43829	110432	0	0	8157	614654	0	0
2024-07-09 16:12:32			0	36271	0	0	0	28049	26720	151121	27185	1040466	43831	110414	0	0	8158	614249	0	0
2024-07-09 16:13:32			0	36279	0	0	0	28023	26750	151025	27124	1040527	43844	110404	0	0	8159	613810	0	0
2024-07-09 16:14:32			0	36283	0	0	0	28064	26770	151001	27034	1040858	43847	110420	0	0	8159	613572	0	0
2024-07-09 16:15:32			0	36258	0	0	0	28186	26830	150909	27140	1041250	43864	110467	0	0	8156	614405	0	0
2024-07-09 16:16:32			0	36258	0	0	0	28602	26870	151089	26923	1041490	43879	110627	0	0	8149	614264	0	0
2024-07-09 16:17:32			0	36229	0	0	0	28740	26910	151309	27022	1041766	43882	110680	0	0	8145	615336	0	0
2024-07-09 16:18:32			0	36253	0	0	0	28703	26970	151185	26830	1042087	43888	110666	0	0	8147	614121	0	0
2024-07-09 16:19:32			0	36274	0	0	0	28527	27010	151017	26720	1042131	43870	110598	0	0	8151	613104	0	0
2024-07-09 16:20:32			0	36301	0	0	0	28374	27030	150865	26896	1042130	43860	110539	0	0	8155	611908	0	0
2024-07-09 16:21:32			0	36313	0	0	0	28244	27060	150537	27059	1042264	43875	110489	0	0	8158	611303	0	0
2024-07-09 16:22:32			0	36337	0	0	0	28179	27080	150509	27197	1042254	43867	110464	0	0	8161	610235	0	0
2024-07-09 16:23:32			0	36370	0	0	0	28290	27110	150325	27085	1042387	43868	110507	0	0	8161	608760	0	0
2024-07-09 16:24:32			0	36341	0	0	0	28311	27110	150285	27150	1042110	43824	110515	0	0	8159	609964	0	0
2024-07-09 16:25:32			0	36354	0	0	0	28205	27100	150253	26967	1042020	43834	110474	0	0	8161	609459	0	0
2024-07-09 16:26:32			0	36369	0	0	0	28101	27090	150237	27268	1041814	43822	110434	0	0	8164	608871	0	0
2024-07-09 16:27:32			0	36374	0	0	0	28036	27080	150097	26911	1041689	43811	110409	0	0	8165	608698	0	0
2024-07-09 16:28:32			0	36379	0	0	0	27992	27060	150057	27248	1041726	43808	110392	0	0	8166	608561	0	0
2024-07-09 16:29:32			0	36387	0	0	0	27999	27050	150021	27027	1041771	43830	110395	0	0	8166	608264	0	0
2024-07-09 16:30:32			0	36397	0	0	0	27994	27070	150057	27170	1041663	43809	110393	0	0	8167	607779	0	0
2024-07-09 16:31:32			0	36406	0	0	0	27989	27050	149953	27100	1041583	43785	110391	0	0	8168	607476	0	0
2024-07-09 16:32:32			0	36423	0	0	0	27929	27020	149913	27055	1041342	43782	110368	0	0	8169	606876	0	0
2024-07-09 16:33:32			0	36431	0	0	0	27893	27010	149925	27227	1041271	43792	110354	0	0	8170	606580	0	0
2024-07-09 16:34:32			0	36423	0	0	0	27875	26990	150053	27216	1041128	43768	110347	0	0	8170	606981	0	0
2024-07-09 16:35:32			0	36413	0	0	0	27877	26960	150069	26993	1041102	43798	110348	0	0	8169	607500	0	0
2024-07-09 16:36:32			0	36417	0	0	0	27890	26970	150205	27050	1041308	43811	110353	0	0	8169	607299	0	0
2024-07-09 16:37:32			0	36413	0	0	0	27974	26980	150161	27220	1041290	43799	110385	0	0	8168	607430	0	0
2024-07-09 16:38:32			0	36409	0	0	0	28096	26970	150249	27124	1041326	43788	110432	0	0	8166	607631	0	0
2024-07-09 16:39:32			0	36399	0	0	0	28010	26970	150209	26807	1041272	43776	110399	0	0	8166	608045	0	0
2024-07-09 16:40:32			0	36403	0	0	0	28057	26970	150213	27024	1041442	43799	110417	0	0	8166	607879	0	0
2024-07-09 16:41:32			0	36396	0	0	0	28036	27000	150281	26915	1041486	43824	110409	0	0	8166	608065	0	0
2024-07-09 16:42:32			0	36388	0	0	0	27999	26990	150269	27152	1041397	43791	110395	0	0	8166	608432	0	0
2024-07-09 16:43:32			0	36407	0	0	0	27916	26980	150253	27202	1041155	43755	110363	0	0	8169	607679	0	0
2024-07-09 16:44:32			0	36399	0	0	0	27870	26930	150201	27105	1040843	43741	110345	0	0	8169	608185	0	0
2024-07-09 16:45:32			0	36404	0	0	0	27807	26910	150165	27239	1040826	43749	110321	0	0	8170	608047	0	0
2024-07-09 16:46:32			0	36399	0	0	0	27742	26870	150169	27260	1040362	43735	110296	0	0	8171	608394	0	0
2024-07-09 16:47:32			0	36418	0	0	0	27732	26820	150197	26993	1040086	43707	110292	0	0	8172	607780	0	0
2024-07-09 16:48:32			0	36403	0	0	0	27719	26780	150193	27182	1039828	43704	110287	0	0	8171	608541	0	0
2024-07-09 16:49:32			0	36421	0	0	0	27714	26720	150233	27272	1039615	43731	110285	0	0	8172	608003	0	0
2024-07-09 16:50:32			0	36426	0	0	0	27657	26700	150257	27280	1039518	43728	110263	0	0	8173	607866	0	0
2024-07-09 16:51:32			0	36424	0	0	0	27664	26670	150233	27426	1039385	43736	110266	0	0	8172	608053	0	0
2024-07-09 16:52:32			0	36430	0	0	0	27667	26640	150253	26970	1039457	43746	110267	0	0	8172	607909	0	0
2024-07-09 16:53:32			0	36441	0	0	0	27670	26630	150321	27008	1039439	43767	110268	0	0	8173	607487	0	0
2024-07-09 16:54:32			0	36421	0	0	0	27773	26620	150297	27045	1039583	43765	110308	0	0	8170	608352	0	0
2024-07-09 16:55:32			0	36413	0	0	0	27901	26650	150429	26941	1039788	43768	110357	0	0	8168	608579	0	0
2024-07-09 16:56:32			0	36405	0	0	0	27958	26650	150461	26805	1039868	43791	110379	0	0	8166	608912	0	0
2024-07-09 16:57:32			0	36391	0	0	0	28077	26670	150629	27088	1040092	43803	110425	0	0	8164	609424	0	0
2024-07-09 16:58:32			0	36389	0	0	0	27989	26680	150737	26942	1040109	43793	110391	0	0	8165	609472	0	0
2024-07-09 16:59:32			0	36391	0	0	0	27999	26700	150597	27203	1040305	43807	110395	0	0	8165	609319	0	0
2024-07-09 17:00:32			0	36414	0	0	0	27935	26710	150557	27246	1040260	43785	110370	0	0	8167	608329	0	0
2024-07-09 17:01:32			0	36414	0	0	0	27885	26740	150525	27308	1040313	43810	110351	0	0	8168	608224	0	0
2024-07-09 17:02:32			0	36422	0	0	0	27857	26740	150401	26932	1040205	43788	110340	0	0	8169	607892	0	0
2024-07-09 17:03:32			0	36423	0	0	0	27883	26720	150333	27235	1040287	43776	110350	0	0	8169	607921	0	0
2024-07-09 17:04:32			0	36429	0	0	0	27942	26740	150297	27095	1040348	43789	110373	0	0	8168	607602	0	0
2024-07-09 17:05:32			0	36432	0	0	0	28033	26740	150317	27147	1040429	43778	110408	0	0	8167	607478	0	0
2024-07-09 17:06:32			0	36417	0	0	0	27974	26760	150357	27024	1040455	43800	110385	0	0	8167	608030	0	0
2024-07-09 17:07:32			0	36425	0	0	0	27748	26780	150225	26968	1040472	43792	110298	0	0	8171	607629	0	0
2024-07-09 17:08:32			0	36466	0	0	0	27732	26760	150117	26987	1040303	43757	110292	0	0	8174	606000	0	0
2024-07-09 17:09:32			0	36445	0	0	0	27799	26740	150177	26901	1040134	43755	110318	0	0	8171	606939	0	0
2024-07-09 17:10:32			0	36458	0	0	0	27805	26720	150189	27088	1039964	43743	110320	0	0	8172	606470	0	0
2024-07-09 17:11:32			0	36458	0	0	0	27883	26720	150241	27046	1040117	43786	110350	0	0	8171	606470	0	0
2024-07-09 17:12:32			0	36448	0	0	0	27906	26730	150205	27298	1040349	43797	110359	0	0	8170	606849	0	0
2024-07-09 17:13:32			0	36464	0	0	0	27914	26750	150265	27384	1040500	43811	110362	0	0	8171	606117	0	0
2024-07-09 17:14:32			0	36469	0	0	0	27924	26760	150161	26823	1040357	43791	110366	0	0	8171	605875	0	0
2024-07-09 17:15:32			0	36454	0	0	0	27825	26750	150173	27211	1040116	43744	110328	0	0	8172	606531	0	0
2024-07-09 17:16:32			0	36472	0	0	0	27732	26710	150245	27012	1039759	43729	110292	0	0	8174	605925	0	0
2024-07-09 17:17:32			0	36482	0	0	0	27677	26690	150017	26882	1039670	43739	110271	0	0	8175	605580	0	0
2024-07-09 17:18:32			0	36516	0	0	0	27618	26640	149929	26811	1039457	43723	110248	0	0	8178	604348	0	0
2024-07-09 17:19:32			0	36497	0	0	0	27589	26630	149945	27227	1039466	43746	110237	0	0	8177	605168	0	0
2024-07-09 17:20:32			0	36495	0	0	0	27792	26630	149913	26920	1039815	43790	110315	0	0	8174	605251	0	0
2024-07-09 17:21:32			0	36490	0	0	0	27818	26660	150125	26937	1040011	43791	110325	0	0	8173	605353	0	0
2024-07-09 17:22:32			0	36484	0	0	0	27792	26680	150209	26896	1039921	43793	110315	0	0	8173	605532	0	0
2024-07-09 17:23:32			0	36496	0	0	0	27750	26680	150017	26712	1039894	43782	110299	0	0	8175	605036	0	0
2024-07-09 17:24:32			0	35857	0	0	0	29509	26690	153597	27441	1040879	43838	110976	0	0	8111	631829	0	0
2024-07-09 17:25:32			0	33999	0	0	0	29246	26800	162006	32015	1042066	43950	110875	0	0	8016	714338	0	0
2024-07-09 17:26:32			0	33610	0	0	0	28997	27930	163530	31317	1042987	42979	110779	0	0	8004	727966	0	0
2024-07-09 17:27:32			0	33761	0	0	0	28950	28680	162294	29670	1044064	42391	110761	0	0	8017	717720	0	0
2024-07-09 17:28:32			0	33905	0	0	0	28877	29120	160626	44748	1045449	42130	110733	0	0	8028	709191	0	0
2024-07-09 17:29:32			0	34128	0	0	0	29732	29440	158054	47130	1046408	41959	111062	0	0	8027	697615	0	0
